<?xml version="1.0" encoding="UTF-8"?>
<gpx
  version="1.0"
  creator="pymavlink"
  xmlns:xsi="http://www.w3.org/2001/XMLSchema-instance"
  xmlns="http://www.topografix.com/GPX/1/0"
  xsi:schemaLocation="http://www.topografix.com/GPX/1/0 http://www.topografix.com/GPX/1/0/gpx.xsd">
<trk>
<trkseg>
<trkpt lat="-26.9720619" lon="149.6127921">
  <ele>339.29</ele>
  <time>2026-09-01T19:49:36Z</time>
  <course>310.27</course>
  <speed>0.0</speed>
  <fix>3d</fix>
</trkpt>
<trkpt lat="-26.9720619" lon="149.6127921">
  <ele>339.29</ele>
  <time>2026-09-01T19:49:36Z</time>
  <course>310.27</course>
  <speed>0.0</speed>
  <fix>3d</fix>
</trkpt>
<trkpt lat="-27.274439" lon="151.290064">
  <ele>-0.01</ele>
  <time>2026-09-01T19:49:36Z</time>
  <course>0.18</course>
  <speed>0.0</speed>
  <fix>3d</fix>
</trkpt>
<trkpt lat="-27.274439" lon="151.290064">
  <ele>343.1</ele>
  <time>2026-09-01T19:49:36Z</time>
  <course>294.58</course>
  <speed>0.0</speed>
  <fix>3d</fix>
</trkpt>
<trkpt lat="-27.274439" lon="151.290064">
  <ele>0.02</ele>
  <time>2026-09-01T19:49:36Z</time>
  <course>1.17</course>
  <speed>0.0</speed>
  <fix>3d</fix>
</trkpt>
<trkpt lat="-27.274439" lon="151.290064">
  <ele>343.1</ele>
  <time>2026-09-01T19:49:36Z</time>
  <course>294.58</course>
  <speed>0.0</speed>
  <fix>3d</fix>
</trkpt>
<trkpt lat="-27.274439" lon="151.290064">
  <ele>-0.08</ele>
  <time>2026-09-01T19:49:36Z</time>
  <course>2.07</course>
  <speed>0.0</speed>
  <fix>3d</fix>
</trkpt>
<trkpt lat="-27.274439" lon="151.290064">
  <ele>343.1</ele>
  <time>2026-09-01T19:49:36Z</time>
  <course>273.33</course>
  <speed>0.0</speed>
  <fix>3d</fix>
</trkpt>
<trkpt lat="-27.274439" lon="151.290064">
  <ele>0.22</ele>
  <time>2026-09-01T19:49:36Z</time>
  <course>2.89</course>
  <speed>0.0</speed>
  <fix>3d</fix>
</trkpt>
<trkpt lat="-27.274439" lon="151.290064">
  <ele>343.1</ele>
  <time>2026-09-01T19:49:36Z</time>
  <course>273.33</course>
  <speed>0.0</speed>
  <fix>3d</fix>
</trkpt>
<trkpt lat="-27.274439" lon="151.290064">
  <ele>0.09</ele>
  <time>2026-09-01T19:49:36Z</time>
  <course>3.63</course>
  <speed>0.0</speed>
  <fix>3d</fix>
</trkpt>
<trkpt lat="-27.274439" lon="151.290064">
  <ele>343.1</ele>
  <time>2026-09-01T19:49:36Z</time>
  <course>270.44</course>
  <speed>0.0</speed>
  <fix>3d</fix>
</trkpt>
<trkpt lat="-27.274439" lon="151.290064">
  <ele>0.08</ele>
  <time>2026-09-01T19:49:36Z</time>
  <course>4.31</course>
  <speed>0.0</speed>
  <fix>3d</fix>
</trkpt>
<trkpt lat="-27.274439" lon="151.290064">
  <ele>343.1</ele>
  <time>2026-09-01T19:49:36Z</time>
  <course>270.44</course>
  <speed>0.0</speed>
  <fix>3d</fix>
</trkpt>
<trkpt lat="-27.274439" lon="151.290064">
  <ele>0.09</ele>
  <time>2026-09-01T19:49:36Z</time>
  <course>4.93</course>
  <speed>0.0</speed>
  <fix>3d</fix>
</trkpt>
<trkpt lat="-27.274439" lon="151.290064">
  <ele>343.1</ele>
  <time>2026-09-01T19:49:36Z</time>
  <course>270.05</course>
  <speed>0.0</speed>
  <fix>3d</fix>
</trkpt>
<trkpt lat="-27.274439" lon="151.290064">
  <ele>-0.05</ele>
  <time>2026-09-01T19:49:36Z</time>
  <course>5.48</course>
  <speed>0.0</speed>
  <fix>3d</fix>
</trkpt>
<trkpt lat="-27.274439" lon="151.290064">
  <ele>343.1</ele>
  <time>2026-09-01T19:49:36Z</time>
  <course>270.05</course>
  <speed>0.0</speed>
  <fix>3d</fix>
</trkpt>
<trkpt lat="-27.274439" lon="151.290064">
  <ele>343.06</ele>
  <time>2026-09-01T19:49:36Z</time>
  <course>5.96</course>
  <speed>0.0</speed>
  <fix>3d</fix>
</trkpt>
<trkpt lat="-27.274439" lon="151.290064">
  <ele>343.1</ele>
  <time>2026-09-01T19:49:36Z</time>
  <course>270.0</course>
  <speed>0.0</speed>
  <fix>3d</fix>
</trkpt>
<trkpt lat="-27.274439" lon="151.290064">
  <ele>343.18</ele>
  <time>2026-09-01T19:49:36Z</time>
  <course>6.42</course>
  <speed>0.0</speed>
  <fix>3d</fix>
</trkpt>
<trkpt lat="-27.274439" lon="151.290064">
  <ele>343.1</ele>
  <time>2026-09-01T19:49:36Z</time>
  <course>270.0</course>
  <speed>0.0</speed>
  <fix>3d</fix>
</trkpt>
<trkpt lat="-27.274439" lon="151.290064">
  <ele>342.91</ele>
  <time>2026-09-01T19:49:36Z</time>
  <course>6.84</course>
  <speed>0.0</speed>
  <fix>3d</fix>
</trkpt>
<trkpt lat="-27.274439" lon="151.290064">
  <ele>343.1</ele>
  <time>2026-09-01T19:49:36Z</time>
  <course>270.0</course>
  <speed>0.0</speed>
  <fix>3d</fix>
</trkpt>
<trkpt lat="-27.274439" lon="151.290064">
  <ele>343.06</ele>
  <time>2026-09-01T19:49:36Z</time>
  <course>7.21</course>
  <speed>0.0</speed>
  <fix>3d</fix>
</trkpt>
<trkpt lat="-27.274439" lon="151.290064">
  <ele>343.1</ele>
  <time>2026-09-01T19:49:36Z</time>
  <course>270.0</course>
  <speed>0.0</speed>
  <fix>3d</fix>
</trkpt>
<trkpt lat="-27.274439" lon="151.290064">
  <ele>343.13</ele>
  <time>2026-09-01T19:49:36Z</time>
  <course>7.55</course>
  <speed>0.0</speed>
  <fix>3d</fix>
</trkpt>
<trkpt lat="-27.274439" lon="151.290064">
  <ele>343.1</ele>
  <time>2026-09-01T19:49:36Z</time>
  <course>270.0</course>
  <speed>0.0</speed>
  <fix>3d</fix>
</trkpt>
<trkpt lat="-27.274439" lon="151.290064">
  <ele>343.04</ele>
  <time>2026-09-01T19:49:36Z</time>
  <course>7.86</course>
  <speed>0.0</speed>
  <fix>3d</fix>
</trkpt>
<trkpt lat="-27.274439" lon="151.290064">
  <ele>343.1</ele>
  <time>2026-09-01T19:49:36Z</time>
  <course>270.0</course>
  <speed>0.0</speed>
  <fix>3d</fix>
</trkpt>
<trkpt lat="-27.274439" lon="151.290064">
  <ele>342.88</ele>
  <time>2026-09-01T19:49:36Z</time>
  <course>8.13</course>
  <speed>0.0</speed>
  <fix>3d</fix>
</trkpt>
<trkpt lat="-27.274439" lon="151.290064">
  <ele>343.1</ele>
  <time>2026-09-01T19:49:36Z</time>
  <course>270.0</course>
  <speed>0.0</speed>
  <fix>3d</fix>
</trkpt>
<trkpt lat="-27.274439" lon="151.290064">
  <ele>343.02</ele>
  <time>2026-09-01T19:49:36Z</time>
  <course>8.38</course>
  <speed>0.0</speed>
  <fix>3d</fix>
</trkpt>
<trkpt lat="-27.274439" lon="151.290064">
  <ele>343.1</ele>
  <time>2026-09-01T19:49:36Z</time>
  <course>270.0</course>
  <speed>0.0</speed>
  <fix>3d</fix>
</trkpt>
<trkpt lat="-27.274439" lon="151.290064">
  <ele>343.23</ele>
  <time>2026-09-01T19:49:36Z</time>
  <course>8.62</course>
  <speed>0.0</speed>
  <fix>3d</fix>
</trkpt>
<trkpt lat="-27.274439" lon="151.290064">
  <ele>343.1</ele>
  <time>2026-09-01T19:49:36Z</time>
  <course>270.0</course>
  <speed>0.0</speed>
  <fix>3d</fix>
</trkpt>
<trkpt lat="-27.274439" lon="151.290064">
  <ele>343.17</ele>
  <time>2026-09-01T19:49:36Z</time>
  <course>8.82</course>
  <speed>0.0</speed>
  <fix>3d</fix>
</trkpt>
<trkpt lat="-27.274439" lon="151.290064">
  <ele>343.1</ele>
  <time>2026-09-01T19:49:36Z</time>
  <course>270.0</course>
  <speed>0.0</speed>
  <fix>3d</fix>
</trkpt>
<trkpt lat="-27.274439" lon="151.290064">
  <ele>343.04</ele>
  <time>2026-09-01T19:49:36Z</time>
  <course>9.0</course>
  <speed>0.0</speed>
  <fix>3d</fix>
</trkpt>
<trkpt lat="-27.274439" lon="151.290064">
  <ele>343.1</ele>
  <time>2026-09-01T19:49:36Z</time>
  <course>270.0</course>
  <speed>0.0</speed>
  <fix>3d</fix>
</trkpt>
<trkpt lat="-27.274439" lon="151.290064">
  <ele>342.89</ele>
  <time>2026-09-01T19:49:36Z</time>
  <course>9.17</course>
  <speed>0.0</speed>
  <fix>3d</fix>
</trkpt>
<trkpt lat="-27.274439" lon="151.290064">
  <ele>343.1</ele>
  <time>2026-09-01T19:49:36Z</time>
  <course>270.0</course>
  <speed>0.0</speed>
  <fix>3d</fix>
</trkpt>
<trkpt lat="-27.274439" lon="151.290064">
  <ele>343.08</ele>
  <time>2026-09-01T19:49:36Z</time>
  <course>9.32</course>
  <speed>0.0</speed>
  <fix>3d</fix>
</trkpt>
<trkpt lat="-27.274439" lon="151.290064">
  <ele>343.1</ele>
  <time>2026-09-01T19:49:36Z</time>
  <course>270.0</course>
  <speed>0.0</speed>
  <fix>3d</fix>
</trkpt>
<trkpt lat="-27.274439" lon="151.290064">
  <ele>343.19</ele>
  <time>2026-09-01T19:49:36Z</time>
  <course>9.46</course>
  <speed>0.0</speed>
  <fix>3d</fix>
</trkpt>
<trkpt lat="-27.274439" lon="151.290064">
  <ele>343.1</ele>
  <time>2026-09-01T19:49:36Z</time>
  <course>270.0</course>
  <speed>0.0</speed>
  <fix>3d</fix>
</trkpt>
<trkpt lat="-27.274439" lon="151.290064">
  <ele>342.88</ele>
  <time>2026-09-01T19:49:36Z</time>
  <course>9.59</course>
  <speed>0.0</speed>
  <fix>3d</fix>
</trkpt>
<trkpt lat="-27.274439" lon="151.290064">
  <ele>343.1</ele>
  <time>2026-09-01T19:49:36Z</time>
  <course>270.0</course>
  <speed>0.0</speed>
  <fix>3d</fix>
</trkpt>
<trkpt lat="-27.274439" lon="151.290064">
  <ele>343.17</ele>
  <time>2026-09-01T19:49:36Z</time>
  <course>9.7</course>
  <speed>0.0</speed>
  <fix>3d</fix>
</trkpt>
<trkpt lat="-27.274439" lon="151.290064">
  <ele>343.1</ele>
  <time>2026-09-01T19:49:36Z</time>
  <course>270.0</course>
  <speed>0.0</speed>
  <fix>3d</fix>
</trkpt>
<trkpt lat="-27.274439" lon="151.290064">
  <ele>342.89</ele>
  <time>2026-09-01T19:49:36Z</time>
  <course>9.8</course>
  <speed>0.0</speed>
  <fix>3d</fix>
</trkpt>
<trkpt lat="-27.274439" lon="151.290064">
  <ele>343.1</ele>
  <time>2026-09-01T19:49:36Z</time>
  <course>270.0</course>
  <speed>0.0</speed>
  <fix>3d</fix>
</trkpt>
<trkpt lat="-27.274439" lon="151.290064">
  <ele>342.99</ele>
  <time>2026-09-01T19:49:36Z</time>
  <course>9.89</course>
  <speed>0.0</speed>
  <fix>3d</fix>
</trkpt>
<trkpt lat="-27.274439" lon="151.290064">
  <ele>343.1</ele>
  <time>2026-09-01T19:49:36Z</time>
  <course>270.0</course>
  <speed>0.0</speed>
  <fix>3d</fix>
</trkpt>
<trkpt lat="-27.274439" lon="151.290064">
  <ele>342.87</ele>
  <time>2026-09-01T19:49:36Z</time>
  <course>9.98</course>
  <speed>0.0</speed>
  <fix>3d</fix>
</trkpt>
<trkpt lat="-27.274439" lon="151.290064">
  <ele>343.1</ele>
  <time>2026-09-01T19:49:36Z</time>
  <course>270.0</course>
  <speed>0.0</speed>
  <fix>3d</fix>
</trkpt>
<trkpt lat="-27.274439" lon="151.290064">
  <ele>343.09</ele>
  <time>2026-09-01T19:49:36Z</time>
  <course>10.06</course>
  <speed>0.0</speed>
  <fix>3d</fix>
</trkpt>
<trkpt lat="-27.274439" lon="151.290064">
  <ele>343.1</ele>
  <time>2026-09-01T19:49:36Z</time>
  <course>270.0</course>
  <speed>0.0</speed>
  <fix>3d</fix>
</trkpt>
<trkpt lat="-27.274439" lon="151.290064">
  <ele>343.18</ele>
  <time>2026-09-01T19:49:36Z</time>
  <course>10.13</course>
  <speed>0.0</speed>
  <fix>3d</fix>
</trkpt>
<trkpt lat="-27.274439" lon="151.290064">
  <ele>343.1</ele>
  <time>2026-09-01T19:49:36Z</time>
  <course>270.0</course>
  <speed>0.0</speed>
  <fix>3d</fix>
</trkpt>
<trkpt lat="-27.274439" lon="151.290064">
  <ele>343.05</ele>
  <time>2026-09-01T19:49:36Z</time>
  <course>10.19</course>
  <speed>0.0</speed>
  <fix>3d</fix>
</trkpt>
<trkpt lat="-27.274439" lon="151.290064">
  <ele>343.1</ele>
  <time>2026-09-01T19:49:36Z</time>
  <course>270.0</course>
  <speed>0.0</speed>
  <fix>3d</fix>
</trkpt>
<trkpt lat="-27.274439" lon="151.290064">
  <ele>342.96</ele>
  <time>2026-09-01T19:49:36Z</time>
  <course>10.25</course>
  <speed>0.0</speed>
  <fix>3d</fix>
</trkpt>
<trkpt lat="-27.274439" lon="151.290064">
  <ele>343.1</ele>
  <time>2026-09-01T19:49:36Z</time>
  <course>270.0</course>
  <speed>0.0</speed>
  <fix>3d</fix>
</trkpt>
<trkpt lat="-27.274439" lon="151.290064">
  <ele>343.1</ele>
  <time>2026-09-01T19:49:36Z</time>
  <course>10.3</course>
  <speed>0.0</speed>
  <fix>3d</fix>
</trkpt>
<trkpt lat="-27.274439" lon="151.290064">
  <ele>343.1</ele>
  <time>2026-09-01T19:49:36Z</time>
  <course>270.0</course>
  <speed>0.0</speed>
  <fix>3d</fix>
</trkpt>
<trkpt lat="-27.274439" lon="151.290064">
  <ele>343.22</ele>
  <time>2026-09-01T19:49:36Z</time>
  <course>10.35</course>
  <speed>0.0</speed>
  <fix>3d</fix>
</trkpt>
<trkpt lat="-27.274439" lon="151.290064">
  <ele>343.1</ele>
  <time>2026-09-01T19:49:36Z</time>
  <course>270.0</course>
  <speed>0.0</speed>
  <fix>3d</fix>
</trkpt>
<trkpt lat="-27.274439" lon="151.290064">
  <ele>343.17</ele>
  <time>2026-09-01T19:49:36Z</time>
  <course>10.39</course>
  <speed>0.0</speed>
  <fix>3d</fix>
</trkpt>
<trkpt lat="-27.274439" lon="151.290064">
  <ele>343.1</ele>
  <time>2026-09-01T19:49:36Z</time>
  <course>270.0</course>
  <speed>0.0</speed>
  <fix>3d</fix>
</trkpt>
<trkpt lat="-27.274439" lon="151.290064">
  <ele>343.08</ele>
  <time>2026-09-01T19:49:36Z</time>
  <course>10.43</course>
  <speed>0.0</speed>
  <fix>3d</fix>
</trkpt>
<trkpt lat="-27.274439" lon="151.290064">
  <ele>343.1</ele>
  <time>2026-09-01T19:49:36Z</time>
  <course>270.0</course>
  <speed>0.0</speed>
  <fix>3d</fix>
</trkpt>
<trkpt lat="-27.274439" lon="151.290064">
  <ele>343.04</ele>
  <time>2026-09-01T19:49:36Z</time>
  <course>10.47</course>
  <speed>0.0</speed>
  <fix>3d</fix>
</trkpt>
<trkpt lat="-27.274439" lon="151.290064">
  <ele>343.1</ele>
  <time>2026-09-01T19:49:36Z</time>
  <course>270.0</course>
  <speed>0.0</speed>
  <fix>3d</fix>
</trkpt>
<trkpt lat="-27.274439" lon="151.290064">
  <ele>343.18</ele>
  <time>2026-09-01T19:49:36Z</time>
  <course>10.5</course>
  <speed>0.0</speed>
  <fix>3d</fix>
</trkpt>
<trkpt lat="-27.274439" lon="151.290064">
  <ele>343.1</ele>
  <time>2026-09-01T19:49:36Z</time>
  <course>270.0</course>
  <speed>0.0</speed>
  <fix>3d</fix>
</trkpt>
<trkpt lat="-27.274439" lon="151.290064">
  <ele>343.12</ele>
  <time>2026-09-01T19:49:36Z</time>
  <course>10.53</course>
  <speed>0.0</speed>
  <fix>3d</fix>
</trkpt>
<trkpt lat="-27.274439" lon="151.290064">
  <ele>343.1</ele>
  <time>2026-09-01T19:49:36Z</time>
  <course>270.0</course>
  <speed>0.0</speed>
  <fix>3d</fix>
</trkpt>
<trkpt lat="-27.274439" lon="151.290064">
  <ele>343.04</ele>
  <time>2026-09-01T19:49:36Z</time>
  <course>10.55</course>
  <speed>0.0</speed>
  <fix>3d</fix>
</trkpt>
<trkpt lat="-27.274439" lon="151.290064">
  <ele>343.1</ele>
  <time>2026-09-01T19:49:36Z</time>
  <course>270.0</course>
  <speed>0.0</speed>
  <fix>3d</fix>
</trkpt>
<trkpt lat="-27.274439" lon="151.290064">
  <ele>343.07</ele>
  <time>2026-09-01T19:49:36Z</time>
  <course>10.58</course>
  <speed>0.0</speed>
  <fix>3d</fix>
</trkpt>
<trkpt lat="-27.274439" lon="151.290064">
  <ele>343.1</ele>
  <time>2026-09-01T19:49:36Z</time>
  <course>270.0</course>
  <speed>0.0</speed>
  <fix>3d</fix>
</trkpt>
<trkpt lat="-27.274439" lon="151.290064">
  <ele>343.04</ele>
  <time>2026-09-01T19:49:36Z</time>
  <course>10.6</course>
  <speed>0.0</speed>
  <fix>3d</fix>
</trkpt>
<trkpt lat="-27.274439" lon="151.290064">
  <ele>343.1</ele>
  <time>2026-09-01T19:49:36Z</time>
  <course>270.0</course>
  <speed>0.0</speed>
  <fix>3d</fix>
</trkpt>
<trkpt lat="-27.274439" lon="151.290064">
  <ele>343.01</ele>
  <time>2026-09-01T19:49:36Z</time>
  <course>10.62</course>
  <speed>0.0</speed>
  <fix>3d</fix>
</trkpt>
<trkpt lat="-27.274439" lon="151.290064">
  <ele>343.1</ele>
  <time>2026-09-01T19:49:36Z</time>
  <course>270.0</course>
  <speed>0.0</speed>
  <fix>3d</fix>
</trkpt>
<trkpt lat="-27.274439" lon="151.290064">
  <ele>343.2</ele>
  <time>2026-09-01T19:49:36Z</time>
  <course>10.64</course>
  <speed>0.0</speed>
  <fix>3d</fix>
</trkpt>
<trkpt lat="-27.274439" lon="151.290064">
  <ele>343.1</ele>
  <time>2026-09-01T19:49:36Z</time>
  <course>270.0</course>
  <speed>0.0</speed>
  <fix>3d</fix>
</trkpt>
<trkpt lat="-27.274439" lon="151.290064">
  <ele>343.24</ele>
  <time>2026-09-01T19:49:36Z</time>
  <course>10.65</course>
  <speed>0.0</speed>
  <fix>3d</fix>
</trkpt>
<trkpt lat="-27.274439" lon="151.290064">
  <ele>343.1</ele>
  <time>2026-09-01T19:49:36Z</time>
  <course>270.0</course>
  <speed>0.0</speed>
  <fix>3d</fix>
</trkpt>
<trkpt lat="-27.274439" lon="151.290064">
  <ele>342.88</ele>
  <time>2026-09-01T19:49:36Z</time>
  <course>10.67</course>
  <speed>0.0</speed>
  <fix>3d</fix>
</trkpt>
<trkpt lat="-27.274439" lon="151.290064">
  <ele>343.1</ele>
  <time>2026-09-01T19:49:36Z</time>
  <course>270.0</course>
  <speed>0.0</speed>
  <fix>3d</fix>
</trkpt>
<trkpt lat="-27.274439" lon="151.290064">
  <ele>343.21</ele>
  <time>2026-09-01T19:49:36Z</time>
  <course>10.68</course>
  <speed>0.0</speed>
  <fix>3d</fix>
</trkpt>
<trkpt lat="-27.274439" lon="151.290064">
  <ele>343.1</ele>
  <time>2026-09-01T19:49:36Z</time>
  <course>270.0</course>
  <speed>0.0</speed>
  <fix>3d</fix>
</trkpt>
<trkpt lat="-27.274439" lon="151.290064">
  <ele>343.02</ele>
  <time>2026-09-01T19:49:36Z</time>
  <course>10.69</course>
  <speed>0.0</speed>
  <fix>3d</fix>
</trkpt>
<trkpt lat="-27.274439" lon="151.290064">
  <ele>343.1</ele>
  <time>2026-09-01T19:49:36Z</time>
  <course>270.0</course>
  <speed>0.0</speed>
  <fix>3d</fix>
</trkpt>
<trkpt lat="-27.274439" lon="151.290064">
  <ele>342.93</ele>
  <time>2026-09-01T19:49:36Z</time>
  <course>10.7</course>
  <speed>0.0</speed>
  <fix>3d</fix>
</trkpt>
<trkpt lat="-27.274439" lon="151.290064">
  <ele>343.1</ele>
  <time>2026-09-01T19:49:36Z</time>
  <course>270.0</course>
  <speed>0.0</speed>
  <fix>3d</fix>
</trkpt>
<trkpt lat="-27.274439" lon="151.290064">
  <ele>343.07</ele>
  <time>2026-09-01T19:49:36Z</time>
  <course>10.71</course>
  <speed>0.0</speed>
  <fix>3d</fix>
</trkpt>
<trkpt lat="-27.274439" lon="151.290064">
  <ele>343.1</ele>
  <time>2026-09-01T19:49:36Z</time>
  <course>270.0</course>
  <speed>0.0</speed>
  <fix>3d</fix>
</trkpt>
<trkpt lat="-27.274439" lon="151.290064">
  <ele>342.94</ele>
  <time>2026-09-01T19:49:36Z</time>
  <course>10.72</course>
  <speed>0.0</speed>
  <fix>3d</fix>
</trkpt>
<trkpt lat="-27.274439" lon="151.290064">
  <ele>343.1</ele>
  <time>2026-09-01T19:49:36Z</time>
  <course>270.0</course>
  <speed>0.0</speed>
  <fix>3d</fix>
</trkpt>
<trkpt lat="-27.274439" lon="151.290064">
  <ele>343.11</ele>
  <time>2026-09-01T19:49:36Z</time>
  <course>10.73</course>
  <speed>0.0</speed>
  <fix>3d</fix>
</trkpt>
<trkpt lat="-27.274439" lon="151.290064">
  <ele>343.1</ele>
  <time>2026-09-01T19:49:36Z</time>
  <course>270.0</course>
  <speed>0.0</speed>
  <fix>3d</fix>
</trkpt>
<trkpt lat="-27.274439" lon="151.290064">
  <ele>343.24</ele>
  <time>2026-09-01T19:49:36Z</time>
  <course>10.73</course>
  <speed>0.0</speed>
  <fix>3d</fix>
</trkpt>
<trkpt lat="-27.274439" lon="151.290064">
  <ele>343.1</ele>
  <time>2026-09-01T19:49:36Z</time>
  <course>270.0</course>
  <speed>0.0</speed>
  <fix>3d</fix>
</trkpt>
<trkpt lat="-27.274439" lon="151.290064">
  <ele>343.18</ele>
  <time>2026-09-01T19:49:36Z</time>
  <course>10.74</course>
  <speed>0.0</speed>
  <fix>3d</fix>
</trkpt>
<trkpt lat="-27.274439" lon="151.290064">
  <ele>343.1</ele>
  <time>2026-09-01T19:49:36Z</time>
  <course>270.0</course>
  <speed>0.0</speed>
  <fix>3d</fix>
</trkpt>
<trkpt lat="-27.274439" lon="151.290064">
  <ele>342.89</ele>
  <time>2026-09-01T19:49:36Z</time>
  <course>10.75</course>
  <speed>0.0</speed>
  <fix>3d</fix>
</trkpt>
<trkpt lat="-27.274439" lon="151.290064">
  <ele>343.1</ele>
  <time>2026-09-01T19:49:36Z</time>
  <course>270.0</course>
  <speed>0.0</speed>
  <fix>3d</fix>
</trkpt>
<trkpt lat="-27.274439" lon="151.290064">
  <ele>343.23</ele>
  <time>2026-09-01T19:49:36Z</time>
  <course>10.75</course>
  <speed>0.0</speed>
  <fix>3d</fix>
</trkpt>
<trkpt lat="-27.274439" lon="151.290064">
  <ele>343.1</ele>
  <time>2026-09-01T19:49:36Z</time>
  <course>270.0</course>
  <speed>0.0</speed>
  <fix>3d</fix>
</trkpt>
<trkpt lat="-27.274439" lon="151.290064">
  <ele>343.23</ele>
  <time>2026-09-01T19:49:36Z</time>
  <course>10.76</course>
  <speed>0.0</speed>
  <fix>3d</fix>
</trkpt>
<trkpt lat="-27.274439" lon="151.290064">
  <ele>343.1</ele>
  <time>2026-09-01T19:49:36Z</time>
  <course>270.0</course>
  <speed>0.0</speed>
  <fix>3d</fix>
</trkpt>
<trkpt lat="-27.274439" lon="151.290064">
  <ele>342.99</ele>
  <time>2026-09-01T19:49:36Z</time>
  <course>10.76</course>
  <speed>0.0</speed>
  <fix>3d</fix>
</trkpt>
<trkpt lat="-27.274439" lon="151.290064">
  <ele>343.1</ele>
  <time>2026-09-01T19:49:36Z</time>
  <course>270.0</course>
  <speed>0.0</speed>
  <fix>3d</fix>
</trkpt>
<trkpt lat="-27.274439" lon="151.290064">
  <ele>343.13</ele>
  <time>2026-09-01T19:49:36Z</time>
  <course>10.76</course>
  <speed>0.0</speed>
  <fix>3d</fix>
</trkpt>
<trkpt lat="-27.274439" lon="151.290064">
  <ele>343.1</ele>
  <time>2026-09-01T19:49:36Z</time>
  <course>270.0</course>
  <speed>0.0</speed>
  <fix>3d</fix>
</trkpt>
<trkpt lat="-27.274439" lon="151.290064">
  <ele>343.07</ele>
  <time>2026-09-01T19:49:36Z</time>
  <course>10.77</course>
  <speed>0.0</speed>
  <fix>3d</fix>
</trkpt>
<trkpt lat="-27.274439" lon="151.290064">
  <ele>343.1</ele>
  <time>2026-09-01T19:49:36Z</time>
  <course>270.0</course>
  <speed>0.0</speed>
  <fix>3d</fix>
</trkpt>
<trkpt lat="-27.274439" lon="151.290064">
  <ele>343.19</ele>
  <time>2026-09-01T19:49:36Z</time>
  <course>10.77</course>
  <speed>0.0</speed>
  <fix>3d</fix>
</trkpt>
<trkpt lat="-27.274439" lon="151.290064">
  <ele>343.1</ele>
  <time>2026-09-01T19:49:36Z</time>
  <course>270.0</course>
  <speed>0.0</speed>
  <fix>3d</fix>
</trkpt>
<trkpt lat="-27.274439" lon="151.290064">
  <ele>342.93</ele>
  <time>2026-09-01T19:49:36Z</time>
  <course>10.77</course>
  <speed>0.0</speed>
  <fix>3d</fix>
</trkpt>
<trkpt lat="-27.274439" lon="151.290064">
  <ele>343.1</ele>
  <time>2026-09-01T19:49:36Z</time>
  <course>270.0</course>
  <speed>0.0</speed>
  <fix>3d</fix>
</trkpt>
<trkpt lat="-27.274439" lon="151.290064">
  <ele>343.19</ele>
  <time>2026-09-01T19:49:36Z</time>
  <course>10.78</course>
  <speed>0.0</speed>
  <fix>3d</fix>
</trkpt>
<trkpt lat="-27.274439" lon="151.290064">
  <ele>343.1</ele>
  <time>2026-09-01T19:49:36Z</time>
  <course>270.0</course>
  <speed>0.0</speed>
  <fix>3d</fix>
</trkpt>
<trkpt lat="-27.274439" lon="151.290064">
  <ele>343.1</ele>
  <time>2026-09-01T19:49:36Z</time>
  <course>10.78</course>
  <speed>0.0</speed>
  <fix>3d</fix>
</trkpt>
<trkpt lat="-27.274439" lon="151.290064">
  <ele>343.1</ele>
  <time>2026-09-01T19:49:36Z</time>
  <course>270.0</course>
  <speed>0.0</speed>
  <fix>3d</fix>
</trkpt>
<trkpt lat="-27.274439" lon="151.290064">
  <ele>343.01</ele>
  <time>2026-09-01T19:49:36Z</time>
  <course>10.78</course>
  <speed>0.0</speed>
  <fix>3d</fix>
</trkpt>
<trkpt lat="-27.274439" lon="151.290064">
  <ele>343.1</ele>
  <time>2026-09-01T19:49:36Z</time>
  <course>270.0</course>
  <speed>0.0</speed>
  <fix>3d</fix>
</trkpt>
<trkpt lat="-27.274439" lon="151.290064">
  <ele>343.11</ele>
  <time>2026-09-01T19:49:36Z</time>
  <course>10.78</course>
  <speed>0.0</speed>
  <fix>3d</fix>
</trkpt>
<trkpt lat="-27.274439" lon="151.290064">
  <ele>343.1</ele>
  <time>2026-09-01T19:49:36Z</time>
  <course>270.0</course>
  <speed>0.0</speed>
  <fix>3d</fix>
</trkpt>
<trkpt lat="-27.274439" lon="151.290064">
  <ele>342.96</ele>
  <time>2026-09-01T19:49:36Z</time>
  <course>10.78</course>
  <speed>0.0</speed>
  <fix>3d</fix>
</trkpt>
<trkpt lat="-27.274439" lon="151.290064">
  <ele>343.1</ele>
  <time>2026-09-01T19:49:36Z</time>
  <course>270.0</course>
  <speed>0.0</speed>
  <fix>3d</fix>
</trkpt>
<trkpt lat="-27.274439" lon="151.290064">
  <ele>343.19</ele>
  <time>2026-09-01T19:49:36Z</time>
  <course>10.79</course>
  <speed>0.0</speed>
  <fix>3d</fix>
</trkpt>
<trkpt lat="-27.274439" lon="151.290064">
  <ele>343.1</ele>
  <time>2026-09-01T19:49:36Z</time>
  <course>270.0</course>
  <speed>0.0</speed>
  <fix>3d</fix>
</trkpt>
<trkpt lat="-27.274439" lon="151.290064">
  <ele>343.0</ele>
  <time>2026-09-01T19:49:36Z</time>
  <course>10.79</course>
  <speed>0.0</speed>
  <fix>3d</fix>
</trkpt>
<trkpt lat="-27.274439" lon="151.290064">
  <ele>343.1</ele>
  <time>2026-09-01T19:49:36Z</time>
  <course>270.0</course>
  <speed>0.0</speed>
  <fix>3d</fix>
</trkpt>
<trkpt lat="-27.274439" lon="151.290064">
  <ele>343.2</ele>
  <time>2026-09-01T19:49:36Z</time>
  <course>10.79</course>
  <speed>0.0</speed>
  <fix>3d</fix>
</trkpt>
<trkpt lat="-27.274439" lon="151.290064">
  <ele>343.1</ele>
  <time>2026-09-01T19:49:36Z</time>
  <course>270.0</course>
  <speed>0.0</speed>
  <fix>3d</fix>
</trkpt>
<trkpt lat="-27.274439" lon="151.290064">
  <ele>343.2</ele>
  <time>2026-09-01T19:49:37Z</time>
  <course>10.79</course>
  <speed>0.0</speed>
  <fix>3d</fix>
</trkpt>
<trkpt lat="-27.274439" lon="151.290064">
  <ele>343.1</ele>
  <time>2026-09-01T19:49:37Z</time>
  <course>270.0</course>
  <speed>0.0</speed>
  <fix>3d</fix>
</trkpt>
<trkpt lat="-27.274439" lon="151.290064">
  <ele>343.13</ele>
  <time>2026-09-01T19:49:37Z</time>
  <course>10.79</course>
  <speed>0.0</speed>
  <fix>3d</fix>
</trkpt>
<trkpt lat="-27.274439" lon="151.290064">
  <ele>343.1</ele>
  <time>2026-09-01T19:49:37Z</time>
  <course>270.0</course>
  <speed>0.0</speed>
  <fix>3d</fix>
</trkpt>
<trkpt lat="-27.274439" lon="151.290064">
  <ele>343.1</ele>
  <time>2026-09-01T19:49:37Z</time>
  <course>10.79</course>
  <speed>0.0</speed>
  <fix>3d</fix>
</trkpt>
<trkpt lat="-27.274439" lon="151.290064">
  <ele>343.1</ele>
  <time>2026-09-01T19:49:37Z</time>
  <course>270.0</course>
  <speed>0.0</speed>
  <fix>3d</fix>
</trkpt>
<trkpt lat="-27.274439" lon="151.290064">
  <ele>343.12</ele>
  <time>2026-09-01T19:49:37Z</time>
  <course>10.79</course>
  <speed>0.0</speed>
  <fix>3d</fix>
</trkpt>
<trkpt lat="-27.274439" lon="151.290064">
  <ele>343.1</ele>
  <time>2026-09-01T19:49:37Z</time>
  <course>270.0</course>
  <speed>0.0</speed>
  <fix>3d</fix>
</trkpt>
<trkpt lat="-27.274439" lon="151.290064">
  <ele>342.94</ele>
  <time>2026-09-01T19:49:37Z</time>
  <course>10.79</course>
  <speed>0.0</speed>
  <fix>3d</fix>
</trkpt>
<trkpt lat="-27.274439" lon="151.290064">
  <ele>343.1</ele>
  <time>2026-09-01T19:49:37Z</time>
  <course>270.0</course>
  <speed>0.0</speed>
  <fix>3d</fix>
</trkpt>
<trkpt lat="-27.274439" lon="151.290064">
  <ele>343.25</ele>
  <time>2026-09-01T19:49:37Z</time>
  <course>10.79</course>
  <speed>0.0</speed>
  <fix>3d</fix>
</trkpt>
<trkpt lat="-27.274439" lon="151.290064">
  <ele>343.1</ele>
  <time>2026-09-01T19:49:37Z</time>
  <course>270.0</course>
  <speed>0.0</speed>
  <fix>3d</fix>
</trkpt>
<trkpt lat="-27.274439" lon="151.290064">
  <ele>342.93</ele>
  <time>2026-09-01T19:49:37Z</time>
  <course>10.79</course>
  <speed>0.0</speed>
  <fix>3d</fix>
</trkpt>
<trkpt lat="-27.274439" lon="151.290064">
  <ele>343.1</ele>
  <time>2026-09-01T19:49:37Z</time>
  <course>270.0</course>
  <speed>0.0</speed>
  <fix>3d</fix>
</trkpt>
<trkpt lat="-27.274439" lon="151.290064">
  <ele>343.08</ele>
  <time>2026-09-01T19:49:37Z</time>
  <course>10.8</course>
  <speed>0.0</speed>
  <fix>3d</fix>
</trkpt>
<trkpt lat="-27.274439" lon="151.290064">
  <ele>343.1</ele>
  <time>2026-09-01T19:49:37Z</time>
  <course>270.0</course>
  <speed>0.0</speed>
  <fix>3d</fix>
</trkpt>
<trkpt lat="-27.274439" lon="151.290064">
  <ele>343.23</ele>
  <time>2026-09-01T19:49:37Z</time>
  <course>10.8</course>
  <speed>0.0</speed>
  <fix>3d</fix>
</trkpt>
<trkpt lat="-27.274439" lon="151.290064">
  <ele>343.1</ele>
  <time>2026-09-01T19:49:37Z</time>
  <course>270.0</course>
  <speed>0.0</speed>
  <fix>3d</fix>
</trkpt>
<trkpt lat="-27.274439" lon="151.290064">
  <ele>343.01</ele>
  <time>2026-09-01T19:49:37Z</time>
  <course>10.8</course>
  <speed>0.0</speed>
  <fix>3d</fix>
</trkpt>
<trkpt lat="-27.274439" lon="151.290064">
  <ele>343.1</ele>
  <time>2026-09-01T19:49:37Z</time>
  <course>270.0</course>
  <speed>0.0</speed>
  <fix>3d</fix>
</trkpt>
<trkpt lat="-27.274439" lon="151.290064">
  <ele>343.1</ele>
  <time>2026-09-01T19:49:37Z</time>
  <course>10.8</course>
  <speed>0.0</speed>
  <fix>3d</fix>
</trkpt>
<trkpt lat="-27.274439" lon="151.290064">
  <ele>343.1</ele>
  <time>2026-09-01T19:49:37Z</time>
  <course>270.0</course>
  <speed>0.0</speed>
  <fix>3d</fix>
</trkpt>
<trkpt lat="-27.274439" lon="151.290064">
  <ele>342.99</ele>
  <time>2026-09-01T19:49:37Z</time>
  <course>10.8</course>
  <speed>0.0</speed>
  <fix>3d</fix>
</trkpt>
<trkpt lat="-27.274439" lon="151.290064">
  <ele>343.1</ele>
  <time>2026-09-01T19:49:37Z</time>
  <course>270.0</course>
  <speed>0.0</speed>
  <fix>3d</fix>
</trkpt>
<trkpt lat="-27.274439" lon="151.290064">
  <ele>342.87</ele>
  <time>2026-09-01T19:49:37Z</time>
  <course>10.8</course>
  <speed>0.0</speed>
  <fix>3d</fix>
</trkpt>
<trkpt lat="-27.274439" lon="151.290064">
  <ele>343.1</ele>
  <time>2026-09-01T19:49:37Z</time>
  <course>270.0</course>
  <speed>0.0</speed>
  <fix>3d</fix>
</trkpt>
<trkpt lat="-27.274439" lon="151.290064">
  <ele>343.1</ele>
  <time>2026-09-01T19:49:37Z</time>
  <course>10.8</course>
  <speed>0.0</speed>
  <fix>3d</fix>
</trkpt>
<trkpt lat="-27.274439" lon="151.290064">
  <ele>343.1</ele>
  <time>2026-09-01T19:49:37Z</time>
  <course>270.0</course>
  <speed>0.0</speed>
  <fix>3d</fix>
</trkpt>
<trkpt lat="-27.274439" lon="151.290064">
  <ele>342.99</ele>
  <time>2026-09-01T19:49:37Z</time>
  <course>10.8</course>
  <speed>0.0</speed>
  <fix>3d</fix>
</trkpt>
<trkpt lat="-27.274439" lon="151.290064">
  <ele>343.1</ele>
  <time>2026-09-01T19:49:37Z</time>
  <course>270.0</course>
  <speed>0.0</speed>
  <fix>3d</fix>
</trkpt>
<trkpt lat="-27.274439" lon="151.290064">
  <ele>342.91</ele>
  <time>2026-09-01T19:49:37Z</time>
  <course>10.8</course>
  <speed>0.0</speed>
  <fix>3d</fix>
</trkpt>
<trkpt lat="-27.274439" lon="151.290064">
  <ele>343.1</ele>
  <time>2026-09-01T19:49:37Z</time>
  <course>270.0</course>
  <speed>0.0</speed>
  <fix>3d</fix>
</trkpt>
<trkpt lat="-27.274439" lon="151.290064">
  <ele>342.9</ele>
  <time>2026-09-01T19:49:37Z</time>
  <course>10.8</course>
  <speed>0.0</speed>
  <fix>3d</fix>
</trkpt>
<trkpt lat="-27.274439" lon="151.290064">
  <ele>343.1</ele>
  <time>2026-09-01T19:49:37Z</time>
  <course>270.0</course>
  <speed>0.0</speed>
  <fix>3d</fix>
</trkpt>
<trkpt lat="-27.274439" lon="151.290064">
  <ele>342.87</ele>
  <time>2026-09-01T19:49:37Z</time>
  <course>10.8</course>
  <speed>0.0</speed>
  <fix>3d</fix>
</trkpt>
<trkpt lat="-27.274439" lon="151.290064">
  <ele>343.1</ele>
  <time>2026-09-01T19:49:37Z</time>
  <course>270.0</course>
  <speed>0.0</speed>
  <fix>3d</fix>
</trkpt>
<trkpt lat="-27.274439" lon="151.290064">
  <ele>343.12</ele>
  <time>2026-09-01T19:49:37Z</time>
  <course>10.8</course>
  <speed>0.0</speed>
  <fix>3d</fix>
</trkpt>
<trkpt lat="-27.274439" lon="151.290064">
  <ele>343.1</ele>
  <time>2026-09-01T19:49:37Z</time>
  <course>270.0</course>
  <speed>0.0</speed>
  <fix>3d</fix>
</trkpt>
<trkpt lat="-27.274439" lon="151.290064">
  <ele>342.99</ele>
  <time>2026-09-01T19:49:37Z</time>
  <course>10.8</course>
  <speed>0.0</speed>
  <fix>3d</fix>
</trkpt>
<trkpt lat="-27.274439" lon="151.290064">
  <ele>343.1</ele>
  <time>2026-09-01T19:49:37Z</time>
  <course>270.0</course>
  <speed>0.0</speed>
  <fix>3d</fix>
</trkpt>
<trkpt lat="-27.274439" lon="151.290064">
  <ele>343.13</ele>
  <time>2026-09-01T19:49:37Z</time>
  <course>10.8</course>
  <speed>0.0</speed>
  <fix>3d</fix>
</trkpt>
<trkpt lat="-27.274439" lon="151.290064">
  <ele>343.1</ele>
  <time>2026-09-01T19:49:37Z</time>
  <course>270.0</course>
  <speed>0.0</speed>
  <fix>3d</fix>
</trkpt>
<trkpt lat="-27.274439" lon="151.290064">
  <ele>343.0</ele>
  <time>2026-09-01T19:49:37Z</time>
  <course>10.8</course>
  <speed>0.0</speed>
  <fix>3d</fix>
</trkpt>
<trkpt lat="-27.274439" lon="151.290064">
  <ele>343.1</ele>
  <time>2026-09-01T19:49:37Z</time>
  <course>270.0</course>
  <speed>0.0</speed>
  <fix>3d</fix>
</trkpt>
<trkpt lat="-27.274439" lon="151.290064">
  <ele>343.17</ele>
  <time>2026-09-01T19:49:37Z</time>
  <course>10.8</course>
  <speed>0.0</speed>
  <fix>3d</fix>
</trkpt>
<trkpt lat="-27.274439" lon="151.290064">
  <ele>343.1</ele>
  <time>2026-09-01T19:49:37Z</time>
  <course>270.0</course>
  <speed>0.0</speed>
  <fix>3d</fix>
</trkpt>
<trkpt lat="-27.274439" lon="151.290064">
  <ele>343.0</ele>
  <time>2026-09-01T19:49:37Z</time>
  <course>10.8</course>
  <speed>0.0</speed>
  <fix>3d</fix>
</trkpt>
<trkpt lat="-27.274439" lon="151.290064">
  <ele>343.1</ele>
  <time>2026-09-01T19:49:37Z</time>
  <course>270.0</course>
  <speed>0.0</speed>
  <fix>3d</fix>
</trkpt>
<trkpt lat="-27.274439" lon="151.290064">
  <ele>342.99</ele>
  <time>2026-09-01T19:49:37Z</time>
  <course>10.8</course>
  <speed>0.0</speed>
  <fix>3d</fix>
</trkpt>
<trkpt lat="-27.274439" lon="151.290064">
  <ele>343.1</ele>
  <time>2026-09-01T19:49:37Z</time>
  <course>270.0</course>
  <speed>0.0</speed>
  <fix>3d</fix>
</trkpt>
<trkpt lat="-27.274439" lon="151.290064">
  <ele>343.17</ele>
  <time>2026-09-01T19:49:37Z</time>
  <course>10.8</course>
  <speed>0.0</speed>
  <fix>3d</fix>
</trkpt>
<trkpt lat="-27.274439" lon="151.290064">
  <ele>343.1</ele>
  <time>2026-09-01T19:49:37Z</time>
  <course>270.0</course>
  <speed>0.0</speed>
  <fix>3d</fix>
</trkpt>
<trkpt lat="-27.274439" lon="151.290064">
  <ele>343.16</ele>
  <time>2026-09-01T19:49:37Z</time>
  <course>10.8</course>
  <speed>0.0</speed>
  <fix>3d</fix>
</trkpt>
<trkpt lat="-27.274439" lon="151.290064">
  <ele>343.1</ele>
  <time>2026-09-01T19:49:37Z</time>
  <course>270.0</course>
  <speed>0.0</speed>
  <fix>3d</fix>
</trkpt>
<trkpt lat="-27.274439" lon="151.290064">
  <ele>342.87</ele>
  <time>2026-09-01T19:49:37Z</time>
  <course>10.8</course>
  <speed>0.0</speed>
  <fix>3d</fix>
</trkpt>
<trkpt lat="-27.274439" lon="151.290064">
  <ele>343.1</ele>
  <time>2026-09-01T19:49:37Z</time>
  <course>270.0</course>
  <speed>0.0</speed>
  <fix>3d</fix>
</trkpt>
<trkpt lat="-27.274439" lon="151.290064">
  <ele>343.19</ele>
  <time>2026-09-01T19:49:37Z</time>
  <course>10.8</course>
  <speed>0.0</speed>
  <fix>3d</fix>
</trkpt>
<trkpt lat="-27.274439" lon="151.290064">
  <ele>343.1</ele>
  <time>2026-09-01T19:49:37Z</time>
  <course>270.0</course>
  <speed>0.0</speed>
  <fix>3d</fix>
</trkpt>
<trkpt lat="-27.274439" lon="151.290064">
  <ele>343.16</ele>
  <time>2026-09-01T19:49:37Z</time>
  <course>10.8</course>
  <speed>0.0</speed>
  <fix>3d</fix>
</trkpt>
<trkpt lat="-27.274439" lon="151.290064">
  <ele>343.1</ele>
  <time>2026-09-01T19:49:37Z</time>
  <course>270.0</course>
  <speed>0.0</speed>
  <fix>3d</fix>
</trkpt>
<trkpt lat="-27.274439" lon="151.290064">
  <ele>343.21</ele>
  <time>2026-09-01T19:49:37Z</time>
  <course>10.8</course>
  <speed>0.0</speed>
  <fix>3d</fix>
</trkpt>
<trkpt lat="-27.274439" lon="151.290064">
  <ele>343.1</ele>
  <time>2026-09-01T19:49:37Z</time>
  <course>270.0</course>
  <speed>0.0</speed>
  <fix>3d</fix>
</trkpt>
<trkpt lat="-27.274439" lon="151.290064">
  <ele>343.22</ele>
  <time>2026-09-01T19:49:37Z</time>
  <course>10.8</course>
  <speed>0.0</speed>
  <fix>3d</fix>
</trkpt>
<trkpt lat="-27.274439" lon="151.290064">
  <ele>343.1</ele>
  <time>2026-09-01T19:49:37Z</time>
  <course>270.0</course>
  <speed>0.0</speed>
  <fix>3d</fix>
</trkpt>
<trkpt lat="-27.274439" lon="151.290064">
  <ele>343.24</ele>
  <time>2026-09-01T19:49:37Z</time>
  <course>10.8</course>
  <speed>0.0</speed>
  <fix>3d</fix>
</trkpt>
<trkpt lat="-27.274439" lon="151.290064">
  <ele>343.1</ele>
  <time>2026-09-01T19:49:37Z</time>
  <course>270.0</course>
  <speed>0.0</speed>
  <fix>3d</fix>
</trkpt>
<trkpt lat="-27.274439" lon="151.290064">
  <ele>343.0</ele>
  <time>2026-09-01T19:49:37Z</time>
  <course>10.8</course>
  <speed>0.0</speed>
  <fix>3d</fix>
</trkpt>
<trkpt lat="-27.274439" lon="151.290064">
  <ele>343.1</ele>
  <time>2026-09-01T19:49:37Z</time>
  <course>270.0</course>
  <speed>0.0</speed>
  <fix>3d</fix>
</trkpt>
<trkpt lat="-27.274439" lon="151.290064">
  <ele>343.1</ele>
  <time>2026-09-01T19:49:37Z</time>
  <course>10.8</course>
  <speed>0.0</speed>
  <fix>3d</fix>
</trkpt>
<trkpt lat="-27.274439" lon="151.290064">
  <ele>343.1</ele>
  <time>2026-09-01T19:49:37Z</time>
  <course>270.0</course>
  <speed>0.0</speed>
  <fix>3d</fix>
</trkpt>
<trkpt lat="-27.274439" lon="151.290064">
  <ele>343.05</ele>
  <time>2026-09-01T19:49:37Z</time>
  <course>10.8</course>
  <speed>0.0</speed>
  <fix>3d</fix>
</trkpt>
<trkpt lat="-27.274439" lon="151.290064">
  <ele>343.1</ele>
  <time>2026-09-01T19:49:37Z</time>
  <course>270.0</course>
  <speed>0.0</speed>
  <fix>3d</fix>
</trkpt>
<trkpt lat="-27.274439" lon="151.290064">
  <ele>342.87</ele>
  <time>2026-09-01T19:49:37Z</time>
  <course>10.8</course>
  <speed>0.0</speed>
  <fix>3d</fix>
</trkpt>
<trkpt lat="-27.274439" lon="151.290064">
  <ele>343.1</ele>
  <time>2026-09-01T19:49:37Z</time>
  <course>270.0</course>
  <speed>0.0</speed>
  <fix>3d</fix>
</trkpt>
<trkpt lat="-27.274439" lon="151.290064">
  <ele>342.92</ele>
  <time>2026-09-01T19:49:37Z</time>
  <course>10.8</course>
  <speed>0.0</speed>
  <fix>3d</fix>
</trkpt>
<trkpt lat="-27.274439" lon="151.290064">
  <ele>343.1</ele>
  <time>2026-09-01T19:49:37Z</time>
  <course>270.0</course>
  <speed>0.0</speed>
  <fix>3d</fix>
</trkpt>
<trkpt lat="-27.274439" lon="151.290064">
  <ele>342.96</ele>
  <time>2026-09-01T19:49:37Z</time>
  <course>10.8</course>
  <speed>0.0</speed>
  <fix>3d</fix>
</trkpt>
<trkpt lat="-27.274439" lon="151.290064">
  <ele>343.1</ele>
  <time>2026-09-01T19:49:37Z</time>
  <course>270.0</course>
  <speed>0.0</speed>
  <fix>3d</fix>
</trkpt>
<trkpt lat="-27.274439" lon="151.290064">
  <ele>343.15</ele>
  <time>2026-09-01T19:49:37Z</time>
  <course>10.8</course>
  <speed>0.0</speed>
  <fix>3d</fix>
</trkpt>
<trkpt lat="-27.274439" lon="151.290064">
  <ele>343.1</ele>
  <time>2026-09-01T19:49:37Z</time>
  <course>270.0</course>
  <speed>0.0</speed>
  <fix>3d</fix>
</trkpt>
<trkpt lat="-27.274439" lon="151.290064">
  <ele>343.16</ele>
  <time>2026-09-01T19:49:37Z</time>
  <course>10.8</course>
  <speed>0.0</speed>
  <fix>3d</fix>
</trkpt>
<trkpt lat="-27.274439" lon="151.290064">
  <ele>343.1</ele>
  <time>2026-09-01T19:49:37Z</time>
  <course>270.0</course>
  <speed>0.0</speed>
  <fix>3d</fix>
</trkpt>
<trkpt lat="-27.274439" lon="151.290064">
  <ele>343.2</ele>
  <time>2026-09-01T19:49:37Z</time>
  <course>10.81</course>
  <speed>0.0</speed>
  <fix>3d</fix>
</trkpt>
<trkpt lat="-27.274439" lon="151.290064">
  <ele>343.1</ele>
  <time>2026-09-01T19:49:37Z</time>
  <course>270.0</course>
  <speed>0.0</speed>
  <fix>3d</fix>
</trkpt>
<trkpt lat="-27.274439" lon="151.290064">
  <ele>343.13</ele>
  <time>2026-09-01T19:49:37Z</time>
  <course>10.82</course>
  <speed>0.0</speed>
  <fix>3d</fix>
</trkpt>
<trkpt lat="-27.274439" lon="151.290064">
  <ele>343.1</ele>
  <time>2026-09-01T19:49:37Z</time>
  <course>270.0</course>
  <speed>0.0</speed>
  <fix>3d</fix>
</trkpt>
<trkpt lat="-27.274439" lon="151.290064">
  <ele>343.09</ele>
  <time>2026-09-01T19:49:37Z</time>
  <course>10.71</course>
  <speed>0.0</speed>
  <fix>3d</fix>
</trkpt>
<trkpt lat="-27.274439" lon="151.290064">
  <ele>343.1</ele>
  <time>2026-09-01T19:49:37Z</time>
  <course>270.0</course>
  <speed>0.0</speed>
  <fix>3d</fix>
</trkpt>
<trkpt lat="-27.274439" lon="151.290064">
  <ele>343.09</ele>
  <time>2026-09-01T19:49:37Z</time>
  <course>10.71</course>
  <speed>0.0</speed>
  <fix>3d</fix>
</trkpt>
<trkpt lat="-27.274439" lon="151.290064">
  <ele>343.1</ele>
  <time>2026-09-01T19:49:37Z</time>
  <course>270.0</course>
  <speed>0.0</speed>
  <fix>3d</fix>
</trkpt>
<trkpt lat="-27.274439" lon="151.290064">
  <ele>343.1</ele>
  <time>2026-09-01T19:49:37Z</time>
  <course>10.71</course>
  <speed>0.0</speed>
  <fix>3d</fix>
</trkpt>
<trkpt lat="-27.274439" lon="151.290064">
  <ele>343.1</ele>
  <time>2026-09-01T19:49:37Z</time>
  <course>270.0</course>
  <speed>0.0</speed>
  <fix>3d</fix>
</trkpt>
<trkpt lat="-27.274439" lon="151.290064">
  <ele>343.1</ele>
  <time>2026-09-01T19:49:37Z</time>
  <course>10.71</course>
  <speed>0.0</speed>
  <fix>3d</fix>
</trkpt>
<trkpt lat="-27.274439" lon="151.290064">
  <ele>343.1</ele>
  <time>2026-09-01T19:49:37Z</time>
  <course>270.0</course>
  <speed>0.0</speed>
  <fix>3d</fix>
</trkpt>
<trkpt lat="-27.274439" lon="151.290064">
  <ele>343.1</ele>
  <time>2026-09-01T19:49:37Z</time>
  <course>10.71</course>
  <speed>0.0</speed>
  <fix>3d</fix>
</trkpt>
<trkpt lat="-27.274439" lon="151.290064">
  <ele>343.1</ele>
  <time>2026-09-01T19:49:37Z</time>
  <course>270.0</course>
  <speed>0.0</speed>
  <fix>3d</fix>
</trkpt>
<trkpt lat="-27.274439" lon="151.290064">
  <ele>343.1</ele>
  <time>2026-09-01T19:49:37Z</time>
  <course>10.71</course>
  <speed>0.0</speed>
  <fix>3d</fix>
</trkpt>
<trkpt lat="-27.274439" lon="151.290064">
  <ele>343.1</ele>
  <time>2026-09-01T19:49:37Z</time>
  <course>270.0</course>
  <speed>0.0</speed>
  <fix>3d</fix>
</trkpt>
<trkpt lat="-27.274439" lon="151.290064">
  <ele>343.1</ele>
  <time>2026-09-01T19:49:37Z</time>
  <course>10.71</course>
  <speed>0.0</speed>
  <fix>3d</fix>
</trkpt>
<trkpt lat="-27.274439" lon="151.290064">
  <ele>343.1</ele>
  <time>2026-09-01T19:49:37Z</time>
  <course>270.0</course>
  <speed>0.0</speed>
  <fix>3d</fix>
</trkpt>
<trkpt lat="-27.274439" lon="151.290064">
  <ele>343.11</ele>
  <time>2026-09-01T19:49:37Z</time>
  <course>10.71</course>
  <speed>0.0</speed>
  <fix>3d</fix>
</trkpt>
<trkpt lat="-27.274439" lon="151.290064">
  <ele>343.1</ele>
  <time>2026-09-01T19:49:37Z</time>
  <course>270.0</course>
  <speed>0.0</speed>
  <fix>3d</fix>
</trkpt>
<trkpt lat="-27.274439" lon="151.290064">
  <ele>343.11</ele>
  <time>2026-09-01T19:49:37Z</time>
  <course>10.71</course>
  <speed>0.0</speed>
  <fix>3d</fix>
</trkpt>
<trkpt lat="-27.274439" lon="151.290064">
  <ele>343.1</ele>
  <time>2026-09-01T19:49:37Z</time>
  <course>270.0</course>
  <speed>0.0</speed>
  <fix>3d</fix>
</trkpt>
<trkpt lat="-27.274439" lon="151.290064">
  <ele>343.11</ele>
  <time>2026-09-01T19:49:37Z</time>
  <course>10.71</course>
  <speed>0.0</speed>
  <fix>3d</fix>
</trkpt>
<trkpt lat="-27.274439" lon="151.290064">
  <ele>343.1</ele>
  <time>2026-09-01T19:49:37Z</time>
  <course>270.0</course>
  <speed>0.0</speed>
  <fix>3d</fix>
</trkpt>
<trkpt lat="-27.274439" lon="151.290064">
  <ele>343.12</ele>
  <time>2026-09-01T19:49:37Z</time>
  <course>10.71</course>
  <speed>0.0</speed>
  <fix>3d</fix>
</trkpt>
<trkpt lat="-27.274439" lon="151.290064">
  <ele>343.1</ele>
  <time>2026-09-01T19:49:37Z</time>
  <course>270.0</course>
  <speed>0.0</speed>
  <fix>3d</fix>
</trkpt>
<trkpt lat="-27.274439" lon="151.290064">
  <ele>343.12</ele>
  <time>2026-09-01T19:49:37Z</time>
  <course>10.71</course>
  <speed>0.0</speed>
  <fix>3d</fix>
</trkpt>
<trkpt lat="-27.274439" lon="151.290064">
  <ele>343.1</ele>
  <time>2026-09-01T19:49:37Z</time>
  <course>270.0</course>
  <speed>0.0</speed>
  <fix>3d</fix>
</trkpt>
<trkpt lat="-27.274439" lon="151.290064">
  <ele>343.1</ele>
  <time>2026-09-01T19:49:37Z</time>
  <course>10.71</course>
  <speed>0.0</speed>
  <fix>3d</fix>
</trkpt>
<trkpt lat="-27.274439" lon="151.290064">
  <ele>343.1</ele>
  <time>2026-09-01T19:49:37Z</time>
  <course>270.0</course>
  <speed>0.0</speed>
  <fix>3d</fix>
</trkpt>
<trkpt lat="-27.274439" lon="151.290064">
  <ele>343.1</ele>
  <time>2026-09-01T19:49:37Z</time>
  <course>10.71</course>
  <speed>0.0</speed>
  <fix>3d</fix>
</trkpt>
<trkpt lat="-27.274439" lon="151.290064">
  <ele>343.1</ele>
  <time>2026-09-01T19:49:37Z</time>
  <course>270.0</course>
  <speed>0.0</speed>
  <fix>3d</fix>
</trkpt>
<trkpt lat="-27.274439" lon="151.290064">
  <ele>343.1</ele>
  <time>2026-09-01T19:49:37Z</time>
  <course>10.71</course>
  <speed>0.0</speed>
  <fix>3d</fix>
</trkpt>
<trkpt lat="-27.274439" lon="151.290064">
  <ele>343.1</ele>
  <time>2026-09-01T19:49:37Z</time>
  <course>270.0</course>
  <speed>0.0</speed>
  <fix>3d</fix>
</trkpt>
<trkpt lat="-27.274439" lon="151.290064">
  <ele>343.09</ele>
  <time>2026-09-01T19:49:37Z</time>
  <course>10.71</course>
  <speed>0.0</speed>
  <fix>3d</fix>
</trkpt>
<trkpt lat="-27.274439" lon="151.290064">
  <ele>343.1</ele>
  <time>2026-09-01T19:49:37Z</time>
  <course>270.0</course>
  <speed>0.0</speed>
  <fix>3d</fix>
</trkpt>
<trkpt lat="-27.274439" lon="151.290064">
  <ele>343.09</ele>
  <time>2026-09-01T19:49:37Z</time>
  <course>10.71</course>
  <speed>0.0</speed>
  <fix>3d</fix>
</trkpt>
<trkpt lat="-27.274439" lon="151.290064">
  <ele>343.1</ele>
  <time>2026-09-01T19:49:37Z</time>
  <course>270.0</course>
  <speed>0.0</speed>
  <fix>3d</fix>
</trkpt>
<trkpt lat="-27.274439" lon="151.290064">
  <ele>343.09</ele>
  <time>2026-09-01T19:49:37Z</time>
  <course>10.71</course>
  <speed>0.0</speed>
  <fix>3d</fix>
</trkpt>
<trkpt lat="-27.274439" lon="151.290064">
  <ele>343.1</ele>
  <time>2026-09-01T19:49:37Z</time>
  <course>270.0</course>
  <speed>0.0</speed>
  <fix>3d</fix>
</trkpt>
<trkpt lat="-27.274439" lon="151.290064">
  <ele>343.1</ele>
  <time>2026-09-01T19:49:37Z</time>
  <course>10.71</course>
  <speed>0.0</speed>
  <fix>3d</fix>
</trkpt>
<trkpt lat="-27.274439" lon="151.290064">
  <ele>343.1</ele>
  <time>2026-09-01T19:49:37Z</time>
  <course>270.0</course>
  <speed>0.0</speed>
  <fix>3d</fix>
</trkpt>
<trkpt lat="-27.274439" lon="151.290064">
  <ele>343.1</ele>
  <time>2026-09-01T19:49:37Z</time>
  <course>10.71</course>
  <speed>0.0</speed>
  <fix>3d</fix>
</trkpt>
<trkpt lat="-27.274439" lon="151.290064">
  <ele>343.1</ele>
  <time>2026-09-01T19:49:37Z</time>
  <course>270.0</course>
  <speed>0.0</speed>
  <fix>3d</fix>
</trkpt>
<trkpt lat="-27.274439" lon="151.290064">
  <ele>343.09</ele>
  <time>2026-09-01T19:49:37Z</time>
  <course>10.71</course>
  <speed>0.0</speed>
  <fix>3d</fix>
</trkpt>
<trkpt lat="-27.274439" lon="151.290064">
  <ele>343.1</ele>
  <time>2026-09-01T19:49:37Z</time>
  <course>270.0</course>
  <speed>0.0</speed>
  <fix>3d</fix>
</trkpt>
<trkpt lat="-27.274439" lon="151.290064">
  <ele>343.09</ele>
  <time>2026-09-01T19:49:37Z</time>
  <course>10.71</course>
  <speed>0.0</speed>
  <fix>3d</fix>
</trkpt>
<trkpt lat="-27.274439" lon="151.290064">
  <ele>343.1</ele>
  <time>2026-09-01T19:49:37Z</time>
  <course>270.0</course>
  <speed>0.0</speed>
  <fix>3d</fix>
</trkpt>
<trkpt lat="-27.274439" lon="151.290064">
  <ele>343.09</ele>
  <time>2026-09-01T19:49:37Z</time>
  <course>10.71</course>
  <speed>0.0</speed>
  <fix>3d</fix>
</trkpt>
<trkpt lat="-27.274439" lon="151.290064">
  <ele>343.1</ele>
  <time>2026-09-01T19:49:37Z</time>
  <course>270.0</course>
  <speed>0.0</speed>
  <fix>3d</fix>
</trkpt>
<trkpt lat="-27.274439" lon="151.290064">
  <ele>343.09</ele>
  <time>2026-09-01T19:49:37Z</time>
  <course>10.71</course>
  <speed>0.0</speed>
  <fix>3d</fix>
</trkpt>
<trkpt lat="-27.274439" lon="151.290064">
  <ele>343.1</ele>
  <time>2026-09-01T19:49:37Z</time>
  <course>270.0</course>
  <speed>0.0</speed>
  <fix>3d</fix>
</trkpt>
<trkpt lat="-27.274439" lon="151.290064">
  <ele>343.09</ele>
  <time>2026-09-01T19:49:37Z</time>
  <course>10.71</course>
  <speed>0.0</speed>
  <fix>3d</fix>
</trkpt>
<trkpt lat="-27.274439" lon="151.290064">
  <ele>343.1</ele>
  <time>2026-09-01T19:49:37Z</time>
  <course>270.0</course>
  <speed>0.0</speed>
  <fix>3d</fix>
</trkpt>
<trkpt lat="-27.274439" lon="151.290064">
  <ele>343.09</ele>
  <time>2026-09-01T19:49:37Z</time>
  <course>10.71</course>
  <speed>0.0</speed>
  <fix>3d</fix>
</trkpt>
<trkpt lat="-27.274439" lon="151.290064">
  <ele>343.1</ele>
  <time>2026-09-01T19:49:37Z</time>
  <course>270.0</course>
  <speed>0.0</speed>
  <fix>3d</fix>
</trkpt>
<trkpt lat="-27.274439" lon="151.290064">
  <ele>343.09</ele>
  <time>2026-09-01T19:49:37Z</time>
  <course>10.71</course>
  <speed>0.0</speed>
  <fix>3d</fix>
</trkpt>
<trkpt lat="-27.274439" lon="151.290064">
  <ele>343.1</ele>
  <time>2026-09-01T19:49:37Z</time>
  <course>270.0</course>
  <speed>0.0</speed>
  <fix>3d</fix>
</trkpt>
<trkpt lat="-27.274439" lon="151.290064">
  <ele>343.09</ele>
  <time>2026-09-01T19:49:37Z</time>
  <course>10.71</course>
  <speed>0.0</speed>
  <fix>3d</fix>
</trkpt>
<trkpt lat="-27.274439" lon="151.290064">
  <ele>343.1</ele>
  <time>2026-09-01T19:49:37Z</time>
  <course>270.0</course>
  <speed>0.0</speed>
  <fix>3d</fix>
</trkpt>
<trkpt lat="-27.274439" lon="151.290064">
  <ele>343.1</ele>
  <time>2026-09-01T19:49:37Z</time>
  <course>10.71</course>
  <speed>0.0</speed>
  <fix>3d</fix>
</trkpt>
<trkpt lat="-27.274439" lon="151.290064">
  <ele>343.1</ele>
  <time>2026-09-01T19:49:37Z</time>
  <course>270.0</course>
  <speed>0.0</speed>
  <fix>3d</fix>
</trkpt>
<trkpt lat="-27.274439" lon="151.290064">
  <ele>343.1</ele>
  <time>2026-09-01T19:49:37Z</time>
  <course>10.71</course>
  <speed>0.0</speed>
  <fix>3d</fix>
</trkpt>
<trkpt lat="-27.274439" lon="151.290064">
  <ele>343.1</ele>
  <time>2026-09-01T19:49:37Z</time>
  <course>270.0</course>
  <speed>0.0</speed>
  <fix>3d</fix>
</trkpt>
<trkpt lat="-27.274439" lon="151.290064">
  <ele>343.1</ele>
  <time>2026-09-01T19:49:37Z</time>
  <course>10.71</course>
  <speed>0.0</speed>
  <fix>3d</fix>
</trkpt>
<trkpt lat="-27.274439" lon="151.290064">
  <ele>343.1</ele>
  <time>2026-09-01T19:49:37Z</time>
  <course>270.0</course>
  <speed>0.0</speed>
  <fix>3d</fix>
</trkpt>
<trkpt lat="-27.274439" lon="151.290064">
  <ele>343.1</ele>
  <time>2026-09-01T19:49:37Z</time>
  <course>10.71</course>
  <speed>0.0</speed>
  <fix>3d</fix>
</trkpt>
<trkpt lat="-27.274439" lon="151.290064">
  <ele>343.1</ele>
  <time>2026-09-01T19:49:37Z</time>
  <course>270.0</course>
  <speed>0.0</speed>
  <fix>3d</fix>
</trkpt>
<trkpt lat="-27.274439" lon="151.290064">
  <ele>343.11</ele>
  <time>2026-09-01T19:49:37Z</time>
  <course>10.71</course>
  <speed>0.0</speed>
  <fix>3d</fix>
</trkpt>
<trkpt lat="-27.274439" lon="151.290064">
  <ele>343.1</ele>
  <time>2026-09-01T19:49:37Z</time>
  <course>270.0</course>
  <speed>0.0</speed>
  <fix>3d</fix>
</trkpt>
<trkpt lat="-27.274439" lon="151.290064">
  <ele>343.11</ele>
  <time>2026-09-01T19:49:37Z</time>
  <course>10.71</course>
  <speed>0.0</speed>
  <fix>3d</fix>
</trkpt>
<trkpt lat="-27.274439" lon="151.290064">
  <ele>343.1</ele>
  <time>2026-09-01T19:49:37Z</time>
  <course>270.0</course>
  <speed>0.0</speed>
  <fix>3d</fix>
</trkpt>
<trkpt lat="-27.274439" lon="151.290064">
  <ele>343.11</ele>
  <time>2026-09-01T19:49:37Z</time>
  <course>10.71</course>
  <speed>0.0</speed>
  <fix>3d</fix>
</trkpt>
<trkpt lat="-27.274439" lon="151.290064">
  <ele>343.1</ele>
  <time>2026-09-01T19:49:37Z</time>
  <course>270.0</course>
  <speed>0.0</speed>
  <fix>3d</fix>
</trkpt>
<trkpt lat="-27.274439" lon="151.290064">
  <ele>343.11</ele>
  <time>2026-09-01T19:49:37Z</time>
  <course>10.71</course>
  <speed>0.0</speed>
  <fix>3d</fix>
</trkpt>
<trkpt lat="-27.274439" lon="151.290064">
  <ele>343.1</ele>
  <time>2026-09-01T19:49:37Z</time>
  <course>270.0</course>
  <speed>0.0</speed>
  <fix>3d</fix>
</trkpt>
<trkpt lat="-27.274439" lon="151.290064">
  <ele>343.12</ele>
  <time>2026-09-01T19:49:37Z</time>
  <course>10.71</course>
  <speed>0.0</speed>
  <fix>3d</fix>
</trkpt>
<trkpt lat="-27.274439" lon="151.290064">
  <ele>343.1</ele>
  <time>2026-09-01T19:49:37Z</time>
  <course>270.0</course>
  <speed>0.0</speed>
  <fix>3d</fix>
</trkpt>
<trkpt lat="-27.274439" lon="151.290064">
  <ele>343.12</ele>
  <time>2026-09-01T19:49:37Z</time>
  <course>10.71</course>
  <speed>0.0</speed>
  <fix>3d</fix>
</trkpt>
<trkpt lat="-27.274439" lon="151.290064">
  <ele>343.1</ele>
  <time>2026-09-01T19:49:37Z</time>
  <course>270.0</course>
  <speed>0.0</speed>
  <fix>3d</fix>
</trkpt>
<trkpt lat="-27.274439" lon="151.290064">
  <ele>343.12</ele>
  <time>2026-09-01T19:49:37Z</time>
  <course>10.71</course>
  <speed>0.0</speed>
  <fix>3d</fix>
</trkpt>
<trkpt lat="-27.274439" lon="151.290064">
  <ele>343.1</ele>
  <time>2026-09-01T19:49:37Z</time>
  <course>270.0</course>
  <speed>0.0</speed>
  <fix>3d</fix>
</trkpt>
<trkpt lat="-27.274439" lon="151.290064">
  <ele>343.12</ele>
  <time>2026-09-01T19:49:37Z</time>
  <course>10.71</course>
  <speed>0.0</speed>
  <fix>3d</fix>
</trkpt>
<trkpt lat="-27.274439" lon="151.290064">
  <ele>343.1</ele>
  <time>2026-09-01T19:49:37Z</time>
  <course>270.0</course>
  <speed>0.0</speed>
  <fix>3d</fix>
</trkpt>
<trkpt lat="-27.274439" lon="151.290064">
  <ele>343.12</ele>
  <time>2026-09-01T19:49:37Z</time>
  <course>10.71</course>
  <speed>0.0</speed>
  <fix>3d</fix>
</trkpt>
<trkpt lat="-27.274439" lon="151.290064">
  <ele>343.1</ele>
  <time>2026-09-01T19:49:37Z</time>
  <course>270.0</course>
  <speed>0.0</speed>
  <fix>3d</fix>
</trkpt>
<trkpt lat="-27.274439" lon="151.290064">
  <ele>343.13</ele>
  <time>2026-09-01T19:49:37Z</time>
  <course>10.71</course>
  <speed>0.0</speed>
  <fix>3d</fix>
</trkpt>
<trkpt lat="-27.274439" lon="151.290064">
  <ele>343.1</ele>
  <time>2026-09-01T19:49:37Z</time>
  <course>270.0</course>
  <speed>0.0</speed>
  <fix>3d</fix>
</trkpt>
<trkpt lat="-27.274439" lon="151.290064">
  <ele>343.13</ele>
  <time>2026-09-01T19:49:37Z</time>
  <course>10.71</course>
  <speed>0.0</speed>
  <fix>3d</fix>
</trkpt>
<trkpt lat="-27.274439" lon="151.290064">
  <ele>343.1</ele>
  <time>2026-09-01T19:49:37Z</time>
  <course>270.0</course>
  <speed>0.0</speed>
  <fix>3d</fix>
</trkpt>
<trkpt lat="-27.274439" lon="151.290064">
  <ele>343.13</ele>
  <time>2026-09-01T19:49:37Z</time>
  <course>10.71</course>
  <speed>0.0</speed>
  <fix>3d</fix>
</trkpt>
<trkpt lat="-27.274439" lon="151.290064">
  <ele>343.1</ele>
  <time>2026-09-01T19:49:37Z</time>
  <course>270.0</course>
  <speed>0.0</speed>
  <fix>3d</fix>
</trkpt>
<trkpt lat="-27.274439" lon="151.290064">
  <ele>343.13</ele>
  <time>2026-09-01T19:49:37Z</time>
  <course>10.71</course>
  <speed>0.0</speed>
  <fix>3d</fix>
</trkpt>
<trkpt lat="-27.274439" lon="151.290064">
  <ele>343.1</ele>
  <time>2026-09-01T19:49:37Z</time>
  <course>270.0</course>
  <speed>0.0</speed>
  <fix>3d</fix>
</trkpt>
<trkpt lat="-27.274439" lon="151.290064">
  <ele>343.14</ele>
  <time>2026-09-01T19:49:37Z</time>
  <course>10.71</course>
  <speed>0.0</speed>
  <fix>3d</fix>
</trkpt>
<trkpt lat="-27.274439" lon="151.290064">
  <ele>343.1</ele>
  <time>2026-09-01T19:49:37Z</time>
  <course>270.0</course>
  <speed>0.0</speed>
  <fix>3d</fix>
</trkpt>
<trkpt lat="-27.274439" lon="151.290064">
  <ele>343.14</ele>
  <time>2026-09-01T19:49:37Z</time>
  <course>10.71</course>
  <speed>0.0</speed>
  <fix>3d</fix>
</trkpt>
<trkpt lat="-27.274439" lon="151.290064">
  <ele>343.1</ele>
  <time>2026-09-01T19:49:37Z</time>
  <course>270.0</course>
  <speed>0.0</speed>
  <fix>3d</fix>
</trkpt>
<trkpt lat="-27.274439" lon="151.290064">
  <ele>343.14</ele>
  <time>2026-09-01T19:49:37Z</time>
  <course>10.71</course>
  <speed>0.0</speed>
  <fix>3d</fix>
</trkpt>
<trkpt lat="-27.274439" lon="151.290064">
  <ele>343.1</ele>
  <time>2026-09-01T19:49:37Z</time>
  <course>270.0</course>
  <speed>0.0</speed>
  <fix>3d</fix>
</trkpt>
<trkpt lat="-27.274439" lon="151.290064">
  <ele>343.14</ele>
  <time>2026-09-01T19:49:37Z</time>
  <course>10.71</course>
  <speed>0.0</speed>
  <fix>3d</fix>
</trkpt>
<trkpt lat="-27.274439" lon="151.290064">
  <ele>343.1</ele>
  <time>2026-09-01T19:49:37Z</time>
  <course>270.0</course>
  <speed>0.0</speed>
  <fix>3d</fix>
</trkpt>
<trkpt lat="-27.274439" lon="151.290064">
  <ele>343.14</ele>
  <time>2026-09-01T19:49:37Z</time>
  <course>10.71</course>
  <speed>0.0</speed>
  <fix>3d</fix>
</trkpt>
<trkpt lat="-27.274439" lon="151.290064">
  <ele>343.1</ele>
  <time>2026-09-01T19:49:37Z</time>
  <course>270.0</course>
  <speed>0.0</speed>
  <fix>3d</fix>
</trkpt>
<trkpt lat="-27.274439" lon="151.290064">
  <ele>343.14</ele>
  <time>2026-09-01T19:49:37Z</time>
  <course>10.71</course>
  <speed>0.0</speed>
  <fix>3d</fix>
</trkpt>
<trkpt lat="-27.274439" lon="151.290064">
  <ele>343.1</ele>
  <time>2026-09-01T19:49:37Z</time>
  <course>270.0</course>
  <speed>0.0</speed>
  <fix>3d</fix>
</trkpt>
<trkpt lat="-27.274439" lon="151.290064">
  <ele>343.14</ele>
  <time>2026-09-01T19:49:37Z</time>
  <course>10.71</course>
  <speed>0.0</speed>
  <fix>3d</fix>
</trkpt>
<trkpt lat="-27.274439" lon="151.290064">
  <ele>343.1</ele>
  <time>2026-09-01T19:49:37Z</time>
  <course>270.0</course>
  <speed>0.0</speed>
  <fix>3d</fix>
</trkpt>
<trkpt lat="-27.274439" lon="151.290064">
  <ele>343.14</ele>
  <time>2026-09-01T19:49:37Z</time>
  <course>10.71</course>
  <speed>0.0</speed>
  <fix>3d</fix>
</trkpt>
<trkpt lat="-27.274439" lon="151.290064">
  <ele>343.1</ele>
  <time>2026-09-01T19:49:37Z</time>
  <course>270.0</course>
  <speed>0.0</speed>
  <fix>3d</fix>
</trkpt>
<trkpt lat="-27.274439" lon="151.290064">
  <ele>343.13</ele>
  <time>2026-09-01T19:49:37Z</time>
  <course>10.71</course>
  <speed>0.0</speed>
  <fix>3d</fix>
</trkpt>
<trkpt lat="-27.274439" lon="151.290064">
  <ele>343.1</ele>
  <time>2026-09-01T19:49:37Z</time>
  <course>270.0</course>
  <speed>0.0</speed>
  <fix>3d</fix>
</trkpt>
<trkpt lat="-27.274439" lon="151.290064">
  <ele>343.13</ele>
  <time>2026-09-01T19:49:37Z</time>
  <course>10.71</course>
  <speed>0.0</speed>
  <fix>3d</fix>
</trkpt>
<trkpt lat="-27.274439" lon="151.290064">
  <ele>343.1</ele>
  <time>2026-09-01T19:49:37Z</time>
  <course>270.0</course>
  <speed>0.0</speed>
  <fix>3d</fix>
</trkpt>
<trkpt lat="-27.274439" lon="151.290064">
  <ele>343.13</ele>
  <time>2026-09-01T19:49:37Z</time>
  <course>10.71</course>
  <speed>0.0</speed>
  <fix>3d</fix>
</trkpt>
<trkpt lat="-27.274439" lon="151.290064">
  <ele>343.1</ele>
  <time>2026-09-01T19:49:37Z</time>
  <course>270.0</course>
  <speed>0.0</speed>
  <fix>3d</fix>
</trkpt>
<trkpt lat="-27.274439" lon="151.290064">
  <ele>343.13</ele>
  <time>2026-09-01T19:49:37Z</time>
  <course>10.71</course>
  <speed>0.0</speed>
  <fix>3d</fix>
</trkpt>
<trkpt lat="-27.274439" lon="151.290064">
  <ele>343.1</ele>
  <time>2026-09-01T19:49:37Z</time>
  <course>270.0</course>
  <speed>0.0</speed>
  <fix>3d</fix>
</trkpt>
<trkpt lat="-27.274439" lon="151.290064">
  <ele>343.13</ele>
  <time>2026-09-01T19:49:37Z</time>
  <course>10.71</course>
  <speed>0.0</speed>
  <fix>3d</fix>
</trkpt>
<trkpt lat="-27.274439" lon="151.290064">
  <ele>343.1</ele>
  <time>2026-09-01T19:49:37Z</time>
  <course>270.0</course>
  <speed>0.0</speed>
  <fix>3d</fix>
</trkpt>
<trkpt lat="-27.274439" lon="151.290064">
  <ele>343.13</ele>
  <time>2026-09-01T19:49:37Z</time>
  <course>10.71</course>
  <speed>0.0</speed>
  <fix>3d</fix>
</trkpt>
<trkpt lat="-27.274439" lon="151.290064">
  <ele>343.1</ele>
  <time>2026-09-01T19:49:37Z</time>
  <course>270.0</course>
  <speed>0.0</speed>
  <fix>3d</fix>
</trkpt>
<trkpt lat="-27.274439" lon="151.290064">
  <ele>343.13</ele>
  <time>2026-09-01T19:49:37Z</time>
  <course>10.71</course>
  <speed>0.0</speed>
  <fix>3d</fix>
</trkpt>
<trkpt lat="-27.274439" lon="151.290064">
  <ele>343.1</ele>
  <time>2026-09-01T19:49:37Z</time>
  <course>270.0</course>
  <speed>0.0</speed>
  <fix>3d</fix>
</trkpt>
<trkpt lat="-27.274439" lon="151.290064">
  <ele>343.13</ele>
  <time>2026-09-01T19:49:37Z</time>
  <course>10.71</course>
  <speed>0.0</speed>
  <fix>3d</fix>
</trkpt>
<trkpt lat="-27.274439" lon="151.290064">
  <ele>343.1</ele>
  <time>2026-09-01T19:49:37Z</time>
  <course>270.0</course>
  <speed>0.0</speed>
  <fix>3d</fix>
</trkpt>
<trkpt lat="-27.274439" lon="151.290064">
  <ele>343.14</ele>
  <time>2026-09-01T19:49:37Z</time>
  <course>10.71</course>
  <speed>0.0</speed>
  <fix>3d</fix>
</trkpt>
<trkpt lat="-27.274439" lon="151.290064">
  <ele>343.1</ele>
  <time>2026-09-01T19:49:37Z</time>
  <course>270.0</course>
  <speed>0.0</speed>
  <fix>3d</fix>
</trkpt>
<trkpt lat="-27.274439" lon="151.290064">
  <ele>343.14</ele>
  <time>2026-09-01T19:49:37Z</time>
  <course>10.71</course>
  <speed>0.0</speed>
  <fix>3d</fix>
</trkpt>
<trkpt lat="-27.274439" lon="151.290064">
  <ele>343.1</ele>
  <time>2026-09-01T19:49:37Z</time>
  <course>270.0</course>
  <speed>0.0</speed>
  <fix>3d</fix>
</trkpt>
<trkpt lat="-27.274439" lon="151.290064">
  <ele>343.14</ele>
  <time>2026-09-01T19:49:37Z</time>
  <course>10.71</course>
  <speed>0.0</speed>
  <fix>3d</fix>
</trkpt>
<trkpt lat="-27.274439" lon="151.290064">
  <ele>343.1</ele>
  <time>2026-09-01T19:49:37Z</time>
  <course>270.0</course>
  <speed>0.0</speed>
  <fix>3d</fix>
</trkpt>
<trkpt lat="-27.274439" lon="151.290064">
  <ele>343.14</ele>
  <time>2026-09-01T19:49:37Z</time>
  <course>10.71</course>
  <speed>0.0</speed>
  <fix>3d</fix>
</trkpt>
<trkpt lat="-27.274439" lon="151.290064">
  <ele>343.1</ele>
  <time>2026-09-01T19:49:37Z</time>
  <course>270.0</course>
  <speed>0.0</speed>
  <fix>3d</fix>
</trkpt>
<trkpt lat="-27.274439" lon="151.290064">
  <ele>343.14</ele>
  <time>2026-09-01T19:49:37Z</time>
  <course>10.71</course>
  <speed>0.0</speed>
  <fix>3d</fix>
</trkpt>
<trkpt lat="-27.274439" lon="151.290064">
  <ele>343.1</ele>
  <time>2026-09-01T19:49:37Z</time>
  <course>270.0</course>
  <speed>0.0</speed>
  <fix>3d</fix>
</trkpt>
<trkpt lat="-27.274439" lon="151.290064">
  <ele>343.14</ele>
  <time>2026-09-01T19:49:37Z</time>
  <course>10.71</course>
  <speed>0.0</speed>
  <fix>3d</fix>
</trkpt>
<trkpt lat="-27.274439" lon="151.290064">
  <ele>343.1</ele>
  <time>2026-09-01T19:49:37Z</time>
  <course>270.0</course>
  <speed>0.0</speed>
  <fix>3d</fix>
</trkpt>
<trkpt lat="-27.274439" lon="151.290064">
  <ele>343.15</ele>
  <time>2026-09-01T19:49:37Z</time>
  <course>10.71</course>
  <speed>0.0</speed>
  <fix>3d</fix>
</trkpt>
<trkpt lat="-27.274439" lon="151.290064">
  <ele>343.1</ele>
  <time>2026-09-01T19:49:37Z</time>
  <course>270.0</course>
  <speed>0.0</speed>
  <fix>3d</fix>
</trkpt>
<trkpt lat="-27.274439" lon="151.290064">
  <ele>343.15</ele>
  <time>2026-09-01T19:49:37Z</time>
  <course>10.71</course>
  <speed>0.0</speed>
  <fix>3d</fix>
</trkpt>
<trkpt lat="-27.274439" lon="151.290064">
  <ele>343.1</ele>
  <time>2026-09-01T19:49:37Z</time>
  <course>270.0</course>
  <speed>0.0</speed>
  <fix>3d</fix>
</trkpt>
<trkpt lat="-27.274439" lon="151.290064">
  <ele>343.15</ele>
  <time>2026-09-01T19:49:37Z</time>
  <course>10.71</course>
  <speed>0.0</speed>
  <fix>3d</fix>
</trkpt>
<trkpt lat="-27.274439" lon="151.290064">
  <ele>343.1</ele>
  <time>2026-09-01T19:49:37Z</time>
  <course>270.0</course>
  <speed>0.0</speed>
  <fix>3d</fix>
</trkpt>
<trkpt lat="-27.274439" lon="151.290064">
  <ele>343.15</ele>
  <time>2026-09-01T19:49:37Z</time>
  <course>10.71</course>
  <speed>0.0</speed>
  <fix>3d</fix>
</trkpt>
<trkpt lat="-27.274439" lon="151.290064">
  <ele>343.1</ele>
  <time>2026-09-01T19:49:37Z</time>
  <course>270.0</course>
  <speed>0.0</speed>
  <fix>3d</fix>
</trkpt>
<trkpt lat="-27.274439" lon="151.290064">
  <ele>343.15</ele>
  <time>2026-09-01T19:49:37Z</time>
  <course>10.71</course>
  <speed>0.0</speed>
  <fix>3d</fix>
</trkpt>
<trkpt lat="-27.274439" lon="151.290064">
  <ele>343.1</ele>
  <time>2026-09-01T19:49:37Z</time>
  <course>270.0</course>
  <speed>0.0</speed>
  <fix>3d</fix>
</trkpt>
<trkpt lat="-27.274439" lon="151.290064">
  <ele>343.1</ele>
  <time>2026-09-01T19:49:37Z</time>
  <course>10.71</course>
  <speed>0.0</speed>
  <fix>3d</fix>
</trkpt>
<trkpt lat="-27.274439" lon="151.290064">
  <ele>343.1</ele>
  <time>2026-09-01T19:49:37Z</time>
  <course>270.0</course>
  <speed>0.0</speed>
  <fix>3d</fix>
</trkpt>
<trkpt lat="-27.274439" lon="151.290064">
  <ele>343.1</ele>
  <time>2026-09-01T19:49:37Z</time>
  <course>10.71</course>
  <speed>0.0</speed>
  <fix>3d</fix>
</trkpt>
<trkpt lat="-27.274439" lon="151.290064">
  <ele>343.1</ele>
  <time>2026-09-01T19:49:37Z</time>
  <course>270.0</course>
  <speed>0.0</speed>
  <fix>3d</fix>
</trkpt>
<trkpt lat="-27.274439" lon="151.290064">
  <ele>343.1</ele>
  <time>2026-09-01T19:49:37Z</time>
  <course>10.71</course>
  <speed>0.0</speed>
  <fix>3d</fix>
</trkpt>
<trkpt lat="-27.274439" lon="151.290064">
  <ele>343.1</ele>
  <time>2026-09-01T19:49:37Z</time>
  <course>270.0</course>
  <speed>0.0</speed>
  <fix>3d</fix>
</trkpt>
<trkpt lat="-27.274439" lon="151.290064">
  <ele>343.1</ele>
  <time>2026-09-01T19:49:37Z</time>
  <course>10.71</course>
  <speed>0.0</speed>
  <fix>3d</fix>
</trkpt>
<trkpt lat="-27.274439" lon="151.290064">
  <ele>343.1</ele>
  <time>2026-09-01T19:49:37Z</time>
  <course>270.0</course>
  <speed>0.0</speed>
  <fix>3d</fix>
</trkpt>
<trkpt lat="-27.274439" lon="151.290064">
  <ele>343.09</ele>
  <time>2026-09-01T19:49:37Z</time>
  <course>10.71</course>
  <speed>0.0</speed>
  <fix>3d</fix>
</trkpt>
<trkpt lat="-27.274439" lon="151.290064">
  <ele>343.1</ele>
  <time>2026-09-01T19:49:37Z</time>
  <course>270.0</course>
  <speed>0.0</speed>
  <fix>3d</fix>
</trkpt>
<trkpt lat="-27.274439" lon="151.290064">
  <ele>343.09</ele>
  <time>2026-09-01T19:49:37Z</time>
  <course>10.71</course>
  <speed>0.0</speed>
  <fix>3d</fix>
</trkpt>
<trkpt lat="-27.274439" lon="151.290064">
  <ele>343.1</ele>
  <time>2026-09-01T19:49:37Z</time>
  <course>270.0</course>
  <speed>0.0</speed>
  <fix>3d</fix>
</trkpt>
<trkpt lat="-27.274439" lon="151.290064">
  <ele>343.08</ele>
  <time>2026-09-01T19:49:37Z</time>
  <course>10.71</course>
  <speed>0.0</speed>
  <fix>3d</fix>
</trkpt>
<trkpt lat="-27.274439" lon="151.290064">
  <ele>343.1</ele>
  <time>2026-09-01T19:49:37Z</time>
  <course>270.0</course>
  <speed>0.0</speed>
  <fix>3d</fix>
</trkpt>
<trkpt lat="-27.274439" lon="151.290064">
  <ele>343.08</ele>
  <time>2026-09-01T19:49:37Z</time>
  <course>10.71</course>
  <speed>0.0</speed>
  <fix>3d</fix>
</trkpt>
<trkpt lat="-27.274439" lon="151.290064">
  <ele>343.1</ele>
  <time>2026-09-01T19:49:37Z</time>
  <course>270.0</course>
  <speed>0.0</speed>
  <fix>3d</fix>
</trkpt>
<trkpt lat="-27.274439" lon="151.290064">
  <ele>343.07</ele>
  <time>2026-09-01T19:49:37Z</time>
  <course>10.71</course>
  <speed>0.0</speed>
  <fix>3d</fix>
</trkpt>
<trkpt lat="-27.274439" lon="151.290064">
  <ele>343.1</ele>
  <time>2026-09-01T19:49:37Z</time>
  <course>270.0</course>
  <speed>0.0</speed>
  <fix>3d</fix>
</trkpt>
<trkpt lat="-27.274439" lon="151.290064">
  <ele>343.07</ele>
  <time>2026-09-01T19:49:37Z</time>
  <course>10.71</course>
  <speed>0.0</speed>
  <fix>3d</fix>
</trkpt>
<trkpt lat="-27.274439" lon="151.290064">
  <ele>343.1</ele>
  <time>2026-09-01T19:49:37Z</time>
  <course>270.0</course>
  <speed>0.0</speed>
  <fix>3d</fix>
</trkpt>
<trkpt lat="-27.274439" lon="151.290064">
  <ele>343.06</ele>
  <time>2026-09-01T19:49:37Z</time>
  <course>10.71</course>
  <speed>0.0</speed>
  <fix>3d</fix>
</trkpt>
<trkpt lat="-27.274439" lon="151.290064">
  <ele>343.1</ele>
  <time>2026-09-01T19:49:37Z</time>
  <course>270.0</course>
  <speed>0.0</speed>
  <fix>3d</fix>
</trkpt>
<trkpt lat="-27.274439" lon="151.290064">
  <ele>343.06</ele>
  <time>2026-09-01T19:49:37Z</time>
  <course>10.71</course>
  <speed>0.0</speed>
  <fix>3d</fix>
</trkpt>
<trkpt lat="-27.274439" lon="151.290064">
  <ele>343.1</ele>
  <time>2026-09-01T19:49:37Z</time>
  <course>270.0</course>
  <speed>0.0</speed>
  <fix>3d</fix>
</trkpt>
<trkpt lat="-27.274439" lon="151.290064">
  <ele>343.05</ele>
  <time>2026-09-01T19:49:37Z</time>
  <course>10.71</course>
  <speed>0.0</speed>
  <fix>3d</fix>
</trkpt>
<trkpt lat="-27.274439" lon="151.290064">
  <ele>343.1</ele>
  <time>2026-09-01T19:49:37Z</time>
  <course>270.0</course>
  <speed>0.0</speed>
  <fix>3d</fix>
</trkpt>
<trkpt lat="-27.274439" lon="151.290064">
  <ele>343.05</ele>
  <time>2026-09-01T19:49:37Z</time>
  <course>10.71</course>
  <speed>0.0</speed>
  <fix>3d</fix>
</trkpt>
<trkpt lat="-27.274439" lon="151.290064">
  <ele>343.1</ele>
  <time>2026-09-01T19:49:37Z</time>
  <course>270.0</course>
  <speed>0.0</speed>
  <fix>3d</fix>
</trkpt>
<trkpt lat="-27.274439" lon="151.290064">
  <ele>343.04</ele>
  <time>2026-09-01T19:49:37Z</time>
  <course>10.71</course>
  <speed>0.0</speed>
  <fix>3d</fix>
</trkpt>
<trkpt lat="-27.274439" lon="151.290064">
  <ele>343.1</ele>
  <time>2026-09-01T19:49:37Z</time>
  <course>270.0</course>
  <speed>0.0</speed>
  <fix>3d</fix>
</trkpt>
<trkpt lat="-27.274439" lon="151.290064">
  <ele>343.03</ele>
  <time>2026-09-01T19:49:37Z</time>
  <course>10.71</course>
  <speed>0.0</speed>
  <fix>3d</fix>
</trkpt>
<trkpt lat="-27.274439" lon="151.290064">
  <ele>343.1</ele>
  <time>2026-09-01T19:49:37Z</time>
  <course>270.0</course>
  <speed>0.0</speed>
  <fix>3d</fix>
</trkpt>
<trkpt lat="-27.274439" lon="151.290064">
  <ele>343.03</ele>
  <time>2026-09-01T19:49:37Z</time>
  <course>10.71</course>
  <speed>0.0</speed>
  <fix>3d</fix>
</trkpt>
<trkpt lat="-27.274439" lon="151.290064">
  <ele>343.1</ele>
  <time>2026-09-01T19:49:37Z</time>
  <course>270.0</course>
  <speed>0.0</speed>
  <fix>3d</fix>
</trkpt>
<trkpt lat="-27.274439" lon="151.290064">
  <ele>343.02</ele>
  <time>2026-09-01T19:49:37Z</time>
  <course>10.71</course>
  <speed>0.0</speed>
  <fix>3d</fix>
</trkpt>
<trkpt lat="-27.274439" lon="151.290064">
  <ele>343.1</ele>
  <time>2026-09-01T19:49:37Z</time>
  <course>270.0</course>
  <speed>0.0</speed>
  <fix>3d</fix>
</trkpt>
<trkpt lat="-27.274439" lon="151.290064">
  <ele>343.02</ele>
  <time>2026-09-01T19:49:37Z</time>
  <course>10.71</course>
  <speed>0.0</speed>
  <fix>3d</fix>
</trkpt>
<trkpt lat="-27.274439" lon="151.290064">
  <ele>343.1</ele>
  <time>2026-09-01T19:49:37Z</time>
  <course>270.0</course>
  <speed>0.0</speed>
  <fix>3d</fix>
</trkpt>
<trkpt lat="-27.274439" lon="151.290064">
  <ele>343.01</ele>
  <time>2026-09-01T19:49:37Z</time>
  <course>10.71</course>
  <speed>0.0</speed>
  <fix>3d</fix>
</trkpt>
<trkpt lat="-27.274439" lon="151.290064">
  <ele>343.1</ele>
  <time>2026-09-01T19:49:37Z</time>
  <course>270.0</course>
  <speed>0.0</speed>
  <fix>3d</fix>
</trkpt>
<trkpt lat="-27.274439" lon="151.290064">
  <ele>343.0</ele>
  <time>2026-09-01T19:49:37Z</time>
  <course>10.71</course>
  <speed>0.0</speed>
  <fix>3d</fix>
</trkpt>
<trkpt lat="-27.274439" lon="151.290064">
  <ele>343.1</ele>
  <time>2026-09-01T19:49:37Z</time>
  <course>270.0</course>
  <speed>0.0</speed>
  <fix>3d</fix>
</trkpt>
<trkpt lat="-27.274439" lon="151.290064">
  <ele>343.0</ele>
  <time>2026-09-01T19:49:37Z</time>
  <course>10.71</course>
  <speed>0.0</speed>
  <fix>3d</fix>
</trkpt>
<trkpt lat="-27.274439" lon="151.290064">
  <ele>343.1</ele>
  <time>2026-09-01T19:49:37Z</time>
  <course>270.0</course>
  <speed>0.0</speed>
  <fix>3d</fix>
</trkpt>
<trkpt lat="-27.274439" lon="151.290064">
  <ele>342.99</ele>
  <time>2026-09-01T19:49:37Z</time>
  <course>10.71</course>
  <speed>0.0</speed>
  <fix>3d</fix>
</trkpt>
<trkpt lat="-27.274439" lon="151.290064">
  <ele>343.1</ele>
  <time>2026-09-01T19:49:37Z</time>
  <course>270.0</course>
  <speed>0.0</speed>
  <fix>3d</fix>
</trkpt>
<trkpt lat="-27.274439" lon="151.290064">
  <ele>342.99</ele>
  <time>2026-09-01T19:49:37Z</time>
  <course>10.71</course>
  <speed>0.0</speed>
  <fix>3d</fix>
</trkpt>
<trkpt lat="-27.274439" lon="151.290064">
  <ele>343.1</ele>
  <time>2026-09-01T19:49:37Z</time>
  <course>270.0</course>
  <speed>0.0</speed>
  <fix>3d</fix>
</trkpt>
<trkpt lat="-27.274439" lon="151.290064">
  <ele>342.99</ele>
  <time>2026-09-01T19:49:37Z</time>
  <course>10.71</course>
  <speed>0.0</speed>
  <fix>3d</fix>
</trkpt>
<trkpt lat="-27.274439" lon="151.290064">
  <ele>343.1</ele>
  <time>2026-09-01T19:49:37Z</time>
  <course>270.0</course>
  <speed>0.0</speed>
  <fix>3d</fix>
</trkpt>
<trkpt lat="-27.274439" lon="151.290064">
  <ele>342.99</ele>
  <time>2026-09-01T19:49:37Z</time>
  <course>10.71</course>
  <speed>0.0</speed>
  <fix>3d</fix>
</trkpt>
<trkpt lat="-27.274439" lon="151.290064">
  <ele>343.1</ele>
  <time>2026-09-01T19:49:37Z</time>
  <course>270.0</course>
  <speed>0.0</speed>
  <fix>3d</fix>
</trkpt>
<trkpt lat="-27.274439" lon="151.290064">
  <ele>342.99</ele>
  <time>2026-09-01T19:49:37Z</time>
  <course>10.71</course>
  <speed>0.0</speed>
  <fix>3d</fix>
</trkpt>
<trkpt lat="-27.274439" lon="151.290064">
  <ele>343.1</ele>
  <time>2026-09-01T19:49:37Z</time>
  <course>270.0</course>
  <speed>0.0</speed>
  <fix>3d</fix>
</trkpt>
<trkpt lat="-27.274439" lon="151.290064">
  <ele>342.98</ele>
  <time>2026-09-01T19:49:37Z</time>
  <course>10.71</course>
  <speed>0.0</speed>
  <fix>3d</fix>
</trkpt>
<trkpt lat="-27.274439" lon="151.290064">
  <ele>343.1</ele>
  <time>2026-09-01T19:49:37Z</time>
  <course>270.0</course>
  <speed>0.0</speed>
  <fix>3d</fix>
</trkpt>
<trkpt lat="-27.274439" lon="151.290064">
  <ele>342.98</ele>
  <time>2026-09-01T19:49:37Z</time>
  <course>10.71</course>
  <speed>0.0</speed>
  <fix>3d</fix>
</trkpt>
<trkpt lat="-27.274439" lon="151.290064">
  <ele>343.1</ele>
  <time>2026-09-01T19:49:37Z</time>
  <course>270.0</course>
  <speed>0.0</speed>
  <fix>3d</fix>
</trkpt>
<trkpt lat="-27.274439" lon="151.290064">
  <ele>342.98</ele>
  <time>2026-09-01T19:49:37Z</time>
  <course>10.71</course>
  <speed>0.0</speed>
  <fix>3d</fix>
</trkpt>
<trkpt lat="-27.274439" lon="151.290064">
  <ele>343.1</ele>
  <time>2026-09-01T19:49:37Z</time>
  <course>270.0</course>
  <speed>0.0</speed>
  <fix>3d</fix>
</trkpt>
<trkpt lat="-27.274439" lon="151.290064">
  <ele>342.98</ele>
  <time>2026-09-01T19:49:37Z</time>
  <course>10.71</course>
  <speed>0.0</speed>
  <fix>3d</fix>
</trkpt>
<trkpt lat="-27.274439" lon="151.290064">
  <ele>343.1</ele>
  <time>2026-09-01T19:49:37Z</time>
  <course>270.0</course>
  <speed>0.0</speed>
  <fix>3d</fix>
</trkpt>
<trkpt lat="-27.274439" lon="151.290064">
  <ele>342.97</ele>
  <time>2026-09-01T19:49:37Z</time>
  <course>10.71</course>
  <speed>0.0</speed>
  <fix>3d</fix>
</trkpt>
<trkpt lat="-27.274439" lon="151.290064">
  <ele>343.1</ele>
  <time>2026-09-01T19:49:37Z</time>
  <course>270.0</course>
  <speed>0.0</speed>
  <fix>3d</fix>
</trkpt>
<trkpt lat="-27.274439" lon="151.290064">
  <ele>342.97</ele>
  <time>2026-09-01T19:49:37Z</time>
  <course>10.71</course>
  <speed>0.0</speed>
  <fix>3d</fix>
</trkpt>
<trkpt lat="-27.274439" lon="151.290064">
  <ele>343.1</ele>
  <time>2026-09-01T19:49:37Z</time>
  <course>270.0</course>
  <speed>0.0</speed>
  <fix>3d</fix>
</trkpt>
<trkpt lat="-27.274439" lon="151.290064">
  <ele>342.97</ele>
  <time>2026-09-01T19:49:37Z</time>
  <course>10.71</course>
  <speed>0.0</speed>
  <fix>3d</fix>
</trkpt>
<trkpt lat="-27.274439" lon="151.290064">
  <ele>343.1</ele>
  <time>2026-09-01T19:49:37Z</time>
  <course>270.0</course>
  <speed>0.0</speed>
  <fix>3d</fix>
</trkpt>
<trkpt lat="-27.274439" lon="151.290064">
  <ele>342.96</ele>
  <time>2026-09-01T19:49:37Z</time>
  <course>10.71</course>
  <speed>0.0</speed>
  <fix>3d</fix>
</trkpt>
<trkpt lat="-27.274439" lon="151.290064">
  <ele>343.1</ele>
  <time>2026-09-01T19:49:37Z</time>
  <course>270.0</course>
  <speed>0.0</speed>
  <fix>3d</fix>
</trkpt>
<trkpt lat="-27.274439" lon="151.290064">
  <ele>342.96</ele>
  <time>2026-09-01T19:49:37Z</time>
  <course>10.71</course>
  <speed>0.0</speed>
  <fix>3d</fix>
</trkpt>
<trkpt lat="-27.274439" lon="151.290064">
  <ele>343.1</ele>
  <time>2026-09-01T19:49:37Z</time>
  <course>270.0</course>
  <speed>0.0</speed>
  <fix>3d</fix>
</trkpt>
<trkpt lat="-27.274439" lon="151.290064">
  <ele>342.96</ele>
  <time>2026-09-01T19:49:37Z</time>
  <course>10.71</course>
  <speed>0.0</speed>
  <fix>3d</fix>
</trkpt>
<trkpt lat="-27.274439" lon="151.290064">
  <ele>343.1</ele>
  <time>2026-09-01T19:49:37Z</time>
  <course>270.0</course>
  <speed>0.0</speed>
  <fix>3d</fix>
</trkpt>
<trkpt lat="-27.274439" lon="151.290064">
  <ele>342.96</ele>
  <time>2026-09-01T19:49:37Z</time>
  <course>10.71</course>
  <speed>0.0</speed>
  <fix>3d</fix>
</trkpt>
<trkpt lat="-27.274439" lon="151.290064">
  <ele>343.1</ele>
  <time>2026-09-01T19:49:37Z</time>
  <course>270.0</course>
  <speed>0.0</speed>
  <fix>3d</fix>
</trkpt>
<trkpt lat="-27.274439" lon="151.290064">
  <ele>342.96</ele>
  <time>2026-09-01T19:49:37Z</time>
  <course>10.71</course>
  <speed>0.0</speed>
  <fix>3d</fix>
</trkpt>
<trkpt lat="-27.274439" lon="151.290064">
  <ele>343.1</ele>
  <time>2026-09-01T19:49:37Z</time>
  <course>270.0</course>
  <speed>0.0</speed>
  <fix>3d</fix>
</trkpt>
<trkpt lat="-27.274439" lon="151.290064">
  <ele>342.96</ele>
  <time>2026-09-01T19:49:37Z</time>
  <course>10.71</course>
  <speed>0.0</speed>
  <fix>3d</fix>
</trkpt>
<trkpt lat="-27.274439" lon="151.290064">
  <ele>343.1</ele>
  <time>2026-09-01T19:49:37Z</time>
  <course>270.0</course>
  <speed>0.0</speed>
  <fix>3d</fix>
</trkpt>
<trkpt lat="-27.274439" lon="151.290064">
  <ele>342.95</ele>
  <time>2026-09-01T19:49:37Z</time>
  <course>10.71</course>
  <speed>0.0</speed>
  <fix>3d</fix>
</trkpt>
<trkpt lat="-27.274439" lon="151.290064">
  <ele>343.1</ele>
  <time>2026-09-01T19:49:37Z</time>
  <course>270.0</course>
  <speed>0.0</speed>
  <fix>3d</fix>
</trkpt>
<trkpt lat="-27.274439" lon="151.290064">
  <ele>342.95</ele>
  <time>2026-09-01T19:49:37Z</time>
  <course>10.7</course>
  <speed>0.0</speed>
  <fix>3d</fix>
</trkpt>
<trkpt lat="-27.274439" lon="151.290064">
  <ele>343.1</ele>
  <time>2026-09-01T19:49:37Z</time>
  <course>270.0</course>
  <speed>0.0</speed>
  <fix>3d</fix>
</trkpt>
<trkpt lat="-27.274439" lon="151.290064">
  <ele>342.95</ele>
  <time>2026-09-01T19:49:37Z</time>
  <course>10.7</course>
  <speed>0.0</speed>
  <fix>3d</fix>
</trkpt>
<trkpt lat="-27.274439" lon="151.290064">
  <ele>343.1</ele>
  <time>2026-09-01T19:49:37Z</time>
  <course>270.0</course>
  <speed>0.0</speed>
  <fix>3d</fix>
</trkpt>
<trkpt lat="-27.274439" lon="151.290064">
  <ele>342.95</ele>
  <time>2026-09-01T19:49:37Z</time>
  <course>10.7</course>
  <speed>0.0</speed>
  <fix>3d</fix>
</trkpt>
<trkpt lat="-27.274439" lon="151.290064">
  <ele>343.1</ele>
  <time>2026-09-01T19:49:37Z</time>
  <course>270.0</course>
  <speed>0.0</speed>
  <fix>3d</fix>
</trkpt>
<trkpt lat="-27.274439" lon="151.290064">
  <ele>342.95</ele>
  <time>2026-09-01T19:49:37Z</time>
  <course>10.7</course>
  <speed>0.0</speed>
  <fix>3d</fix>
</trkpt>
<trkpt lat="-27.274439" lon="151.290064">
  <ele>343.1</ele>
  <time>2026-09-01T19:49:37Z</time>
  <course>270.0</course>
  <speed>0.0</speed>
  <fix>3d</fix>
</trkpt>
<trkpt lat="-27.274439" lon="151.290064">
  <ele>342.95</ele>
  <time>2026-09-01T19:49:37Z</time>
  <course>10.7</course>
  <speed>0.0</speed>
  <fix>3d</fix>
</trkpt>
<trkpt lat="-27.274439" lon="151.290064">
  <ele>343.1</ele>
  <time>2026-09-01T19:49:37Z</time>
  <course>270.0</course>
  <speed>0.0</speed>
  <fix>3d</fix>
</trkpt>
<trkpt lat="-27.274439" lon="151.290064">
  <ele>342.94</ele>
  <time>2026-09-01T19:49:37Z</time>
  <course>10.7</course>
  <speed>0.0</speed>
  <fix>3d</fix>
</trkpt>
<trkpt lat="-27.274439" lon="151.290064">
  <ele>343.1</ele>
  <time>2026-09-01T19:49:37Z</time>
  <course>270.0</course>
  <speed>0.0</speed>
  <fix>3d</fix>
</trkpt>
<trkpt lat="-27.274439" lon="151.290064">
  <ele>342.94</ele>
  <time>2026-09-01T19:49:37Z</time>
  <course>10.7</course>
  <speed>0.0</speed>
  <fix>3d</fix>
</trkpt>
<trkpt lat="-27.274439" lon="151.290064">
  <ele>343.1</ele>
  <time>2026-09-01T19:49:37Z</time>
  <course>270.0</course>
  <speed>0.0</speed>
  <fix>3d</fix>
</trkpt>
<trkpt lat="-27.274439" lon="151.290064">
  <ele>342.94</ele>
  <time>2026-09-01T19:49:37Z</time>
  <course>10.7</course>
  <speed>0.0</speed>
  <fix>3d</fix>
</trkpt>
<trkpt lat="-27.274439" lon="151.290064">
  <ele>343.1</ele>
  <time>2026-09-01T19:49:37Z</time>
  <course>270.0</course>
  <speed>0.0</speed>
  <fix>3d</fix>
</trkpt>
<trkpt lat="-27.274439" lon="151.290064">
  <ele>342.94</ele>
  <time>2026-09-01T19:49:37Z</time>
  <course>10.7</course>
  <speed>0.0</speed>
  <fix>3d</fix>
</trkpt>
<trkpt lat="-27.274439" lon="151.290064">
  <ele>343.1</ele>
  <time>2026-09-01T19:49:37Z</time>
  <course>270.0</course>
  <speed>0.0</speed>
  <fix>3d</fix>
</trkpt>
<trkpt lat="-27.274439" lon="151.290064">
  <ele>342.94</ele>
  <time>2026-09-01T19:49:37Z</time>
  <course>10.7</course>
  <speed>0.0</speed>
  <fix>3d</fix>
</trkpt>
<trkpt lat="-27.274439" lon="151.290064">
  <ele>343.1</ele>
  <time>2026-09-01T19:49:37Z</time>
  <course>270.0</course>
  <speed>0.0</speed>
  <fix>3d</fix>
</trkpt>
<trkpt lat="-27.274439" lon="151.290064">
  <ele>342.93</ele>
  <time>2026-09-01T19:49:37Z</time>
  <course>10.7</course>
  <speed>0.0</speed>
  <fix>3d</fix>
</trkpt>
<trkpt lat="-27.274439" lon="151.290064">
  <ele>343.1</ele>
  <time>2026-09-01T19:49:37Z</time>
  <course>270.0</course>
  <speed>0.0</speed>
  <fix>3d</fix>
</trkpt>
<trkpt lat="-27.274439" lon="151.290064">
  <ele>342.93</ele>
  <time>2026-09-01T19:49:37Z</time>
  <course>10.7</course>
  <speed>0.0</speed>
  <fix>3d</fix>
</trkpt>
<trkpt lat="-27.274439" lon="151.290064">
  <ele>343.1</ele>
  <time>2026-09-01T19:49:37Z</time>
  <course>270.0</course>
  <speed>0.0</speed>
  <fix>3d</fix>
</trkpt>
<trkpt lat="-27.274439" lon="151.290064">
  <ele>342.93</ele>
  <time>2026-09-01T19:49:37Z</time>
  <course>10.7</course>
  <speed>0.0</speed>
  <fix>3d</fix>
</trkpt>
<trkpt lat="-27.274439" lon="151.290064">
  <ele>343.1</ele>
  <time>2026-09-01T19:49:37Z</time>
  <course>270.0</course>
  <speed>0.0</speed>
  <fix>3d</fix>
</trkpt>
<trkpt lat="-27.274439" lon="151.290064">
  <ele>342.93</ele>
  <time>2026-09-01T19:49:37Z</time>
  <course>10.7</course>
  <speed>0.0</speed>
  <fix>3d</fix>
</trkpt>
<trkpt lat="-27.274439" lon="151.290064">
  <ele>343.1</ele>
  <time>2026-09-01T19:49:37Z</time>
  <course>270.0</course>
  <speed>0.0</speed>
  <fix>3d</fix>
</trkpt>
<trkpt lat="-27.274439" lon="151.290064">
  <ele>342.93</ele>
  <time>2026-09-01T19:49:37Z</time>
  <course>10.7</course>
  <speed>0.0</speed>
  <fix>3d</fix>
</trkpt>
<trkpt lat="-27.274439" lon="151.290064">
  <ele>343.1</ele>
  <time>2026-09-01T19:49:37Z</time>
  <course>270.0</course>
  <speed>0.0</speed>
  <fix>3d</fix>
</trkpt>
<trkpt lat="-27.274439" lon="151.290064">
  <ele>342.93</ele>
  <time>2026-09-01T19:49:37Z</time>
  <course>10.7</course>
  <speed>0.0</speed>
  <fix>3d</fix>
</trkpt>
<trkpt lat="-27.274439" lon="151.290064">
  <ele>343.1</ele>
  <time>2026-09-01T19:49:37Z</time>
  <course>270.0</course>
  <speed>0.0</speed>
  <fix>3d</fix>
</trkpt>
<trkpt lat="-27.274439" lon="151.290064">
  <ele>342.93</ele>
  <time>2026-09-01T19:49:37Z</time>
  <course>10.7</course>
  <speed>0.01</speed>
  <fix>3d</fix>
</trkpt>
<trkpt lat="-27.274439" lon="151.290064">
  <ele>343.1</ele>
  <time>2026-09-01T19:49:37Z</time>
  <course>270.0</course>
  <speed>0.0</speed>
  <fix>3d</fix>
</trkpt>
<trkpt lat="-27.274439" lon="151.290064">
  <ele>342.93</ele>
  <time>2026-09-01T19:49:37Z</time>
  <course>10.7</course>
  <speed>0.01</speed>
  <fix>3d</fix>
</trkpt>
<trkpt lat="-27.274439" lon="151.290064">
  <ele>343.1</ele>
  <time>2026-09-01T19:49:37Z</time>
  <course>270.0</course>
  <speed>0.0</speed>
  <fix>3d</fix>
</trkpt>
<trkpt lat="-27.274439" lon="151.290064">
  <ele>342.92</ele>
  <time>2026-09-01T19:49:37Z</time>
  <course>10.7</course>
  <speed>0.01</speed>
  <fix>3d</fix>
</trkpt>
<trkpt lat="-27.274439" lon="151.290064">
  <ele>343.1</ele>
  <time>2026-09-01T19:49:37Z</time>
  <course>270.0</course>
  <speed>0.0</speed>
  <fix>3d</fix>
</trkpt>
<trkpt lat="-27.274439" lon="151.290064">
  <ele>343.09</ele>
  <time>2026-09-01T19:49:37Z</time>
  <course>10.7</course>
  <speed>0.01</speed>
  <fix>3d</fix>
</trkpt>
<trkpt lat="-27.274439" lon="151.290064">
  <ele>343.1</ele>
  <time>2026-09-01T19:49:37Z</time>
  <course>270.0</course>
  <speed>0.0</speed>
  <fix>3d</fix>
</trkpt>
<trkpt lat="-27.274439" lon="151.290064">
  <ele>343.09</ele>
  <time>2026-09-01T19:49:37Z</time>
  <course>10.7</course>
  <speed>0.01</speed>
  <fix>3d</fix>
</trkpt>
<trkpt lat="-27.274439" lon="151.290064">
  <ele>343.1</ele>
  <time>2026-09-01T19:49:37Z</time>
  <course>270.0</course>
  <speed>0.0</speed>
  <fix>3d</fix>
</trkpt>
<trkpt lat="-27.274439" lon="151.290064">
  <ele>343.09</ele>
  <time>2026-09-01T19:49:37Z</time>
  <course>10.7</course>
  <speed>0.01</speed>
  <fix>3d</fix>
</trkpt>
<trkpt lat="-27.274439" lon="151.290064">
  <ele>343.1</ele>
  <time>2026-09-01T19:49:37Z</time>
  <course>270.0</course>
  <speed>0.0</speed>
  <fix>3d</fix>
</trkpt>
<trkpt lat="-27.274439" lon="151.290064">
  <ele>343.09</ele>
  <time>2026-09-01T19:49:37Z</time>
  <course>10.7</course>
  <speed>0.01</speed>
  <fix>3d</fix>
</trkpt>
<trkpt lat="-27.274439" lon="151.290064">
  <ele>343.1</ele>
  <time>2026-09-01T19:49:37Z</time>
  <course>270.0</course>
  <speed>0.0</speed>
  <fix>3d</fix>
</trkpt>
<trkpt lat="-27.274439" lon="151.290064">
  <ele>343.09</ele>
  <time>2026-09-01T19:49:37Z</time>
  <course>10.7</course>
  <speed>0.01</speed>
  <fix>3d</fix>
</trkpt>
<trkpt lat="-27.274439" lon="151.290064">
  <ele>343.1</ele>
  <time>2026-09-01T19:49:37Z</time>
  <course>270.0</course>
  <speed>0.0</speed>
  <fix>3d</fix>
</trkpt>
<trkpt lat="-27.274439" lon="151.290064">
  <ele>343.08</ele>
  <time>2026-09-01T19:49:37Z</time>
  <course>10.7</course>
  <speed>0.01</speed>
  <fix>3d</fix>
</trkpt>
<trkpt lat="-27.274439" lon="151.290064">
  <ele>343.1</ele>
  <time>2026-09-01T19:49:37Z</time>
  <course>270.0</course>
  <speed>0.0</speed>
  <fix>3d</fix>
</trkpt>
<trkpt lat="-27.274439" lon="151.290064">
  <ele>343.08</ele>
  <time>2026-09-01T19:49:37Z</time>
  <course>10.7</course>
  <speed>0.01</speed>
  <fix>3d</fix>
</trkpt>
<trkpt lat="-27.274439" lon="151.290064">
  <ele>343.1</ele>
  <time>2026-09-01T19:49:37Z</time>
  <course>270.0</course>
  <speed>0.0</speed>
  <fix>3d</fix>
</trkpt>
<trkpt lat="-27.274439" lon="151.290064">
  <ele>343.07</ele>
  <time>2026-09-01T19:49:37Z</time>
  <course>10.7</course>
  <speed>0.01</speed>
  <fix>3d</fix>
</trkpt>
<trkpt lat="-27.274439" lon="151.290064">
  <ele>343.1</ele>
  <time>2026-09-01T19:49:37Z</time>
  <course>270.0</course>
  <speed>0.0</speed>
  <fix>3d</fix>
</trkpt>
<trkpt lat="-27.274439" lon="151.290064">
  <ele>343.07</ele>
  <time>2026-09-01T19:49:37Z</time>
  <course>10.7</course>
  <speed>0.01</speed>
  <fix>3d</fix>
</trkpt>
<trkpt lat="-27.274439" lon="151.290064">
  <ele>343.1</ele>
  <time>2026-09-01T19:49:37Z</time>
  <course>270.0</course>
  <speed>0.0</speed>
  <fix>3d</fix>
</trkpt>
<trkpt lat="-27.274439" lon="151.290064">
  <ele>343.07</ele>
  <time>2026-09-01T19:49:37Z</time>
  <course>10.7</course>
  <speed>0.01</speed>
  <fix>3d</fix>
</trkpt>
<trkpt lat="-27.274439" lon="151.290064">
  <ele>343.1</ele>
  <time>2026-09-01T19:49:37Z</time>
  <course>270.0</course>
  <speed>0.0</speed>
  <fix>3d</fix>
</trkpt>
<trkpt lat="-27.274439" lon="151.290064">
  <ele>343.06</ele>
  <time>2026-09-01T19:49:37Z</time>
  <course>10.7</course>
  <speed>0.01</speed>
  <fix>3d</fix>
</trkpt>
<trkpt lat="-27.274439" lon="151.290064">
  <ele>343.1</ele>
  <time>2026-09-01T19:49:37Z</time>
  <course>270.0</course>
  <speed>0.0</speed>
  <fix>3d</fix>
</trkpt>
<trkpt lat="-27.274439" lon="151.290064">
  <ele>343.06</ele>
  <time>2026-09-01T19:49:37Z</time>
  <course>10.7</course>
  <speed>0.01</speed>
  <fix>3d</fix>
</trkpt>
<trkpt lat="-27.274439" lon="151.290064">
  <ele>343.1</ele>
  <time>2026-09-01T19:49:37Z</time>
  <course>270.0</course>
  <speed>0.0</speed>
  <fix>3d</fix>
</trkpt>
<trkpt lat="-27.274439" lon="151.290064">
  <ele>343.05</ele>
  <time>2026-09-01T19:49:37Z</time>
  <course>10.7</course>
  <speed>0.01</speed>
  <fix>3d</fix>
</trkpt>
<trkpt lat="-27.274439" lon="151.290064">
  <ele>343.1</ele>
  <time>2026-09-01T19:49:37Z</time>
  <course>270.0</course>
  <speed>0.0</speed>
  <fix>3d</fix>
</trkpt>
<trkpt lat="-27.274439" lon="151.290064">
  <ele>343.05</ele>
  <time>2026-09-01T19:49:37Z</time>
  <course>10.7</course>
  <speed>0.01</speed>
  <fix>3d</fix>
</trkpt>
<trkpt lat="-27.274439" lon="151.290064">
  <ele>343.1</ele>
  <time>2026-09-01T19:49:37Z</time>
  <course>270.0</course>
  <speed>0.0</speed>
  <fix>3d</fix>
</trkpt>
<trkpt lat="-27.274439" lon="151.290064">
  <ele>343.04</ele>
  <time>2026-09-01T19:49:37Z</time>
  <course>10.7</course>
  <speed>0.01</speed>
  <fix>3d</fix>
</trkpt>
<trkpt lat="-27.274439" lon="151.290064">
  <ele>343.1</ele>
  <time>2026-09-01T19:49:37Z</time>
  <course>270.0</course>
  <speed>0.0</speed>
  <fix>3d</fix>
</trkpt>
<trkpt lat="-27.274439" lon="151.290064">
  <ele>343.04</ele>
  <time>2026-09-01T19:49:37Z</time>
  <course>10.7</course>
  <speed>0.01</speed>
  <fix>3d</fix>
</trkpt>
<trkpt lat="-27.274439" lon="151.290064">
  <ele>343.1</ele>
  <time>2026-09-01T19:49:37Z</time>
  <course>270.0</course>
  <speed>0.0</speed>
  <fix>3d</fix>
</trkpt>
<trkpt lat="-27.274439" lon="151.290064">
  <ele>343.03</ele>
  <time>2026-09-01T19:49:37Z</time>
  <course>10.7</course>
  <speed>0.01</speed>
  <fix>3d</fix>
</trkpt>
<trkpt lat="-27.274439" lon="151.290064">
  <ele>343.1</ele>
  <time>2026-09-01T19:49:37Z</time>
  <course>270.0</course>
  <speed>0.0</speed>
  <fix>3d</fix>
</trkpt>
<trkpt lat="-27.274439" lon="151.290064">
  <ele>343.03</ele>
  <time>2026-09-01T19:49:37Z</time>
  <course>10.7</course>
  <speed>0.01</speed>
  <fix>3d</fix>
</trkpt>
<trkpt lat="-27.274439" lon="151.290064">
  <ele>343.1</ele>
  <time>2026-09-01T19:49:37Z</time>
  <course>270.0</course>
  <speed>0.0</speed>
  <fix>3d</fix>
</trkpt>
<trkpt lat="-27.274439" lon="151.290064">
  <ele>343.03</ele>
  <time>2026-09-01T19:49:37Z</time>
  <course>10.7</course>
  <speed>0.01</speed>
  <fix>3d</fix>
</trkpt>
<trkpt lat="-27.274439" lon="151.290064">
  <ele>343.1</ele>
  <time>2026-09-01T19:49:37Z</time>
  <course>270.0</course>
  <speed>0.0</speed>
  <fix>3d</fix>
</trkpt>
<trkpt lat="-27.274439" lon="151.290064">
  <ele>343.02</ele>
  <time>2026-09-01T19:49:38Z</time>
  <course>10.7</course>
  <speed>0.01</speed>
  <fix>3d</fix>
</trkpt>
<trkpt lat="-27.274439" lon="151.290064">
  <ele>343.1</ele>
  <time>2026-09-01T19:49:38Z</time>
  <course>270.0</course>
  <speed>0.0</speed>
  <fix>3d</fix>
</trkpt>
<trkpt lat="-27.274439" lon="151.290064">
  <ele>343.02</ele>
  <time>2026-09-01T19:49:38Z</time>
  <course>10.7</course>
  <speed>0.01</speed>
  <fix>3d</fix>
</trkpt>
<trkpt lat="-27.274439" lon="151.290064">
  <ele>343.1</ele>
  <time>2026-09-01T19:49:38Z</time>
  <course>270.0</course>
  <speed>0.0</speed>
  <fix>3d</fix>
</trkpt>
<trkpt lat="-27.274439" lon="151.290064">
  <ele>343.02</ele>
  <time>2026-09-01T19:49:38Z</time>
  <course>10.7</course>
  <speed>0.01</speed>
  <fix>3d</fix>
</trkpt>
<trkpt lat="-27.274439" lon="151.290064">
  <ele>343.1</ele>
  <time>2026-09-01T19:49:38Z</time>
  <course>270.0</course>
  <speed>0.0</speed>
  <fix>3d</fix>
</trkpt>
<trkpt lat="-27.274439" lon="151.290064">
  <ele>343.02</ele>
  <time>2026-09-01T19:49:38Z</time>
  <course>10.7</course>
  <speed>0.01</speed>
  <fix>3d</fix>
</trkpt>
<trkpt lat="-27.274439" lon="151.290064">
  <ele>343.1</ele>
  <time>2026-09-01T19:49:38Z</time>
  <course>270.0</course>
  <speed>0.0</speed>
  <fix>3d</fix>
</trkpt>
<trkpt lat="-27.274439" lon="151.290064">
  <ele>343.02</ele>
  <time>2026-09-01T19:49:38Z</time>
  <course>10.7</course>
  <speed>0.01</speed>
  <fix>3d</fix>
</trkpt>
<trkpt lat="-27.274439" lon="151.290064">
  <ele>343.1</ele>
  <time>2026-09-01T19:49:38Z</time>
  <course>270.0</course>
  <speed>0.0</speed>
  <fix>3d</fix>
</trkpt>
<trkpt lat="-27.274439" lon="151.290064">
  <ele>343.02</ele>
  <time>2026-09-01T19:49:38Z</time>
  <course>10.7</course>
  <speed>0.01</speed>
  <fix>3d</fix>
</trkpt>
<trkpt lat="-27.274439" lon="151.290064">
  <ele>343.1</ele>
  <time>2026-09-01T19:49:38Z</time>
  <course>270.0</course>
  <speed>0.0</speed>
  <fix>3d</fix>
</trkpt>
<trkpt lat="-27.274439" lon="151.290064">
  <ele>343.02</ele>
  <time>2026-09-01T19:49:38Z</time>
  <course>10.7</course>
  <speed>0.01</speed>
  <fix>3d</fix>
</trkpt>
<trkpt lat="-27.274439" lon="151.290064">
  <ele>343.1</ele>
  <time>2026-09-01T19:49:38Z</time>
  <course>270.0</course>
  <speed>0.0</speed>
  <fix>3d</fix>
</trkpt>
<trkpt lat="-27.274439" lon="151.290064">
  <ele>343.01</ele>
  <time>2026-09-01T19:49:38Z</time>
  <course>10.7</course>
  <speed>0.01</speed>
  <fix>3d</fix>
</trkpt>
<trkpt lat="-27.274439" lon="151.290064">
  <ele>343.1</ele>
  <time>2026-09-01T19:49:38Z</time>
  <course>270.0</course>
  <speed>0.0</speed>
  <fix>3d</fix>
</trkpt>
<trkpt lat="-27.274439" lon="151.290064">
  <ele>343.01</ele>
  <time>2026-09-01T19:49:38Z</time>
  <course>10.7</course>
  <speed>0.01</speed>
  <fix>3d</fix>
</trkpt>
<trkpt lat="-27.274439" lon="151.290064">
  <ele>343.1</ele>
  <time>2026-09-01T19:49:38Z</time>
  <course>270.0</course>
  <speed>0.0</speed>
  <fix>3d</fix>
</trkpt>
<trkpt lat="-27.274439" lon="151.290064">
  <ele>343.01</ele>
  <time>2026-09-01T19:49:38Z</time>
  <course>10.7</course>
  <speed>0.01</speed>
  <fix>3d</fix>
</trkpt>
<trkpt lat="-27.274439" lon="151.290064">
  <ele>343.1</ele>
  <time>2026-09-01T19:49:38Z</time>
  <course>270.0</course>
  <speed>0.0</speed>
  <fix>3d</fix>
</trkpt>
<trkpt lat="-27.274439" lon="151.290064">
  <ele>343.01</ele>
  <time>2026-09-01T19:49:38Z</time>
  <course>10.7</course>
  <speed>0.01</speed>
  <fix>3d</fix>
</trkpt>
<trkpt lat="-27.274439" lon="151.290064">
  <ele>343.1</ele>
  <time>2026-09-01T19:49:38Z</time>
  <course>270.0</course>
  <speed>0.0</speed>
  <fix>3d</fix>
</trkpt>
<trkpt lat="-27.274439" lon="151.290064">
  <ele>343.01</ele>
  <time>2026-09-01T19:49:38Z</time>
  <course>10.7</course>
  <speed>0.01</speed>
  <fix>3d</fix>
</trkpt>
<trkpt lat="-27.274439" lon="151.290064">
  <ele>343.1</ele>
  <time>2026-09-01T19:49:38Z</time>
  <course>270.0</course>
  <speed>0.0</speed>
  <fix>3d</fix>
</trkpt>
<trkpt lat="-27.274439" lon="151.290064">
  <ele>343.0</ele>
  <time>2026-09-01T19:49:38Z</time>
  <course>10.7</course>
  <speed>0.01</speed>
  <fix>3d</fix>
</trkpt>
<trkpt lat="-27.274439" lon="151.290064">
  <ele>343.1</ele>
  <time>2026-09-01T19:49:38Z</time>
  <course>270.0</course>
  <speed>0.0</speed>
  <fix>3d</fix>
</trkpt>
<trkpt lat="-27.274439" lon="151.290064">
  <ele>343.0</ele>
  <time>2026-09-01T19:49:38Z</time>
  <course>10.7</course>
  <speed>0.01</speed>
  <fix>3d</fix>
</trkpt>
<trkpt lat="-27.274439" lon="151.290064">
  <ele>343.1</ele>
  <time>2026-09-01T19:49:38Z</time>
  <course>270.0</course>
  <speed>0.0</speed>
  <fix>3d</fix>
</trkpt>
<trkpt lat="-27.274439" lon="151.290064">
  <ele>343.0</ele>
  <time>2026-09-01T19:49:38Z</time>
  <course>10.7</course>
  <speed>0.01</speed>
  <fix>3d</fix>
</trkpt>
<trkpt lat="-27.274439" lon="151.290064">
  <ele>343.1</ele>
  <time>2026-09-01T19:49:38Z</time>
  <course>270.0</course>
  <speed>0.0</speed>
  <fix>3d</fix>
</trkpt>
<trkpt lat="-27.274439" lon="151.290064">
  <ele>342.99</ele>
  <time>2026-09-01T19:49:38Z</time>
  <course>10.7</course>
  <speed>0.01</speed>
  <fix>3d</fix>
</trkpt>
<trkpt lat="-27.274439" lon="151.290064">
  <ele>343.1</ele>
  <time>2026-09-01T19:49:38Z</time>
  <course>270.0</course>
  <speed>0.0</speed>
  <fix>3d</fix>
</trkpt>
<trkpt lat="-27.274439" lon="151.290064">
  <ele>342.99</ele>
  <time>2026-09-01T19:49:38Z</time>
  <course>10.7</course>
  <speed>0.01</speed>
  <fix>3d</fix>
</trkpt>
<trkpt lat="-27.274439" lon="151.290064">
  <ele>343.1</ele>
  <time>2026-09-01T19:49:38Z</time>
  <course>270.0</course>
  <speed>0.0</speed>
  <fix>3d</fix>
</trkpt>
<trkpt lat="-27.274439" lon="151.290064">
  <ele>342.98</ele>
  <time>2026-09-01T19:49:38Z</time>
  <course>10.7</course>
  <speed>0.01</speed>
  <fix>3d</fix>
</trkpt>
<trkpt lat="-27.274439" lon="151.290064">
  <ele>343.1</ele>
  <time>2026-09-01T19:49:38Z</time>
  <course>270.0</course>
  <speed>0.0</speed>
  <fix>3d</fix>
</trkpt>
<trkpt lat="-27.274439" lon="151.290064">
  <ele>342.98</ele>
  <time>2026-09-01T19:49:38Z</time>
  <course>10.7</course>
  <speed>0.01</speed>
  <fix>3d</fix>
</trkpt>
<trkpt lat="-27.274439" lon="151.290064">
  <ele>343.1</ele>
  <time>2026-09-01T19:49:38Z</time>
  <course>270.0</course>
  <speed>0.0</speed>
  <fix>3d</fix>
</trkpt>
<trkpt lat="-27.274439" lon="151.290064">
  <ele>342.97</ele>
  <time>2026-09-01T19:49:38Z</time>
  <course>10.7</course>
  <speed>0.01</speed>
  <fix>3d</fix>
</trkpt>
<trkpt lat="-27.274439" lon="151.290064">
  <ele>343.1</ele>
  <time>2026-09-01T19:49:38Z</time>
  <course>270.0</course>
  <speed>0.0</speed>
  <fix>3d</fix>
</trkpt>
<trkpt lat="-27.274439" lon="151.290064">
  <ele>342.97</ele>
  <time>2026-09-01T19:49:38Z</time>
  <course>10.7</course>
  <speed>0.01</speed>
  <fix>3d</fix>
</trkpt>
<trkpt lat="-27.274439" lon="151.290064">
  <ele>343.1</ele>
  <time>2026-09-01T19:49:38Z</time>
  <course>270.0</course>
  <speed>0.0</speed>
  <fix>3d</fix>
</trkpt>
<trkpt lat="-27.274439" lon="151.290064">
  <ele>342.97</ele>
  <time>2026-09-01T19:49:38Z</time>
  <course>10.7</course>
  <speed>0.01</speed>
  <fix>3d</fix>
</trkpt>
<trkpt lat="-27.274439" lon="151.290064">
  <ele>343.1</ele>
  <time>2026-09-01T19:49:38Z</time>
  <course>270.0</course>
  <speed>0.0</speed>
  <fix>3d</fix>
</trkpt>
<trkpt lat="-27.274439" lon="151.290064">
  <ele>342.96</ele>
  <time>2026-09-01T19:49:38Z</time>
  <course>10.7</course>
  <speed>0.01</speed>
  <fix>3d</fix>
</trkpt>
<trkpt lat="-27.274439" lon="151.290064">
  <ele>343.1</ele>
  <time>2026-09-01T19:49:38Z</time>
  <course>270.0</course>
  <speed>0.0</speed>
  <fix>3d</fix>
</trkpt>
<trkpt lat="-27.274439" lon="151.290064">
  <ele>342.96</ele>
  <time>2026-09-01T19:49:38Z</time>
  <course>10.7</course>
  <speed>0.01</speed>
  <fix>3d</fix>
</trkpt>
<trkpt lat="-27.274439" lon="151.290064">
  <ele>343.1</ele>
  <time>2026-09-01T19:49:38Z</time>
  <course>270.0</course>
  <speed>0.0</speed>
  <fix>3d</fix>
</trkpt>
<trkpt lat="-27.274439" lon="151.290064">
  <ele>342.96</ele>
  <time>2026-09-01T19:49:38Z</time>
  <course>10.7</course>
  <speed>0.01</speed>
  <fix>3d</fix>
</trkpt>
<trkpt lat="-27.274439" lon="151.290064">
  <ele>343.1</ele>
  <time>2026-09-01T19:49:38Z</time>
  <course>270.0</course>
  <speed>0.0</speed>
  <fix>3d</fix>
</trkpt>
<trkpt lat="-27.274439" lon="151.290064">
  <ele>342.96</ele>
  <time>2026-09-01T19:49:38Z</time>
  <course>10.7</course>
  <speed>0.01</speed>
  <fix>3d</fix>
</trkpt>
<trkpt lat="-27.274439" lon="151.290064">
  <ele>343.1</ele>
  <time>2026-09-01T19:49:38Z</time>
  <course>270.0</course>
  <speed>0.0</speed>
  <fix>3d</fix>
</trkpt>
<trkpt lat="-27.274439" lon="151.290064">
  <ele>342.95</ele>
  <time>2026-09-01T19:49:38Z</time>
  <course>10.7</course>
  <speed>0.01</speed>
  <fix>3d</fix>
</trkpt>
<trkpt lat="-27.274439" lon="151.290064">
  <ele>343.1</ele>
  <time>2026-09-01T19:49:38Z</time>
  <course>270.0</course>
  <speed>0.0</speed>
  <fix>3d</fix>
</trkpt>
<trkpt lat="-27.274439" lon="151.290064">
  <ele>342.95</ele>
  <time>2026-09-01T19:49:38Z</time>
  <course>10.7</course>
  <speed>0.01</speed>
  <fix>3d</fix>
</trkpt>
<trkpt lat="-27.274439" lon="151.290064">
  <ele>343.1</ele>
  <time>2026-09-01T19:49:38Z</time>
  <course>270.0</course>
  <speed>0.0</speed>
  <fix>3d</fix>
</trkpt>
<trkpt lat="-27.274439" lon="151.290064">
  <ele>342.95</ele>
  <time>2026-09-01T19:49:38Z</time>
  <course>10.7</course>
  <speed>0.01</speed>
  <fix>3d</fix>
</trkpt>
<trkpt lat="-27.274439" lon="151.290064">
  <ele>343.1</ele>
  <time>2026-09-01T19:49:38Z</time>
  <course>270.0</course>
  <speed>0.0</speed>
  <fix>3d</fix>
</trkpt>
<trkpt lat="-27.274439" lon="151.290064">
  <ele>342.95</ele>
  <time>2026-09-01T19:49:38Z</time>
  <course>10.7</course>
  <speed>0.01</speed>
  <fix>3d</fix>
</trkpt>
<trkpt lat="-27.274439" lon="151.290064">
  <ele>343.1</ele>
  <time>2026-09-01T19:49:38Z</time>
  <course>270.0</course>
  <speed>0.0</speed>
  <fix>3d</fix>
</trkpt>
<trkpt lat="-27.274439" lon="151.290064">
  <ele>342.95</ele>
  <time>2026-09-01T19:49:38Z</time>
  <course>10.7</course>
  <speed>0.01</speed>
  <fix>3d</fix>
</trkpt>
<trkpt lat="-27.274439" lon="151.290064">
  <ele>343.1</ele>
  <time>2026-09-01T19:49:38Z</time>
  <course>270.0</course>
  <speed>0.0</speed>
  <fix>3d</fix>
</trkpt>
<trkpt lat="-27.274439" lon="151.290064">
  <ele>342.95</ele>
  <time>2026-09-01T19:49:38Z</time>
  <course>10.7</course>
  <speed>0.01</speed>
  <fix>3d</fix>
</trkpt>
<trkpt lat="-27.274439" lon="151.290064">
  <ele>343.1</ele>
  <time>2026-09-01T19:49:38Z</time>
  <course>270.0</course>
  <speed>0.0</speed>
  <fix>3d</fix>
</trkpt>
<trkpt lat="-27.2744391" lon="151.290064">
  <ele>342.95</ele>
  <time>2026-09-01T19:49:38Z</time>
  <course>10.7</course>
  <speed>0.01</speed>
  <fix>3d</fix>
</trkpt>
<trkpt lat="-27.274439" lon="151.290064">
  <ele>343.1</ele>
  <time>2026-09-01T19:49:38Z</time>
  <course>270.0</course>
  <speed>0.0</speed>
  <fix>3d</fix>
</trkpt>
<trkpt lat="-27.2744391" lon="151.290064">
  <ele>342.95</ele>
  <time>2026-09-01T19:49:38Z</time>
  <course>10.7</course>
  <speed>0.01</speed>
  <fix>3d</fix>
</trkpt>
<trkpt lat="-27.274439" lon="151.290064">
  <ele>343.1</ele>
  <time>2026-09-01T19:49:38Z</time>
  <course>270.0</course>
  <speed>0.0</speed>
  <fix>3d</fix>
</trkpt>
<trkpt lat="-27.2744391" lon="151.290064">
  <ele>342.95</ele>
  <time>2026-09-01T19:49:38Z</time>
  <course>10.7</course>
  <speed>0.01</speed>
  <fix>3d</fix>
</trkpt>
<trkpt lat="-27.274439" lon="151.290064">
  <ele>343.1</ele>
  <time>2026-09-01T19:49:38Z</time>
  <course>270.0</course>
  <speed>0.0</speed>
  <fix>3d</fix>
</trkpt>
<trkpt lat="-27.2744391" lon="151.290064">
  <ele>342.95</ele>
  <time>2026-09-01T19:49:38Z</time>
  <course>10.7</course>
  <speed>0.01</speed>
  <fix>3d</fix>
</trkpt>
<trkpt lat="-27.274439" lon="151.290064">
  <ele>343.1</ele>
  <time>2026-09-01T19:49:38Z</time>
  <course>270.0</course>
  <speed>0.0</speed>
  <fix>3d</fix>
</trkpt>
<trkpt lat="-27.2744391" lon="151.290064">
  <ele>342.95</ele>
  <time>2026-09-01T19:49:38Z</time>
  <course>10.7</course>
  <speed>0.01</speed>
  <fix>3d</fix>
</trkpt>
<trkpt lat="-27.274439" lon="151.290064">
  <ele>343.1</ele>
  <time>2026-09-01T19:49:38Z</time>
  <course>270.0</course>
  <speed>0.0</speed>
  <fix>3d</fix>
</trkpt>
<trkpt lat="-27.2744391" lon="151.290064">
  <ele>342.95</ele>
  <time>2026-09-01T19:49:38Z</time>
  <course>10.7</course>
  <speed>0.01</speed>
  <fix>3d</fix>
</trkpt>
<trkpt lat="-27.274439" lon="151.290064">
  <ele>343.1</ele>
  <time>2026-09-01T19:49:38Z</time>
  <course>270.0</course>
  <speed>0.0</speed>
  <fix>3d</fix>
</trkpt>
<trkpt lat="-27.2744391" lon="151.290064">
  <ele>342.95</ele>
  <time>2026-09-01T19:49:38Z</time>
  <course>10.7</course>
  <speed>0.01</speed>
  <fix>3d</fix>
</trkpt>
<trkpt lat="-27.274439" lon="151.290064">
  <ele>343.1</ele>
  <time>2026-09-01T19:49:38Z</time>
  <course>270.0</course>
  <speed>0.0</speed>
  <fix>3d</fix>
</trkpt>
<trkpt lat="-27.2744391" lon="151.290064">
  <ele>342.95</ele>
  <time>2026-09-01T19:49:38Z</time>
  <course>10.7</course>
  <speed>0.01</speed>
  <fix>3d</fix>
</trkpt>
<trkpt lat="-27.274439" lon="151.290064">
  <ele>343.1</ele>
  <time>2026-09-01T19:49:38Z</time>
  <course>270.0</course>
  <speed>0.0</speed>
  <fix>3d</fix>
</trkpt>
<trkpt lat="-27.2744391" lon="151.290064">
  <ele>342.95</ele>
  <time>2026-09-01T19:49:38Z</time>
  <course>10.7</course>
  <speed>0.01</speed>
  <fix>3d</fix>
</trkpt>
<trkpt lat="-27.274439" lon="151.290064">
  <ele>343.1</ele>
  <time>2026-09-01T19:49:38Z</time>
  <course>270.0</course>
  <speed>0.0</speed>
  <fix>3d</fix>
</trkpt>
<trkpt lat="-27.2744391" lon="151.290064">
  <ele>343.1</ele>
  <time>2026-09-01T19:49:38Z</time>
  <course>10.7</course>
  <speed>0.01</speed>
  <fix>3d</fix>
</trkpt>
<trkpt lat="-27.274439" lon="151.290064">
  <ele>343.1</ele>
  <time>2026-09-01T19:49:38Z</time>
  <course>270.0</course>
  <speed>0.0</speed>
  <fix>3d</fix>
</trkpt>
<trkpt lat="-27.2744391" lon="151.290064">
  <ele>343.09</ele>
  <time>2026-09-01T19:49:38Z</time>
  <course>10.7</course>
  <speed>0.01</speed>
  <fix>3d</fix>
</trkpt>
<trkpt lat="-27.274439" lon="151.290064">
  <ele>343.1</ele>
  <time>2026-09-01T19:49:38Z</time>
  <course>270.0</course>
  <speed>0.0</speed>
  <fix>3d</fix>
</trkpt>
<trkpt lat="-27.2744391" lon="151.290064">
  <ele>343.09</ele>
  <time>2026-09-01T19:49:38Z</time>
  <course>10.7</course>
  <speed>0.01</speed>
  <fix>3d</fix>
</trkpt>
<trkpt lat="-27.274439" lon="151.290064">
  <ele>343.1</ele>
  <time>2026-09-01T19:49:38Z</time>
  <course>270.0</course>
  <speed>0.0</speed>
  <fix>3d</fix>
</trkpt>
<trkpt lat="-27.2744391" lon="151.290064">
  <ele>343.09</ele>
  <time>2026-09-01T19:49:38Z</time>
  <course>10.71</course>
  <speed>0.01414213562373095</speed>
  <fix>3d</fix>
</trkpt>
<trkpt lat="-27.274439" lon="151.290064">
  <ele>343.1</ele>
  <time>2026-09-01T19:49:38Z</time>
  <course>270.0</course>
  <speed>0.0</speed>
  <fix>3d</fix>
</trkpt>
<trkpt lat="-27.2744391" lon="151.290064">
  <ele>343.09</ele>
  <time>2026-09-01T19:49:38Z</time>
  <course>10.71</course>
  <speed>0.01</speed>
  <fix>3d</fix>
</trkpt>
<trkpt lat="-27.274439" lon="151.290064">
  <ele>343.1</ele>
  <time>2026-09-01T19:49:38Z</time>
  <course>270.0</course>
  <speed>0.0</speed>
  <fix>3d</fix>
</trkpt>
<trkpt lat="-27.2744391" lon="151.290064">
  <ele>343.09</ele>
  <time>2026-09-01T19:49:38Z</time>
  <course>10.71</course>
  <speed>0.01414213562373095</speed>
  <fix>3d</fix>
</trkpt>
<trkpt lat="-27.274439" lon="151.290064">
  <ele>343.1</ele>
  <time>2026-09-01T19:49:38Z</time>
  <course>270.0</course>
  <speed>0.0</speed>
  <fix>3d</fix>
</trkpt>
<trkpt lat="-27.2744391" lon="151.290064">
  <ele>343.09</ele>
  <time>2026-09-01T19:49:38Z</time>
  <course>10.71</course>
  <speed>0.01414213562373095</speed>
  <fix>3d</fix>
</trkpt>
<trkpt lat="-27.274439" lon="151.290064">
  <ele>343.1</ele>
  <time>2026-09-01T19:49:38Z</time>
  <course>270.0</course>
  <speed>0.0</speed>
  <fix>3d</fix>
</trkpt>
<trkpt lat="-27.2744391" lon="151.290064">
  <ele>343.09</ele>
  <time>2026-09-01T19:49:38Z</time>
  <course>10.71</course>
  <speed>0.01414213562373095</speed>
  <fix>3d</fix>
</trkpt>
<trkpt lat="-27.274439" lon="151.290064">
  <ele>343.1</ele>
  <time>2026-09-01T19:49:38Z</time>
  <course>270.0</course>
  <speed>0.0</speed>
  <fix>3d</fix>
</trkpt>
<trkpt lat="-27.2744391" lon="151.290064">
  <ele>343.09</ele>
  <time>2026-09-01T19:49:38Z</time>
  <course>10.71</course>
  <speed>0.01414213562373095</speed>
  <fix>3d</fix>
</trkpt>
<trkpt lat="-27.274439" lon="151.290064">
  <ele>343.1</ele>
  <time>2026-09-01T19:49:38Z</time>
  <course>270.0</course>
  <speed>0.0</speed>
  <fix>3d</fix>
</trkpt>
<trkpt lat="-27.2744391" lon="151.290064">
  <ele>343.09</ele>
  <time>2026-09-01T19:49:38Z</time>
  <course>10.71</course>
  <speed>0.01414213562373095</speed>
  <fix>3d</fix>
</trkpt>
<trkpt lat="-27.274439" lon="151.290064">
  <ele>343.1</ele>
  <time>2026-09-01T19:49:38Z</time>
  <course>270.0</course>
  <speed>0.0</speed>
  <fix>3d</fix>
</trkpt>
<trkpt lat="-27.2744391" lon="151.290064">
  <ele>343.08</ele>
  <time>2026-09-01T19:49:38Z</time>
  <course>10.71</course>
  <speed>0.01414213562373095</speed>
  <fix>3d</fix>
</trkpt>
<trkpt lat="-27.274439" lon="151.290064">
  <ele>343.1</ele>
  <time>2026-09-01T19:49:38Z</time>
  <course>270.0</course>
  <speed>0.0</speed>
  <fix>3d</fix>
</trkpt>
<trkpt lat="-27.2744391" lon="151.290064">
  <ele>343.08</ele>
  <time>2026-09-01T19:49:38Z</time>
  <course>10.71</course>
  <speed>0.01414213562373095</speed>
  <fix>3d</fix>
</trkpt>
<trkpt lat="-27.274439" lon="151.290064">
  <ele>343.1</ele>
  <time>2026-09-01T19:49:38Z</time>
  <course>270.0</course>
  <speed>0.0</speed>
  <fix>3d</fix>
</trkpt>
<trkpt lat="-27.2744391" lon="151.290064">
  <ele>343.08</ele>
  <time>2026-09-01T19:49:38Z</time>
  <course>10.71</course>
  <speed>0.01414213562373095</speed>
  <fix>3d</fix>
</trkpt>
<trkpt lat="-27.274439" lon="151.290064">
  <ele>343.1</ele>
  <time>2026-09-01T19:49:38Z</time>
  <course>270.0</course>
  <speed>0.0</speed>
  <fix>3d</fix>
</trkpt>
<trkpt lat="-27.2744391" lon="151.290064">
  <ele>343.08</ele>
  <time>2026-09-01T19:49:38Z</time>
  <course>10.71</course>
  <speed>0.01414213562373095</speed>
  <fix>3d</fix>
</trkpt>
<trkpt lat="-27.274439" lon="151.290064">
  <ele>343.1</ele>
  <time>2026-09-01T19:49:38Z</time>
  <course>270.0</course>
  <speed>0.0</speed>
  <fix>3d</fix>
</trkpt>
<trkpt lat="-27.2744391" lon="151.290064">
  <ele>343.08</ele>
  <time>2026-09-01T19:49:38Z</time>
  <course>10.71</course>
  <speed>0.01414213562373095</speed>
  <fix>3d</fix>
</trkpt>
<trkpt lat="-27.274439" lon="151.290064">
  <ele>343.1</ele>
  <time>2026-09-01T19:49:38Z</time>
  <course>270.0</course>
  <speed>0.0</speed>
  <fix>3d</fix>
</trkpt>
<trkpt lat="-27.2744391" lon="151.290064">
  <ele>343.07</ele>
  <time>2026-09-01T19:49:38Z</time>
  <course>10.71</course>
  <speed>0.01414213562373095</speed>
  <fix>3d</fix>
</trkpt>
<trkpt lat="-27.274439" lon="151.290064">
  <ele>343.1</ele>
  <time>2026-09-01T19:49:38Z</time>
  <course>270.0</course>
  <speed>0.0</speed>
  <fix>3d</fix>
</trkpt>
<trkpt lat="-27.2744391" lon="151.290064">
  <ele>343.07</ele>
  <time>2026-09-01T19:49:38Z</time>
  <course>10.71</course>
  <speed>0.01414213562373095</speed>
  <fix>3d</fix>
</trkpt>
<trkpt lat="-27.274439" lon="151.290064">
  <ele>343.1</ele>
  <time>2026-09-01T19:49:38Z</time>
  <course>270.0</course>
  <speed>0.0</speed>
  <fix>3d</fix>
</trkpt>
<trkpt lat="-27.2744391" lon="151.290064">
  <ele>343.07</ele>
  <time>2026-09-01T19:49:38Z</time>
  <course>10.71</course>
  <speed>0.01414213562373095</speed>
  <fix>3d</fix>
</trkpt>
<trkpt lat="-27.274439" lon="151.290064">
  <ele>343.1</ele>
  <time>2026-09-01T19:49:38Z</time>
  <course>270.0</course>
  <speed>0.0</speed>
  <fix>3d</fix>
</trkpt>
<trkpt lat="-27.2744391" lon="151.290064">
  <ele>343.07</ele>
  <time>2026-09-01T19:49:38Z</time>
  <course>10.71</course>
  <speed>0.01414213562373095</speed>
  <fix>3d</fix>
</trkpt>
<trkpt lat="-27.274439" lon="151.290064">
  <ele>343.1</ele>
  <time>2026-09-01T19:49:38Z</time>
  <course>270.0</course>
  <speed>0.0</speed>
  <fix>3d</fix>
</trkpt>
<trkpt lat="-27.2744391" lon="151.290064">
  <ele>343.07</ele>
  <time>2026-09-01T19:49:38Z</time>
  <course>10.71</course>
  <speed>0.01414213562373095</speed>
  <fix>3d</fix>
</trkpt>
<trkpt lat="-27.274439" lon="151.290064">
  <ele>343.1</ele>
  <time>2026-09-01T19:49:38Z</time>
  <course>270.0</course>
  <speed>0.0</speed>
  <fix>3d</fix>
</trkpt>
<trkpt lat="-27.2744391" lon="151.290064">
  <ele>343.07</ele>
  <time>2026-09-01T19:49:38Z</time>
  <course>10.71</course>
  <speed>0.01414213562373095</speed>
  <fix>3d</fix>
</trkpt>
<trkpt lat="-27.274439" lon="151.290064">
  <ele>343.1</ele>
  <time>2026-09-01T19:49:38Z</time>
  <course>270.0</course>
  <speed>0.0</speed>
  <fix>3d</fix>
</trkpt>
<trkpt lat="-27.2744391" lon="151.290064">
  <ele>343.07</ele>
  <time>2026-09-01T19:49:38Z</time>
  <course>10.71</course>
  <speed>0.01414213562373095</speed>
  <fix>3d</fix>
</trkpt>
<trkpt lat="-27.274439" lon="151.290064">
  <ele>343.1</ele>
  <time>2026-09-01T19:49:38Z</time>
  <course>270.0</course>
  <speed>0.0</speed>
  <fix>3d</fix>
</trkpt>
<trkpt lat="-27.2744391" lon="151.290064">
  <ele>343.07</ele>
  <time>2026-09-01T19:49:38Z</time>
  <course>10.71</course>
  <speed>0.01414213562373095</speed>
  <fix>3d</fix>
</trkpt>
<trkpt lat="-27.274439" lon="151.290064">
  <ele>343.1</ele>
  <time>2026-09-01T19:49:38Z</time>
  <course>270.0</course>
  <speed>0.0</speed>
  <fix>3d</fix>
</trkpt>
<trkpt lat="-27.2744391" lon="151.290064">
  <ele>343.07</ele>
  <time>2026-09-01T19:49:38Z</time>
  <course>10.71</course>
  <speed>0.01414213562373095</speed>
  <fix>3d</fix>
</trkpt>
<trkpt lat="-27.274439" lon="151.290064">
  <ele>343.1</ele>
  <time>2026-09-01T19:49:38Z</time>
  <course>270.0</course>
  <speed>0.0</speed>
  <fix>3d</fix>
</trkpt>
<trkpt lat="-27.2744391" lon="151.290064">
  <ele>343.07</ele>
  <time>2026-09-01T19:49:38Z</time>
  <course>10.71</course>
  <speed>0.01414213562373095</speed>
  <fix>3d</fix>
</trkpt>
<trkpt lat="-27.274439" lon="151.290064">
  <ele>343.1</ele>
  <time>2026-09-01T19:49:38Z</time>
  <course>270.0</course>
  <speed>0.0</speed>
  <fix>3d</fix>
</trkpt>
<trkpt lat="-27.2744391" lon="151.290064">
  <ele>343.06</ele>
  <time>2026-09-01T19:49:38Z</time>
  <course>10.71</course>
  <speed>0.01414213562373095</speed>
  <fix>3d</fix>
</trkpt>
<trkpt lat="-27.274439" lon="151.290064">
  <ele>343.1</ele>
  <time>2026-09-01T19:49:38Z</time>
  <course>270.0</course>
  <speed>0.0</speed>
  <fix>3d</fix>
</trkpt>
<trkpt lat="-27.2744391" lon="151.290064">
  <ele>343.06</ele>
  <time>2026-09-01T19:49:38Z</time>
  <course>10.71</course>
  <speed>0.01414213562373095</speed>
  <fix>3d</fix>
</trkpt>
<trkpt lat="-27.274439" lon="151.290064">
  <ele>343.1</ele>
  <time>2026-09-01T19:49:38Z</time>
  <course>270.0</course>
  <speed>0.0</speed>
  <fix>3d</fix>
</trkpt>
<trkpt lat="-27.2744391" lon="151.290064">
  <ele>343.06</ele>
  <time>2026-09-01T19:49:38Z</time>
  <course>10.71</course>
  <speed>0.01414213562373095</speed>
  <fix>3d</fix>
</trkpt>
<trkpt lat="-27.274439" lon="151.290064">
  <ele>343.1</ele>
  <time>2026-09-01T19:49:38Z</time>
  <course>270.0</course>
  <speed>0.0</speed>
  <fix>3d</fix>
</trkpt>
<trkpt lat="-27.2744391" lon="151.290064">
  <ele>343.06</ele>
  <time>2026-09-01T19:49:38Z</time>
  <course>10.71</course>
  <speed>0.01414213562373095</speed>
  <fix>3d</fix>
</trkpt>
<trkpt lat="-27.274439" lon="151.290064">
  <ele>343.1</ele>
  <time>2026-09-01T19:49:38Z</time>
  <course>270.0</course>
  <speed>0.0</speed>
  <fix>3d</fix>
</trkpt>
<trkpt lat="-27.2744391" lon="151.290064">
  <ele>343.06</ele>
  <time>2026-09-01T19:49:38Z</time>
  <course>10.71</course>
  <speed>0.01414213562373095</speed>
  <fix>3d</fix>
</trkpt>
<trkpt lat="-27.274439" lon="151.290064">
  <ele>343.1</ele>
  <time>2026-09-01T19:49:38Z</time>
  <course>270.0</course>
  <speed>0.0</speed>
  <fix>3d</fix>
</trkpt>
<trkpt lat="-27.2744391" lon="151.290064">
  <ele>343.06</ele>
  <time>2026-09-01T19:49:38Z</time>
  <course>10.71</course>
  <speed>0.01414213562373095</speed>
  <fix>3d</fix>
</trkpt>
<trkpt lat="-27.274439" lon="151.290064">
  <ele>343.1</ele>
  <time>2026-09-01T19:49:38Z</time>
  <course>270.0</course>
  <speed>0.0</speed>
  <fix>3d</fix>
</trkpt>
<trkpt lat="-27.2744391" lon="151.290064">
  <ele>343.07</ele>
  <time>2026-09-01T19:49:38Z</time>
  <course>10.71</course>
  <speed>0.01414213562373095</speed>
  <fix>3d</fix>
</trkpt>
<trkpt lat="-27.274439" lon="151.290064">
  <ele>343.1</ele>
  <time>2026-09-01T19:49:38Z</time>
  <course>270.0</course>
  <speed>0.0</speed>
  <fix>3d</fix>
</trkpt>
<trkpt lat="-27.2744391" lon="151.290064">
  <ele>343.07</ele>
  <time>2026-09-01T19:49:38Z</time>
  <course>10.71</course>
  <speed>0.01414213562373095</speed>
  <fix>3d</fix>
</trkpt>
<trkpt lat="-27.274439" lon="151.290064">
  <ele>343.1</ele>
  <time>2026-09-01T19:49:38Z</time>
  <course>270.0</course>
  <speed>0.0</speed>
  <fix>3d</fix>
</trkpt>
<trkpt lat="-27.2744391" lon="151.2900641">
  <ele>343.07</ele>
  <time>2026-09-01T19:49:38Z</time>
  <course>10.71</course>
  <speed>0.01414213562373095</speed>
  <fix>3d</fix>
</trkpt>
<trkpt lat="-27.274439" lon="151.290064">
  <ele>343.1</ele>
  <time>2026-09-01T19:49:38Z</time>
  <course>270.0</course>
  <speed>0.0</speed>
  <fix>3d</fix>
</trkpt>
<trkpt lat="-27.2744391" lon="151.290064">
  <ele>343.07</ele>
  <time>2026-09-01T19:49:38Z</time>
  <course>10.71</course>
  <speed>0.01414213562373095</speed>
  <fix>3d</fix>
</trkpt>
<trkpt lat="-27.274439" lon="151.290064">
  <ele>343.1</ele>
  <time>2026-09-01T19:49:38Z</time>
  <course>270.0</course>
  <speed>0.0</speed>
  <fix>3d</fix>
</trkpt>
<trkpt lat="-27.2744391" lon="151.2900641">
  <ele>343.07</ele>
  <time>2026-09-01T19:49:38Z</time>
  <course>10.71</course>
  <speed>0.01414213562373095</speed>
  <fix>3d</fix>
</trkpt>
<trkpt lat="-27.274439" lon="151.290064">
  <ele>343.1</ele>
  <time>2026-09-01T19:49:38Z</time>
  <course>270.0</course>
  <speed>0.0</speed>
  <fix>3d</fix>
</trkpt>
<trkpt lat="-27.2744391" lon="151.290064">
  <ele>343.06</ele>
  <time>2026-09-01T19:49:38Z</time>
  <course>10.71</course>
  <speed>0.01414213562373095</speed>
  <fix>3d</fix>
</trkpt>
<trkpt lat="-27.274439" lon="151.290064">
  <ele>343.1</ele>
  <time>2026-09-01T19:49:38Z</time>
  <course>270.0</course>
  <speed>0.0</speed>
  <fix>3d</fix>
</trkpt>
<trkpt lat="-27.2744391" lon="151.2900641">
  <ele>343.06</ele>
  <time>2026-09-01T19:49:38Z</time>
  <course>10.71</course>
  <speed>0.01414213562373095</speed>
  <fix>3d</fix>
</trkpt>
<trkpt lat="-27.274439" lon="151.290064">
  <ele>343.1</ele>
  <time>2026-09-01T19:49:38Z</time>
  <course>270.0</course>
  <speed>0.0</speed>
  <fix>3d</fix>
</trkpt>
<trkpt lat="-27.2744391" lon="151.290064">
  <ele>343.06</ele>
  <time>2026-09-01T19:49:38Z</time>
  <course>10.71</course>
  <speed>0.01414213562373095</speed>
  <fix>3d</fix>
</trkpt>
<trkpt lat="-27.274439" lon="151.290064">
  <ele>343.1</ele>
  <time>2026-09-01T19:49:38Z</time>
  <course>270.0</course>
  <speed>0.0</speed>
  <fix>3d</fix>
</trkpt>
<trkpt lat="-27.2744391" lon="151.2900641">
  <ele>343.06</ele>
  <time>2026-09-01T19:49:38Z</time>
  <course>10.71</course>
  <speed>0.01414213562373095</speed>
  <fix>3d</fix>
</trkpt>
<trkpt lat="-27.274439" lon="151.290064">
  <ele>343.1</ele>
  <time>2026-09-01T19:49:38Z</time>
  <course>270.0</course>
  <speed>0.0</speed>
  <fix>3d</fix>
</trkpt>
<trkpt lat="-27.2744391" lon="151.2900641">
  <ele>343.05</ele>
  <time>2026-09-01T19:49:38Z</time>
  <course>10.71</course>
  <speed>0.01414213562373095</speed>
  <fix>3d</fix>
</trkpt>
<trkpt lat="-27.274439" lon="151.290064">
  <ele>343.1</ele>
  <time>2026-09-01T19:49:38Z</time>
  <course>270.0</course>
  <speed>0.0</speed>
  <fix>3d</fix>
</trkpt>
<trkpt lat="-27.2744391" lon="151.2900641">
  <ele>343.05</ele>
  <time>2026-09-01T19:49:38Z</time>
  <course>10.71</course>
  <speed>0.01414213562373095</speed>
  <fix>3d</fix>
</trkpt>
<trkpt lat="-27.274439" lon="151.290064">
  <ele>343.1</ele>
  <time>2026-09-01T19:49:38Z</time>
  <course>270.0</course>
  <speed>0.0</speed>
  <fix>3d</fix>
</trkpt>
<trkpt lat="-27.2744391" lon="151.2900641">
  <ele>343.05</ele>
  <time>2026-09-01T19:49:38Z</time>
  <course>10.71</course>
  <speed>0.01414213562373095</speed>
  <fix>3d</fix>
</trkpt>
<trkpt lat="-27.274439" lon="151.290064">
  <ele>343.1</ele>
  <time>2026-09-01T19:49:38Z</time>
  <course>270.0</course>
  <speed>0.0</speed>
  <fix>3d</fix>
</trkpt>
<trkpt lat="-27.2744391" lon="151.2900641">
  <ele>343.04</ele>
  <time>2026-09-01T19:49:38Z</time>
  <course>10.71</course>
  <speed>0.01414213562373095</speed>
  <fix>3d</fix>
</trkpt>
<trkpt lat="-27.274439" lon="151.290064">
  <ele>343.1</ele>
  <time>2026-09-01T19:49:38Z</time>
  <course>270.0</course>
  <speed>0.0</speed>
  <fix>3d</fix>
</trkpt>
<trkpt lat="-27.2744391" lon="151.2900641">
  <ele>343.04</ele>
  <time>2026-09-01T19:49:38Z</time>
  <course>10.71</course>
  <speed>0.01414213562373095</speed>
  <fix>3d</fix>
</trkpt>
<trkpt lat="-27.274439" lon="151.290064">
  <ele>343.1</ele>
  <time>2026-09-01T19:49:38Z</time>
  <course>270.0</course>
  <speed>0.0</speed>
  <fix>3d</fix>
</trkpt>
<trkpt lat="-27.2744391" lon="151.2900641">
  <ele>343.04</ele>
  <time>2026-09-01T19:49:38Z</time>
  <course>10.71</course>
  <speed>0.01414213562373095</speed>
  <fix>3d</fix>
</trkpt>
<trkpt lat="-27.274439" lon="151.290064">
  <ele>343.1</ele>
  <time>2026-09-01T19:49:38Z</time>
  <course>270.0</course>
  <speed>0.0</speed>
  <fix>3d</fix>
</trkpt>
<trkpt lat="-27.2744391" lon="151.2900641">
  <ele>343.04</ele>
  <time>2026-09-01T19:49:38Z</time>
  <course>10.71</course>
  <speed>0.01414213562373095</speed>
  <fix>3d</fix>
</trkpt>
<trkpt lat="-27.274439" lon="151.290064">
  <ele>343.1</ele>
  <time>2026-09-01T19:49:38Z</time>
  <course>270.0</course>
  <speed>0.0</speed>
  <fix>3d</fix>
</trkpt>
<trkpt lat="-27.2744391" lon="151.2900641">
  <ele>343.04</ele>
  <time>2026-09-01T19:49:38Z</time>
  <course>10.71</course>
  <speed>0.01414213562373095</speed>
  <fix>3d</fix>
</trkpt>
<trkpt lat="-27.274439" lon="151.290064">
  <ele>343.1</ele>
  <time>2026-09-01T19:49:38Z</time>
  <course>270.0</course>
  <speed>0.0</speed>
  <fix>3d</fix>
</trkpt>
<trkpt lat="-27.2744391" lon="151.2900641">
  <ele>343.04</ele>
  <time>2026-09-01T19:49:38Z</time>
  <course>10.71</course>
  <speed>0.01414213562373095</speed>
  <fix>3d</fix>
</trkpt>
<trkpt lat="-27.274439" lon="151.290064">
  <ele>343.1</ele>
  <time>2026-09-01T19:49:38Z</time>
  <course>270.0</course>
  <speed>0.0</speed>
  <fix>3d</fix>
</trkpt>
<trkpt lat="-27.2744391" lon="151.2900641">
  <ele>343.04</ele>
  <time>2026-09-01T19:49:38Z</time>
  <course>10.71</course>
  <speed>0.01414213562373095</speed>
  <fix>3d</fix>
</trkpt>
<trkpt lat="-27.274439" lon="151.290064">
  <ele>343.1</ele>
  <time>2026-09-01T19:49:38Z</time>
  <course>270.0</course>
  <speed>0.0</speed>
  <fix>3d</fix>
</trkpt>
<trkpt lat="-27.2744391" lon="151.2900641">
  <ele>343.04</ele>
  <time>2026-09-01T19:49:38Z</time>
  <course>10.71</course>
  <speed>0.01414213562373095</speed>
  <fix>3d</fix>
</trkpt>
<trkpt lat="-27.274439" lon="151.290064">
  <ele>343.1</ele>
  <time>2026-09-01T19:49:38Z</time>
  <course>270.0</course>
  <speed>0.0</speed>
  <fix>3d</fix>
</trkpt>
<trkpt lat="-27.2744391" lon="151.2900641">
  <ele>343.04</ele>
  <time>2026-09-01T19:49:38Z</time>
  <course>10.71</course>
  <speed>0.01414213562373095</speed>
  <fix>3d</fix>
</trkpt>
<trkpt lat="-27.274439" lon="151.290064">
  <ele>343.1</ele>
  <time>2026-09-01T19:49:38Z</time>
  <course>270.0</course>
  <speed>0.0</speed>
  <fix>3d</fix>
</trkpt>
<trkpt lat="-27.2744391" lon="151.2900641">
  <ele>343.04</ele>
  <time>2026-09-01T19:49:38Z</time>
  <course>10.71</course>
  <speed>0.01414213562373095</speed>
  <fix>3d</fix>
</trkpt>
<trkpt lat="-27.274439" lon="151.290064">
  <ele>343.1</ele>
  <time>2026-09-01T19:49:38Z</time>
  <course>270.0</course>
  <speed>0.0</speed>
  <fix>3d</fix>
</trkpt>
<trkpt lat="-27.2744391" lon="151.2900641">
  <ele>343.03</ele>
  <time>2026-09-01T19:49:38Z</time>
  <course>10.71</course>
  <speed>0.01414213562373095</speed>
  <fix>3d</fix>
</trkpt>
<trkpt lat="-27.274439" lon="151.290064">
  <ele>343.1</ele>
  <time>2026-09-01T19:49:38Z</time>
  <course>270.0</course>
  <speed>0.0</speed>
  <fix>3d</fix>
</trkpt>
<trkpt lat="-27.2744391" lon="151.2900641">
  <ele>343.03</ele>
  <time>2026-09-01T19:49:38Z</time>
  <course>10.71</course>
  <speed>0.01414213562373095</speed>
  <fix>3d</fix>
</trkpt>
<trkpt lat="-27.274439" lon="151.290064">
  <ele>343.1</ele>
  <time>2026-09-01T19:49:38Z</time>
  <course>270.0</course>
  <speed>0.0</speed>
  <fix>3d</fix>
</trkpt>
<trkpt lat="-27.2744391" lon="151.2900641">
  <ele>343.03</ele>
  <time>2026-09-01T19:49:38Z</time>
  <course>10.72</course>
  <speed>0.01414213562373095</speed>
  <fix>3d</fix>
</trkpt>
<trkpt lat="-27.274439" lon="151.290064">
  <ele>343.1</ele>
  <time>2026-09-01T19:49:38Z</time>
  <course>270.0</course>
  <speed>0.0</speed>
  <fix>3d</fix>
</trkpt>
<trkpt lat="-27.2744391" lon="151.2900641">
  <ele>343.03</ele>
  <time>2026-09-01T19:49:38Z</time>
  <course>10.72</course>
  <speed>0.01414213562373095</speed>
  <fix>3d</fix>
</trkpt>
<trkpt lat="-27.274439" lon="151.290064">
  <ele>343.1</ele>
  <time>2026-09-01T19:49:38Z</time>
  <course>270.0</course>
  <speed>0.0</speed>
  <fix>3d</fix>
</trkpt>
<trkpt lat="-27.2744391" lon="151.2900641">
  <ele>343.03</ele>
  <time>2026-09-01T19:49:38Z</time>
  <course>10.72</course>
  <speed>0.01414213562373095</speed>
  <fix>3d</fix>
</trkpt>
<trkpt lat="-27.274439" lon="151.290064">
  <ele>343.1</ele>
  <time>2026-09-01T19:49:38Z</time>
  <course>270.0</course>
  <speed>0.0</speed>
  <fix>3d</fix>
</trkpt>
<trkpt lat="-27.2744391" lon="151.2900641">
  <ele>343.03</ele>
  <time>2026-09-01T19:49:38Z</time>
  <course>10.72</course>
  <speed>0.01414213562373095</speed>
  <fix>3d</fix>
</trkpt>
<trkpt lat="-27.274439" lon="151.290064">
  <ele>343.1</ele>
  <time>2026-09-01T19:49:38Z</time>
  <course>270.0</course>
  <speed>0.0</speed>
  <fix>3d</fix>
</trkpt>
<trkpt lat="-27.2744391" lon="151.2900641">
  <ele>343.03</ele>
  <time>2026-09-01T19:49:38Z</time>
  <course>10.72</course>
  <speed>0.01414213562373095</speed>
  <fix>3d</fix>
</trkpt>
<trkpt lat="-27.274439" lon="151.290064">
  <ele>343.1</ele>
  <time>2026-09-01T19:49:38Z</time>
  <course>270.0</course>
  <speed>0.0</speed>
  <fix>3d</fix>
</trkpt>
<trkpt lat="-27.2744391" lon="151.2900641">
  <ele>343.1</ele>
  <time>2026-09-01T19:49:38Z</time>
  <course>10.72</course>
  <speed>0.01414213562373095</speed>
  <fix>3d</fix>
</trkpt>
<trkpt lat="-27.274439" lon="151.290064">
  <ele>343.1</ele>
  <time>2026-09-01T19:49:38Z</time>
  <course>270.0</course>
  <speed>0.0</speed>
  <fix>3d</fix>
</trkpt>
<trkpt lat="-27.2744391" lon="151.2900641">
  <ele>343.09</ele>
  <time>2026-09-01T19:49:38Z</time>
  <course>10.72</course>
  <speed>0.01414213562373095</speed>
  <fix>3d</fix>
</trkpt>
<trkpt lat="-27.274439" lon="151.290064">
  <ele>343.1</ele>
  <time>2026-09-01T19:49:38Z</time>
  <course>270.0</course>
  <speed>0.0</speed>
  <fix>3d</fix>
</trkpt>
<trkpt lat="-27.2744391" lon="151.2900641">
  <ele>343.09</ele>
  <time>2026-09-01T19:49:38Z</time>
  <course>10.72</course>
  <speed>0.01414213562373095</speed>
  <fix>3d</fix>
</trkpt>
<trkpt lat="-27.274439" lon="151.290064">
  <ele>343.1</ele>
  <time>2026-09-01T19:49:38Z</time>
  <course>270.0</course>
  <speed>0.0</speed>
  <fix>3d</fix>
</trkpt>
<trkpt lat="-27.2744391" lon="151.2900641">
  <ele>343.09</ele>
  <time>2026-09-01T19:49:38Z</time>
  <course>10.72</course>
  <speed>0.01414213562373095</speed>
  <fix>3d</fix>
</trkpt>
<trkpt lat="-27.274439" lon="151.290064">
  <ele>343.1</ele>
  <time>2026-09-01T19:49:38Z</time>
  <course>270.0</course>
  <speed>0.0</speed>
  <fix>3d</fix>
</trkpt>
<trkpt lat="-27.2744391" lon="151.2900641">
  <ele>343.09</ele>
  <time>2026-09-01T19:49:38Z</time>
  <course>10.72</course>
  <speed>0.01414213562373095</speed>
  <fix>3d</fix>
</trkpt>
<trkpt lat="-27.274439" lon="151.290064">
  <ele>343.1</ele>
  <time>2026-09-01T19:49:38Z</time>
  <course>270.0</course>
  <speed>0.0</speed>
  <fix>3d</fix>
</trkpt>
<trkpt lat="-27.2744391" lon="151.2900641">
  <ele>343.09</ele>
  <time>2026-09-01T19:49:38Z</time>
  <course>10.72</course>
  <speed>0.01414213562373095</speed>
  <fix>3d</fix>
</trkpt>
<trkpt lat="-27.274439" lon="151.290064">
  <ele>343.1</ele>
  <time>2026-09-01T19:49:38Z</time>
  <course>270.0</course>
  <speed>0.0</speed>
  <fix>3d</fix>
</trkpt>
<trkpt lat="-27.2744391" lon="151.2900641">
  <ele>343.08</ele>
  <time>2026-09-01T19:49:38Z</time>
  <course>10.72</course>
  <speed>0.01414213562373095</speed>
  <fix>3d</fix>
</trkpt>
<trkpt lat="-27.274439" lon="151.290064">
  <ele>343.1</ele>
  <time>2026-09-01T19:49:38Z</time>
  <course>270.0</course>
  <speed>0.0</speed>
  <fix>3d</fix>
</trkpt>
<trkpt lat="-27.2744391" lon="151.2900641">
  <ele>343.08</ele>
  <time>2026-09-01T19:49:38Z</time>
  <course>10.72</course>
  <speed>0.01414213562373095</speed>
  <fix>3d</fix>
</trkpt>
<trkpt lat="-27.274439" lon="151.290064">
  <ele>343.1</ele>
  <time>2026-09-01T19:49:38Z</time>
  <course>270.0</course>
  <speed>0.0</speed>
  <fix>3d</fix>
</trkpt>
<trkpt lat="-27.2744391" lon="151.2900641">
  <ele>343.07</ele>
  <time>2026-09-01T19:49:38Z</time>
  <course>10.72</course>
  <speed>0.01414213562373095</speed>
  <fix>3d</fix>
</trkpt>
<trkpt lat="-27.274439" lon="151.290064">
  <ele>343.1</ele>
  <time>2026-09-01T19:49:38Z</time>
  <course>270.0</course>
  <speed>0.0</speed>
  <fix>3d</fix>
</trkpt>
<trkpt lat="-27.2744391" lon="151.2900641">
  <ele>343.07</ele>
  <time>2026-09-01T19:49:38Z</time>
  <course>10.72</course>
  <speed>0.01414213562373095</speed>
  <fix>3d</fix>
</trkpt>
<trkpt lat="-27.274439" lon="151.290064">
  <ele>343.1</ele>
  <time>2026-09-01T19:49:38Z</time>
  <course>270.0</course>
  <speed>0.0</speed>
  <fix>3d</fix>
</trkpt>
<trkpt lat="-27.2744391" lon="151.2900641">
  <ele>343.07</ele>
  <time>2026-09-01T19:49:38Z</time>
  <course>10.72</course>
  <speed>0.01414213562373095</speed>
  <fix>3d</fix>
</trkpt>
<trkpt lat="-27.274439" lon="151.290064">
  <ele>343.1</ele>
  <time>2026-09-01T19:49:38Z</time>
  <course>270.0</course>
  <speed>0.0</speed>
  <fix>3d</fix>
</trkpt>
<trkpt lat="-27.2744391" lon="151.2900641">
  <ele>343.06</ele>
  <time>2026-09-01T19:49:38Z</time>
  <course>10.72</course>
  <speed>0.01414213562373095</speed>
  <fix>3d</fix>
</trkpt>
<trkpt lat="-27.274439" lon="151.290064">
  <ele>343.1</ele>
  <time>2026-09-01T19:49:38Z</time>
  <course>270.0</course>
  <speed>0.0</speed>
  <fix>3d</fix>
</trkpt>
<trkpt lat="-27.2744391" lon="151.2900641">
  <ele>343.06</ele>
  <time>2026-09-01T19:49:38Z</time>
  <course>10.72</course>
  <speed>0.01414213562373095</speed>
  <fix>3d</fix>
</trkpt>
<trkpt lat="-27.274439" lon="151.290064">
  <ele>343.1</ele>
  <time>2026-09-01T19:49:38Z</time>
  <course>270.0</course>
  <speed>0.0</speed>
  <fix>3d</fix>
</trkpt>
<trkpt lat="-27.2744391" lon="151.2900641">
  <ele>343.05</ele>
  <time>2026-09-01T19:49:38Z</time>
  <course>10.72</course>
  <speed>0.01414213562373095</speed>
  <fix>3d</fix>
</trkpt>
<trkpt lat="-27.274439" lon="151.290064">
  <ele>343.1</ele>
  <time>2026-09-01T19:49:38Z</time>
  <course>270.0</course>
  <speed>0.0</speed>
  <fix>3d</fix>
</trkpt>
<trkpt lat="-27.2744391" lon="151.2900641">
  <ele>343.05</ele>
  <time>2026-09-01T19:49:38Z</time>
  <course>10.72</course>
  <speed>0.01414213562373095</speed>
  <fix>3d</fix>
</trkpt>
<trkpt lat="-27.274439" lon="151.290064">
  <ele>343.1</ele>
  <time>2026-09-01T19:49:38Z</time>
  <course>270.0</course>
  <speed>0.0</speed>
  <fix>3d</fix>
</trkpt>
<trkpt lat="-27.2744391" lon="151.2900641">
  <ele>343.05</ele>
  <time>2026-09-01T19:49:38Z</time>
  <course>10.72</course>
  <speed>0.01414213562373095</speed>
  <fix>3d</fix>
</trkpt>
<trkpt lat="-27.274439" lon="151.290064">
  <ele>343.1</ele>
  <time>2026-09-01T19:49:38Z</time>
  <course>270.0</course>
  <speed>0.0</speed>
  <fix>3d</fix>
</trkpt>
<trkpt lat="-27.2744391" lon="151.2900641">
  <ele>343.04</ele>
  <time>2026-09-01T19:49:38Z</time>
  <course>10.72</course>
  <speed>0.01414213562373095</speed>
  <fix>3d</fix>
</trkpt>
<trkpt lat="-27.274439" lon="151.290064">
  <ele>343.1</ele>
  <time>2026-09-01T19:49:38Z</time>
  <course>270.0</course>
  <speed>0.0</speed>
  <fix>3d</fix>
</trkpt>
<trkpt lat="-27.2744391" lon="151.2900641">
  <ele>343.04</ele>
  <time>2026-09-01T19:49:38Z</time>
  <course>10.72</course>
  <speed>0.01414213562373095</speed>
  <fix>3d</fix>
</trkpt>
<trkpt lat="-27.274439" lon="151.290064">
  <ele>343.1</ele>
  <time>2026-09-01T19:49:38Z</time>
  <course>270.0</course>
  <speed>0.0</speed>
  <fix>3d</fix>
</trkpt>
<trkpt lat="-27.2744391" lon="151.2900641">
  <ele>343.03</ele>
  <time>2026-09-01T19:49:38Z</time>
  <course>10.72</course>
  <speed>0.01414213562373095</speed>
  <fix>3d</fix>
</trkpt>
<trkpt lat="-27.274439" lon="151.290064">
  <ele>343.1</ele>
  <time>2026-09-01T19:49:38Z</time>
  <course>270.0</course>
  <speed>0.0</speed>
  <fix>3d</fix>
</trkpt>
<trkpt lat="-27.2744391" lon="151.2900641">
  <ele>343.03</ele>
  <time>2026-09-01T19:49:38Z</time>
  <course>10.72</course>
  <speed>0.01414213562373095</speed>
  <fix>3d</fix>
</trkpt>
<trkpt lat="-27.274439" lon="151.290064">
  <ele>343.1</ele>
  <time>2026-09-01T19:49:38Z</time>
  <course>270.0</course>
  <speed>0.0</speed>
  <fix>3d</fix>
</trkpt>
<trkpt lat="-27.2744391" lon="151.2900641">
  <ele>343.02</ele>
  <time>2026-09-01T19:49:38Z</time>
  <course>10.72</course>
  <speed>0.01414213562373095</speed>
  <fix>3d</fix>
</trkpt>
<trkpt lat="-27.274439" lon="151.290064">
  <ele>343.1</ele>
  <time>2026-09-01T19:49:38Z</time>
  <course>270.0</course>
  <speed>0.0</speed>
  <fix>3d</fix>
</trkpt>
<trkpt lat="-27.2744391" lon="151.2900641">
  <ele>343.02</ele>
  <time>2026-09-01T19:49:38Z</time>
  <course>10.72</course>
  <speed>0.01414213562373095</speed>
  <fix>3d</fix>
</trkpt>
<trkpt lat="-27.274439" lon="151.290064">
  <ele>343.1</ele>
  <time>2026-09-01T19:49:38Z</time>
  <course>270.0</course>
  <speed>0.0</speed>
  <fix>3d</fix>
</trkpt>
<trkpt lat="-27.2744391" lon="151.2900641">
  <ele>343.02</ele>
  <time>2026-09-01T19:49:38Z</time>
  <course>10.72</course>
  <speed>0.01414213562373095</speed>
  <fix>3d</fix>
</trkpt>
<trkpt lat="-27.274439" lon="151.290064">
  <ele>343.1</ele>
  <time>2026-09-01T19:49:38Z</time>
  <course>270.0</course>
  <speed>0.0</speed>
  <fix>3d</fix>
</trkpt>
<trkpt lat="-27.2744391" lon="151.2900641">
  <ele>343.02</ele>
  <time>2026-09-01T19:49:38Z</time>
  <course>10.72</course>
  <speed>0.01414213562373095</speed>
  <fix>3d</fix>
</trkpt>
<trkpt lat="-27.274439" lon="151.290064">
  <ele>343.1</ele>
  <time>2026-09-01T19:49:38Z</time>
  <course>270.0</course>
  <speed>0.0</speed>
  <fix>3d</fix>
</trkpt>
<trkpt lat="-27.2744391" lon="151.2900641">
  <ele>343.02</ele>
  <time>2026-09-01T19:49:38Z</time>
  <course>10.72</course>
  <speed>0.01414213562373095</speed>
  <fix>3d</fix>
</trkpt>
<trkpt lat="-27.274439" lon="151.290064">
  <ele>343.1</ele>
  <time>2026-09-01T19:49:38Z</time>
  <course>270.0</course>
  <speed>0.0</speed>
  <fix>3d</fix>
</trkpt>
<trkpt lat="-27.2744391" lon="151.2900641">
  <ele>343.02</ele>
  <time>2026-09-01T19:49:38Z</time>
  <course>10.72</course>
  <speed>0.01414213562373095</speed>
  <fix>3d</fix>
</trkpt>
<trkpt lat="-27.274439" lon="151.290064">
  <ele>343.1</ele>
  <time>2026-09-01T19:49:38Z</time>
  <course>270.0</course>
  <speed>0.0</speed>
  <fix>3d</fix>
</trkpt>
<trkpt lat="-27.2744391" lon="151.2900641">
  <ele>343.01</ele>
  <time>2026-09-01T19:49:38Z</time>
  <course>10.72</course>
  <speed>0.01414213562373095</speed>
  <fix>3d</fix>
</trkpt>
<trkpt lat="-27.274439" lon="151.290064">
  <ele>343.1</ele>
  <time>2026-09-01T19:49:38Z</time>
  <course>270.0</course>
  <speed>0.0</speed>
  <fix>3d</fix>
</trkpt>
<trkpt lat="-27.2744391" lon="151.2900641">
  <ele>343.01</ele>
  <time>2026-09-01T19:49:38Z</time>
  <course>10.72</course>
  <speed>0.01414213562373095</speed>
  <fix>3d</fix>
</trkpt>
<trkpt lat="-27.274439" lon="151.290064">
  <ele>343.1</ele>
  <time>2026-09-01T19:49:38Z</time>
  <course>270.0</course>
  <speed>0.0</speed>
  <fix>3d</fix>
</trkpt>
<trkpt lat="-27.2744391" lon="151.2900641">
  <ele>343.0</ele>
  <time>2026-09-01T19:49:38Z</time>
  <course>10.72</course>
  <speed>0.01414213562373095</speed>
  <fix>3d</fix>
</trkpt>
<trkpt lat="-27.274439" lon="151.290064">
  <ele>343.1</ele>
  <time>2026-09-01T19:49:38Z</time>
  <course>270.0</course>
  <speed>0.0</speed>
  <fix>3d</fix>
</trkpt>
<trkpt lat="-27.2744391" lon="151.2900641">
  <ele>343.0</ele>
  <time>2026-09-01T19:49:38Z</time>
  <course>10.73</course>
  <speed>0.01414213562373095</speed>
  <fix>3d</fix>
</trkpt>
<trkpt lat="-27.274439" lon="151.290064">
  <ele>343.1</ele>
  <time>2026-09-01T19:49:38Z</time>
  <course>270.0</course>
  <speed>0.0</speed>
  <fix>3d</fix>
</trkpt>
<trkpt lat="-27.2744391" lon="151.2900641">
  <ele>343.0</ele>
  <time>2026-09-01T19:49:38Z</time>
  <course>10.73</course>
  <speed>0.01414213562373095</speed>
  <fix>3d</fix>
</trkpt>
<trkpt lat="-27.274439" lon="151.290064">
  <ele>343.1</ele>
  <time>2026-09-01T19:49:38Z</time>
  <course>270.0</course>
  <speed>0.0</speed>
  <fix>3d</fix>
</trkpt>
<trkpt lat="-27.2744391" lon="151.2900641">
  <ele>342.99</ele>
  <time>2026-09-01T19:49:38Z</time>
  <course>10.73</course>
  <speed>0.01414213562373095</speed>
  <fix>3d</fix>
</trkpt>
<trkpt lat="-27.274439" lon="151.290064">
  <ele>343.1</ele>
  <time>2026-09-01T19:49:38Z</time>
  <course>270.0</course>
  <speed>0.0</speed>
  <fix>3d</fix>
</trkpt>
<trkpt lat="-27.2744391" lon="151.2900641">
  <ele>342.99</ele>
  <time>2026-09-01T19:49:38Z</time>
  <course>10.73</course>
  <speed>0.01414213562373095</speed>
  <fix>3d</fix>
</trkpt>
<trkpt lat="-27.274439" lon="151.290064">
  <ele>343.1</ele>
  <time>2026-09-01T19:49:38Z</time>
  <course>270.0</course>
  <speed>0.0</speed>
  <fix>3d</fix>
</trkpt>
<trkpt lat="-27.2744391" lon="151.2900641">
  <ele>342.99</ele>
  <time>2026-09-01T19:49:38Z</time>
  <course>10.73</course>
  <speed>0.01414213562373095</speed>
  <fix>3d</fix>
</trkpt>
<trkpt lat="-27.274439" lon="151.290064">
  <ele>343.1</ele>
  <time>2026-09-01T19:49:38Z</time>
  <course>270.0</course>
  <speed>0.0</speed>
  <fix>3d</fix>
</trkpt>
<trkpt lat="-27.2744391" lon="151.2900641">
  <ele>342.99</ele>
  <time>2026-09-01T19:49:38Z</time>
  <course>10.73</course>
  <speed>0.01414213562373095</speed>
  <fix>3d</fix>
</trkpt>
<trkpt lat="-27.274439" lon="151.290064">
  <ele>343.1</ele>
  <time>2026-09-01T19:49:38Z</time>
  <course>270.0</course>
  <speed>0.0</speed>
  <fix>3d</fix>
</trkpt>
<trkpt lat="-27.2744391" lon="151.2900641">
  <ele>342.99</ele>
  <time>2026-09-01T19:49:38Z</time>
  <course>10.73</course>
  <speed>0.01414213562373095</speed>
  <fix>3d</fix>
</trkpt>
<trkpt lat="-27.274439" lon="151.290064">
  <ele>343.1</ele>
  <time>2026-09-01T19:49:38Z</time>
  <course>270.0</course>
  <speed>0.0</speed>
  <fix>3d</fix>
</trkpt>
<trkpt lat="-27.2744391" lon="151.2900641">
  <ele>342.98</ele>
  <time>2026-09-01T19:49:38Z</time>
  <course>10.73</course>
  <speed>0.01414213562373095</speed>
  <fix>3d</fix>
</trkpt>
<trkpt lat="-27.274439" lon="151.290064">
  <ele>343.1</ele>
  <time>2026-09-01T19:49:38Z</time>
  <course>270.0</course>
  <speed>0.0</speed>
  <fix>3d</fix>
</trkpt>
<trkpt lat="-27.2744391" lon="151.2900641">
  <ele>342.98</ele>
  <time>2026-09-01T19:49:38Z</time>
  <course>10.73</course>
  <speed>0.01414213562373095</speed>
  <fix>3d</fix>
</trkpt>
<trkpt lat="-27.274439" lon="151.290064">
  <ele>343.1</ele>
  <time>2026-09-01T19:49:38Z</time>
  <course>270.0</course>
  <speed>0.0</speed>
  <fix>3d</fix>
</trkpt>
<trkpt lat="-27.2744391" lon="151.2900641">
  <ele>342.98</ele>
  <time>2026-09-01T19:49:38Z</time>
  <course>10.73</course>
  <speed>0.01414213562373095</speed>
  <fix>3d</fix>
</trkpt>
<trkpt lat="-27.274439" lon="151.290064">
  <ele>343.1</ele>
  <time>2026-09-01T19:49:38Z</time>
  <course>270.0</course>
  <speed>0.0</speed>
  <fix>3d</fix>
</trkpt>
<trkpt lat="-27.2744391" lon="151.2900641">
  <ele>342.98</ele>
  <time>2026-09-01T19:49:38Z</time>
  <course>10.73</course>
  <speed>0.01414213562373095</speed>
  <fix>3d</fix>
</trkpt>
<trkpt lat="-27.274439" lon="151.290064">
  <ele>343.1</ele>
  <time>2026-09-01T19:49:38Z</time>
  <course>270.0</course>
  <speed>0.0</speed>
  <fix>3d</fix>
</trkpt>
<trkpt lat="-27.2744391" lon="151.2900641">
  <ele>342.98</ele>
  <time>2026-09-01T19:49:38Z</time>
  <course>10.73</course>
  <speed>0.01414213562373095</speed>
  <fix>3d</fix>
</trkpt>
<trkpt lat="-27.274439" lon="151.290064">
  <ele>343.1</ele>
  <time>2026-09-01T19:49:38Z</time>
  <course>270.0</course>
  <speed>0.0</speed>
  <fix>3d</fix>
</trkpt>
<trkpt lat="-27.2744391" lon="151.2900641">
  <ele>342.98</ele>
  <time>2026-09-01T19:49:38Z</time>
  <course>10.73</course>
  <speed>0.01414213562373095</speed>
  <fix>3d</fix>
</trkpt>
<trkpt lat="-27.274439" lon="151.290064">
  <ele>343.1</ele>
  <time>2026-09-01T19:49:38Z</time>
  <course>270.0</course>
  <speed>0.0</speed>
  <fix>3d</fix>
</trkpt>
<trkpt lat="-27.2744391" lon="151.2900641">
  <ele>342.98</ele>
  <time>2026-09-01T19:49:38Z</time>
  <course>10.73</course>
  <speed>0.01414213562373095</speed>
  <fix>3d</fix>
</trkpt>
<trkpt lat="-27.274439" lon="151.290064">
  <ele>343.1</ele>
  <time>2026-09-01T19:49:38Z</time>
  <course>270.0</course>
  <speed>0.0</speed>
  <fix>3d</fix>
</trkpt>
<trkpt lat="-27.2744391" lon="151.2900641">
  <ele>342.98</ele>
  <time>2026-09-01T19:49:38Z</time>
  <course>10.73</course>
  <speed>0.01414213562373095</speed>
  <fix>3d</fix>
</trkpt>
<trkpt lat="-27.274439" lon="151.290064">
  <ele>343.1</ele>
  <time>2026-09-01T19:49:38Z</time>
  <course>270.0</course>
  <speed>0.0</speed>
  <fix>3d</fix>
</trkpt>
<trkpt lat="-27.2744391" lon="151.2900641">
  <ele>342.98</ele>
  <time>2026-09-01T19:49:38Z</time>
  <course>10.73</course>
  <speed>0.01414213562373095</speed>
  <fix>3d</fix>
</trkpt>
<trkpt lat="-27.274439" lon="151.290064">
  <ele>343.1</ele>
  <time>2026-09-01T19:49:38Z</time>
  <course>270.0</course>
  <speed>0.0</speed>
  <fix>3d</fix>
</trkpt>
<trkpt lat="-27.2744391" lon="151.2900641">
  <ele>342.98</ele>
  <time>2026-09-01T19:49:38Z</time>
  <course>10.73</course>
  <speed>0.01414213562373095</speed>
  <fix>3d</fix>
</trkpt>
<trkpt lat="-27.274439" lon="151.290064">
  <ele>343.1</ele>
  <time>2026-09-01T19:49:38Z</time>
  <course>270.0</course>
  <speed>0.0</speed>
  <fix>3d</fix>
</trkpt>
<trkpt lat="-27.2744391" lon="151.2900641">
  <ele>342.98</ele>
  <time>2026-09-01T19:49:38Z</time>
  <course>10.73</course>
  <speed>0.01414213562373095</speed>
  <fix>3d</fix>
</trkpt>
<trkpt lat="-27.274439" lon="151.290064">
  <ele>343.1</ele>
  <time>2026-09-01T19:49:38Z</time>
  <course>270.0</course>
  <speed>0.0</speed>
  <fix>3d</fix>
</trkpt>
<trkpt lat="-27.2744391" lon="151.2900641">
  <ele>342.97</ele>
  <time>2026-09-01T19:49:38Z</time>
  <course>10.73</course>
  <speed>0.01414213562373095</speed>
  <fix>3d</fix>
</trkpt>
<trkpt lat="-27.274439" lon="151.290064">
  <ele>343.1</ele>
  <time>2026-09-01T19:49:38Z</time>
  <course>270.0</course>
  <speed>0.0</speed>
  <fix>3d</fix>
</trkpt>
<trkpt lat="-27.2744391" lon="151.2900641">
  <ele>342.97</ele>
  <time>2026-09-01T19:49:38Z</time>
  <course>10.73</course>
  <speed>0.01414213562373095</speed>
  <fix>3d</fix>
</trkpt>
<trkpt lat="-27.274439" lon="151.290064">
  <ele>343.1</ele>
  <time>2026-09-01T19:49:38Z</time>
  <course>270.0</course>
  <speed>0.0</speed>
  <fix>3d</fix>
</trkpt>
<trkpt lat="-27.2744391" lon="151.2900641">
  <ele>342.97</ele>
  <time>2026-09-01T19:49:38Z</time>
  <course>10.73</course>
  <speed>0.01414213562373095</speed>
  <fix>3d</fix>
</trkpt>
<trkpt lat="-27.274439" lon="151.290064">
  <ele>343.1</ele>
  <time>2026-09-01T19:49:38Z</time>
  <course>270.0</course>
  <speed>0.0</speed>
  <fix>3d</fix>
</trkpt>
<trkpt lat="-27.2744391" lon="151.2900641">
  <ele>342.96</ele>
  <time>2026-09-01T19:49:38Z</time>
  <course>10.73</course>
  <speed>0.01414213562373095</speed>
  <fix>3d</fix>
</trkpt>
<trkpt lat="-27.274439" lon="151.290064">
  <ele>343.1</ele>
  <time>2026-09-01T19:49:38Z</time>
  <course>270.0</course>
  <speed>0.0</speed>
  <fix>3d</fix>
</trkpt>
<trkpt lat="-27.2744391" lon="151.2900641">
  <ele>342.96</ele>
  <time>2026-09-01T19:49:38Z</time>
  <course>10.73</course>
  <speed>0.01414213562373095</speed>
  <fix>3d</fix>
</trkpt>
<trkpt lat="-27.274439" lon="151.290064">
  <ele>343.1</ele>
  <time>2026-09-01T19:49:38Z</time>
  <course>270.0</course>
  <speed>0.0</speed>
  <fix>3d</fix>
</trkpt>
<trkpt lat="-27.2744391" lon="151.2900641">
  <ele>342.96</ele>
  <time>2026-09-01T19:49:38Z</time>
  <course>10.73</course>
  <speed>0.01414213562373095</speed>
  <fix>3d</fix>
</trkpt>
<trkpt lat="-27.274439" lon="151.290064">
  <ele>343.1</ele>
  <time>2026-09-01T19:49:38Z</time>
  <course>270.0</course>
  <speed>0.0</speed>
  <fix>3d</fix>
</trkpt>
<trkpt lat="-27.2744391" lon="151.2900641">
  <ele>342.96</ele>
  <time>2026-09-01T19:49:38Z</time>
  <course>10.73</course>
  <speed>0.01414213562373095</speed>
  <fix>3d</fix>
</trkpt>
<trkpt lat="-27.274439" lon="151.290064">
  <ele>343.1</ele>
  <time>2026-09-01T19:49:38Z</time>
  <course>270.0</course>
  <speed>0.0</speed>
  <fix>3d</fix>
</trkpt>
<trkpt lat="-27.2744391" lon="151.2900641">
  <ele>342.95</ele>
  <time>2026-09-01T19:49:38Z</time>
  <course>10.73</course>
  <speed>0.01414213562373095</speed>
  <fix>3d</fix>
</trkpt>
<trkpt lat="-27.274439" lon="151.290064">
  <ele>343.1</ele>
  <time>2026-09-01T19:49:38Z</time>
  <course>270.0</course>
  <speed>0.0</speed>
  <fix>3d</fix>
</trkpt>
<trkpt lat="-27.2744391" lon="151.2900641">
  <ele>342.95</ele>
  <time>2026-09-01T19:49:38Z</time>
  <course>10.73</course>
  <speed>0.01414213562373095</speed>
  <fix>3d</fix>
</trkpt>
<trkpt lat="-27.274439" lon="151.290064">
  <ele>343.1</ele>
  <time>2026-09-01T19:49:38Z</time>
  <course>270.0</course>
  <speed>0.0</speed>
  <fix>3d</fix>
</trkpt>
<trkpt lat="-27.2744391" lon="151.2900641">
  <ele>342.95</ele>
  <time>2026-09-01T19:49:38Z</time>
  <course>10.73</course>
  <speed>0.01414213562373095</speed>
  <fix>3d</fix>
</trkpt>
<trkpt lat="-27.274439" lon="151.290064">
  <ele>343.1</ele>
  <time>2026-09-01T19:49:38Z</time>
  <course>270.0</course>
  <speed>0.0</speed>
  <fix>3d</fix>
</trkpt>
<trkpt lat="-27.2744391" lon="151.2900641">
  <ele>342.95</ele>
  <time>2026-09-01T19:49:38Z</time>
  <course>10.73</course>
  <speed>0.01414213562373095</speed>
  <fix>3d</fix>
</trkpt>
<trkpt lat="-27.274439" lon="151.290064">
  <ele>343.1</ele>
  <time>2026-09-01T19:49:38Z</time>
  <course>270.0</course>
  <speed>0.0</speed>
  <fix>3d</fix>
</trkpt>
<trkpt lat="-27.2744391" lon="151.2900641">
  <ele>342.95</ele>
  <time>2026-09-01T19:49:38Z</time>
  <course>10.73</course>
  <speed>0.01414213562373095</speed>
  <fix>3d</fix>
</trkpt>
<trkpt lat="-27.274439" lon="151.290064">
  <ele>343.1</ele>
  <time>2026-09-01T19:49:38Z</time>
  <course>270.0</course>
  <speed>0.0</speed>
  <fix>3d</fix>
</trkpt>
<trkpt lat="-27.2744391" lon="151.2900641">
  <ele>342.95</ele>
  <time>2026-09-01T19:49:38Z</time>
  <course>10.73</course>
  <speed>0.01414213562373095</speed>
  <fix>3d</fix>
</trkpt>
<trkpt lat="-27.274439" lon="151.290064">
  <ele>343.1</ele>
  <time>2026-09-01T19:49:38Z</time>
  <course>270.0</course>
  <speed>0.0</speed>
  <fix>3d</fix>
</trkpt>
<trkpt lat="-27.2744391" lon="151.2900641">
  <ele>343.1</ele>
  <time>2026-09-01T19:49:38Z</time>
  <course>10.73</course>
  <speed>0.01414213562373095</speed>
  <fix>3d</fix>
</trkpt>
<trkpt lat="-27.274439" lon="151.290064">
  <ele>343.1</ele>
  <time>2026-09-01T19:49:38Z</time>
  <course>270.0</course>
  <speed>0.0</speed>
  <fix>3d</fix>
</trkpt>
<trkpt lat="-27.2744391" lon="151.2900641">
  <ele>343.09</ele>
  <time>2026-09-01T19:49:38Z</time>
  <course>10.74</course>
  <speed>0.01414213562373095</speed>
  <fix>3d</fix>
</trkpt>
<trkpt lat="-27.274439" lon="151.290064">
  <ele>343.1</ele>
  <time>2026-09-01T19:49:38Z</time>
  <course>270.0</course>
  <speed>0.0</speed>
  <fix>3d</fix>
</trkpt>
<trkpt lat="-27.2744391" lon="151.2900641">
  <ele>343.09</ele>
  <time>2026-09-01T19:49:38Z</time>
  <course>10.74</course>
  <speed>0.01414213562373095</speed>
  <fix>3d</fix>
</trkpt>
<trkpt lat="-27.274439" lon="151.290064">
  <ele>343.1</ele>
  <time>2026-09-01T19:49:38Z</time>
  <course>270.0</course>
  <speed>0.0</speed>
  <fix>3d</fix>
</trkpt>
<trkpt lat="-27.2744391" lon="151.2900641">
  <ele>343.09</ele>
  <time>2026-09-01T19:49:38Z</time>
  <course>10.74</course>
  <speed>0.01414213562373095</speed>
  <fix>3d</fix>
</trkpt>
<trkpt lat="-27.274439" lon="151.290064">
  <ele>343.1</ele>
  <time>2026-09-01T19:49:38Z</time>
  <course>270.0</course>
  <speed>0.0</speed>
  <fix>3d</fix>
</trkpt>
<trkpt lat="-27.2744391" lon="151.2900641">
  <ele>343.09</ele>
  <time>2026-09-01T19:49:38Z</time>
  <course>10.74</course>
  <speed>0.01414213562373095</speed>
  <fix>3d</fix>
</trkpt>
<trkpt lat="-27.274439" lon="151.290064">
  <ele>343.1</ele>
  <time>2026-09-01T19:49:38Z</time>
  <course>270.0</course>
  <speed>0.0</speed>
  <fix>3d</fix>
</trkpt>
<trkpt lat="-27.2744391" lon="151.2900641">
  <ele>343.09</ele>
  <time>2026-09-01T19:49:38Z</time>
  <course>10.74</course>
  <speed>0.01414213562373095</speed>
  <fix>3d</fix>
</trkpt>
<trkpt lat="-27.274439" lon="151.290064">
  <ele>343.1</ele>
  <time>2026-09-01T19:49:38Z</time>
  <course>270.0</course>
  <speed>0.0</speed>
  <fix>3d</fix>
</trkpt>
<trkpt lat="-27.2744391" lon="151.2900641">
  <ele>343.08</ele>
  <time>2026-09-01T19:49:38Z</time>
  <course>10.74</course>
  <speed>0.01414213562373095</speed>
  <fix>3d</fix>
</trkpt>
<trkpt lat="-27.274439" lon="151.290064">
  <ele>343.1</ele>
  <time>2026-09-01T19:49:38Z</time>
  <course>270.0</course>
  <speed>0.0</speed>
  <fix>3d</fix>
</trkpt>
<trkpt lat="-27.2744391" lon="151.2900641">
  <ele>343.08</ele>
  <time>2026-09-01T19:49:38Z</time>
  <course>10.74</course>
  <speed>0.01414213562373095</speed>
  <fix>3d</fix>
</trkpt>
<trkpt lat="-27.274439" lon="151.290064">
  <ele>343.1</ele>
  <time>2026-09-01T19:49:38Z</time>
  <course>270.0</course>
  <speed>0.0</speed>
  <fix>3d</fix>
</trkpt>
<trkpt lat="-27.2744391" lon="151.2900641">
  <ele>343.08</ele>
  <time>2026-09-01T19:49:38Z</time>
  <course>10.74</course>
  <speed>0.01414213562373095</speed>
  <fix>3d</fix>
</trkpt>
<trkpt lat="-27.274439" lon="151.290064">
  <ele>343.1</ele>
  <time>2026-09-01T19:49:38Z</time>
  <course>270.0</course>
  <speed>0.0</speed>
  <fix>3d</fix>
</trkpt>
<trkpt lat="-27.2744391" lon="151.2900641">
  <ele>343.07</ele>
  <time>2026-09-01T19:49:38Z</time>
  <course>10.74</course>
  <speed>0.01414213562373095</speed>
  <fix>3d</fix>
</trkpt>
<trkpt lat="-27.274439" lon="151.290064">
  <ele>343.1</ele>
  <time>2026-09-01T19:49:38Z</time>
  <course>270.0</course>
  <speed>0.0</speed>
  <fix>3d</fix>
</trkpt>
<trkpt lat="-27.2744391" lon="151.2900641">
  <ele>343.07</ele>
  <time>2026-09-01T19:49:38Z</time>
  <course>10.74</course>
  <speed>0.01414213562373095</speed>
  <fix>3d</fix>
</trkpt>
<trkpt lat="-27.274439" lon="151.290064">
  <ele>343.1</ele>
  <time>2026-09-01T19:49:38Z</time>
  <course>270.0</course>
  <speed>0.0</speed>
  <fix>3d</fix>
</trkpt>
<trkpt lat="-27.2744391" lon="151.2900641">
  <ele>343.07</ele>
  <time>2026-09-01T19:49:38Z</time>
  <course>10.74</course>
  <speed>0.01414213562373095</speed>
  <fix>3d</fix>
</trkpt>
<trkpt lat="-27.274439" lon="151.290064">
  <ele>343.1</ele>
  <time>2026-09-01T19:49:38Z</time>
  <course>270.0</course>
  <speed>0.0</speed>
  <fix>3d</fix>
</trkpt>
<trkpt lat="-27.2744391" lon="151.2900641">
  <ele>343.07</ele>
  <time>2026-09-01T19:49:38Z</time>
  <course>10.74</course>
  <speed>0.01414213562373095</speed>
  <fix>3d</fix>
</trkpt>
<trkpt lat="-27.274439" lon="151.290064">
  <ele>343.1</ele>
  <time>2026-09-01T19:49:38Z</time>
  <course>270.0</course>
  <speed>0.0</speed>
  <fix>3d</fix>
</trkpt>
<trkpt lat="-27.2744391" lon="151.2900641">
  <ele>343.06</ele>
  <time>2026-09-01T19:49:38Z</time>
  <course>10.74</course>
  <speed>0.01414213562373095</speed>
  <fix>3d</fix>
</trkpt>
<trkpt lat="-27.274439" lon="151.290064">
  <ele>343.1</ele>
  <time>2026-09-01T19:49:38Z</time>
  <course>270.0</course>
  <speed>0.0</speed>
  <fix>3d</fix>
</trkpt>
<trkpt lat="-27.2744391" lon="151.2900641">
  <ele>343.06</ele>
  <time>2026-09-01T19:49:38Z</time>
  <course>10.74</course>
  <speed>0.01414213562373095</speed>
  <fix>3d</fix>
</trkpt>
<trkpt lat="-27.274439" lon="151.290064">
  <ele>343.1</ele>
  <time>2026-09-01T19:49:38Z</time>
  <course>270.0</course>
  <speed>0.0</speed>
  <fix>3d</fix>
</trkpt>
<trkpt lat="-27.2744391" lon="151.2900641">
  <ele>343.06</ele>
  <time>2026-09-01T19:49:38Z</time>
  <course>10.74</course>
  <speed>0.01414213562373095</speed>
  <fix>3d</fix>
</trkpt>
<trkpt lat="-27.274439" lon="151.290064">
  <ele>343.1</ele>
  <time>2026-09-01T19:49:38Z</time>
  <course>270.0</course>
  <speed>0.0</speed>
  <fix>3d</fix>
</trkpt>
<trkpt lat="-27.2744391" lon="151.2900641">
  <ele>343.06</ele>
  <time>2026-09-01T19:49:38Z</time>
  <course>10.74</course>
  <speed>0.01414213562373095</speed>
  <fix>3d</fix>
</trkpt>
<trkpt lat="-27.274439" lon="151.290064">
  <ele>343.1</ele>
  <time>2026-09-01T19:49:38Z</time>
  <course>270.0</course>
  <speed>0.0</speed>
  <fix>3d</fix>
</trkpt>
<trkpt lat="-27.2744391" lon="151.2900641">
  <ele>343.06</ele>
  <time>2026-09-01T19:49:38Z</time>
  <course>10.74</course>
  <speed>0.022360679774997897</speed>
  <fix>3d</fix>
</trkpt>
<trkpt lat="-27.274439" lon="151.290064">
  <ele>343.1</ele>
  <time>2026-09-01T19:49:38Z</time>
  <course>270.0</course>
  <speed>0.0</speed>
  <fix>3d</fix>
</trkpt>
<trkpt lat="-27.2744391" lon="151.2900641">
  <ele>343.06</ele>
  <time>2026-09-01T19:49:38Z</time>
  <course>10.74</course>
  <speed>0.01414213562373095</speed>
  <fix>3d</fix>
</trkpt>
<trkpt lat="-27.274439" lon="151.290064">
  <ele>343.1</ele>
  <time>2026-09-01T19:49:38Z</time>
  <course>270.0</course>
  <speed>0.0</speed>
  <fix>3d</fix>
</trkpt>
<trkpt lat="-27.2744391" lon="151.2900641">
  <ele>343.06</ele>
  <time>2026-09-01T19:49:38Z</time>
  <course>10.74</course>
  <speed>0.022360679774997897</speed>
  <fix>3d</fix>
</trkpt>
<trkpt lat="-27.274439" lon="151.290064">
  <ele>343.1</ele>
  <time>2026-09-01T19:49:38Z</time>
  <course>270.0</course>
  <speed>0.0</speed>
  <fix>3d</fix>
</trkpt>
<trkpt lat="-27.2744391" lon="151.2900641">
  <ele>343.06</ele>
  <time>2026-09-01T19:49:38Z</time>
  <course>10.74</course>
  <speed>0.022360679774997897</speed>
  <fix>3d</fix>
</trkpt>
<trkpt lat="-27.274439" lon="151.290064">
  <ele>343.1</ele>
  <time>2026-09-01T19:49:38Z</time>
  <course>270.0</course>
  <speed>0.0</speed>
  <fix>3d</fix>
</trkpt>
<trkpt lat="-27.2744391" lon="151.2900641">
  <ele>343.06</ele>
  <time>2026-09-01T19:49:38Z</time>
  <course>10.74</course>
  <speed>0.022360679774997897</speed>
  <fix>3d</fix>
</trkpt>
<trkpt lat="-27.274439" lon="151.290064">
  <ele>343.1</ele>
  <time>2026-09-01T19:49:38Z</time>
  <course>270.0</course>
  <speed>0.0</speed>
  <fix>3d</fix>
</trkpt>
<trkpt lat="-27.2744391" lon="151.2900641">
  <ele>343.06</ele>
  <time>2026-09-01T19:49:38Z</time>
  <course>10.74</course>
  <speed>0.022360679774997897</speed>
  <fix>3d</fix>
</trkpt>
<trkpt lat="-27.274439" lon="151.290064">
  <ele>343.1</ele>
  <time>2026-09-01T19:49:38Z</time>
  <course>270.0</course>
  <speed>0.0</speed>
  <fix>3d</fix>
</trkpt>
<trkpt lat="-27.2744391" lon="151.2900641">
  <ele>343.06</ele>
  <time>2026-09-01T19:49:38Z</time>
  <course>10.74</course>
  <speed>0.022360679774997897</speed>
  <fix>3d</fix>
</trkpt>
<trkpt lat="-27.274439" lon="151.290064">
  <ele>343.1</ele>
  <time>2026-09-01T19:49:38Z</time>
  <course>270.0</course>
  <speed>0.0</speed>
  <fix>3d</fix>
</trkpt>
<trkpt lat="-27.2744391" lon="151.2900641">
  <ele>343.06</ele>
  <time>2026-09-01T19:49:38Z</time>
  <course>10.74</course>
  <speed>0.022360679774997897</speed>
  <fix>3d</fix>
</trkpt>
<trkpt lat="-27.274439" lon="151.290064">
  <ele>343.1</ele>
  <time>2026-09-01T19:49:38Z</time>
  <course>270.0</course>
  <speed>0.0</speed>
  <fix>3d</fix>
</trkpt>
<trkpt lat="-27.2744391" lon="151.2900641">
  <ele>343.06</ele>
  <time>2026-09-01T19:49:38Z</time>
  <course>10.74</course>
  <speed>0.022360679774997897</speed>
  <fix>3d</fix>
</trkpt>
<trkpt lat="-27.274439" lon="151.290064">
  <ele>343.1</ele>
  <time>2026-09-01T19:49:38Z</time>
  <course>270.0</course>
  <speed>0.0</speed>
  <fix>3d</fix>
</trkpt>
<trkpt lat="-27.2744391" lon="151.2900641">
  <ele>343.06</ele>
  <time>2026-09-01T19:49:38Z</time>
  <course>10.74</course>
  <speed>0.022360679774997897</speed>
  <fix>3d</fix>
</trkpt>
<trkpt lat="-27.274439" lon="151.290064">
  <ele>343.1</ele>
  <time>2026-09-01T19:49:38Z</time>
  <course>270.0</course>
  <speed>0.0</speed>
  <fix>3d</fix>
</trkpt>
<trkpt lat="-27.2744391" lon="151.2900641">
  <ele>343.06</ele>
  <time>2026-09-01T19:49:38Z</time>
  <course>10.74</course>
  <speed>0.022360679774997897</speed>
  <fix>3d</fix>
</trkpt>
<trkpt lat="-27.274439" lon="151.290064">
  <ele>343.1</ele>
  <time>2026-09-01T19:49:38Z</time>
  <course>270.0</course>
  <speed>0.0</speed>
  <fix>3d</fix>
</trkpt>
<trkpt lat="-27.2744391" lon="151.2900641">
  <ele>343.05</ele>
  <time>2026-09-01T19:49:38Z</time>
  <course>10.75</course>
  <speed>0.022360679774997897</speed>
  <fix>3d</fix>
</trkpt>
<trkpt lat="-27.274439" lon="151.290064">
  <ele>343.1</ele>
  <time>2026-09-01T19:49:39Z</time>
  <course>270.0</course>
  <speed>0.0</speed>
  <fix>3d</fix>
</trkpt>
<trkpt lat="-27.2744391" lon="151.2900641">
  <ele>343.05</ele>
  <time>2026-09-01T19:49:39Z</time>
  <course>10.75</course>
  <speed>0.022360679774997897</speed>
  <fix>3d</fix>
</trkpt>
<trkpt lat="-27.274439" lon="151.290064">
  <ele>343.1</ele>
  <time>2026-09-01T19:49:39Z</time>
  <course>270.0</course>
  <speed>0.0</speed>
  <fix>3d</fix>
</trkpt>
<trkpt lat="-27.2744391" lon="151.2900641">
  <ele>343.05</ele>
  <time>2026-09-01T19:49:39Z</time>
  <course>10.75</course>
  <speed>0.022360679774997897</speed>
  <fix>3d</fix>
</trkpt>
<trkpt lat="-27.274439" lon="151.290064">
  <ele>343.1</ele>
  <time>2026-09-01T19:49:39Z</time>
  <course>270.0</course>
  <speed>0.0</speed>
  <fix>3d</fix>
</trkpt>
<trkpt lat="-27.2744391" lon="151.2900641">
  <ele>343.04</ele>
  <time>2026-09-01T19:49:39Z</time>
  <course>10.75</course>
  <speed>0.022360679774997897</speed>
  <fix>3d</fix>
</trkpt>
<trkpt lat="-27.274439" lon="151.290064">
  <ele>343.1</ele>
  <time>2026-09-01T19:49:39Z</time>
  <course>270.0</course>
  <speed>0.0</speed>
  <fix>3d</fix>
</trkpt>
<trkpt lat="-27.2744391" lon="151.2900641">
  <ele>343.04</ele>
  <time>2026-09-01T19:49:39Z</time>
  <course>10.75</course>
  <speed>0.022360679774997897</speed>
  <fix>3d</fix>
</trkpt>
<trkpt lat="-27.274439" lon="151.290064">
  <ele>343.1</ele>
  <time>2026-09-01T19:49:39Z</time>
  <course>270.0</course>
  <speed>0.0</speed>
  <fix>3d</fix>
</trkpt>
<trkpt lat="-27.2744391" lon="151.2900641">
  <ele>343.04</ele>
  <time>2026-09-01T19:49:39Z</time>
  <course>10.75</course>
  <speed>0.022360679774997897</speed>
  <fix>3d</fix>
</trkpt>
<trkpt lat="-27.274439" lon="151.290064">
  <ele>343.1</ele>
  <time>2026-09-01T19:49:39Z</time>
  <course>270.0</course>
  <speed>0.0</speed>
  <fix>3d</fix>
</trkpt>
<trkpt lat="-27.2744391" lon="151.2900641">
  <ele>343.04</ele>
  <time>2026-09-01T19:49:39Z</time>
  <course>10.75</course>
  <speed>0.022360679774997897</speed>
  <fix>3d</fix>
</trkpt>
<trkpt lat="-27.274439" lon="151.290064">
  <ele>343.1</ele>
  <time>2026-09-01T19:49:39Z</time>
  <course>270.0</course>
  <speed>0.0</speed>
  <fix>3d</fix>
</trkpt>
<trkpt lat="-27.2744391" lon="151.2900641">
  <ele>343.04</ele>
  <time>2026-09-01T19:49:39Z</time>
  <course>10.75</course>
  <speed>0.022360679774997897</speed>
  <fix>3d</fix>
</trkpt>
<trkpt lat="-27.274439" lon="151.290064">
  <ele>343.1</ele>
  <time>2026-09-01T19:49:39Z</time>
  <course>270.0</course>
  <speed>0.0</speed>
  <fix>3d</fix>
</trkpt>
<trkpt lat="-27.2744391" lon="151.2900641">
  <ele>343.03</ele>
  <time>2026-09-01T19:49:39Z</time>
  <course>10.75</course>
  <speed>0.022360679774997897</speed>
  <fix>3d</fix>
</trkpt>
<trkpt lat="-27.274439" lon="151.290064">
  <ele>343.1</ele>
  <time>2026-09-01T19:49:39Z</time>
  <course>270.0</course>
  <speed>0.0</speed>
  <fix>3d</fix>
</trkpt>
<trkpt lat="-27.2744391" lon="151.2900641">
  <ele>343.03</ele>
  <time>2026-09-01T19:49:39Z</time>
  <course>10.75</course>
  <speed>0.022360679774997897</speed>
  <fix>3d</fix>
</trkpt>
<trkpt lat="-27.274439" lon="151.290064">
  <ele>343.1</ele>
  <time>2026-09-01T19:49:39Z</time>
  <course>270.0</course>
  <speed>0.0</speed>
  <fix>3d</fix>
</trkpt>
<trkpt lat="-27.2744391" lon="151.2900641">
  <ele>343.03</ele>
  <time>2026-09-01T19:49:39Z</time>
  <course>10.75</course>
  <speed>0.022360679774997897</speed>
  <fix>3d</fix>
</trkpt>
<trkpt lat="-27.274439" lon="151.290064">
  <ele>343.1</ele>
  <time>2026-09-01T19:49:39Z</time>
  <course>270.0</course>
  <speed>0.0</speed>
  <fix>3d</fix>
</trkpt>
<trkpt lat="-27.2744391" lon="151.2900641">
  <ele>343.03</ele>
  <time>2026-09-01T19:49:39Z</time>
  <course>10.75</course>
  <speed>0.022360679774997897</speed>
  <fix>3d</fix>
</trkpt>
<trkpt lat="-27.274439" lon="151.290064">
  <ele>343.1</ele>
  <time>2026-09-01T19:49:39Z</time>
  <course>270.0</course>
  <speed>0.0</speed>
  <fix>3d</fix>
</trkpt>
<trkpt lat="-27.2744391" lon="151.2900641">
  <ele>343.03</ele>
  <time>2026-09-01T19:49:39Z</time>
  <course>10.75</course>
  <speed>0.022360679774997897</speed>
  <fix>3d</fix>
</trkpt>
<trkpt lat="-27.274439" lon="151.290064">
  <ele>343.1</ele>
  <time>2026-09-01T19:49:39Z</time>
  <course>270.0</course>
  <speed>0.0</speed>
  <fix>3d</fix>
</trkpt>
<trkpt lat="-27.2744391" lon="151.2900641">
  <ele>343.02</ele>
  <time>2026-09-01T19:49:39Z</time>
  <course>10.75</course>
  <speed>0.022360679774997897</speed>
  <fix>3d</fix>
</trkpt>
<trkpt lat="-27.274439" lon="151.290064">
  <ele>343.1</ele>
  <time>2026-09-01T19:49:39Z</time>
  <course>270.0</course>
  <speed>0.0</speed>
  <fix>3d</fix>
</trkpt>
<trkpt lat="-27.2744391" lon="151.2900641">
  <ele>343.02</ele>
  <time>2026-09-01T19:49:39Z</time>
  <course>10.75</course>
  <speed>0.022360679774997897</speed>
  <fix>3d</fix>
</trkpt>
<trkpt lat="-27.274439" lon="151.290064">
  <ele>343.1</ele>
  <time>2026-09-01T19:49:39Z</time>
  <course>270.0</course>
  <speed>0.0</speed>
  <fix>3d</fix>
</trkpt>
<trkpt lat="-27.2744391" lon="151.2900641">
  <ele>343.02</ele>
  <time>2026-09-01T19:49:39Z</time>
  <course>10.75</course>
  <speed>0.022360679774997897</speed>
  <fix>3d</fix>
</trkpt>
<trkpt lat="-27.274439" lon="151.290064">
  <ele>343.1</ele>
  <time>2026-09-01T19:49:39Z</time>
  <course>270.0</course>
  <speed>0.0</speed>
  <fix>3d</fix>
</trkpt>
<trkpt lat="-27.2744391" lon="151.2900641">
  <ele>343.02</ele>
  <time>2026-09-01T19:49:39Z</time>
  <course>10.75</course>
  <speed>0.022360679774997897</speed>
  <fix>3d</fix>
</trkpt>
<trkpt lat="-27.274439" lon="151.290064">
  <ele>343.1</ele>
  <time>2026-09-01T19:49:39Z</time>
  <course>270.0</course>
  <speed>0.0</speed>
  <fix>3d</fix>
</trkpt>
<trkpt lat="-27.2744391" lon="151.2900641">
  <ele>343.02</ele>
  <time>2026-09-01T19:49:39Z</time>
  <course>10.75</course>
  <speed>0.022360679774997897</speed>
  <fix>3d</fix>
</trkpt>
<trkpt lat="-27.274439" lon="151.290064">
  <ele>343.1</ele>
  <time>2026-09-01T19:49:39Z</time>
  <course>270.0</course>
  <speed>0.0</speed>
  <fix>3d</fix>
</trkpt>
<trkpt lat="-27.2744391" lon="151.2900641">
  <ele>343.02</ele>
  <time>2026-09-01T19:49:39Z</time>
  <course>10.75</course>
  <speed>0.022360679774997897</speed>
  <fix>3d</fix>
</trkpt>
<trkpt lat="-27.274439" lon="151.290064">
  <ele>343.1</ele>
  <time>2026-09-01T19:49:39Z</time>
  <course>270.0</course>
  <speed>0.0</speed>
  <fix>3d</fix>
</trkpt>
<trkpt lat="-27.2744391" lon="151.2900641">
  <ele>343.02</ele>
  <time>2026-09-01T19:49:39Z</time>
  <course>10.75</course>
  <speed>0.022360679774997897</speed>
  <fix>3d</fix>
</trkpt>
<trkpt lat="-27.274439" lon="151.290064">
  <ele>343.1</ele>
  <time>2026-09-01T19:49:39Z</time>
  <course>270.0</course>
  <speed>0.0</speed>
  <fix>3d</fix>
</trkpt>
<trkpt lat="-27.2744391" lon="151.2900641">
  <ele>343.02</ele>
  <time>2026-09-01T19:49:39Z</time>
  <course>10.75</course>
  <speed>0.022360679774997897</speed>
  <fix>3d</fix>
</trkpt>
<trkpt lat="-27.274439" lon="151.290064">
  <ele>343.1</ele>
  <time>2026-09-01T19:49:39Z</time>
  <course>270.0</course>
  <speed>0.0</speed>
  <fix>3d</fix>
</trkpt>
<trkpt lat="-27.2744391" lon="151.2900641">
  <ele>343.02</ele>
  <time>2026-09-01T19:49:39Z</time>
  <course>10.75</course>
  <speed>0.022360679774997897</speed>
  <fix>3d</fix>
</trkpt>
<trkpt lat="-27.274439" lon="151.290064">
  <ele>343.1</ele>
  <time>2026-09-01T19:49:39Z</time>
  <course>270.0</course>
  <speed>0.0</speed>
  <fix>3d</fix>
</trkpt>
<trkpt lat="-27.2744391" lon="151.2900641">
  <ele>343.01</ele>
  <time>2026-09-01T19:49:39Z</time>
  <course>10.75</course>
  <speed>0.022360679774997897</speed>
  <fix>3d</fix>
</trkpt>
<trkpt lat="-27.274439" lon="151.290064">
  <ele>343.1</ele>
  <time>2026-09-01T19:49:39Z</time>
  <course>270.0</course>
  <speed>0.0</speed>
  <fix>3d</fix>
</trkpt>
<trkpt lat="-27.2744391" lon="151.2900641">
  <ele>343.01</ele>
  <time>2026-09-01T19:49:39Z</time>
  <course>10.76</course>
  <speed>0.022360679774997897</speed>
  <fix>3d</fix>
</trkpt>
<trkpt lat="-27.274439" lon="151.290064">
  <ele>343.1</ele>
  <time>2026-09-01T19:49:39Z</time>
  <course>270.0</course>
  <speed>0.0</speed>
  <fix>3d</fix>
</trkpt>
<trkpt lat="-27.2744391" lon="151.2900641">
  <ele>343.01</ele>
  <time>2026-09-01T19:49:39Z</time>
  <course>10.76</course>
  <speed>0.022360679774997897</speed>
  <fix>3d</fix>
</trkpt>
<trkpt lat="-27.274439" lon="151.290064">
  <ele>343.1</ele>
  <time>2026-09-01T19:49:39Z</time>
  <course>270.0</course>
  <speed>0.0</speed>
  <fix>3d</fix>
</trkpt>
<trkpt lat="-27.2744391" lon="151.2900641">
  <ele>343.01</ele>
  <time>2026-09-01T19:49:39Z</time>
  <course>10.76</course>
  <speed>0.022360679774997897</speed>
  <fix>3d</fix>
</trkpt>
<trkpt lat="-27.274439" lon="151.290064">
  <ele>343.1</ele>
  <time>2026-09-01T19:49:39Z</time>
  <course>270.0</course>
  <speed>0.0</speed>
  <fix>3d</fix>
</trkpt>
<trkpt lat="-27.2744391" lon="151.2900641">
  <ele>343.01</ele>
  <time>2026-09-01T19:49:39Z</time>
  <course>10.76</course>
  <speed>0.022360679774997897</speed>
  <fix>3d</fix>
</trkpt>
<trkpt lat="-27.274439" lon="151.290064">
  <ele>343.1</ele>
  <time>2026-09-01T19:49:39Z</time>
  <course>270.0</course>
  <speed>0.0</speed>
  <fix>3d</fix>
</trkpt>
<trkpt lat="-27.2744391" lon="151.2900641">
  <ele>343.01</ele>
  <time>2026-09-01T19:49:39Z</time>
  <course>10.76</course>
  <speed>0.022360679774997897</speed>
  <fix>3d</fix>
</trkpt>
<trkpt lat="-27.274439" lon="151.290064">
  <ele>343.1</ele>
  <time>2026-09-01T19:49:39Z</time>
  <course>270.0</course>
  <speed>0.0</speed>
  <fix>3d</fix>
</trkpt>
<trkpt lat="-27.2744391" lon="151.2900641">
  <ele>343.01</ele>
  <time>2026-09-01T19:49:39Z</time>
  <course>10.76</course>
  <speed>0.022360679774997897</speed>
  <fix>3d</fix>
</trkpt>
<trkpt lat="-27.274439" lon="151.290064">
  <ele>343.1</ele>
  <time>2026-09-01T19:49:39Z</time>
  <course>270.0</course>
  <speed>0.0</speed>
  <fix>3d</fix>
</trkpt>
<trkpt lat="-27.2744391" lon="151.2900641">
  <ele>343.01</ele>
  <time>2026-09-01T19:49:39Z</time>
  <course>10.76</course>
  <speed>0.022360679774997897</speed>
  <fix>3d</fix>
</trkpt>
<trkpt lat="-27.274439" lon="151.290064">
  <ele>343.1</ele>
  <time>2026-09-01T19:49:39Z</time>
  <course>270.0</course>
  <speed>0.0</speed>
  <fix>3d</fix>
</trkpt>
<trkpt lat="-27.2744391" lon="151.2900641">
  <ele>343.0</ele>
  <time>2026-09-01T19:49:39Z</time>
  <course>10.76</course>
  <speed>0.022360679774997897</speed>
  <fix>3d</fix>
</trkpt>
<trkpt lat="-27.274439" lon="151.290064">
  <ele>343.1</ele>
  <time>2026-09-01T19:49:39Z</time>
  <course>270.0</course>
  <speed>0.0</speed>
  <fix>3d</fix>
</trkpt>
<trkpt lat="-27.2744391" lon="151.2900641">
  <ele>343.0</ele>
  <time>2026-09-01T19:49:39Z</time>
  <course>10.76</course>
  <speed>0.022360679774997897</speed>
  <fix>3d</fix>
</trkpt>
<trkpt lat="-27.274439" lon="151.290064">
  <ele>343.1</ele>
  <time>2026-09-01T19:49:39Z</time>
  <course>270.0</course>
  <speed>0.0</speed>
  <fix>3d</fix>
</trkpt>
<trkpt lat="-27.2744391" lon="151.2900641">
  <ele>343.09</ele>
  <time>2026-09-01T19:49:39Z</time>
  <course>10.76</course>
  <speed>0.022360679774997897</speed>
  <fix>3d</fix>
</trkpt>
<trkpt lat="-27.274439" lon="151.290064">
  <ele>343.1</ele>
  <time>2026-09-01T19:49:39Z</time>
  <course>270.0</course>
  <speed>0.0</speed>
  <fix>3d</fix>
</trkpt>
<trkpt lat="-27.2744391" lon="151.2900641">
  <ele>343.09</ele>
  <time>2026-09-01T19:49:39Z</time>
  <course>10.76</course>
  <speed>0.022360679774997897</speed>
  <fix>3d</fix>
</trkpt>
<trkpt lat="-27.274439" lon="151.290064">
  <ele>343.1</ele>
  <time>2026-09-01T19:49:39Z</time>
  <course>270.0</course>
  <speed>0.0</speed>
  <fix>3d</fix>
</trkpt>
<trkpt lat="-27.2744391" lon="151.2900641">
  <ele>343.09</ele>
  <time>2026-09-01T19:49:39Z</time>
  <course>10.76</course>
  <speed>0.022360679774997897</speed>
  <fix>3d</fix>
</trkpt>
<trkpt lat="-27.274439" lon="151.290064">
  <ele>343.1</ele>
  <time>2026-09-01T19:49:39Z</time>
  <course>270.0</course>
  <speed>0.0</speed>
  <fix>3d</fix>
</trkpt>
<trkpt lat="-27.2744391" lon="151.2900641">
  <ele>343.09</ele>
  <time>2026-09-01T19:49:39Z</time>
  <course>10.76</course>
  <speed>0.022360679774997897</speed>
  <fix>3d</fix>
</trkpt>
<trkpt lat="-27.274439" lon="151.290064">
  <ele>343.1</ele>
  <time>2026-09-01T19:49:39Z</time>
  <course>270.0</course>
  <speed>0.0</speed>
  <fix>3d</fix>
</trkpt>
<trkpt lat="-27.2744391" lon="151.2900641">
  <ele>343.09</ele>
  <time>2026-09-01T19:49:39Z</time>
  <course>10.76</course>
  <speed>0.022360679774997897</speed>
  <fix>3d</fix>
</trkpt>
<trkpt lat="-27.274439" lon="151.290064">
  <ele>343.1</ele>
  <time>2026-09-01T19:49:39Z</time>
  <course>270.0</course>
  <speed>0.0</speed>
  <fix>3d</fix>
</trkpt>
<trkpt lat="-27.2744391" lon="151.2900641">
  <ele>343.1</ele>
  <time>2026-09-01T19:49:39Z</time>
  <course>10.76</course>
  <speed>0.022360679774997897</speed>
  <fix>3d</fix>
</trkpt>
<trkpt lat="-27.274439" lon="151.290064">
  <ele>343.1</ele>
  <time>2026-09-01T19:49:39Z</time>
  <course>270.0</course>
  <speed>0.0</speed>
  <fix>3d</fix>
</trkpt>
<trkpt lat="-27.2744391" lon="151.2900641">
  <ele>343.1</ele>
  <time>2026-09-01T19:49:39Z</time>
  <course>10.76</course>
  <speed>0.022360679774997897</speed>
  <fix>3d</fix>
</trkpt>
<trkpt lat="-27.274439" lon="151.290064">
  <ele>343.1</ele>
  <time>2026-09-01T19:49:39Z</time>
  <course>270.0</course>
  <speed>0.0</speed>
  <fix>3d</fix>
</trkpt>
<trkpt lat="-27.2744391" lon="151.2900641">
  <ele>343.1</ele>
  <time>2026-09-01T19:49:39Z</time>
  <course>10.76</course>
  <speed>0.022360679774997897</speed>
  <fix>3d</fix>
</trkpt>
<trkpt lat="-27.274439" lon="151.290064">
  <ele>343.1</ele>
  <time>2026-09-01T19:49:39Z</time>
  <course>270.0</course>
  <speed>0.0</speed>
  <fix>3d</fix>
</trkpt>
<trkpt lat="-27.2744391" lon="151.2900641">
  <ele>343.11</ele>
  <time>2026-09-01T19:49:39Z</time>
  <course>10.76</course>
  <speed>0.022360679774997897</speed>
  <fix>3d</fix>
</trkpt>
<trkpt lat="-27.274439" lon="151.290064">
  <ele>343.1</ele>
  <time>2026-09-01T19:49:39Z</time>
  <course>270.0</course>
  <speed>0.0</speed>
  <fix>3d</fix>
</trkpt>
<trkpt lat="-27.2744391" lon="151.2900641">
  <ele>343.11</ele>
  <time>2026-09-01T19:49:39Z</time>
  <course>10.76</course>
  <speed>0.022360679774997897</speed>
  <fix>3d</fix>
</trkpt>
<trkpt lat="-27.274439" lon="151.290064">
  <ele>343.1</ele>
  <time>2026-09-01T19:49:39Z</time>
  <course>270.0</course>
  <speed>0.0</speed>
  <fix>3d</fix>
</trkpt>
<trkpt lat="-27.2744391" lon="151.2900641">
  <ele>343.12</ele>
  <time>2026-09-01T19:49:39Z</time>
  <course>10.76</course>
  <speed>0.022360679774997897</speed>
  <fix>3d</fix>
</trkpt>
<trkpt lat="-27.274439" lon="151.290064">
  <ele>343.1</ele>
  <time>2026-09-01T19:49:39Z</time>
  <course>270.0</course>
  <speed>0.0</speed>
  <fix>3d</fix>
</trkpt>
<trkpt lat="-27.2744391" lon="151.2900641">
  <ele>343.12</ele>
  <time>2026-09-01T19:49:39Z</time>
  <course>10.76</course>
  <speed>0.022360679774997897</speed>
  <fix>3d</fix>
</trkpt>
<trkpt lat="-27.274439" lon="151.290064">
  <ele>343.1</ele>
  <time>2026-09-01T19:49:39Z</time>
  <course>270.0</course>
  <speed>0.0</speed>
  <fix>3d</fix>
</trkpt>
<trkpt lat="-27.2744391" lon="151.2900641">
  <ele>343.12</ele>
  <time>2026-09-01T19:49:39Z</time>
  <course>10.77</course>
  <speed>0.022360679774997897</speed>
  <fix>3d</fix>
</trkpt>
<trkpt lat="-27.274439" lon="151.290064">
  <ele>343.1</ele>
  <time>2026-09-01T19:49:39Z</time>
  <course>270.0</course>
  <speed>0.0</speed>
  <fix>3d</fix>
</trkpt>
<trkpt lat="-27.2744391" lon="151.2900641">
  <ele>343.13</ele>
  <time>2026-09-01T19:49:39Z</time>
  <course>10.77</course>
  <speed>0.022360679774997897</speed>
  <fix>3d</fix>
</trkpt>
<trkpt lat="-27.274439" lon="151.290064">
  <ele>343.1</ele>
  <time>2026-09-01T19:49:39Z</time>
  <course>270.0</course>
  <speed>0.0</speed>
  <fix>3d</fix>
</trkpt>
<trkpt lat="-27.2744391" lon="151.2900641">
  <ele>343.13</ele>
  <time>2026-09-01T19:49:39Z</time>
  <course>10.77</course>
  <speed>0.022360679774997897</speed>
  <fix>3d</fix>
</trkpt>
<trkpt lat="-27.274439" lon="151.290064">
  <ele>343.1</ele>
  <time>2026-09-01T19:49:39Z</time>
  <course>270.0</course>
  <speed>0.0</speed>
  <fix>3d</fix>
</trkpt>
<trkpt lat="-27.2744391" lon="151.2900641">
  <ele>343.13</ele>
  <time>2026-09-01T19:49:39Z</time>
  <course>10.77</course>
  <speed>0.022360679774997897</speed>
  <fix>3d</fix>
</trkpt>
<trkpt lat="-27.274439" lon="151.290064">
  <ele>343.1</ele>
  <time>2026-09-01T19:49:39Z</time>
  <course>270.0</course>
  <speed>0.0</speed>
  <fix>3d</fix>
</trkpt>
<trkpt lat="-27.2744391" lon="151.2900641">
  <ele>343.14</ele>
  <time>2026-09-01T19:49:39Z</time>
  <course>10.77</course>
  <speed>0.022360679774997897</speed>
  <fix>3d</fix>
</trkpt>
<trkpt lat="-27.274439" lon="151.290064">
  <ele>343.1</ele>
  <time>2026-09-01T19:49:39Z</time>
  <course>270.0</course>
  <speed>0.0</speed>
  <fix>3d</fix>
</trkpt>
<trkpt lat="-27.2744391" lon="151.2900641">
  <ele>343.14</ele>
  <time>2026-09-01T19:49:39Z</time>
  <course>10.77</course>
  <speed>0.022360679774997897</speed>
  <fix>3d</fix>
</trkpt>
<trkpt lat="-27.274439" lon="151.290064">
  <ele>343.1</ele>
  <time>2026-09-01T19:49:39Z</time>
  <course>270.0</course>
  <speed>0.0</speed>
  <fix>3d</fix>
</trkpt>
<trkpt lat="-27.2744391" lon="151.2900641">
  <ele>343.14</ele>
  <time>2026-09-01T19:49:39Z</time>
  <course>10.77</course>
  <speed>0.022360679774997897</speed>
  <fix>3d</fix>
</trkpt>
<trkpt lat="-27.274439" lon="151.290064">
  <ele>343.1</ele>
  <time>2026-09-01T19:49:39Z</time>
  <course>270.0</course>
  <speed>0.0</speed>
  <fix>3d</fix>
</trkpt>
<trkpt lat="-27.2744391" lon="151.2900641">
  <ele>343.15</ele>
  <time>2026-09-01T19:49:39Z</time>
  <course>10.77</course>
  <speed>0.022360679774997897</speed>
  <fix>3d</fix>
</trkpt>
<trkpt lat="-27.274439" lon="151.290064">
  <ele>343.1</ele>
  <time>2026-09-01T19:49:39Z</time>
  <course>270.0</course>
  <speed>0.0</speed>
  <fix>3d</fix>
</trkpt>
<trkpt lat="-27.2744391" lon="151.2900641">
  <ele>343.15</ele>
  <time>2026-09-01T19:49:39Z</time>
  <course>10.77</course>
  <speed>0.022360679774997897</speed>
  <fix>3d</fix>
</trkpt>
<trkpt lat="-27.274439" lon="151.290064">
  <ele>343.1</ele>
  <time>2026-09-01T19:49:39Z</time>
  <course>270.0</course>
  <speed>0.0</speed>
  <fix>3d</fix>
</trkpt>
<trkpt lat="-27.2744391" lon="151.2900641">
  <ele>343.16</ele>
  <time>2026-09-01T19:49:39Z</time>
  <course>10.77</course>
  <speed>0.022360679774997897</speed>
  <fix>3d</fix>
</trkpt>
<trkpt lat="-27.274439" lon="151.290064">
  <ele>343.1</ele>
  <time>2026-09-01T19:49:39Z</time>
  <course>270.0</course>
  <speed>0.0</speed>
  <fix>3d</fix>
</trkpt>
<trkpt lat="-27.2744391" lon="151.2900641">
  <ele>343.16</ele>
  <time>2026-09-01T19:49:39Z</time>
  <course>10.77</course>
  <speed>0.022360679774997897</speed>
  <fix>3d</fix>
</trkpt>
<trkpt lat="-27.274439" lon="151.290064">
  <ele>343.1</ele>
  <time>2026-09-01T19:49:39Z</time>
  <course>270.0</course>
  <speed>0.0</speed>
  <fix>3d</fix>
</trkpt>
<trkpt lat="-27.2744391" lon="151.2900641">
  <ele>343.17</ele>
  <time>2026-09-01T19:49:39Z</time>
  <course>10.77</course>
  <speed>0.022360679774997897</speed>
  <fix>3d</fix>
</trkpt>
<trkpt lat="-27.274439" lon="151.290064">
  <ele>343.1</ele>
  <time>2026-09-01T19:49:39Z</time>
  <course>270.0</course>
  <speed>0.0</speed>
  <fix>3d</fix>
</trkpt>
<trkpt lat="-27.2744391" lon="151.2900641">
  <ele>343.17</ele>
  <time>2026-09-01T19:49:39Z</time>
  <course>10.77</course>
  <speed>0.022360679774997897</speed>
  <fix>3d</fix>
</trkpt>
<trkpt lat="-27.274439" lon="151.290064">
  <ele>343.1</ele>
  <time>2026-09-01T19:49:39Z</time>
  <course>270.0</course>
  <speed>0.0</speed>
  <fix>3d</fix>
</trkpt>
<trkpt lat="-27.2744391" lon="151.2900641">
  <ele>343.18</ele>
  <time>2026-09-01T19:49:39Z</time>
  <course>10.77</course>
  <speed>0.022360679774997897</speed>
  <fix>3d</fix>
</trkpt>
<trkpt lat="-27.274439" lon="151.290064">
  <ele>343.1</ele>
  <time>2026-09-01T19:49:39Z</time>
  <course>270.0</course>
  <speed>0.0</speed>
  <fix>3d</fix>
</trkpt>
<trkpt lat="-27.2744391" lon="151.2900641">
  <ele>343.18</ele>
  <time>2026-09-01T19:49:39Z</time>
  <course>10.77</course>
  <speed>0.022360679774997897</speed>
  <fix>3d</fix>
</trkpt>
<trkpt lat="-27.274439" lon="151.290064">
  <ele>343.1</ele>
  <time>2026-09-01T19:49:39Z</time>
  <course>270.0</course>
  <speed>0.0</speed>
  <fix>3d</fix>
</trkpt>
<trkpt lat="-27.2744391" lon="151.2900641">
  <ele>343.18</ele>
  <time>2026-09-01T19:49:39Z</time>
  <course>10.77</course>
  <speed>0.022360679774997897</speed>
  <fix>3d</fix>
</trkpt>
<trkpt lat="-27.274439" lon="151.290064">
  <ele>343.1</ele>
  <time>2026-09-01T19:49:39Z</time>
  <course>270.0</course>
  <speed>0.0</speed>
  <fix>3d</fix>
</trkpt>
<trkpt lat="-27.2744391" lon="151.2900641">
  <ele>343.19</ele>
  <time>2026-09-01T19:49:39Z</time>
  <course>10.77</course>
  <speed>0.022360679774997897</speed>
  <fix>3d</fix>
</trkpt>
<trkpt lat="-27.274439" lon="151.290064">
  <ele>343.1</ele>
  <time>2026-09-01T19:49:39Z</time>
  <course>270.0</course>
  <speed>0.0</speed>
  <fix>3d</fix>
</trkpt>
<trkpt lat="-27.2744391" lon="151.2900641">
  <ele>343.19</ele>
  <time>2026-09-01T19:49:39Z</time>
  <course>10.77</course>
  <speed>0.022360679774997897</speed>
  <fix>3d</fix>
</trkpt>
<trkpt lat="-27.274439" lon="151.290064">
  <ele>343.1</ele>
  <time>2026-09-01T19:49:39Z</time>
  <course>270.0</course>
  <speed>0.0</speed>
  <fix>3d</fix>
</trkpt>
<trkpt lat="-27.2744391" lon="151.2900641">
  <ele>343.19</ele>
  <time>2026-09-01T19:49:39Z</time>
  <course>10.77</course>
  <speed>0.022360679774997897</speed>
  <fix>3d</fix>
</trkpt>
<trkpt lat="-27.274439" lon="151.290064">
  <ele>343.1</ele>
  <time>2026-09-01T19:49:39Z</time>
  <course>270.0</course>
  <speed>0.0</speed>
  <fix>3d</fix>
</trkpt>
<trkpt lat="-27.2744391" lon="151.2900641">
  <ele>343.19</ele>
  <time>2026-09-01T19:49:39Z</time>
  <course>10.77</course>
  <speed>0.022360679774997897</speed>
  <fix>3d</fix>
</trkpt>
<trkpt lat="-27.274439" lon="151.290064">
  <ele>343.1</ele>
  <time>2026-09-01T19:49:39Z</time>
  <course>270.0</course>
  <speed>0.0</speed>
  <fix>3d</fix>
</trkpt>
<trkpt lat="-27.2744391" lon="151.2900641">
  <ele>343.19</ele>
  <time>2026-09-01T19:49:39Z</time>
  <course>10.77</course>
  <speed>0.022360679774997897</speed>
  <fix>3d</fix>
</trkpt>
<trkpt lat="-27.274439" lon="151.290064">
  <ele>343.1</ele>
  <time>2026-09-01T19:49:39Z</time>
  <course>270.0</course>
  <speed>0.0</speed>
  <fix>3d</fix>
</trkpt>
<trkpt lat="-27.2744391" lon="151.2900641">
  <ele>343.19</ele>
  <time>2026-09-01T19:49:39Z</time>
  <course>10.77</course>
  <speed>0.022360679774997897</speed>
  <fix>3d</fix>
</trkpt>
<trkpt lat="-27.274439" lon="151.290064">
  <ele>343.1</ele>
  <time>2026-09-01T19:49:39Z</time>
  <course>270.0</course>
  <speed>0.0</speed>
  <fix>3d</fix>
</trkpt>
<trkpt lat="-27.2744391" lon="151.2900641">
  <ele>343.2</ele>
  <time>2026-09-01T19:49:39Z</time>
  <course>10.78</course>
  <speed>0.022360679774997897</speed>
  <fix>3d</fix>
</trkpt>
<trkpt lat="-27.274439" lon="151.290064">
  <ele>343.1</ele>
  <time>2026-09-01T19:49:39Z</time>
  <course>270.0</course>
  <speed>0.0</speed>
  <fix>3d</fix>
</trkpt>
<trkpt lat="-27.2744391" lon="151.2900641">
  <ele>343.2</ele>
  <time>2026-09-01T19:49:39Z</time>
  <course>10.78</course>
  <speed>0.022360679774997897</speed>
  <fix>3d</fix>
</trkpt>
<trkpt lat="-27.274439" lon="151.290064">
  <ele>343.1</ele>
  <time>2026-09-01T19:49:39Z</time>
  <course>270.0</course>
  <speed>0.0</speed>
  <fix>3d</fix>
</trkpt>
<trkpt lat="-27.2744391" lon="151.2900641">
  <ele>343.2</ele>
  <time>2026-09-01T19:49:39Z</time>
  <course>10.78</course>
  <speed>0.022360679774997897</speed>
  <fix>3d</fix>
</trkpt>
<trkpt lat="-27.274439" lon="151.290064">
  <ele>343.1</ele>
  <time>2026-09-01T19:49:39Z</time>
  <course>270.0</course>
  <speed>0.0</speed>
  <fix>3d</fix>
</trkpt>
<trkpt lat="-27.2744391" lon="151.2900641">
  <ele>343.2</ele>
  <time>2026-09-01T19:49:39Z</time>
  <course>10.78</course>
  <speed>0.022360679774997897</speed>
  <fix>3d</fix>
</trkpt>
<trkpt lat="-27.274439" lon="151.290064">
  <ele>343.1</ele>
  <time>2026-09-01T19:49:39Z</time>
  <course>270.0</course>
  <speed>0.0</speed>
  <fix>3d</fix>
</trkpt>
<trkpt lat="-27.2744391" lon="151.2900641">
  <ele>343.2</ele>
  <time>2026-09-01T19:49:39Z</time>
  <course>10.78</course>
  <speed>0.022360679774997897</speed>
  <fix>3d</fix>
</trkpt>
<trkpt lat="-27.274439" lon="151.290064">
  <ele>343.1</ele>
  <time>2026-09-01T19:49:39Z</time>
  <course>270.0</course>
  <speed>0.0</speed>
  <fix>3d</fix>
</trkpt>
<trkpt lat="-27.2744391" lon="151.2900641">
  <ele>343.2</ele>
  <time>2026-09-01T19:49:39Z</time>
  <course>10.78</course>
  <speed>0.022360679774997897</speed>
  <fix>3d</fix>
</trkpt>
<trkpt lat="-27.274439" lon="151.290064">
  <ele>343.1</ele>
  <time>2026-09-01T19:49:39Z</time>
  <course>270.0</course>
  <speed>0.0</speed>
  <fix>3d</fix>
</trkpt>
<trkpt lat="-27.2744391" lon="151.2900641">
  <ele>343.2</ele>
  <time>2026-09-01T19:49:39Z</time>
  <course>10.78</course>
  <speed>0.022360679774997897</speed>
  <fix>3d</fix>
</trkpt>
<trkpt lat="-27.274439" lon="151.290064">
  <ele>343.1</ele>
  <time>2026-09-01T19:49:39Z</time>
  <course>270.0</course>
  <speed>0.0</speed>
  <fix>3d</fix>
</trkpt>
<trkpt lat="-27.2744391" lon="151.2900641">
  <ele>343.2</ele>
  <time>2026-09-01T19:49:39Z</time>
  <course>10.78</course>
  <speed>0.022360679774997897</speed>
  <fix>3d</fix>
</trkpt>
<trkpt lat="-27.274439" lon="151.290064">
  <ele>343.1</ele>
  <time>2026-09-01T19:49:39Z</time>
  <course>270.0</course>
  <speed>0.0</speed>
  <fix>3d</fix>
</trkpt>
<trkpt lat="-27.2744391" lon="151.2900641">
  <ele>343.2</ele>
  <time>2026-09-01T19:49:39Z</time>
  <course>10.78</course>
  <speed>0.022360679774997897</speed>
  <fix>3d</fix>
</trkpt>
<trkpt lat="-27.274439" lon="151.290064">
  <ele>343.1</ele>
  <time>2026-09-01T19:49:39Z</time>
  <course>270.0</course>
  <speed>0.0</speed>
  <fix>3d</fix>
</trkpt>
<trkpt lat="-27.2744391" lon="151.2900641">
  <ele>343.2</ele>
  <time>2026-09-01T19:49:39Z</time>
  <course>10.78</course>
  <speed>0.022360679774997897</speed>
  <fix>3d</fix>
</trkpt>
<trkpt lat="-27.274439" lon="151.290064">
  <ele>343.1</ele>
  <time>2026-09-01T19:49:39Z</time>
  <course>270.0</course>
  <speed>0.0</speed>
  <fix>3d</fix>
</trkpt>
<trkpt lat="-27.2744391" lon="151.2900641">
  <ele>343.2</ele>
  <time>2026-09-01T19:49:39Z</time>
  <course>10.78</course>
  <speed>0.022360679774997897</speed>
  <fix>3d</fix>
</trkpt>
<trkpt lat="-27.274439" lon="151.290064">
  <ele>343.1</ele>
  <time>2026-09-01T19:49:39Z</time>
  <course>270.0</course>
  <speed>0.0</speed>
  <fix>3d</fix>
</trkpt>
<trkpt lat="-27.2744391" lon="151.2900641">
  <ele>343.2</ele>
  <time>2026-09-01T19:49:39Z</time>
  <course>10.78</course>
  <speed>0.022360679774997897</speed>
  <fix>3d</fix>
</trkpt>
<trkpt lat="-27.274439" lon="151.290064">
  <ele>343.1</ele>
  <time>2026-09-01T19:49:39Z</time>
  <course>270.0</course>
  <speed>0.0</speed>
  <fix>3d</fix>
</trkpt>
<trkpt lat="-27.2744391" lon="151.2900641">
  <ele>343.2</ele>
  <time>2026-09-01T19:49:39Z</time>
  <course>10.78</course>
  <speed>0.022360679774997897</speed>
  <fix>3d</fix>
</trkpt>
<trkpt lat="-27.274439" lon="151.290064">
  <ele>343.1</ele>
  <time>2026-09-01T19:49:39Z</time>
  <course>270.0</course>
  <speed>0.0</speed>
  <fix>3d</fix>
</trkpt>
<trkpt lat="-27.2744391" lon="151.2900641">
  <ele>343.2</ele>
  <time>2026-09-01T19:49:39Z</time>
  <course>10.78</course>
  <speed>0.022360679774997897</speed>
  <fix>3d</fix>
</trkpt>
<trkpt lat="-27.274439" lon="151.290064">
  <ele>343.1</ele>
  <time>2026-09-01T19:49:39Z</time>
  <course>270.0</course>
  <speed>0.0</speed>
  <fix>3d</fix>
</trkpt>
<trkpt lat="-27.2744391" lon="151.2900641">
  <ele>343.2</ele>
  <time>2026-09-01T19:49:39Z</time>
  <course>10.78</course>
  <speed>0.022360679774997897</speed>
  <fix>3d</fix>
</trkpt>
<trkpt lat="-27.274439" lon="151.290064">
  <ele>343.1</ele>
  <time>2026-09-01T19:49:39Z</time>
  <course>270.0</course>
  <speed>0.0</speed>
  <fix>3d</fix>
</trkpt>
<trkpt lat="-27.2744391" lon="151.2900641">
  <ele>343.2</ele>
  <time>2026-09-01T19:49:39Z</time>
  <course>10.78</course>
  <speed>0.022360679774997897</speed>
  <fix>3d</fix>
</trkpt>
<trkpt lat="-27.274439" lon="151.290064">
  <ele>343.1</ele>
  <time>2026-09-01T19:49:39Z</time>
  <course>270.0</course>
  <speed>0.0</speed>
  <fix>3d</fix>
</trkpt>
<trkpt lat="-27.2744391" lon="151.2900641">
  <ele>343.2</ele>
  <time>2026-09-01T19:49:39Z</time>
  <course>10.78</course>
  <speed>0.022360679774997897</speed>
  <fix>3d</fix>
</trkpt>
<trkpt lat="-27.274439" lon="151.290064">
  <ele>343.1</ele>
  <time>2026-09-01T19:49:39Z</time>
  <course>270.0</course>
  <speed>0.0</speed>
  <fix>3d</fix>
</trkpt>
<trkpt lat="-27.2744391" lon="151.2900641">
  <ele>343.2</ele>
  <time>2026-09-01T19:49:39Z</time>
  <course>10.78</course>
  <speed>0.022360679774997897</speed>
  <fix>3d</fix>
</trkpt>
<trkpt lat="-27.274439" lon="151.290064">
  <ele>343.1</ele>
  <time>2026-09-01T19:49:39Z</time>
  <course>270.0</course>
  <speed>0.0</speed>
  <fix>3d</fix>
</trkpt>
<trkpt lat="-27.2744391" lon="151.2900641">
  <ele>343.2</ele>
  <time>2026-09-01T19:49:39Z</time>
  <course>10.79</course>
  <speed>0.022360679774997897</speed>
  <fix>3d</fix>
</trkpt>
<trkpt lat="-27.274439" lon="151.290064">
  <ele>343.1</ele>
  <time>2026-09-01T19:49:39Z</time>
  <course>270.0</course>
  <speed>0.0</speed>
  <fix>3d</fix>
</trkpt>
<trkpt lat="-27.2744391" lon="151.2900641">
  <ele>343.2</ele>
  <time>2026-09-01T19:49:39Z</time>
  <course>10.79</course>
  <speed>0.022360679774997897</speed>
  <fix>3d</fix>
</trkpt>
<trkpt lat="-27.274439" lon="151.290064">
  <ele>343.1</ele>
  <time>2026-09-01T19:49:39Z</time>
  <course>270.0</course>
  <speed>0.0</speed>
  <fix>3d</fix>
</trkpt>
<trkpt lat="-27.2744391" lon="151.2900641">
  <ele>343.2</ele>
  <time>2026-09-01T19:49:39Z</time>
  <course>10.79</course>
  <speed>0.022360679774997897</speed>
  <fix>3d</fix>
</trkpt>
<trkpt lat="-27.274439" lon="151.290064">
  <ele>343.1</ele>
  <time>2026-09-01T19:49:39Z</time>
  <course>270.0</course>
  <speed>0.0</speed>
  <fix>3d</fix>
</trkpt>
<trkpt lat="-27.2744391" lon="151.2900641">
  <ele>343.2</ele>
  <time>2026-09-01T19:49:39Z</time>
  <course>10.79</course>
  <speed>0.022360679774997897</speed>
  <fix>3d</fix>
</trkpt>
<trkpt lat="-27.274439" lon="151.290064">
  <ele>343.1</ele>
  <time>2026-09-01T19:49:39Z</time>
  <course>270.0</course>
  <speed>0.0</speed>
  <fix>3d</fix>
</trkpt>
<trkpt lat="-27.2744391" lon="151.2900641">
  <ele>343.2</ele>
  <time>2026-09-01T19:49:39Z</time>
  <course>10.79</course>
  <speed>0.022360679774997897</speed>
  <fix>3d</fix>
</trkpt>
<trkpt lat="-27.274439" lon="151.290064">
  <ele>343.1</ele>
  <time>2026-09-01T19:49:39Z</time>
  <course>270.0</course>
  <speed>0.0</speed>
  <fix>3d</fix>
</trkpt>
<trkpt lat="-27.2744391" lon="151.2900641">
  <ele>343.19</ele>
  <time>2026-09-01T19:49:39Z</time>
  <course>10.79</course>
  <speed>0.022360679774997897</speed>
  <fix>3d</fix>
</trkpt>
<trkpt lat="-27.274439" lon="151.290064">
  <ele>343.1</ele>
  <time>2026-09-01T19:49:39Z</time>
  <course>270.0</course>
  <speed>0.0</speed>
  <fix>3d</fix>
</trkpt>
<trkpt lat="-27.2744391" lon="151.2900641">
  <ele>343.19</ele>
  <time>2026-09-01T19:49:39Z</time>
  <course>10.79</course>
  <speed>0.022360679774997897</speed>
  <fix>3d</fix>
</trkpt>
<trkpt lat="-27.274439" lon="151.290064">
  <ele>343.1</ele>
  <time>2026-09-01T19:49:39Z</time>
  <course>270.0</course>
  <speed>0.0</speed>
  <fix>3d</fix>
</trkpt>
<trkpt lat="-27.2744391" lon="151.2900641">
  <ele>343.19</ele>
  <time>2026-09-01T19:49:39Z</time>
  <course>10.79</course>
  <speed>0.022360679774997897</speed>
  <fix>3d</fix>
</trkpt>
<trkpt lat="-27.274439" lon="151.290064">
  <ele>343.1</ele>
  <time>2026-09-01T19:49:39Z</time>
  <course>270.0</course>
  <speed>0.0</speed>
  <fix>3d</fix>
</trkpt>
<trkpt lat="-27.2744391" lon="151.2900641">
  <ele>343.09</ele>
  <time>2026-09-01T19:49:39Z</time>
  <course>10.79</course>
  <speed>0.022360679774997897</speed>
  <fix>3d</fix>
</trkpt>
<trkpt lat="-27.274439" lon="151.290064">
  <ele>343.1</ele>
  <time>2026-09-01T19:49:39Z</time>
  <course>270.0</course>
  <speed>0.0</speed>
  <fix>3d</fix>
</trkpt>
<trkpt lat="-27.2744391" lon="151.2900641">
  <ele>343.1</ele>
  <time>2026-09-01T19:49:39Z</time>
  <course>10.79</course>
  <speed>0.022360679774997897</speed>
  <fix>3d</fix>
</trkpt>
<trkpt lat="-27.274439" lon="151.290064">
  <ele>343.1</ele>
  <time>2026-09-01T19:49:39Z</time>
  <course>270.0</course>
  <speed>0.0</speed>
  <fix>3d</fix>
</trkpt>
<trkpt lat="-27.2744391" lon="151.2900641">
  <ele>343.1</ele>
  <time>2026-09-01T19:49:39Z</time>
  <course>10.79</course>
  <speed>0.022360679774997897</speed>
  <fix>3d</fix>
</trkpt>
<trkpt lat="-27.274439" lon="151.290064">
  <ele>343.1</ele>
  <time>2026-09-01T19:49:39Z</time>
  <course>270.0</course>
  <speed>0.0</speed>
  <fix>3d</fix>
</trkpt>
<trkpt lat="-27.2744391" lon="151.2900641">
  <ele>343.1</ele>
  <time>2026-09-01T19:49:39Z</time>
  <course>10.79</course>
  <speed>0.022360679774997897</speed>
  <fix>3d</fix>
</trkpt>
<trkpt lat="-27.274439" lon="151.290064">
  <ele>343.1</ele>
  <time>2026-09-01T19:49:39Z</time>
  <course>270.0</course>
  <speed>0.0</speed>
  <fix>3d</fix>
</trkpt>
<trkpt lat="-27.2744391" lon="151.2900641">
  <ele>343.1</ele>
  <time>2026-09-01T19:49:39Z</time>
  <course>10.79</course>
  <speed>0.022360679774997897</speed>
  <fix>3d</fix>
</trkpt>
<trkpt lat="-27.274439" lon="151.290064">
  <ele>343.1</ele>
  <time>2026-09-01T19:49:39Z</time>
  <course>270.0</course>
  <speed>0.0</speed>
  <fix>3d</fix>
</trkpt>
<trkpt lat="-27.2744391" lon="151.2900641">
  <ele>343.1</ele>
  <time>2026-09-01T19:49:39Z</time>
  <course>10.79</course>
  <speed>0.022360679774997897</speed>
  <fix>3d</fix>
</trkpt>
<trkpt lat="-27.274439" lon="151.290064">
  <ele>343.1</ele>
  <time>2026-09-01T19:49:39Z</time>
  <course>270.0</course>
  <speed>0.0</speed>
  <fix>3d</fix>
</trkpt>
<trkpt lat="-27.2744391" lon="151.2900641">
  <ele>343.11</ele>
  <time>2026-09-01T19:49:39Z</time>
  <course>10.79</course>
  <speed>0.022360679774997897</speed>
  <fix>3d</fix>
</trkpt>
<trkpt lat="-27.274439" lon="151.290064">
  <ele>343.1</ele>
  <time>2026-09-01T19:49:39Z</time>
  <course>270.0</course>
  <speed>0.0</speed>
  <fix>3d</fix>
</trkpt>
<trkpt lat="-27.2744391" lon="151.2900641">
  <ele>343.11</ele>
  <time>2026-09-01T19:49:39Z</time>
  <course>10.8</course>
  <speed>0.022360679774997897</speed>
  <fix>3d</fix>
</trkpt>
<trkpt lat="-27.274439" lon="151.290064">
  <ele>343.1</ele>
  <time>2026-09-01T19:49:39Z</time>
  <course>270.0</course>
  <speed>0.0</speed>
  <fix>3d</fix>
</trkpt>
<trkpt lat="-27.2744391" lon="151.2900641">
  <ele>343.11</ele>
  <time>2026-09-01T19:49:39Z</time>
  <course>10.8</course>
  <speed>0.022360679774997897</speed>
  <fix>3d</fix>
</trkpt>
<trkpt lat="-27.274439" lon="151.290064">
  <ele>343.1</ele>
  <time>2026-09-01T19:49:39Z</time>
  <course>270.0</course>
  <speed>0.0</speed>
  <fix>3d</fix>
</trkpt>
<trkpt lat="-27.2744391" lon="151.2900641">
  <ele>343.11</ele>
  <time>2026-09-01T19:49:39Z</time>
  <course>10.8</course>
  <speed>0.022360679774997897</speed>
  <fix>3d</fix>
</trkpt>
<trkpt lat="-27.274439" lon="151.290064">
  <ele>343.1</ele>
  <time>2026-09-01T19:49:39Z</time>
  <course>270.0</course>
  <speed>0.0</speed>
  <fix>3d</fix>
</trkpt>
<trkpt lat="-27.2744391" lon="151.2900641">
  <ele>343.12</ele>
  <time>2026-09-01T19:49:39Z</time>
  <course>10.8</course>
  <speed>0.022360679774997897</speed>
  <fix>3d</fix>
</trkpt>
<trkpt lat="-27.274439" lon="151.290064">
  <ele>343.1</ele>
  <time>2026-09-01T19:49:39Z</time>
  <course>270.0</course>
  <speed>0.0</speed>
  <fix>3d</fix>
</trkpt>
<trkpt lat="-27.2744391" lon="151.2900641">
  <ele>343.12</ele>
  <time>2026-09-01T19:49:39Z</time>
  <course>10.8</course>
  <speed>0.022360679774997897</speed>
  <fix>3d</fix>
</trkpt>
<trkpt lat="-27.274439" lon="151.290064">
  <ele>343.1</ele>
  <time>2026-09-01T19:49:39Z</time>
  <course>270.0</course>
  <speed>0.0</speed>
  <fix>3d</fix>
</trkpt>
<trkpt lat="-27.2744391" lon="151.2900641">
  <ele>343.12</ele>
  <time>2026-09-01T19:49:39Z</time>
  <course>10.8</course>
  <speed>0.022360679774997897</speed>
  <fix>3d</fix>
</trkpt>
<trkpt lat="-27.274439" lon="151.290064">
  <ele>343.1</ele>
  <time>2026-09-01T19:49:39Z</time>
  <course>270.0</course>
  <speed>0.0</speed>
  <fix>3d</fix>
</trkpt>
<trkpt lat="-27.2744391" lon="151.2900641">
  <ele>343.12</ele>
  <time>2026-09-01T19:49:39Z</time>
  <course>10.8</course>
  <speed>0.022360679774997897</speed>
  <fix>3d</fix>
</trkpt>
<trkpt lat="-27.274439" lon="151.290064">
  <ele>343.1</ele>
  <time>2026-09-01T19:49:39Z</time>
  <course>270.0</course>
  <speed>0.0</speed>
  <fix>3d</fix>
</trkpt>
<trkpt lat="-27.2744391" lon="151.2900641">
  <ele>343.12</ele>
  <time>2026-09-01T19:49:39Z</time>
  <course>10.8</course>
  <speed>0.022360679774997897</speed>
  <fix>3d</fix>
</trkpt>
<trkpt lat="-27.274439" lon="151.290064">
  <ele>343.1</ele>
  <time>2026-09-01T19:49:39Z</time>
  <course>270.0</course>
  <speed>0.0</speed>
  <fix>3d</fix>
</trkpt>
<trkpt lat="-27.2744391" lon="151.2900641">
  <ele>343.12</ele>
  <time>2026-09-01T19:49:39Z</time>
  <course>10.8</course>
  <speed>0.022360679774997897</speed>
  <fix>3d</fix>
</trkpt>
<trkpt lat="-27.274439" lon="151.290064">
  <ele>343.1</ele>
  <time>2026-09-01T19:49:39Z</time>
  <course>270.0</course>
  <speed>0.0</speed>
  <fix>3d</fix>
</trkpt>
<trkpt lat="-27.2744391" lon="151.2900641">
  <ele>343.11</ele>
  <time>2026-09-01T19:49:39Z</time>
  <course>10.8</course>
  <speed>0.022360679774997897</speed>
  <fix>3d</fix>
</trkpt>
<trkpt lat="-27.274439" lon="151.290064">
  <ele>343.1</ele>
  <time>2026-09-01T19:49:39Z</time>
  <course>270.0</course>
  <speed>0.0</speed>
  <fix>3d</fix>
</trkpt>
<trkpt lat="-27.2744391" lon="151.2900641">
  <ele>343.11</ele>
  <time>2026-09-01T19:49:39Z</time>
  <course>10.8</course>
  <speed>0.022360679774997897</speed>
  <fix>3d</fix>
</trkpt>
<trkpt lat="-27.274439" lon="151.290064">
  <ele>343.1</ele>
  <time>2026-09-01T19:49:39Z</time>
  <course>270.0</course>
  <speed>0.0</speed>
  <fix>3d</fix>
</trkpt>
<trkpt lat="-27.2744391" lon="151.2900641">
  <ele>343.11</ele>
  <time>2026-09-01T19:49:39Z</time>
  <course>10.8</course>
  <speed>0.022360679774997897</speed>
  <fix>3d</fix>
</trkpt>
<trkpt lat="-27.274439" lon="151.290064">
  <ele>343.1</ele>
  <time>2026-09-01T19:49:39Z</time>
  <course>270.0</course>
  <speed>0.0</speed>
  <fix>3d</fix>
</trkpt>
<trkpt lat="-27.2744391" lon="151.2900641">
  <ele>343.11</ele>
  <time>2026-09-01T19:49:39Z</time>
  <course>10.8</course>
  <speed>0.022360679774997897</speed>
  <fix>3d</fix>
</trkpt>
<trkpt lat="-27.274439" lon="151.290064">
  <ele>343.1</ele>
  <time>2026-09-01T19:49:39Z</time>
  <course>270.0</course>
  <speed>0.0</speed>
  <fix>3d</fix>
</trkpt>
<trkpt lat="-27.2744391" lon="151.2900641">
  <ele>343.11</ele>
  <time>2026-09-01T19:49:39Z</time>
  <course>10.8</course>
  <speed>0.022360679774997897</speed>
  <fix>3d</fix>
</trkpt>
<trkpt lat="-27.274439" lon="151.290064">
  <ele>343.1</ele>
  <time>2026-09-01T19:49:39Z</time>
  <course>270.0</course>
  <speed>0.0</speed>
  <fix>3d</fix>
</trkpt>
<trkpt lat="-27.2744391" lon="151.2900641">
  <ele>343.11</ele>
  <time>2026-09-01T19:49:39Z</time>
  <course>10.8</course>
  <speed>0.022360679774997897</speed>
  <fix>3d</fix>
</trkpt>
<trkpt lat="-27.274439" lon="151.290064">
  <ele>343.1</ele>
  <time>2026-09-01T19:49:39Z</time>
  <course>270.0</course>
  <speed>0.0</speed>
  <fix>3d</fix>
</trkpt>
<trkpt lat="-27.2744391" lon="151.2900641">
  <ele>343.11</ele>
  <time>2026-09-01T19:49:39Z</time>
  <course>10.8</course>
  <speed>0.022360679774997897</speed>
  <fix>3d</fix>
</trkpt>
<trkpt lat="-27.274439" lon="151.290064">
  <ele>343.1</ele>
  <time>2026-09-01T19:49:39Z</time>
  <course>270.0</course>
  <speed>0.0</speed>
  <fix>3d</fix>
</trkpt>
<trkpt lat="-27.2744391" lon="151.2900641">
  <ele>343.11</ele>
  <time>2026-09-01T19:49:39Z</time>
  <course>10.8</course>
  <speed>0.022360679774997897</speed>
  <fix>3d</fix>
</trkpt>
<trkpt lat="-27.274439" lon="151.290064">
  <ele>343.1</ele>
  <time>2026-09-01T19:49:39Z</time>
  <course>270.0</course>
  <speed>0.0</speed>
  <fix>3d</fix>
</trkpt>
<trkpt lat="-27.2744391" lon="151.2900641">
  <ele>343.1</ele>
  <time>2026-09-01T19:49:39Z</time>
  <course>10.81</course>
  <speed>0.022360679774997897</speed>
  <fix>3d</fix>
</trkpt>
<trkpt lat="-27.274439" lon="151.290064">
  <ele>343.1</ele>
  <time>2026-09-01T19:49:39Z</time>
  <course>270.0</course>
  <speed>0.0</speed>
  <fix>3d</fix>
</trkpt>
<trkpt lat="-27.2744391" lon="151.2900641">
  <ele>343.1</ele>
  <time>2026-09-01T19:49:39Z</time>
  <course>10.81</course>
  <speed>0.022360679774997897</speed>
  <fix>3d</fix>
</trkpt>
<trkpt lat="-27.274439" lon="151.290064">
  <ele>343.1</ele>
  <time>2026-09-01T19:49:39Z</time>
  <course>270.0</course>
  <speed>0.0</speed>
  <fix>3d</fix>
</trkpt>
<trkpt lat="-27.2744391" lon="151.2900641">
  <ele>343.1</ele>
  <time>2026-09-01T19:49:39Z</time>
  <course>10.81</course>
  <speed>0.022360679774997897</speed>
  <fix>3d</fix>
</trkpt>
<trkpt lat="-27.274439" lon="151.290064">
  <ele>343.1</ele>
  <time>2026-09-01T19:49:39Z</time>
  <course>270.0</course>
  <speed>0.0</speed>
  <fix>3d</fix>
</trkpt>
<trkpt lat="-27.2744391" lon="151.2900641">
  <ele>343.1</ele>
  <time>2026-09-01T19:49:39Z</time>
  <course>10.81</course>
  <speed>0.022360679774997897</speed>
  <fix>3d</fix>
</trkpt>
<trkpt lat="-27.274439" lon="151.290064">
  <ele>343.1</ele>
  <time>2026-09-01T19:49:39Z</time>
  <course>270.0</course>
  <speed>0.0</speed>
  <fix>3d</fix>
</trkpt>
<trkpt lat="-27.2744391" lon="151.2900641">
  <ele>343.1</ele>
  <time>2026-09-01T19:49:39Z</time>
  <course>10.81</course>
  <speed>0.022360679774997897</speed>
  <fix>3d</fix>
</trkpt>
<trkpt lat="-27.274439" lon="151.290064">
  <ele>343.1</ele>
  <time>2026-09-01T19:49:39Z</time>
  <course>270.0</course>
  <speed>0.0</speed>
  <fix>3d</fix>
</trkpt>
<trkpt lat="-27.2744392" lon="151.2900641">
  <ele>343.1</ele>
  <time>2026-09-01T19:49:39Z</time>
  <course>10.81</course>
  <speed>0.022360679774997897</speed>
  <fix>3d</fix>
</trkpt>
<trkpt lat="-27.274439" lon="151.290064">
  <ele>343.1</ele>
  <time>2026-09-01T19:49:39Z</time>
  <course>270.0</course>
  <speed>0.0</speed>
  <fix>3d</fix>
</trkpt>
<trkpt lat="-27.2744391" lon="151.2900641">
  <ele>343.1</ele>
  <time>2026-09-01T19:49:39Z</time>
  <course>10.81</course>
  <speed>0.022360679774997897</speed>
  <fix>3d</fix>
</trkpt>
<trkpt lat="-27.274439" lon="151.290064">
  <ele>343.1</ele>
  <time>2026-09-01T19:49:39Z</time>
  <course>270.0</course>
  <speed>0.0</speed>
  <fix>3d</fix>
</trkpt>
<trkpt lat="-27.2744392" lon="151.2900641">
  <ele>343.1</ele>
  <time>2026-09-01T19:49:39Z</time>
  <course>10.81</course>
  <speed>0.022360679774997897</speed>
  <fix>3d</fix>
</trkpt>
<trkpt lat="-27.274439" lon="151.290064">
  <ele>343.1</ele>
  <time>2026-09-01T19:49:39Z</time>
  <course>270.0</course>
  <speed>0.0</speed>
  <fix>3d</fix>
</trkpt>
<trkpt lat="-27.2744391" lon="151.2900641">
  <ele>343.09</ele>
  <time>2026-09-01T19:49:39Z</time>
  <course>10.81</course>
  <speed>0.022360679774997897</speed>
  <fix>3d</fix>
</trkpt>
<trkpt lat="-27.274439" lon="151.290064">
  <ele>343.1</ele>
  <time>2026-09-01T19:49:39Z</time>
  <course>270.0</course>
  <speed>0.0</speed>
  <fix>3d</fix>
</trkpt>
<trkpt lat="-27.2744392" lon="151.2900641">
  <ele>343.09</ele>
  <time>2026-09-01T19:49:39Z</time>
  <course>10.81</course>
  <speed>0.022360679774997897</speed>
  <fix>3d</fix>
</trkpt>
<trkpt lat="-27.274439" lon="151.290064">
  <ele>343.1</ele>
  <time>2026-09-01T19:49:39Z</time>
  <course>270.0</course>
  <speed>0.0</speed>
  <fix>3d</fix>
</trkpt>
<trkpt lat="-27.2744391" lon="151.2900641">
  <ele>343.09</ele>
  <time>2026-09-01T19:49:39Z</time>
  <course>10.81</course>
  <speed>0.022360679774997897</speed>
  <fix>3d</fix>
</trkpt>
<trkpt lat="-27.274439" lon="151.290064">
  <ele>343.1</ele>
  <time>2026-09-01T19:49:39Z</time>
  <course>270.0</course>
  <speed>0.0</speed>
  <fix>3d</fix>
</trkpt>
<trkpt lat="-27.2744392" lon="151.2900641">
  <ele>343.09</ele>
  <time>2026-09-01T19:49:39Z</time>
  <course>10.81</course>
  <speed>0.022360679774997897</speed>
  <fix>3d</fix>
</trkpt>
<trkpt lat="-27.274439" lon="151.290064">
  <ele>343.1</ele>
  <time>2026-09-01T19:49:39Z</time>
  <course>270.0</course>
  <speed>0.0</speed>
  <fix>3d</fix>
</trkpt>
<trkpt lat="-27.2744391" lon="151.2900641">
  <ele>343.09</ele>
  <time>2026-09-01T19:49:39Z</time>
  <course>10.81</course>
  <speed>0.022360679774997897</speed>
  <fix>3d</fix>
</trkpt>
<trkpt lat="-27.274439" lon="151.290064">
  <ele>343.1</ele>
  <time>2026-09-01T19:49:39Z</time>
  <course>270.0</course>
  <speed>0.0</speed>
  <fix>3d</fix>
</trkpt>
<trkpt lat="-27.2744392" lon="151.2900641">
  <ele>343.09</ele>
  <time>2026-09-01T19:49:39Z</time>
  <course>10.81</course>
  <speed>0.022360679774997897</speed>
  <fix>3d</fix>
</trkpt>
<trkpt lat="-27.274439" lon="151.290064">
  <ele>343.1</ele>
  <time>2026-09-01T19:49:39Z</time>
  <course>270.0</course>
  <speed>0.0</speed>
  <fix>3d</fix>
</trkpt>
<trkpt lat="-27.2744391" lon="151.2900641">
  <ele>343.09</ele>
  <time>2026-09-01T19:49:39Z</time>
  <course>10.81</course>
  <speed>0.022360679774997897</speed>
  <fix>3d</fix>
</trkpt>
<trkpt lat="-27.274439" lon="151.290064">
  <ele>343.1</ele>
  <time>2026-09-01T19:49:39Z</time>
  <course>270.0</course>
  <speed>0.0</speed>
  <fix>3d</fix>
</trkpt>
<trkpt lat="-27.2744392" lon="151.2900641">
  <ele>343.09</ele>
  <time>2026-09-01T19:49:39Z</time>
  <course>10.81</course>
  <speed>0.022360679774997897</speed>
  <fix>3d</fix>
</trkpt>
<trkpt lat="-27.274439" lon="151.290064">
  <ele>343.1</ele>
  <time>2026-09-01T19:49:39Z</time>
  <course>270.0</course>
  <speed>0.0</speed>
  <fix>3d</fix>
</trkpt>
<trkpt lat="-27.2744391" lon="151.2900641">
  <ele>343.09</ele>
  <time>2026-09-01T19:49:39Z</time>
  <course>10.81</course>
  <speed>0.022360679774997897</speed>
  <fix>3d</fix>
</trkpt>
<trkpt lat="-27.274439" lon="151.290064">
  <ele>343.1</ele>
  <time>2026-09-01T19:49:39Z</time>
  <course>270.0</course>
  <speed>0.0</speed>
  <fix>3d</fix>
</trkpt>
<trkpt lat="-27.2744392" lon="151.2900641">
  <ele>343.09</ele>
  <time>2026-09-01T19:49:39Z</time>
  <course>10.81</course>
  <speed>0.022360679774997897</speed>
  <fix>3d</fix>
</trkpt>
<trkpt lat="-27.274439" lon="151.290064">
  <ele>343.1</ele>
  <time>2026-09-01T19:49:39Z</time>
  <course>270.0</course>
  <speed>0.0</speed>
  <fix>3d</fix>
</trkpt>
<trkpt lat="-27.2744391" lon="151.2900641">
  <ele>343.08</ele>
  <time>2026-09-01T19:49:39Z</time>
  <course>10.82</course>
  <speed>0.022360679774997897</speed>
  <fix>3d</fix>
</trkpt>
<trkpt lat="-27.274439" lon="151.290064">
  <ele>343.1</ele>
  <time>2026-09-01T19:49:39Z</time>
  <course>270.0</course>
  <speed>0.0</speed>
  <fix>3d</fix>
</trkpt>
<trkpt lat="-27.2744392" lon="151.2900641">
  <ele>343.08</ele>
  <time>2026-09-01T19:49:39Z</time>
  <course>10.82</course>
  <speed>0.022360679774997897</speed>
  <fix>3d</fix>
</trkpt>
<trkpt lat="-27.274439" lon="151.290064">
  <ele>343.1</ele>
  <time>2026-09-01T19:49:39Z</time>
  <course>270.0</course>
  <speed>0.0</speed>
  <fix>3d</fix>
</trkpt>
<trkpt lat="-27.2744391" lon="151.2900641">
  <ele>343.08</ele>
  <time>2026-09-01T19:49:39Z</time>
  <course>10.82</course>
  <speed>0.022360679774997897</speed>
  <fix>3d</fix>
</trkpt>
<trkpt lat="-27.274439" lon="151.290064">
  <ele>343.1</ele>
  <time>2026-09-01T19:49:39Z</time>
  <course>270.0</course>
  <speed>0.0</speed>
  <fix>3d</fix>
</trkpt>
<trkpt lat="-27.2744392" lon="151.2900641">
  <ele>343.08</ele>
  <time>2026-09-01T19:49:39Z</time>
  <course>10.82</course>
  <speed>0.022360679774997897</speed>
  <fix>3d</fix>
</trkpt>
<trkpt lat="-27.274439" lon="151.290064">
  <ele>343.1</ele>
  <time>2026-09-01T19:49:39Z</time>
  <course>270.0</course>
  <speed>0.0</speed>
  <fix>3d</fix>
</trkpt>
<trkpt lat="-27.2744391" lon="151.2900641">
  <ele>343.07</ele>
  <time>2026-09-01T19:49:39Z</time>
  <course>10.82</course>
  <speed>0.022360679774997897</speed>
  <fix>3d</fix>
</trkpt>
<trkpt lat="-27.274439" lon="151.290064">
  <ele>343.1</ele>
  <time>2026-09-01T19:49:39Z</time>
  <course>270.0</course>
  <speed>0.0</speed>
  <fix>3d</fix>
</trkpt>
<trkpt lat="-27.2744392" lon="151.2900641">
  <ele>343.07</ele>
  <time>2026-09-01T19:49:39Z</time>
  <course>10.82</course>
  <speed>0.022360679774997897</speed>
  <fix>3d</fix>
</trkpt>
<trkpt lat="-27.274439" lon="151.290064">
  <ele>343.1</ele>
  <time>2026-09-01T19:49:39Z</time>
  <course>270.0</course>
  <speed>0.0</speed>
  <fix>3d</fix>
</trkpt>
<trkpt lat="-27.2744391" lon="151.2900641">
  <ele>343.07</ele>
  <time>2026-09-01T19:49:39Z</time>
  <course>10.82</course>
  <speed>0.022360679774997897</speed>
  <fix>3d</fix>
</trkpt>
<trkpt lat="-27.274439" lon="151.290064">
  <ele>343.1</ele>
  <time>2026-09-01T19:49:39Z</time>
  <course>270.0</course>
  <speed>0.0</speed>
  <fix>3d</fix>
</trkpt>
<trkpt lat="-27.2744392" lon="151.2900641">
  <ele>343.07</ele>
  <time>2026-09-01T19:49:39Z</time>
  <course>10.82</course>
  <speed>0.022360679774997897</speed>
  <fix>3d</fix>
</trkpt>
<trkpt lat="-27.274439" lon="151.290064">
  <ele>343.1</ele>
  <time>2026-09-01T19:49:39Z</time>
  <course>270.0</course>
  <speed>0.0</speed>
  <fix>3d</fix>
</trkpt>
<trkpt lat="-27.2744391" lon="151.2900641">
  <ele>343.07</ele>
  <time>2026-09-01T19:49:39Z</time>
  <course>10.82</course>
  <speed>0.022360679774997897</speed>
  <fix>3d</fix>
</trkpt>
<trkpt lat="-27.274439" lon="151.290064">
  <ele>343.1</ele>
  <time>2026-09-01T19:49:39Z</time>
  <course>270.0</course>
  <speed>0.0</speed>
  <fix>3d</fix>
</trkpt>
<trkpt lat="-27.2744392" lon="151.2900641">
  <ele>343.07</ele>
  <time>2026-09-01T19:49:39Z</time>
  <course>10.82</course>
  <speed>0.022360679774997897</speed>
  <fix>3d</fix>
</trkpt>
<trkpt lat="-27.274439" lon="151.290064">
  <ele>343.1</ele>
  <time>2026-09-01T19:49:39Z</time>
  <course>270.0</course>
  <speed>0.0</speed>
  <fix>3d</fix>
</trkpt>
<trkpt lat="-27.2744391" lon="151.2900641">
  <ele>343.07</ele>
  <time>2026-09-01T19:49:39Z</time>
  <course>10.82</course>
  <speed>0.022360679774997897</speed>
  <fix>3d</fix>
</trkpt>
<trkpt lat="-27.274439" lon="151.290064">
  <ele>343.1</ele>
  <time>2026-09-01T19:49:39Z</time>
  <course>270.0</course>
  <speed>0.0</speed>
  <fix>3d</fix>
</trkpt>
<trkpt lat="-27.2744392" lon="151.2900641">
  <ele>343.07</ele>
  <time>2026-09-01T19:49:39Z</time>
  <course>10.82</course>
  <speed>0.022360679774997897</speed>
  <fix>3d</fix>
</trkpt>
<trkpt lat="-27.274439" lon="151.290064">
  <ele>343.1</ele>
  <time>2026-09-01T19:49:39Z</time>
  <course>270.0</course>
  <speed>0.0</speed>
  <fix>3d</fix>
</trkpt>
<trkpt lat="-27.2744391" lon="151.2900641">
  <ele>343.07</ele>
  <time>2026-09-01T19:49:39Z</time>
  <course>10.82</course>
  <speed>0.022360679774997897</speed>
  <fix>3d</fix>
</trkpt>
<trkpt lat="-27.274439" lon="151.290064">
  <ele>343.1</ele>
  <time>2026-09-01T19:49:39Z</time>
  <course>270.0</course>
  <speed>0.0</speed>
  <fix>3d</fix>
</trkpt>
<trkpt lat="-27.2744392" lon="151.2900641">
  <ele>343.07</ele>
  <time>2026-09-01T19:49:39Z</time>
  <course>10.82</course>
  <speed>0.022360679774997897</speed>
  <fix>3d</fix>
</trkpt>
<trkpt lat="-27.274439" lon="151.290064">
  <ele>343.1</ele>
  <time>2026-09-01T19:49:39Z</time>
  <course>270.0</course>
  <speed>0.0</speed>
  <fix>3d</fix>
</trkpt>
<trkpt lat="-27.2744391" lon="151.2900641">
  <ele>343.07</ele>
  <time>2026-09-01T19:49:39Z</time>
  <course>10.83</course>
  <speed>0.022360679774997897</speed>
  <fix>3d</fix>
</trkpt>
<trkpt lat="-27.274439" lon="151.290064">
  <ele>343.1</ele>
  <time>2026-09-01T19:49:39Z</time>
  <course>270.0</course>
  <speed>0.0</speed>
  <fix>3d</fix>
</trkpt>
<trkpt lat="-27.2744392" lon="151.2900641">
  <ele>343.08</ele>
  <time>2026-09-01T19:49:39Z</time>
  <course>10.83</course>
  <speed>0.022360679774997897</speed>
  <fix>3d</fix>
</trkpt>
<trkpt lat="-27.274439" lon="151.290064">
  <ele>343.1</ele>
  <time>2026-09-01T19:49:39Z</time>
  <course>270.0</course>
  <speed>0.0</speed>
  <fix>3d</fix>
</trkpt>
<trkpt lat="-27.2744391" lon="151.2900641">
  <ele>343.08</ele>
  <time>2026-09-01T19:49:39Z</time>
  <course>10.83</course>
  <speed>0.022360679774997897</speed>
  <fix>3d</fix>
</trkpt>
<trkpt lat="-27.274439" lon="151.290064">
  <ele>343.1</ele>
  <time>2026-09-01T19:49:39Z</time>
  <course>270.0</course>
  <speed>0.0</speed>
  <fix>3d</fix>
</trkpt>
<trkpt lat="-27.2744392" lon="151.2900641">
  <ele>343.08</ele>
  <time>2026-09-01T19:49:39Z</time>
  <course>10.83</course>
  <speed>0.022360679774997897</speed>
  <fix>3d</fix>
</trkpt>
<trkpt lat="-27.274439" lon="151.290064">
  <ele>343.1</ele>
  <time>2026-09-01T19:49:39Z</time>
  <course>270.0</course>
  <speed>0.0</speed>
  <fix>3d</fix>
</trkpt>
<trkpt lat="-27.2744391" lon="151.2900641">
  <ele>343.09</ele>
  <time>2026-09-01T19:49:39Z</time>
  <course>10.83</course>
  <speed>0.022360679774997897</speed>
  <fix>3d</fix>
</trkpt>
<trkpt lat="-27.274439" lon="151.290064">
  <ele>343.1</ele>
  <time>2026-09-01T19:49:39Z</time>
  <course>270.0</course>
  <speed>0.0</speed>
  <fix>3d</fix>
</trkpt>
<trkpt lat="-27.2744392" lon="151.2900641">
  <ele>343.09</ele>
  <time>2026-09-01T19:49:39Z</time>
  <course>10.83</course>
  <speed>0.022360679774997897</speed>
  <fix>3d</fix>
</trkpt>
<trkpt lat="-27.274439" lon="151.290064">
  <ele>343.1</ele>
  <time>2026-09-01T19:49:39Z</time>
  <course>270.0</course>
  <speed>0.0</speed>
  <fix>3d</fix>
</trkpt>
<trkpt lat="-27.2744391" lon="151.2900641">
  <ele>343.09</ele>
  <time>2026-09-01T19:49:39Z</time>
  <course>10.83</course>
  <speed>0.022360679774997897</speed>
  <fix>3d</fix>
</trkpt>
<trkpt lat="-27.274439" lon="151.290064">
  <ele>343.1</ele>
  <time>2026-09-01T19:49:39Z</time>
  <course>270.0</course>
  <speed>0.0</speed>
  <fix>3d</fix>
</trkpt>
<trkpt lat="-27.2744392" lon="151.2900641">
  <ele>343.09</ele>
  <time>2026-09-01T19:49:39Z</time>
  <course>10.83</course>
  <speed>0.022360679774997897</speed>
  <fix>3d</fix>
</trkpt>
<trkpt lat="-27.274439" lon="151.290064">
  <ele>343.1</ele>
  <time>2026-09-01T19:49:39Z</time>
  <course>270.0</course>
  <speed>0.0</speed>
  <fix>3d</fix>
</trkpt>
<trkpt lat="-27.2744391" lon="151.2900641">
  <ele>343.1</ele>
  <time>2026-09-01T19:49:39Z</time>
  <course>10.83</course>
  <speed>0.022360679774997897</speed>
  <fix>3d</fix>
</trkpt>
<trkpt lat="-27.274439" lon="151.290064">
  <ele>343.1</ele>
  <time>2026-09-01T19:49:39Z</time>
  <course>270.0</course>
  <speed>0.0</speed>
  <fix>3d</fix>
</trkpt>
<trkpt lat="-27.2744392" lon="151.2900641">
  <ele>343.1</ele>
  <time>2026-09-01T19:49:39Z</time>
  <course>10.83</course>
  <speed>0.022360679774997897</speed>
  <fix>3d</fix>
</trkpt>
<trkpt lat="-27.274439" lon="151.290064">
  <ele>343.1</ele>
  <time>2026-09-01T19:49:39Z</time>
  <course>270.0</course>
  <speed>0.0</speed>
  <fix>3d</fix>
</trkpt>
<trkpt lat="-27.2744391" lon="151.2900641">
  <ele>343.1</ele>
  <time>2026-09-01T19:49:39Z</time>
  <course>10.83</course>
  <speed>0.022360679774997897</speed>
  <fix>3d</fix>
</trkpt>
<trkpt lat="-27.274439" lon="151.290064">
  <ele>343.1</ele>
  <time>2026-09-01T19:49:39Z</time>
  <course>270.0</course>
  <speed>0.0</speed>
  <fix>3d</fix>
</trkpt>
<trkpt lat="-27.2744392" lon="151.2900641">
  <ele>343.1</ele>
  <time>2026-09-01T19:49:39Z</time>
  <course>10.83</course>
  <speed>0.022360679774997897</speed>
  <fix>3d</fix>
</trkpt>
<trkpt lat="-27.274439" lon="151.290064">
  <ele>343.1</ele>
  <time>2026-09-01T19:49:39Z</time>
  <course>270.0</course>
  <speed>0.0</speed>
  <fix>3d</fix>
</trkpt>
<trkpt lat="-27.2744391" lon="151.2900641">
  <ele>343.1</ele>
  <time>2026-09-01T19:49:39Z</time>
  <course>10.83</course>
  <speed>0.022360679774997897</speed>
  <fix>3d</fix>
</trkpt>
<trkpt lat="-27.274439" lon="151.290064">
  <ele>343.1</ele>
  <time>2026-09-01T19:49:39Z</time>
  <course>270.0</course>
  <speed>0.0</speed>
  <fix>3d</fix>
</trkpt>
<trkpt lat="-27.2744392" lon="151.2900641">
  <ele>343.1</ele>
  <time>2026-09-01T19:49:39Z</time>
  <course>10.83</course>
  <speed>0.022360679774997897</speed>
  <fix>3d</fix>
</trkpt>
<trkpt lat="-27.274439" lon="151.290064">
  <ele>343.1</ele>
  <time>2026-09-01T19:49:39Z</time>
  <course>270.0</course>
  <speed>0.0</speed>
  <fix>3d</fix>
</trkpt>
<trkpt lat="-27.2744392" lon="151.2900641">
  <ele>343.1</ele>
  <time>2026-09-01T19:49:39Z</time>
  <course>10.83</course>
  <speed>0.022360679774997897</speed>
  <fix>3d</fix>
</trkpt>
<trkpt lat="-27.274439" lon="151.290064">
  <ele>343.1</ele>
  <time>2026-09-01T19:49:39Z</time>
  <course>270.0</course>
  <speed>0.0</speed>
  <fix>3d</fix>
</trkpt>
<trkpt lat="-27.2744392" lon="151.2900641">
  <ele>343.1</ele>
  <time>2026-09-01T19:49:39Z</time>
  <course>10.83</course>
  <speed>0.022360679774997897</speed>
  <fix>3d</fix>
</trkpt>
<trkpt lat="-27.274439" lon="151.290064">
  <ele>343.1</ele>
  <time>2026-09-01T19:49:39Z</time>
  <course>270.0</course>
  <speed>0.0</speed>
  <fix>3d</fix>
</trkpt>
<trkpt lat="-27.2744392" lon="151.2900641">
  <ele>343.1</ele>
  <time>2026-09-01T19:49:39Z</time>
  <course>10.84</course>
  <speed>0.022360679774997897</speed>
  <fix>3d</fix>
</trkpt>
<trkpt lat="-27.274439" lon="151.290064">
  <ele>343.1</ele>
  <time>2026-09-01T19:49:39Z</time>
  <course>270.0</course>
  <speed>0.0</speed>
  <fix>3d</fix>
</trkpt>
<trkpt lat="-27.2744392" lon="151.2900641">
  <ele>343.1</ele>
  <time>2026-09-01T19:49:39Z</time>
  <course>10.84</course>
  <speed>0.022360679774997897</speed>
  <fix>3d</fix>
</trkpt>
<trkpt lat="-27.274439" lon="151.290064">
  <ele>343.1</ele>
  <time>2026-09-01T19:49:39Z</time>
  <course>270.0</course>
  <speed>0.0</speed>
  <fix>3d</fix>
</trkpt>
<trkpt lat="-27.2744392" lon="151.2900641">
  <ele>343.1</ele>
  <time>2026-09-01T19:49:39Z</time>
  <course>10.84</course>
  <speed>0.022360679774997897</speed>
  <fix>3d</fix>
</trkpt>
<trkpt lat="-27.274439" lon="151.290064">
  <ele>343.1</ele>
  <time>2026-09-01T19:49:39Z</time>
  <course>270.0</course>
  <speed>0.0</speed>
  <fix>3d</fix>
</trkpt>
<trkpt lat="-27.2744392" lon="151.2900641">
  <ele>343.1</ele>
  <time>2026-09-01T19:49:39Z</time>
  <course>10.84</course>
  <speed>0.022360679774997897</speed>
  <fix>3d</fix>
</trkpt>
<trkpt lat="-27.274439" lon="151.290064">
  <ele>343.1</ele>
  <time>2026-09-01T19:49:39Z</time>
  <course>270.0</course>
  <speed>0.0</speed>
  <fix>3d</fix>
</trkpt>
<trkpt lat="-27.2744392" lon="151.2900641">
  <ele>343.1</ele>
  <time>2026-09-01T19:49:39Z</time>
  <course>10.84</course>
  <speed>0.022360679774997897</speed>
  <fix>3d</fix>
</trkpt>
<trkpt lat="-27.274439" lon="151.290064">
  <ele>343.1</ele>
  <time>2026-09-01T19:49:39Z</time>
  <course>270.0</course>
  <speed>0.0</speed>
  <fix>3d</fix>
</trkpt>
<trkpt lat="-27.2744392" lon="151.2900641">
  <ele>343.1</ele>
  <time>2026-09-01T19:49:39Z</time>
  <course>10.84</course>
  <speed>0.022360679774997897</speed>
  <fix>3d</fix>
</trkpt>
<trkpt lat="-27.274439" lon="151.290064">
  <ele>343.1</ele>
  <time>2026-09-01T19:49:39Z</time>
  <course>270.0</course>
  <speed>0.0</speed>
  <fix>3d</fix>
</trkpt>
<trkpt lat="-27.2744392" lon="151.2900641">
  <ele>343.1</ele>
  <time>2026-09-01T19:49:39Z</time>
  <course>10.84</course>
  <speed>0.022360679774997897</speed>
  <fix>3d</fix>
</trkpt>
<trkpt lat="-27.274439" lon="151.290064">
  <ele>343.1</ele>
  <time>2026-09-01T19:49:39Z</time>
  <course>270.0</course>
  <speed>0.0</speed>
  <fix>3d</fix>
</trkpt>
<trkpt lat="-27.2744392" lon="151.2900641">
  <ele>343.11</ele>
  <time>2026-09-01T19:49:39Z</time>
  <course>10.84</course>
  <speed>0.022360679774997897</speed>
  <fix>3d</fix>
</trkpt>
<trkpt lat="-27.274439" lon="151.290064">
  <ele>343.1</ele>
  <time>2026-09-01T19:49:39Z</time>
  <course>270.0</course>
  <speed>0.0</speed>
  <fix>3d</fix>
</trkpt>
<trkpt lat="-27.2744392" lon="151.2900641">
  <ele>343.11</ele>
  <time>2026-09-01T19:49:39Z</time>
  <course>10.84</course>
  <speed>0.022360679774997897</speed>
  <fix>3d</fix>
</trkpt>
<trkpt lat="-27.274439" lon="151.290064">
  <ele>343.1</ele>
  <time>2026-09-01T19:49:39Z</time>
  <course>270.0</course>
  <speed>0.0</speed>
  <fix>3d</fix>
</trkpt>
<trkpt lat="-27.2744392" lon="151.2900641">
  <ele>343.11</ele>
  <time>2026-09-01T19:49:39Z</time>
  <course>10.84</course>
  <speed>0.022360679774997897</speed>
  <fix>3d</fix>
</trkpt>
<trkpt lat="-27.274439" lon="151.290064">
  <ele>343.1</ele>
  <time>2026-09-01T19:49:39Z</time>
  <course>270.0</course>
  <speed>0.0</speed>
  <fix>3d</fix>
</trkpt>
<trkpt lat="-27.2744392" lon="151.2900641">
  <ele>343.11</ele>
  <time>2026-09-01T19:49:39Z</time>
  <course>10.84</course>
  <speed>0.022360679774997897</speed>
  <fix>3d</fix>
</trkpt>
<trkpt lat="-27.274439" lon="151.290064">
  <ele>343.1</ele>
  <time>2026-09-01T19:49:39Z</time>
  <course>270.0</course>
  <speed>0.0</speed>
  <fix>3d</fix>
</trkpt>
<trkpt lat="-27.2744392" lon="151.2900641">
  <ele>343.11</ele>
  <time>2026-09-01T19:49:39Z</time>
  <course>10.84</course>
  <speed>0.022360679774997897</speed>
  <fix>3d</fix>
</trkpt>
<trkpt lat="-27.274439" lon="151.290064">
  <ele>343.1</ele>
  <time>2026-09-01T19:49:39Z</time>
  <course>270.0</course>
  <speed>0.0</speed>
  <fix>3d</fix>
</trkpt>
<trkpt lat="-27.2744392" lon="151.2900641">
  <ele>343.11</ele>
  <time>2026-09-01T19:49:39Z</time>
  <course>10.84</course>
  <speed>0.022360679774997897</speed>
  <fix>3d</fix>
</trkpt>
<trkpt lat="-27.274439" lon="151.290064">
  <ele>343.1</ele>
  <time>2026-09-01T19:49:39Z</time>
  <course>270.0</course>
  <speed>0.0</speed>
  <fix>3d</fix>
</trkpt>
<trkpt lat="-27.2744392" lon="151.2900641">
  <ele>343.12</ele>
  <time>2026-09-01T19:49:39Z</time>
  <course>10.84</course>
  <speed>0.022360679774997897</speed>
  <fix>3d</fix>
</trkpt>
<trkpt lat="-27.274439" lon="151.290064">
  <ele>343.1</ele>
  <time>2026-09-01T19:49:39Z</time>
  <course>270.0</course>
  <speed>0.0</speed>
  <fix>3d</fix>
</trkpt>
<trkpt lat="-27.2744392" lon="151.2900641">
  <ele>343.12</ele>
  <time>2026-09-01T19:49:39Z</time>
  <course>10.84</course>
  <speed>0.022360679774997897</speed>
  <fix>3d</fix>
</trkpt>
<trkpt lat="-27.274439" lon="151.290064">
  <ele>343.1</ele>
  <time>2026-09-01T19:49:40Z</time>
  <course>270.0</course>
  <speed>0.0</speed>
  <fix>3d</fix>
</trkpt>
<trkpt lat="-27.2744392" lon="151.2900641">
  <ele>343.12</ele>
  <time>2026-09-01T19:49:40Z</time>
  <course>10.85</course>
  <speed>0.022360679774997897</speed>
  <fix>3d</fix>
</trkpt>
<trkpt lat="-27.274439" lon="151.290064">
  <ele>343.1</ele>
  <time>2026-09-01T19:49:40Z</time>
  <course>270.0</course>
  <speed>0.0</speed>
  <fix>3d</fix>
</trkpt>
<trkpt lat="-27.2744392" lon="151.2900641">
  <ele>343.12</ele>
  <time>2026-09-01T19:49:40Z</time>
  <course>10.85</course>
  <speed>0.022360679774997897</speed>
  <fix>3d</fix>
</trkpt>
<trkpt lat="-27.274439" lon="151.290064">
  <ele>343.1</ele>
  <time>2026-09-01T19:49:40Z</time>
  <course>270.0</course>
  <speed>0.0</speed>
  <fix>3d</fix>
</trkpt>
<trkpt lat="-27.2744392" lon="151.2900641">
  <ele>343.12</ele>
  <time>2026-09-01T19:49:40Z</time>
  <course>10.85</course>
  <speed>0.022360679774997897</speed>
  <fix>3d</fix>
</trkpt>
<trkpt lat="-27.274439" lon="151.290064">
  <ele>343.1</ele>
  <time>2026-09-01T19:49:40Z</time>
  <course>270.0</course>
  <speed>0.0</speed>
  <fix>3d</fix>
</trkpt>
<trkpt lat="-27.2744392" lon="151.2900641">
  <ele>343.12</ele>
  <time>2026-09-01T19:49:40Z</time>
  <course>10.85</course>
  <speed>0.022360679774997897</speed>
  <fix>3d</fix>
</trkpt>
<trkpt lat="-27.274439" lon="151.290064">
  <ele>343.1</ele>
  <time>2026-09-01T19:49:40Z</time>
  <course>270.0</course>
  <speed>0.0</speed>
  <fix>3d</fix>
</trkpt>
<trkpt lat="-27.2744392" lon="151.2900641">
  <ele>343.12</ele>
  <time>2026-09-01T19:49:40Z</time>
  <course>10.85</course>
  <speed>0.022360679774997897</speed>
  <fix>3d</fix>
</trkpt>
<trkpt lat="-27.274439" lon="151.290064">
  <ele>343.1</ele>
  <time>2026-09-01T19:49:40Z</time>
  <course>270.0</course>
  <speed>0.0</speed>
  <fix>3d</fix>
</trkpt>
<trkpt lat="-27.2744392" lon="151.2900641">
  <ele>343.12</ele>
  <time>2026-09-01T19:49:40Z</time>
  <course>10.85</course>
  <speed>0.022360679774997897</speed>
  <fix>3d</fix>
</trkpt>
<trkpt lat="-27.274439" lon="151.290064">
  <ele>343.1</ele>
  <time>2026-09-01T19:49:40Z</time>
  <course>270.0</course>
  <speed>0.0</speed>
  <fix>3d</fix>
</trkpt>
<trkpt lat="-27.2744392" lon="151.2900641">
  <ele>343.13</ele>
  <time>2026-09-01T19:49:40Z</time>
  <course>10.85</course>
  <speed>0.022360679774997897</speed>
  <fix>3d</fix>
</trkpt>
<trkpt lat="-27.274439" lon="151.290064">
  <ele>343.1</ele>
  <time>2026-09-01T19:49:40Z</time>
  <course>270.0</course>
  <speed>0.0</speed>
  <fix>3d</fix>
</trkpt>
<trkpt lat="-27.2744392" lon="151.2900641">
  <ele>343.13</ele>
  <time>2026-09-01T19:49:40Z</time>
  <course>10.85</course>
  <speed>0.022360679774997897</speed>
  <fix>3d</fix>
</trkpt>
<trkpt lat="-27.274439" lon="151.290064">
  <ele>343.1</ele>
  <time>2026-09-01T19:49:40Z</time>
  <course>270.0</course>
  <speed>0.0</speed>
  <fix>3d</fix>
</trkpt>
<trkpt lat="-27.2744392" lon="151.2900641">
  <ele>343.13</ele>
  <time>2026-09-01T19:49:40Z</time>
  <course>10.85</course>
  <speed>0.022360679774997897</speed>
  <fix>3d</fix>
</trkpt>
<trkpt lat="-27.274439" lon="151.290064">
  <ele>343.1</ele>
  <time>2026-09-01T19:49:40Z</time>
  <course>270.0</course>
  <speed>0.0</speed>
  <fix>3d</fix>
</trkpt>
<trkpt lat="-27.2744391" lon="151.2900641">
  <ele>343.13</ele>
  <time>2026-09-01T19:49:40Z</time>
  <course>10.85</course>
  <speed>0.022360679774997897</speed>
  <fix>3d</fix>
</trkpt>
<trkpt lat="-27.274439" lon="151.290064">
  <ele>343.1</ele>
  <time>2026-09-01T19:49:40Z</time>
  <course>270.0</course>
  <speed>0.0</speed>
  <fix>3d</fix>
</trkpt>
<trkpt lat="-27.2744392" lon="151.2900641">
  <ele>343.13</ele>
  <time>2026-09-01T19:49:40Z</time>
  <course>10.85</course>
  <speed>0.022360679774997897</speed>
  <fix>3d</fix>
</trkpt>
<trkpt lat="-27.274439" lon="151.290064">
  <ele>343.1</ele>
  <time>2026-09-01T19:49:40Z</time>
  <course>270.0</course>
  <speed>0.0</speed>
  <fix>3d</fix>
</trkpt>
<trkpt lat="-27.2744391" lon="151.2900641">
  <ele>343.13</ele>
  <time>2026-09-01T19:49:40Z</time>
  <course>10.85</course>
  <speed>0.022360679774997897</speed>
  <fix>3d</fix>
</trkpt>
<trkpt lat="-27.274439" lon="151.290064">
  <ele>343.1</ele>
  <time>2026-09-01T19:49:40Z</time>
  <course>270.0</course>
  <speed>0.0</speed>
  <fix>3d</fix>
</trkpt>
<trkpt lat="-27.2744392" lon="151.2900641">
  <ele>343.14</ele>
  <time>2026-09-01T19:49:40Z</time>
  <course>10.85</course>
  <speed>0.022360679774997897</speed>
  <fix>3d</fix>
</trkpt>
<trkpt lat="-27.274439" lon="151.290064">
  <ele>343.1</ele>
  <time>2026-09-01T19:49:40Z</time>
  <course>270.0</course>
  <speed>0.0</speed>
  <fix>3d</fix>
</trkpt>
<trkpt lat="-27.2744391" lon="151.2900641">
  <ele>343.14</ele>
  <time>2026-09-01T19:49:40Z</time>
  <course>10.86</course>
  <speed>0.022360679774997897</speed>
  <fix>3d</fix>
</trkpt>
<trkpt lat="-27.274439" lon="151.290064">
  <ele>343.1</ele>
  <time>2026-09-01T19:49:40Z</time>
  <course>270.0</course>
  <speed>0.0</speed>
  <fix>3d</fix>
</trkpt>
<trkpt lat="-27.2744392" lon="151.2900641">
  <ele>343.14</ele>
  <time>2026-09-01T19:49:40Z</time>
  <course>10.86</course>
  <speed>0.022360679774997897</speed>
  <fix>3d</fix>
</trkpt>
<trkpt lat="-27.274439" lon="151.290064">
  <ele>343.1</ele>
  <time>2026-09-01T19:49:40Z</time>
  <course>270.0</course>
  <speed>0.0</speed>
  <fix>3d</fix>
</trkpt>
<trkpt lat="-27.2744392" lon="151.2900641">
  <ele>343.14</ele>
  <time>2026-09-01T19:49:40Z</time>
  <course>10.86</course>
  <speed>0.022360679774997897</speed>
  <fix>3d</fix>
</trkpt>
<trkpt lat="-27.274439" lon="151.290064">
  <ele>343.1</ele>
  <time>2026-09-01T19:49:40Z</time>
  <course>270.0</course>
  <speed>0.0</speed>
  <fix>3d</fix>
</trkpt>
<trkpt lat="-27.2744392" lon="151.2900641">
  <ele>343.14</ele>
  <time>2026-09-01T19:49:40Z</time>
  <course>10.86</course>
  <speed>0.022360679774997897</speed>
  <fix>3d</fix>
</trkpt>
<trkpt lat="-27.274439" lon="151.290064">
  <ele>343.1</ele>
  <time>2026-09-01T19:49:40Z</time>
  <course>270.0</course>
  <speed>0.0</speed>
  <fix>3d</fix>
</trkpt>
<trkpt lat="-27.2744392" lon="151.2900641">
  <ele>343.14</ele>
  <time>2026-09-01T19:49:40Z</time>
  <course>10.86</course>
  <speed>0.022360679774997897</speed>
  <fix>3d</fix>
</trkpt>
<trkpt lat="-27.274439" lon="151.290064">
  <ele>343.1</ele>
  <time>2026-09-01T19:49:40Z</time>
  <course>270.0</course>
  <speed>0.0</speed>
  <fix>3d</fix>
</trkpt>
<trkpt lat="-27.2744392" lon="151.2900641">
  <ele>343.14</ele>
  <time>2026-09-01T19:49:40Z</time>
  <course>10.86</course>
  <speed>0.022360679774997897</speed>
  <fix>3d</fix>
</trkpt>
<trkpt lat="-27.274439" lon="151.290064">
  <ele>343.1</ele>
  <time>2026-09-01T19:49:40Z</time>
  <course>270.0</course>
  <speed>0.0</speed>
  <fix>3d</fix>
</trkpt>
<trkpt lat="-27.2744391" lon="151.2900641">
  <ele>343.15</ele>
  <time>2026-09-01T19:49:40Z</time>
  <course>10.86</course>
  <speed>0.022360679774997897</speed>
  <fix>3d</fix>
</trkpt>
<trkpt lat="-27.274439" lon="151.290064">
  <ele>343.1</ele>
  <time>2026-09-01T19:49:40Z</time>
  <course>270.0</course>
  <speed>0.0</speed>
  <fix>3d</fix>
</trkpt>
<trkpt lat="-27.2744392" lon="151.2900641">
  <ele>343.15</ele>
  <time>2026-09-01T19:49:40Z</time>
  <course>10.86</course>
  <speed>0.022360679774997897</speed>
  <fix>3d</fix>
</trkpt>
<trkpt lat="-27.274439" lon="151.290064">
  <ele>343.1</ele>
  <time>2026-09-01T19:49:40Z</time>
  <course>270.0</course>
  <speed>0.0</speed>
  <fix>3d</fix>
</trkpt>
<trkpt lat="-27.2744391" lon="151.2900641">
  <ele>343.15</ele>
  <time>2026-09-01T19:49:40Z</time>
  <course>10.86</course>
  <speed>0.022360679774997897</speed>
  <fix>3d</fix>
</trkpt>
<trkpt lat="-27.274439" lon="151.290064">
  <ele>343.1</ele>
  <time>2026-09-01T19:49:40Z</time>
  <course>270.0</course>
  <speed>0.0</speed>
  <fix>3d</fix>
</trkpt>
<trkpt lat="-27.2744392" lon="151.2900641">
  <ele>343.15</ele>
  <time>2026-09-01T19:49:40Z</time>
  <course>10.86</course>
  <speed>0.022360679774997897</speed>
  <fix>3d</fix>
</trkpt>
<trkpt lat="-27.274439" lon="151.290064">
  <ele>343.1</ele>
  <time>2026-09-01T19:49:40Z</time>
  <course>270.0</course>
  <speed>0.0</speed>
  <fix>3d</fix>
</trkpt>
<trkpt lat="-27.2744391" lon="151.2900641">
  <ele>343.16</ele>
  <time>2026-09-01T19:49:40Z</time>
  <course>10.86</course>
  <speed>0.022360679774997897</speed>
  <fix>3d</fix>
</trkpt>
<trkpt lat="-27.274439" lon="151.290064">
  <ele>343.1</ele>
  <time>2026-09-01T19:49:40Z</time>
  <course>270.0</course>
  <speed>0.0</speed>
  <fix>3d</fix>
</trkpt>
<trkpt lat="-27.2744392" lon="151.2900641">
  <ele>343.16</ele>
  <time>2026-09-01T19:49:40Z</time>
  <course>10.86</course>
  <speed>0.022360679774997897</speed>
  <fix>3d</fix>
</trkpt>
<trkpt lat="-27.274439" lon="151.290064">
  <ele>343.1</ele>
  <time>2026-09-01T19:49:40Z</time>
  <course>270.0</course>
  <speed>0.0</speed>
  <fix>3d</fix>
</trkpt>
<trkpt lat="-27.2744392" lon="151.2900641">
  <ele>343.16</ele>
  <time>2026-09-01T19:49:40Z</time>
  <course>10.86</course>
  <speed>0.022360679774997897</speed>
  <fix>3d</fix>
</trkpt>
<trkpt lat="-27.274439" lon="151.290064">
  <ele>343.1</ele>
  <time>2026-09-01T19:49:40Z</time>
  <course>270.0</course>
  <speed>0.0</speed>
  <fix>3d</fix>
</trkpt>
<trkpt lat="-27.2744392" lon="151.2900641">
  <ele>343.16</ele>
  <time>2026-09-01T19:49:40Z</time>
  <course>10.86</course>
  <speed>0.022360679774997897</speed>
  <fix>3d</fix>
</trkpt>
<trkpt lat="-27.274439" lon="151.290064">
  <ele>343.1</ele>
  <time>2026-09-01T19:49:40Z</time>
  <course>270.0</course>
  <speed>0.0</speed>
  <fix>3d</fix>
</trkpt>
<trkpt lat="-27.2744392" lon="151.2900641">
  <ele>343.16</ele>
  <time>2026-09-01T19:49:40Z</time>
  <course>10.87</course>
  <speed>0.022360679774997897</speed>
  <fix>3d</fix>
</trkpt>
<trkpt lat="-27.274439" lon="151.290064">
  <ele>343.1</ele>
  <time>2026-09-01T19:49:40Z</time>
  <course>270.0</course>
  <speed>0.0</speed>
  <fix>3d</fix>
</trkpt>
<trkpt lat="-27.2744392" lon="151.2900641">
  <ele>343.16</ele>
  <time>2026-09-01T19:49:40Z</time>
  <course>10.87</course>
  <speed>0.022360679774997897</speed>
  <fix>3d</fix>
</trkpt>
<trkpt lat="-27.274439" lon="151.290064">
  <ele>343.1</ele>
  <time>2026-09-01T19:49:40Z</time>
  <course>270.0</course>
  <speed>0.0</speed>
  <fix>3d</fix>
</trkpt>
<trkpt lat="-27.2744392" lon="151.2900641">
  <ele>343.15</ele>
  <time>2026-09-01T19:49:40Z</time>
  <course>10.87</course>
  <speed>0.022360679774997897</speed>
  <fix>3d</fix>
</trkpt>
<trkpt lat="-27.274439" lon="151.290064">
  <ele>343.1</ele>
  <time>2026-09-01T19:49:40Z</time>
  <course>270.0</course>
  <speed>0.0</speed>
  <fix>3d</fix>
</trkpt>
<trkpt lat="-27.2744392" lon="151.2900641">
  <ele>343.15</ele>
  <time>2026-09-01T19:49:40Z</time>
  <course>10.87</course>
  <speed>0.022360679774997897</speed>
  <fix>3d</fix>
</trkpt>
<trkpt lat="-27.274439" lon="151.290064">
  <ele>343.1</ele>
  <time>2026-09-01T19:49:40Z</time>
  <course>270.0</course>
  <speed>0.0</speed>
  <fix>3d</fix>
</trkpt>
<trkpt lat="-27.2744392" lon="151.2900641">
  <ele>343.15</ele>
  <time>2026-09-01T19:49:40Z</time>
  <course>10.87</course>
  <speed>0.022360679774997897</speed>
  <fix>3d</fix>
</trkpt>
<trkpt lat="-27.274439" lon="151.290064">
  <ele>343.1</ele>
  <time>2026-09-01T19:49:40Z</time>
  <course>270.0</course>
  <speed>0.0</speed>
  <fix>3d</fix>
</trkpt>
<trkpt lat="-27.2744392" lon="151.2900641">
  <ele>343.15</ele>
  <time>2026-09-01T19:49:40Z</time>
  <course>10.87</course>
  <speed>0.022360679774997897</speed>
  <fix>3d</fix>
</trkpt>
<trkpt lat="-27.274439" lon="151.290064">
  <ele>343.1</ele>
  <time>2026-09-01T19:49:40Z</time>
  <course>270.0</course>
  <speed>0.0</speed>
  <fix>3d</fix>
</trkpt>
<trkpt lat="-27.2744392" lon="151.2900641">
  <ele>343.1</ele>
  <time>2026-09-01T19:49:40Z</time>
  <course>10.87</course>
  <speed>0.022360679774997897</speed>
  <fix>3d</fix>
</trkpt>
<trkpt lat="-27.274439" lon="151.290064">
  <ele>343.1</ele>
  <time>2026-09-01T19:49:40Z</time>
  <course>270.0</course>
  <speed>0.0</speed>
  <fix>3d</fix>
</trkpt>
<trkpt lat="-27.2744392" lon="151.2900641">
  <ele>343.1</ele>
  <time>2026-09-01T19:49:40Z</time>
  <course>10.87</course>
  <speed>0.022360679774997897</speed>
  <fix>3d</fix>
</trkpt>
<trkpt lat="-27.274439" lon="151.290064">
  <ele>343.1</ele>
  <time>2026-09-01T19:49:40Z</time>
  <course>270.0</course>
  <speed>0.0</speed>
  <fix>3d</fix>
</trkpt>
<trkpt lat="-27.2744392" lon="151.2900641">
  <ele>343.1</ele>
  <time>2026-09-01T19:49:40Z</time>
  <course>10.87</course>
  <speed>0.022360679774997897</speed>
  <fix>3d</fix>
</trkpt>
<trkpt lat="-27.274439" lon="151.290064">
  <ele>343.1</ele>
  <time>2026-09-01T19:49:40Z</time>
  <course>270.0</course>
  <speed>0.0</speed>
  <fix>3d</fix>
</trkpt>
<trkpt lat="-27.2744392" lon="151.2900641">
  <ele>343.1</ele>
  <time>2026-09-01T19:49:40Z</time>
  <course>10.87</course>
  <speed>0.022360679774997897</speed>
  <fix>3d</fix>
</trkpt>
<trkpt lat="-27.274439" lon="151.290064">
  <ele>343.1</ele>
  <time>2026-09-01T19:49:40Z</time>
  <course>270.0</course>
  <speed>0.0</speed>
  <fix>3d</fix>
</trkpt>
<trkpt lat="-27.2744392" lon="151.2900641">
  <ele>343.1</ele>
  <time>2026-09-01T19:49:40Z</time>
  <course>10.87</course>
  <speed>0.022360679774997897</speed>
  <fix>3d</fix>
</trkpt>
<trkpt lat="-27.274439" lon="151.290064">
  <ele>343.1</ele>
  <time>2026-09-01T19:49:40Z</time>
  <course>270.0</course>
  <speed>0.0</speed>
  <fix>3d</fix>
</trkpt>
<trkpt lat="-27.2744392" lon="151.2900641">
  <ele>343.1</ele>
  <time>2026-09-01T19:49:40Z</time>
  <course>10.87</course>
  <speed>0.022360679774997897</speed>
  <fix>3d</fix>
</trkpt>
<trkpt lat="-27.274439" lon="151.290064">
  <ele>343.1</ele>
  <time>2026-09-01T19:49:40Z</time>
  <course>270.0</course>
  <speed>0.0</speed>
  <fix>3d</fix>
</trkpt>
<trkpt lat="-27.2744392" lon="151.2900641">
  <ele>343.1</ele>
  <time>2026-09-01T19:49:40Z</time>
  <course>10.87</course>
  <speed>0.022360679774997897</speed>
  <fix>3d</fix>
</trkpt>
<trkpt lat="-27.274439" lon="151.290064">
  <ele>343.1</ele>
  <time>2026-09-01T19:49:40Z</time>
  <course>270.0</course>
  <speed>0.0</speed>
  <fix>3d</fix>
</trkpt>
<trkpt lat="-27.2744392" lon="151.2900641">
  <ele>343.1</ele>
  <time>2026-09-01T19:49:40Z</time>
  <course>10.88</course>
  <speed>0.022360679774997897</speed>
  <fix>3d</fix>
</trkpt>
<trkpt lat="-27.274439" lon="151.290064">
  <ele>343.1</ele>
  <time>2026-09-01T19:49:40Z</time>
  <course>270.0</course>
  <speed>0.0</speed>
  <fix>3d</fix>
</trkpt>
<trkpt lat="-27.2744392" lon="151.2900641">
  <ele>343.1</ele>
  <time>2026-09-01T19:49:40Z</time>
  <course>10.88</course>
  <speed>0.022360679774997897</speed>
  <fix>3d</fix>
</trkpt>
<trkpt lat="-27.274439" lon="151.290064">
  <ele>343.1</ele>
  <time>2026-09-01T19:49:40Z</time>
  <course>270.0</course>
  <speed>0.0</speed>
  <fix>3d</fix>
</trkpt>
<trkpt lat="-27.2744392" lon="151.2900641">
  <ele>343.1</ele>
  <time>2026-09-01T19:49:40Z</time>
  <course>10.88</course>
  <speed>0.022360679774997897</speed>
  <fix>3d</fix>
</trkpt>
<trkpt lat="-27.274439" lon="151.290064">
  <ele>343.1</ele>
  <time>2026-09-01T19:49:40Z</time>
  <course>270.0</course>
  <speed>0.0</speed>
  <fix>3d</fix>
</trkpt>
<trkpt lat="-27.2744392" lon="151.2900641">
  <ele>343.1</ele>
  <time>2026-09-01T19:49:40Z</time>
  <course>10.88</course>
  <speed>0.022360679774997897</speed>
  <fix>3d</fix>
</trkpt>
<trkpt lat="-27.274439" lon="151.290064">
  <ele>343.1</ele>
  <time>2026-09-01T19:49:40Z</time>
  <course>270.0</course>
  <speed>0.0</speed>
  <fix>3d</fix>
</trkpt>
<trkpt lat="-27.2744392" lon="151.2900641">
  <ele>343.11</ele>
  <time>2026-09-01T19:49:40Z</time>
  <course>10.88</course>
  <speed>0.022360679774997897</speed>
  <fix>3d</fix>
</trkpt>
<trkpt lat="-27.274439" lon="151.290064">
  <ele>343.1</ele>
  <time>2026-09-01T19:49:40Z</time>
  <course>270.0</course>
  <speed>0.0</speed>
  <fix>3d</fix>
</trkpt>
<trkpt lat="-27.2744392" lon="151.2900641">
  <ele>343.11</ele>
  <time>2026-09-01T19:49:40Z</time>
  <course>10.88</course>
  <speed>0.022360679774997897</speed>
  <fix>3d</fix>
</trkpt>
<trkpt lat="-27.274439" lon="151.290064">
  <ele>343.1</ele>
  <time>2026-09-01T19:49:40Z</time>
  <course>270.0</course>
  <speed>0.0</speed>
  <fix>3d</fix>
</trkpt>
<trkpt lat="-27.2744392" lon="151.2900641">
  <ele>343.11</ele>
  <time>2026-09-01T19:49:40Z</time>
  <course>10.88</course>
  <speed>0.022360679774997897</speed>
  <fix>3d</fix>
</trkpt>
<trkpt lat="-27.274439" lon="151.290064">
  <ele>343.1</ele>
  <time>2026-09-01T19:49:40Z</time>
  <course>270.0</course>
  <speed>0.0</speed>
  <fix>3d</fix>
</trkpt>
<trkpt lat="-27.2744392" lon="151.2900641">
  <ele>343.11</ele>
  <time>2026-09-01T19:49:40Z</time>
  <course>10.88</course>
  <speed>0.022360679774997897</speed>
  <fix>3d</fix>
</trkpt>
<trkpt lat="-27.274439" lon="151.290064">
  <ele>343.1</ele>
  <time>2026-09-01T19:49:40Z</time>
  <course>270.0</course>
  <speed>0.0</speed>
  <fix>3d</fix>
</trkpt>
<trkpt lat="-27.2744392" lon="151.2900641">
  <ele>343.1</ele>
  <time>2026-09-01T19:49:40Z</time>
  <course>10.88</course>
  <speed>0.022360679774997897</speed>
  <fix>3d</fix>
</trkpt>
<trkpt lat="-27.274439" lon="151.290064">
  <ele>343.1</ele>
  <time>2026-09-01T19:49:40Z</time>
  <course>270.0</course>
  <speed>0.0</speed>
  <fix>3d</fix>
</trkpt>
<trkpt lat="-27.2744392" lon="151.2900641">
  <ele>343.1</ele>
  <time>2026-09-01T19:49:40Z</time>
  <course>10.88</course>
  <speed>0.022360679774997897</speed>
  <fix>3d</fix>
</trkpt>
<trkpt lat="-27.274439" lon="151.290064">
  <ele>343.1</ele>
  <time>2026-09-01T19:49:40Z</time>
  <course>270.0</course>
  <speed>0.0</speed>
  <fix>3d</fix>
</trkpt>
<trkpt lat="-27.2744392" lon="151.2900641">
  <ele>343.1</ele>
  <time>2026-09-01T19:49:40Z</time>
  <course>10.88</course>
  <speed>0.022360679774997897</speed>
  <fix>3d</fix>
</trkpt>
<trkpt lat="-27.274439" lon="151.290064">
  <ele>343.1</ele>
  <time>2026-09-01T19:49:40Z</time>
  <course>270.0</course>
  <speed>0.0</speed>
  <fix>3d</fix>
</trkpt>
<trkpt lat="-27.2744392" lon="151.2900641">
  <ele>343.1</ele>
  <time>2026-09-01T19:49:40Z</time>
  <course>10.88</course>
  <speed>0.022360679774997897</speed>
  <fix>3d</fix>
</trkpt>
<trkpt lat="-27.274439" lon="151.290064">
  <ele>343.1</ele>
  <time>2026-09-01T19:49:40Z</time>
  <course>270.0</course>
  <speed>0.0</speed>
  <fix>3d</fix>
</trkpt>
<trkpt lat="-27.2744392" lon="151.2900641">
  <ele>343.1</ele>
  <time>2026-09-01T19:49:40Z</time>
  <course>10.88</course>
  <speed>0.022360679774997897</speed>
  <fix>3d</fix>
</trkpt>
<trkpt lat="-27.274439" lon="151.290064">
  <ele>343.1</ele>
  <time>2026-09-01T19:49:40Z</time>
  <course>270.0</course>
  <speed>0.0</speed>
  <fix>3d</fix>
</trkpt>
<trkpt lat="-27.2744392" lon="151.2900641">
  <ele>343.1</ele>
  <time>2026-09-01T19:49:40Z</time>
  <course>10.89</course>
  <speed>0.022360679774997897</speed>
  <fix>3d</fix>
</trkpt>
<trkpt lat="-27.274439" lon="151.290064">
  <ele>343.1</ele>
  <time>2026-09-01T19:49:40Z</time>
  <course>270.0</course>
  <speed>0.0</speed>
  <fix>3d</fix>
</trkpt>
<trkpt lat="-27.2744392" lon="151.2900641">
  <ele>343.1</ele>
  <time>2026-09-01T19:49:40Z</time>
  <course>10.89</course>
  <speed>0.022360679774997897</speed>
  <fix>3d</fix>
</trkpt>
<trkpt lat="-27.274439" lon="151.290064">
  <ele>343.1</ele>
  <time>2026-09-01T19:49:40Z</time>
  <course>270.0</course>
  <speed>0.0</speed>
  <fix>3d</fix>
</trkpt>
<trkpt lat="-27.2744392" lon="151.2900641">
  <ele>343.1</ele>
  <time>2026-09-01T19:49:40Z</time>
  <course>10.89</course>
  <speed>0.022360679774997897</speed>
  <fix>3d</fix>
</trkpt>
<trkpt lat="-27.274439" lon="151.290064">
  <ele>343.1</ele>
  <time>2026-09-01T19:49:40Z</time>
  <course>270.0</course>
  <speed>0.0</speed>
  <fix>3d</fix>
</trkpt>
<trkpt lat="-27.2744392" lon="151.2900641">
  <ele>343.1</ele>
  <time>2026-09-01T19:49:40Z</time>
  <course>10.89</course>
  <speed>0.022360679774997897</speed>
  <fix>3d</fix>
</trkpt>
<trkpt lat="-27.274439" lon="151.290064">
  <ele>343.1</ele>
  <time>2026-09-01T19:49:40Z</time>
  <course>270.0</course>
  <speed>0.0</speed>
  <fix>3d</fix>
</trkpt>
<trkpt lat="-27.2744392" lon="151.2900641">
  <ele>343.11</ele>
  <time>2026-09-01T19:49:40Z</time>
  <course>10.89</course>
  <speed>0.022360679774997897</speed>
  <fix>3d</fix>
</trkpt>
<trkpt lat="-27.274439" lon="151.290064">
  <ele>343.1</ele>
  <time>2026-09-01T19:49:40Z</time>
  <course>270.0</course>
  <speed>0.0</speed>
  <fix>3d</fix>
</trkpt>
<trkpt lat="-27.2744392" lon="151.2900641">
  <ele>343.11</ele>
  <time>2026-09-01T19:49:40Z</time>
  <course>10.89</course>
  <speed>0.022360679774997897</speed>
  <fix>3d</fix>
</trkpt>
<trkpt lat="-27.274439" lon="151.290064">
  <ele>343.1</ele>
  <time>2026-09-01T19:49:40Z</time>
  <course>270.0</course>
  <speed>0.0</speed>
  <fix>3d</fix>
</trkpt>
<trkpt lat="-27.2744392" lon="151.2900641">
  <ele>343.11</ele>
  <time>2026-09-01T19:49:40Z</time>
  <course>10.89</course>
  <speed>0.022360679774997897</speed>
  <fix>3d</fix>
</trkpt>
<trkpt lat="-27.274439" lon="151.290064">
  <ele>343.1</ele>
  <time>2026-09-01T19:49:40Z</time>
  <course>270.0</course>
  <speed>0.0</speed>
  <fix>3d</fix>
</trkpt>
<trkpt lat="-27.2744392" lon="151.2900641">
  <ele>343.11</ele>
  <time>2026-09-01T19:49:40Z</time>
  <course>10.89</course>
  <speed>0.022360679774997897</speed>
  <fix>3d</fix>
</trkpt>
<trkpt lat="-27.274439" lon="151.290064">
  <ele>343.1</ele>
  <time>2026-09-01T19:49:40Z</time>
  <course>270.0</course>
  <speed>0.0</speed>
  <fix>3d</fix>
</trkpt>
<trkpt lat="-27.2744392" lon="151.2900641">
  <ele>343.11</ele>
  <time>2026-09-01T19:49:40Z</time>
  <course>10.89</course>
  <speed>0.022360679774997897</speed>
  <fix>3d</fix>
</trkpt>
<trkpt lat="-27.274439" lon="151.290064">
  <ele>343.1</ele>
  <time>2026-09-01T19:49:40Z</time>
  <course>270.0</course>
  <speed>0.0</speed>
  <fix>3d</fix>
</trkpt>
<trkpt lat="-27.2744392" lon="151.2900641">
  <ele>343.12</ele>
  <time>2026-09-01T19:49:40Z</time>
  <course>10.89</course>
  <speed>0.022360679774997897</speed>
  <fix>3d</fix>
</trkpt>
<trkpt lat="-27.274439" lon="151.290064">
  <ele>343.1</ele>
  <time>2026-09-01T19:49:40Z</time>
  <course>270.0</course>
  <speed>0.0</speed>
  <fix>3d</fix>
</trkpt>
<trkpt lat="-27.2744392" lon="151.2900641">
  <ele>343.12</ele>
  <time>2026-09-01T19:49:40Z</time>
  <course>10.89</course>
  <speed>0.022360679774997897</speed>
  <fix>3d</fix>
</trkpt>
<trkpt lat="-27.274439" lon="151.290064">
  <ele>343.1</ele>
  <time>2026-09-01T19:49:40Z</time>
  <course>270.0</course>
  <speed>0.0</speed>
  <fix>3d</fix>
</trkpt>
<trkpt lat="-27.2744392" lon="151.2900641">
  <ele>343.12</ele>
  <time>2026-09-01T19:49:40Z</time>
  <course>10.89</course>
  <speed>0.022360679774997897</speed>
  <fix>3d</fix>
</trkpt>
<trkpt lat="-27.274439" lon="151.290064">
  <ele>343.1</ele>
  <time>2026-09-01T19:49:40Z</time>
  <course>270.0</course>
  <speed>0.0</speed>
  <fix>3d</fix>
</trkpt>
<trkpt lat="-27.2744392" lon="151.2900641">
  <ele>343.12</ele>
  <time>2026-09-01T19:49:40Z</time>
  <course>10.9</course>
  <speed>0.022360679774997897</speed>
  <fix>3d</fix>
</trkpt>
<trkpt lat="-27.274439" lon="151.290064">
  <ele>343.1</ele>
  <time>2026-09-01T19:49:40Z</time>
  <course>270.0</course>
  <speed>0.0</speed>
  <fix>3d</fix>
</trkpt>
<trkpt lat="-27.2744392" lon="151.2900641">
  <ele>343.12</ele>
  <time>2026-09-01T19:49:40Z</time>
  <course>10.9</course>
  <speed>0.022360679774997897</speed>
  <fix>3d</fix>
</trkpt>
<trkpt lat="-27.274439" lon="151.290064">
  <ele>343.1</ele>
  <time>2026-09-01T19:49:40Z</time>
  <course>270.0</course>
  <speed>0.0</speed>
  <fix>3d</fix>
</trkpt>
<trkpt lat="-27.2744392" lon="151.2900641">
  <ele>343.12</ele>
  <time>2026-09-01T19:49:40Z</time>
  <course>10.9</course>
  <speed>0.022360679774997897</speed>
  <fix>3d</fix>
</trkpt>
<trkpt lat="-27.274439" lon="151.290064">
  <ele>343.1</ele>
  <time>2026-09-01T19:49:40Z</time>
  <course>270.0</course>
  <speed>0.0</speed>
  <fix>3d</fix>
</trkpt>
<trkpt lat="-27.2744392" lon="151.2900641">
  <ele>343.12</ele>
  <time>2026-09-01T19:49:40Z</time>
  <course>10.9</course>
  <speed>0.022360679774997897</speed>
  <fix>3d</fix>
</trkpt>
<trkpt lat="-27.274439" lon="151.290064">
  <ele>343.1</ele>
  <time>2026-09-01T19:49:40Z</time>
  <course>270.0</course>
  <speed>0.0</speed>
  <fix>3d</fix>
</trkpt>
<trkpt lat="-27.2744392" lon="151.2900641">
  <ele>343.12</ele>
  <time>2026-09-01T19:49:40Z</time>
  <course>10.9</course>
  <speed>0.022360679774997897</speed>
  <fix>3d</fix>
</trkpt>
<trkpt lat="-27.274439" lon="151.290064">
  <ele>343.1</ele>
  <time>2026-09-01T19:49:40Z</time>
  <course>270.0</course>
  <speed>0.0</speed>
  <fix>3d</fix>
</trkpt>
<trkpt lat="-27.2744392" lon="151.2900641">
  <ele>343.12</ele>
  <time>2026-09-01T19:49:40Z</time>
  <course>10.9</course>
  <speed>0.022360679774997897</speed>
  <fix>3d</fix>
</trkpt>
<trkpt lat="-27.274439" lon="151.290064">
  <ele>343.1</ele>
  <time>2026-09-01T19:49:40Z</time>
  <course>270.0</course>
  <speed>0.0</speed>
  <fix>3d</fix>
</trkpt>
<trkpt lat="-27.2744392" lon="151.2900641">
  <ele>343.12</ele>
  <time>2026-09-01T19:49:40Z</time>
  <course>10.9</course>
  <speed>0.022360679774997897</speed>
  <fix>3d</fix>
</trkpt>
<trkpt lat="-27.274439" lon="151.290064">
  <ele>343.1</ele>
  <time>2026-09-01T19:49:40Z</time>
  <course>270.0</course>
  <speed>0.0</speed>
  <fix>3d</fix>
</trkpt>
<trkpt lat="-27.2744392" lon="151.2900641">
  <ele>343.12</ele>
  <time>2026-09-01T19:49:40Z</time>
  <course>10.9</course>
  <speed>0.022360679774997897</speed>
  <fix>3d</fix>
</trkpt>
<trkpt lat="-27.274439" lon="151.290064">
  <ele>343.1</ele>
  <time>2026-09-01T19:49:40Z</time>
  <course>270.0</course>
  <speed>0.0</speed>
  <fix>3d</fix>
</trkpt>
<trkpt lat="-27.2744392" lon="151.2900641">
  <ele>343.12</ele>
  <time>2026-09-01T19:49:40Z</time>
  <course>10.9</course>
  <speed>0.022360679774997897</speed>
  <fix>3d</fix>
</trkpt>
<trkpt lat="-27.274439" lon="151.290064">
  <ele>343.1</ele>
  <time>2026-09-01T19:49:40Z</time>
  <course>270.0</course>
  <speed>0.0</speed>
  <fix>3d</fix>
</trkpt>
<trkpt lat="-27.2744392" lon="151.2900641">
  <ele>343.12</ele>
  <time>2026-09-01T19:49:40Z</time>
  <course>10.9</course>
  <speed>0.022360679774997897</speed>
  <fix>3d</fix>
</trkpt>
<trkpt lat="-27.274439" lon="151.290064">
  <ele>343.1</ele>
  <time>2026-09-01T19:49:40Z</time>
  <course>270.0</course>
  <speed>0.0</speed>
  <fix>3d</fix>
</trkpt>
<trkpt lat="-27.2744392" lon="151.2900641">
  <ele>343.12</ele>
  <time>2026-09-01T19:49:40Z</time>
  <course>10.9</course>
  <speed>0.022360679774997897</speed>
  <fix>3d</fix>
</trkpt>
<trkpt lat="-27.274439" lon="151.290064">
  <ele>343.1</ele>
  <time>2026-09-01T19:49:40Z</time>
  <course>270.0</course>
  <speed>0.0</speed>
  <fix>3d</fix>
</trkpt>
<trkpt lat="-27.2744392" lon="151.2900641">
  <ele>343.13</ele>
  <time>2026-09-01T19:49:40Z</time>
  <course>10.9</course>
  <speed>0.022360679774997897</speed>
  <fix>3d</fix>
</trkpt>
<trkpt lat="-27.274439" lon="151.290064">
  <ele>343.1</ele>
  <time>2026-09-01T19:49:40Z</time>
  <course>270.0</course>
  <speed>0.0</speed>
  <fix>3d</fix>
</trkpt>
<trkpt lat="-27.2744392" lon="151.2900641">
  <ele>343.13</ele>
  <time>2026-09-01T19:49:40Z</time>
  <course>10.9</course>
  <speed>0.022360679774997897</speed>
  <fix>3d</fix>
</trkpt>
<trkpt lat="-27.274439" lon="151.290064">
  <ele>343.1</ele>
  <time>2026-09-01T19:49:40Z</time>
  <course>270.0</course>
  <speed>0.0</speed>
  <fix>3d</fix>
</trkpt>
<trkpt lat="-27.2744392" lon="151.2900641">
  <ele>343.12</ele>
  <time>2026-09-01T19:49:40Z</time>
  <course>10.91</course>
  <speed>0.022360679774997897</speed>
  <fix>3d</fix>
</trkpt>
<trkpt lat="-27.274439" lon="151.290064">
  <ele>343.1</ele>
  <time>2026-09-01T19:49:40Z</time>
  <course>270.0</course>
  <speed>0.0</speed>
  <fix>3d</fix>
</trkpt>
<trkpt lat="-27.2744392" lon="151.2900641">
  <ele>343.13</ele>
  <time>2026-09-01T19:49:40Z</time>
  <course>10.91</course>
  <speed>0.022360679774997897</speed>
  <fix>3d</fix>
</trkpt>
<trkpt lat="-27.274439" lon="151.290064">
  <ele>343.1</ele>
  <time>2026-09-01T19:49:40Z</time>
  <course>270.0</course>
  <speed>0.0</speed>
  <fix>3d</fix>
</trkpt>
<trkpt lat="-27.2744392" lon="151.2900641">
  <ele>343.13</ele>
  <time>2026-09-01T19:49:40Z</time>
  <course>10.91</course>
  <speed>0.022360679774997897</speed>
  <fix>3d</fix>
</trkpt>
<trkpt lat="-27.274439" lon="151.290064">
  <ele>343.1</ele>
  <time>2026-09-01T19:49:40Z</time>
  <course>270.0</course>
  <speed>0.0</speed>
  <fix>3d</fix>
</trkpt>
<trkpt lat="-27.2744392" lon="151.2900641">
  <ele>343.13</ele>
  <time>2026-09-01T19:49:40Z</time>
  <course>10.91</course>
  <speed>0.022360679774997897</speed>
  <fix>3d</fix>
</trkpt>
<trkpt lat="-27.274439" lon="151.290064">
  <ele>343.1</ele>
  <time>2026-09-01T19:49:40Z</time>
  <course>270.0</course>
  <speed>0.0</speed>
  <fix>3d</fix>
</trkpt>
<trkpt lat="-27.2744392" lon="151.2900641">
  <ele>343.13</ele>
  <time>2026-09-01T19:49:40Z</time>
  <course>10.91</course>
  <speed>0.022360679774997897</speed>
  <fix>3d</fix>
</trkpt>
<trkpt lat="-27.274439" lon="151.290064">
  <ele>343.1</ele>
  <time>2026-09-01T19:49:40Z</time>
  <course>270.0</course>
  <speed>0.0</speed>
  <fix>3d</fix>
</trkpt>
<trkpt lat="-27.2744392" lon="151.2900641">
  <ele>343.12</ele>
  <time>2026-09-01T19:49:40Z</time>
  <course>10.91</course>
  <speed>0.022360679774997897</speed>
  <fix>3d</fix>
</trkpt>
<trkpt lat="-27.274439" lon="151.290064">
  <ele>343.1</ele>
  <time>2026-09-01T19:49:40Z</time>
  <course>270.0</course>
  <speed>0.0</speed>
  <fix>3d</fix>
</trkpt>
<trkpt lat="-27.2744392" lon="151.2900641">
  <ele>343.12</ele>
  <time>2026-09-01T19:49:40Z</time>
  <course>10.91</course>
  <speed>0.022360679774997897</speed>
  <fix>3d</fix>
</trkpt>
<trkpt lat="-27.274439" lon="151.290064">
  <ele>343.1</ele>
  <time>2026-09-01T19:49:40Z</time>
  <course>270.0</course>
  <speed>0.0</speed>
  <fix>3d</fix>
</trkpt>
<trkpt lat="-27.2744392" lon="151.2900641">
  <ele>343.12</ele>
  <time>2026-09-01T19:49:40Z</time>
  <course>10.91</course>
  <speed>0.022360679774997897</speed>
  <fix>3d</fix>
</trkpt>
<trkpt lat="-27.274439" lon="151.290064">
  <ele>343.1</ele>
  <time>2026-09-01T19:49:40Z</time>
  <course>270.0</course>
  <speed>0.0</speed>
  <fix>3d</fix>
</trkpt>
<trkpt lat="-27.2744392" lon="151.2900641">
  <ele>343.12</ele>
  <time>2026-09-01T19:49:40Z</time>
  <course>10.91</course>
  <speed>0.022360679774997897</speed>
  <fix>3d</fix>
</trkpt>
<trkpt lat="-27.274439" lon="151.290064">
  <ele>343.1</ele>
  <time>2026-09-01T19:49:40Z</time>
  <course>270.0</course>
  <speed>0.0</speed>
  <fix>3d</fix>
</trkpt>
<trkpt lat="-27.2744392" lon="151.2900641">
  <ele>343.13</ele>
  <time>2026-09-01T19:49:40Z</time>
  <course>10.91</course>
  <speed>0.022360679774997897</speed>
  <fix>3d</fix>
</trkpt>
<trkpt lat="-27.274439" lon="151.290064">
  <ele>343.1</ele>
  <time>2026-09-01T19:49:40Z</time>
  <course>270.0</course>
  <speed>0.0</speed>
  <fix>3d</fix>
</trkpt>
<trkpt lat="-27.2744392" lon="151.2900641">
  <ele>343.13</ele>
  <time>2026-09-01T19:49:40Z</time>
  <course>10.91</course>
  <speed>0.022360679774997897</speed>
  <fix>3d</fix>
</trkpt>
<trkpt lat="-27.274439" lon="151.290064">
  <ele>343.1</ele>
  <time>2026-09-01T19:49:40Z</time>
  <course>270.0</course>
  <speed>0.0</speed>
  <fix>3d</fix>
</trkpt>
<trkpt lat="-27.2744392" lon="151.2900641">
  <ele>343.13</ele>
  <time>2026-09-01T19:49:40Z</time>
  <course>10.91</course>
  <speed>0.022360679774997897</speed>
  <fix>3d</fix>
</trkpt>
<trkpt lat="-27.274439" lon="151.290064">
  <ele>343.1</ele>
  <time>2026-09-01T19:49:40Z</time>
  <course>270.0</course>
  <speed>0.0</speed>
  <fix>3d</fix>
</trkpt>
<trkpt lat="-27.2744392" lon="151.2900641">
  <ele>343.13</ele>
  <time>2026-09-01T19:49:40Z</time>
  <course>10.92</course>
  <speed>0.022360679774997897</speed>
  <fix>3d</fix>
</trkpt>
<trkpt lat="-27.274439" lon="151.290064">
  <ele>343.1</ele>
  <time>2026-09-01T19:49:40Z</time>
  <course>270.0</course>
  <speed>0.0</speed>
  <fix>3d</fix>
</trkpt>
<trkpt lat="-27.2744392" lon="151.2900641">
  <ele>343.14</ele>
  <time>2026-09-01T19:49:40Z</time>
  <course>10.92</course>
  <speed>0.022360679774997897</speed>
  <fix>3d</fix>
</trkpt>
<trkpt lat="-27.274439" lon="151.290064">
  <ele>343.1</ele>
  <time>2026-09-01T19:49:40Z</time>
  <course>270.0</course>
  <speed>0.0</speed>
  <fix>3d</fix>
</trkpt>
<trkpt lat="-27.2744392" lon="151.2900641">
  <ele>343.14</ele>
  <time>2026-09-01T19:49:40Z</time>
  <course>10.92</course>
  <speed>0.022360679774997897</speed>
  <fix>3d</fix>
</trkpt>
<trkpt lat="-27.274439" lon="151.290064">
  <ele>343.1</ele>
  <time>2026-09-01T19:49:40Z</time>
  <course>270.0</course>
  <speed>0.0</speed>
  <fix>3d</fix>
</trkpt>
<trkpt lat="-27.2744392" lon="151.2900641">
  <ele>343.1</ele>
  <time>2026-09-01T19:49:40Z</time>
  <course>10.92</course>
  <speed>0.022360679774997897</speed>
  <fix>3d</fix>
</trkpt>
<trkpt lat="-27.274439" lon="151.290064">
  <ele>343.1</ele>
  <time>2026-09-01T19:49:40Z</time>
  <course>270.0</course>
  <speed>0.0</speed>
  <fix>3d</fix>
</trkpt>
<trkpt lat="-27.2744392" lon="151.2900641">
  <ele>343.1</ele>
  <time>2026-09-01T19:49:40Z</time>
  <course>10.92</course>
  <speed>0.022360679774997897</speed>
  <fix>3d</fix>
</trkpt>
<trkpt lat="-27.274439" lon="151.290064">
  <ele>343.1</ele>
  <time>2026-09-01T19:49:40Z</time>
  <course>270.0</course>
  <speed>0.0</speed>
  <fix>3d</fix>
</trkpt>
<trkpt lat="-27.2744392" lon="151.2900641">
  <ele>343.1</ele>
  <time>2026-09-01T19:49:40Z</time>
  <course>10.92</course>
  <speed>0.022360679774997897</speed>
  <fix>3d</fix>
</trkpt>
<trkpt lat="-27.274439" lon="151.290064">
  <ele>343.1</ele>
  <time>2026-09-01T19:49:40Z</time>
  <course>270.0</course>
  <speed>0.0</speed>
  <fix>3d</fix>
</trkpt>
<trkpt lat="-27.2744392" lon="151.2900641">
  <ele>343.1</ele>
  <time>2026-09-01T19:49:40Z</time>
  <course>10.92</course>
  <speed>0.022360679774997897</speed>
  <fix>3d</fix>
</trkpt>
<trkpt lat="-27.274439" lon="151.290064">
  <ele>343.1</ele>
  <time>2026-09-01T19:49:40Z</time>
  <course>270.0</course>
  <speed>0.0</speed>
  <fix>3d</fix>
</trkpt>
<trkpt lat="-27.2744392" lon="151.2900641">
  <ele>343.1</ele>
  <time>2026-09-01T19:49:40Z</time>
  <course>10.92</course>
  <speed>0.022360679774997897</speed>
  <fix>3d</fix>
</trkpt>
<trkpt lat="-27.274439" lon="151.290064">
  <ele>343.1</ele>
  <time>2026-09-01T19:49:40Z</time>
  <course>270.0</course>
  <speed>0.0</speed>
  <fix>3d</fix>
</trkpt>
<trkpt lat="-27.2744392" lon="151.2900641">
  <ele>343.1</ele>
  <time>2026-09-01T19:49:40Z</time>
  <course>10.92</course>
  <speed>0.022360679774997897</speed>
  <fix>3d</fix>
</trkpt>
<trkpt lat="-27.274439" lon="151.290064">
  <ele>343.1</ele>
  <time>2026-09-01T19:49:40Z</time>
  <course>270.0</course>
  <speed>0.0</speed>
  <fix>3d</fix>
</trkpt>
<trkpt lat="-27.2744392" lon="151.2900641">
  <ele>343.1</ele>
  <time>2026-09-01T19:49:40Z</time>
  <course>10.92</course>
  <speed>0.022360679774997897</speed>
  <fix>3d</fix>
</trkpt>
<trkpt lat="-27.274439" lon="151.290064">
  <ele>343.1</ele>
  <time>2026-09-01T19:49:40Z</time>
  <course>270.0</course>
  <speed>0.0</speed>
  <fix>3d</fix>
</trkpt>
<trkpt lat="-27.2744392" lon="151.2900641">
  <ele>343.1</ele>
  <time>2026-09-01T19:49:40Z</time>
  <course>10.92</course>
  <speed>0.022360679774997897</speed>
  <fix>3d</fix>
</trkpt>
<trkpt lat="-27.274439" lon="151.290064">
  <ele>343.1</ele>
  <time>2026-09-01T19:49:40Z</time>
  <course>270.0</course>
  <speed>0.0</speed>
  <fix>3d</fix>
</trkpt>
<trkpt lat="-27.2744392" lon="151.2900641">
  <ele>343.11</ele>
  <time>2026-09-01T19:49:40Z</time>
  <course>10.92</course>
  <speed>0.022360679774997897</speed>
  <fix>3d</fix>
</trkpt>
<trkpt lat="-27.274439" lon="151.290064">
  <ele>343.1</ele>
  <time>2026-09-01T19:49:40Z</time>
  <course>270.0</course>
  <speed>0.0</speed>
  <fix>3d</fix>
</trkpt>
<trkpt lat="-27.2744392" lon="151.2900641">
  <ele>343.11</ele>
  <time>2026-09-01T19:49:40Z</time>
  <course>10.93</course>
  <speed>0.022360679774997897</speed>
  <fix>3d</fix>
</trkpt>
<trkpt lat="-27.274439" lon="151.290064">
  <ele>343.1</ele>
  <time>2026-09-01T19:49:40Z</time>
  <course>270.0</course>
  <speed>0.0</speed>
  <fix>3d</fix>
</trkpt>
<trkpt lat="-27.2744392" lon="151.2900641">
  <ele>343.11</ele>
  <time>2026-09-01T19:49:40Z</time>
  <course>10.93</course>
  <speed>0.022360679774997897</speed>
  <fix>3d</fix>
</trkpt>
<trkpt lat="-27.274439" lon="151.290064">
  <ele>343.1</ele>
  <time>2026-09-01T19:49:40Z</time>
  <course>270.0</course>
  <speed>0.0</speed>
  <fix>3d</fix>
</trkpt>
<trkpt lat="-27.2744392" lon="151.2900641">
  <ele>343.11</ele>
  <time>2026-09-01T19:49:40Z</time>
  <course>10.93</course>
  <speed>0.022360679774997897</speed>
  <fix>3d</fix>
</trkpt>
<trkpt lat="-27.274439" lon="151.290064">
  <ele>343.1</ele>
  <time>2026-09-01T19:49:40Z</time>
  <course>270.0</course>
  <speed>0.0</speed>
  <fix>3d</fix>
</trkpt>
<trkpt lat="-27.2744392" lon="151.2900641">
  <ele>343.11</ele>
  <time>2026-09-01T19:49:40Z</time>
  <course>10.93</course>
  <speed>0.022360679774997897</speed>
  <fix>3d</fix>
</trkpt>
<trkpt lat="-27.274439" lon="151.290064">
  <ele>343.1</ele>
  <time>2026-09-01T19:49:40Z</time>
  <course>270.0</course>
  <speed>0.0</speed>
  <fix>3d</fix>
</trkpt>
<trkpt lat="-27.2744392" lon="151.2900641">
  <ele>343.11</ele>
  <time>2026-09-01T19:49:40Z</time>
  <course>10.93</course>
  <speed>0.022360679774997897</speed>
  <fix>3d</fix>
</trkpt>
<trkpt lat="-27.274439" lon="151.290064">
  <ele>343.1</ele>
  <time>2026-09-01T19:49:40Z</time>
  <course>270.0</course>
  <speed>0.0</speed>
  <fix>3d</fix>
</trkpt>
<trkpt lat="-27.2744392" lon="151.2900641">
  <ele>343.11</ele>
  <time>2026-09-01T19:49:40Z</time>
  <course>10.93</course>
  <speed>0.022360679774997897</speed>
  <fix>3d</fix>
</trkpt>
<trkpt lat="-27.274439" lon="151.290064">
  <ele>343.1</ele>
  <time>2026-09-01T19:49:40Z</time>
  <course>270.0</course>
  <speed>0.0</speed>
  <fix>3d</fix>
</trkpt>
<trkpt lat="-27.2744392" lon="151.2900641">
  <ele>343.11</ele>
  <time>2026-09-01T19:49:40Z</time>
  <course>10.93</course>
  <speed>0.022360679774997897</speed>
  <fix>3d</fix>
</trkpt>
<trkpt lat="-27.274439" lon="151.290064">
  <ele>343.1</ele>
  <time>2026-09-01T19:49:40Z</time>
  <course>270.0</course>
  <speed>0.0</speed>
  <fix>3d</fix>
</trkpt>
<trkpt lat="-27.2744392" lon="151.2900641">
  <ele>343.11</ele>
  <time>2026-09-01T19:49:40Z</time>
  <course>10.93</course>
  <speed>0.022360679774997897</speed>
  <fix>3d</fix>
</trkpt>
<trkpt lat="-27.274439" lon="151.290064">
  <ele>343.1</ele>
  <time>2026-09-01T19:49:40Z</time>
  <course>270.0</course>
  <speed>0.0</speed>
  <fix>3d</fix>
</trkpt>
<trkpt lat="-27.2744392" lon="151.2900641">
  <ele>343.11</ele>
  <time>2026-09-01T19:49:40Z</time>
  <course>10.93</course>
  <speed>0.022360679774997897</speed>
  <fix>3d</fix>
</trkpt>
<trkpt lat="-27.274439" lon="151.290064">
  <ele>343.1</ele>
  <time>2026-09-01T19:49:40Z</time>
  <course>270.0</course>
  <speed>0.0</speed>
  <fix>3d</fix>
</trkpt>
<trkpt lat="-27.2744392" lon="151.2900641">
  <ele>343.11</ele>
  <time>2026-09-01T19:49:40Z</time>
  <course>10.93</course>
  <speed>0.022360679774997897</speed>
  <fix>3d</fix>
</trkpt>
<trkpt lat="-27.274439" lon="151.290064">
  <ele>343.1</ele>
  <time>2026-09-01T19:49:40Z</time>
  <course>270.0</course>
  <speed>0.0</speed>
  <fix>3d</fix>
</trkpt>
<trkpt lat="-27.2744392" lon="151.2900641">
  <ele>343.11</ele>
  <time>2026-09-01T19:49:40Z</time>
  <course>10.93</course>
  <speed>0.022360679774997897</speed>
  <fix>3d</fix>
</trkpt>
<trkpt lat="-27.274439" lon="151.290064">
  <ele>343.1</ele>
  <time>2026-09-01T19:49:40Z</time>
  <course>270.0</course>
  <speed>0.0</speed>
  <fix>3d</fix>
</trkpt>
<trkpt lat="-27.2744392" lon="151.2900641">
  <ele>343.11</ele>
  <time>2026-09-01T19:49:40Z</time>
  <course>10.93</course>
  <speed>0.022360679774997897</speed>
  <fix>3d</fix>
</trkpt>
<trkpt lat="-27.274439" lon="151.290064">
  <ele>343.1</ele>
  <time>2026-09-01T19:49:40Z</time>
  <course>270.0</course>
  <speed>0.0</speed>
  <fix>3d</fix>
</trkpt>
<trkpt lat="-27.2744392" lon="151.2900641">
  <ele>343.11</ele>
  <time>2026-09-01T19:49:40Z</time>
  <course>10.94</course>
  <speed>0.022360679774997897</speed>
  <fix>3d</fix>
</trkpt>
<trkpt lat="-27.274439" lon="151.290064">
  <ele>343.1</ele>
  <time>2026-09-01T19:49:40Z</time>
  <course>270.0</course>
  <speed>0.0</speed>
  <fix>3d</fix>
</trkpt>
<trkpt lat="-27.2744392" lon="151.2900641">
  <ele>343.11</ele>
  <time>2026-09-01T19:49:40Z</time>
  <course>10.94</course>
  <speed>0.022360679774997897</speed>
  <fix>3d</fix>
</trkpt>
<trkpt lat="-27.274439" lon="151.290064">
  <ele>343.1</ele>
  <time>2026-09-01T19:49:40Z</time>
  <course>270.0</course>
  <speed>0.0</speed>
  <fix>3d</fix>
</trkpt>
<trkpt lat="-27.2744392" lon="151.2900641">
  <ele>343.1</ele>
  <time>2026-09-01T19:49:40Z</time>
  <course>10.94</course>
  <speed>0.022360679774997897</speed>
  <fix>3d</fix>
</trkpt>
<trkpt lat="-27.274439" lon="151.290064">
  <ele>343.1</ele>
  <time>2026-09-01T19:49:40Z</time>
  <course>270.0</course>
  <speed>0.0</speed>
  <fix>3d</fix>
</trkpt>
<trkpt lat="-27.2744392" lon="151.2900641">
  <ele>343.1</ele>
  <time>2026-09-01T19:49:40Z</time>
  <course>10.94</course>
  <speed>0.022360679774997897</speed>
  <fix>3d</fix>
</trkpt>
<trkpt lat="-27.274439" lon="151.290064">
  <ele>343.1</ele>
  <time>2026-09-01T19:49:40Z</time>
  <course>270.0</course>
  <speed>0.0</speed>
  <fix>3d</fix>
</trkpt>
<trkpt lat="-27.2744392" lon="151.2900641">
  <ele>343.1</ele>
  <time>2026-09-01T19:49:40Z</time>
  <course>10.94</course>
  <speed>0.022360679774997897</speed>
  <fix>3d</fix>
</trkpt>
<trkpt lat="-27.274439" lon="151.290064">
  <ele>343.1</ele>
  <time>2026-09-01T19:49:40Z</time>
  <course>270.0</course>
  <speed>0.0</speed>
  <fix>3d</fix>
</trkpt>
<trkpt lat="-27.2744392" lon="151.2900641">
  <ele>343.1</ele>
  <time>2026-09-01T19:49:40Z</time>
  <course>10.94</course>
  <speed>0.022360679774997897</speed>
  <fix>3d</fix>
</trkpt>
<trkpt lat="-27.274439" lon="151.290064">
  <ele>343.1</ele>
  <time>2026-09-01T19:49:40Z</time>
  <course>270.0</course>
  <speed>0.0</speed>
  <fix>3d</fix>
</trkpt>
<trkpt lat="-27.2744392" lon="151.2900641">
  <ele>343.09</ele>
  <time>2026-09-01T19:49:40Z</time>
  <course>10.94</course>
  <speed>0.022360679774997897</speed>
  <fix>3d</fix>
</trkpt>
<trkpt lat="-27.274439" lon="151.290064">
  <ele>343.1</ele>
  <time>2026-09-01T19:49:40Z</time>
  <course>270.0</course>
  <speed>0.0</speed>
  <fix>3d</fix>
</trkpt>
<trkpt lat="-27.2744392" lon="151.2900641">
  <ele>343.09</ele>
  <time>2026-09-01T19:49:40Z</time>
  <course>10.94</course>
  <speed>0.022360679774997897</speed>
  <fix>3d</fix>
</trkpt>
<trkpt lat="-27.274439" lon="151.290064">
  <ele>343.1</ele>
  <time>2026-09-01T19:49:40Z</time>
  <course>270.0</course>
  <speed>0.0</speed>
  <fix>3d</fix>
</trkpt>
<trkpt lat="-27.2744392" lon="151.2900641">
  <ele>343.09</ele>
  <time>2026-09-01T19:49:40Z</time>
  <course>10.94</course>
  <speed>0.022360679774997897</speed>
  <fix>3d</fix>
</trkpt>
<trkpt lat="-27.274439" lon="151.290064">
  <ele>343.1</ele>
  <time>2026-09-01T19:49:40Z</time>
  <course>270.0</course>
  <speed>0.0</speed>
  <fix>3d</fix>
</trkpt>
<trkpt lat="-27.2744392" lon="151.2900641">
  <ele>343.09</ele>
  <time>2026-09-01T19:49:40Z</time>
  <course>10.94</course>
  <speed>0.022360679774997897</speed>
  <fix>3d</fix>
</trkpt>
<trkpt lat="-27.274439" lon="151.290064">
  <ele>343.1</ele>
  <time>2026-09-01T19:49:40Z</time>
  <course>270.0</course>
  <speed>0.0</speed>
  <fix>3d</fix>
</trkpt>
<trkpt lat="-27.2744392" lon="151.2900641">
  <ele>343.09</ele>
  <time>2026-09-01T19:49:40Z</time>
  <course>10.94</course>
  <speed>0.022360679774997897</speed>
  <fix>3d</fix>
</trkpt>
<trkpt lat="-27.274439" lon="151.290064">
  <ele>343.1</ele>
  <time>2026-09-01T19:49:40Z</time>
  <course>270.0</course>
  <speed>0.0</speed>
  <fix>3d</fix>
</trkpt>
<trkpt lat="-27.2744392" lon="151.2900641">
  <ele>343.09</ele>
  <time>2026-09-01T19:49:40Z</time>
  <course>10.95</course>
  <speed>0.022360679774997897</speed>
  <fix>3d</fix>
</trkpt>
<trkpt lat="-27.274439" lon="151.290064">
  <ele>343.1</ele>
  <time>2026-09-01T19:49:40Z</time>
  <course>270.0</course>
  <speed>0.0</speed>
  <fix>3d</fix>
</trkpt>
<trkpt lat="-27.2744392" lon="151.2900641">
  <ele>343.09</ele>
  <time>2026-09-01T19:49:40Z</time>
  <course>10.95</course>
  <speed>0.022360679774997897</speed>
  <fix>3d</fix>
</trkpt>
<trkpt lat="-27.274439" lon="151.290064">
  <ele>343.1</ele>
  <time>2026-09-01T19:49:40Z</time>
  <course>270.0</course>
  <speed>0.0</speed>
  <fix>3d</fix>
</trkpt>
<trkpt lat="-27.2744392" lon="151.2900641">
  <ele>343.09</ele>
  <time>2026-09-01T19:49:40Z</time>
  <course>10.95</course>
  <speed>0.022360679774997897</speed>
  <fix>3d</fix>
</trkpt>
<trkpt lat="-27.274439" lon="151.290064">
  <ele>343.1</ele>
  <time>2026-09-01T19:49:40Z</time>
  <course>270.0</course>
  <speed>0.0</speed>
  <fix>3d</fix>
</trkpt>
<trkpt lat="-27.2744392" lon="151.2900641">
  <ele>343.08</ele>
  <time>2026-09-01T19:49:40Z</time>
  <course>10.95</course>
  <speed>0.022360679774997897</speed>
  <fix>3d</fix>
</trkpt>
<trkpt lat="-27.274439" lon="151.290064">
  <ele>343.1</ele>
  <time>2026-09-01T19:49:40Z</time>
  <course>270.0</course>
  <speed>0.0</speed>
  <fix>3d</fix>
</trkpt>
<trkpt lat="-27.2744392" lon="151.2900641">
  <ele>343.08</ele>
  <time>2026-09-01T19:49:40Z</time>
  <course>10.95</course>
  <speed>0.022360679774997897</speed>
  <fix>3d</fix>
</trkpt>
<trkpt lat="-27.274439" lon="151.290064">
  <ele>343.1</ele>
  <time>2026-09-01T19:49:40Z</time>
  <course>270.0</course>
  <speed>0.0</speed>
  <fix>3d</fix>
</trkpt>
<trkpt lat="-27.2744392" lon="151.2900641">
  <ele>343.08</ele>
  <time>2026-09-01T19:49:40Z</time>
  <course>10.95</course>
  <speed>0.022360679774997897</speed>
  <fix>3d</fix>
</trkpt>
<trkpt lat="-27.274439" lon="151.290064">
  <ele>343.1</ele>
  <time>2026-09-01T19:49:40Z</time>
  <course>270.0</course>
  <speed>0.0</speed>
  <fix>3d</fix>
</trkpt>
<trkpt lat="-27.2744392" lon="151.2900641">
  <ele>343.09</ele>
  <time>2026-09-01T19:49:40Z</time>
  <course>10.95</course>
  <speed>0.022360679774997897</speed>
  <fix>3d</fix>
</trkpt>
<trkpt lat="-27.274439" lon="151.290064">
  <ele>343.1</ele>
  <time>2026-09-01T19:49:40Z</time>
  <course>270.0</course>
  <speed>0.0</speed>
  <fix>3d</fix>
</trkpt>
<trkpt lat="-27.2744392" lon="151.2900641">
  <ele>343.09</ele>
  <time>2026-09-01T19:49:40Z</time>
  <course>10.95</course>
  <speed>0.022360679774997897</speed>
  <fix>3d</fix>
</trkpt>
<trkpt lat="-27.274439" lon="151.290064">
  <ele>343.1</ele>
  <time>2026-09-01T19:49:40Z</time>
  <course>270.0</course>
  <speed>0.0</speed>
  <fix>3d</fix>
</trkpt>
<trkpt lat="-27.2744392" lon="151.2900641">
  <ele>343.09</ele>
  <time>2026-09-01T19:49:40Z</time>
  <course>10.95</course>
  <speed>0.022360679774997897</speed>
  <fix>3d</fix>
</trkpt>
<trkpt lat="-27.274439" lon="151.290064">
  <ele>343.1</ele>
  <time>2026-09-01T19:49:40Z</time>
  <course>270.0</course>
  <speed>0.0</speed>
  <fix>3d</fix>
</trkpt>
<trkpt lat="-27.2744392" lon="151.2900641">
  <ele>343.09</ele>
  <time>2026-09-01T19:49:40Z</time>
  <course>10.95</course>
  <speed>0.022360679774997897</speed>
  <fix>3d</fix>
</trkpt>
<trkpt lat="-27.274439" lon="151.290064">
  <ele>343.1</ele>
  <time>2026-09-01T19:49:40Z</time>
  <course>270.0</course>
  <speed>0.0</speed>
  <fix>3d</fix>
</trkpt>
<trkpt lat="-27.2744392" lon="151.2900641">
  <ele>343.09</ele>
  <time>2026-09-01T19:49:40Z</time>
  <course>10.95</course>
  <speed>0.022360679774997897</speed>
  <fix>3d</fix>
</trkpt>
<trkpt lat="-27.274439" lon="151.290064">
  <ele>343.1</ele>
  <time>2026-09-01T19:49:40Z</time>
  <course>270.0</course>
  <speed>0.0</speed>
  <fix>3d</fix>
</trkpt>
<trkpt lat="-27.2744392" lon="151.2900641">
  <ele>343.09</ele>
  <time>2026-09-01T19:49:40Z</time>
  <course>10.95</course>
  <speed>0.022360679774997897</speed>
  <fix>3d</fix>
</trkpt>
<trkpt lat="-27.274439" lon="151.290064">
  <ele>343.1</ele>
  <time>2026-09-01T19:49:40Z</time>
  <course>270.0</course>
  <speed>0.0</speed>
  <fix>3d</fix>
</trkpt>
<trkpt lat="-27.2744392" lon="151.2900641">
  <ele>343.09</ele>
  <time>2026-09-01T19:49:40Z</time>
  <course>10.96</course>
  <speed>0.022360679774997897</speed>
  <fix>3d</fix>
</trkpt>
<trkpt lat="-27.274439" lon="151.290064">
  <ele>343.1</ele>
  <time>2026-09-01T19:49:40Z</time>
  <course>270.0</course>
  <speed>0.0</speed>
  <fix>3d</fix>
</trkpt>
<trkpt lat="-27.2744392" lon="151.2900641">
  <ele>343.09</ele>
  <time>2026-09-01T19:49:40Z</time>
  <course>10.96</course>
  <speed>0.022360679774997897</speed>
  <fix>3d</fix>
</trkpt>
<trkpt lat="-27.274439" lon="151.290064">
  <ele>343.1</ele>
  <time>2026-09-01T19:49:40Z</time>
  <course>270.0</course>
  <speed>0.0</speed>
  <fix>3d</fix>
</trkpt>
<trkpt lat="-27.2744392" lon="151.2900641">
  <ele>343.09</ele>
  <time>2026-09-01T19:49:40Z</time>
  <course>10.96</course>
  <speed>0.022360679774997897</speed>
  <fix>3d</fix>
</trkpt>
<trkpt lat="-27.274439" lon="151.290064">
  <ele>343.1</ele>
  <time>2026-09-01T19:49:40Z</time>
  <course>270.0</course>
  <speed>0.0</speed>
  <fix>3d</fix>
</trkpt>
<trkpt lat="-27.2744392" lon="151.2900641">
  <ele>343.09</ele>
  <time>2026-09-01T19:49:40Z</time>
  <course>10.96</course>
  <speed>0.022360679774997897</speed>
  <fix>3d</fix>
</trkpt>
<trkpt lat="-27.274439" lon="151.290064">
  <ele>343.1</ele>
  <time>2026-09-01T19:49:40Z</time>
  <course>270.0</course>
  <speed>0.0</speed>
  <fix>3d</fix>
</trkpt>
<trkpt lat="-27.2744392" lon="151.2900641">
  <ele>343.09</ele>
  <time>2026-09-01T19:49:40Z</time>
  <course>10.96</course>
  <speed>0.022360679774997897</speed>
  <fix>3d</fix>
</trkpt>
<trkpt lat="-27.274439" lon="151.290064">
  <ele>343.1</ele>
  <time>2026-09-01T19:49:40Z</time>
  <course>270.0</course>
  <speed>0.0</speed>
  <fix>3d</fix>
</trkpt>
<trkpt lat="-27.2744392" lon="151.2900641">
  <ele>343.09</ele>
  <time>2026-09-01T19:49:40Z</time>
  <course>10.96</course>
  <speed>0.022360679774997897</speed>
  <fix>3d</fix>
</trkpt>
<trkpt lat="-27.274439" lon="151.290064">
  <ele>343.1</ele>
  <time>2026-09-01T19:49:40Z</time>
  <course>270.0</course>
  <speed>0.0</speed>
  <fix>3d</fix>
</trkpt>
<trkpt lat="-27.2744392" lon="151.2900641">
  <ele>343.1</ele>
  <time>2026-09-01T19:49:40Z</time>
  <course>10.96</course>
  <speed>0.022360679774997897</speed>
  <fix>3d</fix>
</trkpt>
<trkpt lat="-27.274439" lon="151.290064">
  <ele>343.1</ele>
  <time>2026-09-01T19:49:40Z</time>
  <course>270.0</course>
  <speed>0.0</speed>
  <fix>3d</fix>
</trkpt>
<trkpt lat="-27.2744392" lon="151.2900641">
  <ele>343.1</ele>
  <time>2026-09-01T19:49:40Z</time>
  <course>10.96</course>
  <speed>0.022360679774997897</speed>
  <fix>3d</fix>
</trkpt>
<trkpt lat="-27.274439" lon="151.290064">
  <ele>343.1</ele>
  <time>2026-09-01T19:49:40Z</time>
  <course>270.0</course>
  <speed>0.0</speed>
  <fix>3d</fix>
</trkpt>
<trkpt lat="-27.2744392" lon="151.2900641">
  <ele>343.1</ele>
  <time>2026-09-01T19:49:40Z</time>
  <course>10.96</course>
  <speed>0.022360679774997897</speed>
  <fix>3d</fix>
</trkpt>
<trkpt lat="-27.274439" lon="151.290064">
  <ele>343.1</ele>
  <time>2026-09-01T19:49:40Z</time>
  <course>270.0</course>
  <speed>0.0</speed>
  <fix>3d</fix>
</trkpt>
<trkpt lat="-27.2744392" lon="151.2900641">
  <ele>343.1</ele>
  <time>2026-09-01T19:49:40Z</time>
  <course>10.96</course>
  <speed>0.022360679774997897</speed>
  <fix>3d</fix>
</trkpt>
<trkpt lat="-27.274439" lon="151.290064">
  <ele>343.1</ele>
  <time>2026-09-01T19:49:40Z</time>
  <course>270.0</course>
  <speed>0.0</speed>
  <fix>3d</fix>
</trkpt>
<trkpt lat="-27.2744392" lon="151.2900641">
  <ele>343.1</ele>
  <time>2026-09-01T19:49:40Z</time>
  <course>10.96</course>
  <speed>0.022360679774997897</speed>
  <fix>3d</fix>
</trkpt>
<trkpt lat="-27.274439" lon="151.290064">
  <ele>343.1</ele>
  <time>2026-09-01T19:49:40Z</time>
  <course>270.0</course>
  <speed>0.0</speed>
  <fix>3d</fix>
</trkpt>
<trkpt lat="-27.2744392" lon="151.2900641">
  <ele>343.1</ele>
  <time>2026-09-01T19:49:40Z</time>
  <course>10.97</course>
  <speed>0.022360679774997897</speed>
  <fix>3d</fix>
</trkpt>
<trkpt lat="-27.274439" lon="151.290064">
  <ele>343.1</ele>
  <time>2026-09-01T19:49:40Z</time>
  <course>270.0</course>
  <speed>0.0</speed>
  <fix>3d</fix>
</trkpt>
<trkpt lat="-27.2744392" lon="151.2900641">
  <ele>343.1</ele>
  <time>2026-09-01T19:49:40Z</time>
  <course>10.97</course>
  <speed>0.022360679774997897</speed>
  <fix>3d</fix>
</trkpt>
<trkpt lat="-27.274439" lon="151.290064">
  <ele>343.1</ele>
  <time>2026-09-01T19:49:40Z</time>
  <course>270.0</course>
  <speed>0.0</speed>
  <fix>3d</fix>
</trkpt>
<trkpt lat="-27.2744392" lon="151.2900641">
  <ele>343.09</ele>
  <time>2026-09-01T19:49:40Z</time>
  <course>10.97</course>
  <speed>0.022360679774997897</speed>
  <fix>3d</fix>
</trkpt>
<trkpt lat="-27.274439" lon="151.290064">
  <ele>343.1</ele>
  <time>2026-09-01T19:49:40Z</time>
  <course>270.0</course>
  <speed>0.0</speed>
  <fix>3d</fix>
</trkpt>
<trkpt lat="-27.2744392" lon="151.2900641">
  <ele>343.09</ele>
  <time>2026-09-01T19:49:40Z</time>
  <course>10.97</course>
  <speed>0.022360679774997897</speed>
  <fix>3d</fix>
</trkpt>
<trkpt lat="-27.274439" lon="151.290064">
  <ele>343.1</ele>
  <time>2026-09-01T19:49:40Z</time>
  <course>270.0</course>
  <speed>0.0</speed>
  <fix>3d</fix>
</trkpt>
<trkpt lat="-27.2744392" lon="151.2900641">
  <ele>343.09</ele>
  <time>2026-09-01T19:49:40Z</time>
  <course>10.97</course>
  <speed>0.022360679774997897</speed>
  <fix>3d</fix>
</trkpt>
<trkpt lat="-27.274439" lon="151.290064">
  <ele>343.1</ele>
  <time>2026-09-01T19:49:40Z</time>
  <course>270.0</course>
  <speed>0.0</speed>
  <fix>3d</fix>
</trkpt>
<trkpt lat="-27.2744392" lon="151.2900641">
  <ele>343.09</ele>
  <time>2026-09-01T19:49:40Z</time>
  <course>10.97</course>
  <speed>0.022360679774997897</speed>
  <fix>3d</fix>
</trkpt>
<trkpt lat="-27.274439" lon="151.290064">
  <ele>343.1</ele>
  <time>2026-09-01T19:49:40Z</time>
  <course>270.0</course>
  <speed>0.0</speed>
  <fix>3d</fix>
</trkpt>
<trkpt lat="-27.2744392" lon="151.2900641">
  <ele>343.1</ele>
  <time>2026-09-01T19:49:40Z</time>
  <course>10.97</course>
  <speed>0.022360679774997897</speed>
  <fix>3d</fix>
</trkpt>
<trkpt lat="-27.274439" lon="151.290064">
  <ele>343.1</ele>
  <time>2026-09-01T19:49:40Z</time>
  <course>270.0</course>
  <speed>0.0</speed>
  <fix>3d</fix>
</trkpt>
<trkpt lat="-27.2744392" lon="151.2900641">
  <ele>343.09</ele>
  <time>2026-09-01T19:49:40Z</time>
  <course>10.97</course>
  <speed>0.022360679774997897</speed>
  <fix>3d</fix>
</trkpt>
<trkpt lat="-27.274439" lon="151.290064">
  <ele>343.1</ele>
  <time>2026-09-01T19:49:40Z</time>
  <course>270.0</course>
  <speed>0.0</speed>
  <fix>3d</fix>
</trkpt>
<trkpt lat="-27.2744392" lon="151.2900641">
  <ele>343.09</ele>
  <time>2026-09-01T19:49:40Z</time>
  <course>10.97</course>
  <speed>0.022360679774997897</speed>
  <fix>3d</fix>
</trkpt>
<trkpt lat="-27.274439" lon="151.290064">
  <ele>343.1</ele>
  <time>2026-09-01T19:49:40Z</time>
  <course>270.0</course>
  <speed>0.0</speed>
  <fix>3d</fix>
</trkpt>
<trkpt lat="-27.2744392" lon="151.2900641">
  <ele>343.09</ele>
  <time>2026-09-01T19:49:40Z</time>
  <course>10.97</course>
  <speed>0.022360679774997897</speed>
  <fix>3d</fix>
</trkpt>
<trkpt lat="-27.274439" lon="151.290064">
  <ele>343.1</ele>
  <time>2026-09-01T19:49:40Z</time>
  <course>270.0</course>
  <speed>0.0</speed>
  <fix>3d</fix>
</trkpt>
<trkpt lat="-27.2744392" lon="151.2900641">
  <ele>343.09</ele>
  <time>2026-09-01T19:49:40Z</time>
  <course>10.97</course>
  <speed>0.022360679774997897</speed>
  <fix>3d</fix>
</trkpt>
<trkpt lat="-27.274439" lon="151.290064">
  <ele>343.1</ele>
  <time>2026-09-01T19:49:40Z</time>
  <course>270.0</course>
  <speed>0.0</speed>
  <fix>3d</fix>
</trkpt>
<trkpt lat="-27.2744392" lon="151.2900641">
  <ele>343.09</ele>
  <time>2026-09-01T19:49:40Z</time>
  <course>10.97</course>
  <speed>0.022360679774997897</speed>
  <fix>3d</fix>
</trkpt>
<trkpt lat="-27.274439" lon="151.290064">
  <ele>343.1</ele>
  <time>2026-09-01T19:49:40Z</time>
  <course>270.0</course>
  <speed>0.0</speed>
  <fix>3d</fix>
</trkpt>
<trkpt lat="-27.2744392" lon="151.2900641">
  <ele>343.09</ele>
  <time>2026-09-01T19:49:40Z</time>
  <course>10.98</course>
  <speed>0.022360679774997897</speed>
  <fix>3d</fix>
</trkpt>
<trkpt lat="-27.274439" lon="151.290064">
  <ele>343.1</ele>
  <time>2026-09-01T19:49:40Z</time>
  <course>270.0</course>
  <speed>0.0</speed>
  <fix>3d</fix>
</trkpt>
<trkpt lat="-27.2744392" lon="151.2900641">
  <ele>343.09</ele>
  <time>2026-09-01T19:49:40Z</time>
  <course>10.98</course>
  <speed>0.022360679774997897</speed>
  <fix>3d</fix>
</trkpt>
<trkpt lat="-27.274439" lon="151.290064">
  <ele>343.1</ele>
  <time>2026-09-01T19:49:40Z</time>
  <course>270.0</course>
  <speed>0.0</speed>
  <fix>3d</fix>
</trkpt>
<trkpt lat="-27.2744392" lon="151.2900641">
  <ele>343.09</ele>
  <time>2026-09-01T19:49:40Z</time>
  <course>10.98</course>
  <speed>0.022360679774997897</speed>
  <fix>3d</fix>
</trkpt>
<trkpt lat="-27.274439" lon="151.290064">
  <ele>343.1</ele>
  <time>2026-09-01T19:49:40Z</time>
  <course>270.0</course>
  <speed>0.0</speed>
  <fix>3d</fix>
</trkpt>
<trkpt lat="-27.2744392" lon="151.2900641">
  <ele>343.08</ele>
  <time>2026-09-01T19:49:40Z</time>
  <course>10.98</course>
  <speed>0.022360679774997897</speed>
  <fix>3d</fix>
</trkpt>
<trkpt lat="-27.274439" lon="151.290064">
  <ele>343.1</ele>
  <time>2026-09-01T19:49:40Z</time>
  <course>270.0</course>
  <speed>0.0</speed>
  <fix>3d</fix>
</trkpt>
<trkpt lat="-27.2744392" lon="151.2900641">
  <ele>343.08</ele>
  <time>2026-09-01T19:49:40Z</time>
  <course>10.98</course>
  <speed>0.022360679774997897</speed>
  <fix>3d</fix>
</trkpt>
<trkpt lat="-27.274439" lon="151.290064">
  <ele>343.1</ele>
  <time>2026-09-01T19:49:40Z</time>
  <course>270.0</course>
  <speed>0.0</speed>
  <fix>3d</fix>
</trkpt>
<trkpt lat="-27.2744392" lon="151.2900641">
  <ele>343.08</ele>
  <time>2026-09-01T19:49:40Z</time>
  <course>10.98</course>
  <speed>0.022360679774997897</speed>
  <fix>3d</fix>
</trkpt>
<trkpt lat="-27.274439" lon="151.290064">
  <ele>343.1</ele>
  <time>2026-09-01T19:49:40Z</time>
  <course>270.0</course>
  <speed>0.0</speed>
  <fix>3d</fix>
</trkpt>
<trkpt lat="-27.2744392" lon="151.2900641">
  <ele>343.08</ele>
  <time>2026-09-01T19:49:40Z</time>
  <course>10.98</course>
  <speed>0.022360679774997897</speed>
  <fix>3d</fix>
</trkpt>
<trkpt lat="-27.274439" lon="151.290064">
  <ele>343.1</ele>
  <time>2026-09-01T19:49:40Z</time>
  <course>270.0</course>
  <speed>0.0</speed>
  <fix>3d</fix>
</trkpt>
<trkpt lat="-27.2744392" lon="151.2900641">
  <ele>343.08</ele>
  <time>2026-09-01T19:49:40Z</time>
  <course>10.98</course>
  <speed>0.022360679774997897</speed>
  <fix>3d</fix>
</trkpt>
<trkpt lat="-27.274439" lon="151.290064">
  <ele>343.1</ele>
  <time>2026-09-01T19:49:40Z</time>
  <course>270.0</course>
  <speed>0.0</speed>
  <fix>3d</fix>
</trkpt>
<trkpt lat="-27.2744392" lon="151.2900641">
  <ele>343.08</ele>
  <time>2026-09-01T19:49:40Z</time>
  <course>10.98</course>
  <speed>0.022360679774997897</speed>
  <fix>3d</fix>
</trkpt>
<trkpt lat="-27.274439" lon="151.290064">
  <ele>343.1</ele>
  <time>2026-09-01T19:49:40Z</time>
  <course>270.0</course>
  <speed>0.0</speed>
  <fix>3d</fix>
</trkpt>
<trkpt lat="-27.2744392" lon="151.2900641">
  <ele>343.07</ele>
  <time>2026-09-01T19:49:40Z</time>
  <course>10.98</course>
  <speed>0.022360679774997897</speed>
  <fix>3d</fix>
</trkpt>
<trkpt lat="-27.274439" lon="151.290064">
  <ele>343.1</ele>
  <time>2026-09-01T19:49:40Z</time>
  <course>270.0</course>
  <speed>0.0</speed>
  <fix>3d</fix>
</trkpt>
<trkpt lat="-27.2744392" lon="151.2900641">
  <ele>343.07</ele>
  <time>2026-09-01T19:49:40Z</time>
  <course>10.98</course>
  <speed>0.022360679774997897</speed>
  <fix>3d</fix>
</trkpt>
<trkpt lat="-27.274439" lon="151.290064">
  <ele>343.1</ele>
  <time>2026-09-01T19:49:40Z</time>
  <course>270.0</course>
  <speed>0.0</speed>
  <fix>3d</fix>
</trkpt>
<trkpt lat="-27.2744392" lon="151.2900641">
  <ele>343.07</ele>
  <time>2026-09-01T19:49:40Z</time>
  <course>10.99</course>
  <speed>0.022360679774997897</speed>
  <fix>3d</fix>
</trkpt>
<trkpt lat="-27.274439" lon="151.290064">
  <ele>343.1</ele>
  <time>2026-09-01T19:49:40Z</time>
  <course>270.0</course>
  <speed>0.0</speed>
  <fix>3d</fix>
</trkpt>
<trkpt lat="-27.2744392" lon="151.2900641">
  <ele>343.07</ele>
  <time>2026-09-01T19:49:40Z</time>
  <course>10.99</course>
  <speed>0.022360679774997897</speed>
  <fix>3d</fix>
</trkpt>
<trkpt lat="-27.274439" lon="151.290064">
  <ele>343.1</ele>
  <time>2026-09-01T19:49:40Z</time>
  <course>270.0</course>
  <speed>0.0</speed>
  <fix>3d</fix>
</trkpt>
<trkpt lat="-27.2744392" lon="151.2900641">
  <ele>343.07</ele>
  <time>2026-09-01T19:49:40Z</time>
  <course>10.99</course>
  <speed>0.022360679774997897</speed>
  <fix>3d</fix>
</trkpt>
<trkpt lat="-27.274439" lon="151.290064">
  <ele>343.1</ele>
  <time>2026-09-01T19:49:40Z</time>
  <course>270.0</course>
  <speed>0.0</speed>
  <fix>3d</fix>
</trkpt>
<trkpt lat="-27.2744392" lon="151.2900641">
  <ele>343.07</ele>
  <time>2026-09-01T19:49:40Z</time>
  <course>10.99</course>
  <speed>0.022360679774997897</speed>
  <fix>3d</fix>
</trkpt>
<trkpt lat="-27.274439" lon="151.290064">
  <ele>343.1</ele>
  <time>2026-09-01T19:49:40Z</time>
  <course>270.0</course>
  <speed>0.0</speed>
  <fix>3d</fix>
</trkpt>
<trkpt lat="-27.2744392" lon="151.2900641">
  <ele>343.07</ele>
  <time>2026-09-01T19:49:40Z</time>
  <course>10.99</course>
  <speed>0.022360679774997897</speed>
  <fix>3d</fix>
</trkpt>
<trkpt lat="-27.274439" lon="151.290064">
  <ele>343.1</ele>
  <time>2026-09-01T19:49:40Z</time>
  <course>270.0</course>
  <speed>0.0</speed>
  <fix>3d</fix>
</trkpt>
<trkpt lat="-27.2744392" lon="151.2900641">
  <ele>343.07</ele>
  <time>2026-09-01T19:49:40Z</time>
  <course>10.99</course>
  <speed>0.022360679774997897</speed>
  <fix>3d</fix>
</trkpt>
<trkpt lat="-27.274439" lon="151.290064">
  <ele>343.1</ele>
  <time>2026-09-01T19:49:40Z</time>
  <course>270.0</course>
  <speed>0.0</speed>
  <fix>3d</fix>
</trkpt>
<trkpt lat="-27.2744392" lon="151.2900641">
  <ele>343.07</ele>
  <time>2026-09-01T19:49:40Z</time>
  <course>10.99</course>
  <speed>0.022360679774997897</speed>
  <fix>3d</fix>
</trkpt>
<trkpt lat="-27.274439" lon="151.290064">
  <ele>343.1</ele>
  <time>2026-09-01T19:49:40Z</time>
  <course>270.0</course>
  <speed>0.0</speed>
  <fix>3d</fix>
</trkpt>
<trkpt lat="-27.2744392" lon="151.2900641">
  <ele>343.07</ele>
  <time>2026-09-01T19:49:40Z</time>
  <course>10.99</course>
  <speed>0.022360679774997897</speed>
  <fix>3d</fix>
</trkpt>
<trkpt lat="-27.274439" lon="151.290064">
  <ele>343.1</ele>
  <time>2026-09-01T19:49:40Z</time>
  <course>270.0</course>
  <speed>0.0</speed>
  <fix>3d</fix>
</trkpt>
<trkpt lat="-27.2744392" lon="151.2900641">
  <ele>343.06</ele>
  <time>2026-09-01T19:49:40Z</time>
  <course>10.99</course>
  <speed>0.022360679774997897</speed>
  <fix>3d</fix>
</trkpt>
<trkpt lat="-27.274439" lon="151.290064">
  <ele>343.1</ele>
  <time>2026-09-01T19:49:40Z</time>
  <course>270.0</course>
  <speed>0.0</speed>
  <fix>3d</fix>
</trkpt>
<trkpt lat="-27.2744392" lon="151.2900641">
  <ele>343.06</ele>
  <time>2026-09-01T19:49:40Z</time>
  <course>10.99</course>
  <speed>0.022360679774997897</speed>
  <fix>3d</fix>
</trkpt>
<trkpt lat="-27.274439" lon="151.290064">
  <ele>343.1</ele>
  <time>2026-09-01T19:49:40Z</time>
  <course>270.0</course>
  <speed>0.0</speed>
  <fix>3d</fix>
</trkpt>
<trkpt lat="-27.2744392" lon="151.2900641">
  <ele>343.06</ele>
  <time>2026-09-01T19:49:40Z</time>
  <course>10.99</course>
  <speed>0.022360679774997897</speed>
  <fix>3d</fix>
</trkpt>
<trkpt lat="-27.274439" lon="151.290064">
  <ele>343.1</ele>
  <time>2026-09-01T19:49:40Z</time>
  <course>270.0</course>
  <speed>0.0</speed>
  <fix>3d</fix>
</trkpt>
<trkpt lat="-27.2744392" lon="151.2900641">
  <ele>343.06</ele>
  <time>2026-09-01T19:49:40Z</time>
  <course>11.0</course>
  <speed>0.022360679774997897</speed>
  <fix>3d</fix>
</trkpt>
<trkpt lat="-27.274439" lon="151.290064">
  <ele>343.1</ele>
  <time>2026-09-01T19:49:40Z</time>
  <course>270.0</course>
  <speed>0.0</speed>
  <fix>3d</fix>
</trkpt>
<trkpt lat="-27.2744392" lon="151.2900641">
  <ele>343.06</ele>
  <time>2026-09-01T19:49:40Z</time>
  <course>11.0</course>
  <speed>0.022360679774997897</speed>
  <fix>3d</fix>
</trkpt>
<trkpt lat="-27.274439" lon="151.290064">
  <ele>343.1</ele>
  <time>2026-09-01T19:49:40Z</time>
  <course>270.0</course>
  <speed>0.0</speed>
  <fix>3d</fix>
</trkpt>
<trkpt lat="-27.2744392" lon="151.2900641">
  <ele>343.06</ele>
  <time>2026-09-01T19:49:40Z</time>
  <course>11.0</course>
  <speed>0.022360679774997897</speed>
  <fix>3d</fix>
</trkpt>
<trkpt lat="-27.274439" lon="151.290064">
  <ele>343.1</ele>
  <time>2026-09-01T19:49:40Z</time>
  <course>270.0</course>
  <speed>0.0</speed>
  <fix>3d</fix>
</trkpt>
<trkpt lat="-27.2744392" lon="151.2900641">
  <ele>343.06</ele>
  <time>2026-09-01T19:49:40Z</time>
  <course>11.0</course>
  <speed>0.022360679774997897</speed>
  <fix>3d</fix>
</trkpt>
<trkpt lat="-27.274439" lon="151.290064">
  <ele>343.1</ele>
  <time>2026-09-01T19:49:40Z</time>
  <course>270.0</course>
  <speed>0.0</speed>
  <fix>3d</fix>
</trkpt>
<trkpt lat="-27.2744392" lon="151.2900641">
  <ele>343.05</ele>
  <time>2026-09-01T19:49:40Z</time>
  <course>11.0</course>
  <speed>0.022360679774997897</speed>
  <fix>3d</fix>
</trkpt>
<trkpt lat="-27.274439" lon="151.290064">
  <ele>343.1</ele>
  <time>2026-09-01T19:49:40Z</time>
  <course>270.0</course>
  <speed>0.0</speed>
  <fix>3d</fix>
</trkpt>
<trkpt lat="-27.2744392" lon="151.2900641">
  <ele>343.05</ele>
  <time>2026-09-01T19:49:40Z</time>
  <course>11.0</course>
  <speed>0.022360679774997897</speed>
  <fix>3d</fix>
</trkpt>
<trkpt lat="-27.274439" lon="151.290064">
  <ele>343.1</ele>
  <time>2026-09-01T19:49:40Z</time>
  <course>270.0</course>
  <speed>0.0</speed>
  <fix>3d</fix>
</trkpt>
<trkpt lat="-27.2744392" lon="151.2900641">
  <ele>343.05</ele>
  <time>2026-09-01T19:49:40Z</time>
  <course>11.0</course>
  <speed>0.022360679774997897</speed>
  <fix>3d</fix>
</trkpt>
<trkpt lat="-27.274439" lon="151.290064">
  <ele>343.1</ele>
  <time>2026-09-01T19:49:40Z</time>
  <course>270.0</course>
  <speed>0.0</speed>
  <fix>3d</fix>
</trkpt>
<trkpt lat="-27.2744392" lon="151.2900641">
  <ele>343.05</ele>
  <time>2026-09-01T19:49:40Z</time>
  <course>11.0</course>
  <speed>0.022360679774997897</speed>
  <fix>3d</fix>
</trkpt>
<trkpt lat="-27.274439" lon="151.290064">
  <ele>343.1</ele>
  <time>2026-09-01T19:49:40Z</time>
  <course>270.0</course>
  <speed>0.0</speed>
  <fix>3d</fix>
</trkpt>
<trkpt lat="-27.2744392" lon="151.2900641">
  <ele>343.05</ele>
  <time>2026-09-01T19:49:41Z</time>
  <course>11.0</course>
  <speed>0.022360679774997897</speed>
  <fix>3d</fix>
</trkpt>
<trkpt lat="-27.274439" lon="151.290064">
  <ele>343.1</ele>
  <time>2026-09-01T19:49:41Z</time>
  <course>270.0</course>
  <speed>0.0</speed>
  <fix>3d</fix>
</trkpt>
<trkpt lat="-27.2744392" lon="151.2900641">
  <ele>343.05</ele>
  <time>2026-09-01T19:49:41Z</time>
  <course>11.0</course>
  <speed>0.022360679774997897</speed>
  <fix>3d</fix>
</trkpt>
<trkpt lat="-27.274439" lon="151.290064">
  <ele>343.1</ele>
  <time>2026-09-01T19:49:41Z</time>
  <course>270.0</course>
  <speed>0.0</speed>
  <fix>3d</fix>
</trkpt>
<trkpt lat="-27.2744392" lon="151.2900641">
  <ele>343.05</ele>
  <time>2026-09-01T19:49:41Z</time>
  <course>11.0</course>
  <speed>0.022360679774997897</speed>
  <fix>3d</fix>
</trkpt>
<trkpt lat="-27.274439" lon="151.290064">
  <ele>343.1</ele>
  <time>2026-09-01T19:49:41Z</time>
  <course>270.0</course>
  <speed>0.0</speed>
  <fix>3d</fix>
</trkpt>
<trkpt lat="-27.2744392" lon="151.2900641">
  <ele>343.05</ele>
  <time>2026-09-01T19:49:41Z</time>
  <course>11.01</course>
  <speed>0.022360679774997897</speed>
  <fix>3d</fix>
</trkpt>
<trkpt lat="-27.274439" lon="151.290064">
  <ele>343.1</ele>
  <time>2026-09-01T19:49:41Z</time>
  <course>270.0</course>
  <speed>0.0</speed>
  <fix>3d</fix>
</trkpt>
<trkpt lat="-27.2744392" lon="151.2900641">
  <ele>343.04</ele>
  <time>2026-09-01T19:49:41Z</time>
  <course>11.01</course>
  <speed>0.022360679774997897</speed>
  <fix>3d</fix>
</trkpt>
<trkpt lat="-27.274439" lon="151.290064">
  <ele>343.1</ele>
  <time>2026-09-01T19:49:41Z</time>
  <course>270.0</course>
  <speed>0.0</speed>
  <fix>3d</fix>
</trkpt>
<trkpt lat="-27.2744392" lon="151.2900641">
  <ele>343.04</ele>
  <time>2026-09-01T19:49:41Z</time>
  <course>11.01</course>
  <speed>0.022360679774997897</speed>
  <fix>3d</fix>
</trkpt>
<trkpt lat="-27.274439" lon="151.290064">
  <ele>343.1</ele>
  <time>2026-09-01T19:49:41Z</time>
  <course>270.0</course>
  <speed>0.0</speed>
  <fix>3d</fix>
</trkpt>
<trkpt lat="-27.2744392" lon="151.2900641">
  <ele>343.04</ele>
  <time>2026-09-01T19:49:41Z</time>
  <course>11.01</course>
  <speed>0.022360679774997897</speed>
  <fix>3d</fix>
</trkpt>
<trkpt lat="-27.274439" lon="151.290064">
  <ele>343.1</ele>
  <time>2026-09-01T19:49:41Z</time>
  <course>270.0</course>
  <speed>0.0</speed>
  <fix>3d</fix>
</trkpt>
<trkpt lat="-27.2744392" lon="151.2900641">
  <ele>343.04</ele>
  <time>2026-09-01T19:49:41Z</time>
  <course>11.01</course>
  <speed>0.022360679774997897</speed>
  <fix>3d</fix>
</trkpt>
<trkpt lat="-27.274439" lon="151.290064">
  <ele>343.1</ele>
  <time>2026-09-01T19:49:41Z</time>
  <course>270.0</course>
  <speed>0.0</speed>
  <fix>3d</fix>
</trkpt>
<trkpt lat="-27.2744392" lon="151.2900641">
  <ele>343.04</ele>
  <time>2026-09-01T19:49:41Z</time>
  <course>11.01</course>
  <speed>0.022360679774997897</speed>
  <fix>3d</fix>
</trkpt>
<trkpt lat="-27.274439" lon="151.290064">
  <ele>343.1</ele>
  <time>2026-09-01T19:49:41Z</time>
  <course>270.0</course>
  <speed>0.0</speed>
  <fix>3d</fix>
</trkpt>
<trkpt lat="-27.2744392" lon="151.2900641">
  <ele>343.04</ele>
  <time>2026-09-01T19:49:41Z</time>
  <course>11.01</course>
  <speed>0.022360679774997897</speed>
  <fix>3d</fix>
</trkpt>
<trkpt lat="-27.274439" lon="151.290064">
  <ele>343.1</ele>
  <time>2026-09-01T19:49:41Z</time>
  <course>270.0</course>
  <speed>0.0</speed>
  <fix>3d</fix>
</trkpt>
<trkpt lat="-27.2744392" lon="151.2900641">
  <ele>343.04</ele>
  <time>2026-09-01T19:49:41Z</time>
  <course>11.01</course>
  <speed>0.022360679774997897</speed>
  <fix>3d</fix>
</trkpt>
<trkpt lat="-27.274439" lon="151.290064">
  <ele>343.1</ele>
  <time>2026-09-01T19:49:41Z</time>
  <course>270.0</course>
  <speed>0.0</speed>
  <fix>3d</fix>
</trkpt>
<trkpt lat="-27.2744392" lon="151.2900641">
  <ele>343.04</ele>
  <time>2026-09-01T19:49:41Z</time>
  <course>11.01</course>
  <speed>0.022360679774997897</speed>
  <fix>3d</fix>
</trkpt>
<trkpt lat="-27.274439" lon="151.290064">
  <ele>343.1</ele>
  <time>2026-09-01T19:49:41Z</time>
  <course>270.0</course>
  <speed>0.0</speed>
  <fix>3d</fix>
</trkpt>
<trkpt lat="-27.2744392" lon="151.2900641">
  <ele>343.04</ele>
  <time>2026-09-01T19:49:41Z</time>
  <course>11.02</course>
  <speed>0.022360679774997897</speed>
  <fix>3d</fix>
</trkpt>
<trkpt lat="-27.274439" lon="151.290064">
  <ele>343.1</ele>
  <time>2026-09-01T19:49:41Z</time>
  <course>270.0</course>
  <speed>0.0</speed>
  <fix>3d</fix>
</trkpt>
<trkpt lat="-27.2744392" lon="151.2900641">
  <ele>343.04</ele>
  <time>2026-09-01T19:49:41Z</time>
  <course>11.02</course>
  <speed>0.022360679774997897</speed>
  <fix>3d</fix>
</trkpt>
<trkpt lat="-27.274439" lon="151.290064">
  <ele>343.1</ele>
  <time>2026-09-01T19:49:41Z</time>
  <course>270.0</course>
  <speed>0.0</speed>
  <fix>3d</fix>
</trkpt>
<trkpt lat="-27.2744392" lon="151.2900641">
  <ele>343.04</ele>
  <time>2026-09-01T19:49:41Z</time>
  <course>11.02</course>
  <speed>0.022360679774997897</speed>
  <fix>3d</fix>
</trkpt>
<trkpt lat="-27.274439" lon="151.290064">
  <ele>343.1</ele>
  <time>2026-09-01T19:49:41Z</time>
  <course>270.0</course>
  <speed>0.0</speed>
  <fix>3d</fix>
</trkpt>
<trkpt lat="-27.2744392" lon="151.2900641">
  <ele>343.04</ele>
  <time>2026-09-01T19:49:41Z</time>
  <course>11.02</course>
  <speed>0.022360679774997897</speed>
  <fix>3d</fix>
</trkpt>
<trkpt lat="-27.274439" lon="151.290064">
  <ele>343.1</ele>
  <time>2026-09-01T19:49:41Z</time>
  <course>270.0</course>
  <speed>0.0</speed>
  <fix>3d</fix>
</trkpt>
<trkpt lat="-27.2744392" lon="151.2900641">
  <ele>343.04</ele>
  <time>2026-09-01T19:49:41Z</time>
  <course>11.02</course>
  <speed>0.022360679774997897</speed>
  <fix>3d</fix>
</trkpt>
<trkpt lat="-27.274439" lon="151.290064">
  <ele>343.1</ele>
  <time>2026-09-01T19:49:41Z</time>
  <course>270.0</course>
  <speed>0.0</speed>
  <fix>3d</fix>
</trkpt>
<trkpt lat="-27.2744392" lon="151.2900641">
  <ele>343.04</ele>
  <time>2026-09-01T19:49:41Z</time>
  <course>11.02</course>
  <speed>0.022360679774997897</speed>
  <fix>3d</fix>
</trkpt>
<trkpt lat="-27.274439" lon="151.290064">
  <ele>343.1</ele>
  <time>2026-09-01T19:49:41Z</time>
  <course>270.0</course>
  <speed>0.0</speed>
  <fix>3d</fix>
</trkpt>
<trkpt lat="-27.2744392" lon="151.2900641">
  <ele>343.04</ele>
  <time>2026-09-01T19:49:41Z</time>
  <course>11.02</course>
  <speed>0.022360679774997897</speed>
  <fix>3d</fix>
</trkpt>
<trkpt lat="-27.274439" lon="151.290064">
  <ele>343.1</ele>
  <time>2026-09-01T19:49:41Z</time>
  <course>270.0</course>
  <speed>0.0</speed>
  <fix>3d</fix>
</trkpt>
<trkpt lat="-27.2744392" lon="151.2900641">
  <ele>343.05</ele>
  <time>2026-09-01T19:49:41Z</time>
  <course>11.02</course>
  <speed>0.022360679774997897</speed>
  <fix>3d</fix>
</trkpt>
<trkpt lat="-27.274439" lon="151.290064">
  <ele>343.1</ele>
  <time>2026-09-01T19:49:41Z</time>
  <course>270.0</course>
  <speed>0.0</speed>
  <fix>3d</fix>
</trkpt>
<trkpt lat="-27.2744392" lon="151.2900641">
  <ele>343.05</ele>
  <time>2026-09-01T19:49:41Z</time>
  <course>11.02</course>
  <speed>0.022360679774997897</speed>
  <fix>3d</fix>
</trkpt>
<trkpt lat="-27.274439" lon="151.290064">
  <ele>343.1</ele>
  <time>2026-09-01T19:49:41Z</time>
  <course>270.0</course>
  <speed>0.0</speed>
  <fix>3d</fix>
</trkpt>
<trkpt lat="-27.2744392" lon="151.2900641">
  <ele>343.05</ele>
  <time>2026-09-01T19:49:41Z</time>
  <course>11.02</course>
  <speed>0.022360679774997897</speed>
  <fix>3d</fix>
</trkpt>
<trkpt lat="-27.274439" lon="151.290064">
  <ele>343.1</ele>
  <time>2026-09-01T19:49:41Z</time>
  <course>270.0</course>
  <speed>0.0</speed>
  <fix>3d</fix>
</trkpt>
<trkpt lat="-27.2744392" lon="151.2900641">
  <ele>343.05</ele>
  <time>2026-09-01T19:49:41Z</time>
  <course>11.02</course>
  <speed>0.022360679774997897</speed>
  <fix>3d</fix>
</trkpt>
<trkpt lat="-27.274439" lon="151.290064">
  <ele>343.1</ele>
  <time>2026-09-01T19:49:41Z</time>
  <course>270.0</course>
  <speed>0.0</speed>
  <fix>3d</fix>
</trkpt>
<trkpt lat="-27.2744392" lon="151.2900641">
  <ele>343.1</ele>
  <time>2026-09-01T19:49:41Z</time>
  <course>11.03</course>
  <speed>0.022360679774997897</speed>
  <fix>3d</fix>
</trkpt>
<trkpt lat="-27.274439" lon="151.290064">
  <ele>343.1</ele>
  <time>2026-09-01T19:49:41Z</time>
  <course>270.0</course>
  <speed>0.0</speed>
  <fix>3d</fix>
</trkpt>
<trkpt lat="-27.2744392" lon="151.2900641">
  <ele>343.1</ele>
  <time>2026-09-01T19:49:41Z</time>
  <course>11.03</course>
  <speed>0.022360679774997897</speed>
  <fix>3d</fix>
</trkpt>
<trkpt lat="-27.274439" lon="151.290064">
  <ele>343.1</ele>
  <time>2026-09-01T19:49:41Z</time>
  <course>270.0</course>
  <speed>0.0</speed>
  <fix>3d</fix>
</trkpt>
<trkpt lat="-27.2744392" lon="151.2900641">
  <ele>343.09</ele>
  <time>2026-09-01T19:49:41Z</time>
  <course>11.03</course>
  <speed>0.022360679774997897</speed>
  <fix>3d</fix>
</trkpt>
<trkpt lat="-27.274439" lon="151.290064">
  <ele>343.1</ele>
  <time>2026-09-01T19:49:41Z</time>
  <course>270.0</course>
  <speed>0.0</speed>
  <fix>3d</fix>
</trkpt>
<trkpt lat="-27.2744392" lon="151.2900641">
  <ele>343.09</ele>
  <time>2026-09-01T19:49:41Z</time>
  <course>11.03</course>
  <speed>0.022360679774997897</speed>
  <fix>3d</fix>
</trkpt>
<trkpt lat="-27.274439" lon="151.290064">
  <ele>343.1</ele>
  <time>2026-09-01T19:49:41Z</time>
  <course>270.0</course>
  <speed>0.0</speed>
  <fix>3d</fix>
</trkpt>
<trkpt lat="-27.2744392" lon="151.2900641">
  <ele>343.09</ele>
  <time>2026-09-01T19:49:41Z</time>
  <course>11.03</course>
  <speed>0.022360679774997897</speed>
  <fix>3d</fix>
</trkpt>
<trkpt lat="-27.274439" lon="151.290064">
  <ele>343.1</ele>
  <time>2026-09-01T19:49:41Z</time>
  <course>270.0</course>
  <speed>0.0</speed>
  <fix>3d</fix>
</trkpt>
<trkpt lat="-27.2744392" lon="151.2900641">
  <ele>343.09</ele>
  <time>2026-09-01T19:49:41Z</time>
  <course>11.03</course>
  <speed>0.022360679774997897</speed>
  <fix>3d</fix>
</trkpt>
<trkpt lat="-27.274439" lon="151.290064">
  <ele>343.1</ele>
  <time>2026-09-01T19:49:41Z</time>
  <course>270.0</course>
  <speed>0.0</speed>
  <fix>3d</fix>
</trkpt>
<trkpt lat="-27.2744392" lon="151.2900641">
  <ele>343.09</ele>
  <time>2026-09-01T19:49:41Z</time>
  <course>11.03</course>
  <speed>0.022360679774997897</speed>
  <fix>3d</fix>
</trkpt>
<trkpt lat="-27.274439" lon="151.290064">
  <ele>343.1</ele>
  <time>2026-09-01T19:49:41Z</time>
  <course>270.0</course>
  <speed>0.0</speed>
  <fix>3d</fix>
</trkpt>
<trkpt lat="-27.2744392" lon="151.2900641">
  <ele>343.09</ele>
  <time>2026-09-01T19:49:41Z</time>
  <course>11.03</course>
  <speed>0.022360679774997897</speed>
  <fix>3d</fix>
</trkpt>
<trkpt lat="-27.274439" lon="151.290064">
  <ele>343.1</ele>
  <time>2026-09-01T19:49:41Z</time>
  <course>270.0</course>
  <speed>0.0</speed>
  <fix>3d</fix>
</trkpt>
<trkpt lat="-27.2744392" lon="151.2900641">
  <ele>343.09</ele>
  <time>2026-09-01T19:49:41Z</time>
  <course>11.03</course>
  <speed>0.022360679774997897</speed>
  <fix>3d</fix>
</trkpt>
<trkpt lat="-27.274439" lon="151.290064">
  <ele>343.1</ele>
  <time>2026-09-01T19:49:41Z</time>
  <course>270.0</course>
  <speed>0.0</speed>
  <fix>3d</fix>
</trkpt>
<trkpt lat="-27.2744392" lon="151.2900641">
  <ele>343.08</ele>
  <time>2026-09-01T19:49:41Z</time>
  <course>11.03</course>
  <speed>0.022360679774997897</speed>
  <fix>3d</fix>
</trkpt>
<trkpt lat="-27.274439" lon="151.290064">
  <ele>343.1</ele>
  <time>2026-09-01T19:49:41Z</time>
  <course>270.0</course>
  <speed>0.0</speed>
  <fix>3d</fix>
</trkpt>
<trkpt lat="-27.2744392" lon="151.2900641">
  <ele>343.08</ele>
  <time>2026-09-01T19:49:41Z</time>
  <course>11.03</course>
  <speed>0.022360679774997897</speed>
  <fix>3d</fix>
</trkpt>
<trkpt lat="-27.274439" lon="151.290064">
  <ele>343.1</ele>
  <time>2026-09-01T19:49:41Z</time>
  <course>270.0</course>
  <speed>0.0</speed>
  <fix>3d</fix>
</trkpt>
<trkpt lat="-27.2744392" lon="151.2900641">
  <ele>343.07</ele>
  <time>2026-09-01T19:49:41Z</time>
  <course>11.04</course>
  <speed>0.022360679774997897</speed>
  <fix>3d</fix>
</trkpt>
<trkpt lat="-27.274439" lon="151.290064">
  <ele>343.1</ele>
  <time>2026-09-01T19:49:41Z</time>
  <course>270.0</course>
  <speed>0.0</speed>
  <fix>3d</fix>
</trkpt>
<trkpt lat="-27.2744392" lon="151.2900641">
  <ele>343.07</ele>
  <time>2026-09-01T19:49:41Z</time>
  <course>11.04</course>
  <speed>0.022360679774997897</speed>
  <fix>3d</fix>
</trkpt>
<trkpt lat="-27.274439" lon="151.290064">
  <ele>343.1</ele>
  <time>2026-09-01T19:49:41Z</time>
  <course>270.0</course>
  <speed>0.0</speed>
  <fix>3d</fix>
</trkpt>
<trkpt lat="-27.2744392" lon="151.2900641">
  <ele>343.06</ele>
  <time>2026-09-01T19:49:41Z</time>
  <course>11.04</course>
  <speed>0.022360679774997897</speed>
  <fix>3d</fix>
</trkpt>
<trkpt lat="-27.274439" lon="151.290064">
  <ele>343.1</ele>
  <time>2026-09-01T19:49:41Z</time>
  <course>270.0</course>
  <speed>0.0</speed>
  <fix>3d</fix>
</trkpt>
<trkpt lat="-27.2744392" lon="151.2900641">
  <ele>343.06</ele>
  <time>2026-09-01T19:49:41Z</time>
  <course>11.04</course>
  <speed>0.022360679774997897</speed>
  <fix>3d</fix>
</trkpt>
<trkpt lat="-27.274439" lon="151.290064">
  <ele>343.1</ele>
  <time>2026-09-01T19:49:41Z</time>
  <course>270.0</course>
  <speed>0.0</speed>
  <fix>3d</fix>
</trkpt>
<trkpt lat="-27.2744392" lon="151.2900641">
  <ele>343.05</ele>
  <time>2026-09-01T19:49:41Z</time>
  <course>11.04</course>
  <speed>0.022360679774997897</speed>
  <fix>3d</fix>
</trkpt>
<trkpt lat="-27.274439" lon="151.290064">
  <ele>343.1</ele>
  <time>2026-09-01T19:49:41Z</time>
  <course>270.0</course>
  <speed>0.0</speed>
  <fix>3d</fix>
</trkpt>
<trkpt lat="-27.2744392" lon="151.2900641">
  <ele>343.05</ele>
  <time>2026-09-01T19:49:41Z</time>
  <course>11.04</course>
  <speed>0.022360679774997897</speed>
  <fix>3d</fix>
</trkpt>
<trkpt lat="-27.274439" lon="151.290064">
  <ele>343.1</ele>
  <time>2026-09-01T19:49:41Z</time>
  <course>270.0</course>
  <speed>0.0</speed>
  <fix>3d</fix>
</trkpt>
<trkpt lat="-27.2744392" lon="151.2900641">
  <ele>343.05</ele>
  <time>2026-09-01T19:49:41Z</time>
  <course>11.04</course>
  <speed>0.022360679774997897</speed>
  <fix>3d</fix>
</trkpt>
<trkpt lat="-27.274439" lon="151.290064">
  <ele>343.1</ele>
  <time>2026-09-01T19:49:41Z</time>
  <course>270.0</course>
  <speed>0.0</speed>
  <fix>3d</fix>
</trkpt>
<trkpt lat="-27.2744392" lon="151.2900641">
  <ele>343.05</ele>
  <time>2026-09-01T19:49:41Z</time>
  <course>11.04</course>
  <speed>0.022360679774997897</speed>
  <fix>3d</fix>
</trkpt>
<trkpt lat="-27.274439" lon="151.290064">
  <ele>343.1</ele>
  <time>2026-09-01T19:49:41Z</time>
  <course>270.0</course>
  <speed>0.0</speed>
  <fix>3d</fix>
</trkpt>
<trkpt lat="-27.2744392" lon="151.2900641">
  <ele>343.05</ele>
  <time>2026-09-01T19:49:41Z</time>
  <course>11.04</course>
  <speed>0.022360679774997897</speed>
  <fix>3d</fix>
</trkpt>
<trkpt lat="-27.274439" lon="151.290064">
  <ele>343.1</ele>
  <time>2026-09-01T19:49:41Z</time>
  <course>270.0</course>
  <speed>0.0</speed>
  <fix>3d</fix>
</trkpt>
<trkpt lat="-27.2744392" lon="151.2900641">
  <ele>343.05</ele>
  <time>2026-09-01T19:49:41Z</time>
  <course>11.04</course>
  <speed>0.022360679774997897</speed>
  <fix>3d</fix>
</trkpt>
<trkpt lat="-27.274439" lon="151.290064">
  <ele>343.1</ele>
  <time>2026-09-01T19:49:41Z</time>
  <course>270.0</course>
  <speed>0.0</speed>
  <fix>3d</fix>
</trkpt>
<trkpt lat="-27.2744392" lon="151.2900641">
  <ele>343.05</ele>
  <time>2026-09-01T19:49:41Z</time>
  <course>11.04</course>
  <speed>0.022360679774997897</speed>
  <fix>3d</fix>
</trkpt>
<trkpt lat="-27.274439" lon="151.290064">
  <ele>343.1</ele>
  <time>2026-09-01T19:49:41Z</time>
  <course>270.0</course>
  <speed>0.0</speed>
  <fix>3d</fix>
</trkpt>
<trkpt lat="-27.2744392" lon="151.2900641">
  <ele>343.04</ele>
  <time>2026-09-01T19:49:41Z</time>
  <course>11.05</course>
  <speed>0.022360679774997897</speed>
  <fix>3d</fix>
</trkpt>
<trkpt lat="-27.274439" lon="151.290064">
  <ele>343.1</ele>
  <time>2026-09-01T19:49:41Z</time>
  <course>270.0</course>
  <speed>0.0</speed>
  <fix>3d</fix>
</trkpt>
<trkpt lat="-27.2744392" lon="151.2900641">
  <ele>343.04</ele>
  <time>2026-09-01T19:49:41Z</time>
  <course>11.05</course>
  <speed>0.022360679774997897</speed>
  <fix>3d</fix>
</trkpt>
<trkpt lat="-27.274439" lon="151.290064">
  <ele>343.1</ele>
  <time>2026-09-01T19:49:41Z</time>
  <course>270.0</course>
  <speed>0.0</speed>
  <fix>3d</fix>
</trkpt>
<trkpt lat="-27.2744392" lon="151.2900641">
  <ele>343.04</ele>
  <time>2026-09-01T19:49:41Z</time>
  <course>11.05</course>
  <speed>0.022360679774997897</speed>
  <fix>3d</fix>
</trkpt>
<trkpt lat="-27.274439" lon="151.290064">
  <ele>343.1</ele>
  <time>2026-09-01T19:49:41Z</time>
  <course>270.0</course>
  <speed>0.0</speed>
  <fix>3d</fix>
</trkpt>
<trkpt lat="-27.2744392" lon="151.2900641">
  <ele>343.04</ele>
  <time>2026-09-01T19:49:41Z</time>
  <course>11.05</course>
  <speed>0.022360679774997897</speed>
  <fix>3d</fix>
</trkpt>
<trkpt lat="-27.274439" lon="151.290064">
  <ele>343.1</ele>
  <time>2026-09-01T19:49:41Z</time>
  <course>270.0</course>
  <speed>0.0</speed>
  <fix>3d</fix>
</trkpt>
<trkpt lat="-27.2744392" lon="151.2900641">
  <ele>343.04</ele>
  <time>2026-09-01T19:49:41Z</time>
  <course>11.05</course>
  <speed>0.022360679774997897</speed>
  <fix>3d</fix>
</trkpt>
<trkpt lat="-27.274439" lon="151.290064">
  <ele>343.1</ele>
  <time>2026-09-01T19:49:41Z</time>
  <course>270.0</course>
  <speed>0.0</speed>
  <fix>3d</fix>
</trkpt>
<trkpt lat="-27.2744392" lon="151.2900641">
  <ele>343.04</ele>
  <time>2026-09-01T19:49:41Z</time>
  <course>11.05</course>
  <speed>0.022360679774997897</speed>
  <fix>3d</fix>
</trkpt>
<trkpt lat="-27.274439" lon="151.290064">
  <ele>343.1</ele>
  <time>2026-09-01T19:49:41Z</time>
  <course>270.0</course>
  <speed>0.0</speed>
  <fix>3d</fix>
</trkpt>
<trkpt lat="-27.2744392" lon="151.2900641">
  <ele>343.03</ele>
  <time>2026-09-01T19:49:41Z</time>
  <course>11.05</course>
  <speed>0.022360679774997897</speed>
  <fix>3d</fix>
</trkpt>
<trkpt lat="-27.274439" lon="151.290064">
  <ele>343.1</ele>
  <time>2026-09-01T19:49:41Z</time>
  <course>270.0</course>
  <speed>0.0</speed>
  <fix>3d</fix>
</trkpt>
<trkpt lat="-27.2744392" lon="151.2900641">
  <ele>343.03</ele>
  <time>2026-09-01T19:49:41Z</time>
  <course>11.05</course>
  <speed>0.022360679774997897</speed>
  <fix>3d</fix>
</trkpt>
<trkpt lat="-27.274439" lon="151.290064">
  <ele>343.1</ele>
  <time>2026-09-01T19:49:41Z</time>
  <course>270.0</course>
  <speed>0.0</speed>
  <fix>3d</fix>
</trkpt>
<trkpt lat="-27.2744392" lon="151.2900641">
  <ele>343.03</ele>
  <time>2026-09-01T19:49:41Z</time>
  <course>11.05</course>
  <speed>0.022360679774997897</speed>
  <fix>3d</fix>
</trkpt>
<trkpt lat="-27.274439" lon="151.290064">
  <ele>343.1</ele>
  <time>2026-09-01T19:49:41Z</time>
  <course>270.0</course>
  <speed>0.0</speed>
  <fix>3d</fix>
</trkpt>
<trkpt lat="-27.2744392" lon="151.2900641">
  <ele>343.03</ele>
  <time>2026-09-01T19:49:41Z</time>
  <course>11.05</course>
  <speed>0.022360679774997897</speed>
  <fix>3d</fix>
</trkpt>
<trkpt lat="-27.274439" lon="151.290064">
  <ele>343.1</ele>
  <time>2026-09-01T19:49:41Z</time>
  <course>270.0</course>
  <speed>0.0</speed>
  <fix>3d</fix>
</trkpt>
<trkpt lat="-27.2744392" lon="151.2900641">
  <ele>343.03</ele>
  <time>2026-09-01T19:49:41Z</time>
  <course>11.05</course>
  <speed>0.022360679774997897</speed>
  <fix>3d</fix>
</trkpt>
<trkpt lat="-27.274439" lon="151.290064">
  <ele>343.1</ele>
  <time>2026-09-01T19:49:41Z</time>
  <course>270.0</course>
  <speed>0.0</speed>
  <fix>3d</fix>
</trkpt>
<trkpt lat="-27.2744392" lon="151.2900641">
  <ele>343.03</ele>
  <time>2026-09-01T19:49:41Z</time>
  <course>11.06</course>
  <speed>0.022360679774997897</speed>
  <fix>3d</fix>
</trkpt>
<trkpt lat="-27.274439" lon="151.290064">
  <ele>343.1</ele>
  <time>2026-09-01T19:49:41Z</time>
  <course>270.0</course>
  <speed>0.0</speed>
  <fix>3d</fix>
</trkpt>
<trkpt lat="-27.2744392" lon="151.2900641">
  <ele>343.03</ele>
  <time>2026-09-01T19:49:41Z</time>
  <course>11.06</course>
  <speed>0.022360679774997897</speed>
  <fix>3d</fix>
</trkpt>
<trkpt lat="-27.274439" lon="151.290064">
  <ele>343.1</ele>
  <time>2026-09-01T19:49:41Z</time>
  <course>270.0</course>
  <speed>0.0</speed>
  <fix>3d</fix>
</trkpt>
<trkpt lat="-27.2744392" lon="151.2900641">
  <ele>343.03</ele>
  <time>2026-09-01T19:49:41Z</time>
  <course>11.06</course>
  <speed>0.022360679774997897</speed>
  <fix>3d</fix>
</trkpt>
<trkpt lat="-27.274439" lon="151.290064">
  <ele>343.1</ele>
  <time>2026-09-01T19:49:41Z</time>
  <course>270.0</course>
  <speed>0.0</speed>
  <fix>3d</fix>
</trkpt>
<trkpt lat="-27.2744392" lon="151.2900641">
  <ele>343.03</ele>
  <time>2026-09-01T19:49:41Z</time>
  <course>11.06</course>
  <speed>0.022360679774997897</speed>
  <fix>3d</fix>
</trkpt>
<trkpt lat="-27.274439" lon="151.290064">
  <ele>343.1</ele>
  <time>2026-09-01T19:49:41Z</time>
  <course>270.0</course>
  <speed>0.0</speed>
  <fix>3d</fix>
</trkpt>
<trkpt lat="-27.2744392" lon="151.2900641">
  <ele>343.03</ele>
  <time>2026-09-01T19:49:41Z</time>
  <course>11.06</course>
  <speed>0.022360679774997897</speed>
  <fix>3d</fix>
</trkpt>
<trkpt lat="-27.274439" lon="151.290064">
  <ele>343.1</ele>
  <time>2026-09-01T19:49:41Z</time>
  <course>270.0</course>
  <speed>0.0</speed>
  <fix>3d</fix>
</trkpt>
<trkpt lat="-27.2744392" lon="151.2900641">
  <ele>343.03</ele>
  <time>2026-09-01T19:49:41Z</time>
  <course>11.06</course>
  <speed>0.022360679774997897</speed>
  <fix>3d</fix>
</trkpt>
<trkpt lat="-27.274439" lon="151.290064">
  <ele>343.1</ele>
  <time>2026-09-01T19:49:41Z</time>
  <course>270.0</course>
  <speed>0.0</speed>
  <fix>3d</fix>
</trkpt>
<trkpt lat="-27.2744392" lon="151.2900641">
  <ele>343.04</ele>
  <time>2026-09-01T19:49:41Z</time>
  <course>11.06</course>
  <speed>0.022360679774997897</speed>
  <fix>3d</fix>
</trkpt>
<trkpt lat="-27.274439" lon="151.290064">
  <ele>343.1</ele>
  <time>2026-09-01T19:49:41Z</time>
  <course>270.0</course>
  <speed>0.0</speed>
  <fix>3d</fix>
</trkpt>
<trkpt lat="-27.2744392" lon="151.2900641">
  <ele>343.03</ele>
  <time>2026-09-01T19:49:41Z</time>
  <course>11.06</course>
  <speed>0.022360679774997897</speed>
  <fix>3d</fix>
</trkpt>
<trkpt lat="-27.274439" lon="151.290064">
  <ele>343.1</ele>
  <time>2026-09-01T19:49:41Z</time>
  <course>270.0</course>
  <speed>0.0</speed>
  <fix>3d</fix>
</trkpt>
<trkpt lat="-27.2744392" lon="151.2900641">
  <ele>343.03</ele>
  <time>2026-09-01T19:49:41Z</time>
  <course>11.06</course>
  <speed>0.022360679774997897</speed>
  <fix>3d</fix>
</trkpt>
<trkpt lat="-27.274439" lon="151.290064">
  <ele>343.1</ele>
  <time>2026-09-01T19:49:41Z</time>
  <course>270.0</course>
  <speed>0.0</speed>
  <fix>3d</fix>
</trkpt>
<trkpt lat="-27.2744392" lon="151.2900641">
  <ele>343.03</ele>
  <time>2026-09-01T19:49:41Z</time>
  <course>11.06</course>
  <speed>0.022360679774997897</speed>
  <fix>3d</fix>
</trkpt>
<trkpt lat="-27.274439" lon="151.290064">
  <ele>343.1</ele>
  <time>2026-09-01T19:49:41Z</time>
  <course>270.0</course>
  <speed>0.0</speed>
  <fix>3d</fix>
</trkpt>
<trkpt lat="-27.2744392" lon="151.2900641">
  <ele>343.03</ele>
  <time>2026-09-01T19:49:41Z</time>
  <course>11.07</course>
  <speed>0.022360679774997897</speed>
  <fix>3d</fix>
</trkpt>
<trkpt lat="-27.274439" lon="151.290064">
  <ele>343.1</ele>
  <time>2026-09-01T19:49:41Z</time>
  <course>270.0</course>
  <speed>0.0</speed>
  <fix>3d</fix>
</trkpt>
<trkpt lat="-27.2744392" lon="151.2900641">
  <ele>343.03</ele>
  <time>2026-09-01T19:49:41Z</time>
  <course>11.07</course>
  <speed>0.022360679774997897</speed>
  <fix>3d</fix>
</trkpt>
<trkpt lat="-27.274439" lon="151.290064">
  <ele>343.1</ele>
  <time>2026-09-01T19:49:41Z</time>
  <course>270.0</course>
  <speed>0.0</speed>
  <fix>3d</fix>
</trkpt>
<trkpt lat="-27.2744392" lon="151.2900641">
  <ele>343.03</ele>
  <time>2026-09-01T19:49:41Z</time>
  <course>11.07</course>
  <speed>0.022360679774997897</speed>
  <fix>3d</fix>
</trkpt>
<trkpt lat="-27.274439" lon="151.290064">
  <ele>343.1</ele>
  <time>2026-09-01T19:49:41Z</time>
  <course>270.0</course>
  <speed>0.0</speed>
  <fix>3d</fix>
</trkpt>
<trkpt lat="-27.2744392" lon="151.2900641">
  <ele>343.02</ele>
  <time>2026-09-01T19:49:41Z</time>
  <course>11.07</course>
  <speed>0.022360679774997897</speed>
  <fix>3d</fix>
</trkpt>
<trkpt lat="-27.274439" lon="151.290064">
  <ele>343.1</ele>
  <time>2026-09-01T19:49:41Z</time>
  <course>270.0</course>
  <speed>0.0</speed>
  <fix>3d</fix>
</trkpt>
<trkpt lat="-27.2744392" lon="151.2900641">
  <ele>343.02</ele>
  <time>2026-09-01T19:49:41Z</time>
  <course>11.07</course>
  <speed>0.022360679774997897</speed>
  <fix>3d</fix>
</trkpt>
<trkpt lat="-27.274439" lon="151.290064">
  <ele>343.1</ele>
  <time>2026-09-01T19:49:41Z</time>
  <course>270.0</course>
  <speed>0.0</speed>
  <fix>3d</fix>
</trkpt>
<trkpt lat="-27.2744392" lon="151.2900641">
  <ele>343.02</ele>
  <time>2026-09-01T19:49:41Z</time>
  <course>11.07</course>
  <speed>0.022360679774997897</speed>
  <fix>3d</fix>
</trkpt>
<trkpt lat="-27.274439" lon="151.290064">
  <ele>343.1</ele>
  <time>2026-09-01T19:49:41Z</time>
  <course>270.0</course>
  <speed>0.0</speed>
  <fix>3d</fix>
</trkpt>
<trkpt lat="-27.2744392" lon="151.2900641">
  <ele>343.01</ele>
  <time>2026-09-01T19:49:41Z</time>
  <course>11.07</course>
  <speed>0.022360679774997897</speed>
  <fix>3d</fix>
</trkpt>
<trkpt lat="-27.274439" lon="151.290064">
  <ele>343.1</ele>
  <time>2026-09-01T19:49:41Z</time>
  <course>270.0</course>
  <speed>0.0</speed>
  <fix>3d</fix>
</trkpt>
<trkpt lat="-27.2744392" lon="151.2900641">
  <ele>343.01</ele>
  <time>2026-09-01T19:49:41Z</time>
  <course>11.07</course>
  <speed>0.022360679774997897</speed>
  <fix>3d</fix>
</trkpt>
<trkpt lat="-27.274439" lon="151.290064">
  <ele>343.1</ele>
  <time>2026-09-01T19:49:41Z</time>
  <course>270.0</course>
  <speed>0.0</speed>
  <fix>3d</fix>
</trkpt>
<trkpt lat="-27.2744392" lon="151.2900641">
  <ele>343.01</ele>
  <time>2026-09-01T19:49:41Z</time>
  <course>11.07</course>
  <speed>0.022360679774997897</speed>
  <fix>3d</fix>
</trkpt>
<trkpt lat="-27.274439" lon="151.290064">
  <ele>343.1</ele>
  <time>2026-09-01T19:49:41Z</time>
  <course>270.0</course>
  <speed>0.0</speed>
  <fix>3d</fix>
</trkpt>
<trkpt lat="-27.2744392" lon="151.2900641">
  <ele>343.01</ele>
  <time>2026-09-01T19:49:41Z</time>
  <course>11.07</course>
  <speed>0.022360679774997897</speed>
  <fix>3d</fix>
</trkpt>
<trkpt lat="-27.274439" lon="151.290064">
  <ele>343.1</ele>
  <time>2026-09-01T19:49:41Z</time>
  <course>270.0</course>
  <speed>0.0</speed>
  <fix>3d</fix>
</trkpt>
<trkpt lat="-27.2744392" lon="151.2900641">
  <ele>343.0</ele>
  <time>2026-09-01T19:49:41Z</time>
  <course>11.08</course>
  <speed>0.022360679774997897</speed>
  <fix>3d</fix>
</trkpt>
<trkpt lat="-27.274439" lon="151.290064">
  <ele>343.1</ele>
  <time>2026-09-01T19:49:41Z</time>
  <course>270.0</course>
  <speed>0.0</speed>
  <fix>3d</fix>
</trkpt>
<trkpt lat="-27.2744392" lon="151.2900641">
  <ele>343.0</ele>
  <time>2026-09-01T19:49:41Z</time>
  <course>11.08</course>
  <speed>0.022360679774997897</speed>
  <fix>3d</fix>
</trkpt>
<trkpt lat="-27.274439" lon="151.290064">
  <ele>343.1</ele>
  <time>2026-09-01T19:49:41Z</time>
  <course>270.0</course>
  <speed>0.0</speed>
  <fix>3d</fix>
</trkpt>
<trkpt lat="-27.2744392" lon="151.2900641">
  <ele>343.0</ele>
  <time>2026-09-01T19:49:41Z</time>
  <course>11.08</course>
  <speed>0.022360679774997897</speed>
  <fix>3d</fix>
</trkpt>
<trkpt lat="-27.274439" lon="151.290064">
  <ele>343.1</ele>
  <time>2026-09-01T19:49:41Z</time>
  <course>270.0</course>
  <speed>0.0</speed>
  <fix>3d</fix>
</trkpt>
<trkpt lat="-27.2744392" lon="151.2900641">
  <ele>342.99</ele>
  <time>2026-09-01T19:49:41Z</time>
  <course>11.08</course>
  <speed>0.022360679774997897</speed>
  <fix>3d</fix>
</trkpt>
<trkpt lat="-27.274439" lon="151.290064">
  <ele>343.1</ele>
  <time>2026-09-01T19:49:41Z</time>
  <course>270.0</course>
  <speed>0.0</speed>
  <fix>3d</fix>
</trkpt>
<trkpt lat="-27.2744392" lon="151.2900641">
  <ele>342.99</ele>
  <time>2026-09-01T19:49:41Z</time>
  <course>11.08</course>
  <speed>0.022360679774997897</speed>
  <fix>3d</fix>
</trkpt>
<trkpt lat="-27.274439" lon="151.290064">
  <ele>343.1</ele>
  <time>2026-09-01T19:49:41Z</time>
  <course>270.0</course>
  <speed>0.0</speed>
  <fix>3d</fix>
</trkpt>
<trkpt lat="-27.2744392" lon="151.2900641">
  <ele>342.99</ele>
  <time>2026-09-01T19:49:41Z</time>
  <course>11.08</course>
  <speed>0.022360679774997897</speed>
  <fix>3d</fix>
</trkpt>
<trkpt lat="-27.274439" lon="151.290064">
  <ele>343.1</ele>
  <time>2026-09-01T19:49:41Z</time>
  <course>270.0</course>
  <speed>0.0</speed>
  <fix>3d</fix>
</trkpt>
<trkpt lat="-27.2744392" lon="151.2900641">
  <ele>342.99</ele>
  <time>2026-09-01T19:49:41Z</time>
  <course>11.08</course>
  <speed>0.022360679774997897</speed>
  <fix>3d</fix>
</trkpt>
<trkpt lat="-27.274439" lon="151.290064">
  <ele>343.1</ele>
  <time>2026-09-01T19:49:41Z</time>
  <course>270.0</course>
  <speed>0.0</speed>
  <fix>3d</fix>
</trkpt>
<trkpt lat="-27.2744392" lon="151.2900641">
  <ele>343.09</ele>
  <time>2026-09-01T19:49:41Z</time>
  <course>11.08</course>
  <speed>0.022360679774997897</speed>
  <fix>3d</fix>
</trkpt>
<trkpt lat="-27.274439" lon="151.290064">
  <ele>343.1</ele>
  <time>2026-09-01T19:49:41Z</time>
  <course>270.0</course>
  <speed>0.0</speed>
  <fix>3d</fix>
</trkpt>
<trkpt lat="-27.2744392" lon="151.2900641">
  <ele>343.09</ele>
  <time>2026-09-01T19:49:41Z</time>
  <course>11.08</course>
  <speed>0.022360679774997897</speed>
  <fix>3d</fix>
</trkpt>
<trkpt lat="-27.274439" lon="151.290064">
  <ele>343.1</ele>
  <time>2026-09-01T19:49:41Z</time>
  <course>270.0</course>
  <speed>0.0</speed>
  <fix>3d</fix>
</trkpt>
<trkpt lat="-27.2744392" lon="151.2900641">
  <ele>343.09</ele>
  <time>2026-09-01T19:49:41Z</time>
  <course>11.08</course>
  <speed>0.022360679774997897</speed>
  <fix>3d</fix>
</trkpt>
<trkpt lat="-27.274439" lon="151.290064">
  <ele>343.1</ele>
  <time>2026-09-01T19:49:41Z</time>
  <course>270.0</course>
  <speed>0.0</speed>
  <fix>3d</fix>
</trkpt>
<trkpt lat="-27.2744392" lon="151.2900641">
  <ele>343.09</ele>
  <time>2026-09-01T19:49:41Z</time>
  <course>11.09</course>
  <speed>0.022360679774997897</speed>
  <fix>3d</fix>
</trkpt>
<trkpt lat="-27.274439" lon="151.290064">
  <ele>343.1</ele>
  <time>2026-09-01T19:49:41Z</time>
  <course>270.0</course>
  <speed>0.0</speed>
  <fix>3d</fix>
</trkpt>
<trkpt lat="-27.2744392" lon="151.2900641">
  <ele>343.09</ele>
  <time>2026-09-01T19:49:41Z</time>
  <course>11.09</course>
  <speed>0.022360679774997897</speed>
  <fix>3d</fix>
</trkpt>
<trkpt lat="-27.274439" lon="151.290064">
  <ele>343.1</ele>
  <time>2026-09-01T19:49:41Z</time>
  <course>270.0</course>
  <speed>0.0</speed>
  <fix>3d</fix>
</trkpt>
<trkpt lat="-27.2744392" lon="151.2900641">
  <ele>343.08</ele>
  <time>2026-09-01T19:49:41Z</time>
  <course>11.09</course>
  <speed>0.022360679774997897</speed>
  <fix>3d</fix>
</trkpt>
<trkpt lat="-27.274439" lon="151.290064">
  <ele>343.1</ele>
  <time>2026-09-01T19:49:41Z</time>
  <course>270.0</course>
  <speed>0.0</speed>
  <fix>3d</fix>
</trkpt>
<trkpt lat="-27.2744392" lon="151.2900641">
  <ele>343.08</ele>
  <time>2026-09-01T19:49:41Z</time>
  <course>11.09</course>
  <speed>0.022360679774997897</speed>
  <fix>3d</fix>
</trkpt>
<trkpt lat="-27.274439" lon="151.290064">
  <ele>343.1</ele>
  <time>2026-09-01T19:49:41Z</time>
  <course>270.0</course>
  <speed>0.0</speed>
  <fix>3d</fix>
</trkpt>
<trkpt lat="-27.2744392" lon="151.2900641">
  <ele>343.08</ele>
  <time>2026-09-01T19:49:41Z</time>
  <course>11.09</course>
  <speed>0.022360679774997897</speed>
  <fix>3d</fix>
</trkpt>
<trkpt lat="-27.274439" lon="151.290064">
  <ele>343.1</ele>
  <time>2026-09-01T19:49:41Z</time>
  <course>270.0</course>
  <speed>0.0</speed>
  <fix>3d</fix>
</trkpt>
<trkpt lat="-27.2744392" lon="151.2900641">
  <ele>343.08</ele>
  <time>2026-09-01T19:49:41Z</time>
  <course>11.09</course>
  <speed>0.022360679774997897</speed>
  <fix>3d</fix>
</trkpt>
<trkpt lat="-27.274439" lon="151.290064">
  <ele>343.1</ele>
  <time>2026-09-01T19:49:41Z</time>
  <course>270.0</course>
  <speed>0.0</speed>
  <fix>3d</fix>
</trkpt>
<trkpt lat="-27.2744392" lon="151.2900641">
  <ele>343.08</ele>
  <time>2026-09-01T19:49:41Z</time>
  <course>11.09</course>
  <speed>0.022360679774997897</speed>
  <fix>3d</fix>
</trkpt>
<trkpt lat="-27.274439" lon="151.290064">
  <ele>343.1</ele>
  <time>2026-09-01T19:49:41Z</time>
  <course>270.0</course>
  <speed>0.0</speed>
  <fix>3d</fix>
</trkpt>
<trkpt lat="-27.2744392" lon="151.2900641">
  <ele>343.08</ele>
  <time>2026-09-01T19:49:41Z</time>
  <course>11.09</course>
  <speed>0.022360679774997897</speed>
  <fix>3d</fix>
</trkpt>
<trkpt lat="-27.274439" lon="151.290064">
  <ele>343.1</ele>
  <time>2026-09-01T19:49:41Z</time>
  <course>270.0</course>
  <speed>0.0</speed>
  <fix>3d</fix>
</trkpt>
<trkpt lat="-27.2744392" lon="151.2900641">
  <ele>343.08</ele>
  <time>2026-09-01T19:49:41Z</time>
  <course>11.09</course>
  <speed>0.022360679774997897</speed>
  <fix>3d</fix>
</trkpt>
<trkpt lat="-27.274439" lon="151.290064">
  <ele>343.1</ele>
  <time>2026-09-01T19:49:41Z</time>
  <course>270.0</course>
  <speed>0.0</speed>
  <fix>3d</fix>
</trkpt>
<trkpt lat="-27.2744392" lon="151.2900641">
  <ele>343.08</ele>
  <time>2026-09-01T19:49:41Z</time>
  <course>11.09</course>
  <speed>0.022360679774997897</speed>
  <fix>3d</fix>
</trkpt>
<trkpt lat="-27.274439" lon="151.290064">
  <ele>343.1</ele>
  <time>2026-09-01T19:49:41Z</time>
  <course>270.0</course>
  <speed>0.0</speed>
  <fix>3d</fix>
</trkpt>
<trkpt lat="-27.2744392" lon="151.2900641">
  <ele>343.08</ele>
  <time>2026-09-01T19:49:41Z</time>
  <course>11.1</course>
  <speed>0.022360679774997897</speed>
  <fix>3d</fix>
</trkpt>
<trkpt lat="-27.274439" lon="151.290064">
  <ele>343.1</ele>
  <time>2026-09-01T19:49:41Z</time>
  <course>270.0</course>
  <speed>0.0</speed>
  <fix>3d</fix>
</trkpt>
<trkpt lat="-27.2744392" lon="151.2900641">
  <ele>343.08</ele>
  <time>2026-09-01T19:49:41Z</time>
  <course>11.1</course>
  <speed>0.022360679774997897</speed>
  <fix>3d</fix>
</trkpt>
<trkpt lat="-27.274439" lon="151.290064">
  <ele>343.1</ele>
  <time>2026-09-01T19:49:41Z</time>
  <course>270.0</course>
  <speed>0.0</speed>
  <fix>3d</fix>
</trkpt>
<trkpt lat="-27.2744392" lon="151.2900641">
  <ele>343.08</ele>
  <time>2026-09-01T19:49:41Z</time>
  <course>11.1</course>
  <speed>0.022360679774997897</speed>
  <fix>3d</fix>
</trkpt>
<trkpt lat="-27.274439" lon="151.290064">
  <ele>343.1</ele>
  <time>2026-09-01T19:49:41Z</time>
  <course>270.0</course>
  <speed>0.0</speed>
  <fix>3d</fix>
</trkpt>
<trkpt lat="-27.2744392" lon="151.2900641">
  <ele>343.08</ele>
  <time>2026-09-01T19:49:41Z</time>
  <course>11.1</course>
  <speed>0.022360679774997897</speed>
  <fix>3d</fix>
</trkpt>
<trkpt lat="-27.274439" lon="151.290064">
  <ele>343.1</ele>
  <time>2026-09-01T19:49:41Z</time>
  <course>270.0</course>
  <speed>0.0</speed>
  <fix>3d</fix>
</trkpt>
<trkpt lat="-27.2744392" lon="151.2900641">
  <ele>343.07</ele>
  <time>2026-09-01T19:49:41Z</time>
  <course>11.1</course>
  <speed>0.022360679774997897</speed>
  <fix>3d</fix>
</trkpt>
<trkpt lat="-27.274439" lon="151.290064">
  <ele>343.1</ele>
  <time>2026-09-01T19:49:41Z</time>
  <course>270.0</course>
  <speed>0.0</speed>
  <fix>3d</fix>
</trkpt>
<trkpt lat="-27.2744392" lon="151.2900641">
  <ele>343.07</ele>
  <time>2026-09-01T19:49:41Z</time>
  <course>11.1</course>
  <speed>0.022360679774997897</speed>
  <fix>3d</fix>
</trkpt>
<trkpt lat="-27.274439" lon="151.290064">
  <ele>343.1</ele>
  <time>2026-09-01T19:49:41Z</time>
  <course>270.0</course>
  <speed>0.0</speed>
  <fix>3d</fix>
</trkpt>
<trkpt lat="-27.2744392" lon="151.2900641">
  <ele>343.07</ele>
  <time>2026-09-01T19:49:41Z</time>
  <course>11.1</course>
  <speed>0.022360679774997897</speed>
  <fix>3d</fix>
</trkpt>
<trkpt lat="-27.274439" lon="151.290064">
  <ele>343.1</ele>
  <time>2026-09-01T19:49:41Z</time>
  <course>270.0</course>
  <speed>0.0</speed>
  <fix>3d</fix>
</trkpt>
<trkpt lat="-27.2744392" lon="151.2900641">
  <ele>343.07</ele>
  <time>2026-09-01T19:49:41Z</time>
  <course>11.1</course>
  <speed>0.022360679774997897</speed>
  <fix>3d</fix>
</trkpt>
<trkpt lat="-27.274439" lon="151.290064">
  <ele>343.1</ele>
  <time>2026-09-01T19:49:41Z</time>
  <course>270.0</course>
  <speed>0.0</speed>
  <fix>3d</fix>
</trkpt>
<trkpt lat="-27.2744392" lon="151.2900641">
  <ele>343.07</ele>
  <time>2026-09-01T19:49:41Z</time>
  <course>11.1</course>
  <speed>0.022360679774997897</speed>
  <fix>3d</fix>
</trkpt>
<trkpt lat="-27.274439" lon="151.290064">
  <ele>343.1</ele>
  <time>2026-09-01T19:49:41Z</time>
  <course>270.0</course>
  <speed>0.0</speed>
  <fix>3d</fix>
</trkpt>
<trkpt lat="-27.2744392" lon="151.2900641">
  <ele>343.07</ele>
  <time>2026-09-01T19:49:41Z</time>
  <course>11.1</course>
  <speed>0.022360679774997897</speed>
  <fix>3d</fix>
</trkpt>
<trkpt lat="-27.274439" lon="151.290064">
  <ele>343.1</ele>
  <time>2026-09-01T19:49:41Z</time>
  <course>270.0</course>
  <speed>0.0</speed>
  <fix>3d</fix>
</trkpt>
<trkpt lat="-27.2744392" lon="151.2900641">
  <ele>343.07</ele>
  <time>2026-09-01T19:49:41Z</time>
  <course>11.11</course>
  <speed>0.022360679774997897</speed>
  <fix>3d</fix>
</trkpt>
<trkpt lat="-27.274439" lon="151.290064">
  <ele>343.1</ele>
  <time>2026-09-01T19:49:41Z</time>
  <course>270.0</course>
  <speed>0.0</speed>
  <fix>3d</fix>
</trkpt>
<trkpt lat="-27.2744392" lon="151.2900641">
  <ele>343.07</ele>
  <time>2026-09-01T19:49:41Z</time>
  <course>11.11</course>
  <speed>0.022360679774997897</speed>
  <fix>3d</fix>
</trkpt>
<trkpt lat="-27.274439" lon="151.290064">
  <ele>343.1</ele>
  <time>2026-09-01T19:49:41Z</time>
  <course>270.0</course>
  <speed>0.0</speed>
  <fix>3d</fix>
</trkpt>
<trkpt lat="-27.2744392" lon="151.2900641">
  <ele>343.08</ele>
  <time>2026-09-01T19:49:41Z</time>
  <course>11.11</course>
  <speed>0.022360679774997897</speed>
  <fix>3d</fix>
</trkpt>
<trkpt lat="-27.274439" lon="151.290064">
  <ele>343.1</ele>
  <time>2026-09-01T19:49:41Z</time>
  <course>270.0</course>
  <speed>0.0</speed>
  <fix>3d</fix>
</trkpt>
<trkpt lat="-27.2744392" lon="151.2900641">
  <ele>343.08</ele>
  <time>2026-09-01T19:49:41Z</time>
  <course>11.11</course>
  <speed>0.022360679774997897</speed>
  <fix>3d</fix>
</trkpt>
<trkpt lat="-27.274439" lon="151.290064">
  <ele>343.1</ele>
  <time>2026-09-01T19:49:41Z</time>
  <course>270.0</course>
  <speed>0.0</speed>
  <fix>3d</fix>
</trkpt>
<trkpt lat="-27.2744392" lon="151.2900641">
  <ele>343.08</ele>
  <time>2026-09-01T19:49:41Z</time>
  <course>11.11</course>
  <speed>0.022360679774997897</speed>
  <fix>3d</fix>
</trkpt>
<trkpt lat="-27.274439" lon="151.290064">
  <ele>343.1</ele>
  <time>2026-09-01T19:49:41Z</time>
  <course>270.0</course>
  <speed>0.0</speed>
  <fix>3d</fix>
</trkpt>
<trkpt lat="-27.2744392" lon="151.2900641">
  <ele>343.08</ele>
  <time>2026-09-01T19:49:41Z</time>
  <course>11.12</course>
  <speed>0.022360679774997897</speed>
  <fix>3d</fix>
</trkpt>
<trkpt lat="-27.274439" lon="151.290064">
  <ele>343.1</ele>
  <time>2026-09-01T19:49:41Z</time>
  <course>270.0</course>
  <speed>0.0</speed>
  <fix>3d</fix>
</trkpt>
<trkpt lat="-27.2744392" lon="151.2900641">
  <ele>343.08</ele>
  <time>2026-09-01T19:49:41Z</time>
  <course>11.12</course>
  <speed>0.022360679774997897</speed>
  <fix>3d</fix>
</trkpt>
<trkpt lat="-27.274439" lon="151.290064">
  <ele>343.1</ele>
  <time>2026-09-01T19:49:41Z</time>
  <course>270.0</course>
  <speed>0.0</speed>
  <fix>3d</fix>
</trkpt>
<trkpt lat="-27.2744392" lon="151.2900641">
  <ele>343.08</ele>
  <time>2026-09-01T19:49:41Z</time>
  <course>11.12</course>
  <speed>0.022360679774997897</speed>
  <fix>3d</fix>
</trkpt>
<trkpt lat="-27.274439" lon="151.290064">
  <ele>343.1</ele>
  <time>2026-09-01T19:49:41Z</time>
  <course>270.0</course>
  <speed>0.0</speed>
  <fix>3d</fix>
</trkpt>
<trkpt lat="-27.2744392" lon="151.2900641">
  <ele>343.08</ele>
  <time>2026-09-01T19:49:41Z</time>
  <course>11.12</course>
  <speed>0.022360679774997897</speed>
  <fix>3d</fix>
</trkpt>
<trkpt lat="-27.274439" lon="151.290064">
  <ele>343.1</ele>
  <time>2026-09-01T19:49:41Z</time>
  <course>270.0</course>
  <speed>0.0</speed>
  <fix>3d</fix>
</trkpt>
<trkpt lat="-27.2744392" lon="151.2900641">
  <ele>343.08</ele>
  <time>2026-09-01T19:49:41Z</time>
  <course>11.12</course>
  <speed>0.022360679774997897</speed>
  <fix>3d</fix>
</trkpt>
<trkpt lat="-27.274439" lon="151.290064">
  <ele>343.1</ele>
  <time>2026-09-01T19:49:41Z</time>
  <course>270.0</course>
  <speed>0.0</speed>
  <fix>3d</fix>
</trkpt>
<trkpt lat="-27.2744392" lon="151.2900641">
  <ele>343.08</ele>
  <time>2026-09-01T19:49:41Z</time>
  <course>11.12</course>
  <speed>0.022360679774997897</speed>
  <fix>3d</fix>
</trkpt>
<trkpt lat="-27.274439" lon="151.290064">
  <ele>343.1</ele>
  <time>2026-09-01T19:49:41Z</time>
  <course>270.0</course>
  <speed>0.0</speed>
  <fix>3d</fix>
</trkpt>
<trkpt lat="-27.2744392" lon="151.2900641">
  <ele>343.08</ele>
  <time>2026-09-01T19:49:41Z</time>
  <course>11.12</course>
  <speed>0.022360679774997897</speed>
  <fix>3d</fix>
</trkpt>
<trkpt lat="-27.274439" lon="151.290064">
  <ele>343.1</ele>
  <time>2026-09-01T19:49:41Z</time>
  <course>270.0</course>
  <speed>0.0</speed>
  <fix>3d</fix>
</trkpt>
<trkpt lat="-27.2744392" lon="151.2900641">
  <ele>343.08</ele>
  <time>2026-09-01T19:49:41Z</time>
  <course>11.12</course>
  <speed>0.022360679774997897</speed>
  <fix>3d</fix>
</trkpt>
<trkpt lat="-27.274439" lon="151.290064">
  <ele>343.1</ele>
  <time>2026-09-01T19:49:41Z</time>
  <course>270.0</course>
  <speed>0.0</speed>
  <fix>3d</fix>
</trkpt>
<trkpt lat="-27.2744392" lon="151.2900641">
  <ele>343.08</ele>
  <time>2026-09-01T19:49:41Z</time>
  <course>11.12</course>
  <speed>0.022360679774997897</speed>
  <fix>3d</fix>
</trkpt>
<trkpt lat="-27.274439" lon="151.290064">
  <ele>343.1</ele>
  <time>2026-09-01T19:49:41Z</time>
  <course>270.0</course>
  <speed>0.0</speed>
  <fix>3d</fix>
</trkpt>
<trkpt lat="-27.2744392" lon="151.2900641">
  <ele>343.08</ele>
  <time>2026-09-01T19:49:41Z</time>
  <course>11.12</course>
  <speed>0.022360679774997897</speed>
  <fix>3d</fix>
</trkpt>
<trkpt lat="-27.274439" lon="151.290064">
  <ele>343.1</ele>
  <time>2026-09-01T19:49:41Z</time>
  <course>270.0</course>
  <speed>0.0</speed>
  <fix>3d</fix>
</trkpt>
<trkpt lat="-27.2744392" lon="151.2900641">
  <ele>343.08</ele>
  <time>2026-09-01T19:49:41Z</time>
  <course>11.13</course>
  <speed>0.022360679774997897</speed>
  <fix>3d</fix>
</trkpt>
<trkpt lat="-27.274439" lon="151.290064">
  <ele>343.1</ele>
  <time>2026-09-01T19:49:41Z</time>
  <course>270.0</course>
  <speed>0.0</speed>
  <fix>3d</fix>
</trkpt>
<trkpt lat="-27.2744392" lon="151.2900641">
  <ele>343.08</ele>
  <time>2026-09-01T19:49:41Z</time>
  <course>11.13</course>
  <speed>0.022360679774997897</speed>
  <fix>3d</fix>
</trkpt>
<trkpt lat="-27.274439" lon="151.290064">
  <ele>343.1</ele>
  <time>2026-09-01T19:49:41Z</time>
  <course>270.0</course>
  <speed>0.0</speed>
  <fix>3d</fix>
</trkpt>
<trkpt lat="-27.2744392" lon="151.2900641">
  <ele>343.08</ele>
  <time>2026-09-01T19:49:41Z</time>
  <course>11.13</course>
  <speed>0.022360679774997897</speed>
  <fix>3d</fix>
</trkpt>
<trkpt lat="-27.274439" lon="151.290064">
  <ele>343.1</ele>
  <time>2026-09-01T19:49:41Z</time>
  <course>270.0</course>
  <speed>0.0</speed>
  <fix>3d</fix>
</trkpt>
<trkpt lat="-27.2744392" lon="151.2900641">
  <ele>343.08</ele>
  <time>2026-09-01T19:49:41Z</time>
  <course>11.13</course>
  <speed>0.022360679774997897</speed>
  <fix>3d</fix>
</trkpt>
<trkpt lat="-27.274439" lon="151.290064">
  <ele>343.1</ele>
  <time>2026-09-01T19:49:41Z</time>
  <course>270.0</course>
  <speed>0.0</speed>
  <fix>3d</fix>
</trkpt>
<trkpt lat="-27.2744392" lon="151.2900641">
  <ele>343.08</ele>
  <time>2026-09-01T19:49:41Z</time>
  <course>11.13</course>
  <speed>0.022360679774997897</speed>
  <fix>3d</fix>
</trkpt>
<trkpt lat="-27.274439" lon="151.290064">
  <ele>343.1</ele>
  <time>2026-09-01T19:49:41Z</time>
  <course>270.0</course>
  <speed>0.0</speed>
  <fix>3d</fix>
</trkpt>
<trkpt lat="-27.2744392" lon="151.2900641">
  <ele>343.08</ele>
  <time>2026-09-01T19:49:41Z</time>
  <course>11.13</course>
  <speed>0.022360679774997897</speed>
  <fix>3d</fix>
</trkpt>
<trkpt lat="-27.274439" lon="151.290064">
  <ele>343.1</ele>
  <time>2026-09-01T19:49:41Z</time>
  <course>270.0</course>
  <speed>0.0</speed>
  <fix>3d</fix>
</trkpt>
<trkpt lat="-27.2744392" lon="151.2900641">
  <ele>343.08</ele>
  <time>2026-09-01T19:49:41Z</time>
  <course>11.13</course>
  <speed>0.022360679774997897</speed>
  <fix>3d</fix>
</trkpt>
<trkpt lat="-27.274439" lon="151.290064">
  <ele>343.1</ele>
  <time>2026-09-01T19:49:41Z</time>
  <course>270.0</course>
  <speed>0.0</speed>
  <fix>3d</fix>
</trkpt>
<trkpt lat="-27.2744392" lon="151.2900641">
  <ele>343.09</ele>
  <time>2026-09-01T19:49:41Z</time>
  <course>11.13</course>
  <speed>0.022360679774997897</speed>
  <fix>3d</fix>
</trkpt>
<trkpt lat="-27.274439" lon="151.290064">
  <ele>343.1</ele>
  <time>2026-09-01T19:49:41Z</time>
  <course>270.0</course>
  <speed>0.0</speed>
  <fix>3d</fix>
</trkpt>
<trkpt lat="-27.2744392" lon="151.2900641">
  <ele>343.08</ele>
  <time>2026-09-01T19:49:41Z</time>
  <course>11.13</course>
  <speed>0.022360679774997897</speed>
  <fix>3d</fix>
</trkpt>
<trkpt lat="-27.274439" lon="151.290064">
  <ele>343.1</ele>
  <time>2026-09-01T19:49:41Z</time>
  <course>270.0</course>
  <speed>0.0</speed>
  <fix>3d</fix>
</trkpt>
<trkpt lat="-27.2744392" lon="151.2900641">
  <ele>343.08</ele>
  <time>2026-09-01T19:49:41Z</time>
  <course>11.13</course>
  <speed>0.022360679774997897</speed>
  <fix>3d</fix>
</trkpt>
<trkpt lat="-27.274439" lon="151.290064">
  <ele>343.1</ele>
  <time>2026-09-01T19:49:41Z</time>
  <course>270.0</course>
  <speed>0.0</speed>
  <fix>3d</fix>
</trkpt>
<trkpt lat="-27.2744392" lon="151.2900641">
  <ele>343.08</ele>
  <time>2026-09-01T19:49:41Z</time>
  <course>11.14</course>
  <speed>0.022360679774997897</speed>
  <fix>3d</fix>
</trkpt>
<trkpt lat="-27.274439" lon="151.290064">
  <ele>343.1</ele>
  <time>2026-09-01T19:49:41Z</time>
  <course>270.0</course>
  <speed>0.0</speed>
  <fix>3d</fix>
</trkpt>
<trkpt lat="-27.2744392" lon="151.2900641">
  <ele>343.08</ele>
  <time>2026-09-01T19:49:41Z</time>
  <course>11.14</course>
  <speed>0.022360679774997897</speed>
  <fix>3d</fix>
</trkpt>
<trkpt lat="-27.274439" lon="151.290064">
  <ele>343.1</ele>
  <time>2026-09-01T19:49:41Z</time>
  <course>270.0</course>
  <speed>0.0</speed>
  <fix>3d</fix>
</trkpt>
<trkpt lat="-27.2744392" lon="151.2900641">
  <ele>343.08</ele>
  <time>2026-09-01T19:49:41Z</time>
  <course>11.14</course>
  <speed>0.022360679774997897</speed>
  <fix>3d</fix>
</trkpt>
<trkpt lat="-27.274439" lon="151.290064">
  <ele>343.1</ele>
  <time>2026-09-01T19:49:41Z</time>
  <course>270.0</course>
  <speed>0.0</speed>
  <fix>3d</fix>
</trkpt>
<trkpt lat="-27.2744392" lon="151.2900641">
  <ele>343.08</ele>
  <time>2026-09-01T19:49:41Z</time>
  <course>11.14</course>
  <speed>0.022360679774997897</speed>
  <fix>3d</fix>
</trkpt>
<trkpt lat="-27.274439" lon="151.290064">
  <ele>343.1</ele>
  <time>2026-09-01T19:49:41Z</time>
  <course>270.0</course>
  <speed>0.0</speed>
  <fix>3d</fix>
</trkpt>
<trkpt lat="-27.2744392" lon="151.2900641">
  <ele>343.08</ele>
  <time>2026-09-01T19:49:41Z</time>
  <course>11.14</course>
  <speed>0.022360679774997897</speed>
  <fix>3d</fix>
</trkpt>
<trkpt lat="-27.274439" lon="151.290064">
  <ele>343.1</ele>
  <time>2026-09-01T19:49:41Z</time>
  <course>270.0</course>
  <speed>0.0</speed>
  <fix>3d</fix>
</trkpt>
<trkpt lat="-27.2744392" lon="151.2900641">
  <ele>343.08</ele>
  <time>2026-09-01T19:49:41Z</time>
  <course>11.14</course>
  <speed>0.022360679774997897</speed>
  <fix>3d</fix>
</trkpt>
<trkpt lat="-27.274439" lon="151.290064">
  <ele>343.1</ele>
  <time>2026-09-01T19:49:41Z</time>
  <course>270.0</course>
  <speed>0.0</speed>
  <fix>3d</fix>
</trkpt>
<trkpt lat="-27.2744392" lon="151.2900641">
  <ele>343.1</ele>
  <time>2026-09-01T19:49:41Z</time>
  <course>11.14</course>
  <speed>0.022360679774997897</speed>
  <fix>3d</fix>
</trkpt>
<trkpt lat="-27.274439" lon="151.290064">
  <ele>343.1</ele>
  <time>2026-09-01T19:49:41Z</time>
  <course>270.0</course>
  <speed>0.0</speed>
  <fix>3d</fix>
</trkpt>
<trkpt lat="-27.2744392" lon="151.2900641">
  <ele>343.09</ele>
  <time>2026-09-01T19:49:41Z</time>
  <course>11.14</course>
  <speed>0.022360679774997897</speed>
  <fix>3d</fix>
</trkpt>
<trkpt lat="-27.274439" lon="151.290064">
  <ele>343.1</ele>
  <time>2026-09-01T19:49:41Z</time>
  <course>270.0</course>
  <speed>0.0</speed>
  <fix>3d</fix>
</trkpt>
<trkpt lat="-27.2744392" lon="151.2900641">
  <ele>343.09</ele>
  <time>2026-09-01T19:49:41Z</time>
  <course>11.14</course>
  <speed>0.022360679774997897</speed>
  <fix>3d</fix>
</trkpt>
<trkpt lat="-27.274439" lon="151.290064">
  <ele>343.1</ele>
  <time>2026-09-01T19:49:41Z</time>
  <course>270.0</course>
  <speed>0.0</speed>
  <fix>3d</fix>
</trkpt>
<trkpt lat="-27.2744392" lon="151.2900641">
  <ele>343.1</ele>
  <time>2026-09-01T19:49:41Z</time>
  <course>11.15</course>
  <speed>0.022360679774997897</speed>
  <fix>3d</fix>
</trkpt>
<trkpt lat="-27.274439" lon="151.290064">
  <ele>343.1</ele>
  <time>2026-09-01T19:49:41Z</time>
  <course>270.0</course>
  <speed>0.0</speed>
  <fix>3d</fix>
</trkpt>
<trkpt lat="-27.2744392" lon="151.2900641">
  <ele>343.1</ele>
  <time>2026-09-01T19:49:41Z</time>
  <course>11.15</course>
  <speed>0.022360679774997897</speed>
  <fix>3d</fix>
</trkpt>
<trkpt lat="-27.274439" lon="151.290064">
  <ele>343.1</ele>
  <time>2026-09-01T19:49:41Z</time>
  <course>270.0</course>
  <speed>0.0</speed>
  <fix>3d</fix>
</trkpt>
<trkpt lat="-27.2744392" lon="151.2900641">
  <ele>343.1</ele>
  <time>2026-09-01T19:49:41Z</time>
  <course>11.15</course>
  <speed>0.022360679774997897</speed>
  <fix>3d</fix>
</trkpt>
<trkpt lat="-27.274439" lon="151.290064">
  <ele>343.1</ele>
  <time>2026-09-01T19:49:41Z</time>
  <course>270.0</course>
  <speed>0.0</speed>
  <fix>3d</fix>
</trkpt>
<trkpt lat="-27.2744392" lon="151.2900641">
  <ele>343.11</ele>
  <time>2026-09-01T19:49:41Z</time>
  <course>11.15</course>
  <speed>0.022360679774997897</speed>
  <fix>3d</fix>
</trkpt>
<trkpt lat="-27.274439" lon="151.290064">
  <ele>343.1</ele>
  <time>2026-09-01T19:49:41Z</time>
  <course>270.0</course>
  <speed>0.0</speed>
  <fix>3d</fix>
</trkpt>
<trkpt lat="-27.2744392" lon="151.2900641">
  <ele>343.11</ele>
  <time>2026-09-01T19:49:41Z</time>
  <course>11.15</course>
  <speed>0.022360679774997897</speed>
  <fix>3d</fix>
</trkpt>
<trkpt lat="-27.274439" lon="151.290064">
  <ele>343.1</ele>
  <time>2026-09-01T19:49:41Z</time>
  <course>270.0</course>
  <speed>0.0</speed>
  <fix>3d</fix>
</trkpt>
<trkpt lat="-27.2744392" lon="151.2900641">
  <ele>343.11</ele>
  <time>2026-09-01T19:49:41Z</time>
  <course>11.15</course>
  <speed>0.022360679774997897</speed>
  <fix>3d</fix>
</trkpt>
<trkpt lat="-27.274439" lon="151.290064">
  <ele>343.1</ele>
  <time>2026-09-01T19:49:41Z</time>
  <course>270.0</course>
  <speed>0.0</speed>
  <fix>3d</fix>
</trkpt>
<trkpt lat="-27.2744392" lon="151.2900641">
  <ele>343.12</ele>
  <time>2026-09-01T19:49:41Z</time>
  <course>11.15</course>
  <speed>0.022360679774997897</speed>
  <fix>3d</fix>
</trkpt>
<trkpt lat="-27.274439" lon="151.290064">
  <ele>343.1</ele>
  <time>2026-09-01T19:49:41Z</time>
  <course>270.0</course>
  <speed>0.0</speed>
  <fix>3d</fix>
</trkpt>
<trkpt lat="-27.2744392" lon="151.2900641">
  <ele>343.12</ele>
  <time>2026-09-01T19:49:41Z</time>
  <course>11.15</course>
  <speed>0.022360679774997897</speed>
  <fix>3d</fix>
</trkpt>
<trkpt lat="-27.274439" lon="151.290064">
  <ele>343.1</ele>
  <time>2026-09-01T19:49:41Z</time>
  <course>270.0</course>
  <speed>0.0</speed>
  <fix>3d</fix>
</trkpt>
<trkpt lat="-27.2744392" lon="151.2900641">
  <ele>343.13</ele>
  <time>2026-09-01T19:49:41Z</time>
  <course>11.15</course>
  <speed>0.022360679774997897</speed>
  <fix>3d</fix>
</trkpt>
<trkpt lat="-27.274439" lon="151.290064">
  <ele>343.1</ele>
  <time>2026-09-01T19:49:41Z</time>
  <course>270.0</course>
  <speed>0.0</speed>
  <fix>3d</fix>
</trkpt>
<trkpt lat="-27.2744392" lon="151.2900641">
  <ele>343.13</ele>
  <time>2026-09-01T19:49:41Z</time>
  <course>11.15</course>
  <speed>0.022360679774997897</speed>
  <fix>3d</fix>
</trkpt>
<trkpt lat="-27.274439" lon="151.290064">
  <ele>343.1</ele>
  <time>2026-09-01T19:49:41Z</time>
  <course>270.0</course>
  <speed>0.0</speed>
  <fix>3d</fix>
</trkpt>
<trkpt lat="-27.2744392" lon="151.2900641">
  <ele>343.13</ele>
  <time>2026-09-01T19:49:41Z</time>
  <course>11.16</course>
  <speed>0.022360679774997897</speed>
  <fix>3d</fix>
</trkpt>
<trkpt lat="-27.274439" lon="151.290064">
  <ele>343.1</ele>
  <time>2026-09-01T19:49:41Z</time>
  <course>270.0</course>
  <speed>0.0</speed>
  <fix>3d</fix>
</trkpt>
<trkpt lat="-27.2744392" lon="151.2900641">
  <ele>343.14</ele>
  <time>2026-09-01T19:49:41Z</time>
  <course>11.16</course>
  <speed>0.022360679774997897</speed>
  <fix>3d</fix>
</trkpt>
<trkpt lat="-27.274439" lon="151.290064">
  <ele>343.1</ele>
  <time>2026-09-01T19:49:41Z</time>
  <course>270.0</course>
  <speed>0.0</speed>
  <fix>3d</fix>
</trkpt>
<trkpt lat="-27.2744392" lon="151.2900641">
  <ele>343.14</ele>
  <time>2026-09-01T19:49:41Z</time>
  <course>11.16</course>
  <speed>0.022360679774997897</speed>
  <fix>3d</fix>
</trkpt>
<trkpt lat="-27.274439" lon="151.290064">
  <ele>343.1</ele>
  <time>2026-09-01T19:49:41Z</time>
  <course>270.0</course>
  <speed>0.0</speed>
  <fix>3d</fix>
</trkpt>
<trkpt lat="-27.2744392" lon="151.2900641">
  <ele>343.15</ele>
  <time>2026-09-01T19:49:41Z</time>
  <course>11.16</course>
  <speed>0.022360679774997897</speed>
  <fix>3d</fix>
</trkpt>
<trkpt lat="-27.274439" lon="151.290064">
  <ele>343.1</ele>
  <time>2026-09-01T19:49:41Z</time>
  <course>270.0</course>
  <speed>0.0</speed>
  <fix>3d</fix>
</trkpt>
<trkpt lat="-27.2744392" lon="151.2900641">
  <ele>343.15</ele>
  <time>2026-09-01T19:49:41Z</time>
  <course>11.16</course>
  <speed>0.022360679774997897</speed>
  <fix>3d</fix>
</trkpt>
<trkpt lat="-27.274439" lon="151.290064">
  <ele>343.1</ele>
  <time>2026-09-01T19:49:41Z</time>
  <course>270.0</course>
  <speed>0.0</speed>
  <fix>3d</fix>
</trkpt>
<trkpt lat="-27.2744392" lon="151.2900641">
  <ele>343.15</ele>
  <time>2026-09-01T19:49:41Z</time>
  <course>11.16</course>
  <speed>0.022360679774997897</speed>
  <fix>3d</fix>
</trkpt>
<trkpt lat="-27.274439" lon="151.290064">
  <ele>343.1</ele>
  <time>2026-09-01T19:49:41Z</time>
  <course>270.0</course>
  <speed>0.0</speed>
  <fix>3d</fix>
</trkpt>
<trkpt lat="-27.2744392" lon="151.2900641">
  <ele>343.16</ele>
  <time>2026-09-01T19:49:41Z</time>
  <course>11.16</course>
  <speed>0.022360679774997897</speed>
  <fix>3d</fix>
</trkpt>
<trkpt lat="-27.274439" lon="151.290064">
  <ele>343.1</ele>
  <time>2026-09-01T19:49:41Z</time>
  <course>270.0</course>
  <speed>0.0</speed>
  <fix>3d</fix>
</trkpt>
<trkpt lat="-27.2744392" lon="151.2900641">
  <ele>343.16</ele>
  <time>2026-09-01T19:49:41Z</time>
  <course>11.16</course>
  <speed>0.022360679774997897</speed>
  <fix>3d</fix>
</trkpt>
<trkpt lat="-27.274439" lon="151.290064">
  <ele>343.1</ele>
  <time>2026-09-01T19:49:41Z</time>
  <course>270.0</course>
  <speed>0.0</speed>
  <fix>3d</fix>
</trkpt>
<trkpt lat="-27.2744392" lon="151.2900641">
  <ele>343.16</ele>
  <time>2026-09-01T19:49:41Z</time>
  <course>11.16</course>
  <speed>0.022360679774997897</speed>
  <fix>3d</fix>
</trkpt>
<trkpt lat="-27.274439" lon="151.290064">
  <ele>343.1</ele>
  <time>2026-09-01T19:49:41Z</time>
  <course>270.0</course>
  <speed>0.0</speed>
  <fix>3d</fix>
</trkpt>
<trkpt lat="-27.2744392" lon="151.2900641">
  <ele>343.17</ele>
  <time>2026-09-01T19:49:41Z</time>
  <course>11.17</course>
  <speed>0.022360679774997897</speed>
  <fix>3d</fix>
</trkpt>
<trkpt lat="-27.274439" lon="151.290064">
  <ele>343.1</ele>
  <time>2026-09-01T19:49:41Z</time>
  <course>270.0</course>
  <speed>0.0</speed>
  <fix>3d</fix>
</trkpt>
<trkpt lat="-27.2744392" lon="151.2900641">
  <ele>343.17</ele>
  <time>2026-09-01T19:49:41Z</time>
  <course>11.17</course>
  <speed>0.022360679774997897</speed>
  <fix>3d</fix>
</trkpt>
<trkpt lat="-27.274439" lon="151.290064">
  <ele>343.1</ele>
  <time>2026-09-01T19:49:41Z</time>
  <course>270.0</course>
  <speed>0.0</speed>
  <fix>3d</fix>
</trkpt>
<trkpt lat="-27.2744392" lon="151.2900641">
  <ele>343.17</ele>
  <time>2026-09-01T19:49:41Z</time>
  <course>11.17</course>
  <speed>0.022360679774997897</speed>
  <fix>3d</fix>
</trkpt>
<trkpt lat="-27.274439" lon="151.290064">
  <ele>343.1</ele>
  <time>2026-09-01T19:49:41Z</time>
  <course>270.0</course>
  <speed>0.0</speed>
  <fix>3d</fix>
</trkpt>
<trkpt lat="-27.2744392" lon="151.2900641">
  <ele>343.18</ele>
  <time>2026-09-01T19:49:41Z</time>
  <course>11.17</course>
  <speed>0.022360679774997897</speed>
  <fix>3d</fix>
</trkpt>
<trkpt lat="-27.274439" lon="151.290064">
  <ele>343.1</ele>
  <time>2026-09-01T19:49:41Z</time>
  <course>270.0</course>
  <speed>0.0</speed>
  <fix>3d</fix>
</trkpt>
<trkpt lat="-27.2744392" lon="151.2900641">
  <ele>343.18</ele>
  <time>2026-09-01T19:49:41Z</time>
  <course>11.17</course>
  <speed>0.022360679774997897</speed>
  <fix>3d</fix>
</trkpt>
<trkpt lat="-27.274439" lon="151.290064">
  <ele>343.1</ele>
  <time>2026-09-01T19:49:41Z</time>
  <course>270.0</course>
  <speed>0.0</speed>
  <fix>3d</fix>
</trkpt>
<trkpt lat="-27.2744392" lon="151.2900641">
  <ele>343.18</ele>
  <time>2026-09-01T19:49:41Z</time>
  <course>11.17</course>
  <speed>0.022360679774997897</speed>
  <fix>3d</fix>
</trkpt>
<trkpt lat="-27.274439" lon="151.290064">
  <ele>343.1</ele>
  <time>2026-09-01T19:49:41Z</time>
  <course>270.0</course>
  <speed>0.0</speed>
  <fix>3d</fix>
</trkpt>
<trkpt lat="-27.2744392" lon="151.2900641">
  <ele>343.19</ele>
  <time>2026-09-01T19:49:41Z</time>
  <course>11.17</course>
  <speed>0.022360679774997897</speed>
  <fix>3d</fix>
</trkpt>
<trkpt lat="-27.274439" lon="151.290064">
  <ele>343.1</ele>
  <time>2026-09-01T19:49:41Z</time>
  <course>270.0</course>
  <speed>0.0</speed>
  <fix>3d</fix>
</trkpt>
<trkpt lat="-27.2744392" lon="151.2900641">
  <ele>343.19</ele>
  <time>2026-09-01T19:49:41Z</time>
  <course>11.17</course>
  <speed>0.022360679774997897</speed>
  <fix>3d</fix>
</trkpt>
<trkpt lat="-27.274439" lon="151.290064">
  <ele>343.1</ele>
  <time>2026-09-01T19:49:41Z</time>
  <course>270.0</course>
  <speed>0.0</speed>
  <fix>3d</fix>
</trkpt>
<trkpt lat="-27.2744392" lon="151.2900641">
  <ele>343.19</ele>
  <time>2026-09-01T19:49:41Z</time>
  <course>11.17</course>
  <speed>0.022360679774997897</speed>
  <fix>3d</fix>
</trkpt>
<trkpt lat="-27.274439" lon="151.290064">
  <ele>343.1</ele>
  <time>2026-09-01T19:49:41Z</time>
  <course>270.0</course>
  <speed>0.0</speed>
  <fix>3d</fix>
</trkpt>
<trkpt lat="-27.2744392" lon="151.2900641">
  <ele>343.2</ele>
  <time>2026-09-01T19:49:41Z</time>
  <course>11.17</course>
  <speed>0.022360679774997897</speed>
  <fix>3d</fix>
</trkpt>
<trkpt lat="-27.274439" lon="151.290064">
  <ele>343.1</ele>
  <time>2026-09-01T19:49:41Z</time>
  <course>270.0</course>
  <speed>0.0</speed>
  <fix>3d</fix>
</trkpt>
<trkpt lat="-27.2744392" lon="151.2900641">
  <ele>343.2</ele>
  <time>2026-09-01T19:49:41Z</time>
  <course>11.17</course>
  <speed>0.022360679774997897</speed>
  <fix>3d</fix>
</trkpt>
<trkpt lat="-27.274439" lon="151.290064">
  <ele>343.1</ele>
  <time>2026-09-01T19:49:41Z</time>
  <course>270.0</course>
  <speed>0.0</speed>
  <fix>3d</fix>
</trkpt>
<trkpt lat="-27.2744392" lon="151.2900641">
  <ele>343.2</ele>
  <time>2026-09-01T19:49:42Z</time>
  <course>11.18</course>
  <speed>0.022360679774997897</speed>
  <fix>3d</fix>
</trkpt>
<trkpt lat="-27.274439" lon="151.290064">
  <ele>343.1</ele>
  <time>2026-09-01T19:49:42Z</time>
  <course>270.0</course>
  <speed>0.0</speed>
  <fix>3d</fix>
</trkpt>
<trkpt lat="-27.2744392" lon="151.2900641">
  <ele>343.2</ele>
  <time>2026-09-01T19:49:42Z</time>
  <course>11.18</course>
  <speed>0.022360679774997897</speed>
  <fix>3d</fix>
</trkpt>
<trkpt lat="-27.274439" lon="151.290064">
  <ele>343.1</ele>
  <time>2026-09-01T19:49:42Z</time>
  <course>270.0</course>
  <speed>0.0</speed>
  <fix>3d</fix>
</trkpt>
<trkpt lat="-27.2744392" lon="151.2900641">
  <ele>343.21</ele>
  <time>2026-09-01T19:49:42Z</time>
  <course>11.18</course>
  <speed>0.022360679774997897</speed>
  <fix>3d</fix>
</trkpt>
<trkpt lat="-27.274439" lon="151.290064">
  <ele>343.1</ele>
  <time>2026-09-01T19:49:42Z</time>
  <course>270.0</course>
  <speed>0.0</speed>
  <fix>3d</fix>
</trkpt>
<trkpt lat="-27.2744392" lon="151.2900641">
  <ele>343.21</ele>
  <time>2026-09-01T19:49:42Z</time>
  <course>11.18</course>
  <speed>0.022360679774997897</speed>
  <fix>3d</fix>
</trkpt>
<trkpt lat="-27.274439" lon="151.290064">
  <ele>343.1</ele>
  <time>2026-09-01T19:49:42Z</time>
  <course>270.0</course>
  <speed>0.0</speed>
  <fix>3d</fix>
</trkpt>
<trkpt lat="-27.2744392" lon="151.2900641">
  <ele>343.21</ele>
  <time>2026-09-01T19:49:42Z</time>
  <course>11.18</course>
  <speed>0.022360679774997897</speed>
  <fix>3d</fix>
</trkpt>
<trkpt lat="-27.274439" lon="151.290064">
  <ele>343.1</ele>
  <time>2026-09-01T19:49:42Z</time>
  <course>270.0</course>
  <speed>0.0</speed>
  <fix>3d</fix>
</trkpt>
<trkpt lat="-27.2744392" lon="151.2900641">
  <ele>343.22</ele>
  <time>2026-09-01T19:49:42Z</time>
  <course>11.18</course>
  <speed>0.022360679774997897</speed>
  <fix>3d</fix>
</trkpt>
<trkpt lat="-27.274439" lon="151.290064">
  <ele>343.1</ele>
  <time>2026-09-01T19:49:42Z</time>
  <course>270.0</course>
  <speed>0.0</speed>
  <fix>3d</fix>
</trkpt>
<trkpt lat="-27.2744392" lon="151.2900641">
  <ele>343.22</ele>
  <time>2026-09-01T19:49:42Z</time>
  <course>11.18</course>
  <speed>0.022360679774997897</speed>
  <fix>3d</fix>
</trkpt>
<trkpt lat="-27.274439" lon="151.290064">
  <ele>343.1</ele>
  <time>2026-09-01T19:49:42Z</time>
  <course>270.0</course>
  <speed>0.0</speed>
  <fix>3d</fix>
</trkpt>
<trkpt lat="-27.2744392" lon="151.2900641">
  <ele>343.23</ele>
  <time>2026-09-01T19:49:42Z</time>
  <course>11.18</course>
  <speed>0.022360679774997897</speed>
  <fix>3d</fix>
</trkpt>
<trkpt lat="-27.274439" lon="151.290064">
  <ele>343.1</ele>
  <time>2026-09-01T19:49:42Z</time>
  <course>270.0</course>
  <speed>0.0</speed>
  <fix>3d</fix>
</trkpt>
<trkpt lat="-27.2744392" lon="151.2900641">
  <ele>343.23</ele>
  <time>2026-09-01T19:49:42Z</time>
  <course>11.18</course>
  <speed>0.022360679774997897</speed>
  <fix>3d</fix>
</trkpt>
<trkpt lat="-27.274439" lon="151.290064">
  <ele>343.1</ele>
  <time>2026-09-01T19:49:42Z</time>
  <course>270.0</course>
  <speed>0.0</speed>
  <fix>3d</fix>
</trkpt>
<trkpt lat="-27.2744392" lon="151.2900641">
  <ele>343.23</ele>
  <time>2026-09-01T19:49:42Z</time>
  <course>11.19</course>
  <speed>0.022360679774997897</speed>
  <fix>3d</fix>
</trkpt>
<trkpt lat="-27.274439" lon="151.290064">
  <ele>343.1</ele>
  <time>2026-09-01T19:49:42Z</time>
  <course>270.0</course>
  <speed>0.0</speed>
  <fix>3d</fix>
</trkpt>
<trkpt lat="-27.2744392" lon="151.2900641">
  <ele>343.23</ele>
  <time>2026-09-01T19:49:42Z</time>
  <course>11.19</course>
  <speed>0.022360679774997897</speed>
  <fix>3d</fix>
</trkpt>
<trkpt lat="-27.274439" lon="151.290064">
  <ele>343.1</ele>
  <time>2026-09-01T19:49:42Z</time>
  <course>270.0</course>
  <speed>0.0</speed>
  <fix>3d</fix>
</trkpt>
<trkpt lat="-27.2744392" lon="151.2900641">
  <ele>343.24</ele>
  <time>2026-09-01T19:49:42Z</time>
  <course>11.19</course>
  <speed>0.022360679774997897</speed>
  <fix>3d</fix>
</trkpt>
<trkpt lat="-27.274439" lon="151.290064">
  <ele>343.1</ele>
  <time>2026-09-01T19:49:42Z</time>
  <course>270.0</course>
  <speed>0.0</speed>
  <fix>3d</fix>
</trkpt>
<trkpt lat="-27.2744392" lon="151.2900641">
  <ele>343.24</ele>
  <time>2026-09-01T19:49:42Z</time>
  <course>11.19</course>
  <speed>0.022360679774997897</speed>
  <fix>3d</fix>
</trkpt>
<trkpt lat="-27.274439" lon="151.290064">
  <ele>343.1</ele>
  <time>2026-09-01T19:49:42Z</time>
  <course>270.0</course>
  <speed>0.0</speed>
  <fix>3d</fix>
</trkpt>
<trkpt lat="-27.2744392" lon="151.2900641">
  <ele>343.24</ele>
  <time>2026-09-01T19:49:42Z</time>
  <course>11.19</course>
  <speed>0.022360679774997897</speed>
  <fix>3d</fix>
</trkpt>
<trkpt lat="-27.274439" lon="151.290064">
  <ele>343.1</ele>
  <time>2026-09-01T19:49:42Z</time>
  <course>270.0</course>
  <speed>0.0</speed>
  <fix>3d</fix>
</trkpt>
<trkpt lat="-27.2744392" lon="151.2900641">
  <ele>343.24</ele>
  <time>2026-09-01T19:49:42Z</time>
  <course>11.19</course>
  <speed>0.022360679774997897</speed>
  <fix>3d</fix>
</trkpt>
<trkpt lat="-27.274439" lon="151.290064">
  <ele>343.1</ele>
  <time>2026-09-01T19:49:42Z</time>
  <course>270.0</course>
  <speed>0.0</speed>
  <fix>3d</fix>
</trkpt>
<trkpt lat="-27.2744392" lon="151.2900641">
  <ele>343.24</ele>
  <time>2026-09-01T19:49:42Z</time>
  <course>11.19</course>
  <speed>0.022360679774997897</speed>
  <fix>3d</fix>
</trkpt>
<trkpt lat="-27.274439" lon="151.290064">
  <ele>343.1</ele>
  <time>2026-09-01T19:49:42Z</time>
  <course>270.0</course>
  <speed>0.0</speed>
  <fix>3d</fix>
</trkpt>
<trkpt lat="-27.2744392" lon="151.2900641">
  <ele>343.24</ele>
  <time>2026-09-01T19:49:42Z</time>
  <course>11.19</course>
  <speed>0.022360679774997897</speed>
  <fix>3d</fix>
</trkpt>
<trkpt lat="-27.274439" lon="151.290064">
  <ele>343.1</ele>
  <time>2026-09-01T19:49:42Z</time>
  <course>270.0</course>
  <speed>0.0</speed>
  <fix>3d</fix>
</trkpt>
<trkpt lat="-27.2744392" lon="151.2900641">
  <ele>343.24</ele>
  <time>2026-09-01T19:49:42Z</time>
  <course>11.19</course>
  <speed>0.022360679774997897</speed>
  <fix>3d</fix>
</trkpt>
<trkpt lat="-27.274439" lon="151.290064">
  <ele>343.1</ele>
  <time>2026-09-01T19:49:42Z</time>
  <course>270.0</course>
  <speed>0.0</speed>
  <fix>3d</fix>
</trkpt>
<trkpt lat="-27.2744392" lon="151.2900641">
  <ele>343.24</ele>
  <time>2026-09-01T19:49:42Z</time>
  <course>11.19</course>
  <speed>0.022360679774997897</speed>
  <fix>3d</fix>
</trkpt>
<trkpt lat="-27.274439" lon="151.290064">
  <ele>343.1</ele>
  <time>2026-09-01T19:49:42Z</time>
  <course>270.0</course>
  <speed>0.0</speed>
  <fix>3d</fix>
</trkpt>
<trkpt lat="-27.2744392" lon="151.2900641">
  <ele>343.24</ele>
  <time>2026-09-01T19:49:42Z</time>
  <course>11.2</course>
  <speed>0.022360679774997897</speed>
  <fix>3d</fix>
</trkpt>
<trkpt lat="-27.274439" lon="151.290064">
  <ele>343.1</ele>
  <time>2026-09-01T19:49:42Z</time>
  <course>270.0</course>
  <speed>0.0</speed>
  <fix>3d</fix>
</trkpt>
<trkpt lat="-27.2744392" lon="151.2900641">
  <ele>343.24</ele>
  <time>2026-09-01T19:49:42Z</time>
  <course>11.2</course>
  <speed>0.022360679774997897</speed>
  <fix>3d</fix>
</trkpt>
<trkpt lat="-27.274439" lon="151.290064">
  <ele>343.1</ele>
  <time>2026-09-01T19:49:42Z</time>
  <course>270.0</course>
  <speed>0.0</speed>
  <fix>3d</fix>
</trkpt>
<trkpt lat="-27.2744392" lon="151.2900641">
  <ele>343.24</ele>
  <time>2026-09-01T19:49:42Z</time>
  <course>11.2</course>
  <speed>0.022360679774997897</speed>
  <fix>3d</fix>
</trkpt>
<trkpt lat="-27.274439" lon="151.290064">
  <ele>343.1</ele>
  <time>2026-09-01T19:49:42Z</time>
  <course>270.0</course>
  <speed>0.0</speed>
  <fix>3d</fix>
</trkpt>
<trkpt lat="-27.2744392" lon="151.2900641">
  <ele>343.24</ele>
  <time>2026-09-01T19:49:42Z</time>
  <course>11.2</course>
  <speed>0.022360679774997897</speed>
  <fix>3d</fix>
</trkpt>
<trkpt lat="-27.274439" lon="151.290064">
  <ele>343.1</ele>
  <time>2026-09-01T19:49:42Z</time>
  <course>270.0</course>
  <speed>0.0</speed>
  <fix>3d</fix>
</trkpt>
<trkpt lat="-27.2744392" lon="151.2900641">
  <ele>343.24</ele>
  <time>2026-09-01T19:49:42Z</time>
  <course>11.2</course>
  <speed>0.022360679774997897</speed>
  <fix>3d</fix>
</trkpt>
<trkpt lat="-27.274439" lon="151.290064">
  <ele>343.1</ele>
  <time>2026-09-01T19:49:42Z</time>
  <course>270.0</course>
  <speed>0.0</speed>
  <fix>3d</fix>
</trkpt>
<trkpt lat="-27.2744392" lon="151.2900641">
  <ele>343.24</ele>
  <time>2026-09-01T19:49:42Z</time>
  <course>11.2</course>
  <speed>0.022360679774997897</speed>
  <fix>3d</fix>
</trkpt>
<trkpt lat="-27.274439" lon="151.290064">
  <ele>343.1</ele>
  <time>2026-09-01T19:49:42Z</time>
  <course>270.0</course>
  <speed>0.0</speed>
  <fix>3d</fix>
</trkpt>
<trkpt lat="-27.2744392" lon="151.2900641">
  <ele>343.24</ele>
  <time>2026-09-01T19:49:42Z</time>
  <course>11.2</course>
  <speed>0.022360679774997897</speed>
  <fix>3d</fix>
</trkpt>
<trkpt lat="-27.274439" lon="151.290064">
  <ele>343.1</ele>
  <time>2026-09-01T19:49:42Z</time>
  <course>270.0</course>
  <speed>0.0</speed>
  <fix>3d</fix>
</trkpt>
<trkpt lat="-27.2744392" lon="151.2900641">
  <ele>343.24</ele>
  <time>2026-09-01T19:49:42Z</time>
  <course>11.2</course>
  <speed>0.022360679774997897</speed>
  <fix>3d</fix>
</trkpt>
<trkpt lat="-27.274439" lon="151.290064">
  <ele>343.1</ele>
  <time>2026-09-01T19:49:42Z</time>
  <course>270.0</course>
  <speed>0.0</speed>
  <fix>3d</fix>
</trkpt>
<trkpt lat="-27.2744392" lon="151.2900641">
  <ele>343.1</ele>
  <time>2026-09-01T19:49:42Z</time>
  <course>11.2</course>
  <speed>0.022360679774997897</speed>
  <fix>3d</fix>
</trkpt>
<trkpt lat="-27.274439" lon="151.290064">
  <ele>343.1</ele>
  <time>2026-09-01T19:49:42Z</time>
  <course>270.0</course>
  <speed>0.0</speed>
  <fix>3d</fix>
</trkpt>
<trkpt lat="-27.2744392" lon="151.2900641">
  <ele>343.1</ele>
  <time>2026-09-01T19:49:42Z</time>
  <course>11.21</course>
  <speed>0.022360679774997897</speed>
  <fix>3d</fix>
</trkpt>
<trkpt lat="-27.274439" lon="151.290064">
  <ele>343.1</ele>
  <time>2026-09-01T19:49:42Z</time>
  <course>270.0</course>
  <speed>0.0</speed>
  <fix>3d</fix>
</trkpt>
<trkpt lat="-27.2744392" lon="151.2900641">
  <ele>343.1</ele>
  <time>2026-09-01T19:49:42Z</time>
  <course>11.21</course>
  <speed>0.022360679774997897</speed>
  <fix>3d</fix>
</trkpt>
<trkpt lat="-27.274439" lon="151.290064">
  <ele>343.1</ele>
  <time>2026-09-01T19:49:42Z</time>
  <course>270.0</course>
  <speed>0.0</speed>
  <fix>3d</fix>
</trkpt>
<trkpt lat="-27.2744392" lon="151.2900641">
  <ele>343.1</ele>
  <time>2026-09-01T19:49:42Z</time>
  <course>11.21</course>
  <speed>0.022360679774997897</speed>
  <fix>3d</fix>
</trkpt>
<trkpt lat="-27.274439" lon="151.290064">
  <ele>343.1</ele>
  <time>2026-09-01T19:49:42Z</time>
  <course>270.0</course>
  <speed>0.0</speed>
  <fix>3d</fix>
</trkpt>
<trkpt lat="-27.2744392" lon="151.2900641">
  <ele>343.1</ele>
  <time>2026-09-01T19:49:42Z</time>
  <course>11.21</course>
  <speed>0.022360679774997897</speed>
  <fix>3d</fix>
</trkpt>
<trkpt lat="-27.274439" lon="151.290064">
  <ele>343.1</ele>
  <time>2026-09-01T19:49:42Z</time>
  <course>270.0</course>
  <speed>0.0</speed>
  <fix>3d</fix>
</trkpt>
<trkpt lat="-27.2744392" lon="151.2900641">
  <ele>343.1</ele>
  <time>2026-09-01T19:49:42Z</time>
  <course>11.21</course>
  <speed>0.022360679774997897</speed>
  <fix>3d</fix>
</trkpt>
<trkpt lat="-27.274439" lon="151.290064">
  <ele>343.1</ele>
  <time>2026-09-01T19:49:42Z</time>
  <course>270.0</course>
  <speed>0.0</speed>
  <fix>3d</fix>
</trkpt>
<trkpt lat="-27.2744392" lon="151.2900641">
  <ele>343.1</ele>
  <time>2026-09-01T19:49:42Z</time>
  <course>11.21</course>
  <speed>0.022360679774997897</speed>
  <fix>3d</fix>
</trkpt>
<trkpt lat="-27.274439" lon="151.290064">
  <ele>343.1</ele>
  <time>2026-09-01T19:49:42Z</time>
  <course>270.0</course>
  <speed>0.0</speed>
  <fix>3d</fix>
</trkpt>
<trkpt lat="-27.2744392" lon="151.2900641">
  <ele>343.09</ele>
  <time>2026-09-01T19:49:42Z</time>
  <course>11.21</course>
  <speed>0.022360679774997897</speed>
  <fix>3d</fix>
</trkpt>
<trkpt lat="-27.274439" lon="151.290064">
  <ele>343.1</ele>
  <time>2026-09-01T19:49:42Z</time>
  <course>270.0</course>
  <speed>0.0</speed>
  <fix>3d</fix>
</trkpt>
<trkpt lat="-27.2744392" lon="151.2900641">
  <ele>343.09</ele>
  <time>2026-09-01T19:49:42Z</time>
  <course>11.21</course>
  <speed>0.022360679774997897</speed>
  <fix>3d</fix>
</trkpt>
<trkpt lat="-27.274439" lon="151.290064">
  <ele>343.1</ele>
  <time>2026-09-01T19:49:42Z</time>
  <course>270.0</course>
  <speed>0.0</speed>
  <fix>3d</fix>
</trkpt>
<trkpt lat="-27.2744392" lon="151.2900641">
  <ele>343.09</ele>
  <time>2026-09-01T19:49:42Z</time>
  <course>11.21</course>
  <speed>0.022360679774997897</speed>
  <fix>3d</fix>
</trkpt>
<trkpt lat="-27.274439" lon="151.290064">
  <ele>343.1</ele>
  <time>2026-09-01T19:49:42Z</time>
  <course>270.0</course>
  <speed>0.0</speed>
  <fix>3d</fix>
</trkpt>
<trkpt lat="-27.2744392" lon="151.2900641">
  <ele>343.09</ele>
  <time>2026-09-01T19:49:42Z</time>
  <course>11.21</course>
  <speed>0.022360679774997897</speed>
  <fix>3d</fix>
</trkpt>
<trkpt lat="-27.274439" lon="151.290064">
  <ele>343.1</ele>
  <time>2026-09-01T19:49:42Z</time>
  <course>270.0</course>
  <speed>0.0</speed>
  <fix>3d</fix>
</trkpt>
<trkpt lat="-27.2744392" lon="151.2900641">
  <ele>343.1</ele>
  <time>2026-09-01T19:49:42Z</time>
  <course>11.22</course>
  <speed>0.022360679774997897</speed>
  <fix>3d</fix>
</trkpt>
<trkpt lat="-27.274439" lon="151.290064">
  <ele>343.1</ele>
  <time>2026-09-01T19:49:42Z</time>
  <course>270.0</course>
  <speed>0.0</speed>
  <fix>3d</fix>
</trkpt>
<trkpt lat="-27.2744392" lon="151.2900641">
  <ele>343.1</ele>
  <time>2026-09-01T19:49:42Z</time>
  <course>11.22</course>
  <speed>0.022360679774997897</speed>
  <fix>3d</fix>
</trkpt>
<trkpt lat="-27.274439" lon="151.290064">
  <ele>343.1</ele>
  <time>2026-09-01T19:49:42Z</time>
  <course>270.0</course>
  <speed>0.0</speed>
  <fix>3d</fix>
</trkpt>
<trkpt lat="-27.2744392" lon="151.2900641">
  <ele>343.1</ele>
  <time>2026-09-01T19:49:42Z</time>
  <course>11.22</course>
  <speed>0.022360679774997897</speed>
  <fix>3d</fix>
</trkpt>
<trkpt lat="-27.274439" lon="151.290064">
  <ele>343.1</ele>
  <time>2026-09-01T19:49:42Z</time>
  <course>270.0</course>
  <speed>0.0</speed>
  <fix>3d</fix>
</trkpt>
<trkpt lat="-27.2744392" lon="151.2900641">
  <ele>343.1</ele>
  <time>2026-09-01T19:49:42Z</time>
  <course>11.22</course>
  <speed>0.022360679774997897</speed>
  <fix>3d</fix>
</trkpt>
<trkpt lat="-27.274439" lon="151.290064">
  <ele>343.1</ele>
  <time>2026-09-01T19:49:42Z</time>
  <course>270.0</course>
  <speed>0.0</speed>
  <fix>3d</fix>
</trkpt>
<trkpt lat="-27.2744392" lon="151.2900641">
  <ele>343.1</ele>
  <time>2026-09-01T19:49:42Z</time>
  <course>11.22</course>
  <speed>0.022360679774997897</speed>
  <fix>3d</fix>
</trkpt>
<trkpt lat="-27.274439" lon="151.290064">
  <ele>343.1</ele>
  <time>2026-09-01T19:49:42Z</time>
  <course>270.0</course>
  <speed>0.0</speed>
  <fix>3d</fix>
</trkpt>
<trkpt lat="-27.2744392" lon="151.2900641">
  <ele>343.1</ele>
  <time>2026-09-01T19:49:42Z</time>
  <course>11.22</course>
  <speed>0.022360679774997897</speed>
  <fix>3d</fix>
</trkpt>
<trkpt lat="-27.274439" lon="151.290064">
  <ele>343.1</ele>
  <time>2026-09-01T19:49:42Z</time>
  <course>270.0</course>
  <speed>0.0</speed>
  <fix>3d</fix>
</trkpt>
<trkpt lat="-27.2744392" lon="151.2900641">
  <ele>343.1</ele>
  <time>2026-09-01T19:49:42Z</time>
  <course>11.22</course>
  <speed>0.022360679774997897</speed>
  <fix>3d</fix>
</trkpt>
<trkpt lat="-27.274439" lon="151.290064">
  <ele>343.1</ele>
  <time>2026-09-01T19:49:42Z</time>
  <course>270.0</course>
  <speed>0.0</speed>
  <fix>3d</fix>
</trkpt>
<trkpt lat="-27.2744392" lon="151.2900641">
  <ele>343.11</ele>
  <time>2026-09-01T19:49:42Z</time>
  <course>11.22</course>
  <speed>0.022360679774997897</speed>
  <fix>3d</fix>
</trkpt>
<trkpt lat="-27.274439" lon="151.290064">
  <ele>343.1</ele>
  <time>2026-09-01T19:49:42Z</time>
  <course>270.0</course>
  <speed>0.0</speed>
  <fix>3d</fix>
</trkpt>
<trkpt lat="-27.2744392" lon="151.2900641">
  <ele>343.11</ele>
  <time>2026-09-01T19:49:42Z</time>
  <course>11.22</course>
  <speed>0.022360679774997897</speed>
  <fix>3d</fix>
</trkpt>
<trkpt lat="-27.274439" lon="151.290064">
  <ele>343.1</ele>
  <time>2026-09-01T19:49:42Z</time>
  <course>270.0</course>
  <speed>0.0</speed>
  <fix>3d</fix>
</trkpt>
<trkpt lat="-27.2744392" lon="151.2900641">
  <ele>343.11</ele>
  <time>2026-09-01T19:49:42Z</time>
  <course>11.23</course>
  <speed>0.022360679774997897</speed>
  <fix>3d</fix>
</trkpt>
<trkpt lat="-27.274439" lon="151.290064">
  <ele>343.1</ele>
  <time>2026-09-01T19:49:42Z</time>
  <course>270.0</course>
  <speed>0.0</speed>
  <fix>3d</fix>
</trkpt>
<trkpt lat="-27.2744392" lon="151.2900641">
  <ele>343.11</ele>
  <time>2026-09-01T19:49:42Z</time>
  <course>11.23</course>
  <speed>0.022360679774997897</speed>
  <fix>3d</fix>
</trkpt>
<trkpt lat="-27.274439" lon="151.290064">
  <ele>343.1</ele>
  <time>2026-09-01T19:49:42Z</time>
  <course>270.0</course>
  <speed>0.0</speed>
  <fix>3d</fix>
</trkpt>
<trkpt lat="-27.2744392" lon="151.2900641">
  <ele>343.11</ele>
  <time>2026-09-01T19:49:42Z</time>
  <course>11.23</course>
  <speed>0.022360679774997897</speed>
  <fix>3d</fix>
</trkpt>
<trkpt lat="-27.274439" lon="151.290064">
  <ele>343.1</ele>
  <time>2026-09-01T19:49:42Z</time>
  <course>270.0</course>
  <speed>0.0</speed>
  <fix>3d</fix>
</trkpt>
<trkpt lat="-27.2744392" lon="151.2900641">
  <ele>343.11</ele>
  <time>2026-09-01T19:49:42Z</time>
  <course>11.23</course>
  <speed>0.022360679774997897</speed>
  <fix>3d</fix>
</trkpt>
<trkpt lat="-27.274439" lon="151.290064">
  <ele>343.1</ele>
  <time>2026-09-01T19:49:42Z</time>
  <course>270.0</course>
  <speed>0.0</speed>
  <fix>3d</fix>
</trkpt>
<trkpt lat="-27.2744392" lon="151.2900641">
  <ele>343.11</ele>
  <time>2026-09-01T19:49:42Z</time>
  <course>11.23</course>
  <speed>0.022360679774997897</speed>
  <fix>3d</fix>
</trkpt>
<trkpt lat="-27.274439" lon="151.290064">
  <ele>343.1</ele>
  <time>2026-09-01T19:49:42Z</time>
  <course>270.0</course>
  <speed>0.0</speed>
  <fix>3d</fix>
</trkpt>
<trkpt lat="-27.2744392" lon="151.2900641">
  <ele>343.1</ele>
  <time>2026-09-01T19:49:42Z</time>
  <course>11.23</course>
  <speed>0.022360679774997897</speed>
  <fix>3d</fix>
</trkpt>
<trkpt lat="-27.274439" lon="151.290064">
  <ele>343.1</ele>
  <time>2026-09-01T19:49:42Z</time>
  <course>270.0</course>
  <speed>0.0</speed>
  <fix>3d</fix>
</trkpt>
<trkpt lat="-27.2744392" lon="151.2900641">
  <ele>343.1</ele>
  <time>2026-09-01T19:49:42Z</time>
  <course>11.23</course>
  <speed>0.022360679774997897</speed>
  <fix>3d</fix>
</trkpt>
<trkpt lat="-27.274439" lon="151.290064">
  <ele>343.1</ele>
  <time>2026-09-01T19:49:42Z</time>
  <course>270.0</course>
  <speed>0.0</speed>
  <fix>3d</fix>
</trkpt>
<trkpt lat="-27.2744392" lon="151.2900641">
  <ele>343.1</ele>
  <time>2026-09-01T19:49:42Z</time>
  <course>11.23</course>
  <speed>0.022360679774997897</speed>
  <fix>3d</fix>
</trkpt>
<trkpt lat="-27.274439" lon="151.290064">
  <ele>343.1</ele>
  <time>2026-09-01T19:49:42Z</time>
  <course>270.0</course>
  <speed>0.0</speed>
  <fix>3d</fix>
</trkpt>
<trkpt lat="-27.2744392" lon="151.2900641">
  <ele>343.1</ele>
  <time>2026-09-01T19:49:42Z</time>
  <course>11.23</course>
  <speed>0.022360679774997897</speed>
  <fix>3d</fix>
</trkpt>
<trkpt lat="-27.274439" lon="151.290064">
  <ele>343.1</ele>
  <time>2026-09-01T19:49:42Z</time>
  <course>270.0</course>
  <speed>0.0</speed>
  <fix>3d</fix>
</trkpt>
<trkpt lat="-27.2744392" lon="151.2900641">
  <ele>343.09</ele>
  <time>2026-09-01T19:49:42Z</time>
  <course>11.23</course>
  <speed>0.022360679774997897</speed>
  <fix>3d</fix>
</trkpt>
<trkpt lat="-27.274439" lon="151.290064">
  <ele>343.1</ele>
  <time>2026-09-01T19:49:42Z</time>
  <course>270.0</course>
  <speed>0.0</speed>
  <fix>3d</fix>
</trkpt>
<trkpt lat="-27.2744392" lon="151.2900641">
  <ele>343.09</ele>
  <time>2026-09-01T19:49:42Z</time>
  <course>11.24</course>
  <speed>0.022360679774997897</speed>
  <fix>3d</fix>
</trkpt>
<trkpt lat="-27.274439" lon="151.290064">
  <ele>343.1</ele>
  <time>2026-09-01T19:49:42Z</time>
  <course>270.0</course>
  <speed>0.0</speed>
  <fix>3d</fix>
</trkpt>
<trkpt lat="-27.2744392" lon="151.2900641">
  <ele>343.09</ele>
  <time>2026-09-01T19:49:42Z</time>
  <course>11.24</course>
  <speed>0.022360679774997897</speed>
  <fix>3d</fix>
</trkpt>
<trkpt lat="-27.274439" lon="151.290064">
  <ele>343.1</ele>
  <time>2026-09-01T19:49:42Z</time>
  <course>270.0</course>
  <speed>0.0</speed>
  <fix>3d</fix>
</trkpt>
<trkpt lat="-27.2744392" lon="151.2900641">
  <ele>343.09</ele>
  <time>2026-09-01T19:49:42Z</time>
  <course>11.24</course>
  <speed>0.022360679774997897</speed>
  <fix>3d</fix>
</trkpt>
<trkpt lat="-27.274439" lon="151.290064">
  <ele>343.1</ele>
  <time>2026-09-01T19:49:42Z</time>
  <course>270.0</course>
  <speed>0.0</speed>
  <fix>3d</fix>
</trkpt>
<trkpt lat="-27.2744392" lon="151.2900641">
  <ele>343.09</ele>
  <time>2026-09-01T19:49:42Z</time>
  <course>11.24</course>
  <speed>0.022360679774997897</speed>
  <fix>3d</fix>
</trkpt>
<trkpt lat="-27.274439" lon="151.290064">
  <ele>343.1</ele>
  <time>2026-09-01T19:49:42Z</time>
  <course>270.0</course>
  <speed>0.0</speed>
  <fix>3d</fix>
</trkpt>
<trkpt lat="-27.2744392" lon="151.2900641">
  <ele>343.08</ele>
  <time>2026-09-01T19:49:42Z</time>
  <course>11.24</course>
  <speed>0.022360679774997897</speed>
  <fix>3d</fix>
</trkpt>
<trkpt lat="-27.274439" lon="151.290064">
  <ele>343.1</ele>
  <time>2026-09-01T19:49:42Z</time>
  <course>270.0</course>
  <speed>0.0</speed>
  <fix>3d</fix>
</trkpt>
<trkpt lat="-27.2744392" lon="151.2900641">
  <ele>343.08</ele>
  <time>2026-09-01T19:49:42Z</time>
  <course>11.24</course>
  <speed>0.022360679774997897</speed>
  <fix>3d</fix>
</trkpt>
<trkpt lat="-27.274439" lon="151.290064">
  <ele>343.1</ele>
  <time>2026-09-01T19:49:42Z</time>
  <course>270.0</course>
  <speed>0.0</speed>
  <fix>3d</fix>
</trkpt>
<trkpt lat="-27.2744392" lon="151.2900641">
  <ele>343.08</ele>
  <time>2026-09-01T19:49:42Z</time>
  <course>11.24</course>
  <speed>0.022360679774997897</speed>
  <fix>3d</fix>
</trkpt>
<trkpt lat="-27.274439" lon="151.290064">
  <ele>343.1</ele>
  <time>2026-09-01T19:49:42Z</time>
  <course>270.0</course>
  <speed>0.0</speed>
  <fix>3d</fix>
</trkpt>
<trkpt lat="-27.2744392" lon="151.2900641">
  <ele>343.08</ele>
  <time>2026-09-01T19:49:42Z</time>
  <course>11.24</course>
  <speed>0.022360679774997897</speed>
  <fix>3d</fix>
</trkpt>
<trkpt lat="-27.274439" lon="151.290064">
  <ele>343.1</ele>
  <time>2026-09-01T19:49:42Z</time>
  <course>270.0</course>
  <speed>0.0</speed>
  <fix>3d</fix>
</trkpt>
<trkpt lat="-27.2744392" lon="151.2900641">
  <ele>343.08</ele>
  <time>2026-09-01T19:49:42Z</time>
  <course>11.24</course>
  <speed>0.022360679774997897</speed>
  <fix>3d</fix>
</trkpt>
<trkpt lat="-27.274439" lon="151.290064">
  <ele>343.1</ele>
  <time>2026-09-01T19:49:42Z</time>
  <course>270.0</course>
  <speed>0.0</speed>
  <fix>3d</fix>
</trkpt>
<trkpt lat="-27.2744392" lon="151.2900641">
  <ele>343.08</ele>
  <time>2026-09-01T19:49:42Z</time>
  <course>11.25</course>
  <speed>0.022360679774997897</speed>
  <fix>3d</fix>
</trkpt>
<trkpt lat="-27.274439" lon="151.290064">
  <ele>343.1</ele>
  <time>2026-09-01T19:49:42Z</time>
  <course>270.0</course>
  <speed>0.0</speed>
  <fix>3d</fix>
</trkpt>
<trkpt lat="-27.2744392" lon="151.2900641">
  <ele>343.08</ele>
  <time>2026-09-01T19:49:42Z</time>
  <course>11.25</course>
  <speed>0.022360679774997897</speed>
  <fix>3d</fix>
</trkpt>
<trkpt lat="-27.274439" lon="151.290064">
  <ele>343.1</ele>
  <time>2026-09-01T19:49:42Z</time>
  <course>270.0</course>
  <speed>0.0</speed>
  <fix>3d</fix>
</trkpt>
<trkpt lat="-27.2744392" lon="151.2900641">
  <ele>343.08</ele>
  <time>2026-09-01T19:49:42Z</time>
  <course>11.25</course>
  <speed>0.022360679774997897</speed>
  <fix>3d</fix>
</trkpt>
<trkpt lat="-27.274439" lon="151.290064">
  <ele>343.1</ele>
  <time>2026-09-01T19:49:42Z</time>
  <course>270.0</course>
  <speed>0.0</speed>
  <fix>3d</fix>
</trkpt>
<trkpt lat="-27.2744392" lon="151.2900641">
  <ele>343.07</ele>
  <time>2026-09-01T19:49:42Z</time>
  <course>11.25</course>
  <speed>0.022360679774997897</speed>
  <fix>3d</fix>
</trkpt>
<trkpt lat="-27.274439" lon="151.290064">
  <ele>343.1</ele>
  <time>2026-09-01T19:49:42Z</time>
  <course>270.0</course>
  <speed>0.0</speed>
  <fix>3d</fix>
</trkpt>
<trkpt lat="-27.2744392" lon="151.2900641">
  <ele>343.07</ele>
  <time>2026-09-01T19:49:42Z</time>
  <course>11.25</course>
  <speed>0.022360679774997897</speed>
  <fix>3d</fix>
</trkpt>
<trkpt lat="-27.274439" lon="151.290064">
  <ele>343.1</ele>
  <time>2026-09-01T19:49:42Z</time>
  <course>270.0</course>
  <speed>0.0</speed>
  <fix>3d</fix>
</trkpt>
<trkpt lat="-27.2744392" lon="151.2900641">
  <ele>343.08</ele>
  <time>2026-09-01T19:49:42Z</time>
  <course>11.25</course>
  <speed>0.022360679774997897</speed>
  <fix>3d</fix>
</trkpt>
<trkpt lat="-27.274439" lon="151.290064">
  <ele>343.1</ele>
  <time>2026-09-01T19:49:42Z</time>
  <course>270.0</course>
  <speed>0.0</speed>
  <fix>3d</fix>
</trkpt>
<trkpt lat="-27.2744392" lon="151.2900641">
  <ele>343.07</ele>
  <time>2026-09-01T19:49:42Z</time>
  <course>11.25</course>
  <speed>0.022360679774997897</speed>
  <fix>3d</fix>
</trkpt>
<trkpt lat="-27.274439" lon="151.290064">
  <ele>343.1</ele>
  <time>2026-09-01T19:49:42Z</time>
  <course>270.0</course>
  <speed>0.0</speed>
  <fix>3d</fix>
</trkpt>
<trkpt lat="-27.2744392" lon="151.2900641">
  <ele>343.07</ele>
  <time>2026-09-01T19:49:42Z</time>
  <course>11.25</course>
  <speed>0.022360679774997897</speed>
  <fix>3d</fix>
</trkpt>
<trkpt lat="-27.274439" lon="151.290064">
  <ele>343.1</ele>
  <time>2026-09-01T19:49:42Z</time>
  <course>270.0</course>
  <speed>0.0</speed>
  <fix>3d</fix>
</trkpt>
<trkpt lat="-27.2744392" lon="151.2900641">
  <ele>343.07</ele>
  <time>2026-09-01T19:49:42Z</time>
  <course>11.25</course>
  <speed>0.022360679774997897</speed>
  <fix>3d</fix>
</trkpt>
<trkpt lat="-27.274439" lon="151.290064">
  <ele>343.1</ele>
  <time>2026-09-01T19:49:42Z</time>
  <course>270.0</course>
  <speed>0.0</speed>
  <fix>3d</fix>
</trkpt>
<trkpt lat="-27.2744392" lon="151.2900641">
  <ele>343.07</ele>
  <time>2026-09-01T19:49:42Z</time>
  <course>11.25</course>
  <speed>0.022360679774997897</speed>
  <fix>3d</fix>
</trkpt>
<trkpt lat="-27.274439" lon="151.290064">
  <ele>343.1</ele>
  <time>2026-09-01T19:49:42Z</time>
  <course>270.0</course>
  <speed>0.0</speed>
  <fix>3d</fix>
</trkpt>
<trkpt lat="-27.2744392" lon="151.2900641">
  <ele>343.07</ele>
  <time>2026-09-01T19:49:42Z</time>
  <course>11.26</course>
  <speed>0.022360679774997897</speed>
  <fix>3d</fix>
</trkpt>
<trkpt lat="-27.274439" lon="151.290064">
  <ele>343.1</ele>
  <time>2026-09-01T19:49:42Z</time>
  <course>270.0</course>
  <speed>0.0</speed>
  <fix>3d</fix>
</trkpt>
<trkpt lat="-27.2744392" lon="151.2900641">
  <ele>343.07</ele>
  <time>2026-09-01T19:49:42Z</time>
  <course>11.26</course>
  <speed>0.022360679774997897</speed>
  <fix>3d</fix>
</trkpt>
<trkpt lat="-27.274439" lon="151.290064">
  <ele>343.1</ele>
  <time>2026-09-01T19:49:42Z</time>
  <course>270.0</course>
  <speed>0.0</speed>
  <fix>3d</fix>
</trkpt>
<trkpt lat="-27.2744392" lon="151.2900641">
  <ele>343.07</ele>
  <time>2026-09-01T19:49:42Z</time>
  <course>11.26</course>
  <speed>0.022360679774997897</speed>
  <fix>3d</fix>
</trkpt>
<trkpt lat="-27.274439" lon="151.290064">
  <ele>343.1</ele>
  <time>2026-09-01T19:49:42Z</time>
  <course>270.0</course>
  <speed>0.0</speed>
  <fix>3d</fix>
</trkpt>
<trkpt lat="-27.2744392" lon="151.2900641">
  <ele>343.07</ele>
  <time>2026-09-01T19:49:42Z</time>
  <course>11.26</course>
  <speed>0.022360679774997897</speed>
  <fix>3d</fix>
</trkpt>
<trkpt lat="-27.274439" lon="151.290064">
  <ele>343.1</ele>
  <time>2026-09-01T19:49:42Z</time>
  <course>270.0</course>
  <speed>0.0</speed>
  <fix>3d</fix>
</trkpt>
<trkpt lat="-27.2744392" lon="151.2900641">
  <ele>343.07</ele>
  <time>2026-09-01T19:49:42Z</time>
  <course>11.26</course>
  <speed>0.022360679774997897</speed>
  <fix>3d</fix>
</trkpt>
<trkpt lat="-27.274439" lon="151.290064">
  <ele>343.1</ele>
  <time>2026-09-01T19:49:42Z</time>
  <course>270.0</course>
  <speed>0.0</speed>
  <fix>3d</fix>
</trkpt>
<trkpt lat="-27.2744392" lon="151.2900641">
  <ele>343.07</ele>
  <time>2026-09-01T19:49:42Z</time>
  <course>11.26</course>
  <speed>0.022360679774997897</speed>
  <fix>3d</fix>
</trkpt>
<trkpt lat="-27.274439" lon="151.290064">
  <ele>343.1</ele>
  <time>2026-09-01T19:49:42Z</time>
  <course>270.0</course>
  <speed>0.0</speed>
  <fix>3d</fix>
</trkpt>
<trkpt lat="-27.2744392" lon="151.2900641">
  <ele>343.07</ele>
  <time>2026-09-01T19:49:42Z</time>
  <course>11.26</course>
  <speed>0.022360679774997897</speed>
  <fix>3d</fix>
</trkpt>
<trkpt lat="-27.274439" lon="151.290064">
  <ele>343.1</ele>
  <time>2026-09-01T19:49:42Z</time>
  <course>270.0</course>
  <speed>0.0</speed>
  <fix>3d</fix>
</trkpt>
<trkpt lat="-27.2744392" lon="151.2900641">
  <ele>343.07</ele>
  <time>2026-09-01T19:49:42Z</time>
  <course>11.26</course>
  <speed>0.022360679774997897</speed>
  <fix>3d</fix>
</trkpt>
<trkpt lat="-27.274439" lon="151.290064">
  <ele>343.1</ele>
  <time>2026-09-01T19:49:42Z</time>
  <course>270.0</course>
  <speed>0.0</speed>
  <fix>3d</fix>
</trkpt>
<trkpt lat="-27.2744392" lon="151.2900641">
  <ele>343.07</ele>
  <time>2026-09-01T19:49:42Z</time>
  <course>11.26</course>
  <speed>0.022360679774997897</speed>
  <fix>3d</fix>
</trkpt>
<trkpt lat="-27.274439" lon="151.290064">
  <ele>343.1</ele>
  <time>2026-09-01T19:49:42Z</time>
  <course>270.0</course>
  <speed>0.0</speed>
  <fix>3d</fix>
</trkpt>
<trkpt lat="-27.2744392" lon="151.2900641">
  <ele>343.06</ele>
  <time>2026-09-01T19:49:42Z</time>
  <course>11.27</course>
  <speed>0.022360679774997897</speed>
  <fix>3d</fix>
</trkpt>
<trkpt lat="-27.274439" lon="151.290064">
  <ele>343.1</ele>
  <time>2026-09-01T19:49:42Z</time>
  <course>270.0</course>
  <speed>0.0</speed>
  <fix>3d</fix>
</trkpt>
<trkpt lat="-27.2744392" lon="151.2900641">
  <ele>343.06</ele>
  <time>2026-09-01T19:49:42Z</time>
  <course>11.27</course>
  <speed>0.022360679774997897</speed>
  <fix>3d</fix>
</trkpt>
<trkpt lat="-27.274439" lon="151.290064">
  <ele>343.1</ele>
  <time>2026-09-01T19:49:42Z</time>
  <course>270.0</course>
  <speed>0.0</speed>
  <fix>3d</fix>
</trkpt>
<trkpt lat="-27.2744392" lon="151.2900641">
  <ele>343.09</ele>
  <time>2026-09-01T19:49:42Z</time>
  <course>11.27</course>
  <speed>0.022360679774997897</speed>
  <fix>3d</fix>
</trkpt>
<trkpt lat="-27.274439" lon="151.290064">
  <ele>343.1</ele>
  <time>2026-09-01T19:49:42Z</time>
  <course>270.0</course>
  <speed>0.0</speed>
  <fix>3d</fix>
</trkpt>
<trkpt lat="-27.2744392" lon="151.2900641">
  <ele>343.09</ele>
  <time>2026-09-01T19:49:42Z</time>
  <course>11.27</course>
  <speed>0.022360679774997897</speed>
  <fix>3d</fix>
</trkpt>
<trkpt lat="-27.274439" lon="151.290064">
  <ele>343.1</ele>
  <time>2026-09-01T19:49:42Z</time>
  <course>270.0</course>
  <speed>0.0</speed>
  <fix>3d</fix>
</trkpt>
<trkpt lat="-27.2744392" lon="151.2900641">
  <ele>343.09</ele>
  <time>2026-09-01T19:49:42Z</time>
  <course>11.27</course>
  <speed>0.022360679774997897</speed>
  <fix>3d</fix>
</trkpt>
<trkpt lat="-27.274439" lon="151.290064">
  <ele>343.1</ele>
  <time>2026-09-01T19:49:42Z</time>
  <course>270.0</course>
  <speed>0.0</speed>
  <fix>3d</fix>
</trkpt>
<trkpt lat="-27.2744392" lon="151.2900641">
  <ele>343.09</ele>
  <time>2026-09-01T19:49:42Z</time>
  <course>11.27</course>
  <speed>0.022360679774997897</speed>
  <fix>3d</fix>
</trkpt>
<trkpt lat="-27.274439" lon="151.290064">
  <ele>343.1</ele>
  <time>2026-09-01T19:49:42Z</time>
  <course>270.0</course>
  <speed>0.0</speed>
  <fix>3d</fix>
</trkpt>
<trkpt lat="-27.2744392" lon="151.2900641">
  <ele>343.09</ele>
  <time>2026-09-01T19:49:42Z</time>
  <course>11.27</course>
  <speed>0.022360679774997897</speed>
  <fix>3d</fix>
</trkpt>
<trkpt lat="-27.274439" lon="151.290064">
  <ele>343.1</ele>
  <time>2026-09-01T19:49:42Z</time>
  <course>270.0</course>
  <speed>0.0</speed>
  <fix>3d</fix>
</trkpt>
<trkpt lat="-27.2744392" lon="151.2900641">
  <ele>343.09</ele>
  <time>2026-09-01T19:49:42Z</time>
  <course>11.27</course>
  <speed>0.022360679774997897</speed>
  <fix>3d</fix>
</trkpt>
<trkpt lat="-27.274439" lon="151.290064">
  <ele>343.1</ele>
  <time>2026-09-01T19:49:42Z</time>
  <course>270.0</course>
  <speed>0.0</speed>
  <fix>3d</fix>
</trkpt>
<trkpt lat="-27.2744392" lon="151.2900641">
  <ele>343.09</ele>
  <time>2026-09-01T19:49:42Z</time>
  <course>11.27</course>
  <speed>0.022360679774997897</speed>
  <fix>3d</fix>
</trkpt>
<trkpt lat="-27.274439" lon="151.290064">
  <ele>343.1</ele>
  <time>2026-09-01T19:49:42Z</time>
  <course>270.0</course>
  <speed>0.0</speed>
  <fix>3d</fix>
</trkpt>
<trkpt lat="-27.2744392" lon="151.2900641">
  <ele>343.09</ele>
  <time>2026-09-01T19:49:42Z</time>
  <course>11.27</course>
  <speed>0.022360679774997897</speed>
  <fix>3d</fix>
</trkpt>
<trkpt lat="-27.274439" lon="151.290064">
  <ele>343.1</ele>
  <time>2026-09-01T19:49:42Z</time>
  <course>270.0</course>
  <speed>0.0</speed>
  <fix>3d</fix>
</trkpt>
<trkpt lat="-27.2744392" lon="151.2900641">
  <ele>343.08</ele>
  <time>2026-09-01T19:49:42Z</time>
  <course>11.28</course>
  <speed>0.022360679774997897</speed>
  <fix>3d</fix>
</trkpt>
<trkpt lat="-27.274439" lon="151.290064">
  <ele>343.1</ele>
  <time>2026-09-01T19:49:42Z</time>
  <course>270.0</course>
  <speed>0.0</speed>
  <fix>3d</fix>
</trkpt>
<trkpt lat="-27.2744392" lon="151.2900641">
  <ele>343.07</ele>
  <time>2026-09-01T19:49:42Z</time>
  <course>11.28</course>
  <speed>0.022360679774997897</speed>
  <fix>3d</fix>
</trkpt>
<trkpt lat="-27.274439" lon="151.290064">
  <ele>343.1</ele>
  <time>2026-09-01T19:49:42Z</time>
  <course>270.0</course>
  <speed>0.0</speed>
  <fix>3d</fix>
</trkpt>
<trkpt lat="-27.2744392" lon="151.2900641">
  <ele>343.07</ele>
  <time>2026-09-01T19:49:42Z</time>
  <course>11.28</course>
  <speed>0.022360679774997897</speed>
  <fix>3d</fix>
</trkpt>
<trkpt lat="-27.274439" lon="151.290064">
  <ele>343.1</ele>
  <time>2026-09-01T19:49:42Z</time>
  <course>270.0</course>
  <speed>0.0</speed>
  <fix>3d</fix>
</trkpt>
<trkpt lat="-27.2744392" lon="151.2900641">
  <ele>343.06</ele>
  <time>2026-09-01T19:49:42Z</time>
  <course>11.28</course>
  <speed>0.022360679774997897</speed>
  <fix>3d</fix>
</trkpt>
<trkpt lat="-27.274439" lon="151.290064">
  <ele>343.1</ele>
  <time>2026-09-01T19:49:42Z</time>
  <course>270.0</course>
  <speed>0.0</speed>
  <fix>3d</fix>
</trkpt>
<trkpt lat="-27.2744392" lon="151.2900641">
  <ele>343.05</ele>
  <time>2026-09-01T19:49:42Z</time>
  <course>11.28</course>
  <speed>0.022360679774997897</speed>
  <fix>3d</fix>
</trkpt>
<trkpt lat="-27.274439" lon="151.290064">
  <ele>343.1</ele>
  <time>2026-09-01T19:49:42Z</time>
  <course>270.0</course>
  <speed>0.0</speed>
  <fix>3d</fix>
</trkpt>
<trkpt lat="-27.2744392" lon="151.2900641">
  <ele>343.04</ele>
  <time>2026-09-01T19:49:42Z</time>
  <course>11.28</course>
  <speed>0.022360679774997897</speed>
  <fix>3d</fix>
</trkpt>
<trkpt lat="-27.274439" lon="151.290064">
  <ele>343.1</ele>
  <time>2026-09-01T19:49:42Z</time>
  <course>270.0</course>
  <speed>0.0</speed>
  <fix>3d</fix>
</trkpt>
<trkpt lat="-27.2744392" lon="151.2900641">
  <ele>343.04</ele>
  <time>2026-09-01T19:49:42Z</time>
  <course>11.28</course>
  <speed>0.01414213562373095</speed>
  <fix>3d</fix>
</trkpt>
<trkpt lat="-27.274439" lon="151.290064">
  <ele>343.1</ele>
  <time>2026-09-01T19:49:42Z</time>
  <course>270.0</course>
  <speed>0.0</speed>
  <fix>3d</fix>
</trkpt>
<trkpt lat="-27.2744392" lon="151.2900641">
  <ele>343.03</ele>
  <time>2026-09-01T19:49:42Z</time>
  <course>11.28</course>
  <speed>0.01414213562373095</speed>
  <fix>3d</fix>
</trkpt>
<trkpt lat="-27.274439" lon="151.290064">
  <ele>343.1</ele>
  <time>2026-09-01T19:49:42Z</time>
  <course>270.0</course>
  <speed>0.0</speed>
  <fix>3d</fix>
</trkpt>
<trkpt lat="-27.2744392" lon="151.2900641">
  <ele>343.03</ele>
  <time>2026-09-01T19:49:42Z</time>
  <course>11.28</course>
  <speed>0.01</speed>
  <fix>3d</fix>
</trkpt>
<trkpt lat="-27.274439" lon="151.290064">
  <ele>343.1</ele>
  <time>2026-09-01T19:49:42Z</time>
  <course>270.0</course>
  <speed>0.0</speed>
  <fix>3d</fix>
</trkpt>
<trkpt lat="-27.2744392" lon="151.2900641">
  <ele>343.02</ele>
  <time>2026-09-01T19:49:42Z</time>
  <course>11.28</course>
  <speed>0.01</speed>
  <fix>3d</fix>
</trkpt>
<trkpt lat="-27.274439" lon="151.290064">
  <ele>343.1</ele>
  <time>2026-09-01T19:49:42Z</time>
  <course>270.0</course>
  <speed>0.0</speed>
  <fix>3d</fix>
</trkpt>
<trkpt lat="-27.2744392" lon="151.2900641">
  <ele>343.02</ele>
  <time>2026-09-01T19:49:42Z</time>
  <course>11.29</course>
  <speed>0.01</speed>
  <fix>3d</fix>
</trkpt>
<trkpt lat="-27.274439" lon="151.290064">
  <ele>343.1</ele>
  <time>2026-09-01T19:49:42Z</time>
  <course>270.0</course>
  <speed>0.0</speed>
  <fix>3d</fix>
</trkpt>
<trkpt lat="-27.2744392" lon="151.2900641">
  <ele>343.01</ele>
  <time>2026-09-01T19:49:42Z</time>
  <course>11.29</course>
  <speed>0.01</speed>
  <fix>3d</fix>
</trkpt>
<trkpt lat="-27.274439" lon="151.290064">
  <ele>343.1</ele>
  <time>2026-09-01T19:49:42Z</time>
  <course>270.0</course>
  <speed>0.0</speed>
  <fix>3d</fix>
</trkpt>
<trkpt lat="-27.2744392" lon="151.2900641">
  <ele>343.01</ele>
  <time>2026-09-01T19:49:42Z</time>
  <course>11.29</course>
  <speed>0.0</speed>
  <fix>3d</fix>
</trkpt>
<trkpt lat="-27.274439" lon="151.290064">
  <ele>343.1</ele>
  <time>2026-09-01T19:49:42Z</time>
  <course>270.0</course>
  <speed>0.0</speed>
  <fix>3d</fix>
</trkpt>
<trkpt lat="-27.2744392" lon="151.2900641">
  <ele>343.0</ele>
  <time>2026-09-01T19:49:42Z</time>
  <course>11.29</course>
  <speed>0.0</speed>
  <fix>3d</fix>
</trkpt>
<trkpt lat="-27.274439" lon="151.290064">
  <ele>343.1</ele>
  <time>2026-09-01T19:49:42Z</time>
  <course>270.0</course>
  <speed>0.0</speed>
  <fix>3d</fix>
</trkpt>
<trkpt lat="-27.2744392" lon="151.2900641">
  <ele>343.0</ele>
  <time>2026-09-01T19:49:42Z</time>
  <course>11.29</course>
  <speed>0.0</speed>
  <fix>3d</fix>
</trkpt>
<trkpt lat="-27.274439" lon="151.290064">
  <ele>343.1</ele>
  <time>2026-09-01T19:49:42Z</time>
  <course>270.0</course>
  <speed>0.0</speed>
  <fix>3d</fix>
</trkpt>
<trkpt lat="-27.2744392" lon="151.2900641">
  <ele>343.0</ele>
  <time>2026-09-01T19:49:42Z</time>
  <course>11.29</course>
  <speed>0.0</speed>
  <fix>3d</fix>
</trkpt>
<trkpt lat="-27.274439" lon="151.290064">
  <ele>343.1</ele>
  <time>2026-09-01T19:49:42Z</time>
  <course>270.0</course>
  <speed>0.0</speed>
  <fix>3d</fix>
</trkpt>
<trkpt lat="-27.2744391" lon="151.2900641">
  <ele>342.99</ele>
  <time>2026-09-01T19:49:42Z</time>
  <course>11.29</course>
  <speed>0.0</speed>
  <fix>3d</fix>
</trkpt>
<trkpt lat="-27.274439" lon="151.290064">
  <ele>343.1</ele>
  <time>2026-09-01T19:49:42Z</time>
  <course>270.0</course>
  <speed>0.0</speed>
  <fix>3d</fix>
</trkpt>
<trkpt lat="-27.2744391" lon="151.2900641">
  <ele>343.09</ele>
  <time>2026-09-01T19:49:42Z</time>
  <course>11.29</course>
  <speed>0.0</speed>
  <fix>3d</fix>
</trkpt>
<trkpt lat="-27.274439" lon="151.290064">
  <ele>343.1</ele>
  <time>2026-09-01T19:49:42Z</time>
  <course>270.0</course>
  <speed>0.0</speed>
  <fix>3d</fix>
</trkpt>
<trkpt lat="-27.2744391" lon="151.2900641">
  <ele>343.09</ele>
  <time>2026-09-01T19:49:42Z</time>
  <course>11.29</course>
  <speed>0.0</speed>
  <fix>3d</fix>
</trkpt>
<trkpt lat="-27.274439" lon="151.290064">
  <ele>343.1</ele>
  <time>2026-09-01T19:49:42Z</time>
  <course>270.0</course>
  <speed>0.0</speed>
  <fix>3d</fix>
</trkpt>
<trkpt lat="-27.2744391" lon="151.2900641">
  <ele>343.09</ele>
  <time>2026-09-01T19:49:42Z</time>
  <course>11.29</course>
  <speed>0.0</speed>
  <fix>3d</fix>
</trkpt>
<trkpt lat="-27.274439" lon="151.290064">
  <ele>343.1</ele>
  <time>2026-09-01T19:49:42Z</time>
  <course>270.0</course>
  <speed>0.0</speed>
  <fix>3d</fix>
</trkpt>
<trkpt lat="-27.2744391" lon="151.2900641">
  <ele>343.09</ele>
  <time>2026-09-01T19:49:42Z</time>
  <course>11.3</course>
  <speed>0.0</speed>
  <fix>3d</fix>
</trkpt>
<trkpt lat="-27.274439" lon="151.290064">
  <ele>343.1</ele>
  <time>2026-09-01T19:49:42Z</time>
  <course>270.0</course>
  <speed>0.0</speed>
  <fix>3d</fix>
</trkpt>
<trkpt lat="-27.2744391" lon="151.2900641">
  <ele>343.09</ele>
  <time>2026-09-01T19:49:42Z</time>
  <course>11.3</course>
  <speed>0.0</speed>
  <fix>3d</fix>
</trkpt>
<trkpt lat="-27.274439" lon="151.290064">
  <ele>343.1</ele>
  <time>2026-09-01T19:49:42Z</time>
  <course>270.0</course>
  <speed>0.0</speed>
  <fix>3d</fix>
</trkpt>
<trkpt lat="-27.2744391" lon="151.2900641">
  <ele>343.08</ele>
  <time>2026-09-01T19:49:42Z</time>
  <course>11.3</course>
  <speed>0.0</speed>
  <fix>3d</fix>
</trkpt>
<trkpt lat="-27.274439" lon="151.290064">
  <ele>343.1</ele>
  <time>2026-09-01T19:49:42Z</time>
  <course>270.0</course>
  <speed>0.0</speed>
  <fix>3d</fix>
</trkpt>
<trkpt lat="-27.2744391" lon="151.2900641">
  <ele>343.08</ele>
  <time>2026-09-01T19:49:42Z</time>
  <course>11.3</course>
  <speed>0.0</speed>
  <fix>3d</fix>
</trkpt>
<trkpt lat="-27.274439" lon="151.290064">
  <ele>343.1</ele>
  <time>2026-09-01T19:49:42Z</time>
  <course>270.0</course>
  <speed>0.0</speed>
  <fix>3d</fix>
</trkpt>
<trkpt lat="-27.2744391" lon="151.2900641">
  <ele>343.08</ele>
  <time>2026-09-01T19:49:42Z</time>
  <course>11.3</course>
  <speed>0.0</speed>
  <fix>3d</fix>
</trkpt>
<trkpt lat="-27.274439" lon="151.290064">
  <ele>343.1</ele>
  <time>2026-09-01T19:49:42Z</time>
  <course>270.0</course>
  <speed>0.0</speed>
  <fix>3d</fix>
</trkpt>
<trkpt lat="-27.2744391" lon="151.2900641">
  <ele>343.08</ele>
  <time>2026-09-01T19:49:42Z</time>
  <course>11.3</course>
  <speed>0.0</speed>
  <fix>3d</fix>
</trkpt>
<trkpt lat="-27.274439" lon="151.290064">
  <ele>343.1</ele>
  <time>2026-09-01T19:49:42Z</time>
  <course>270.0</course>
  <speed>0.0</speed>
  <fix>3d</fix>
</trkpt>
<trkpt lat="-27.2744391" lon="151.2900641">
  <ele>343.07</ele>
  <time>2026-09-01T19:49:42Z</time>
  <course>11.3</course>
  <speed>0.0</speed>
  <fix>3d</fix>
</trkpt>
<trkpt lat="-27.274439" lon="151.290064">
  <ele>343.1</ele>
  <time>2026-09-01T19:49:42Z</time>
  <course>270.0</course>
  <speed>0.0</speed>
  <fix>3d</fix>
</trkpt>
<trkpt lat="-27.2744391" lon="151.2900641">
  <ele>343.07</ele>
  <time>2026-09-01T19:49:42Z</time>
  <course>11.3</course>
  <speed>0.0</speed>
  <fix>3d</fix>
</trkpt>
<trkpt lat="-27.274439" lon="151.290064">
  <ele>343.1</ele>
  <time>2026-09-01T19:49:42Z</time>
  <course>270.0</course>
  <speed>0.0</speed>
  <fix>3d</fix>
</trkpt>
<trkpt lat="-27.2744391" lon="151.2900641">
  <ele>343.07</ele>
  <time>2026-09-01T19:49:42Z</time>
  <course>11.3</course>
  <speed>0.0</speed>
  <fix>3d</fix>
</trkpt>
<trkpt lat="-27.274439" lon="151.290064">
  <ele>343.1</ele>
  <time>2026-09-01T19:49:42Z</time>
  <course>270.0</course>
  <speed>0.0</speed>
  <fix>3d</fix>
</trkpt>
<trkpt lat="-27.2744391" lon="151.2900641">
  <ele>343.06</ele>
  <time>2026-09-01T19:49:42Z</time>
  <course>11.3</course>
  <speed>0.01</speed>
  <fix>3d</fix>
</trkpt>
<trkpt lat="-27.274439" lon="151.290064">
  <ele>343.1</ele>
  <time>2026-09-01T19:49:42Z</time>
  <course>270.0</course>
  <speed>0.0</speed>
  <fix>3d</fix>
</trkpt>
<trkpt lat="-27.2744391" lon="151.2900641">
  <ele>343.06</ele>
  <time>2026-09-01T19:49:42Z</time>
  <course>11.3</course>
  <speed>0.01</speed>
  <fix>3d</fix>
</trkpt>
<trkpt lat="-27.274439" lon="151.290064">
  <ele>343.1</ele>
  <time>2026-09-01T19:49:42Z</time>
  <course>270.0</course>
  <speed>0.0</speed>
  <fix>3d</fix>
</trkpt>
<trkpt lat="-27.2744391" lon="151.2900641">
  <ele>343.06</ele>
  <time>2026-09-01T19:49:42Z</time>
  <course>11.31</course>
  <speed>0.01</speed>
  <fix>3d</fix>
</trkpt>
<trkpt lat="-27.274439" lon="151.290064">
  <ele>343.1</ele>
  <time>2026-09-01T19:49:42Z</time>
  <course>270.0</course>
  <speed>0.0</speed>
  <fix>3d</fix>
</trkpt>
<trkpt lat="-27.2744391" lon="151.2900641">
  <ele>343.06</ele>
  <time>2026-09-01T19:49:42Z</time>
  <course>11.31</course>
  <speed>0.01</speed>
  <fix>3d</fix>
</trkpt>
<trkpt lat="-27.274439" lon="151.290064">
  <ele>343.1</ele>
  <time>2026-09-01T19:49:42Z</time>
  <course>270.0</course>
  <speed>0.0</speed>
  <fix>3d</fix>
</trkpt>
<trkpt lat="-27.2744391" lon="151.2900641">
  <ele>343.06</ele>
  <time>2026-09-01T19:49:42Z</time>
  <course>11.31</course>
  <speed>0.01</speed>
  <fix>3d</fix>
</trkpt>
<trkpt lat="-27.274439" lon="151.290064">
  <ele>343.1</ele>
  <time>2026-09-01T19:49:42Z</time>
  <course>270.0</course>
  <speed>0.0</speed>
  <fix>3d</fix>
</trkpt>
<trkpt lat="-27.2744391" lon="151.2900641">
  <ele>343.06</ele>
  <time>2026-09-01T19:49:42Z</time>
  <course>11.31</course>
  <speed>0.01</speed>
  <fix>3d</fix>
</trkpt>
<trkpt lat="-27.274439" lon="151.290064">
  <ele>343.1</ele>
  <time>2026-09-01T19:49:42Z</time>
  <course>270.0</course>
  <speed>0.0</speed>
  <fix>3d</fix>
</trkpt>
<trkpt lat="-27.2744391" lon="151.2900641">
  <ele>343.06</ele>
  <time>2026-09-01T19:49:42Z</time>
  <course>11.31</course>
  <speed>0.01</speed>
  <fix>3d</fix>
</trkpt>
<trkpt lat="-27.274439" lon="151.290064">
  <ele>343.1</ele>
  <time>2026-09-01T19:49:42Z</time>
  <course>270.0</course>
  <speed>0.0</speed>
  <fix>3d</fix>
</trkpt>
<trkpt lat="-27.2744391" lon="151.2900641">
  <ele>343.06</ele>
  <time>2026-09-01T19:49:42Z</time>
  <course>11.31</course>
  <speed>0.01</speed>
  <fix>3d</fix>
</trkpt>
<trkpt lat="-27.274439" lon="151.290064">
  <ele>343.1</ele>
  <time>2026-09-01T19:49:42Z</time>
  <course>270.0</course>
  <speed>0.0</speed>
  <fix>3d</fix>
</trkpt>
<trkpt lat="-27.2744391" lon="151.2900641">
  <ele>343.06</ele>
  <time>2026-09-01T19:49:42Z</time>
  <course>11.31</course>
  <speed>0.01</speed>
  <fix>3d</fix>
</trkpt>
<trkpt lat="-27.274439" lon="151.290064">
  <ele>343.1</ele>
  <time>2026-09-01T19:49:42Z</time>
  <course>270.0</course>
  <speed>0.0</speed>
  <fix>3d</fix>
</trkpt>
<trkpt lat="-27.2744391" lon="151.2900641">
  <ele>343.06</ele>
  <time>2026-09-01T19:49:42Z</time>
  <course>11.31</course>
  <speed>0.01</speed>
  <fix>3d</fix>
</trkpt>
<trkpt lat="-27.274439" lon="151.290064">
  <ele>343.1</ele>
  <time>2026-09-01T19:49:42Z</time>
  <course>270.0</course>
  <speed>0.0</speed>
  <fix>3d</fix>
</trkpt>
<trkpt lat="-27.2744391" lon="151.2900641">
  <ele>343.06</ele>
  <time>2026-09-01T19:49:42Z</time>
  <course>11.31</course>
  <speed>0.01414213562373095</speed>
  <fix>3d</fix>
</trkpt>
<trkpt lat="-27.274439" lon="151.290064">
  <ele>343.1</ele>
  <time>2026-09-01T19:49:42Z</time>
  <course>270.0</course>
  <speed>0.0</speed>
  <fix>3d</fix>
</trkpt>
<trkpt lat="-27.2744391" lon="151.2900641">
  <ele>343.06</ele>
  <time>2026-09-01T19:49:42Z</time>
  <course>11.31</course>
  <speed>0.01414213562373095</speed>
  <fix>3d</fix>
</trkpt>
<trkpt lat="-27.274439" lon="151.290064">
  <ele>343.1</ele>
  <time>2026-09-01T19:49:42Z</time>
  <course>270.0</course>
  <speed>0.0</speed>
  <fix>3d</fix>
</trkpt>
<trkpt lat="-27.2744391" lon="151.2900641">
  <ele>343.06</ele>
  <time>2026-09-01T19:49:42Z</time>
  <course>11.31</course>
  <speed>0.01414213562373095</speed>
  <fix>3d</fix>
</trkpt>
<trkpt lat="-27.274439" lon="151.290064">
  <ele>343.1</ele>
  <time>2026-09-01T19:49:42Z</time>
  <course>270.0</course>
  <speed>0.0</speed>
  <fix>3d</fix>
</trkpt>
<trkpt lat="-27.2744391" lon="151.2900641">
  <ele>343.06</ele>
  <time>2026-09-01T19:49:42Z</time>
  <course>11.31</course>
  <speed>0.01414213562373095</speed>
  <fix>3d</fix>
</trkpt>
<trkpt lat="-27.274439" lon="151.290064">
  <ele>343.1</ele>
  <time>2026-09-01T19:49:42Z</time>
  <course>270.0</course>
  <speed>0.0</speed>
  <fix>3d</fix>
</trkpt>
<trkpt lat="-27.2744391" lon="151.2900641">
  <ele>343.06</ele>
  <time>2026-09-01T19:49:42Z</time>
  <course>11.31</course>
  <speed>0.01414213562373095</speed>
  <fix>3d</fix>
</trkpt>
<trkpt lat="-27.274439" lon="151.290064">
  <ele>343.1</ele>
  <time>2026-09-01T19:49:42Z</time>
  <course>270.0</course>
  <speed>0.0</speed>
  <fix>3d</fix>
</trkpt>
<trkpt lat="-27.2744391" lon="151.2900641">
  <ele>343.06</ele>
  <time>2026-09-01T19:49:42Z</time>
  <course>11.31</course>
  <speed>0.01414213562373095</speed>
  <fix>3d</fix>
</trkpt>
<trkpt lat="-27.274439" lon="151.290064">
  <ele>343.1</ele>
  <time>2026-09-01T19:49:42Z</time>
  <course>270.0</course>
  <speed>0.0</speed>
  <fix>3d</fix>
</trkpt>
<trkpt lat="-27.2744391" lon="151.2900641">
  <ele>343.06</ele>
  <time>2026-09-01T19:49:42Z</time>
  <course>11.32</course>
  <speed>0.01414213562373095</speed>
  <fix>3d</fix>
</trkpt>
<trkpt lat="-27.274439" lon="151.290064">
  <ele>343.1</ele>
  <time>2026-09-01T19:49:42Z</time>
  <course>270.0</course>
  <speed>0.0</speed>
  <fix>3d</fix>
</trkpt>
<trkpt lat="-27.2744391" lon="151.2900641">
  <ele>343.06</ele>
  <time>2026-09-01T19:49:42Z</time>
  <course>11.32</course>
  <speed>0.01414213562373095</speed>
  <fix>3d</fix>
</trkpt>
<trkpt lat="-27.274439" lon="151.290064">
  <ele>343.1</ele>
  <time>2026-09-01T19:49:42Z</time>
  <course>270.0</course>
  <speed>0.0</speed>
  <fix>3d</fix>
</trkpt>
<trkpt lat="-27.2744391" lon="151.2900641">
  <ele>343.06</ele>
  <time>2026-09-01T19:49:42Z</time>
  <course>11.32</course>
  <speed>0.022360679774997897</speed>
  <fix>3d</fix>
</trkpt>
<trkpt lat="-27.274439" lon="151.290064">
  <ele>343.1</ele>
  <time>2026-09-01T19:49:42Z</time>
  <course>270.0</course>
  <speed>0.0</speed>
  <fix>3d</fix>
</trkpt>
<trkpt lat="-27.2744391" lon="151.2900641">
  <ele>343.06</ele>
  <time>2026-09-01T19:49:42Z</time>
  <course>11.32</course>
  <speed>0.022360679774997897</speed>
  <fix>3d</fix>
</trkpt>
<trkpt lat="-27.274439" lon="151.290064">
  <ele>343.1</ele>
  <time>2026-09-01T19:49:42Z</time>
  <course>270.0</course>
  <speed>0.0</speed>
  <fix>3d</fix>
</trkpt>
<trkpt lat="-27.2744391" lon="151.2900641">
  <ele>343.06</ele>
  <time>2026-09-01T19:49:42Z</time>
  <course>11.32</course>
  <speed>0.022360679774997897</speed>
  <fix>3d</fix>
</trkpt>
<trkpt lat="-27.274439" lon="151.290064">
  <ele>343.1</ele>
  <time>2026-09-01T19:49:42Z</time>
  <course>270.0</course>
  <speed>0.0</speed>
  <fix>3d</fix>
</trkpt>
<trkpt lat="-27.2744391" lon="151.2900641">
  <ele>343.06</ele>
  <time>2026-09-01T19:49:42Z</time>
  <course>11.32</course>
  <speed>0.022360679774997897</speed>
  <fix>3d</fix>
</trkpt>
<trkpt lat="-27.274439" lon="151.290064">
  <ele>343.1</ele>
  <time>2026-09-01T19:49:42Z</time>
  <course>270.0</course>
  <speed>0.0</speed>
  <fix>3d</fix>
</trkpt>
<trkpt lat="-27.2744391" lon="151.2900641">
  <ele>343.06</ele>
  <time>2026-09-01T19:49:42Z</time>
  <course>11.32</course>
  <speed>0.022360679774997897</speed>
  <fix>3d</fix>
</trkpt>
<trkpt lat="-27.274439" lon="151.290064">
  <ele>343.1</ele>
  <time>2026-09-01T19:49:42Z</time>
  <course>270.0</course>
  <speed>0.0</speed>
  <fix>3d</fix>
</trkpt>
<trkpt lat="-27.2744391" lon="151.2900641">
  <ele>343.09</ele>
  <time>2026-09-01T19:49:42Z</time>
  <course>11.32</course>
  <speed>0.022360679774997897</speed>
  <fix>3d</fix>
</trkpt>
<trkpt lat="-27.274439" lon="151.290064">
  <ele>343.1</ele>
  <time>2026-09-01T19:49:42Z</time>
  <course>270.0</course>
  <speed>0.0</speed>
  <fix>3d</fix>
</trkpt>
<trkpt lat="-27.2744391" lon="151.2900641">
  <ele>343.09</ele>
  <time>2026-09-01T19:49:42Z</time>
  <course>11.32</course>
  <speed>0.022360679774997897</speed>
  <fix>3d</fix>
</trkpt>
<trkpt lat="-27.274439" lon="151.290064">
  <ele>343.1</ele>
  <time>2026-09-01T19:49:42Z</time>
  <course>270.0</course>
  <speed>0.0</speed>
  <fix>3d</fix>
</trkpt>
<trkpt lat="-27.2744391" lon="151.2900641">
  <ele>343.09</ele>
  <time>2026-09-01T19:49:42Z</time>
  <course>11.32</course>
  <speed>0.022360679774997897</speed>
  <fix>3d</fix>
</trkpt>
<trkpt lat="-27.274439" lon="151.290064">
  <ele>343.1</ele>
  <time>2026-09-01T19:49:42Z</time>
  <course>270.0</course>
  <speed>0.0</speed>
  <fix>3d</fix>
</trkpt>
<trkpt lat="-27.2744391" lon="151.2900641">
  <ele>343.1</ele>
  <time>2026-09-01T19:49:42Z</time>
  <course>11.32</course>
  <speed>0.022360679774997897</speed>
  <fix>3d</fix>
</trkpt>
<trkpt lat="-27.274439" lon="151.290064">
  <ele>343.1</ele>
  <time>2026-09-01T19:49:42Z</time>
  <course>270.0</course>
  <speed>0.0</speed>
  <fix>3d</fix>
</trkpt>
<trkpt lat="-27.2744391" lon="151.2900641">
  <ele>343.1</ele>
  <time>2026-09-01T19:49:42Z</time>
  <course>11.32</course>
  <speed>0.022360679774997897</speed>
  <fix>3d</fix>
</trkpt>
<trkpt lat="-27.274439" lon="151.290064">
  <ele>343.1</ele>
  <time>2026-09-01T19:49:42Z</time>
  <course>270.0</course>
  <speed>0.0</speed>
  <fix>3d</fix>
</trkpt>
<trkpt lat="-27.2744391" lon="151.2900641">
  <ele>343.09</ele>
  <time>2026-09-01T19:49:42Z</time>
  <course>11.32</course>
  <speed>0.022360679774997897</speed>
  <fix>3d</fix>
</trkpt>
<trkpt lat="-27.274439" lon="151.290064">
  <ele>343.1</ele>
  <time>2026-09-01T19:49:42Z</time>
  <course>270.0</course>
  <speed>0.0</speed>
  <fix>3d</fix>
</trkpt>
<trkpt lat="-27.2744391" lon="151.2900641">
  <ele>343.09</ele>
  <time>2026-09-01T19:49:42Z</time>
  <course>11.32</course>
  <speed>0.022360679774997897</speed>
  <fix>3d</fix>
</trkpt>
<trkpt lat="-27.274439" lon="151.290064">
  <ele>343.1</ele>
  <time>2026-09-01T19:49:42Z</time>
  <course>270.0</course>
  <speed>0.0</speed>
  <fix>3d</fix>
</trkpt>
<trkpt lat="-27.2744391" lon="151.2900641">
  <ele>343.09</ele>
  <time>2026-09-01T19:49:42Z</time>
  <course>11.33</course>
  <speed>0.022360679774997897</speed>
  <fix>3d</fix>
</trkpt>
<trkpt lat="-27.274439" lon="151.290064">
  <ele>343.1</ele>
  <time>2026-09-01T19:49:42Z</time>
  <course>270.0</course>
  <speed>0.0</speed>
  <fix>3d</fix>
</trkpt>
<trkpt lat="-27.2744391" lon="151.2900641">
  <ele>343.09</ele>
  <time>2026-09-01T19:49:42Z</time>
  <course>11.33</course>
  <speed>0.022360679774997897</speed>
  <fix>3d</fix>
</trkpt>
<trkpt lat="-27.274439" lon="151.290064">
  <ele>343.1</ele>
  <time>2026-09-01T19:49:42Z</time>
  <course>270.0</course>
  <speed>0.0</speed>
  <fix>3d</fix>
</trkpt>
<trkpt lat="-27.2744391" lon="151.2900641">
  <ele>343.09</ele>
  <time>2026-09-01T19:49:42Z</time>
  <course>11.33</course>
  <speed>0.022360679774997897</speed>
  <fix>3d</fix>
</trkpt>
<trkpt lat="-27.274439" lon="151.290064">
  <ele>343.1</ele>
  <time>2026-09-01T19:49:42Z</time>
  <course>270.0</course>
  <speed>0.0</speed>
  <fix>3d</fix>
</trkpt>
<trkpt lat="-27.2744391" lon="151.2900641">
  <ele>343.09</ele>
  <time>2026-09-01T19:49:42Z</time>
  <course>11.33</course>
  <speed>0.022360679774997897</speed>
  <fix>3d</fix>
</trkpt>
<trkpt lat="-27.274439" lon="151.290064">
  <ele>343.1</ele>
  <time>2026-09-01T19:49:42Z</time>
  <course>270.0</course>
  <speed>0.0</speed>
  <fix>3d</fix>
</trkpt>
<trkpt lat="-27.2744391" lon="151.2900641">
  <ele>343.09</ele>
  <time>2026-09-01T19:49:42Z</time>
  <course>11.33</course>
  <speed>0.022360679774997897</speed>
  <fix>3d</fix>
</trkpt>
<trkpt lat="-27.274439" lon="151.290064">
  <ele>343.1</ele>
  <time>2026-09-01T19:49:42Z</time>
  <course>270.0</course>
  <speed>0.0</speed>
  <fix>3d</fix>
</trkpt>
<trkpt lat="-27.2744391" lon="151.2900641">
  <ele>343.09</ele>
  <time>2026-09-01T19:49:42Z</time>
  <course>11.33</course>
  <speed>0.022360679774997897</speed>
  <fix>3d</fix>
</trkpt>
<trkpt lat="-27.274439" lon="151.290064">
  <ele>343.1</ele>
  <time>2026-09-01T19:49:42Z</time>
  <course>270.0</course>
  <speed>0.0</speed>
  <fix>3d</fix>
</trkpt>
<trkpt lat="-27.2744391" lon="151.2900641">
  <ele>343.09</ele>
  <time>2026-09-01T19:49:42Z</time>
  <course>11.33</course>
  <speed>0.022360679774997897</speed>
  <fix>3d</fix>
</trkpt>
<trkpt lat="-27.274439" lon="151.290064">
  <ele>343.1</ele>
  <time>2026-09-01T19:49:42Z</time>
  <course>270.0</course>
  <speed>0.0</speed>
  <fix>3d</fix>
</trkpt>
<trkpt lat="-27.2744391" lon="151.2900641">
  <ele>343.09</ele>
  <time>2026-09-01T19:49:42Z</time>
  <course>11.33</course>
  <speed>0.022360679774997897</speed>
  <fix>3d</fix>
</trkpt>
<trkpt lat="-27.274439" lon="151.290064">
  <ele>343.1</ele>
  <time>2026-09-01T19:49:42Z</time>
  <course>270.0</course>
  <speed>0.0</speed>
  <fix>3d</fix>
</trkpt>
<trkpt lat="-27.2744391" lon="151.2900641">
  <ele>343.09</ele>
  <time>2026-09-01T19:49:42Z</time>
  <course>11.33</course>
  <speed>0.022360679774997897</speed>
  <fix>3d</fix>
</trkpt>
<trkpt lat="-27.274439" lon="151.290064">
  <ele>343.1</ele>
  <time>2026-09-01T19:49:42Z</time>
  <course>270.0</course>
  <speed>0.0</speed>
  <fix>3d</fix>
</trkpt>
<trkpt lat="-27.2744391" lon="151.2900641">
  <ele>343.1</ele>
  <time>2026-09-01T19:49:42Z</time>
  <course>11.33</course>
  <speed>0.022360679774997897</speed>
  <fix>3d</fix>
</trkpt>
<trkpt lat="-27.274439" lon="151.290064">
  <ele>343.1</ele>
  <time>2026-09-01T19:49:42Z</time>
  <course>270.0</course>
  <speed>0.0</speed>
  <fix>3d</fix>
</trkpt>
<trkpt lat="-27.2744391" lon="151.2900641">
  <ele>343.1</ele>
  <time>2026-09-01T19:49:42Z</time>
  <course>11.33</course>
  <speed>0.022360679774997897</speed>
  <fix>3d</fix>
</trkpt>
<trkpt lat="-27.274439" lon="151.290064">
  <ele>343.1</ele>
  <time>2026-09-01T19:49:42Z</time>
  <course>270.0</course>
  <speed>0.0</speed>
  <fix>3d</fix>
</trkpt>
<trkpt lat="-27.2744391" lon="151.2900641">
  <ele>343.1</ele>
  <time>2026-09-01T19:49:42Z</time>
  <course>11.33</course>
  <speed>0.022360679774997897</speed>
  <fix>3d</fix>
</trkpt>
<trkpt lat="-27.274439" lon="151.290064">
  <ele>343.1</ele>
  <time>2026-09-01T19:49:42Z</time>
  <course>270.0</course>
  <speed>0.0</speed>
  <fix>3d</fix>
</trkpt>
<trkpt lat="-27.2744391" lon="151.2900641">
  <ele>343.1</ele>
  <time>2026-09-01T19:49:42Z</time>
  <course>11.33</course>
  <speed>0.022360679774997897</speed>
  <fix>3d</fix>
</trkpt>
<trkpt lat="-27.274439" lon="151.290064">
  <ele>343.1</ele>
  <time>2026-09-01T19:49:42Z</time>
  <course>270.0</course>
  <speed>0.0</speed>
  <fix>3d</fix>
</trkpt>
<trkpt lat="-27.2744391" lon="151.2900641">
  <ele>343.1</ele>
  <time>2026-09-01T19:49:42Z</time>
  <course>11.33</course>
  <speed>0.022360679774997897</speed>
  <fix>3d</fix>
</trkpt>
<trkpt lat="-27.274439" lon="151.290064">
  <ele>343.1</ele>
  <time>2026-09-01T19:49:42Z</time>
  <course>270.0</course>
  <speed>0.0</speed>
  <fix>3d</fix>
</trkpt>
<trkpt lat="-27.2744391" lon="151.2900641">
  <ele>343.09</ele>
  <time>2026-09-01T19:49:42Z</time>
  <course>11.34</course>
  <speed>0.022360679774997897</speed>
  <fix>3d</fix>
</trkpt>
<trkpt lat="-27.274439" lon="151.290064">
  <ele>343.1</ele>
  <time>2026-09-01T19:49:42Z</time>
  <course>270.0</course>
  <speed>0.0</speed>
  <fix>3d</fix>
</trkpt>
<trkpt lat="-27.2744391" lon="151.2900641">
  <ele>343.09</ele>
  <time>2026-09-01T19:49:42Z</time>
  <course>11.34</course>
  <speed>0.022360679774997897</speed>
  <fix>3d</fix>
</trkpt>
<trkpt lat="-27.274439" lon="151.290064">
  <ele>343.1</ele>
  <time>2026-09-01T19:49:42Z</time>
  <course>270.0</course>
  <speed>0.0</speed>
  <fix>3d</fix>
</trkpt>
<trkpt lat="-27.2744391" lon="151.2900641">
  <ele>343.09</ele>
  <time>2026-09-01T19:49:42Z</time>
  <course>11.34</course>
  <speed>0.022360679774997897</speed>
  <fix>3d</fix>
</trkpt>
<trkpt lat="-27.274439" lon="151.290064">
  <ele>343.1</ele>
  <time>2026-09-01T19:49:42Z</time>
  <course>270.0</course>
  <speed>0.0</speed>
  <fix>3d</fix>
</trkpt>
<trkpt lat="-27.2744391" lon="151.2900641">
  <ele>343.09</ele>
  <time>2026-09-01T19:49:42Z</time>
  <course>11.34</course>
  <speed>0.022360679774997897</speed>
  <fix>3d</fix>
</trkpt>
<trkpt lat="-27.274439" lon="151.290064">
  <ele>343.1</ele>
  <time>2026-09-01T19:49:42Z</time>
  <course>270.0</course>
  <speed>0.0</speed>
  <fix>3d</fix>
</trkpt>
<trkpt lat="-27.2744391" lon="151.2900641">
  <ele>343.09</ele>
  <time>2026-09-01T19:49:42Z</time>
  <course>11.34</course>
  <speed>0.022360679774997897</speed>
  <fix>3d</fix>
</trkpt>
<trkpt lat="-27.274439" lon="151.290064">
  <ele>343.1</ele>
  <time>2026-09-01T19:49:42Z</time>
  <course>270.0</course>
  <speed>0.0</speed>
  <fix>3d</fix>
</trkpt>
<trkpt lat="-27.2744391" lon="151.2900641">
  <ele>343.09</ele>
  <time>2026-09-01T19:49:42Z</time>
  <course>11.34</course>
  <speed>0.022360679774997897</speed>
  <fix>3d</fix>
</trkpt>
<trkpt lat="-27.274439" lon="151.290064">
  <ele>343.1</ele>
  <time>2026-09-01T19:49:42Z</time>
  <course>270.0</course>
  <speed>0.0</speed>
  <fix>3d</fix>
</trkpt>
<trkpt lat="-27.2744392" lon="151.2900641">
  <ele>343.09</ele>
  <time>2026-09-01T19:49:42Z</time>
  <course>11.34</course>
  <speed>0.022360679774997897</speed>
  <fix>3d</fix>
</trkpt>
<trkpt lat="-27.274439" lon="151.290064">
  <ele>343.1</ele>
  <time>2026-09-01T19:49:42Z</time>
  <course>270.0</course>
  <speed>0.0</speed>
  <fix>3d</fix>
</trkpt>
<trkpt lat="-27.2744391" lon="151.2900641">
  <ele>343.09</ele>
  <time>2026-09-01T19:49:42Z</time>
  <course>11.34</course>
  <speed>0.022360679774997897</speed>
  <fix>3d</fix>
</trkpt>
<trkpt lat="-27.274439" lon="151.290064">
  <ele>343.1</ele>
  <time>2026-09-01T19:49:42Z</time>
  <course>270.0</course>
  <speed>0.0</speed>
  <fix>3d</fix>
</trkpt>
<trkpt lat="-27.2744392" lon="151.2900641">
  <ele>343.1</ele>
  <time>2026-09-01T19:49:42Z</time>
  <course>11.34</course>
  <speed>0.022360679774997897</speed>
  <fix>3d</fix>
</trkpt>
<trkpt lat="-27.274439" lon="151.290064">
  <ele>343.1</ele>
  <time>2026-09-01T19:49:42Z</time>
  <course>270.0</course>
  <speed>0.0</speed>
  <fix>3d</fix>
</trkpt>
<trkpt lat="-27.2744391" lon="151.2900641">
  <ele>343.1</ele>
  <time>2026-09-01T19:49:42Z</time>
  <course>11.34</course>
  <speed>0.022360679774997897</speed>
  <fix>3d</fix>
</trkpt>
<trkpt lat="-27.274439" lon="151.290064">
  <ele>343.1</ele>
  <time>2026-09-01T19:49:42Z</time>
  <course>270.0</course>
  <speed>0.0</speed>
  <fix>3d</fix>
</trkpt>
<trkpt lat="-27.2744392" lon="151.2900641">
  <ele>343.1</ele>
  <time>2026-09-01T19:49:42Z</time>
  <course>11.34</course>
  <speed>0.022360679774997897</speed>
  <fix>3d</fix>
</trkpt>
<trkpt lat="-27.274439" lon="151.290064">
  <ele>343.1</ele>
  <time>2026-09-01T19:49:42Z</time>
  <course>270.0</course>
  <speed>0.0</speed>
  <fix>3d</fix>
</trkpt>
<trkpt lat="-27.2744392" lon="151.2900641">
  <ele>343.11</ele>
  <time>2026-09-01T19:49:42Z</time>
  <course>11.34</course>
  <speed>0.022360679774997897</speed>
  <fix>3d</fix>
</trkpt>
<trkpt lat="-27.274439" lon="151.290064">
  <ele>343.1</ele>
  <time>2026-09-01T19:49:42Z</time>
  <course>270.0</course>
  <speed>0.0</speed>
  <fix>3d</fix>
</trkpt>
<trkpt lat="-27.2744392" lon="151.2900641">
  <ele>343.11</ele>
  <time>2026-09-01T19:49:42Z</time>
  <course>11.34</course>
  <speed>0.022360679774997897</speed>
  <fix>3d</fix>
</trkpt>
<trkpt lat="-27.274439" lon="151.290064">
  <ele>343.1</ele>
  <time>2026-09-01T19:49:42Z</time>
  <course>270.0</course>
  <speed>0.0</speed>
  <fix>3d</fix>
</trkpt>
<trkpt lat="-27.2744392" lon="151.2900641">
  <ele>343.12</ele>
  <time>2026-09-01T19:49:42Z</time>
  <course>11.34</course>
  <speed>0.022360679774997897</speed>
  <fix>3d</fix>
</trkpt>
<trkpt lat="-27.274439" lon="151.290064">
  <ele>343.1</ele>
  <time>2026-09-01T19:49:42Z</time>
  <course>270.0</course>
  <speed>0.0</speed>
  <fix>3d</fix>
</trkpt>
<trkpt lat="-27.2744392" lon="151.2900641">
  <ele>343.12</ele>
  <time>2026-09-01T19:49:42Z</time>
  <course>11.34</course>
  <speed>0.022360679774997897</speed>
  <fix>3d</fix>
</trkpt>
<trkpt lat="-27.274439" lon="151.290064">
  <ele>343.1</ele>
  <time>2026-09-01T19:49:42Z</time>
  <course>270.0</course>
  <speed>0.0</speed>
  <fix>3d</fix>
</trkpt>
<trkpt lat="-27.2744391" lon="151.2900641">
  <ele>343.13</ele>
  <time>2026-09-01T19:49:42Z</time>
  <course>11.35</course>
  <speed>0.022360679774997897</speed>
  <fix>3d</fix>
</trkpt>
<trkpt lat="-27.274439" lon="151.290064">
  <ele>343.1</ele>
  <time>2026-09-01T19:49:42Z</time>
  <course>270.0</course>
  <speed>0.0</speed>
  <fix>3d</fix>
</trkpt>
<trkpt lat="-27.2744391" lon="151.2900641">
  <ele>343.14</ele>
  <time>2026-09-01T19:49:42Z</time>
  <course>11.35</course>
  <speed>0.022360679774997897</speed>
  <fix>3d</fix>
</trkpt>
<trkpt lat="-27.274439" lon="151.290064">
  <ele>343.1</ele>
  <time>2026-09-01T19:49:42Z</time>
  <course>270.0</course>
  <speed>0.0</speed>
  <fix>3d</fix>
</trkpt>
<trkpt lat="-27.2744391" lon="151.2900641">
  <ele>343.14</ele>
  <time>2026-09-01T19:49:42Z</time>
  <course>11.35</course>
  <speed>0.022360679774997897</speed>
  <fix>3d</fix>
</trkpt>
<trkpt lat="-27.274439" lon="151.290064">
  <ele>343.1</ele>
  <time>2026-09-01T19:49:42Z</time>
  <course>270.0</course>
  <speed>0.0</speed>
  <fix>3d</fix>
</trkpt>
<trkpt lat="-27.2744391" lon="151.2900641">
  <ele>343.14</ele>
  <time>2026-09-01T19:49:42Z</time>
  <course>11.35</course>
  <speed>0.022360679774997897</speed>
  <fix>3d</fix>
</trkpt>
<trkpt lat="-27.274439" lon="151.290064">
  <ele>343.1</ele>
  <time>2026-09-01T19:49:42Z</time>
  <course>270.0</course>
  <speed>0.0</speed>
  <fix>3d</fix>
</trkpt>
<trkpt lat="-27.2744391" lon="151.2900641">
  <ele>343.15</ele>
  <time>2026-09-01T19:49:42Z</time>
  <course>11.35</course>
  <speed>0.01414213562373095</speed>
  <fix>3d</fix>
</trkpt>
<trkpt lat="-27.274439" lon="151.290064">
  <ele>343.1</ele>
  <time>2026-09-01T19:49:42Z</time>
  <course>270.0</course>
  <speed>0.0</speed>
  <fix>3d</fix>
</trkpt>
<trkpt lat="-27.2744391" lon="151.2900641">
  <ele>343.16</ele>
  <time>2026-09-01T19:49:42Z</time>
  <course>11.35</course>
  <speed>0.01414213562373095</speed>
  <fix>3d</fix>
</trkpt>
<trkpt lat="-27.274439" lon="151.290064">
  <ele>343.1</ele>
  <time>2026-09-01T19:49:42Z</time>
  <course>270.0</course>
  <speed>0.0</speed>
  <fix>3d</fix>
</trkpt>
<trkpt lat="-27.2744391" lon="151.2900641">
  <ele>343.16</ele>
  <time>2026-09-01T19:49:42Z</time>
  <course>11.35</course>
  <speed>0.01414213562373095</speed>
  <fix>3d</fix>
</trkpt>
<trkpt lat="-27.274439" lon="151.290064">
  <ele>343.1</ele>
  <time>2026-09-01T19:49:42Z</time>
  <course>270.0</course>
  <speed>0.0</speed>
  <fix>3d</fix>
</trkpt>
<trkpt lat="-27.2744391" lon="151.2900641">
  <ele>343.16</ele>
  <time>2026-09-01T19:49:42Z</time>
  <course>11.35</course>
  <speed>0.01</speed>
  <fix>3d</fix>
</trkpt>
<trkpt lat="-27.274439" lon="151.290064">
  <ele>343.1</ele>
  <time>2026-09-01T19:49:42Z</time>
  <course>270.0</course>
  <speed>0.0</speed>
  <fix>3d</fix>
</trkpt>
<trkpt lat="-27.2744391" lon="151.2900641">
  <ele>343.17</ele>
  <time>2026-09-01T19:49:42Z</time>
  <course>11.35</course>
  <speed>0.01</speed>
  <fix>3d</fix>
</trkpt>
<trkpt lat="-27.274439" lon="151.290064">
  <ele>343.1</ele>
  <time>2026-09-01T19:49:42Z</time>
  <course>270.0</course>
  <speed>0.0</speed>
  <fix>3d</fix>
</trkpt>
<trkpt lat="-27.2744391" lon="151.2900641">
  <ele>343.17</ele>
  <time>2026-09-01T19:49:42Z</time>
  <course>11.35</course>
  <speed>0.01</speed>
  <fix>3d</fix>
</trkpt>
<trkpt lat="-27.274439" lon="151.290064">
  <ele>343.1</ele>
  <time>2026-09-01T19:49:42Z</time>
  <course>270.0</course>
  <speed>0.0</speed>
  <fix>3d</fix>
</trkpt>
<trkpt lat="-27.2744391" lon="151.2900641">
  <ele>343.17</ele>
  <time>2026-09-01T19:49:42Z</time>
  <course>11.35</course>
  <speed>0.0</speed>
  <fix>3d</fix>
</trkpt>
<trkpt lat="-27.274439" lon="151.290064">
  <ele>343.1</ele>
  <time>2026-09-01T19:49:42Z</time>
  <course>270.0</course>
  <speed>0.0</speed>
  <fix>3d</fix>
</trkpt>
<trkpt lat="-27.2744391" lon="151.2900641">
  <ele>343.18</ele>
  <time>2026-09-01T19:49:42Z</time>
  <course>11.35</course>
  <speed>0.0</speed>
  <fix>3d</fix>
</trkpt>
<trkpt lat="-27.274439" lon="151.290064">
  <ele>343.1</ele>
  <time>2026-09-01T19:49:42Z</time>
  <course>270.0</course>
  <speed>0.0</speed>
  <fix>3d</fix>
</trkpt>
<trkpt lat="-27.2744391" lon="151.2900641">
  <ele>343.18</ele>
  <time>2026-09-01T19:49:42Z</time>
  <course>11.35</course>
  <speed>0.0</speed>
  <fix>3d</fix>
</trkpt>
<trkpt lat="-27.274439" lon="151.290064">
  <ele>343.1</ele>
  <time>2026-09-01T19:49:42Z</time>
  <course>270.0</course>
  <speed>0.0</speed>
  <fix>3d</fix>
</trkpt>
<trkpt lat="-27.2744391" lon="151.2900641">
  <ele>343.18</ele>
  <time>2026-09-01T19:49:42Z</time>
  <course>11.35</course>
  <speed>0.0</speed>
  <fix>3d</fix>
</trkpt>
<trkpt lat="-27.274439" lon="151.290064">
  <ele>343.1</ele>
  <time>2026-09-01T19:49:42Z</time>
  <course>270.0</course>
  <speed>0.0</speed>
  <fix>3d</fix>
</trkpt>
<trkpt lat="-27.2744391" lon="151.2900641">
  <ele>343.19</ele>
  <time>2026-09-01T19:49:42Z</time>
  <course>11.35</course>
  <speed>0.0</speed>
  <fix>3d</fix>
</trkpt>
<trkpt lat="-27.274439" lon="151.290064">
  <ele>343.1</ele>
  <time>2026-09-01T19:49:42Z</time>
  <course>270.0</course>
  <speed>0.0</speed>
  <fix>3d</fix>
</trkpt>
<trkpt lat="-27.2744391" lon="151.2900641">
  <ele>343.19</ele>
  <time>2026-09-01T19:49:42Z</time>
  <course>11.35</course>
  <speed>0.0</speed>
  <fix>3d</fix>
</trkpt>
<trkpt lat="-27.274439" lon="151.290064">
  <ele>343.1</ele>
  <time>2026-09-01T19:49:42Z</time>
  <course>270.0</course>
  <speed>0.0</speed>
  <fix>3d</fix>
</trkpt>
<trkpt lat="-27.2744391" lon="151.2900641">
  <ele>343.2</ele>
  <time>2026-09-01T19:49:42Z</time>
  <course>11.35</course>
  <speed>0.0</speed>
  <fix>3d</fix>
</trkpt>
<trkpt lat="-27.274439" lon="151.290064">
  <ele>343.1</ele>
  <time>2026-09-01T19:49:42Z</time>
  <course>270.0</course>
  <speed>0.0</speed>
  <fix>3d</fix>
</trkpt>
<trkpt lat="-27.2744391" lon="151.2900641">
  <ele>343.2</ele>
  <time>2026-09-01T19:49:44Z</time>
  <course>11.36</course>
  <speed>0.0</speed>
  <fix>3d</fix>
</trkpt>
<trkpt lat="-27.274439" lon="151.290064">
  <ele>343.1</ele>
  <time>2026-09-01T19:49:44Z</time>
  <course>270.0</course>
  <speed>0.0</speed>
  <fix>3d</fix>
</trkpt>
<trkpt lat="-27.2744391" lon="151.2900641">
  <ele>343.21</ele>
  <time>2026-09-01T19:49:44Z</time>
  <course>11.36</course>
  <speed>0.0</speed>
  <fix>3d</fix>
</trkpt>
<trkpt lat="-27.274439" lon="151.290064">
  <ele>343.1</ele>
  <time>2026-09-01T19:49:44Z</time>
  <course>270.0</course>
  <speed>0.0</speed>
  <fix>3d</fix>
</trkpt>
<trkpt lat="-27.2744391" lon="151.2900641">
  <ele>343.21</ele>
  <time>2026-09-01T19:49:44Z</time>
  <course>11.36</course>
  <speed>0.0</speed>
  <fix>3d</fix>
</trkpt>
<trkpt lat="-27.274439" lon="151.290064">
  <ele>343.1</ele>
  <time>2026-09-01T19:49:44Z</time>
  <course>270.0</course>
  <speed>0.0</speed>
  <fix>3d</fix>
</trkpt>
<trkpt lat="-27.2744391" lon="151.2900641">
  <ele>343.22</ele>
  <time>2026-09-01T19:49:44Z</time>
  <course>11.36</course>
  <speed>0.0</speed>
  <fix>3d</fix>
</trkpt>
<trkpt lat="-27.274439" lon="151.290064">
  <ele>343.1</ele>
  <time>2026-09-01T19:49:44Z</time>
  <course>270.0</course>
  <speed>0.0</speed>
  <fix>3d</fix>
</trkpt>
<trkpt lat="-27.2744391" lon="151.2900641">
  <ele>343.22</ele>
  <time>2026-09-01T19:49:44Z</time>
  <course>11.36</course>
  <speed>0.0</speed>
  <fix>3d</fix>
</trkpt>
<trkpt lat="-27.274439" lon="151.290064">
  <ele>343.1</ele>
  <time>2026-09-01T19:49:44Z</time>
  <course>270.0</course>
  <speed>0.0</speed>
  <fix>3d</fix>
</trkpt>
<trkpt lat="-27.2744391" lon="151.2900641">
  <ele>343.22</ele>
  <time>2026-09-01T19:49:44Z</time>
  <course>11.36</course>
  <speed>0.0</speed>
  <fix>3d</fix>
</trkpt>
<trkpt lat="-27.274439" lon="151.290064">
  <ele>343.1</ele>
  <time>2026-09-01T19:49:44Z</time>
  <course>270.0</course>
  <speed>0.0</speed>
  <fix>3d</fix>
</trkpt>
<trkpt lat="-27.2744391" lon="151.2900641">
  <ele>343.22</ele>
  <time>2026-09-01T19:49:44Z</time>
  <course>11.36</course>
  <speed>0.0</speed>
  <fix>3d</fix>
</trkpt>
<trkpt lat="-27.274439" lon="151.290064">
  <ele>343.1</ele>
  <time>2026-09-01T19:49:44Z</time>
  <course>270.0</course>
  <speed>0.0</speed>
  <fix>3d</fix>
</trkpt>
<trkpt lat="-27.2744391" lon="151.2900641">
  <ele>343.1</ele>
  <time>2026-09-01T19:49:44Z</time>
  <course>11.36</course>
  <speed>0.0</speed>
  <fix>3d</fix>
</trkpt>
<trkpt lat="-27.274439" lon="151.290064">
  <ele>343.1</ele>
  <time>2026-09-01T19:49:44Z</time>
  <course>270.0</course>
  <speed>0.0</speed>
  <fix>3d</fix>
</trkpt>
<trkpt lat="-27.2744391" lon="151.2900641">
  <ele>343.1</ele>
  <time>2026-09-01T19:49:44Z</time>
  <course>11.36</course>
  <speed>0.0</speed>
  <fix>3d</fix>
</trkpt>
<trkpt lat="-27.274439" lon="151.290064">
  <ele>343.1</ele>
  <time>2026-09-01T19:49:44Z</time>
  <course>270.0</course>
  <speed>0.0</speed>
  <fix>3d</fix>
</trkpt>
<trkpt lat="-27.2744391" lon="151.2900641">
  <ele>343.1</ele>
  <time>2026-09-01T19:49:44Z</time>
  <course>11.36</course>
  <speed>0.0</speed>
  <fix>3d</fix>
</trkpt>
<trkpt lat="-27.274439" lon="151.290064">
  <ele>343.1</ele>
  <time>2026-09-01T19:49:44Z</time>
  <course>270.0</course>
  <speed>0.0</speed>
  <fix>3d</fix>
</trkpt>
<trkpt lat="-27.2744391" lon="151.2900641">
  <ele>343.1</ele>
  <time>2026-09-01T19:49:44Z</time>
  <course>11.36</course>
  <speed>0.0</speed>
  <fix>3d</fix>
</trkpt>
<trkpt lat="-27.274439" lon="151.290064">
  <ele>343.1</ele>
  <time>2026-09-01T19:49:44Z</time>
  <course>270.0</course>
  <speed>0.0</speed>
  <fix>3d</fix>
</trkpt>
<trkpt lat="-27.2744391" lon="151.2900641">
  <ele>343.11</ele>
  <time>2026-09-01T19:49:44Z</time>
  <course>11.36</course>
  <speed>0.0</speed>
  <fix>3d</fix>
</trkpt>
<trkpt lat="-27.274439" lon="151.290064">
  <ele>343.1</ele>
  <time>2026-09-01T19:49:44Z</time>
  <course>270.0</course>
  <speed>0.0</speed>
  <fix>3d</fix>
</trkpt>
<trkpt lat="-27.2744391" lon="151.2900641">
  <ele>343.11</ele>
  <time>2026-09-01T19:49:44Z</time>
  <course>11.36</course>
  <speed>0.0</speed>
  <fix>3d</fix>
</trkpt>
<trkpt lat="-27.274439" lon="151.290064">
  <ele>343.1</ele>
  <time>2026-09-01T19:49:44Z</time>
  <course>270.0</course>
  <speed>0.0</speed>
  <fix>3d</fix>
</trkpt>
<trkpt lat="-27.2744391" lon="151.2900641">
  <ele>343.12</ele>
  <time>2026-09-01T19:49:44Z</time>
  <course>11.36</course>
  <speed>0.0</speed>
  <fix>3d</fix>
</trkpt>
<trkpt lat="-27.274439" lon="151.290064">
  <ele>343.1</ele>
  <time>2026-09-01T19:49:44Z</time>
  <course>270.0</course>
  <speed>0.0</speed>
  <fix>3d</fix>
</trkpt>
<trkpt lat="-27.2744391" lon="151.2900641">
  <ele>343.12</ele>
  <time>2026-09-01T19:49:44Z</time>
  <course>11.36</course>
  <speed>0.0</speed>
  <fix>3d</fix>
</trkpt>
<trkpt lat="-27.274439" lon="151.290064">
  <ele>343.1</ele>
  <time>2026-09-01T19:49:44Z</time>
  <course>270.0</course>
  <speed>0.0</speed>
  <fix>3d</fix>
</trkpt>
<trkpt lat="-27.2744391" lon="151.2900641">
  <ele>343.12</ele>
  <time>2026-09-01T19:49:44Z</time>
  <course>11.36</course>
  <speed>0.0</speed>
  <fix>3d</fix>
</trkpt>
<trkpt lat="-27.274439" lon="151.290064">
  <ele>343.1</ele>
  <time>2026-09-01T19:49:44Z</time>
  <course>270.0</course>
  <speed>0.0</speed>
  <fix>3d</fix>
</trkpt>
<trkpt lat="-27.2744391" lon="151.2900641">
  <ele>343.13</ele>
  <time>2026-09-01T19:49:44Z</time>
  <course>11.36</course>
  <speed>0.01</speed>
  <fix>3d</fix>
</trkpt>
<trkpt lat="-27.274439" lon="151.290064">
  <ele>343.1</ele>
  <time>2026-09-01T19:49:44Z</time>
  <course>270.0</course>
  <speed>0.0</speed>
  <fix>3d</fix>
</trkpt>
<trkpt lat="-27.2744391" lon="151.2900641">
  <ele>343.13</ele>
  <time>2026-09-01T19:49:44Z</time>
  <course>11.36</course>
  <speed>0.01</speed>
  <fix>3d</fix>
</trkpt>
<trkpt lat="-27.274439" lon="151.290064">
  <ele>343.1</ele>
  <time>2026-09-01T19:49:44Z</time>
  <course>270.0</course>
  <speed>0.0</speed>
  <fix>3d</fix>
</trkpt>
<trkpt lat="-27.2744391" lon="151.2900641">
  <ele>343.13</ele>
  <time>2026-09-01T19:49:44Z</time>
  <course>11.36</course>
  <speed>0.01</speed>
  <fix>3d</fix>
</trkpt>
<trkpt lat="-27.274439" lon="151.290064">
  <ele>343.1</ele>
  <time>2026-09-01T19:49:44Z</time>
  <course>270.0</course>
  <speed>0.0</speed>
  <fix>3d</fix>
</trkpt>
<trkpt lat="-27.2744391" lon="151.2900641">
  <ele>343.13</ele>
  <time>2026-09-01T19:49:44Z</time>
  <course>11.36</course>
  <speed>0.01</speed>
  <fix>3d</fix>
</trkpt>
<trkpt lat="-27.274439" lon="151.290064">
  <ele>343.1</ele>
  <time>2026-09-01T19:49:44Z</time>
  <course>270.0</course>
  <speed>0.0</speed>
  <fix>3d</fix>
</trkpt>
<trkpt lat="-27.2744391" lon="151.2900641">
  <ele>343.14</ele>
  <time>2026-09-01T19:49:44Z</time>
  <course>11.36</course>
  <speed>0.01</speed>
  <fix>3d</fix>
</trkpt>
<trkpt lat="-27.274439" lon="151.290064">
  <ele>343.1</ele>
  <time>2026-09-01T19:49:44Z</time>
  <course>270.0</course>
  <speed>0.0</speed>
  <fix>3d</fix>
</trkpt>
<trkpt lat="-27.2744391" lon="151.2900641">
  <ele>343.14</ele>
  <time>2026-09-01T19:49:44Z</time>
  <course>11.36</course>
  <speed>0.01</speed>
  <fix>3d</fix>
</trkpt>
<trkpt lat="-27.274439" lon="151.290064">
  <ele>343.1</ele>
  <time>2026-09-01T19:49:44Z</time>
  <course>270.0</course>
  <speed>0.0</speed>
  <fix>3d</fix>
</trkpt>
<trkpt lat="-27.2744391" lon="151.2900641">
  <ele>343.14</ele>
  <time>2026-09-01T19:49:44Z</time>
  <course>11.36</course>
  <speed>0.01414213562373095</speed>
  <fix>3d</fix>
</trkpt>
<trkpt lat="-27.274439" lon="151.290064">
  <ele>343.1</ele>
  <time>2026-09-01T19:49:44Z</time>
  <course>270.0</course>
  <speed>0.0</speed>
  <fix>3d</fix>
</trkpt>
<trkpt lat="-27.2744391" lon="151.2900641">
  <ele>343.14</ele>
  <time>2026-09-01T19:49:44Z</time>
  <course>11.36</course>
  <speed>0.01414213562373095</speed>
  <fix>3d</fix>
</trkpt>
<trkpt lat="-27.274439" lon="151.290064">
  <ele>343.1</ele>
  <time>2026-09-01T19:49:44Z</time>
  <course>270.0</course>
  <speed>0.0</speed>
  <fix>3d</fix>
</trkpt>
<trkpt lat="-27.2744391" lon="151.2900641">
  <ele>343.15</ele>
  <time>2026-09-01T19:49:44Z</time>
  <course>11.36</course>
  <speed>0.01414213562373095</speed>
  <fix>3d</fix>
</trkpt>
<trkpt lat="-27.274439" lon="151.290064">
  <ele>343.1</ele>
  <time>2026-09-01T19:49:44Z</time>
  <course>270.0</course>
  <speed>0.0</speed>
  <fix>3d</fix>
</trkpt>
<trkpt lat="-27.2744391" lon="151.2900641">
  <ele>343.15</ele>
  <time>2026-09-01T19:49:44Z</time>
  <course>11.36</course>
  <speed>0.01414213562373095</speed>
  <fix>3d</fix>
</trkpt>
<trkpt lat="-27.274439" lon="151.290064">
  <ele>343.1</ele>
  <time>2026-09-01T19:49:44Z</time>
  <course>270.0</course>
  <speed>0.0</speed>
  <fix>3d</fix>
</trkpt>
<trkpt lat="-27.2744391" lon="151.2900641">
  <ele>343.15</ele>
  <time>2026-09-01T19:49:44Z</time>
  <course>11.36</course>
  <speed>0.01414213562373095</speed>
  <fix>3d</fix>
</trkpt>
<trkpt lat="-27.274439" lon="151.290064">
  <ele>343.1</ele>
  <time>2026-09-01T19:49:44Z</time>
  <course>270.0</course>
  <speed>0.0</speed>
  <fix>3d</fix>
</trkpt>
<trkpt lat="-27.2744391" lon="151.2900641">
  <ele>343.16</ele>
  <time>2026-09-01T19:49:44Z</time>
  <course>11.37</course>
  <speed>0.01414213562373095</speed>
  <fix>3d</fix>
</trkpt>
<trkpt lat="-27.274439" lon="151.290064">
  <ele>343.1</ele>
  <time>2026-09-01T19:49:44Z</time>
  <course>270.0</course>
  <speed>0.0</speed>
  <fix>3d</fix>
</trkpt>
<trkpt lat="-27.2744391" lon="151.2900641">
  <ele>343.16</ele>
  <time>2026-09-01T19:49:44Z</time>
  <course>11.37</course>
  <speed>0.01414213562373095</speed>
  <fix>3d</fix>
</trkpt>
<trkpt lat="-27.274439" lon="151.290064">
  <ele>343.1</ele>
  <time>2026-09-01T19:49:44Z</time>
  <course>270.0</course>
  <speed>0.0</speed>
  <fix>3d</fix>
</trkpt>
<trkpt lat="-27.2744391" lon="151.2900641">
  <ele>343.16</ele>
  <time>2026-09-01T19:49:44Z</time>
  <course>11.37</course>
  <speed>0.01414213562373095</speed>
  <fix>3d</fix>
</trkpt>
<trkpt lat="-27.274439" lon="151.290064">
  <ele>343.1</ele>
  <time>2026-09-01T19:49:44Z</time>
  <course>270.0</course>
  <speed>0.0</speed>
  <fix>3d</fix>
</trkpt>
<trkpt lat="-27.2744391" lon="151.2900641">
  <ele>343.16</ele>
  <time>2026-09-01T19:49:44Z</time>
  <course>11.37</course>
  <speed>0.01414213562373095</speed>
  <fix>3d</fix>
</trkpt>
<trkpt lat="-27.274439" lon="151.290064">
  <ele>343.1</ele>
  <time>2026-09-01T19:49:44Z</time>
  <course>270.0</course>
  <speed>0.0</speed>
  <fix>3d</fix>
</trkpt>
<trkpt lat="-27.2744391" lon="151.2900641">
  <ele>343.17</ele>
  <time>2026-09-01T19:49:44Z</time>
  <course>11.37</course>
  <speed>0.022360679774997897</speed>
  <fix>3d</fix>
</trkpt>
<trkpt lat="-27.274439" lon="151.290064">
  <ele>343.1</ele>
  <time>2026-09-01T19:49:44Z</time>
  <course>270.0</course>
  <speed>0.0</speed>
  <fix>3d</fix>
</trkpt>
<trkpt lat="-27.2744391" lon="151.2900641">
  <ele>343.17</ele>
  <time>2026-09-01T19:49:44Z</time>
  <course>11.37</course>
  <speed>0.022360679774997897</speed>
  <fix>3d</fix>
</trkpt>
<trkpt lat="-27.274439" lon="151.290064">
  <ele>343.1</ele>
  <time>2026-09-01T19:49:44Z</time>
  <course>270.0</course>
  <speed>0.0</speed>
  <fix>3d</fix>
</trkpt>
<trkpt lat="-27.2744391" lon="151.2900641">
  <ele>343.18</ele>
  <time>2026-09-01T19:49:44Z</time>
  <course>11.37</course>
  <speed>0.022360679774997897</speed>
  <fix>3d</fix>
</trkpt>
<trkpt lat="-27.274439" lon="151.290064">
  <ele>343.1</ele>
  <time>2026-09-01T19:49:44Z</time>
  <course>270.0</course>
  <speed>0.0</speed>
  <fix>3d</fix>
</trkpt>
<trkpt lat="-27.2744391" lon="151.2900641">
  <ele>343.18</ele>
  <time>2026-09-01T19:49:44Z</time>
  <course>11.37</course>
  <speed>0.022360679774997897</speed>
  <fix>3d</fix>
</trkpt>
<trkpt lat="-27.274439" lon="151.290064">
  <ele>343.1</ele>
  <time>2026-09-01T19:49:44Z</time>
  <course>270.0</course>
  <speed>0.0</speed>
  <fix>3d</fix>
</trkpt>
<trkpt lat="-27.2744391" lon="151.2900641">
  <ele>343.18</ele>
  <time>2026-09-01T19:49:44Z</time>
  <course>11.37</course>
  <speed>0.022360679774997897</speed>
  <fix>3d</fix>
</trkpt>
<trkpt lat="-27.274439" lon="151.290064">
  <ele>343.1</ele>
  <time>2026-09-01T19:49:44Z</time>
  <course>270.0</course>
  <speed>0.0</speed>
  <fix>3d</fix>
</trkpt>
<trkpt lat="-27.2744391" lon="151.2900641">
  <ele>343.18</ele>
  <time>2026-09-01T19:49:44Z</time>
  <course>11.37</course>
  <speed>0.022360679774997897</speed>
  <fix>3d</fix>
</trkpt>
<trkpt lat="-27.274439" lon="151.290064">
  <ele>343.1</ele>
  <time>2026-09-01T19:49:44Z</time>
  <course>270.0</course>
  <speed>0.0</speed>
  <fix>3d</fix>
</trkpt>
<trkpt lat="-27.2744391" lon="151.2900641">
  <ele>343.19</ele>
  <time>2026-09-01T19:49:44Z</time>
  <course>11.37</course>
  <speed>0.022360679774997897</speed>
  <fix>3d</fix>
</trkpt>
<trkpt lat="-27.274439" lon="151.290064">
  <ele>343.1</ele>
  <time>2026-09-01T19:49:44Z</time>
  <course>270.0</course>
  <speed>0.0</speed>
  <fix>3d</fix>
</trkpt>
<trkpt lat="-27.2744391" lon="151.2900641">
  <ele>343.19</ele>
  <time>2026-09-01T19:49:44Z</time>
  <course>11.37</course>
  <speed>0.022360679774997897</speed>
  <fix>3d</fix>
</trkpt>
<trkpt lat="-27.274439" lon="151.290064">
  <ele>343.1</ele>
  <time>2026-09-01T19:49:44Z</time>
  <course>270.0</course>
  <speed>0.0</speed>
  <fix>3d</fix>
</trkpt>
<trkpt lat="-27.2744391" lon="151.2900641">
  <ele>343.19</ele>
  <time>2026-09-01T19:49:44Z</time>
  <course>11.37</course>
  <speed>0.022360679774997897</speed>
  <fix>3d</fix>
</trkpt>
<trkpt lat="-27.274439" lon="151.290064">
  <ele>343.1</ele>
  <time>2026-09-01T19:49:44Z</time>
  <course>270.0</course>
  <speed>0.0</speed>
  <fix>3d</fix>
</trkpt>
<trkpt lat="-27.2744391" lon="151.2900641">
  <ele>343.2</ele>
  <time>2026-09-01T19:49:44Z</time>
  <course>11.37</course>
  <speed>0.022360679774997897</speed>
  <fix>3d</fix>
</trkpt>
<trkpt lat="-27.274439" lon="151.290064">
  <ele>343.1</ele>
  <time>2026-09-01T19:49:44Z</time>
  <course>270.0</course>
  <speed>0.0</speed>
  <fix>3d</fix>
</trkpt>
<trkpt lat="-27.2744391" lon="151.2900641">
  <ele>343.2</ele>
  <time>2026-09-01T19:49:44Z</time>
  <course>11.37</course>
  <speed>0.022360679774997897</speed>
  <fix>3d</fix>
</trkpt>
<trkpt lat="-27.274439" lon="151.290064">
  <ele>343.1</ele>
  <time>2026-09-01T19:49:44Z</time>
  <course>270.0</course>
  <speed>0.0</speed>
  <fix>3d</fix>
</trkpt>
<trkpt lat="-27.2744391" lon="151.2900641">
  <ele>343.21</ele>
  <time>2026-09-01T19:49:44Z</time>
  <course>11.37</course>
  <speed>0.022360679774997897</speed>
  <fix>3d</fix>
</trkpt>
<trkpt lat="-27.274439" lon="151.290064">
  <ele>343.1</ele>
  <time>2026-09-01T19:49:44Z</time>
  <course>270.0</course>
  <speed>0.0</speed>
  <fix>3d</fix>
</trkpt>
<trkpt lat="-27.2744391" lon="151.2900641">
  <ele>343.21</ele>
  <time>2026-09-01T19:49:44Z</time>
  <course>11.37</course>
  <speed>0.022360679774997897</speed>
  <fix>3d</fix>
</trkpt>
<trkpt lat="-27.274439" lon="151.290064">
  <ele>343.1</ele>
  <time>2026-09-01T19:49:44Z</time>
  <course>270.0</course>
  <speed>0.0</speed>
  <fix>3d</fix>
</trkpt>
<trkpt lat="-27.2744391" lon="151.2900641">
  <ele>343.21</ele>
  <time>2026-09-01T19:49:44Z</time>
  <course>11.37</course>
  <speed>0.022360679774997897</speed>
  <fix>3d</fix>
</trkpt>
<trkpt lat="-27.274439" lon="151.290064">
  <ele>343.1</ele>
  <time>2026-09-01T19:49:44Z</time>
  <course>270.0</course>
  <speed>0.0</speed>
  <fix>3d</fix>
</trkpt>
<trkpt lat="-27.2744391" lon="151.2900641">
  <ele>343.22</ele>
  <time>2026-09-01T19:49:44Z</time>
  <course>11.37</course>
  <speed>0.022360679774997897</speed>
  <fix>3d</fix>
</trkpt>
<trkpt lat="-27.274439" lon="151.290064">
  <ele>343.1</ele>
  <time>2026-09-01T19:49:44Z</time>
  <course>270.0</course>
  <speed>0.0</speed>
  <fix>3d</fix>
</trkpt>
<trkpt lat="-27.2744391" lon="151.2900641">
  <ele>343.22</ele>
  <time>2026-09-01T19:49:44Z</time>
  <course>11.37</course>
  <speed>0.022360679774997897</speed>
  <fix>3d</fix>
</trkpt>
<trkpt lat="-27.274439" lon="151.290064">
  <ele>343.1</ele>
  <time>2026-09-01T19:49:44Z</time>
  <course>270.0</course>
  <speed>0.0</speed>
  <fix>3d</fix>
</trkpt>
<trkpt lat="-27.2744391" lon="151.2900641">
  <ele>343.23</ele>
  <time>2026-09-01T19:49:44Z</time>
  <course>11.37</course>
  <speed>0.022360679774997897</speed>
  <fix>3d</fix>
</trkpt>
<trkpt lat="-27.274439" lon="151.290064">
  <ele>343.1</ele>
  <time>2026-09-01T19:49:44Z</time>
  <course>270.0</course>
  <speed>0.0</speed>
  <fix>3d</fix>
</trkpt>
<trkpt lat="-27.2744391" lon="151.2900641">
  <ele>343.23</ele>
  <time>2026-09-01T19:49:44Z</time>
  <course>11.37</course>
  <speed>0.022360679774997897</speed>
  <fix>3d</fix>
</trkpt>
<trkpt lat="-27.274439" lon="151.290064">
  <ele>343.1</ele>
  <time>2026-09-01T19:49:44Z</time>
  <course>270.0</course>
  <speed>0.0</speed>
  <fix>3d</fix>
</trkpt>
<trkpt lat="-27.2744391" lon="151.2900641">
  <ele>343.24</ele>
  <time>2026-09-01T19:49:44Z</time>
  <course>11.37</course>
  <speed>0.022360679774997897</speed>
  <fix>3d</fix>
</trkpt>
<trkpt lat="-27.274439" lon="151.290064">
  <ele>343.1</ele>
  <time>2026-09-01T19:49:44Z</time>
  <course>270.0</course>
  <speed>0.0</speed>
  <fix>3d</fix>
</trkpt>
<trkpt lat="-27.2744391" lon="151.2900641">
  <ele>343.24</ele>
  <time>2026-09-01T19:49:44Z</time>
  <course>11.37</course>
  <speed>0.022360679774997897</speed>
  <fix>3d</fix>
</trkpt>
<trkpt lat="-27.274439" lon="151.290064">
  <ele>343.1</ele>
  <time>2026-09-01T19:49:44Z</time>
  <course>270.0</course>
  <speed>0.0</speed>
  <fix>3d</fix>
</trkpt>
<trkpt lat="-27.2744391" lon="151.2900641">
  <ele>343.25</ele>
  <time>2026-09-01T19:49:44Z</time>
  <course>11.37</course>
  <speed>0.022360679774997897</speed>
  <fix>3d</fix>
</trkpt>
<trkpt lat="-27.274439" lon="151.290064">
  <ele>343.1</ele>
  <time>2026-09-01T19:49:44Z</time>
  <course>270.0</course>
  <speed>0.0</speed>
  <fix>3d</fix>
</trkpt>
<trkpt lat="-27.2744391" lon="151.2900641">
  <ele>343.25</ele>
  <time>2026-09-01T19:49:44Z</time>
  <course>11.37</course>
  <speed>0.022360679774997897</speed>
  <fix>3d</fix>
</trkpt>
<trkpt lat="-27.274439" lon="151.290064">
  <ele>343.1</ele>
  <time>2026-09-01T19:49:44Z</time>
  <course>270.0</course>
  <speed>0.0</speed>
  <fix>3d</fix>
</trkpt>
<trkpt lat="-27.2744391" lon="151.2900641">
  <ele>343.25</ele>
  <time>2026-09-01T19:49:44Z</time>
  <course>11.37</course>
  <speed>0.022360679774997897</speed>
  <fix>3d</fix>
</trkpt>
<trkpt lat="-27.274439" lon="151.290064">
  <ele>343.1</ele>
  <time>2026-09-01T19:49:44Z</time>
  <course>270.0</course>
  <speed>0.0</speed>
  <fix>3d</fix>
</trkpt>
<trkpt lat="-27.2744391" lon="151.2900641">
  <ele>343.26</ele>
  <time>2026-09-01T19:49:44Z</time>
  <course>11.37</course>
  <speed>0.022360679774997897</speed>
  <fix>3d</fix>
</trkpt>
<trkpt lat="-27.274439" lon="151.290064">
  <ele>343.1</ele>
  <time>2026-09-01T19:49:44Z</time>
  <course>270.0</course>
  <speed>0.0</speed>
  <fix>3d</fix>
</trkpt>
<trkpt lat="-27.2744391" lon="151.2900641">
  <ele>343.26</ele>
  <time>2026-09-01T19:49:44Z</time>
  <course>11.37</course>
  <speed>0.022360679774997897</speed>
  <fix>3d</fix>
</trkpt>
<trkpt lat="-27.274439" lon="151.290064">
  <ele>343.1</ele>
  <time>2026-09-01T19:49:44Z</time>
  <course>270.0</course>
  <speed>0.0</speed>
  <fix>3d</fix>
</trkpt>
<trkpt lat="-27.2744391" lon="151.2900641">
  <ele>343.26</ele>
  <time>2026-09-01T19:49:44Z</time>
  <course>11.37</course>
  <speed>0.022360679774997897</speed>
  <fix>3d</fix>
</trkpt>
<trkpt lat="-27.274439" lon="151.290064">
  <ele>343.1</ele>
  <time>2026-09-01T19:49:44Z</time>
  <course>270.0</course>
  <speed>0.0</speed>
  <fix>3d</fix>
</trkpt>
<trkpt lat="-27.2744391" lon="151.2900641">
  <ele>343.26</ele>
  <time>2026-09-01T19:49:44Z</time>
  <course>11.37</course>
  <speed>0.022360679774997897</speed>
  <fix>3d</fix>
</trkpt>
<trkpt lat="-27.274439" lon="151.290064">
  <ele>343.1</ele>
  <time>2026-09-01T19:49:44Z</time>
  <course>270.0</course>
  <speed>0.0</speed>
  <fix>3d</fix>
</trkpt>
<trkpt lat="-27.2744392" lon="151.2900641">
  <ele>343.26</ele>
  <time>2026-09-01T19:49:44Z</time>
  <course>11.37</course>
  <speed>0.022360679774997897</speed>
  <fix>3d</fix>
</trkpt>
<trkpt lat="-27.274439" lon="151.290064">
  <ele>343.1</ele>
  <time>2026-09-01T19:49:44Z</time>
  <course>270.0</course>
  <speed>0.0</speed>
  <fix>3d</fix>
</trkpt>
<trkpt lat="-27.2744391" lon="151.2900641">
  <ele>343.26</ele>
  <time>2026-09-01T19:49:44Z</time>
  <course>11.37</course>
  <speed>0.022360679774997897</speed>
  <fix>3d</fix>
</trkpt>
<trkpt lat="-27.274439" lon="151.290064">
  <ele>343.1</ele>
  <time>2026-09-01T19:49:44Z</time>
  <course>270.0</course>
  <speed>0.0</speed>
  <fix>3d</fix>
</trkpt>
<trkpt lat="-27.2744392" lon="151.2900641">
  <ele>343.26</ele>
  <time>2026-09-01T19:49:44Z</time>
  <course>11.37</course>
  <speed>0.022360679774997897</speed>
  <fix>3d</fix>
</trkpt>
<trkpt lat="-27.274439" lon="151.290064">
  <ele>343.1</ele>
  <time>2026-09-01T19:49:44Z</time>
  <course>270.0</course>
  <speed>0.0</speed>
  <fix>3d</fix>
</trkpt>
<trkpt lat="-27.2744392" lon="151.2900641">
  <ele>343.26</ele>
  <time>2026-09-01T19:49:44Z</time>
  <course>11.37</course>
  <speed>0.022360679774997897</speed>
  <fix>3d</fix>
</trkpt>
<trkpt lat="-27.274439" lon="151.290064">
  <ele>343.1</ele>
  <time>2026-09-01T19:49:44Z</time>
  <course>270.0</course>
  <speed>0.0</speed>
  <fix>3d</fix>
</trkpt>
<trkpt lat="-27.2744392" lon="151.2900641">
  <ele>343.26</ele>
  <time>2026-09-01T19:49:44Z</time>
  <course>11.37</course>
  <speed>0.022360679774997897</speed>
  <fix>3d</fix>
</trkpt>
<trkpt lat="-27.274439" lon="151.290064">
  <ele>343.1</ele>
  <time>2026-09-01T19:49:44Z</time>
  <course>270.0</course>
  <speed>0.0</speed>
  <fix>3d</fix>
</trkpt>
<trkpt lat="-27.2744392" lon="151.2900641">
  <ele>343.26</ele>
  <time>2026-09-01T19:49:44Z</time>
  <course>11.37</course>
  <speed>0.022360679774997897</speed>
  <fix>3d</fix>
</trkpt>
<trkpt lat="-27.274439" lon="151.290064">
  <ele>343.1</ele>
  <time>2026-09-01T19:49:44Z</time>
  <course>270.0</course>
  <speed>0.0</speed>
  <fix>3d</fix>
</trkpt>
<trkpt lat="-27.2744392" lon="151.2900641">
  <ele>343.26</ele>
  <time>2026-09-01T19:49:44Z</time>
  <course>11.37</course>
  <speed>0.022360679774997897</speed>
  <fix>3d</fix>
</trkpt>
<trkpt lat="-27.274439" lon="151.290064">
  <ele>343.1</ele>
  <time>2026-09-01T19:49:44Z</time>
  <course>270.0</course>
  <speed>0.0</speed>
  <fix>3d</fix>
</trkpt>
<trkpt lat="-27.2744392" lon="151.2900641">
  <ele>343.26</ele>
  <time>2026-09-01T19:49:44Z</time>
  <course>11.37</course>
  <speed>0.022360679774997897</speed>
  <fix>3d</fix>
</trkpt>
<trkpt lat="-27.274439" lon="151.290064">
  <ele>343.1</ele>
  <time>2026-09-01T19:49:44Z</time>
  <course>270.0</course>
  <speed>0.0</speed>
  <fix>3d</fix>
</trkpt>
<trkpt lat="-27.2744392" lon="151.2900641">
  <ele>343.26</ele>
  <time>2026-09-01T19:49:44Z</time>
  <course>11.37</course>
  <speed>0.022360679774997897</speed>
  <fix>3d</fix>
</trkpt>
<trkpt lat="-27.274439" lon="151.290064">
  <ele>343.1</ele>
  <time>2026-09-01T19:49:44Z</time>
  <course>270.0</course>
  <speed>0.0</speed>
  <fix>3d</fix>
</trkpt>
<trkpt lat="-27.2744392" lon="151.2900641">
  <ele>343.1</ele>
  <time>2026-09-01T19:49:44Z</time>
  <course>11.37</course>
  <speed>0.022360679774997897</speed>
  <fix>3d</fix>
</trkpt>
<trkpt lat="-27.274439" lon="151.290064">
  <ele>343.1</ele>
  <time>2026-09-01T19:49:44Z</time>
  <course>270.0</course>
  <speed>0.0</speed>
  <fix>3d</fix>
</trkpt>
<trkpt lat="-27.2744392" lon="151.2900641">
  <ele>343.1</ele>
  <time>2026-09-01T19:49:44Z</time>
  <course>11.37</course>
  <speed>0.022360679774997897</speed>
  <fix>3d</fix>
</trkpt>
<trkpt lat="-27.274439" lon="151.290064">
  <ele>343.1</ele>
  <time>2026-09-01T19:49:44Z</time>
  <course>270.0</course>
  <speed>0.0</speed>
  <fix>3d</fix>
</trkpt>
<trkpt lat="-27.2744392" lon="151.2900641">
  <ele>343.1</ele>
  <time>2026-09-01T19:49:44Z</time>
  <course>11.38</course>
  <speed>0.022360679774997897</speed>
  <fix>3d</fix>
</trkpt>
<trkpt lat="-27.274439" lon="151.290064">
  <ele>343.1</ele>
  <time>2026-09-01T19:49:44Z</time>
  <course>270.0</course>
  <speed>0.0</speed>
  <fix>3d</fix>
</trkpt>
<trkpt lat="-27.2744392" lon="151.2900641">
  <ele>343.1</ele>
  <time>2026-09-01T19:49:44Z</time>
  <course>11.38</course>
  <speed>0.022360679774997897</speed>
  <fix>3d</fix>
</trkpt>
<trkpt lat="-27.274439" lon="151.290064">
  <ele>343.1</ele>
  <time>2026-09-01T19:49:44Z</time>
  <course>270.0</course>
  <speed>0.0</speed>
  <fix>3d</fix>
</trkpt>
<trkpt lat="-27.2744392" lon="151.2900641">
  <ele>343.1</ele>
  <time>2026-09-01T19:49:44Z</time>
  <course>11.38</course>
  <speed>0.022360679774997897</speed>
  <fix>3d</fix>
</trkpt>
<trkpt lat="-27.274439" lon="151.290064">
  <ele>343.1</ele>
  <time>2026-09-01T19:49:44Z</time>
  <course>270.0</course>
  <speed>0.0</speed>
  <fix>3d</fix>
</trkpt>
<trkpt lat="-27.2744392" lon="151.2900641">
  <ele>343.1</ele>
  <time>2026-09-01T19:49:44Z</time>
  <course>11.38</course>
  <speed>0.03605551275463989</speed>
  <fix>3d</fix>
</trkpt>
<trkpt lat="-27.274439" lon="151.290064">
  <ele>343.1</ele>
  <time>2026-09-01T19:49:44Z</time>
  <course>270.0</course>
  <speed>0.0</speed>
  <fix>3d</fix>
</trkpt>
<trkpt lat="-27.2744392" lon="151.2900641">
  <ele>343.11</ele>
  <time>2026-09-01T19:49:44Z</time>
  <course>11.38</course>
  <speed>0.03605551275463989</speed>
  <fix>3d</fix>
</trkpt>
<trkpt lat="-27.274439" lon="151.290064">
  <ele>343.1</ele>
  <time>2026-09-01T19:49:44Z</time>
  <course>270.0</course>
  <speed>0.0</speed>
  <fix>3d</fix>
</trkpt>
<trkpt lat="-27.2744392" lon="151.2900641">
  <ele>343.11</ele>
  <time>2026-09-01T19:49:44Z</time>
  <course>11.38</course>
  <speed>0.03605551275463989</speed>
  <fix>3d</fix>
</trkpt>
<trkpt lat="-27.274439" lon="151.290064">
  <ele>343.1</ele>
  <time>2026-09-01T19:49:44Z</time>
  <course>270.0</course>
  <speed>0.0</speed>
  <fix>3d</fix>
</trkpt>
<trkpt lat="-27.2744392" lon="151.2900641">
  <ele>343.12</ele>
  <time>2026-09-01T19:49:44Z</time>
  <course>11.38</course>
  <speed>0.03605551275463989</speed>
  <fix>3d</fix>
</trkpt>
<trkpt lat="-27.274439" lon="151.290064">
  <ele>343.1</ele>
  <time>2026-09-01T19:49:44Z</time>
  <course>270.0</course>
  <speed>0.0</speed>
  <fix>3d</fix>
</trkpt>
<trkpt lat="-27.2744392" lon="151.2900641">
  <ele>343.12</ele>
  <time>2026-09-01T19:49:44Z</time>
  <course>11.38</course>
  <speed>0.03605551275463989</speed>
  <fix>3d</fix>
</trkpt>
<trkpt lat="-27.274439" lon="151.290064">
  <ele>343.1</ele>
  <time>2026-09-01T19:49:44Z</time>
  <course>270.0</course>
  <speed>0.0</speed>
  <fix>3d</fix>
</trkpt>
<trkpt lat="-27.2744392" lon="151.2900641">
  <ele>343.12</ele>
  <time>2026-09-01T19:49:44Z</time>
  <course>11.38</course>
  <speed>0.03605551275463989</speed>
  <fix>3d</fix>
</trkpt>
<trkpt lat="-27.274439" lon="151.290064">
  <ele>343.1</ele>
  <time>2026-09-01T19:49:44Z</time>
  <course>270.0</course>
  <speed>0.0</speed>
  <fix>3d</fix>
</trkpt>
<trkpt lat="-27.2744392" lon="151.2900641">
  <ele>343.12</ele>
  <time>2026-09-01T19:49:44Z</time>
  <course>11.38</course>
  <speed>0.03605551275463989</speed>
  <fix>3d</fix>
</trkpt>
<trkpt lat="-27.274439" lon="151.290064">
  <ele>343.1</ele>
  <time>2026-09-01T19:49:44Z</time>
  <course>270.0</course>
  <speed>0.0</speed>
  <fix>3d</fix>
</trkpt>
<trkpt lat="-27.2744392" lon="151.2900641">
  <ele>343.13</ele>
  <time>2026-09-01T19:49:44Z</time>
  <course>11.38</course>
  <speed>0.03605551275463989</speed>
  <fix>3d</fix>
</trkpt>
<trkpt lat="-27.274439" lon="151.290064">
  <ele>343.1</ele>
  <time>2026-09-01T19:49:44Z</time>
  <course>270.0</course>
  <speed>0.0</speed>
  <fix>3d</fix>
</trkpt>
<trkpt lat="-27.2744392" lon="151.2900641">
  <ele>343.13</ele>
  <time>2026-09-01T19:49:44Z</time>
  <course>11.38</course>
  <speed>0.03605551275463989</speed>
  <fix>3d</fix>
</trkpt>
<trkpt lat="-27.274439" lon="151.290064">
  <ele>343.1</ele>
  <time>2026-09-01T19:49:44Z</time>
  <course>270.0</course>
  <speed>0.0</speed>
  <fix>3d</fix>
</trkpt>
<trkpt lat="-27.2744392" lon="151.2900641">
  <ele>343.13</ele>
  <time>2026-09-01T19:49:44Z</time>
  <course>11.38</course>
  <speed>0.03605551275463989</speed>
  <fix>3d</fix>
</trkpt>
<trkpt lat="-27.274439" lon="151.290064">
  <ele>343.1</ele>
  <time>2026-09-01T19:49:44Z</time>
  <course>270.0</course>
  <speed>0.0</speed>
  <fix>3d</fix>
</trkpt>
<trkpt lat="-27.2744392" lon="151.2900641">
  <ele>343.14</ele>
  <time>2026-09-01T19:49:44Z</time>
  <course>11.38</course>
  <speed>0.03605551275463989</speed>
  <fix>3d</fix>
</trkpt>
<trkpt lat="-27.274439" lon="151.290064">
  <ele>343.1</ele>
  <time>2026-09-01T19:49:44Z</time>
  <course>270.0</course>
  <speed>0.0</speed>
  <fix>3d</fix>
</trkpt>
<trkpt lat="-27.2744392" lon="151.2900641">
  <ele>343.14</ele>
  <time>2026-09-01T19:49:44Z</time>
  <course>11.38</course>
  <speed>0.03605551275463989</speed>
  <fix>3d</fix>
</trkpt>
<trkpt lat="-27.274439" lon="151.290064">
  <ele>343.1</ele>
  <time>2026-09-01T19:49:44Z</time>
  <course>270.0</course>
  <speed>0.0</speed>
  <fix>3d</fix>
</trkpt>
<trkpt lat="-27.2744392" lon="151.2900641">
  <ele>343.14</ele>
  <time>2026-09-01T19:49:44Z</time>
  <course>11.38</course>
  <speed>0.03605551275463989</speed>
  <fix>3d</fix>
</trkpt>
<trkpt lat="-27.274439" lon="151.290064">
  <ele>343.1</ele>
  <time>2026-09-01T19:49:44Z</time>
  <course>270.0</course>
  <speed>0.0</speed>
  <fix>3d</fix>
</trkpt>
<trkpt lat="-27.2744392" lon="151.2900641">
  <ele>343.15</ele>
  <time>2026-09-01T19:49:44Z</time>
  <course>11.38</course>
  <speed>0.03605551275463989</speed>
  <fix>3d</fix>
</trkpt>
<trkpt lat="-27.274439" lon="151.290064">
  <ele>343.1</ele>
  <time>2026-09-01T19:49:44Z</time>
  <course>270.0</course>
  <speed>0.0</speed>
  <fix>3d</fix>
</trkpt>
<trkpt lat="-27.2744392" lon="151.2900641">
  <ele>343.15</ele>
  <time>2026-09-01T19:49:44Z</time>
  <course>11.38</course>
  <speed>0.03605551275463989</speed>
  <fix>3d</fix>
</trkpt>
<trkpt lat="-27.274439" lon="151.290064">
  <ele>343.1</ele>
  <time>2026-09-01T19:49:44Z</time>
  <course>270.0</course>
  <speed>0.0</speed>
  <fix>3d</fix>
</trkpt>
<trkpt lat="-27.2744392" lon="151.2900641">
  <ele>343.15</ele>
  <time>2026-09-01T19:49:44Z</time>
  <course>11.38</course>
  <speed>0.03605551275463989</speed>
  <fix>3d</fix>
</trkpt>
<trkpt lat="-27.274439" lon="151.290064">
  <ele>343.1</ele>
  <time>2026-09-01T19:49:44Z</time>
  <course>270.0</course>
  <speed>0.0</speed>
  <fix>3d</fix>
</trkpt>
<trkpt lat="-27.2744392" lon="151.2900641">
  <ele>343.15</ele>
  <time>2026-09-01T19:49:44Z</time>
  <course>11.38</course>
  <speed>0.03605551275463989</speed>
  <fix>3d</fix>
</trkpt>
<trkpt lat="-27.274439" lon="151.290064">
  <ele>343.1</ele>
  <time>2026-09-01T19:49:44Z</time>
  <course>270.0</course>
  <speed>0.0</speed>
  <fix>3d</fix>
</trkpt>
<trkpt lat="-27.2744392" lon="151.2900641">
  <ele>343.15</ele>
  <time>2026-09-01T19:49:44Z</time>
  <course>11.38</course>
  <speed>0.03605551275463989</speed>
  <fix>3d</fix>
</trkpt>
<trkpt lat="-27.274439" lon="151.290064">
  <ele>343.1</ele>
  <time>2026-09-01T19:49:44Z</time>
  <course>270.0</course>
  <speed>0.0</speed>
  <fix>3d</fix>
</trkpt>
<trkpt lat="-27.2744392" lon="151.2900641">
  <ele>343.15</ele>
  <time>2026-09-01T19:49:44Z</time>
  <course>11.38</course>
  <speed>0.03605551275463989</speed>
  <fix>3d</fix>
</trkpt>
<trkpt lat="-27.274439" lon="151.290064">
  <ele>343.1</ele>
  <time>2026-09-01T19:49:44Z</time>
  <course>270.0</course>
  <speed>0.0</speed>
  <fix>3d</fix>
</trkpt>
<trkpt lat="-27.2744392" lon="151.2900641">
  <ele>343.16</ele>
  <time>2026-09-01T19:49:44Z</time>
  <course>11.38</course>
  <speed>0.03605551275463989</speed>
  <fix>3d</fix>
</trkpt>
<trkpt lat="-27.274439" lon="151.290064">
  <ele>343.1</ele>
  <time>2026-09-01T19:49:44Z</time>
  <course>270.0</course>
  <speed>0.0</speed>
  <fix>3d</fix>
</trkpt>
<trkpt lat="-27.2744392" lon="151.2900641">
  <ele>343.16</ele>
  <time>2026-09-01T19:49:44Z</time>
  <course>11.38</course>
  <speed>0.03605551275463989</speed>
  <fix>3d</fix>
</trkpt>
<trkpt lat="-27.274439" lon="151.290064">
  <ele>343.1</ele>
  <time>2026-09-01T19:49:44Z</time>
  <course>270.0</course>
  <speed>0.0</speed>
  <fix>3d</fix>
</trkpt>
<trkpt lat="-27.2744392" lon="151.2900641">
  <ele>343.16</ele>
  <time>2026-09-01T19:49:44Z</time>
  <course>11.38</course>
  <speed>0.03605551275463989</speed>
  <fix>3d</fix>
</trkpt>
<trkpt lat="-27.274439" lon="151.290064">
  <ele>343.1</ele>
  <time>2026-09-01T19:49:44Z</time>
  <course>270.0</course>
  <speed>0.0</speed>
  <fix>3d</fix>
</trkpt>
<trkpt lat="-27.2744392" lon="151.2900642">
  <ele>343.16</ele>
  <time>2026-09-01T19:49:44Z</time>
  <course>11.38</course>
  <speed>0.03605551275463989</speed>
  <fix>3d</fix>
</trkpt>
<trkpt lat="-27.274439" lon="151.290064">
  <ele>343.1</ele>
  <time>2026-09-01T19:49:44Z</time>
  <course>270.0</course>
  <speed>0.0</speed>
  <fix>3d</fix>
</trkpt>
<trkpt lat="-27.2744392" lon="151.2900642">
  <ele>343.16</ele>
  <time>2026-09-01T19:49:44Z</time>
  <course>11.38</course>
  <speed>0.03605551275463989</speed>
  <fix>3d</fix>
</trkpt>
<trkpt lat="-27.274439" lon="151.290064">
  <ele>343.1</ele>
  <time>2026-09-01T19:49:44Z</time>
  <course>270.0</course>
  <speed>0.0</speed>
  <fix>3d</fix>
</trkpt>
<trkpt lat="-27.2744392" lon="151.2900642">
  <ele>343.16</ele>
  <time>2026-09-01T19:49:44Z</time>
  <course>11.38</course>
  <speed>0.03605551275463989</speed>
  <fix>3d</fix>
</trkpt>
<trkpt lat="-27.274439" lon="151.290064">
  <ele>343.1</ele>
  <time>2026-09-01T19:49:44Z</time>
  <course>270.0</course>
  <speed>0.0</speed>
  <fix>3d</fix>
</trkpt>
<trkpt lat="-27.2744392" lon="151.2900642">
  <ele>343.16</ele>
  <time>2026-09-01T19:49:44Z</time>
  <course>11.38</course>
  <speed>0.03605551275463989</speed>
  <fix>3d</fix>
</trkpt>
<trkpt lat="-27.274439" lon="151.290064">
  <ele>343.1</ele>
  <time>2026-09-01T19:49:44Z</time>
  <course>270.0</course>
  <speed>0.0</speed>
  <fix>3d</fix>
</trkpt>
<trkpt lat="-27.2744392" lon="151.2900642">
  <ele>343.17</ele>
  <time>2026-09-01T19:49:44Z</time>
  <course>11.38</course>
  <speed>0.03605551275463989</speed>
  <fix>3d</fix>
</trkpt>
<trkpt lat="-27.274439" lon="151.290064">
  <ele>343.1</ele>
  <time>2026-09-01T19:49:44Z</time>
  <course>270.0</course>
  <speed>0.0</speed>
  <fix>3d</fix>
</trkpt>
<trkpt lat="-27.2744392" lon="151.2900642">
  <ele>343.17</ele>
  <time>2026-09-01T19:49:44Z</time>
  <course>11.38</course>
  <speed>0.03605551275463989</speed>
  <fix>3d</fix>
</trkpt>
<trkpt lat="-27.274439" lon="151.290064">
  <ele>343.1</ele>
  <time>2026-09-01T19:49:44Z</time>
  <course>270.0</course>
  <speed>0.0</speed>
  <fix>3d</fix>
</trkpt>
<trkpt lat="-27.2744392" lon="151.2900642">
  <ele>343.17</ele>
  <time>2026-09-01T19:49:44Z</time>
  <course>11.38</course>
  <speed>0.03605551275463989</speed>
  <fix>3d</fix>
</trkpt>
<trkpt lat="-27.274439" lon="151.290064">
  <ele>343.1</ele>
  <time>2026-09-01T19:49:44Z</time>
  <course>270.0</course>
  <speed>0.0</speed>
  <fix>3d</fix>
</trkpt>
<trkpt lat="-27.2744392" lon="151.2900642">
  <ele>343.17</ele>
  <time>2026-09-01T19:49:44Z</time>
  <course>11.38</course>
  <speed>0.03605551275463989</speed>
  <fix>3d</fix>
</trkpt>
<trkpt lat="-27.274439" lon="151.290064">
  <ele>343.1</ele>
  <time>2026-09-01T19:49:44Z</time>
  <course>270.0</course>
  <speed>0.0</speed>
  <fix>3d</fix>
</trkpt>
<trkpt lat="-27.2744392" lon="151.2900642">
  <ele>343.18</ele>
  <time>2026-09-01T19:49:44Z</time>
  <course>11.38</course>
  <speed>0.03605551275463989</speed>
  <fix>3d</fix>
</trkpt>
<trkpt lat="-27.274439" lon="151.290064">
  <ele>343.1</ele>
  <time>2026-09-01T19:49:44Z</time>
  <course>270.0</course>
  <speed>0.0</speed>
  <fix>3d</fix>
</trkpt>
<trkpt lat="-27.2744392" lon="151.2900642">
  <ele>343.18</ele>
  <time>2026-09-01T19:49:44Z</time>
  <course>11.38</course>
  <speed>0.03605551275463989</speed>
  <fix>3d</fix>
</trkpt>
<trkpt lat="-27.274439" lon="151.290064">
  <ele>343.1</ele>
  <time>2026-09-01T19:49:44Z</time>
  <course>270.0</course>
  <speed>0.0</speed>
  <fix>3d</fix>
</trkpt>
<trkpt lat="-27.2744392" lon="151.2900642">
  <ele>343.19</ele>
  <time>2026-09-01T19:49:44Z</time>
  <course>11.38</course>
  <speed>0.03605551275463989</speed>
  <fix>3d</fix>
</trkpt>
<trkpt lat="-27.274439" lon="151.290064">
  <ele>343.1</ele>
  <time>2026-09-01T19:49:44Z</time>
  <course>270.0</course>
  <speed>0.0</speed>
  <fix>3d</fix>
</trkpt>
<trkpt lat="-27.2744392" lon="151.2900642">
  <ele>343.19</ele>
  <time>2026-09-01T19:49:44Z</time>
  <course>11.38</course>
  <speed>0.03605551275463989</speed>
  <fix>3d</fix>
</trkpt>
<trkpt lat="-27.274439" lon="151.290064">
  <ele>343.1</ele>
  <time>2026-09-01T19:49:44Z</time>
  <course>270.0</course>
  <speed>0.0</speed>
  <fix>3d</fix>
</trkpt>
<trkpt lat="-27.2744392" lon="151.2900642">
  <ele>343.19</ele>
  <time>2026-09-01T19:49:44Z</time>
  <course>11.38</course>
  <speed>0.03605551275463989</speed>
  <fix>3d</fix>
</trkpt>
<trkpt lat="-27.274439" lon="151.290064">
  <ele>343.1</ele>
  <time>2026-09-01T19:49:44Z</time>
  <course>270.0</course>
  <speed>0.0</speed>
  <fix>3d</fix>
</trkpt>
<trkpt lat="-27.2744392" lon="151.2900642">
  <ele>343.19</ele>
  <time>2026-09-01T19:49:44Z</time>
  <course>11.38</course>
  <speed>0.03605551275463989</speed>
  <fix>3d</fix>
</trkpt>
<trkpt lat="-27.274439" lon="151.290064">
  <ele>343.1</ele>
  <time>2026-09-01T19:49:44Z</time>
  <course>270.0</course>
  <speed>0.0</speed>
  <fix>3d</fix>
</trkpt>
<trkpt lat="-27.2744392" lon="151.2900642">
  <ele>343.2</ele>
  <time>2026-09-01T19:49:44Z</time>
  <course>11.38</course>
  <speed>0.03605551275463989</speed>
  <fix>3d</fix>
</trkpt>
<trkpt lat="-27.274439" lon="151.290064">
  <ele>343.1</ele>
  <time>2026-09-01T19:49:44Z</time>
  <course>270.0</course>
  <speed>0.0</speed>
  <fix>3d</fix>
</trkpt>
<trkpt lat="-27.2744392" lon="151.2900642">
  <ele>343.2</ele>
  <time>2026-09-01T19:49:44Z</time>
  <course>11.38</course>
  <speed>0.03605551275463989</speed>
  <fix>3d</fix>
</trkpt>
<trkpt lat="-27.274439" lon="151.290064">
  <ele>343.1</ele>
  <time>2026-09-01T19:49:44Z</time>
  <course>270.0</course>
  <speed>0.0</speed>
  <fix>3d</fix>
</trkpt>
<trkpt lat="-27.2744392" lon="151.2900642">
  <ele>343.2</ele>
  <time>2026-09-01T19:49:44Z</time>
  <course>11.38</course>
  <speed>0.03605551275463989</speed>
  <fix>3d</fix>
</trkpt>
<trkpt lat="-27.274439" lon="151.290064">
  <ele>343.1</ele>
  <time>2026-09-01T19:49:44Z</time>
  <course>270.0</course>
  <speed>0.0</speed>
  <fix>3d</fix>
</trkpt>
<trkpt lat="-27.2744392" lon="151.2900642">
  <ele>343.2</ele>
  <time>2026-09-01T19:49:44Z</time>
  <course>11.38</course>
  <speed>0.03605551275463989</speed>
  <fix>3d</fix>
</trkpt>
<trkpt lat="-27.274439" lon="151.290064">
  <ele>343.1</ele>
  <time>2026-09-01T19:49:44Z</time>
  <course>270.0</course>
  <speed>0.0</speed>
  <fix>3d</fix>
</trkpt>
<trkpt lat="-27.2744392" lon="151.2900642">
  <ele>343.2</ele>
  <time>2026-09-01T19:49:44Z</time>
  <course>11.38</course>
  <speed>0.03605551275463989</speed>
  <fix>3d</fix>
</trkpt>
<trkpt lat="-27.274439" lon="151.290064">
  <ele>343.1</ele>
  <time>2026-09-01T19:49:44Z</time>
  <course>270.0</course>
  <speed>0.0</speed>
  <fix>3d</fix>
</trkpt>
<trkpt lat="-27.2744392" lon="151.2900642">
  <ele>343.21</ele>
  <time>2026-09-01T19:49:44Z</time>
  <course>11.38</course>
  <speed>0.03605551275463989</speed>
  <fix>3d</fix>
</trkpt>
<trkpt lat="-27.274439" lon="151.290064">
  <ele>343.1</ele>
  <time>2026-09-01T19:49:44Z</time>
  <course>270.0</course>
  <speed>0.0</speed>
  <fix>3d</fix>
</trkpt>
<trkpt lat="-27.2744392" lon="151.2900642">
  <ele>343.21</ele>
  <time>2026-09-01T19:49:44Z</time>
  <course>11.38</course>
  <speed>0.03605551275463989</speed>
  <fix>3d</fix>
</trkpt>
<trkpt lat="-27.274439" lon="151.290064">
  <ele>343.1</ele>
  <time>2026-09-01T19:49:44Z</time>
  <course>270.0</course>
  <speed>0.0</speed>
  <fix>3d</fix>
</trkpt>
<trkpt lat="-27.2744392" lon="151.2900642">
  <ele>343.21</ele>
  <time>2026-09-01T19:49:44Z</time>
  <course>11.39</course>
  <speed>0.03605551275463989</speed>
  <fix>3d</fix>
</trkpt>
<trkpt lat="-27.274439" lon="151.290064">
  <ele>343.1</ele>
  <time>2026-09-01T19:49:44Z</time>
  <course>270.0</course>
  <speed>0.0</speed>
  <fix>3d</fix>
</trkpt>
<trkpt lat="-27.2744392" lon="151.2900642">
  <ele>343.21</ele>
  <time>2026-09-01T19:49:44Z</time>
  <course>11.39</course>
  <speed>0.03605551275463989</speed>
  <fix>3d</fix>
</trkpt>
<trkpt lat="-27.274439" lon="151.290064">
  <ele>343.1</ele>
  <time>2026-09-01T19:49:44Z</time>
  <course>270.0</course>
  <speed>0.0</speed>
  <fix>3d</fix>
</trkpt>
<trkpt lat="-27.2744392" lon="151.2900642">
  <ele>343.21</ele>
  <time>2026-09-01T19:49:44Z</time>
  <course>11.39</course>
  <speed>0.03605551275463989</speed>
  <fix>3d</fix>
</trkpt>
<trkpt lat="-27.274439" lon="151.290064">
  <ele>343.1</ele>
  <time>2026-09-01T19:49:44Z</time>
  <course>270.0</course>
  <speed>0.0</speed>
  <fix>3d</fix>
</trkpt>
<trkpt lat="-27.2744392" lon="151.2900642">
  <ele>343.22</ele>
  <time>2026-09-01T19:49:44Z</time>
  <course>11.39</course>
  <speed>0.03605551275463989</speed>
  <fix>3d</fix>
</trkpt>
<trkpt lat="-27.274439" lon="151.290064">
  <ele>343.1</ele>
  <time>2026-09-01T19:49:44Z</time>
  <course>270.0</course>
  <speed>0.0</speed>
  <fix>3d</fix>
</trkpt>
<trkpt lat="-27.2744392" lon="151.2900642">
  <ele>343.22</ele>
  <time>2026-09-01T19:49:44Z</time>
  <course>11.39</course>
  <speed>0.03605551275463989</speed>
  <fix>3d</fix>
</trkpt>
<trkpt lat="-27.274439" lon="151.290064">
  <ele>343.1</ele>
  <time>2026-09-01T19:49:44Z</time>
  <course>270.0</course>
  <speed>0.0</speed>
  <fix>3d</fix>
</trkpt>
<trkpt lat="-27.2744392" lon="151.2900642">
  <ele>343.22</ele>
  <time>2026-09-01T19:49:44Z</time>
  <course>11.39</course>
  <speed>0.03605551275463989</speed>
  <fix>3d</fix>
</trkpt>
<trkpt lat="-27.274439" lon="151.290064">
  <ele>343.1</ele>
  <time>2026-09-01T19:49:44Z</time>
  <course>270.0</course>
  <speed>0.0</speed>
  <fix>3d</fix>
</trkpt>
<trkpt lat="-27.2744392" lon="151.2900642">
  <ele>343.23</ele>
  <time>2026-09-01T19:49:44Z</time>
  <course>11.39</course>
  <speed>0.03605551275463989</speed>
  <fix>3d</fix>
</trkpt>
<trkpt lat="-27.274439" lon="151.290064">
  <ele>343.1</ele>
  <time>2026-09-01T19:49:44Z</time>
  <course>270.0</course>
  <speed>0.0</speed>
  <fix>3d</fix>
</trkpt>
<trkpt lat="-27.2744393" lon="151.2900642">
  <ele>343.23</ele>
  <time>2026-09-01T19:49:44Z</time>
  <course>11.39</course>
  <speed>0.03605551275463989</speed>
  <fix>3d</fix>
</trkpt>
<trkpt lat="-27.274439" lon="151.290064">
  <ele>343.1</ele>
  <time>2026-09-01T19:49:44Z</time>
  <course>270.0</course>
  <speed>0.0</speed>
  <fix>3d</fix>
</trkpt>
<trkpt lat="-27.2744392" lon="151.2900642">
  <ele>343.23</ele>
  <time>2026-09-01T19:49:44Z</time>
  <course>11.39</course>
  <speed>0.03605551275463989</speed>
  <fix>3d</fix>
</trkpt>
<trkpt lat="-27.274439" lon="151.290064">
  <ele>343.1</ele>
  <time>2026-09-01T19:49:44Z</time>
  <course>270.0</course>
  <speed>0.0</speed>
  <fix>3d</fix>
</trkpt>
<trkpt lat="-27.2744393" lon="151.2900642">
  <ele>343.23</ele>
  <time>2026-09-01T19:49:44Z</time>
  <course>11.39</course>
  <speed>0.03605551275463989</speed>
  <fix>3d</fix>
</trkpt>
<trkpt lat="-27.274439" lon="151.290064">
  <ele>343.1</ele>
  <time>2026-09-01T19:49:44Z</time>
  <course>270.0</course>
  <speed>0.0</speed>
  <fix>3d</fix>
</trkpt>
<trkpt lat="-27.2744392" lon="151.2900642">
  <ele>343.23</ele>
  <time>2026-09-01T19:49:44Z</time>
  <course>11.39</course>
  <speed>0.03605551275463989</speed>
  <fix>3d</fix>
</trkpt>
<trkpt lat="-27.274439" lon="151.290064">
  <ele>343.1</ele>
  <time>2026-09-01T19:49:44Z</time>
  <course>270.0</course>
  <speed>0.0</speed>
  <fix>3d</fix>
</trkpt>
<trkpt lat="-27.2744393" lon="151.2900642">
  <ele>343.23</ele>
  <time>2026-09-01T19:49:44Z</time>
  <course>11.39</course>
  <speed>0.03605551275463989</speed>
  <fix>3d</fix>
</trkpt>
<trkpt lat="-27.274439" lon="151.290064">
  <ele>343.1</ele>
  <time>2026-09-01T19:49:44Z</time>
  <course>270.0</course>
  <speed>0.0</speed>
  <fix>3d</fix>
</trkpt>
<trkpt lat="-27.2744392" lon="151.2900642">
  <ele>343.1</ele>
  <time>2026-09-01T19:49:44Z</time>
  <course>11.39</course>
  <speed>0.03605551275463989</speed>
  <fix>3d</fix>
</trkpt>
<trkpt lat="-27.274439" lon="151.290064">
  <ele>343.1</ele>
  <time>2026-09-01T19:49:44Z</time>
  <course>270.0</course>
  <speed>0.0</speed>
  <fix>3d</fix>
</trkpt>
<trkpt lat="-27.2744393" lon="151.2900642">
  <ele>343.1</ele>
  <time>2026-09-01T19:49:44Z</time>
  <course>11.39</course>
  <speed>0.03605551275463989</speed>
  <fix>3d</fix>
</trkpt>
<trkpt lat="-27.274439" lon="151.290064">
  <ele>343.1</ele>
  <time>2026-09-01T19:49:44Z</time>
  <course>270.0</course>
  <speed>0.0</speed>
  <fix>3d</fix>
</trkpt>
<trkpt lat="-27.2744392" lon="151.2900642">
  <ele>343.1</ele>
  <time>2026-09-01T19:49:44Z</time>
  <course>11.39</course>
  <speed>0.03605551275463989</speed>
  <fix>3d</fix>
</trkpt>
<trkpt lat="-27.274439" lon="151.290064">
  <ele>343.1</ele>
  <time>2026-09-01T19:49:44Z</time>
  <course>270.0</course>
  <speed>0.0</speed>
  <fix>3d</fix>
</trkpt>
<trkpt lat="-27.2744393" lon="151.2900642">
  <ele>343.1</ele>
  <time>2026-09-01T19:49:44Z</time>
  <course>11.39</course>
  <speed>0.03605551275463989</speed>
  <fix>3d</fix>
</trkpt>
<trkpt lat="-27.274439" lon="151.290064">
  <ele>343.1</ele>
  <time>2026-09-01T19:49:44Z</time>
  <course>270.0</course>
  <speed>0.0</speed>
  <fix>3d</fix>
</trkpt>
<trkpt lat="-27.2744392" lon="151.2900642">
  <ele>343.11</ele>
  <time>2026-09-01T19:49:44Z</time>
  <course>11.39</course>
  <speed>0.03605551275463989</speed>
  <fix>3d</fix>
</trkpt>
<trkpt lat="-27.274439" lon="151.290064">
  <ele>343.1</ele>
  <time>2026-09-01T19:49:44Z</time>
  <course>270.0</course>
  <speed>0.0</speed>
  <fix>3d</fix>
</trkpt>
<trkpt lat="-27.2744393" lon="151.2900642">
  <ele>343.11</ele>
  <time>2026-09-01T19:49:44Z</time>
  <course>11.39</course>
  <speed>0.03605551275463989</speed>
  <fix>3d</fix>
</trkpt>
<trkpt lat="-27.274439" lon="151.290064">
  <ele>343.1</ele>
  <time>2026-09-01T19:49:44Z</time>
  <course>270.0</course>
  <speed>0.0</speed>
  <fix>3d</fix>
</trkpt>
<trkpt lat="-27.2744392" lon="151.2900642">
  <ele>343.12</ele>
  <time>2026-09-01T19:49:44Z</time>
  <course>11.39</course>
  <speed>0.03605551275463989</speed>
  <fix>3d</fix>
</trkpt>
<trkpt lat="-27.274439" lon="151.290064">
  <ele>343.1</ele>
  <time>2026-09-01T19:49:44Z</time>
  <course>270.0</course>
  <speed>0.0</speed>
  <fix>3d</fix>
</trkpt>
<trkpt lat="-27.2744392" lon="151.2900642">
  <ele>343.12</ele>
  <time>2026-09-01T19:49:44Z</time>
  <course>11.39</course>
  <speed>0.03605551275463989</speed>
  <fix>3d</fix>
</trkpt>
<trkpt lat="-27.274439" lon="151.290064">
  <ele>343.1</ele>
  <time>2026-09-01T19:49:44Z</time>
  <course>270.0</course>
  <speed>0.0</speed>
  <fix>3d</fix>
</trkpt>
<trkpt lat="-27.2744392" lon="151.2900642">
  <ele>343.13</ele>
  <time>2026-09-01T19:49:44Z</time>
  <course>11.39</course>
  <speed>0.03605551275463989</speed>
  <fix>3d</fix>
</trkpt>
<trkpt lat="-27.274439" lon="151.290064">
  <ele>343.1</ele>
  <time>2026-09-01T19:49:44Z</time>
  <course>270.0</course>
  <speed>0.0</speed>
  <fix>3d</fix>
</trkpt>
<trkpt lat="-27.2744392" lon="151.2900642">
  <ele>343.13</ele>
  <time>2026-09-01T19:49:44Z</time>
  <course>11.39</course>
  <speed>0.03605551275463989</speed>
  <fix>3d</fix>
</trkpt>
<trkpt lat="-27.274439" lon="151.290064">
  <ele>343.1</ele>
  <time>2026-09-01T19:49:44Z</time>
  <course>270.0</course>
  <speed>0.0</speed>
  <fix>3d</fix>
</trkpt>
<trkpt lat="-27.2744392" lon="151.2900642">
  <ele>343.14</ele>
  <time>2026-09-01T19:49:44Z</time>
  <course>11.39</course>
  <speed>0.03605551275463989</speed>
  <fix>3d</fix>
</trkpt>
<trkpt lat="-27.274439" lon="151.290064">
  <ele>343.1</ele>
  <time>2026-09-01T19:49:44Z</time>
  <course>270.0</course>
  <speed>0.0</speed>
  <fix>3d</fix>
</trkpt>
<trkpt lat="-27.2744392" lon="151.2900642">
  <ele>343.15</ele>
  <time>2026-09-01T19:49:44Z</time>
  <course>11.39</course>
  <speed>0.03605551275463989</speed>
  <fix>3d</fix>
</trkpt>
<trkpt lat="-27.274439" lon="151.290064">
  <ele>343.1</ele>
  <time>2026-09-01T19:49:44Z</time>
  <course>270.0</course>
  <speed>0.0</speed>
  <fix>3d</fix>
</trkpt>
<trkpt lat="-27.2744392" lon="151.2900642">
  <ele>343.15</ele>
  <time>2026-09-01T19:49:44Z</time>
  <course>11.39</course>
  <speed>0.03605551275463989</speed>
  <fix>3d</fix>
</trkpt>
<trkpt lat="-27.274439" lon="151.290064">
  <ele>343.1</ele>
  <time>2026-09-01T19:49:44Z</time>
  <course>270.0</course>
  <speed>0.0</speed>
  <fix>3d</fix>
</trkpt>
<trkpt lat="-27.2744392" lon="151.2900642">
  <ele>343.16</ele>
  <time>2026-09-01T19:49:44Z</time>
  <course>11.39</course>
  <speed>0.03605551275463989</speed>
  <fix>3d</fix>
</trkpt>
<trkpt lat="-27.274439" lon="151.290064">
  <ele>343.1</ele>
  <time>2026-09-01T19:49:44Z</time>
  <course>270.0</course>
  <speed>0.0</speed>
  <fix>3d</fix>
</trkpt>
<trkpt lat="-27.2744392" lon="151.2900642">
  <ele>343.17</ele>
  <time>2026-09-01T19:49:44Z</time>
  <course>11.39</course>
  <speed>0.03605551275463989</speed>
  <fix>3d</fix>
</trkpt>
<trkpt lat="-27.274439" lon="151.290064">
  <ele>343.1</ele>
  <time>2026-09-01T19:49:44Z</time>
  <course>270.0</course>
  <speed>0.0</speed>
  <fix>3d</fix>
</trkpt>
<trkpt lat="-27.2744392" lon="151.2900642">
  <ele>343.17</ele>
  <time>2026-09-01T19:49:44Z</time>
  <course>11.39</course>
  <speed>0.03605551275463989</speed>
  <fix>3d</fix>
</trkpt>
<trkpt lat="-27.274439" lon="151.290064">
  <ele>343.1</ele>
  <time>2026-09-01T19:49:44Z</time>
  <course>270.0</course>
  <speed>0.0</speed>
  <fix>3d</fix>
</trkpt>
<trkpt lat="-27.2744392" lon="151.2900642">
  <ele>343.18</ele>
  <time>2026-09-01T19:49:44Z</time>
  <course>11.39</course>
  <speed>0.03605551275463989</speed>
  <fix>3d</fix>
</trkpt>
<trkpt lat="-27.274439" lon="151.290064">
  <ele>343.1</ele>
  <time>2026-09-01T19:49:44Z</time>
  <course>270.0</course>
  <speed>0.0</speed>
  <fix>3d</fix>
</trkpt>
<trkpt lat="-27.2744392" lon="151.2900642">
  <ele>343.19</ele>
  <time>2026-09-01T19:49:44Z</time>
  <course>11.39</course>
  <speed>0.03605551275463989</speed>
  <fix>3d</fix>
</trkpt>
<trkpt lat="-27.274439" lon="151.290064">
  <ele>343.1</ele>
  <time>2026-09-01T19:49:44Z</time>
  <course>270.0</course>
  <speed>0.0</speed>
  <fix>3d</fix>
</trkpt>
<trkpt lat="-27.2744392" lon="151.2900642">
  <ele>343.19</ele>
  <time>2026-09-01T19:49:44Z</time>
  <course>11.39</course>
  <speed>0.03605551275463989</speed>
  <fix>3d</fix>
</trkpt>
<trkpt lat="-27.274439" lon="151.290064">
  <ele>343.1</ele>
  <time>2026-09-01T19:49:44Z</time>
  <course>270.0</course>
  <speed>0.0</speed>
  <fix>3d</fix>
</trkpt>
<trkpt lat="-27.2744392" lon="151.2900642">
  <ele>343.2</ele>
  <time>2026-09-01T19:49:44Z</time>
  <course>11.39</course>
  <speed>0.03605551275463989</speed>
  <fix>3d</fix>
</trkpt>
<trkpt lat="-27.274439" lon="151.290064">
  <ele>343.1</ele>
  <time>2026-09-01T19:49:44Z</time>
  <course>270.0</course>
  <speed>0.0</speed>
  <fix>3d</fix>
</trkpt>
<trkpt lat="-27.2744392" lon="151.2900642">
  <ele>343.21</ele>
  <time>2026-09-01T19:49:44Z</time>
  <course>11.39</course>
  <speed>0.03605551275463989</speed>
  <fix>3d</fix>
</trkpt>
<trkpt lat="-27.274439" lon="151.290064">
  <ele>343.1</ele>
  <time>2026-09-01T19:49:44Z</time>
  <course>270.0</course>
  <speed>0.0</speed>
  <fix>3d</fix>
</trkpt>
<trkpt lat="-27.2744392" lon="151.2900642">
  <ele>343.21</ele>
  <time>2026-09-01T19:49:44Z</time>
  <course>11.39</course>
  <speed>0.03605551275463989</speed>
  <fix>3d</fix>
</trkpt>
<trkpt lat="-27.274439" lon="151.290064">
  <ele>343.1</ele>
  <time>2026-09-01T19:49:44Z</time>
  <course>270.0</course>
  <speed>0.0</speed>
  <fix>3d</fix>
</trkpt>
<trkpt lat="-27.2744392" lon="151.2900642">
  <ele>343.21</ele>
  <time>2026-09-01T19:49:44Z</time>
  <course>11.39</course>
  <speed>0.03605551275463989</speed>
  <fix>3d</fix>
</trkpt>
<trkpt lat="-27.274439" lon="151.290064">
  <ele>343.1</ele>
  <time>2026-09-01T19:49:44Z</time>
  <course>270.0</course>
  <speed>0.0</speed>
  <fix>3d</fix>
</trkpt>
<trkpt lat="-27.2744392" lon="151.2900642">
  <ele>343.22</ele>
  <time>2026-09-01T19:49:44Z</time>
  <course>11.39</course>
  <speed>0.03605551275463989</speed>
  <fix>3d</fix>
</trkpt>
<trkpt lat="-27.274439" lon="151.290064">
  <ele>343.1</ele>
  <time>2026-09-01T19:49:44Z</time>
  <course>270.0</course>
  <speed>0.0</speed>
  <fix>3d</fix>
</trkpt>
<trkpt lat="-27.2744392" lon="151.2900642">
  <ele>343.22</ele>
  <time>2026-09-01T19:49:44Z</time>
  <course>11.39</course>
  <speed>0.03605551275463989</speed>
  <fix>3d</fix>
</trkpt>
<trkpt lat="-27.274439" lon="151.290064">
  <ele>343.1</ele>
  <time>2026-09-01T19:49:44Z</time>
  <course>270.0</course>
  <speed>0.0</speed>
  <fix>3d</fix>
</trkpt>
<trkpt lat="-27.2744392" lon="151.2900642">
  <ele>343.23</ele>
  <time>2026-09-01T19:49:44Z</time>
  <course>11.39</course>
  <speed>0.03605551275463989</speed>
  <fix>3d</fix>
</trkpt>
<trkpt lat="-27.274439" lon="151.290064">
  <ele>343.1</ele>
  <time>2026-09-01T19:49:44Z</time>
  <course>270.0</course>
  <speed>0.0</speed>
  <fix>3d</fix>
</trkpt>
<trkpt lat="-27.2744392" lon="151.2900642">
  <ele>343.24</ele>
  <time>2026-09-01T19:49:44Z</time>
  <course>11.39</course>
  <speed>0.03605551275463989</speed>
  <fix>3d</fix>
</trkpt>
<trkpt lat="-27.274439" lon="151.290064">
  <ele>343.1</ele>
  <time>2026-09-01T19:49:44Z</time>
  <course>270.0</course>
  <speed>0.0</speed>
  <fix>3d</fix>
</trkpt>
<trkpt lat="-27.2744392" lon="151.2900642">
  <ele>343.24</ele>
  <time>2026-09-01T19:49:44Z</time>
  <course>11.4</course>
  <speed>0.03605551275463989</speed>
  <fix>3d</fix>
</trkpt>
<trkpt lat="-27.274439" lon="151.290064">
  <ele>343.1</ele>
  <time>2026-09-01T19:49:44Z</time>
  <course>270.0</course>
  <speed>0.0</speed>
  <fix>3d</fix>
</trkpt>
<trkpt lat="-27.2744392" lon="151.2900642">
  <ele>343.25</ele>
  <time>2026-09-01T19:49:44Z</time>
  <course>11.4</course>
  <speed>0.03605551275463989</speed>
  <fix>3d</fix>
</trkpt>
<trkpt lat="-27.274439" lon="151.290064">
  <ele>343.1</ele>
  <time>2026-09-01T19:49:44Z</time>
  <course>270.0</course>
  <speed>0.0</speed>
  <fix>3d</fix>
</trkpt>
<trkpt lat="-27.2744392" lon="151.2900642">
  <ele>343.25</ele>
  <time>2026-09-01T19:49:44Z</time>
  <course>11.4</course>
  <speed>0.03605551275463989</speed>
  <fix>3d</fix>
</trkpt>
<trkpt lat="-27.274439" lon="151.290064">
  <ele>343.1</ele>
  <time>2026-09-01T19:49:44Z</time>
  <course>270.0</course>
  <speed>0.0</speed>
  <fix>3d</fix>
</trkpt>
<trkpt lat="-27.2744392" lon="151.2900642">
  <ele>343.1</ele>
  <time>2026-09-01T19:49:44Z</time>
  <course>11.4</course>
  <speed>0.03605551275463989</speed>
  <fix>3d</fix>
</trkpt>
<trkpt lat="-27.274439" lon="151.290064">
  <ele>343.1</ele>
  <time>2026-09-01T19:49:44Z</time>
  <course>270.0</course>
  <speed>0.0</speed>
  <fix>3d</fix>
</trkpt>
<trkpt lat="-27.2744392" lon="151.2900642">
  <ele>343.1</ele>
  <time>2026-09-01T19:49:44Z</time>
  <course>11.4</course>
  <speed>0.03605551275463989</speed>
  <fix>3d</fix>
</trkpt>
<trkpt lat="-27.274439" lon="151.290064">
  <ele>343.1</ele>
  <time>2026-09-01T19:49:44Z</time>
  <course>270.0</course>
  <speed>0.0</speed>
  <fix>3d</fix>
</trkpt>
<trkpt lat="-27.2744392" lon="151.2900642">
  <ele>343.1</ele>
  <time>2026-09-01T19:49:44Z</time>
  <course>11.4</course>
  <speed>0.03605551275463989</speed>
  <fix>3d</fix>
</trkpt>
<trkpt lat="-27.274439" lon="151.290064">
  <ele>343.1</ele>
  <time>2026-09-01T19:49:44Z</time>
  <course>270.0</course>
  <speed>0.0</speed>
  <fix>3d</fix>
</trkpt>
<trkpt lat="-27.2744392" lon="151.2900642">
  <ele>343.1</ele>
  <time>2026-09-01T19:49:44Z</time>
  <course>11.4</course>
  <speed>0.03605551275463989</speed>
  <fix>3d</fix>
</trkpt>
<trkpt lat="-27.274439" lon="151.290064">
  <ele>343.1</ele>
  <time>2026-09-01T19:49:44Z</time>
  <course>270.0</course>
  <speed>0.0</speed>
  <fix>3d</fix>
</trkpt>
<trkpt lat="-27.2744392" lon="151.2900642">
  <ele>343.11</ele>
  <time>2026-09-01T19:49:44Z</time>
  <course>11.4</course>
  <speed>0.03605551275463989</speed>
  <fix>3d</fix>
</trkpt>
<trkpt lat="-27.274439" lon="151.290064">
  <ele>343.1</ele>
  <time>2026-09-01T19:49:44Z</time>
  <course>270.0</course>
  <speed>0.0</speed>
  <fix>3d</fix>
</trkpt>
<trkpt lat="-27.2744392" lon="151.2900642">
  <ele>343.11</ele>
  <time>2026-09-01T19:49:44Z</time>
  <course>11.4</course>
  <speed>0.03605551275463989</speed>
  <fix>3d</fix>
</trkpt>
<trkpt lat="-27.274439" lon="151.290064">
  <ele>343.1</ele>
  <time>2026-09-01T19:49:44Z</time>
  <course>270.0</course>
  <speed>0.0</speed>
  <fix>3d</fix>
</trkpt>
<trkpt lat="-27.2744392" lon="151.2900642">
  <ele>343.11</ele>
  <time>2026-09-01T19:49:44Z</time>
  <course>11.4</course>
  <speed>0.03605551275463989</speed>
  <fix>3d</fix>
</trkpt>
<trkpt lat="-27.274439" lon="151.290064">
  <ele>343.1</ele>
  <time>2026-09-01T19:49:44Z</time>
  <course>270.0</course>
  <speed>0.0</speed>
  <fix>3d</fix>
</trkpt>
<trkpt lat="-27.2744392" lon="151.2900642">
  <ele>343.11</ele>
  <time>2026-09-01T19:49:44Z</time>
  <course>11.4</course>
  <speed>0.03605551275463989</speed>
  <fix>3d</fix>
</trkpt>
<trkpt lat="-27.274439" lon="151.290064">
  <ele>343.1</ele>
  <time>2026-09-01T19:49:44Z</time>
  <course>270.0</course>
  <speed>0.0</speed>
  <fix>3d</fix>
</trkpt>
<trkpt lat="-27.2744392" lon="151.2900642">
  <ele>343.11</ele>
  <time>2026-09-01T19:49:44Z</time>
  <course>11.4</course>
  <speed>0.022360679774997897</speed>
  <fix>3d</fix>
</trkpt>
<trkpt lat="-27.274439" lon="151.290064">
  <ele>343.1</ele>
  <time>2026-09-01T19:49:44Z</time>
  <course>270.0</course>
  <speed>0.0</speed>
  <fix>3d</fix>
</trkpt>
<trkpt lat="-27.2744392" lon="151.2900642">
  <ele>343.12</ele>
  <time>2026-09-01T19:49:44Z</time>
  <course>11.4</course>
  <speed>0.022360679774997897</speed>
  <fix>3d</fix>
</trkpt>
<trkpt lat="-27.274439" lon="151.290064">
  <ele>343.1</ele>
  <time>2026-09-01T19:49:44Z</time>
  <course>270.0</course>
  <speed>0.0</speed>
  <fix>3d</fix>
</trkpt>
<trkpt lat="-27.2744392" lon="151.2900642">
  <ele>343.12</ele>
  <time>2026-09-01T19:49:44Z</time>
  <course>11.4</course>
  <speed>0.022360679774997897</speed>
  <fix>3d</fix>
</trkpt>
<trkpt lat="-27.274439" lon="151.290064">
  <ele>343.1</ele>
  <time>2026-09-01T19:49:44Z</time>
  <course>270.0</course>
  <speed>0.0</speed>
  <fix>3d</fix>
</trkpt>
<trkpt lat="-27.2744392" lon="151.2900642">
  <ele>343.12</ele>
  <time>2026-09-01T19:49:44Z</time>
  <course>11.4</course>
  <speed>0.022360679774997897</speed>
  <fix>3d</fix>
</trkpt>
<trkpt lat="-27.274439" lon="151.290064">
  <ele>343.1</ele>
  <time>2026-09-01T19:49:44Z</time>
  <course>270.0</course>
  <speed>0.0</speed>
  <fix>3d</fix>
</trkpt>
<trkpt lat="-27.2744392" lon="151.2900642">
  <ele>343.13</ele>
  <time>2026-09-01T19:49:44Z</time>
  <course>11.4</course>
  <speed>0.022360679774997897</speed>
  <fix>3d</fix>
</trkpt>
<trkpt lat="-27.274439" lon="151.290064">
  <ele>343.1</ele>
  <time>2026-09-01T19:49:44Z</time>
  <course>270.0</course>
  <speed>0.0</speed>
  <fix>3d</fix>
</trkpt>
<trkpt lat="-27.2744392" lon="151.2900642">
  <ele>343.13</ele>
  <time>2026-09-01T19:49:44Z</time>
  <course>11.4</course>
  <speed>0.022360679774997897</speed>
  <fix>3d</fix>
</trkpt>
<trkpt lat="-27.274439" lon="151.290064">
  <ele>343.1</ele>
  <time>2026-09-01T19:49:44Z</time>
  <course>270.0</course>
  <speed>0.0</speed>
  <fix>3d</fix>
</trkpt>
<trkpt lat="-27.2744392" lon="151.2900642">
  <ele>343.14</ele>
  <time>2026-09-01T19:49:44Z</time>
  <course>11.4</course>
  <speed>0.022360679774997897</speed>
  <fix>3d</fix>
</trkpt>
<trkpt lat="-27.274439" lon="151.290064">
  <ele>343.1</ele>
  <time>2026-09-01T19:49:44Z</time>
  <course>270.0</course>
  <speed>0.0</speed>
  <fix>3d</fix>
</trkpt>
<trkpt lat="-27.2744392" lon="151.2900642">
  <ele>343.14</ele>
  <time>2026-09-01T19:49:44Z</time>
  <course>11.4</course>
  <speed>0.022360679774997897</speed>
  <fix>3d</fix>
</trkpt>
<trkpt lat="-27.274439" lon="151.290064">
  <ele>343.1</ele>
  <time>2026-09-01T19:49:44Z</time>
  <course>270.0</course>
  <speed>0.0</speed>
  <fix>3d</fix>
</trkpt>
<trkpt lat="-27.2744392" lon="151.2900642">
  <ele>343.14</ele>
  <time>2026-09-01T19:49:44Z</time>
  <course>11.4</course>
  <speed>0.01414213562373095</speed>
  <fix>3d</fix>
</trkpt>
<trkpt lat="-27.274439" lon="151.290064">
  <ele>343.1</ele>
  <time>2026-09-01T19:49:44Z</time>
  <course>270.0</course>
  <speed>0.0</speed>
  <fix>3d</fix>
</trkpt>
<trkpt lat="-27.2744392" lon="151.2900642">
  <ele>343.15</ele>
  <time>2026-09-01T19:49:44Z</time>
  <course>11.4</course>
  <speed>0.01414213562373095</speed>
  <fix>3d</fix>
</trkpt>
<trkpt lat="-27.274439" lon="151.290064">
  <ele>343.1</ele>
  <time>2026-09-01T19:49:44Z</time>
  <course>270.0</course>
  <speed>0.0</speed>
  <fix>3d</fix>
</trkpt>
<trkpt lat="-27.2744392" lon="151.2900642">
  <ele>343.15</ele>
  <time>2026-09-01T19:49:44Z</time>
  <course>11.4</course>
  <speed>0.01414213562373095</speed>
  <fix>3d</fix>
</trkpt>
<trkpt lat="-27.274439" lon="151.290064">
  <ele>343.1</ele>
  <time>2026-09-01T19:49:44Z</time>
  <course>270.0</course>
  <speed>0.0</speed>
  <fix>3d</fix>
</trkpt>
<trkpt lat="-27.2744392" lon="151.2900642">
  <ele>343.15</ele>
  <time>2026-09-01T19:49:44Z</time>
  <course>11.4</course>
  <speed>0.01</speed>
  <fix>3d</fix>
</trkpt>
<trkpt lat="-27.274439" lon="151.290064">
  <ele>343.1</ele>
  <time>2026-09-01T19:49:44Z</time>
  <course>270.0</course>
  <speed>0.0</speed>
  <fix>3d</fix>
</trkpt>
<trkpt lat="-27.2744392" lon="151.2900642">
  <ele>343.16</ele>
  <time>2026-09-01T19:49:44Z</time>
  <course>11.4</course>
  <speed>0.01</speed>
  <fix>3d</fix>
</trkpt>
<trkpt lat="-27.274439" lon="151.290064">
  <ele>343.1</ele>
  <time>2026-09-01T19:49:44Z</time>
  <course>270.0</course>
  <speed>0.0</speed>
  <fix>3d</fix>
</trkpt>
<trkpt lat="-27.2744392" lon="151.2900642">
  <ele>343.16</ele>
  <time>2026-09-01T19:49:44Z</time>
  <course>11.4</course>
  <speed>0.01</speed>
  <fix>3d</fix>
</trkpt>
<trkpt lat="-27.274439" lon="151.290064">
  <ele>343.1</ele>
  <time>2026-09-01T19:49:44Z</time>
  <course>270.0</course>
  <speed>0.0</speed>
  <fix>3d</fix>
</trkpt>
<trkpt lat="-27.2744392" lon="151.2900642">
  <ele>343.16</ele>
  <time>2026-09-01T19:49:44Z</time>
  <course>11.4</course>
  <speed>0.0</speed>
  <fix>3d</fix>
</trkpt>
<trkpt lat="-27.274439" lon="151.290064">
  <ele>343.1</ele>
  <time>2026-09-01T19:49:44Z</time>
  <course>270.0</course>
  <speed>0.0</speed>
  <fix>3d</fix>
</trkpt>
<trkpt lat="-27.2744392" lon="151.2900641">
  <ele>343.17</ele>
  <time>2026-09-01T19:49:44Z</time>
  <course>11.4</course>
  <speed>0.0</speed>
  <fix>3d</fix>
</trkpt>
<trkpt lat="-27.274439" lon="151.290064">
  <ele>343.1</ele>
  <time>2026-09-01T19:49:44Z</time>
  <course>270.0</course>
  <speed>0.0</speed>
  <fix>3d</fix>
</trkpt>
<trkpt lat="-27.2744392" lon="151.2900641">
  <ele>343.17</ele>
  <time>2026-09-01T19:49:44Z</time>
  <course>11.4</course>
  <speed>0.0</speed>
  <fix>3d</fix>
</trkpt>
<trkpt lat="-27.274439" lon="151.290064">
  <ele>343.1</ele>
  <time>2026-09-01T19:49:44Z</time>
  <course>270.0</course>
  <speed>0.0</speed>
  <fix>3d</fix>
</trkpt>
<trkpt lat="-27.2744392" lon="151.2900641">
  <ele>343.17</ele>
  <time>2026-09-01T19:49:44Z</time>
  <course>11.4</course>
  <speed>0.0</speed>
  <fix>3d</fix>
</trkpt>
<trkpt lat="-27.274439" lon="151.290064">
  <ele>343.1</ele>
  <time>2026-09-01T19:49:44Z</time>
  <course>270.0</course>
  <speed>0.0</speed>
  <fix>3d</fix>
</trkpt>
<trkpt lat="-27.2744391" lon="151.2900641">
  <ele>343.18</ele>
  <time>2026-09-01T19:49:44Z</time>
  <course>11.4</course>
  <speed>0.0</speed>
  <fix>3d</fix>
</trkpt>
<trkpt lat="-27.274439" lon="151.290064">
  <ele>343.1</ele>
  <time>2026-09-01T19:49:44Z</time>
  <course>270.0</course>
  <speed>0.0</speed>
  <fix>3d</fix>
</trkpt>
<trkpt lat="-27.2744391" lon="151.2900641">
  <ele>343.18</ele>
  <time>2026-09-01T19:49:44Z</time>
  <course>11.4</course>
  <speed>0.0</speed>
  <fix>3d</fix>
</trkpt>
<trkpt lat="-27.274439" lon="151.290064">
  <ele>343.1</ele>
  <time>2026-09-01T19:49:44Z</time>
  <course>270.0</course>
  <speed>0.0</speed>
  <fix>3d</fix>
</trkpt>
<trkpt lat="-27.2744391" lon="151.2900641">
  <ele>343.18</ele>
  <time>2026-09-01T19:49:44Z</time>
  <course>11.4</course>
  <speed>0.0</speed>
  <fix>3d</fix>
</trkpt>
<trkpt lat="-27.274439" lon="151.290064">
  <ele>343.1</ele>
  <time>2026-09-01T19:49:44Z</time>
  <course>270.0</course>
  <speed>0.0</speed>
  <fix>3d</fix>
</trkpt>
<trkpt lat="-27.2744391" lon="151.2900641">
  <ele>343.18</ele>
  <time>2026-09-01T19:49:44Z</time>
  <course>11.4</course>
  <speed>0.0</speed>
  <fix>3d</fix>
</trkpt>
<trkpt lat="-27.274439" lon="151.290064">
  <ele>343.1</ele>
  <time>2026-09-01T19:49:44Z</time>
  <course>270.0</course>
  <speed>0.0</speed>
  <fix>3d</fix>
</trkpt>
<trkpt lat="-27.2744391" lon="151.2900641">
  <ele>343.18</ele>
  <time>2026-09-01T19:49:44Z</time>
  <course>11.4</course>
  <speed>0.0</speed>
  <fix>3d</fix>
</trkpt>
<trkpt lat="-27.274439" lon="151.290064">
  <ele>343.1</ele>
  <time>2026-09-01T19:49:44Z</time>
  <course>270.0</course>
  <speed>0.0</speed>
  <fix>3d</fix>
</trkpt>
<trkpt lat="-27.2744391" lon="151.2900641">
  <ele>343.18</ele>
  <time>2026-09-01T19:49:44Z</time>
  <course>11.4</course>
  <speed>0.0</speed>
  <fix>3d</fix>
</trkpt>
<trkpt lat="-27.274439" lon="151.290064">
  <ele>343.1</ele>
  <time>2026-09-01T19:49:44Z</time>
  <course>270.0</course>
  <speed>0.0</speed>
  <fix>3d</fix>
</trkpt>
<trkpt lat="-27.2744391" lon="151.2900641">
  <ele>343.18</ele>
  <time>2026-09-01T19:49:44Z</time>
  <course>11.4</course>
  <speed>0.0</speed>
  <fix>3d</fix>
</trkpt>
<trkpt lat="-27.274439" lon="151.290064">
  <ele>343.1</ele>
  <time>2026-09-01T19:49:44Z</time>
  <course>270.0</course>
  <speed>0.0</speed>
  <fix>3d</fix>
</trkpt>
<trkpt lat="-27.2744391" lon="151.2900641">
  <ele>343.18</ele>
  <time>2026-09-01T19:49:44Z</time>
  <course>11.4</course>
  <speed>0.0</speed>
  <fix>3d</fix>
</trkpt>
<trkpt lat="-27.274439" lon="151.290064">
  <ele>343.1</ele>
  <time>2026-09-01T19:49:44Z</time>
  <course>270.0</course>
  <speed>0.0</speed>
  <fix>3d</fix>
</trkpt>
<trkpt lat="-27.2744391" lon="151.2900641">
  <ele>343.18</ele>
  <time>2026-09-01T19:49:44Z</time>
  <course>11.4</course>
  <speed>0.0</speed>
  <fix>3d</fix>
</trkpt>
<trkpt lat="-27.274439" lon="151.290064">
  <ele>343.1</ele>
  <time>2026-09-01T19:49:44Z</time>
  <course>270.0</course>
  <speed>0.0</speed>
  <fix>3d</fix>
</trkpt>
<trkpt lat="-27.2744391" lon="151.2900641">
  <ele>343.18</ele>
  <time>2026-09-01T19:49:44Z</time>
  <course>11.4</course>
  <speed>0.0</speed>
  <fix>3d</fix>
</trkpt>
<trkpt lat="-27.274439" lon="151.290064">
  <ele>343.1</ele>
  <time>2026-09-01T19:49:44Z</time>
  <course>270.0</course>
  <speed>0.0</speed>
  <fix>3d</fix>
</trkpt>
<trkpt lat="-27.2744391" lon="151.2900641">
  <ele>343.18</ele>
  <time>2026-09-01T19:49:44Z</time>
  <course>11.4</course>
  <speed>0.0</speed>
  <fix>3d</fix>
</trkpt>
<trkpt lat="-27.274439" lon="151.290064">
  <ele>343.1</ele>
  <time>2026-09-01T19:49:44Z</time>
  <course>270.0</course>
  <speed>0.0</speed>
  <fix>3d</fix>
</trkpt>
<trkpt lat="-27.2744391" lon="151.2900641">
  <ele>343.19</ele>
  <time>2026-09-01T19:49:44Z</time>
  <course>11.4</course>
  <speed>0.0</speed>
  <fix>3d</fix>
</trkpt>
<trkpt lat="-27.274439" lon="151.290064">
  <ele>343.1</ele>
  <time>2026-09-01T19:49:44Z</time>
  <course>270.0</course>
  <speed>0.0</speed>
  <fix>3d</fix>
</trkpt>
<trkpt lat="-27.2744391" lon="151.2900641">
  <ele>343.19</ele>
  <time>2026-09-01T19:49:44Z</time>
  <course>11.4</course>
  <speed>0.0</speed>
  <fix>3d</fix>
</trkpt>
<trkpt lat="-27.274439" lon="151.290064">
  <ele>343.1</ele>
  <time>2026-09-01T19:49:44Z</time>
  <course>270.0</course>
  <speed>0.0</speed>
  <fix>3d</fix>
</trkpt>
<trkpt lat="-27.2744391" lon="151.2900641">
  <ele>343.19</ele>
  <time>2026-09-01T19:49:44Z</time>
  <course>11.4</course>
  <speed>0.0</speed>
  <fix>3d</fix>
</trkpt>
<trkpt lat="-27.274439" lon="151.290064">
  <ele>343.1</ele>
  <time>2026-09-01T19:49:44Z</time>
  <course>270.0</course>
  <speed>0.0</speed>
  <fix>3d</fix>
</trkpt>
<trkpt lat="-27.2744391" lon="151.2900641">
  <ele>343.19</ele>
  <time>2026-09-01T19:49:44Z</time>
  <course>11.4</course>
  <speed>0.0</speed>
  <fix>3d</fix>
</trkpt>
<trkpt lat="-27.274439" lon="151.290064">
  <ele>343.1</ele>
  <time>2026-09-01T19:49:44Z</time>
  <course>270.0</course>
  <speed>0.0</speed>
  <fix>3d</fix>
</trkpt>
<trkpt lat="-27.2744391" lon="151.2900641">
  <ele>343.19</ele>
  <time>2026-09-01T19:49:44Z</time>
  <course>11.4</course>
  <speed>0.0</speed>
  <fix>3d</fix>
</trkpt>
<trkpt lat="-27.274439" lon="151.290064">
  <ele>343.1</ele>
  <time>2026-09-01T19:49:44Z</time>
  <course>270.0</course>
  <speed>0.0</speed>
  <fix>3d</fix>
</trkpt>
<trkpt lat="-27.2744391" lon="151.2900641">
  <ele>343.19</ele>
  <time>2026-09-01T19:49:44Z</time>
  <course>11.4</course>
  <speed>0.0</speed>
  <fix>3d</fix>
</trkpt>
<trkpt lat="-27.274439" lon="151.290064">
  <ele>343.1</ele>
  <time>2026-09-01T19:49:44Z</time>
  <course>270.0</course>
  <speed>0.0</speed>
  <fix>3d</fix>
</trkpt>
<trkpt lat="-27.2744391" lon="151.2900641">
  <ele>343.19</ele>
  <time>2026-09-01T19:49:44Z</time>
  <course>11.4</course>
  <speed>0.0</speed>
  <fix>3d</fix>
</trkpt>
<trkpt lat="-27.274439" lon="151.290064">
  <ele>343.1</ele>
  <time>2026-09-01T19:49:44Z</time>
  <course>270.0</course>
  <speed>0.0</speed>
  <fix>3d</fix>
</trkpt>
<trkpt lat="-27.2744391" lon="151.2900641">
  <ele>343.19</ele>
  <time>2026-09-01T19:49:44Z</time>
  <course>11.4</course>
  <speed>0.0</speed>
  <fix>3d</fix>
</trkpt>
<trkpt lat="-27.274439" lon="151.290064">
  <ele>343.1</ele>
  <time>2026-09-01T19:49:44Z</time>
  <course>270.0</course>
  <speed>0.0</speed>
  <fix>3d</fix>
</trkpt>
<trkpt lat="-27.2744391" lon="151.2900641">
  <ele>343.2</ele>
  <time>2026-09-01T19:49:44Z</time>
  <course>11.4</course>
  <speed>0.0</speed>
  <fix>3d</fix>
</trkpt>
<trkpt lat="-27.274439" lon="151.290064">
  <ele>343.1</ele>
  <time>2026-09-01T19:49:44Z</time>
  <course>270.0</course>
  <speed>0.0</speed>
  <fix>3d</fix>
</trkpt>
<trkpt lat="-27.2744391" lon="151.2900641">
  <ele>343.2</ele>
  <time>2026-09-01T19:49:44Z</time>
  <course>11.4</course>
  <speed>0.0</speed>
  <fix>3d</fix>
</trkpt>
<trkpt lat="-27.274439" lon="151.290064">
  <ele>343.1</ele>
  <time>2026-09-01T19:49:44Z</time>
  <course>270.0</course>
  <speed>0.0</speed>
  <fix>3d</fix>
</trkpt>
<trkpt lat="-27.2744391" lon="151.2900641">
  <ele>343.2</ele>
  <time>2026-09-01T19:49:44Z</time>
  <course>11.4</course>
  <speed>0.0</speed>
  <fix>3d</fix>
</trkpt>
<trkpt lat="-27.274439" lon="151.290064">
  <ele>343.1</ele>
  <time>2026-09-01T19:49:44Z</time>
  <course>270.0</course>
  <speed>0.0</speed>
  <fix>3d</fix>
</trkpt>
<trkpt lat="-27.2744391" lon="151.2900641">
  <ele>343.2</ele>
  <time>2026-09-01T19:49:44Z</time>
  <course>11.4</course>
  <speed>0.0</speed>
  <fix>3d</fix>
</trkpt>
<trkpt lat="-27.274439" lon="151.290064">
  <ele>343.1</ele>
  <time>2026-09-01T19:49:44Z</time>
  <course>270.0</course>
  <speed>0.0</speed>
  <fix>3d</fix>
</trkpt>
<trkpt lat="-27.2744391" lon="151.2900641">
  <ele>343.2</ele>
  <time>2026-09-01T19:49:44Z</time>
  <course>11.4</course>
  <speed>0.0</speed>
  <fix>3d</fix>
</trkpt>
<trkpt lat="-27.274439" lon="151.290064">
  <ele>343.1</ele>
  <time>2026-09-01T19:49:44Z</time>
  <course>270.0</course>
  <speed>0.0</speed>
  <fix>3d</fix>
</trkpt>
<trkpt lat="-27.2744391" lon="151.2900641">
  <ele>343.1</ele>
  <time>2026-09-01T19:49:44Z</time>
  <course>11.4</course>
  <speed>0.0</speed>
  <fix>3d</fix>
</trkpt>
<trkpt lat="-27.274439" lon="151.290064">
  <ele>343.1</ele>
  <time>2026-09-01T19:49:44Z</time>
  <course>270.0</course>
  <speed>0.0</speed>
  <fix>3d</fix>
</trkpt>
<trkpt lat="-27.2744391" lon="151.2900641">
  <ele>343.09</ele>
  <time>2026-09-01T19:49:44Z</time>
  <course>11.4</course>
  <speed>0.0</speed>
  <fix>3d</fix>
</trkpt>
<trkpt lat="-27.274439" lon="151.290064">
  <ele>343.1</ele>
  <time>2026-09-01T19:49:44Z</time>
  <course>270.0</course>
  <speed>0.0</speed>
  <fix>3d</fix>
</trkpt>
<trkpt lat="-27.2744391" lon="151.2900641">
  <ele>343.1</ele>
  <time>2026-09-01T19:49:44Z</time>
  <course>11.4</course>
  <speed>0.01</speed>
  <fix>3d</fix>
</trkpt>
<trkpt lat="-27.274439" lon="151.290064">
  <ele>343.1</ele>
  <time>2026-09-01T19:49:44Z</time>
  <course>270.0</course>
  <speed>0.0</speed>
  <fix>3d</fix>
</trkpt>
<trkpt lat="-27.2744391" lon="151.2900641">
  <ele>343.1</ele>
  <time>2026-09-01T19:49:44Z</time>
  <course>11.4</course>
  <speed>0.01</speed>
  <fix>3d</fix>
</trkpt>
<trkpt lat="-27.274439" lon="151.290064">
  <ele>343.1</ele>
  <time>2026-09-01T19:49:44Z</time>
  <course>270.0</course>
  <speed>0.0</speed>
  <fix>3d</fix>
</trkpt>
<trkpt lat="-27.2744391" lon="151.2900641">
  <ele>343.1</ele>
  <time>2026-09-01T19:49:44Z</time>
  <course>11.4</course>
  <speed>0.01</speed>
  <fix>3d</fix>
</trkpt>
<trkpt lat="-27.274439" lon="151.290064">
  <ele>343.1</ele>
  <time>2026-09-01T19:49:44Z</time>
  <course>270.0</course>
  <speed>0.0</speed>
  <fix>3d</fix>
</trkpt>
<trkpt lat="-27.2744391" lon="151.2900641">
  <ele>343.1</ele>
  <time>2026-09-01T19:49:44Z</time>
  <course>11.4</course>
  <speed>0.01</speed>
  <fix>3d</fix>
</trkpt>
<trkpt lat="-27.274439" lon="151.290064">
  <ele>343.1</ele>
  <time>2026-09-01T19:49:44Z</time>
  <course>270.0</course>
  <speed>0.0</speed>
  <fix>3d</fix>
</trkpt>
<trkpt lat="-27.2744391" lon="151.2900641">
  <ele>343.1</ele>
  <time>2026-09-01T19:49:44Z</time>
  <course>11.4</course>
  <speed>0.01</speed>
  <fix>3d</fix>
</trkpt>
<trkpt lat="-27.274439" lon="151.290064">
  <ele>343.1</ele>
  <time>2026-09-01T19:49:44Z</time>
  <course>270.0</course>
  <speed>0.0</speed>
  <fix>3d</fix>
</trkpt>
<trkpt lat="-27.2744391" lon="151.2900641">
  <ele>343.11</ele>
  <time>2026-09-01T19:49:44Z</time>
  <course>11.4</course>
  <speed>0.01</speed>
  <fix>3d</fix>
</trkpt>
<trkpt lat="-27.274439" lon="151.290064">
  <ele>343.1</ele>
  <time>2026-09-01T19:49:44Z</time>
  <course>270.0</course>
  <speed>0.0</speed>
  <fix>3d</fix>
</trkpt>
<trkpt lat="-27.2744391" lon="151.2900641">
  <ele>343.11</ele>
  <time>2026-09-01T19:49:44Z</time>
  <course>11.4</course>
  <speed>0.01414213562373095</speed>
  <fix>3d</fix>
</trkpt>
<trkpt lat="-27.274439" lon="151.290064">
  <ele>343.1</ele>
  <time>2026-09-01T19:49:44Z</time>
  <course>270.0</course>
  <speed>0.0</speed>
  <fix>3d</fix>
</trkpt>
<trkpt lat="-27.2744391" lon="151.2900641">
  <ele>343.12</ele>
  <time>2026-09-01T19:49:44Z</time>
  <course>11.4</course>
  <speed>0.01414213562373095</speed>
  <fix>3d</fix>
</trkpt>
<trkpt lat="-27.274439" lon="151.290064">
  <ele>343.1</ele>
  <time>2026-09-01T19:49:44Z</time>
  <course>270.0</course>
  <speed>0.0</speed>
  <fix>3d</fix>
</trkpt>
<trkpt lat="-27.2744391" lon="151.2900641">
  <ele>343.12</ele>
  <time>2026-09-01T19:49:44Z</time>
  <course>11.4</course>
  <speed>0.01414213562373095</speed>
  <fix>3d</fix>
</trkpt>
<trkpt lat="-27.274439" lon="151.290064">
  <ele>343.1</ele>
  <time>2026-09-01T19:49:44Z</time>
  <course>270.0</course>
  <speed>0.0</speed>
  <fix>3d</fix>
</trkpt>
<trkpt lat="-27.2744391" lon="151.2900641">
  <ele>343.13</ele>
  <time>2026-09-01T19:49:44Z</time>
  <course>11.4</course>
  <speed>0.01414213562373095</speed>
  <fix>3d</fix>
</trkpt>
<trkpt lat="-27.274439" lon="151.290064">
  <ele>343.1</ele>
  <time>2026-09-01T19:49:44Z</time>
  <course>270.0</course>
  <speed>0.0</speed>
  <fix>3d</fix>
</trkpt>
<trkpt lat="-27.2744391" lon="151.2900641">
  <ele>343.13</ele>
  <time>2026-09-01T19:49:44Z</time>
  <course>11.4</course>
  <speed>0.01414213562373095</speed>
  <fix>3d</fix>
</trkpt>
<trkpt lat="-27.274439" lon="151.290064">
  <ele>343.1</ele>
  <time>2026-09-01T19:49:44Z</time>
  <course>270.0</course>
  <speed>0.0</speed>
  <fix>3d</fix>
</trkpt>
<trkpt lat="-27.2744391" lon="151.2900641">
  <ele>343.14</ele>
  <time>2026-09-01T19:49:44Z</time>
  <course>11.4</course>
  <speed>0.01414213562373095</speed>
  <fix>3d</fix>
</trkpt>
<trkpt lat="-27.274439" lon="151.290064">
  <ele>343.1</ele>
  <time>2026-09-01T19:49:44Z</time>
  <course>270.0</course>
  <speed>0.0</speed>
  <fix>3d</fix>
</trkpt>
<trkpt lat="-27.2744391" lon="151.2900641">
  <ele>343.15</ele>
  <time>2026-09-01T19:49:44Z</time>
  <course>11.4</course>
  <speed>0.022360679774997897</speed>
  <fix>3d</fix>
</trkpt>
<trkpt lat="-27.274439" lon="151.290064">
  <ele>343.1</ele>
  <time>2026-09-01T19:49:44Z</time>
  <course>270.0</course>
  <speed>0.0</speed>
  <fix>3d</fix>
</trkpt>
<trkpt lat="-27.2744391" lon="151.2900641">
  <ele>343.15</ele>
  <time>2026-09-01T19:49:44Z</time>
  <course>11.4</course>
  <speed>0.022360679774997897</speed>
  <fix>3d</fix>
</trkpt>
<trkpt lat="-27.274439" lon="151.290064">
  <ele>343.1</ele>
  <time>2026-09-01T19:49:44Z</time>
  <course>270.0</course>
  <speed>0.0</speed>
  <fix>3d</fix>
</trkpt>
<trkpt lat="-27.2744391" lon="151.2900641">
  <ele>343.15</ele>
  <time>2026-09-01T19:49:44Z</time>
  <course>11.4</course>
  <speed>0.022360679774997897</speed>
  <fix>3d</fix>
</trkpt>
<trkpt lat="-27.274439" lon="151.290064">
  <ele>343.1</ele>
  <time>2026-09-01T19:49:44Z</time>
  <course>270.0</course>
  <speed>0.0</speed>
  <fix>3d</fix>
</trkpt>
<trkpt lat="-27.2744391" lon="151.2900641">
  <ele>343.16</ele>
  <time>2026-09-01T19:49:44Z</time>
  <course>11.4</course>
  <speed>0.022360679774997897</speed>
  <fix>3d</fix>
</trkpt>
<trkpt lat="-27.274439" lon="151.290064">
  <ele>343.1</ele>
  <time>2026-09-01T19:49:44Z</time>
  <course>270.0</course>
  <speed>0.0</speed>
  <fix>3d</fix>
</trkpt>
<trkpt lat="-27.2744391" lon="151.2900641">
  <ele>343.16</ele>
  <time>2026-09-01T19:49:44Z</time>
  <course>11.4</course>
  <speed>0.022360679774997897</speed>
  <fix>3d</fix>
</trkpt>
<trkpt lat="-27.274439" lon="151.290064">
  <ele>343.1</ele>
  <time>2026-09-01T19:49:44Z</time>
  <course>270.0</course>
  <speed>0.0</speed>
  <fix>3d</fix>
</trkpt>
<trkpt lat="-27.2744391" lon="151.2900641">
  <ele>343.16</ele>
  <time>2026-09-01T19:49:44Z</time>
  <course>11.4</course>
  <speed>0.022360679774997897</speed>
  <fix>3d</fix>
</trkpt>
<trkpt lat="-27.274439" lon="151.290064">
  <ele>343.1</ele>
  <time>2026-09-01T19:49:44Z</time>
  <course>270.0</course>
  <speed>0.0</speed>
  <fix>3d</fix>
</trkpt>
<trkpt lat="-27.2744391" lon="151.2900641">
  <ele>343.17</ele>
  <time>2026-09-01T19:49:44Z</time>
  <course>11.4</course>
  <speed>0.022360679774997897</speed>
  <fix>3d</fix>
</trkpt>
<trkpt lat="-27.274439" lon="151.290064">
  <ele>343.1</ele>
  <time>2026-09-01T19:49:44Z</time>
  <course>270.0</course>
  <speed>0.0</speed>
  <fix>3d</fix>
</trkpt>
<trkpt lat="-27.2744391" lon="151.2900641">
  <ele>343.17</ele>
  <time>2026-09-01T19:49:44Z</time>
  <course>11.4</course>
  <speed>0.022360679774997897</speed>
  <fix>3d</fix>
</trkpt>
<trkpt lat="-27.274439" lon="151.290064">
  <ele>343.1</ele>
  <time>2026-09-01T19:49:44Z</time>
  <course>270.0</course>
  <speed>0.0</speed>
  <fix>3d</fix>
</trkpt>
<trkpt lat="-27.2744391" lon="151.2900641">
  <ele>343.17</ele>
  <time>2026-09-01T19:49:44Z</time>
  <course>11.4</course>
  <speed>0.022360679774997897</speed>
  <fix>3d</fix>
</trkpt>
<trkpt lat="-27.274439" lon="151.290064">
  <ele>343.1</ele>
  <time>2026-09-01T19:49:44Z</time>
  <course>270.0</course>
  <speed>0.0</speed>
  <fix>3d</fix>
</trkpt>
<trkpt lat="-27.2744391" lon="151.2900641">
  <ele>343.1</ele>
  <time>2026-09-01T19:49:44Z</time>
  <course>11.4</course>
  <speed>0.022360679774997897</speed>
  <fix>3d</fix>
</trkpt>
<trkpt lat="-27.274439" lon="151.290064">
  <ele>343.1</ele>
  <time>2026-09-01T19:49:44Z</time>
  <course>270.0</course>
  <speed>0.0</speed>
  <fix>3d</fix>
</trkpt>
<trkpt lat="-27.2744391" lon="151.2900641">
  <ele>343.1</ele>
  <time>2026-09-01T19:49:44Z</time>
  <course>11.4</course>
  <speed>0.022360679774997897</speed>
  <fix>3d</fix>
</trkpt>
<trkpt lat="-27.274439" lon="151.290064">
  <ele>343.1</ele>
  <time>2026-09-01T19:49:44Z</time>
  <course>270.0</course>
  <speed>0.0</speed>
  <fix>3d</fix>
</trkpt>
<trkpt lat="-27.2744391" lon="151.2900641">
  <ele>343.1</ele>
  <time>2026-09-01T19:49:44Z</time>
  <course>11.4</course>
  <speed>0.022360679774997897</speed>
  <fix>3d</fix>
</trkpt>
<trkpt lat="-27.274439" lon="151.290064">
  <ele>343.1</ele>
  <time>2026-09-01T19:49:44Z</time>
  <course>270.0</course>
  <speed>0.0</speed>
  <fix>3d</fix>
</trkpt>
<trkpt lat="-27.2744391" lon="151.2900641">
  <ele>343.1</ele>
  <time>2026-09-01T19:49:44Z</time>
  <course>11.4</course>
  <speed>0.022360679774997897</speed>
  <fix>3d</fix>
</trkpt>
<trkpt lat="-27.274439" lon="151.290064">
  <ele>343.1</ele>
  <time>2026-09-01T19:49:44Z</time>
  <course>270.0</course>
  <speed>0.0</speed>
  <fix>3d</fix>
</trkpt>
<trkpt lat="-27.2744391" lon="151.2900641">
  <ele>343.1</ele>
  <time>2026-09-01T19:49:44Z</time>
  <course>11.4</course>
  <speed>0.022360679774997897</speed>
  <fix>3d</fix>
</trkpt>
<trkpt lat="-27.274439" lon="151.290064">
  <ele>343.1</ele>
  <time>2026-09-01T19:49:44Z</time>
  <course>270.0</course>
  <speed>0.0</speed>
  <fix>3d</fix>
</trkpt>
<trkpt lat="-27.2744391" lon="151.2900641">
  <ele>343.09</ele>
  <time>2026-09-01T19:49:44Z</time>
  <course>11.4</course>
  <speed>0.022360679774997897</speed>
  <fix>3d</fix>
</trkpt>
<trkpt lat="-27.274439" lon="151.290064">
  <ele>343.1</ele>
  <time>2026-09-01T19:49:44Z</time>
  <course>270.0</course>
  <speed>0.0</speed>
  <fix>3d</fix>
</trkpt>
<trkpt lat="-27.2744391" lon="151.2900641">
  <ele>343.09</ele>
  <time>2026-09-01T19:49:44Z</time>
  <course>11.4</course>
  <speed>0.022360679774997897</speed>
  <fix>3d</fix>
</trkpt>
<trkpt lat="-27.274439" lon="151.290064">
  <ele>343.1</ele>
  <time>2026-09-01T19:49:44Z</time>
  <course>270.0</course>
  <speed>0.0</speed>
  <fix>3d</fix>
</trkpt>
<trkpt lat="-27.2744391" lon="151.2900641">
  <ele>343.08</ele>
  <time>2026-09-01T19:49:44Z</time>
  <course>11.4</course>
  <speed>0.022360679774997897</speed>
  <fix>3d</fix>
</trkpt>
<trkpt lat="-27.274439" lon="151.290064">
  <ele>343.1</ele>
  <time>2026-09-01T19:49:44Z</time>
  <course>270.0</course>
  <speed>0.0</speed>
  <fix>3d</fix>
</trkpt>
<trkpt lat="-27.2744391" lon="151.2900641">
  <ele>343.08</ele>
  <time>2026-09-01T19:49:44Z</time>
  <course>11.4</course>
  <speed>0.022360679774997897</speed>
  <fix>3d</fix>
</trkpt>
<trkpt lat="-27.274439" lon="151.290064">
  <ele>343.1</ele>
  <time>2026-09-01T19:49:44Z</time>
  <course>270.0</course>
  <speed>0.0</speed>
  <fix>3d</fix>
</trkpt>
<trkpt lat="-27.2744391" lon="151.2900641">
  <ele>343.07</ele>
  <time>2026-09-01T19:49:44Z</time>
  <course>11.4</course>
  <speed>0.022360679774997897</speed>
  <fix>3d</fix>
</trkpt>
<trkpt lat="-27.274439" lon="151.290064">
  <ele>343.1</ele>
  <time>2026-09-01T19:49:44Z</time>
  <course>270.0</course>
  <speed>0.0</speed>
  <fix>3d</fix>
</trkpt>
<trkpt lat="-27.2744392" lon="151.2900641">
  <ele>343.07</ele>
  <time>2026-09-01T19:49:44Z</time>
  <course>11.4</course>
  <speed>0.022360679774997897</speed>
  <fix>3d</fix>
</trkpt>
<trkpt lat="-27.274439" lon="151.290064">
  <ele>343.1</ele>
  <time>2026-09-01T19:49:44Z</time>
  <course>270.0</course>
  <speed>0.0</speed>
  <fix>3d</fix>
</trkpt>
<trkpt lat="-27.2744391" lon="151.2900641">
  <ele>343.06</ele>
  <time>2026-09-01T19:49:44Z</time>
  <course>11.4</course>
  <speed>0.022360679774997897</speed>
  <fix>3d</fix>
</trkpt>
<trkpt lat="-27.274439" lon="151.290064">
  <ele>343.1</ele>
  <time>2026-09-01T19:49:44Z</time>
  <course>270.0</course>
  <speed>0.0</speed>
  <fix>3d</fix>
</trkpt>
<trkpt lat="-27.2744392" lon="151.2900641">
  <ele>343.06</ele>
  <time>2026-09-01T19:49:44Z</time>
  <course>11.4</course>
  <speed>0.022360679774997897</speed>
  <fix>3d</fix>
</trkpt>
<trkpt lat="-27.274439" lon="151.290064">
  <ele>343.1</ele>
  <time>2026-09-01T19:49:44Z</time>
  <course>270.0</course>
  <speed>0.0</speed>
  <fix>3d</fix>
</trkpt>
<trkpt lat="-27.2744391" lon="151.2900641">
  <ele>343.06</ele>
  <time>2026-09-01T19:49:44Z</time>
  <course>11.4</course>
  <speed>0.022360679774997897</speed>
  <fix>3d</fix>
</trkpt>
<trkpt lat="-27.274439" lon="151.290064">
  <ele>343.1</ele>
  <time>2026-09-01T19:49:44Z</time>
  <course>270.0</course>
  <speed>0.0</speed>
  <fix>3d</fix>
</trkpt>
<trkpt lat="-27.2744391" lon="151.2900641">
  <ele>343.06</ele>
  <time>2026-09-01T19:49:44Z</time>
  <course>11.4</course>
  <speed>0.022360679774997897</speed>
  <fix>3d</fix>
</trkpt>
<trkpt lat="-27.274439" lon="151.290064">
  <ele>343.1</ele>
  <time>2026-09-01T19:49:44Z</time>
  <course>270.0</course>
  <speed>0.0</speed>
  <fix>3d</fix>
</trkpt>
<trkpt lat="-27.2744391" lon="151.2900641">
  <ele>343.05</ele>
  <time>2026-09-01T19:49:44Z</time>
  <course>11.4</course>
  <speed>0.022360679774997897</speed>
  <fix>3d</fix>
</trkpt>
<trkpt lat="-27.274439" lon="151.290064">
  <ele>343.1</ele>
  <time>2026-09-01T19:49:44Z</time>
  <course>270.0</course>
  <speed>0.0</speed>
  <fix>3d</fix>
</trkpt>
<trkpt lat="-27.2744391" lon="151.2900641">
  <ele>343.05</ele>
  <time>2026-09-01T19:49:44Z</time>
  <course>11.4</course>
  <speed>0.022360679774997897</speed>
  <fix>3d</fix>
</trkpt>
<trkpt lat="-27.274439" lon="151.290064">
  <ele>343.1</ele>
  <time>2026-09-01T19:49:44Z</time>
  <course>270.0</course>
  <speed>0.0</speed>
  <fix>3d</fix>
</trkpt>
<trkpt lat="-27.2744391" lon="151.2900641">
  <ele>343.04</ele>
  <time>2026-09-01T19:49:44Z</time>
  <course>11.4</course>
  <speed>0.022360679774997897</speed>
  <fix>3d</fix>
</trkpt>
<trkpt lat="-27.274439" lon="151.290064">
  <ele>343.1</ele>
  <time>2026-09-01T19:49:44Z</time>
  <course>270.0</course>
  <speed>0.0</speed>
  <fix>3d</fix>
</trkpt>
<trkpt lat="-27.2744391" lon="151.2900641">
  <ele>343.04</ele>
  <time>2026-09-01T19:49:44Z</time>
  <course>11.4</course>
  <speed>0.022360679774997897</speed>
  <fix>3d</fix>
</trkpt>
<trkpt lat="-27.274439" lon="151.290064">
  <ele>343.1</ele>
  <time>2026-09-01T19:49:44Z</time>
  <course>270.0</course>
  <speed>0.0</speed>
  <fix>3d</fix>
</trkpt>
<trkpt lat="-27.2744391" lon="151.2900641">
  <ele>343.04</ele>
  <time>2026-09-01T19:49:44Z</time>
  <course>11.4</course>
  <speed>0.022360679774997897</speed>
  <fix>3d</fix>
</trkpt>
<trkpt lat="-27.274439" lon="151.290064">
  <ele>343.1</ele>
  <time>2026-09-01T19:49:44Z</time>
  <course>270.0</course>
  <speed>0.0</speed>
  <fix>3d</fix>
</trkpt>
<trkpt lat="-27.2744391" lon="151.2900641">
  <ele>343.03</ele>
  <time>2026-09-01T19:49:44Z</time>
  <course>11.4</course>
  <speed>0.022360679774997897</speed>
  <fix>3d</fix>
</trkpt>
<trkpt lat="-27.274439" lon="151.290064">
  <ele>343.1</ele>
  <time>2026-09-01T19:49:44Z</time>
  <course>270.0</course>
  <speed>0.0</speed>
  <fix>3d</fix>
</trkpt>
<trkpt lat="-27.2744391" lon="151.2900641">
  <ele>343.03</ele>
  <time>2026-09-01T19:49:44Z</time>
  <course>11.4</course>
  <speed>0.022360679774997897</speed>
  <fix>3d</fix>
</trkpt>
<trkpt lat="-27.274439" lon="151.290064">
  <ele>343.1</ele>
  <time>2026-09-01T19:49:44Z</time>
  <course>270.0</course>
  <speed>0.0</speed>
  <fix>3d</fix>
</trkpt>
<trkpt lat="-27.2744391" lon="151.2900641">
  <ele>343.02</ele>
  <time>2026-09-01T19:49:44Z</time>
  <course>11.4</course>
  <speed>0.022360679774997897</speed>
  <fix>3d</fix>
</trkpt>
<trkpt lat="-27.274439" lon="151.290064">
  <ele>343.1</ele>
  <time>2026-09-01T19:49:44Z</time>
  <course>270.0</course>
  <speed>0.0</speed>
  <fix>3d</fix>
</trkpt>
<trkpt lat="-27.2744391" lon="151.2900641">
  <ele>343.02</ele>
  <time>2026-09-01T19:49:44Z</time>
  <course>11.4</course>
  <speed>0.022360679774997897</speed>
  <fix>3d</fix>
</trkpt>
<trkpt lat="-27.274439" lon="151.290064">
  <ele>343.1</ele>
  <time>2026-09-01T19:49:44Z</time>
  <course>270.0</course>
  <speed>0.0</speed>
  <fix>3d</fix>
</trkpt>
<trkpt lat="-27.2744391" lon="151.2900641">
  <ele>343.01</ele>
  <time>2026-09-01T19:49:44Z</time>
  <course>11.4</course>
  <speed>0.022360679774997897</speed>
  <fix>3d</fix>
</trkpt>
<trkpt lat="-27.274439" lon="151.290064">
  <ele>343.1</ele>
  <time>2026-09-01T19:49:44Z</time>
  <course>270.0</course>
  <speed>0.0</speed>
  <fix>3d</fix>
</trkpt>
<trkpt lat="-27.2744391" lon="151.2900641">
  <ele>343.01</ele>
  <time>2026-09-01T19:49:44Z</time>
  <course>11.4</course>
  <speed>0.022360679774997897</speed>
  <fix>3d</fix>
</trkpt>
<trkpt lat="-27.274439" lon="151.290064">
  <ele>343.1</ele>
  <time>2026-09-01T19:49:44Z</time>
  <course>270.0</course>
  <speed>0.0</speed>
  <fix>3d</fix>
</trkpt>
<trkpt lat="-27.2744391" lon="151.2900641">
  <ele>343.0</ele>
  <time>2026-09-01T19:49:44Z</time>
  <course>11.4</course>
  <speed>0.022360679774997897</speed>
  <fix>3d</fix>
</trkpt>
<trkpt lat="-27.274439" lon="151.290064">
  <ele>343.1</ele>
  <time>2026-09-01T19:49:44Z</time>
  <course>270.0</course>
  <speed>0.0</speed>
  <fix>3d</fix>
</trkpt>
<trkpt lat="-27.2744391" lon="151.2900641">
  <ele>343.0</ele>
  <time>2026-09-01T19:49:44Z</time>
  <course>11.4</course>
  <speed>0.022360679774997897</speed>
  <fix>3d</fix>
</trkpt>
<trkpt lat="-27.274439" lon="151.290064">
  <ele>343.1</ele>
  <time>2026-09-01T19:49:44Z</time>
  <course>270.0</course>
  <speed>0.0</speed>
  <fix>3d</fix>
</trkpt>
<trkpt lat="-27.2744391" lon="151.2900641">
  <ele>342.99</ele>
  <time>2026-09-01T19:49:44Z</time>
  <course>11.4</course>
  <speed>0.022360679774997897</speed>
  <fix>3d</fix>
</trkpt>
<trkpt lat="-27.274439" lon="151.290064">
  <ele>343.1</ele>
  <time>2026-09-01T19:49:44Z</time>
  <course>270.0</course>
  <speed>0.0</speed>
  <fix>3d</fix>
</trkpt>
<trkpt lat="-27.2744391" lon="151.2900641">
  <ele>342.99</ele>
  <time>2026-09-01T19:49:44Z</time>
  <course>11.4</course>
  <speed>0.022360679774997897</speed>
  <fix>3d</fix>
</trkpt>
<trkpt lat="-27.274439" lon="151.290064">
  <ele>343.1</ele>
  <time>2026-09-01T19:49:44Z</time>
  <course>270.0</course>
  <speed>0.0</speed>
  <fix>3d</fix>
</trkpt>
<trkpt lat="-27.2744391" lon="151.2900641">
  <ele>342.98</ele>
  <time>2026-09-01T19:49:44Z</time>
  <course>11.4</course>
  <speed>0.022360679774997897</speed>
  <fix>3d</fix>
</trkpt>
<trkpt lat="-27.274439" lon="151.290064">
  <ele>343.1</ele>
  <time>2026-09-01T19:49:44Z</time>
  <course>270.0</course>
  <speed>0.0</speed>
  <fix>3d</fix>
</trkpt>
<trkpt lat="-27.2744391" lon="151.2900641">
  <ele>342.98</ele>
  <time>2026-09-01T19:49:44Z</time>
  <course>11.4</course>
  <speed>0.022360679774997897</speed>
  <fix>3d</fix>
</trkpt>
<trkpt lat="-27.274439" lon="151.290064">
  <ele>343.1</ele>
  <time>2026-09-01T19:49:44Z</time>
  <course>270.0</course>
  <speed>0.0</speed>
  <fix>3d</fix>
</trkpt>
<trkpt lat="-27.2744391" lon="151.2900641">
  <ele>342.98</ele>
  <time>2026-09-01T19:49:44Z</time>
  <course>11.4</course>
  <speed>0.022360679774997897</speed>
  <fix>3d</fix>
</trkpt>
<trkpt lat="-27.274439" lon="151.290064">
  <ele>343.1</ele>
  <time>2026-09-01T19:49:44Z</time>
  <course>270.0</course>
  <speed>0.0</speed>
  <fix>3d</fix>
</trkpt>
<trkpt lat="-27.2744391" lon="151.2900641">
  <ele>342.97</ele>
  <time>2026-09-01T19:49:44Z</time>
  <course>11.4</course>
  <speed>0.022360679774997897</speed>
  <fix>3d</fix>
</trkpt>
<trkpt lat="-27.274439" lon="151.290064">
  <ele>343.1</ele>
  <time>2026-09-01T19:49:44Z</time>
  <course>270.0</course>
  <speed>0.0</speed>
  <fix>3d</fix>
</trkpt>
<trkpt lat="-27.2744391" lon="151.2900641">
  <ele>342.97</ele>
  <time>2026-09-01T19:49:44Z</time>
  <course>11.4</course>
  <speed>0.022360679774997897</speed>
  <fix>3d</fix>
</trkpt>
<trkpt lat="-27.274439" lon="151.290064">
  <ele>343.1</ele>
  <time>2026-09-01T19:49:44Z</time>
  <course>270.0</course>
  <speed>0.0</speed>
  <fix>3d</fix>
</trkpt>
<trkpt lat="-27.2744391" lon="151.2900641">
  <ele>342.96</ele>
  <time>2026-09-01T19:49:44Z</time>
  <course>11.4</course>
  <speed>0.022360679774997897</speed>
  <fix>3d</fix>
</trkpt>
<trkpt lat="-27.274439" lon="151.290064">
  <ele>343.1</ele>
  <time>2026-09-01T19:49:44Z</time>
  <course>270.0</course>
  <speed>0.0</speed>
  <fix>3d</fix>
</trkpt>
<trkpt lat="-27.2744391" lon="151.2900641">
  <ele>342.96</ele>
  <time>2026-09-01T19:49:44Z</time>
  <course>11.4</course>
  <speed>0.022360679774997897</speed>
  <fix>3d</fix>
</trkpt>
<trkpt lat="-27.274439" lon="151.290064">
  <ele>343.1</ele>
  <time>2026-09-01T19:49:44Z</time>
  <course>270.0</course>
  <speed>0.0</speed>
  <fix>3d</fix>
</trkpt>
<trkpt lat="-27.2744391" lon="151.2900641">
  <ele>343.09</ele>
  <time>2026-09-01T19:49:44Z</time>
  <course>11.4</course>
  <speed>0.022360679774997897</speed>
  <fix>3d</fix>
</trkpt>
<trkpt lat="-27.274439" lon="151.290064">
  <ele>343.1</ele>
  <time>2026-09-01T19:49:44Z</time>
  <course>270.0</course>
  <speed>0.0</speed>
  <fix>3d</fix>
</trkpt>
<trkpt lat="-27.2744391" lon="151.2900641">
  <ele>343.09</ele>
  <time>2026-09-01T19:49:44Z</time>
  <course>11.4</course>
  <speed>0.022360679774997897</speed>
  <fix>3d</fix>
</trkpt>
<trkpt lat="-27.274439" lon="151.290064">
  <ele>343.1</ele>
  <time>2026-09-01T19:49:44Z</time>
  <course>270.0</course>
  <speed>0.0</speed>
  <fix>3d</fix>
</trkpt>
<trkpt lat="-27.2744391" lon="151.2900641">
  <ele>343.09</ele>
  <time>2026-09-01T19:49:44Z</time>
  <course>11.39</course>
  <speed>0.022360679774997897</speed>
  <fix>3d</fix>
</trkpt>
<trkpt lat="-27.274439" lon="151.290064">
  <ele>343.1</ele>
  <time>2026-09-01T19:49:44Z</time>
  <course>270.0</course>
  <speed>0.0</speed>
  <fix>3d</fix>
</trkpt>
<trkpt lat="-27.2744391" lon="151.2900641">
  <ele>343.09</ele>
  <time>2026-09-01T19:49:44Z</time>
  <course>11.4</course>
  <speed>0.022360679774997897</speed>
  <fix>3d</fix>
</trkpt>
<trkpt lat="-27.274439" lon="151.290064">
  <ele>343.1</ele>
  <time>2026-09-01T19:49:44Z</time>
  <course>270.0</course>
  <speed>0.0</speed>
  <fix>3d</fix>
</trkpt>
<trkpt lat="-27.2744391" lon="151.2900641">
  <ele>343.08</ele>
  <time>2026-09-01T19:49:44Z</time>
  <course>11.4</course>
  <speed>0.022360679774997897</speed>
  <fix>3d</fix>
</trkpt>
<trkpt lat="-27.274439" lon="151.290064">
  <ele>343.1</ele>
  <time>2026-09-01T19:49:44Z</time>
  <course>270.0</course>
  <speed>0.0</speed>
  <fix>3d</fix>
</trkpt>
<trkpt lat="-27.2744391" lon="151.2900641">
  <ele>343.08</ele>
  <time>2026-09-01T19:49:44Z</time>
  <course>11.4</course>
  <speed>0.022360679774997897</speed>
  <fix>3d</fix>
</trkpt>
<trkpt lat="-27.274439" lon="151.290064">
  <ele>343.1</ele>
  <time>2026-09-01T19:49:44Z</time>
  <course>270.0</course>
  <speed>0.0</speed>
  <fix>3d</fix>
</trkpt>
<trkpt lat="-27.2744391" lon="151.2900641">
  <ele>343.08</ele>
  <time>2026-09-01T19:49:44Z</time>
  <course>11.39</course>
  <speed>0.022360679774997897</speed>
  <fix>3d</fix>
</trkpt>
<trkpt lat="-27.274439" lon="151.290064">
  <ele>343.1</ele>
  <time>2026-09-01T19:49:44Z</time>
  <course>270.0</course>
  <speed>0.0</speed>
  <fix>3d</fix>
</trkpt>
<trkpt lat="-27.2744391" lon="151.2900641">
  <ele>343.07</ele>
  <time>2026-09-01T19:49:44Z</time>
  <course>11.39</course>
  <speed>0.022360679774997897</speed>
  <fix>3d</fix>
</trkpt>
<trkpt lat="-27.274439" lon="151.290064">
  <ele>343.1</ele>
  <time>2026-09-01T19:49:44Z</time>
  <course>270.0</course>
  <speed>0.0</speed>
  <fix>3d</fix>
</trkpt>
<trkpt lat="-27.2744391" lon="151.2900641">
  <ele>343.07</ele>
  <time>2026-09-01T19:49:44Z</time>
  <course>11.39</course>
  <speed>0.022360679774997897</speed>
  <fix>3d</fix>
</trkpt>
<trkpt lat="-27.274439" lon="151.290064">
  <ele>343.1</ele>
  <time>2026-09-01T19:49:44Z</time>
  <course>270.0</course>
  <speed>0.0</speed>
  <fix>3d</fix>
</trkpt>
<trkpt lat="-27.2744392" lon="151.2900641">
  <ele>343.07</ele>
  <time>2026-09-01T19:49:44Z</time>
  <course>11.39</course>
  <speed>0.022360679774997897</speed>
  <fix>3d</fix>
</trkpt>
<trkpt lat="-27.274439" lon="151.290064">
  <ele>343.1</ele>
  <time>2026-09-01T19:49:44Z</time>
  <course>270.0</course>
  <speed>0.0</speed>
  <fix>3d</fix>
</trkpt>
<trkpt lat="-27.2744392" lon="151.2900641">
  <ele>343.07</ele>
  <time>2026-09-01T19:49:44Z</time>
  <course>11.39</course>
  <speed>0.022360679774997897</speed>
  <fix>3d</fix>
</trkpt>
<trkpt lat="-27.274439" lon="151.290064">
  <ele>343.1</ele>
  <time>2026-09-01T19:49:44Z</time>
  <course>270.0</course>
  <speed>0.0</speed>
  <fix>3d</fix>
</trkpt>
<trkpt lat="-27.2744392" lon="151.2900641">
  <ele>343.07</ele>
  <time>2026-09-01T19:49:44Z</time>
  <course>11.39</course>
  <speed>0.022360679774997897</speed>
  <fix>3d</fix>
</trkpt>
<trkpt lat="-27.274439" lon="151.290064">
  <ele>343.1</ele>
  <time>2026-09-01T19:49:44Z</time>
  <course>270.0</course>
  <speed>0.0</speed>
  <fix>3d</fix>
</trkpt>
<trkpt lat="-27.2744392" lon="151.2900641">
  <ele>343.07</ele>
  <time>2026-09-01T19:49:44Z</time>
  <course>11.39</course>
  <speed>0.022360679774997897</speed>
  <fix>3d</fix>
</trkpt>
<trkpt lat="-27.274439" lon="151.290064">
  <ele>343.1</ele>
  <time>2026-09-01T19:49:44Z</time>
  <course>270.0</course>
  <speed>0.0</speed>
  <fix>3d</fix>
</trkpt>
<trkpt lat="-27.2744392" lon="151.2900641">
  <ele>343.07</ele>
  <time>2026-09-01T19:49:44Z</time>
  <course>11.39</course>
  <speed>0.022360679774997897</speed>
  <fix>3d</fix>
</trkpt>
<trkpt lat="-27.274439" lon="151.290064">
  <ele>343.1</ele>
  <time>2026-09-01T19:49:44Z</time>
  <course>270.0</course>
  <speed>0.0</speed>
  <fix>3d</fix>
</trkpt>
<trkpt lat="-27.2744392" lon="151.2900641">
  <ele>343.07</ele>
  <time>2026-09-01T19:49:44Z</time>
  <course>11.39</course>
  <speed>0.022360679774997897</speed>
  <fix>3d</fix>
</trkpt>
<trkpt lat="-27.274439" lon="151.290064">
  <ele>343.1</ele>
  <time>2026-09-01T19:49:44Z</time>
  <course>270.0</course>
  <speed>0.0</speed>
  <fix>3d</fix>
</trkpt>
<trkpt lat="-27.2744392" lon="151.2900641">
  <ele>343.07</ele>
  <time>2026-09-01T19:49:44Z</time>
  <course>11.39</course>
  <speed>0.022360679774997897</speed>
  <fix>3d</fix>
</trkpt>
<trkpt lat="-27.274439" lon="151.290064">
  <ele>343.1</ele>
  <time>2026-09-01T19:49:44Z</time>
  <course>270.0</course>
  <speed>0.0</speed>
  <fix>3d</fix>
</trkpt>
<trkpt lat="-27.2744392" lon="151.2900641">
  <ele>343.07</ele>
  <time>2026-09-01T19:49:44Z</time>
  <course>11.39</course>
  <speed>0.022360679774997897</speed>
  <fix>3d</fix>
</trkpt>
<trkpt lat="-27.274439" lon="151.290064">
  <ele>343.1</ele>
  <time>2026-09-01T19:49:44Z</time>
  <course>270.0</course>
  <speed>0.0</speed>
  <fix>3d</fix>
</trkpt>
<trkpt lat="-27.2744392" lon="151.2900641">
  <ele>343.07</ele>
  <time>2026-09-01T19:49:44Z</time>
  <course>11.39</course>
  <speed>0.03605551275463989</speed>
  <fix>3d</fix>
</trkpt>
<trkpt lat="-27.274439" lon="151.290064">
  <ele>343.1</ele>
  <time>2026-09-01T19:49:44Z</time>
  <course>270.0</course>
  <speed>0.0</speed>
  <fix>3d</fix>
</trkpt>
<trkpt lat="-27.2744392" lon="151.2900641">
  <ele>343.07</ele>
  <time>2026-09-01T19:49:44Z</time>
  <course>11.39</course>
  <speed>0.03605551275463989</speed>
  <fix>3d</fix>
</trkpt>
<trkpt lat="-27.274439" lon="151.290064">
  <ele>343.1</ele>
  <time>2026-09-01T19:49:44Z</time>
  <course>270.0</course>
  <speed>0.0</speed>
  <fix>3d</fix>
</trkpt>
<trkpt lat="-27.2744392" lon="151.2900641">
  <ele>343.07</ele>
  <time>2026-09-01T19:49:44Z</time>
  <course>11.39</course>
  <speed>0.03605551275463989</speed>
  <fix>3d</fix>
</trkpt>
<trkpt lat="-27.274439" lon="151.290064">
  <ele>343.1</ele>
  <time>2026-09-01T19:49:44Z</time>
  <course>270.0</course>
  <speed>0.0</speed>
  <fix>3d</fix>
</trkpt>
<trkpt lat="-27.2744392" lon="151.2900641">
  <ele>343.07</ele>
  <time>2026-09-01T19:49:44Z</time>
  <course>11.39</course>
  <speed>0.03605551275463989</speed>
  <fix>3d</fix>
</trkpt>
<trkpt lat="-27.274439" lon="151.290064">
  <ele>343.1</ele>
  <time>2026-09-01T19:49:44Z</time>
  <course>270.0</course>
  <speed>0.0</speed>
  <fix>3d</fix>
</trkpt>
<trkpt lat="-27.2744392" lon="151.2900641">
  <ele>343.07</ele>
  <time>2026-09-01T19:49:44Z</time>
  <course>11.39</course>
  <speed>0.03605551275463989</speed>
  <fix>3d</fix>
</trkpt>
<trkpt lat="-27.274439" lon="151.290064">
  <ele>343.1</ele>
  <time>2026-09-01T19:49:44Z</time>
  <course>270.0</course>
  <speed>0.0</speed>
  <fix>3d</fix>
</trkpt>
<trkpt lat="-27.2744392" lon="151.2900641">
  <ele>343.07</ele>
  <time>2026-09-01T19:49:44Z</time>
  <course>11.39</course>
  <speed>0.03605551275463989</speed>
  <fix>3d</fix>
</trkpt>
<trkpt lat="-27.274439" lon="151.290064">
  <ele>343.1</ele>
  <time>2026-09-01T19:49:44Z</time>
  <course>270.0</course>
  <speed>0.0</speed>
  <fix>3d</fix>
</trkpt>
<trkpt lat="-27.2744392" lon="151.2900641">
  <ele>343.07</ele>
  <time>2026-09-01T19:49:44Z</time>
  <course>11.39</course>
  <speed>0.03605551275463989</speed>
  <fix>3d</fix>
</trkpt>
<trkpt lat="-27.274439" lon="151.290064">
  <ele>343.1</ele>
  <time>2026-09-01T19:49:44Z</time>
  <course>270.0</course>
  <speed>0.0</speed>
  <fix>3d</fix>
</trkpt>
<trkpt lat="-27.2744392" lon="151.2900641">
  <ele>343.07</ele>
  <time>2026-09-01T19:49:44Z</time>
  <course>11.39</course>
  <speed>0.03605551275463989</speed>
  <fix>3d</fix>
</trkpt>
<trkpt lat="-27.274439" lon="151.290064">
  <ele>343.1</ele>
  <time>2026-09-01T19:49:44Z</time>
  <course>270.0</course>
  <speed>0.0</speed>
  <fix>3d</fix>
</trkpt>
<trkpt lat="-27.2744392" lon="151.2900641">
  <ele>343.07</ele>
  <time>2026-09-01T19:49:44Z</time>
  <course>11.39</course>
  <speed>0.03605551275463989</speed>
  <fix>3d</fix>
</trkpt>
<trkpt lat="-27.274439" lon="151.290064">
  <ele>343.1</ele>
  <time>2026-09-01T19:49:44Z</time>
  <course>270.0</course>
  <speed>0.0</speed>
  <fix>3d</fix>
</trkpt>
<trkpt lat="-27.2744392" lon="151.2900641">
  <ele>343.07</ele>
  <time>2026-09-01T19:49:44Z</time>
  <course>11.39</course>
  <speed>0.03605551275463989</speed>
  <fix>3d</fix>
</trkpt>
<trkpt lat="-27.274439" lon="151.290064">
  <ele>343.1</ele>
  <time>2026-09-01T19:49:44Z</time>
  <course>270.0</course>
  <speed>0.0</speed>
  <fix>3d</fix>
</trkpt>
<trkpt lat="-27.2744392" lon="151.2900641">
  <ele>343.07</ele>
  <time>2026-09-01T19:49:44Z</time>
  <course>11.39</course>
  <speed>0.03605551275463989</speed>
  <fix>3d</fix>
</trkpt>
<trkpt lat="-27.274439" lon="151.290064">
  <ele>343.1</ele>
  <time>2026-09-01T19:49:44Z</time>
  <course>270.0</course>
  <speed>0.0</speed>
  <fix>3d</fix>
</trkpt>
<trkpt lat="-27.2744392" lon="151.2900641">
  <ele>343.07</ele>
  <time>2026-09-01T19:49:44Z</time>
  <course>11.39</course>
  <speed>0.03605551275463989</speed>
  <fix>3d</fix>
</trkpt>
<trkpt lat="-27.274439" lon="151.290064">
  <ele>343.1</ele>
  <time>2026-09-01T19:49:44Z</time>
  <course>270.0</course>
  <speed>0.0</speed>
  <fix>3d</fix>
</trkpt>
<trkpt lat="-27.2744392" lon="151.2900641">
  <ele>343.07</ele>
  <time>2026-09-01T19:49:44Z</time>
  <course>11.39</course>
  <speed>0.03605551275463989</speed>
  <fix>3d</fix>
</trkpt>
<trkpt lat="-27.274439" lon="151.290064">
  <ele>343.1</ele>
  <time>2026-09-01T19:49:44Z</time>
  <course>270.0</course>
  <speed>0.0</speed>
  <fix>3d</fix>
</trkpt>
<trkpt lat="-27.2744392" lon="151.2900641">
  <ele>343.07</ele>
  <time>2026-09-01T19:49:44Z</time>
  <course>11.39</course>
  <speed>0.03605551275463989</speed>
  <fix>3d</fix>
</trkpt>
<trkpt lat="-27.274439" lon="151.290064">
  <ele>343.1</ele>
  <time>2026-09-01T19:49:44Z</time>
  <course>270.0</course>
  <speed>0.0</speed>
  <fix>3d</fix>
</trkpt>
<trkpt lat="-27.2744392" lon="151.2900641">
  <ele>343.07</ele>
  <time>2026-09-01T19:49:44Z</time>
  <course>11.39</course>
  <speed>0.03605551275463989</speed>
  <fix>3d</fix>
</trkpt>
<trkpt lat="-27.274439" lon="151.290064">
  <ele>343.1</ele>
  <time>2026-09-01T19:49:44Z</time>
  <course>270.0</course>
  <speed>0.0</speed>
  <fix>3d</fix>
</trkpt>
<trkpt lat="-27.2744392" lon="151.2900641">
  <ele>343.07</ele>
  <time>2026-09-01T19:49:44Z</time>
  <course>11.39</course>
  <speed>0.03605551275463989</speed>
  <fix>3d</fix>
</trkpt>
<trkpt lat="-27.274439" lon="151.290064">
  <ele>343.1</ele>
  <time>2026-09-01T19:49:44Z</time>
  <course>270.0</course>
  <speed>0.0</speed>
  <fix>3d</fix>
</trkpt>
<trkpt lat="-27.2744392" lon="151.2900641">
  <ele>343.07</ele>
  <time>2026-09-01T19:49:44Z</time>
  <course>11.39</course>
  <speed>0.03605551275463989</speed>
  <fix>3d</fix>
</trkpt>
<trkpt lat="-27.274439" lon="151.290064">
  <ele>343.1</ele>
  <time>2026-09-01T19:49:44Z</time>
  <course>270.0</course>
  <speed>0.0</speed>
  <fix>3d</fix>
</trkpt>
<trkpt lat="-27.2744392" lon="151.2900641">
  <ele>343.07</ele>
  <time>2026-09-01T19:49:44Z</time>
  <course>11.39</course>
  <speed>0.03605551275463989</speed>
  <fix>3d</fix>
</trkpt>
<trkpt lat="-27.274439" lon="151.290064">
  <ele>343.1</ele>
  <time>2026-09-01T19:49:44Z</time>
  <course>270.0</course>
  <speed>0.0</speed>
  <fix>3d</fix>
</trkpt>
<trkpt lat="-27.2744392" lon="151.2900641">
  <ele>343.07</ele>
  <time>2026-09-01T19:49:44Z</time>
  <course>11.39</course>
  <speed>0.03605551275463989</speed>
  <fix>3d</fix>
</trkpt>
<trkpt lat="-27.274439" lon="151.290064">
  <ele>343.1</ele>
  <time>2026-09-01T19:49:44Z</time>
  <course>270.0</course>
  <speed>0.0</speed>
  <fix>3d</fix>
</trkpt>
<trkpt lat="-27.2744392" lon="151.2900641">
  <ele>343.06</ele>
  <time>2026-09-01T19:49:44Z</time>
  <course>11.39</course>
  <speed>0.03605551275463989</speed>
  <fix>3d</fix>
</trkpt>
<trkpt lat="-27.274439" lon="151.290064">
  <ele>343.1</ele>
  <time>2026-09-01T19:49:44Z</time>
  <course>270.0</course>
  <speed>0.0</speed>
  <fix>3d</fix>
</trkpt>
<trkpt lat="-27.2744392" lon="151.2900642">
  <ele>343.06</ele>
  <time>2026-09-01T19:49:44Z</time>
  <course>11.39</course>
  <speed>0.03605551275463989</speed>
  <fix>3d</fix>
</trkpt>
<trkpt lat="-27.274439" lon="151.290064">
  <ele>343.1</ele>
  <time>2026-09-01T19:49:44Z</time>
  <course>270.0</course>
  <speed>0.0</speed>
  <fix>3d</fix>
</trkpt>
<trkpt lat="-27.2744392" lon="151.2900641">
  <ele>343.06</ele>
  <time>2026-09-01T19:49:44Z</time>
  <course>11.39</course>
  <speed>0.03605551275463989</speed>
  <fix>3d</fix>
</trkpt>
<trkpt lat="-27.274439" lon="151.290064">
  <ele>343.1</ele>
  <time>2026-09-01T19:49:44Z</time>
  <course>270.0</course>
  <speed>0.0</speed>
  <fix>3d</fix>
</trkpt>
<trkpt lat="-27.2744392" lon="151.2900642">
  <ele>343.07</ele>
  <time>2026-09-01T19:49:44Z</time>
  <course>11.39</course>
  <speed>0.03605551275463989</speed>
  <fix>3d</fix>
</trkpt>
<trkpt lat="-27.274439" lon="151.290064">
  <ele>343.1</ele>
  <time>2026-09-01T19:49:44Z</time>
  <course>270.0</course>
  <speed>0.0</speed>
  <fix>3d</fix>
</trkpt>
<trkpt lat="-27.2744392" lon="151.2900641">
  <ele>343.07</ele>
  <time>2026-09-01T19:49:44Z</time>
  <course>11.39</course>
  <speed>0.03605551275463989</speed>
  <fix>3d</fix>
</trkpt>
<trkpt lat="-27.274439" lon="151.290064">
  <ele>343.1</ele>
  <time>2026-09-01T19:49:44Z</time>
  <course>270.0</course>
  <speed>0.0</speed>
  <fix>3d</fix>
</trkpt>
<trkpt lat="-27.2744392" lon="151.2900642">
  <ele>343.06</ele>
  <time>2026-09-01T19:49:44Z</time>
  <course>11.39</course>
  <speed>0.03605551275463989</speed>
  <fix>3d</fix>
</trkpt>
<trkpt lat="-27.274439" lon="151.290064">
  <ele>343.1</ele>
  <time>2026-09-01T19:49:44Z</time>
  <course>270.0</course>
  <speed>0.0</speed>
  <fix>3d</fix>
</trkpt>
<trkpt lat="-27.2744392" lon="151.2900642">
  <ele>343.06</ele>
  <time>2026-09-01T19:49:44Z</time>
  <course>11.39</course>
  <speed>0.03605551275463989</speed>
  <fix>3d</fix>
</trkpt>
<trkpt lat="-27.274439" lon="151.290064">
  <ele>343.1</ele>
  <time>2026-09-01T19:49:44Z</time>
  <course>270.0</course>
  <speed>0.0</speed>
  <fix>3d</fix>
</trkpt>
<trkpt lat="-27.2744392" lon="151.2900642">
  <ele>343.06</ele>
  <time>2026-09-01T19:49:44Z</time>
  <course>11.39</course>
  <speed>0.03605551275463989</speed>
  <fix>3d</fix>
</trkpt>
<trkpt lat="-27.274439" lon="151.290064">
  <ele>343.1</ele>
  <time>2026-09-01T19:49:44Z</time>
  <course>270.0</course>
  <speed>0.0</speed>
  <fix>3d</fix>
</trkpt>
<trkpt lat="-27.2744392" lon="151.2900642">
  <ele>343.06</ele>
  <time>2026-09-01T19:49:44Z</time>
  <course>11.38</course>
  <speed>0.03605551275463989</speed>
  <fix>3d</fix>
</trkpt>
<trkpt lat="-27.274439" lon="151.290064">
  <ele>343.1</ele>
  <time>2026-09-01T19:49:44Z</time>
  <course>270.0</course>
  <speed>0.0</speed>
  <fix>3d</fix>
</trkpt>
<trkpt lat="-27.2744392" lon="151.2900642">
  <ele>343.06</ele>
  <time>2026-09-01T19:49:44Z</time>
  <course>11.38</course>
  <speed>0.03605551275463989</speed>
  <fix>3d</fix>
</trkpt>
<trkpt lat="-27.274439" lon="151.290064">
  <ele>343.1</ele>
  <time>2026-09-01T19:49:44Z</time>
  <course>270.0</course>
  <speed>0.0</speed>
  <fix>3d</fix>
</trkpt>
<trkpt lat="-27.2744392" lon="151.2900642">
  <ele>343.06</ele>
  <time>2026-09-01T19:49:44Z</time>
  <course>11.38</course>
  <speed>0.03605551275463989</speed>
  <fix>3d</fix>
</trkpt>
<trkpt lat="-27.274439" lon="151.290064">
  <ele>343.1</ele>
  <time>2026-09-01T19:49:44Z</time>
  <course>270.0</course>
  <speed>0.0</speed>
  <fix>3d</fix>
</trkpt>
<trkpt lat="-27.2744392" lon="151.2900642">
  <ele>343.06</ele>
  <time>2026-09-01T19:49:44Z</time>
  <course>11.38</course>
  <speed>0.03605551275463989</speed>
  <fix>3d</fix>
</trkpt>
<trkpt lat="-27.274439" lon="151.290064">
  <ele>343.1</ele>
  <time>2026-09-01T19:49:44Z</time>
  <course>270.0</course>
  <speed>0.0</speed>
  <fix>3d</fix>
</trkpt>
<trkpt lat="-27.2744392" lon="151.2900642">
  <ele>343.06</ele>
  <time>2026-09-01T19:49:44Z</time>
  <course>11.38</course>
  <speed>0.03605551275463989</speed>
  <fix>3d</fix>
</trkpt>
<trkpt lat="-27.274439" lon="151.290064">
  <ele>343.1</ele>
  <time>2026-09-01T19:49:44Z</time>
  <course>270.0</course>
  <speed>0.0</speed>
  <fix>3d</fix>
</trkpt>
<trkpt lat="-27.2744392" lon="151.2900642">
  <ele>343.06</ele>
  <time>2026-09-01T19:49:44Z</time>
  <course>11.38</course>
  <speed>0.03605551275463989</speed>
  <fix>3d</fix>
</trkpt>
<trkpt lat="-27.274439" lon="151.290064">
  <ele>343.1</ele>
  <time>2026-09-01T19:49:44Z</time>
  <course>270.0</course>
  <speed>0.0</speed>
  <fix>3d</fix>
</trkpt>
<trkpt lat="-27.2744392" lon="151.2900642">
  <ele>343.06</ele>
  <time>2026-09-01T19:49:44Z</time>
  <course>11.38</course>
  <speed>0.03605551275463989</speed>
  <fix>3d</fix>
</trkpt>
<trkpt lat="-27.274439" lon="151.290064">
  <ele>343.1</ele>
  <time>2026-09-01T19:49:44Z</time>
  <course>270.0</course>
  <speed>0.0</speed>
  <fix>3d</fix>
</trkpt>
<trkpt lat="-27.2744392" lon="151.2900642">
  <ele>343.06</ele>
  <time>2026-09-01T19:49:44Z</time>
  <course>11.38</course>
  <speed>0.03605551275463989</speed>
  <fix>3d</fix>
</trkpt>
<trkpt lat="-27.274439" lon="151.290064">
  <ele>343.1</ele>
  <time>2026-09-01T19:49:44Z</time>
  <course>270.0</course>
  <speed>0.0</speed>
  <fix>3d</fix>
</trkpt>
<trkpt lat="-27.2744392" lon="151.2900642">
  <ele>343.07</ele>
  <time>2026-09-01T19:49:44Z</time>
  <course>11.38</course>
  <speed>0.03605551275463989</speed>
  <fix>3d</fix>
</trkpt>
<trkpt lat="-27.274439" lon="151.290064">
  <ele>343.1</ele>
  <time>2026-09-01T19:49:44Z</time>
  <course>270.0</course>
  <speed>0.0</speed>
  <fix>3d</fix>
</trkpt>
<trkpt lat="-27.2744392" lon="151.2900642">
  <ele>343.07</ele>
  <time>2026-09-01T19:49:44Z</time>
  <course>11.38</course>
  <speed>0.03605551275463989</speed>
  <fix>3d</fix>
</trkpt>
<trkpt lat="-27.274439" lon="151.290064">
  <ele>343.1</ele>
  <time>2026-09-01T19:49:44Z</time>
  <course>270.0</course>
  <speed>0.0</speed>
  <fix>3d</fix>
</trkpt>
<trkpt lat="-27.2744392" lon="151.2900642">
  <ele>343.07</ele>
  <time>2026-09-01T19:49:44Z</time>
  <course>11.38</course>
  <speed>0.03605551275463989</speed>
  <fix>3d</fix>
</trkpt>
<trkpt lat="-27.274439" lon="151.290064">
  <ele>343.1</ele>
  <time>2026-09-01T19:49:45Z</time>
  <course>270.0</course>
  <speed>0.0</speed>
  <fix>3d</fix>
</trkpt>
<trkpt lat="-27.2744392" lon="151.2900642">
  <ele>343.07</ele>
  <time>2026-09-01T19:49:45Z</time>
  <course>11.38</course>
  <speed>0.03605551275463989</speed>
  <fix>3d</fix>
</trkpt>
<trkpt lat="-27.274439" lon="151.290064">
  <ele>343.1</ele>
  <time>2026-09-01T19:49:45Z</time>
  <course>270.0</course>
  <speed>0.0</speed>
  <fix>3d</fix>
</trkpt>
<trkpt lat="-27.2744392" lon="151.2900642">
  <ele>343.07</ele>
  <time>2026-09-01T19:49:45Z</time>
  <course>11.38</course>
  <speed>0.03605551275463989</speed>
  <fix>3d</fix>
</trkpt>
<trkpt lat="-27.274439" lon="151.290064">
  <ele>343.1</ele>
  <time>2026-09-01T19:49:45Z</time>
  <course>270.0</course>
  <speed>0.0</speed>
  <fix>3d</fix>
</trkpt>
<trkpt lat="-27.2744392" lon="151.2900642">
  <ele>343.06</ele>
  <time>2026-09-01T19:49:45Z</time>
  <course>11.38</course>
  <speed>0.03605551275463989</speed>
  <fix>3d</fix>
</trkpt>
<trkpt lat="-27.274439" lon="151.290064">
  <ele>343.1</ele>
  <time>2026-09-01T19:49:45Z</time>
  <course>270.0</course>
  <speed>0.0</speed>
  <fix>3d</fix>
</trkpt>
<trkpt lat="-27.2744392" lon="151.2900642">
  <ele>343.06</ele>
  <time>2026-09-01T19:49:45Z</time>
  <course>11.38</course>
  <speed>0.03605551275463989</speed>
  <fix>3d</fix>
</trkpt>
<trkpt lat="-27.274439" lon="151.290064">
  <ele>343.1</ele>
  <time>2026-09-01T19:49:45Z</time>
  <course>270.0</course>
  <speed>0.0</speed>
  <fix>3d</fix>
</trkpt>
<trkpt lat="-27.2744392" lon="151.2900642">
  <ele>343.06</ele>
  <time>2026-09-01T19:49:45Z</time>
  <course>11.38</course>
  <speed>0.03605551275463989</speed>
  <fix>3d</fix>
</trkpt>
<trkpt lat="-27.274439" lon="151.290064">
  <ele>343.1</ele>
  <time>2026-09-01T19:49:45Z</time>
  <course>270.0</course>
  <speed>0.0</speed>
  <fix>3d</fix>
</trkpt>
<trkpt lat="-27.2744392" lon="151.2900642">
  <ele>343.09</ele>
  <time>2026-09-01T19:49:45Z</time>
  <course>11.38</course>
  <speed>0.03605551275463989</speed>
  <fix>3d</fix>
</trkpt>
<trkpt lat="-27.274439" lon="151.290064">
  <ele>343.1</ele>
  <time>2026-09-01T19:49:45Z</time>
  <course>270.0</course>
  <speed>0.0</speed>
  <fix>3d</fix>
</trkpt>
<trkpt lat="-27.2744392" lon="151.2900642">
  <ele>343.09</ele>
  <time>2026-09-01T19:49:45Z</time>
  <course>11.38</course>
  <speed>0.03605551275463989</speed>
  <fix>3d</fix>
</trkpt>
<trkpt lat="-27.274439" lon="151.290064">
  <ele>343.1</ele>
  <time>2026-09-01T19:49:45Z</time>
  <course>270.0</course>
  <speed>0.0</speed>
  <fix>3d</fix>
</trkpt>
<trkpt lat="-27.2744392" lon="151.2900642">
  <ele>343.09</ele>
  <time>2026-09-01T19:49:45Z</time>
  <course>11.38</course>
  <speed>0.03605551275463989</speed>
  <fix>3d</fix>
</trkpt>
<trkpt lat="-27.274439" lon="151.290064">
  <ele>343.1</ele>
  <time>2026-09-01T19:49:45Z</time>
  <course>270.0</course>
  <speed>0.0</speed>
  <fix>3d</fix>
</trkpt>
<trkpt lat="-27.2744392" lon="151.2900642">
  <ele>343.09</ele>
  <time>2026-09-01T19:49:45Z</time>
  <course>11.38</course>
  <speed>0.03605551275463989</speed>
  <fix>3d</fix>
</trkpt>
<trkpt lat="-27.274439" lon="151.290064">
  <ele>343.1</ele>
  <time>2026-09-01T19:49:45Z</time>
  <course>270.0</course>
  <speed>0.0</speed>
  <fix>3d</fix>
</trkpt>
<trkpt lat="-27.2744392" lon="151.2900642">
  <ele>343.09</ele>
  <time>2026-09-01T19:49:45Z</time>
  <course>11.38</course>
  <speed>0.03605551275463989</speed>
  <fix>3d</fix>
</trkpt>
<trkpt lat="-27.274439" lon="151.290064">
  <ele>343.1</ele>
  <time>2026-09-01T19:49:45Z</time>
  <course>270.0</course>
  <speed>0.0</speed>
  <fix>3d</fix>
</trkpt>
<trkpt lat="-27.2744392" lon="151.2900642">
  <ele>343.09</ele>
  <time>2026-09-01T19:49:45Z</time>
  <course>11.38</course>
  <speed>0.03605551275463989</speed>
  <fix>3d</fix>
</trkpt>
<trkpt lat="-27.274439" lon="151.290064">
  <ele>343.1</ele>
  <time>2026-09-01T19:49:45Z</time>
  <course>270.0</course>
  <speed>0.0</speed>
  <fix>3d</fix>
</trkpt>
<trkpt lat="-27.2744392" lon="151.2900642">
  <ele>343.09</ele>
  <time>2026-09-01T19:49:45Z</time>
  <course>11.38</course>
  <speed>0.03605551275463989</speed>
  <fix>3d</fix>
</trkpt>
<trkpt lat="-27.274439" lon="151.290064">
  <ele>343.1</ele>
  <time>2026-09-01T19:49:45Z</time>
  <course>270.0</course>
  <speed>0.0</speed>
  <fix>3d</fix>
</trkpt>
<trkpt lat="-27.2744392" lon="151.2900642">
  <ele>343.09</ele>
  <time>2026-09-01T19:49:45Z</time>
  <course>11.38</course>
  <speed>0.03605551275463989</speed>
  <fix>3d</fix>
</trkpt>
<trkpt lat="-27.274439" lon="151.290064">
  <ele>343.1</ele>
  <time>2026-09-01T19:49:45Z</time>
  <course>270.0</course>
  <speed>0.0</speed>
  <fix>3d</fix>
</trkpt>
<trkpt lat="-27.2744392" lon="151.2900642">
  <ele>343.09</ele>
  <time>2026-09-01T19:49:45Z</time>
  <course>11.38</course>
  <speed>0.03605551275463989</speed>
  <fix>3d</fix>
</trkpt>
<trkpt lat="-27.274439" lon="151.290064">
  <ele>343.1</ele>
  <time>2026-09-01T19:49:45Z</time>
  <course>270.0</course>
  <speed>0.0</speed>
  <fix>3d</fix>
</trkpt>
<trkpt lat="-27.2744392" lon="151.2900642">
  <ele>343.09</ele>
  <time>2026-09-01T19:49:45Z</time>
  <course>11.38</course>
  <speed>0.03605551275463989</speed>
  <fix>3d</fix>
</trkpt>
<trkpt lat="-27.274439" lon="151.290064">
  <ele>343.1</ele>
  <time>2026-09-01T19:49:45Z</time>
  <course>270.0</course>
  <speed>0.0</speed>
  <fix>3d</fix>
</trkpt>
<trkpt lat="-27.2744392" lon="151.2900642">
  <ele>343.09</ele>
  <time>2026-09-01T19:49:45Z</time>
  <course>11.38</course>
  <speed>0.03605551275463989</speed>
  <fix>3d</fix>
</trkpt>
<trkpt lat="-27.274439" lon="151.290064">
  <ele>343.1</ele>
  <time>2026-09-01T19:49:45Z</time>
  <course>270.0</course>
  <speed>0.0</speed>
  <fix>3d</fix>
</trkpt>
<trkpt lat="-27.2744392" lon="151.2900642">
  <ele>343.09</ele>
  <time>2026-09-01T19:49:45Z</time>
  <course>11.38</course>
  <speed>0.03605551275463989</speed>
  <fix>3d</fix>
</trkpt>
<trkpt lat="-27.274439" lon="151.290064">
  <ele>343.1</ele>
  <time>2026-09-01T19:49:45Z</time>
  <course>270.0</course>
  <speed>0.0</speed>
  <fix>3d</fix>
</trkpt>
<trkpt lat="-27.2744392" lon="151.2900642">
  <ele>343.09</ele>
  <time>2026-09-01T19:49:45Z</time>
  <course>11.38</course>
  <speed>0.03605551275463989</speed>
  <fix>3d</fix>
</trkpt>
<trkpt lat="-27.274439" lon="151.290064">
  <ele>343.1</ele>
  <time>2026-09-01T19:49:45Z</time>
  <course>270.0</course>
  <speed>0.0</speed>
  <fix>3d</fix>
</trkpt>
<trkpt lat="-27.2744392" lon="151.2900642">
  <ele>343.1</ele>
  <time>2026-09-01T19:49:45Z</time>
  <course>11.38</course>
  <speed>0.03605551275463989</speed>
  <fix>3d</fix>
</trkpt>
<trkpt lat="-27.274439" lon="151.290064">
  <ele>343.1</ele>
  <time>2026-09-01T19:49:45Z</time>
  <course>270.0</course>
  <speed>0.0</speed>
  <fix>3d</fix>
</trkpt>
<trkpt lat="-27.2744392" lon="151.2900642">
  <ele>343.1</ele>
  <time>2026-09-01T19:49:45Z</time>
  <course>11.38</course>
  <speed>0.03605551275463989</speed>
  <fix>3d</fix>
</trkpt>
<trkpt lat="-27.274439" lon="151.290064">
  <ele>343.1</ele>
  <time>2026-09-01T19:49:45Z</time>
  <course>270.0</course>
  <speed>0.0</speed>
  <fix>3d</fix>
</trkpt>
<trkpt lat="-27.2744392" lon="151.2900642">
  <ele>343.1</ele>
  <time>2026-09-01T19:49:45Z</time>
  <course>11.38</course>
  <speed>0.03605551275463989</speed>
  <fix>3d</fix>
</trkpt>
<trkpt lat="-27.274439" lon="151.290064">
  <ele>343.1</ele>
  <time>2026-09-01T19:49:45Z</time>
  <course>270.0</course>
  <speed>0.0</speed>
  <fix>3d</fix>
</trkpt>
<trkpt lat="-27.2744392" lon="151.2900642">
  <ele>343.1</ele>
  <time>2026-09-01T19:49:45Z</time>
  <course>11.38</course>
  <speed>0.03605551275463989</speed>
  <fix>3d</fix>
</trkpt>
<trkpt lat="-27.274439" lon="151.290064">
  <ele>343.1</ele>
  <time>2026-09-01T19:49:45Z</time>
  <course>270.0</course>
  <speed>0.0</speed>
  <fix>3d</fix>
</trkpt>
<trkpt lat="-27.2744392" lon="151.2900642">
  <ele>343.1</ele>
  <time>2026-09-01T19:49:45Z</time>
  <course>11.38</course>
  <speed>0.03605551275463989</speed>
  <fix>3d</fix>
</trkpt>
<trkpt lat="-27.274439" lon="151.290064">
  <ele>343.1</ele>
  <time>2026-09-01T19:49:45Z</time>
  <course>270.0</course>
  <speed>0.0</speed>
  <fix>3d</fix>
</trkpt>
<trkpt lat="-27.2744392" lon="151.2900642">
  <ele>343.1</ele>
  <time>2026-09-01T19:49:45Z</time>
  <course>11.38</course>
  <speed>0.03605551275463989</speed>
  <fix>3d</fix>
</trkpt>
<trkpt lat="-27.274439" lon="151.290064">
  <ele>343.1</ele>
  <time>2026-09-01T19:49:45Z</time>
  <course>270.0</course>
  <speed>0.0</speed>
  <fix>3d</fix>
</trkpt>
<trkpt lat="-27.2744392" lon="151.2900642">
  <ele>343.1</ele>
  <time>2026-09-01T19:49:45Z</time>
  <course>11.38</course>
  <speed>0.03605551275463989</speed>
  <fix>3d</fix>
</trkpt>
<trkpt lat="-27.274439" lon="151.290064">
  <ele>343.1</ele>
  <time>2026-09-01T19:49:45Z</time>
  <course>270.0</course>
  <speed>0.0</speed>
  <fix>3d</fix>
</trkpt>
<trkpt lat="-27.2744392" lon="151.2900642">
  <ele>343.1</ele>
  <time>2026-09-01T19:49:45Z</time>
  <course>11.38</course>
  <speed>0.03605551275463989</speed>
  <fix>3d</fix>
</trkpt>
<trkpt lat="-27.274439" lon="151.290064">
  <ele>343.1</ele>
  <time>2026-09-01T19:49:45Z</time>
  <course>270.0</course>
  <speed>0.0</speed>
  <fix>3d</fix>
</trkpt>
<trkpt lat="-27.2744392" lon="151.2900642">
  <ele>343.1</ele>
  <time>2026-09-01T19:49:45Z</time>
  <course>11.38</course>
  <speed>0.03605551275463989</speed>
  <fix>3d</fix>
</trkpt>
<trkpt lat="-27.274439" lon="151.290064">
  <ele>343.1</ele>
  <time>2026-09-01T19:49:45Z</time>
  <course>270.0</course>
  <speed>0.0</speed>
  <fix>3d</fix>
</trkpt>
<trkpt lat="-27.2744392" lon="151.2900642">
  <ele>343.11</ele>
  <time>2026-09-01T19:49:45Z</time>
  <course>11.38</course>
  <speed>0.03605551275463989</speed>
  <fix>3d</fix>
</trkpt>
<trkpt lat="-27.274439" lon="151.290064">
  <ele>343.1</ele>
  <time>2026-09-01T19:49:45Z</time>
  <course>270.0</course>
  <speed>0.0</speed>
  <fix>3d</fix>
</trkpt>
<trkpt lat="-27.2744392" lon="151.2900642">
  <ele>343.11</ele>
  <time>2026-09-01T19:49:45Z</time>
  <course>11.38</course>
  <speed>0.03605551275463989</speed>
  <fix>3d</fix>
</trkpt>
<trkpt lat="-27.274439" lon="151.290064">
  <ele>343.1</ele>
  <time>2026-09-01T19:49:45Z</time>
  <course>270.0</course>
  <speed>0.0</speed>
  <fix>3d</fix>
</trkpt>
<trkpt lat="-27.2744392" lon="151.2900642">
  <ele>343.11</ele>
  <time>2026-09-01T19:49:45Z</time>
  <course>11.38</course>
  <speed>0.03605551275463989</speed>
  <fix>3d</fix>
</trkpt>
<trkpt lat="-27.274439" lon="151.290064">
  <ele>343.1</ele>
  <time>2026-09-01T19:49:45Z</time>
  <course>270.0</course>
  <speed>0.0</speed>
  <fix>3d</fix>
</trkpt>
<trkpt lat="-27.2744392" lon="151.2900642">
  <ele>343.11</ele>
  <time>2026-09-01T19:49:45Z</time>
  <course>11.38</course>
  <speed>0.03605551275463989</speed>
  <fix>3d</fix>
</trkpt>
<trkpt lat="-27.274439" lon="151.290064">
  <ele>343.1</ele>
  <time>2026-09-01T19:49:45Z</time>
  <course>270.0</course>
  <speed>0.0</speed>
  <fix>3d</fix>
</trkpt>
<trkpt lat="-27.2744392" lon="151.2900642">
  <ele>343.11</ele>
  <time>2026-09-01T19:49:45Z</time>
  <course>11.38</course>
  <speed>0.03605551275463989</speed>
  <fix>3d</fix>
</trkpt>
<trkpt lat="-27.274439" lon="151.290064">
  <ele>343.1</ele>
  <time>2026-09-01T19:49:45Z</time>
  <course>270.0</course>
  <speed>0.0</speed>
  <fix>3d</fix>
</trkpt>
<trkpt lat="-27.2744392" lon="151.2900642">
  <ele>343.11</ele>
  <time>2026-09-01T19:49:45Z</time>
  <course>11.38</course>
  <speed>0.03605551275463989</speed>
  <fix>3d</fix>
</trkpt>
<trkpt lat="-27.274439" lon="151.290064">
  <ele>343.1</ele>
  <time>2026-09-01T19:49:45Z</time>
  <course>270.0</course>
  <speed>0.0</speed>
  <fix>3d</fix>
</trkpt>
<trkpt lat="-27.2744392" lon="151.2900642">
  <ele>343.11</ele>
  <time>2026-09-01T19:49:45Z</time>
  <course>11.38</course>
  <speed>0.03605551275463989</speed>
  <fix>3d</fix>
</trkpt>
<trkpt lat="-27.274439" lon="151.290064">
  <ele>343.1</ele>
  <time>2026-09-01T19:49:45Z</time>
  <course>270.0</course>
  <speed>0.0</speed>
  <fix>3d</fix>
</trkpt>
<trkpt lat="-27.2744392" lon="151.2900642">
  <ele>343.12</ele>
  <time>2026-09-01T19:49:45Z</time>
  <course>11.38</course>
  <speed>0.03605551275463989</speed>
  <fix>3d</fix>
</trkpt>
<trkpt lat="-27.274439" lon="151.290064">
  <ele>343.1</ele>
  <time>2026-09-01T19:49:45Z</time>
  <course>270.0</course>
  <speed>0.0</speed>
  <fix>3d</fix>
</trkpt>
<trkpt lat="-27.2744392" lon="151.2900642">
  <ele>343.12</ele>
  <time>2026-09-01T19:49:45Z</time>
  <course>11.38</course>
  <speed>0.03605551275463989</speed>
  <fix>3d</fix>
</trkpt>
<trkpt lat="-27.274439" lon="151.290064">
  <ele>343.1</ele>
  <time>2026-09-01T19:49:45Z</time>
  <course>270.0</course>
  <speed>0.0</speed>
  <fix>3d</fix>
</trkpt>
<trkpt lat="-27.2744392" lon="151.2900642">
  <ele>343.12</ele>
  <time>2026-09-01T19:49:45Z</time>
  <course>11.37</course>
  <speed>0.03605551275463989</speed>
  <fix>3d</fix>
</trkpt>
<trkpt lat="-27.274439" lon="151.290064">
  <ele>343.1</ele>
  <time>2026-09-01T19:49:45Z</time>
  <course>270.0</course>
  <speed>0.0</speed>
  <fix>3d</fix>
</trkpt>
<trkpt lat="-27.2744392" lon="151.2900642">
  <ele>343.12</ele>
  <time>2026-09-01T19:49:45Z</time>
  <course>11.37</course>
  <speed>0.03605551275463989</speed>
  <fix>3d</fix>
</trkpt>
<trkpt lat="-27.274439" lon="151.290064">
  <ele>343.1</ele>
  <time>2026-09-01T19:49:45Z</time>
  <course>270.0</course>
  <speed>0.0</speed>
  <fix>3d</fix>
</trkpt>
<trkpt lat="-27.2744392" lon="151.2900642">
  <ele>343.12</ele>
  <time>2026-09-01T19:49:45Z</time>
  <course>11.37</course>
  <speed>0.03605551275463989</speed>
  <fix>3d</fix>
</trkpt>
<trkpt lat="-27.274439" lon="151.290064">
  <ele>343.1</ele>
  <time>2026-09-01T19:49:45Z</time>
  <course>270.0</course>
  <speed>0.0</speed>
  <fix>3d</fix>
</trkpt>
<trkpt lat="-27.2744392" lon="151.2900642">
  <ele>343.12</ele>
  <time>2026-09-01T19:49:45Z</time>
  <course>11.37</course>
  <speed>0.03605551275463989</speed>
  <fix>3d</fix>
</trkpt>
<trkpt lat="-27.274439" lon="151.290064">
  <ele>343.1</ele>
  <time>2026-09-01T19:49:45Z</time>
  <course>270.0</course>
  <speed>0.0</speed>
  <fix>3d</fix>
</trkpt>
<trkpt lat="-27.2744392" lon="151.2900642">
  <ele>343.12</ele>
  <time>2026-09-01T19:49:45Z</time>
  <course>11.37</course>
  <speed>0.03605551275463989</speed>
  <fix>3d</fix>
</trkpt>
<trkpt lat="-27.274439" lon="151.290064">
  <ele>343.1</ele>
  <time>2026-09-01T19:49:45Z</time>
  <course>270.0</course>
  <speed>0.0</speed>
  <fix>3d</fix>
</trkpt>
<trkpt lat="-27.2744392" lon="151.2900642">
  <ele>343.12</ele>
  <time>2026-09-01T19:49:45Z</time>
  <course>11.37</course>
  <speed>0.03605551275463989</speed>
  <fix>3d</fix>
</trkpt>
<trkpt lat="-27.274439" lon="151.290064">
  <ele>343.1</ele>
  <time>2026-09-01T19:49:45Z</time>
  <course>270.0</course>
  <speed>0.0</speed>
  <fix>3d</fix>
</trkpt>
<trkpt lat="-27.2744392" lon="151.2900642">
  <ele>343.12</ele>
  <time>2026-09-01T19:49:45Z</time>
  <course>11.37</course>
  <speed>0.03605551275463989</speed>
  <fix>3d</fix>
</trkpt>
<trkpt lat="-27.274439" lon="151.290064">
  <ele>343.1</ele>
  <time>2026-09-01T19:49:45Z</time>
  <course>270.0</course>
  <speed>0.0</speed>
  <fix>3d</fix>
</trkpt>
<trkpt lat="-27.2744392" lon="151.2900642">
  <ele>343.12</ele>
  <time>2026-09-01T19:49:45Z</time>
  <course>11.37</course>
  <speed>0.03605551275463989</speed>
  <fix>3d</fix>
</trkpt>
<trkpt lat="-27.274439" lon="151.290064">
  <ele>343.1</ele>
  <time>2026-09-01T19:49:45Z</time>
  <course>270.0</course>
  <speed>0.0</speed>
  <fix>3d</fix>
</trkpt>
<trkpt lat="-27.2744392" lon="151.2900642">
  <ele>343.12</ele>
  <time>2026-09-01T19:49:45Z</time>
  <course>11.37</course>
  <speed>0.03605551275463989</speed>
  <fix>3d</fix>
</trkpt>
<trkpt lat="-27.274439" lon="151.290064">
  <ele>343.1</ele>
  <time>2026-09-01T19:49:45Z</time>
  <course>270.0</course>
  <speed>0.0</speed>
  <fix>3d</fix>
</trkpt>
<trkpt lat="-27.2744392" lon="151.2900642">
  <ele>343.13</ele>
  <time>2026-09-01T19:49:45Z</time>
  <course>11.37</course>
  <speed>0.03605551275463989</speed>
  <fix>3d</fix>
</trkpt>
<trkpt lat="-27.274439" lon="151.290064">
  <ele>343.1</ele>
  <time>2026-09-01T19:49:45Z</time>
  <course>270.0</course>
  <speed>0.0</speed>
  <fix>3d</fix>
</trkpt>
<trkpt lat="-27.2744392" lon="151.2900642">
  <ele>343.13</ele>
  <time>2026-09-01T19:49:45Z</time>
  <course>11.37</course>
  <speed>0.03605551275463989</speed>
  <fix>3d</fix>
</trkpt>
<trkpt lat="-27.274439" lon="151.290064">
  <ele>343.1</ele>
  <time>2026-09-01T19:49:45Z</time>
  <course>270.0</course>
  <speed>0.0</speed>
  <fix>3d</fix>
</trkpt>
<trkpt lat="-27.2744392" lon="151.2900642">
  <ele>343.13</ele>
  <time>2026-09-01T19:49:45Z</time>
  <course>11.37</course>
  <speed>0.03605551275463989</speed>
  <fix>3d</fix>
</trkpt>
<trkpt lat="-27.274439" lon="151.290064">
  <ele>343.1</ele>
  <time>2026-09-01T19:49:45Z</time>
  <course>270.0</course>
  <speed>0.0</speed>
  <fix>3d</fix>
</trkpt>
<trkpt lat="-27.2744392" lon="151.2900642">
  <ele>343.13</ele>
  <time>2026-09-01T19:49:45Z</time>
  <course>11.37</course>
  <speed>0.03605551275463989</speed>
  <fix>3d</fix>
</trkpt>
<trkpt lat="-27.274439" lon="151.290064">
  <ele>343.1</ele>
  <time>2026-09-01T19:49:45Z</time>
  <course>270.0</course>
  <speed>0.0</speed>
  <fix>3d</fix>
</trkpt>
<trkpt lat="-27.2744392" lon="151.2900642">
  <ele>343.14</ele>
  <time>2026-09-01T19:49:45Z</time>
  <course>11.37</course>
  <speed>0.03605551275463989</speed>
  <fix>3d</fix>
</trkpt>
<trkpt lat="-27.274439" lon="151.290064">
  <ele>343.1</ele>
  <time>2026-09-01T19:49:45Z</time>
  <course>270.0</course>
  <speed>0.0</speed>
  <fix>3d</fix>
</trkpt>
<trkpt lat="-27.2744392" lon="151.2900642">
  <ele>343.14</ele>
  <time>2026-09-01T19:49:45Z</time>
  <course>11.37</course>
  <speed>0.03605551275463989</speed>
  <fix>3d</fix>
</trkpt>
<trkpt lat="-27.274439" lon="151.290064">
  <ele>343.1</ele>
  <time>2026-09-01T19:49:45Z</time>
  <course>270.0</course>
  <speed>0.0</speed>
  <fix>3d</fix>
</trkpt>
<trkpt lat="-27.2744392" lon="151.2900642">
  <ele>343.14</ele>
  <time>2026-09-01T19:49:45Z</time>
  <course>11.37</course>
  <speed>0.03605551275463989</speed>
  <fix>3d</fix>
</trkpt>
<trkpt lat="-27.274439" lon="151.290064">
  <ele>343.1</ele>
  <time>2026-09-01T19:49:45Z</time>
  <course>270.0</course>
  <speed>0.0</speed>
  <fix>3d</fix>
</trkpt>
<trkpt lat="-27.2744392" lon="151.2900642">
  <ele>343.14</ele>
  <time>2026-09-01T19:49:45Z</time>
  <course>11.37</course>
  <speed>0.03605551275463989</speed>
  <fix>3d</fix>
</trkpt>
<trkpt lat="-27.274439" lon="151.290064">
  <ele>343.1</ele>
  <time>2026-09-01T19:49:45Z</time>
  <course>270.0</course>
  <speed>0.0</speed>
  <fix>3d</fix>
</trkpt>
<trkpt lat="-27.2744392" lon="151.2900642">
  <ele>343.15</ele>
  <time>2026-09-01T19:49:45Z</time>
  <course>11.37</course>
  <speed>0.03605551275463989</speed>
  <fix>3d</fix>
</trkpt>
<trkpt lat="-27.274439" lon="151.290064">
  <ele>343.1</ele>
  <time>2026-09-01T19:49:45Z</time>
  <course>270.0</course>
  <speed>0.0</speed>
  <fix>3d</fix>
</trkpt>
<trkpt lat="-27.2744392" lon="151.2900642">
  <ele>343.15</ele>
  <time>2026-09-01T19:49:45Z</time>
  <course>11.37</course>
  <speed>0.03605551275463989</speed>
  <fix>3d</fix>
</trkpt>
<trkpt lat="-27.274439" lon="151.290064">
  <ele>343.1</ele>
  <time>2026-09-01T19:49:45Z</time>
  <course>270.0</course>
  <speed>0.0</speed>
  <fix>3d</fix>
</trkpt>
<trkpt lat="-27.2744392" lon="151.2900642">
  <ele>343.15</ele>
  <time>2026-09-01T19:49:45Z</time>
  <course>11.37</course>
  <speed>0.03605551275463989</speed>
  <fix>3d</fix>
</trkpt>
<trkpt lat="-27.274439" lon="151.290064">
  <ele>343.1</ele>
  <time>2026-09-01T19:49:45Z</time>
  <course>270.0</course>
  <speed>0.0</speed>
  <fix>3d</fix>
</trkpt>
<trkpt lat="-27.2744392" lon="151.2900642">
  <ele>343.15</ele>
  <time>2026-09-01T19:49:45Z</time>
  <course>11.37</course>
  <speed>0.03605551275463989</speed>
  <fix>3d</fix>
</trkpt>
<trkpt lat="-27.274439" lon="151.290064">
  <ele>343.1</ele>
  <time>2026-09-01T19:49:45Z</time>
  <course>270.0</course>
  <speed>0.0</speed>
  <fix>3d</fix>
</trkpt>
<trkpt lat="-27.2744392" lon="151.2900642">
  <ele>343.15</ele>
  <time>2026-09-01T19:49:45Z</time>
  <course>11.37</course>
  <speed>0.03605551275463989</speed>
  <fix>3d</fix>
</trkpt>
<trkpt lat="-27.274439" lon="151.290064">
  <ele>343.1</ele>
  <time>2026-09-01T19:49:45Z</time>
  <course>270.0</course>
  <speed>0.0</speed>
  <fix>3d</fix>
</trkpt>
<trkpt lat="-27.2744392" lon="151.2900642">
  <ele>343.15</ele>
  <time>2026-09-01T19:49:45Z</time>
  <course>11.37</course>
  <speed>0.03605551275463989</speed>
  <fix>3d</fix>
</trkpt>
<trkpt lat="-27.274439" lon="151.290064">
  <ele>343.1</ele>
  <time>2026-09-01T19:49:45Z</time>
  <course>270.0</course>
  <speed>0.0</speed>
  <fix>3d</fix>
</trkpt>
<trkpt lat="-27.2744392" lon="151.2900642">
  <ele>343.15</ele>
  <time>2026-09-01T19:49:45Z</time>
  <course>11.37</course>
  <speed>0.03605551275463989</speed>
  <fix>3d</fix>
</trkpt>
<trkpt lat="-27.274439" lon="151.290064">
  <ele>343.1</ele>
  <time>2026-09-01T19:49:45Z</time>
  <course>270.0</course>
  <speed>0.0</speed>
  <fix>3d</fix>
</trkpt>
<trkpt lat="-27.2744392" lon="151.2900642">
  <ele>343.15</ele>
  <time>2026-09-01T19:49:45Z</time>
  <course>11.37</course>
  <speed>0.03605551275463989</speed>
  <fix>3d</fix>
</trkpt>
<trkpt lat="-27.274439" lon="151.290064">
  <ele>343.1</ele>
  <time>2026-09-01T19:49:45Z</time>
  <course>270.0</course>
  <speed>0.0</speed>
  <fix>3d</fix>
</trkpt>
<trkpt lat="-27.2744392" lon="151.2900642">
  <ele>343.15</ele>
  <time>2026-09-01T19:49:45Z</time>
  <course>11.37</course>
  <speed>0.03605551275463989</speed>
  <fix>3d</fix>
</trkpt>
<trkpt lat="-27.274439" lon="151.290064">
  <ele>343.1</ele>
  <time>2026-09-01T19:49:45Z</time>
  <course>270.0</course>
  <speed>0.0</speed>
  <fix>3d</fix>
</trkpt>
<trkpt lat="-27.2744392" lon="151.2900642">
  <ele>343.14</ele>
  <time>2026-09-01T19:49:45Z</time>
  <course>11.37</course>
  <speed>0.03605551275463989</speed>
  <fix>3d</fix>
</trkpt>
<trkpt lat="-27.274439" lon="151.290064">
  <ele>343.1</ele>
  <time>2026-09-01T19:49:45Z</time>
  <course>270.0</course>
  <speed>0.0</speed>
  <fix>3d</fix>
</trkpt>
<trkpt lat="-27.2744392" lon="151.2900642">
  <ele>343.14</ele>
  <time>2026-09-01T19:49:45Z</time>
  <course>11.37</course>
  <speed>0.03605551275463989</speed>
  <fix>3d</fix>
</trkpt>
<trkpt lat="-27.274439" lon="151.290064">
  <ele>343.1</ele>
  <time>2026-09-01T19:49:45Z</time>
  <course>270.0</course>
  <speed>0.0</speed>
  <fix>3d</fix>
</trkpt>
<trkpt lat="-27.2744392" lon="151.2900642">
  <ele>343.14</ele>
  <time>2026-09-01T19:49:45Z</time>
  <course>11.37</course>
  <speed>0.03605551275463989</speed>
  <fix>3d</fix>
</trkpt>
<trkpt lat="-27.274439" lon="151.290064">
  <ele>343.1</ele>
  <time>2026-09-01T19:49:45Z</time>
  <course>270.0</course>
  <speed>0.0</speed>
  <fix>3d</fix>
</trkpt>
<trkpt lat="-27.2744392" lon="151.2900642">
  <ele>343.09</ele>
  <time>2026-09-01T19:49:45Z</time>
  <course>11.37</course>
  <speed>0.03605551275463989</speed>
  <fix>3d</fix>
</trkpt>
<trkpt lat="-27.274439" lon="151.290064">
  <ele>343.1</ele>
  <time>2026-09-01T19:49:45Z</time>
  <course>270.0</course>
  <speed>0.0</speed>
  <fix>3d</fix>
</trkpt>
<trkpt lat="-27.2744392" lon="151.2900642">
  <ele>343.1</ele>
  <time>2026-09-01T19:49:45Z</time>
  <course>11.37</course>
  <speed>0.03605551275463989</speed>
  <fix>3d</fix>
</trkpt>
<trkpt lat="-27.274439" lon="151.290064">
  <ele>343.1</ele>
  <time>2026-09-01T19:49:45Z</time>
  <course>270.0</course>
  <speed>0.0</speed>
  <fix>3d</fix>
</trkpt>
<trkpt lat="-27.2744392" lon="151.2900642">
  <ele>343.1</ele>
  <time>2026-09-01T19:49:45Z</time>
  <course>11.37</course>
  <speed>0.03605551275463989</speed>
  <fix>3d</fix>
</trkpt>
<trkpt lat="-27.274439" lon="151.290064">
  <ele>343.1</ele>
  <time>2026-09-01T19:49:45Z</time>
  <course>270.0</course>
  <speed>0.0</speed>
  <fix>3d</fix>
</trkpt>
<trkpt lat="-27.2744392" lon="151.2900642">
  <ele>343.1</ele>
  <time>2026-09-01T19:49:45Z</time>
  <course>11.37</course>
  <speed>0.03605551275463989</speed>
  <fix>3d</fix>
</trkpt>
<trkpt lat="-27.274439" lon="151.290064">
  <ele>343.1</ele>
  <time>2026-09-01T19:49:45Z</time>
  <course>270.0</course>
  <speed>0.0</speed>
  <fix>3d</fix>
</trkpt>
<trkpt lat="-27.2744392" lon="151.2900642">
  <ele>343.1</ele>
  <time>2026-09-01T19:49:45Z</time>
  <course>11.37</course>
  <speed>0.03605551275463989</speed>
  <fix>3d</fix>
</trkpt>
<trkpt lat="-27.274439" lon="151.290064">
  <ele>343.1</ele>
  <time>2026-09-01T19:49:45Z</time>
  <course>270.0</course>
  <speed>0.0</speed>
  <fix>3d</fix>
</trkpt>
<trkpt lat="-27.2744392" lon="151.2900642">
  <ele>343.1</ele>
  <time>2026-09-01T19:49:45Z</time>
  <course>11.37</course>
  <speed>0.03605551275463989</speed>
  <fix>3d</fix>
</trkpt>
<trkpt lat="-27.274439" lon="151.290064">
  <ele>343.1</ele>
  <time>2026-09-01T19:49:45Z</time>
  <course>270.0</course>
  <speed>0.0</speed>
  <fix>3d</fix>
</trkpt>
<trkpt lat="-27.2744392" lon="151.2900642">
  <ele>343.1</ele>
  <time>2026-09-01T19:49:45Z</time>
  <course>11.37</course>
  <speed>0.03605551275463989</speed>
  <fix>3d</fix>
</trkpt>
<trkpt lat="-27.274439" lon="151.290064">
  <ele>343.1</ele>
  <time>2026-09-01T19:49:45Z</time>
  <course>270.0</course>
  <speed>0.0</speed>
  <fix>3d</fix>
</trkpt>
<trkpt lat="-27.2744392" lon="151.2900642">
  <ele>343.1</ele>
  <time>2026-09-01T19:49:45Z</time>
  <course>11.37</course>
  <speed>0.03605551275463989</speed>
  <fix>3d</fix>
</trkpt>
<trkpt lat="-27.274439" lon="151.290064">
  <ele>343.1</ele>
  <time>2026-09-01T19:49:45Z</time>
  <course>270.0</course>
  <speed>0.0</speed>
  <fix>3d</fix>
</trkpt>
<trkpt lat="-27.2744392" lon="151.2900642">
  <ele>343.1</ele>
  <time>2026-09-01T19:49:45Z</time>
  <course>11.37</course>
  <speed>0.03605551275463989</speed>
  <fix>3d</fix>
</trkpt>
<trkpt lat="-27.274439" lon="151.290064">
  <ele>343.1</ele>
  <time>2026-09-01T19:49:45Z</time>
  <course>270.0</course>
  <speed>0.0</speed>
  <fix>3d</fix>
</trkpt>
<trkpt lat="-27.2744392" lon="151.2900642">
  <ele>343.1</ele>
  <time>2026-09-01T19:49:45Z</time>
  <course>11.37</course>
  <speed>0.03605551275463989</speed>
  <fix>3d</fix>
</trkpt>
<trkpt lat="-27.274439" lon="151.290064">
  <ele>343.1</ele>
  <time>2026-09-01T19:49:45Z</time>
  <course>270.0</course>
  <speed>0.0</speed>
  <fix>3d</fix>
</trkpt>
<trkpt lat="-27.2744392" lon="151.2900642">
  <ele>343.1</ele>
  <time>2026-09-01T19:49:45Z</time>
  <course>11.37</course>
  <speed>0.03605551275463989</speed>
  <fix>3d</fix>
</trkpt>
<trkpt lat="-27.274439" lon="151.290064">
  <ele>343.1</ele>
  <time>2026-09-01T19:49:45Z</time>
  <course>270.0</course>
  <speed>0.0</speed>
  <fix>3d</fix>
</trkpt>
<trkpt lat="-27.2744392" lon="151.2900642">
  <ele>343.09</ele>
  <time>2026-09-01T19:49:45Z</time>
  <course>11.37</course>
  <speed>0.03605551275463989</speed>
  <fix>3d</fix>
</trkpt>
<trkpt lat="-27.274439" lon="151.290064">
  <ele>343.1</ele>
  <time>2026-09-01T19:49:45Z</time>
  <course>270.0</course>
  <speed>0.0</speed>
  <fix>3d</fix>
</trkpt>
<trkpt lat="-27.2744392" lon="151.2900642">
  <ele>343.09</ele>
  <time>2026-09-01T19:49:45Z</time>
  <course>11.37</course>
  <speed>0.03605551275463989</speed>
  <fix>3d</fix>
</trkpt>
<trkpt lat="-27.274439" lon="151.290064">
  <ele>343.1</ele>
  <time>2026-09-01T19:49:45Z</time>
  <course>270.0</course>
  <speed>0.0</speed>
  <fix>3d</fix>
</trkpt>
<trkpt lat="-27.2744392" lon="151.2900642">
  <ele>343.09</ele>
  <time>2026-09-01T19:49:45Z</time>
  <course>11.37</course>
  <speed>0.03605551275463989</speed>
  <fix>3d</fix>
</trkpt>
<trkpt lat="-27.274439" lon="151.290064">
  <ele>343.1</ele>
  <time>2026-09-01T19:49:45Z</time>
  <course>270.0</course>
  <speed>0.0</speed>
  <fix>3d</fix>
</trkpt>
<trkpt lat="-27.2744392" lon="151.2900642">
  <ele>343.09</ele>
  <time>2026-09-01T19:49:45Z</time>
  <course>11.37</course>
  <speed>0.03605551275463989</speed>
  <fix>3d</fix>
</trkpt>
<trkpt lat="-27.274439" lon="151.290064">
  <ele>343.1</ele>
  <time>2026-09-01T19:49:45Z</time>
  <course>270.0</course>
  <speed>0.0</speed>
  <fix>3d</fix>
</trkpt>
<trkpt lat="-27.2744392" lon="151.2900642">
  <ele>343.09</ele>
  <time>2026-09-01T19:49:45Z</time>
  <course>11.37</course>
  <speed>0.03605551275463989</speed>
  <fix>3d</fix>
</trkpt>
<trkpt lat="-27.274439" lon="151.290064">
  <ele>343.1</ele>
  <time>2026-09-01T19:49:45Z</time>
  <course>270.0</course>
  <speed>0.0</speed>
  <fix>3d</fix>
</trkpt>
<trkpt lat="-27.2744392" lon="151.2900642">
  <ele>343.09</ele>
  <time>2026-09-01T19:49:45Z</time>
  <course>11.37</course>
  <speed>0.03605551275463989</speed>
  <fix>3d</fix>
</trkpt>
<trkpt lat="-27.274439" lon="151.290064">
  <ele>343.1</ele>
  <time>2026-09-01T19:49:45Z</time>
  <course>270.0</course>
  <speed>0.0</speed>
  <fix>3d</fix>
</trkpt>
<trkpt lat="-27.2744392" lon="151.2900642">
  <ele>343.09</ele>
  <time>2026-09-01T19:49:45Z</time>
  <course>11.37</course>
  <speed>0.03605551275463989</speed>
  <fix>3d</fix>
</trkpt>
<trkpt lat="-27.274439" lon="151.290064">
  <ele>343.1</ele>
  <time>2026-09-01T19:49:45Z</time>
  <course>270.0</course>
  <speed>0.0</speed>
  <fix>3d</fix>
</trkpt>
<trkpt lat="-27.2744392" lon="151.2900642">
  <ele>343.09</ele>
  <time>2026-09-01T19:49:45Z</time>
  <course>11.37</course>
  <speed>0.03605551275463989</speed>
  <fix>3d</fix>
</trkpt>
<trkpt lat="-27.274439" lon="151.290064">
  <ele>343.1</ele>
  <time>2026-09-01T19:49:45Z</time>
  <course>270.0</course>
  <speed>0.0</speed>
  <fix>3d</fix>
</trkpt>
<trkpt lat="-27.2744392" lon="151.2900642">
  <ele>343.09</ele>
  <time>2026-09-01T19:49:45Z</time>
  <course>11.37</course>
  <speed>0.03605551275463989</speed>
  <fix>3d</fix>
</trkpt>
<trkpt lat="-27.274439" lon="151.290064">
  <ele>343.1</ele>
  <time>2026-09-01T19:49:45Z</time>
  <course>270.0</course>
  <speed>0.0</speed>
  <fix>3d</fix>
</trkpt>
<trkpt lat="-27.2744392" lon="151.2900642">
  <ele>343.09</ele>
  <time>2026-09-01T19:49:45Z</time>
  <course>11.37</course>
  <speed>0.03605551275463989</speed>
  <fix>3d</fix>
</trkpt>
<trkpt lat="-27.274439" lon="151.290064">
  <ele>343.1</ele>
  <time>2026-09-01T19:49:45Z</time>
  <course>270.0</course>
  <speed>0.0</speed>
  <fix>3d</fix>
</trkpt>
<trkpt lat="-27.2744392" lon="151.2900642">
  <ele>343.09</ele>
  <time>2026-09-01T19:49:45Z</time>
  <course>11.37</course>
  <speed>0.03605551275463989</speed>
  <fix>3d</fix>
</trkpt>
<trkpt lat="-27.274439" lon="151.290064">
  <ele>343.1</ele>
  <time>2026-09-01T19:49:45Z</time>
  <course>270.0</course>
  <speed>0.0</speed>
  <fix>3d</fix>
</trkpt>
<trkpt lat="-27.2744392" lon="151.2900642">
  <ele>343.09</ele>
  <time>2026-09-01T19:49:45Z</time>
  <course>11.37</course>
  <speed>0.03605551275463989</speed>
  <fix>3d</fix>
</trkpt>
<trkpt lat="-27.274439" lon="151.290064">
  <ele>343.1</ele>
  <time>2026-09-01T19:49:45Z</time>
  <course>270.0</course>
  <speed>0.0</speed>
  <fix>3d</fix>
</trkpt>
<trkpt lat="-27.2744392" lon="151.2900642">
  <ele>343.09</ele>
  <time>2026-09-01T19:49:45Z</time>
  <course>11.37</course>
  <speed>0.03605551275463989</speed>
  <fix>3d</fix>
</trkpt>
<trkpt lat="-27.274439" lon="151.290064">
  <ele>343.1</ele>
  <time>2026-09-01T19:49:45Z</time>
  <course>270.0</course>
  <speed>0.0</speed>
  <fix>3d</fix>
</trkpt>
<trkpt lat="-27.2744392" lon="151.2900642">
  <ele>343.09</ele>
  <time>2026-09-01T19:49:45Z</time>
  <course>11.37</course>
  <speed>0.03605551275463989</speed>
  <fix>3d</fix>
</trkpt>
<trkpt lat="-27.274439" lon="151.290064">
  <ele>343.1</ele>
  <time>2026-09-01T19:49:45Z</time>
  <course>270.0</course>
  <speed>0.0</speed>
  <fix>3d</fix>
</trkpt>
<trkpt lat="-27.2744392" lon="151.2900642">
  <ele>343.09</ele>
  <time>2026-09-01T19:49:45Z</time>
  <course>11.37</course>
  <speed>0.03605551275463989</speed>
  <fix>3d</fix>
</trkpt>
<trkpt lat="-27.274439" lon="151.290064">
  <ele>343.1</ele>
  <time>2026-09-01T19:49:45Z</time>
  <course>270.0</course>
  <speed>0.0</speed>
  <fix>3d</fix>
</trkpt>
<trkpt lat="-27.2744392" lon="151.2900642">
  <ele>343.09</ele>
  <time>2026-09-01T19:49:45Z</time>
  <course>11.37</course>
  <speed>0.03605551275463989</speed>
  <fix>3d</fix>
</trkpt>
<trkpt lat="-27.274439" lon="151.290064">
  <ele>343.1</ele>
  <time>2026-09-01T19:49:45Z</time>
  <course>270.0</course>
  <speed>0.0</speed>
  <fix>3d</fix>
</trkpt>
<trkpt lat="-27.2744392" lon="151.2900642">
  <ele>343.09</ele>
  <time>2026-09-01T19:49:45Z</time>
  <course>11.37</course>
  <speed>0.03605551275463989</speed>
  <fix>3d</fix>
</trkpt>
<trkpt lat="-27.274439" lon="151.290064">
  <ele>343.1</ele>
  <time>2026-09-01T19:49:45Z</time>
  <course>270.0</course>
  <speed>0.0</speed>
  <fix>3d</fix>
</trkpt>
<trkpt lat="-27.2744392" lon="151.2900642">
  <ele>343.09</ele>
  <time>2026-09-01T19:49:45Z</time>
  <course>11.37</course>
  <speed>0.03605551275463989</speed>
  <fix>3d</fix>
</trkpt>
<trkpt lat="-27.274439" lon="151.290064">
  <ele>343.1</ele>
  <time>2026-09-01T19:49:45Z</time>
  <course>270.0</course>
  <speed>0.0</speed>
  <fix>3d</fix>
</trkpt>
<trkpt lat="-27.2744392" lon="151.2900642">
  <ele>343.09</ele>
  <time>2026-09-01T19:49:45Z</time>
  <course>11.37</course>
  <speed>0.03605551275463989</speed>
  <fix>3d</fix>
</trkpt>
<trkpt lat="-27.274439" lon="151.290064">
  <ele>343.1</ele>
  <time>2026-09-01T19:49:45Z</time>
  <course>270.0</course>
  <speed>0.0</speed>
  <fix>3d</fix>
</trkpt>
<trkpt lat="-27.2744392" lon="151.2900642">
  <ele>343.09</ele>
  <time>2026-09-01T19:49:45Z</time>
  <course>11.37</course>
  <speed>0.03605551275463989</speed>
  <fix>3d</fix>
</trkpt>
<trkpt lat="-27.274439" lon="151.290064">
  <ele>343.1</ele>
  <time>2026-09-01T19:49:45Z</time>
  <course>270.0</course>
  <speed>0.0</speed>
  <fix>3d</fix>
</trkpt>
<trkpt lat="-27.2744392" lon="151.2900642">
  <ele>343.09</ele>
  <time>2026-09-01T19:49:45Z</time>
  <course>11.37</course>
  <speed>0.03605551275463989</speed>
  <fix>3d</fix>
</trkpt>
<trkpt lat="-27.274439" lon="151.290064">
  <ele>343.1</ele>
  <time>2026-09-01T19:49:45Z</time>
  <course>270.0</course>
  <speed>0.0</speed>
  <fix>3d</fix>
</trkpt>
<trkpt lat="-27.2744392" lon="151.2900642">
  <ele>343.09</ele>
  <time>2026-09-01T19:49:45Z</time>
  <course>11.37</course>
  <speed>0.03605551275463989</speed>
  <fix>3d</fix>
</trkpt>
<trkpt lat="-27.274439" lon="151.290064">
  <ele>343.1</ele>
  <time>2026-09-01T19:49:45Z</time>
  <course>270.0</course>
  <speed>0.0</speed>
  <fix>3d</fix>
</trkpt>
<trkpt lat="-27.2744392" lon="151.2900642">
  <ele>343.09</ele>
  <time>2026-09-01T19:49:45Z</time>
  <course>11.37</course>
  <speed>0.03605551275463989</speed>
  <fix>3d</fix>
</trkpt>
<trkpt lat="-27.274439" lon="151.290064">
  <ele>343.1</ele>
  <time>2026-09-01T19:49:45Z</time>
  <course>270.0</course>
  <speed>0.0</speed>
  <fix>3d</fix>
</trkpt>
<trkpt lat="-27.2744392" lon="151.2900642">
  <ele>343.09</ele>
  <time>2026-09-01T19:49:45Z</time>
  <course>11.37</course>
  <speed>0.03605551275463989</speed>
  <fix>3d</fix>
</trkpt>
<trkpt lat="-27.274439" lon="151.290064">
  <ele>343.1</ele>
  <time>2026-09-01T19:49:45Z</time>
  <course>270.0</course>
  <speed>0.0</speed>
  <fix>3d</fix>
</trkpt>
<trkpt lat="-27.2744392" lon="151.2900642">
  <ele>343.09</ele>
  <time>2026-09-01T19:49:45Z</time>
  <course>11.37</course>
  <speed>0.03605551275463989</speed>
  <fix>3d</fix>
</trkpt>
<trkpt lat="-27.274439" lon="151.290064">
  <ele>343.1</ele>
  <time>2026-09-01T19:49:45Z</time>
  <course>270.0</course>
  <speed>0.0</speed>
  <fix>3d</fix>
</trkpt>
<trkpt lat="-27.2744392" lon="151.2900642">
  <ele>343.08</ele>
  <time>2026-09-01T19:49:45Z</time>
  <course>11.37</course>
  <speed>0.03605551275463989</speed>
  <fix>3d</fix>
</trkpt>
<trkpt lat="-27.274439" lon="151.290064">
  <ele>343.1</ele>
  <time>2026-09-01T19:49:45Z</time>
  <course>270.0</course>
  <speed>0.0</speed>
  <fix>3d</fix>
</trkpt>
<trkpt lat="-27.2744392" lon="151.2900642">
  <ele>343.08</ele>
  <time>2026-09-01T19:49:45Z</time>
  <course>11.37</course>
  <speed>0.03605551275463989</speed>
  <fix>3d</fix>
</trkpt>
<trkpt lat="-27.274439" lon="151.290064">
  <ele>343.1</ele>
  <time>2026-09-01T19:49:45Z</time>
  <course>270.0</course>
  <speed>0.0</speed>
  <fix>3d</fix>
</trkpt>
<trkpt lat="-27.2744392" lon="151.2900642">
  <ele>343.08</ele>
  <time>2026-09-01T19:49:45Z</time>
  <course>11.37</course>
  <speed>0.03605551275463989</speed>
  <fix>3d</fix>
</trkpt>
<trkpt lat="-27.274439" lon="151.290064">
  <ele>343.1</ele>
  <time>2026-09-01T19:49:45Z</time>
  <course>270.0</course>
  <speed>0.0</speed>
  <fix>3d</fix>
</trkpt>
<trkpt lat="-27.2744392" lon="151.2900642">
  <ele>343.08</ele>
  <time>2026-09-01T19:49:45Z</time>
  <course>11.37</course>
  <speed>0.03605551275463989</speed>
  <fix>3d</fix>
</trkpt>
<trkpt lat="-27.274439" lon="151.290064">
  <ele>343.1</ele>
  <time>2026-09-01T19:49:45Z</time>
  <course>270.0</course>
  <speed>0.0</speed>
  <fix>3d</fix>
</trkpt>
<trkpt lat="-27.2744392" lon="151.2900642">
  <ele>343.08</ele>
  <time>2026-09-01T19:49:45Z</time>
  <course>11.37</course>
  <speed>0.03605551275463989</speed>
  <fix>3d</fix>
</trkpt>
<trkpt lat="-27.274439" lon="151.290064">
  <ele>343.1</ele>
  <time>2026-09-01T19:49:45Z</time>
  <course>270.0</course>
  <speed>0.0</speed>
  <fix>3d</fix>
</trkpt>
<trkpt lat="-27.2744392" lon="151.2900642">
  <ele>343.08</ele>
  <time>2026-09-01T19:49:45Z</time>
  <course>11.37</course>
  <speed>0.03605551275463989</speed>
  <fix>3d</fix>
</trkpt>
<trkpt lat="-27.274439" lon="151.290064">
  <ele>343.1</ele>
  <time>2026-09-01T19:49:45Z</time>
  <course>270.0</course>
  <speed>0.0</speed>
  <fix>3d</fix>
</trkpt>
<trkpt lat="-27.2744392" lon="151.2900642">
  <ele>343.08</ele>
  <time>2026-09-01T19:49:45Z</time>
  <course>11.37</course>
  <speed>0.03605551275463989</speed>
  <fix>3d</fix>
</trkpt>
<trkpt lat="-27.274439" lon="151.290064">
  <ele>343.1</ele>
  <time>2026-09-01T19:49:45Z</time>
  <course>270.0</course>
  <speed>0.0</speed>
  <fix>3d</fix>
</trkpt>
<trkpt lat="-27.2744392" lon="151.2900642">
  <ele>343.08</ele>
  <time>2026-09-01T19:49:45Z</time>
  <course>11.37</course>
  <speed>0.03605551275463989</speed>
  <fix>3d</fix>
</trkpt>
<trkpt lat="-27.274439" lon="151.290064">
  <ele>343.1</ele>
  <time>2026-09-01T19:49:45Z</time>
  <course>270.0</course>
  <speed>0.0</speed>
  <fix>3d</fix>
</trkpt>
<trkpt lat="-27.2744392" lon="151.2900642">
  <ele>343.08</ele>
  <time>2026-09-01T19:49:45Z</time>
  <course>11.37</course>
  <speed>0.03605551275463989</speed>
  <fix>3d</fix>
</trkpt>
<trkpt lat="-27.274439" lon="151.290064">
  <ele>343.1</ele>
  <time>2026-09-01T19:49:45Z</time>
  <course>270.0</course>
  <speed>0.0</speed>
  <fix>3d</fix>
</trkpt>
<trkpt lat="-27.2744392" lon="151.2900642">
  <ele>343.08</ele>
  <time>2026-09-01T19:49:45Z</time>
  <course>11.37</course>
  <speed>0.03605551275463989</speed>
  <fix>3d</fix>
</trkpt>
<trkpt lat="-27.274439" lon="151.290064">
  <ele>343.1</ele>
  <time>2026-09-01T19:49:45Z</time>
  <course>270.0</course>
  <speed>0.0</speed>
  <fix>3d</fix>
</trkpt>
<trkpt lat="-27.2744392" lon="151.2900642">
  <ele>343.07</ele>
  <time>2026-09-01T19:49:45Z</time>
  <course>11.37</course>
  <speed>0.03605551275463989</speed>
  <fix>3d</fix>
</trkpt>
<trkpt lat="-27.274439" lon="151.290064">
  <ele>343.1</ele>
  <time>2026-09-01T19:49:45Z</time>
  <course>270.0</course>
  <speed>0.0</speed>
  <fix>3d</fix>
</trkpt>
<trkpt lat="-27.2744392" lon="151.2900642">
  <ele>343.07</ele>
  <time>2026-09-01T19:49:45Z</time>
  <course>11.37</course>
  <speed>0.03605551275463989</speed>
  <fix>3d</fix>
</trkpt>
<trkpt lat="-27.274439" lon="151.290064">
  <ele>343.1</ele>
  <time>2026-09-01T19:49:45Z</time>
  <course>270.0</course>
  <speed>0.0</speed>
  <fix>3d</fix>
</trkpt>
<trkpt lat="-27.2744392" lon="151.2900642">
  <ele>343.08</ele>
  <time>2026-09-01T19:49:45Z</time>
  <course>11.37</course>
  <speed>0.03605551275463989</speed>
  <fix>3d</fix>
</trkpt>
<trkpt lat="-27.274439" lon="151.290064">
  <ele>343.1</ele>
  <time>2026-09-01T19:49:45Z</time>
  <course>270.0</course>
  <speed>0.0</speed>
  <fix>3d</fix>
</trkpt>
<trkpt lat="-27.2744392" lon="151.2900642">
  <ele>343.08</ele>
  <time>2026-09-01T19:49:45Z</time>
  <course>11.37</course>
  <speed>0.03605551275463989</speed>
  <fix>3d</fix>
</trkpt>
<trkpt lat="-27.274439" lon="151.290064">
  <ele>343.1</ele>
  <time>2026-09-01T19:49:45Z</time>
  <course>270.0</course>
  <speed>0.0</speed>
  <fix>3d</fix>
</trkpt>
<trkpt lat="-27.2744392" lon="151.2900642">
  <ele>343.08</ele>
  <time>2026-09-01T19:49:45Z</time>
  <course>11.37</course>
  <speed>0.03605551275463989</speed>
  <fix>3d</fix>
</trkpt>
<trkpt lat="-27.274439" lon="151.290064">
  <ele>343.1</ele>
  <time>2026-09-01T19:49:45Z</time>
  <course>270.0</course>
  <speed>0.0</speed>
  <fix>3d</fix>
</trkpt>
<trkpt lat="-27.2744392" lon="151.2900642">
  <ele>343.08</ele>
  <time>2026-09-01T19:49:45Z</time>
  <course>11.37</course>
  <speed>0.03605551275463989</speed>
  <fix>3d</fix>
</trkpt>
<trkpt lat="-27.274439" lon="151.290064">
  <ele>343.1</ele>
  <time>2026-09-01T19:49:45Z</time>
  <course>270.0</course>
  <speed>0.0</speed>
  <fix>3d</fix>
</trkpt>
<trkpt lat="-27.2744392" lon="151.2900642">
  <ele>343.08</ele>
  <time>2026-09-01T19:49:45Z</time>
  <course>11.37</course>
  <speed>0.03605551275463989</speed>
  <fix>3d</fix>
</trkpt>
<trkpt lat="-27.274439" lon="151.290064">
  <ele>343.1</ele>
  <time>2026-09-01T19:49:45Z</time>
  <course>270.0</course>
  <speed>0.0</speed>
  <fix>3d</fix>
</trkpt>
<trkpt lat="-27.2744392" lon="151.2900642">
  <ele>343.08</ele>
  <time>2026-09-01T19:49:45Z</time>
  <course>11.37</course>
  <speed>0.03605551275463989</speed>
  <fix>3d</fix>
</trkpt>
<trkpt lat="-27.274439" lon="151.290064">
  <ele>343.1</ele>
  <time>2026-09-01T19:49:45Z</time>
  <course>270.0</course>
  <speed>0.0</speed>
  <fix>3d</fix>
</trkpt>
<trkpt lat="-27.2744392" lon="151.2900642">
  <ele>343.07</ele>
  <time>2026-09-01T19:49:45Z</time>
  <course>11.37</course>
  <speed>0.03605551275463989</speed>
  <fix>3d</fix>
</trkpt>
<trkpt lat="-27.274439" lon="151.290064">
  <ele>343.1</ele>
  <time>2026-09-01T19:49:45Z</time>
  <course>270.0</course>
  <speed>0.0</speed>
  <fix>3d</fix>
</trkpt>
<trkpt lat="-27.2744392" lon="151.2900642">
  <ele>343.08</ele>
  <time>2026-09-01T19:49:45Z</time>
  <course>11.37</course>
  <speed>0.03605551275463989</speed>
  <fix>3d</fix>
</trkpt>
<trkpt lat="-27.274439" lon="151.290064">
  <ele>343.1</ele>
  <time>2026-09-01T19:49:45Z</time>
  <course>270.0</course>
  <speed>0.0</speed>
  <fix>3d</fix>
</trkpt>
<trkpt lat="-27.2744392" lon="151.2900642">
  <ele>343.08</ele>
  <time>2026-09-01T19:49:45Z</time>
  <course>11.37</course>
  <speed>0.03605551275463989</speed>
  <fix>3d</fix>
</trkpt>
<trkpt lat="-27.274439" lon="151.290064">
  <ele>343.1</ele>
  <time>2026-09-01T19:49:45Z</time>
  <course>270.0</course>
  <speed>0.0</speed>
  <fix>3d</fix>
</trkpt>
<trkpt lat="-27.2744392" lon="151.2900642">
  <ele>343.08</ele>
  <time>2026-09-01T19:49:45Z</time>
  <course>11.37</course>
  <speed>0.03605551275463989</speed>
  <fix>3d</fix>
</trkpt>
<trkpt lat="-27.274439" lon="151.290064">
  <ele>343.1</ele>
  <time>2026-09-01T19:49:45Z</time>
  <course>270.0</course>
  <speed>0.0</speed>
  <fix>3d</fix>
</trkpt>
<trkpt lat="-27.2744392" lon="151.2900642">
  <ele>343.08</ele>
  <time>2026-09-01T19:49:45Z</time>
  <course>11.37</course>
  <speed>0.03605551275463989</speed>
  <fix>3d</fix>
</trkpt>
<trkpt lat="-27.274439" lon="151.290064">
  <ele>343.1</ele>
  <time>2026-09-01T19:49:45Z</time>
  <course>270.0</course>
  <speed>0.0</speed>
  <fix>3d</fix>
</trkpt>
<trkpt lat="-27.2744392" lon="151.2900642">
  <ele>343.08</ele>
  <time>2026-09-01T19:49:45Z</time>
  <course>11.37</course>
  <speed>0.03605551275463989</speed>
  <fix>3d</fix>
</trkpt>
<trkpt lat="-27.274439" lon="151.290064">
  <ele>343.1</ele>
  <time>2026-09-01T19:49:45Z</time>
  <course>270.0</course>
  <speed>0.0</speed>
  <fix>3d</fix>
</trkpt>
<trkpt lat="-27.2744392" lon="151.2900642">
  <ele>343.09</ele>
  <time>2026-09-01T19:49:45Z</time>
  <course>11.37</course>
  <speed>0.03605551275463989</speed>
  <fix>3d</fix>
</trkpt>
<trkpt lat="-27.274439" lon="151.290064">
  <ele>343.1</ele>
  <time>2026-09-01T19:49:45Z</time>
  <course>270.0</course>
  <speed>0.0</speed>
  <fix>3d</fix>
</trkpt>
<trkpt lat="-27.2744392" lon="151.2900642">
  <ele>343.09</ele>
  <time>2026-09-01T19:49:45Z</time>
  <course>11.37</course>
  <speed>0.03605551275463989</speed>
  <fix>3d</fix>
</trkpt>
<trkpt lat="-27.274439" lon="151.290064">
  <ele>343.1</ele>
  <time>2026-09-01T19:49:45Z</time>
  <course>270.0</course>
  <speed>0.0</speed>
  <fix>3d</fix>
</trkpt>
<trkpt lat="-27.2744392" lon="151.2900642">
  <ele>343.09</ele>
  <time>2026-09-01T19:49:45Z</time>
  <course>11.37</course>
  <speed>0.03605551275463989</speed>
  <fix>3d</fix>
</trkpt>
<trkpt lat="-27.274439" lon="151.290064">
  <ele>343.1</ele>
  <time>2026-09-01T19:49:45Z</time>
  <course>270.0</course>
  <speed>0.0</speed>
  <fix>3d</fix>
</trkpt>
<trkpt lat="-27.2744392" lon="151.2900642">
  <ele>343.09</ele>
  <time>2026-09-01T19:49:45Z</time>
  <course>11.37</course>
  <speed>0.03605551275463989</speed>
  <fix>3d</fix>
</trkpt>
<trkpt lat="-27.274439" lon="151.290064">
  <ele>343.1</ele>
  <time>2026-09-01T19:49:45Z</time>
  <course>270.0</course>
  <speed>0.0</speed>
  <fix>3d</fix>
</trkpt>
<trkpt lat="-27.2744392" lon="151.2900642">
  <ele>343.09</ele>
  <time>2026-09-01T19:49:45Z</time>
  <course>11.37</course>
  <speed>0.03605551275463989</speed>
  <fix>3d</fix>
</trkpt>
<trkpt lat="-27.274439" lon="151.290064">
  <ele>343.1</ele>
  <time>2026-09-01T19:49:45Z</time>
  <course>270.0</course>
  <speed>0.0</speed>
  <fix>3d</fix>
</trkpt>
<trkpt lat="-27.2744392" lon="151.2900642">
  <ele>343.09</ele>
  <time>2026-09-01T19:49:45Z</time>
  <course>11.37</course>
  <speed>0.03605551275463989</speed>
  <fix>3d</fix>
</trkpt>
<trkpt lat="-27.274439" lon="151.290064">
  <ele>343.1</ele>
  <time>2026-09-01T19:49:45Z</time>
  <course>270.0</course>
  <speed>0.0</speed>
  <fix>3d</fix>
</trkpt>
<trkpt lat="-27.2744392" lon="151.2900642">
  <ele>343.1</ele>
  <time>2026-09-01T19:49:45Z</time>
  <course>11.37</course>
  <speed>0.03605551275463989</speed>
  <fix>3d</fix>
</trkpt>
<trkpt lat="-27.274439" lon="151.290064">
  <ele>343.1</ele>
  <time>2026-09-01T19:49:45Z</time>
  <course>270.0</course>
  <speed>0.0</speed>
  <fix>3d</fix>
</trkpt>
<trkpt lat="-27.2744392" lon="151.2900642">
  <ele>343.1</ele>
  <time>2026-09-01T19:49:45Z</time>
  <course>11.37</course>
  <speed>0.03605551275463989</speed>
  <fix>3d</fix>
</trkpt>
<trkpt lat="-27.274439" lon="151.290064">
  <ele>343.1</ele>
  <time>2026-09-01T19:49:45Z</time>
  <course>270.0</course>
  <speed>0.0</speed>
  <fix>3d</fix>
</trkpt>
<trkpt lat="-27.2744392" lon="151.2900642">
  <ele>343.1</ele>
  <time>2026-09-01T19:49:45Z</time>
  <course>11.37</course>
  <speed>0.03605551275463989</speed>
  <fix>3d</fix>
</trkpt>
<trkpt lat="-27.274439" lon="151.290064">
  <ele>343.1</ele>
  <time>2026-09-01T19:49:45Z</time>
  <course>270.0</course>
  <speed>0.0</speed>
  <fix>3d</fix>
</trkpt>
<trkpt lat="-27.2744392" lon="151.2900642">
  <ele>343.1</ele>
  <time>2026-09-01T19:49:45Z</time>
  <course>11.37</course>
  <speed>0.03605551275463989</speed>
  <fix>3d</fix>
</trkpt>
<trkpt lat="-27.274439" lon="151.290064">
  <ele>343.1</ele>
  <time>2026-09-01T19:49:45Z</time>
  <course>270.0</course>
  <speed>0.0</speed>
  <fix>3d</fix>
</trkpt>
<trkpt lat="-27.2744392" lon="151.2900642">
  <ele>343.1</ele>
  <time>2026-09-01T19:49:45Z</time>
  <course>11.37</course>
  <speed>0.03605551275463989</speed>
  <fix>3d</fix>
</trkpt>
<trkpt lat="-27.274439" lon="151.290064">
  <ele>343.1</ele>
  <time>2026-09-01T19:49:45Z</time>
  <course>270.0</course>
  <speed>0.0</speed>
  <fix>3d</fix>
</trkpt>
<trkpt lat="-27.2744392" lon="151.2900642">
  <ele>343.1</ele>
  <time>2026-09-01T19:49:45Z</time>
  <course>11.37</course>
  <speed>0.03605551275463989</speed>
  <fix>3d</fix>
</trkpt>
<trkpt lat="-27.274439" lon="151.290064">
  <ele>343.1</ele>
  <time>2026-09-01T19:49:45Z</time>
  <course>270.0</course>
  <speed>0.0</speed>
  <fix>3d</fix>
</trkpt>
<trkpt lat="-27.2744392" lon="151.2900642">
  <ele>343.1</ele>
  <time>2026-09-01T19:49:45Z</time>
  <course>11.37</course>
  <speed>0.0316227766016838</speed>
  <fix>3d</fix>
</trkpt>
<trkpt lat="-27.274439" lon="151.290064">
  <ele>343.1</ele>
  <time>2026-09-01T19:49:45Z</time>
  <course>270.0</course>
  <speed>0.0</speed>
  <fix>3d</fix>
</trkpt>
<trkpt lat="-27.2744392" lon="151.2900642">
  <ele>343.11</ele>
  <time>2026-09-01T19:49:45Z</time>
  <course>11.37</course>
  <speed>0.03605551275463989</speed>
  <fix>3d</fix>
</trkpt>
<trkpt lat="-27.274439" lon="151.290064">
  <ele>343.1</ele>
  <time>2026-09-01T19:49:45Z</time>
  <course>270.0</course>
  <speed>0.0</speed>
  <fix>3d</fix>
</trkpt>
<trkpt lat="-27.2744392" lon="151.2900642">
  <ele>343.11</ele>
  <time>2026-09-01T19:49:45Z</time>
  <course>11.37</course>
  <speed>0.0316227766016838</speed>
  <fix>3d</fix>
</trkpt>
<trkpt lat="-27.274439" lon="151.290064">
  <ele>343.1</ele>
  <time>2026-09-01T19:49:45Z</time>
  <course>270.0</course>
  <speed>0.0</speed>
  <fix>3d</fix>
</trkpt>
<trkpt lat="-27.2744392" lon="151.2900642">
  <ele>343.11</ele>
  <time>2026-09-01T19:49:45Z</time>
  <course>11.37</course>
  <speed>0.03605551275463989</speed>
  <fix>3d</fix>
</trkpt>
<trkpt lat="-27.274439" lon="151.290064">
  <ele>343.1</ele>
  <time>2026-09-01T19:49:45Z</time>
  <course>270.0</course>
  <speed>0.0</speed>
  <fix>3d</fix>
</trkpt>
<trkpt lat="-27.2744392" lon="151.2900642">
  <ele>343.12</ele>
  <time>2026-09-01T19:49:45Z</time>
  <course>11.37</course>
  <speed>0.0316227766016838</speed>
  <fix>3d</fix>
</trkpt>
<trkpt lat="-27.274439" lon="151.290064">
  <ele>343.1</ele>
  <time>2026-09-01T19:49:45Z</time>
  <course>270.0</course>
  <speed>0.0</speed>
  <fix>3d</fix>
</trkpt>
<trkpt lat="-27.2744392" lon="151.2900642">
  <ele>343.12</ele>
  <time>2026-09-01T19:49:45Z</time>
  <course>11.37</course>
  <speed>0.03605551275463989</speed>
  <fix>3d</fix>
</trkpt>
<trkpt lat="-27.274439" lon="151.290064">
  <ele>343.1</ele>
  <time>2026-09-01T19:49:45Z</time>
  <course>270.0</course>
  <speed>0.0</speed>
  <fix>3d</fix>
</trkpt>
<trkpt lat="-27.2744392" lon="151.2900642">
  <ele>343.12</ele>
  <time>2026-09-01T19:49:45Z</time>
  <course>11.37</course>
  <speed>0.0316227766016838</speed>
  <fix>3d</fix>
</trkpt>
<trkpt lat="-27.274439" lon="151.290064">
  <ele>343.1</ele>
  <time>2026-09-01T19:49:45Z</time>
  <course>270.0</course>
  <speed>0.0</speed>
  <fix>3d</fix>
</trkpt>
<trkpt lat="-27.2744392" lon="151.2900642">
  <ele>343.12</ele>
  <time>2026-09-01T19:49:45Z</time>
  <course>11.37</course>
  <speed>0.03605551275463989</speed>
  <fix>3d</fix>
</trkpt>
<trkpt lat="-27.274439" lon="151.290064">
  <ele>343.1</ele>
  <time>2026-09-01T19:49:45Z</time>
  <course>270.0</course>
  <speed>0.0</speed>
  <fix>3d</fix>
</trkpt>
<trkpt lat="-27.2744392" lon="151.2900642">
  <ele>343.12</ele>
  <time>2026-09-01T19:49:45Z</time>
  <course>11.37</course>
  <speed>0.0316227766016838</speed>
  <fix>3d</fix>
</trkpt>
<trkpt lat="-27.274439" lon="151.290064">
  <ele>343.1</ele>
  <time>2026-09-01T19:49:45Z</time>
  <course>270.0</course>
  <speed>0.0</speed>
  <fix>3d</fix>
</trkpt>
<trkpt lat="-27.2744392" lon="151.2900642">
  <ele>343.13</ele>
  <time>2026-09-01T19:49:45Z</time>
  <course>11.37</course>
  <speed>0.03605551275463989</speed>
  <fix>3d</fix>
</trkpt>
<trkpt lat="-27.274439" lon="151.290064">
  <ele>343.1</ele>
  <time>2026-09-01T19:49:45Z</time>
  <course>270.0</course>
  <speed>0.0</speed>
  <fix>3d</fix>
</trkpt>
<trkpt lat="-27.2744392" lon="151.2900642">
  <ele>343.13</ele>
  <time>2026-09-01T19:49:45Z</time>
  <course>11.37</course>
  <speed>0.0316227766016838</speed>
  <fix>3d</fix>
</trkpt>
<trkpt lat="-27.274439" lon="151.290064">
  <ele>343.1</ele>
  <time>2026-09-01T19:49:45Z</time>
  <course>270.0</course>
  <speed>0.0</speed>
  <fix>3d</fix>
</trkpt>
<trkpt lat="-27.2744392" lon="151.2900642">
  <ele>343.13</ele>
  <time>2026-09-01T19:49:45Z</time>
  <course>11.37</course>
  <speed>0.03605551275463989</speed>
  <fix>3d</fix>
</trkpt>
<trkpt lat="-27.274439" lon="151.290064">
  <ele>343.1</ele>
  <time>2026-09-01T19:49:45Z</time>
  <course>270.0</course>
  <speed>0.0</speed>
  <fix>3d</fix>
</trkpt>
<trkpt lat="-27.2744392" lon="151.2900642">
  <ele>343.13</ele>
  <time>2026-09-01T19:49:45Z</time>
  <course>11.37</course>
  <speed>0.0316227766016838</speed>
  <fix>3d</fix>
</trkpt>
<trkpt lat="-27.274439" lon="151.290064">
  <ele>343.1</ele>
  <time>2026-09-01T19:49:45Z</time>
  <course>270.0</course>
  <speed>0.0</speed>
  <fix>3d</fix>
</trkpt>
<trkpt lat="-27.2744392" lon="151.2900642">
  <ele>343.13</ele>
  <time>2026-09-01T19:49:45Z</time>
  <course>11.37</course>
  <speed>0.03605551275463989</speed>
  <fix>3d</fix>
</trkpt>
<trkpt lat="-27.274439" lon="151.290064">
  <ele>343.1</ele>
  <time>2026-09-01T19:49:45Z</time>
  <course>270.0</course>
  <speed>0.0</speed>
  <fix>3d</fix>
</trkpt>
<trkpt lat="-27.2744392" lon="151.2900642">
  <ele>343.14</ele>
  <time>2026-09-01T19:49:45Z</time>
  <course>11.37</course>
  <speed>0.022360679774997897</speed>
  <fix>3d</fix>
</trkpt>
<trkpt lat="-27.274439" lon="151.290064">
  <ele>343.1</ele>
  <time>2026-09-01T19:49:45Z</time>
  <course>270.0</course>
  <speed>0.0</speed>
  <fix>3d</fix>
</trkpt>
<trkpt lat="-27.2744392" lon="151.2900642">
  <ele>343.14</ele>
  <time>2026-09-01T19:49:45Z</time>
  <course>11.37</course>
  <speed>0.03605551275463989</speed>
  <fix>3d</fix>
</trkpt>
<trkpt lat="-27.274439" lon="151.290064">
  <ele>343.1</ele>
  <time>2026-09-01T19:49:45Z</time>
  <course>270.0</course>
  <speed>0.0</speed>
  <fix>3d</fix>
</trkpt>
<trkpt lat="-27.2744392" lon="151.2900642">
  <ele>343.14</ele>
  <time>2026-09-01T19:49:45Z</time>
  <course>11.37</course>
  <speed>0.022360679774997897</speed>
  <fix>3d</fix>
</trkpt>
<trkpt lat="-27.274439" lon="151.290064">
  <ele>343.1</ele>
  <time>2026-09-01T19:49:45Z</time>
  <course>270.0</course>
  <speed>0.0</speed>
  <fix>3d</fix>
</trkpt>
<trkpt lat="-27.2744392" lon="151.2900642">
  <ele>343.15</ele>
  <time>2026-09-01T19:49:45Z</time>
  <course>11.37</course>
  <speed>0.0316227766016838</speed>
  <fix>3d</fix>
</trkpt>
<trkpt lat="-27.274439" lon="151.290064">
  <ele>343.1</ele>
  <time>2026-09-01T19:49:45Z</time>
  <course>270.0</course>
  <speed>0.0</speed>
  <fix>3d</fix>
</trkpt>
<trkpt lat="-27.2744392" lon="151.2900642">
  <ele>343.15</ele>
  <time>2026-09-01T19:49:45Z</time>
  <course>11.37</course>
  <speed>0.022360679774997897</speed>
  <fix>3d</fix>
</trkpt>
<trkpt lat="-27.274439" lon="151.290064">
  <ele>343.1</ele>
  <time>2026-09-01T19:49:45Z</time>
  <course>270.0</course>
  <speed>0.0</speed>
  <fix>3d</fix>
</trkpt>
<trkpt lat="-27.2744392" lon="151.2900642">
  <ele>343.15</ele>
  <time>2026-09-01T19:49:45Z</time>
  <course>11.37</course>
  <speed>0.0316227766016838</speed>
  <fix>3d</fix>
</trkpt>
<trkpt lat="-27.274439" lon="151.290064">
  <ele>343.1</ele>
  <time>2026-09-01T19:49:45Z</time>
  <course>270.0</course>
  <speed>0.0</speed>
  <fix>3d</fix>
</trkpt>
<trkpt lat="-27.2744392" lon="151.2900642">
  <ele>343.15</ele>
  <time>2026-09-01T19:49:45Z</time>
  <course>11.37</course>
  <speed>0.022360679774997897</speed>
  <fix>3d</fix>
</trkpt>
<trkpt lat="-27.274439" lon="151.290064">
  <ele>343.1</ele>
  <time>2026-09-01T19:49:45Z</time>
  <course>270.0</course>
  <speed>0.0</speed>
  <fix>3d</fix>
</trkpt>
<trkpt lat="-27.2744392" lon="151.2900642">
  <ele>343.16</ele>
  <time>2026-09-01T19:49:45Z</time>
  <course>11.37</course>
  <speed>0.0316227766016838</speed>
  <fix>3d</fix>
</trkpt>
<trkpt lat="-27.274439" lon="151.290064">
  <ele>343.1</ele>
  <time>2026-09-01T19:49:45Z</time>
  <course>270.0</course>
  <speed>0.0</speed>
  <fix>3d</fix>
</trkpt>
<trkpt lat="-27.2744392" lon="151.2900642">
  <ele>343.16</ele>
  <time>2026-09-01T19:49:45Z</time>
  <course>11.37</course>
  <speed>0.022360679774997897</speed>
  <fix>3d</fix>
</trkpt>
<trkpt lat="-27.274439" lon="151.290064">
  <ele>343.1</ele>
  <time>2026-09-01T19:49:45Z</time>
  <course>270.0</course>
  <speed>0.0</speed>
  <fix>3d</fix>
</trkpt>
<trkpt lat="-27.2744392" lon="151.2900642">
  <ele>343.1</ele>
  <time>2026-09-01T19:49:45Z</time>
  <course>11.37</course>
  <speed>0.022360679774997897</speed>
  <fix>3d</fix>
</trkpt>
<trkpt lat="-27.274439" lon="151.290064">
  <ele>343.1</ele>
  <time>2026-09-01T19:49:45Z</time>
  <course>270.0</course>
  <speed>0.0</speed>
  <fix>3d</fix>
</trkpt>
<trkpt lat="-27.2744392" lon="151.2900642">
  <ele>343.1</ele>
  <time>2026-09-01T19:49:45Z</time>
  <course>11.37</course>
  <speed>0.022360679774997897</speed>
  <fix>3d</fix>
</trkpt>
<trkpt lat="-27.274439" lon="151.290064">
  <ele>343.1</ele>
  <time>2026-09-01T19:49:45Z</time>
  <course>270.0</course>
  <speed>0.0</speed>
  <fix>3d</fix>
</trkpt>
<trkpt lat="-27.2744392" lon="151.2900642">
  <ele>343.1</ele>
  <time>2026-09-01T19:49:45Z</time>
  <course>11.37</course>
  <speed>0.022360679774997897</speed>
  <fix>3d</fix>
</trkpt>
<trkpt lat="-27.274439" lon="151.290064">
  <ele>343.1</ele>
  <time>2026-09-01T19:49:45Z</time>
  <course>270.0</course>
  <speed>0.0</speed>
  <fix>3d</fix>
</trkpt>
<trkpt lat="-27.2744392" lon="151.2900642">
  <ele>343.1</ele>
  <time>2026-09-01T19:49:45Z</time>
  <course>11.37</course>
  <speed>0.022360679774997897</speed>
  <fix>3d</fix>
</trkpt>
<trkpt lat="-27.274439" lon="151.290064">
  <ele>343.1</ele>
  <time>2026-09-01T19:49:45Z</time>
  <course>270.0</course>
  <speed>0.0</speed>
  <fix>3d</fix>
</trkpt>
<trkpt lat="-27.2744392" lon="151.2900642">
  <ele>343.1</ele>
  <time>2026-09-01T19:49:45Z</time>
  <course>11.37</course>
  <speed>0.022360679774997897</speed>
  <fix>3d</fix>
</trkpt>
<trkpt lat="-27.274439" lon="151.290064">
  <ele>343.1</ele>
  <time>2026-09-01T19:49:45Z</time>
  <course>270.0</course>
  <speed>0.0</speed>
  <fix>3d</fix>
</trkpt>
<trkpt lat="-27.2744392" lon="151.2900642">
  <ele>343.11</ele>
  <time>2026-09-01T19:49:45Z</time>
  <course>11.37</course>
  <speed>0.022360679774997897</speed>
  <fix>3d</fix>
</trkpt>
<trkpt lat="-27.274439" lon="151.290064">
  <ele>343.1</ele>
  <time>2026-09-01T19:49:45Z</time>
  <course>270.0</course>
  <speed>0.0</speed>
  <fix>3d</fix>
</trkpt>
<trkpt lat="-27.2744392" lon="151.2900642">
  <ele>343.11</ele>
  <time>2026-09-01T19:49:45Z</time>
  <course>11.37</course>
  <speed>0.022360679774997897</speed>
  <fix>3d</fix>
</trkpt>
<trkpt lat="-27.274439" lon="151.290064">
  <ele>343.1</ele>
  <time>2026-09-01T19:49:45Z</time>
  <course>270.0</course>
  <speed>0.0</speed>
  <fix>3d</fix>
</trkpt>
<trkpt lat="-27.2744392" lon="151.2900642">
  <ele>343.11</ele>
  <time>2026-09-01T19:49:45Z</time>
  <course>11.37</course>
  <speed>0.022360679774997897</speed>
  <fix>3d</fix>
</trkpt>
<trkpt lat="-27.274439" lon="151.290064">
  <ele>343.1</ele>
  <time>2026-09-01T19:49:45Z</time>
  <course>270.0</course>
  <speed>0.0</speed>
  <fix>3d</fix>
</trkpt>
<trkpt lat="-27.2744392" lon="151.2900642">
  <ele>343.11</ele>
  <time>2026-09-01T19:49:45Z</time>
  <course>11.37</course>
  <speed>0.022360679774997897</speed>
  <fix>3d</fix>
</trkpt>
<trkpt lat="-27.274439" lon="151.290064">
  <ele>343.1</ele>
  <time>2026-09-01T19:49:45Z</time>
  <course>270.0</course>
  <speed>0.0</speed>
  <fix>3d</fix>
</trkpt>
<trkpt lat="-27.2744392" lon="151.2900642">
  <ele>343.11</ele>
  <time>2026-09-01T19:49:45Z</time>
  <course>11.37</course>
  <speed>0.022360679774997897</speed>
  <fix>3d</fix>
</trkpt>
<trkpt lat="-27.274439" lon="151.290064">
  <ele>343.1</ele>
  <time>2026-09-01T19:49:45Z</time>
  <course>270.0</course>
  <speed>0.0</speed>
  <fix>3d</fix>
</trkpt>
<trkpt lat="-27.2744392" lon="151.2900642">
  <ele>343.12</ele>
  <time>2026-09-01T19:49:45Z</time>
  <course>11.37</course>
  <speed>0.022360679774997897</speed>
  <fix>3d</fix>
</trkpt>
<trkpt lat="-27.274439" lon="151.290064">
  <ele>343.1</ele>
  <time>2026-09-01T19:49:45Z</time>
  <course>270.0</course>
  <speed>0.0</speed>
  <fix>3d</fix>
</trkpt>
<trkpt lat="-27.2744392" lon="151.2900642">
  <ele>343.12</ele>
  <time>2026-09-01T19:49:45Z</time>
  <course>11.37</course>
  <speed>0.022360679774997897</speed>
  <fix>3d</fix>
</trkpt>
<trkpt lat="-27.274439" lon="151.290064">
  <ele>343.1</ele>
  <time>2026-09-01T19:49:45Z</time>
  <course>270.0</course>
  <speed>0.0</speed>
  <fix>3d</fix>
</trkpt>
<trkpt lat="-27.2744392" lon="151.2900642">
  <ele>343.12</ele>
  <time>2026-09-01T19:49:45Z</time>
  <course>11.37</course>
  <speed>0.022360679774997897</speed>
  <fix>3d</fix>
</trkpt>
<trkpt lat="-27.274439" lon="151.290064">
  <ele>343.1</ele>
  <time>2026-09-01T19:49:45Z</time>
  <course>270.0</course>
  <speed>0.0</speed>
  <fix>3d</fix>
</trkpt>
<trkpt lat="-27.2744392" lon="151.2900642">
  <ele>343.12</ele>
  <time>2026-09-01T19:49:45Z</time>
  <course>11.37</course>
  <speed>0.022360679774997897</speed>
  <fix>3d</fix>
</trkpt>
<trkpt lat="-27.274439" lon="151.290064">
  <ele>343.1</ele>
  <time>2026-09-01T19:49:45Z</time>
  <course>270.0</course>
  <speed>0.0</speed>
  <fix>3d</fix>
</trkpt>
<trkpt lat="-27.2744392" lon="151.2900642">
  <ele>343.12</ele>
  <time>2026-09-01T19:49:45Z</time>
  <course>11.37</course>
  <speed>0.022360679774997897</speed>
  <fix>3d</fix>
</trkpt>
<trkpt lat="-27.274439" lon="151.290064">
  <ele>343.1</ele>
  <time>2026-09-01T19:49:45Z</time>
  <course>270.0</course>
  <speed>0.0</speed>
  <fix>3d</fix>
</trkpt>
<trkpt lat="-27.2744392" lon="151.2900642">
  <ele>343.12</ele>
  <time>2026-09-01T19:49:45Z</time>
  <course>11.37</course>
  <speed>0.022360679774997897</speed>
  <fix>3d</fix>
</trkpt>
<trkpt lat="-27.274439" lon="151.290064">
  <ele>343.1</ele>
  <time>2026-09-01T19:49:45Z</time>
  <course>270.0</course>
  <speed>0.0</speed>
  <fix>3d</fix>
</trkpt>
<trkpt lat="-27.2744392" lon="151.2900642">
  <ele>343.12</ele>
  <time>2026-09-01T19:49:45Z</time>
  <course>11.37</course>
  <speed>0.022360679774997897</speed>
  <fix>3d</fix>
</trkpt>
<trkpt lat="-27.274439" lon="151.290064">
  <ele>343.1</ele>
  <time>2026-09-01T19:49:45Z</time>
  <course>270.0</course>
  <speed>0.0</speed>
  <fix>3d</fix>
</trkpt>
<trkpt lat="-27.2744392" lon="151.2900642">
  <ele>343.12</ele>
  <time>2026-09-01T19:49:45Z</time>
  <course>11.37</course>
  <speed>0.022360679774997897</speed>
  <fix>3d</fix>
</trkpt>
<trkpt lat="-27.274439" lon="151.290064">
  <ele>343.1</ele>
  <time>2026-09-01T19:49:45Z</time>
  <course>270.0</course>
  <speed>0.0</speed>
  <fix>3d</fix>
</trkpt>
<trkpt lat="-27.2744392" lon="151.2900642">
  <ele>343.12</ele>
  <time>2026-09-01T19:49:45Z</time>
  <course>11.37</course>
  <speed>0.022360679774997897</speed>
  <fix>3d</fix>
</trkpt>
<trkpt lat="-27.274439" lon="151.290064">
  <ele>343.1</ele>
  <time>2026-09-01T19:49:45Z</time>
  <course>270.0</course>
  <speed>0.0</speed>
  <fix>3d</fix>
</trkpt>
<trkpt lat="-27.2744392" lon="151.2900642">
  <ele>343.12</ele>
  <time>2026-09-01T19:49:45Z</time>
  <course>11.37</course>
  <speed>0.022360679774997897</speed>
  <fix>3d</fix>
</trkpt>
<trkpt lat="-27.274439" lon="151.290064">
  <ele>343.1</ele>
  <time>2026-09-01T19:49:45Z</time>
  <course>270.0</course>
  <speed>0.0</speed>
  <fix>3d</fix>
</trkpt>
<trkpt lat="-27.2744392" lon="151.2900642">
  <ele>343.12</ele>
  <time>2026-09-01T19:49:45Z</time>
  <course>11.37</course>
  <speed>0.022360679774997897</speed>
  <fix>3d</fix>
</trkpt>
<trkpt lat="-27.274439" lon="151.290064">
  <ele>343.1</ele>
  <time>2026-09-01T19:49:45Z</time>
  <course>270.0</course>
  <speed>0.0</speed>
  <fix>3d</fix>
</trkpt>
<trkpt lat="-27.2744392" lon="151.2900642">
  <ele>343.12</ele>
  <time>2026-09-01T19:49:45Z</time>
  <course>11.37</course>
  <speed>0.022360679774997897</speed>
  <fix>3d</fix>
</trkpt>
<trkpt lat="-27.274439" lon="151.290064">
  <ele>343.1</ele>
  <time>2026-09-01T19:49:45Z</time>
  <course>270.0</course>
  <speed>0.0</speed>
  <fix>3d</fix>
</trkpt>
<trkpt lat="-27.2744392" lon="151.2900642">
  <ele>343.12</ele>
  <time>2026-09-01T19:49:45Z</time>
  <course>11.37</course>
  <speed>0.022360679774997897</speed>
  <fix>3d</fix>
</trkpt>
<trkpt lat="-27.274439" lon="151.290064">
  <ele>343.1</ele>
  <time>2026-09-01T19:49:45Z</time>
  <course>270.0</course>
  <speed>0.0</speed>
  <fix>3d</fix>
</trkpt>
<trkpt lat="-27.2744392" lon="151.2900642">
  <ele>343.12</ele>
  <time>2026-09-01T19:49:45Z</time>
  <course>11.37</course>
  <speed>0.022360679774997897</speed>
  <fix>3d</fix>
</trkpt>
<trkpt lat="-27.274439" lon="151.290064">
  <ele>343.1</ele>
  <time>2026-09-01T19:49:45Z</time>
  <course>270.0</course>
  <speed>0.0</speed>
  <fix>3d</fix>
</trkpt>
<trkpt lat="-27.2744392" lon="151.2900642">
  <ele>343.12</ele>
  <time>2026-09-01T19:49:45Z</time>
  <course>11.37</course>
  <speed>0.022360679774997897</speed>
  <fix>3d</fix>
</trkpt>
<trkpt lat="-27.274439" lon="151.290064">
  <ele>343.1</ele>
  <time>2026-09-01T19:49:45Z</time>
  <course>270.0</course>
  <speed>0.0</speed>
  <fix>3d</fix>
</trkpt>
<trkpt lat="-27.2744392" lon="151.2900642">
  <ele>343.12</ele>
  <time>2026-09-01T19:49:45Z</time>
  <course>11.37</course>
  <speed>0.022360679774997897</speed>
  <fix>3d</fix>
</trkpt>
<trkpt lat="-27.274439" lon="151.290064">
  <ele>343.1</ele>
  <time>2026-09-01T19:49:45Z</time>
  <course>270.0</course>
  <speed>0.0</speed>
  <fix>3d</fix>
</trkpt>
<trkpt lat="-27.2744392" lon="151.2900642">
  <ele>343.12</ele>
  <time>2026-09-01T19:49:45Z</time>
  <course>11.37</course>
  <speed>0.022360679774997897</speed>
  <fix>3d</fix>
</trkpt>
<trkpt lat="-27.274439" lon="151.290064">
  <ele>343.1</ele>
  <time>2026-09-01T19:49:45Z</time>
  <course>270.0</course>
  <speed>0.0</speed>
  <fix>3d</fix>
</trkpt>
<trkpt lat="-27.2744392" lon="151.2900642">
  <ele>343.12</ele>
  <time>2026-09-01T19:49:45Z</time>
  <course>11.37</course>
  <speed>0.01414213562373095</speed>
  <fix>3d</fix>
</trkpt>
<trkpt lat="-27.274439" lon="151.290064">
  <ele>343.1</ele>
  <time>2026-09-01T19:49:45Z</time>
  <course>270.0</course>
  <speed>0.0</speed>
  <fix>3d</fix>
</trkpt>
<trkpt lat="-27.2744392" lon="151.2900642">
  <ele>343.12</ele>
  <time>2026-09-01T19:49:45Z</time>
  <course>11.37</course>
  <speed>0.01414213562373095</speed>
  <fix>3d</fix>
</trkpt>
<trkpt lat="-27.274439" lon="151.290064">
  <ele>343.1</ele>
  <time>2026-09-01T19:49:45Z</time>
  <course>270.0</course>
  <speed>0.0</speed>
  <fix>3d</fix>
</trkpt>
<trkpt lat="-27.2744392" lon="151.2900642">
  <ele>343.12</ele>
  <time>2026-09-01T19:49:45Z</time>
  <course>11.37</course>
  <speed>0.01414213562373095</speed>
  <fix>3d</fix>
</trkpt>
<trkpt lat="-27.274439" lon="151.290064">
  <ele>343.1</ele>
  <time>2026-09-01T19:49:45Z</time>
  <course>270.0</course>
  <speed>0.0</speed>
  <fix>3d</fix>
</trkpt>
<trkpt lat="-27.2744392" lon="151.2900642">
  <ele>343.12</ele>
  <time>2026-09-01T19:49:45Z</time>
  <course>11.37</course>
  <speed>0.01414213562373095</speed>
  <fix>3d</fix>
</trkpt>
<trkpt lat="-27.274439" lon="151.290064">
  <ele>343.1</ele>
  <time>2026-09-01T19:49:45Z</time>
  <course>270.0</course>
  <speed>0.0</speed>
  <fix>3d</fix>
</trkpt>
<trkpt lat="-27.2744392" lon="151.2900642">
  <ele>343.12</ele>
  <time>2026-09-01T19:49:45Z</time>
  <course>11.37</course>
  <speed>0.01414213562373095</speed>
  <fix>3d</fix>
</trkpt>
<trkpt lat="-27.274439" lon="151.290064">
  <ele>343.1</ele>
  <time>2026-09-01T19:49:45Z</time>
  <course>270.0</course>
  <speed>0.0</speed>
  <fix>3d</fix>
</trkpt>
<trkpt lat="-27.2744392" lon="151.2900642">
  <ele>343.12</ele>
  <time>2026-09-01T19:49:45Z</time>
  <course>11.37</course>
  <speed>0.01414213562373095</speed>
  <fix>3d</fix>
</trkpt>
<trkpt lat="-27.274439" lon="151.290064">
  <ele>343.1</ele>
  <time>2026-09-01T19:49:45Z</time>
  <course>270.0</course>
  <speed>0.0</speed>
  <fix>3d</fix>
</trkpt>
<trkpt lat="-27.2744392" lon="151.2900642">
  <ele>343.12</ele>
  <time>2026-09-01T19:49:45Z</time>
  <course>11.37</course>
  <speed>0.01414213562373095</speed>
  <fix>3d</fix>
</trkpt>
<trkpt lat="-27.274439" lon="151.290064">
  <ele>343.1</ele>
  <time>2026-09-01T19:49:45Z</time>
  <course>270.0</course>
  <speed>0.0</speed>
  <fix>3d</fix>
</trkpt>
<trkpt lat="-27.2744392" lon="151.2900642">
  <ele>343.11</ele>
  <time>2026-09-01T19:49:45Z</time>
  <course>11.37</course>
  <speed>0.01414213562373095</speed>
  <fix>3d</fix>
</trkpt>
<trkpt lat="-27.274439" lon="151.290064">
  <ele>343.1</ele>
  <time>2026-09-01T19:49:45Z</time>
  <course>270.0</course>
  <speed>0.0</speed>
  <fix>3d</fix>
</trkpt>
<trkpt lat="-27.2744392" lon="151.2900642">
  <ele>343.12</ele>
  <time>2026-09-01T19:49:45Z</time>
  <course>11.36</course>
  <speed>0.01414213562373095</speed>
  <fix>3d</fix>
</trkpt>
<trkpt lat="-27.274439" lon="151.290064">
  <ele>343.1</ele>
  <time>2026-09-01T19:49:45Z</time>
  <course>270.0</course>
  <speed>0.0</speed>
  <fix>3d</fix>
</trkpt>
<trkpt lat="-27.2744392" lon="151.2900642">
  <ele>343.12</ele>
  <time>2026-09-01T19:49:45Z</time>
  <course>11.36</course>
  <speed>0.01414213562373095</speed>
  <fix>3d</fix>
</trkpt>
<trkpt lat="-27.274439" lon="151.290064">
  <ele>343.1</ele>
  <time>2026-09-01T19:49:45Z</time>
  <course>270.0</course>
  <speed>0.0</speed>
  <fix>3d</fix>
</trkpt>
<trkpt lat="-27.2744392" lon="151.2900641">
  <ele>343.12</ele>
  <time>2026-09-01T19:49:45Z</time>
  <course>11.36</course>
  <speed>0.01414213562373095</speed>
  <fix>3d</fix>
</trkpt>
<trkpt lat="-27.274439" lon="151.290064">
  <ele>343.1</ele>
  <time>2026-09-01T19:49:45Z</time>
  <course>270.0</course>
  <speed>0.0</speed>
  <fix>3d</fix>
</trkpt>
<trkpt lat="-27.2744392" lon="151.2900642">
  <ele>343.12</ele>
  <time>2026-09-01T19:49:45Z</time>
  <course>11.36</course>
  <speed>0.01414213562373095</speed>
  <fix>3d</fix>
</trkpt>
<trkpt lat="-27.274439" lon="151.290064">
  <ele>343.1</ele>
  <time>2026-09-01T19:49:45Z</time>
  <course>270.0</course>
  <speed>0.0</speed>
  <fix>3d</fix>
</trkpt>
<trkpt lat="-27.2744392" lon="151.2900641">
  <ele>343.12</ele>
  <time>2026-09-01T19:49:45Z</time>
  <course>11.36</course>
  <speed>0.01414213562373095</speed>
  <fix>3d</fix>
</trkpt>
<trkpt lat="-27.274439" lon="151.290064">
  <ele>343.1</ele>
  <time>2026-09-01T19:49:45Z</time>
  <course>270.0</course>
  <speed>0.0</speed>
  <fix>3d</fix>
</trkpt>
<trkpt lat="-27.2744392" lon="151.2900641">
  <ele>343.12</ele>
  <time>2026-09-01T19:49:45Z</time>
  <course>11.36</course>
  <speed>0.01414213562373095</speed>
  <fix>3d</fix>
</trkpt>
<trkpt lat="-27.274439" lon="151.290064">
  <ele>343.1</ele>
  <time>2026-09-01T19:49:45Z</time>
  <course>270.0</course>
  <speed>0.0</speed>
  <fix>3d</fix>
</trkpt>
<trkpt lat="-27.2744392" lon="151.2900641">
  <ele>343.11</ele>
  <time>2026-09-01T19:49:45Z</time>
  <course>11.36</course>
  <speed>0.01414213562373095</speed>
  <fix>3d</fix>
</trkpt>
<trkpt lat="-27.274439" lon="151.290064">
  <ele>343.1</ele>
  <time>2026-09-01T19:49:45Z</time>
  <course>270.0</course>
  <speed>0.0</speed>
  <fix>3d</fix>
</trkpt>
<trkpt lat="-27.2744392" lon="151.2900641">
  <ele>343.11</ele>
  <time>2026-09-01T19:49:45Z</time>
  <course>11.36</course>
  <speed>0.01414213562373095</speed>
  <fix>3d</fix>
</trkpt>
<trkpt lat="-27.274439" lon="151.290064">
  <ele>343.1</ele>
  <time>2026-09-01T19:49:45Z</time>
  <course>270.0</course>
  <speed>0.0</speed>
  <fix>3d</fix>
</trkpt>
<trkpt lat="-27.2744392" lon="151.2900641">
  <ele>343.11</ele>
  <time>2026-09-01T19:49:45Z</time>
  <course>11.36</course>
  <speed>0.01414213562373095</speed>
  <fix>3d</fix>
</trkpt>
<trkpt lat="-27.274439" lon="151.290064">
  <ele>343.1</ele>
  <time>2026-09-01T19:49:45Z</time>
  <course>270.0</course>
  <speed>0.0</speed>
  <fix>3d</fix>
</trkpt>
<trkpt lat="-27.2744392" lon="151.2900641">
  <ele>343.11</ele>
  <time>2026-09-01T19:49:45Z</time>
  <course>11.36</course>
  <speed>0.01414213562373095</speed>
  <fix>3d</fix>
</trkpt>
<trkpt lat="-27.274439" lon="151.290064">
  <ele>343.1</ele>
  <time>2026-09-01T19:49:45Z</time>
  <course>270.0</course>
  <speed>0.0</speed>
  <fix>3d</fix>
</trkpt>
<trkpt lat="-27.2744392" lon="151.2900641">
  <ele>343.11</ele>
  <time>2026-09-01T19:49:45Z</time>
  <course>11.36</course>
  <speed>0.01414213562373095</speed>
  <fix>3d</fix>
</trkpt>
<trkpt lat="-27.274439" lon="151.290064">
  <ele>343.1</ele>
  <time>2026-09-01T19:49:45Z</time>
  <course>270.0</course>
  <speed>0.0</speed>
  <fix>3d</fix>
</trkpt>
<trkpt lat="-27.2744392" lon="151.2900641">
  <ele>343.11</ele>
  <time>2026-09-01T19:49:45Z</time>
  <course>11.36</course>
  <speed>0.01414213562373095</speed>
  <fix>3d</fix>
</trkpt>
<trkpt lat="-27.274439" lon="151.290064">
  <ele>343.1</ele>
  <time>2026-09-01T19:49:45Z</time>
  <course>270.0</course>
  <speed>0.0</speed>
  <fix>3d</fix>
</trkpt>
<trkpt lat="-27.2744392" lon="151.2900641">
  <ele>343.11</ele>
  <time>2026-09-01T19:49:45Z</time>
  <course>11.36</course>
  <speed>0.01414213562373095</speed>
  <fix>3d</fix>
</trkpt>
<trkpt lat="-27.274439" lon="151.290064">
  <ele>343.1</ele>
  <time>2026-09-01T19:49:45Z</time>
  <course>270.0</course>
  <speed>0.0</speed>
  <fix>3d</fix>
</trkpt>
<trkpt lat="-27.2744392" lon="151.2900641">
  <ele>343.11</ele>
  <time>2026-09-01T19:49:45Z</time>
  <course>11.36</course>
  <speed>0.01414213562373095</speed>
  <fix>3d</fix>
</trkpt>
<trkpt lat="-27.274439" lon="151.290064">
  <ele>343.1</ele>
  <time>2026-09-01T19:49:45Z</time>
  <course>270.0</course>
  <speed>0.0</speed>
  <fix>3d</fix>
</trkpt>
<trkpt lat="-27.2744392" lon="151.2900641">
  <ele>343.11</ele>
  <time>2026-09-01T19:49:45Z</time>
  <course>11.36</course>
  <speed>0.01414213562373095</speed>
  <fix>3d</fix>
</trkpt>
<trkpt lat="-27.274439" lon="151.290064">
  <ele>343.1</ele>
  <time>2026-09-01T19:49:45Z</time>
  <course>270.0</course>
  <speed>0.0</speed>
  <fix>3d</fix>
</trkpt>
<trkpt lat="-27.2744392" lon="151.2900641">
  <ele>343.11</ele>
  <time>2026-09-01T19:49:45Z</time>
  <course>11.36</course>
  <speed>0.01414213562373095</speed>
  <fix>3d</fix>
</trkpt>
<trkpt lat="-27.274439" lon="151.290064">
  <ele>343.1</ele>
  <time>2026-09-01T19:49:45Z</time>
  <course>270.0</course>
  <speed>0.0</speed>
  <fix>3d</fix>
</trkpt>
<trkpt lat="-27.2744392" lon="151.2900641">
  <ele>343.11</ele>
  <time>2026-09-01T19:49:45Z</time>
  <course>11.36</course>
  <speed>0.01414213562373095</speed>
  <fix>3d</fix>
</trkpt>
<trkpt lat="-27.274439" lon="151.290064">
  <ele>343.1</ele>
  <time>2026-09-01T19:49:45Z</time>
  <course>270.0</course>
  <speed>0.0</speed>
  <fix>3d</fix>
</trkpt>
<trkpt lat="-27.2744392" lon="151.2900641">
  <ele>343.11</ele>
  <time>2026-09-01T19:49:45Z</time>
  <course>11.36</course>
  <speed>0.01414213562373095</speed>
  <fix>3d</fix>
</trkpt>
<trkpt lat="-27.274439" lon="151.290064">
  <ele>343.1</ele>
  <time>2026-09-01T19:49:45Z</time>
  <course>270.0</course>
  <speed>0.0</speed>
  <fix>3d</fix>
</trkpt>
<trkpt lat="-27.2744392" lon="151.2900641">
  <ele>343.11</ele>
  <time>2026-09-01T19:49:45Z</time>
  <course>11.36</course>
  <speed>0.01414213562373095</speed>
  <fix>3d</fix>
</trkpt>
<trkpt lat="-27.274439" lon="151.290064">
  <ele>343.1</ele>
  <time>2026-09-01T19:49:45Z</time>
  <course>270.0</course>
  <speed>0.0</speed>
  <fix>3d</fix>
</trkpt>
<trkpt lat="-27.2744392" lon="151.2900641">
  <ele>343.11</ele>
  <time>2026-09-01T19:49:45Z</time>
  <course>11.36</course>
  <speed>0.01414213562373095</speed>
  <fix>3d</fix>
</trkpt>
<trkpt lat="-27.274439" lon="151.290064">
  <ele>343.1</ele>
  <time>2026-09-01T19:49:45Z</time>
  <course>270.0</course>
  <speed>0.0</speed>
  <fix>3d</fix>
</trkpt>
<trkpt lat="-27.2744392" lon="151.2900641">
  <ele>343.11</ele>
  <time>2026-09-01T19:49:45Z</time>
  <course>11.36</course>
  <speed>0.01414213562373095</speed>
  <fix>3d</fix>
</trkpt>
<trkpt lat="-27.274439" lon="151.290064">
  <ele>343.1</ele>
  <time>2026-09-01T19:49:45Z</time>
  <course>270.0</course>
  <speed>0.0</speed>
  <fix>3d</fix>
</trkpt>
<trkpt lat="-27.2744392" lon="151.2900641">
  <ele>343.11</ele>
  <time>2026-09-01T19:49:45Z</time>
  <course>11.36</course>
  <speed>0.01414213562373095</speed>
  <fix>3d</fix>
</trkpt>
<trkpt lat="-27.274439" lon="151.290064">
  <ele>343.1</ele>
  <time>2026-09-01T19:49:45Z</time>
  <course>270.0</course>
  <speed>0.0</speed>
  <fix>3d</fix>
</trkpt>
<trkpt lat="-27.2744392" lon="151.2900641">
  <ele>343.11</ele>
  <time>2026-09-01T19:49:45Z</time>
  <course>11.36</course>
  <speed>0.01414213562373095</speed>
  <fix>3d</fix>
</trkpt>
<trkpt lat="-27.274439" lon="151.290064">
  <ele>343.1</ele>
  <time>2026-09-01T19:49:45Z</time>
  <course>270.0</course>
  <speed>0.0</speed>
  <fix>3d</fix>
</trkpt>
<trkpt lat="-27.2744392" lon="151.2900641">
  <ele>343.11</ele>
  <time>2026-09-01T19:49:45Z</time>
  <course>11.36</course>
  <speed>0.01414213562373095</speed>
  <fix>3d</fix>
</trkpt>
<trkpt lat="-27.274439" lon="151.290064">
  <ele>343.1</ele>
  <time>2026-09-01T19:49:45Z</time>
  <course>270.0</course>
  <speed>0.0</speed>
  <fix>3d</fix>
</trkpt>
<trkpt lat="-27.2744392" lon="151.2900641">
  <ele>343.11</ele>
  <time>2026-09-01T19:49:45Z</time>
  <course>11.36</course>
  <speed>0.01414213562373095</speed>
  <fix>3d</fix>
</trkpt>
<trkpt lat="-27.274439" lon="151.290064">
  <ele>343.1</ele>
  <time>2026-09-01T19:49:45Z</time>
  <course>270.0</course>
  <speed>0.0</speed>
  <fix>3d</fix>
</trkpt>
<trkpt lat="-27.2744392" lon="151.2900641">
  <ele>343.11</ele>
  <time>2026-09-01T19:49:45Z</time>
  <course>11.36</course>
  <speed>0.01414213562373095</speed>
  <fix>3d</fix>
</trkpt>
<trkpt lat="-27.274439" lon="151.290064">
  <ele>343.1</ele>
  <time>2026-09-01T19:49:45Z</time>
  <course>270.0</course>
  <speed>0.0</speed>
  <fix>3d</fix>
</trkpt>
<trkpt lat="-27.2744392" lon="151.2900641">
  <ele>343.1</ele>
  <time>2026-09-01T19:49:45Z</time>
  <course>11.36</course>
  <speed>0.022360679774997897</speed>
  <fix>3d</fix>
</trkpt>
<trkpt lat="-27.274439" lon="151.290064">
  <ele>343.1</ele>
  <time>2026-09-01T19:49:45Z</time>
  <course>270.0</course>
  <speed>0.0</speed>
  <fix>3d</fix>
</trkpt>
<trkpt lat="-27.2744392" lon="151.2900641">
  <ele>343.1</ele>
  <time>2026-09-01T19:49:45Z</time>
  <course>11.36</course>
  <speed>0.022360679774997897</speed>
  <fix>3d</fix>
</trkpt>
<trkpt lat="-27.274439" lon="151.290064">
  <ele>343.1</ele>
  <time>2026-09-01T19:49:45Z</time>
  <course>270.0</course>
  <speed>0.0</speed>
  <fix>3d</fix>
</trkpt>
<trkpt lat="-27.2744392" lon="151.2900641">
  <ele>343.1</ele>
  <time>2026-09-01T19:49:45Z</time>
  <course>11.36</course>
  <speed>0.022360679774997897</speed>
  <fix>3d</fix>
</trkpt>
<trkpt lat="-27.274439" lon="151.290064">
  <ele>343.1</ele>
  <time>2026-09-01T19:49:45Z</time>
  <course>270.0</course>
  <speed>0.0</speed>
  <fix>3d</fix>
</trkpt>
<trkpt lat="-27.2744392" lon="151.2900641">
  <ele>343.1</ele>
  <time>2026-09-01T19:49:45Z</time>
  <course>11.36</course>
  <speed>0.022360679774997897</speed>
  <fix>3d</fix>
</trkpt>
<trkpt lat="-27.274439" lon="151.290064">
  <ele>343.1</ele>
  <time>2026-09-01T19:49:45Z</time>
  <course>270.0</course>
  <speed>0.0</speed>
  <fix>3d</fix>
</trkpt>
<trkpt lat="-27.2744392" lon="151.2900641">
  <ele>343.1</ele>
  <time>2026-09-01T19:49:45Z</time>
  <course>11.36</course>
  <speed>0.022360679774997897</speed>
  <fix>3d</fix>
</trkpt>
<trkpt lat="-27.274439" lon="151.290064">
  <ele>343.1</ele>
  <time>2026-09-01T19:49:45Z</time>
  <course>270.0</course>
  <speed>0.0</speed>
  <fix>3d</fix>
</trkpt>
<trkpt lat="-27.2744392" lon="151.2900641">
  <ele>343.09</ele>
  <time>2026-09-01T19:49:45Z</time>
  <course>11.36</course>
  <speed>0.022360679774997897</speed>
  <fix>3d</fix>
</trkpt>
<trkpt lat="-27.274439" lon="151.290064">
  <ele>343.1</ele>
  <time>2026-09-01T19:49:45Z</time>
  <course>270.0</course>
  <speed>0.0</speed>
  <fix>3d</fix>
</trkpt>
<trkpt lat="-27.2744392" lon="151.2900641">
  <ele>343.09</ele>
  <time>2026-09-01T19:49:45Z</time>
  <course>11.36</course>
  <speed>0.022360679774997897</speed>
  <fix>3d</fix>
</trkpt>
<trkpt lat="-27.274439" lon="151.290064">
  <ele>343.1</ele>
  <time>2026-09-01T19:49:45Z</time>
  <course>270.0</course>
  <speed>0.0</speed>
  <fix>3d</fix>
</trkpt>
<trkpt lat="-27.2744392" lon="151.2900641">
  <ele>343.09</ele>
  <time>2026-09-01T19:49:45Z</time>
  <course>11.36</course>
  <speed>0.022360679774997897</speed>
  <fix>3d</fix>
</trkpt>
<trkpt lat="-27.274439" lon="151.290064">
  <ele>343.1</ele>
  <time>2026-09-01T19:49:45Z</time>
  <course>270.0</course>
  <speed>0.0</speed>
  <fix>3d</fix>
</trkpt>
<trkpt lat="-27.2744392" lon="151.2900641">
  <ele>343.09</ele>
  <time>2026-09-01T19:49:45Z</time>
  <course>11.36</course>
  <speed>0.022360679774997897</speed>
  <fix>3d</fix>
</trkpt>
<trkpt lat="-27.274439" lon="151.290064">
  <ele>343.1</ele>
  <time>2026-09-01T19:49:45Z</time>
  <course>270.0</course>
  <speed>0.0</speed>
  <fix>3d</fix>
</trkpt>
<trkpt lat="-27.2744392" lon="151.2900641">
  <ele>343.08</ele>
  <time>2026-09-01T19:49:45Z</time>
  <course>11.36</course>
  <speed>0.022360679774997897</speed>
  <fix>3d</fix>
</trkpt>
<trkpt lat="-27.274439" lon="151.290064">
  <ele>343.1</ele>
  <time>2026-09-01T19:49:45Z</time>
  <course>270.0</course>
  <speed>0.0</speed>
  <fix>3d</fix>
</trkpt>
<trkpt lat="-27.2744392" lon="151.2900641">
  <ele>343.08</ele>
  <time>2026-09-01T19:49:45Z</time>
  <course>11.36</course>
  <speed>0.022360679774997897</speed>
  <fix>3d</fix>
</trkpt>
<trkpt lat="-27.274439" lon="151.290064">
  <ele>343.1</ele>
  <time>2026-09-01T19:49:45Z</time>
  <course>270.0</course>
  <speed>0.0</speed>
  <fix>3d</fix>
</trkpt>
<trkpt lat="-27.2744392" lon="151.2900641">
  <ele>343.08</ele>
  <time>2026-09-01T19:49:45Z</time>
  <course>11.36</course>
  <speed>0.022360679774997897</speed>
  <fix>3d</fix>
</trkpt>
<trkpt lat="-27.274439" lon="151.290064">
  <ele>343.1</ele>
  <time>2026-09-01T19:49:45Z</time>
  <course>270.0</course>
  <speed>0.0</speed>
  <fix>3d</fix>
</trkpt>
<trkpt lat="-27.2744392" lon="151.2900641">
  <ele>343.08</ele>
  <time>2026-09-01T19:49:45Z</time>
  <course>11.36</course>
  <speed>0.022360679774997897</speed>
  <fix>3d</fix>
</trkpt>
<trkpt lat="-27.274439" lon="151.290064">
  <ele>343.1</ele>
  <time>2026-09-01T19:49:45Z</time>
  <course>270.0</course>
  <speed>0.0</speed>
  <fix>3d</fix>
</trkpt>
<trkpt lat="-27.2744392" lon="151.2900641">
  <ele>343.08</ele>
  <time>2026-09-01T19:49:45Z</time>
  <course>11.36</course>
  <speed>0.022360679774997897</speed>
  <fix>3d</fix>
</trkpt>
<trkpt lat="-27.274439" lon="151.290064">
  <ele>343.1</ele>
  <time>2026-09-01T19:49:45Z</time>
  <course>270.0</course>
  <speed>0.0</speed>
  <fix>3d</fix>
</trkpt>
<trkpt lat="-27.2744392" lon="151.2900641">
  <ele>343.08</ele>
  <time>2026-09-01T19:49:45Z</time>
  <course>11.36</course>
  <speed>0.022360679774997897</speed>
  <fix>3d</fix>
</trkpt>
<trkpt lat="-27.274439" lon="151.290064">
  <ele>343.1</ele>
  <time>2026-09-01T19:49:45Z</time>
  <course>270.0</course>
  <speed>0.0</speed>
  <fix>3d</fix>
</trkpt>
<trkpt lat="-27.2744392" lon="151.2900641">
  <ele>343.07</ele>
  <time>2026-09-01T19:49:45Z</time>
  <course>11.36</course>
  <speed>0.022360679774997897</speed>
  <fix>3d</fix>
</trkpt>
<trkpt lat="-27.274439" lon="151.290064">
  <ele>343.1</ele>
  <time>2026-09-01T19:49:45Z</time>
  <course>270.0</course>
  <speed>0.0</speed>
  <fix>3d</fix>
</trkpt>
<trkpt lat="-27.2744392" lon="151.2900641">
  <ele>343.07</ele>
  <time>2026-09-01T19:49:45Z</time>
  <course>11.36</course>
  <speed>0.022360679774997897</speed>
  <fix>3d</fix>
</trkpt>
<trkpt lat="-27.274439" lon="151.290064">
  <ele>343.1</ele>
  <time>2026-09-01T19:49:45Z</time>
  <course>270.0</course>
  <speed>0.0</speed>
  <fix>3d</fix>
</trkpt>
<trkpt lat="-27.2744392" lon="151.2900641">
  <ele>343.07</ele>
  <time>2026-09-01T19:49:45Z</time>
  <course>11.36</course>
  <speed>0.022360679774997897</speed>
  <fix>3d</fix>
</trkpt>
<trkpt lat="-27.274439" lon="151.290064">
  <ele>343.1</ele>
  <time>2026-09-01T19:49:45Z</time>
  <course>270.0</course>
  <speed>0.0</speed>
  <fix>3d</fix>
</trkpt>
<trkpt lat="-27.2744392" lon="151.2900641">
  <ele>343.07</ele>
  <time>2026-09-01T19:49:45Z</time>
  <course>11.36</course>
  <speed>0.022360679774997897</speed>
  <fix>3d</fix>
</trkpt>
<trkpt lat="-27.274439" lon="151.290064">
  <ele>343.1</ele>
  <time>2026-09-01T19:49:45Z</time>
  <course>270.0</course>
  <speed>0.0</speed>
  <fix>3d</fix>
</trkpt>
<trkpt lat="-27.2744392" lon="151.2900641">
  <ele>343.07</ele>
  <time>2026-09-01T19:49:45Z</time>
  <course>11.35</course>
  <speed>0.022360679774997897</speed>
  <fix>3d</fix>
</trkpt>
<trkpt lat="-27.274439" lon="151.290064">
  <ele>343.1</ele>
  <time>2026-09-01T19:49:45Z</time>
  <course>270.0</course>
  <speed>0.0</speed>
  <fix>3d</fix>
</trkpt>
<trkpt lat="-27.2744392" lon="151.2900641">
  <ele>343.08</ele>
  <time>2026-09-01T19:49:45Z</time>
  <course>11.35</course>
  <speed>0.022360679774997897</speed>
  <fix>3d</fix>
</trkpt>
<trkpt lat="-27.274439" lon="151.290064">
  <ele>343.1</ele>
  <time>2026-09-01T19:49:45Z</time>
  <course>270.0</course>
  <speed>0.0</speed>
  <fix>3d</fix>
</trkpt>
<trkpt lat="-27.2744392" lon="151.2900641">
  <ele>343.08</ele>
  <time>2026-09-01T19:49:45Z</time>
  <course>11.35</course>
  <speed>0.022360679774997897</speed>
  <fix>3d</fix>
</trkpt>
<trkpt lat="-27.274439" lon="151.290064">
  <ele>343.1</ele>
  <time>2026-09-01T19:49:45Z</time>
  <course>270.0</course>
  <speed>0.0</speed>
  <fix>3d</fix>
</trkpt>
<trkpt lat="-27.2744392" lon="151.2900641">
  <ele>343.08</ele>
  <time>2026-09-01T19:49:45Z</time>
  <course>11.35</course>
  <speed>0.022360679774997897</speed>
  <fix>3d</fix>
</trkpt>
<trkpt lat="-27.274439" lon="151.290064">
  <ele>343.1</ele>
  <time>2026-09-01T19:49:45Z</time>
  <course>270.0</course>
  <speed>0.0</speed>
  <fix>3d</fix>
</trkpt>
<trkpt lat="-27.2744392" lon="151.2900641">
  <ele>343.08</ele>
  <time>2026-09-01T19:49:45Z</time>
  <course>11.35</course>
  <speed>0.022360679774997897</speed>
  <fix>3d</fix>
</trkpt>
<trkpt lat="-27.274439" lon="151.290064">
  <ele>343.1</ele>
  <time>2026-09-01T19:49:45Z</time>
  <course>270.0</course>
  <speed>0.0</speed>
  <fix>3d</fix>
</trkpt>
<trkpt lat="-27.2744392" lon="151.2900641">
  <ele>343.08</ele>
  <time>2026-09-01T19:49:45Z</time>
  <course>11.35</course>
  <speed>0.022360679774997897</speed>
  <fix>3d</fix>
</trkpt>
<trkpt lat="-27.274439" lon="151.290064">
  <ele>343.1</ele>
  <time>2026-09-01T19:49:45Z</time>
  <course>270.0</course>
  <speed>0.0</speed>
  <fix>3d</fix>
</trkpt>
<trkpt lat="-27.2744392" lon="151.2900641">
  <ele>343.08</ele>
  <time>2026-09-01T19:49:45Z</time>
  <course>11.35</course>
  <speed>0.022360679774997897</speed>
  <fix>3d</fix>
</trkpt>
<trkpt lat="-27.274439" lon="151.290064">
  <ele>343.1</ele>
  <time>2026-09-01T19:49:45Z</time>
  <course>270.0</course>
  <speed>0.0</speed>
  <fix>3d</fix>
</trkpt>
<trkpt lat="-27.2744392" lon="151.2900641">
  <ele>343.09</ele>
  <time>2026-09-01T19:49:45Z</time>
  <course>11.35</course>
  <speed>0.022360679774997897</speed>
  <fix>3d</fix>
</trkpt>
<trkpt lat="-27.274439" lon="151.290064">
  <ele>343.1</ele>
  <time>2026-09-01T19:49:45Z</time>
  <course>270.0</course>
  <speed>0.0</speed>
  <fix>3d</fix>
</trkpt>
<trkpt lat="-27.2744392" lon="151.2900641">
  <ele>343.09</ele>
  <time>2026-09-01T19:49:45Z</time>
  <course>11.35</course>
  <speed>0.03605551275463989</speed>
  <fix>3d</fix>
</trkpt>
<trkpt lat="-27.274439" lon="151.290064">
  <ele>343.1</ele>
  <time>2026-09-01T19:49:45Z</time>
  <course>270.0</course>
  <speed>0.0</speed>
  <fix>3d</fix>
</trkpt>
<trkpt lat="-27.2744392" lon="151.2900641">
  <ele>343.09</ele>
  <time>2026-09-01T19:49:45Z</time>
  <course>11.35</course>
  <speed>0.022360679774997897</speed>
  <fix>3d</fix>
</trkpt>
<trkpt lat="-27.274439" lon="151.290064">
  <ele>343.1</ele>
  <time>2026-09-01T19:49:45Z</time>
  <course>270.0</course>
  <speed>0.0</speed>
  <fix>3d</fix>
</trkpt>
<trkpt lat="-27.2744392" lon="151.2900641">
  <ele>343.09</ele>
  <time>2026-09-01T19:49:45Z</time>
  <course>11.35</course>
  <speed>0.03605551275463989</speed>
  <fix>3d</fix>
</trkpt>
<trkpt lat="-27.274439" lon="151.290064">
  <ele>343.1</ele>
  <time>2026-09-01T19:49:45Z</time>
  <course>270.0</course>
  <speed>0.0</speed>
  <fix>3d</fix>
</trkpt>
<trkpt lat="-27.2744392" lon="151.2900641">
  <ele>343.09</ele>
  <time>2026-09-01T19:49:45Z</time>
  <course>11.35</course>
  <speed>0.03605551275463989</speed>
  <fix>3d</fix>
</trkpt>
<trkpt lat="-27.274439" lon="151.290064">
  <ele>343.1</ele>
  <time>2026-09-01T19:49:45Z</time>
  <course>270.0</course>
  <speed>0.0</speed>
  <fix>3d</fix>
</trkpt>
<trkpt lat="-27.2744392" lon="151.2900641">
  <ele>343.09</ele>
  <time>2026-09-01T19:49:45Z</time>
  <course>11.35</course>
  <speed>0.03605551275463989</speed>
  <fix>3d</fix>
</trkpt>
<trkpt lat="-27.274439" lon="151.290064">
  <ele>343.1</ele>
  <time>2026-09-01T19:49:45Z</time>
  <course>270.0</course>
  <speed>0.0</speed>
  <fix>3d</fix>
</trkpt>
<trkpt lat="-27.2744392" lon="151.2900641">
  <ele>343.09</ele>
  <time>2026-09-01T19:49:46Z</time>
  <course>11.35</course>
  <speed>0.03605551275463989</speed>
  <fix>3d</fix>
</trkpt>
<trkpt lat="-27.274439" lon="151.290064">
  <ele>343.1</ele>
  <time>2026-09-01T19:49:46Z</time>
  <course>270.0</course>
  <speed>0.0</speed>
  <fix>3d</fix>
</trkpt>
<trkpt lat="-27.2744392" lon="151.2900641">
  <ele>343.09</ele>
  <time>2026-09-01T19:49:46Z</time>
  <course>11.35</course>
  <speed>0.03605551275463989</speed>
  <fix>3d</fix>
</trkpt>
<trkpt lat="-27.274439" lon="151.290064">
  <ele>343.1</ele>
  <time>2026-09-01T19:49:46Z</time>
  <course>270.0</course>
  <speed>0.0</speed>
  <fix>3d</fix>
</trkpt>
<trkpt lat="-27.2744392" lon="151.2900641">
  <ele>343.1</ele>
  <time>2026-09-01T19:49:46Z</time>
  <course>11.35</course>
  <speed>0.03605551275463989</speed>
  <fix>3d</fix>
</trkpt>
<trkpt lat="-27.274439" lon="151.290064">
  <ele>343.1</ele>
  <time>2026-09-01T19:49:46Z</time>
  <course>270.0</course>
  <speed>0.0</speed>
  <fix>3d</fix>
</trkpt>
<trkpt lat="-27.2744392" lon="151.2900641">
  <ele>343.1</ele>
  <time>2026-09-01T19:49:46Z</time>
  <course>11.35</course>
  <speed>0.03605551275463989</speed>
  <fix>3d</fix>
</trkpt>
<trkpt lat="-27.274439" lon="151.290064">
  <ele>343.1</ele>
  <time>2026-09-01T19:49:46Z</time>
  <course>270.0</course>
  <speed>0.0</speed>
  <fix>3d</fix>
</trkpt>
<trkpt lat="-27.2744392" lon="151.2900641">
  <ele>343.1</ele>
  <time>2026-09-01T19:49:46Z</time>
  <course>11.35</course>
  <speed>0.03605551275463989</speed>
  <fix>3d</fix>
</trkpt>
<trkpt lat="-27.274439" lon="151.290064">
  <ele>343.1</ele>
  <time>2026-09-01T19:49:46Z</time>
  <course>270.0</course>
  <speed>0.0</speed>
  <fix>3d</fix>
</trkpt>
<trkpt lat="-27.2744392" lon="151.2900641">
  <ele>343.1</ele>
  <time>2026-09-01T19:49:46Z</time>
  <course>11.35</course>
  <speed>0.03605551275463989</speed>
  <fix>3d</fix>
</trkpt>
<trkpt lat="-27.274439" lon="151.290064">
  <ele>343.1</ele>
  <time>2026-09-01T19:49:46Z</time>
  <course>270.0</course>
  <speed>0.0</speed>
  <fix>3d</fix>
</trkpt>
<trkpt lat="-27.2744392" lon="151.2900641">
  <ele>343.1</ele>
  <time>2026-09-01T19:49:46Z</time>
  <course>11.35</course>
  <speed>0.03605551275463989</speed>
  <fix>3d</fix>
</trkpt>
<trkpt lat="-27.274439" lon="151.290064">
  <ele>343.1</ele>
  <time>2026-09-01T19:49:46Z</time>
  <course>270.0</course>
  <speed>0.0</speed>
  <fix>3d</fix>
</trkpt>
<trkpt lat="-27.2744392" lon="151.2900641">
  <ele>343.1</ele>
  <time>2026-09-01T19:49:46Z</time>
  <course>11.35</course>
  <speed>0.03605551275463989</speed>
  <fix>3d</fix>
</trkpt>
<trkpt lat="-27.274439" lon="151.290064">
  <ele>343.1</ele>
  <time>2026-09-01T19:49:46Z</time>
  <course>270.0</course>
  <speed>0.0</speed>
  <fix>3d</fix>
</trkpt>
<trkpt lat="-27.2744392" lon="151.2900641">
  <ele>343.09</ele>
  <time>2026-09-01T19:49:46Z</time>
  <course>11.35</course>
  <speed>0.03605551275463989</speed>
  <fix>3d</fix>
</trkpt>
<trkpt lat="-27.274439" lon="151.290064">
  <ele>343.1</ele>
  <time>2026-09-01T19:49:46Z</time>
  <course>270.0</course>
  <speed>0.0</speed>
  <fix>3d</fix>
</trkpt>
<trkpt lat="-27.2744392" lon="151.2900642">
  <ele>343.09</ele>
  <time>2026-09-01T19:49:46Z</time>
  <course>11.35</course>
  <speed>0.03605551275463989</speed>
  <fix>3d</fix>
</trkpt>
<trkpt lat="-27.274439" lon="151.290064">
  <ele>343.1</ele>
  <time>2026-09-01T19:49:46Z</time>
  <course>270.0</course>
  <speed>0.0</speed>
  <fix>3d</fix>
</trkpt>
<trkpt lat="-27.2744392" lon="151.2900641">
  <ele>343.09</ele>
  <time>2026-09-01T19:49:46Z</time>
  <course>11.35</course>
  <speed>0.03605551275463989</speed>
  <fix>3d</fix>
</trkpt>
<trkpt lat="-27.274439" lon="151.290064">
  <ele>343.1</ele>
  <time>2026-09-01T19:49:46Z</time>
  <course>270.0</course>
  <speed>0.0</speed>
  <fix>3d</fix>
</trkpt>
<trkpt lat="-27.2744392" lon="151.2900642">
  <ele>343.09</ele>
  <time>2026-09-01T19:49:46Z</time>
  <course>11.35</course>
  <speed>0.03605551275463989</speed>
  <fix>3d</fix>
</trkpt>
<trkpt lat="-27.274439" lon="151.290064">
  <ele>343.1</ele>
  <time>2026-09-01T19:49:46Z</time>
  <course>270.0</course>
  <speed>0.0</speed>
  <fix>3d</fix>
</trkpt>
<trkpt lat="-27.2744392" lon="151.2900641">
  <ele>343.09</ele>
  <time>2026-09-01T19:49:46Z</time>
  <course>11.34</course>
  <speed>0.03605551275463989</speed>
  <fix>3d</fix>
</trkpt>
<trkpt lat="-27.274439" lon="151.290064">
  <ele>343.1</ele>
  <time>2026-09-01T19:49:46Z</time>
  <course>270.0</course>
  <speed>0.0</speed>
  <fix>3d</fix>
</trkpt>
<trkpt lat="-27.2744392" lon="151.2900642">
  <ele>343.09</ele>
  <time>2026-09-01T19:49:46Z</time>
  <course>11.34</course>
  <speed>0.03605551275463989</speed>
  <fix>3d</fix>
</trkpt>
<trkpt lat="-27.274439" lon="151.290064">
  <ele>343.1</ele>
  <time>2026-09-01T19:49:46Z</time>
  <course>270.0</course>
  <speed>0.0</speed>
  <fix>3d</fix>
</trkpt>
<trkpt lat="-27.2744392" lon="151.2900642">
  <ele>343.09</ele>
  <time>2026-09-01T19:49:46Z</time>
  <course>11.34</course>
  <speed>0.03605551275463989</speed>
  <fix>3d</fix>
</trkpt>
<trkpt lat="-27.274439" lon="151.290064">
  <ele>343.1</ele>
  <time>2026-09-01T19:49:46Z</time>
  <course>270.0</course>
  <speed>0.0</speed>
  <fix>3d</fix>
</trkpt>
<trkpt lat="-27.2744392" lon="151.2900642">
  <ele>343.09</ele>
  <time>2026-09-01T19:49:46Z</time>
  <course>11.34</course>
  <speed>0.03605551275463989</speed>
  <fix>3d</fix>
</trkpt>
<trkpt lat="-27.274439" lon="151.290064">
  <ele>343.1</ele>
  <time>2026-09-01T19:49:46Z</time>
  <course>270.0</course>
  <speed>0.0</speed>
  <fix>3d</fix>
</trkpt>
<trkpt lat="-27.2744392" lon="151.2900642">
  <ele>343.09</ele>
  <time>2026-09-01T19:49:46Z</time>
  <course>11.34</course>
  <speed>0.03605551275463989</speed>
  <fix>3d</fix>
</trkpt>
<trkpt lat="-27.274439" lon="151.290064">
  <ele>343.1</ele>
  <time>2026-09-01T19:49:46Z</time>
  <course>270.0</course>
  <speed>0.0</speed>
  <fix>3d</fix>
</trkpt>
<trkpt lat="-27.2744392" lon="151.2900642">
  <ele>343.09</ele>
  <time>2026-09-01T19:49:46Z</time>
  <course>11.34</course>
  <speed>0.03605551275463989</speed>
  <fix>3d</fix>
</trkpt>
<trkpt lat="-27.274439" lon="151.290064">
  <ele>343.1</ele>
  <time>2026-09-01T19:49:46Z</time>
  <course>270.0</course>
  <speed>0.0</speed>
  <fix>3d</fix>
</trkpt>
<trkpt lat="-27.2744392" lon="151.2900642">
  <ele>343.09</ele>
  <time>2026-09-01T19:49:46Z</time>
  <course>11.34</course>
  <speed>0.03605551275463989</speed>
  <fix>3d</fix>
</trkpt>
<trkpt lat="-27.274439" lon="151.290064">
  <ele>343.1</ele>
  <time>2026-09-01T19:49:46Z</time>
  <course>270.0</course>
  <speed>0.0</speed>
  <fix>3d</fix>
</trkpt>
<trkpt lat="-27.2744392" lon="151.2900642">
  <ele>343.09</ele>
  <time>2026-09-01T19:49:46Z</time>
  <course>11.34</course>
  <speed>0.03605551275463989</speed>
  <fix>3d</fix>
</trkpt>
<trkpt lat="-27.274439" lon="151.290064">
  <ele>343.1</ele>
  <time>2026-09-01T19:49:46Z</time>
  <course>270.0</course>
  <speed>0.0</speed>
  <fix>3d</fix>
</trkpt>
<trkpt lat="-27.2744392" lon="151.2900642">
  <ele>343.09</ele>
  <time>2026-09-01T19:49:46Z</time>
  <course>11.34</course>
  <speed>0.03605551275463989</speed>
  <fix>3d</fix>
</trkpt>
<trkpt lat="-27.274439" lon="151.290064">
  <ele>343.1</ele>
  <time>2026-09-01T19:49:46Z</time>
  <course>270.0</course>
  <speed>0.0</speed>
  <fix>3d</fix>
</trkpt>
<trkpt lat="-27.2744392" lon="151.2900642">
  <ele>343.09</ele>
  <time>2026-09-01T19:49:46Z</time>
  <course>11.34</course>
  <speed>0.03605551275463989</speed>
  <fix>3d</fix>
</trkpt>
<trkpt lat="-27.274439" lon="151.290064">
  <ele>343.1</ele>
  <time>2026-09-01T19:49:46Z</time>
  <course>270.0</course>
  <speed>0.0</speed>
  <fix>3d</fix>
</trkpt>
<trkpt lat="-27.2744392" lon="151.2900642">
  <ele>343.1</ele>
  <time>2026-09-01T19:49:46Z</time>
  <course>11.34</course>
  <speed>0.03605551275463989</speed>
  <fix>3d</fix>
</trkpt>
<trkpt lat="-27.274439" lon="151.290064">
  <ele>343.1</ele>
  <time>2026-09-01T19:49:46Z</time>
  <course>270.0</course>
  <speed>0.0</speed>
  <fix>3d</fix>
</trkpt>
<trkpt lat="-27.2744392" lon="151.2900642">
  <ele>343.1</ele>
  <time>2026-09-01T19:49:46Z</time>
  <course>11.34</course>
  <speed>0.03605551275463989</speed>
  <fix>3d</fix>
</trkpt>
<trkpt lat="-27.274439" lon="151.290064">
  <ele>343.1</ele>
  <time>2026-09-01T19:49:46Z</time>
  <course>270.0</course>
  <speed>0.0</speed>
  <fix>3d</fix>
</trkpt>
<trkpt lat="-27.2744392" lon="151.2900642">
  <ele>343.1</ele>
  <time>2026-09-01T19:49:46Z</time>
  <course>11.34</course>
  <speed>0.03605551275463989</speed>
  <fix>3d</fix>
</trkpt>
<trkpt lat="-27.274439" lon="151.290064">
  <ele>343.1</ele>
  <time>2026-09-01T19:49:46Z</time>
  <course>270.0</course>
  <speed>0.0</speed>
  <fix>3d</fix>
</trkpt>
<trkpt lat="-27.2744392" lon="151.2900642">
  <ele>343.1</ele>
  <time>2026-09-01T19:49:46Z</time>
  <course>11.34</course>
  <speed>0.03605551275463989</speed>
  <fix>3d</fix>
</trkpt>
<trkpt lat="-27.274439" lon="151.290064">
  <ele>343.1</ele>
  <time>2026-09-01T19:49:46Z</time>
  <course>270.0</course>
  <speed>0.0</speed>
  <fix>3d</fix>
</trkpt>
<trkpt lat="-27.2744392" lon="151.2900642">
  <ele>343.1</ele>
  <time>2026-09-01T19:49:46Z</time>
  <course>11.34</course>
  <speed>0.03605551275463989</speed>
  <fix>3d</fix>
</trkpt>
<trkpt lat="-27.274439" lon="151.290064">
  <ele>343.1</ele>
  <time>2026-09-01T19:49:46Z</time>
  <course>270.0</course>
  <speed>0.0</speed>
  <fix>3d</fix>
</trkpt>
<trkpt lat="-27.2744392" lon="151.2900642">
  <ele>343.1</ele>
  <time>2026-09-01T19:49:46Z</time>
  <course>11.34</course>
  <speed>0.03605551275463989</speed>
  <fix>3d</fix>
</trkpt>
<trkpt lat="-27.274439" lon="151.290064">
  <ele>343.1</ele>
  <time>2026-09-01T19:49:46Z</time>
  <course>270.0</course>
  <speed>0.0</speed>
  <fix>3d</fix>
</trkpt>
<trkpt lat="-27.2744392" lon="151.2900642">
  <ele>343.09</ele>
  <time>2026-09-01T19:49:46Z</time>
  <course>11.34</course>
  <speed>0.03605551275463989</speed>
  <fix>3d</fix>
</trkpt>
<trkpt lat="-27.274439" lon="151.290064">
  <ele>343.1</ele>
  <time>2026-09-01T19:49:46Z</time>
  <course>270.0</course>
  <speed>0.0</speed>
  <fix>3d</fix>
</trkpt>
<trkpt lat="-27.2744392" lon="151.2900642">
  <ele>343.1</ele>
  <time>2026-09-01T19:49:46Z</time>
  <course>11.34</course>
  <speed>0.03605551275463989</speed>
  <fix>3d</fix>
</trkpt>
<trkpt lat="-27.274439" lon="151.290064">
  <ele>343.1</ele>
  <time>2026-09-01T19:49:46Z</time>
  <course>270.0</course>
  <speed>0.0</speed>
  <fix>3d</fix>
</trkpt>
<trkpt lat="-27.2744392" lon="151.2900642">
  <ele>343.1</ele>
  <time>2026-09-01T19:49:46Z</time>
  <course>11.34</course>
  <speed>0.03605551275463989</speed>
  <fix>3d</fix>
</trkpt>
<trkpt lat="-27.274439" lon="151.290064">
  <ele>343.1</ele>
  <time>2026-09-01T19:49:46Z</time>
  <course>270.0</course>
  <speed>0.0</speed>
  <fix>3d</fix>
</trkpt>
<trkpt lat="-27.2744392" lon="151.2900642">
  <ele>343.1</ele>
  <time>2026-09-01T19:49:46Z</time>
  <course>11.34</course>
  <speed>0.03605551275463989</speed>
  <fix>3d</fix>
</trkpt>
<trkpt lat="-27.274439" lon="151.290064">
  <ele>343.1</ele>
  <time>2026-09-01T19:49:46Z</time>
  <course>270.0</course>
  <speed>0.0</speed>
  <fix>3d</fix>
</trkpt>
<trkpt lat="-27.2744392" lon="151.2900642">
  <ele>343.1</ele>
  <time>2026-09-01T19:49:46Z</time>
  <course>11.34</course>
  <speed>0.03605551275463989</speed>
  <fix>3d</fix>
</trkpt>
<trkpt lat="-27.274439" lon="151.290064">
  <ele>343.1</ele>
  <time>2026-09-01T19:49:46Z</time>
  <course>270.0</course>
  <speed>0.0</speed>
  <fix>3d</fix>
</trkpt>
<trkpt lat="-27.2744392" lon="151.2900642">
  <ele>343.11</ele>
  <time>2026-09-01T19:49:46Z</time>
  <course>11.34</course>
  <speed>0.03605551275463989</speed>
  <fix>3d</fix>
</trkpt>
<trkpt lat="-27.274439" lon="151.290064">
  <ele>343.1</ele>
  <time>2026-09-01T19:49:46Z</time>
  <course>270.0</course>
  <speed>0.0</speed>
  <fix>3d</fix>
</trkpt>
<trkpt lat="-27.2744392" lon="151.2900642">
  <ele>343.11</ele>
  <time>2026-09-01T19:49:46Z</time>
  <course>11.34</course>
  <speed>0.03605551275463989</speed>
  <fix>3d</fix>
</trkpt>
<trkpt lat="-27.274439" lon="151.290064">
  <ele>343.1</ele>
  <time>2026-09-01T19:49:46Z</time>
  <course>270.0</course>
  <speed>0.0</speed>
  <fix>3d</fix>
</trkpt>
<trkpt lat="-27.2744392" lon="151.2900642">
  <ele>343.11</ele>
  <time>2026-09-01T19:49:46Z</time>
  <course>11.34</course>
  <speed>0.03605551275463989</speed>
  <fix>3d</fix>
</trkpt>
<trkpt lat="-27.274439" lon="151.290064">
  <ele>343.1</ele>
  <time>2026-09-01T19:49:46Z</time>
  <course>270.0</course>
  <speed>0.0</speed>
  <fix>3d</fix>
</trkpt>
<trkpt lat="-27.2744392" lon="151.2900642">
  <ele>343.12</ele>
  <time>2026-09-01T19:49:46Z</time>
  <course>11.34</course>
  <speed>0.03605551275463989</speed>
  <fix>3d</fix>
</trkpt>
<trkpt lat="-27.274439" lon="151.290064">
  <ele>343.1</ele>
  <time>2026-09-01T19:49:46Z</time>
  <course>270.0</course>
  <speed>0.0</speed>
  <fix>3d</fix>
</trkpt>
<trkpt lat="-27.2744392" lon="151.2900642">
  <ele>343.12</ele>
  <time>2026-09-01T19:49:46Z</time>
  <course>11.34</course>
  <speed>0.03605551275463989</speed>
  <fix>3d</fix>
</trkpt>
<trkpt lat="-27.274439" lon="151.290064">
  <ele>343.1</ele>
  <time>2026-09-01T19:49:46Z</time>
  <course>270.0</course>
  <speed>0.0</speed>
  <fix>3d</fix>
</trkpt>
<trkpt lat="-27.2744392" lon="151.2900642">
  <ele>343.12</ele>
  <time>2026-09-01T19:49:46Z</time>
  <course>11.34</course>
  <speed>0.03605551275463989</speed>
  <fix>3d</fix>
</trkpt>
<trkpt lat="-27.274439" lon="151.290064">
  <ele>343.1</ele>
  <time>2026-09-01T19:49:46Z</time>
  <course>270.0</course>
  <speed>0.0</speed>
  <fix>3d</fix>
</trkpt>
<trkpt lat="-27.2744392" lon="151.2900642">
  <ele>343.12</ele>
  <time>2026-09-01T19:49:46Z</time>
  <course>11.34</course>
  <speed>0.03605551275463989</speed>
  <fix>3d</fix>
</trkpt>
<trkpt lat="-27.274439" lon="151.290064">
  <ele>343.1</ele>
  <time>2026-09-01T19:49:46Z</time>
  <course>270.0</course>
  <speed>0.0</speed>
  <fix>3d</fix>
</trkpt>
<trkpt lat="-27.2744392" lon="151.2900642">
  <ele>343.12</ele>
  <time>2026-09-01T19:49:46Z</time>
  <course>11.34</course>
  <speed>0.03605551275463989</speed>
  <fix>3d</fix>
</trkpt>
<trkpt lat="-27.274439" lon="151.290064">
  <ele>343.1</ele>
  <time>2026-09-01T19:49:46Z</time>
  <course>270.0</course>
  <speed>0.0</speed>
  <fix>3d</fix>
</trkpt>
<trkpt lat="-27.2744392" lon="151.2900642">
  <ele>343.12</ele>
  <time>2026-09-01T19:49:46Z</time>
  <course>11.34</course>
  <speed>0.03605551275463989</speed>
  <fix>3d</fix>
</trkpt>
<trkpt lat="-27.274439" lon="151.290064">
  <ele>343.1</ele>
  <time>2026-09-01T19:49:46Z</time>
  <course>270.0</course>
  <speed>0.0</speed>
  <fix>3d</fix>
</trkpt>
<trkpt lat="-27.2744392" lon="151.2900642">
  <ele>343.12</ele>
  <time>2026-09-01T19:49:46Z</time>
  <course>11.33</course>
  <speed>0.03605551275463989</speed>
  <fix>3d</fix>
</trkpt>
<trkpt lat="-27.274439" lon="151.290064">
  <ele>343.1</ele>
  <time>2026-09-01T19:49:46Z</time>
  <course>270.0</course>
  <speed>0.0</speed>
  <fix>3d</fix>
</trkpt>
<trkpt lat="-27.2744392" lon="151.2900642">
  <ele>343.13</ele>
  <time>2026-09-01T19:49:46Z</time>
  <course>11.33</course>
  <speed>0.03605551275463989</speed>
  <fix>3d</fix>
</trkpt>
<trkpt lat="-27.274439" lon="151.290064">
  <ele>343.1</ele>
  <time>2026-09-01T19:49:46Z</time>
  <course>270.0</course>
  <speed>0.0</speed>
  <fix>3d</fix>
</trkpt>
<trkpt lat="-27.2744392" lon="151.2900642">
  <ele>343.13</ele>
  <time>2026-09-01T19:49:46Z</time>
  <course>11.33</course>
  <speed>0.03605551275463989</speed>
  <fix>3d</fix>
</trkpt>
<trkpt lat="-27.274439" lon="151.290064">
  <ele>343.1</ele>
  <time>2026-09-01T19:49:46Z</time>
  <course>270.0</course>
  <speed>0.0</speed>
  <fix>3d</fix>
</trkpt>
<trkpt lat="-27.2744392" lon="151.2900642">
  <ele>343.13</ele>
  <time>2026-09-01T19:49:46Z</time>
  <course>11.33</course>
  <speed>0.03605551275463989</speed>
  <fix>3d</fix>
</trkpt>
<trkpt lat="-27.274439" lon="151.290064">
  <ele>343.1</ele>
  <time>2026-09-01T19:49:46Z</time>
  <course>270.0</course>
  <speed>0.0</speed>
  <fix>3d</fix>
</trkpt>
<trkpt lat="-27.2744392" lon="151.2900642">
  <ele>343.13</ele>
  <time>2026-09-01T19:49:46Z</time>
  <course>11.33</course>
  <speed>0.03605551275463989</speed>
  <fix>3d</fix>
</trkpt>
<trkpt lat="-27.274439" lon="151.290064">
  <ele>343.1</ele>
  <time>2026-09-01T19:49:46Z</time>
  <course>270.0</course>
  <speed>0.0</speed>
  <fix>3d</fix>
</trkpt>
<trkpt lat="-27.2744392" lon="151.2900642">
  <ele>343.13</ele>
  <time>2026-09-01T19:49:46Z</time>
  <course>11.33</course>
  <speed>0.03605551275463989</speed>
  <fix>3d</fix>
</trkpt>
<trkpt lat="-27.274439" lon="151.290064">
  <ele>343.1</ele>
  <time>2026-09-01T19:49:46Z</time>
  <course>270.0</course>
  <speed>0.0</speed>
  <fix>3d</fix>
</trkpt>
<trkpt lat="-27.2744392" lon="151.2900642">
  <ele>343.14</ele>
  <time>2026-09-01T19:49:46Z</time>
  <course>11.33</course>
  <speed>0.03605551275463989</speed>
  <fix>3d</fix>
</trkpt>
<trkpt lat="-27.274439" lon="151.290064">
  <ele>343.1</ele>
  <time>2026-09-01T19:49:46Z</time>
  <course>270.0</course>
  <speed>0.0</speed>
  <fix>3d</fix>
</trkpt>
<trkpt lat="-27.2744392" lon="151.2900642">
  <ele>343.14</ele>
  <time>2026-09-01T19:49:46Z</time>
  <course>11.33</course>
  <speed>0.03605551275463989</speed>
  <fix>3d</fix>
</trkpt>
<trkpt lat="-27.274439" lon="151.290064">
  <ele>343.1</ele>
  <time>2026-09-01T19:49:46Z</time>
  <course>270.0</course>
  <speed>0.0</speed>
  <fix>3d</fix>
</trkpt>
<trkpt lat="-27.2744392" lon="151.2900642">
  <ele>343.14</ele>
  <time>2026-09-01T19:49:46Z</time>
  <course>11.33</course>
  <speed>0.03605551275463989</speed>
  <fix>3d</fix>
</trkpt>
<trkpt lat="-27.274439" lon="151.290064">
  <ele>343.1</ele>
  <time>2026-09-01T19:49:46Z</time>
  <course>270.0</course>
  <speed>0.0</speed>
  <fix>3d</fix>
</trkpt>
<trkpt lat="-27.2744392" lon="151.2900642">
  <ele>343.14</ele>
  <time>2026-09-01T19:49:46Z</time>
  <course>11.33</course>
  <speed>0.03605551275463989</speed>
  <fix>3d</fix>
</trkpt>
<trkpt lat="-27.274439" lon="151.290064">
  <ele>343.1</ele>
  <time>2026-09-01T19:49:46Z</time>
  <course>270.0</course>
  <speed>0.0</speed>
  <fix>3d</fix>
</trkpt>
<trkpt lat="-27.2744392" lon="151.2900642">
  <ele>343.15</ele>
  <time>2026-09-01T19:49:46Z</time>
  <course>11.33</course>
  <speed>0.03605551275463989</speed>
  <fix>3d</fix>
</trkpt>
<trkpt lat="-27.274439" lon="151.290064">
  <ele>343.1</ele>
  <time>2026-09-01T19:49:46Z</time>
  <course>270.0</course>
  <speed>0.0</speed>
  <fix>3d</fix>
</trkpt>
<trkpt lat="-27.2744392" lon="151.2900642">
  <ele>343.15</ele>
  <time>2026-09-01T19:49:46Z</time>
  <course>11.33</course>
  <speed>0.03605551275463989</speed>
  <fix>3d</fix>
</trkpt>
<trkpt lat="-27.274439" lon="151.290064">
  <ele>343.1</ele>
  <time>2026-09-01T19:49:46Z</time>
  <course>270.0</course>
  <speed>0.0</speed>
  <fix>3d</fix>
</trkpt>
<trkpt lat="-27.2744392" lon="151.2900642">
  <ele>343.15</ele>
  <time>2026-09-01T19:49:46Z</time>
  <course>11.33</course>
  <speed>0.0316227766016838</speed>
  <fix>3d</fix>
</trkpt>
<trkpt lat="-27.274439" lon="151.290064">
  <ele>343.1</ele>
  <time>2026-09-01T19:49:46Z</time>
  <course>270.0</course>
  <speed>0.0</speed>
  <fix>3d</fix>
</trkpt>
<trkpt lat="-27.2744392" lon="151.2900642">
  <ele>343.15</ele>
  <time>2026-09-01T19:49:46Z</time>
  <course>11.33</course>
  <speed>0.03605551275463989</speed>
  <fix>3d</fix>
</trkpt>
<trkpt lat="-27.274439" lon="151.290064">
  <ele>343.1</ele>
  <time>2026-09-01T19:49:46Z</time>
  <course>270.0</course>
  <speed>0.0</speed>
  <fix>3d</fix>
</trkpt>
<trkpt lat="-27.2744392" lon="151.2900642">
  <ele>343.15</ele>
  <time>2026-09-01T19:49:46Z</time>
  <course>11.33</course>
  <speed>0.0316227766016838</speed>
  <fix>3d</fix>
</trkpt>
<trkpt lat="-27.274439" lon="151.290064">
  <ele>343.1</ele>
  <time>2026-09-01T19:49:46Z</time>
  <course>270.0</course>
  <speed>0.0</speed>
  <fix>3d</fix>
</trkpt>
<trkpt lat="-27.2744392" lon="151.2900642">
  <ele>343.15</ele>
  <time>2026-09-01T19:49:46Z</time>
  <course>11.33</course>
  <speed>0.03605551275463989</speed>
  <fix>3d</fix>
</trkpt>
<trkpt lat="-27.274439" lon="151.290064">
  <ele>343.1</ele>
  <time>2026-09-01T19:49:46Z</time>
  <course>270.0</course>
  <speed>0.0</speed>
  <fix>3d</fix>
</trkpt>
<trkpt lat="-27.2744392" lon="151.2900642">
  <ele>343.15</ele>
  <time>2026-09-01T19:49:46Z</time>
  <course>11.33</course>
  <speed>0.0316227766016838</speed>
  <fix>3d</fix>
</trkpt>
<trkpt lat="-27.274439" lon="151.290064">
  <ele>343.1</ele>
  <time>2026-09-01T19:49:46Z</time>
  <course>270.0</course>
  <speed>0.0</speed>
  <fix>3d</fix>
</trkpt>
<trkpt lat="-27.2744392" lon="151.2900642">
  <ele>343.15</ele>
  <time>2026-09-01T19:49:46Z</time>
  <course>11.33</course>
  <speed>0.0316227766016838</speed>
  <fix>3d</fix>
</trkpt>
<trkpt lat="-27.274439" lon="151.290064">
  <ele>343.1</ele>
  <time>2026-09-01T19:49:46Z</time>
  <course>270.0</course>
  <speed>0.0</speed>
  <fix>3d</fix>
</trkpt>
<trkpt lat="-27.2744392" lon="151.2900642">
  <ele>343.15</ele>
  <time>2026-09-01T19:49:46Z</time>
  <course>11.33</course>
  <speed>0.022360679774997897</speed>
  <fix>3d</fix>
</trkpt>
<trkpt lat="-27.274439" lon="151.290064">
  <ele>343.1</ele>
  <time>2026-09-01T19:49:46Z</time>
  <course>270.0</course>
  <speed>0.0</speed>
  <fix>3d</fix>
</trkpt>
<trkpt lat="-27.2744392" lon="151.2900642">
  <ele>343.15</ele>
  <time>2026-09-01T19:49:46Z</time>
  <course>11.33</course>
  <speed>0.0316227766016838</speed>
  <fix>3d</fix>
</trkpt>
<trkpt lat="-27.274439" lon="151.290064">
  <ele>343.1</ele>
  <time>2026-09-01T19:49:46Z</time>
  <course>270.0</course>
  <speed>0.0</speed>
  <fix>3d</fix>
</trkpt>
<trkpt lat="-27.2744392" lon="151.2900642">
  <ele>343.15</ele>
  <time>2026-09-01T19:49:46Z</time>
  <course>11.33</course>
  <speed>0.022360679774997897</speed>
  <fix>3d</fix>
</trkpt>
<trkpt lat="-27.274439" lon="151.290064">
  <ele>343.1</ele>
  <time>2026-09-01T19:49:46Z</time>
  <course>270.0</course>
  <speed>0.0</speed>
  <fix>3d</fix>
</trkpt>
<trkpt lat="-27.2744392" lon="151.2900642">
  <ele>343.15</ele>
  <time>2026-09-01T19:49:46Z</time>
  <course>11.33</course>
  <speed>0.0316227766016838</speed>
  <fix>3d</fix>
</trkpt>
<trkpt lat="-27.274439" lon="151.290064">
  <ele>343.1</ele>
  <time>2026-09-01T19:49:46Z</time>
  <course>270.0</course>
  <speed>0.0</speed>
  <fix>3d</fix>
</trkpt>
<trkpt lat="-27.2744392" lon="151.2900642">
  <ele>343.15</ele>
  <time>2026-09-01T19:49:46Z</time>
  <course>11.33</course>
  <speed>0.022360679774997897</speed>
  <fix>3d</fix>
</trkpt>
<trkpt lat="-27.274439" lon="151.290064">
  <ele>343.1</ele>
  <time>2026-09-01T19:49:46Z</time>
  <course>270.0</course>
  <speed>0.0</speed>
  <fix>3d</fix>
</trkpt>
<trkpt lat="-27.2744392" lon="151.2900642">
  <ele>343.15</ele>
  <time>2026-09-01T19:49:46Z</time>
  <course>11.33</course>
  <speed>0.022360679774997897</speed>
  <fix>3d</fix>
</trkpt>
<trkpt lat="-27.274439" lon="151.290064">
  <ele>343.1</ele>
  <time>2026-09-01T19:49:46Z</time>
  <course>270.0</course>
  <speed>0.0</speed>
  <fix>3d</fix>
</trkpt>
<trkpt lat="-27.2744392" lon="151.2900642">
  <ele>343.15</ele>
  <time>2026-09-01T19:49:46Z</time>
  <course>11.33</course>
  <speed>0.022360679774997897</speed>
  <fix>3d</fix>
</trkpt>
<trkpt lat="-27.274439" lon="151.290064">
  <ele>343.1</ele>
  <time>2026-09-01T19:49:46Z</time>
  <course>270.0</course>
  <speed>0.0</speed>
  <fix>3d</fix>
</trkpt>
<trkpt lat="-27.2744392" lon="151.2900642">
  <ele>343.15</ele>
  <time>2026-09-01T19:49:46Z</time>
  <course>11.33</course>
  <speed>0.022360679774997897</speed>
  <fix>3d</fix>
</trkpt>
<trkpt lat="-27.274439" lon="151.290064">
  <ele>343.1</ele>
  <time>2026-09-01T19:49:46Z</time>
  <course>270.0</course>
  <speed>0.0</speed>
  <fix>3d</fix>
</trkpt>
<trkpt lat="-27.2744392" lon="151.2900642">
  <ele>343.15</ele>
  <time>2026-09-01T19:49:46Z</time>
  <course>11.33</course>
  <speed>0.022360679774997897</speed>
  <fix>3d</fix>
</trkpt>
<trkpt lat="-27.274439" lon="151.290064">
  <ele>343.1</ele>
  <time>2026-09-01T19:49:46Z</time>
  <course>270.0</course>
  <speed>0.0</speed>
  <fix>3d</fix>
</trkpt>
<trkpt lat="-27.2744392" lon="151.2900642">
  <ele>343.15</ele>
  <time>2026-09-01T19:49:46Z</time>
  <course>11.33</course>
  <speed>0.022360679774997897</speed>
  <fix>3d</fix>
</trkpt>
<trkpt lat="-27.274439" lon="151.290064">
  <ele>343.1</ele>
  <time>2026-09-01T19:49:46Z</time>
  <course>270.0</course>
  <speed>0.0</speed>
  <fix>3d</fix>
</trkpt>
<trkpt lat="-27.2744392" lon="151.2900642">
  <ele>343.15</ele>
  <time>2026-09-01T19:49:46Z</time>
  <course>11.33</course>
  <speed>0.022360679774997897</speed>
  <fix>3d</fix>
</trkpt>
<trkpt lat="-27.274439" lon="151.290064">
  <ele>343.1</ele>
  <time>2026-09-01T19:49:46Z</time>
  <course>270.0</course>
  <speed>0.0</speed>
  <fix>3d</fix>
</trkpt>
<trkpt lat="-27.2744392" lon="151.2900642">
  <ele>343.14</ele>
  <time>2026-09-01T19:49:46Z</time>
  <course>11.33</course>
  <speed>0.022360679774997897</speed>
  <fix>3d</fix>
</trkpt>
<trkpt lat="-27.274439" lon="151.290064">
  <ele>343.1</ele>
  <time>2026-09-01T19:49:46Z</time>
  <course>270.0</course>
  <speed>0.0</speed>
  <fix>3d</fix>
</trkpt>
<trkpt lat="-27.2744392" lon="151.2900642">
  <ele>343.14</ele>
  <time>2026-09-01T19:49:46Z</time>
  <course>11.33</course>
  <speed>0.022360679774997897</speed>
  <fix>3d</fix>
</trkpt>
<trkpt lat="-27.274439" lon="151.290064">
  <ele>343.1</ele>
  <time>2026-09-01T19:49:46Z</time>
  <course>270.0</course>
  <speed>0.0</speed>
  <fix>3d</fix>
</trkpt>
<trkpt lat="-27.2744392" lon="151.2900642">
  <ele>343.14</ele>
  <time>2026-09-01T19:49:46Z</time>
  <course>11.33</course>
  <speed>0.022360679774997897</speed>
  <fix>3d</fix>
</trkpt>
<trkpt lat="-27.274439" lon="151.290064">
  <ele>343.1</ele>
  <time>2026-09-01T19:49:46Z</time>
  <course>270.0</course>
  <speed>0.0</speed>
  <fix>3d</fix>
</trkpt>
<trkpt lat="-27.2744392" lon="151.2900642">
  <ele>343.14</ele>
  <time>2026-09-01T19:49:46Z</time>
  <course>11.33</course>
  <speed>0.022360679774997897</speed>
  <fix>3d</fix>
</trkpt>
<trkpt lat="-27.274439" lon="151.290064">
  <ele>343.1</ele>
  <time>2026-09-01T19:49:46Z</time>
  <course>270.0</course>
  <speed>0.0</speed>
  <fix>3d</fix>
</trkpt>
<trkpt lat="-27.2744392" lon="151.2900642">
  <ele>343.14</ele>
  <time>2026-09-01T19:49:46Z</time>
  <course>11.33</course>
  <speed>0.022360679774997897</speed>
  <fix>3d</fix>
</trkpt>
<trkpt lat="-27.274439" lon="151.290064">
  <ele>343.1</ele>
  <time>2026-09-01T19:49:46Z</time>
  <course>270.0</course>
  <speed>0.0</speed>
  <fix>3d</fix>
</trkpt>
<trkpt lat="-27.2744392" lon="151.2900642">
  <ele>343.14</ele>
  <time>2026-09-01T19:49:46Z</time>
  <course>11.33</course>
  <speed>0.022360679774997897</speed>
  <fix>3d</fix>
</trkpt>
<trkpt lat="-27.274439" lon="151.290064">
  <ele>343.1</ele>
  <time>2026-09-01T19:49:46Z</time>
  <course>270.0</course>
  <speed>0.0</speed>
  <fix>3d</fix>
</trkpt>
<trkpt lat="-27.2744392" lon="151.2900642">
  <ele>343.13</ele>
  <time>2026-09-01T19:49:46Z</time>
  <course>11.33</course>
  <speed>0.022360679774997897</speed>
  <fix>3d</fix>
</trkpt>
<trkpt lat="-27.274439" lon="151.290064">
  <ele>343.1</ele>
  <time>2026-09-01T19:49:46Z</time>
  <course>270.0</course>
  <speed>0.0</speed>
  <fix>3d</fix>
</trkpt>
<trkpt lat="-27.2744392" lon="151.2900642">
  <ele>343.13</ele>
  <time>2026-09-01T19:49:46Z</time>
  <course>11.33</course>
  <speed>0.022360679774997897</speed>
  <fix>3d</fix>
</trkpt>
<trkpt lat="-27.274439" lon="151.290064">
  <ele>343.1</ele>
  <time>2026-09-01T19:49:46Z</time>
  <course>270.0</course>
  <speed>0.0</speed>
  <fix>3d</fix>
</trkpt>
<trkpt lat="-27.2744392" lon="151.2900642">
  <ele>343.13</ele>
  <time>2026-09-01T19:49:46Z</time>
  <course>11.33</course>
  <speed>0.022360679774997897</speed>
  <fix>3d</fix>
</trkpt>
<trkpt lat="-27.274439" lon="151.290064">
  <ele>343.1</ele>
  <time>2026-09-01T19:49:46Z</time>
  <course>270.0</course>
  <speed>0.0</speed>
  <fix>3d</fix>
</trkpt>
<trkpt lat="-27.2744392" lon="151.2900642">
  <ele>343.13</ele>
  <time>2026-09-01T19:49:46Z</time>
  <course>11.33</course>
  <speed>0.022360679774997897</speed>
  <fix>3d</fix>
</trkpt>
<trkpt lat="-27.274439" lon="151.290064">
  <ele>343.1</ele>
  <time>2026-09-01T19:49:46Z</time>
  <course>270.0</course>
  <speed>0.0</speed>
  <fix>3d</fix>
</trkpt>
<trkpt lat="-27.2744392" lon="151.2900642">
  <ele>343.13</ele>
  <time>2026-09-01T19:49:46Z</time>
  <course>11.33</course>
  <speed>0.022360679774997897</speed>
  <fix>3d</fix>
</trkpt>
<trkpt lat="-27.274439" lon="151.290064">
  <ele>343.1</ele>
  <time>2026-09-01T19:49:46Z</time>
  <course>270.0</course>
  <speed>0.0</speed>
  <fix>3d</fix>
</trkpt>
<trkpt lat="-27.2744392" lon="151.2900642">
  <ele>343.13</ele>
  <time>2026-09-01T19:49:46Z</time>
  <course>11.33</course>
  <speed>0.022360679774997897</speed>
  <fix>3d</fix>
</trkpt>
<trkpt lat="-27.274439" lon="151.290064">
  <ele>343.1</ele>
  <time>2026-09-01T19:49:46Z</time>
  <course>270.0</course>
  <speed>0.0</speed>
  <fix>3d</fix>
</trkpt>
<trkpt lat="-27.2744392" lon="151.2900642">
  <ele>343.13</ele>
  <time>2026-09-01T19:49:46Z</time>
  <course>11.33</course>
  <speed>0.022360679774997897</speed>
  <fix>3d</fix>
</trkpt>
<trkpt lat="-27.274439" lon="151.290064">
  <ele>343.1</ele>
  <time>2026-09-01T19:49:46Z</time>
  <course>270.0</course>
  <speed>0.0</speed>
  <fix>3d</fix>
</trkpt>
<trkpt lat="-27.2744392" lon="151.2900642">
  <ele>343.13</ele>
  <time>2026-09-01T19:49:46Z</time>
  <course>11.33</course>
  <speed>0.022360679774997897</speed>
  <fix>3d</fix>
</trkpt>
<trkpt lat="-27.274439" lon="151.290064">
  <ele>343.1</ele>
  <time>2026-09-01T19:49:46Z</time>
  <course>270.0</course>
  <speed>0.0</speed>
  <fix>3d</fix>
</trkpt>
<trkpt lat="-27.2744392" lon="151.2900642">
  <ele>343.13</ele>
  <time>2026-09-01T19:49:46Z</time>
  <course>11.33</course>
  <speed>0.022360679774997897</speed>
  <fix>3d</fix>
</trkpt>
<trkpt lat="-27.274439" lon="151.290064">
  <ele>343.1</ele>
  <time>2026-09-01T19:49:46Z</time>
  <course>270.0</course>
  <speed>0.0</speed>
  <fix>3d</fix>
</trkpt>
<trkpt lat="-27.2744392" lon="151.2900642">
  <ele>343.12</ele>
  <time>2026-09-01T19:49:46Z</time>
  <course>11.33</course>
  <speed>0.022360679774997897</speed>
  <fix>3d</fix>
</trkpt>
<trkpt lat="-27.274439" lon="151.290064">
  <ele>343.1</ele>
  <time>2026-09-01T19:49:46Z</time>
  <course>270.0</course>
  <speed>0.0</speed>
  <fix>3d</fix>
</trkpt>
<trkpt lat="-27.2744392" lon="151.2900642">
  <ele>343.12</ele>
  <time>2026-09-01T19:49:46Z</time>
  <course>11.33</course>
  <speed>0.022360679774997897</speed>
  <fix>3d</fix>
</trkpt>
<trkpt lat="-27.274439" lon="151.290064">
  <ele>343.1</ele>
  <time>2026-09-01T19:49:46Z</time>
  <course>270.0</course>
  <speed>0.0</speed>
  <fix>3d</fix>
</trkpt>
<trkpt lat="-27.2744392" lon="151.2900642">
  <ele>343.12</ele>
  <time>2026-09-01T19:49:46Z</time>
  <course>11.33</course>
  <speed>0.022360679774997897</speed>
  <fix>3d</fix>
</trkpt>
<trkpt lat="-27.274439" lon="151.290064">
  <ele>343.1</ele>
  <time>2026-09-01T19:49:46Z</time>
  <course>270.0</course>
  <speed>0.0</speed>
  <fix>3d</fix>
</trkpt>
<trkpt lat="-27.2744392" lon="151.2900642">
  <ele>343.12</ele>
  <time>2026-09-01T19:49:46Z</time>
  <course>11.33</course>
  <speed>0.022360679774997897</speed>
  <fix>3d</fix>
</trkpt>
<trkpt lat="-27.274439" lon="151.290064">
  <ele>343.1</ele>
  <time>2026-09-01T19:49:46Z</time>
  <course>270.0</course>
  <speed>0.0</speed>
  <fix>3d</fix>
</trkpt>
<trkpt lat="-27.2744392" lon="151.2900642">
  <ele>343.12</ele>
  <time>2026-09-01T19:49:46Z</time>
  <course>11.33</course>
  <speed>0.022360679774997897</speed>
  <fix>3d</fix>
</trkpt>
<trkpt lat="-27.274439" lon="151.290064">
  <ele>343.1</ele>
  <time>2026-09-01T19:49:46Z</time>
  <course>270.0</course>
  <speed>0.0</speed>
  <fix>3d</fix>
</trkpt>
<trkpt lat="-27.2744392" lon="151.2900642">
  <ele>343.11</ele>
  <time>2026-09-01T19:49:46Z</time>
  <course>11.33</course>
  <speed>0.022360679774997897</speed>
  <fix>3d</fix>
</trkpt>
<trkpt lat="-27.274439" lon="151.290064">
  <ele>343.1</ele>
  <time>2026-09-01T19:49:46Z</time>
  <course>270.0</course>
  <speed>0.0</speed>
  <fix>3d</fix>
</trkpt>
<trkpt lat="-27.2744392" lon="151.2900642">
  <ele>343.11</ele>
  <time>2026-09-01T19:49:46Z</time>
  <course>11.33</course>
  <speed>0.022360679774997897</speed>
  <fix>3d</fix>
</trkpt>
<trkpt lat="-27.274439" lon="151.290064">
  <ele>343.1</ele>
  <time>2026-09-01T19:49:46Z</time>
  <course>270.0</course>
  <speed>0.0</speed>
  <fix>3d</fix>
</trkpt>
<trkpt lat="-27.2744392" lon="151.2900642">
  <ele>343.11</ele>
  <time>2026-09-01T19:49:46Z</time>
  <course>11.33</course>
  <speed>0.022360679774997897</speed>
  <fix>3d</fix>
</trkpt>
<trkpt lat="-27.274439" lon="151.290064">
  <ele>343.1</ele>
  <time>2026-09-01T19:49:46Z</time>
  <course>270.0</course>
  <speed>0.0</speed>
  <fix>3d</fix>
</trkpt>
<trkpt lat="-27.2744392" lon="151.2900642">
  <ele>343.11</ele>
  <time>2026-09-01T19:49:46Z</time>
  <course>11.33</course>
  <speed>0.022360679774997897</speed>
  <fix>3d</fix>
</trkpt>
<trkpt lat="-27.274439" lon="151.290064">
  <ele>343.1</ele>
  <time>2026-09-01T19:49:46Z</time>
  <course>270.0</course>
  <speed>0.0</speed>
  <fix>3d</fix>
</trkpt>
<trkpt lat="-27.2744392" lon="151.2900642">
  <ele>343.1</ele>
  <time>2026-09-01T19:49:46Z</time>
  <course>11.33</course>
  <speed>0.022360679774997897</speed>
  <fix>3d</fix>
</trkpt>
<trkpt lat="-27.274439" lon="151.290064">
  <ele>343.1</ele>
  <time>2026-09-01T19:49:46Z</time>
  <course>270.0</course>
  <speed>0.0</speed>
  <fix>3d</fix>
</trkpt>
<trkpt lat="-27.2744392" lon="151.2900642">
  <ele>343.1</ele>
  <time>2026-09-01T19:49:46Z</time>
  <course>11.33</course>
  <speed>0.022360679774997897</speed>
  <fix>3d</fix>
</trkpt>
<trkpt lat="-27.274439" lon="151.290064">
  <ele>343.1</ele>
  <time>2026-09-01T19:49:46Z</time>
  <course>270.0</course>
  <speed>0.0</speed>
  <fix>3d</fix>
</trkpt>
<trkpt lat="-27.2744392" lon="151.2900642">
  <ele>343.1</ele>
  <time>2026-09-01T19:49:46Z</time>
  <course>11.33</course>
  <speed>0.022360679774997897</speed>
  <fix>3d</fix>
</trkpt>
<trkpt lat="-27.274439" lon="151.290064">
  <ele>343.1</ele>
  <time>2026-09-01T19:49:46Z</time>
  <course>270.0</course>
  <speed>0.0</speed>
  <fix>3d</fix>
</trkpt>
<trkpt lat="-27.2744392" lon="151.2900642">
  <ele>343.1</ele>
  <time>2026-09-01T19:49:46Z</time>
  <course>11.33</course>
  <speed>0.022360679774997897</speed>
  <fix>3d</fix>
</trkpt>
<trkpt lat="-27.274439" lon="151.290064">
  <ele>343.1</ele>
  <time>2026-09-01T19:49:46Z</time>
  <course>270.0</course>
  <speed>0.0</speed>
  <fix>3d</fix>
</trkpt>
<trkpt lat="-27.2744392" lon="151.2900642">
  <ele>343.1</ele>
  <time>2026-09-01T19:49:46Z</time>
  <course>11.33</course>
  <speed>0.022360679774997897</speed>
  <fix>3d</fix>
</trkpt>
<trkpt lat="-27.274439" lon="151.290064">
  <ele>343.1</ele>
  <time>2026-09-01T19:49:46Z</time>
  <course>270.0</course>
  <speed>0.0</speed>
  <fix>3d</fix>
</trkpt>
<trkpt lat="-27.2744392" lon="151.2900642">
  <ele>343.11</ele>
  <time>2026-09-01T19:49:46Z</time>
  <course>11.33</course>
  <speed>0.022360679774997897</speed>
  <fix>3d</fix>
</trkpt>
<trkpt lat="-27.274439" lon="151.290064">
  <ele>343.1</ele>
  <time>2026-09-01T19:49:46Z</time>
  <course>270.0</course>
  <speed>0.0</speed>
  <fix>3d</fix>
</trkpt>
<trkpt lat="-27.2744392" lon="151.2900642">
  <ele>343.11</ele>
  <time>2026-09-01T19:49:46Z</time>
  <course>11.33</course>
  <speed>0.022360679774997897</speed>
  <fix>3d</fix>
</trkpt>
<trkpt lat="-27.274439" lon="151.290064">
  <ele>343.1</ele>
  <time>2026-09-01T19:49:46Z</time>
  <course>270.0</course>
  <speed>0.0</speed>
  <fix>3d</fix>
</trkpt>
<trkpt lat="-27.2744392" lon="151.2900642">
  <ele>343.11</ele>
  <time>2026-09-01T19:49:46Z</time>
  <course>11.33</course>
  <speed>0.022360679774997897</speed>
  <fix>3d</fix>
</trkpt>
<trkpt lat="-27.274439" lon="151.290064">
  <ele>343.1</ele>
  <time>2026-09-01T19:49:46Z</time>
  <course>270.0</course>
  <speed>0.0</speed>
  <fix>3d</fix>
</trkpt>
<trkpt lat="-27.2744392" lon="151.2900642">
  <ele>343.11</ele>
  <time>2026-09-01T19:49:46Z</time>
  <course>11.33</course>
  <speed>0.022360679774997897</speed>
  <fix>3d</fix>
</trkpt>
<trkpt lat="-27.274439" lon="151.290064">
  <ele>343.1</ele>
  <time>2026-09-01T19:49:46Z</time>
  <course>270.0</course>
  <speed>0.0</speed>
  <fix>3d</fix>
</trkpt>
<trkpt lat="-27.2744392" lon="151.2900642">
  <ele>343.11</ele>
  <time>2026-09-01T19:49:46Z</time>
  <course>11.33</course>
  <speed>0.022360679774997897</speed>
  <fix>3d</fix>
</trkpt>
<trkpt lat="-27.274439" lon="151.290064">
  <ele>343.1</ele>
  <time>2026-09-01T19:49:46Z</time>
  <course>270.0</course>
  <speed>0.0</speed>
  <fix>3d</fix>
</trkpt>
<trkpt lat="-27.2744392" lon="151.2900642">
  <ele>343.11</ele>
  <time>2026-09-01T19:49:46Z</time>
  <course>11.33</course>
  <speed>0.022360679774997897</speed>
  <fix>3d</fix>
</trkpt>
<trkpt lat="-27.274439" lon="151.290064">
  <ele>343.1</ele>
  <time>2026-09-01T19:49:46Z</time>
  <course>270.0</course>
  <speed>0.0</speed>
  <fix>3d</fix>
</trkpt>
<trkpt lat="-27.2744392" lon="151.2900642">
  <ele>343.11</ele>
  <time>2026-09-01T19:49:46Z</time>
  <course>11.33</course>
  <speed>0.022360679774997897</speed>
  <fix>3d</fix>
</trkpt>
<trkpt lat="-27.274439" lon="151.290064">
  <ele>343.1</ele>
  <time>2026-09-01T19:49:46Z</time>
  <course>270.0</course>
  <speed>0.0</speed>
  <fix>3d</fix>
</trkpt>
<trkpt lat="-27.2744392" lon="151.2900642">
  <ele>343.1</ele>
  <time>2026-09-01T19:49:46Z</time>
  <course>11.33</course>
  <speed>0.022360679774997897</speed>
  <fix>3d</fix>
</trkpt>
<trkpt lat="-27.274439" lon="151.290064">
  <ele>343.1</ele>
  <time>2026-09-01T19:49:46Z</time>
  <course>270.0</course>
  <speed>0.0</speed>
  <fix>3d</fix>
</trkpt>
<trkpt lat="-27.2744392" lon="151.2900642">
  <ele>343.1</ele>
  <time>2026-09-01T19:49:46Z</time>
  <course>11.33</course>
  <speed>0.022360679774997897</speed>
  <fix>3d</fix>
</trkpt>
<trkpt lat="-27.274439" lon="151.290064">
  <ele>343.1</ele>
  <time>2026-09-01T19:49:46Z</time>
  <course>270.0</course>
  <speed>0.0</speed>
  <fix>3d</fix>
</trkpt>
<trkpt lat="-27.2744392" lon="151.2900642">
  <ele>343.1</ele>
  <time>2026-09-01T19:49:46Z</time>
  <course>11.33</course>
  <speed>0.022360679774997897</speed>
  <fix>3d</fix>
</trkpt>
<trkpt lat="-27.274439" lon="151.290064">
  <ele>343.1</ele>
  <time>2026-09-01T19:49:46Z</time>
  <course>270.0</course>
  <speed>0.0</speed>
  <fix>3d</fix>
</trkpt>
<trkpt lat="-27.2744392" lon="151.2900642">
  <ele>343.1</ele>
  <time>2026-09-01T19:49:46Z</time>
  <course>11.33</course>
  <speed>0.022360679774997897</speed>
  <fix>3d</fix>
</trkpt>
<trkpt lat="-27.274439" lon="151.290064">
  <ele>343.1</ele>
  <time>2026-09-01T19:49:46Z</time>
  <course>270.0</course>
  <speed>0.0</speed>
  <fix>3d</fix>
</trkpt>
<trkpt lat="-27.2744392" lon="151.2900642">
  <ele>343.1</ele>
  <time>2026-09-01T19:49:46Z</time>
  <course>11.33</course>
  <speed>0.022360679774997897</speed>
  <fix>3d</fix>
</trkpt>
<trkpt lat="-27.274439" lon="151.290064">
  <ele>343.1</ele>
  <time>2026-09-01T19:49:46Z</time>
  <course>270.0</course>
  <speed>0.0</speed>
  <fix>3d</fix>
</trkpt>
<trkpt lat="-27.2744392" lon="151.2900642">
  <ele>343.1</ele>
  <time>2026-09-01T19:49:46Z</time>
  <course>11.33</course>
  <speed>0.022360679774997897</speed>
  <fix>3d</fix>
</trkpt>
<trkpt lat="-27.274439" lon="151.290064">
  <ele>343.1</ele>
  <time>2026-09-01T19:49:46Z</time>
  <course>270.0</course>
  <speed>0.0</speed>
  <fix>3d</fix>
</trkpt>
<trkpt lat="-27.2744392" lon="151.2900642">
  <ele>343.1</ele>
  <time>2026-09-01T19:49:46Z</time>
  <course>11.33</course>
  <speed>0.022360679774997897</speed>
  <fix>3d</fix>
</trkpt>
<trkpt lat="-27.274439" lon="151.290064">
  <ele>343.1</ele>
  <time>2026-09-01T19:49:46Z</time>
  <course>270.0</course>
  <speed>0.0</speed>
  <fix>3d</fix>
</trkpt>
<trkpt lat="-27.2744392" lon="151.2900642">
  <ele>343.1</ele>
  <time>2026-09-01T19:49:46Z</time>
  <course>11.33</course>
  <speed>0.022360679774997897</speed>
  <fix>3d</fix>
</trkpt>
<trkpt lat="-27.274439" lon="151.290064">
  <ele>343.1</ele>
  <time>2026-09-01T19:49:46Z</time>
  <course>270.0</course>
  <speed>0.0</speed>
  <fix>3d</fix>
</trkpt>
<trkpt lat="-27.2744392" lon="151.2900642">
  <ele>343.1</ele>
  <time>2026-09-01T19:49:46Z</time>
  <course>11.33</course>
  <speed>0.022360679774997897</speed>
  <fix>3d</fix>
</trkpt>
<trkpt lat="-27.274439" lon="151.290064">
  <ele>343.1</ele>
  <time>2026-09-01T19:49:46Z</time>
  <course>270.0</course>
  <speed>0.0</speed>
  <fix>3d</fix>
</trkpt>
<trkpt lat="-27.2744392" lon="151.2900642">
  <ele>343.1</ele>
  <time>2026-09-01T19:49:46Z</time>
  <course>11.33</course>
  <speed>0.022360679774997897</speed>
  <fix>3d</fix>
</trkpt>
<trkpt lat="-27.274439" lon="151.290064">
  <ele>343.1</ele>
  <time>2026-09-01T19:49:46Z</time>
  <course>270.0</course>
  <speed>0.0</speed>
  <fix>3d</fix>
</trkpt>
<trkpt lat="-27.2744392" lon="151.2900642">
  <ele>343.1</ele>
  <time>2026-09-01T19:49:46Z</time>
  <course>11.33</course>
  <speed>0.022360679774997897</speed>
  <fix>3d</fix>
</trkpt>
<trkpt lat="-27.274439" lon="151.290064">
  <ele>343.1</ele>
  <time>2026-09-01T19:49:46Z</time>
  <course>270.0</course>
  <speed>0.0</speed>
  <fix>3d</fix>
</trkpt>
<trkpt lat="-27.2744392" lon="151.2900642">
  <ele>343.1</ele>
  <time>2026-09-01T19:49:46Z</time>
  <course>11.33</course>
  <speed>0.022360679774997897</speed>
  <fix>3d</fix>
</trkpt>
<trkpt lat="-27.274439" lon="151.290064">
  <ele>343.1</ele>
  <time>2026-09-01T19:49:46Z</time>
  <course>270.0</course>
  <speed>0.0</speed>
  <fix>3d</fix>
</trkpt>
<trkpt lat="-27.2744392" lon="151.2900642">
  <ele>343.1</ele>
  <time>2026-09-01T19:49:46Z</time>
  <course>11.33</course>
  <speed>0.022360679774997897</speed>
  <fix>3d</fix>
</trkpt>
<trkpt lat="-27.274439" lon="151.290064">
  <ele>343.1</ele>
  <time>2026-09-01T19:49:46Z</time>
  <course>270.0</course>
  <speed>0.0</speed>
  <fix>3d</fix>
</trkpt>
<trkpt lat="-27.2744392" lon="151.2900642">
  <ele>343.1</ele>
  <time>2026-09-01T19:49:46Z</time>
  <course>11.33</course>
  <speed>0.022360679774997897</speed>
  <fix>3d</fix>
</trkpt>
<trkpt lat="-27.274439" lon="151.290064">
  <ele>343.1</ele>
  <time>2026-09-01T19:49:46Z</time>
  <course>270.0</course>
  <speed>0.0</speed>
  <fix>3d</fix>
</trkpt>
<trkpt lat="-27.2744392" lon="151.2900642">
  <ele>343.1</ele>
  <time>2026-09-01T19:49:46Z</time>
  <course>11.33</course>
  <speed>0.022360679774997897</speed>
  <fix>3d</fix>
</trkpt>
<trkpt lat="-27.274439" lon="151.290064">
  <ele>343.1</ele>
  <time>2026-09-01T19:49:46Z</time>
  <course>270.0</course>
  <speed>0.0</speed>
  <fix>3d</fix>
</trkpt>
<trkpt lat="-27.2744392" lon="151.2900642">
  <ele>343.1</ele>
  <time>2026-09-01T19:49:46Z</time>
  <course>11.33</course>
  <speed>0.022360679774997897</speed>
  <fix>3d</fix>
</trkpt>
<trkpt lat="-27.274439" lon="151.290064">
  <ele>343.1</ele>
  <time>2026-09-01T19:49:46Z</time>
  <course>270.0</course>
  <speed>0.0</speed>
  <fix>3d</fix>
</trkpt>
<trkpt lat="-27.2744392" lon="151.2900642">
  <ele>343.1</ele>
  <time>2026-09-01T19:49:46Z</time>
  <course>11.33</course>
  <speed>0.022360679774997897</speed>
  <fix>3d</fix>
</trkpt>
<trkpt lat="-27.274439" lon="151.290064">
  <ele>343.1</ele>
  <time>2026-09-01T19:49:46Z</time>
  <course>270.0</course>
  <speed>0.0</speed>
  <fix>3d</fix>
</trkpt>
<trkpt lat="-27.2744392" lon="151.2900642">
  <ele>343.1</ele>
  <time>2026-09-01T19:49:46Z</time>
  <course>11.33</course>
  <speed>0.022360679774997897</speed>
  <fix>3d</fix>
</trkpt>
<trkpt lat="-27.274439" lon="151.290064">
  <ele>343.1</ele>
  <time>2026-09-01T19:49:46Z</time>
  <course>270.0</course>
  <speed>0.0</speed>
  <fix>3d</fix>
</trkpt>
<trkpt lat="-27.2744392" lon="151.2900642">
  <ele>343.1</ele>
  <time>2026-09-01T19:49:46Z</time>
  <course>11.33</course>
  <speed>0.022360679774997897</speed>
  <fix>3d</fix>
</trkpt>
<trkpt lat="-27.274439" lon="151.290064">
  <ele>343.1</ele>
  <time>2026-09-01T19:49:46Z</time>
  <course>270.0</course>
  <speed>0.0</speed>
  <fix>3d</fix>
</trkpt>
<trkpt lat="-27.2744392" lon="151.2900642">
  <ele>343.1</ele>
  <time>2026-09-01T19:49:46Z</time>
  <course>11.33</course>
  <speed>0.022360679774997897</speed>
  <fix>3d</fix>
</trkpt>
<trkpt lat="-27.274439" lon="151.290064">
  <ele>343.1</ele>
  <time>2026-09-01T19:49:46Z</time>
  <course>270.0</course>
  <speed>0.0</speed>
  <fix>3d</fix>
</trkpt>
<trkpt lat="-27.2744392" lon="151.2900642">
  <ele>343.1</ele>
  <time>2026-09-01T19:49:46Z</time>
  <course>11.33</course>
  <speed>0.022360679774997897</speed>
  <fix>3d</fix>
</trkpt>
<trkpt lat="-27.274439" lon="151.290064">
  <ele>343.1</ele>
  <time>2026-09-01T19:49:46Z</time>
  <course>270.0</course>
  <speed>0.0</speed>
  <fix>3d</fix>
</trkpt>
<trkpt lat="-27.2744392" lon="151.2900642">
  <ele>343.1</ele>
  <time>2026-09-01T19:49:46Z</time>
  <course>11.33</course>
  <speed>0.022360679774997897</speed>
  <fix>3d</fix>
</trkpt>
<trkpt lat="-27.274439" lon="151.290064">
  <ele>343.1</ele>
  <time>2026-09-01T19:49:46Z</time>
  <course>270.0</course>
  <speed>0.0</speed>
  <fix>3d</fix>
</trkpt>
<trkpt lat="-27.2744392" lon="151.2900642">
  <ele>343.1</ele>
  <time>2026-09-01T19:49:46Z</time>
  <course>11.33</course>
  <speed>0.022360679774997897</speed>
  <fix>3d</fix>
</trkpt>
<trkpt lat="-27.274439" lon="151.290064">
  <ele>343.1</ele>
  <time>2026-09-01T19:49:46Z</time>
  <course>270.0</course>
  <speed>0.0</speed>
  <fix>3d</fix>
</trkpt>
<trkpt lat="-27.2744392" lon="151.2900642">
  <ele>343.1</ele>
  <time>2026-09-01T19:49:46Z</time>
  <course>11.33</course>
  <speed>0.022360679774997897</speed>
  <fix>3d</fix>
</trkpt>
<trkpt lat="-27.274439" lon="151.290064">
  <ele>343.1</ele>
  <time>2026-09-01T19:49:46Z</time>
  <course>270.0</course>
  <speed>0.0</speed>
  <fix>3d</fix>
</trkpt>
<trkpt lat="-27.2744392" lon="151.2900642">
  <ele>343.1</ele>
  <time>2026-09-01T19:49:46Z</time>
  <course>11.33</course>
  <speed>0.022360679774997897</speed>
  <fix>3d</fix>
</trkpt>
<trkpt lat="-27.274439" lon="151.290064">
  <ele>343.1</ele>
  <time>2026-09-01T19:49:46Z</time>
  <course>270.0</course>
  <speed>0.0</speed>
  <fix>3d</fix>
</trkpt>
<trkpt lat="-27.2744392" lon="151.2900642">
  <ele>343.1</ele>
  <time>2026-09-01T19:49:46Z</time>
  <course>11.33</course>
  <speed>0.022360679774997897</speed>
  <fix>3d</fix>
</trkpt>
<trkpt lat="-27.274439" lon="151.290064">
  <ele>343.1</ele>
  <time>2026-09-01T19:49:46Z</time>
  <course>270.0</course>
  <speed>0.0</speed>
  <fix>3d</fix>
</trkpt>
<trkpt lat="-27.2744392" lon="151.2900642">
  <ele>343.1</ele>
  <time>2026-09-01T19:49:46Z</time>
  <course>11.33</course>
  <speed>0.022360679774997897</speed>
  <fix>3d</fix>
</trkpt>
<trkpt lat="-27.274439" lon="151.290064">
  <ele>343.1</ele>
  <time>2026-09-01T19:49:46Z</time>
  <course>270.0</course>
  <speed>0.0</speed>
  <fix>3d</fix>
</trkpt>
<trkpt lat="-27.2744392" lon="151.2900642">
  <ele>343.1</ele>
  <time>2026-09-01T19:49:46Z</time>
  <course>11.33</course>
  <speed>0.022360679774997897</speed>
  <fix>3d</fix>
</trkpt>
<trkpt lat="-27.274439" lon="151.290064">
  <ele>343.1</ele>
  <time>2026-09-01T19:49:46Z</time>
  <course>270.0</course>
  <speed>0.0</speed>
  <fix>3d</fix>
</trkpt>
<trkpt lat="-27.2744392" lon="151.2900642">
  <ele>343.11</ele>
  <time>2026-09-01T19:49:46Z</time>
  <course>11.33</course>
  <speed>0.022360679774997897</speed>
  <fix>3d</fix>
</trkpt>
<trkpt lat="-27.274439" lon="151.290064">
  <ele>343.1</ele>
  <time>2026-09-01T19:49:46Z</time>
  <course>270.0</course>
  <speed>0.0</speed>
  <fix>3d</fix>
</trkpt>
<trkpt lat="-27.2744392" lon="151.2900642">
  <ele>343.11</ele>
  <time>2026-09-01T19:49:46Z</time>
  <course>11.33</course>
  <speed>0.022360679774997897</speed>
  <fix>3d</fix>
</trkpt>
<trkpt lat="-27.274439" lon="151.290064">
  <ele>343.1</ele>
  <time>2026-09-01T19:49:46Z</time>
  <course>270.0</course>
  <speed>0.0</speed>
  <fix>3d</fix>
</trkpt>
<trkpt lat="-27.2744392" lon="151.2900642">
  <ele>343.11</ele>
  <time>2026-09-01T19:49:46Z</time>
  <course>11.33</course>
  <speed>0.022360679774997897</speed>
  <fix>3d</fix>
</trkpt>
<trkpt lat="-27.274439" lon="151.290064">
  <ele>343.1</ele>
  <time>2026-09-01T19:49:46Z</time>
  <course>270.0</course>
  <speed>0.0</speed>
  <fix>3d</fix>
</trkpt>
<trkpt lat="-27.2744392" lon="151.2900642">
  <ele>343.11</ele>
  <time>2026-09-01T19:49:46Z</time>
  <course>11.33</course>
  <speed>0.022360679774997897</speed>
  <fix>3d</fix>
</trkpt>
<trkpt lat="-27.274439" lon="151.290064">
  <ele>343.1</ele>
  <time>2026-09-01T19:49:46Z</time>
  <course>270.0</course>
  <speed>0.0</speed>
  <fix>3d</fix>
</trkpt>
<trkpt lat="-27.2744392" lon="151.2900642">
  <ele>343.11</ele>
  <time>2026-09-01T19:49:46Z</time>
  <course>11.33</course>
  <speed>0.022360679774997897</speed>
  <fix>3d</fix>
</trkpt>
<trkpt lat="-27.274439" lon="151.290064">
  <ele>343.1</ele>
  <time>2026-09-01T19:49:46Z</time>
  <course>270.0</course>
  <speed>0.0</speed>
  <fix>3d</fix>
</trkpt>
<trkpt lat="-27.2744392" lon="151.2900642">
  <ele>343.11</ele>
  <time>2026-09-01T19:49:46Z</time>
  <course>11.33</course>
  <speed>0.022360679774997897</speed>
  <fix>3d</fix>
</trkpt>
<trkpt lat="-27.274439" lon="151.290064">
  <ele>343.1</ele>
  <time>2026-09-01T19:49:46Z</time>
  <course>270.0</course>
  <speed>0.0</speed>
  <fix>3d</fix>
</trkpt>
<trkpt lat="-27.2744392" lon="151.2900642">
  <ele>343.11</ele>
  <time>2026-09-01T19:49:46Z</time>
  <course>11.33</course>
  <speed>0.022360679774997897</speed>
  <fix>3d</fix>
</trkpt>
<trkpt lat="-27.274439" lon="151.290064">
  <ele>343.1</ele>
  <time>2026-09-01T19:49:46Z</time>
  <course>270.0</course>
  <speed>0.0</speed>
  <fix>3d</fix>
</trkpt>
<trkpt lat="-27.2744392" lon="151.2900642">
  <ele>343.11</ele>
  <time>2026-09-01T19:49:46Z</time>
  <course>11.33</course>
  <speed>0.022360679774997897</speed>
  <fix>3d</fix>
</trkpt>
<trkpt lat="-27.274439" lon="151.290064">
  <ele>343.1</ele>
  <time>2026-09-01T19:49:46Z</time>
  <course>270.0</course>
  <speed>0.0</speed>
  <fix>3d</fix>
</trkpt>
<trkpt lat="-27.2744392" lon="151.2900642">
  <ele>343.1</ele>
  <time>2026-09-01T19:49:46Z</time>
  <course>11.33</course>
  <speed>0.022360679774997897</speed>
  <fix>3d</fix>
</trkpt>
<trkpt lat="-27.274439" lon="151.290064">
  <ele>343.1</ele>
  <time>2026-09-01T19:49:46Z</time>
  <course>270.0</course>
  <speed>0.0</speed>
  <fix>3d</fix>
</trkpt>
<trkpt lat="-27.2744392" lon="151.2900642">
  <ele>343.1</ele>
  <time>2026-09-01T19:49:46Z</time>
  <course>11.33</course>
  <speed>0.022360679774997897</speed>
  <fix>3d</fix>
</trkpt>
<trkpt lat="-27.274439" lon="151.290064">
  <ele>343.1</ele>
  <time>2026-09-01T19:49:46Z</time>
  <course>270.0</course>
  <speed>0.0</speed>
  <fix>3d</fix>
</trkpt>
<trkpt lat="-27.2744392" lon="151.2900642">
  <ele>343.1</ele>
  <time>2026-09-01T19:49:46Z</time>
  <course>11.33</course>
  <speed>0.022360679774997897</speed>
  <fix>3d</fix>
</trkpt>
<trkpt lat="-27.274439" lon="151.290064">
  <ele>343.1</ele>
  <time>2026-09-01T19:49:46Z</time>
  <course>270.0</course>
  <speed>0.0</speed>
  <fix>3d</fix>
</trkpt>
<trkpt lat="-27.2744392" lon="151.2900642">
  <ele>343.1</ele>
  <time>2026-09-01T19:49:46Z</time>
  <course>11.33</course>
  <speed>0.022360679774997897</speed>
  <fix>3d</fix>
</trkpt>
<trkpt lat="-27.274439" lon="151.290064">
  <ele>343.1</ele>
  <time>2026-09-01T19:49:46Z</time>
  <course>270.0</course>
  <speed>0.0</speed>
  <fix>3d</fix>
</trkpt>
<trkpt lat="-27.2744392" lon="151.2900642">
  <ele>343.11</ele>
  <time>2026-09-01T19:49:46Z</time>
  <course>11.33</course>
  <speed>0.022360679774997897</speed>
  <fix>3d</fix>
</trkpt>
<trkpt lat="-27.274439" lon="151.290064">
  <ele>343.1</ele>
  <time>2026-09-01T19:49:46Z</time>
  <course>270.0</course>
  <speed>0.0</speed>
  <fix>3d</fix>
</trkpt>
<trkpt lat="-27.2744392" lon="151.2900642">
  <ele>343.11</ele>
  <time>2026-09-01T19:49:46Z</time>
  <course>11.33</course>
  <speed>0.022360679774997897</speed>
  <fix>3d</fix>
</trkpt>
<trkpt lat="-27.274439" lon="151.290064">
  <ele>343.1</ele>
  <time>2026-09-01T19:49:46Z</time>
  <course>270.0</course>
  <speed>0.0</speed>
  <fix>3d</fix>
</trkpt>
<trkpt lat="-27.2744392" lon="151.2900642">
  <ele>343.11</ele>
  <time>2026-09-01T19:49:46Z</time>
  <course>11.33</course>
  <speed>0.022360679774997897</speed>
  <fix>3d</fix>
</trkpt>
<trkpt lat="-27.274439" lon="151.290064">
  <ele>343.1</ele>
  <time>2026-09-01T19:49:46Z</time>
  <course>270.0</course>
  <speed>0.0</speed>
  <fix>3d</fix>
</trkpt>
<trkpt lat="-27.2744392" lon="151.2900642">
  <ele>343.11</ele>
  <time>2026-09-01T19:49:46Z</time>
  <course>11.33</course>
  <speed>0.022360679774997897</speed>
  <fix>3d</fix>
</trkpt>
<trkpt lat="-27.274439" lon="151.290064">
  <ele>343.1</ele>
  <time>2026-09-01T19:49:46Z</time>
  <course>270.0</course>
  <speed>0.0</speed>
  <fix>3d</fix>
</trkpt>
<trkpt lat="-27.2744392" lon="151.2900642">
  <ele>343.11</ele>
  <time>2026-09-01T19:49:46Z</time>
  <course>11.33</course>
  <speed>0.022360679774997897</speed>
  <fix>3d</fix>
</trkpt>
<trkpt lat="-27.274439" lon="151.290064">
  <ele>343.1</ele>
  <time>2026-09-01T19:49:46Z</time>
  <course>270.0</course>
  <speed>0.0</speed>
  <fix>3d</fix>
</trkpt>
<trkpt lat="-27.2744392" lon="151.2900642">
  <ele>343.09</ele>
  <time>2026-09-01T19:49:46Z</time>
  <course>11.33</course>
  <speed>0.022360679774997897</speed>
  <fix>3d</fix>
</trkpt>
<trkpt lat="-27.274439" lon="151.290064">
  <ele>343.1</ele>
  <time>2026-09-01T19:49:46Z</time>
  <course>270.0</course>
  <speed>0.0</speed>
  <fix>3d</fix>
</trkpt>
<trkpt lat="-27.2744392" lon="151.2900642">
  <ele>343.09</ele>
  <time>2026-09-01T19:49:46Z</time>
  <course>11.33</course>
  <speed>0.022360679774997897</speed>
  <fix>3d</fix>
</trkpt>
<trkpt lat="-27.274439" lon="151.290064">
  <ele>343.1</ele>
  <time>2026-09-01T19:49:46Z</time>
  <course>270.0</course>
  <speed>0.0</speed>
  <fix>3d</fix>
</trkpt>
<trkpt lat="-27.2744392" lon="151.2900642">
  <ele>343.09</ele>
  <time>2026-09-01T19:49:46Z</time>
  <course>11.33</course>
  <speed>0.022360679774997897</speed>
  <fix>3d</fix>
</trkpt>
<trkpt lat="-27.274439" lon="151.290064">
  <ele>343.1</ele>
  <time>2026-09-01T19:49:46Z</time>
  <course>270.0</course>
  <speed>0.0</speed>
  <fix>3d</fix>
</trkpt>
<trkpt lat="-27.2744392" lon="151.2900642">
  <ele>343.1</ele>
  <time>2026-09-01T19:49:46Z</time>
  <course>11.33</course>
  <speed>0.022360679774997897</speed>
  <fix>3d</fix>
</trkpt>
<trkpt lat="-27.274439" lon="151.290064">
  <ele>343.1</ele>
  <time>2026-09-01T19:49:46Z</time>
  <course>270.0</course>
  <speed>0.0</speed>
  <fix>3d</fix>
</trkpt>
<trkpt lat="-27.2744392" lon="151.2900642">
  <ele>343.1</ele>
  <time>2026-09-01T19:49:46Z</time>
  <course>11.33</course>
  <speed>0.022360679774997897</speed>
  <fix>3d</fix>
</trkpt>
<trkpt lat="-27.274439" lon="151.290064">
  <ele>343.1</ele>
  <time>2026-09-01T19:49:46Z</time>
  <course>270.0</course>
  <speed>0.0</speed>
  <fix>3d</fix>
</trkpt>
<trkpt lat="-27.2744392" lon="151.2900642">
  <ele>343.1</ele>
  <time>2026-09-01T19:49:46Z</time>
  <course>11.33</course>
  <speed>0.022360679774997897</speed>
  <fix>3d</fix>
</trkpt>
<trkpt lat="-27.274439" lon="151.290064">
  <ele>343.1</ele>
  <time>2026-09-01T19:49:46Z</time>
  <course>270.0</course>
  <speed>0.0</speed>
  <fix>3d</fix>
</trkpt>
<trkpt lat="-27.2744392" lon="151.2900642">
  <ele>343.1</ele>
  <time>2026-09-01T19:49:46Z</time>
  <course>11.33</course>
  <speed>0.022360679774997897</speed>
  <fix>3d</fix>
</trkpt>
<trkpt lat="-27.274439" lon="151.290064">
  <ele>343.1</ele>
  <time>2026-09-01T19:49:46Z</time>
  <course>270.0</course>
  <speed>0.0</speed>
  <fix>3d</fix>
</trkpt>
<trkpt lat="-27.2744392" lon="151.2900642">
  <ele>343.1</ele>
  <time>2026-09-01T19:49:46Z</time>
  <course>11.33</course>
  <speed>0.022360679774997897</speed>
  <fix>3d</fix>
</trkpt>
<trkpt lat="-27.274439" lon="151.290064">
  <ele>343.1</ele>
  <time>2026-09-01T19:49:46Z</time>
  <course>270.0</course>
  <speed>0.0</speed>
  <fix>3d</fix>
</trkpt>
<trkpt lat="-27.2744392" lon="151.2900642">
  <ele>343.1</ele>
  <time>2026-09-01T19:49:46Z</time>
  <course>11.33</course>
  <speed>0.022360679774997897</speed>
  <fix>3d</fix>
</trkpt>
<trkpt lat="-27.274439" lon="151.290064">
  <ele>343.1</ele>
  <time>2026-09-01T19:49:46Z</time>
  <course>270.0</course>
  <speed>0.0</speed>
  <fix>3d</fix>
</trkpt>
<trkpt lat="-27.2744392" lon="151.2900642">
  <ele>343.11</ele>
  <time>2026-09-01T19:49:46Z</time>
  <course>11.33</course>
  <speed>0.022360679774997897</speed>
  <fix>3d</fix>
</trkpt>
<trkpt lat="-27.274439" lon="151.290064">
  <ele>343.1</ele>
  <time>2026-09-01T19:49:46Z</time>
  <course>270.0</course>
  <speed>0.0</speed>
  <fix>3d</fix>
</trkpt>
<trkpt lat="-27.2744392" lon="151.2900642">
  <ele>343.11</ele>
  <time>2026-09-01T19:49:46Z</time>
  <course>11.33</course>
  <speed>0.022360679774997897</speed>
  <fix>3d</fix>
</trkpt>
<trkpt lat="-27.274439" lon="151.290064">
  <ele>343.1</ele>
  <time>2026-09-01T19:49:46Z</time>
  <course>270.0</course>
  <speed>0.0</speed>
  <fix>3d</fix>
</trkpt>
<trkpt lat="-27.2744392" lon="151.2900642">
  <ele>343.11</ele>
  <time>2026-09-01T19:49:46Z</time>
  <course>11.33</course>
  <speed>0.022360679774997897</speed>
  <fix>3d</fix>
</trkpt>
<trkpt lat="-27.274439" lon="151.290064">
  <ele>343.1</ele>
  <time>2026-09-01T19:49:46Z</time>
  <course>270.0</course>
  <speed>0.0</speed>
  <fix>3d</fix>
</trkpt>
<trkpt lat="-27.2744392" lon="151.2900642">
  <ele>343.11</ele>
  <time>2026-09-01T19:49:46Z</time>
  <course>11.33</course>
  <speed>0.022360679774997897</speed>
  <fix>3d</fix>
</trkpt>
<trkpt lat="-27.274439" lon="151.290064">
  <ele>343.1</ele>
  <time>2026-09-01T19:49:46Z</time>
  <course>270.0</course>
  <speed>0.0</speed>
  <fix>3d</fix>
</trkpt>
<trkpt lat="-27.2744392" lon="151.2900642">
  <ele>343.12</ele>
  <time>2026-09-01T19:49:46Z</time>
  <course>11.33</course>
  <speed>0.022360679774997897</speed>
  <fix>3d</fix>
</trkpt>
<trkpt lat="-27.274439" lon="151.290064">
  <ele>343.1</ele>
  <time>2026-09-01T19:49:46Z</time>
  <course>270.0</course>
  <speed>0.0</speed>
  <fix>3d</fix>
</trkpt>
<trkpt lat="-27.2744392" lon="151.2900642">
  <ele>343.12</ele>
  <time>2026-09-01T19:49:46Z</time>
  <course>11.33</course>
  <speed>0.022360679774997897</speed>
  <fix>3d</fix>
</trkpt>
<trkpt lat="-27.274439" lon="151.290064">
  <ele>343.1</ele>
  <time>2026-09-01T19:49:46Z</time>
  <course>270.0</course>
  <speed>0.0</speed>
  <fix>3d</fix>
</trkpt>
<trkpt lat="-27.2744392" lon="151.2900642">
  <ele>343.11</ele>
  <time>2026-09-01T19:49:46Z</time>
  <course>11.33</course>
  <speed>0.022360679774997897</speed>
  <fix>3d</fix>
</trkpt>
<trkpt lat="-27.274439" lon="151.290064">
  <ele>343.1</ele>
  <time>2026-09-01T19:49:46Z</time>
  <course>270.0</course>
  <speed>0.0</speed>
  <fix>3d</fix>
</trkpt>
<trkpt lat="-27.2744392" lon="151.2900642">
  <ele>343.11</ele>
  <time>2026-09-01T19:49:46Z</time>
  <course>11.33</course>
  <speed>0.022360679774997897</speed>
  <fix>3d</fix>
</trkpt>
<trkpt lat="-27.274439" lon="151.290064">
  <ele>343.1</ele>
  <time>2026-09-01T19:49:46Z</time>
  <course>270.0</course>
  <speed>0.0</speed>
  <fix>3d</fix>
</trkpt>
<trkpt lat="-27.2744392" lon="151.2900642">
  <ele>343.1</ele>
  <time>2026-09-01T19:49:46Z</time>
  <course>11.33</course>
  <speed>0.022360679774997897</speed>
  <fix>3d</fix>
</trkpt>
<trkpt lat="-27.274439" lon="151.290064">
  <ele>343.1</ele>
  <time>2026-09-01T19:49:46Z</time>
  <course>270.0</course>
  <speed>0.0</speed>
  <fix>3d</fix>
</trkpt>
<trkpt lat="-27.2744392" lon="151.2900642">
  <ele>343.09</ele>
  <time>2026-09-01T19:49:46Z</time>
  <course>11.33</course>
  <speed>0.022360679774997897</speed>
  <fix>3d</fix>
</trkpt>
<trkpt lat="-27.274439" lon="151.290064">
  <ele>343.1</ele>
  <time>2026-09-01T19:49:46Z</time>
  <course>270.0</course>
  <speed>0.0</speed>
  <fix>3d</fix>
</trkpt>
<trkpt lat="-27.2744392" lon="151.2900642">
  <ele>343.09</ele>
  <time>2026-09-01T19:49:46Z</time>
  <course>11.33</course>
  <speed>0.022360679774997897</speed>
  <fix>3d</fix>
</trkpt>
<trkpt lat="-27.274439" lon="151.290064">
  <ele>343.1</ele>
  <time>2026-09-01T19:49:46Z</time>
  <course>270.0</course>
  <speed>0.0</speed>
  <fix>3d</fix>
</trkpt>
<trkpt lat="-27.2744392" lon="151.2900642">
  <ele>343.09</ele>
  <time>2026-09-01T19:49:46Z</time>
  <course>11.33</course>
  <speed>0.022360679774997897</speed>
  <fix>3d</fix>
</trkpt>
<trkpt lat="-27.274439" lon="151.290064">
  <ele>343.1</ele>
  <time>2026-09-01T19:49:46Z</time>
  <course>270.0</course>
  <speed>0.0</speed>
  <fix>3d</fix>
</trkpt>
<trkpt lat="-27.2744392" lon="151.2900642">
  <ele>343.09</ele>
  <time>2026-09-01T19:49:46Z</time>
  <course>11.33</course>
  <speed>0.022360679774997897</speed>
  <fix>3d</fix>
</trkpt>
<trkpt lat="-27.274439" lon="151.290064">
  <ele>343.1</ele>
  <time>2026-09-01T19:49:46Z</time>
  <course>270.0</course>
  <speed>0.0</speed>
  <fix>3d</fix>
</trkpt>
<trkpt lat="-27.2744392" lon="151.2900642">
  <ele>343.09</ele>
  <time>2026-09-01T19:49:46Z</time>
  <course>11.33</course>
  <speed>0.022360679774997897</speed>
  <fix>3d</fix>
</trkpt>
<trkpt lat="-27.274439" lon="151.290064">
  <ele>343.1</ele>
  <time>2026-09-01T19:49:46Z</time>
  <course>270.0</course>
  <speed>0.0</speed>
  <fix>3d</fix>
</trkpt>
<trkpt lat="-27.2744392" lon="151.2900642">
  <ele>343.09</ele>
  <time>2026-09-01T19:49:46Z</time>
  <course>11.33</course>
  <speed>0.022360679774997897</speed>
  <fix>3d</fix>
</trkpt>
<trkpt lat="-27.274439" lon="151.290064">
  <ele>343.1</ele>
  <time>2026-09-01T19:49:46Z</time>
  <course>270.0</course>
  <speed>0.0</speed>
  <fix>3d</fix>
</trkpt>
<trkpt lat="-27.2744392" lon="151.2900642">
  <ele>343.09</ele>
  <time>2026-09-01T19:49:46Z</time>
  <course>11.33</course>
  <speed>0.022360679774997897</speed>
  <fix>3d</fix>
</trkpt>
<trkpt lat="-27.274439" lon="151.290064">
  <ele>343.1</ele>
  <time>2026-09-01T19:49:46Z</time>
  <course>270.0</course>
  <speed>0.0</speed>
  <fix>3d</fix>
</trkpt>
<trkpt lat="-27.2744392" lon="151.2900642">
  <ele>343.09</ele>
  <time>2026-09-01T19:49:46Z</time>
  <course>11.33</course>
  <speed>0.022360679774997897</speed>
  <fix>3d</fix>
</trkpt>
<trkpt lat="-27.274439" lon="151.290064">
  <ele>343.1</ele>
  <time>2026-09-01T19:49:46Z</time>
  <course>270.0</course>
  <speed>0.0</speed>
  <fix>3d</fix>
</trkpt>
<trkpt lat="-27.2744392" lon="151.2900642">
  <ele>343.09</ele>
  <time>2026-09-01T19:49:46Z</time>
  <course>11.33</course>
  <speed>0.01414213562373095</speed>
  <fix>3d</fix>
</trkpt>
<trkpt lat="-27.274439" lon="151.290064">
  <ele>343.1</ele>
  <time>2026-09-01T19:49:46Z</time>
  <course>270.0</course>
  <speed>0.0</speed>
  <fix>3d</fix>
</trkpt>
<trkpt lat="-27.2744392" lon="151.2900642">
  <ele>343.09</ele>
  <time>2026-09-01T19:49:46Z</time>
  <course>11.33</course>
  <speed>0.01414213562373095</speed>
  <fix>3d</fix>
</trkpt>
<trkpt lat="-27.274439" lon="151.290064">
  <ele>343.1</ele>
  <time>2026-09-01T19:49:46Z</time>
  <course>270.0</course>
  <speed>0.0</speed>
  <fix>3d</fix>
</trkpt>
<trkpt lat="-27.2744392" lon="151.2900642">
  <ele>343.09</ele>
  <time>2026-09-01T19:49:46Z</time>
  <course>11.33</course>
  <speed>0.01414213562373095</speed>
  <fix>3d</fix>
</trkpt>
<trkpt lat="-27.274439" lon="151.290064">
  <ele>343.1</ele>
  <time>2026-09-01T19:49:46Z</time>
  <course>270.0</course>
  <speed>0.0</speed>
  <fix>3d</fix>
</trkpt>
<trkpt lat="-27.2744392" lon="151.2900642">
  <ele>343.08</ele>
  <time>2026-09-01T19:49:46Z</time>
  <course>11.33</course>
  <speed>0.01414213562373095</speed>
  <fix>3d</fix>
</trkpt>
<trkpt lat="-27.274439" lon="151.290064">
  <ele>343.1</ele>
  <time>2026-09-01T19:49:46Z</time>
  <course>270.0</course>
  <speed>0.0</speed>
  <fix>3d</fix>
</trkpt>
<trkpt lat="-27.2744392" lon="151.2900642">
  <ele>343.08</ele>
  <time>2026-09-01T19:49:46Z</time>
  <course>11.33</course>
  <speed>0.01414213562373095</speed>
  <fix>3d</fix>
</trkpt>
<trkpt lat="-27.274439" lon="151.290064">
  <ele>343.1</ele>
  <time>2026-09-01T19:49:46Z</time>
  <course>270.0</course>
  <speed>0.0</speed>
  <fix>3d</fix>
</trkpt>
<trkpt lat="-27.2744392" lon="151.2900642">
  <ele>343.08</ele>
  <time>2026-09-01T19:49:46Z</time>
  <course>11.33</course>
  <speed>0.01414213562373095</speed>
  <fix>3d</fix>
</trkpt>
<trkpt lat="-27.274439" lon="151.290064">
  <ele>343.1</ele>
  <time>2026-09-01T19:49:46Z</time>
  <course>270.0</course>
  <speed>0.0</speed>
  <fix>3d</fix>
</trkpt>
<trkpt lat="-27.2744392" lon="151.2900642">
  <ele>343.08</ele>
  <time>2026-09-01T19:49:46Z</time>
  <course>11.33</course>
  <speed>0.01414213562373095</speed>
  <fix>3d</fix>
</trkpt>
<trkpt lat="-27.274439" lon="151.290064">
  <ele>343.1</ele>
  <time>2026-09-01T19:49:46Z</time>
  <course>270.0</course>
  <speed>0.0</speed>
  <fix>3d</fix>
</trkpt>
<trkpt lat="-27.2744392" lon="151.2900642">
  <ele>343.08</ele>
  <time>2026-09-01T19:49:46Z</time>
  <course>11.33</course>
  <speed>0.01414213562373095</speed>
  <fix>3d</fix>
</trkpt>
<trkpt lat="-27.274439" lon="151.290064">
  <ele>343.1</ele>
  <time>2026-09-01T19:49:46Z</time>
  <course>270.0</course>
  <speed>0.0</speed>
  <fix>3d</fix>
</trkpt>
<trkpt lat="-27.2744392" lon="151.2900642">
  <ele>343.08</ele>
  <time>2026-09-01T19:49:46Z</time>
  <course>11.33</course>
  <speed>0.01414213562373095</speed>
  <fix>3d</fix>
</trkpt>
<trkpt lat="-27.274439" lon="151.290064">
  <ele>343.1</ele>
  <time>2026-09-01T19:49:46Z</time>
  <course>270.0</course>
  <speed>0.0</speed>
  <fix>3d</fix>
</trkpt>
<trkpt lat="-27.2744392" lon="151.2900642">
  <ele>343.08</ele>
  <time>2026-09-01T19:49:46Z</time>
  <course>11.33</course>
  <speed>0.01414213562373095</speed>
  <fix>3d</fix>
</trkpt>
<trkpt lat="-27.274439" lon="151.290064">
  <ele>343.1</ele>
  <time>2026-09-01T19:49:46Z</time>
  <course>270.0</course>
  <speed>0.0</speed>
  <fix>3d</fix>
</trkpt>
<trkpt lat="-27.2744392" lon="151.2900642">
  <ele>343.08</ele>
  <time>2026-09-01T19:49:46Z</time>
  <course>11.33</course>
  <speed>0.01414213562373095</speed>
  <fix>3d</fix>
</trkpt>
<trkpt lat="-27.274439" lon="151.290064">
  <ele>343.1</ele>
  <time>2026-09-01T19:49:46Z</time>
  <course>270.0</course>
  <speed>0.0</speed>
  <fix>3d</fix>
</trkpt>
<trkpt lat="-27.2744392" lon="151.2900642">
  <ele>343.08</ele>
  <time>2026-09-01T19:49:46Z</time>
  <course>11.33</course>
  <speed>0.01414213562373095</speed>
  <fix>3d</fix>
</trkpt>
<trkpt lat="-27.274439" lon="151.290064">
  <ele>343.1</ele>
  <time>2026-09-01T19:49:46Z</time>
  <course>270.0</course>
  <speed>0.0</speed>
  <fix>3d</fix>
</trkpt>
<trkpt lat="-27.2744392" lon="151.2900642">
  <ele>343.08</ele>
  <time>2026-09-01T19:49:46Z</time>
  <course>11.33</course>
  <speed>0.01414213562373095</speed>
  <fix>3d</fix>
</trkpt>
<trkpt lat="-27.274439" lon="151.290064">
  <ele>343.1</ele>
  <time>2026-09-01T19:49:46Z</time>
  <course>270.0</course>
  <speed>0.0</speed>
  <fix>3d</fix>
</trkpt>
<trkpt lat="-27.2744392" lon="151.2900642">
  <ele>343.08</ele>
  <time>2026-09-01T19:49:46Z</time>
  <course>11.33</course>
  <speed>0.01414213562373095</speed>
  <fix>3d</fix>
</trkpt>
<trkpt lat="-27.274439" lon="151.290064">
  <ele>343.1</ele>
  <time>2026-09-01T19:49:46Z</time>
  <course>270.0</course>
  <speed>0.0</speed>
  <fix>3d</fix>
</trkpt>
<trkpt lat="-27.2744392" lon="151.2900642">
  <ele>343.08</ele>
  <time>2026-09-01T19:49:46Z</time>
  <course>11.33</course>
  <speed>0.01414213562373095</speed>
  <fix>3d</fix>
</trkpt>
<trkpt lat="-27.274439" lon="151.290064">
  <ele>343.1</ele>
  <time>2026-09-01T19:49:46Z</time>
  <course>270.0</course>
  <speed>0.0</speed>
  <fix>3d</fix>
</trkpt>
<trkpt lat="-27.2744392" lon="151.2900642">
  <ele>343.08</ele>
  <time>2026-09-01T19:49:46Z</time>
  <course>11.33</course>
  <speed>0.01414213562373095</speed>
  <fix>3d</fix>
</trkpt>
<trkpt lat="-27.274439" lon="151.290064">
  <ele>343.1</ele>
  <time>2026-09-01T19:49:46Z</time>
  <course>270.0</course>
  <speed>0.0</speed>
  <fix>3d</fix>
</trkpt>
<trkpt lat="-27.2744392" lon="151.2900641">
  <ele>343.08</ele>
  <time>2026-09-01T19:49:46Z</time>
  <course>11.33</course>
  <speed>0.01414213562373095</speed>
  <fix>3d</fix>
</trkpt>
<trkpt lat="-27.274439" lon="151.290064">
  <ele>343.1</ele>
  <time>2026-09-01T19:49:46Z</time>
  <course>270.0</course>
  <speed>0.0</speed>
  <fix>3d</fix>
</trkpt>
<trkpt lat="-27.2744392" lon="151.2900641">
  <ele>343.08</ele>
  <time>2026-09-01T19:49:46Z</time>
  <course>11.33</course>
  <speed>0.01414213562373095</speed>
  <fix>3d</fix>
</trkpt>
<trkpt lat="-27.274439" lon="151.290064">
  <ele>343.1</ele>
  <time>2026-09-01T19:49:46Z</time>
  <course>270.0</course>
  <speed>0.0</speed>
  <fix>3d</fix>
</trkpt>
<trkpt lat="-27.2744392" lon="151.2900641">
  <ele>343.08</ele>
  <time>2026-09-01T19:49:46Z</time>
  <course>11.33</course>
  <speed>0.01414213562373095</speed>
  <fix>3d</fix>
</trkpt>
<trkpt lat="-27.274439" lon="151.290064">
  <ele>343.1</ele>
  <time>2026-09-01T19:49:46Z</time>
  <course>270.0</course>
  <speed>0.0</speed>
  <fix>3d</fix>
</trkpt>
<trkpt lat="-27.2744392" lon="151.2900641">
  <ele>343.08</ele>
  <time>2026-09-01T19:49:46Z</time>
  <course>11.33</course>
  <speed>0.01414213562373095</speed>
  <fix>3d</fix>
</trkpt>
<trkpt lat="-27.274439" lon="151.290064">
  <ele>343.1</ele>
  <time>2026-09-01T19:49:46Z</time>
  <course>270.0</course>
  <speed>0.0</speed>
  <fix>3d</fix>
</trkpt>
<trkpt lat="-27.2744392" lon="151.2900641">
  <ele>343.08</ele>
  <time>2026-09-01T19:49:46Z</time>
  <course>11.33</course>
  <speed>0.01414213562373095</speed>
  <fix>3d</fix>
</trkpt>
<trkpt lat="-27.274439" lon="151.290064">
  <ele>343.1</ele>
  <time>2026-09-01T19:49:46Z</time>
  <course>270.0</course>
  <speed>0.0</speed>
  <fix>3d</fix>
</trkpt>
<trkpt lat="-27.2744392" lon="151.2900641">
  <ele>343.08</ele>
  <time>2026-09-01T19:49:46Z</time>
  <course>11.33</course>
  <speed>0.01414213562373095</speed>
  <fix>3d</fix>
</trkpt>
<trkpt lat="-27.274439" lon="151.290064">
  <ele>343.1</ele>
  <time>2026-09-01T19:49:46Z</time>
  <course>270.0</course>
  <speed>0.0</speed>
  <fix>3d</fix>
</trkpt>
<trkpt lat="-27.2744392" lon="151.2900641">
  <ele>343.08</ele>
  <time>2026-09-01T19:49:46Z</time>
  <course>11.33</course>
  <speed>0.01414213562373095</speed>
  <fix>3d</fix>
</trkpt>
<trkpt lat="-27.274439" lon="151.290064">
  <ele>343.1</ele>
  <time>2026-09-01T19:49:46Z</time>
  <course>270.0</course>
  <speed>0.0</speed>
  <fix>3d</fix>
</trkpt>
<trkpt lat="-27.2744392" lon="151.2900641">
  <ele>343.08</ele>
  <time>2026-09-01T19:49:46Z</time>
  <course>11.33</course>
  <speed>0.01414213562373095</speed>
  <fix>3d</fix>
</trkpt>
<trkpt lat="-27.274439" lon="151.290064">
  <ele>343.1</ele>
  <time>2026-09-01T19:49:46Z</time>
  <course>270.0</course>
  <speed>0.0</speed>
  <fix>3d</fix>
</trkpt>
<trkpt lat="-27.2744392" lon="151.2900641">
  <ele>343.08</ele>
  <time>2026-09-01T19:49:46Z</time>
  <course>11.33</course>
  <speed>0.01414213562373095</speed>
  <fix>3d</fix>
</trkpt>
<trkpt lat="-27.274439" lon="151.290064">
  <ele>343.1</ele>
  <time>2026-09-01T19:49:46Z</time>
  <course>270.0</course>
  <speed>0.0</speed>
  <fix>3d</fix>
</trkpt>
<trkpt lat="-27.2744392" lon="151.2900641">
  <ele>343.08</ele>
  <time>2026-09-01T19:49:46Z</time>
  <course>11.33</course>
  <speed>0.01414213562373095</speed>
  <fix>3d</fix>
</trkpt>
<trkpt lat="-27.274439" lon="151.290064">
  <ele>343.1</ele>
  <time>2026-09-01T19:49:46Z</time>
  <course>270.0</course>
  <speed>0.0</speed>
  <fix>3d</fix>
</trkpt>
<trkpt lat="-27.2744392" lon="151.2900641">
  <ele>343.07</ele>
  <time>2026-09-01T19:49:46Z</time>
  <course>11.33</course>
  <speed>0.01414213562373095</speed>
  <fix>3d</fix>
</trkpt>
<trkpt lat="-27.274439" lon="151.290064">
  <ele>343.1</ele>
  <time>2026-09-01T19:49:46Z</time>
  <course>270.0</course>
  <speed>0.0</speed>
  <fix>3d</fix>
</trkpt>
<trkpt lat="-27.2744392" lon="151.2900641">
  <ele>343.07</ele>
  <time>2026-09-01T19:49:46Z</time>
  <course>11.33</course>
  <speed>0.01414213562373095</speed>
  <fix>3d</fix>
</trkpt>
<trkpt lat="-27.274439" lon="151.290064">
  <ele>343.1</ele>
  <time>2026-09-01T19:49:46Z</time>
  <course>270.0</course>
  <speed>0.0</speed>
  <fix>3d</fix>
</trkpt>
<trkpt lat="-27.2744392" lon="151.2900641">
  <ele>343.07</ele>
  <time>2026-09-01T19:49:46Z</time>
  <course>11.33</course>
  <speed>0.01414213562373095</speed>
  <fix>3d</fix>
</trkpt>
<trkpt lat="-27.274439" lon="151.290064">
  <ele>343.1</ele>
  <time>2026-09-01T19:49:46Z</time>
  <course>270.0</course>
  <speed>0.0</speed>
  <fix>3d</fix>
</trkpt>
<trkpt lat="-27.2744392" lon="151.2900641">
  <ele>343.07</ele>
  <time>2026-09-01T19:49:46Z</time>
  <course>11.33</course>
  <speed>0.01414213562373095</speed>
  <fix>3d</fix>
</trkpt>
<trkpt lat="-27.274439" lon="151.290064">
  <ele>343.1</ele>
  <time>2026-09-01T19:49:46Z</time>
  <course>270.0</course>
  <speed>0.0</speed>
  <fix>3d</fix>
</trkpt>
<trkpt lat="-27.2744392" lon="151.2900641">
  <ele>343.07</ele>
  <time>2026-09-01T19:49:46Z</time>
  <course>11.33</course>
  <speed>0.01414213562373095</speed>
  <fix>3d</fix>
</trkpt>
<trkpt lat="-27.274439" lon="151.290064">
  <ele>343.1</ele>
  <time>2026-09-01T19:49:46Z</time>
  <course>270.0</course>
  <speed>0.0</speed>
  <fix>3d</fix>
</trkpt>
<trkpt lat="-27.2744392" lon="151.2900641">
  <ele>343.07</ele>
  <time>2026-09-01T19:49:46Z</time>
  <course>11.33</course>
  <speed>0.01414213562373095</speed>
  <fix>3d</fix>
</trkpt>
<trkpt lat="-27.274439" lon="151.290064">
  <ele>343.1</ele>
  <time>2026-09-01T19:49:46Z</time>
  <course>270.0</course>
  <speed>0.0</speed>
  <fix>3d</fix>
</trkpt>
<trkpt lat="-27.2744392" lon="151.2900641">
  <ele>343.07</ele>
  <time>2026-09-01T19:49:46Z</time>
  <course>11.33</course>
  <speed>0.01414213562373095</speed>
  <fix>3d</fix>
</trkpt>
<trkpt lat="-27.274439" lon="151.290064">
  <ele>343.1</ele>
  <time>2026-09-01T19:49:46Z</time>
  <course>270.0</course>
  <speed>0.0</speed>
  <fix>3d</fix>
</trkpt>
<trkpt lat="-27.2744392" lon="151.2900641">
  <ele>343.07</ele>
  <time>2026-09-01T19:49:46Z</time>
  <course>11.33</course>
  <speed>0.01414213562373095</speed>
  <fix>3d</fix>
</trkpt>
<trkpt lat="-27.274439" lon="151.290064">
  <ele>343.1</ele>
  <time>2026-09-01T19:49:46Z</time>
  <course>270.0</course>
  <speed>0.0</speed>
  <fix>3d</fix>
</trkpt>
<trkpt lat="-27.2744392" lon="151.2900641">
  <ele>343.07</ele>
  <time>2026-09-01T19:49:46Z</time>
  <course>11.33</course>
  <speed>0.01414213562373095</speed>
  <fix>3d</fix>
</trkpt>
<trkpt lat="-27.274439" lon="151.290064">
  <ele>343.1</ele>
  <time>2026-09-01T19:49:46Z</time>
  <course>270.0</course>
  <speed>0.0</speed>
  <fix>3d</fix>
</trkpt>
<trkpt lat="-27.2744392" lon="151.2900641">
  <ele>343.07</ele>
  <time>2026-09-01T19:49:46Z</time>
  <course>11.33</course>
  <speed>0.01414213562373095</speed>
  <fix>3d</fix>
</trkpt>
<trkpt lat="-27.274439" lon="151.290064">
  <ele>343.1</ele>
  <time>2026-09-01T19:49:46Z</time>
  <course>270.0</course>
  <speed>0.0</speed>
  <fix>3d</fix>
</trkpt>
<trkpt lat="-27.2744392" lon="151.2900641">
  <ele>343.07</ele>
  <time>2026-09-01T19:49:46Z</time>
  <course>11.33</course>
  <speed>0.01414213562373095</speed>
  <fix>3d</fix>
</trkpt>
<trkpt lat="-27.274439" lon="151.290064">
  <ele>343.1</ele>
  <time>2026-09-01T19:49:46Z</time>
  <course>270.0</course>
  <speed>0.0</speed>
  <fix>3d</fix>
</trkpt>
<trkpt lat="-27.2744392" lon="151.2900641">
  <ele>343.07</ele>
  <time>2026-09-01T19:49:46Z</time>
  <course>11.33</course>
  <speed>0.01414213562373095</speed>
  <fix>3d</fix>
</trkpt>
<trkpt lat="-27.274439" lon="151.290064">
  <ele>343.1</ele>
  <time>2026-09-01T19:49:46Z</time>
  <course>270.0</course>
  <speed>0.0</speed>
  <fix>3d</fix>
</trkpt>
<trkpt lat="-27.2744392" lon="151.2900641">
  <ele>343.07</ele>
  <time>2026-09-01T19:49:46Z</time>
  <course>11.33</course>
  <speed>0.01414213562373095</speed>
  <fix>3d</fix>
</trkpt>
<trkpt lat="-27.274439" lon="151.290064">
  <ele>343.1</ele>
  <time>2026-09-01T19:49:46Z</time>
  <course>270.0</course>
  <speed>0.0</speed>
  <fix>3d</fix>
</trkpt>
<trkpt lat="-27.2744392" lon="151.2900641">
  <ele>343.07</ele>
  <time>2026-09-01T19:49:46Z</time>
  <course>11.33</course>
  <speed>0.01414213562373095</speed>
  <fix>3d</fix>
</trkpt>
<trkpt lat="-27.274439" lon="151.290064">
  <ele>343.1</ele>
  <time>2026-09-01T19:49:46Z</time>
  <course>270.0</course>
  <speed>0.0</speed>
  <fix>3d</fix>
</trkpt>
<trkpt lat="-27.2744392" lon="151.2900641">
  <ele>343.07</ele>
  <time>2026-09-01T19:49:46Z</time>
  <course>11.33</course>
  <speed>0.01414213562373095</speed>
  <fix>3d</fix>
</trkpt>
<trkpt lat="-27.274439" lon="151.290064">
  <ele>343.1</ele>
  <time>2026-09-01T19:49:46Z</time>
  <course>270.0</course>
  <speed>0.0</speed>
  <fix>3d</fix>
</trkpt>
<trkpt lat="-27.2744392" lon="151.2900641">
  <ele>343.07</ele>
  <time>2026-09-01T19:49:46Z</time>
  <course>11.33</course>
  <speed>0.01414213562373095</speed>
  <fix>3d</fix>
</trkpt>
<trkpt lat="-27.274439" lon="151.290064">
  <ele>343.1</ele>
  <time>2026-09-01T19:49:46Z</time>
  <course>270.0</course>
  <speed>0.0</speed>
  <fix>3d</fix>
</trkpt>
<trkpt lat="-27.2744392" lon="151.2900641">
  <ele>343.07</ele>
  <time>2026-09-01T19:49:46Z</time>
  <course>11.33</course>
  <speed>0.01414213562373095</speed>
  <fix>3d</fix>
</trkpt>
<trkpt lat="-27.274439" lon="151.290064">
  <ele>343.1</ele>
  <time>2026-09-01T19:49:46Z</time>
  <course>270.0</course>
  <speed>0.0</speed>
  <fix>3d</fix>
</trkpt>
<trkpt lat="-27.2744392" lon="151.2900641">
  <ele>343.07</ele>
  <time>2026-09-01T19:49:46Z</time>
  <course>11.33</course>
  <speed>0.022360679774997897</speed>
  <fix>3d</fix>
</trkpt>
<trkpt lat="-27.274439" lon="151.290064">
  <ele>343.1</ele>
  <time>2026-09-01T19:49:46Z</time>
  <course>270.0</course>
  <speed>0.0</speed>
  <fix>3d</fix>
</trkpt>
<trkpt lat="-27.2744392" lon="151.2900641">
  <ele>343.07</ele>
  <time>2026-09-01T19:49:46Z</time>
  <course>11.33</course>
  <speed>0.022360679774997897</speed>
  <fix>3d</fix>
</trkpt>
<trkpt lat="-27.274439" lon="151.290064">
  <ele>343.1</ele>
  <time>2026-09-01T19:49:46Z</time>
  <course>270.0</course>
  <speed>0.0</speed>
  <fix>3d</fix>
</trkpt>
<trkpt lat="-27.2744392" lon="151.2900641">
  <ele>343.07</ele>
  <time>2026-09-01T19:49:46Z</time>
  <course>11.33</course>
  <speed>0.022360679774997897</speed>
  <fix>3d</fix>
</trkpt>
<trkpt lat="-27.274439" lon="151.290064">
  <ele>343.1</ele>
  <time>2026-09-01T19:49:46Z</time>
  <course>270.0</course>
  <speed>0.0</speed>
  <fix>3d</fix>
</trkpt>
<trkpt lat="-27.2744392" lon="151.2900641">
  <ele>343.07</ele>
  <time>2026-09-01T19:49:46Z</time>
  <course>11.33</course>
  <speed>0.022360679774997897</speed>
  <fix>3d</fix>
</trkpt>
<trkpt lat="-27.274439" lon="151.290064">
  <ele>343.1</ele>
  <time>2026-09-01T19:49:46Z</time>
  <course>270.0</course>
  <speed>0.0</speed>
  <fix>3d</fix>
</trkpt>
<trkpt lat="-27.2744392" lon="151.2900641">
  <ele>343.07</ele>
  <time>2026-09-01T19:49:46Z</time>
  <course>11.33</course>
  <speed>0.022360679774997897</speed>
  <fix>3d</fix>
</trkpt>
<trkpt lat="-27.274439" lon="151.290064">
  <ele>343.1</ele>
  <time>2026-09-01T19:49:46Z</time>
  <course>270.0</course>
  <speed>0.0</speed>
  <fix>3d</fix>
</trkpt>
<trkpt lat="-27.2744392" lon="151.2900641">
  <ele>343.07</ele>
  <time>2026-09-01T19:49:46Z</time>
  <course>11.33</course>
  <speed>0.022360679774997897</speed>
  <fix>3d</fix>
</trkpt>
<trkpt lat="-27.274439" lon="151.290064">
  <ele>343.1</ele>
  <time>2026-09-01T19:49:46Z</time>
  <course>270.0</course>
  <speed>0.0</speed>
  <fix>3d</fix>
</trkpt>
<trkpt lat="-27.2744392" lon="151.2900641">
  <ele>343.07</ele>
  <time>2026-09-01T19:49:46Z</time>
  <course>11.33</course>
  <speed>0.022360679774997897</speed>
  <fix>3d</fix>
</trkpt>
<trkpt lat="-27.274439" lon="151.290064">
  <ele>343.1</ele>
  <time>2026-09-01T19:49:46Z</time>
  <course>270.0</course>
  <speed>0.0</speed>
  <fix>3d</fix>
</trkpt>
<trkpt lat="-27.2744392" lon="151.2900641">
  <ele>343.07</ele>
  <time>2026-09-01T19:49:46Z</time>
  <course>11.33</course>
  <speed>0.022360679774997897</speed>
  <fix>3d</fix>
</trkpt>
<trkpt lat="-27.274439" lon="151.290064">
  <ele>343.1</ele>
  <time>2026-09-01T19:49:46Z</time>
  <course>270.0</course>
  <speed>0.0</speed>
  <fix>3d</fix>
</trkpt>
<trkpt lat="-27.2744392" lon="151.2900641">
  <ele>343.07</ele>
  <time>2026-09-01T19:49:46Z</time>
  <course>11.33</course>
  <speed>0.022360679774997897</speed>
  <fix>3d</fix>
</trkpt>
<trkpt lat="-27.274439" lon="151.290064">
  <ele>343.1</ele>
  <time>2026-09-01T19:49:46Z</time>
  <course>270.0</course>
  <speed>0.0</speed>
  <fix>3d</fix>
</trkpt>
<trkpt lat="-27.2744392" lon="151.2900641">
  <ele>343.07</ele>
  <time>2026-09-01T19:49:46Z</time>
  <course>11.33</course>
  <speed>0.022360679774997897</speed>
  <fix>3d</fix>
</trkpt>
<trkpt lat="-27.274439" lon="151.290064">
  <ele>343.1</ele>
  <time>2026-09-01T19:49:46Z</time>
  <course>270.0</course>
  <speed>0.0</speed>
  <fix>3d</fix>
</trkpt>
<trkpt lat="-27.2744392" lon="151.2900641">
  <ele>343.07</ele>
  <time>2026-09-01T19:49:46Z</time>
  <course>11.33</course>
  <speed>0.022360679774997897</speed>
  <fix>3d</fix>
</trkpt>
<trkpt lat="-27.274439" lon="151.290064">
  <ele>343.1</ele>
  <time>2026-09-01T19:49:46Z</time>
  <course>270.0</course>
  <speed>0.0</speed>
  <fix>3d</fix>
</trkpt>
<trkpt lat="-27.2744392" lon="151.2900641">
  <ele>343.07</ele>
  <time>2026-09-01T19:49:46Z</time>
  <course>11.33</course>
  <speed>0.022360679774997897</speed>
  <fix>3d</fix>
</trkpt>
<trkpt lat="-27.274439" lon="151.290064">
  <ele>343.1</ele>
  <time>2026-09-01T19:49:46Z</time>
  <course>270.0</course>
  <speed>0.0</speed>
  <fix>3d</fix>
</trkpt>
<trkpt lat="-27.2744392" lon="151.2900641">
  <ele>343.07</ele>
  <time>2026-09-01T19:49:46Z</time>
  <course>11.33</course>
  <speed>0.022360679774997897</speed>
  <fix>3d</fix>
</trkpt>
<trkpt lat="-27.274439" lon="151.290064">
  <ele>343.1</ele>
  <time>2026-09-01T19:49:46Z</time>
  <course>270.0</course>
  <speed>0.0</speed>
  <fix>3d</fix>
</trkpt>
<trkpt lat="-27.2744392" lon="151.2900641">
  <ele>343.07</ele>
  <time>2026-09-01T19:49:46Z</time>
  <course>11.33</course>
  <speed>0.022360679774997897</speed>
  <fix>3d</fix>
</trkpt>
<trkpt lat="-27.274439" lon="151.290064">
  <ele>343.1</ele>
  <time>2026-09-01T19:49:46Z</time>
  <course>270.0</course>
  <speed>0.0</speed>
  <fix>3d</fix>
</trkpt>
<trkpt lat="-27.2744392" lon="151.2900641">
  <ele>343.07</ele>
  <time>2026-09-01T19:49:46Z</time>
  <course>11.33</course>
  <speed>0.022360679774997897</speed>
  <fix>3d</fix>
</trkpt>
<trkpt lat="-27.274439" lon="151.290064">
  <ele>343.1</ele>
  <time>2026-09-01T19:49:46Z</time>
  <course>270.0</course>
  <speed>0.0</speed>
  <fix>3d</fix>
</trkpt>
<trkpt lat="-27.2744392" lon="151.2900641">
  <ele>343.07</ele>
  <time>2026-09-01T19:49:46Z</time>
  <course>11.33</course>
  <speed>0.022360679774997897</speed>
  <fix>3d</fix>
</trkpt>
<trkpt lat="-27.274439" lon="151.290064">
  <ele>343.1</ele>
  <time>2026-09-01T19:49:46Z</time>
  <course>270.0</course>
  <speed>0.0</speed>
  <fix>3d</fix>
</trkpt>
<trkpt lat="-27.2744392" lon="151.2900641">
  <ele>343.07</ele>
  <time>2026-09-01T19:49:46Z</time>
  <course>11.33</course>
  <speed>0.022360679774997897</speed>
  <fix>3d</fix>
</trkpt>
<trkpt lat="-27.274439" lon="151.290064">
  <ele>343.1</ele>
  <time>2026-09-01T19:49:46Z</time>
  <course>270.0</course>
  <speed>0.0</speed>
  <fix>3d</fix>
</trkpt>
<trkpt lat="-27.2744392" lon="151.2900641">
  <ele>343.07</ele>
  <time>2026-09-01T19:49:46Z</time>
  <course>11.33</course>
  <speed>0.022360679774997897</speed>
  <fix>3d</fix>
</trkpt>
<trkpt lat="-27.274439" lon="151.290064">
  <ele>343.1</ele>
  <time>2026-09-01T19:49:46Z</time>
  <course>270.0</course>
  <speed>0.0</speed>
  <fix>3d</fix>
</trkpt>
<trkpt lat="-27.2744392" lon="151.2900641">
  <ele>343.07</ele>
  <time>2026-09-01T19:49:46Z</time>
  <course>11.33</course>
  <speed>0.022360679774997897</speed>
  <fix>3d</fix>
</trkpt>
<trkpt lat="-27.274439" lon="151.290064">
  <ele>343.1</ele>
  <time>2026-09-01T19:49:46Z</time>
  <course>270.0</course>
  <speed>0.0</speed>
  <fix>3d</fix>
</trkpt>
<trkpt lat="-27.2744392" lon="151.2900641">
  <ele>343.07</ele>
  <time>2026-09-01T19:49:46Z</time>
  <course>11.33</course>
  <speed>0.022360679774997897</speed>
  <fix>3d</fix>
</trkpt>
<trkpt lat="-27.274439" lon="151.290064">
  <ele>343.1</ele>
  <time>2026-09-01T19:49:46Z</time>
  <course>270.0</course>
  <speed>0.0</speed>
  <fix>3d</fix>
</trkpt>
<trkpt lat="-27.2744392" lon="151.2900641">
  <ele>343.07</ele>
  <time>2026-09-01T19:49:46Z</time>
  <course>11.33</course>
  <speed>0.022360679774997897</speed>
  <fix>3d</fix>
</trkpt>
<trkpt lat="-27.274439" lon="151.290064">
  <ele>343.1</ele>
  <time>2026-09-01T19:49:46Z</time>
  <course>270.0</course>
  <speed>0.0</speed>
  <fix>3d</fix>
</trkpt>
<trkpt lat="-27.2744392" lon="151.2900641">
  <ele>343.08</ele>
  <time>2026-09-01T19:49:46Z</time>
  <course>11.33</course>
  <speed>0.022360679774997897</speed>
  <fix>3d</fix>
</trkpt>
<trkpt lat="-27.274439" lon="151.290064">
  <ele>343.1</ele>
  <time>2026-09-01T19:49:46Z</time>
  <course>270.0</course>
  <speed>0.0</speed>
  <fix>3d</fix>
</trkpt>
<trkpt lat="-27.2744392" lon="151.2900641">
  <ele>343.08</ele>
  <time>2026-09-01T19:49:46Z</time>
  <course>11.33</course>
  <speed>0.022360679774997897</speed>
  <fix>3d</fix>
</trkpt>
<trkpt lat="-27.274439" lon="151.290064">
  <ele>343.1</ele>
  <time>2026-09-01T19:49:46Z</time>
  <course>270.0</course>
  <speed>0.0</speed>
  <fix>3d</fix>
</trkpt>
<trkpt lat="-27.2744392" lon="151.2900641">
  <ele>343.08</ele>
  <time>2026-09-01T19:49:46Z</time>
  <course>11.33</course>
  <speed>0.022360679774997897</speed>
  <fix>3d</fix>
</trkpt>
<trkpt lat="-27.274439" lon="151.290064">
  <ele>343.1</ele>
  <time>2026-09-01T19:49:46Z</time>
  <course>270.0</course>
  <speed>0.0</speed>
  <fix>3d</fix>
</trkpt>
<trkpt lat="-27.2744392" lon="151.2900641">
  <ele>343.08</ele>
  <time>2026-09-01T19:49:46Z</time>
  <course>11.33</course>
  <speed>0.022360679774997897</speed>
  <fix>3d</fix>
</trkpt>
<trkpt lat="-27.274439" lon="151.290064">
  <ele>343.1</ele>
  <time>2026-09-01T19:49:46Z</time>
  <course>270.0</course>
  <speed>0.0</speed>
  <fix>3d</fix>
</trkpt>
<trkpt lat="-27.2744392" lon="151.2900641">
  <ele>343.08</ele>
  <time>2026-09-01T19:49:46Z</time>
  <course>11.33</course>
  <speed>0.022360679774997897</speed>
  <fix>3d</fix>
</trkpt>
<trkpt lat="-27.274439" lon="151.290064">
  <ele>343.1</ele>
  <time>2026-09-01T19:49:46Z</time>
  <course>270.0</course>
  <speed>0.0</speed>
  <fix>3d</fix>
</trkpt>
<trkpt lat="-27.2744392" lon="151.2900641">
  <ele>343.08</ele>
  <time>2026-09-01T19:49:46Z</time>
  <course>11.33</course>
  <speed>0.022360679774997897</speed>
  <fix>3d</fix>
</trkpt>
<trkpt lat="-27.274439" lon="151.290064">
  <ele>343.1</ele>
  <time>2026-09-01T19:49:46Z</time>
  <course>270.0</course>
  <speed>0.0</speed>
  <fix>3d</fix>
</trkpt>
<trkpt lat="-27.2744392" lon="151.2900641">
  <ele>343.08</ele>
  <time>2026-09-01T19:49:46Z</time>
  <course>11.33</course>
  <speed>0.022360679774997897</speed>
  <fix>3d</fix>
</trkpt>
<trkpt lat="-27.274439" lon="151.290064">
  <ele>343.1</ele>
  <time>2026-09-01T19:49:46Z</time>
  <course>270.0</course>
  <speed>0.0</speed>
  <fix>3d</fix>
</trkpt>
<trkpt lat="-27.2744392" lon="151.2900641">
  <ele>343.08</ele>
  <time>2026-09-01T19:49:46Z</time>
  <course>11.33</course>
  <speed>0.022360679774997897</speed>
  <fix>3d</fix>
</trkpt>
<trkpt lat="-27.274439" lon="151.290064">
  <ele>343.1</ele>
  <time>2026-09-01T19:49:46Z</time>
  <course>270.0</course>
  <speed>0.0</speed>
  <fix>3d</fix>
</trkpt>
<trkpt lat="-27.2744392" lon="151.2900641">
  <ele>343.08</ele>
  <time>2026-09-01T19:49:46Z</time>
  <course>11.33</course>
  <speed>0.022360679774997897</speed>
  <fix>3d</fix>
</trkpt>
<trkpt lat="-27.274439" lon="151.290064">
  <ele>343.1</ele>
  <time>2026-09-01T19:49:46Z</time>
  <course>270.0</course>
  <speed>0.0</speed>
  <fix>3d</fix>
</trkpt>
<trkpt lat="-27.2744392" lon="151.2900641">
  <ele>343.07</ele>
  <time>2026-09-01T19:49:46Z</time>
  <course>11.33</course>
  <speed>0.022360679774997897</speed>
  <fix>3d</fix>
</trkpt>
<trkpt lat="-27.274439" lon="151.290064">
  <ele>343.1</ele>
  <time>2026-09-01T19:49:46Z</time>
  <course>270.0</course>
  <speed>0.0</speed>
  <fix>3d</fix>
</trkpt>
<trkpt lat="-27.2744392" lon="151.2900641">
  <ele>343.07</ele>
  <time>2026-09-01T19:49:46Z</time>
  <course>11.33</course>
  <speed>0.022360679774997897</speed>
  <fix>3d</fix>
</trkpt>
<trkpt lat="-27.274439" lon="151.290064">
  <ele>343.1</ele>
  <time>2026-09-01T19:49:46Z</time>
  <course>270.0</course>
  <speed>0.0</speed>
  <fix>3d</fix>
</trkpt>
<trkpt lat="-27.2744392" lon="151.2900641">
  <ele>343.07</ele>
  <time>2026-09-01T19:49:46Z</time>
  <course>11.33</course>
  <speed>0.022360679774997897</speed>
  <fix>3d</fix>
</trkpt>
<trkpt lat="-27.274439" lon="151.290064">
  <ele>343.1</ele>
  <time>2026-09-01T19:49:46Z</time>
  <course>270.0</course>
  <speed>0.0</speed>
  <fix>3d</fix>
</trkpt>
<trkpt lat="-27.2744392" lon="151.2900641">
  <ele>343.07</ele>
  <time>2026-09-01T19:49:46Z</time>
  <course>11.33</course>
  <speed>0.022360679774997897</speed>
  <fix>3d</fix>
</trkpt>
<trkpt lat="-27.274439" lon="151.290064">
  <ele>343.1</ele>
  <time>2026-09-01T19:49:46Z</time>
  <course>270.0</course>
  <speed>0.0</speed>
  <fix>3d</fix>
</trkpt>
<trkpt lat="-27.2744392" lon="151.2900641">
  <ele>343.07</ele>
  <time>2026-09-01T19:49:46Z</time>
  <course>11.33</course>
  <speed>0.03605551275463989</speed>
  <fix>3d</fix>
</trkpt>
<trkpt lat="-27.274439" lon="151.290064">
  <ele>343.1</ele>
  <time>2026-09-01T19:49:46Z</time>
  <course>270.0</course>
  <speed>0.0</speed>
  <fix>3d</fix>
</trkpt>
<trkpt lat="-27.2744392" lon="151.2900641">
  <ele>343.07</ele>
  <time>2026-09-01T19:49:46Z</time>
  <course>11.33</course>
  <speed>0.03605551275463989</speed>
  <fix>3d</fix>
</trkpt>
<trkpt lat="-27.274439" lon="151.290064">
  <ele>343.1</ele>
  <time>2026-09-01T19:49:46Z</time>
  <course>270.0</course>
  <speed>0.0</speed>
  <fix>3d</fix>
</trkpt>
<trkpt lat="-27.2744392" lon="151.2900641">
  <ele>343.08</ele>
  <time>2026-09-01T19:49:47Z</time>
  <course>11.33</course>
  <speed>0.03605551275463989</speed>
  <fix>3d</fix>
</trkpt>
<trkpt lat="-27.274439" lon="151.290064">
  <ele>343.1</ele>
  <time>2026-09-01T19:49:47Z</time>
  <course>270.0</course>
  <speed>0.0</speed>
  <fix>3d</fix>
</trkpt>
<trkpt lat="-27.2744392" lon="151.2900641">
  <ele>343.08</ele>
  <time>2026-09-01T19:49:47Z</time>
  <course>11.32</course>
  <speed>0.03605551275463989</speed>
  <fix>3d</fix>
</trkpt>
<trkpt lat="-27.274439" lon="151.290064">
  <ele>343.1</ele>
  <time>2026-09-01T19:49:47Z</time>
  <course>270.0</course>
  <speed>0.0</speed>
  <fix>3d</fix>
</trkpt>
<trkpt lat="-27.2744392" lon="151.2900641">
  <ele>343.08</ele>
  <time>2026-09-01T19:49:47Z</time>
  <course>11.32</course>
  <speed>0.03605551275463989</speed>
  <fix>3d</fix>
</trkpt>
<trkpt lat="-27.274439" lon="151.290064">
  <ele>343.1</ele>
  <time>2026-09-01T19:49:47Z</time>
  <course>270.0</course>
  <speed>0.0</speed>
  <fix>3d</fix>
</trkpt>
<trkpt lat="-27.2744392" lon="151.2900641">
  <ele>343.08</ele>
  <time>2026-09-01T19:49:47Z</time>
  <course>11.32</course>
  <speed>0.03605551275463989</speed>
  <fix>3d</fix>
</trkpt>
<trkpt lat="-27.274439" lon="151.290064">
  <ele>343.1</ele>
  <time>2026-09-01T19:49:47Z</time>
  <course>270.0</course>
  <speed>0.0</speed>
  <fix>3d</fix>
</trkpt>
<trkpt lat="-27.2744392" lon="151.2900641">
  <ele>343.08</ele>
  <time>2026-09-01T19:49:47Z</time>
  <course>11.32</course>
  <speed>0.03605551275463989</speed>
  <fix>3d</fix>
</trkpt>
<trkpt lat="-27.274439" lon="151.290064">
  <ele>343.1</ele>
  <time>2026-09-01T19:49:47Z</time>
  <course>270.0</course>
  <speed>0.0</speed>
  <fix>3d</fix>
</trkpt>
<trkpt lat="-27.2744392" lon="151.2900641">
  <ele>343.08</ele>
  <time>2026-09-01T19:49:47Z</time>
  <course>11.32</course>
  <speed>0.03605551275463989</speed>
  <fix>3d</fix>
</trkpt>
<trkpt lat="-27.274439" lon="151.290064">
  <ele>343.1</ele>
  <time>2026-09-01T19:49:47Z</time>
  <course>270.0</course>
  <speed>0.0</speed>
  <fix>3d</fix>
</trkpt>
<trkpt lat="-27.2744392" lon="151.2900641">
  <ele>343.08</ele>
  <time>2026-09-01T19:49:47Z</time>
  <course>11.32</course>
  <speed>0.03605551275463989</speed>
  <fix>3d</fix>
</trkpt>
<trkpt lat="-27.274439" lon="151.290064">
  <ele>343.1</ele>
  <time>2026-09-01T19:49:47Z</time>
  <course>270.0</course>
  <speed>0.0</speed>
  <fix>3d</fix>
</trkpt>
<trkpt lat="-27.2744392" lon="151.2900641">
  <ele>343.08</ele>
  <time>2026-09-01T19:49:47Z</time>
  <course>11.32</course>
  <speed>0.03605551275463989</speed>
  <fix>3d</fix>
</trkpt>
<trkpt lat="-27.274439" lon="151.290064">
  <ele>343.1</ele>
  <time>2026-09-01T19:49:47Z</time>
  <course>270.0</course>
  <speed>0.0</speed>
  <fix>3d</fix>
</trkpt>
<trkpt lat="-27.2744392" lon="151.2900641">
  <ele>343.08</ele>
  <time>2026-09-01T19:49:47Z</time>
  <course>11.32</course>
  <speed>0.03605551275463989</speed>
  <fix>3d</fix>
</trkpt>
<trkpt lat="-27.274439" lon="151.290064">
  <ele>343.1</ele>
  <time>2026-09-01T19:49:47Z</time>
  <course>270.0</course>
  <speed>0.0</speed>
  <fix>3d</fix>
</trkpt>
<trkpt lat="-27.2744392" lon="151.2900641">
  <ele>343.08</ele>
  <time>2026-09-01T19:49:47Z</time>
  <course>11.32</course>
  <speed>0.03605551275463989</speed>
  <fix>3d</fix>
</trkpt>
<trkpt lat="-27.274439" lon="151.290064">
  <ele>343.1</ele>
  <time>2026-09-01T19:49:47Z</time>
  <course>270.0</course>
  <speed>0.0</speed>
  <fix>3d</fix>
</trkpt>
<trkpt lat="-27.2744392" lon="151.2900641">
  <ele>343.08</ele>
  <time>2026-09-01T19:49:47Z</time>
  <course>11.32</course>
  <speed>0.03605551275463989</speed>
  <fix>3d</fix>
</trkpt>
<trkpt lat="-27.274439" lon="151.290064">
  <ele>343.1</ele>
  <time>2026-09-01T19:49:47Z</time>
  <course>270.0</course>
  <speed>0.0</speed>
  <fix>3d</fix>
</trkpt>
<trkpt lat="-27.2744392" lon="151.2900641">
  <ele>343.08</ele>
  <time>2026-09-01T19:49:47Z</time>
  <course>11.32</course>
  <speed>0.03605551275463989</speed>
  <fix>3d</fix>
</trkpt>
<trkpt lat="-27.274439" lon="151.290064">
  <ele>343.1</ele>
  <time>2026-09-01T19:49:47Z</time>
  <course>270.0</course>
  <speed>0.0</speed>
  <fix>3d</fix>
</trkpt>
<trkpt lat="-27.2744392" lon="151.2900641">
  <ele>343.08</ele>
  <time>2026-09-01T19:49:47Z</time>
  <course>11.32</course>
  <speed>0.03605551275463989</speed>
  <fix>3d</fix>
</trkpt>
<trkpt lat="-27.274439" lon="151.290064">
  <ele>343.1</ele>
  <time>2026-09-01T19:49:47Z</time>
  <course>270.0</course>
  <speed>0.0</speed>
  <fix>3d</fix>
</trkpt>
<trkpt lat="-27.2744392" lon="151.2900641">
  <ele>343.08</ele>
  <time>2026-09-01T19:49:47Z</time>
  <course>11.32</course>
  <speed>0.03605551275463989</speed>
  <fix>3d</fix>
</trkpt>
<trkpt lat="-27.274439" lon="151.290064">
  <ele>343.1</ele>
  <time>2026-09-01T19:49:47Z</time>
  <course>270.0</course>
  <speed>0.0</speed>
  <fix>3d</fix>
</trkpt>
<trkpt lat="-27.2744392" lon="151.2900641">
  <ele>343.08</ele>
  <time>2026-09-01T19:49:47Z</time>
  <course>11.32</course>
  <speed>0.03605551275463989</speed>
  <fix>3d</fix>
</trkpt>
<trkpt lat="-27.274439" lon="151.290064">
  <ele>343.1</ele>
  <time>2026-09-01T19:49:47Z</time>
  <course>270.0</course>
  <speed>0.0</speed>
  <fix>3d</fix>
</trkpt>
<trkpt lat="-27.2744392" lon="151.2900641">
  <ele>343.08</ele>
  <time>2026-09-01T19:49:47Z</time>
  <course>11.32</course>
  <speed>0.03605551275463989</speed>
  <fix>3d</fix>
</trkpt>
<trkpt lat="-27.274439" lon="151.290064">
  <ele>343.1</ele>
  <time>2026-09-01T19:49:47Z</time>
  <course>270.0</course>
  <speed>0.0</speed>
  <fix>3d</fix>
</trkpt>
<trkpt lat="-27.2744392" lon="151.2900641">
  <ele>343.08</ele>
  <time>2026-09-01T19:49:47Z</time>
  <course>11.32</course>
  <speed>0.03605551275463989</speed>
  <fix>3d</fix>
</trkpt>
<trkpt lat="-27.274439" lon="151.290064">
  <ele>343.1</ele>
  <time>2026-09-01T19:49:47Z</time>
  <course>270.0</course>
  <speed>0.0</speed>
  <fix>3d</fix>
</trkpt>
<trkpt lat="-27.2744392" lon="151.2900641">
  <ele>343.08</ele>
  <time>2026-09-01T19:49:47Z</time>
  <course>11.32</course>
  <speed>0.03605551275463989</speed>
  <fix>3d</fix>
</trkpt>
<trkpt lat="-27.274439" lon="151.290064">
  <ele>343.1</ele>
  <time>2026-09-01T19:49:47Z</time>
  <course>270.0</course>
  <speed>0.0</speed>
  <fix>3d</fix>
</trkpt>
<trkpt lat="-27.2744392" lon="151.2900641">
  <ele>343.08</ele>
  <time>2026-09-01T19:49:47Z</time>
  <course>11.32</course>
  <speed>0.03605551275463989</speed>
  <fix>3d</fix>
</trkpt>
<trkpt lat="-27.274439" lon="151.290064">
  <ele>343.1</ele>
  <time>2026-09-01T19:49:47Z</time>
  <course>270.0</course>
  <speed>0.0</speed>
  <fix>3d</fix>
</trkpt>
<trkpt lat="-27.2744392" lon="151.2900641">
  <ele>343.08</ele>
  <time>2026-09-01T19:49:47Z</time>
  <course>11.32</course>
  <speed>0.03605551275463989</speed>
  <fix>3d</fix>
</trkpt>
<trkpt lat="-27.274439" lon="151.290064">
  <ele>343.1</ele>
  <time>2026-09-01T19:49:47Z</time>
  <course>270.0</course>
  <speed>0.0</speed>
  <fix>3d</fix>
</trkpt>
<trkpt lat="-27.2744392" lon="151.2900642">
  <ele>343.08</ele>
  <time>2026-09-01T19:49:47Z</time>
  <course>11.32</course>
  <speed>0.03605551275463989</speed>
  <fix>3d</fix>
</trkpt>
<trkpt lat="-27.274439" lon="151.290064">
  <ele>343.1</ele>
  <time>2026-09-01T19:49:47Z</time>
  <course>270.0</course>
  <speed>0.0</speed>
  <fix>3d</fix>
</trkpt>
<trkpt lat="-27.2744392" lon="151.2900641">
  <ele>343.08</ele>
  <time>2026-09-01T19:49:47Z</time>
  <course>11.32</course>
  <speed>0.03605551275463989</speed>
  <fix>3d</fix>
</trkpt>
<trkpt lat="-27.274439" lon="151.290064">
  <ele>343.1</ele>
  <time>2026-09-01T19:49:47Z</time>
  <course>270.0</course>
  <speed>0.0</speed>
  <fix>3d</fix>
</trkpt>
<trkpt lat="-27.2744392" lon="151.2900642">
  <ele>343.08</ele>
  <time>2026-09-01T19:49:47Z</time>
  <course>11.32</course>
  <speed>0.03605551275463989</speed>
  <fix>3d</fix>
</trkpt>
<trkpt lat="-27.274439" lon="151.290064">
  <ele>343.1</ele>
  <time>2026-09-01T19:49:47Z</time>
  <course>270.0</course>
  <speed>0.0</speed>
  <fix>3d</fix>
</trkpt>
<trkpt lat="-27.2744392" lon="151.2900641">
  <ele>343.08</ele>
  <time>2026-09-01T19:49:47Z</time>
  <course>11.32</course>
  <speed>0.03605551275463989</speed>
  <fix>3d</fix>
</trkpt>
<trkpt lat="-27.274439" lon="151.290064">
  <ele>343.1</ele>
  <time>2026-09-01T19:49:47Z</time>
  <course>270.0</course>
  <speed>0.0</speed>
  <fix>3d</fix>
</trkpt>
<trkpt lat="-27.2744392" lon="151.2900642">
  <ele>343.08</ele>
  <time>2026-09-01T19:49:47Z</time>
  <course>11.32</course>
  <speed>0.03605551275463989</speed>
  <fix>3d</fix>
</trkpt>
<trkpt lat="-27.274439" lon="151.290064">
  <ele>343.1</ele>
  <time>2026-09-01T19:49:47Z</time>
  <course>270.0</course>
  <speed>0.0</speed>
  <fix>3d</fix>
</trkpt>
<trkpt lat="-27.2744392" lon="151.2900641">
  <ele>343.07</ele>
  <time>2026-09-01T19:49:47Z</time>
  <course>11.32</course>
  <speed>0.03605551275463989</speed>
  <fix>3d</fix>
</trkpt>
<trkpt lat="-27.274439" lon="151.290064">
  <ele>343.1</ele>
  <time>2026-09-01T19:49:47Z</time>
  <course>270.0</course>
  <speed>0.0</speed>
  <fix>3d</fix>
</trkpt>
<trkpt lat="-27.2744392" lon="151.2900642">
  <ele>343.07</ele>
  <time>2026-09-01T19:49:47Z</time>
  <course>11.32</course>
  <speed>0.03605551275463989</speed>
  <fix>3d</fix>
</trkpt>
<trkpt lat="-27.274439" lon="151.290064">
  <ele>343.1</ele>
  <time>2026-09-01T19:49:47Z</time>
  <course>270.0</course>
  <speed>0.0</speed>
  <fix>3d</fix>
</trkpt>
<trkpt lat="-27.2744392" lon="151.2900641">
  <ele>343.07</ele>
  <time>2026-09-01T19:49:47Z</time>
  <course>11.32</course>
  <speed>0.03605551275463989</speed>
  <fix>3d</fix>
</trkpt>
<trkpt lat="-27.274439" lon="151.290064">
  <ele>343.1</ele>
  <time>2026-09-01T19:49:47Z</time>
  <course>270.0</course>
  <speed>0.0</speed>
  <fix>3d</fix>
</trkpt>
<trkpt lat="-27.2744392" lon="151.2900642">
  <ele>343.07</ele>
  <time>2026-09-01T19:49:47Z</time>
  <course>11.32</course>
  <speed>0.03605551275463989</speed>
  <fix>3d</fix>
</trkpt>
<trkpt lat="-27.274439" lon="151.290064">
  <ele>343.1</ele>
  <time>2026-09-01T19:49:47Z</time>
  <course>270.0</course>
  <speed>0.0</speed>
  <fix>3d</fix>
</trkpt>
<trkpt lat="-27.2744392" lon="151.2900641">
  <ele>343.07</ele>
  <time>2026-09-01T19:49:47Z</time>
  <course>11.32</course>
  <speed>0.03605551275463989</speed>
  <fix>3d</fix>
</trkpt>
<trkpt lat="-27.274439" lon="151.290064">
  <ele>343.1</ele>
  <time>2026-09-01T19:49:47Z</time>
  <course>270.0</course>
  <speed>0.0</speed>
  <fix>3d</fix>
</trkpt>
<trkpt lat="-27.2744392" lon="151.2900642">
  <ele>343.07</ele>
  <time>2026-09-01T19:49:47Z</time>
  <course>11.32</course>
  <speed>0.03605551275463989</speed>
  <fix>3d</fix>
</trkpt>
<trkpt lat="-27.274439" lon="151.290064">
  <ele>343.1</ele>
  <time>2026-09-01T19:49:47Z</time>
  <course>270.0</course>
  <speed>0.0</speed>
  <fix>3d</fix>
</trkpt>
<trkpt lat="-27.2744392" lon="151.2900641">
  <ele>343.07</ele>
  <time>2026-09-01T19:49:47Z</time>
  <course>11.32</course>
  <speed>0.03605551275463989</speed>
  <fix>3d</fix>
</trkpt>
<trkpt lat="-27.274439" lon="151.290064">
  <ele>343.1</ele>
  <time>2026-09-01T19:49:47Z</time>
  <course>270.0</course>
  <speed>0.0</speed>
  <fix>3d</fix>
</trkpt>
<trkpt lat="-27.2744392" lon="151.2900642">
  <ele>343.07</ele>
  <time>2026-09-01T19:49:47Z</time>
  <course>11.32</course>
  <speed>0.03605551275463989</speed>
  <fix>3d</fix>
</trkpt>
<trkpt lat="-27.274439" lon="151.290064">
  <ele>343.1</ele>
  <time>2026-09-01T19:49:47Z</time>
  <course>270.0</course>
  <speed>0.0</speed>
  <fix>3d</fix>
</trkpt>
<trkpt lat="-27.2744392" lon="151.2900641">
  <ele>343.07</ele>
  <time>2026-09-01T19:49:47Z</time>
  <course>11.32</course>
  <speed>0.03605551275463989</speed>
  <fix>3d</fix>
</trkpt>
<trkpt lat="-27.274439" lon="151.290064">
  <ele>343.1</ele>
  <time>2026-09-01T19:49:47Z</time>
  <course>270.0</course>
  <speed>0.0</speed>
  <fix>3d</fix>
</trkpt>
<trkpt lat="-27.2744392" lon="151.2900642">
  <ele>343.07</ele>
  <time>2026-09-01T19:49:47Z</time>
  <course>11.32</course>
  <speed>0.03605551275463989</speed>
  <fix>3d</fix>
</trkpt>
<trkpt lat="-27.274439" lon="151.290064">
  <ele>343.1</ele>
  <time>2026-09-01T19:49:47Z</time>
  <course>270.0</course>
  <speed>0.0</speed>
  <fix>3d</fix>
</trkpt>
<trkpt lat="-27.2744392" lon="151.2900641">
  <ele>343.07</ele>
  <time>2026-09-01T19:49:47Z</time>
  <course>11.32</course>
  <speed>0.03605551275463989</speed>
  <fix>3d</fix>
</trkpt>
<trkpt lat="-27.274439" lon="151.290064">
  <ele>343.1</ele>
  <time>2026-09-01T19:49:47Z</time>
  <course>270.0</course>
  <speed>0.0</speed>
  <fix>3d</fix>
</trkpt>
<trkpt lat="-27.2744392" lon="151.2900642">
  <ele>343.07</ele>
  <time>2026-09-01T19:49:47Z</time>
  <course>11.32</course>
  <speed>0.03605551275463989</speed>
  <fix>3d</fix>
</trkpt>
<trkpt lat="-27.274439" lon="151.290064">
  <ele>343.1</ele>
  <time>2026-09-01T19:49:47Z</time>
  <course>270.0</course>
  <speed>0.0</speed>
  <fix>3d</fix>
</trkpt>
<trkpt lat="-27.2744392" lon="151.2900641">
  <ele>343.07</ele>
  <time>2026-09-01T19:49:47Z</time>
  <course>11.32</course>
  <speed>0.03605551275463989</speed>
  <fix>3d</fix>
</trkpt>
<trkpt lat="-27.274439" lon="151.290064">
  <ele>343.1</ele>
  <time>2026-09-01T19:49:47Z</time>
  <course>270.0</course>
  <speed>0.0</speed>
  <fix>3d</fix>
</trkpt>
<trkpt lat="-27.2744392" lon="151.2900642">
  <ele>343.08</ele>
  <time>2026-09-01T19:49:47Z</time>
  <course>11.32</course>
  <speed>0.03605551275463989</speed>
  <fix>3d</fix>
</trkpt>
<trkpt lat="-27.274439" lon="151.290064">
  <ele>343.1</ele>
  <time>2026-09-01T19:49:47Z</time>
  <course>270.0</course>
  <speed>0.0</speed>
  <fix>3d</fix>
</trkpt>
<trkpt lat="-27.2744392" lon="151.2900641">
  <ele>343.08</ele>
  <time>2026-09-01T19:49:47Z</time>
  <course>11.32</course>
  <speed>0.03605551275463989</speed>
  <fix>3d</fix>
</trkpt>
<trkpt lat="-27.274439" lon="151.290064">
  <ele>343.1</ele>
  <time>2026-09-01T19:49:47Z</time>
  <course>270.0</course>
  <speed>0.0</speed>
  <fix>3d</fix>
</trkpt>
<trkpt lat="-27.2744392" lon="151.2900642">
  <ele>343.08</ele>
  <time>2026-09-01T19:49:47Z</time>
  <course>11.32</course>
  <speed>0.03605551275463989</speed>
  <fix>3d</fix>
</trkpt>
<trkpt lat="-27.274439" lon="151.290064">
  <ele>343.1</ele>
  <time>2026-09-01T19:49:47Z</time>
  <course>270.0</course>
  <speed>0.0</speed>
  <fix>3d</fix>
</trkpt>
<trkpt lat="-27.2744392" lon="151.2900641">
  <ele>343.07</ele>
  <time>2026-09-01T19:49:47Z</time>
  <course>11.32</course>
  <speed>0.03605551275463989</speed>
  <fix>3d</fix>
</trkpt>
<trkpt lat="-27.274439" lon="151.290064">
  <ele>343.1</ele>
  <time>2026-09-01T19:49:47Z</time>
  <course>270.0</course>
  <speed>0.0</speed>
  <fix>3d</fix>
</trkpt>
<trkpt lat="-27.2744392" lon="151.2900641">
  <ele>343.07</ele>
  <time>2026-09-01T19:49:47Z</time>
  <course>11.32</course>
  <speed>0.03605551275463989</speed>
  <fix>3d</fix>
</trkpt>
<trkpt lat="-27.274439" lon="151.290064">
  <ele>343.1</ele>
  <time>2026-09-01T19:49:47Z</time>
  <course>270.0</course>
  <speed>0.0</speed>
  <fix>3d</fix>
</trkpt>
<trkpt lat="-27.2744392" lon="151.2900641">
  <ele>343.07</ele>
  <time>2026-09-01T19:49:47Z</time>
  <course>11.32</course>
  <speed>0.03605551275463989</speed>
  <fix>3d</fix>
</trkpt>
<trkpt lat="-27.274439" lon="151.290064">
  <ele>343.1</ele>
  <time>2026-09-01T19:49:47Z</time>
  <course>270.0</course>
  <speed>0.0</speed>
  <fix>3d</fix>
</trkpt>
<trkpt lat="-27.2744392" lon="151.2900641">
  <ele>343.07</ele>
  <time>2026-09-01T19:49:47Z</time>
  <course>11.32</course>
  <speed>0.03605551275463989</speed>
  <fix>3d</fix>
</trkpt>
<trkpt lat="-27.274439" lon="151.290064">
  <ele>343.1</ele>
  <time>2026-09-01T19:49:47Z</time>
  <course>270.0</course>
  <speed>0.0</speed>
  <fix>3d</fix>
</trkpt>
<trkpt lat="-27.2744392" lon="151.2900641">
  <ele>343.07</ele>
  <time>2026-09-01T19:49:47Z</time>
  <course>11.32</course>
  <speed>0.03605551275463989</speed>
  <fix>3d</fix>
</trkpt>
<trkpt lat="-27.274439" lon="151.290064">
  <ele>343.1</ele>
  <time>2026-09-01T19:49:47Z</time>
  <course>270.0</course>
  <speed>0.0</speed>
  <fix>3d</fix>
</trkpt>
<trkpt lat="-27.2744392" lon="151.2900641">
  <ele>343.07</ele>
  <time>2026-09-01T19:49:47Z</time>
  <course>11.32</course>
  <speed>0.03605551275463989</speed>
  <fix>3d</fix>
</trkpt>
<trkpt lat="-27.274439" lon="151.290064">
  <ele>343.1</ele>
  <time>2026-09-01T19:49:47Z</time>
  <course>270.0</course>
  <speed>0.0</speed>
  <fix>3d</fix>
</trkpt>
<trkpt lat="-27.2744392" lon="151.2900641">
  <ele>343.07</ele>
  <time>2026-09-01T19:49:47Z</time>
  <course>11.32</course>
  <speed>0.0316227766016838</speed>
  <fix>3d</fix>
</trkpt>
<trkpt lat="-27.274439" lon="151.290064">
  <ele>343.1</ele>
  <time>2026-09-01T19:49:47Z</time>
  <course>270.0</course>
  <speed>0.0</speed>
  <fix>3d</fix>
</trkpt>
<trkpt lat="-27.2744392" lon="151.2900641">
  <ele>343.07</ele>
  <time>2026-09-01T19:49:47Z</time>
  <course>11.32</course>
  <speed>0.03605551275463989</speed>
  <fix>3d</fix>
</trkpt>
<trkpt lat="-27.274439" lon="151.290064">
  <ele>343.1</ele>
  <time>2026-09-01T19:49:47Z</time>
  <course>270.0</course>
  <speed>0.0</speed>
  <fix>3d</fix>
</trkpt>
<trkpt lat="-27.2744392" lon="151.2900641">
  <ele>343.07</ele>
  <time>2026-09-01T19:49:47Z</time>
  <course>11.32</course>
  <speed>0.022360679774997897</speed>
  <fix>3d</fix>
</trkpt>
<trkpt lat="-27.274439" lon="151.290064">
  <ele>343.1</ele>
  <time>2026-09-01T19:49:47Z</time>
  <course>270.0</course>
  <speed>0.0</speed>
  <fix>3d</fix>
</trkpt>
<trkpt lat="-27.2744392" lon="151.2900641">
  <ele>343.07</ele>
  <time>2026-09-01T19:49:47Z</time>
  <course>11.32</course>
  <speed>0.03605551275463989</speed>
  <fix>3d</fix>
</trkpt>
<trkpt lat="-27.274439" lon="151.290064">
  <ele>343.1</ele>
  <time>2026-09-01T19:49:47Z</time>
  <course>270.0</course>
  <speed>0.0</speed>
  <fix>3d</fix>
</trkpt>
<trkpt lat="-27.2744392" lon="151.2900641">
  <ele>343.07</ele>
  <time>2026-09-01T19:49:47Z</time>
  <course>11.32</course>
  <speed>0.022360679774997897</speed>
  <fix>3d</fix>
</trkpt>
<trkpt lat="-27.274439" lon="151.290064">
  <ele>343.1</ele>
  <time>2026-09-01T19:49:47Z</time>
  <course>270.0</course>
  <speed>0.0</speed>
  <fix>3d</fix>
</trkpt>
<trkpt lat="-27.2744392" lon="151.2900641">
  <ele>343.07</ele>
  <time>2026-09-01T19:49:47Z</time>
  <course>11.32</course>
  <speed>0.0316227766016838</speed>
  <fix>3d</fix>
</trkpt>
<trkpt lat="-27.274439" lon="151.290064">
  <ele>343.1</ele>
  <time>2026-09-01T19:49:47Z</time>
  <course>270.0</course>
  <speed>0.0</speed>
  <fix>3d</fix>
</trkpt>
<trkpt lat="-27.2744392" lon="151.2900641">
  <ele>343.07</ele>
  <time>2026-09-01T19:49:47Z</time>
  <course>11.32</course>
  <speed>0.022360679774997897</speed>
  <fix>3d</fix>
</trkpt>
<trkpt lat="-27.274439" lon="151.290064">
  <ele>343.1</ele>
  <time>2026-09-01T19:49:47Z</time>
  <course>270.0</course>
  <speed>0.0</speed>
  <fix>3d</fix>
</trkpt>
<trkpt lat="-27.2744392" lon="151.2900641">
  <ele>343.07</ele>
  <time>2026-09-01T19:49:47Z</time>
  <course>11.32</course>
  <speed>0.0316227766016838</speed>
  <fix>3d</fix>
</trkpt>
<trkpt lat="-27.274439" lon="151.290064">
  <ele>343.1</ele>
  <time>2026-09-01T19:49:47Z</time>
  <course>270.0</course>
  <speed>0.0</speed>
  <fix>3d</fix>
</trkpt>
<trkpt lat="-27.2744392" lon="151.2900641">
  <ele>343.07</ele>
  <time>2026-09-01T19:49:47Z</time>
  <course>11.32</course>
  <speed>0.022360679774997897</speed>
  <fix>3d</fix>
</trkpt>
<trkpt lat="-27.274439" lon="151.290064">
  <ele>343.1</ele>
  <time>2026-09-01T19:49:47Z</time>
  <course>270.0</course>
  <speed>0.0</speed>
  <fix>3d</fix>
</trkpt>
<trkpt lat="-27.2744392" lon="151.2900641">
  <ele>343.07</ele>
  <time>2026-09-01T19:49:47Z</time>
  <course>11.32</course>
  <speed>0.022360679774997897</speed>
  <fix>3d</fix>
</trkpt>
<trkpt lat="-27.274439" lon="151.290064">
  <ele>343.1</ele>
  <time>2026-09-01T19:49:47Z</time>
  <course>270.0</course>
  <speed>0.0</speed>
  <fix>3d</fix>
</trkpt>
<trkpt lat="-27.2744392" lon="151.2900641">
  <ele>343.06</ele>
  <time>2026-09-01T19:49:47Z</time>
  <course>11.32</course>
  <speed>0.022360679774997897</speed>
  <fix>3d</fix>
</trkpt>
<trkpt lat="-27.274439" lon="151.290064">
  <ele>343.1</ele>
  <time>2026-09-01T19:49:47Z</time>
  <course>270.0</course>
  <speed>0.0</speed>
  <fix>3d</fix>
</trkpt>
<trkpt lat="-27.2744392" lon="151.2900641">
  <ele>343.06</ele>
  <time>2026-09-01T19:49:47Z</time>
  <course>11.32</course>
  <speed>0.022360679774997897</speed>
  <fix>3d</fix>
</trkpt>
<trkpt lat="-27.274439" lon="151.290064">
  <ele>343.1</ele>
  <time>2026-09-01T19:49:47Z</time>
  <course>270.0</course>
  <speed>0.0</speed>
  <fix>3d</fix>
</trkpt>
<trkpt lat="-27.2744392" lon="151.2900641">
  <ele>343.06</ele>
  <time>2026-09-01T19:49:47Z</time>
  <course>11.32</course>
  <speed>0.022360679774997897</speed>
  <fix>3d</fix>
</trkpt>
<trkpt lat="-27.274439" lon="151.290064">
  <ele>343.1</ele>
  <time>2026-09-01T19:49:47Z</time>
  <course>270.0</course>
  <speed>0.0</speed>
  <fix>3d</fix>
</trkpt>
<trkpt lat="-27.2744392" lon="151.2900641">
  <ele>343.06</ele>
  <time>2026-09-01T19:49:47Z</time>
  <course>11.32</course>
  <speed>0.022360679774997897</speed>
  <fix>3d</fix>
</trkpt>
<trkpt lat="-27.274439" lon="151.290064">
  <ele>343.1</ele>
  <time>2026-09-01T19:49:47Z</time>
  <course>270.0</course>
  <speed>0.0</speed>
  <fix>3d</fix>
</trkpt>
<trkpt lat="-27.2744392" lon="151.2900641">
  <ele>343.06</ele>
  <time>2026-09-01T19:49:47Z</time>
  <course>11.32</course>
  <speed>0.022360679774997897</speed>
  <fix>3d</fix>
</trkpt>
<trkpt lat="-27.274439" lon="151.290064">
  <ele>343.1</ele>
  <time>2026-09-01T19:49:47Z</time>
  <course>270.0</course>
  <speed>0.0</speed>
  <fix>3d</fix>
</trkpt>
<trkpt lat="-27.2744392" lon="151.2900641">
  <ele>343.06</ele>
  <time>2026-09-01T19:49:47Z</time>
  <course>11.32</course>
  <speed>0.022360679774997897</speed>
  <fix>3d</fix>
</trkpt>
<trkpt lat="-27.274439" lon="151.290064">
  <ele>343.1</ele>
  <time>2026-09-01T19:49:47Z</time>
  <course>270.0</course>
  <speed>0.0</speed>
  <fix>3d</fix>
</trkpt>
<trkpt lat="-27.2744392" lon="151.2900641">
  <ele>343.06</ele>
  <time>2026-09-01T19:49:47Z</time>
  <course>11.32</course>
  <speed>0.022360679774997897</speed>
  <fix>3d</fix>
</trkpt>
<trkpt lat="-27.274439" lon="151.290064">
  <ele>343.1</ele>
  <time>2026-09-01T19:49:47Z</time>
  <course>270.0</course>
  <speed>0.0</speed>
  <fix>3d</fix>
</trkpt>
<trkpt lat="-27.2744392" lon="151.2900641">
  <ele>343.06</ele>
  <time>2026-09-01T19:49:47Z</time>
  <course>11.32</course>
  <speed>0.022360679774997897</speed>
  <fix>3d</fix>
</trkpt>
<trkpt lat="-27.274439" lon="151.290064">
  <ele>343.1</ele>
  <time>2026-09-01T19:49:47Z</time>
  <course>270.0</course>
  <speed>0.0</speed>
  <fix>3d</fix>
</trkpt>
<trkpt lat="-27.2744392" lon="151.2900641">
  <ele>343.07</ele>
  <time>2026-09-01T19:49:47Z</time>
  <course>11.32</course>
  <speed>0.022360679774997897</speed>
  <fix>3d</fix>
</trkpt>
<trkpt lat="-27.274439" lon="151.290064">
  <ele>343.1</ele>
  <time>2026-09-01T19:49:47Z</time>
  <course>270.0</course>
  <speed>0.0</speed>
  <fix>3d</fix>
</trkpt>
<trkpt lat="-27.2744392" lon="151.2900641">
  <ele>343.07</ele>
  <time>2026-09-01T19:49:47Z</time>
  <course>11.31</course>
  <speed>0.022360679774997897</speed>
  <fix>3d</fix>
</trkpt>
<trkpt lat="-27.274439" lon="151.290064">
  <ele>343.1</ele>
  <time>2026-09-01T19:49:47Z</time>
  <course>270.0</course>
  <speed>0.0</speed>
  <fix>3d</fix>
</trkpt>
<trkpt lat="-27.2744392" lon="151.2900641">
  <ele>343.07</ele>
  <time>2026-09-01T19:49:47Z</time>
  <course>11.31</course>
  <speed>0.022360679774997897</speed>
  <fix>3d</fix>
</trkpt>
<trkpt lat="-27.274439" lon="151.290064">
  <ele>343.1</ele>
  <time>2026-09-01T19:49:47Z</time>
  <course>270.0</course>
  <speed>0.0</speed>
  <fix>3d</fix>
</trkpt>
<trkpt lat="-27.2744392" lon="151.2900641">
  <ele>343.07</ele>
  <time>2026-09-01T19:49:47Z</time>
  <course>11.31</course>
  <speed>0.022360679774997897</speed>
  <fix>3d</fix>
</trkpt>
<trkpt lat="-27.274439" lon="151.290064">
  <ele>343.1</ele>
  <time>2026-09-01T19:49:47Z</time>
  <course>270.0</course>
  <speed>0.0</speed>
  <fix>3d</fix>
</trkpt>
<trkpt lat="-27.2744392" lon="151.2900641">
  <ele>343.07</ele>
  <time>2026-09-01T19:49:47Z</time>
  <course>11.32</course>
  <speed>0.022360679774997897</speed>
  <fix>3d</fix>
</trkpt>
<trkpt lat="-27.274439" lon="151.290064">
  <ele>343.1</ele>
  <time>2026-09-01T19:49:47Z</time>
  <course>270.0</course>
  <speed>0.0</speed>
  <fix>3d</fix>
</trkpt>
<trkpt lat="-27.2744392" lon="151.2900641">
  <ele>343.07</ele>
  <time>2026-09-01T19:49:47Z</time>
  <course>11.31</course>
  <speed>0.022360679774997897</speed>
  <fix>3d</fix>
</trkpt>
<trkpt lat="-27.274439" lon="151.290064">
  <ele>343.1</ele>
  <time>2026-09-01T19:49:47Z</time>
  <course>270.0</course>
  <speed>0.0</speed>
  <fix>3d</fix>
</trkpt>
<trkpt lat="-27.2744392" lon="151.2900641">
  <ele>343.08</ele>
  <time>2026-09-01T19:49:47Z</time>
  <course>11.31</course>
  <speed>0.022360679774997897</speed>
  <fix>3d</fix>
</trkpt>
<trkpt lat="-27.274439" lon="151.290064">
  <ele>343.1</ele>
  <time>2026-09-01T19:49:47Z</time>
  <course>270.0</course>
  <speed>0.0</speed>
  <fix>3d</fix>
</trkpt>
<trkpt lat="-27.2744392" lon="151.2900641">
  <ele>343.08</ele>
  <time>2026-09-01T19:49:47Z</time>
  <course>11.31</course>
  <speed>0.022360679774997897</speed>
  <fix>3d</fix>
</trkpt>
<trkpt lat="-27.274439" lon="151.290064">
  <ele>343.1</ele>
  <time>2026-09-01T19:49:47Z</time>
  <course>270.0</course>
  <speed>0.0</speed>
  <fix>3d</fix>
</trkpt>
<trkpt lat="-27.2744392" lon="151.2900641">
  <ele>343.08</ele>
  <time>2026-09-01T19:49:47Z</time>
  <course>11.31</course>
  <speed>0.022360679774997897</speed>
  <fix>3d</fix>
</trkpt>
<trkpt lat="-27.274439" lon="151.290064">
  <ele>343.1</ele>
  <time>2026-09-01T19:49:47Z</time>
  <course>270.0</course>
  <speed>0.0</speed>
  <fix>3d</fix>
</trkpt>
<trkpt lat="-27.2744392" lon="151.2900641">
  <ele>343.08</ele>
  <time>2026-09-01T19:49:47Z</time>
  <course>11.31</course>
  <speed>0.022360679774997897</speed>
  <fix>3d</fix>
</trkpt>
<trkpt lat="-27.274439" lon="151.290064">
  <ele>343.1</ele>
  <time>2026-09-01T19:49:47Z</time>
  <course>270.0</course>
  <speed>0.0</speed>
  <fix>3d</fix>
</trkpt>
<trkpt lat="-27.2744392" lon="151.2900641">
  <ele>343.08</ele>
  <time>2026-09-01T19:49:47Z</time>
  <course>11.31</course>
  <speed>0.022360679774997897</speed>
  <fix>3d</fix>
</trkpt>
<trkpt lat="-27.274439" lon="151.290064">
  <ele>343.1</ele>
  <time>2026-09-01T19:49:47Z</time>
  <course>270.0</course>
  <speed>0.0</speed>
  <fix>3d</fix>
</trkpt>
<trkpt lat="-27.2744392" lon="151.2900641">
  <ele>343.08</ele>
  <time>2026-09-01T19:49:47Z</time>
  <course>11.31</course>
  <speed>0.022360679774997897</speed>
  <fix>3d</fix>
</trkpt>
<trkpt lat="-27.274439" lon="151.290064">
  <ele>343.1</ele>
  <time>2026-09-01T19:49:47Z</time>
  <course>270.0</course>
  <speed>0.0</speed>
  <fix>3d</fix>
</trkpt>
<trkpt lat="-27.2744392" lon="151.2900641">
  <ele>343.08</ele>
  <time>2026-09-01T19:49:47Z</time>
  <course>11.31</course>
  <speed>0.022360679774997897</speed>
  <fix>3d</fix>
</trkpt>
<trkpt lat="-27.274439" lon="151.290064">
  <ele>343.1</ele>
  <time>2026-09-01T19:49:47Z</time>
  <course>270.0</course>
  <speed>0.0</speed>
  <fix>3d</fix>
</trkpt>
<trkpt lat="-27.2744392" lon="151.2900641">
  <ele>343.08</ele>
  <time>2026-09-01T19:49:47Z</time>
  <course>11.31</course>
  <speed>0.022360679774997897</speed>
  <fix>3d</fix>
</trkpt>
<trkpt lat="-27.274439" lon="151.290064">
  <ele>343.1</ele>
  <time>2026-09-01T19:49:47Z</time>
  <course>270.0</course>
  <speed>0.0</speed>
  <fix>3d</fix>
</trkpt>
<trkpt lat="-27.2744392" lon="151.2900641">
  <ele>343.09</ele>
  <time>2026-09-01T19:49:47Z</time>
  <course>11.31</course>
  <speed>0.022360679774997897</speed>
  <fix>3d</fix>
</trkpt>
<trkpt lat="-27.274439" lon="151.290064">
  <ele>343.1</ele>
  <time>2026-09-01T19:49:47Z</time>
  <course>270.0</course>
  <speed>0.0</speed>
  <fix>3d</fix>
</trkpt>
<trkpt lat="-27.2744392" lon="151.2900641">
  <ele>343.09</ele>
  <time>2026-09-01T19:49:47Z</time>
  <course>11.31</course>
  <speed>0.022360679774997897</speed>
  <fix>3d</fix>
</trkpt>
<trkpt lat="-27.274439" lon="151.290064">
  <ele>343.1</ele>
  <time>2026-09-01T19:49:47Z</time>
  <course>270.0</course>
  <speed>0.0</speed>
  <fix>3d</fix>
</trkpt>
<trkpt lat="-27.2744392" lon="151.2900641">
  <ele>343.09</ele>
  <time>2026-09-01T19:49:47Z</time>
  <course>11.31</course>
  <speed>0.022360679774997897</speed>
  <fix>3d</fix>
</trkpt>
<trkpt lat="-27.274439" lon="151.290064">
  <ele>343.1</ele>
  <time>2026-09-01T19:49:47Z</time>
  <course>270.0</course>
  <speed>0.0</speed>
  <fix>3d</fix>
</trkpt>
<trkpt lat="-27.2744392" lon="151.2900641">
  <ele>343.09</ele>
  <time>2026-09-01T19:49:47Z</time>
  <course>11.31</course>
  <speed>0.022360679774997897</speed>
  <fix>3d</fix>
</trkpt>
<trkpt lat="-27.274439" lon="151.290064">
  <ele>343.1</ele>
  <time>2026-09-01T19:49:47Z</time>
  <course>270.0</course>
  <speed>0.0</speed>
  <fix>3d</fix>
</trkpt>
<trkpt lat="-27.2744392" lon="151.2900641">
  <ele>343.09</ele>
  <time>2026-09-01T19:49:47Z</time>
  <course>11.31</course>
  <speed>0.022360679774997897</speed>
  <fix>3d</fix>
</trkpt>
<trkpt lat="-27.274439" lon="151.290064">
  <ele>343.1</ele>
  <time>2026-09-01T19:49:47Z</time>
  <course>270.0</course>
  <speed>0.0</speed>
  <fix>3d</fix>
</trkpt>
<trkpt lat="-27.2744392" lon="151.2900641">
  <ele>343.09</ele>
  <time>2026-09-01T19:49:47Z</time>
  <course>11.31</course>
  <speed>0.022360679774997897</speed>
  <fix>3d</fix>
</trkpt>
<trkpt lat="-27.274439" lon="151.290064">
  <ele>343.1</ele>
  <time>2026-09-01T19:49:47Z</time>
  <course>270.0</course>
  <speed>0.0</speed>
  <fix>3d</fix>
</trkpt>
<trkpt lat="-27.2744392" lon="151.2900641">
  <ele>343.09</ele>
  <time>2026-09-01T19:49:47Z</time>
  <course>11.31</course>
  <speed>0.022360679774997897</speed>
  <fix>3d</fix>
</trkpt>
<trkpt lat="-27.274439" lon="151.290064">
  <ele>343.1</ele>
  <time>2026-09-01T19:49:47Z</time>
  <course>270.0</course>
  <speed>0.0</speed>
  <fix>3d</fix>
</trkpt>
<trkpt lat="-27.2744392" lon="151.2900641">
  <ele>343.09</ele>
  <time>2026-09-01T19:49:47Z</time>
  <course>11.31</course>
  <speed>0.022360679774997897</speed>
  <fix>3d</fix>
</trkpt>
<trkpt lat="-27.274439" lon="151.290064">
  <ele>343.1</ele>
  <time>2026-09-01T19:49:47Z</time>
  <course>270.0</course>
  <speed>0.0</speed>
  <fix>3d</fix>
</trkpt>
<trkpt lat="-27.2744392" lon="151.2900641">
  <ele>343.08</ele>
  <time>2026-09-01T19:49:47Z</time>
  <course>11.31</course>
  <speed>0.022360679774997897</speed>
  <fix>3d</fix>
</trkpt>
<trkpt lat="-27.274439" lon="151.290064">
  <ele>343.1</ele>
  <time>2026-09-01T19:49:47Z</time>
  <course>270.0</course>
  <speed>0.0</speed>
  <fix>3d</fix>
</trkpt>
<trkpt lat="-27.2744392" lon="151.2900641">
  <ele>343.08</ele>
  <time>2026-09-01T19:49:47Z</time>
  <course>11.31</course>
  <speed>0.022360679774997897</speed>
  <fix>3d</fix>
</trkpt>
<trkpt lat="-27.274439" lon="151.290064">
  <ele>343.1</ele>
  <time>2026-09-01T19:49:47Z</time>
  <course>270.0</course>
  <speed>0.0</speed>
  <fix>3d</fix>
</trkpt>
<trkpt lat="-27.2744392" lon="151.2900641">
  <ele>343.08</ele>
  <time>2026-09-01T19:49:47Z</time>
  <course>11.31</course>
  <speed>0.022360679774997897</speed>
  <fix>3d</fix>
</trkpt>
<trkpt lat="-27.274439" lon="151.290064">
  <ele>343.1</ele>
  <time>2026-09-01T19:49:47Z</time>
  <course>270.0</course>
  <speed>0.0</speed>
  <fix>3d</fix>
</trkpt>
<trkpt lat="-27.2744392" lon="151.2900641">
  <ele>343.08</ele>
  <time>2026-09-01T19:49:47Z</time>
  <course>11.31</course>
  <speed>0.022360679774997897</speed>
  <fix>3d</fix>
</trkpt>
<trkpt lat="-27.274439" lon="151.290064">
  <ele>343.1</ele>
  <time>2026-09-01T19:49:47Z</time>
  <course>270.0</course>
  <speed>0.0</speed>
  <fix>3d</fix>
</trkpt>
<trkpt lat="-27.2744392" lon="151.2900641">
  <ele>343.07</ele>
  <time>2026-09-01T19:49:47Z</time>
  <course>11.31</course>
  <speed>0.022360679774997897</speed>
  <fix>3d</fix>
</trkpt>
<trkpt lat="-27.274439" lon="151.290064">
  <ele>343.1</ele>
  <time>2026-09-01T19:49:47Z</time>
  <course>270.0</course>
  <speed>0.0</speed>
  <fix>3d</fix>
</trkpt>
<trkpt lat="-27.2744392" lon="151.2900641">
  <ele>343.07</ele>
  <time>2026-09-01T19:49:47Z</time>
  <course>11.31</course>
  <speed>0.022360679774997897</speed>
  <fix>3d</fix>
</trkpt>
<trkpt lat="-27.274439" lon="151.290064">
  <ele>343.1</ele>
  <time>2026-09-01T19:49:47Z</time>
  <course>270.0</course>
  <speed>0.0</speed>
  <fix>3d</fix>
</trkpt>
<trkpt lat="-27.2744392" lon="151.2900641">
  <ele>343.07</ele>
  <time>2026-09-01T19:49:47Z</time>
  <course>11.31</course>
  <speed>0.022360679774997897</speed>
  <fix>3d</fix>
</trkpt>
<trkpt lat="-27.274439" lon="151.290064">
  <ele>343.1</ele>
  <time>2026-09-01T19:49:47Z</time>
  <course>270.0</course>
  <speed>0.0</speed>
  <fix>3d</fix>
</trkpt>
<trkpt lat="-27.2744392" lon="151.2900641">
  <ele>343.07</ele>
  <time>2026-09-01T19:49:47Z</time>
  <course>11.31</course>
  <speed>0.022360679774997897</speed>
  <fix>3d</fix>
</trkpt>
<trkpt lat="-27.274439" lon="151.290064">
  <ele>343.1</ele>
  <time>2026-09-01T19:49:47Z</time>
  <course>270.0</course>
  <speed>0.0</speed>
  <fix>3d</fix>
</trkpt>
<trkpt lat="-27.2744392" lon="151.2900641">
  <ele>343.07</ele>
  <time>2026-09-01T19:49:47Z</time>
  <course>11.31</course>
  <speed>0.022360679774997897</speed>
  <fix>3d</fix>
</trkpt>
<trkpt lat="-27.274439" lon="151.290064">
  <ele>343.1</ele>
  <time>2026-09-01T19:49:47Z</time>
  <course>270.0</course>
  <speed>0.0</speed>
  <fix>3d</fix>
</trkpt>
<trkpt lat="-27.2744392" lon="151.2900641">
  <ele>343.06</ele>
  <time>2026-09-01T19:49:47Z</time>
  <course>11.31</course>
  <speed>0.022360679774997897</speed>
  <fix>3d</fix>
</trkpt>
<trkpt lat="-27.274439" lon="151.290064">
  <ele>343.1</ele>
  <time>2026-09-01T19:49:47Z</time>
  <course>270.0</course>
  <speed>0.0</speed>
  <fix>3d</fix>
</trkpt>
<trkpt lat="-27.2744392" lon="151.2900641">
  <ele>343.06</ele>
  <time>2026-09-01T19:49:47Z</time>
  <course>11.31</course>
  <speed>0.022360679774997897</speed>
  <fix>3d</fix>
</trkpt>
<trkpt lat="-27.274439" lon="151.290064">
  <ele>343.1</ele>
  <time>2026-09-01T19:49:47Z</time>
  <course>270.0</course>
  <speed>0.0</speed>
  <fix>3d</fix>
</trkpt>
<trkpt lat="-27.2744392" lon="151.2900641">
  <ele>343.06</ele>
  <time>2026-09-01T19:49:47Z</time>
  <course>11.31</course>
  <speed>0.022360679774997897</speed>
  <fix>3d</fix>
</trkpt>
<trkpt lat="-27.274439" lon="151.290064">
  <ele>343.1</ele>
  <time>2026-09-01T19:49:47Z</time>
  <course>270.0</course>
  <speed>0.0</speed>
  <fix>3d</fix>
</trkpt>
<trkpt lat="-27.2744392" lon="151.2900641">
  <ele>343.06</ele>
  <time>2026-09-01T19:49:47Z</time>
  <course>11.31</course>
  <speed>0.022360679774997897</speed>
  <fix>3d</fix>
</trkpt>
<trkpt lat="-27.274439" lon="151.290064">
  <ele>343.1</ele>
  <time>2026-09-01T19:49:47Z</time>
  <course>270.0</course>
  <speed>0.0</speed>
  <fix>3d</fix>
</trkpt>
<trkpt lat="-27.2744392" lon="151.2900641">
  <ele>343.06</ele>
  <time>2026-09-01T19:49:47Z</time>
  <course>11.31</course>
  <speed>0.022360679774997897</speed>
  <fix>3d</fix>
</trkpt>
<trkpt lat="-27.274439" lon="151.290064">
  <ele>343.1</ele>
  <time>2026-09-01T19:49:47Z</time>
  <course>270.0</course>
  <speed>0.0</speed>
  <fix>3d</fix>
</trkpt>
<trkpt lat="-27.2744392" lon="151.2900641">
  <ele>343.06</ele>
  <time>2026-09-01T19:49:47Z</time>
  <course>11.31</course>
  <speed>0.022360679774997897</speed>
  <fix>3d</fix>
</trkpt>
<trkpt lat="-27.274439" lon="151.290064">
  <ele>343.1</ele>
  <time>2026-09-01T19:49:47Z</time>
  <course>270.0</course>
  <speed>0.0</speed>
  <fix>3d</fix>
</trkpt>
<trkpt lat="-27.2744392" lon="151.2900641">
  <ele>343.06</ele>
  <time>2026-09-01T19:49:47Z</time>
  <course>11.31</course>
  <speed>0.022360679774997897</speed>
  <fix>3d</fix>
</trkpt>
<trkpt lat="-27.274439" lon="151.290064">
  <ele>343.1</ele>
  <time>2026-09-01T19:49:47Z</time>
  <course>270.0</course>
  <speed>0.0</speed>
  <fix>3d</fix>
</trkpt>
<trkpt lat="-27.2744392" lon="151.2900641">
  <ele>343.06</ele>
  <time>2026-09-01T19:49:47Z</time>
  <course>11.31</course>
  <speed>0.022360679774997897</speed>
  <fix>3d</fix>
</trkpt>
<trkpt lat="-27.274439" lon="151.290064">
  <ele>343.1</ele>
  <time>2026-09-01T19:49:47Z</time>
  <course>270.0</course>
  <speed>0.0</speed>
  <fix>3d</fix>
</trkpt>
<trkpt lat="-27.2744392" lon="151.2900641">
  <ele>343.06</ele>
  <time>2026-09-01T19:49:47Z</time>
  <course>11.31</course>
  <speed>0.022360679774997897</speed>
  <fix>3d</fix>
</trkpt>
<trkpt lat="-27.274439" lon="151.290064">
  <ele>343.1</ele>
  <time>2026-09-01T19:49:47Z</time>
  <course>270.0</course>
  <speed>0.0</speed>
  <fix>3d</fix>
</trkpt>
<trkpt lat="-27.2744392" lon="151.2900641">
  <ele>343.06</ele>
  <time>2026-09-01T19:49:47Z</time>
  <course>11.31</course>
  <speed>0.022360679774997897</speed>
  <fix>3d</fix>
</trkpt>
<trkpt lat="-27.274439" lon="151.290064">
  <ele>343.1</ele>
  <time>2026-09-01T19:49:47Z</time>
  <course>270.0</course>
  <speed>0.0</speed>
  <fix>3d</fix>
</trkpt>
<trkpt lat="-27.2744392" lon="151.2900641">
  <ele>343.05</ele>
  <time>2026-09-01T19:49:47Z</time>
  <course>11.31</course>
  <speed>0.022360679774997897</speed>
  <fix>3d</fix>
</trkpt>
<trkpt lat="-27.274439" lon="151.290064">
  <ele>343.1</ele>
  <time>2026-09-01T19:49:47Z</time>
  <course>270.0</course>
  <speed>0.0</speed>
  <fix>3d</fix>
</trkpt>
<trkpt lat="-27.2744392" lon="151.2900641">
  <ele>343.05</ele>
  <time>2026-09-01T19:49:47Z</time>
  <course>11.31</course>
  <speed>0.022360679774997897</speed>
  <fix>3d</fix>
</trkpt>
<trkpt lat="-27.274439" lon="151.290064">
  <ele>343.1</ele>
  <time>2026-09-01T19:49:47Z</time>
  <course>270.0</course>
  <speed>0.0</speed>
  <fix>3d</fix>
</trkpt>
<trkpt lat="-27.2744392" lon="151.2900641">
  <ele>343.05</ele>
  <time>2026-09-01T19:49:47Z</time>
  <course>11.31</course>
  <speed>0.022360679774997897</speed>
  <fix>3d</fix>
</trkpt>
<trkpt lat="-27.274439" lon="151.290064">
  <ele>343.1</ele>
  <time>2026-09-01T19:49:47Z</time>
  <course>270.0</course>
  <speed>0.0</speed>
  <fix>3d</fix>
</trkpt>
<trkpt lat="-27.2744392" lon="151.2900641">
  <ele>343.05</ele>
  <time>2026-09-01T19:49:47Z</time>
  <course>11.31</course>
  <speed>0.022360679774997897</speed>
  <fix>3d</fix>
</trkpt>
<trkpt lat="-27.274439" lon="151.290064">
  <ele>343.1</ele>
  <time>2026-09-01T19:49:47Z</time>
  <course>270.0</course>
  <speed>0.0</speed>
  <fix>3d</fix>
</trkpt>
<trkpt lat="-27.2744392" lon="151.2900641">
  <ele>343.06</ele>
  <time>2026-09-01T19:49:47Z</time>
  <course>11.31</course>
  <speed>0.022360679774997897</speed>
  <fix>3d</fix>
</trkpt>
<trkpt lat="-27.274439" lon="151.290064">
  <ele>343.1</ele>
  <time>2026-09-01T19:49:47Z</time>
  <course>270.0</course>
  <speed>0.0</speed>
  <fix>3d</fix>
</trkpt>
<trkpt lat="-27.2744392" lon="151.2900641">
  <ele>343.06</ele>
  <time>2026-09-01T19:49:47Z</time>
  <course>11.31</course>
  <speed>0.022360679774997897</speed>
  <fix>3d</fix>
</trkpt>
<trkpt lat="-27.274439" lon="151.290064">
  <ele>343.1</ele>
  <time>2026-09-01T19:49:47Z</time>
  <course>270.0</course>
  <speed>0.0</speed>
  <fix>3d</fix>
</trkpt>
<trkpt lat="-27.2744392" lon="151.2900641">
  <ele>343.06</ele>
  <time>2026-09-01T19:49:47Z</time>
  <course>11.31</course>
  <speed>0.022360679774997897</speed>
  <fix>3d</fix>
</trkpt>
<trkpt lat="-27.274439" lon="151.290064">
  <ele>343.1</ele>
  <time>2026-09-01T19:49:47Z</time>
  <course>270.0</course>
  <speed>0.0</speed>
  <fix>3d</fix>
</trkpt>
<trkpt lat="-27.2744392" lon="151.2900641">
  <ele>343.06</ele>
  <time>2026-09-01T19:49:47Z</time>
  <course>11.31</course>
  <speed>0.022360679774997897</speed>
  <fix>3d</fix>
</trkpt>
<trkpt lat="-27.274439" lon="151.290064">
  <ele>343.1</ele>
  <time>2026-09-01T19:49:47Z</time>
  <course>270.0</course>
  <speed>0.0</speed>
  <fix>3d</fix>
</trkpt>
<trkpt lat="-27.2744392" lon="151.2900641">
  <ele>343.06</ele>
  <time>2026-09-01T19:49:47Z</time>
  <course>11.31</course>
  <speed>0.022360679774997897</speed>
  <fix>3d</fix>
</trkpt>
<trkpt lat="-27.274439" lon="151.290064">
  <ele>343.1</ele>
  <time>2026-09-01T19:49:47Z</time>
  <course>270.0</course>
  <speed>0.0</speed>
  <fix>3d</fix>
</trkpt>
<trkpt lat="-27.2744392" lon="151.2900641">
  <ele>343.06</ele>
  <time>2026-09-01T19:49:47Z</time>
  <course>11.31</course>
  <speed>0.022360679774997897</speed>
  <fix>3d</fix>
</trkpt>
<trkpt lat="-27.274439" lon="151.290064">
  <ele>343.1</ele>
  <time>2026-09-01T19:49:47Z</time>
  <course>270.0</course>
  <speed>0.0</speed>
  <fix>3d</fix>
</trkpt>
<trkpt lat="-27.2744392" lon="151.2900641">
  <ele>343.06</ele>
  <time>2026-09-01T19:49:47Z</time>
  <course>11.31</course>
  <speed>0.022360679774997897</speed>
  <fix>3d</fix>
</trkpt>
<trkpt lat="-27.274439" lon="151.290064">
  <ele>343.1</ele>
  <time>2026-09-01T19:49:47Z</time>
  <course>270.0</course>
  <speed>0.0</speed>
  <fix>3d</fix>
</trkpt>
<trkpt lat="-27.2744392" lon="151.2900641">
  <ele>343.06</ele>
  <time>2026-09-01T19:49:47Z</time>
  <course>11.31</course>
  <speed>0.022360679774997897</speed>
  <fix>3d</fix>
</trkpt>
<trkpt lat="-27.274439" lon="151.290064">
  <ele>343.1</ele>
  <time>2026-09-01T19:49:47Z</time>
  <course>270.0</course>
  <speed>0.0</speed>
  <fix>3d</fix>
</trkpt>
<trkpt lat="-27.2744392" lon="151.2900641">
  <ele>343.06</ele>
  <time>2026-09-01T19:49:47Z</time>
  <course>11.31</course>
  <speed>0.022360679774997897</speed>
  <fix>3d</fix>
</trkpt>
<trkpt lat="-27.274439" lon="151.290064">
  <ele>343.1</ele>
  <time>2026-09-01T19:49:47Z</time>
  <course>270.0</course>
  <speed>0.0</speed>
  <fix>3d</fix>
</trkpt>
<trkpt lat="-27.2744392" lon="151.2900641">
  <ele>343.06</ele>
  <time>2026-09-01T19:49:47Z</time>
  <course>11.31</course>
  <speed>0.022360679774997897</speed>
  <fix>3d</fix>
</trkpt>
<trkpt lat="-27.274439" lon="151.290064">
  <ele>343.1</ele>
  <time>2026-09-01T19:49:47Z</time>
  <course>270.0</course>
  <speed>0.0</speed>
  <fix>3d</fix>
</trkpt>
<trkpt lat="-27.2744392" lon="151.2900641">
  <ele>343.06</ele>
  <time>2026-09-01T19:49:47Z</time>
  <course>11.31</course>
  <speed>0.022360679774997897</speed>
  <fix>3d</fix>
</trkpt>
<trkpt lat="-27.274439" lon="151.290064">
  <ele>343.1</ele>
  <time>2026-09-01T19:49:47Z</time>
  <course>270.0</course>
  <speed>0.0</speed>
  <fix>3d</fix>
</trkpt>
<trkpt lat="-27.2744392" lon="151.2900641">
  <ele>343.06</ele>
  <time>2026-09-01T19:49:47Z</time>
  <course>11.31</course>
  <speed>0.022360679774997897</speed>
  <fix>3d</fix>
</trkpt>
<trkpt lat="-27.274439" lon="151.290064">
  <ele>343.1</ele>
  <time>2026-09-01T19:49:47Z</time>
  <course>270.0</course>
  <speed>0.0</speed>
  <fix>3d</fix>
</trkpt>
<trkpt lat="-27.2744392" lon="151.2900641">
  <ele>343.06</ele>
  <time>2026-09-01T19:49:47Z</time>
  <course>11.31</course>
  <speed>0.022360679774997897</speed>
  <fix>3d</fix>
</trkpt>
<trkpt lat="-27.274439" lon="151.290064">
  <ele>343.1</ele>
  <time>2026-09-01T19:49:47Z</time>
  <course>270.0</course>
  <speed>0.0</speed>
  <fix>3d</fix>
</trkpt>
<trkpt lat="-27.2744392" lon="151.2900641">
  <ele>343.07</ele>
  <time>2026-09-01T19:49:47Z</time>
  <course>11.31</course>
  <speed>0.022360679774997897</speed>
  <fix>3d</fix>
</trkpt>
<trkpt lat="-27.274439" lon="151.290064">
  <ele>343.1</ele>
  <time>2026-09-01T19:49:47Z</time>
  <course>270.0</course>
  <speed>0.0</speed>
  <fix>3d</fix>
</trkpt>
<trkpt lat="-27.2744392" lon="151.2900641">
  <ele>343.07</ele>
  <time>2026-09-01T19:49:47Z</time>
  <course>11.31</course>
  <speed>0.022360679774997897</speed>
  <fix>3d</fix>
</trkpt>
<trkpt lat="-27.274439" lon="151.290064">
  <ele>343.1</ele>
  <time>2026-09-01T19:49:47Z</time>
  <course>270.0</course>
  <speed>0.0</speed>
  <fix>3d</fix>
</trkpt>
<trkpt lat="-27.2744392" lon="151.2900641">
  <ele>343.07</ele>
  <time>2026-09-01T19:49:47Z</time>
  <course>11.31</course>
  <speed>0.022360679774997897</speed>
  <fix>3d</fix>
</trkpt>
<trkpt lat="-27.274439" lon="151.290064">
  <ele>343.1</ele>
  <time>2026-09-01T19:49:47Z</time>
  <course>270.0</course>
  <speed>0.0</speed>
  <fix>3d</fix>
</trkpt>
<trkpt lat="-27.2744392" lon="151.2900641">
  <ele>343.07</ele>
  <time>2026-09-01T19:49:47Z</time>
  <course>11.31</course>
  <speed>0.022360679774997897</speed>
  <fix>3d</fix>
</trkpt>
<trkpt lat="-27.274439" lon="151.290064">
  <ele>343.1</ele>
  <time>2026-09-01T19:49:47Z</time>
  <course>270.0</course>
  <speed>0.0</speed>
  <fix>3d</fix>
</trkpt>
<trkpt lat="-27.2744392" lon="151.2900641">
  <ele>343.07</ele>
  <time>2026-09-01T19:49:47Z</time>
  <course>11.31</course>
  <speed>0.022360679774997897</speed>
  <fix>3d</fix>
</trkpt>
<trkpt lat="-27.274439" lon="151.290064">
  <ele>343.1</ele>
  <time>2026-09-01T19:49:47Z</time>
  <course>270.0</course>
  <speed>0.0</speed>
  <fix>3d</fix>
</trkpt>
<trkpt lat="-27.2744392" lon="151.2900641">
  <ele>343.07</ele>
  <time>2026-09-01T19:49:47Z</time>
  <course>11.31</course>
  <speed>0.022360679774997897</speed>
  <fix>3d</fix>
</trkpt>
<trkpt lat="-27.274439" lon="151.290064">
  <ele>343.1</ele>
  <time>2026-09-01T19:49:47Z</time>
  <course>270.0</course>
  <speed>0.0</speed>
  <fix>3d</fix>
</trkpt>
<trkpt lat="-27.2744392" lon="151.2900641">
  <ele>343.06</ele>
  <time>2026-09-01T19:49:47Z</time>
  <course>11.31</course>
  <speed>0.022360679774997897</speed>
  <fix>3d</fix>
</trkpt>
<trkpt lat="-27.274439" lon="151.290064">
  <ele>343.1</ele>
  <time>2026-09-01T19:49:47Z</time>
  <course>270.0</course>
  <speed>0.0</speed>
  <fix>3d</fix>
</trkpt>
<trkpt lat="-27.2744392" lon="151.2900641">
  <ele>343.06</ele>
  <time>2026-09-01T19:49:47Z</time>
  <course>11.31</course>
  <speed>0.022360679774997897</speed>
  <fix>3d</fix>
</trkpt>
<trkpt lat="-27.274439" lon="151.290064">
  <ele>343.1</ele>
  <time>2026-09-01T19:49:47Z</time>
  <course>270.0</course>
  <speed>0.0</speed>
  <fix>3d</fix>
</trkpt>
<trkpt lat="-27.2744392" lon="151.2900641">
  <ele>343.06</ele>
  <time>2026-09-01T19:49:47Z</time>
  <course>11.31</course>
  <speed>0.022360679774997897</speed>
  <fix>3d</fix>
</trkpt>
<trkpt lat="-27.274439" lon="151.290064">
  <ele>343.1</ele>
  <time>2026-09-01T19:49:47Z</time>
  <course>270.0</course>
  <speed>0.0</speed>
  <fix>3d</fix>
</trkpt>
<trkpt lat="-27.2744392" lon="151.2900641">
  <ele>343.06</ele>
  <time>2026-09-01T19:49:47Z</time>
  <course>11.31</course>
  <speed>0.022360679774997897</speed>
  <fix>3d</fix>
</trkpt>
<trkpt lat="-27.274439" lon="151.290064">
  <ele>343.1</ele>
  <time>2026-09-01T19:49:47Z</time>
  <course>270.0</course>
  <speed>0.0</speed>
  <fix>3d</fix>
</trkpt>
<trkpt lat="-27.2744392" lon="151.2900641">
  <ele>343.06</ele>
  <time>2026-09-01T19:49:47Z</time>
  <course>11.31</course>
  <speed>0.022360679774997897</speed>
  <fix>3d</fix>
</trkpt>
<trkpt lat="-27.274439" lon="151.290064">
  <ele>343.1</ele>
  <time>2026-09-01T19:49:47Z</time>
  <course>270.0</course>
  <speed>0.0</speed>
  <fix>3d</fix>
</trkpt>
<trkpt lat="-27.2744392" lon="151.2900641">
  <ele>343.06</ele>
  <time>2026-09-01T19:49:47Z</time>
  <course>11.31</course>
  <speed>0.022360679774997897</speed>
  <fix>3d</fix>
</trkpt>
<trkpt lat="-27.274439" lon="151.290064">
  <ele>343.1</ele>
  <time>2026-09-01T19:49:47Z</time>
  <course>270.0</course>
  <speed>0.0</speed>
  <fix>3d</fix>
</trkpt>
<trkpt lat="-27.2744392" lon="151.2900641">
  <ele>343.06</ele>
  <time>2026-09-01T19:49:47Z</time>
  <course>11.32</course>
  <speed>0.022360679774997897</speed>
  <fix>3d</fix>
</trkpt>
<trkpt lat="-27.274439" lon="151.290064">
  <ele>343.1</ele>
  <time>2026-09-01T19:49:47Z</time>
  <course>270.0</course>
  <speed>0.0</speed>
  <fix>3d</fix>
</trkpt>
<trkpt lat="-27.2744392" lon="151.2900641">
  <ele>343.07</ele>
  <time>2026-09-01T19:49:47Z</time>
  <course>11.32</course>
  <speed>0.022360679774997897</speed>
  <fix>3d</fix>
</trkpt>
<trkpt lat="-27.274439" lon="151.290064">
  <ele>343.1</ele>
  <time>2026-09-01T19:49:47Z</time>
  <course>270.0</course>
  <speed>0.0</speed>
  <fix>3d</fix>
</trkpt>
<trkpt lat="-27.2744392" lon="151.2900641">
  <ele>343.07</ele>
  <time>2026-09-01T19:49:47Z</time>
  <course>11.32</course>
  <speed>0.022360679774997897</speed>
  <fix>3d</fix>
</trkpt>
<trkpt lat="-27.274439" lon="151.290064">
  <ele>343.1</ele>
  <time>2026-09-01T19:49:47Z</time>
  <course>270.0</course>
  <speed>0.0</speed>
  <fix>3d</fix>
</trkpt>
<trkpt lat="-27.2744392" lon="151.2900641">
  <ele>343.07</ele>
  <time>2026-09-01T19:49:47Z</time>
  <course>11.32</course>
  <speed>0.022360679774997897</speed>
  <fix>3d</fix>
</trkpt>
<trkpt lat="-27.274439" lon="151.290064">
  <ele>343.1</ele>
  <time>2026-09-01T19:49:47Z</time>
  <course>270.0</course>
  <speed>0.0</speed>
  <fix>3d</fix>
</trkpt>
<trkpt lat="-27.2744392" lon="151.2900641">
  <ele>343.07</ele>
  <time>2026-09-01T19:49:47Z</time>
  <course>11.32</course>
  <speed>0.022360679774997897</speed>
  <fix>3d</fix>
</trkpt>
<trkpt lat="-27.274439" lon="151.290064">
  <ele>343.1</ele>
  <time>2026-09-01T19:49:47Z</time>
  <course>270.0</course>
  <speed>0.0</speed>
  <fix>3d</fix>
</trkpt>
<trkpt lat="-27.2744392" lon="151.2900641">
  <ele>343.07</ele>
  <time>2026-09-01T19:49:47Z</time>
  <course>11.32</course>
  <speed>0.022360679774997897</speed>
  <fix>3d</fix>
</trkpt>
<trkpt lat="-27.274439" lon="151.290064">
  <ele>343.1</ele>
  <time>2026-09-01T19:49:47Z</time>
  <course>270.0</course>
  <speed>0.0</speed>
  <fix>3d</fix>
</trkpt>
<trkpt lat="-27.2744392" lon="151.2900641">
  <ele>343.07</ele>
  <time>2026-09-01T19:49:47Z</time>
  <course>11.32</course>
  <speed>0.022360679774997897</speed>
  <fix>3d</fix>
</trkpt>
<trkpt lat="-27.274439" lon="151.290064">
  <ele>343.1</ele>
  <time>2026-09-01T19:49:47Z</time>
  <course>270.0</course>
  <speed>0.0</speed>
  <fix>3d</fix>
</trkpt>
<trkpt lat="-27.2744392" lon="151.2900641">
  <ele>343.07</ele>
  <time>2026-09-01T19:49:47Z</time>
  <course>11.32</course>
  <speed>0.022360679774997897</speed>
  <fix>3d</fix>
</trkpt>
<trkpt lat="-27.274439" lon="151.290064">
  <ele>343.1</ele>
  <time>2026-09-01T19:49:47Z</time>
  <course>270.0</course>
  <speed>0.0</speed>
  <fix>3d</fix>
</trkpt>
<trkpt lat="-27.2744392" lon="151.2900641">
  <ele>343.07</ele>
  <time>2026-09-01T19:49:47Z</time>
  <course>11.32</course>
  <speed>0.022360679774997897</speed>
  <fix>3d</fix>
</trkpt>
<trkpt lat="-27.274439" lon="151.290064">
  <ele>343.1</ele>
  <time>2026-09-01T19:49:47Z</time>
  <course>270.0</course>
  <speed>0.0</speed>
  <fix>3d</fix>
</trkpt>
<trkpt lat="-27.2744392" lon="151.2900641">
  <ele>343.07</ele>
  <time>2026-09-01T19:49:47Z</time>
  <course>11.32</course>
  <speed>0.022360679774997897</speed>
  <fix>3d</fix>
</trkpt>
<trkpt lat="-27.274439" lon="151.290064">
  <ele>343.1</ele>
  <time>2026-09-01T19:49:47Z</time>
  <course>270.0</course>
  <speed>0.0</speed>
  <fix>3d</fix>
</trkpt>
<trkpt lat="-27.2744392" lon="151.2900641">
  <ele>343.07</ele>
  <time>2026-09-01T19:49:47Z</time>
  <course>11.32</course>
  <speed>0.022360679774997897</speed>
  <fix>3d</fix>
</trkpt>
<trkpt lat="-27.274439" lon="151.290064">
  <ele>343.1</ele>
  <time>2026-09-01T19:49:47Z</time>
  <course>270.0</course>
  <speed>0.0</speed>
  <fix>3d</fix>
</trkpt>
<trkpt lat="-27.2744392" lon="151.2900641">
  <ele>343.07</ele>
  <time>2026-09-01T19:49:47Z</time>
  <course>11.32</course>
  <speed>0.022360679774997897</speed>
  <fix>3d</fix>
</trkpt>
<trkpt lat="-27.274439" lon="151.290064">
  <ele>343.1</ele>
  <time>2026-09-01T19:49:47Z</time>
  <course>270.0</course>
  <speed>0.0</speed>
  <fix>3d</fix>
</trkpt>
<trkpt lat="-27.2744392" lon="151.2900641">
  <ele>343.07</ele>
  <time>2026-09-01T19:49:47Z</time>
  <course>11.32</course>
  <speed>0.022360679774997897</speed>
  <fix>3d</fix>
</trkpt>
<trkpt lat="-27.274439" lon="151.290064">
  <ele>343.1</ele>
  <time>2026-09-01T19:49:47Z</time>
  <course>270.0</course>
  <speed>0.0</speed>
  <fix>3d</fix>
</trkpt>
<trkpt lat="-27.2744392" lon="151.2900641">
  <ele>343.07</ele>
  <time>2026-09-01T19:49:47Z</time>
  <course>11.32</course>
  <speed>0.022360679774997897</speed>
  <fix>3d</fix>
</trkpt>
<trkpt lat="-27.274439" lon="151.290064">
  <ele>343.1</ele>
  <time>2026-09-01T19:49:47Z</time>
  <course>270.0</course>
  <speed>0.0</speed>
  <fix>3d</fix>
</trkpt>
<trkpt lat="-27.2744392" lon="151.2900641">
  <ele>343.07</ele>
  <time>2026-09-01T19:49:47Z</time>
  <course>11.32</course>
  <speed>0.022360679774997897</speed>
  <fix>3d</fix>
</trkpt>
<trkpt lat="-27.274439" lon="151.290064">
  <ele>343.1</ele>
  <time>2026-09-01T19:49:47Z</time>
  <course>270.0</course>
  <speed>0.0</speed>
  <fix>3d</fix>
</trkpt>
<trkpt lat="-27.2744392" lon="151.2900641">
  <ele>343.07</ele>
  <time>2026-09-01T19:49:47Z</time>
  <course>11.31</course>
  <speed>0.022360679774997897</speed>
  <fix>3d</fix>
</trkpt>
<trkpt lat="-27.274439" lon="151.290064">
  <ele>343.1</ele>
  <time>2026-09-01T19:49:47Z</time>
  <course>270.0</course>
  <speed>0.0</speed>
  <fix>3d</fix>
</trkpt>
<trkpt lat="-27.2744392" lon="151.2900641">
  <ele>343.07</ele>
  <time>2026-09-01T19:49:47Z</time>
  <course>11.32</course>
  <speed>0.022360679774997897</speed>
  <fix>3d</fix>
</trkpt>
<trkpt lat="-27.274439" lon="151.290064">
  <ele>343.1</ele>
  <time>2026-09-01T19:49:47Z</time>
  <course>270.0</course>
  <speed>0.0</speed>
  <fix>3d</fix>
</trkpt>
<trkpt lat="-27.2744392" lon="151.2900641">
  <ele>343.07</ele>
  <time>2026-09-01T19:49:47Z</time>
  <course>11.31</course>
  <speed>0.022360679774997897</speed>
  <fix>3d</fix>
</trkpt>
<trkpt lat="-27.274439" lon="151.290064">
  <ele>343.1</ele>
  <time>2026-09-01T19:49:47Z</time>
  <course>270.0</course>
  <speed>0.0</speed>
  <fix>3d</fix>
</trkpt>
<trkpt lat="-27.2744392" lon="151.2900641">
  <ele>343.07</ele>
  <time>2026-09-01T19:49:47Z</time>
  <course>11.31</course>
  <speed>0.022360679774997897</speed>
  <fix>3d</fix>
</trkpt>
<trkpt lat="-27.274439" lon="151.290064">
  <ele>343.1</ele>
  <time>2026-09-01T19:49:47Z</time>
  <course>270.0</course>
  <speed>0.0</speed>
  <fix>3d</fix>
</trkpt>
<trkpt lat="-27.2744392" lon="151.2900641">
  <ele>343.06</ele>
  <time>2026-09-01T19:49:47Z</time>
  <course>11.31</course>
  <speed>0.022360679774997897</speed>
  <fix>3d</fix>
</trkpt>
<trkpt lat="-27.274439" lon="151.290064">
  <ele>343.1</ele>
  <time>2026-09-01T19:49:47Z</time>
  <course>270.0</course>
  <speed>0.0</speed>
  <fix>3d</fix>
</trkpt>
<trkpt lat="-27.2744392" lon="151.2900641">
  <ele>343.09</ele>
  <time>2026-09-01T19:49:47Z</time>
  <course>11.31</course>
  <speed>0.022360679774997897</speed>
  <fix>3d</fix>
</trkpt>
<trkpt lat="-27.274439" lon="151.290064">
  <ele>343.1</ele>
  <time>2026-09-01T19:49:47Z</time>
  <course>270.0</course>
  <speed>0.0</speed>
  <fix>3d</fix>
</trkpt>
<trkpt lat="-27.2744392" lon="151.2900641">
  <ele>343.1</ele>
  <time>2026-09-01T19:49:47Z</time>
  <course>11.31</course>
  <speed>0.022360679774997897</speed>
  <fix>3d</fix>
</trkpt>
<trkpt lat="-27.274439" lon="151.290064">
  <ele>343.1</ele>
  <time>2026-09-01T19:49:47Z</time>
  <course>270.0</course>
  <speed>0.0</speed>
  <fix>3d</fix>
</trkpt>
<trkpt lat="-27.2744392" lon="151.2900641">
  <ele>343.1</ele>
  <time>2026-09-01T19:49:47Z</time>
  <course>11.31</course>
  <speed>0.022360679774997897</speed>
  <fix>3d</fix>
</trkpt>
<trkpt lat="-27.274439" lon="151.290064">
  <ele>343.1</ele>
  <time>2026-09-01T19:49:47Z</time>
  <course>270.0</course>
  <speed>0.0</speed>
  <fix>3d</fix>
</trkpt>
<trkpt lat="-27.2744392" lon="151.2900641">
  <ele>343.09</ele>
  <time>2026-09-01T19:49:47Z</time>
  <course>11.31</course>
  <speed>0.022360679774997897</speed>
  <fix>3d</fix>
</trkpt>
<trkpt lat="-27.274439" lon="151.290064">
  <ele>343.1</ele>
  <time>2026-09-01T19:49:47Z</time>
  <course>270.0</course>
  <speed>0.0</speed>
  <fix>3d</fix>
</trkpt>
<trkpt lat="-27.2744392" lon="151.2900641">
  <ele>343.09</ele>
  <time>2026-09-01T19:49:47Z</time>
  <course>11.31</course>
  <speed>0.022360679774997897</speed>
  <fix>3d</fix>
</trkpt>
<trkpt lat="-27.274439" lon="151.290064">
  <ele>343.1</ele>
  <time>2026-09-01T19:49:47Z</time>
  <course>270.0</course>
  <speed>0.0</speed>
  <fix>3d</fix>
</trkpt>
<trkpt lat="-27.2744392" lon="151.2900641">
  <ele>343.08</ele>
  <time>2026-09-01T19:49:47Z</time>
  <course>11.31</course>
  <speed>0.022360679774997897</speed>
  <fix>3d</fix>
</trkpt>
<trkpt lat="-27.274439" lon="151.290064">
  <ele>343.1</ele>
  <time>2026-09-01T19:49:47Z</time>
  <course>270.0</course>
  <speed>0.0</speed>
  <fix>3d</fix>
</trkpt>
<trkpt lat="-27.2744392" lon="151.2900641">
  <ele>343.08</ele>
  <time>2026-09-01T19:49:47Z</time>
  <course>11.31</course>
  <speed>0.022360679774997897</speed>
  <fix>3d</fix>
</trkpt>
<trkpt lat="-27.274439" lon="151.290064">
  <ele>343.1</ele>
  <time>2026-09-01T19:49:47Z</time>
  <course>270.0</course>
  <speed>0.0</speed>
  <fix>3d</fix>
</trkpt>
<trkpt lat="-27.2744392" lon="151.2900641">
  <ele>343.07</ele>
  <time>2026-09-01T19:49:47Z</time>
  <course>11.31</course>
  <speed>0.022360679774997897</speed>
  <fix>3d</fix>
</trkpt>
<trkpt lat="-27.274439" lon="151.290064">
  <ele>343.1</ele>
  <time>2026-09-01T19:49:47Z</time>
  <course>270.0</course>
  <speed>0.0</speed>
  <fix>3d</fix>
</trkpt>
<trkpt lat="-27.2744392" lon="151.2900641">
  <ele>343.07</ele>
  <time>2026-09-01T19:49:47Z</time>
  <course>11.31</course>
  <speed>0.022360679774997897</speed>
  <fix>3d</fix>
</trkpt>
<trkpt lat="-27.274439" lon="151.290064">
  <ele>343.1</ele>
  <time>2026-09-01T19:49:47Z</time>
  <course>270.0</course>
  <speed>0.0</speed>
  <fix>3d</fix>
</trkpt>
<trkpt lat="-27.2744392" lon="151.2900641">
  <ele>343.06</ele>
  <time>2026-09-01T19:49:47Z</time>
  <course>11.31</course>
  <speed>0.022360679774997897</speed>
  <fix>3d</fix>
</trkpt>
<trkpt lat="-27.274439" lon="151.290064">
  <ele>343.1</ele>
  <time>2026-09-01T19:49:47Z</time>
  <course>270.0</course>
  <speed>0.0</speed>
  <fix>3d</fix>
</trkpt>
<trkpt lat="-27.2744392" lon="151.2900641">
  <ele>343.06</ele>
  <time>2026-09-01T19:49:47Z</time>
  <course>11.31</course>
  <speed>0.022360679774997897</speed>
  <fix>3d</fix>
</trkpt>
<trkpt lat="-27.274439" lon="151.290064">
  <ele>343.1</ele>
  <time>2026-09-01T19:49:47Z</time>
  <course>270.0</course>
  <speed>0.0</speed>
  <fix>3d</fix>
</trkpt>
<trkpt lat="-27.2744392" lon="151.2900641">
  <ele>343.05</ele>
  <time>2026-09-01T19:49:47Z</time>
  <course>11.31</course>
  <speed>0.022360679774997897</speed>
  <fix>3d</fix>
</trkpt>
<trkpt lat="-27.274439" lon="151.290064">
  <ele>343.1</ele>
  <time>2026-09-01T19:49:47Z</time>
  <course>270.0</course>
  <speed>0.0</speed>
  <fix>3d</fix>
</trkpt>
<trkpt lat="-27.2744392" lon="151.2900641">
  <ele>343.05</ele>
  <time>2026-09-01T19:49:47Z</time>
  <course>11.31</course>
  <speed>0.022360679774997897</speed>
  <fix>3d</fix>
</trkpt>
<trkpt lat="-27.274439" lon="151.290064">
  <ele>343.1</ele>
  <time>2026-09-01T19:49:47Z</time>
  <course>270.0</course>
  <speed>0.0</speed>
  <fix>3d</fix>
</trkpt>
<trkpt lat="-27.2744392" lon="151.2900641">
  <ele>343.04</ele>
  <time>2026-09-01T19:49:47Z</time>
  <course>11.32</course>
  <speed>0.022360679774997897</speed>
  <fix>3d</fix>
</trkpt>
<trkpt lat="-27.274439" lon="151.290064">
  <ele>343.1</ele>
  <time>2026-09-01T19:49:47Z</time>
  <course>270.0</course>
  <speed>0.0</speed>
  <fix>3d</fix>
</trkpt>
<trkpt lat="-27.2744392" lon="151.2900641">
  <ele>343.04</ele>
  <time>2026-09-01T19:49:47Z</time>
  <course>11.32</course>
  <speed>0.022360679774997897</speed>
  <fix>3d</fix>
</trkpt>
<trkpt lat="-27.274439" lon="151.290064">
  <ele>343.1</ele>
  <time>2026-09-01T19:49:47Z</time>
  <course>270.0</course>
  <speed>0.0</speed>
  <fix>3d</fix>
</trkpt>
<trkpt lat="-27.2744392" lon="151.2900641">
  <ele>343.03</ele>
  <time>2026-09-01T19:49:47Z</time>
  <course>11.32</course>
  <speed>0.022360679774997897</speed>
  <fix>3d</fix>
</trkpt>
<trkpt lat="-27.274439" lon="151.290064">
  <ele>343.1</ele>
  <time>2026-09-01T19:49:47Z</time>
  <course>270.0</course>
  <speed>0.0</speed>
  <fix>3d</fix>
</trkpt>
<trkpt lat="-27.2744392" lon="151.2900641">
  <ele>343.03</ele>
  <time>2026-09-01T19:49:47Z</time>
  <course>11.32</course>
  <speed>0.022360679774997897</speed>
  <fix>3d</fix>
</trkpt>
<trkpt lat="-27.274439" lon="151.290064">
  <ele>343.1</ele>
  <time>2026-09-01T19:49:47Z</time>
  <course>270.0</course>
  <speed>0.0</speed>
  <fix>3d</fix>
</trkpt>
<trkpt lat="-27.2744392" lon="151.2900641">
  <ele>343.03</ele>
  <time>2026-09-01T19:49:47Z</time>
  <course>11.32</course>
  <speed>0.022360679774997897</speed>
  <fix>3d</fix>
</trkpt>
<trkpt lat="-27.274439" lon="151.290064">
  <ele>343.1</ele>
  <time>2026-09-01T19:49:47Z</time>
  <course>270.0</course>
  <speed>0.0</speed>
  <fix>3d</fix>
</trkpt>
<trkpt lat="-27.2744392" lon="151.2900641">
  <ele>343.02</ele>
  <time>2026-09-01T19:49:47Z</time>
  <course>11.32</course>
  <speed>0.022360679774997897</speed>
  <fix>3d</fix>
</trkpt>
<trkpt lat="-27.274439" lon="151.290064">
  <ele>343.1</ele>
  <time>2026-09-01T19:49:47Z</time>
  <course>270.0</course>
  <speed>0.0</speed>
  <fix>3d</fix>
</trkpt>
<trkpt lat="-27.2744392" lon="151.2900641">
  <ele>343.02</ele>
  <time>2026-09-01T19:49:47Z</time>
  <course>11.32</course>
  <speed>0.022360679774997897</speed>
  <fix>3d</fix>
</trkpt>
<trkpt lat="-27.274439" lon="151.290064">
  <ele>343.1</ele>
  <time>2026-09-01T19:49:47Z</time>
  <course>270.0</course>
  <speed>0.0</speed>
  <fix>3d</fix>
</trkpt>
<trkpt lat="-27.2744392" lon="151.2900641">
  <ele>343.01</ele>
  <time>2026-09-01T19:49:47Z</time>
  <course>11.32</course>
  <speed>0.022360679774997897</speed>
  <fix>3d</fix>
</trkpt>
<trkpt lat="-27.274439" lon="151.290064">
  <ele>343.1</ele>
  <time>2026-09-01T19:49:47Z</time>
  <course>270.0</course>
  <speed>0.0</speed>
  <fix>3d</fix>
</trkpt>
<trkpt lat="-27.2744392" lon="151.2900641">
  <ele>343.01</ele>
  <time>2026-09-01T19:49:47Z</time>
  <course>11.32</course>
  <speed>0.022360679774997897</speed>
  <fix>3d</fix>
</trkpt>
<trkpt lat="-27.274439" lon="151.290064">
  <ele>343.1</ele>
  <time>2026-09-01T19:49:47Z</time>
  <course>270.0</course>
  <speed>0.0</speed>
  <fix>3d</fix>
</trkpt>
<trkpt lat="-27.2744392" lon="151.2900641">
  <ele>343.0</ele>
  <time>2026-09-01T19:49:47Z</time>
  <course>11.32</course>
  <speed>0.022360679774997897</speed>
  <fix>3d</fix>
</trkpt>
<trkpt lat="-27.274439" lon="151.290064">
  <ele>343.1</ele>
  <time>2026-09-01T19:49:47Z</time>
  <course>270.0</course>
  <speed>0.0</speed>
  <fix>3d</fix>
</trkpt>
<trkpt lat="-27.2744392" lon="151.2900641">
  <ele>343.0</ele>
  <time>2026-09-01T19:49:47Z</time>
  <course>11.32</course>
  <speed>0.022360679774997897</speed>
  <fix>3d</fix>
</trkpt>
<trkpt lat="-27.274439" lon="151.290064">
  <ele>343.1</ele>
  <time>2026-09-01T19:49:47Z</time>
  <course>270.0</course>
  <speed>0.0</speed>
  <fix>3d</fix>
</trkpt>
<trkpt lat="-27.2744392" lon="151.2900641">
  <ele>342.99</ele>
  <time>2026-09-01T19:49:47Z</time>
  <course>11.32</course>
  <speed>0.022360679774997897</speed>
  <fix>3d</fix>
</trkpt>
<trkpt lat="-27.274439" lon="151.290064">
  <ele>343.1</ele>
  <time>2026-09-01T19:49:47Z</time>
  <course>270.0</course>
  <speed>0.0</speed>
  <fix>3d</fix>
</trkpt>
<trkpt lat="-27.2744392" lon="151.2900641">
  <ele>342.99</ele>
  <time>2026-09-01T19:49:47Z</time>
  <course>11.32</course>
  <speed>0.022360679774997897</speed>
  <fix>3d</fix>
</trkpt>
<trkpt lat="-27.274439" lon="151.290064">
  <ele>343.1</ele>
  <time>2026-09-01T19:49:47Z</time>
  <course>270.0</course>
  <speed>0.0</speed>
  <fix>3d</fix>
</trkpt>
<trkpt lat="-27.2744392" lon="151.2900641">
  <ele>342.98</ele>
  <time>2026-09-01T19:49:47Z</time>
  <course>11.32</course>
  <speed>0.022360679774997897</speed>
  <fix>3d</fix>
</trkpt>
<trkpt lat="-27.274439" lon="151.290064">
  <ele>343.1</ele>
  <time>2026-09-01T19:49:47Z</time>
  <course>270.0</course>
  <speed>0.0</speed>
  <fix>3d</fix>
</trkpt>
<trkpt lat="-27.2744392" lon="151.2900641">
  <ele>342.98</ele>
  <time>2026-09-01T19:49:47Z</time>
  <course>11.32</course>
  <speed>0.022360679774997897</speed>
  <fix>3d</fix>
</trkpt>
<trkpt lat="-27.274439" lon="151.290064">
  <ele>343.1</ele>
  <time>2026-09-01T19:49:47Z</time>
  <course>270.0</course>
  <speed>0.0</speed>
  <fix>3d</fix>
</trkpt>
<trkpt lat="-27.2744392" lon="151.2900641">
  <ele>342.98</ele>
  <time>2026-09-01T19:49:47Z</time>
  <course>11.32</course>
  <speed>0.022360679774997897</speed>
  <fix>3d</fix>
</trkpt>
<trkpt lat="-27.274439" lon="151.290064">
  <ele>343.1</ele>
  <time>2026-09-01T19:49:47Z</time>
  <course>270.0</course>
  <speed>0.0</speed>
  <fix>3d</fix>
</trkpt>
<trkpt lat="-27.2744392" lon="151.2900641">
  <ele>342.97</ele>
  <time>2026-09-01T19:49:47Z</time>
  <course>11.32</course>
  <speed>0.022360679774997897</speed>
  <fix>3d</fix>
</trkpt>
<trkpt lat="-27.274439" lon="151.290064">
  <ele>343.1</ele>
  <time>2026-09-01T19:49:47Z</time>
  <course>270.0</course>
  <speed>0.0</speed>
  <fix>3d</fix>
</trkpt>
<trkpt lat="-27.2744392" lon="151.2900641">
  <ele>342.97</ele>
  <time>2026-09-01T19:49:47Z</time>
  <course>11.32</course>
  <speed>0.022360679774997897</speed>
  <fix>3d</fix>
</trkpt>
<trkpt lat="-27.274439" lon="151.290064">
  <ele>343.1</ele>
  <time>2026-09-01T19:49:47Z</time>
  <course>270.0</course>
  <speed>0.0</speed>
  <fix>3d</fix>
</trkpt>
<trkpt lat="-27.2744392" lon="151.2900641">
  <ele>342.97</ele>
  <time>2026-09-01T19:49:47Z</time>
  <course>11.32</course>
  <speed>0.022360679774997897</speed>
  <fix>3d</fix>
</trkpt>
<trkpt lat="-27.274439" lon="151.290064">
  <ele>343.1</ele>
  <time>2026-09-01T19:49:47Z</time>
  <course>270.0</course>
  <speed>0.0</speed>
  <fix>3d</fix>
</trkpt>
<trkpt lat="-27.2744392" lon="151.2900641">
  <ele>342.96</ele>
  <time>2026-09-01T19:49:47Z</time>
  <course>11.32</course>
  <speed>0.01414213562373095</speed>
  <fix>3d</fix>
</trkpt>
<trkpt lat="-27.274439" lon="151.290064">
  <ele>343.1</ele>
  <time>2026-09-01T19:49:47Z</time>
  <course>270.0</course>
  <speed>0.0</speed>
  <fix>3d</fix>
</trkpt>
<trkpt lat="-27.2744392" lon="151.2900641">
  <ele>342.96</ele>
  <time>2026-09-01T19:49:47Z</time>
  <course>11.32</course>
  <speed>0.01414213562373095</speed>
  <fix>3d</fix>
</trkpt>
<trkpt lat="-27.274439" lon="151.290064">
  <ele>343.1</ele>
  <time>2026-09-01T19:49:47Z</time>
  <course>270.0</course>
  <speed>0.0</speed>
  <fix>3d</fix>
</trkpt>
<trkpt lat="-27.2744392" lon="151.2900641">
  <ele>342.96</ele>
  <time>2026-09-01T19:49:47Z</time>
  <course>11.32</course>
  <speed>0.01414213562373095</speed>
  <fix>3d</fix>
</trkpt>
<trkpt lat="-27.274439" lon="151.290064">
  <ele>343.1</ele>
  <time>2026-09-01T19:49:47Z</time>
  <course>270.0</course>
  <speed>0.0</speed>
  <fix>3d</fix>
</trkpt>
<trkpt lat="-27.2744392" lon="151.2900641">
  <ele>342.95</ele>
  <time>2026-09-01T19:49:47Z</time>
  <course>11.32</course>
  <speed>0.01414213562373095</speed>
  <fix>3d</fix>
</trkpt>
<trkpt lat="-27.274439" lon="151.290064">
  <ele>343.1</ele>
  <time>2026-09-01T19:49:47Z</time>
  <course>270.0</course>
  <speed>0.0</speed>
  <fix>3d</fix>
</trkpt>
<trkpt lat="-27.2744392" lon="151.2900641">
  <ele>342.95</ele>
  <time>2026-09-01T19:49:47Z</time>
  <course>11.32</course>
  <speed>0.01414213562373095</speed>
  <fix>3d</fix>
</trkpt>
<trkpt lat="-27.274439" lon="151.290064">
  <ele>343.1</ele>
  <time>2026-09-01T19:49:47Z</time>
  <course>270.0</course>
  <speed>0.0</speed>
  <fix>3d</fix>
</trkpt>
<trkpt lat="-27.2744392" lon="151.2900641">
  <ele>342.95</ele>
  <time>2026-09-01T19:49:47Z</time>
  <course>11.32</course>
  <speed>0.01414213562373095</speed>
  <fix>3d</fix>
</trkpt>
<trkpt lat="-27.274439" lon="151.290064">
  <ele>343.1</ele>
  <time>2026-09-01T19:49:47Z</time>
  <course>270.0</course>
  <speed>0.0</speed>
  <fix>3d</fix>
</trkpt>
<trkpt lat="-27.2744392" lon="151.2900641">
  <ele>342.95</ele>
  <time>2026-09-01T19:49:47Z</time>
  <course>11.32</course>
  <speed>0.01414213562373095</speed>
  <fix>3d</fix>
</trkpt>
<trkpt lat="-27.274439" lon="151.290064">
  <ele>343.1</ele>
  <time>2026-09-01T19:49:47Z</time>
  <course>270.0</course>
  <speed>0.0</speed>
  <fix>3d</fix>
</trkpt>
<trkpt lat="-27.2744392" lon="151.2900641">
  <ele>342.95</ele>
  <time>2026-09-01T19:49:47Z</time>
  <course>11.32</course>
  <speed>0.01414213562373095</speed>
  <fix>3d</fix>
</trkpt>
<trkpt lat="-27.274439" lon="151.290064">
  <ele>343.1</ele>
  <time>2026-09-01T19:49:47Z</time>
  <course>270.0</course>
  <speed>0.0</speed>
  <fix>3d</fix>
</trkpt>
<trkpt lat="-27.2744392" lon="151.2900641">
  <ele>342.94</ele>
  <time>2026-09-01T19:49:47Z</time>
  <course>11.32</course>
  <speed>0.01414213562373095</speed>
  <fix>3d</fix>
</trkpt>
<trkpt lat="-27.274439" lon="151.290064">
  <ele>343.1</ele>
  <time>2026-09-01T19:49:47Z</time>
  <course>270.0</course>
  <speed>0.0</speed>
  <fix>3d</fix>
</trkpt>
<trkpt lat="-27.2744392" lon="151.2900641">
  <ele>342.94</ele>
  <time>2026-09-01T19:49:47Z</time>
  <course>11.32</course>
  <speed>0.01414213562373095</speed>
  <fix>3d</fix>
</trkpt>
<trkpt lat="-27.274439" lon="151.290064">
  <ele>343.1</ele>
  <time>2026-09-01T19:49:47Z</time>
  <course>270.0</course>
  <speed>0.0</speed>
  <fix>3d</fix>
</trkpt>
<trkpt lat="-27.2744392" lon="151.2900641">
  <ele>342.94</ele>
  <time>2026-09-01T19:49:47Z</time>
  <course>11.32</course>
  <speed>0.01414213562373095</speed>
  <fix>3d</fix>
</trkpt>
<trkpt lat="-27.274439" lon="151.290064">
  <ele>343.1</ele>
  <time>2026-09-01T19:49:47Z</time>
  <course>270.0</course>
  <speed>0.0</speed>
  <fix>3d</fix>
</trkpt>
<trkpt lat="-27.2744392" lon="151.2900641">
  <ele>342.93</ele>
  <time>2026-09-01T19:49:47Z</time>
  <course>11.32</course>
  <speed>0.01414213562373095</speed>
  <fix>3d</fix>
</trkpt>
<trkpt lat="-27.274439" lon="151.290064">
  <ele>343.1</ele>
  <time>2026-09-01T19:49:47Z</time>
  <course>270.0</course>
  <speed>0.0</speed>
  <fix>3d</fix>
</trkpt>
<trkpt lat="-27.2744392" lon="151.2900641">
  <ele>342.93</ele>
  <time>2026-09-01T19:49:47Z</time>
  <course>11.32</course>
  <speed>0.01414213562373095</speed>
  <fix>3d</fix>
</trkpt>
<trkpt lat="-27.274439" lon="151.290064">
  <ele>343.1</ele>
  <time>2026-09-01T19:49:47Z</time>
  <course>270.0</course>
  <speed>0.0</speed>
  <fix>3d</fix>
</trkpt>
<trkpt lat="-27.2744392" lon="151.2900641">
  <ele>342.93</ele>
  <time>2026-09-01T19:49:47Z</time>
  <course>11.32</course>
  <speed>0.01414213562373095</speed>
  <fix>3d</fix>
</trkpt>
<trkpt lat="-27.274439" lon="151.290064">
  <ele>343.1</ele>
  <time>2026-09-01T19:49:47Z</time>
  <course>270.0</course>
  <speed>0.0</speed>
  <fix>3d</fix>
</trkpt>
<trkpt lat="-27.2744392" lon="151.2900641">
  <ele>342.92</ele>
  <time>2026-09-01T19:49:47Z</time>
  <course>11.32</course>
  <speed>0.01414213562373095</speed>
  <fix>3d</fix>
</trkpt>
<trkpt lat="-27.274439" lon="151.290064">
  <ele>343.1</ele>
  <time>2026-09-01T19:49:47Z</time>
  <course>270.0</course>
  <speed>0.0</speed>
  <fix>3d</fix>
</trkpt>
<trkpt lat="-27.2744392" lon="151.2900641">
  <ele>342.92</ele>
  <time>2026-09-01T19:49:47Z</time>
  <course>11.32</course>
  <speed>0.01414213562373095</speed>
  <fix>3d</fix>
</trkpt>
<trkpt lat="-27.274439" lon="151.290064">
  <ele>343.1</ele>
  <time>2026-09-01T19:49:47Z</time>
  <course>270.0</course>
  <speed>0.0</speed>
  <fix>3d</fix>
</trkpt>
<trkpt lat="-27.2744392" lon="151.2900641">
  <ele>342.92</ele>
  <time>2026-09-01T19:49:47Z</time>
  <course>11.32</course>
  <speed>0.01414213562373095</speed>
  <fix>3d</fix>
</trkpt>
<trkpt lat="-27.274439" lon="151.290064">
  <ele>343.1</ele>
  <time>2026-09-01T19:49:47Z</time>
  <course>270.0</course>
  <speed>0.0</speed>
  <fix>3d</fix>
</trkpt>
<trkpt lat="-27.2744392" lon="151.2900641">
  <ele>342.92</ele>
  <time>2026-09-01T19:49:47Z</time>
  <course>11.32</course>
  <speed>0.022360679774997897</speed>
  <fix>3d</fix>
</trkpt>
<trkpt lat="-27.274439" lon="151.290064">
  <ele>343.1</ele>
  <time>2026-09-01T19:49:47Z</time>
  <course>270.0</course>
  <speed>0.0</speed>
  <fix>3d</fix>
</trkpt>
<trkpt lat="-27.2744392" lon="151.2900641">
  <ele>342.92</ele>
  <time>2026-09-01T19:49:47Z</time>
  <course>11.32</course>
  <speed>0.022360679774997897</speed>
  <fix>3d</fix>
</trkpt>
<trkpt lat="-27.274439" lon="151.290064">
  <ele>343.1</ele>
  <time>2026-09-01T19:49:47Z</time>
  <course>270.0</course>
  <speed>0.0</speed>
  <fix>3d</fix>
</trkpt>
<trkpt lat="-27.2744392" lon="151.2900641">
  <ele>342.91</ele>
  <time>2026-09-01T19:49:47Z</time>
  <course>11.32</course>
  <speed>0.022360679774997897</speed>
  <fix>3d</fix>
</trkpt>
<trkpt lat="-27.274439" lon="151.290064">
  <ele>343.1</ele>
  <time>2026-09-01T19:49:47Z</time>
  <course>270.0</course>
  <speed>0.0</speed>
  <fix>3d</fix>
</trkpt>
<trkpt lat="-27.2744392" lon="151.2900641">
  <ele>342.91</ele>
  <time>2026-09-01T19:49:47Z</time>
  <course>11.32</course>
  <speed>0.022360679774997897</speed>
  <fix>3d</fix>
</trkpt>
<trkpt lat="-27.274439" lon="151.290064">
  <ele>343.1</ele>
  <time>2026-09-01T19:49:47Z</time>
  <course>270.0</course>
  <speed>0.0</speed>
  <fix>3d</fix>
</trkpt>
<trkpt lat="-27.2744392" lon="151.2900641">
  <ele>342.91</ele>
  <time>2026-09-01T19:49:47Z</time>
  <course>11.32</course>
  <speed>0.022360679774997897</speed>
  <fix>3d</fix>
</trkpt>
<trkpt lat="-27.274439" lon="151.290064">
  <ele>343.1</ele>
  <time>2026-09-01T19:49:47Z</time>
  <course>270.0</course>
  <speed>0.0</speed>
  <fix>3d</fix>
</trkpt>
<trkpt lat="-27.2744392" lon="151.2900641">
  <ele>342.91</ele>
  <time>2026-09-01T19:49:47Z</time>
  <course>11.32</course>
  <speed>0.022360679774997897</speed>
  <fix>3d</fix>
</trkpt>
<trkpt lat="-27.274439" lon="151.290064">
  <ele>343.1</ele>
  <time>2026-09-01T19:49:47Z</time>
  <course>270.0</course>
  <speed>0.0</speed>
  <fix>3d</fix>
</trkpt>
<trkpt lat="-27.2744392" lon="151.2900641">
  <ele>342.91</ele>
  <time>2026-09-01T19:49:47Z</time>
  <course>11.32</course>
  <speed>0.022360679774997897</speed>
  <fix>3d</fix>
</trkpt>
<trkpt lat="-27.274439" lon="151.290064">
  <ele>343.1</ele>
  <time>2026-09-01T19:49:47Z</time>
  <course>270.0</course>
  <speed>0.0</speed>
  <fix>3d</fix>
</trkpt>
<trkpt lat="-27.2744392" lon="151.2900641">
  <ele>342.91</ele>
  <time>2026-09-01T19:49:47Z</time>
  <course>11.32</course>
  <speed>0.022360679774997897</speed>
  <fix>3d</fix>
</trkpt>
<trkpt lat="-27.274439" lon="151.290064">
  <ele>343.1</ele>
  <time>2026-09-01T19:49:47Z</time>
  <course>270.0</course>
  <speed>0.0</speed>
  <fix>3d</fix>
</trkpt>
<trkpt lat="-27.2744392" lon="151.2900641">
  <ele>342.91</ele>
  <time>2026-09-01T19:49:47Z</time>
  <course>11.32</course>
  <speed>0.022360679774997897</speed>
  <fix>3d</fix>
</trkpt>
<trkpt lat="-27.274439" lon="151.290064">
  <ele>343.1</ele>
  <time>2026-09-01T19:49:47Z</time>
  <course>270.0</course>
  <speed>0.0</speed>
  <fix>3d</fix>
</trkpt>
<trkpt lat="-27.2744392" lon="151.2900641">
  <ele>342.91</ele>
  <time>2026-09-01T19:49:47Z</time>
  <course>11.32</course>
  <speed>0.022360679774997897</speed>
  <fix>3d</fix>
</trkpt>
<trkpt lat="-27.274439" lon="151.290064">
  <ele>343.1</ele>
  <time>2026-09-01T19:49:47Z</time>
  <course>270.0</course>
  <speed>0.0</speed>
  <fix>3d</fix>
</trkpt>
<trkpt lat="-27.2744392" lon="151.2900641">
  <ele>342.91</ele>
  <time>2026-09-01T19:49:47Z</time>
  <course>11.32</course>
  <speed>0.022360679774997897</speed>
  <fix>3d</fix>
</trkpt>
<trkpt lat="-27.274439" lon="151.290064">
  <ele>343.1</ele>
  <time>2026-09-01T19:49:47Z</time>
  <course>270.0</course>
  <speed>0.0</speed>
  <fix>3d</fix>
</trkpt>
<trkpt lat="-27.2744392" lon="151.2900641">
  <ele>343.09</ele>
  <time>2026-09-01T19:49:47Z</time>
  <course>11.32</course>
  <speed>0.022360679774997897</speed>
  <fix>3d</fix>
</trkpt>
<trkpt lat="-27.274439" lon="151.290064">
  <ele>343.1</ele>
  <time>2026-09-01T19:49:47Z</time>
  <course>270.0</course>
  <speed>0.0</speed>
  <fix>3d</fix>
</trkpt>
<trkpt lat="-27.2744392" lon="151.2900641">
  <ele>343.09</ele>
  <time>2026-09-01T19:49:47Z</time>
  <course>11.32</course>
  <speed>0.022360679774997897</speed>
  <fix>3d</fix>
</trkpt>
<trkpt lat="-27.274439" lon="151.290064">
  <ele>343.1</ele>
  <time>2026-09-01T19:49:47Z</time>
  <course>270.0</course>
  <speed>0.0</speed>
  <fix>3d</fix>
</trkpt>
<trkpt lat="-27.2744392" lon="151.2900641">
  <ele>343.09</ele>
  <time>2026-09-01T19:49:47Z</time>
  <course>11.32</course>
  <speed>0.022360679774997897</speed>
  <fix>3d</fix>
</trkpt>
<trkpt lat="-27.274439" lon="151.290064">
  <ele>343.1</ele>
  <time>2026-09-01T19:49:47Z</time>
  <course>270.0</course>
  <speed>0.0</speed>
  <fix>3d</fix>
</trkpt>
<trkpt lat="-27.2744392" lon="151.2900641">
  <ele>343.09</ele>
  <time>2026-09-01T19:49:47Z</time>
  <course>11.32</course>
  <speed>0.022360679774997897</speed>
  <fix>3d</fix>
</trkpt>
<trkpt lat="-27.274439" lon="151.290064">
  <ele>343.1</ele>
  <time>2026-09-01T19:49:47Z</time>
  <course>270.0</course>
  <speed>0.0</speed>
  <fix>3d</fix>
</trkpt>
<trkpt lat="-27.2744392" lon="151.2900641">
  <ele>343.09</ele>
  <time>2026-09-01T19:49:47Z</time>
  <course>11.32</course>
  <speed>0.022360679774997897</speed>
  <fix>3d</fix>
</trkpt>
<trkpt lat="-27.274439" lon="151.290064">
  <ele>343.1</ele>
  <time>2026-09-01T19:49:47Z</time>
  <course>270.0</course>
  <speed>0.0</speed>
  <fix>3d</fix>
</trkpt>
<trkpt lat="-27.2744392" lon="151.2900641">
  <ele>343.09</ele>
  <time>2026-09-01T19:49:47Z</time>
  <course>11.32</course>
  <speed>0.022360679774997897</speed>
  <fix>3d</fix>
</trkpt>
<trkpt lat="-27.274439" lon="151.290064">
  <ele>343.1</ele>
  <time>2026-09-01T19:49:47Z</time>
  <course>270.0</course>
  <speed>0.0</speed>
  <fix>3d</fix>
</trkpt>
<trkpt lat="-27.2744392" lon="151.2900641">
  <ele>343.09</ele>
  <time>2026-09-01T19:49:47Z</time>
  <course>11.32</course>
  <speed>0.022360679774997897</speed>
  <fix>3d</fix>
</trkpt>
<trkpt lat="-27.274439" lon="151.290064">
  <ele>343.1</ele>
  <time>2026-09-01T19:49:47Z</time>
  <course>270.0</course>
  <speed>0.0</speed>
  <fix>3d</fix>
</trkpt>
<trkpt lat="-27.2744392" lon="151.2900641">
  <ele>343.09</ele>
  <time>2026-09-01T19:49:47Z</time>
  <course>11.32</course>
  <speed>0.022360679774997897</speed>
  <fix>3d</fix>
</trkpt>
<trkpt lat="-27.274439" lon="151.290064">
  <ele>343.1</ele>
  <time>2026-09-01T19:49:47Z</time>
  <course>270.0</course>
  <speed>0.0</speed>
  <fix>3d</fix>
</trkpt>
<trkpt lat="-27.2744392" lon="151.2900641">
  <ele>343.09</ele>
  <time>2026-09-01T19:49:47Z</time>
  <course>11.32</course>
  <speed>0.022360679774997897</speed>
  <fix>3d</fix>
</trkpt>
<trkpt lat="-27.274439" lon="151.290064">
  <ele>343.1</ele>
  <time>2026-09-01T19:49:47Z</time>
  <course>270.0</course>
  <speed>0.0</speed>
  <fix>3d</fix>
</trkpt>
<trkpt lat="-27.2744392" lon="151.2900641">
  <ele>343.09</ele>
  <time>2026-09-01T19:49:47Z</time>
  <course>11.32</course>
  <speed>0.022360679774997897</speed>
  <fix>3d</fix>
</trkpt>
<trkpt lat="-27.274439" lon="151.290064">
  <ele>343.1</ele>
  <time>2026-09-01T19:49:47Z</time>
  <course>270.0</course>
  <speed>0.0</speed>
  <fix>3d</fix>
</trkpt>
<trkpt lat="-27.2744392" lon="151.2900641">
  <ele>343.08</ele>
  <time>2026-09-01T19:49:47Z</time>
  <course>11.32</course>
  <speed>0.022360679774997897</speed>
  <fix>3d</fix>
</trkpt>
<trkpt lat="-27.274439" lon="151.290064">
  <ele>343.1</ele>
  <time>2026-09-01T19:49:47Z</time>
  <course>270.0</course>
  <speed>0.0</speed>
  <fix>3d</fix>
</trkpt>
<trkpt lat="-27.2744392" lon="151.2900641">
  <ele>343.08</ele>
  <time>2026-09-01T19:49:47Z</time>
  <course>11.32</course>
  <speed>0.022360679774997897</speed>
  <fix>3d</fix>
</trkpt>
<trkpt lat="-27.274439" lon="151.290064">
  <ele>343.1</ele>
  <time>2026-09-01T19:49:47Z</time>
  <course>270.0</course>
  <speed>0.0</speed>
  <fix>3d</fix>
</trkpt>
<trkpt lat="-27.2744392" lon="151.2900641">
  <ele>343.08</ele>
  <time>2026-09-01T19:49:47Z</time>
  <course>11.32</course>
  <speed>0.022360679774997897</speed>
  <fix>3d</fix>
</trkpt>
<trkpt lat="-27.274439" lon="151.290064">
  <ele>343.1</ele>
  <time>2026-09-01T19:49:47Z</time>
  <course>270.0</course>
  <speed>0.0</speed>
  <fix>3d</fix>
</trkpt>
<trkpt lat="-27.2744392" lon="151.2900641">
  <ele>343.08</ele>
  <time>2026-09-01T19:49:47Z</time>
  <course>11.32</course>
  <speed>0.022360679774997897</speed>
  <fix>3d</fix>
</trkpt>
<trkpt lat="-27.274439" lon="151.290064">
  <ele>343.1</ele>
  <time>2026-09-01T19:49:47Z</time>
  <course>270.0</course>
  <speed>0.0</speed>
  <fix>3d</fix>
</trkpt>
<trkpt lat="-27.2744392" lon="151.2900641">
  <ele>343.08</ele>
  <time>2026-09-01T19:49:47Z</time>
  <course>11.32</course>
  <speed>0.022360679774997897</speed>
  <fix>3d</fix>
</trkpt>
<trkpt lat="-27.274439" lon="151.290064">
  <ele>343.1</ele>
  <time>2026-09-01T19:49:47Z</time>
  <course>270.0</course>
  <speed>0.0</speed>
  <fix>3d</fix>
</trkpt>
<trkpt lat="-27.2744392" lon="151.2900641">
  <ele>343.07</ele>
  <time>2026-09-01T19:49:47Z</time>
  <course>11.32</course>
  <speed>0.022360679774997897</speed>
  <fix>3d</fix>
</trkpt>
<trkpt lat="-27.274439" lon="151.290064">
  <ele>343.1</ele>
  <time>2026-09-01T19:49:47Z</time>
  <course>270.0</course>
  <speed>0.0</speed>
  <fix>3d</fix>
</trkpt>
<trkpt lat="-27.2744392" lon="151.2900641">
  <ele>343.07</ele>
  <time>2026-09-01T19:49:47Z</time>
  <course>11.32</course>
  <speed>0.022360679774997897</speed>
  <fix>3d</fix>
</trkpt>
<trkpt lat="-27.274439" lon="151.290064">
  <ele>343.1</ele>
  <time>2026-09-01T19:49:47Z</time>
  <course>270.0</course>
  <speed>0.0</speed>
  <fix>3d</fix>
</trkpt>
<trkpt lat="-27.2744392" lon="151.2900641">
  <ele>343.07</ele>
  <time>2026-09-01T19:49:47Z</time>
  <course>11.32</course>
  <speed>0.022360679774997897</speed>
  <fix>3d</fix>
</trkpt>
<trkpt lat="-27.274439" lon="151.290064">
  <ele>343.1</ele>
  <time>2026-09-01T19:49:47Z</time>
  <course>270.0</course>
  <speed>0.0</speed>
  <fix>3d</fix>
</trkpt>
<trkpt lat="-27.2744392" lon="151.2900641">
  <ele>343.06</ele>
  <time>2026-09-01T19:49:47Z</time>
  <course>11.32</course>
  <speed>0.022360679774997897</speed>
  <fix>3d</fix>
</trkpt>
<trkpt lat="-27.274439" lon="151.290064">
  <ele>343.1</ele>
  <time>2026-09-01T19:49:47Z</time>
  <course>270.0</course>
  <speed>0.0</speed>
  <fix>3d</fix>
</trkpt>
<trkpt lat="-27.2744392" lon="151.2900641">
  <ele>343.06</ele>
  <time>2026-09-01T19:49:47Z</time>
  <course>11.32</course>
  <speed>0.022360679774997897</speed>
  <fix>3d</fix>
</trkpt>
<trkpt lat="-27.274439" lon="151.290064">
  <ele>343.1</ele>
  <time>2026-09-01T19:49:47Z</time>
  <course>270.0</course>
  <speed>0.0</speed>
  <fix>3d</fix>
</trkpt>
<trkpt lat="-27.2744392" lon="151.2900641">
  <ele>343.05</ele>
  <time>2026-09-01T19:49:47Z</time>
  <course>11.32</course>
  <speed>0.022360679774997897</speed>
  <fix>3d</fix>
</trkpt>
<trkpt lat="-27.274439" lon="151.290064">
  <ele>343.1</ele>
  <time>2026-09-01T19:49:47Z</time>
  <course>270.0</course>
  <speed>0.0</speed>
  <fix>3d</fix>
</trkpt>
<trkpt lat="-27.2744392" lon="151.2900641">
  <ele>343.05</ele>
  <time>2026-09-01T19:49:47Z</time>
  <course>11.32</course>
  <speed>0.022360679774997897</speed>
  <fix>3d</fix>
</trkpt>
<trkpt lat="-27.274439" lon="151.290064">
  <ele>343.1</ele>
  <time>2026-09-01T19:49:47Z</time>
  <course>270.0</course>
  <speed>0.0</speed>
  <fix>3d</fix>
</trkpt>
<trkpt lat="-27.2744392" lon="151.2900641">
  <ele>343.05</ele>
  <time>2026-09-01T19:49:47Z</time>
  <course>11.32</course>
  <speed>0.022360679774997897</speed>
  <fix>3d</fix>
</trkpt>
<trkpt lat="-27.274439" lon="151.290064">
  <ele>343.1</ele>
  <time>2026-09-01T19:49:47Z</time>
  <course>270.0</course>
  <speed>0.0</speed>
  <fix>3d</fix>
</trkpt>
<trkpt lat="-27.2744392" lon="151.2900641">
  <ele>343.04</ele>
  <time>2026-09-01T19:49:47Z</time>
  <course>11.32</course>
  <speed>0.022360679774997897</speed>
  <fix>3d</fix>
</trkpt>
<trkpt lat="-27.274439" lon="151.290064">
  <ele>343.1</ele>
  <time>2026-09-01T19:49:47Z</time>
  <course>270.0</course>
  <speed>0.0</speed>
  <fix>3d</fix>
</trkpt>
<trkpt lat="-27.2744392" lon="151.2900641">
  <ele>343.04</ele>
  <time>2026-09-01T19:49:48Z</time>
  <course>11.32</course>
  <speed>0.022360679774997897</speed>
  <fix>3d</fix>
</trkpt>
<trkpt lat="-27.274439" lon="151.290064">
  <ele>343.1</ele>
  <time>2026-09-01T19:49:48Z</time>
  <course>270.0</course>
  <speed>0.0</speed>
  <fix>3d</fix>
</trkpt>
<trkpt lat="-27.2744392" lon="151.2900641">
  <ele>343.03</ele>
  <time>2026-09-01T19:49:48Z</time>
  <course>11.32</course>
  <speed>0.022360679774997897</speed>
  <fix>3d</fix>
</trkpt>
<trkpt lat="-27.274439" lon="151.290064">
  <ele>343.1</ele>
  <time>2026-09-01T19:49:48Z</time>
  <course>270.0</course>
  <speed>0.0</speed>
  <fix>3d</fix>
</trkpt>
<trkpt lat="-27.2744392" lon="151.2900641">
  <ele>343.03</ele>
  <time>2026-09-01T19:49:48Z</time>
  <course>11.32</course>
  <speed>0.022360679774997897</speed>
  <fix>3d</fix>
</trkpt>
<trkpt lat="-27.274439" lon="151.290064">
  <ele>343.1</ele>
  <time>2026-09-01T19:49:48Z</time>
  <course>270.0</course>
  <speed>0.0</speed>
  <fix>3d</fix>
</trkpt>
<trkpt lat="-27.2744392" lon="151.2900641">
  <ele>343.03</ele>
  <time>2026-09-01T19:49:48Z</time>
  <course>11.32</course>
  <speed>0.022360679774997897</speed>
  <fix>3d</fix>
</trkpt>
<trkpt lat="-27.274439" lon="151.290064">
  <ele>343.1</ele>
  <time>2026-09-01T19:49:48Z</time>
  <course>270.0</course>
  <speed>0.0</speed>
  <fix>3d</fix>
</trkpt>
<trkpt lat="-27.2744392" lon="151.2900641">
  <ele>343.03</ele>
  <time>2026-09-01T19:49:48Z</time>
  <course>11.32</course>
  <speed>0.022360679774997897</speed>
  <fix>3d</fix>
</trkpt>
<trkpt lat="-27.274439" lon="151.290064">
  <ele>343.1</ele>
  <time>2026-09-01T19:49:48Z</time>
  <course>270.0</course>
  <speed>0.0</speed>
  <fix>3d</fix>
</trkpt>
<trkpt lat="-27.2744392" lon="151.2900641">
  <ele>343.03</ele>
  <time>2026-09-01T19:49:48Z</time>
  <course>11.32</course>
  <speed>0.022360679774997897</speed>
  <fix>3d</fix>
</trkpt>
<trkpt lat="-27.274439" lon="151.290064">
  <ele>343.1</ele>
  <time>2026-09-01T19:49:48Z</time>
  <course>270.0</course>
  <speed>0.0</speed>
  <fix>3d</fix>
</trkpt>
<trkpt lat="-27.2744392" lon="151.2900641">
  <ele>343.03</ele>
  <time>2026-09-01T19:49:48Z</time>
  <course>11.32</course>
  <speed>0.022360679774997897</speed>
  <fix>3d</fix>
</trkpt>
<trkpt lat="-27.274439" lon="151.290064">
  <ele>343.1</ele>
  <time>2026-09-01T19:49:48Z</time>
  <course>270.0</course>
  <speed>0.0</speed>
  <fix>3d</fix>
</trkpt>
<trkpt lat="-27.2744392" lon="151.2900641">
  <ele>343.02</ele>
  <time>2026-09-01T19:49:48Z</time>
  <course>11.32</course>
  <speed>0.022360679774997897</speed>
  <fix>3d</fix>
</trkpt>
<trkpt lat="-27.274439" lon="151.290064">
  <ele>343.1</ele>
  <time>2026-09-01T19:49:48Z</time>
  <course>270.0</course>
  <speed>0.0</speed>
  <fix>3d</fix>
</trkpt>
<trkpt lat="-27.2744392" lon="151.2900641">
  <ele>343.02</ele>
  <time>2026-09-01T19:49:48Z</time>
  <course>11.32</course>
  <speed>0.022360679774997897</speed>
  <fix>3d</fix>
</trkpt>
<trkpt lat="-27.274439" lon="151.290064">
  <ele>343.1</ele>
  <time>2026-09-01T19:49:48Z</time>
  <course>270.0</course>
  <speed>0.0</speed>
  <fix>3d</fix>
</trkpt>
<trkpt lat="-27.2744392" lon="151.2900641">
  <ele>343.02</ele>
  <time>2026-09-01T19:49:48Z</time>
  <course>11.32</course>
  <speed>0.022360679774997897</speed>
  <fix>3d</fix>
</trkpt>
<trkpt lat="-27.274439" lon="151.290064">
  <ele>343.1</ele>
  <time>2026-09-01T19:49:48Z</time>
  <course>270.0</course>
  <speed>0.0</speed>
  <fix>3d</fix>
</trkpt>
<trkpt lat="-27.2744392" lon="151.2900641">
  <ele>343.02</ele>
  <time>2026-09-01T19:49:48Z</time>
  <course>11.32</course>
  <speed>0.022360679774997897</speed>
  <fix>3d</fix>
</trkpt>
<trkpt lat="-27.274439" lon="151.290064">
  <ele>343.1</ele>
  <time>2026-09-01T19:49:48Z</time>
  <course>270.0</course>
  <speed>0.0</speed>
  <fix>3d</fix>
</trkpt>
<trkpt lat="-27.2744392" lon="151.2900641">
  <ele>343.02</ele>
  <time>2026-09-01T19:49:48Z</time>
  <course>11.32</course>
  <speed>0.022360679774997897</speed>
  <fix>3d</fix>
</trkpt>
<trkpt lat="-27.274439" lon="151.290064">
  <ele>343.1</ele>
  <time>2026-09-01T19:49:48Z</time>
  <course>270.0</course>
  <speed>0.0</speed>
  <fix>3d</fix>
</trkpt>
<trkpt lat="-27.2744392" lon="151.2900641">
  <ele>343.02</ele>
  <time>2026-09-01T19:49:48Z</time>
  <course>11.32</course>
  <speed>0.022360679774997897</speed>
  <fix>3d</fix>
</trkpt>
<trkpt lat="-27.274439" lon="151.290064">
  <ele>343.1</ele>
  <time>2026-09-01T19:49:48Z</time>
  <course>270.0</course>
  <speed>0.0</speed>
  <fix>3d</fix>
</trkpt>
<trkpt lat="-27.2744392" lon="151.2900641">
  <ele>343.02</ele>
  <time>2026-09-01T19:49:48Z</time>
  <course>11.32</course>
  <speed>0.022360679774997897</speed>
  <fix>3d</fix>
</trkpt>
<trkpt lat="-27.274439" lon="151.290064">
  <ele>343.1</ele>
  <time>2026-09-01T19:49:48Z</time>
  <course>270.0</course>
  <speed>0.0</speed>
  <fix>3d</fix>
</trkpt>
<trkpt lat="-27.2744392" lon="151.2900641">
  <ele>343.02</ele>
  <time>2026-09-01T19:49:48Z</time>
  <course>11.32</course>
  <speed>0.022360679774997897</speed>
  <fix>3d</fix>
</trkpt>
<trkpt lat="-27.274439" lon="151.290064">
  <ele>343.1</ele>
  <time>2026-09-01T19:49:48Z</time>
  <course>270.0</course>
  <speed>0.0</speed>
  <fix>3d</fix>
</trkpt>
<trkpt lat="-27.2744392" lon="151.2900641">
  <ele>343.02</ele>
  <time>2026-09-01T19:49:48Z</time>
  <course>11.32</course>
  <speed>0.022360679774997897</speed>
  <fix>3d</fix>
</trkpt>
<trkpt lat="-27.274439" lon="151.290064">
  <ele>343.1</ele>
  <time>2026-09-01T19:49:48Z</time>
  <course>270.0</course>
  <speed>0.0</speed>
  <fix>3d</fix>
</trkpt>
<trkpt lat="-27.2744392" lon="151.2900641">
  <ele>343.02</ele>
  <time>2026-09-01T19:49:48Z</time>
  <course>11.32</course>
  <speed>0.022360679774997897</speed>
  <fix>3d</fix>
</trkpt>
<trkpt lat="-27.274439" lon="151.290064">
  <ele>343.1</ele>
  <time>2026-09-01T19:49:48Z</time>
  <course>270.0</course>
  <speed>0.0</speed>
  <fix>3d</fix>
</trkpt>
<trkpt lat="-27.2744392" lon="151.2900641">
  <ele>343.02</ele>
  <time>2026-09-01T19:49:48Z</time>
  <course>11.32</course>
  <speed>0.022360679774997897</speed>
  <fix>3d</fix>
</trkpt>
<trkpt lat="-27.274439" lon="151.290064">
  <ele>343.1</ele>
  <time>2026-09-01T19:49:48Z</time>
  <course>270.0</course>
  <speed>0.0</speed>
  <fix>3d</fix>
</trkpt>
<trkpt lat="-27.2744392" lon="151.2900641">
  <ele>343.02</ele>
  <time>2026-09-01T19:49:48Z</time>
  <course>11.32</course>
  <speed>0.022360679774997897</speed>
  <fix>3d</fix>
</trkpt>
<trkpt lat="-27.274439" lon="151.290064">
  <ele>343.1</ele>
  <time>2026-09-01T19:49:48Z</time>
  <course>270.0</course>
  <speed>0.0</speed>
  <fix>3d</fix>
</trkpt>
<trkpt lat="-27.2744392" lon="151.2900641">
  <ele>343.01</ele>
  <time>2026-09-01T19:49:48Z</time>
  <course>11.32</course>
  <speed>0.022360679774997897</speed>
  <fix>3d</fix>
</trkpt>
<trkpt lat="-27.274439" lon="151.290064">
  <ele>343.1</ele>
  <time>2026-09-01T19:49:48Z</time>
  <course>270.0</course>
  <speed>0.0</speed>
  <fix>3d</fix>
</trkpt>
<trkpt lat="-27.2744392" lon="151.2900641">
  <ele>343.01</ele>
  <time>2026-09-01T19:49:48Z</time>
  <course>11.32</course>
  <speed>0.022360679774997897</speed>
  <fix>3d</fix>
</trkpt>
<trkpt lat="-27.274439" lon="151.290064">
  <ele>343.1</ele>
  <time>2026-09-01T19:49:48Z</time>
  <course>270.0</course>
  <speed>0.0</speed>
  <fix>3d</fix>
</trkpt>
<trkpt lat="-27.2744392" lon="151.2900641">
  <ele>343.01</ele>
  <time>2026-09-01T19:49:48Z</time>
  <course>11.32</course>
  <speed>0.022360679774997897</speed>
  <fix>3d</fix>
</trkpt>
<trkpt lat="-27.274439" lon="151.290064">
  <ele>343.1</ele>
  <time>2026-09-01T19:49:48Z</time>
  <course>270.0</course>
  <speed>0.0</speed>
  <fix>3d</fix>
</trkpt>
<trkpt lat="-27.2744392" lon="151.2900641">
  <ele>343.0</ele>
  <time>2026-09-01T19:49:48Z</time>
  <course>11.32</course>
  <speed>0.022360679774997897</speed>
  <fix>3d</fix>
</trkpt>
<trkpt lat="-27.274439" lon="151.290064">
  <ele>343.1</ele>
  <time>2026-09-01T19:49:48Z</time>
  <course>270.0</course>
  <speed>0.0</speed>
  <fix>3d</fix>
</trkpt>
<trkpt lat="-27.2744392" lon="151.2900641">
  <ele>343.0</ele>
  <time>2026-09-01T19:49:48Z</time>
  <course>11.32</course>
  <speed>0.022360679774997897</speed>
  <fix>3d</fix>
</trkpt>
<trkpt lat="-27.274439" lon="151.290064">
  <ele>343.1</ele>
  <time>2026-09-01T19:49:48Z</time>
  <course>270.0</course>
  <speed>0.0</speed>
  <fix>3d</fix>
</trkpt>
<trkpt lat="-27.2744392" lon="151.2900641">
  <ele>343.0</ele>
  <time>2026-09-01T19:49:48Z</time>
  <course>11.32</course>
  <speed>0.022360679774997897</speed>
  <fix>3d</fix>
</trkpt>
<trkpt lat="-27.274439" lon="151.290064">
  <ele>343.1</ele>
  <time>2026-09-01T19:49:48Z</time>
  <course>270.0</course>
  <speed>0.0</speed>
  <fix>3d</fix>
</trkpt>
<trkpt lat="-27.2744392" lon="151.2900641">
  <ele>343.0</ele>
  <time>2026-09-01T19:49:48Z</time>
  <course>11.32</course>
  <speed>0.022360679774997897</speed>
  <fix>3d</fix>
</trkpt>
<trkpt lat="-27.274439" lon="151.290064">
  <ele>343.1</ele>
  <time>2026-09-01T19:49:48Z</time>
  <course>270.0</course>
  <speed>0.0</speed>
  <fix>3d</fix>
</trkpt>
<trkpt lat="-27.2744392" lon="151.2900641">
  <ele>342.99</ele>
  <time>2026-09-01T19:49:48Z</time>
  <course>11.32</course>
  <speed>0.022360679774997897</speed>
  <fix>3d</fix>
</trkpt>
<trkpt lat="-27.274439" lon="151.290064">
  <ele>343.1</ele>
  <time>2026-09-01T19:49:48Z</time>
  <course>270.0</course>
  <speed>0.0</speed>
  <fix>3d</fix>
</trkpt>
<trkpt lat="-26.9720619" lon="149.6127921">
  <ele>339.29</ele>
  <time>2026-09-01T19:49:48Z</time>
  <course>310.27</course>
  <speed>0.0</speed>
  <fix>3d</fix>
</trkpt>
<trkpt lat="-26.9720619" lon="149.6127921">
  <ele>339.29</ele>
  <time>2026-09-01T19:49:48Z</time>
  <course>310.27</course>
  <speed>0.0</speed>
  <fix>3d</fix>
</trkpt>
<trkpt lat="-27.274439" lon="151.290064">
  <ele>-0.01</ele>
  <time>2026-09-01T19:49:48Z</time>
  <course>0.22</course>
  <speed>0.0</speed>
  <fix>3d</fix>
</trkpt>
<trkpt lat="-27.274439" lon="151.290064">
  <ele>343.1</ele>
  <time>2026-09-01T19:49:48Z</time>
  <course>294.58</course>
  <speed>0.0</speed>
  <fix>3d</fix>
</trkpt>
<trkpt lat="-27.274439" lon="151.290064">
  <ele>0.02</ele>
  <time>2026-09-01T19:49:48Z</time>
  <course>1.2</course>
  <speed>0.0</speed>
  <fix>3d</fix>
</trkpt>
<trkpt lat="-27.274439" lon="151.290064">
  <ele>343.1</ele>
  <time>2026-09-01T19:49:48Z</time>
  <course>294.58</course>
  <speed>0.0</speed>
  <fix>3d</fix>
</trkpt>
<trkpt lat="-27.274439" lon="151.290064">
  <ele>-0.08</ele>
  <time>2026-09-01T19:49:48Z</time>
  <course>2.1</course>
  <speed>0.0</speed>
  <fix>3d</fix>
</trkpt>
<trkpt lat="-27.274439" lon="151.290064">
  <ele>343.1</ele>
  <time>2026-09-01T19:49:48Z</time>
  <course>273.33</course>
  <speed>0.0</speed>
  <fix>3d</fix>
</trkpt>
<trkpt lat="-27.274439" lon="151.290064">
  <ele>0.22</ele>
  <time>2026-09-01T19:49:48Z</time>
  <course>2.92</course>
  <speed>0.0</speed>
  <fix>3d</fix>
</trkpt>
<trkpt lat="-27.274439" lon="151.290064">
  <ele>343.1</ele>
  <time>2026-09-01T19:49:48Z</time>
  <course>273.33</course>
  <speed>0.0</speed>
  <fix>3d</fix>
</trkpt>
<trkpt lat="-27.274439" lon="151.290064">
  <ele>0.09</ele>
  <time>2026-09-01T19:49:48Z</time>
  <course>3.66</course>
  <speed>0.0</speed>
  <fix>3d</fix>
</trkpt>
<trkpt lat="-27.274439" lon="151.290064">
  <ele>343.1</ele>
  <time>2026-09-01T19:49:48Z</time>
  <course>270.44</course>
  <speed>0.0</speed>
  <fix>3d</fix>
</trkpt>
<trkpt lat="-27.274439" lon="151.290064">
  <ele>0.08</ele>
  <time>2026-09-01T19:49:48Z</time>
  <course>4.34</course>
  <speed>0.0</speed>
  <fix>3d</fix>
</trkpt>
<trkpt lat="-27.274439" lon="151.290064">
  <ele>343.1</ele>
  <time>2026-09-01T19:49:48Z</time>
  <course>270.44</course>
  <speed>0.0</speed>
  <fix>3d</fix>
</trkpt>
<trkpt lat="-27.274439" lon="151.290064">
  <ele>0.09</ele>
  <time>2026-09-01T19:49:48Z</time>
  <course>4.95</course>
  <speed>0.0</speed>
  <fix>3d</fix>
</trkpt>
<trkpt lat="-27.274439" lon="151.290064">
  <ele>343.1</ele>
  <time>2026-09-01T19:49:48Z</time>
  <course>270.05</course>
  <speed>0.0</speed>
  <fix>3d</fix>
</trkpt>
<trkpt lat="-27.274439" lon="151.290064">
  <ele>-0.05</ele>
  <time>2026-09-01T19:49:48Z</time>
  <course>5.5</course>
  <speed>0.0</speed>
  <fix>3d</fix>
</trkpt>
<trkpt lat="-27.274439" lon="151.290064">
  <ele>343.1</ele>
  <time>2026-09-01T19:49:48Z</time>
  <course>270.05</course>
  <speed>0.0</speed>
  <fix>3d</fix>
</trkpt>
<trkpt lat="-27.274439" lon="151.290064">
  <ele>343.06</ele>
  <time>2026-09-01T19:49:48Z</time>
  <course>5.98</course>
  <speed>0.0</speed>
  <fix>3d</fix>
</trkpt>
<trkpt lat="-27.274439" lon="151.290064">
  <ele>343.1</ele>
  <time>2026-09-01T19:49:48Z</time>
  <course>270.0</course>
  <speed>0.0</speed>
  <fix>3d</fix>
</trkpt>
<trkpt lat="-27.274439" lon="151.290064">
  <ele>343.18</ele>
  <time>2026-09-01T19:49:48Z</time>
  <course>6.44</course>
  <speed>0.0</speed>
  <fix>3d</fix>
</trkpt>
<trkpt lat="-27.274439" lon="151.290064">
  <ele>343.1</ele>
  <time>2026-09-01T19:49:48Z</time>
  <course>270.0</course>
  <speed>0.0</speed>
  <fix>3d</fix>
</trkpt>
<trkpt lat="-27.274439" lon="151.290064">
  <ele>342.91</ele>
  <time>2026-09-01T19:49:48Z</time>
  <course>6.85</course>
  <speed>0.0</speed>
  <fix>3d</fix>
</trkpt>
<trkpt lat="-27.274439" lon="151.290064">
  <ele>343.1</ele>
  <time>2026-09-01T19:49:48Z</time>
  <course>270.0</course>
  <speed>0.0</speed>
  <fix>3d</fix>
</trkpt>
<trkpt lat="-27.274439" lon="151.290064">
  <ele>343.06</ele>
  <time>2026-09-01T19:49:48Z</time>
  <course>7.22</course>
  <speed>0.0</speed>
  <fix>3d</fix>
</trkpt>
<trkpt lat="-27.274439" lon="151.290064">
  <ele>343.1</ele>
  <time>2026-09-01T19:49:48Z</time>
  <course>270.0</course>
  <speed>0.0</speed>
  <fix>3d</fix>
</trkpt>
<trkpt lat="-27.274439" lon="151.290064">
  <ele>343.13</ele>
  <time>2026-09-01T19:49:48Z</time>
  <course>7.56</course>
  <speed>0.0</speed>
  <fix>3d</fix>
</trkpt>
<trkpt lat="-27.274439" lon="151.290064">
  <ele>343.1</ele>
  <time>2026-09-01T19:49:48Z</time>
  <course>270.0</course>
  <speed>0.0</speed>
  <fix>3d</fix>
</trkpt>
<trkpt lat="-27.274439" lon="151.290064">
  <ele>343.04</ele>
  <time>2026-09-01T19:49:48Z</time>
  <course>7.87</course>
  <speed>0.0</speed>
  <fix>3d</fix>
</trkpt>
<trkpt lat="-27.274439" lon="151.290064">
  <ele>343.1</ele>
  <time>2026-09-01T19:49:48Z</time>
  <course>270.0</course>
  <speed>0.0</speed>
  <fix>3d</fix>
</trkpt>
<trkpt lat="-27.274439" lon="151.290064">
  <ele>342.88</ele>
  <time>2026-09-01T19:49:48Z</time>
  <course>8.14</course>
  <speed>0.0</speed>
  <fix>3d</fix>
</trkpt>
<trkpt lat="-27.274439" lon="151.290064">
  <ele>343.1</ele>
  <time>2026-09-01T19:49:48Z</time>
  <course>270.0</course>
  <speed>0.0</speed>
  <fix>3d</fix>
</trkpt>
<trkpt lat="-27.274439" lon="151.290064">
  <ele>343.02</ele>
  <time>2026-09-01T19:49:48Z</time>
  <course>8.39</course>
  <speed>0.0</speed>
  <fix>3d</fix>
</trkpt>
<trkpt lat="-27.274439" lon="151.290064">
  <ele>343.1</ele>
  <time>2026-09-01T19:49:48Z</time>
  <course>270.0</course>
  <speed>0.0</speed>
  <fix>3d</fix>
</trkpt>
<trkpt lat="-27.274439" lon="151.290064">
  <ele>343.23</ele>
  <time>2026-09-01T19:49:48Z</time>
  <course>8.63</course>
  <speed>0.0</speed>
  <fix>3d</fix>
</trkpt>
<trkpt lat="-27.274439" lon="151.290064">
  <ele>343.1</ele>
  <time>2026-09-01T19:49:48Z</time>
  <course>270.0</course>
  <speed>0.0</speed>
  <fix>3d</fix>
</trkpt>
<trkpt lat="-27.274439" lon="151.290064">
  <ele>343.17</ele>
  <time>2026-09-01T19:49:48Z</time>
  <course>8.83</course>
  <speed>0.0</speed>
  <fix>3d</fix>
</trkpt>
<trkpt lat="-27.274439" lon="151.290064">
  <ele>343.1</ele>
  <time>2026-09-01T19:49:48Z</time>
  <course>270.0</course>
  <speed>0.0</speed>
  <fix>3d</fix>
</trkpt>
<trkpt lat="-27.274439" lon="151.290064">
  <ele>343.04</ele>
  <time>2026-09-01T19:49:48Z</time>
  <course>9.01</course>
  <speed>0.0</speed>
  <fix>3d</fix>
</trkpt>
<trkpt lat="-27.274439" lon="151.290064">
  <ele>343.1</ele>
  <time>2026-09-01T19:49:48Z</time>
  <course>270.0</course>
  <speed>0.0</speed>
  <fix>3d</fix>
</trkpt>
<trkpt lat="-27.274439" lon="151.290064">
  <ele>342.89</ele>
  <time>2026-09-01T19:49:48Z</time>
  <course>9.18</course>
  <speed>0.0</speed>
  <fix>3d</fix>
</trkpt>
<trkpt lat="-27.274439" lon="151.290064">
  <ele>343.1</ele>
  <time>2026-09-01T19:49:48Z</time>
  <course>270.0</course>
  <speed>0.0</speed>
  <fix>3d</fix>
</trkpt>
<trkpt lat="-27.274439" lon="151.290064">
  <ele>343.08</ele>
  <time>2026-09-01T19:49:48Z</time>
  <course>9.33</course>
  <speed>0.0</speed>
  <fix>3d</fix>
</trkpt>
<trkpt lat="-27.274439" lon="151.290064">
  <ele>343.1</ele>
  <time>2026-09-01T19:49:48Z</time>
  <course>270.0</course>
  <speed>0.0</speed>
  <fix>3d</fix>
</trkpt>
<trkpt lat="-27.274439" lon="151.290064">
  <ele>343.19</ele>
  <time>2026-09-01T19:49:48Z</time>
  <course>9.47</course>
  <speed>0.0</speed>
  <fix>3d</fix>
</trkpt>
<trkpt lat="-27.274439" lon="151.290064">
  <ele>343.1</ele>
  <time>2026-09-01T19:49:48Z</time>
  <course>270.0</course>
  <speed>0.0</speed>
  <fix>3d</fix>
</trkpt>
<trkpt lat="-27.274439" lon="151.290064">
  <ele>342.88</ele>
  <time>2026-09-01T19:49:48Z</time>
  <course>9.59</course>
  <speed>0.0</speed>
  <fix>3d</fix>
</trkpt>
<trkpt lat="-27.274439" lon="151.290064">
  <ele>343.1</ele>
  <time>2026-09-01T19:49:48Z</time>
  <course>270.0</course>
  <speed>0.0</speed>
  <fix>3d</fix>
</trkpt>
<trkpt lat="-27.274439" lon="151.290064">
  <ele>343.17</ele>
  <time>2026-09-01T19:49:48Z</time>
  <course>9.7</course>
  <speed>0.0</speed>
  <fix>3d</fix>
</trkpt>
<trkpt lat="-27.274439" lon="151.290064">
  <ele>343.1</ele>
  <time>2026-09-01T19:49:48Z</time>
  <course>270.0</course>
  <speed>0.0</speed>
  <fix>3d</fix>
</trkpt>
<trkpt lat="-27.274439" lon="151.290064">
  <ele>342.89</ele>
  <time>2026-09-01T19:49:48Z</time>
  <course>9.8</course>
  <speed>0.0</speed>
  <fix>3d</fix>
</trkpt>
<trkpt lat="-27.274439" lon="151.290064">
  <ele>343.1</ele>
  <time>2026-09-01T19:49:48Z</time>
  <course>270.0</course>
  <speed>0.0</speed>
  <fix>3d</fix>
</trkpt>
<trkpt lat="-27.274439" lon="151.290064">
  <ele>342.99</ele>
  <time>2026-09-01T19:49:48Z</time>
  <course>9.9</course>
  <speed>0.0</speed>
  <fix>3d</fix>
</trkpt>
<trkpt lat="-27.274439" lon="151.290064">
  <ele>343.1</ele>
  <time>2026-09-01T19:49:48Z</time>
  <course>270.0</course>
  <speed>0.0</speed>
  <fix>3d</fix>
</trkpt>
<trkpt lat="-27.274439" lon="151.290064">
  <ele>342.87</ele>
  <time>2026-09-01T19:49:48Z</time>
  <course>9.98</course>
  <speed>0.0</speed>
  <fix>3d</fix>
</trkpt>
<trkpt lat="-27.274439" lon="151.290064">
  <ele>343.1</ele>
  <time>2026-09-01T19:49:48Z</time>
  <course>270.0</course>
  <speed>0.0</speed>
  <fix>3d</fix>
</trkpt>
<trkpt lat="-27.274439" lon="151.290064">
  <ele>343.09</ele>
  <time>2026-09-01T19:49:48Z</time>
  <course>10.06</course>
  <speed>0.0</speed>
  <fix>3d</fix>
</trkpt>
<trkpt lat="-27.274439" lon="151.290064">
  <ele>343.1</ele>
  <time>2026-09-01T19:49:48Z</time>
  <course>270.0</course>
  <speed>0.0</speed>
  <fix>3d</fix>
</trkpt>
<trkpt lat="-27.274439" lon="151.290064">
  <ele>343.18</ele>
  <time>2026-09-01T19:49:48Z</time>
  <course>10.13</course>
  <speed>0.0</speed>
  <fix>3d</fix>
</trkpt>
<trkpt lat="-27.274439" lon="151.290064">
  <ele>343.1</ele>
  <time>2026-09-01T19:49:48Z</time>
  <course>270.0</course>
  <speed>0.0</speed>
  <fix>3d</fix>
</trkpt>
<trkpt lat="-27.274439" lon="151.290064">
  <ele>343.05</ele>
  <time>2026-09-01T19:49:48Z</time>
  <course>10.2</course>
  <speed>0.0</speed>
  <fix>3d</fix>
</trkpt>
<trkpt lat="-27.274439" lon="151.290064">
  <ele>343.1</ele>
  <time>2026-09-01T19:49:48Z</time>
  <course>270.0</course>
  <speed>0.0</speed>
  <fix>3d</fix>
</trkpt>
<trkpt lat="-27.274439" lon="151.290064">
  <ele>342.96</ele>
  <time>2026-09-01T19:49:48Z</time>
  <course>10.25</course>
  <speed>0.0</speed>
  <fix>3d</fix>
</trkpt>
<trkpt lat="-27.274439" lon="151.290064">
  <ele>343.1</ele>
  <time>2026-09-01T19:49:48Z</time>
  <course>270.0</course>
  <speed>0.0</speed>
  <fix>3d</fix>
</trkpt>
<trkpt lat="-27.274439" lon="151.290064">
  <ele>343.1</ele>
  <time>2026-09-01T19:49:48Z</time>
  <course>10.31</course>
  <speed>0.0</speed>
  <fix>3d</fix>
</trkpt>
<trkpt lat="-27.274439" lon="151.290064">
  <ele>343.1</ele>
  <time>2026-09-01T19:49:48Z</time>
  <course>270.0</course>
  <speed>0.0</speed>
  <fix>3d</fix>
</trkpt>
<trkpt lat="-27.274439" lon="151.290064">
  <ele>343.22</ele>
  <time>2026-09-01T19:49:48Z</time>
  <course>10.35</course>
  <speed>0.0</speed>
  <fix>3d</fix>
</trkpt>
<trkpt lat="-27.274439" lon="151.290064">
  <ele>343.1</ele>
  <time>2026-09-01T19:49:48Z</time>
  <course>270.0</course>
  <speed>0.0</speed>
  <fix>3d</fix>
</trkpt>
<trkpt lat="-27.274439" lon="151.290064">
  <ele>343.17</ele>
  <time>2026-09-01T19:49:48Z</time>
  <course>10.4</course>
  <speed>0.0</speed>
  <fix>3d</fix>
</trkpt>
<trkpt lat="-27.274439" lon="151.290064">
  <ele>343.1</ele>
  <time>2026-09-01T19:49:48Z</time>
  <course>270.0</course>
  <speed>0.0</speed>
  <fix>3d</fix>
</trkpt>
<trkpt lat="-27.274439" lon="151.290064">
  <ele>343.08</ele>
  <time>2026-09-01T19:49:48Z</time>
  <course>10.44</course>
  <speed>0.0</speed>
  <fix>3d</fix>
</trkpt>
<trkpt lat="-27.274439" lon="151.290064">
  <ele>343.1</ele>
  <time>2026-09-01T19:49:48Z</time>
  <course>270.0</course>
  <speed>0.0</speed>
  <fix>3d</fix>
</trkpt>
<trkpt lat="-27.274439" lon="151.290064">
  <ele>343.04</ele>
  <time>2026-09-01T19:49:48Z</time>
  <course>10.47</course>
  <speed>0.0</speed>
  <fix>3d</fix>
</trkpt>
<trkpt lat="-27.274439" lon="151.290064">
  <ele>343.1</ele>
  <time>2026-09-01T19:49:48Z</time>
  <course>270.0</course>
  <speed>0.0</speed>
  <fix>3d</fix>
</trkpt>
<trkpt lat="-27.274439" lon="151.290064">
  <ele>343.18</ele>
  <time>2026-09-01T19:49:48Z</time>
  <course>10.5</course>
  <speed>0.0</speed>
  <fix>3d</fix>
</trkpt>
<trkpt lat="-27.274439" lon="151.290064">
  <ele>343.1</ele>
  <time>2026-09-01T19:49:48Z</time>
  <course>270.0</course>
  <speed>0.0</speed>
  <fix>3d</fix>
</trkpt>
<trkpt lat="-27.274439" lon="151.290064">
  <ele>343.12</ele>
  <time>2026-09-01T19:49:48Z</time>
  <course>10.53</course>
  <speed>0.0</speed>
  <fix>3d</fix>
</trkpt>
<trkpt lat="-27.274439" lon="151.290064">
  <ele>343.1</ele>
  <time>2026-09-01T19:49:48Z</time>
  <course>270.0</course>
  <speed>0.0</speed>
  <fix>3d</fix>
</trkpt>
<trkpt lat="-27.274439" lon="151.290064">
  <ele>343.04</ele>
  <time>2026-09-01T19:49:48Z</time>
  <course>10.56</course>
  <speed>0.0</speed>
  <fix>3d</fix>
</trkpt>
<trkpt lat="-27.274439" lon="151.290064">
  <ele>343.1</ele>
  <time>2026-09-01T19:49:48Z</time>
  <course>270.0</course>
  <speed>0.0</speed>
  <fix>3d</fix>
</trkpt>
<trkpt lat="-27.274439" lon="151.290064">
  <ele>343.07</ele>
  <time>2026-09-01T19:49:48Z</time>
  <course>10.58</course>
  <speed>0.0</speed>
  <fix>3d</fix>
</trkpt>
<trkpt lat="-27.274439" lon="151.290064">
  <ele>343.1</ele>
  <time>2026-09-01T19:49:48Z</time>
  <course>270.0</course>
  <speed>0.0</speed>
  <fix>3d</fix>
</trkpt>
<trkpt lat="-27.274439" lon="151.290064">
  <ele>343.04</ele>
  <time>2026-09-01T19:49:48Z</time>
  <course>10.6</course>
  <speed>0.0</speed>
  <fix>3d</fix>
</trkpt>
<trkpt lat="-27.274439" lon="151.290064">
  <ele>343.1</ele>
  <time>2026-09-01T19:49:48Z</time>
  <course>270.0</course>
  <speed>0.0</speed>
  <fix>3d</fix>
</trkpt>
<trkpt lat="-27.274439" lon="151.290064">
  <ele>343.01</ele>
  <time>2026-09-01T19:49:48Z</time>
  <course>10.62</course>
  <speed>0.0</speed>
  <fix>3d</fix>
</trkpt>
<trkpt lat="-27.274439" lon="151.290064">
  <ele>343.1</ele>
  <time>2026-09-01T19:49:48Z</time>
  <course>270.0</course>
  <speed>0.0</speed>
  <fix>3d</fix>
</trkpt>
<trkpt lat="-27.274439" lon="151.290064">
  <ele>343.2</ele>
  <time>2026-09-01T19:49:48Z</time>
  <course>10.64</course>
  <speed>0.0</speed>
  <fix>3d</fix>
</trkpt>
<trkpt lat="-27.274439" lon="151.290064">
  <ele>343.1</ele>
  <time>2026-09-01T19:49:48Z</time>
  <course>270.0</course>
  <speed>0.0</speed>
  <fix>3d</fix>
</trkpt>
<trkpt lat="-27.274439" lon="151.290064">
  <ele>343.24</ele>
  <time>2026-09-01T19:49:48Z</time>
  <course>10.65</course>
  <speed>0.0</speed>
  <fix>3d</fix>
</trkpt>
<trkpt lat="-27.274439" lon="151.290064">
  <ele>343.1</ele>
  <time>2026-09-01T19:49:48Z</time>
  <course>270.0</course>
  <speed>0.0</speed>
  <fix>3d</fix>
</trkpt>
<trkpt lat="-27.274439" lon="151.290064">
  <ele>342.88</ele>
  <time>2026-09-01T19:49:48Z</time>
  <course>10.67</course>
  <speed>0.0</speed>
  <fix>3d</fix>
</trkpt>
<trkpt lat="-27.274439" lon="151.290064">
  <ele>343.1</ele>
  <time>2026-09-01T19:49:48Z</time>
  <course>270.0</course>
  <speed>0.0</speed>
  <fix>3d</fix>
</trkpt>
<trkpt lat="-27.274439" lon="151.290064">
  <ele>343.21</ele>
  <time>2026-09-01T19:49:48Z</time>
  <course>10.68</course>
  <speed>0.0</speed>
  <fix>3d</fix>
</trkpt>
<trkpt lat="-27.274439" lon="151.290064">
  <ele>343.1</ele>
  <time>2026-09-01T19:49:48Z</time>
  <course>270.0</course>
  <speed>0.0</speed>
  <fix>3d</fix>
</trkpt>
<trkpt lat="-27.274439" lon="151.290064">
  <ele>343.02</ele>
  <time>2026-09-01T19:49:48Z</time>
  <course>10.69</course>
  <speed>0.0</speed>
  <fix>3d</fix>
</trkpt>
<trkpt lat="-27.274439" lon="151.290064">
  <ele>343.1</ele>
  <time>2026-09-01T19:49:48Z</time>
  <course>270.0</course>
  <speed>0.0</speed>
  <fix>3d</fix>
</trkpt>
<trkpt lat="-27.274439" lon="151.290064">
  <ele>342.93</ele>
  <time>2026-09-01T19:49:48Z</time>
  <course>10.7</course>
  <speed>0.0</speed>
  <fix>3d</fix>
</trkpt>
<trkpt lat="-27.274439" lon="151.290064">
  <ele>343.1</ele>
  <time>2026-09-01T19:49:48Z</time>
  <course>270.0</course>
  <speed>0.0</speed>
  <fix>3d</fix>
</trkpt>
<trkpt lat="-27.274439" lon="151.290064">
  <ele>343.07</ele>
  <time>2026-09-01T19:49:48Z</time>
  <course>10.71</course>
  <speed>0.0</speed>
  <fix>3d</fix>
</trkpt>
<trkpt lat="-27.274439" lon="151.290064">
  <ele>343.1</ele>
  <time>2026-09-01T19:49:48Z</time>
  <course>270.0</course>
  <speed>0.0</speed>
  <fix>3d</fix>
</trkpt>
<trkpt lat="-27.274439" lon="151.290064">
  <ele>342.94</ele>
  <time>2026-09-01T19:49:48Z</time>
  <course>10.72</course>
  <speed>0.0</speed>
  <fix>3d</fix>
</trkpt>
<trkpt lat="-27.274439" lon="151.290064">
  <ele>343.1</ele>
  <time>2026-09-01T19:49:48Z</time>
  <course>270.0</course>
  <speed>0.0</speed>
  <fix>3d</fix>
</trkpt>
<trkpt lat="-27.274439" lon="151.290064">
  <ele>343.11</ele>
  <time>2026-09-01T19:49:48Z</time>
  <course>10.73</course>
  <speed>0.0</speed>
  <fix>3d</fix>
</trkpt>
<trkpt lat="-27.274439" lon="151.290064">
  <ele>343.1</ele>
  <time>2026-09-01T19:49:48Z</time>
  <course>270.0</course>
  <speed>0.0</speed>
  <fix>3d</fix>
</trkpt>
<trkpt lat="-27.274439" lon="151.290064">
  <ele>343.24</ele>
  <time>2026-09-01T19:49:48Z</time>
  <course>10.73</course>
  <speed>0.0</speed>
  <fix>3d</fix>
</trkpt>
<trkpt lat="-27.274439" lon="151.290064">
  <ele>343.1</ele>
  <time>2026-09-01T19:49:48Z</time>
  <course>270.0</course>
  <speed>0.0</speed>
  <fix>3d</fix>
</trkpt>
<trkpt lat="-27.274439" lon="151.290064">
  <ele>343.18</ele>
  <time>2026-09-01T19:49:48Z</time>
  <course>10.74</course>
  <speed>0.0</speed>
  <fix>3d</fix>
</trkpt>
<trkpt lat="-27.274439" lon="151.290064">
  <ele>343.1</ele>
  <time>2026-09-01T19:49:48Z</time>
  <course>270.0</course>
  <speed>0.0</speed>
  <fix>3d</fix>
</trkpt>
<trkpt lat="-27.274439" lon="151.290064">
  <ele>342.89</ele>
  <time>2026-09-01T19:49:48Z</time>
  <course>10.75</course>
  <speed>0.0</speed>
  <fix>3d</fix>
</trkpt>
<trkpt lat="-27.274439" lon="151.290064">
  <ele>343.1</ele>
  <time>2026-09-01T19:49:48Z</time>
  <course>270.0</course>
  <speed>0.0</speed>
  <fix>3d</fix>
</trkpt>
<trkpt lat="-27.274439" lon="151.290064">
  <ele>343.23</ele>
  <time>2026-09-01T19:49:48Z</time>
  <course>10.75</course>
  <speed>0.0</speed>
  <fix>3d</fix>
</trkpt>
<trkpt lat="-27.274439" lon="151.290064">
  <ele>343.1</ele>
  <time>2026-09-01T19:49:48Z</time>
  <course>270.0</course>
  <speed>0.0</speed>
  <fix>3d</fix>
</trkpt>
<trkpt lat="-27.274439" lon="151.290064">
  <ele>343.23</ele>
  <time>2026-09-01T19:49:48Z</time>
  <course>10.76</course>
  <speed>0.0</speed>
  <fix>3d</fix>
</trkpt>
<trkpt lat="-27.274439" lon="151.290064">
  <ele>343.1</ele>
  <time>2026-09-01T19:49:48Z</time>
  <course>270.0</course>
  <speed>0.0</speed>
  <fix>3d</fix>
</trkpt>
<trkpt lat="-27.274439" lon="151.290064">
  <ele>342.99</ele>
  <time>2026-09-01T19:49:48Z</time>
  <course>10.76</course>
  <speed>0.0</speed>
  <fix>3d</fix>
</trkpt>
<trkpt lat="-27.274439" lon="151.290064">
  <ele>343.1</ele>
  <time>2026-09-01T19:49:48Z</time>
  <course>270.0</course>
  <speed>0.0</speed>
  <fix>3d</fix>
</trkpt>
<trkpt lat="-27.274439" lon="151.290064">
  <ele>343.13</ele>
  <time>2026-09-01T19:49:48Z</time>
  <course>10.76</course>
  <speed>0.0</speed>
  <fix>3d</fix>
</trkpt>
<trkpt lat="-27.274439" lon="151.290064">
  <ele>343.1</ele>
  <time>2026-09-01T19:49:48Z</time>
  <course>270.0</course>
  <speed>0.0</speed>
  <fix>3d</fix>
</trkpt>
<trkpt lat="-27.274439" lon="151.290064">
  <ele>343.07</ele>
  <time>2026-09-01T19:49:48Z</time>
  <course>10.77</course>
  <speed>0.0</speed>
  <fix>3d</fix>
</trkpt>
<trkpt lat="-27.274439" lon="151.290064">
  <ele>343.1</ele>
  <time>2026-09-01T19:49:48Z</time>
  <course>270.0</course>
  <speed>0.0</speed>
  <fix>3d</fix>
</trkpt>
<trkpt lat="-27.274439" lon="151.290064">
  <ele>343.19</ele>
  <time>2026-09-01T19:49:48Z</time>
  <course>10.77</course>
  <speed>0.0</speed>
  <fix>3d</fix>
</trkpt>
<trkpt lat="-27.274439" lon="151.290064">
  <ele>343.1</ele>
  <time>2026-09-01T19:49:48Z</time>
  <course>270.0</course>
  <speed>0.0</speed>
  <fix>3d</fix>
</trkpt>
<trkpt lat="-27.274439" lon="151.290064">
  <ele>342.93</ele>
  <time>2026-09-01T19:49:48Z</time>
  <course>10.77</course>
  <speed>0.0</speed>
  <fix>3d</fix>
</trkpt>
<trkpt lat="-27.274439" lon="151.290064">
  <ele>343.1</ele>
  <time>2026-09-01T19:49:48Z</time>
  <course>270.0</course>
  <speed>0.0</speed>
  <fix>3d</fix>
</trkpt>
<trkpt lat="-27.274439" lon="151.290064">
  <ele>343.19</ele>
  <time>2026-09-01T19:49:48Z</time>
  <course>10.78</course>
  <speed>0.0</speed>
  <fix>3d</fix>
</trkpt>
<trkpt lat="-27.274439" lon="151.290064">
  <ele>343.1</ele>
  <time>2026-09-01T19:49:48Z</time>
  <course>270.0</course>
  <speed>0.0</speed>
  <fix>3d</fix>
</trkpt>
<trkpt lat="-27.274439" lon="151.290064">
  <ele>343.1</ele>
  <time>2026-09-01T19:49:48Z</time>
  <course>10.78</course>
  <speed>0.0</speed>
  <fix>3d</fix>
</trkpt>
<trkpt lat="-27.274439" lon="151.290064">
  <ele>343.1</ele>
  <time>2026-09-01T19:49:48Z</time>
  <course>270.0</course>
  <speed>0.0</speed>
  <fix>3d</fix>
</trkpt>
<trkpt lat="-27.274439" lon="151.290064">
  <ele>343.01</ele>
  <time>2026-09-01T19:49:48Z</time>
  <course>10.78</course>
  <speed>0.0</speed>
  <fix>3d</fix>
</trkpt>
<trkpt lat="-27.274439" lon="151.290064">
  <ele>343.1</ele>
  <time>2026-09-01T19:49:48Z</time>
  <course>270.0</course>
  <speed>0.0</speed>
  <fix>3d</fix>
</trkpt>
<trkpt lat="-27.274439" lon="151.290064">
  <ele>343.11</ele>
  <time>2026-09-01T19:49:48Z</time>
  <course>10.78</course>
  <speed>0.0</speed>
  <fix>3d</fix>
</trkpt>
<trkpt lat="-27.274439" lon="151.290064">
  <ele>343.1</ele>
  <time>2026-09-01T19:49:48Z</time>
  <course>270.0</course>
  <speed>0.0</speed>
  <fix>3d</fix>
</trkpt>
<trkpt lat="-27.274439" lon="151.290064">
  <ele>342.96</ele>
  <time>2026-09-01T19:49:48Z</time>
  <course>10.78</course>
  <speed>0.0</speed>
  <fix>3d</fix>
</trkpt>
<trkpt lat="-27.274439" lon="151.290064">
  <ele>343.1</ele>
  <time>2026-09-01T19:49:48Z</time>
  <course>270.0</course>
  <speed>0.0</speed>
  <fix>3d</fix>
</trkpt>
<trkpt lat="-27.274439" lon="151.290064">
  <ele>343.19</ele>
  <time>2026-09-01T19:49:48Z</time>
  <course>10.79</course>
  <speed>0.0</speed>
  <fix>3d</fix>
</trkpt>
<trkpt lat="-27.274439" lon="151.290064">
  <ele>343.1</ele>
  <time>2026-09-01T19:49:48Z</time>
  <course>270.0</course>
  <speed>0.0</speed>
  <fix>3d</fix>
</trkpt>
<trkpt lat="-27.274439" lon="151.290064">
  <ele>343.0</ele>
  <time>2026-09-01T19:49:48Z</time>
  <course>10.79</course>
  <speed>0.0</speed>
  <fix>3d</fix>
</trkpt>
<trkpt lat="-27.274439" lon="151.290064">
  <ele>343.1</ele>
  <time>2026-09-01T19:49:49Z</time>
  <course>270.0</course>
  <speed>0.0</speed>
  <fix>3d</fix>
</trkpt>
<trkpt lat="-27.274439" lon="151.290064">
  <ele>343.2</ele>
  <time>2026-09-01T19:49:49Z</time>
  <course>10.79</course>
  <speed>0.0</speed>
  <fix>3d</fix>
</trkpt>
<trkpt lat="-27.274439" lon="151.290064">
  <ele>343.1</ele>
  <time>2026-09-01T19:49:49Z</time>
  <course>270.0</course>
  <speed>0.0</speed>
  <fix>3d</fix>
</trkpt>
<trkpt lat="-27.274439" lon="151.290064">
  <ele>343.2</ele>
  <time>2026-09-01T19:49:49Z</time>
  <course>10.79</course>
  <speed>0.0</speed>
  <fix>3d</fix>
</trkpt>
<trkpt lat="-27.274439" lon="151.290064">
  <ele>343.1</ele>
  <time>2026-09-01T19:49:49Z</time>
  <course>270.0</course>
  <speed>0.0</speed>
  <fix>3d</fix>
</trkpt>
<trkpt lat="-27.274439" lon="151.290064">
  <ele>343.13</ele>
  <time>2026-09-01T19:49:49Z</time>
  <course>10.79</course>
  <speed>0.0</speed>
  <fix>3d</fix>
</trkpt>
<trkpt lat="-27.274439" lon="151.290064">
  <ele>343.1</ele>
  <time>2026-09-01T19:49:49Z</time>
  <course>270.0</course>
  <speed>0.0</speed>
  <fix>3d</fix>
</trkpt>
<trkpt lat="-27.274439" lon="151.290064">
  <ele>343.1</ele>
  <time>2026-09-01T19:49:49Z</time>
  <course>10.79</course>
  <speed>0.0</speed>
  <fix>3d</fix>
</trkpt>
<trkpt lat="-27.274439" lon="151.290064">
  <ele>343.1</ele>
  <time>2026-09-01T19:49:49Z</time>
  <course>270.0</course>
  <speed>0.0</speed>
  <fix>3d</fix>
</trkpt>
<trkpt lat="-27.274439" lon="151.290064">
  <ele>343.12</ele>
  <time>2026-09-01T19:49:49Z</time>
  <course>10.79</course>
  <speed>0.0</speed>
  <fix>3d</fix>
</trkpt>
<trkpt lat="-27.274439" lon="151.290064">
  <ele>343.1</ele>
  <time>2026-09-01T19:49:49Z</time>
  <course>270.0</course>
  <speed>0.0</speed>
  <fix>3d</fix>
</trkpt>
<trkpt lat="-27.274439" lon="151.290064">
  <ele>342.94</ele>
  <time>2026-09-01T19:49:49Z</time>
  <course>10.79</course>
  <speed>0.0</speed>
  <fix>3d</fix>
</trkpt>
<trkpt lat="-27.274439" lon="151.290064">
  <ele>343.1</ele>
  <time>2026-09-01T19:49:49Z</time>
  <course>270.0</course>
  <speed>0.0</speed>
  <fix>3d</fix>
</trkpt>
<trkpt lat="-27.274439" lon="151.290064">
  <ele>343.25</ele>
  <time>2026-09-01T19:49:49Z</time>
  <course>10.79</course>
  <speed>0.0</speed>
  <fix>3d</fix>
</trkpt>
<trkpt lat="-27.274439" lon="151.290064">
  <ele>343.1</ele>
  <time>2026-09-01T19:49:49Z</time>
  <course>270.0</course>
  <speed>0.0</speed>
  <fix>3d</fix>
</trkpt>
<trkpt lat="-27.274439" lon="151.290064">
  <ele>342.93</ele>
  <time>2026-09-01T19:49:49Z</time>
  <course>10.79</course>
  <speed>0.0</speed>
  <fix>3d</fix>
</trkpt>
<trkpt lat="-27.274439" lon="151.290064">
  <ele>343.1</ele>
  <time>2026-09-01T19:49:49Z</time>
  <course>270.0</course>
  <speed>0.0</speed>
  <fix>3d</fix>
</trkpt>
<trkpt lat="-27.274439" lon="151.290064">
  <ele>343.08</ele>
  <time>2026-09-01T19:49:49Z</time>
  <course>10.79</course>
  <speed>0.0</speed>
  <fix>3d</fix>
</trkpt>
<trkpt lat="-27.274439" lon="151.290064">
  <ele>343.1</ele>
  <time>2026-09-01T19:49:49Z</time>
  <course>270.0</course>
  <speed>0.0</speed>
  <fix>3d</fix>
</trkpt>
<trkpt lat="-27.274439" lon="151.290064">
  <ele>343.23</ele>
  <time>2026-09-01T19:49:49Z</time>
  <course>10.8</course>
  <speed>0.0</speed>
  <fix>3d</fix>
</trkpt>
<trkpt lat="-27.274439" lon="151.290064">
  <ele>343.1</ele>
  <time>2026-09-01T19:49:49Z</time>
  <course>270.0</course>
  <speed>0.0</speed>
  <fix>3d</fix>
</trkpt>
<trkpt lat="-27.274439" lon="151.290064">
  <ele>343.01</ele>
  <time>2026-09-01T19:49:49Z</time>
  <course>10.8</course>
  <speed>0.0</speed>
  <fix>3d</fix>
</trkpt>
<trkpt lat="-27.274439" lon="151.290064">
  <ele>343.1</ele>
  <time>2026-09-01T19:49:49Z</time>
  <course>270.0</course>
  <speed>0.0</speed>
  <fix>3d</fix>
</trkpt>
<trkpt lat="-27.274439" lon="151.290064">
  <ele>343.1</ele>
  <time>2026-09-01T19:49:49Z</time>
  <course>10.8</course>
  <speed>0.0</speed>
  <fix>3d</fix>
</trkpt>
<trkpt lat="-27.274439" lon="151.290064">
  <ele>343.1</ele>
  <time>2026-09-01T19:49:49Z</time>
  <course>270.0</course>
  <speed>0.0</speed>
  <fix>3d</fix>
</trkpt>
<trkpt lat="-27.274439" lon="151.290064">
  <ele>342.99</ele>
  <time>2026-09-01T19:49:49Z</time>
  <course>10.8</course>
  <speed>0.0</speed>
  <fix>3d</fix>
</trkpt>
<trkpt lat="-27.274439" lon="151.290064">
  <ele>343.1</ele>
  <time>2026-09-01T19:49:49Z</time>
  <course>270.0</course>
  <speed>0.0</speed>
  <fix>3d</fix>
</trkpt>
<trkpt lat="-27.274439" lon="151.290064">
  <ele>342.87</ele>
  <time>2026-09-01T19:49:49Z</time>
  <course>10.8</course>
  <speed>0.0</speed>
  <fix>3d</fix>
</trkpt>
<trkpt lat="-27.274439" lon="151.290064">
  <ele>343.1</ele>
  <time>2026-09-01T19:49:49Z</time>
  <course>270.0</course>
  <speed>0.0</speed>
  <fix>3d</fix>
</trkpt>
<trkpt lat="-27.274439" lon="151.290064">
  <ele>343.1</ele>
  <time>2026-09-01T19:49:49Z</time>
  <course>10.8</course>
  <speed>0.0</speed>
  <fix>3d</fix>
</trkpt>
<trkpt lat="-27.274439" lon="151.290064">
  <ele>343.1</ele>
  <time>2026-09-01T19:49:49Z</time>
  <course>270.0</course>
  <speed>0.0</speed>
  <fix>3d</fix>
</trkpt>
<trkpt lat="-27.274439" lon="151.290064">
  <ele>342.99</ele>
  <time>2026-09-01T19:49:49Z</time>
  <course>10.8</course>
  <speed>0.0</speed>
  <fix>3d</fix>
</trkpt>
<trkpt lat="-27.274439" lon="151.290064">
  <ele>343.1</ele>
  <time>2026-09-01T19:49:49Z</time>
  <course>270.0</course>
  <speed>0.0</speed>
  <fix>3d</fix>
</trkpt>
<trkpt lat="-27.274439" lon="151.290064">
  <ele>342.91</ele>
  <time>2026-09-01T19:49:49Z</time>
  <course>10.8</course>
  <speed>0.0</speed>
  <fix>3d</fix>
</trkpt>
<trkpt lat="-27.274439" lon="151.290064">
  <ele>343.1</ele>
  <time>2026-09-01T19:49:49Z</time>
  <course>270.0</course>
  <speed>0.0</speed>
  <fix>3d</fix>
</trkpt>
<trkpt lat="-27.274439" lon="151.290064">
  <ele>342.9</ele>
  <time>2026-09-01T19:49:49Z</time>
  <course>10.8</course>
  <speed>0.0</speed>
  <fix>3d</fix>
</trkpt>
<trkpt lat="-27.274439" lon="151.290064">
  <ele>343.1</ele>
  <time>2026-09-01T19:49:49Z</time>
  <course>270.0</course>
  <speed>0.0</speed>
  <fix>3d</fix>
</trkpt>
<trkpt lat="-27.274439" lon="151.290064">
  <ele>342.87</ele>
  <time>2026-09-01T19:49:49Z</time>
  <course>10.8</course>
  <speed>0.0</speed>
  <fix>3d</fix>
</trkpt>
<trkpt lat="-27.274439" lon="151.290064">
  <ele>343.1</ele>
  <time>2026-09-01T19:49:49Z</time>
  <course>270.0</course>
  <speed>0.0</speed>
  <fix>3d</fix>
</trkpt>
<trkpt lat="-27.274439" lon="151.290064">
  <ele>343.12</ele>
  <time>2026-09-01T19:49:49Z</time>
  <course>10.8</course>
  <speed>0.0</speed>
  <fix>3d</fix>
</trkpt>
<trkpt lat="-27.274439" lon="151.290064">
  <ele>343.1</ele>
  <time>2026-09-01T19:49:49Z</time>
  <course>270.0</course>
  <speed>0.0</speed>
  <fix>3d</fix>
</trkpt>
<trkpt lat="-27.274439" lon="151.290064">
  <ele>342.99</ele>
  <time>2026-09-01T19:49:49Z</time>
  <course>10.8</course>
  <speed>0.0</speed>
  <fix>3d</fix>
</trkpt>
<trkpt lat="-27.274439" lon="151.290064">
  <ele>343.1</ele>
  <time>2026-09-01T19:49:49Z</time>
  <course>270.0</course>
  <speed>0.0</speed>
  <fix>3d</fix>
</trkpt>
<trkpt lat="-27.274439" lon="151.290064">
  <ele>343.13</ele>
  <time>2026-09-01T19:49:49Z</time>
  <course>10.8</course>
  <speed>0.0</speed>
  <fix>3d</fix>
</trkpt>
<trkpt lat="-27.274439" lon="151.290064">
  <ele>343.1</ele>
  <time>2026-09-01T19:49:49Z</time>
  <course>270.0</course>
  <speed>0.0</speed>
  <fix>3d</fix>
</trkpt>
<trkpt lat="-27.274439" lon="151.290064">
  <ele>343.0</ele>
  <time>2026-09-01T19:49:49Z</time>
  <course>10.8</course>
  <speed>0.0</speed>
  <fix>3d</fix>
</trkpt>
<trkpt lat="-27.274439" lon="151.290064">
  <ele>343.1</ele>
  <time>2026-09-01T19:49:49Z</time>
  <course>270.0</course>
  <speed>0.0</speed>
  <fix>3d</fix>
</trkpt>
<trkpt lat="-27.274439" lon="151.290064">
  <ele>343.17</ele>
  <time>2026-09-01T19:49:49Z</time>
  <course>10.8</course>
  <speed>0.0</speed>
  <fix>3d</fix>
</trkpt>
<trkpt lat="-27.274439" lon="151.290064">
  <ele>343.1</ele>
  <time>2026-09-01T19:49:49Z</time>
  <course>270.0</course>
  <speed>0.0</speed>
  <fix>3d</fix>
</trkpt>
<trkpt lat="-27.274439" lon="151.290064">
  <ele>343.0</ele>
  <time>2026-09-01T19:49:49Z</time>
  <course>10.8</course>
  <speed>0.0</speed>
  <fix>3d</fix>
</trkpt>
<trkpt lat="-27.274439" lon="151.290064">
  <ele>343.1</ele>
  <time>2026-09-01T19:49:49Z</time>
  <course>270.0</course>
  <speed>0.0</speed>
  <fix>3d</fix>
</trkpt>
<trkpt lat="-27.274439" lon="151.290064">
  <ele>342.99</ele>
  <time>2026-09-01T19:49:49Z</time>
  <course>10.8</course>
  <speed>0.0</speed>
  <fix>3d</fix>
</trkpt>
<trkpt lat="-27.274439" lon="151.290064">
  <ele>343.1</ele>
  <time>2026-09-01T19:49:49Z</time>
  <course>270.0</course>
  <speed>0.0</speed>
  <fix>3d</fix>
</trkpt>
<trkpt lat="-27.274439" lon="151.290064">
  <ele>343.17</ele>
  <time>2026-09-01T19:49:49Z</time>
  <course>10.8</course>
  <speed>0.0</speed>
  <fix>3d</fix>
</trkpt>
<trkpt lat="-27.274439" lon="151.290064">
  <ele>343.1</ele>
  <time>2026-09-01T19:49:49Z</time>
  <course>270.0</course>
  <speed>0.0</speed>
  <fix>3d</fix>
</trkpt>
<trkpt lat="-27.274439" lon="151.290064">
  <ele>343.16</ele>
  <time>2026-09-01T19:49:49Z</time>
  <course>10.8</course>
  <speed>0.0</speed>
  <fix>3d</fix>
</trkpt>
<trkpt lat="-27.274439" lon="151.290064">
  <ele>343.1</ele>
  <time>2026-09-01T19:49:49Z</time>
  <course>270.0</course>
  <speed>0.0</speed>
  <fix>3d</fix>
</trkpt>
<trkpt lat="-27.274439" lon="151.290064">
  <ele>342.87</ele>
  <time>2026-09-01T19:49:49Z</time>
  <course>10.8</course>
  <speed>0.0</speed>
  <fix>3d</fix>
</trkpt>
<trkpt lat="-27.274439" lon="151.290064">
  <ele>343.1</ele>
  <time>2026-09-01T19:49:49Z</time>
  <course>270.0</course>
  <speed>0.0</speed>
  <fix>3d</fix>
</trkpt>
<trkpt lat="-27.274439" lon="151.290064">
  <ele>343.19</ele>
  <time>2026-09-01T19:49:49Z</time>
  <course>10.8</course>
  <speed>0.0</speed>
  <fix>3d</fix>
</trkpt>
<trkpt lat="-27.274439" lon="151.290064">
  <ele>343.1</ele>
  <time>2026-09-01T19:49:49Z</time>
  <course>270.0</course>
  <speed>0.0</speed>
  <fix>3d</fix>
</trkpt>
<trkpt lat="-27.274439" lon="151.290064">
  <ele>343.16</ele>
  <time>2026-09-01T19:49:49Z</time>
  <course>10.8</course>
  <speed>0.0</speed>
  <fix>3d</fix>
</trkpt>
<trkpt lat="-27.274439" lon="151.290064">
  <ele>343.1</ele>
  <time>2026-09-01T19:49:49Z</time>
  <course>270.0</course>
  <speed>0.0</speed>
  <fix>3d</fix>
</trkpt>
<trkpt lat="-27.274439" lon="151.290064">
  <ele>343.21</ele>
  <time>2026-09-01T19:49:49Z</time>
  <course>10.8</course>
  <speed>0.0</speed>
  <fix>3d</fix>
</trkpt>
<trkpt lat="-27.274439" lon="151.290064">
  <ele>343.1</ele>
  <time>2026-09-01T19:49:49Z</time>
  <course>270.0</course>
  <speed>0.0</speed>
  <fix>3d</fix>
</trkpt>
<trkpt lat="-27.274439" lon="151.290064">
  <ele>343.22</ele>
  <time>2026-09-01T19:49:49Z</time>
  <course>10.8</course>
  <speed>0.0</speed>
  <fix>3d</fix>
</trkpt>
<trkpt lat="-27.274439" lon="151.290064">
  <ele>343.1</ele>
  <time>2026-09-01T19:49:49Z</time>
  <course>270.0</course>
  <speed>0.0</speed>
  <fix>3d</fix>
</trkpt>
<trkpt lat="-27.274439" lon="151.290064">
  <ele>343.24</ele>
  <time>2026-09-01T19:49:49Z</time>
  <course>10.8</course>
  <speed>0.0</speed>
  <fix>3d</fix>
</trkpt>
<trkpt lat="-27.274439" lon="151.290064">
  <ele>343.1</ele>
  <time>2026-09-01T19:49:49Z</time>
  <course>270.0</course>
  <speed>0.0</speed>
  <fix>3d</fix>
</trkpt>
<trkpt lat="-27.274439" lon="151.290064">
  <ele>343.0</ele>
  <time>2026-09-01T19:49:49Z</time>
  <course>10.8</course>
  <speed>0.0</speed>
  <fix>3d</fix>
</trkpt>
<trkpt lat="-27.274439" lon="151.290064">
  <ele>343.1</ele>
  <time>2026-09-01T19:49:49Z</time>
  <course>270.0</course>
  <speed>0.0</speed>
  <fix>3d</fix>
</trkpt>
<trkpt lat="-27.274439" lon="151.290064">
  <ele>343.1</ele>
  <time>2026-09-01T19:49:49Z</time>
  <course>10.8</course>
  <speed>0.0</speed>
  <fix>3d</fix>
</trkpt>
<trkpt lat="-27.274439" lon="151.290064">
  <ele>343.1</ele>
  <time>2026-09-01T19:49:49Z</time>
  <course>270.0</course>
  <speed>0.0</speed>
  <fix>3d</fix>
</trkpt>
<trkpt lat="-27.274439" lon="151.290064">
  <ele>343.05</ele>
  <time>2026-09-01T19:49:49Z</time>
  <course>10.8</course>
  <speed>0.0</speed>
  <fix>3d</fix>
</trkpt>
<trkpt lat="-27.274439" lon="151.290064">
  <ele>343.1</ele>
  <time>2026-09-01T19:49:49Z</time>
  <course>270.0</course>
  <speed>0.0</speed>
  <fix>3d</fix>
</trkpt>
<trkpt lat="-27.274439" lon="151.290064">
  <ele>342.87</ele>
  <time>2026-09-01T19:49:49Z</time>
  <course>10.8</course>
  <speed>0.0</speed>
  <fix>3d</fix>
</trkpt>
<trkpt lat="-27.274439" lon="151.290064">
  <ele>343.1</ele>
  <time>2026-09-01T19:49:49Z</time>
  <course>270.0</course>
  <speed>0.0</speed>
  <fix>3d</fix>
</trkpt>
<trkpt lat="-27.274439" lon="151.290064">
  <ele>342.92</ele>
  <time>2026-09-01T19:49:49Z</time>
  <course>10.8</course>
  <speed>0.0</speed>
  <fix>3d</fix>
</trkpt>
<trkpt lat="-27.274439" lon="151.290064">
  <ele>343.1</ele>
  <time>2026-09-01T19:49:49Z</time>
  <course>270.0</course>
  <speed>0.0</speed>
  <fix>3d</fix>
</trkpt>
<trkpt lat="-27.274439" lon="151.290064">
  <ele>342.96</ele>
  <time>2026-09-01T19:49:49Z</time>
  <course>10.8</course>
  <speed>0.0</speed>
  <fix>3d</fix>
</trkpt>
<trkpt lat="-27.274439" lon="151.290064">
  <ele>343.1</ele>
  <time>2026-09-01T19:49:49Z</time>
  <course>270.0</course>
  <speed>0.0</speed>
  <fix>3d</fix>
</trkpt>
<trkpt lat="-27.274439" lon="151.290064">
  <ele>343.15</ele>
  <time>2026-09-01T19:49:49Z</time>
  <course>10.8</course>
  <speed>0.0</speed>
  <fix>3d</fix>
</trkpt>
<trkpt lat="-27.274439" lon="151.290064">
  <ele>343.1</ele>
  <time>2026-09-01T19:49:49Z</time>
  <course>270.0</course>
  <speed>0.0</speed>
  <fix>3d</fix>
</trkpt>
<trkpt lat="-27.274439" lon="151.290064">
  <ele>343.16</ele>
  <time>2026-09-01T19:49:49Z</time>
  <course>10.8</course>
  <speed>0.0</speed>
  <fix>3d</fix>
</trkpt>
<trkpt lat="-27.274439" lon="151.290064">
  <ele>343.1</ele>
  <time>2026-09-01T19:49:49Z</time>
  <course>270.0</course>
  <speed>0.0</speed>
  <fix>3d</fix>
</trkpt>
<trkpt lat="-27.274439" lon="151.290064">
  <ele>343.2</ele>
  <time>2026-09-01T19:49:49Z</time>
  <course>10.81</course>
  <speed>0.0</speed>
  <fix>3d</fix>
</trkpt>
<trkpt lat="-27.274439" lon="151.290064">
  <ele>343.1</ele>
  <time>2026-09-01T19:49:49Z</time>
  <course>270.0</course>
  <speed>0.0</speed>
  <fix>3d</fix>
</trkpt>
<trkpt lat="-27.274439" lon="151.290064">
  <ele>343.13</ele>
  <time>2026-09-01T19:49:49Z</time>
  <course>10.82</course>
  <speed>0.0</speed>
  <fix>3d</fix>
</trkpt>
<trkpt lat="-27.274439" lon="151.290064">
  <ele>343.1</ele>
  <time>2026-09-01T19:49:49Z</time>
  <course>270.0</course>
  <speed>0.0</speed>
  <fix>3d</fix>
</trkpt>
<trkpt lat="-27.274439" lon="151.290064">
  <ele>343.09</ele>
  <time>2026-09-01T19:49:49Z</time>
  <course>10.71</course>
  <speed>0.0</speed>
  <fix>3d</fix>
</trkpt>
<trkpt lat="-27.274439" lon="151.290064">
  <ele>343.1</ele>
  <time>2026-09-01T19:49:49Z</time>
  <course>270.0</course>
  <speed>0.0</speed>
  <fix>3d</fix>
</trkpt>
<trkpt lat="-27.274439" lon="151.290064">
  <ele>343.09</ele>
  <time>2026-09-01T19:49:49Z</time>
  <course>10.71</course>
  <speed>0.0</speed>
  <fix>3d</fix>
</trkpt>
<trkpt lat="-27.274439" lon="151.290064">
  <ele>343.1</ele>
  <time>2026-09-01T19:49:49Z</time>
  <course>270.0</course>
  <speed>0.0</speed>
  <fix>3d</fix>
</trkpt>
<trkpt lat="-27.274439" lon="151.290064">
  <ele>343.1</ele>
  <time>2026-09-01T19:49:49Z</time>
  <course>10.71</course>
  <speed>0.0</speed>
  <fix>3d</fix>
</trkpt>
<trkpt lat="-27.274439" lon="151.290064">
  <ele>343.1</ele>
  <time>2026-09-01T19:49:49Z</time>
  <course>270.0</course>
  <speed>0.0</speed>
  <fix>3d</fix>
</trkpt>
<trkpt lat="-27.274439" lon="151.290064">
  <ele>343.1</ele>
  <time>2026-09-01T19:49:49Z</time>
  <course>10.71</course>
  <speed>0.0</speed>
  <fix>3d</fix>
</trkpt>
<trkpt lat="-27.274439" lon="151.290064">
  <ele>343.1</ele>
  <time>2026-09-01T19:49:49Z</time>
  <course>270.0</course>
  <speed>0.0</speed>
  <fix>3d</fix>
</trkpt>
<trkpt lat="-27.274439" lon="151.290064">
  <ele>343.1</ele>
  <time>2026-09-01T19:49:49Z</time>
  <course>10.71</course>
  <speed>0.0</speed>
  <fix>3d</fix>
</trkpt>
<trkpt lat="-27.274439" lon="151.290064">
  <ele>343.1</ele>
  <time>2026-09-01T19:49:49Z</time>
  <course>270.0</course>
  <speed>0.0</speed>
  <fix>3d</fix>
</trkpt>
<trkpt lat="-27.274439" lon="151.290064">
  <ele>343.1</ele>
  <time>2026-09-01T19:49:49Z</time>
  <course>10.71</course>
  <speed>0.0</speed>
  <fix>3d</fix>
</trkpt>
<trkpt lat="-27.274439" lon="151.290064">
  <ele>343.1</ele>
  <time>2026-09-01T19:49:49Z</time>
  <course>270.0</course>
  <speed>0.0</speed>
  <fix>3d</fix>
</trkpt>
<trkpt lat="-27.274439" lon="151.290064">
  <ele>343.1</ele>
  <time>2026-09-01T19:49:49Z</time>
  <course>10.71</course>
  <speed>0.0</speed>
  <fix>3d</fix>
</trkpt>
<trkpt lat="-27.274439" lon="151.290064">
  <ele>343.1</ele>
  <time>2026-09-01T19:49:49Z</time>
  <course>270.0</course>
  <speed>0.0</speed>
  <fix>3d</fix>
</trkpt>
<trkpt lat="-27.274439" lon="151.290064">
  <ele>343.11</ele>
  <time>2026-09-01T19:49:49Z</time>
  <course>10.71</course>
  <speed>0.0</speed>
  <fix>3d</fix>
</trkpt>
<trkpt lat="-27.274439" lon="151.290064">
  <ele>343.1</ele>
  <time>2026-09-01T19:49:49Z</time>
  <course>270.0</course>
  <speed>0.0</speed>
  <fix>3d</fix>
</trkpt>
<trkpt lat="-27.274439" lon="151.290064">
  <ele>343.11</ele>
  <time>2026-09-01T19:49:49Z</time>
  <course>10.71</course>
  <speed>0.0</speed>
  <fix>3d</fix>
</trkpt>
<trkpt lat="-27.274439" lon="151.290064">
  <ele>343.1</ele>
  <time>2026-09-01T19:49:49Z</time>
  <course>270.0</course>
  <speed>0.0</speed>
  <fix>3d</fix>
</trkpt>
<trkpt lat="-27.274439" lon="151.290064">
  <ele>343.11</ele>
  <time>2026-09-01T19:49:49Z</time>
  <course>10.71</course>
  <speed>0.0</speed>
  <fix>3d</fix>
</trkpt>
<trkpt lat="-27.274439" lon="151.290064">
  <ele>343.1</ele>
  <time>2026-09-01T19:49:49Z</time>
  <course>270.0</course>
  <speed>0.0</speed>
  <fix>3d</fix>
</trkpt>
<trkpt lat="-27.274439" lon="151.290064">
  <ele>343.12</ele>
  <time>2026-09-01T19:49:49Z</time>
  <course>10.71</course>
  <speed>0.0</speed>
  <fix>3d</fix>
</trkpt>
<trkpt lat="-27.274439" lon="151.290064">
  <ele>343.1</ele>
  <time>2026-09-01T19:49:49Z</time>
  <course>270.0</course>
  <speed>0.0</speed>
  <fix>3d</fix>
</trkpt>
<trkpt lat="-27.274439" lon="151.290064">
  <ele>343.12</ele>
  <time>2026-09-01T19:49:49Z</time>
  <course>10.71</course>
  <speed>0.0</speed>
  <fix>3d</fix>
</trkpt>
<trkpt lat="-27.274439" lon="151.290064">
  <ele>343.1</ele>
  <time>2026-09-01T19:49:49Z</time>
  <course>270.0</course>
  <speed>0.0</speed>
  <fix>3d</fix>
</trkpt>
<trkpt lat="-27.274439" lon="151.290064">
  <ele>343.1</ele>
  <time>2026-09-01T19:49:49Z</time>
  <course>10.71</course>
  <speed>0.0</speed>
  <fix>3d</fix>
</trkpt>
<trkpt lat="-27.274439" lon="151.290064">
  <ele>343.1</ele>
  <time>2026-09-01T19:49:49Z</time>
  <course>270.0</course>
  <speed>0.0</speed>
  <fix>3d</fix>
</trkpt>
<trkpt lat="-27.274439" lon="151.290064">
  <ele>343.1</ele>
  <time>2026-09-01T19:49:49Z</time>
  <course>10.71</course>
  <speed>0.0</speed>
  <fix>3d</fix>
</trkpt>
<trkpt lat="-27.274439" lon="151.290064">
  <ele>343.1</ele>
  <time>2026-09-01T19:49:49Z</time>
  <course>270.0</course>
  <speed>0.0</speed>
  <fix>3d</fix>
</trkpt>
<trkpt lat="-27.274439" lon="151.290064">
  <ele>343.1</ele>
  <time>2026-09-01T19:49:49Z</time>
  <course>10.71</course>
  <speed>0.0</speed>
  <fix>3d</fix>
</trkpt>
<trkpt lat="-27.274439" lon="151.290064">
  <ele>343.1</ele>
  <time>2026-09-01T19:49:49Z</time>
  <course>270.0</course>
  <speed>0.0</speed>
  <fix>3d</fix>
</trkpt>
<trkpt lat="-27.274439" lon="151.290064">
  <ele>343.09</ele>
  <time>2026-09-01T19:49:49Z</time>
  <course>10.71</course>
  <speed>0.0</speed>
  <fix>3d</fix>
</trkpt>
<trkpt lat="-27.274439" lon="151.290064">
  <ele>343.1</ele>
  <time>2026-09-01T19:49:49Z</time>
  <course>270.0</course>
  <speed>0.0</speed>
  <fix>3d</fix>
</trkpt>
<trkpt lat="-27.274439" lon="151.290064">
  <ele>343.09</ele>
  <time>2026-09-01T19:49:49Z</time>
  <course>10.71</course>
  <speed>0.0</speed>
  <fix>3d</fix>
</trkpt>
<trkpt lat="-27.274439" lon="151.290064">
  <ele>343.1</ele>
  <time>2026-09-01T19:49:49Z</time>
  <course>270.0</course>
  <speed>0.0</speed>
  <fix>3d</fix>
</trkpt>
<trkpt lat="-27.274439" lon="151.290064">
  <ele>343.09</ele>
  <time>2026-09-01T19:49:49Z</time>
  <course>10.71</course>
  <speed>0.0</speed>
  <fix>3d</fix>
</trkpt>
<trkpt lat="-27.274439" lon="151.290064">
  <ele>343.1</ele>
  <time>2026-09-01T19:49:49Z</time>
  <course>270.0</course>
  <speed>0.0</speed>
  <fix>3d</fix>
</trkpt>
<trkpt lat="-27.274439" lon="151.290064">
  <ele>343.1</ele>
  <time>2026-09-01T19:49:49Z</time>
  <course>10.71</course>
  <speed>0.0</speed>
  <fix>3d</fix>
</trkpt>
<trkpt lat="-27.274439" lon="151.290064">
  <ele>343.1</ele>
  <time>2026-09-01T19:49:49Z</time>
  <course>270.0</course>
  <speed>0.0</speed>
  <fix>3d</fix>
</trkpt>
<trkpt lat="-27.274439" lon="151.290064">
  <ele>343.1</ele>
  <time>2026-09-01T19:49:49Z</time>
  <course>10.71</course>
  <speed>0.0</speed>
  <fix>3d</fix>
</trkpt>
<trkpt lat="-27.274439" lon="151.290064">
  <ele>343.1</ele>
  <time>2026-09-01T19:49:49Z</time>
  <course>270.0</course>
  <speed>0.0</speed>
  <fix>3d</fix>
</trkpt>
<trkpt lat="-27.274439" lon="151.290064">
  <ele>343.09</ele>
  <time>2026-09-01T19:49:49Z</time>
  <course>10.71</course>
  <speed>0.0</speed>
  <fix>3d</fix>
</trkpt>
<trkpt lat="-27.274439" lon="151.290064">
  <ele>343.1</ele>
  <time>2026-09-01T19:49:49Z</time>
  <course>270.0</course>
  <speed>0.0</speed>
  <fix>3d</fix>
</trkpt>
<trkpt lat="-27.274439" lon="151.290064">
  <ele>343.09</ele>
  <time>2026-09-01T19:49:49Z</time>
  <course>10.71</course>
  <speed>0.0</speed>
  <fix>3d</fix>
</trkpt>
<trkpt lat="-27.274439" lon="151.290064">
  <ele>343.1</ele>
  <time>2026-09-01T19:49:49Z</time>
  <course>270.0</course>
  <speed>0.0</speed>
  <fix>3d</fix>
</trkpt>
<trkpt lat="-27.274439" lon="151.290064">
  <ele>343.09</ele>
  <time>2026-09-01T19:49:49Z</time>
  <course>10.71</course>
  <speed>0.0</speed>
  <fix>3d</fix>
</trkpt>
<trkpt lat="-27.274439" lon="151.290064">
  <ele>343.1</ele>
  <time>2026-09-01T19:49:49Z</time>
  <course>270.0</course>
  <speed>0.0</speed>
  <fix>3d</fix>
</trkpt>
<trkpt lat="-27.274439" lon="151.290064">
  <ele>343.09</ele>
  <time>2026-09-01T19:49:49Z</time>
  <course>10.71</course>
  <speed>0.0</speed>
  <fix>3d</fix>
</trkpt>
<trkpt lat="-27.274439" lon="151.290064">
  <ele>343.1</ele>
  <time>2026-09-01T19:49:49Z</time>
  <course>270.0</course>
  <speed>0.0</speed>
  <fix>3d</fix>
</trkpt>
<trkpt lat="-27.274439" lon="151.290064">
  <ele>343.09</ele>
  <time>2026-09-01T19:49:49Z</time>
  <course>10.71</course>
  <speed>0.0</speed>
  <fix>3d</fix>
</trkpt>
<trkpt lat="-27.274439" lon="151.290064">
  <ele>343.1</ele>
  <time>2026-09-01T19:49:49Z</time>
  <course>270.0</course>
  <speed>0.0</speed>
  <fix>3d</fix>
</trkpt>
<trkpt lat="-27.274439" lon="151.290064">
  <ele>343.09</ele>
  <time>2026-09-01T19:49:49Z</time>
  <course>10.71</course>
  <speed>0.0</speed>
  <fix>3d</fix>
</trkpt>
<trkpt lat="-27.274439" lon="151.290064">
  <ele>343.1</ele>
  <time>2026-09-01T19:49:49Z</time>
  <course>270.0</course>
  <speed>0.0</speed>
  <fix>3d</fix>
</trkpt>
<trkpt lat="-27.274439" lon="151.290064">
  <ele>343.09</ele>
  <time>2026-09-01T19:49:49Z</time>
  <course>10.71</course>
  <speed>0.0</speed>
  <fix>3d</fix>
</trkpt>
<trkpt lat="-27.274439" lon="151.290064">
  <ele>343.1</ele>
  <time>2026-09-01T19:49:49Z</time>
  <course>270.0</course>
  <speed>0.0</speed>
  <fix>3d</fix>
</trkpt>
<trkpt lat="-27.274439" lon="151.290064">
  <ele>343.09</ele>
  <time>2026-09-01T19:49:49Z</time>
  <course>10.71</course>
  <speed>0.0</speed>
  <fix>3d</fix>
</trkpt>
<trkpt lat="-27.274439" lon="151.290064">
  <ele>343.1</ele>
  <time>2026-09-01T19:49:49Z</time>
  <course>270.0</course>
  <speed>0.0</speed>
  <fix>3d</fix>
</trkpt>
<trkpt lat="-27.274439" lon="151.290064">
  <ele>343.1</ele>
  <time>2026-09-01T19:49:49Z</time>
  <course>10.71</course>
  <speed>0.0</speed>
  <fix>3d</fix>
</trkpt>
<trkpt lat="-27.274439" lon="151.290064">
  <ele>343.1</ele>
  <time>2026-09-01T19:49:49Z</time>
  <course>270.0</course>
  <speed>0.0</speed>
  <fix>3d</fix>
</trkpt>
<trkpt lat="-27.274439" lon="151.290064">
  <ele>343.1</ele>
  <time>2026-09-01T19:49:49Z</time>
  <course>10.71</course>
  <speed>0.0</speed>
  <fix>3d</fix>
</trkpt>
<trkpt lat="-27.274439" lon="151.290064">
  <ele>343.1</ele>
  <time>2026-09-01T19:49:49Z</time>
  <course>270.0</course>
  <speed>0.0</speed>
  <fix>3d</fix>
</trkpt>
<trkpt lat="-27.274439" lon="151.290064">
  <ele>343.1</ele>
  <time>2026-09-01T19:49:49Z</time>
  <course>10.71</course>
  <speed>0.0</speed>
  <fix>3d</fix>
</trkpt>
<trkpt lat="-27.274439" lon="151.290064">
  <ele>343.1</ele>
  <time>2026-09-01T19:49:49Z</time>
  <course>270.0</course>
  <speed>0.0</speed>
  <fix>3d</fix>
</trkpt>
<trkpt lat="-27.274439" lon="151.290064">
  <ele>343.1</ele>
  <time>2026-09-01T19:49:49Z</time>
  <course>10.71</course>
  <speed>0.0</speed>
  <fix>3d</fix>
</trkpt>
<trkpt lat="-27.274439" lon="151.290064">
  <ele>343.1</ele>
  <time>2026-09-01T19:49:49Z</time>
  <course>270.0</course>
  <speed>0.0</speed>
  <fix>3d</fix>
</trkpt>
<trkpt lat="-27.274439" lon="151.290064">
  <ele>343.11</ele>
  <time>2026-09-01T19:49:49Z</time>
  <course>10.71</course>
  <speed>0.0</speed>
  <fix>3d</fix>
</trkpt>
<trkpt lat="-27.274439" lon="151.290064">
  <ele>343.1</ele>
  <time>2026-09-01T19:49:49Z</time>
  <course>270.0</course>
  <speed>0.0</speed>
  <fix>3d</fix>
</trkpt>
<trkpt lat="-27.274439" lon="151.290064">
  <ele>343.11</ele>
  <time>2026-09-01T19:49:49Z</time>
  <course>10.71</course>
  <speed>0.0</speed>
  <fix>3d</fix>
</trkpt>
<trkpt lat="-27.274439" lon="151.290064">
  <ele>343.1</ele>
  <time>2026-09-01T19:49:49Z</time>
  <course>270.0</course>
  <speed>0.0</speed>
  <fix>3d</fix>
</trkpt>
<trkpt lat="-27.274439" lon="151.290064">
  <ele>343.11</ele>
  <time>2026-09-01T19:49:49Z</time>
  <course>10.71</course>
  <speed>0.0</speed>
  <fix>3d</fix>
</trkpt>
<trkpt lat="-27.274439" lon="151.290064">
  <ele>343.1</ele>
  <time>2026-09-01T19:49:49Z</time>
  <course>270.0</course>
  <speed>0.0</speed>
  <fix>3d</fix>
</trkpt>
<trkpt lat="-27.274439" lon="151.290064">
  <ele>343.11</ele>
  <time>2026-09-01T19:49:49Z</time>
  <course>10.71</course>
  <speed>0.0</speed>
  <fix>3d</fix>
</trkpt>
<trkpt lat="-27.274439" lon="151.290064">
  <ele>343.1</ele>
  <time>2026-09-01T19:49:49Z</time>
  <course>270.0</course>
  <speed>0.0</speed>
  <fix>3d</fix>
</trkpt>
<trkpt lat="-27.274439" lon="151.290064">
  <ele>343.12</ele>
  <time>2026-09-01T19:49:49Z</time>
  <course>10.71</course>
  <speed>0.0</speed>
  <fix>3d</fix>
</trkpt>
<trkpt lat="-27.274439" lon="151.290064">
  <ele>343.1</ele>
  <time>2026-09-01T19:49:49Z</time>
  <course>270.0</course>
  <speed>0.0</speed>
  <fix>3d</fix>
</trkpt>
<trkpt lat="-27.274439" lon="151.290064">
  <ele>343.12</ele>
  <time>2026-09-01T19:49:49Z</time>
  <course>10.71</course>
  <speed>0.0</speed>
  <fix>3d</fix>
</trkpt>
<trkpt lat="-27.274439" lon="151.290064">
  <ele>343.1</ele>
  <time>2026-09-01T19:49:49Z</time>
  <course>270.0</course>
  <speed>0.0</speed>
  <fix>3d</fix>
</trkpt>
<trkpt lat="-27.274439" lon="151.290064">
  <ele>343.12</ele>
  <time>2026-09-01T19:49:49Z</time>
  <course>10.71</course>
  <speed>0.0</speed>
  <fix>3d</fix>
</trkpt>
<trkpt lat="-27.274439" lon="151.290064">
  <ele>343.1</ele>
  <time>2026-09-01T19:49:49Z</time>
  <course>270.0</course>
  <speed>0.0</speed>
  <fix>3d</fix>
</trkpt>
<trkpt lat="-27.274439" lon="151.290064">
  <ele>343.12</ele>
  <time>2026-09-01T19:49:49Z</time>
  <course>10.71</course>
  <speed>0.0</speed>
  <fix>3d</fix>
</trkpt>
<trkpt lat="-27.274439" lon="151.290064">
  <ele>343.1</ele>
  <time>2026-09-01T19:49:49Z</time>
  <course>270.0</course>
  <speed>0.0</speed>
  <fix>3d</fix>
</trkpt>
<trkpt lat="-27.274439" lon="151.290064">
  <ele>343.12</ele>
  <time>2026-09-01T19:49:49Z</time>
  <course>10.71</course>
  <speed>0.0</speed>
  <fix>3d</fix>
</trkpt>
<trkpt lat="-27.274439" lon="151.290064">
  <ele>343.1</ele>
  <time>2026-09-01T19:49:49Z</time>
  <course>270.0</course>
  <speed>0.0</speed>
  <fix>3d</fix>
</trkpt>
<trkpt lat="-27.274439" lon="151.290064">
  <ele>343.13</ele>
  <time>2026-09-01T19:49:49Z</time>
  <course>10.71</course>
  <speed>0.0</speed>
  <fix>3d</fix>
</trkpt>
<trkpt lat="-27.274439" lon="151.290064">
  <ele>343.1</ele>
  <time>2026-09-01T19:49:49Z</time>
  <course>270.0</course>
  <speed>0.0</speed>
  <fix>3d</fix>
</trkpt>
<trkpt lat="-27.274439" lon="151.290064">
  <ele>343.13</ele>
  <time>2026-09-01T19:49:49Z</time>
  <course>10.71</course>
  <speed>0.0</speed>
  <fix>3d</fix>
</trkpt>
<trkpt lat="-27.274439" lon="151.290064">
  <ele>343.1</ele>
  <time>2026-09-01T19:49:49Z</time>
  <course>270.0</course>
  <speed>0.0</speed>
  <fix>3d</fix>
</trkpt>
<trkpt lat="-27.274439" lon="151.290064">
  <ele>343.13</ele>
  <time>2026-09-01T19:49:49Z</time>
  <course>10.71</course>
  <speed>0.0</speed>
  <fix>3d</fix>
</trkpt>
<trkpt lat="-27.274439" lon="151.290064">
  <ele>343.1</ele>
  <time>2026-09-01T19:49:49Z</time>
  <course>270.0</course>
  <speed>0.0</speed>
  <fix>3d</fix>
</trkpt>
<trkpt lat="-27.274439" lon="151.290064">
  <ele>343.13</ele>
  <time>2026-09-01T19:49:49Z</time>
  <course>10.71</course>
  <speed>0.0</speed>
  <fix>3d</fix>
</trkpt>
<trkpt lat="-27.274439" lon="151.290064">
  <ele>343.1</ele>
  <time>2026-09-01T19:49:49Z</time>
  <course>270.0</course>
  <speed>0.0</speed>
  <fix>3d</fix>
</trkpt>
<trkpt lat="-27.274439" lon="151.290064">
  <ele>343.14</ele>
  <time>2026-09-01T19:49:49Z</time>
  <course>10.71</course>
  <speed>0.0</speed>
  <fix>3d</fix>
</trkpt>
<trkpt lat="-27.274439" lon="151.290064">
  <ele>343.1</ele>
  <time>2026-09-01T19:49:49Z</time>
  <course>270.0</course>
  <speed>0.0</speed>
  <fix>3d</fix>
</trkpt>
<trkpt lat="-27.274439" lon="151.290064">
  <ele>343.14</ele>
  <time>2026-09-01T19:49:49Z</time>
  <course>10.71</course>
  <speed>0.0</speed>
  <fix>3d</fix>
</trkpt>
<trkpt lat="-27.274439" lon="151.290064">
  <ele>343.1</ele>
  <time>2026-09-01T19:49:49Z</time>
  <course>270.0</course>
  <speed>0.0</speed>
  <fix>3d</fix>
</trkpt>
<trkpt lat="-27.274439" lon="151.290064">
  <ele>343.14</ele>
  <time>2026-09-01T19:49:49Z</time>
  <course>10.71</course>
  <speed>0.0</speed>
  <fix>3d</fix>
</trkpt>
<trkpt lat="-27.274439" lon="151.290064">
  <ele>343.1</ele>
  <time>2026-09-01T19:49:49Z</time>
  <course>270.0</course>
  <speed>0.0</speed>
  <fix>3d</fix>
</trkpt>
<trkpt lat="-27.274439" lon="151.290064">
  <ele>343.14</ele>
  <time>2026-09-01T19:49:49Z</time>
  <course>10.71</course>
  <speed>0.0</speed>
  <fix>3d</fix>
</trkpt>
<trkpt lat="-27.274439" lon="151.290064">
  <ele>343.1</ele>
  <time>2026-09-01T19:49:49Z</time>
  <course>270.0</course>
  <speed>0.0</speed>
  <fix>3d</fix>
</trkpt>
<trkpt lat="-27.274439" lon="151.290064">
  <ele>343.14</ele>
  <time>2026-09-01T19:49:49Z</time>
  <course>10.71</course>
  <speed>0.0</speed>
  <fix>3d</fix>
</trkpt>
<trkpt lat="-27.274439" lon="151.290064">
  <ele>343.1</ele>
  <time>2026-09-01T19:49:49Z</time>
  <course>270.0</course>
  <speed>0.0</speed>
  <fix>3d</fix>
</trkpt>
<trkpt lat="-27.274439" lon="151.290064">
  <ele>343.14</ele>
  <time>2026-09-01T19:49:49Z</time>
  <course>10.71</course>
  <speed>0.0</speed>
  <fix>3d</fix>
</trkpt>
<trkpt lat="-27.274439" lon="151.290064">
  <ele>343.1</ele>
  <time>2026-09-01T19:49:49Z</time>
  <course>270.0</course>
  <speed>0.0</speed>
  <fix>3d</fix>
</trkpt>
<trkpt lat="-27.274439" lon="151.290064">
  <ele>343.14</ele>
  <time>2026-09-01T19:49:49Z</time>
  <course>10.71</course>
  <speed>0.0</speed>
  <fix>3d</fix>
</trkpt>
<trkpt lat="-27.274439" lon="151.290064">
  <ele>343.1</ele>
  <time>2026-09-01T19:49:49Z</time>
  <course>270.0</course>
  <speed>0.0</speed>
  <fix>3d</fix>
</trkpt>
<trkpt lat="-27.274439" lon="151.290064">
  <ele>343.14</ele>
  <time>2026-09-01T19:49:49Z</time>
  <course>10.71</course>
  <speed>0.0</speed>
  <fix>3d</fix>
</trkpt>
<trkpt lat="-27.274439" lon="151.290064">
  <ele>343.1</ele>
  <time>2026-09-01T19:49:49Z</time>
  <course>270.0</course>
  <speed>0.0</speed>
  <fix>3d</fix>
</trkpt>
<trkpt lat="-27.274439" lon="151.290064">
  <ele>343.13</ele>
  <time>2026-09-01T19:49:49Z</time>
  <course>10.71</course>
  <speed>0.0</speed>
  <fix>3d</fix>
</trkpt>
<trkpt lat="-27.274439" lon="151.290064">
  <ele>343.1</ele>
  <time>2026-09-01T19:49:49Z</time>
  <course>270.0</course>
  <speed>0.0</speed>
  <fix>3d</fix>
</trkpt>
<trkpt lat="-27.274439" lon="151.290064">
  <ele>343.13</ele>
  <time>2026-09-01T19:49:49Z</time>
  <course>10.71</course>
  <speed>0.0</speed>
  <fix>3d</fix>
</trkpt>
<trkpt lat="-27.274439" lon="151.290064">
  <ele>343.1</ele>
  <time>2026-09-01T19:49:49Z</time>
  <course>270.0</course>
  <speed>0.0</speed>
  <fix>3d</fix>
</trkpt>
<trkpt lat="-27.274439" lon="151.290064">
  <ele>343.13</ele>
  <time>2026-09-01T19:49:49Z</time>
  <course>10.71</course>
  <speed>0.0</speed>
  <fix>3d</fix>
</trkpt>
<trkpt lat="-27.274439" lon="151.290064">
  <ele>343.1</ele>
  <time>2026-09-01T19:49:49Z</time>
  <course>270.0</course>
  <speed>0.0</speed>
  <fix>3d</fix>
</trkpt>
<trkpt lat="-27.274439" lon="151.290064">
  <ele>343.13</ele>
  <time>2026-09-01T19:49:49Z</time>
  <course>10.71</course>
  <speed>0.0</speed>
  <fix>3d</fix>
</trkpt>
<trkpt lat="-27.274439" lon="151.290064">
  <ele>343.1</ele>
  <time>2026-09-01T19:49:49Z</time>
  <course>270.0</course>
  <speed>0.0</speed>
  <fix>3d</fix>
</trkpt>
<trkpt lat="-27.274439" lon="151.290064">
  <ele>343.13</ele>
  <time>2026-09-01T19:49:49Z</time>
  <course>10.71</course>
  <speed>0.0</speed>
  <fix>3d</fix>
</trkpt>
<trkpt lat="-27.274439" lon="151.290064">
  <ele>343.1</ele>
  <time>2026-09-01T19:49:49Z</time>
  <course>270.0</course>
  <speed>0.0</speed>
  <fix>3d</fix>
</trkpt>
<trkpt lat="-27.274439" lon="151.290064">
  <ele>343.13</ele>
  <time>2026-09-01T19:49:49Z</time>
  <course>10.71</course>
  <speed>0.0</speed>
  <fix>3d</fix>
</trkpt>
<trkpt lat="-27.274439" lon="151.290064">
  <ele>343.1</ele>
  <time>2026-09-01T19:49:49Z</time>
  <course>270.0</course>
  <speed>0.0</speed>
  <fix>3d</fix>
</trkpt>
<trkpt lat="-27.274439" lon="151.290064">
  <ele>343.13</ele>
  <time>2026-09-01T19:49:49Z</time>
  <course>10.71</course>
  <speed>0.0</speed>
  <fix>3d</fix>
</trkpt>
<trkpt lat="-27.274439" lon="151.290064">
  <ele>343.1</ele>
  <time>2026-09-01T19:49:49Z</time>
  <course>270.0</course>
  <speed>0.0</speed>
  <fix>3d</fix>
</trkpt>
<trkpt lat="-27.274439" lon="151.290064">
  <ele>343.13</ele>
  <time>2026-09-01T19:49:49Z</time>
  <course>10.71</course>
  <speed>0.0</speed>
  <fix>3d</fix>
</trkpt>
<trkpt lat="-27.274439" lon="151.290064">
  <ele>343.1</ele>
  <time>2026-09-01T19:49:49Z</time>
  <course>270.0</course>
  <speed>0.0</speed>
  <fix>3d</fix>
</trkpt>
<trkpt lat="-27.274439" lon="151.290064">
  <ele>343.14</ele>
  <time>2026-09-01T19:49:49Z</time>
  <course>10.71</course>
  <speed>0.0</speed>
  <fix>3d</fix>
</trkpt>
<trkpt lat="-27.274439" lon="151.290064">
  <ele>343.1</ele>
  <time>2026-09-01T19:49:49Z</time>
  <course>270.0</course>
  <speed>0.0</speed>
  <fix>3d</fix>
</trkpt>
<trkpt lat="-27.274439" lon="151.290064">
  <ele>343.14</ele>
  <time>2026-09-01T19:49:49Z</time>
  <course>10.71</course>
  <speed>0.0</speed>
  <fix>3d</fix>
</trkpt>
<trkpt lat="-27.274439" lon="151.290064">
  <ele>343.1</ele>
  <time>2026-09-01T19:49:49Z</time>
  <course>270.0</course>
  <speed>0.0</speed>
  <fix>3d</fix>
</trkpt>
<trkpt lat="-27.274439" lon="151.290064">
  <ele>343.14</ele>
  <time>2026-09-01T19:49:49Z</time>
  <course>10.71</course>
  <speed>0.0</speed>
  <fix>3d</fix>
</trkpt>
<trkpt lat="-27.274439" lon="151.290064">
  <ele>343.1</ele>
  <time>2026-09-01T19:49:49Z</time>
  <course>270.0</course>
  <speed>0.0</speed>
  <fix>3d</fix>
</trkpt>
<trkpt lat="-27.274439" lon="151.290064">
  <ele>343.14</ele>
  <time>2026-09-01T19:49:49Z</time>
  <course>10.71</course>
  <speed>0.0</speed>
  <fix>3d</fix>
</trkpt>
<trkpt lat="-27.274439" lon="151.290064">
  <ele>343.1</ele>
  <time>2026-09-01T19:49:49Z</time>
  <course>270.0</course>
  <speed>0.0</speed>
  <fix>3d</fix>
</trkpt>
<trkpt lat="-27.274439" lon="151.290064">
  <ele>343.14</ele>
  <time>2026-09-01T19:49:49Z</time>
  <course>10.71</course>
  <speed>0.0</speed>
  <fix>3d</fix>
</trkpt>
<trkpt lat="-27.274439" lon="151.290064">
  <ele>343.1</ele>
  <time>2026-09-01T19:49:49Z</time>
  <course>270.0</course>
  <speed>0.0</speed>
  <fix>3d</fix>
</trkpt>
<trkpt lat="-27.274439" lon="151.290064">
  <ele>343.14</ele>
  <time>2026-09-01T19:49:49Z</time>
  <course>10.71</course>
  <speed>0.0</speed>
  <fix>3d</fix>
</trkpt>
<trkpt lat="-27.274439" lon="151.290064">
  <ele>343.1</ele>
  <time>2026-09-01T19:49:49Z</time>
  <course>270.0</course>
  <speed>0.0</speed>
  <fix>3d</fix>
</trkpt>
<trkpt lat="-27.274439" lon="151.290064">
  <ele>343.15</ele>
  <time>2026-09-01T19:49:49Z</time>
  <course>10.71</course>
  <speed>0.0</speed>
  <fix>3d</fix>
</trkpt>
<trkpt lat="-27.274439" lon="151.290064">
  <ele>343.1</ele>
  <time>2026-09-01T19:49:49Z</time>
  <course>270.0</course>
  <speed>0.0</speed>
  <fix>3d</fix>
</trkpt>
<trkpt lat="-27.274439" lon="151.290064">
  <ele>343.15</ele>
  <time>2026-09-01T19:49:49Z</time>
  <course>10.71</course>
  <speed>0.0</speed>
  <fix>3d</fix>
</trkpt>
<trkpt lat="-27.274439" lon="151.290064">
  <ele>343.1</ele>
  <time>2026-09-01T19:49:49Z</time>
  <course>270.0</course>
  <speed>0.0</speed>
  <fix>3d</fix>
</trkpt>
<trkpt lat="-27.274439" lon="151.290064">
  <ele>343.15</ele>
  <time>2026-09-01T19:49:49Z</time>
  <course>10.71</course>
  <speed>0.0</speed>
  <fix>3d</fix>
</trkpt>
<trkpt lat="-27.274439" lon="151.290064">
  <ele>343.1</ele>
  <time>2026-09-01T19:49:49Z</time>
  <course>270.0</course>
  <speed>0.0</speed>
  <fix>3d</fix>
</trkpt>
<trkpt lat="-27.274439" lon="151.290064">
  <ele>343.15</ele>
  <time>2026-09-01T19:49:49Z</time>
  <course>10.71</course>
  <speed>0.0</speed>
  <fix>3d</fix>
</trkpt>
<trkpt lat="-27.274439" lon="151.290064">
  <ele>343.1</ele>
  <time>2026-09-01T19:49:49Z</time>
  <course>270.0</course>
  <speed>0.0</speed>
  <fix>3d</fix>
</trkpt>
<trkpt lat="-27.274439" lon="151.290064">
  <ele>343.15</ele>
  <time>2026-09-01T19:49:49Z</time>
  <course>10.71</course>
  <speed>0.0</speed>
  <fix>3d</fix>
</trkpt>
<trkpt lat="-27.274439" lon="151.290064">
  <ele>343.1</ele>
  <time>2026-09-01T19:49:49Z</time>
  <course>270.0</course>
  <speed>0.0</speed>
  <fix>3d</fix>
</trkpt>
<trkpt lat="-27.274439" lon="151.290064">
  <ele>343.1</ele>
  <time>2026-09-01T19:49:49Z</time>
  <course>10.71</course>
  <speed>0.0</speed>
  <fix>3d</fix>
</trkpt>
<trkpt lat="-27.274439" lon="151.290064">
  <ele>343.1</ele>
  <time>2026-09-01T19:49:49Z</time>
  <course>270.0</course>
  <speed>0.0</speed>
  <fix>3d</fix>
</trkpt>
<trkpt lat="-27.274439" lon="151.290064">
  <ele>343.1</ele>
  <time>2026-09-01T19:49:49Z</time>
  <course>10.71</course>
  <speed>0.0</speed>
  <fix>3d</fix>
</trkpt>
<trkpt lat="-27.274439" lon="151.290064">
  <ele>343.1</ele>
  <time>2026-09-01T19:49:49Z</time>
  <course>270.0</course>
  <speed>0.0</speed>
  <fix>3d</fix>
</trkpt>
<trkpt lat="-27.274439" lon="151.290064">
  <ele>343.1</ele>
  <time>2026-09-01T19:49:49Z</time>
  <course>10.71</course>
  <speed>0.0</speed>
  <fix>3d</fix>
</trkpt>
<trkpt lat="-27.274439" lon="151.290064">
  <ele>343.1</ele>
  <time>2026-09-01T19:49:49Z</time>
  <course>270.0</course>
  <speed>0.0</speed>
  <fix>3d</fix>
</trkpt>
<trkpt lat="-27.274439" lon="151.290064">
  <ele>343.1</ele>
  <time>2026-09-01T19:49:49Z</time>
  <course>10.71</course>
  <speed>0.0</speed>
  <fix>3d</fix>
</trkpt>
<trkpt lat="-27.274439" lon="151.290064">
  <ele>343.1</ele>
  <time>2026-09-01T19:49:49Z</time>
  <course>270.0</course>
  <speed>0.0</speed>
  <fix>3d</fix>
</trkpt>
<trkpt lat="-27.274439" lon="151.290064">
  <ele>343.09</ele>
  <time>2026-09-01T19:49:49Z</time>
  <course>10.71</course>
  <speed>0.0</speed>
  <fix>3d</fix>
</trkpt>
<trkpt lat="-27.274439" lon="151.290064">
  <ele>343.1</ele>
  <time>2026-09-01T19:49:49Z</time>
  <course>270.0</course>
  <speed>0.0</speed>
  <fix>3d</fix>
</trkpt>
<trkpt lat="-27.274439" lon="151.290064">
  <ele>343.09</ele>
  <time>2026-09-01T19:49:49Z</time>
  <course>10.71</course>
  <speed>0.0</speed>
  <fix>3d</fix>
</trkpt>
<trkpt lat="-27.274439" lon="151.290064">
  <ele>343.1</ele>
  <time>2026-09-01T19:49:49Z</time>
  <course>270.0</course>
  <speed>0.0</speed>
  <fix>3d</fix>
</trkpt>
<trkpt lat="-27.274439" lon="151.290064">
  <ele>343.08</ele>
  <time>2026-09-01T19:49:49Z</time>
  <course>10.71</course>
  <speed>0.0</speed>
  <fix>3d</fix>
</trkpt>
<trkpt lat="-27.274439" lon="151.290064">
  <ele>343.1</ele>
  <time>2026-09-01T19:49:49Z</time>
  <course>270.0</course>
  <speed>0.0</speed>
  <fix>3d</fix>
</trkpt>
<trkpt lat="-27.274439" lon="151.290064">
  <ele>343.08</ele>
  <time>2026-09-01T19:49:49Z</time>
  <course>10.71</course>
  <speed>0.0</speed>
  <fix>3d</fix>
</trkpt>
<trkpt lat="-27.274439" lon="151.290064">
  <ele>343.1</ele>
  <time>2026-09-01T19:49:49Z</time>
  <course>270.0</course>
  <speed>0.0</speed>
  <fix>3d</fix>
</trkpt>
<trkpt lat="-27.274439" lon="151.290064">
  <ele>343.07</ele>
  <time>2026-09-01T19:49:49Z</time>
  <course>10.71</course>
  <speed>0.0</speed>
  <fix>3d</fix>
</trkpt>
<trkpt lat="-27.274439" lon="151.290064">
  <ele>343.1</ele>
  <time>2026-09-01T19:49:49Z</time>
  <course>270.0</course>
  <speed>0.0</speed>
  <fix>3d</fix>
</trkpt>
<trkpt lat="-27.274439" lon="151.290064">
  <ele>343.07</ele>
  <time>2026-09-01T19:49:49Z</time>
  <course>10.71</course>
  <speed>0.0</speed>
  <fix>3d</fix>
</trkpt>
<trkpt lat="-27.274439" lon="151.290064">
  <ele>343.1</ele>
  <time>2026-09-01T19:49:49Z</time>
  <course>270.0</course>
  <speed>0.0</speed>
  <fix>3d</fix>
</trkpt>
<trkpt lat="-27.274439" lon="151.290064">
  <ele>343.06</ele>
  <time>2026-09-01T19:49:49Z</time>
  <course>10.71</course>
  <speed>0.0</speed>
  <fix>3d</fix>
</trkpt>
<trkpt lat="-27.274439" lon="151.290064">
  <ele>343.1</ele>
  <time>2026-09-01T19:49:49Z</time>
  <course>270.0</course>
  <speed>0.0</speed>
  <fix>3d</fix>
</trkpt>
<trkpt lat="-27.274439" lon="151.290064">
  <ele>343.06</ele>
  <time>2026-09-01T19:49:49Z</time>
  <course>10.71</course>
  <speed>0.0</speed>
  <fix>3d</fix>
</trkpt>
<trkpt lat="-27.274439" lon="151.290064">
  <ele>343.1</ele>
  <time>2026-09-01T19:49:49Z</time>
  <course>270.0</course>
  <speed>0.0</speed>
  <fix>3d</fix>
</trkpt>
<trkpt lat="-27.274439" lon="151.290064">
  <ele>343.05</ele>
  <time>2026-09-01T19:49:49Z</time>
  <course>10.71</course>
  <speed>0.0</speed>
  <fix>3d</fix>
</trkpt>
<trkpt lat="-27.274439" lon="151.290064">
  <ele>343.1</ele>
  <time>2026-09-01T19:49:49Z</time>
  <course>270.0</course>
  <speed>0.0</speed>
  <fix>3d</fix>
</trkpt>
<trkpt lat="-27.274439" lon="151.290064">
  <ele>343.05</ele>
  <time>2026-09-01T19:49:49Z</time>
  <course>10.71</course>
  <speed>0.0</speed>
  <fix>3d</fix>
</trkpt>
<trkpt lat="-27.274439" lon="151.290064">
  <ele>343.1</ele>
  <time>2026-09-01T19:49:49Z</time>
  <course>270.0</course>
  <speed>0.0</speed>
  <fix>3d</fix>
</trkpt>
<trkpt lat="-27.274439" lon="151.290064">
  <ele>343.04</ele>
  <time>2026-09-01T19:49:49Z</time>
  <course>10.71</course>
  <speed>0.0</speed>
  <fix>3d</fix>
</trkpt>
<trkpt lat="-27.274439" lon="151.290064">
  <ele>343.1</ele>
  <time>2026-09-01T19:49:49Z</time>
  <course>270.0</course>
  <speed>0.0</speed>
  <fix>3d</fix>
</trkpt>
<trkpt lat="-27.274439" lon="151.290064">
  <ele>343.03</ele>
  <time>2026-09-01T19:49:49Z</time>
  <course>10.71</course>
  <speed>0.0</speed>
  <fix>3d</fix>
</trkpt>
<trkpt lat="-27.274439" lon="151.290064">
  <ele>343.1</ele>
  <time>2026-09-01T19:49:49Z</time>
  <course>270.0</course>
  <speed>0.0</speed>
  <fix>3d</fix>
</trkpt>
<trkpt lat="-27.274439" lon="151.290064">
  <ele>343.03</ele>
  <time>2026-09-01T19:49:49Z</time>
  <course>10.71</course>
  <speed>0.0</speed>
  <fix>3d</fix>
</trkpt>
<trkpt lat="-27.274439" lon="151.290064">
  <ele>343.1</ele>
  <time>2026-09-01T19:49:49Z</time>
  <course>270.0</course>
  <speed>0.0</speed>
  <fix>3d</fix>
</trkpt>
<trkpt lat="-27.274439" lon="151.290064">
  <ele>343.02</ele>
  <time>2026-09-01T19:49:49Z</time>
  <course>10.71</course>
  <speed>0.0</speed>
  <fix>3d</fix>
</trkpt>
<trkpt lat="-27.274439" lon="151.290064">
  <ele>343.1</ele>
  <time>2026-09-01T19:49:49Z</time>
  <course>270.0</course>
  <speed>0.0</speed>
  <fix>3d</fix>
</trkpt>
<trkpt lat="-27.274439" lon="151.290064">
  <ele>343.02</ele>
  <time>2026-09-01T19:49:49Z</time>
  <course>10.71</course>
  <speed>0.0</speed>
  <fix>3d</fix>
</trkpt>
<trkpt lat="-27.274439" lon="151.290064">
  <ele>343.1</ele>
  <time>2026-09-01T19:49:49Z</time>
  <course>270.0</course>
  <speed>0.0</speed>
  <fix>3d</fix>
</trkpt>
<trkpt lat="-27.274439" lon="151.290064">
  <ele>343.01</ele>
  <time>2026-09-01T19:49:49Z</time>
  <course>10.71</course>
  <speed>0.0</speed>
  <fix>3d</fix>
</trkpt>
<trkpt lat="-27.274439" lon="151.290064">
  <ele>343.1</ele>
  <time>2026-09-01T19:49:49Z</time>
  <course>270.0</course>
  <speed>0.0</speed>
  <fix>3d</fix>
</trkpt>
<trkpt lat="-27.274439" lon="151.290064">
  <ele>343.0</ele>
  <time>2026-09-01T19:49:49Z</time>
  <course>10.71</course>
  <speed>0.0</speed>
  <fix>3d</fix>
</trkpt>
<trkpt lat="-27.274439" lon="151.290064">
  <ele>343.1</ele>
  <time>2026-09-01T19:49:49Z</time>
  <course>270.0</course>
  <speed>0.0</speed>
  <fix>3d</fix>
</trkpt>
<trkpt lat="-27.274439" lon="151.290064">
  <ele>343.0</ele>
  <time>2026-09-01T19:49:49Z</time>
  <course>10.71</course>
  <speed>0.0</speed>
  <fix>3d</fix>
</trkpt>
<trkpt lat="-27.274439" lon="151.290064">
  <ele>343.1</ele>
  <time>2026-09-01T19:49:49Z</time>
  <course>270.0</course>
  <speed>0.0</speed>
  <fix>3d</fix>
</trkpt>
<trkpt lat="-27.274439" lon="151.290064">
  <ele>342.99</ele>
  <time>2026-09-01T19:49:49Z</time>
  <course>10.71</course>
  <speed>0.0</speed>
  <fix>3d</fix>
</trkpt>
<trkpt lat="-27.274439" lon="151.290064">
  <ele>343.1</ele>
  <time>2026-09-01T19:49:49Z</time>
  <course>270.0</course>
  <speed>0.0</speed>
  <fix>3d</fix>
</trkpt>
<trkpt lat="-27.274439" lon="151.290064">
  <ele>342.99</ele>
  <time>2026-09-01T19:49:49Z</time>
  <course>10.71</course>
  <speed>0.0</speed>
  <fix>3d</fix>
</trkpt>
<trkpt lat="-27.274439" lon="151.290064">
  <ele>343.1</ele>
  <time>2026-09-01T19:49:49Z</time>
  <course>270.0</course>
  <speed>0.0</speed>
  <fix>3d</fix>
</trkpt>
<trkpt lat="-27.274439" lon="151.290064">
  <ele>342.99</ele>
  <time>2026-09-01T19:49:49Z</time>
  <course>10.71</course>
  <speed>0.0</speed>
  <fix>3d</fix>
</trkpt>
<trkpt lat="-27.274439" lon="151.290064">
  <ele>343.1</ele>
  <time>2026-09-01T19:49:49Z</time>
  <course>270.0</course>
  <speed>0.0</speed>
  <fix>3d</fix>
</trkpt>
<trkpt lat="-27.274439" lon="151.290064">
  <ele>342.99</ele>
  <time>2026-09-01T19:49:49Z</time>
  <course>10.71</course>
  <speed>0.0</speed>
  <fix>3d</fix>
</trkpt>
<trkpt lat="-27.274439" lon="151.290064">
  <ele>343.1</ele>
  <time>2026-09-01T19:49:49Z</time>
  <course>270.0</course>
  <speed>0.0</speed>
  <fix>3d</fix>
</trkpt>
<trkpt lat="-27.274439" lon="151.290064">
  <ele>342.99</ele>
  <time>2026-09-01T19:49:49Z</time>
  <course>10.71</course>
  <speed>0.0</speed>
  <fix>3d</fix>
</trkpt>
<trkpt lat="-27.274439" lon="151.290064">
  <ele>343.1</ele>
  <time>2026-09-01T19:49:49Z</time>
  <course>270.0</course>
  <speed>0.0</speed>
  <fix>3d</fix>
</trkpt>
<trkpt lat="-27.274439" lon="151.290064">
  <ele>342.98</ele>
  <time>2026-09-01T19:49:49Z</time>
  <course>10.71</course>
  <speed>0.0</speed>
  <fix>3d</fix>
</trkpt>
<trkpt lat="-27.274439" lon="151.290064">
  <ele>343.1</ele>
  <time>2026-09-01T19:49:49Z</time>
  <course>270.0</course>
  <speed>0.0</speed>
  <fix>3d</fix>
</trkpt>
<trkpt lat="-27.274439" lon="151.290064">
  <ele>342.98</ele>
  <time>2026-09-01T19:49:49Z</time>
  <course>10.71</course>
  <speed>0.0</speed>
  <fix>3d</fix>
</trkpt>
<trkpt lat="-27.274439" lon="151.290064">
  <ele>343.1</ele>
  <time>2026-09-01T19:49:49Z</time>
  <course>270.0</course>
  <speed>0.0</speed>
  <fix>3d</fix>
</trkpt>
<trkpt lat="-27.274439" lon="151.290064">
  <ele>342.98</ele>
  <time>2026-09-01T19:49:49Z</time>
  <course>10.71</course>
  <speed>0.0</speed>
  <fix>3d</fix>
</trkpt>
<trkpt lat="-27.274439" lon="151.290064">
  <ele>343.1</ele>
  <time>2026-09-01T19:49:49Z</time>
  <course>270.0</course>
  <speed>0.0</speed>
  <fix>3d</fix>
</trkpt>
<trkpt lat="-27.274439" lon="151.290064">
  <ele>342.98</ele>
  <time>2026-09-01T19:49:49Z</time>
  <course>10.71</course>
  <speed>0.0</speed>
  <fix>3d</fix>
</trkpt>
<trkpt lat="-27.274439" lon="151.290064">
  <ele>343.1</ele>
  <time>2026-09-01T19:49:49Z</time>
  <course>270.0</course>
  <speed>0.0</speed>
  <fix>3d</fix>
</trkpt>
<trkpt lat="-27.274439" lon="151.290064">
  <ele>342.97</ele>
  <time>2026-09-01T19:49:49Z</time>
  <course>10.71</course>
  <speed>0.0</speed>
  <fix>3d</fix>
</trkpt>
<trkpt lat="-27.274439" lon="151.290064">
  <ele>343.1</ele>
  <time>2026-09-01T19:49:49Z</time>
  <course>270.0</course>
  <speed>0.0</speed>
  <fix>3d</fix>
</trkpt>
<trkpt lat="-27.274439" lon="151.290064">
  <ele>342.97</ele>
  <time>2026-09-01T19:49:49Z</time>
  <course>10.71</course>
  <speed>0.0</speed>
  <fix>3d</fix>
</trkpt>
<trkpt lat="-27.274439" lon="151.290064">
  <ele>343.1</ele>
  <time>2026-09-01T19:49:49Z</time>
  <course>270.0</course>
  <speed>0.0</speed>
  <fix>3d</fix>
</trkpt>
<trkpt lat="-27.274439" lon="151.290064">
  <ele>342.97</ele>
  <time>2026-09-01T19:49:49Z</time>
  <course>10.71</course>
  <speed>0.0</speed>
  <fix>3d</fix>
</trkpt>
<trkpt lat="-27.274439" lon="151.290064">
  <ele>343.1</ele>
  <time>2026-09-01T19:49:49Z</time>
  <course>270.0</course>
  <speed>0.0</speed>
  <fix>3d</fix>
</trkpt>
<trkpt lat="-27.274439" lon="151.290064">
  <ele>342.96</ele>
  <time>2026-09-01T19:49:49Z</time>
  <course>10.71</course>
  <speed>0.0</speed>
  <fix>3d</fix>
</trkpt>
<trkpt lat="-27.274439" lon="151.290064">
  <ele>343.1</ele>
  <time>2026-09-01T19:49:49Z</time>
  <course>270.0</course>
  <speed>0.0</speed>
  <fix>3d</fix>
</trkpt>
<trkpt lat="-27.274439" lon="151.290064">
  <ele>342.96</ele>
  <time>2026-09-01T19:49:49Z</time>
  <course>10.71</course>
  <speed>0.0</speed>
  <fix>3d</fix>
</trkpt>
<trkpt lat="-27.274439" lon="151.290064">
  <ele>343.1</ele>
  <time>2026-09-01T19:49:49Z</time>
  <course>270.0</course>
  <speed>0.0</speed>
  <fix>3d</fix>
</trkpt>
<trkpt lat="-27.274439" lon="151.290064">
  <ele>342.96</ele>
  <time>2026-09-01T19:49:49Z</time>
  <course>10.71</course>
  <speed>0.0</speed>
  <fix>3d</fix>
</trkpt>
<trkpt lat="-27.274439" lon="151.290064">
  <ele>343.1</ele>
  <time>2026-09-01T19:49:49Z</time>
  <course>270.0</course>
  <speed>0.0</speed>
  <fix>3d</fix>
</trkpt>
<trkpt lat="-27.274439" lon="151.290064">
  <ele>342.96</ele>
  <time>2026-09-01T19:49:49Z</time>
  <course>10.71</course>
  <speed>0.0</speed>
  <fix>3d</fix>
</trkpt>
<trkpt lat="-27.274439" lon="151.290064">
  <ele>343.1</ele>
  <time>2026-09-01T19:49:49Z</time>
  <course>270.0</course>
  <speed>0.0</speed>
  <fix>3d</fix>
</trkpt>
<trkpt lat="-27.274439" lon="151.290064">
  <ele>342.96</ele>
  <time>2026-09-01T19:49:49Z</time>
  <course>10.71</course>
  <speed>0.0</speed>
  <fix>3d</fix>
</trkpt>
<trkpt lat="-27.274439" lon="151.290064">
  <ele>343.1</ele>
  <time>2026-09-01T19:49:49Z</time>
  <course>270.0</course>
  <speed>0.0</speed>
  <fix>3d</fix>
</trkpt>
<trkpt lat="-27.274439" lon="151.290064">
  <ele>342.96</ele>
  <time>2026-09-01T19:49:49Z</time>
  <course>10.71</course>
  <speed>0.0</speed>
  <fix>3d</fix>
</trkpt>
<trkpt lat="-27.274439" lon="151.290064">
  <ele>343.1</ele>
  <time>2026-09-01T19:49:49Z</time>
  <course>270.0</course>
  <speed>0.0</speed>
  <fix>3d</fix>
</trkpt>
<trkpt lat="-27.274439" lon="151.290064">
  <ele>342.95</ele>
  <time>2026-09-01T19:49:49Z</time>
  <course>10.71</course>
  <speed>0.0</speed>
  <fix>3d</fix>
</trkpt>
<trkpt lat="-27.274439" lon="151.290064">
  <ele>343.1</ele>
  <time>2026-09-01T19:49:49Z</time>
  <course>270.0</course>
  <speed>0.0</speed>
  <fix>3d</fix>
</trkpt>
<trkpt lat="-27.274439" lon="151.290064">
  <ele>342.95</ele>
  <time>2026-09-01T19:49:49Z</time>
  <course>10.7</course>
  <speed>0.0</speed>
  <fix>3d</fix>
</trkpt>
<trkpt lat="-27.274439" lon="151.290064">
  <ele>343.1</ele>
  <time>2026-09-01T19:49:49Z</time>
  <course>270.0</course>
  <speed>0.0</speed>
  <fix>3d</fix>
</trkpt>
<trkpt lat="-27.274439" lon="151.290064">
  <ele>342.95</ele>
  <time>2026-09-01T19:49:49Z</time>
  <course>10.7</course>
  <speed>0.0</speed>
  <fix>3d</fix>
</trkpt>
<trkpt lat="-27.274439" lon="151.290064">
  <ele>343.1</ele>
  <time>2026-09-01T19:49:49Z</time>
  <course>270.0</course>
  <speed>0.0</speed>
  <fix>3d</fix>
</trkpt>
<trkpt lat="-27.274439" lon="151.290064">
  <ele>342.95</ele>
  <time>2026-09-01T19:49:49Z</time>
  <course>10.7</course>
  <speed>0.0</speed>
  <fix>3d</fix>
</trkpt>
<trkpt lat="-27.274439" lon="151.290064">
  <ele>343.1</ele>
  <time>2026-09-01T19:49:49Z</time>
  <course>270.0</course>
  <speed>0.0</speed>
  <fix>3d</fix>
</trkpt>
<trkpt lat="-27.274439" lon="151.290064">
  <ele>342.95</ele>
  <time>2026-09-01T19:49:49Z</time>
  <course>10.7</course>
  <speed>0.0</speed>
  <fix>3d</fix>
</trkpt>
<trkpt lat="-27.274439" lon="151.290064">
  <ele>343.1</ele>
  <time>2026-09-01T19:49:49Z</time>
  <course>270.0</course>
  <speed>0.0</speed>
  <fix>3d</fix>
</trkpt>
<trkpt lat="-27.274439" lon="151.290064">
  <ele>342.95</ele>
  <time>2026-09-01T19:49:49Z</time>
  <course>10.7</course>
  <speed>0.0</speed>
  <fix>3d</fix>
</trkpt>
<trkpt lat="-27.274439" lon="151.290064">
  <ele>343.1</ele>
  <time>2026-09-01T19:49:49Z</time>
  <course>270.0</course>
  <speed>0.0</speed>
  <fix>3d</fix>
</trkpt>
<trkpt lat="-27.274439" lon="151.290064">
  <ele>342.94</ele>
  <time>2026-09-01T19:49:49Z</time>
  <course>10.7</course>
  <speed>0.0</speed>
  <fix>3d</fix>
</trkpt>
<trkpt lat="-27.274439" lon="151.290064">
  <ele>343.1</ele>
  <time>2026-09-01T19:49:49Z</time>
  <course>270.0</course>
  <speed>0.0</speed>
  <fix>3d</fix>
</trkpt>
<trkpt lat="-27.274439" lon="151.290064">
  <ele>342.94</ele>
  <time>2026-09-01T19:49:49Z</time>
  <course>10.7</course>
  <speed>0.0</speed>
  <fix>3d</fix>
</trkpt>
<trkpt lat="-27.274439" lon="151.290064">
  <ele>343.1</ele>
  <time>2026-09-01T19:49:49Z</time>
  <course>270.0</course>
  <speed>0.0</speed>
  <fix>3d</fix>
</trkpt>
<trkpt lat="-27.274439" lon="151.290064">
  <ele>342.94</ele>
  <time>2026-09-01T19:49:49Z</time>
  <course>10.7</course>
  <speed>0.0</speed>
  <fix>3d</fix>
</trkpt>
<trkpt lat="-27.274439" lon="151.290064">
  <ele>343.1</ele>
  <time>2026-09-01T19:49:49Z</time>
  <course>270.0</course>
  <speed>0.0</speed>
  <fix>3d</fix>
</trkpt>
<trkpt lat="-27.274439" lon="151.290064">
  <ele>342.94</ele>
  <time>2026-09-01T19:49:49Z</time>
  <course>10.7</course>
  <speed>0.0</speed>
  <fix>3d</fix>
</trkpt>
<trkpt lat="-27.274439" lon="151.290064">
  <ele>343.1</ele>
  <time>2026-09-01T19:49:49Z</time>
  <course>270.0</course>
  <speed>0.0</speed>
  <fix>3d</fix>
</trkpt>
<trkpt lat="-27.274439" lon="151.290064">
  <ele>342.94</ele>
  <time>2026-09-01T19:49:49Z</time>
  <course>10.7</course>
  <speed>0.0</speed>
  <fix>3d</fix>
</trkpt>
<trkpt lat="-27.274439" lon="151.290064">
  <ele>343.1</ele>
  <time>2026-09-01T19:49:49Z</time>
  <course>270.0</course>
  <speed>0.0</speed>
  <fix>3d</fix>
</trkpt>
<trkpt lat="-27.274439" lon="151.290064">
  <ele>342.93</ele>
  <time>2026-09-01T19:49:49Z</time>
  <course>10.7</course>
  <speed>0.0</speed>
  <fix>3d</fix>
</trkpt>
<trkpt lat="-27.274439" lon="151.290064">
  <ele>343.1</ele>
  <time>2026-09-01T19:49:49Z</time>
  <course>270.0</course>
  <speed>0.0</speed>
  <fix>3d</fix>
</trkpt>
<trkpt lat="-27.274439" lon="151.290064">
  <ele>342.93</ele>
  <time>2026-09-01T19:49:49Z</time>
  <course>10.7</course>
  <speed>0.0</speed>
  <fix>3d</fix>
</trkpt>
<trkpt lat="-27.274439" lon="151.290064">
  <ele>343.1</ele>
  <time>2026-09-01T19:49:49Z</time>
  <course>270.0</course>
  <speed>0.0</speed>
  <fix>3d</fix>
</trkpt>
<trkpt lat="-27.274439" lon="151.290064">
  <ele>342.93</ele>
  <time>2026-09-01T19:49:49Z</time>
  <course>10.7</course>
  <speed>0.0</speed>
  <fix>3d</fix>
</trkpt>
<trkpt lat="-27.274439" lon="151.290064">
  <ele>343.1</ele>
  <time>2026-09-01T19:49:49Z</time>
  <course>270.0</course>
  <speed>0.0</speed>
  <fix>3d</fix>
</trkpt>
<trkpt lat="-27.274439" lon="151.290064">
  <ele>342.93</ele>
  <time>2026-09-01T19:49:49Z</time>
  <course>10.7</course>
  <speed>0.0</speed>
  <fix>3d</fix>
</trkpt>
<trkpt lat="-27.274439" lon="151.290064">
  <ele>343.1</ele>
  <time>2026-09-01T19:49:49Z</time>
  <course>270.0</course>
  <speed>0.0</speed>
  <fix>3d</fix>
</trkpt>
<trkpt lat="-27.274439" lon="151.290064">
  <ele>342.93</ele>
  <time>2026-09-01T19:49:49Z</time>
  <course>10.7</course>
  <speed>0.0</speed>
  <fix>3d</fix>
</trkpt>
<trkpt lat="-27.274439" lon="151.290064">
  <ele>343.1</ele>
  <time>2026-09-01T19:49:49Z</time>
  <course>270.0</course>
  <speed>0.0</speed>
  <fix>3d</fix>
</trkpt>
<trkpt lat="-27.274439" lon="151.290064">
  <ele>342.93</ele>
  <time>2026-09-01T19:49:49Z</time>
  <course>10.7</course>
  <speed>0.0</speed>
  <fix>3d</fix>
</trkpt>
<trkpt lat="-27.274439" lon="151.290064">
  <ele>343.1</ele>
  <time>2026-09-01T19:49:49Z</time>
  <course>270.0</course>
  <speed>0.0</speed>
  <fix>3d</fix>
</trkpt>
<trkpt lat="-27.274439" lon="151.290064">
  <ele>342.93</ele>
  <time>2026-09-01T19:49:49Z</time>
  <course>10.7</course>
  <speed>0.01</speed>
  <fix>3d</fix>
</trkpt>
<trkpt lat="-27.274439" lon="151.290064">
  <ele>343.1</ele>
  <time>2026-09-01T19:49:49Z</time>
  <course>270.0</course>
  <speed>0.0</speed>
  <fix>3d</fix>
</trkpt>
<trkpt lat="-27.274439" lon="151.290064">
  <ele>342.93</ele>
  <time>2026-09-01T19:49:49Z</time>
  <course>10.7</course>
  <speed>0.01</speed>
  <fix>3d</fix>
</trkpt>
<trkpt lat="-27.274439" lon="151.290064">
  <ele>343.1</ele>
  <time>2026-09-01T19:49:49Z</time>
  <course>270.0</course>
  <speed>0.0</speed>
  <fix>3d</fix>
</trkpt>
<trkpt lat="-27.274439" lon="151.290064">
  <ele>342.92</ele>
  <time>2026-09-01T19:49:49Z</time>
  <course>10.7</course>
  <speed>0.01</speed>
  <fix>3d</fix>
</trkpt>
<trkpt lat="-27.274439" lon="151.290064">
  <ele>343.1</ele>
  <time>2026-09-01T19:49:49Z</time>
  <course>270.0</course>
  <speed>0.0</speed>
  <fix>3d</fix>
</trkpt>
<trkpt lat="-27.274439" lon="151.290064">
  <ele>343.09</ele>
  <time>2026-09-01T19:49:49Z</time>
  <course>10.7</course>
  <speed>0.01</speed>
  <fix>3d</fix>
</trkpt>
<trkpt lat="-27.274439" lon="151.290064">
  <ele>343.1</ele>
  <time>2026-09-01T19:49:49Z</time>
  <course>270.0</course>
  <speed>0.0</speed>
  <fix>3d</fix>
</trkpt>
<trkpt lat="-27.274439" lon="151.290064">
  <ele>343.09</ele>
  <time>2026-09-01T19:49:49Z</time>
  <course>10.7</course>
  <speed>0.01</speed>
  <fix>3d</fix>
</trkpt>
<trkpt lat="-27.274439" lon="151.290064">
  <ele>343.1</ele>
  <time>2026-09-01T19:49:49Z</time>
  <course>270.0</course>
  <speed>0.0</speed>
  <fix>3d</fix>
</trkpt>
<trkpt lat="-27.274439" lon="151.290064">
  <ele>343.09</ele>
  <time>2026-09-01T19:49:49Z</time>
  <course>10.7</course>
  <speed>0.01</speed>
  <fix>3d</fix>
</trkpt>
<trkpt lat="-27.274439" lon="151.290064">
  <ele>343.1</ele>
  <time>2026-09-01T19:49:49Z</time>
  <course>270.0</course>
  <speed>0.0</speed>
  <fix>3d</fix>
</trkpt>
<trkpt lat="-27.274439" lon="151.290064">
  <ele>343.09</ele>
  <time>2026-09-01T19:49:49Z</time>
  <course>10.7</course>
  <speed>0.01</speed>
  <fix>3d</fix>
</trkpt>
<trkpt lat="-27.274439" lon="151.290064">
  <ele>343.1</ele>
  <time>2026-09-01T19:49:49Z</time>
  <course>270.0</course>
  <speed>0.0</speed>
  <fix>3d</fix>
</trkpt>
<trkpt lat="-27.274439" lon="151.290064">
  <ele>343.09</ele>
  <time>2026-09-01T19:49:49Z</time>
  <course>10.7</course>
  <speed>0.01</speed>
  <fix>3d</fix>
</trkpt>
<trkpt lat="-27.274439" lon="151.290064">
  <ele>343.1</ele>
  <time>2026-09-01T19:49:49Z</time>
  <course>270.0</course>
  <speed>0.0</speed>
  <fix>3d</fix>
</trkpt>
<trkpt lat="-27.274439" lon="151.290064">
  <ele>343.08</ele>
  <time>2026-09-01T19:49:49Z</time>
  <course>10.7</course>
  <speed>0.01</speed>
  <fix>3d</fix>
</trkpt>
<trkpt lat="-27.274439" lon="151.290064">
  <ele>343.1</ele>
  <time>2026-09-01T19:49:49Z</time>
  <course>270.0</course>
  <speed>0.0</speed>
  <fix>3d</fix>
</trkpt>
<trkpt lat="-27.274439" lon="151.290064">
  <ele>343.08</ele>
  <time>2026-09-01T19:49:49Z</time>
  <course>10.7</course>
  <speed>0.01</speed>
  <fix>3d</fix>
</trkpt>
<trkpt lat="-27.274439" lon="151.290064">
  <ele>343.1</ele>
  <time>2026-09-01T19:49:49Z</time>
  <course>270.0</course>
  <speed>0.0</speed>
  <fix>3d</fix>
</trkpt>
<trkpt lat="-26.9720619" lon="149.6127921">
  <ele>339.29</ele>
  <time>2026-09-01T19:49:51Z</time>
  <course>310.27</course>
  <speed>0.0</speed>
  <fix>3d</fix>
</trkpt>
<trkpt lat="-26.9720619" lon="149.6127921">
  <ele>339.29</ele>
  <time>2026-09-01T19:49:51Z</time>
  <course>310.27</course>
  <speed>0.0</speed>
  <fix>3d</fix>
</trkpt>
<trkpt lat="-27.274439" lon="151.290064">
  <ele>-0.01</ele>
  <time>2026-09-01T19:49:51Z</time>
  <course>0.22</course>
  <speed>0.0</speed>
  <fix>3d</fix>
</trkpt>
<trkpt lat="-27.274439" lon="151.290064">
  <ele>343.1</ele>
  <time>2026-09-01T19:49:51Z</time>
  <course>294.58</course>
  <speed>0.0</speed>
  <fix>3d</fix>
</trkpt>
<trkpt lat="-27.274439" lon="151.290064">
  <ele>0.02</ele>
  <time>2026-09-01T19:49:51Z</time>
  <course>1.2</course>
  <speed>0.0</speed>
  <fix>3d</fix>
</trkpt>
<trkpt lat="-27.274439" lon="151.290064">
  <ele>343.1</ele>
  <time>2026-09-01T19:49:51Z</time>
  <course>294.58</course>
  <speed>0.0</speed>
  <fix>3d</fix>
</trkpt>
<trkpt lat="-27.274439" lon="151.290064">
  <ele>-0.08</ele>
  <time>2026-09-01T19:49:51Z</time>
  <course>2.1</course>
  <speed>0.0</speed>
  <fix>3d</fix>
</trkpt>
<trkpt lat="-27.274439" lon="151.290064">
  <ele>343.1</ele>
  <time>2026-09-01T19:49:51Z</time>
  <course>273.33</course>
  <speed>0.0</speed>
  <fix>3d</fix>
</trkpt>
<trkpt lat="-27.274439" lon="151.290064">
  <ele>0.22</ele>
  <time>2026-09-01T19:49:51Z</time>
  <course>2.92</course>
  <speed>0.0</speed>
  <fix>3d</fix>
</trkpt>
<trkpt lat="-27.274439" lon="151.290064">
  <ele>343.1</ele>
  <time>2026-09-01T19:49:51Z</time>
  <course>273.33</course>
  <speed>0.0</speed>
  <fix>3d</fix>
</trkpt>
<trkpt lat="-27.274439" lon="151.290064">
  <ele>0.09</ele>
  <time>2026-09-01T19:49:51Z</time>
  <course>3.66</course>
  <speed>0.0</speed>
  <fix>3d</fix>
</trkpt>
<trkpt lat="-27.274439" lon="151.290064">
  <ele>343.1</ele>
  <time>2026-09-01T19:49:51Z</time>
  <course>270.44</course>
  <speed>0.0</speed>
  <fix>3d</fix>
</trkpt>
<trkpt lat="-27.274439" lon="151.290064">
  <ele>0.08</ele>
  <time>2026-09-01T19:49:51Z</time>
  <course>4.34</course>
  <speed>0.0</speed>
  <fix>3d</fix>
</trkpt>
<trkpt lat="-27.274439" lon="151.290064">
  <ele>343.1</ele>
  <time>2026-09-01T19:49:51Z</time>
  <course>270.44</course>
  <speed>0.0</speed>
  <fix>3d</fix>
</trkpt>
<trkpt lat="-27.274439" lon="151.290064">
  <ele>0.09</ele>
  <time>2026-09-01T19:49:51Z</time>
  <course>4.95</course>
  <speed>0.0</speed>
  <fix>3d</fix>
</trkpt>
<trkpt lat="-27.274439" lon="151.290064">
  <ele>343.1</ele>
  <time>2026-09-01T19:49:51Z</time>
  <course>270.05</course>
  <speed>0.0</speed>
  <fix>3d</fix>
</trkpt>
<trkpt lat="-27.274439" lon="151.290064">
  <ele>-0.05</ele>
  <time>2026-09-01T19:49:51Z</time>
  <course>5.5</course>
  <speed>0.0</speed>
  <fix>3d</fix>
</trkpt>
<trkpt lat="-27.274439" lon="151.290064">
  <ele>343.1</ele>
  <time>2026-09-01T19:49:51Z</time>
  <course>270.05</course>
  <speed>0.0</speed>
  <fix>3d</fix>
</trkpt>
<trkpt lat="-27.274439" lon="151.290064">
  <ele>343.06</ele>
  <time>2026-09-01T19:49:51Z</time>
  <course>5.98</course>
  <speed>0.0</speed>
  <fix>3d</fix>
</trkpt>
<trkpt lat="-27.274439" lon="151.290064">
  <ele>343.1</ele>
  <time>2026-09-01T19:49:51Z</time>
  <course>270.0</course>
  <speed>0.0</speed>
  <fix>3d</fix>
</trkpt>
<trkpt lat="-27.274439" lon="151.290064">
  <ele>343.18</ele>
  <time>2026-09-01T19:49:51Z</time>
  <course>6.44</course>
  <speed>0.0</speed>
  <fix>3d</fix>
</trkpt>
<trkpt lat="-27.274439" lon="151.290064">
  <ele>343.1</ele>
  <time>2026-09-01T19:49:51Z</time>
  <course>270.0</course>
  <speed>0.0</speed>
  <fix>3d</fix>
</trkpt>
<trkpt lat="-27.274439" lon="151.290064">
  <ele>342.91</ele>
  <time>2026-09-01T19:49:51Z</time>
  <course>6.85</course>
  <speed>0.0</speed>
  <fix>3d</fix>
</trkpt>
<trkpt lat="-27.274439" lon="151.290064">
  <ele>343.1</ele>
  <time>2026-09-01T19:49:51Z</time>
  <course>270.0</course>
  <speed>0.0</speed>
  <fix>3d</fix>
</trkpt>
<trkpt lat="-27.274439" lon="151.290064">
  <ele>343.06</ele>
  <time>2026-09-01T19:49:51Z</time>
  <course>7.22</course>
  <speed>0.0</speed>
  <fix>3d</fix>
</trkpt>
<trkpt lat="-27.274439" lon="151.290064">
  <ele>343.1</ele>
  <time>2026-09-01T19:49:51Z</time>
  <course>270.0</course>
  <speed>0.0</speed>
  <fix>3d</fix>
</trkpt>
<trkpt lat="-27.274439" lon="151.290064">
  <ele>343.13</ele>
  <time>2026-09-01T19:49:51Z</time>
  <course>7.56</course>
  <speed>0.0</speed>
  <fix>3d</fix>
</trkpt>
<trkpt lat="-27.274439" lon="151.290064">
  <ele>343.1</ele>
  <time>2026-09-01T19:49:51Z</time>
  <course>270.0</course>
  <speed>0.0</speed>
  <fix>3d</fix>
</trkpt>
<trkpt lat="-27.274439" lon="151.290064">
  <ele>343.04</ele>
  <time>2026-09-01T19:49:51Z</time>
  <course>7.87</course>
  <speed>0.0</speed>
  <fix>3d</fix>
</trkpt>
<trkpt lat="-27.274439" lon="151.290064">
  <ele>343.1</ele>
  <time>2026-09-01T19:49:51Z</time>
  <course>270.0</course>
  <speed>0.0</speed>
  <fix>3d</fix>
</trkpt>
<trkpt lat="-27.274439" lon="151.290064">
  <ele>342.88</ele>
  <time>2026-09-01T19:49:51Z</time>
  <course>8.14</course>
  <speed>0.0</speed>
  <fix>3d</fix>
</trkpt>
<trkpt lat="-27.274439" lon="151.290064">
  <ele>343.1</ele>
  <time>2026-09-01T19:49:51Z</time>
  <course>270.0</course>
  <speed>0.0</speed>
  <fix>3d</fix>
</trkpt>
<trkpt lat="-27.274439" lon="151.290064">
  <ele>343.02</ele>
  <time>2026-09-01T19:49:51Z</time>
  <course>8.39</course>
  <speed>0.0</speed>
  <fix>3d</fix>
</trkpt>
<trkpt lat="-27.274439" lon="151.290064">
  <ele>343.1</ele>
  <time>2026-09-01T19:49:51Z</time>
  <course>270.0</course>
  <speed>0.0</speed>
  <fix>3d</fix>
</trkpt>
<trkpt lat="-27.274439" lon="151.290064">
  <ele>343.23</ele>
  <time>2026-09-01T19:49:51Z</time>
  <course>8.63</course>
  <speed>0.0</speed>
  <fix>3d</fix>
</trkpt>
<trkpt lat="-27.274439" lon="151.290064">
  <ele>343.1</ele>
  <time>2026-09-01T19:49:51Z</time>
  <course>270.0</course>
  <speed>0.0</speed>
  <fix>3d</fix>
</trkpt>
<trkpt lat="-27.274439" lon="151.290064">
  <ele>343.17</ele>
  <time>2026-09-01T19:49:51Z</time>
  <course>8.83</course>
  <speed>0.0</speed>
  <fix>3d</fix>
</trkpt>
<trkpt lat="-27.274439" lon="151.290064">
  <ele>343.1</ele>
  <time>2026-09-01T19:49:51Z</time>
  <course>270.0</course>
  <speed>0.0</speed>
  <fix>3d</fix>
</trkpt>
<trkpt lat="-27.274439" lon="151.290064">
  <ele>343.04</ele>
  <time>2026-09-01T19:49:51Z</time>
  <course>9.01</course>
  <speed>0.0</speed>
  <fix>3d</fix>
</trkpt>
<trkpt lat="-27.274439" lon="151.290064">
  <ele>343.1</ele>
  <time>2026-09-01T19:49:51Z</time>
  <course>270.0</course>
  <speed>0.0</speed>
  <fix>3d</fix>
</trkpt>
<trkpt lat="-27.274439" lon="151.290064">
  <ele>342.89</ele>
  <time>2026-09-01T19:49:51Z</time>
  <course>9.18</course>
  <speed>0.0</speed>
  <fix>3d</fix>
</trkpt>
<trkpt lat="-27.274439" lon="151.290064">
  <ele>343.1</ele>
  <time>2026-09-01T19:49:51Z</time>
  <course>270.0</course>
  <speed>0.0</speed>
  <fix>3d</fix>
</trkpt>
<trkpt lat="-27.274439" lon="151.290064">
  <ele>343.08</ele>
  <time>2026-09-01T19:49:51Z</time>
  <course>9.33</course>
  <speed>0.0</speed>
  <fix>3d</fix>
</trkpt>
<trkpt lat="-27.274439" lon="151.290064">
  <ele>343.1</ele>
  <time>2026-09-01T19:49:51Z</time>
  <course>270.0</course>
  <speed>0.0</speed>
  <fix>3d</fix>
</trkpt>
<trkpt lat="-27.274439" lon="151.290064">
  <ele>343.19</ele>
  <time>2026-09-01T19:49:51Z</time>
  <course>9.47</course>
  <speed>0.0</speed>
  <fix>3d</fix>
</trkpt>
<trkpt lat="-27.274439" lon="151.290064">
  <ele>343.1</ele>
  <time>2026-09-01T19:49:51Z</time>
  <course>270.0</course>
  <speed>0.0</speed>
  <fix>3d</fix>
</trkpt>
<trkpt lat="-27.274439" lon="151.290064">
  <ele>342.88</ele>
  <time>2026-09-01T19:49:51Z</time>
  <course>9.59</course>
  <speed>0.0</speed>
  <fix>3d</fix>
</trkpt>
<trkpt lat="-27.274439" lon="151.290064">
  <ele>343.1</ele>
  <time>2026-09-01T19:49:51Z</time>
  <course>270.0</course>
  <speed>0.0</speed>
  <fix>3d</fix>
</trkpt>
<trkpt lat="-27.274439" lon="151.290064">
  <ele>343.17</ele>
  <time>2026-09-01T19:49:51Z</time>
  <course>9.7</course>
  <speed>0.0</speed>
  <fix>3d</fix>
</trkpt>
<trkpt lat="-27.274439" lon="151.290064">
  <ele>343.1</ele>
  <time>2026-09-01T19:49:51Z</time>
  <course>270.0</course>
  <speed>0.0</speed>
  <fix>3d</fix>
</trkpt>
<trkpt lat="-27.274439" lon="151.290064">
  <ele>342.89</ele>
  <time>2026-09-01T19:49:51Z</time>
  <course>9.8</course>
  <speed>0.0</speed>
  <fix>3d</fix>
</trkpt>
<trkpt lat="-27.274439" lon="151.290064">
  <ele>343.1</ele>
  <time>2026-09-01T19:49:51Z</time>
  <course>270.0</course>
  <speed>0.0</speed>
  <fix>3d</fix>
</trkpt>
<trkpt lat="-27.274439" lon="151.290064">
  <ele>342.99</ele>
  <time>2026-09-01T19:49:51Z</time>
  <course>9.9</course>
  <speed>0.0</speed>
  <fix>3d</fix>
</trkpt>
<trkpt lat="-27.274439" lon="151.290064">
  <ele>343.1</ele>
  <time>2026-09-01T19:49:51Z</time>
  <course>270.0</course>
  <speed>0.0</speed>
  <fix>3d</fix>
</trkpt>
<trkpt lat="-27.274439" lon="151.290064">
  <ele>342.87</ele>
  <time>2026-09-01T19:49:51Z</time>
  <course>9.98</course>
  <speed>0.0</speed>
  <fix>3d</fix>
</trkpt>
<trkpt lat="-27.274439" lon="151.290064">
  <ele>343.1</ele>
  <time>2026-09-01T19:49:51Z</time>
  <course>270.0</course>
  <speed>0.0</speed>
  <fix>3d</fix>
</trkpt>
<trkpt lat="-27.274439" lon="151.290064">
  <ele>343.09</ele>
  <time>2026-09-01T19:49:51Z</time>
  <course>10.06</course>
  <speed>0.0</speed>
  <fix>3d</fix>
</trkpt>
<trkpt lat="-27.274439" lon="151.290064">
  <ele>343.1</ele>
  <time>2026-09-01T19:49:51Z</time>
  <course>270.0</course>
  <speed>0.0</speed>
  <fix>3d</fix>
</trkpt>
<trkpt lat="-27.274439" lon="151.290064">
  <ele>343.18</ele>
  <time>2026-09-01T19:49:51Z</time>
  <course>10.13</course>
  <speed>0.0</speed>
  <fix>3d</fix>
</trkpt>
<trkpt lat="-27.274439" lon="151.290064">
  <ele>343.1</ele>
  <time>2026-09-01T19:49:51Z</time>
  <course>270.0</course>
  <speed>0.0</speed>
  <fix>3d</fix>
</trkpt>
<trkpt lat="-27.274439" lon="151.290064">
  <ele>343.05</ele>
  <time>2026-09-01T19:49:51Z</time>
  <course>10.2</course>
  <speed>0.0</speed>
  <fix>3d</fix>
</trkpt>
<trkpt lat="-27.274439" lon="151.290064">
  <ele>343.1</ele>
  <time>2026-09-01T19:49:51Z</time>
  <course>270.0</course>
  <speed>0.0</speed>
  <fix>3d</fix>
</trkpt>
<trkpt lat="-27.274439" lon="151.290064">
  <ele>342.96</ele>
  <time>2026-09-01T19:49:51Z</time>
  <course>10.25</course>
  <speed>0.0</speed>
  <fix>3d</fix>
</trkpt>
<trkpt lat="-27.274439" lon="151.290064">
  <ele>343.1</ele>
  <time>2026-09-01T19:49:51Z</time>
  <course>270.0</course>
  <speed>0.0</speed>
  <fix>3d</fix>
</trkpt>
<trkpt lat="-27.274439" lon="151.290064">
  <ele>343.1</ele>
  <time>2026-09-01T19:49:51Z</time>
  <course>10.31</course>
  <speed>0.0</speed>
  <fix>3d</fix>
</trkpt>
<trkpt lat="-27.274439" lon="151.290064">
  <ele>343.1</ele>
  <time>2026-09-01T19:49:51Z</time>
  <course>270.0</course>
  <speed>0.0</speed>
  <fix>3d</fix>
</trkpt>
<trkpt lat="-27.274439" lon="151.290064">
  <ele>343.22</ele>
  <time>2026-09-01T19:49:51Z</time>
  <course>10.35</course>
  <speed>0.0</speed>
  <fix>3d</fix>
</trkpt>
<trkpt lat="-27.274439" lon="151.290064">
  <ele>343.1</ele>
  <time>2026-09-01T19:49:51Z</time>
  <course>270.0</course>
  <speed>0.0</speed>
  <fix>3d</fix>
</trkpt>
<trkpt lat="-27.274439" lon="151.290064">
  <ele>343.17</ele>
  <time>2026-09-01T19:49:51Z</time>
  <course>10.4</course>
  <speed>0.0</speed>
  <fix>3d</fix>
</trkpt>
<trkpt lat="-27.274439" lon="151.290064">
  <ele>343.1</ele>
  <time>2026-09-01T19:49:51Z</time>
  <course>270.0</course>
  <speed>0.0</speed>
  <fix>3d</fix>
</trkpt>
<trkpt lat="-27.274439" lon="151.290064">
  <ele>343.08</ele>
  <time>2026-09-01T19:49:51Z</time>
  <course>10.44</course>
  <speed>0.0</speed>
  <fix>3d</fix>
</trkpt>
<trkpt lat="-27.274439" lon="151.290064">
  <ele>343.1</ele>
  <time>2026-09-01T19:49:51Z</time>
  <course>270.0</course>
  <speed>0.0</speed>
  <fix>3d</fix>
</trkpt>
<trkpt lat="-27.274439" lon="151.290064">
  <ele>343.04</ele>
  <time>2026-09-01T19:49:51Z</time>
  <course>10.47</course>
  <speed>0.0</speed>
  <fix>3d</fix>
</trkpt>
<trkpt lat="-27.274439" lon="151.290064">
  <ele>343.1</ele>
  <time>2026-09-01T19:49:51Z</time>
  <course>270.0</course>
  <speed>0.0</speed>
  <fix>3d</fix>
</trkpt>
<trkpt lat="-27.274439" lon="151.290064">
  <ele>343.18</ele>
  <time>2026-09-01T19:49:51Z</time>
  <course>10.5</course>
  <speed>0.0</speed>
  <fix>3d</fix>
</trkpt>
<trkpt lat="-27.274439" lon="151.290064">
  <ele>343.1</ele>
  <time>2026-09-01T19:49:51Z</time>
  <course>270.0</course>
  <speed>0.0</speed>
  <fix>3d</fix>
</trkpt>
<trkpt lat="-27.274439" lon="151.290064">
  <ele>343.12</ele>
  <time>2026-09-01T19:49:51Z</time>
  <course>10.53</course>
  <speed>0.0</speed>
  <fix>3d</fix>
</trkpt>
<trkpt lat="-27.274439" lon="151.290064">
  <ele>343.1</ele>
  <time>2026-09-01T19:49:51Z</time>
  <course>270.0</course>
  <speed>0.0</speed>
  <fix>3d</fix>
</trkpt>
<trkpt lat="-27.274439" lon="151.290064">
  <ele>343.04</ele>
  <time>2026-09-01T19:49:51Z</time>
  <course>10.56</course>
  <speed>0.0</speed>
  <fix>3d</fix>
</trkpt>
<trkpt lat="-27.274439" lon="151.290064">
  <ele>343.1</ele>
  <time>2026-09-01T19:49:51Z</time>
  <course>270.0</course>
  <speed>0.0</speed>
  <fix>3d</fix>
</trkpt>
<trkpt lat="-27.274439" lon="151.290064">
  <ele>343.07</ele>
  <time>2026-09-01T19:49:51Z</time>
  <course>10.58</course>
  <speed>0.0</speed>
  <fix>3d</fix>
</trkpt>
<trkpt lat="-27.274439" lon="151.290064">
  <ele>343.1</ele>
  <time>2026-09-01T19:49:51Z</time>
  <course>270.0</course>
  <speed>0.0</speed>
  <fix>3d</fix>
</trkpt>
<trkpt lat="-27.274439" lon="151.290064">
  <ele>343.04</ele>
  <time>2026-09-01T19:49:51Z</time>
  <course>10.6</course>
  <speed>0.0</speed>
  <fix>3d</fix>
</trkpt>
<trkpt lat="-27.274439" lon="151.290064">
  <ele>343.1</ele>
  <time>2026-09-01T19:49:51Z</time>
  <course>270.0</course>
  <speed>0.0</speed>
  <fix>3d</fix>
</trkpt>
<trkpt lat="-27.274439" lon="151.290064">
  <ele>343.01</ele>
  <time>2026-09-01T19:49:51Z</time>
  <course>10.62</course>
  <speed>0.0</speed>
  <fix>3d</fix>
</trkpt>
<trkpt lat="-27.274439" lon="151.290064">
  <ele>343.1</ele>
  <time>2026-09-01T19:49:51Z</time>
  <course>270.0</course>
  <speed>0.0</speed>
  <fix>3d</fix>
</trkpt>
<trkpt lat="-27.274439" lon="151.290064">
  <ele>343.2</ele>
  <time>2026-09-01T19:49:51Z</time>
  <course>10.64</course>
  <speed>0.0</speed>
  <fix>3d</fix>
</trkpt>
<trkpt lat="-27.274439" lon="151.290064">
  <ele>343.1</ele>
  <time>2026-09-01T19:49:51Z</time>
  <course>270.0</course>
  <speed>0.0</speed>
  <fix>3d</fix>
</trkpt>
<trkpt lat="-27.274439" lon="151.290064">
  <ele>343.24</ele>
  <time>2026-09-01T19:49:51Z</time>
  <course>10.65</course>
  <speed>0.0</speed>
  <fix>3d</fix>
</trkpt>
<trkpt lat="-27.274439" lon="151.290064">
  <ele>343.1</ele>
  <time>2026-09-01T19:49:51Z</time>
  <course>270.0</course>
  <speed>0.0</speed>
  <fix>3d</fix>
</trkpt>
<trkpt lat="-27.274439" lon="151.290064">
  <ele>342.88</ele>
  <time>2026-09-01T19:49:51Z</time>
  <course>10.67</course>
  <speed>0.0</speed>
  <fix>3d</fix>
</trkpt>
<trkpt lat="-27.274439" lon="151.290064">
  <ele>343.1</ele>
  <time>2026-09-01T19:49:51Z</time>
  <course>270.0</course>
  <speed>0.0</speed>
  <fix>3d</fix>
</trkpt>
<trkpt lat="-27.274439" lon="151.290064">
  <ele>343.21</ele>
  <time>2026-09-01T19:49:51Z</time>
  <course>10.68</course>
  <speed>0.0</speed>
  <fix>3d</fix>
</trkpt>
<trkpt lat="-27.274439" lon="151.290064">
  <ele>343.1</ele>
  <time>2026-09-01T19:49:51Z</time>
  <course>270.0</course>
  <speed>0.0</speed>
  <fix>3d</fix>
</trkpt>
<trkpt lat="-27.274439" lon="151.290064">
  <ele>343.02</ele>
  <time>2026-09-01T19:49:51Z</time>
  <course>10.69</course>
  <speed>0.0</speed>
  <fix>3d</fix>
</trkpt>
<trkpt lat="-27.274439" lon="151.290064">
  <ele>343.1</ele>
  <time>2026-09-01T19:49:51Z</time>
  <course>270.0</course>
  <speed>0.0</speed>
  <fix>3d</fix>
</trkpt>
<trkpt lat="-27.274439" lon="151.290064">
  <ele>342.93</ele>
  <time>2026-09-01T19:49:51Z</time>
  <course>10.7</course>
  <speed>0.0</speed>
  <fix>3d</fix>
</trkpt>
<trkpt lat="-27.274439" lon="151.290064">
  <ele>343.1</ele>
  <time>2026-09-01T19:49:51Z</time>
  <course>270.0</course>
  <speed>0.0</speed>
  <fix>3d</fix>
</trkpt>
<trkpt lat="-27.274439" lon="151.290064">
  <ele>343.07</ele>
  <time>2026-09-01T19:49:51Z</time>
  <course>10.71</course>
  <speed>0.0</speed>
  <fix>3d</fix>
</trkpt>
<trkpt lat="-27.274439" lon="151.290064">
  <ele>343.1</ele>
  <time>2026-09-01T19:49:51Z</time>
  <course>270.0</course>
  <speed>0.0</speed>
  <fix>3d</fix>
</trkpt>
<trkpt lat="-27.274439" lon="151.290064">
  <ele>342.94</ele>
  <time>2026-09-01T19:49:51Z</time>
  <course>10.72</course>
  <speed>0.0</speed>
  <fix>3d</fix>
</trkpt>
<trkpt lat="-27.274439" lon="151.290064">
  <ele>343.1</ele>
  <time>2026-09-01T19:49:51Z</time>
  <course>270.0</course>
  <speed>0.0</speed>
  <fix>3d</fix>
</trkpt>
<trkpt lat="-27.274439" lon="151.290064">
  <ele>343.11</ele>
  <time>2026-09-01T19:49:51Z</time>
  <course>10.73</course>
  <speed>0.0</speed>
  <fix>3d</fix>
</trkpt>
<trkpt lat="-27.274439" lon="151.290064">
  <ele>343.1</ele>
  <time>2026-09-01T19:49:51Z</time>
  <course>270.0</course>
  <speed>0.0</speed>
  <fix>3d</fix>
</trkpt>
<trkpt lat="-27.274439" lon="151.290064">
  <ele>343.24</ele>
  <time>2026-09-01T19:49:51Z</time>
  <course>10.73</course>
  <speed>0.0</speed>
  <fix>3d</fix>
</trkpt>
<trkpt lat="-27.274439" lon="151.290064">
  <ele>343.1</ele>
  <time>2026-09-01T19:49:51Z</time>
  <course>270.0</course>
  <speed>0.0</speed>
  <fix>3d</fix>
</trkpt>
<trkpt lat="-27.274439" lon="151.290064">
  <ele>343.18</ele>
  <time>2026-09-01T19:49:51Z</time>
  <course>10.74</course>
  <speed>0.0</speed>
  <fix>3d</fix>
</trkpt>
<trkpt lat="-27.274439" lon="151.290064">
  <ele>343.1</ele>
  <time>2026-09-01T19:49:51Z</time>
  <course>270.0</course>
  <speed>0.0</speed>
  <fix>3d</fix>
</trkpt>
<trkpt lat="-27.274439" lon="151.290064">
  <ele>342.89</ele>
  <time>2026-09-01T19:49:51Z</time>
  <course>10.75</course>
  <speed>0.0</speed>
  <fix>3d</fix>
</trkpt>
<trkpt lat="-27.274439" lon="151.290064">
  <ele>343.1</ele>
  <time>2026-09-01T19:49:51Z</time>
  <course>270.0</course>
  <speed>0.0</speed>
  <fix>3d</fix>
</trkpt>
<trkpt lat="-27.274439" lon="151.290064">
  <ele>343.23</ele>
  <time>2026-09-01T19:49:51Z</time>
  <course>10.75</course>
  <speed>0.0</speed>
  <fix>3d</fix>
</trkpt>
<trkpt lat="-27.274439" lon="151.290064">
  <ele>343.1</ele>
  <time>2026-09-01T19:49:51Z</time>
  <course>270.0</course>
  <speed>0.0</speed>
  <fix>3d</fix>
</trkpt>
<trkpt lat="-27.274439" lon="151.290064">
  <ele>343.23</ele>
  <time>2026-09-01T19:49:51Z</time>
  <course>10.76</course>
  <speed>0.0</speed>
  <fix>3d</fix>
</trkpt>
<trkpt lat="-27.274439" lon="151.290064">
  <ele>343.1</ele>
  <time>2026-09-01T19:49:51Z</time>
  <course>270.0</course>
  <speed>0.0</speed>
  <fix>3d</fix>
</trkpt>
<trkpt lat="-27.274439" lon="151.290064">
  <ele>342.99</ele>
  <time>2026-09-01T19:49:51Z</time>
  <course>10.76</course>
  <speed>0.0</speed>
  <fix>3d</fix>
</trkpt>
<trkpt lat="-27.274439" lon="151.290064">
  <ele>343.1</ele>
  <time>2026-09-01T19:49:51Z</time>
  <course>270.0</course>
  <speed>0.0</speed>
  <fix>3d</fix>
</trkpt>
<trkpt lat="-27.274439" lon="151.290064">
  <ele>343.13</ele>
  <time>2026-09-01T19:49:51Z</time>
  <course>10.76</course>
  <speed>0.0</speed>
  <fix>3d</fix>
</trkpt>
<trkpt lat="-27.274439" lon="151.290064">
  <ele>343.1</ele>
  <time>2026-09-01T19:49:51Z</time>
  <course>270.0</course>
  <speed>0.0</speed>
  <fix>3d</fix>
</trkpt>
<trkpt lat="-27.274439" lon="151.290064">
  <ele>343.07</ele>
  <time>2026-09-01T19:49:51Z</time>
  <course>10.77</course>
  <speed>0.0</speed>
  <fix>3d</fix>
</trkpt>
<trkpt lat="-27.274439" lon="151.290064">
  <ele>343.1</ele>
  <time>2026-09-01T19:49:51Z</time>
  <course>270.0</course>
  <speed>0.0</speed>
  <fix>3d</fix>
</trkpt>
<trkpt lat="-27.274439" lon="151.290064">
  <ele>343.19</ele>
  <time>2026-09-01T19:49:51Z</time>
  <course>10.77</course>
  <speed>0.0</speed>
  <fix>3d</fix>
</trkpt>
<trkpt lat="-27.274439" lon="151.290064">
  <ele>343.1</ele>
  <time>2026-09-01T19:49:51Z</time>
  <course>270.0</course>
  <speed>0.0</speed>
  <fix>3d</fix>
</trkpt>
<trkpt lat="-27.274439" lon="151.290064">
  <ele>342.93</ele>
  <time>2026-09-01T19:49:51Z</time>
  <course>10.77</course>
  <speed>0.0</speed>
  <fix>3d</fix>
</trkpt>
<trkpt lat="-27.274439" lon="151.290064">
  <ele>343.1</ele>
  <time>2026-09-01T19:49:51Z</time>
  <course>270.0</course>
  <speed>0.0</speed>
  <fix>3d</fix>
</trkpt>
<trkpt lat="-27.274439" lon="151.290064">
  <ele>343.19</ele>
  <time>2026-09-01T19:49:51Z</time>
  <course>10.78</course>
  <speed>0.0</speed>
  <fix>3d</fix>
</trkpt>
<trkpt lat="-27.274439" lon="151.290064">
  <ele>343.1</ele>
  <time>2026-09-01T19:49:51Z</time>
  <course>270.0</course>
  <speed>0.0</speed>
  <fix>3d</fix>
</trkpt>
<trkpt lat="-27.274439" lon="151.290064">
  <ele>343.1</ele>
  <time>2026-09-01T19:49:51Z</time>
  <course>10.78</course>
  <speed>0.0</speed>
  <fix>3d</fix>
</trkpt>
<trkpt lat="-27.274439" lon="151.290064">
  <ele>343.1</ele>
  <time>2026-09-01T19:49:51Z</time>
  <course>270.0</course>
  <speed>0.0</speed>
  <fix>3d</fix>
</trkpt>
<trkpt lat="-27.274439" lon="151.290064">
  <ele>343.01</ele>
  <time>2026-09-01T19:49:51Z</time>
  <course>10.78</course>
  <speed>0.0</speed>
  <fix>3d</fix>
</trkpt>
<trkpt lat="-27.274439" lon="151.290064">
  <ele>343.1</ele>
  <time>2026-09-01T19:49:51Z</time>
  <course>270.0</course>
  <speed>0.0</speed>
  <fix>3d</fix>
</trkpt>
<trkpt lat="-27.274439" lon="151.290064">
  <ele>343.11</ele>
  <time>2026-09-01T19:49:51Z</time>
  <course>10.78</course>
  <speed>0.0</speed>
  <fix>3d</fix>
</trkpt>
<trkpt lat="-27.274439" lon="151.290064">
  <ele>343.1</ele>
  <time>2026-09-01T19:49:51Z</time>
  <course>270.0</course>
  <speed>0.0</speed>
  <fix>3d</fix>
</trkpt>
<trkpt lat="-27.274439" lon="151.290064">
  <ele>342.96</ele>
  <time>2026-09-01T19:49:51Z</time>
  <course>10.78</course>
  <speed>0.0</speed>
  <fix>3d</fix>
</trkpt>
<trkpt lat="-27.274439" lon="151.290064">
  <ele>343.1</ele>
  <time>2026-09-01T19:49:51Z</time>
  <course>270.0</course>
  <speed>0.0</speed>
  <fix>3d</fix>
</trkpt>
<trkpt lat="-27.274439" lon="151.290064">
  <ele>343.19</ele>
  <time>2026-09-01T19:49:51Z</time>
  <course>10.79</course>
  <speed>0.0</speed>
  <fix>3d</fix>
</trkpt>
<trkpt lat="-27.274439" lon="151.290064">
  <ele>343.1</ele>
  <time>2026-09-01T19:49:51Z</time>
  <course>270.0</course>
  <speed>0.0</speed>
  <fix>3d</fix>
</trkpt>
<trkpt lat="-27.274439" lon="151.290064">
  <ele>343.0</ele>
  <time>2026-09-01T19:49:51Z</time>
  <course>10.79</course>
  <speed>0.0</speed>
  <fix>3d</fix>
</trkpt>
<trkpt lat="-27.274439" lon="151.290064">
  <ele>343.1</ele>
  <time>2026-09-01T19:49:51Z</time>
  <course>270.0</course>
  <speed>0.0</speed>
  <fix>3d</fix>
</trkpt>
<trkpt lat="-27.274439" lon="151.290064">
  <ele>343.2</ele>
  <time>2026-09-01T19:49:51Z</time>
  <course>10.79</course>
  <speed>0.0</speed>
  <fix>3d</fix>
</trkpt>
<trkpt lat="-27.274439" lon="151.290064">
  <ele>343.1</ele>
  <time>2026-09-01T19:49:51Z</time>
  <course>270.0</course>
  <speed>0.0</speed>
  <fix>3d</fix>
</trkpt>
<trkpt lat="-27.274439" lon="151.290064">
  <ele>343.2</ele>
  <time>2026-09-01T19:49:51Z</time>
  <course>10.79</course>
  <speed>0.0</speed>
  <fix>3d</fix>
</trkpt>
<trkpt lat="-27.274439" lon="151.290064">
  <ele>343.1</ele>
  <time>2026-09-01T19:49:51Z</time>
  <course>270.0</course>
  <speed>0.0</speed>
  <fix>3d</fix>
</trkpt>
<trkpt lat="-27.274439" lon="151.290064">
  <ele>343.13</ele>
  <time>2026-09-01T19:49:51Z</time>
  <course>10.79</course>
  <speed>0.0</speed>
  <fix>3d</fix>
</trkpt>
<trkpt lat="-27.274439" lon="151.290064">
  <ele>343.1</ele>
  <time>2026-09-01T19:49:51Z</time>
  <course>270.0</course>
  <speed>0.0</speed>
  <fix>3d</fix>
</trkpt>
<trkpt lat="-27.274439" lon="151.290064">
  <ele>343.1</ele>
  <time>2026-09-01T19:49:51Z</time>
  <course>10.79</course>
  <speed>0.0</speed>
  <fix>3d</fix>
</trkpt>
<trkpt lat="-27.274439" lon="151.290064">
  <ele>343.1</ele>
  <time>2026-09-01T19:49:51Z</time>
  <course>270.0</course>
  <speed>0.0</speed>
  <fix>3d</fix>
</trkpt>
<trkpt lat="-27.274439" lon="151.290064">
  <ele>343.12</ele>
  <time>2026-09-01T19:49:51Z</time>
  <course>10.79</course>
  <speed>0.0</speed>
  <fix>3d</fix>
</trkpt>
<trkpt lat="-27.274439" lon="151.290064">
  <ele>343.1</ele>
  <time>2026-09-01T19:49:51Z</time>
  <course>270.0</course>
  <speed>0.0</speed>
  <fix>3d</fix>
</trkpt>
<trkpt lat="-27.274439" lon="151.290064">
  <ele>342.94</ele>
  <time>2026-09-01T19:49:51Z</time>
  <course>10.79</course>
  <speed>0.0</speed>
  <fix>3d</fix>
</trkpt>
<trkpt lat="-27.274439" lon="151.290064">
  <ele>343.1</ele>
  <time>2026-09-01T19:49:51Z</time>
  <course>270.0</course>
  <speed>0.0</speed>
  <fix>3d</fix>
</trkpt>
<trkpt lat="-27.274439" lon="151.290064">
  <ele>343.25</ele>
  <time>2026-09-01T19:49:51Z</time>
  <course>10.79</course>
  <speed>0.0</speed>
  <fix>3d</fix>
</trkpt>
<trkpt lat="-27.274439" lon="151.290064">
  <ele>343.1</ele>
  <time>2026-09-01T19:49:51Z</time>
  <course>270.0</course>
  <speed>0.0</speed>
  <fix>3d</fix>
</trkpt>
<trkpt lat="-27.274439" lon="151.290064">
  <ele>342.93</ele>
  <time>2026-09-01T19:49:51Z</time>
  <course>10.79</course>
  <speed>0.0</speed>
  <fix>3d</fix>
</trkpt>
<trkpt lat="-27.274439" lon="151.290064">
  <ele>343.1</ele>
  <time>2026-09-01T19:49:51Z</time>
  <course>270.0</course>
  <speed>0.0</speed>
  <fix>3d</fix>
</trkpt>
<trkpt lat="-27.274439" lon="151.290064">
  <ele>343.08</ele>
  <time>2026-09-01T19:49:51Z</time>
  <course>10.79</course>
  <speed>0.0</speed>
  <fix>3d</fix>
</trkpt>
<trkpt lat="-27.274439" lon="151.290064">
  <ele>343.1</ele>
  <time>2026-09-01T19:49:51Z</time>
  <course>270.0</course>
  <speed>0.0</speed>
  <fix>3d</fix>
</trkpt>
<trkpt lat="-27.274439" lon="151.290064">
  <ele>343.23</ele>
  <time>2026-09-01T19:49:51Z</time>
  <course>10.8</course>
  <speed>0.0</speed>
  <fix>3d</fix>
</trkpt>
<trkpt lat="-27.274439" lon="151.290064">
  <ele>343.1</ele>
  <time>2026-09-01T19:49:51Z</time>
  <course>270.0</course>
  <speed>0.0</speed>
  <fix>3d</fix>
</trkpt>
<trkpt lat="-27.274439" lon="151.290064">
  <ele>343.01</ele>
  <time>2026-09-01T19:49:51Z</time>
  <course>10.8</course>
  <speed>0.0</speed>
  <fix>3d</fix>
</trkpt>
<trkpt lat="-27.274439" lon="151.290064">
  <ele>343.1</ele>
  <time>2026-09-01T19:49:51Z</time>
  <course>270.0</course>
  <speed>0.0</speed>
  <fix>3d</fix>
</trkpt>
<trkpt lat="-27.274439" lon="151.290064">
  <ele>343.1</ele>
  <time>2026-09-01T19:49:51Z</time>
  <course>10.8</course>
  <speed>0.0</speed>
  <fix>3d</fix>
</trkpt>
<trkpt lat="-27.274439" lon="151.290064">
  <ele>343.1</ele>
  <time>2026-09-01T19:49:51Z</time>
  <course>270.0</course>
  <speed>0.0</speed>
  <fix>3d</fix>
</trkpt>
<trkpt lat="-27.274439" lon="151.290064">
  <ele>342.99</ele>
  <time>2026-09-01T19:49:51Z</time>
  <course>10.8</course>
  <speed>0.0</speed>
  <fix>3d</fix>
</trkpt>
<trkpt lat="-27.274439" lon="151.290064">
  <ele>343.1</ele>
  <time>2026-09-01T19:49:51Z</time>
  <course>270.0</course>
  <speed>0.0</speed>
  <fix>3d</fix>
</trkpt>
<trkpt lat="-27.274439" lon="151.290064">
  <ele>342.87</ele>
  <time>2026-09-01T19:49:51Z</time>
  <course>10.8</course>
  <speed>0.0</speed>
  <fix>3d</fix>
</trkpt>
<trkpt lat="-27.274439" lon="151.290064">
  <ele>343.1</ele>
  <time>2026-09-01T19:49:51Z</time>
  <course>270.0</course>
  <speed>0.0</speed>
  <fix>3d</fix>
</trkpt>
<trkpt lat="-27.274439" lon="151.290064">
  <ele>343.1</ele>
  <time>2026-09-01T19:49:51Z</time>
  <course>10.8</course>
  <speed>0.0</speed>
  <fix>3d</fix>
</trkpt>
<trkpt lat="-27.274439" lon="151.290064">
  <ele>343.1</ele>
  <time>2026-09-01T19:49:51Z</time>
  <course>270.0</course>
  <speed>0.0</speed>
  <fix>3d</fix>
</trkpt>
<trkpt lat="-27.274439" lon="151.290064">
  <ele>342.99</ele>
  <time>2026-09-01T19:49:51Z</time>
  <course>10.8</course>
  <speed>0.0</speed>
  <fix>3d</fix>
</trkpt>
<trkpt lat="-27.274439" lon="151.290064">
  <ele>343.1</ele>
  <time>2026-09-01T19:49:51Z</time>
  <course>270.0</course>
  <speed>0.0</speed>
  <fix>3d</fix>
</trkpt>
<trkpt lat="-27.274439" lon="151.290064">
  <ele>342.91</ele>
  <time>2026-09-01T19:49:51Z</time>
  <course>10.8</course>
  <speed>0.0</speed>
  <fix>3d</fix>
</trkpt>
<trkpt lat="-27.274439" lon="151.290064">
  <ele>343.1</ele>
  <time>2026-09-01T19:49:51Z</time>
  <course>270.0</course>
  <speed>0.0</speed>
  <fix>3d</fix>
</trkpt>
<trkpt lat="-27.274439" lon="151.290064">
  <ele>342.9</ele>
  <time>2026-09-01T19:49:51Z</time>
  <course>10.8</course>
  <speed>0.0</speed>
  <fix>3d</fix>
</trkpt>
<trkpt lat="-27.274439" lon="151.290064">
  <ele>343.1</ele>
  <time>2026-09-01T19:49:51Z</time>
  <course>270.0</course>
  <speed>0.0</speed>
  <fix>3d</fix>
</trkpt>
<trkpt lat="-27.274439" lon="151.290064">
  <ele>342.87</ele>
  <time>2026-09-01T19:49:51Z</time>
  <course>10.8</course>
  <speed>0.0</speed>
  <fix>3d</fix>
</trkpt>
<trkpt lat="-27.274439" lon="151.290064">
  <ele>343.1</ele>
  <time>2026-09-01T19:49:51Z</time>
  <course>270.0</course>
  <speed>0.0</speed>
  <fix>3d</fix>
</trkpt>
<trkpt lat="-27.274439" lon="151.290064">
  <ele>343.12</ele>
  <time>2026-09-01T19:49:51Z</time>
  <course>10.8</course>
  <speed>0.0</speed>
  <fix>3d</fix>
</trkpt>
<trkpt lat="-27.274439" lon="151.290064">
  <ele>343.1</ele>
  <time>2026-09-01T19:49:51Z</time>
  <course>270.0</course>
  <speed>0.0</speed>
  <fix>3d</fix>
</trkpt>
<trkpt lat="-27.274439" lon="151.290064">
  <ele>342.99</ele>
  <time>2026-09-01T19:49:51Z</time>
  <course>10.8</course>
  <speed>0.0</speed>
  <fix>3d</fix>
</trkpt>
<trkpt lat="-27.274439" lon="151.290064">
  <ele>343.1</ele>
  <time>2026-09-01T19:49:51Z</time>
  <course>270.0</course>
  <speed>0.0</speed>
  <fix>3d</fix>
</trkpt>
<trkpt lat="-27.274439" lon="151.290064">
  <ele>343.13</ele>
  <time>2026-09-01T19:49:51Z</time>
  <course>10.8</course>
  <speed>0.0</speed>
  <fix>3d</fix>
</trkpt>
<trkpt lat="-27.274439" lon="151.290064">
  <ele>343.1</ele>
  <time>2026-09-01T19:49:51Z</time>
  <course>270.0</course>
  <speed>0.0</speed>
  <fix>3d</fix>
</trkpt>
<trkpt lat="-27.274439" lon="151.290064">
  <ele>343.0</ele>
  <time>2026-09-01T19:49:51Z</time>
  <course>10.8</course>
  <speed>0.0</speed>
  <fix>3d</fix>
</trkpt>
<trkpt lat="-27.274439" lon="151.290064">
  <ele>343.1</ele>
  <time>2026-09-01T19:49:51Z</time>
  <course>270.0</course>
  <speed>0.0</speed>
  <fix>3d</fix>
</trkpt>
<trkpt lat="-27.274439" lon="151.290064">
  <ele>343.17</ele>
  <time>2026-09-01T19:49:51Z</time>
  <course>10.8</course>
  <speed>0.0</speed>
  <fix>3d</fix>
</trkpt>
<trkpt lat="-27.274439" lon="151.290064">
  <ele>343.1</ele>
  <time>2026-09-01T19:49:51Z</time>
  <course>270.0</course>
  <speed>0.0</speed>
  <fix>3d</fix>
</trkpt>
<trkpt lat="-27.274439" lon="151.290064">
  <ele>343.0</ele>
  <time>2026-09-01T19:49:51Z</time>
  <course>10.8</course>
  <speed>0.0</speed>
  <fix>3d</fix>
</trkpt>
<trkpt lat="-27.274439" lon="151.290064">
  <ele>343.1</ele>
  <time>2026-09-01T19:49:51Z</time>
  <course>270.0</course>
  <speed>0.0</speed>
  <fix>3d</fix>
</trkpt>
<trkpt lat="-27.274439" lon="151.290064">
  <ele>342.99</ele>
  <time>2026-09-01T19:49:51Z</time>
  <course>10.8</course>
  <speed>0.0</speed>
  <fix>3d</fix>
</trkpt>
<trkpt lat="-27.274439" lon="151.290064">
  <ele>343.1</ele>
  <time>2026-09-01T19:49:51Z</time>
  <course>270.0</course>
  <speed>0.0</speed>
  <fix>3d</fix>
</trkpt>
<trkpt lat="-27.274439" lon="151.290064">
  <ele>343.17</ele>
  <time>2026-09-01T19:49:51Z</time>
  <course>10.8</course>
  <speed>0.0</speed>
  <fix>3d</fix>
</trkpt>
<trkpt lat="-27.274439" lon="151.290064">
  <ele>343.1</ele>
  <time>2026-09-01T19:49:51Z</time>
  <course>270.0</course>
  <speed>0.0</speed>
  <fix>3d</fix>
</trkpt>
<trkpt lat="-27.274439" lon="151.290064">
  <ele>343.16</ele>
  <time>2026-09-01T19:49:51Z</time>
  <course>10.8</course>
  <speed>0.0</speed>
  <fix>3d</fix>
</trkpt>
<trkpt lat="-27.274439" lon="151.290064">
  <ele>343.1</ele>
  <time>2026-09-01T19:49:51Z</time>
  <course>270.0</course>
  <speed>0.0</speed>
  <fix>3d</fix>
</trkpt>
<trkpt lat="-27.274439" lon="151.290064">
  <ele>342.87</ele>
  <time>2026-09-01T19:49:51Z</time>
  <course>10.8</course>
  <speed>0.0</speed>
  <fix>3d</fix>
</trkpt>
<trkpt lat="-27.274439" lon="151.290064">
  <ele>343.1</ele>
  <time>2026-09-01T19:49:51Z</time>
  <course>270.0</course>
  <speed>0.0</speed>
  <fix>3d</fix>
</trkpt>
<trkpt lat="-27.274439" lon="151.290064">
  <ele>343.19</ele>
  <time>2026-09-01T19:49:51Z</time>
  <course>10.8</course>
  <speed>0.0</speed>
  <fix>3d</fix>
</trkpt>
<trkpt lat="-27.274439" lon="151.290064">
  <ele>343.1</ele>
  <time>2026-09-01T19:49:51Z</time>
  <course>270.0</course>
  <speed>0.0</speed>
  <fix>3d</fix>
</trkpt>
<trkpt lat="-27.274439" lon="151.290064">
  <ele>343.16</ele>
  <time>2026-09-01T19:49:51Z</time>
  <course>10.8</course>
  <speed>0.0</speed>
  <fix>3d</fix>
</trkpt>
<trkpt lat="-27.274439" lon="151.290064">
  <ele>343.1</ele>
  <time>2026-09-01T19:49:51Z</time>
  <course>270.0</course>
  <speed>0.0</speed>
  <fix>3d</fix>
</trkpt>
<trkpt lat="-27.274439" lon="151.290064">
  <ele>343.21</ele>
  <time>2026-09-01T19:49:51Z</time>
  <course>10.8</course>
  <speed>0.0</speed>
  <fix>3d</fix>
</trkpt>
<trkpt lat="-27.274439" lon="151.290064">
  <ele>343.1</ele>
  <time>2026-09-01T19:49:51Z</time>
  <course>270.0</course>
  <speed>0.0</speed>
  <fix>3d</fix>
</trkpt>
<trkpt lat="-27.274439" lon="151.290064">
  <ele>343.22</ele>
  <time>2026-09-01T19:49:51Z</time>
  <course>10.8</course>
  <speed>0.0</speed>
  <fix>3d</fix>
</trkpt>
<trkpt lat="-27.274439" lon="151.290064">
  <ele>343.1</ele>
  <time>2026-09-01T19:49:51Z</time>
  <course>270.0</course>
  <speed>0.0</speed>
  <fix>3d</fix>
</trkpt>
<trkpt lat="-27.274439" lon="151.290064">
  <ele>343.24</ele>
  <time>2026-09-01T19:49:51Z</time>
  <course>10.8</course>
  <speed>0.0</speed>
  <fix>3d</fix>
</trkpt>
<trkpt lat="-27.274439" lon="151.290064">
  <ele>343.1</ele>
  <time>2026-09-01T19:49:51Z</time>
  <course>270.0</course>
  <speed>0.0</speed>
  <fix>3d</fix>
</trkpt>
<trkpt lat="-27.274439" lon="151.290064">
  <ele>343.0</ele>
  <time>2026-09-01T19:49:51Z</time>
  <course>10.8</course>
  <speed>0.0</speed>
  <fix>3d</fix>
</trkpt>
<trkpt lat="-27.274439" lon="151.290064">
  <ele>343.1</ele>
  <time>2026-09-01T19:49:51Z</time>
  <course>270.0</course>
  <speed>0.0</speed>
  <fix>3d</fix>
</trkpt>
<trkpt lat="-27.274439" lon="151.290064">
  <ele>343.1</ele>
  <time>2026-09-01T19:49:51Z</time>
  <course>10.8</course>
  <speed>0.0</speed>
  <fix>3d</fix>
</trkpt>
<trkpt lat="-27.274439" lon="151.290064">
  <ele>343.1</ele>
  <time>2026-09-01T19:49:51Z</time>
  <course>270.0</course>
  <speed>0.0</speed>
  <fix>3d</fix>
</trkpt>
<trkpt lat="-27.274439" lon="151.290064">
  <ele>343.05</ele>
  <time>2026-09-01T19:49:51Z</time>
  <course>10.8</course>
  <speed>0.0</speed>
  <fix>3d</fix>
</trkpt>
<trkpt lat="-27.274439" lon="151.290064">
  <ele>343.1</ele>
  <time>2026-09-01T19:49:51Z</time>
  <course>270.0</course>
  <speed>0.0</speed>
  <fix>3d</fix>
</trkpt>
<trkpt lat="-27.274439" lon="151.290064">
  <ele>342.87</ele>
  <time>2026-09-01T19:49:51Z</time>
  <course>10.8</course>
  <speed>0.0</speed>
  <fix>3d</fix>
</trkpt>
<trkpt lat="-27.274439" lon="151.290064">
  <ele>343.1</ele>
  <time>2026-09-01T19:49:51Z</time>
  <course>270.0</course>
  <speed>0.0</speed>
  <fix>3d</fix>
</trkpt>
<trkpt lat="-27.274439" lon="151.290064">
  <ele>342.92</ele>
  <time>2026-09-01T19:49:51Z</time>
  <course>10.8</course>
  <speed>0.0</speed>
  <fix>3d</fix>
</trkpt>
<trkpt lat="-27.274439" lon="151.290064">
  <ele>343.1</ele>
  <time>2026-09-01T19:49:51Z</time>
  <course>270.0</course>
  <speed>0.0</speed>
  <fix>3d</fix>
</trkpt>
<trkpt lat="-27.274439" lon="151.290064">
  <ele>342.96</ele>
  <time>2026-09-01T19:49:51Z</time>
  <course>10.8</course>
  <speed>0.0</speed>
  <fix>3d</fix>
</trkpt>
<trkpt lat="-27.274439" lon="151.290064">
  <ele>343.1</ele>
  <time>2026-09-01T19:49:51Z</time>
  <course>270.0</course>
  <speed>0.0</speed>
  <fix>3d</fix>
</trkpt>
<trkpt lat="-27.274439" lon="151.290064">
  <ele>343.15</ele>
  <time>2026-09-01T19:49:51Z</time>
  <course>10.8</course>
  <speed>0.0</speed>
  <fix>3d</fix>
</trkpt>
<trkpt lat="-27.274439" lon="151.290064">
  <ele>343.1</ele>
  <time>2026-09-01T19:49:51Z</time>
  <course>270.0</course>
  <speed>0.0</speed>
  <fix>3d</fix>
</trkpt>
<trkpt lat="-27.274439" lon="151.290064">
  <ele>343.16</ele>
  <time>2026-09-01T19:49:51Z</time>
  <course>10.8</course>
  <speed>0.0</speed>
  <fix>3d</fix>
</trkpt>
<trkpt lat="-27.274439" lon="151.290064">
  <ele>343.1</ele>
  <time>2026-09-01T19:49:51Z</time>
  <course>270.0</course>
  <speed>0.0</speed>
  <fix>3d</fix>
</trkpt>
<trkpt lat="-27.274439" lon="151.290064">
  <ele>343.2</ele>
  <time>2026-09-01T19:49:51Z</time>
  <course>10.81</course>
  <speed>0.0</speed>
  <fix>3d</fix>
</trkpt>
<trkpt lat="-27.274439" lon="151.290064">
  <ele>343.1</ele>
  <time>2026-09-01T19:49:51Z</time>
  <course>270.0</course>
  <speed>0.0</speed>
  <fix>3d</fix>
</trkpt>
<trkpt lat="-27.274439" lon="151.290064">
  <ele>343.13</ele>
  <time>2026-09-01T19:49:51Z</time>
  <course>10.82</course>
  <speed>0.0</speed>
  <fix>3d</fix>
</trkpt>
<trkpt lat="-27.274439" lon="151.290064">
  <ele>343.1</ele>
  <time>2026-09-01T19:49:51Z</time>
  <course>270.0</course>
  <speed>0.0</speed>
  <fix>3d</fix>
</trkpt>
<trkpt lat="-27.274439" lon="151.290064">
  <ele>343.09</ele>
  <time>2026-09-01T19:49:51Z</time>
  <course>10.71</course>
  <speed>0.0</speed>
  <fix>3d</fix>
</trkpt>
<trkpt lat="-27.274439" lon="151.290064">
  <ele>343.1</ele>
  <time>2026-09-01T19:49:51Z</time>
  <course>270.0</course>
  <speed>0.0</speed>
  <fix>3d</fix>
</trkpt>
<trkpt lat="-27.274439" lon="151.290064">
  <ele>343.09</ele>
  <time>2026-09-01T19:49:51Z</time>
  <course>10.71</course>
  <speed>0.0</speed>
  <fix>3d</fix>
</trkpt>
<trkpt lat="-27.274439" lon="151.290064">
  <ele>343.1</ele>
  <time>2026-09-01T19:49:51Z</time>
  <course>270.0</course>
  <speed>0.0</speed>
  <fix>3d</fix>
</trkpt>
<trkpt lat="-27.274439" lon="151.290064">
  <ele>343.1</ele>
  <time>2026-09-01T19:49:51Z</time>
  <course>10.71</course>
  <speed>0.0</speed>
  <fix>3d</fix>
</trkpt>
<trkpt lat="-27.274439" lon="151.290064">
  <ele>343.1</ele>
  <time>2026-09-01T19:49:51Z</time>
  <course>270.0</course>
  <speed>0.0</speed>
  <fix>3d</fix>
</trkpt>
<trkpt lat="-27.274439" lon="151.290064">
  <ele>343.1</ele>
  <time>2026-09-01T19:49:51Z</time>
  <course>10.71</course>
  <speed>0.0</speed>
  <fix>3d</fix>
</trkpt>
<trkpt lat="-27.274439" lon="151.290064">
  <ele>343.1</ele>
  <time>2026-09-01T19:49:51Z</time>
  <course>270.0</course>
  <speed>0.0</speed>
  <fix>3d</fix>
</trkpt>
<trkpt lat="-27.274439" lon="151.290064">
  <ele>343.1</ele>
  <time>2026-09-01T19:49:51Z</time>
  <course>10.71</course>
  <speed>0.0</speed>
  <fix>3d</fix>
</trkpt>
<trkpt lat="-27.274439" lon="151.290064">
  <ele>343.1</ele>
  <time>2026-09-01T19:49:51Z</time>
  <course>270.0</course>
  <speed>0.0</speed>
  <fix>3d</fix>
</trkpt>
<trkpt lat="-27.274439" lon="151.290064">
  <ele>343.1</ele>
  <time>2026-09-01T19:49:51Z</time>
  <course>10.71</course>
  <speed>0.0</speed>
  <fix>3d</fix>
</trkpt>
<trkpt lat="-27.274439" lon="151.290064">
  <ele>343.1</ele>
  <time>2026-09-01T19:49:51Z</time>
  <course>270.0</course>
  <speed>0.0</speed>
  <fix>3d</fix>
</trkpt>
<trkpt lat="-27.274439" lon="151.290064">
  <ele>343.1</ele>
  <time>2026-09-01T19:49:51Z</time>
  <course>10.71</course>
  <speed>0.0</speed>
  <fix>3d</fix>
</trkpt>
<trkpt lat="-27.274439" lon="151.290064">
  <ele>343.1</ele>
  <time>2026-09-01T19:49:51Z</time>
  <course>270.0</course>
  <speed>0.0</speed>
  <fix>3d</fix>
</trkpt>
<trkpt lat="-27.274439" lon="151.290064">
  <ele>343.11</ele>
  <time>2026-09-01T19:49:51Z</time>
  <course>10.71</course>
  <speed>0.0</speed>
  <fix>3d</fix>
</trkpt>
<trkpt lat="-27.274439" lon="151.290064">
  <ele>343.1</ele>
  <time>2026-09-01T19:49:51Z</time>
  <course>270.0</course>
  <speed>0.0</speed>
  <fix>3d</fix>
</trkpt>
<trkpt lat="-27.274439" lon="151.290064">
  <ele>343.11</ele>
  <time>2026-09-01T19:49:51Z</time>
  <course>10.71</course>
  <speed>0.0</speed>
  <fix>3d</fix>
</trkpt>
<trkpt lat="-27.274439" lon="151.290064">
  <ele>343.1</ele>
  <time>2026-09-01T19:49:51Z</time>
  <course>270.0</course>
  <speed>0.0</speed>
  <fix>3d</fix>
</trkpt>
<trkpt lat="-27.274439" lon="151.290064">
  <ele>343.11</ele>
  <time>2026-09-01T19:49:51Z</time>
  <course>10.71</course>
  <speed>0.0</speed>
  <fix>3d</fix>
</trkpt>
<trkpt lat="-27.274439" lon="151.290064">
  <ele>343.1</ele>
  <time>2026-09-01T19:49:51Z</time>
  <course>270.0</course>
  <speed>0.0</speed>
  <fix>3d</fix>
</trkpt>
<trkpt lat="-27.274439" lon="151.290064">
  <ele>343.1</ele>
  <time>2026-09-01T19:49:51Z</time>
  <course>10.71</course>
  <speed>0.0</speed>
  <fix>3d</fix>
</trkpt>
<trkpt lat="-27.274439" lon="151.290064">
  <ele>343.1</ele>
  <time>2026-09-01T19:49:51Z</time>
  <course>270.0</course>
  <speed>0.0</speed>
  <fix>3d</fix>
</trkpt>
<trkpt lat="-27.274439" lon="151.290064">
  <ele>343.1</ele>
  <time>2026-09-01T19:49:51Z</time>
  <course>10.71</course>
  <speed>0.0</speed>
  <fix>3d</fix>
</trkpt>
<trkpt lat="-27.274439" lon="151.290064">
  <ele>343.1</ele>
  <time>2026-09-01T19:49:51Z</time>
  <course>270.0</course>
  <speed>0.0</speed>
  <fix>3d</fix>
</trkpt>
<trkpt lat="-27.274439" lon="151.290064">
  <ele>343.1</ele>
  <time>2026-09-01T19:49:51Z</time>
  <course>10.71</course>
  <speed>0.0</speed>
  <fix>3d</fix>
</trkpt>
<trkpt lat="-27.274439" lon="151.290064">
  <ele>343.1</ele>
  <time>2026-09-01T19:49:51Z</time>
  <course>270.0</course>
  <speed>0.0</speed>
  <fix>3d</fix>
</trkpt>
<trkpt lat="-27.274439" lon="151.290064">
  <ele>343.1</ele>
  <time>2026-09-01T19:49:51Z</time>
  <course>10.71</course>
  <speed>0.0</speed>
  <fix>3d</fix>
</trkpt>
<trkpt lat="-27.274439" lon="151.290064">
  <ele>343.1</ele>
  <time>2026-09-01T19:49:51Z</time>
  <course>270.0</course>
  <speed>0.0</speed>
  <fix>3d</fix>
</trkpt>
<trkpt lat="-27.274439" lon="151.290064">
  <ele>343.1</ele>
  <time>2026-09-01T19:49:51Z</time>
  <course>10.71</course>
  <speed>0.0</speed>
  <fix>3d</fix>
</trkpt>
<trkpt lat="-27.274439" lon="151.290064">
  <ele>343.1</ele>
  <time>2026-09-01T19:49:51Z</time>
  <course>270.0</course>
  <speed>0.0</speed>
  <fix>3d</fix>
</trkpt>
<trkpt lat="-27.274439" lon="151.290064">
  <ele>343.09</ele>
  <time>2026-09-01T19:49:51Z</time>
  <course>10.71</course>
  <speed>0.0</speed>
  <fix>3d</fix>
</trkpt>
<trkpt lat="-27.274439" lon="151.290064">
  <ele>343.1</ele>
  <time>2026-09-01T19:49:51Z</time>
  <course>270.0</course>
  <speed>0.0</speed>
  <fix>3d</fix>
</trkpt>
<trkpt lat="-26.9720619" lon="149.6127921">
  <ele>339.29</ele>
  <time>2026-09-01T19:49:56Z</time>
  <course>310.27</course>
  <speed>0.0</speed>
  <fix>3d</fix>
</trkpt>
<trkpt lat="-26.9720619" lon="149.6127921">
  <ele>339.29</ele>
  <time>2026-09-01T19:49:56Z</time>
  <course>310.27</course>
  <speed>0.0</speed>
  <fix>3d</fix>
</trkpt>
<trkpt lat="-27.274439" lon="151.290064">
  <ele>-0.01</ele>
  <time>2026-09-01T19:49:56Z</time>
  <course>0.18</course>
  <speed>0.0</speed>
  <fix>3d</fix>
</trkpt>
<trkpt lat="-27.274439" lon="151.290064">
  <ele>343.1</ele>
  <time>2026-09-01T19:49:56Z</time>
  <course>294.58</course>
  <speed>0.0</speed>
  <fix>3d</fix>
</trkpt>
<trkpt lat="-27.274439" lon="151.290064">
  <ele>0.02</ele>
  <time>2026-09-01T19:49:56Z</time>
  <course>1.17</course>
  <speed>0.0</speed>
  <fix>3d</fix>
</trkpt>
<trkpt lat="-27.274439" lon="151.290064">
  <ele>343.1</ele>
  <time>2026-09-01T19:49:56Z</time>
  <course>294.58</course>
  <speed>0.0</speed>
  <fix>3d</fix>
</trkpt>
<trkpt lat="-27.274439" lon="151.290064">
  <ele>-0.08</ele>
  <time>2026-09-01T19:49:56Z</time>
  <course>2.07</course>
  <speed>0.0</speed>
  <fix>3d</fix>
</trkpt>
<trkpt lat="-27.274439" lon="151.290064">
  <ele>343.1</ele>
  <time>2026-09-01T19:49:56Z</time>
  <course>273.33</course>
  <speed>0.0</speed>
  <fix>3d</fix>
</trkpt>
<trkpt lat="-27.274439" lon="151.290064">
  <ele>0.22</ele>
  <time>2026-09-01T19:49:56Z</time>
  <course>2.89</course>
  <speed>0.0</speed>
  <fix>3d</fix>
</trkpt>
<trkpt lat="-27.274439" lon="151.290064">
  <ele>343.1</ele>
  <time>2026-09-01T19:49:56Z</time>
  <course>273.33</course>
  <speed>0.0</speed>
  <fix>3d</fix>
</trkpt>
<trkpt lat="-27.274439" lon="151.290064">
  <ele>0.09</ele>
  <time>2026-09-01T19:49:56Z</time>
  <course>3.63</course>
  <speed>0.0</speed>
  <fix>3d</fix>
</trkpt>
<trkpt lat="-27.274439" lon="151.290064">
  <ele>343.1</ele>
  <time>2026-09-01T19:49:56Z</time>
  <course>270.44</course>
  <speed>0.0</speed>
  <fix>3d</fix>
</trkpt>
<trkpt lat="-27.274439" lon="151.290064">
  <ele>0.08</ele>
  <time>2026-09-01T19:49:56Z</time>
  <course>4.31</course>
  <speed>0.0</speed>
  <fix>3d</fix>
</trkpt>
<trkpt lat="-27.274439" lon="151.290064">
  <ele>343.1</ele>
  <time>2026-09-01T19:49:56Z</time>
  <course>270.44</course>
  <speed>0.0</speed>
  <fix>3d</fix>
</trkpt>
<trkpt lat="-27.274439" lon="151.290064">
  <ele>0.09</ele>
  <time>2026-09-01T19:49:56Z</time>
  <course>4.93</course>
  <speed>0.0</speed>
  <fix>3d</fix>
</trkpt>
<trkpt lat="-27.274439" lon="151.290064">
  <ele>343.1</ele>
  <time>2026-09-01T19:49:56Z</time>
  <course>270.05</course>
  <speed>0.0</speed>
  <fix>3d</fix>
</trkpt>
<trkpt lat="-27.274439" lon="151.290064">
  <ele>-0.05</ele>
  <time>2026-09-01T19:49:56Z</time>
  <course>5.48</course>
  <speed>0.0</speed>
  <fix>3d</fix>
</trkpt>
<trkpt lat="-27.274439" lon="151.290064">
  <ele>343.1</ele>
  <time>2026-09-01T19:49:56Z</time>
  <course>270.05</course>
  <speed>0.0</speed>
  <fix>3d</fix>
</trkpt>
<trkpt lat="-27.274439" lon="151.290064">
  <ele>343.06</ele>
  <time>2026-09-01T19:49:56Z</time>
  <course>5.96</course>
  <speed>0.0</speed>
  <fix>3d</fix>
</trkpt>
<trkpt lat="-27.274439" lon="151.290064">
  <ele>343.1</ele>
  <time>2026-09-01T19:49:56Z</time>
  <course>270.0</course>
  <speed>0.0</speed>
  <fix>3d</fix>
</trkpt>
<trkpt lat="-27.274439" lon="151.290064">
  <ele>343.18</ele>
  <time>2026-09-01T19:49:56Z</time>
  <course>6.42</course>
  <speed>0.0</speed>
  <fix>3d</fix>
</trkpt>
<trkpt lat="-27.274439" lon="151.290064">
  <ele>343.1</ele>
  <time>2026-09-01T19:49:56Z</time>
  <course>270.0</course>
  <speed>0.0</speed>
  <fix>3d</fix>
</trkpt>
<trkpt lat="-27.274439" lon="151.290064">
  <ele>342.91</ele>
  <time>2026-09-01T19:49:56Z</time>
  <course>6.84</course>
  <speed>0.0</speed>
  <fix>3d</fix>
</trkpt>
<trkpt lat="-27.274439" lon="151.290064">
  <ele>343.1</ele>
  <time>2026-09-01T19:49:56Z</time>
  <course>270.0</course>
  <speed>0.0</speed>
  <fix>3d</fix>
</trkpt>
<trkpt lat="-27.274439" lon="151.290064">
  <ele>343.06</ele>
  <time>2026-09-01T19:49:56Z</time>
  <course>7.21</course>
  <speed>0.0</speed>
  <fix>3d</fix>
</trkpt>
<trkpt lat="-27.274439" lon="151.290064">
  <ele>343.1</ele>
  <time>2026-09-01T19:49:56Z</time>
  <course>270.0</course>
  <speed>0.0</speed>
  <fix>3d</fix>
</trkpt>
<trkpt lat="-27.274439" lon="151.290064">
  <ele>343.13</ele>
  <time>2026-09-01T19:49:56Z</time>
  <course>7.55</course>
  <speed>0.0</speed>
  <fix>3d</fix>
</trkpt>
<trkpt lat="-27.274439" lon="151.290064">
  <ele>343.1</ele>
  <time>2026-09-01T19:49:56Z</time>
  <course>270.0</course>
  <speed>0.0</speed>
  <fix>3d</fix>
</trkpt>
<trkpt lat="-27.274439" lon="151.290064">
  <ele>343.04</ele>
  <time>2026-09-01T19:49:56Z</time>
  <course>7.86</course>
  <speed>0.0</speed>
  <fix>3d</fix>
</trkpt>
<trkpt lat="-27.274439" lon="151.290064">
  <ele>343.1</ele>
  <time>2026-09-01T19:49:56Z</time>
  <course>270.0</course>
  <speed>0.0</speed>
  <fix>3d</fix>
</trkpt>
<trkpt lat="-27.274439" lon="151.290064">
  <ele>342.88</ele>
  <time>2026-09-01T19:49:56Z</time>
  <course>8.13</course>
  <speed>0.0</speed>
  <fix>3d</fix>
</trkpt>
<trkpt lat="-27.274439" lon="151.290064">
  <ele>343.1</ele>
  <time>2026-09-01T19:49:56Z</time>
  <course>270.0</course>
  <speed>0.0</speed>
  <fix>3d</fix>
</trkpt>
<trkpt lat="-27.274439" lon="151.290064">
  <ele>343.02</ele>
  <time>2026-09-01T19:49:56Z</time>
  <course>8.38</course>
  <speed>0.0</speed>
  <fix>3d</fix>
</trkpt>
<trkpt lat="-27.274439" lon="151.290064">
  <ele>343.1</ele>
  <time>2026-09-01T19:49:56Z</time>
  <course>270.0</course>
  <speed>0.0</speed>
  <fix>3d</fix>
</trkpt>
<trkpt lat="-27.274439" lon="151.290064">
  <ele>343.23</ele>
  <time>2026-09-01T19:49:56Z</time>
  <course>8.62</course>
  <speed>0.0</speed>
  <fix>3d</fix>
</trkpt>
<trkpt lat="-27.274439" lon="151.290064">
  <ele>343.1</ele>
  <time>2026-09-01T19:49:56Z</time>
  <course>270.0</course>
  <speed>0.0</speed>
  <fix>3d</fix>
</trkpt>
<trkpt lat="-27.274439" lon="151.290064">
  <ele>343.17</ele>
  <time>2026-09-01T19:49:56Z</time>
  <course>8.82</course>
  <speed>0.0</speed>
  <fix>3d</fix>
</trkpt>
<trkpt lat="-27.274439" lon="151.290064">
  <ele>343.1</ele>
  <time>2026-09-01T19:49:56Z</time>
  <course>270.0</course>
  <speed>0.0</speed>
  <fix>3d</fix>
</trkpt>
<trkpt lat="-27.274439" lon="151.290064">
  <ele>343.04</ele>
  <time>2026-09-01T19:49:56Z</time>
  <course>9.0</course>
  <speed>0.0</speed>
  <fix>3d</fix>
</trkpt>
<trkpt lat="-27.274439" lon="151.290064">
  <ele>343.1</ele>
  <time>2026-09-01T19:49:56Z</time>
  <course>270.0</course>
  <speed>0.0</speed>
  <fix>3d</fix>
</trkpt>
<trkpt lat="-27.274439" lon="151.290064">
  <ele>342.89</ele>
  <time>2026-09-01T19:49:56Z</time>
  <course>9.17</course>
  <speed>0.0</speed>
  <fix>3d</fix>
</trkpt>
<trkpt lat="-27.274439" lon="151.290064">
  <ele>343.1</ele>
  <time>2026-09-01T19:49:56Z</time>
  <course>270.0</course>
  <speed>0.0</speed>
  <fix>3d</fix>
</trkpt>
<trkpt lat="-27.274439" lon="151.290064">
  <ele>343.08</ele>
  <time>2026-09-01T19:49:56Z</time>
  <course>9.32</course>
  <speed>0.0</speed>
  <fix>3d</fix>
</trkpt>
<trkpt lat="-27.274439" lon="151.290064">
  <ele>343.1</ele>
  <time>2026-09-01T19:49:56Z</time>
  <course>270.0</course>
  <speed>0.0</speed>
  <fix>3d</fix>
</trkpt>
<trkpt lat="-27.274439" lon="151.290064">
  <ele>343.19</ele>
  <time>2026-09-01T19:49:56Z</time>
  <course>9.46</course>
  <speed>0.0</speed>
  <fix>3d</fix>
</trkpt>
<trkpt lat="-27.274439" lon="151.290064">
  <ele>343.1</ele>
  <time>2026-09-01T19:49:56Z</time>
  <course>270.0</course>
  <speed>0.0</speed>
  <fix>3d</fix>
</trkpt>
<trkpt lat="-27.274439" lon="151.290064">
  <ele>342.88</ele>
  <time>2026-09-01T19:49:56Z</time>
  <course>9.59</course>
  <speed>0.0</speed>
  <fix>3d</fix>
</trkpt>
<trkpt lat="-27.274439" lon="151.290064">
  <ele>343.1</ele>
  <time>2026-09-01T19:49:56Z</time>
  <course>270.0</course>
  <speed>0.0</speed>
  <fix>3d</fix>
</trkpt>
<trkpt lat="-27.274439" lon="151.290064">
  <ele>343.17</ele>
  <time>2026-09-01T19:49:56Z</time>
  <course>9.7</course>
  <speed>0.0</speed>
  <fix>3d</fix>
</trkpt>
<trkpt lat="-27.274439" lon="151.290064">
  <ele>343.1</ele>
  <time>2026-09-01T19:49:56Z</time>
  <course>270.0</course>
  <speed>0.0</speed>
  <fix>3d</fix>
</trkpt>
<trkpt lat="-27.274439" lon="151.290064">
  <ele>342.89</ele>
  <time>2026-09-01T19:49:56Z</time>
  <course>9.8</course>
  <speed>0.0</speed>
  <fix>3d</fix>
</trkpt>
<trkpt lat="-27.274439" lon="151.290064">
  <ele>343.1</ele>
  <time>2026-09-01T19:49:56Z</time>
  <course>270.0</course>
  <speed>0.0</speed>
  <fix>3d</fix>
</trkpt>
<trkpt lat="-27.274439" lon="151.290064">
  <ele>342.99</ele>
  <time>2026-09-01T19:49:56Z</time>
  <course>9.89</course>
  <speed>0.0</speed>
  <fix>3d</fix>
</trkpt>
<trkpt lat="-27.274439" lon="151.290064">
  <ele>343.1</ele>
  <time>2026-09-01T19:49:56Z</time>
  <course>270.0</course>
  <speed>0.0</speed>
  <fix>3d</fix>
</trkpt>
<trkpt lat="-27.274439" lon="151.290064">
  <ele>342.87</ele>
  <time>2026-09-01T19:49:56Z</time>
  <course>9.98</course>
  <speed>0.0</speed>
  <fix>3d</fix>
</trkpt>
<trkpt lat="-27.274439" lon="151.290064">
  <ele>343.1</ele>
  <time>2026-09-01T19:49:56Z</time>
  <course>270.0</course>
  <speed>0.0</speed>
  <fix>3d</fix>
</trkpt>
<trkpt lat="-27.274439" lon="151.290064">
  <ele>343.09</ele>
  <time>2026-09-01T19:49:56Z</time>
  <course>10.06</course>
  <speed>0.0</speed>
  <fix>3d</fix>
</trkpt>
<trkpt lat="-27.274439" lon="151.290064">
  <ele>343.1</ele>
  <time>2026-09-01T19:49:56Z</time>
  <course>270.0</course>
  <speed>0.0</speed>
  <fix>3d</fix>
</trkpt>
<trkpt lat="-27.274439" lon="151.290064">
  <ele>343.18</ele>
  <time>2026-09-01T19:49:56Z</time>
  <course>10.13</course>
  <speed>0.0</speed>
  <fix>3d</fix>
</trkpt>
<trkpt lat="-27.274439" lon="151.290064">
  <ele>343.1</ele>
  <time>2026-09-01T19:49:56Z</time>
  <course>270.0</course>
  <speed>0.0</speed>
  <fix>3d</fix>
</trkpt>
<trkpt lat="-27.274439" lon="151.290064">
  <ele>343.05</ele>
  <time>2026-09-01T19:49:56Z</time>
  <course>10.19</course>
  <speed>0.0</speed>
  <fix>3d</fix>
</trkpt>
<trkpt lat="-27.274439" lon="151.290064">
  <ele>343.1</ele>
  <time>2026-09-01T19:49:56Z</time>
  <course>270.0</course>
  <speed>0.0</speed>
  <fix>3d</fix>
</trkpt>
<trkpt lat="-27.274439" lon="151.290064">
  <ele>342.96</ele>
  <time>2026-09-01T19:49:56Z</time>
  <course>10.25</course>
  <speed>0.0</speed>
  <fix>3d</fix>
</trkpt>
<trkpt lat="-27.274439" lon="151.290064">
  <ele>343.1</ele>
  <time>2026-09-01T19:49:56Z</time>
  <course>270.0</course>
  <speed>0.0</speed>
  <fix>3d</fix>
</trkpt>
<trkpt lat="-27.274439" lon="151.290064">
  <ele>343.1</ele>
  <time>2026-09-01T19:49:56Z</time>
  <course>10.3</course>
  <speed>0.0</speed>
  <fix>3d</fix>
</trkpt>
<trkpt lat="-27.274439" lon="151.290064">
  <ele>343.1</ele>
  <time>2026-09-01T19:49:56Z</time>
  <course>270.0</course>
  <speed>0.0</speed>
  <fix>3d</fix>
</trkpt>
<trkpt lat="-27.274439" lon="151.290064">
  <ele>343.22</ele>
  <time>2026-09-01T19:49:56Z</time>
  <course>10.35</course>
  <speed>0.0</speed>
  <fix>3d</fix>
</trkpt>
<trkpt lat="-27.274439" lon="151.290064">
  <ele>343.1</ele>
  <time>2026-09-01T19:49:56Z</time>
  <course>270.0</course>
  <speed>0.0</speed>
  <fix>3d</fix>
</trkpt>
<trkpt lat="-27.274439" lon="151.290064">
  <ele>343.17</ele>
  <time>2026-09-01T19:49:56Z</time>
  <course>10.39</course>
  <speed>0.0</speed>
  <fix>3d</fix>
</trkpt>
<trkpt lat="-27.274439" lon="151.290064">
  <ele>343.1</ele>
  <time>2026-09-01T19:49:56Z</time>
  <course>270.0</course>
  <speed>0.0</speed>
  <fix>3d</fix>
</trkpt>
<trkpt lat="-27.274439" lon="151.290064">
  <ele>343.08</ele>
  <time>2026-09-01T19:49:56Z</time>
  <course>10.43</course>
  <speed>0.0</speed>
  <fix>3d</fix>
</trkpt>
<trkpt lat="-27.274439" lon="151.290064">
  <ele>343.1</ele>
  <time>2026-09-01T19:49:56Z</time>
  <course>270.0</course>
  <speed>0.0</speed>
  <fix>3d</fix>
</trkpt>
<trkpt lat="-27.274439" lon="151.290064">
  <ele>343.04</ele>
  <time>2026-09-01T19:49:56Z</time>
  <course>10.47</course>
  <speed>0.0</speed>
  <fix>3d</fix>
</trkpt>
<trkpt lat="-27.274439" lon="151.290064">
  <ele>343.1</ele>
  <time>2026-09-01T19:49:56Z</time>
  <course>270.0</course>
  <speed>0.0</speed>
  <fix>3d</fix>
</trkpt>
<trkpt lat="-27.274439" lon="151.290064">
  <ele>343.18</ele>
  <time>2026-09-01T19:49:56Z</time>
  <course>10.5</course>
  <speed>0.0</speed>
  <fix>3d</fix>
</trkpt>
<trkpt lat="-27.274439" lon="151.290064">
  <ele>343.1</ele>
  <time>2026-09-01T19:49:56Z</time>
  <course>270.0</course>
  <speed>0.0</speed>
  <fix>3d</fix>
</trkpt>
<trkpt lat="-27.274439" lon="151.290064">
  <ele>343.12</ele>
  <time>2026-09-01T19:49:56Z</time>
  <course>10.53</course>
  <speed>0.0</speed>
  <fix>3d</fix>
</trkpt>
<trkpt lat="-27.274439" lon="151.290064">
  <ele>343.1</ele>
  <time>2026-09-01T19:49:56Z</time>
  <course>270.0</course>
  <speed>0.0</speed>
  <fix>3d</fix>
</trkpt>
<trkpt lat="-27.274439" lon="151.290064">
  <ele>343.04</ele>
  <time>2026-09-01T19:49:56Z</time>
  <course>10.55</course>
  <speed>0.0</speed>
  <fix>3d</fix>
</trkpt>
<trkpt lat="-27.274439" lon="151.290064">
  <ele>343.1</ele>
  <time>2026-09-01T19:49:56Z</time>
  <course>270.0</course>
  <speed>0.0</speed>
  <fix>3d</fix>
</trkpt>
<trkpt lat="-27.274439" lon="151.290064">
  <ele>343.07</ele>
  <time>2026-09-01T19:49:56Z</time>
  <course>10.58</course>
  <speed>0.0</speed>
  <fix>3d</fix>
</trkpt>
<trkpt lat="-27.274439" lon="151.290064">
  <ele>343.1</ele>
  <time>2026-09-01T19:49:56Z</time>
  <course>270.0</course>
  <speed>0.0</speed>
  <fix>3d</fix>
</trkpt>
<trkpt lat="-27.274439" lon="151.290064">
  <ele>343.04</ele>
  <time>2026-09-01T19:49:56Z</time>
  <course>10.6</course>
  <speed>0.0</speed>
  <fix>3d</fix>
</trkpt>
<trkpt lat="-27.274439" lon="151.290064">
  <ele>343.1</ele>
  <time>2026-09-01T19:49:56Z</time>
  <course>270.0</course>
  <speed>0.0</speed>
  <fix>3d</fix>
</trkpt>
<trkpt lat="-27.274439" lon="151.290064">
  <ele>343.01</ele>
  <time>2026-09-01T19:49:56Z</time>
  <course>10.62</course>
  <speed>0.0</speed>
  <fix>3d</fix>
</trkpt>
<trkpt lat="-27.274439" lon="151.290064">
  <ele>343.1</ele>
  <time>2026-09-01T19:49:56Z</time>
  <course>270.0</course>
  <speed>0.0</speed>
  <fix>3d</fix>
</trkpt>
<trkpt lat="-27.274439" lon="151.290064">
  <ele>343.2</ele>
  <time>2026-09-01T19:49:56Z</time>
  <course>10.64</course>
  <speed>0.0</speed>
  <fix>3d</fix>
</trkpt>
<trkpt lat="-27.274439" lon="151.290064">
  <ele>343.1</ele>
  <time>2026-09-01T19:49:56Z</time>
  <course>270.0</course>
  <speed>0.0</speed>
  <fix>3d</fix>
</trkpt>
<trkpt lat="-27.274439" lon="151.290064">
  <ele>343.24</ele>
  <time>2026-09-01T19:49:56Z</time>
  <course>10.65</course>
  <speed>0.0</speed>
  <fix>3d</fix>
</trkpt>
<trkpt lat="-27.274439" lon="151.290064">
  <ele>343.1</ele>
  <time>2026-09-01T19:49:56Z</time>
  <course>270.0</course>
  <speed>0.0</speed>
  <fix>3d</fix>
</trkpt>
<trkpt lat="-27.274439" lon="151.290064">
  <ele>342.88</ele>
  <time>2026-09-01T19:49:56Z</time>
  <course>10.67</course>
  <speed>0.0</speed>
  <fix>3d</fix>
</trkpt>
<trkpt lat="-27.274439" lon="151.290064">
  <ele>343.1</ele>
  <time>2026-09-01T19:49:56Z</time>
  <course>270.0</course>
  <speed>0.0</speed>
  <fix>3d</fix>
</trkpt>
<trkpt lat="-27.274439" lon="151.290064">
  <ele>343.21</ele>
  <time>2026-09-01T19:49:56Z</time>
  <course>10.68</course>
  <speed>0.0</speed>
  <fix>3d</fix>
</trkpt>
<trkpt lat="-27.274439" lon="151.290064">
  <ele>343.1</ele>
  <time>2026-09-01T19:49:56Z</time>
  <course>270.0</course>
  <speed>0.0</speed>
  <fix>3d</fix>
</trkpt>
<trkpt lat="-27.274439" lon="151.290064">
  <ele>343.02</ele>
  <time>2026-09-01T19:49:56Z</time>
  <course>10.69</course>
  <speed>0.0</speed>
  <fix>3d</fix>
</trkpt>
<trkpt lat="-27.274439" lon="151.290064">
  <ele>343.1</ele>
  <time>2026-09-01T19:49:56Z</time>
  <course>270.0</course>
  <speed>0.0</speed>
  <fix>3d</fix>
</trkpt>
<trkpt lat="-27.274439" lon="151.290064">
  <ele>342.93</ele>
  <time>2026-09-01T19:49:56Z</time>
  <course>10.7</course>
  <speed>0.0</speed>
  <fix>3d</fix>
</trkpt>
<trkpt lat="-27.274439" lon="151.290064">
  <ele>343.1</ele>
  <time>2026-09-01T19:49:56Z</time>
  <course>270.0</course>
  <speed>0.0</speed>
  <fix>3d</fix>
</trkpt>
<trkpt lat="-27.274439" lon="151.290064">
  <ele>343.07</ele>
  <time>2026-09-01T19:49:56Z</time>
  <course>10.71</course>
  <speed>0.0</speed>
  <fix>3d</fix>
</trkpt>
<trkpt lat="-27.274439" lon="151.290064">
  <ele>343.1</ele>
  <time>2026-09-01T19:49:56Z</time>
  <course>270.0</course>
  <speed>0.0</speed>
  <fix>3d</fix>
</trkpt>
<trkpt lat="-27.274439" lon="151.290064">
  <ele>342.94</ele>
  <time>2026-09-01T19:49:56Z</time>
  <course>10.72</course>
  <speed>0.0</speed>
  <fix>3d</fix>
</trkpt>
<trkpt lat="-27.274439" lon="151.290064">
  <ele>343.1</ele>
  <time>2026-09-01T19:49:56Z</time>
  <course>270.0</course>
  <speed>0.0</speed>
  <fix>3d</fix>
</trkpt>
<trkpt lat="-27.274439" lon="151.290064">
  <ele>343.11</ele>
  <time>2026-09-01T19:49:56Z</time>
  <course>10.73</course>
  <speed>0.0</speed>
  <fix>3d</fix>
</trkpt>
<trkpt lat="-27.274439" lon="151.290064">
  <ele>343.1</ele>
  <time>2026-09-01T19:49:56Z</time>
  <course>270.0</course>
  <speed>0.0</speed>
  <fix>3d</fix>
</trkpt>
<trkpt lat="-27.274439" lon="151.290064">
  <ele>343.24</ele>
  <time>2026-09-01T19:49:56Z</time>
  <course>10.73</course>
  <speed>0.0</speed>
  <fix>3d</fix>
</trkpt>
<trkpt lat="-27.274439" lon="151.290064">
  <ele>343.1</ele>
  <time>2026-09-01T19:49:56Z</time>
  <course>270.0</course>
  <speed>0.0</speed>
  <fix>3d</fix>
</trkpt>
<trkpt lat="-27.274439" lon="151.290064">
  <ele>343.18</ele>
  <time>2026-09-01T19:49:56Z</time>
  <course>10.74</course>
  <speed>0.0</speed>
  <fix>3d</fix>
</trkpt>
<trkpt lat="-27.274439" lon="151.290064">
  <ele>343.1</ele>
  <time>2026-09-01T19:49:56Z</time>
  <course>270.0</course>
  <speed>0.0</speed>
  <fix>3d</fix>
</trkpt>
<trkpt lat="-27.274439" lon="151.290064">
  <ele>342.89</ele>
  <time>2026-09-01T19:49:56Z</time>
  <course>10.75</course>
  <speed>0.0</speed>
  <fix>3d</fix>
</trkpt>
<trkpt lat="-27.274439" lon="151.290064">
  <ele>343.1</ele>
  <time>2026-09-01T19:49:56Z</time>
  <course>270.0</course>
  <speed>0.0</speed>
  <fix>3d</fix>
</trkpt>
<trkpt lat="-27.274439" lon="151.290064">
  <ele>343.23</ele>
  <time>2026-09-01T19:49:56Z</time>
  <course>10.75</course>
  <speed>0.0</speed>
  <fix>3d</fix>
</trkpt>
<trkpt lat="-27.274439" lon="151.290064">
  <ele>343.1</ele>
  <time>2026-09-01T19:49:56Z</time>
  <course>270.0</course>
  <speed>0.0</speed>
  <fix>3d</fix>
</trkpt>
<trkpt lat="-27.274439" lon="151.290064">
  <ele>343.23</ele>
  <time>2026-09-01T19:49:56Z</time>
  <course>10.76</course>
  <speed>0.0</speed>
  <fix>3d</fix>
</trkpt>
<trkpt lat="-27.274439" lon="151.290064">
  <ele>343.1</ele>
  <time>2026-09-01T19:49:56Z</time>
  <course>270.0</course>
  <speed>0.0</speed>
  <fix>3d</fix>
</trkpt>
<trkpt lat="-27.274439" lon="151.290064">
  <ele>342.99</ele>
  <time>2026-09-01T19:49:56Z</time>
  <course>10.76</course>
  <speed>0.0</speed>
  <fix>3d</fix>
</trkpt>
<trkpt lat="-27.274439" lon="151.290064">
  <ele>343.1</ele>
  <time>2026-09-01T19:49:56Z</time>
  <course>270.0</course>
  <speed>0.0</speed>
  <fix>3d</fix>
</trkpt>
<trkpt lat="-27.274439" lon="151.290064">
  <ele>343.13</ele>
  <time>2026-09-01T19:49:56Z</time>
  <course>10.76</course>
  <speed>0.0</speed>
  <fix>3d</fix>
</trkpt>
<trkpt lat="-27.274439" lon="151.290064">
  <ele>343.1</ele>
  <time>2026-09-01T19:49:56Z</time>
  <course>270.0</course>
  <speed>0.0</speed>
  <fix>3d</fix>
</trkpt>
<trkpt lat="-27.274439" lon="151.290064">
  <ele>343.07</ele>
  <time>2026-09-01T19:49:56Z</time>
  <course>10.77</course>
  <speed>0.0</speed>
  <fix>3d</fix>
</trkpt>
<trkpt lat="-27.274439" lon="151.290064">
  <ele>343.1</ele>
  <time>2026-09-01T19:49:56Z</time>
  <course>270.0</course>
  <speed>0.0</speed>
  <fix>3d</fix>
</trkpt>
<trkpt lat="-27.274439" lon="151.290064">
  <ele>343.19</ele>
  <time>2026-09-01T19:49:56Z</time>
  <course>10.77</course>
  <speed>0.0</speed>
  <fix>3d</fix>
</trkpt>
<trkpt lat="-27.274439" lon="151.290064">
  <ele>343.1</ele>
  <time>2026-09-01T19:49:56Z</time>
  <course>270.0</course>
  <speed>0.0</speed>
  <fix>3d</fix>
</trkpt>
<trkpt lat="-27.274439" lon="151.290064">
  <ele>342.93</ele>
  <time>2026-09-01T19:49:56Z</time>
  <course>10.77</course>
  <speed>0.0</speed>
  <fix>3d</fix>
</trkpt>
<trkpt lat="-27.274439" lon="151.290064">
  <ele>343.1</ele>
  <time>2026-09-01T19:49:56Z</time>
  <course>270.0</course>
  <speed>0.0</speed>
  <fix>3d</fix>
</trkpt>
<trkpt lat="-27.274439" lon="151.290064">
  <ele>343.19</ele>
  <time>2026-09-01T19:49:56Z</time>
  <course>10.78</course>
  <speed>0.0</speed>
  <fix>3d</fix>
</trkpt>
<trkpt lat="-27.274439" lon="151.290064">
  <ele>343.1</ele>
  <time>2026-09-01T19:49:56Z</time>
  <course>270.0</course>
  <speed>0.0</speed>
  <fix>3d</fix>
</trkpt>
<trkpt lat="-27.274439" lon="151.290064">
  <ele>343.1</ele>
  <time>2026-09-01T19:49:56Z</time>
  <course>10.78</course>
  <speed>0.0</speed>
  <fix>3d</fix>
</trkpt>
<trkpt lat="-27.274439" lon="151.290064">
  <ele>343.1</ele>
  <time>2026-09-01T19:49:56Z</time>
  <course>270.0</course>
  <speed>0.0</speed>
  <fix>3d</fix>
</trkpt>
<trkpt lat="-27.274439" lon="151.290064">
  <ele>343.01</ele>
  <time>2026-09-01T19:49:56Z</time>
  <course>10.78</course>
  <speed>0.0</speed>
  <fix>3d</fix>
</trkpt>
<trkpt lat="-27.274439" lon="151.290064">
  <ele>343.1</ele>
  <time>2026-09-01T19:49:56Z</time>
  <course>270.0</course>
  <speed>0.0</speed>
  <fix>3d</fix>
</trkpt>
<trkpt lat="-27.274439" lon="151.290064">
  <ele>343.11</ele>
  <time>2026-09-01T19:49:56Z</time>
  <course>10.78</course>
  <speed>0.0</speed>
  <fix>3d</fix>
</trkpt>
<trkpt lat="-27.274439" lon="151.290064">
  <ele>343.1</ele>
  <time>2026-09-01T19:49:56Z</time>
  <course>270.0</course>
  <speed>0.0</speed>
  <fix>3d</fix>
</trkpt>
<trkpt lat="-27.274439" lon="151.290064">
  <ele>342.96</ele>
  <time>2026-09-01T19:49:56Z</time>
  <course>10.78</course>
  <speed>0.0</speed>
  <fix>3d</fix>
</trkpt>
<trkpt lat="-27.274439" lon="151.290064">
  <ele>343.1</ele>
  <time>2026-09-01T19:49:56Z</time>
  <course>270.0</course>
  <speed>0.0</speed>
  <fix>3d</fix>
</trkpt>
<trkpt lat="-27.274439" lon="151.290064">
  <ele>343.19</ele>
  <time>2026-09-01T19:49:56Z</time>
  <course>10.79</course>
  <speed>0.0</speed>
  <fix>3d</fix>
</trkpt>
<trkpt lat="-27.274439" lon="151.290064">
  <ele>343.1</ele>
  <time>2026-09-01T19:49:56Z</time>
  <course>270.0</course>
  <speed>0.0</speed>
  <fix>3d</fix>
</trkpt>
<trkpt lat="-27.274439" lon="151.290064">
  <ele>343.0</ele>
  <time>2026-09-01T19:49:56Z</time>
  <course>10.79</course>
  <speed>0.0</speed>
  <fix>3d</fix>
</trkpt>
<trkpt lat="-27.274439" lon="151.290064">
  <ele>343.1</ele>
  <time>2026-09-01T19:49:56Z</time>
  <course>270.0</course>
  <speed>0.0</speed>
  <fix>3d</fix>
</trkpt>
<trkpt lat="-27.274439" lon="151.290064">
  <ele>343.2</ele>
  <time>2026-09-01T19:49:56Z</time>
  <course>10.79</course>
  <speed>0.0</speed>
  <fix>3d</fix>
</trkpt>
<trkpt lat="-27.274439" lon="151.290064">
  <ele>343.1</ele>
  <time>2026-09-01T19:49:56Z</time>
  <course>270.0</course>
  <speed>0.0</speed>
  <fix>3d</fix>
</trkpt>
<trkpt lat="-27.274439" lon="151.290064">
  <ele>343.2</ele>
  <time>2026-09-01T19:49:56Z</time>
  <course>10.79</course>
  <speed>0.0</speed>
  <fix>3d</fix>
</trkpt>
<trkpt lat="-27.274439" lon="151.290064">
  <ele>343.1</ele>
  <time>2026-09-01T19:49:56Z</time>
  <course>270.0</course>
  <speed>0.0</speed>
  <fix>3d</fix>
</trkpt>
<trkpt lat="-27.274439" lon="151.290064">
  <ele>343.13</ele>
  <time>2026-09-01T19:49:56Z</time>
  <course>10.79</course>
  <speed>0.0</speed>
  <fix>3d</fix>
</trkpt>
<trkpt lat="-27.274439" lon="151.290064">
  <ele>343.1</ele>
  <time>2026-09-01T19:49:56Z</time>
  <course>270.0</course>
  <speed>0.0</speed>
  <fix>3d</fix>
</trkpt>
<trkpt lat="-27.274439" lon="151.290064">
  <ele>343.1</ele>
  <time>2026-09-01T19:49:56Z</time>
  <course>10.79</course>
  <speed>0.0</speed>
  <fix>3d</fix>
</trkpt>
<trkpt lat="-27.274439" lon="151.290064">
  <ele>343.1</ele>
  <time>2026-09-01T19:49:56Z</time>
  <course>270.0</course>
  <speed>0.0</speed>
  <fix>3d</fix>
</trkpt>
<trkpt lat="-27.274439" lon="151.290064">
  <ele>343.12</ele>
  <time>2026-09-01T19:49:56Z</time>
  <course>10.79</course>
  <speed>0.0</speed>
  <fix>3d</fix>
</trkpt>
<trkpt lat="-27.274439" lon="151.290064">
  <ele>343.1</ele>
  <time>2026-09-01T19:49:56Z</time>
  <course>270.0</course>
  <speed>0.0</speed>
  <fix>3d</fix>
</trkpt>
<trkpt lat="-27.274439" lon="151.290064">
  <ele>342.94</ele>
  <time>2026-09-01T19:49:56Z</time>
  <course>10.79</course>
  <speed>0.0</speed>
  <fix>3d</fix>
</trkpt>
<trkpt lat="-27.274439" lon="151.290064">
  <ele>343.1</ele>
  <time>2026-09-01T19:49:56Z</time>
  <course>270.0</course>
  <speed>0.0</speed>
  <fix>3d</fix>
</trkpt>
<trkpt lat="-27.274439" lon="151.290064">
  <ele>343.25</ele>
  <time>2026-09-01T19:49:56Z</time>
  <course>10.79</course>
  <speed>0.0</speed>
  <fix>3d</fix>
</trkpt>
<trkpt lat="-27.274439" lon="151.290064">
  <ele>343.1</ele>
  <time>2026-09-01T19:49:56Z</time>
  <course>270.0</course>
  <speed>0.0</speed>
  <fix>3d</fix>
</trkpt>
<trkpt lat="-27.274439" lon="151.290064">
  <ele>342.93</ele>
  <time>2026-09-01T19:49:56Z</time>
  <course>10.79</course>
  <speed>0.0</speed>
  <fix>3d</fix>
</trkpt>
<trkpt lat="-27.274439" lon="151.290064">
  <ele>343.1</ele>
  <time>2026-09-01T19:49:56Z</time>
  <course>270.0</course>
  <speed>0.0</speed>
  <fix>3d</fix>
</trkpt>
<trkpt lat="-27.274439" lon="151.290064">
  <ele>343.08</ele>
  <time>2026-09-01T19:49:56Z</time>
  <course>10.8</course>
  <speed>0.0</speed>
  <fix>3d</fix>
</trkpt>
<trkpt lat="-27.274439" lon="151.290064">
  <ele>343.1</ele>
  <time>2026-09-01T19:49:56Z</time>
  <course>270.0</course>
  <speed>0.0</speed>
  <fix>3d</fix>
</trkpt>
<trkpt lat="-27.274439" lon="151.290064">
  <ele>343.23</ele>
  <time>2026-09-01T19:49:56Z</time>
  <course>10.8</course>
  <speed>0.0</speed>
  <fix>3d</fix>
</trkpt>
<trkpt lat="-27.274439" lon="151.290064">
  <ele>343.1</ele>
  <time>2026-09-01T19:49:56Z</time>
  <course>270.0</course>
  <speed>0.0</speed>
  <fix>3d</fix>
</trkpt>
<trkpt lat="-27.274439" lon="151.290064">
  <ele>343.01</ele>
  <time>2026-09-01T19:49:56Z</time>
  <course>10.8</course>
  <speed>0.0</speed>
  <fix>3d</fix>
</trkpt>
<trkpt lat="-27.274439" lon="151.290064">
  <ele>343.1</ele>
  <time>2026-09-01T19:49:56Z</time>
  <course>270.0</course>
  <speed>0.0</speed>
  <fix>3d</fix>
</trkpt>
<trkpt lat="-27.274439" lon="151.290064">
  <ele>343.1</ele>
  <time>2026-09-01T19:49:56Z</time>
  <course>10.8</course>
  <speed>0.0</speed>
  <fix>3d</fix>
</trkpt>
<trkpt lat="-27.274439" lon="151.290064">
  <ele>343.1</ele>
  <time>2026-09-01T19:49:56Z</time>
  <course>270.0</course>
  <speed>0.0</speed>
  <fix>3d</fix>
</trkpt>
<trkpt lat="-27.274439" lon="151.290064">
  <ele>342.99</ele>
  <time>2026-09-01T19:49:56Z</time>
  <course>10.8</course>
  <speed>0.0</speed>
  <fix>3d</fix>
</trkpt>
<trkpt lat="-27.274439" lon="151.290064">
  <ele>343.1</ele>
  <time>2026-09-01T19:49:56Z</time>
  <course>270.0</course>
  <speed>0.0</speed>
  <fix>3d</fix>
</trkpt>
<trkpt lat="-27.274439" lon="151.290064">
  <ele>342.87</ele>
  <time>2026-09-01T19:49:56Z</time>
  <course>10.8</course>
  <speed>0.0</speed>
  <fix>3d</fix>
</trkpt>
<trkpt lat="-27.274439" lon="151.290064">
  <ele>343.1</ele>
  <time>2026-09-01T19:49:56Z</time>
  <course>270.0</course>
  <speed>0.0</speed>
  <fix>3d</fix>
</trkpt>
<trkpt lat="-27.274439" lon="151.290064">
  <ele>343.1</ele>
  <time>2026-09-01T19:49:56Z</time>
  <course>10.8</course>
  <speed>0.0</speed>
  <fix>3d</fix>
</trkpt>
<trkpt lat="-27.274439" lon="151.290064">
  <ele>343.1</ele>
  <time>2026-09-01T19:49:56Z</time>
  <course>270.0</course>
  <speed>0.0</speed>
  <fix>3d</fix>
</trkpt>
<trkpt lat="-27.274439" lon="151.290064">
  <ele>342.99</ele>
  <time>2026-09-01T19:49:56Z</time>
  <course>10.8</course>
  <speed>0.0</speed>
  <fix>3d</fix>
</trkpt>
<trkpt lat="-27.274439" lon="151.290064">
  <ele>343.1</ele>
  <time>2026-09-01T19:49:56Z</time>
  <course>270.0</course>
  <speed>0.0</speed>
  <fix>3d</fix>
</trkpt>
<trkpt lat="-27.274439" lon="151.290064">
  <ele>342.91</ele>
  <time>2026-09-01T19:49:56Z</time>
  <course>10.8</course>
  <speed>0.0</speed>
  <fix>3d</fix>
</trkpt>
<trkpt lat="-27.274439" lon="151.290064">
  <ele>343.1</ele>
  <time>2026-09-01T19:49:56Z</time>
  <course>270.0</course>
  <speed>0.0</speed>
  <fix>3d</fix>
</trkpt>
<trkpt lat="-27.274439" lon="151.290064">
  <ele>342.9</ele>
  <time>2026-09-01T19:49:56Z</time>
  <course>10.8</course>
  <speed>0.0</speed>
  <fix>3d</fix>
</trkpt>
<trkpt lat="-27.274439" lon="151.290064">
  <ele>343.1</ele>
  <time>2026-09-01T19:49:56Z</time>
  <course>270.0</course>
  <speed>0.0</speed>
  <fix>3d</fix>
</trkpt>
<trkpt lat="-27.274439" lon="151.290064">
  <ele>342.87</ele>
  <time>2026-09-01T19:49:56Z</time>
  <course>10.8</course>
  <speed>0.0</speed>
  <fix>3d</fix>
</trkpt>
<trkpt lat="-27.274439" lon="151.290064">
  <ele>343.1</ele>
  <time>2026-09-01T19:49:56Z</time>
  <course>270.0</course>
  <speed>0.0</speed>
  <fix>3d</fix>
</trkpt>
<trkpt lat="-27.274439" lon="151.290064">
  <ele>343.12</ele>
  <time>2026-09-01T19:49:56Z</time>
  <course>10.8</course>
  <speed>0.0</speed>
  <fix>3d</fix>
</trkpt>
<trkpt lat="-27.274439" lon="151.290064">
  <ele>343.1</ele>
  <time>2026-09-01T19:49:56Z</time>
  <course>270.0</course>
  <speed>0.0</speed>
  <fix>3d</fix>
</trkpt>
<trkpt lat="-27.274439" lon="151.290064">
  <ele>342.99</ele>
  <time>2026-09-01T19:49:56Z</time>
  <course>10.8</course>
  <speed>0.0</speed>
  <fix>3d</fix>
</trkpt>
<trkpt lat="-27.274439" lon="151.290064">
  <ele>343.1</ele>
  <time>2026-09-01T19:49:56Z</time>
  <course>270.0</course>
  <speed>0.0</speed>
  <fix>3d</fix>
</trkpt>
<trkpt lat="-27.274439" lon="151.290064">
  <ele>343.13</ele>
  <time>2026-09-01T19:49:56Z</time>
  <course>10.8</course>
  <speed>0.0</speed>
  <fix>3d</fix>
</trkpt>
<trkpt lat="-27.274439" lon="151.290064">
  <ele>343.1</ele>
  <time>2026-09-01T19:49:56Z</time>
  <course>270.0</course>
  <speed>0.0</speed>
  <fix>3d</fix>
</trkpt>
<trkpt lat="-27.274439" lon="151.290064">
  <ele>343.0</ele>
  <time>2026-09-01T19:49:56Z</time>
  <course>10.8</course>
  <speed>0.0</speed>
  <fix>3d</fix>
</trkpt>
<trkpt lat="-27.274439" lon="151.290064">
  <ele>343.1</ele>
  <time>2026-09-01T19:49:56Z</time>
  <course>270.0</course>
  <speed>0.0</speed>
  <fix>3d</fix>
</trkpt>
<trkpt lat="-27.274439" lon="151.290064">
  <ele>343.17</ele>
  <time>2026-09-01T19:49:56Z</time>
  <course>10.8</course>
  <speed>0.0</speed>
  <fix>3d</fix>
</trkpt>
<trkpt lat="-27.274439" lon="151.290064">
  <ele>343.1</ele>
  <time>2026-09-01T19:49:56Z</time>
  <course>270.0</course>
  <speed>0.0</speed>
  <fix>3d</fix>
</trkpt>
<trkpt lat="-27.274439" lon="151.290064">
  <ele>343.0</ele>
  <time>2026-09-01T19:49:56Z</time>
  <course>10.8</course>
  <speed>0.0</speed>
  <fix>3d</fix>
</trkpt>
<trkpt lat="-27.274439" lon="151.290064">
  <ele>343.1</ele>
  <time>2026-09-01T19:49:56Z</time>
  <course>270.0</course>
  <speed>0.0</speed>
  <fix>3d</fix>
</trkpt>
<trkpt lat="-27.274439" lon="151.290064">
  <ele>342.99</ele>
  <time>2026-09-01T19:49:56Z</time>
  <course>10.8</course>
  <speed>0.0</speed>
  <fix>3d</fix>
</trkpt>
<trkpt lat="-27.274439" lon="151.290064">
  <ele>343.1</ele>
  <time>2026-09-01T19:49:56Z</time>
  <course>270.0</course>
  <speed>0.0</speed>
  <fix>3d</fix>
</trkpt>
<trkpt lat="-27.274439" lon="151.290064">
  <ele>343.17</ele>
  <time>2026-09-01T19:49:56Z</time>
  <course>10.8</course>
  <speed>0.0</speed>
  <fix>3d</fix>
</trkpt>
<trkpt lat="-27.274439" lon="151.290064">
  <ele>343.1</ele>
  <time>2026-09-01T19:49:56Z</time>
  <course>270.0</course>
  <speed>0.0</speed>
  <fix>3d</fix>
</trkpt>
<trkpt lat="-27.274439" lon="151.290064">
  <ele>343.16</ele>
  <time>2026-09-01T19:49:56Z</time>
  <course>10.8</course>
  <speed>0.0</speed>
  <fix>3d</fix>
</trkpt>
<trkpt lat="-27.274439" lon="151.290064">
  <ele>343.1</ele>
  <time>2026-09-01T19:49:56Z</time>
  <course>270.0</course>
  <speed>0.0</speed>
  <fix>3d</fix>
</trkpt>
<trkpt lat="-27.274439" lon="151.290064">
  <ele>342.87</ele>
  <time>2026-09-01T19:49:56Z</time>
  <course>10.8</course>
  <speed>0.0</speed>
  <fix>3d</fix>
</trkpt>
<trkpt lat="-27.274439" lon="151.290064">
  <ele>343.1</ele>
  <time>2026-09-01T19:49:56Z</time>
  <course>270.0</course>
  <speed>0.0</speed>
  <fix>3d</fix>
</trkpt>
<trkpt lat="-27.274439" lon="151.290064">
  <ele>343.19</ele>
  <time>2026-09-01T19:49:56Z</time>
  <course>10.8</course>
  <speed>0.0</speed>
  <fix>3d</fix>
</trkpt>
<trkpt lat="-27.274439" lon="151.290064">
  <ele>343.1</ele>
  <time>2026-09-01T19:49:56Z</time>
  <course>270.0</course>
  <speed>0.0</speed>
  <fix>3d</fix>
</trkpt>
<trkpt lat="-27.274439" lon="151.290064">
  <ele>343.16</ele>
  <time>2026-09-01T19:49:56Z</time>
  <course>10.8</course>
  <speed>0.0</speed>
  <fix>3d</fix>
</trkpt>
<trkpt lat="-27.274439" lon="151.290064">
  <ele>343.1</ele>
  <time>2026-09-01T19:49:56Z</time>
  <course>270.0</course>
  <speed>0.0</speed>
  <fix>3d</fix>
</trkpt>
<trkpt lat="-27.274439" lon="151.290064">
  <ele>343.21</ele>
  <time>2026-09-01T19:49:56Z</time>
  <course>10.8</course>
  <speed>0.0</speed>
  <fix>3d</fix>
</trkpt>
<trkpt lat="-27.274439" lon="151.290064">
  <ele>343.1</ele>
  <time>2026-09-01T19:49:56Z</time>
  <course>270.0</course>
  <speed>0.0</speed>
  <fix>3d</fix>
</trkpt>
<trkpt lat="-27.274439" lon="151.290064">
  <ele>343.22</ele>
  <time>2026-09-01T19:49:56Z</time>
  <course>10.8</course>
  <speed>0.0</speed>
  <fix>3d</fix>
</trkpt>
<trkpt lat="-27.274439" lon="151.290064">
  <ele>343.1</ele>
  <time>2026-09-01T19:49:56Z</time>
  <course>270.0</course>
  <speed>0.0</speed>
  <fix>3d</fix>
</trkpt>
<trkpt lat="-27.274439" lon="151.290064">
  <ele>343.24</ele>
  <time>2026-09-01T19:49:56Z</time>
  <course>10.8</course>
  <speed>0.0</speed>
  <fix>3d</fix>
</trkpt>
<trkpt lat="-27.274439" lon="151.290064">
  <ele>343.1</ele>
  <time>2026-09-01T19:49:56Z</time>
  <course>270.0</course>
  <speed>0.0</speed>
  <fix>3d</fix>
</trkpt>
<trkpt lat="-27.274439" lon="151.290064">
  <ele>343.0</ele>
  <time>2026-09-01T19:49:56Z</time>
  <course>10.8</course>
  <speed>0.0</speed>
  <fix>3d</fix>
</trkpt>
<trkpt lat="-27.274439" lon="151.290064">
  <ele>343.1</ele>
  <time>2026-09-01T19:49:56Z</time>
  <course>270.0</course>
  <speed>0.0</speed>
  <fix>3d</fix>
</trkpt>
<trkpt lat="-27.274439" lon="151.290064">
  <ele>343.1</ele>
  <time>2026-09-01T19:49:56Z</time>
  <course>10.8</course>
  <speed>0.0</speed>
  <fix>3d</fix>
</trkpt>
<trkpt lat="-27.274439" lon="151.290064">
  <ele>343.1</ele>
  <time>2026-09-01T19:49:56Z</time>
  <course>270.0</course>
  <speed>0.0</speed>
  <fix>3d</fix>
</trkpt>
<trkpt lat="-27.274439" lon="151.290064">
  <ele>343.05</ele>
  <time>2026-09-01T19:49:56Z</time>
  <course>10.8</course>
  <speed>0.0</speed>
  <fix>3d</fix>
</trkpt>
<trkpt lat="-27.274439" lon="151.290064">
  <ele>343.1</ele>
  <time>2026-09-01T19:49:56Z</time>
  <course>270.0</course>
  <speed>0.0</speed>
  <fix>3d</fix>
</trkpt>
<trkpt lat="-27.274439" lon="151.290064">
  <ele>342.87</ele>
  <time>2026-09-01T19:49:56Z</time>
  <course>10.8</course>
  <speed>0.0</speed>
  <fix>3d</fix>
</trkpt>
<trkpt lat="-27.274439" lon="151.290064">
  <ele>343.1</ele>
  <time>2026-09-01T19:49:56Z</time>
  <course>270.0</course>
  <speed>0.0</speed>
  <fix>3d</fix>
</trkpt>
<trkpt lat="-27.274439" lon="151.290064">
  <ele>342.92</ele>
  <time>2026-09-01T19:49:56Z</time>
  <course>10.8</course>
  <speed>0.0</speed>
  <fix>3d</fix>
</trkpt>
<trkpt lat="-27.274439" lon="151.290064">
  <ele>343.1</ele>
  <time>2026-09-01T19:49:56Z</time>
  <course>270.0</course>
  <speed>0.0</speed>
  <fix>3d</fix>
</trkpt>
<trkpt lat="-27.274439" lon="151.290064">
  <ele>342.96</ele>
  <time>2026-09-01T19:49:56Z</time>
  <course>10.8</course>
  <speed>0.0</speed>
  <fix>3d</fix>
</trkpt>
<trkpt lat="-27.274439" lon="151.290064">
  <ele>343.1</ele>
  <time>2026-09-01T19:49:56Z</time>
  <course>270.0</course>
  <speed>0.0</speed>
  <fix>3d</fix>
</trkpt>
<trkpt lat="-27.274439" lon="151.290064">
  <ele>343.15</ele>
  <time>2026-09-01T19:49:56Z</time>
  <course>10.8</course>
  <speed>0.0</speed>
  <fix>3d</fix>
</trkpt>
<trkpt lat="-27.274439" lon="151.290064">
  <ele>343.1</ele>
  <time>2026-09-01T19:49:56Z</time>
  <course>270.0</course>
  <speed>0.0</speed>
  <fix>3d</fix>
</trkpt>
<trkpt lat="-27.274439" lon="151.290064">
  <ele>343.16</ele>
  <time>2026-09-01T19:49:56Z</time>
  <course>10.8</course>
  <speed>0.0</speed>
  <fix>3d</fix>
</trkpt>
<trkpt lat="-27.274439" lon="151.290064">
  <ele>343.1</ele>
  <time>2026-09-01T19:49:56Z</time>
  <course>270.0</course>
  <speed>0.0</speed>
  <fix>3d</fix>
</trkpt>
<trkpt lat="-27.274439" lon="151.290064">
  <ele>343.2</ele>
  <time>2026-09-01T19:49:56Z</time>
  <course>10.81</course>
  <speed>0.0</speed>
  <fix>3d</fix>
</trkpt>
<trkpt lat="-27.274439" lon="151.290064">
  <ele>343.1</ele>
  <time>2026-09-01T19:49:56Z</time>
  <course>270.0</course>
  <speed>0.0</speed>
  <fix>3d</fix>
</trkpt>
<trkpt lat="-27.274439" lon="151.290064">
  <ele>343.13</ele>
  <time>2026-09-01T19:49:56Z</time>
  <course>10.82</course>
  <speed>0.0</speed>
  <fix>3d</fix>
</trkpt>
<trkpt lat="-27.274439" lon="151.290064">
  <ele>343.1</ele>
  <time>2026-09-01T19:49:56Z</time>
  <course>270.0</course>
  <speed>0.0</speed>
  <fix>3d</fix>
</trkpt>
<trkpt lat="-27.274439" lon="151.290064">
  <ele>343.09</ele>
  <time>2026-09-01T19:49:56Z</time>
  <course>10.71</course>
  <speed>0.0</speed>
  <fix>3d</fix>
</trkpt>
<trkpt lat="-27.274439" lon="151.290064">
  <ele>343.1</ele>
  <time>2026-09-01T19:49:56Z</time>
  <course>270.0</course>
  <speed>0.0</speed>
  <fix>3d</fix>
</trkpt>
<trkpt lat="-27.274439" lon="151.290064">
  <ele>343.09</ele>
  <time>2026-09-01T19:49:56Z</time>
  <course>10.71</course>
  <speed>0.0</speed>
  <fix>3d</fix>
</trkpt>
<trkpt lat="-27.274439" lon="151.290064">
  <ele>343.1</ele>
  <time>2026-09-01T19:49:56Z</time>
  <course>270.0</course>
  <speed>0.0</speed>
  <fix>3d</fix>
</trkpt>
<trkpt lat="-27.274439" lon="151.290064">
  <ele>343.1</ele>
  <time>2026-09-01T19:49:56Z</time>
  <course>10.71</course>
  <speed>0.0</speed>
  <fix>3d</fix>
</trkpt>
<trkpt lat="-27.274439" lon="151.290064">
  <ele>343.1</ele>
  <time>2026-09-01T19:49:56Z</time>
  <course>270.0</course>
  <speed>0.0</speed>
  <fix>3d</fix>
</trkpt>
<trkpt lat="-27.274439" lon="151.290064">
  <ele>343.1</ele>
  <time>2026-09-01T19:49:56Z</time>
  <course>10.71</course>
  <speed>0.0</speed>
  <fix>3d</fix>
</trkpt>
<trkpt lat="-27.274439" lon="151.290064">
  <ele>343.1</ele>
  <time>2026-09-01T19:49:56Z</time>
  <course>270.0</course>
  <speed>0.0</speed>
  <fix>3d</fix>
</trkpt>
<trkpt lat="-27.274439" lon="151.290064">
  <ele>343.1</ele>
  <time>2026-09-01T19:49:56Z</time>
  <course>10.71</course>
  <speed>0.0</speed>
  <fix>3d</fix>
</trkpt>
<trkpt lat="-27.274439" lon="151.290064">
  <ele>343.1</ele>
  <time>2026-09-01T19:49:56Z</time>
  <course>270.0</course>
  <speed>0.0</speed>
  <fix>3d</fix>
</trkpt>
<trkpt lat="-27.274439" lon="151.290064">
  <ele>343.1</ele>
  <time>2026-09-01T19:49:56Z</time>
  <course>10.71</course>
  <speed>0.0</speed>
  <fix>3d</fix>
</trkpt>
<trkpt lat="-27.274439" lon="151.290064">
  <ele>343.1</ele>
  <time>2026-09-01T19:49:56Z</time>
  <course>270.0</course>
  <speed>0.0</speed>
  <fix>3d</fix>
</trkpt>
<trkpt lat="-26.9720619" lon="149.6127921">
  <ele>339.29</ele>
  <time>2026-09-01T19:49:57Z</time>
  <course>310.27</course>
  <speed>0.0</speed>
  <fix>3d</fix>
</trkpt>
<trkpt lat="-26.9720619" lon="149.6127921">
  <ele>339.29</ele>
  <time>2026-09-01T19:49:57Z</time>
  <course>310.27</course>
  <speed>0.0</speed>
  <fix>3d</fix>
</trkpt>
<trkpt lat="-27.274439" lon="151.290064">
  <ele>-0.01</ele>
  <time>2026-09-01T19:49:57Z</time>
  <course>0.18</course>
  <speed>0.0</speed>
  <fix>3d</fix>
</trkpt>
<trkpt lat="-27.274439" lon="151.290064">
  <ele>343.1</ele>
  <time>2026-09-01T19:49:57Z</time>
  <course>294.58</course>
  <speed>0.0</speed>
  <fix>3d</fix>
</trkpt>
<trkpt lat="-26.9720619" lon="149.6127921">
  <ele>339.29</ele>
  <time>2026-09-01T19:49:59Z</time>
  <course>310.27</course>
  <speed>0.0</speed>
  <fix>3d</fix>
</trkpt>
<trkpt lat="-26.9720619" lon="149.6127921">
  <ele>339.29</ele>
  <time>2026-09-01T19:49:59Z</time>
  <course>310.27</course>
  <speed>0.0</speed>
  <fix>3d</fix>
</trkpt>
<trkpt lat="-27.274439" lon="151.290064">
  <ele>343.1</ele>
  <time>2026-09-01T19:49:59Z</time>
  <course>294.58</course>
  <speed>0.0</speed>
  <fix>3d</fix>
</trkpt>
<trkpt lat="-27.274439" lon="151.290064">
  <ele>343.1</ele>
  <time>2026-09-01T19:49:59Z</time>
  <course>294.58</course>
  <speed>0.0</speed>
  <fix>3d</fix>
</trkpt>
<trkpt lat="-27.274439" lon="151.290064">
  <ele>343.1</ele>
  <time>2026-09-01T19:49:59Z</time>
  <course>273.33</course>
  <speed>0.0</speed>
  <fix>3d</fix>
</trkpt>
<trkpt lat="-27.274439" lon="151.290064">
  <ele>343.1</ele>
  <time>2026-09-01T19:49:59Z</time>
  <course>273.33</course>
  <speed>0.0</speed>
  <fix>3d</fix>
</trkpt>
<trkpt lat="-27.274439" lon="151.290064">
  <ele>343.1</ele>
  <time>2026-09-01T19:49:59Z</time>
  <course>270.44</course>
  <speed>0.0</speed>
  <fix>3d</fix>
</trkpt>
<trkpt lat="-27.274439" lon="151.290064">
  <ele>343.1</ele>
  <time>2026-09-01T19:50:00Z</time>
  <course>270.44</course>
  <speed>0.0</speed>
  <fix>3d</fix>
</trkpt>
<trkpt lat="-27.274439" lon="151.290064">
  <ele>343.1</ele>
  <time>2026-09-01T19:50:00Z</time>
  <course>270.05</course>
  <speed>0.0</speed>
  <fix>3d</fix>
</trkpt>
<trkpt lat="-27.274439" lon="151.290064">
  <ele>343.1</ele>
  <time>2026-09-01T19:50:00Z</time>
  <course>270.05</course>
  <speed>0.0</speed>
  <fix>3d</fix>
</trkpt>
<trkpt lat="-27.274439" lon="151.290064">
  <ele>343.1</ele>
  <time>2026-09-01T19:50:00Z</time>
  <course>270.0</course>
  <speed>0.0</speed>
  <fix>3d</fix>
</trkpt>
<trkpt lat="-27.274439" lon="151.290064">
  <ele>343.1</ele>
  <time>2026-09-01T19:50:00Z</time>
  <course>270.0</course>
  <speed>0.0</speed>
  <fix>3d</fix>
</trkpt>
<trkpt lat="-27.274439" lon="151.290064">
  <ele>343.1</ele>
  <time>2026-09-01T19:50:00Z</time>
  <course>270.0</course>
  <speed>0.0</speed>
  <fix>3d</fix>
</trkpt>
<trkpt lat="-27.274439" lon="151.290064">
  <ele>343.1</ele>
  <time>2026-09-01T19:50:00Z</time>
  <course>270.0</course>
  <speed>0.0</speed>
  <fix>3d</fix>
</trkpt>
<trkpt lat="-27.274439" lon="151.290064">
  <ele>343.1</ele>
  <time>2026-09-01T19:50:00Z</time>
  <course>270.0</course>
  <speed>0.0</speed>
  <fix>3d</fix>
</trkpt>
<trkpt lat="-27.274439" lon="151.290064">
  <ele>343.1</ele>
  <time>2026-09-01T19:50:00Z</time>
  <course>270.0</course>
  <speed>0.0</speed>
  <fix>3d</fix>
</trkpt>
<trkpt lat="-27.274439" lon="151.290064">
  <ele>343.1</ele>
  <time>2026-09-01T19:50:00Z</time>
  <course>270.0</course>
  <speed>0.0</speed>
  <fix>3d</fix>
</trkpt>
<trkpt lat="-27.274439" lon="151.290064">
  <ele>343.1</ele>
  <time>2026-09-01T19:50:00Z</time>
  <course>270.0</course>
  <speed>0.0</speed>
  <fix>3d</fix>
</trkpt>
<trkpt lat="-27.274439" lon="151.290064">
  <ele>343.1</ele>
  <time>2026-09-01T19:50:00Z</time>
  <course>270.0</course>
  <speed>0.0</speed>
  <fix>3d</fix>
</trkpt>
<trkpt lat="-27.274439" lon="151.290064">
  <ele>343.1</ele>
  <time>2026-09-01T19:50:00Z</time>
  <course>270.0</course>
  <speed>0.0</speed>
  <fix>3d</fix>
</trkpt>
<trkpt lat="-27.274439" lon="151.290064">
  <ele>343.1</ele>
  <time>2026-09-01T19:50:00Z</time>
  <course>270.0</course>
  <speed>0.0</speed>
  <fix>3d</fix>
</trkpt>
<trkpt lat="-27.274439" lon="151.290064">
  <ele>343.1</ele>
  <time>2026-09-01T19:50:00Z</time>
  <course>270.0</course>
  <speed>0.0</speed>
  <fix>3d</fix>
</trkpt>
<trkpt lat="-27.274439" lon="151.290064">
  <ele>343.1</ele>
  <time>2026-09-01T19:50:00Z</time>
  <course>270.0</course>
  <speed>0.0</speed>
  <fix>3d</fix>
</trkpt>
<trkpt lat="-27.274439" lon="151.290064">
  <ele>343.1</ele>
  <time>2026-09-01T19:50:00Z</time>
  <course>270.0</course>
  <speed>0.0</speed>
  <fix>3d</fix>
</trkpt>
<trkpt lat="-27.274439" lon="151.290064">
  <ele>343.1</ele>
  <time>2026-09-01T19:50:00Z</time>
  <course>270.0</course>
  <speed>0.0</speed>
  <fix>3d</fix>
</trkpt>
<trkpt lat="-27.274439" lon="151.290064">
  <ele>343.1</ele>
  <time>2026-09-01T19:50:00Z</time>
  <course>270.0</course>
  <speed>0.0</speed>
  <fix>3d</fix>
</trkpt>
<trkpt lat="-27.274439" lon="151.290064">
  <ele>343.1</ele>
  <time>2026-09-01T19:50:00Z</time>
  <course>270.0</course>
  <speed>0.0</speed>
  <fix>3d</fix>
</trkpt>
<trkpt lat="-27.274439" lon="151.290064">
  <ele>343.1</ele>
  <time>2026-09-01T19:50:00Z</time>
  <course>270.0</course>
  <speed>0.0</speed>
  <fix>3d</fix>
</trkpt>
<trkpt lat="-27.274439" lon="151.290064">
  <ele>343.1</ele>
  <time>2026-09-01T19:50:00Z</time>
  <course>270.0</course>
  <speed>0.0</speed>
  <fix>3d</fix>
</trkpt>
<trkpt lat="-27.274439" lon="151.290064">
  <ele>343.1</ele>
  <time>2026-09-01T19:50:00Z</time>
  <course>270.0</course>
  <speed>0.0</speed>
  <fix>3d</fix>
</trkpt>
<trkpt lat="-27.274439" lon="151.290064">
  <ele>343.1</ele>
  <time>2026-09-01T19:50:00Z</time>
  <course>270.0</course>
  <speed>0.0</speed>
  <fix>3d</fix>
</trkpt>
<trkpt lat="-27.274439" lon="151.290064">
  <ele>343.1</ele>
  <time>2026-09-01T19:50:00Z</time>
  <course>270.0</course>
  <speed>0.0</speed>
  <fix>3d</fix>
</trkpt>
<trkpt lat="-27.274439" lon="151.290064">
  <ele>343.1</ele>
  <time>2026-09-01T19:50:00Z</time>
  <course>270.0</course>
  <speed>0.0</speed>
  <fix>3d</fix>
</trkpt>
<trkpt lat="-27.274439" lon="151.290064">
  <ele>343.1</ele>
  <time>2026-09-01T19:50:00Z</time>
  <course>270.0</course>
  <speed>0.0</speed>
  <fix>3d</fix>
</trkpt>
<trkpt lat="-27.274439" lon="151.290064">
  <ele>343.1</ele>
  <time>2026-09-01T19:50:00Z</time>
  <course>270.0</course>
  <speed>0.0</speed>
  <fix>3d</fix>
</trkpt>
<trkpt lat="-27.274439" lon="151.290064">
  <ele>343.1</ele>
  <time>2026-09-01T19:50:00Z</time>
  <course>270.0</course>
  <speed>0.0</speed>
  <fix>3d</fix>
</trkpt>
<trkpt lat="-27.274439" lon="151.290064">
  <ele>343.1</ele>
  <time>2026-09-01T19:50:00Z</time>
  <course>270.0</course>
  <speed>0.0</speed>
  <fix>3d</fix>
</trkpt>
<trkpt lat="-27.274439" lon="151.290064">
  <ele>343.1</ele>
  <time>2026-09-01T19:50:00Z</time>
  <course>270.0</course>
  <speed>0.0</speed>
  <fix>3d</fix>
</trkpt>
<trkpt lat="-27.274439" lon="151.290064">
  <ele>343.1</ele>
  <time>2026-09-01T19:50:00Z</time>
  <course>270.0</course>
  <speed>0.0</speed>
  <fix>3d</fix>
</trkpt>
<trkpt lat="-27.274439" lon="151.290064">
  <ele>343.1</ele>
  <time>2026-09-01T19:50:00Z</time>
  <course>270.0</course>
  <speed>0.0</speed>
  <fix>3d</fix>
</trkpt>
<trkpt lat="-27.274439" lon="151.290064">
  <ele>343.1</ele>
  <time>2026-09-01T19:50:00Z</time>
  <course>270.0</course>
  <speed>0.0</speed>
  <fix>3d</fix>
</trkpt>
<trkpt lat="-27.274439" lon="151.290064">
  <ele>343.1</ele>
  <time>2026-09-01T19:50:00Z</time>
  <course>270.0</course>
  <speed>0.0</speed>
  <fix>3d</fix>
</trkpt>
<trkpt lat="-27.274439" lon="151.290064">
  <ele>343.1</ele>
  <time>2026-09-01T19:50:00Z</time>
  <course>270.0</course>
  <speed>0.0</speed>
  <fix>3d</fix>
</trkpt>
<trkpt lat="-27.274439" lon="151.290064">
  <ele>343.1</ele>
  <time>2026-09-01T19:50:00Z</time>
  <course>270.0</course>
  <speed>0.0</speed>
  <fix>3d</fix>
</trkpt>
<trkpt lat="-27.274439" lon="151.290064">
  <ele>343.1</ele>
  <time>2026-09-01T19:50:00Z</time>
  <course>270.0</course>
  <speed>0.0</speed>
  <fix>3d</fix>
</trkpt>
<trkpt lat="-27.274439" lon="151.290064">
  <ele>343.1</ele>
  <time>2026-09-01T19:50:00Z</time>
  <course>270.0</course>
  <speed>0.0</speed>
  <fix>3d</fix>
</trkpt>
<trkpt lat="-27.274439" lon="151.290064">
  <ele>343.1</ele>
  <time>2026-09-01T19:50:00Z</time>
  <course>270.0</course>
  <speed>0.0</speed>
  <fix>3d</fix>
</trkpt>
<trkpt lat="-27.274439" lon="151.290064">
  <ele>343.1</ele>
  <time>2026-09-01T19:50:00Z</time>
  <course>270.0</course>
  <speed>0.0</speed>
  <fix>3d</fix>
</trkpt>
<trkpt lat="-27.274439" lon="151.290064">
  <ele>343.1</ele>
  <time>2026-09-01T19:50:00Z</time>
  <course>270.0</course>
  <speed>0.0</speed>
  <fix>3d</fix>
</trkpt>
<trkpt lat="-27.274439" lon="151.290064">
  <ele>343.1</ele>
  <time>2026-09-01T19:50:00Z</time>
  <course>270.0</course>
  <speed>0.0</speed>
  <fix>3d</fix>
</trkpt>
<trkpt lat="-27.274439" lon="151.290064">
  <ele>343.1</ele>
  <time>2026-09-01T19:50:00Z</time>
  <course>270.0</course>
  <speed>0.0</speed>
  <fix>3d</fix>
</trkpt>
<trkpt lat="-27.274439" lon="151.290064">
  <ele>343.1</ele>
  <time>2026-09-01T19:50:00Z</time>
  <course>270.0</course>
  <speed>0.0</speed>
  <fix>3d</fix>
</trkpt>
<trkpt lat="-27.274439" lon="151.290064">
  <ele>343.1</ele>
  <time>2026-09-01T19:50:00Z</time>
  <course>270.0</course>
  <speed>0.0</speed>
  <fix>3d</fix>
</trkpt>
<trkpt lat="-27.274439" lon="151.290064">
  <ele>343.1</ele>
  <time>2026-09-01T19:50:00Z</time>
  <course>270.0</course>
  <speed>0.0</speed>
  <fix>3d</fix>
</trkpt>
<trkpt lat="-27.274439" lon="151.290064">
  <ele>343.1</ele>
  <time>2026-09-01T19:50:00Z</time>
  <course>270.0</course>
  <speed>0.0</speed>
  <fix>3d</fix>
</trkpt>
<trkpt lat="-27.274439" lon="151.290064">
  <ele>343.1</ele>
  <time>2026-09-01T19:50:00Z</time>
  <course>270.0</course>
  <speed>0.0</speed>
  <fix>3d</fix>
</trkpt>
<trkpt lat="-27.274439" lon="151.290064">
  <ele>343.1</ele>
  <time>2026-09-01T19:50:00Z</time>
  <course>270.0</course>
  <speed>0.0</speed>
  <fix>3d</fix>
</trkpt>
<trkpt lat="-27.274439" lon="151.290064">
  <ele>343.1</ele>
  <time>2026-09-01T19:50:00Z</time>
  <course>270.0</course>
  <speed>0.0</speed>
  <fix>3d</fix>
</trkpt>
<trkpt lat="-27.274439" lon="151.290064">
  <ele>343.1</ele>
  <time>2026-09-01T19:50:00Z</time>
  <course>270.0</course>
  <speed>0.0</speed>
  <fix>3d</fix>
</trkpt>
<trkpt lat="-27.274439" lon="151.290064">
  <ele>343.1</ele>
  <time>2026-09-01T19:50:00Z</time>
  <course>270.0</course>
  <speed>0.0</speed>
  <fix>3d</fix>
</trkpt>
<trkpt lat="-27.274439" lon="151.290064">
  <ele>343.1</ele>
  <time>2026-09-01T19:50:00Z</time>
  <course>270.0</course>
  <speed>0.0</speed>
  <fix>3d</fix>
</trkpt>
<trkpt lat="-27.274439" lon="151.290064">
  <ele>343.1</ele>
  <time>2026-09-01T19:50:00Z</time>
  <course>270.0</course>
  <speed>0.0</speed>
  <fix>3d</fix>
</trkpt>
<trkpt lat="-27.274439" lon="151.290064">
  <ele>343.1</ele>
  <time>2026-09-01T19:50:00Z</time>
  <course>270.0</course>
  <speed>0.0</speed>
  <fix>3d</fix>
</trkpt>
<trkpt lat="-27.274439" lon="151.290064">
  <ele>343.1</ele>
  <time>2026-09-01T19:50:00Z</time>
  <course>270.0</course>
  <speed>0.0</speed>
  <fix>3d</fix>
</trkpt>
<trkpt lat="-27.274439" lon="151.290064">
  <ele>343.1</ele>
  <time>2026-09-01T19:50:00Z</time>
  <course>270.0</course>
  <speed>0.0</speed>
  <fix>3d</fix>
</trkpt>
<trkpt lat="-27.274439" lon="151.290064">
  <ele>343.1</ele>
  <time>2026-09-01T19:50:00Z</time>
  <course>270.0</course>
  <speed>0.0</speed>
  <fix>3d</fix>
</trkpt>
<trkpt lat="-27.274439" lon="151.290064">
  <ele>343.1</ele>
  <time>2026-09-01T19:50:00Z</time>
  <course>270.0</course>
  <speed>0.0</speed>
  <fix>3d</fix>
</trkpt>
<trkpt lat="-27.274439" lon="151.290064">
  <ele>343.1</ele>
  <time>2026-09-01T19:50:00Z</time>
  <course>270.0</course>
  <speed>0.0</speed>
  <fix>3d</fix>
</trkpt>
<trkpt lat="-27.274439" lon="151.290064">
  <ele>343.1</ele>
  <time>2026-09-01T19:50:00Z</time>
  <course>270.0</course>
  <speed>0.0</speed>
  <fix>3d</fix>
</trkpt>
<trkpt lat="-27.274439" lon="151.290064">
  <ele>343.1</ele>
  <time>2026-09-01T19:50:00Z</time>
  <course>270.0</course>
  <speed>0.0</speed>
  <fix>3d</fix>
</trkpt>
<trkpt lat="-27.274439" lon="151.290064">
  <ele>343.1</ele>
  <time>2026-09-01T19:50:00Z</time>
  <course>270.0</course>
  <speed>0.0</speed>
  <fix>3d</fix>
</trkpt>
<trkpt lat="-27.274439" lon="151.290064">
  <ele>343.1</ele>
  <time>2026-09-01T19:50:00Z</time>
  <course>270.0</course>
  <speed>0.0</speed>
  <fix>3d</fix>
</trkpt>
<trkpt lat="-27.274439" lon="151.290064">
  <ele>343.1</ele>
  <time>2026-09-01T19:50:00Z</time>
  <course>270.0</course>
  <speed>0.0</speed>
  <fix>3d</fix>
</trkpt>
<trkpt lat="-27.274439" lon="151.290064">
  <ele>343.1</ele>
  <time>2026-09-01T19:50:00Z</time>
  <course>270.0</course>
  <speed>0.0</speed>
  <fix>3d</fix>
</trkpt>
<trkpt lat="-27.274439" lon="151.290064">
  <ele>343.1</ele>
  <time>2026-09-01T19:50:00Z</time>
  <course>270.0</course>
  <speed>0.0</speed>
  <fix>3d</fix>
</trkpt>
<trkpt lat="-27.274439" lon="151.290064">
  <ele>343.1</ele>
  <time>2026-09-01T19:50:00Z</time>
  <course>270.0</course>
  <speed>0.0</speed>
  <fix>3d</fix>
</trkpt>
<trkpt lat="-27.274439" lon="151.290064">
  <ele>343.1</ele>
  <time>2026-09-01T19:50:00Z</time>
  <course>270.0</course>
  <speed>0.0</speed>
  <fix>3d</fix>
</trkpt>
<trkpt lat="-27.274439" lon="151.290064">
  <ele>343.1</ele>
  <time>2026-09-01T19:50:00Z</time>
  <course>270.0</course>
  <speed>0.0</speed>
  <fix>3d</fix>
</trkpt>
<trkpt lat="-27.274439" lon="151.290064">
  <ele>343.1</ele>
  <time>2026-09-01T19:50:00Z</time>
  <course>270.0</course>
  <speed>0.0</speed>
  <fix>3d</fix>
</trkpt>
<trkpt lat="-27.274439" lon="151.290064">
  <ele>343.1</ele>
  <time>2026-09-01T19:50:00Z</time>
  <course>270.0</course>
  <speed>0.0</speed>
  <fix>3d</fix>
</trkpt>
<trkpt lat="-27.274439" lon="151.290064">
  <ele>343.1</ele>
  <time>2026-09-01T19:50:00Z</time>
  <course>270.0</course>
  <speed>0.0</speed>
  <fix>3d</fix>
</trkpt>
<trkpt lat="-27.274439" lon="151.290064">
  <ele>343.1</ele>
  <time>2026-09-01T19:50:00Z</time>
  <course>270.0</course>
  <speed>0.0</speed>
  <fix>3d</fix>
</trkpt>
<trkpt lat="-27.274439" lon="151.290064">
  <ele>343.1</ele>
  <time>2026-09-01T19:50:00Z</time>
  <course>270.0</course>
  <speed>0.0</speed>
  <fix>3d</fix>
</trkpt>
<trkpt lat="-27.274439" lon="151.290064">
  <ele>343.1</ele>
  <time>2026-09-01T19:50:00Z</time>
  <course>270.0</course>
  <speed>0.0</speed>
  <fix>3d</fix>
</trkpt>
<trkpt lat="-27.274439" lon="151.290064">
  <ele>343.1</ele>
  <time>2026-09-01T19:50:00Z</time>
  <course>270.0</course>
  <speed>0.0</speed>
  <fix>3d</fix>
</trkpt>
<trkpt lat="-27.274439" lon="151.290064">
  <ele>343.1</ele>
  <time>2026-09-01T19:50:00Z</time>
  <course>270.0</course>
  <speed>0.0</speed>
  <fix>3d</fix>
</trkpt>
<trkpt lat="-27.274439" lon="151.290064">
  <ele>343.1</ele>
  <time>2026-09-01T19:50:00Z</time>
  <course>270.0</course>
  <speed>0.0</speed>
  <fix>3d</fix>
</trkpt>
<trkpt lat="-27.274439" lon="151.290064">
  <ele>343.1</ele>
  <time>2026-09-01T19:50:00Z</time>
  <course>270.0</course>
  <speed>0.0</speed>
  <fix>3d</fix>
</trkpt>
<trkpt lat="-27.274439" lon="151.290064">
  <ele>343.1</ele>
  <time>2026-09-01T19:50:00Z</time>
  <course>270.0</course>
  <speed>0.0</speed>
  <fix>3d</fix>
</trkpt>
<trkpt lat="-27.274439" lon="151.290064">
  <ele>343.1</ele>
  <time>2026-09-01T19:50:00Z</time>
  <course>270.0</course>
  <speed>0.0</speed>
  <fix>3d</fix>
</trkpt>
<trkpt lat="-27.274439" lon="151.290064">
  <ele>343.1</ele>
  <time>2026-09-01T19:50:00Z</time>
  <course>270.0</course>
  <speed>0.0</speed>
  <fix>3d</fix>
</trkpt>
<trkpt lat="-27.274439" lon="151.290064">
  <ele>343.1</ele>
  <time>2026-09-01T19:50:00Z</time>
  <course>270.0</course>
  <speed>0.0</speed>
  <fix>3d</fix>
</trkpt>
<trkpt lat="-27.274439" lon="151.290064">
  <ele>343.1</ele>
  <time>2026-09-01T19:50:00Z</time>
  <course>270.0</course>
  <speed>0.0</speed>
  <fix>3d</fix>
</trkpt>
<trkpt lat="-27.274439" lon="151.290064">
  <ele>343.1</ele>
  <time>2026-09-01T19:50:00Z</time>
  <course>270.0</course>
  <speed>0.0</speed>
  <fix>3d</fix>
</trkpt>
<trkpt lat="-27.274439" lon="151.290064">
  <ele>0.02</ele>
  <time>2026-09-01T19:50:00Z</time>
  <course>0.22</course>
  <speed>0.0</speed>
  <fix>3d</fix>
</trkpt>
<trkpt lat="-27.274439" lon="151.290064">
  <ele>343.1</ele>
  <time>2026-09-01T19:50:00Z</time>
  <course>270.0</course>
  <speed>0.0</speed>
  <fix>3d</fix>
</trkpt>
<trkpt lat="-27.274439" lon="151.290064">
  <ele>0.01</ele>
  <time>2026-09-01T19:50:00Z</time>
  <course>1.13</course>
  <speed>0.0</speed>
  <fix>3d</fix>
</trkpt>
<trkpt lat="-27.274439" lon="151.290064">
  <ele>343.1</ele>
  <time>2026-09-01T19:50:00Z</time>
  <course>270.0</course>
  <speed>0.0</speed>
  <fix>3d</fix>
</trkpt>
<trkpt lat="-27.274439" lon="151.290064">
  <ele>0.18</ele>
  <time>2026-09-01T19:50:00Z</time>
  <course>1.98</course>
  <speed>0.0</speed>
  <fix>3d</fix>
</trkpt>
<trkpt lat="-27.274439" lon="151.290064">
  <ele>343.1</ele>
  <time>2026-09-01T19:50:00Z</time>
  <course>270.0</course>
  <speed>0.0</speed>
  <fix>3d</fix>
</trkpt>
<trkpt lat="-27.274439" lon="151.290064">
  <ele>0.0</ele>
  <time>2026-09-01T19:50:00Z</time>
  <course>2.77</course>
  <speed>0.0</speed>
  <fix>3d</fix>
</trkpt>
<trkpt lat="-27.274439" lon="151.290064">
  <ele>343.1</ele>
  <time>2026-09-01T19:50:00Z</time>
  <course>270.0</course>
  <speed>0.0</speed>
  <fix>3d</fix>
</trkpt>
<trkpt lat="-27.274439" lon="151.290064">
  <ele>-0.29</ele>
  <time>2026-09-01T19:50:00Z</time>
  <course>3.5</course>
  <speed>0.0</speed>
  <fix>3d</fix>
</trkpt>
<trkpt lat="-27.274439" lon="151.290064">
  <ele>343.1</ele>
  <time>2026-09-01T19:50:00Z</time>
  <course>270.0</course>
  <speed>0.0</speed>
  <fix>3d</fix>
</trkpt>
<trkpt lat="-27.274439" lon="151.290064">
  <ele>0.02</ele>
  <time>2026-09-01T19:50:00Z</time>
  <course>4.18</course>
  <speed>0.0</speed>
  <fix>3d</fix>
</trkpt>
<trkpt lat="-27.274439" lon="151.290064">
  <ele>343.1</ele>
  <time>2026-09-01T19:50:00Z</time>
  <course>270.0</course>
  <speed>0.0</speed>
  <fix>3d</fix>
</trkpt>
<trkpt lat="-27.274439" lon="151.290064">
  <ele>0.0</ele>
  <time>2026-09-01T19:50:00Z</time>
  <course>4.81</course>
  <speed>0.0</speed>
  <fix>3d</fix>
</trkpt>
<trkpt lat="-27.274439" lon="151.290064">
  <ele>343.1</ele>
  <time>2026-09-01T19:50:00Z</time>
  <course>270.0</course>
  <speed>0.0</speed>
  <fix>3d</fix>
</trkpt>
<trkpt lat="-27.274439" lon="151.290064">
  <ele>0.04</ele>
  <time>2026-09-01T19:50:00Z</time>
  <course>5.38</course>
  <speed>0.0</speed>
  <fix>3d</fix>
</trkpt>
<trkpt lat="-27.274439" lon="151.290064">
  <ele>343.1</ele>
  <time>2026-09-01T19:50:00Z</time>
  <course>270.0</course>
  <speed>0.0</speed>
  <fix>3d</fix>
</trkpt>
<trkpt lat="-27.274439" lon="151.290064">
  <ele>343.15</ele>
  <time>2026-09-01T19:50:00Z</time>
  <course>5.9</course>
  <speed>0.0</speed>
  <fix>3d</fix>
</trkpt>
<trkpt lat="-27.274439" lon="151.290064">
  <ele>343.1</ele>
  <time>2026-09-01T19:50:00Z</time>
  <course>270.0</course>
  <speed>0.0</speed>
  <fix>3d</fix>
</trkpt>
<trkpt lat="-26.9720619" lon="149.6127921">
  <ele>339.29</ele>
  <time>2026-09-01T19:50:07Z</time>
  <course>310.27</course>
  <speed>0.0</speed>
  <fix>3d</fix>
</trkpt>
<trkpt lat="-26.9720619" lon="149.6127921">
  <ele>339.29</ele>
  <time>2026-09-01T19:50:07Z</time>
  <course>310.27</course>
  <speed>0.0</speed>
  <fix>3d</fix>
</trkpt>
<trkpt lat="-27.274439" lon="151.290064">
  <ele>-0.01</ele>
  <time>2026-09-01T19:50:07Z</time>
  <course>0.22</course>
  <speed>0.0</speed>
  <fix>3d</fix>
</trkpt>
<trkpt lat="-27.274439" lon="151.290064">
  <ele>343.1</ele>
  <time>2026-09-01T19:50:07Z</time>
  <course>294.58</course>
  <speed>0.0</speed>
  <fix>3d</fix>
</trkpt>
<trkpt lat="-27.274439" lon="151.290064">
  <ele>0.02</ele>
  <time>2026-09-01T19:50:07Z</time>
  <course>1.2</course>
  <speed>0.0</speed>
  <fix>3d</fix>
</trkpt>
<trkpt lat="-27.274439" lon="151.290064">
  <ele>343.1</ele>
  <time>2026-09-01T19:50:07Z</time>
  <course>294.58</course>
  <speed>0.0</speed>
  <fix>3d</fix>
</trkpt>
<trkpt lat="-27.274439" lon="151.290064">
  <ele>-0.08</ele>
  <time>2026-09-01T19:50:07Z</time>
  <course>2.1</course>
  <speed>0.0</speed>
  <fix>3d</fix>
</trkpt>
<trkpt lat="-27.274439" lon="151.290064">
  <ele>343.1</ele>
  <time>2026-09-01T19:50:07Z</time>
  <course>273.33</course>
  <speed>0.0</speed>
  <fix>3d</fix>
</trkpt>
<trkpt lat="-27.274439" lon="151.290064">
  <ele>0.22</ele>
  <time>2026-09-01T19:50:07Z</time>
  <course>2.92</course>
  <speed>0.0</speed>
  <fix>3d</fix>
</trkpt>
<trkpt lat="-27.274439" lon="151.290064">
  <ele>343.1</ele>
  <time>2026-09-01T19:50:07Z</time>
  <course>273.33</course>
  <speed>0.0</speed>
  <fix>3d</fix>
</trkpt>
<trkpt lat="-27.274439" lon="151.290064">
  <ele>0.09</ele>
  <time>2026-09-01T19:50:07Z</time>
  <course>3.66</course>
  <speed>0.0</speed>
  <fix>3d</fix>
</trkpt>
<trkpt lat="-27.274439" lon="151.290064">
  <ele>343.1</ele>
  <time>2026-09-01T19:50:07Z</time>
  <course>270.44</course>
  <speed>0.0</speed>
  <fix>3d</fix>
</trkpt>
<trkpt lat="-27.274439" lon="151.290064">
  <ele>0.08</ele>
  <time>2026-09-01T19:50:07Z</time>
  <course>4.34</course>
  <speed>0.0</speed>
  <fix>3d</fix>
</trkpt>
<trkpt lat="-27.274439" lon="151.290064">
  <ele>343.1</ele>
  <time>2026-09-01T19:50:07Z</time>
  <course>270.44</course>
  <speed>0.0</speed>
  <fix>3d</fix>
</trkpt>
<trkpt lat="-27.274439" lon="151.290064">
  <ele>0.09</ele>
  <time>2026-09-01T19:50:07Z</time>
  <course>4.95</course>
  <speed>0.0</speed>
  <fix>3d</fix>
</trkpt>
<trkpt lat="-27.274439" lon="151.290064">
  <ele>343.1</ele>
  <time>2026-09-01T19:50:07Z</time>
  <course>270.05</course>
  <speed>0.0</speed>
  <fix>3d</fix>
</trkpt>
<trkpt lat="-27.274439" lon="151.290064">
  <ele>-0.05</ele>
  <time>2026-09-01T19:50:07Z</time>
  <course>5.5</course>
  <speed>0.0</speed>
  <fix>3d</fix>
</trkpt>
<trkpt lat="-27.274439" lon="151.290064">
  <ele>343.1</ele>
  <time>2026-09-01T19:50:07Z</time>
  <course>270.05</course>
  <speed>0.0</speed>
  <fix>3d</fix>
</trkpt>
<trkpt lat="-27.274439" lon="151.290064">
  <ele>343.06</ele>
  <time>2026-09-01T19:50:07Z</time>
  <course>5.98</course>
  <speed>0.0</speed>
  <fix>3d</fix>
</trkpt>
<trkpt lat="-27.274439" lon="151.290064">
  <ele>343.1</ele>
  <time>2026-09-01T19:50:07Z</time>
  <course>270.0</course>
  <speed>0.0</speed>
  <fix>3d</fix>
</trkpt>
<trkpt lat="-27.274439" lon="151.290064">
  <ele>343.18</ele>
  <time>2026-09-01T19:50:07Z</time>
  <course>6.44</course>
  <speed>0.0</speed>
  <fix>3d</fix>
</trkpt>
<trkpt lat="-27.274439" lon="151.290064">
  <ele>343.1</ele>
  <time>2026-09-01T19:50:07Z</time>
  <course>270.0</course>
  <speed>0.0</speed>
  <fix>3d</fix>
</trkpt>
<trkpt lat="-27.274439" lon="151.290064">
  <ele>342.91</ele>
  <time>2026-09-01T19:50:07Z</time>
  <course>6.85</course>
  <speed>0.0</speed>
  <fix>3d</fix>
</trkpt>
<trkpt lat="-27.274439" lon="151.290064">
  <ele>343.1</ele>
  <time>2026-09-01T19:50:07Z</time>
  <course>270.0</course>
  <speed>0.0</speed>
  <fix>3d</fix>
</trkpt>
<trkpt lat="-27.274439" lon="151.290064">
  <ele>343.06</ele>
  <time>2026-09-01T19:50:07Z</time>
  <course>7.22</course>
  <speed>0.0</speed>
  <fix>3d</fix>
</trkpt>
<trkpt lat="-27.274439" lon="151.290064">
  <ele>343.1</ele>
  <time>2026-09-01T19:50:07Z</time>
  <course>270.0</course>
  <speed>0.0</speed>
  <fix>3d</fix>
</trkpt>
<trkpt lat="-27.274439" lon="151.290064">
  <ele>343.13</ele>
  <time>2026-09-01T19:50:07Z</time>
  <course>7.56</course>
  <speed>0.0</speed>
  <fix>3d</fix>
</trkpt>
<trkpt lat="-27.274439" lon="151.290064">
  <ele>343.1</ele>
  <time>2026-09-01T19:50:07Z</time>
  <course>270.0</course>
  <speed>0.0</speed>
  <fix>3d</fix>
</trkpt>
<trkpt lat="-27.274439" lon="151.290064">
  <ele>343.04</ele>
  <time>2026-09-01T19:50:07Z</time>
  <course>7.87</course>
  <speed>0.0</speed>
  <fix>3d</fix>
</trkpt>
<trkpt lat="-27.274439" lon="151.290064">
  <ele>343.1</ele>
  <time>2026-09-01T19:50:07Z</time>
  <course>270.0</course>
  <speed>0.0</speed>
  <fix>3d</fix>
</trkpt>
<trkpt lat="-27.274439" lon="151.290064">
  <ele>342.88</ele>
  <time>2026-09-01T19:50:07Z</time>
  <course>8.14</course>
  <speed>0.0</speed>
  <fix>3d</fix>
</trkpt>
<trkpt lat="-27.274439" lon="151.290064">
  <ele>343.1</ele>
  <time>2026-09-01T19:50:07Z</time>
  <course>270.0</course>
  <speed>0.0</speed>
  <fix>3d</fix>
</trkpt>
<trkpt lat="-27.274439" lon="151.290064">
  <ele>343.02</ele>
  <time>2026-09-01T19:50:07Z</time>
  <course>8.39</course>
  <speed>0.0</speed>
  <fix>3d</fix>
</trkpt>
<trkpt lat="-27.274439" lon="151.290064">
  <ele>343.1</ele>
  <time>2026-09-01T19:50:07Z</time>
  <course>270.0</course>
  <speed>0.0</speed>
  <fix>3d</fix>
</trkpt>
<trkpt lat="-27.274439" lon="151.290064">
  <ele>343.23</ele>
  <time>2026-09-01T19:50:07Z</time>
  <course>8.63</course>
  <speed>0.0</speed>
  <fix>3d</fix>
</trkpt>
<trkpt lat="-27.274439" lon="151.290064">
  <ele>343.1</ele>
  <time>2026-09-01T19:50:07Z</time>
  <course>270.0</course>
  <speed>0.0</speed>
  <fix>3d</fix>
</trkpt>
<trkpt lat="-27.274439" lon="151.290064">
  <ele>343.17</ele>
  <time>2026-09-01T19:50:07Z</time>
  <course>8.83</course>
  <speed>0.0</speed>
  <fix>3d</fix>
</trkpt>
<trkpt lat="-27.274439" lon="151.290064">
  <ele>343.1</ele>
  <time>2026-09-01T19:50:07Z</time>
  <course>270.0</course>
  <speed>0.0</speed>
  <fix>3d</fix>
</trkpt>
<trkpt lat="-27.274439" lon="151.290064">
  <ele>343.04</ele>
  <time>2026-09-01T19:50:07Z</time>
  <course>9.01</course>
  <speed>0.0</speed>
  <fix>3d</fix>
</trkpt>
<trkpt lat="-27.274439" lon="151.290064">
  <ele>343.1</ele>
  <time>2026-09-01T19:50:07Z</time>
  <course>270.0</course>
  <speed>0.0</speed>
  <fix>3d</fix>
</trkpt>
<trkpt lat="-27.274439" lon="151.290064">
  <ele>342.89</ele>
  <time>2026-09-01T19:50:07Z</time>
  <course>9.18</course>
  <speed>0.0</speed>
  <fix>3d</fix>
</trkpt>
<trkpt lat="-27.274439" lon="151.290064">
  <ele>343.1</ele>
  <time>2026-09-01T19:50:07Z</time>
  <course>270.0</course>
  <speed>0.0</speed>
  <fix>3d</fix>
</trkpt>
<trkpt lat="-27.274439" lon="151.290064">
  <ele>343.08</ele>
  <time>2026-09-01T19:50:07Z</time>
  <course>9.33</course>
  <speed>0.0</speed>
  <fix>3d</fix>
</trkpt>
<trkpt lat="-27.274439" lon="151.290064">
  <ele>343.1</ele>
  <time>2026-09-01T19:50:07Z</time>
  <course>270.0</course>
  <speed>0.0</speed>
  <fix>3d</fix>
</trkpt>
<trkpt lat="-27.274439" lon="151.290064">
  <ele>343.19</ele>
  <time>2026-09-01T19:50:07Z</time>
  <course>9.47</course>
  <speed>0.0</speed>
  <fix>3d</fix>
</trkpt>
<trkpt lat="-27.274439" lon="151.290064">
  <ele>343.1</ele>
  <time>2026-09-01T19:50:07Z</time>
  <course>270.0</course>
  <speed>0.0</speed>
  <fix>3d</fix>
</trkpt>
<trkpt lat="-27.274439" lon="151.290064">
  <ele>342.88</ele>
  <time>2026-09-01T19:50:07Z</time>
  <course>9.59</course>
  <speed>0.0</speed>
  <fix>3d</fix>
</trkpt>
<trkpt lat="-27.274439" lon="151.290064">
  <ele>343.1</ele>
  <time>2026-09-01T19:50:07Z</time>
  <course>270.0</course>
  <speed>0.0</speed>
  <fix>3d</fix>
</trkpt>
<trkpt lat="-27.274439" lon="151.290064">
  <ele>343.17</ele>
  <time>2026-09-01T19:50:07Z</time>
  <course>9.7</course>
  <speed>0.0</speed>
  <fix>3d</fix>
</trkpt>
<trkpt lat="-27.274439" lon="151.290064">
  <ele>343.1</ele>
  <time>2026-09-01T19:50:07Z</time>
  <course>270.0</course>
  <speed>0.0</speed>
  <fix>3d</fix>
</trkpt>
<trkpt lat="-27.274439" lon="151.290064">
  <ele>342.89</ele>
  <time>2026-09-01T19:50:07Z</time>
  <course>9.8</course>
  <speed>0.0</speed>
  <fix>3d</fix>
</trkpt>
<trkpt lat="-27.274439" lon="151.290064">
  <ele>343.1</ele>
  <time>2026-09-01T19:50:07Z</time>
  <course>270.0</course>
  <speed>0.0</speed>
  <fix>3d</fix>
</trkpt>
<trkpt lat="-27.274439" lon="151.290064">
  <ele>342.99</ele>
  <time>2026-09-01T19:50:07Z</time>
  <course>9.9</course>
  <speed>0.0</speed>
  <fix>3d</fix>
</trkpt>
<trkpt lat="-27.274439" lon="151.290064">
  <ele>343.1</ele>
  <time>2026-09-01T19:50:07Z</time>
  <course>270.0</course>
  <speed>0.0</speed>
  <fix>3d</fix>
</trkpt>
<trkpt lat="-27.274439" lon="151.290064">
  <ele>342.87</ele>
  <time>2026-09-01T19:50:07Z</time>
  <course>9.98</course>
  <speed>0.0</speed>
  <fix>3d</fix>
</trkpt>
<trkpt lat="-27.274439" lon="151.290064">
  <ele>343.1</ele>
  <time>2026-09-01T19:50:07Z</time>
  <course>270.0</course>
  <speed>0.0</speed>
  <fix>3d</fix>
</trkpt>
<trkpt lat="-27.274439" lon="151.290064">
  <ele>343.09</ele>
  <time>2026-09-01T19:50:07Z</time>
  <course>10.06</course>
  <speed>0.0</speed>
  <fix>3d</fix>
</trkpt>
<trkpt lat="-27.274439" lon="151.290064">
  <ele>343.1</ele>
  <time>2026-09-01T19:50:07Z</time>
  <course>270.0</course>
  <speed>0.0</speed>
  <fix>3d</fix>
</trkpt>
<trkpt lat="-27.274439" lon="151.290064">
  <ele>343.18</ele>
  <time>2026-09-01T19:50:07Z</time>
  <course>10.13</course>
  <speed>0.0</speed>
  <fix>3d</fix>
</trkpt>
<trkpt lat="-27.274439" lon="151.290064">
  <ele>343.1</ele>
  <time>2026-09-01T19:50:07Z</time>
  <course>270.0</course>
  <speed>0.0</speed>
  <fix>3d</fix>
</trkpt>
<trkpt lat="-27.274439" lon="151.290064">
  <ele>343.05</ele>
  <time>2026-09-01T19:50:07Z</time>
  <course>10.2</course>
  <speed>0.0</speed>
  <fix>3d</fix>
</trkpt>
<trkpt lat="-27.274439" lon="151.290064">
  <ele>343.1</ele>
  <time>2026-09-01T19:50:07Z</time>
  <course>270.0</course>
  <speed>0.0</speed>
  <fix>3d</fix>
</trkpt>
<trkpt lat="-27.274439" lon="151.290064">
  <ele>342.96</ele>
  <time>2026-09-01T19:50:07Z</time>
  <course>10.25</course>
  <speed>0.0</speed>
  <fix>3d</fix>
</trkpt>
<trkpt lat="-27.274439" lon="151.290064">
  <ele>343.1</ele>
  <time>2026-09-01T19:50:07Z</time>
  <course>270.0</course>
  <speed>0.0</speed>
  <fix>3d</fix>
</trkpt>
<trkpt lat="-27.274439" lon="151.290064">
  <ele>343.1</ele>
  <time>2026-09-01T19:50:07Z</time>
  <course>10.31</course>
  <speed>0.0</speed>
  <fix>3d</fix>
</trkpt>
<trkpt lat="-27.274439" lon="151.290064">
  <ele>343.1</ele>
  <time>2026-09-01T19:50:07Z</time>
  <course>270.0</course>
  <speed>0.0</speed>
  <fix>3d</fix>
</trkpt>
<trkpt lat="-27.274439" lon="151.290064">
  <ele>343.22</ele>
  <time>2026-09-01T19:50:07Z</time>
  <course>10.35</course>
  <speed>0.0</speed>
  <fix>3d</fix>
</trkpt>
<trkpt lat="-27.274439" lon="151.290064">
  <ele>343.1</ele>
  <time>2026-09-01T19:50:07Z</time>
  <course>270.0</course>
  <speed>0.0</speed>
  <fix>3d</fix>
</trkpt>
<trkpt lat="-27.274439" lon="151.290064">
  <ele>343.17</ele>
  <time>2026-09-01T19:50:07Z</time>
  <course>10.4</course>
  <speed>0.0</speed>
  <fix>3d</fix>
</trkpt>
<trkpt lat="-27.274439" lon="151.290064">
  <ele>343.1</ele>
  <time>2026-09-01T19:50:07Z</time>
  <course>270.0</course>
  <speed>0.0</speed>
  <fix>3d</fix>
</trkpt>
<trkpt lat="-27.274439" lon="151.290064">
  <ele>343.08</ele>
  <time>2026-09-01T19:50:07Z</time>
  <course>10.44</course>
  <speed>0.0</speed>
  <fix>3d</fix>
</trkpt>
<trkpt lat="-27.274439" lon="151.290064">
  <ele>343.1</ele>
  <time>2026-09-01T19:50:07Z</time>
  <course>270.0</course>
  <speed>0.0</speed>
  <fix>3d</fix>
</trkpt>
<trkpt lat="-27.274439" lon="151.290064">
  <ele>343.04</ele>
  <time>2026-09-01T19:50:07Z</time>
  <course>10.47</course>
  <speed>0.0</speed>
  <fix>3d</fix>
</trkpt>
<trkpt lat="-27.274439" lon="151.290064">
  <ele>343.1</ele>
  <time>2026-09-01T19:50:07Z</time>
  <course>270.0</course>
  <speed>0.0</speed>
  <fix>3d</fix>
</trkpt>
<trkpt lat="-27.274439" lon="151.290064">
  <ele>343.18</ele>
  <time>2026-09-01T19:50:07Z</time>
  <course>10.5</course>
  <speed>0.0</speed>
  <fix>3d</fix>
</trkpt>
<trkpt lat="-27.274439" lon="151.290064">
  <ele>343.1</ele>
  <time>2026-09-01T19:50:07Z</time>
  <course>270.0</course>
  <speed>0.0</speed>
  <fix>3d</fix>
</trkpt>
<trkpt lat="-27.274439" lon="151.290064">
  <ele>343.12</ele>
  <time>2026-09-01T19:50:07Z</time>
  <course>10.53</course>
  <speed>0.0</speed>
  <fix>3d</fix>
</trkpt>
<trkpt lat="-27.274439" lon="151.290064">
  <ele>343.1</ele>
  <time>2026-09-01T19:50:07Z</time>
  <course>270.0</course>
  <speed>0.0</speed>
  <fix>3d</fix>
</trkpt>
<trkpt lat="-27.274439" lon="151.290064">
  <ele>343.04</ele>
  <time>2026-09-01T19:50:07Z</time>
  <course>10.56</course>
  <speed>0.0</speed>
  <fix>3d</fix>
</trkpt>
<trkpt lat="-27.274439" lon="151.290064">
  <ele>343.1</ele>
  <time>2026-09-01T19:50:07Z</time>
  <course>270.0</course>
  <speed>0.0</speed>
  <fix>3d</fix>
</trkpt>
<trkpt lat="-27.274439" lon="151.290064">
  <ele>343.07</ele>
  <time>2026-09-01T19:50:07Z</time>
  <course>10.58</course>
  <speed>0.0</speed>
  <fix>3d</fix>
</trkpt>
<trkpt lat="-27.274439" lon="151.290064">
  <ele>343.1</ele>
  <time>2026-09-01T19:50:07Z</time>
  <course>270.0</course>
  <speed>0.0</speed>
  <fix>3d</fix>
</trkpt>
<trkpt lat="-27.274439" lon="151.290064">
  <ele>343.04</ele>
  <time>2026-09-01T19:50:07Z</time>
  <course>10.6</course>
  <speed>0.0</speed>
  <fix>3d</fix>
</trkpt>
<trkpt lat="-27.274439" lon="151.290064">
  <ele>343.1</ele>
  <time>2026-09-01T19:50:07Z</time>
  <course>270.0</course>
  <speed>0.0</speed>
  <fix>3d</fix>
</trkpt>
<trkpt lat="-27.274439" lon="151.290064">
  <ele>343.01</ele>
  <time>2026-09-01T19:50:07Z</time>
  <course>10.62</course>
  <speed>0.0</speed>
  <fix>3d</fix>
</trkpt>
<trkpt lat="-27.274439" lon="151.290064">
  <ele>343.1</ele>
  <time>2026-09-01T19:50:07Z</time>
  <course>270.0</course>
  <speed>0.0</speed>
  <fix>3d</fix>
</trkpt>
<trkpt lat="-27.274439" lon="151.290064">
  <ele>343.2</ele>
  <time>2026-09-01T19:50:07Z</time>
  <course>10.64</course>
  <speed>0.0</speed>
  <fix>3d</fix>
</trkpt>
<trkpt lat="-27.274439" lon="151.290064">
  <ele>343.1</ele>
  <time>2026-09-01T19:50:07Z</time>
  <course>270.0</course>
  <speed>0.0</speed>
  <fix>3d</fix>
</trkpt>
<trkpt lat="-27.274439" lon="151.290064">
  <ele>343.24</ele>
  <time>2026-09-01T19:50:07Z</time>
  <course>10.65</course>
  <speed>0.0</speed>
  <fix>3d</fix>
</trkpt>
<trkpt lat="-27.274439" lon="151.290064">
  <ele>343.1</ele>
  <time>2026-09-01T19:50:07Z</time>
  <course>270.0</course>
  <speed>0.0</speed>
  <fix>3d</fix>
</trkpt>
<trkpt lat="-27.274439" lon="151.290064">
  <ele>342.88</ele>
  <time>2026-09-01T19:50:07Z</time>
  <course>10.67</course>
  <speed>0.0</speed>
  <fix>3d</fix>
</trkpt>
<trkpt lat="-27.274439" lon="151.290064">
  <ele>343.1</ele>
  <time>2026-09-01T19:50:07Z</time>
  <course>270.0</course>
  <speed>0.0</speed>
  <fix>3d</fix>
</trkpt>
<trkpt lat="-27.274439" lon="151.290064">
  <ele>343.21</ele>
  <time>2026-09-01T19:50:07Z</time>
  <course>10.68</course>
  <speed>0.0</speed>
  <fix>3d</fix>
</trkpt>
<trkpt lat="-27.274439" lon="151.290064">
  <ele>343.1</ele>
  <time>2026-09-01T19:50:07Z</time>
  <course>270.0</course>
  <speed>0.0</speed>
  <fix>3d</fix>
</trkpt>
<trkpt lat="-27.274439" lon="151.290064">
  <ele>343.02</ele>
  <time>2026-09-01T19:50:07Z</time>
  <course>10.69</course>
  <speed>0.0</speed>
  <fix>3d</fix>
</trkpt>
<trkpt lat="-27.274439" lon="151.290064">
  <ele>343.1</ele>
  <time>2026-09-01T19:50:07Z</time>
  <course>270.0</course>
  <speed>0.0</speed>
  <fix>3d</fix>
</trkpt>
<trkpt lat="-27.274439" lon="151.290064">
  <ele>342.93</ele>
  <time>2026-09-01T19:50:07Z</time>
  <course>10.7</course>
  <speed>0.0</speed>
  <fix>3d</fix>
</trkpt>
<trkpt lat="-27.274439" lon="151.290064">
  <ele>343.1</ele>
  <time>2026-09-01T19:50:07Z</time>
  <course>270.0</course>
  <speed>0.0</speed>
  <fix>3d</fix>
</trkpt>
<trkpt lat="-27.274439" lon="151.290064">
  <ele>343.07</ele>
  <time>2026-09-01T19:50:07Z</time>
  <course>10.71</course>
  <speed>0.0</speed>
  <fix>3d</fix>
</trkpt>
<trkpt lat="-27.274439" lon="151.290064">
  <ele>343.1</ele>
  <time>2026-09-01T19:50:07Z</time>
  <course>270.0</course>
  <speed>0.0</speed>
  <fix>3d</fix>
</trkpt>
<trkpt lat="-27.274439" lon="151.290064">
  <ele>342.94</ele>
  <time>2026-09-01T19:50:07Z</time>
  <course>10.72</course>
  <speed>0.0</speed>
  <fix>3d</fix>
</trkpt>
<trkpt lat="-27.274439" lon="151.290064">
  <ele>343.1</ele>
  <time>2026-09-01T19:50:07Z</time>
  <course>270.0</course>
  <speed>0.0</speed>
  <fix>3d</fix>
</trkpt>
<trkpt lat="-27.274439" lon="151.290064">
  <ele>343.11</ele>
  <time>2026-09-01T19:50:07Z</time>
  <course>10.73</course>
  <speed>0.0</speed>
  <fix>3d</fix>
</trkpt>
<trkpt lat="-27.274439" lon="151.290064">
  <ele>343.1</ele>
  <time>2026-09-01T19:50:07Z</time>
  <course>270.0</course>
  <speed>0.0</speed>
  <fix>3d</fix>
</trkpt>
<trkpt lat="-27.274439" lon="151.290064">
  <ele>343.24</ele>
  <time>2026-09-01T19:50:07Z</time>
  <course>10.73</course>
  <speed>0.0</speed>
  <fix>3d</fix>
</trkpt>
<trkpt lat="-27.274439" lon="151.290064">
  <ele>343.1</ele>
  <time>2026-09-01T19:50:07Z</time>
  <course>270.0</course>
  <speed>0.0</speed>
  <fix>3d</fix>
</trkpt>
<trkpt lat="-27.274439" lon="151.290064">
  <ele>343.18</ele>
  <time>2026-09-01T19:50:07Z</time>
  <course>10.74</course>
  <speed>0.0</speed>
  <fix>3d</fix>
</trkpt>
<trkpt lat="-27.274439" lon="151.290064">
  <ele>343.1</ele>
  <time>2026-09-01T19:50:07Z</time>
  <course>270.0</course>
  <speed>0.0</speed>
  <fix>3d</fix>
</trkpt>
<trkpt lat="-27.274439" lon="151.290064">
  <ele>342.89</ele>
  <time>2026-09-01T19:50:07Z</time>
  <course>10.75</course>
  <speed>0.0</speed>
  <fix>3d</fix>
</trkpt>
<trkpt lat="-27.274439" lon="151.290064">
  <ele>343.1</ele>
  <time>2026-09-01T19:50:07Z</time>
  <course>270.0</course>
  <speed>0.0</speed>
  <fix>3d</fix>
</trkpt>
<trkpt lat="-27.274439" lon="151.290064">
  <ele>343.23</ele>
  <time>2026-09-01T19:50:07Z</time>
  <course>10.75</course>
  <speed>0.0</speed>
  <fix>3d</fix>
</trkpt>
<trkpt lat="-27.274439" lon="151.290064">
  <ele>343.1</ele>
  <time>2026-09-01T19:50:07Z</time>
  <course>270.0</course>
  <speed>0.0</speed>
  <fix>3d</fix>
</trkpt>
<trkpt lat="-27.274439" lon="151.290064">
  <ele>343.23</ele>
  <time>2026-09-01T19:50:07Z</time>
  <course>10.76</course>
  <speed>0.0</speed>
  <fix>3d</fix>
</trkpt>
<trkpt lat="-27.274439" lon="151.290064">
  <ele>343.1</ele>
  <time>2026-09-01T19:50:07Z</time>
  <course>270.0</course>
  <speed>0.0</speed>
  <fix>3d</fix>
</trkpt>
<trkpt lat="-27.274439" lon="151.290064">
  <ele>342.99</ele>
  <time>2026-09-01T19:50:07Z</time>
  <course>10.76</course>
  <speed>0.0</speed>
  <fix>3d</fix>
</trkpt>
<trkpt lat="-27.274439" lon="151.290064">
  <ele>343.1</ele>
  <time>2026-09-01T19:50:07Z</time>
  <course>270.0</course>
  <speed>0.0</speed>
  <fix>3d</fix>
</trkpt>
<trkpt lat="-27.274439" lon="151.290064">
  <ele>343.13</ele>
  <time>2026-09-01T19:50:07Z</time>
  <course>10.76</course>
  <speed>0.0</speed>
  <fix>3d</fix>
</trkpt>
<trkpt lat="-27.274439" lon="151.290064">
  <ele>343.1</ele>
  <time>2026-09-01T19:50:07Z</time>
  <course>270.0</course>
  <speed>0.0</speed>
  <fix>3d</fix>
</trkpt>
<trkpt lat="-27.274439" lon="151.290064">
  <ele>343.07</ele>
  <time>2026-09-01T19:50:07Z</time>
  <course>10.77</course>
  <speed>0.0</speed>
  <fix>3d</fix>
</trkpt>
<trkpt lat="-27.274439" lon="151.290064">
  <ele>343.1</ele>
  <time>2026-09-01T19:50:07Z</time>
  <course>270.0</course>
  <speed>0.0</speed>
  <fix>3d</fix>
</trkpt>
<trkpt lat="-27.274439" lon="151.290064">
  <ele>343.19</ele>
  <time>2026-09-01T19:50:07Z</time>
  <course>10.77</course>
  <speed>0.0</speed>
  <fix>3d</fix>
</trkpt>
<trkpt lat="-27.274439" lon="151.290064">
  <ele>343.1</ele>
  <time>2026-09-01T19:50:07Z</time>
  <course>270.0</course>
  <speed>0.0</speed>
  <fix>3d</fix>
</trkpt>
<trkpt lat="-27.274439" lon="151.290064">
  <ele>342.93</ele>
  <time>2026-09-01T19:50:07Z</time>
  <course>10.77</course>
  <speed>0.0</speed>
  <fix>3d</fix>
</trkpt>
<trkpt lat="-27.274439" lon="151.290064">
  <ele>343.1</ele>
  <time>2026-09-01T19:50:07Z</time>
  <course>270.0</course>
  <speed>0.0</speed>
  <fix>3d</fix>
</trkpt>
<trkpt lat="-27.274439" lon="151.290064">
  <ele>343.19</ele>
  <time>2026-09-01T19:50:07Z</time>
  <course>10.78</course>
  <speed>0.0</speed>
  <fix>3d</fix>
</trkpt>
<trkpt lat="-27.274439" lon="151.290064">
  <ele>343.1</ele>
  <time>2026-09-01T19:50:07Z</time>
  <course>270.0</course>
  <speed>0.0</speed>
  <fix>3d</fix>
</trkpt>
<trkpt lat="-27.274439" lon="151.290064">
  <ele>343.1</ele>
  <time>2026-09-01T19:50:07Z</time>
  <course>10.78</course>
  <speed>0.0</speed>
  <fix>3d</fix>
</trkpt>
<trkpt lat="-27.274439" lon="151.290064">
  <ele>343.1</ele>
  <time>2026-09-01T19:50:07Z</time>
  <course>270.0</course>
  <speed>0.0</speed>
  <fix>3d</fix>
</trkpt>
<trkpt lat="-27.274439" lon="151.290064">
  <ele>343.01</ele>
  <time>2026-09-01T19:50:07Z</time>
  <course>10.78</course>
  <speed>0.0</speed>
  <fix>3d</fix>
</trkpt>
<trkpt lat="-27.274439" lon="151.290064">
  <ele>343.1</ele>
  <time>2026-09-01T19:50:07Z</time>
  <course>270.0</course>
  <speed>0.0</speed>
  <fix>3d</fix>
</trkpt>
<trkpt lat="-27.274439" lon="151.290064">
  <ele>343.11</ele>
  <time>2026-09-01T19:50:07Z</time>
  <course>10.78</course>
  <speed>0.0</speed>
  <fix>3d</fix>
</trkpt>
<trkpt lat="-27.274439" lon="151.290064">
  <ele>343.1</ele>
  <time>2026-09-01T19:50:07Z</time>
  <course>270.0</course>
  <speed>0.0</speed>
  <fix>3d</fix>
</trkpt>
<trkpt lat="-27.274439" lon="151.290064">
  <ele>342.96</ele>
  <time>2026-09-01T19:50:07Z</time>
  <course>10.78</course>
  <speed>0.0</speed>
  <fix>3d</fix>
</trkpt>
<trkpt lat="-27.274439" lon="151.290064">
  <ele>343.1</ele>
  <time>2026-09-01T19:50:07Z</time>
  <course>270.0</course>
  <speed>0.0</speed>
  <fix>3d</fix>
</trkpt>
<trkpt lat="-27.274439" lon="151.290064">
  <ele>343.19</ele>
  <time>2026-09-01T19:50:07Z</time>
  <course>10.79</course>
  <speed>0.0</speed>
  <fix>3d</fix>
</trkpt>
<trkpt lat="-27.274439" lon="151.290064">
  <ele>343.1</ele>
  <time>2026-09-01T19:50:07Z</time>
  <course>270.0</course>
  <speed>0.0</speed>
  <fix>3d</fix>
</trkpt>
<trkpt lat="-27.274439" lon="151.290064">
  <ele>343.0</ele>
  <time>2026-09-01T19:50:07Z</time>
  <course>10.79</course>
  <speed>0.0</speed>
  <fix>3d</fix>
</trkpt>
<trkpt lat="-27.274439" lon="151.290064">
  <ele>343.1</ele>
  <time>2026-09-01T19:50:07Z</time>
  <course>270.0</course>
  <speed>0.0</speed>
  <fix>3d</fix>
</trkpt>
<trkpt lat="-27.274439" lon="151.290064">
  <ele>343.2</ele>
  <time>2026-09-01T19:50:07Z</time>
  <course>10.79</course>
  <speed>0.0</speed>
  <fix>3d</fix>
</trkpt>
<trkpt lat="-27.274439" lon="151.290064">
  <ele>343.1</ele>
  <time>2026-09-01T19:50:07Z</time>
  <course>270.0</course>
  <speed>0.0</speed>
  <fix>3d</fix>
</trkpt>
<trkpt lat="-27.274439" lon="151.290064">
  <ele>343.2</ele>
  <time>2026-09-01T19:50:07Z</time>
  <course>10.79</course>
  <speed>0.0</speed>
  <fix>3d</fix>
</trkpt>
<trkpt lat="-27.274439" lon="151.290064">
  <ele>343.1</ele>
  <time>2026-09-01T19:50:07Z</time>
  <course>270.0</course>
  <speed>0.0</speed>
  <fix>3d</fix>
</trkpt>
<trkpt lat="-27.274439" lon="151.290064">
  <ele>343.13</ele>
  <time>2026-09-01T19:50:07Z</time>
  <course>10.79</course>
  <speed>0.0</speed>
  <fix>3d</fix>
</trkpt>
<trkpt lat="-27.274439" lon="151.290064">
  <ele>343.1</ele>
  <time>2026-09-01T19:50:07Z</time>
  <course>270.0</course>
  <speed>0.0</speed>
  <fix>3d</fix>
</trkpt>
<trkpt lat="-27.274439" lon="151.290064">
  <ele>343.1</ele>
  <time>2026-09-01T19:50:07Z</time>
  <course>10.79</course>
  <speed>0.0</speed>
  <fix>3d</fix>
</trkpt>
<trkpt lat="-27.274439" lon="151.290064">
  <ele>343.1</ele>
  <time>2026-09-01T19:50:07Z</time>
  <course>270.0</course>
  <speed>0.0</speed>
  <fix>3d</fix>
</trkpt>
<trkpt lat="-27.274439" lon="151.290064">
  <ele>343.12</ele>
  <time>2026-09-01T19:50:07Z</time>
  <course>10.79</course>
  <speed>0.0</speed>
  <fix>3d</fix>
</trkpt>
<trkpt lat="-27.274439" lon="151.290064">
  <ele>343.1</ele>
  <time>2026-09-01T19:50:07Z</time>
  <course>270.0</course>
  <speed>0.0</speed>
  <fix>3d</fix>
</trkpt>
<trkpt lat="-27.274439" lon="151.290064">
  <ele>342.94</ele>
  <time>2026-09-01T19:50:07Z</time>
  <course>10.79</course>
  <speed>0.0</speed>
  <fix>3d</fix>
</trkpt>
<trkpt lat="-27.274439" lon="151.290064">
  <ele>343.1</ele>
  <time>2026-09-01T19:50:07Z</time>
  <course>270.0</course>
  <speed>0.0</speed>
  <fix>3d</fix>
</trkpt>
<trkpt lat="-27.274439" lon="151.290064">
  <ele>343.25</ele>
  <time>2026-09-01T19:50:07Z</time>
  <course>10.79</course>
  <speed>0.0</speed>
  <fix>3d</fix>
</trkpt>
<trkpt lat="-27.274439" lon="151.290064">
  <ele>343.1</ele>
  <time>2026-09-01T19:50:07Z</time>
  <course>270.0</course>
  <speed>0.0</speed>
  <fix>3d</fix>
</trkpt>
<trkpt lat="-27.274439" lon="151.290064">
  <ele>342.93</ele>
  <time>2026-09-01T19:50:07Z</time>
  <course>10.79</course>
  <speed>0.0</speed>
  <fix>3d</fix>
</trkpt>
<trkpt lat="-27.274439" lon="151.290064">
  <ele>343.1</ele>
  <time>2026-09-01T19:50:07Z</time>
  <course>270.0</course>
  <speed>0.0</speed>
  <fix>3d</fix>
</trkpt>
<trkpt lat="-27.274439" lon="151.290064">
  <ele>343.08</ele>
  <time>2026-09-01T19:50:07Z</time>
  <course>10.79</course>
  <speed>0.0</speed>
  <fix>3d</fix>
</trkpt>
<trkpt lat="-27.274439" lon="151.290064">
  <ele>343.1</ele>
  <time>2026-09-01T19:50:07Z</time>
  <course>270.0</course>
  <speed>0.0</speed>
  <fix>3d</fix>
</trkpt>
<trkpt lat="-27.274439" lon="151.290064">
  <ele>343.23</ele>
  <time>2026-09-01T19:50:07Z</time>
  <course>10.8</course>
  <speed>0.0</speed>
  <fix>3d</fix>
</trkpt>
<trkpt lat="-27.274439" lon="151.290064">
  <ele>343.1</ele>
  <time>2026-09-01T19:50:07Z</time>
  <course>270.0</course>
  <speed>0.0</speed>
  <fix>3d</fix>
</trkpt>
<trkpt lat="-27.274439" lon="151.290064">
  <ele>343.01</ele>
  <time>2026-09-01T19:50:07Z</time>
  <course>10.8</course>
  <speed>0.0</speed>
  <fix>3d</fix>
</trkpt>
<trkpt lat="-27.274439" lon="151.290064">
  <ele>343.1</ele>
  <time>2026-09-01T19:50:07Z</time>
  <course>270.0</course>
  <speed>0.0</speed>
  <fix>3d</fix>
</trkpt>
<trkpt lat="-27.274439" lon="151.290064">
  <ele>343.1</ele>
  <time>2026-09-01T19:50:07Z</time>
  <course>10.8</course>
  <speed>0.0</speed>
  <fix>3d</fix>
</trkpt>
<trkpt lat="-27.274439" lon="151.290064">
  <ele>343.1</ele>
  <time>2026-09-01T19:50:07Z</time>
  <course>270.0</course>
  <speed>0.0</speed>
  <fix>3d</fix>
</trkpt>
<trkpt lat="-27.274439" lon="151.290064">
  <ele>342.99</ele>
  <time>2026-09-01T19:50:07Z</time>
  <course>10.8</course>
  <speed>0.0</speed>
  <fix>3d</fix>
</trkpt>
<trkpt lat="-27.274439" lon="151.290064">
  <ele>343.1</ele>
  <time>2026-09-01T19:50:07Z</time>
  <course>270.0</course>
  <speed>0.0</speed>
  <fix>3d</fix>
</trkpt>
<trkpt lat="-27.274439" lon="151.290064">
  <ele>342.87</ele>
  <time>2026-09-01T19:50:07Z</time>
  <course>10.8</course>
  <speed>0.0</speed>
  <fix>3d</fix>
</trkpt>
<trkpt lat="-27.274439" lon="151.290064">
  <ele>343.1</ele>
  <time>2026-09-01T19:50:07Z</time>
  <course>270.0</course>
  <speed>0.0</speed>
  <fix>3d</fix>
</trkpt>
<trkpt lat="-27.274439" lon="151.290064">
  <ele>343.1</ele>
  <time>2026-09-01T19:50:07Z</time>
  <course>10.8</course>
  <speed>0.0</speed>
  <fix>3d</fix>
</trkpt>
<trkpt lat="-27.274439" lon="151.290064">
  <ele>343.1</ele>
  <time>2026-09-01T19:50:07Z</time>
  <course>270.0</course>
  <speed>0.0</speed>
  <fix>3d</fix>
</trkpt>
<trkpt lat="-27.274439" lon="151.290064">
  <ele>342.99</ele>
  <time>2026-09-01T19:50:07Z</time>
  <course>10.8</course>
  <speed>0.0</speed>
  <fix>3d</fix>
</trkpt>
<trkpt lat="-27.274439" lon="151.290064">
  <ele>343.1</ele>
  <time>2026-09-01T19:50:07Z</time>
  <course>270.0</course>
  <speed>0.0</speed>
  <fix>3d</fix>
</trkpt>
<trkpt lat="-27.274439" lon="151.290064">
  <ele>342.91</ele>
  <time>2026-09-01T19:50:07Z</time>
  <course>10.8</course>
  <speed>0.0</speed>
  <fix>3d</fix>
</trkpt>
<trkpt lat="-27.274439" lon="151.290064">
  <ele>343.1</ele>
  <time>2026-09-01T19:50:07Z</time>
  <course>270.0</course>
  <speed>0.0</speed>
  <fix>3d</fix>
</trkpt>
<trkpt lat="-27.274439" lon="151.290064">
  <ele>342.9</ele>
  <time>2026-09-01T19:50:07Z</time>
  <course>10.8</course>
  <speed>0.0</speed>
  <fix>3d</fix>
</trkpt>
<trkpt lat="-27.274439" lon="151.290064">
  <ele>343.1</ele>
  <time>2026-09-01T19:50:07Z</time>
  <course>270.0</course>
  <speed>0.0</speed>
  <fix>3d</fix>
</trkpt>
<trkpt lat="-27.274439" lon="151.290064">
  <ele>342.87</ele>
  <time>2026-09-01T19:50:07Z</time>
  <course>10.8</course>
  <speed>0.0</speed>
  <fix>3d</fix>
</trkpt>
<trkpt lat="-27.274439" lon="151.290064">
  <ele>343.1</ele>
  <time>2026-09-01T19:50:07Z</time>
  <course>270.0</course>
  <speed>0.0</speed>
  <fix>3d</fix>
</trkpt>
<trkpt lat="-27.274439" lon="151.290064">
  <ele>343.12</ele>
  <time>2026-09-01T19:50:07Z</time>
  <course>10.8</course>
  <speed>0.0</speed>
  <fix>3d</fix>
</trkpt>
<trkpt lat="-27.274439" lon="151.290064">
  <ele>343.1</ele>
  <time>2026-09-01T19:50:07Z</time>
  <course>270.0</course>
  <speed>0.0</speed>
  <fix>3d</fix>
</trkpt>
<trkpt lat="-27.274439" lon="151.290064">
  <ele>342.99</ele>
  <time>2026-09-01T19:50:07Z</time>
  <course>10.8</course>
  <speed>0.0</speed>
  <fix>3d</fix>
</trkpt>
<trkpt lat="-27.274439" lon="151.290064">
  <ele>343.1</ele>
  <time>2026-09-01T19:50:07Z</time>
  <course>270.0</course>
  <speed>0.0</speed>
  <fix>3d</fix>
</trkpt>
<trkpt lat="-27.274439" lon="151.290064">
  <ele>343.13</ele>
  <time>2026-09-01T19:50:07Z</time>
  <course>10.8</course>
  <speed>0.0</speed>
  <fix>3d</fix>
</trkpt>
<trkpt lat="-27.274439" lon="151.290064">
  <ele>343.1</ele>
  <time>2026-09-01T19:50:07Z</time>
  <course>270.0</course>
  <speed>0.0</speed>
  <fix>3d</fix>
</trkpt>
<trkpt lat="-27.274439" lon="151.290064">
  <ele>343.0</ele>
  <time>2026-09-01T19:50:07Z</time>
  <course>10.8</course>
  <speed>0.0</speed>
  <fix>3d</fix>
</trkpt>
<trkpt lat="-27.274439" lon="151.290064">
  <ele>343.1</ele>
  <time>2026-09-01T19:50:07Z</time>
  <course>270.0</course>
  <speed>0.0</speed>
  <fix>3d</fix>
</trkpt>
<trkpt lat="-27.274439" lon="151.290064">
  <ele>343.17</ele>
  <time>2026-09-01T19:50:07Z</time>
  <course>10.8</course>
  <speed>0.0</speed>
  <fix>3d</fix>
</trkpt>
<trkpt lat="-27.274439" lon="151.290064">
  <ele>343.1</ele>
  <time>2026-09-01T19:50:07Z</time>
  <course>270.0</course>
  <speed>0.0</speed>
  <fix>3d</fix>
</trkpt>
<trkpt lat="-27.274439" lon="151.290064">
  <ele>343.0</ele>
  <time>2026-09-01T19:50:07Z</time>
  <course>10.8</course>
  <speed>0.0</speed>
  <fix>3d</fix>
</trkpt>
<trkpt lat="-27.274439" lon="151.290064">
  <ele>343.1</ele>
  <time>2026-09-01T19:50:07Z</time>
  <course>270.0</course>
  <speed>0.0</speed>
  <fix>3d</fix>
</trkpt>
<trkpt lat="-27.274439" lon="151.290064">
  <ele>342.99</ele>
  <time>2026-09-01T19:50:07Z</time>
  <course>10.8</course>
  <speed>0.0</speed>
  <fix>3d</fix>
</trkpt>
<trkpt lat="-27.274439" lon="151.290064">
  <ele>343.1</ele>
  <time>2026-09-01T19:50:07Z</time>
  <course>270.0</course>
  <speed>0.0</speed>
  <fix>3d</fix>
</trkpt>
<trkpt lat="-27.274439" lon="151.290064">
  <ele>343.17</ele>
  <time>2026-09-01T19:50:07Z</time>
  <course>10.8</course>
  <speed>0.0</speed>
  <fix>3d</fix>
</trkpt>
<trkpt lat="-27.274439" lon="151.290064">
  <ele>343.1</ele>
  <time>2026-09-01T19:50:07Z</time>
  <course>270.0</course>
  <speed>0.0</speed>
  <fix>3d</fix>
</trkpt>
<trkpt lat="-27.274439" lon="151.290064">
  <ele>343.16</ele>
  <time>2026-09-01T19:50:07Z</time>
  <course>10.8</course>
  <speed>0.0</speed>
  <fix>3d</fix>
</trkpt>
<trkpt lat="-27.274439" lon="151.290064">
  <ele>343.1</ele>
  <time>2026-09-01T19:50:07Z</time>
  <course>270.0</course>
  <speed>0.0</speed>
  <fix>3d</fix>
</trkpt>
<trkpt lat="-27.274439" lon="151.290064">
  <ele>342.87</ele>
  <time>2026-09-01T19:50:07Z</time>
  <course>10.8</course>
  <speed>0.0</speed>
  <fix>3d</fix>
</trkpt>
<trkpt lat="-27.274439" lon="151.290064">
  <ele>343.1</ele>
  <time>2026-09-01T19:50:07Z</time>
  <course>270.0</course>
  <speed>0.0</speed>
  <fix>3d</fix>
</trkpt>
<trkpt lat="-27.274439" lon="151.290064">
  <ele>343.19</ele>
  <time>2026-09-01T19:50:07Z</time>
  <course>10.8</course>
  <speed>0.0</speed>
  <fix>3d</fix>
</trkpt>
<trkpt lat="-27.274439" lon="151.290064">
  <ele>343.1</ele>
  <time>2026-09-01T19:50:07Z</time>
  <course>270.0</course>
  <speed>0.0</speed>
  <fix>3d</fix>
</trkpt>
<trkpt lat="-27.274439" lon="151.290064">
  <ele>343.16</ele>
  <time>2026-09-01T19:50:07Z</time>
  <course>10.8</course>
  <speed>0.0</speed>
  <fix>3d</fix>
</trkpt>
<trkpt lat="-27.274439" lon="151.290064">
  <ele>343.1</ele>
  <time>2026-09-01T19:50:07Z</time>
  <course>270.0</course>
  <speed>0.0</speed>
  <fix>3d</fix>
</trkpt>
<trkpt lat="-27.274439" lon="151.290064">
  <ele>343.21</ele>
  <time>2026-09-01T19:50:07Z</time>
  <course>10.8</course>
  <speed>0.0</speed>
  <fix>3d</fix>
</trkpt>
<trkpt lat="-27.274439" lon="151.290064">
  <ele>343.1</ele>
  <time>2026-09-01T19:50:07Z</time>
  <course>270.0</course>
  <speed>0.0</speed>
  <fix>3d</fix>
</trkpt>
<trkpt lat="-27.274439" lon="151.290064">
  <ele>343.22</ele>
  <time>2026-09-01T19:50:07Z</time>
  <course>10.8</course>
  <speed>0.0</speed>
  <fix>3d</fix>
</trkpt>
<trkpt lat="-27.274439" lon="151.290064">
  <ele>343.1</ele>
  <time>2026-09-01T19:50:07Z</time>
  <course>270.0</course>
  <speed>0.0</speed>
  <fix>3d</fix>
</trkpt>
<trkpt lat="-27.274439" lon="151.290064">
  <ele>343.24</ele>
  <time>2026-09-01T19:50:07Z</time>
  <course>10.8</course>
  <speed>0.0</speed>
  <fix>3d</fix>
</trkpt>
<trkpt lat="-27.274439" lon="151.290064">
  <ele>343.1</ele>
  <time>2026-09-01T19:50:07Z</time>
  <course>270.0</course>
  <speed>0.0</speed>
  <fix>3d</fix>
</trkpt>
<trkpt lat="-27.274439" lon="151.290064">
  <ele>343.0</ele>
  <time>2026-09-01T19:50:07Z</time>
  <course>10.8</course>
  <speed>0.0</speed>
  <fix>3d</fix>
</trkpt>
<trkpt lat="-27.274439" lon="151.290064">
  <ele>343.1</ele>
  <time>2026-09-01T19:50:07Z</time>
  <course>270.0</course>
  <speed>0.0</speed>
  <fix>3d</fix>
</trkpt>
<trkpt lat="-27.274439" lon="151.290064">
  <ele>343.1</ele>
  <time>2026-09-01T19:50:07Z</time>
  <course>10.8</course>
  <speed>0.0</speed>
  <fix>3d</fix>
</trkpt>
<trkpt lat="-27.274439" lon="151.290064">
  <ele>343.1</ele>
  <time>2026-09-01T19:50:07Z</time>
  <course>270.0</course>
  <speed>0.0</speed>
  <fix>3d</fix>
</trkpt>
<trkpt lat="-27.274439" lon="151.290064">
  <ele>343.05</ele>
  <time>2026-09-01T19:50:07Z</time>
  <course>10.8</course>
  <speed>0.0</speed>
  <fix>3d</fix>
</trkpt>
<trkpt lat="-27.274439" lon="151.290064">
  <ele>343.1</ele>
  <time>2026-09-01T19:50:07Z</time>
  <course>270.0</course>
  <speed>0.0</speed>
  <fix>3d</fix>
</trkpt>
<trkpt lat="-27.274439" lon="151.290064">
  <ele>342.87</ele>
  <time>2026-09-01T19:50:07Z</time>
  <course>10.8</course>
  <speed>0.0</speed>
  <fix>3d</fix>
</trkpt>
<trkpt lat="-27.274439" lon="151.290064">
  <ele>343.1</ele>
  <time>2026-09-01T19:50:07Z</time>
  <course>270.0</course>
  <speed>0.0</speed>
  <fix>3d</fix>
</trkpt>
<trkpt lat="-27.274439" lon="151.290064">
  <ele>342.92</ele>
  <time>2026-09-01T19:50:07Z</time>
  <course>10.8</course>
  <speed>0.0</speed>
  <fix>3d</fix>
</trkpt>
<trkpt lat="-27.274439" lon="151.290064">
  <ele>343.1</ele>
  <time>2026-09-01T19:50:07Z</time>
  <course>270.0</course>
  <speed>0.0</speed>
  <fix>3d</fix>
</trkpt>
<trkpt lat="-27.274439" lon="151.290064">
  <ele>342.96</ele>
  <time>2026-09-01T19:50:07Z</time>
  <course>10.8</course>
  <speed>0.0</speed>
  <fix>3d</fix>
</trkpt>
<trkpt lat="-27.274439" lon="151.290064">
  <ele>343.1</ele>
  <time>2026-09-01T19:50:07Z</time>
  <course>270.0</course>
  <speed>0.0</speed>
  <fix>3d</fix>
</trkpt>
<trkpt lat="-27.274439" lon="151.290064">
  <ele>343.13</ele>
  <time>2026-09-01T19:50:07Z</time>
  <course>10.82</course>
  <speed>0.0</speed>
  <fix>3d</fix>
</trkpt>
<trkpt lat="-27.274439" lon="151.290064">
  <ele>343.1</ele>
  <time>2026-09-01T19:50:07Z</time>
  <course>270.0</course>
  <speed>0.0</speed>
  <fix>3d</fix>
</trkpt>
<trkpt lat="-27.274439" lon="151.290064">
  <ele>343.1</ele>
  <time>2026-09-01T19:50:07Z</time>
  <course>10.71</course>
  <speed>0.0</speed>
  <fix>3d</fix>
</trkpt>
<trkpt lat="-27.274439" lon="151.290064">
  <ele>343.1</ele>
  <time>2026-09-01T19:50:07Z</time>
  <course>270.0</course>
  <speed>0.0</speed>
  <fix>3d</fix>
</trkpt>
<trkpt lat="-27.274439" lon="151.290064">
  <ele>343.1</ele>
  <time>2026-09-01T19:50:07Z</time>
  <course>10.71</course>
  <speed>0.0</speed>
  <fix>3d</fix>
</trkpt>
<trkpt lat="-27.274439" lon="151.290064">
  <ele>343.1</ele>
  <time>2026-09-01T19:50:07Z</time>
  <course>270.0</course>
  <speed>0.0</speed>
  <fix>3d</fix>
</trkpt>
<trkpt lat="-27.274439" lon="151.290064">
  <ele>343.1</ele>
  <time>2026-09-01T19:50:07Z</time>
  <course>10.71</course>
  <speed>0.0</speed>
  <fix>3d</fix>
</trkpt>
<trkpt lat="-27.274439" lon="151.290064">
  <ele>343.1</ele>
  <time>2026-09-01T19:50:07Z</time>
  <course>270.0</course>
  <speed>0.0</speed>
  <fix>3d</fix>
</trkpt>
<trkpt lat="-27.274439" lon="151.290064">
  <ele>343.11</ele>
  <time>2026-09-01T19:50:07Z</time>
  <course>10.71</course>
  <speed>0.0</speed>
  <fix>3d</fix>
</trkpt>
<trkpt lat="-27.274439" lon="151.290064">
  <ele>343.1</ele>
  <time>2026-09-01T19:50:07Z</time>
  <course>270.0</course>
  <speed>0.0</speed>
  <fix>3d</fix>
</trkpt>
<trkpt lat="-27.274439" lon="151.290064">
  <ele>343.11</ele>
  <time>2026-09-01T19:50:07Z</time>
  <course>10.71</course>
  <speed>0.0</speed>
  <fix>3d</fix>
</trkpt>
<trkpt lat="-27.274439" lon="151.290064">
  <ele>343.1</ele>
  <time>2026-09-01T19:50:07Z</time>
  <course>270.0</course>
  <speed>0.0</speed>
  <fix>3d</fix>
</trkpt>
<trkpt lat="-27.274439" lon="151.290064">
  <ele>343.11</ele>
  <time>2026-09-01T19:50:07Z</time>
  <course>10.71</course>
  <speed>0.0</speed>
  <fix>3d</fix>
</trkpt>
<trkpt lat="-27.274439" lon="151.290064">
  <ele>343.1</ele>
  <time>2026-09-01T19:50:07Z</time>
  <course>270.0</course>
  <speed>0.0</speed>
  <fix>3d</fix>
</trkpt>
<trkpt lat="-27.274439" lon="151.290064">
  <ele>343.12</ele>
  <time>2026-09-01T19:50:07Z</time>
  <course>10.71</course>
  <speed>0.0</speed>
  <fix>3d</fix>
</trkpt>
<trkpt lat="-27.274439" lon="151.290064">
  <ele>343.1</ele>
  <time>2026-09-01T19:50:07Z</time>
  <course>270.0</course>
  <speed>0.0</speed>
  <fix>3d</fix>
</trkpt>
<trkpt lat="-27.274439" lon="151.290064">
  <ele>343.12</ele>
  <time>2026-09-01T19:50:07Z</time>
  <course>10.71</course>
  <speed>0.0</speed>
  <fix>3d</fix>
</trkpt>
<trkpt lat="-27.274439" lon="151.290064">
  <ele>343.1</ele>
  <time>2026-09-01T19:50:07Z</time>
  <course>270.0</course>
  <speed>0.0</speed>
  <fix>3d</fix>
</trkpt>
<trkpt lat="-27.274439" lon="151.290064">
  <ele>343.1</ele>
  <time>2026-09-01T19:50:07Z</time>
  <course>10.71</course>
  <speed>0.0</speed>
  <fix>3d</fix>
</trkpt>
<trkpt lat="-27.274439" lon="151.290064">
  <ele>343.1</ele>
  <time>2026-09-01T19:50:07Z</time>
  <course>270.0</course>
  <speed>0.0</speed>
  <fix>3d</fix>
</trkpt>
<trkpt lat="-27.274439" lon="151.290064">
  <ele>343.1</ele>
  <time>2026-09-01T19:50:07Z</time>
  <course>10.71</course>
  <speed>0.0</speed>
  <fix>3d</fix>
</trkpt>
<trkpt lat="-27.274439" lon="151.290064">
  <ele>343.1</ele>
  <time>2026-09-01T19:50:07Z</time>
  <course>270.0</course>
  <speed>0.0</speed>
  <fix>3d</fix>
</trkpt>
<trkpt lat="-27.274439" lon="151.290064">
  <ele>343.1</ele>
  <time>2026-09-01T19:50:07Z</time>
  <course>10.71</course>
  <speed>0.0</speed>
  <fix>3d</fix>
</trkpt>
<trkpt lat="-27.274439" lon="151.290064">
  <ele>343.1</ele>
  <time>2026-09-01T19:50:07Z</time>
  <course>270.0</course>
  <speed>0.0</speed>
  <fix>3d</fix>
</trkpt>
<trkpt lat="-27.274439" lon="151.290064">
  <ele>343.09</ele>
  <time>2026-09-01T19:50:07Z</time>
  <course>10.71</course>
  <speed>0.0</speed>
  <fix>3d</fix>
</trkpt>
<trkpt lat="-27.274439" lon="151.290064">
  <ele>343.1</ele>
  <time>2026-09-01T19:50:07Z</time>
  <course>270.0</course>
  <speed>0.0</speed>
  <fix>3d</fix>
</trkpt>
<trkpt lat="-27.274439" lon="151.290064">
  <ele>343.09</ele>
  <time>2026-09-01T19:50:07Z</time>
  <course>10.71</course>
  <speed>0.0</speed>
  <fix>3d</fix>
</trkpt>
<trkpt lat="-27.274439" lon="151.290064">
  <ele>343.1</ele>
  <time>2026-09-01T19:50:07Z</time>
  <course>270.0</course>
  <speed>0.0</speed>
  <fix>3d</fix>
</trkpt>
<trkpt lat="-27.274439" lon="151.290064">
  <ele>343.09</ele>
  <time>2026-09-01T19:50:07Z</time>
  <course>10.71</course>
  <speed>0.0</speed>
  <fix>3d</fix>
</trkpt>
<trkpt lat="-27.274439" lon="151.290064">
  <ele>343.1</ele>
  <time>2026-09-01T19:50:07Z</time>
  <course>270.0</course>
  <speed>0.0</speed>
  <fix>3d</fix>
</trkpt>
<trkpt lat="-27.274439" lon="151.290064">
  <ele>343.1</ele>
  <time>2026-09-01T19:50:07Z</time>
  <course>10.71</course>
  <speed>0.0</speed>
  <fix>3d</fix>
</trkpt>
<trkpt lat="-27.274439" lon="151.290064">
  <ele>343.1</ele>
  <time>2026-09-01T19:50:07Z</time>
  <course>270.0</course>
  <speed>0.0</speed>
  <fix>3d</fix>
</trkpt>
<trkpt lat="-27.274439" lon="151.290064">
  <ele>343.1</ele>
  <time>2026-09-01T19:50:07Z</time>
  <course>10.71</course>
  <speed>0.0</speed>
  <fix>3d</fix>
</trkpt>
<trkpt lat="-27.274439" lon="151.290064">
  <ele>343.1</ele>
  <time>2026-09-01T19:50:07Z</time>
  <course>270.0</course>
  <speed>0.0</speed>
  <fix>3d</fix>
</trkpt>
<trkpt lat="-27.274439" lon="151.290064">
  <ele>343.09</ele>
  <time>2026-09-01T19:50:07Z</time>
  <course>10.71</course>
  <speed>0.0</speed>
  <fix>3d</fix>
</trkpt>
<trkpt lat="-27.274439" lon="151.290064">
  <ele>343.1</ele>
  <time>2026-09-01T19:50:07Z</time>
  <course>270.0</course>
  <speed>0.0</speed>
  <fix>3d</fix>
</trkpt>
<trkpt lat="-27.274439" lon="151.290064">
  <ele>343.09</ele>
  <time>2026-09-01T19:50:07Z</time>
  <course>10.71</course>
  <speed>0.0</speed>
  <fix>3d</fix>
</trkpt>
<trkpt lat="-27.274439" lon="151.290064">
  <ele>343.1</ele>
  <time>2026-09-01T19:50:07Z</time>
  <course>270.0</course>
  <speed>0.0</speed>
  <fix>3d</fix>
</trkpt>
<trkpt lat="-27.274439" lon="151.290064">
  <ele>343.09</ele>
  <time>2026-09-01T19:50:07Z</time>
  <course>10.71</course>
  <speed>0.0</speed>
  <fix>3d</fix>
</trkpt>
<trkpt lat="-27.274439" lon="151.290064">
  <ele>343.1</ele>
  <time>2026-09-01T19:50:07Z</time>
  <course>270.0</course>
  <speed>0.0</speed>
  <fix>3d</fix>
</trkpt>
<trkpt lat="-27.274439" lon="151.290064">
  <ele>343.09</ele>
  <time>2026-09-01T19:50:07Z</time>
  <course>10.71</course>
  <speed>0.0</speed>
  <fix>3d</fix>
</trkpt>
<trkpt lat="-27.274439" lon="151.290064">
  <ele>343.1</ele>
  <time>2026-09-01T19:50:07Z</time>
  <course>270.0</course>
  <speed>0.0</speed>
  <fix>3d</fix>
</trkpt>
<trkpt lat="-27.274439" lon="151.290064">
  <ele>343.09</ele>
  <time>2026-09-01T19:50:07Z</time>
  <course>10.71</course>
  <speed>0.0</speed>
  <fix>3d</fix>
</trkpt>
<trkpt lat="-27.274439" lon="151.290064">
  <ele>343.1</ele>
  <time>2026-09-01T19:50:07Z</time>
  <course>270.0</course>
  <speed>0.0</speed>
  <fix>3d</fix>
</trkpt>
<trkpt lat="-27.274439" lon="151.290064">
  <ele>343.09</ele>
  <time>2026-09-01T19:50:07Z</time>
  <course>10.71</course>
  <speed>0.0</speed>
  <fix>3d</fix>
</trkpt>
<trkpt lat="-27.274439" lon="151.290064">
  <ele>343.1</ele>
  <time>2026-09-01T19:50:07Z</time>
  <course>270.0</course>
  <speed>0.0</speed>
  <fix>3d</fix>
</trkpt>
<trkpt lat="-27.274439" lon="151.290064">
  <ele>343.09</ele>
  <time>2026-09-01T19:50:07Z</time>
  <course>10.71</course>
  <speed>0.0</speed>
  <fix>3d</fix>
</trkpt>
<trkpt lat="-27.274439" lon="151.290064">
  <ele>343.1</ele>
  <time>2026-09-01T19:50:07Z</time>
  <course>270.0</course>
  <speed>0.0</speed>
  <fix>3d</fix>
</trkpt>
<trkpt lat="-27.274439" lon="151.290064">
  <ele>343.09</ele>
  <time>2026-09-01T19:50:07Z</time>
  <course>10.71</course>
  <speed>0.0</speed>
  <fix>3d</fix>
</trkpt>
<trkpt lat="-27.274439" lon="151.290064">
  <ele>343.1</ele>
  <time>2026-09-01T19:50:07Z</time>
  <course>270.0</course>
  <speed>0.0</speed>
  <fix>3d</fix>
</trkpt>
<trkpt lat="-27.274439" lon="151.290064">
  <ele>343.1</ele>
  <time>2026-09-01T19:50:07Z</time>
  <course>10.71</course>
  <speed>0.0</speed>
  <fix>3d</fix>
</trkpt>
<trkpt lat="-27.274439" lon="151.290064">
  <ele>343.1</ele>
  <time>2026-09-01T19:50:07Z</time>
  <course>270.0</course>
  <speed>0.0</speed>
  <fix>3d</fix>
</trkpt>
<trkpt lat="-26.9720619" lon="149.6127921">
  <ele>339.29</ele>
  <time>2026-09-01T19:50:08Z</time>
  <course>310.27</course>
  <speed>0.0</speed>
  <fix>3d</fix>
</trkpt>
<trkpt lat="-26.9720619" lon="149.6127921">
  <ele>339.29</ele>
  <time>2026-09-01T19:50:08Z</time>
  <course>310.27</course>
  <speed>0.0</speed>
  <fix>3d</fix>
</trkpt>
<trkpt lat="-27.274439" lon="151.290064">
  <ele>-0.01</ele>
  <time>2026-09-01T19:50:08Z</time>
  <course>0.22</course>
  <speed>0.0</speed>
  <fix>3d</fix>
</trkpt>
<trkpt lat="-27.274439" lon="151.290064">
  <ele>343.1</ele>
  <time>2026-09-01T19:50:08Z</time>
  <course>294.58</course>
  <speed>0.0</speed>
  <fix>3d</fix>
</trkpt>
<trkpt lat="-27.274439" lon="151.290064">
  <ele>0.02</ele>
  <time>2026-09-01T19:50:08Z</time>
  <course>1.2</course>
  <speed>0.0</speed>
  <fix>3d</fix>
</trkpt>
<trkpt lat="-27.274439" lon="151.290064">
  <ele>343.1</ele>
  <time>2026-09-01T19:50:08Z</time>
  <course>294.58</course>
  <speed>0.0</speed>
  <fix>3d</fix>
</trkpt>
<trkpt lat="-27.274439" lon="151.290064">
  <ele>-0.08</ele>
  <time>2026-09-01T19:50:08Z</time>
  <course>2.1</course>
  <speed>0.0</speed>
  <fix>3d</fix>
</trkpt>
<trkpt lat="-27.274439" lon="151.290064">
  <ele>343.1</ele>
  <time>2026-09-01T19:50:08Z</time>
  <course>273.33</course>
  <speed>0.0</speed>
  <fix>3d</fix>
</trkpt>
<trkpt lat="-27.274439" lon="151.290064">
  <ele>0.22</ele>
  <time>2026-09-01T19:50:08Z</time>
  <course>2.92</course>
  <speed>0.0</speed>
  <fix>3d</fix>
</trkpt>
<trkpt lat="-27.274439" lon="151.290064">
  <ele>343.1</ele>
  <time>2026-09-01T19:50:08Z</time>
  <course>273.33</course>
  <speed>0.0</speed>
  <fix>3d</fix>
</trkpt>
<trkpt lat="-27.274439" lon="151.290064">
  <ele>0.09</ele>
  <time>2026-09-01T19:50:08Z</time>
  <course>3.66</course>
  <speed>0.0</speed>
  <fix>3d</fix>
</trkpt>
<trkpt lat="-27.274439" lon="151.290064">
  <ele>343.1</ele>
  <time>2026-09-01T19:50:08Z</time>
  <course>270.44</course>
  <speed>0.0</speed>
  <fix>3d</fix>
</trkpt>
<trkpt lat="-27.274439" lon="151.290064">
  <ele>0.08</ele>
  <time>2026-09-01T19:50:08Z</time>
  <course>4.34</course>
  <speed>0.0</speed>
  <fix>3d</fix>
</trkpt>
<trkpt lat="-27.274439" lon="151.290064">
  <ele>343.1</ele>
  <time>2026-09-01T19:50:08Z</time>
  <course>270.44</course>
  <speed>0.0</speed>
  <fix>3d</fix>
</trkpt>
<trkpt lat="-27.274439" lon="151.290064">
  <ele>0.09</ele>
  <time>2026-09-01T19:50:08Z</time>
  <course>4.95</course>
  <speed>0.0</speed>
  <fix>3d</fix>
</trkpt>
<trkpt lat="-27.274439" lon="151.290064">
  <ele>343.1</ele>
  <time>2026-09-01T19:50:08Z</time>
  <course>270.05</course>
  <speed>0.0</speed>
  <fix>3d</fix>
</trkpt>
<trkpt lat="-27.274439" lon="151.290064">
  <ele>-0.05</ele>
  <time>2026-09-01T19:50:08Z</time>
  <course>5.5</course>
  <speed>0.0</speed>
  <fix>3d</fix>
</trkpt>
<trkpt lat="-27.274439" lon="151.290064">
  <ele>343.1</ele>
  <time>2026-09-01T19:50:08Z</time>
  <course>270.05</course>
  <speed>0.0</speed>
  <fix>3d</fix>
</trkpt>
<trkpt lat="-27.274439" lon="151.290064">
  <ele>343.06</ele>
  <time>2026-09-01T19:50:08Z</time>
  <course>5.98</course>
  <speed>0.0</speed>
  <fix>3d</fix>
</trkpt>
<trkpt lat="-27.274439" lon="151.290064">
  <ele>343.1</ele>
  <time>2026-09-01T19:50:08Z</time>
  <course>270.0</course>
  <speed>0.0</speed>
  <fix>3d</fix>
</trkpt>
<trkpt lat="-27.274439" lon="151.290064">
  <ele>343.18</ele>
  <time>2026-09-01T19:50:08Z</time>
  <course>6.44</course>
  <speed>0.0</speed>
  <fix>3d</fix>
</trkpt>
<trkpt lat="-27.274439" lon="151.290064">
  <ele>343.1</ele>
  <time>2026-09-01T19:50:08Z</time>
  <course>270.0</course>
  <speed>0.0</speed>
  <fix>3d</fix>
</trkpt>
<trkpt lat="-27.274439" lon="151.290064">
  <ele>342.91</ele>
  <time>2026-09-01T19:50:08Z</time>
  <course>6.85</course>
  <speed>0.0</speed>
  <fix>3d</fix>
</trkpt>
<trkpt lat="-27.274439" lon="151.290064">
  <ele>343.1</ele>
  <time>2026-09-01T19:50:08Z</time>
  <course>270.0</course>
  <speed>0.0</speed>
  <fix>3d</fix>
</trkpt>
<trkpt lat="-27.274439" lon="151.290064">
  <ele>343.06</ele>
  <time>2026-09-01T19:50:08Z</time>
  <course>7.22</course>
  <speed>0.0</speed>
  <fix>3d</fix>
</trkpt>
<trkpt lat="-27.274439" lon="151.290064">
  <ele>343.1</ele>
  <time>2026-09-01T19:50:08Z</time>
  <course>270.0</course>
  <speed>0.0</speed>
  <fix>3d</fix>
</trkpt>
<trkpt lat="-27.274439" lon="151.290064">
  <ele>343.13</ele>
  <time>2026-09-01T19:50:08Z</time>
  <course>7.56</course>
  <speed>0.0</speed>
  <fix>3d</fix>
</trkpt>
<trkpt lat="-27.274439" lon="151.290064">
  <ele>343.1</ele>
  <time>2026-09-01T19:50:08Z</time>
  <course>270.0</course>
  <speed>0.0</speed>
  <fix>3d</fix>
</trkpt>
<trkpt lat="-27.274439" lon="151.290064">
  <ele>343.04</ele>
  <time>2026-09-01T19:50:08Z</time>
  <course>7.87</course>
  <speed>0.0</speed>
  <fix>3d</fix>
</trkpt>
<trkpt lat="-27.274439" lon="151.290064">
  <ele>343.1</ele>
  <time>2026-09-01T19:50:08Z</time>
  <course>270.0</course>
  <speed>0.0</speed>
  <fix>3d</fix>
</trkpt>
<trkpt lat="-27.274439" lon="151.290064">
  <ele>342.88</ele>
  <time>2026-09-01T19:50:08Z</time>
  <course>8.14</course>
  <speed>0.0</speed>
  <fix>3d</fix>
</trkpt>
<trkpt lat="-27.274439" lon="151.290064">
  <ele>343.1</ele>
  <time>2026-09-01T19:50:08Z</time>
  <course>270.0</course>
  <speed>0.0</speed>
  <fix>3d</fix>
</trkpt>
<trkpt lat="-27.274439" lon="151.290064">
  <ele>343.02</ele>
  <time>2026-09-01T19:50:08Z</time>
  <course>8.39</course>
  <speed>0.0</speed>
  <fix>3d</fix>
</trkpt>
<trkpt lat="-27.274439" lon="151.290064">
  <ele>343.1</ele>
  <time>2026-09-01T19:50:08Z</time>
  <course>270.0</course>
  <speed>0.0</speed>
  <fix>3d</fix>
</trkpt>
<trkpt lat="-27.274439" lon="151.290064">
  <ele>343.23</ele>
  <time>2026-09-01T19:50:08Z</time>
  <course>8.63</course>
  <speed>0.0</speed>
  <fix>3d</fix>
</trkpt>
<trkpt lat="-27.274439" lon="151.290064">
  <ele>343.1</ele>
  <time>2026-09-01T19:50:08Z</time>
  <course>270.0</course>
  <speed>0.0</speed>
  <fix>3d</fix>
</trkpt>
<trkpt lat="-27.274439" lon="151.290064">
  <ele>343.17</ele>
  <time>2026-09-01T19:50:08Z</time>
  <course>8.83</course>
  <speed>0.0</speed>
  <fix>3d</fix>
</trkpt>
<trkpt lat="-27.274439" lon="151.290064">
  <ele>343.1</ele>
  <time>2026-09-01T19:50:08Z</time>
  <course>270.0</course>
  <speed>0.0</speed>
  <fix>3d</fix>
</trkpt>
<trkpt lat="-27.274439" lon="151.290064">
  <ele>343.04</ele>
  <time>2026-09-01T19:50:08Z</time>
  <course>9.01</course>
  <speed>0.0</speed>
  <fix>3d</fix>
</trkpt>
<trkpt lat="-27.274439" lon="151.290064">
  <ele>343.1</ele>
  <time>2026-09-01T19:50:08Z</time>
  <course>270.0</course>
  <speed>0.0</speed>
  <fix>3d</fix>
</trkpt>
<trkpt lat="-27.274439" lon="151.290064">
  <ele>342.89</ele>
  <time>2026-09-01T19:50:08Z</time>
  <course>9.18</course>
  <speed>0.0</speed>
  <fix>3d</fix>
</trkpt>
<trkpt lat="-27.274439" lon="151.290064">
  <ele>343.1</ele>
  <time>2026-09-01T19:50:08Z</time>
  <course>270.0</course>
  <speed>0.0</speed>
  <fix>3d</fix>
</trkpt>
<trkpt lat="-27.274439" lon="151.290064">
  <ele>343.08</ele>
  <time>2026-09-01T19:50:08Z</time>
  <course>9.33</course>
  <speed>0.0</speed>
  <fix>3d</fix>
</trkpt>
<trkpt lat="-27.274439" lon="151.290064">
  <ele>343.1</ele>
  <time>2026-09-01T19:50:08Z</time>
  <course>270.0</course>
  <speed>0.0</speed>
  <fix>3d</fix>
</trkpt>
<trkpt lat="-27.274439" lon="151.290064">
  <ele>343.19</ele>
  <time>2026-09-01T19:50:08Z</time>
  <course>9.47</course>
  <speed>0.0</speed>
  <fix>3d</fix>
</trkpt>
<trkpt lat="-27.274439" lon="151.290064">
  <ele>343.1</ele>
  <time>2026-09-01T19:50:08Z</time>
  <course>270.0</course>
  <speed>0.0</speed>
  <fix>3d</fix>
</trkpt>
<trkpt lat="-27.274439" lon="151.290064">
  <ele>342.88</ele>
  <time>2026-09-01T19:50:08Z</time>
  <course>9.59</course>
  <speed>0.0</speed>
  <fix>3d</fix>
</trkpt>
<trkpt lat="-27.274439" lon="151.290064">
  <ele>343.1</ele>
  <time>2026-09-01T19:50:08Z</time>
  <course>270.0</course>
  <speed>0.0</speed>
  <fix>3d</fix>
</trkpt>
<trkpt lat="-27.274439" lon="151.290064">
  <ele>343.17</ele>
  <time>2026-09-01T19:50:08Z</time>
  <course>9.7</course>
  <speed>0.0</speed>
  <fix>3d</fix>
</trkpt>
<trkpt lat="-27.274439" lon="151.290064">
  <ele>343.1</ele>
  <time>2026-09-01T19:50:08Z</time>
  <course>270.0</course>
  <speed>0.0</speed>
  <fix>3d</fix>
</trkpt>
<trkpt lat="-27.274439" lon="151.290064">
  <ele>342.89</ele>
  <time>2026-09-01T19:50:08Z</time>
  <course>9.8</course>
  <speed>0.0</speed>
  <fix>3d</fix>
</trkpt>
<trkpt lat="-27.274439" lon="151.290064">
  <ele>343.1</ele>
  <time>2026-09-01T19:50:08Z</time>
  <course>270.0</course>
  <speed>0.0</speed>
  <fix>3d</fix>
</trkpt>
<trkpt lat="-27.274439" lon="151.290064">
  <ele>342.99</ele>
  <time>2026-09-01T19:50:08Z</time>
  <course>9.9</course>
  <speed>0.0</speed>
  <fix>3d</fix>
</trkpt>
<trkpt lat="-27.274439" lon="151.290064">
  <ele>343.1</ele>
  <time>2026-09-01T19:50:08Z</time>
  <course>270.0</course>
  <speed>0.0</speed>
  <fix>3d</fix>
</trkpt>
<trkpt lat="-27.274439" lon="151.290064">
  <ele>342.87</ele>
  <time>2026-09-01T19:50:08Z</time>
  <course>9.98</course>
  <speed>0.0</speed>
  <fix>3d</fix>
</trkpt>
<trkpt lat="-27.274439" lon="151.290064">
  <ele>343.1</ele>
  <time>2026-09-01T19:50:08Z</time>
  <course>270.0</course>
  <speed>0.0</speed>
  <fix>3d</fix>
</trkpt>
<trkpt lat="-27.274439" lon="151.290064">
  <ele>343.09</ele>
  <time>2026-09-01T19:50:08Z</time>
  <course>10.06</course>
  <speed>0.0</speed>
  <fix>3d</fix>
</trkpt>
<trkpt lat="-27.274439" lon="151.290064">
  <ele>343.1</ele>
  <time>2026-09-01T19:50:08Z</time>
  <course>270.0</course>
  <speed>0.0</speed>
  <fix>3d</fix>
</trkpt>
<trkpt lat="-27.274439" lon="151.290064">
  <ele>343.18</ele>
  <time>2026-09-01T19:50:08Z</time>
  <course>10.13</course>
  <speed>0.0</speed>
  <fix>3d</fix>
</trkpt>
<trkpt lat="-27.274439" lon="151.290064">
  <ele>343.1</ele>
  <time>2026-09-01T19:50:08Z</time>
  <course>270.0</course>
  <speed>0.0</speed>
  <fix>3d</fix>
</trkpt>
<trkpt lat="-27.274439" lon="151.290064">
  <ele>343.05</ele>
  <time>2026-09-01T19:50:08Z</time>
  <course>10.2</course>
  <speed>0.0</speed>
  <fix>3d</fix>
</trkpt>
<trkpt lat="-27.274439" lon="151.290064">
  <ele>343.1</ele>
  <time>2026-09-01T19:50:08Z</time>
  <course>270.0</course>
  <speed>0.0</speed>
  <fix>3d</fix>
</trkpt>
<trkpt lat="-27.274439" lon="151.290064">
  <ele>342.96</ele>
  <time>2026-09-01T19:50:08Z</time>
  <course>10.25</course>
  <speed>0.0</speed>
  <fix>3d</fix>
</trkpt>
<trkpt lat="-27.274439" lon="151.290064">
  <ele>343.1</ele>
  <time>2026-09-01T19:50:08Z</time>
  <course>270.0</course>
  <speed>0.0</speed>
  <fix>3d</fix>
</trkpt>
<trkpt lat="-27.274439" lon="151.290064">
  <ele>343.1</ele>
  <time>2026-09-01T19:50:08Z</time>
  <course>10.31</course>
  <speed>0.0</speed>
  <fix>3d</fix>
</trkpt>
<trkpt lat="-27.274439" lon="151.290064">
  <ele>343.1</ele>
  <time>2026-09-01T19:50:08Z</time>
  <course>270.0</course>
  <speed>0.0</speed>
  <fix>3d</fix>
</trkpt>
<trkpt lat="-27.274439" lon="151.290064">
  <ele>343.22</ele>
  <time>2026-09-01T19:50:08Z</time>
  <course>10.35</course>
  <speed>0.0</speed>
  <fix>3d</fix>
</trkpt>
<trkpt lat="-27.274439" lon="151.290064">
  <ele>343.1</ele>
  <time>2026-09-01T19:50:08Z</time>
  <course>270.0</course>
  <speed>0.0</speed>
  <fix>3d</fix>
</trkpt>
<trkpt lat="-27.274439" lon="151.290064">
  <ele>343.17</ele>
  <time>2026-09-01T19:50:08Z</time>
  <course>10.4</course>
  <speed>0.0</speed>
  <fix>3d</fix>
</trkpt>
<trkpt lat="-27.274439" lon="151.290064">
  <ele>343.1</ele>
  <time>2026-09-01T19:50:08Z</time>
  <course>270.0</course>
  <speed>0.0</speed>
  <fix>3d</fix>
</trkpt>
<trkpt lat="-27.274439" lon="151.290064">
  <ele>343.08</ele>
  <time>2026-09-01T19:50:08Z</time>
  <course>10.44</course>
  <speed>0.0</speed>
  <fix>3d</fix>
</trkpt>
<trkpt lat="-27.274439" lon="151.290064">
  <ele>343.1</ele>
  <time>2026-09-01T19:50:08Z</time>
  <course>270.0</course>
  <speed>0.0</speed>
  <fix>3d</fix>
</trkpt>
<trkpt lat="-27.274439" lon="151.290064">
  <ele>343.04</ele>
  <time>2026-09-01T19:50:08Z</time>
  <course>10.47</course>
  <speed>0.0</speed>
  <fix>3d</fix>
</trkpt>
<trkpt lat="-27.274439" lon="151.290064">
  <ele>343.1</ele>
  <time>2026-09-01T19:50:08Z</time>
  <course>270.0</course>
  <speed>0.0</speed>
  <fix>3d</fix>
</trkpt>
<trkpt lat="-27.274439" lon="151.290064">
  <ele>343.18</ele>
  <time>2026-09-01T19:50:08Z</time>
  <course>10.5</course>
  <speed>0.0</speed>
  <fix>3d</fix>
</trkpt>
<trkpt lat="-27.274439" lon="151.290064">
  <ele>343.1</ele>
  <time>2026-09-01T19:50:08Z</time>
  <course>270.0</course>
  <speed>0.0</speed>
  <fix>3d</fix>
</trkpt>
<trkpt lat="-27.274439" lon="151.290064">
  <ele>343.12</ele>
  <time>2026-09-01T19:50:08Z</time>
  <course>10.53</course>
  <speed>0.0</speed>
  <fix>3d</fix>
</trkpt>
<trkpt lat="-27.274439" lon="151.290064">
  <ele>343.1</ele>
  <time>2026-09-01T19:50:08Z</time>
  <course>270.0</course>
  <speed>0.0</speed>
  <fix>3d</fix>
</trkpt>
<trkpt lat="-27.274439" lon="151.290064">
  <ele>343.04</ele>
  <time>2026-09-01T19:50:08Z</time>
  <course>10.56</course>
  <speed>0.0</speed>
  <fix>3d</fix>
</trkpt>
<trkpt lat="-27.274439" lon="151.290064">
  <ele>343.1</ele>
  <time>2026-09-01T19:50:08Z</time>
  <course>270.0</course>
  <speed>0.0</speed>
  <fix>3d</fix>
</trkpt>
<trkpt lat="-27.274439" lon="151.290064">
  <ele>343.07</ele>
  <time>2026-09-01T19:50:08Z</time>
  <course>10.58</course>
  <speed>0.0</speed>
  <fix>3d</fix>
</trkpt>
<trkpt lat="-27.274439" lon="151.290064">
  <ele>343.1</ele>
  <time>2026-09-01T19:50:08Z</time>
  <course>270.0</course>
  <speed>0.0</speed>
  <fix>3d</fix>
</trkpt>
<trkpt lat="-27.274439" lon="151.290064">
  <ele>343.04</ele>
  <time>2026-09-01T19:50:08Z</time>
  <course>10.6</course>
  <speed>0.0</speed>
  <fix>3d</fix>
</trkpt>
<trkpt lat="-27.274439" lon="151.290064">
  <ele>343.1</ele>
  <time>2026-09-01T19:50:08Z</time>
  <course>270.0</course>
  <speed>0.0</speed>
  <fix>3d</fix>
</trkpt>
<trkpt lat="-27.274439" lon="151.290064">
  <ele>343.01</ele>
  <time>2026-09-01T19:50:08Z</time>
  <course>10.62</course>
  <speed>0.0</speed>
  <fix>3d</fix>
</trkpt>
<trkpt lat="-27.274439" lon="151.290064">
  <ele>343.1</ele>
  <time>2026-09-01T19:50:08Z</time>
  <course>270.0</course>
  <speed>0.0</speed>
  <fix>3d</fix>
</trkpt>
<trkpt lat="-27.274439" lon="151.290064">
  <ele>343.2</ele>
  <time>2026-09-01T19:50:08Z</time>
  <course>10.64</course>
  <speed>0.0</speed>
  <fix>3d</fix>
</trkpt>
<trkpt lat="-27.274439" lon="151.290064">
  <ele>343.1</ele>
  <time>2026-09-01T19:50:08Z</time>
  <course>270.0</course>
  <speed>0.0</speed>
  <fix>3d</fix>
</trkpt>
<trkpt lat="-27.274439" lon="151.290064">
  <ele>343.24</ele>
  <time>2026-09-01T19:50:08Z</time>
  <course>10.65</course>
  <speed>0.0</speed>
  <fix>3d</fix>
</trkpt>
<trkpt lat="-27.274439" lon="151.290064">
  <ele>343.1</ele>
  <time>2026-09-01T19:50:08Z</time>
  <course>270.0</course>
  <speed>0.0</speed>
  <fix>3d</fix>
</trkpt>
<trkpt lat="-27.274439" lon="151.290064">
  <ele>342.88</ele>
  <time>2026-09-01T19:50:08Z</time>
  <course>10.67</course>
  <speed>0.0</speed>
  <fix>3d</fix>
</trkpt>
<trkpt lat="-27.274439" lon="151.290064">
  <ele>343.1</ele>
  <time>2026-09-01T19:50:08Z</time>
  <course>270.0</course>
  <speed>0.0</speed>
  <fix>3d</fix>
</trkpt>
<trkpt lat="-27.274439" lon="151.290064">
  <ele>343.21</ele>
  <time>2026-09-01T19:50:08Z</time>
  <course>10.68</course>
  <speed>0.0</speed>
  <fix>3d</fix>
</trkpt>
<trkpt lat="-27.274439" lon="151.290064">
  <ele>343.1</ele>
  <time>2026-09-01T19:50:08Z</time>
  <course>270.0</course>
  <speed>0.0</speed>
  <fix>3d</fix>
</trkpt>
<trkpt lat="-27.274439" lon="151.290064">
  <ele>343.02</ele>
  <time>2026-09-01T19:50:08Z</time>
  <course>10.69</course>
  <speed>0.0</speed>
  <fix>3d</fix>
</trkpt>
<trkpt lat="-27.274439" lon="151.290064">
  <ele>343.1</ele>
  <time>2026-09-01T19:50:08Z</time>
  <course>270.0</course>
  <speed>0.0</speed>
  <fix>3d</fix>
</trkpt>
<trkpt lat="-27.274439" lon="151.290064">
  <ele>342.93</ele>
  <time>2026-09-01T19:50:08Z</time>
  <course>10.7</course>
  <speed>0.0</speed>
  <fix>3d</fix>
</trkpt>
<trkpt lat="-27.274439" lon="151.290064">
  <ele>343.1</ele>
  <time>2026-09-01T19:50:08Z</time>
  <course>270.0</course>
  <speed>0.0</speed>
  <fix>3d</fix>
</trkpt>
<trkpt lat="-27.274439" lon="151.290064">
  <ele>343.07</ele>
  <time>2026-09-01T19:50:08Z</time>
  <course>10.71</course>
  <speed>0.0</speed>
  <fix>3d</fix>
</trkpt>
<trkpt lat="-27.274439" lon="151.290064">
  <ele>343.1</ele>
  <time>2026-09-01T19:50:08Z</time>
  <course>270.0</course>
  <speed>0.0</speed>
  <fix>3d</fix>
</trkpt>
<trkpt lat="-27.274439" lon="151.290064">
  <ele>342.94</ele>
  <time>2026-09-01T19:50:08Z</time>
  <course>10.72</course>
  <speed>0.0</speed>
  <fix>3d</fix>
</trkpt>
<trkpt lat="-27.274439" lon="151.290064">
  <ele>343.1</ele>
  <time>2026-09-01T19:50:08Z</time>
  <course>270.0</course>
  <speed>0.0</speed>
  <fix>3d</fix>
</trkpt>
<trkpt lat="-27.274439" lon="151.290064">
  <ele>343.11</ele>
  <time>2026-09-01T19:50:08Z</time>
  <course>10.73</course>
  <speed>0.0</speed>
  <fix>3d</fix>
</trkpt>
<trkpt lat="-27.274439" lon="151.290064">
  <ele>343.1</ele>
  <time>2026-09-01T19:50:08Z</time>
  <course>270.0</course>
  <speed>0.0</speed>
  <fix>3d</fix>
</trkpt>
<trkpt lat="-27.274439" lon="151.290064">
  <ele>343.24</ele>
  <time>2026-09-01T19:50:08Z</time>
  <course>10.73</course>
  <speed>0.0</speed>
  <fix>3d</fix>
</trkpt>
<trkpt lat="-27.274439" lon="151.290064">
  <ele>343.1</ele>
  <time>2026-09-01T19:50:08Z</time>
  <course>270.0</course>
  <speed>0.0</speed>
  <fix>3d</fix>
</trkpt>
<trkpt lat="-27.274439" lon="151.290064">
  <ele>343.18</ele>
  <time>2026-09-01T19:50:08Z</time>
  <course>10.74</course>
  <speed>0.0</speed>
  <fix>3d</fix>
</trkpt>
<trkpt lat="-27.274439" lon="151.290064">
  <ele>343.1</ele>
  <time>2026-09-01T19:50:08Z</time>
  <course>270.0</course>
  <speed>0.0</speed>
  <fix>3d</fix>
</trkpt>
<trkpt lat="-27.274439" lon="151.290064">
  <ele>342.89</ele>
  <time>2026-09-01T19:50:08Z</time>
  <course>10.75</course>
  <speed>0.0</speed>
  <fix>3d</fix>
</trkpt>
<trkpt lat="-27.274439" lon="151.290064">
  <ele>343.1</ele>
  <time>2026-09-01T19:50:08Z</time>
  <course>270.0</course>
  <speed>0.0</speed>
  <fix>3d</fix>
</trkpt>
<trkpt lat="-27.274439" lon="151.290064">
  <ele>343.23</ele>
  <time>2026-09-01T19:50:08Z</time>
  <course>10.75</course>
  <speed>0.0</speed>
  <fix>3d</fix>
</trkpt>
<trkpt lat="-27.274439" lon="151.290064">
  <ele>343.1</ele>
  <time>2026-09-01T19:50:08Z</time>
  <course>270.0</course>
  <speed>0.0</speed>
  <fix>3d</fix>
</trkpt>
<trkpt lat="-27.274439" lon="151.290064">
  <ele>343.23</ele>
  <time>2026-09-01T19:50:08Z</time>
  <course>10.76</course>
  <speed>0.0</speed>
  <fix>3d</fix>
</trkpt>
<trkpt lat="-27.274439" lon="151.290064">
  <ele>343.1</ele>
  <time>2026-09-01T19:50:08Z</time>
  <course>270.0</course>
  <speed>0.0</speed>
  <fix>3d</fix>
</trkpt>
<trkpt lat="-27.274439" lon="151.290064">
  <ele>342.99</ele>
  <time>2026-09-01T19:50:08Z</time>
  <course>10.76</course>
  <speed>0.0</speed>
  <fix>3d</fix>
</trkpt>
<trkpt lat="-27.274439" lon="151.290064">
  <ele>343.1</ele>
  <time>2026-09-01T19:50:08Z</time>
  <course>270.0</course>
  <speed>0.0</speed>
  <fix>3d</fix>
</trkpt>
<trkpt lat="-27.274439" lon="151.290064">
  <ele>343.13</ele>
  <time>2026-09-01T19:50:08Z</time>
  <course>10.76</course>
  <speed>0.0</speed>
  <fix>3d</fix>
</trkpt>
<trkpt lat="-27.274439" lon="151.290064">
  <ele>343.1</ele>
  <time>2026-09-01T19:50:08Z</time>
  <course>270.0</course>
  <speed>0.0</speed>
  <fix>3d</fix>
</trkpt>
<trkpt lat="-27.274439" lon="151.290064">
  <ele>343.07</ele>
  <time>2026-09-01T19:50:08Z</time>
  <course>10.77</course>
  <speed>0.0</speed>
  <fix>3d</fix>
</trkpt>
<trkpt lat="-27.274439" lon="151.290064">
  <ele>343.1</ele>
  <time>2026-09-01T19:50:08Z</time>
  <course>270.0</course>
  <speed>0.0</speed>
  <fix>3d</fix>
</trkpt>
<trkpt lat="-27.274439" lon="151.290064">
  <ele>343.19</ele>
  <time>2026-09-01T19:50:08Z</time>
  <course>10.77</course>
  <speed>0.0</speed>
  <fix>3d</fix>
</trkpt>
<trkpt lat="-27.274439" lon="151.290064">
  <ele>343.1</ele>
  <time>2026-09-01T19:50:08Z</time>
  <course>270.0</course>
  <speed>0.0</speed>
  <fix>3d</fix>
</trkpt>
<trkpt lat="-27.274439" lon="151.290064">
  <ele>342.93</ele>
  <time>2026-09-01T19:50:08Z</time>
  <course>10.77</course>
  <speed>0.0</speed>
  <fix>3d</fix>
</trkpt>
<trkpt lat="-27.274439" lon="151.290064">
  <ele>343.1</ele>
  <time>2026-09-01T19:50:08Z</time>
  <course>270.0</course>
  <speed>0.0</speed>
  <fix>3d</fix>
</trkpt>
<trkpt lat="-27.274439" lon="151.290064">
  <ele>343.19</ele>
  <time>2026-09-01T19:50:08Z</time>
  <course>10.78</course>
  <speed>0.0</speed>
  <fix>3d</fix>
</trkpt>
<trkpt lat="-27.274439" lon="151.290064">
  <ele>343.1</ele>
  <time>2026-09-01T19:50:08Z</time>
  <course>270.0</course>
  <speed>0.0</speed>
  <fix>3d</fix>
</trkpt>
<trkpt lat="-27.274439" lon="151.290064">
  <ele>343.1</ele>
  <time>2026-09-01T19:50:08Z</time>
  <course>10.78</course>
  <speed>0.0</speed>
  <fix>3d</fix>
</trkpt>
<trkpt lat="-27.274439" lon="151.290064">
  <ele>343.1</ele>
  <time>2026-09-01T19:50:08Z</time>
  <course>270.0</course>
  <speed>0.0</speed>
  <fix>3d</fix>
</trkpt>
<trkpt lat="-27.274439" lon="151.290064">
  <ele>343.01</ele>
  <time>2026-09-01T19:50:08Z</time>
  <course>10.78</course>
  <speed>0.0</speed>
  <fix>3d</fix>
</trkpt>
<trkpt lat="-27.274439" lon="151.290064">
  <ele>343.1</ele>
  <time>2026-09-01T19:50:08Z</time>
  <course>270.0</course>
  <speed>0.0</speed>
  <fix>3d</fix>
</trkpt>
<trkpt lat="-27.274439" lon="151.290064">
  <ele>343.11</ele>
  <time>2026-09-01T19:50:08Z</time>
  <course>10.78</course>
  <speed>0.0</speed>
  <fix>3d</fix>
</trkpt>
<trkpt lat="-27.274439" lon="151.290064">
  <ele>343.1</ele>
  <time>2026-09-01T19:50:08Z</time>
  <course>270.0</course>
  <speed>0.0</speed>
  <fix>3d</fix>
</trkpt>
<trkpt lat="-27.274439" lon="151.290064">
  <ele>342.96</ele>
  <time>2026-09-01T19:50:08Z</time>
  <course>10.78</course>
  <speed>0.0</speed>
  <fix>3d</fix>
</trkpt>
<trkpt lat="-27.274439" lon="151.290064">
  <ele>343.1</ele>
  <time>2026-09-01T19:50:08Z</time>
  <course>270.0</course>
  <speed>0.0</speed>
  <fix>3d</fix>
</trkpt>
<trkpt lat="-27.274439" lon="151.290064">
  <ele>343.19</ele>
  <time>2026-09-01T19:50:08Z</time>
  <course>10.79</course>
  <speed>0.0</speed>
  <fix>3d</fix>
</trkpt>
<trkpt lat="-27.274439" lon="151.290064">
  <ele>343.1</ele>
  <time>2026-09-01T19:50:08Z</time>
  <course>270.0</course>
  <speed>0.0</speed>
  <fix>3d</fix>
</trkpt>
<trkpt lat="-27.274439" lon="151.290064">
  <ele>343.0</ele>
  <time>2026-09-01T19:50:08Z</time>
  <course>10.79</course>
  <speed>0.0</speed>
  <fix>3d</fix>
</trkpt>
<trkpt lat="-27.274439" lon="151.290064">
  <ele>343.1</ele>
  <time>2026-09-01T19:50:08Z</time>
  <course>270.0</course>
  <speed>0.0</speed>
  <fix>3d</fix>
</trkpt>
<trkpt lat="-27.274439" lon="151.290064">
  <ele>343.2</ele>
  <time>2026-09-01T19:50:08Z</time>
  <course>10.79</course>
  <speed>0.0</speed>
  <fix>3d</fix>
</trkpt>
<trkpt lat="-27.274439" lon="151.290064">
  <ele>343.1</ele>
  <time>2026-09-01T19:50:08Z</time>
  <course>270.0</course>
  <speed>0.0</speed>
  <fix>3d</fix>
</trkpt>
<trkpt lat="-27.274439" lon="151.290064">
  <ele>343.2</ele>
  <time>2026-09-01T19:50:08Z</time>
  <course>10.79</course>
  <speed>0.0</speed>
  <fix>3d</fix>
</trkpt>
<trkpt lat="-27.274439" lon="151.290064">
  <ele>343.1</ele>
  <time>2026-09-01T19:50:08Z</time>
  <course>270.0</course>
  <speed>0.0</speed>
  <fix>3d</fix>
</trkpt>
<trkpt lat="-27.274439" lon="151.290064">
  <ele>343.13</ele>
  <time>2026-09-01T19:50:08Z</time>
  <course>10.79</course>
  <speed>0.0</speed>
  <fix>3d</fix>
</trkpt>
<trkpt lat="-27.274439" lon="151.290064">
  <ele>343.1</ele>
  <time>2026-09-01T19:50:08Z</time>
  <course>270.0</course>
  <speed>0.0</speed>
  <fix>3d</fix>
</trkpt>
<trkpt lat="-27.274439" lon="151.290064">
  <ele>343.1</ele>
  <time>2026-09-01T19:50:08Z</time>
  <course>10.79</course>
  <speed>0.0</speed>
  <fix>3d</fix>
</trkpt>
<trkpt lat="-27.274439" lon="151.290064">
  <ele>343.1</ele>
  <time>2026-09-01T19:50:08Z</time>
  <course>270.0</course>
  <speed>0.0</speed>
  <fix>3d</fix>
</trkpt>
<trkpt lat="-27.274439" lon="151.290064">
  <ele>343.12</ele>
  <time>2026-09-01T19:50:08Z</time>
  <course>10.79</course>
  <speed>0.0</speed>
  <fix>3d</fix>
</trkpt>
<trkpt lat="-27.274439" lon="151.290064">
  <ele>343.1</ele>
  <time>2026-09-01T19:50:08Z</time>
  <course>270.0</course>
  <speed>0.0</speed>
  <fix>3d</fix>
</trkpt>
<trkpt lat="-27.274439" lon="151.290064">
  <ele>342.94</ele>
  <time>2026-09-01T19:50:08Z</time>
  <course>10.79</course>
  <speed>0.0</speed>
  <fix>3d</fix>
</trkpt>
<trkpt lat="-27.274439" lon="151.290064">
  <ele>343.1</ele>
  <time>2026-09-01T19:50:08Z</time>
  <course>270.0</course>
  <speed>0.0</speed>
  <fix>3d</fix>
</trkpt>
<trkpt lat="-27.274439" lon="151.290064">
  <ele>343.25</ele>
  <time>2026-09-01T19:50:08Z</time>
  <course>10.79</course>
  <speed>0.0</speed>
  <fix>3d</fix>
</trkpt>
<trkpt lat="-27.274439" lon="151.290064">
  <ele>343.1</ele>
  <time>2026-09-01T19:50:08Z</time>
  <course>270.0</course>
  <speed>0.0</speed>
  <fix>3d</fix>
</trkpt>
<trkpt lat="-27.274439" lon="151.290064">
  <ele>342.93</ele>
  <time>2026-09-01T19:50:08Z</time>
  <course>10.79</course>
  <speed>0.0</speed>
  <fix>3d</fix>
</trkpt>
<trkpt lat="-27.274439" lon="151.290064">
  <ele>343.1</ele>
  <time>2026-09-01T19:50:08Z</time>
  <course>270.0</course>
  <speed>0.0</speed>
  <fix>3d</fix>
</trkpt>
<trkpt lat="-27.274439" lon="151.290064">
  <ele>343.08</ele>
  <time>2026-09-01T19:50:08Z</time>
  <course>10.79</course>
  <speed>0.0</speed>
  <fix>3d</fix>
</trkpt>
<trkpt lat="-27.274439" lon="151.290064">
  <ele>343.1</ele>
  <time>2026-09-01T19:50:08Z</time>
  <course>270.0</course>
  <speed>0.0</speed>
  <fix>3d</fix>
</trkpt>
<trkpt lat="-27.274439" lon="151.290064">
  <ele>343.23</ele>
  <time>2026-09-01T19:50:08Z</time>
  <course>10.8</course>
  <speed>0.0</speed>
  <fix>3d</fix>
</trkpt>
<trkpt lat="-27.274439" lon="151.290064">
  <ele>343.1</ele>
  <time>2026-09-01T19:50:08Z</time>
  <course>270.0</course>
  <speed>0.0</speed>
  <fix>3d</fix>
</trkpt>
<trkpt lat="-27.274439" lon="151.290064">
  <ele>343.01</ele>
  <time>2026-09-01T19:50:08Z</time>
  <course>10.8</course>
  <speed>0.0</speed>
  <fix>3d</fix>
</trkpt>
<trkpt lat="-27.274439" lon="151.290064">
  <ele>343.1</ele>
  <time>2026-09-01T19:50:08Z</time>
  <course>270.0</course>
  <speed>0.0</speed>
  <fix>3d</fix>
</trkpt>
<trkpt lat="-27.274439" lon="151.290064">
  <ele>343.1</ele>
  <time>2026-09-01T19:50:08Z</time>
  <course>10.8</course>
  <speed>0.0</speed>
  <fix>3d</fix>
</trkpt>
<trkpt lat="-27.274439" lon="151.290064">
  <ele>343.1</ele>
  <time>2026-09-01T19:50:08Z</time>
  <course>270.0</course>
  <speed>0.0</speed>
  <fix>3d</fix>
</trkpt>
<trkpt lat="-27.274439" lon="151.290064">
  <ele>342.99</ele>
  <time>2026-09-01T19:50:08Z</time>
  <course>10.8</course>
  <speed>0.0</speed>
  <fix>3d</fix>
</trkpt>
<trkpt lat="-27.274439" lon="151.290064">
  <ele>343.1</ele>
  <time>2026-09-01T19:50:08Z</time>
  <course>270.0</course>
  <speed>0.0</speed>
  <fix>3d</fix>
</trkpt>
<trkpt lat="-27.274439" lon="151.290064">
  <ele>342.87</ele>
  <time>2026-09-01T19:50:08Z</time>
  <course>10.8</course>
  <speed>0.0</speed>
  <fix>3d</fix>
</trkpt>
<trkpt lat="-27.274439" lon="151.290064">
  <ele>343.1</ele>
  <time>2026-09-01T19:50:08Z</time>
  <course>270.0</course>
  <speed>0.0</speed>
  <fix>3d</fix>
</trkpt>
<trkpt lat="-27.274439" lon="151.290064">
  <ele>343.1</ele>
  <time>2026-09-01T19:50:08Z</time>
  <course>10.8</course>
  <speed>0.0</speed>
  <fix>3d</fix>
</trkpt>
<trkpt lat="-27.274439" lon="151.290064">
  <ele>343.1</ele>
  <time>2026-09-01T19:50:08Z</time>
  <course>270.0</course>
  <speed>0.0</speed>
  <fix>3d</fix>
</trkpt>
<trkpt lat="-27.274439" lon="151.290064">
  <ele>342.99</ele>
  <time>2026-09-01T19:50:08Z</time>
  <course>10.8</course>
  <speed>0.0</speed>
  <fix>3d</fix>
</trkpt>
<trkpt lat="-27.274439" lon="151.290064">
  <ele>343.1</ele>
  <time>2026-09-01T19:50:08Z</time>
  <course>270.0</course>
  <speed>0.0</speed>
  <fix>3d</fix>
</trkpt>
<trkpt lat="-27.274439" lon="151.290064">
  <ele>342.91</ele>
  <time>2026-09-01T19:50:08Z</time>
  <course>10.8</course>
  <speed>0.0</speed>
  <fix>3d</fix>
</trkpt>
<trkpt lat="-27.274439" lon="151.290064">
  <ele>343.1</ele>
  <time>2026-09-01T19:50:08Z</time>
  <course>270.0</course>
  <speed>0.0</speed>
  <fix>3d</fix>
</trkpt>
<trkpt lat="-27.274439" lon="151.290064">
  <ele>342.9</ele>
  <time>2026-09-01T19:50:08Z</time>
  <course>10.8</course>
  <speed>0.0</speed>
  <fix>3d</fix>
</trkpt>
<trkpt lat="-27.274439" lon="151.290064">
  <ele>343.1</ele>
  <time>2026-09-01T19:50:08Z</time>
  <course>270.0</course>
  <speed>0.0</speed>
  <fix>3d</fix>
</trkpt>
<trkpt lat="-27.274439" lon="151.290064">
  <ele>342.87</ele>
  <time>2026-09-01T19:50:08Z</time>
  <course>10.8</course>
  <speed>0.0</speed>
  <fix>3d</fix>
</trkpt>
<trkpt lat="-27.274439" lon="151.290064">
  <ele>343.1</ele>
  <time>2026-09-01T19:50:08Z</time>
  <course>270.0</course>
  <speed>0.0</speed>
  <fix>3d</fix>
</trkpt>
<trkpt lat="-27.274439" lon="151.290064">
  <ele>343.12</ele>
  <time>2026-09-01T19:50:08Z</time>
  <course>10.8</course>
  <speed>0.0</speed>
  <fix>3d</fix>
</trkpt>
<trkpt lat="-27.274439" lon="151.290064">
  <ele>343.1</ele>
  <time>2026-09-01T19:50:08Z</time>
  <course>270.0</course>
  <speed>0.0</speed>
  <fix>3d</fix>
</trkpt>
<trkpt lat="-27.274439" lon="151.290064">
  <ele>342.99</ele>
  <time>2026-09-01T19:50:08Z</time>
  <course>10.8</course>
  <speed>0.0</speed>
  <fix>3d</fix>
</trkpt>
<trkpt lat="-27.274439" lon="151.290064">
  <ele>343.1</ele>
  <time>2026-09-01T19:50:08Z</time>
  <course>270.0</course>
  <speed>0.0</speed>
  <fix>3d</fix>
</trkpt>
<trkpt lat="-27.274439" lon="151.290064">
  <ele>343.13</ele>
  <time>2026-09-01T19:50:08Z</time>
  <course>10.8</course>
  <speed>0.0</speed>
  <fix>3d</fix>
</trkpt>
<trkpt lat="-27.274439" lon="151.290064">
  <ele>343.1</ele>
  <time>2026-09-01T19:50:08Z</time>
  <course>270.0</course>
  <speed>0.0</speed>
  <fix>3d</fix>
</trkpt>
<trkpt lat="-27.274439" lon="151.290064">
  <ele>343.0</ele>
  <time>2026-09-01T19:50:08Z</time>
  <course>10.8</course>
  <speed>0.0</speed>
  <fix>3d</fix>
</trkpt>
<trkpt lat="-27.274439" lon="151.290064">
  <ele>343.1</ele>
  <time>2026-09-01T19:50:08Z</time>
  <course>270.0</course>
  <speed>0.0</speed>
  <fix>3d</fix>
</trkpt>
<trkpt lat="-27.274439" lon="151.290064">
  <ele>343.17</ele>
  <time>2026-09-01T19:50:08Z</time>
  <course>10.8</course>
  <speed>0.0</speed>
  <fix>3d</fix>
</trkpt>
<trkpt lat="-27.274439" lon="151.290064">
  <ele>343.1</ele>
  <time>2026-09-01T19:50:08Z</time>
  <course>270.0</course>
  <speed>0.0</speed>
  <fix>3d</fix>
</trkpt>
<trkpt lat="-27.274439" lon="151.290064">
  <ele>343.0</ele>
  <time>2026-09-01T19:50:08Z</time>
  <course>10.8</course>
  <speed>0.0</speed>
  <fix>3d</fix>
</trkpt>
<trkpt lat="-27.274439" lon="151.290064">
  <ele>343.1</ele>
  <time>2026-09-01T19:50:08Z</time>
  <course>270.0</course>
  <speed>0.0</speed>
  <fix>3d</fix>
</trkpt>
<trkpt lat="-27.274439" lon="151.290064">
  <ele>342.99</ele>
  <time>2026-09-01T19:50:08Z</time>
  <course>10.8</course>
  <speed>0.0</speed>
  <fix>3d</fix>
</trkpt>
<trkpt lat="-27.274439" lon="151.290064">
  <ele>343.1</ele>
  <time>2026-09-01T19:50:08Z</time>
  <course>270.0</course>
  <speed>0.0</speed>
  <fix>3d</fix>
</trkpt>
<trkpt lat="-27.274439" lon="151.290064">
  <ele>343.17</ele>
  <time>2026-09-01T19:50:08Z</time>
  <course>10.8</course>
  <speed>0.0</speed>
  <fix>3d</fix>
</trkpt>
<trkpt lat="-27.274439" lon="151.290064">
  <ele>343.1</ele>
  <time>2026-09-01T19:50:08Z</time>
  <course>270.0</course>
  <speed>0.0</speed>
  <fix>3d</fix>
</trkpt>
<trkpt lat="-27.274439" lon="151.290064">
  <ele>343.16</ele>
  <time>2026-09-01T19:50:08Z</time>
  <course>10.8</course>
  <speed>0.0</speed>
  <fix>3d</fix>
</trkpt>
<trkpt lat="-27.274439" lon="151.290064">
  <ele>343.1</ele>
  <time>2026-09-01T19:50:08Z</time>
  <course>270.0</course>
  <speed>0.0</speed>
  <fix>3d</fix>
</trkpt>
<trkpt lat="-27.274439" lon="151.290064">
  <ele>342.87</ele>
  <time>2026-09-01T19:50:08Z</time>
  <course>10.8</course>
  <speed>0.0</speed>
  <fix>3d</fix>
</trkpt>
<trkpt lat="-27.274439" lon="151.290064">
  <ele>343.1</ele>
  <time>2026-09-01T19:50:08Z</time>
  <course>270.0</course>
  <speed>0.0</speed>
  <fix>3d</fix>
</trkpt>
<trkpt lat="-27.274439" lon="151.290064">
  <ele>343.19</ele>
  <time>2026-09-01T19:50:08Z</time>
  <course>10.8</course>
  <speed>0.0</speed>
  <fix>3d</fix>
</trkpt>
<trkpt lat="-27.274439" lon="151.290064">
  <ele>343.1</ele>
  <time>2026-09-01T19:50:08Z</time>
  <course>270.0</course>
  <speed>0.0</speed>
  <fix>3d</fix>
</trkpt>
<trkpt lat="-27.274439" lon="151.290064">
  <ele>343.16</ele>
  <time>2026-09-01T19:50:08Z</time>
  <course>10.8</course>
  <speed>0.0</speed>
  <fix>3d</fix>
</trkpt>
<trkpt lat="-27.274439" lon="151.290064">
  <ele>343.1</ele>
  <time>2026-09-01T19:50:08Z</time>
  <course>270.0</course>
  <speed>0.0</speed>
  <fix>3d</fix>
</trkpt>
<trkpt lat="-27.274439" lon="151.290064">
  <ele>343.21</ele>
  <time>2026-09-01T19:50:08Z</time>
  <course>10.8</course>
  <speed>0.0</speed>
  <fix>3d</fix>
</trkpt>
<trkpt lat="-27.274439" lon="151.290064">
  <ele>343.1</ele>
  <time>2026-09-01T19:50:08Z</time>
  <course>270.0</course>
  <speed>0.0</speed>
  <fix>3d</fix>
</trkpt>
<trkpt lat="-27.274439" lon="151.290064">
  <ele>343.22</ele>
  <time>2026-09-01T19:50:08Z</time>
  <course>10.8</course>
  <speed>0.0</speed>
  <fix>3d</fix>
</trkpt>
<trkpt lat="-27.274439" lon="151.290064">
  <ele>343.1</ele>
  <time>2026-09-01T19:50:08Z</time>
  <course>270.0</course>
  <speed>0.0</speed>
  <fix>3d</fix>
</trkpt>
<trkpt lat="-27.274439" lon="151.290064">
  <ele>343.24</ele>
  <time>2026-09-01T19:50:08Z</time>
  <course>10.8</course>
  <speed>0.0</speed>
  <fix>3d</fix>
</trkpt>
<trkpt lat="-27.274439" lon="151.290064">
  <ele>343.1</ele>
  <time>2026-09-01T19:50:08Z</time>
  <course>270.0</course>
  <speed>0.0</speed>
  <fix>3d</fix>
</trkpt>
<trkpt lat="-27.274439" lon="151.290064">
  <ele>343.0</ele>
  <time>2026-09-01T19:50:08Z</time>
  <course>10.8</course>
  <speed>0.0</speed>
  <fix>3d</fix>
</trkpt>
<trkpt lat="-27.274439" lon="151.290064">
  <ele>343.1</ele>
  <time>2026-09-01T19:50:08Z</time>
  <course>270.0</course>
  <speed>0.0</speed>
  <fix>3d</fix>
</trkpt>
<trkpt lat="-27.274439" lon="151.290064">
  <ele>343.1</ele>
  <time>2026-09-01T19:50:08Z</time>
  <course>10.8</course>
  <speed>0.0</speed>
  <fix>3d</fix>
</trkpt>
<trkpt lat="-27.274439" lon="151.290064">
  <ele>343.1</ele>
  <time>2026-09-01T19:50:08Z</time>
  <course>270.0</course>
  <speed>0.0</speed>
  <fix>3d</fix>
</trkpt>
<trkpt lat="-27.274439" lon="151.290064">
  <ele>343.05</ele>
  <time>2026-09-01T19:50:08Z</time>
  <course>10.8</course>
  <speed>0.0</speed>
  <fix>3d</fix>
</trkpt>
<trkpt lat="-27.274439" lon="151.290064">
  <ele>343.1</ele>
  <time>2026-09-01T19:50:08Z</time>
  <course>270.0</course>
  <speed>0.0</speed>
  <fix>3d</fix>
</trkpt>
<trkpt lat="-27.274439" lon="151.290064">
  <ele>342.87</ele>
  <time>2026-09-01T19:50:08Z</time>
  <course>10.8</course>
  <speed>0.0</speed>
  <fix>3d</fix>
</trkpt>
<trkpt lat="-27.274439" lon="151.290064">
  <ele>343.1</ele>
  <time>2026-09-01T19:50:08Z</time>
  <course>270.0</course>
  <speed>0.0</speed>
  <fix>3d</fix>
</trkpt>
<trkpt lat="-27.274439" lon="151.290064">
  <ele>342.92</ele>
  <time>2026-09-01T19:50:08Z</time>
  <course>10.8</course>
  <speed>0.0</speed>
  <fix>3d</fix>
</trkpt>
<trkpt lat="-27.274439" lon="151.290064">
  <ele>343.1</ele>
  <time>2026-09-01T19:50:08Z</time>
  <course>270.0</course>
  <speed>0.0</speed>
  <fix>3d</fix>
</trkpt>
<trkpt lat="-27.274439" lon="151.290064">
  <ele>342.96</ele>
  <time>2026-09-01T19:50:08Z</time>
  <course>10.8</course>
  <speed>0.0</speed>
  <fix>3d</fix>
</trkpt>
<trkpt lat="-27.274439" lon="151.290064">
  <ele>343.1</ele>
  <time>2026-09-01T19:50:08Z</time>
  <course>270.0</course>
  <speed>0.0</speed>
  <fix>3d</fix>
</trkpt>
<trkpt lat="-27.274439" lon="151.290064">
  <ele>343.15</ele>
  <time>2026-09-01T19:50:08Z</time>
  <course>10.8</course>
  <speed>0.0</speed>
  <fix>3d</fix>
</trkpt>
<trkpt lat="-27.274439" lon="151.290064">
  <ele>343.1</ele>
  <time>2026-09-01T19:50:08Z</time>
  <course>270.0</course>
  <speed>0.0</speed>
  <fix>3d</fix>
</trkpt>
<trkpt lat="-27.274439" lon="151.290064">
  <ele>343.16</ele>
  <time>2026-09-01T19:50:08Z</time>
  <course>10.8</course>
  <speed>0.0</speed>
  <fix>3d</fix>
</trkpt>
<trkpt lat="-27.274439" lon="151.290064">
  <ele>343.1</ele>
  <time>2026-09-01T19:50:08Z</time>
  <course>270.0</course>
  <speed>0.0</speed>
  <fix>3d</fix>
</trkpt>
<trkpt lat="-27.274439" lon="151.290064">
  <ele>343.2</ele>
  <time>2026-09-01T19:50:08Z</time>
  <course>10.81</course>
  <speed>0.0</speed>
  <fix>3d</fix>
</trkpt>
<trkpt lat="-27.274439" lon="151.290064">
  <ele>343.1</ele>
  <time>2026-09-01T19:50:08Z</time>
  <course>270.0</course>
  <speed>0.0</speed>
  <fix>3d</fix>
</trkpt>
<trkpt lat="-27.274439" lon="151.290064">
  <ele>343.13</ele>
  <time>2026-09-01T19:50:08Z</time>
  <course>10.82</course>
  <speed>0.0</speed>
  <fix>3d</fix>
</trkpt>
<trkpt lat="-27.274439" lon="151.290064">
  <ele>343.1</ele>
  <time>2026-09-01T19:50:08Z</time>
  <course>270.0</course>
  <speed>0.0</speed>
  <fix>3d</fix>
</trkpt>
<trkpt lat="-27.274439" lon="151.290064">
  <ele>343.09</ele>
  <time>2026-09-01T19:50:08Z</time>
  <course>10.71</course>
  <speed>0.0</speed>
  <fix>3d</fix>
</trkpt>
<trkpt lat="-27.274439" lon="151.290064">
  <ele>343.1</ele>
  <time>2026-09-01T19:50:08Z</time>
  <course>270.0</course>
  <speed>0.0</speed>
  <fix>3d</fix>
</trkpt>
<trkpt lat="-27.274439" lon="151.290064">
  <ele>343.09</ele>
  <time>2026-09-01T19:50:08Z</time>
  <course>10.71</course>
  <speed>0.0</speed>
  <fix>3d</fix>
</trkpt>
<trkpt lat="-27.274439" lon="151.290064">
  <ele>343.1</ele>
  <time>2026-09-01T19:50:08Z</time>
  <course>270.0</course>
  <speed>0.0</speed>
  <fix>3d</fix>
</trkpt>
<trkpt lat="-27.274439" lon="151.290064">
  <ele>343.1</ele>
  <time>2026-09-01T19:50:08Z</time>
  <course>10.71</course>
  <speed>0.0</speed>
  <fix>3d</fix>
</trkpt>
<trkpt lat="-27.274439" lon="151.290064">
  <ele>343.1</ele>
  <time>2026-09-01T19:50:08Z</time>
  <course>270.0</course>
  <speed>0.0</speed>
  <fix>3d</fix>
</trkpt>
<trkpt lat="-27.274439" lon="151.290064">
  <ele>343.1</ele>
  <time>2026-09-01T19:50:08Z</time>
  <course>10.71</course>
  <speed>0.0</speed>
  <fix>3d</fix>
</trkpt>
<trkpt lat="-27.274439" lon="151.290064">
  <ele>343.1</ele>
  <time>2026-09-01T19:50:08Z</time>
  <course>270.0</course>
  <speed>0.0</speed>
  <fix>3d</fix>
</trkpt>
<trkpt lat="-27.274439" lon="151.290064">
  <ele>343.1</ele>
  <time>2026-09-01T19:50:08Z</time>
  <course>10.71</course>
  <speed>0.0</speed>
  <fix>3d</fix>
</trkpt>
<trkpt lat="-27.274439" lon="151.290064">
  <ele>343.1</ele>
  <time>2026-09-01T19:50:08Z</time>
  <course>270.0</course>
  <speed>0.0</speed>
  <fix>3d</fix>
</trkpt>
<trkpt lat="-27.274439" lon="151.290064">
  <ele>343.1</ele>
  <time>2026-09-01T19:50:08Z</time>
  <course>10.71</course>
  <speed>0.0</speed>
  <fix>3d</fix>
</trkpt>
<trkpt lat="-27.274439" lon="151.290064">
  <ele>343.1</ele>
  <time>2026-09-01T19:50:08Z</time>
  <course>270.0</course>
  <speed>0.0</speed>
  <fix>3d</fix>
</trkpt>
<trkpt lat="-27.274439" lon="151.290064">
  <ele>343.1</ele>
  <time>2026-09-01T19:50:08Z</time>
  <course>10.71</course>
  <speed>0.0</speed>
  <fix>3d</fix>
</trkpt>
<trkpt lat="-27.274439" lon="151.290064">
  <ele>343.1</ele>
  <time>2026-09-01T19:50:08Z</time>
  <course>270.0</course>
  <speed>0.0</speed>
  <fix>3d</fix>
</trkpt>
<trkpt lat="-27.274439" lon="151.290064">
  <ele>343.11</ele>
  <time>2026-09-01T19:50:08Z</time>
  <course>10.71</course>
  <speed>0.0</speed>
  <fix>3d</fix>
</trkpt>
<trkpt lat="-27.274439" lon="151.290064">
  <ele>343.1</ele>
  <time>2026-09-01T19:50:08Z</time>
  <course>270.0</course>
  <speed>0.0</speed>
  <fix>3d</fix>
</trkpt>
<trkpt lat="-27.274439" lon="151.290064">
  <ele>343.11</ele>
  <time>2026-09-01T19:50:08Z</time>
  <course>10.71</course>
  <speed>0.0</speed>
  <fix>3d</fix>
</trkpt>
<trkpt lat="-27.274439" lon="151.290064">
  <ele>343.1</ele>
  <time>2026-09-01T19:50:08Z</time>
  <course>270.0</course>
  <speed>0.0</speed>
  <fix>3d</fix>
</trkpt>
<trkpt lat="-27.274439" lon="151.290064">
  <ele>343.11</ele>
  <time>2026-09-01T19:50:08Z</time>
  <course>10.71</course>
  <speed>0.0</speed>
  <fix>3d</fix>
</trkpt>
<trkpt lat="-27.274439" lon="151.290064">
  <ele>343.1</ele>
  <time>2026-09-01T19:50:08Z</time>
  <course>270.0</course>
  <speed>0.0</speed>
  <fix>3d</fix>
</trkpt>
<trkpt lat="-27.274439" lon="151.290064">
  <ele>343.1</ele>
  <time>2026-09-01T19:50:08Z</time>
  <course>10.71</course>
  <speed>0.0</speed>
  <fix>3d</fix>
</trkpt>
<trkpt lat="-27.274439" lon="151.290064">
  <ele>343.1</ele>
  <time>2026-09-01T19:50:08Z</time>
  <course>270.0</course>
  <speed>0.0</speed>
  <fix>3d</fix>
</trkpt>
<trkpt lat="-27.274439" lon="151.290064">
  <ele>343.09</ele>
  <time>2026-09-01T19:50:08Z</time>
  <course>10.71</course>
  <speed>0.0</speed>
  <fix>3d</fix>
</trkpt>
<trkpt lat="-27.274439" lon="151.290064">
  <ele>343.1</ele>
  <time>2026-09-01T19:50:08Z</time>
  <course>270.0</course>
  <speed>0.0</speed>
  <fix>3d</fix>
</trkpt>
<trkpt lat="-27.274439" lon="151.290064">
  <ele>343.09</ele>
  <time>2026-09-01T19:50:08Z</time>
  <course>10.71</course>
  <speed>0.0</speed>
  <fix>3d</fix>
</trkpt>
<trkpt lat="-27.274439" lon="151.290064">
  <ele>343.1</ele>
  <time>2026-09-01T19:50:08Z</time>
  <course>270.0</course>
  <speed>0.0</speed>
  <fix>3d</fix>
</trkpt>
<trkpt lat="-27.274439" lon="151.290064">
  <ele>343.09</ele>
  <time>2026-09-01T19:50:08Z</time>
  <course>10.71</course>
  <speed>0.0</speed>
  <fix>3d</fix>
</trkpt>
<trkpt lat="-27.274439" lon="151.290064">
  <ele>343.1</ele>
  <time>2026-09-01T19:50:08Z</time>
  <course>270.0</course>
  <speed>0.0</speed>
  <fix>3d</fix>
</trkpt>
<trkpt lat="-27.274439" lon="151.290064">
  <ele>343.09</ele>
  <time>2026-09-01T19:50:08Z</time>
  <course>10.71</course>
  <speed>0.0</speed>
  <fix>3d</fix>
</trkpt>
<trkpt lat="-27.274439" lon="151.290064">
  <ele>343.1</ele>
  <time>2026-09-01T19:50:08Z</time>
  <course>270.0</course>
  <speed>0.0</speed>
  <fix>3d</fix>
</trkpt>
<trkpt lat="-27.274439" lon="151.290064">
  <ele>343.09</ele>
  <time>2026-09-01T19:50:08Z</time>
  <course>10.71</course>
  <speed>0.0</speed>
  <fix>3d</fix>
</trkpt>
<trkpt lat="-27.274439" lon="151.290064">
  <ele>343.1</ele>
  <time>2026-09-01T19:50:08Z</time>
  <course>270.0</course>
  <speed>0.0</speed>
  <fix>3d</fix>
</trkpt>
<trkpt lat="-27.274439" lon="151.290064">
  <ele>343.09</ele>
  <time>2026-09-01T19:50:08Z</time>
  <course>10.71</course>
  <speed>0.0</speed>
  <fix>3d</fix>
</trkpt>
<trkpt lat="-27.274439" lon="151.290064">
  <ele>343.1</ele>
  <time>2026-09-01T19:50:08Z</time>
  <course>270.0</course>
  <speed>0.0</speed>
  <fix>3d</fix>
</trkpt>
<trkpt lat="-27.274439" lon="151.290064">
  <ele>343.08</ele>
  <time>2026-09-01T19:50:08Z</time>
  <course>10.71</course>
  <speed>0.0</speed>
  <fix>3d</fix>
</trkpt>
<trkpt lat="-27.274439" lon="151.290064">
  <ele>343.1</ele>
  <time>2026-09-01T19:50:08Z</time>
  <course>270.0</course>
  <speed>0.0</speed>
  <fix>3d</fix>
</trkpt>
<trkpt lat="-27.274439" lon="151.290064">
  <ele>343.08</ele>
  <time>2026-09-01T19:50:08Z</time>
  <course>10.71</course>
  <speed>0.0</speed>
  <fix>3d</fix>
</trkpt>
<trkpt lat="-27.274439" lon="151.290064">
  <ele>343.1</ele>
  <time>2026-09-01T19:50:08Z</time>
  <course>270.0</course>
  <speed>0.0</speed>
  <fix>3d</fix>
</trkpt>
<trkpt lat="-27.274439" lon="151.290064">
  <ele>343.08</ele>
  <time>2026-09-01T19:50:08Z</time>
  <course>10.71</course>
  <speed>0.0</speed>
  <fix>3d</fix>
</trkpt>
<trkpt lat="-27.274439" lon="151.290064">
  <ele>343.1</ele>
  <time>2026-09-01T19:50:08Z</time>
  <course>270.0</course>
  <speed>0.0</speed>
  <fix>3d</fix>
</trkpt>
<trkpt lat="-27.274439" lon="151.290064">
  <ele>343.08</ele>
  <time>2026-09-01T19:50:08Z</time>
  <course>10.71</course>
  <speed>0.0</speed>
  <fix>3d</fix>
</trkpt>
<trkpt lat="-27.274439" lon="151.290064">
  <ele>343.1</ele>
  <time>2026-09-01T19:50:08Z</time>
  <course>270.0</course>
  <speed>0.0</speed>
  <fix>3d</fix>
</trkpt>
<trkpt lat="-27.274439" lon="151.290064">
  <ele>343.07</ele>
  <time>2026-09-01T19:50:08Z</time>
  <course>10.71</course>
  <speed>0.0</speed>
  <fix>3d</fix>
</trkpt>
<trkpt lat="-27.274439" lon="151.290064">
  <ele>343.1</ele>
  <time>2026-09-01T19:50:08Z</time>
  <course>270.0</course>
  <speed>0.0</speed>
  <fix>3d</fix>
</trkpt>
<trkpt lat="-27.274439" lon="151.290064">
  <ele>343.07</ele>
  <time>2026-09-01T19:50:08Z</time>
  <course>10.71</course>
  <speed>0.0</speed>
  <fix>3d</fix>
</trkpt>
<trkpt lat="-27.274439" lon="151.290064">
  <ele>343.1</ele>
  <time>2026-09-01T19:50:08Z</time>
  <course>270.0</course>
  <speed>0.0</speed>
  <fix>3d</fix>
</trkpt>
<trkpt lat="-27.274439" lon="151.290064">
  <ele>343.07</ele>
  <time>2026-09-01T19:50:08Z</time>
  <course>10.71</course>
  <speed>0.0</speed>
  <fix>3d</fix>
</trkpt>
<trkpt lat="-27.274439" lon="151.290064">
  <ele>343.1</ele>
  <time>2026-09-01T19:50:08Z</time>
  <course>270.0</course>
  <speed>0.0</speed>
  <fix>3d</fix>
</trkpt>
<trkpt lat="-27.274439" lon="151.290064">
  <ele>343.07</ele>
  <time>2026-09-01T19:50:08Z</time>
  <course>10.71</course>
  <speed>0.0</speed>
  <fix>3d</fix>
</trkpt>
<trkpt lat="-27.274439" lon="151.290064">
  <ele>343.1</ele>
  <time>2026-09-01T19:50:08Z</time>
  <course>270.0</course>
  <speed>0.0</speed>
  <fix>3d</fix>
</trkpt>
<trkpt lat="-27.274439" lon="151.290064">
  <ele>343.07</ele>
  <time>2026-09-01T19:50:08Z</time>
  <course>10.71</course>
  <speed>0.0</speed>
  <fix>3d</fix>
</trkpt>
<trkpt lat="-27.274439" lon="151.290064">
  <ele>343.1</ele>
  <time>2026-09-01T19:50:08Z</time>
  <course>270.0</course>
  <speed>0.0</speed>
  <fix>3d</fix>
</trkpt>
<trkpt lat="-27.274439" lon="151.290064">
  <ele>343.06</ele>
  <time>2026-09-01T19:50:08Z</time>
  <course>10.71</course>
  <speed>0.0</speed>
  <fix>3d</fix>
</trkpt>
<trkpt lat="-27.274439" lon="151.290064">
  <ele>343.1</ele>
  <time>2026-09-01T19:50:08Z</time>
  <course>270.0</course>
  <speed>0.0</speed>
  <fix>3d</fix>
</trkpt>
<trkpt lat="-27.274439" lon="151.290064">
  <ele>343.06</ele>
  <time>2026-09-01T19:50:08Z</time>
  <course>10.71</course>
  <speed>0.0</speed>
  <fix>3d</fix>
</trkpt>
<trkpt lat="-27.274439" lon="151.290064">
  <ele>343.1</ele>
  <time>2026-09-01T19:50:08Z</time>
  <course>270.0</course>
  <speed>0.0</speed>
  <fix>3d</fix>
</trkpt>
<trkpt lat="-27.274439" lon="151.290064">
  <ele>343.06</ele>
  <time>2026-09-01T19:50:08Z</time>
  <course>10.71</course>
  <speed>0.0</speed>
  <fix>3d</fix>
</trkpt>
<trkpt lat="-27.274439" lon="151.290064">
  <ele>343.1</ele>
  <time>2026-09-01T19:50:08Z</time>
  <course>270.0</course>
  <speed>0.0</speed>
  <fix>3d</fix>
</trkpt>
<trkpt lat="-27.274439" lon="151.290064">
  <ele>343.06</ele>
  <time>2026-09-01T19:50:08Z</time>
  <course>10.71</course>
  <speed>0.0</speed>
  <fix>3d</fix>
</trkpt>
<trkpt lat="-27.274439" lon="151.290064">
  <ele>343.1</ele>
  <time>2026-09-01T19:50:08Z</time>
  <course>270.0</course>
  <speed>0.0</speed>
  <fix>3d</fix>
</trkpt>
<trkpt lat="-27.274439" lon="151.290064">
  <ele>343.06</ele>
  <time>2026-09-01T19:50:08Z</time>
  <course>10.71</course>
  <speed>0.0</speed>
  <fix>3d</fix>
</trkpt>
<trkpt lat="-27.274439" lon="151.290064">
  <ele>343.1</ele>
  <time>2026-09-01T19:50:08Z</time>
  <course>270.0</course>
  <speed>0.0</speed>
  <fix>3d</fix>
</trkpt>
<trkpt lat="-27.274439" lon="151.290064">
  <ele>343.07</ele>
  <time>2026-09-01T19:50:08Z</time>
  <course>10.71</course>
  <speed>0.0</speed>
  <fix>3d</fix>
</trkpt>
<trkpt lat="-27.274439" lon="151.290064">
  <ele>343.1</ele>
  <time>2026-09-01T19:50:08Z</time>
  <course>270.0</course>
  <speed>0.0</speed>
  <fix>3d</fix>
</trkpt>
<trkpt lat="-27.274439" lon="151.290064">
  <ele>343.07</ele>
  <time>2026-09-01T19:50:08Z</time>
  <course>10.71</course>
  <speed>0.0</speed>
  <fix>3d</fix>
</trkpt>
<trkpt lat="-27.274439" lon="151.290064">
  <ele>343.1</ele>
  <time>2026-09-01T19:50:08Z</time>
  <course>270.0</course>
  <speed>0.0</speed>
  <fix>3d</fix>
</trkpt>
<trkpt lat="-27.274439" lon="151.290064">
  <ele>343.07</ele>
  <time>2026-09-01T19:50:08Z</time>
  <course>10.71</course>
  <speed>0.0</speed>
  <fix>3d</fix>
</trkpt>
<trkpt lat="-27.274439" lon="151.290064">
  <ele>343.1</ele>
  <time>2026-09-01T19:50:08Z</time>
  <course>270.0</course>
  <speed>0.0</speed>
  <fix>3d</fix>
</trkpt>
<trkpt lat="-27.274439" lon="151.290064">
  <ele>343.07</ele>
  <time>2026-09-01T19:50:08Z</time>
  <course>10.71</course>
  <speed>0.0</speed>
  <fix>3d</fix>
</trkpt>
<trkpt lat="-27.274439" lon="151.290064">
  <ele>343.1</ele>
  <time>2026-09-01T19:50:08Z</time>
  <course>270.0</course>
  <speed>0.0</speed>
  <fix>3d</fix>
</trkpt>
<trkpt lat="-27.274439" lon="151.290064">
  <ele>343.07</ele>
  <time>2026-09-01T19:50:08Z</time>
  <course>10.71</course>
  <speed>0.0</speed>
  <fix>3d</fix>
</trkpt>
<trkpt lat="-27.274439" lon="151.290064">
  <ele>343.1</ele>
  <time>2026-09-01T19:50:08Z</time>
  <course>270.0</course>
  <speed>0.0</speed>
  <fix>3d</fix>
</trkpt>
<trkpt lat="-27.274439" lon="151.290064">
  <ele>343.07</ele>
  <time>2026-09-01T19:50:08Z</time>
  <course>10.71</course>
  <speed>0.0</speed>
  <fix>3d</fix>
</trkpt>
<trkpt lat="-27.274439" lon="151.290064">
  <ele>343.1</ele>
  <time>2026-09-01T19:50:08Z</time>
  <course>270.0</course>
  <speed>0.0</speed>
  <fix>3d</fix>
</trkpt>
<trkpt lat="-27.274439" lon="151.290064">
  <ele>343.07</ele>
  <time>2026-09-01T19:50:09Z</time>
  <course>10.71</course>
  <speed>0.0</speed>
  <fix>3d</fix>
</trkpt>
<trkpt lat="-27.274439" lon="151.290064">
  <ele>343.1</ele>
  <time>2026-09-01T19:50:09Z</time>
  <course>270.0</course>
  <speed>0.0</speed>
  <fix>3d</fix>
</trkpt>
<trkpt lat="-27.274439" lon="151.290064">
  <ele>343.07</ele>
  <time>2026-09-01T19:50:09Z</time>
  <course>10.71</course>
  <speed>0.0</speed>
  <fix>3d</fix>
</trkpt>
<trkpt lat="-27.274439" lon="151.290064">
  <ele>343.1</ele>
  <time>2026-09-01T19:50:09Z</time>
  <course>270.0</course>
  <speed>0.0</speed>
  <fix>3d</fix>
</trkpt>
<trkpt lat="-27.274439" lon="151.290064">
  <ele>343.07</ele>
  <time>2026-09-01T19:50:09Z</time>
  <course>10.71</course>
  <speed>0.0</speed>
  <fix>3d</fix>
</trkpt>
<trkpt lat="-27.274439" lon="151.290064">
  <ele>343.1</ele>
  <time>2026-09-01T19:50:09Z</time>
  <course>270.0</course>
  <speed>0.0</speed>
  <fix>3d</fix>
</trkpt>
<trkpt lat="-27.274439" lon="151.290064">
  <ele>343.08</ele>
  <time>2026-09-01T19:50:09Z</time>
  <course>10.71</course>
  <speed>0.0</speed>
  <fix>3d</fix>
</trkpt>
<trkpt lat="-27.274439" lon="151.290064">
  <ele>343.1</ele>
  <time>2026-09-01T19:50:09Z</time>
  <course>270.0</course>
  <speed>0.0</speed>
  <fix>3d</fix>
</trkpt>
<trkpt lat="-27.274439" lon="151.290064">
  <ele>343.08</ele>
  <time>2026-09-01T19:50:09Z</time>
  <course>10.71</course>
  <speed>0.0</speed>
  <fix>3d</fix>
</trkpt>
<trkpt lat="-27.274439" lon="151.290064">
  <ele>343.1</ele>
  <time>2026-09-01T19:50:09Z</time>
  <course>270.0</course>
  <speed>0.0</speed>
  <fix>3d</fix>
</trkpt>
<trkpt lat="-27.274439" lon="151.290064">
  <ele>343.08</ele>
  <time>2026-09-01T19:50:09Z</time>
  <course>10.71</course>
  <speed>0.0</speed>
  <fix>3d</fix>
</trkpt>
<trkpt lat="-27.274439" lon="151.290064">
  <ele>343.1</ele>
  <time>2026-09-01T19:50:09Z</time>
  <course>270.0</course>
  <speed>0.0</speed>
  <fix>3d</fix>
</trkpt>
<trkpt lat="-27.274439" lon="151.290064">
  <ele>343.08</ele>
  <time>2026-09-01T19:50:09Z</time>
  <course>10.71</course>
  <speed>0.0</speed>
  <fix>3d</fix>
</trkpt>
<trkpt lat="-27.274439" lon="151.290064">
  <ele>343.1</ele>
  <time>2026-09-01T19:50:09Z</time>
  <course>270.0</course>
  <speed>0.0</speed>
  <fix>3d</fix>
</trkpt>
<trkpt lat="-27.274439" lon="151.290064">
  <ele>343.08</ele>
  <time>2026-09-01T19:50:09Z</time>
  <course>10.71</course>
  <speed>0.0</speed>
  <fix>3d</fix>
</trkpt>
<trkpt lat="-27.274439" lon="151.290064">
  <ele>343.1</ele>
  <time>2026-09-01T19:50:09Z</time>
  <course>270.0</course>
  <speed>0.0</speed>
  <fix>3d</fix>
</trkpt>
<trkpt lat="-27.274439" lon="151.290064">
  <ele>343.08</ele>
  <time>2026-09-01T19:50:09Z</time>
  <course>10.71</course>
  <speed>0.0</speed>
  <fix>3d</fix>
</trkpt>
<trkpt lat="-27.274439" lon="151.290064">
  <ele>343.1</ele>
  <time>2026-09-01T19:50:09Z</time>
  <course>270.0</course>
  <speed>0.0</speed>
  <fix>3d</fix>
</trkpt>
<trkpt lat="-27.274439" lon="151.290064">
  <ele>343.08</ele>
  <time>2026-09-01T19:50:09Z</time>
  <course>10.71</course>
  <speed>0.0</speed>
  <fix>3d</fix>
</trkpt>
<trkpt lat="-27.274439" lon="151.290064">
  <ele>343.1</ele>
  <time>2026-09-01T19:50:09Z</time>
  <course>270.0</course>
  <speed>0.0</speed>
  <fix>3d</fix>
</trkpt>
<trkpt lat="-27.274439" lon="151.290064">
  <ele>343.08</ele>
  <time>2026-09-01T19:50:09Z</time>
  <course>10.71</course>
  <speed>0.0</speed>
  <fix>3d</fix>
</trkpt>
<trkpt lat="-27.274439" lon="151.290064">
  <ele>343.1</ele>
  <time>2026-09-01T19:50:09Z</time>
  <course>270.0</course>
  <speed>0.0</speed>
  <fix>3d</fix>
</trkpt>
<trkpt lat="-27.274439" lon="151.290064">
  <ele>343.08</ele>
  <time>2026-09-01T19:50:09Z</time>
  <course>10.71</course>
  <speed>0.0</speed>
  <fix>3d</fix>
</trkpt>
<trkpt lat="-27.274439" lon="151.290064">
  <ele>343.1</ele>
  <time>2026-09-01T19:50:09Z</time>
  <course>270.0</course>
  <speed>0.0</speed>
  <fix>3d</fix>
</trkpt>
<trkpt lat="-27.274439" lon="151.290064">
  <ele>343.08</ele>
  <time>2026-09-01T19:50:09Z</time>
  <course>10.71</course>
  <speed>0.0</speed>
  <fix>3d</fix>
</trkpt>
<trkpt lat="-27.274439" lon="151.290064">
  <ele>343.1</ele>
  <time>2026-09-01T19:50:09Z</time>
  <course>270.0</course>
  <speed>0.0</speed>
  <fix>3d</fix>
</trkpt>
<trkpt lat="-27.274439" lon="151.290064">
  <ele>343.08</ele>
  <time>2026-09-01T19:50:09Z</time>
  <course>10.71</course>
  <speed>0.0</speed>
  <fix>3d</fix>
</trkpt>
<trkpt lat="-27.274439" lon="151.290064">
  <ele>343.1</ele>
  <time>2026-09-01T19:50:09Z</time>
  <course>270.0</course>
  <speed>0.0</speed>
  <fix>3d</fix>
</trkpt>
<trkpt lat="-27.274439" lon="151.290064">
  <ele>343.08</ele>
  <time>2026-09-01T19:50:09Z</time>
  <course>10.71</course>
  <speed>0.0</speed>
  <fix>3d</fix>
</trkpt>
<trkpt lat="-27.274439" lon="151.290064">
  <ele>343.1</ele>
  <time>2026-09-01T19:50:09Z</time>
  <course>270.0</course>
  <speed>0.0</speed>
  <fix>3d</fix>
</trkpt>
<trkpt lat="-27.274439" lon="151.290064">
  <ele>343.08</ele>
  <time>2026-09-01T19:50:09Z</time>
  <course>10.71</course>
  <speed>0.0</speed>
  <fix>3d</fix>
</trkpt>
<trkpt lat="-27.274439" lon="151.290064">
  <ele>343.1</ele>
  <time>2026-09-01T19:50:09Z</time>
  <course>270.0</course>
  <speed>0.0</speed>
  <fix>3d</fix>
</trkpt>
<trkpt lat="-27.274439" lon="151.290064">
  <ele>343.07</ele>
  <time>2026-09-01T19:50:09Z</time>
  <course>10.71</course>
  <speed>0.0</speed>
  <fix>3d</fix>
</trkpt>
<trkpt lat="-27.274439" lon="151.290064">
  <ele>343.1</ele>
  <time>2026-09-01T19:50:09Z</time>
  <course>270.0</course>
  <speed>0.0</speed>
  <fix>3d</fix>
</trkpt>
<trkpt lat="-27.274439" lon="151.290064">
  <ele>343.07</ele>
  <time>2026-09-01T19:50:09Z</time>
  <course>10.71</course>
  <speed>0.0</speed>
  <fix>3d</fix>
</trkpt>
<trkpt lat="-27.274439" lon="151.290064">
  <ele>343.1</ele>
  <time>2026-09-01T19:50:09Z</time>
  <course>270.0</course>
  <speed>0.0</speed>
  <fix>3d</fix>
</trkpt>
<trkpt lat="-27.274439" lon="151.290064">
  <ele>343.07</ele>
  <time>2026-09-01T19:50:09Z</time>
  <course>10.71</course>
  <speed>0.0</speed>
  <fix>3d</fix>
</trkpt>
<trkpt lat="-27.274439" lon="151.290064">
  <ele>343.1</ele>
  <time>2026-09-01T19:50:09Z</time>
  <course>270.0</course>
  <speed>0.0</speed>
  <fix>3d</fix>
</trkpt>
<trkpt lat="-27.274439" lon="151.290064">
  <ele>343.07</ele>
  <time>2026-09-01T19:50:09Z</time>
  <course>10.71</course>
  <speed>0.0</speed>
  <fix>3d</fix>
</trkpt>
<trkpt lat="-27.274439" lon="151.290064">
  <ele>343.1</ele>
  <time>2026-09-01T19:50:09Z</time>
  <course>270.0</course>
  <speed>0.0</speed>
  <fix>3d</fix>
</trkpt>
<trkpt lat="-27.274439" lon="151.290064">
  <ele>343.07</ele>
  <time>2026-09-01T19:50:09Z</time>
  <course>10.71</course>
  <speed>0.0</speed>
  <fix>3d</fix>
</trkpt>
<trkpt lat="-27.274439" lon="151.290064">
  <ele>343.1</ele>
  <time>2026-09-01T19:50:09Z</time>
  <course>270.0</course>
  <speed>0.0</speed>
  <fix>3d</fix>
</trkpt>
<trkpt lat="-27.274439" lon="151.290064">
  <ele>343.07</ele>
  <time>2026-09-01T19:50:09Z</time>
  <course>10.71</course>
  <speed>0.0</speed>
  <fix>3d</fix>
</trkpt>
<trkpt lat="-27.274439" lon="151.290064">
  <ele>343.1</ele>
  <time>2026-09-01T19:50:09Z</time>
  <course>270.0</course>
  <speed>0.0</speed>
  <fix>3d</fix>
</trkpt>
<trkpt lat="-27.274439" lon="151.290064">
  <ele>343.07</ele>
  <time>2026-09-01T19:50:09Z</time>
  <course>10.71</course>
  <speed>0.0</speed>
  <fix>3d</fix>
</trkpt>
<trkpt lat="-27.274439" lon="151.290064">
  <ele>343.1</ele>
  <time>2026-09-01T19:50:09Z</time>
  <course>270.0</course>
  <speed>0.0</speed>
  <fix>3d</fix>
</trkpt>
<trkpt lat="-27.274439" lon="151.290064">
  <ele>343.07</ele>
  <time>2026-09-01T19:50:09Z</time>
  <course>10.71</course>
  <speed>0.0</speed>
  <fix>3d</fix>
</trkpt>
<trkpt lat="-27.274439" lon="151.290064">
  <ele>343.1</ele>
  <time>2026-09-01T19:50:09Z</time>
  <course>270.0</course>
  <speed>0.0</speed>
  <fix>3d</fix>
</trkpt>
<trkpt lat="-27.274439" lon="151.290064">
  <ele>343.07</ele>
  <time>2026-09-01T19:50:09Z</time>
  <course>10.71</course>
  <speed>0.0</speed>
  <fix>3d</fix>
</trkpt>
<trkpt lat="-27.274439" lon="151.290064">
  <ele>343.1</ele>
  <time>2026-09-01T19:50:09Z</time>
  <course>270.0</course>
  <speed>0.0</speed>
  <fix>3d</fix>
</trkpt>
<trkpt lat="-27.274439" lon="151.290064">
  <ele>343.07</ele>
  <time>2026-09-01T19:50:09Z</time>
  <course>10.71</course>
  <speed>0.0</speed>
  <fix>3d</fix>
</trkpt>
<trkpt lat="-27.274439" lon="151.290064">
  <ele>343.1</ele>
  <time>2026-09-01T19:50:09Z</time>
  <course>270.0</course>
  <speed>0.0</speed>
  <fix>3d</fix>
</trkpt>
<trkpt lat="-27.274439" lon="151.290064">
  <ele>343.08</ele>
  <time>2026-09-01T19:50:09Z</time>
  <course>10.71</course>
  <speed>0.0</speed>
  <fix>3d</fix>
</trkpt>
<trkpt lat="-27.274439" lon="151.290064">
  <ele>343.1</ele>
  <time>2026-09-01T19:50:09Z</time>
  <course>270.0</course>
  <speed>0.0</speed>
  <fix>3d</fix>
</trkpt>
<trkpt lat="-27.274439" lon="151.290064">
  <ele>343.08</ele>
  <time>2026-09-01T19:50:09Z</time>
  <course>10.71</course>
  <speed>0.0</speed>
  <fix>3d</fix>
</trkpt>
<trkpt lat="-27.274439" lon="151.290064">
  <ele>343.1</ele>
  <time>2026-09-01T19:50:09Z</time>
  <course>270.0</course>
  <speed>0.0</speed>
  <fix>3d</fix>
</trkpt>
<trkpt lat="-27.274439" lon="151.290064">
  <ele>343.08</ele>
  <time>2026-09-01T19:50:09Z</time>
  <course>10.71</course>
  <speed>0.0</speed>
  <fix>3d</fix>
</trkpt>
<trkpt lat="-27.274439" lon="151.290064">
  <ele>343.1</ele>
  <time>2026-09-01T19:50:09Z</time>
  <course>270.0</course>
  <speed>0.0</speed>
  <fix>3d</fix>
</trkpt>
<trkpt lat="-27.274439" lon="151.290064">
  <ele>343.08</ele>
  <time>2026-09-01T19:50:09Z</time>
  <course>10.71</course>
  <speed>0.0</speed>
  <fix>3d</fix>
</trkpt>
<trkpt lat="-27.274439" lon="151.290064">
  <ele>343.1</ele>
  <time>2026-09-01T19:50:09Z</time>
  <course>270.0</course>
  <speed>0.0</speed>
  <fix>3d</fix>
</trkpt>
<trkpt lat="-27.274439" lon="151.290064">
  <ele>343.08</ele>
  <time>2026-09-01T19:50:09Z</time>
  <course>10.71</course>
  <speed>0.0</speed>
  <fix>3d</fix>
</trkpt>
<trkpt lat="-27.274439" lon="151.290064">
  <ele>343.1</ele>
  <time>2026-09-01T19:50:09Z</time>
  <course>270.0</course>
  <speed>0.0</speed>
  <fix>3d</fix>
</trkpt>
<trkpt lat="-27.274439" lon="151.290064">
  <ele>343.08</ele>
  <time>2026-09-01T19:50:09Z</time>
  <course>10.71</course>
  <speed>0.0</speed>
  <fix>3d</fix>
</trkpt>
<trkpt lat="-27.274439" lon="151.290064">
  <ele>343.1</ele>
  <time>2026-09-01T19:50:09Z</time>
  <course>270.0</course>
  <speed>0.0</speed>
  <fix>3d</fix>
</trkpt>
<trkpt lat="-27.274439" lon="151.290064">
  <ele>343.08</ele>
  <time>2026-09-01T19:50:09Z</time>
  <course>10.7</course>
  <speed>0.0</speed>
  <fix>3d</fix>
</trkpt>
<trkpt lat="-27.274439" lon="151.290064">
  <ele>343.1</ele>
  <time>2026-09-01T19:50:09Z</time>
  <course>270.0</course>
  <speed>0.0</speed>
  <fix>3d</fix>
</trkpt>
<trkpt lat="-27.274439" lon="151.290064">
  <ele>343.08</ele>
  <time>2026-09-01T19:50:09Z</time>
  <course>10.7</course>
  <speed>0.0</speed>
  <fix>3d</fix>
</trkpt>
<trkpt lat="-27.274439" lon="151.290064">
  <ele>343.1</ele>
  <time>2026-09-01T19:50:09Z</time>
  <course>270.0</course>
  <speed>0.0</speed>
  <fix>3d</fix>
</trkpt>
<trkpt lat="-27.274439" lon="151.290064">
  <ele>343.08</ele>
  <time>2026-09-01T19:50:09Z</time>
  <course>10.7</course>
  <speed>0.0</speed>
  <fix>3d</fix>
</trkpt>
<trkpt lat="-27.274439" lon="151.290064">
  <ele>343.1</ele>
  <time>2026-09-01T19:50:09Z</time>
  <course>270.0</course>
  <speed>0.0</speed>
  <fix>3d</fix>
</trkpt>
<trkpt lat="-27.274439" lon="151.290064">
  <ele>343.08</ele>
  <time>2026-09-01T19:50:09Z</time>
  <course>10.7</course>
  <speed>0.0</speed>
  <fix>3d</fix>
</trkpt>
<trkpt lat="-27.274439" lon="151.290064">
  <ele>343.1</ele>
  <time>2026-09-01T19:50:09Z</time>
  <course>270.0</course>
  <speed>0.0</speed>
  <fix>3d</fix>
</trkpt>
<trkpt lat="-27.274439" lon="151.290064">
  <ele>343.09</ele>
  <time>2026-09-01T19:50:09Z</time>
  <course>10.7</course>
  <speed>0.0</speed>
  <fix>3d</fix>
</trkpt>
<trkpt lat="-27.274439" lon="151.290064">
  <ele>343.1</ele>
  <time>2026-09-01T19:50:09Z</time>
  <course>270.0</course>
  <speed>0.0</speed>
  <fix>3d</fix>
</trkpt>
<trkpt lat="-27.274439" lon="151.290064">
  <ele>343.09</ele>
  <time>2026-09-01T19:50:09Z</time>
  <course>10.7</course>
  <speed>0.0</speed>
  <fix>3d</fix>
</trkpt>
<trkpt lat="-27.274439" lon="151.290064">
  <ele>343.1</ele>
  <time>2026-09-01T19:50:09Z</time>
  <course>270.0</course>
  <speed>0.0</speed>
  <fix>3d</fix>
</trkpt>
<trkpt lat="-27.274439" lon="151.290064">
  <ele>343.09</ele>
  <time>2026-09-01T19:50:09Z</time>
  <course>10.71</course>
  <speed>0.0</speed>
  <fix>3d</fix>
</trkpt>
<trkpt lat="-27.274439" lon="151.290064">
  <ele>343.1</ele>
  <time>2026-09-01T19:50:09Z</time>
  <course>270.0</course>
  <speed>0.0</speed>
  <fix>3d</fix>
</trkpt>
<trkpt lat="-27.274439" lon="151.290064">
  <ele>343.09</ele>
  <time>2026-09-01T19:50:09Z</time>
  <course>10.7</course>
  <speed>0.0</speed>
  <fix>3d</fix>
</trkpt>
<trkpt lat="-27.274439" lon="151.290064">
  <ele>343.1</ele>
  <time>2026-09-01T19:50:09Z</time>
  <course>270.0</course>
  <speed>0.0</speed>
  <fix>3d</fix>
</trkpt>
<trkpt lat="-27.274439" lon="151.290064">
  <ele>343.1</ele>
  <time>2026-09-01T19:50:09Z</time>
  <course>10.7</course>
  <speed>0.0</speed>
  <fix>3d</fix>
</trkpt>
<trkpt lat="-27.274439" lon="151.290064">
  <ele>343.1</ele>
  <time>2026-09-01T19:50:09Z</time>
  <course>270.0</course>
  <speed>0.0</speed>
  <fix>3d</fix>
</trkpt>
<trkpt lat="-27.274439" lon="151.290064">
  <ele>343.09</ele>
  <time>2026-09-01T19:50:09Z</time>
  <course>10.71</course>
  <speed>0.0</speed>
  <fix>3d</fix>
</trkpt>
<trkpt lat="-27.274439" lon="151.290064">
  <ele>343.1</ele>
  <time>2026-09-01T19:50:09Z</time>
  <course>270.0</course>
  <speed>0.0</speed>
  <fix>3d</fix>
</trkpt>
<trkpt lat="-27.274439" lon="151.290064">
  <ele>343.09</ele>
  <time>2026-09-01T19:50:09Z</time>
  <course>10.71</course>
  <speed>0.0</speed>
  <fix>3d</fix>
</trkpt>
<trkpt lat="-27.274439" lon="151.290064">
  <ele>343.1</ele>
  <time>2026-09-01T19:50:09Z</time>
  <course>270.0</course>
  <speed>0.0</speed>
  <fix>3d</fix>
</trkpt>
<trkpt lat="-27.274439" lon="151.290064">
  <ele>343.09</ele>
  <time>2026-09-01T19:50:09Z</time>
  <course>10.71</course>
  <speed>0.0</speed>
  <fix>3d</fix>
</trkpt>
<trkpt lat="-27.274439" lon="151.290064">
  <ele>343.1</ele>
  <time>2026-09-01T19:50:09Z</time>
  <course>270.0</course>
  <speed>0.0</speed>
  <fix>3d</fix>
</trkpt>
<trkpt lat="-27.274439" lon="151.290064">
  <ele>343.09</ele>
  <time>2026-09-01T19:50:09Z</time>
  <course>10.71</course>
  <speed>0.0</speed>
  <fix>3d</fix>
</trkpt>
<trkpt lat="-27.274439" lon="151.290064">
  <ele>343.1</ele>
  <time>2026-09-01T19:50:09Z</time>
  <course>270.0</course>
  <speed>0.0</speed>
  <fix>3d</fix>
</trkpt>
<trkpt lat="-27.274439" lon="151.290064">
  <ele>343.1</ele>
  <time>2026-09-01T19:50:09Z</time>
  <course>10.71</course>
  <speed>0.0</speed>
  <fix>3d</fix>
</trkpt>
<trkpt lat="-27.274439" lon="151.290064">
  <ele>343.1</ele>
  <time>2026-09-01T19:50:09Z</time>
  <course>270.0</course>
  <speed>0.0</speed>
  <fix>3d</fix>
</trkpt>
<trkpt lat="-27.274439" lon="151.290064">
  <ele>343.1</ele>
  <time>2026-09-01T19:50:09Z</time>
  <course>10.71</course>
  <speed>0.0</speed>
  <fix>3d</fix>
</trkpt>
<trkpt lat="-27.274439" lon="151.290064">
  <ele>343.1</ele>
  <time>2026-09-01T19:50:09Z</time>
  <course>270.0</course>
  <speed>0.0</speed>
  <fix>3d</fix>
</trkpt>
<trkpt lat="-27.274439" lon="151.290064">
  <ele>343.1</ele>
  <time>2026-09-01T19:50:09Z</time>
  <course>10.71</course>
  <speed>0.0</speed>
  <fix>3d</fix>
</trkpt>
<trkpt lat="-27.274439" lon="151.290064">
  <ele>343.1</ele>
  <time>2026-09-01T19:50:09Z</time>
  <course>270.0</course>
  <speed>0.0</speed>
  <fix>3d</fix>
</trkpt>
<trkpt lat="-27.274439" lon="151.290064">
  <ele>343.1</ele>
  <time>2026-09-01T19:50:09Z</time>
  <course>10.71</course>
  <speed>0.0</speed>
  <fix>3d</fix>
</trkpt>
<trkpt lat="-27.274439" lon="151.290064">
  <ele>343.1</ele>
  <time>2026-09-01T19:50:09Z</time>
  <course>270.0</course>
  <speed>0.0</speed>
  <fix>3d</fix>
</trkpt>
<trkpt lat="-27.274439" lon="151.290064">
  <ele>343.1</ele>
  <time>2026-09-01T19:50:09Z</time>
  <course>10.71</course>
  <speed>0.0</speed>
  <fix>3d</fix>
</trkpt>
<trkpt lat="-27.274439" lon="151.290064">
  <ele>343.1</ele>
  <time>2026-09-01T19:50:09Z</time>
  <course>270.0</course>
  <speed>0.0</speed>
  <fix>3d</fix>
</trkpt>
<trkpt lat="-27.274439" lon="151.290064">
  <ele>343.09</ele>
  <time>2026-09-01T19:50:09Z</time>
  <course>10.71</course>
  <speed>0.0</speed>
  <fix>3d</fix>
</trkpt>
<trkpt lat="-27.274439" lon="151.290064">
  <ele>343.1</ele>
  <time>2026-09-01T19:50:09Z</time>
  <course>270.0</course>
  <speed>0.0</speed>
  <fix>3d</fix>
</trkpt>
<trkpt lat="-27.274439" lon="151.290064">
  <ele>343.09</ele>
  <time>2026-09-01T19:50:09Z</time>
  <course>10.71</course>
  <speed>0.0</speed>
  <fix>3d</fix>
</trkpt>
<trkpt lat="-27.274439" lon="151.290064">
  <ele>343.1</ele>
  <time>2026-09-01T19:50:09Z</time>
  <course>270.0</course>
  <speed>0.0</speed>
  <fix>3d</fix>
</trkpt>
<trkpt lat="-27.274439" lon="151.290064">
  <ele>343.09</ele>
  <time>2026-09-01T19:50:09Z</time>
  <course>10.71</course>
  <speed>0.0</speed>
  <fix>3d</fix>
</trkpt>
<trkpt lat="-27.274439" lon="151.290064">
  <ele>343.1</ele>
  <time>2026-09-01T19:50:09Z</time>
  <course>270.0</course>
  <speed>0.0</speed>
  <fix>3d</fix>
</trkpt>
<trkpt lat="-27.274439" lon="151.290064">
  <ele>343.09</ele>
  <time>2026-09-01T19:50:09Z</time>
  <course>10.71</course>
  <speed>0.0</speed>
  <fix>3d</fix>
</trkpt>
<trkpt lat="-27.274439" lon="151.290064">
  <ele>343.1</ele>
  <time>2026-09-01T19:50:09Z</time>
  <course>270.0</course>
  <speed>0.0</speed>
  <fix>3d</fix>
</trkpt>
<trkpt lat="-27.274439" lon="151.290064">
  <ele>343.08</ele>
  <time>2026-09-01T19:50:09Z</time>
  <course>10.71</course>
  <speed>0.0</speed>
  <fix>3d</fix>
</trkpt>
<trkpt lat="-27.274439" lon="151.290064">
  <ele>343.1</ele>
  <time>2026-09-01T19:50:09Z</time>
  <course>270.0</course>
  <speed>0.0</speed>
  <fix>3d</fix>
</trkpt>
<trkpt lat="-27.274439" lon="151.290064">
  <ele>343.08</ele>
  <time>2026-09-01T19:50:09Z</time>
  <course>10.71</course>
  <speed>0.0</speed>
  <fix>3d</fix>
</trkpt>
<trkpt lat="-27.274439" lon="151.290064">
  <ele>343.1</ele>
  <time>2026-09-01T19:50:09Z</time>
  <course>270.0</course>
  <speed>0.0</speed>
  <fix>3d</fix>
</trkpt>
<trkpt lat="-27.274439" lon="151.290064">
  <ele>343.08</ele>
  <time>2026-09-01T19:50:09Z</time>
  <course>10.71</course>
  <speed>0.0</speed>
  <fix>3d</fix>
</trkpt>
<trkpt lat="-27.274439" lon="151.290064">
  <ele>343.1</ele>
  <time>2026-09-01T19:50:09Z</time>
  <course>270.0</course>
  <speed>0.0</speed>
  <fix>3d</fix>
</trkpt>
<trkpt lat="-27.274439" lon="151.290064">
  <ele>343.08</ele>
  <time>2026-09-01T19:50:09Z</time>
  <course>10.71</course>
  <speed>0.0</speed>
  <fix>3d</fix>
</trkpt>
<trkpt lat="-27.274439" lon="151.290064">
  <ele>343.1</ele>
  <time>2026-09-01T19:50:09Z</time>
  <course>270.0</course>
  <speed>0.0</speed>
  <fix>3d</fix>
</trkpt>
<trkpt lat="-27.274439" lon="151.290064">
  <ele>343.08</ele>
  <time>2026-09-01T19:50:09Z</time>
  <course>10.71</course>
  <speed>0.0</speed>
  <fix>3d</fix>
</trkpt>
<trkpt lat="-27.274439" lon="151.290064">
  <ele>343.1</ele>
  <time>2026-09-01T19:50:09Z</time>
  <course>270.0</course>
  <speed>0.0</speed>
  <fix>3d</fix>
</trkpt>
<trkpt lat="-27.274439" lon="151.290064">
  <ele>343.08</ele>
  <time>2026-09-01T19:50:09Z</time>
  <course>10.71</course>
  <speed>0.0</speed>
  <fix>3d</fix>
</trkpt>
<trkpt lat="-27.274439" lon="151.290064">
  <ele>343.1</ele>
  <time>2026-09-01T19:50:09Z</time>
  <course>270.0</course>
  <speed>0.0</speed>
  <fix>3d</fix>
</trkpt>
<trkpt lat="-27.274439" lon="151.290064">
  <ele>343.09</ele>
  <time>2026-09-01T19:50:09Z</time>
  <course>10.71</course>
  <speed>0.0</speed>
  <fix>3d</fix>
</trkpt>
<trkpt lat="-27.274439" lon="151.290064">
  <ele>343.1</ele>
  <time>2026-09-01T19:50:09Z</time>
  <course>270.0</course>
  <speed>0.0</speed>
  <fix>3d</fix>
</trkpt>
<trkpt lat="-27.274439" lon="151.290064">
  <ele>343.09</ele>
  <time>2026-09-01T19:50:09Z</time>
  <course>10.71</course>
  <speed>0.0</speed>
  <fix>3d</fix>
</trkpt>
<trkpt lat="-27.274439" lon="151.290064">
  <ele>343.1</ele>
  <time>2026-09-01T19:50:09Z</time>
  <course>270.0</course>
  <speed>0.0</speed>
  <fix>3d</fix>
</trkpt>
<trkpt lat="-27.274439" lon="151.290064">
  <ele>343.09</ele>
  <time>2026-09-01T19:50:09Z</time>
  <course>10.71</course>
  <speed>0.0</speed>
  <fix>3d</fix>
</trkpt>
<trkpt lat="-27.274439" lon="151.290064">
  <ele>343.1</ele>
  <time>2026-09-01T19:50:09Z</time>
  <course>270.0</course>
  <speed>0.0</speed>
  <fix>3d</fix>
</trkpt>
<trkpt lat="-27.274439" lon="151.290064">
  <ele>343.09</ele>
  <time>2026-09-01T19:50:09Z</time>
  <course>10.71</course>
  <speed>0.0</speed>
  <fix>3d</fix>
</trkpt>
<trkpt lat="-27.274439" lon="151.290064">
  <ele>343.1</ele>
  <time>2026-09-01T19:50:09Z</time>
  <course>270.0</course>
  <speed>0.0</speed>
  <fix>3d</fix>
</trkpt>
<trkpt lat="-27.274439" lon="151.290064">
  <ele>343.09</ele>
  <time>2026-09-01T19:50:09Z</time>
  <course>10.71</course>
  <speed>0.0</speed>
  <fix>3d</fix>
</trkpt>
<trkpt lat="-27.274439" lon="151.290064">
  <ele>343.1</ele>
  <time>2026-09-01T19:50:09Z</time>
  <course>270.0</course>
  <speed>0.0</speed>
  <fix>3d</fix>
</trkpt>
<trkpt lat="-27.274439" lon="151.290064">
  <ele>343.09</ele>
  <time>2026-09-01T19:50:09Z</time>
  <course>10.71</course>
  <speed>0.0</speed>
  <fix>3d</fix>
</trkpt>
<trkpt lat="-27.274439" lon="151.290064">
  <ele>343.1</ele>
  <time>2026-09-01T19:50:09Z</time>
  <course>270.0</course>
  <speed>0.0</speed>
  <fix>3d</fix>
</trkpt>
<trkpt lat="-27.274439" lon="151.290064">
  <ele>343.09</ele>
  <time>2026-09-01T19:50:09Z</time>
  <course>10.71</course>
  <speed>0.0</speed>
  <fix>3d</fix>
</trkpt>
<trkpt lat="-27.274439" lon="151.290064">
  <ele>343.1</ele>
  <time>2026-09-01T19:50:09Z</time>
  <course>270.0</course>
  <speed>0.0</speed>
  <fix>3d</fix>
</trkpt>
<trkpt lat="-27.274439" lon="151.290064">
  <ele>343.09</ele>
  <time>2026-09-01T19:50:09Z</time>
  <course>10.72</course>
  <speed>0.0</speed>
  <fix>3d</fix>
</trkpt>
<trkpt lat="-27.274439" lon="151.290064">
  <ele>343.1</ele>
  <time>2026-09-01T19:50:09Z</time>
  <course>270.0</course>
  <speed>0.0</speed>
  <fix>3d</fix>
</trkpt>
<trkpt lat="-27.274439" lon="151.290064">
  <ele>343.09</ele>
  <time>2026-09-01T19:50:09Z</time>
  <course>10.72</course>
  <speed>0.0</speed>
  <fix>3d</fix>
</trkpt>
<trkpt lat="-27.274439" lon="151.290064">
  <ele>343.1</ele>
  <time>2026-09-01T19:50:09Z</time>
  <course>270.0</course>
  <speed>0.0</speed>
  <fix>3d</fix>
</trkpt>
<trkpt lat="-27.274439" lon="151.290064">
  <ele>343.09</ele>
  <time>2026-09-01T19:50:09Z</time>
  <course>10.72</course>
  <speed>0.0</speed>
  <fix>3d</fix>
</trkpt>
<trkpt lat="-27.274439" lon="151.290064">
  <ele>343.1</ele>
  <time>2026-09-01T19:50:09Z</time>
  <course>270.0</course>
  <speed>0.0</speed>
  <fix>3d</fix>
</trkpt>
<trkpt lat="-27.274439" lon="151.290064">
  <ele>343.09</ele>
  <time>2026-09-01T19:50:09Z</time>
  <course>10.72</course>
  <speed>0.0</speed>
  <fix>3d</fix>
</trkpt>
<trkpt lat="-27.274439" lon="151.290064">
  <ele>343.1</ele>
  <time>2026-09-01T19:50:09Z</time>
  <course>270.0</course>
  <speed>0.0</speed>
  <fix>3d</fix>
</trkpt>
<trkpt lat="-27.274439" lon="151.290064">
  <ele>343.09</ele>
  <time>2026-09-01T19:50:09Z</time>
  <course>10.72</course>
  <speed>0.0</speed>
  <fix>3d</fix>
</trkpt>
<trkpt lat="-27.274439" lon="151.290064">
  <ele>343.1</ele>
  <time>2026-09-01T19:50:09Z</time>
  <course>270.0</course>
  <speed>0.0</speed>
  <fix>3d</fix>
</trkpt>
<trkpt lat="-27.274439" lon="151.290064">
  <ele>343.09</ele>
  <time>2026-09-01T19:50:09Z</time>
  <course>10.72</course>
  <speed>0.0</speed>
  <fix>3d</fix>
</trkpt>
<trkpt lat="-27.274439" lon="151.290064">
  <ele>343.1</ele>
  <time>2026-09-01T19:50:09Z</time>
  <course>270.0</course>
  <speed>0.0</speed>
  <fix>3d</fix>
</trkpt>
<trkpt lat="-27.274439" lon="151.290064">
  <ele>343.09</ele>
  <time>2026-09-01T19:50:09Z</time>
  <course>10.72</course>
  <speed>0.0</speed>
  <fix>3d</fix>
</trkpt>
<trkpt lat="-27.274439" lon="151.290064">
  <ele>343.1</ele>
  <time>2026-09-01T19:50:09Z</time>
  <course>270.0</course>
  <speed>0.0</speed>
  <fix>3d</fix>
</trkpt>
<trkpt lat="-27.274439" lon="151.290064">
  <ele>343.09</ele>
  <time>2026-09-01T19:50:09Z</time>
  <course>10.72</course>
  <speed>0.0</speed>
  <fix>3d</fix>
</trkpt>
<trkpt lat="-27.274439" lon="151.290064">
  <ele>343.1</ele>
  <time>2026-09-01T19:50:09Z</time>
  <course>270.0</course>
  <speed>0.0</speed>
  <fix>3d</fix>
</trkpt>
<trkpt lat="-27.274439" lon="151.290064">
  <ele>343.09</ele>
  <time>2026-09-01T19:50:09Z</time>
  <course>10.72</course>
  <speed>0.0</speed>
  <fix>3d</fix>
</trkpt>
<trkpt lat="-27.274439" lon="151.290064">
  <ele>343.1</ele>
  <time>2026-09-01T19:50:09Z</time>
  <course>270.0</course>
  <speed>0.0</speed>
  <fix>3d</fix>
</trkpt>
<trkpt lat="-27.274439" lon="151.290064">
  <ele>343.09</ele>
  <time>2026-09-01T19:50:09Z</time>
  <course>10.72</course>
  <speed>0.0</speed>
  <fix>3d</fix>
</trkpt>
<trkpt lat="-27.274439" lon="151.290064">
  <ele>343.1</ele>
  <time>2026-09-01T19:50:09Z</time>
  <course>270.0</course>
  <speed>0.0</speed>
  <fix>3d</fix>
</trkpt>
<trkpt lat="-27.274439" lon="151.290064">
  <ele>343.1</ele>
  <time>2026-09-01T19:50:09Z</time>
  <course>10.72</course>
  <speed>0.0</speed>
  <fix>3d</fix>
</trkpt>
<trkpt lat="-27.274439" lon="151.290064">
  <ele>343.1</ele>
  <time>2026-09-01T19:50:09Z</time>
  <course>270.0</course>
  <speed>0.0</speed>
  <fix>3d</fix>
</trkpt>
<trkpt lat="-27.274439" lon="151.290064">
  <ele>343.1</ele>
  <time>2026-09-01T19:50:09Z</time>
  <course>10.72</course>
  <speed>0.0</speed>
  <fix>3d</fix>
</trkpt>
<trkpt lat="-27.274439" lon="151.290064">
  <ele>343.1</ele>
  <time>2026-09-01T19:50:09Z</time>
  <course>270.0</course>
  <speed>0.0</speed>
  <fix>3d</fix>
</trkpt>
<trkpt lat="-27.274439" lon="151.290064">
  <ele>343.1</ele>
  <time>2026-09-01T19:50:09Z</time>
  <course>10.72</course>
  <speed>0.0</speed>
  <fix>3d</fix>
</trkpt>
<trkpt lat="-27.274439" lon="151.290064">
  <ele>343.1</ele>
  <time>2026-09-01T19:50:09Z</time>
  <course>270.0</course>
  <speed>0.0</speed>
  <fix>3d</fix>
</trkpt>
<trkpt lat="-27.274439" lon="151.290064">
  <ele>343.1</ele>
  <time>2026-09-01T19:50:09Z</time>
  <course>10.73</course>
  <speed>0.0</speed>
  <fix>3d</fix>
</trkpt>
<trkpt lat="-27.274439" lon="151.290064">
  <ele>343.1</ele>
  <time>2026-09-01T19:50:09Z</time>
  <course>270.0</course>
  <speed>0.0</speed>
  <fix>3d</fix>
</trkpt>
<trkpt lat="-27.274439" lon="151.290064">
  <ele>343.09</ele>
  <time>2026-09-01T19:50:09Z</time>
  <course>10.73</course>
  <speed>0.0</speed>
  <fix>3d</fix>
</trkpt>
<trkpt lat="-27.274439" lon="151.290064">
  <ele>343.1</ele>
  <time>2026-09-01T19:50:09Z</time>
  <course>270.0</course>
  <speed>0.0</speed>
  <fix>3d</fix>
</trkpt>
<trkpt lat="-27.274439" lon="151.290064">
  <ele>343.09</ele>
  <time>2026-09-01T19:50:09Z</time>
  <course>10.73</course>
  <speed>0.0</speed>
  <fix>3d</fix>
</trkpt>
<trkpt lat="-27.274439" lon="151.290064">
  <ele>343.1</ele>
  <time>2026-09-01T19:50:09Z</time>
  <course>270.0</course>
  <speed>0.0</speed>
  <fix>3d</fix>
</trkpt>
<trkpt lat="-27.274439" lon="151.290064">
  <ele>343.09</ele>
  <time>2026-09-01T19:50:09Z</time>
  <course>10.73</course>
  <speed>0.0</speed>
  <fix>3d</fix>
</trkpt>
<trkpt lat="-27.274439" lon="151.290064">
  <ele>343.1</ele>
  <time>2026-09-01T19:50:09Z</time>
  <course>270.0</course>
  <speed>0.0</speed>
  <fix>3d</fix>
</trkpt>
<trkpt lat="-27.274439" lon="151.290064">
  <ele>343.09</ele>
  <time>2026-09-01T19:50:09Z</time>
  <course>10.73</course>
  <speed>0.0</speed>
  <fix>3d</fix>
</trkpt>
<trkpt lat="-27.274439" lon="151.290064">
  <ele>343.1</ele>
  <time>2026-09-01T19:50:09Z</time>
  <course>270.0</course>
  <speed>0.0</speed>
  <fix>3d</fix>
</trkpt>
<trkpt lat="-27.274439" lon="151.290064">
  <ele>343.09</ele>
  <time>2026-09-01T19:50:09Z</time>
  <course>10.73</course>
  <speed>0.0</speed>
  <fix>3d</fix>
</trkpt>
<trkpt lat="-27.274439" lon="151.290064">
  <ele>343.1</ele>
  <time>2026-09-01T19:50:09Z</time>
  <course>270.0</course>
  <speed>0.0</speed>
  <fix>3d</fix>
</trkpt>
<trkpt lat="-27.274439" lon="151.290064">
  <ele>343.09</ele>
  <time>2026-09-01T19:50:09Z</time>
  <course>10.73</course>
  <speed>0.0</speed>
  <fix>3d</fix>
</trkpt>
<trkpt lat="-27.274439" lon="151.290064">
  <ele>343.1</ele>
  <time>2026-09-01T19:50:09Z</time>
  <course>270.0</course>
  <speed>0.0</speed>
  <fix>3d</fix>
</trkpt>
<trkpt lat="-27.274439" lon="151.290064">
  <ele>343.09</ele>
  <time>2026-09-01T19:50:09Z</time>
  <course>10.73</course>
  <speed>0.0</speed>
  <fix>3d</fix>
</trkpt>
<trkpt lat="-27.274439" lon="151.290064">
  <ele>343.1</ele>
  <time>2026-09-01T19:50:09Z</time>
  <course>270.0</course>
  <speed>0.0</speed>
  <fix>3d</fix>
</trkpt>
<trkpt lat="-27.274439" lon="151.290064">
  <ele>343.09</ele>
  <time>2026-09-01T19:50:09Z</time>
  <course>10.73</course>
  <speed>0.0</speed>
  <fix>3d</fix>
</trkpt>
<trkpt lat="-27.274439" lon="151.290064">
  <ele>343.1</ele>
  <time>2026-09-01T19:50:09Z</time>
  <course>270.0</course>
  <speed>0.0</speed>
  <fix>3d</fix>
</trkpt>
<trkpt lat="-27.274439" lon="151.290064">
  <ele>343.09</ele>
  <time>2026-09-01T19:50:09Z</time>
  <course>10.73</course>
  <speed>0.0</speed>
  <fix>3d</fix>
</trkpt>
<trkpt lat="-27.274439" lon="151.290064">
  <ele>343.1</ele>
  <time>2026-09-01T19:50:09Z</time>
  <course>270.0</course>
  <speed>0.0</speed>
  <fix>3d</fix>
</trkpt>
<trkpt lat="-27.274439" lon="151.290064">
  <ele>343.09</ele>
  <time>2026-09-01T19:50:09Z</time>
  <course>10.73</course>
  <speed>0.0</speed>
  <fix>3d</fix>
</trkpt>
<trkpt lat="-27.274439" lon="151.290064">
  <ele>343.1</ele>
  <time>2026-09-01T19:50:09Z</time>
  <course>270.0</course>
  <speed>0.0</speed>
  <fix>3d</fix>
</trkpt>
<trkpt lat="-27.274439" lon="151.290064">
  <ele>343.09</ele>
  <time>2026-09-01T19:50:09Z</time>
  <course>10.74</course>
  <speed>0.0</speed>
  <fix>3d</fix>
</trkpt>
<trkpt lat="-27.274439" lon="151.290064">
  <ele>343.1</ele>
  <time>2026-09-01T19:50:09Z</time>
  <course>270.0</course>
  <speed>0.0</speed>
  <fix>3d</fix>
</trkpt>
<trkpt lat="-27.274439" lon="151.290064">
  <ele>343.09</ele>
  <time>2026-09-01T19:50:09Z</time>
  <course>10.74</course>
  <speed>0.0</speed>
  <fix>3d</fix>
</trkpt>
<trkpt lat="-27.274439" lon="151.290064">
  <ele>343.1</ele>
  <time>2026-09-01T19:50:09Z</time>
  <course>270.0</course>
  <speed>0.0</speed>
  <fix>3d</fix>
</trkpt>
<trkpt lat="-27.274439" lon="151.290064">
  <ele>343.09</ele>
  <time>2026-09-01T19:50:09Z</time>
  <course>10.74</course>
  <speed>0.0</speed>
  <fix>3d</fix>
</trkpt>
<trkpt lat="-27.274439" lon="151.290064">
  <ele>343.1</ele>
  <time>2026-09-01T19:50:09Z</time>
  <course>270.0</course>
  <speed>0.0</speed>
  <fix>3d</fix>
</trkpt>
<trkpt lat="-27.274439" lon="151.290064">
  <ele>343.09</ele>
  <time>2026-09-01T19:50:09Z</time>
  <course>10.74</course>
  <speed>0.0</speed>
  <fix>3d</fix>
</trkpt>
<trkpt lat="-27.274439" lon="151.290064">
  <ele>343.1</ele>
  <time>2026-09-01T19:50:09Z</time>
  <course>270.0</course>
  <speed>0.0</speed>
  <fix>3d</fix>
</trkpt>
<trkpt lat="-27.274439" lon="151.290064">
  <ele>343.09</ele>
  <time>2026-09-01T19:50:09Z</time>
  <course>10.74</course>
  <speed>0.0</speed>
  <fix>3d</fix>
</trkpt>
<trkpt lat="-27.274439" lon="151.290064">
  <ele>343.1</ele>
  <time>2026-09-01T19:50:09Z</time>
  <course>270.0</course>
  <speed>0.0</speed>
  <fix>3d</fix>
</trkpt>
<trkpt lat="-27.274439" lon="151.290064">
  <ele>343.09</ele>
  <time>2026-09-01T19:50:09Z</time>
  <course>10.74</course>
  <speed>0.0</speed>
  <fix>3d</fix>
</trkpt>
<trkpt lat="-27.274439" lon="151.290064">
  <ele>343.1</ele>
  <time>2026-09-01T19:50:09Z</time>
  <course>270.0</course>
  <speed>0.0</speed>
  <fix>3d</fix>
</trkpt>
<trkpt lat="-27.274439" lon="151.290064">
  <ele>343.09</ele>
  <time>2026-09-01T19:50:09Z</time>
  <course>10.74</course>
  <speed>0.0</speed>
  <fix>3d</fix>
</trkpt>
<trkpt lat="-27.274439" lon="151.290064">
  <ele>343.1</ele>
  <time>2026-09-01T19:50:09Z</time>
  <course>270.0</course>
  <speed>0.0</speed>
  <fix>3d</fix>
</trkpt>
<trkpt lat="-27.274439" lon="151.290064">
  <ele>343.09</ele>
  <time>2026-09-01T19:50:09Z</time>
  <course>10.74</course>
  <speed>0.0</speed>
  <fix>3d</fix>
</trkpt>
<trkpt lat="-27.274439" lon="151.290064">
  <ele>343.1</ele>
  <time>2026-09-01T19:50:09Z</time>
  <course>270.0</course>
  <speed>0.0</speed>
  <fix>3d</fix>
</trkpt>
<trkpt lat="-27.274439" lon="151.290064">
  <ele>343.09</ele>
  <time>2026-09-01T19:50:09Z</time>
  <course>10.74</course>
  <speed>0.0</speed>
  <fix>3d</fix>
</trkpt>
<trkpt lat="-27.274439" lon="151.290064">
  <ele>343.1</ele>
  <time>2026-09-01T19:50:09Z</time>
  <course>270.0</course>
  <speed>0.0</speed>
  <fix>3d</fix>
</trkpt>
<trkpt lat="-27.274439" lon="151.290064">
  <ele>343.1</ele>
  <time>2026-09-01T19:50:09Z</time>
  <course>10.74</course>
  <speed>0.0</speed>
  <fix>3d</fix>
</trkpt>
<trkpt lat="-27.274439" lon="151.290064">
  <ele>343.1</ele>
  <time>2026-09-01T19:50:09Z</time>
  <course>270.0</course>
  <speed>0.0</speed>
  <fix>3d</fix>
</trkpt>
<trkpt lat="-27.274439" lon="151.290064">
  <ele>343.09</ele>
  <time>2026-09-01T19:50:09Z</time>
  <course>10.75</course>
  <speed>0.0</speed>
  <fix>3d</fix>
</trkpt>
<trkpt lat="-27.274439" lon="151.290064">
  <ele>343.1</ele>
  <time>2026-09-01T19:50:09Z</time>
  <course>270.0</course>
  <speed>0.0</speed>
  <fix>3d</fix>
</trkpt>
<trkpt lat="-26.9720619" lon="149.6127921">
  <ele>339.29</ele>
  <time>2026-09-01T19:50:09Z</time>
  <course>310.27</course>
  <speed>0.0</speed>
  <fix>3d</fix>
</trkpt>
<trkpt lat="-26.9720619" lon="149.6127921">
  <ele>339.29</ele>
  <time>2026-09-01T19:50:09Z</time>
  <course>310.27</course>
  <speed>0.0</speed>
  <fix>3d</fix>
</trkpt>
<trkpt lat="-27.274439" lon="151.290064">
  <ele>-0.01</ele>
  <time>2026-09-01T19:50:09Z</time>
  <course>0.22</course>
  <speed>0.0</speed>
  <fix>3d</fix>
</trkpt>
<trkpt lat="-27.274439" lon="151.290064">
  <ele>343.1</ele>
  <time>2026-09-01T19:50:09Z</time>
  <course>294.58</course>
  <speed>0.0</speed>
  <fix>3d</fix>
</trkpt>
<trkpt lat="-27.274439" lon="151.290064">
  <ele>0.02</ele>
  <time>2026-09-01T19:50:09Z</time>
  <course>1.2</course>
  <speed>0.0</speed>
  <fix>3d</fix>
</trkpt>
<trkpt lat="-27.274439" lon="151.290064">
  <ele>343.1</ele>
  <time>2026-09-01T19:50:09Z</time>
  <course>294.58</course>
  <speed>0.0</speed>
  <fix>3d</fix>
</trkpt>
<trkpt lat="-27.274439" lon="151.290064">
  <ele>-0.08</ele>
  <time>2026-09-01T19:50:09Z</time>
  <course>2.1</course>
  <speed>0.0</speed>
  <fix>3d</fix>
</trkpt>
<trkpt lat="-27.274439" lon="151.290064">
  <ele>343.1</ele>
  <time>2026-09-01T19:50:09Z</time>
  <course>273.33</course>
  <speed>0.0</speed>
  <fix>3d</fix>
</trkpt>
<trkpt lat="-27.274439" lon="151.290064">
  <ele>0.22</ele>
  <time>2026-09-01T19:50:09Z</time>
  <course>2.92</course>
  <speed>0.0</speed>
  <fix>3d</fix>
</trkpt>
<trkpt lat="-27.274439" lon="151.290064">
  <ele>343.1</ele>
  <time>2026-09-01T19:50:09Z</time>
  <course>273.33</course>
  <speed>0.0</speed>
  <fix>3d</fix>
</trkpt>
<trkpt lat="-27.274439" lon="151.290064">
  <ele>0.09</ele>
  <time>2026-09-01T19:50:09Z</time>
  <course>3.66</course>
  <speed>0.0</speed>
  <fix>3d</fix>
</trkpt>
<trkpt lat="-27.274439" lon="151.290064">
  <ele>343.1</ele>
  <time>2026-09-01T19:50:09Z</time>
  <course>270.44</course>
  <speed>0.0</speed>
  <fix>3d</fix>
</trkpt>
<trkpt lat="-27.274439" lon="151.290064">
  <ele>0.08</ele>
  <time>2026-09-01T19:50:09Z</time>
  <course>4.34</course>
  <speed>0.0</speed>
  <fix>3d</fix>
</trkpt>
<trkpt lat="-27.274439" lon="151.290064">
  <ele>343.1</ele>
  <time>2026-09-01T19:50:09Z</time>
  <course>270.44</course>
  <speed>0.0</speed>
  <fix>3d</fix>
</trkpt>
<trkpt lat="-27.274439" lon="151.290064">
  <ele>0.09</ele>
  <time>2026-09-01T19:50:09Z</time>
  <course>4.95</course>
  <speed>0.0</speed>
  <fix>3d</fix>
</trkpt>
<trkpt lat="-27.274439" lon="151.290064">
  <ele>343.1</ele>
  <time>2026-09-01T19:50:09Z</time>
  <course>270.05</course>
  <speed>0.0</speed>
  <fix>3d</fix>
</trkpt>
<trkpt lat="-27.274439" lon="151.290064">
  <ele>-0.05</ele>
  <time>2026-09-01T19:50:09Z</time>
  <course>5.5</course>
  <speed>0.0</speed>
  <fix>3d</fix>
</trkpt>
<trkpt lat="-27.274439" lon="151.290064">
  <ele>343.1</ele>
  <time>2026-09-01T19:50:09Z</time>
  <course>270.05</course>
  <speed>0.0</speed>
  <fix>3d</fix>
</trkpt>
<trkpt lat="-27.274439" lon="151.290064">
  <ele>343.06</ele>
  <time>2026-09-01T19:50:09Z</time>
  <course>5.98</course>
  <speed>0.0</speed>
  <fix>3d</fix>
</trkpt>
<trkpt lat="-27.274439" lon="151.290064">
  <ele>343.1</ele>
  <time>2026-09-01T19:50:09Z</time>
  <course>270.0</course>
  <speed>0.0</speed>
  <fix>3d</fix>
</trkpt>
<trkpt lat="-27.274439" lon="151.290064">
  <ele>343.18</ele>
  <time>2026-09-01T19:50:09Z</time>
  <course>6.44</course>
  <speed>0.0</speed>
  <fix>3d</fix>
</trkpt>
<trkpt lat="-27.274439" lon="151.290064">
  <ele>343.1</ele>
  <time>2026-09-01T19:50:09Z</time>
  <course>270.0</course>
  <speed>0.0</speed>
  <fix>3d</fix>
</trkpt>
<trkpt lat="-27.274439" lon="151.290064">
  <ele>342.91</ele>
  <time>2026-09-01T19:50:09Z</time>
  <course>6.85</course>
  <speed>0.0</speed>
  <fix>3d</fix>
</trkpt>
<trkpt lat="-27.274439" lon="151.290064">
  <ele>343.1</ele>
  <time>2026-09-01T19:50:09Z</time>
  <course>270.0</course>
  <speed>0.0</speed>
  <fix>3d</fix>
</trkpt>
<trkpt lat="-27.274439" lon="151.290064">
  <ele>343.06</ele>
  <time>2026-09-01T19:50:09Z</time>
  <course>7.22</course>
  <speed>0.0</speed>
  <fix>3d</fix>
</trkpt>
<trkpt lat="-27.274439" lon="151.290064">
  <ele>343.1</ele>
  <time>2026-09-01T19:50:09Z</time>
  <course>270.0</course>
  <speed>0.0</speed>
  <fix>3d</fix>
</trkpt>
<trkpt lat="-27.274439" lon="151.290064">
  <ele>343.13</ele>
  <time>2026-09-01T19:50:09Z</time>
  <course>7.56</course>
  <speed>0.0</speed>
  <fix>3d</fix>
</trkpt>
<trkpt lat="-27.274439" lon="151.290064">
  <ele>343.1</ele>
  <time>2026-09-01T19:50:09Z</time>
  <course>270.0</course>
  <speed>0.0</speed>
  <fix>3d</fix>
</trkpt>
<trkpt lat="-27.274439" lon="151.290064">
  <ele>343.04</ele>
  <time>2026-09-01T19:50:09Z</time>
  <course>7.87</course>
  <speed>0.0</speed>
  <fix>3d</fix>
</trkpt>
<trkpt lat="-27.274439" lon="151.290064">
  <ele>343.1</ele>
  <time>2026-09-01T19:50:09Z</time>
  <course>270.0</course>
  <speed>0.0</speed>
  <fix>3d</fix>
</trkpt>
<trkpt lat="-27.274439" lon="151.290064">
  <ele>342.88</ele>
  <time>2026-09-01T19:50:09Z</time>
  <course>8.14</course>
  <speed>0.0</speed>
  <fix>3d</fix>
</trkpt>
<trkpt lat="-27.274439" lon="151.290064">
  <ele>343.1</ele>
  <time>2026-09-01T19:50:09Z</time>
  <course>270.0</course>
  <speed>0.0</speed>
  <fix>3d</fix>
</trkpt>
<trkpt lat="-27.274439" lon="151.290064">
  <ele>343.02</ele>
  <time>2026-09-01T19:50:09Z</time>
  <course>8.39</course>
  <speed>0.0</speed>
  <fix>3d</fix>
</trkpt>
<trkpt lat="-27.274439" lon="151.290064">
  <ele>343.1</ele>
  <time>2026-09-01T19:50:09Z</time>
  <course>270.0</course>
  <speed>0.0</speed>
  <fix>3d</fix>
</trkpt>
<trkpt lat="-27.274439" lon="151.290064">
  <ele>343.23</ele>
  <time>2026-09-01T19:50:10Z</time>
  <course>8.63</course>
  <speed>0.0</speed>
  <fix>3d</fix>
</trkpt>
<trkpt lat="-27.274439" lon="151.290064">
  <ele>343.1</ele>
  <time>2026-09-01T19:50:10Z</time>
  <course>270.0</course>
  <speed>0.0</speed>
  <fix>3d</fix>
</trkpt>
<trkpt lat="-27.274439" lon="151.290064">
  <ele>343.17</ele>
  <time>2026-09-01T19:50:10Z</time>
  <course>8.83</course>
  <speed>0.0</speed>
  <fix>3d</fix>
</trkpt>
<trkpt lat="-27.274439" lon="151.290064">
  <ele>343.1</ele>
  <time>2026-09-01T19:50:10Z</time>
  <course>270.0</course>
  <speed>0.0</speed>
  <fix>3d</fix>
</trkpt>
<trkpt lat="-27.274439" lon="151.290064">
  <ele>343.04</ele>
  <time>2026-09-01T19:50:10Z</time>
  <course>9.01</course>
  <speed>0.0</speed>
  <fix>3d</fix>
</trkpt>
<trkpt lat="-27.274439" lon="151.290064">
  <ele>343.1</ele>
  <time>2026-09-01T19:50:10Z</time>
  <course>270.0</course>
  <speed>0.0</speed>
  <fix>3d</fix>
</trkpt>
<trkpt lat="-27.274439" lon="151.290064">
  <ele>342.89</ele>
  <time>2026-09-01T19:50:10Z</time>
  <course>9.18</course>
  <speed>0.0</speed>
  <fix>3d</fix>
</trkpt>
<trkpt lat="-27.274439" lon="151.290064">
  <ele>343.1</ele>
  <time>2026-09-01T19:50:10Z</time>
  <course>270.0</course>
  <speed>0.0</speed>
  <fix>3d</fix>
</trkpt>
<trkpt lat="-27.274439" lon="151.290064">
  <ele>343.08</ele>
  <time>2026-09-01T19:50:10Z</time>
  <course>9.33</course>
  <speed>0.0</speed>
  <fix>3d</fix>
</trkpt>
<trkpt lat="-27.274439" lon="151.290064">
  <ele>343.1</ele>
  <time>2026-09-01T19:50:10Z</time>
  <course>270.0</course>
  <speed>0.0</speed>
  <fix>3d</fix>
</trkpt>
<trkpt lat="-27.274439" lon="151.290064">
  <ele>343.19</ele>
  <time>2026-09-01T19:50:10Z</time>
  <course>9.47</course>
  <speed>0.0</speed>
  <fix>3d</fix>
</trkpt>
<trkpt lat="-27.274439" lon="151.290064">
  <ele>343.1</ele>
  <time>2026-09-01T19:50:10Z</time>
  <course>270.0</course>
  <speed>0.0</speed>
  <fix>3d</fix>
</trkpt>
<trkpt lat="-27.274439" lon="151.290064">
  <ele>342.88</ele>
  <time>2026-09-01T19:50:10Z</time>
  <course>9.59</course>
  <speed>0.0</speed>
  <fix>3d</fix>
</trkpt>
<trkpt lat="-27.274439" lon="151.290064">
  <ele>343.1</ele>
  <time>2026-09-01T19:50:10Z</time>
  <course>270.0</course>
  <speed>0.0</speed>
  <fix>3d</fix>
</trkpt>
<trkpt lat="-27.274439" lon="151.290064">
  <ele>343.17</ele>
  <time>2026-09-01T19:50:10Z</time>
  <course>9.7</course>
  <speed>0.0</speed>
  <fix>3d</fix>
</trkpt>
<trkpt lat="-27.274439" lon="151.290064">
  <ele>343.1</ele>
  <time>2026-09-01T19:50:10Z</time>
  <course>270.0</course>
  <speed>0.0</speed>
  <fix>3d</fix>
</trkpt>
<trkpt lat="-27.274439" lon="151.290064">
  <ele>342.89</ele>
  <time>2026-09-01T19:50:10Z</time>
  <course>9.8</course>
  <speed>0.0</speed>
  <fix>3d</fix>
</trkpt>
<trkpt lat="-27.274439" lon="151.290064">
  <ele>343.1</ele>
  <time>2026-09-01T19:50:10Z</time>
  <course>270.0</course>
  <speed>0.0</speed>
  <fix>3d</fix>
</trkpt>
<trkpt lat="-27.274439" lon="151.290064">
  <ele>342.99</ele>
  <time>2026-09-01T19:50:10Z</time>
  <course>9.9</course>
  <speed>0.0</speed>
  <fix>3d</fix>
</trkpt>
<trkpt lat="-27.274439" lon="151.290064">
  <ele>343.1</ele>
  <time>2026-09-01T19:50:10Z</time>
  <course>270.0</course>
  <speed>0.0</speed>
  <fix>3d</fix>
</trkpt>
<trkpt lat="-27.274439" lon="151.290064">
  <ele>342.87</ele>
  <time>2026-09-01T19:50:10Z</time>
  <course>9.98</course>
  <speed>0.0</speed>
  <fix>3d</fix>
</trkpt>
<trkpt lat="-27.274439" lon="151.290064">
  <ele>343.1</ele>
  <time>2026-09-01T19:50:10Z</time>
  <course>270.0</course>
  <speed>0.0</speed>
  <fix>3d</fix>
</trkpt>
<trkpt lat="-27.274439" lon="151.290064">
  <ele>343.09</ele>
  <time>2026-09-01T19:50:10Z</time>
  <course>10.06</course>
  <speed>0.0</speed>
  <fix>3d</fix>
</trkpt>
<trkpt lat="-27.274439" lon="151.290064">
  <ele>343.1</ele>
  <time>2026-09-01T19:50:10Z</time>
  <course>270.0</course>
  <speed>0.0</speed>
  <fix>3d</fix>
</trkpt>
<trkpt lat="-27.274439" lon="151.290064">
  <ele>343.18</ele>
  <time>2026-09-01T19:50:10Z</time>
  <course>10.13</course>
  <speed>0.0</speed>
  <fix>3d</fix>
</trkpt>
<trkpt lat="-27.274439" lon="151.290064">
  <ele>343.1</ele>
  <time>2026-09-01T19:50:10Z</time>
  <course>270.0</course>
  <speed>0.0</speed>
  <fix>3d</fix>
</trkpt>
<trkpt lat="-27.274439" lon="151.290064">
  <ele>343.05</ele>
  <time>2026-09-01T19:50:10Z</time>
  <course>10.2</course>
  <speed>0.0</speed>
  <fix>3d</fix>
</trkpt>
<trkpt lat="-27.274439" lon="151.290064">
  <ele>343.1</ele>
  <time>2026-09-01T19:50:10Z</time>
  <course>270.0</course>
  <speed>0.0</speed>
  <fix>3d</fix>
</trkpt>
<trkpt lat="-27.274439" lon="151.290064">
  <ele>342.96</ele>
  <time>2026-09-01T19:50:10Z</time>
  <course>10.25</course>
  <speed>0.0</speed>
  <fix>3d</fix>
</trkpt>
<trkpt lat="-27.274439" lon="151.290064">
  <ele>343.1</ele>
  <time>2026-09-01T19:50:10Z</time>
  <course>270.0</course>
  <speed>0.0</speed>
  <fix>3d</fix>
</trkpt>
<trkpt lat="-27.274439" lon="151.290064">
  <ele>343.1</ele>
  <time>2026-09-01T19:50:10Z</time>
  <course>10.31</course>
  <speed>0.0</speed>
  <fix>3d</fix>
</trkpt>
<trkpt lat="-27.274439" lon="151.290064">
  <ele>343.1</ele>
  <time>2026-09-01T19:50:10Z</time>
  <course>270.0</course>
  <speed>0.0</speed>
  <fix>3d</fix>
</trkpt>
<trkpt lat="-27.274439" lon="151.290064">
  <ele>343.22</ele>
  <time>2026-09-01T19:50:10Z</time>
  <course>10.35</course>
  <speed>0.0</speed>
  <fix>3d</fix>
</trkpt>
<trkpt lat="-27.274439" lon="151.290064">
  <ele>343.1</ele>
  <time>2026-09-01T19:50:10Z</time>
  <course>270.0</course>
  <speed>0.0</speed>
  <fix>3d</fix>
</trkpt>
<trkpt lat="-27.274439" lon="151.290064">
  <ele>343.17</ele>
  <time>2026-09-01T19:50:10Z</time>
  <course>10.4</course>
  <speed>0.0</speed>
  <fix>3d</fix>
</trkpt>
<trkpt lat="-27.274439" lon="151.290064">
  <ele>343.1</ele>
  <time>2026-09-01T19:50:10Z</time>
  <course>270.0</course>
  <speed>0.0</speed>
  <fix>3d</fix>
</trkpt>
<trkpt lat="-27.274439" lon="151.290064">
  <ele>343.08</ele>
  <time>2026-09-01T19:50:10Z</time>
  <course>10.44</course>
  <speed>0.0</speed>
  <fix>3d</fix>
</trkpt>
<trkpt lat="-27.274439" lon="151.290064">
  <ele>343.1</ele>
  <time>2026-09-01T19:50:10Z</time>
  <course>270.0</course>
  <speed>0.0</speed>
  <fix>3d</fix>
</trkpt>
<trkpt lat="-27.274439" lon="151.290064">
  <ele>343.04</ele>
  <time>2026-09-01T19:50:10Z</time>
  <course>10.47</course>
  <speed>0.0</speed>
  <fix>3d</fix>
</trkpt>
<trkpt lat="-27.274439" lon="151.290064">
  <ele>343.1</ele>
  <time>2026-09-01T19:50:10Z</time>
  <course>270.0</course>
  <speed>0.0</speed>
  <fix>3d</fix>
</trkpt>
<trkpt lat="-27.274439" lon="151.290064">
  <ele>343.18</ele>
  <time>2026-09-01T19:50:10Z</time>
  <course>10.5</course>
  <speed>0.0</speed>
  <fix>3d</fix>
</trkpt>
<trkpt lat="-27.274439" lon="151.290064">
  <ele>343.1</ele>
  <time>2026-09-01T19:50:10Z</time>
  <course>270.0</course>
  <speed>0.0</speed>
  <fix>3d</fix>
</trkpt>
<trkpt lat="-27.274439" lon="151.290064">
  <ele>343.12</ele>
  <time>2026-09-01T19:50:10Z</time>
  <course>10.53</course>
  <speed>0.0</speed>
  <fix>3d</fix>
</trkpt>
<trkpt lat="-27.274439" lon="151.290064">
  <ele>343.1</ele>
  <time>2026-09-01T19:50:10Z</time>
  <course>270.0</course>
  <speed>0.0</speed>
  <fix>3d</fix>
</trkpt>
<trkpt lat="-27.274439" lon="151.290064">
  <ele>343.04</ele>
  <time>2026-09-01T19:50:10Z</time>
  <course>10.56</course>
  <speed>0.0</speed>
  <fix>3d</fix>
</trkpt>
<trkpt lat="-27.274439" lon="151.290064">
  <ele>343.1</ele>
  <time>2026-09-01T19:50:10Z</time>
  <course>270.0</course>
  <speed>0.0</speed>
  <fix>3d</fix>
</trkpt>
<trkpt lat="-27.274439" lon="151.290064">
  <ele>343.07</ele>
  <time>2026-09-01T19:50:10Z</time>
  <course>10.58</course>
  <speed>0.0</speed>
  <fix>3d</fix>
</trkpt>
<trkpt lat="-27.274439" lon="151.290064">
  <ele>343.1</ele>
  <time>2026-09-01T19:50:10Z</time>
  <course>270.0</course>
  <speed>0.0</speed>
  <fix>3d</fix>
</trkpt>
<trkpt lat="-27.274439" lon="151.290064">
  <ele>343.04</ele>
  <time>2026-09-01T19:50:10Z</time>
  <course>10.6</course>
  <speed>0.0</speed>
  <fix>3d</fix>
</trkpt>
<trkpt lat="-27.274439" lon="151.290064">
  <ele>343.1</ele>
  <time>2026-09-01T19:50:10Z</time>
  <course>270.0</course>
  <speed>0.0</speed>
  <fix>3d</fix>
</trkpt>
<trkpt lat="-27.274439" lon="151.290064">
  <ele>343.01</ele>
  <time>2026-09-01T19:50:10Z</time>
  <course>10.62</course>
  <speed>0.0</speed>
  <fix>3d</fix>
</trkpt>
<trkpt lat="-27.274439" lon="151.290064">
  <ele>343.1</ele>
  <time>2026-09-01T19:50:10Z</time>
  <course>270.0</course>
  <speed>0.0</speed>
  <fix>3d</fix>
</trkpt>
<trkpt lat="-27.274439" lon="151.290064">
  <ele>343.2</ele>
  <time>2026-09-01T19:50:10Z</time>
  <course>10.64</course>
  <speed>0.0</speed>
  <fix>3d</fix>
</trkpt>
<trkpt lat="-27.274439" lon="151.290064">
  <ele>343.1</ele>
  <time>2026-09-01T19:50:10Z</time>
  <course>270.0</course>
  <speed>0.0</speed>
  <fix>3d</fix>
</trkpt>
<trkpt lat="-27.274439" lon="151.290064">
  <ele>343.24</ele>
  <time>2026-09-01T19:50:10Z</time>
  <course>10.65</course>
  <speed>0.0</speed>
  <fix>3d</fix>
</trkpt>
<trkpt lat="-27.274439" lon="151.290064">
  <ele>343.1</ele>
  <time>2026-09-01T19:50:10Z</time>
  <course>270.0</course>
  <speed>0.0</speed>
  <fix>3d</fix>
</trkpt>
<trkpt lat="-27.274439" lon="151.290064">
  <ele>342.88</ele>
  <time>2026-09-01T19:50:10Z</time>
  <course>10.67</course>
  <speed>0.0</speed>
  <fix>3d</fix>
</trkpt>
<trkpt lat="-27.274439" lon="151.290064">
  <ele>343.1</ele>
  <time>2026-09-01T19:50:10Z</time>
  <course>270.0</course>
  <speed>0.0</speed>
  <fix>3d</fix>
</trkpt>
<trkpt lat="-27.274439" lon="151.290064">
  <ele>343.21</ele>
  <time>2026-09-01T19:50:10Z</time>
  <course>10.68</course>
  <speed>0.0</speed>
  <fix>3d</fix>
</trkpt>
<trkpt lat="-27.274439" lon="151.290064">
  <ele>343.1</ele>
  <time>2026-09-01T19:50:10Z</time>
  <course>270.0</course>
  <speed>0.0</speed>
  <fix>3d</fix>
</trkpt>
<trkpt lat="-27.274439" lon="151.290064">
  <ele>343.02</ele>
  <time>2026-09-01T19:50:10Z</time>
  <course>10.69</course>
  <speed>0.0</speed>
  <fix>3d</fix>
</trkpt>
<trkpt lat="-27.274439" lon="151.290064">
  <ele>343.1</ele>
  <time>2026-09-01T19:50:10Z</time>
  <course>270.0</course>
  <speed>0.0</speed>
  <fix>3d</fix>
</trkpt>
<trkpt lat="-27.274439" lon="151.290064">
  <ele>342.93</ele>
  <time>2026-09-01T19:50:10Z</time>
  <course>10.7</course>
  <speed>0.0</speed>
  <fix>3d</fix>
</trkpt>
<trkpt lat="-27.274439" lon="151.290064">
  <ele>343.1</ele>
  <time>2026-09-01T19:50:10Z</time>
  <course>270.0</course>
  <speed>0.0</speed>
  <fix>3d</fix>
</trkpt>
<trkpt lat="-27.274439" lon="151.290064">
  <ele>343.07</ele>
  <time>2026-09-01T19:50:10Z</time>
  <course>10.71</course>
  <speed>0.0</speed>
  <fix>3d</fix>
</trkpt>
<trkpt lat="-27.274439" lon="151.290064">
  <ele>343.1</ele>
  <time>2026-09-01T19:50:10Z</time>
  <course>270.0</course>
  <speed>0.0</speed>
  <fix>3d</fix>
</trkpt>
<trkpt lat="-27.274439" lon="151.290064">
  <ele>342.94</ele>
  <time>2026-09-01T19:50:10Z</time>
  <course>10.72</course>
  <speed>0.0</speed>
  <fix>3d</fix>
</trkpt>
<trkpt lat="-27.274439" lon="151.290064">
  <ele>343.1</ele>
  <time>2026-09-01T19:50:10Z</time>
  <course>270.0</course>
  <speed>0.0</speed>
  <fix>3d</fix>
</trkpt>
<trkpt lat="-27.274439" lon="151.290064">
  <ele>343.11</ele>
  <time>2026-09-01T19:50:10Z</time>
  <course>10.73</course>
  <speed>0.0</speed>
  <fix>3d</fix>
</trkpt>
<trkpt lat="-27.274439" lon="151.290064">
  <ele>343.1</ele>
  <time>2026-09-01T19:50:10Z</time>
  <course>270.0</course>
  <speed>0.0</speed>
  <fix>3d</fix>
</trkpt>
<trkpt lat="-27.274439" lon="151.290064">
  <ele>343.24</ele>
  <time>2026-09-01T19:50:10Z</time>
  <course>10.73</course>
  <speed>0.0</speed>
  <fix>3d</fix>
</trkpt>
<trkpt lat="-27.274439" lon="151.290064">
  <ele>343.1</ele>
  <time>2026-09-01T19:50:10Z</time>
  <course>270.0</course>
  <speed>0.0</speed>
  <fix>3d</fix>
</trkpt>
<trkpt lat="-27.274439" lon="151.290064">
  <ele>343.18</ele>
  <time>2026-09-01T19:50:10Z</time>
  <course>10.74</course>
  <speed>0.0</speed>
  <fix>3d</fix>
</trkpt>
<trkpt lat="-27.274439" lon="151.290064">
  <ele>343.1</ele>
  <time>2026-09-01T19:50:10Z</time>
  <course>270.0</course>
  <speed>0.0</speed>
  <fix>3d</fix>
</trkpt>
<trkpt lat="-27.274439" lon="151.290064">
  <ele>342.89</ele>
  <time>2026-09-01T19:50:10Z</time>
  <course>10.75</course>
  <speed>0.0</speed>
  <fix>3d</fix>
</trkpt>
<trkpt lat="-27.274439" lon="151.290064">
  <ele>343.1</ele>
  <time>2026-09-01T19:50:10Z</time>
  <course>270.0</course>
  <speed>0.0</speed>
  <fix>3d</fix>
</trkpt>
<trkpt lat="-27.274439" lon="151.290064">
  <ele>343.23</ele>
  <time>2026-09-01T19:50:10Z</time>
  <course>10.75</course>
  <speed>0.0</speed>
  <fix>3d</fix>
</trkpt>
<trkpt lat="-27.274439" lon="151.290064">
  <ele>343.1</ele>
  <time>2026-09-01T19:50:10Z</time>
  <course>270.0</course>
  <speed>0.0</speed>
  <fix>3d</fix>
</trkpt>
<trkpt lat="-27.274439" lon="151.290064">
  <ele>343.23</ele>
  <time>2026-09-01T19:50:10Z</time>
  <course>10.76</course>
  <speed>0.0</speed>
  <fix>3d</fix>
</trkpt>
<trkpt lat="-27.274439" lon="151.290064">
  <ele>343.1</ele>
  <time>2026-09-01T19:50:10Z</time>
  <course>270.0</course>
  <speed>0.0</speed>
  <fix>3d</fix>
</trkpt>
<trkpt lat="-27.274439" lon="151.290064">
  <ele>342.99</ele>
  <time>2026-09-01T19:50:10Z</time>
  <course>10.76</course>
  <speed>0.0</speed>
  <fix>3d</fix>
</trkpt>
<trkpt lat="-27.274439" lon="151.290064">
  <ele>343.1</ele>
  <time>2026-09-01T19:50:10Z</time>
  <course>270.0</course>
  <speed>0.0</speed>
  <fix>3d</fix>
</trkpt>
<trkpt lat="-27.274439" lon="151.290064">
  <ele>343.13</ele>
  <time>2026-09-01T19:50:10Z</time>
  <course>10.76</course>
  <speed>0.0</speed>
  <fix>3d</fix>
</trkpt>
<trkpt lat="-27.274439" lon="151.290064">
  <ele>343.1</ele>
  <time>2026-09-01T19:50:10Z</time>
  <course>270.0</course>
  <speed>0.0</speed>
  <fix>3d</fix>
</trkpt>
<trkpt lat="-27.274439" lon="151.290064">
  <ele>343.07</ele>
  <time>2026-09-01T19:50:10Z</time>
  <course>10.77</course>
  <speed>0.0</speed>
  <fix>3d</fix>
</trkpt>
<trkpt lat="-27.274439" lon="151.290064">
  <ele>343.1</ele>
  <time>2026-09-01T19:50:10Z</time>
  <course>270.0</course>
  <speed>0.0</speed>
  <fix>3d</fix>
</trkpt>
<trkpt lat="-27.274439" lon="151.290064">
  <ele>343.19</ele>
  <time>2026-09-01T19:50:10Z</time>
  <course>10.77</course>
  <speed>0.0</speed>
  <fix>3d</fix>
</trkpt>
<trkpt lat="-27.274439" lon="151.290064">
  <ele>343.1</ele>
  <time>2026-09-01T19:50:10Z</time>
  <course>270.0</course>
  <speed>0.0</speed>
  <fix>3d</fix>
</trkpt>
<trkpt lat="-27.274439" lon="151.290064">
  <ele>342.93</ele>
  <time>2026-09-01T19:50:10Z</time>
  <course>10.77</course>
  <speed>0.0</speed>
  <fix>3d</fix>
</trkpt>
<trkpt lat="-27.274439" lon="151.290064">
  <ele>343.1</ele>
  <time>2026-09-01T19:50:10Z</time>
  <course>270.0</course>
  <speed>0.0</speed>
  <fix>3d</fix>
</trkpt>
<trkpt lat="-27.274439" lon="151.290064">
  <ele>343.19</ele>
  <time>2026-09-01T19:50:10Z</time>
  <course>10.78</course>
  <speed>0.0</speed>
  <fix>3d</fix>
</trkpt>
<trkpt lat="-27.274439" lon="151.290064">
  <ele>343.1</ele>
  <time>2026-09-01T19:50:10Z</time>
  <course>270.0</course>
  <speed>0.0</speed>
  <fix>3d</fix>
</trkpt>
<trkpt lat="-27.274439" lon="151.290064">
  <ele>343.1</ele>
  <time>2026-09-01T19:50:10Z</time>
  <course>10.78</course>
  <speed>0.0</speed>
  <fix>3d</fix>
</trkpt>
<trkpt lat="-27.274439" lon="151.290064">
  <ele>343.1</ele>
  <time>2026-09-01T19:50:10Z</time>
  <course>270.0</course>
  <speed>0.0</speed>
  <fix>3d</fix>
</trkpt>
<trkpt lat="-27.274439" lon="151.290064">
  <ele>343.01</ele>
  <time>2026-09-01T19:50:10Z</time>
  <course>10.78</course>
  <speed>0.0</speed>
  <fix>3d</fix>
</trkpt>
<trkpt lat="-27.274439" lon="151.290064">
  <ele>343.1</ele>
  <time>2026-09-01T19:50:10Z</time>
  <course>270.0</course>
  <speed>0.0</speed>
  <fix>3d</fix>
</trkpt>
<trkpt lat="-27.274439" lon="151.290064">
  <ele>343.11</ele>
  <time>2026-09-01T19:50:10Z</time>
  <course>10.78</course>
  <speed>0.0</speed>
  <fix>3d</fix>
</trkpt>
<trkpt lat="-27.274439" lon="151.290064">
  <ele>343.1</ele>
  <time>2026-09-01T19:50:10Z</time>
  <course>270.0</course>
  <speed>0.0</speed>
  <fix>3d</fix>
</trkpt>
<trkpt lat="-27.274439" lon="151.290064">
  <ele>342.96</ele>
  <time>2026-09-01T19:50:10Z</time>
  <course>10.78</course>
  <speed>0.0</speed>
  <fix>3d</fix>
</trkpt>
<trkpt lat="-27.274439" lon="151.290064">
  <ele>343.1</ele>
  <time>2026-09-01T19:50:10Z</time>
  <course>270.0</course>
  <speed>0.0</speed>
  <fix>3d</fix>
</trkpt>
<trkpt lat="-27.274439" lon="151.290064">
  <ele>343.19</ele>
  <time>2026-09-01T19:50:10Z</time>
  <course>10.79</course>
  <speed>0.0</speed>
  <fix>3d</fix>
</trkpt>
<trkpt lat="-27.274439" lon="151.290064">
  <ele>343.1</ele>
  <time>2026-09-01T19:50:10Z</time>
  <course>270.0</course>
  <speed>0.0</speed>
  <fix>3d</fix>
</trkpt>
<trkpt lat="-27.274439" lon="151.290064">
  <ele>343.0</ele>
  <time>2026-09-01T19:50:10Z</time>
  <course>10.79</course>
  <speed>0.0</speed>
  <fix>3d</fix>
</trkpt>
<trkpt lat="-27.274439" lon="151.290064">
  <ele>343.1</ele>
  <time>2026-09-01T19:50:10Z</time>
  <course>270.0</course>
  <speed>0.0</speed>
  <fix>3d</fix>
</trkpt>
<trkpt lat="-27.274439" lon="151.290064">
  <ele>343.2</ele>
  <time>2026-09-01T19:50:10Z</time>
  <course>10.79</course>
  <speed>0.0</speed>
  <fix>3d</fix>
</trkpt>
<trkpt lat="-27.274439" lon="151.290064">
  <ele>343.1</ele>
  <time>2026-09-01T19:50:10Z</time>
  <course>270.0</course>
  <speed>0.0</speed>
  <fix>3d</fix>
</trkpt>
<trkpt lat="-27.274439" lon="151.290064">
  <ele>343.2</ele>
  <time>2026-09-01T19:50:10Z</time>
  <course>10.79</course>
  <speed>0.0</speed>
  <fix>3d</fix>
</trkpt>
<trkpt lat="-27.274439" lon="151.290064">
  <ele>343.1</ele>
  <time>2026-09-01T19:50:10Z</time>
  <course>270.0</course>
  <speed>0.0</speed>
  <fix>3d</fix>
</trkpt>
<trkpt lat="-27.274439" lon="151.290064">
  <ele>343.13</ele>
  <time>2026-09-01T19:50:10Z</time>
  <course>10.79</course>
  <speed>0.0</speed>
  <fix>3d</fix>
</trkpt>
<trkpt lat="-27.274439" lon="151.290064">
  <ele>343.1</ele>
  <time>2026-09-01T19:50:10Z</time>
  <course>270.0</course>
  <speed>0.0</speed>
  <fix>3d</fix>
</trkpt>
<trkpt lat="-27.274439" lon="151.290064">
  <ele>343.1</ele>
  <time>2026-09-01T19:50:10Z</time>
  <course>10.79</course>
  <speed>0.0</speed>
  <fix>3d</fix>
</trkpt>
<trkpt lat="-27.274439" lon="151.290064">
  <ele>343.1</ele>
  <time>2026-09-01T19:50:10Z</time>
  <course>270.0</course>
  <speed>0.0</speed>
  <fix>3d</fix>
</trkpt>
<trkpt lat="-27.274439" lon="151.290064">
  <ele>343.12</ele>
  <time>2026-09-01T19:50:10Z</time>
  <course>10.79</course>
  <speed>0.0</speed>
  <fix>3d</fix>
</trkpt>
<trkpt lat="-27.274439" lon="151.290064">
  <ele>343.1</ele>
  <time>2026-09-01T19:50:10Z</time>
  <course>270.0</course>
  <speed>0.0</speed>
  <fix>3d</fix>
</trkpt>
<trkpt lat="-27.274439" lon="151.290064">
  <ele>342.94</ele>
  <time>2026-09-01T19:50:10Z</time>
  <course>10.79</course>
  <speed>0.0</speed>
  <fix>3d</fix>
</trkpt>
<trkpt lat="-27.274439" lon="151.290064">
  <ele>343.1</ele>
  <time>2026-09-01T19:50:10Z</time>
  <course>270.0</course>
  <speed>0.0</speed>
  <fix>3d</fix>
</trkpt>
<trkpt lat="-27.274439" lon="151.290064">
  <ele>343.25</ele>
  <time>2026-09-01T19:50:10Z</time>
  <course>10.79</course>
  <speed>0.0</speed>
  <fix>3d</fix>
</trkpt>
<trkpt lat="-27.274439" lon="151.290064">
  <ele>343.1</ele>
  <time>2026-09-01T19:50:10Z</time>
  <course>270.0</course>
  <speed>0.0</speed>
  <fix>3d</fix>
</trkpt>
<trkpt lat="-27.274439" lon="151.290064">
  <ele>342.93</ele>
  <time>2026-09-01T19:50:10Z</time>
  <course>10.79</course>
  <speed>0.0</speed>
  <fix>3d</fix>
</trkpt>
<trkpt lat="-27.274439" lon="151.290064">
  <ele>343.1</ele>
  <time>2026-09-01T19:50:10Z</time>
  <course>270.0</course>
  <speed>0.0</speed>
  <fix>3d</fix>
</trkpt>
<trkpt lat="-27.274439" lon="151.290064">
  <ele>343.08</ele>
  <time>2026-09-01T19:50:10Z</time>
  <course>10.79</course>
  <speed>0.0</speed>
  <fix>3d</fix>
</trkpt>
<trkpt lat="-27.274439" lon="151.290064">
  <ele>343.1</ele>
  <time>2026-09-01T19:50:10Z</time>
  <course>270.0</course>
  <speed>0.0</speed>
  <fix>3d</fix>
</trkpt>
<trkpt lat="-27.274439" lon="151.290064">
  <ele>343.23</ele>
  <time>2026-09-01T19:50:10Z</time>
  <course>10.8</course>
  <speed>0.0</speed>
  <fix>3d</fix>
</trkpt>
<trkpt lat="-27.274439" lon="151.290064">
  <ele>343.1</ele>
  <time>2026-09-01T19:50:10Z</time>
  <course>270.0</course>
  <speed>0.0</speed>
  <fix>3d</fix>
</trkpt>
<trkpt lat="-27.274439" lon="151.290064">
  <ele>343.01</ele>
  <time>2026-09-01T19:50:10Z</time>
  <course>10.8</course>
  <speed>0.0</speed>
  <fix>3d</fix>
</trkpt>
<trkpt lat="-27.274439" lon="151.290064">
  <ele>343.1</ele>
  <time>2026-09-01T19:50:10Z</time>
  <course>270.0</course>
  <speed>0.0</speed>
  <fix>3d</fix>
</trkpt>
<trkpt lat="-27.274439" lon="151.290064">
  <ele>343.1</ele>
  <time>2026-09-01T19:50:10Z</time>
  <course>10.8</course>
  <speed>0.0</speed>
  <fix>3d</fix>
</trkpt>
<trkpt lat="-27.274439" lon="151.290064">
  <ele>343.1</ele>
  <time>2026-09-01T19:50:10Z</time>
  <course>270.0</course>
  <speed>0.0</speed>
  <fix>3d</fix>
</trkpt>
<trkpt lat="-27.274439" lon="151.290064">
  <ele>342.99</ele>
  <time>2026-09-01T19:50:10Z</time>
  <course>10.8</course>
  <speed>0.0</speed>
  <fix>3d</fix>
</trkpt>
<trkpt lat="-27.274439" lon="151.290064">
  <ele>343.1</ele>
  <time>2026-09-01T19:50:10Z</time>
  <course>270.0</course>
  <speed>0.0</speed>
  <fix>3d</fix>
</trkpt>
<trkpt lat="-27.274439" lon="151.290064">
  <ele>342.87</ele>
  <time>2026-09-01T19:50:10Z</time>
  <course>10.8</course>
  <speed>0.0</speed>
  <fix>3d</fix>
</trkpt>
<trkpt lat="-27.274439" lon="151.290064">
  <ele>343.1</ele>
  <time>2026-09-01T19:50:10Z</time>
  <course>270.0</course>
  <speed>0.0</speed>
  <fix>3d</fix>
</trkpt>
<trkpt lat="-27.274439" lon="151.290064">
  <ele>343.1</ele>
  <time>2026-09-01T19:50:10Z</time>
  <course>10.8</course>
  <speed>0.0</speed>
  <fix>3d</fix>
</trkpt>
<trkpt lat="-27.274439" lon="151.290064">
  <ele>343.1</ele>
  <time>2026-09-01T19:50:10Z</time>
  <course>270.0</course>
  <speed>0.0</speed>
  <fix>3d</fix>
</trkpt>
<trkpt lat="-27.274439" lon="151.290064">
  <ele>342.99</ele>
  <time>2026-09-01T19:50:10Z</time>
  <course>10.8</course>
  <speed>0.0</speed>
  <fix>3d</fix>
</trkpt>
<trkpt lat="-27.274439" lon="151.290064">
  <ele>343.1</ele>
  <time>2026-09-01T19:50:10Z</time>
  <course>270.0</course>
  <speed>0.0</speed>
  <fix>3d</fix>
</trkpt>
<trkpt lat="-27.274439" lon="151.290064">
  <ele>342.91</ele>
  <time>2026-09-01T19:50:10Z</time>
  <course>10.8</course>
  <speed>0.0</speed>
  <fix>3d</fix>
</trkpt>
<trkpt lat="-27.274439" lon="151.290064">
  <ele>343.1</ele>
  <time>2026-09-01T19:50:10Z</time>
  <course>270.0</course>
  <speed>0.0</speed>
  <fix>3d</fix>
</trkpt>
<trkpt lat="-27.274439" lon="151.290064">
  <ele>342.9</ele>
  <time>2026-09-01T19:50:10Z</time>
  <course>10.8</course>
  <speed>0.0</speed>
  <fix>3d</fix>
</trkpt>
<trkpt lat="-27.274439" lon="151.290064">
  <ele>343.1</ele>
  <time>2026-09-01T19:50:10Z</time>
  <course>270.0</course>
  <speed>0.0</speed>
  <fix>3d</fix>
</trkpt>
<trkpt lat="-27.274439" lon="151.290064">
  <ele>342.87</ele>
  <time>2026-09-01T19:50:10Z</time>
  <course>10.8</course>
  <speed>0.0</speed>
  <fix>3d</fix>
</trkpt>
<trkpt lat="-27.274439" lon="151.290064">
  <ele>343.1</ele>
  <time>2026-09-01T19:50:10Z</time>
  <course>270.0</course>
  <speed>0.0</speed>
  <fix>3d</fix>
</trkpt>
<trkpt lat="-27.274439" lon="151.290064">
  <ele>343.12</ele>
  <time>2026-09-01T19:50:10Z</time>
  <course>10.8</course>
  <speed>0.0</speed>
  <fix>3d</fix>
</trkpt>
<trkpt lat="-27.274439" lon="151.290064">
  <ele>343.1</ele>
  <time>2026-09-01T19:50:10Z</time>
  <course>270.0</course>
  <speed>0.0</speed>
  <fix>3d</fix>
</trkpt>
<trkpt lat="-27.274439" lon="151.290064">
  <ele>342.99</ele>
  <time>2026-09-01T19:50:10Z</time>
  <course>10.8</course>
  <speed>0.0</speed>
  <fix>3d</fix>
</trkpt>
<trkpt lat="-27.274439" lon="151.290064">
  <ele>343.1</ele>
  <time>2026-09-01T19:50:10Z</time>
  <course>270.0</course>
  <speed>0.0</speed>
  <fix>3d</fix>
</trkpt>
<trkpt lat="-27.274439" lon="151.290064">
  <ele>343.13</ele>
  <time>2026-09-01T19:50:10Z</time>
  <course>10.8</course>
  <speed>0.0</speed>
  <fix>3d</fix>
</trkpt>
<trkpt lat="-27.274439" lon="151.290064">
  <ele>343.1</ele>
  <time>2026-09-01T19:50:10Z</time>
  <course>270.0</course>
  <speed>0.0</speed>
  <fix>3d</fix>
</trkpt>
<trkpt lat="-27.274439" lon="151.290064">
  <ele>343.0</ele>
  <time>2026-09-01T19:50:10Z</time>
  <course>10.8</course>
  <speed>0.0</speed>
  <fix>3d</fix>
</trkpt>
<trkpt lat="-27.274439" lon="151.290064">
  <ele>343.1</ele>
  <time>2026-09-01T19:50:10Z</time>
  <course>270.0</course>
  <speed>0.0</speed>
  <fix>3d</fix>
</trkpt>
<trkpt lat="-27.274439" lon="151.290064">
  <ele>343.17</ele>
  <time>2026-09-01T19:50:10Z</time>
  <course>10.8</course>
  <speed>0.0</speed>
  <fix>3d</fix>
</trkpt>
<trkpt lat="-27.274439" lon="151.290064">
  <ele>343.1</ele>
  <time>2026-09-01T19:50:10Z</time>
  <course>270.0</course>
  <speed>0.0</speed>
  <fix>3d</fix>
</trkpt>
<trkpt lat="-27.274439" lon="151.290064">
  <ele>343.0</ele>
  <time>2026-09-01T19:50:10Z</time>
  <course>10.8</course>
  <speed>0.0</speed>
  <fix>3d</fix>
</trkpt>
<trkpt lat="-27.274439" lon="151.290064">
  <ele>343.1</ele>
  <time>2026-09-01T19:50:10Z</time>
  <course>270.0</course>
  <speed>0.0</speed>
  <fix>3d</fix>
</trkpt>
<trkpt lat="-27.274439" lon="151.290064">
  <ele>342.99</ele>
  <time>2026-09-01T19:50:10Z</time>
  <course>10.8</course>
  <speed>0.0</speed>
  <fix>3d</fix>
</trkpt>
<trkpt lat="-27.274439" lon="151.290064">
  <ele>343.1</ele>
  <time>2026-09-01T19:50:10Z</time>
  <course>270.0</course>
  <speed>0.0</speed>
  <fix>3d</fix>
</trkpt>
<trkpt lat="-27.274439" lon="151.290064">
  <ele>343.17</ele>
  <time>2026-09-01T19:50:10Z</time>
  <course>10.8</course>
  <speed>0.0</speed>
  <fix>3d</fix>
</trkpt>
<trkpt lat="-27.274439" lon="151.290064">
  <ele>343.1</ele>
  <time>2026-09-01T19:50:10Z</time>
  <course>270.0</course>
  <speed>0.0</speed>
  <fix>3d</fix>
</trkpt>
<trkpt lat="-27.274439" lon="151.290064">
  <ele>343.16</ele>
  <time>2026-09-01T19:50:10Z</time>
  <course>10.8</course>
  <speed>0.0</speed>
  <fix>3d</fix>
</trkpt>
<trkpt lat="-27.274439" lon="151.290064">
  <ele>343.1</ele>
  <time>2026-09-01T19:50:10Z</time>
  <course>270.0</course>
  <speed>0.0</speed>
  <fix>3d</fix>
</trkpt>
<trkpt lat="-27.274439" lon="151.290064">
  <ele>342.87</ele>
  <time>2026-09-01T19:50:10Z</time>
  <course>10.8</course>
  <speed>0.0</speed>
  <fix>3d</fix>
</trkpt>
<trkpt lat="-27.274439" lon="151.290064">
  <ele>343.1</ele>
  <time>2026-09-01T19:50:10Z</time>
  <course>270.0</course>
  <speed>0.0</speed>
  <fix>3d</fix>
</trkpt>
<trkpt lat="-27.274439" lon="151.290064">
  <ele>343.19</ele>
  <time>2026-09-01T19:50:10Z</time>
  <course>10.8</course>
  <speed>0.0</speed>
  <fix>3d</fix>
</trkpt>
<trkpt lat="-27.274439" lon="151.290064">
  <ele>343.1</ele>
  <time>2026-09-01T19:50:10Z</time>
  <course>270.0</course>
  <speed>0.0</speed>
  <fix>3d</fix>
</trkpt>
<trkpt lat="-27.274439" lon="151.290064">
  <ele>343.16</ele>
  <time>2026-09-01T19:50:10Z</time>
  <course>10.8</course>
  <speed>0.0</speed>
  <fix>3d</fix>
</trkpt>
<trkpt lat="-27.274439" lon="151.290064">
  <ele>343.1</ele>
  <time>2026-09-01T19:50:10Z</time>
  <course>270.0</course>
  <speed>0.0</speed>
  <fix>3d</fix>
</trkpt>
<trkpt lat="-27.274439" lon="151.290064">
  <ele>343.21</ele>
  <time>2026-09-01T19:50:10Z</time>
  <course>10.8</course>
  <speed>0.0</speed>
  <fix>3d</fix>
</trkpt>
<trkpt lat="-27.274439" lon="151.290064">
  <ele>343.1</ele>
  <time>2026-09-01T19:50:10Z</time>
  <course>270.0</course>
  <speed>0.0</speed>
  <fix>3d</fix>
</trkpt>
<trkpt lat="-27.274439" lon="151.290064">
  <ele>343.22</ele>
  <time>2026-09-01T19:50:10Z</time>
  <course>10.8</course>
  <speed>0.0</speed>
  <fix>3d</fix>
</trkpt>
<trkpt lat="-27.274439" lon="151.290064">
  <ele>343.1</ele>
  <time>2026-09-01T19:50:10Z</time>
  <course>270.0</course>
  <speed>0.0</speed>
  <fix>3d</fix>
</trkpt>
<trkpt lat="-27.274439" lon="151.290064">
  <ele>343.24</ele>
  <time>2026-09-01T19:50:10Z</time>
  <course>10.8</course>
  <speed>0.0</speed>
  <fix>3d</fix>
</trkpt>
<trkpt lat="-27.274439" lon="151.290064">
  <ele>343.1</ele>
  <time>2026-09-01T19:50:10Z</time>
  <course>270.0</course>
  <speed>0.0</speed>
  <fix>3d</fix>
</trkpt>
<trkpt lat="-27.274439" lon="151.290064">
  <ele>343.0</ele>
  <time>2026-09-01T19:50:10Z</time>
  <course>10.8</course>
  <speed>0.0</speed>
  <fix>3d</fix>
</trkpt>
<trkpt lat="-27.274439" lon="151.290064">
  <ele>343.1</ele>
  <time>2026-09-01T19:50:10Z</time>
  <course>270.0</course>
  <speed>0.0</speed>
  <fix>3d</fix>
</trkpt>
<trkpt lat="-27.274439" lon="151.290064">
  <ele>343.1</ele>
  <time>2026-09-01T19:50:10Z</time>
  <course>10.8</course>
  <speed>0.0</speed>
  <fix>3d</fix>
</trkpt>
<trkpt lat="-27.274439" lon="151.290064">
  <ele>343.1</ele>
  <time>2026-09-01T19:50:10Z</time>
  <course>270.0</course>
  <speed>0.0</speed>
  <fix>3d</fix>
</trkpt>
<trkpt lat="-27.274439" lon="151.290064">
  <ele>343.05</ele>
  <time>2026-09-01T19:50:10Z</time>
  <course>10.8</course>
  <speed>0.0</speed>
  <fix>3d</fix>
</trkpt>
<trkpt lat="-27.274439" lon="151.290064">
  <ele>343.1</ele>
  <time>2026-09-01T19:50:10Z</time>
  <course>270.0</course>
  <speed>0.0</speed>
  <fix>3d</fix>
</trkpt>
<trkpt lat="-27.274439" lon="151.290064">
  <ele>342.87</ele>
  <time>2026-09-01T19:50:10Z</time>
  <course>10.8</course>
  <speed>0.0</speed>
  <fix>3d</fix>
</trkpt>
<trkpt lat="-27.274439" lon="151.290064">
  <ele>343.1</ele>
  <time>2026-09-01T19:50:10Z</time>
  <course>270.0</course>
  <speed>0.0</speed>
  <fix>3d</fix>
</trkpt>
<trkpt lat="-27.274439" lon="151.290064">
  <ele>342.92</ele>
  <time>2026-09-01T19:50:10Z</time>
  <course>10.8</course>
  <speed>0.0</speed>
  <fix>3d</fix>
</trkpt>
<trkpt lat="-27.274439" lon="151.290064">
  <ele>343.1</ele>
  <time>2026-09-01T19:50:10Z</time>
  <course>270.0</course>
  <speed>0.0</speed>
  <fix>3d</fix>
</trkpt>
<trkpt lat="-27.274439" lon="151.290064">
  <ele>342.96</ele>
  <time>2026-09-01T19:50:10Z</time>
  <course>10.8</course>
  <speed>0.0</speed>
  <fix>3d</fix>
</trkpt>
<trkpt lat="-27.274439" lon="151.290064">
  <ele>343.1</ele>
  <time>2026-09-01T19:50:10Z</time>
  <course>270.0</course>
  <speed>0.0</speed>
  <fix>3d</fix>
</trkpt>
<trkpt lat="-27.274439" lon="151.290064">
  <ele>343.15</ele>
  <time>2026-09-01T19:50:10Z</time>
  <course>10.8</course>
  <speed>0.0</speed>
  <fix>3d</fix>
</trkpt>
<trkpt lat="-27.274439" lon="151.290064">
  <ele>343.1</ele>
  <time>2026-09-01T19:50:10Z</time>
  <course>270.0</course>
  <speed>0.0</speed>
  <fix>3d</fix>
</trkpt>
<trkpt lat="-27.274439" lon="151.290064">
  <ele>343.16</ele>
  <time>2026-09-01T19:50:10Z</time>
  <course>10.8</course>
  <speed>0.0</speed>
  <fix>3d</fix>
</trkpt>
<trkpt lat="-27.274439" lon="151.290064">
  <ele>343.1</ele>
  <time>2026-09-01T19:50:10Z</time>
  <course>270.0</course>
  <speed>0.0</speed>
  <fix>3d</fix>
</trkpt>
<trkpt lat="-27.274439" lon="151.290064">
  <ele>343.2</ele>
  <time>2026-09-01T19:50:10Z</time>
  <course>10.81</course>
  <speed>0.0</speed>
  <fix>3d</fix>
</trkpt>
<trkpt lat="-27.274439" lon="151.290064">
  <ele>343.1</ele>
  <time>2026-09-01T19:50:10Z</time>
  <course>270.0</course>
  <speed>0.0</speed>
  <fix>3d</fix>
</trkpt>
<trkpt lat="-27.274439" lon="151.290064">
  <ele>343.13</ele>
  <time>2026-09-01T19:50:10Z</time>
  <course>10.82</course>
  <speed>0.0</speed>
  <fix>3d</fix>
</trkpt>
<trkpt lat="-27.274439" lon="151.290064">
  <ele>343.1</ele>
  <time>2026-09-01T19:50:10Z</time>
  <course>270.0</course>
  <speed>0.0</speed>
  <fix>3d</fix>
</trkpt>
<trkpt lat="-27.274439" lon="151.290064">
  <ele>343.09</ele>
  <time>2026-09-01T19:50:10Z</time>
  <course>10.71</course>
  <speed>0.0</speed>
  <fix>3d</fix>
</trkpt>
<trkpt lat="-27.274439" lon="151.290064">
  <ele>343.1</ele>
  <time>2026-09-01T19:50:10Z</time>
  <course>270.0</course>
  <speed>0.0</speed>
  <fix>3d</fix>
</trkpt>
<trkpt lat="-27.274439" lon="151.290064">
  <ele>343.09</ele>
  <time>2026-09-01T19:50:10Z</time>
  <course>10.71</course>
  <speed>0.0</speed>
  <fix>3d</fix>
</trkpt>
<trkpt lat="-27.274439" lon="151.290064">
  <ele>343.1</ele>
  <time>2026-09-01T19:50:10Z</time>
  <course>270.0</course>
  <speed>0.0</speed>
  <fix>3d</fix>
</trkpt>
<trkpt lat="-27.274439" lon="151.290064">
  <ele>343.1</ele>
  <time>2026-09-01T19:50:10Z</time>
  <course>10.71</course>
  <speed>0.0</speed>
  <fix>3d</fix>
</trkpt>
<trkpt lat="-27.274439" lon="151.290064">
  <ele>343.1</ele>
  <time>2026-09-01T19:50:10Z</time>
  <course>270.0</course>
  <speed>0.0</speed>
  <fix>3d</fix>
</trkpt>
<trkpt lat="-27.274439" lon="151.290064">
  <ele>343.1</ele>
  <time>2026-09-01T19:50:10Z</time>
  <course>10.71</course>
  <speed>0.0</speed>
  <fix>3d</fix>
</trkpt>
<trkpt lat="-27.274439" lon="151.290064">
  <ele>343.1</ele>
  <time>2026-09-01T19:50:10Z</time>
  <course>270.0</course>
  <speed>0.0</speed>
  <fix>3d</fix>
</trkpt>
<trkpt lat="-27.274439" lon="151.290064">
  <ele>343.1</ele>
  <time>2026-09-01T19:50:10Z</time>
  <course>10.71</course>
  <speed>0.0</speed>
  <fix>3d</fix>
</trkpt>
<trkpt lat="-27.274439" lon="151.290064">
  <ele>343.1</ele>
  <time>2026-09-01T19:50:10Z</time>
  <course>270.0</course>
  <speed>0.0</speed>
  <fix>3d</fix>
</trkpt>
<trkpt lat="-27.274439" lon="151.290064">
  <ele>343.1</ele>
  <time>2026-09-01T19:50:10Z</time>
  <course>10.71</course>
  <speed>0.0</speed>
  <fix>3d</fix>
</trkpt>
<trkpt lat="-27.274439" lon="151.290064">
  <ele>343.1</ele>
  <time>2026-09-01T19:50:10Z</time>
  <course>270.0</course>
  <speed>0.0</speed>
  <fix>3d</fix>
</trkpt>
<trkpt lat="-27.274439" lon="151.290064">
  <ele>343.1</ele>
  <time>2026-09-01T19:50:10Z</time>
  <course>10.71</course>
  <speed>0.0</speed>
  <fix>3d</fix>
</trkpt>
<trkpt lat="-27.274439" lon="151.290064">
  <ele>343.1</ele>
  <time>2026-09-01T19:50:10Z</time>
  <course>270.0</course>
  <speed>0.0</speed>
  <fix>3d</fix>
</trkpt>
<trkpt lat="-27.274439" lon="151.290064">
  <ele>343.11</ele>
  <time>2026-09-01T19:50:10Z</time>
  <course>10.71</course>
  <speed>0.0</speed>
  <fix>3d</fix>
</trkpt>
<trkpt lat="-27.274439" lon="151.290064">
  <ele>343.1</ele>
  <time>2026-09-01T19:50:10Z</time>
  <course>270.0</course>
  <speed>0.0</speed>
  <fix>3d</fix>
</trkpt>
<trkpt lat="-27.274439" lon="151.290064">
  <ele>343.11</ele>
  <time>2026-09-01T19:50:10Z</time>
  <course>10.71</course>
  <speed>0.0</speed>
  <fix>3d</fix>
</trkpt>
<trkpt lat="-27.274439" lon="151.290064">
  <ele>343.1</ele>
  <time>2026-09-01T19:50:10Z</time>
  <course>270.0</course>
  <speed>0.0</speed>
  <fix>3d</fix>
</trkpt>
<trkpt lat="-27.274439" lon="151.290064">
  <ele>343.11</ele>
  <time>2026-09-01T19:50:10Z</time>
  <course>10.71</course>
  <speed>0.0</speed>
  <fix>3d</fix>
</trkpt>
<trkpt lat="-27.274439" lon="151.290064">
  <ele>343.1</ele>
  <time>2026-09-01T19:50:10Z</time>
  <course>270.0</course>
  <speed>0.0</speed>
  <fix>3d</fix>
</trkpt>
<trkpt lat="-27.274439" lon="151.290064">
  <ele>343.12</ele>
  <time>2026-09-01T19:50:10Z</time>
  <course>10.71</course>
  <speed>0.0</speed>
  <fix>3d</fix>
</trkpt>
<trkpt lat="-27.274439" lon="151.290064">
  <ele>343.1</ele>
  <time>2026-09-01T19:50:10Z</time>
  <course>270.0</course>
  <speed>0.0</speed>
  <fix>3d</fix>
</trkpt>
<trkpt lat="-27.274439" lon="151.290064">
  <ele>343.12</ele>
  <time>2026-09-01T19:50:10Z</time>
  <course>10.71</course>
  <speed>0.0</speed>
  <fix>3d</fix>
</trkpt>
<trkpt lat="-27.274439" lon="151.290064">
  <ele>343.1</ele>
  <time>2026-09-01T19:50:10Z</time>
  <course>270.0</course>
  <speed>0.0</speed>
  <fix>3d</fix>
</trkpt>
<trkpt lat="-27.274439" lon="151.290064">
  <ele>343.1</ele>
  <time>2026-09-01T19:50:10Z</time>
  <course>10.71</course>
  <speed>0.0</speed>
  <fix>3d</fix>
</trkpt>
<trkpt lat="-27.274439" lon="151.290064">
  <ele>343.1</ele>
  <time>2026-09-01T19:50:10Z</time>
  <course>270.0</course>
  <speed>0.0</speed>
  <fix>3d</fix>
</trkpt>
<trkpt lat="-27.274439" lon="151.290064">
  <ele>343.1</ele>
  <time>2026-09-01T19:50:10Z</time>
  <course>10.71</course>
  <speed>0.0</speed>
  <fix>3d</fix>
</trkpt>
<trkpt lat="-27.274439" lon="151.290064">
  <ele>343.1</ele>
  <time>2026-09-01T19:50:10Z</time>
  <course>270.0</course>
  <speed>0.0</speed>
  <fix>3d</fix>
</trkpt>
<trkpt lat="-27.274439" lon="151.290064">
  <ele>343.1</ele>
  <time>2026-09-01T19:50:10Z</time>
  <course>10.71</course>
  <speed>0.0</speed>
  <fix>3d</fix>
</trkpt>
<trkpt lat="-27.274439" lon="151.290064">
  <ele>343.1</ele>
  <time>2026-09-01T19:50:10Z</time>
  <course>270.0</course>
  <speed>0.0</speed>
  <fix>3d</fix>
</trkpt>
<trkpt lat="-27.274439" lon="151.290064">
  <ele>343.09</ele>
  <time>2026-09-01T19:50:10Z</time>
  <course>10.71</course>
  <speed>0.0</speed>
  <fix>3d</fix>
</trkpt>
<trkpt lat="-27.274439" lon="151.290064">
  <ele>343.1</ele>
  <time>2026-09-01T19:50:10Z</time>
  <course>270.0</course>
  <speed>0.0</speed>
  <fix>3d</fix>
</trkpt>
<trkpt lat="-27.274439" lon="151.290064">
  <ele>343.09</ele>
  <time>2026-09-01T19:50:10Z</time>
  <course>10.71</course>
  <speed>0.0</speed>
  <fix>3d</fix>
</trkpt>
<trkpt lat="-27.274439" lon="151.290064">
  <ele>343.1</ele>
  <time>2026-09-01T19:50:10Z</time>
  <course>270.0</course>
  <speed>0.0</speed>
  <fix>3d</fix>
</trkpt>
<trkpt lat="-27.274439" lon="151.290064">
  <ele>343.09</ele>
  <time>2026-09-01T19:50:10Z</time>
  <course>10.71</course>
  <speed>0.0</speed>
  <fix>3d</fix>
</trkpt>
<trkpt lat="-27.274439" lon="151.290064">
  <ele>343.1</ele>
  <time>2026-09-01T19:50:10Z</time>
  <course>270.0</course>
  <speed>0.0</speed>
  <fix>3d</fix>
</trkpt>
<trkpt lat="-27.274439" lon="151.290064">
  <ele>343.1</ele>
  <time>2026-09-01T19:50:10Z</time>
  <course>10.71</course>
  <speed>0.0</speed>
  <fix>3d</fix>
</trkpt>
<trkpt lat="-27.274439" lon="151.290064">
  <ele>343.1</ele>
  <time>2026-09-01T19:50:10Z</time>
  <course>270.0</course>
  <speed>0.0</speed>
  <fix>3d</fix>
</trkpt>
<trkpt lat="-27.274439" lon="151.290064">
  <ele>343.1</ele>
  <time>2026-09-01T19:50:10Z</time>
  <course>10.71</course>
  <speed>0.0</speed>
  <fix>3d</fix>
</trkpt>
<trkpt lat="-27.274439" lon="151.290064">
  <ele>343.1</ele>
  <time>2026-09-01T19:50:10Z</time>
  <course>270.0</course>
  <speed>0.0</speed>
  <fix>3d</fix>
</trkpt>
<trkpt lat="-27.274439" lon="151.290064">
  <ele>343.09</ele>
  <time>2026-09-01T19:50:10Z</time>
  <course>10.71</course>
  <speed>0.0</speed>
  <fix>3d</fix>
</trkpt>
<trkpt lat="-27.274439" lon="151.290064">
  <ele>343.1</ele>
  <time>2026-09-01T19:50:10Z</time>
  <course>270.0</course>
  <speed>0.0</speed>
  <fix>3d</fix>
</trkpt>
<trkpt lat="-27.274439" lon="151.290064">
  <ele>343.09</ele>
  <time>2026-09-01T19:50:10Z</time>
  <course>10.71</course>
  <speed>0.0</speed>
  <fix>3d</fix>
</trkpt>
<trkpt lat="-27.274439" lon="151.290064">
  <ele>343.1</ele>
  <time>2026-09-01T19:50:10Z</time>
  <course>270.0</course>
  <speed>0.0</speed>
  <fix>3d</fix>
</trkpt>
<trkpt lat="-27.274439" lon="151.290064">
  <ele>343.09</ele>
  <time>2026-09-01T19:50:10Z</time>
  <course>10.71</course>
  <speed>0.0</speed>
  <fix>3d</fix>
</trkpt>
<trkpt lat="-27.274439" lon="151.290064">
  <ele>343.1</ele>
  <time>2026-09-01T19:50:10Z</time>
  <course>270.0</course>
  <speed>0.0</speed>
  <fix>3d</fix>
</trkpt>
<trkpt lat="-27.274439" lon="151.290064">
  <ele>343.09</ele>
  <time>2026-09-01T19:50:10Z</time>
  <course>10.71</course>
  <speed>0.0</speed>
  <fix>3d</fix>
</trkpt>
<trkpt lat="-27.274439" lon="151.290064">
  <ele>343.1</ele>
  <time>2026-09-01T19:50:10Z</time>
  <course>270.0</course>
  <speed>0.0</speed>
  <fix>3d</fix>
</trkpt>
<trkpt lat="-27.274439" lon="151.290064">
  <ele>343.09</ele>
  <time>2026-09-01T19:50:10Z</time>
  <course>10.71</course>
  <speed>0.0</speed>
  <fix>3d</fix>
</trkpt>
<trkpt lat="-27.274439" lon="151.290064">
  <ele>343.1</ele>
  <time>2026-09-01T19:50:10Z</time>
  <course>270.0</course>
  <speed>0.0</speed>
  <fix>3d</fix>
</trkpt>
<trkpt lat="-27.274439" lon="151.290064">
  <ele>343.09</ele>
  <time>2026-09-01T19:50:10Z</time>
  <course>10.71</course>
  <speed>0.0</speed>
  <fix>3d</fix>
</trkpt>
<trkpt lat="-27.274439" lon="151.290064">
  <ele>343.1</ele>
  <time>2026-09-01T19:50:10Z</time>
  <course>270.0</course>
  <speed>0.0</speed>
  <fix>3d</fix>
</trkpt>
<trkpt lat="-27.274439" lon="151.290064">
  <ele>343.09</ele>
  <time>2026-09-01T19:50:10Z</time>
  <course>10.71</course>
  <speed>0.0</speed>
  <fix>3d</fix>
</trkpt>
<trkpt lat="-27.274439" lon="151.290064">
  <ele>343.1</ele>
  <time>2026-09-01T19:50:10Z</time>
  <course>270.0</course>
  <speed>0.0</speed>
  <fix>3d</fix>
</trkpt>
<trkpt lat="-27.274439" lon="151.290064">
  <ele>343.09</ele>
  <time>2026-09-01T19:50:10Z</time>
  <course>10.71</course>
  <speed>0.0</speed>
  <fix>3d</fix>
</trkpt>
<trkpt lat="-27.274439" lon="151.290064">
  <ele>343.1</ele>
  <time>2026-09-01T19:50:10Z</time>
  <course>270.0</course>
  <speed>0.0</speed>
  <fix>3d</fix>
</trkpt>
<trkpt lat="-27.274439" lon="151.290064">
  <ele>343.1</ele>
  <time>2026-09-01T19:50:10Z</time>
  <course>10.71</course>
  <speed>0.0</speed>
  <fix>3d</fix>
</trkpt>
<trkpt lat="-27.274439" lon="151.290064">
  <ele>343.1</ele>
  <time>2026-09-01T19:50:10Z</time>
  <course>270.0</course>
  <speed>0.0</speed>
  <fix>3d</fix>
</trkpt>
<trkpt lat="-27.274439" lon="151.290064">
  <ele>343.1</ele>
  <time>2026-09-01T19:50:10Z</time>
  <course>10.71</course>
  <speed>0.0</speed>
  <fix>3d</fix>
</trkpt>
<trkpt lat="-27.274439" lon="151.290064">
  <ele>343.1</ele>
  <time>2026-09-01T19:50:10Z</time>
  <course>270.0</course>
  <speed>0.0</speed>
  <fix>3d</fix>
</trkpt>
<trkpt lat="-27.274439" lon="151.290064">
  <ele>343.1</ele>
  <time>2026-09-01T19:50:10Z</time>
  <course>10.71</course>
  <speed>0.0</speed>
  <fix>3d</fix>
</trkpt>
<trkpt lat="-27.274439" lon="151.290064">
  <ele>343.1</ele>
  <time>2026-09-01T19:50:10Z</time>
  <course>270.0</course>
  <speed>0.0</speed>
  <fix>3d</fix>
</trkpt>
<trkpt lat="-27.274439" lon="151.290064">
  <ele>343.1</ele>
  <time>2026-09-01T19:50:10Z</time>
  <course>10.71</course>
  <speed>0.0</speed>
  <fix>3d</fix>
</trkpt>
<trkpt lat="-27.274439" lon="151.290064">
  <ele>343.1</ele>
  <time>2026-09-01T19:50:10Z</time>
  <course>270.0</course>
  <speed>0.0</speed>
  <fix>3d</fix>
</trkpt>
<trkpt lat="-27.274439" lon="151.290064">
  <ele>343.11</ele>
  <time>2026-09-01T19:50:10Z</time>
  <course>10.71</course>
  <speed>0.0</speed>
  <fix>3d</fix>
</trkpt>
<trkpt lat="-27.274439" lon="151.290064">
  <ele>343.1</ele>
  <time>2026-09-01T19:50:10Z</time>
  <course>270.0</course>
  <speed>0.0</speed>
  <fix>3d</fix>
</trkpt>
<trkpt lat="-27.274439" lon="151.290064">
  <ele>343.11</ele>
  <time>2026-09-01T19:50:10Z</time>
  <course>10.71</course>
  <speed>0.0</speed>
  <fix>3d</fix>
</trkpt>
<trkpt lat="-27.274439" lon="151.290064">
  <ele>343.1</ele>
  <time>2026-09-01T19:50:10Z</time>
  <course>270.0</course>
  <speed>0.0</speed>
  <fix>3d</fix>
</trkpt>
<trkpt lat="-27.274439" lon="151.290064">
  <ele>343.11</ele>
  <time>2026-09-01T19:50:10Z</time>
  <course>10.71</course>
  <speed>0.0</speed>
  <fix>3d</fix>
</trkpt>
<trkpt lat="-27.274439" lon="151.290064">
  <ele>343.1</ele>
  <time>2026-09-01T19:50:10Z</time>
  <course>270.0</course>
  <speed>0.0</speed>
  <fix>3d</fix>
</trkpt>
<trkpt lat="-27.274439" lon="151.290064">
  <ele>343.11</ele>
  <time>2026-09-01T19:50:10Z</time>
  <course>10.71</course>
  <speed>0.0</speed>
  <fix>3d</fix>
</trkpt>
<trkpt lat="-27.274439" lon="151.290064">
  <ele>343.1</ele>
  <time>2026-09-01T19:50:10Z</time>
  <course>270.0</course>
  <speed>0.0</speed>
  <fix>3d</fix>
</trkpt>
<trkpt lat="-27.274439" lon="151.290064">
  <ele>343.12</ele>
  <time>2026-09-01T19:50:10Z</time>
  <course>10.71</course>
  <speed>0.0</speed>
  <fix>3d</fix>
</trkpt>
<trkpt lat="-27.274439" lon="151.290064">
  <ele>343.1</ele>
  <time>2026-09-01T19:50:10Z</time>
  <course>270.0</course>
  <speed>0.0</speed>
  <fix>3d</fix>
</trkpt>
<trkpt lat="-27.274439" lon="151.290064">
  <ele>343.12</ele>
  <time>2026-09-01T19:50:10Z</time>
  <course>10.71</course>
  <speed>0.0</speed>
  <fix>3d</fix>
</trkpt>
<trkpt lat="-27.274439" lon="151.290064">
  <ele>343.1</ele>
  <time>2026-09-01T19:50:10Z</time>
  <course>270.0</course>
  <speed>0.0</speed>
  <fix>3d</fix>
</trkpt>
<trkpt lat="-27.274439" lon="151.290064">
  <ele>343.12</ele>
  <time>2026-09-01T19:50:10Z</time>
  <course>10.71</course>
  <speed>0.0</speed>
  <fix>3d</fix>
</trkpt>
<trkpt lat="-27.274439" lon="151.290064">
  <ele>343.1</ele>
  <time>2026-09-01T19:50:10Z</time>
  <course>270.0</course>
  <speed>0.0</speed>
  <fix>3d</fix>
</trkpt>
<trkpt lat="-27.274439" lon="151.290064">
  <ele>343.12</ele>
  <time>2026-09-01T19:50:10Z</time>
  <course>10.71</course>
  <speed>0.0</speed>
  <fix>3d</fix>
</trkpt>
<trkpt lat="-27.274439" lon="151.290064">
  <ele>343.1</ele>
  <time>2026-09-01T19:50:10Z</time>
  <course>270.0</course>
  <speed>0.0</speed>
  <fix>3d</fix>
</trkpt>
<trkpt lat="-27.274439" lon="151.290064">
  <ele>343.12</ele>
  <time>2026-09-01T19:50:10Z</time>
  <course>10.71</course>
  <speed>0.0</speed>
  <fix>3d</fix>
</trkpt>
<trkpt lat="-27.274439" lon="151.290064">
  <ele>343.1</ele>
  <time>2026-09-01T19:50:10Z</time>
  <course>270.0</course>
  <speed>0.0</speed>
  <fix>3d</fix>
</trkpt>
<trkpt lat="-27.274439" lon="151.290064">
  <ele>343.13</ele>
  <time>2026-09-01T19:50:10Z</time>
  <course>10.71</course>
  <speed>0.0</speed>
  <fix>3d</fix>
</trkpt>
<trkpt lat="-27.274439" lon="151.290064">
  <ele>343.1</ele>
  <time>2026-09-01T19:50:10Z</time>
  <course>270.0</course>
  <speed>0.0</speed>
  <fix>3d</fix>
</trkpt>
<trkpt lat="-27.274439" lon="151.290064">
  <ele>343.13</ele>
  <time>2026-09-01T19:50:10Z</time>
  <course>10.71</course>
  <speed>0.0</speed>
  <fix>3d</fix>
</trkpt>
<trkpt lat="-27.274439" lon="151.290064">
  <ele>343.1</ele>
  <time>2026-09-01T19:50:10Z</time>
  <course>270.0</course>
  <speed>0.0</speed>
  <fix>3d</fix>
</trkpt>
<trkpt lat="-27.274439" lon="151.290064">
  <ele>343.13</ele>
  <time>2026-09-01T19:50:10Z</time>
  <course>10.71</course>
  <speed>0.0</speed>
  <fix>3d</fix>
</trkpt>
<trkpt lat="-27.274439" lon="151.290064">
  <ele>343.1</ele>
  <time>2026-09-01T19:50:10Z</time>
  <course>270.0</course>
  <speed>0.0</speed>
  <fix>3d</fix>
</trkpt>
<trkpt lat="-27.274439" lon="151.290064">
  <ele>343.13</ele>
  <time>2026-09-01T19:50:10Z</time>
  <course>10.71</course>
  <speed>0.0</speed>
  <fix>3d</fix>
</trkpt>
<trkpt lat="-27.274439" lon="151.290064">
  <ele>343.1</ele>
  <time>2026-09-01T19:50:10Z</time>
  <course>270.0</course>
  <speed>0.0</speed>
  <fix>3d</fix>
</trkpt>
<trkpt lat="-27.274439" lon="151.290064">
  <ele>343.14</ele>
  <time>2026-09-01T19:50:10Z</time>
  <course>10.71</course>
  <speed>0.0</speed>
  <fix>3d</fix>
</trkpt>
<trkpt lat="-27.274439" lon="151.290064">
  <ele>343.1</ele>
  <time>2026-09-01T19:50:10Z</time>
  <course>270.0</course>
  <speed>0.0</speed>
  <fix>3d</fix>
</trkpt>
<trkpt lat="-27.274439" lon="151.290064">
  <ele>343.14</ele>
  <time>2026-09-01T19:50:10Z</time>
  <course>10.71</course>
  <speed>0.0</speed>
  <fix>3d</fix>
</trkpt>
<trkpt lat="-27.274439" lon="151.290064">
  <ele>343.1</ele>
  <time>2026-09-01T19:50:10Z</time>
  <course>270.0</course>
  <speed>0.0</speed>
  <fix>3d</fix>
</trkpt>
<trkpt lat="-27.274439" lon="151.290064">
  <ele>343.14</ele>
  <time>2026-09-01T19:50:10Z</time>
  <course>10.71</course>
  <speed>0.0</speed>
  <fix>3d</fix>
</trkpt>
<trkpt lat="-27.274439" lon="151.290064">
  <ele>343.1</ele>
  <time>2026-09-01T19:50:10Z</time>
  <course>270.0</course>
  <speed>0.0</speed>
  <fix>3d</fix>
</trkpt>
<trkpt lat="-27.274439" lon="151.290064">
  <ele>343.14</ele>
  <time>2026-09-01T19:50:10Z</time>
  <course>10.71</course>
  <speed>0.0</speed>
  <fix>3d</fix>
</trkpt>
<trkpt lat="-27.274439" lon="151.290064">
  <ele>343.1</ele>
  <time>2026-09-01T19:50:10Z</time>
  <course>270.0</course>
  <speed>0.0</speed>
  <fix>3d</fix>
</trkpt>
<trkpt lat="-27.274439" lon="151.290064">
  <ele>343.14</ele>
  <time>2026-09-01T19:50:10Z</time>
  <course>10.71</course>
  <speed>0.0</speed>
  <fix>3d</fix>
</trkpt>
<trkpt lat="-27.274439" lon="151.290064">
  <ele>343.1</ele>
  <time>2026-09-01T19:50:10Z</time>
  <course>270.0</course>
  <speed>0.0</speed>
  <fix>3d</fix>
</trkpt>
<trkpt lat="-27.274439" lon="151.290064">
  <ele>343.14</ele>
  <time>2026-09-01T19:50:10Z</time>
  <course>10.71</course>
  <speed>0.0</speed>
  <fix>3d</fix>
</trkpt>
<trkpt lat="-27.274439" lon="151.290064">
  <ele>343.1</ele>
  <time>2026-09-01T19:50:10Z</time>
  <course>270.0</course>
  <speed>0.0</speed>
  <fix>3d</fix>
</trkpt>
<trkpt lat="-27.274439" lon="151.290064">
  <ele>343.14</ele>
  <time>2026-09-01T19:50:10Z</time>
  <course>10.71</course>
  <speed>0.0</speed>
  <fix>3d</fix>
</trkpt>
<trkpt lat="-27.274439" lon="151.290064">
  <ele>343.1</ele>
  <time>2026-09-01T19:50:10Z</time>
  <course>270.0</course>
  <speed>0.0</speed>
  <fix>3d</fix>
</trkpt>
<trkpt lat="-27.274439" lon="151.290064">
  <ele>343.14</ele>
  <time>2026-09-01T19:50:10Z</time>
  <course>10.71</course>
  <speed>0.0</speed>
  <fix>3d</fix>
</trkpt>
<trkpt lat="-27.274439" lon="151.290064">
  <ele>343.1</ele>
  <time>2026-09-01T19:50:10Z</time>
  <course>270.0</course>
  <speed>0.0</speed>
  <fix>3d</fix>
</trkpt>
<trkpt lat="-27.274439" lon="151.290064">
  <ele>343.13</ele>
  <time>2026-09-01T19:50:10Z</time>
  <course>10.71</course>
  <speed>0.0</speed>
  <fix>3d</fix>
</trkpt>
<trkpt lat="-27.274439" lon="151.290064">
  <ele>343.1</ele>
  <time>2026-09-01T19:50:10Z</time>
  <course>270.0</course>
  <speed>0.0</speed>
  <fix>3d</fix>
</trkpt>
<trkpt lat="-27.274439" lon="151.290064">
  <ele>343.13</ele>
  <time>2026-09-01T19:50:10Z</time>
  <course>10.71</course>
  <speed>0.0</speed>
  <fix>3d</fix>
</trkpt>
<trkpt lat="-27.274439" lon="151.290064">
  <ele>343.1</ele>
  <time>2026-09-01T19:50:10Z</time>
  <course>270.0</course>
  <speed>0.0</speed>
  <fix>3d</fix>
</trkpt>
<trkpt lat="-27.274439" lon="151.290064">
  <ele>343.13</ele>
  <time>2026-09-01T19:50:10Z</time>
  <course>10.71</course>
  <speed>0.0</speed>
  <fix>3d</fix>
</trkpt>
<trkpt lat="-27.274439" lon="151.290064">
  <ele>343.1</ele>
  <time>2026-09-01T19:50:10Z</time>
  <course>270.0</course>
  <speed>0.0</speed>
  <fix>3d</fix>
</trkpt>
<trkpt lat="-27.274439" lon="151.290064">
  <ele>343.13</ele>
  <time>2026-09-01T19:50:10Z</time>
  <course>10.71</course>
  <speed>0.0</speed>
  <fix>3d</fix>
</trkpt>
<trkpt lat="-27.274439" lon="151.290064">
  <ele>343.1</ele>
  <time>2026-09-01T19:50:10Z</time>
  <course>270.0</course>
  <speed>0.0</speed>
  <fix>3d</fix>
</trkpt>
<trkpt lat="-27.274439" lon="151.290064">
  <ele>343.13</ele>
  <time>2026-09-01T19:50:10Z</time>
  <course>10.71</course>
  <speed>0.0</speed>
  <fix>3d</fix>
</trkpt>
<trkpt lat="-27.274439" lon="151.290064">
  <ele>343.1</ele>
  <time>2026-09-01T19:50:10Z</time>
  <course>270.0</course>
  <speed>0.0</speed>
  <fix>3d</fix>
</trkpt>
<trkpt lat="-27.274439" lon="151.290064">
  <ele>343.13</ele>
  <time>2026-09-01T19:50:10Z</time>
  <course>10.71</course>
  <speed>0.0</speed>
  <fix>3d</fix>
</trkpt>
<trkpt lat="-27.274439" lon="151.290064">
  <ele>343.1</ele>
  <time>2026-09-01T19:50:10Z</time>
  <course>270.0</course>
  <speed>0.0</speed>
  <fix>3d</fix>
</trkpt>
<trkpt lat="-27.274439" lon="151.290064">
  <ele>343.13</ele>
  <time>2026-09-01T19:50:10Z</time>
  <course>10.71</course>
  <speed>0.0</speed>
  <fix>3d</fix>
</trkpt>
<trkpt lat="-27.274439" lon="151.290064">
  <ele>343.1</ele>
  <time>2026-09-01T19:50:10Z</time>
  <course>270.0</course>
  <speed>0.0</speed>
  <fix>3d</fix>
</trkpt>
<trkpt lat="-27.274439" lon="151.290064">
  <ele>343.13</ele>
  <time>2026-09-01T19:50:10Z</time>
  <course>10.71</course>
  <speed>0.0</speed>
  <fix>3d</fix>
</trkpt>
<trkpt lat="-27.274439" lon="151.290064">
  <ele>343.1</ele>
  <time>2026-09-01T19:50:10Z</time>
  <course>270.0</course>
  <speed>0.0</speed>
  <fix>3d</fix>
</trkpt>
<trkpt lat="-27.274439" lon="151.290064">
  <ele>343.14</ele>
  <time>2026-09-01T19:50:10Z</time>
  <course>10.71</course>
  <speed>0.0</speed>
  <fix>3d</fix>
</trkpt>
<trkpt lat="-27.274439" lon="151.290064">
  <ele>343.1</ele>
  <time>2026-09-01T19:50:10Z</time>
  <course>270.0</course>
  <speed>0.0</speed>
  <fix>3d</fix>
</trkpt>
<trkpt lat="-27.274439" lon="151.290064">
  <ele>343.14</ele>
  <time>2026-09-01T19:50:10Z</time>
  <course>10.71</course>
  <speed>0.0</speed>
  <fix>3d</fix>
</trkpt>
<trkpt lat="-27.274439" lon="151.290064">
  <ele>343.1</ele>
  <time>2026-09-01T19:50:10Z</time>
  <course>270.0</course>
  <speed>0.0</speed>
  <fix>3d</fix>
</trkpt>
<trkpt lat="-27.274439" lon="151.290064">
  <ele>343.14</ele>
  <time>2026-09-01T19:50:10Z</time>
  <course>10.71</course>
  <speed>0.0</speed>
  <fix>3d</fix>
</trkpt>
<trkpt lat="-27.274439" lon="151.290064">
  <ele>343.1</ele>
  <time>2026-09-01T19:50:10Z</time>
  <course>270.0</course>
  <speed>0.0</speed>
  <fix>3d</fix>
</trkpt>
<trkpt lat="-27.274439" lon="151.290064">
  <ele>343.14</ele>
  <time>2026-09-01T19:50:10Z</time>
  <course>10.71</course>
  <speed>0.0</speed>
  <fix>3d</fix>
</trkpt>
<trkpt lat="-27.274439" lon="151.290064">
  <ele>343.1</ele>
  <time>2026-09-01T19:50:10Z</time>
  <course>270.0</course>
  <speed>0.0</speed>
  <fix>3d</fix>
</trkpt>
<trkpt lat="-27.274439" lon="151.290064">
  <ele>343.14</ele>
  <time>2026-09-01T19:50:10Z</time>
  <course>10.71</course>
  <speed>0.0</speed>
  <fix>3d</fix>
</trkpt>
<trkpt lat="-27.274439" lon="151.290064">
  <ele>343.1</ele>
  <time>2026-09-01T19:50:10Z</time>
  <course>270.0</course>
  <speed>0.0</speed>
  <fix>3d</fix>
</trkpt>
<trkpt lat="-27.274439" lon="151.290064">
  <ele>343.14</ele>
  <time>2026-09-01T19:50:10Z</time>
  <course>10.71</course>
  <speed>0.0</speed>
  <fix>3d</fix>
</trkpt>
<trkpt lat="-27.274439" lon="151.290064">
  <ele>343.1</ele>
  <time>2026-09-01T19:50:10Z</time>
  <course>270.0</course>
  <speed>0.0</speed>
  <fix>3d</fix>
</trkpt>
<trkpt lat="-27.274439" lon="151.290064">
  <ele>343.15</ele>
  <time>2026-09-01T19:50:10Z</time>
  <course>10.71</course>
  <speed>0.0</speed>
  <fix>3d</fix>
</trkpt>
<trkpt lat="-27.274439" lon="151.290064">
  <ele>343.1</ele>
  <time>2026-09-01T19:50:10Z</time>
  <course>270.0</course>
  <speed>0.0</speed>
  <fix>3d</fix>
</trkpt>
<trkpt lat="-27.274439" lon="151.290064">
  <ele>343.15</ele>
  <time>2026-09-01T19:50:10Z</time>
  <course>10.71</course>
  <speed>0.0</speed>
  <fix>3d</fix>
</trkpt>
<trkpt lat="-27.274439" lon="151.290064">
  <ele>343.1</ele>
  <time>2026-09-01T19:50:10Z</time>
  <course>270.0</course>
  <speed>0.0</speed>
  <fix>3d</fix>
</trkpt>
<trkpt lat="-27.274439" lon="151.290064">
  <ele>343.15</ele>
  <time>2026-09-01T19:50:10Z</time>
  <course>10.71</course>
  <speed>0.0</speed>
  <fix>3d</fix>
</trkpt>
<trkpt lat="-27.274439" lon="151.290064">
  <ele>343.1</ele>
  <time>2026-09-01T19:50:10Z</time>
  <course>270.0</course>
  <speed>0.0</speed>
  <fix>3d</fix>
</trkpt>
<trkpt lat="-27.274439" lon="151.290064">
  <ele>343.15</ele>
  <time>2026-09-01T19:50:10Z</time>
  <course>10.71</course>
  <speed>0.0</speed>
  <fix>3d</fix>
</trkpt>
<trkpt lat="-27.274439" lon="151.290064">
  <ele>343.1</ele>
  <time>2026-09-01T19:50:10Z</time>
  <course>270.0</course>
  <speed>0.0</speed>
  <fix>3d</fix>
</trkpt>
<trkpt lat="-27.274439" lon="151.290064">
  <ele>343.15</ele>
  <time>2026-09-01T19:50:10Z</time>
  <course>10.71</course>
  <speed>0.0</speed>
  <fix>3d</fix>
</trkpt>
<trkpt lat="-27.274439" lon="151.290064">
  <ele>343.1</ele>
  <time>2026-09-01T19:50:10Z</time>
  <course>270.0</course>
  <speed>0.0</speed>
  <fix>3d</fix>
</trkpt>
<trkpt lat="-27.274439" lon="151.290064">
  <ele>343.1</ele>
  <time>2026-09-01T19:50:10Z</time>
  <course>10.71</course>
  <speed>0.0</speed>
  <fix>3d</fix>
</trkpt>
<trkpt lat="-27.274439" lon="151.290064">
  <ele>343.1</ele>
  <time>2026-09-01T19:50:10Z</time>
  <course>270.0</course>
  <speed>0.0</speed>
  <fix>3d</fix>
</trkpt>
<trkpt lat="-27.274439" lon="151.290064">
  <ele>343.1</ele>
  <time>2026-09-01T19:50:10Z</time>
  <course>10.71</course>
  <speed>0.0</speed>
  <fix>3d</fix>
</trkpt>
<trkpt lat="-27.274439" lon="151.290064">
  <ele>343.1</ele>
  <time>2026-09-01T19:50:10Z</time>
  <course>270.0</course>
  <speed>0.0</speed>
  <fix>3d</fix>
</trkpt>
<trkpt lat="-27.274439" lon="151.290064">
  <ele>343.1</ele>
  <time>2026-09-01T19:50:10Z</time>
  <course>10.71</course>
  <speed>0.0</speed>
  <fix>3d</fix>
</trkpt>
<trkpt lat="-27.274439" lon="151.290064">
  <ele>343.1</ele>
  <time>2026-09-01T19:50:10Z</time>
  <course>270.0</course>
  <speed>0.0</speed>
  <fix>3d</fix>
</trkpt>
<trkpt lat="-27.274439" lon="151.290064">
  <ele>343.1</ele>
  <time>2026-09-01T19:50:10Z</time>
  <course>10.71</course>
  <speed>0.0</speed>
  <fix>3d</fix>
</trkpt>
<trkpt lat="-27.274439" lon="151.290064">
  <ele>343.1</ele>
  <time>2026-09-01T19:50:10Z</time>
  <course>270.0</course>
  <speed>0.0</speed>
  <fix>3d</fix>
</trkpt>
<trkpt lat="-27.274439" lon="151.290064">
  <ele>343.09</ele>
  <time>2026-09-01T19:50:10Z</time>
  <course>10.71</course>
  <speed>0.0</speed>
  <fix>3d</fix>
</trkpt>
<trkpt lat="-27.274439" lon="151.290064">
  <ele>343.1</ele>
  <time>2026-09-01T19:50:10Z</time>
  <course>270.0</course>
  <speed>0.0</speed>
  <fix>3d</fix>
</trkpt>
<trkpt lat="-27.274439" lon="151.290064">
  <ele>343.09</ele>
  <time>2026-09-01T19:50:10Z</time>
  <course>10.71</course>
  <speed>0.0</speed>
  <fix>3d</fix>
</trkpt>
<trkpt lat="-27.274439" lon="151.290064">
  <ele>343.1</ele>
  <time>2026-09-01T19:50:10Z</time>
  <course>270.0</course>
  <speed>0.0</speed>
  <fix>3d</fix>
</trkpt>
<trkpt lat="-27.274439" lon="151.290064">
  <ele>343.08</ele>
  <time>2026-09-01T19:50:10Z</time>
  <course>10.71</course>
  <speed>0.0</speed>
  <fix>3d</fix>
</trkpt>
<trkpt lat="-27.274439" lon="151.290064">
  <ele>343.1</ele>
  <time>2026-09-01T19:50:10Z</time>
  <course>270.0</course>
  <speed>0.0</speed>
  <fix>3d</fix>
</trkpt>
<trkpt lat="-26.9720619" lon="149.6127921">
  <ele>339.29</ele>
  <time>2026-09-01T19:50:11Z</time>
  <course>310.27</course>
  <speed>0.0</speed>
  <fix>3d</fix>
</trkpt>
<trkpt lat="-26.9720619" lon="149.6127921">
  <ele>339.29</ele>
  <time>2026-09-01T19:50:11Z</time>
  <course>310.27</course>
  <speed>0.0</speed>
  <fix>3d</fix>
</trkpt>
<trkpt lat="-27.274439" lon="151.290064">
  <ele>-0.01</ele>
  <time>2026-09-01T19:50:11Z</time>
  <course>0.22</course>
  <speed>0.0</speed>
  <fix>3d</fix>
</trkpt>
<trkpt lat="-27.274439" lon="151.290064">
  <ele>343.1</ele>
  <time>2026-09-01T19:50:11Z</time>
  <course>294.58</course>
  <speed>0.0</speed>
  <fix>3d</fix>
</trkpt>
<trkpt lat="-27.274439" lon="151.290064">
  <ele>0.02</ele>
  <time>2026-09-01T19:50:11Z</time>
  <course>1.2</course>
  <speed>0.0</speed>
  <fix>3d</fix>
</trkpt>
<trkpt lat="-27.274439" lon="151.290064">
  <ele>343.1</ele>
  <time>2026-09-01T19:50:11Z</time>
  <course>294.58</course>
  <speed>0.0</speed>
  <fix>3d</fix>
</trkpt>
<trkpt lat="-27.274439" lon="151.290064">
  <ele>-0.08</ele>
  <time>2026-09-01T19:50:11Z</time>
  <course>2.1</course>
  <speed>0.0</speed>
  <fix>3d</fix>
</trkpt>
<trkpt lat="-27.274439" lon="151.290064">
  <ele>343.1</ele>
  <time>2026-09-01T19:50:11Z</time>
  <course>273.33</course>
  <speed>0.0</speed>
  <fix>3d</fix>
</trkpt>
<trkpt lat="-27.274439" lon="151.290064">
  <ele>0.22</ele>
  <time>2026-09-01T19:50:11Z</time>
  <course>2.92</course>
  <speed>0.0</speed>
  <fix>3d</fix>
</trkpt>
<trkpt lat="-27.274439" lon="151.290064">
  <ele>343.1</ele>
  <time>2026-09-01T19:50:11Z</time>
  <course>273.33</course>
  <speed>0.0</speed>
  <fix>3d</fix>
</trkpt>
<trkpt lat="-27.274439" lon="151.290064">
  <ele>0.09</ele>
  <time>2026-09-01T19:50:11Z</time>
  <course>3.66</course>
  <speed>0.0</speed>
  <fix>3d</fix>
</trkpt>
<trkpt lat="-27.274439" lon="151.290064">
  <ele>343.1</ele>
  <time>2026-09-01T19:50:11Z</time>
  <course>270.44</course>
  <speed>0.0</speed>
  <fix>3d</fix>
</trkpt>
<trkpt lat="-27.274439" lon="151.290064">
  <ele>0.08</ele>
  <time>2026-09-01T19:50:11Z</time>
  <course>4.34</course>
  <speed>0.0</speed>
  <fix>3d</fix>
</trkpt>
<trkpt lat="-27.274439" lon="151.290064">
  <ele>343.1</ele>
  <time>2026-09-01T19:50:11Z</time>
  <course>270.44</course>
  <speed>0.0</speed>
  <fix>3d</fix>
</trkpt>
<trkpt lat="-27.274439" lon="151.290064">
  <ele>0.09</ele>
  <time>2026-09-01T19:50:11Z</time>
  <course>4.95</course>
  <speed>0.0</speed>
  <fix>3d</fix>
</trkpt>
<trkpt lat="-27.274439" lon="151.290064">
  <ele>343.1</ele>
  <time>2026-09-01T19:50:11Z</time>
  <course>270.05</course>
  <speed>0.0</speed>
  <fix>3d</fix>
</trkpt>
<trkpt lat="-27.274439" lon="151.290064">
  <ele>-0.05</ele>
  <time>2026-09-01T19:50:11Z</time>
  <course>5.5</course>
  <speed>0.0</speed>
  <fix>3d</fix>
</trkpt>
<trkpt lat="-27.274439" lon="151.290064">
  <ele>343.1</ele>
  <time>2026-09-01T19:50:11Z</time>
  <course>270.05</course>
  <speed>0.0</speed>
  <fix>3d</fix>
</trkpt>
<trkpt lat="-27.274439" lon="151.290064">
  <ele>343.06</ele>
  <time>2026-09-01T19:50:11Z</time>
  <course>5.98</course>
  <speed>0.0</speed>
  <fix>3d</fix>
</trkpt>
<trkpt lat="-27.274439" lon="151.290064">
  <ele>343.1</ele>
  <time>2026-09-01T19:50:11Z</time>
  <course>270.0</course>
  <speed>0.0</speed>
  <fix>3d</fix>
</trkpt>
<trkpt lat="-27.274439" lon="151.290064">
  <ele>343.18</ele>
  <time>2026-09-01T19:50:11Z</time>
  <course>6.44</course>
  <speed>0.0</speed>
  <fix>3d</fix>
</trkpt>
<trkpt lat="-27.274439" lon="151.290064">
  <ele>343.1</ele>
  <time>2026-09-01T19:50:11Z</time>
  <course>270.0</course>
  <speed>0.0</speed>
  <fix>3d</fix>
</trkpt>
<trkpt lat="-27.274439" lon="151.290064">
  <ele>342.91</ele>
  <time>2026-09-01T19:50:11Z</time>
  <course>6.85</course>
  <speed>0.0</speed>
  <fix>3d</fix>
</trkpt>
<trkpt lat="-27.274439" lon="151.290064">
  <ele>343.1</ele>
  <time>2026-09-01T19:50:11Z</time>
  <course>270.0</course>
  <speed>0.0</speed>
  <fix>3d</fix>
</trkpt>
<trkpt lat="-27.274439" lon="151.290064">
  <ele>343.06</ele>
  <time>2026-09-01T19:50:11Z</time>
  <course>7.22</course>
  <speed>0.0</speed>
  <fix>3d</fix>
</trkpt>
<trkpt lat="-27.274439" lon="151.290064">
  <ele>343.1</ele>
  <time>2026-09-01T19:50:11Z</time>
  <course>270.0</course>
  <speed>0.0</speed>
  <fix>3d</fix>
</trkpt>
<trkpt lat="-27.274439" lon="151.290064">
  <ele>343.13</ele>
  <time>2026-09-01T19:50:11Z</time>
  <course>7.56</course>
  <speed>0.0</speed>
  <fix>3d</fix>
</trkpt>
<trkpt lat="-27.274439" lon="151.290064">
  <ele>343.1</ele>
  <time>2026-09-01T19:50:11Z</time>
  <course>270.0</course>
  <speed>0.0</speed>
  <fix>3d</fix>
</trkpt>
<trkpt lat="-27.274439" lon="151.290064">
  <ele>343.04</ele>
  <time>2026-09-01T19:50:11Z</time>
  <course>7.87</course>
  <speed>0.0</speed>
  <fix>3d</fix>
</trkpt>
<trkpt lat="-27.274439" lon="151.290064">
  <ele>343.1</ele>
  <time>2026-09-01T19:50:11Z</time>
  <course>270.0</course>
  <speed>0.0</speed>
  <fix>3d</fix>
</trkpt>
<trkpt lat="-27.274439" lon="151.290064">
  <ele>342.88</ele>
  <time>2026-09-01T19:50:11Z</time>
  <course>8.14</course>
  <speed>0.0</speed>
  <fix>3d</fix>
</trkpt>
<trkpt lat="-27.274439" lon="151.290064">
  <ele>343.1</ele>
  <time>2026-09-01T19:50:11Z</time>
  <course>270.0</course>
  <speed>0.0</speed>
  <fix>3d</fix>
</trkpt>
<trkpt lat="-27.274439" lon="151.290064">
  <ele>343.02</ele>
  <time>2026-09-01T19:50:11Z</time>
  <course>8.39</course>
  <speed>0.0</speed>
  <fix>3d</fix>
</trkpt>
<trkpt lat="-27.274439" lon="151.290064">
  <ele>343.1</ele>
  <time>2026-09-01T19:50:11Z</time>
  <course>270.0</course>
  <speed>0.0</speed>
  <fix>3d</fix>
</trkpt>
<trkpt lat="-27.274439" lon="151.290064">
  <ele>343.23</ele>
  <time>2026-09-01T19:50:11Z</time>
  <course>8.63</course>
  <speed>0.0</speed>
  <fix>3d</fix>
</trkpt>
<trkpt lat="-27.274439" lon="151.290064">
  <ele>343.1</ele>
  <time>2026-09-01T19:50:11Z</time>
  <course>270.0</course>
  <speed>0.0</speed>
  <fix>3d</fix>
</trkpt>
<trkpt lat="-27.274439" lon="151.290064">
  <ele>343.17</ele>
  <time>2026-09-01T19:50:11Z</time>
  <course>8.83</course>
  <speed>0.0</speed>
  <fix>3d</fix>
</trkpt>
<trkpt lat="-27.274439" lon="151.290064">
  <ele>343.1</ele>
  <time>2026-09-01T19:50:11Z</time>
  <course>270.0</course>
  <speed>0.0</speed>
  <fix>3d</fix>
</trkpt>
<trkpt lat="-27.274439" lon="151.290064">
  <ele>343.04</ele>
  <time>2026-09-01T19:50:11Z</time>
  <course>9.01</course>
  <speed>0.0</speed>
  <fix>3d</fix>
</trkpt>
<trkpt lat="-27.274439" lon="151.290064">
  <ele>343.1</ele>
  <time>2026-09-01T19:50:11Z</time>
  <course>270.0</course>
  <speed>0.0</speed>
  <fix>3d</fix>
</trkpt>
<trkpt lat="-27.274439" lon="151.290064">
  <ele>342.89</ele>
  <time>2026-09-01T19:50:11Z</time>
  <course>9.18</course>
  <speed>0.0</speed>
  <fix>3d</fix>
</trkpt>
<trkpt lat="-27.274439" lon="151.290064">
  <ele>343.1</ele>
  <time>2026-09-01T19:50:11Z</time>
  <course>270.0</course>
  <speed>0.0</speed>
  <fix>3d</fix>
</trkpt>
<trkpt lat="-27.274439" lon="151.290064">
  <ele>343.08</ele>
  <time>2026-09-01T19:50:11Z</time>
  <course>9.33</course>
  <speed>0.0</speed>
  <fix>3d</fix>
</trkpt>
<trkpt lat="-27.274439" lon="151.290064">
  <ele>343.1</ele>
  <time>2026-09-01T19:50:11Z</time>
  <course>270.0</course>
  <speed>0.0</speed>
  <fix>3d</fix>
</trkpt>
<trkpt lat="-27.274439" lon="151.290064">
  <ele>343.19</ele>
  <time>2026-09-01T19:50:11Z</time>
  <course>9.47</course>
  <speed>0.0</speed>
  <fix>3d</fix>
</trkpt>
<trkpt lat="-27.274439" lon="151.290064">
  <ele>343.1</ele>
  <time>2026-09-01T19:50:11Z</time>
  <course>270.0</course>
  <speed>0.0</speed>
  <fix>3d</fix>
</trkpt>
<trkpt lat="-27.274439" lon="151.290064">
  <ele>342.88</ele>
  <time>2026-09-01T19:50:11Z</time>
  <course>9.59</course>
  <speed>0.0</speed>
  <fix>3d</fix>
</trkpt>
<trkpt lat="-27.274439" lon="151.290064">
  <ele>343.1</ele>
  <time>2026-09-01T19:50:11Z</time>
  <course>270.0</course>
  <speed>0.0</speed>
  <fix>3d</fix>
</trkpt>
<trkpt lat="-27.274439" lon="151.290064">
  <ele>343.17</ele>
  <time>2026-09-01T19:50:11Z</time>
  <course>9.7</course>
  <speed>0.0</speed>
  <fix>3d</fix>
</trkpt>
<trkpt lat="-27.274439" lon="151.290064">
  <ele>343.1</ele>
  <time>2026-09-01T19:50:11Z</time>
  <course>270.0</course>
  <speed>0.0</speed>
  <fix>3d</fix>
</trkpt>
<trkpt lat="-27.274439" lon="151.290064">
  <ele>342.89</ele>
  <time>2026-09-01T19:50:11Z</time>
  <course>9.8</course>
  <speed>0.0</speed>
  <fix>3d</fix>
</trkpt>
<trkpt lat="-27.274439" lon="151.290064">
  <ele>343.1</ele>
  <time>2026-09-01T19:50:11Z</time>
  <course>270.0</course>
  <speed>0.0</speed>
  <fix>3d</fix>
</trkpt>
<trkpt lat="-27.274439" lon="151.290064">
  <ele>342.99</ele>
  <time>2026-09-01T19:50:11Z</time>
  <course>9.9</course>
  <speed>0.0</speed>
  <fix>3d</fix>
</trkpt>
<trkpt lat="-27.274439" lon="151.290064">
  <ele>343.1</ele>
  <time>2026-09-01T19:50:11Z</time>
  <course>270.0</course>
  <speed>0.0</speed>
  <fix>3d</fix>
</trkpt>
<trkpt lat="-27.274439" lon="151.290064">
  <ele>342.87</ele>
  <time>2026-09-01T19:50:11Z</time>
  <course>9.98</course>
  <speed>0.0</speed>
  <fix>3d</fix>
</trkpt>
<trkpt lat="-27.274439" lon="151.290064">
  <ele>343.1</ele>
  <time>2026-09-01T19:50:11Z</time>
  <course>270.0</course>
  <speed>0.0</speed>
  <fix>3d</fix>
</trkpt>
<trkpt lat="-27.274439" lon="151.290064">
  <ele>343.09</ele>
  <time>2026-09-01T19:50:11Z</time>
  <course>10.06</course>
  <speed>0.0</speed>
  <fix>3d</fix>
</trkpt>
<trkpt lat="-27.274439" lon="151.290064">
  <ele>343.1</ele>
  <time>2026-09-01T19:50:11Z</time>
  <course>270.0</course>
  <speed>0.0</speed>
  <fix>3d</fix>
</trkpt>
<trkpt lat="-27.274439" lon="151.290064">
  <ele>343.18</ele>
  <time>2026-09-01T19:50:11Z</time>
  <course>10.13</course>
  <speed>0.0</speed>
  <fix>3d</fix>
</trkpt>
<trkpt lat="-27.274439" lon="151.290064">
  <ele>343.1</ele>
  <time>2026-09-01T19:50:11Z</time>
  <course>270.0</course>
  <speed>0.0</speed>
  <fix>3d</fix>
</trkpt>
<trkpt lat="-27.274439" lon="151.290064">
  <ele>343.05</ele>
  <time>2026-09-01T19:50:11Z</time>
  <course>10.2</course>
  <speed>0.0</speed>
  <fix>3d</fix>
</trkpt>
<trkpt lat="-27.274439" lon="151.290064">
  <ele>343.1</ele>
  <time>2026-09-01T19:50:11Z</time>
  <course>270.0</course>
  <speed>0.0</speed>
  <fix>3d</fix>
</trkpt>
<trkpt lat="-27.274439" lon="151.290064">
  <ele>342.96</ele>
  <time>2026-09-01T19:50:11Z</time>
  <course>10.25</course>
  <speed>0.0</speed>
  <fix>3d</fix>
</trkpt>
<trkpt lat="-27.274439" lon="151.290064">
  <ele>343.1</ele>
  <time>2026-09-01T19:50:11Z</time>
  <course>270.0</course>
  <speed>0.0</speed>
  <fix>3d</fix>
</trkpt>
<trkpt lat="-27.274439" lon="151.290064">
  <ele>343.1</ele>
  <time>2026-09-01T19:50:11Z</time>
  <course>10.31</course>
  <speed>0.0</speed>
  <fix>3d</fix>
</trkpt>
<trkpt lat="-27.274439" lon="151.290064">
  <ele>343.1</ele>
  <time>2026-09-01T19:50:11Z</time>
  <course>270.0</course>
  <speed>0.0</speed>
  <fix>3d</fix>
</trkpt>
<trkpt lat="-27.274439" lon="151.290064">
  <ele>343.22</ele>
  <time>2026-09-01T19:50:11Z</time>
  <course>10.35</course>
  <speed>0.0</speed>
  <fix>3d</fix>
</trkpt>
<trkpt lat="-27.274439" lon="151.290064">
  <ele>343.1</ele>
  <time>2026-09-01T19:50:11Z</time>
  <course>270.0</course>
  <speed>0.0</speed>
  <fix>3d</fix>
</trkpt>
<trkpt lat="-27.274439" lon="151.290064">
  <ele>343.17</ele>
  <time>2026-09-01T19:50:11Z</time>
  <course>10.4</course>
  <speed>0.0</speed>
  <fix>3d</fix>
</trkpt>
<trkpt lat="-27.274439" lon="151.290064">
  <ele>343.1</ele>
  <time>2026-09-01T19:50:11Z</time>
  <course>270.0</course>
  <speed>0.0</speed>
  <fix>3d</fix>
</trkpt>
<trkpt lat="-27.274439" lon="151.290064">
  <ele>343.08</ele>
  <time>2026-09-01T19:50:11Z</time>
  <course>10.44</course>
  <speed>0.0</speed>
  <fix>3d</fix>
</trkpt>
<trkpt lat="-27.274439" lon="151.290064">
  <ele>343.1</ele>
  <time>2026-09-01T19:50:11Z</time>
  <course>270.0</course>
  <speed>0.0</speed>
  <fix>3d</fix>
</trkpt>
<trkpt lat="-27.274439" lon="151.290064">
  <ele>343.04</ele>
  <time>2026-09-01T19:50:11Z</time>
  <course>10.47</course>
  <speed>0.0</speed>
  <fix>3d</fix>
</trkpt>
<trkpt lat="-27.274439" lon="151.290064">
  <ele>343.1</ele>
  <time>2026-09-01T19:50:11Z</time>
  <course>270.0</course>
  <speed>0.0</speed>
  <fix>3d</fix>
</trkpt>
<trkpt lat="-27.274439" lon="151.290064">
  <ele>343.18</ele>
  <time>2026-09-01T19:50:11Z</time>
  <course>10.5</course>
  <speed>0.0</speed>
  <fix>3d</fix>
</trkpt>
<trkpt lat="-27.274439" lon="151.290064">
  <ele>343.1</ele>
  <time>2026-09-01T19:50:11Z</time>
  <course>270.0</course>
  <speed>0.0</speed>
  <fix>3d</fix>
</trkpt>
<trkpt lat="-27.274439" lon="151.290064">
  <ele>343.12</ele>
  <time>2026-09-01T19:50:11Z</time>
  <course>10.53</course>
  <speed>0.0</speed>
  <fix>3d</fix>
</trkpt>
<trkpt lat="-27.274439" lon="151.290064">
  <ele>343.1</ele>
  <time>2026-09-01T19:50:11Z</time>
  <course>270.0</course>
  <speed>0.0</speed>
  <fix>3d</fix>
</trkpt>
<trkpt lat="-27.274439" lon="151.290064">
  <ele>343.04</ele>
  <time>2026-09-01T19:50:11Z</time>
  <course>10.56</course>
  <speed>0.0</speed>
  <fix>3d</fix>
</trkpt>
<trkpt lat="-27.274439" lon="151.290064">
  <ele>343.1</ele>
  <time>2026-09-01T19:50:11Z</time>
  <course>270.0</course>
  <speed>0.0</speed>
  <fix>3d</fix>
</trkpt>
<trkpt lat="-27.274439" lon="151.290064">
  <ele>343.07</ele>
  <time>2026-09-01T19:50:11Z</time>
  <course>10.58</course>
  <speed>0.0</speed>
  <fix>3d</fix>
</trkpt>
<trkpt lat="-27.274439" lon="151.290064">
  <ele>343.1</ele>
  <time>2026-09-01T19:50:11Z</time>
  <course>270.0</course>
  <speed>0.0</speed>
  <fix>3d</fix>
</trkpt>
<trkpt lat="-27.274439" lon="151.290064">
  <ele>343.04</ele>
  <time>2026-09-01T19:50:11Z</time>
  <course>10.6</course>
  <speed>0.0</speed>
  <fix>3d</fix>
</trkpt>
<trkpt lat="-27.274439" lon="151.290064">
  <ele>343.1</ele>
  <time>2026-09-01T19:50:11Z</time>
  <course>270.0</course>
  <speed>0.0</speed>
  <fix>3d</fix>
</trkpt>
<trkpt lat="-27.274439" lon="151.290064">
  <ele>343.01</ele>
  <time>2026-09-01T19:50:11Z</time>
  <course>10.62</course>
  <speed>0.0</speed>
  <fix>3d</fix>
</trkpt>
<trkpt lat="-27.274439" lon="151.290064">
  <ele>343.1</ele>
  <time>2026-09-01T19:50:11Z</time>
  <course>270.0</course>
  <speed>0.0</speed>
  <fix>3d</fix>
</trkpt>
<trkpt lat="-27.274439" lon="151.290064">
  <ele>343.2</ele>
  <time>2026-09-01T19:50:11Z</time>
  <course>10.64</course>
  <speed>0.0</speed>
  <fix>3d</fix>
</trkpt>
<trkpt lat="-27.274439" lon="151.290064">
  <ele>343.1</ele>
  <time>2026-09-01T19:50:11Z</time>
  <course>270.0</course>
  <speed>0.0</speed>
  <fix>3d</fix>
</trkpt>
<trkpt lat="-27.274439" lon="151.290064">
  <ele>343.24</ele>
  <time>2026-09-01T19:50:11Z</time>
  <course>10.65</course>
  <speed>0.0</speed>
  <fix>3d</fix>
</trkpt>
<trkpt lat="-27.274439" lon="151.290064">
  <ele>343.1</ele>
  <time>2026-09-01T19:50:11Z</time>
  <course>270.0</course>
  <speed>0.0</speed>
  <fix>3d</fix>
</trkpt>
<trkpt lat="-27.274439" lon="151.290064">
  <ele>342.88</ele>
  <time>2026-09-01T19:50:11Z</time>
  <course>10.67</course>
  <speed>0.0</speed>
  <fix>3d</fix>
</trkpt>
<trkpt lat="-27.274439" lon="151.290064">
  <ele>343.1</ele>
  <time>2026-09-01T19:50:11Z</time>
  <course>270.0</course>
  <speed>0.0</speed>
  <fix>3d</fix>
</trkpt>
<trkpt lat="-27.274439" lon="151.290064">
  <ele>343.21</ele>
  <time>2026-09-01T19:50:11Z</time>
  <course>10.68</course>
  <speed>0.0</speed>
  <fix>3d</fix>
</trkpt>
<trkpt lat="-27.274439" lon="151.290064">
  <ele>343.1</ele>
  <time>2026-09-01T19:50:11Z</time>
  <course>270.0</course>
  <speed>0.0</speed>
  <fix>3d</fix>
</trkpt>
<trkpt lat="-27.274439" lon="151.290064">
  <ele>343.02</ele>
  <time>2026-09-01T19:50:11Z</time>
  <course>10.69</course>
  <speed>0.0</speed>
  <fix>3d</fix>
</trkpt>
<trkpt lat="-27.274439" lon="151.290064">
  <ele>343.1</ele>
  <time>2026-09-01T19:50:11Z</time>
  <course>270.0</course>
  <speed>0.0</speed>
  <fix>3d</fix>
</trkpt>
<trkpt lat="-27.274439" lon="151.290064">
  <ele>342.93</ele>
  <time>2026-09-01T19:50:11Z</time>
  <course>10.7</course>
  <speed>0.0</speed>
  <fix>3d</fix>
</trkpt>
<trkpt lat="-27.274439" lon="151.290064">
  <ele>343.1</ele>
  <time>2026-09-01T19:50:11Z</time>
  <course>270.0</course>
  <speed>0.0</speed>
  <fix>3d</fix>
</trkpt>
<trkpt lat="-27.274439" lon="151.290064">
  <ele>343.07</ele>
  <time>2026-09-01T19:50:11Z</time>
  <course>10.71</course>
  <speed>0.0</speed>
  <fix>3d</fix>
</trkpt>
<trkpt lat="-27.274439" lon="151.290064">
  <ele>343.1</ele>
  <time>2026-09-01T19:50:11Z</time>
  <course>270.0</course>
  <speed>0.0</speed>
  <fix>3d</fix>
</trkpt>
<trkpt lat="-27.274439" lon="151.290064">
  <ele>342.94</ele>
  <time>2026-09-01T19:50:11Z</time>
  <course>10.72</course>
  <speed>0.0</speed>
  <fix>3d</fix>
</trkpt>
<trkpt lat="-27.274439" lon="151.290064">
  <ele>343.1</ele>
  <time>2026-09-01T19:50:11Z</time>
  <course>270.0</course>
  <speed>0.0</speed>
  <fix>3d</fix>
</trkpt>
<trkpt lat="-27.274439" lon="151.290064">
  <ele>343.11</ele>
  <time>2026-09-01T19:50:11Z</time>
  <course>10.73</course>
  <speed>0.0</speed>
  <fix>3d</fix>
</trkpt>
<trkpt lat="-27.274439" lon="151.290064">
  <ele>343.1</ele>
  <time>2026-09-01T19:50:11Z</time>
  <course>270.0</course>
  <speed>0.0</speed>
  <fix>3d</fix>
</trkpt>
<trkpt lat="-27.274439" lon="151.290064">
  <ele>343.24</ele>
  <time>2026-09-01T19:50:11Z</time>
  <course>10.73</course>
  <speed>0.0</speed>
  <fix>3d</fix>
</trkpt>
<trkpt lat="-27.274439" lon="151.290064">
  <ele>343.1</ele>
  <time>2026-09-01T19:50:11Z</time>
  <course>270.0</course>
  <speed>0.0</speed>
  <fix>3d</fix>
</trkpt>
<trkpt lat="-27.274439" lon="151.290064">
  <ele>343.18</ele>
  <time>2026-09-01T19:50:11Z</time>
  <course>10.74</course>
  <speed>0.0</speed>
  <fix>3d</fix>
</trkpt>
<trkpt lat="-27.274439" lon="151.290064">
  <ele>343.1</ele>
  <time>2026-09-01T19:50:11Z</time>
  <course>270.0</course>
  <speed>0.0</speed>
  <fix>3d</fix>
</trkpt>
<trkpt lat="-27.274439" lon="151.290064">
  <ele>342.89</ele>
  <time>2026-09-01T19:50:11Z</time>
  <course>10.75</course>
  <speed>0.0</speed>
  <fix>3d</fix>
</trkpt>
<trkpt lat="-27.274439" lon="151.290064">
  <ele>343.1</ele>
  <time>2026-09-01T19:50:11Z</time>
  <course>270.0</course>
  <speed>0.0</speed>
  <fix>3d</fix>
</trkpt>
<trkpt lat="-27.274439" lon="151.290064">
  <ele>343.23</ele>
  <time>2026-09-01T19:50:11Z</time>
  <course>10.75</course>
  <speed>0.0</speed>
  <fix>3d</fix>
</trkpt>
<trkpt lat="-27.274439" lon="151.290064">
  <ele>343.1</ele>
  <time>2026-09-01T19:50:11Z</time>
  <course>270.0</course>
  <speed>0.0</speed>
  <fix>3d</fix>
</trkpt>
<trkpt lat="-27.274439" lon="151.290064">
  <ele>343.23</ele>
  <time>2026-09-01T19:50:11Z</time>
  <course>10.76</course>
  <speed>0.0</speed>
  <fix>3d</fix>
</trkpt>
<trkpt lat="-27.274439" lon="151.290064">
  <ele>343.1</ele>
  <time>2026-09-01T19:50:11Z</time>
  <course>270.0</course>
  <speed>0.0</speed>
  <fix>3d</fix>
</trkpt>
<trkpt lat="-27.274439" lon="151.290064">
  <ele>342.99</ele>
  <time>2026-09-01T19:50:11Z</time>
  <course>10.76</course>
  <speed>0.0</speed>
  <fix>3d</fix>
</trkpt>
<trkpt lat="-27.274439" lon="151.290064">
  <ele>343.1</ele>
  <time>2026-09-01T19:50:11Z</time>
  <course>270.0</course>
  <speed>0.0</speed>
  <fix>3d</fix>
</trkpt>
<trkpt lat="-27.274439" lon="151.290064">
  <ele>343.13</ele>
  <time>2026-09-01T19:50:11Z</time>
  <course>10.76</course>
  <speed>0.0</speed>
  <fix>3d</fix>
</trkpt>
<trkpt lat="-27.274439" lon="151.290064">
  <ele>343.1</ele>
  <time>2026-09-01T19:50:11Z</time>
  <course>270.0</course>
  <speed>0.0</speed>
  <fix>3d</fix>
</trkpt>
<trkpt lat="-27.274439" lon="151.290064">
  <ele>343.07</ele>
  <time>2026-09-01T19:50:11Z</time>
  <course>10.77</course>
  <speed>0.0</speed>
  <fix>3d</fix>
</trkpt>
<trkpt lat="-27.274439" lon="151.290064">
  <ele>343.1</ele>
  <time>2026-09-01T19:50:11Z</time>
  <course>270.0</course>
  <speed>0.0</speed>
  <fix>3d</fix>
</trkpt>
<trkpt lat="-27.274439" lon="151.290064">
  <ele>343.19</ele>
  <time>2026-09-01T19:50:11Z</time>
  <course>10.77</course>
  <speed>0.0</speed>
  <fix>3d</fix>
</trkpt>
<trkpt lat="-27.274439" lon="151.290064">
  <ele>343.1</ele>
  <time>2026-09-01T19:50:11Z</time>
  <course>270.0</course>
  <speed>0.0</speed>
  <fix>3d</fix>
</trkpt>
<trkpt lat="-27.274439" lon="151.290064">
  <ele>342.93</ele>
  <time>2026-09-01T19:50:11Z</time>
  <course>10.77</course>
  <speed>0.0</speed>
  <fix>3d</fix>
</trkpt>
<trkpt lat="-27.274439" lon="151.290064">
  <ele>343.1</ele>
  <time>2026-09-01T19:50:11Z</time>
  <course>270.0</course>
  <speed>0.0</speed>
  <fix>3d</fix>
</trkpt>
<trkpt lat="-27.274439" lon="151.290064">
  <ele>343.19</ele>
  <time>2026-09-01T19:50:11Z</time>
  <course>10.78</course>
  <speed>0.0</speed>
  <fix>3d</fix>
</trkpt>
<trkpt lat="-27.274439" lon="151.290064">
  <ele>343.1</ele>
  <time>2026-09-01T19:50:11Z</time>
  <course>270.0</course>
  <speed>0.0</speed>
  <fix>3d</fix>
</trkpt>
<trkpt lat="-27.274439" lon="151.290064">
  <ele>343.1</ele>
  <time>2026-09-01T19:50:11Z</time>
  <course>10.78</course>
  <speed>0.0</speed>
  <fix>3d</fix>
</trkpt>
<trkpt lat="-27.274439" lon="151.290064">
  <ele>343.1</ele>
  <time>2026-09-01T19:50:11Z</time>
  <course>270.0</course>
  <speed>0.0</speed>
  <fix>3d</fix>
</trkpt>
<trkpt lat="-27.274439" lon="151.290064">
  <ele>343.01</ele>
  <time>2026-09-01T19:50:11Z</time>
  <course>10.78</course>
  <speed>0.0</speed>
  <fix>3d</fix>
</trkpt>
<trkpt lat="-27.274439" lon="151.290064">
  <ele>343.1</ele>
  <time>2026-09-01T19:50:11Z</time>
  <course>270.0</course>
  <speed>0.0</speed>
  <fix>3d</fix>
</trkpt>
<trkpt lat="-27.274439" lon="151.290064">
  <ele>343.11</ele>
  <time>2026-09-01T19:50:11Z</time>
  <course>10.78</course>
  <speed>0.0</speed>
  <fix>3d</fix>
</trkpt>
<trkpt lat="-27.274439" lon="151.290064">
  <ele>343.1</ele>
  <time>2026-09-01T19:50:11Z</time>
  <course>270.0</course>
  <speed>0.0</speed>
  <fix>3d</fix>
</trkpt>
<trkpt lat="-27.274439" lon="151.290064">
  <ele>342.96</ele>
  <time>2026-09-01T19:50:11Z</time>
  <course>10.78</course>
  <speed>0.0</speed>
  <fix>3d</fix>
</trkpt>
<trkpt lat="-27.274439" lon="151.290064">
  <ele>343.1</ele>
  <time>2026-09-01T19:50:11Z</time>
  <course>270.0</course>
  <speed>0.0</speed>
  <fix>3d</fix>
</trkpt>
<trkpt lat="-27.274439" lon="151.290064">
  <ele>343.19</ele>
  <time>2026-09-01T19:50:11Z</time>
  <course>10.79</course>
  <speed>0.0</speed>
  <fix>3d</fix>
</trkpt>
<trkpt lat="-27.274439" lon="151.290064">
  <ele>343.1</ele>
  <time>2026-09-01T19:50:11Z</time>
  <course>270.0</course>
  <speed>0.0</speed>
  <fix>3d</fix>
</trkpt>
<trkpt lat="-27.274439" lon="151.290064">
  <ele>343.0</ele>
  <time>2026-09-01T19:50:11Z</time>
  <course>10.79</course>
  <speed>0.0</speed>
  <fix>3d</fix>
</trkpt>
<trkpt lat="-27.274439" lon="151.290064">
  <ele>343.1</ele>
  <time>2026-09-01T19:50:11Z</time>
  <course>270.0</course>
  <speed>0.0</speed>
  <fix>3d</fix>
</trkpt>
<trkpt lat="-27.274439" lon="151.290064">
  <ele>343.2</ele>
  <time>2026-09-01T19:50:11Z</time>
  <course>10.79</course>
  <speed>0.0</speed>
  <fix>3d</fix>
</trkpt>
<trkpt lat="-27.274439" lon="151.290064">
  <ele>343.1</ele>
  <time>2026-09-01T19:50:11Z</time>
  <course>270.0</course>
  <speed>0.0</speed>
  <fix>3d</fix>
</trkpt>
<trkpt lat="-27.274439" lon="151.290064">
  <ele>343.2</ele>
  <time>2026-09-01T19:50:11Z</time>
  <course>10.79</course>
  <speed>0.0</speed>
  <fix>3d</fix>
</trkpt>
<trkpt lat="-27.274439" lon="151.290064">
  <ele>343.1</ele>
  <time>2026-09-01T19:50:11Z</time>
  <course>270.0</course>
  <speed>0.0</speed>
  <fix>3d</fix>
</trkpt>
<trkpt lat="-27.274439" lon="151.290064">
  <ele>343.13</ele>
  <time>2026-09-01T19:50:11Z</time>
  <course>10.79</course>
  <speed>0.0</speed>
  <fix>3d</fix>
</trkpt>
<trkpt lat="-27.274439" lon="151.290064">
  <ele>343.1</ele>
  <time>2026-09-01T19:50:11Z</time>
  <course>270.0</course>
  <speed>0.0</speed>
  <fix>3d</fix>
</trkpt>
<trkpt lat="-27.274439" lon="151.290064">
  <ele>343.1</ele>
  <time>2026-09-01T19:50:11Z</time>
  <course>10.79</course>
  <speed>0.0</speed>
  <fix>3d</fix>
</trkpt>
<trkpt lat="-27.274439" lon="151.290064">
  <ele>343.1</ele>
  <time>2026-09-01T19:50:11Z</time>
  <course>270.0</course>
  <speed>0.0</speed>
  <fix>3d</fix>
</trkpt>
<trkpt lat="-27.274439" lon="151.290064">
  <ele>343.12</ele>
  <time>2026-09-01T19:50:11Z</time>
  <course>10.79</course>
  <speed>0.0</speed>
  <fix>3d</fix>
</trkpt>
<trkpt lat="-27.274439" lon="151.290064">
  <ele>343.1</ele>
  <time>2026-09-01T19:50:11Z</time>
  <course>270.0</course>
  <speed>0.0</speed>
  <fix>3d</fix>
</trkpt>
<trkpt lat="-27.274439" lon="151.290064">
  <ele>342.94</ele>
  <time>2026-09-01T19:50:11Z</time>
  <course>10.79</course>
  <speed>0.0</speed>
  <fix>3d</fix>
</trkpt>
<trkpt lat="-27.274439" lon="151.290064">
  <ele>343.1</ele>
  <time>2026-09-01T19:50:11Z</time>
  <course>270.0</course>
  <speed>0.0</speed>
  <fix>3d</fix>
</trkpt>
<trkpt lat="-27.274439" lon="151.290064">
  <ele>343.25</ele>
  <time>2026-09-01T19:50:11Z</time>
  <course>10.79</course>
  <speed>0.0</speed>
  <fix>3d</fix>
</trkpt>
<trkpt lat="-27.274439" lon="151.290064">
  <ele>343.1</ele>
  <time>2026-09-01T19:50:11Z</time>
  <course>270.0</course>
  <speed>0.0</speed>
  <fix>3d</fix>
</trkpt>
<trkpt lat="-27.274439" lon="151.290064">
  <ele>342.93</ele>
  <time>2026-09-01T19:50:11Z</time>
  <course>10.79</course>
  <speed>0.0</speed>
  <fix>3d</fix>
</trkpt>
<trkpt lat="-27.274439" lon="151.290064">
  <ele>343.1</ele>
  <time>2026-09-01T19:50:11Z</time>
  <course>270.0</course>
  <speed>0.0</speed>
  <fix>3d</fix>
</trkpt>
<trkpt lat="-27.274439" lon="151.290064">
  <ele>343.08</ele>
  <time>2026-09-01T19:50:11Z</time>
  <course>10.79</course>
  <speed>0.0</speed>
  <fix>3d</fix>
</trkpt>
<trkpt lat="-27.274439" lon="151.290064">
  <ele>343.1</ele>
  <time>2026-09-01T19:50:11Z</time>
  <course>270.0</course>
  <speed>0.0</speed>
  <fix>3d</fix>
</trkpt>
<trkpt lat="-27.274439" lon="151.290064">
  <ele>343.23</ele>
  <time>2026-09-01T19:50:11Z</time>
  <course>10.8</course>
  <speed>0.0</speed>
  <fix>3d</fix>
</trkpt>
<trkpt lat="-27.274439" lon="151.290064">
  <ele>343.1</ele>
  <time>2026-09-01T19:50:11Z</time>
  <course>270.0</course>
  <speed>0.0</speed>
  <fix>3d</fix>
</trkpt>
<trkpt lat="-27.274439" lon="151.290064">
  <ele>343.01</ele>
  <time>2026-09-01T19:50:11Z</time>
  <course>10.8</course>
  <speed>0.0</speed>
  <fix>3d</fix>
</trkpt>
<trkpt lat="-27.274439" lon="151.290064">
  <ele>343.1</ele>
  <time>2026-09-01T19:50:11Z</time>
  <course>270.0</course>
  <speed>0.0</speed>
  <fix>3d</fix>
</trkpt>
<trkpt lat="-27.274439" lon="151.290064">
  <ele>343.1</ele>
  <time>2026-09-01T19:50:11Z</time>
  <course>10.8</course>
  <speed>0.0</speed>
  <fix>3d</fix>
</trkpt>
<trkpt lat="-27.274439" lon="151.290064">
  <ele>343.1</ele>
  <time>2026-09-01T19:50:11Z</time>
  <course>270.0</course>
  <speed>0.0</speed>
  <fix>3d</fix>
</trkpt>
<trkpt lat="-27.274439" lon="151.290064">
  <ele>342.99</ele>
  <time>2026-09-01T19:50:11Z</time>
  <course>10.8</course>
  <speed>0.0</speed>
  <fix>3d</fix>
</trkpt>
<trkpt lat="-27.274439" lon="151.290064">
  <ele>343.1</ele>
  <time>2026-09-01T19:50:11Z</time>
  <course>270.0</course>
  <speed>0.0</speed>
  <fix>3d</fix>
</trkpt>
<trkpt lat="-27.274439" lon="151.290064">
  <ele>342.87</ele>
  <time>2026-09-01T19:50:11Z</time>
  <course>10.8</course>
  <speed>0.0</speed>
  <fix>3d</fix>
</trkpt>
<trkpt lat="-27.274439" lon="151.290064">
  <ele>343.1</ele>
  <time>2026-09-01T19:50:11Z</time>
  <course>270.0</course>
  <speed>0.0</speed>
  <fix>3d</fix>
</trkpt>
<trkpt lat="-27.274439" lon="151.290064">
  <ele>343.1</ele>
  <time>2026-09-01T19:50:11Z</time>
  <course>10.8</course>
  <speed>0.0</speed>
  <fix>3d</fix>
</trkpt>
<trkpt lat="-27.274439" lon="151.290064">
  <ele>343.1</ele>
  <time>2026-09-01T19:50:11Z</time>
  <course>270.0</course>
  <speed>0.0</speed>
  <fix>3d</fix>
</trkpt>
<trkpt lat="-27.274439" lon="151.290064">
  <ele>342.99</ele>
  <time>2026-09-01T19:50:11Z</time>
  <course>10.8</course>
  <speed>0.0</speed>
  <fix>3d</fix>
</trkpt>
<trkpt lat="-27.274439" lon="151.290064">
  <ele>343.1</ele>
  <time>2026-09-01T19:50:11Z</time>
  <course>270.0</course>
  <speed>0.0</speed>
  <fix>3d</fix>
</trkpt>
<trkpt lat="-27.274439" lon="151.290064">
  <ele>342.91</ele>
  <time>2026-09-01T19:50:11Z</time>
  <course>10.8</course>
  <speed>0.0</speed>
  <fix>3d</fix>
</trkpt>
<trkpt lat="-27.274439" lon="151.290064">
  <ele>343.1</ele>
  <time>2026-09-01T19:50:11Z</time>
  <course>270.0</course>
  <speed>0.0</speed>
  <fix>3d</fix>
</trkpt>
<trkpt lat="-27.274439" lon="151.290064">
  <ele>342.9</ele>
  <time>2026-09-01T19:50:11Z</time>
  <course>10.8</course>
  <speed>0.0</speed>
  <fix>3d</fix>
</trkpt>
<trkpt lat="-27.274439" lon="151.290064">
  <ele>343.1</ele>
  <time>2026-09-01T19:50:11Z</time>
  <course>270.0</course>
  <speed>0.0</speed>
  <fix>3d</fix>
</trkpt>
<trkpt lat="-27.274439" lon="151.290064">
  <ele>342.87</ele>
  <time>2026-09-01T19:50:11Z</time>
  <course>10.8</course>
  <speed>0.0</speed>
  <fix>3d</fix>
</trkpt>
<trkpt lat="-27.274439" lon="151.290064">
  <ele>343.1</ele>
  <time>2026-09-01T19:50:11Z</time>
  <course>270.0</course>
  <speed>0.0</speed>
  <fix>3d</fix>
</trkpt>
<trkpt lat="-27.274439" lon="151.290064">
  <ele>343.12</ele>
  <time>2026-09-01T19:50:11Z</time>
  <course>10.8</course>
  <speed>0.0</speed>
  <fix>3d</fix>
</trkpt>
<trkpt lat="-27.274439" lon="151.290064">
  <ele>343.1</ele>
  <time>2026-09-01T19:50:11Z</time>
  <course>270.0</course>
  <speed>0.0</speed>
  <fix>3d</fix>
</trkpt>
<trkpt lat="-27.274439" lon="151.290064">
  <ele>342.99</ele>
  <time>2026-09-01T19:50:11Z</time>
  <course>10.8</course>
  <speed>0.0</speed>
  <fix>3d</fix>
</trkpt>
<trkpt lat="-27.274439" lon="151.290064">
  <ele>343.1</ele>
  <time>2026-09-01T19:50:11Z</time>
  <course>270.0</course>
  <speed>0.0</speed>
  <fix>3d</fix>
</trkpt>
<trkpt lat="-27.274439" lon="151.290064">
  <ele>343.13</ele>
  <time>2026-09-01T19:50:11Z</time>
  <course>10.8</course>
  <speed>0.0</speed>
  <fix>3d</fix>
</trkpt>
<trkpt lat="-27.274439" lon="151.290064">
  <ele>343.1</ele>
  <time>2026-09-01T19:50:11Z</time>
  <course>270.0</course>
  <speed>0.0</speed>
  <fix>3d</fix>
</trkpt>
<trkpt lat="-27.274439" lon="151.290064">
  <ele>343.0</ele>
  <time>2026-09-01T19:50:11Z</time>
  <course>10.8</course>
  <speed>0.0</speed>
  <fix>3d</fix>
</trkpt>
<trkpt lat="-27.274439" lon="151.290064">
  <ele>343.1</ele>
  <time>2026-09-01T19:50:11Z</time>
  <course>270.0</course>
  <speed>0.0</speed>
  <fix>3d</fix>
</trkpt>
<trkpt lat="-27.274439" lon="151.290064">
  <ele>343.17</ele>
  <time>2026-09-01T19:50:11Z</time>
  <course>10.8</course>
  <speed>0.0</speed>
  <fix>3d</fix>
</trkpt>
<trkpt lat="-27.274439" lon="151.290064">
  <ele>343.1</ele>
  <time>2026-09-01T19:50:11Z</time>
  <course>270.0</course>
  <speed>0.0</speed>
  <fix>3d</fix>
</trkpt>
<trkpt lat="-27.274439" lon="151.290064">
  <ele>343.0</ele>
  <time>2026-09-01T19:50:11Z</time>
  <course>10.8</course>
  <speed>0.0</speed>
  <fix>3d</fix>
</trkpt>
<trkpt lat="-27.274439" lon="151.290064">
  <ele>343.1</ele>
  <time>2026-09-01T19:50:11Z</time>
  <course>270.0</course>
  <speed>0.0</speed>
  <fix>3d</fix>
</trkpt>
<trkpt lat="-27.274439" lon="151.290064">
  <ele>342.99</ele>
  <time>2026-09-01T19:50:11Z</time>
  <course>10.8</course>
  <speed>0.0</speed>
  <fix>3d</fix>
</trkpt>
<trkpt lat="-27.274439" lon="151.290064">
  <ele>343.1</ele>
  <time>2026-09-01T19:50:11Z</time>
  <course>270.0</course>
  <speed>0.0</speed>
  <fix>3d</fix>
</trkpt>
<trkpt lat="-27.274439" lon="151.290064">
  <ele>343.17</ele>
  <time>2026-09-01T19:50:11Z</time>
  <course>10.8</course>
  <speed>0.0</speed>
  <fix>3d</fix>
</trkpt>
<trkpt lat="-27.274439" lon="151.290064">
  <ele>343.1</ele>
  <time>2026-09-01T19:50:11Z</time>
  <course>270.0</course>
  <speed>0.0</speed>
  <fix>3d</fix>
</trkpt>
<trkpt lat="-27.274439" lon="151.290064">
  <ele>343.16</ele>
  <time>2026-09-01T19:50:11Z</time>
  <course>10.8</course>
  <speed>0.0</speed>
  <fix>3d</fix>
</trkpt>
<trkpt lat="-27.274439" lon="151.290064">
  <ele>343.1</ele>
  <time>2026-09-01T19:50:11Z</time>
  <course>270.0</course>
  <speed>0.0</speed>
  <fix>3d</fix>
</trkpt>
<trkpt lat="-27.274439" lon="151.290064">
  <ele>342.87</ele>
  <time>2026-09-01T19:50:11Z</time>
  <course>10.8</course>
  <speed>0.0</speed>
  <fix>3d</fix>
</trkpt>
<trkpt lat="-27.274439" lon="151.290064">
  <ele>343.1</ele>
  <time>2026-09-01T19:50:11Z</time>
  <course>270.0</course>
  <speed>0.0</speed>
  <fix>3d</fix>
</trkpt>
<trkpt lat="-27.274439" lon="151.290064">
  <ele>343.19</ele>
  <time>2026-09-01T19:50:11Z</time>
  <course>10.8</course>
  <speed>0.0</speed>
  <fix>3d</fix>
</trkpt>
<trkpt lat="-27.274439" lon="151.290064">
  <ele>343.1</ele>
  <time>2026-09-01T19:50:11Z</time>
  <course>270.0</course>
  <speed>0.0</speed>
  <fix>3d</fix>
</trkpt>
<trkpt lat="-27.274439" lon="151.290064">
  <ele>343.16</ele>
  <time>2026-09-01T19:50:11Z</time>
  <course>10.8</course>
  <speed>0.0</speed>
  <fix>3d</fix>
</trkpt>
<trkpt lat="-27.274439" lon="151.290064">
  <ele>343.1</ele>
  <time>2026-09-01T19:50:11Z</time>
  <course>270.0</course>
  <speed>0.0</speed>
  <fix>3d</fix>
</trkpt>
<trkpt lat="-27.274439" lon="151.290064">
  <ele>343.21</ele>
  <time>2026-09-01T19:50:11Z</time>
  <course>10.8</course>
  <speed>0.0</speed>
  <fix>3d</fix>
</trkpt>
<trkpt lat="-27.274439" lon="151.290064">
  <ele>343.1</ele>
  <time>2026-09-01T19:50:11Z</time>
  <course>270.0</course>
  <speed>0.0</speed>
  <fix>3d</fix>
</trkpt>
<trkpt lat="-27.274439" lon="151.290064">
  <ele>343.22</ele>
  <time>2026-09-01T19:50:11Z</time>
  <course>10.8</course>
  <speed>0.0</speed>
  <fix>3d</fix>
</trkpt>
<trkpt lat="-27.274439" lon="151.290064">
  <ele>343.1</ele>
  <time>2026-09-01T19:50:11Z</time>
  <course>270.0</course>
  <speed>0.0</speed>
  <fix>3d</fix>
</trkpt>
<trkpt lat="-27.274439" lon="151.290064">
  <ele>343.24</ele>
  <time>2026-09-01T19:50:11Z</time>
  <course>10.8</course>
  <speed>0.0</speed>
  <fix>3d</fix>
</trkpt>
<trkpt lat="-27.274439" lon="151.290064">
  <ele>343.1</ele>
  <time>2026-09-01T19:50:11Z</time>
  <course>270.0</course>
  <speed>0.0</speed>
  <fix>3d</fix>
</trkpt>
<trkpt lat="-27.274439" lon="151.290064">
  <ele>343.0</ele>
  <time>2026-09-01T19:50:11Z</time>
  <course>10.8</course>
  <speed>0.0</speed>
  <fix>3d</fix>
</trkpt>
<trkpt lat="-27.274439" lon="151.290064">
  <ele>343.1</ele>
  <time>2026-09-01T19:50:11Z</time>
  <course>270.0</course>
  <speed>0.0</speed>
  <fix>3d</fix>
</trkpt>
<trkpt lat="-27.274439" lon="151.290064">
  <ele>343.1</ele>
  <time>2026-09-01T19:50:11Z</time>
  <course>10.8</course>
  <speed>0.0</speed>
  <fix>3d</fix>
</trkpt>
<trkpt lat="-27.274439" lon="151.290064">
  <ele>343.1</ele>
  <time>2026-09-01T19:50:11Z</time>
  <course>270.0</course>
  <speed>0.0</speed>
  <fix>3d</fix>
</trkpt>
<trkpt lat="-27.274439" lon="151.290064">
  <ele>343.05</ele>
  <time>2026-09-01T19:50:11Z</time>
  <course>10.8</course>
  <speed>0.0</speed>
  <fix>3d</fix>
</trkpt>
<trkpt lat="-27.274439" lon="151.290064">
  <ele>343.1</ele>
  <time>2026-09-01T19:50:11Z</time>
  <course>270.0</course>
  <speed>0.0</speed>
  <fix>3d</fix>
</trkpt>
<trkpt lat="-27.274439" lon="151.290064">
  <ele>342.87</ele>
  <time>2026-09-01T19:50:11Z</time>
  <course>10.8</course>
  <speed>0.0</speed>
  <fix>3d</fix>
</trkpt>
<trkpt lat="-27.274439" lon="151.290064">
  <ele>343.1</ele>
  <time>2026-09-01T19:50:11Z</time>
  <course>270.0</course>
  <speed>0.0</speed>
  <fix>3d</fix>
</trkpt>
<trkpt lat="-27.274439" lon="151.290064">
  <ele>342.92</ele>
  <time>2026-09-01T19:50:11Z</time>
  <course>10.8</course>
  <speed>0.0</speed>
  <fix>3d</fix>
</trkpt>
<trkpt lat="-27.274439" lon="151.290064">
  <ele>343.1</ele>
  <time>2026-09-01T19:50:11Z</time>
  <course>270.0</course>
  <speed>0.0</speed>
  <fix>3d</fix>
</trkpt>
<trkpt lat="-27.274439" lon="151.290064">
  <ele>342.96</ele>
  <time>2026-09-01T19:50:11Z</time>
  <course>10.8</course>
  <speed>0.0</speed>
  <fix>3d</fix>
</trkpt>
<trkpt lat="-27.274439" lon="151.290064">
  <ele>343.1</ele>
  <time>2026-09-01T19:50:11Z</time>
  <course>270.0</course>
  <speed>0.0</speed>
  <fix>3d</fix>
</trkpt>
<trkpt lat="-27.274439" lon="151.290064">
  <ele>343.15</ele>
  <time>2026-09-01T19:50:11Z</time>
  <course>10.8</course>
  <speed>0.0</speed>
  <fix>3d</fix>
</trkpt>
<trkpt lat="-27.274439" lon="151.290064">
  <ele>343.1</ele>
  <time>2026-09-01T19:50:11Z</time>
  <course>270.0</course>
  <speed>0.0</speed>
  <fix>3d</fix>
</trkpt>
<trkpt lat="-27.274439" lon="151.290064">
  <ele>343.16</ele>
  <time>2026-09-01T19:50:11Z</time>
  <course>10.8</course>
  <speed>0.0</speed>
  <fix>3d</fix>
</trkpt>
<trkpt lat="-27.274439" lon="151.290064">
  <ele>343.1</ele>
  <time>2026-09-01T19:50:11Z</time>
  <course>270.0</course>
  <speed>0.0</speed>
  <fix>3d</fix>
</trkpt>
<trkpt lat="-27.274439" lon="151.290064">
  <ele>343.2</ele>
  <time>2026-09-01T19:50:11Z</time>
  <course>10.81</course>
  <speed>0.0</speed>
  <fix>3d</fix>
</trkpt>
<trkpt lat="-27.274439" lon="151.290064">
  <ele>343.1</ele>
  <time>2026-09-01T19:50:11Z</time>
  <course>270.0</course>
  <speed>0.0</speed>
  <fix>3d</fix>
</trkpt>
<trkpt lat="-27.274439" lon="151.290064">
  <ele>343.13</ele>
  <time>2026-09-01T19:50:11Z</time>
  <course>10.82</course>
  <speed>0.0</speed>
  <fix>3d</fix>
</trkpt>
<trkpt lat="-27.274439" lon="151.290064">
  <ele>343.1</ele>
  <time>2026-09-01T19:50:11Z</time>
  <course>270.0</course>
  <speed>0.0</speed>
  <fix>3d</fix>
</trkpt>
<trkpt lat="-27.274439" lon="151.290064">
  <ele>343.09</ele>
  <time>2026-09-01T19:50:11Z</time>
  <course>10.71</course>
  <speed>0.0</speed>
  <fix>3d</fix>
</trkpt>
<trkpt lat="-27.274439" lon="151.290064">
  <ele>343.1</ele>
  <time>2026-09-01T19:50:11Z</time>
  <course>270.0</course>
  <speed>0.0</speed>
  <fix>3d</fix>
</trkpt>
<trkpt lat="-27.274439" lon="151.290064">
  <ele>343.09</ele>
  <time>2026-09-01T19:50:11Z</time>
  <course>10.71</course>
  <speed>0.0</speed>
  <fix>3d</fix>
</trkpt>
<trkpt lat="-27.274439" lon="151.290064">
  <ele>343.1</ele>
  <time>2026-09-01T19:50:11Z</time>
  <course>270.0</course>
  <speed>0.0</speed>
  <fix>3d</fix>
</trkpt>
<trkpt lat="-27.274439" lon="151.290064">
  <ele>343.1</ele>
  <time>2026-09-01T19:50:11Z</time>
  <course>10.71</course>
  <speed>0.0</speed>
  <fix>3d</fix>
</trkpt>
<trkpt lat="-27.274439" lon="151.290064">
  <ele>343.1</ele>
  <time>2026-09-01T19:50:11Z</time>
  <course>270.0</course>
  <speed>0.0</speed>
  <fix>3d</fix>
</trkpt>
<trkpt lat="-27.274439" lon="151.290064">
  <ele>343.1</ele>
  <time>2026-09-01T19:50:11Z</time>
  <course>10.71</course>
  <speed>0.0</speed>
  <fix>3d</fix>
</trkpt>
<trkpt lat="-27.274439" lon="151.290064">
  <ele>343.1</ele>
  <time>2026-09-01T19:50:11Z</time>
  <course>270.0</course>
  <speed>0.0</speed>
  <fix>3d</fix>
</trkpt>
<trkpt lat="-27.274439" lon="151.290064">
  <ele>343.1</ele>
  <time>2026-09-01T19:50:11Z</time>
  <course>10.71</course>
  <speed>0.0</speed>
  <fix>3d</fix>
</trkpt>
<trkpt lat="-27.274439" lon="151.290064">
  <ele>343.1</ele>
  <time>2026-09-01T19:50:11Z</time>
  <course>270.0</course>
  <speed>0.0</speed>
  <fix>3d</fix>
</trkpt>
<trkpt lat="-27.274439" lon="151.290064">
  <ele>343.1</ele>
  <time>2026-09-01T19:50:11Z</time>
  <course>10.71</course>
  <speed>0.0</speed>
  <fix>3d</fix>
</trkpt>
<trkpt lat="-27.274439" lon="151.290064">
  <ele>343.1</ele>
  <time>2026-09-01T19:50:11Z</time>
  <course>270.0</course>
  <speed>0.0</speed>
  <fix>3d</fix>
</trkpt>
<trkpt lat="-27.274439" lon="151.290064">
  <ele>343.1</ele>
  <time>2026-09-01T19:50:11Z</time>
  <course>10.71</course>
  <speed>0.0</speed>
  <fix>3d</fix>
</trkpt>
<trkpt lat="-27.274439" lon="151.290064">
  <ele>343.1</ele>
  <time>2026-09-01T19:50:11Z</time>
  <course>270.0</course>
  <speed>0.0</speed>
  <fix>3d</fix>
</trkpt>
<trkpt lat="-27.274439" lon="151.290064">
  <ele>343.11</ele>
  <time>2026-09-01T19:50:12Z</time>
  <course>10.71</course>
  <speed>0.0</speed>
  <fix>3d</fix>
</trkpt>
<trkpt lat="-27.274439" lon="151.290064">
  <ele>343.1</ele>
  <time>2026-09-01T19:50:12Z</time>
  <course>270.0</course>
  <speed>0.0</speed>
  <fix>3d</fix>
</trkpt>
<trkpt lat="-27.274439" lon="151.290064">
  <ele>343.11</ele>
  <time>2026-09-01T19:50:12Z</time>
  <course>10.71</course>
  <speed>0.0</speed>
  <fix>3d</fix>
</trkpt>
<trkpt lat="-27.274439" lon="151.290064">
  <ele>343.1</ele>
  <time>2026-09-01T19:50:12Z</time>
  <course>270.0</course>
  <speed>0.0</speed>
  <fix>3d</fix>
</trkpt>
<trkpt lat="-27.274439" lon="151.290064">
  <ele>343.11</ele>
  <time>2026-09-01T19:50:12Z</time>
  <course>10.71</course>
  <speed>0.0</speed>
  <fix>3d</fix>
</trkpt>
<trkpt lat="-27.274439" lon="151.290064">
  <ele>343.1</ele>
  <time>2026-09-01T19:50:12Z</time>
  <course>270.0</course>
  <speed>0.0</speed>
  <fix>3d</fix>
</trkpt>
<trkpt lat="-27.274439" lon="151.290064">
  <ele>343.12</ele>
  <time>2026-09-01T19:50:12Z</time>
  <course>10.71</course>
  <speed>0.0</speed>
  <fix>3d</fix>
</trkpt>
<trkpt lat="-27.274439" lon="151.290064">
  <ele>343.1</ele>
  <time>2026-09-01T19:50:12Z</time>
  <course>270.0</course>
  <speed>0.0</speed>
  <fix>3d</fix>
</trkpt>
<trkpt lat="-27.274439" lon="151.290064">
  <ele>343.12</ele>
  <time>2026-09-01T19:50:12Z</time>
  <course>10.71</course>
  <speed>0.0</speed>
  <fix>3d</fix>
</trkpt>
<trkpt lat="-27.274439" lon="151.290064">
  <ele>343.1</ele>
  <time>2026-09-01T19:50:12Z</time>
  <course>270.0</course>
  <speed>0.0</speed>
  <fix>3d</fix>
</trkpt>
<trkpt lat="-27.274439" lon="151.290064">
  <ele>343.1</ele>
  <time>2026-09-01T19:50:12Z</time>
  <course>10.71</course>
  <speed>0.0</speed>
  <fix>3d</fix>
</trkpt>
<trkpt lat="-27.274439" lon="151.290064">
  <ele>343.1</ele>
  <time>2026-09-01T19:50:12Z</time>
  <course>270.0</course>
  <speed>0.0</speed>
  <fix>3d</fix>
</trkpt>
<trkpt lat="-27.274439" lon="151.290064">
  <ele>343.1</ele>
  <time>2026-09-01T19:50:12Z</time>
  <course>10.71</course>
  <speed>0.0</speed>
  <fix>3d</fix>
</trkpt>
<trkpt lat="-27.274439" lon="151.290064">
  <ele>343.1</ele>
  <time>2026-09-01T19:50:12Z</time>
  <course>270.0</course>
  <speed>0.0</speed>
  <fix>3d</fix>
</trkpt>
<trkpt lat="-27.274439" lon="151.290064">
  <ele>343.1</ele>
  <time>2026-09-01T19:50:12Z</time>
  <course>10.71</course>
  <speed>0.0</speed>
  <fix>3d</fix>
</trkpt>
<trkpt lat="-27.274439" lon="151.290064">
  <ele>343.1</ele>
  <time>2026-09-01T19:50:12Z</time>
  <course>270.0</course>
  <speed>0.0</speed>
  <fix>3d</fix>
</trkpt>
<trkpt lat="-27.274439" lon="151.290064">
  <ele>343.09</ele>
  <time>2026-09-01T19:50:12Z</time>
  <course>10.71</course>
  <speed>0.0</speed>
  <fix>3d</fix>
</trkpt>
<trkpt lat="-27.274439" lon="151.290064">
  <ele>343.1</ele>
  <time>2026-09-01T19:50:12Z</time>
  <course>270.0</course>
  <speed>0.0</speed>
  <fix>3d</fix>
</trkpt>
<trkpt lat="-27.274439" lon="151.290064">
  <ele>343.09</ele>
  <time>2026-09-01T19:50:12Z</time>
  <course>10.71</course>
  <speed>0.0</speed>
  <fix>3d</fix>
</trkpt>
<trkpt lat="-27.274439" lon="151.290064">
  <ele>343.1</ele>
  <time>2026-09-01T19:50:12Z</time>
  <course>270.0</course>
  <speed>0.0</speed>
  <fix>3d</fix>
</trkpt>
<trkpt lat="-27.274439" lon="151.290064">
  <ele>343.09</ele>
  <time>2026-09-01T19:50:12Z</time>
  <course>10.71</course>
  <speed>0.0</speed>
  <fix>3d</fix>
</trkpt>
<trkpt lat="-27.274439" lon="151.290064">
  <ele>343.1</ele>
  <time>2026-09-01T19:50:12Z</time>
  <course>270.0</course>
  <speed>0.0</speed>
  <fix>3d</fix>
</trkpt>
<trkpt lat="-27.274439" lon="151.290064">
  <ele>343.1</ele>
  <time>2026-09-01T19:50:12Z</time>
  <course>10.71</course>
  <speed>0.0</speed>
  <fix>3d</fix>
</trkpt>
<trkpt lat="-27.274439" lon="151.290064">
  <ele>343.1</ele>
  <time>2026-09-01T19:50:12Z</time>
  <course>270.0</course>
  <speed>0.0</speed>
  <fix>3d</fix>
</trkpt>
<trkpt lat="-27.274439" lon="151.290064">
  <ele>343.1</ele>
  <time>2026-09-01T19:50:12Z</time>
  <course>10.71</course>
  <speed>0.0</speed>
  <fix>3d</fix>
</trkpt>
<trkpt lat="-27.274439" lon="151.290064">
  <ele>343.1</ele>
  <time>2026-09-01T19:50:12Z</time>
  <course>270.0</course>
  <speed>0.0</speed>
  <fix>3d</fix>
</trkpt>
<trkpt lat="-27.274439" lon="151.290064">
  <ele>343.09</ele>
  <time>2026-09-01T19:50:12Z</time>
  <course>10.71</course>
  <speed>0.0</speed>
  <fix>3d</fix>
</trkpt>
<trkpt lat="-27.274439" lon="151.290064">
  <ele>343.1</ele>
  <time>2026-09-01T19:50:12Z</time>
  <course>270.0</course>
  <speed>0.0</speed>
  <fix>3d</fix>
</trkpt>
<trkpt lat="-27.274439" lon="151.290064">
  <ele>343.09</ele>
  <time>2026-09-01T19:50:12Z</time>
  <course>10.71</course>
  <speed>0.0</speed>
  <fix>3d</fix>
</trkpt>
<trkpt lat="-27.274439" lon="151.290064">
  <ele>343.1</ele>
  <time>2026-09-01T19:50:12Z</time>
  <course>270.0</course>
  <speed>0.0</speed>
  <fix>3d</fix>
</trkpt>
<trkpt lat="-27.274439" lon="151.290064">
  <ele>343.09</ele>
  <time>2026-09-01T19:50:12Z</time>
  <course>10.71</course>
  <speed>0.0</speed>
  <fix>3d</fix>
</trkpt>
<trkpt lat="-27.274439" lon="151.290064">
  <ele>343.1</ele>
  <time>2026-09-01T19:50:12Z</time>
  <course>270.0</course>
  <speed>0.0</speed>
  <fix>3d</fix>
</trkpt>
<trkpt lat="-27.274439" lon="151.290064">
  <ele>343.09</ele>
  <time>2026-09-01T19:50:12Z</time>
  <course>10.71</course>
  <speed>0.0</speed>
  <fix>3d</fix>
</trkpt>
<trkpt lat="-27.274439" lon="151.290064">
  <ele>343.1</ele>
  <time>2026-09-01T19:50:12Z</time>
  <course>270.0</course>
  <speed>0.0</speed>
  <fix>3d</fix>
</trkpt>
<trkpt lat="-27.274439" lon="151.290064">
  <ele>343.09</ele>
  <time>2026-09-01T19:50:12Z</time>
  <course>10.71</course>
  <speed>0.0</speed>
  <fix>3d</fix>
</trkpt>
<trkpt lat="-27.274439" lon="151.290064">
  <ele>343.1</ele>
  <time>2026-09-01T19:50:12Z</time>
  <course>270.0</course>
  <speed>0.0</speed>
  <fix>3d</fix>
</trkpt>
<trkpt lat="-27.274439" lon="151.290064">
  <ele>343.09</ele>
  <time>2026-09-01T19:50:12Z</time>
  <course>10.71</course>
  <speed>0.0</speed>
  <fix>3d</fix>
</trkpt>
<trkpt lat="-27.274439" lon="151.290064">
  <ele>343.1</ele>
  <time>2026-09-01T19:50:12Z</time>
  <course>270.0</course>
  <speed>0.0</speed>
  <fix>3d</fix>
</trkpt>
<trkpt lat="-27.274439" lon="151.290064">
  <ele>343.09</ele>
  <time>2026-09-01T19:50:12Z</time>
  <course>10.71</course>
  <speed>0.0</speed>
  <fix>3d</fix>
</trkpt>
<trkpt lat="-27.274439" lon="151.290064">
  <ele>343.1</ele>
  <time>2026-09-01T19:50:12Z</time>
  <course>270.0</course>
  <speed>0.0</speed>
  <fix>3d</fix>
</trkpt>
<trkpt lat="-27.274439" lon="151.290064">
  <ele>343.09</ele>
  <time>2026-09-01T19:50:12Z</time>
  <course>10.71</course>
  <speed>0.0</speed>
  <fix>3d</fix>
</trkpt>
<trkpt lat="-27.274439" lon="151.290064">
  <ele>343.1</ele>
  <time>2026-09-01T19:50:12Z</time>
  <course>270.0</course>
  <speed>0.0</speed>
  <fix>3d</fix>
</trkpt>
<trkpt lat="-27.274439" lon="151.290064">
  <ele>343.1</ele>
  <time>2026-09-01T19:50:12Z</time>
  <course>10.71</course>
  <speed>0.0</speed>
  <fix>3d</fix>
</trkpt>
<trkpt lat="-27.274439" lon="151.290064">
  <ele>343.1</ele>
  <time>2026-09-01T19:50:12Z</time>
  <course>270.0</course>
  <speed>0.0</speed>
  <fix>3d</fix>
</trkpt>
<trkpt lat="-27.274439" lon="151.290064">
  <ele>343.1</ele>
  <time>2026-09-01T19:50:12Z</time>
  <course>10.71</course>
  <speed>0.0</speed>
  <fix>3d</fix>
</trkpt>
<trkpt lat="-27.274439" lon="151.290064">
  <ele>343.1</ele>
  <time>2026-09-01T19:50:12Z</time>
  <course>270.0</course>
  <speed>0.0</speed>
  <fix>3d</fix>
</trkpt>
<trkpt lat="-27.274439" lon="151.290064">
  <ele>343.1</ele>
  <time>2026-09-01T19:50:12Z</time>
  <course>10.71</course>
  <speed>0.0</speed>
  <fix>3d</fix>
</trkpt>
<trkpt lat="-27.274439" lon="151.290064">
  <ele>343.1</ele>
  <time>2026-09-01T19:50:12Z</time>
  <course>270.0</course>
  <speed>0.0</speed>
  <fix>3d</fix>
</trkpt>
<trkpt lat="-27.274439" lon="151.290064">
  <ele>343.1</ele>
  <time>2026-09-01T19:50:12Z</time>
  <course>10.71</course>
  <speed>0.0</speed>
  <fix>3d</fix>
</trkpt>
<trkpt lat="-27.274439" lon="151.290064">
  <ele>343.1</ele>
  <time>2026-09-01T19:50:12Z</time>
  <course>270.0</course>
  <speed>0.0</speed>
  <fix>3d</fix>
</trkpt>
<trkpt lat="-27.274439" lon="151.290064">
  <ele>343.11</ele>
  <time>2026-09-01T19:50:12Z</time>
  <course>10.71</course>
  <speed>0.0</speed>
  <fix>3d</fix>
</trkpt>
<trkpt lat="-27.274439" lon="151.290064">
  <ele>343.1</ele>
  <time>2026-09-01T19:50:12Z</time>
  <course>270.0</course>
  <speed>0.0</speed>
  <fix>3d</fix>
</trkpt>
<trkpt lat="-27.274439" lon="151.290064">
  <ele>343.11</ele>
  <time>2026-09-01T19:50:12Z</time>
  <course>10.71</course>
  <speed>0.0</speed>
  <fix>3d</fix>
</trkpt>
<trkpt lat="-27.274439" lon="151.290064">
  <ele>343.1</ele>
  <time>2026-09-01T19:50:12Z</time>
  <course>270.0</course>
  <speed>0.0</speed>
  <fix>3d</fix>
</trkpt>
<trkpt lat="-27.274439" lon="151.290064">
  <ele>343.11</ele>
  <time>2026-09-01T19:50:12Z</time>
  <course>10.71</course>
  <speed>0.0</speed>
  <fix>3d</fix>
</trkpt>
<trkpt lat="-27.274439" lon="151.290064">
  <ele>343.1</ele>
  <time>2026-09-01T19:50:12Z</time>
  <course>270.0</course>
  <speed>0.0</speed>
  <fix>3d</fix>
</trkpt>
<trkpt lat="-27.274439" lon="151.290064">
  <ele>343.11</ele>
  <time>2026-09-01T19:50:12Z</time>
  <course>10.71</course>
  <speed>0.0</speed>
  <fix>3d</fix>
</trkpt>
<trkpt lat="-27.274439" lon="151.290064">
  <ele>343.1</ele>
  <time>2026-09-01T19:50:12Z</time>
  <course>270.0</course>
  <speed>0.0</speed>
  <fix>3d</fix>
</trkpt>
<trkpt lat="-27.274439" lon="151.290064">
  <ele>343.12</ele>
  <time>2026-09-01T19:50:12Z</time>
  <course>10.71</course>
  <speed>0.0</speed>
  <fix>3d</fix>
</trkpt>
<trkpt lat="-27.274439" lon="151.290064">
  <ele>343.1</ele>
  <time>2026-09-01T19:50:12Z</time>
  <course>270.0</course>
  <speed>0.0</speed>
  <fix>3d</fix>
</trkpt>
<trkpt lat="-27.274439" lon="151.290064">
  <ele>343.12</ele>
  <time>2026-09-01T19:50:12Z</time>
  <course>10.71</course>
  <speed>0.0</speed>
  <fix>3d</fix>
</trkpt>
<trkpt lat="-27.274439" lon="151.290064">
  <ele>343.1</ele>
  <time>2026-09-01T19:50:12Z</time>
  <course>270.0</course>
  <speed>0.0</speed>
  <fix>3d</fix>
</trkpt>
<trkpt lat="-27.274439" lon="151.290064">
  <ele>343.12</ele>
  <time>2026-09-01T19:50:12Z</time>
  <course>10.71</course>
  <speed>0.0</speed>
  <fix>3d</fix>
</trkpt>
<trkpt lat="-27.274439" lon="151.290064">
  <ele>343.1</ele>
  <time>2026-09-01T19:50:12Z</time>
  <course>270.0</course>
  <speed>0.0</speed>
  <fix>3d</fix>
</trkpt>
<trkpt lat="-27.274439" lon="151.290064">
  <ele>343.12</ele>
  <time>2026-09-01T19:50:12Z</time>
  <course>10.71</course>
  <speed>0.0</speed>
  <fix>3d</fix>
</trkpt>
<trkpt lat="-27.274439" lon="151.290064">
  <ele>343.1</ele>
  <time>2026-09-01T19:50:12Z</time>
  <course>270.0</course>
  <speed>0.0</speed>
  <fix>3d</fix>
</trkpt>
<trkpt lat="-27.274439" lon="151.290064">
  <ele>343.12</ele>
  <time>2026-09-01T19:50:12Z</time>
  <course>10.71</course>
  <speed>0.0</speed>
  <fix>3d</fix>
</trkpt>
<trkpt lat="-27.274439" lon="151.290064">
  <ele>343.1</ele>
  <time>2026-09-01T19:50:12Z</time>
  <course>270.0</course>
  <speed>0.0</speed>
  <fix>3d</fix>
</trkpt>
<trkpt lat="-27.274439" lon="151.290064">
  <ele>343.13</ele>
  <time>2026-09-01T19:50:12Z</time>
  <course>10.71</course>
  <speed>0.0</speed>
  <fix>3d</fix>
</trkpt>
<trkpt lat="-27.274439" lon="151.290064">
  <ele>343.1</ele>
  <time>2026-09-01T19:50:12Z</time>
  <course>270.0</course>
  <speed>0.0</speed>
  <fix>3d</fix>
</trkpt>
<trkpt lat="-27.274439" lon="151.290064">
  <ele>343.13</ele>
  <time>2026-09-01T19:50:12Z</time>
  <course>10.71</course>
  <speed>0.0</speed>
  <fix>3d</fix>
</trkpt>
<trkpt lat="-27.274439" lon="151.290064">
  <ele>343.1</ele>
  <time>2026-09-01T19:50:12Z</time>
  <course>270.0</course>
  <speed>0.0</speed>
  <fix>3d</fix>
</trkpt>
<trkpt lat="-27.274439" lon="151.290064">
  <ele>343.13</ele>
  <time>2026-09-01T19:50:12Z</time>
  <course>10.71</course>
  <speed>0.0</speed>
  <fix>3d</fix>
</trkpt>
<trkpt lat="-27.274439" lon="151.290064">
  <ele>343.1</ele>
  <time>2026-09-01T19:50:12Z</time>
  <course>270.0</course>
  <speed>0.0</speed>
  <fix>3d</fix>
</trkpt>
<trkpt lat="-27.274439" lon="151.290064">
  <ele>343.13</ele>
  <time>2026-09-01T19:50:12Z</time>
  <course>10.71</course>
  <speed>0.0</speed>
  <fix>3d</fix>
</trkpt>
<trkpt lat="-27.274439" lon="151.290064">
  <ele>343.1</ele>
  <time>2026-09-01T19:50:12Z</time>
  <course>270.0</course>
  <speed>0.0</speed>
  <fix>3d</fix>
</trkpt>
<trkpt lat="-27.274439" lon="151.290064">
  <ele>343.14</ele>
  <time>2026-09-01T19:50:12Z</time>
  <course>10.71</course>
  <speed>0.0</speed>
  <fix>3d</fix>
</trkpt>
<trkpt lat="-27.274439" lon="151.290064">
  <ele>343.1</ele>
  <time>2026-09-01T19:50:12Z</time>
  <course>270.0</course>
  <speed>0.0</speed>
  <fix>3d</fix>
</trkpt>
<trkpt lat="-27.274439" lon="151.290064">
  <ele>343.14</ele>
  <time>2026-09-01T19:50:12Z</time>
  <course>10.71</course>
  <speed>0.0</speed>
  <fix>3d</fix>
</trkpt>
<trkpt lat="-27.274439" lon="151.290064">
  <ele>343.1</ele>
  <time>2026-09-01T19:50:12Z</time>
  <course>270.0</course>
  <speed>0.0</speed>
  <fix>3d</fix>
</trkpt>
<trkpt lat="-27.274439" lon="151.290064">
  <ele>343.14</ele>
  <time>2026-09-01T19:50:12Z</time>
  <course>10.71</course>
  <speed>0.0</speed>
  <fix>3d</fix>
</trkpt>
<trkpt lat="-27.274439" lon="151.290064">
  <ele>343.1</ele>
  <time>2026-09-01T19:50:12Z</time>
  <course>270.0</course>
  <speed>0.0</speed>
  <fix>3d</fix>
</trkpt>
<trkpt lat="-27.274439" lon="151.290064">
  <ele>343.14</ele>
  <time>2026-09-01T19:50:12Z</time>
  <course>10.71</course>
  <speed>0.0</speed>
  <fix>3d</fix>
</trkpt>
<trkpt lat="-27.274439" lon="151.290064">
  <ele>343.1</ele>
  <time>2026-09-01T19:50:12Z</time>
  <course>270.0</course>
  <speed>0.0</speed>
  <fix>3d</fix>
</trkpt>
<trkpt lat="-27.274439" lon="151.290064">
  <ele>343.14</ele>
  <time>2026-09-01T19:50:12Z</time>
  <course>10.71</course>
  <speed>0.0</speed>
  <fix>3d</fix>
</trkpt>
<trkpt lat="-27.274439" lon="151.290064">
  <ele>343.1</ele>
  <time>2026-09-01T19:50:12Z</time>
  <course>270.0</course>
  <speed>0.0</speed>
  <fix>3d</fix>
</trkpt>
<trkpt lat="-27.274439" lon="151.290064">
  <ele>343.14</ele>
  <time>2026-09-01T19:50:12Z</time>
  <course>10.71</course>
  <speed>0.0</speed>
  <fix>3d</fix>
</trkpt>
<trkpt lat="-27.274439" lon="151.290064">
  <ele>343.1</ele>
  <time>2026-09-01T19:50:12Z</time>
  <course>270.0</course>
  <speed>0.0</speed>
  <fix>3d</fix>
</trkpt>
<trkpt lat="-27.274439" lon="151.290064">
  <ele>343.14</ele>
  <time>2026-09-01T19:50:12Z</time>
  <course>10.71</course>
  <speed>0.0</speed>
  <fix>3d</fix>
</trkpt>
<trkpt lat="-27.274439" lon="151.290064">
  <ele>343.1</ele>
  <time>2026-09-01T19:50:12Z</time>
  <course>270.0</course>
  <speed>0.0</speed>
  <fix>3d</fix>
</trkpt>
<trkpt lat="-27.274439" lon="151.290064">
  <ele>343.14</ele>
  <time>2026-09-01T19:50:12Z</time>
  <course>10.71</course>
  <speed>0.0</speed>
  <fix>3d</fix>
</trkpt>
<trkpt lat="-27.274439" lon="151.290064">
  <ele>343.1</ele>
  <time>2026-09-01T19:50:12Z</time>
  <course>270.0</course>
  <speed>0.0</speed>
  <fix>3d</fix>
</trkpt>
<trkpt lat="-27.274439" lon="151.290064">
  <ele>343.13</ele>
  <time>2026-09-01T19:50:12Z</time>
  <course>10.71</course>
  <speed>0.0</speed>
  <fix>3d</fix>
</trkpt>
<trkpt lat="-27.274439" lon="151.290064">
  <ele>343.1</ele>
  <time>2026-09-01T19:50:12Z</time>
  <course>270.0</course>
  <speed>0.0</speed>
  <fix>3d</fix>
</trkpt>
<trkpt lat="-27.274439" lon="151.290064">
  <ele>343.13</ele>
  <time>2026-09-01T19:50:12Z</time>
  <course>10.71</course>
  <speed>0.0</speed>
  <fix>3d</fix>
</trkpt>
<trkpt lat="-27.274439" lon="151.290064">
  <ele>343.1</ele>
  <time>2026-09-01T19:50:12Z</time>
  <course>270.0</course>
  <speed>0.0</speed>
  <fix>3d</fix>
</trkpt>
<trkpt lat="-27.274439" lon="151.290064">
  <ele>343.13</ele>
  <time>2026-09-01T19:50:12Z</time>
  <course>10.71</course>
  <speed>0.0</speed>
  <fix>3d</fix>
</trkpt>
<trkpt lat="-27.274439" lon="151.290064">
  <ele>343.1</ele>
  <time>2026-09-01T19:50:12Z</time>
  <course>270.0</course>
  <speed>0.0</speed>
  <fix>3d</fix>
</trkpt>
<trkpt lat="-27.274439" lon="151.290064">
  <ele>343.13</ele>
  <time>2026-09-01T19:50:12Z</time>
  <course>10.71</course>
  <speed>0.0</speed>
  <fix>3d</fix>
</trkpt>
<trkpt lat="-27.274439" lon="151.290064">
  <ele>343.1</ele>
  <time>2026-09-01T19:50:12Z</time>
  <course>270.0</course>
  <speed>0.0</speed>
  <fix>3d</fix>
</trkpt>
<trkpt lat="-27.274439" lon="151.290064">
  <ele>343.13</ele>
  <time>2026-09-01T19:50:12Z</time>
  <course>10.71</course>
  <speed>0.0</speed>
  <fix>3d</fix>
</trkpt>
<trkpt lat="-27.274439" lon="151.290064">
  <ele>343.1</ele>
  <time>2026-09-01T19:50:12Z</time>
  <course>270.0</course>
  <speed>0.0</speed>
  <fix>3d</fix>
</trkpt>
<trkpt lat="-27.274439" lon="151.290064">
  <ele>343.13</ele>
  <time>2026-09-01T19:50:12Z</time>
  <course>10.71</course>
  <speed>0.0</speed>
  <fix>3d</fix>
</trkpt>
<trkpt lat="-27.274439" lon="151.290064">
  <ele>343.1</ele>
  <time>2026-09-01T19:50:12Z</time>
  <course>270.0</course>
  <speed>0.0</speed>
  <fix>3d</fix>
</trkpt>
<trkpt lat="-27.274439" lon="151.290064">
  <ele>343.13</ele>
  <time>2026-09-01T19:50:12Z</time>
  <course>10.71</course>
  <speed>0.0</speed>
  <fix>3d</fix>
</trkpt>
<trkpt lat="-27.274439" lon="151.290064">
  <ele>343.1</ele>
  <time>2026-09-01T19:50:12Z</time>
  <course>270.0</course>
  <speed>0.0</speed>
  <fix>3d</fix>
</trkpt>
<trkpt lat="-27.274439" lon="151.290064">
  <ele>343.13</ele>
  <time>2026-09-01T19:50:12Z</time>
  <course>10.71</course>
  <speed>0.0</speed>
  <fix>3d</fix>
</trkpt>
<trkpt lat="-27.274439" lon="151.290064">
  <ele>343.1</ele>
  <time>2026-09-01T19:50:12Z</time>
  <course>270.0</course>
  <speed>0.0</speed>
  <fix>3d</fix>
</trkpt>
<trkpt lat="-27.274439" lon="151.290064">
  <ele>343.14</ele>
  <time>2026-09-01T19:50:12Z</time>
  <course>10.71</course>
  <speed>0.0</speed>
  <fix>3d</fix>
</trkpt>
<trkpt lat="-27.274439" lon="151.290064">
  <ele>343.1</ele>
  <time>2026-09-01T19:50:12Z</time>
  <course>270.0</course>
  <speed>0.0</speed>
  <fix>3d</fix>
</trkpt>
<trkpt lat="-27.274439" lon="151.290064">
  <ele>343.14</ele>
  <time>2026-09-01T19:50:12Z</time>
  <course>10.71</course>
  <speed>0.0</speed>
  <fix>3d</fix>
</trkpt>
<trkpt lat="-27.274439" lon="151.290064">
  <ele>343.1</ele>
  <time>2026-09-01T19:50:12Z</time>
  <course>270.0</course>
  <speed>0.0</speed>
  <fix>3d</fix>
</trkpt>
<trkpt lat="-27.274439" lon="151.290064">
  <ele>343.14</ele>
  <time>2026-09-01T19:50:12Z</time>
  <course>10.71</course>
  <speed>0.0</speed>
  <fix>3d</fix>
</trkpt>
<trkpt lat="-27.274439" lon="151.290064">
  <ele>343.1</ele>
  <time>2026-09-01T19:50:12Z</time>
  <course>270.0</course>
  <speed>0.0</speed>
  <fix>3d</fix>
</trkpt>
<trkpt lat="-27.274439" lon="151.290064">
  <ele>343.14</ele>
  <time>2026-09-01T19:50:12Z</time>
  <course>10.71</course>
  <speed>0.0</speed>
  <fix>3d</fix>
</trkpt>
<trkpt lat="-27.274439" lon="151.290064">
  <ele>343.1</ele>
  <time>2026-09-01T19:50:12Z</time>
  <course>270.0</course>
  <speed>0.0</speed>
  <fix>3d</fix>
</trkpt>
<trkpt lat="-27.274439" lon="151.290064">
  <ele>343.14</ele>
  <time>2026-09-01T19:50:12Z</time>
  <course>10.71</course>
  <speed>0.0</speed>
  <fix>3d</fix>
</trkpt>
<trkpt lat="-27.274439" lon="151.290064">
  <ele>343.1</ele>
  <time>2026-09-01T19:50:12Z</time>
  <course>270.0</course>
  <speed>0.0</speed>
  <fix>3d</fix>
</trkpt>
<trkpt lat="-27.274439" lon="151.290064">
  <ele>343.14</ele>
  <time>2026-09-01T19:50:12Z</time>
  <course>10.71</course>
  <speed>0.0</speed>
  <fix>3d</fix>
</trkpt>
<trkpt lat="-27.274439" lon="151.290064">
  <ele>343.1</ele>
  <time>2026-09-01T19:50:12Z</time>
  <course>270.0</course>
  <speed>0.0</speed>
  <fix>3d</fix>
</trkpt>
<trkpt lat="-27.274439" lon="151.290064">
  <ele>343.15</ele>
  <time>2026-09-01T19:50:12Z</time>
  <course>10.71</course>
  <speed>0.0</speed>
  <fix>3d</fix>
</trkpt>
<trkpt lat="-27.274439" lon="151.290064">
  <ele>343.1</ele>
  <time>2026-09-01T19:50:12Z</time>
  <course>270.0</course>
  <speed>0.0</speed>
  <fix>3d</fix>
</trkpt>
<trkpt lat="-27.274439" lon="151.290064">
  <ele>343.15</ele>
  <time>2026-09-01T19:50:12Z</time>
  <course>10.71</course>
  <speed>0.0</speed>
  <fix>3d</fix>
</trkpt>
<trkpt lat="-27.274439" lon="151.290064">
  <ele>343.1</ele>
  <time>2026-09-01T19:50:12Z</time>
  <course>270.0</course>
  <speed>0.0</speed>
  <fix>3d</fix>
</trkpt>
<trkpt lat="-27.274439" lon="151.290064">
  <ele>343.15</ele>
  <time>2026-09-01T19:50:12Z</time>
  <course>10.71</course>
  <speed>0.0</speed>
  <fix>3d</fix>
</trkpt>
<trkpt lat="-27.274439" lon="151.290064">
  <ele>343.1</ele>
  <time>2026-09-01T19:50:12Z</time>
  <course>270.0</course>
  <speed>0.0</speed>
  <fix>3d</fix>
</trkpt>
<trkpt lat="-27.274439" lon="151.290064">
  <ele>343.15</ele>
  <time>2026-09-01T19:50:12Z</time>
  <course>10.71</course>
  <speed>0.0</speed>
  <fix>3d</fix>
</trkpt>
<trkpt lat="-27.274439" lon="151.290064">
  <ele>343.1</ele>
  <time>2026-09-01T19:50:12Z</time>
  <course>270.0</course>
  <speed>0.0</speed>
  <fix>3d</fix>
</trkpt>
<trkpt lat="-27.274439" lon="151.290064">
  <ele>343.15</ele>
  <time>2026-09-01T19:50:12Z</time>
  <course>10.71</course>
  <speed>0.0</speed>
  <fix>3d</fix>
</trkpt>
<trkpt lat="-27.274439" lon="151.290064">
  <ele>343.1</ele>
  <time>2026-09-01T19:50:12Z</time>
  <course>270.0</course>
  <speed>0.0</speed>
  <fix>3d</fix>
</trkpt>
<trkpt lat="-27.274439" lon="151.290064">
  <ele>343.1</ele>
  <time>2026-09-01T19:50:12Z</time>
  <course>10.71</course>
  <speed>0.0</speed>
  <fix>3d</fix>
</trkpt>
<trkpt lat="-27.274439" lon="151.290064">
  <ele>343.1</ele>
  <time>2026-09-01T19:50:12Z</time>
  <course>270.0</course>
  <speed>0.0</speed>
  <fix>3d</fix>
</trkpt>
<trkpt lat="-27.274439" lon="151.290064">
  <ele>343.1</ele>
  <time>2026-09-01T19:50:12Z</time>
  <course>10.71</course>
  <speed>0.0</speed>
  <fix>3d</fix>
</trkpt>
<trkpt lat="-27.274439" lon="151.290064">
  <ele>343.1</ele>
  <time>2026-09-01T19:50:12Z</time>
  <course>270.0</course>
  <speed>0.0</speed>
  <fix>3d</fix>
</trkpt>
<trkpt lat="-27.274439" lon="151.290064">
  <ele>343.1</ele>
  <time>2026-09-01T19:50:12Z</time>
  <course>10.71</course>
  <speed>0.0</speed>
  <fix>3d</fix>
</trkpt>
<trkpt lat="-27.274439" lon="151.290064">
  <ele>343.1</ele>
  <time>2026-09-01T19:50:12Z</time>
  <course>270.0</course>
  <speed>0.0</speed>
  <fix>3d</fix>
</trkpt>
<trkpt lat="-27.274439" lon="151.290064">
  <ele>343.1</ele>
  <time>2026-09-01T19:50:12Z</time>
  <course>10.71</course>
  <speed>0.0</speed>
  <fix>3d</fix>
</trkpt>
<trkpt lat="-27.274439" lon="151.290064">
  <ele>343.1</ele>
  <time>2026-09-01T19:50:12Z</time>
  <course>270.0</course>
  <speed>0.0</speed>
  <fix>3d</fix>
</trkpt>
<trkpt lat="-27.274439" lon="151.290064">
  <ele>343.09</ele>
  <time>2026-09-01T19:50:12Z</time>
  <course>10.71</course>
  <speed>0.0</speed>
  <fix>3d</fix>
</trkpt>
<trkpt lat="-27.274439" lon="151.290064">
  <ele>343.1</ele>
  <time>2026-09-01T19:50:12Z</time>
  <course>270.0</course>
  <speed>0.0</speed>
  <fix>3d</fix>
</trkpt>
<trkpt lat="-27.274439" lon="151.290064">
  <ele>343.09</ele>
  <time>2026-09-01T19:50:12Z</time>
  <course>10.71</course>
  <speed>0.0</speed>
  <fix>3d</fix>
</trkpt>
<trkpt lat="-27.274439" lon="151.290064">
  <ele>343.1</ele>
  <time>2026-09-01T19:50:12Z</time>
  <course>270.0</course>
  <speed>0.0</speed>
  <fix>3d</fix>
</trkpt>
<trkpt lat="-27.274439" lon="151.290064">
  <ele>343.08</ele>
  <time>2026-09-01T19:50:12Z</time>
  <course>10.71</course>
  <speed>0.0</speed>
  <fix>3d</fix>
</trkpt>
<trkpt lat="-27.274439" lon="151.290064">
  <ele>343.1</ele>
  <time>2026-09-01T19:50:12Z</time>
  <course>270.0</course>
  <speed>0.0</speed>
  <fix>3d</fix>
</trkpt>
<trkpt lat="-27.274439" lon="151.290064">
  <ele>343.08</ele>
  <time>2026-09-01T19:50:12Z</time>
  <course>10.71</course>
  <speed>0.0</speed>
  <fix>3d</fix>
</trkpt>
<trkpt lat="-27.274439" lon="151.290064">
  <ele>343.1</ele>
  <time>2026-09-01T19:50:12Z</time>
  <course>270.0</course>
  <speed>0.0</speed>
  <fix>3d</fix>
</trkpt>
<trkpt lat="-27.274439" lon="151.290064">
  <ele>343.07</ele>
  <time>2026-09-01T19:50:12Z</time>
  <course>10.71</course>
  <speed>0.0</speed>
  <fix>3d</fix>
</trkpt>
<trkpt lat="-27.274439" lon="151.290064">
  <ele>343.1</ele>
  <time>2026-09-01T19:50:12Z</time>
  <course>270.0</course>
  <speed>0.0</speed>
  <fix>3d</fix>
</trkpt>
<trkpt lat="-27.274439" lon="151.290064">
  <ele>343.07</ele>
  <time>2026-09-01T19:50:12Z</time>
  <course>10.71</course>
  <speed>0.0</speed>
  <fix>3d</fix>
</trkpt>
<trkpt lat="-27.274439" lon="151.290064">
  <ele>343.1</ele>
  <time>2026-09-01T19:50:12Z</time>
  <course>270.0</course>
  <speed>0.0</speed>
  <fix>3d</fix>
</trkpt>
<trkpt lat="-27.274439" lon="151.290064">
  <ele>343.06</ele>
  <time>2026-09-01T19:50:12Z</time>
  <course>10.71</course>
  <speed>0.0</speed>
  <fix>3d</fix>
</trkpt>
<trkpt lat="-27.274439" lon="151.290064">
  <ele>343.1</ele>
  <time>2026-09-01T19:50:12Z</time>
  <course>270.0</course>
  <speed>0.0</speed>
  <fix>3d</fix>
</trkpt>
<trkpt lat="-27.274439" lon="151.290064">
  <ele>343.06</ele>
  <time>2026-09-01T19:50:12Z</time>
  <course>10.71</course>
  <speed>0.0</speed>
  <fix>3d</fix>
</trkpt>
<trkpt lat="-27.274439" lon="151.290064">
  <ele>343.1</ele>
  <time>2026-09-01T19:50:12Z</time>
  <course>270.0</course>
  <speed>0.0</speed>
  <fix>3d</fix>
</trkpt>
<trkpt lat="-27.274439" lon="151.290064">
  <ele>343.05</ele>
  <time>2026-09-01T19:50:12Z</time>
  <course>10.71</course>
  <speed>0.0</speed>
  <fix>3d</fix>
</trkpt>
<trkpt lat="-27.274439" lon="151.290064">
  <ele>343.1</ele>
  <time>2026-09-01T19:50:12Z</time>
  <course>270.0</course>
  <speed>0.0</speed>
  <fix>3d</fix>
</trkpt>
<trkpt lat="-27.274439" lon="151.290064">
  <ele>343.05</ele>
  <time>2026-09-01T19:50:12Z</time>
  <course>10.71</course>
  <speed>0.0</speed>
  <fix>3d</fix>
</trkpt>
<trkpt lat="-27.274439" lon="151.290064">
  <ele>343.1</ele>
  <time>2026-09-01T19:50:12Z</time>
  <course>270.0</course>
  <speed>0.0</speed>
  <fix>3d</fix>
</trkpt>
<trkpt lat="-27.274439" lon="151.290064">
  <ele>343.04</ele>
  <time>2026-09-01T19:50:12Z</time>
  <course>10.71</course>
  <speed>0.0</speed>
  <fix>3d</fix>
</trkpt>
<trkpt lat="-27.274439" lon="151.290064">
  <ele>343.1</ele>
  <time>2026-09-01T19:50:12Z</time>
  <course>270.0</course>
  <speed>0.0</speed>
  <fix>3d</fix>
</trkpt>
<trkpt lat="-27.274439" lon="151.290064">
  <ele>343.03</ele>
  <time>2026-09-01T19:50:12Z</time>
  <course>10.71</course>
  <speed>0.0</speed>
  <fix>3d</fix>
</trkpt>
<trkpt lat="-27.274439" lon="151.290064">
  <ele>343.1</ele>
  <time>2026-09-01T19:50:12Z</time>
  <course>270.0</course>
  <speed>0.0</speed>
  <fix>3d</fix>
</trkpt>
<trkpt lat="-27.274439" lon="151.290064">
  <ele>343.03</ele>
  <time>2026-09-01T19:50:12Z</time>
  <course>10.71</course>
  <speed>0.0</speed>
  <fix>3d</fix>
</trkpt>
<trkpt lat="-27.274439" lon="151.290064">
  <ele>343.1</ele>
  <time>2026-09-01T19:50:12Z</time>
  <course>270.0</course>
  <speed>0.0</speed>
  <fix>3d</fix>
</trkpt>
<trkpt lat="-26.9720619" lon="149.6127921">
  <ele>339.29</ele>
  <time>2026-09-01T19:50:12Z</time>
  <course>310.27</course>
  <speed>0.0</speed>
  <fix>3d</fix>
</trkpt>
<trkpt lat="-26.9720619" lon="149.6127921">
  <ele>339.29</ele>
  <time>2026-09-01T19:50:12Z</time>
  <course>310.27</course>
  <speed>0.0</speed>
  <fix>3d</fix>
</trkpt>
<trkpt lat="-27.274439" lon="151.290064">
  <ele>-0.01</ele>
  <time>2026-09-01T19:50:12Z</time>
  <course>0.22</course>
  <speed>0.0</speed>
  <fix>3d</fix>
</trkpt>
<trkpt lat="-27.274439" lon="151.290064">
  <ele>343.1</ele>
  <time>2026-09-01T19:50:12Z</time>
  <course>294.58</course>
  <speed>0.0</speed>
  <fix>3d</fix>
</trkpt>
<trkpt lat="-27.274439" lon="151.290064">
  <ele>0.02</ele>
  <time>2026-09-01T19:50:12Z</time>
  <course>1.2</course>
  <speed>0.0</speed>
  <fix>3d</fix>
</trkpt>
<trkpt lat="-27.274439" lon="151.290064">
  <ele>343.1</ele>
  <time>2026-09-01T19:50:12Z</time>
  <course>294.58</course>
  <speed>0.0</speed>
  <fix>3d</fix>
</trkpt>
<trkpt lat="-27.274439" lon="151.290064">
  <ele>-0.08</ele>
  <time>2026-09-01T19:50:12Z</time>
  <course>2.1</course>
  <speed>0.0</speed>
  <fix>3d</fix>
</trkpt>
<trkpt lat="-27.274439" lon="151.290064">
  <ele>343.1</ele>
  <time>2026-09-01T19:50:12Z</time>
  <course>273.33</course>
  <speed>0.0</speed>
  <fix>3d</fix>
</trkpt>
<trkpt lat="-27.274439" lon="151.290064">
  <ele>0.22</ele>
  <time>2026-09-01T19:50:12Z</time>
  <course>2.92</course>
  <speed>0.0</speed>
  <fix>3d</fix>
</trkpt>
<trkpt lat="-27.274439" lon="151.290064">
  <ele>343.1</ele>
  <time>2026-09-01T19:50:12Z</time>
  <course>273.33</course>
  <speed>0.0</speed>
  <fix>3d</fix>
</trkpt>
<trkpt lat="-27.274439" lon="151.290064">
  <ele>0.09</ele>
  <time>2026-09-01T19:50:12Z</time>
  <course>3.66</course>
  <speed>0.0</speed>
  <fix>3d</fix>
</trkpt>
<trkpt lat="-27.274439" lon="151.290064">
  <ele>343.1</ele>
  <time>2026-09-01T19:50:12Z</time>
  <course>270.44</course>
  <speed>0.0</speed>
  <fix>3d</fix>
</trkpt>
<trkpt lat="-27.274439" lon="151.290064">
  <ele>0.08</ele>
  <time>2026-09-01T19:50:12Z</time>
  <course>4.34</course>
  <speed>0.0</speed>
  <fix>3d</fix>
</trkpt>
<trkpt lat="-27.274439" lon="151.290064">
  <ele>343.1</ele>
  <time>2026-09-01T19:50:12Z</time>
  <course>270.44</course>
  <speed>0.0</speed>
  <fix>3d</fix>
</trkpt>
<trkpt lat="-27.274439" lon="151.290064">
  <ele>0.09</ele>
  <time>2026-09-01T19:50:12Z</time>
  <course>4.95</course>
  <speed>0.0</speed>
  <fix>3d</fix>
</trkpt>
<trkpt lat="-27.274439" lon="151.290064">
  <ele>343.1</ele>
  <time>2026-09-01T19:50:12Z</time>
  <course>270.05</course>
  <speed>0.0</speed>
  <fix>3d</fix>
</trkpt>
<trkpt lat="-27.274439" lon="151.290064">
  <ele>-0.05</ele>
  <time>2026-09-01T19:50:12Z</time>
  <course>5.5</course>
  <speed>0.0</speed>
  <fix>3d</fix>
</trkpt>
<trkpt lat="-27.274439" lon="151.290064">
  <ele>343.1</ele>
  <time>2026-09-01T19:50:12Z</time>
  <course>270.05</course>
  <speed>0.0</speed>
  <fix>3d</fix>
</trkpt>
<trkpt lat="-27.274439" lon="151.290064">
  <ele>343.06</ele>
  <time>2026-09-01T19:50:12Z</time>
  <course>5.98</course>
  <speed>0.0</speed>
  <fix>3d</fix>
</trkpt>
<trkpt lat="-27.274439" lon="151.290064">
  <ele>343.1</ele>
  <time>2026-09-01T19:50:12Z</time>
  <course>270.0</course>
  <speed>0.0</speed>
  <fix>3d</fix>
</trkpt>
<trkpt lat="-27.274439" lon="151.290064">
  <ele>343.18</ele>
  <time>2026-09-01T19:50:12Z</time>
  <course>6.44</course>
  <speed>0.0</speed>
  <fix>3d</fix>
</trkpt>
<trkpt lat="-27.274439" lon="151.290064">
  <ele>343.1</ele>
  <time>2026-09-01T19:50:12Z</time>
  <course>270.0</course>
  <speed>0.0</speed>
  <fix>3d</fix>
</trkpt>
<trkpt lat="-27.274439" lon="151.290064">
  <ele>342.91</ele>
  <time>2026-09-01T19:50:12Z</time>
  <course>6.85</course>
  <speed>0.0</speed>
  <fix>3d</fix>
</trkpt>
<trkpt lat="-27.274439" lon="151.290064">
  <ele>343.1</ele>
  <time>2026-09-01T19:50:12Z</time>
  <course>270.0</course>
  <speed>0.0</speed>
  <fix>3d</fix>
</trkpt>
<trkpt lat="-27.274439" lon="151.290064">
  <ele>343.06</ele>
  <time>2026-09-01T19:50:12Z</time>
  <course>7.22</course>
  <speed>0.0</speed>
  <fix>3d</fix>
</trkpt>
<trkpt lat="-27.274439" lon="151.290064">
  <ele>343.1</ele>
  <time>2026-09-01T19:50:12Z</time>
  <course>270.0</course>
  <speed>0.0</speed>
  <fix>3d</fix>
</trkpt>
<trkpt lat="-27.274439" lon="151.290064">
  <ele>343.13</ele>
  <time>2026-09-01T19:50:12Z</time>
  <course>7.56</course>
  <speed>0.0</speed>
  <fix>3d</fix>
</trkpt>
<trkpt lat="-27.274439" lon="151.290064">
  <ele>343.1</ele>
  <time>2026-09-01T19:50:12Z</time>
  <course>270.0</course>
  <speed>0.0</speed>
  <fix>3d</fix>
</trkpt>
<trkpt lat="-27.274439" lon="151.290064">
  <ele>343.04</ele>
  <time>2026-09-01T19:50:12Z</time>
  <course>7.87</course>
  <speed>0.0</speed>
  <fix>3d</fix>
</trkpt>
<trkpt lat="-27.274439" lon="151.290064">
  <ele>343.1</ele>
  <time>2026-09-01T19:50:12Z</time>
  <course>270.0</course>
  <speed>0.0</speed>
  <fix>3d</fix>
</trkpt>
<trkpt lat="-27.274439" lon="151.290064">
  <ele>342.88</ele>
  <time>2026-09-01T19:50:12Z</time>
  <course>8.14</course>
  <speed>0.0</speed>
  <fix>3d</fix>
</trkpt>
<trkpt lat="-27.274439" lon="151.290064">
  <ele>343.1</ele>
  <time>2026-09-01T19:50:12Z</time>
  <course>270.0</course>
  <speed>0.0</speed>
  <fix>3d</fix>
</trkpt>
<trkpt lat="-27.274439" lon="151.290064">
  <ele>343.02</ele>
  <time>2026-09-01T19:50:12Z</time>
  <course>8.39</course>
  <speed>0.0</speed>
  <fix>3d</fix>
</trkpt>
<trkpt lat="-27.274439" lon="151.290064">
  <ele>343.1</ele>
  <time>2026-09-01T19:50:12Z</time>
  <course>270.0</course>
  <speed>0.0</speed>
  <fix>3d</fix>
</trkpt>
<trkpt lat="-27.274439" lon="151.290064">
  <ele>343.23</ele>
  <time>2026-09-01T19:50:12Z</time>
  <course>8.63</course>
  <speed>0.0</speed>
  <fix>3d</fix>
</trkpt>
<trkpt lat="-27.274439" lon="151.290064">
  <ele>343.1</ele>
  <time>2026-09-01T19:50:12Z</time>
  <course>270.0</course>
  <speed>0.0</speed>
  <fix>3d</fix>
</trkpt>
<trkpt lat="-27.274439" lon="151.290064">
  <ele>343.17</ele>
  <time>2026-09-01T19:50:12Z</time>
  <course>8.83</course>
  <speed>0.0</speed>
  <fix>3d</fix>
</trkpt>
<trkpt lat="-27.274439" lon="151.290064">
  <ele>343.1</ele>
  <time>2026-09-01T19:50:12Z</time>
  <course>270.0</course>
  <speed>0.0</speed>
  <fix>3d</fix>
</trkpt>
<trkpt lat="-27.274439" lon="151.290064">
  <ele>343.04</ele>
  <time>2026-09-01T19:50:12Z</time>
  <course>9.01</course>
  <speed>0.0</speed>
  <fix>3d</fix>
</trkpt>
<trkpt lat="-27.274439" lon="151.290064">
  <ele>343.1</ele>
  <time>2026-09-01T19:50:12Z</time>
  <course>270.0</course>
  <speed>0.0</speed>
  <fix>3d</fix>
</trkpt>
<trkpt lat="-27.274439" lon="151.290064">
  <ele>342.89</ele>
  <time>2026-09-01T19:50:12Z</time>
  <course>9.18</course>
  <speed>0.0</speed>
  <fix>3d</fix>
</trkpt>
<trkpt lat="-27.274439" lon="151.290064">
  <ele>343.1</ele>
  <time>2026-09-01T19:50:12Z</time>
  <course>270.0</course>
  <speed>0.0</speed>
  <fix>3d</fix>
</trkpt>
<trkpt lat="-27.274439" lon="151.290064">
  <ele>343.08</ele>
  <time>2026-09-01T19:50:12Z</time>
  <course>9.33</course>
  <speed>0.0</speed>
  <fix>3d</fix>
</trkpt>
<trkpt lat="-27.274439" lon="151.290064">
  <ele>343.1</ele>
  <time>2026-09-01T19:50:12Z</time>
  <course>270.0</course>
  <speed>0.0</speed>
  <fix>3d</fix>
</trkpt>
<trkpt lat="-27.274439" lon="151.290064">
  <ele>343.19</ele>
  <time>2026-09-01T19:50:12Z</time>
  <course>9.47</course>
  <speed>0.0</speed>
  <fix>3d</fix>
</trkpt>
<trkpt lat="-27.274439" lon="151.290064">
  <ele>343.1</ele>
  <time>2026-09-01T19:50:12Z</time>
  <course>270.0</course>
  <speed>0.0</speed>
  <fix>3d</fix>
</trkpt>
<trkpt lat="-27.274439" lon="151.290064">
  <ele>342.88</ele>
  <time>2026-09-01T19:50:12Z</time>
  <course>9.59</course>
  <speed>0.0</speed>
  <fix>3d</fix>
</trkpt>
<trkpt lat="-27.274439" lon="151.290064">
  <ele>343.1</ele>
  <time>2026-09-01T19:50:12Z</time>
  <course>270.0</course>
  <speed>0.0</speed>
  <fix>3d</fix>
</trkpt>
<trkpt lat="-27.274439" lon="151.290064">
  <ele>343.17</ele>
  <time>2026-09-01T19:50:12Z</time>
  <course>9.7</course>
  <speed>0.0</speed>
  <fix>3d</fix>
</trkpt>
<trkpt lat="-27.274439" lon="151.290064">
  <ele>343.1</ele>
  <time>2026-09-01T19:50:12Z</time>
  <course>270.0</course>
  <speed>0.0</speed>
  <fix>3d</fix>
</trkpt>
<trkpt lat="-27.274439" lon="151.290064">
  <ele>342.89</ele>
  <time>2026-09-01T19:50:12Z</time>
  <course>9.8</course>
  <speed>0.0</speed>
  <fix>3d</fix>
</trkpt>
<trkpt lat="-27.274439" lon="151.290064">
  <ele>343.1</ele>
  <time>2026-09-01T19:50:12Z</time>
  <course>270.0</course>
  <speed>0.0</speed>
  <fix>3d</fix>
</trkpt>
<trkpt lat="-27.274439" lon="151.290064">
  <ele>342.99</ele>
  <time>2026-09-01T19:50:12Z</time>
  <course>9.9</course>
  <speed>0.0</speed>
  <fix>3d</fix>
</trkpt>
<trkpt lat="-27.274439" lon="151.290064">
  <ele>343.1</ele>
  <time>2026-09-01T19:50:12Z</time>
  <course>270.0</course>
  <speed>0.0</speed>
  <fix>3d</fix>
</trkpt>
<trkpt lat="-27.274439" lon="151.290064">
  <ele>342.87</ele>
  <time>2026-09-01T19:50:12Z</time>
  <course>9.98</course>
  <speed>0.0</speed>
  <fix>3d</fix>
</trkpt>
<trkpt lat="-27.274439" lon="151.290064">
  <ele>343.1</ele>
  <time>2026-09-01T19:50:12Z</time>
  <course>270.0</course>
  <speed>0.0</speed>
  <fix>3d</fix>
</trkpt>
<trkpt lat="-27.274439" lon="151.290064">
  <ele>343.09</ele>
  <time>2026-09-01T19:50:12Z</time>
  <course>10.06</course>
  <speed>0.0</speed>
  <fix>3d</fix>
</trkpt>
<trkpt lat="-27.274439" lon="151.290064">
  <ele>343.1</ele>
  <time>2026-09-01T19:50:12Z</time>
  <course>270.0</course>
  <speed>0.0</speed>
  <fix>3d</fix>
</trkpt>
<trkpt lat="-27.274439" lon="151.290064">
  <ele>343.18</ele>
  <time>2026-09-01T19:50:12Z</time>
  <course>10.13</course>
  <speed>0.0</speed>
  <fix>3d</fix>
</trkpt>
<trkpt lat="-27.274439" lon="151.290064">
  <ele>343.1</ele>
  <time>2026-09-01T19:50:12Z</time>
  <course>270.0</course>
  <speed>0.0</speed>
  <fix>3d</fix>
</trkpt>
<trkpt lat="-27.274439" lon="151.290064">
  <ele>343.05</ele>
  <time>2026-09-01T19:50:12Z</time>
  <course>10.2</course>
  <speed>0.0</speed>
  <fix>3d</fix>
</trkpt>
<trkpt lat="-27.274439" lon="151.290064">
  <ele>343.1</ele>
  <time>2026-09-01T19:50:12Z</time>
  <course>270.0</course>
  <speed>0.0</speed>
  <fix>3d</fix>
</trkpt>
<trkpt lat="-27.274439" lon="151.290064">
  <ele>342.96</ele>
  <time>2026-09-01T19:50:12Z</time>
  <course>10.25</course>
  <speed>0.0</speed>
  <fix>3d</fix>
</trkpt>
<trkpt lat="-27.274439" lon="151.290064">
  <ele>343.1</ele>
  <time>2026-09-01T19:50:12Z</time>
  <course>270.0</course>
  <speed>0.0</speed>
  <fix>3d</fix>
</trkpt>
<trkpt lat="-27.274439" lon="151.290064">
  <ele>343.1</ele>
  <time>2026-09-01T19:50:12Z</time>
  <course>10.31</course>
  <speed>0.0</speed>
  <fix>3d</fix>
</trkpt>
<trkpt lat="-27.274439" lon="151.290064">
  <ele>343.1</ele>
  <time>2026-09-01T19:50:12Z</time>
  <course>270.0</course>
  <speed>0.0</speed>
  <fix>3d</fix>
</trkpt>
<trkpt lat="-27.274439" lon="151.290064">
  <ele>343.22</ele>
  <time>2026-09-01T19:50:12Z</time>
  <course>10.35</course>
  <speed>0.0</speed>
  <fix>3d</fix>
</trkpt>
<trkpt lat="-27.274439" lon="151.290064">
  <ele>343.1</ele>
  <time>2026-09-01T19:50:12Z</time>
  <course>270.0</course>
  <speed>0.0</speed>
  <fix>3d</fix>
</trkpt>
<trkpt lat="-27.274439" lon="151.290064">
  <ele>343.17</ele>
  <time>2026-09-01T19:50:12Z</time>
  <course>10.4</course>
  <speed>0.0</speed>
  <fix>3d</fix>
</trkpt>
<trkpt lat="-27.274439" lon="151.290064">
  <ele>343.1</ele>
  <time>2026-09-01T19:50:12Z</time>
  <course>270.0</course>
  <speed>0.0</speed>
  <fix>3d</fix>
</trkpt>
<trkpt lat="-27.274439" lon="151.290064">
  <ele>343.08</ele>
  <time>2026-09-01T19:50:12Z</time>
  <course>10.44</course>
  <speed>0.0</speed>
  <fix>3d</fix>
</trkpt>
<trkpt lat="-27.274439" lon="151.290064">
  <ele>343.1</ele>
  <time>2026-09-01T19:50:12Z</time>
  <course>270.0</course>
  <speed>0.0</speed>
  <fix>3d</fix>
</trkpt>
<trkpt lat="-27.274439" lon="151.290064">
  <ele>343.04</ele>
  <time>2026-09-01T19:50:12Z</time>
  <course>10.47</course>
  <speed>0.0</speed>
  <fix>3d</fix>
</trkpt>
<trkpt lat="-27.274439" lon="151.290064">
  <ele>343.1</ele>
  <time>2026-09-01T19:50:12Z</time>
  <course>270.0</course>
  <speed>0.0</speed>
  <fix>3d</fix>
</trkpt>
<trkpt lat="-27.274439" lon="151.290064">
  <ele>343.18</ele>
  <time>2026-09-01T19:50:12Z</time>
  <course>10.5</course>
  <speed>0.0</speed>
  <fix>3d</fix>
</trkpt>
<trkpt lat="-27.274439" lon="151.290064">
  <ele>343.1</ele>
  <time>2026-09-01T19:50:12Z</time>
  <course>270.0</course>
  <speed>0.0</speed>
  <fix>3d</fix>
</trkpt>
<trkpt lat="-27.274439" lon="151.290064">
  <ele>343.12</ele>
  <time>2026-09-01T19:50:12Z</time>
  <course>10.53</course>
  <speed>0.0</speed>
  <fix>3d</fix>
</trkpt>
<trkpt lat="-27.274439" lon="151.290064">
  <ele>343.1</ele>
  <time>2026-09-01T19:50:12Z</time>
  <course>270.0</course>
  <speed>0.0</speed>
  <fix>3d</fix>
</trkpt>
<trkpt lat="-27.274439" lon="151.290064">
  <ele>343.04</ele>
  <time>2026-09-01T19:50:13Z</time>
  <course>10.56</course>
  <speed>0.0</speed>
  <fix>3d</fix>
</trkpt>
<trkpt lat="-27.274439" lon="151.290064">
  <ele>343.1</ele>
  <time>2026-09-01T19:50:13Z</time>
  <course>270.0</course>
  <speed>0.0</speed>
  <fix>3d</fix>
</trkpt>
<trkpt lat="-27.274439" lon="151.290064">
  <ele>343.07</ele>
  <time>2026-09-01T19:50:13Z</time>
  <course>10.58</course>
  <speed>0.0</speed>
  <fix>3d</fix>
</trkpt>
<trkpt lat="-27.274439" lon="151.290064">
  <ele>343.1</ele>
  <time>2026-09-01T19:50:13Z</time>
  <course>270.0</course>
  <speed>0.0</speed>
  <fix>3d</fix>
</trkpt>
<trkpt lat="-27.274439" lon="151.290064">
  <ele>343.04</ele>
  <time>2026-09-01T19:50:13Z</time>
  <course>10.6</course>
  <speed>0.0</speed>
  <fix>3d</fix>
</trkpt>
<trkpt lat="-27.274439" lon="151.290064">
  <ele>343.1</ele>
  <time>2026-09-01T19:50:13Z</time>
  <course>270.0</course>
  <speed>0.0</speed>
  <fix>3d</fix>
</trkpt>
<trkpt lat="-27.274439" lon="151.290064">
  <ele>343.01</ele>
  <time>2026-09-01T19:50:13Z</time>
  <course>10.62</course>
  <speed>0.0</speed>
  <fix>3d</fix>
</trkpt>
<trkpt lat="-27.274439" lon="151.290064">
  <ele>343.1</ele>
  <time>2026-09-01T19:50:13Z</time>
  <course>270.0</course>
  <speed>0.0</speed>
  <fix>3d</fix>
</trkpt>
<trkpt lat="-27.274439" lon="151.290064">
  <ele>343.2</ele>
  <time>2026-09-01T19:50:13Z</time>
  <course>10.64</course>
  <speed>0.0</speed>
  <fix>3d</fix>
</trkpt>
<trkpt lat="-27.274439" lon="151.290064">
  <ele>343.1</ele>
  <time>2026-09-01T19:50:13Z</time>
  <course>270.0</course>
  <speed>0.0</speed>
  <fix>3d</fix>
</trkpt>
<trkpt lat="-27.274439" lon="151.290064">
  <ele>343.24</ele>
  <time>2026-09-01T19:50:13Z</time>
  <course>10.65</course>
  <speed>0.0</speed>
  <fix>3d</fix>
</trkpt>
<trkpt lat="-27.274439" lon="151.290064">
  <ele>343.1</ele>
  <time>2026-09-01T19:50:13Z</time>
  <course>270.0</course>
  <speed>0.0</speed>
  <fix>3d</fix>
</trkpt>
<trkpt lat="-27.274439" lon="151.290064">
  <ele>342.88</ele>
  <time>2026-09-01T19:50:13Z</time>
  <course>10.67</course>
  <speed>0.0</speed>
  <fix>3d</fix>
</trkpt>
<trkpt lat="-27.274439" lon="151.290064">
  <ele>343.1</ele>
  <time>2026-09-01T19:50:13Z</time>
  <course>270.0</course>
  <speed>0.0</speed>
  <fix>3d</fix>
</trkpt>
<trkpt lat="-27.274439" lon="151.290064">
  <ele>343.21</ele>
  <time>2026-09-01T19:50:13Z</time>
  <course>10.68</course>
  <speed>0.0</speed>
  <fix>3d</fix>
</trkpt>
<trkpt lat="-27.274439" lon="151.290064">
  <ele>343.1</ele>
  <time>2026-09-01T19:50:13Z</time>
  <course>270.0</course>
  <speed>0.0</speed>
  <fix>3d</fix>
</trkpt>
<trkpt lat="-27.274439" lon="151.290064">
  <ele>343.02</ele>
  <time>2026-09-01T19:50:13Z</time>
  <course>10.69</course>
  <speed>0.0</speed>
  <fix>3d</fix>
</trkpt>
<trkpt lat="-27.274439" lon="151.290064">
  <ele>343.1</ele>
  <time>2026-09-01T19:50:13Z</time>
  <course>270.0</course>
  <speed>0.0</speed>
  <fix>3d</fix>
</trkpt>
<trkpt lat="-27.274439" lon="151.290064">
  <ele>342.93</ele>
  <time>2026-09-01T19:50:13Z</time>
  <course>10.7</course>
  <speed>0.0</speed>
  <fix>3d</fix>
</trkpt>
<trkpt lat="-27.274439" lon="151.290064">
  <ele>343.1</ele>
  <time>2026-09-01T19:50:13Z</time>
  <course>270.0</course>
  <speed>0.0</speed>
  <fix>3d</fix>
</trkpt>
<trkpt lat="-27.274439" lon="151.290064">
  <ele>343.07</ele>
  <time>2026-09-01T19:50:13Z</time>
  <course>10.71</course>
  <speed>0.0</speed>
  <fix>3d</fix>
</trkpt>
<trkpt lat="-27.274439" lon="151.290064">
  <ele>343.1</ele>
  <time>2026-09-01T19:50:13Z</time>
  <course>270.0</course>
  <speed>0.0</speed>
  <fix>3d</fix>
</trkpt>
<trkpt lat="-27.274439" lon="151.290064">
  <ele>342.94</ele>
  <time>2026-09-01T19:50:13Z</time>
  <course>10.72</course>
  <speed>0.0</speed>
  <fix>3d</fix>
</trkpt>
<trkpt lat="-27.274439" lon="151.290064">
  <ele>343.1</ele>
  <time>2026-09-01T19:50:13Z</time>
  <course>270.0</course>
  <speed>0.0</speed>
  <fix>3d</fix>
</trkpt>
<trkpt lat="-27.274439" lon="151.290064">
  <ele>343.11</ele>
  <time>2026-09-01T19:50:13Z</time>
  <course>10.73</course>
  <speed>0.0</speed>
  <fix>3d</fix>
</trkpt>
<trkpt lat="-27.274439" lon="151.290064">
  <ele>343.1</ele>
  <time>2026-09-01T19:50:13Z</time>
  <course>270.0</course>
  <speed>0.0</speed>
  <fix>3d</fix>
</trkpt>
<trkpt lat="-27.274439" lon="151.290064">
  <ele>343.24</ele>
  <time>2026-09-01T19:50:13Z</time>
  <course>10.73</course>
  <speed>0.0</speed>
  <fix>3d</fix>
</trkpt>
<trkpt lat="-27.274439" lon="151.290064">
  <ele>343.1</ele>
  <time>2026-09-01T19:50:13Z</time>
  <course>270.0</course>
  <speed>0.0</speed>
  <fix>3d</fix>
</trkpt>
<trkpt lat="-27.274439" lon="151.290064">
  <ele>343.18</ele>
  <time>2026-09-01T19:50:13Z</time>
  <course>10.74</course>
  <speed>0.0</speed>
  <fix>3d</fix>
</trkpt>
<trkpt lat="-27.274439" lon="151.290064">
  <ele>343.1</ele>
  <time>2026-09-01T19:50:13Z</time>
  <course>270.0</course>
  <speed>0.0</speed>
  <fix>3d</fix>
</trkpt>
<trkpt lat="-27.274439" lon="151.290064">
  <ele>342.89</ele>
  <time>2026-09-01T19:50:13Z</time>
  <course>10.75</course>
  <speed>0.0</speed>
  <fix>3d</fix>
</trkpt>
<trkpt lat="-27.274439" lon="151.290064">
  <ele>343.1</ele>
  <time>2026-09-01T19:50:13Z</time>
  <course>270.0</course>
  <speed>0.0</speed>
  <fix>3d</fix>
</trkpt>
<trkpt lat="-27.274439" lon="151.290064">
  <ele>343.23</ele>
  <time>2026-09-01T19:50:13Z</time>
  <course>10.75</course>
  <speed>0.0</speed>
  <fix>3d</fix>
</trkpt>
<trkpt lat="-27.274439" lon="151.290064">
  <ele>343.1</ele>
  <time>2026-09-01T19:50:13Z</time>
  <course>270.0</course>
  <speed>0.0</speed>
  <fix>3d</fix>
</trkpt>
<trkpt lat="-27.274439" lon="151.290064">
  <ele>343.23</ele>
  <time>2026-09-01T19:50:13Z</time>
  <course>10.76</course>
  <speed>0.0</speed>
  <fix>3d</fix>
</trkpt>
<trkpt lat="-27.274439" lon="151.290064">
  <ele>343.1</ele>
  <time>2026-09-01T19:50:13Z</time>
  <course>270.0</course>
  <speed>0.0</speed>
  <fix>3d</fix>
</trkpt>
<trkpt lat="-27.274439" lon="151.290064">
  <ele>342.99</ele>
  <time>2026-09-01T19:50:13Z</time>
  <course>10.76</course>
  <speed>0.0</speed>
  <fix>3d</fix>
</trkpt>
<trkpt lat="-27.274439" lon="151.290064">
  <ele>343.1</ele>
  <time>2026-09-01T19:50:13Z</time>
  <course>270.0</course>
  <speed>0.0</speed>
  <fix>3d</fix>
</trkpt>
<trkpt lat="-27.274439" lon="151.290064">
  <ele>343.13</ele>
  <time>2026-09-01T19:50:13Z</time>
  <course>10.76</course>
  <speed>0.0</speed>
  <fix>3d</fix>
</trkpt>
<trkpt lat="-27.274439" lon="151.290064">
  <ele>343.1</ele>
  <time>2026-09-01T19:50:13Z</time>
  <course>270.0</course>
  <speed>0.0</speed>
  <fix>3d</fix>
</trkpt>
<trkpt lat="-27.274439" lon="151.290064">
  <ele>343.07</ele>
  <time>2026-09-01T19:50:13Z</time>
  <course>10.77</course>
  <speed>0.0</speed>
  <fix>3d</fix>
</trkpt>
<trkpt lat="-27.274439" lon="151.290064">
  <ele>343.1</ele>
  <time>2026-09-01T19:50:13Z</time>
  <course>270.0</course>
  <speed>0.0</speed>
  <fix>3d</fix>
</trkpt>
<trkpt lat="-27.274439" lon="151.290064">
  <ele>343.19</ele>
  <time>2026-09-01T19:50:13Z</time>
  <course>10.77</course>
  <speed>0.0</speed>
  <fix>3d</fix>
</trkpt>
<trkpt lat="-27.274439" lon="151.290064">
  <ele>343.1</ele>
  <time>2026-09-01T19:50:13Z</time>
  <course>270.0</course>
  <speed>0.0</speed>
  <fix>3d</fix>
</trkpt>
<trkpt lat="-27.274439" lon="151.290064">
  <ele>342.93</ele>
  <time>2026-09-01T19:50:13Z</time>
  <course>10.77</course>
  <speed>0.0</speed>
  <fix>3d</fix>
</trkpt>
<trkpt lat="-27.274439" lon="151.290064">
  <ele>343.1</ele>
  <time>2026-09-01T19:50:13Z</time>
  <course>270.0</course>
  <speed>0.0</speed>
  <fix>3d</fix>
</trkpt>
<trkpt lat="-27.274439" lon="151.290064">
  <ele>343.19</ele>
  <time>2026-09-01T19:50:13Z</time>
  <course>10.78</course>
  <speed>0.0</speed>
  <fix>3d</fix>
</trkpt>
<trkpt lat="-27.274439" lon="151.290064">
  <ele>343.1</ele>
  <time>2026-09-01T19:50:13Z</time>
  <course>270.0</course>
  <speed>0.0</speed>
  <fix>3d</fix>
</trkpt>
<trkpt lat="-27.274439" lon="151.290064">
  <ele>343.1</ele>
  <time>2026-09-01T19:50:13Z</time>
  <course>10.78</course>
  <speed>0.0</speed>
  <fix>3d</fix>
</trkpt>
<trkpt lat="-27.274439" lon="151.290064">
  <ele>343.1</ele>
  <time>2026-09-01T19:50:13Z</time>
  <course>270.0</course>
  <speed>0.0</speed>
  <fix>3d</fix>
</trkpt>
<trkpt lat="-27.274439" lon="151.290064">
  <ele>343.01</ele>
  <time>2026-09-01T19:50:13Z</time>
  <course>10.78</course>
  <speed>0.0</speed>
  <fix>3d</fix>
</trkpt>
<trkpt lat="-27.274439" lon="151.290064">
  <ele>343.1</ele>
  <time>2026-09-01T19:50:13Z</time>
  <course>270.0</course>
  <speed>0.0</speed>
  <fix>3d</fix>
</trkpt>
<trkpt lat="-27.274439" lon="151.290064">
  <ele>343.11</ele>
  <time>2026-09-01T19:50:13Z</time>
  <course>10.78</course>
  <speed>0.0</speed>
  <fix>3d</fix>
</trkpt>
<trkpt lat="-27.274439" lon="151.290064">
  <ele>343.1</ele>
  <time>2026-09-01T19:50:13Z</time>
  <course>270.0</course>
  <speed>0.0</speed>
  <fix>3d</fix>
</trkpt>
<trkpt lat="-27.274439" lon="151.290064">
  <ele>342.96</ele>
  <time>2026-09-01T19:50:13Z</time>
  <course>10.78</course>
  <speed>0.0</speed>
  <fix>3d</fix>
</trkpt>
<trkpt lat="-27.274439" lon="151.290064">
  <ele>343.1</ele>
  <time>2026-09-01T19:50:13Z</time>
  <course>270.0</course>
  <speed>0.0</speed>
  <fix>3d</fix>
</trkpt>
<trkpt lat="-27.274439" lon="151.290064">
  <ele>343.19</ele>
  <time>2026-09-01T19:50:13Z</time>
  <course>10.79</course>
  <speed>0.0</speed>
  <fix>3d</fix>
</trkpt>
<trkpt lat="-27.274439" lon="151.290064">
  <ele>343.1</ele>
  <time>2026-09-01T19:50:13Z</time>
  <course>270.0</course>
  <speed>0.0</speed>
  <fix>3d</fix>
</trkpt>
<trkpt lat="-27.274439" lon="151.290064">
  <ele>343.0</ele>
  <time>2026-09-01T19:50:13Z</time>
  <course>10.79</course>
  <speed>0.0</speed>
  <fix>3d</fix>
</trkpt>
<trkpt lat="-27.274439" lon="151.290064">
  <ele>343.1</ele>
  <time>2026-09-01T19:50:13Z</time>
  <course>270.0</course>
  <speed>0.0</speed>
  <fix>3d</fix>
</trkpt>
<trkpt lat="-27.274439" lon="151.290064">
  <ele>343.2</ele>
  <time>2026-09-01T19:50:13Z</time>
  <course>10.79</course>
  <speed>0.0</speed>
  <fix>3d</fix>
</trkpt>
<trkpt lat="-27.274439" lon="151.290064">
  <ele>343.1</ele>
  <time>2026-09-01T19:50:13Z</time>
  <course>270.0</course>
  <speed>0.0</speed>
  <fix>3d</fix>
</trkpt>
<trkpt lat="-27.274439" lon="151.290064">
  <ele>343.2</ele>
  <time>2026-09-01T19:50:13Z</time>
  <course>10.79</course>
  <speed>0.0</speed>
  <fix>3d</fix>
</trkpt>
<trkpt lat="-27.274439" lon="151.290064">
  <ele>343.1</ele>
  <time>2026-09-01T19:50:13Z</time>
  <course>270.0</course>
  <speed>0.0</speed>
  <fix>3d</fix>
</trkpt>
<trkpt lat="-27.274439" lon="151.290064">
  <ele>343.13</ele>
  <time>2026-09-01T19:50:13Z</time>
  <course>10.79</course>
  <speed>0.0</speed>
  <fix>3d</fix>
</trkpt>
<trkpt lat="-27.274439" lon="151.290064">
  <ele>343.1</ele>
  <time>2026-09-01T19:50:13Z</time>
  <course>270.0</course>
  <speed>0.0</speed>
  <fix>3d</fix>
</trkpt>
<trkpt lat="-27.274439" lon="151.290064">
  <ele>343.1</ele>
  <time>2026-09-01T19:50:13Z</time>
  <course>10.79</course>
  <speed>0.0</speed>
  <fix>3d</fix>
</trkpt>
<trkpt lat="-27.274439" lon="151.290064">
  <ele>343.1</ele>
  <time>2026-09-01T19:50:13Z</time>
  <course>270.0</course>
  <speed>0.0</speed>
  <fix>3d</fix>
</trkpt>
<trkpt lat="-27.274439" lon="151.290064">
  <ele>343.12</ele>
  <time>2026-09-01T19:50:13Z</time>
  <course>10.79</course>
  <speed>0.0</speed>
  <fix>3d</fix>
</trkpt>
<trkpt lat="-27.274439" lon="151.290064">
  <ele>343.1</ele>
  <time>2026-09-01T19:50:13Z</time>
  <course>270.0</course>
  <speed>0.0</speed>
  <fix>3d</fix>
</trkpt>
<trkpt lat="-27.274439" lon="151.290064">
  <ele>342.94</ele>
  <time>2026-09-01T19:50:13Z</time>
  <course>10.79</course>
  <speed>0.0</speed>
  <fix>3d</fix>
</trkpt>
<trkpt lat="-27.274439" lon="151.290064">
  <ele>343.1</ele>
  <time>2026-09-01T19:50:13Z</time>
  <course>270.0</course>
  <speed>0.0</speed>
  <fix>3d</fix>
</trkpt>
<trkpt lat="-27.274439" lon="151.290064">
  <ele>343.25</ele>
  <time>2026-09-01T19:50:13Z</time>
  <course>10.79</course>
  <speed>0.0</speed>
  <fix>3d</fix>
</trkpt>
<trkpt lat="-27.274439" lon="151.290064">
  <ele>343.1</ele>
  <time>2026-09-01T19:50:13Z</time>
  <course>270.0</course>
  <speed>0.0</speed>
  <fix>3d</fix>
</trkpt>
<trkpt lat="-27.274439" lon="151.290064">
  <ele>342.93</ele>
  <time>2026-09-01T19:50:13Z</time>
  <course>10.79</course>
  <speed>0.0</speed>
  <fix>3d</fix>
</trkpt>
<trkpt lat="-27.274439" lon="151.290064">
  <ele>343.1</ele>
  <time>2026-09-01T19:50:13Z</time>
  <course>270.0</course>
  <speed>0.0</speed>
  <fix>3d</fix>
</trkpt>
<trkpt lat="-27.274439" lon="151.290064">
  <ele>343.08</ele>
  <time>2026-09-01T19:50:13Z</time>
  <course>10.79</course>
  <speed>0.0</speed>
  <fix>3d</fix>
</trkpt>
<trkpt lat="-27.274439" lon="151.290064">
  <ele>343.1</ele>
  <time>2026-09-01T19:50:13Z</time>
  <course>270.0</course>
  <speed>0.0</speed>
  <fix>3d</fix>
</trkpt>
<trkpt lat="-27.274439" lon="151.290064">
  <ele>343.23</ele>
  <time>2026-09-01T19:50:13Z</time>
  <course>10.8</course>
  <speed>0.0</speed>
  <fix>3d</fix>
</trkpt>
<trkpt lat="-27.274439" lon="151.290064">
  <ele>343.1</ele>
  <time>2026-09-01T19:50:13Z</time>
  <course>270.0</course>
  <speed>0.0</speed>
  <fix>3d</fix>
</trkpt>
<trkpt lat="-27.274439" lon="151.290064">
  <ele>343.01</ele>
  <time>2026-09-01T19:50:13Z</time>
  <course>10.8</course>
  <speed>0.0</speed>
  <fix>3d</fix>
</trkpt>
<trkpt lat="-27.274439" lon="151.290064">
  <ele>343.1</ele>
  <time>2026-09-01T19:50:13Z</time>
  <course>270.0</course>
  <speed>0.0</speed>
  <fix>3d</fix>
</trkpt>
<trkpt lat="-27.274439" lon="151.290064">
  <ele>343.1</ele>
  <time>2026-09-01T19:50:13Z</time>
  <course>10.8</course>
  <speed>0.0</speed>
  <fix>3d</fix>
</trkpt>
<trkpt lat="-27.274439" lon="151.290064">
  <ele>343.1</ele>
  <time>2026-09-01T19:50:13Z</time>
  <course>270.0</course>
  <speed>0.0</speed>
  <fix>3d</fix>
</trkpt>
<trkpt lat="-27.274439" lon="151.290064">
  <ele>342.99</ele>
  <time>2026-09-01T19:50:13Z</time>
  <course>10.8</course>
  <speed>0.0</speed>
  <fix>3d</fix>
</trkpt>
<trkpt lat="-27.274439" lon="151.290064">
  <ele>343.1</ele>
  <time>2026-09-01T19:50:13Z</time>
  <course>270.0</course>
  <speed>0.0</speed>
  <fix>3d</fix>
</trkpt>
<trkpt lat="-27.274439" lon="151.290064">
  <ele>342.87</ele>
  <time>2026-09-01T19:50:13Z</time>
  <course>10.8</course>
  <speed>0.0</speed>
  <fix>3d</fix>
</trkpt>
<trkpt lat="-27.274439" lon="151.290064">
  <ele>343.1</ele>
  <time>2026-09-01T19:50:13Z</time>
  <course>270.0</course>
  <speed>0.0</speed>
  <fix>3d</fix>
</trkpt>
<trkpt lat="-27.274439" lon="151.290064">
  <ele>343.1</ele>
  <time>2026-09-01T19:50:13Z</time>
  <course>10.8</course>
  <speed>0.0</speed>
  <fix>3d</fix>
</trkpt>
<trkpt lat="-27.274439" lon="151.290064">
  <ele>343.1</ele>
  <time>2026-09-01T19:50:13Z</time>
  <course>270.0</course>
  <speed>0.0</speed>
  <fix>3d</fix>
</trkpt>
<trkpt lat="-27.274439" lon="151.290064">
  <ele>342.99</ele>
  <time>2026-09-01T19:50:13Z</time>
  <course>10.8</course>
  <speed>0.0</speed>
  <fix>3d</fix>
</trkpt>
<trkpt lat="-27.274439" lon="151.290064">
  <ele>343.1</ele>
  <time>2026-09-01T19:50:13Z</time>
  <course>270.0</course>
  <speed>0.0</speed>
  <fix>3d</fix>
</trkpt>
<trkpt lat="-27.274439" lon="151.290064">
  <ele>342.91</ele>
  <time>2026-09-01T19:50:13Z</time>
  <course>10.8</course>
  <speed>0.0</speed>
  <fix>3d</fix>
</trkpt>
<trkpt lat="-27.274439" lon="151.290064">
  <ele>343.1</ele>
  <time>2026-09-01T19:50:13Z</time>
  <course>270.0</course>
  <speed>0.0</speed>
  <fix>3d</fix>
</trkpt>
<trkpt lat="-27.274439" lon="151.290064">
  <ele>342.9</ele>
  <time>2026-09-01T19:50:13Z</time>
  <course>10.8</course>
  <speed>0.0</speed>
  <fix>3d</fix>
</trkpt>
<trkpt lat="-27.274439" lon="151.290064">
  <ele>343.1</ele>
  <time>2026-09-01T19:50:13Z</time>
  <course>270.0</course>
  <speed>0.0</speed>
  <fix>3d</fix>
</trkpt>
<trkpt lat="-27.274439" lon="151.290064">
  <ele>342.87</ele>
  <time>2026-09-01T19:50:13Z</time>
  <course>10.8</course>
  <speed>0.0</speed>
  <fix>3d</fix>
</trkpt>
<trkpt lat="-27.274439" lon="151.290064">
  <ele>343.1</ele>
  <time>2026-09-01T19:50:13Z</time>
  <course>270.0</course>
  <speed>0.0</speed>
  <fix>3d</fix>
</trkpt>
<trkpt lat="-27.274439" lon="151.290064">
  <ele>343.12</ele>
  <time>2026-09-01T19:50:13Z</time>
  <course>10.8</course>
  <speed>0.0</speed>
  <fix>3d</fix>
</trkpt>
<trkpt lat="-27.274439" lon="151.290064">
  <ele>343.1</ele>
  <time>2026-09-01T19:50:13Z</time>
  <course>270.0</course>
  <speed>0.0</speed>
  <fix>3d</fix>
</trkpt>
<trkpt lat="-27.274439" lon="151.290064">
  <ele>342.99</ele>
  <time>2026-09-01T19:50:13Z</time>
  <course>10.8</course>
  <speed>0.0</speed>
  <fix>3d</fix>
</trkpt>
<trkpt lat="-27.274439" lon="151.290064">
  <ele>343.1</ele>
  <time>2026-09-01T19:50:13Z</time>
  <course>270.0</course>
  <speed>0.0</speed>
  <fix>3d</fix>
</trkpt>
<trkpt lat="-27.274439" lon="151.290064">
  <ele>343.13</ele>
  <time>2026-09-01T19:50:13Z</time>
  <course>10.8</course>
  <speed>0.0</speed>
  <fix>3d</fix>
</trkpt>
<trkpt lat="-27.274439" lon="151.290064">
  <ele>343.1</ele>
  <time>2026-09-01T19:50:13Z</time>
  <course>270.0</course>
  <speed>0.0</speed>
  <fix>3d</fix>
</trkpt>
<trkpt lat="-27.274439" lon="151.290064">
  <ele>343.0</ele>
  <time>2026-09-01T19:50:13Z</time>
  <course>10.8</course>
  <speed>0.0</speed>
  <fix>3d</fix>
</trkpt>
<trkpt lat="-27.274439" lon="151.290064">
  <ele>343.1</ele>
  <time>2026-09-01T19:50:13Z</time>
  <course>270.0</course>
  <speed>0.0</speed>
  <fix>3d</fix>
</trkpt>
<trkpt lat="-27.274439" lon="151.290064">
  <ele>343.17</ele>
  <time>2026-09-01T19:50:13Z</time>
  <course>10.8</course>
  <speed>0.0</speed>
  <fix>3d</fix>
</trkpt>
<trkpt lat="-27.274439" lon="151.290064">
  <ele>343.1</ele>
  <time>2026-09-01T19:50:13Z</time>
  <course>270.0</course>
  <speed>0.0</speed>
  <fix>3d</fix>
</trkpt>
<trkpt lat="-27.274439" lon="151.290064">
  <ele>343.0</ele>
  <time>2026-09-01T19:50:13Z</time>
  <course>10.8</course>
  <speed>0.0</speed>
  <fix>3d</fix>
</trkpt>
<trkpt lat="-27.274439" lon="151.290064">
  <ele>343.1</ele>
  <time>2026-09-01T19:50:13Z</time>
  <course>270.0</course>
  <speed>0.0</speed>
  <fix>3d</fix>
</trkpt>
<trkpt lat="-27.274439" lon="151.290064">
  <ele>342.99</ele>
  <time>2026-09-01T19:50:13Z</time>
  <course>10.8</course>
  <speed>0.0</speed>
  <fix>3d</fix>
</trkpt>
<trkpt lat="-27.274439" lon="151.290064">
  <ele>343.1</ele>
  <time>2026-09-01T19:50:13Z</time>
  <course>270.0</course>
  <speed>0.0</speed>
  <fix>3d</fix>
</trkpt>
<trkpt lat="-27.274439" lon="151.290064">
  <ele>343.17</ele>
  <time>2026-09-01T19:50:13Z</time>
  <course>10.8</course>
  <speed>0.0</speed>
  <fix>3d</fix>
</trkpt>
<trkpt lat="-27.274439" lon="151.290064">
  <ele>343.1</ele>
  <time>2026-09-01T19:50:13Z</time>
  <course>270.0</course>
  <speed>0.0</speed>
  <fix>3d</fix>
</trkpt>
<trkpt lat="-27.274439" lon="151.290064">
  <ele>343.16</ele>
  <time>2026-09-01T19:50:13Z</time>
  <course>10.8</course>
  <speed>0.0</speed>
  <fix>3d</fix>
</trkpt>
<trkpt lat="-27.274439" lon="151.290064">
  <ele>343.1</ele>
  <time>2026-09-01T19:50:13Z</time>
  <course>270.0</course>
  <speed>0.0</speed>
  <fix>3d</fix>
</trkpt>
<trkpt lat="-27.274439" lon="151.290064">
  <ele>342.87</ele>
  <time>2026-09-01T19:50:13Z</time>
  <course>10.8</course>
  <speed>0.0</speed>
  <fix>3d</fix>
</trkpt>
<trkpt lat="-27.274439" lon="151.290064">
  <ele>343.1</ele>
  <time>2026-09-01T19:50:13Z</time>
  <course>270.0</course>
  <speed>0.0</speed>
  <fix>3d</fix>
</trkpt>
<trkpt lat="-27.274439" lon="151.290064">
  <ele>343.19</ele>
  <time>2026-09-01T19:50:13Z</time>
  <course>10.8</course>
  <speed>0.0</speed>
  <fix>3d</fix>
</trkpt>
<trkpt lat="-27.274439" lon="151.290064">
  <ele>343.1</ele>
  <time>2026-09-01T19:50:13Z</time>
  <course>270.0</course>
  <speed>0.0</speed>
  <fix>3d</fix>
</trkpt>
<trkpt lat="-27.274439" lon="151.290064">
  <ele>343.16</ele>
  <time>2026-09-01T19:50:13Z</time>
  <course>10.8</course>
  <speed>0.0</speed>
  <fix>3d</fix>
</trkpt>
<trkpt lat="-27.274439" lon="151.290064">
  <ele>343.1</ele>
  <time>2026-09-01T19:50:13Z</time>
  <course>270.0</course>
  <speed>0.0</speed>
  <fix>3d</fix>
</trkpt>
<trkpt lat="-27.274439" lon="151.290064">
  <ele>343.21</ele>
  <time>2026-09-01T19:50:13Z</time>
  <course>10.8</course>
  <speed>0.0</speed>
  <fix>3d</fix>
</trkpt>
<trkpt lat="-27.274439" lon="151.290064">
  <ele>343.1</ele>
  <time>2026-09-01T19:50:13Z</time>
  <course>270.0</course>
  <speed>0.0</speed>
  <fix>3d</fix>
</trkpt>
<trkpt lat="-27.274439" lon="151.290064">
  <ele>343.22</ele>
  <time>2026-09-01T19:50:13Z</time>
  <course>10.8</course>
  <speed>0.0</speed>
  <fix>3d</fix>
</trkpt>
<trkpt lat="-27.274439" lon="151.290064">
  <ele>343.1</ele>
  <time>2026-09-01T19:50:13Z</time>
  <course>270.0</course>
  <speed>0.0</speed>
  <fix>3d</fix>
</trkpt>
<trkpt lat="-27.274439" lon="151.290064">
  <ele>343.24</ele>
  <time>2026-09-01T19:50:13Z</time>
  <course>10.8</course>
  <speed>0.0</speed>
  <fix>3d</fix>
</trkpt>
<trkpt lat="-27.274439" lon="151.290064">
  <ele>343.1</ele>
  <time>2026-09-01T19:50:13Z</time>
  <course>270.0</course>
  <speed>0.0</speed>
  <fix>3d</fix>
</trkpt>
<trkpt lat="-27.274439" lon="151.290064">
  <ele>343.0</ele>
  <time>2026-09-01T19:50:13Z</time>
  <course>10.8</course>
  <speed>0.0</speed>
  <fix>3d</fix>
</trkpt>
<trkpt lat="-27.274439" lon="151.290064">
  <ele>343.1</ele>
  <time>2026-09-01T19:50:13Z</time>
  <course>270.0</course>
  <speed>0.0</speed>
  <fix>3d</fix>
</trkpt>
<trkpt lat="-27.274439" lon="151.290064">
  <ele>343.1</ele>
  <time>2026-09-01T19:50:13Z</time>
  <course>10.8</course>
  <speed>0.0</speed>
  <fix>3d</fix>
</trkpt>
<trkpt lat="-27.274439" lon="151.290064">
  <ele>343.1</ele>
  <time>2026-09-01T19:50:13Z</time>
  <course>270.0</course>
  <speed>0.0</speed>
  <fix>3d</fix>
</trkpt>
<trkpt lat="-27.274439" lon="151.290064">
  <ele>343.05</ele>
  <time>2026-09-01T19:50:13Z</time>
  <course>10.8</course>
  <speed>0.0</speed>
  <fix>3d</fix>
</trkpt>
<trkpt lat="-27.274439" lon="151.290064">
  <ele>343.1</ele>
  <time>2026-09-01T19:50:13Z</time>
  <course>270.0</course>
  <speed>0.0</speed>
  <fix>3d</fix>
</trkpt>
<trkpt lat="-27.274439" lon="151.290064">
  <ele>342.87</ele>
  <time>2026-09-01T19:50:13Z</time>
  <course>10.8</course>
  <speed>0.0</speed>
  <fix>3d</fix>
</trkpt>
<trkpt lat="-27.274439" lon="151.290064">
  <ele>343.1</ele>
  <time>2026-09-01T19:50:13Z</time>
  <course>270.0</course>
  <speed>0.0</speed>
  <fix>3d</fix>
</trkpt>
<trkpt lat="-27.274439" lon="151.290064">
  <ele>342.92</ele>
  <time>2026-09-01T19:50:13Z</time>
  <course>10.8</course>
  <speed>0.0</speed>
  <fix>3d</fix>
</trkpt>
<trkpt lat="-27.274439" lon="151.290064">
  <ele>343.1</ele>
  <time>2026-09-01T19:50:13Z</time>
  <course>270.0</course>
  <speed>0.0</speed>
  <fix>3d</fix>
</trkpt>
<trkpt lat="-27.274439" lon="151.290064">
  <ele>342.96</ele>
  <time>2026-09-01T19:50:13Z</time>
  <course>10.8</course>
  <speed>0.0</speed>
  <fix>3d</fix>
</trkpt>
<trkpt lat="-27.274439" lon="151.290064">
  <ele>343.1</ele>
  <time>2026-09-01T19:50:13Z</time>
  <course>270.0</course>
  <speed>0.0</speed>
  <fix>3d</fix>
</trkpt>
<trkpt lat="-27.274439" lon="151.290064">
  <ele>343.15</ele>
  <time>2026-09-01T19:50:13Z</time>
  <course>10.8</course>
  <speed>0.0</speed>
  <fix>3d</fix>
</trkpt>
<trkpt lat="-27.274439" lon="151.290064">
  <ele>343.1</ele>
  <time>2026-09-01T19:50:13Z</time>
  <course>270.0</course>
  <speed>0.0</speed>
  <fix>3d</fix>
</trkpt>
<trkpt lat="-27.274439" lon="151.290064">
  <ele>343.16</ele>
  <time>2026-09-01T19:50:13Z</time>
  <course>10.8</course>
  <speed>0.0</speed>
  <fix>3d</fix>
</trkpt>
<trkpt lat="-27.274439" lon="151.290064">
  <ele>343.1</ele>
  <time>2026-09-01T19:50:13Z</time>
  <course>270.0</course>
  <speed>0.0</speed>
  <fix>3d</fix>
</trkpt>
<trkpt lat="-27.274439" lon="151.290064">
  <ele>343.2</ele>
  <time>2026-09-01T19:50:13Z</time>
  <course>10.81</course>
  <speed>0.0</speed>
  <fix>3d</fix>
</trkpt>
<trkpt lat="-27.274439" lon="151.290064">
  <ele>343.1</ele>
  <time>2026-09-01T19:50:13Z</time>
  <course>270.0</course>
  <speed>0.0</speed>
  <fix>3d</fix>
</trkpt>
<trkpt lat="-27.274439" lon="151.290064">
  <ele>343.13</ele>
  <time>2026-09-01T19:50:13Z</time>
  <course>10.82</course>
  <speed>0.0</speed>
  <fix>3d</fix>
</trkpt>
<trkpt lat="-27.274439" lon="151.290064">
  <ele>343.1</ele>
  <time>2026-09-01T19:50:13Z</time>
  <course>270.0</course>
  <speed>0.0</speed>
  <fix>3d</fix>
</trkpt>
<trkpt lat="-27.274439" lon="151.290064">
  <ele>343.09</ele>
  <time>2026-09-01T19:50:13Z</time>
  <course>10.71</course>
  <speed>0.0</speed>
  <fix>3d</fix>
</trkpt>
<trkpt lat="-27.274439" lon="151.290064">
  <ele>343.1</ele>
  <time>2026-09-01T19:50:13Z</time>
  <course>270.0</course>
  <speed>0.0</speed>
  <fix>3d</fix>
</trkpt>
<trkpt lat="-27.274439" lon="151.290064">
  <ele>343.09</ele>
  <time>2026-09-01T19:50:13Z</time>
  <course>10.71</course>
  <speed>0.0</speed>
  <fix>3d</fix>
</trkpt>
<trkpt lat="-27.274439" lon="151.290064">
  <ele>343.1</ele>
  <time>2026-09-01T19:50:13Z</time>
  <course>270.0</course>
  <speed>0.0</speed>
  <fix>3d</fix>
</trkpt>
<trkpt lat="-27.274439" lon="151.290064">
  <ele>343.1</ele>
  <time>2026-09-01T19:50:13Z</time>
  <course>10.71</course>
  <speed>0.0</speed>
  <fix>3d</fix>
</trkpt>
<trkpt lat="-27.274439" lon="151.290064">
  <ele>343.1</ele>
  <time>2026-09-01T19:50:13Z</time>
  <course>270.0</course>
  <speed>0.0</speed>
  <fix>3d</fix>
</trkpt>
<trkpt lat="-27.274439" lon="151.290064">
  <ele>343.1</ele>
  <time>2026-09-01T19:50:13Z</time>
  <course>10.71</course>
  <speed>0.0</speed>
  <fix>3d</fix>
</trkpt>
<trkpt lat="-27.274439" lon="151.290064">
  <ele>343.1</ele>
  <time>2026-09-01T19:50:13Z</time>
  <course>270.0</course>
  <speed>0.0</speed>
  <fix>3d</fix>
</trkpt>
<trkpt lat="-27.274439" lon="151.290064">
  <ele>343.1</ele>
  <time>2026-09-01T19:50:13Z</time>
  <course>10.71</course>
  <speed>0.0</speed>
  <fix>3d</fix>
</trkpt>
<trkpt lat="-27.274439" lon="151.290064">
  <ele>343.1</ele>
  <time>2026-09-01T19:50:13Z</time>
  <course>270.0</course>
  <speed>0.0</speed>
  <fix>3d</fix>
</trkpt>
<trkpt lat="-27.274439" lon="151.290064">
  <ele>343.1</ele>
  <time>2026-09-01T19:50:13Z</time>
  <course>10.71</course>
  <speed>0.0</speed>
  <fix>3d</fix>
</trkpt>
<trkpt lat="-27.274439" lon="151.290064">
  <ele>343.1</ele>
  <time>2026-09-01T19:50:13Z</time>
  <course>270.0</course>
  <speed>0.0</speed>
  <fix>3d</fix>
</trkpt>
<trkpt lat="-27.274439" lon="151.290064">
  <ele>343.1</ele>
  <time>2026-09-01T19:50:13Z</time>
  <course>10.71</course>
  <speed>0.0</speed>
  <fix>3d</fix>
</trkpt>
<trkpt lat="-27.274439" lon="151.290064">
  <ele>343.1</ele>
  <time>2026-09-01T19:50:13Z</time>
  <course>270.0</course>
  <speed>0.0</speed>
  <fix>3d</fix>
</trkpt>
<trkpt lat="-27.274439" lon="151.290064">
  <ele>343.11</ele>
  <time>2026-09-01T19:50:13Z</time>
  <course>10.71</course>
  <speed>0.0</speed>
  <fix>3d</fix>
</trkpt>
<trkpt lat="-27.274439" lon="151.290064">
  <ele>343.1</ele>
  <time>2026-09-01T19:50:13Z</time>
  <course>270.0</course>
  <speed>0.0</speed>
  <fix>3d</fix>
</trkpt>
<trkpt lat="-27.274439" lon="151.290064">
  <ele>343.11</ele>
  <time>2026-09-01T19:50:13Z</time>
  <course>10.71</course>
  <speed>0.0</speed>
  <fix>3d</fix>
</trkpt>
<trkpt lat="-27.274439" lon="151.290064">
  <ele>343.1</ele>
  <time>2026-09-01T19:50:13Z</time>
  <course>270.0</course>
  <speed>0.0</speed>
  <fix>3d</fix>
</trkpt>
<trkpt lat="-27.274439" lon="151.290064">
  <ele>343.11</ele>
  <time>2026-09-01T19:50:13Z</time>
  <course>10.71</course>
  <speed>0.0</speed>
  <fix>3d</fix>
</trkpt>
<trkpt lat="-27.274439" lon="151.290064">
  <ele>343.1</ele>
  <time>2026-09-01T19:50:13Z</time>
  <course>270.0</course>
  <speed>0.0</speed>
  <fix>3d</fix>
</trkpt>
<trkpt lat="-27.274439" lon="151.290064">
  <ele>343.12</ele>
  <time>2026-09-01T19:50:13Z</time>
  <course>10.71</course>
  <speed>0.0</speed>
  <fix>3d</fix>
</trkpt>
<trkpt lat="-27.274439" lon="151.290064">
  <ele>343.1</ele>
  <time>2026-09-01T19:50:13Z</time>
  <course>270.0</course>
  <speed>0.0</speed>
  <fix>3d</fix>
</trkpt>
<trkpt lat="-27.274439" lon="151.290064">
  <ele>343.12</ele>
  <time>2026-09-01T19:50:13Z</time>
  <course>10.71</course>
  <speed>0.0</speed>
  <fix>3d</fix>
</trkpt>
<trkpt lat="-27.274439" lon="151.290064">
  <ele>343.1</ele>
  <time>2026-09-01T19:50:13Z</time>
  <course>270.0</course>
  <speed>0.0</speed>
  <fix>3d</fix>
</trkpt>
<trkpt lat="-27.274439" lon="151.290064">
  <ele>343.1</ele>
  <time>2026-09-01T19:50:13Z</time>
  <course>10.71</course>
  <speed>0.0</speed>
  <fix>3d</fix>
</trkpt>
<trkpt lat="-27.274439" lon="151.290064">
  <ele>343.1</ele>
  <time>2026-09-01T19:50:13Z</time>
  <course>270.0</course>
  <speed>0.0</speed>
  <fix>3d</fix>
</trkpt>
<trkpt lat="-27.274439" lon="151.290064">
  <ele>343.1</ele>
  <time>2026-09-01T19:50:13Z</time>
  <course>10.71</course>
  <speed>0.0</speed>
  <fix>3d</fix>
</trkpt>
<trkpt lat="-27.274439" lon="151.290064">
  <ele>343.1</ele>
  <time>2026-09-01T19:50:13Z</time>
  <course>270.0</course>
  <speed>0.0</speed>
  <fix>3d</fix>
</trkpt>
<trkpt lat="-27.274439" lon="151.290064">
  <ele>343.1</ele>
  <time>2026-09-01T19:50:13Z</time>
  <course>10.71</course>
  <speed>0.0</speed>
  <fix>3d</fix>
</trkpt>
<trkpt lat="-27.274439" lon="151.290064">
  <ele>343.1</ele>
  <time>2026-09-01T19:50:13Z</time>
  <course>270.0</course>
  <speed>0.0</speed>
  <fix>3d</fix>
</trkpt>
<trkpt lat="-27.274439" lon="151.290064">
  <ele>343.09</ele>
  <time>2026-09-01T19:50:13Z</time>
  <course>10.71</course>
  <speed>0.0</speed>
  <fix>3d</fix>
</trkpt>
<trkpt lat="-27.274439" lon="151.290064">
  <ele>343.1</ele>
  <time>2026-09-01T19:50:13Z</time>
  <course>270.0</course>
  <speed>0.0</speed>
  <fix>3d</fix>
</trkpt>
<trkpt lat="-27.274439" lon="151.290064">
  <ele>343.09</ele>
  <time>2026-09-01T19:50:13Z</time>
  <course>10.71</course>
  <speed>0.0</speed>
  <fix>3d</fix>
</trkpt>
<trkpt lat="-27.274439" lon="151.290064">
  <ele>343.1</ele>
  <time>2026-09-01T19:50:13Z</time>
  <course>270.0</course>
  <speed>0.0</speed>
  <fix>3d</fix>
</trkpt>
<trkpt lat="-27.274439" lon="151.290064">
  <ele>343.09</ele>
  <time>2026-09-01T19:50:13Z</time>
  <course>10.71</course>
  <speed>0.0</speed>
  <fix>3d</fix>
</trkpt>
<trkpt lat="-27.274439" lon="151.290064">
  <ele>343.1</ele>
  <time>2026-09-01T19:50:13Z</time>
  <course>270.0</course>
  <speed>0.0</speed>
  <fix>3d</fix>
</trkpt>
<trkpt lat="-27.274439" lon="151.290064">
  <ele>343.1</ele>
  <time>2026-09-01T19:50:13Z</time>
  <course>10.71</course>
  <speed>0.0</speed>
  <fix>3d</fix>
</trkpt>
<trkpt lat="-27.274439" lon="151.290064">
  <ele>343.1</ele>
  <time>2026-09-01T19:50:13Z</time>
  <course>270.0</course>
  <speed>0.0</speed>
  <fix>3d</fix>
</trkpt>
<trkpt lat="-27.274439" lon="151.290064">
  <ele>343.1</ele>
  <time>2026-09-01T19:50:13Z</time>
  <course>10.71</course>
  <speed>0.0</speed>
  <fix>3d</fix>
</trkpt>
<trkpt lat="-27.274439" lon="151.290064">
  <ele>343.1</ele>
  <time>2026-09-01T19:50:13Z</time>
  <course>270.0</course>
  <speed>0.0</speed>
  <fix>3d</fix>
</trkpt>
<trkpt lat="-27.274439" lon="151.290064">
  <ele>343.09</ele>
  <time>2026-09-01T19:50:13Z</time>
  <course>10.71</course>
  <speed>0.0</speed>
  <fix>3d</fix>
</trkpt>
<trkpt lat="-27.274439" lon="151.290064">
  <ele>343.1</ele>
  <time>2026-09-01T19:50:13Z</time>
  <course>270.0</course>
  <speed>0.0</speed>
  <fix>3d</fix>
</trkpt>
<trkpt lat="-27.274439" lon="151.290064">
  <ele>343.09</ele>
  <time>2026-09-01T19:50:13Z</time>
  <course>10.71</course>
  <speed>0.0</speed>
  <fix>3d</fix>
</trkpt>
<trkpt lat="-27.274439" lon="151.290064">
  <ele>343.1</ele>
  <time>2026-09-01T19:50:13Z</time>
  <course>270.0</course>
  <speed>0.0</speed>
  <fix>3d</fix>
</trkpt>
<trkpt lat="-27.274439" lon="151.290064">
  <ele>343.09</ele>
  <time>2026-09-01T19:50:13Z</time>
  <course>10.71</course>
  <speed>0.0</speed>
  <fix>3d</fix>
</trkpt>
<trkpt lat="-27.274439" lon="151.290064">
  <ele>343.1</ele>
  <time>2026-09-01T19:50:13Z</time>
  <course>270.0</course>
  <speed>0.0</speed>
  <fix>3d</fix>
</trkpt>
<trkpt lat="-27.274439" lon="151.290064">
  <ele>343.09</ele>
  <time>2026-09-01T19:50:13Z</time>
  <course>10.71</course>
  <speed>0.0</speed>
  <fix>3d</fix>
</trkpt>
<trkpt lat="-27.274439" lon="151.290064">
  <ele>343.1</ele>
  <time>2026-09-01T19:50:13Z</time>
  <course>270.0</course>
  <speed>0.0</speed>
  <fix>3d</fix>
</trkpt>
<trkpt lat="-27.274439" lon="151.290064">
  <ele>343.09</ele>
  <time>2026-09-01T19:50:13Z</time>
  <course>10.71</course>
  <speed>0.0</speed>
  <fix>3d</fix>
</trkpt>
<trkpt lat="-27.274439" lon="151.290064">
  <ele>343.1</ele>
  <time>2026-09-01T19:50:13Z</time>
  <course>270.0</course>
  <speed>0.0</speed>
  <fix>3d</fix>
</trkpt>
<trkpt lat="-27.274439" lon="151.290064">
  <ele>343.09</ele>
  <time>2026-09-01T19:50:13Z</time>
  <course>10.71</course>
  <speed>0.0</speed>
  <fix>3d</fix>
</trkpt>
<trkpt lat="-27.274439" lon="151.290064">
  <ele>343.1</ele>
  <time>2026-09-01T19:50:13Z</time>
  <course>270.0</course>
  <speed>0.0</speed>
  <fix>3d</fix>
</trkpt>
<trkpt lat="-27.274439" lon="151.290064">
  <ele>343.09</ele>
  <time>2026-09-01T19:50:13Z</time>
  <course>10.71</course>
  <speed>0.0</speed>
  <fix>3d</fix>
</trkpt>
<trkpt lat="-27.274439" lon="151.290064">
  <ele>343.1</ele>
  <time>2026-09-01T19:50:13Z</time>
  <course>270.0</course>
  <speed>0.0</speed>
  <fix>3d</fix>
</trkpt>
<trkpt lat="-27.274439" lon="151.290064">
  <ele>343.09</ele>
  <time>2026-09-01T19:50:13Z</time>
  <course>10.71</course>
  <speed>0.0</speed>
  <fix>3d</fix>
</trkpt>
<trkpt lat="-27.274439" lon="151.290064">
  <ele>343.1</ele>
  <time>2026-09-01T19:50:13Z</time>
  <course>270.0</course>
  <speed>0.0</speed>
  <fix>3d</fix>
</trkpt>
<trkpt lat="-27.274439" lon="151.290064">
  <ele>343.1</ele>
  <time>2026-09-01T19:50:13Z</time>
  <course>10.71</course>
  <speed>0.0</speed>
  <fix>3d</fix>
</trkpt>
<trkpt lat="-27.274439" lon="151.290064">
  <ele>343.1</ele>
  <time>2026-09-01T19:50:13Z</time>
  <course>270.0</course>
  <speed>0.0</speed>
  <fix>3d</fix>
</trkpt>
<trkpt lat="-27.274439" lon="151.290064">
  <ele>343.1</ele>
  <time>2026-09-01T19:50:13Z</time>
  <course>10.71</course>
  <speed>0.0</speed>
  <fix>3d</fix>
</trkpt>
<trkpt lat="-27.274439" lon="151.290064">
  <ele>343.1</ele>
  <time>2026-09-01T19:50:13Z</time>
  <course>270.0</course>
  <speed>0.0</speed>
  <fix>3d</fix>
</trkpt>
<trkpt lat="-27.274439" lon="151.290064">
  <ele>343.1</ele>
  <time>2026-09-01T19:50:13Z</time>
  <course>10.71</course>
  <speed>0.0</speed>
  <fix>3d</fix>
</trkpt>
<trkpt lat="-27.274439" lon="151.290064">
  <ele>343.1</ele>
  <time>2026-09-01T19:50:13Z</time>
  <course>270.0</course>
  <speed>0.0</speed>
  <fix>3d</fix>
</trkpt>
<trkpt lat="-27.274439" lon="151.290064">
  <ele>343.1</ele>
  <time>2026-09-01T19:50:13Z</time>
  <course>10.71</course>
  <speed>0.0</speed>
  <fix>3d</fix>
</trkpt>
<trkpt lat="-27.274439" lon="151.290064">
  <ele>343.1</ele>
  <time>2026-09-01T19:50:13Z</time>
  <course>270.0</course>
  <speed>0.0</speed>
  <fix>3d</fix>
</trkpt>
<trkpt lat="-27.274439" lon="151.290064">
  <ele>343.11</ele>
  <time>2026-09-01T19:50:13Z</time>
  <course>10.71</course>
  <speed>0.0</speed>
  <fix>3d</fix>
</trkpt>
<trkpt lat="-27.274439" lon="151.290064">
  <ele>343.1</ele>
  <time>2026-09-01T19:50:13Z</time>
  <course>270.0</course>
  <speed>0.0</speed>
  <fix>3d</fix>
</trkpt>
<trkpt lat="-27.274439" lon="151.290064">
  <ele>343.11</ele>
  <time>2026-09-01T19:50:13Z</time>
  <course>10.71</course>
  <speed>0.0</speed>
  <fix>3d</fix>
</trkpt>
<trkpt lat="-27.274439" lon="151.290064">
  <ele>343.1</ele>
  <time>2026-09-01T19:50:13Z</time>
  <course>270.0</course>
  <speed>0.0</speed>
  <fix>3d</fix>
</trkpt>
<trkpt lat="-27.274439" lon="151.290064">
  <ele>343.11</ele>
  <time>2026-09-01T19:50:13Z</time>
  <course>10.71</course>
  <speed>0.0</speed>
  <fix>3d</fix>
</trkpt>
<trkpt lat="-27.274439" lon="151.290064">
  <ele>343.1</ele>
  <time>2026-09-01T19:50:13Z</time>
  <course>270.0</course>
  <speed>0.0</speed>
  <fix>3d</fix>
</trkpt>
<trkpt lat="-27.274439" lon="151.290064">
  <ele>343.11</ele>
  <time>2026-09-01T19:50:13Z</time>
  <course>10.71</course>
  <speed>0.0</speed>
  <fix>3d</fix>
</trkpt>
<trkpt lat="-27.274439" lon="151.290064">
  <ele>343.1</ele>
  <time>2026-09-01T19:50:13Z</time>
  <course>270.0</course>
  <speed>0.0</speed>
  <fix>3d</fix>
</trkpt>
<trkpt lat="-27.274439" lon="151.290064">
  <ele>343.12</ele>
  <time>2026-09-01T19:50:13Z</time>
  <course>10.71</course>
  <speed>0.0</speed>
  <fix>3d</fix>
</trkpt>
<trkpt lat="-27.274439" lon="151.290064">
  <ele>343.1</ele>
  <time>2026-09-01T19:50:13Z</time>
  <course>270.0</course>
  <speed>0.0</speed>
  <fix>3d</fix>
</trkpt>
<trkpt lat="-27.274439" lon="151.290064">
  <ele>343.12</ele>
  <time>2026-09-01T19:50:13Z</time>
  <course>10.71</course>
  <speed>0.0</speed>
  <fix>3d</fix>
</trkpt>
<trkpt lat="-27.274439" lon="151.290064">
  <ele>343.1</ele>
  <time>2026-09-01T19:50:13Z</time>
  <course>270.0</course>
  <speed>0.0</speed>
  <fix>3d</fix>
</trkpt>
<trkpt lat="-27.274439" lon="151.290064">
  <ele>343.12</ele>
  <time>2026-09-01T19:50:13Z</time>
  <course>10.71</course>
  <speed>0.0</speed>
  <fix>3d</fix>
</trkpt>
<trkpt lat="-27.274439" lon="151.290064">
  <ele>343.1</ele>
  <time>2026-09-01T19:50:13Z</time>
  <course>270.0</course>
  <speed>0.0</speed>
  <fix>3d</fix>
</trkpt>
<trkpt lat="-27.274439" lon="151.290064">
  <ele>343.12</ele>
  <time>2026-09-01T19:50:13Z</time>
  <course>10.71</course>
  <speed>0.0</speed>
  <fix>3d</fix>
</trkpt>
<trkpt lat="-27.274439" lon="151.290064">
  <ele>343.1</ele>
  <time>2026-09-01T19:50:13Z</time>
  <course>270.0</course>
  <speed>0.0</speed>
  <fix>3d</fix>
</trkpt>
<trkpt lat="-27.274439" lon="151.290064">
  <ele>343.12</ele>
  <time>2026-09-01T19:50:13Z</time>
  <course>10.71</course>
  <speed>0.0</speed>
  <fix>3d</fix>
</trkpt>
<trkpt lat="-27.274439" lon="151.290064">
  <ele>343.1</ele>
  <time>2026-09-01T19:50:13Z</time>
  <course>270.0</course>
  <speed>0.0</speed>
  <fix>3d</fix>
</trkpt>
<trkpt lat="-27.274439" lon="151.290064">
  <ele>343.13</ele>
  <time>2026-09-01T19:50:13Z</time>
  <course>10.71</course>
  <speed>0.0</speed>
  <fix>3d</fix>
</trkpt>
<trkpt lat="-27.274439" lon="151.290064">
  <ele>343.1</ele>
  <time>2026-09-01T19:50:13Z</time>
  <course>270.0</course>
  <speed>0.0</speed>
  <fix>3d</fix>
</trkpt>
<trkpt lat="-27.274439" lon="151.290064">
  <ele>343.13</ele>
  <time>2026-09-01T19:50:13Z</time>
  <course>10.71</course>
  <speed>0.0</speed>
  <fix>3d</fix>
</trkpt>
<trkpt lat="-27.274439" lon="151.290064">
  <ele>343.1</ele>
  <time>2026-09-01T19:50:13Z</time>
  <course>270.0</course>
  <speed>0.0</speed>
  <fix>3d</fix>
</trkpt>
<trkpt lat="-27.274439" lon="151.290064">
  <ele>343.13</ele>
  <time>2026-09-01T19:50:13Z</time>
  <course>10.71</course>
  <speed>0.0</speed>
  <fix>3d</fix>
</trkpt>
<trkpt lat="-27.274439" lon="151.290064">
  <ele>343.1</ele>
  <time>2026-09-01T19:50:13Z</time>
  <course>270.0</course>
  <speed>0.0</speed>
  <fix>3d</fix>
</trkpt>
<trkpt lat="-27.274439" lon="151.290064">
  <ele>343.13</ele>
  <time>2026-09-01T19:50:13Z</time>
  <course>10.71</course>
  <speed>0.0</speed>
  <fix>3d</fix>
</trkpt>
<trkpt lat="-27.274439" lon="151.290064">
  <ele>343.1</ele>
  <time>2026-09-01T19:50:13Z</time>
  <course>270.0</course>
  <speed>0.0</speed>
  <fix>3d</fix>
</trkpt>
<trkpt lat="-27.274439" lon="151.290064">
  <ele>343.14</ele>
  <time>2026-09-01T19:50:13Z</time>
  <course>10.71</course>
  <speed>0.0</speed>
  <fix>3d</fix>
</trkpt>
<trkpt lat="-27.274439" lon="151.290064">
  <ele>343.1</ele>
  <time>2026-09-01T19:50:13Z</time>
  <course>270.0</course>
  <speed>0.0</speed>
  <fix>3d</fix>
</trkpt>
<trkpt lat="-27.274439" lon="151.290064">
  <ele>343.14</ele>
  <time>2026-09-01T19:50:13Z</time>
  <course>10.71</course>
  <speed>0.0</speed>
  <fix>3d</fix>
</trkpt>
<trkpt lat="-27.274439" lon="151.290064">
  <ele>343.1</ele>
  <time>2026-09-01T19:50:13Z</time>
  <course>270.0</course>
  <speed>0.0</speed>
  <fix>3d</fix>
</trkpt>
<trkpt lat="-27.274439" lon="151.290064">
  <ele>343.14</ele>
  <time>2026-09-01T19:50:13Z</time>
  <course>10.71</course>
  <speed>0.0</speed>
  <fix>3d</fix>
</trkpt>
<trkpt lat="-27.274439" lon="151.290064">
  <ele>343.1</ele>
  <time>2026-09-01T19:50:13Z</time>
  <course>270.0</course>
  <speed>0.0</speed>
  <fix>3d</fix>
</trkpt>
<trkpt lat="-27.274439" lon="151.290064">
  <ele>343.14</ele>
  <time>2026-09-01T19:50:13Z</time>
  <course>10.71</course>
  <speed>0.0</speed>
  <fix>3d</fix>
</trkpt>
<trkpt lat="-27.274439" lon="151.290064">
  <ele>343.1</ele>
  <time>2026-09-01T19:50:13Z</time>
  <course>270.0</course>
  <speed>0.0</speed>
  <fix>3d</fix>
</trkpt>
<trkpt lat="-27.274439" lon="151.290064">
  <ele>343.14</ele>
  <time>2026-09-01T19:50:13Z</time>
  <course>10.71</course>
  <speed>0.0</speed>
  <fix>3d</fix>
</trkpt>
<trkpt lat="-27.274439" lon="151.290064">
  <ele>343.1</ele>
  <time>2026-09-01T19:50:13Z</time>
  <course>270.0</course>
  <speed>0.0</speed>
  <fix>3d</fix>
</trkpt>
<trkpt lat="-27.274439" lon="151.290064">
  <ele>343.14</ele>
  <time>2026-09-01T19:50:13Z</time>
  <course>10.71</course>
  <speed>0.0</speed>
  <fix>3d</fix>
</trkpt>
<trkpt lat="-27.274439" lon="151.290064">
  <ele>343.1</ele>
  <time>2026-09-01T19:50:13Z</time>
  <course>270.0</course>
  <speed>0.0</speed>
  <fix>3d</fix>
</trkpt>
<trkpt lat="-27.274439" lon="151.290064">
  <ele>343.14</ele>
  <time>2026-09-01T19:50:13Z</time>
  <course>10.71</course>
  <speed>0.0</speed>
  <fix>3d</fix>
</trkpt>
<trkpt lat="-27.274439" lon="151.290064">
  <ele>343.1</ele>
  <time>2026-09-01T19:50:13Z</time>
  <course>270.0</course>
  <speed>0.0</speed>
  <fix>3d</fix>
</trkpt>
<trkpt lat="-27.274439" lon="151.290064">
  <ele>343.14</ele>
  <time>2026-09-01T19:50:13Z</time>
  <course>10.71</course>
  <speed>0.0</speed>
  <fix>3d</fix>
</trkpt>
<trkpt lat="-27.274439" lon="151.290064">
  <ele>343.1</ele>
  <time>2026-09-01T19:50:13Z</time>
  <course>270.0</course>
  <speed>0.0</speed>
  <fix>3d</fix>
</trkpt>
<trkpt lat="-27.274439" lon="151.290064">
  <ele>343.13</ele>
  <time>2026-09-01T19:50:13Z</time>
  <course>10.71</course>
  <speed>0.0</speed>
  <fix>3d</fix>
</trkpt>
<trkpt lat="-27.274439" lon="151.290064">
  <ele>343.1</ele>
  <time>2026-09-01T19:50:13Z</time>
  <course>270.0</course>
  <speed>0.0</speed>
  <fix>3d</fix>
</trkpt>
<trkpt lat="-27.274439" lon="151.290064">
  <ele>343.13</ele>
  <time>2026-09-01T19:50:13Z</time>
  <course>10.71</course>
  <speed>0.0</speed>
  <fix>3d</fix>
</trkpt>
<trkpt lat="-27.274439" lon="151.290064">
  <ele>343.1</ele>
  <time>2026-09-01T19:50:13Z</time>
  <course>270.0</course>
  <speed>0.0</speed>
  <fix>3d</fix>
</trkpt>
<trkpt lat="-27.274439" lon="151.290064">
  <ele>343.13</ele>
  <time>2026-09-01T19:50:13Z</time>
  <course>10.71</course>
  <speed>0.0</speed>
  <fix>3d</fix>
</trkpt>
<trkpt lat="-27.274439" lon="151.290064">
  <ele>343.1</ele>
  <time>2026-09-01T19:50:13Z</time>
  <course>270.0</course>
  <speed>0.0</speed>
  <fix>3d</fix>
</trkpt>
<trkpt lat="-27.274439" lon="151.290064">
  <ele>343.13</ele>
  <time>2026-09-01T19:50:13Z</time>
  <course>10.71</course>
  <speed>0.0</speed>
  <fix>3d</fix>
</trkpt>
<trkpt lat="-27.274439" lon="151.290064">
  <ele>343.1</ele>
  <time>2026-09-01T19:50:13Z</time>
  <course>270.0</course>
  <speed>0.0</speed>
  <fix>3d</fix>
</trkpt>
<trkpt lat="-27.274439" lon="151.290064">
  <ele>343.13</ele>
  <time>2026-09-01T19:50:13Z</time>
  <course>10.71</course>
  <speed>0.0</speed>
  <fix>3d</fix>
</trkpt>
<trkpt lat="-27.274439" lon="151.290064">
  <ele>343.1</ele>
  <time>2026-09-01T19:50:13Z</time>
  <course>270.0</course>
  <speed>0.0</speed>
  <fix>3d</fix>
</trkpt>
<trkpt lat="-27.274439" lon="151.290064">
  <ele>343.13</ele>
  <time>2026-09-01T19:50:13Z</time>
  <course>10.71</course>
  <speed>0.0</speed>
  <fix>3d</fix>
</trkpt>
<trkpt lat="-27.274439" lon="151.290064">
  <ele>343.1</ele>
  <time>2026-09-01T19:50:13Z</time>
  <course>270.0</course>
  <speed>0.0</speed>
  <fix>3d</fix>
</trkpt>
<trkpt lat="-27.274439" lon="151.290064">
  <ele>343.13</ele>
  <time>2026-09-01T19:50:13Z</time>
  <course>10.71</course>
  <speed>0.0</speed>
  <fix>3d</fix>
</trkpt>
<trkpt lat="-27.274439" lon="151.290064">
  <ele>343.1</ele>
  <time>2026-09-01T19:50:13Z</time>
  <course>270.0</course>
  <speed>0.0</speed>
  <fix>3d</fix>
</trkpt>
<trkpt lat="-27.274439" lon="151.290064">
  <ele>343.13</ele>
  <time>2026-09-01T19:50:13Z</time>
  <course>10.71</course>
  <speed>0.0</speed>
  <fix>3d</fix>
</trkpt>
<trkpt lat="-27.274439" lon="151.290064">
  <ele>343.1</ele>
  <time>2026-09-01T19:50:13Z</time>
  <course>270.0</course>
  <speed>0.0</speed>
  <fix>3d</fix>
</trkpt>
<trkpt lat="-27.274439" lon="151.290064">
  <ele>343.14</ele>
  <time>2026-09-01T19:50:13Z</time>
  <course>10.71</course>
  <speed>0.0</speed>
  <fix>3d</fix>
</trkpt>
<trkpt lat="-27.274439" lon="151.290064">
  <ele>343.1</ele>
  <time>2026-09-01T19:50:13Z</time>
  <course>270.0</course>
  <speed>0.0</speed>
  <fix>3d</fix>
</trkpt>
<trkpt lat="-27.274439" lon="151.290064">
  <ele>343.14</ele>
  <time>2026-09-01T19:50:13Z</time>
  <course>10.71</course>
  <speed>0.0</speed>
  <fix>3d</fix>
</trkpt>
<trkpt lat="-27.274439" lon="151.290064">
  <ele>343.1</ele>
  <time>2026-09-01T19:50:13Z</time>
  <course>270.0</course>
  <speed>0.0</speed>
  <fix>3d</fix>
</trkpt>
<trkpt lat="-27.274439" lon="151.290064">
  <ele>343.14</ele>
  <time>2026-09-01T19:50:13Z</time>
  <course>10.71</course>
  <speed>0.0</speed>
  <fix>3d</fix>
</trkpt>
<trkpt lat="-27.274439" lon="151.290064">
  <ele>343.1</ele>
  <time>2026-09-01T19:50:13Z</time>
  <course>270.0</course>
  <speed>0.0</speed>
  <fix>3d</fix>
</trkpt>
<trkpt lat="-27.274439" lon="151.290064">
  <ele>343.14</ele>
  <time>2026-09-01T19:50:13Z</time>
  <course>10.71</course>
  <speed>0.0</speed>
  <fix>3d</fix>
</trkpt>
<trkpt lat="-27.274439" lon="151.290064">
  <ele>343.1</ele>
  <time>2026-09-01T19:50:13Z</time>
  <course>270.0</course>
  <speed>0.0</speed>
  <fix>3d</fix>
</trkpt>
<trkpt lat="-27.274439" lon="151.290064">
  <ele>343.14</ele>
  <time>2026-09-01T19:50:13Z</time>
  <course>10.71</course>
  <speed>0.0</speed>
  <fix>3d</fix>
</trkpt>
<trkpt lat="-27.274439" lon="151.290064">
  <ele>343.1</ele>
  <time>2026-09-01T19:50:13Z</time>
  <course>270.0</course>
  <speed>0.0</speed>
  <fix>3d</fix>
</trkpt>
<trkpt lat="-27.274439" lon="151.290064">
  <ele>343.14</ele>
  <time>2026-09-01T19:50:13Z</time>
  <course>10.71</course>
  <speed>0.0</speed>
  <fix>3d</fix>
</trkpt>
<trkpt lat="-27.274439" lon="151.290064">
  <ele>343.1</ele>
  <time>2026-09-01T19:50:13Z</time>
  <course>270.0</course>
  <speed>0.0</speed>
  <fix>3d</fix>
</trkpt>
<trkpt lat="-27.274439" lon="151.290064">
  <ele>343.15</ele>
  <time>2026-09-01T19:50:13Z</time>
  <course>10.71</course>
  <speed>0.0</speed>
  <fix>3d</fix>
</trkpt>
<trkpt lat="-27.274439" lon="151.290064">
  <ele>343.1</ele>
  <time>2026-09-01T19:50:13Z</time>
  <course>270.0</course>
  <speed>0.0</speed>
  <fix>3d</fix>
</trkpt>
<trkpt lat="-27.274439" lon="151.290064">
  <ele>343.15</ele>
  <time>2026-09-01T19:50:13Z</time>
  <course>10.71</course>
  <speed>0.0</speed>
  <fix>3d</fix>
</trkpt>
<trkpt lat="-27.274439" lon="151.290064">
  <ele>343.1</ele>
  <time>2026-09-01T19:50:13Z</time>
  <course>270.0</course>
  <speed>0.0</speed>
  <fix>3d</fix>
</trkpt>
<trkpt lat="-27.274439" lon="151.290064">
  <ele>343.15</ele>
  <time>2026-09-01T19:50:13Z</time>
  <course>10.71</course>
  <speed>0.0</speed>
  <fix>3d</fix>
</trkpt>
<trkpt lat="-27.274439" lon="151.290064">
  <ele>343.1</ele>
  <time>2026-09-01T19:50:13Z</time>
  <course>270.0</course>
  <speed>0.0</speed>
  <fix>3d</fix>
</trkpt>
<trkpt lat="-27.274439" lon="151.290064">
  <ele>343.09</ele>
  <time>2026-09-01T19:50:13Z</time>
  <course>10.71</course>
  <speed>0.0</speed>
  <fix>3d</fix>
</trkpt>
<trkpt lat="-27.274439" lon="151.290064">
  <ele>343.1</ele>
  <time>2026-09-01T19:50:13Z</time>
  <course>270.0</course>
  <speed>0.0</speed>
  <fix>3d</fix>
</trkpt>
<trkpt lat="-27.274439" lon="151.290064">
  <ele>343.1</ele>
  <time>2026-09-01T19:50:14Z</time>
  <course>10.71</course>
  <speed>0.0</speed>
  <fix>3d</fix>
</trkpt>
<trkpt lat="-27.274439" lon="151.290064">
  <ele>343.1</ele>
  <time>2026-09-01T19:50:14Z</time>
  <course>270.0</course>
  <speed>0.0</speed>
  <fix>3d</fix>
</trkpt>
<trkpt lat="-27.274439" lon="151.290064">
  <ele>343.1</ele>
  <time>2026-09-01T19:50:14Z</time>
  <course>10.71</course>
  <speed>0.0</speed>
  <fix>3d</fix>
</trkpt>
<trkpt lat="-27.274439" lon="151.290064">
  <ele>343.1</ele>
  <time>2026-09-01T19:50:14Z</time>
  <course>270.0</course>
  <speed>0.0</speed>
  <fix>3d</fix>
</trkpt>
<trkpt lat="-27.274439" lon="151.290064">
  <ele>343.1</ele>
  <time>2026-09-01T19:50:14Z</time>
  <course>10.71</course>
  <speed>0.0</speed>
  <fix>3d</fix>
</trkpt>
<trkpt lat="-27.274439" lon="151.290064">
  <ele>343.1</ele>
  <time>2026-09-01T19:50:14Z</time>
  <course>270.0</course>
  <speed>0.0</speed>
  <fix>3d</fix>
</trkpt>
<trkpt lat="-27.274439" lon="151.290064">
  <ele>343.1</ele>
  <time>2026-09-01T19:50:14Z</time>
  <course>10.71</course>
  <speed>0.0</speed>
  <fix>3d</fix>
</trkpt>
<trkpt lat="-27.274439" lon="151.290064">
  <ele>343.1</ele>
  <time>2026-09-01T19:50:14Z</time>
  <course>270.0</course>
  <speed>0.0</speed>
  <fix>3d</fix>
</trkpt>
<trkpt lat="-27.274439" lon="151.290064">
  <ele>343.11</ele>
  <time>2026-09-01T19:50:14Z</time>
  <course>10.71</course>
  <speed>0.0</speed>
  <fix>3d</fix>
</trkpt>
<trkpt lat="-27.274439" lon="151.290064">
  <ele>343.1</ele>
  <time>2026-09-01T19:50:14Z</time>
  <course>270.0</course>
  <speed>0.0</speed>
  <fix>3d</fix>
</trkpt>
<trkpt lat="-27.274439" lon="151.290064">
  <ele>343.11</ele>
  <time>2026-09-01T19:50:14Z</time>
  <course>10.71</course>
  <speed>0.0</speed>
  <fix>3d</fix>
</trkpt>
<trkpt lat="-27.274439" lon="151.290064">
  <ele>343.1</ele>
  <time>2026-09-01T19:50:14Z</time>
  <course>270.0</course>
  <speed>0.0</speed>
  <fix>3d</fix>
</trkpt>
<trkpt lat="-27.274439" lon="151.290064">
  <ele>343.11</ele>
  <time>2026-09-01T19:50:14Z</time>
  <course>10.71</course>
  <speed>0.0</speed>
  <fix>3d</fix>
</trkpt>
<trkpt lat="-27.274439" lon="151.290064">
  <ele>343.1</ele>
  <time>2026-09-01T19:50:14Z</time>
  <course>270.0</course>
  <speed>0.0</speed>
  <fix>3d</fix>
</trkpt>
<trkpt lat="-27.274439" lon="151.290064">
  <ele>343.11</ele>
  <time>2026-09-01T19:50:14Z</time>
  <course>10.71</course>
  <speed>0.0</speed>
  <fix>3d</fix>
</trkpt>
<trkpt lat="-27.274439" lon="151.290064">
  <ele>343.1</ele>
  <time>2026-09-01T19:50:14Z</time>
  <course>270.0</course>
  <speed>0.0</speed>
  <fix>3d</fix>
</trkpt>
<trkpt lat="-27.274439" lon="151.290064">
  <ele>343.11</ele>
  <time>2026-09-01T19:50:14Z</time>
  <course>10.71</course>
  <speed>0.0</speed>
  <fix>3d</fix>
</trkpt>
<trkpt lat="-27.274439" lon="151.290064">
  <ele>343.1</ele>
  <time>2026-09-01T19:50:14Z</time>
  <course>270.0</course>
  <speed>0.0</speed>
  <fix>3d</fix>
</trkpt>
<trkpt lat="-27.274439" lon="151.290064">
  <ele>343.1</ele>
  <time>2026-09-01T19:50:14Z</time>
  <course>10.71</course>
  <speed>0.0</speed>
  <fix>3d</fix>
</trkpt>
<trkpt lat="-27.274439" lon="151.290064">
  <ele>343.1</ele>
  <time>2026-09-01T19:50:14Z</time>
  <course>270.0</course>
  <speed>0.0</speed>
  <fix>3d</fix>
</trkpt>
<trkpt lat="-27.274439" lon="151.290064">
  <ele>343.1</ele>
  <time>2026-09-01T19:50:15Z</time>
  <course>10.71</course>
  <speed>0.0</speed>
  <fix>3d</fix>
</trkpt>
<trkpt lat="-27.274439" lon="151.290064">
  <ele>343.1</ele>
  <time>2026-09-01T19:50:15Z</time>
  <course>270.0</course>
  <speed>0.0</speed>
  <fix>3d</fix>
</trkpt>
<trkpt lat="-27.274439" lon="151.290064">
  <ele>343.1</ele>
  <time>2026-09-01T19:50:15Z</time>
  <course>10.71</course>
  <speed>0.0</speed>
  <fix>3d</fix>
</trkpt>
<trkpt lat="-27.274439" lon="151.290064">
  <ele>343.1</ele>
  <time>2026-09-01T19:50:15Z</time>
  <course>270.0</course>
  <speed>0.0</speed>
  <fix>3d</fix>
</trkpt>
<trkpt lat="-27.274439" lon="151.290064">
  <ele>343.09</ele>
  <time>2026-09-01T19:50:15Z</time>
  <course>10.71</course>
  <speed>0.0</speed>
  <fix>3d</fix>
</trkpt>
<trkpt lat="-27.274439" lon="151.290064">
  <ele>343.1</ele>
  <time>2026-09-01T19:50:15Z</time>
  <course>270.0</course>
  <speed>0.0</speed>
  <fix>3d</fix>
</trkpt>
<trkpt lat="-27.274439" lon="151.290064">
  <ele>343.09</ele>
  <time>2026-09-01T19:50:15Z</time>
  <course>10.71</course>
  <speed>0.0</speed>
  <fix>3d</fix>
</trkpt>
<trkpt lat="-27.274439" lon="151.290064">
  <ele>343.1</ele>
  <time>2026-09-01T19:50:15Z</time>
  <course>270.0</course>
  <speed>0.0</speed>
  <fix>3d</fix>
</trkpt>
<trkpt lat="-27.274439" lon="151.290064">
  <ele>343.09</ele>
  <time>2026-09-01T19:50:15Z</time>
  <course>10.71</course>
  <speed>0.0</speed>
  <fix>3d</fix>
</trkpt>
<trkpt lat="-27.274439" lon="151.290064">
  <ele>343.1</ele>
  <time>2026-09-01T19:50:15Z</time>
  <course>270.0</course>
  <speed>0.0</speed>
  <fix>3d</fix>
</trkpt>
<trkpt lat="-27.274439" lon="151.290064">
  <ele>343.09</ele>
  <time>2026-09-01T19:50:15Z</time>
  <course>10.71</course>
  <speed>0.0</speed>
  <fix>3d</fix>
</trkpt>
<trkpt lat="-27.274439" lon="151.290064">
  <ele>343.1</ele>
  <time>2026-09-01T19:50:15Z</time>
  <course>270.0</course>
  <speed>0.0</speed>
  <fix>3d</fix>
</trkpt>
<trkpt lat="-27.274439" lon="151.290064">
  <ele>343.09</ele>
  <time>2026-09-01T19:50:15Z</time>
  <course>10.71</course>
  <speed>0.0</speed>
  <fix>3d</fix>
</trkpt>
<trkpt lat="-27.274439" lon="151.290064">
  <ele>343.1</ele>
  <time>2026-09-01T19:50:15Z</time>
  <course>270.0</course>
  <speed>0.0</speed>
  <fix>3d</fix>
</trkpt>
<trkpt lat="-27.274439" lon="151.290064">
  <ele>343.09</ele>
  <time>2026-09-01T19:50:15Z</time>
  <course>10.71</course>
  <speed>0.0</speed>
  <fix>3d</fix>
</trkpt>
<trkpt lat="-27.274439" lon="151.290064">
  <ele>343.1</ele>
  <time>2026-09-01T19:50:15Z</time>
  <course>270.0</course>
  <speed>0.0</speed>
  <fix>3d</fix>
</trkpt>
<trkpt lat="-27.274439" lon="151.290064">
  <ele>343.09</ele>
  <time>2026-09-01T19:50:15Z</time>
  <course>10.71</course>
  <speed>0.0</speed>
  <fix>3d</fix>
</trkpt>
<trkpt lat="-27.274439" lon="151.290064">
  <ele>343.1</ele>
  <time>2026-09-01T19:50:15Z</time>
  <course>270.0</course>
  <speed>0.0</speed>
  <fix>3d</fix>
</trkpt>
<trkpt lat="-27.274439" lon="151.290064">
  <ele>343.09</ele>
  <time>2026-09-01T19:50:15Z</time>
  <course>10.71</course>
  <speed>0.0</speed>
  <fix>3d</fix>
</trkpt>
<trkpt lat="-27.274439" lon="151.290064">
  <ele>343.1</ele>
  <time>2026-09-01T19:50:15Z</time>
  <course>270.0</course>
  <speed>0.0</speed>
  <fix>3d</fix>
</trkpt>
<trkpt lat="-27.274439" lon="151.290064">
  <ele>343.09</ele>
  <time>2026-09-01T19:50:15Z</time>
  <course>10.71</course>
  <speed>0.0</speed>
  <fix>3d</fix>
</trkpt>
<trkpt lat="-27.274439" lon="151.290064">
  <ele>343.1</ele>
  <time>2026-09-01T19:50:15Z</time>
  <course>270.0</course>
  <speed>0.0</speed>
  <fix>3d</fix>
</trkpt>
<trkpt lat="-27.274439" lon="151.290064">
  <ele>343.08</ele>
  <time>2026-09-01T19:50:15Z</time>
  <course>10.71</course>
  <speed>0.0</speed>
  <fix>3d</fix>
</trkpt>
<trkpt lat="-27.274439" lon="151.290064">
  <ele>343.1</ele>
  <time>2026-09-01T19:50:15Z</time>
  <course>270.0</course>
  <speed>0.0</speed>
  <fix>3d</fix>
</trkpt>
<trkpt lat="-27.274439" lon="151.290064">
  <ele>343.08</ele>
  <time>2026-09-01T19:50:15Z</time>
  <course>10.71</course>
  <speed>0.0</speed>
  <fix>3d</fix>
</trkpt>
<trkpt lat="-27.274439" lon="151.290064">
  <ele>343.1</ele>
  <time>2026-09-01T19:50:15Z</time>
  <course>270.0</course>
  <speed>0.0</speed>
  <fix>3d</fix>
</trkpt>
<trkpt lat="-27.274439" lon="151.290064">
  <ele>343.09</ele>
  <time>2026-09-01T19:50:15Z</time>
  <course>10.71</course>
  <speed>0.0</speed>
  <fix>3d</fix>
</trkpt>
<trkpt lat="-27.274439" lon="151.290064">
  <ele>343.1</ele>
  <time>2026-09-01T19:50:15Z</time>
  <course>270.0</course>
  <speed>0.0</speed>
  <fix>3d</fix>
</trkpt>
<trkpt lat="-27.274439" lon="151.290064">
  <ele>343.09</ele>
  <time>2026-09-01T19:50:15Z</time>
  <course>10.71</course>
  <speed>0.0</speed>
  <fix>3d</fix>
</trkpt>
<trkpt lat="-27.274439" lon="151.290064">
  <ele>343.1</ele>
  <time>2026-09-01T19:50:15Z</time>
  <course>270.0</course>
  <speed>0.0</speed>
  <fix>3d</fix>
</trkpt>
<trkpt lat="-27.274439" lon="151.290064">
  <ele>343.09</ele>
  <time>2026-09-01T19:50:15Z</time>
  <course>10.71</course>
  <speed>0.0</speed>
  <fix>3d</fix>
</trkpt>
<trkpt lat="-27.274439" lon="151.290064">
  <ele>343.1</ele>
  <time>2026-09-01T19:50:15Z</time>
  <course>270.0</course>
  <speed>0.0</speed>
  <fix>3d</fix>
</trkpt>
<trkpt lat="-27.274439" lon="151.290064">
  <ele>343.09</ele>
  <time>2026-09-01T19:50:15Z</time>
  <course>10.71</course>
  <speed>0.0</speed>
  <fix>3d</fix>
</trkpt>
<trkpt lat="-27.274439" lon="151.290064">
  <ele>343.1</ele>
  <time>2026-09-01T19:50:15Z</time>
  <course>270.0</course>
  <speed>0.0</speed>
  <fix>3d</fix>
</trkpt>
<trkpt lat="-27.274439" lon="151.290064">
  <ele>343.1</ele>
  <time>2026-09-01T19:50:15Z</time>
  <course>10.71</course>
  <speed>0.0</speed>
  <fix>3d</fix>
</trkpt>
<trkpt lat="-27.274439" lon="151.290064">
  <ele>343.1</ele>
  <time>2026-09-01T19:50:15Z</time>
  <course>270.0</course>
  <speed>0.0</speed>
  <fix>3d</fix>
</trkpt>
<trkpt lat="-27.274439" lon="151.290064">
  <ele>343.1</ele>
  <time>2026-09-01T19:50:15Z</time>
  <course>10.71</course>
  <speed>0.0</speed>
  <fix>3d</fix>
</trkpt>
<trkpt lat="-27.274439" lon="151.290064">
  <ele>343.1</ele>
  <time>2026-09-01T19:50:15Z</time>
  <course>270.0</course>
  <speed>0.0</speed>
  <fix>3d</fix>
</trkpt>
<trkpt lat="-27.274439" lon="151.290064">
  <ele>343.1</ele>
  <time>2026-09-01T19:50:15Z</time>
  <course>10.71</course>
  <speed>0.0</speed>
  <fix>3d</fix>
</trkpt>
<trkpt lat="-27.274439" lon="151.290064">
  <ele>343.1</ele>
  <time>2026-09-01T19:50:15Z</time>
  <course>270.0</course>
  <speed>0.0</speed>
  <fix>3d</fix>
</trkpt>
<trkpt lat="-27.274439" lon="151.290064">
  <ele>343.1</ele>
  <time>2026-09-01T19:50:15Z</time>
  <course>10.71</course>
  <speed>0.0</speed>
  <fix>3d</fix>
</trkpt>
<trkpt lat="-27.274439" lon="151.290064">
  <ele>343.1</ele>
  <time>2026-09-01T19:50:15Z</time>
  <course>270.0</course>
  <speed>0.0</speed>
  <fix>3d</fix>
</trkpt>
<trkpt lat="-27.274439" lon="151.290064">
  <ele>343.1</ele>
  <time>2026-09-01T19:50:15Z</time>
  <course>10.7</course>
  <speed>0.0</speed>
  <fix>3d</fix>
</trkpt>
<trkpt lat="-27.274439" lon="151.290064">
  <ele>343.1</ele>
  <time>2026-09-01T19:50:15Z</time>
  <course>270.0</course>
  <speed>0.0</speed>
  <fix>3d</fix>
</trkpt>
<trkpt lat="-27.274439" lon="151.290064">
  <ele>343.1</ele>
  <time>2026-09-01T19:50:15Z</time>
  <course>10.7</course>
  <speed>0.0</speed>
  <fix>3d</fix>
</trkpt>
<trkpt lat="-27.274439" lon="151.290064">
  <ele>343.1</ele>
  <time>2026-09-01T19:50:15Z</time>
  <course>270.0</course>
  <speed>0.0</speed>
  <fix>3d</fix>
</trkpt>
<trkpt lat="-27.274439" lon="151.290064">
  <ele>343.1</ele>
  <time>2026-09-01T19:50:15Z</time>
  <course>10.7</course>
  <speed>0.0</speed>
  <fix>3d</fix>
</trkpt>
<trkpt lat="-27.274439" lon="151.290064">
  <ele>343.1</ele>
  <time>2026-09-01T19:50:15Z</time>
  <course>270.0</course>
  <speed>0.0</speed>
  <fix>3d</fix>
</trkpt>
<trkpt lat="-27.274439" lon="151.290064">
  <ele>343.1</ele>
  <time>2026-09-01T19:50:15Z</time>
  <course>10.7</course>
  <speed>0.0</speed>
  <fix>3d</fix>
</trkpt>
<trkpt lat="-27.274439" lon="151.290064">
  <ele>343.1</ele>
  <time>2026-09-01T19:50:15Z</time>
  <course>270.0</course>
  <speed>0.0</speed>
  <fix>3d</fix>
</trkpt>
<trkpt lat="-27.274439" lon="151.290064">
  <ele>343.1</ele>
  <time>2026-09-01T19:50:15Z</time>
  <course>10.7</course>
  <speed>0.0</speed>
  <fix>3d</fix>
</trkpt>
<trkpt lat="-27.274439" lon="151.290064">
  <ele>343.1</ele>
  <time>2026-09-01T19:50:15Z</time>
  <course>270.0</course>
  <speed>0.0</speed>
  <fix>3d</fix>
</trkpt>
<trkpt lat="-27.274439" lon="151.290064">
  <ele>343.11</ele>
  <time>2026-09-01T19:50:15Z</time>
  <course>10.7</course>
  <speed>0.0</speed>
  <fix>3d</fix>
</trkpt>
<trkpt lat="-27.274439" lon="151.290064">
  <ele>343.1</ele>
  <time>2026-09-01T19:50:15Z</time>
  <course>270.0</course>
  <speed>0.0</speed>
  <fix>3d</fix>
</trkpt>
<trkpt lat="-27.274439" lon="151.290064">
  <ele>343.11</ele>
  <time>2026-09-01T19:50:15Z</time>
  <course>10.7</course>
  <speed>0.0</speed>
  <fix>3d</fix>
</trkpt>
<trkpt lat="-27.274439" lon="151.290064">
  <ele>343.1</ele>
  <time>2026-09-01T19:50:15Z</time>
  <course>270.0</course>
  <speed>0.0</speed>
  <fix>3d</fix>
</trkpt>
<trkpt lat="-27.274439" lon="151.290064">
  <ele>343.11</ele>
  <time>2026-09-01T19:50:15Z</time>
  <course>10.7</course>
  <speed>0.0</speed>
  <fix>3d</fix>
</trkpt>
<trkpt lat="-27.274439" lon="151.290064">
  <ele>343.1</ele>
  <time>2026-09-01T19:50:15Z</time>
  <course>270.0</course>
  <speed>0.0</speed>
  <fix>3d</fix>
</trkpt>
<trkpt lat="-27.274439" lon="151.290064">
  <ele>343.11</ele>
  <time>2026-09-01T19:50:15Z</time>
  <course>10.7</course>
  <speed>0.0</speed>
  <fix>3d</fix>
</trkpt>
<trkpt lat="-27.274439" lon="151.290064">
  <ele>343.1</ele>
  <time>2026-09-01T19:50:15Z</time>
  <course>270.0</course>
  <speed>0.0</speed>
  <fix>3d</fix>
</trkpt>
<trkpt lat="-27.274439" lon="151.290064">
  <ele>343.11</ele>
  <time>2026-09-01T19:50:15Z</time>
  <course>10.7</course>
  <speed>0.0</speed>
  <fix>3d</fix>
</trkpt>
<trkpt lat="-27.274439" lon="151.290064">
  <ele>343.1</ele>
  <time>2026-09-01T19:50:15Z</time>
  <course>270.0</course>
  <speed>0.0</speed>
  <fix>3d</fix>
</trkpt>
<trkpt lat="-27.274439" lon="151.290064">
  <ele>343.12</ele>
  <time>2026-09-01T19:50:15Z</time>
  <course>10.7</course>
  <speed>0.0</speed>
  <fix>3d</fix>
</trkpt>
<trkpt lat="-27.274439" lon="151.290064">
  <ele>343.1</ele>
  <time>2026-09-01T19:50:15Z</time>
  <course>270.0</course>
  <speed>0.0</speed>
  <fix>3d</fix>
</trkpt>
<trkpt lat="-27.274439" lon="151.290064">
  <ele>343.12</ele>
  <time>2026-09-01T19:50:15Z</time>
  <course>10.7</course>
  <speed>0.0</speed>
  <fix>3d</fix>
</trkpt>
<trkpt lat="-27.274439" lon="151.290064">
  <ele>343.1</ele>
  <time>2026-09-01T19:50:15Z</time>
  <course>270.0</course>
  <speed>0.0</speed>
  <fix>3d</fix>
</trkpt>
<trkpt lat="-27.274439" lon="151.290064">
  <ele>343.12</ele>
  <time>2026-09-01T19:50:15Z</time>
  <course>10.7</course>
  <speed>0.0</speed>
  <fix>3d</fix>
</trkpt>
<trkpt lat="-27.274439" lon="151.290064">
  <ele>343.1</ele>
  <time>2026-09-01T19:50:15Z</time>
  <course>270.0</course>
  <speed>0.0</speed>
  <fix>3d</fix>
</trkpt>
<trkpt lat="-27.274439" lon="151.290064">
  <ele>343.12</ele>
  <time>2026-09-01T19:50:15Z</time>
  <course>10.7</course>
  <speed>0.0</speed>
  <fix>3d</fix>
</trkpt>
<trkpt lat="-27.274439" lon="151.290064">
  <ele>343.1</ele>
  <time>2026-09-01T19:50:15Z</time>
  <course>270.0</course>
  <speed>0.0</speed>
  <fix>3d</fix>
</trkpt>
<trkpt lat="-27.274439" lon="151.290064">
  <ele>343.12</ele>
  <time>2026-09-01T19:50:15Z</time>
  <course>10.7</course>
  <speed>0.0</speed>
  <fix>3d</fix>
</trkpt>
<trkpt lat="-27.274439" lon="151.290064">
  <ele>343.1</ele>
  <time>2026-09-01T19:50:15Z</time>
  <course>270.0</course>
  <speed>0.0</speed>
  <fix>3d</fix>
</trkpt>
<trkpt lat="-27.274439" lon="151.290064">
  <ele>343.12</ele>
  <time>2026-09-01T19:50:15Z</time>
  <course>10.7</course>
  <speed>0.0</speed>
  <fix>3d</fix>
</trkpt>
<trkpt lat="-27.274439" lon="151.290064">
  <ele>343.1</ele>
  <time>2026-09-01T19:50:15Z</time>
  <course>270.0</course>
  <speed>0.0</speed>
  <fix>3d</fix>
</trkpt>
<trkpt lat="-27.274439" lon="151.290064">
  <ele>343.12</ele>
  <time>2026-09-01T19:50:15Z</time>
  <course>10.7</course>
  <speed>0.0</speed>
  <fix>3d</fix>
</trkpt>
<trkpt lat="-27.274439" lon="151.290064">
  <ele>343.1</ele>
  <time>2026-09-01T19:50:15Z</time>
  <course>270.0</course>
  <speed>0.0</speed>
  <fix>3d</fix>
</trkpt>
<trkpt lat="-27.274439" lon="151.290064">
  <ele>343.12</ele>
  <time>2026-09-01T19:50:15Z</time>
  <course>10.7</course>
  <speed>0.0</speed>
  <fix>3d</fix>
</trkpt>
<trkpt lat="-27.274439" lon="151.290064">
  <ele>343.1</ele>
  <time>2026-09-01T19:50:15Z</time>
  <course>270.0</course>
  <speed>0.0</speed>
  <fix>3d</fix>
</trkpt>
<trkpt lat="-27.274439" lon="151.290064">
  <ele>343.12</ele>
  <time>2026-09-01T19:50:15Z</time>
  <course>10.7</course>
  <speed>0.0</speed>
  <fix>3d</fix>
</trkpt>
<trkpt lat="-27.274439" lon="151.290064">
  <ele>343.1</ele>
  <time>2026-09-01T19:50:15Z</time>
  <course>270.0</course>
  <speed>0.0</speed>
  <fix>3d</fix>
</trkpt>
<trkpt lat="-27.274439" lon="151.290064">
  <ele>343.12</ele>
  <time>2026-09-01T19:50:15Z</time>
  <course>10.7</course>
  <speed>0.0</speed>
  <fix>3d</fix>
</trkpt>
<trkpt lat="-27.274439" lon="151.290064">
  <ele>343.1</ele>
  <time>2026-09-01T19:50:15Z</time>
  <course>270.0</course>
  <speed>0.0</speed>
  <fix>3d</fix>
</trkpt>
<trkpt lat="-27.274439" lon="151.290064">
  <ele>343.12</ele>
  <time>2026-09-01T19:50:15Z</time>
  <course>10.7</course>
  <speed>0.0</speed>
  <fix>3d</fix>
</trkpt>
<trkpt lat="-27.274439" lon="151.290064">
  <ele>343.1</ele>
  <time>2026-09-01T19:50:15Z</time>
  <course>270.0</course>
  <speed>0.0</speed>
  <fix>3d</fix>
</trkpt>
<trkpt lat="-27.274439" lon="151.290064">
  <ele>343.12</ele>
  <time>2026-09-01T19:50:15Z</time>
  <course>10.7</course>
  <speed>0.0</speed>
  <fix>3d</fix>
</trkpt>
<trkpt lat="-27.274439" lon="151.290064">
  <ele>343.1</ele>
  <time>2026-09-01T19:50:15Z</time>
  <course>270.0</course>
  <speed>0.0</speed>
  <fix>3d</fix>
</trkpt>
<trkpt lat="-27.274439" lon="151.290064">
  <ele>343.12</ele>
  <time>2026-09-01T19:50:15Z</time>
  <course>10.7</course>
  <speed>0.0</speed>
  <fix>3d</fix>
</trkpt>
<trkpt lat="-27.274439" lon="151.290064">
  <ele>343.1</ele>
  <time>2026-09-01T19:50:15Z</time>
  <course>270.0</course>
  <speed>0.0</speed>
  <fix>3d</fix>
</trkpt>
<trkpt lat="-27.274439" lon="151.290064">
  <ele>343.12</ele>
  <time>2026-09-01T19:50:15Z</time>
  <course>10.7</course>
  <speed>0.0</speed>
  <fix>3d</fix>
</trkpt>
<trkpt lat="-27.274439" lon="151.290064">
  <ele>343.1</ele>
  <time>2026-09-01T19:50:15Z</time>
  <course>270.0</course>
  <speed>0.0</speed>
  <fix>3d</fix>
</trkpt>
<trkpt lat="-27.274439" lon="151.290064">
  <ele>343.12</ele>
  <time>2026-09-01T19:50:15Z</time>
  <course>10.7</course>
  <speed>0.0</speed>
  <fix>3d</fix>
</trkpt>
<trkpt lat="-27.274439" lon="151.290064">
  <ele>343.1</ele>
  <time>2026-09-01T19:50:15Z</time>
  <course>270.0</course>
  <speed>0.0</speed>
  <fix>3d</fix>
</trkpt>
<trkpt lat="-27.274439" lon="151.290064">
  <ele>343.12</ele>
  <time>2026-09-01T19:50:15Z</time>
  <course>10.7</course>
  <speed>0.0</speed>
  <fix>3d</fix>
</trkpt>
<trkpt lat="-27.274439" lon="151.290064">
  <ele>343.1</ele>
  <time>2026-09-01T19:50:15Z</time>
  <course>270.0</course>
  <speed>0.0</speed>
  <fix>3d</fix>
</trkpt>
<trkpt lat="-27.274439" lon="151.290064">
  <ele>343.12</ele>
  <time>2026-09-01T19:50:15Z</time>
  <course>10.7</course>
  <speed>0.0</speed>
  <fix>3d</fix>
</trkpt>
<trkpt lat="-27.274439" lon="151.290064">
  <ele>343.1</ele>
  <time>2026-09-01T19:50:15Z</time>
  <course>270.0</course>
  <speed>0.0</speed>
  <fix>3d</fix>
</trkpt>
<trkpt lat="-27.274439" lon="151.290064">
  <ele>343.13</ele>
  <time>2026-09-01T19:50:15Z</time>
  <course>10.7</course>
  <speed>0.0</speed>
  <fix>3d</fix>
</trkpt>
<trkpt lat="-27.274439" lon="151.290064">
  <ele>343.1</ele>
  <time>2026-09-01T19:50:15Z</time>
  <course>270.0</course>
  <speed>0.0</speed>
  <fix>3d</fix>
</trkpt>
<trkpt lat="-27.274439" lon="151.290064">
  <ele>343.13</ele>
  <time>2026-09-01T19:50:15Z</time>
  <course>10.7</course>
  <speed>0.0</speed>
  <fix>3d</fix>
</trkpt>
<trkpt lat="-27.274439" lon="151.290064">
  <ele>343.1</ele>
  <time>2026-09-01T19:50:15Z</time>
  <course>270.0</course>
  <speed>0.0</speed>
  <fix>3d</fix>
</trkpt>
<trkpt lat="-27.274439" lon="151.290064">
  <ele>343.13</ele>
  <time>2026-09-01T19:50:15Z</time>
  <course>10.7</course>
  <speed>0.0</speed>
  <fix>3d</fix>
</trkpt>
<trkpt lat="-27.274439" lon="151.290064">
  <ele>343.1</ele>
  <time>2026-09-01T19:50:15Z</time>
  <course>270.0</course>
  <speed>0.0</speed>
  <fix>3d</fix>
</trkpt>
<trkpt lat="-27.274439" lon="151.290064">
  <ele>343.13</ele>
  <time>2026-09-01T19:50:15Z</time>
  <course>10.7</course>
  <speed>0.0</speed>
  <fix>3d</fix>
</trkpt>
<trkpt lat="-27.274439" lon="151.290064">
  <ele>343.1</ele>
  <time>2026-09-01T19:50:15Z</time>
  <course>270.0</course>
  <speed>0.0</speed>
  <fix>3d</fix>
</trkpt>
<trkpt lat="-27.274439" lon="151.290064">
  <ele>343.13</ele>
  <time>2026-09-01T19:50:15Z</time>
  <course>10.7</course>
  <speed>0.0</speed>
  <fix>3d</fix>
</trkpt>
<trkpt lat="-27.274439" lon="151.290064">
  <ele>343.1</ele>
  <time>2026-09-01T19:50:15Z</time>
  <course>270.0</course>
  <speed>0.0</speed>
  <fix>3d</fix>
</trkpt>
<trkpt lat="-27.274439" lon="151.290064">
  <ele>343.13</ele>
  <time>2026-09-01T19:50:15Z</time>
  <course>10.7</course>
  <speed>0.0</speed>
  <fix>3d</fix>
</trkpt>
<trkpt lat="-27.274439" lon="151.290064">
  <ele>343.1</ele>
  <time>2026-09-01T19:50:15Z</time>
  <course>270.0</course>
  <speed>0.0</speed>
  <fix>3d</fix>
</trkpt>
<trkpt lat="-27.274439" lon="151.290064">
  <ele>343.13</ele>
  <time>2026-09-01T19:50:15Z</time>
  <course>10.7</course>
  <speed>0.01</speed>
  <fix>3d</fix>
</trkpt>
<trkpt lat="-27.274439" lon="151.290064">
  <ele>343.1</ele>
  <time>2026-09-01T19:50:15Z</time>
  <course>270.0</course>
  <speed>0.0</speed>
  <fix>3d</fix>
</trkpt>
<trkpt lat="-27.274439" lon="151.290064">
  <ele>343.13</ele>
  <time>2026-09-01T19:50:15Z</time>
  <course>10.7</course>
  <speed>0.0</speed>
  <fix>3d</fix>
</trkpt>
<trkpt lat="-27.274439" lon="151.290064">
  <ele>343.1</ele>
  <time>2026-09-01T19:50:15Z</time>
  <course>270.0</course>
  <speed>0.0</speed>
  <fix>3d</fix>
</trkpt>
<trkpt lat="-27.274439" lon="151.290064">
  <ele>343.13</ele>
  <time>2026-09-01T19:50:15Z</time>
  <course>10.7</course>
  <speed>0.01</speed>
  <fix>3d</fix>
</trkpt>
<trkpt lat="-27.274439" lon="151.290064">
  <ele>343.1</ele>
  <time>2026-09-01T19:50:15Z</time>
  <course>270.0</course>
  <speed>0.0</speed>
  <fix>3d</fix>
</trkpt>
<trkpt lat="-27.274439" lon="151.290064">
  <ele>343.13</ele>
  <time>2026-09-01T19:50:15Z</time>
  <course>10.7</course>
  <speed>0.0</speed>
  <fix>3d</fix>
</trkpt>
<trkpt lat="-27.274439" lon="151.290064">
  <ele>343.1</ele>
  <time>2026-09-01T19:50:15Z</time>
  <course>270.0</course>
  <speed>0.0</speed>
  <fix>3d</fix>
</trkpt>
<trkpt lat="-27.274439" lon="151.290064">
  <ele>343.13</ele>
  <time>2026-09-01T19:50:15Z</time>
  <course>10.7</course>
  <speed>0.01</speed>
  <fix>3d</fix>
</trkpt>
<trkpt lat="-27.274439" lon="151.290064">
  <ele>343.1</ele>
  <time>2026-09-01T19:50:15Z</time>
  <course>270.0</course>
  <speed>0.0</speed>
  <fix>3d</fix>
</trkpt>
<trkpt lat="-27.274439" lon="151.290064">
  <ele>343.09</ele>
  <time>2026-09-01T19:50:15Z</time>
  <course>10.7</course>
  <speed>0.01</speed>
  <fix>3d</fix>
</trkpt>
<trkpt lat="-27.274439" lon="151.290064">
  <ele>343.1</ele>
  <time>2026-09-01T19:50:15Z</time>
  <course>270.0</course>
  <speed>0.0</speed>
  <fix>3d</fix>
</trkpt>
<trkpt lat="-27.274439" lon="151.290064">
  <ele>343.09</ele>
  <time>2026-09-01T19:50:15Z</time>
  <course>10.7</course>
  <speed>0.01</speed>
  <fix>3d</fix>
</trkpt>
<trkpt lat="-27.274439" lon="151.290064">
  <ele>343.1</ele>
  <time>2026-09-01T19:50:15Z</time>
  <course>270.0</course>
  <speed>0.0</speed>
  <fix>3d</fix>
</trkpt>
<trkpt lat="-27.274439" lon="151.290064">
  <ele>343.09</ele>
  <time>2026-09-01T19:50:15Z</time>
  <course>10.7</course>
  <speed>0.01</speed>
  <fix>3d</fix>
</trkpt>
<trkpt lat="-27.274439" lon="151.290064">
  <ele>343.1</ele>
  <time>2026-09-01T19:50:15Z</time>
  <course>270.0</course>
  <speed>0.0</speed>
  <fix>3d</fix>
</trkpt>
<trkpt lat="-27.274439" lon="151.290064">
  <ele>343.09</ele>
  <time>2026-09-01T19:50:15Z</time>
  <course>10.7</course>
  <speed>0.01</speed>
  <fix>3d</fix>
</trkpt>
<trkpt lat="-27.274439" lon="151.290064">
  <ele>343.1</ele>
  <time>2026-09-01T19:50:15Z</time>
  <course>270.0</course>
  <speed>0.0</speed>
  <fix>3d</fix>
</trkpt>
<trkpt lat="-27.274439" lon="151.290064">
  <ele>343.09</ele>
  <time>2026-09-01T19:50:15Z</time>
  <course>10.7</course>
  <speed>0.0</speed>
  <fix>3d</fix>
</trkpt>
<trkpt lat="-27.274439" lon="151.290064">
  <ele>343.1</ele>
  <time>2026-09-01T19:50:15Z</time>
  <course>270.0</course>
  <speed>0.0</speed>
  <fix>3d</fix>
</trkpt>
<trkpt lat="-27.274439" lon="151.290064">
  <ele>343.09</ele>
  <time>2026-09-01T19:50:15Z</time>
  <course>10.7</course>
  <speed>0.0</speed>
  <fix>3d</fix>
</trkpt>
<trkpt lat="-27.274439" lon="151.290064">
  <ele>343.1</ele>
  <time>2026-09-01T19:50:15Z</time>
  <course>270.0</course>
  <speed>0.0</speed>
  <fix>3d</fix>
</trkpt>
<trkpt lat="-27.274439" lon="151.290064">
  <ele>343.08</ele>
  <time>2026-09-01T19:50:15Z</time>
  <course>10.7</course>
  <speed>0.0</speed>
  <fix>3d</fix>
</trkpt>
<trkpt lat="-27.274439" lon="151.290064">
  <ele>343.1</ele>
  <time>2026-09-01T19:50:15Z</time>
  <course>270.0</course>
  <speed>0.0</speed>
  <fix>3d</fix>
</trkpt>
<trkpt lat="-27.274439" lon="151.290064">
  <ele>343.08</ele>
  <time>2026-09-01T19:50:15Z</time>
  <course>10.7</course>
  <speed>0.0</speed>
  <fix>3d</fix>
</trkpt>
<trkpt lat="-27.274439" lon="151.290064">
  <ele>343.1</ele>
  <time>2026-09-01T19:50:15Z</time>
  <course>270.0</course>
  <speed>0.0</speed>
  <fix>3d</fix>
</trkpt>
<trkpt lat="-27.274439" lon="151.290064">
  <ele>343.08</ele>
  <time>2026-09-01T19:50:15Z</time>
  <course>10.7</course>
  <speed>0.0</speed>
  <fix>3d</fix>
</trkpt>
<trkpt lat="-27.274439" lon="151.290064">
  <ele>343.1</ele>
  <time>2026-09-01T19:50:15Z</time>
  <course>270.0</course>
  <speed>0.0</speed>
  <fix>3d</fix>
</trkpt>
<trkpt lat="-27.274439" lon="151.290064">
  <ele>343.08</ele>
  <time>2026-09-01T19:50:15Z</time>
  <course>10.7</course>
  <speed>0.0</speed>
  <fix>3d</fix>
</trkpt>
<trkpt lat="-27.274439" lon="151.290064">
  <ele>343.1</ele>
  <time>2026-09-01T19:50:15Z</time>
  <course>270.0</course>
  <speed>0.0</speed>
  <fix>3d</fix>
</trkpt>
<trkpt lat="-27.274439" lon="151.290064">
  <ele>343.07</ele>
  <time>2026-09-01T19:50:15Z</time>
  <course>10.7</course>
  <speed>0.0</speed>
  <fix>3d</fix>
</trkpt>
<trkpt lat="-27.274439" lon="151.290064">
  <ele>343.1</ele>
  <time>2026-09-01T19:50:15Z</time>
  <course>270.0</course>
  <speed>0.0</speed>
  <fix>3d</fix>
</trkpt>
<trkpt lat="-27.274439" lon="151.290064">
  <ele>343.07</ele>
  <time>2026-09-01T19:50:15Z</time>
  <course>10.7</course>
  <speed>0.0</speed>
  <fix>3d</fix>
</trkpt>
<trkpt lat="-27.274439" lon="151.290064">
  <ele>343.1</ele>
  <time>2026-09-01T19:50:15Z</time>
  <course>270.0</course>
  <speed>0.0</speed>
  <fix>3d</fix>
</trkpt>
<trkpt lat="-27.274439" lon="151.290064">
  <ele>343.1</ele>
  <time>2026-09-01T19:50:15Z</time>
  <course>10.7</course>
  <speed>0.0</speed>
  <fix>3d</fix>
</trkpt>
<trkpt lat="-27.274439" lon="151.290064">
  <ele>343.1</ele>
  <time>2026-09-01T19:50:15Z</time>
  <course>270.0</course>
  <speed>0.0</speed>
  <fix>3d</fix>
</trkpt>
<trkpt lat="-27.274439" lon="151.290064">
  <ele>343.09</ele>
  <time>2026-09-01T19:50:15Z</time>
  <course>10.7</course>
  <speed>0.0</speed>
  <fix>3d</fix>
</trkpt>
<trkpt lat="-27.274439" lon="151.290064">
  <ele>343.1</ele>
  <time>2026-09-01T19:50:15Z</time>
  <course>270.0</course>
  <speed>0.0</speed>
  <fix>3d</fix>
</trkpt>
<trkpt lat="-27.274439" lon="151.290064">
  <ele>343.09</ele>
  <time>2026-09-01T19:50:15Z</time>
  <course>10.7</course>
  <speed>0.0</speed>
  <fix>3d</fix>
</trkpt>
<trkpt lat="-27.274439" lon="151.290064">
  <ele>343.1</ele>
  <time>2026-09-01T19:50:15Z</time>
  <course>270.0</course>
  <speed>0.0</speed>
  <fix>3d</fix>
</trkpt>
<trkpt lat="-27.274439" lon="151.290064">
  <ele>343.09</ele>
  <time>2026-09-01T19:50:15Z</time>
  <course>10.7</course>
  <speed>0.0</speed>
  <fix>3d</fix>
</trkpt>
<trkpt lat="-27.274439" lon="151.290064">
  <ele>343.1</ele>
  <time>2026-09-01T19:50:15Z</time>
  <course>270.0</course>
  <speed>0.0</speed>
  <fix>3d</fix>
</trkpt>
<trkpt lat="-27.274439" lon="151.290064">
  <ele>343.09</ele>
  <time>2026-09-01T19:50:15Z</time>
  <course>10.7</course>
  <speed>0.0</speed>
  <fix>3d</fix>
</trkpt>
<trkpt lat="-27.274439" lon="151.290064">
  <ele>343.1</ele>
  <time>2026-09-01T19:50:15Z</time>
  <course>270.0</course>
  <speed>0.0</speed>
  <fix>3d</fix>
</trkpt>
<trkpt lat="-27.274439" lon="151.290064">
  <ele>343.08</ele>
  <time>2026-09-01T19:50:15Z</time>
  <course>10.7</course>
  <speed>0.0</speed>
  <fix>3d</fix>
</trkpt>
<trkpt lat="-27.274439" lon="151.290064">
  <ele>343.1</ele>
  <time>2026-09-01T19:50:15Z</time>
  <course>270.0</course>
  <speed>0.0</speed>
  <fix>3d</fix>
</trkpt>
<trkpt lat="-27.274439" lon="151.290064">
  <ele>343.08</ele>
  <time>2026-09-01T19:50:15Z</time>
  <course>10.7</course>
  <speed>0.0</speed>
  <fix>3d</fix>
</trkpt>
<trkpt lat="-27.274439" lon="151.290064">
  <ele>343.1</ele>
  <time>2026-09-01T19:50:15Z</time>
  <course>270.0</course>
  <speed>0.0</speed>
  <fix>3d</fix>
</trkpt>
<trkpt lat="-27.274439" lon="151.290064">
  <ele>343.07</ele>
  <time>2026-09-01T19:50:15Z</time>
  <course>10.7</course>
  <speed>0.0</speed>
  <fix>3d</fix>
</trkpt>
<trkpt lat="-27.274439" lon="151.290064">
  <ele>343.1</ele>
  <time>2026-09-01T19:50:15Z</time>
  <course>270.0</course>
  <speed>0.0</speed>
  <fix>3d</fix>
</trkpt>
<trkpt lat="-27.274439" lon="151.290064">
  <ele>343.06</ele>
  <time>2026-09-01T19:50:15Z</time>
  <course>10.7</course>
  <speed>0.0</speed>
  <fix>3d</fix>
</trkpt>
<trkpt lat="-27.274439" lon="151.290064">
  <ele>343.1</ele>
  <time>2026-09-01T19:50:15Z</time>
  <course>270.0</course>
  <speed>0.0</speed>
  <fix>3d</fix>
</trkpt>
<trkpt lat="-27.274439" lon="151.290064">
  <ele>343.06</ele>
  <time>2026-09-01T19:50:15Z</time>
  <course>10.7</course>
  <speed>0.0</speed>
  <fix>3d</fix>
</trkpt>
<trkpt lat="-27.274439" lon="151.290064">
  <ele>343.1</ele>
  <time>2026-09-01T19:50:15Z</time>
  <course>270.0</course>
  <speed>0.0</speed>
  <fix>3d</fix>
</trkpt>
<trkpt lat="-27.274439" lon="151.290064">
  <ele>343.05</ele>
  <time>2026-09-01T19:50:15Z</time>
  <course>10.7</course>
  <speed>0.0</speed>
  <fix>3d</fix>
</trkpt>
<trkpt lat="-27.274439" lon="151.290064">
  <ele>343.1</ele>
  <time>2026-09-01T19:50:15Z</time>
  <course>270.0</course>
  <speed>0.0</speed>
  <fix>3d</fix>
</trkpt>
<trkpt lat="-27.274439" lon="151.290064">
  <ele>343.05</ele>
  <time>2026-09-01T19:50:15Z</time>
  <course>10.7</course>
  <speed>0.0</speed>
  <fix>3d</fix>
</trkpt>
<trkpt lat="-27.274439" lon="151.290064">
  <ele>343.1</ele>
  <time>2026-09-01T19:50:15Z</time>
  <course>270.0</course>
  <speed>0.0</speed>
  <fix>3d</fix>
</trkpt>
<trkpt lat="-27.274439" lon="151.290064">
  <ele>343.04</ele>
  <time>2026-09-01T19:50:15Z</time>
  <course>10.7</course>
  <speed>0.0</speed>
  <fix>3d</fix>
</trkpt>
<trkpt lat="-27.274439" lon="151.290064">
  <ele>343.1</ele>
  <time>2026-09-01T19:50:15Z</time>
  <course>270.0</course>
  <speed>0.0</speed>
  <fix>3d</fix>
</trkpt>
<trkpt lat="-27.274439" lon="151.290064">
  <ele>343.03</ele>
  <time>2026-09-01T19:50:15Z</time>
  <course>10.7</course>
  <speed>0.0</speed>
  <fix>3d</fix>
</trkpt>
<trkpt lat="-27.274439" lon="151.290064">
  <ele>343.1</ele>
  <time>2026-09-01T19:50:15Z</time>
  <course>270.0</course>
  <speed>0.0</speed>
  <fix>3d</fix>
</trkpt>
<trkpt lat="-27.274439" lon="151.290064">
  <ele>343.03</ele>
  <time>2026-09-01T19:50:15Z</time>
  <course>10.7</course>
  <speed>0.0</speed>
  <fix>3d</fix>
</trkpt>
<trkpt lat="-27.274439" lon="151.290064">
  <ele>343.1</ele>
  <time>2026-09-01T19:50:15Z</time>
  <course>270.0</course>
  <speed>0.0</speed>
  <fix>3d</fix>
</trkpt>
<trkpt lat="-27.274439" lon="151.290064">
  <ele>343.02</ele>
  <time>2026-09-01T19:50:15Z</time>
  <course>10.7</course>
  <speed>0.0</speed>
  <fix>3d</fix>
</trkpt>
<trkpt lat="-27.274439" lon="151.290064">
  <ele>343.1</ele>
  <time>2026-09-01T19:50:15Z</time>
  <course>270.0</course>
  <speed>0.0</speed>
  <fix>3d</fix>
</trkpt>
<trkpt lat="-27.274439" lon="151.290064">
  <ele>343.02</ele>
  <time>2026-09-01T19:50:15Z</time>
  <course>10.7</course>
  <speed>0.0</speed>
  <fix>3d</fix>
</trkpt>
<trkpt lat="-27.274439" lon="151.290064">
  <ele>343.1</ele>
  <time>2026-09-01T19:50:15Z</time>
  <course>270.0</course>
  <speed>0.0</speed>
  <fix>3d</fix>
</trkpt>
<trkpt lat="-27.274439" lon="151.290064">
  <ele>343.01</ele>
  <time>2026-09-01T19:50:15Z</time>
  <course>10.7</course>
  <speed>0.0</speed>
  <fix>3d</fix>
</trkpt>
<trkpt lat="-27.274439" lon="151.290064">
  <ele>343.1</ele>
  <time>2026-09-01T19:50:15Z</time>
  <course>270.0</course>
  <speed>0.0</speed>
  <fix>3d</fix>
</trkpt>
<trkpt lat="-27.274439" lon="151.290064">
  <ele>343.01</ele>
  <time>2026-09-01T19:50:15Z</time>
  <course>10.7</course>
  <speed>0.0</speed>
  <fix>3d</fix>
</trkpt>
<trkpt lat="-27.274439" lon="151.290064">
  <ele>343.1</ele>
  <time>2026-09-01T19:50:15Z</time>
  <course>270.0</course>
  <speed>0.0</speed>
  <fix>3d</fix>
</trkpt>
<trkpt lat="-27.274439" lon="151.290064">
  <ele>343.0</ele>
  <time>2026-09-01T19:50:15Z</time>
  <course>10.7</course>
  <speed>0.0</speed>
  <fix>3d</fix>
</trkpt>
<trkpt lat="-27.274439" lon="151.290064">
  <ele>343.1</ele>
  <time>2026-09-01T19:50:15Z</time>
  <course>270.0</course>
  <speed>0.0</speed>
  <fix>3d</fix>
</trkpt>
<trkpt lat="-27.274439" lon="151.290064">
  <ele>342.99</ele>
  <time>2026-09-01T19:50:15Z</time>
  <course>10.7</course>
  <speed>0.0</speed>
  <fix>3d</fix>
</trkpt>
<trkpt lat="-27.274439" lon="151.290064">
  <ele>343.1</ele>
  <time>2026-09-01T19:50:15Z</time>
  <course>270.0</course>
  <speed>0.0</speed>
  <fix>3d</fix>
</trkpt>
<trkpt lat="-27.274439" lon="151.290064">
  <ele>342.99</ele>
  <time>2026-09-01T19:50:15Z</time>
  <course>10.7</course>
  <speed>0.01</speed>
  <fix>3d</fix>
</trkpt>
<trkpt lat="-27.274439" lon="151.290064">
  <ele>343.1</ele>
  <time>2026-09-01T19:50:15Z</time>
  <course>270.0</course>
  <speed>0.0</speed>
  <fix>3d</fix>
</trkpt>
<trkpt lat="-27.274439" lon="151.290064">
  <ele>342.99</ele>
  <time>2026-09-01T19:50:15Z</time>
  <course>10.7</course>
  <speed>0.01</speed>
  <fix>3d</fix>
</trkpt>
<trkpt lat="-27.274439" lon="151.290064">
  <ele>343.1</ele>
  <time>2026-09-01T19:50:15Z</time>
  <course>270.0</course>
  <speed>0.0</speed>
  <fix>3d</fix>
</trkpt>
<trkpt lat="-27.274439" lon="151.290064">
  <ele>342.98</ele>
  <time>2026-09-01T19:50:15Z</time>
  <course>10.7</course>
  <speed>0.01</speed>
  <fix>3d</fix>
</trkpt>
<trkpt lat="-27.274439" lon="151.290064">
  <ele>343.1</ele>
  <time>2026-09-01T19:50:15Z</time>
  <course>270.0</course>
  <speed>0.0</speed>
  <fix>3d</fix>
</trkpt>
<trkpt lat="-27.274439" lon="151.290064">
  <ele>342.98</ele>
  <time>2026-09-01T19:50:15Z</time>
  <course>10.7</course>
  <speed>0.01</speed>
  <fix>3d</fix>
</trkpt>
<trkpt lat="-27.274439" lon="151.290064">
  <ele>343.1</ele>
  <time>2026-09-01T19:50:15Z</time>
  <course>270.0</course>
  <speed>0.0</speed>
  <fix>3d</fix>
</trkpt>
<trkpt lat="-27.274439" lon="151.290064">
  <ele>342.98</ele>
  <time>2026-09-01T19:50:16Z</time>
  <course>10.7</course>
  <speed>0.01</speed>
  <fix>3d</fix>
</trkpt>
<trkpt lat="-27.274439" lon="151.290064">
  <ele>343.1</ele>
  <time>2026-09-01T19:50:16Z</time>
  <course>270.0</course>
  <speed>0.0</speed>
  <fix>3d</fix>
</trkpt>
<trkpt lat="-27.274439" lon="151.290064">
  <ele>342.98</ele>
  <time>2026-09-01T19:50:16Z</time>
  <course>10.7</course>
  <speed>0.01</speed>
  <fix>3d</fix>
</trkpt>
<trkpt lat="-27.274439" lon="151.290064">
  <ele>343.1</ele>
  <time>2026-09-01T19:50:16Z</time>
  <course>270.0</course>
  <speed>0.0</speed>
  <fix>3d</fix>
</trkpt>
<trkpt lat="-27.274439" lon="151.290064">
  <ele>342.97</ele>
  <time>2026-09-01T19:50:16Z</time>
  <course>10.7</course>
  <speed>0.01</speed>
  <fix>3d</fix>
</trkpt>
<trkpt lat="-27.274439" lon="151.290064">
  <ele>343.1</ele>
  <time>2026-09-01T19:50:16Z</time>
  <course>270.0</course>
  <speed>0.0</speed>
  <fix>3d</fix>
</trkpt>
<trkpt lat="-27.274439" lon="151.290064">
  <ele>342.97</ele>
  <time>2026-09-01T19:50:16Z</time>
  <course>10.7</course>
  <speed>0.01</speed>
  <fix>3d</fix>
</trkpt>
<trkpt lat="-27.274439" lon="151.290064">
  <ele>343.1</ele>
  <time>2026-09-01T19:50:16Z</time>
  <course>270.0</course>
  <speed>0.0</speed>
  <fix>3d</fix>
</trkpt>
<trkpt lat="-27.274439" lon="151.290064">
  <ele>342.97</ele>
  <time>2026-09-01T19:50:16Z</time>
  <course>10.7</course>
  <speed>0.01</speed>
  <fix>3d</fix>
</trkpt>
<trkpt lat="-27.274439" lon="151.290064">
  <ele>343.1</ele>
  <time>2026-09-01T19:50:16Z</time>
  <course>270.0</course>
  <speed>0.0</speed>
  <fix>3d</fix>
</trkpt>
<trkpt lat="-27.274439" lon="151.290064">
  <ele>342.96</ele>
  <time>2026-09-01T19:50:16Z</time>
  <course>10.7</course>
  <speed>0.01</speed>
  <fix>3d</fix>
</trkpt>
<trkpt lat="-27.274439" lon="151.290064">
  <ele>343.1</ele>
  <time>2026-09-01T19:50:16Z</time>
  <course>270.0</course>
  <speed>0.0</speed>
  <fix>3d</fix>
</trkpt>
<trkpt lat="-27.274439" lon="151.290064">
  <ele>342.96</ele>
  <time>2026-09-01T19:50:16Z</time>
  <course>10.7</course>
  <speed>0.01</speed>
  <fix>3d</fix>
</trkpt>
<trkpt lat="-27.274439" lon="151.290064">
  <ele>343.1</ele>
  <time>2026-09-01T19:50:16Z</time>
  <course>270.0</course>
  <speed>0.0</speed>
  <fix>3d</fix>
</trkpt>
<trkpt lat="-27.274439" lon="151.290064">
  <ele>342.96</ele>
  <time>2026-09-01T19:50:16Z</time>
  <course>10.7</course>
  <speed>0.01</speed>
  <fix>3d</fix>
</trkpt>
<trkpt lat="-27.274439" lon="151.290064">
  <ele>343.1</ele>
  <time>2026-09-01T19:50:16Z</time>
  <course>270.0</course>
  <speed>0.0</speed>
  <fix>3d</fix>
</trkpt>
<trkpt lat="-27.274439" lon="151.290064">
  <ele>342.96</ele>
  <time>2026-09-01T19:50:16Z</time>
  <course>10.7</course>
  <speed>0.01</speed>
  <fix>3d</fix>
</trkpt>
<trkpt lat="-27.274439" lon="151.290064">
  <ele>343.1</ele>
  <time>2026-09-01T19:50:16Z</time>
  <course>270.0</course>
  <speed>0.0</speed>
  <fix>3d</fix>
</trkpt>
<trkpt lat="-27.274439" lon="151.290064">
  <ele>342.96</ele>
  <time>2026-09-01T19:50:16Z</time>
  <course>10.7</course>
  <speed>0.01</speed>
  <fix>3d</fix>
</trkpt>
<trkpt lat="-27.274439" lon="151.290064">
  <ele>343.1</ele>
  <time>2026-09-01T19:50:16Z</time>
  <course>270.0</course>
  <speed>0.0</speed>
  <fix>3d</fix>
</trkpt>
<trkpt lat="-27.274439" lon="151.290064">
  <ele>342.95</ele>
  <time>2026-09-01T19:50:16Z</time>
  <course>10.7</course>
  <speed>0.01</speed>
  <fix>3d</fix>
</trkpt>
<trkpt lat="-27.274439" lon="151.290064">
  <ele>343.1</ele>
  <time>2026-09-01T19:50:16Z</time>
  <course>270.0</course>
  <speed>0.0</speed>
  <fix>3d</fix>
</trkpt>
<trkpt lat="-27.274439" lon="151.290064">
  <ele>342.95</ele>
  <time>2026-09-01T19:50:16Z</time>
  <course>10.69</course>
  <speed>0.01</speed>
  <fix>3d</fix>
</trkpt>
<trkpt lat="-27.274439" lon="151.290064">
  <ele>343.1</ele>
  <time>2026-09-01T19:50:16Z</time>
  <course>270.0</course>
  <speed>0.0</speed>
  <fix>3d</fix>
</trkpt>
<trkpt lat="-27.274439" lon="151.290064">
  <ele>342.95</ele>
  <time>2026-09-01T19:50:16Z</time>
  <course>10.69</course>
  <speed>0.01</speed>
  <fix>3d</fix>
</trkpt>
<trkpt lat="-27.274439" lon="151.290064">
  <ele>343.1</ele>
  <time>2026-09-01T19:50:16Z</time>
  <course>270.0</course>
  <speed>0.0</speed>
  <fix>3d</fix>
</trkpt>
<trkpt lat="-27.274439" lon="151.290064">
  <ele>342.95</ele>
  <time>2026-09-01T19:50:16Z</time>
  <course>10.69</course>
  <speed>0.01</speed>
  <fix>3d</fix>
</trkpt>
<trkpt lat="-27.274439" lon="151.290064">
  <ele>343.1</ele>
  <time>2026-09-01T19:50:16Z</time>
  <course>270.0</course>
  <speed>0.0</speed>
  <fix>3d</fix>
</trkpt>
<trkpt lat="-27.274439" lon="151.290064">
  <ele>342.95</ele>
  <time>2026-09-01T19:50:16Z</time>
  <course>10.69</course>
  <speed>0.01</speed>
  <fix>3d</fix>
</trkpt>
<trkpt lat="-27.274439" lon="151.290064">
  <ele>343.1</ele>
  <time>2026-09-01T19:50:16Z</time>
  <course>270.0</course>
  <speed>0.0</speed>
  <fix>3d</fix>
</trkpt>
<trkpt lat="-27.274439" lon="151.290064">
  <ele>342.95</ele>
  <time>2026-09-01T19:50:16Z</time>
  <course>10.69</course>
  <speed>0.01</speed>
  <fix>3d</fix>
</trkpt>
<trkpt lat="-27.274439" lon="151.290064">
  <ele>343.1</ele>
  <time>2026-09-01T19:50:16Z</time>
  <course>270.0</course>
  <speed>0.0</speed>
  <fix>3d</fix>
</trkpt>
<trkpt lat="-27.2744391" lon="151.290064">
  <ele>342.95</ele>
  <time>2026-09-01T19:50:16Z</time>
  <course>10.69</course>
  <speed>0.01</speed>
  <fix>3d</fix>
</trkpt>
<trkpt lat="-27.274439" lon="151.290064">
  <ele>343.1</ele>
  <time>2026-09-01T19:50:16Z</time>
  <course>270.0</course>
  <speed>0.0</speed>
  <fix>3d</fix>
</trkpt>
<trkpt lat="-27.2744391" lon="151.290064">
  <ele>342.94</ele>
  <time>2026-09-01T19:50:16Z</time>
  <course>10.69</course>
  <speed>0.01414213562373095</speed>
  <fix>3d</fix>
</trkpt>
<trkpt lat="-27.274439" lon="151.290064">
  <ele>343.1</ele>
  <time>2026-09-01T19:50:16Z</time>
  <course>270.0</course>
  <speed>0.0</speed>
  <fix>3d</fix>
</trkpt>
<trkpt lat="-27.2744391" lon="151.290064">
  <ele>342.94</ele>
  <time>2026-09-01T19:50:16Z</time>
  <course>10.69</course>
  <speed>0.01414213562373095</speed>
  <fix>3d</fix>
</trkpt>
<trkpt lat="-27.274439" lon="151.290064">
  <ele>343.1</ele>
  <time>2026-09-01T19:50:16Z</time>
  <course>270.0</course>
  <speed>0.0</speed>
  <fix>3d</fix>
</trkpt>
<trkpt lat="-27.2744391" lon="151.290064">
  <ele>342.94</ele>
  <time>2026-09-01T19:50:16Z</time>
  <course>10.69</course>
  <speed>0.01414213562373095</speed>
  <fix>3d</fix>
</trkpt>
<trkpt lat="-27.274439" lon="151.290064">
  <ele>343.1</ele>
  <time>2026-09-01T19:50:16Z</time>
  <course>270.0</course>
  <speed>0.0</speed>
  <fix>3d</fix>
</trkpt>
<trkpt lat="-27.2744391" lon="151.290064">
  <ele>342.94</ele>
  <time>2026-09-01T19:50:16Z</time>
  <course>10.69</course>
  <speed>0.01414213562373095</speed>
  <fix>3d</fix>
</trkpt>
<trkpt lat="-27.274439" lon="151.290064">
  <ele>343.1</ele>
  <time>2026-09-01T19:50:16Z</time>
  <course>270.0</course>
  <speed>0.0</speed>
  <fix>3d</fix>
</trkpt>
<trkpt lat="-27.2744391" lon="151.290064">
  <ele>342.94</ele>
  <time>2026-09-01T19:50:16Z</time>
  <course>10.69</course>
  <speed>0.01414213562373095</speed>
  <fix>3d</fix>
</trkpt>
<trkpt lat="-27.274439" lon="151.290064">
  <ele>343.1</ele>
  <time>2026-09-01T19:50:16Z</time>
  <course>270.0</course>
  <speed>0.0</speed>
  <fix>3d</fix>
</trkpt>
<trkpt lat="-27.2744391" lon="151.290064">
  <ele>342.93</ele>
  <time>2026-09-01T19:50:16Z</time>
  <course>10.69</course>
  <speed>0.01414213562373095</speed>
  <fix>3d</fix>
</trkpt>
<trkpt lat="-27.274439" lon="151.290064">
  <ele>343.1</ele>
  <time>2026-09-01T19:50:16Z</time>
  <course>270.0</course>
  <speed>0.0</speed>
  <fix>3d</fix>
</trkpt>
<trkpt lat="-27.2744391" lon="151.290064">
  <ele>342.93</ele>
  <time>2026-09-01T19:50:16Z</time>
  <course>10.69</course>
  <speed>0.01414213562373095</speed>
  <fix>3d</fix>
</trkpt>
<trkpt lat="-27.274439" lon="151.290064">
  <ele>343.1</ele>
  <time>2026-09-01T19:50:16Z</time>
  <course>270.0</course>
  <speed>0.0</speed>
  <fix>3d</fix>
</trkpt>
<trkpt lat="-27.2744391" lon="151.290064">
  <ele>342.93</ele>
  <time>2026-09-01T19:50:16Z</time>
  <course>10.69</course>
  <speed>0.01414213562373095</speed>
  <fix>3d</fix>
</trkpt>
<trkpt lat="-27.274439" lon="151.290064">
  <ele>343.1</ele>
  <time>2026-09-01T19:50:16Z</time>
  <course>270.0</course>
  <speed>0.0</speed>
  <fix>3d</fix>
</trkpt>
<trkpt lat="-27.2744391" lon="151.290064">
  <ele>342.93</ele>
  <time>2026-09-01T19:50:16Z</time>
  <course>10.69</course>
  <speed>0.01414213562373095</speed>
  <fix>3d</fix>
</trkpt>
<trkpt lat="-27.274439" lon="151.290064">
  <ele>343.1</ele>
  <time>2026-09-01T19:50:16Z</time>
  <course>270.0</course>
  <speed>0.0</speed>
  <fix>3d</fix>
</trkpt>
<trkpt lat="-27.2744391" lon="151.290064">
  <ele>342.93</ele>
  <time>2026-09-01T19:50:16Z</time>
  <course>10.69</course>
  <speed>0.01414213562373095</speed>
  <fix>3d</fix>
</trkpt>
<trkpt lat="-27.274439" lon="151.290064">
  <ele>343.1</ele>
  <time>2026-09-01T19:50:16Z</time>
  <course>270.0</course>
  <speed>0.0</speed>
  <fix>3d</fix>
</trkpt>
<trkpt lat="-27.2744391" lon="151.290064">
  <ele>342.93</ele>
  <time>2026-09-01T19:50:16Z</time>
  <course>10.69</course>
  <speed>0.01414213562373095</speed>
  <fix>3d</fix>
</trkpt>
<trkpt lat="-27.274439" lon="151.290064">
  <ele>343.1</ele>
  <time>2026-09-01T19:50:16Z</time>
  <course>270.0</course>
  <speed>0.0</speed>
  <fix>3d</fix>
</trkpt>
<trkpt lat="-27.2744391" lon="151.290064">
  <ele>342.93</ele>
  <time>2026-09-01T19:50:16Z</time>
  <course>10.69</course>
  <speed>0.01414213562373095</speed>
  <fix>3d</fix>
</trkpt>
<trkpt lat="-27.274439" lon="151.290064">
  <ele>343.1</ele>
  <time>2026-09-01T19:50:16Z</time>
  <course>270.0</course>
  <speed>0.0</speed>
  <fix>3d</fix>
</trkpt>
<trkpt lat="-27.2744391" lon="151.290064">
  <ele>342.93</ele>
  <time>2026-09-01T19:50:16Z</time>
  <course>10.69</course>
  <speed>0.01414213562373095</speed>
  <fix>3d</fix>
</trkpt>
<trkpt lat="-27.274439" lon="151.290064">
  <ele>343.1</ele>
  <time>2026-09-01T19:50:16Z</time>
  <course>270.0</course>
  <speed>0.0</speed>
  <fix>3d</fix>
</trkpt>
<trkpt lat="-27.2744391" lon="151.290064">
  <ele>342.92</ele>
  <time>2026-09-01T19:50:16Z</time>
  <course>10.69</course>
  <speed>0.01414213562373095</speed>
  <fix>3d</fix>
</trkpt>
<trkpt lat="-27.274439" lon="151.290064">
  <ele>343.1</ele>
  <time>2026-09-01T19:50:16Z</time>
  <course>270.0</course>
  <speed>0.0</speed>
  <fix>3d</fix>
</trkpt>
<trkpt lat="-27.2744391" lon="151.290064">
  <ele>342.92</ele>
  <time>2026-09-01T19:50:16Z</time>
  <course>10.69</course>
  <speed>0.01414213562373095</speed>
  <fix>3d</fix>
</trkpt>
<trkpt lat="-27.274439" lon="151.290064">
  <ele>343.1</ele>
  <time>2026-09-01T19:50:16Z</time>
  <course>270.0</course>
  <speed>0.0</speed>
  <fix>3d</fix>
</trkpt>
<trkpt lat="-27.2744391" lon="151.290064">
  <ele>342.92</ele>
  <time>2026-09-01T19:50:16Z</time>
  <course>10.69</course>
  <speed>0.01414213562373095</speed>
  <fix>3d</fix>
</trkpt>
<trkpt lat="-27.274439" lon="151.290064">
  <ele>343.1</ele>
  <time>2026-09-01T19:50:16Z</time>
  <course>270.0</course>
  <speed>0.0</speed>
  <fix>3d</fix>
</trkpt>
<trkpt lat="-27.2744391" lon="151.290064">
  <ele>342.92</ele>
  <time>2026-09-01T19:50:16Z</time>
  <course>10.69</course>
  <speed>0.01414213562373095</speed>
  <fix>3d</fix>
</trkpt>
<trkpt lat="-27.274439" lon="151.290064">
  <ele>343.1</ele>
  <time>2026-09-01T19:50:16Z</time>
  <course>270.0</course>
  <speed>0.0</speed>
  <fix>3d</fix>
</trkpt>
<trkpt lat="-27.2744391" lon="151.290064">
  <ele>342.93</ele>
  <time>2026-09-01T19:50:16Z</time>
  <course>10.69</course>
  <speed>0.01414213562373095</speed>
  <fix>3d</fix>
</trkpt>
<trkpt lat="-27.274439" lon="151.290064">
  <ele>343.1</ele>
  <time>2026-09-01T19:50:16Z</time>
  <course>270.0</course>
  <speed>0.0</speed>
  <fix>3d</fix>
</trkpt>
<trkpt lat="-27.2744391" lon="151.290064">
  <ele>343.09</ele>
  <time>2026-09-01T19:50:16Z</time>
  <course>10.69</course>
  <speed>0.01414213562373095</speed>
  <fix>3d</fix>
</trkpt>
<trkpt lat="-27.274439" lon="151.290064">
  <ele>343.1</ele>
  <time>2026-09-01T19:50:16Z</time>
  <course>270.0</course>
  <speed>0.0</speed>
  <fix>3d</fix>
</trkpt>
<trkpt lat="-27.2744391" lon="151.290064">
  <ele>343.09</ele>
  <time>2026-09-01T19:50:16Z</time>
  <course>10.69</course>
  <speed>0.01414213562373095</speed>
  <fix>3d</fix>
</trkpt>
<trkpt lat="-27.274439" lon="151.290064">
  <ele>343.1</ele>
  <time>2026-09-01T19:50:16Z</time>
  <course>270.0</course>
  <speed>0.0</speed>
  <fix>3d</fix>
</trkpt>
<trkpt lat="-27.2744391" lon="151.290064">
  <ele>343.09</ele>
  <time>2026-09-01T19:50:16Z</time>
  <course>10.69</course>
  <speed>0.01414213562373095</speed>
  <fix>3d</fix>
</trkpt>
<trkpt lat="-27.274439" lon="151.290064">
  <ele>343.1</ele>
  <time>2026-09-01T19:50:16Z</time>
  <course>270.0</course>
  <speed>0.0</speed>
  <fix>3d</fix>
</trkpt>
<trkpt lat="-27.2744391" lon="151.290064">
  <ele>343.09</ele>
  <time>2026-09-01T19:50:16Z</time>
  <course>10.69</course>
  <speed>0.01414213562373095</speed>
  <fix>3d</fix>
</trkpt>
<trkpt lat="-27.274439" lon="151.290064">
  <ele>343.1</ele>
  <time>2026-09-01T19:50:16Z</time>
  <course>270.0</course>
  <speed>0.0</speed>
  <fix>3d</fix>
</trkpt>
<trkpt lat="-27.2744391" lon="151.290064">
  <ele>343.09</ele>
  <time>2026-09-01T19:50:16Z</time>
  <course>10.69</course>
  <speed>0.01414213562373095</speed>
  <fix>3d</fix>
</trkpt>
<trkpt lat="-27.274439" lon="151.290064">
  <ele>343.1</ele>
  <time>2026-09-01T19:50:16Z</time>
  <course>270.0</course>
  <speed>0.0</speed>
  <fix>3d</fix>
</trkpt>
<trkpt lat="-27.2744391" lon="151.290064">
  <ele>343.09</ele>
  <time>2026-09-01T19:50:16Z</time>
  <course>10.69</course>
  <speed>0.01414213562373095</speed>
  <fix>3d</fix>
</trkpt>
<trkpt lat="-27.274439" lon="151.290064">
  <ele>343.1</ele>
  <time>2026-09-01T19:50:16Z</time>
  <course>270.0</course>
  <speed>0.0</speed>
  <fix>3d</fix>
</trkpt>
<trkpt lat="-27.2744391" lon="151.290064">
  <ele>343.09</ele>
  <time>2026-09-01T19:50:16Z</time>
  <course>10.69</course>
  <speed>0.01414213562373095</speed>
  <fix>3d</fix>
</trkpt>
<trkpt lat="-27.274439" lon="151.290064">
  <ele>343.1</ele>
  <time>2026-09-01T19:50:16Z</time>
  <course>270.0</course>
  <speed>0.0</speed>
  <fix>3d</fix>
</trkpt>
<trkpt lat="-27.2744391" lon="151.290064">
  <ele>343.09</ele>
  <time>2026-09-01T19:50:16Z</time>
  <course>10.69</course>
  <speed>0.01414213562373095</speed>
  <fix>3d</fix>
</trkpt>
<trkpt lat="-27.274439" lon="151.290064">
  <ele>343.1</ele>
  <time>2026-09-01T19:50:16Z</time>
  <course>270.0</course>
  <speed>0.0</speed>
  <fix>3d</fix>
</trkpt>
<trkpt lat="-27.2744391" lon="151.290064">
  <ele>343.1</ele>
  <time>2026-09-01T19:50:16Z</time>
  <course>10.69</course>
  <speed>0.01414213562373095</speed>
  <fix>3d</fix>
</trkpt>
<trkpt lat="-27.274439" lon="151.290064">
  <ele>343.1</ele>
  <time>2026-09-01T19:50:16Z</time>
  <course>270.0</course>
  <speed>0.0</speed>
  <fix>3d</fix>
</trkpt>
<trkpt lat="-27.2744391" lon="151.290064">
  <ele>343.1</ele>
  <time>2026-09-01T19:50:16Z</time>
  <course>10.69</course>
  <speed>0.01414213562373095</speed>
  <fix>3d</fix>
</trkpt>
<trkpt lat="-27.274439" lon="151.290064">
  <ele>343.1</ele>
  <time>2026-09-01T19:50:16Z</time>
  <course>270.0</course>
  <speed>0.0</speed>
  <fix>3d</fix>
</trkpt>
<trkpt lat="-27.2744391" lon="151.290064">
  <ele>343.1</ele>
  <time>2026-09-01T19:50:16Z</time>
  <course>10.69</course>
  <speed>0.01414213562373095</speed>
  <fix>3d</fix>
</trkpt>
<trkpt lat="-27.274439" lon="151.290064">
  <ele>343.1</ele>
  <time>2026-09-01T19:50:16Z</time>
  <course>270.0</course>
  <speed>0.0</speed>
  <fix>3d</fix>
</trkpt>
<trkpt lat="-27.2744391" lon="151.290064">
  <ele>343.1</ele>
  <time>2026-09-01T19:50:16Z</time>
  <course>10.69</course>
  <speed>0.01414213562373095</speed>
  <fix>3d</fix>
</trkpt>
<trkpt lat="-27.274439" lon="151.290064">
  <ele>343.1</ele>
  <time>2026-09-01T19:50:16Z</time>
  <course>270.0</course>
  <speed>0.0</speed>
  <fix>3d</fix>
</trkpt>
<trkpt lat="-27.2744391" lon="151.290064">
  <ele>343.1</ele>
  <time>2026-09-01T19:50:16Z</time>
  <course>10.69</course>
  <speed>0.01414213562373095</speed>
  <fix>3d</fix>
</trkpt>
<trkpt lat="-27.274439" lon="151.290064">
  <ele>343.1</ele>
  <time>2026-09-01T19:50:16Z</time>
  <course>270.0</course>
  <speed>0.0</speed>
  <fix>3d</fix>
</trkpt>
<trkpt lat="-27.2744391" lon="151.290064">
  <ele>343.1</ele>
  <time>2026-09-01T19:50:16Z</time>
  <course>10.69</course>
  <speed>0.01414213562373095</speed>
  <fix>3d</fix>
</trkpt>
<trkpt lat="-27.274439" lon="151.290064">
  <ele>343.1</ele>
  <time>2026-09-01T19:50:16Z</time>
  <course>270.0</course>
  <speed>0.0</speed>
  <fix>3d</fix>
</trkpt>
<trkpt lat="-27.2744391" lon="151.290064">
  <ele>343.1</ele>
  <time>2026-09-01T19:50:16Z</time>
  <course>10.69</course>
  <speed>0.01414213562373095</speed>
  <fix>3d</fix>
</trkpt>
<trkpt lat="-27.274439" lon="151.290064">
  <ele>343.1</ele>
  <time>2026-09-01T19:50:16Z</time>
  <course>270.0</course>
  <speed>0.0</speed>
  <fix>3d</fix>
</trkpt>
<trkpt lat="-27.2744391" lon="151.290064">
  <ele>343.09</ele>
  <time>2026-09-01T19:50:16Z</time>
  <course>10.69</course>
  <speed>0.01414213562373095</speed>
  <fix>3d</fix>
</trkpt>
<trkpt lat="-27.274439" lon="151.290064">
  <ele>343.1</ele>
  <time>2026-09-01T19:50:16Z</time>
  <course>270.0</course>
  <speed>0.0</speed>
  <fix>3d</fix>
</trkpt>
<trkpt lat="-27.2744391" lon="151.290064">
  <ele>343.09</ele>
  <time>2026-09-01T19:50:16Z</time>
  <course>10.7</course>
  <speed>0.01414213562373095</speed>
  <fix>3d</fix>
</trkpt>
<trkpt lat="-27.274439" lon="151.290064">
  <ele>343.1</ele>
  <time>2026-09-01T19:50:16Z</time>
  <course>270.0</course>
  <speed>0.0</speed>
  <fix>3d</fix>
</trkpt>
<trkpt lat="-27.2744391" lon="151.290064">
  <ele>343.09</ele>
  <time>2026-09-01T19:50:16Z</time>
  <course>10.7</course>
  <speed>0.01414213562373095</speed>
  <fix>3d</fix>
</trkpt>
<trkpt lat="-27.274439" lon="151.290064">
  <ele>343.1</ele>
  <time>2026-09-01T19:50:16Z</time>
  <course>270.0</course>
  <speed>0.0</speed>
  <fix>3d</fix>
</trkpt>
<trkpt lat="-27.2744391" lon="151.290064">
  <ele>343.1</ele>
  <time>2026-09-01T19:50:16Z</time>
  <course>10.7</course>
  <speed>0.01414213562373095</speed>
  <fix>3d</fix>
</trkpt>
<trkpt lat="-27.274439" lon="151.290064">
  <ele>343.1</ele>
  <time>2026-09-01T19:50:16Z</time>
  <course>270.0</course>
  <speed>0.0</speed>
  <fix>3d</fix>
</trkpt>
<trkpt lat="-27.2744391" lon="151.290064">
  <ele>343.1</ele>
  <time>2026-09-01T19:50:16Z</time>
  <course>10.7</course>
  <speed>0.01414213562373095</speed>
  <fix>3d</fix>
</trkpt>
<trkpt lat="-27.274439" lon="151.290064">
  <ele>343.1</ele>
  <time>2026-09-01T19:50:16Z</time>
  <course>270.0</course>
  <speed>0.0</speed>
  <fix>3d</fix>
</trkpt>
<trkpt lat="-27.2744391" lon="151.290064">
  <ele>343.09</ele>
  <time>2026-09-01T19:50:16Z</time>
  <course>10.7</course>
  <speed>0.01414213562373095</speed>
  <fix>3d</fix>
</trkpt>
<trkpt lat="-27.274439" lon="151.290064">
  <ele>343.1</ele>
  <time>2026-09-01T19:50:16Z</time>
  <course>270.0</course>
  <speed>0.0</speed>
  <fix>3d</fix>
</trkpt>
<trkpt lat="-27.2744391" lon="151.2900641">
  <ele>343.09</ele>
  <time>2026-09-01T19:50:16Z</time>
  <course>10.7</course>
  <speed>0.01414213562373095</speed>
  <fix>3d</fix>
</trkpt>
<trkpt lat="-27.274439" lon="151.290064">
  <ele>343.1</ele>
  <time>2026-09-01T19:50:16Z</time>
  <course>270.0</course>
  <speed>0.0</speed>
  <fix>3d</fix>
</trkpt>
<trkpt lat="-27.2744391" lon="151.290064">
  <ele>343.09</ele>
  <time>2026-09-01T19:50:16Z</time>
  <course>10.7</course>
  <speed>0.01414213562373095</speed>
  <fix>3d</fix>
</trkpt>
<trkpt lat="-27.274439" lon="151.290064">
  <ele>343.1</ele>
  <time>2026-09-01T19:50:16Z</time>
  <course>270.0</course>
  <speed>0.0</speed>
  <fix>3d</fix>
</trkpt>
<trkpt lat="-27.2744391" lon="151.2900641">
  <ele>343.09</ele>
  <time>2026-09-01T19:50:16Z</time>
  <course>10.7</course>
  <speed>0.01414213562373095</speed>
  <fix>3d</fix>
</trkpt>
<trkpt lat="-27.274439" lon="151.290064">
  <ele>343.1</ele>
  <time>2026-09-01T19:50:16Z</time>
  <course>270.0</course>
  <speed>0.0</speed>
  <fix>3d</fix>
</trkpt>
<trkpt lat="-27.2744391" lon="151.2900641">
  <ele>343.08</ele>
  <time>2026-09-01T19:50:16Z</time>
  <course>10.7</course>
  <speed>0.01414213562373095</speed>
  <fix>3d</fix>
</trkpt>
<trkpt lat="-27.274439" lon="151.290064">
  <ele>343.1</ele>
  <time>2026-09-01T19:50:16Z</time>
  <course>270.0</course>
  <speed>0.0</speed>
  <fix>3d</fix>
</trkpt>
<trkpt lat="-27.2744391" lon="151.2900641">
  <ele>343.08</ele>
  <time>2026-09-01T19:50:16Z</time>
  <course>10.7</course>
  <speed>0.01414213562373095</speed>
  <fix>3d</fix>
</trkpt>
<trkpt lat="-27.274439" lon="151.290064">
  <ele>343.1</ele>
  <time>2026-09-01T19:50:16Z</time>
  <course>270.0</course>
  <speed>0.0</speed>
  <fix>3d</fix>
</trkpt>
<trkpt lat="-27.2744391" lon="151.2900641">
  <ele>343.08</ele>
  <time>2026-09-01T19:50:16Z</time>
  <course>10.7</course>
  <speed>0.01414213562373095</speed>
  <fix>3d</fix>
</trkpt>
<trkpt lat="-27.274439" lon="151.290064">
  <ele>343.1</ele>
  <time>2026-09-01T19:50:16Z</time>
  <course>270.0</course>
  <speed>0.0</speed>
  <fix>3d</fix>
</trkpt>
<trkpt lat="-27.2744391" lon="151.2900641">
  <ele>343.08</ele>
  <time>2026-09-01T19:50:16Z</time>
  <course>10.7</course>
  <speed>0.01414213562373095</speed>
  <fix>3d</fix>
</trkpt>
<trkpt lat="-27.274439" lon="151.290064">
  <ele>343.1</ele>
  <time>2026-09-01T19:50:16Z</time>
  <course>270.0</course>
  <speed>0.0</speed>
  <fix>3d</fix>
</trkpt>
<trkpt lat="-27.2744391" lon="151.2900641">
  <ele>343.09</ele>
  <time>2026-09-01T19:50:16Z</time>
  <course>10.7</course>
  <speed>0.01414213562373095</speed>
  <fix>3d</fix>
</trkpt>
<trkpt lat="-27.274439" lon="151.290064">
  <ele>343.1</ele>
  <time>2026-09-01T19:50:16Z</time>
  <course>270.0</course>
  <speed>0.0</speed>
  <fix>3d</fix>
</trkpt>
<trkpt lat="-27.2744391" lon="151.2900641">
  <ele>343.09</ele>
  <time>2026-09-01T19:50:16Z</time>
  <course>10.7</course>
  <speed>0.01414213562373095</speed>
  <fix>3d</fix>
</trkpt>
<trkpt lat="-27.274439" lon="151.290064">
  <ele>343.1</ele>
  <time>2026-09-01T19:50:16Z</time>
  <course>270.0</course>
  <speed>0.0</speed>
  <fix>3d</fix>
</trkpt>
<trkpt lat="-27.2744391" lon="151.2900641">
  <ele>343.09</ele>
  <time>2026-09-01T19:50:16Z</time>
  <course>10.7</course>
  <speed>0.01414213562373095</speed>
  <fix>3d</fix>
</trkpt>
<trkpt lat="-27.274439" lon="151.290064">
  <ele>343.1</ele>
  <time>2026-09-01T19:50:16Z</time>
  <course>270.0</course>
  <speed>0.0</speed>
  <fix>3d</fix>
</trkpt>
<trkpt lat="-27.2744391" lon="151.2900641">
  <ele>343.09</ele>
  <time>2026-09-01T19:50:16Z</time>
  <course>10.7</course>
  <speed>0.01414213562373095</speed>
  <fix>3d</fix>
</trkpt>
<trkpt lat="-27.274439" lon="151.290064">
  <ele>343.1</ele>
  <time>2026-09-01T19:50:16Z</time>
  <course>270.0</course>
  <speed>0.0</speed>
  <fix>3d</fix>
</trkpt>
<trkpt lat="-27.2744391" lon="151.2900641">
  <ele>343.09</ele>
  <time>2026-09-01T19:50:16Z</time>
  <course>10.7</course>
  <speed>0.01414213562373095</speed>
  <fix>3d</fix>
</trkpt>
<trkpt lat="-27.274439" lon="151.290064">
  <ele>343.1</ele>
  <time>2026-09-01T19:50:16Z</time>
  <course>270.0</course>
  <speed>0.0</speed>
  <fix>3d</fix>
</trkpt>
<trkpt lat="-27.2744391" lon="151.2900641">
  <ele>343.09</ele>
  <time>2026-09-01T19:50:16Z</time>
  <course>10.7</course>
  <speed>0.01414213562373095</speed>
  <fix>3d</fix>
</trkpt>
<trkpt lat="-27.274439" lon="151.290064">
  <ele>343.1</ele>
  <time>2026-09-01T19:50:16Z</time>
  <course>270.0</course>
  <speed>0.0</speed>
  <fix>3d</fix>
</trkpt>
<trkpt lat="-27.2744391" lon="151.2900641">
  <ele>343.09</ele>
  <time>2026-09-01T19:50:16Z</time>
  <course>10.7</course>
  <speed>0.01414213562373095</speed>
  <fix>3d</fix>
</trkpt>
<trkpt lat="-27.274439" lon="151.290064">
  <ele>343.1</ele>
  <time>2026-09-01T19:50:16Z</time>
  <course>270.0</course>
  <speed>0.0</speed>
  <fix>3d</fix>
</trkpt>
<trkpt lat="-27.2744391" lon="151.2900641">
  <ele>343.1</ele>
  <time>2026-09-01T19:50:16Z</time>
  <course>10.7</course>
  <speed>0.01414213562373095</speed>
  <fix>3d</fix>
</trkpt>
<trkpt lat="-27.274439" lon="151.290064">
  <ele>343.1</ele>
  <time>2026-09-01T19:50:16Z</time>
  <course>270.0</course>
  <speed>0.0</speed>
  <fix>3d</fix>
</trkpt>
<trkpt lat="-27.2744391" lon="151.2900641">
  <ele>343.1</ele>
  <time>2026-09-01T19:50:16Z</time>
  <course>10.7</course>
  <speed>0.01414213562373095</speed>
  <fix>3d</fix>
</trkpt>
<trkpt lat="-27.274439" lon="151.290064">
  <ele>343.1</ele>
  <time>2026-09-01T19:50:16Z</time>
  <course>270.0</course>
  <speed>0.0</speed>
  <fix>3d</fix>
</trkpt>
<trkpt lat="-27.2744391" lon="151.2900641">
  <ele>343.1</ele>
  <time>2026-09-01T19:50:16Z</time>
  <course>10.7</course>
  <speed>0.01414213562373095</speed>
  <fix>3d</fix>
</trkpt>
<trkpt lat="-27.274439" lon="151.290064">
  <ele>343.1</ele>
  <time>2026-09-01T19:50:16Z</time>
  <course>270.0</course>
  <speed>0.0</speed>
  <fix>3d</fix>
</trkpt>
<trkpt lat="-27.2744391" lon="151.2900641">
  <ele>343.1</ele>
  <time>2026-09-01T19:50:16Z</time>
  <course>10.7</course>
  <speed>0.01414213562373095</speed>
  <fix>3d</fix>
</trkpt>
<trkpt lat="-27.274439" lon="151.290064">
  <ele>343.1</ele>
  <time>2026-09-01T19:50:16Z</time>
  <course>270.0</course>
  <speed>0.0</speed>
  <fix>3d</fix>
</trkpt>
<trkpt lat="-27.2744391" lon="151.2900641">
  <ele>343.1</ele>
  <time>2026-09-01T19:50:16Z</time>
  <course>10.7</course>
  <speed>0.01414213562373095</speed>
  <fix>3d</fix>
</trkpt>
<trkpt lat="-27.274439" lon="151.290064">
  <ele>343.1</ele>
  <time>2026-09-01T19:50:16Z</time>
  <course>270.0</course>
  <speed>0.0</speed>
  <fix>3d</fix>
</trkpt>
<trkpt lat="-27.2744391" lon="151.2900641">
  <ele>343.11</ele>
  <time>2026-09-01T19:50:16Z</time>
  <course>10.7</course>
  <speed>0.01414213562373095</speed>
  <fix>3d</fix>
</trkpt>
<trkpt lat="-27.274439" lon="151.290064">
  <ele>343.1</ele>
  <time>2026-09-01T19:50:16Z</time>
  <course>270.0</course>
  <speed>0.0</speed>
  <fix>3d</fix>
</trkpt>
<trkpt lat="-27.2744391" lon="151.2900641">
  <ele>343.11</ele>
  <time>2026-09-01T19:50:16Z</time>
  <course>10.7</course>
  <speed>0.01414213562373095</speed>
  <fix>3d</fix>
</trkpt>
<trkpt lat="-27.274439" lon="151.290064">
  <ele>343.1</ele>
  <time>2026-09-01T19:50:16Z</time>
  <course>270.0</course>
  <speed>0.0</speed>
  <fix>3d</fix>
</trkpt>
<trkpt lat="-27.2744391" lon="151.2900641">
  <ele>343.11</ele>
  <time>2026-09-01T19:50:16Z</time>
  <course>10.7</course>
  <speed>0.01414213562373095</speed>
  <fix>3d</fix>
</trkpt>
<trkpt lat="-27.274439" lon="151.290064">
  <ele>343.1</ele>
  <time>2026-09-01T19:50:16Z</time>
  <course>270.0</course>
  <speed>0.0</speed>
  <fix>3d</fix>
</trkpt>
<trkpt lat="-27.2744391" lon="151.2900641">
  <ele>343.11</ele>
  <time>2026-09-01T19:50:16Z</time>
  <course>10.7</course>
  <speed>0.01414213562373095</speed>
  <fix>3d</fix>
</trkpt>
<trkpt lat="-27.274439" lon="151.290064">
  <ele>343.1</ele>
  <time>2026-09-01T19:50:16Z</time>
  <course>270.0</course>
  <speed>0.0</speed>
  <fix>3d</fix>
</trkpt>
<trkpt lat="-27.2744391" lon="151.2900641">
  <ele>343.11</ele>
  <time>2026-09-01T19:50:16Z</time>
  <course>10.7</course>
  <speed>0.01414213562373095</speed>
  <fix>3d</fix>
</trkpt>
<trkpt lat="-27.274439" lon="151.290064">
  <ele>343.1</ele>
  <time>2026-09-01T19:50:16Z</time>
  <course>270.0</course>
  <speed>0.0</speed>
  <fix>3d</fix>
</trkpt>
<trkpt lat="-27.2744391" lon="151.2900641">
  <ele>343.1</ele>
  <time>2026-09-01T19:50:16Z</time>
  <course>10.7</course>
  <speed>0.01414213562373095</speed>
  <fix>3d</fix>
</trkpt>
<trkpt lat="-27.274439" lon="151.290064">
  <ele>343.1</ele>
  <time>2026-09-01T19:50:16Z</time>
  <course>270.0</course>
  <speed>0.0</speed>
  <fix>3d</fix>
</trkpt>
<trkpt lat="-27.2744391" lon="151.2900641">
  <ele>343.1</ele>
  <time>2026-09-01T19:50:16Z</time>
  <course>10.7</course>
  <speed>0.01414213562373095</speed>
  <fix>3d</fix>
</trkpt>
<trkpt lat="-27.274439" lon="151.290064">
  <ele>343.1</ele>
  <time>2026-09-01T19:50:16Z</time>
  <course>270.0</course>
  <speed>0.0</speed>
  <fix>3d</fix>
</trkpt>
<trkpt lat="-27.2744391" lon="151.2900641">
  <ele>343.1</ele>
  <time>2026-09-01T19:50:16Z</time>
  <course>10.7</course>
  <speed>0.01414213562373095</speed>
  <fix>3d</fix>
</trkpt>
<trkpt lat="-27.274439" lon="151.290064">
  <ele>343.1</ele>
  <time>2026-09-01T19:50:16Z</time>
  <course>270.0</course>
  <speed>0.0</speed>
  <fix>3d</fix>
</trkpt>
<trkpt lat="-27.2744391" lon="151.2900641">
  <ele>343.1</ele>
  <time>2026-09-01T19:50:16Z</time>
  <course>10.7</course>
  <speed>0.01414213562373095</speed>
  <fix>3d</fix>
</trkpt>
<trkpt lat="-27.274439" lon="151.290064">
  <ele>343.1</ele>
  <time>2026-09-01T19:50:16Z</time>
  <course>270.0</course>
  <speed>0.0</speed>
  <fix>3d</fix>
</trkpt>
<trkpt lat="-27.2744391" lon="151.2900641">
  <ele>343.1</ele>
  <time>2026-09-01T19:50:16Z</time>
  <course>10.7</course>
  <speed>0.01414213562373095</speed>
  <fix>3d</fix>
</trkpt>
<trkpt lat="-27.274439" lon="151.290064">
  <ele>343.1</ele>
  <time>2026-09-01T19:50:16Z</time>
  <course>270.0</course>
  <speed>0.0</speed>
  <fix>3d</fix>
</trkpt>
<trkpt lat="-27.2744391" lon="151.2900641">
  <ele>343.09</ele>
  <time>2026-09-01T19:50:16Z</time>
  <course>10.7</course>
  <speed>0.01414213562373095</speed>
  <fix>3d</fix>
</trkpt>
<trkpt lat="-27.274439" lon="151.290064">
  <ele>343.1</ele>
  <time>2026-09-01T19:50:16Z</time>
  <course>270.0</course>
  <speed>0.0</speed>
  <fix>3d</fix>
</trkpt>
<trkpt lat="-27.2744391" lon="151.2900641">
  <ele>343.09</ele>
  <time>2026-09-01T19:50:16Z</time>
  <course>10.7</course>
  <speed>0.01414213562373095</speed>
  <fix>3d</fix>
</trkpt>
<trkpt lat="-27.274439" lon="151.290064">
  <ele>343.1</ele>
  <time>2026-09-01T19:50:16Z</time>
  <course>270.0</course>
  <speed>0.0</speed>
  <fix>3d</fix>
</trkpt>
<trkpt lat="-27.2744391" lon="151.2900641">
  <ele>343.09</ele>
  <time>2026-09-01T19:50:16Z</time>
  <course>10.7</course>
  <speed>0.01414213562373095</speed>
  <fix>3d</fix>
</trkpt>
<trkpt lat="-27.274439" lon="151.290064">
  <ele>343.1</ele>
  <time>2026-09-01T19:50:16Z</time>
  <course>270.0</course>
  <speed>0.0</speed>
  <fix>3d</fix>
</trkpt>
<trkpt lat="-27.2744391" lon="151.2900641">
  <ele>343.09</ele>
  <time>2026-09-01T19:50:16Z</time>
  <course>10.7</course>
  <speed>0.01414213562373095</speed>
  <fix>3d</fix>
</trkpt>
<trkpt lat="-27.274439" lon="151.290064">
  <ele>343.1</ele>
  <time>2026-09-01T19:50:16Z</time>
  <course>270.0</course>
  <speed>0.0</speed>
  <fix>3d</fix>
</trkpt>
<trkpt lat="-27.2744391" lon="151.2900641">
  <ele>343.09</ele>
  <time>2026-09-01T19:50:16Z</time>
  <course>10.7</course>
  <speed>0.01414213562373095</speed>
  <fix>3d</fix>
</trkpt>
<trkpt lat="-27.274439" lon="151.290064">
  <ele>343.1</ele>
  <time>2026-09-01T19:50:16Z</time>
  <course>270.0</course>
  <speed>0.0</speed>
  <fix>3d</fix>
</trkpt>
<trkpt lat="-27.2744391" lon="151.2900641">
  <ele>343.09</ele>
  <time>2026-09-01T19:50:16Z</time>
  <course>10.7</course>
  <speed>0.01414213562373095</speed>
  <fix>3d</fix>
</trkpt>
<trkpt lat="-27.274439" lon="151.290064">
  <ele>343.1</ele>
  <time>2026-09-01T19:50:16Z</time>
  <course>270.0</course>
  <speed>0.0</speed>
  <fix>3d</fix>
</trkpt>
<trkpt lat="-27.2744391" lon="151.2900641">
  <ele>343.09</ele>
  <time>2026-09-01T19:50:16Z</time>
  <course>10.7</course>
  <speed>0.01414213562373095</speed>
  <fix>3d</fix>
</trkpt>
<trkpt lat="-27.274439" lon="151.290064">
  <ele>343.1</ele>
  <time>2026-09-01T19:50:16Z</time>
  <course>270.0</course>
  <speed>0.0</speed>
  <fix>3d</fix>
</trkpt>
<trkpt lat="-27.2744391" lon="151.2900641">
  <ele>343.09</ele>
  <time>2026-09-01T19:50:16Z</time>
  <course>10.7</course>
  <speed>0.01414213562373095</speed>
  <fix>3d</fix>
</trkpt>
<trkpt lat="-27.274439" lon="151.290064">
  <ele>343.1</ele>
  <time>2026-09-01T19:50:16Z</time>
  <course>270.0</course>
  <speed>0.0</speed>
  <fix>3d</fix>
</trkpt>
<trkpt lat="-27.2744391" lon="151.2900641">
  <ele>343.09</ele>
  <time>2026-09-01T19:50:16Z</time>
  <course>10.7</course>
  <speed>0.01414213562373095</speed>
  <fix>3d</fix>
</trkpt>
<trkpt lat="-27.274439" lon="151.290064">
  <ele>343.1</ele>
  <time>2026-09-01T19:50:16Z</time>
  <course>270.0</course>
  <speed>0.0</speed>
  <fix>3d</fix>
</trkpt>
<trkpt lat="-27.2744391" lon="151.2900641">
  <ele>343.08</ele>
  <time>2026-09-01T19:50:16Z</time>
  <course>10.7</course>
  <speed>0.01414213562373095</speed>
  <fix>3d</fix>
</trkpt>
<trkpt lat="-27.274439" lon="151.290064">
  <ele>343.1</ele>
  <time>2026-09-01T19:50:16Z</time>
  <course>270.0</course>
  <speed>0.0</speed>
  <fix>3d</fix>
</trkpt>
<trkpt lat="-27.2744391" lon="151.2900641">
  <ele>343.09</ele>
  <time>2026-09-01T19:50:16Z</time>
  <course>10.7</course>
  <speed>0.01414213562373095</speed>
  <fix>3d</fix>
</trkpt>
<trkpt lat="-27.274439" lon="151.290064">
  <ele>343.1</ele>
  <time>2026-09-01T19:50:16Z</time>
  <course>270.0</course>
  <speed>0.0</speed>
  <fix>3d</fix>
</trkpt>
<trkpt lat="-27.2744391" lon="151.2900641">
  <ele>343.09</ele>
  <time>2026-09-01T19:50:16Z</time>
  <course>10.7</course>
  <speed>0.01414213562373095</speed>
  <fix>3d</fix>
</trkpt>
<trkpt lat="-27.274439" lon="151.290064">
  <ele>343.1</ele>
  <time>2026-09-01T19:50:16Z</time>
  <course>270.0</course>
  <speed>0.0</speed>
  <fix>3d</fix>
</trkpt>
<trkpt lat="-27.2744391" lon="151.2900641">
  <ele>343.09</ele>
  <time>2026-09-01T19:50:16Z</time>
  <course>10.7</course>
  <speed>0.01414213562373095</speed>
  <fix>3d</fix>
</trkpt>
<trkpt lat="-27.274439" lon="151.290064">
  <ele>343.1</ele>
  <time>2026-09-01T19:50:16Z</time>
  <course>270.0</course>
  <speed>0.0</speed>
  <fix>3d</fix>
</trkpt>
<trkpt lat="-27.2744391" lon="151.2900641">
  <ele>343.09</ele>
  <time>2026-09-01T19:50:16Z</time>
  <course>10.7</course>
  <speed>0.01414213562373095</speed>
  <fix>3d</fix>
</trkpt>
<trkpt lat="-27.274439" lon="151.290064">
  <ele>343.1</ele>
  <time>2026-09-01T19:50:16Z</time>
  <course>270.0</course>
  <speed>0.0</speed>
  <fix>3d</fix>
</trkpt>
<trkpt lat="-27.2744391" lon="151.2900641">
  <ele>343.09</ele>
  <time>2026-09-01T19:50:16Z</time>
  <course>10.7</course>
  <speed>0.01414213562373095</speed>
  <fix>3d</fix>
</trkpt>
<trkpt lat="-27.274439" lon="151.290064">
  <ele>343.1</ele>
  <time>2026-09-01T19:50:16Z</time>
  <course>270.0</course>
  <speed>0.0</speed>
  <fix>3d</fix>
</trkpt>
<trkpt lat="-27.2744391" lon="151.2900641">
  <ele>343.09</ele>
  <time>2026-09-01T19:50:16Z</time>
  <course>10.7</course>
  <speed>0.01414213562373095</speed>
  <fix>3d</fix>
</trkpt>
<trkpt lat="-27.274439" lon="151.290064">
  <ele>343.1</ele>
  <time>2026-09-01T19:50:16Z</time>
  <course>270.0</course>
  <speed>0.0</speed>
  <fix>3d</fix>
</trkpt>
<trkpt lat="-27.2744391" lon="151.2900641">
  <ele>343.09</ele>
  <time>2026-09-01T19:50:16Z</time>
  <course>10.7</course>
  <speed>0.01414213562373095</speed>
  <fix>3d</fix>
</trkpt>
<trkpt lat="-27.274439" lon="151.290064">
  <ele>343.1</ele>
  <time>2026-09-01T19:50:16Z</time>
  <course>270.0</course>
  <speed>0.0</speed>
  <fix>3d</fix>
</trkpt>
<trkpt lat="-27.2744391" lon="151.2900641">
  <ele>343.09</ele>
  <time>2026-09-01T19:50:16Z</time>
  <course>10.7</course>
  <speed>0.01414213562373095</speed>
  <fix>3d</fix>
</trkpt>
<trkpt lat="-27.274439" lon="151.290064">
  <ele>343.1</ele>
  <time>2026-09-01T19:50:16Z</time>
  <course>270.0</course>
  <speed>0.0</speed>
  <fix>3d</fix>
</trkpt>
<trkpt lat="-27.2744391" lon="151.2900641">
  <ele>343.08</ele>
  <time>2026-09-01T19:50:16Z</time>
  <course>10.7</course>
  <speed>0.01414213562373095</speed>
  <fix>3d</fix>
</trkpt>
<trkpt lat="-27.274439" lon="151.290064">
  <ele>343.1</ele>
  <time>2026-09-01T19:50:16Z</time>
  <course>270.0</course>
  <speed>0.0</speed>
  <fix>3d</fix>
</trkpt>
<trkpt lat="-27.2744391" lon="151.2900641">
  <ele>343.08</ele>
  <time>2026-09-01T19:50:16Z</time>
  <course>10.7</course>
  <speed>0.01414213562373095</speed>
  <fix>3d</fix>
</trkpt>
<trkpt lat="-27.274439" lon="151.290064">
  <ele>343.1</ele>
  <time>2026-09-01T19:50:16Z</time>
  <course>270.0</course>
  <speed>0.0</speed>
  <fix>3d</fix>
</trkpt>
<trkpt lat="-27.2744391" lon="151.2900641">
  <ele>343.07</ele>
  <time>2026-09-01T19:50:16Z</time>
  <course>10.7</course>
  <speed>0.01414213562373095</speed>
  <fix>3d</fix>
</trkpt>
<trkpt lat="-27.274439" lon="151.290064">
  <ele>343.1</ele>
  <time>2026-09-01T19:50:16Z</time>
  <course>270.0</course>
  <speed>0.0</speed>
  <fix>3d</fix>
</trkpt>
<trkpt lat="-27.2744391" lon="151.2900641">
  <ele>343.07</ele>
  <time>2026-09-01T19:50:16Z</time>
  <course>10.7</course>
  <speed>0.01414213562373095</speed>
  <fix>3d</fix>
</trkpt>
<trkpt lat="-27.274439" lon="151.290064">
  <ele>343.1</ele>
  <time>2026-09-01T19:50:16Z</time>
  <course>270.0</course>
  <speed>0.0</speed>
  <fix>3d</fix>
</trkpt>
<trkpt lat="-27.2744391" lon="151.2900641">
  <ele>343.06</ele>
  <time>2026-09-01T19:50:16Z</time>
  <course>10.7</course>
  <speed>0.01414213562373095</speed>
  <fix>3d</fix>
</trkpt>
<trkpt lat="-27.274439" lon="151.290064">
  <ele>343.1</ele>
  <time>2026-09-01T19:50:16Z</time>
  <course>270.0</course>
  <speed>0.0</speed>
  <fix>3d</fix>
</trkpt>
<trkpt lat="-27.2744391" lon="151.2900641">
  <ele>343.06</ele>
  <time>2026-09-01T19:50:16Z</time>
  <course>10.7</course>
  <speed>0.01414213562373095</speed>
  <fix>3d</fix>
</trkpt>
<trkpt lat="-27.274439" lon="151.290064">
  <ele>343.1</ele>
  <time>2026-09-01T19:50:16Z</time>
  <course>270.0</course>
  <speed>0.0</speed>
  <fix>3d</fix>
</trkpt>
<trkpt lat="-27.2744391" lon="151.2900641">
  <ele>343.06</ele>
  <time>2026-09-01T19:50:16Z</time>
  <course>10.71</course>
  <speed>0.01414213562373095</speed>
  <fix>3d</fix>
</trkpt>
<trkpt lat="-27.274439" lon="151.290064">
  <ele>343.1</ele>
  <time>2026-09-01T19:50:16Z</time>
  <course>270.0</course>
  <speed>0.0</speed>
  <fix>3d</fix>
</trkpt>
<trkpt lat="-27.2744391" lon="151.2900641">
  <ele>343.06</ele>
  <time>2026-09-01T19:50:16Z</time>
  <course>10.71</course>
  <speed>0.01414213562373095</speed>
  <fix>3d</fix>
</trkpt>
<trkpt lat="-27.274439" lon="151.290064">
  <ele>343.1</ele>
  <time>2026-09-01T19:50:16Z</time>
  <course>270.0</course>
  <speed>0.0</speed>
  <fix>3d</fix>
</trkpt>
<trkpt lat="-27.2744391" lon="151.2900641">
  <ele>343.06</ele>
  <time>2026-09-01T19:50:16Z</time>
  <course>10.71</course>
  <speed>0.01414213562373095</speed>
  <fix>3d</fix>
</trkpt>
<trkpt lat="-27.274439" lon="151.290064">
  <ele>343.1</ele>
  <time>2026-09-01T19:50:16Z</time>
  <course>270.0</course>
  <speed>0.0</speed>
  <fix>3d</fix>
</trkpt>
<trkpt lat="-27.2744391" lon="151.2900641">
  <ele>343.06</ele>
  <time>2026-09-01T19:50:16Z</time>
  <course>10.71</course>
  <speed>0.01414213562373095</speed>
  <fix>3d</fix>
</trkpt>
<trkpt lat="-27.274439" lon="151.290064">
  <ele>343.1</ele>
  <time>2026-09-01T19:50:16Z</time>
  <course>270.0</course>
  <speed>0.0</speed>
  <fix>3d</fix>
</trkpt>
<trkpt lat="-27.2744391" lon="151.2900641">
  <ele>343.06</ele>
  <time>2026-09-01T19:50:16Z</time>
  <course>10.71</course>
  <speed>0.01414213562373095</speed>
  <fix>3d</fix>
</trkpt>
<trkpt lat="-27.274439" lon="151.290064">
  <ele>343.1</ele>
  <time>2026-09-01T19:50:16Z</time>
  <course>270.0</course>
  <speed>0.0</speed>
  <fix>3d</fix>
</trkpt>
<trkpt lat="-27.2744391" lon="151.2900641">
  <ele>343.06</ele>
  <time>2026-09-01T19:50:16Z</time>
  <course>10.71</course>
  <speed>0.01414213562373095</speed>
  <fix>3d</fix>
</trkpt>
<trkpt lat="-27.274439" lon="151.290064">
  <ele>343.1</ele>
  <time>2026-09-01T19:50:16Z</time>
  <course>270.0</course>
  <speed>0.0</speed>
  <fix>3d</fix>
</trkpt>
<trkpt lat="-27.2744391" lon="151.2900641">
  <ele>343.06</ele>
  <time>2026-09-01T19:50:16Z</time>
  <course>10.71</course>
  <speed>0.01414213562373095</speed>
  <fix>3d</fix>
</trkpt>
<trkpt lat="-27.274439" lon="151.290064">
  <ele>343.1</ele>
  <time>2026-09-01T19:50:16Z</time>
  <course>270.0</course>
  <speed>0.0</speed>
  <fix>3d</fix>
</trkpt>
<trkpt lat="-27.2744391" lon="151.2900641">
  <ele>343.06</ele>
  <time>2026-09-01T19:50:16Z</time>
  <course>10.71</course>
  <speed>0.022360679774997897</speed>
  <fix>3d</fix>
</trkpt>
<trkpt lat="-27.274439" lon="151.290064">
  <ele>343.1</ele>
  <time>2026-09-01T19:50:16Z</time>
  <course>270.0</course>
  <speed>0.0</speed>
  <fix>3d</fix>
</trkpt>
<trkpt lat="-27.2744391" lon="151.2900641">
  <ele>343.06</ele>
  <time>2026-09-01T19:50:16Z</time>
  <course>10.71</course>
  <speed>0.01414213562373095</speed>
  <fix>3d</fix>
</trkpt>
<trkpt lat="-27.274439" lon="151.290064">
  <ele>343.1</ele>
  <time>2026-09-01T19:50:16Z</time>
  <course>270.0</course>
  <speed>0.0</speed>
  <fix>3d</fix>
</trkpt>
<trkpt lat="-27.2744391" lon="151.2900641">
  <ele>343.05</ele>
  <time>2026-09-01T19:50:16Z</time>
  <course>10.71</course>
  <speed>0.022360679774997897</speed>
  <fix>3d</fix>
</trkpt>
<trkpt lat="-27.274439" lon="151.290064">
  <ele>343.1</ele>
  <time>2026-09-01T19:50:16Z</time>
  <course>270.0</course>
  <speed>0.0</speed>
  <fix>3d</fix>
</trkpt>
<trkpt lat="-27.2744391" lon="151.2900641">
  <ele>343.05</ele>
  <time>2026-09-01T19:50:16Z</time>
  <course>10.71</course>
  <speed>0.01414213562373095</speed>
  <fix>3d</fix>
</trkpt>
<trkpt lat="-27.274439" lon="151.290064">
  <ele>343.1</ele>
  <time>2026-09-01T19:50:16Z</time>
  <course>270.0</course>
  <speed>0.0</speed>
  <fix>3d</fix>
</trkpt>
<trkpt lat="-27.2744391" lon="151.2900641">
  <ele>343.05</ele>
  <time>2026-09-01T19:50:16Z</time>
  <course>10.71</course>
  <speed>0.022360679774997897</speed>
  <fix>3d</fix>
</trkpt>
<trkpt lat="-27.274439" lon="151.290064">
  <ele>343.1</ele>
  <time>2026-09-01T19:50:16Z</time>
  <course>270.0</course>
  <speed>0.0</speed>
  <fix>3d</fix>
</trkpt>
<trkpt lat="-27.2744391" lon="151.2900641">
  <ele>343.05</ele>
  <time>2026-09-01T19:50:16Z</time>
  <course>10.71</course>
  <speed>0.022360679774997897</speed>
  <fix>3d</fix>
</trkpt>
<trkpt lat="-27.274439" lon="151.290064">
  <ele>343.1</ele>
  <time>2026-09-01T19:50:16Z</time>
  <course>270.0</course>
  <speed>0.0</speed>
  <fix>3d</fix>
</trkpt>
<trkpt lat="-27.2744391" lon="151.2900641">
  <ele>343.04</ele>
  <time>2026-09-01T19:50:16Z</time>
  <course>10.71</course>
  <speed>0.022360679774997897</speed>
  <fix>3d</fix>
</trkpt>
<trkpt lat="-27.274439" lon="151.290064">
  <ele>343.1</ele>
  <time>2026-09-01T19:50:16Z</time>
  <course>270.0</course>
  <speed>0.0</speed>
  <fix>3d</fix>
</trkpt>
<trkpt lat="-27.2744391" lon="151.2900641">
  <ele>343.04</ele>
  <time>2026-09-01T19:50:16Z</time>
  <course>10.71</course>
  <speed>0.022360679774997897</speed>
  <fix>3d</fix>
</trkpt>
<trkpt lat="-27.274439" lon="151.290064">
  <ele>343.1</ele>
  <time>2026-09-01T19:50:16Z</time>
  <course>270.0</course>
  <speed>0.0</speed>
  <fix>3d</fix>
</trkpt>
<trkpt lat="-27.2744391" lon="151.2900641">
  <ele>343.04</ele>
  <time>2026-09-01T19:50:16Z</time>
  <course>10.71</course>
  <speed>0.022360679774997897</speed>
  <fix>3d</fix>
</trkpt>
<trkpt lat="-27.274439" lon="151.290064">
  <ele>343.1</ele>
  <time>2026-09-01T19:50:16Z</time>
  <course>270.0</course>
  <speed>0.0</speed>
  <fix>3d</fix>
</trkpt>
<trkpt lat="-27.2744391" lon="151.2900641">
  <ele>343.03</ele>
  <time>2026-09-01T19:50:16Z</time>
  <course>10.71</course>
  <speed>0.022360679774997897</speed>
  <fix>3d</fix>
</trkpt>
<trkpt lat="-27.274439" lon="151.290064">
  <ele>343.1</ele>
  <time>2026-09-01T19:50:16Z</time>
  <course>270.0</course>
  <speed>0.0</speed>
  <fix>3d</fix>
</trkpt>
<trkpt lat="-27.2744391" lon="151.2900641">
  <ele>343.03</ele>
  <time>2026-09-01T19:50:16Z</time>
  <course>10.71</course>
  <speed>0.022360679774997897</speed>
  <fix>3d</fix>
</trkpt>
<trkpt lat="-27.274439" lon="151.290064">
  <ele>343.1</ele>
  <time>2026-09-01T19:50:16Z</time>
  <course>270.0</course>
  <speed>0.0</speed>
  <fix>3d</fix>
</trkpt>
<trkpt lat="-27.2744391" lon="151.2900641">
  <ele>343.03</ele>
  <time>2026-09-01T19:50:16Z</time>
  <course>10.71</course>
  <speed>0.022360679774997897</speed>
  <fix>3d</fix>
</trkpt>
<trkpt lat="-27.274439" lon="151.290064">
  <ele>343.1</ele>
  <time>2026-09-01T19:50:16Z</time>
  <course>270.0</course>
  <speed>0.0</speed>
  <fix>3d</fix>
</trkpt>
<trkpt lat="-27.2744391" lon="151.2900641">
  <ele>343.02</ele>
  <time>2026-09-01T19:50:16Z</time>
  <course>10.71</course>
  <speed>0.022360679774997897</speed>
  <fix>3d</fix>
</trkpt>
<trkpt lat="-27.274439" lon="151.290064">
  <ele>343.1</ele>
  <time>2026-09-01T19:50:16Z</time>
  <course>270.0</course>
  <speed>0.0</speed>
  <fix>3d</fix>
</trkpt>
<trkpt lat="-27.2744391" lon="151.2900641">
  <ele>343.02</ele>
  <time>2026-09-01T19:50:16Z</time>
  <course>10.71</course>
  <speed>0.022360679774997897</speed>
  <fix>3d</fix>
</trkpt>
<trkpt lat="-27.274439" lon="151.290064">
  <ele>343.1</ele>
  <time>2026-09-01T19:50:16Z</time>
  <course>270.0</course>
  <speed>0.0</speed>
  <fix>3d</fix>
</trkpt>
<trkpt lat="-27.2744391" lon="151.2900641">
  <ele>343.02</ele>
  <time>2026-09-01T19:50:16Z</time>
  <course>10.71</course>
  <speed>0.022360679774997897</speed>
  <fix>3d</fix>
</trkpt>
<trkpt lat="-27.274439" lon="151.290064">
  <ele>343.1</ele>
  <time>2026-09-01T19:50:16Z</time>
  <course>270.0</course>
  <speed>0.0</speed>
  <fix>3d</fix>
</trkpt>
<trkpt lat="-27.2744391" lon="151.2900641">
  <ele>343.02</ele>
  <time>2026-09-01T19:50:16Z</time>
  <course>10.71</course>
  <speed>0.022360679774997897</speed>
  <fix>3d</fix>
</trkpt>
<trkpt lat="-27.274439" lon="151.290064">
  <ele>343.1</ele>
  <time>2026-09-01T19:50:16Z</time>
  <course>270.0</course>
  <speed>0.0</speed>
  <fix>3d</fix>
</trkpt>
<trkpt lat="-27.2744391" lon="151.2900641">
  <ele>343.02</ele>
  <time>2026-09-01T19:50:16Z</time>
  <course>10.71</course>
  <speed>0.022360679774997897</speed>
  <fix>3d</fix>
</trkpt>
<trkpt lat="-27.274439" lon="151.290064">
  <ele>343.1</ele>
  <time>2026-09-01T19:50:16Z</time>
  <course>270.0</course>
  <speed>0.0</speed>
  <fix>3d</fix>
</trkpt>
<trkpt lat="-27.2744391" lon="151.2900641">
  <ele>343.02</ele>
  <time>2026-09-01T19:50:16Z</time>
  <course>10.71</course>
  <speed>0.022360679774997897</speed>
  <fix>3d</fix>
</trkpt>
<trkpt lat="-27.274439" lon="151.290064">
  <ele>343.1</ele>
  <time>2026-09-01T19:50:16Z</time>
  <course>270.0</course>
  <speed>0.0</speed>
  <fix>3d</fix>
</trkpt>
<trkpt lat="-27.2744391" lon="151.2900641">
  <ele>343.02</ele>
  <time>2026-09-01T19:50:16Z</time>
  <course>10.71</course>
  <speed>0.022360679774997897</speed>
  <fix>3d</fix>
</trkpt>
<trkpt lat="-27.274439" lon="151.290064">
  <ele>343.1</ele>
  <time>2026-09-01T19:50:16Z</time>
  <course>270.0</course>
  <speed>0.0</speed>
  <fix>3d</fix>
</trkpt>
<trkpt lat="-27.2744391" lon="151.2900641">
  <ele>343.02</ele>
  <time>2026-09-01T19:50:16Z</time>
  <course>10.71</course>
  <speed>0.022360679774997897</speed>
  <fix>3d</fix>
</trkpt>
<trkpt lat="-27.274439" lon="151.290064">
  <ele>343.1</ele>
  <time>2026-09-01T19:50:16Z</time>
  <course>270.0</course>
  <speed>0.0</speed>
  <fix>3d</fix>
</trkpt>
<trkpt lat="-27.2744391" lon="151.2900641">
  <ele>343.02</ele>
  <time>2026-09-01T19:50:16Z</time>
  <course>10.71</course>
  <speed>0.022360679774997897</speed>
  <fix>3d</fix>
</trkpt>
<trkpt lat="-27.274439" lon="151.290064">
  <ele>343.1</ele>
  <time>2026-09-01T19:50:16Z</time>
  <course>270.0</course>
  <speed>0.0</speed>
  <fix>3d</fix>
</trkpt>
<trkpt lat="-27.2744391" lon="151.2900641">
  <ele>343.02</ele>
  <time>2026-09-01T19:50:16Z</time>
  <course>10.71</course>
  <speed>0.022360679774997897</speed>
  <fix>3d</fix>
</trkpt>
<trkpt lat="-27.274439" lon="151.290064">
  <ele>343.1</ele>
  <time>2026-09-01T19:50:16Z</time>
  <course>270.0</course>
  <speed>0.0</speed>
  <fix>3d</fix>
</trkpt>
<trkpt lat="-27.2744391" lon="151.2900641">
  <ele>343.02</ele>
  <time>2026-09-01T19:50:16Z</time>
  <course>10.71</course>
  <speed>0.022360679774997897</speed>
  <fix>3d</fix>
</trkpt>
<trkpt lat="-27.274439" lon="151.290064">
  <ele>343.1</ele>
  <time>2026-09-01T19:50:16Z</time>
  <course>270.0</course>
  <speed>0.0</speed>
  <fix>3d</fix>
</trkpt>
<trkpt lat="-27.2744391" lon="151.2900641">
  <ele>343.02</ele>
  <time>2026-09-01T19:50:16Z</time>
  <course>10.71</course>
  <speed>0.022360679774997897</speed>
  <fix>3d</fix>
</trkpt>
<trkpt lat="-27.274439" lon="151.290064">
  <ele>343.1</ele>
  <time>2026-09-01T19:50:16Z</time>
  <course>270.0</course>
  <speed>0.0</speed>
  <fix>3d</fix>
</trkpt>
<trkpt lat="-27.2744391" lon="151.2900641">
  <ele>343.02</ele>
  <time>2026-09-01T19:50:16Z</time>
  <course>10.71</course>
  <speed>0.022360679774997897</speed>
  <fix>3d</fix>
</trkpt>
<trkpt lat="-27.274439" lon="151.290064">
  <ele>343.1</ele>
  <time>2026-09-01T19:50:16Z</time>
  <course>270.0</course>
  <speed>0.0</speed>
  <fix>3d</fix>
</trkpt>
<trkpt lat="-27.2744391" lon="151.2900641">
  <ele>343.01</ele>
  <time>2026-09-01T19:50:16Z</time>
  <course>10.71</course>
  <speed>0.022360679774997897</speed>
  <fix>3d</fix>
</trkpt>
<trkpt lat="-27.274439" lon="151.290064">
  <ele>343.1</ele>
  <time>2026-09-01T19:50:16Z</time>
  <course>270.0</course>
  <speed>0.0</speed>
  <fix>3d</fix>
</trkpt>
<trkpt lat="-27.2744391" lon="151.2900641">
  <ele>343.01</ele>
  <time>2026-09-01T19:50:16Z</time>
  <course>10.71</course>
  <speed>0.022360679774997897</speed>
  <fix>3d</fix>
</trkpt>
<trkpt lat="-27.274439" lon="151.290064">
  <ele>343.1</ele>
  <time>2026-09-01T19:50:16Z</time>
  <course>270.0</course>
  <speed>0.0</speed>
  <fix>3d</fix>
</trkpt>
<trkpt lat="-27.2744391" lon="151.2900641">
  <ele>343.01</ele>
  <time>2026-09-01T19:50:16Z</time>
  <course>10.71</course>
  <speed>0.022360679774997897</speed>
  <fix>3d</fix>
</trkpt>
<trkpt lat="-27.274439" lon="151.290064">
  <ele>343.1</ele>
  <time>2026-09-01T19:50:16Z</time>
  <course>270.0</course>
  <speed>0.0</speed>
  <fix>3d</fix>
</trkpt>
<trkpt lat="-27.2744391" lon="151.2900641">
  <ele>343.01</ele>
  <time>2026-09-01T19:50:16Z</time>
  <course>10.71</course>
  <speed>0.022360679774997897</speed>
  <fix>3d</fix>
</trkpt>
<trkpt lat="-27.274439" lon="151.290064">
  <ele>343.1</ele>
  <time>2026-09-01T19:50:16Z</time>
  <course>270.0</course>
  <speed>0.0</speed>
  <fix>3d</fix>
</trkpt>
<trkpt lat="-27.2744391" lon="151.2900641">
  <ele>343.01</ele>
  <time>2026-09-01T19:50:16Z</time>
  <course>10.72</course>
  <speed>0.022360679774997897</speed>
  <fix>3d</fix>
</trkpt>
<trkpt lat="-27.274439" lon="151.290064">
  <ele>343.1</ele>
  <time>2026-09-01T19:50:16Z</time>
  <course>270.0</course>
  <speed>0.0</speed>
  <fix>3d</fix>
</trkpt>
<trkpt lat="-27.2744391" lon="151.2900641">
  <ele>343.01</ele>
  <time>2026-09-01T19:50:16Z</time>
  <course>10.72</course>
  <speed>0.022360679774997897</speed>
  <fix>3d</fix>
</trkpt>
<trkpt lat="-27.274439" lon="151.290064">
  <ele>343.1</ele>
  <time>2026-09-01T19:50:16Z</time>
  <course>270.0</course>
  <speed>0.0</speed>
  <fix>3d</fix>
</trkpt>
<trkpt lat="-27.2744391" lon="151.2900641">
  <ele>343.01</ele>
  <time>2026-09-01T19:50:16Z</time>
  <course>10.72</course>
  <speed>0.022360679774997897</speed>
  <fix>3d</fix>
</trkpt>
<trkpt lat="-27.274439" lon="151.290064">
  <ele>343.1</ele>
  <time>2026-09-01T19:50:16Z</time>
  <course>270.0</course>
  <speed>0.0</speed>
  <fix>3d</fix>
</trkpt>
<trkpt lat="-27.2744391" lon="151.2900641">
  <ele>343.01</ele>
  <time>2026-09-01T19:50:16Z</time>
  <course>10.72</course>
  <speed>0.022360679774997897</speed>
  <fix>3d</fix>
</trkpt>
<trkpt lat="-27.274439" lon="151.290064">
  <ele>343.1</ele>
  <time>2026-09-01T19:50:16Z</time>
  <course>270.0</course>
  <speed>0.0</speed>
  <fix>3d</fix>
</trkpt>
<trkpt lat="-27.2744391" lon="151.2900641">
  <ele>343.01</ele>
  <time>2026-09-01T19:50:16Z</time>
  <course>10.72</course>
  <speed>0.022360679774997897</speed>
  <fix>3d</fix>
</trkpt>
<trkpt lat="-27.274439" lon="151.290064">
  <ele>343.1</ele>
  <time>2026-09-01T19:50:16Z</time>
  <course>270.0</course>
  <speed>0.0</speed>
  <fix>3d</fix>
</trkpt>
<trkpt lat="-27.2744391" lon="151.2900641">
  <ele>343.01</ele>
  <time>2026-09-01T19:50:16Z</time>
  <course>10.72</course>
  <speed>0.022360679774997897</speed>
  <fix>3d</fix>
</trkpt>
<trkpt lat="-27.274439" lon="151.290064">
  <ele>343.1</ele>
  <time>2026-09-01T19:50:16Z</time>
  <course>270.0</course>
  <speed>0.0</speed>
  <fix>3d</fix>
</trkpt>
<trkpt lat="-27.2744391" lon="151.2900641">
  <ele>343.02</ele>
  <time>2026-09-01T19:50:16Z</time>
  <course>10.72</course>
  <speed>0.022360679774997897</speed>
  <fix>3d</fix>
</trkpt>
<trkpt lat="-27.274439" lon="151.290064">
  <ele>343.1</ele>
  <time>2026-09-01T19:50:16Z</time>
  <course>270.0</course>
  <speed>0.0</speed>
  <fix>3d</fix>
</trkpt>
<trkpt lat="-27.2744391" lon="151.2900641">
  <ele>343.02</ele>
  <time>2026-09-01T19:50:16Z</time>
  <course>10.72</course>
  <speed>0.022360679774997897</speed>
  <fix>3d</fix>
</trkpt>
<trkpt lat="-27.274439" lon="151.290064">
  <ele>343.1</ele>
  <time>2026-09-01T19:50:16Z</time>
  <course>270.0</course>
  <speed>0.0</speed>
  <fix>3d</fix>
</trkpt>
<trkpt lat="-27.2744391" lon="151.2900641">
  <ele>343.02</ele>
  <time>2026-09-01T19:50:16Z</time>
  <course>10.72</course>
  <speed>0.022360679774997897</speed>
  <fix>3d</fix>
</trkpt>
<trkpt lat="-27.274439" lon="151.290064">
  <ele>343.1</ele>
  <time>2026-09-01T19:50:16Z</time>
  <course>270.0</course>
  <speed>0.0</speed>
  <fix>3d</fix>
</trkpt>
<trkpt lat="-27.2744391" lon="151.2900641">
  <ele>343.02</ele>
  <time>2026-09-01T19:50:16Z</time>
  <course>10.72</course>
  <speed>0.022360679774997897</speed>
  <fix>3d</fix>
</trkpt>
<trkpt lat="-27.274439" lon="151.290064">
  <ele>343.1</ele>
  <time>2026-09-01T19:50:16Z</time>
  <course>270.0</course>
  <speed>0.0</speed>
  <fix>3d</fix>
</trkpt>
<trkpt lat="-27.2744391" lon="151.2900641">
  <ele>343.09</ele>
  <time>2026-09-01T19:50:16Z</time>
  <course>10.72</course>
  <speed>0.022360679774997897</speed>
  <fix>3d</fix>
</trkpt>
<trkpt lat="-27.274439" lon="151.290064">
  <ele>343.1</ele>
  <time>2026-09-01T19:50:16Z</time>
  <course>270.0</course>
  <speed>0.0</speed>
  <fix>3d</fix>
</trkpt>
<trkpt lat="-27.2744391" lon="151.2900641">
  <ele>343.1</ele>
  <time>2026-09-01T19:50:16Z</time>
  <course>10.72</course>
  <speed>0.022360679774997897</speed>
  <fix>3d</fix>
</trkpt>
<trkpt lat="-27.274439" lon="151.290064">
  <ele>343.1</ele>
  <time>2026-09-01T19:50:16Z</time>
  <course>270.0</course>
  <speed>0.0</speed>
  <fix>3d</fix>
</trkpt>
<trkpt lat="-27.2744391" lon="151.2900641">
  <ele>343.1</ele>
  <time>2026-09-01T19:50:16Z</time>
  <course>10.72</course>
  <speed>0.022360679774997897</speed>
  <fix>3d</fix>
</trkpt>
<trkpt lat="-27.274439" lon="151.290064">
  <ele>343.1</ele>
  <time>2026-09-01T19:50:16Z</time>
  <course>270.0</course>
  <speed>0.0</speed>
  <fix>3d</fix>
</trkpt>
<trkpt lat="-27.2744391" lon="151.2900641">
  <ele>343.1</ele>
  <time>2026-09-01T19:50:16Z</time>
  <course>10.72</course>
  <speed>0.022360679774997897</speed>
  <fix>3d</fix>
</trkpt>
<trkpt lat="-27.274439" lon="151.290064">
  <ele>343.1</ele>
  <time>2026-09-01T19:50:16Z</time>
  <course>270.0</course>
  <speed>0.0</speed>
  <fix>3d</fix>
</trkpt>
<trkpt lat="-27.2744391" lon="151.2900641">
  <ele>343.1</ele>
  <time>2026-09-01T19:50:16Z</time>
  <course>10.72</course>
  <speed>0.022360679774997897</speed>
  <fix>3d</fix>
</trkpt>
<trkpt lat="-27.274439" lon="151.290064">
  <ele>343.1</ele>
  <time>2026-09-01T19:50:16Z</time>
  <course>270.0</course>
  <speed>0.0</speed>
  <fix>3d</fix>
</trkpt>
<trkpt lat="-27.2744391" lon="151.2900641">
  <ele>343.09</ele>
  <time>2026-09-01T19:50:16Z</time>
  <course>10.72</course>
  <speed>0.022360679774997897</speed>
  <fix>3d</fix>
</trkpt>
<trkpt lat="-27.274439" lon="151.290064">
  <ele>343.1</ele>
  <time>2026-09-01T19:50:16Z</time>
  <course>270.0</course>
  <speed>0.0</speed>
  <fix>3d</fix>
</trkpt>
<trkpt lat="-27.2744391" lon="151.2900641">
  <ele>343.09</ele>
  <time>2026-09-01T19:50:16Z</time>
  <course>10.72</course>
  <speed>0.022360679774997897</speed>
  <fix>3d</fix>
</trkpt>
<trkpt lat="-27.274439" lon="151.290064">
  <ele>343.1</ele>
  <time>2026-09-01T19:50:16Z</time>
  <course>270.0</course>
  <speed>0.0</speed>
  <fix>3d</fix>
</trkpt>
<trkpt lat="-27.2744391" lon="151.2900641">
  <ele>343.09</ele>
  <time>2026-09-01T19:50:16Z</time>
  <course>10.72</course>
  <speed>0.022360679774997897</speed>
  <fix>3d</fix>
</trkpt>
<trkpt lat="-27.274439" lon="151.290064">
  <ele>343.1</ele>
  <time>2026-09-01T19:50:16Z</time>
  <course>270.0</course>
  <speed>0.0</speed>
  <fix>3d</fix>
</trkpt>
<trkpt lat="-27.2744391" lon="151.2900641">
  <ele>343.09</ele>
  <time>2026-09-01T19:50:16Z</time>
  <course>10.72</course>
  <speed>0.022360679774997897</speed>
  <fix>3d</fix>
</trkpt>
<trkpt lat="-27.274439" lon="151.290064">
  <ele>343.1</ele>
  <time>2026-09-01T19:50:16Z</time>
  <course>270.0</course>
  <speed>0.0</speed>
  <fix>3d</fix>
</trkpt>
<trkpt lat="-27.2744391" lon="151.2900641">
  <ele>343.08</ele>
  <time>2026-09-01T19:50:16Z</time>
  <course>10.72</course>
  <speed>0.022360679774997897</speed>
  <fix>3d</fix>
</trkpt>
<trkpt lat="-27.274439" lon="151.290064">
  <ele>343.1</ele>
  <time>2026-09-01T19:50:16Z</time>
  <course>270.0</course>
  <speed>0.0</speed>
  <fix>3d</fix>
</trkpt>
<trkpt lat="-27.2744391" lon="151.2900641">
  <ele>343.08</ele>
  <time>2026-09-01T19:50:16Z</time>
  <course>10.72</course>
  <speed>0.022360679774997897</speed>
  <fix>3d</fix>
</trkpt>
<trkpt lat="-27.274439" lon="151.290064">
  <ele>343.1</ele>
  <time>2026-09-01T19:50:16Z</time>
  <course>270.0</course>
  <speed>0.0</speed>
  <fix>3d</fix>
</trkpt>
<trkpt lat="-27.2744391" lon="151.2900641">
  <ele>343.07</ele>
  <time>2026-09-01T19:50:16Z</time>
  <course>10.72</course>
  <speed>0.022360679774997897</speed>
  <fix>3d</fix>
</trkpt>
<trkpt lat="-27.274439" lon="151.290064">
  <ele>343.1</ele>
  <time>2026-09-01T19:50:16Z</time>
  <course>270.0</course>
  <speed>0.0</speed>
  <fix>3d</fix>
</trkpt>
<trkpt lat="-27.2744391" lon="151.2900641">
  <ele>343.07</ele>
  <time>2026-09-01T19:50:16Z</time>
  <course>10.72</course>
  <speed>0.022360679774997897</speed>
  <fix>3d</fix>
</trkpt>
<trkpt lat="-27.274439" lon="151.290064">
  <ele>343.1</ele>
  <time>2026-09-01T19:50:16Z</time>
  <course>270.0</course>
  <speed>0.0</speed>
  <fix>3d</fix>
</trkpt>
<trkpt lat="-27.2744391" lon="151.2900641">
  <ele>343.06</ele>
  <time>2026-09-01T19:50:16Z</time>
  <course>10.72</course>
  <speed>0.022360679774997897</speed>
  <fix>3d</fix>
</trkpt>
<trkpt lat="-27.274439" lon="151.290064">
  <ele>343.1</ele>
  <time>2026-09-01T19:50:16Z</time>
  <course>270.0</course>
  <speed>0.0</speed>
  <fix>3d</fix>
</trkpt>
<trkpt lat="-27.2744391" lon="151.2900641">
  <ele>343.06</ele>
  <time>2026-09-01T19:50:16Z</time>
  <course>10.72</course>
  <speed>0.022360679774997897</speed>
  <fix>3d</fix>
</trkpt>
<trkpt lat="-27.274439" lon="151.290064">
  <ele>343.1</ele>
  <time>2026-09-01T19:50:16Z</time>
  <course>270.0</course>
  <speed>0.0</speed>
  <fix>3d</fix>
</trkpt>
<trkpt lat="-27.2744391" lon="151.2900641">
  <ele>343.06</ele>
  <time>2026-09-01T19:50:16Z</time>
  <course>10.72</course>
  <speed>0.022360679774997897</speed>
  <fix>3d</fix>
</trkpt>
<trkpt lat="-27.274439" lon="151.290064">
  <ele>343.1</ele>
  <time>2026-09-01T19:50:16Z</time>
  <course>270.0</course>
  <speed>0.0</speed>
  <fix>3d</fix>
</trkpt>
<trkpt lat="-27.2744391" lon="151.2900641">
  <ele>343.05</ele>
  <time>2026-09-01T19:50:16Z</time>
  <course>10.72</course>
  <speed>0.022360679774997897</speed>
  <fix>3d</fix>
</trkpt>
<trkpt lat="-27.274439" lon="151.290064">
  <ele>343.1</ele>
  <time>2026-09-01T19:50:16Z</time>
  <course>270.0</course>
  <speed>0.0</speed>
  <fix>3d</fix>
</trkpt>
<trkpt lat="-27.2744391" lon="151.2900641">
  <ele>343.05</ele>
  <time>2026-09-01T19:50:16Z</time>
  <course>10.72</course>
  <speed>0.022360679774997897</speed>
  <fix>3d</fix>
</trkpt>
<trkpt lat="-27.274439" lon="151.290064">
  <ele>343.1</ele>
  <time>2026-09-01T19:50:16Z</time>
  <course>270.0</course>
  <speed>0.0</speed>
  <fix>3d</fix>
</trkpt>
<trkpt lat="-27.2744391" lon="151.2900641">
  <ele>343.05</ele>
  <time>2026-09-01T19:50:16Z</time>
  <course>10.73</course>
  <speed>0.022360679774997897</speed>
  <fix>3d</fix>
</trkpt>
<trkpt lat="-27.274439" lon="151.290064">
  <ele>343.1</ele>
  <time>2026-09-01T19:50:16Z</time>
  <course>270.0</course>
  <speed>0.0</speed>
  <fix>3d</fix>
</trkpt>
<trkpt lat="-27.2744391" lon="151.2900641">
  <ele>343.05</ele>
  <time>2026-09-01T19:50:16Z</time>
  <course>10.73</course>
  <speed>0.022360679774997897</speed>
  <fix>3d</fix>
</trkpt>
<trkpt lat="-27.274439" lon="151.290064">
  <ele>343.1</ele>
  <time>2026-09-01T19:50:16Z</time>
  <course>270.0</course>
  <speed>0.0</speed>
  <fix>3d</fix>
</trkpt>
<trkpt lat="-27.2744391" lon="151.2900641">
  <ele>343.04</ele>
  <time>2026-09-01T19:50:17Z</time>
  <course>10.73</course>
  <speed>0.022360679774997897</speed>
  <fix>3d</fix>
</trkpt>
<trkpt lat="-27.274439" lon="151.290064">
  <ele>343.1</ele>
  <time>2026-09-01T19:50:17Z</time>
  <course>270.0</course>
  <speed>0.0</speed>
  <fix>3d</fix>
</trkpt>
<trkpt lat="-27.2744391" lon="151.2900641">
  <ele>343.04</ele>
  <time>2026-09-01T19:50:17Z</time>
  <course>10.73</course>
  <speed>0.022360679774997897</speed>
  <fix>3d</fix>
</trkpt>
<trkpt lat="-27.274439" lon="151.290064">
  <ele>343.1</ele>
  <time>2026-09-01T19:50:17Z</time>
  <course>270.0</course>
  <speed>0.0</speed>
  <fix>3d</fix>
</trkpt>
<trkpt lat="-27.2744391" lon="151.2900641">
  <ele>343.03</ele>
  <time>2026-09-01T19:50:17Z</time>
  <course>10.73</course>
  <speed>0.022360679774997897</speed>
  <fix>3d</fix>
</trkpt>
<trkpt lat="-27.274439" lon="151.290064">
  <ele>343.1</ele>
  <time>2026-09-01T19:50:17Z</time>
  <course>270.0</course>
  <speed>0.0</speed>
  <fix>3d</fix>
</trkpt>
<trkpt lat="-27.2744391" lon="151.2900641">
  <ele>343.03</ele>
  <time>2026-09-01T19:50:17Z</time>
  <course>10.73</course>
  <speed>0.022360679774997897</speed>
  <fix>3d</fix>
</trkpt>
<trkpt lat="-27.274439" lon="151.290064">
  <ele>343.1</ele>
  <time>2026-09-01T19:50:17Z</time>
  <course>270.0</course>
  <speed>0.0</speed>
  <fix>3d</fix>
</trkpt>
<trkpt lat="-27.2744391" lon="151.2900641">
  <ele>343.03</ele>
  <time>2026-09-01T19:50:17Z</time>
  <course>10.73</course>
  <speed>0.022360679774997897</speed>
  <fix>3d</fix>
</trkpt>
<trkpt lat="-27.274439" lon="151.290064">
  <ele>343.1</ele>
  <time>2026-09-01T19:50:17Z</time>
  <course>270.0</course>
  <speed>0.0</speed>
  <fix>3d</fix>
</trkpt>
<trkpt lat="-27.2744391" lon="151.2900641">
  <ele>343.03</ele>
  <time>2026-09-01T19:50:17Z</time>
  <course>10.73</course>
  <speed>0.022360679774997897</speed>
  <fix>3d</fix>
</trkpt>
<trkpt lat="-27.274439" lon="151.290064">
  <ele>343.1</ele>
  <time>2026-09-01T19:50:17Z</time>
  <course>270.0</course>
  <speed>0.0</speed>
  <fix>3d</fix>
</trkpt>
<trkpt lat="-27.2744391" lon="151.2900641">
  <ele>343.03</ele>
  <time>2026-09-01T19:50:17Z</time>
  <course>10.73</course>
  <speed>0.022360679774997897</speed>
  <fix>3d</fix>
</trkpt>
<trkpt lat="-27.274439" lon="151.290064">
  <ele>343.1</ele>
  <time>2026-09-01T19:50:17Z</time>
  <course>270.0</course>
  <speed>0.0</speed>
  <fix>3d</fix>
</trkpt>
<trkpt lat="-27.2744391" lon="151.2900641">
  <ele>343.02</ele>
  <time>2026-09-01T19:50:17Z</time>
  <course>10.73</course>
  <speed>0.022360679774997897</speed>
  <fix>3d</fix>
</trkpt>
<trkpt lat="-27.274439" lon="151.290064">
  <ele>343.1</ele>
  <time>2026-09-01T19:50:17Z</time>
  <course>270.0</course>
  <speed>0.0</speed>
  <fix>3d</fix>
</trkpt>
<trkpt lat="-27.2744391" lon="151.2900641">
  <ele>343.02</ele>
  <time>2026-09-01T19:50:17Z</time>
  <course>10.73</course>
  <speed>0.022360679774997897</speed>
  <fix>3d</fix>
</trkpt>
<trkpt lat="-27.274439" lon="151.290064">
  <ele>343.1</ele>
  <time>2026-09-01T19:50:17Z</time>
  <course>270.0</course>
  <speed>0.0</speed>
  <fix>3d</fix>
</trkpt>
<trkpt lat="-27.2744391" lon="151.2900641">
  <ele>343.02</ele>
  <time>2026-09-01T19:50:17Z</time>
  <course>10.73</course>
  <speed>0.022360679774997897</speed>
  <fix>3d</fix>
</trkpt>
<trkpt lat="-27.274439" lon="151.290064">
  <ele>343.1</ele>
  <time>2026-09-01T19:50:17Z</time>
  <course>270.0</course>
  <speed>0.0</speed>
  <fix>3d</fix>
</trkpt>
<trkpt lat="-27.2744391" lon="151.2900641">
  <ele>343.02</ele>
  <time>2026-09-01T19:50:17Z</time>
  <course>10.73</course>
  <speed>0.022360679774997897</speed>
  <fix>3d</fix>
</trkpt>
<trkpt lat="-27.274439" lon="151.290064">
  <ele>343.1</ele>
  <time>2026-09-01T19:50:17Z</time>
  <course>270.0</course>
  <speed>0.0</speed>
  <fix>3d</fix>
</trkpt>
<trkpt lat="-27.2744391" lon="151.2900641">
  <ele>343.02</ele>
  <time>2026-09-01T19:50:17Z</time>
  <course>10.73</course>
  <speed>0.022360679774997897</speed>
  <fix>3d</fix>
</trkpt>
<trkpt lat="-27.274439" lon="151.290064">
  <ele>343.1</ele>
  <time>2026-09-01T19:50:17Z</time>
  <course>270.0</course>
  <speed>0.0</speed>
  <fix>3d</fix>
</trkpt>
<trkpt lat="-27.2744391" lon="151.2900641">
  <ele>343.02</ele>
  <time>2026-09-01T19:50:17Z</time>
  <course>10.73</course>
  <speed>0.022360679774997897</speed>
  <fix>3d</fix>
</trkpt>
<trkpt lat="-27.274439" lon="151.290064">
  <ele>343.1</ele>
  <time>2026-09-01T19:50:17Z</time>
  <course>270.0</course>
  <speed>0.0</speed>
  <fix>3d</fix>
</trkpt>
<trkpt lat="-27.2744391" lon="151.2900641">
  <ele>343.01</ele>
  <time>2026-09-01T19:50:17Z</time>
  <course>10.73</course>
  <speed>0.022360679774997897</speed>
  <fix>3d</fix>
</trkpt>
<trkpt lat="-27.274439" lon="151.290064">
  <ele>343.1</ele>
  <time>2026-09-01T19:50:17Z</time>
  <course>270.0</course>
  <speed>0.0</speed>
  <fix>3d</fix>
</trkpt>
<trkpt lat="-27.2744391" lon="151.2900641">
  <ele>343.01</ele>
  <time>2026-09-01T19:50:17Z</time>
  <course>10.73</course>
  <speed>0.022360679774997897</speed>
  <fix>3d</fix>
</trkpt>
<trkpt lat="-27.274439" lon="151.290064">
  <ele>343.1</ele>
  <time>2026-09-01T19:50:17Z</time>
  <course>270.0</course>
  <speed>0.0</speed>
  <fix>3d</fix>
</trkpt>
<trkpt lat="-27.2744391" lon="151.2900641">
  <ele>343.01</ele>
  <time>2026-09-01T19:50:17Z</time>
  <course>10.73</course>
  <speed>0.022360679774997897</speed>
  <fix>3d</fix>
</trkpt>
<trkpt lat="-27.274439" lon="151.290064">
  <ele>343.1</ele>
  <time>2026-09-01T19:50:17Z</time>
  <course>270.0</course>
  <speed>0.0</speed>
  <fix>3d</fix>
</trkpt>
<trkpt lat="-27.2744391" lon="151.2900641">
  <ele>343.01</ele>
  <time>2026-09-01T19:50:17Z</time>
  <course>10.73</course>
  <speed>0.022360679774997897</speed>
  <fix>3d</fix>
</trkpt>
<trkpt lat="-27.274439" lon="151.290064">
  <ele>343.1</ele>
  <time>2026-09-01T19:50:17Z</time>
  <course>270.0</course>
  <speed>0.0</speed>
  <fix>3d</fix>
</trkpt>
<trkpt lat="-27.2744391" lon="151.2900641">
  <ele>343.0</ele>
  <time>2026-09-01T19:50:17Z</time>
  <course>10.73</course>
  <speed>0.022360679774997897</speed>
  <fix>3d</fix>
</trkpt>
<trkpt lat="-27.274439" lon="151.290064">
  <ele>343.1</ele>
  <time>2026-09-01T19:50:17Z</time>
  <course>270.0</course>
  <speed>0.0</speed>
  <fix>3d</fix>
</trkpt>
<trkpt lat="-27.2744391" lon="151.2900641">
  <ele>343.0</ele>
  <time>2026-09-01T19:50:17Z</time>
  <course>10.73</course>
  <speed>0.022360679774997897</speed>
  <fix>3d</fix>
</trkpt>
<trkpt lat="-27.274439" lon="151.290064">
  <ele>343.1</ele>
  <time>2026-09-01T19:50:17Z</time>
  <course>270.0</course>
  <speed>0.0</speed>
  <fix>3d</fix>
</trkpt>
<trkpt lat="-27.2744391" lon="151.2900641">
  <ele>343.0</ele>
  <time>2026-09-01T19:50:17Z</time>
  <course>10.73</course>
  <speed>0.022360679774997897</speed>
  <fix>3d</fix>
</trkpt>
<trkpt lat="-27.274439" lon="151.290064">
  <ele>343.1</ele>
  <time>2026-09-01T19:50:17Z</time>
  <course>270.0</course>
  <speed>0.0</speed>
  <fix>3d</fix>
</trkpt>
<trkpt lat="-27.2744391" lon="151.2900641">
  <ele>342.99</ele>
  <time>2026-09-01T19:50:17Z</time>
  <course>10.73</course>
  <speed>0.022360679774997897</speed>
  <fix>3d</fix>
</trkpt>
<trkpt lat="-27.274439" lon="151.290064">
  <ele>343.1</ele>
  <time>2026-09-01T19:50:17Z</time>
  <course>270.0</course>
  <speed>0.0</speed>
  <fix>3d</fix>
</trkpt>
<trkpt lat="-27.2744391" lon="151.2900641">
  <ele>342.99</ele>
  <time>2026-09-01T19:50:17Z</time>
  <course>10.74</course>
  <speed>0.022360679774997897</speed>
  <fix>3d</fix>
</trkpt>
<trkpt lat="-27.274439" lon="151.290064">
  <ele>343.1</ele>
  <time>2026-09-01T19:50:17Z</time>
  <course>270.0</course>
  <speed>0.0</speed>
  <fix>3d</fix>
</trkpt>
<trkpt lat="-27.2744391" lon="151.2900641">
  <ele>342.99</ele>
  <time>2026-09-01T19:50:17Z</time>
  <course>10.74</course>
  <speed>0.022360679774997897</speed>
  <fix>3d</fix>
</trkpt>
<trkpt lat="-27.274439" lon="151.290064">
  <ele>343.1</ele>
  <time>2026-09-01T19:50:17Z</time>
  <course>270.0</course>
  <speed>0.0</speed>
  <fix>3d</fix>
</trkpt>
<trkpt lat="-27.2744391" lon="151.2900641">
  <ele>342.98</ele>
  <time>2026-09-01T19:50:17Z</time>
  <course>10.74</course>
  <speed>0.022360679774997897</speed>
  <fix>3d</fix>
</trkpt>
<trkpt lat="-27.274439" lon="151.290064">
  <ele>343.1</ele>
  <time>2026-09-01T19:50:17Z</time>
  <course>270.0</course>
  <speed>0.0</speed>
  <fix>3d</fix>
</trkpt>
<trkpt lat="-27.2744391" lon="151.2900641">
  <ele>342.98</ele>
  <time>2026-09-01T19:50:17Z</time>
  <course>10.74</course>
  <speed>0.022360679774997897</speed>
  <fix>3d</fix>
</trkpt>
<trkpt lat="-27.274439" lon="151.290064">
  <ele>343.1</ele>
  <time>2026-09-01T19:50:17Z</time>
  <course>270.0</course>
  <speed>0.0</speed>
  <fix>3d</fix>
</trkpt>
<trkpt lat="-27.2744391" lon="151.2900641">
  <ele>342.98</ele>
  <time>2026-09-01T19:50:17Z</time>
  <course>10.74</course>
  <speed>0.022360679774997897</speed>
  <fix>3d</fix>
</trkpt>
<trkpt lat="-27.274439" lon="151.290064">
  <ele>343.1</ele>
  <time>2026-09-01T19:50:17Z</time>
  <course>270.0</course>
  <speed>0.0</speed>
  <fix>3d</fix>
</trkpt>
<trkpt lat="-27.2744391" lon="151.2900641">
  <ele>342.98</ele>
  <time>2026-09-01T19:50:17Z</time>
  <course>10.74</course>
  <speed>0.022360679774997897</speed>
  <fix>3d</fix>
</trkpt>
<trkpt lat="-27.274439" lon="151.290064">
  <ele>343.1</ele>
  <time>2026-09-01T19:50:17Z</time>
  <course>270.0</course>
  <speed>0.0</speed>
  <fix>3d</fix>
</trkpt>
<trkpt lat="-27.2744391" lon="151.2900641">
  <ele>342.98</ele>
  <time>2026-09-01T19:50:17Z</time>
  <course>10.74</course>
  <speed>0.022360679774997897</speed>
  <fix>3d</fix>
</trkpt>
<trkpt lat="-27.274439" lon="151.290064">
  <ele>343.1</ele>
  <time>2026-09-01T19:50:17Z</time>
  <course>270.0</course>
  <speed>0.0</speed>
  <fix>3d</fix>
</trkpt>
<trkpt lat="-27.2744391" lon="151.2900641">
  <ele>342.98</ele>
  <time>2026-09-01T19:50:17Z</time>
  <course>10.74</course>
  <speed>0.022360679774997897</speed>
  <fix>3d</fix>
</trkpt>
<trkpt lat="-27.274439" lon="151.290064">
  <ele>343.1</ele>
  <time>2026-09-01T19:50:17Z</time>
  <course>270.0</course>
  <speed>0.0</speed>
  <fix>3d</fix>
</trkpt>
<trkpt lat="-27.2744391" lon="151.2900641">
  <ele>342.98</ele>
  <time>2026-09-01T19:50:17Z</time>
  <course>10.74</course>
  <speed>0.022360679774997897</speed>
  <fix>3d</fix>
</trkpt>
<trkpt lat="-27.274439" lon="151.290064">
  <ele>343.1</ele>
  <time>2026-09-01T19:50:17Z</time>
  <course>270.0</course>
  <speed>0.0</speed>
  <fix>3d</fix>
</trkpt>
<trkpt lat="-27.2744391" lon="151.2900641">
  <ele>342.98</ele>
  <time>2026-09-01T19:50:17Z</time>
  <course>10.74</course>
  <speed>0.022360679774997897</speed>
  <fix>3d</fix>
</trkpt>
<trkpt lat="-27.274439" lon="151.290064">
  <ele>343.1</ele>
  <time>2026-09-01T19:50:17Z</time>
  <course>270.0</course>
  <speed>0.0</speed>
  <fix>3d</fix>
</trkpt>
<trkpt lat="-27.2744391" lon="151.2900641">
  <ele>342.98</ele>
  <time>2026-09-01T19:50:17Z</time>
  <course>10.74</course>
  <speed>0.022360679774997897</speed>
  <fix>3d</fix>
</trkpt>
<trkpt lat="-27.274439" lon="151.290064">
  <ele>343.1</ele>
  <time>2026-09-01T19:50:17Z</time>
  <course>270.0</course>
  <speed>0.0</speed>
  <fix>3d</fix>
</trkpt>
<trkpt lat="-27.2744391" lon="151.2900641">
  <ele>342.98</ele>
  <time>2026-09-01T19:50:17Z</time>
  <course>10.74</course>
  <speed>0.022360679774997897</speed>
  <fix>3d</fix>
</trkpt>
<trkpt lat="-27.274439" lon="151.290064">
  <ele>343.1</ele>
  <time>2026-09-01T19:50:17Z</time>
  <course>270.0</course>
  <speed>0.0</speed>
  <fix>3d</fix>
</trkpt>
<trkpt lat="-27.2744391" lon="151.2900641">
  <ele>342.97</ele>
  <time>2026-09-01T19:50:17Z</time>
  <course>10.74</course>
  <speed>0.022360679774997897</speed>
  <fix>3d</fix>
</trkpt>
<trkpt lat="-27.274439" lon="151.290064">
  <ele>343.1</ele>
  <time>2026-09-01T19:50:17Z</time>
  <course>270.0</course>
  <speed>0.0</speed>
  <fix>3d</fix>
</trkpt>
<trkpt lat="-27.2744391" lon="151.2900641">
  <ele>342.97</ele>
  <time>2026-09-01T19:50:17Z</time>
  <course>10.74</course>
  <speed>0.022360679774997897</speed>
  <fix>3d</fix>
</trkpt>
<trkpt lat="-27.274439" lon="151.290064">
  <ele>343.1</ele>
  <time>2026-09-01T19:50:17Z</time>
  <course>270.0</course>
  <speed>0.0</speed>
  <fix>3d</fix>
</trkpt>
<trkpt lat="-27.2744391" lon="151.2900641">
  <ele>342.97</ele>
  <time>2026-09-01T19:50:17Z</time>
  <course>10.74</course>
  <speed>0.022360679774997897</speed>
  <fix>3d</fix>
</trkpt>
<trkpt lat="-27.274439" lon="151.290064">
  <ele>343.1</ele>
  <time>2026-09-01T19:50:17Z</time>
  <course>270.0</course>
  <speed>0.0</speed>
  <fix>3d</fix>
</trkpt>
<trkpt lat="-27.2744391" lon="151.2900641">
  <ele>342.97</ele>
  <time>2026-09-01T19:50:17Z</time>
  <course>10.74</course>
  <speed>0.022360679774997897</speed>
  <fix>3d</fix>
</trkpt>
<trkpt lat="-27.274439" lon="151.290064">
  <ele>343.1</ele>
  <time>2026-09-01T19:50:17Z</time>
  <course>270.0</course>
  <speed>0.0</speed>
  <fix>3d</fix>
</trkpt>
<trkpt lat="-27.2744391" lon="151.2900641">
  <ele>342.97</ele>
  <time>2026-09-01T19:50:17Z</time>
  <course>10.74</course>
  <speed>0.022360679774997897</speed>
  <fix>3d</fix>
</trkpt>
<trkpt lat="-27.274439" lon="151.290064">
  <ele>343.1</ele>
  <time>2026-09-01T19:50:17Z</time>
  <course>270.0</course>
  <speed>0.0</speed>
  <fix>3d</fix>
</trkpt>
<trkpt lat="-27.2744391" lon="151.2900641">
  <ele>342.97</ele>
  <time>2026-09-01T19:50:17Z</time>
  <course>10.74</course>
  <speed>0.022360679774997897</speed>
  <fix>3d</fix>
</trkpt>
<trkpt lat="-27.274439" lon="151.290064">
  <ele>343.1</ele>
  <time>2026-09-01T19:50:17Z</time>
  <course>270.0</course>
  <speed>0.0</speed>
  <fix>3d</fix>
</trkpt>
<trkpt lat="-27.2744391" lon="151.2900641">
  <ele>342.97</ele>
  <time>2026-09-01T19:50:17Z</time>
  <course>10.74</course>
  <speed>0.022360679774997897</speed>
  <fix>3d</fix>
</trkpt>
<trkpt lat="-27.274439" lon="151.290064">
  <ele>343.1</ele>
  <time>2026-09-01T19:50:17Z</time>
  <course>270.0</course>
  <speed>0.0</speed>
  <fix>3d</fix>
</trkpt>
<trkpt lat="-27.2744391" lon="151.2900641">
  <ele>343.09</ele>
  <time>2026-09-01T19:50:17Z</time>
  <course>10.74</course>
  <speed>0.022360679774997897</speed>
  <fix>3d</fix>
</trkpt>
<trkpt lat="-27.274439" lon="151.290064">
  <ele>343.1</ele>
  <time>2026-09-01T19:50:17Z</time>
  <course>270.0</course>
  <speed>0.0</speed>
  <fix>3d</fix>
</trkpt>
<trkpt lat="-27.2744391" lon="151.2900641">
  <ele>343.09</ele>
  <time>2026-09-01T19:50:17Z</time>
  <course>10.74</course>
  <speed>0.022360679774997897</speed>
  <fix>3d</fix>
</trkpt>
<trkpt lat="-27.274439" lon="151.290064">
  <ele>343.1</ele>
  <time>2026-09-01T19:50:17Z</time>
  <course>270.0</course>
  <speed>0.0</speed>
  <fix>3d</fix>
</trkpt>
<trkpt lat="-27.2744391" lon="151.2900641">
  <ele>343.09</ele>
  <time>2026-09-01T19:50:17Z</time>
  <course>10.74</course>
  <speed>0.022360679774997897</speed>
  <fix>3d</fix>
</trkpt>
<trkpt lat="-27.274439" lon="151.290064">
  <ele>343.1</ele>
  <time>2026-09-01T19:50:17Z</time>
  <course>270.0</course>
  <speed>0.0</speed>
  <fix>3d</fix>
</trkpt>
<trkpt lat="-27.2744391" lon="151.2900641">
  <ele>343.09</ele>
  <time>2026-09-01T19:50:17Z</time>
  <course>10.74</course>
  <speed>0.022360679774997897</speed>
  <fix>3d</fix>
</trkpt>
<trkpt lat="-27.274439" lon="151.290064">
  <ele>343.1</ele>
  <time>2026-09-01T19:50:17Z</time>
  <course>270.0</course>
  <speed>0.0</speed>
  <fix>3d</fix>
</trkpt>
<trkpt lat="-27.2744391" lon="151.2900641">
  <ele>343.09</ele>
  <time>2026-09-01T19:50:17Z</time>
  <course>10.75</course>
  <speed>0.022360679774997897</speed>
  <fix>3d</fix>
</trkpt>
<trkpt lat="-27.274439" lon="151.290064">
  <ele>343.1</ele>
  <time>2026-09-01T19:50:17Z</time>
  <course>270.0</course>
  <speed>0.0</speed>
  <fix>3d</fix>
</trkpt>
<trkpt lat="-27.2744391" lon="151.2900641">
  <ele>343.09</ele>
  <time>2026-09-01T19:50:17Z</time>
  <course>10.75</course>
  <speed>0.022360679774997897</speed>
  <fix>3d</fix>
</trkpt>
<trkpt lat="-27.274439" lon="151.290064">
  <ele>343.1</ele>
  <time>2026-09-01T19:50:17Z</time>
  <course>270.0</course>
  <speed>0.0</speed>
  <fix>3d</fix>
</trkpt>
<trkpt lat="-27.2744391" lon="151.2900641">
  <ele>343.09</ele>
  <time>2026-09-01T19:50:17Z</time>
  <course>10.75</course>
  <speed>0.022360679774997897</speed>
  <fix>3d</fix>
</trkpt>
<trkpt lat="-27.274439" lon="151.290064">
  <ele>343.1</ele>
  <time>2026-09-01T19:50:17Z</time>
  <course>270.0</course>
  <speed>0.0</speed>
  <fix>3d</fix>
</trkpt>
<trkpt lat="-27.2744391" lon="151.2900641">
  <ele>343.09</ele>
  <time>2026-09-01T19:50:17Z</time>
  <course>10.75</course>
  <speed>0.022360679774997897</speed>
  <fix>3d</fix>
</trkpt>
<trkpt lat="-27.274439" lon="151.290064">
  <ele>343.1</ele>
  <time>2026-09-01T19:50:17Z</time>
  <course>270.0</course>
  <speed>0.0</speed>
  <fix>3d</fix>
</trkpt>
<trkpt lat="-27.2744391" lon="151.2900641">
  <ele>343.09</ele>
  <time>2026-09-01T19:50:17Z</time>
  <course>10.75</course>
  <speed>0.022360679774997897</speed>
  <fix>3d</fix>
</trkpt>
<trkpt lat="-27.274439" lon="151.290064">
  <ele>343.1</ele>
  <time>2026-09-01T19:50:17Z</time>
  <course>270.0</course>
  <speed>0.0</speed>
  <fix>3d</fix>
</trkpt>
<trkpt lat="-27.2744391" lon="151.2900641">
  <ele>343.09</ele>
  <time>2026-09-01T19:50:17Z</time>
  <course>10.75</course>
  <speed>0.022360679774997897</speed>
  <fix>3d</fix>
</trkpt>
<trkpt lat="-27.274439" lon="151.290064">
  <ele>343.1</ele>
  <time>2026-09-01T19:50:17Z</time>
  <course>270.0</course>
  <speed>0.0</speed>
  <fix>3d</fix>
</trkpt>
<trkpt lat="-27.2744391" lon="151.2900641">
  <ele>343.08</ele>
  <time>2026-09-01T19:50:17Z</time>
  <course>10.75</course>
  <speed>0.022360679774997897</speed>
  <fix>3d</fix>
</trkpt>
<trkpt lat="-27.274439" lon="151.290064">
  <ele>343.1</ele>
  <time>2026-09-01T19:50:17Z</time>
  <course>270.0</course>
  <speed>0.0</speed>
  <fix>3d</fix>
</trkpt>
<trkpt lat="-27.2744391" lon="151.2900641">
  <ele>343.08</ele>
  <time>2026-09-01T19:50:17Z</time>
  <course>10.75</course>
  <speed>0.022360679774997897</speed>
  <fix>3d</fix>
</trkpt>
<trkpt lat="-27.274439" lon="151.290064">
  <ele>343.1</ele>
  <time>2026-09-01T19:50:17Z</time>
  <course>270.0</course>
  <speed>0.0</speed>
  <fix>3d</fix>
</trkpt>
<trkpt lat="-27.2744391" lon="151.2900641">
  <ele>343.08</ele>
  <time>2026-09-01T19:50:17Z</time>
  <course>10.75</course>
  <speed>0.022360679774997897</speed>
  <fix>3d</fix>
</trkpt>
<trkpt lat="-27.274439" lon="151.290064">
  <ele>343.1</ele>
  <time>2026-09-01T19:50:17Z</time>
  <course>270.0</course>
  <speed>0.0</speed>
  <fix>3d</fix>
</trkpt>
<trkpt lat="-27.2744391" lon="151.2900641">
  <ele>343.08</ele>
  <time>2026-09-01T19:50:17Z</time>
  <course>10.75</course>
  <speed>0.022360679774997897</speed>
  <fix>3d</fix>
</trkpt>
<trkpt lat="-27.274439" lon="151.290064">
  <ele>343.1</ele>
  <time>2026-09-01T19:50:17Z</time>
  <course>270.0</course>
  <speed>0.0</speed>
  <fix>3d</fix>
</trkpt>
<trkpt lat="-27.2744391" lon="151.2900641">
  <ele>343.08</ele>
  <time>2026-09-01T19:50:17Z</time>
  <course>10.75</course>
  <speed>0.022360679774997897</speed>
  <fix>3d</fix>
</trkpt>
<trkpt lat="-27.274439" lon="151.290064">
  <ele>343.1</ele>
  <time>2026-09-01T19:50:17Z</time>
  <course>270.0</course>
  <speed>0.0</speed>
  <fix>3d</fix>
</trkpt>
<trkpt lat="-27.2744391" lon="151.2900641">
  <ele>343.08</ele>
  <time>2026-09-01T19:50:17Z</time>
  <course>10.75</course>
  <speed>0.022360679774997897</speed>
  <fix>3d</fix>
</trkpt>
<trkpt lat="-27.274439" lon="151.290064">
  <ele>343.1</ele>
  <time>2026-09-01T19:50:17Z</time>
  <course>270.0</course>
  <speed>0.0</speed>
  <fix>3d</fix>
</trkpt>
<trkpt lat="-27.2744391" lon="151.2900641">
  <ele>343.08</ele>
  <time>2026-09-01T19:50:17Z</time>
  <course>10.75</course>
  <speed>0.022360679774997897</speed>
  <fix>3d</fix>
</trkpt>
<trkpt lat="-27.274439" lon="151.290064">
  <ele>343.1</ele>
  <time>2026-09-01T19:50:17Z</time>
  <course>270.0</course>
  <speed>0.0</speed>
  <fix>3d</fix>
</trkpt>
<trkpt lat="-27.2744391" lon="151.2900641">
  <ele>343.07</ele>
  <time>2026-09-01T19:50:17Z</time>
  <course>10.75</course>
  <speed>0.022360679774997897</speed>
  <fix>3d</fix>
</trkpt>
<trkpt lat="-27.274439" lon="151.290064">
  <ele>343.1</ele>
  <time>2026-09-01T19:50:17Z</time>
  <course>270.0</course>
  <speed>0.0</speed>
  <fix>3d</fix>
</trkpt>
<trkpt lat="-27.2744391" lon="151.2900641">
  <ele>343.07</ele>
  <time>2026-09-01T19:50:17Z</time>
  <course>10.75</course>
  <speed>0.022360679774997897</speed>
  <fix>3d</fix>
</trkpt>
<trkpt lat="-27.274439" lon="151.290064">
  <ele>343.1</ele>
  <time>2026-09-01T19:50:17Z</time>
  <course>270.0</course>
  <speed>0.0</speed>
  <fix>3d</fix>
</trkpt>
<trkpt lat="-27.2744391" lon="151.2900641">
  <ele>343.07</ele>
  <time>2026-09-01T19:50:17Z</time>
  <course>10.75</course>
  <speed>0.022360679774997897</speed>
  <fix>3d</fix>
</trkpt>
<trkpt lat="-27.274439" lon="151.290064">
  <ele>343.1</ele>
  <time>2026-09-01T19:50:17Z</time>
  <course>270.0</course>
  <speed>0.0</speed>
  <fix>3d</fix>
</trkpt>
<trkpt lat="-27.2744391" lon="151.2900641">
  <ele>343.07</ele>
  <time>2026-09-01T19:50:17Z</time>
  <course>10.75</course>
  <speed>0.022360679774997897</speed>
  <fix>3d</fix>
</trkpt>
<trkpt lat="-27.274439" lon="151.290064">
  <ele>343.1</ele>
  <time>2026-09-01T19:50:17Z</time>
  <course>270.0</course>
  <speed>0.0</speed>
  <fix>3d</fix>
</trkpt>
<trkpt lat="-27.2744391" lon="151.2900641">
  <ele>343.07</ele>
  <time>2026-09-01T19:50:17Z</time>
  <course>10.75</course>
  <speed>0.022360679774997897</speed>
  <fix>3d</fix>
</trkpt>
<trkpt lat="-27.274439" lon="151.290064">
  <ele>343.1</ele>
  <time>2026-09-01T19:50:17Z</time>
  <course>270.0</course>
  <speed>0.0</speed>
  <fix>3d</fix>
</trkpt>
<trkpt lat="-27.2744391" lon="151.2900641">
  <ele>343.07</ele>
  <time>2026-09-01T19:50:17Z</time>
  <course>10.75</course>
  <speed>0.022360679774997897</speed>
  <fix>3d</fix>
</trkpt>
<trkpt lat="-27.274439" lon="151.290064">
  <ele>343.1</ele>
  <time>2026-09-01T19:50:17Z</time>
  <course>270.0</course>
  <speed>0.0</speed>
  <fix>3d</fix>
</trkpt>
<trkpt lat="-27.2744391" lon="151.2900641">
  <ele>343.06</ele>
  <time>2026-09-01T19:50:17Z</time>
  <course>10.75</course>
  <speed>0.022360679774997897</speed>
  <fix>3d</fix>
</trkpt>
<trkpt lat="-27.274439" lon="151.290064">
  <ele>343.1</ele>
  <time>2026-09-01T19:50:17Z</time>
  <course>270.0</course>
  <speed>0.0</speed>
  <fix>3d</fix>
</trkpt>
<trkpt lat="-27.2744391" lon="151.2900641">
  <ele>343.06</ele>
  <time>2026-09-01T19:50:17Z</time>
  <course>10.75</course>
  <speed>0.022360679774997897</speed>
  <fix>3d</fix>
</trkpt>
<trkpt lat="-27.274439" lon="151.290064">
  <ele>343.1</ele>
  <time>2026-09-01T19:50:17Z</time>
  <course>270.0</course>
  <speed>0.0</speed>
  <fix>3d</fix>
</trkpt>
<trkpt lat="-27.2744391" lon="151.2900641">
  <ele>343.06</ele>
  <time>2026-09-01T19:50:17Z</time>
  <course>10.76</course>
  <speed>0.022360679774997897</speed>
  <fix>3d</fix>
</trkpt>
<trkpt lat="-27.274439" lon="151.290064">
  <ele>343.1</ele>
  <time>2026-09-01T19:50:17Z</time>
  <course>270.0</course>
  <speed>0.0</speed>
  <fix>3d</fix>
</trkpt>
<trkpt lat="-27.2744391" lon="151.2900641">
  <ele>343.06</ele>
  <time>2026-09-01T19:50:17Z</time>
  <course>10.76</course>
  <speed>0.022360679774997897</speed>
  <fix>3d</fix>
</trkpt>
<trkpt lat="-27.274439" lon="151.290064">
  <ele>343.1</ele>
  <time>2026-09-01T19:50:17Z</time>
  <course>270.0</course>
  <speed>0.0</speed>
  <fix>3d</fix>
</trkpt>
<trkpt lat="-27.2744391" lon="151.2900641">
  <ele>343.06</ele>
  <time>2026-09-01T19:50:17Z</time>
  <course>10.76</course>
  <speed>0.022360679774997897</speed>
  <fix>3d</fix>
</trkpt>
<trkpt lat="-27.274439" lon="151.290064">
  <ele>343.1</ele>
  <time>2026-09-01T19:50:17Z</time>
  <course>270.0</course>
  <speed>0.0</speed>
  <fix>3d</fix>
</trkpt>
<trkpt lat="-27.2744391" lon="151.2900641">
  <ele>343.06</ele>
  <time>2026-09-01T19:50:17Z</time>
  <course>10.76</course>
  <speed>0.022360679774997897</speed>
  <fix>3d</fix>
</trkpt>
<trkpt lat="-27.274439" lon="151.290064">
  <ele>343.1</ele>
  <time>2026-09-01T19:50:17Z</time>
  <course>270.0</course>
  <speed>0.0</speed>
  <fix>3d</fix>
</trkpt>
<trkpt lat="-27.2744391" lon="151.2900641">
  <ele>343.06</ele>
  <time>2026-09-01T19:50:17Z</time>
  <course>10.76</course>
  <speed>0.022360679774997897</speed>
  <fix>3d</fix>
</trkpt>
<trkpt lat="-27.274439" lon="151.290064">
  <ele>343.1</ele>
  <time>2026-09-01T19:50:17Z</time>
  <course>270.0</course>
  <speed>0.0</speed>
  <fix>3d</fix>
</trkpt>
<trkpt lat="-27.2744391" lon="151.2900641">
  <ele>343.06</ele>
  <time>2026-09-01T19:50:17Z</time>
  <course>10.76</course>
  <speed>0.022360679774997897</speed>
  <fix>3d</fix>
</trkpt>
<trkpt lat="-27.274439" lon="151.290064">
  <ele>343.1</ele>
  <time>2026-09-01T19:50:17Z</time>
  <course>270.0</course>
  <speed>0.0</speed>
  <fix>3d</fix>
</trkpt>
<trkpt lat="-27.2744391" lon="151.2900641">
  <ele>343.05</ele>
  <time>2026-09-01T19:50:17Z</time>
  <course>10.76</course>
  <speed>0.022360679774997897</speed>
  <fix>3d</fix>
</trkpt>
<trkpt lat="-27.274439" lon="151.290064">
  <ele>343.1</ele>
  <time>2026-09-01T19:50:17Z</time>
  <course>270.0</course>
  <speed>0.0</speed>
  <fix>3d</fix>
</trkpt>
<trkpt lat="-27.2744391" lon="151.2900641">
  <ele>343.05</ele>
  <time>2026-09-01T19:50:17Z</time>
  <course>10.76</course>
  <speed>0.022360679774997897</speed>
  <fix>3d</fix>
</trkpt>
<trkpt lat="-27.274439" lon="151.290064">
  <ele>343.1</ele>
  <time>2026-09-01T19:50:17Z</time>
  <course>270.0</course>
  <speed>0.0</speed>
  <fix>3d</fix>
</trkpt>
<trkpt lat="-27.2744391" lon="151.2900641">
  <ele>343.05</ele>
  <time>2026-09-01T19:50:17Z</time>
  <course>10.76</course>
  <speed>0.022360679774997897</speed>
  <fix>3d</fix>
</trkpt>
<trkpt lat="-27.274439" lon="151.290064">
  <ele>343.1</ele>
  <time>2026-09-01T19:50:17Z</time>
  <course>270.0</course>
  <speed>0.0</speed>
  <fix>3d</fix>
</trkpt>
<trkpt lat="-27.2744391" lon="151.2900641">
  <ele>343.05</ele>
  <time>2026-09-01T19:50:17Z</time>
  <course>10.76</course>
  <speed>0.022360679774997897</speed>
  <fix>3d</fix>
</trkpt>
<trkpt lat="-27.274439" lon="151.290064">
  <ele>343.1</ele>
  <time>2026-09-01T19:50:17Z</time>
  <course>270.0</course>
  <speed>0.0</speed>
  <fix>3d</fix>
</trkpt>
<trkpt lat="-27.2744391" lon="151.2900641">
  <ele>343.04</ele>
  <time>2026-09-01T19:50:17Z</time>
  <course>10.76</course>
  <speed>0.022360679774997897</speed>
  <fix>3d</fix>
</trkpt>
<trkpt lat="-27.274439" lon="151.290064">
  <ele>343.1</ele>
  <time>2026-09-01T19:50:17Z</time>
  <course>270.0</course>
  <speed>0.0</speed>
  <fix>3d</fix>
</trkpt>
<trkpt lat="-27.2744391" lon="151.2900641">
  <ele>343.04</ele>
  <time>2026-09-01T19:50:17Z</time>
  <course>10.76</course>
  <speed>0.022360679774997897</speed>
  <fix>3d</fix>
</trkpt>
<trkpt lat="-27.274439" lon="151.290064">
  <ele>343.1</ele>
  <time>2026-09-01T19:50:17Z</time>
  <course>270.0</course>
  <speed>0.0</speed>
  <fix>3d</fix>
</trkpt>
<trkpt lat="-27.2744391" lon="151.2900641">
  <ele>343.04</ele>
  <time>2026-09-01T19:50:17Z</time>
  <course>10.76</course>
  <speed>0.022360679774997897</speed>
  <fix>3d</fix>
</trkpt>
<trkpt lat="-27.274439" lon="151.290064">
  <ele>343.1</ele>
  <time>2026-09-01T19:50:17Z</time>
  <course>270.0</course>
  <speed>0.0</speed>
  <fix>3d</fix>
</trkpt>
<trkpt lat="-27.2744391" lon="151.2900641">
  <ele>343.03</ele>
  <time>2026-09-01T19:50:17Z</time>
  <course>10.76</course>
  <speed>0.022360679774997897</speed>
  <fix>3d</fix>
</trkpt>
<trkpt lat="-27.274439" lon="151.290064">
  <ele>343.1</ele>
  <time>2026-09-01T19:50:17Z</time>
  <course>270.0</course>
  <speed>0.0</speed>
  <fix>3d</fix>
</trkpt>
<trkpt lat="-27.2744391" lon="151.2900641">
  <ele>343.03</ele>
  <time>2026-09-01T19:50:17Z</time>
  <course>10.76</course>
  <speed>0.022360679774997897</speed>
  <fix>3d</fix>
</trkpt>
<trkpt lat="-27.274439" lon="151.290064">
  <ele>343.1</ele>
  <time>2026-09-01T19:50:17Z</time>
  <course>270.0</course>
  <speed>0.0</speed>
  <fix>3d</fix>
</trkpt>
<trkpt lat="-27.2744391" lon="151.2900641">
  <ele>343.03</ele>
  <time>2026-09-01T19:50:17Z</time>
  <course>10.76</course>
  <speed>0.022360679774997897</speed>
  <fix>3d</fix>
</trkpt>
<trkpt lat="-27.274439" lon="151.290064">
  <ele>343.1</ele>
  <time>2026-09-01T19:50:17Z</time>
  <course>270.0</course>
  <speed>0.0</speed>
  <fix>3d</fix>
</trkpt>
<trkpt lat="-27.2744391" lon="151.2900641">
  <ele>343.03</ele>
  <time>2026-09-01T19:50:17Z</time>
  <course>10.77</course>
  <speed>0.022360679774997897</speed>
  <fix>3d</fix>
</trkpt>
<trkpt lat="-27.274439" lon="151.290064">
  <ele>343.1</ele>
  <time>2026-09-01T19:50:17Z</time>
  <course>270.0</course>
  <speed>0.0</speed>
  <fix>3d</fix>
</trkpt>
<trkpt lat="-27.2744391" lon="151.2900641">
  <ele>343.03</ele>
  <time>2026-09-01T19:50:17Z</time>
  <course>10.77</course>
  <speed>0.022360679774997897</speed>
  <fix>3d</fix>
</trkpt>
<trkpt lat="-27.274439" lon="151.290064">
  <ele>343.1</ele>
  <time>2026-09-01T19:50:17Z</time>
  <course>270.0</course>
  <speed>0.0</speed>
  <fix>3d</fix>
</trkpt>
<trkpt lat="-27.2744391" lon="151.2900641">
  <ele>343.04</ele>
  <time>2026-09-01T19:50:17Z</time>
  <course>10.77</course>
  <speed>0.022360679774997897</speed>
  <fix>3d</fix>
</trkpt>
<trkpt lat="-27.274439" lon="151.290064">
  <ele>343.1</ele>
  <time>2026-09-01T19:50:17Z</time>
  <course>270.0</course>
  <speed>0.0</speed>
  <fix>3d</fix>
</trkpt>
<trkpt lat="-27.2744391" lon="151.2900641">
  <ele>343.04</ele>
  <time>2026-09-01T19:50:17Z</time>
  <course>10.77</course>
  <speed>0.022360679774997897</speed>
  <fix>3d</fix>
</trkpt>
<trkpt lat="-27.274439" lon="151.290064">
  <ele>343.1</ele>
  <time>2026-09-01T19:50:17Z</time>
  <course>270.0</course>
  <speed>0.0</speed>
  <fix>3d</fix>
</trkpt>
<trkpt lat="-27.2744391" lon="151.2900641">
  <ele>343.04</ele>
  <time>2026-09-01T19:50:17Z</time>
  <course>10.77</course>
  <speed>0.022360679774997897</speed>
  <fix>3d</fix>
</trkpt>
<trkpt lat="-27.274439" lon="151.290064">
  <ele>343.1</ele>
  <time>2026-09-01T19:50:17Z</time>
  <course>270.0</course>
  <speed>0.0</speed>
  <fix>3d</fix>
</trkpt>
<trkpt lat="-27.2744391" lon="151.2900641">
  <ele>343.05</ele>
  <time>2026-09-01T19:50:17Z</time>
  <course>10.77</course>
  <speed>0.022360679774997897</speed>
  <fix>3d</fix>
</trkpt>
<trkpt lat="-27.274439" lon="151.290064">
  <ele>343.1</ele>
  <time>2026-09-01T19:50:17Z</time>
  <course>270.0</course>
  <speed>0.0</speed>
  <fix>3d</fix>
</trkpt>
<trkpt lat="-27.2744391" lon="151.2900641">
  <ele>343.05</ele>
  <time>2026-09-01T19:50:17Z</time>
  <course>10.77</course>
  <speed>0.022360679774997897</speed>
  <fix>3d</fix>
</trkpt>
<trkpt lat="-27.274439" lon="151.290064">
  <ele>343.1</ele>
  <time>2026-09-01T19:50:17Z</time>
  <course>270.0</course>
  <speed>0.0</speed>
  <fix>3d</fix>
</trkpt>
<trkpt lat="-27.2744391" lon="151.2900641">
  <ele>343.05</ele>
  <time>2026-09-01T19:50:17Z</time>
  <course>10.77</course>
  <speed>0.022360679774997897</speed>
  <fix>3d</fix>
</trkpt>
<trkpt lat="-27.274439" lon="151.290064">
  <ele>343.1</ele>
  <time>2026-09-01T19:50:17Z</time>
  <course>270.0</course>
  <speed>0.0</speed>
  <fix>3d</fix>
</trkpt>
<trkpt lat="-27.2744392" lon="151.2900641">
  <ele>343.05</ele>
  <time>2026-09-01T19:50:17Z</time>
  <course>10.77</course>
  <speed>0.022360679774997897</speed>
  <fix>3d</fix>
</trkpt>
<trkpt lat="-27.274439" lon="151.290064">
  <ele>343.1</ele>
  <time>2026-09-01T19:50:17Z</time>
  <course>270.0</course>
  <speed>0.0</speed>
  <fix>3d</fix>
</trkpt>
<trkpt lat="-27.2744391" lon="151.2900641">
  <ele>343.06</ele>
  <time>2026-09-01T19:50:17Z</time>
  <course>10.77</course>
  <speed>0.022360679774997897</speed>
  <fix>3d</fix>
</trkpt>
<trkpt lat="-27.274439" lon="151.290064">
  <ele>343.1</ele>
  <time>2026-09-01T19:50:17Z</time>
  <course>270.0</course>
  <speed>0.0</speed>
  <fix>3d</fix>
</trkpt>
<trkpt lat="-27.2744392" lon="151.2900641">
  <ele>343.06</ele>
  <time>2026-09-01T19:50:17Z</time>
  <course>10.77</course>
  <speed>0.022360679774997897</speed>
  <fix>3d</fix>
</trkpt>
<trkpt lat="-27.274439" lon="151.290064">
  <ele>343.1</ele>
  <time>2026-09-01T19:50:17Z</time>
  <course>270.0</course>
  <speed>0.0</speed>
  <fix>3d</fix>
</trkpt>
<trkpt lat="-27.2744391" lon="151.2900641">
  <ele>343.06</ele>
  <time>2026-09-01T19:50:17Z</time>
  <course>10.77</course>
  <speed>0.022360679774997897</speed>
  <fix>3d</fix>
</trkpt>
<trkpt lat="-27.274439" lon="151.290064">
  <ele>343.1</ele>
  <time>2026-09-01T19:50:17Z</time>
  <course>270.0</course>
  <speed>0.0</speed>
  <fix>3d</fix>
</trkpt>
<trkpt lat="-27.2744392" lon="151.2900641">
  <ele>343.06</ele>
  <time>2026-09-01T19:50:17Z</time>
  <course>10.77</course>
  <speed>0.022360679774997897</speed>
  <fix>3d</fix>
</trkpt>
<trkpt lat="-27.274439" lon="151.290064">
  <ele>343.1</ele>
  <time>2026-09-01T19:50:17Z</time>
  <course>270.0</course>
  <speed>0.0</speed>
  <fix>3d</fix>
</trkpt>
<trkpt lat="-27.2744391" lon="151.2900641">
  <ele>343.06</ele>
  <time>2026-09-01T19:50:17Z</time>
  <course>10.77</course>
  <speed>0.022360679774997897</speed>
  <fix>3d</fix>
</trkpt>
<trkpt lat="-27.274439" lon="151.290064">
  <ele>343.1</ele>
  <time>2026-09-01T19:50:17Z</time>
  <course>270.0</course>
  <speed>0.0</speed>
  <fix>3d</fix>
</trkpt>
<trkpt lat="-27.2744392" lon="151.2900641">
  <ele>343.06</ele>
  <time>2026-09-01T19:50:17Z</time>
  <course>10.77</course>
  <speed>0.022360679774997897</speed>
  <fix>3d</fix>
</trkpt>
<trkpt lat="-27.274439" lon="151.290064">
  <ele>343.1</ele>
  <time>2026-09-01T19:50:17Z</time>
  <course>270.0</course>
  <speed>0.0</speed>
  <fix>3d</fix>
</trkpt>
<trkpt lat="-27.2744391" lon="151.2900641">
  <ele>343.06</ele>
  <time>2026-09-01T19:50:17Z</time>
  <course>10.77</course>
  <speed>0.022360679774997897</speed>
  <fix>3d</fix>
</trkpt>
<trkpt lat="-27.274439" lon="151.290064">
  <ele>343.1</ele>
  <time>2026-09-01T19:50:17Z</time>
  <course>270.0</course>
  <speed>0.0</speed>
  <fix>3d</fix>
</trkpt>
<trkpt lat="-27.2744392" lon="151.2900641">
  <ele>343.06</ele>
  <time>2026-09-01T19:50:17Z</time>
  <course>10.78</course>
  <speed>0.022360679774997897</speed>
  <fix>3d</fix>
</trkpt>
<trkpt lat="-27.274439" lon="151.290064">
  <ele>343.1</ele>
  <time>2026-09-01T19:50:17Z</time>
  <course>270.0</course>
  <speed>0.0</speed>
  <fix>3d</fix>
</trkpt>
<trkpt lat="-27.2744391" lon="151.2900641">
  <ele>343.06</ele>
  <time>2026-09-01T19:50:17Z</time>
  <course>10.78</course>
  <speed>0.022360679774997897</speed>
  <fix>3d</fix>
</trkpt>
<trkpt lat="-27.274439" lon="151.290064">
  <ele>343.1</ele>
  <time>2026-09-01T19:50:17Z</time>
  <course>270.0</course>
  <speed>0.0</speed>
  <fix>3d</fix>
</trkpt>
<trkpt lat="-27.2744392" lon="151.2900641">
  <ele>343.06</ele>
  <time>2026-09-01T19:50:17Z</time>
  <course>10.78</course>
  <speed>0.022360679774997897</speed>
  <fix>3d</fix>
</trkpt>
<trkpt lat="-27.274439" lon="151.290064">
  <ele>343.1</ele>
  <time>2026-09-01T19:50:17Z</time>
  <course>270.0</course>
  <speed>0.0</speed>
  <fix>3d</fix>
</trkpt>
<trkpt lat="-27.2744391" lon="151.2900641">
  <ele>343.1</ele>
  <time>2026-09-01T19:50:17Z</time>
  <course>10.78</course>
  <speed>0.022360679774997897</speed>
  <fix>3d</fix>
</trkpt>
<trkpt lat="-27.274439" lon="151.290064">
  <ele>343.1</ele>
  <time>2026-09-01T19:50:17Z</time>
  <course>270.0</course>
  <speed>0.0</speed>
  <fix>3d</fix>
</trkpt>
<trkpt lat="-27.2744392" lon="151.2900641">
  <ele>343.09</ele>
  <time>2026-09-01T19:50:17Z</time>
  <course>10.78</course>
  <speed>0.022360679774997897</speed>
  <fix>3d</fix>
</trkpt>
<trkpt lat="-27.274439" lon="151.290064">
  <ele>343.1</ele>
  <time>2026-09-01T19:50:17Z</time>
  <course>270.0</course>
  <speed>0.0</speed>
  <fix>3d</fix>
</trkpt>
<trkpt lat="-27.2744392" lon="151.2900641">
  <ele>343.09</ele>
  <time>2026-09-01T19:50:17Z</time>
  <course>10.78</course>
  <speed>0.022360679774997897</speed>
  <fix>3d</fix>
</trkpt>
<trkpt lat="-27.274439" lon="151.290064">
  <ele>343.1</ele>
  <time>2026-09-01T19:50:17Z</time>
  <course>270.0</course>
  <speed>0.0</speed>
  <fix>3d</fix>
</trkpt>
<trkpt lat="-27.2744392" lon="151.2900641">
  <ele>343.09</ele>
  <time>2026-09-01T19:50:17Z</time>
  <course>10.78</course>
  <speed>0.022360679774997897</speed>
  <fix>3d</fix>
</trkpt>
<trkpt lat="-27.274439" lon="151.290064">
  <ele>343.1</ele>
  <time>2026-09-01T19:50:17Z</time>
  <course>270.0</course>
  <speed>0.0</speed>
  <fix>3d</fix>
</trkpt>
<trkpt lat="-27.2744392" lon="151.2900641">
  <ele>343.09</ele>
  <time>2026-09-01T19:50:17Z</time>
  <course>10.78</course>
  <speed>0.022360679774997897</speed>
  <fix>3d</fix>
</trkpt>
<trkpt lat="-27.274439" lon="151.290064">
  <ele>343.1</ele>
  <time>2026-09-01T19:50:17Z</time>
  <course>270.0</course>
  <speed>0.0</speed>
  <fix>3d</fix>
</trkpt>
<trkpt lat="-27.2744392" lon="151.2900641">
  <ele>343.09</ele>
  <time>2026-09-01T19:50:17Z</time>
  <course>10.78</course>
  <speed>0.022360679774997897</speed>
  <fix>3d</fix>
</trkpt>
<trkpt lat="-27.274439" lon="151.290064">
  <ele>343.1</ele>
  <time>2026-09-01T19:50:17Z</time>
  <course>270.0</course>
  <speed>0.0</speed>
  <fix>3d</fix>
</trkpt>
<trkpt lat="-27.2744392" lon="151.2900641">
  <ele>343.09</ele>
  <time>2026-09-01T19:50:17Z</time>
  <course>10.78</course>
  <speed>0.022360679774997897</speed>
  <fix>3d</fix>
</trkpt>
<trkpt lat="-27.274439" lon="151.290064">
  <ele>343.1</ele>
  <time>2026-09-01T19:50:17Z</time>
  <course>270.0</course>
  <speed>0.0</speed>
  <fix>3d</fix>
</trkpt>
<trkpt lat="-27.2744392" lon="151.2900641">
  <ele>343.09</ele>
  <time>2026-09-01T19:50:17Z</time>
  <course>10.78</course>
  <speed>0.022360679774997897</speed>
  <fix>3d</fix>
</trkpt>
<trkpt lat="-27.274439" lon="151.290064">
  <ele>343.1</ele>
  <time>2026-09-01T19:50:17Z</time>
  <course>270.0</course>
  <speed>0.0</speed>
  <fix>3d</fix>
</trkpt>
<trkpt lat="-27.2744392" lon="151.2900641">
  <ele>343.09</ele>
  <time>2026-09-01T19:50:17Z</time>
  <course>10.78</course>
  <speed>0.022360679774997897</speed>
  <fix>3d</fix>
</trkpt>
<trkpt lat="-27.274439" lon="151.290064">
  <ele>343.1</ele>
  <time>2026-09-01T19:50:17Z</time>
  <course>270.0</course>
  <speed>0.0</speed>
  <fix>3d</fix>
</trkpt>
<trkpt lat="-27.2744392" lon="151.2900641">
  <ele>343.09</ele>
  <time>2026-09-01T19:50:17Z</time>
  <course>10.78</course>
  <speed>0.022360679774997897</speed>
  <fix>3d</fix>
</trkpt>
<trkpt lat="-27.274439" lon="151.290064">
  <ele>343.1</ele>
  <time>2026-09-01T19:50:17Z</time>
  <course>270.0</course>
  <speed>0.0</speed>
  <fix>3d</fix>
</trkpt>
<trkpt lat="-27.2744392" lon="151.2900641">
  <ele>343.09</ele>
  <time>2026-09-01T19:50:17Z</time>
  <course>10.78</course>
  <speed>0.022360679774997897</speed>
  <fix>3d</fix>
</trkpt>
<trkpt lat="-27.274439" lon="151.290064">
  <ele>343.1</ele>
  <time>2026-09-01T19:50:17Z</time>
  <course>270.0</course>
  <speed>0.0</speed>
  <fix>3d</fix>
</trkpt>
<trkpt lat="-27.2744392" lon="151.2900641">
  <ele>343.09</ele>
  <time>2026-09-01T19:50:17Z</time>
  <course>10.78</course>
  <speed>0.022360679774997897</speed>
  <fix>3d</fix>
</trkpt>
<trkpt lat="-27.274439" lon="151.290064">
  <ele>343.1</ele>
  <time>2026-09-01T19:50:17Z</time>
  <course>270.0</course>
  <speed>0.0</speed>
  <fix>3d</fix>
</trkpt>
<trkpt lat="-27.2744392" lon="151.2900641">
  <ele>343.09</ele>
  <time>2026-09-01T19:50:17Z</time>
  <course>10.78</course>
  <speed>0.022360679774997897</speed>
  <fix>3d</fix>
</trkpt>
<trkpt lat="-27.274439" lon="151.290064">
  <ele>343.1</ele>
  <time>2026-09-01T19:50:17Z</time>
  <course>270.0</course>
  <speed>0.0</speed>
  <fix>3d</fix>
</trkpt>
<trkpt lat="-27.2744392" lon="151.2900641">
  <ele>343.09</ele>
  <time>2026-09-01T19:50:17Z</time>
  <course>10.78</course>
  <speed>0.022360679774997897</speed>
  <fix>3d</fix>
</trkpt>
<trkpt lat="-27.274439" lon="151.290064">
  <ele>343.1</ele>
  <time>2026-09-01T19:50:17Z</time>
  <course>270.0</course>
  <speed>0.0</speed>
  <fix>3d</fix>
</trkpt>
<trkpt lat="-27.2744392" lon="151.2900641">
  <ele>343.09</ele>
  <time>2026-09-01T19:50:17Z</time>
  <course>10.79</course>
  <speed>0.022360679774997897</speed>
  <fix>3d</fix>
</trkpt>
<trkpt lat="-27.274439" lon="151.290064">
  <ele>343.1</ele>
  <time>2026-09-01T19:50:17Z</time>
  <course>270.0</course>
  <speed>0.0</speed>
  <fix>3d</fix>
</trkpt>
<trkpt lat="-27.2744392" lon="151.2900641">
  <ele>343.1</ele>
  <time>2026-09-01T19:50:17Z</time>
  <course>10.79</course>
  <speed>0.022360679774997897</speed>
  <fix>3d</fix>
</trkpt>
<trkpt lat="-27.274439" lon="151.290064">
  <ele>343.1</ele>
  <time>2026-09-01T19:50:17Z</time>
  <course>270.0</course>
  <speed>0.0</speed>
  <fix>3d</fix>
</trkpt>
<trkpt lat="-27.2744392" lon="151.2900641">
  <ele>343.1</ele>
  <time>2026-09-01T19:50:17Z</time>
  <course>10.79</course>
  <speed>0.022360679774997897</speed>
  <fix>3d</fix>
</trkpt>
<trkpt lat="-27.274439" lon="151.290064">
  <ele>343.1</ele>
  <time>2026-09-01T19:50:17Z</time>
  <course>270.0</course>
  <speed>0.0</speed>
  <fix>3d</fix>
</trkpt>
<trkpt lat="-27.2744392" lon="151.2900641">
  <ele>343.1</ele>
  <time>2026-09-01T19:50:17Z</time>
  <course>10.79</course>
  <speed>0.022360679774997897</speed>
  <fix>3d</fix>
</trkpt>
<trkpt lat="-27.274439" lon="151.290064">
  <ele>343.1</ele>
  <time>2026-09-01T19:50:17Z</time>
  <course>270.0</course>
  <speed>0.0</speed>
  <fix>3d</fix>
</trkpt>
<trkpt lat="-27.2744392" lon="151.2900641">
  <ele>343.1</ele>
  <time>2026-09-01T19:50:17Z</time>
  <course>10.79</course>
  <speed>0.022360679774997897</speed>
  <fix>3d</fix>
</trkpt>
<trkpt lat="-27.274439" lon="151.290064">
  <ele>343.1</ele>
  <time>2026-09-01T19:50:17Z</time>
  <course>270.0</course>
  <speed>0.0</speed>
  <fix>3d</fix>
</trkpt>
<trkpt lat="-27.2744392" lon="151.2900641">
  <ele>343.1</ele>
  <time>2026-09-01T19:50:17Z</time>
  <course>10.79</course>
  <speed>0.022360679774997897</speed>
  <fix>3d</fix>
</trkpt>
<trkpt lat="-27.274439" lon="151.290064">
  <ele>343.1</ele>
  <time>2026-09-01T19:50:17Z</time>
  <course>270.0</course>
  <speed>0.0</speed>
  <fix>3d</fix>
</trkpt>
<trkpt lat="-27.2744392" lon="151.2900641">
  <ele>343.1</ele>
  <time>2026-09-01T19:50:17Z</time>
  <course>10.79</course>
  <speed>0.022360679774997897</speed>
  <fix>3d</fix>
</trkpt>
<trkpt lat="-27.274439" lon="151.290064">
  <ele>343.1</ele>
  <time>2026-09-01T19:50:17Z</time>
  <course>270.0</course>
  <speed>0.0</speed>
  <fix>3d</fix>
</trkpt>
<trkpt lat="-27.2744392" lon="151.2900641">
  <ele>343.09</ele>
  <time>2026-09-01T19:50:17Z</time>
  <course>10.79</course>
  <speed>0.022360679774997897</speed>
  <fix>3d</fix>
</trkpt>
<trkpt lat="-27.274439" lon="151.290064">
  <ele>343.1</ele>
  <time>2026-09-01T19:50:17Z</time>
  <course>270.0</course>
  <speed>0.0</speed>
  <fix>3d</fix>
</trkpt>
<trkpt lat="-27.2744392" lon="151.2900641">
  <ele>343.09</ele>
  <time>2026-09-01T19:50:17Z</time>
  <course>10.79</course>
  <speed>0.022360679774997897</speed>
  <fix>3d</fix>
</trkpt>
<trkpt lat="-27.274439" lon="151.290064">
  <ele>343.1</ele>
  <time>2026-09-01T19:50:17Z</time>
  <course>270.0</course>
  <speed>0.0</speed>
  <fix>3d</fix>
</trkpt>
<trkpt lat="-27.2744392" lon="151.2900641">
  <ele>343.09</ele>
  <time>2026-09-01T19:50:17Z</time>
  <course>10.79</course>
  <speed>0.022360679774997897</speed>
  <fix>3d</fix>
</trkpt>
<trkpt lat="-27.274439" lon="151.290064">
  <ele>343.1</ele>
  <time>2026-09-01T19:50:17Z</time>
  <course>270.0</course>
  <speed>0.0</speed>
  <fix>3d</fix>
</trkpt>
<trkpt lat="-27.2744392" lon="151.2900641">
  <ele>343.09</ele>
  <time>2026-09-01T19:50:17Z</time>
  <course>10.79</course>
  <speed>0.022360679774997897</speed>
  <fix>3d</fix>
</trkpt>
<trkpt lat="-27.274439" lon="151.290064">
  <ele>343.1</ele>
  <time>2026-09-01T19:50:17Z</time>
  <course>270.0</course>
  <speed>0.0</speed>
  <fix>3d</fix>
</trkpt>
<trkpt lat="-27.2744392" lon="151.2900641">
  <ele>343.09</ele>
  <time>2026-09-01T19:50:17Z</time>
  <course>10.79</course>
  <speed>0.022360679774997897</speed>
  <fix>3d</fix>
</trkpt>
<trkpt lat="-27.274439" lon="151.290064">
  <ele>343.1</ele>
  <time>2026-09-01T19:50:17Z</time>
  <course>270.0</course>
  <speed>0.0</speed>
  <fix>3d</fix>
</trkpt>
<trkpt lat="-27.2744392" lon="151.2900641">
  <ele>343.08</ele>
  <time>2026-09-01T19:50:17Z</time>
  <course>10.79</course>
  <speed>0.022360679774997897</speed>
  <fix>3d</fix>
</trkpt>
<trkpt lat="-27.274439" lon="151.290064">
  <ele>343.1</ele>
  <time>2026-09-01T19:50:17Z</time>
  <course>270.0</course>
  <speed>0.0</speed>
  <fix>3d</fix>
</trkpt>
<trkpt lat="-26.9720619" lon="149.6127921">
  <ele>339.29</ele>
  <time>2026-09-01T19:50:18Z</time>
  <course>310.27</course>
  <speed>0.0</speed>
  <fix>3d</fix>
</trkpt>
<trkpt lat="-26.9720619" lon="149.6127921">
  <ele>339.29</ele>
  <time>2026-09-01T19:50:18Z</time>
  <course>310.27</course>
  <speed>0.0</speed>
  <fix>3d</fix>
</trkpt>
<trkpt lat="-27.274439" lon="151.290064">
  <ele>-0.01</ele>
  <time>2026-09-01T19:50:18Z</time>
  <course>0.22</course>
  <speed>0.0</speed>
  <fix>3d</fix>
</trkpt>
<trkpt lat="-27.274439" lon="151.290064">
  <ele>343.1</ele>
  <time>2026-09-01T19:50:18Z</time>
  <course>294.58</course>
  <speed>0.0</speed>
  <fix>3d</fix>
</trkpt>
<trkpt lat="-26.9720619" lon="149.6127921">
  <ele>339.29</ele>
  <time>2026-09-01T19:50:19Z</time>
  <course>113.73</course>
  <speed>0.0</speed>
  <fix>3d</fix>
</trkpt>
<trkpt lat="-26.9720619" lon="149.6127921">
  <ele>339.29</ele>
  <time>2026-09-01T19:50:19Z</time>
  <course>113.73</course>
  <speed>0.0</speed>
  <fix>3d</fix>
</trkpt>
<trkpt lat="-27.274439" lon="151.290064">
  <ele>-0.01</ele>
  <time>2026-09-01T19:50:19Z</time>
  <course>0.25</course>
  <speed>0.0</speed>
  <fix>3d</fix>
</trkpt>
<trkpt lat="-27.274439" lon="151.290064">
  <ele>343.1</ele>
  <time>2026-09-01T19:50:19Z</time>
  <course>114.65</course>
  <speed>0.0</speed>
  <fix>3d</fix>
</trkpt>
<trkpt lat="-27.274439" lon="151.290064">
  <ele>0.02</ele>
  <time>2026-09-01T19:50:19Z</time>
  <course>1.24</course>
  <speed>0.0</speed>
  <fix>3d</fix>
</trkpt>
<trkpt lat="-27.274439" lon="151.290064">
  <ele>343.1</ele>
  <time>2026-09-01T19:50:19Z</time>
  <course>114.65</course>
  <speed>0.0</speed>
  <fix>3d</fix>
</trkpt>
<trkpt lat="-27.274439" lon="151.290064">
  <ele>-0.08</ele>
  <time>2026-09-01T19:50:19Z</time>
  <course>2.14</course>
  <speed>0.0</speed>
  <fix>3d</fix>
</trkpt>
<trkpt lat="-27.274439" lon="151.290064">
  <ele>343.1</ele>
  <time>2026-09-01T19:50:19Z</time>
  <course>116.73</course>
  <speed>0.0</speed>
  <fix>3d</fix>
</trkpt>
<trkpt lat="-27.274439" lon="151.290064">
  <ele>0.22</ele>
  <time>2026-09-01T19:50:19Z</time>
  <course>2.94</course>
  <speed>0.0</speed>
  <fix>3d</fix>
</trkpt>
<trkpt lat="-27.274439" lon="151.290064">
  <ele>343.1</ele>
  <time>2026-09-01T19:50:19Z</time>
  <course>116.73</course>
  <speed>0.0</speed>
  <fix>3d</fix>
</trkpt>
<trkpt lat="-27.274439" lon="151.290064">
  <ele>0.09</ele>
  <time>2026-09-01T19:50:19Z</time>
  <course>3.68</course>
  <speed>0.0</speed>
  <fix>3d</fix>
</trkpt>
<trkpt lat="-27.274439" lon="151.290064">
  <ele>343.1</ele>
  <time>2026-09-01T19:50:19Z</time>
  <course>118.94</course>
  <speed>0.0</speed>
  <fix>3d</fix>
</trkpt>
<trkpt lat="-27.274439" lon="151.290064">
  <ele>0.08</ele>
  <time>2026-09-01T19:50:19Z</time>
  <course>4.34</course>
  <speed>0.0</speed>
  <fix>3d</fix>
</trkpt>
<trkpt lat="-27.274439" lon="151.290064">
  <ele>343.1</ele>
  <time>2026-09-01T19:50:19Z</time>
  <course>118.94</course>
  <speed>0.0</speed>
  <fix>3d</fix>
</trkpt>
<trkpt lat="-27.274439" lon="151.290064">
  <ele>0.09</ele>
  <time>2026-09-01T19:50:19Z</time>
  <course>4.95</course>
  <speed>0.0</speed>
  <fix>3d</fix>
</trkpt>
<trkpt lat="-27.274439" lon="151.290064">
  <ele>343.1</ele>
  <time>2026-09-01T19:50:19Z</time>
  <course>121.21</course>
  <speed>0.0</speed>
  <fix>3d</fix>
</trkpt>
<trkpt lat="-27.274439" lon="151.290064">
  <ele>-0.05</ele>
  <time>2026-09-01T19:50:19Z</time>
  <course>5.5</course>
  <speed>0.0</speed>
  <fix>3d</fix>
</trkpt>
<trkpt lat="-27.274439" lon="151.290064">
  <ele>343.1</ele>
  <time>2026-09-01T19:50:19Z</time>
  <course>121.21</course>
  <speed>0.0</speed>
  <fix>3d</fix>
</trkpt>
<trkpt lat="-27.274439" lon="151.290064">
  <ele>343.06</ele>
  <time>2026-09-01T19:50:19Z</time>
  <course>5.98</course>
  <speed>0.0</speed>
  <fix>3d</fix>
</trkpt>
<trkpt lat="-27.274439" lon="151.290064">
  <ele>343.1</ele>
  <time>2026-09-01T19:50:19Z</time>
  <course>123.46</course>
  <speed>0.0</speed>
  <fix>3d</fix>
</trkpt>
<trkpt lat="-27.274439" lon="151.290064">
  <ele>343.18</ele>
  <time>2026-09-01T19:50:19Z</time>
  <course>6.44</course>
  <speed>0.0</speed>
  <fix>3d</fix>
</trkpt>
<trkpt lat="-27.274439" lon="151.290064">
  <ele>343.1</ele>
  <time>2026-09-01T19:50:19Z</time>
  <course>125.61</course>
  <speed>0.0</speed>
  <fix>3d</fix>
</trkpt>
<trkpt lat="-27.274439" lon="151.290064">
  <ele>342.91</ele>
  <time>2026-09-01T19:50:19Z</time>
  <course>6.86</course>
  <speed>0.0</speed>
  <fix>3d</fix>
</trkpt>
<trkpt lat="-27.274439" lon="151.290064">
  <ele>343.1</ele>
  <time>2026-09-01T19:50:19Z</time>
  <course>125.61</course>
  <speed>0.0</speed>
  <fix>3d</fix>
</trkpt>
<trkpt lat="-27.274439" lon="151.290064">
  <ele>343.06</ele>
  <time>2026-09-01T19:50:19Z</time>
  <course>7.23</course>
  <speed>0.0</speed>
  <fix>3d</fix>
</trkpt>
<trkpt lat="-27.274439" lon="151.290064">
  <ele>343.1</ele>
  <time>2026-09-01T19:50:19Z</time>
  <course>125.61</course>
  <speed>0.0</speed>
  <fix>3d</fix>
</trkpt>
<trkpt lat="-27.274439" lon="151.290064">
  <ele>343.13</ele>
  <time>2026-09-01T19:50:19Z</time>
  <course>7.57</course>
  <speed>0.0</speed>
  <fix>3d</fix>
</trkpt>
<trkpt lat="-27.274439" lon="151.290064">
  <ele>343.1</ele>
  <time>2026-09-01T19:50:19Z</time>
  <course>127.61</course>
  <speed>0.0</speed>
  <fix>3d</fix>
</trkpt>
<trkpt lat="-27.274439" lon="151.290064">
  <ele>343.04</ele>
  <time>2026-09-01T19:50:19Z</time>
  <course>7.88</course>
  <speed>0.0</speed>
  <fix>3d</fix>
</trkpt>
<trkpt lat="-27.274439" lon="151.290064">
  <ele>343.1</ele>
  <time>2026-09-01T19:50:19Z</time>
  <course>127.61</course>
  <speed>0.0</speed>
  <fix>3d</fix>
</trkpt>
<trkpt lat="-27.274439" lon="151.290064">
  <ele>342.88</ele>
  <time>2026-09-01T19:50:19Z</time>
  <course>8.16</course>
  <speed>0.0</speed>
  <fix>3d</fix>
</trkpt>
<trkpt lat="-27.274439" lon="151.290064">
  <ele>343.1</ele>
  <time>2026-09-01T19:50:19Z</time>
  <course>129.42</course>
  <speed>0.0</speed>
  <fix>3d</fix>
</trkpt>
<trkpt lat="-27.274439" lon="151.290064">
  <ele>343.02</ele>
  <time>2026-09-01T19:50:19Z</time>
  <course>8.4</course>
  <speed>0.0</speed>
  <fix>3d</fix>
</trkpt>
<trkpt lat="-27.274439" lon="151.290064">
  <ele>343.1</ele>
  <time>2026-09-01T19:50:19Z</time>
  <course>129.42</course>
  <speed>0.0</speed>
  <fix>3d</fix>
</trkpt>
<trkpt lat="-27.274439" lon="151.290064">
  <ele>343.23</ele>
  <time>2026-09-01T19:50:19Z</time>
  <course>8.64</course>
  <speed>0.0</speed>
  <fix>3d</fix>
</trkpt>
<trkpt lat="-27.274439" lon="151.290064">
  <ele>343.1</ele>
  <time>2026-09-01T19:50:19Z</time>
  <course>130.99</course>
  <speed>0.0</speed>
  <fix>3d</fix>
</trkpt>
<trkpt lat="-27.274439" lon="151.290064">
  <ele>343.17</ele>
  <time>2026-09-01T19:50:19Z</time>
  <course>8.84</course>
  <speed>0.0</speed>
  <fix>3d</fix>
</trkpt>
<trkpt lat="-27.274439" lon="151.290064">
  <ele>343.1</ele>
  <time>2026-09-01T19:50:19Z</time>
  <course>130.99</course>
  <speed>0.0</speed>
  <fix>3d</fix>
</trkpt>
<trkpt lat="-27.274439" lon="151.290064">
  <ele>343.04</ele>
  <time>2026-09-01T19:50:19Z</time>
  <course>9.02</course>
  <speed>0.0</speed>
  <fix>3d</fix>
</trkpt>
<trkpt lat="-27.274439" lon="151.290064">
  <ele>343.1</ele>
  <time>2026-09-01T19:50:19Z</time>
  <course>132.34</course>
  <speed>0.0</speed>
  <fix>3d</fix>
</trkpt>
<trkpt lat="-27.274439" lon="151.290064">
  <ele>342.89</ele>
  <time>2026-09-01T19:50:19Z</time>
  <course>9.18</course>
  <speed>0.0</speed>
  <fix>3d</fix>
</trkpt>
<trkpt lat="-27.274439" lon="151.290064">
  <ele>343.1</ele>
  <time>2026-09-01T19:50:19Z</time>
  <course>132.34</course>
  <speed>0.0</speed>
  <fix>3d</fix>
</trkpt>
<trkpt lat="-27.274439" lon="151.290064">
  <ele>343.08</ele>
  <time>2026-09-01T19:50:19Z</time>
  <course>9.33</course>
  <speed>0.0</speed>
  <fix>3d</fix>
</trkpt>
<trkpt lat="-27.274439" lon="151.290064">
  <ele>343.1</ele>
  <time>2026-09-01T19:50:19Z</time>
  <course>133.48</course>
  <speed>0.0</speed>
  <fix>3d</fix>
</trkpt>
<trkpt lat="-27.274439" lon="151.290064">
  <ele>343.19</ele>
  <time>2026-09-01T19:50:19Z</time>
  <course>9.47</course>
  <speed>0.0</speed>
  <fix>3d</fix>
</trkpt>
<trkpt lat="-27.274439" lon="151.290064">
  <ele>343.1</ele>
  <time>2026-09-01T19:50:19Z</time>
  <course>133.48</course>
  <speed>0.0</speed>
  <fix>3d</fix>
</trkpt>
<trkpt lat="-27.274439" lon="151.290064">
  <ele>342.88</ele>
  <time>2026-09-01T19:50:19Z</time>
  <course>9.59</course>
  <speed>0.0</speed>
  <fix>3d</fix>
</trkpt>
<trkpt lat="-27.274439" lon="151.290064">
  <ele>343.1</ele>
  <time>2026-09-01T19:50:19Z</time>
  <course>134.42</course>
  <speed>0.0</speed>
  <fix>3d</fix>
</trkpt>
<trkpt lat="-27.274439" lon="151.290064">
  <ele>343.17</ele>
  <time>2026-09-01T19:50:19Z</time>
  <course>9.7</course>
  <speed>0.0</speed>
  <fix>3d</fix>
</trkpt>
<trkpt lat="-27.274439" lon="151.290064">
  <ele>343.1</ele>
  <time>2026-09-01T19:50:19Z</time>
  <course>134.42</course>
  <speed>0.0</speed>
  <fix>3d</fix>
</trkpt>
<trkpt lat="-27.274439" lon="151.290064">
  <ele>342.89</ele>
  <time>2026-09-01T19:50:19Z</time>
  <course>9.8</course>
  <speed>0.0</speed>
  <fix>3d</fix>
</trkpt>
<trkpt lat="-27.274439" lon="151.290064">
  <ele>343.1</ele>
  <time>2026-09-01T19:50:19Z</time>
  <course>135.19</course>
  <speed>0.0</speed>
  <fix>3d</fix>
</trkpt>
<trkpt lat="-27.274439" lon="151.290064">
  <ele>342.99</ele>
  <time>2026-09-01T19:50:19Z</time>
  <course>9.89</course>
  <speed>0.0</speed>
  <fix>3d</fix>
</trkpt>
<trkpt lat="-27.274439" lon="151.290064">
  <ele>343.1</ele>
  <time>2026-09-01T19:50:19Z</time>
  <course>135.19</course>
  <speed>0.0</speed>
  <fix>3d</fix>
</trkpt>
<trkpt lat="-27.274439" lon="151.290064">
  <ele>342.87</ele>
  <time>2026-09-01T19:50:19Z</time>
  <course>9.98</course>
  <speed>0.0</speed>
  <fix>3d</fix>
</trkpt>
<trkpt lat="-27.274439" lon="151.290064">
  <ele>343.1</ele>
  <time>2026-09-01T19:50:19Z</time>
  <course>135.81</course>
  <speed>0.0</speed>
  <fix>3d</fix>
</trkpt>
<trkpt lat="-27.274439" lon="151.290064">
  <ele>343.09</ele>
  <time>2026-09-01T19:50:19Z</time>
  <course>10.05</course>
  <speed>0.0</speed>
  <fix>3d</fix>
</trkpt>
<trkpt lat="-27.274439" lon="151.290064">
  <ele>343.1</ele>
  <time>2026-09-01T19:50:19Z</time>
  <course>135.81</course>
  <speed>0.0</speed>
  <fix>3d</fix>
</trkpt>
<trkpt lat="-27.274439" lon="151.290064">
  <ele>343.18</ele>
  <time>2026-09-01T19:50:19Z</time>
  <course>10.12</course>
  <speed>0.0</speed>
  <fix>3d</fix>
</trkpt>
<trkpt lat="-27.274439" lon="151.290064">
  <ele>343.1</ele>
  <time>2026-09-01T19:50:19Z</time>
  <course>136.33</course>
  <speed>0.0</speed>
  <fix>3d</fix>
</trkpt>
<trkpt lat="-27.274439" lon="151.290064">
  <ele>343.05</ele>
  <time>2026-09-01T19:50:19Z</time>
  <course>10.19</course>
  <speed>0.0</speed>
  <fix>3d</fix>
</trkpt>
<trkpt lat="-27.274439" lon="151.290064">
  <ele>343.1</ele>
  <time>2026-09-01T19:50:19Z</time>
  <course>136.33</course>
  <speed>0.0</speed>
  <fix>3d</fix>
</trkpt>
<trkpt lat="-27.274439" lon="151.290064">
  <ele>342.96</ele>
  <time>2026-09-01T19:50:19Z</time>
  <course>10.24</course>
  <speed>0.0</speed>
  <fix>3d</fix>
</trkpt>
<trkpt lat="-27.274439" lon="151.290064">
  <ele>343.1</ele>
  <time>2026-09-01T19:50:19Z</time>
  <course>136.75</course>
  <speed>0.0</speed>
  <fix>3d</fix>
</trkpt>
<trkpt lat="-27.274439" lon="151.290064">
  <ele>343.1</ele>
  <time>2026-09-01T19:50:19Z</time>
  <course>10.3</course>
  <speed>0.0</speed>
  <fix>3d</fix>
</trkpt>
<trkpt lat="-27.274439" lon="151.290064">
  <ele>343.1</ele>
  <time>2026-09-01T19:50:19Z</time>
  <course>136.75</course>
  <speed>0.0</speed>
  <fix>3d</fix>
</trkpt>
<trkpt lat="-27.274439" lon="151.290064">
  <ele>343.22</ele>
  <time>2026-09-01T19:50:19Z</time>
  <course>10.34</course>
  <speed>0.0</speed>
  <fix>3d</fix>
</trkpt>
<trkpt lat="-27.274439" lon="151.290064">
  <ele>343.1</ele>
  <time>2026-09-01T19:50:19Z</time>
  <course>137.07</course>
  <speed>0.0</speed>
  <fix>3d</fix>
</trkpt>
<trkpt lat="-27.274439" lon="151.290064">
  <ele>343.17</ele>
  <time>2026-09-01T19:50:19Z</time>
  <course>10.39</course>
  <speed>0.0</speed>
  <fix>3d</fix>
</trkpt>
<trkpt lat="-27.274439" lon="151.290064">
  <ele>343.1</ele>
  <time>2026-09-01T19:50:19Z</time>
  <course>137.07</course>
  <speed>0.0</speed>
  <fix>3d</fix>
</trkpt>
<trkpt lat="-27.274439" lon="151.290064">
  <ele>343.08</ele>
  <time>2026-09-01T19:50:19Z</time>
  <course>10.42</course>
  <speed>0.0</speed>
  <fix>3d</fix>
</trkpt>
<trkpt lat="-27.274439" lon="151.290064">
  <ele>343.1</ele>
  <time>2026-09-01T19:50:19Z</time>
  <course>137.32</course>
  <speed>0.0</speed>
  <fix>3d</fix>
</trkpt>
<trkpt lat="-27.274439" lon="151.290064">
  <ele>343.04</ele>
  <time>2026-09-01T19:50:19Z</time>
  <course>10.46</course>
  <speed>0.0</speed>
  <fix>3d</fix>
</trkpt>
<trkpt lat="-27.274439" lon="151.290064">
  <ele>343.1</ele>
  <time>2026-09-01T19:50:19Z</time>
  <course>137.32</course>
  <speed>0.0</speed>
  <fix>3d</fix>
</trkpt>
<trkpt lat="-27.274439" lon="151.290064">
  <ele>343.18</ele>
  <time>2026-09-01T19:50:19Z</time>
  <course>10.49</course>
  <speed>0.0</speed>
  <fix>3d</fix>
</trkpt>
<trkpt lat="-27.274439" lon="151.290064">
  <ele>343.1</ele>
  <time>2026-09-01T19:50:19Z</time>
  <course>137.53</course>
  <speed>0.0</speed>
  <fix>3d</fix>
</trkpt>
<trkpt lat="-27.274439" lon="151.290064">
  <ele>343.12</ele>
  <time>2026-09-01T19:50:19Z</time>
  <course>10.52</course>
  <speed>0.0</speed>
  <fix>3d</fix>
</trkpt>
<trkpt lat="-27.274439" lon="151.290064">
  <ele>343.1</ele>
  <time>2026-09-01T19:50:19Z</time>
  <course>137.53</course>
  <speed>0.0</speed>
  <fix>3d</fix>
</trkpt>
<trkpt lat="-27.274439" lon="151.290064">
  <ele>343.04</ele>
  <time>2026-09-01T19:50:19Z</time>
  <course>10.54</course>
  <speed>0.0</speed>
  <fix>3d</fix>
</trkpt>
<trkpt lat="-27.274439" lon="151.290064">
  <ele>343.1</ele>
  <time>2026-09-01T19:50:19Z</time>
  <course>137.69</course>
  <speed>0.0</speed>
  <fix>3d</fix>
</trkpt>
<trkpt lat="-27.274439" lon="151.290064">
  <ele>343.07</ele>
  <time>2026-09-01T19:50:19Z</time>
  <course>10.56</course>
  <speed>0.0</speed>
  <fix>3d</fix>
</trkpt>
<trkpt lat="-27.274439" lon="151.290064">
  <ele>343.1</ele>
  <time>2026-09-01T19:50:19Z</time>
  <course>137.69</course>
  <speed>0.0</speed>
  <fix>3d</fix>
</trkpt>
<trkpt lat="-27.274439" lon="151.290064">
  <ele>343.04</ele>
  <time>2026-09-01T19:50:19Z</time>
  <course>10.58</course>
  <speed>0.0</speed>
  <fix>3d</fix>
</trkpt>
<trkpt lat="-27.274439" lon="151.290064">
  <ele>343.1</ele>
  <time>2026-09-01T19:50:19Z</time>
  <course>137.81</course>
  <speed>0.0</speed>
  <fix>3d</fix>
</trkpt>
<trkpt lat="-27.274439" lon="151.290064">
  <ele>343.01</ele>
  <time>2026-09-01T19:50:19Z</time>
  <course>10.6</course>
  <speed>0.0</speed>
  <fix>3d</fix>
</trkpt>
<trkpt lat="-27.274439" lon="151.290064">
  <ele>343.1</ele>
  <time>2026-09-01T19:50:19Z</time>
  <course>137.81</course>
  <speed>0.0</speed>
  <fix>3d</fix>
</trkpt>
<trkpt lat="-27.274439" lon="151.290064">
  <ele>343.2</ele>
  <time>2026-09-01T19:50:19Z</time>
  <course>10.62</course>
  <speed>0.0</speed>
  <fix>3d</fix>
</trkpt>
<trkpt lat="-27.274439" lon="151.290064">
  <ele>343.1</ele>
  <time>2026-09-01T19:50:19Z</time>
  <course>137.91</course>
  <speed>0.0</speed>
  <fix>3d</fix>
</trkpt>
<trkpt lat="-27.274439" lon="151.290064">
  <ele>343.24</ele>
  <time>2026-09-01T19:50:19Z</time>
  <course>10.63</course>
  <speed>0.0</speed>
  <fix>3d</fix>
</trkpt>
<trkpt lat="-27.274439" lon="151.290064">
  <ele>343.1</ele>
  <time>2026-09-01T19:50:19Z</time>
  <course>137.91</course>
  <speed>0.0</speed>
  <fix>3d</fix>
</trkpt>
<trkpt lat="-27.274439" lon="151.290064">
  <ele>342.88</ele>
  <time>2026-09-01T19:50:19Z</time>
  <course>10.64</course>
  <speed>0.0</speed>
  <fix>3d</fix>
</trkpt>
<trkpt lat="-27.274439" lon="151.290064">
  <ele>343.1</ele>
  <time>2026-09-01T19:50:19Z</time>
  <course>137.99</course>
  <speed>0.0</speed>
  <fix>3d</fix>
</trkpt>
<trkpt lat="-27.274439" lon="151.290064">
  <ele>343.21</ele>
  <time>2026-09-01T19:50:19Z</time>
  <course>10.65</course>
  <speed>0.0</speed>
  <fix>3d</fix>
</trkpt>
<trkpt lat="-27.274439" lon="151.290064">
  <ele>343.1</ele>
  <time>2026-09-01T19:50:19Z</time>
  <course>137.99</course>
  <speed>0.0</speed>
  <fix>3d</fix>
</trkpt>
<trkpt lat="-27.274439" lon="151.290064">
  <ele>343.02</ele>
  <time>2026-09-01T19:50:19Z</time>
  <course>10.67</course>
  <speed>0.0</speed>
  <fix>3d</fix>
</trkpt>
<trkpt lat="-27.274439" lon="151.290064">
  <ele>343.1</ele>
  <time>2026-09-01T19:50:19Z</time>
  <course>138.06</course>
  <speed>0.0</speed>
  <fix>3d</fix>
</trkpt>
<trkpt lat="-27.274439" lon="151.290064">
  <ele>342.93</ele>
  <time>2026-09-01T19:50:19Z</time>
  <course>10.67</course>
  <speed>0.0</speed>
  <fix>3d</fix>
</trkpt>
<trkpt lat="-27.274439" lon="151.290064">
  <ele>343.1</ele>
  <time>2026-09-01T19:50:19Z</time>
  <course>138.06</course>
  <speed>0.0</speed>
  <fix>3d</fix>
</trkpt>
<trkpt lat="-27.274439" lon="151.290064">
  <ele>343.07</ele>
  <time>2026-09-01T19:50:19Z</time>
  <course>10.68</course>
  <speed>0.0</speed>
  <fix>3d</fix>
</trkpt>
<trkpt lat="-27.274439" lon="151.290064">
  <ele>343.1</ele>
  <time>2026-09-01T19:50:19Z</time>
  <course>138.11</course>
  <speed>0.0</speed>
  <fix>3d</fix>
</trkpt>
<trkpt lat="-27.274439" lon="151.290064">
  <ele>342.94</ele>
  <time>2026-09-01T19:50:19Z</time>
  <course>10.69</course>
  <speed>0.0</speed>
  <fix>3d</fix>
</trkpt>
<trkpt lat="-27.274439" lon="151.290064">
  <ele>343.1</ele>
  <time>2026-09-01T19:50:19Z</time>
  <course>138.11</course>
  <speed>0.0</speed>
  <fix>3d</fix>
</trkpt>
<trkpt lat="-27.274439" lon="151.290064">
  <ele>343.11</ele>
  <time>2026-09-01T19:50:19Z</time>
  <course>10.7</course>
  <speed>0.0</speed>
  <fix>3d</fix>
</trkpt>
<trkpt lat="-27.274439" lon="151.290064">
  <ele>343.1</ele>
  <time>2026-09-01T19:50:19Z</time>
  <course>138.15</course>
  <speed>0.0</speed>
  <fix>3d</fix>
</trkpt>
<trkpt lat="-27.274439" lon="151.290064">
  <ele>343.24</ele>
  <time>2026-09-01T19:50:20Z</time>
  <course>10.7</course>
  <speed>0.0</speed>
  <fix>3d</fix>
</trkpt>
<trkpt lat="-27.274439" lon="151.290064">
  <ele>343.1</ele>
  <time>2026-09-01T19:50:20Z</time>
  <course>138.15</course>
  <speed>0.0</speed>
  <fix>3d</fix>
</trkpt>
<trkpt lat="-27.274439" lon="151.290064">
  <ele>343.18</ele>
  <time>2026-09-01T19:50:20Z</time>
  <course>10.71</course>
  <speed>0.0</speed>
  <fix>3d</fix>
</trkpt>
<trkpt lat="-27.274439" lon="151.290064">
  <ele>343.1</ele>
  <time>2026-09-01T19:50:20Z</time>
  <course>138.18</course>
  <speed>0.0</speed>
  <fix>3d</fix>
</trkpt>
<trkpt lat="-27.274439" lon="151.290064">
  <ele>342.89</ele>
  <time>2026-09-01T19:50:20Z</time>
  <course>10.71</course>
  <speed>0.0</speed>
  <fix>3d</fix>
</trkpt>
<trkpt lat="-27.274439" lon="151.290064">
  <ele>343.1</ele>
  <time>2026-09-01T19:50:20Z</time>
  <course>138.18</course>
  <speed>0.0</speed>
  <fix>3d</fix>
</trkpt>
<trkpt lat="-27.274439" lon="151.290064">
  <ele>343.23</ele>
  <time>2026-09-01T19:50:20Z</time>
  <course>10.72</course>
  <speed>0.0</speed>
  <fix>3d</fix>
</trkpt>
<trkpt lat="-27.274439" lon="151.290064">
  <ele>343.1</ele>
  <time>2026-09-01T19:50:20Z</time>
  <course>138.21</course>
  <speed>0.0</speed>
  <fix>3d</fix>
</trkpt>
<trkpt lat="-27.274439" lon="151.290064">
  <ele>343.23</ele>
  <time>2026-09-01T19:50:20Z</time>
  <course>10.72</course>
  <speed>0.0</speed>
  <fix>3d</fix>
</trkpt>
<trkpt lat="-27.274439" lon="151.290064">
  <ele>343.1</ele>
  <time>2026-09-01T19:50:20Z</time>
  <course>138.21</course>
  <speed>0.0</speed>
  <fix>3d</fix>
</trkpt>
<trkpt lat="-27.274439" lon="151.290064">
  <ele>342.99</ele>
  <time>2026-09-01T19:50:20Z</time>
  <course>10.72</course>
  <speed>0.0</speed>
  <fix>3d</fix>
</trkpt>
<trkpt lat="-27.274439" lon="151.290064">
  <ele>343.1</ele>
  <time>2026-09-01T19:50:20Z</time>
  <course>138.23</course>
  <speed>0.0</speed>
  <fix>3d</fix>
</trkpt>
<trkpt lat="-27.274439" lon="151.290064">
  <ele>343.13</ele>
  <time>2026-09-01T19:50:20Z</time>
  <course>10.72</course>
  <speed>0.0</speed>
  <fix>3d</fix>
</trkpt>
<trkpt lat="-27.274439" lon="151.290064">
  <ele>343.1</ele>
  <time>2026-09-01T19:50:20Z</time>
  <course>138.23</course>
  <speed>0.0</speed>
  <fix>3d</fix>
</trkpt>
<trkpt lat="-27.274439" lon="151.290064">
  <ele>343.07</ele>
  <time>2026-09-01T19:50:20Z</time>
  <course>10.73</course>
  <speed>0.0</speed>
  <fix>3d</fix>
</trkpt>
<trkpt lat="-27.274439" lon="151.290064">
  <ele>343.1</ele>
  <time>2026-09-01T19:50:20Z</time>
  <course>138.25</course>
  <speed>0.0</speed>
  <fix>3d</fix>
</trkpt>
<trkpt lat="-27.274439" lon="151.290064">
  <ele>343.19</ele>
  <time>2026-09-01T19:50:20Z</time>
  <course>10.73</course>
  <speed>0.0</speed>
  <fix>3d</fix>
</trkpt>
<trkpt lat="-27.274439" lon="151.290064">
  <ele>343.1</ele>
  <time>2026-09-01T19:50:20Z</time>
  <course>138.25</course>
  <speed>0.0</speed>
  <fix>3d</fix>
</trkpt>
<trkpt lat="-27.274439" lon="151.290064">
  <ele>342.93</ele>
  <time>2026-09-01T19:50:20Z</time>
  <course>10.73</course>
  <speed>0.0</speed>
  <fix>3d</fix>
</trkpt>
<trkpt lat="-27.274439" lon="151.290064">
  <ele>343.1</ele>
  <time>2026-09-01T19:50:20Z</time>
  <course>138.27</course>
  <speed>0.0</speed>
  <fix>3d</fix>
</trkpt>
<trkpt lat="-27.274439" lon="151.290064">
  <ele>343.19</ele>
  <time>2026-09-01T19:50:20Z</time>
  <course>10.73</course>
  <speed>0.0</speed>
  <fix>3d</fix>
</trkpt>
<trkpt lat="-27.274439" lon="151.290064">
  <ele>343.1</ele>
  <time>2026-09-01T19:50:20Z</time>
  <course>138.27</course>
  <speed>0.0</speed>
  <fix>3d</fix>
</trkpt>
<trkpt lat="-27.274439" lon="151.290064">
  <ele>343.1</ele>
  <time>2026-09-01T19:50:20Z</time>
  <course>10.73</course>
  <speed>0.0</speed>
  <fix>3d</fix>
</trkpt>
<trkpt lat="-27.274439" lon="151.290064">
  <ele>343.1</ele>
  <time>2026-09-01T19:50:20Z</time>
  <course>138.27</course>
  <speed>0.0</speed>
  <fix>3d</fix>
</trkpt>
<trkpt lat="-27.274439" lon="151.290064">
  <ele>343.01</ele>
  <time>2026-09-01T19:50:20Z</time>
  <course>10.73</course>
  <speed>0.0</speed>
  <fix>3d</fix>
</trkpt>
<trkpt lat="-27.274439" lon="151.290064">
  <ele>343.1</ele>
  <time>2026-09-01T19:50:20Z</time>
  <course>138.27</course>
  <speed>0.0</speed>
  <fix>3d</fix>
</trkpt>
<trkpt lat="-27.274439" lon="151.290064">
  <ele>343.11</ele>
  <time>2026-09-01T19:50:20Z</time>
  <course>10.74</course>
  <speed>0.0</speed>
  <fix>3d</fix>
</trkpt>
<trkpt lat="-27.274439" lon="151.290064">
  <ele>343.1</ele>
  <time>2026-09-01T19:50:20Z</time>
  <course>138.26</course>
  <speed>0.0</speed>
  <fix>3d</fix>
</trkpt>
<trkpt lat="-27.274439" lon="151.290064">
  <ele>342.96</ele>
  <time>2026-09-01T19:50:20Z</time>
  <course>10.74</course>
  <speed>0.0</speed>
  <fix>3d</fix>
</trkpt>
<trkpt lat="-27.274439" lon="151.290064">
  <ele>343.1</ele>
  <time>2026-09-01T19:50:20Z</time>
  <course>138.26</course>
  <speed>0.0</speed>
  <fix>3d</fix>
</trkpt>
<trkpt lat="-27.274439" lon="151.290064">
  <ele>343.19</ele>
  <time>2026-09-01T19:50:20Z</time>
  <course>10.74</course>
  <speed>0.0</speed>
  <fix>3d</fix>
</trkpt>
<trkpt lat="-27.274439" lon="151.290064">
  <ele>343.1</ele>
  <time>2026-09-01T19:50:20Z</time>
  <course>138.27</course>
  <speed>0.0</speed>
  <fix>3d</fix>
</trkpt>
<trkpt lat="-27.274439" lon="151.290064">
  <ele>343.0</ele>
  <time>2026-09-01T19:50:20Z</time>
  <course>10.74</course>
  <speed>0.0</speed>
  <fix>3d</fix>
</trkpt>
<trkpt lat="-27.274439" lon="151.290064">
  <ele>343.1</ele>
  <time>2026-09-01T19:50:20Z</time>
  <course>138.27</course>
  <speed>0.0</speed>
  <fix>3d</fix>
</trkpt>
<trkpt lat="-27.274439" lon="151.290064">
  <ele>343.2</ele>
  <time>2026-09-01T19:50:20Z</time>
  <course>10.74</course>
  <speed>0.0</speed>
  <fix>3d</fix>
</trkpt>
<trkpt lat="-27.274439" lon="151.290064">
  <ele>343.1</ele>
  <time>2026-09-01T19:50:20Z</time>
  <course>138.28</course>
  <speed>0.0</speed>
  <fix>3d</fix>
</trkpt>
<trkpt lat="-27.274439" lon="151.290064">
  <ele>343.2</ele>
  <time>2026-09-01T19:50:20Z</time>
  <course>10.74</course>
  <speed>0.0</speed>
  <fix>3d</fix>
</trkpt>
<trkpt lat="-27.274439" lon="151.290064">
  <ele>343.1</ele>
  <time>2026-09-01T19:50:20Z</time>
  <course>138.28</course>
  <speed>0.0</speed>
  <fix>3d</fix>
</trkpt>
<trkpt lat="-27.274439" lon="151.290064">
  <ele>343.13</ele>
  <time>2026-09-01T19:50:20Z</time>
  <course>10.74</course>
  <speed>0.0</speed>
  <fix>3d</fix>
</trkpt>
<trkpt lat="-27.274439" lon="151.290064">
  <ele>343.1</ele>
  <time>2026-09-01T19:50:20Z</time>
  <course>138.29</course>
  <speed>0.0</speed>
  <fix>3d</fix>
</trkpt>
<trkpt lat="-27.274439" lon="151.290064">
  <ele>343.1</ele>
  <time>2026-09-01T19:50:20Z</time>
  <course>10.74</course>
  <speed>0.0</speed>
  <fix>3d</fix>
</trkpt>
<trkpt lat="-27.274439" lon="151.290064">
  <ele>343.1</ele>
  <time>2026-09-01T19:50:20Z</time>
  <course>138.29</course>
  <speed>0.0</speed>
  <fix>3d</fix>
</trkpt>
<trkpt lat="-27.274439" lon="151.290064">
  <ele>343.12</ele>
  <time>2026-09-01T19:50:20Z</time>
  <course>10.74</course>
  <speed>0.0</speed>
  <fix>3d</fix>
</trkpt>
<trkpt lat="-27.274439" lon="151.290064">
  <ele>343.1</ele>
  <time>2026-09-01T19:50:20Z</time>
  <course>138.3</course>
  <speed>0.0</speed>
  <fix>3d</fix>
</trkpt>
<trkpt lat="-27.274439" lon="151.290064">
  <ele>342.94</ele>
  <time>2026-09-01T19:50:20Z</time>
  <course>10.74</course>
  <speed>0.0</speed>
  <fix>3d</fix>
</trkpt>
<trkpt lat="-27.274439" lon="151.290064">
  <ele>343.1</ele>
  <time>2026-09-01T19:50:20Z</time>
  <course>138.3</course>
  <speed>0.0</speed>
  <fix>3d</fix>
</trkpt>
<trkpt lat="-27.274439" lon="151.290064">
  <ele>343.25</ele>
  <time>2026-09-01T19:50:20Z</time>
  <course>10.74</course>
  <speed>0.0</speed>
  <fix>3d</fix>
</trkpt>
<trkpt lat="-27.274439" lon="151.290064">
  <ele>343.1</ele>
  <time>2026-09-01T19:50:20Z</time>
  <course>138.31</course>
  <speed>0.0</speed>
  <fix>3d</fix>
</trkpt>
<trkpt lat="-27.274439" lon="151.290064">
  <ele>342.93</ele>
  <time>2026-09-01T19:50:20Z</time>
  <course>10.73</course>
  <speed>0.0</speed>
  <fix>3d</fix>
</trkpt>
<trkpt lat="-27.274439" lon="151.290064">
  <ele>343.1</ele>
  <time>2026-09-01T19:50:20Z</time>
  <course>138.31</course>
  <speed>0.0</speed>
  <fix>3d</fix>
</trkpt>
<trkpt lat="-27.274439" lon="151.290064">
  <ele>343.08</ele>
  <time>2026-09-01T19:50:20Z</time>
  <course>10.73</course>
  <speed>0.0</speed>
  <fix>3d</fix>
</trkpt>
<trkpt lat="-27.274439" lon="151.290064">
  <ele>343.1</ele>
  <time>2026-09-01T19:50:20Z</time>
  <course>138.31</course>
  <speed>0.0</speed>
  <fix>3d</fix>
</trkpt>
<trkpt lat="-27.274439" lon="151.290064">
  <ele>343.23</ele>
  <time>2026-09-01T19:50:20Z</time>
  <course>10.73</course>
  <speed>0.0</speed>
  <fix>3d</fix>
</trkpt>
<trkpt lat="-27.274439" lon="151.290064">
  <ele>343.1</ele>
  <time>2026-09-01T19:50:20Z</time>
  <course>138.31</course>
  <speed>0.0</speed>
  <fix>3d</fix>
</trkpt>
<trkpt lat="-27.274439" lon="151.290064">
  <ele>343.01</ele>
  <time>2026-09-01T19:50:20Z</time>
  <course>10.73</course>
  <speed>0.0</speed>
  <fix>3d</fix>
</trkpt>
<trkpt lat="-27.274439" lon="151.290064">
  <ele>343.1</ele>
  <time>2026-09-01T19:50:20Z</time>
  <course>138.32</course>
  <speed>0.0</speed>
  <fix>3d</fix>
</trkpt>
<trkpt lat="-27.274439" lon="151.290064">
  <ele>343.1</ele>
  <time>2026-09-01T19:50:20Z</time>
  <course>10.73</course>
  <speed>0.0</speed>
  <fix>3d</fix>
</trkpt>
<trkpt lat="-27.274439" lon="151.290064">
  <ele>343.1</ele>
  <time>2026-09-01T19:50:20Z</time>
  <course>138.32</course>
  <speed>0.0</speed>
  <fix>3d</fix>
</trkpt>
<trkpt lat="-27.274439" lon="151.290064">
  <ele>342.99</ele>
  <time>2026-09-01T19:50:20Z</time>
  <course>10.73</course>
  <speed>0.0</speed>
  <fix>3d</fix>
</trkpt>
<trkpt lat="-27.274439" lon="151.290064">
  <ele>343.1</ele>
  <time>2026-09-01T19:50:20Z</time>
  <course>138.33</course>
  <speed>0.0</speed>
  <fix>3d</fix>
</trkpt>
<trkpt lat="-27.274439" lon="151.290064">
  <ele>342.87</ele>
  <time>2026-09-01T19:50:20Z</time>
  <course>10.73</course>
  <speed>0.0</speed>
  <fix>3d</fix>
</trkpt>
<trkpt lat="-27.274439" lon="151.290064">
  <ele>343.1</ele>
  <time>2026-09-01T19:50:20Z</time>
  <course>138.33</course>
  <speed>0.0</speed>
  <fix>3d</fix>
</trkpt>
<trkpt lat="-27.274439" lon="151.290064">
  <ele>343.1</ele>
  <time>2026-09-01T19:50:20Z</time>
  <course>10.73</course>
  <speed>0.0</speed>
  <fix>3d</fix>
</trkpt>
<trkpt lat="-27.274439" lon="151.290064">
  <ele>343.1</ele>
  <time>2026-09-01T19:50:20Z</time>
  <course>138.33</course>
  <speed>0.0</speed>
  <fix>3d</fix>
</trkpt>
<trkpt lat="-27.274439" lon="151.290064">
  <ele>342.99</ele>
  <time>2026-09-01T19:50:20Z</time>
  <course>10.73</course>
  <speed>0.0</speed>
  <fix>3d</fix>
</trkpt>
<trkpt lat="-27.274439" lon="151.290064">
  <ele>343.1</ele>
  <time>2026-09-01T19:50:20Z</time>
  <course>138.33</course>
  <speed>0.0</speed>
  <fix>3d</fix>
</trkpt>
<trkpt lat="-27.274439" lon="151.290064">
  <ele>342.91</ele>
  <time>2026-09-01T19:50:20Z</time>
  <course>10.73</course>
  <speed>0.0</speed>
  <fix>3d</fix>
</trkpt>
<trkpt lat="-27.274439" lon="151.290064">
  <ele>343.1</ele>
  <time>2026-09-01T19:50:20Z</time>
  <course>138.34</course>
  <speed>0.0</speed>
  <fix>3d</fix>
</trkpt>
<trkpt lat="-27.274439" lon="151.290064">
  <ele>342.9</ele>
  <time>2026-09-01T19:50:20Z</time>
  <course>10.73</course>
  <speed>0.0</speed>
  <fix>3d</fix>
</trkpt>
<trkpt lat="-27.274439" lon="151.290064">
  <ele>343.1</ele>
  <time>2026-09-01T19:50:20Z</time>
  <course>138.34</course>
  <speed>0.0</speed>
  <fix>3d</fix>
</trkpt>
<trkpt lat="-27.274439" lon="151.290064">
  <ele>342.87</ele>
  <time>2026-09-01T19:50:20Z</time>
  <course>10.73</course>
  <speed>0.0</speed>
  <fix>3d</fix>
</trkpt>
<trkpt lat="-27.274439" lon="151.290064">
  <ele>343.1</ele>
  <time>2026-09-01T19:50:20Z</time>
  <course>138.35</course>
  <speed>0.0</speed>
  <fix>3d</fix>
</trkpt>
<trkpt lat="-27.274439" lon="151.290064">
  <ele>343.12</ele>
  <time>2026-09-01T19:50:20Z</time>
  <course>10.73</course>
  <speed>0.0</speed>
  <fix>3d</fix>
</trkpt>
<trkpt lat="-27.274439" lon="151.290064">
  <ele>343.1</ele>
  <time>2026-09-01T19:50:20Z</time>
  <course>138.35</course>
  <speed>0.0</speed>
  <fix>3d</fix>
</trkpt>
<trkpt lat="-27.274439" lon="151.290064">
  <ele>342.99</ele>
  <time>2026-09-01T19:50:20Z</time>
  <course>10.73</course>
  <speed>0.0</speed>
  <fix>3d</fix>
</trkpt>
<trkpt lat="-27.274439" lon="151.290064">
  <ele>343.1</ele>
  <time>2026-09-01T19:50:20Z</time>
  <course>138.35</course>
  <speed>0.0</speed>
  <fix>3d</fix>
</trkpt>
<trkpt lat="-27.274439" lon="151.290064">
  <ele>343.13</ele>
  <time>2026-09-01T19:50:20Z</time>
  <course>10.72</course>
  <speed>0.0</speed>
  <fix>3d</fix>
</trkpt>
<trkpt lat="-27.274439" lon="151.290064">
  <ele>343.1</ele>
  <time>2026-09-01T19:50:20Z</time>
  <course>138.35</course>
  <speed>0.0</speed>
  <fix>3d</fix>
</trkpt>
<trkpt lat="-27.274439" lon="151.290064">
  <ele>343.0</ele>
  <time>2026-09-01T19:50:20Z</time>
  <course>10.72</course>
  <speed>0.0</speed>
  <fix>3d</fix>
</trkpt>
<trkpt lat="-27.274439" lon="151.290064">
  <ele>343.1</ele>
  <time>2026-09-01T19:50:20Z</time>
  <course>138.36</course>
  <speed>0.0</speed>
  <fix>3d</fix>
</trkpt>
<trkpt lat="-27.274439" lon="151.290064">
  <ele>343.17</ele>
  <time>2026-09-01T19:50:20Z</time>
  <course>10.72</course>
  <speed>0.0</speed>
  <fix>3d</fix>
</trkpt>
<trkpt lat="-27.274439" lon="151.290064">
  <ele>343.1</ele>
  <time>2026-09-01T19:50:20Z</time>
  <course>138.36</course>
  <speed>0.0</speed>
  <fix>3d</fix>
</trkpt>
<trkpt lat="-27.274439" lon="151.290064">
  <ele>343.0</ele>
  <time>2026-09-01T19:50:20Z</time>
  <course>10.72</course>
  <speed>0.0</speed>
  <fix>3d</fix>
</trkpt>
<trkpt lat="-27.274439" lon="151.290064">
  <ele>343.1</ele>
  <time>2026-09-01T19:50:20Z</time>
  <course>138.37</course>
  <speed>0.0</speed>
  <fix>3d</fix>
</trkpt>
<trkpt lat="-27.274439" lon="151.290064">
  <ele>342.99</ele>
  <time>2026-09-01T19:50:20Z</time>
  <course>10.72</course>
  <speed>0.0</speed>
  <fix>3d</fix>
</trkpt>
<trkpt lat="-27.274439" lon="151.290064">
  <ele>343.1</ele>
  <time>2026-09-01T19:50:20Z</time>
  <course>138.37</course>
  <speed>0.0</speed>
  <fix>3d</fix>
</trkpt>
<trkpt lat="-27.274439" lon="151.290064">
  <ele>343.17</ele>
  <time>2026-09-01T19:50:20Z</time>
  <course>10.72</course>
  <speed>0.0</speed>
  <fix>3d</fix>
</trkpt>
<trkpt lat="-27.274439" lon="151.290064">
  <ele>343.1</ele>
  <time>2026-09-01T19:50:20Z</time>
  <course>138.37</course>
  <speed>0.0</speed>
  <fix>3d</fix>
</trkpt>
<trkpt lat="-27.274439" lon="151.290064">
  <ele>343.16</ele>
  <time>2026-09-01T19:50:20Z</time>
  <course>10.72</course>
  <speed>0.0</speed>
  <fix>3d</fix>
</trkpt>
<trkpt lat="-27.274439" lon="151.290064">
  <ele>343.1</ele>
  <time>2026-09-01T19:50:20Z</time>
  <course>138.37</course>
  <speed>0.0</speed>
  <fix>3d</fix>
</trkpt>
<trkpt lat="-27.274439" lon="151.290064">
  <ele>342.87</ele>
  <time>2026-09-01T19:50:20Z</time>
  <course>10.72</course>
  <speed>0.0</speed>
  <fix>3d</fix>
</trkpt>
<trkpt lat="-27.274439" lon="151.290064">
  <ele>343.1</ele>
  <time>2026-09-01T19:50:20Z</time>
  <course>138.38</course>
  <speed>0.0</speed>
  <fix>3d</fix>
</trkpt>
<trkpt lat="-27.274439" lon="151.290064">
  <ele>343.19</ele>
  <time>2026-09-01T19:50:20Z</time>
  <course>10.72</course>
  <speed>0.0</speed>
  <fix>3d</fix>
</trkpt>
<trkpt lat="-27.274439" lon="151.290064">
  <ele>343.1</ele>
  <time>2026-09-01T19:50:20Z</time>
  <course>138.38</course>
  <speed>0.0</speed>
  <fix>3d</fix>
</trkpt>
<trkpt lat="-27.274439" lon="151.290064">
  <ele>343.16</ele>
  <time>2026-09-01T19:50:20Z</time>
  <course>10.71</course>
  <speed>0.0</speed>
  <fix>3d</fix>
</trkpt>
<trkpt lat="-27.274439" lon="151.290064">
  <ele>343.1</ele>
  <time>2026-09-01T19:50:20Z</time>
  <course>138.38</course>
  <speed>0.0</speed>
  <fix>3d</fix>
</trkpt>
<trkpt lat="-27.274439" lon="151.290064">
  <ele>343.21</ele>
  <time>2026-09-01T19:50:20Z</time>
  <course>10.71</course>
  <speed>0.0</speed>
  <fix>3d</fix>
</trkpt>
<trkpt lat="-27.274439" lon="151.290064">
  <ele>343.1</ele>
  <time>2026-09-01T19:50:20Z</time>
  <course>138.38</course>
  <speed>0.0</speed>
  <fix>3d</fix>
</trkpt>
<trkpt lat="-27.274439" lon="151.290064">
  <ele>343.22</ele>
  <time>2026-09-01T19:50:20Z</time>
  <course>10.71</course>
  <speed>0.0</speed>
  <fix>3d</fix>
</trkpt>
<trkpt lat="-27.274439" lon="151.290064">
  <ele>343.1</ele>
  <time>2026-09-01T19:50:20Z</time>
  <course>138.39</course>
  <speed>0.0</speed>
  <fix>3d</fix>
</trkpt>
<trkpt lat="-27.274439" lon="151.290064">
  <ele>343.12</ele>
  <time>2026-09-01T19:50:20Z</time>
  <course>10.71</course>
  <speed>0.0</speed>
  <fix>3d</fix>
</trkpt>
<trkpt lat="-27.274439" lon="151.290064">
  <ele>343.1</ele>
  <time>2026-09-01T19:50:20Z</time>
  <course>138.39</course>
  <speed>0.0</speed>
  <fix>3d</fix>
</trkpt>
<trkpt lat="-27.274439" lon="151.290064">
  <ele>342.88</ele>
  <time>2026-09-01T19:50:20Z</time>
  <course>10.71</course>
  <speed>0.0</speed>
  <fix>3d</fix>
</trkpt>
<trkpt lat="-27.274439" lon="151.290064">
  <ele>343.1</ele>
  <time>2026-09-01T19:50:20Z</time>
  <course>138.4</course>
  <speed>0.0</speed>
  <fix>3d</fix>
</trkpt>
<trkpt lat="-27.274439" lon="151.290064">
  <ele>342.97</ele>
  <time>2026-09-01T19:50:20Z</time>
  <course>10.71</course>
  <speed>0.0</speed>
  <fix>3d</fix>
</trkpt>
<trkpt lat="-27.274439" lon="151.290064">
  <ele>343.1</ele>
  <time>2026-09-01T19:50:20Z</time>
  <course>138.4</course>
  <speed>0.0</speed>
  <fix>3d</fix>
</trkpt>
<trkpt lat="-27.274439" lon="151.290064">
  <ele>342.92</ele>
  <time>2026-09-01T19:50:20Z</time>
  <course>10.71</course>
  <speed>0.0</speed>
  <fix>3d</fix>
</trkpt>
<trkpt lat="-27.274439" lon="151.290064">
  <ele>343.1</ele>
  <time>2026-09-01T19:50:20Z</time>
  <course>138.4</course>
  <speed>0.0</speed>
  <fix>3d</fix>
</trkpt>
<trkpt lat="-27.274439" lon="151.290064">
  <ele>342.74</ele>
  <time>2026-09-01T19:50:20Z</time>
  <course>10.71</course>
  <speed>0.0</speed>
  <fix>3d</fix>
</trkpt>
<trkpt lat="-27.274439" lon="151.290064">
  <ele>343.1</ele>
  <time>2026-09-01T19:50:20Z</time>
  <course>138.4</course>
  <speed>0.0</speed>
  <fix>3d</fix>
</trkpt>
<trkpt lat="-27.274439" lon="151.290064">
  <ele>342.8</ele>
  <time>2026-09-01T19:50:20Z</time>
  <course>10.71</course>
  <speed>0.0</speed>
  <fix>3d</fix>
</trkpt>
<trkpt lat="-27.274439" lon="151.290064">
  <ele>343.1</ele>
  <time>2026-09-01T19:50:20Z</time>
  <course>138.41</course>
  <speed>0.0</speed>
  <fix>3d</fix>
</trkpt>
<trkpt lat="-27.274439" lon="151.290064">
  <ele>342.83</ele>
  <time>2026-09-01T19:50:20Z</time>
  <course>10.7</course>
  <speed>0.0</speed>
  <fix>3d</fix>
</trkpt>
<trkpt lat="-27.274439" lon="151.290064">
  <ele>343.1</ele>
  <time>2026-09-01T19:50:20Z</time>
  <course>138.41</course>
  <speed>0.0</speed>
  <fix>3d</fix>
</trkpt>
<trkpt lat="-27.274439" lon="151.290064">
  <ele>343.03</ele>
  <time>2026-09-01T19:50:20Z</time>
  <course>10.7</course>
  <speed>0.0</speed>
  <fix>3d</fix>
</trkpt>
<trkpt lat="-27.274439" lon="151.290064">
  <ele>343.1</ele>
  <time>2026-09-01T19:50:20Z</time>
  <course>138.41</course>
  <speed>0.0</speed>
  <fix>3d</fix>
</trkpt>
<trkpt lat="-27.274439" lon="151.290064">
  <ele>343.04</ele>
  <time>2026-09-01T19:50:20Z</time>
  <course>10.7</course>
  <speed>0.0</speed>
  <fix>3d</fix>
</trkpt>
<trkpt lat="-27.274439" lon="151.290064">
  <ele>343.1</ele>
  <time>2026-09-01T19:50:20Z</time>
  <course>138.41</course>
  <speed>0.0</speed>
  <fix>3d</fix>
</trkpt>
<trkpt lat="-27.274439" lon="151.290064">
  <ele>343.07</ele>
  <time>2026-09-01T19:50:20Z</time>
  <course>10.71</course>
  <speed>0.0</speed>
  <fix>3d</fix>
</trkpt>
<trkpt lat="-27.274439" lon="151.290064">
  <ele>343.1</ele>
  <time>2026-09-01T19:50:20Z</time>
  <course>138.42</course>
  <speed>0.0</speed>
  <fix>3d</fix>
</trkpt>
<trkpt lat="-27.274439" lon="151.290064">
  <ele>343.01</ele>
  <time>2026-09-01T19:50:20Z</time>
  <course>10.72</course>
  <speed>0.0</speed>
  <fix>3d</fix>
</trkpt>
<trkpt lat="-27.274439" lon="151.290064">
  <ele>343.1</ele>
  <time>2026-09-01T19:50:20Z</time>
  <course>138.42</course>
  <speed>0.0</speed>
  <fix>3d</fix>
</trkpt>
<trkpt lat="-27.274439" lon="151.290064">
  <ele>342.88</ele>
  <time>2026-09-01T19:50:20Z</time>
  <course>10.73</course>
  <speed>0.0</speed>
  <fix>3d</fix>
</trkpt>
<trkpt lat="-27.274439" lon="151.290064">
  <ele>343.1</ele>
  <time>2026-09-01T19:50:20Z</time>
  <course>138.42</course>
  <speed>0.0</speed>
  <fix>3d</fix>
</trkpt>
<trkpt lat="-27.274439" lon="151.290064">
  <ele>343.12</ele>
  <time>2026-09-01T19:50:20Z</time>
  <course>10.73</course>
  <speed>0.0</speed>
  <fix>3d</fix>
</trkpt>
<trkpt lat="-27.274439" lon="151.290064">
  <ele>343.1</ele>
  <time>2026-09-01T19:50:20Z</time>
  <course>138.42</course>
  <speed>0.0</speed>
  <fix>3d</fix>
</trkpt>
<trkpt lat="-27.274439" lon="151.290064">
  <ele>342.88</ele>
  <time>2026-09-01T19:50:20Z</time>
  <course>10.74</course>
  <speed>0.0</speed>
  <fix>3d</fix>
</trkpt>
<trkpt lat="-27.274439" lon="151.290064">
  <ele>343.1</ele>
  <time>2026-09-01T19:50:20Z</time>
  <course>138.43</course>
  <speed>0.0</speed>
  <fix>3d</fix>
</trkpt>
<trkpt lat="-27.274439" lon="151.290064">
  <ele>343.02</ele>
  <time>2026-09-01T19:50:20Z</time>
  <course>10.75</course>
  <speed>0.0</speed>
  <fix>3d</fix>
</trkpt>
<trkpt lat="-27.274439" lon="151.290064">
  <ele>343.1</ele>
  <time>2026-09-01T19:50:20Z</time>
  <course>138.43</course>
  <speed>0.0</speed>
  <fix>3d</fix>
</trkpt>
<trkpt lat="-27.274439" lon="151.290064">
  <ele>342.83</ele>
  <time>2026-09-01T19:50:20Z</time>
  <course>10.75</course>
  <speed>0.0</speed>
  <fix>3d</fix>
</trkpt>
<trkpt lat="-27.274439" lon="151.290064">
  <ele>343.1</ele>
  <time>2026-09-01T19:50:20Z</time>
  <course>138.44</course>
  <speed>0.0</speed>
  <fix>3d</fix>
</trkpt>
<trkpt lat="-27.274439" lon="151.290064">
  <ele>342.9</ele>
  <time>2026-09-01T19:50:20Z</time>
  <course>10.76</course>
  <speed>0.0</speed>
  <fix>3d</fix>
</trkpt>
<trkpt lat="-27.274439" lon="151.290064">
  <ele>343.1</ele>
  <time>2026-09-01T19:50:20Z</time>
  <course>138.44</course>
  <speed>0.0</speed>
  <fix>3d</fix>
</trkpt>
<trkpt lat="-27.274439" lon="151.290064">
  <ele>343.04</ele>
  <time>2026-09-01T19:50:20Z</time>
  <course>10.77</course>
  <speed>0.0</speed>
  <fix>3d</fix>
</trkpt>
<trkpt lat="-27.274439" lon="151.290064">
  <ele>343.1</ele>
  <time>2026-09-01T19:50:20Z</time>
  <course>138.44</course>
  <speed>0.0</speed>
  <fix>3d</fix>
</trkpt>
<trkpt lat="-27.274439" lon="151.290064">
  <ele>343.09</ele>
  <time>2026-09-01T19:50:20Z</time>
  <course>10.78</course>
  <speed>0.0</speed>
  <fix>3d</fix>
</trkpt>
<trkpt lat="-27.274439" lon="151.290064">
  <ele>343.1</ele>
  <time>2026-09-01T19:50:20Z</time>
  <course>138.44</course>
  <speed>0.0</speed>
  <fix>3d</fix>
</trkpt>
<trkpt lat="-27.274439" lon="151.290064">
  <ele>342.75</ele>
  <time>2026-09-01T19:50:20Z</time>
  <course>10.78</course>
  <speed>0.0</speed>
  <fix>3d</fix>
</trkpt>
<trkpt lat="-27.274439" lon="151.290064">
  <ele>343.1</ele>
  <time>2026-09-01T19:50:20Z</time>
  <course>138.45</course>
  <speed>0.0</speed>
  <fix>3d</fix>
</trkpt>
<trkpt lat="-27.274439" lon="151.290064">
  <ele>342.95</ele>
  <time>2026-09-01T19:50:20Z</time>
  <course>10.79</course>
  <speed>0.0</speed>
  <fix>3d</fix>
</trkpt>
<trkpt lat="-27.274439" lon="151.290064">
  <ele>343.1</ele>
  <time>2026-09-01T19:50:20Z</time>
  <course>138.45</course>
  <speed>0.0</speed>
  <fix>3d</fix>
</trkpt>
<trkpt lat="-27.274439" lon="151.290064">
  <ele>342.83</ele>
  <time>2026-09-01T19:50:20Z</time>
  <course>10.8</course>
  <speed>0.0</speed>
  <fix>3d</fix>
</trkpt>
<trkpt lat="-27.274439" lon="151.290064">
  <ele>343.1</ele>
  <time>2026-09-01T19:50:20Z</time>
  <course>138.45</course>
  <speed>0.0</speed>
  <fix>3d</fix>
</trkpt>
<trkpt lat="-27.274439" lon="151.290064">
  <ele>343.05</ele>
  <time>2026-09-01T19:50:20Z</time>
  <course>10.8</course>
  <speed>0.0</speed>
  <fix>3d</fix>
</trkpt>
<trkpt lat="-27.274439" lon="151.290064">
  <ele>343.1</ele>
  <time>2026-09-01T19:50:20Z</time>
  <course>138.45</course>
  <speed>0.0</speed>
  <fix>3d</fix>
</trkpt>
<trkpt lat="-27.274439" lon="151.290064">
  <ele>342.88</ele>
  <time>2026-09-01T19:50:20Z</time>
  <course>10.81</course>
  <speed>0.0</speed>
  <fix>3d</fix>
</trkpt>
<trkpt lat="-27.274439" lon="151.290064">
  <ele>343.1</ele>
  <time>2026-09-01T19:50:20Z</time>
  <course>138.46</course>
  <speed>0.0</speed>
  <fix>3d</fix>
</trkpt>
<trkpt lat="-27.274439" lon="151.290064">
  <ele>343.12</ele>
  <time>2026-09-01T19:50:20Z</time>
  <course>10.81</course>
  <speed>0.0</speed>
  <fix>3d</fix>
</trkpt>
<trkpt lat="-27.274439" lon="151.290064">
  <ele>343.1</ele>
  <time>2026-09-01T19:50:20Z</time>
  <course>138.46</course>
  <speed>0.0</speed>
  <fix>3d</fix>
</trkpt>
<trkpt lat="-27.274439" lon="151.290064">
  <ele>342.95</ele>
  <time>2026-09-01T19:50:20Z</time>
  <course>10.82</course>
  <speed>0.0</speed>
  <fix>3d</fix>
</trkpt>
<trkpt lat="-27.274439" lon="151.290064">
  <ele>343.1</ele>
  <time>2026-09-01T19:50:20Z</time>
  <course>138.47</course>
  <speed>0.0</speed>
  <fix>3d</fix>
</trkpt>
<trkpt lat="-27.274439" lon="151.290064">
  <ele>343.19</ele>
  <time>2026-09-01T19:50:20Z</time>
  <course>10.83</course>
  <speed>0.0</speed>
  <fix>3d</fix>
</trkpt>
<trkpt lat="-27.274439" lon="151.290064">
  <ele>343.1</ele>
  <time>2026-09-01T19:50:20Z</time>
  <course>138.47</course>
  <speed>0.0</speed>
  <fix>3d</fix>
</trkpt>
<trkpt lat="-27.274439" lon="151.290064">
  <ele>343.02</ele>
  <time>2026-09-01T19:50:20Z</time>
  <course>10.83</course>
  <speed>0.0</speed>
  <fix>3d</fix>
</trkpt>
<trkpt lat="-27.274439" lon="151.290064">
  <ele>343.1</ele>
  <time>2026-09-01T19:50:20Z</time>
  <course>138.47</course>
  <speed>0.0</speed>
  <fix>3d</fix>
</trkpt>
<trkpt lat="-27.274439" lon="151.290064">
  <ele>343.25</ele>
  <time>2026-09-01T19:50:20Z</time>
  <course>10.84</course>
  <speed>0.0</speed>
  <fix>3d</fix>
</trkpt>
<trkpt lat="-27.274439" lon="151.290064">
  <ele>343.1</ele>
  <time>2026-09-01T19:50:20Z</time>
  <course>138.47</course>
  <speed>0.0</speed>
  <fix>3d</fix>
</trkpt>
<trkpt lat="-27.274439" lon="151.290064">
  <ele>342.94</ele>
  <time>2026-09-01T19:50:20Z</time>
  <course>10.84</course>
  <speed>0.0</speed>
  <fix>3d</fix>
</trkpt>
<trkpt lat="-27.274439" lon="151.290064">
  <ele>343.1</ele>
  <time>2026-09-01T19:50:20Z</time>
  <course>138.48</course>
  <speed>0.0</speed>
  <fix>3d</fix>
</trkpt>
<trkpt lat="-27.274439" lon="151.290064">
  <ele>343.12</ele>
  <time>2026-09-01T19:50:20Z</time>
  <course>10.85</course>
  <speed>0.0</speed>
  <fix>3d</fix>
</trkpt>
<trkpt lat="-27.274439" lon="151.290064">
  <ele>343.1</ele>
  <time>2026-09-01T19:50:20Z</time>
  <course>138.48</course>
  <speed>0.0</speed>
  <fix>3d</fix>
</trkpt>
<trkpt lat="-27.274439" lon="151.290064">
  <ele>343.01</ele>
  <time>2026-09-01T19:50:20Z</time>
  <course>10.85</course>
  <speed>0.0</speed>
  <fix>3d</fix>
</trkpt>
<trkpt lat="-27.274439" lon="151.290064">
  <ele>343.1</ele>
  <time>2026-09-01T19:50:20Z</time>
  <course>138.48</course>
  <speed>0.0</speed>
  <fix>3d</fix>
</trkpt>
<trkpt lat="-27.274439" lon="151.290064">
  <ele>343.13</ele>
  <time>2026-09-01T19:50:20Z</time>
  <course>10.86</course>
  <speed>0.0</speed>
  <fix>3d</fix>
</trkpt>
<trkpt lat="-27.274439" lon="151.290064">
  <ele>343.1</ele>
  <time>2026-09-01T19:50:20Z</time>
  <course>138.48</course>
  <speed>0.0</speed>
  <fix>3d</fix>
</trkpt>
<trkpt lat="-27.274439" lon="151.290064">
  <ele>343.18</ele>
  <time>2026-09-01T19:50:20Z</time>
  <course>10.86</course>
  <speed>0.0</speed>
  <fix>3d</fix>
</trkpt>
<trkpt lat="-27.274439" lon="151.290064">
  <ele>343.1</ele>
  <time>2026-09-01T19:50:20Z</time>
  <course>138.49</course>
  <speed>0.0</speed>
  <fix>3d</fix>
</trkpt>
<trkpt lat="-27.274439" lon="151.290064">
  <ele>342.97</ele>
  <time>2026-09-01T19:50:20Z</time>
  <course>10.87</course>
  <speed>0.0</speed>
  <fix>3d</fix>
</trkpt>
<trkpt lat="-27.274439" lon="151.290064">
  <ele>343.1</ele>
  <time>2026-09-01T19:50:20Z</time>
  <course>138.49</course>
  <speed>0.0</speed>
  <fix>3d</fix>
</trkpt>
<trkpt lat="-27.274439" lon="151.290064">
  <ele>343.14</ele>
  <time>2026-09-01T19:50:20Z</time>
  <course>10.87</course>
  <speed>0.0</speed>
  <fix>3d</fix>
</trkpt>
<trkpt lat="-27.274439" lon="151.290064">
  <ele>343.1</ele>
  <time>2026-09-01T19:50:20Z</time>
  <course>138.5</course>
  <speed>0.0</speed>
  <fix>3d</fix>
</trkpt>
<trkpt lat="-27.274439" lon="151.290064">
  <ele>342.96</ele>
  <time>2026-09-01T19:50:20Z</time>
  <course>10.88</course>
  <speed>0.0</speed>
  <fix>3d</fix>
</trkpt>
<trkpt lat="-27.274439" lon="151.290064">
  <ele>343.1</ele>
  <time>2026-09-01T19:50:20Z</time>
  <course>138.5</course>
  <speed>0.0</speed>
  <fix>3d</fix>
</trkpt>
<trkpt lat="-27.274439" lon="151.290064">
  <ele>343.3</ele>
  <time>2026-09-01T19:50:20Z</time>
  <course>10.88</course>
  <speed>0.0</speed>
  <fix>3d</fix>
</trkpt>
<trkpt lat="-27.274439" lon="151.290064">
  <ele>343.1</ele>
  <time>2026-09-01T19:50:20Z</time>
  <course>138.5</course>
  <speed>0.0</speed>
  <fix>3d</fix>
</trkpt>
<trkpt lat="-27.274439" lon="151.290064">
  <ele>343.22</ele>
  <time>2026-09-01T19:50:20Z</time>
  <course>10.89</course>
  <speed>0.0</speed>
  <fix>3d</fix>
</trkpt>
<trkpt lat="-27.274439" lon="151.290064">
  <ele>343.1</ele>
  <time>2026-09-01T19:50:20Z</time>
  <course>138.5</course>
  <speed>0.0</speed>
  <fix>3d</fix>
</trkpt>
<trkpt lat="-27.274439" lon="151.290064">
  <ele>343.08</ele>
  <time>2026-09-01T19:50:20Z</time>
  <course>10.89</course>
  <speed>0.0</speed>
  <fix>3d</fix>
</trkpt>
<trkpt lat="-27.274439" lon="151.290064">
  <ele>343.1</ele>
  <time>2026-09-01T19:50:20Z</time>
  <course>138.51</course>
  <speed>0.0</speed>
  <fix>3d</fix>
</trkpt>
<trkpt lat="-27.274439" lon="151.290064">
  <ele>343.23</ele>
  <time>2026-09-01T19:50:20Z</time>
  <course>10.89</course>
  <speed>0.0</speed>
  <fix>3d</fix>
</trkpt>
<trkpt lat="-27.274439" lon="151.290064">
  <ele>343.1</ele>
  <time>2026-09-01T19:50:20Z</time>
  <course>138.51</course>
  <speed>0.0</speed>
  <fix>3d</fix>
</trkpt>
<trkpt lat="-27.274439" lon="151.290064">
  <ele>343.33</ele>
  <time>2026-09-01T19:50:20Z</time>
  <course>10.9</course>
  <speed>0.0</speed>
  <fix>3d</fix>
</trkpt>
<trkpt lat="-27.274439" lon="151.290064">
  <ele>343.1</ele>
  <time>2026-09-01T19:50:20Z</time>
  <course>138.51</course>
  <speed>0.0</speed>
  <fix>3d</fix>
</trkpt>
<trkpt lat="-27.274439" lon="151.290064">
  <ele>343.05</ele>
  <time>2026-09-01T19:50:20Z</time>
  <course>10.9</course>
  <speed>0.0</speed>
  <fix>3d</fix>
</trkpt>
<trkpt lat="-27.274439" lon="151.290064">
  <ele>343.1</ele>
  <time>2026-09-01T19:50:20Z</time>
  <course>138.51</course>
  <speed>0.0</speed>
  <fix>3d</fix>
</trkpt>
<trkpt lat="-27.274439" lon="151.290064">
  <ele>343.16</ele>
  <time>2026-09-01T19:50:20Z</time>
  <course>10.91</course>
  <speed>0.0</speed>
  <fix>3d</fix>
</trkpt>
<trkpt lat="-27.274439" lon="151.290064">
  <ele>343.1</ele>
  <time>2026-09-01T19:50:20Z</time>
  <course>138.52</course>
  <speed>0.0</speed>
  <fix>3d</fix>
</trkpt>
<trkpt lat="-27.274439" lon="151.290064">
  <ele>343.16</ele>
  <time>2026-09-01T19:50:20Z</time>
  <course>10.91</course>
  <speed>0.0</speed>
  <fix>3d</fix>
</trkpt>
<trkpt lat="-27.274439" lon="151.290064">
  <ele>343.1</ele>
  <time>2026-09-01T19:50:20Z</time>
  <course>138.52</course>
  <speed>0.0</speed>
  <fix>3d</fix>
</trkpt>
<trkpt lat="-27.274439" lon="151.290064">
  <ele>343.08</ele>
  <time>2026-09-01T19:50:20Z</time>
  <course>10.91</course>
  <speed>0.0</speed>
  <fix>3d</fix>
</trkpt>
<trkpt lat="-27.274439" lon="151.290064">
  <ele>343.1</ele>
  <time>2026-09-01T19:50:20Z</time>
  <course>138.53</course>
  <speed>0.0</speed>
  <fix>3d</fix>
</trkpt>
<trkpt lat="-27.274439" lon="151.290064">
  <ele>343.17</ele>
  <time>2026-09-01T19:50:20Z</time>
  <course>10.92</course>
  <speed>0.0</speed>
  <fix>3d</fix>
</trkpt>
<trkpt lat="-27.274439" lon="151.290064">
  <ele>343.1</ele>
  <time>2026-09-01T19:50:20Z</time>
  <course>138.53</course>
  <speed>0.0</speed>
  <fix>3d</fix>
</trkpt>
<trkpt lat="-27.274439" lon="151.290064">
  <ele>343.22</ele>
  <time>2026-09-01T19:50:20Z</time>
  <course>10.92</course>
  <speed>0.0</speed>
  <fix>3d</fix>
</trkpt>
<trkpt lat="-27.274439" lon="151.290064">
  <ele>343.1</ele>
  <time>2026-09-01T19:50:20Z</time>
  <course>138.53</course>
  <speed>0.0</speed>
  <fix>3d</fix>
</trkpt>
<trkpt lat="-27.274439" lon="151.290064">
  <ele>343.01</ele>
  <time>2026-09-01T19:50:20Z</time>
  <course>10.93</course>
  <speed>0.0</speed>
  <fix>3d</fix>
</trkpt>
<trkpt lat="-27.274439" lon="151.290064">
  <ele>343.1</ele>
  <time>2026-09-01T19:50:20Z</time>
  <course>138.53</course>
  <speed>0.0</speed>
  <fix>3d</fix>
</trkpt>
<trkpt lat="-27.274439" lon="151.290064">
  <ele>343.26</ele>
  <time>2026-09-01T19:50:20Z</time>
  <course>10.93</course>
  <speed>0.0</speed>
  <fix>3d</fix>
</trkpt>
<trkpt lat="-27.274439" lon="151.290064">
  <ele>343.1</ele>
  <time>2026-09-01T19:50:20Z</time>
  <course>138.54</course>
  <speed>0.0</speed>
  <fix>3d</fix>
</trkpt>
<trkpt lat="-27.274439" lon="151.290064">
  <ele>343.28</ele>
  <time>2026-09-01T19:50:20Z</time>
  <course>10.93</course>
  <speed>0.0</speed>
  <fix>3d</fix>
</trkpt>
<trkpt lat="-27.274439" lon="151.290064">
  <ele>343.1</ele>
  <time>2026-09-01T19:50:20Z</time>
  <course>138.54</course>
  <speed>0.0</speed>
  <fix>3d</fix>
</trkpt>
<trkpt lat="-27.274439" lon="151.290064">
  <ele>343.34</ele>
  <time>2026-09-01T19:50:20Z</time>
  <course>10.94</course>
  <speed>0.0</speed>
  <fix>3d</fix>
</trkpt>
<trkpt lat="-27.274439" lon="151.290064">
  <ele>343.1</ele>
  <time>2026-09-01T19:50:20Z</time>
  <course>138.54</course>
  <speed>0.0</speed>
  <fix>3d</fix>
</trkpt>
<trkpt lat="-27.274439" lon="151.290064">
  <ele>343.1</ele>
  <time>2026-09-01T19:50:20Z</time>
  <course>10.94</course>
  <speed>0.0</speed>
  <fix>3d</fix>
</trkpt>
<trkpt lat="-27.274439" lon="151.290064">
  <ele>343.1</ele>
  <time>2026-09-01T19:50:20Z</time>
  <course>138.54</course>
  <speed>0.0</speed>
  <fix>3d</fix>
</trkpt>
<trkpt lat="-27.274439" lon="151.290064">
  <ele>342.96</ele>
  <time>2026-09-01T19:50:20Z</time>
  <course>10.94</course>
  <speed>0.0</speed>
  <fix>3d</fix>
</trkpt>
<trkpt lat="-27.274439" lon="151.290064">
  <ele>343.1</ele>
  <time>2026-09-01T19:50:20Z</time>
  <course>138.55</course>
  <speed>0.0</speed>
  <fix>3d</fix>
</trkpt>
<trkpt lat="-27.274439" lon="151.290064">
  <ele>343.03</ele>
  <time>2026-09-01T19:50:20Z</time>
  <course>10.95</course>
  <speed>0.0</speed>
  <fix>3d</fix>
</trkpt>
<trkpt lat="-27.274439" lon="151.290064">
  <ele>343.1</ele>
  <time>2026-09-01T19:50:20Z</time>
  <course>138.55</course>
  <speed>0.0</speed>
  <fix>3d</fix>
</trkpt>
<trkpt lat="-27.274439" lon="151.290064">
  <ele>343.23</ele>
  <time>2026-09-01T19:50:20Z</time>
  <course>10.95</course>
  <speed>0.0</speed>
  <fix>3d</fix>
</trkpt>
<trkpt lat="-27.274439" lon="151.290064">
  <ele>343.1</ele>
  <time>2026-09-01T19:50:20Z</time>
  <course>138.56</course>
  <speed>0.0</speed>
  <fix>3d</fix>
</trkpt>
<trkpt lat="-27.274439" lon="151.290064">
  <ele>343.14</ele>
  <time>2026-09-01T19:50:20Z</time>
  <course>10.96</course>
  <speed>0.0</speed>
  <fix>3d</fix>
</trkpt>
<trkpt lat="-27.274439" lon="151.290064">
  <ele>343.1</ele>
  <time>2026-09-01T19:50:20Z</time>
  <course>138.56</course>
  <speed>0.0</speed>
  <fix>3d</fix>
</trkpt>
<trkpt lat="-27.274439" lon="151.290064">
  <ele>343.13</ele>
  <time>2026-09-01T19:50:20Z</time>
  <course>10.96</course>
  <speed>0.0</speed>
  <fix>3d</fix>
</trkpt>
<trkpt lat="-27.274439" lon="151.290064">
  <ele>343.1</ele>
  <time>2026-09-01T19:50:20Z</time>
  <course>138.56</course>
  <speed>0.0</speed>
  <fix>3d</fix>
</trkpt>
<trkpt lat="-27.274439" lon="151.290064">
  <ele>343.03</ele>
  <time>2026-09-01T19:50:20Z</time>
  <course>10.96</course>
  <speed>0.0</speed>
  <fix>3d</fix>
</trkpt>
<trkpt lat="-27.274439" lon="151.290064">
  <ele>343.1</ele>
  <time>2026-09-01T19:50:20Z</time>
  <course>138.56</course>
  <speed>0.0</speed>
  <fix>3d</fix>
</trkpt>
<trkpt lat="-27.274439" lon="151.290064">
  <ele>343.15</ele>
  <time>2026-09-01T19:50:20Z</time>
  <course>10.97</course>
  <speed>0.0</speed>
  <fix>3d</fix>
</trkpt>
<trkpt lat="-27.274439" lon="151.290064">
  <ele>343.1</ele>
  <time>2026-09-01T19:50:20Z</time>
  <course>138.57</course>
  <speed>0.0</speed>
  <fix>3d</fix>
</trkpt>
<trkpt lat="-27.274439" lon="151.290064">
  <ele>343.14</ele>
  <time>2026-09-01T19:50:20Z</time>
  <course>10.97</course>
  <speed>0.0</speed>
  <fix>3d</fix>
</trkpt>
<trkpt lat="-27.274439" lon="151.290064">
  <ele>343.1</ele>
  <time>2026-09-01T19:50:20Z</time>
  <course>138.57</course>
  <speed>0.0</speed>
  <fix>3d</fix>
</trkpt>
<trkpt lat="-27.274439" lon="151.290064">
  <ele>343.17</ele>
  <time>2026-09-01T19:50:20Z</time>
  <course>10.97</course>
  <speed>0.0</speed>
  <fix>3d</fix>
</trkpt>
<trkpt lat="-27.274439" lon="151.290064">
  <ele>343.1</ele>
  <time>2026-09-01T19:50:20Z</time>
  <course>138.57</course>
  <speed>0.0</speed>
  <fix>3d</fix>
</trkpt>
<trkpt lat="-27.274439" lon="151.290064">
  <ele>342.95</ele>
  <time>2026-09-01T19:50:20Z</time>
  <course>10.97</course>
  <speed>0.0</speed>
  <fix>3d</fix>
</trkpt>
<trkpt lat="-27.274439" lon="151.290064">
  <ele>343.1</ele>
  <time>2026-09-01T19:50:20Z</time>
  <course>138.57</course>
  <speed>0.0</speed>
  <fix>3d</fix>
</trkpt>
<trkpt lat="-27.274439" lon="151.290064">
  <ele>343.06</ele>
  <time>2026-09-01T19:50:20Z</time>
  <course>10.98</course>
  <speed>0.0</speed>
  <fix>3d</fix>
</trkpt>
<trkpt lat="-27.274439" lon="151.290064">
  <ele>343.1</ele>
  <time>2026-09-01T19:50:20Z</time>
  <course>138.58</course>
  <speed>0.0</speed>
  <fix>3d</fix>
</trkpt>
<trkpt lat="-27.274439" lon="151.290064">
  <ele>343.11</ele>
  <time>2026-09-01T19:50:20Z</time>
  <course>10.98</course>
  <speed>0.0</speed>
  <fix>3d</fix>
</trkpt>
<trkpt lat="-27.274439" lon="151.290064">
  <ele>343.1</ele>
  <time>2026-09-01T19:50:20Z</time>
  <course>138.58</course>
  <speed>0.0</speed>
  <fix>3d</fix>
</trkpt>
<trkpt lat="-27.274439" lon="151.290064">
  <ele>343.3</ele>
  <time>2026-09-01T19:50:20Z</time>
  <course>10.98</course>
  <speed>0.0</speed>
  <fix>3d</fix>
</trkpt>
<trkpt lat="-27.274439" lon="151.290064">
  <ele>343.1</ele>
  <time>2026-09-01T19:50:20Z</time>
  <course>138.59</course>
  <speed>0.0</speed>
  <fix>3d</fix>
</trkpt>
<trkpt lat="-27.274439" lon="151.290064">
  <ele>343.03</ele>
  <time>2026-09-01T19:50:20Z</time>
  <course>10.99</course>
  <speed>0.0</speed>
  <fix>3d</fix>
</trkpt>
<trkpt lat="-27.274439" lon="151.290064">
  <ele>343.1</ele>
  <time>2026-09-01T19:50:20Z</time>
  <course>138.59</course>
  <speed>0.0</speed>
  <fix>3d</fix>
</trkpt>
<trkpt lat="-27.2744391" lon="151.290064">
  <ele>343.13</ele>
  <time>2026-09-01T19:50:20Z</time>
  <course>10.99</course>
  <speed>0.0</speed>
  <fix>3d</fix>
</trkpt>
<trkpt lat="-27.2744391" lon="151.290064">
  <ele>343.1</ele>
  <time>2026-09-01T19:50:20Z</time>
  <course>138.59</course>
  <speed>0.0</speed>
  <fix>3d</fix>
</trkpt>
<trkpt lat="-27.2744391" lon="151.290064">
  <ele>343.02</ele>
  <time>2026-09-01T19:50:20Z</time>
  <course>10.99</course>
  <speed>0.0</speed>
  <fix>3d</fix>
</trkpt>
<trkpt lat="-27.2744391" lon="151.290064">
  <ele>343.1</ele>
  <time>2026-09-01T19:50:20Z</time>
  <course>138.59</course>
  <speed>0.0</speed>
  <fix>3d</fix>
</trkpt>
<trkpt lat="-27.2744391" lon="151.290064">
  <ele>343.17</ele>
  <time>2026-09-01T19:50:20Z</time>
  <course>10.99</course>
  <speed>0.0</speed>
  <fix>3d</fix>
</trkpt>
<trkpt lat="-27.2744391" lon="151.290064">
  <ele>343.1</ele>
  <time>2026-09-01T19:50:20Z</time>
  <course>138.6</course>
  <speed>0.0</speed>
  <fix>3d</fix>
</trkpt>
<trkpt lat="-27.2744391" lon="151.290064">
  <ele>343.26</ele>
  <time>2026-09-01T19:50:20Z</time>
  <course>11.0</course>
  <speed>0.0</speed>
  <fix>3d</fix>
</trkpt>
<trkpt lat="-27.2744391" lon="151.290064">
  <ele>343.1</ele>
  <time>2026-09-01T19:50:20Z</time>
  <course>138.6</course>
  <speed>0.0</speed>
  <fix>3d</fix>
</trkpt>
<trkpt lat="-27.2744391" lon="151.290064">
  <ele>343.29</ele>
  <time>2026-09-01T19:50:20Z</time>
  <course>11.0</course>
  <speed>0.0</speed>
  <fix>3d</fix>
</trkpt>
<trkpt lat="-27.2744391" lon="151.290064">
  <ele>343.1</ele>
  <time>2026-09-01T19:50:20Z</time>
  <course>138.6</course>
  <speed>0.0</speed>
  <fix>3d</fix>
</trkpt>
<trkpt lat="-27.2744391" lon="151.290064">
  <ele>343.13</ele>
  <time>2026-09-01T19:50:20Z</time>
  <course>11.0</course>
  <speed>0.0</speed>
  <fix>3d</fix>
</trkpt>
<trkpt lat="-27.2744391" lon="151.290064">
  <ele>343.1</ele>
  <time>2026-09-01T19:50:20Z</time>
  <course>138.6</course>
  <speed>0.0</speed>
  <fix>3d</fix>
</trkpt>
<trkpt lat="-27.2744391" lon="151.290064">
  <ele>343.1</ele>
  <time>2026-09-01T19:50:20Z</time>
  <course>11.0</course>
  <speed>0.0</speed>
  <fix>3d</fix>
</trkpt>
<trkpt lat="-27.2744391" lon="151.290064">
  <ele>343.1</ele>
  <time>2026-09-01T19:50:20Z</time>
  <course>138.61</course>
  <speed>0.0</speed>
  <fix>3d</fix>
</trkpt>
<trkpt lat="-27.2744391" lon="151.290064">
  <ele>343.2</ele>
  <time>2026-09-01T19:50:20Z</time>
  <course>11.01</course>
  <speed>0.0</speed>
  <fix>3d</fix>
</trkpt>
<trkpt lat="-27.2744391" lon="151.290064">
  <ele>343.1</ele>
  <time>2026-09-01T19:50:20Z</time>
  <course>138.61</course>
  <speed>0.0</speed>
  <fix>3d</fix>
</trkpt>
<trkpt lat="-27.2744391" lon="151.290064">
  <ele>343.09</ele>
  <time>2026-09-01T19:50:20Z</time>
  <course>11.01</course>
  <speed>0.0</speed>
  <fix>3d</fix>
</trkpt>
<trkpt lat="-27.2744391" lon="151.290064">
  <ele>343.1</ele>
  <time>2026-09-01T19:50:20Z</time>
  <course>138.62</course>
  <speed>0.0</speed>
  <fix>3d</fix>
</trkpt>
<trkpt lat="-27.2744391" lon="151.290064">
  <ele>343.11</ele>
  <time>2026-09-01T19:50:20Z</time>
  <course>11.01</course>
  <speed>0.0</speed>
  <fix>3d</fix>
</trkpt>
<trkpt lat="-27.2744391" lon="151.290064">
  <ele>343.1</ele>
  <time>2026-09-01T19:50:20Z</time>
  <course>138.62</course>
  <speed>0.0</speed>
  <fix>3d</fix>
</trkpt>
<trkpt lat="-27.2744391" lon="151.290064">
  <ele>343.21</ele>
  <time>2026-09-01T19:50:20Z</time>
  <course>11.01</course>
  <speed>0.0</speed>
  <fix>3d</fix>
</trkpt>
<trkpt lat="-27.2744391" lon="151.290064">
  <ele>343.1</ele>
  <time>2026-09-01T19:50:20Z</time>
  <course>138.62</course>
  <speed>0.0</speed>
  <fix>3d</fix>
</trkpt>
<trkpt lat="-27.2744391" lon="151.290064">
  <ele>343.22</ele>
  <time>2026-09-01T19:50:20Z</time>
  <course>11.02</course>
  <speed>0.0</speed>
  <fix>3d</fix>
</trkpt>
<trkpt lat="-27.2744391" lon="151.290064">
  <ele>343.1</ele>
  <time>2026-09-01T19:50:20Z</time>
  <course>138.62</course>
  <speed>0.0</speed>
  <fix>3d</fix>
</trkpt>
<trkpt lat="-27.2744391" lon="151.290064">
  <ele>342.98</ele>
  <time>2026-09-01T19:50:20Z</time>
  <course>11.02</course>
  <speed>0.0</speed>
  <fix>3d</fix>
</trkpt>
<trkpt lat="-27.2744391" lon="151.290064">
  <ele>343.1</ele>
  <time>2026-09-01T19:50:20Z</time>
  <course>138.63</course>
  <speed>0.0</speed>
  <fix>3d</fix>
</trkpt>
<trkpt lat="-27.2744391" lon="151.290064">
  <ele>343.15</ele>
  <time>2026-09-01T19:50:20Z</time>
  <course>11.02</course>
  <speed>0.0</speed>
  <fix>3d</fix>
</trkpt>
<trkpt lat="-27.2744391" lon="151.290064">
  <ele>343.1</ele>
  <time>2026-09-01T19:50:20Z</time>
  <course>138.63</course>
  <speed>0.0</speed>
  <fix>3d</fix>
</trkpt>
<trkpt lat="-27.2744391" lon="151.290064">
  <ele>343.28</ele>
  <time>2026-09-01T19:50:20Z</time>
  <course>11.02</course>
  <speed>0.0</speed>
  <fix>3d</fix>
</trkpt>
<trkpt lat="-27.2744391" lon="151.290064">
  <ele>343.1</ele>
  <time>2026-09-01T19:50:20Z</time>
  <course>138.63</course>
  <speed>0.0</speed>
  <fix>3d</fix>
</trkpt>
<trkpt lat="-27.2744391" lon="151.290064">
  <ele>343.3</ele>
  <time>2026-09-01T19:50:20Z</time>
  <course>11.02</course>
  <speed>0.0</speed>
  <fix>3d</fix>
</trkpt>
<trkpt lat="-27.2744391" lon="151.290064">
  <ele>343.1</ele>
  <time>2026-09-01T19:50:20Z</time>
  <course>138.63</course>
  <speed>0.0</speed>
  <fix>3d</fix>
</trkpt>
<trkpt lat="-27.2744391" lon="151.290064">
  <ele>343.33</ele>
  <time>2026-09-01T19:50:20Z</time>
  <course>11.02</course>
  <speed>0.0</speed>
  <fix>3d</fix>
</trkpt>
<trkpt lat="-27.2744391" lon="151.290064">
  <ele>343.1</ele>
  <time>2026-09-01T19:50:20Z</time>
  <course>138.64</course>
  <speed>0.0</speed>
  <fix>3d</fix>
</trkpt>
<trkpt lat="-27.2744391" lon="151.290064">
  <ele>342.96</ele>
  <time>2026-09-01T19:50:20Z</time>
  <course>11.02</course>
  <speed>0.0</speed>
  <fix>3d</fix>
</trkpt>
<trkpt lat="-27.2744391" lon="151.290064">
  <ele>343.1</ele>
  <time>2026-09-01T19:50:20Z</time>
  <course>138.64</course>
  <speed>0.0</speed>
  <fix>3d</fix>
</trkpt>
<trkpt lat="-27.2744391" lon="151.290064">
  <ele>342.97</ele>
  <time>2026-09-01T19:50:20Z</time>
  <course>11.02</course>
  <speed>0.0</speed>
  <fix>3d</fix>
</trkpt>
<trkpt lat="-27.2744391" lon="151.290064">
  <ele>343.1</ele>
  <time>2026-09-01T19:50:20Z</time>
  <course>138.65</course>
  <speed>0.0</speed>
  <fix>3d</fix>
</trkpt>
<trkpt lat="-27.2744391" lon="151.290064">
  <ele>342.83</ele>
  <time>2026-09-01T19:50:20Z</time>
  <course>11.02</course>
  <speed>0.0</speed>
  <fix>3d</fix>
</trkpt>
<trkpt lat="-27.2744391" lon="151.290064">
  <ele>343.1</ele>
  <time>2026-09-01T19:50:20Z</time>
  <course>138.65</course>
  <speed>0.0</speed>
  <fix>3d</fix>
</trkpt>
<trkpt lat="-27.2744391" lon="151.290064">
  <ele>342.84</ele>
  <time>2026-09-01T19:50:20Z</time>
  <course>11.02</course>
  <speed>0.0</speed>
  <fix>3d</fix>
</trkpt>
<trkpt lat="-27.2744391" lon="151.290064">
  <ele>343.1</ele>
  <time>2026-09-01T19:50:20Z</time>
  <course>138.65</course>
  <speed>0.0</speed>
  <fix>3d</fix>
</trkpt>
<trkpt lat="-27.2744391" lon="151.290064">
  <ele>342.75</ele>
  <time>2026-09-01T19:50:20Z</time>
  <course>11.02</course>
  <speed>0.0</speed>
  <fix>3d</fix>
</trkpt>
<trkpt lat="-27.2744391" lon="151.290064">
  <ele>343.1</ele>
  <time>2026-09-01T19:50:20Z</time>
  <course>138.65</course>
  <speed>0.0</speed>
  <fix>3d</fix>
</trkpt>
<trkpt lat="-27.2744391" lon="151.290064">
  <ele>343.03</ele>
  <time>2026-09-01T19:50:20Z</time>
  <course>11.02</course>
  <speed>0.0</speed>
  <fix>3d</fix>
</trkpt>
<trkpt lat="-27.2744391" lon="151.290064">
  <ele>343.1</ele>
  <time>2026-09-01T19:50:20Z</time>
  <course>138.66</course>
  <speed>0.0</speed>
  <fix>3d</fix>
</trkpt>
<trkpt lat="-27.2744391" lon="151.290064">
  <ele>342.8</ele>
  <time>2026-09-01T19:50:20Z</time>
  <course>11.02</course>
  <speed>0.0</speed>
  <fix>3d</fix>
</trkpt>
<trkpt lat="-27.2744391" lon="151.290064">
  <ele>343.1</ele>
  <time>2026-09-01T19:50:20Z</time>
  <course>138.66</course>
  <speed>0.0</speed>
  <fix>3d</fix>
</trkpt>
<trkpt lat="-27.2744391" lon="151.290064">
  <ele>343.05</ele>
  <time>2026-09-01T19:50:20Z</time>
  <course>11.02</course>
  <speed>0.0</speed>
  <fix>3d</fix>
</trkpt>
<trkpt lat="-27.2744391" lon="151.290064">
  <ele>343.1</ele>
  <time>2026-09-01T19:50:20Z</time>
  <course>138.66</course>
  <speed>0.0</speed>
  <fix>3d</fix>
</trkpt>
<trkpt lat="-27.2744391" lon="151.290064">
  <ele>343.03</ele>
  <time>2026-09-01T19:50:20Z</time>
  <course>11.02</course>
  <speed>0.0</speed>
  <fix>3d</fix>
</trkpt>
<trkpt lat="-27.2744391" lon="151.290064">
  <ele>343.1</ele>
  <time>2026-09-01T19:50:20Z</time>
  <course>138.66</course>
  <speed>0.0</speed>
  <fix>3d</fix>
</trkpt>
<trkpt lat="-27.2744391" lon="151.290064">
  <ele>342.88</ele>
  <time>2026-09-01T19:50:20Z</time>
  <course>11.02</course>
  <speed>0.0</speed>
  <fix>3d</fix>
</trkpt>
<trkpt lat="-27.2744391" lon="151.290064">
  <ele>343.1</ele>
  <time>2026-09-01T19:50:20Z</time>
  <course>138.67</course>
  <speed>0.0</speed>
  <fix>3d</fix>
</trkpt>
<trkpt lat="-27.2744391" lon="151.290064">
  <ele>342.83</ele>
  <time>2026-09-01T19:50:20Z</time>
  <course>11.02</course>
  <speed>0.0</speed>
  <fix>3d</fix>
</trkpt>
<trkpt lat="-27.2744391" lon="151.290064">
  <ele>343.1</ele>
  <time>2026-09-01T19:50:20Z</time>
  <course>138.67</course>
  <speed>0.0</speed>
  <fix>3d</fix>
</trkpt>
<trkpt lat="-27.2744391" lon="151.290064">
  <ele>342.87</ele>
  <time>2026-09-01T19:50:20Z</time>
  <course>11.02</course>
  <speed>0.0</speed>
  <fix>3d</fix>
</trkpt>
<trkpt lat="-27.2744391" lon="151.290064">
  <ele>343.1</ele>
  <time>2026-09-01T19:50:20Z</time>
  <course>138.68</course>
  <speed>0.0</speed>
  <fix>3d</fix>
</trkpt>
<trkpt lat="-27.2744391" lon="151.290064">
  <ele>342.78</ele>
  <time>2026-09-01T19:50:20Z</time>
  <course>11.02</course>
  <speed>0.0</speed>
  <fix>3d</fix>
</trkpt>
<trkpt lat="-27.2744391" lon="151.290064">
  <ele>343.1</ele>
  <time>2026-09-01T19:50:20Z</time>
  <course>138.68</course>
  <speed>0.0</speed>
  <fix>3d</fix>
</trkpt>
<trkpt lat="-27.2744391" lon="151.290064">
  <ele>342.8</ele>
  <time>2026-09-01T19:50:20Z</time>
  <course>11.02</course>
  <speed>0.0</speed>
  <fix>3d</fix>
</trkpt>
<trkpt lat="-27.2744391" lon="151.290064">
  <ele>343.1</ele>
  <time>2026-09-01T19:50:20Z</time>
  <course>138.68</course>
  <speed>0.0</speed>
  <fix>3d</fix>
</trkpt>
<trkpt lat="-27.2744391" lon="151.290064">
  <ele>342.9</ele>
  <time>2026-09-01T19:50:20Z</time>
  <course>11.02</course>
  <speed>0.0</speed>
  <fix>3d</fix>
</trkpt>
<trkpt lat="-27.2744391" lon="151.290064">
  <ele>343.1</ele>
  <time>2026-09-01T19:50:20Z</time>
  <course>138.68</course>
  <speed>0.0</speed>
  <fix>3d</fix>
</trkpt>
<trkpt lat="-27.2744391" lon="151.290064">
  <ele>342.82</ele>
  <time>2026-09-01T19:50:20Z</time>
  <course>11.02</course>
  <speed>0.0</speed>
  <fix>3d</fix>
</trkpt>
<trkpt lat="-27.2744391" lon="151.290064">
  <ele>343.1</ele>
  <time>2026-09-01T19:50:20Z</time>
  <course>138.69</course>
  <speed>0.0</speed>
  <fix>3d</fix>
</trkpt>
<trkpt lat="-27.2744391" lon="151.290064">
  <ele>342.8</ele>
  <time>2026-09-01T19:50:20Z</time>
  <course>11.02</course>
  <speed>0.0</speed>
  <fix>3d</fix>
</trkpt>
<trkpt lat="-27.2744391" lon="151.290064">
  <ele>343.1</ele>
  <time>2026-09-01T19:50:20Z</time>
  <course>138.69</course>
  <speed>0.0</speed>
  <fix>3d</fix>
</trkpt>
<trkpt lat="-27.2744391" lon="151.290064">
  <ele>342.8</ele>
  <time>2026-09-01T19:50:20Z</time>
  <course>11.02</course>
  <speed>0.0</speed>
  <fix>3d</fix>
</trkpt>
<trkpt lat="-27.2744391" lon="151.290064">
  <ele>343.1</ele>
  <time>2026-09-01T19:50:20Z</time>
  <course>138.69</course>
  <speed>0.0</speed>
  <fix>3d</fix>
</trkpt>
<trkpt lat="-27.2744391" lon="151.290064">
  <ele>342.83</ele>
  <time>2026-09-01T19:50:20Z</time>
  <course>11.02</course>
  <speed>0.0</speed>
  <fix>3d</fix>
</trkpt>
<trkpt lat="-27.2744391" lon="151.290064">
  <ele>343.1</ele>
  <time>2026-09-01T19:50:20Z</time>
  <course>138.69</course>
  <speed>0.0</speed>
  <fix>3d</fix>
</trkpt>
<trkpt lat="-27.2744391" lon="151.290064">
  <ele>343.04</ele>
  <time>2026-09-01T19:50:20Z</time>
  <course>11.02</course>
  <speed>0.0</speed>
  <fix>3d</fix>
</trkpt>
<trkpt lat="-27.2744391" lon="151.290064">
  <ele>343.1</ele>
  <time>2026-09-01T19:50:20Z</time>
  <course>138.7</course>
  <speed>0.0</speed>
  <fix>3d</fix>
</trkpt>
<trkpt lat="-27.2744391" lon="151.290064">
  <ele>342.99</ele>
  <time>2026-09-01T19:50:20Z</time>
  <course>11.02</course>
  <speed>0.0</speed>
  <fix>3d</fix>
</trkpt>
<trkpt lat="-27.2744391" lon="151.290064">
  <ele>343.1</ele>
  <time>2026-09-01T19:50:20Z</time>
  <course>138.7</course>
  <speed>0.0</speed>
  <fix>3d</fix>
</trkpt>
<trkpt lat="-27.2744391" lon="151.290064">
  <ele>342.99</ele>
  <time>2026-09-01T19:50:20Z</time>
  <course>11.02</course>
  <speed>0.0</speed>
  <fix>3d</fix>
</trkpt>
<trkpt lat="-27.2744391" lon="151.290064">
  <ele>343.1</ele>
  <time>2026-09-01T19:50:20Z</time>
  <course>138.71</course>
  <speed>0.0</speed>
  <fix>3d</fix>
</trkpt>
<trkpt lat="-27.2744391" lon="151.290064">
  <ele>342.95</ele>
  <time>2026-09-01T19:50:20Z</time>
  <course>11.02</course>
  <speed>0.0</speed>
  <fix>3d</fix>
</trkpt>
<trkpt lat="-27.2744391" lon="151.290064">
  <ele>343.1</ele>
  <time>2026-09-01T19:50:20Z</time>
  <course>138.71</course>
  <speed>0.0</speed>
  <fix>3d</fix>
</trkpt>
<trkpt lat="-27.2744391" lon="151.290064">
  <ele>343.0</ele>
  <time>2026-09-01T19:50:20Z</time>
  <course>11.02</course>
  <speed>0.0</speed>
  <fix>3d</fix>
</trkpt>
<trkpt lat="-27.2744391" lon="151.290064">
  <ele>343.1</ele>
  <time>2026-09-01T19:50:20Z</time>
  <course>138.71</course>
  <speed>0.0</speed>
  <fix>3d</fix>
</trkpt>
<trkpt lat="-27.2744391" lon="151.290064">
  <ele>343.01</ele>
  <time>2026-09-01T19:50:20Z</time>
  <course>11.02</course>
  <speed>0.0</speed>
  <fix>3d</fix>
</trkpt>
<trkpt lat="-27.2744391" lon="151.290064">
  <ele>343.1</ele>
  <time>2026-09-01T19:50:20Z</time>
  <course>138.71</course>
  <speed>0.0</speed>
  <fix>3d</fix>
</trkpt>
<trkpt lat="-27.2744391" lon="151.290064">
  <ele>342.8</ele>
  <time>2026-09-01T19:50:20Z</time>
  <course>11.01</course>
  <speed>0.0</speed>
  <fix>3d</fix>
</trkpt>
<trkpt lat="-27.2744391" lon="151.290064">
  <ele>343.1</ele>
  <time>2026-09-01T19:50:20Z</time>
  <course>138.72</course>
  <speed>0.0</speed>
  <fix>3d</fix>
</trkpt>
<trkpt lat="-27.2744391" lon="151.290064">
  <ele>342.93</ele>
  <time>2026-09-01T19:50:20Z</time>
  <course>11.01</course>
  <speed>0.0</speed>
  <fix>3d</fix>
</trkpt>
<trkpt lat="-27.2744391" lon="151.290064">
  <ele>343.1</ele>
  <time>2026-09-01T19:50:20Z</time>
  <course>138.72</course>
  <speed>0.0</speed>
  <fix>3d</fix>
</trkpt>
<trkpt lat="-27.2744391" lon="151.290064">
  <ele>342.7</ele>
  <time>2026-09-01T19:50:20Z</time>
  <course>11.01</course>
  <speed>0.0</speed>
  <fix>3d</fix>
</trkpt>
<trkpt lat="-27.2744391" lon="151.290064">
  <ele>343.1</ele>
  <time>2026-09-01T19:50:20Z</time>
  <course>138.72</course>
  <speed>0.0</speed>
  <fix>3d</fix>
</trkpt>
<trkpt lat="-27.2744391" lon="151.290064">
  <ele>342.98</ele>
  <time>2026-09-01T19:50:20Z</time>
  <course>11.01</course>
  <speed>0.0</speed>
  <fix>3d</fix>
</trkpt>
<trkpt lat="-27.2744391" lon="151.290064">
  <ele>343.1</ele>
  <time>2026-09-01T19:50:20Z</time>
  <course>138.72</course>
  <speed>0.0</speed>
  <fix>3d</fix>
</trkpt>
<trkpt lat="-27.2744391" lon="151.290064">
  <ele>342.89</ele>
  <time>2026-09-01T19:50:20Z</time>
  <course>11.01</course>
  <speed>0.0</speed>
  <fix>3d</fix>
</trkpt>
<trkpt lat="-27.2744391" lon="151.290064">
  <ele>343.1</ele>
  <time>2026-09-01T19:50:20Z</time>
  <course>138.73</course>
  <speed>0.0</speed>
  <fix>3d</fix>
</trkpt>
<trkpt lat="-27.2744391" lon="151.290064">
  <ele>342.96</ele>
  <time>2026-09-01T19:50:20Z</time>
  <course>11.01</course>
  <speed>0.0</speed>
  <fix>3d</fix>
</trkpt>
<trkpt lat="-27.2744391" lon="151.290064">
  <ele>343.1</ele>
  <time>2026-09-01T19:50:20Z</time>
  <course>138.73</course>
  <speed>0.0</speed>
  <fix>3d</fix>
</trkpt>
<trkpt lat="-27.2744391" lon="151.290064">
  <ele>342.7</ele>
  <time>2026-09-01T19:50:20Z</time>
  <course>11.01</course>
  <speed>0.0</speed>
  <fix>3d</fix>
</trkpt>
<trkpt lat="-27.2744391" lon="151.290064">
  <ele>343.1</ele>
  <time>2026-09-01T19:50:20Z</time>
  <course>138.74</course>
  <speed>0.0</speed>
  <fix>3d</fix>
</trkpt>
<trkpt lat="-27.2744391" lon="151.290064">
  <ele>342.96</ele>
  <time>2026-09-01T19:50:20Z</time>
  <course>11.01</course>
  <speed>0.0</speed>
  <fix>3d</fix>
</trkpt>
<trkpt lat="-27.2744391" lon="151.290064">
  <ele>343.1</ele>
  <time>2026-09-01T19:50:20Z</time>
  <course>138.74</course>
  <speed>0.0</speed>
  <fix>3d</fix>
</trkpt>
<trkpt lat="-27.2744391" lon="151.290064">
  <ele>343.0</ele>
  <time>2026-09-01T19:50:20Z</time>
  <course>11.01</course>
  <speed>0.0</speed>
  <fix>3d</fix>
</trkpt>
<trkpt lat="-27.2744391" lon="151.290064">
  <ele>343.1</ele>
  <time>2026-09-01T19:50:21Z</time>
  <course>138.74</course>
  <speed>0.0</speed>
  <fix>3d</fix>
</trkpt>
<trkpt lat="-27.2744391" lon="151.290064">
  <ele>342.98</ele>
  <time>2026-09-01T19:50:21Z</time>
  <course>11.01</course>
  <speed>0.0</speed>
  <fix>3d</fix>
</trkpt>
<trkpt lat="-27.2744391" lon="151.290064">
  <ele>343.1</ele>
  <time>2026-09-01T19:50:21Z</time>
  <course>138.74</course>
  <speed>0.0</speed>
  <fix>3d</fix>
</trkpt>
<trkpt lat="-27.2744391" lon="151.290064">
  <ele>343.08</ele>
  <time>2026-09-01T19:50:21Z</time>
  <course>11.01</course>
  <speed>0.0</speed>
  <fix>3d</fix>
</trkpt>
<trkpt lat="-27.2744391" lon="151.290064">
  <ele>343.1</ele>
  <time>2026-09-01T19:50:21Z</time>
  <course>138.75</course>
  <speed>0.0</speed>
  <fix>3d</fix>
</trkpt>
<trkpt lat="-27.2744391" lon="151.290064">
  <ele>342.82</ele>
  <time>2026-09-01T19:50:21Z</time>
  <course>11.01</course>
  <speed>0.0</speed>
  <fix>3d</fix>
</trkpt>
<trkpt lat="-27.2744391" lon="151.290064">
  <ele>343.1</ele>
  <time>2026-09-01T19:50:21Z</time>
  <course>138.75</course>
  <speed>0.0</speed>
  <fix>3d</fix>
</trkpt>
<trkpt lat="-27.2744391" lon="151.290064">
  <ele>342.78</ele>
  <time>2026-09-01T19:50:21Z</time>
  <course>11.01</course>
  <speed>0.0</speed>
  <fix>3d</fix>
</trkpt>
<trkpt lat="-27.2744391" lon="151.290064">
  <ele>343.1</ele>
  <time>2026-09-01T19:50:21Z</time>
  <course>138.75</course>
  <speed>0.0</speed>
  <fix>3d</fix>
</trkpt>
<trkpt lat="-27.2744391" lon="151.290064">
  <ele>342.98</ele>
  <time>2026-09-01T19:50:21Z</time>
  <course>11.01</course>
  <speed>0.0</speed>
  <fix>3d</fix>
</trkpt>
<trkpt lat="-27.2744391" lon="151.290064">
  <ele>343.1</ele>
  <time>2026-09-01T19:50:21Z</time>
  <course>138.75</course>
  <speed>0.0</speed>
  <fix>3d</fix>
</trkpt>
<trkpt lat="-27.2744391" lon="151.290064">
  <ele>342.9</ele>
  <time>2026-09-01T19:50:21Z</time>
  <course>11.01</course>
  <speed>0.0</speed>
  <fix>3d</fix>
</trkpt>
<trkpt lat="-27.2744391" lon="151.290064">
  <ele>343.1</ele>
  <time>2026-09-01T19:50:21Z</time>
  <course>138.76</course>
  <speed>0.0</speed>
  <fix>3d</fix>
</trkpt>
<trkpt lat="-27.2744391" lon="151.290064">
  <ele>343.0</ele>
  <time>2026-09-01T19:50:21Z</time>
  <course>11.01</course>
  <speed>0.0</speed>
  <fix>3d</fix>
</trkpt>
<trkpt lat="-27.2744391" lon="151.290064">
  <ele>343.1</ele>
  <time>2026-09-01T19:50:21Z</time>
  <course>138.76</course>
  <speed>0.0</speed>
  <fix>3d</fix>
</trkpt>
<trkpt lat="-27.2744391" lon="151.290064">
  <ele>342.9</ele>
  <time>2026-09-01T19:50:21Z</time>
  <course>11.01</course>
  <speed>0.0</speed>
  <fix>3d</fix>
</trkpt>
<trkpt lat="-27.2744391" lon="151.290064">
  <ele>343.1</ele>
  <time>2026-09-01T19:50:21Z</time>
  <course>138.77</course>
  <speed>0.0</speed>
  <fix>3d</fix>
</trkpt>
<trkpt lat="-27.2744391" lon="151.290064">
  <ele>342.91</ele>
  <time>2026-09-01T19:50:21Z</time>
  <course>11.01</course>
  <speed>0.0</speed>
  <fix>3d</fix>
</trkpt>
<trkpt lat="-27.2744391" lon="151.290064">
  <ele>343.1</ele>
  <time>2026-09-01T19:50:21Z</time>
  <course>138.77</course>
  <speed>0.0</speed>
  <fix>3d</fix>
</trkpt>
<trkpt lat="-27.2744391" lon="151.290064">
  <ele>342.83</ele>
  <time>2026-09-01T19:50:21Z</time>
  <course>11.01</course>
  <speed>0.0</speed>
  <fix>3d</fix>
</trkpt>
<trkpt lat="-27.2744391" lon="151.290064">
  <ele>343.1</ele>
  <time>2026-09-01T19:50:21Z</time>
  <course>138.77</course>
  <speed>0.0</speed>
  <fix>3d</fix>
</trkpt>
<trkpt lat="-27.2744391" lon="151.290064">
  <ele>342.74</ele>
  <time>2026-09-01T19:50:21Z</time>
  <course>11.01</course>
  <speed>0.0</speed>
  <fix>3d</fix>
</trkpt>
<trkpt lat="-27.2744391" lon="151.290064">
  <ele>343.1</ele>
  <time>2026-09-01T19:50:21Z</time>
  <course>138.77</course>
  <speed>0.0</speed>
  <fix>3d</fix>
</trkpt>
<trkpt lat="-27.2744391" lon="151.290064">
  <ele>342.89</ele>
  <time>2026-09-01T19:50:21Z</time>
  <course>11.01</course>
  <speed>0.0</speed>
  <fix>3d</fix>
</trkpt>
<trkpt lat="-27.2744391" lon="151.290064">
  <ele>343.1</ele>
  <time>2026-09-01T19:50:21Z</time>
  <course>138.78</course>
  <speed>0.0</speed>
  <fix>3d</fix>
</trkpt>
<trkpt lat="-27.2744391" lon="151.290064">
  <ele>342.87</ele>
  <time>2026-09-01T19:50:21Z</time>
  <course>11.01</course>
  <speed>0.0</speed>
  <fix>3d</fix>
</trkpt>
<trkpt lat="-27.2744391" lon="151.290064">
  <ele>343.1</ele>
  <time>2026-09-01T19:50:21Z</time>
  <course>138.78</course>
  <speed>0.0</speed>
  <fix>3d</fix>
</trkpt>
<trkpt lat="-27.2744391" lon="151.290064">
  <ele>342.92</ele>
  <time>2026-09-01T19:50:21Z</time>
  <course>11.01</course>
  <speed>0.0</speed>
  <fix>3d</fix>
</trkpt>
<trkpt lat="-27.2744391" lon="151.290064">
  <ele>343.1</ele>
  <time>2026-09-01T19:50:21Z</time>
  <course>138.78</course>
  <speed>0.0</speed>
  <fix>3d</fix>
</trkpt>
<trkpt lat="-27.2744391" lon="151.290064">
  <ele>343.01</ele>
  <time>2026-09-01T19:50:21Z</time>
  <course>11.01</course>
  <speed>0.0</speed>
  <fix>3d</fix>
</trkpt>
<trkpt lat="-27.2744391" lon="151.290064">
  <ele>343.1</ele>
  <time>2026-09-01T19:50:21Z</time>
  <course>138.78</course>
  <speed>0.0</speed>
  <fix>3d</fix>
</trkpt>
<trkpt lat="-27.2744391" lon="151.290064">
  <ele>342.9</ele>
  <time>2026-09-01T19:50:21Z</time>
  <course>11.0</course>
  <speed>0.0</speed>
  <fix>3d</fix>
</trkpt>
<trkpt lat="-27.2744391" lon="151.290064">
  <ele>343.1</ele>
  <time>2026-09-01T19:50:21Z</time>
  <course>138.79</course>
  <speed>0.0</speed>
  <fix>3d</fix>
</trkpt>
<trkpt lat="-27.2744391" lon="151.290064">
  <ele>342.71</ele>
  <time>2026-09-01T19:50:21Z</time>
  <course>11.0</course>
  <speed>0.0</speed>
  <fix>3d</fix>
</trkpt>
<trkpt lat="-27.2744391" lon="151.290064">
  <ele>343.1</ele>
  <time>2026-09-01T19:50:21Z</time>
  <course>138.79</course>
  <speed>0.0</speed>
  <fix>3d</fix>
</trkpt>
<trkpt lat="-27.2744391" lon="151.290064">
  <ele>343.05</ele>
  <time>2026-09-01T19:50:21Z</time>
  <course>11.0</course>
  <speed>0.0</speed>
  <fix>3d</fix>
</trkpt>
<trkpt lat="-27.2744391" lon="151.290064">
  <ele>343.1</ele>
  <time>2026-09-01T19:50:21Z</time>
  <course>138.8</course>
  <speed>0.0</speed>
  <fix>3d</fix>
</trkpt>
<trkpt lat="-27.2744391" lon="151.290064">
  <ele>343.0</ele>
  <time>2026-09-01T19:50:21Z</time>
  <course>10.99</course>
  <speed>0.0</speed>
  <fix>3d</fix>
</trkpt>
<trkpt lat="-27.2744391" lon="151.290064">
  <ele>343.1</ele>
  <time>2026-09-01T19:50:21Z</time>
  <course>138.8</course>
  <speed>0.0</speed>
  <fix>3d</fix>
</trkpt>
<trkpt lat="-27.2744391" lon="151.290064">
  <ele>342.8</ele>
  <time>2026-09-01T19:50:21Z</time>
  <course>10.99</course>
  <speed>0.0</speed>
  <fix>3d</fix>
</trkpt>
<trkpt lat="-27.2744391" lon="151.290064">
  <ele>343.1</ele>
  <time>2026-09-01T19:50:21Z</time>
  <course>138.8</course>
  <speed>0.0</speed>
  <fix>3d</fix>
</trkpt>
<trkpt lat="-27.2744391" lon="151.290064">
  <ele>342.85</ele>
  <time>2026-09-01T19:50:21Z</time>
  <course>10.99</course>
  <speed>0.0</speed>
  <fix>3d</fix>
</trkpt>
<trkpt lat="-27.2744391" lon="151.290064">
  <ele>343.1</ele>
  <time>2026-09-01T19:50:21Z</time>
  <course>138.8</course>
  <speed>0.0</speed>
  <fix>3d</fix>
</trkpt>
<trkpt lat="-27.2744391" lon="151.290064">
  <ele>342.96</ele>
  <time>2026-09-01T19:50:21Z</time>
  <course>10.98</course>
  <speed>0.0</speed>
  <fix>3d</fix>
</trkpt>
<trkpt lat="-27.2744391" lon="151.290064">
  <ele>343.1</ele>
  <time>2026-09-01T19:50:21Z</time>
  <course>138.81</course>
  <speed>0.0</speed>
  <fix>3d</fix>
</trkpt>
<trkpt lat="-27.2744391" lon="151.290064">
  <ele>342.82</ele>
  <time>2026-09-01T19:50:21Z</time>
  <course>10.98</course>
  <speed>0.0</speed>
  <fix>3d</fix>
</trkpt>
<trkpt lat="-27.2744391" lon="151.290064">
  <ele>343.1</ele>
  <time>2026-09-01T19:50:21Z</time>
  <course>138.81</course>
  <speed>0.0</speed>
  <fix>3d</fix>
</trkpt>
<trkpt lat="-27.2744391" lon="151.290064">
  <ele>342.75</ele>
  <time>2026-09-01T19:50:21Z</time>
  <course>10.98</course>
  <speed>0.0</speed>
  <fix>3d</fix>
</trkpt>
<trkpt lat="-27.2744391" lon="151.290064">
  <ele>343.1</ele>
  <time>2026-09-01T19:50:21Z</time>
  <course>138.82</course>
  <speed>0.0</speed>
  <fix>3d</fix>
</trkpt>
<trkpt lat="-27.2744391" lon="151.290064">
  <ele>343.08</ele>
  <time>2026-09-01T19:50:21Z</time>
  <course>10.97</course>
  <speed>0.0</speed>
  <fix>3d</fix>
</trkpt>
<trkpt lat="-27.2744391" lon="151.290064">
  <ele>343.1</ele>
  <time>2026-09-01T19:50:21Z</time>
  <course>138.82</course>
  <speed>0.0</speed>
  <fix>3d</fix>
</trkpt>
<trkpt lat="-27.2744391" lon="151.290064">
  <ele>343.03</ele>
  <time>2026-09-01T19:50:21Z</time>
  <course>10.97</course>
  <speed>0.0</speed>
  <fix>3d</fix>
</trkpt>
<trkpt lat="-27.2744391" lon="151.290064">
  <ele>343.1</ele>
  <time>2026-09-01T19:50:21Z</time>
  <course>138.82</course>
  <speed>0.0</speed>
  <fix>3d</fix>
</trkpt>
<trkpt lat="-27.2744391" lon="151.290064">
  <ele>342.94</ele>
  <time>2026-09-01T19:50:21Z</time>
  <course>10.97</course>
  <speed>0.0</speed>
  <fix>3d</fix>
</trkpt>
<trkpt lat="-27.2744391" lon="151.290064">
  <ele>343.1</ele>
  <time>2026-09-01T19:50:21Z</time>
  <course>138.82</course>
  <speed>0.0</speed>
  <fix>3d</fix>
</trkpt>
<trkpt lat="-27.2744391" lon="151.290064">
  <ele>342.93</ele>
  <time>2026-09-01T19:50:21Z</time>
  <course>10.96</course>
  <speed>0.0</speed>
  <fix>3d</fix>
</trkpt>
<trkpt lat="-27.2744391" lon="151.290064">
  <ele>343.1</ele>
  <time>2026-09-01T19:50:21Z</time>
  <course>138.83</course>
  <speed>0.0</speed>
  <fix>3d</fix>
</trkpt>
<trkpt lat="-27.2744391" lon="151.290064">
  <ele>343.08</ele>
  <time>2026-09-01T19:50:21Z</time>
  <course>10.96</course>
  <speed>0.0</speed>
  <fix>3d</fix>
</trkpt>
<trkpt lat="-27.2744391" lon="151.290064">
  <ele>343.1</ele>
  <time>2026-09-01T19:50:21Z</time>
  <course>138.83</course>
  <speed>0.0</speed>
  <fix>3d</fix>
</trkpt>
<trkpt lat="-27.2744391" lon="151.290064">
  <ele>342.85</ele>
  <time>2026-09-01T19:50:21Z</time>
  <course>10.96</course>
  <speed>0.0</speed>
  <fix>3d</fix>
</trkpt>
<trkpt lat="-27.2744391" lon="151.290064">
  <ele>343.1</ele>
  <time>2026-09-01T19:50:21Z</time>
  <course>138.83</course>
  <speed>0.0</speed>
  <fix>3d</fix>
</trkpt>
<trkpt lat="-27.2744391" lon="151.290064">
  <ele>342.86</ele>
  <time>2026-09-01T19:50:21Z</time>
  <course>10.95</course>
  <speed>0.0</speed>
  <fix>3d</fix>
</trkpt>
<trkpt lat="-27.2744391" lon="151.290064">
  <ele>343.1</ele>
  <time>2026-09-01T19:50:21Z</time>
  <course>138.83</course>
  <speed>0.0</speed>
  <fix>3d</fix>
</trkpt>
<trkpt lat="-27.2744391" lon="151.290064">
  <ele>342.83</ele>
  <time>2026-09-01T19:50:21Z</time>
  <course>10.95</course>
  <speed>0.0</speed>
  <fix>3d</fix>
</trkpt>
<trkpt lat="-27.2744391" lon="151.290064">
  <ele>343.1</ele>
  <time>2026-09-01T19:50:21Z</time>
  <course>138.84</course>
  <speed>0.0</speed>
  <fix>3d</fix>
</trkpt>
<trkpt lat="-27.2744391" lon="151.290064">
  <ele>343.14</ele>
  <time>2026-09-01T19:50:21Z</time>
  <course>10.95</course>
  <speed>0.0</speed>
  <fix>3d</fix>
</trkpt>
<trkpt lat="-27.2744391" lon="151.290064">
  <ele>343.1</ele>
  <time>2026-09-01T19:50:21Z</time>
  <course>138.84</course>
  <speed>0.0</speed>
  <fix>3d</fix>
</trkpt>
<trkpt lat="-27.2744391" lon="151.290064">
  <ele>343.03</ele>
  <time>2026-09-01T19:50:21Z</time>
  <course>10.94</course>
  <speed>0.0</speed>
  <fix>3d</fix>
</trkpt>
<trkpt lat="-27.2744391" lon="151.290064">
  <ele>343.1</ele>
  <time>2026-09-01T19:50:21Z</time>
  <course>138.84</course>
  <speed>0.0</speed>
  <fix>3d</fix>
</trkpt>
<trkpt lat="-27.2744391" lon="151.290064">
  <ele>342.82</ele>
  <time>2026-09-01T19:50:21Z</time>
  <course>10.94</course>
  <speed>0.0</speed>
  <fix>3d</fix>
</trkpt>
<trkpt lat="-27.2744391" lon="151.290064">
  <ele>343.1</ele>
  <time>2026-09-01T19:50:21Z</time>
  <course>138.84</course>
  <speed>0.0</speed>
  <fix>3d</fix>
</trkpt>
<trkpt lat="-27.2744391" lon="151.290064">
  <ele>342.93</ele>
  <time>2026-09-01T19:50:21Z</time>
  <course>10.94</course>
  <speed>0.0</speed>
  <fix>3d</fix>
</trkpt>
<trkpt lat="-27.2744391" lon="151.290064">
  <ele>343.1</ele>
  <time>2026-09-01T19:50:21Z</time>
  <course>138.85</course>
  <speed>0.0</speed>
  <fix>3d</fix>
</trkpt>
<trkpt lat="-27.2744391" lon="151.290064">
  <ele>342.82</ele>
  <time>2026-09-01T19:50:21Z</time>
  <course>10.94</course>
  <speed>0.0</speed>
  <fix>3d</fix>
</trkpt>
<trkpt lat="-27.2744391" lon="151.290064">
  <ele>343.1</ele>
  <time>2026-09-01T19:50:21Z</time>
  <course>138.85</course>
  <speed>0.0</speed>
  <fix>3d</fix>
</trkpt>
<trkpt lat="-27.2744391" lon="151.290064">
  <ele>342.83</ele>
  <time>2026-09-01T19:50:21Z</time>
  <course>10.93</course>
  <speed>0.0</speed>
  <fix>3d</fix>
</trkpt>
<trkpt lat="-27.2744391" lon="151.290064">
  <ele>343.1</ele>
  <time>2026-09-01T19:50:21Z</time>
  <course>138.86</course>
  <speed>0.0</speed>
  <fix>3d</fix>
</trkpt>
<trkpt lat="-27.2744391" lon="151.290064">
  <ele>342.9</ele>
  <time>2026-09-01T19:50:21Z</time>
  <course>10.93</course>
  <speed>0.0</speed>
  <fix>3d</fix>
</trkpt>
<trkpt lat="-27.2744391" lon="151.290064">
  <ele>343.1</ele>
  <time>2026-09-01T19:50:21Z</time>
  <course>138.86</course>
  <speed>0.0</speed>
  <fix>3d</fix>
</trkpt>
<trkpt lat="-27.2744391" lon="151.290064">
  <ele>342.83</ele>
  <time>2026-09-01T19:50:21Z</time>
  <course>10.93</course>
  <speed>0.0</speed>
  <fix>3d</fix>
</trkpt>
<trkpt lat="-27.2744391" lon="151.290064">
  <ele>343.1</ele>
  <time>2026-09-01T19:50:21Z</time>
  <course>138.86</course>
  <speed>0.0</speed>
  <fix>3d</fix>
</trkpt>
<trkpt lat="-27.2744391" lon="151.290064">
  <ele>343.04</ele>
  <time>2026-09-01T19:50:21Z</time>
  <course>10.92</course>
  <speed>0.0</speed>
  <fix>3d</fix>
</trkpt>
<trkpt lat="-27.2744391" lon="151.290064">
  <ele>343.1</ele>
  <time>2026-09-01T19:50:21Z</time>
  <course>138.86</course>
  <speed>0.0</speed>
  <fix>3d</fix>
</trkpt>
<trkpt lat="-27.2744391" lon="151.290064">
  <ele>342.98</ele>
  <time>2026-09-01T19:50:21Z</time>
  <course>10.92</course>
  <speed>0.0</speed>
  <fix>3d</fix>
</trkpt>
<trkpt lat="-27.2744391" lon="151.290064">
  <ele>343.1</ele>
  <time>2026-09-01T19:50:21Z</time>
  <course>138.87</course>
  <speed>0.0</speed>
  <fix>3d</fix>
</trkpt>
<trkpt lat="-27.2744391" lon="151.290064">
  <ele>342.99</ele>
  <time>2026-09-01T19:50:21Z</time>
  <course>10.92</course>
  <speed>0.0</speed>
  <fix>3d</fix>
</trkpt>
<trkpt lat="-27.2744391" lon="151.290064">
  <ele>343.1</ele>
  <time>2026-09-01T19:50:21Z</time>
  <course>138.87</course>
  <speed>0.0</speed>
  <fix>3d</fix>
</trkpt>
<trkpt lat="-27.2744391" lon="151.290064">
  <ele>342.98</ele>
  <time>2026-09-01T19:50:21Z</time>
  <course>10.92</course>
  <speed>0.0</speed>
  <fix>3d</fix>
</trkpt>
<trkpt lat="-27.2744391" lon="151.290064">
  <ele>343.1</ele>
  <time>2026-09-01T19:50:21Z</time>
  <course>138.88</course>
  <speed>0.0</speed>
  <fix>3d</fix>
</trkpt>
<trkpt lat="-27.2744391" lon="151.290064">
  <ele>342.9</ele>
  <time>2026-09-01T19:50:21Z</time>
  <course>10.91</course>
  <speed>0.0</speed>
  <fix>3d</fix>
</trkpt>
<trkpt lat="-27.2744391" lon="151.290064">
  <ele>343.1</ele>
  <time>2026-09-01T19:50:21Z</time>
  <course>138.88</course>
  <speed>0.0</speed>
  <fix>3d</fix>
</trkpt>
<trkpt lat="-27.2744391" lon="151.290064">
  <ele>343.03</ele>
  <time>2026-09-01T19:50:21Z</time>
  <course>10.91</course>
  <speed>0.0</speed>
  <fix>3d</fix>
</trkpt>
<trkpt lat="-27.2744391" lon="151.290064">
  <ele>343.1</ele>
  <time>2026-09-01T19:50:21Z</time>
  <course>138.88</course>
  <speed>0.0</speed>
  <fix>3d</fix>
</trkpt>
<trkpt lat="-27.2744391" lon="151.290064">
  <ele>343.11</ele>
  <time>2026-09-01T19:50:21Z</time>
  <course>10.91</course>
  <speed>0.0</speed>
  <fix>3d</fix>
</trkpt>
<trkpt lat="-27.2744391" lon="151.290064">
  <ele>343.1</ele>
  <time>2026-09-01T19:50:21Z</time>
  <course>138.88</course>
  <speed>0.0</speed>
  <fix>3d</fix>
</trkpt>
<trkpt lat="-27.2744391" lon="151.290064">
  <ele>342.98</ele>
  <time>2026-09-01T19:50:21Z</time>
  <course>10.91</course>
  <speed>0.0</speed>
  <fix>3d</fix>
</trkpt>
<trkpt lat="-27.2744391" lon="151.290064">
  <ele>343.1</ele>
  <time>2026-09-01T19:50:21Z</time>
  <course>138.89</course>
  <speed>0.0</speed>
  <fix>3d</fix>
</trkpt>
<trkpt lat="-27.2744391" lon="151.290064">
  <ele>343.06</ele>
  <time>2026-09-01T19:50:21Z</time>
  <course>10.9</course>
  <speed>0.0</speed>
  <fix>3d</fix>
</trkpt>
<trkpt lat="-27.2744391" lon="151.290064">
  <ele>343.1</ele>
  <time>2026-09-01T19:50:21Z</time>
  <course>138.89</course>
  <speed>0.0</speed>
  <fix>3d</fix>
</trkpt>
<trkpt lat="-27.2744391" lon="151.290064">
  <ele>342.9</ele>
  <time>2026-09-01T19:50:21Z</time>
  <course>10.9</course>
  <speed>0.0</speed>
  <fix>3d</fix>
</trkpt>
<trkpt lat="-27.2744391" lon="151.290064">
  <ele>343.1</ele>
  <time>2026-09-01T19:50:21Z</time>
  <course>138.89</course>
  <speed>0.0</speed>
  <fix>3d</fix>
</trkpt>
<trkpt lat="-27.2744391" lon="151.290064">
  <ele>342.79</ele>
  <time>2026-09-01T19:50:21Z</time>
  <course>10.9</course>
  <speed>0.0</speed>
  <fix>3d</fix>
</trkpt>
<trkpt lat="-27.2744391" lon="151.290064">
  <ele>343.1</ele>
  <time>2026-09-01T19:50:21Z</time>
  <course>138.89</course>
  <speed>0.0</speed>
  <fix>3d</fix>
</trkpt>
<trkpt lat="-27.2744391" lon="151.290064">
  <ele>343.08</ele>
  <time>2026-09-01T19:50:21Z</time>
  <course>10.9</course>
  <speed>0.0</speed>
  <fix>3d</fix>
</trkpt>
<trkpt lat="-27.2744391" lon="151.290064">
  <ele>343.1</ele>
  <time>2026-09-01T19:50:21Z</time>
  <course>138.9</course>
  <speed>0.0</speed>
  <fix>3d</fix>
</trkpt>
<trkpt lat="-27.2744391" lon="151.290064">
  <ele>342.99</ele>
  <time>2026-09-01T19:50:21Z</time>
  <course>10.89</course>
  <speed>0.0</speed>
  <fix>3d</fix>
</trkpt>
<trkpt lat="-27.2744391" lon="151.290064">
  <ele>343.1</ele>
  <time>2026-09-01T19:50:21Z</time>
  <course>138.9</course>
  <speed>0.0</speed>
  <fix>3d</fix>
</trkpt>
<trkpt lat="-27.2744391" lon="151.290064">
  <ele>342.95</ele>
  <time>2026-09-01T19:50:21Z</time>
  <course>10.89</course>
  <speed>0.0</speed>
  <fix>3d</fix>
</trkpt>
<trkpt lat="-27.2744391" lon="151.290064">
  <ele>343.1</ele>
  <time>2026-09-01T19:50:21Z</time>
  <course>138.91</course>
  <speed>0.0</speed>
  <fix>3d</fix>
</trkpt>
<trkpt lat="-27.2744391" lon="151.290064">
  <ele>342.8</ele>
  <time>2026-09-01T19:50:21Z</time>
  <course>10.89</course>
  <speed>0.0</speed>
  <fix>3d</fix>
</trkpt>
<trkpt lat="-27.2744391" lon="151.290064">
  <ele>343.1</ele>
  <time>2026-09-01T19:50:21Z</time>
  <course>138.91</course>
  <speed>0.0</speed>
  <fix>3d</fix>
</trkpt>
<trkpt lat="-27.2744391" lon="151.290064">
  <ele>343.01</ele>
  <time>2026-09-01T19:50:21Z</time>
  <course>10.89</course>
  <speed>0.0</speed>
  <fix>3d</fix>
</trkpt>
<trkpt lat="-27.2744391" lon="151.290064">
  <ele>343.1</ele>
  <time>2026-09-01T19:50:21Z</time>
  <course>138.91</course>
  <speed>0.0</speed>
  <fix>3d</fix>
</trkpt>
<trkpt lat="-27.2744391" lon="151.290064">
  <ele>342.78</ele>
  <time>2026-09-01T19:50:21Z</time>
  <course>10.88</course>
  <speed>0.0</speed>
  <fix>3d</fix>
</trkpt>
<trkpt lat="-27.2744391" lon="151.290064">
  <ele>343.1</ele>
  <time>2026-09-01T19:50:21Z</time>
  <course>138.91</course>
  <speed>0.0</speed>
  <fix>3d</fix>
</trkpt>
<trkpt lat="-27.2744391" lon="151.290064">
  <ele>342.81</ele>
  <time>2026-09-01T19:50:21Z</time>
  <course>10.88</course>
  <speed>0.0</speed>
  <fix>3d</fix>
</trkpt>
<trkpt lat="-27.2744391" lon="151.290064">
  <ele>343.1</ele>
  <time>2026-09-01T19:50:21Z</time>
  <course>138.92</course>
  <speed>0.0</speed>
  <fix>3d</fix>
</trkpt>
<trkpt lat="-27.2744391" lon="151.290064">
  <ele>342.85</ele>
  <time>2026-09-01T19:50:21Z</time>
  <course>10.88</course>
  <speed>0.0</speed>
  <fix>3d</fix>
</trkpt>
<trkpt lat="-27.2744391" lon="151.290064">
  <ele>343.1</ele>
  <time>2026-09-01T19:50:21Z</time>
  <course>138.92</course>
  <speed>0.0</speed>
  <fix>3d</fix>
</trkpt>
<trkpt lat="-27.2744391" lon="151.290064">
  <ele>342.78</ele>
  <time>2026-09-01T19:50:21Z</time>
  <course>10.88</course>
  <speed>0.0</speed>
  <fix>3d</fix>
</trkpt>
<trkpt lat="-27.2744391" lon="151.290064">
  <ele>343.1</ele>
  <time>2026-09-01T19:50:21Z</time>
  <course>138.92</course>
  <speed>0.0</speed>
  <fix>3d</fix>
</trkpt>
<trkpt lat="-27.2744391" lon="151.290064">
  <ele>342.79</ele>
  <time>2026-09-01T19:50:21Z</time>
  <course>10.87</course>
  <speed>0.0</speed>
  <fix>3d</fix>
</trkpt>
<trkpt lat="-27.2744391" lon="151.290064">
  <ele>343.1</ele>
  <time>2026-09-01T19:50:21Z</time>
  <course>138.92</course>
  <speed>0.0</speed>
  <fix>3d</fix>
</trkpt>
<trkpt lat="-27.2744391" lon="151.290064">
  <ele>342.9</ele>
  <time>2026-09-01T19:50:21Z</time>
  <course>10.87</course>
  <speed>0.0</speed>
  <fix>3d</fix>
</trkpt>
<trkpt lat="-27.2744391" lon="151.290064">
  <ele>343.1</ele>
  <time>2026-09-01T19:50:21Z</time>
  <course>138.93</course>
  <speed>0.0</speed>
  <fix>3d</fix>
</trkpt>
<trkpt lat="-27.2744391" lon="151.290064">
  <ele>342.98</ele>
  <time>2026-09-01T19:50:21Z</time>
  <course>10.87</course>
  <speed>0.0</speed>
  <fix>3d</fix>
</trkpt>
<trkpt lat="-27.2744391" lon="151.290064">
  <ele>343.1</ele>
  <time>2026-09-01T19:50:21Z</time>
  <course>138.93</course>
  <speed>0.0</speed>
  <fix>3d</fix>
</trkpt>
<trkpt lat="-27.2744391" lon="151.290064">
  <ele>342.77</ele>
  <time>2026-09-01T19:50:21Z</time>
  <course>10.87</course>
  <speed>0.0</speed>
  <fix>3d</fix>
</trkpt>
<trkpt lat="-27.2744391" lon="151.290064">
  <ele>343.1</ele>
  <time>2026-09-01T19:50:21Z</time>
  <course>138.94</course>
  <speed>0.0</speed>
  <fix>3d</fix>
</trkpt>
<trkpt lat="-27.2744391" lon="151.290064">
  <ele>342.95</ele>
  <time>2026-09-01T19:50:21Z</time>
  <course>10.86</course>
  <speed>0.0</speed>
  <fix>3d</fix>
</trkpt>
<trkpt lat="-27.2744391" lon="151.290064">
  <ele>343.1</ele>
  <time>2026-09-01T19:50:21Z</time>
  <course>138.94</course>
  <speed>0.0</speed>
  <fix>3d</fix>
</trkpt>
<trkpt lat="-27.2744391" lon="151.290064">
  <ele>343.04</ele>
  <time>2026-09-01T19:50:21Z</time>
  <course>10.86</course>
  <speed>0.0</speed>
  <fix>3d</fix>
</trkpt>
<trkpt lat="-27.2744391" lon="151.290064">
  <ele>343.1</ele>
  <time>2026-09-01T19:50:21Z</time>
  <course>138.94</course>
  <speed>0.0</speed>
  <fix>3d</fix>
</trkpt>
<trkpt lat="-27.2744391" lon="151.290064">
  <ele>342.83</ele>
  <time>2026-09-01T19:50:21Z</time>
  <course>10.86</course>
  <speed>0.0</speed>
  <fix>3d</fix>
</trkpt>
<trkpt lat="-27.2744391" lon="151.290064">
  <ele>343.1</ele>
  <time>2026-09-01T19:50:21Z</time>
  <course>138.94</course>
  <speed>0.0</speed>
  <fix>3d</fix>
</trkpt>
<trkpt lat="-27.2744391" lon="151.290064">
  <ele>342.87</ele>
  <time>2026-09-01T19:50:21Z</time>
  <course>10.85</course>
  <speed>0.0</speed>
  <fix>3d</fix>
</trkpt>
<trkpt lat="-27.2744391" lon="151.290064">
  <ele>343.1</ele>
  <time>2026-09-01T19:50:21Z</time>
  <course>138.95</course>
  <speed>0.0</speed>
  <fix>3d</fix>
</trkpt>
<trkpt lat="-27.2744391" lon="151.290064">
  <ele>342.76</ele>
  <time>2026-09-01T19:50:21Z</time>
  <course>10.85</course>
  <speed>0.0</speed>
  <fix>3d</fix>
</trkpt>
<trkpt lat="-27.2744391" lon="151.290064">
  <ele>343.1</ele>
  <time>2026-09-01T19:50:21Z</time>
  <course>138.95</course>
  <speed>0.0</speed>
  <fix>3d</fix>
</trkpt>
<trkpt lat="-27.2744391" lon="151.290064">
  <ele>343.01</ele>
  <time>2026-09-01T19:50:21Z</time>
  <course>10.84</course>
  <speed>0.0</speed>
  <fix>3d</fix>
</trkpt>
<trkpt lat="-27.2744391" lon="151.290064">
  <ele>343.1</ele>
  <time>2026-09-01T19:50:21Z</time>
  <course>138.96</course>
  <speed>0.0</speed>
  <fix>3d</fix>
</trkpt>
<trkpt lat="-27.2744391" lon="151.290064">
  <ele>343.08</ele>
  <time>2026-09-01T19:50:21Z</time>
  <course>10.84</course>
  <speed>0.0</speed>
  <fix>3d</fix>
</trkpt>
<trkpt lat="-27.2744391" lon="151.290064">
  <ele>343.1</ele>
  <time>2026-09-01T19:50:21Z</time>
  <course>138.96</course>
  <speed>0.0</speed>
  <fix>3d</fix>
</trkpt>
<trkpt lat="-27.2744391" lon="151.290064">
  <ele>342.82</ele>
  <time>2026-09-01T19:50:21Z</time>
  <course>10.83</course>
  <speed>0.0</speed>
  <fix>3d</fix>
</trkpt>
<trkpt lat="-27.2744391" lon="151.290064">
  <ele>343.1</ele>
  <time>2026-09-01T19:50:21Z</time>
  <course>138.96</course>
  <speed>0.0</speed>
  <fix>3d</fix>
</trkpt>
<trkpt lat="-27.2744391" lon="151.290064">
  <ele>343.12</ele>
  <time>2026-09-01T19:50:21Z</time>
  <course>10.83</course>
  <speed>0.0</speed>
  <fix>3d</fix>
</trkpt>
<trkpt lat="-27.2744391" lon="151.290064">
  <ele>343.1</ele>
  <time>2026-09-01T19:50:21Z</time>
  <course>138.96</course>
  <speed>0.0</speed>
  <fix>3d</fix>
</trkpt>
<trkpt lat="-27.2744391" lon="151.290064">
  <ele>342.85</ele>
  <time>2026-09-01T19:50:21Z</time>
  <course>10.82</course>
  <speed>0.0</speed>
  <fix>3d</fix>
</trkpt>
<trkpt lat="-27.2744391" lon="151.290064">
  <ele>343.1</ele>
  <time>2026-09-01T19:50:21Z</time>
  <course>138.97</course>
  <speed>0.0</speed>
  <fix>3d</fix>
</trkpt>
<trkpt lat="-27.2744391" lon="151.290064">
  <ele>343.01</ele>
  <time>2026-09-01T19:50:21Z</time>
  <course>10.82</course>
  <speed>0.0</speed>
  <fix>3d</fix>
</trkpt>
<trkpt lat="-27.2744391" lon="151.290064">
  <ele>343.1</ele>
  <time>2026-09-01T19:50:21Z</time>
  <course>138.97</course>
  <speed>0.0</speed>
  <fix>3d</fix>
</trkpt>
<trkpt lat="-27.2744391" lon="151.290064">
  <ele>343.01</ele>
  <time>2026-09-01T19:50:21Z</time>
  <course>10.81</course>
  <speed>0.0</speed>
  <fix>3d</fix>
</trkpt>
<trkpt lat="-27.2744391" lon="151.290064">
  <ele>343.1</ele>
  <time>2026-09-01T19:50:21Z</time>
  <course>138.98</course>
  <speed>0.0</speed>
  <fix>3d</fix>
</trkpt>
<trkpt lat="-27.2744391" lon="151.290064">
  <ele>342.82</ele>
  <time>2026-09-01T19:50:21Z</time>
  <course>10.81</course>
  <speed>0.0</speed>
  <fix>3d</fix>
</trkpt>
<trkpt lat="-27.2744391" lon="151.290064">
  <ele>343.1</ele>
  <time>2026-09-01T19:50:21Z</time>
  <course>138.98</course>
  <speed>0.0</speed>
  <fix>3d</fix>
</trkpt>
<trkpt lat="-27.2744391" lon="151.290064">
  <ele>343.05</ele>
  <time>2026-09-01T19:50:21Z</time>
  <course>10.8</course>
  <speed>0.0</speed>
  <fix>3d</fix>
</trkpt>
<trkpt lat="-27.2744391" lon="151.290064">
  <ele>343.1</ele>
  <time>2026-09-01T19:50:21Z</time>
  <course>138.98</course>
  <speed>0.0</speed>
  <fix>3d</fix>
</trkpt>
<trkpt lat="-27.2744391" lon="151.290064">
  <ele>342.9</ele>
  <time>2026-09-01T19:50:21Z</time>
  <course>10.8</course>
  <speed>0.0</speed>
  <fix>3d</fix>
</trkpt>
<trkpt lat="-27.2744391" lon="151.290064">
  <ele>343.1</ele>
  <time>2026-09-01T19:50:21Z</time>
  <course>138.98</course>
  <speed>0.0</speed>
  <fix>3d</fix>
</trkpt>
<trkpt lat="-27.2744391" lon="151.290064">
  <ele>342.98</ele>
  <time>2026-09-01T19:50:21Z</time>
  <course>10.79</course>
  <speed>0.0</speed>
  <fix>3d</fix>
</trkpt>
<trkpt lat="-27.2744391" lon="151.290064">
  <ele>343.1</ele>
  <time>2026-09-01T19:50:21Z</time>
  <course>138.99</course>
  <speed>0.0</speed>
  <fix>3d</fix>
</trkpt>
<trkpt lat="-27.2744391" lon="151.290064">
  <ele>342.84</ele>
  <time>2026-09-01T19:50:21Z</time>
  <course>10.79</course>
  <speed>0.0</speed>
  <fix>3d</fix>
</trkpt>
<trkpt lat="-27.2744391" lon="151.290064">
  <ele>343.1</ele>
  <time>2026-09-01T19:50:21Z</time>
  <course>138.99</course>
  <speed>0.0</speed>
  <fix>3d</fix>
</trkpt>
<trkpt lat="-27.2744391" lon="151.290064">
  <ele>343.0</ele>
  <time>2026-09-01T19:50:21Z</time>
  <course>10.78</course>
  <speed>0.0</speed>
  <fix>3d</fix>
</trkpt>
<trkpt lat="-27.2744391" lon="151.290064">
  <ele>343.1</ele>
  <time>2026-09-01T19:50:21Z</time>
  <course>138.99</course>
  <speed>0.0</speed>
  <fix>3d</fix>
</trkpt>
<trkpt lat="-27.2744391" lon="151.290064">
  <ele>343.0</ele>
  <time>2026-09-01T19:50:21Z</time>
  <course>10.78</course>
  <speed>0.0</speed>
  <fix>3d</fix>
</trkpt>
<trkpt lat="-27.2744391" lon="151.290064">
  <ele>343.1</ele>
  <time>2026-09-01T19:50:21Z</time>
  <course>138.99</course>
  <speed>0.0</speed>
  <fix>3d</fix>
</trkpt>
<trkpt lat="-27.2744391" lon="151.290064">
  <ele>342.78</ele>
  <time>2026-09-01T19:50:21Z</time>
  <course>10.78</course>
  <speed>0.0</speed>
  <fix>3d</fix>
</trkpt>
<trkpt lat="-27.2744391" lon="151.290064">
  <ele>343.1</ele>
  <time>2026-09-01T19:50:21Z</time>
  <course>139.0</course>
  <speed>0.0</speed>
  <fix>3d</fix>
</trkpt>
<trkpt lat="-27.2744391" lon="151.290064">
  <ele>343.06</ele>
  <time>2026-09-01T19:50:21Z</time>
  <course>10.77</course>
  <speed>0.0</speed>
  <fix>3d</fix>
</trkpt>
<trkpt lat="-27.2744391" lon="151.290064">
  <ele>343.1</ele>
  <time>2026-09-01T19:50:21Z</time>
  <course>139.0</course>
  <speed>0.0</speed>
  <fix>3d</fix>
</trkpt>
<trkpt lat="-27.2744391" lon="151.290064">
  <ele>343.03</ele>
  <time>2026-09-01T19:50:21Z</time>
  <course>10.77</course>
  <speed>0.0</speed>
  <fix>3d</fix>
</trkpt>
<trkpt lat="-27.2744391" lon="151.290064">
  <ele>343.1</ele>
  <time>2026-09-01T19:50:21Z</time>
  <course>139.01</course>
  <speed>0.0</speed>
  <fix>3d</fix>
</trkpt>
<trkpt lat="-27.2744391" lon="151.290064">
  <ele>343.15</ele>
  <time>2026-09-01T19:50:21Z</time>
  <course>10.76</course>
  <speed>0.0</speed>
  <fix>3d</fix>
</trkpt>
<trkpt lat="-27.2744391" lon="151.290064">
  <ele>343.1</ele>
  <time>2026-09-01T19:50:21Z</time>
  <course>139.01</course>
  <speed>0.0</speed>
  <fix>3d</fix>
</trkpt>
<trkpt lat="-27.2744391" lon="151.290064">
  <ele>342.95</ele>
  <time>2026-09-01T19:50:21Z</time>
  <course>10.76</course>
  <speed>0.0</speed>
  <fix>3d</fix>
</trkpt>
<trkpt lat="-27.2744391" lon="151.290064">
  <ele>343.1</ele>
  <time>2026-09-01T19:50:21Z</time>
  <course>139.01</course>
  <speed>0.0</speed>
  <fix>3d</fix>
</trkpt>
<trkpt lat="-27.2744391" lon="151.290064">
  <ele>343.03</ele>
  <time>2026-09-01T19:50:21Z</time>
  <course>10.75</course>
  <speed>0.0</speed>
  <fix>3d</fix>
</trkpt>
<trkpt lat="-27.2744391" lon="151.290064">
  <ele>343.1</ele>
  <time>2026-09-01T19:50:21Z</time>
  <course>139.01</course>
  <speed>0.0</speed>
  <fix>3d</fix>
</trkpt>
<trkpt lat="-27.2744391" lon="151.290064">
  <ele>343.12</ele>
  <time>2026-09-01T19:50:21Z</time>
  <course>10.75</course>
  <speed>0.0</speed>
  <fix>3d</fix>
</trkpt>
<trkpt lat="-27.2744391" lon="151.290064">
  <ele>343.1</ele>
  <time>2026-09-01T19:50:21Z</time>
  <course>139.02</course>
  <speed>0.0</speed>
  <fix>3d</fix>
</trkpt>
<trkpt lat="-27.2744391" lon="151.290064">
  <ele>343.16</ele>
  <time>2026-09-01T19:50:21Z</time>
  <course>10.74</course>
  <speed>0.0</speed>
  <fix>3d</fix>
</trkpt>
<trkpt lat="-27.2744391" lon="151.290064">
  <ele>343.1</ele>
  <time>2026-09-01T19:50:21Z</time>
  <course>139.02</course>
  <speed>0.0</speed>
  <fix>3d</fix>
</trkpt>
<trkpt lat="-27.2744391" lon="151.290064">
  <ele>342.97</ele>
  <time>2026-09-01T19:50:21Z</time>
  <course>10.74</course>
  <speed>0.0</speed>
  <fix>3d</fix>
</trkpt>
<trkpt lat="-27.2744391" lon="151.290064">
  <ele>343.1</ele>
  <time>2026-09-01T19:50:21Z</time>
  <course>139.03</course>
  <speed>0.0</speed>
  <fix>3d</fix>
</trkpt>
<trkpt lat="-27.2744391" lon="151.290064">
  <ele>343.14</ele>
  <time>2026-09-01T19:50:21Z</time>
  <course>10.74</course>
  <speed>0.0</speed>
  <fix>3d</fix>
</trkpt>
<trkpt lat="-27.2744391" lon="151.290064">
  <ele>343.1</ele>
  <time>2026-09-01T19:50:21Z</time>
  <course>139.03</course>
  <speed>0.0</speed>
  <fix>3d</fix>
</trkpt>
<trkpt lat="-27.2744391" lon="151.290064">
  <ele>342.86</ele>
  <time>2026-09-01T19:50:21Z</time>
  <course>10.73</course>
  <speed>0.0</speed>
  <fix>3d</fix>
</trkpt>
<trkpt lat="-27.2744391" lon="151.290064">
  <ele>343.1</ele>
  <time>2026-09-01T19:50:21Z</time>
  <course>139.03</course>
  <speed>0.0</speed>
  <fix>3d</fix>
</trkpt>
<trkpt lat="-27.2744391" lon="151.290064">
  <ele>342.92</ele>
  <time>2026-09-01T19:50:21Z</time>
  <course>10.73</course>
  <speed>0.0</speed>
  <fix>3d</fix>
</trkpt>
<trkpt lat="-27.2744391" lon="151.290064">
  <ele>343.1</ele>
  <time>2026-09-01T19:50:21Z</time>
  <course>139.03</course>
  <speed>0.0</speed>
  <fix>3d</fix>
</trkpt>
<trkpt lat="-27.2744391" lon="151.290064">
  <ele>343.12</ele>
  <time>2026-09-01T19:50:21Z</time>
  <course>10.72</course>
  <speed>0.0</speed>
  <fix>3d</fix>
</trkpt>
<trkpt lat="-27.2744391" lon="151.290064">
  <ele>343.1</ele>
  <time>2026-09-01T19:50:21Z</time>
  <course>139.04</course>
  <speed>0.0</speed>
  <fix>3d</fix>
</trkpt>
<trkpt lat="-27.2744391" lon="151.290064">
  <ele>343.03</ele>
  <time>2026-09-01T19:50:21Z</time>
  <course>10.72</course>
  <speed>0.0</speed>
  <fix>3d</fix>
</trkpt>
<trkpt lat="-27.2744391" lon="151.290064">
  <ele>343.1</ele>
  <time>2026-09-01T19:50:21Z</time>
  <course>139.04</course>
  <speed>0.0</speed>
  <fix>3d</fix>
</trkpt>
<trkpt lat="-27.2744391" lon="151.290064">
  <ele>343.07</ele>
  <time>2026-09-01T19:50:21Z</time>
  <course>10.72</course>
  <speed>0.0</speed>
  <fix>3d</fix>
</trkpt>
<trkpt lat="-27.2744391" lon="151.290064">
  <ele>343.1</ele>
  <time>2026-09-01T19:50:21Z</time>
  <course>139.04</course>
  <speed>0.0</speed>
  <fix>3d</fix>
</trkpt>
<trkpt lat="-27.2744391" lon="151.290064">
  <ele>343.03</ele>
  <time>2026-09-01T19:50:21Z</time>
  <course>10.71</course>
  <speed>0.0</speed>
  <fix>3d</fix>
</trkpt>
<trkpt lat="-27.2744391" lon="151.290064">
  <ele>343.1</ele>
  <time>2026-09-01T19:50:21Z</time>
  <course>139.04</course>
  <speed>0.0</speed>
  <fix>3d</fix>
</trkpt>
<trkpt lat="-27.2744391" lon="151.290064">
  <ele>342.88</ele>
  <time>2026-09-01T19:50:21Z</time>
  <course>10.71</course>
  <speed>0.0</speed>
  <fix>3d</fix>
</trkpt>
<trkpt lat="-27.2744391" lon="151.290064">
  <ele>343.1</ele>
  <time>2026-09-01T19:50:21Z</time>
  <course>139.05</course>
  <speed>0.0</speed>
  <fix>3d</fix>
</trkpt>
<trkpt lat="-27.2744391" lon="151.290064">
  <ele>343.0</ele>
  <time>2026-09-01T19:50:21Z</time>
  <course>10.7</course>
  <speed>0.0</speed>
  <fix>3d</fix>
</trkpt>
<trkpt lat="-27.2744391" lon="151.290064">
  <ele>343.1</ele>
  <time>2026-09-01T19:50:21Z</time>
  <course>139.05</course>
  <speed>0.0</speed>
  <fix>3d</fix>
</trkpt>
<trkpt lat="-27.2744391" lon="151.290064">
  <ele>343.1</ele>
  <time>2026-09-01T19:50:21Z</time>
  <course>10.7</course>
  <speed>0.0</speed>
  <fix>3d</fix>
</trkpt>
<trkpt lat="-27.2744391" lon="151.290064">
  <ele>343.1</ele>
  <time>2026-09-01T19:50:21Z</time>
  <course>139.06</course>
  <speed>0.0</speed>
  <fix>3d</fix>
</trkpt>
<trkpt lat="-27.2744391" lon="151.290064">
  <ele>343.04</ele>
  <time>2026-09-01T19:50:21Z</time>
  <course>10.7</course>
  <speed>0.0</speed>
  <fix>3d</fix>
</trkpt>
<trkpt lat="-27.2744391" lon="151.290064">
  <ele>343.1</ele>
  <time>2026-09-01T19:50:21Z</time>
  <course>139.06</course>
  <speed>0.0</speed>
  <fix>3d</fix>
</trkpt>
<trkpt lat="-27.2744391" lon="151.290064">
  <ele>343.22</ele>
  <time>2026-09-01T19:50:21Z</time>
  <course>10.69</course>
  <speed>0.0</speed>
  <fix>3d</fix>
</trkpt>
<trkpt lat="-27.2744391" lon="151.290064">
  <ele>343.1</ele>
  <time>2026-09-01T19:50:21Z</time>
  <course>139.06</course>
  <speed>0.0</speed>
  <fix>3d</fix>
</trkpt>
<trkpt lat="-27.2744391" lon="151.290064">
  <ele>343.05</ele>
  <time>2026-09-01T19:50:21Z</time>
  <course>10.69</course>
  <speed>0.0</speed>
  <fix>3d</fix>
</trkpt>
<trkpt lat="-27.2744391" lon="151.290064">
  <ele>343.1</ele>
  <time>2026-09-01T19:50:21Z</time>
  <course>139.06</course>
  <speed>0.0</speed>
  <fix>3d</fix>
</trkpt>
<trkpt lat="-27.2744391" lon="151.290064">
  <ele>343.07</ele>
  <time>2026-09-01T19:50:21Z</time>
  <course>10.69</course>
  <speed>0.0</speed>
  <fix>3d</fix>
</trkpt>
<trkpt lat="-27.2744391" lon="151.290064">
  <ele>343.1</ele>
  <time>2026-09-01T19:50:21Z</time>
  <course>139.07</course>
  <speed>0.0</speed>
  <fix>3d</fix>
</trkpt>
<trkpt lat="-27.2744391" lon="151.290064">
  <ele>343.08</ele>
  <time>2026-09-01T19:50:21Z</time>
  <course>10.68</course>
  <speed>0.0</speed>
  <fix>3d</fix>
</trkpt>
<trkpt lat="-27.2744391" lon="151.290064">
  <ele>343.1</ele>
  <time>2026-09-01T19:50:21Z</time>
  <course>139.07</course>
  <speed>0.0</speed>
  <fix>3d</fix>
</trkpt>
<trkpt lat="-27.2744391" lon="151.290064">
  <ele>342.89</ele>
  <time>2026-09-01T19:50:21Z</time>
  <course>10.68</course>
  <speed>0.0</speed>
  <fix>3d</fix>
</trkpt>
<trkpt lat="-27.2744391" lon="151.290064">
  <ele>343.1</ele>
  <time>2026-09-01T19:50:21Z</time>
  <course>139.07</course>
  <speed>0.0</speed>
  <fix>3d</fix>
</trkpt>
<trkpt lat="-27.2744391" lon="151.290064">
  <ele>342.99</ele>
  <time>2026-09-01T19:50:21Z</time>
  <course>10.67</course>
  <speed>0.0</speed>
  <fix>3d</fix>
</trkpt>
<trkpt lat="-27.2744391" lon="151.290064">
  <ele>343.1</ele>
  <time>2026-09-01T19:50:21Z</time>
  <course>139.07</course>
  <speed>0.0</speed>
  <fix>3d</fix>
</trkpt>
<trkpt lat="-27.2744391" lon="151.290064">
  <ele>342.89</ele>
  <time>2026-09-01T19:50:21Z</time>
  <course>10.67</course>
  <speed>0.0</speed>
  <fix>3d</fix>
</trkpt>
<trkpt lat="-27.2744391" lon="151.290064">
  <ele>343.1</ele>
  <time>2026-09-01T19:50:21Z</time>
  <course>139.08</course>
  <speed>0.0</speed>
  <fix>3d</fix>
</trkpt>
<trkpt lat="-27.2744391" lon="151.290064">
  <ele>343.19</ele>
  <time>2026-09-01T19:50:21Z</time>
  <course>10.67</course>
  <speed>0.0</speed>
  <fix>3d</fix>
</trkpt>
<trkpt lat="-27.2744391" lon="151.290064">
  <ele>343.1</ele>
  <time>2026-09-01T19:50:21Z</time>
  <course>139.08</course>
  <speed>0.0</speed>
  <fix>3d</fix>
</trkpt>
<trkpt lat="-27.2744391" lon="151.290064">
  <ele>343.02</ele>
  <time>2026-09-01T19:50:21Z</time>
  <course>10.66</course>
  <speed>0.0</speed>
  <fix>3d</fix>
</trkpt>
<trkpt lat="-27.2744391" lon="151.290064">
  <ele>343.1</ele>
  <time>2026-09-01T19:50:21Z</time>
  <course>139.09</course>
  <speed>0.0</speed>
  <fix>3d</fix>
</trkpt>
<trkpt lat="-27.2744391" lon="151.290064">
  <ele>343.2</ele>
  <time>2026-09-01T19:50:21Z</time>
  <course>10.66</course>
  <speed>0.0</speed>
  <fix>3d</fix>
</trkpt>
<trkpt lat="-27.2744391" lon="151.290064">
  <ele>343.1</ele>
  <time>2026-09-01T19:50:21Z</time>
  <course>139.09</course>
  <speed>0.0</speed>
  <fix>3d</fix>
</trkpt>
<trkpt lat="-27.2744391" lon="151.290064">
  <ele>343.22</ele>
  <time>2026-09-01T19:50:21Z</time>
  <course>10.66</course>
  <speed>0.0</speed>
  <fix>3d</fix>
</trkpt>
<trkpt lat="-27.2744391" lon="151.290064">
  <ele>343.1</ele>
  <time>2026-09-01T19:50:21Z</time>
  <course>139.09</course>
  <speed>0.0</speed>
  <fix>3d</fix>
</trkpt>
<trkpt lat="-27.2744391" lon="151.290064">
  <ele>343.04</ele>
  <time>2026-09-01T19:50:21Z</time>
  <course>10.65</course>
  <speed>0.0</speed>
  <fix>3d</fix>
</trkpt>
<trkpt lat="-27.2744391" lon="151.290064">
  <ele>343.1</ele>
  <time>2026-09-01T19:50:21Z</time>
  <course>139.09</course>
  <speed>0.0</speed>
  <fix>3d</fix>
</trkpt>
<trkpt lat="-27.2744391" lon="151.290064">
  <ele>343.14</ele>
  <time>2026-09-01T19:50:21Z</time>
  <course>10.65</course>
  <speed>0.0</speed>
  <fix>3d</fix>
</trkpt>
<trkpt lat="-27.2744391" lon="151.290064">
  <ele>343.1</ele>
  <time>2026-09-01T19:50:21Z</time>
  <course>139.1</course>
  <speed>0.0</speed>
  <fix>3d</fix>
</trkpt>
<trkpt lat="-27.2744391" lon="151.290064">
  <ele>342.98</ele>
  <time>2026-09-01T19:50:21Z</time>
  <course>10.65</course>
  <speed>0.0</speed>
  <fix>3d</fix>
</trkpt>
<trkpt lat="-27.2744391" lon="151.290064">
  <ele>343.1</ele>
  <time>2026-09-01T19:50:21Z</time>
  <course>139.1</course>
  <speed>0.0</speed>
  <fix>3d</fix>
</trkpt>
<trkpt lat="-27.2744391" lon="151.290064">
  <ele>342.95</ele>
  <time>2026-09-01T19:50:21Z</time>
  <course>10.64</course>
  <speed>0.0</speed>
  <fix>3d</fix>
</trkpt>
<trkpt lat="-27.2744391" lon="151.290064">
  <ele>343.1</ele>
  <time>2026-09-01T19:50:21Z</time>
  <course>139.11</course>
  <speed>0.0</speed>
  <fix>3d</fix>
</trkpt>
<trkpt lat="-27.2744391" lon="151.290064">
  <ele>343.13</ele>
  <time>2026-09-01T19:50:21Z</time>
  <course>10.64</course>
  <speed>0.0</speed>
  <fix>3d</fix>
</trkpt>
<trkpt lat="-27.2744391" lon="151.290064">
  <ele>343.1</ele>
  <time>2026-09-01T19:50:21Z</time>
  <course>139.11</course>
  <speed>0.0</speed>
  <fix>3d</fix>
</trkpt>
<trkpt lat="-27.2744391" lon="151.290064">
  <ele>342.97</ele>
  <time>2026-09-01T19:50:21Z</time>
  <course>10.63</course>
  <speed>0.0</speed>
  <fix>3d</fix>
</trkpt>
<trkpt lat="-27.2744391" lon="151.290064">
  <ele>343.1</ele>
  <time>2026-09-01T19:50:21Z</time>
  <course>139.11</course>
  <speed>0.0</speed>
  <fix>3d</fix>
</trkpt>
<trkpt lat="-27.2744391" lon="151.290064">
  <ele>342.98</ele>
  <time>2026-09-01T19:50:21Z</time>
  <course>10.63</course>
  <speed>0.0</speed>
  <fix>3d</fix>
</trkpt>
<trkpt lat="-27.2744391" lon="151.290064">
  <ele>343.1</ele>
  <time>2026-09-01T19:50:21Z</time>
  <course>139.11</course>
  <speed>0.0</speed>
  <fix>3d</fix>
</trkpt>
<trkpt lat="-27.2744391" lon="151.290064">
  <ele>343.1</ele>
  <time>2026-09-01T19:50:21Z</time>
  <course>10.62</course>
  <speed>0.0</speed>
  <fix>3d</fix>
</trkpt>
<trkpt lat="-27.2744391" lon="151.290064">
  <ele>343.1</ele>
  <time>2026-09-01T19:50:21Z</time>
  <course>139.12</course>
  <speed>0.0</speed>
  <fix>3d</fix>
</trkpt>
<trkpt lat="-27.2744391" lon="151.290064">
  <ele>342.83</ele>
  <time>2026-09-01T19:50:21Z</time>
  <course>10.62</course>
  <speed>0.0</speed>
  <fix>3d</fix>
</trkpt>
<trkpt lat="-27.2744391" lon="151.290064">
  <ele>343.1</ele>
  <time>2026-09-01T19:50:21Z</time>
  <course>139.12</course>
  <speed>0.0</speed>
  <fix>3d</fix>
</trkpt>
<trkpt lat="-27.2744391" lon="151.290064">
  <ele>342.9</ele>
  <time>2026-09-01T19:50:21Z</time>
  <course>10.61</course>
  <speed>0.0</speed>
  <fix>3d</fix>
</trkpt>
<trkpt lat="-27.2744391" lon="151.290064">
  <ele>343.1</ele>
  <time>2026-09-01T19:50:21Z</time>
  <course>139.12</course>
  <speed>0.0</speed>
  <fix>3d</fix>
</trkpt>
<trkpt lat="-27.2744391" lon="151.290064">
  <ele>342.92</ele>
  <time>2026-09-01T19:50:21Z</time>
  <course>10.61</course>
  <speed>0.0</speed>
  <fix>3d</fix>
</trkpt>
<trkpt lat="-27.2744391" lon="151.290064">
  <ele>343.1</ele>
  <time>2026-09-01T19:50:21Z</time>
  <course>139.12</course>
  <speed>0.0</speed>
  <fix>3d</fix>
</trkpt>
<trkpt lat="-27.2744391" lon="151.290064">
  <ele>342.88</ele>
  <time>2026-09-01T19:50:21Z</time>
  <course>10.6</course>
  <speed>0.0</speed>
  <fix>3d</fix>
</trkpt>
<trkpt lat="-27.2744391" lon="151.290064">
  <ele>343.1</ele>
  <time>2026-09-01T19:50:21Z</time>
  <course>139.13</course>
  <speed>0.0</speed>
  <fix>3d</fix>
</trkpt>
<trkpt lat="-27.2744391" lon="151.290064">
  <ele>342.89</ele>
  <time>2026-09-01T19:50:21Z</time>
  <course>10.6</course>
  <speed>0.0</speed>
  <fix>3d</fix>
</trkpt>
<trkpt lat="-27.2744391" lon="151.290064">
  <ele>343.1</ele>
  <time>2026-09-01T19:50:21Z</time>
  <course>139.13</course>
  <speed>0.0</speed>
  <fix>3d</fix>
</trkpt>
<trkpt lat="-27.274439" lon="151.290064">
  <ele>343.02</ele>
  <time>2026-09-01T19:50:21Z</time>
  <course>11.09</course>
  <speed>0.0</speed>
  <fix>3d</fix>
</trkpt>
<trkpt lat="-27.2744391" lon="151.290064">
  <ele>343.1</ele>
  <time>2026-09-01T19:50:21Z</time>
  <course>139.14</course>
  <speed>0.0</speed>
  <fix>3d</fix>
</trkpt>
<trkpt lat="-27.274439" lon="151.290064">
  <ele>343.02</ele>
  <time>2026-09-01T19:50:21Z</time>
  <course>11.08</course>
  <speed>0.0</speed>
  <fix>3d</fix>
</trkpt>
<trkpt lat="-27.2744391" lon="151.290064">
  <ele>343.1</ele>
  <time>2026-09-01T19:50:21Z</time>
  <course>139.14</course>
  <speed>0.0</speed>
  <fix>3d</fix>
</trkpt>
<trkpt lat="-27.274439" lon="151.290064">
  <ele>343.02</ele>
  <time>2026-09-01T19:50:21Z</time>
  <course>11.08</course>
  <speed>0.0</speed>
  <fix>3d</fix>
</trkpt>
<trkpt lat="-27.2744391" lon="151.290064">
  <ele>343.1</ele>
  <time>2026-09-01T19:50:21Z</time>
  <course>139.14</course>
  <speed>0.0</speed>
  <fix>3d</fix>
</trkpt>
<trkpt lat="-27.274439" lon="151.290064">
  <ele>343.02</ele>
  <time>2026-09-01T19:50:21Z</time>
  <course>11.08</course>
  <speed>0.0</speed>
  <fix>3d</fix>
</trkpt>
<trkpt lat="-27.2744391" lon="151.290064">
  <ele>343.1</ele>
  <time>2026-09-01T19:50:21Z</time>
  <course>139.14</course>
  <speed>0.0</speed>
  <fix>3d</fix>
</trkpt>
<trkpt lat="-27.274439" lon="151.290064">
  <ele>343.02</ele>
  <time>2026-09-01T19:50:21Z</time>
  <course>11.07</course>
  <speed>0.0</speed>
  <fix>3d</fix>
</trkpt>
<trkpt lat="-27.2744391" lon="151.290064">
  <ele>343.1</ele>
  <time>2026-09-01T19:50:21Z</time>
  <course>139.15</course>
  <speed>0.0</speed>
  <fix>3d</fix>
</trkpt>
<trkpt lat="-27.274439" lon="151.290064">
  <ele>343.02</ele>
  <time>2026-09-01T19:50:21Z</time>
  <course>11.07</course>
  <speed>0.0</speed>
  <fix>3d</fix>
</trkpt>
<trkpt lat="-27.2744391" lon="151.290064">
  <ele>343.1</ele>
  <time>2026-09-01T19:50:21Z</time>
  <course>139.15</course>
  <speed>0.0</speed>
  <fix>3d</fix>
</trkpt>
<trkpt lat="-27.274439" lon="151.290064">
  <ele>343.02</ele>
  <time>2026-09-01T19:50:21Z</time>
  <course>11.07</course>
  <speed>0.0</speed>
  <fix>3d</fix>
</trkpt>
<trkpt lat="-27.2744391" lon="151.290064">
  <ele>343.1</ele>
  <time>2026-09-01T19:50:21Z</time>
  <course>139.15</course>
  <speed>0.0</speed>
  <fix>3d</fix>
</trkpt>
<trkpt lat="-27.274439" lon="151.290064">
  <ele>343.02</ele>
  <time>2026-09-01T19:50:21Z</time>
  <course>11.07</course>
  <speed>0.0</speed>
  <fix>3d</fix>
</trkpt>
<trkpt lat="-27.2744391" lon="151.290064">
  <ele>343.1</ele>
  <time>2026-09-01T19:50:21Z</time>
  <course>139.15</course>
  <speed>0.0</speed>
  <fix>3d</fix>
</trkpt>
<trkpt lat="-27.2744391" lon="151.290064">
  <ele>343.02</ele>
  <time>2026-09-01T19:50:21Z</time>
  <course>11.06</course>
  <speed>0.0</speed>
  <fix>3d</fix>
</trkpt>
<trkpt lat="-27.2744391" lon="151.290064">
  <ele>343.1</ele>
  <time>2026-09-01T19:50:21Z</time>
  <course>139.16</course>
  <speed>0.0</speed>
  <fix>3d</fix>
</trkpt>
<trkpt lat="-27.2744391" lon="151.290064">
  <ele>343.02</ele>
  <time>2026-09-01T19:50:21Z</time>
  <course>11.06</course>
  <speed>0.0</speed>
  <fix>3d</fix>
</trkpt>
<trkpt lat="-27.2744391" lon="151.290064">
  <ele>343.1</ele>
  <time>2026-09-01T19:50:21Z</time>
  <course>139.16</course>
  <speed>0.0</speed>
  <fix>3d</fix>
</trkpt>
<trkpt lat="-27.2744391" lon="151.290064">
  <ele>343.01</ele>
  <time>2026-09-01T19:50:21Z</time>
  <course>11.06</course>
  <speed>0.01</speed>
  <fix>3d</fix>
</trkpt>
<trkpt lat="-27.2744391" lon="151.290064">
  <ele>343.1</ele>
  <time>2026-09-01T19:50:21Z</time>
  <course>139.17</course>
  <speed>0.0</speed>
  <fix>3d</fix>
</trkpt>
<trkpt lat="-27.2744391" lon="151.290064">
  <ele>343.09</ele>
  <time>2026-09-01T19:50:21Z</time>
  <course>11.05</course>
  <speed>0.01</speed>
  <fix>3d</fix>
</trkpt>
<trkpt lat="-27.2744391" lon="151.290064">
  <ele>343.1</ele>
  <time>2026-09-01T19:50:21Z</time>
  <course>139.17</course>
  <speed>0.0</speed>
  <fix>3d</fix>
</trkpt>
<trkpt lat="-27.2744391" lon="151.290064">
  <ele>343.09</ele>
  <time>2026-09-01T19:50:21Z</time>
  <course>11.05</course>
  <speed>0.01</speed>
  <fix>3d</fix>
</trkpt>
<trkpt lat="-27.2744391" lon="151.290064">
  <ele>343.1</ele>
  <time>2026-09-01T19:50:21Z</time>
  <course>139.17</course>
  <speed>0.0</speed>
  <fix>3d</fix>
</trkpt>
<trkpt lat="-27.2744391" lon="151.290064">
  <ele>343.09</ele>
  <time>2026-09-01T19:50:21Z</time>
  <course>11.05</course>
  <speed>0.01</speed>
  <fix>3d</fix>
</trkpt>
<trkpt lat="-27.2744391" lon="151.290064">
  <ele>343.1</ele>
  <time>2026-09-01T19:50:21Z</time>
  <course>139.17</course>
  <speed>0.0</speed>
  <fix>3d</fix>
</trkpt>
<trkpt lat="-27.2744391" lon="151.290064">
  <ele>343.09</ele>
  <time>2026-09-01T19:50:21Z</time>
  <course>11.04</course>
  <speed>0.01414213562373095</speed>
  <fix>3d</fix>
</trkpt>
<trkpt lat="-27.2744391" lon="151.290064">
  <ele>343.1</ele>
  <time>2026-09-01T19:50:21Z</time>
  <course>139.01</course>
  <speed>0.0</speed>
  <fix>3d</fix>
</trkpt>
<trkpt lat="-27.2744391" lon="151.290064">
  <ele>343.09</ele>
  <time>2026-09-01T19:50:21Z</time>
  <course>11.04</course>
  <speed>0.01414213562373095</speed>
  <fix>3d</fix>
</trkpt>
<trkpt lat="-27.2744391" lon="151.290064">
  <ele>343.1</ele>
  <time>2026-09-01T19:50:21Z</time>
  <course>139.01</course>
  <speed>0.0</speed>
  <fix>3d</fix>
</trkpt>
<trkpt lat="-27.2744391" lon="151.290064">
  <ele>343.09</ele>
  <time>2026-09-01T19:50:21Z</time>
  <course>11.04</course>
  <speed>0.01414213562373095</speed>
  <fix>3d</fix>
</trkpt>
<trkpt lat="-27.2744391" lon="151.290064">
  <ele>343.09</ele>
  <time>2026-09-01T19:50:21Z</time>
  <course>11.04</course>
  <speed>0.01414213562373095</speed>
  <fix>3d</fix>
</trkpt>
<trkpt lat="-27.2744391" lon="151.290064">
  <ele>343.1</ele>
  <time>2026-09-01T19:50:21Z</time>
  <course>138.6</course>
  <speed>0.0</speed>
  <fix>3d</fix>
</trkpt>
<trkpt lat="-27.2744391" lon="151.290064">
  <ele>343.09</ele>
  <time>2026-09-01T19:50:21Z</time>
  <course>11.04</course>
  <speed>0.01414213562373095</speed>
  <fix>3d</fix>
</trkpt>
<trkpt lat="-27.2744391" lon="151.290064">
  <ele>343.09</ele>
  <time>2026-09-01T19:50:21Z</time>
  <course>11.04</course>
  <speed>0.01414213562373095</speed>
  <fix>3d</fix>
</trkpt>
<trkpt lat="-27.2744391" lon="151.290064">
  <ele>343.1</ele>
  <time>2026-09-01T19:50:21Z</time>
  <course>138.6</course>
  <speed>0.0</speed>
  <fix>3d</fix>
</trkpt>
<trkpt lat="-27.2744391" lon="151.290064">
  <ele>343.09</ele>
  <time>2026-09-01T19:50:21Z</time>
  <course>11.04</course>
  <speed>0.01414213562373095</speed>
  <fix>3d</fix>
</trkpt>
<trkpt lat="-27.2744391" lon="151.290064">
  <ele>343.09</ele>
  <time>2026-09-01T19:50:21Z</time>
  <course>11.03</course>
  <speed>0.01414213562373095</speed>
  <fix>3d</fix>
</trkpt>
<trkpt lat="-27.2744391" lon="151.290064">
  <ele>343.1</ele>
  <time>2026-09-01T19:50:21Z</time>
  <course>138.8</course>
  <speed>0.0</speed>
  <fix>3d</fix>
</trkpt>
<trkpt lat="-27.2744391" lon="151.290064">
  <ele>343.09</ele>
  <time>2026-09-01T19:50:21Z</time>
  <course>11.03</course>
  <speed>0.01414213562373095</speed>
  <fix>3d</fix>
</trkpt>
<trkpt lat="-27.2744391" lon="151.290064">
  <ele>343.09</ele>
  <time>2026-09-01T19:50:21Z</time>
  <course>11.03</course>
  <speed>0.01414213562373095</speed>
  <fix>3d</fix>
</trkpt>
<trkpt lat="-27.2744391" lon="151.290064">
  <ele>343.1</ele>
  <time>2026-09-01T19:50:21Z</time>
  <course>138.8</course>
  <speed>0.0</speed>
  <fix>3d</fix>
</trkpt>
<trkpt lat="-27.2744391" lon="151.290064">
  <ele>343.09</ele>
  <time>2026-09-01T19:50:21Z</time>
  <course>11.03</course>
  <speed>0.01414213562373095</speed>
  <fix>3d</fix>
</trkpt>
<trkpt lat="-27.2744391" lon="151.290064">
  <ele>343.09</ele>
  <time>2026-09-01T19:50:21Z</time>
  <course>11.03</course>
  <speed>0.01414213562373095</speed>
  <fix>3d</fix>
</trkpt>
<trkpt lat="-27.2744391" lon="151.290064">
  <ele>343.1</ele>
  <time>2026-09-01T19:50:21Z</time>
  <course>139.39</course>
  <speed>0.0</speed>
  <fix>3d</fix>
</trkpt>
<trkpt lat="-27.2744391" lon="151.290064">
  <ele>343.09</ele>
  <time>2026-09-01T19:50:21Z</time>
  <course>11.02</course>
  <speed>0.01414213562373095</speed>
  <fix>3d</fix>
</trkpt>
<trkpt lat="-27.2744391" lon="151.290064">
  <ele>343.09</ele>
  <time>2026-09-01T19:50:21Z</time>
  <course>11.02</course>
  <speed>0.01414213562373095</speed>
  <fix>3d</fix>
</trkpt>
<trkpt lat="-27.2744391" lon="151.290064">
  <ele>343.1</ele>
  <time>2026-09-01T19:50:21Z</time>
  <course>139.39</course>
  <speed>0.0</speed>
  <fix>3d</fix>
</trkpt>
<trkpt lat="-27.2744391" lon="151.290064">
  <ele>343.09</ele>
  <time>2026-09-01T19:50:21Z</time>
  <course>11.02</course>
  <speed>0.01414213562373095</speed>
  <fix>3d</fix>
</trkpt>
<trkpt lat="-27.2744391" lon="151.290064">
  <ele>343.08</ele>
  <time>2026-09-01T19:50:21Z</time>
  <course>11.02</course>
  <speed>0.01414213562373095</speed>
  <fix>3d</fix>
</trkpt>
<trkpt lat="-27.2744391" lon="151.290064">
  <ele>343.1</ele>
  <time>2026-09-01T19:50:21Z</time>
  <course>139.57</course>
  <speed>0.0</speed>
  <fix>3d</fix>
</trkpt>
<trkpt lat="-27.2744391" lon="151.290064">
  <ele>343.08</ele>
  <time>2026-09-01T19:50:21Z</time>
  <course>11.02</course>
  <speed>0.01414213562373095</speed>
  <fix>3d</fix>
</trkpt>
<trkpt lat="-27.2744391" lon="151.290064">
  <ele>343.08</ele>
  <time>2026-09-01T19:50:21Z</time>
  <course>11.02</course>
  <speed>0.01414213562373095</speed>
  <fix>3d</fix>
</trkpt>
<trkpt lat="-27.2744391" lon="151.290064">
  <ele>343.1</ele>
  <time>2026-09-01T19:50:21Z</time>
  <course>139.57</course>
  <speed>0.0</speed>
  <fix>3d</fix>
</trkpt>
<trkpt lat="-27.2744391" lon="151.290064">
  <ele>343.08</ele>
  <time>2026-09-01T19:50:21Z</time>
  <course>11.01</course>
  <speed>0.01414213562373095</speed>
  <fix>3d</fix>
</trkpt>
<trkpt lat="-27.2744391" lon="151.290064">
  <ele>343.09</ele>
  <time>2026-09-01T19:50:21Z</time>
  <course>11.01</course>
  <speed>0.01414213562373095</speed>
  <fix>3d</fix>
</trkpt>
<trkpt lat="-27.2744391" lon="151.290064">
  <ele>343.1</ele>
  <time>2026-09-01T19:50:21Z</time>
  <course>143.99</course>
  <speed>0.0</speed>
  <fix>3d</fix>
</trkpt>
<trkpt lat="-27.2744391" lon="151.290064">
  <ele>343.09</ele>
  <time>2026-09-01T19:50:21Z</time>
  <course>11.01</course>
  <speed>0.01414213562373095</speed>
  <fix>3d</fix>
</trkpt>
<trkpt lat="-27.2744391" lon="151.290064">
  <ele>343.11</ele>
  <time>2026-09-01T19:50:21Z</time>
  <course>11.01</course>
  <speed>0.01414213562373095</speed>
  <fix>3d</fix>
</trkpt>
<trkpt lat="-27.2744391" lon="151.290064">
  <ele>343.1</ele>
  <time>2026-09-01T19:50:21Z</time>
  <course>143.99</course>
  <speed>0.0</speed>
  <fix>3d</fix>
</trkpt>
<trkpt lat="-27.2744391" lon="151.290064">
  <ele>343.11</ele>
  <time>2026-09-01T19:50:21Z</time>
  <course>11.01</course>
  <speed>0.01414213562373095</speed>
  <fix>3d</fix>
</trkpt>
<trkpt lat="-27.2744391" lon="151.290064">
  <ele>343.14</ele>
  <time>2026-09-01T19:50:21Z</time>
  <course>11.01</course>
  <speed>0.01414213562373095</speed>
  <fix>3d</fix>
</trkpt>
<trkpt lat="-27.2744391" lon="151.290064">
  <ele>343.11</ele>
  <time>2026-09-01T19:50:21Z</time>
  <course>28.39</course>
  <speed>0.0</speed>
  <fix>3d</fix>
</trkpt>
<trkpt lat="-27.2744391" lon="151.290064">
  <ele>343.14</ele>
  <time>2026-09-01T19:50:21Z</time>
  <course>11.01</course>
  <speed>0.01414213562373095</speed>
  <fix>3d</fix>
</trkpt>
<trkpt lat="-27.2744391" lon="151.290064">
  <ele>343.18</ele>
  <time>2026-09-01T19:50:21Z</time>
  <course>11.0</course>
  <speed>0.01</speed>
  <fix>3d</fix>
</trkpt>
<trkpt lat="-27.2744391" lon="151.290064">
  <ele>343.11</ele>
  <time>2026-09-01T19:50:21Z</time>
  <course>28.39</course>
  <speed>0.0</speed>
  <fix>3d</fix>
</trkpt>
<trkpt lat="-27.2744391" lon="151.290064">
  <ele>343.18</ele>
  <time>2026-09-01T19:50:21Z</time>
  <course>11.0</course>
  <speed>0.01</speed>
  <fix>3d</fix>
</trkpt>
<trkpt lat="-27.2744391" lon="151.290064">
  <ele>343.23</ele>
  <time>2026-09-01T19:50:21Z</time>
  <course>10.95</course>
  <speed>0.01</speed>
  <fix>3d</fix>
</trkpt>
<trkpt lat="-27.2744391" lon="151.290064">
  <ele>343.16</ele>
  <time>2026-09-01T19:50:21Z</time>
  <course>11.94</course>
  <speed>0.0</speed>
  <fix>3d</fix>
</trkpt>
<trkpt lat="-27.2744391" lon="151.290064">
  <ele>343.25</ele>
  <time>2026-09-01T19:50:21Z</time>
  <course>10.91</course>
  <speed>0.022360679774997897</speed>
  <fix>3d</fix>
</trkpt>
<trkpt lat="-27.2744391" lon="151.290064">
  <ele>343.34</ele>
  <time>2026-09-01T19:50:21Z</time>
  <course>10.78</course>
  <speed>0.03605551275463989</speed>
  <fix>3d</fix>
</trkpt>
<trkpt lat="-27.2744391" lon="151.290064">
  <ele>343.16</ele>
  <time>2026-09-01T19:50:21Z</time>
  <course>11.94</course>
  <speed>0.0</speed>
  <fix>3d</fix>
</trkpt>
<trkpt lat="-27.2744391" lon="151.290064">
  <ele>343.38</ele>
  <time>2026-09-01T19:50:21Z</time>
  <course>10.73</course>
  <speed>0.04242640687119285</speed>
  <fix>3d</fix>
</trkpt>
<trkpt lat="-27.2744391" lon="151.2900641">
  <ele>343.51</ele>
  <time>2026-09-01T19:50:21Z</time>
  <course>10.55</course>
  <speed>0.0565685424949238</speed>
  <fix>3d</fix>
</trkpt>
<trkpt lat="-27.2744391" lon="151.290064">
  <ele>343.28</ele>
  <time>2026-09-01T19:50:21Z</time>
  <course>82.29</course>
  <speed>0.01</speed>
  <fix>3d</fix>
</trkpt>
<trkpt lat="-27.2744391" lon="151.2900641">
  <ele>343.56</ele>
  <time>2026-09-01T19:50:21Z</time>
  <course>10.48</course>
  <speed>0.07071067811865475</speed>
  <fix>3d</fix>
</trkpt>
<trkpt lat="-27.2744392" lon="151.2900641">
  <ele>343.71</ele>
  <time>2026-09-01T19:50:21Z</time>
  <course>10.31</course>
  <speed>0.0848528137423857</speed>
  <fix>3d</fix>
</trkpt>
<trkpt lat="-27.2744391" lon="151.290064">
  <ele>343.28</ele>
  <time>2026-09-01T19:50:21Z</time>
  <course>82.29</course>
  <speed>0.01</speed>
  <fix>3d</fix>
</trkpt>
<trkpt lat="-27.2744392" lon="151.2900641">
  <ele>343.72</ele>
  <time>2026-09-01T19:50:21Z</time>
  <course>10.3</course>
  <speed>0.0848528137423857</speed>
  <fix>3d</fix>
</trkpt>
<trkpt lat="-27.2744392" lon="151.2900642">
  <ele>343.91</ele>
  <time>2026-09-01T19:50:21Z</time>
  <course>10.1</course>
  <speed>0.09899494936611665</speed>
  <fix>3d</fix>
</trkpt>
<trkpt lat="-27.2744391" lon="151.290064">
  <ele>343.55</ele>
  <time>2026-09-01T19:50:21Z</time>
  <course>122.57</course>
  <speed>0.04</speed>
  <fix>3d</fix>
</trkpt>
<trkpt lat="-27.2744392" lon="151.2900642">
  <ele>343.92</ele>
  <time>2026-09-01T19:50:21Z</time>
  <course>10.09</course>
  <speed>0.09899494936611665</speed>
  <fix>3d</fix>
</trkpt>
<trkpt lat="-27.2744393" lon="151.2900642">
  <ele>344.11</ele>
  <time>2026-09-01T19:50:21Z</time>
  <course>9.95</course>
  <speed>0.1131370849898476</speed>
  <fix>3d</fix>
</trkpt>
<trkpt lat="-27.2744391" lon="151.290064">
  <ele>343.55</ele>
  <time>2026-09-01T19:50:21Z</time>
  <course>122.57</course>
  <speed>0.04</speed>
  <fix>3d</fix>
</trkpt>
<trkpt lat="-27.2744393" lon="151.2900642">
  <ele>344.13</ele>
  <time>2026-09-01T19:50:21Z</time>
  <course>9.94</course>
  <speed>0.12041594578792296</speed>
  <fix>3d</fix>
</trkpt>
<trkpt lat="-27.2744393" lon="151.2900643">
  <ele>344.31</ele>
  <time>2026-09-01T19:50:21Z</time>
  <course>9.85</course>
  <speed>0.12806248474865697</speed>
  <fix>3d</fix>
</trkpt>
<trkpt lat="-27.2744391" lon="151.2900641">
  <ele>343.94</ele>
  <time>2026-09-01T19:50:21Z</time>
  <course>126.58</course>
  <speed>0.08</speed>
  <fix>3d</fix>
</trkpt>
<trkpt lat="-27.2744393" lon="151.2900643">
  <ele>344.38</ele>
  <time>2026-09-01T19:50:21Z</time>
  <course>9.83</course>
  <speed>0.12806248474865697</speed>
  <fix>3d</fix>
</trkpt>
<trkpt lat="-27.2744394" lon="151.2900644">
  <ele>344.51</ele>
  <time>2026-09-01T19:50:21Z</time>
  <course>9.79</course>
  <speed>0.130384048104053</speed>
  <fix>3d</fix>
</trkpt>
<trkpt lat="-27.2744391" lon="151.2900641">
  <ele>343.94</ele>
  <time>2026-09-01T19:50:21Z</time>
  <course>126.58</course>
  <speed>0.08</speed>
  <fix>3d</fix>
</trkpt>
<trkpt lat="-27.2744394" lon="151.2900644">
  <ele>344.57</ele>
  <time>2026-09-01T19:50:21Z</time>
  <course>9.78</course>
  <speed>0.130384048104053</speed>
  <fix>3d</fix>
</trkpt>
<trkpt lat="-27.2744394" lon="151.2900645">
  <ele>344.71</ele>
  <time>2026-09-01T19:50:21Z</time>
  <course>9.76</course>
  <speed>0.1341640786499874</speed>
  <fix>3d</fix>
</trkpt>
<trkpt lat="-27.2744392" lon="151.2900642">
  <ele>344.35</ele>
  <time>2026-09-01T19:50:21Z</time>
  <course>122.22</course>
  <speed>0.11</speed>
  <fix>3d</fix>
</trkpt>
<trkpt lat="-27.2744394" lon="151.2900645">
  <ele>344.78</ele>
  <time>2026-09-01T19:50:21Z</time>
  <course>9.75</course>
  <speed>0.1341640786499874</speed>
  <fix>3d</fix>
</trkpt>
<trkpt lat="-27.2744394" lon="151.2900646">
  <ele>344.91</ele>
  <time>2026-09-01T19:50:21Z</time>
  <course>8.82</course>
  <speed>0.1392838827718412</speed>
  <fix>3d</fix>
</trkpt>
<trkpt lat="-27.2744392" lon="151.2900642">
  <ele>344.35</ele>
  <time>2026-09-01T19:50:21Z</time>
  <course>122.22</course>
  <speed>0.11</speed>
  <fix>3d</fix>
</trkpt>
<trkpt lat="-27.2744394" lon="151.2900646">
  <ele>344.92</ele>
  <time>2026-09-01T19:50:21Z</time>
  <course>8.82</course>
  <speed>0.1392838827718412</speed>
  <fix>3d</fix>
</trkpt>
<trkpt lat="-27.2744394" lon="151.2900647">
  <ele>345.11</ele>
  <time>2026-09-01T19:50:21Z</time>
  <course>8.77</course>
  <speed>0.14560219778561037</speed>
  <fix>3d</fix>
</trkpt>
<trkpt lat="-27.2744393" lon="151.2900645">
  <ele>344.76</ele>
  <time>2026-09-01T19:50:21Z</time>
  <course>112.3</course>
  <speed>0.12</speed>
  <fix>3d</fix>
</trkpt>
<trkpt lat="-27.2744394" lon="151.2900647">
  <ele>345.11</ele>
  <time>2026-09-01T19:50:21Z</time>
  <course>8.77</course>
  <speed>0.14560219778561037</speed>
  <fix>3d</fix>
</trkpt>
<trkpt lat="-27.2744395" lon="151.2900649">
  <ele>345.3</ele>
  <time>2026-09-01T19:50:21Z</time>
  <course>8.75</course>
  <speed>0.14317821063276354</speed>
  <fix>3d</fix>
</trkpt>
<trkpt lat="-27.2744393" lon="151.2900645">
  <ele>344.76</ele>
  <time>2026-09-01T19:50:21Z</time>
  <course>112.3</course>
  <speed>0.12</speed>
  <fix>3d</fix>
</trkpt>
<trkpt lat="-27.2744395" lon="151.2900649">
  <ele>345.35</ele>
  <time>2026-09-01T19:50:21Z</time>
  <course>8.75</course>
  <speed>0.14317821063276354</speed>
  <fix>3d</fix>
</trkpt>
<trkpt lat="-27.2744395" lon="151.290065">
  <ele>345.49</ele>
  <time>2026-09-01T19:50:21Z</time>
  <course>8.74</course>
  <speed>0.15297058540778355</speed>
  <fix>3d</fix>
</trkpt>
<trkpt lat="-27.2744394" lon="151.2900647">
  <ele>345.15</ele>
  <time>2026-09-01T19:50:21Z</time>
  <course>103.45</course>
  <speed>0.14</speed>
  <fix>3d</fix>
</trkpt>
<trkpt lat="-27.2744395" lon="151.2900651">
  <ele>345.54</ele>
  <time>2026-09-01T19:50:21Z</time>
  <course>8.74</course>
  <speed>0.15297058540778355</speed>
  <fix>3d</fix>
</trkpt>
<trkpt lat="-27.2744395" lon="151.2900652">
  <ele>345.68</ele>
  <time>2026-09-01T19:50:21Z</time>
  <course>8.72</course>
  <speed>0.15297058540778355</speed>
  <fix>3d</fix>
</trkpt>
<trkpt lat="-27.2744394" lon="151.2900647">
  <ele>345.15</ele>
  <time>2026-09-01T19:50:21Z</time>
  <course>103.45</course>
  <speed>0.14</speed>
  <fix>3d</fix>
</trkpt>
<trkpt lat="-27.2744395" lon="151.2900652">
  <ele>345.73</ele>
  <time>2026-09-01T19:50:21Z</time>
  <course>8.72</course>
  <speed>0.15297058540778355</speed>
  <fix>3d</fix>
</trkpt>
<trkpt lat="-27.2744395" lon="151.2900653">
  <ele>345.87</ele>
  <time>2026-09-01T19:50:21Z</time>
  <course>8.69</course>
  <speed>0.1649242250247064</speed>
  <fix>3d</fix>
</trkpt>
<trkpt lat="-27.2744394" lon="151.290065">
  <ele>345.54</ele>
  <time>2026-09-01T19:50:21Z</time>
  <course>100.4</course>
  <speed>0.15</speed>
  <fix>3d</fix>
</trkpt>
<trkpt lat="-27.2744395" lon="151.2900653">
  <ele>345.91</ele>
  <time>2026-09-01T19:50:21Z</time>
  <course>8.68</course>
  <speed>0.1649242250247064</speed>
  <fix>3d</fix>
</trkpt>
<trkpt lat="-27.2744395" lon="151.2900655">
  <ele>346.05</ele>
  <time>2026-09-01T19:50:21Z</time>
  <course>8.65</course>
  <speed>0.1649242250247064</speed>
  <fix>3d</fix>
</trkpt>
<trkpt lat="-27.2744394" lon="151.290065">
  <ele>345.54</ele>
  <time>2026-09-01T19:50:21Z</time>
  <course>100.4</course>
  <speed>0.15</speed>
  <fix>3d</fix>
</trkpt>
<trkpt lat="-27.2744395" lon="151.2900655">
  <ele>346.09</ele>
  <time>2026-09-01T19:50:21Z</time>
  <course>8.64</course>
  <speed>0.1649242250247064</speed>
  <fix>3d</fix>
</trkpt>
<trkpt lat="-27.2744396" lon="151.2900656">
  <ele>346.22</ele>
  <time>2026-09-01T19:50:21Z</time>
  <course>8.6</course>
  <speed>0.1676305461424021</speed>
  <fix>3d</fix>
</trkpt>
<trkpt lat="-27.2744395" lon="151.2900653">
  <ele>345.91</ele>
  <time>2026-09-01T19:50:21Z</time>
  <course>101.92</course>
  <speed>0.16</speed>
  <fix>3d</fix>
</trkpt>
<trkpt lat="-27.2744396" lon="151.2900657">
  <ele>346.27</ele>
  <time>2026-09-01T19:50:21Z</time>
  <course>8.59</course>
  <speed>0.1676305461424021</speed>
  <fix>3d</fix>
</trkpt>
<trkpt lat="-27.2744396" lon="151.2900658">
  <ele>346.39</ele>
  <time>2026-09-01T19:50:21Z</time>
  <course>8.55</course>
  <speed>0.1708800749063506</speed>
  <fix>3d</fix>
</trkpt>
<trkpt lat="-27.2744395" lon="151.2900653">
  <ele>345.91</ele>
  <time>2026-09-01T19:50:21Z</time>
  <course>101.92</course>
  <speed>0.16</speed>
  <fix>3d</fix>
</trkpt>
<trkpt lat="-27.2744396" lon="151.2900658">
  <ele>346.43</ele>
  <time>2026-09-01T19:50:21Z</time>
  <course>8.54</course>
  <speed>0.1708800749063506</speed>
  <fix>3d</fix>
</trkpt>
<trkpt lat="-27.2744397" lon="151.2900659">
  <ele>346.56</ele>
  <time>2026-09-01T19:50:21Z</time>
  <course>8.5</course>
  <speed>0.16552945357246848</speed>
  <fix>3d</fix>
</trkpt>
<trkpt lat="-27.2744395" lon="151.2900657">
  <ele>346.26</ele>
  <time>2026-09-01T19:50:21Z</time>
  <course>106.67</course>
  <speed>0.17</speed>
  <fix>3d</fix>
</trkpt>
<trkpt lat="-27.2744397" lon="151.290066">
  <ele>346.6</ele>
  <time>2026-09-01T19:50:21Z</time>
  <course>8.49</course>
  <speed>0.16552945357246848</speed>
  <fix>3d</fix>
</trkpt>
<trkpt lat="-27.2744397" lon="151.2900661">
  <ele>346.72</ele>
  <time>2026-09-01T19:50:21Z</time>
  <course>8.46</course>
  <speed>0.17</speed>
  <fix>3d</fix>
</trkpt>
<trkpt lat="-27.2744395" lon="151.2900657">
  <ele>346.26</ele>
  <time>2026-09-01T19:50:21Z</time>
  <course>106.67</course>
  <speed>0.17</speed>
  <fix>3d</fix>
</trkpt>
<trkpt lat="-27.2744397" lon="151.2900661">
  <ele>346.78</ele>
  <time>2026-09-01T19:50:21Z</time>
  <course>8.44</course>
  <speed>0.17492855684535902</speed>
  <fix>3d</fix>
</trkpt>
<trkpt lat="-27.2744398" lon="151.2900662">
  <ele>346.88</ele>
  <time>2026-09-01T19:50:21Z</time>
  <course>8.41</course>
  <speed>0.18027756377319945</speed>
  <fix>3d</fix>
</trkpt>
<trkpt lat="-27.2744397" lon="151.290066">
  <ele>346.59</ele>
  <time>2026-09-01T19:50:21Z</time>
  <course>113.63</course>
  <speed>0.17</speed>
  <fix>3d</fix>
</trkpt>
<trkpt lat="-27.2744398" lon="151.2900662">
  <ele>346.88</ele>
  <time>2026-09-01T19:50:21Z</time>
  <course>8.41</course>
  <speed>0.18027756377319945</speed>
  <fix>3d</fix>
</trkpt>
<trkpt lat="-27.2744399" lon="151.2900664">
  <ele>347.03</ele>
  <time>2026-09-01T19:50:21Z</time>
  <course>8.35</course>
  <speed>0.17804493814764857</speed>
  <fix>3d</fix>
</trkpt>
<trkpt lat="-27.2744397" lon="151.290066">
  <ele>346.59</ele>
  <time>2026-09-01T19:50:21Z</time>
  <course>113.63</course>
  <speed>0.17</speed>
  <fix>3d</fix>
</trkpt>
<trkpt lat="-27.2744399" lon="151.2900664">
  <ele>347.04</ele>
  <time>2026-09-01T19:50:21Z</time>
  <course>8.35</course>
  <speed>0.17804493814764857</speed>
  <fix>3d</fix>
</trkpt>
<trkpt lat="-27.27444" lon="151.2900665">
  <ele>347.19</ele>
  <time>2026-09-01T19:50:21Z</time>
  <course>8.29</course>
  <speed>0.18439088914585774</speed>
  <fix>3d</fix>
</trkpt>
<trkpt lat="-27.2744398" lon="151.2900663">
  <ele>346.93</ele>
  <time>2026-09-01T19:50:21Z</time>
  <course>121.78</course>
  <speed>0.18</speed>
  <fix>3d</fix>
</trkpt>
<trkpt lat="-27.27444" lon="151.2900666">
  <ele>347.23</ele>
  <time>2026-09-01T19:50:21Z</time>
  <course>8.28</course>
  <speed>0.18439088914585774</speed>
  <fix>3d</fix>
</trkpt>
<trkpt lat="-27.2744401" lon="151.2900667">
  <ele>347.35</ele>
  <time>2026-09-01T19:50:21Z</time>
  <course>8.22</course>
  <speed>0.18384776310850234</speed>
  <fix>3d</fix>
</trkpt>
<trkpt lat="-27.2744398" lon="151.2900663">
  <ele>346.93</ele>
  <time>2026-09-01T19:50:21Z</time>
  <course>121.78</course>
  <speed>0.18</speed>
  <fix>3d</fix>
</trkpt>
<trkpt lat="-27.2744401" lon="151.2900667">
  <ele>347.38</ele>
  <time>2026-09-01T19:50:21Z</time>
  <course>8.2</course>
  <speed>0.191049731745428</speed>
  <fix>3d</fix>
</trkpt>
<trkpt lat="-27.2744402" lon="151.2900668">
  <ele>347.5</ele>
  <time>2026-09-01T19:50:21Z</time>
  <course>8.14</course>
  <speed>0.19849433241279207</speed>
  <fix>3d</fix>
</trkpt>
<trkpt lat="-27.27444" lon="151.2900666">
  <ele>347.24</ele>
  <time>2026-09-01T19:50:21Z</time>
  <course>130.01</course>
  <speed>0.19</speed>
  <fix>3d</fix>
</trkpt>
<trkpt lat="-27.2744402" lon="151.2900669">
  <ele>347.53</ele>
  <time>2026-09-01T19:50:21Z</time>
  <course>8.13</course>
  <speed>0.19209372712298545</speed>
  <fix>3d</fix>
</trkpt>
<trkpt lat="-27.2744404" lon="151.2900669">
  <ele>347.65</ele>
  <time>2026-09-01T19:50:21Z</time>
  <course>8.06</course>
  <speed>0.2</speed>
  <fix>3d</fix>
</trkpt>
<trkpt lat="-27.27444" lon="151.2900666">
  <ele>347.24</ele>
  <time>2026-09-01T19:50:21Z</time>
  <course>130.01</course>
  <speed>0.19</speed>
  <fix>3d</fix>
</trkpt>
<trkpt lat="-27.2744404" lon="151.290067">
  <ele>347.68</ele>
  <time>2026-09-01T19:50:21Z</time>
  <course>8.04</course>
  <speed>0.2</speed>
  <fix>3d</fix>
</trkpt>
<trkpt lat="-27.2744405" lon="151.2900671">
  <ele>347.8</ele>
  <time>2026-09-01T19:50:21Z</time>
  <course>7.97</course>
  <speed>0.20248456731316586</speed>
  <fix>3d</fix>
</trkpt>
<trkpt lat="-27.2744403" lon="151.2900669">
  <ele>347.54</ele>
  <time>2026-09-01T19:50:21Z</time>
  <course>137.77</course>
  <speed>0.2</speed>
  <fix>3d</fix>
</trkpt>
<trkpt lat="-27.2744405" lon="151.2900671">
  <ele>347.83</ele>
  <time>2026-09-01T19:50:21Z</time>
  <course>7.95</course>
  <speed>0.20248456731316586</speed>
  <fix>3d</fix>
</trkpt>
<trkpt lat="-27.2744407" lon="151.2900672">
  <ele>347.94</ele>
  <time>2026-09-01T19:50:21Z</time>
  <course>7.88</course>
  <speed>0.20591260281974003</speed>
  <fix>3d</fix>
</trkpt>
<trkpt lat="-27.2744403" lon="151.2900669">
  <ele>347.54</ele>
  <time>2026-09-01T19:50:21Z</time>
  <course>137.77</course>
  <speed>0.2</speed>
  <fix>3d</fix>
</trkpt>
<trkpt lat="-27.2744407" lon="151.2900672">
  <ele>347.98</ele>
  <time>2026-09-01T19:50:21Z</time>
  <course>7.86</course>
  <speed>0.20591260281974003</speed>
  <fix>3d</fix>
</trkpt>
<trkpt lat="-27.2744408" lon="151.2900673">
  <ele>348.09</ele>
  <time>2026-09-01T19:50:21Z</time>
  <course>7.79</course>
  <speed>0.20124611797498107</speed>
  <fix>3d</fix>
</trkpt>
<trkpt lat="-27.2744405" lon="151.2900672">
  <ele>347.84</ele>
  <time>2026-09-01T19:50:21Z</time>
  <course>145.04</course>
  <speed>0.21</speed>
  <fix>3d</fix>
</trkpt>
<trkpt lat="-27.2744409" lon="151.2900673">
  <ele>348.13</ele>
  <time>2026-09-01T19:50:21Z</time>
  <course>7.76</course>
  <speed>0.2102379604162864</speed>
  <fix>3d</fix>
</trkpt>
<trkpt lat="-27.274441" lon="151.2900674">
  <ele>348.23</ele>
  <time>2026-09-01T19:50:21Z</time>
  <course>7.68</course>
  <speed>0.20615528128088303</speed>
  <fix>3d</fix>
</trkpt>
<trkpt lat="-27.2744405" lon="151.2900672">
  <ele>347.84</ele>
  <time>2026-09-01T19:50:21Z</time>
  <course>145.04</course>
  <speed>0.21</speed>
  <fix>3d</fix>
</trkpt>
<trkpt lat="-27.274441" lon="151.2900674">
  <ele>348.26</ele>
  <time>2026-09-01T19:50:21Z</time>
  <course>7.66</course>
  <speed>0.20615528128088303</speed>
  <fix>3d</fix>
</trkpt>
<trkpt lat="-27.2744412" lon="151.2900675">
  <ele>348.38</ele>
  <time>2026-09-01T19:50:21Z</time>
  <course>7.58</course>
  <speed>0.21189620100417092</speed>
  <fix>3d</fix>
</trkpt>
<trkpt lat="-27.2744409" lon="151.2900674">
  <ele>348.13</ele>
  <time>2026-09-01T19:50:21Z</time>
  <course>151.69</course>
  <speed>0.21</speed>
  <fix>3d</fix>
</trkpt>
<trkpt lat="-27.2744412" lon="151.2900675">
  <ele>348.41</ele>
  <time>2026-09-01T19:50:21Z</time>
  <course>7.55</course>
  <speed>0.21189620100417092</speed>
  <fix>3d</fix>
</trkpt>
<trkpt lat="-27.2744413" lon="151.2900676">
  <ele>348.52</ele>
  <time>2026-09-01T19:50:21Z</time>
  <course>7.46</course>
  <speed>0.208806130178211</speed>
  <fix>3d</fix>
</trkpt>
<trkpt lat="-27.2744409" lon="151.2900674">
  <ele>348.13</ele>
  <time>2026-09-01T19:50:21Z</time>
  <course>151.69</course>
  <speed>0.21</speed>
  <fix>3d</fix>
</trkpt>
<trkpt lat="-27.2744414" lon="151.2900676">
  <ele>348.53</ele>
  <time>2026-09-01T19:50:21Z</time>
  <course>7.46</course>
  <speed>0.208806130178211</speed>
  <fix>3d</fix>
</trkpt>
<trkpt lat="-27.2744415" lon="151.2900676">
  <ele>348.66</ele>
  <time>2026-09-01T19:50:21Z</time>
  <course>7.35</course>
  <speed>0.20615528128088303</speed>
  <fix>3d</fix>
</trkpt>
<trkpt lat="-27.2744412" lon="151.2900675">
  <ele>348.41</ele>
  <time>2026-09-01T19:50:21Z</time>
  <course>157.7</course>
  <speed>0.21</speed>
  <fix>3d</fix>
</trkpt>
<trkpt lat="-27.2744415" lon="151.2900676">
  <ele>348.67</ele>
  <time>2026-09-01T19:50:21Z</time>
  <course>7.34</course>
  <speed>0.20615528128088303</speed>
  <fix>3d</fix>
</trkpt>
<trkpt lat="-27.2744417" lon="151.2900677">
  <ele>348.8</ele>
  <time>2026-09-01T19:50:21Z</time>
  <course>7.23</course>
  <speed>0.196468827043885</speed>
  <fix>3d</fix>
</trkpt>
<trkpt lat="-27.2744412" lon="151.2900675">
  <ele>348.41</ele>
  <time>2026-09-01T19:50:21Z</time>
  <course>157.7</course>
  <speed>0.21</speed>
  <fix>3d</fix>
</trkpt>
<trkpt lat="-27.2744417" lon="151.2900677">
  <ele>348.8</ele>
  <time>2026-09-01T19:50:21Z</time>
  <course>7.23</course>
  <speed>0.194164878389476</speed>
  <fix>3d</fix>
</trkpt>
<trkpt lat="-27.2744419" lon="151.2900677">
  <ele>348.94</ele>
  <time>2026-09-01T19:50:21Z</time>
  <course>7.11</course>
  <speed>0.194164878389476</speed>
  <fix>3d</fix>
</trkpt>
<trkpt lat="-27.2744415" lon="151.2900677">
  <ele>348.7</ele>
  <time>2026-09-01T19:50:21Z</time>
  <course>163.08</course>
  <speed>0.21</speed>
  <fix>3d</fix>
</trkpt>
<trkpt lat="-27.2744419" lon="151.2900677">
  <ele>348.94</ele>
  <time>2026-09-01T19:50:21Z</time>
  <course>7.1</course>
  <speed>0.19235384061671343</speed>
  <fix>3d</fix>
</trkpt>
<trkpt lat="-27.274442" lon="151.2900678">
  <ele>349.08</ele>
  <time>2026-09-01T19:50:21Z</time>
  <course>6.98</course>
  <speed>0.1824828759089466</speed>
  <fix>3d</fix>
</trkpt>
<trkpt lat="-27.2744415" lon="151.2900677">
  <ele>348.7</ele>
  <time>2026-09-01T19:50:21Z</time>
  <course>163.08</course>
  <speed>0.21</speed>
  <fix>3d</fix>
</trkpt>
<trkpt lat="-27.2744421" lon="151.2900678">
  <ele>349.11</ele>
  <time>2026-09-01T19:50:21Z</time>
  <course>6.95</course>
  <speed>0.1711724276862369</speed>
  <fix>3d</fix>
</trkpt>
<trkpt lat="-27.2744422" lon="151.2900678">
  <ele>349.21</ele>
  <time>2026-09-01T19:50:21Z</time>
  <course>6.85</course>
  <speed>0.1711724276862369</speed>
  <fix>3d</fix>
</trkpt>
<trkpt lat="-27.274442" lon="151.2900678">
  <ele>348.97</ele>
  <time>2026-09-01T19:50:21Z</time>
  <course>168.29</course>
  <speed>0.19</speed>
  <fix>3d</fix>
</trkpt>
<trkpt lat="-27.2744422" lon="151.2900678">
  <ele>349.25</ele>
  <time>2026-09-01T19:50:21Z</time>
  <course>6.82</course>
  <speed>0.16031219541881397</speed>
  <fix>3d</fix>
</trkpt>
<trkpt lat="-27.2744423" lon="151.2900678">
  <ele>349.35</ele>
  <time>2026-09-01T19:50:21Z</time>
  <course>6.72</course>
  <speed>0.15033296378372907</speed>
  <fix>3d</fix>
</trkpt>
<trkpt lat="-27.274442" lon="151.2900678">
  <ele>348.97</ele>
  <time>2026-09-01T19:50:21Z</time>
  <course>168.29</course>
  <speed>0.19</speed>
  <fix>3d</fix>
</trkpt>
<trkpt lat="-27.2744424" lon="151.2900678">
  <ele>349.39</ele>
  <time>2026-09-01T19:50:21Z</time>
  <course>6.69</course>
  <speed>0.15</speed>
  <fix>3d</fix>
</trkpt>
<trkpt lat="-27.2744425" lon="151.2900678">
  <ele>349.49</ele>
  <time>2026-09-01T19:50:21Z</time>
  <course>6.59</course>
  <speed>0.14</speed>
  <fix>3d</fix>
</trkpt>
<trkpt lat="-27.2744423" lon="151.2900679">
  <ele>349.26</ele>
  <time>2026-09-01T19:50:21Z</time>
  <course>174.17</course>
  <speed>0.17</speed>
  <fix>3d</fix>
</trkpt>
<trkpt lat="-27.2744425" lon="151.2900678">
  <ele>349.53</ele>
  <time>2026-09-01T19:50:21Z</time>
  <course>6.56</course>
  <speed>0.14</speed>
  <fix>3d</fix>
</trkpt>
<trkpt lat="-27.2744426" lon="151.2900678">
  <ele>349.63</ele>
  <time>2026-09-01T19:50:21Z</time>
  <course>6.46</course>
  <speed>0.12</speed>
  <fix>3d</fix>
</trkpt>
<trkpt lat="-27.2744423" lon="151.2900679">
  <ele>349.26</ele>
  <time>2026-09-01T19:50:21Z</time>
  <course>174.17</course>
  <speed>0.17</speed>
  <fix>3d</fix>
</trkpt>
<trkpt lat="-27.2744426" lon="151.2900678">
  <ele>349.66</ele>
  <time>2026-09-01T19:50:21Z</time>
  <course>6.42</course>
  <speed>0.12041594578792296</speed>
  <fix>3d</fix>
</trkpt>
<trkpt lat="-27.2744427" lon="151.2900678">
  <ele>349.77</ele>
  <time>2026-09-01T19:50:21Z</time>
  <course>6.32</course>
  <speed>0.11045361017187261</speed>
  <fix>3d</fix>
</trkpt>
<trkpt lat="-27.2744426" lon="151.2900679">
  <ele>349.53</ele>
  <time>2026-09-01T19:50:21Z</time>
  <course>181.83</course>
  <speed>0.14</speed>
  <fix>3d</fix>
</trkpt>
<trkpt lat="-27.2744427" lon="151.2900678">
  <ele>349.8</ele>
  <time>2026-09-01T19:50:21Z</time>
  <course>6.29</course>
  <speed>0.1019803902718557</speed>
  <fix>3d</fix>
</trkpt>
<trkpt lat="-27.2744428" lon="151.2900678">
  <ele>349.9</ele>
  <time>2026-09-01T19:50:21Z</time>
  <course>6.19</course>
  <speed>0.09219544457292887</speed>
  <fix>3d</fix>
</trkpt>
<trkpt lat="-27.2744426" lon="151.2900679">
  <ele>349.53</ele>
  <time>2026-09-01T19:50:21Z</time>
  <course>181.83</course>
  <speed>0.14</speed>
  <fix>3d</fix>
</trkpt>
<trkpt lat="-27.2744428" lon="151.2900678">
  <ele>349.94</ele>
  <time>2026-09-01T19:50:21Z</time>
  <course>6.15</course>
  <speed>0.09486832980505139</speed>
  <fix>3d</fix>
</trkpt>
<trkpt lat="-27.2744429" lon="151.2900678">
  <ele>350.04</ele>
  <time>2026-09-01T19:50:21Z</time>
  <course>6.05</course>
  <speed>0.0854400374531753</speed>
  <fix>3d</fix>
</trkpt>
<trkpt lat="-27.2744428" lon="151.2900679">
  <ele>349.81</ele>
  <time>2026-09-01T19:50:21Z</time>
  <course>193.17</course>
  <speed>0.11</speed>
  <fix>3d</fix>
</trkpt>
<trkpt lat="-27.2744429" lon="151.2900678">
  <ele>350.05</ele>
  <time>2026-09-01T19:50:21Z</time>
  <course>6.05</course>
  <speed>0.0854400374531753</speed>
  <fix>3d</fix>
</trkpt>
<trkpt lat="-27.274443" lon="151.2900678">
  <ele>350.18</ele>
  <time>2026-09-01T19:50:21Z</time>
  <course>5.92</course>
  <speed>0.07211102550927978</speed>
  <fix>3d</fix>
</trkpt>
<trkpt lat="-27.2744428" lon="151.2900679">
  <ele>349.81</ele>
  <time>2026-09-01T19:50:21Z</time>
  <course>193.17</course>
  <speed>0.11</speed>
  <fix>3d</fix>
</trkpt>
<trkpt lat="-27.274443" lon="151.2900678">
  <ele>350.19</ele>
  <time>2026-09-01T19:50:21Z</time>
  <course>5.91</course>
  <speed>0.07211102550927978</speed>
  <fix>3d</fix>
</trkpt>
<trkpt lat="-27.274443" lon="151.2900678">
  <ele>350.32</ele>
  <time>2026-09-01T19:50:22Z</time>
  <course>5.79</course>
  <speed>0.06403124237432849</speed>
  <fix>3d</fix>
</trkpt>
<trkpt lat="-27.274443" lon="151.2900678">
  <ele>350.09</ele>
  <time>2026-09-01T19:50:22Z</time>
  <course>210.86</course>
  <speed>0.09</speed>
  <fix>3d</fix>
</trkpt>
<trkpt lat="-27.274443" lon="151.2900677">
  <ele>350.36</ele>
  <time>2026-09-01T19:50:22Z</time>
  <course>5.75</course>
  <speed>0.06403124237432849</speed>
  <fix>3d</fix>
</trkpt>
<trkpt lat="-27.2744431" lon="151.2900677">
  <ele>350.47</ele>
  <time>2026-09-01T19:50:22Z</time>
  <course>5.66</course>
  <speed>0.0670820393249937</speed>
  <fix>3d</fix>
</trkpt>
<trkpt lat="-27.274443" lon="151.2900678">
  <ele>350.09</ele>
  <time>2026-09-01T19:50:22Z</time>
  <course>210.86</course>
  <speed>0.09</speed>
  <fix>3d</fix>
</trkpt>
<trkpt lat="-27.2744431" lon="151.2900677">
  <ele>350.51</ele>
  <time>2026-09-01T19:50:22Z</time>
  <course>5.62</course>
  <speed>0.0632455532033676</speed>
  <fix>3d</fix>
</trkpt>
<trkpt lat="-27.2744431" lon="151.2900676">
  <ele>350.61</ele>
  <time>2026-09-01T19:50:22Z</time>
  <course>5.53</course>
  <speed>0.07071067811865475</speed>
  <fix>3d</fix>
</trkpt>
<trkpt lat="-27.2744431" lon="151.2900678">
  <ele>350.38</ele>
  <time>2026-09-01T19:50:22Z</time>
  <course>235.96</course>
  <speed>0.08</speed>
  <fix>3d</fix>
</trkpt>
<trkpt lat="-27.2744431" lon="151.2900676">
  <ele>350.65</ele>
  <time>2026-09-01T19:50:22Z</time>
  <course>5.49</course>
  <speed>0.07071067811865475</speed>
  <fix>3d</fix>
</trkpt>
<trkpt lat="-27.2744431" lon="151.2900675">
  <ele>350.76</ele>
  <time>2026-09-01T19:50:22Z</time>
  <course>5.4</course>
  <speed>0.08</speed>
  <fix>3d</fix>
</trkpt>
<trkpt lat="-27.2744431" lon="151.2900678">
  <ele>350.38</ele>
  <time>2026-09-01T19:50:22Z</time>
  <course>235.96</course>
  <speed>0.08</speed>
  <fix>3d</fix>
</trkpt>
<trkpt lat="-27.2744431" lon="151.2900675">
  <ele>350.79</ele>
  <time>2026-09-01T19:50:22Z</time>
  <course>5.37</course>
  <speed>0.08</speed>
  <fix>3d</fix>
</trkpt>
<trkpt lat="-27.2744431" lon="151.2900675">
  <ele>350.9</ele>
  <time>2026-09-01T19:50:22Z</time>
  <course>5.28</course>
  <speed>0.08062257748298549</speed>
  <fix>3d</fix>
</trkpt>
<trkpt lat="-27.2744432" lon="151.2900677">
  <ele>350.66</ele>
  <time>2026-09-01T19:50:22Z</time>
  <course>261.51</course>
  <speed>0.09</speed>
  <fix>3d</fix>
</trkpt>
<trkpt lat="-27.2744431" lon="151.2900674">
  <ele>350.94</ele>
  <time>2026-09-01T19:50:22Z</time>
  <course>5.24</course>
  <speed>0.09055385138137417</speed>
  <fix>3d</fix>
</trkpt>
<trkpt lat="-27.2744431" lon="151.2900674">
  <ele>351.05</ele>
  <time>2026-09-01T19:50:22Z</time>
  <course>5.16</course>
  <speed>0.09219544457292887</speed>
  <fix>3d</fix>
</trkpt>
<trkpt lat="-27.2744432" lon="151.2900677">
  <ele>350.66</ele>
  <time>2026-09-01T19:50:22Z</time>
  <course>261.51</course>
  <speed>0.09</speed>
  <fix>3d</fix>
</trkpt>
<trkpt lat="-27.2744431" lon="151.2900673">
  <ele>351.09</ele>
  <time>2026-09-01T19:50:22Z</time>
  <course>5.12</course>
  <speed>0.09219544457292887</speed>
  <fix>3d</fix>
</trkpt>
<trkpt lat="-27.2744431" lon="151.2900673">
  <ele>351.2</ele>
  <time>2026-09-01T19:50:22Z</time>
  <course>5.03</course>
  <speed>0.1044030650891055</speed>
  <fix>3d</fix>
</trkpt>
<trkpt lat="-27.2744432" lon="151.2900675">
  <ele>350.96</ele>
  <time>2026-09-01T19:50:22Z</time>
  <course>279.4</course>
  <speed>0.1</speed>
  <fix>3d</fix>
</trkpt>
<trkpt lat="-27.274443" lon="151.2900672">
  <ele>351.24</ele>
  <time>2026-09-01T19:50:22Z</time>
  <course>5.0</course>
  <speed>0.1044030650891055</speed>
  <fix>3d</fix>
</trkpt>
<trkpt lat="-27.2744431" lon="151.2900672">
  <ele>351.35</ele>
  <time>2026-09-01T19:50:22Z</time>
  <course>4.92</course>
  <speed>0.11704699910719625</speed>
  <fix>3d</fix>
</trkpt>
<trkpt lat="-27.2744432" lon="151.2900675">
  <ele>350.96</ele>
  <time>2026-09-01T19:50:22Z</time>
  <course>279.4</course>
  <speed>0.1</speed>
  <fix>3d</fix>
</trkpt>
<trkpt lat="-27.2744431" lon="151.2900671">
  <ele>351.39</ele>
  <time>2026-09-01T19:50:22Z</time>
  <course>4.9</course>
  <speed>0.11704699910719625</speed>
  <fix>3d</fix>
</trkpt>
<trkpt lat="-27.2744431" lon="151.290067">
  <ele>351.5</ele>
  <time>2026-09-01T19:50:22Z</time>
  <course>4.81</course>
  <speed>0.12083045973594572</speed>
  <fix>3d</fix>
</trkpt>
<trkpt lat="-27.2744431" lon="151.2900672">
  <ele>351.25</ele>
  <time>2026-09-01T19:50:22Z</time>
  <course>289.62</course>
  <speed>0.13</speed>
  <fix>3d</fix>
</trkpt>
<trkpt lat="-27.2744431" lon="151.290067">
  <ele>351.54</ele>
  <time>2026-09-01T19:50:22Z</time>
  <course>4.78</course>
  <speed>0.12083045973594572</speed>
  <fix>3d</fix>
</trkpt>
<trkpt lat="-27.274443" lon="151.2900669">
  <ele>351.65</ele>
  <time>2026-09-01T19:50:22Z</time>
  <course>4.7</course>
  <speed>0.1341640786499874</speed>
  <fix>3d</fix>
</trkpt>
<trkpt lat="-27.2744431" lon="151.2900672">
  <ele>351.25</ele>
  <time>2026-09-01T19:50:22Z</time>
  <course>289.62</course>
  <speed>0.13</speed>
  <fix>3d</fix>
</trkpt>
<trkpt lat="-27.274443" lon="151.2900669">
  <ele>351.65</ele>
  <time>2026-09-01T19:50:22Z</time>
  <course>4.7</course>
  <speed>0.1341640786499874</speed>
  <fix>3d</fix>
</trkpt>
<trkpt lat="-27.274443" lon="151.2900668">
  <ele>351.8</ele>
  <time>2026-09-01T19:50:22Z</time>
  <course>4.6</course>
  <speed>0.13892443989449804</speed>
  <fix>3d</fix>
</trkpt>
<trkpt lat="-27.2744431" lon="151.2900669">
  <ele>351.54</ele>
  <time>2026-09-01T19:50:22Z</time>
  <course>295.23</course>
  <speed>0.15</speed>
  <fix>3d</fix>
</trkpt>
<trkpt lat="-27.274443" lon="151.2900668">
  <ele>351.8</ele>
  <time>2026-09-01T19:50:22Z</time>
  <course>4.6</course>
  <speed>0.13892443989449804</speed>
  <fix>3d</fix>
</trkpt>
<trkpt lat="-27.2744429" lon="151.2900666">
  <ele>351.95</ele>
  <time>2026-09-01T19:50:22Z</time>
  <course>4.5</course>
  <speed>0.147648230602334</speed>
  <fix>3d</fix>
</trkpt>
<trkpt lat="-27.2744431" lon="151.2900669">
  <ele>351.54</ele>
  <time>2026-09-01T19:50:22Z</time>
  <course>295.23</course>
  <speed>0.15</speed>
  <fix>3d</fix>
</trkpt>
<trkpt lat="-27.2744429" lon="151.2900666">
  <ele>351.98</ele>
  <time>2026-09-01T19:50:22Z</time>
  <course>4.47</course>
  <speed>0.147648230602334</speed>
  <fix>3d</fix>
</trkpt>
<trkpt lat="-27.2744428" lon="151.2900665">
  <ele>352.09</ele>
  <time>2026-09-01T19:50:22Z</time>
  <course>4.4</course>
  <speed>0.15264337522473748</speed>
  <fix>3d</fix>
</trkpt>
<trkpt lat="-27.274443" lon="151.2900666">
  <ele>351.84</ele>
  <time>2026-09-01T19:50:22Z</time>
  <course>298.48</course>
  <speed>0.17</speed>
  <fix>3d</fix>
</trkpt>
<trkpt lat="-27.2744428" lon="151.2900664">
  <ele>352.13</ele>
  <time>2026-09-01T19:50:22Z</time>
  <course>4.38</course>
  <speed>0.15264337522473748</speed>
  <fix>3d</fix>
</trkpt>
<trkpt lat="-27.2744428" lon="151.2900663">
  <ele>352.24</ele>
  <time>2026-09-01T19:50:22Z</time>
  <course>4.31</course>
  <speed>0.16124515496597097</speed>
  <fix>3d</fix>
</trkpt>
<trkpt lat="-27.274443" lon="151.2900666">
  <ele>351.84</ele>
  <time>2026-09-01T19:50:22Z</time>
  <course>298.48</course>
  <speed>0.17</speed>
  <fix>3d</fix>
</trkpt>
<trkpt lat="-27.2744427" lon="151.2900663">
  <ele>352.28</ele>
  <time>2026-09-01T19:50:22Z</time>
  <course>4.29</course>
  <speed>0.16124515496597097</speed>
  <fix>3d</fix>
</trkpt>
<trkpt lat="-27.2744427" lon="151.2900662">
  <ele>352.39</ele>
  <time>2026-09-01T19:50:22Z</time>
  <course>4.23</course>
  <speed>0.16124515496597097</speed>
  <fix>3d</fix>
</trkpt>
<trkpt lat="-27.2744428" lon="151.2900663">
  <ele>352.13</ele>
  <time>2026-09-01T19:50:22Z</time>
  <course>300.58</course>
  <speed>0.18</speed>
  <fix>3d</fix>
</trkpt>
<trkpt lat="-27.2744427" lon="151.2900661">
  <ele>352.43</ele>
  <time>2026-09-01T19:50:22Z</time>
  <course>4.21</course>
  <speed>0.16124515496597097</speed>
  <fix>3d</fix>
</trkpt>
<trkpt lat="-27.2744426" lon="151.290066">
  <ele>352.53</ele>
  <time>2026-09-01T19:50:22Z</time>
  <course>4.15</course>
  <speed>0.1664331697709324</speed>
  <fix>3d</fix>
</trkpt>
<trkpt lat="-27.2744428" lon="151.2900663">
  <ele>352.13</ele>
  <time>2026-09-01T19:50:22Z</time>
  <course>300.58</course>
  <speed>0.18</speed>
  <fix>3d</fix>
</trkpt>
<trkpt lat="-27.2744426" lon="151.2900659">
  <ele>352.57</ele>
  <time>2026-09-01T19:50:22Z</time>
  <course>4.13</course>
  <speed>0.1664331697709324</speed>
  <fix>3d</fix>
</trkpt>
<trkpt lat="-27.2744425" lon="151.2900658">
  <ele>352.68</ele>
  <time>2026-09-01T19:50:22Z</time>
  <course>4.08</course>
  <speed>0.1664331697709324</speed>
  <fix>3d</fix>
</trkpt>
<trkpt lat="-27.2744426" lon="151.2900659">
  <ele>352.43</ele>
  <time>2026-09-01T19:50:22Z</time>
  <course>302.14</course>
  <speed>0.19</speed>
  <fix>3d</fix>
</trkpt>
<trkpt lat="-27.2744425" lon="151.2900658">
  <ele>352.72</ele>
  <time>2026-09-01T19:50:22Z</time>
  <course>4.06</course>
  <speed>0.1664331697709324</speed>
  <fix>3d</fix>
</trkpt>
<trkpt lat="-27.2744424" lon="151.2900656">
  <ele>352.83</ele>
  <time>2026-09-01T19:50:22Z</time>
  <course>4.01</course>
  <speed>0.17492855684535902</speed>
  <fix>3d</fix>
</trkpt>
<trkpt lat="-27.2744426" lon="151.2900659">
  <ele>352.43</ele>
  <time>2026-09-01T19:50:22Z</time>
  <course>302.14</course>
  <speed>0.19</speed>
  <fix>3d</fix>
</trkpt>
<trkpt lat="-27.2744424" lon="151.2900656">
  <ele>352.83</ele>
  <time>2026-09-01T19:50:22Z</time>
  <course>4.01</course>
  <speed>0.17492855684535902</speed>
  <fix>3d</fix>
</trkpt>
<trkpt lat="-27.2744423" lon="151.2900655">
  <ele>352.97</ele>
  <time>2026-09-01T19:50:22Z</time>
  <course>3.96</course>
  <speed>0.17492855684535902</speed>
  <fix>3d</fix>
</trkpt>
<trkpt lat="-27.2744424" lon="151.2900656">
  <ele>352.72</ele>
  <time>2026-09-01T19:50:22Z</time>
  <course>303.21</course>
  <speed>0.2</speed>
  <fix>3d</fix>
</trkpt>
<trkpt lat="-27.2744423" lon="151.2900654">
  <ele>353.01</ele>
  <time>2026-09-01T19:50:22Z</time>
  <course>3.94</course>
  <speed>0.17492855684535902</speed>
  <fix>3d</fix>
</trkpt>
<trkpt lat="-27.2744422" lon="151.2900653">
  <ele>353.12</ele>
  <time>2026-09-01T19:50:22Z</time>
  <course>3.91</course>
  <speed>0.17</speed>
  <fix>3d</fix>
</trkpt>
<trkpt lat="-27.2744424" lon="151.2900656">
  <ele>352.72</ele>
  <time>2026-09-01T19:50:22Z</time>
  <course>303.21</course>
  <speed>0.2</speed>
  <fix>3d</fix>
</trkpt>
<trkpt lat="-27.2744422" lon="151.2900651">
  <ele>353.26</ele>
  <time>2026-09-01T19:50:22Z</time>
  <course>3.86</course>
  <speed>0.17</speed>
  <fix>3d</fix>
</trkpt>
<trkpt lat="-27.2744422" lon="151.2900652">
  <ele>353.01</ele>
  <time>2026-09-01T19:50:22Z</time>
  <course>303.55</course>
  <speed>0.2</speed>
  <fix>3d</fix>
</trkpt>
<trkpt lat="-27.2744421" lon="151.290065">
  <ele>353.41</ele>
  <time>2026-09-01T19:50:22Z</time>
  <course>3.82</course>
  <speed>0.16124515496597097</speed>
  <fix>3d</fix>
</trkpt>
<trkpt lat="-27.2744422" lon="151.2900652">
  <ele>353.01</ele>
  <time>2026-09-01T19:50:22Z</time>
  <course>303.55</course>
  <speed>0.2</speed>
  <fix>3d</fix>
</trkpt>
<trkpt lat="-27.274442" lon="151.2900648">
  <ele>353.55</ele>
  <time>2026-09-01T19:50:22Z</time>
  <course>3.78</course>
  <speed>0.18384776310850234</speed>
  <fix>3d</fix>
</trkpt>
<trkpt lat="-27.274442" lon="151.2900649">
  <ele>353.3</ele>
  <time>2026-09-01T19:50:22Z</time>
  <course>303.86</course>
  <speed>0.2</speed>
  <fix>3d</fix>
</trkpt>
<trkpt lat="-27.2744418" lon="151.2900646">
  <ele>353.68</ele>
  <time>2026-09-01T19:50:22Z</time>
  <course>3.76</course>
  <speed>0.25495097567963926</speed>
  <fix>3d</fix>
</trkpt>
<trkpt lat="-27.274442" lon="151.2900649">
  <ele>353.3</ele>
  <time>2026-09-01T19:50:22Z</time>
  <course>303.86</course>
  <speed>0.2</speed>
  <fix>3d</fix>
</trkpt>
<trkpt lat="-27.2744415" lon="151.2900645">
  <ele>353.8</ele>
  <time>2026-09-01T19:50:22Z</time>
  <course>3.7</course>
  <speed>0.3905124837953327</speed>
  <fix>3d</fix>
</trkpt>
<trkpt lat="-27.2744417" lon="151.2900646">
  <ele>353.58</ele>
  <time>2026-09-01T19:50:22Z</time>
  <course>320.34</course>
  <speed>0.24</speed>
  <fix>3d</fix>
</trkpt>
<trkpt lat="-27.274441" lon="151.2900644">
  <ele>353.9</ele>
  <time>2026-09-01T19:50:22Z</time>
  <course>3.65</course>
  <speed>0.5742821606144493</speed>
  <fix>3d</fix>
</trkpt>
<trkpt lat="-27.2744417" lon="151.2900646">
  <ele>353.58</ele>
  <time>2026-09-01T19:50:22Z</time>
  <course>320.34</course>
  <speed>0.24</speed>
  <fix>3d</fix>
</trkpt>
<trkpt lat="-27.2744404" lon="151.2900643">
  <ele>353.98</ele>
  <time>2026-09-01T19:50:22Z</time>
  <course>3.6</course>
  <speed>0.7910120100226039</speed>
  <fix>3d</fix>
</trkpt>
<trkpt lat="-27.2744412" lon="151.2900643">
  <ele>353.81</ele>
  <time>2026-09-01T19:50:22Z</time>
  <course>343.61</course>
  <speed>0.44</speed>
  <fix>3d</fix>
</trkpt>
<trkpt lat="-27.2744395" lon="151.2900643">
  <ele>354.05</ele>
  <time>2026-09-01T19:50:22Z</time>
  <course>3.57</course>
  <speed>1.0401922899156675</speed>
  <fix>3d</fix>
</trkpt>
<trkpt lat="-27.2744412" lon="151.2900643">
  <ele>353.81</ele>
  <time>2026-09-01T19:50:22Z</time>
  <course>343.61</course>
  <speed>0.44</speed>
  <fix>3d</fix>
</trkpt>
<trkpt lat="-27.2744385" lon="151.2900642">
  <ele>354.1</ele>
  <time>2026-09-01T19:50:22Z</time>
  <course>3.46</course>
  <speed>1.3</speed>
  <fix>3d</fix>
</trkpt>
<trkpt lat="-27.2744401" lon="151.2900641">
  <ele>353.99</ele>
  <time>2026-09-01T19:50:22Z</time>
  <course>353.84</course>
  <speed>0.83</speed>
  <fix>3d</fix>
</trkpt>
<trkpt lat="-27.2744372" lon="151.2900642">
  <ele>354.15</ele>
  <time>2026-09-01T19:50:22Z</time>
  <course>3.35</course>
  <speed>1.5500322577288512</speed>
  <fix>3d</fix>
</trkpt>
<trkpt lat="-27.2744401" lon="151.2900641">
  <ele>353.99</ele>
  <time>2026-09-01T19:50:22Z</time>
  <course>353.84</course>
  <speed>0.83</speed>
  <fix>3d</fix>
</trkpt>
<trkpt lat="-27.2744357" lon="151.2900642">
  <ele>354.19</ele>
  <time>2026-09-01T19:50:22Z</time>
  <course>3.21</course>
  <speed>1.7902513789968157</speed>
  <fix>3d</fix>
</trkpt>
<trkpt lat="-27.2744382" lon="151.290064">
  <ele>354.12</ele>
  <time>2026-09-01T19:50:22Z</time>
  <course>357.52</course>
  <speed>1.32</speed>
  <fix>3d</fix>
</trkpt>
<trkpt lat="-27.2744339" lon="151.2900642">
  <ele>354.22</ele>
  <time>2026-09-01T19:50:22Z</time>
  <course>3.08</course>
  <speed>2.000399960007998</speed>
  <fix>3d</fix>
</trkpt>
<trkpt lat="-27.2744382" lon="151.290064">
  <ele>354.12</ele>
  <time>2026-09-01T19:50:22Z</time>
  <course>357.52</course>
  <speed>1.32</speed>
  <fix>3d</fix>
</trkpt>
<trkpt lat="-27.274432" lon="151.2900642">
  <ele>354.25</ele>
  <time>2026-09-01T19:50:22Z</time>
  <course>2.92</course>
  <speed>2.2105655384991416</speed>
  <fix>3d</fix>
</trkpt>
<trkpt lat="-27.2744354" lon="151.2900639">
  <ele>354.2</ele>
  <time>2026-09-01T19:50:22Z</time>
  <course>358.98</course>
  <speed>1.8</speed>
  <fix>3d</fix>
</trkpt>
<trkpt lat="-27.27443" lon="151.2900642">
  <ele>354.27</ele>
  <time>2026-09-01T19:50:22Z</time>
  <course>2.8</course>
  <speed>2.400749882849107</speed>
  <fix>3d</fix>
</trkpt>
<trkpt lat="-27.2744354" lon="151.2900639">
  <ele>354.2</ele>
  <time>2026-09-01T19:50:22Z</time>
  <course>358.98</course>
  <speed>1.8</speed>
  <fix>3d</fix>
</trkpt>
<trkpt lat="-27.2744277" lon="151.2900642">
  <ele>354.29</ele>
  <time>2026-09-01T19:50:22Z</time>
  <course>2.66</course>
  <speed>2.580949437706985</speed>
  <fix>3d</fix>
</trkpt>
<trkpt lat="-27.2744317" lon="151.2900639">
  <ele>354.26</ele>
  <time>2026-09-01T19:50:22Z</time>
  <course>359.74</course>
  <speed>2.23</speed>
  <fix>3d</fix>
</trkpt>
<trkpt lat="-27.2744253" lon="151.2900643">
  <ele>354.31</ele>
  <time>2026-09-01T19:50:22Z</time>
  <course>2.62</course>
  <speed>2.7511633902769206</speed>
  <fix>3d</fix>
</trkpt>
<trkpt lat="-27.2744317" lon="151.2900639">
  <ele>354.26</ele>
  <time>2026-09-01T19:50:22Z</time>
  <course>359.74</course>
  <speed>2.23</speed>
  <fix>3d</fix>
</trkpt>
<trkpt lat="-27.2744228" lon="151.2900643">
  <ele>354.32</ele>
  <time>2026-09-01T19:50:22Z</time>
  <course>2.53</course>
  <speed>2.901396215617577</speed>
  <fix>3d</fix>
</trkpt>
<trkpt lat="-27.2744274" lon="151.2900639">
  <ele>354.3</ele>
  <time>2026-09-01T19:50:22Z</time>
  <course>0.28</course>
  <speed>2.6</speed>
  <fix>3d</fix>
</trkpt>
<trkpt lat="-27.2744201" lon="151.2900642">
  <ele>354.33</ele>
  <time>2026-09-01T19:50:22Z</time>
  <course>2.45</course>
  <speed>3.041644292155149</speed>
  <fix>3d</fix>
</trkpt>
<trkpt lat="-27.2744274" lon="151.2900639">
  <ele>354.3</ele>
  <time>2026-09-01T19:50:22Z</time>
  <course>0.28</course>
  <speed>2.6</speed>
  <fix>3d</fix>
</trkpt>
<trkpt lat="-27.2744173" lon="151.2900643">
  <ele>354.34</ele>
  <time>2026-09-01T19:50:22Z</time>
  <course>2.36</course>
  <speed>3.171907943178679</speed>
  <fix>3d</fix>
</trkpt>
<trkpt lat="-27.2744224" lon="151.2900639">
  <ele>354.33</ele>
  <time>2026-09-01T19:50:22Z</time>
  <course>0.79</course>
  <speed>2.92</speed>
  <fix>3d</fix>
</trkpt>
<trkpt lat="-27.2744144" lon="151.2900643">
  <ele>354.34</ele>
  <time>2026-09-01T19:50:22Z</time>
  <course>2.29</course>
  <speed>3.2921877224727023</speed>
  <fix>3d</fix>
</trkpt>
<trkpt lat="-27.2744224" lon="151.2900639">
  <ele>354.33</ele>
  <time>2026-09-01T19:50:22Z</time>
  <course>0.79</course>
  <speed>2.92</speed>
  <fix>3d</fix>
</trkpt>
<trkpt lat="-27.2744114" lon="151.2900644">
  <ele>354.34</ele>
  <time>2026-09-01T19:50:22Z</time>
  <course>2.21</course>
  <speed>3.4024843864447045</speed>
  <fix>3d</fix>
</trkpt>
<trkpt lat="-27.2744169" lon="151.2900639">
  <ele>354.35</ele>
  <time>2026-09-01T19:50:22Z</time>
  <course>1.27</course>
  <speed>3.2</speed>
  <fix>3d</fix>
</trkpt>
<trkpt lat="-27.2744083" lon="151.2900645">
  <ele>354.34</ele>
  <time>2026-09-01T19:50:22Z</time>
  <course>2.19</course>
  <speed>3.502798880895105</speed>
  <fix>3d</fix>
</trkpt>
<trkpt lat="-27.2744169" lon="151.2900639">
  <ele>354.35</ele>
  <time>2026-09-01T19:50:22Z</time>
  <course>1.27</course>
  <speed>3.2</speed>
  <fix>3d</fix>
</trkpt>
<trkpt lat="-27.2744051" lon="151.2900646">
  <ele>354.34</ele>
  <time>2026-09-01T19:50:22Z</time>
  <course>2.16</course>
  <speed>3.603123644839294</speed>
  <fix>3d</fix>
</trkpt>
<trkpt lat="-27.2744109" lon="151.2900641">
  <ele>354.36</ele>
  <time>2026-09-01T19:50:22Z</time>
  <course>1.71</course>
  <speed>3.44</speed>
  <fix>3d</fix>
</trkpt>
<trkpt lat="-27.2744018" lon="151.2900647">
  <ele>354.33</ele>
  <time>2026-09-01T19:50:22Z</time>
  <course>2.15</course>
  <speed>3.683924537772184</speed>
  <fix>3d</fix>
</trkpt>
<trkpt lat="-27.2744109" lon="151.2900641">
  <ele>354.36</ele>
  <time>2026-09-01T19:50:22Z</time>
  <course>1.71</course>
  <speed>3.44</speed>
  <fix>3d</fix>
</trkpt>
<trkpt lat="-27.2743984" lon="151.2900648">
  <ele>354.33</ele>
  <time>2026-09-01T19:50:22Z</time>
  <course>2.11</course>
  <speed>3.763841123108147</speed>
  <fix>3d</fix>
</trkpt>
<trkpt lat="-27.2744045" lon="151.2900643">
  <ele>354.36</ele>
  <time>2026-09-01T19:50:22Z</time>
  <course>2.09</course>
  <speed>3.64</speed>
  <fix>3d</fix>
</trkpt>
<trkpt lat="-27.274395" lon="151.2900649">
  <ele>354.32</ele>
  <time>2026-09-01T19:50:22Z</time>
  <course>2.11</course>
  <speed>3.8442164351139234</speed>
  <fix>3d</fix>
</trkpt>
<trkpt lat="-27.2744045" lon="151.2900643">
  <ele>354.36</ele>
  <time>2026-09-01T19:50:22Z</time>
  <course>2.09</course>
  <speed>3.64</speed>
  <fix>3d</fix>
</trkpt>
<trkpt lat="-27.2743915" lon="151.2900651">
  <ele>354.31</ele>
  <time>2026-09-01T19:50:22Z</time>
  <course>2.11</course>
  <speed>3.9046254621922447</speed>
  <fix>3d</fix>
</trkpt>
<trkpt lat="-27.2743978" lon="151.2900646">
  <ele>354.35</ele>
  <time>2026-09-01T19:50:22Z</time>
  <course>2.4</course>
  <speed>3.81</speed>
  <fix>3d</fix>
</trkpt>
<trkpt lat="-27.274388" lon="151.2900653">
  <ele>354.29</ele>
  <time>2026-09-01T19:50:22Z</time>
  <course>2.1</course>
  <speed>3.9550600501130195</speed>
  <fix>3d</fix>
</trkpt>
<trkpt lat="-27.2743978" lon="151.2900646">
  <ele>354.35</ele>
  <time>2026-09-01T19:50:22Z</time>
  <course>2.4</course>
  <speed>3.81</speed>
  <fix>3d</fix>
</trkpt>
<trkpt lat="-27.2743844" lon="151.2900654">
  <ele>354.28</ele>
  <time>2026-09-01T19:50:22Z</time>
  <course>2.11</course>
  <speed>4.005508706768717</speed>
  <fix>3d</fix>
</trkpt>
<trkpt lat="-27.2743908" lon="151.2900649">
  <ele>354.34</ele>
  <time>2026-09-01T19:50:22Z</time>
  <course>2.67</course>
  <speed>3.95</speed>
  <fix>3d</fix>
</trkpt>
<trkpt lat="-27.2743807" lon="151.2900656">
  <ele>354.27</ele>
  <time>2026-09-01T19:50:22Z</time>
  <course>2.13</course>
  <speed>4.055970907193492</speed>
  <fix>3d</fix>
</trkpt>
<trkpt lat="-27.2743908" lon="151.2900649">
  <ele>354.34</ele>
  <time>2026-09-01T19:50:22Z</time>
  <course>2.67</course>
  <speed>3.95</speed>
  <fix>3d</fix>
</trkpt>
<trkpt lat="-27.274377" lon="151.2900658">
  <ele>354.26</ele>
  <time>2026-09-01T19:50:22Z</time>
  <course>2.13</course>
  <speed>4.096461888019953</speed>
  <fix>3d</fix>
</trkpt>
<trkpt lat="-27.2743837" lon="151.2900654">
  <ele>354.32</ele>
  <time>2026-09-01T19:50:22Z</time>
  <course>2.91</course>
  <speed>4.06</speed>
  <fix>3d</fix>
</trkpt>
<trkpt lat="-27.2743733" lon="151.290066">
  <ele>354.24</ele>
  <time>2026-09-01T19:50:22Z</time>
  <course>2.14</course>
  <speed>4.1369674883905</speed>
  <fix>3d</fix>
</trkpt>
<trkpt lat="-27.2743837" lon="151.2900654">
  <ele>354.32</ele>
  <time>2026-09-01T19:50:22Z</time>
  <course>2.91</course>
  <speed>4.06</speed>
  <fix>3d</fix>
</trkpt>
<trkpt lat="-27.2743696" lon="151.2900663">
  <ele>354.23</ele>
  <time>2026-09-01T19:50:22Z</time>
  <course>2.15</course>
  <speed>4.166917325793734</speed>
  <fix>3d</fix>
</trkpt>
<trkpt lat="-27.2743763" lon="151.2900658">
  <ele>354.29</ele>
  <time>2026-09-01T19:50:22Z</time>
  <course>3.11</course>
  <speed>4.15</speed>
  <fix>3d</fix>
</trkpt>
<trkpt lat="-27.2743658" lon="151.2900665">
  <ele>354.22</ele>
  <time>2026-09-01T19:50:22Z</time>
  <course>2.16</course>
  <speed>4.187469402873291</speed>
  <fix>3d</fix>
</trkpt>
<trkpt lat="-27.2743763" lon="151.2900658">
  <ele>354.29</ele>
  <time>2026-09-01T19:50:22Z</time>
  <course>3.11</course>
  <speed>4.15</speed>
  <fix>3d</fix>
</trkpt>
<trkpt lat="-27.274362" lon="151.2900667">
  <ele>354.2</ele>
  <time>2026-09-01T19:50:22Z</time>
  <course>2.12</course>
  <speed>4.217416270656716</speed>
  <fix>3d</fix>
</trkpt>
<trkpt lat="-27.2743688" lon="151.2900662">
  <ele>354.27</ele>
  <time>2026-09-01T19:50:22Z</time>
  <course>3.24</course>
  <speed>4.21</speed>
  <fix>3d</fix>
</trkpt>
<trkpt lat="-27.2743582" lon="151.290067">
  <ele>354.19</ele>
  <time>2026-09-01T19:50:22Z</time>
  <course>2.1</course>
  <speed>4.227398727349953</speed>
  <fix>3d</fix>
</trkpt>
<trkpt lat="-27.2743688" lon="151.2900662">
  <ele>354.27</ele>
  <time>2026-09-01T19:50:22Z</time>
  <course>3.24</course>
  <speed>4.21</speed>
  <fix>3d</fix>
</trkpt>
<trkpt lat="-27.2743543" lon="151.2900672">
  <ele>354.18</ele>
  <time>2026-09-01T19:50:22Z</time>
  <course>2.1</course>
  <speed>4.24736388834298</speed>
  <fix>3d</fix>
</trkpt>
<trkpt lat="-27.2743612" lon="151.2900667">
  <ele>354.25</ele>
  <time>2026-09-01T19:50:22Z</time>
  <course>3.32</course>
  <speed>4.26</speed>
  <fix>3d</fix>
</trkpt>
<trkpt lat="-27.2743505" lon="151.2900675">
  <ele>354.17</ele>
  <time>2026-09-01T19:50:22Z</time>
  <course>2.09</course>
  <speed>4.2573465914816</speed>
  <fix>3d</fix>
</trkpt>
<trkpt lat="-27.2743612" lon="151.2900667">
  <ele>354.25</ele>
  <time>2026-09-01T19:50:22Z</time>
  <course>3.32</course>
  <speed>4.26</speed>
  <fix>3d</fix>
</trkpt>
<trkpt lat="-27.2743466" lon="151.2900677">
  <ele>354.16</ele>
  <time>2026-09-01T19:50:22Z</time>
  <course>2.04</course>
  <speed>4.277312240180742</speed>
  <fix>3d</fix>
</trkpt>
<trkpt lat="-27.2743534" lon="151.2900672">
  <ele>354.22</ele>
  <time>2026-09-01T19:50:22Z</time>
  <course>3.32</course>
  <speed>4.3</speed>
  <fix>3d</fix>
</trkpt>
<trkpt lat="-27.2743427" lon="151.2900679">
  <ele>354.15</ele>
  <time>2026-09-01T19:50:22Z</time>
  <course>2.0</course>
  <speed>4.2767394122158064</speed>
  <fix>3d</fix>
</trkpt>
<trkpt lat="-27.2743534" lon="151.2900672">
  <ele>354.22</ele>
  <time>2026-09-01T19:50:22Z</time>
  <course>3.32</course>
  <speed>4.3</speed>
  <fix>3d</fix>
</trkpt>
<trkpt lat="-27.2743389" lon="151.2900682">
  <ele>354.13</ele>
  <time>2026-09-01T19:50:22Z</time>
  <course>1.99</course>
  <speed>4.286175451378536</speed>
  <fix>3d</fix>
</trkpt>
<trkpt lat="-27.2743457" lon="151.2900677">
  <ele>354.2</ele>
  <time>2026-09-01T19:50:22Z</time>
  <course>3.21</course>
  <speed>4.33</speed>
  <fix>3d</fix>
</trkpt>
<trkpt lat="-27.274335" lon="151.2900684">
  <ele>354.12</ele>
  <time>2026-09-01T19:50:22Z</time>
  <course>1.94</course>
  <speed>4.29563732174866</speed>
  <fix>3d</fix>
</trkpt>
<trkpt lat="-27.2743457" lon="151.2900677">
  <ele>354.2</ele>
  <time>2026-09-01T19:50:22Z</time>
  <course>3.21</course>
  <speed>4.33</speed>
  <fix>3d</fix>
</trkpt>
<trkpt lat="-27.2743311" lon="151.2900686">
  <ele>354.11</ele>
  <time>2026-09-01T19:50:22Z</time>
  <course>1.9</course>
  <speed>4.295136784783461</speed>
  <fix>3d</fix>
</trkpt>
<trkpt lat="-27.274338" lon="151.2900682">
  <ele>354.18</ele>
  <time>2026-09-01T19:50:22Z</time>
  <course>3.02</course>
  <speed>4.34</speed>
  <fix>3d</fix>
</trkpt>
<trkpt lat="-27.2743272" lon="151.2900688">
  <ele>354.1</ele>
  <time>2026-09-01T19:50:22Z</time>
  <course>1.86</course>
  <speed>4.294659474277326</speed>
  <fix>3d</fix>
</trkpt>
<trkpt lat="-27.274338" lon="151.2900682">
  <ele>354.18</ele>
  <time>2026-09-01T19:50:22Z</time>
  <course>3.02</course>
  <speed>4.34</speed>
  <fix>3d</fix>
</trkpt>
<trkpt lat="-27.2743233" lon="151.290069">
  <ele>354.09</ele>
  <time>2026-09-01T19:50:22Z</time>
  <course>1.81</course>
  <speed>4.294205397975277</speed>
  <fix>3d</fix>
</trkpt>
<trkpt lat="-27.2743302" lon="151.2900687">
  <ele>354.16</ele>
  <time>2026-09-01T19:50:22Z</time>
  <course>2.74</course>
  <speed>4.35</speed>
  <fix>3d</fix>
</trkpt>
<trkpt lat="-27.2743194" lon="151.2900692">
  <ele>354.08</ele>
  <time>2026-09-01T19:50:22Z</time>
  <course>1.75</course>
  <speed>4.293774563248518</speed>
  <fix>3d</fix>
</trkpt>
<trkpt lat="-27.2743302" lon="151.2900687">
  <ele>354.16</ele>
  <time>2026-09-01T19:50:22Z</time>
  <course>2.74</course>
  <speed>4.35</speed>
  <fix>3d</fix>
</trkpt>
<trkpt lat="-27.2743154" lon="151.2900694">
  <ele>354.08</ele>
  <time>2026-09-01T19:50:22Z</time>
  <course>1.68</course>
  <speed>4.2929826461331055</speed>
  <fix>3d</fix>
</trkpt>
<trkpt lat="-27.2743223" lon="151.290069">
  <ele>354.15</ele>
  <time>2026-09-01T19:50:22Z</time>
  <course>2.39</course>
  <speed>4.35</speed>
  <fix>3d</fix>
</trkpt>
<trkpt lat="-27.2743116" lon="151.2900695">
  <ele>354.07</ele>
  <time>2026-09-01T19:50:22Z</time>
  <course>1.6</course>
  <speed>4.29228377440262</speed>
  <fix>3d</fix>
</trkpt>
<trkpt lat="-27.2743223" lon="151.290069">
  <ele>354.15</ele>
  <time>2026-09-01T19:50:22Z</time>
  <course>2.39</course>
  <speed>4.35</speed>
  <fix>3d</fix>
</trkpt>
<trkpt lat="-27.2743076" lon="151.2900696">
  <ele>354.06</ele>
  <time>2026-09-01T19:50:22Z</time>
  <course>1.5</course>
  <speed>4.291677993512561</speed>
  <fix>3d</fix>
</trkpt>
<trkpt lat="-27.2743145" lon="151.2900694">
  <ele>354.14</ele>
  <time>2026-09-01T19:50:22Z</time>
  <course>1.97</course>
  <speed>4.35</speed>
  <fix>3d</fix>
</trkpt>
<trkpt lat="-27.2743038" lon="151.2900698">
  <ele>354.06</ele>
  <time>2026-09-01T19:50:22Z</time>
  <course>1.41</course>
  <speed>4.29116534288764</speed>
  <fix>3d</fix>
</trkpt>
<trkpt lat="-27.2743145" lon="151.2900694">
  <ele>354.14</ele>
  <time>2026-09-01T19:50:22Z</time>
  <course>1.97</course>
  <speed>4.35</speed>
  <fix>3d</fix>
</trkpt>
<trkpt lat="-27.2742998" lon="151.2900698">
  <ele>354.05</ele>
  <time>2026-09-01T19:50:22Z</time>
  <course>1.3</course>
  <speed>4.29074585590897</speed>
  <fix>3d</fix>
</trkpt>
<trkpt lat="-27.2743066" lon="151.2900697">
  <ele>354.13</ele>
  <time>2026-09-01T19:50:22Z</time>
  <course>1.44</course>
  <speed>4.35</speed>
  <fix>3d</fix>
</trkpt>
<trkpt lat="-27.2742959" lon="151.2900699">
  <ele>354.05</ele>
  <time>2026-09-01T19:50:22Z</time>
  <course>1.19</course>
  <speed>4.290291365396993</speed>
  <fix>3d</fix>
</trkpt>
<trkpt lat="-27.2743066" lon="151.2900697">
  <ele>354.13</ele>
  <time>2026-09-01T19:50:22Z</time>
  <course>1.44</course>
  <speed>4.35</speed>
  <fix>3d</fix>
</trkpt>
<trkpt lat="-27.274292" lon="151.29007">
  <ele>354.05</ele>
  <time>2026-09-01T19:50:22Z</time>
  <course>1.09</course>
  <speed>4.2901048938225275</speed>
  <fix>3d</fix>
</trkpt>
<trkpt lat="-27.2742989" lon="151.2900699">
  <ele>354.13</ele>
  <time>2026-09-01T19:50:22Z</time>
  <course>0.84</course>
  <speed>4.34</speed>
  <fix>3d</fix>
</trkpt>
<trkpt lat="-27.2742882" lon="151.29007">
  <ele>354.05</ele>
  <time>2026-09-01T19:50:22Z</time>
  <course>0.97</course>
  <speed>4.28</speed>
  <fix>3d</fix>
</trkpt>
<trkpt lat="-27.2742989" lon="151.2900699">
  <ele>354.13</ele>
  <time>2026-09-01T19:50:22Z</time>
  <course>0.84</course>
  <speed>4.34</speed>
  <fix>3d</fix>
</trkpt>
<trkpt lat="-27.2742842" lon="151.2900699">
  <ele>354.05</ele>
  <time>2026-09-01T19:50:22Z</time>
  <course>0.84</course>
  <speed>4.280046728716872</speed>
  <fix>3d</fix>
</trkpt>
<trkpt lat="-27.2742911" lon="151.2900699">
  <ele>354.13</ele>
  <time>2026-09-01T19:50:22Z</time>
  <course>0.15</course>
  <speed>4.34</speed>
  <fix>3d</fix>
</trkpt>
<trkpt lat="-27.2742804" lon="151.2900699">
  <ele>354.05</ele>
  <time>2026-09-01T19:50:22Z</time>
  <course>0.73</course>
  <speed>4.280292046110873</speed>
  <fix>3d</fix>
</trkpt>
<trkpt lat="-27.2742911" lon="151.2900699">
  <ele>354.13</ele>
  <time>2026-09-01T19:50:22Z</time>
  <course>0.15</course>
  <speed>4.34</speed>
  <fix>3d</fix>
</trkpt>
<trkpt lat="-27.2742765" lon="151.2900698">
  <ele>354.05</ele>
  <time>2026-09-01T19:50:22Z</time>
  <course>0.6</course>
  <speed>4.29074585590897</speed>
  <fix>3d</fix>
</trkpt>
<trkpt lat="-27.2742833" lon="151.2900699">
  <ele>354.13</ele>
  <time>2026-09-01T19:50:22Z</time>
  <course>359.4</course>
  <speed>4.33</speed>
  <fix>3d</fix>
</trkpt>
<trkpt lat="-27.2742726" lon="151.2900697">
  <ele>354.06</ele>
  <time>2026-09-01T19:50:22Z</time>
  <course>0.48</course>
  <speed>4.291410024688855</speed>
  <fix>3d</fix>
</trkpt>
<trkpt lat="-27.2742833" lon="151.2900699">
  <ele>354.13</ele>
  <time>2026-09-01T19:50:22Z</time>
  <course>359.4</course>
  <speed>4.33</speed>
  <fix>3d</fix>
</trkpt>
<trkpt lat="-27.2742687" lon="151.2900697">
  <ele>354.06</ele>
  <time>2026-09-01T19:50:22Z</time>
  <course>0.36</course>
  <speed>4.29228377440262</speed>
  <fix>3d</fix>
</trkpt>
<trkpt lat="-27.2742755" lon="151.2900698">
  <ele>354.13</ele>
  <time>2026-09-01T19:50:22Z</time>
  <course>358.61</course>
  <speed>4.33</speed>
  <fix>3d</fix>
</trkpt>
<trkpt lat="-27.2742648" lon="151.2900695">
  <ele>354.06</ele>
  <time>2026-09-01T19:50:22Z</time>
  <course>0.24</course>
  <speed>4.293366977093852</speed>
  <fix>3d</fix>
</trkpt>
<trkpt lat="-27.2742755" lon="151.2900698">
  <ele>354.13</ele>
  <time>2026-09-01T19:50:22Z</time>
  <course>358.61</course>
  <speed>4.33</speed>
  <fix>3d</fix>
</trkpt>
<trkpt lat="-27.2742609" lon="151.2900693">
  <ele>354.06</ele>
  <time>2026-09-01T19:50:22Z</time>
  <course>0.09</course>
  <speed>4.294659474277326</speed>
  <fix>3d</fix>
</trkpt>
<trkpt lat="-27.2742677" lon="151.2900695">
  <ele>354.14</ele>
  <time>2026-09-01T19:50:22Z</time>
  <course>357.81</course>
  <speed>4.34</speed>
  <fix>3d</fix>
</trkpt>
<trkpt lat="-27.274257" lon="151.2900691">
  <ele>354.06</ele>
  <time>2026-09-01T19:50:22Z</time>
  <course>359.96</course>
  <speed>4.306146769444813</speed>
  <fix>3d</fix>
</trkpt>
<trkpt lat="-27.2742677" lon="151.2900695">
  <ele>354.14</ele>
  <time>2026-09-01T19:50:22Z</time>
  <course>357.81</course>
  <speed>4.34</speed>
  <fix>3d</fix>
</trkpt>
<trkpt lat="-27.2742531" lon="151.2900688">
  <ele>354.06</ele>
  <time>2026-09-01T19:50:22Z</time>
  <course>359.84</course>
  <speed>4.307853293695133</speed>
  <fix>3d</fix>
</trkpt>
<trkpt lat="-27.2742598" lon="151.2900692">
  <ele>354.14</ele>
  <time>2026-09-01T19:50:22Z</time>
  <course>357.0</course>
  <speed>4.34</speed>
  <fix>3d</fix>
</trkpt>
<trkpt lat="-27.2742492" lon="151.2900685">
  <ele>354.07</ele>
  <time>2026-09-01T19:50:22Z</time>
  <course>359.73</course>
  <speed>4.309767975193096</speed>
  <fix>3d</fix>
</trkpt>
<trkpt lat="-27.2742598" lon="151.2900692">
  <ele>354.14</ele>
  <time>2026-09-01T19:50:22Z</time>
  <course>357.0</course>
  <speed>4.34</speed>
  <fix>3d</fix>
</trkpt>
<trkpt lat="-27.2742452" lon="151.2900682">
  <ele>354.07</ele>
  <time>2026-09-01T19:50:22Z</time>
  <course>359.62</course>
  <speed>4.32113411039278</speed>
  <fix>3d</fix>
</trkpt>
<trkpt lat="-27.2742521" lon="151.2900687">
  <ele>354.15</ele>
  <time>2026-09-01T19:50:22Z</time>
  <course>356.2</course>
  <speed>4.35</speed>
  <fix>3d</fix>
</trkpt>
<trkpt lat="-27.2742413" lon="151.2900679">
  <ele>354.08</ele>
  <time>2026-09-01T19:50:22Z</time>
  <course>359.53</course>
  <speed>4.333358974283114</speed>
  <fix>3d</fix>
</trkpt>
<trkpt lat="-27.2742521" lon="151.2900687">
  <ele>354.15</ele>
  <time>2026-09-01T19:50:22Z</time>
  <course>356.2</course>
  <speed>4.35</speed>
  <fix>3d</fix>
</trkpt>
<trkpt lat="-27.2742374" lon="151.2900675">
  <ele>354.08</ele>
  <time>2026-09-01T19:50:22Z</time>
  <course>359.43</course>
  <speed>4.334974048365226</speed>
  <fix>3d</fix>
</trkpt>
<trkpt lat="-27.2742443" lon="151.290068">
  <ele>354.16</ele>
  <time>2026-09-01T19:50:22Z</time>
  <course>355.49</course>
  <speed>4.36</speed>
  <fix>3d</fix>
</trkpt>
<trkpt lat="-27.2742335" lon="151.2900671">
  <ele>354.09</ele>
  <time>2026-09-01T19:50:22Z</time>
  <course>359.31</course>
  <speed>4.346642382345251</speed>
  <fix>3d</fix>
</trkpt>
<trkpt lat="-27.2742443" lon="151.290068">
  <ele>354.16</ele>
  <time>2026-09-01T19:50:22Z</time>
  <course>355.49</course>
  <speed>4.36</speed>
  <fix>3d</fix>
</trkpt>
<trkpt lat="-27.2742296" lon="151.2900667">
  <ele>354.09</ele>
  <time>2026-09-01T19:50:22Z</time>
  <course>359.2</course>
  <speed>4.358394199702454</speed>
  <fix>3d</fix>
</trkpt>
<trkpt lat="-27.2742365" lon="151.2900672">
  <ele>354.17</ele>
  <time>2026-09-01T19:50:22Z</time>
  <course>354.89</course>
  <speed>4.38</speed>
  <fix>3d</fix>
</trkpt>
<trkpt lat="-27.2742256" lon="151.2900662">
  <ele>354.1</ele>
  <time>2026-09-01T19:50:22Z</time>
  <course>359.14</course>
  <speed>4.369279116742257</speed>
  <fix>3d</fix>
</trkpt>
<trkpt lat="-27.2742365" lon="151.2900672">
  <ele>354.17</ele>
  <time>2026-09-01T19:50:22Z</time>
  <course>354.89</course>
  <speed>4.38</speed>
  <fix>3d</fix>
</trkpt>
<trkpt lat="-27.2742216" lon="151.2900658">
  <ele>354.1</ele>
  <time>2026-09-01T19:50:22Z</time>
  <course>359.09</course>
  <speed>4.381152816325859</speed>
  <fix>3d</fix>
</trkpt>
<trkpt lat="-27.2742286" lon="151.2900664">
  <ele>354.17</ele>
  <time>2026-09-01T19:50:22Z</time>
  <course>354.41</course>
  <speed>4.39</speed>
  <fix>3d</fix>
</trkpt>
<trkpt lat="-27.2742176" lon="151.2900653">
  <ele>354.11</ele>
  <time>2026-09-01T19:50:22Z</time>
  <course>359.06</course>
  <speed>4.39110464461962</speed>
  <fix>3d</fix>
</trkpt>
<trkpt lat="-27.2742286" lon="151.2900664">
  <ele>354.17</ele>
  <time>2026-09-01T19:50:22Z</time>
  <course>354.41</course>
  <speed>4.39</speed>
  <fix>3d</fix>
</trkpt>
<trkpt lat="-27.2742137" lon="151.2900649">
  <ele>354.11</ele>
  <time>2026-09-01T19:50:22Z</time>
  <course>359.04</course>
  <speed>4.40204497932495</speed>
  <fix>3d</fix>
</trkpt>
<trkpt lat="-27.2742207" lon="151.2900655">
  <ele>354.18</ele>
  <time>2026-09-01T19:50:22Z</time>
  <course>354.08</course>
  <speed>4.41</speed>
  <fix>3d</fix>
</trkpt>
<trkpt lat="-27.2742097" lon="151.2900644">
  <ele>354.11</ele>
  <time>2026-09-01T19:50:22Z</time>
  <course>359.0</course>
  <speed>4.4119950135964565</speed>
  <fix>3d</fix>
</trkpt>
<trkpt lat="-27.2742207" lon="151.2900655">
  <ele>354.18</ele>
  <time>2026-09-01T19:50:22Z</time>
  <course>354.08</course>
  <speed>4.41</speed>
  <fix>3d</fix>
</trkpt>
<trkpt lat="-27.2742057" lon="151.2900639">
  <ele>354.11</ele>
  <time>2026-09-01T19:50:22Z</time>
  <course>358.99</course>
  <speed>4.421945273293192</speed>
  <fix>3d</fix>
</trkpt>
<trkpt lat="-27.2742128" lon="151.2900646">
  <ele>354.19</ele>
  <time>2026-09-01T19:50:22Z</time>
  <course>353.92</course>
  <speed>4.43</speed>
  <fix>3d</fix>
</trkpt>
<trkpt lat="-27.2742017" lon="151.2900634">
  <ele>354.11</ele>
  <time>2026-09-01T19:50:22Z</time>
  <course>358.98</course>
  <speed>4.441846462902562</speed>
  <fix>3d</fix>
</trkpt>
<trkpt lat="-27.2742128" lon="151.2900646">
  <ele>354.19</ele>
  <time>2026-09-01T19:50:22Z</time>
  <course>353.92</course>
  <speed>4.43</speed>
  <fix>3d</fix>
</trkpt>
<trkpt lat="-27.2741977" lon="151.290063">
  <ele>354.11</ele>
  <time>2026-09-01T19:50:22Z</time>
  <course>358.99</course>
  <speed>4.450820149141054</speed>
  <fix>3d</fix>
</trkpt>
<trkpt lat="-27.2742048" lon="151.2900637">
  <ele>354.19</ele>
  <time>2026-09-01T19:50:22Z</time>
  <course>353.93</course>
  <speed>4.46</speed>
  <fix>3d</fix>
</trkpt>
<trkpt lat="-27.2741937" lon="151.2900625">
  <ele>354.11</ele>
  <time>2026-09-01T19:50:22Z</time>
  <course>358.99</course>
  <speed>4.469776280755</speed>
  <fix>3d</fix>
</trkpt>
<trkpt lat="-27.2742048" lon="151.2900637">
  <ele>354.19</ele>
  <time>2026-09-01T19:50:22Z</time>
  <course>353.93</course>
  <speed>4.46</speed>
  <fix>3d</fix>
</trkpt>
<trkpt lat="-27.2741896" lon="151.2900621">
  <ele>354.11</ele>
  <time>2026-09-01T19:50:22Z</time>
  <course>359.02</course>
  <speed>4.478805644365471</speed>
  <fix>3d</fix>
</trkpt>
<trkpt lat="-27.2741969" lon="151.2900627">
  <ele>354.2</ele>
  <time>2026-09-01T19:50:22Z</time>
  <course>354.1</course>
  <speed>4.48</speed>
  <fix>3d</fix>
</trkpt>
<trkpt lat="-27.2741856" lon="151.2900616">
  <ele>354.11</ele>
  <time>2026-09-01T19:50:22Z</time>
  <course>359.05</course>
  <speed>4.497821694998591</speed>
  <fix>3d</fix>
</trkpt>
<trkpt lat="-27.2741969" lon="151.2900627">
  <ele>354.2</ele>
  <time>2026-09-01T19:50:22Z</time>
  <course>354.1</course>
  <speed>4.48</speed>
  <fix>3d</fix>
</trkpt>
<trkpt lat="-27.2741815" lon="151.2900612">
  <ele>354.11</ele>
  <time>2026-09-01T19:50:22Z</time>
  <course>359.08</course>
  <speed>4.506905812195325</speed>
  <fix>3d</fix>
</trkpt>
<trkpt lat="-27.2741888" lon="151.2900618">
  <ele>354.2</ele>
  <time>2026-09-01T19:50:22Z</time>
  <course>354.37</course>
  <speed>4.51</speed>
  <fix>3d</fix>
</trkpt>
<trkpt lat="-27.2741775" lon="151.2900608">
  <ele>354.11</ele>
  <time>2026-09-01T19:50:22Z</time>
  <course>359.12</course>
  <speed>4.525151931151041</speed>
  <fix>3d</fix>
</trkpt>
<trkpt lat="-27.2741888" lon="151.2900618">
  <ele>354.2</ele>
  <time>2026-09-01T19:50:22Z</time>
  <course>354.37</course>
  <speed>4.51</speed>
  <fix>3d</fix>
</trkpt>
<trkpt lat="-27.2741734" lon="151.2900604">
  <ele>354.11</ele>
  <time>2026-09-01T19:50:22Z</time>
  <course>359.16</course>
  <speed>4.544282121523707</speed>
  <fix>3d</fix>
</trkpt>
<trkpt lat="-27.2741807" lon="151.2900609">
  <ele>354.2</ele>
  <time>2026-09-01T19:50:22Z</time>
  <course>354.73</course>
  <speed>4.54</speed>
  <fix>3d</fix>
</trkpt>
<trkpt lat="-27.2741693" lon="151.29006">
  <ele>354.11</ele>
  <time>2026-09-01T19:50:22Z</time>
  <course>359.2</course>
  <speed>4.552713476598324</speed>
  <fix>3d</fix>
</trkpt>
<trkpt lat="-27.2741807" lon="151.2900609">
  <ele>354.2</ele>
  <time>2026-09-01T19:50:22Z</time>
  <course>354.73</course>
  <speed>4.54</speed>
  <fix>3d</fix>
</trkpt>
<trkpt lat="-27.2741652" lon="151.2900597">
  <ele>354.1</ele>
  <time>2026-09-01T19:50:22Z</time>
  <course>359.26</course>
  <speed>4.571214280691729</speed>
  <fix>3d</fix>
</trkpt>
<trkpt lat="-27.2741726" lon="151.2900601">
  <ele>354.2</ele>
  <time>2026-09-01T19:50:22Z</time>
  <course>355.16</course>
  <speed>4.56</speed>
  <fix>3d</fix>
</trkpt>
<trkpt lat="-27.274161" lon="151.2900593">
  <ele>354.1</ele>
  <time>2026-09-01T19:50:22Z</time>
  <course>359.32</course>
  <speed>4.579836241613886</speed>
  <fix>3d</fix>
</trkpt>
<trkpt lat="-27.2741726" lon="151.2900601">
  <ele>354.2</ele>
  <time>2026-09-01T19:50:22Z</time>
  <course>355.16</course>
  <speed>4.56</speed>
  <fix>3d</fix>
</trkpt>
<trkpt lat="-27.2741569" lon="151.290059">
  <ele>354.1</ele>
  <time>2026-09-01T19:50:22Z</time>
  <course>359.39</course>
  <speed>4.598532374573435</speed>
  <fix>3d</fix>
</trkpt>
<trkpt lat="-27.2741643" lon="151.2900594">
  <ele>354.2</ele>
  <time>2026-09-01T19:50:22Z</time>
  <course>355.64</course>
  <speed>4.59</speed>
  <fix>3d</fix>
</trkpt>
<trkpt lat="-27.2741528" lon="151.2900587">
  <ele>354.1</ele>
  <time>2026-09-01T19:50:22Z</time>
  <course>359.45</course>
  <speed>4.61732606602566</speed>
  <fix>3d</fix>
</trkpt>
<trkpt lat="-27.2741643" lon="151.2900594">
  <ele>354.2</ele>
  <time>2026-09-01T19:50:22Z</time>
  <course>355.64</course>
  <speed>4.59</speed>
  <fix>3d</fix>
</trkpt>
<trkpt lat="-27.2741486" lon="151.2900584">
  <ele>354.1</ele>
  <time>2026-09-01T19:50:22Z</time>
  <course>359.51</course>
  <speed>4.626229566288297</speed>
  <fix>3d</fix>
</trkpt>
<trkpt lat="-27.2741561" lon="151.2900587">
  <ele>354.2</ele>
  <time>2026-09-01T19:50:22Z</time>
  <course>356.16</course>
  <speed>4.62</speed>
  <fix>3d</fix>
</trkpt>
<trkpt lat="-27.2741444" lon="151.2900581">
  <ele>354.1</ele>
  <time>2026-09-01T19:50:22Z</time>
  <course>359.57</course>
  <speed>4.645212589322473</speed>
  <fix>3d</fix>
</trkpt>
<trkpt lat="-27.2741561" lon="151.2900587">
  <ele>354.2</ele>
  <time>2026-09-01T19:50:22Z</time>
  <course>356.16</course>
  <speed>4.62</speed>
  <fix>3d</fix>
</trkpt>
<trkpt lat="-27.2741402" lon="151.2900579">
  <ele>354.1</ele>
  <time>2026-09-01T19:50:22Z</time>
  <course>359.63</course>
  <speed>4.664289870923547</speed>
  <fix>3d</fix>
</trkpt>
<trkpt lat="-27.2741478" lon="151.2900581">
  <ele>354.21</ele>
  <time>2026-09-01T19:50:22Z</time>
  <course>356.7</course>
  <speed>4.65</speed>
  <fix>3d</fix>
</trkpt>
<trkpt lat="-27.274136" lon="151.2900577">
  <ele>354.09</ele>
  <time>2026-09-01T19:50:22Z</time>
  <course>359.69</course>
  <speed>4.6730931940204234</speed>
  <fix>3d</fix>
</trkpt>
<trkpt lat="-27.2741478" lon="151.2900581">
  <ele>354.21</ele>
  <time>2026-09-01T19:50:22Z</time>
  <course>356.7</course>
  <speed>4.65</speed>
  <fix>3d</fix>
</trkpt>
<trkpt lat="-27.2741317" lon="151.2900575">
  <ele>354.09</ele>
  <time>2026-09-01T19:50:22Z</time>
  <course>359.76</course>
  <speed>4.69239810757783</speed>
  <fix>3d</fix>
</trkpt>
<trkpt lat="-27.2741394" lon="151.2900576">
  <ele>354.21</ele>
  <time>2026-09-01T19:50:22Z</time>
  <course>357.29</course>
  <speed>4.69</speed>
  <fix>3d</fix>
</trkpt>
<trkpt lat="-27.2741275" lon="151.2900573">
  <ele>354.09</ele>
  <time>2026-09-01T19:50:22Z</time>
  <course>359.85</course>
  <speed>4.711528414431988</speed>
  <fix>3d</fix>
</trkpt>
<trkpt lat="-27.2741394" lon="151.2900576">
  <ele>354.21</ele>
  <time>2026-09-01T19:50:22Z</time>
  <course>357.29</course>
  <speed>4.69</speed>
  <fix>3d</fix>
</trkpt>
<trkpt lat="-27.2741232" lon="151.2900572">
  <ele>354.09</ele>
  <time>2026-09-01T19:50:22Z</time>
  <course>359.95</course>
  <speed>4.720857972868915</speed>
  <fix>3d</fix>
</trkpt>
<trkpt lat="-27.2741309" lon="151.2900572">
  <ele>354.21</ele>
  <time>2026-09-01T19:50:22Z</time>
  <course>357.92</course>
  <speed>4.72</speed>
  <fix>3d</fix>
</trkpt>
<trkpt lat="-27.274119" lon="151.2900571">
  <ele>354.09</ele>
  <time>2026-09-01T19:50:22Z</time>
  <course>0.02</course>
  <speed>4.740516849458506</speed>
  <fix>3d</fix>
</trkpt>
<trkpt lat="-27.2741309" lon="151.2900572">
  <ele>354.21</ele>
  <time>2026-09-01T19:50:22Z</time>
  <course>357.92</course>
  <speed>4.72</speed>
  <fix>3d</fix>
</trkpt>
<trkpt lat="-27.2741147" lon="151.290057">
  <ele>354.09</ele>
  <time>2026-09-01T19:50:22Z</time>
  <course>0.12</course>
  <speed>4.750168418066879</speed>
  <fix>3d</fix>
</trkpt>
<trkpt lat="-27.2741224" lon="151.290057">
  <ele>354.21</ele>
  <time>2026-09-01T19:50:22Z</time>
  <course>358.59</course>
  <speed>4.75</speed>
  <fix>3d</fix>
</trkpt>
<trkpt lat="-27.2741103" lon="151.290057">
  <ele>354.09</ele>
  <time>2026-09-01T19:50:22Z</time>
  <course>0.25</course>
  <speed>4.77</speed>
  <fix>3d</fix>
</trkpt>
<trkpt lat="-27.2741224" lon="151.290057">
  <ele>354.21</ele>
  <time>2026-09-01T19:50:22Z</time>
  <course>358.59</course>
  <speed>4.75</speed>
  <fix>3d</fix>
</trkpt>
<trkpt lat="-27.274106" lon="151.2900569">
  <ele>354.09</ele>
  <time>2026-09-01T19:50:22Z</time>
  <course>0.38</course>
  <speed>4.780041840821061</speed>
  <fix>3d</fix>
</trkpt>
<trkpt lat="-27.2741139" lon="151.2900568">
  <ele>354.21</ele>
  <time>2026-09-01T19:50:22Z</time>
  <course>359.31</course>
  <speed>4.78</speed>
  <fix>3d</fix>
</trkpt>
<trkpt lat="-27.2741017" lon="151.290057">
  <ele>354.09</ele>
  <time>2026-09-01T19:50:22Z</time>
  <course>0.49</course>
  <speed>4.790260953225826</speed>
  <fix>3d</fix>
</trkpt>
<trkpt lat="-27.2741139" lon="151.2900568">
  <ele>354.21</ele>
  <time>2026-09-01T19:50:22Z</time>
  <course>359.31</course>
  <speed>4.78</speed>
  <fix>3d</fix>
</trkpt>
<trkpt lat="-27.2740974" lon="151.290057">
  <ele>354.09</ele>
  <time>2026-09-01T19:50:22Z</time>
  <course>0.61</course>
  <speed>4.81084192215874</speed>
  <fix>3d</fix>
</trkpt>
<trkpt lat="-27.2741052" lon="151.2900567">
  <ele>354.21</ele>
  <time>2026-09-01T19:50:22Z</time>
  <course>0.08</course>
  <speed>4.8</speed>
  <fix>3d</fix>
</trkpt>
<trkpt lat="-27.274093" lon="151.290057">
  <ele>354.08</ele>
  <time>2026-09-01T19:50:22Z</time>
  <course>0.72</course>
  <speed>4.821493544535759</speed>
  <fix>3d</fix>
</trkpt>
<trkpt lat="-27.2741052" lon="151.2900567">
  <ele>354.21</ele>
  <time>2026-09-01T19:50:22Z</time>
  <course>0.08</course>
  <speed>4.8</speed>
  <fix>3d</fix>
</trkpt>
<trkpt lat="-27.2740886" lon="151.2900571">
  <ele>354.08</ele>
  <time>2026-09-01T19:50:22Z</time>
  <course>0.84</course>
  <speed>4.832328631208767</speed>
  <fix>3d</fix>
</trkpt>
<trkpt lat="-27.2740965" lon="151.2900568">
  <ele>354.21</ele>
  <time>2026-09-01T19:50:22Z</time>
  <course>0.87</course>
  <speed>4.83</speed>
  <fix>3d</fix>
</trkpt>
<trkpt lat="-27.2740843" lon="151.2900573">
  <ele>354.08</ele>
  <time>2026-09-01T19:50:22Z</time>
  <course>0.95</course>
  <speed>4.843727903175404</speed>
  <fix>3d</fix>
</trkpt>
<trkpt lat="-27.2740965" lon="151.2900568">
  <ele>354.21</ele>
  <time>2026-09-01T19:50:22Z</time>
  <course>0.87</course>
  <speed>4.83</speed>
  <fix>3d</fix>
</trkpt>
<trkpt lat="-27.2740799" lon="151.2900575">
  <ele>354.08</ele>
  <time>2026-09-01T19:50:22Z</time>
  <course>1.06</course>
  <speed>4.854987126656465</speed>
  <fix>3d</fix>
</trkpt>
<trkpt lat="-27.2740878" lon="151.2900569">
  <ele>354.21</ele>
  <time>2026-09-01T19:50:22Z</time>
  <course>1.68</course>
  <speed>4.86</speed>
  <fix>3d</fix>
</trkpt>
<trkpt lat="-27.2740755" lon="151.2900577">
  <ele>354.08</ele>
  <time>2026-09-01T19:50:22Z</time>
  <course>1.19</course>
  <speed>4.866425793125792</speed>
  <fix>3d</fix>
</trkpt>
<trkpt lat="-27.2740878" lon="151.2900569">
  <ele>354.21</ele>
  <time>2026-09-01T19:50:22Z</time>
  <course>1.68</course>
  <speed>4.86</speed>
  <fix>3d</fix>
</trkpt>
<trkpt lat="-27.2740711" lon="151.2900579">
  <ele>354.08</ele>
  <time>2026-09-01T19:50:22Z</time>
  <course>1.34</course>
  <speed>4.878042640240038</speed>
  <fix>3d</fix>
</trkpt>
<trkpt lat="-27.2740791" lon="151.2900573">
  <ele>354.21</ele>
  <time>2026-09-01T19:50:22Z</time>
  <course>2.46</course>
  <speed>4.88</speed>
  <fix>3d</fix>
</trkpt>
<trkpt lat="-27.2740667" lon="151.2900582">
  <ele>354.08</ele>
  <time>2026-09-01T19:50:22Z</time>
  <course>1.49</course>
  <speed>4.890480548984936</speed>
  <fix>3d</fix>
</trkpt>
<trkpt lat="-27.2740791" lon="151.2900573">
  <ele>354.21</ele>
  <time>2026-09-01T19:50:22Z</time>
  <course>2.46</course>
  <speed>4.88</speed>
  <fix>3d</fix>
</trkpt>
<trkpt lat="-27.2740623" lon="151.2900585">
  <ele>354.09</ele>
  <time>2026-09-01T19:50:22Z</time>
  <course>1.62</course>
  <speed>4.892535130175357</speed>
  <fix>3d</fix>
</trkpt>
<trkpt lat="-27.2740704" lon="151.2900578">
  <ele>354.22</ele>
  <time>2026-09-01T19:50:22Z</time>
  <course>3.21</course>
  <speed>4.9</speed>
  <fix>3d</fix>
</trkpt>
<trkpt lat="-27.2740579" lon="151.2900589">
  <ele>354.09</ele>
  <time>2026-09-01T19:50:22Z</time>
  <course>1.79</course>
  <speed>4.834956049438299</speed>
  <fix>3d</fix>
</trkpt>
<trkpt lat="-27.2740704" lon="151.2900578">
  <ele>354.22</ele>
  <time>2026-09-01T19:50:22Z</time>
  <course>3.21</course>
  <speed>4.9</speed>
  <fix>3d</fix>
</trkpt>
<trkpt lat="-27.2740536" lon="151.2900593">
  <ele>354.13</ele>
  <time>2026-09-01T19:50:22Z</time>
  <course>1.94</course>
  <speed>4.697925073902308</speed>
  <fix>3d</fix>
</trkpt>
<trkpt lat="-27.2740615" lon="151.2900584">
  <ele>354.22</ele>
  <time>2026-09-01T19:50:22Z</time>
  <course>3.98</course>
  <speed>4.89</speed>
  <fix>3d</fix>
</trkpt>
<trkpt lat="-27.2740495" lon="151.2900597">
  <ele>354.19</ele>
  <time>2026-09-01T19:50:22Z</time>
  <course>2.06</course>
  <speed>4.490634699015274</speed>
  <fix>3d</fix>
</trkpt>
<trkpt lat="-27.2740615" lon="151.2900584">
  <ele>354.22</ele>
  <time>2026-09-01T19:50:22Z</time>
  <course>3.98</course>
  <speed>4.89</speed>
  <fix>3d</fix>
</trkpt>
<trkpt lat="-27.2740455" lon="151.2900601">
  <ele>354.27</ele>
  <time>2026-09-01T19:50:22Z</time>
  <course>2.16</course>
  <speed>4.263812847675188</speed>
  <fix>3d</fix>
</trkpt>
<trkpt lat="-27.2740529" lon="151.2900592">
  <ele>354.27</ele>
  <time>2026-09-01T19:50:22Z</time>
  <course>4.91</course>
  <speed>4.69</speed>
  <fix>3d</fix>
</trkpt>
<trkpt lat="-27.2740418" lon="151.2900606">
  <ele>354.37</ele>
  <time>2026-09-01T19:50:22Z</time>
  <course>2.24</course>
  <speed>4.026363123216782</speed>
  <fix>3d</fix>
</trkpt>
<trkpt lat="-27.2740529" lon="151.2900592">
  <ele>354.27</ele>
  <time>2026-09-01T19:50:22Z</time>
  <course>4.91</course>
  <speed>4.69</speed>
  <fix>3d</fix>
</trkpt>
<trkpt lat="-27.2740383" lon="151.290061">
  <ele>354.48</ele>
  <time>2026-09-01T19:50:22Z</time>
  <course>2.31</course>
  <speed>3.7880337907679755</speed>
  <fix>3d</fix>
</trkpt>
<trkpt lat="-27.2740449" lon="151.29006">
  <ele>354.4</ele>
  <time>2026-09-01T19:50:22Z</time>
  <course>5.98</course>
  <speed>4.29</speed>
  <fix>3d</fix>
</trkpt>
<trkpt lat="-27.274035" lon="151.2900615">
  <ele>354.59</ele>
  <time>2026-09-01T19:50:22Z</time>
  <course>2.36</course>
  <speed>3.5512392203285885</speed>
  <fix>3d</fix>
</trkpt>
<trkpt lat="-27.2740449" lon="151.29006">
  <ele>354.4</ele>
  <time>2026-09-01T19:50:22Z</time>
  <course>5.98</course>
  <speed>4.29</speed>
  <fix>3d</fix>
</trkpt>
<trkpt lat="-27.2740319" lon="151.2900619">
  <ele>354.71</ele>
  <time>2026-09-01T19:50:22Z</time>
  <course>2.4</course>
  <speed>3.313502678435616</speed>
  <fix>3d</fix>
</trkpt>
<trkpt lat="-27.2740376" lon="151.2900609">
  <ele>354.59</ele>
  <time>2026-09-01T19:50:22Z</time>
  <course>7.06</course>
  <speed>3.82</speed>
  <fix>3d</fix>
</trkpt>
<trkpt lat="-27.274029" lon="151.2900624">
  <ele>354.82</ele>
  <time>2026-09-01T19:50:22Z</time>
  <course>2.43</course>
  <speed>3.0761176830544046</speed>
  <fix>3d</fix>
</trkpt>
<trkpt lat="-27.2740376" lon="151.2900609">
  <ele>354.59</ele>
  <time>2026-09-01T19:50:22Z</time>
  <course>7.06</course>
  <speed>3.82</speed>
  <fix>3d</fix>
</trkpt>
<trkpt lat="-27.2740263" lon="151.2900629">
  <ele>354.94</ele>
  <time>2026-09-01T19:50:22Z</time>
  <course>2.45</course>
  <speed>2.8375341407637724</speed>
  <fix>3d</fix>
</trkpt>
<trkpt lat="-27.2740312" lon="151.2900619">
  <ele>354.81</ele>
  <time>2026-09-01T19:50:22Z</time>
  <course>8.22</course>
  <speed>3.34</speed>
  <fix>3d</fix>
</trkpt>
<trkpt lat="-27.2740239" lon="151.2900633">
  <ele>355.06</ele>
  <time>2026-09-01T19:50:22Z</time>
  <course>2.47</course>
  <speed>2.610842775810141</speed>
  <fix>3d</fix>
</trkpt>
<trkpt lat="-27.2740312" lon="151.2900619">
  <ele>354.81</ele>
  <time>2026-09-01T19:50:22Z</time>
  <course>8.22</course>
  <speed>3.34</speed>
  <fix>3d</fix>
</trkpt>
<trkpt lat="-27.2740216" lon="151.2900638">
  <ele>355.17</ele>
  <time>2026-09-01T19:50:22Z</time>
  <course>2.47</course>
  <speed>2.382876413077271</speed>
  <fix>3d</fix>
</trkpt>
<trkpt lat="-27.2740257" lon="151.2900628">
  <ele>355.04</ele>
  <time>2026-09-01T19:50:22Z</time>
  <course>9.54</course>
  <speed>2.87</speed>
  <fix>3d</fix>
</trkpt>
<trkpt lat="-27.2740196" lon="151.2900642">
  <ele>355.29</ele>
  <time>2026-09-01T19:50:22Z</time>
  <course>2.47</course>
  <speed>2.165178976435897</speed>
  <fix>3d</fix>
</trkpt>
<trkpt lat="-27.2740257" lon="151.2900628">
  <ele>355.04</ele>
  <time>2026-09-01T19:50:22Z</time>
  <course>9.54</course>
  <speed>2.87</speed>
  <fix>3d</fix>
</trkpt>
<trkpt lat="-27.2740177" lon="151.2900647">
  <ele>355.4</ele>
  <time>2026-09-01T19:50:22Z</time>
  <course>2.46</course>
  <speed>1.9382982226685346</speed>
  <fix>3d</fix>
</trkpt>
<trkpt lat="-27.274021" lon="151.2900638">
  <ele>355.27</ele>
  <time>2026-09-01T19:50:22Z</time>
  <course>11.14</course>
  <speed>2.41</speed>
  <fix>3d</fix>
</trkpt>
<trkpt lat="-27.2740161" lon="151.2900651">
  <ele>355.51</ele>
  <time>2026-09-01T19:50:22Z</time>
  <course>2.44</course>
  <speed>1.7220046457544766</speed>
  <fix>3d</fix>
</trkpt>
<trkpt lat="-27.274021" lon="151.2900638">
  <ele>355.27</ele>
  <time>2026-09-01T19:50:22Z</time>
  <course>11.14</course>
  <speed>2.41</speed>
  <fix>3d</fix>
</trkpt>
<trkpt lat="-27.2740146" lon="151.2900655">
  <ele>355.62</ele>
  <time>2026-09-01T19:50:22Z</time>
  <course>2.41</course>
  <speed>1.5041608956491321</speed>
  <fix>3d</fix>
</trkpt>
<trkpt lat="-27.2740171" lon="151.2900647">
  <ele>355.5</ele>
  <time>2026-09-01T19:50:22Z</time>
  <course>13.22</course>
  <speed>1.97</speed>
  <fix>3d</fix>
</trkpt>
<trkpt lat="-27.2740134" lon="151.2900659">
  <ele>355.72</ele>
  <time>2026-09-01T19:50:22Z</time>
  <course>2.38</course>
  <speed>1.2998846102635417</speed>
  <fix>3d</fix>
</trkpt>
<trkpt lat="-27.2740171" lon="151.2900647">
  <ele>355.5</ele>
  <time>2026-09-01T19:50:22Z</time>
  <course>13.22</course>
  <speed>1.97</speed>
  <fix>3d</fix>
</trkpt>
<trkpt lat="-27.2740123" lon="151.2900663">
  <ele>355.82</ele>
  <time>2026-09-01T19:50:22Z</time>
  <course>2.34</course>
  <speed>1.1038568747804218</speed>
  <fix>3d</fix>
</trkpt>
<trkpt lat="-27.2740141" lon="151.2900656">
  <ele>355.71</ele>
  <time>2026-09-01T19:50:22Z</time>
  <course>16.13</course>
  <speed>1.53</speed>
  <fix>3d</fix>
</trkpt>
<trkpt lat="-27.2740114" lon="151.2900667">
  <ele>355.91</ele>
  <time>2026-09-01T19:50:22Z</time>
  <course>2.29</course>
  <speed>0.9230926280715278</speed>
  <fix>3d</fix>
</trkpt>
<trkpt lat="-27.2740141" lon="151.2900656">
  <ele>355.71</ele>
  <time>2026-09-01T19:50:22Z</time>
  <course>16.13</course>
  <speed>1.53</speed>
  <fix>3d</fix>
</trkpt>
<trkpt lat="-27.2740107" lon="151.2900671">
  <ele>355.99</ele>
  <time>2026-09-01T19:50:22Z</time>
  <course>2.24</course>
  <speed>0.7424284477308234</speed>
  <fix>3d</fix>
</trkpt>
<trkpt lat="-27.2740118" lon="151.2900665">
  <ele>355.9</ele>
  <time>2026-09-01T19:50:22Z</time>
  <course>20.58</course>
  <speed>1.13</speed>
  <fix>3d</fix>
</trkpt>
<trkpt lat="-27.2740102" lon="151.2900674">
  <ele>356.06</ele>
  <time>2026-09-01T19:50:22Z</time>
  <course>2.18</course>
  <speed>0.5824946351684279</speed>
  <fix>3d</fix>
</trkpt>
<trkpt lat="-27.2740118" lon="151.2900665">
  <ele>355.9</ele>
  <time>2026-09-01T19:50:22Z</time>
  <course>20.58</course>
  <speed>1.13</speed>
  <fix>3d</fix>
</trkpt>
<trkpt lat="-27.2740098" lon="151.2900678">
  <ele>356.12</ele>
  <time>2026-09-01T19:50:22Z</time>
  <course>2.12</course>
  <speed>0.43840620433565947</speed>
  <fix>3d</fix>
</trkpt>
<trkpt lat="-27.2740103" lon="151.2900672">
  <ele>356.07</ele>
  <time>2026-09-01T19:50:22Z</time>
  <course>28.5</course>
  <speed>0.76</speed>
  <fix>3d</fix>
</trkpt>
<trkpt lat="-27.2740095" lon="151.2900681">
  <ele>356.17</ele>
  <time>2026-09-01T19:50:22Z</time>
  <course>2.05</course>
  <speed>0.32649655434629016</speed>
  <fix>3d</fix>
</trkpt>
<trkpt lat="-27.2740103" lon="151.2900672">
  <ele>356.07</ele>
  <time>2026-09-01T19:50:22Z</time>
  <course>28.5</course>
  <speed>0.76</speed>
  <fix>3d</fix>
</trkpt>
<trkpt lat="-27.2740094" lon="151.2900684">
  <ele>356.21</ele>
  <time>2026-09-01T19:50:22Z</time>
  <course>1.99</course>
  <speed>0.28</speed>
  <fix>3d</fix>
</trkpt>
<trkpt lat="-27.2740094" lon="151.290068">
  <ele>356.2</ele>
  <time>2026-09-01T19:50:22Z</time>
  <course>45.98</course>
  <speed>0.46</speed>
  <fix>3d</fix>
</trkpt>
<trkpt lat="-27.2740095" lon="151.2900687">
  <ele>356.24</ele>
  <time>2026-09-01T19:50:22Z</time>
  <course>1.92</course>
  <speed>0.2906888370749727</speed>
  <fix>3d</fix>
</trkpt>
<trkpt lat="-27.2740094" lon="151.290068">
  <ele>356.2</ele>
  <time>2026-09-01T19:50:22Z</time>
  <course>45.98</course>
  <speed>0.46</speed>
  <fix>3d</fix>
</trkpt>
<trkpt lat="-27.2740096" lon="151.290069">
  <ele>356.25</ele>
  <time>2026-09-01T19:50:22Z</time>
  <course>1.85</course>
  <speed>0.36069377593742863</speed>
  <fix>3d</fix>
</trkpt>
<trkpt lat="-27.2740091" lon="151.2900685">
  <ele>356.29</ele>
  <time>2026-09-01T19:50:22Z</time>
  <course>88.63</course>
  <speed>0.29</speed>
  <fix>3d</fix>
</trkpt>
<trkpt lat="-27.2740099" lon="151.2900692">
  <ele>356.25</ele>
  <time>2026-09-01T19:50:22Z</time>
  <course>1.78</course>
  <speed>0.4356604182158393</speed>
  <fix>3d</fix>
</trkpt>
<trkpt lat="-27.2740091" lon="151.2900685">
  <ele>356.29</ele>
  <time>2026-09-01T19:50:22Z</time>
  <course>88.63</course>
  <speed>0.29</speed>
  <fix>3d</fix>
</trkpt>
<trkpt lat="-27.2740102" lon="151.2900695">
  <ele>356.23</ele>
  <time>2026-09-01T19:50:22Z</time>
  <course>1.71</course>
  <speed>0.5280151512977634</speed>
  <fix>3d</fix>
</trkpt>
<trkpt lat="-27.2740093" lon="151.2900692">
  <ele>356.33</ele>
  <time>2026-09-01T19:50:22Z</time>
  <course>134.83</course>
  <speed>0.37</speed>
  <fix>3d</fix>
</trkpt>
<trkpt lat="-27.2740107" lon="151.2900697">
  <ele>356.2</ele>
  <time>2026-09-01T19:50:22Z</time>
  <course>1.64</course>
  <speed>0.6040695324215583</speed>
  <fix>3d</fix>
</trkpt>
<trkpt lat="-27.2740093" lon="151.2900692">
  <ele>356.33</ele>
  <time>2026-09-01T19:50:22Z</time>
  <course>134.83</course>
  <speed>0.37</speed>
  <fix>3d</fix>
</trkpt>
<trkpt lat="-27.2740111" lon="151.2900699">
  <ele>356.16</ele>
  <time>2026-09-01T19:50:22Z</time>
  <course>1.57</course>
  <speed>0.6772001181334805</speed>
  <fix>3d</fix>
</trkpt>
<trkpt lat="-27.2740099" lon="151.2900697">
  <ele>356.32</ele>
  <time>2026-09-01T19:50:22Z</time>
  <course>154.64</course>
  <speed>0.54</speed>
  <fix>3d</fix>
</trkpt>
<trkpt lat="-27.2740117" lon="151.2900701">
  <ele>356.1</ele>
  <time>2026-09-01T19:50:22Z</time>
  <course>1.49</course>
  <speed>0.7397972695272672</speed>
  <fix>3d</fix>
</trkpt>
<trkpt lat="-27.2740099" lon="151.2900697">
  <ele>356.32</ele>
  <time>2026-09-01T19:50:22Z</time>
  <course>154.64</course>
  <speed>0.54</speed>
  <fix>3d</fix>
</trkpt>
<trkpt lat="-27.2740124" lon="151.2900703">
  <ele>356.03</ele>
  <time>2026-09-01T19:50:22Z</time>
  <course>1.42</course>
  <speed>0.7962411694957753</speed>
  <fix>3d</fix>
</trkpt>
<trkpt lat="-27.274011" lon="151.29007">
  <ele>356.24</ele>
  <time>2026-09-01T19:50:22Z</time>
  <course>163.46</course>
  <speed>0.69</speed>
  <fix>3d</fix>
</trkpt>
<trkpt lat="-27.2740131" lon="151.2900705">
  <ele>355.94</ele>
  <time>2026-09-01T19:50:22Z</time>
  <course>1.34</course>
  <speed>0.8417244204607586</speed>
  <fix>3d</fix>
</trkpt>
<trkpt lat="-27.274011" lon="151.29007">
  <ele>356.24</ele>
  <time>2026-09-01T19:50:22Z</time>
  <course>163.46</course>
  <speed>0.69</speed>
  <fix>3d</fix>
</trkpt>
<trkpt lat="-27.2740138" lon="151.2900706">
  <ele>355.84</ele>
  <time>2026-09-01T19:50:22Z</time>
  <course>1.26</course>
  <speed>0.8697700845625813</speed>
  <fix>3d</fix>
</trkpt>
<trkpt lat="-27.2740123" lon="151.2900705">
  <ele>356.11</ele>
  <time>2026-09-01T19:50:22Z</time>
  <course>168.29</course>
  <speed>0.81</speed>
  <fix>3d</fix>
</trkpt>
<trkpt lat="-27.2740146" lon="151.2900708">
  <ele>355.73</ele>
  <time>2026-09-01T19:50:22Z</time>
  <course>1.18</course>
  <speed>0.87692645073575</speed>
  <fix>3d</fix>
</trkpt>
<trkpt lat="-27.2740123" lon="151.2900705">
  <ele>356.11</ele>
  <time>2026-09-01T19:50:22Z</time>
  <course>168.29</course>
  <speed>0.81</speed>
  <fix>3d</fix>
</trkpt>
<trkpt lat="-27.2740154" lon="151.2900709">
  <ele>355.61</ele>
  <time>2026-09-01T19:50:22Z</time>
  <course>1.1</course>
  <speed>0.875728268357257</speed>
  <fix>3d</fix>
</trkpt>
<trkpt lat="-27.2740138" lon="151.2900708">
  <ele>355.93</ele>
  <time>2026-09-01T19:50:22Z</time>
  <course>171.32</course>
  <speed>0.88</speed>
  <fix>3d</fix>
</trkpt>
<trkpt lat="-27.2740161" lon="151.290071">
  <ele>355.49</ele>
  <time>2026-09-01T19:50:22Z</time>
  <course>1.01</course>
  <speed>0.8646964785403025</speed>
  <fix>3d</fix>
</trkpt>
<trkpt lat="-27.2740138" lon="151.2900708">
  <ele>355.93</ele>
  <time>2026-09-01T19:50:22Z</time>
  <course>171.32</course>
  <speed>0.88</speed>
  <fix>3d</fix>
</trkpt>
<trkpt lat="-27.2740169" lon="151.2900711">
  <ele>355.35</ele>
  <time>2026-09-01T19:50:22Z</time>
  <course>0.94</course>
  <speed>0.8429116205154606</speed>
  <fix>3d</fix>
</trkpt>
<trkpt lat="-27.2740153" lon="151.290071">
  <ele>355.7</ele>
  <time>2026-09-01T19:50:22Z</time>
  <course>173.48</course>
  <speed>0.9</speed>
  <fix>3d</fix>
</trkpt>
<trkpt lat="-27.2740176" lon="151.2900712">
  <ele>355.21</ele>
  <time>2026-09-01T19:50:22Z</time>
  <course>0.88</course>
  <speed>0.8022468448052632</speed>
  <fix>3d</fix>
</trkpt>
<trkpt lat="-27.2740153" lon="151.290071">
  <ele>355.7</ele>
  <time>2026-09-01T19:50:22Z</time>
  <course>173.48</course>
  <speed>0.9</speed>
  <fix>3d</fix>
</trkpt>
<trkpt lat="-27.2740183" lon="151.2900712">
  <ele>355.07</ele>
  <time>2026-09-01T19:50:22Z</time>
  <course>0.84</course>
  <speed>0.7516648189186453</speed>
  <fix>3d</fix>
</trkpt>
<trkpt lat="-27.274017" lon="151.2900712">
  <ele>355.44</ele>
  <time>2026-09-01T19:50:22Z</time>
  <course>175.24</course>
  <speed>0.86</speed>
  <fix>3d</fix>
</trkpt>
<trkpt lat="-27.274019" lon="151.2900713">
  <ele>354.93</ele>
  <time>2026-09-01T19:50:22Z</time>
  <course>0.82</course>
  <speed>0.7006425622241343</speed>
  <fix>3d</fix>
</trkpt>
<trkpt lat="-27.274017" lon="151.2900712">
  <ele>355.44</ele>
  <time>2026-09-01T19:50:22Z</time>
  <course>175.24</course>
  <speed>0.86</speed>
  <fix>3d</fix>
</trkpt>
<trkpt lat="-27.2740196" lon="151.2900713">
  <ele>354.79</ele>
  <time>2026-09-01T19:50:22Z</time>
  <course>0.8</course>
  <speed>0.6403124237432849</speed>
  <fix>3d</fix>
</trkpt>
<trkpt lat="-27.2740184" lon="151.2900713">
  <ele>355.16</ele>
  <time>2026-09-01T19:50:22Z</time>
  <course>177.0</course>
  <speed>0.78</speed>
  <fix>3d</fix>
</trkpt>
<trkpt lat="-27.2740201" lon="151.2900713">
  <ele>354.66</ele>
  <time>2026-09-01T19:50:22Z</time>
  <course>0.81</course>
  <speed>0.5800862004909271</speed>
  <fix>3d</fix>
</trkpt>
<trkpt lat="-27.2740184" lon="151.2900713">
  <ele>355.16</ele>
  <time>2026-09-01T19:50:22Z</time>
  <course>177.0</course>
  <speed>0.78</speed>
  <fix>3d</fix>
</trkpt>
<trkpt lat="-27.2740206" lon="151.2900713">
  <ele>354.53</ele>
  <time>2026-09-01T19:50:22Z</time>
  <course>0.83</course>
  <speed>0.53</speed>
  <fix>3d</fix>
</trkpt>
<trkpt lat="-27.2740198" lon="151.2900713">
  <ele>354.9</ele>
  <time>2026-09-01T19:50:22Z</time>
  <course>179.04</course>
  <speed>0.67</speed>
  <fix>3d</fix>
</trkpt>
<trkpt lat="-27.2740211" lon="151.2900713">
  <ele>354.41</ele>
  <time>2026-09-01T19:50:22Z</time>
  <course>0.84</course>
  <speed>0.47</speed>
  <fix>3d</fix>
</trkpt>
<trkpt lat="-27.2740198" lon="151.2900713">
  <ele>354.9</ele>
  <time>2026-09-01T19:50:22Z</time>
  <course>179.04</course>
  <speed>0.67</speed>
  <fix>3d</fix>
</trkpt>
<trkpt lat="-27.2740215" lon="151.2900713">
  <ele>354.3</ele>
  <time>2026-09-01T19:50:22Z</time>
  <course>0.84</course>
  <speed>0.41012193308819755</speed>
  <fix>3d</fix>
</trkpt>
<trkpt lat="-27.2740208" lon="151.2900713">
  <ele>354.65</ele>
  <time>2026-09-01T19:50:22Z</time>
  <course>181.52</course>
  <speed>0.55</speed>
  <fix>3d</fix>
</trkpt>
<trkpt lat="-27.2740219" lon="151.2900713">
  <ele>354.21</ele>
  <time>2026-09-01T19:50:22Z</time>
  <course>0.84</course>
  <speed>0.3505709628591621</speed>
  <fix>3d</fix>
</trkpt>
<trkpt lat="-27.2740208" lon="151.2900713">
  <ele>354.65</ele>
  <time>2026-09-01T19:50:22Z</time>
  <course>181.52</course>
  <speed>0.55</speed>
  <fix>3d</fix>
</trkpt>
<trkpt lat="-27.2740222" lon="151.2900712">
  <ele>354.12</ele>
  <time>2026-09-01T19:50:22Z</time>
  <course>0.83</course>
  <speed>0.30066592756745814</speed>
  <fix>3d</fix>
</trkpt>
<trkpt lat="-27.2740218" lon="151.2900713">
  <ele>354.43</ele>
  <time>2026-09-01T19:50:22Z</time>
  <course>184.83</course>
  <speed>0.43</speed>
  <fix>3d</fix>
</trkpt>
<trkpt lat="-27.2740224" lon="151.2900712">
  <ele>354.05</ele>
  <time>2026-09-01T19:50:22Z</time>
  <course>0.83</course>
  <speed>0.25179356624028343</speed>
  <fix>3d</fix>
</trkpt>
<trkpt lat="-27.2740218" lon="151.2900713">
  <ele>354.43</ele>
  <time>2026-09-01T19:50:22Z</time>
  <course>184.83</course>
  <speed>0.43</speed>
  <fix>3d</fix>
</trkpt>
<trkpt lat="-27.2740227" lon="151.2900712">
  <ele>353.98</ele>
  <time>2026-09-01T19:50:22Z</time>
  <course>0.83</course>
  <speed>0.2039607805437114</speed>
  <fix>3d</fix>
</trkpt>
<trkpt lat="-27.2740225" lon="151.2900713">
  <ele>354.25</ele>
  <time>2026-09-01T19:50:22Z</time>
  <course>189.73</course>
  <speed>0.32</speed>
  <fix>3d</fix>
</trkpt>
<trkpt lat="-27.2740229" lon="151.2900712">
  <ele>353.92</ele>
  <time>2026-09-01T19:50:22Z</time>
  <course>0.83</course>
  <speed>0.15524174696260024</speed>
  <fix>3d</fix>
</trkpt>
<trkpt lat="-27.2740225" lon="151.2900713">
  <ele>354.25</ele>
  <time>2026-09-01T19:50:22Z</time>
  <course>189.73</course>
  <speed>0.32</speed>
  <fix>3d</fix>
</trkpt>
<trkpt lat="-27.274023" lon="151.2900711">
  <ele>353.88</ele>
  <time>2026-09-01T19:50:22Z</time>
  <course>0.83</course>
  <speed>0.10770329614269007</speed>
  <fix>3d</fix>
</trkpt>
<trkpt lat="-27.274023" lon="151.2900712">
  <ele>354.11</ele>
  <time>2026-09-01T19:50:22Z</time>
  <course>197.97</course>
  <speed>0.22</speed>
  <fix>3d</fix>
</trkpt>
<trkpt lat="-27.2740231" lon="151.2900711">
  <ele>353.84</ele>
  <time>2026-09-01T19:50:22Z</time>
  <course>0.81</course>
  <speed>0.07810249675906654</speed>
  <fix>3d</fix>
</trkpt>
<trkpt lat="-27.274023" lon="151.2900712">
  <ele>354.11</ele>
  <time>2026-09-01T19:50:22Z</time>
  <course>197.97</course>
  <speed>0.22</speed>
  <fix>3d</fix>
</trkpt>
<trkpt lat="-27.2740231" lon="151.290071">
  <ele>353.81</ele>
  <time>2026-09-01T19:50:22Z</time>
  <course>0.8</course>
  <speed>0.05099019513592785</speed>
  <fix>3d</fix>
</trkpt>
<trkpt lat="-27.2740232" lon="151.290071">
  <ele>354.01</ele>
  <time>2026-09-01T19:50:22Z</time>
  <course>214.7</course>
  <speed>0.14</speed>
  <fix>3d</fix>
</trkpt>
<trkpt lat="-27.2740232" lon="151.290071">
  <ele>353.8</ele>
  <time>2026-09-01T19:50:22Z</time>
  <course>0.8</course>
  <speed>0.053851648071345036</speed>
  <fix>3d</fix>
</trkpt>
<trkpt lat="-27.2740232" lon="151.290071">
  <ele>354.01</ele>
  <time>2026-09-01T19:50:22Z</time>
  <course>214.7</course>
  <speed>0.14</speed>
  <fix>3d</fix>
</trkpt>
<trkpt lat="-27.2740231" lon="151.2900709">
  <ele>353.78</ele>
  <time>2026-09-01T19:50:22Z</time>
  <course>0.79</course>
  <speed>0.08602325267042626</speed>
  <fix>3d</fix>
</trkpt>
<trkpt lat="-27.2740234" lon="151.2900709">
  <ele>353.94</ele>
  <time>2026-09-01T19:50:22Z</time>
  <course>256.35</course>
  <speed>0.09</speed>
  <fix>3d</fix>
</trkpt>
<trkpt lat="-27.2740231" lon="151.2900708">
  <ele>353.77</ele>
  <time>2026-09-01T19:50:22Z</time>
  <course>0.79</course>
  <speed>0.12083045973594572</speed>
  <fix>3d</fix>
</trkpt>
<trkpt lat="-27.2740234" lon="151.2900709">
  <ele>353.94</ele>
  <time>2026-09-01T19:50:22Z</time>
  <course>256.35</course>
  <speed>0.09</speed>
  <fix>3d</fix>
</trkpt>
<trkpt lat="-27.274023" lon="151.2900707">
  <ele>353.77</ele>
  <time>2026-09-01T19:50:22Z</time>
  <course>0.79</course>
  <speed>0.1392838827718412</speed>
  <fix>3d</fix>
</trkpt>
<trkpt lat="-27.2740233" lon="151.2900707">
  <ele>353.91</ele>
  <time>2026-09-01T19:50:22Z</time>
  <course>307.55</course>
  <speed>0.11</speed>
  <fix>3d</fix>
</trkpt>
<trkpt lat="-27.2740229" lon="151.2900707">
  <ele>353.77</ele>
  <time>2026-09-01T19:50:22Z</time>
  <course>0.79</course>
  <speed>0.1118033988749895</speed>
  <fix>3d</fix>
</trkpt>
<trkpt lat="-27.2740233" lon="151.2900707">
  <ele>353.91</ele>
  <time>2026-09-01T19:50:22Z</time>
  <course>307.55</course>
  <speed>0.11</speed>
  <fix>3d</fix>
</trkpt>
<trkpt lat="-27.2740229" lon="151.2900706">
  <ele>353.78</ele>
  <time>2026-09-01T19:50:22Z</time>
  <course>0.79</course>
  <speed>0.08602325267042626</speed>
  <fix>3d</fix>
</trkpt>
<trkpt lat="-27.2740232" lon="151.2900705">
  <ele>353.9</ele>
  <time>2026-09-01T19:50:22Z</time>
  <course>321.05</course>
  <speed>0.14</speed>
  <fix>3d</fix>
</trkpt>
<trkpt lat="-27.2740229" lon="151.2900705">
  <ele>353.79</ele>
  <time>2026-09-01T19:50:23Z</time>
  <course>0.8</course>
  <speed>0.06403124237432849</speed>
  <fix>3d</fix>
</trkpt>
<trkpt lat="-27.2740232" lon="151.2900705">
  <ele>353.9</ele>
  <time>2026-09-01T19:50:23Z</time>
  <course>321.05</course>
  <speed>0.14</speed>
  <fix>3d</fix>
</trkpt>
<trkpt lat="-27.2740229" lon="151.2900704">
  <ele>353.8</ele>
  <time>2026-09-01T19:50:23Z</time>
  <course>0.81</course>
  <speed>0.05</speed>
  <fix>3d</fix>
</trkpt>
<trkpt lat="-27.274023" lon="151.2900703">
  <ele>353.9</ele>
  <time>2026-09-01T19:50:23Z</time>
  <course>312.41</course>
  <speed>0.12</speed>
  <fix>3d</fix>
</trkpt>
<trkpt lat="-27.2740229" lon="151.2900703">
  <ele>353.81</ele>
  <time>2026-09-01T19:50:23Z</time>
  <course>0.81</course>
  <speed>0.053851648071345036</speed>
  <fix>3d</fix>
</trkpt>
<trkpt lat="-27.274023" lon="151.2900703">
  <ele>353.9</ele>
  <time>2026-09-01T19:50:23Z</time>
  <course>312.41</course>
  <speed>0.12</speed>
  <fix>3d</fix>
</trkpt>
<trkpt lat="-27.2740229" lon="151.2900703">
  <ele>353.83</ele>
  <time>2026-09-01T19:50:23Z</time>
  <course>0.82</course>
  <speed>0.07071067811865475</speed>
  <fix>3d</fix>
</trkpt>
<trkpt lat="-27.274023" lon="151.29007">
  <ele>353.92</ele>
  <time>2026-09-01T19:50:23Z</time>
  <course>284.85</course>
  <speed>0.09</speed>
  <fix>3d</fix>
</trkpt>
<trkpt lat="-27.274023" lon="151.2900702">
  <ele>353.85</ele>
  <time>2026-09-01T19:50:23Z</time>
  <course>0.82</course>
  <speed>0.08944271909999159</speed>
  <fix>3d</fix>
</trkpt>
<trkpt lat="-27.274023" lon="151.29007">
  <ele>353.92</ele>
  <time>2026-09-01T19:50:23Z</time>
  <course>284.85</course>
  <speed>0.09</speed>
  <fix>3d</fix>
</trkpt>
<trkpt lat="-27.274023" lon="151.2900701">
  <ele>353.87</ele>
  <time>2026-09-01T19:50:23Z</time>
  <course>0.83</course>
  <speed>0.11704699910719625</speed>
  <fix>3d</fix>
</trkpt>
<trkpt lat="-27.274023" lon="151.2900699">
  <ele>353.95</ele>
  <time>2026-09-01T19:50:23Z</time>
  <course>247.84</course>
  <speed>0.09</speed>
  <fix>3d</fix>
</trkpt>
<trkpt lat="-27.2740231" lon="151.29007">
  <ele>353.88</ele>
  <time>2026-09-01T19:50:23Z</time>
  <course>0.83</course>
  <speed>0.14560219778561037</speed>
  <fix>3d</fix>
</trkpt>
<trkpt lat="-27.274023" lon="151.2900699">
  <ele>353.95</ele>
  <time>2026-09-01T19:50:23Z</time>
  <course>247.84</course>
  <speed>0.09</speed>
  <fix>3d</fix>
</trkpt>
<trkpt lat="-27.2740232" lon="151.2900699">
  <ele>353.9</ele>
  <time>2026-09-01T19:50:23Z</time>
  <course>0.84</course>
  <speed>0.1649242250247064</speed>
  <fix>3d</fix>
</trkpt>
<trkpt lat="-27.274023" lon="151.2900698">
  <ele>353.99</ele>
  <time>2026-09-01T19:50:23Z</time>
  <course>221.5</course>
  <speed>0.12</speed>
  <fix>3d</fix>
</trkpt>
<trkpt lat="-27.2740234" lon="151.2900699">
  <ele>353.92</ele>
  <time>2026-09-01T19:50:23Z</time>
  <course>0.85</course>
  <speed>0.19235384061671343</speed>
  <fix>3d</fix>
</trkpt>
<trkpt lat="-27.274023" lon="151.2900698">
  <ele>353.99</ele>
  <time>2026-09-01T19:50:23Z</time>
  <course>221.5</course>
  <speed>0.12</speed>
  <fix>3d</fix>
</trkpt>
<trkpt lat="-27.2740236" lon="151.2900698">
  <ele>353.93</ele>
  <time>2026-09-01T19:50:23Z</time>
  <course>0.86</course>
  <speed>0.2220360331117452</speed>
  <fix>3d</fix>
</trkpt>
<trkpt lat="-27.2740232" lon="151.2900696">
  <ele>354.03</ele>
  <time>2026-09-01T19:50:23Z</time>
  <course>206.93</course>
  <speed>0.16</speed>
  <fix>3d</fix>
</trkpt>
<trkpt lat="-27.2740238" lon="151.2900697">
  <ele>353.95</ele>
  <time>2026-09-01T19:50:23Z</time>
  <course>0.87</course>
  <speed>0.24186773244895649</speed>
  <fix>3d</fix>
</trkpt>
<trkpt lat="-27.2740232" lon="151.2900696">
  <ele>354.03</ele>
  <time>2026-09-01T19:50:23Z</time>
  <course>206.93</course>
  <speed>0.16</speed>
  <fix>3d</fix>
</trkpt>
<trkpt lat="-27.274024" lon="151.2900697">
  <ele>353.96</ele>
  <time>2026-09-01T19:50:23Z</time>
  <course>0.88</course>
  <speed>0.2707397274136177</speed>
  <fix>3d</fix>
</trkpt>
<trkpt lat="-27.2740235" lon="151.2900694">
  <ele>354.06</ele>
  <time>2026-09-01T19:50:23Z</time>
  <course>198.44</course>
  <speed>0.2</speed>
  <fix>3d</fix>
</trkpt>
<trkpt lat="-27.2740242" lon="151.2900696">
  <ele>353.98</ele>
  <time>2026-09-01T19:50:23Z</time>
  <course>0.89</course>
  <speed>0.2906888370749727</speed>
  <fix>3d</fix>
</trkpt>
<trkpt lat="-27.2740235" lon="151.2900694">
  <ele>354.06</ele>
  <time>2026-09-01T19:50:23Z</time>
  <course>198.44</course>
  <speed>0.2</speed>
  <fix>3d</fix>
</trkpt>
<trkpt lat="-27.2740245" lon="151.2900695">
  <ele>354.0</ele>
  <time>2026-09-01T19:50:23Z</time>
  <course>0.9</course>
  <speed>0.32015621187164245</speed>
  <fix>3d</fix>
</trkpt>
<trkpt lat="-27.2740238" lon="151.2900693">
  <ele>354.09</ele>
  <time>2026-09-01T19:50:23Z</time>
  <course>193.03</course>
  <speed>0.25</speed>
  <fix>3d</fix>
</trkpt>
<trkpt lat="-27.2740247" lon="151.2900695">
  <ele>354.01</ele>
  <time>2026-09-01T19:50:23Z</time>
  <course>0.91</course>
  <speed>0.340147027033899</speed>
  <fix>3d</fix>
</trkpt>
<trkpt lat="-27.2740238" lon="151.2900693">
  <ele>354.09</ele>
  <time>2026-09-01T19:50:23Z</time>
  <course>193.03</course>
  <speed>0.25</speed>
  <fix>3d</fix>
</trkpt>
<trkpt lat="-27.274025" lon="151.2900694">
  <ele>354.03</ele>
  <time>2026-09-01T19:50:23Z</time>
  <course>0.92</course>
  <speed>0.36013886210738216</speed>
  <fix>3d</fix>
</trkpt>
<trkpt lat="-27.2740244" lon="151.2900692">
  <ele>354.12</ele>
  <time>2026-09-01T19:50:23Z</time>
  <course>189.24</course>
  <speed>0.29</speed>
  <fix>3d</fix>
</trkpt>
<trkpt lat="-27.2740254" lon="151.2900694">
  <ele>354.04</ele>
  <time>2026-09-01T19:50:23Z</time>
  <course>0.93</course>
  <speed>0.39</speed>
  <fix>3d</fix>
</trkpt>
<trkpt lat="-27.2740244" lon="151.2900692">
  <ele>354.12</ele>
  <time>2026-09-01T19:50:23Z</time>
  <course>189.24</course>
  <speed>0.29</speed>
  <fix>3d</fix>
</trkpt>
<trkpt lat="-27.2740257" lon="151.2900694">
  <ele>354.05</ele>
  <time>2026-09-01T19:50:23Z</time>
  <course>0.94</course>
  <speed>0.41</speed>
  <fix>3d</fix>
</trkpt>
<trkpt lat="-27.274025" lon="151.2900691">
  <ele>354.15</ele>
  <time>2026-09-01T19:50:23Z</time>
  <course>186.42</course>
  <speed>0.34</speed>
  <fix>3d</fix>
</trkpt>
<trkpt lat="-27.2740261" lon="151.2900693">
  <ele>354.07</ele>
  <time>2026-09-01T19:50:23Z</time>
  <course>0.95</course>
  <speed>0.43</speed>
  <fix>3d</fix>
</trkpt>
<trkpt lat="-27.274025" lon="151.2900691">
  <ele>354.15</ele>
  <time>2026-09-01T19:50:23Z</time>
  <course>186.42</course>
  <speed>0.34</speed>
  <fix>3d</fix>
</trkpt>
<trkpt lat="-27.2740264" lon="151.2900693">
  <ele>354.08</ele>
  <time>2026-09-01T19:50:23Z</time>
  <course>0.96</course>
  <speed>0.46</speed>
  <fix>3d</fix>
</trkpt>
<trkpt lat="-27.2740256" lon="151.290069">
  <ele>354.18</ele>
  <time>2026-09-01T19:50:23Z</time>
  <course>184.3</course>
  <speed>0.38</speed>
  <fix>3d</fix>
</trkpt>
<trkpt lat="-27.2740268" lon="151.2900693">
  <ele>354.08</ele>
  <time>2026-09-01T19:50:23Z</time>
  <course>0.98</course>
  <speed>0.48</speed>
  <fix>3d</fix>
</trkpt>
<trkpt lat="-27.2740256" lon="151.290069">
  <ele>354.18</ele>
  <time>2026-09-01T19:50:23Z</time>
  <course>184.3</course>
  <speed>0.38</speed>
  <fix>3d</fix>
</trkpt>
<trkpt lat="-27.2740273" lon="151.2900693">
  <ele>354.09</ele>
  <time>2026-09-01T19:50:23Z</time>
  <course>0.99</course>
  <speed>0.5</speed>
  <fix>3d</fix>
</trkpt>
<trkpt lat="-27.2740263" lon="151.290069">
  <ele>354.19</ele>
  <time>2026-09-01T19:50:23Z</time>
  <course>182.69</course>
  <speed>0.43</speed>
  <fix>3d</fix>
</trkpt>
<trkpt lat="-27.2740277" lon="151.2900692">
  <ele>354.1</ele>
  <time>2026-09-01T19:50:23Z</time>
  <course>1.0</course>
  <speed>0.5200961449578337</speed>
  <fix>3d</fix>
</trkpt>
<trkpt lat="-27.2740263" lon="151.290069">
  <ele>354.19</ele>
  <time>2026-09-01T19:50:23Z</time>
  <course>182.69</course>
  <speed>0.43</speed>
  <fix>3d</fix>
</trkpt>
<trkpt lat="-27.2740282" lon="151.2900692">
  <ele>354.1</ele>
  <time>2026-09-01T19:50:23Z</time>
  <course>1.01</course>
  <speed>0.540092584655631</speed>
  <fix>3d</fix>
</trkpt>
<trkpt lat="-27.2740272" lon="151.290069">
  <ele>354.21</ele>
  <time>2026-09-01T19:50:23Z</time>
  <course>181.44</course>
  <speed>0.47</speed>
  <fix>3d</fix>
</trkpt>
<trkpt lat="-27.2740286" lon="151.2900692">
  <ele>354.11</ele>
  <time>2026-09-01T19:50:23Z</time>
  <course>1.02</course>
  <speed>0.5600892785976178</speed>
  <fix>3d</fix>
</trkpt>
<trkpt lat="-27.2740272" lon="151.290069">
  <ele>354.21</ele>
  <time>2026-09-01T19:50:23Z</time>
  <course>181.44</course>
  <speed>0.47</speed>
  <fix>3d</fix>
</trkpt>
<trkpt lat="-27.2740291" lon="151.2900692">
  <ele>354.11</ele>
  <time>2026-09-01T19:50:23Z</time>
  <course>1.03</course>
  <speed>0.5903388857258176</speed>
  <fix>3d</fix>
</trkpt>
<trkpt lat="-27.2740281" lon="151.290069">
  <ele>354.22</ele>
  <time>2026-09-01T19:50:23Z</time>
  <course>180.49</course>
  <speed>0.52</speed>
  <fix>3d</fix>
</trkpt>
<trkpt lat="-27.2740297" lon="151.2900692">
  <ele>354.11</ele>
  <time>2026-09-01T19:50:23Z</time>
  <course>1.04</course>
  <speed>0.6103277807866851</speed>
  <fix>3d</fix>
</trkpt>
<trkpt lat="-27.2740281" lon="151.290069">
  <ele>354.22</ele>
  <time>2026-09-01T19:50:23Z</time>
  <course>180.49</course>
  <speed>0.52</speed>
  <fix>3d</fix>
</trkpt>
<trkpt lat="-27.2740302" lon="151.2900692">
  <ele>354.11</ele>
  <time>2026-09-01T19:50:23Z</time>
  <course>1.05</course>
  <speed>0.630317380372777</speed>
  <fix>3d</fix>
</trkpt>
<trkpt lat="-27.2740291" lon="151.290069">
  <ele>354.22</ele>
  <time>2026-09-01T19:50:23Z</time>
  <course>179.82</course>
  <speed>0.56</speed>
  <fix>3d</fix>
</trkpt>
<trkpt lat="-27.2740307" lon="151.2900692">
  <ele>354.11</ele>
  <time>2026-09-01T19:50:23Z</time>
  <course>1.05</course>
  <speed>0.6503076195155643</speed>
  <fix>3d</fix>
</trkpt>
<trkpt lat="-27.2740291" lon="151.290069">
  <ele>354.22</ele>
  <time>2026-09-01T19:50:23Z</time>
  <course>179.82</course>
  <speed>0.56</speed>
  <fix>3d</fix>
</trkpt>
<trkpt lat="-27.2740313" lon="151.2900692">
  <ele>354.12</ele>
  <time>2026-09-01T19:50:23Z</time>
  <course>1.06</course>
  <speed>0.6702984409947557</speed>
  <fix>3d</fix>
</trkpt>
<trkpt lat="-27.2740301" lon="151.290069">
  <ele>354.23</ele>
  <time>2026-09-01T19:50:23Z</time>
  <course>179.36</course>
  <speed>0.6</speed>
  <fix>3d</fix>
</trkpt>
<trkpt lat="-27.2740319" lon="151.2900692">
  <ele>354.12</ele>
  <time>2026-09-01T19:50:23Z</time>
  <course>1.07</course>
  <speed>0.6902897942168927</speed>
  <fix>3d</fix>
</trkpt>
<trkpt lat="-27.2740301" lon="151.290069">
  <ele>354.23</ele>
  <time>2026-09-01T19:50:23Z</time>
  <course>179.36</course>
  <speed>0.6</speed>
  <fix>3d</fix>
</trkpt>
<trkpt lat="-27.2740325" lon="151.2900692">
  <ele>354.12</ele>
  <time>2026-09-01T19:50:23Z</time>
  <course>1.07</course>
  <speed>0.7106335201775947</speed>
  <fix>3d</fix>
</trkpt>
<trkpt lat="-27.2740312" lon="151.290069">
  <ele>354.23</ele>
  <time>2026-09-01T19:50:23Z</time>
  <course>179.08</course>
  <speed>0.64</speed>
  <fix>3d</fix>
</trkpt>
<trkpt lat="-27.2740331" lon="151.2900692">
  <ele>354.12</ele>
  <time>2026-09-01T19:50:23Z</time>
  <course>1.08</course>
  <speed>0.7306161783043131</speed>
  <fix>3d</fix>
</trkpt>
<trkpt lat="-27.2740312" lon="151.290069">
  <ele>354.23</ele>
  <time>2026-09-01T19:50:23Z</time>
  <course>179.08</course>
  <speed>0.64</speed>
  <fix>3d</fix>
</trkpt>
<trkpt lat="-27.2740338" lon="151.2900692">
  <ele>354.12</ele>
  <time>2026-09-01T19:50:23Z</time>
  <course>1.09</course>
  <speed>0.740607858451421</speed>
  <fix>3d</fix>
</trkpt>
<trkpt lat="-27.2740324" lon="151.290069">
  <ele>354.23</ele>
  <time>2026-09-01T19:50:23Z</time>
  <course>178.92</course>
  <speed>0.68</speed>
  <fix>3d</fix>
</trkpt>
<trkpt lat="-27.2740344" lon="151.2900692">
  <ele>354.12</ele>
  <time>2026-09-01T19:50:23Z</time>
  <course>1.09</course>
  <speed>0.7605918747922567</speed>
  <fix>3d</fix>
</trkpt>
<trkpt lat="-27.2740324" lon="151.290069">
  <ele>354.23</ele>
  <time>2026-09-01T19:50:23Z</time>
  <course>178.92</course>
  <speed>0.68</speed>
  <fix>3d</fix>
</trkpt>
<trkpt lat="-27.2740351" lon="151.2900692">
  <ele>354.12</ele>
  <time>2026-09-01T19:50:23Z</time>
  <course>1.09</course>
  <speed>0.7805767098754611</speed>
  <fix>3d</fix>
</trkpt>
<trkpt lat="-27.2740337" lon="151.290069">
  <ele>354.22</ele>
  <time>2026-09-01T19:50:23Z</time>
  <course>178.84</course>
  <speed>0.72</speed>
  <fix>3d</fix>
</trkpt>
<trkpt lat="-27.2740358" lon="151.2900692">
  <ele>354.12</ele>
  <time>2026-09-01T19:50:23Z</time>
  <course>1.1</course>
  <speed>0.8005623023850174</speed>
  <fix>3d</fix>
</trkpt>
<trkpt lat="-27.2740337" lon="151.290069">
  <ele>354.22</ele>
  <time>2026-09-01T19:50:23Z</time>
  <course>178.84</course>
  <speed>0.72</speed>
  <fix>3d</fix>
</trkpt>
<trkpt lat="-27.2740365" lon="151.2900692">
  <ele>354.12</ele>
  <time>2026-09-01T19:50:23Z</time>
  <course>1.1</course>
  <speed>0.8205485969764374</speed>
  <fix>3d</fix>
</trkpt>
<trkpt lat="-27.274035" lon="151.290069">
  <ele>354.22</ele>
  <time>2026-09-01T19:50:23Z</time>
  <course>178.83</course>
  <speed>0.76</speed>
  <fix>3d</fix>
</trkpt>
<trkpt lat="-27.2740372" lon="151.2900692">
  <ele>354.11</ele>
  <time>2026-09-01T19:50:23Z</time>
  <course>1.1</course>
  <speed>0.8302409288875127</speed>
  <fix>3d</fix>
</trkpt>
<trkpt lat="-27.274035" lon="151.290069">
  <ele>354.22</ele>
  <time>2026-09-01T19:50:23Z</time>
  <course>178.83</course>
  <speed>0.76</speed>
  <fix>3d</fix>
</trkpt>
<trkpt lat="-27.2740379" lon="151.2900692">
  <ele>354.11</ele>
  <time>2026-09-01T19:50:23Z</time>
  <course>1.1</course>
  <speed>0.8502352615599991</speed>
  <fix>3d</fix>
</trkpt>
<trkpt lat="-27.2740364" lon="151.290069">
  <ele>354.21</ele>
  <time>2026-09-01T19:50:23Z</time>
  <course>178.9</course>
  <speed>0.79</speed>
  <fix>3d</fix>
</trkpt>
<trkpt lat="-27.2740387" lon="151.2900692">
  <ele>354.11</ele>
  <time>2026-09-01T19:50:23Z</time>
  <course>1.1</course>
  <speed>0.8702298546935746</speed>
  <fix>3d</fix>
</trkpt>
<trkpt lat="-27.2740364" lon="151.290069">
  <ele>354.21</ele>
  <time>2026-09-01T19:50:23Z</time>
  <course>178.9</course>
  <speed>0.79</speed>
  <fix>3d</fix>
</trkpt>
<trkpt lat="-27.2740395" lon="151.2900692">
  <ele>354.11</ele>
  <time>2026-09-01T19:50:23Z</time>
  <course>1.09</course>
  <speed>0.8802272433866155</speed>
  <fix>3d</fix>
</trkpt>
<trkpt lat="-27.2740379" lon="151.290069">
  <ele>354.21</ele>
  <time>2026-09-01T19:50:23Z</time>
  <course>179.02</course>
  <speed>0.83</speed>
  <fix>3d</fix>
</trkpt>
<trkpt lat="-27.2740402" lon="151.2900692">
  <ele>354.11</ele>
  <time>2026-09-01T19:50:23Z</time>
  <course>1.09</course>
  <speed>0.900222194794152</speed>
  <fix>3d</fix>
</trkpt>
<trkpt lat="-27.2740379" lon="151.290069">
  <ele>354.21</ele>
  <time>2026-09-01T19:50:23Z</time>
  <course>179.02</course>
  <speed>0.83</speed>
  <fix>3d</fix>
</trkpt>
<trkpt lat="-27.274041" lon="151.2900692">
  <ele>354.1</ele>
  <time>2026-09-01T19:50:23Z</time>
  <course>1.09</course>
  <speed>0.9202173656261873</speed>
  <fix>3d</fix>
</trkpt>
<trkpt lat="-27.2740394" lon="151.290069">
  <ele>354.2</ele>
  <time>2026-09-01T19:50:23Z</time>
  <course>179.14</course>
  <speed>0.86</speed>
  <fix>3d</fix>
</trkpt>
<trkpt lat="-27.2740418" lon="151.2900692">
  <ele>354.1</ele>
  <time>2026-09-01T19:50:23Z</time>
  <course>1.09</course>
  <speed>0.9302150289046076</speed>
  <fix>3d</fix>
</trkpt>
<trkpt lat="-27.2740394" lon="151.290069">
  <ele>354.2</ele>
  <time>2026-09-01T19:50:23Z</time>
  <course>179.14</course>
  <speed>0.86</speed>
  <fix>3d</fix>
</trkpt>
<trkpt lat="-27.2740427" lon="151.2900692">
  <ele>354.1</ele>
  <time>2026-09-01T19:50:23Z</time>
  <course>1.08</course>
  <speed>0.9502105029939419</speed>
  <fix>3d</fix>
</trkpt>
<trkpt lat="-27.2740409" lon="151.290069">
  <ele>354.2</ele>
  <time>2026-09-01T19:50:23Z</time>
  <course>179.25</course>
  <speed>0.89</speed>
  <fix>3d</fix>
</trkpt>
<trkpt lat="-27.2740435" lon="151.2900692">
  <ele>354.1</ele>
  <time>2026-09-01T19:50:23Z</time>
  <course>1.08</course>
  <speed>0.9602083107326242</speed>
  <fix>3d</fix>
</trkpt>
<trkpt lat="-27.2740409" lon="151.290069">
  <ele>354.2</ele>
  <time>2026-09-01T19:50:23Z</time>
  <course>179.25</course>
  <speed>0.89</speed>
  <fix>3d</fix>
</trkpt>
<trkpt lat="-27.2740443" lon="151.2900692">
  <ele>354.1</ele>
  <time>2026-09-01T19:50:23Z</time>
  <course>1.08</course>
  <speed>0.9800510190801294</speed>
  <fix>3d</fix>
</trkpt>
<trkpt lat="-27.2740426" lon="151.2900691">
  <ele>354.19</ele>
  <time>2026-09-01T19:50:23Z</time>
  <course>179.38</course>
  <speed>0.93</speed>
  <fix>3d</fix>
</trkpt>
<trkpt lat="-27.2740452" lon="151.2900692">
  <ele>354.1</ele>
  <time>2026-09-01T19:50:23Z</time>
  <course>1.08</course>
  <speed>0.9900505037623081</speed>
  <fix>3d</fix>
</trkpt>
<trkpt lat="-27.2740426" lon="151.2900691">
  <ele>354.19</ele>
  <time>2026-09-01T19:50:23Z</time>
  <course>179.38</course>
  <speed>0.93</speed>
  <fix>3d</fix>
</trkpt>
<trkpt lat="-27.2740461" lon="151.2900692">
  <ele>354.1</ele>
  <time>2026-09-01T19:50:23Z</time>
  <course>1.08</course>
  <speed>1.010049503737317</speed>
  <fix>3d</fix>
</trkpt>
<trkpt lat="-27.2740443" lon="151.2900692">
  <ele>354.19</ele>
  <time>2026-09-01T19:50:23Z</time>
  <course>179.5</course>
  <speed>0.96</speed>
  <fix>3d</fix>
</trkpt>
<trkpt lat="-27.274047" lon="151.2900692">
  <ele>354.1</ele>
  <time>2026-09-01T19:50:23Z</time>
  <course>1.08</course>
  <speed>1.0200490184299968</speed>
  <fix>3d</fix>
</trkpt>
<trkpt lat="-27.2740443" lon="151.2900692">
  <ele>354.19</ele>
  <time>2026-09-01T19:50:23Z</time>
  <course>179.5</course>
  <speed>0.96</speed>
  <fix>3d</fix>
</trkpt>
<trkpt lat="-27.2740479" lon="151.2900692">
  <ele>354.1</ele>
  <time>2026-09-01T19:50:23Z</time>
  <course>1.08</course>
  <speed>1.0400480758118829</speed>
  <fix>3d</fix>
</trkpt>
<trkpt lat="-27.2740461" lon="151.2900692">
  <ele>354.18</ele>
  <time>2026-09-01T19:50:23Z</time>
  <course>179.62</course>
  <speed>0.99</speed>
  <fix>3d</fix>
</trkpt>
<trkpt lat="-27.2740488" lon="151.2900692">
  <ele>354.09</ele>
  <time>2026-09-01T19:50:23Z</time>
  <course>1.07</course>
  <speed>1.050047617967871</speed>
  <fix>3d</fix>
</trkpt>
<trkpt lat="-27.2740461" lon="151.2900692">
  <ele>354.18</ele>
  <time>2026-09-01T19:50:23Z</time>
  <course>179.62</course>
  <speed>0.99</speed>
  <fix>3d</fix>
</trkpt>
<trkpt lat="-27.2740497" lon="151.2900692">
  <ele>354.09</ele>
  <time>2026-09-01T19:50:23Z</time>
  <course>1.07</course>
  <speed>1.0600471687618434</speed>
  <fix>3d</fix>
</trkpt>
<trkpt lat="-27.2740479" lon="151.2900692">
  <ele>354.18</ele>
  <time>2026-09-01T19:50:23Z</time>
  <course>179.75</course>
  <speed>1.02</speed>
  <fix>3d</fix>
</trkpt>
<trkpt lat="-27.2740507" lon="151.2900692">
  <ele>354.08</ele>
  <time>2026-09-01T19:50:23Z</time>
  <course>1.07</course>
  <speed>1.0800462953040486</speed>
  <fix>3d</fix>
</trkpt>
<trkpt lat="-27.2740479" lon="151.2900692">
  <ele>354.18</ele>
  <time>2026-09-01T19:50:23Z</time>
  <course>179.75</course>
  <speed>1.02</speed>
  <fix>3d</fix>
</trkpt>
<trkpt lat="-27.2740517" lon="151.2900692">
  <ele>354.08</ele>
  <time>2026-09-01T19:50:23Z</time>
  <course>1.07</course>
  <speed>1.0900458705944442</speed>
  <fix>3d</fix>
</trkpt>
<trkpt lat="-27.2740497" lon="151.2900692">
  <ele>354.17</ele>
  <time>2026-09-01T19:50:23Z</time>
  <course>179.88</course>
  <speed>1.04</speed>
  <fix>3d</fix>
</trkpt>
<trkpt lat="-27.2740527" lon="151.2900692">
  <ele>354.08</ele>
  <time>2026-09-01T19:50:23Z</time>
  <course>1.07</course>
  <speed>1.11</speed>
  <fix>3d</fix>
</trkpt>
<trkpt lat="-27.2740497" lon="151.2900692">
  <ele>354.17</ele>
  <time>2026-09-01T19:50:23Z</time>
  <course>179.88</course>
  <speed>1.04</speed>
  <fix>3d</fix>
</trkpt>
<trkpt lat="-27.2740536" lon="151.2900692">
  <ele>354.08</ele>
  <time>2026-09-01T19:50:23Z</time>
  <course>1.06</course>
  <speed>1.12</speed>
  <fix>3d</fix>
</trkpt>
<trkpt lat="-27.2740517" lon="151.2900692">
  <ele>354.17</ele>
  <time>2026-09-01T19:50:23Z</time>
  <course>180.02</course>
  <speed>1.07</speed>
  <fix>3d</fix>
</trkpt>
<trkpt lat="-27.2740546" lon="151.2900692">
  <ele>354.08</ele>
  <time>2026-09-01T19:50:23Z</time>
  <course>1.06</course>
  <speed>1.13</speed>
  <fix>3d</fix>
</trkpt>
<trkpt lat="-27.2740517" lon="151.2900692">
  <ele>354.17</ele>
  <time>2026-09-01T19:50:23Z</time>
  <course>180.02</course>
  <speed>1.07</speed>
  <fix>3d</fix>
</trkpt>
<trkpt lat="-27.2740556" lon="151.2900692">
  <ele>354.08</ele>
  <time>2026-09-01T19:50:23Z</time>
  <course>1.05</course>
  <speed>1.14</speed>
  <fix>3d</fix>
</trkpt>
<trkpt lat="-27.2740536" lon="151.2900692">
  <ele>354.17</ele>
  <time>2026-09-01T19:50:23Z</time>
  <course>180.16</course>
  <speed>1.1</speed>
  <fix>3d</fix>
</trkpt>
<trkpt lat="-27.2740567" lon="151.2900692">
  <ele>354.07</ele>
  <time>2026-09-01T19:50:23Z</time>
  <course>1.05</course>
  <speed>1.16</speed>
  <fix>3d</fix>
</trkpt>
<trkpt lat="-27.2740536" lon="151.2900692">
  <ele>354.17</ele>
  <time>2026-09-01T19:50:23Z</time>
  <course>180.16</course>
  <speed>1.1</speed>
  <fix>3d</fix>
</trkpt>
<trkpt lat="-27.2740577" lon="151.2900692">
  <ele>354.08</ele>
  <time>2026-09-01T19:50:23Z</time>
  <course>1.05</course>
  <speed>1.17</speed>
  <fix>3d</fix>
</trkpt>
<trkpt lat="-27.2740556" lon="151.2900692">
  <ele>354.17</ele>
  <time>2026-09-01T19:50:23Z</time>
  <course>180.29</course>
  <speed>1.12</speed>
  <fix>3d</fix>
</trkpt>
<trkpt lat="-27.2740587" lon="151.2900692">
  <ele>354.08</ele>
  <time>2026-09-01T19:50:23Z</time>
  <course>1.05</course>
  <speed>1.18</speed>
  <fix>3d</fix>
</trkpt>
<trkpt lat="-27.2740556" lon="151.2900692">
  <ele>354.17</ele>
  <time>2026-09-01T19:50:23Z</time>
  <course>180.29</course>
  <speed>1.12</speed>
  <fix>3d</fix>
</trkpt>
<trkpt lat="-27.2740598" lon="151.2900692">
  <ele>354.08</ele>
  <time>2026-09-01T19:50:23Z</time>
  <course>1.05</course>
  <speed>1.19</speed>
  <fix>3d</fix>
</trkpt>
<trkpt lat="-27.2740577" lon="151.2900692">
  <ele>354.17</ele>
  <time>2026-09-01T19:50:23Z</time>
  <course>180.41</course>
  <speed>1.15</speed>
  <fix>3d</fix>
</trkpt>
<trkpt lat="-27.2740609" lon="151.2900692">
  <ele>354.08</ele>
  <time>2026-09-01T19:50:23Z</time>
  <course>1.04</course>
  <speed>1.21</speed>
  <fix>3d</fix>
</trkpt>
<trkpt lat="-27.2740577" lon="151.2900692">
  <ele>354.17</ele>
  <time>2026-09-01T19:50:23Z</time>
  <course>180.41</course>
  <speed>1.15</speed>
  <fix>3d</fix>
</trkpt>
<trkpt lat="-27.2740619" lon="151.2900692">
  <ele>354.08</ele>
  <time>2026-09-01T19:50:23Z</time>
  <course>1.04</course>
  <speed>1.22</speed>
  <fix>3d</fix>
</trkpt>
<trkpt lat="-27.2740597" lon="151.2900692">
  <ele>354.17</ele>
  <time>2026-09-01T19:50:23Z</time>
  <course>180.53</course>
  <speed>1.17</speed>
  <fix>3d</fix>
</trkpt>
<trkpt lat="-27.274063" lon="151.2900692">
  <ele>354.08</ele>
  <time>2026-09-01T19:50:23Z</time>
  <course>1.04</course>
  <speed>1.23</speed>
  <fix>3d</fix>
</trkpt>
<trkpt lat="-27.2740597" lon="151.2900692">
  <ele>354.17</ele>
  <time>2026-09-01T19:50:23Z</time>
  <course>180.53</course>
  <speed>1.17</speed>
  <fix>3d</fix>
</trkpt>
<trkpt lat="-27.2740641" lon="151.2900692">
  <ele>354.08</ele>
  <time>2026-09-01T19:50:23Z</time>
  <course>1.04</course>
  <speed>1.24</speed>
  <fix>3d</fix>
</trkpt>
<trkpt lat="-27.2740619" lon="151.2900692">
  <ele>354.17</ele>
  <time>2026-09-01T19:50:23Z</time>
  <course>180.65</course>
  <speed>1.2</speed>
  <fix>3d</fix>
</trkpt>
<trkpt lat="-27.2740652" lon="151.2900692">
  <ele>354.08</ele>
  <time>2026-09-01T19:50:23Z</time>
  <course>1.03</course>
  <speed>1.25</speed>
  <fix>3d</fix>
</trkpt>
<trkpt lat="-27.2740619" lon="151.2900692">
  <ele>354.17</ele>
  <time>2026-09-01T19:50:23Z</time>
  <course>180.65</course>
  <speed>1.2</speed>
  <fix>3d</fix>
</trkpt>
<trkpt lat="-27.2740663" lon="151.2900692">
  <ele>354.08</ele>
  <time>2026-09-01T19:50:23Z</time>
  <course>1.03</course>
  <speed>1.26</speed>
  <fix>3d</fix>
</trkpt>
<trkpt lat="-27.274064" lon="151.2900692">
  <ele>354.17</ele>
  <time>2026-09-01T19:50:23Z</time>
  <course>180.75</course>
  <speed>1.22</speed>
  <fix>3d</fix>
</trkpt>
<trkpt lat="-27.2740674" lon="151.2900692">
  <ele>354.07</ele>
  <time>2026-09-01T19:50:23Z</time>
  <course>1.02</course>
  <speed>1.26</speed>
  <fix>3d</fix>
</trkpt>
<trkpt lat="-27.274064" lon="151.2900692">
  <ele>354.17</ele>
  <time>2026-09-01T19:50:23Z</time>
  <course>180.75</course>
  <speed>1.22</speed>
  <fix>3d</fix>
</trkpt>
<trkpt lat="-27.2740685" lon="151.2900692">
  <ele>354.07</ele>
  <time>2026-09-01T19:50:23Z</time>
  <course>1.02</course>
  <speed>1.26</speed>
  <fix>3d</fix>
</trkpt>
<trkpt lat="-27.2740663" lon="151.2900691">
  <ele>354.17</ele>
  <time>2026-09-01T19:50:23Z</time>
  <course>180.84</course>
  <speed>1.24</speed>
  <fix>3d</fix>
</trkpt>
<trkpt lat="-27.2740696" lon="151.2900692">
  <ele>354.06</ele>
  <time>2026-09-01T19:50:23Z</time>
  <course>1.02</course>
  <speed>1.26</speed>
  <fix>3d</fix>
</trkpt>
<trkpt lat="-27.2740663" lon="151.2900691">
  <ele>354.17</ele>
  <time>2026-09-01T19:50:23Z</time>
  <course>180.84</course>
  <speed>1.24</speed>
  <fix>3d</fix>
</trkpt>
<trkpt lat="-27.2740707" lon="151.2900692">
  <ele>354.06</ele>
  <time>2026-09-01T19:50:23Z</time>
  <course>1.02</course>
  <speed>1.25</speed>
  <fix>3d</fix>
</trkpt>
<trkpt lat="-27.2740686" lon="151.290069">
  <ele>354.16</ele>
  <time>2026-09-01T19:50:23Z</time>
  <course>180.92</course>
  <speed>1.24</speed>
  <fix>3d</fix>
</trkpt>
<trkpt lat="-27.2740719" lon="151.2900692">
  <ele>354.05</ele>
  <time>2026-09-01T19:50:23Z</time>
  <course>1.02</course>
  <speed>1.24</speed>
  <fix>3d</fix>
</trkpt>
<trkpt lat="-27.2740686" lon="151.290069">
  <ele>354.16</ele>
  <time>2026-09-01T19:50:23Z</time>
  <course>180.92</course>
  <speed>1.24</speed>
  <fix>3d</fix>
</trkpt>
<trkpt lat="-27.274073" lon="151.2900691">
  <ele>354.03</ele>
  <time>2026-09-01T19:50:23Z</time>
  <course>1.02</course>
  <speed>1.22</speed>
  <fix>3d</fix>
</trkpt>
<trkpt lat="-27.2740707" lon="151.290069">
  <ele>354.15</ele>
  <time>2026-09-01T19:50:23Z</time>
  <course>180.98</course>
  <speed>1.23</speed>
  <fix>3d</fix>
</trkpt>
<trkpt lat="-27.274074" lon="151.2900691">
  <ele>354.02</ele>
  <time>2026-09-01T19:50:23Z</time>
  <course>1.03</course>
  <speed>1.2</speed>
  <fix>3d</fix>
</trkpt>
<trkpt lat="-27.2740707" lon="151.290069">
  <ele>354.15</ele>
  <time>2026-09-01T19:50:23Z</time>
  <course>180.98</course>
  <speed>1.23</speed>
  <fix>3d</fix>
</trkpt>
<trkpt lat="-27.2740751" lon="151.2900691">
  <ele>354.01</ele>
  <time>2026-09-01T19:50:23Z</time>
  <course>1.03</course>
  <speed>1.17</speed>
  <fix>3d</fix>
</trkpt>
<trkpt lat="-27.274073" lon="151.290069">
  <ele>354.14</ele>
  <time>2026-09-01T19:50:23Z</time>
  <course>181.02</course>
  <speed>1.2</speed>
  <fix>3d</fix>
</trkpt>
<trkpt lat="-27.2740761" lon="151.2900691">
  <ele>354.0</ele>
  <time>2026-09-01T19:50:23Z</time>
  <course>1.03</course>
  <speed>1.14</speed>
  <fix>3d</fix>
</trkpt>
<trkpt lat="-27.274073" lon="151.290069">
  <ele>354.14</ele>
  <time>2026-09-01T19:50:23Z</time>
  <course>181.02</course>
  <speed>1.2</speed>
  <fix>3d</fix>
</trkpt>
<trkpt lat="-27.2740771" lon="151.2900691">
  <ele>354.0</ele>
  <time>2026-09-01T19:50:23Z</time>
  <course>1.03</course>
  <speed>1.11</speed>
  <fix>3d</fix>
</trkpt>
<trkpt lat="-27.2740751" lon="151.290069">
  <ele>354.12</ele>
  <time>2026-09-01T19:50:23Z</time>
  <course>181.06</course>
  <speed>1.15</speed>
  <fix>3d</fix>
</trkpt>
<trkpt lat="-27.2740781" lon="151.2900691">
  <ele>353.99</ele>
  <time>2026-09-01T19:50:23Z</time>
  <course>1.03</course>
  <speed>1.07</speed>
  <fix>3d</fix>
</trkpt>
<trkpt lat="-27.2740751" lon="151.290069">
  <ele>354.12</ele>
  <time>2026-09-01T19:50:23Z</time>
  <course>181.06</course>
  <speed>1.15</speed>
  <fix>3d</fix>
</trkpt>
<trkpt lat="-27.274079" lon="151.290069">
  <ele>353.98</ele>
  <time>2026-09-01T19:50:23Z</time>
  <course>1.04</course>
  <speed>1.03</speed>
  <fix>3d</fix>
</trkpt>
<trkpt lat="-27.2740771" lon="151.2900689">
  <ele>354.09</ele>
  <time>2026-09-01T19:50:23Z</time>
  <course>181.08</course>
  <speed>1.09</speed>
  <fix>3d</fix>
</trkpt>
<trkpt lat="-27.2740799" lon="151.290069">
  <ele>353.98</ele>
  <time>2026-09-01T19:50:23Z</time>
  <course>1.04</course>
  <speed>0.99</speed>
  <fix>3d</fix>
</trkpt>
<trkpt lat="-27.2740771" lon="151.2900689">
  <ele>354.09</ele>
  <time>2026-09-01T19:50:23Z</time>
  <course>181.08</course>
  <speed>1.09</speed>
  <fix>3d</fix>
</trkpt>
<trkpt lat="-27.2740808" lon="151.290069">
  <ele>353.97</ele>
  <time>2026-09-01T19:50:23Z</time>
  <course>1.04</course>
  <speed>0.95</speed>
  <fix>3d</fix>
</trkpt>
<trkpt lat="-27.274079" lon="151.2900689">
  <ele>354.08</ele>
  <time>2026-09-01T19:50:23Z</time>
  <course>181.1</course>
  <speed>1.01</speed>
  <fix>3d</fix>
</trkpt>
<trkpt lat="-27.2740816" lon="151.290069">
  <ele>353.97</ele>
  <time>2026-09-01T19:50:23Z</time>
  <course>1.04</course>
  <speed>0.91</speed>
  <fix>3d</fix>
</trkpt>
<trkpt lat="-27.274079" lon="151.2900689">
  <ele>354.08</ele>
  <time>2026-09-01T19:50:23Z</time>
  <course>181.1</course>
  <speed>1.01</speed>
  <fix>3d</fix>
</trkpt>
<trkpt lat="-27.2740824" lon="151.290069">
  <ele>353.97</ele>
  <time>2026-09-01T19:50:23Z</time>
  <course>1.04</course>
  <speed>0.86</speed>
  <fix>3d</fix>
</trkpt>
<trkpt lat="-27.2740808" lon="151.2900688">
  <ele>354.06</ele>
  <time>2026-09-01T19:50:23Z</time>
  <course>181.13</course>
  <speed>0.93</speed>
  <fix>3d</fix>
</trkpt>
<trkpt lat="-27.2740832" lon="151.290069">
  <ele>353.96</ele>
  <time>2026-09-01T19:50:23Z</time>
  <course>1.04</course>
  <speed>0.82</speed>
  <fix>3d</fix>
</trkpt>
<trkpt lat="-27.2740808" lon="151.2900688">
  <ele>354.06</ele>
  <time>2026-09-01T19:50:23Z</time>
  <course>181.13</course>
  <speed>0.93</speed>
  <fix>3d</fix>
</trkpt>
<trkpt lat="-27.2740839" lon="151.290069">
  <ele>353.96</ele>
  <time>2026-09-01T19:50:23Z</time>
  <course>1.04</course>
  <speed>0.78</speed>
  <fix>3d</fix>
</trkpt>
<trkpt lat="-27.2740824" lon="151.2900688">
  <ele>354.06</ele>
  <time>2026-09-01T19:50:23Z</time>
  <course>181.16</course>
  <speed>0.85</speed>
  <fix>3d</fix>
</trkpt>
<trkpt lat="-27.2740845" lon="151.2900689">
  <ele>353.96</ele>
  <time>2026-09-01T19:50:23Z</time>
  <course>1.04</course>
  <speed>0.73</speed>
  <fix>3d</fix>
</trkpt>
<trkpt lat="-27.2740824" lon="151.2900688">
  <ele>354.06</ele>
  <time>2026-09-01T19:50:23Z</time>
  <course>181.16</course>
  <speed>0.85</speed>
  <fix>3d</fix>
</trkpt>
<trkpt lat="-27.2740852" lon="151.2900689">
  <ele>353.96</ele>
  <time>2026-09-01T19:50:23Z</time>
  <course>1.04</course>
  <speed>0.69</speed>
  <fix>3d</fix>
</trkpt>
<trkpt lat="-27.2740838" lon="151.2900688">
  <ele>354.06</ele>
  <time>2026-09-01T19:50:23Z</time>
  <course>181.19</course>
  <speed>0.76</speed>
  <fix>3d</fix>
</trkpt>
<trkpt lat="-27.2740858" lon="151.2900689">
  <ele>353.97</ele>
  <time>2026-09-01T19:50:23Z</time>
  <course>1.04</course>
  <speed>0.64</speed>
  <fix>3d</fix>
</trkpt>
<trkpt lat="-27.2740838" lon="151.2900688">
  <ele>354.06</ele>
  <time>2026-09-01T19:50:23Z</time>
  <course>181.19</course>
  <speed>0.76</speed>
  <fix>3d</fix>
</trkpt>
<trkpt lat="-27.2740863" lon="151.2900689">
  <ele>353.97</ele>
  <time>2026-09-01T19:50:23Z</time>
  <course>1.04</course>
  <speed>0.6</speed>
  <fix>3d</fix>
</trkpt>
<trkpt lat="-27.2740851" lon="151.2900688">
  <ele>354.06</ele>
  <time>2026-09-01T19:50:23Z</time>
  <course>181.21</course>
  <speed>0.67</speed>
  <fix>3d</fix>
</trkpt>
<trkpt lat="-27.2740868" lon="151.2900689">
  <ele>353.97</ele>
  <time>2026-09-01T19:50:23Z</time>
  <course>1.04</course>
  <speed>0.55</speed>
  <fix>3d</fix>
</trkpt>
<trkpt lat="-27.2740851" lon="151.2900688">
  <ele>354.06</ele>
  <time>2026-09-01T19:50:23Z</time>
  <course>181.21</course>
  <speed>0.67</speed>
  <fix>3d</fix>
</trkpt>
<trkpt lat="-27.2740873" lon="151.2900689">
  <ele>353.98</ele>
  <time>2026-09-01T19:50:23Z</time>
  <course>1.03</course>
  <speed>0.51</speed>
  <fix>3d</fix>
</trkpt>
<trkpt lat="-27.2740863" lon="151.2900687">
  <ele>354.06</ele>
  <time>2026-09-01T19:50:23Z</time>
  <course>181.24</course>
  <speed>0.58</speed>
  <fix>3d</fix>
</trkpt>
<trkpt lat="-27.2740877" lon="151.2900689">
  <ele>353.98</ele>
  <time>2026-09-01T19:50:23Z</time>
  <course>1.03</course>
  <speed>0.46</speed>
  <fix>3d</fix>
</trkpt>
<trkpt lat="-27.2740863" lon="151.2900687">
  <ele>354.06</ele>
  <time>2026-09-01T19:50:23Z</time>
  <course>181.24</course>
  <speed>0.58</speed>
  <fix>3d</fix>
</trkpt>
<trkpt lat="-27.2740881" lon="151.2900689">
  <ele>353.99</ele>
  <time>2026-09-01T19:50:23Z</time>
  <course>1.03</course>
  <speed>0.4201190307520001</speed>
  <fix>3d</fix>
</trkpt>
<trkpt lat="-27.2740872" lon="151.2900687">
  <ele>354.07</ele>
  <time>2026-09-01T19:50:23Z</time>
  <course>181.29</course>
  <speed>0.49</speed>
  <fix>3d</fix>
</trkpt>
<trkpt lat="-27.2740884" lon="151.2900689">
  <ele>354.0</ele>
  <time>2026-09-01T19:50:23Z</time>
  <course>1.02</course>
  <speed>0.38013155617496425</speed>
  <fix>3d</fix>
</trkpt>
<trkpt lat="-27.2740872" lon="151.2900687">
  <ele>354.07</ele>
  <time>2026-09-01T19:50:23Z</time>
  <course>181.29</course>
  <speed>0.49</speed>
  <fix>3d</fix>
</trkpt>
<trkpt lat="-27.2740887" lon="151.2900689">
  <ele>354.01</ele>
  <time>2026-09-01T19:50:23Z</time>
  <course>1.02</course>
  <speed>0.340147027033899</speed>
  <fix>3d</fix>
</trkpt>
<trkpt lat="-27.274088" lon="151.2900687">
  <ele>354.09</ele>
  <time>2026-09-01T19:50:23Z</time>
  <course>181.32</course>
  <speed>0.4</speed>
  <fix>3d</fix>
</trkpt>
<trkpt lat="-27.274089" lon="151.2900689">
  <ele>354.02</ele>
  <time>2026-09-01T19:50:23Z</time>
  <course>1.02</course>
  <speed>0.30016662039607267</speed>
  <fix>3d</fix>
</trkpt>
<trkpt lat="-27.274088" lon="151.2900687">
  <ele>354.09</ele>
  <time>2026-09-01T19:50:23Z</time>
  <course>181.32</course>
  <speed>0.4</speed>
  <fix>3d</fix>
</trkpt>
<trkpt lat="-27.2740893" lon="151.2900689">
  <ele>354.03</ele>
  <time>2026-09-01T19:50:23Z</time>
  <course>1.02</course>
  <speed>0.2601922366251538</speed>
  <fix>3d</fix>
</trkpt>
<trkpt lat="-27.2740887" lon="151.2900687">
  <ele>354.1</ele>
  <time>2026-09-01T19:50:23Z</time>
  <course>181.4</course>
  <speed>0.32</speed>
  <fix>3d</fix>
</trkpt>
<trkpt lat="-27.2740895" lon="151.2900689">
  <ele>354.03</ele>
  <time>2026-09-01T19:50:23Z</time>
  <course>1.02</course>
  <speed>0.23021728866442676</speed>
  <fix>3d</fix>
</trkpt>
<trkpt lat="-27.2740887" lon="151.2900687">
  <ele>354.1</ele>
  <time>2026-09-01T19:50:23Z</time>
  <course>181.4</course>
  <speed>0.32</speed>
  <fix>3d</fix>
</trkpt>
<trkpt lat="-27.2740897" lon="151.2900689">
  <ele>354.04</ele>
  <time>2026-09-01T19:50:23Z</time>
  <course>1.01</course>
  <speed>0.19026297590440447</speed>
  <fix>3d</fix>
</trkpt>
<trkpt lat="-27.2740892" lon="151.2900687">
  <ele>354.12</ele>
  <time>2026-09-01T19:50:23Z</time>
  <course>181.52</course>
  <speed>0.24</speed>
  <fix>3d</fix>
</trkpt>
<trkpt lat="-27.2740898" lon="151.2900689">
  <ele>354.05</ele>
  <time>2026-09-01T19:50:23Z</time>
  <course>1.01</course>
  <speed>0.16031219541881397</speed>
  <fix>3d</fix>
</trkpt>
<trkpt lat="-27.2740892" lon="151.2900687">
  <ele>354.12</ele>
  <time>2026-09-01T19:50:23Z</time>
  <course>181.52</course>
  <speed>0.24</speed>
  <fix>3d</fix>
</trkpt>
<trkpt lat="-27.2740899" lon="151.2900689">
  <ele>354.06</ele>
  <time>2026-09-01T19:50:23Z</time>
  <course>1.01</course>
  <speed>0.12041594578792296</speed>
  <fix>3d</fix>
</trkpt>
<trkpt lat="-27.2740895" lon="151.2900686">
  <ele>354.13</ele>
  <time>2026-09-01T19:50:23Z</time>
  <course>181.7</course>
  <speed>0.17</speed>
  <fix>3d</fix>
</trkpt>
<trkpt lat="-27.27409" lon="151.2900689">
  <ele>354.06</ele>
  <time>2026-09-01T19:50:23Z</time>
  <course>1.0</course>
  <speed>0.09055385138137417</speed>
  <fix>3d</fix>
</trkpt>
<trkpt lat="-27.2740895" lon="151.2900686">
  <ele>354.13</ele>
  <time>2026-09-01T19:50:23Z</time>
  <course>181.7</course>
  <speed>0.17</speed>
  <fix>3d</fix>
</trkpt>
<trkpt lat="-27.27409" lon="151.2900688">
  <ele>354.07</ele>
  <time>2026-09-01T19:50:23Z</time>
  <course>1.0</course>
  <speed>0.06082762530298219</speed>
  <fix>3d</fix>
</trkpt>
<trkpt lat="-27.2740898" lon="151.2900685">
  <ele>354.15</ele>
  <time>2026-09-01T19:50:23Z</time>
  <course>182.01</course>
  <speed>0.1</speed>
  <fix>3d</fix>
</trkpt>
<trkpt lat="-27.2740901" lon="151.2900688">
  <ele>354.08</ele>
  <time>2026-09-01T19:50:23Z</time>
  <course>1.0</course>
  <speed>0.0316227766016838</speed>
  <fix>3d</fix>
</trkpt>
<trkpt lat="-27.2740898" lon="151.2900685">
  <ele>354.15</ele>
  <time>2026-09-01T19:50:23Z</time>
  <course>182.01</course>
  <speed>0.1</speed>
  <fix>3d</fix>
</trkpt>
<trkpt lat="-27.2740901" lon="151.2900688">
  <ele>354.08</ele>
  <time>2026-09-01T19:50:23Z</time>
  <course>1.0</course>
  <speed>0.01</speed>
  <fix>3d</fix>
</trkpt>
<trkpt lat="-27.2740899" lon="151.2900685">
  <ele>354.16</ele>
  <time>2026-09-01T19:50:23Z</time>
  <course>182.91</course>
  <speed>0.04</speed>
  <fix>3d</fix>
</trkpt>
<trkpt lat="-27.27409" lon="151.2900688">
  <ele>354.08</ele>
  <time>2026-09-01T19:50:23Z</time>
  <course>1.0</course>
  <speed>0.022360679774997897</speed>
  <fix>3d</fix>
</trkpt>
<trkpt lat="-27.2740899" lon="151.2900685">
  <ele>354.16</ele>
  <time>2026-09-01T19:50:23Z</time>
  <course>182.91</course>
  <speed>0.04</speed>
  <fix>3d</fix>
</trkpt>
<trkpt lat="-27.27409" lon="151.2900688">
  <ele>354.09</ele>
  <time>2026-09-01T19:50:23Z</time>
  <course>0.99</course>
  <speed>0.05099019513592785</speed>
  <fix>3d</fix>
</trkpt>
<trkpt lat="-27.27409" lon="151.2900685">
  <ele>354.17</ele>
  <time>2026-09-01T19:50:23Z</time>
  <course>359.21</course>
  <speed>0.01</speed>
  <fix>3d</fix>
</trkpt>
<trkpt lat="-27.27409" lon="151.2900688">
  <ele>354.09</ele>
  <time>2026-09-01T19:50:23Z</time>
  <course>0.99</course>
  <speed>0.07280109889280519</speed>
  <fix>3d</fix>
</trkpt>
<trkpt lat="-27.27409" lon="151.2900685">
  <ele>354.17</ele>
  <time>2026-09-01T19:50:23Z</time>
  <course>359.21</course>
  <speed>0.01</speed>
  <fix>3d</fix>
</trkpt>
<trkpt lat="-27.2740899" lon="151.2900688">
  <ele>354.1</ele>
  <time>2026-09-01T19:50:23Z</time>
  <course>0.99</course>
  <speed>0.1019803902718557</speed>
  <fix>3d</fix>
</trkpt>
<trkpt lat="-27.2740899" lon="151.2900685">
  <ele>354.18</ele>
  <time>2026-09-01T19:50:23Z</time>
  <course>1.31</course>
  <speed>0.07</speed>
  <fix>3d</fix>
</trkpt>
<trkpt lat="-27.2740898" lon="151.2900688">
  <ele>354.1</ele>
  <time>2026-09-01T19:50:23Z</time>
  <course>0.99</course>
  <speed>0.12165525060596438</speed>
  <fix>3d</fix>
</trkpt>
<trkpt lat="-27.2740899" lon="151.2900685">
  <ele>354.18</ele>
  <time>2026-09-01T19:50:23Z</time>
  <course>1.31</course>
  <speed>0.07</speed>
  <fix>3d</fix>
</trkpt>
<trkpt lat="-27.2740897" lon="151.2900688">
  <ele>354.11</ele>
  <time>2026-09-01T19:50:23Z</time>
  <course>0.98</course>
  <speed>0.1414213562373095</speed>
  <fix>3d</fix>
</trkpt>
<trkpt lat="-27.2740898" lon="151.2900685">
  <ele>354.19</ele>
  <time>2026-09-01T19:50:23Z</time>
  <course>1.56</course>
  <speed>0.12</speed>
  <fix>3d</fix>
</trkpt>
<trkpt lat="-27.2740895" lon="151.2900688">
  <ele>354.11</ele>
  <time>2026-09-01T19:50:23Z</time>
  <course>0.98</course>
  <speed>0.16124515496597097</speed>
  <fix>3d</fix>
</trkpt>
<trkpt lat="-27.2740898" lon="151.2900685">
  <ele>354.19</ele>
  <time>2026-09-01T19:50:23Z</time>
  <course>1.56</course>
  <speed>0.12</speed>
  <fix>3d</fix>
</trkpt>
<trkpt lat="-27.2740893" lon="151.2900688">
  <ele>354.12</ele>
  <time>2026-09-01T19:50:23Z</time>
  <course>0.97</course>
  <speed>0.18110770276274835</speed>
  <fix>3d</fix>
</trkpt>
<trkpt lat="-27.2740895" lon="151.2900685">
  <ele>354.19</ele>
  <time>2026-09-01T19:50:23Z</time>
  <course>1.63</course>
  <speed>0.16</speed>
  <fix>3d</fix>
</trkpt>
<trkpt lat="-27.2740892" lon="151.2900688">
  <ele>354.12</ele>
  <time>2026-09-01T19:50:23Z</time>
  <course>0.97</course>
  <speed>0.191049731745428</speed>
  <fix>3d</fix>
</trkpt>
<trkpt lat="-27.2740895" lon="151.2900685">
  <ele>354.19</ele>
  <time>2026-09-01T19:50:23Z</time>
  <course>1.63</course>
  <speed>0.16</speed>
  <fix>3d</fix>
</trkpt>
<trkpt lat="-27.274089" lon="151.2900688">
  <ele>354.13</ele>
  <time>2026-09-01T19:50:23Z</time>
  <course>0.97</course>
  <speed>0.2009975124224178</speed>
  <fix>3d</fix>
</trkpt>
<trkpt lat="-27.2740892" lon="151.2900685">
  <ele>354.2</ele>
  <time>2026-09-01T19:50:23Z</time>
  <course>1.67</course>
  <speed>0.2</speed>
  <fix>3d</fix>
</trkpt>
<trkpt lat="-27.2740888" lon="151.2900688">
  <ele>354.13</ele>
  <time>2026-09-01T19:50:23Z</time>
  <course>0.97</course>
  <speed>0.22090722034374521</speed>
  <fix>3d</fix>
</trkpt>
<trkpt lat="-27.2740892" lon="151.2900685">
  <ele>354.2</ele>
  <time>2026-09-01T19:50:23Z</time>
  <course>1.67</course>
  <speed>0.2</speed>
  <fix>3d</fix>
</trkpt>
<trkpt lat="-27.2740885" lon="151.2900688">
  <ele>354.13</ele>
  <time>2026-09-01T19:50:23Z</time>
  <course>0.96</course>
  <speed>0.2308679276123039</speed>
  <fix>3d</fix>
</trkpt>
<trkpt lat="-27.2740888" lon="151.2900685">
  <ele>354.21</ele>
  <time>2026-09-01T19:50:23Z</time>
  <course>1.74</course>
  <speed>0.23</speed>
  <fix>3d</fix>
</trkpt>
<trkpt lat="-27.2740883" lon="151.2900688">
  <ele>354.14</ele>
  <time>2026-09-01T19:50:23Z</time>
  <course>0.96</course>
  <speed>0.2308679276123039</speed>
  <fix>3d</fix>
</trkpt>
<trkpt lat="-27.2740888" lon="151.2900685">
  <ele>354.21</ele>
  <time>2026-09-01T19:50:23Z</time>
  <course>1.74</course>
  <speed>0.23</speed>
  <fix>3d</fix>
</trkpt>
<trkpt lat="-27.2740881" lon="151.2900688">
  <ele>354.14</ele>
  <time>2026-09-01T19:50:23Z</time>
  <course>0.96</course>
  <speed>0.24083189157584592</speed>
  <fix>3d</fix>
</trkpt>
<trkpt lat="-27.2740883" lon="151.2900685">
  <ele>354.22</ele>
  <time>2026-09-01T19:50:23Z</time>
  <course>1.81</course>
  <speed>0.25</speed>
  <fix>3d</fix>
</trkpt>
<trkpt lat="-27.2740878" lon="151.2900688">
  <ele>354.14</ele>
  <time>2026-09-01T19:50:23Z</time>
  <course>0.96</course>
  <speed>0.25079872407968906</speed>
  <fix>3d</fix>
</trkpt>
<trkpt lat="-27.2740883" lon="151.2900685">
  <ele>354.22</ele>
  <time>2026-09-01T19:50:23Z</time>
  <course>1.81</course>
  <speed>0.25</speed>
  <fix>3d</fix>
</trkpt>
<trkpt lat="-27.2740876" lon="151.2900688">
  <ele>354.15</ele>
  <time>2026-09-01T19:50:23Z</time>
  <course>0.96</course>
  <speed>0.25079872407968906</speed>
  <fix>3d</fix>
</trkpt>
<trkpt lat="-27.2740879" lon="151.2900685">
  <ele>354.22</ele>
  <time>2026-09-01T19:50:23Z</time>
  <course>1.88</course>
  <speed>0.27</speed>
  <fix>3d</fix>
</trkpt>
<trkpt lat="-27.2740873" lon="151.2900688">
  <ele>354.15</ele>
  <time>2026-09-01T19:50:23Z</time>
  <course>0.96</course>
  <speed>0.260768096208106</speed>
  <fix>3d</fix>
</trkpt>
<trkpt lat="-27.2740879" lon="151.2900685">
  <ele>354.22</ele>
  <time>2026-09-01T19:50:23Z</time>
  <course>1.88</course>
  <speed>0.27</speed>
  <fix>3d</fix>
</trkpt>
<trkpt lat="-27.2740871" lon="151.2900688">
  <ele>354.16</ele>
  <time>2026-09-01T19:50:23Z</time>
  <course>0.96</course>
  <speed>0.260768096208106</speed>
  <fix>3d</fix>
</trkpt>
<trkpt lat="-27.2740874" lon="151.2900685">
  <ele>354.23</ele>
  <time>2026-09-01T19:50:23Z</time>
  <course>1.96</course>
  <speed>0.28</speed>
  <fix>3d</fix>
</trkpt>
<trkpt lat="-27.2740868" lon="151.2900688">
  <ele>354.16</ele>
  <time>2026-09-01T19:50:23Z</time>
  <course>0.96</course>
  <speed>0.260768096208106</speed>
  <fix>3d</fix>
</trkpt>
<trkpt lat="-27.2740874" lon="151.2900685">
  <ele>354.23</ele>
  <time>2026-09-01T19:50:23Z</time>
  <course>1.96</course>
  <speed>0.28</speed>
  <fix>3d</fix>
</trkpt>
<trkpt lat="-27.2740866" lon="151.2900688">
  <ele>354.16</ele>
  <time>2026-09-01T19:50:23Z</time>
  <course>0.96</course>
  <speed>0.260768096208106</speed>
  <fix>3d</fix>
</trkpt>
<trkpt lat="-27.2740869" lon="151.2900686">
  <ele>354.23</ele>
  <time>2026-09-01T19:50:23Z</time>
  <course>2.04</course>
  <speed>0.29</speed>
  <fix>3d</fix>
</trkpt>
<trkpt lat="-27.2740863" lon="151.2900688">
  <ele>354.16</ele>
  <time>2026-09-01T19:50:23Z</time>
  <course>0.95</course>
  <speed>0.260768096208106</speed>
  <fix>3d</fix>
</trkpt>
<trkpt lat="-27.2740869" lon="151.2900686">
  <ele>354.23</ele>
  <time>2026-09-01T19:50:23Z</time>
  <course>2.04</course>
  <speed>0.29</speed>
  <fix>3d</fix>
</trkpt>
<trkpt lat="-27.2740861" lon="151.2900688">
  <ele>354.16</ele>
  <time>2026-09-01T19:50:23Z</time>
  <course>0.95</course>
  <speed>0.260768096208106</speed>
  <fix>3d</fix>
</trkpt>
<trkpt lat="-27.2740863" lon="151.2900687">
  <ele>354.23</ele>
  <time>2026-09-01T19:50:23Z</time>
  <course>2.12</course>
  <speed>0.29</speed>
  <fix>3d</fix>
</trkpt>
<trkpt lat="-27.2740858" lon="151.2900688">
  <ele>354.16</ele>
  <time>2026-09-01T19:50:23Z</time>
  <course>0.95</course>
  <speed>0.260768096208106</speed>
  <fix>3d</fix>
</trkpt>
<trkpt lat="-27.2740863" lon="151.2900687">
  <ele>354.23</ele>
  <time>2026-09-01T19:50:23Z</time>
  <course>2.12</course>
  <speed>0.29</speed>
  <fix>3d</fix>
</trkpt>
<trkpt lat="-27.2740855" lon="151.2900688">
  <ele>354.15</ele>
  <time>2026-09-01T19:50:23Z</time>
  <course>0.95</course>
  <speed>0.260768096208106</speed>
  <fix>3d</fix>
</trkpt>
<trkpt lat="-27.2740858" lon="151.2900687">
  <ele>354.23</ele>
  <time>2026-09-01T19:50:23Z</time>
  <course>2.2</course>
  <speed>0.29</speed>
  <fix>3d</fix>
</trkpt>
<trkpt lat="-27.2740853" lon="151.2900688">
  <ele>354.15</ele>
  <time>2026-09-01T19:50:23Z</time>
  <course>0.95</course>
  <speed>0.260768096208106</speed>
  <fix>3d</fix>
</trkpt>
<trkpt lat="-27.2740858" lon="151.2900687">
  <ele>354.23</ele>
  <time>2026-09-01T19:50:23Z</time>
  <course>2.2</course>
  <speed>0.29</speed>
  <fix>3d</fix>
</trkpt>
<trkpt lat="-27.274085" lon="151.2900688">
  <ele>354.15</ele>
  <time>2026-09-01T19:50:23Z</time>
  <course>0.95</course>
  <speed>0.260768096208106</speed>
  <fix>3d</fix>
</trkpt>
<trkpt lat="-27.2740853" lon="151.2900687">
  <ele>354.22</ele>
  <time>2026-09-01T19:50:23Z</time>
  <course>2.23</course>
  <speed>0.29</speed>
  <fix>3d</fix>
</trkpt>
<trkpt lat="-27.2740848" lon="151.2900688">
  <ele>354.15</ele>
  <time>2026-09-01T19:50:23Z</time>
  <course>0.95</course>
  <speed>0.260768096208106</speed>
  <fix>3d</fix>
</trkpt>
<trkpt lat="-27.2740853" lon="151.2900687">
  <ele>354.22</ele>
  <time>2026-09-01T19:50:23Z</time>
  <course>2.23</course>
  <speed>0.29</speed>
  <fix>3d</fix>
</trkpt>
<trkpt lat="-27.2740845" lon="151.2900688">
  <ele>354.14</ele>
  <time>2026-09-01T19:50:23Z</time>
  <course>0.95</course>
  <speed>0.260768096208106</speed>
  <fix>3d</fix>
</trkpt>
<trkpt lat="-27.2740847" lon="151.2900687">
  <ele>354.22</ele>
  <time>2026-09-01T19:50:23Z</time>
  <course>2.2</course>
  <speed>0.29</speed>
  <fix>3d</fix>
</trkpt>
<trkpt lat="-27.2740843" lon="151.2900688">
  <ele>354.14</ele>
  <time>2026-09-01T19:50:23Z</time>
  <course>0.95</course>
  <speed>0.25079872407968906</speed>
  <fix>3d</fix>
</trkpt>
<trkpt lat="-27.2740847" lon="151.2900687">
  <ele>354.22</ele>
  <time>2026-09-01T19:50:23Z</time>
  <course>2.2</course>
  <speed>0.29</speed>
  <fix>3d</fix>
</trkpt>
<trkpt lat="-27.274084" lon="151.2900688">
  <ele>354.14</ele>
  <time>2026-09-01T19:50:23Z</time>
  <course>0.95</course>
  <speed>0.25079872407968906</speed>
  <fix>3d</fix>
</trkpt>
<trkpt lat="-27.2740842" lon="151.2900687">
  <ele>354.21</ele>
  <time>2026-09-01T19:50:23Z</time>
  <course>2.15</course>
  <speed>0.28</speed>
  <fix>3d</fix>
</trkpt>
<trkpt lat="-27.2740837" lon="151.2900688">
  <ele>354.13</ele>
  <time>2026-09-01T19:50:23Z</time>
  <course>0.95</course>
  <speed>0.25079872407968906</speed>
  <fix>3d</fix>
</trkpt>
<trkpt lat="-27.2740842" lon="151.2900687">
  <ele>354.21</ele>
  <time>2026-09-01T19:50:23Z</time>
  <course>2.15</course>
  <speed>0.28</speed>
  <fix>3d</fix>
</trkpt>
<trkpt lat="-27.2740835" lon="151.2900688">
  <ele>354.13</ele>
  <time>2026-09-01T19:50:23Z</time>
  <course>0.95</course>
  <speed>0.24083189157584592</speed>
  <fix>3d</fix>
</trkpt>
<trkpt lat="-27.2740837" lon="151.2900688">
  <ele>354.21</ele>
  <time>2026-09-01T19:50:23Z</time>
  <course>2.06</course>
  <speed>0.28</speed>
  <fix>3d</fix>
</trkpt>
<trkpt lat="-27.2740833" lon="151.2900688">
  <ele>354.13</ele>
  <time>2026-09-01T19:50:23Z</time>
  <course>0.95</course>
  <speed>0.24083189157584592</speed>
  <fix>3d</fix>
</trkpt>
<trkpt lat="-27.2740837" lon="151.2900688">
  <ele>354.21</ele>
  <time>2026-09-01T19:50:23Z</time>
  <course>2.06</course>
  <speed>0.28</speed>
  <fix>3d</fix>
</trkpt>
<trkpt lat="-27.274083" lon="151.2900688">
  <ele>354.12</ele>
  <time>2026-09-01T19:50:23Z</time>
  <course>0.95</course>
  <speed>0.24083189157584592</speed>
  <fix>3d</fix>
</trkpt>
<trkpt lat="-27.2740832" lon="151.2900688">
  <ele>354.2</ele>
  <time>2026-09-01T19:50:23Z</time>
  <course>1.89</course>
  <speed>0.27</speed>
  <fix>3d</fix>
</trkpt>
<trkpt lat="-27.2740828" lon="151.2900689">
  <ele>354.12</ele>
  <time>2026-09-01T19:50:23Z</time>
  <course>0.95</course>
  <speed>0.2308679276123039</speed>
  <fix>3d</fix>
</trkpt>
<trkpt lat="-27.2740832" lon="151.2900688">
  <ele>354.2</ele>
  <time>2026-09-01T19:50:23Z</time>
  <course>1.89</course>
  <speed>0.27</speed>
  <fix>3d</fix>
</trkpt>
<trkpt lat="-27.2740825" lon="151.2900689">
  <ele>354.11</ele>
  <time>2026-09-01T19:50:23Z</time>
  <course>0.95</course>
  <speed>0.23021728866442676</speed>
  <fix>3d</fix>
</trkpt>
<trkpt lat="-27.2740827" lon="151.2900688">
  <ele>354.19</ele>
  <time>2026-09-01T19:50:23Z</time>
  <course>1.67</course>
  <speed>0.26</speed>
  <fix>3d</fix>
</trkpt>
<trkpt lat="-27.2740823" lon="151.2900689">
  <ele>354.1</ele>
  <time>2026-09-01T19:50:23Z</time>
  <course>0.95</course>
  <speed>0.23021728866442676</speed>
  <fix>3d</fix>
</trkpt>
<trkpt lat="-27.2740827" lon="151.2900688">
  <ele>354.19</ele>
  <time>2026-09-01T19:50:23Z</time>
  <course>1.67</course>
  <speed>0.26</speed>
  <fix>3d</fix>
</trkpt>
<trkpt lat="-27.2740821" lon="151.2900689">
  <ele>354.1</ele>
  <time>2026-09-01T19:50:23Z</time>
  <course>0.95</course>
  <speed>0.22022715545545238</speed>
  <fix>3d</fix>
</trkpt>
<trkpt lat="-27.2740822" lon="151.2900688">
  <ele>354.19</ele>
  <time>2026-09-01T19:50:23Z</time>
  <course>1.42</course>
  <speed>0.26</speed>
  <fix>3d</fix>
</trkpt>
<trkpt lat="-27.2740818" lon="151.2900689">
  <ele>354.1</ele>
  <time>2026-09-01T19:50:23Z</time>
  <course>0.94</course>
  <speed>0.22022715545545238</speed>
  <fix>3d</fix>
</trkpt>
<trkpt lat="-27.2740822" lon="151.2900688">
  <ele>354.19</ele>
  <time>2026-09-01T19:50:23Z</time>
  <course>1.42</course>
  <speed>0.26</speed>
  <fix>3d</fix>
</trkpt>
<trkpt lat="-27.2740816" lon="151.2900689">
  <ele>354.1</ele>
  <time>2026-09-01T19:50:23Z</time>
  <course>0.94</course>
  <speed>0.2102379604162864</speed>
  <fix>3d</fix>
</trkpt>
<trkpt lat="-27.2740818" lon="151.2900688">
  <ele>354.18</ele>
  <time>2026-09-01T19:50:23Z</time>
  <course>1.0</course>
  <speed>0.25</speed>
  <fix>3d</fix>
</trkpt>
<trkpt lat="-27.2740814" lon="151.2900689">
  <ele>354.1</ele>
  <time>2026-09-01T19:50:23Z</time>
  <course>0.93</course>
  <speed>0.2102379604162864</speed>
  <fix>3d</fix>
</trkpt>
<trkpt lat="-27.2740818" lon="151.2900688">
  <ele>354.18</ele>
  <time>2026-09-01T19:50:23Z</time>
  <course>1.0</course>
  <speed>0.25</speed>
  <fix>3d</fix>
</trkpt>
<trkpt lat="-27.2740812" lon="151.2900689">
  <ele>354.09</ele>
  <time>2026-09-01T19:50:23Z</time>
  <course>0.93</course>
  <speed>0.2102379604162864</speed>
  <fix>3d</fix>
</trkpt>
<trkpt lat="-27.2740813" lon="151.2900688">
  <ele>354.18</ele>
  <time>2026-09-01T19:50:23Z</time>
  <course>0.47</course>
  <speed>0.24</speed>
  <fix>3d</fix>
</trkpt>
<trkpt lat="-27.274081" lon="151.2900689">
  <ele>354.09</ele>
  <time>2026-09-01T19:50:23Z</time>
  <course>0.93</course>
  <speed>0.2002498439450079</speed>
  <fix>3d</fix>
</trkpt>
<trkpt lat="-27.2740813" lon="151.2900688">
  <ele>354.18</ele>
  <time>2026-09-01T19:50:23Z</time>
  <course>0.47</course>
  <speed>0.24</speed>
  <fix>3d</fix>
</trkpt>
<trkpt lat="-27.2740808" lon="151.2900689">
  <ele>354.09</ele>
  <time>2026-09-01T19:50:23Z</time>
  <course>0.93</course>
  <speed>0.2002498439450079</speed>
  <fix>3d</fix>
</trkpt>
<trkpt lat="-27.2740809" lon="151.2900688">
  <ele>354.17</ele>
  <time>2026-09-01T19:50:23Z</time>
  <course>0.12</course>
  <speed>0.23</speed>
  <fix>3d</fix>
</trkpt>
<trkpt lat="-27.2740806" lon="151.2900689">
  <ele>354.08</ele>
  <time>2026-09-01T19:50:23Z</time>
  <course>0.93</course>
  <speed>0.19026297590440447</speed>
  <fix>3d</fix>
</trkpt>
<trkpt lat="-27.2740809" lon="151.2900688">
  <ele>354.17</ele>
  <time>2026-09-01T19:50:23Z</time>
  <course>0.12</course>
  <speed>0.23</speed>
  <fix>3d</fix>
</trkpt>
<trkpt lat="-27.2740804" lon="151.2900689">
  <ele>354.08</ele>
  <time>2026-09-01T19:50:23Z</time>
  <course>0.93</course>
  <speed>0.19026297590440447</speed>
  <fix>3d</fix>
</trkpt>
<trkpt lat="-27.2740804" lon="151.2900688">
  <ele>354.17</ele>
  <time>2026-09-01T19:50:23Z</time>
  <course>359.97</course>
  <speed>0.22</speed>
  <fix>3d</fix>
</trkpt>
<trkpt lat="-27.2740802" lon="151.2900689">
  <ele>354.08</ele>
  <time>2026-09-01T19:50:23Z</time>
  <course>0.93</course>
  <speed>0.19026297590440447</speed>
  <fix>3d</fix>
</trkpt>
<trkpt lat="-27.2740804" lon="151.2900688">
  <ele>354.17</ele>
  <time>2026-09-01T19:50:23Z</time>
  <course>359.97</course>
  <speed>0.22</speed>
  <fix>3d</fix>
</trkpt>
<trkpt lat="-27.27408" lon="151.2900689">
  <ele>354.08</ele>
  <time>2026-09-01T19:50:23Z</time>
  <course>0.93</course>
  <speed>0.18027756377319945</speed>
  <fix>3d</fix>
</trkpt>
<trkpt lat="-27.2740801" lon="151.2900688">
  <ele>354.17</ele>
  <time>2026-09-01T19:50:23Z</time>
  <course>359.91</course>
  <speed>0.21</speed>
  <fix>3d</fix>
</trkpt>
<trkpt lat="-27.2740798" lon="151.2900689">
  <ele>354.09</ele>
  <time>2026-09-01T19:50:23Z</time>
  <course>0.93</course>
  <speed>0.18027756377319945</speed>
  <fix>3d</fix>
</trkpt>
<trkpt lat="-27.2740801" lon="151.2900688">
  <ele>354.17</ele>
  <time>2026-09-01T19:50:23Z</time>
  <course>359.91</course>
  <speed>0.21</speed>
  <fix>3d</fix>
</trkpt>
<trkpt lat="-27.2740796" lon="151.2900689">
  <ele>354.09</ele>
  <time>2026-09-01T19:50:23Z</time>
  <course>0.93</course>
  <speed>0.17029386365926402</speed>
  <fix>3d</fix>
</trkpt>
<trkpt lat="-27.2740797" lon="151.2900688">
  <ele>354.17</ele>
  <time>2026-09-01T19:50:23Z</time>
  <course>359.92</course>
  <speed>0.2</speed>
  <fix>3d</fix>
</trkpt>
<trkpt lat="-27.2740794" lon="151.2900689">
  <ele>354.09</ele>
  <time>2026-09-01T19:50:23Z</time>
  <course>0.93</course>
  <speed>0.17029386365926402</speed>
  <fix>3d</fix>
</trkpt>
<trkpt lat="-27.2740797" lon="151.2900688">
  <ele>354.17</ele>
  <time>2026-09-01T19:50:23Z</time>
  <course>359.92</course>
  <speed>0.2</speed>
  <fix>3d</fix>
</trkpt>
<trkpt lat="-27.2740792" lon="151.2900689">
  <ele>354.09</ele>
  <time>2026-09-01T19:50:24Z</time>
  <course>0.93</course>
  <speed>0.17029386365926402</speed>
  <fix>3d</fix>
</trkpt>
<trkpt lat="-27.2740794" lon="151.2900688">
  <ele>354.17</ele>
  <time>2026-09-01T19:50:24Z</time>
  <course>359.89</course>
  <speed>0.19</speed>
  <fix>3d</fix>
</trkpt>
<trkpt lat="-27.2740791" lon="151.2900689">
  <ele>354.09</ele>
  <time>2026-09-01T19:50:24Z</time>
  <course>0.93</course>
  <speed>0.16031219541881397</speed>
  <fix>3d</fix>
</trkpt>
<trkpt lat="-27.2740794" lon="151.2900688">
  <ele>354.17</ele>
  <time>2026-09-01T19:50:24Z</time>
  <course>359.89</course>
  <speed>0.19</speed>
  <fix>3d</fix>
</trkpt>
<trkpt lat="-27.2740789" lon="151.2900689">
  <ele>354.09</ele>
  <time>2026-09-01T19:50:24Z</time>
  <course>0.93</course>
  <speed>0.16031219541881397</speed>
  <fix>3d</fix>
</trkpt>
<trkpt lat="-27.274079" lon="151.2900688">
  <ele>354.17</ele>
  <time>2026-09-01T19:50:24Z</time>
  <course>359.77</course>
  <speed>0.19</speed>
  <fix>3d</fix>
</trkpt>
<trkpt lat="-27.2740787" lon="151.2900689">
  <ele>354.09</ele>
  <time>2026-09-01T19:50:24Z</time>
  <course>0.93</course>
  <speed>0.15033296378372907</speed>
  <fix>3d</fix>
</trkpt>
<trkpt lat="-27.274079" lon="151.2900688">
  <ele>354.17</ele>
  <time>2026-09-01T19:50:24Z</time>
  <course>359.77</course>
  <speed>0.19</speed>
  <fix>3d</fix>
</trkpt>
<trkpt lat="-27.2740786" lon="151.2900689">
  <ele>354.09</ele>
  <time>2026-09-01T19:50:24Z</time>
  <course>0.93</course>
  <speed>0.15033296378372907</speed>
  <fix>3d</fix>
</trkpt>
<trkpt lat="-27.2740786" lon="151.2900688">
  <ele>354.17</ele>
  <time>2026-09-01T19:50:24Z</time>
  <course>359.56</course>
  <speed>0.18</speed>
  <fix>3d</fix>
</trkpt>
<trkpt lat="-27.2740784" lon="151.2900689">
  <ele>354.09</ele>
  <time>2026-09-01T19:50:24Z</time>
  <course>0.94</course>
  <speed>0.15033296378372907</speed>
  <fix>3d</fix>
</trkpt>
<trkpt lat="-27.2740786" lon="151.2900688">
  <ele>354.17</ele>
  <time>2026-09-01T19:50:24Z</time>
  <course>359.56</course>
  <speed>0.18</speed>
  <fix>3d</fix>
</trkpt>
<trkpt lat="-27.2740783" lon="151.2900689">
  <ele>354.09</ele>
  <time>2026-09-01T19:50:24Z</time>
  <course>0.94</course>
  <speed>0.140356688476182</speed>
  <fix>3d</fix>
</trkpt>
<trkpt lat="-27.2740783" lon="151.2900688">
  <ele>354.17</ele>
  <time>2026-09-01T19:50:24Z</time>
  <course>359.29</course>
  <speed>0.17</speed>
  <fix>3d</fix>
</trkpt>
<trkpt lat="-27.2740781" lon="151.2900689">
  <ele>354.09</ele>
  <time>2026-09-01T19:50:24Z</time>
  <course>0.94</course>
  <speed>0.140356688476182</speed>
  <fix>3d</fix>
</trkpt>
<trkpt lat="-27.2740783" lon="151.2900688">
  <ele>354.17</ele>
  <time>2026-09-01T19:50:24Z</time>
  <course>359.29</course>
  <speed>0.17</speed>
  <fix>3d</fix>
</trkpt>
<trkpt lat="-27.274078" lon="151.2900689">
  <ele>354.09</ele>
  <time>2026-09-01T19:50:24Z</time>
  <course>0.94</course>
  <speed>0.140356688476182</speed>
  <fix>3d</fix>
</trkpt>
<trkpt lat="-27.274078" lon="151.2900688">
  <ele>354.17</ele>
  <time>2026-09-01T19:50:24Z</time>
  <course>358.95</course>
  <speed>0.16</speed>
  <fix>3d</fix>
</trkpt>
<trkpt lat="-27.2740778" lon="151.2900689">
  <ele>354.09</ele>
  <time>2026-09-01T19:50:24Z</time>
  <course>0.94</course>
  <speed>0.130384048104053</speed>
  <fix>3d</fix>
</trkpt>
<trkpt lat="-27.274078" lon="151.2900688">
  <ele>354.17</ele>
  <time>2026-09-01T19:50:24Z</time>
  <course>358.95</course>
  <speed>0.16</speed>
  <fix>3d</fix>
</trkpt>
<trkpt lat="-27.2740777" lon="151.2900689">
  <ele>354.09</ele>
  <time>2026-09-01T19:50:24Z</time>
  <course>0.95</course>
  <speed>0.13</speed>
  <fix>3d</fix>
</trkpt>
<trkpt lat="-27.2740777" lon="151.2900688">
  <ele>354.17</ele>
  <time>2026-09-01T19:50:24Z</time>
  <course>358.45</course>
  <speed>0.16</speed>
  <fix>3d</fix>
</trkpt>
<trkpt lat="-27.2740775" lon="151.2900689">
  <ele>354.1</ele>
  <time>2026-09-01T19:50:24Z</time>
  <course>0.95</course>
  <speed>0.13</speed>
  <fix>3d</fix>
</trkpt>
<trkpt lat="-27.2740777" lon="151.2900688">
  <ele>354.17</ele>
  <time>2026-09-01T19:50:24Z</time>
  <course>358.45</course>
  <speed>0.16</speed>
  <fix>3d</fix>
</trkpt>
<trkpt lat="-27.2740774" lon="151.2900689">
  <ele>354.09</ele>
  <time>2026-09-01T19:50:24Z</time>
  <course>0.95</course>
  <speed>0.12</speed>
  <fix>3d</fix>
</trkpt>
<trkpt lat="-27.2740774" lon="151.2900688">
  <ele>354.17</ele>
  <time>2026-09-01T19:50:24Z</time>
  <course>357.73</course>
  <speed>0.15</speed>
  <fix>3d</fix>
</trkpt>
<trkpt lat="-27.2740773" lon="151.2900689">
  <ele>354.09</ele>
  <time>2026-09-01T19:50:24Z</time>
  <course>0.95</course>
  <speed>0.12</speed>
  <fix>3d</fix>
</trkpt>
<trkpt lat="-27.2740774" lon="151.2900688">
  <ele>354.17</ele>
  <time>2026-09-01T19:50:24Z</time>
  <course>357.73</course>
  <speed>0.15</speed>
  <fix>3d</fix>
</trkpt>
<trkpt lat="-27.2740771" lon="151.2900689">
  <ele>354.09</ele>
  <time>2026-09-01T19:50:24Z</time>
  <course>0.95</course>
  <speed>0.12</speed>
  <fix>3d</fix>
</trkpt>
<trkpt lat="-27.2740772" lon="151.2900688">
  <ele>354.16</ele>
  <time>2026-09-01T19:50:24Z</time>
  <course>357.07</course>
  <speed>0.14</speed>
  <fix>3d</fix>
</trkpt>
<trkpt lat="-27.274077" lon="151.2900689">
  <ele>354.09</ele>
  <time>2026-09-01T19:50:24Z</time>
  <course>0.94</course>
  <speed>0.11</speed>
  <fix>3d</fix>
</trkpt>
<trkpt lat="-27.2740772" lon="151.2900688">
  <ele>354.16</ele>
  <time>2026-09-01T19:50:24Z</time>
  <course>357.07</course>
  <speed>0.14</speed>
  <fix>3d</fix>
</trkpt>
<trkpt lat="-27.2740769" lon="151.2900689">
  <ele>354.08</ele>
  <time>2026-09-01T19:50:24Z</time>
  <course>0.93</course>
  <speed>0.11</speed>
  <fix>3d</fix>
</trkpt>
<trkpt lat="-27.2740769" lon="151.2900688">
  <ele>354.16</ele>
  <time>2026-09-01T19:50:24Z</time>
  <course>356.66</course>
  <speed>0.13</speed>
  <fix>3d</fix>
</trkpt>
<trkpt lat="-27.2740768" lon="151.2900689">
  <ele>354.08</ele>
  <time>2026-09-01T19:50:24Z</time>
  <course>0.93</course>
  <speed>0.11</speed>
  <fix>3d</fix>
</trkpt>
<trkpt lat="-27.2740769" lon="151.2900688">
  <ele>354.16</ele>
  <time>2026-09-01T19:50:24Z</time>
  <course>356.66</course>
  <speed>0.13</speed>
  <fix>3d</fix>
</trkpt>
<trkpt lat="-27.2740766" lon="151.2900689">
  <ele>354.08</ele>
  <time>2026-09-01T19:50:24Z</time>
  <course>0.93</course>
  <speed>0.11</speed>
  <fix>3d</fix>
</trkpt>
<trkpt lat="-27.2740767" lon="151.2900688">
  <ele>354.16</ele>
  <time>2026-09-01T19:50:24Z</time>
  <course>356.41</course>
  <speed>0.13</speed>
  <fix>3d</fix>
</trkpt>
<trkpt lat="-27.2740765" lon="151.2900689">
  <ele>354.08</ele>
  <time>2026-09-01T19:50:24Z</time>
  <course>0.93</course>
  <speed>0.1</speed>
  <fix>3d</fix>
</trkpt>
<trkpt lat="-27.2740767" lon="151.2900688">
  <ele>354.16</ele>
  <time>2026-09-01T19:50:24Z</time>
  <course>356.41</course>
  <speed>0.13</speed>
  <fix>3d</fix>
</trkpt>
<trkpt lat="-27.2740764" lon="151.2900689">
  <ele>354.08</ele>
  <time>2026-09-01T19:50:24Z</time>
  <course>0.93</course>
  <speed>0.1</speed>
  <fix>3d</fix>
</trkpt>
<trkpt lat="-27.2740765" lon="151.2900688">
  <ele>354.16</ele>
  <time>2026-09-01T19:50:24Z</time>
  <course>356.16</course>
  <speed>0.12</speed>
  <fix>3d</fix>
</trkpt>
<trkpt lat="-27.2740763" lon="151.2900689">
  <ele>354.08</ele>
  <time>2026-09-01T19:50:24Z</time>
  <course>0.93</course>
  <speed>0.1</speed>
  <fix>3d</fix>
</trkpt>
<trkpt lat="-27.2740765" lon="151.2900688">
  <ele>354.16</ele>
  <time>2026-09-01T19:50:24Z</time>
  <course>356.16</course>
  <speed>0.12</speed>
  <fix>3d</fix>
</trkpt>
<trkpt lat="-27.2740762" lon="151.2900689">
  <ele>354.08</ele>
  <time>2026-09-01T19:50:24Z</time>
  <course>0.93</course>
  <speed>0.09</speed>
  <fix>3d</fix>
</trkpt>
<trkpt lat="-27.2740762" lon="151.2900688">
  <ele>354.16</ele>
  <time>2026-09-01T19:50:24Z</time>
  <course>355.75</course>
  <speed>0.12</speed>
  <fix>3d</fix>
</trkpt>
<trkpt lat="-27.2740761" lon="151.2900689">
  <ele>354.08</ele>
  <time>2026-09-01T19:50:24Z</time>
  <course>0.93</course>
  <speed>0.09</speed>
  <fix>3d</fix>
</trkpt>
<trkpt lat="-27.2740762" lon="151.2900688">
  <ele>354.16</ele>
  <time>2026-09-01T19:50:24Z</time>
  <course>355.75</course>
  <speed>0.12</speed>
  <fix>3d</fix>
</trkpt>
<trkpt lat="-27.274076" lon="151.2900689">
  <ele>354.08</ele>
  <time>2026-09-01T19:50:24Z</time>
  <course>0.93</course>
  <speed>0.09</speed>
  <fix>3d</fix>
</trkpt>
<trkpt lat="-27.274076" lon="151.2900688">
  <ele>354.16</ele>
  <time>2026-09-01T19:50:24Z</time>
  <course>355.37</course>
  <speed>0.11</speed>
  <fix>3d</fix>
</trkpt>
<trkpt lat="-27.2740759" lon="151.2900689">
  <ele>354.08</ele>
  <time>2026-09-01T19:50:24Z</time>
  <course>0.93</course>
  <speed>0.09</speed>
  <fix>3d</fix>
</trkpt>
<trkpt lat="-27.274076" lon="151.2900688">
  <ele>354.16</ele>
  <time>2026-09-01T19:50:24Z</time>
  <course>355.37</course>
  <speed>0.11</speed>
  <fix>3d</fix>
</trkpt>
<trkpt lat="-27.2740758" lon="151.2900689">
  <ele>354.08</ele>
  <time>2026-09-01T19:50:24Z</time>
  <course>0.93</course>
  <speed>0.09</speed>
  <fix>3d</fix>
</trkpt>
<trkpt lat="-27.2740758" lon="151.2900688">
  <ele>354.16</ele>
  <time>2026-09-01T19:50:24Z</time>
  <course>355.1</course>
  <speed>0.11</speed>
  <fix>3d</fix>
</trkpt>
<trkpt lat="-27.2740757" lon="151.2900689">
  <ele>354.08</ele>
  <time>2026-09-01T19:50:24Z</time>
  <course>0.93</course>
  <speed>0.08</speed>
  <fix>3d</fix>
</trkpt>
<trkpt lat="-27.2740758" lon="151.2900688">
  <ele>354.16</ele>
  <time>2026-09-01T19:50:24Z</time>
  <course>355.1</course>
  <speed>0.11</speed>
  <fix>3d</fix>
</trkpt>
<trkpt lat="-27.2740756" lon="151.2900689">
  <ele>354.08</ele>
  <time>2026-09-01T19:50:24Z</time>
  <course>0.93</course>
  <speed>0.07</speed>
  <fix>3d</fix>
</trkpt>
<trkpt lat="-27.2740755" lon="151.2900688">
  <ele>354.16</ele>
  <time>2026-09-01T19:50:24Z</time>
  <course>354.47</course>
  <speed>0.11</speed>
  <fix>3d</fix>
</trkpt>
<trkpt lat="-27.2740755" lon="151.2900689">
  <ele>354.09</ele>
  <time>2026-09-01T19:50:24Z</time>
  <course>0.93</course>
  <speed>0.06</speed>
  <fix>3d</fix>
</trkpt>
<trkpt lat="-27.2740755" lon="151.2900688">
  <ele>354.16</ele>
  <time>2026-09-01T19:50:24Z</time>
  <course>354.47</course>
  <speed>0.11</speed>
  <fix>3d</fix>
</trkpt>
<trkpt lat="-27.2740754" lon="151.2900689">
  <ele>354.09</ele>
  <time>2026-09-01T19:50:24Z</time>
  <course>0.93</course>
  <speed>0.06</speed>
  <fix>3d</fix>
</trkpt>
<trkpt lat="-27.2740754" lon="151.2900687">
  <ele>354.16</ele>
  <time>2026-09-01T19:50:24Z</time>
  <course>353.23</course>
  <speed>0.09</speed>
  <fix>3d</fix>
</trkpt>
<trkpt lat="-27.2740754" lon="151.2900689">
  <ele>354.09</ele>
  <time>2026-09-01T19:50:24Z</time>
  <course>0.93</course>
  <speed>0.05</speed>
  <fix>3d</fix>
</trkpt>
<trkpt lat="-27.2740754" lon="151.2900687">
  <ele>354.16</ele>
  <time>2026-09-01T19:50:24Z</time>
  <course>353.23</course>
  <speed>0.09</speed>
  <fix>3d</fix>
</trkpt>
<trkpt lat="-27.2740753" lon="151.2900689">
  <ele>354.09</ele>
  <time>2026-09-01T19:50:24Z</time>
  <course>0.93</course>
  <speed>0.05</speed>
  <fix>3d</fix>
</trkpt>
<trkpt lat="-27.2740753" lon="151.2900687">
  <ele>354.16</ele>
  <time>2026-09-01T19:50:24Z</time>
  <course>351.85</course>
  <speed>0.08</speed>
  <fix>3d</fix>
</trkpt>
<trkpt lat="-27.2740752" lon="151.2900689">
  <ele>354.09</ele>
  <time>2026-09-01T19:50:24Z</time>
  <course>0.93</course>
  <speed>0.05</speed>
  <fix>3d</fix>
</trkpt>
<trkpt lat="-27.2740753" lon="151.2900687">
  <ele>354.16</ele>
  <time>2026-09-01T19:50:24Z</time>
  <course>351.85</course>
  <speed>0.08</speed>
  <fix>3d</fix>
</trkpt>
<trkpt lat="-27.2740752" lon="151.2900689">
  <ele>354.09</ele>
  <time>2026-09-01T19:50:24Z</time>
  <course>0.94</course>
  <speed>0.06</speed>
  <fix>3d</fix>
</trkpt>
<trkpt lat="-27.2740751" lon="151.2900687">
  <ele>354.17</ele>
  <time>2026-09-01T19:50:24Z</time>
  <course>351.48</course>
  <speed>0.07</speed>
  <fix>3d</fix>
</trkpt>
<trkpt lat="-27.2740751" lon="151.2900689">
  <ele>354.08</ele>
  <time>2026-09-01T19:50:24Z</time>
  <course>0.94</course>
  <speed>0.07071067811865475</speed>
  <fix>3d</fix>
</trkpt>
<trkpt lat="-27.2740751" lon="151.2900687">
  <ele>354.17</ele>
  <time>2026-09-01T19:50:24Z</time>
  <course>351.48</course>
  <speed>0.07</speed>
  <fix>3d</fix>
</trkpt>
<trkpt lat="-27.274075" lon="151.2900689">
  <ele>354.07</ele>
  <time>2026-09-01T19:50:24Z</time>
  <course>0.94</course>
  <speed>0.09055385138137417</speed>
  <fix>3d</fix>
</trkpt>
<trkpt lat="-27.2740749" lon="151.2900687">
  <ele>354.16</ele>
  <time>2026-09-01T19:50:24Z</time>
  <course>352.82</course>
  <speed>0.08</speed>
  <fix>3d</fix>
</trkpt>
<trkpt lat="-27.2740749" lon="151.2900689">
  <ele>354.06</ele>
  <time>2026-09-01T19:50:24Z</time>
  <course>0.94</course>
  <speed>0.1004987562112089</speed>
  <fix>3d</fix>
</trkpt>
<trkpt lat="-27.2740749" lon="151.2900687">
  <ele>354.16</ele>
  <time>2026-09-01T19:50:24Z</time>
  <course>352.82</course>
  <speed>0.08</speed>
  <fix>3d</fix>
</trkpt>
<trkpt lat="-27.2740748" lon="151.2900688">
  <ele>354.06</ele>
  <time>2026-09-01T19:50:24Z</time>
  <course>0.94</course>
  <speed>0.12041594578792296</speed>
  <fix>3d</fix>
</trkpt>
<trkpt lat="-27.2740748" lon="151.2900687">
  <ele>354.15</ele>
  <time>2026-09-01T19:50:24Z</time>
  <course>354.65</course>
  <speed>0.11</speed>
  <fix>3d</fix>
</trkpt>
<trkpt lat="-27.2740746" lon="151.2900688">
  <ele>354.05</ele>
  <time>2026-09-01T19:50:24Z</time>
  <course>0.94</course>
  <speed>0.130384048104053</speed>
  <fix>3d</fix>
</trkpt>
<trkpt lat="-27.2740748" lon="151.2900687">
  <ele>354.15</ele>
  <time>2026-09-01T19:50:24Z</time>
  <course>354.65</course>
  <speed>0.11</speed>
  <fix>3d</fix>
</trkpt>
<trkpt lat="-27.2740745" lon="151.2900688">
  <ele>354.05</ele>
  <time>2026-09-01T19:50:24Z</time>
  <course>0.94</course>
  <speed>0.140356688476182</speed>
  <fix>3d</fix>
</trkpt>
<trkpt lat="-27.2740746" lon="151.2900686">
  <ele>354.13</ele>
  <time>2026-09-01T19:50:24Z</time>
  <course>355.72</course>
  <speed>0.13</speed>
  <fix>3d</fix>
</trkpt>
<trkpt lat="-27.2740744" lon="151.2900688">
  <ele>354.05</ele>
  <time>2026-09-01T19:50:24Z</time>
  <course>0.94</course>
  <speed>0.140356688476182</speed>
  <fix>3d</fix>
</trkpt>
<trkpt lat="-27.2740746" lon="151.2900686">
  <ele>354.13</ele>
  <time>2026-09-01T19:50:24Z</time>
  <course>355.72</course>
  <speed>0.13</speed>
  <fix>3d</fix>
</trkpt>
<trkpt lat="-27.2740742" lon="151.2900688">
  <ele>354.05</ele>
  <time>2026-09-01T19:50:24Z</time>
  <course>0.94</course>
  <speed>0.13</speed>
  <fix>3d</fix>
</trkpt>
<trkpt lat="-27.2740743" lon="151.2900685">
  <ele>354.12</ele>
  <time>2026-09-01T19:50:24Z</time>
  <course>356.01</course>
  <speed>0.15</speed>
  <fix>3d</fix>
</trkpt>
<trkpt lat="-27.2740741" lon="151.2900688">
  <ele>354.05</ele>
  <time>2026-09-01T19:50:24Z</time>
  <course>0.94</course>
  <speed>0.11</speed>
  <fix>3d</fix>
</trkpt>
<trkpt lat="-27.2740743" lon="151.2900685">
  <ele>354.12</ele>
  <time>2026-09-01T19:50:24Z</time>
  <course>356.01</course>
  <speed>0.15</speed>
  <fix>3d</fix>
</trkpt>
<trkpt lat="-27.274074" lon="151.2900688">
  <ele>354.05</ele>
  <time>2026-09-01T19:50:24Z</time>
  <course>0.93</course>
  <speed>0.09</speed>
  <fix>3d</fix>
</trkpt>
<trkpt lat="-27.274074" lon="151.2900685">
  <ele>354.12</ele>
  <time>2026-09-01T19:50:24Z</time>
  <course>355.59</course>
  <speed>0.14</speed>
  <fix>3d</fix>
</trkpt>
<trkpt lat="-27.2740739" lon="151.2900688">
  <ele>354.05</ele>
  <time>2026-09-01T19:50:24Z</time>
  <course>0.91</course>
  <speed>0.06</speed>
  <fix>3d</fix>
</trkpt>
<trkpt lat="-27.274074" lon="151.2900685">
  <ele>354.12</ele>
  <time>2026-09-01T19:50:24Z</time>
  <course>355.59</course>
  <speed>0.14</speed>
  <fix>3d</fix>
</trkpt>
<trkpt lat="-27.2740738" lon="151.2900687">
  <ele>354.04</ele>
  <time>2026-09-01T19:50:24Z</time>
  <course>0.9</course>
  <speed>0.03</speed>
  <fix>3d</fix>
</trkpt>
<trkpt lat="-27.2740737" lon="151.2900685">
  <ele>354.13</ele>
  <time>2026-09-01T19:50:24Z</time>
  <course>353.93</course>
  <speed>0.11</speed>
  <fix>3d</fix>
</trkpt>
<trkpt lat="-27.2740738" lon="151.2900687">
  <ele>354.01</ele>
  <time>2026-09-01T19:50:24Z</time>
  <course>0.88</course>
  <speed>0.0</speed>
  <fix>3d</fix>
</trkpt>
<trkpt lat="-27.2740737" lon="151.2900685">
  <ele>354.13</ele>
  <time>2026-09-01T19:50:24Z</time>
  <course>353.93</course>
  <speed>0.11</speed>
  <fix>3d</fix>
</trkpt>
<trkpt lat="-27.2740738" lon="151.2900687">
  <ele>353.98</ele>
  <time>2026-09-01T19:50:24Z</time>
  <course>0.85</course>
  <speed>0.03</speed>
  <fix>3d</fix>
</trkpt>
<trkpt lat="-27.2740736" lon="151.2900685">
  <ele>354.11</ele>
  <time>2026-09-01T19:50:24Z</time>
  <course>347.23</course>
  <speed>0.05</speed>
  <fix>3d</fix>
</trkpt>
<trkpt lat="-27.2740738" lon="151.2900687">
  <ele>353.94</ele>
  <time>2026-09-01T19:50:24Z</time>
  <course>0.83</course>
  <speed>0.06</speed>
  <fix>3d</fix>
</trkpt>
<trkpt lat="-27.2740736" lon="151.2900685">
  <ele>354.11</ele>
  <time>2026-09-01T19:50:24Z</time>
  <course>347.23</course>
  <speed>0.05</speed>
  <fix>3d</fix>
</trkpt>
<trkpt lat="-27.2740739" lon="151.2900687">
  <ele>353.88</ele>
  <time>2026-09-01T19:50:24Z</time>
  <course>0.81</course>
  <speed>0.09</speed>
  <fix>3d</fix>
</trkpt>
<trkpt lat="-27.2740736" lon="151.2900685">
  <ele>354.05</ele>
  <time>2026-09-01T19:50:24Z</time>
  <course>227.61</course>
  <speed>0.01</speed>
  <fix>3d</fix>
</trkpt>
<trkpt lat="-27.2740739" lon="151.2900687">
  <ele>353.81</ele>
  <time>2026-09-01T19:50:24Z</time>
  <course>0.79</course>
  <speed>0.12</speed>
  <fix>3d</fix>
</trkpt>
<trkpt lat="-27.2740736" lon="151.2900685">
  <ele>354.05</ele>
  <time>2026-09-01T19:50:24Z</time>
  <course>227.61</course>
  <speed>0.01</speed>
  <fix>3d</fix>
</trkpt>
<trkpt lat="-27.2740739" lon="151.2900687">
  <ele>353.73</ele>
  <time>2026-09-01T19:50:24Z</time>
  <course>0.77</course>
  <speed>0.14</speed>
  <fix>3d</fix>
</trkpt>
<trkpt lat="-27.2740737" lon="151.2900685">
  <ele>353.95</ele>
  <time>2026-09-01T19:50:24Z</time>
  <course>190.22</course>
  <speed>0.07</speed>
  <fix>3d</fix>
</trkpt>
<trkpt lat="-27.2740741" lon="151.2900686">
  <ele>353.63</ele>
  <time>2026-09-01T19:50:24Z</time>
  <course>0.74</course>
  <speed>0.15</speed>
  <fix>3d</fix>
</trkpt>
<trkpt lat="-27.2740737" lon="151.2900685">
  <ele>353.95</ele>
  <time>2026-09-01T19:50:24Z</time>
  <course>190.22</course>
  <speed>0.07</speed>
  <fix>3d</fix>
</trkpt>
<trkpt lat="-27.2740742" lon="151.2900686">
  <ele>353.52</ele>
  <time>2026-09-01T19:50:24Z</time>
  <course>0.73</course>
  <speed>0.16</speed>
  <fix>3d</fix>
</trkpt>
<trkpt lat="-27.2740738" lon="151.2900685">
  <ele>353.8</ele>
  <time>2026-09-01T19:50:24Z</time>
  <course>186.54</course>
  <speed>0.12</speed>
  <fix>3d</fix>
</trkpt>
<trkpt lat="-27.2740743" lon="151.2900686">
  <ele>353.4</ele>
  <time>2026-09-01T19:50:24Z</time>
  <course>0.71</course>
  <speed>0.16</speed>
  <fix>3d</fix>
</trkpt>
<trkpt lat="-27.2740738" lon="151.2900685">
  <ele>353.8</ele>
  <time>2026-09-01T19:50:24Z</time>
  <course>186.54</course>
  <speed>0.12</speed>
  <fix>3d</fix>
</trkpt>
<trkpt lat="-27.2740744" lon="151.2900686">
  <ele>353.27</ele>
  <time>2026-09-01T19:50:24Z</time>
  <course>0.7</course>
  <speed>0.15</speed>
  <fix>3d</fix>
</trkpt>
<trkpt lat="-27.274074" lon="151.2900684">
  <ele>353.59</ele>
  <time>2026-09-01T19:50:24Z</time>
  <course>185.75</course>
  <speed>0.14</speed>
  <fix>3d</fix>
</trkpt>
<trkpt lat="-27.2740745" lon="151.2900686">
  <ele>353.14</ele>
  <time>2026-09-01T19:50:24Z</time>
  <course>0.69</course>
  <speed>0.13</speed>
  <fix>3d</fix>
</trkpt>
<trkpt lat="-27.274074" lon="151.2900684">
  <ele>353.59</ele>
  <time>2026-09-01T19:50:24Z</time>
  <course>185.75</course>
  <speed>0.14</speed>
  <fix>3d</fix>
</trkpt>
<trkpt lat="-27.2740746" lon="151.2900686">
  <ele>352.99</ele>
  <time>2026-09-01T19:50:24Z</time>
  <course>0.69</course>
  <speed>0.11</speed>
  <fix>3d</fix>
</trkpt>
<trkpt lat="-27.2740743" lon="151.2900684">
  <ele>353.36</ele>
  <time>2026-09-01T19:50:24Z</time>
  <course>186.27</course>
  <speed>0.13</speed>
  <fix>3d</fix>
</trkpt>
<trkpt lat="-27.2740747" lon="151.2900686">
  <ele>352.84</ele>
  <time>2026-09-01T19:50:24Z</time>
  <course>0.7</course>
  <speed>0.08</speed>
  <fix>3d</fix>
</trkpt>
<trkpt lat="-27.2740743" lon="151.2900684">
  <ele>353.36</ele>
  <time>2026-09-01T19:50:24Z</time>
  <course>186.27</course>
  <speed>0.13</speed>
  <fix>3d</fix>
</trkpt>
<trkpt lat="-27.2740747" lon="151.2900685">
  <ele>352.69</ele>
  <time>2026-09-01T19:50:24Z</time>
  <course>0.7</course>
  <speed>0.05</speed>
  <fix>3d</fix>
</trkpt>
<trkpt lat="-27.2740745" lon="151.2900684">
  <ele>353.08</ele>
  <time>2026-09-01T19:50:24Z</time>
  <course>188.72</course>
  <speed>0.1</speed>
  <fix>3d</fix>
</trkpt>
<trkpt lat="-27.2740748" lon="151.2900685">
  <ele>352.53</ele>
  <time>2026-09-01T19:50:24Z</time>
  <course>0.72</course>
  <speed>0.01</speed>
  <fix>3d</fix>
</trkpt>
<trkpt lat="-27.2740745" lon="151.2900684">
  <ele>353.08</ele>
  <time>2026-09-01T19:50:24Z</time>
  <course>188.72</course>
  <speed>0.1</speed>
  <fix>3d</fix>
</trkpt>
<trkpt lat="-27.2740747" lon="151.2900685">
  <ele>352.37</ele>
  <time>2026-09-01T19:50:24Z</time>
  <course>0.73</course>
  <speed>0.02</speed>
  <fix>3d</fix>
</trkpt>
<trkpt lat="-27.2740746" lon="151.2900683">
  <ele>352.78</ele>
  <time>2026-09-01T19:50:24Z</time>
  <course>201.9</course>
  <speed>0.04</speed>
  <fix>3d</fix>
</trkpt>
<trkpt lat="-27.2740747" lon="151.2900685">
  <ele>352.22</ele>
  <time>2026-09-01T19:50:24Z</time>
  <course>0.75</course>
  <speed>0.07</speed>
  <fix>3d</fix>
</trkpt>
<trkpt lat="-27.2740746" lon="151.2900683">
  <ele>352.78</ele>
  <time>2026-09-01T19:50:24Z</time>
  <course>201.9</course>
  <speed>0.04</speed>
  <fix>3d</fix>
</trkpt>
<trkpt lat="-27.2740747" lon="151.2900685">
  <ele>352.06</ele>
  <time>2026-09-01T19:50:24Z</time>
  <course>0.77</course>
  <speed>0.12</speed>
  <fix>3d</fix>
</trkpt>
<trkpt lat="-27.2740747" lon="151.2900683">
  <ele>352.47</ele>
  <time>2026-09-01T19:50:24Z</time>
  <course>340.61</course>
  <speed>0.04</speed>
  <fix>3d</fix>
</trkpt>
<trkpt lat="-27.2740745" lon="151.2900685">
  <ele>351.91</ele>
  <time>2026-09-01T19:50:24Z</time>
  <course>0.78</course>
  <speed>0.16</speed>
  <fix>3d</fix>
</trkpt>
<trkpt lat="-27.2740747" lon="151.2900683">
  <ele>352.47</ele>
  <time>2026-09-01T19:50:24Z</time>
  <course>340.61</course>
  <speed>0.04</speed>
  <fix>3d</fix>
</trkpt>
<trkpt lat="-27.2740743" lon="151.2900685">
  <ele>351.77</ele>
  <time>2026-09-01T19:50:24Z</time>
  <course>0.8</course>
  <speed>0.2</speed>
  <fix>3d</fix>
</trkpt>
<trkpt lat="-27.2740745" lon="151.2900683">
  <ele>352.16</ele>
  <time>2026-09-01T19:50:24Z</time>
  <course>353.64</course>
  <speed>0.13</speed>
  <fix>3d</fix>
</trkpt>
<trkpt lat="-27.2740741" lon="151.2900685">
  <ele>351.63</ele>
  <time>2026-09-01T19:50:24Z</time>
  <course>0.81</course>
  <speed>0.24</speed>
  <fix>3d</fix>
</trkpt>
<trkpt lat="-27.2740745" lon="151.2900683">
  <ele>352.16</ele>
  <time>2026-09-01T19:50:24Z</time>
  <course>353.64</course>
  <speed>0.13</speed>
  <fix>3d</fix>
</trkpt>
<trkpt lat="-27.2740739" lon="151.2900684">
  <ele>351.5</ele>
  <time>2026-09-01T19:50:24Z</time>
  <course>0.83</course>
  <speed>0.27</speed>
  <fix>3d</fix>
</trkpt>
<trkpt lat="-27.2740742" lon="151.2900682">
  <ele>351.87</ele>
  <time>2026-09-01T19:50:24Z</time>
  <course>356.12</course>
  <speed>0.22</speed>
  <fix>3d</fix>
</trkpt>
<trkpt lat="-27.2740736" lon="151.2900684">
  <ele>351.38</ele>
  <time>2026-09-01T19:50:24Z</time>
  <course>0.84</course>
  <speed>0.3</speed>
  <fix>3d</fix>
</trkpt>
<trkpt lat="-27.2740742" lon="151.2900682">
  <ele>351.87</ele>
  <time>2026-09-01T19:50:24Z</time>
  <course>356.12</course>
  <speed>0.22</speed>
  <fix>3d</fix>
</trkpt>
<trkpt lat="-27.2740733" lon="151.2900684">
  <ele>351.26</ele>
  <time>2026-09-01T19:50:24Z</time>
  <course>0.85</course>
  <speed>0.32</speed>
  <fix>3d</fix>
</trkpt>
<trkpt lat="-27.2740737" lon="151.2900681">
  <ele>351.6</ele>
  <time>2026-09-01T19:50:24Z</time>
  <course>357.0</course>
  <speed>0.29</speed>
  <fix>3d</fix>
</trkpt>
<trkpt lat="-27.274073" lon="151.2900684">
  <ele>351.15</ele>
  <time>2026-09-01T19:50:24Z</time>
  <course>0.85</course>
  <speed>0.34</speed>
  <fix>3d</fix>
</trkpt>
<trkpt lat="-27.2740737" lon="151.2900681">
  <ele>351.6</ele>
  <time>2026-09-01T19:50:24Z</time>
  <course>357.0</course>
  <speed>0.29</speed>
  <fix>3d</fix>
</trkpt>
<trkpt lat="-27.2740727" lon="151.2900683">
  <ele>351.05</ele>
  <time>2026-09-01T19:50:24Z</time>
  <course>0.86</course>
  <speed>0.35</speed>
  <fix>3d</fix>
</trkpt>
<trkpt lat="-27.2740732" lon="151.2900681">
  <ele>351.36</ele>
  <time>2026-09-01T19:50:24Z</time>
  <course>357.35</course>
  <speed>0.34</speed>
  <fix>3d</fix>
</trkpt>
<trkpt lat="-27.2740724" lon="151.2900683">
  <ele>350.95</ele>
  <time>2026-09-01T19:50:24Z</time>
  <course>0.87</course>
  <speed>0.36</speed>
  <fix>3d</fix>
</trkpt>
<trkpt lat="-27.2740732" lon="151.2900681">
  <ele>351.36</ele>
  <time>2026-09-01T19:50:24Z</time>
  <course>357.35</course>
  <speed>0.34</speed>
  <fix>3d</fix>
</trkpt>
<trkpt lat="-27.274072" lon="151.2900683">
  <ele>350.86</ele>
  <time>2026-09-01T19:50:24Z</time>
  <course>0.87</course>
  <speed>0.36</speed>
  <fix>3d</fix>
</trkpt>
<trkpt lat="-27.2740725" lon="151.2900681">
  <ele>351.15</ele>
  <time>2026-09-01T19:50:24Z</time>
  <course>357.47</course>
  <speed>0.37</speed>
  <fix>3d</fix>
</trkpt>
<trkpt lat="-27.2740717" lon="151.2900683">
  <ele>350.77</ele>
  <time>2026-09-01T19:50:24Z</time>
  <course>0.87</course>
  <speed>0.36</speed>
  <fix>3d</fix>
</trkpt>
<trkpt lat="-27.2740725" lon="151.2900681">
  <ele>351.15</ele>
  <time>2026-09-01T19:50:24Z</time>
  <course>357.47</course>
  <speed>0.37</speed>
  <fix>3d</fix>
</trkpt>
<trkpt lat="-27.2740713" lon="151.2900683">
  <ele>350.68</ele>
  <time>2026-09-01T19:50:24Z</time>
  <course>0.88</course>
  <speed>0.35</speed>
  <fix>3d</fix>
</trkpt>
<trkpt lat="-27.2740718" lon="151.290068">
  <ele>350.96</ele>
  <time>2026-09-01T19:50:24Z</time>
  <course>357.5</course>
  <speed>0.38</speed>
  <fix>3d</fix>
</trkpt>
<trkpt lat="-27.274071" lon="151.2900683">
  <ele>350.6</ele>
  <time>2026-09-01T19:50:24Z</time>
  <course>0.88</course>
  <speed>0.35</speed>
  <fix>3d</fix>
</trkpt>
<trkpt lat="-27.2740718" lon="151.290068">
  <ele>350.96</ele>
  <time>2026-09-01T19:50:24Z</time>
  <course>357.5</course>
  <speed>0.38</speed>
  <fix>3d</fix>
</trkpt>
<trkpt lat="-27.2740707" lon="151.2900682">
  <ele>350.52</ele>
  <time>2026-09-01T19:50:24Z</time>
  <course>0.88</course>
  <speed>0.34</speed>
  <fix>3d</fix>
</trkpt>
<trkpt lat="-27.2740712" lon="151.290068">
  <ele>350.79</ele>
  <time>2026-09-01T19:50:24Z</time>
  <course>357.5</course>
  <speed>0.37</speed>
  <fix>3d</fix>
</trkpt>
<trkpt lat="-27.2740704" lon="151.2900682">
  <ele>350.44</ele>
  <time>2026-09-01T19:50:24Z</time>
  <course>0.89</course>
  <speed>0.33</speed>
  <fix>3d</fix>
</trkpt>
<trkpt lat="-27.2740712" lon="151.290068">
  <ele>350.79</ele>
  <time>2026-09-01T19:50:24Z</time>
  <course>357.5</course>
  <speed>0.37</speed>
  <fix>3d</fix>
</trkpt>
<trkpt lat="-27.2740701" lon="151.2900682">
  <ele>350.37</ele>
  <time>2026-09-01T19:50:24Z</time>
  <course>0.89</course>
  <speed>0.33</speed>
  <fix>3d</fix>
</trkpt>
<trkpt lat="-27.2740705" lon="151.290068">
  <ele>350.63</ele>
  <time>2026-09-01T19:50:24Z</time>
  <course>357.49</course>
  <speed>0.36</speed>
  <fix>3d</fix>
</trkpt>
<trkpt lat="-27.2740697" lon="151.2900682">
  <ele>350.29</ele>
  <time>2026-09-01T19:50:24Z</time>
  <course>0.9</course>
  <speed>0.32</speed>
  <fix>3d</fix>
</trkpt>
<trkpt lat="-27.2740705" lon="151.290068">
  <ele>350.63</ele>
  <time>2026-09-01T19:50:24Z</time>
  <course>357.49</course>
  <speed>0.36</speed>
  <fix>3d</fix>
</trkpt>
<trkpt lat="-27.2740694" lon="151.2900682">
  <ele>350.22</ele>
  <time>2026-09-01T19:50:24Z</time>
  <course>0.91</course>
  <speed>0.32</speed>
  <fix>3d</fix>
</trkpt>
<trkpt lat="-27.2740698" lon="151.290068">
  <ele>350.47</ele>
  <time>2026-09-01T19:50:24Z</time>
  <course>357.52</course>
  <speed>0.35</speed>
  <fix>3d</fix>
</trkpt>
<trkpt lat="-27.2740691" lon="151.2900681">
  <ele>350.14</ele>
  <time>2026-09-01T19:50:24Z</time>
  <course>0.92</course>
  <speed>0.32</speed>
  <fix>3d</fix>
</trkpt>
<trkpt lat="-27.2740698" lon="151.290068">
  <ele>350.47</ele>
  <time>2026-09-01T19:50:24Z</time>
  <course>357.52</course>
  <speed>0.35</speed>
  <fix>3d</fix>
</trkpt>
<trkpt lat="-27.2740688" lon="151.2900681">
  <ele>350.07</ele>
  <time>2026-09-01T19:50:24Z</time>
  <course>0.92</course>
  <speed>0.31</speed>
  <fix>3d</fix>
</trkpt>
<trkpt lat="-27.2740692" lon="151.290068">
  <ele>350.32</ele>
  <time>2026-09-01T19:50:24Z</time>
  <course>357.62</course>
  <speed>0.34</speed>
  <fix>3d</fix>
</trkpt>
<trkpt lat="-27.2740685" lon="151.2900681">
  <ele>349.99</ele>
  <time>2026-09-01T19:50:24Z</time>
  <course>0.93</course>
  <speed>0.31</speed>
  <fix>3d</fix>
</trkpt>
<trkpt lat="-27.2740692" lon="151.290068">
  <ele>350.32</ele>
  <time>2026-09-01T19:50:24Z</time>
  <course>357.62</course>
  <speed>0.34</speed>
  <fix>3d</fix>
</trkpt>
<trkpt lat="-27.2740682" lon="151.2900681">
  <ele>349.92</ele>
  <time>2026-09-01T19:50:24Z</time>
  <course>0.94</course>
  <speed>0.31</speed>
  <fix>3d</fix>
</trkpt>
<trkpt lat="-27.2740686" lon="151.290068">
  <ele>350.17</ele>
  <time>2026-09-01T19:50:24Z</time>
  <course>357.78</course>
  <speed>0.34</speed>
  <fix>3d</fix>
</trkpt>
<trkpt lat="-27.2740679" lon="151.2900681">
  <ele>349.85</ele>
  <time>2026-09-01T19:50:24Z</time>
  <course>0.95</course>
  <speed>0.3</speed>
  <fix>3d</fix>
</trkpt>
<trkpt lat="-27.2740686" lon="151.290068">
  <ele>350.17</ele>
  <time>2026-09-01T19:50:24Z</time>
  <course>357.78</course>
  <speed>0.34</speed>
  <fix>3d</fix>
</trkpt>
<trkpt lat="-27.2740676" lon="151.2900681">
  <ele>349.77</ele>
  <time>2026-09-01T19:50:24Z</time>
  <course>0.96</course>
  <speed>0.3</speed>
  <fix>3d</fix>
</trkpt>
<trkpt lat="-27.274068" lon="151.2900679">
  <ele>350.03</ele>
  <time>2026-09-01T19:50:24Z</time>
  <course>358.0</course>
  <speed>0.33</speed>
  <fix>3d</fix>
</trkpt>
<trkpt lat="-27.2740673" lon="151.2900681">
  <ele>349.7</ele>
  <time>2026-09-01T19:50:24Z</time>
  <course>0.97</course>
  <speed>0.3</speed>
  <fix>3d</fix>
</trkpt>
<trkpt lat="-27.274068" lon="151.2900679">
  <ele>350.03</ele>
  <time>2026-09-01T19:50:24Z</time>
  <course>358.0</course>
  <speed>0.33</speed>
  <fix>3d</fix>
</trkpt>
<trkpt lat="-27.274067" lon="151.2900681">
  <ele>349.63</ele>
  <time>2026-09-01T19:50:24Z</time>
  <course>0.98</course>
  <speed>0.3</speed>
  <fix>3d</fix>
</trkpt>
<trkpt lat="-27.2740674" lon="151.2900679">
  <ele>349.88</ele>
  <time>2026-09-01T19:50:24Z</time>
  <course>358.24</course>
  <speed>0.33</speed>
  <fix>3d</fix>
</trkpt>
<trkpt lat="-27.2740667" lon="151.2900681">
  <ele>349.56</ele>
  <time>2026-09-01T19:50:24Z</time>
  <course>0.99</course>
  <speed>0.3</speed>
  <fix>3d</fix>
</trkpt>
<trkpt lat="-27.2740674" lon="151.2900679">
  <ele>349.88</ele>
  <time>2026-09-01T19:50:24Z</time>
  <course>358.24</course>
  <speed>0.33</speed>
  <fix>3d</fix>
</trkpt>
<trkpt lat="-27.2740665" lon="151.2900681">
  <ele>349.49</ele>
  <time>2026-09-01T19:50:24Z</time>
  <course>1.0</course>
  <speed>0.3</speed>
  <fix>3d</fix>
</trkpt>
<trkpt lat="-27.2740668" lon="151.2900679">
  <ele>349.74</ele>
  <time>2026-09-01T19:50:24Z</time>
  <course>358.5</course>
  <speed>0.33</speed>
  <fix>3d</fix>
</trkpt>
<trkpt lat="-27.2740662" lon="151.2900681">
  <ele>349.42</ele>
  <time>2026-09-01T19:50:24Z</time>
  <course>1.01</course>
  <speed>0.30016662039607267</speed>
  <fix>3d</fix>
</trkpt>
<trkpt lat="-27.2740668" lon="151.2900679">
  <ele>349.74</ele>
  <time>2026-09-01T19:50:24Z</time>
  <course>358.5</course>
  <speed>0.33</speed>
  <fix>3d</fix>
</trkpt>
<trkpt lat="-27.2740659" lon="151.290068">
  <ele>349.35</ele>
  <time>2026-09-01T19:50:24Z</time>
  <course>1.01</course>
  <speed>0.30016662039607267</speed>
  <fix>3d</fix>
</trkpt>
<trkpt lat="-27.2740662" lon="151.2900679">
  <ele>349.61</ele>
  <time>2026-09-01T19:50:24Z</time>
  <course>358.76</course>
  <speed>0.33</speed>
  <fix>3d</fix>
</trkpt>
<trkpt lat="-27.2740656" lon="151.290068">
  <ele>349.29</ele>
  <time>2026-09-01T19:50:24Z</time>
  <course>1.02</course>
  <speed>0.30016662039607267</speed>
  <fix>3d</fix>
</trkpt>
<trkpt lat="-27.2740662" lon="151.2900679">
  <ele>349.61</ele>
  <time>2026-09-01T19:50:24Z</time>
  <course>358.76</course>
  <speed>0.33</speed>
  <fix>3d</fix>
</trkpt>
<trkpt lat="-27.2740653" lon="151.290068">
  <ele>349.23</ele>
  <time>2026-09-01T19:50:24Z</time>
  <course>1.03</course>
  <speed>0.30016662039607267</speed>
  <fix>3d</fix>
</trkpt>
<trkpt lat="-27.2740656" lon="151.2900679">
  <ele>349.48</ele>
  <time>2026-09-01T19:50:24Z</time>
  <course>359.02</course>
  <speed>0.33</speed>
  <fix>3d</fix>
</trkpt>
<trkpt lat="-27.274065" lon="151.290068">
  <ele>349.17</ele>
  <time>2026-09-01T19:50:24Z</time>
  <course>1.04</course>
  <speed>0.30016662039607267</speed>
  <fix>3d</fix>
</trkpt>
<trkpt lat="-27.2740656" lon="151.2900679">
  <ele>349.48</ele>
  <time>2026-09-01T19:50:24Z</time>
  <course>359.02</course>
  <speed>0.33</speed>
  <fix>3d</fix>
</trkpt>
<trkpt lat="-27.2740647" lon="151.290068">
  <ele>349.11</ele>
  <time>2026-09-01T19:50:24Z</time>
  <course>1.05</course>
  <speed>0.30016662039607267</speed>
  <fix>3d</fix>
</trkpt>
<trkpt lat="-27.274065" lon="151.2900679">
  <ele>349.36</ele>
  <time>2026-09-01T19:50:24Z</time>
  <course>359.26</course>
  <speed>0.33</speed>
  <fix>3d</fix>
</trkpt>
<trkpt lat="-27.2740644" lon="151.290068">
  <ele>349.06</ele>
  <time>2026-09-01T19:50:24Z</time>
  <course>1.05</course>
  <speed>0.30016662039607267</speed>
  <fix>3d</fix>
</trkpt>
<trkpt lat="-27.274065" lon="151.2900679">
  <ele>349.36</ele>
  <time>2026-09-01T19:50:24Z</time>
  <course>359.26</course>
  <speed>0.33</speed>
  <fix>3d</fix>
</trkpt>
<trkpt lat="-27.2740641" lon="151.290068">
  <ele>349.0</ele>
  <time>2026-09-01T19:50:24Z</time>
  <course>1.06</course>
  <speed>0.3101612483854165</speed>
  <fix>3d</fix>
</trkpt>
<trkpt lat="-27.2740644" lon="151.2900679">
  <ele>349.24</ele>
  <time>2026-09-01T19:50:24Z</time>
  <course>359.46</course>
  <speed>0.33</speed>
  <fix>3d</fix>
</trkpt>
<trkpt lat="-27.2740638" lon="151.2900681">
  <ele>348.95</ele>
  <time>2026-09-01T19:50:24Z</time>
  <course>1.07</course>
  <speed>0.3101612483854165</speed>
  <fix>3d</fix>
</trkpt>
<trkpt lat="-27.2740644" lon="151.2900679">
  <ele>349.24</ele>
  <time>2026-09-01T19:50:24Z</time>
  <course>359.46</course>
  <speed>0.33</speed>
  <fix>3d</fix>
</trkpt>
<trkpt lat="-27.2740635" lon="151.290068">
  <ele>348.89</ele>
  <time>2026-09-01T19:50:24Z</time>
  <course>1.08</course>
  <speed>0.3101612483854165</speed>
  <fix>3d</fix>
</trkpt>
<trkpt lat="-27.2740638" lon="151.2900679">
  <ele>349.12</ele>
  <time>2026-09-01T19:50:24Z</time>
  <course>359.64</course>
  <speed>0.33</speed>
  <fix>3d</fix>
</trkpt>
<trkpt lat="-27.2740632" lon="151.290068">
  <ele>348.84</ele>
  <time>2026-09-01T19:50:24Z</time>
  <course>1.08</course>
  <speed>0.3101612483854165</speed>
  <fix>3d</fix>
</trkpt>
<trkpt lat="-27.2740638" lon="151.2900679">
  <ele>349.12</ele>
  <time>2026-09-01T19:50:24Z</time>
  <course>359.64</course>
  <speed>0.33</speed>
  <fix>3d</fix>
</trkpt>
<trkpt lat="-27.2740629" lon="151.290068">
  <ele>348.79</ele>
  <time>2026-09-01T19:50:24Z</time>
  <course>1.09</course>
  <speed>0.3101612483854165</speed>
  <fix>3d</fix>
</trkpt>
<trkpt lat="-27.2740632" lon="151.2900679">
  <ele>349.02</ele>
  <time>2026-09-01T19:50:24Z</time>
  <course>359.81</course>
  <speed>0.33</speed>
  <fix>3d</fix>
</trkpt>
<trkpt lat="-27.2740626" lon="151.290068">
  <ele>348.74</ele>
  <time>2026-09-01T19:50:24Z</time>
  <course>1.1</course>
  <speed>0.3101612483854165</speed>
  <fix>3d</fix>
</trkpt>
<trkpt lat="-27.2740632" lon="151.2900679">
  <ele>349.02</ele>
  <time>2026-09-01T19:50:24Z</time>
  <course>359.81</course>
  <speed>0.33</speed>
  <fix>3d</fix>
</trkpt>
<trkpt lat="-27.2740622" lon="151.290068">
  <ele>348.69</ele>
  <time>2026-09-01T19:50:24Z</time>
  <course>1.1</course>
  <speed>0.32015621187164245</speed>
  <fix>3d</fix>
</trkpt>
<trkpt lat="-27.2740626" lon="151.2900679">
  <ele>348.91</ele>
  <time>2026-09-01T19:50:24Z</time>
  <course>359.97</course>
  <speed>0.34</speed>
  <fix>3d</fix>
</trkpt>
<trkpt lat="-27.2740619" lon="151.290068">
  <ele>348.64</ele>
  <time>2026-09-01T19:50:24Z</time>
  <course>1.1</course>
  <speed>0.32015621187164245</speed>
  <fix>3d</fix>
</trkpt>
<trkpt lat="-27.2740626" lon="151.2900679">
  <ele>348.91</ele>
  <time>2026-09-01T19:50:24Z</time>
  <course>359.97</course>
  <speed>0.34</speed>
  <fix>3d</fix>
</trkpt>
<trkpt lat="-27.2740616" lon="151.290068">
  <ele>348.6</ele>
  <time>2026-09-01T19:50:24Z</time>
  <course>1.11</course>
  <speed>0.32015621187164245</speed>
  <fix>3d</fix>
</trkpt>
<trkpt lat="-27.274062" lon="151.2900679">
  <ele>348.82</ele>
  <time>2026-09-01T19:50:24Z</time>
  <course>0.13</course>
  <speed>0.34</speed>
  <fix>3d</fix>
</trkpt>
<trkpt lat="-27.2740613" lon="151.290068">
  <ele>348.55</ele>
  <time>2026-09-01T19:50:24Z</time>
  <course>1.11</course>
  <speed>0.32062439083762795</speed>
  <fix>3d</fix>
</trkpt>
<trkpt lat="-27.274062" lon="151.2900679">
  <ele>348.82</ele>
  <time>2026-09-01T19:50:24Z</time>
  <course>0.13</course>
  <speed>0.34</speed>
  <fix>3d</fix>
</trkpt>
<trkpt lat="-27.274061" lon="151.290068">
  <ele>348.5</ele>
  <time>2026-09-01T19:50:24Z</time>
  <course>1.12</course>
  <speed>0.3306055050963308</speed>
  <fix>3d</fix>
</trkpt>
<trkpt lat="-27.2740614" lon="151.2900679">
  <ele>348.72</ele>
  <time>2026-09-01T19:50:24Z</time>
  <course>0.26</course>
  <speed>0.34</speed>
  <fix>3d</fix>
</trkpt>
<trkpt lat="-27.2740607" lon="151.290068">
  <ele>348.46</ele>
  <time>2026-09-01T19:50:24Z</time>
  <course>1.12</course>
  <speed>0.3306055050963308</speed>
  <fix>3d</fix>
</trkpt>
<trkpt lat="-27.2740614" lon="151.2900679">
  <ele>348.72</ele>
  <time>2026-09-01T19:50:24Z</time>
  <course>0.26</course>
  <speed>0.34</speed>
  <fix>3d</fix>
</trkpt>
<trkpt lat="-27.2740604" lon="151.290068">
  <ele>348.41</ele>
  <time>2026-09-01T19:50:24Z</time>
  <course>1.12</course>
  <speed>0.3306055050963308</speed>
  <fix>3d</fix>
</trkpt>
<trkpt lat="-27.2740607" lon="151.2900679">
  <ele>348.63</ele>
  <time>2026-09-01T19:50:24Z</time>
  <course>0.37</course>
  <speed>0.35</speed>
  <fix>3d</fix>
</trkpt>
<trkpt lat="-27.27406" lon="151.290068">
  <ele>348.36</ele>
  <time>2026-09-01T19:50:24Z</time>
  <course>1.13</course>
  <speed>0.34058772731852804</speed>
  <fix>3d</fix>
</trkpt>
<trkpt lat="-27.2740607" lon="151.2900679">
  <ele>348.63</ele>
  <time>2026-09-01T19:50:24Z</time>
  <course>0.37</course>
  <speed>0.35</speed>
  <fix>3d</fix>
</trkpt>
<trkpt lat="-27.2740597" lon="151.290068">
  <ele>348.32</ele>
  <time>2026-09-01T19:50:24Z</time>
  <course>1.13</course>
  <speed>0.34058772731852804</speed>
  <fix>3d</fix>
</trkpt>
<trkpt lat="-27.2740601" lon="151.2900679">
  <ele>348.53</ele>
  <time>2026-09-01T19:50:24Z</time>
  <course>0.48</course>
  <speed>0.36</speed>
  <fix>3d</fix>
</trkpt>
<trkpt lat="-27.2740594" lon="151.290068">
  <ele>348.27</ele>
  <time>2026-09-01T19:50:24Z</time>
  <course>1.13</course>
  <speed>0.3505709628591621</speed>
  <fix>3d</fix>
</trkpt>
<trkpt lat="-27.2740601" lon="151.2900679">
  <ele>348.53</ele>
  <time>2026-09-01T19:50:24Z</time>
  <course>0.48</course>
  <speed>0.36</speed>
  <fix>3d</fix>
</trkpt>
<trkpt lat="-27.274059" lon="151.290068">
  <ele>348.22</ele>
  <time>2026-09-01T19:50:24Z</time>
  <course>1.14</course>
  <speed>0.3505709628591621</speed>
  <fix>3d</fix>
</trkpt>
<trkpt lat="-27.2740594" lon="151.2900679">
  <ele>348.44</ele>
  <time>2026-09-01T19:50:24Z</time>
  <course>0.58</course>
  <speed>0.36</speed>
  <fix>3d</fix>
</trkpt>
<trkpt lat="-27.2740587" lon="151.290068">
  <ele>348.18</ele>
  <time>2026-09-01T19:50:24Z</time>
  <course>1.14</course>
  <speed>0.3505709628591621</speed>
  <fix>3d</fix>
</trkpt>
<trkpt lat="-27.2740594" lon="151.2900679">
  <ele>348.44</ele>
  <time>2026-09-01T19:50:24Z</time>
  <course>0.58</course>
  <speed>0.36</speed>
  <fix>3d</fix>
</trkpt>
<trkpt lat="-27.2740583" lon="151.290068">
  <ele>348.13</ele>
  <time>2026-09-01T19:50:24Z</time>
  <course>1.14</course>
  <speed>0.3605551275463989</speed>
  <fix>3d</fix>
</trkpt>
<trkpt lat="-27.2740587" lon="151.2900679">
  <ele>348.34</ele>
  <time>2026-09-01T19:50:24Z</time>
  <course>0.69</course>
  <speed>0.37</speed>
  <fix>3d</fix>
</trkpt>
<trkpt lat="-27.274058" lon="151.290068">
  <ele>348.08</ele>
  <time>2026-09-01T19:50:24Z</time>
  <course>1.15</course>
  <speed>0.3705401462729781</speed>
  <fix>3d</fix>
</trkpt>
<trkpt lat="-27.2740587" lon="151.2900679">
  <ele>348.34</ele>
  <time>2026-09-01T19:50:24Z</time>
  <course>0.69</course>
  <speed>0.37</speed>
  <fix>3d</fix>
</trkpt>
<trkpt lat="-27.2740576" lon="151.290068">
  <ele>348.04</ele>
  <time>2026-09-01T19:50:24Z</time>
  <course>1.15</course>
  <speed>0.3705401462729781</speed>
  <fix>3d</fix>
</trkpt>
<trkpt lat="-27.274058" lon="151.2900679">
  <ele>348.25</ele>
  <time>2026-09-01T19:50:24Z</time>
  <course>0.82</course>
  <speed>0.38</speed>
  <fix>3d</fix>
</trkpt>
<trkpt lat="-27.2740573" lon="151.290068">
  <ele>347.99</ele>
  <time>2026-09-01T19:50:24Z</time>
  <course>1.15</course>
  <speed>0.38052595180880894</speed>
  <fix>3d</fix>
</trkpt>
<trkpt lat="-27.274058" lon="151.2900679">
  <ele>348.25</ele>
  <time>2026-09-01T19:50:24Z</time>
  <course>0.82</course>
  <speed>0.38</speed>
  <fix>3d</fix>
</trkpt>
<trkpt lat="-27.2740569" lon="151.2900681">
  <ele>347.94</ele>
  <time>2026-09-01T19:50:24Z</time>
  <course>1.15</course>
  <speed>0.3905124837953327</speed>
  <fix>3d</fix>
</trkpt>
<trkpt lat="-27.2740573" lon="151.2900679">
  <ele>348.15</ele>
  <time>2026-09-01T19:50:24Z</time>
  <course>0.93</course>
  <speed>0.39</speed>
  <fix>3d</fix>
</trkpt>
<trkpt lat="-27.2740565" lon="151.2900681">
  <ele>347.89</ele>
  <time>2026-09-01T19:50:24Z</time>
  <course>1.15</course>
  <speed>0.3905124837953327</speed>
  <fix>3d</fix>
</trkpt>
<trkpt lat="-27.2740573" lon="151.2900679">
  <ele>348.15</ele>
  <time>2026-09-01T19:50:24Z</time>
  <course>0.93</course>
  <speed>0.39</speed>
  <fix>3d</fix>
</trkpt>
<trkpt lat="-27.2740561" lon="151.2900681">
  <ele>347.84</ele>
  <time>2026-09-01T19:50:24Z</time>
  <course>1.16</course>
  <speed>0.4004996878900158</speed>
  <fix>3d</fix>
</trkpt>
<trkpt lat="-27.2740566" lon="151.2900679">
  <ele>348.06</ele>
  <time>2026-09-01T19:50:24Z</time>
  <course>1.03</course>
  <speed>0.41</speed>
  <fix>3d</fix>
</trkpt>
<trkpt lat="-27.2740557" lon="151.2900681">
  <ele>347.79</ele>
  <time>2026-09-01T19:50:24Z</time>
  <course>1.16</course>
  <speed>0.41048751503547587</speed>
  <fix>3d</fix>
</trkpt>
<trkpt lat="-27.2740566" lon="151.2900679">
  <ele>348.06</ele>
  <time>2026-09-01T19:50:24Z</time>
  <course>1.03</course>
  <speed>0.41</speed>
  <fix>3d</fix>
</trkpt>
<trkpt lat="-27.2740553" lon="151.2900681">
  <ele>347.74</ele>
  <time>2026-09-01T19:50:24Z</time>
  <course>1.16</course>
  <speed>0.4204759208325728</speed>
  <fix>3d</fix>
</trkpt>
<trkpt lat="-27.2740559" lon="151.2900679">
  <ele>347.96</ele>
  <time>2026-09-01T19:50:24Z</time>
  <course>1.13</course>
  <speed>0.42</speed>
  <fix>3d</fix>
</trkpt>
<trkpt lat="-27.2740549" lon="151.2900681">
  <ele>347.69</ele>
  <time>2026-09-01T19:50:24Z</time>
  <course>1.17</course>
  <speed>0.4304648650006177</speed>
  <fix>3d</fix>
</trkpt>
<trkpt lat="-27.2740559" lon="151.2900679">
  <ele>347.96</ele>
  <time>2026-09-01T19:50:24Z</time>
  <course>1.13</course>
  <speed>0.42</speed>
  <fix>3d</fix>
</trkpt>
<trkpt lat="-27.2740545" lon="151.2900681">
  <ele>347.64</ele>
  <time>2026-09-01T19:50:24Z</time>
  <course>1.17</course>
  <speed>0.4304648650006177</speed>
  <fix>3d</fix>
</trkpt>
<trkpt lat="-27.2740551" lon="151.2900679">
  <ele>347.87</ele>
  <time>2026-09-01T19:50:24Z</time>
  <course>1.23</course>
  <speed>0.44</speed>
  <fix>3d</fix>
</trkpt>
<trkpt lat="-27.2740541" lon="151.2900681">
  <ele>347.59</ele>
  <time>2026-09-01T19:50:24Z</time>
  <course>1.17</course>
  <speed>0.44045431091090476</speed>
  <fix>3d</fix>
</trkpt>
<trkpt lat="-27.2740551" lon="151.2900679">
  <ele>347.87</ele>
  <time>2026-09-01T19:50:24Z</time>
  <course>1.23</course>
  <speed>0.44</speed>
  <fix>3d</fix>
</trkpt>
<trkpt lat="-27.2740537" lon="151.2900681">
  <ele>347.54</ele>
  <time>2026-09-01T19:50:24Z</time>
  <course>1.18</course>
  <speed>0.45044422518220834</speed>
  <fix>3d</fix>
</trkpt>
<trkpt lat="-27.2740542" lon="151.2900679">
  <ele>347.77</ele>
  <time>2026-09-01T19:50:24Z</time>
  <course>1.33</course>
  <speed>0.45</speed>
  <fix>3d</fix>
</trkpt>
<trkpt lat="-27.2740532" lon="151.2900681">
  <ele>347.49</ele>
  <time>2026-09-01T19:50:24Z</time>
  <course>1.18</course>
  <speed>0.4604345773288535</speed>
  <fix>3d</fix>
</trkpt>
<trkpt lat="-27.2740542" lon="151.2900679">
  <ele>347.77</ele>
  <time>2026-09-01T19:50:24Z</time>
  <course>1.33</course>
  <speed>0.45</speed>
  <fix>3d</fix>
</trkpt>
<trkpt lat="-27.2740528" lon="151.2900681">
  <ele>347.44</ele>
  <time>2026-09-01T19:50:24Z</time>
  <course>1.18</course>
  <speed>0.470425339453563</speed>
  <fix>3d</fix>
</trkpt>
<trkpt lat="-27.2740535" lon="151.2900679">
  <ele>347.66</ele>
  <time>2026-09-01T19:50:24Z</time>
  <course>1.43</course>
  <speed>0.47</speed>
  <fix>3d</fix>
</trkpt>
<trkpt lat="-27.2740523" lon="151.2900681">
  <ele>347.39</ele>
  <time>2026-09-01T19:50:24Z</time>
  <course>1.19</course>
  <speed>0.48041648597857256</speed>
  <fix>3d</fix>
</trkpt>
<trkpt lat="-27.2740535" lon="151.2900679">
  <ele>347.66</ele>
  <time>2026-09-01T19:50:24Z</time>
  <course>1.43</course>
  <speed>0.47</speed>
  <fix>3d</fix>
</trkpt>
<trkpt lat="-27.2740519" lon="151.2900681">
  <ele>347.34</ele>
  <time>2026-09-01T19:50:24Z</time>
  <course>1.19</course>
  <speed>0.4909175083453431</speed>
  <fix>3d</fix>
</trkpt>
<trkpt lat="-27.2740526" lon="151.2900679">
  <ele>347.57</ele>
  <time>2026-09-01T19:50:24Z</time>
  <course>1.52</course>
  <speed>0.49</speed>
  <fix>3d</fix>
</trkpt>
<trkpt lat="-27.2740514" lon="151.2900681">
  <ele>347.29</ele>
  <time>2026-09-01T19:50:24Z</time>
  <course>1.19</course>
  <speed>0.5008991914547277</speed>
  <fix>3d</fix>
</trkpt>
<trkpt lat="-27.2740526" lon="151.2900679">
  <ele>347.57</ele>
  <time>2026-09-01T19:50:24Z</time>
  <course>1.52</course>
  <speed>0.49</speed>
  <fix>3d</fix>
</trkpt>
<trkpt lat="-27.2740509" lon="151.2900681">
  <ele>347.24</ele>
  <time>2026-09-01T19:50:24Z</time>
  <course>1.2</course>
  <speed>0.5208646657242167</speed>
  <fix>3d</fix>
</trkpt>
<trkpt lat="-27.2740517" lon="151.2900679">
  <ele>347.47</ele>
  <time>2026-09-01T19:50:24Z</time>
  <course>1.61</course>
  <speed>0.51</speed>
  <fix>3d</fix>
</trkpt>
<trkpt lat="-27.2740505" lon="151.2900681">
  <ele>347.19</ele>
  <time>2026-09-01T19:50:24Z</time>
  <course>1.2</course>
  <speed>0.5308483775994799</speed>
  <fix>3d</fix>
</trkpt>
<trkpt lat="-27.2740517" lon="151.2900679">
  <ele>347.47</ele>
  <time>2026-09-01T19:50:24Z</time>
  <course>1.61</course>
  <speed>0.51</speed>
  <fix>3d</fix>
</trkpt>
<trkpt lat="-27.27405" lon="151.2900682">
  <ele>347.14</ele>
  <time>2026-09-01T19:50:24Z</time>
  <course>1.2</course>
  <speed>0.5408326913195984</speed>
  <fix>3d</fix>
</trkpt>
<trkpt lat="-27.2740507" lon="151.290068">
  <ele>347.37</ele>
  <time>2026-09-01T19:50:24Z</time>
  <course>1.69</course>
  <speed>0.53</speed>
  <fix>3d</fix>
</trkpt>
<trkpt lat="-27.2740494" lon="151.2900682">
  <ele>347.09</ele>
  <time>2026-09-01T19:50:24Z</time>
  <course>1.21</course>
  <speed>0.5508175741568164</speed>
  <fix>3d</fix>
</trkpt>
<trkpt lat="-27.2740507" lon="151.290068">
  <ele>347.37</ele>
  <time>2026-09-01T19:50:24Z</time>
  <course>1.69</course>
  <speed>0.53</speed>
  <fix>3d</fix>
</trkpt>
<trkpt lat="-27.2740489" lon="151.2900682">
  <ele>347.04</ele>
  <time>2026-09-01T19:50:24Z</time>
  <course>1.21</course>
  <speed>0.5608029957123981</speed>
  <fix>3d</fix>
</trkpt>
<trkpt lat="-27.2740498" lon="151.290068">
  <ele>347.27</ele>
  <time>2026-09-01T19:50:24Z</time>
  <course>1.72</course>
  <speed>0.56</speed>
  <fix>3d</fix>
</trkpt>
<trkpt lat="-27.2740484" lon="151.2900682">
  <ele>346.99</ele>
  <time>2026-09-01T19:50:24Z</time>
  <course>1.21</course>
  <speed>0.5707889277132134</speed>
  <fix>3d</fix>
</trkpt>
<trkpt lat="-27.2740498" lon="151.290068">
  <ele>347.27</ele>
  <time>2026-09-01T19:50:24Z</time>
  <course>1.72</course>
  <speed>0.56</speed>
  <fix>3d</fix>
</trkpt>
<trkpt lat="-27.2740479" lon="151.2900682">
  <ele>346.94</ele>
  <time>2026-09-01T19:50:24Z</time>
  <course>1.21</course>
  <speed>0.5907622195096772</speed>
  <fix>3d</fix>
</trkpt>
<trkpt lat="-27.2740487" lon="151.290068">
  <ele>347.16</ele>
  <time>2026-09-01T19:50:24Z</time>
  <course>1.72</course>
  <speed>0.58</speed>
  <fix>3d</fix>
</trkpt>
<trkpt lat="-27.2740473" lon="151.2900682">
  <ele>346.89</ele>
  <time>2026-09-01T19:50:24Z</time>
  <course>1.22</course>
  <speed>0.6007495318350236</speed>
  <fix>3d</fix>
</trkpt>
<trkpt lat="-27.2740487" lon="151.290068">
  <ele>347.16</ele>
  <time>2026-09-01T19:50:24Z</time>
  <course>1.72</course>
  <speed>0.58</speed>
  <fix>3d</fix>
</trkpt>
<trkpt lat="-27.2740467" lon="151.2900682">
  <ele>346.84</ele>
  <time>2026-09-01T19:50:24Z</time>
  <course>1.22</course>
  <speed>0.6107372593840988</speed>
  <fix>3d</fix>
</trkpt>
<trkpt lat="-27.2740476" lon="151.290068">
  <ele>347.07</ele>
  <time>2026-09-01T19:50:24Z</time>
  <course>1.71</course>
  <speed>0.61</speed>
  <fix>3d</fix>
</trkpt>
<trkpt lat="-27.2740462" lon="151.2900682">
  <ele>346.79</ele>
  <time>2026-09-01T19:50:24Z</time>
  <course>1.22</course>
  <speed>0.6307138812488592</speed>
  <fix>3d</fix>
</trkpt>
<trkpt lat="-27.2740476" lon="151.290068">
  <ele>347.07</ele>
  <time>2026-09-01T19:50:24Z</time>
  <course>1.71</course>
  <speed>0.61</speed>
  <fix>3d</fix>
</trkpt>
<trkpt lat="-27.2740456" lon="151.2900682">
  <ele>346.75</ele>
  <time>2026-09-01T19:50:24Z</time>
  <course>1.22</course>
  <speed>0.6407027391856539</speed>
  <fix>3d</fix>
</trkpt>
<trkpt lat="-27.2740465" lon="151.290068">
  <ele>346.97</ele>
  <time>2026-09-01T19:50:24Z</time>
  <course>1.69</course>
  <speed>0.63</speed>
  <fix>3d</fix>
</trkpt>
<trkpt lat="-27.274045" lon="151.2900683">
  <ele>346.7</ele>
  <time>2026-09-01T19:50:24Z</time>
  <course>1.22</course>
  <speed>0.6506919393998976</speed>
  <fix>3d</fix>
</trkpt>
<trkpt lat="-27.2740465" lon="151.290068">
  <ele>346.97</ele>
  <time>2026-09-01T19:50:24Z</time>
  <course>1.69</course>
  <speed>0.63</speed>
  <fix>3d</fix>
</trkpt>
<trkpt lat="-27.2740444" lon="151.2900683">
  <ele>346.65</ele>
  <time>2026-09-01T19:50:24Z</time>
  <course>1.22</course>
  <speed>0.6706713054842887</speed>
  <fix>3d</fix>
</trkpt>
<trkpt lat="-27.2740454" lon="151.2900681">
  <ele>346.87</ele>
  <time>2026-09-01T19:50:24Z</time>
  <course>1.64</course>
  <speed>0.66</speed>
  <fix>3d</fix>
</trkpt>
<trkpt lat="-27.2740437" lon="151.2900683">
  <ele>346.6</ele>
  <time>2026-09-01T19:50:24Z</time>
  <course>1.22</course>
  <speed>0.6806614430096655</speed>
  <fix>3d</fix>
</trkpt>
<trkpt lat="-27.2740454" lon="151.2900681">
  <ele>346.87</ele>
  <time>2026-09-01T19:50:24Z</time>
  <course>1.64</course>
  <speed>0.66</speed>
  <fix>3d</fix>
</trkpt>
<trkpt lat="-27.2740431" lon="151.2900683">
  <ele>346.55</ele>
  <time>2026-09-01T19:50:24Z</time>
  <course>1.23</course>
  <speed>0.7006425622241343</speed>
  <fix>3d</fix>
</trkpt>
<trkpt lat="-27.2740441" lon="151.2900681">
  <ele>346.77</ele>
  <time>2026-09-01T19:50:24Z</time>
  <course>1.6</course>
  <speed>0.69</speed>
  <fix>3d</fix>
</trkpt>
<trkpt lat="-27.2740424" lon="151.2900683">
  <ele>346.5</ele>
  <time>2026-09-01T19:50:24Z</time>
  <course>1.23</course>
  <speed>0.7106335201775947</speed>
  <fix>3d</fix>
</trkpt>
<trkpt lat="-27.2740441" lon="151.2900681">
  <ele>346.77</ele>
  <time>2026-09-01T19:50:24Z</time>
  <course>1.6</course>
  <speed>0.69</speed>
  <fix>3d</fix>
</trkpt>
<trkpt lat="-27.2740418" lon="151.2900683">
  <ele>346.45</ele>
  <time>2026-09-01T19:50:24Z</time>
  <course>1.23</course>
  <speed>0.7306161783043131</speed>
  <fix>3d</fix>
</trkpt>
<trkpt lat="-27.2740428" lon="151.2900682">
  <ele>346.66</ele>
  <time>2026-09-01T19:50:24Z</time>
  <course>1.56</course>
  <speed>0.72</speed>
  <fix>3d</fix>
</trkpt>
<trkpt lat="-27.2740411" lon="151.2900683">
  <ele>346.4</ele>
  <time>2026-09-01T19:50:24Z</time>
  <course>1.23</course>
  <speed>0.740607858451421</speed>
  <fix>3d</fix>
</trkpt>
<trkpt lat="-27.2740428" lon="151.2900682">
  <ele>346.66</ele>
  <time>2026-09-01T19:50:24Z</time>
  <course>1.56</course>
  <speed>0.72</speed>
  <fix>3d</fix>
</trkpt>
<trkpt lat="-27.2740404" lon="151.2900684">
  <ele>346.35</ele>
  <time>2026-09-01T19:50:24Z</time>
  <course>1.23</course>
  <speed>0.7605918747922567</speed>
  <fix>3d</fix>
</trkpt>
<trkpt lat="-27.2740415" lon="151.2900683">
  <ele>346.57</ele>
  <time>2026-09-01T19:50:24Z</time>
  <course>1.49</course>
  <speed>0.75</speed>
  <fix>3d</fix>
</trkpt>
<trkpt lat="-27.2740397" lon="151.2900684">
  <ele>346.3</ele>
  <time>2026-09-01T19:50:24Z</time>
  <course>1.23</course>
  <speed>0.7705841939723393</speed>
  <fix>3d</fix>
</trkpt>
<trkpt lat="-27.2740415" lon="151.2900683">
  <ele>346.57</ele>
  <time>2026-09-01T19:50:24Z</time>
  <course>1.49</course>
  <speed>0.75</speed>
  <fix>3d</fix>
</trkpt>
<trkpt lat="-27.274039" lon="151.2900684">
  <ele>346.25</ele>
  <time>2026-09-01T19:50:24Z</time>
  <course>1.23</course>
  <speed>0.7905694150420949</speed>
  <fix>3d</fix>
</trkpt>
<trkpt lat="-27.2740402" lon="151.2900683">
  <ele>346.47</ele>
  <time>2026-09-01T19:50:24Z</time>
  <course>1.42</course>
  <speed>0.78</speed>
  <fix>3d</fix>
</trkpt>
<trkpt lat="-27.2740382" lon="151.2900684">
  <ele>346.2</ele>
  <time>2026-09-01T19:50:24Z</time>
  <course>1.23</course>
  <speed>0.8005623023850174</speed>
  <fix>3d</fix>
</trkpt>
<trkpt lat="-27.2740402" lon="151.2900683">
  <ele>346.47</ele>
  <time>2026-09-01T19:50:24Z</time>
  <course>1.42</course>
  <speed>0.78</speed>
  <fix>3d</fix>
</trkpt>
<trkpt lat="-27.2740375" lon="151.2900684">
  <ele>346.15</ele>
  <time>2026-09-01T19:50:24Z</time>
  <course>1.23</course>
  <speed>0.8205485969764374</speed>
  <fix>3d</fix>
</trkpt>
<trkpt lat="-27.2740387" lon="151.2900683">
  <ele>346.37</ele>
  <time>2026-09-01T19:50:24Z</time>
  <course>1.37</course>
  <speed>0.81</speed>
  <fix>3d</fix>
</trkpt>
<trkpt lat="-27.2740367" lon="151.2900685">
  <ele>346.1</ele>
  <time>2026-09-01T19:50:24Z</time>
  <course>1.23</course>
  <speed>0.840535543567314</speed>
  <fix>3d</fix>
</trkpt>
<trkpt lat="-27.2740387" lon="151.2900683">
  <ele>346.37</ele>
  <time>2026-09-01T19:50:24Z</time>
  <course>1.37</course>
  <speed>0.81</speed>
  <fix>3d</fix>
</trkpt>
<trkpt lat="-27.2740359" lon="151.2900685">
  <ele>346.05</ele>
  <time>2026-09-01T19:50:24Z</time>
  <course>1.23</course>
  <speed>0.8605230967266364</speed>
  <fix>3d</fix>
</trkpt>
<trkpt lat="-27.2740372" lon="151.2900684">
  <ele>346.27</ele>
  <time>2026-09-01T19:50:24Z</time>
  <course>1.31</course>
  <speed>0.84</speed>
  <fix>3d</fix>
</trkpt>
<trkpt lat="-27.2740351" lon="151.2900685">
  <ele>346.0</ele>
  <time>2026-09-01T19:50:24Z</time>
  <course>1.23</course>
  <speed>0.8705170877128146</speed>
  <fix>3d</fix>
</trkpt>
<trkpt lat="-27.2740372" lon="151.2900684">
  <ele>346.27</ele>
  <time>2026-09-01T19:50:24Z</time>
  <course>1.31</course>
  <speed>0.84</speed>
  <fix>3d</fix>
</trkpt>
<trkpt lat="-27.2740343" lon="151.2900685">
  <ele>345.95</ele>
  <time>2026-09-01T19:50:24Z</time>
  <course>1.23</course>
  <speed>0.8905054744357274</speed>
  <fix>3d</fix>
</trkpt>
<trkpt lat="-27.2740357" lon="151.2900684">
  <ele>346.16</ele>
  <time>2026-09-01T19:50:24Z</time>
  <course>1.24</course>
  <speed>0.88</speed>
  <fix>3d</fix>
</trkpt>
<trkpt lat="-27.2740335" lon="151.2900685">
  <ele>345.9</ele>
  <time>2026-09-01T19:50:24Z</time>
  <course>1.23</course>
  <speed>0.910494371207203</speed>
  <fix>3d</fix>
</trkpt>
<trkpt lat="-27.2740357" lon="151.2900684">
  <ele>346.16</ele>
  <time>2026-09-01T19:50:24Z</time>
  <course>1.24</course>
  <speed>0.88</speed>
  <fix>3d</fix>
</trkpt>
<trkpt lat="-27.2740326" lon="151.2900686">
  <ele>345.85</ele>
  <time>2026-09-01T19:50:24Z</time>
  <course>1.24</course>
  <speed>0.9204890004774636</speed>
  <fix>3d</fix>
</trkpt>
<trkpt lat="-27.2740341" lon="151.2900685">
  <ele>346.07</ele>
  <time>2026-09-01T19:50:24Z</time>
  <course>1.17</course>
  <speed>0.91</speed>
  <fix>3d</fix>
</trkpt>
<trkpt lat="-27.2740318" lon="151.2900686">
  <ele>345.8</ele>
  <time>2026-09-01T19:50:24Z</time>
  <course>1.23</course>
  <speed>0.9404786015641186</speed>
  <fix>3d</fix>
</trkpt>
<trkpt lat="-27.2740341" lon="151.2900685">
  <ele>346.07</ele>
  <time>2026-09-01T19:50:24Z</time>
  <course>1.17</course>
  <speed>0.91</speed>
  <fix>3d</fix>
</trkpt>
<trkpt lat="-27.2740309" lon="151.2900686">
  <ele>345.75</ele>
  <time>2026-09-01T19:50:24Z</time>
  <course>1.23</course>
  <speed>0.9604686356149272</speed>
  <fix>3d</fix>
</trkpt>
<trkpt lat="-27.2740324" lon="151.2900685">
  <ele>345.97</ele>
  <time>2026-09-01T19:50:24Z</time>
  <course>1.08</course>
  <speed>0.95</speed>
  <fix>3d</fix>
</trkpt>
<trkpt lat="-27.27403" lon="151.2900686">
  <ele>345.7</ele>
  <time>2026-09-01T19:50:24Z</time>
  <course>1.23</course>
  <speed>0.9804590761474953</speed>
  <fix>3d</fix>
</trkpt>
<trkpt lat="-27.2740324" lon="151.2900685">
  <ele>345.97</ele>
  <time>2026-09-01T19:50:24Z</time>
  <course>1.08</course>
  <speed>0.95</speed>
  <fix>3d</fix>
</trkpt>
<trkpt lat="-27.2740291" lon="151.2900686">
  <ele>345.65</ele>
  <time>2026-09-01T19:50:24Z</time>
  <course>1.23</course>
  <speed>1.0004498987955368</speed>
  <fix>3d</fix>
</trkpt>
<trkpt lat="-27.2740306" lon="151.2900685">
  <ele>345.87</ele>
  <time>2026-09-01T19:50:24Z</time>
  <course>0.98</course>
  <speed>0.98</speed>
  <fix>3d</fix>
</trkpt>
<trkpt lat="-27.2740282" lon="151.2900687">
  <ele>345.6</ele>
  <time>2026-09-01T19:50:24Z</time>
  <course>1.23</course>
  <speed>1.0204410811016968</speed>
  <fix>3d</fix>
</trkpt>
<trkpt lat="-27.2740306" lon="151.2900685">
  <ele>345.87</ele>
  <time>2026-09-01T19:50:24Z</time>
  <course>0.98</course>
  <speed>0.98</speed>
  <fix>3d</fix>
</trkpt>
<trkpt lat="-27.2740272" lon="151.2900687">
  <ele>345.55</ele>
  <time>2026-09-01T19:50:24Z</time>
  <course>1.22</course>
  <speed>1.030194156457898</speed>
  <fix>3d</fix>
</trkpt>
<trkpt lat="-27.2740288" lon="151.2900685">
  <ele>345.77</ele>
  <time>2026-09-01T19:50:24Z</time>
  <course>0.86</course>
  <speed>1.02</speed>
  <fix>3d</fix>
</trkpt>
<trkpt lat="-27.2740263" lon="151.2900687">
  <ele>345.51</ele>
  <time>2026-09-01T19:50:24Z</time>
  <course>1.22</course>
  <speed>1.0401922899156675</speed>
  <fix>3d</fix>
</trkpt>
<trkpt lat="-27.2740288" lon="151.2900685">
  <ele>345.77</ele>
  <time>2026-09-01T19:50:24Z</time>
  <course>0.86</course>
  <speed>1.02</speed>
  <fix>3d</fix>
</trkpt>
<trkpt lat="-27.2740253" lon="151.2900687">
  <ele>345.46</ele>
  <time>2026-09-01T19:50:24Z</time>
  <course>1.22</course>
  <speed>1.0401922899156675</speed>
  <fix>3d</fix>
</trkpt>
<trkpt lat="-27.2740269" lon="151.2900685">
  <ele>345.66</ele>
  <time>2026-09-01T19:50:24Z</time>
  <course>0.75</course>
  <speed>1.05</speed>
  <fix>3d</fix>
</trkpt>
<trkpt lat="-27.2740243" lon="151.2900687">
  <ele>345.41</ele>
  <time>2026-09-01T19:50:24Z</time>
  <course>1.21</course>
  <speed>1.0401922899156675</speed>
  <fix>3d</fix>
</trkpt>
<trkpt lat="-27.2740269" lon="151.2900685">
  <ele>345.66</ele>
  <time>2026-09-01T19:50:24Z</time>
  <course>0.75</course>
  <speed>1.05</speed>
  <fix>3d</fix>
</trkpt>
<trkpt lat="-27.2740234" lon="151.2900687">
  <ele>345.37</ele>
  <time>2026-09-01T19:50:24Z</time>
  <course>1.21</course>
  <speed>1.030194156457898</speed>
  <fix>3d</fix>
</trkpt>
<trkpt lat="-27.274025" lon="151.2900685">
  <ele>345.57</ele>
  <time>2026-09-01T19:50:24Z</time>
  <course>0.66</course>
  <speed>1.06</speed>
  <fix>3d</fix>
</trkpt>
<trkpt lat="-27.2740224" lon="151.2900687">
  <ele>345.32</ele>
  <time>2026-09-01T19:50:24Z</time>
  <course>1.21</course>
  <speed>1.020196059588548</speed>
  <fix>3d</fix>
</trkpt>
<trkpt lat="-27.274025" lon="151.2900685">
  <ele>345.57</ele>
  <time>2026-09-01T19:50:24Z</time>
  <course>0.66</course>
  <speed>1.06</speed>
  <fix>3d</fix>
</trkpt>
<trkpt lat="-27.2740215" lon="151.2900687">
  <ele>345.28</ele>
  <time>2026-09-01T19:50:24Z</time>
  <course>1.2</course>
  <speed>1.000199980003999</speed>
  <fix>3d</fix>
</trkpt>
<trkpt lat="-27.2740231" lon="151.2900686">
  <ele>345.48</ele>
  <time>2026-09-01T19:50:24Z</time>
  <course>0.59</course>
  <speed>1.05</speed>
  <fix>3d</fix>
</trkpt>
<trkpt lat="-27.2740206" lon="151.2900687">
  <ele>345.24</ele>
  <time>2026-09-01T19:50:24Z</time>
  <course>1.2</course>
  <speed>0.9802040603874276</speed>
  <fix>3d</fix>
</trkpt>
<trkpt lat="-27.2740231" lon="151.2900686">
  <ele>345.48</ele>
  <time>2026-09-01T19:50:24Z</time>
  <course>0.59</course>
  <speed>1.05</speed>
  <fix>3d</fix>
</trkpt>
<trkpt lat="-27.2740197" lon="151.2900687">
  <ele>345.2</ele>
  <time>2026-09-01T19:50:24Z</time>
  <course>1.2</course>
  <speed>0.9502105029939419</speed>
  <fix>3d</fix>
</trkpt>
<trkpt lat="-27.2740213" lon="151.2900687">
  <ele>345.4</ele>
  <time>2026-09-01T19:50:24Z</time>
  <course>0.52</course>
  <speed>1.02</speed>
  <fix>3d</fix>
</trkpt>
<trkpt lat="-27.2740188" lon="151.2900687">
  <ele>345.16</ele>
  <time>2026-09-01T19:50:24Z</time>
  <course>1.2</course>
  <speed>0.9202173656261873</speed>
  <fix>3d</fix>
</trkpt>
<trkpt lat="-27.2740213" lon="151.2900687">
  <ele>345.4</ele>
  <time>2026-09-01T19:50:24Z</time>
  <course>0.52</course>
  <speed>1.02</speed>
  <fix>3d</fix>
</trkpt>
<trkpt lat="-27.274018" lon="151.2900687">
  <ele>345.12</ele>
  <time>2026-09-01T19:50:24Z</time>
  <course>1.2</course>
  <speed>0.8902246907382428</speed>
  <fix>3d</fix>
</trkpt>
<trkpt lat="-27.2740195" lon="151.2900687">
  <ele>345.31</ele>
  <time>2026-09-01T19:50:24Z</time>
  <course>0.46</course>
  <speed>0.97</speed>
  <fix>3d</fix>
</trkpt>
<trkpt lat="-27.2740172" lon="151.2900688">
  <ele>345.07</ele>
  <time>2026-09-01T19:50:25Z</time>
  <course>1.2</course>
  <speed>0.8602325267042628</speed>
  <fix>3d</fix>
</trkpt>
<trkpt lat="-27.2740195" lon="151.2900687">
  <ele>345.31</ele>
  <time>2026-09-01T19:50:25Z</time>
  <course>0.46</course>
  <speed>0.97</speed>
  <fix>3d</fix>
</trkpt>
<trkpt lat="-27.2740164" lon="151.2900688">
  <ele>345.03</ele>
  <time>2026-09-01T19:50:25Z</time>
  <course>1.2</course>
  <speed>0.8202438661763951</speed>
  <fix>3d</fix>
</trkpt>
<trkpt lat="-27.2740177" lon="151.2900687">
  <ele>345.22</ele>
  <time>2026-09-01T19:50:25Z</time>
  <course>0.39</course>
  <speed>0.91</speed>
  <fix>3d</fix>
</trkpt>
<trkpt lat="-27.2740157" lon="151.2900688">
  <ele>344.98</ele>
  <time>2026-09-01T19:50:25Z</time>
  <course>1.2</course>
  <speed>0.7800640999302557</speed>
  <fix>3d</fix>
</trkpt>
<trkpt lat="-27.2740177" lon="151.2900687">
  <ele>345.22</ele>
  <time>2026-09-01T19:50:25Z</time>
  <course>0.39</course>
  <speed>0.91</speed>
  <fix>3d</fix>
</trkpt>
<trkpt lat="-27.274015" lon="151.2900688">
  <ele>344.94</ele>
  <time>2026-09-01T19:50:25Z</time>
  <course>1.2</course>
  <speed>0.7400675644831355</speed>
  <fix>3d</fix>
</trkpt>
<trkpt lat="-27.2740162" lon="151.2900687">
  <ele>345.14</ele>
  <time>2026-09-01T19:50:25Z</time>
  <course>0.31</course>
  <speed>0.84</speed>
  <fix>3d</fix>
</trkpt>
<trkpt lat="-27.2740143" lon="151.2900688">
  <ele>344.89</ele>
  <time>2026-09-01T19:50:25Z</time>
  <course>1.2</course>
  <speed>0.7000714249274855</speed>
  <fix>3d</fix>
</trkpt>
<trkpt lat="-27.2740162" lon="151.2900687">
  <ele>345.14</ele>
  <time>2026-09-01T19:50:25Z</time>
  <course>0.31</course>
  <speed>0.84</speed>
  <fix>3d</fix>
</trkpt>
<trkpt lat="-27.2740137" lon="151.2900688">
  <ele>344.84</ele>
  <time>2026-09-01T19:50:25Z</time>
  <course>1.2</course>
  <speed>0.66007575322837</speed>
  <fix>3d</fix>
</trkpt>
<trkpt lat="-27.2740147" lon="151.2900687">
  <ele>345.05</ele>
  <time>2026-09-01T19:50:25Z</time>
  <course>0.2</course>
  <speed>0.76</speed>
  <fix>3d</fix>
</trkpt>
<trkpt lat="-27.2740131" lon="151.2900688">
  <ele>344.79</ele>
  <time>2026-09-01T19:50:25Z</time>
  <course>1.21</course>
  <speed>0.6100819617067857</speed>
  <fix>3d</fix>
</trkpt>
<trkpt lat="-27.2740147" lon="151.2900687">
  <ele>345.05</ele>
  <time>2026-09-01T19:50:25Z</time>
  <course>0.2</course>
  <speed>0.76</speed>
  <fix>3d</fix>
</trkpt>
<trkpt lat="-27.2740125" lon="151.2900688">
  <ele>344.73</ele>
  <time>2026-09-01T19:50:25Z</time>
  <course>1.21</course>
  <speed>0.570087712549569</speed>
  <fix>3d</fix>
</trkpt>
<trkpt lat="-27.2740134" lon="151.2900687">
  <ele>344.95</ele>
  <time>2026-09-01T19:50:25Z</time>
  <course>0.06</course>
  <speed>0.68</speed>
  <fix>3d</fix>
</trkpt>
<trkpt lat="-27.274012" lon="151.2900688">
  <ele>344.68</ele>
  <time>2026-09-01T19:50:25Z</time>
  <course>1.22</course>
  <speed>0.5300943312279428</speed>
  <fix>3d</fix>
</trkpt>
<trkpt lat="-27.2740134" lon="151.2900687">
  <ele>344.95</ele>
  <time>2026-09-01T19:50:25Z</time>
  <course>0.06</course>
  <speed>0.68</speed>
  <fix>3d</fix>
</trkpt>
<trkpt lat="-27.2740115" lon="151.2900688">
  <ele>344.62</ele>
  <time>2026-09-01T19:50:25Z</time>
  <course>1.22</course>
  <speed>0.4801041553663121</speed>
  <fix>3d</fix>
</trkpt>
<trkpt lat="-27.2740123" lon="151.2900687">
  <ele>344.84</ele>
  <time>2026-09-01T19:50:25Z</time>
  <course>359.86</course>
  <speed>0.59</speed>
  <fix>3d</fix>
</trkpt>
<trkpt lat="-27.2740111" lon="151.2900688">
  <ele>344.57</ele>
  <time>2026-09-01T19:50:25Z</time>
  <course>1.23</course>
  <speed>0.4301162633521314</speed>
  <fix>3d</fix>
</trkpt>
<trkpt lat="-27.2740123" lon="151.2900687">
  <ele>344.84</ele>
  <time>2026-09-01T19:50:25Z</time>
  <course>359.86</course>
  <speed>0.59</speed>
  <fix>3d</fix>
</trkpt>
<trkpt lat="-27.2740107" lon="151.2900688">
  <ele>344.51</ele>
  <time>2026-09-01T19:50:25Z</time>
  <course>1.23</course>
  <speed>0.39</speed>
  <fix>3d</fix>
</trkpt>
<trkpt lat="-27.2740113" lon="151.2900687">
  <ele>344.73</ele>
  <time>2026-09-01T19:50:25Z</time>
  <course>359.58</course>
  <speed>0.5</speed>
  <fix>3d</fix>
</trkpt>
<trkpt lat="-27.2740104" lon="151.2900688">
  <ele>344.45</ele>
  <time>2026-09-01T19:50:25Z</time>
  <course>1.24</course>
  <speed>0.34</speed>
  <fix>3d</fix>
</trkpt>
<trkpt lat="-27.2740113" lon="151.2900687">
  <ele>344.73</ele>
  <time>2026-09-01T19:50:25Z</time>
  <course>359.58</course>
  <speed>0.5</speed>
  <fix>3d</fix>
</trkpt>
<trkpt lat="-27.27401" lon="151.2900688">
  <ele>344.39</ele>
  <time>2026-09-01T19:50:25Z</time>
  <course>1.25</course>
  <speed>0.29</speed>
  <fix>3d</fix>
</trkpt>
<trkpt lat="-27.2740104" lon="151.2900687">
  <ele>344.62</ele>
  <time>2026-09-01T19:50:25Z</time>
  <course>359.18</course>
  <speed>0.41</speed>
  <fix>3d</fix>
</trkpt>
<trkpt lat="-27.2740098" lon="151.2900688">
  <ele>344.33</ele>
  <time>2026-09-01T19:50:25Z</time>
  <course>1.25</course>
  <speed>0.24</speed>
  <fix>3d</fix>
</trkpt>
<trkpt lat="-27.2740104" lon="151.2900687">
  <ele>344.62</ele>
  <time>2026-09-01T19:50:25Z</time>
  <course>359.18</course>
  <speed>0.41</speed>
  <fix>3d</fix>
</trkpt>
<trkpt lat="-27.2740096" lon="151.2900688">
  <ele>344.27</ele>
  <time>2026-09-01T19:50:25Z</time>
  <course>1.26</course>
  <speed>0.19</speed>
  <fix>3d</fix>
</trkpt>
<trkpt lat="-27.2740098" lon="151.2900687">
  <ele>344.5</ele>
  <time>2026-09-01T19:50:25Z</time>
  <course>358.54</course>
  <speed>0.31</speed>
  <fix>3d</fix>
</trkpt>
<trkpt lat="-27.2740094" lon="151.2900688">
  <ele>344.21</ele>
  <time>2026-09-01T19:50:25Z</time>
  <course>1.27</course>
  <speed>0.14</speed>
  <fix>3d</fix>
</trkpt>
<trkpt lat="-27.2740098" lon="151.2900687">
  <ele>344.5</ele>
  <time>2026-09-01T19:50:25Z</time>
  <course>358.54</course>
  <speed>0.31</speed>
  <fix>3d</fix>
</trkpt>
<trkpt lat="-27.2740093" lon="151.2900688">
  <ele>344.15</ele>
  <time>2026-09-01T19:50:25Z</time>
  <course>1.28</course>
  <speed>0.09</speed>
  <fix>3d</fix>
</trkpt>
<trkpt lat="-27.2740092" lon="151.2900687">
  <ele>344.38</ele>
  <time>2026-09-01T19:50:25Z</time>
  <course>357.3</course>
  <speed>0.21</speed>
  <fix>3d</fix>
</trkpt>
<trkpt lat="-27.2740092" lon="151.2900688">
  <ele>344.09</ele>
  <time>2026-09-01T19:50:25Z</time>
  <course>1.29</course>
  <speed>0.04</speed>
  <fix>3d</fix>
</trkpt>
<trkpt lat="-27.2740092" lon="151.2900687">
  <ele>344.38</ele>
  <time>2026-09-01T19:50:25Z</time>
  <course>357.3</course>
  <speed>0.21</speed>
  <fix>3d</fix>
</trkpt>
<trkpt lat="-27.2740091" lon="151.2900688">
  <ele>344.03</ele>
  <time>2026-09-01T19:50:25Z</time>
  <course>1.3</course>
  <speed>0.01</speed>
  <fix>3d</fix>
</trkpt>
<trkpt lat="-27.274009" lon="151.2900687">
  <ele>344.26</ele>
  <time>2026-09-01T19:50:25Z</time>
  <course>353.86</course>
  <speed>0.11</speed>
  <fix>3d</fix>
</trkpt>
<trkpt lat="-27.2740091" lon="151.2900688">
  <ele>343.97</ele>
  <time>2026-09-01T19:50:25Z</time>
  <course>1.31</course>
  <speed>0.06</speed>
  <fix>3d</fix>
</trkpt>
<trkpt lat="-27.274009" lon="151.2900687">
  <ele>344.26</ele>
  <time>2026-09-01T19:50:25Z</time>
  <course>353.86</course>
  <speed>0.11</speed>
  <fix>3d</fix>
</trkpt>
<trkpt lat="-27.2740092" lon="151.2900688">
  <ele>343.91</ele>
  <time>2026-09-01T19:50:25Z</time>
  <course>1.32</course>
  <speed>0.11</speed>
  <fix>3d</fix>
</trkpt>
<trkpt lat="-27.2740089" lon="151.2900687">
  <ele>344.14</ele>
  <time>2026-09-01T19:50:25Z</time>
  <course>307.3</course>
  <speed>0.01</speed>
  <fix>3d</fix>
</trkpt>
<trkpt lat="-27.2740092" lon="151.2900688">
  <ele>343.85</ele>
  <time>2026-09-01T19:50:25Z</time>
  <course>1.33</course>
  <speed>0.17</speed>
  <fix>3d</fix>
</trkpt>
<trkpt lat="-27.2740089" lon="151.2900687">
  <ele>344.14</ele>
  <time>2026-09-01T19:50:25Z</time>
  <course>307.3</course>
  <speed>0.01</speed>
  <fix>3d</fix>
</trkpt>
<trkpt lat="-27.2740094" lon="151.2900688">
  <ele>343.79</ele>
  <time>2026-09-01T19:50:25Z</time>
  <course>1.34</course>
  <speed>0.22</speed>
  <fix>3d</fix>
</trkpt>
<trkpt lat="-27.2740089" lon="151.2900687">
  <ele>344.02</ele>
  <time>2026-09-01T19:50:25Z</time>
  <course>190.12</course>
  <speed>0.09</speed>
  <fix>3d</fix>
</trkpt>
<trkpt lat="-27.2740096" lon="151.2900688">
  <ele>343.73</ele>
  <time>2026-09-01T19:50:25Z</time>
  <course>1.35</course>
  <speed>0.27</speed>
  <fix>3d</fix>
</trkpt>
<trkpt lat="-27.2740089" lon="151.2900687">
  <ele>344.02</ele>
  <time>2026-09-01T19:50:25Z</time>
  <course>190.12</course>
  <speed>0.09</speed>
  <fix>3d</fix>
</trkpt>
<trkpt lat="-27.2740098" lon="151.2900687">
  <ele>343.67</ele>
  <time>2026-09-01T19:50:25Z</time>
  <course>1.36</course>
  <speed>0.33</speed>
  <fix>3d</fix>
</trkpt>
<trkpt lat="-27.2740091" lon="151.2900686">
  <ele>343.9</ele>
  <time>2026-09-01T19:50:25Z</time>
  <course>185.48</course>
  <speed>0.2</speed>
  <fix>3d</fix>
</trkpt>
<trkpt lat="-27.2740101" lon="151.2900687">
  <ele>343.62</ele>
  <time>2026-09-01T19:50:25Z</time>
  <course>1.37</course>
  <speed>0.38</speed>
  <fix>3d</fix>
</trkpt>
<trkpt lat="-27.2740091" lon="151.2900686">
  <ele>343.9</ele>
  <time>2026-09-01T19:50:25Z</time>
  <course>185.48</course>
  <speed>0.2</speed>
  <fix>3d</fix>
</trkpt>
<trkpt lat="-27.2740105" lon="151.2900687">
  <ele>343.56</ele>
  <time>2026-09-01T19:50:25Z</time>
  <course>1.38</course>
  <speed>0.43</speed>
  <fix>3d</fix>
</trkpt>
<trkpt lat="-27.2740096" lon="151.2900685">
  <ele>343.78</ele>
  <time>2026-09-01T19:50:25Z</time>
  <course>184.06</course>
  <speed>0.31</speed>
  <fix>3d</fix>
</trkpt>
<trkpt lat="-27.2740109" lon="151.2900687">
  <ele>343.51</ele>
  <time>2026-09-01T19:50:25Z</time>
  <course>1.39</course>
  <speed>0.48</speed>
  <fix>3d</fix>
</trkpt>
<trkpt lat="-27.2740096" lon="151.2900685">
  <ele>343.78</ele>
  <time>2026-09-01T19:50:25Z</time>
  <course>184.06</course>
  <speed>0.31</speed>
  <fix>3d</fix>
</trkpt>
<trkpt lat="-27.2740113" lon="151.2900686">
  <ele>343.45</ele>
  <time>2026-09-01T19:50:25Z</time>
  <course>1.4</course>
  <speed>0.52</speed>
  <fix>3d</fix>
</trkpt>
<trkpt lat="-27.2740102" lon="151.2900685">
  <ele>343.67</ele>
  <time>2026-09-01T19:50:25Z</time>
  <course>183.4</course>
  <speed>0.41</speed>
  <fix>3d</fix>
</trkpt>
<trkpt lat="-27.2740117" lon="151.2900686">
  <ele>343.4</ele>
  <time>2026-09-01T19:50:25Z</time>
  <course>1.41</course>
  <speed>0.57</speed>
  <fix>3d</fix>
</trkpt>
<trkpt lat="-27.2740102" lon="151.2900685">
  <ele>343.67</ele>
  <time>2026-09-01T19:50:25Z</time>
  <course>183.4</course>
  <speed>0.41</speed>
  <fix>3d</fix>
</trkpt>
<trkpt lat="-27.2740122" lon="151.2900686">
  <ele>343.34</ele>
  <time>2026-09-01T19:50:25Z</time>
  <course>1.42</course>
  <speed>0.6100819617067857</speed>
  <fix>3d</fix>
</trkpt>
<trkpt lat="-27.2740111" lon="151.2900685">
  <ele>343.56</ele>
  <time>2026-09-01T19:50:25Z</time>
  <course>183.02</course>
  <speed>0.5</speed>
  <fix>3d</fix>
</trkpt>
<trkpt lat="-27.2740128" lon="151.2900686">
  <ele>343.29</ele>
  <time>2026-09-01T19:50:25Z</time>
  <course>1.42</course>
  <speed>0.6500769185258002</speed>
  <fix>3d</fix>
</trkpt>
<trkpt lat="-27.2740111" lon="151.2900685">
  <ele>343.56</ele>
  <time>2026-09-01T19:50:25Z</time>
  <course>183.02</course>
  <speed>0.5</speed>
  <fix>3d</fix>
</trkpt>
<trkpt lat="-27.2740134" lon="151.2900685">
  <ele>343.24</ele>
  <time>2026-09-01T19:50:25Z</time>
  <course>1.43</course>
  <speed>0.6900724599634447</speed>
  <fix>3d</fix>
</trkpt>
<trkpt lat="-27.2740121" lon="151.2900684">
  <ele>343.45</ele>
  <time>2026-09-01T19:50:25Z</time>
  <course>182.77</course>
  <speed>0.59</speed>
  <fix>3d</fix>
</trkpt>
<trkpt lat="-27.274014" lon="151.2900685">
  <ele>343.19</ele>
  <time>2026-09-01T19:50:25Z</time>
  <course>1.44</course>
  <speed>0.7200694410957876</speed>
  <fix>3d</fix>
</trkpt>
<trkpt lat="-27.2740121" lon="151.2900684">
  <ele>343.45</ele>
  <time>2026-09-01T19:50:25Z</time>
  <course>182.77</course>
  <speed>0.59</speed>
  <fix>3d</fix>
</trkpt>
<trkpt lat="-27.2740146" lon="151.2900685">
  <ele>343.14</ele>
  <time>2026-09-01T19:50:25Z</time>
  <course>1.44</course>
  <speed>0.750066663703967</speed>
  <fix>3d</fix>
</trkpt>
<trkpt lat="-27.2740132" lon="151.2900684">
  <ele>343.34</ele>
  <time>2026-09-01T19:50:25Z</time>
  <course>182.61</course>
  <speed>0.67</speed>
  <fix>3d</fix>
</trkpt>
<trkpt lat="-27.2740153" lon="151.2900685">
  <ele>343.09</ele>
  <time>2026-09-01T19:50:25Z</time>
  <course>1.45</course>
  <speed>0.7800640999302557</speed>
  <fix>3d</fix>
</trkpt>
<trkpt lat="-27.2740132" lon="151.2900684">
  <ele>343.34</ele>
  <time>2026-09-01T19:50:25Z</time>
  <course>182.61</course>
  <speed>0.67</speed>
  <fix>3d</fix>
</trkpt>
<trkpt lat="-27.274016" lon="151.2900684">
  <ele>343.04</ele>
  <time>2026-09-01T19:50:25Z</time>
  <course>1.45</course>
  <speed>0.8000624975587844</speed>
  <fix>3d</fix>
</trkpt>
<trkpt lat="-27.2740145" lon="151.2900683">
  <ele>343.25</ele>
  <time>2026-09-01T19:50:25Z</time>
  <course>182.51</course>
  <speed>0.73</speed>
  <fix>3d</fix>
</trkpt>
<trkpt lat="-27.2740167" lon="151.2900684">
  <ele>342.99</ele>
  <time>2026-09-01T19:50:25Z</time>
  <course>1.45</course>
  <speed>0.8200609733428362</speed>
  <fix>3d</fix>
</trkpt>
<trkpt lat="-27.2740145" lon="151.2900683">
  <ele>343.25</ele>
  <time>2026-09-01T19:50:25Z</time>
  <course>182.51</course>
  <speed>0.73</speed>
  <fix>3d</fix>
</trkpt>
<trkpt lat="-27.2740173" lon="151.2900684">
  <ele>342.95</ele>
  <time>2026-09-01T19:50:25Z</time>
  <course>1.45</course>
  <speed>0.43</speed>
  <fix>3d</fix>
</trkpt>
<trkpt lat="-27.2740159" lon="151.2900682">
  <ele>343.15</ele>
  <time>2026-09-01T19:50:25Z</time>
  <course>182.45</course>
  <speed>0.78</speed>
  <fix>3d</fix>
</trkpt>
<trkpt lat="-27.2740174" lon="151.2900684">
  <ele>342.95</ele>
  <time>2026-09-01T19:50:25Z</time>
  <course>1.46</course>
  <speed>0.0854400374531753</speed>
  <fix>3d</fix>
</trkpt>
<trkpt lat="-27.2740159" lon="151.2900682">
  <ele>343.15</ele>
  <time>2026-09-01T19:50:25Z</time>
  <course>182.45</course>
  <speed>0.78</speed>
  <fix>3d</fix>
</trkpt>
<trkpt lat="-27.2740172" lon="151.2900684">
  <ele>342.96</ele>
  <time>2026-09-01T19:50:25Z</time>
  <course>1.46</course>
  <speed>0.2220360331117452</speed>
  <fix>3d</fix>
</trkpt>
<trkpt lat="-27.274017" lon="151.2900681">
  <ele>343.07</ele>
  <time>2026-09-01T19:50:25Z</time>
  <course>182.37</course>
  <speed>0.35</speed>
  <fix>3d</fix>
</trkpt>
<trkpt lat="-27.2740171" lon="151.2900684">
  <ele>342.97</ele>
  <time>2026-09-01T19:50:25Z</time>
  <course>1.46</course>
  <speed>0.13341664064126335</speed>
  <fix>3d</fix>
</trkpt>
<trkpt lat="-27.274017" lon="151.2900681">
  <ele>343.07</ele>
  <time>2026-09-01T19:50:25Z</time>
  <course>182.37</course>
  <speed>0.35</speed>
  <fix>3d</fix>
</trkpt>
<trkpt lat="-27.2740171" lon="151.2900684">
  <ele>342.97</ele>
  <time>2026-09-01T19:50:25Z</time>
  <course>1.46</course>
  <speed>0.022360679774997897</speed>
  <fix>3d</fix>
</trkpt>
<trkpt lat="-27.2740171" lon="151.2900681">
  <ele>343.06</ele>
  <time>2026-09-01T19:50:25Z</time>
  <course>2.62</course>
  <speed>0.12</speed>
  <fix>3d</fix>
</trkpt>
<trkpt lat="-27.2740171" lon="151.2900684">
  <ele>342.97</ele>
  <time>2026-09-01T19:50:25Z</time>
  <course>1.46</course>
  <speed>0.044721359549995794</speed>
  <fix>3d</fix>
</trkpt>
<trkpt lat="-27.2740171" lon="151.2900681">
  <ele>343.06</ele>
  <time>2026-09-01T19:50:25Z</time>
  <course>2.62</course>
  <speed>0.12</speed>
  <fix>3d</fix>
</trkpt>
<trkpt lat="-27.2740171" lon="151.2900684">
  <ele>342.97</ele>
  <time>2026-09-01T19:50:25Z</time>
  <course>1.46</course>
  <speed>0.053851648071345036</speed>
  <fix>3d</fix>
</trkpt>
<trkpt lat="-27.274017" lon="151.2900681">
  <ele>343.08</ele>
  <time>2026-09-01T19:50:25Z</time>
  <course>2.42</course>
  <speed>0.06</speed>
  <fix>3d</fix>
</trkpt>
<trkpt lat="-27.2740172" lon="151.2900684">
  <ele>342.97</ele>
  <time>2026-09-01T19:50:25Z</time>
  <course>1.46</course>
  <speed>0.03605551275463989</speed>
  <fix>3d</fix>
</trkpt>
<trkpt lat="-27.274017" lon="151.2900681">
  <ele>343.08</ele>
  <time>2026-09-01T19:50:25Z</time>
  <course>2.42</course>
  <speed>0.06</speed>
  <fix>3d</fix>
</trkpt>
<trkpt lat="-27.2740172" lon="151.2900684">
  <ele>342.97</ele>
  <time>2026-09-01T19:50:25Z</time>
  <course>1.46</course>
  <speed>0.022360679774997897</speed>
  <fix>3d</fix>
</trkpt>
<trkpt lat="-27.274017" lon="151.2900681">
  <ele>343.08</ele>
  <time>2026-09-01T19:50:25Z</time>
  <course>182.51</course>
  <speed>0.02</speed>
  <fix>3d</fix>
</trkpt>
<trkpt lat="-27.2740172" lon="151.2900684">
  <ele>342.97</ele>
  <time>2026-09-01T19:50:25Z</time>
  <course>1.46</course>
  <speed>0.022360679774997897</speed>
  <fix>3d</fix>
</trkpt>
<trkpt lat="-27.274017" lon="151.2900681">
  <ele>343.08</ele>
  <time>2026-09-01T19:50:25Z</time>
  <course>182.51</course>
  <speed>0.02</speed>
  <fix>3d</fix>
</trkpt>
<trkpt lat="-27.2740172" lon="151.2900684">
  <ele>342.97</ele>
  <time>2026-09-01T19:50:25Z</time>
  <course>1.46</course>
  <speed>0.022360679774997897</speed>
  <fix>3d</fix>
</trkpt>
<trkpt lat="-27.274017" lon="151.2900681">
  <ele>343.08</ele>
  <time>2026-09-01T19:50:25Z</time>
  <course>182.21</course>
  <speed>0.0</speed>
  <fix>3d</fix>
</trkpt>
<trkpt lat="-27.2740172" lon="151.2900684">
  <ele>342.97</ele>
  <time>2026-09-01T19:50:25Z</time>
  <course>1.46</course>
  <speed>0.022360679774997897</speed>
  <fix>3d</fix>
</trkpt>
<trkpt lat="-27.274017" lon="151.2900681">
  <ele>343.08</ele>
  <time>2026-09-01T19:50:25Z</time>
  <course>182.21</course>
  <speed>0.0</speed>
  <fix>3d</fix>
</trkpt>
<trkpt lat="-27.2740172" lon="151.2900684">
  <ele>342.97</ele>
  <time>2026-09-01T19:50:25Z</time>
  <course>1.45</course>
  <speed>0.0282842712474619</speed>
  <fix>3d</fix>
</trkpt>
<trkpt lat="-27.274017" lon="151.2900681">
  <ele>343.08</ele>
  <time>2026-09-01T19:50:25Z</time>
  <course>2.69</course>
  <speed>0.0</speed>
  <fix>3d</fix>
</trkpt>
<trkpt lat="-27.2740172" lon="151.2900684">
  <ele>342.97</ele>
  <time>2026-09-01T19:50:25Z</time>
  <course>1.45</course>
  <speed>0.0282842712474619</speed>
  <fix>3d</fix>
</trkpt>
<trkpt lat="-27.274017" lon="151.2900681">
  <ele>343.08</ele>
  <time>2026-09-01T19:50:25Z</time>
  <course>2.69</course>
  <speed>0.0</speed>
  <fix>3d</fix>
</trkpt>
<trkpt lat="-27.2740172" lon="151.2900684">
  <ele>342.97</ele>
  <time>2026-09-01T19:50:25Z</time>
  <course>1.45</course>
  <speed>0.0282842712474619</speed>
  <fix>3d</fix>
</trkpt>
<trkpt lat="-27.274017" lon="151.2900681">
  <ele>343.08</ele>
  <time>2026-09-01T19:50:25Z</time>
  <course>5.62</course>
  <speed>0.0</speed>
  <fix>3d</fix>
</trkpt>
<trkpt lat="-27.2740172" lon="151.2900684">
  <ele>342.98</ele>
  <time>2026-09-01T19:50:25Z</time>
  <course>1.45</course>
  <speed>0.0282842712474619</speed>
  <fix>3d</fix>
</trkpt>
<trkpt lat="-27.274017" lon="151.2900681">
  <ele>343.08</ele>
  <time>2026-09-01T19:50:25Z</time>
  <course>5.62</course>
  <speed>0.0</speed>
  <fix>3d</fix>
</trkpt>
<trkpt lat="-27.2740172" lon="151.2900684">
  <ele>342.98</ele>
  <time>2026-09-01T19:50:25Z</time>
  <course>1.45</course>
  <speed>0.0282842712474619</speed>
  <fix>3d</fix>
</trkpt>
<trkpt lat="-27.274017" lon="151.2900681">
  <ele>343.08</ele>
  <time>2026-09-01T19:50:25Z</time>
  <course>181.34</course>
  <speed>0.0</speed>
  <fix>3d</fix>
</trkpt>
<trkpt lat="-27.2740172" lon="151.2900684">
  <ele>342.98</ele>
  <time>2026-09-01T19:50:25Z</time>
  <course>1.45</course>
  <speed>0.0282842712474619</speed>
  <fix>3d</fix>
</trkpt>
<trkpt lat="-27.274017" lon="151.2900681">
  <ele>343.08</ele>
  <time>2026-09-01T19:50:25Z</time>
  <course>181.34</course>
  <speed>0.0</speed>
  <fix>3d</fix>
</trkpt>
<trkpt lat="-27.2740172" lon="151.2900684">
  <ele>342.98</ele>
  <time>2026-09-01T19:50:25Z</time>
  <course>1.45</course>
  <speed>0.0282842712474619</speed>
  <fix>3d</fix>
</trkpt>
<trkpt lat="-27.274017" lon="151.2900681">
  <ele>343.08</ele>
  <time>2026-09-01T19:50:25Z</time>
  <course>159.36</course>
  <speed>0.0</speed>
  <fix>3d</fix>
</trkpt>
<trkpt lat="-27.2740172" lon="151.2900684">
  <ele>342.98</ele>
  <time>2026-09-01T19:50:25Z</time>
  <course>1.45</course>
  <speed>0.0282842712474619</speed>
  <fix>3d</fix>
</trkpt>
<trkpt lat="-27.274017" lon="151.2900681">
  <ele>343.08</ele>
  <time>2026-09-01T19:50:25Z</time>
  <course>159.36</course>
  <speed>0.0</speed>
  <fix>3d</fix>
</trkpt>
<trkpt lat="-27.2740172" lon="151.2900684">
  <ele>342.98</ele>
  <time>2026-09-01T19:50:25Z</time>
  <course>1.45</course>
  <speed>0.0282842712474619</speed>
  <fix>3d</fix>
</trkpt>
<trkpt lat="-27.274017" lon="151.2900681">
  <ele>343.08</ele>
  <time>2026-09-01T19:50:25Z</time>
  <course>57.31</course>
  <speed>0.0</speed>
  <fix>3d</fix>
</trkpt>
<trkpt lat="-27.2740172" lon="151.2900684">
  <ele>342.98</ele>
  <time>2026-09-01T19:50:25Z</time>
  <course>1.45</course>
  <speed>0.0282842712474619</speed>
  <fix>3d</fix>
</trkpt>
<trkpt lat="-27.274017" lon="151.2900681">
  <ele>343.08</ele>
  <time>2026-09-01T19:50:25Z</time>
  <course>57.31</course>
  <speed>0.0</speed>
  <fix>3d</fix>
</trkpt>
<trkpt lat="-27.2740172" lon="151.2900684">
  <ele>342.98</ele>
  <time>2026-09-01T19:50:25Z</time>
  <course>1.44</course>
  <speed>0.0282842712474619</speed>
  <fix>3d</fix>
</trkpt>
<trkpt lat="-27.274017" lon="151.2900681">
  <ele>343.08</ele>
  <time>2026-09-01T19:50:25Z</time>
  <course>173.17</course>
  <speed>0.0</speed>
  <fix>3d</fix>
</trkpt>
<trkpt lat="-27.2740172" lon="151.2900683">
  <ele>342.99</ele>
  <time>2026-09-01T19:50:25Z</time>
  <course>1.44</course>
  <speed>0.0282842712474619</speed>
  <fix>3d</fix>
</trkpt>
<trkpt lat="-27.274017" lon="151.2900681">
  <ele>343.08</ele>
  <time>2026-09-01T19:50:25Z</time>
  <course>173.17</course>
  <speed>0.0</speed>
  <fix>3d</fix>
</trkpt>
<trkpt lat="-27.2740172" lon="151.2900683">
  <ele>342.99</ele>
  <time>2026-09-01T19:50:25Z</time>
  <course>1.44</course>
  <speed>0.0282842712474619</speed>
  <fix>3d</fix>
</trkpt>
<trkpt lat="-27.274017" lon="151.2900681">
  <ele>343.08</ele>
  <time>2026-09-01T19:50:25Z</time>
  <course>172.49</course>
  <speed>0.0</speed>
  <fix>3d</fix>
</trkpt>
<trkpt lat="-27.2740172" lon="151.2900683">
  <ele>342.99</ele>
  <time>2026-09-01T19:50:25Z</time>
  <course>1.44</course>
  <speed>0.0282842712474619</speed>
  <fix>3d</fix>
</trkpt>
<trkpt lat="-27.274017" lon="151.2900681">
  <ele>343.08</ele>
  <time>2026-09-01T19:50:25Z</time>
  <course>172.49</course>
  <speed>0.0</speed>
  <fix>3d</fix>
</trkpt>
<trkpt lat="-27.2740172" lon="151.2900683">
  <ele>342.99</ele>
  <time>2026-09-01T19:50:25Z</time>
  <course>1.44</course>
  <speed>0.0282842712474619</speed>
  <fix>3d</fix>
</trkpt>
<trkpt lat="-27.274017" lon="151.2900681">
  <ele>343.08</ele>
  <time>2026-09-01T19:50:25Z</time>
  <course>170.66</course>
  <speed>0.0</speed>
  <fix>3d</fix>
</trkpt>
<trkpt lat="-27.2740172" lon="151.2900683">
  <ele>342.99</ele>
  <time>2026-09-01T19:50:25Z</time>
  <course>1.44</course>
  <speed>0.0282842712474619</speed>
  <fix>3d</fix>
</trkpt>
<trkpt lat="-27.274017" lon="151.2900681">
  <ele>343.08</ele>
  <time>2026-09-01T19:50:25Z</time>
  <course>170.66</course>
  <speed>0.0</speed>
  <fix>3d</fix>
</trkpt>
<trkpt lat="-27.2740172" lon="151.2900683">
  <ele>342.99</ele>
  <time>2026-09-01T19:50:25Z</time>
  <course>1.43</course>
  <speed>0.022360679774997897</speed>
  <fix>3d</fix>
</trkpt>
<trkpt lat="-27.274017" lon="151.2900681">
  <ele>343.08</ele>
  <time>2026-09-01T19:50:25Z</time>
  <course>171.07</course>
  <speed>0.0</speed>
  <fix>3d</fix>
</trkpt>
<trkpt lat="-27.2740172" lon="151.2900683">
  <ele>342.99</ele>
  <time>2026-09-01T19:50:25Z</time>
  <course>1.43</course>
  <speed>0.022360679774997897</speed>
  <fix>3d</fix>
</trkpt>
<trkpt lat="-27.274017" lon="151.2900681">
  <ele>343.08</ele>
  <time>2026-09-01T19:50:25Z</time>
  <course>171.07</course>
  <speed>0.0</speed>
  <fix>3d</fix>
</trkpt>
<trkpt lat="-27.2740172" lon="151.2900683">
  <ele>342.99</ele>
  <time>2026-09-01T19:50:25Z</time>
  <course>1.43</course>
  <speed>0.022360679774997897</speed>
  <fix>3d</fix>
</trkpt>
<trkpt lat="-27.274017" lon="151.2900681">
  <ele>343.08</ele>
  <time>2026-09-01T19:50:25Z</time>
  <course>171.36</course>
  <speed>0.0</speed>
  <fix>3d</fix>
</trkpt>
<trkpt lat="-27.2740172" lon="151.2900683">
  <ele>342.99</ele>
  <time>2026-09-01T19:50:25Z</time>
  <course>1.43</course>
  <speed>0.022360679774997897</speed>
  <fix>3d</fix>
</trkpt>
<trkpt lat="-27.274017" lon="151.2900681">
  <ele>343.08</ele>
  <time>2026-09-01T19:50:25Z</time>
  <course>171.36</course>
  <speed>0.0</speed>
  <fix>3d</fix>
</trkpt>
<trkpt lat="-27.2740172" lon="151.2900683">
  <ele>342.99</ele>
  <time>2026-09-01T19:50:25Z</time>
  <course>1.43</course>
  <speed>0.022360679774997897</speed>
  <fix>3d</fix>
</trkpt>
<trkpt lat="-27.274017" lon="151.2900681">
  <ele>343.08</ele>
  <time>2026-09-01T19:50:25Z</time>
  <course>171.28</course>
  <speed>0.0</speed>
  <fix>3d</fix>
</trkpt>
<trkpt lat="-27.2740172" lon="151.2900683">
  <ele>342.99</ele>
  <time>2026-09-01T19:50:25Z</time>
  <course>1.43</course>
  <speed>0.022360679774997897</speed>
  <fix>3d</fix>
</trkpt>
<trkpt lat="-27.274017" lon="151.2900681">
  <ele>343.08</ele>
  <time>2026-09-01T19:50:25Z</time>
  <course>171.28</course>
  <speed>0.0</speed>
  <fix>3d</fix>
</trkpt>
<trkpt lat="-27.2740172" lon="151.2900683">
  <ele>342.99</ele>
  <time>2026-09-01T19:50:25Z</time>
  <course>1.43</course>
  <speed>0.022360679774997897</speed>
  <fix>3d</fix>
</trkpt>
<trkpt lat="-27.274017" lon="151.2900681">
  <ele>343.08</ele>
  <time>2026-09-01T19:50:25Z</time>
  <course>171.25</course>
  <speed>0.0</speed>
  <fix>3d</fix>
</trkpt>
<trkpt lat="-27.2740172" lon="151.2900683">
  <ele>342.99</ele>
  <time>2026-09-01T19:50:25Z</time>
  <course>1.42</course>
  <speed>0.022360679774997897</speed>
  <fix>3d</fix>
</trkpt>
<trkpt lat="-27.274017" lon="151.2900681">
  <ele>343.08</ele>
  <time>2026-09-01T19:50:25Z</time>
  <course>171.25</course>
  <speed>0.0</speed>
  <fix>3d</fix>
</trkpt>
<trkpt lat="-27.2740172" lon="151.2900683">
  <ele>342.99</ele>
  <time>2026-09-01T19:50:25Z</time>
  <course>1.42</course>
  <speed>0.022360679774997897</speed>
  <fix>3d</fix>
</trkpt>
<trkpt lat="-27.274017" lon="151.2900681">
  <ele>343.08</ele>
  <time>2026-09-01T19:50:25Z</time>
  <course>171.25</course>
  <speed>0.0</speed>
  <fix>3d</fix>
</trkpt>
<trkpt lat="-27.2740172" lon="151.2900683">
  <ele>342.99</ele>
  <time>2026-09-01T19:50:25Z</time>
  <course>1.42</course>
  <speed>0.022360679774997897</speed>
  <fix>3d</fix>
</trkpt>
<trkpt lat="-27.274017" lon="151.2900681">
  <ele>343.08</ele>
  <time>2026-09-01T19:50:25Z</time>
  <course>171.25</course>
  <speed>0.0</speed>
  <fix>3d</fix>
</trkpt>
<trkpt lat="-27.2740172" lon="151.2900683">
  <ele>342.99</ele>
  <time>2026-09-01T19:50:25Z</time>
  <course>1.42</course>
  <speed>0.022360679774997897</speed>
  <fix>3d</fix>
</trkpt>
<trkpt lat="-27.274017" lon="151.2900681">
  <ele>343.08</ele>
  <time>2026-09-01T19:50:25Z</time>
  <course>171.26</course>
  <speed>0.0</speed>
  <fix>3d</fix>
</trkpt>
<trkpt lat="-27.2740172" lon="151.2900683">
  <ele>342.99</ele>
  <time>2026-09-01T19:50:25Z</time>
  <course>1.42</course>
  <speed>0.022360679774997897</speed>
  <fix>3d</fix>
</trkpt>
<trkpt lat="-27.274017" lon="151.2900681">
  <ele>343.08</ele>
  <time>2026-09-01T19:50:25Z</time>
  <course>171.26</course>
  <speed>0.0</speed>
  <fix>3d</fix>
</trkpt>
<trkpt lat="-27.2740172" lon="151.2900683">
  <ele>342.98</ele>
  <time>2026-09-01T19:50:25Z</time>
  <course>1.42</course>
  <speed>0.022360679774997897</speed>
  <fix>3d</fix>
</trkpt>
<trkpt lat="-27.274017" lon="151.2900681">
  <ele>343.08</ele>
  <time>2026-09-01T19:50:25Z</time>
  <course>171.27</course>
  <speed>0.0</speed>
  <fix>3d</fix>
</trkpt>
<trkpt lat="-27.2740172" lon="151.2900683">
  <ele>342.98</ele>
  <time>2026-09-01T19:50:25Z</time>
  <course>1.42</course>
  <speed>0.022360679774997897</speed>
  <fix>3d</fix>
</trkpt>
<trkpt lat="-27.274017" lon="151.2900681">
  <ele>343.08</ele>
  <time>2026-09-01T19:50:25Z</time>
  <course>171.27</course>
  <speed>0.0</speed>
  <fix>3d</fix>
</trkpt>
<trkpt lat="-27.2740172" lon="151.2900683">
  <ele>342.98</ele>
  <time>2026-09-01T19:50:25Z</time>
  <course>1.42</course>
  <speed>0.022360679774997897</speed>
  <fix>3d</fix>
</trkpt>
<trkpt lat="-27.274017" lon="151.2900681">
  <ele>343.08</ele>
  <time>2026-09-01T19:50:25Z</time>
  <course>171.27</course>
  <speed>0.0</speed>
  <fix>3d</fix>
</trkpt>
<trkpt lat="-27.2740172" lon="151.2900683">
  <ele>342.98</ele>
  <time>2026-09-01T19:50:25Z</time>
  <course>1.42</course>
  <speed>0.022360679774997897</speed>
  <fix>3d</fix>
</trkpt>
<trkpt lat="-27.274017" lon="151.2900681">
  <ele>343.08</ele>
  <time>2026-09-01T19:50:25Z</time>
  <course>171.27</course>
  <speed>0.0</speed>
  <fix>3d</fix>
</trkpt>
<trkpt lat="-27.2740172" lon="151.2900683">
  <ele>342.98</ele>
  <time>2026-09-01T19:50:25Z</time>
  <course>1.41</course>
  <speed>0.022360679774997897</speed>
  <fix>3d</fix>
</trkpt>
<trkpt lat="-27.274017" lon="151.2900681">
  <ele>343.08</ele>
  <time>2026-09-01T19:50:25Z</time>
  <course>171.29</course>
  <speed>0.0</speed>
  <fix>3d</fix>
</trkpt>
<trkpt lat="-27.2740172" lon="151.2900683">
  <ele>342.98</ele>
  <time>2026-09-01T19:50:25Z</time>
  <course>1.41</course>
  <speed>0.022360679774997897</speed>
  <fix>3d</fix>
</trkpt>
<trkpt lat="-27.274017" lon="151.2900681">
  <ele>343.08</ele>
  <time>2026-09-01T19:50:25Z</time>
  <course>171.29</course>
  <speed>0.0</speed>
  <fix>3d</fix>
</trkpt>
<trkpt lat="-27.2740172" lon="151.2900683">
  <ele>342.98</ele>
  <time>2026-09-01T19:50:25Z</time>
  <course>1.41</course>
  <speed>0.022360679774997897</speed>
  <fix>3d</fix>
</trkpt>
<trkpt lat="-27.274017" lon="151.2900681">
  <ele>343.08</ele>
  <time>2026-09-01T19:50:25Z</time>
  <course>171.3</course>
  <speed>0.0</speed>
  <fix>3d</fix>
</trkpt>
<trkpt lat="-27.2740172" lon="151.2900683">
  <ele>342.98</ele>
  <time>2026-09-01T19:50:25Z</time>
  <course>1.41</course>
  <speed>0.022360679774997897</speed>
  <fix>3d</fix>
</trkpt>
<trkpt lat="-27.274017" lon="151.2900681">
  <ele>343.08</ele>
  <time>2026-09-01T19:50:25Z</time>
  <course>171.3</course>
  <speed>0.0</speed>
  <fix>3d</fix>
</trkpt>
<trkpt lat="-27.2740172" lon="151.2900683">
  <ele>342.99</ele>
  <time>2026-09-01T19:50:25Z</time>
  <course>1.41</course>
  <speed>0.022360679774997897</speed>
  <fix>3d</fix>
</trkpt>
<trkpt lat="-27.274017" lon="151.2900681">
  <ele>343.08</ele>
  <time>2026-09-01T19:50:25Z</time>
  <course>171.28</course>
  <speed>0.0</speed>
  <fix>3d</fix>
</trkpt>
<trkpt lat="-27.2740172" lon="151.2900683">
  <ele>342.99</ele>
  <time>2026-09-01T19:50:25Z</time>
  <course>1.41</course>
  <speed>0.022360679774997897</speed>
  <fix>3d</fix>
</trkpt>
<trkpt lat="-27.274017" lon="151.2900681">
  <ele>343.08</ele>
  <time>2026-09-01T19:50:25Z</time>
  <course>171.28</course>
  <speed>0.0</speed>
  <fix>3d</fix>
</trkpt>
<trkpt lat="-27.2740172" lon="151.2900683">
  <ele>342.99</ele>
  <time>2026-09-01T19:50:25Z</time>
  <course>1.41</course>
  <speed>0.022360679774997897</speed>
  <fix>3d</fix>
</trkpt>
<trkpt lat="-27.274017" lon="151.2900681">
  <ele>343.08</ele>
  <time>2026-09-01T19:50:25Z</time>
  <course>171.27</course>
  <speed>0.0</speed>
  <fix>3d</fix>
</trkpt>
<trkpt lat="-27.2740172" lon="151.2900683">
  <ele>342.99</ele>
  <time>2026-09-01T19:50:25Z</time>
  <course>1.41</course>
  <speed>0.022360679774997897</speed>
  <fix>3d</fix>
</trkpt>
<trkpt lat="-27.274017" lon="151.2900681">
  <ele>343.08</ele>
  <time>2026-09-01T19:50:25Z</time>
  <course>171.27</course>
  <speed>0.0</speed>
  <fix>3d</fix>
</trkpt>
<trkpt lat="-27.2740172" lon="151.2900683">
  <ele>342.99</ele>
  <time>2026-09-01T19:50:25Z</time>
  <course>1.41</course>
  <speed>0.022360679774997897</speed>
  <fix>3d</fix>
</trkpt>
<trkpt lat="-27.274017" lon="151.2900681">
  <ele>343.08</ele>
  <time>2026-09-01T19:50:25Z</time>
  <course>171.28</course>
  <speed>0.0</speed>
  <fix>3d</fix>
</trkpt>
<trkpt lat="-27.2740172" lon="151.2900683">
  <ele>342.99</ele>
  <time>2026-09-01T19:50:25Z</time>
  <course>1.41</course>
  <speed>0.022360679774997897</speed>
  <fix>3d</fix>
</trkpt>
<trkpt lat="-27.274017" lon="151.2900681">
  <ele>343.08</ele>
  <time>2026-09-01T19:50:25Z</time>
  <course>171.28</course>
  <speed>0.0</speed>
  <fix>3d</fix>
</trkpt>
<trkpt lat="-27.2740172" lon="151.2900683">
  <ele>343.0</ele>
  <time>2026-09-01T19:50:25Z</time>
  <course>1.41</course>
  <speed>0.022360679774997897</speed>
  <fix>3d</fix>
</trkpt>
<trkpt lat="-27.274017" lon="151.2900681">
  <ele>343.08</ele>
  <time>2026-09-01T19:50:25Z</time>
  <course>171.29</course>
  <speed>0.0</speed>
  <fix>3d</fix>
</trkpt>
<trkpt lat="-27.2740172" lon="151.2900683">
  <ele>343.0</ele>
  <time>2026-09-01T19:50:25Z</time>
  <course>1.41</course>
  <speed>0.022360679774997897</speed>
  <fix>3d</fix>
</trkpt>
<trkpt lat="-27.274017" lon="151.2900681">
  <ele>343.08</ele>
  <time>2026-09-01T19:50:25Z</time>
  <course>171.29</course>
  <speed>0.0</speed>
  <fix>3d</fix>
</trkpt>
<trkpt lat="-27.2740172" lon="151.2900683">
  <ele>343.0</ele>
  <time>2026-09-01T19:50:26Z</time>
  <course>1.4</course>
  <speed>0.022360679774997897</speed>
  <fix>3d</fix>
</trkpt>
<trkpt lat="-27.274017" lon="151.2900681">
  <ele>343.08</ele>
  <time>2026-09-01T19:50:26Z</time>
  <course>171.28</course>
  <speed>0.0</speed>
  <fix>3d</fix>
</trkpt>
<trkpt lat="-27.2740172" lon="151.2900683">
  <ele>343.0</ele>
  <time>2026-09-01T19:50:26Z</time>
  <course>1.4</course>
  <speed>0.022360679774997897</speed>
  <fix>3d</fix>
</trkpt>
<trkpt lat="-27.274017" lon="151.2900681">
  <ele>343.08</ele>
  <time>2026-09-01T19:50:26Z</time>
  <course>171.28</course>
  <speed>0.0</speed>
  <fix>3d</fix>
</trkpt>
<trkpt lat="-27.2740172" lon="151.2900683">
  <ele>343.0</ele>
  <time>2026-09-01T19:50:26Z</time>
  <course>1.4</course>
  <speed>0.022360679774997897</speed>
  <fix>3d</fix>
</trkpt>
<trkpt lat="-27.274017" lon="151.2900681">
  <ele>343.08</ele>
  <time>2026-09-01T19:50:26Z</time>
  <course>171.27</course>
  <speed>0.0</speed>
  <fix>3d</fix>
</trkpt>
<trkpt lat="-27.2740172" lon="151.2900683">
  <ele>343.0</ele>
  <time>2026-09-01T19:50:26Z</time>
  <course>1.4</course>
  <speed>0.022360679774997897</speed>
  <fix>3d</fix>
</trkpt>
<trkpt lat="-27.274017" lon="151.2900681">
  <ele>343.08</ele>
  <time>2026-09-01T19:50:26Z</time>
  <course>171.27</course>
  <speed>0.0</speed>
  <fix>3d</fix>
</trkpt>
<trkpt lat="-27.2740172" lon="151.2900683">
  <ele>343.0</ele>
  <time>2026-09-01T19:50:26Z</time>
  <course>1.4</course>
  <speed>0.022360679774997897</speed>
  <fix>3d</fix>
</trkpt>
<trkpt lat="-27.274017" lon="151.2900681">
  <ele>343.08</ele>
  <time>2026-09-01T19:50:26Z</time>
  <course>171.3</course>
  <speed>0.0</speed>
  <fix>3d</fix>
</trkpt>
<trkpt lat="-27.2740172" lon="151.2900683">
  <ele>343.0</ele>
  <time>2026-09-01T19:50:26Z</time>
  <course>1.4</course>
  <speed>0.022360679774997897</speed>
  <fix>3d</fix>
</trkpt>
<trkpt lat="-27.274017" lon="151.2900681">
  <ele>343.08</ele>
  <time>2026-09-01T19:50:26Z</time>
  <course>171.3</course>
  <speed>0.0</speed>
  <fix>3d</fix>
</trkpt>
<trkpt lat="-27.2740172" lon="151.2900683">
  <ele>343.0</ele>
  <time>2026-09-01T19:50:26Z</time>
  <course>1.4</course>
  <speed>0.022360679774997897</speed>
  <fix>3d</fix>
</trkpt>
<trkpt lat="-27.274017" lon="151.2900681">
  <ele>343.08</ele>
  <time>2026-09-01T19:50:26Z</time>
  <course>171.32</course>
  <speed>0.0</speed>
  <fix>3d</fix>
</trkpt>
<trkpt lat="-27.2740172" lon="151.2900683">
  <ele>343.0</ele>
  <time>2026-09-01T19:50:26Z</time>
  <course>1.41</course>
  <speed>0.022360679774997897</speed>
  <fix>3d</fix>
</trkpt>
<trkpt lat="-27.274017" lon="151.2900681">
  <ele>343.08</ele>
  <time>2026-09-01T19:50:26Z</time>
  <course>171.32</course>
  <speed>0.0</speed>
  <fix>3d</fix>
</trkpt>
<trkpt lat="-27.2740172" lon="151.2900683">
  <ele>343.0</ele>
  <time>2026-09-01T19:50:26Z</time>
  <course>1.42</course>
  <speed>0.022360679774997897</speed>
  <fix>3d</fix>
</trkpt>
<trkpt lat="-27.274017" lon="151.2900681">
  <ele>343.08</ele>
  <time>2026-09-01T19:50:26Z</time>
  <course>172.15</course>
  <speed>0.0</speed>
  <fix>3d</fix>
</trkpt>
<trkpt lat="-27.2740172" lon="151.2900683">
  <ele>343.0</ele>
  <time>2026-09-01T19:50:26Z</time>
  <course>1.43</course>
  <speed>0.022360679774997897</speed>
  <fix>3d</fix>
</trkpt>
<trkpt lat="-27.274017" lon="151.2900681">
  <ele>343.08</ele>
  <time>2026-09-01T19:50:26Z</time>
  <course>172.15</course>
  <speed>0.0</speed>
  <fix>3d</fix>
</trkpt>
<trkpt lat="-27.2740172" lon="151.2900683">
  <ele>343.0</ele>
  <time>2026-09-01T19:50:26Z</time>
  <course>1.44</course>
  <speed>0.022360679774997897</speed>
  <fix>3d</fix>
</trkpt>
<trkpt lat="-27.274017" lon="151.2900681">
  <ele>343.08</ele>
  <time>2026-09-01T19:50:26Z</time>
  <course>172.18</course>
  <speed>0.0</speed>
  <fix>3d</fix>
</trkpt>
<trkpt lat="-27.2740172" lon="151.2900683">
  <ele>343.0</ele>
  <time>2026-09-01T19:50:26Z</time>
  <course>1.46</course>
  <speed>0.022360679774997897</speed>
  <fix>3d</fix>
</trkpt>
<trkpt lat="-27.274017" lon="151.2900681">
  <ele>343.08</ele>
  <time>2026-09-01T19:50:26Z</time>
  <course>172.18</course>
  <speed>0.0</speed>
  <fix>3d</fix>
</trkpt>
<trkpt lat="-27.2740172" lon="151.2900683">
  <ele>343.08</ele>
  <time>2026-09-01T19:50:26Z</time>
  <course>1.47</course>
  <speed>0.022360679774997897</speed>
  <fix>3d</fix>
</trkpt>
<trkpt lat="-27.274017" lon="151.2900681">
  <ele>343.08</ele>
  <time>2026-09-01T19:50:26Z</time>
  <course>171.22</course>
  <speed>0.0</speed>
  <fix>3d</fix>
</trkpt>
<trkpt lat="-27.2740172" lon="151.2900683">
  <ele>343.07</ele>
  <time>2026-09-01T19:50:26Z</time>
  <course>1.48</course>
  <speed>0.022360679774997897</speed>
  <fix>3d</fix>
</trkpt>
<trkpt lat="-27.274017" lon="151.2900681">
  <ele>343.08</ele>
  <time>2026-09-01T19:50:26Z</time>
  <course>171.22</course>
  <speed>0.0</speed>
  <fix>3d</fix>
</trkpt>
<trkpt lat="-27.2740172" lon="151.2900683">
  <ele>343.07</ele>
  <time>2026-09-01T19:50:26Z</time>
  <course>1.49</course>
  <speed>0.022360679774997897</speed>
  <fix>3d</fix>
</trkpt>
<trkpt lat="-27.274017" lon="151.2900681">
  <ele>343.08</ele>
  <time>2026-09-01T19:50:26Z</time>
  <course>171.21</course>
  <speed>0.0</speed>
  <fix>3d</fix>
</trkpt>
<trkpt lat="-27.2740172" lon="151.2900683">
  <ele>343.07</ele>
  <time>2026-09-01T19:50:26Z</time>
  <course>1.5</course>
  <speed>0.022360679774997897</speed>
  <fix>3d</fix>
</trkpt>
<trkpt lat="-27.274017" lon="151.2900681">
  <ele>343.08</ele>
  <time>2026-09-01T19:50:26Z</time>
  <course>171.21</course>
  <speed>0.0</speed>
  <fix>3d</fix>
</trkpt>
<trkpt lat="-27.2740172" lon="151.2900683">
  <ele>343.07</ele>
  <time>2026-09-01T19:50:26Z</time>
  <course>1.51</course>
  <speed>0.022360679774997897</speed>
  <fix>3d</fix>
</trkpt>
<trkpt lat="-27.274017" lon="151.2900681">
  <ele>343.08</ele>
  <time>2026-09-01T19:50:26Z</time>
  <course>171.36</course>
  <speed>0.0</speed>
  <fix>3d</fix>
</trkpt>
<trkpt lat="-27.2740172" lon="151.2900683">
  <ele>343.07</ele>
  <time>2026-09-01T19:50:26Z</time>
  <course>1.52</course>
  <speed>0.022360679774997897</speed>
  <fix>3d</fix>
</trkpt>
<trkpt lat="-27.274017" lon="151.2900681">
  <ele>343.08</ele>
  <time>2026-09-01T19:50:26Z</time>
  <course>171.36</course>
  <speed>0.0</speed>
  <fix>3d</fix>
</trkpt>
<trkpt lat="-27.2740172" lon="151.2900683">
  <ele>343.07</ele>
  <time>2026-09-01T19:50:26Z</time>
  <course>1.53</course>
  <speed>0.022360679774997897</speed>
  <fix>3d</fix>
</trkpt>
<trkpt lat="-27.274017" lon="151.2900681">
  <ele>343.08</ele>
  <time>2026-09-01T19:50:26Z</time>
  <course>171.35</course>
  <speed>0.0</speed>
  <fix>3d</fix>
</trkpt>
<trkpt lat="-27.2740172" lon="151.2900683">
  <ele>343.06</ele>
  <time>2026-09-01T19:50:26Z</time>
  <course>1.54</course>
  <speed>0.022360679774997897</speed>
  <fix>3d</fix>
</trkpt>
<trkpt lat="-27.274017" lon="151.2900681">
  <ele>343.08</ele>
  <time>2026-09-01T19:50:26Z</time>
  <course>171.35</course>
  <speed>0.0</speed>
  <fix>3d</fix>
</trkpt>
<trkpt lat="-27.2740172" lon="151.2900683">
  <ele>343.07</ele>
  <time>2026-09-01T19:50:26Z</time>
  <course>1.55</course>
  <speed>0.022360679774997897</speed>
  <fix>3d</fix>
</trkpt>
<trkpt lat="-27.274017" lon="151.2900681">
  <ele>343.08</ele>
  <time>2026-09-01T19:50:26Z</time>
  <course>171.33</course>
  <speed>0.0</speed>
  <fix>3d</fix>
</trkpt>
<trkpt lat="-27.2740172" lon="151.2900683">
  <ele>343.07</ele>
  <time>2026-09-01T19:50:26Z</time>
  <course>1.56</course>
  <speed>0.022360679774997897</speed>
  <fix>3d</fix>
</trkpt>
<trkpt lat="-27.274017" lon="151.2900681">
  <ele>343.08</ele>
  <time>2026-09-01T19:50:26Z</time>
  <course>171.33</course>
  <speed>0.0</speed>
  <fix>3d</fix>
</trkpt>
<trkpt lat="-27.2740172" lon="151.2900683">
  <ele>343.07</ele>
  <time>2026-09-01T19:50:26Z</time>
  <course>1.57</course>
  <speed>0.022360679774997897</speed>
  <fix>3d</fix>
</trkpt>
<trkpt lat="-27.274017" lon="151.2900681">
  <ele>343.08</ele>
  <time>2026-09-01T19:50:26Z</time>
  <course>171.34</course>
  <speed>0.0</speed>
  <fix>3d</fix>
</trkpt>
<trkpt lat="-27.2740172" lon="151.2900683">
  <ele>343.07</ele>
  <time>2026-09-01T19:50:26Z</time>
  <course>1.58</course>
  <speed>0.022360679774997897</speed>
  <fix>3d</fix>
</trkpt>
<trkpt lat="-27.274017" lon="151.2900681">
  <ele>343.08</ele>
  <time>2026-09-01T19:50:26Z</time>
  <course>171.34</course>
  <speed>0.0</speed>
  <fix>3d</fix>
</trkpt>
<trkpt lat="-27.2740172" lon="151.2900683">
  <ele>343.06</ele>
  <time>2026-09-01T19:50:26Z</time>
  <course>1.59</course>
  <speed>0.022360679774997897</speed>
  <fix>3d</fix>
</trkpt>
<trkpt lat="-27.274017" lon="151.2900681">
  <ele>343.08</ele>
  <time>2026-09-01T19:50:26Z</time>
  <course>171.34</course>
  <speed>0.0</speed>
  <fix>3d</fix>
</trkpt>
<trkpt lat="-27.2740172" lon="151.2900683">
  <ele>343.07</ele>
  <time>2026-09-01T19:50:26Z</time>
  <course>1.6</course>
  <speed>0.022360679774997897</speed>
  <fix>3d</fix>
</trkpt>
<trkpt lat="-27.274017" lon="151.2900681">
  <ele>343.08</ele>
  <time>2026-09-01T19:50:26Z</time>
  <course>171.34</course>
  <speed>0.0</speed>
  <fix>3d</fix>
</trkpt>
<trkpt lat="-27.2740172" lon="151.2900683">
  <ele>343.07</ele>
  <time>2026-09-01T19:50:26Z</time>
  <course>1.61</course>
  <speed>0.01414213562373095</speed>
  <fix>3d</fix>
</trkpt>
<trkpt lat="-27.274017" lon="151.2900681">
  <ele>343.08</ele>
  <time>2026-09-01T19:50:26Z</time>
  <course>171.34</course>
  <speed>0.0</speed>
  <fix>3d</fix>
</trkpt>
<trkpt lat="-27.2740172" lon="151.2900683">
  <ele>343.07</ele>
  <time>2026-09-01T19:50:26Z</time>
  <course>1.63</course>
  <speed>0.01</speed>
  <fix>3d</fix>
</trkpt>
<trkpt lat="-27.274017" lon="151.2900681">
  <ele>343.08</ele>
  <time>2026-09-01T19:50:26Z</time>
  <course>171.34</course>
  <speed>0.0</speed>
  <fix>3d</fix>
</trkpt>
<trkpt lat="-27.2740172" lon="151.2900683">
  <ele>343.07</ele>
  <time>2026-09-01T19:50:26Z</time>
  <course>1.64</course>
  <speed>0.01</speed>
  <fix>3d</fix>
</trkpt>
<trkpt lat="-27.274017" lon="151.2900681">
  <ele>343.08</ele>
  <time>2026-09-01T19:50:26Z</time>
  <course>274.34</course>
  <speed>0.0</speed>
  <fix>3d</fix>
</trkpt>
<trkpt lat="-27.2740172" lon="151.2900683">
  <ele>343.06</ele>
  <time>2026-09-01T19:50:26Z</time>
  <course>1.65</course>
  <speed>0.01</speed>
  <fix>3d</fix>
</trkpt>
<trkpt lat="-27.274017" lon="151.2900681">
  <ele>343.08</ele>
  <time>2026-09-01T19:50:26Z</time>
  <course>274.34</course>
  <speed>0.0</speed>
  <fix>3d</fix>
</trkpt>
<trkpt lat="-27.2740172" lon="151.2900682">
  <ele>343.06</ele>
  <time>2026-09-01T19:50:26Z</time>
  <course>1.66</course>
  <speed>0.01</speed>
  <fix>3d</fix>
</trkpt>
<trkpt lat="-27.274017" lon="151.2900681">
  <ele>343.08</ele>
  <time>2026-09-01T19:50:26Z</time>
  <course>277.22</course>
  <speed>0.0</speed>
  <fix>3d</fix>
</trkpt>
<trkpt lat="-27.2740172" lon="151.2900682">
  <ele>343.06</ele>
  <time>2026-09-01T19:50:26Z</time>
  <course>1.68</course>
  <speed>0.01414213562373095</speed>
  <fix>3d</fix>
</trkpt>
<trkpt lat="-27.274017" lon="151.2900681">
  <ele>343.08</ele>
  <time>2026-09-01T19:50:26Z</time>
  <course>277.22</course>
  <speed>0.0</speed>
  <fix>3d</fix>
</trkpt>
<trkpt lat="-27.2740172" lon="151.2900682">
  <ele>343.06</ele>
  <time>2026-09-01T19:50:26Z</time>
  <course>1.69</course>
  <speed>0.0316227766016838</speed>
  <fix>3d</fix>
</trkpt>
<trkpt lat="-27.274017" lon="151.2900681">
  <ele>343.08</ele>
  <time>2026-09-01T19:50:26Z</time>
  <course>282.44</course>
  <speed>0.0</speed>
  <fix>3d</fix>
</trkpt>
<trkpt lat="-27.2740171" lon="151.2900682">
  <ele>343.06</ele>
  <time>2026-09-01T19:50:26Z</time>
  <course>1.71</course>
  <speed>0.12041594578792296</speed>
  <fix>3d</fix>
</trkpt>
<trkpt lat="-27.274017" lon="151.2900681">
  <ele>343.08</ele>
  <time>2026-09-01T19:50:26Z</time>
  <course>282.44</course>
  <speed>0.0</speed>
  <fix>3d</fix>
</trkpt>
<trkpt lat="-27.274017" lon="151.2900682">
  <ele>343.06</ele>
  <time>2026-09-01T19:50:26Z</time>
  <course>1.72</course>
  <speed>0.0412310562561766</speed>
  <fix>3d</fix>
</trkpt>
<trkpt lat="-27.274017" lon="151.2900681">
  <ele>343.08</ele>
  <time>2026-09-01T19:50:26Z</time>
  <course>3.09</course>
  <speed>0.07</speed>
  <fix>3d</fix>
</trkpt>
<trkpt lat="-27.274017" lon="151.2900682">
  <ele>343.06</ele>
  <time>2026-09-01T19:50:26Z</time>
  <course>1.73</course>
  <speed>0.0412310562561766</speed>
  <fix>3d</fix>
</trkpt>
<trkpt lat="-27.274017" lon="151.2900681">
  <ele>343.08</ele>
  <time>2026-09-01T19:50:26Z</time>
  <course>3.09</course>
  <speed>0.07</speed>
  <fix>3d</fix>
</trkpt>
<trkpt lat="-27.274017" lon="151.2900682">
  <ele>343.06</ele>
  <time>2026-09-01T19:50:26Z</time>
  <course>1.78</course>
  <speed>0.022360679774997897</speed>
  <fix>3d</fix>
</trkpt>
<trkpt lat="-27.2740169" lon="151.2900681">
  <ele>343.08</ele>
  <time>2026-09-01T19:50:26Z</time>
  <course>177.67</course>
  <speed>0.04</speed>
  <fix>3d</fix>
</trkpt>
<trkpt lat="-27.2740171" lon="151.2900682">
  <ele>343.05</ele>
  <time>2026-09-01T19:50:26Z</time>
  <course>1.82</course>
  <speed>0.02</speed>
  <fix>3d</fix>
</trkpt>
<trkpt lat="-27.274017" lon="151.2900681">
  <ele>343.08</ele>
  <time>2026-09-01T19:50:26Z</time>
  <course>173.36</course>
  <speed>0.0</speed>
  <fix>3d</fix>
</trkpt>
<trkpt lat="-27.2740171" lon="151.2900682">
  <ele>343.05</ele>
  <time>2026-09-01T19:50:26Z</time>
  <course>1.83</course>
  <speed>0.01</speed>
  <fix>3d</fix>
</trkpt>
<trkpt lat="-27.274017" lon="151.2900681">
  <ele>343.08</ele>
  <time>2026-09-01T19:50:26Z</time>
  <course>172.72</course>
  <speed>0.0</speed>
  <fix>3d</fix>
</trkpt>
<trkpt lat="-27.2740171" lon="151.2900682">
  <ele>343.05</ele>
  <time>2026-09-01T19:50:26Z</time>
  <course>1.84</course>
  <speed>0.01</speed>
  <fix>3d</fix>
</trkpt>
<trkpt lat="-27.274017" lon="151.2900681">
  <ele>343.08</ele>
  <time>2026-09-01T19:50:26Z</time>
  <course>172.72</course>
  <speed>0.0</speed>
  <fix>3d</fix>
</trkpt>
<trkpt lat="-27.2740171" lon="151.2900682">
  <ele>343.06</ele>
  <time>2026-09-01T19:50:26Z</time>
  <course>1.85</course>
  <speed>0.01</speed>
  <fix>3d</fix>
</trkpt>
<trkpt lat="-27.274017" lon="151.2900681">
  <ele>343.08</ele>
  <time>2026-09-01T19:50:26Z</time>
  <course>174.93</course>
  <speed>0.0</speed>
  <fix>3d</fix>
</trkpt>
<trkpt lat="-27.2740171" lon="151.2900682">
  <ele>343.06</ele>
  <time>2026-09-01T19:50:26Z</time>
  <course>1.86</course>
  <speed>0.01</speed>
  <fix>3d</fix>
</trkpt>
<trkpt lat="-27.274017" lon="151.2900681">
  <ele>343.08</ele>
  <time>2026-09-01T19:50:26Z</time>
  <course>174.93</course>
  <speed>0.0</speed>
  <fix>3d</fix>
</trkpt>
<trkpt lat="-27.2740171" lon="151.2900682">
  <ele>343.06</ele>
  <time>2026-09-01T19:50:26Z</time>
  <course>1.87</course>
  <speed>0.01</speed>
  <fix>3d</fix>
</trkpt>
<trkpt lat="-27.274017" lon="151.2900681">
  <ele>343.08</ele>
  <time>2026-09-01T19:50:26Z</time>
  <course>174.18</course>
  <speed>0.0</speed>
  <fix>3d</fix>
</trkpt>
<trkpt lat="-27.2740171" lon="151.2900682">
  <ele>343.06</ele>
  <time>2026-09-01T19:50:26Z</time>
  <course>1.88</course>
  <speed>0.01</speed>
  <fix>3d</fix>
</trkpt>
<trkpt lat="-27.274017" lon="151.2900681">
  <ele>343.08</ele>
  <time>2026-09-01T19:50:26Z</time>
  <course>174.18</course>
  <speed>0.0</speed>
  <fix>3d</fix>
</trkpt>
<trkpt lat="-27.2740171" lon="151.2900682">
  <ele>343.06</ele>
  <time>2026-09-01T19:50:26Z</time>
  <course>1.89</course>
  <speed>0.01</speed>
  <fix>3d</fix>
</trkpt>
<trkpt lat="-27.274017" lon="151.2900681">
  <ele>343.08</ele>
  <time>2026-09-01T19:50:26Z</time>
  <course>173.06</course>
  <speed>0.0</speed>
  <fix>3d</fix>
</trkpt>
<trkpt lat="-27.2740171" lon="151.2900682">
  <ele>343.06</ele>
  <time>2026-09-01T19:50:26Z</time>
  <course>1.9</course>
  <speed>0.01</speed>
  <fix>3d</fix>
</trkpt>
<trkpt lat="-27.274017" lon="151.2900681">
  <ele>343.08</ele>
  <time>2026-09-01T19:50:26Z</time>
  <course>173.06</course>
  <speed>0.0</speed>
  <fix>3d</fix>
</trkpt>
<trkpt lat="-27.2740171" lon="151.2900682">
  <ele>343.06</ele>
  <time>2026-09-01T19:50:26Z</time>
  <course>1.91</course>
  <speed>0.01</speed>
  <fix>3d</fix>
</trkpt>
<trkpt lat="-27.274017" lon="151.2900681">
  <ele>343.08</ele>
  <time>2026-09-01T19:50:26Z</time>
  <course>173.24</course>
  <speed>0.0</speed>
  <fix>3d</fix>
</trkpt>
<trkpt lat="-27.2740171" lon="151.2900682">
  <ele>343.05</ele>
  <time>2026-09-01T19:50:26Z</time>
  <course>1.92</course>
  <speed>0.01</speed>
  <fix>3d</fix>
</trkpt>
<trkpt lat="-27.274017" lon="151.2900681">
  <ele>343.08</ele>
  <time>2026-09-01T19:50:26Z</time>
  <course>173.24</course>
  <speed>0.0</speed>
  <fix>3d</fix>
</trkpt>
<trkpt lat="-27.2740171" lon="151.2900682">
  <ele>343.05</ele>
  <time>2026-09-01T19:50:26Z</time>
  <course>1.93</course>
  <speed>0.01</speed>
  <fix>3d</fix>
</trkpt>
<trkpt lat="-27.274017" lon="151.2900681">
  <ele>343.08</ele>
  <time>2026-09-01T19:50:26Z</time>
  <course>173.33</course>
  <speed>0.0</speed>
  <fix>3d</fix>
</trkpt>
<trkpt lat="-27.2740171" lon="151.2900682">
  <ele>343.05</ele>
  <time>2026-09-01T19:50:26Z</time>
  <course>1.94</course>
  <speed>0.01</speed>
  <fix>3d</fix>
</trkpt>
<trkpt lat="-27.274017" lon="151.2900681">
  <ele>343.08</ele>
  <time>2026-09-01T19:50:26Z</time>
  <course>173.33</course>
  <speed>0.0</speed>
  <fix>3d</fix>
</trkpt>
<trkpt lat="-27.2740171" lon="151.2900682">
  <ele>343.05</ele>
  <time>2026-09-01T19:50:26Z</time>
  <course>1.95</course>
  <speed>0.01</speed>
  <fix>3d</fix>
</trkpt>
<trkpt lat="-27.274017" lon="151.2900681">
  <ele>343.08</ele>
  <time>2026-09-01T19:50:26Z</time>
  <course>173.01</course>
  <speed>0.0</speed>
  <fix>3d</fix>
</trkpt>
<trkpt lat="-27.274017" lon="151.2900681">
  <ele>343.08</ele>
  <time>2026-09-01T19:50:26Z</time>
  <course>1.2</course>
  <speed>0.0</speed>
  <fix>3d</fix>
</trkpt>
<trkpt lat="-27.274017" lon="151.2900681">
  <ele>343.08</ele>
  <time>2026-09-01T19:50:26Z</time>
  <course>173.01</course>
  <speed>0.0</speed>
  <fix>3d</fix>
</trkpt>
<trkpt lat="-27.274017" lon="151.2900681">
  <ele>343.08</ele>
  <time>2026-09-01T19:50:26Z</time>
  <course>1.2</course>
  <speed>0.0</speed>
  <fix>3d</fix>
</trkpt>
<trkpt lat="-27.274017" lon="151.2900681">
  <ele>343.08</ele>
  <time>2026-09-01T19:50:26Z</time>
  <course>172.86</course>
  <speed>0.0</speed>
  <fix>3d</fix>
</trkpt>
<trkpt lat="-27.274017" lon="151.2900681">
  <ele>343.08</ele>
  <time>2026-09-01T19:50:26Z</time>
  <course>1.2</course>
  <speed>0.0</speed>
  <fix>3d</fix>
</trkpt>
<trkpt lat="-27.274017" lon="151.2900681">
  <ele>343.08</ele>
  <time>2026-09-01T19:50:26Z</time>
  <course>172.86</course>
  <speed>0.0</speed>
  <fix>3d</fix>
</trkpt>
<trkpt lat="-27.274017" lon="151.2900681">
  <ele>343.08</ele>
  <time>2026-09-01T19:50:26Z</time>
  <course>1.2</course>
  <speed>0.0</speed>
  <fix>3d</fix>
</trkpt>
<trkpt lat="-27.274017" lon="151.2900681">
  <ele>343.08</ele>
  <time>2026-09-01T19:50:26Z</time>
  <course>172.87</course>
  <speed>0.0</speed>
  <fix>3d</fix>
</trkpt>
<trkpt lat="-27.274017" lon="151.2900681">
  <ele>343.08</ele>
  <time>2026-09-01T19:50:26Z</time>
  <course>1.2</course>
  <speed>0.0</speed>
  <fix>3d</fix>
</trkpt>
<trkpt lat="-27.274017" lon="151.2900681">
  <ele>343.08</ele>
  <time>2026-09-01T19:50:26Z</time>
  <course>172.87</course>
  <speed>0.0</speed>
  <fix>3d</fix>
</trkpt>
<trkpt lat="-27.274017" lon="151.2900681">
  <ele>343.08</ele>
  <time>2026-09-01T19:50:26Z</time>
  <course>1.2</course>
  <speed>0.0</speed>
  <fix>3d</fix>
</trkpt>
<trkpt lat="-27.274017" lon="151.2900681">
  <ele>343.08</ele>
  <time>2026-09-01T19:50:26Z</time>
  <course>172.81</course>
  <speed>0.0</speed>
  <fix>3d</fix>
</trkpt>
<trkpt lat="-27.274017" lon="151.2900681">
  <ele>343.08</ele>
  <time>2026-09-01T19:50:26Z</time>
  <course>1.2</course>
  <speed>0.0</speed>
  <fix>3d</fix>
</trkpt>
<trkpt lat="-27.274017" lon="151.2900681">
  <ele>343.08</ele>
  <time>2026-09-01T19:50:26Z</time>
  <course>172.81</course>
  <speed>0.0</speed>
  <fix>3d</fix>
</trkpt>
<trkpt lat="-27.274017" lon="151.2900681">
  <ele>343.08</ele>
  <time>2026-09-01T19:50:26Z</time>
  <course>1.2</course>
  <speed>0.0</speed>
  <fix>3d</fix>
</trkpt>
<trkpt lat="-27.274017" lon="151.2900681">
  <ele>343.08</ele>
  <time>2026-09-01T19:50:26Z</time>
  <course>172.74</course>
  <speed>0.0</speed>
  <fix>3d</fix>
</trkpt>
<trkpt lat="-27.274017" lon="151.2900681">
  <ele>343.08</ele>
  <time>2026-09-01T19:50:26Z</time>
  <course>1.2</course>
  <speed>0.0</speed>
  <fix>3d</fix>
</trkpt>
<trkpt lat="-27.274017" lon="151.2900681">
  <ele>343.08</ele>
  <time>2026-09-01T19:50:26Z</time>
  <course>172.74</course>
  <speed>0.0</speed>
  <fix>3d</fix>
</trkpt>
<trkpt lat="-27.274017" lon="151.2900681">
  <ele>343.08</ele>
  <time>2026-09-01T19:50:26Z</time>
  <course>1.2</course>
  <speed>0.0</speed>
  <fix>3d</fix>
</trkpt>
<trkpt lat="-27.274017" lon="151.2900681">
  <ele>343.08</ele>
  <time>2026-09-01T19:50:26Z</time>
  <course>172.7</course>
  <speed>0.0</speed>
  <fix>3d</fix>
</trkpt>
<trkpt lat="-27.274017" lon="151.2900681">
  <ele>343.08</ele>
  <time>2026-09-01T19:50:26Z</time>
  <course>1.2</course>
  <speed>0.0</speed>
  <fix>3d</fix>
</trkpt>
<trkpt lat="-27.274017" lon="151.2900681">
  <ele>343.08</ele>
  <time>2026-09-01T19:50:26Z</time>
  <course>172.7</course>
  <speed>0.0</speed>
  <fix>3d</fix>
</trkpt>
<trkpt lat="-27.274017" lon="151.2900681">
  <ele>343.08</ele>
  <time>2026-09-01T19:50:26Z</time>
  <course>1.2</course>
  <speed>0.0</speed>
  <fix>3d</fix>
</trkpt>
<trkpt lat="-27.274017" lon="151.2900681">
  <ele>343.08</ele>
  <time>2026-09-01T19:50:26Z</time>
  <course>172.69</course>
  <speed>0.0</speed>
  <fix>3d</fix>
</trkpt>
<trkpt lat="-27.2744396" lon="151.290064">
  <ele>343.1</ele>
  <time>2026-09-01T19:50:26Z</time>
  <course>8.0</course>
  <speed>0.0</speed>
  <fix>3d</fix>
</trkpt>
<trkpt lat="-27.2744395" lon="151.290064">
  <ele>343.1</ele>
  <time>2026-09-01T19:50:26Z</time>
  <course>8.0</course>
  <speed>0.1711724276862369</speed>
  <fix>3d</fix>
</trkpt>
<trkpt lat="-27.2744393" lon="151.290064">
  <ele>343.1</ele>
  <time>2026-09-01T19:50:26Z</time>
  <course>8.0</course>
  <speed>0.27166155414412246</speed>
  <fix>3d</fix>
</trkpt>
<trkpt lat="-27.2744391" lon="151.290064">
  <ele>343.1</ele>
  <time>2026-09-01T19:50:26Z</time>
  <course>8.0</course>
  <speed>0.18110770276274835</speed>
  <fix>3d</fix>
</trkpt>
<trkpt lat="-27.274439" lon="151.290064">
  <ele>343.1</ele>
  <time>2026-09-01T19:50:26Z</time>
  <course>8.0</course>
  <speed>0.05</speed>
  <fix>3d</fix>
</trkpt>
<trkpt lat="-27.274439" lon="151.290064">
  <ele>343.1</ele>
  <time>2026-09-01T19:50:26Z</time>
  <course>8.0</course>
  <speed>0.02</speed>
  <fix>3d</fix>
</trkpt>
<trkpt lat="-27.274439" lon="151.290064">
  <ele>343.1</ele>
  <time>2026-09-01T19:50:26Z</time>
  <course>8.0</course>
  <speed>0.03</speed>
  <fix>3d</fix>
</trkpt>
<trkpt lat="-27.274439" lon="151.290064">
  <ele>343.1</ele>
  <time>2026-09-01T19:50:26Z</time>
  <course>8.0</course>
  <speed>0.02</speed>
  <fix>3d</fix>
</trkpt>
<trkpt lat="-27.274439" lon="151.290064">
  <ele>343.1</ele>
  <time>2026-09-01T19:50:26Z</time>
  <course>8.0</course>
  <speed>0.0</speed>
  <fix>3d</fix>
</trkpt>
<trkpt lat="-27.274439" lon="151.290064">
  <ele>343.1</ele>
  <time>2026-09-01T19:50:26Z</time>
  <course>8.0</course>
  <speed>0.0</speed>
  <fix>3d</fix>
</trkpt>
<trkpt lat="-27.274439" lon="151.290064">
  <ele>343.1</ele>
  <time>2026-09-01T19:50:26Z</time>
  <course>8.0</course>
  <speed>0.0</speed>
  <fix>3d</fix>
</trkpt>
<trkpt lat="-27.274439" lon="151.290064">
  <ele>343.1</ele>
  <time>2026-09-01T19:50:26Z</time>
  <course>8.0</course>
  <speed>0.0</speed>
  <fix>3d</fix>
</trkpt>
<trkpt lat="-27.274439" lon="151.290064">
  <ele>343.1</ele>
  <time>2026-09-01T19:50:26Z</time>
  <course>8.0</course>
  <speed>0.0</speed>
  <fix>3d</fix>
</trkpt>
<trkpt lat="-27.274439" lon="151.290064">
  <ele>343.1</ele>
  <time>2026-09-01T19:50:26Z</time>
  <course>8.0</course>
  <speed>0.0</speed>
  <fix>3d</fix>
</trkpt>
<trkpt lat="-27.274439" lon="151.290064">
  <ele>343.1</ele>
  <time>2026-09-01T19:50:26Z</time>
  <course>8.0</course>
  <speed>0.0</speed>
  <fix>3d</fix>
</trkpt>
<trkpt lat="-27.274439" lon="151.290064">
  <ele>343.1</ele>
  <time>2026-09-01T19:50:26Z</time>
  <course>8.0</course>
  <speed>0.0</speed>
  <fix>3d</fix>
</trkpt>
<trkpt lat="-27.274439" lon="151.290064">
  <ele>343.1</ele>
  <time>2026-09-01T19:50:26Z</time>
  <course>8.0</course>
  <speed>0.0</speed>
  <fix>3d</fix>
</trkpt>
<trkpt lat="-27.274439" lon="151.290064">
  <ele>343.1</ele>
  <time>2026-09-01T19:50:26Z</time>
  <course>8.0</course>
  <speed>0.0</speed>
  <fix>3d</fix>
</trkpt>
<trkpt lat="-27.274439" lon="151.290064">
  <ele>343.1</ele>
  <time>2026-09-01T19:50:26Z</time>
  <course>8.0</course>
  <speed>0.0</speed>
  <fix>3d</fix>
</trkpt>
<trkpt lat="-27.274439" lon="151.290064">
  <ele>343.1</ele>
  <time>2026-09-01T19:50:26Z</time>
  <course>8.0</course>
  <speed>0.0</speed>
  <fix>3d</fix>
</trkpt>
<trkpt lat="-27.274439" lon="151.290064">
  <ele>343.1</ele>
  <time>2026-09-01T19:50:26Z</time>
  <course>8.0</course>
  <speed>0.0</speed>
  <fix>3d</fix>
</trkpt>
<trkpt lat="-27.274439" lon="151.290064">
  <ele>343.1</ele>
  <time>2026-09-01T19:50:26Z</time>
  <course>8.0</course>
  <speed>0.0</speed>
  <fix>3d</fix>
</trkpt>
<trkpt lat="-27.274439" lon="151.290064">
  <ele>343.1</ele>
  <time>2026-09-01T19:50:26Z</time>
  <course>8.0</course>
  <speed>0.0</speed>
  <fix>3d</fix>
</trkpt>
<trkpt lat="-27.274439" lon="151.290064">
  <ele>343.1</ele>
  <time>2026-09-01T19:50:26Z</time>
  <course>8.0</course>
  <speed>0.0</speed>
  <fix>3d</fix>
</trkpt>
<trkpt lat="-27.274439" lon="151.290064">
  <ele>343.1</ele>
  <time>2026-09-01T19:50:26Z</time>
  <course>8.0</course>
  <speed>0.0</speed>
  <fix>3d</fix>
</trkpt>
<trkpt lat="-27.274439" lon="151.290064">
  <ele>343.1</ele>
  <time>2026-09-01T19:50:26Z</time>
  <course>8.0</course>
  <speed>0.0</speed>
  <fix>3d</fix>
</trkpt>
<trkpt lat="-27.274439" lon="151.290064">
  <ele>343.1</ele>
  <time>2026-09-01T19:50:26Z</time>
  <course>8.0</course>
  <speed>0.0</speed>
  <fix>3d</fix>
</trkpt>
<trkpt lat="-27.274439" lon="151.290064">
  <ele>343.1</ele>
  <time>2026-09-01T19:50:26Z</time>
  <course>8.0</course>
  <speed>0.0</speed>
  <fix>3d</fix>
</trkpt>
<trkpt lat="-27.274439" lon="151.290064">
  <ele>343.1</ele>
  <time>2026-09-01T19:50:26Z</time>
  <course>8.0</course>
  <speed>0.0</speed>
  <fix>3d</fix>
</trkpt>
<trkpt lat="-27.274439" lon="151.290064">
  <ele>343.1</ele>
  <time>2026-09-01T19:50:26Z</time>
  <course>8.0</course>
  <speed>0.0</speed>
  <fix>3d</fix>
</trkpt>
<trkpt lat="-27.274439" lon="151.290064">
  <ele>343.1</ele>
  <time>2026-09-01T19:50:26Z</time>
  <course>8.0</course>
  <speed>0.0</speed>
  <fix>3d</fix>
</trkpt>
<trkpt lat="-27.274439" lon="151.290064">
  <ele>343.1</ele>
  <time>2026-09-01T19:50:26Z</time>
  <course>8.0</course>
  <speed>0.0</speed>
  <fix>3d</fix>
</trkpt>
<trkpt lat="-27.274439" lon="151.290064">
  <ele>343.1</ele>
  <time>2026-09-01T19:50:26Z</time>
  <course>8.0</course>
  <speed>0.0</speed>
  <fix>3d</fix>
</trkpt>
<trkpt lat="-27.274439" lon="151.290064">
  <ele>343.1</ele>
  <time>2026-09-01T19:50:26Z</time>
  <course>8.0</course>
  <speed>0.0</speed>
  <fix>3d</fix>
</trkpt>
<trkpt lat="-27.274439" lon="151.290064">
  <ele>343.1</ele>
  <time>2026-09-01T19:50:26Z</time>
  <course>8.0</course>
  <speed>0.0</speed>
  <fix>3d</fix>
</trkpt>
<trkpt lat="-27.274439" lon="151.290064">
  <ele>343.1</ele>
  <time>2026-09-01T19:50:26Z</time>
  <course>8.0</course>
  <speed>0.0</speed>
  <fix>3d</fix>
</trkpt>
<trkpt lat="-27.274439" lon="151.290064">
  <ele>343.1</ele>
  <time>2026-09-01T19:50:26Z</time>
  <course>8.0</course>
  <speed>0.0</speed>
  <fix>3d</fix>
</trkpt>
<trkpt lat="-27.274439" lon="151.290064">
  <ele>343.1</ele>
  <time>2026-09-01T19:50:26Z</time>
  <course>8.0</course>
  <speed>0.0</speed>
  <fix>3d</fix>
</trkpt>
<trkpt lat="-27.274439" lon="151.290064">
  <ele>343.1</ele>
  <time>2026-09-01T19:50:26Z</time>
  <course>8.0</course>
  <speed>0.0</speed>
  <fix>3d</fix>
</trkpt>
<trkpt lat="-27.274439" lon="151.290064">
  <ele>343.1</ele>
  <time>2026-09-01T19:50:26Z</time>
  <course>8.0</course>
  <speed>0.0</speed>
  <fix>3d</fix>
</trkpt>
<trkpt lat="-27.274439" lon="151.290064">
  <ele>343.1</ele>
  <time>2026-09-01T19:50:26Z</time>
  <course>8.0</course>
  <speed>0.0</speed>
  <fix>3d</fix>
</trkpt>
<trkpt lat="-27.274439" lon="151.290064">
  <ele>343.1</ele>
  <time>2026-09-01T19:50:26Z</time>
  <course>8.0</course>
  <speed>0.0</speed>
  <fix>3d</fix>
</trkpt>
<trkpt lat="-27.274439" lon="151.290064">
  <ele>343.1</ele>
  <time>2026-09-01T19:50:26Z</time>
  <course>8.0</course>
  <speed>0.0</speed>
  <fix>3d</fix>
</trkpt>
<trkpt lat="-27.274439" lon="151.290064">
  <ele>343.1</ele>
  <time>2026-09-01T19:50:26Z</time>
  <course>8.0</course>
  <speed>0.0</speed>
  <fix>3d</fix>
</trkpt>
<trkpt lat="-27.274439" lon="151.290064">
  <ele>343.1</ele>
  <time>2026-09-01T19:50:26Z</time>
  <course>8.0</course>
  <speed>0.0</speed>
  <fix>3d</fix>
</trkpt>
<trkpt lat="-27.274439" lon="151.290064">
  <ele>343.1</ele>
  <time>2026-09-01T19:50:26Z</time>
  <course>8.0</course>
  <speed>0.0</speed>
  <fix>3d</fix>
</trkpt>
<trkpt lat="-27.274439" lon="151.290064">
  <ele>343.1</ele>
  <time>2026-09-01T19:50:26Z</time>
  <course>8.0</course>
  <speed>0.0</speed>
  <fix>3d</fix>
</trkpt>
<trkpt lat="-27.274439" lon="151.290064">
  <ele>343.1</ele>
  <time>2026-09-01T19:50:26Z</time>
  <course>8.0</course>
  <speed>0.0</speed>
  <fix>3d</fix>
</trkpt>
<trkpt lat="-27.274439" lon="151.290064">
  <ele>343.1</ele>
  <time>2026-09-01T19:50:26Z</time>
  <course>8.0</course>
  <speed>0.0</speed>
  <fix>3d</fix>
</trkpt>
<trkpt lat="-27.274439" lon="151.290064">
  <ele>343.1</ele>
  <time>2026-09-01T19:50:26Z</time>
  <course>8.0</course>
  <speed>0.0</speed>
  <fix>3d</fix>
</trkpt>
<trkpt lat="-27.274439" lon="151.290064">
  <ele>343.1</ele>
  <time>2026-09-01T19:50:26Z</time>
  <course>8.0</course>
  <speed>0.0</speed>
  <fix>3d</fix>
</trkpt>
<trkpt lat="-27.274439" lon="151.290064">
  <ele>343.1</ele>
  <time>2026-09-01T19:50:26Z</time>
  <course>8.0</course>
  <speed>0.0</speed>
  <fix>3d</fix>
</trkpt>
<trkpt lat="-27.274439" lon="151.290064">
  <ele>343.1</ele>
  <time>2026-09-01T19:50:26Z</time>
  <course>8.0</course>
  <speed>0.0</speed>
  <fix>3d</fix>
</trkpt>
<trkpt lat="-27.274439" lon="151.290064">
  <ele>343.1</ele>
  <time>2026-09-01T19:50:26Z</time>
  <course>8.0</course>
  <speed>0.0</speed>
  <fix>3d</fix>
</trkpt>
<trkpt lat="-27.274439" lon="151.290064">
  <ele>343.1</ele>
  <time>2026-09-01T19:50:26Z</time>
  <course>8.0</course>
  <speed>0.0</speed>
  <fix>3d</fix>
</trkpt>
<trkpt lat="-27.274439" lon="151.290064">
  <ele>343.1</ele>
  <time>2026-09-01T19:50:26Z</time>
  <course>8.0</course>
  <speed>0.0</speed>
  <fix>3d</fix>
</trkpt>
<trkpt lat="-27.274439" lon="151.290064">
  <ele>343.1</ele>
  <time>2026-09-01T19:50:26Z</time>
  <course>8.0</course>
  <speed>0.0</speed>
  <fix>3d</fix>
</trkpt>
<trkpt lat="-27.274439" lon="151.290064">
  <ele>343.1</ele>
  <time>2026-09-01T19:50:26Z</time>
  <course>8.0</course>
  <speed>0.0</speed>
  <fix>3d</fix>
</trkpt>
<trkpt lat="-27.274439" lon="151.290064">
  <ele>343.1</ele>
  <time>2026-09-01T19:50:26Z</time>
  <course>8.0</course>
  <speed>0.0</speed>
  <fix>3d</fix>
</trkpt>
<trkpt lat="-27.274439" lon="151.290064">
  <ele>343.1</ele>
  <time>2026-09-01T19:50:26Z</time>
  <course>8.0</course>
  <speed>0.0</speed>
  <fix>3d</fix>
</trkpt>
<trkpt lat="-27.274439" lon="151.290064">
  <ele>343.1</ele>
  <time>2026-09-01T19:50:26Z</time>
  <course>8.0</course>
  <speed>0.0</speed>
  <fix>3d</fix>
</trkpt>
<trkpt lat="-27.274439" lon="151.290064">
  <ele>343.1</ele>
  <time>2026-09-01T19:50:26Z</time>
  <course>8.0</course>
  <speed>0.0</speed>
  <fix>3d</fix>
</trkpt>
<trkpt lat="-27.274439" lon="151.290064">
  <ele>343.1</ele>
  <time>2026-09-01T19:50:26Z</time>
  <course>8.0</course>
  <speed>0.0</speed>
  <fix>3d</fix>
</trkpt>
<trkpt lat="-27.274439" lon="151.290064">
  <ele>343.1</ele>
  <time>2026-09-01T19:50:26Z</time>
  <course>8.0</course>
  <speed>0.0</speed>
  <fix>3d</fix>
</trkpt>
<trkpt lat="-27.274439" lon="151.290064">
  <ele>343.1</ele>
  <time>2026-09-01T19:50:26Z</time>
  <course>8.0</course>
  <speed>0.0</speed>
  <fix>3d</fix>
</trkpt>
<trkpt lat="-27.274439" lon="151.290064">
  <ele>343.1</ele>
  <time>2026-09-01T19:50:26Z</time>
  <course>8.0</course>
  <speed>0.0</speed>
  <fix>3d</fix>
</trkpt>
<trkpt lat="-27.274439" lon="151.290064">
  <ele>343.1</ele>
  <time>2026-09-01T19:50:26Z</time>
  <course>8.0</course>
  <speed>0.0</speed>
  <fix>3d</fix>
</trkpt>
<trkpt lat="-27.274439" lon="151.290064">
  <ele>343.1</ele>
  <time>2026-09-01T19:50:26Z</time>
  <course>8.0</course>
  <speed>0.0</speed>
  <fix>3d</fix>
</trkpt>
<trkpt lat="-27.274439" lon="151.290064">
  <ele>343.1</ele>
  <time>2026-09-01T19:50:26Z</time>
  <course>8.0</course>
  <speed>0.0</speed>
  <fix>3d</fix>
</trkpt>
<trkpt lat="-27.274439" lon="151.290064">
  <ele>343.1</ele>
  <time>2026-09-01T19:50:26Z</time>
  <course>8.0</course>
  <speed>0.0</speed>
  <fix>3d</fix>
</trkpt>
<trkpt lat="-27.274439" lon="151.290064">
  <ele>343.1</ele>
  <time>2026-09-01T19:50:26Z</time>
  <course>8.0</course>
  <speed>0.0</speed>
  <fix>3d</fix>
</trkpt>
<trkpt lat="-27.274439" lon="151.290064">
  <ele>343.1</ele>
  <time>2026-09-01T19:50:26Z</time>
  <course>8.0</course>
  <speed>0.0</speed>
  <fix>3d</fix>
</trkpt>
<trkpt lat="-27.274439" lon="151.290064">
  <ele>343.1</ele>
  <time>2026-09-01T19:50:26Z</time>
  <course>8.0</course>
  <speed>0.0</speed>
  <fix>3d</fix>
</trkpt>
<trkpt lat="-27.274439" lon="151.290064">
  <ele>343.1</ele>
  <time>2026-09-01T19:50:26Z</time>
  <course>8.0</course>
  <speed>0.0</speed>
  <fix>3d</fix>
</trkpt>
<trkpt lat="-27.274439" lon="151.290064">
  <ele>343.1</ele>
  <time>2026-09-01T19:50:26Z</time>
  <course>8.0</course>
  <speed>0.0</speed>
  <fix>3d</fix>
</trkpt>
<trkpt lat="-26.9720619" lon="149.6127921">
  <ele>339.29</ele>
  <time>2026-09-01T19:50:26Z</time>
  <course>310.27</course>
  <speed>0.0</speed>
  <fix>3d</fix>
</trkpt>
<trkpt lat="-27.274439" lon="151.290064">
  <ele>343.1</ele>
  <time>2026-09-01T19:50:26Z</time>
  <course>8.0</course>
  <speed>0.0</speed>
  <fix>3d</fix>
</trkpt>
<trkpt lat="-26.9720619" lon="149.6127921">
  <ele>339.29</ele>
  <time>2026-09-01T19:50:26Z</time>
  <course>310.27</course>
  <speed>0.0</speed>
  <fix>3d</fix>
</trkpt>
<trkpt lat="-27.274439" lon="151.290064">
  <ele>343.1</ele>
  <time>2026-09-01T19:50:26Z</time>
  <course>8.0</course>
  <speed>0.0</speed>
  <fix>3d</fix>
</trkpt>
<trkpt lat="-27.274439" lon="151.290064">
  <ele>343.1</ele>
  <time>2026-09-01T19:50:26Z</time>
  <course>294.58</course>
  <speed>0.0</speed>
  <fix>3d</fix>
</trkpt>
<trkpt lat="-27.274439" lon="151.290064">
  <ele>343.1</ele>
  <time>2026-09-01T19:50:26Z</time>
  <course>8.0</course>
  <speed>0.0</speed>
  <fix>3d</fix>
</trkpt>
<trkpt lat="-27.274439" lon="151.290064">
  <ele>343.1</ele>
  <time>2026-09-01T19:50:26Z</time>
  <course>294.58</course>
  <speed>0.0</speed>
  <fix>3d</fix>
</trkpt>
<trkpt lat="-27.274439" lon="151.290064">
  <ele>343.1</ele>
  <time>2026-09-01T19:50:26Z</time>
  <course>8.0</course>
  <speed>0.0</speed>
  <fix>3d</fix>
</trkpt>
<trkpt lat="-27.274439" lon="151.290064">
  <ele>343.1</ele>
  <time>2026-09-01T19:50:26Z</time>
  <course>273.33</course>
  <speed>0.0</speed>
  <fix>3d</fix>
</trkpt>
<trkpt lat="-27.274439" lon="151.290064">
  <ele>343.1</ele>
  <time>2026-09-01T19:50:26Z</time>
  <course>8.0</course>
  <speed>0.0</speed>
  <fix>3d</fix>
</trkpt>
<trkpt lat="-27.274439" lon="151.290064">
  <ele>343.1</ele>
  <time>2026-09-01T19:50:26Z</time>
  <course>273.33</course>
  <speed>0.0</speed>
  <fix>3d</fix>
</trkpt>
<trkpt lat="-27.274439" lon="151.290064">
  <ele>343.1</ele>
  <time>2026-09-01T19:50:26Z</time>
  <course>8.0</course>
  <speed>0.0</speed>
  <fix>3d</fix>
</trkpt>
<trkpt lat="-27.274439" lon="151.290064">
  <ele>343.1</ele>
  <time>2026-09-01T19:50:26Z</time>
  <course>270.44</course>
  <speed>0.0</speed>
  <fix>3d</fix>
</trkpt>
<trkpt lat="-27.274439" lon="151.290064">
  <ele>343.1</ele>
  <time>2026-09-01T19:50:26Z</time>
  <course>8.0</course>
  <speed>0.0</speed>
  <fix>3d</fix>
</trkpt>
<trkpt lat="-27.274439" lon="151.290064">
  <ele>343.1</ele>
  <time>2026-09-01T19:50:26Z</time>
  <course>270.44</course>
  <speed>0.0</speed>
  <fix>3d</fix>
</trkpt>
<trkpt lat="-27.274439" lon="151.290064">
  <ele>343.1</ele>
  <time>2026-09-01T19:50:26Z</time>
  <course>8.0</course>
  <speed>0.0</speed>
  <fix>3d</fix>
</trkpt>
<trkpt lat="-27.274439" lon="151.290064">
  <ele>343.1</ele>
  <time>2026-09-01T19:50:26Z</time>
  <course>270.05</course>
  <speed>0.0</speed>
  <fix>3d</fix>
</trkpt>
<trkpt lat="-27.274439" lon="151.290064">
  <ele>343.1</ele>
  <time>2026-09-01T19:50:26Z</time>
  <course>8.0</course>
  <speed>0.0</speed>
  <fix>3d</fix>
</trkpt>
<trkpt lat="-27.274439" lon="151.290064">
  <ele>343.1</ele>
  <time>2026-09-01T19:50:26Z</time>
  <course>270.05</course>
  <speed>0.0</speed>
  <fix>3d</fix>
</trkpt>
<trkpt lat="-27.274439" lon="151.290064">
  <ele>343.1</ele>
  <time>2026-09-01T19:50:26Z</time>
  <course>8.0</course>
  <speed>0.0</speed>
  <fix>3d</fix>
</trkpt>
<trkpt lat="-27.274439" lon="151.290064">
  <ele>343.1</ele>
  <time>2026-09-01T19:50:26Z</time>
  <course>270.0</course>
  <speed>0.0</speed>
  <fix>3d</fix>
</trkpt>
<trkpt lat="-27.274439" lon="151.290064">
  <ele>343.1</ele>
  <time>2026-09-01T19:50:26Z</time>
  <course>8.0</course>
  <speed>0.0</speed>
  <fix>3d</fix>
</trkpt>
<trkpt lat="-27.274439" lon="151.290064">
  <ele>343.1</ele>
  <time>2026-09-01T19:50:26Z</time>
  <course>270.0</course>
  <speed>0.0</speed>
  <fix>3d</fix>
</trkpt>
<trkpt lat="-27.274439" lon="151.290064">
  <ele>343.1</ele>
  <time>2026-09-01T19:50:26Z</time>
  <course>8.0</course>
  <speed>0.0</speed>
  <fix>3d</fix>
</trkpt>
<trkpt lat="-27.274439" lon="151.290064">
  <ele>343.1</ele>
  <time>2026-09-01T19:50:26Z</time>
  <course>270.0</course>
  <speed>0.0</speed>
  <fix>3d</fix>
</trkpt>
<trkpt lat="-27.274439" lon="151.290064">
  <ele>343.1</ele>
  <time>2026-09-01T19:50:26Z</time>
  <course>8.0</course>
  <speed>0.0</speed>
  <fix>3d</fix>
</trkpt>
<trkpt lat="-27.274439" lon="151.290064">
  <ele>343.1</ele>
  <time>2026-09-01T19:50:26Z</time>
  <course>270.0</course>
  <speed>0.0</speed>
  <fix>3d</fix>
</trkpt>
<trkpt lat="-27.274439" lon="151.290064">
  <ele>343.1</ele>
  <time>2026-09-01T19:50:26Z</time>
  <course>8.0</course>
  <speed>0.0</speed>
  <fix>3d</fix>
</trkpt>
<trkpt lat="-27.274439" lon="151.290064">
  <ele>343.1</ele>
  <time>2026-09-01T19:50:26Z</time>
  <course>270.0</course>
  <speed>0.0</speed>
  <fix>3d</fix>
</trkpt>
<trkpt lat="-27.274439" lon="151.290064">
  <ele>343.1</ele>
  <time>2026-09-01T19:50:26Z</time>
  <course>8.0</course>
  <speed>0.0</speed>
  <fix>3d</fix>
</trkpt>
<trkpt lat="-27.274439" lon="151.290064">
  <ele>343.1</ele>
  <time>2026-09-01T19:50:26Z</time>
  <course>270.0</course>
  <speed>0.0</speed>
  <fix>3d</fix>
</trkpt>
<trkpt lat="-27.274439" lon="151.290064">
  <ele>343.1</ele>
  <time>2026-09-01T19:50:26Z</time>
  <course>8.0</course>
  <speed>0.0</speed>
  <fix>3d</fix>
</trkpt>
<trkpt lat="-27.274439" lon="151.290064">
  <ele>343.1</ele>
  <time>2026-09-01T19:50:26Z</time>
  <course>270.0</course>
  <speed>0.0</speed>
  <fix>3d</fix>
</trkpt>
<trkpt lat="-27.274439" lon="151.290064">
  <ele>343.1</ele>
  <time>2026-09-01T19:50:26Z</time>
  <course>8.0</course>
  <speed>0.0</speed>
  <fix>3d</fix>
</trkpt>
<trkpt lat="-27.274439" lon="151.290064">
  <ele>343.1</ele>
  <time>2026-09-01T19:50:26Z</time>
  <course>270.0</course>
  <speed>0.0</speed>
  <fix>3d</fix>
</trkpt>
<trkpt lat="-27.274439" lon="151.290064">
  <ele>343.1</ele>
  <time>2026-09-01T19:50:27Z</time>
  <course>8.0</course>
  <speed>0.0</speed>
  <fix>3d</fix>
</trkpt>
<trkpt lat="-27.274439" lon="151.290064">
  <ele>343.1</ele>
  <time>2026-09-01T19:50:27Z</time>
  <course>270.0</course>
  <speed>0.0</speed>
  <fix>3d</fix>
</trkpt>
<trkpt lat="-27.274439" lon="151.290064">
  <ele>343.1</ele>
  <time>2026-09-01T19:50:27Z</time>
  <course>8.0</course>
  <speed>0.0</speed>
  <fix>3d</fix>
</trkpt>
<trkpt lat="-27.274439" lon="151.290064">
  <ele>343.1</ele>
  <time>2026-09-01T19:50:27Z</time>
  <course>270.0</course>
  <speed>0.0</speed>
  <fix>3d</fix>
</trkpt>
<trkpt lat="-27.274439" lon="151.290064">
  <ele>343.1</ele>
  <time>2026-09-01T19:50:27Z</time>
  <course>8.0</course>
  <speed>0.0</speed>
  <fix>3d</fix>
</trkpt>
<trkpt lat="-27.274439" lon="151.290064">
  <ele>343.1</ele>
  <time>2026-09-01T19:50:27Z</time>
  <course>270.0</course>
  <speed>0.0</speed>
  <fix>3d</fix>
</trkpt>
<trkpt lat="-27.274439" lon="151.290064">
  <ele>343.1</ele>
  <time>2026-09-01T19:50:27Z</time>
  <course>8.0</course>
  <speed>0.0</speed>
  <fix>3d</fix>
</trkpt>
<trkpt lat="-27.274439" lon="151.290064">
  <ele>343.1</ele>
  <time>2026-09-01T19:50:27Z</time>
  <course>270.0</course>
  <speed>0.0</speed>
  <fix>3d</fix>
</trkpt>
<trkpt lat="-27.274439" lon="151.290064">
  <ele>343.1</ele>
  <time>2026-09-01T19:50:27Z</time>
  <course>8.0</course>
  <speed>0.0</speed>
  <fix>3d</fix>
</trkpt>
<trkpt lat="-27.274439" lon="151.290064">
  <ele>343.1</ele>
  <time>2026-09-01T19:50:27Z</time>
  <course>270.0</course>
  <speed>0.0</speed>
  <fix>3d</fix>
</trkpt>
<trkpt lat="-27.274439" lon="151.290064">
  <ele>343.1</ele>
  <time>2026-09-01T19:50:27Z</time>
  <course>8.0</course>
  <speed>0.0</speed>
  <fix>3d</fix>
</trkpt>
<trkpt lat="-27.274439" lon="151.290064">
  <ele>343.1</ele>
  <time>2026-09-01T19:50:27Z</time>
  <course>270.0</course>
  <speed>0.0</speed>
  <fix>3d</fix>
</trkpt>
<trkpt lat="-27.274439" lon="151.290064">
  <ele>343.1</ele>
  <time>2026-09-01T19:50:27Z</time>
  <course>8.0</course>
  <speed>0.0</speed>
  <fix>3d</fix>
</trkpt>
<trkpt lat="-27.274439" lon="151.290064">
  <ele>343.1</ele>
  <time>2026-09-01T19:50:27Z</time>
  <course>270.0</course>
  <speed>0.0</speed>
  <fix>3d</fix>
</trkpt>
<trkpt lat="-27.274439" lon="151.290064">
  <ele>343.1</ele>
  <time>2026-09-01T19:50:27Z</time>
  <course>8.0</course>
  <speed>0.0</speed>
  <fix>3d</fix>
</trkpt>
<trkpt lat="-27.274439" lon="151.290064">
  <ele>343.1</ele>
  <time>2026-09-01T19:50:27Z</time>
  <course>270.0</course>
  <speed>0.0</speed>
  <fix>3d</fix>
</trkpt>
<trkpt lat="-27.274439" lon="151.290064">
  <ele>343.1</ele>
  <time>2026-09-01T19:50:27Z</time>
  <course>8.0</course>
  <speed>0.0</speed>
  <fix>3d</fix>
</trkpt>
<trkpt lat="-27.274439" lon="151.290064">
  <ele>343.1</ele>
  <time>2026-09-01T19:50:27Z</time>
  <course>270.0</course>
  <speed>0.0</speed>
  <fix>3d</fix>
</trkpt>
<trkpt lat="-27.274439" lon="151.290064">
  <ele>343.1</ele>
  <time>2026-09-01T19:50:27Z</time>
  <course>8.0</course>
  <speed>0.0</speed>
  <fix>3d</fix>
</trkpt>
<trkpt lat="-27.274439" lon="151.290064">
  <ele>343.1</ele>
  <time>2026-09-01T19:50:27Z</time>
  <course>270.0</course>
  <speed>0.0</speed>
  <fix>3d</fix>
</trkpt>
<trkpt lat="-27.274439" lon="151.290064">
  <ele>343.1</ele>
  <time>2026-09-01T19:50:27Z</time>
  <course>8.0</course>
  <speed>0.0</speed>
  <fix>3d</fix>
</trkpt>
<trkpt lat="-27.274439" lon="151.290064">
  <ele>343.1</ele>
  <time>2026-09-01T19:50:27Z</time>
  <course>270.0</course>
  <speed>0.0</speed>
  <fix>3d</fix>
</trkpt>
<trkpt lat="-27.274439" lon="151.290064">
  <ele>343.1</ele>
  <time>2026-09-01T19:50:27Z</time>
  <course>8.0</course>
  <speed>0.0</speed>
  <fix>3d</fix>
</trkpt>
<trkpt lat="-27.274439" lon="151.290064">
  <ele>343.1</ele>
  <time>2026-09-01T19:50:27Z</time>
  <course>270.0</course>
  <speed>0.0</speed>
  <fix>3d</fix>
</trkpt>
<trkpt lat="-27.274439" lon="151.290064">
  <ele>343.1</ele>
  <time>2026-09-01T19:50:27Z</time>
  <course>8.0</course>
  <speed>0.0</speed>
  <fix>3d</fix>
</trkpt>
<trkpt lat="-27.274439" lon="151.290064">
  <ele>343.1</ele>
  <time>2026-09-01T19:50:27Z</time>
  <course>270.0</course>
  <speed>0.0</speed>
  <fix>3d</fix>
</trkpt>
<trkpt lat="-27.274439" lon="151.290064">
  <ele>343.1</ele>
  <time>2026-09-01T19:50:27Z</time>
  <course>8.0</course>
  <speed>0.0</speed>
  <fix>3d</fix>
</trkpt>
<trkpt lat="-27.274439" lon="151.290064">
  <ele>343.1</ele>
  <time>2026-09-01T19:50:27Z</time>
  <course>270.0</course>
  <speed>0.0</speed>
  <fix>3d</fix>
</trkpt>
<trkpt lat="-27.274439" lon="151.290064">
  <ele>343.1</ele>
  <time>2026-09-01T19:50:27Z</time>
  <course>8.0</course>
  <speed>0.0</speed>
  <fix>3d</fix>
</trkpt>
<trkpt lat="-27.274439" lon="151.290064">
  <ele>343.1</ele>
  <time>2026-09-01T19:50:27Z</time>
  <course>270.0</course>
  <speed>0.0</speed>
  <fix>3d</fix>
</trkpt>
<trkpt lat="-27.274439" lon="151.290064">
  <ele>343.1</ele>
  <time>2026-09-01T19:50:27Z</time>
  <course>8.0</course>
  <speed>0.0</speed>
  <fix>3d</fix>
</trkpt>
<trkpt lat="-27.274439" lon="151.290064">
  <ele>343.1</ele>
  <time>2026-09-01T19:50:27Z</time>
  <course>270.0</course>
  <speed>0.0</speed>
  <fix>3d</fix>
</trkpt>
<trkpt lat="-27.274439" lon="151.290064">
  <ele>343.1</ele>
  <time>2026-09-01T19:50:27Z</time>
  <course>8.0</course>
  <speed>0.0</speed>
  <fix>3d</fix>
</trkpt>
<trkpt lat="-27.274439" lon="151.290064">
  <ele>343.1</ele>
  <time>2026-09-01T19:50:27Z</time>
  <course>270.0</course>
  <speed>0.0</speed>
  <fix>3d</fix>
</trkpt>
<trkpt lat="-27.274439" lon="151.290064">
  <ele>343.1</ele>
  <time>2026-09-01T19:50:27Z</time>
  <course>8.0</course>
  <speed>0.0</speed>
  <fix>3d</fix>
</trkpt>
<trkpt lat="-27.274439" lon="151.290064">
  <ele>343.1</ele>
  <time>2026-09-01T19:50:27Z</time>
  <course>270.0</course>
  <speed>0.0</speed>
  <fix>3d</fix>
</trkpt>
<trkpt lat="-27.274439" lon="151.290064">
  <ele>343.1</ele>
  <time>2026-09-01T19:50:27Z</time>
  <course>8.0</course>
  <speed>0.0</speed>
  <fix>3d</fix>
</trkpt>
<trkpt lat="-27.274439" lon="151.290064">
  <ele>343.1</ele>
  <time>2026-09-01T19:50:27Z</time>
  <course>270.0</course>
  <speed>0.0</speed>
  <fix>3d</fix>
</trkpt>
<trkpt lat="-27.274439" lon="151.290064">
  <ele>343.1</ele>
  <time>2026-09-01T19:50:27Z</time>
  <course>8.0</course>
  <speed>0.0</speed>
  <fix>3d</fix>
</trkpt>
<trkpt lat="-27.274439" lon="151.290064">
  <ele>343.1</ele>
  <time>2026-09-01T19:50:27Z</time>
  <course>270.0</course>
  <speed>0.0</speed>
  <fix>3d</fix>
</trkpt>
<trkpt lat="-27.274439" lon="151.290064">
  <ele>343.1</ele>
  <time>2026-09-01T19:50:27Z</time>
  <course>8.0</course>
  <speed>0.0</speed>
  <fix>3d</fix>
</trkpt>
<trkpt lat="-27.274439" lon="151.290064">
  <ele>343.1</ele>
  <time>2026-09-01T19:50:27Z</time>
  <course>270.0</course>
  <speed>0.0</speed>
  <fix>3d</fix>
</trkpt>
<trkpt lat="-27.274439" lon="151.290064">
  <ele>343.1</ele>
  <time>2026-09-01T19:50:27Z</time>
  <course>8.0</course>
  <speed>0.0</speed>
  <fix>3d</fix>
</trkpt>
<trkpt lat="-27.274439" lon="151.290064">
  <ele>343.1</ele>
  <time>2026-09-01T19:50:27Z</time>
  <course>270.0</course>
  <speed>0.0</speed>
  <fix>3d</fix>
</trkpt>
<trkpt lat="-27.274439" lon="151.290064">
  <ele>343.1</ele>
  <time>2026-09-01T19:50:27Z</time>
  <course>8.0</course>
  <speed>0.0</speed>
  <fix>3d</fix>
</trkpt>
<trkpt lat="-27.274439" lon="151.290064">
  <ele>343.1</ele>
  <time>2026-09-01T19:50:27Z</time>
  <course>270.0</course>
  <speed>0.0</speed>
  <fix>3d</fix>
</trkpt>
<trkpt lat="-27.274439" lon="151.290064">
  <ele>343.1</ele>
  <time>2026-09-01T19:50:27Z</time>
  <course>8.0</course>
  <speed>0.0</speed>
  <fix>3d</fix>
</trkpt>
<trkpt lat="-27.274439" lon="151.290064">
  <ele>343.1</ele>
  <time>2026-09-01T19:50:27Z</time>
  <course>270.0</course>
  <speed>0.0</speed>
  <fix>3d</fix>
</trkpt>
<trkpt lat="-27.274439" lon="151.290064">
  <ele>343.1</ele>
  <time>2026-09-01T19:50:27Z</time>
  <course>8.0</course>
  <speed>0.0</speed>
  <fix>3d</fix>
</trkpt>
<trkpt lat="-27.274439" lon="151.290064">
  <ele>343.1</ele>
  <time>2026-09-01T19:50:27Z</time>
  <course>270.0</course>
  <speed>0.0</speed>
  <fix>3d</fix>
</trkpt>
<trkpt lat="-27.274439" lon="151.290064">
  <ele>343.1</ele>
  <time>2026-09-01T19:50:27Z</time>
  <course>8.0</course>
  <speed>0.0</speed>
  <fix>3d</fix>
</trkpt>
<trkpt lat="-27.274439" lon="151.290064">
  <ele>343.1</ele>
  <time>2026-09-01T19:50:27Z</time>
  <course>270.0</course>
  <speed>0.0</speed>
  <fix>3d</fix>
</trkpt>
<trkpt lat="-27.274439" lon="151.290064">
  <ele>343.1</ele>
  <time>2026-09-01T19:50:27Z</time>
  <course>8.0</course>
  <speed>0.0</speed>
  <fix>3d</fix>
</trkpt>
<trkpt lat="-27.274439" lon="151.290064">
  <ele>343.1</ele>
  <time>2026-09-01T19:50:27Z</time>
  <course>270.0</course>
  <speed>0.0</speed>
  <fix>3d</fix>
</trkpt>
<trkpt lat="-27.274439" lon="151.290064">
  <ele>343.1</ele>
  <time>2026-09-01T19:50:27Z</time>
  <course>8.0</course>
  <speed>0.0</speed>
  <fix>3d</fix>
</trkpt>
<trkpt lat="-27.274439" lon="151.290064">
  <ele>343.1</ele>
  <time>2026-09-01T19:50:27Z</time>
  <course>270.0</course>
  <speed>0.0</speed>
  <fix>3d</fix>
</trkpt>
<trkpt lat="-27.274439" lon="151.290064">
  <ele>343.1</ele>
  <time>2026-09-01T19:50:27Z</time>
  <course>8.0</course>
  <speed>0.0</speed>
  <fix>3d</fix>
</trkpt>
<trkpt lat="-27.274439" lon="151.290064">
  <ele>343.1</ele>
  <time>2026-09-01T19:50:27Z</time>
  <course>270.0</course>
  <speed>0.0</speed>
  <fix>3d</fix>
</trkpt>
<trkpt lat="-27.274439" lon="151.290064">
  <ele>343.1</ele>
  <time>2026-09-01T19:50:27Z</time>
  <course>8.0</course>
  <speed>0.0</speed>
  <fix>3d</fix>
</trkpt>
<trkpt lat="-27.274439" lon="151.290064">
  <ele>343.1</ele>
  <time>2026-09-01T19:50:27Z</time>
  <course>270.0</course>
  <speed>0.0</speed>
  <fix>3d</fix>
</trkpt>
<trkpt lat="-27.274439" lon="151.290064">
  <ele>343.1</ele>
  <time>2026-09-01T19:50:27Z</time>
  <course>8.0</course>
  <speed>0.0</speed>
  <fix>3d</fix>
</trkpt>
<trkpt lat="-27.274439" lon="151.290064">
  <ele>343.1</ele>
  <time>2026-09-01T19:50:27Z</time>
  <course>270.0</course>
  <speed>0.0</speed>
  <fix>3d</fix>
</trkpt>
<trkpt lat="-27.274439" lon="151.290064">
  <ele>343.1</ele>
  <time>2026-09-01T19:50:27Z</time>
  <course>8.0</course>
  <speed>0.0</speed>
  <fix>3d</fix>
</trkpt>
<trkpt lat="-27.274439" lon="151.290064">
  <ele>343.1</ele>
  <time>2026-09-01T19:50:27Z</time>
  <course>270.0</course>
  <speed>0.0</speed>
  <fix>3d</fix>
</trkpt>
<trkpt lat="-27.274439" lon="151.290064">
  <ele>343.1</ele>
  <time>2026-09-01T19:50:27Z</time>
  <course>8.0</course>
  <speed>0.0</speed>
  <fix>3d</fix>
</trkpt>
<trkpt lat="-27.274439" lon="151.290064">
  <ele>343.1</ele>
  <time>2026-09-01T19:50:27Z</time>
  <course>270.0</course>
  <speed>0.0</speed>
  <fix>3d</fix>
</trkpt>
<trkpt lat="-27.274439" lon="151.290064">
  <ele>343.1</ele>
  <time>2026-09-01T19:50:27Z</time>
  <course>8.0</course>
  <speed>0.0</speed>
  <fix>3d</fix>
</trkpt>
<trkpt lat="-27.274439" lon="151.290064">
  <ele>343.1</ele>
  <time>2026-09-01T19:50:27Z</time>
  <course>270.0</course>
  <speed>0.0</speed>
  <fix>3d</fix>
</trkpt>
<trkpt lat="-27.274439" lon="151.290064">
  <ele>343.1</ele>
  <time>2026-09-01T19:50:27Z</time>
  <course>8.0</course>
  <speed>0.0</speed>
  <fix>3d</fix>
</trkpt>
<trkpt lat="-27.274439" lon="151.290064">
  <ele>343.1</ele>
  <time>2026-09-01T19:50:27Z</time>
  <course>270.0</course>
  <speed>0.0</speed>
  <fix>3d</fix>
</trkpt>
<trkpt lat="-27.274439" lon="151.290064">
  <ele>343.1</ele>
  <time>2026-09-01T19:50:27Z</time>
  <course>8.0</course>
  <speed>0.0</speed>
  <fix>3d</fix>
</trkpt>
<trkpt lat="-27.274439" lon="151.290064">
  <ele>343.1</ele>
  <time>2026-09-01T19:50:27Z</time>
  <course>270.0</course>
  <speed>0.0</speed>
  <fix>3d</fix>
</trkpt>
<trkpt lat="-27.274439" lon="151.290064">
  <ele>343.1</ele>
  <time>2026-09-01T19:50:27Z</time>
  <course>8.0</course>
  <speed>0.0</speed>
  <fix>3d</fix>
</trkpt>
<trkpt lat="-27.274439" lon="151.290064">
  <ele>343.1</ele>
  <time>2026-09-01T19:50:27Z</time>
  <course>8.0</course>
  <speed>0.0</speed>
  <fix>3d</fix>
</trkpt>
<trkpt lat="-27.274439" lon="151.290064">
  <ele>343.1</ele>
  <time>2026-09-01T19:50:27Z</time>
  <course>323.0</course>
  <speed>0.0</speed>
  <fix>3d</fix>
</trkpt>
<trkpt lat="-27.274439" lon="151.290064">
  <ele>343.1</ele>
  <time>2026-09-01T19:50:27Z</time>
  <course>8.0</course>
  <speed>0.0</speed>
  <fix>3d</fix>
</trkpt>
<trkpt lat="-27.274439" lon="151.290064">
  <ele>343.1</ele>
  <time>2026-09-01T19:50:27Z</time>
  <course>8.0</course>
  <speed>0.0</speed>
  <fix>3d</fix>
</trkpt>
<trkpt lat="-27.274439" lon="151.290064">
  <ele>343.1</ele>
  <time>2026-09-01T19:50:27Z</time>
  <course>323.0</course>
  <speed>0.0</speed>
  <fix>3d</fix>
</trkpt>
<trkpt lat="-27.274439" lon="151.290064">
  <ele>343.1</ele>
  <time>2026-09-01T19:50:27Z</time>
  <course>8.0</course>
  <speed>0.0</speed>
  <fix>3d</fix>
</trkpt>
<trkpt lat="-27.274439" lon="151.290064">
  <ele>343.1</ele>
  <time>2026-09-01T19:50:27Z</time>
  <course>8.0</course>
  <speed>0.0</speed>
  <fix>3d</fix>
</trkpt>
<trkpt lat="-27.274439" lon="151.290064">
  <ele>343.1</ele>
  <time>2026-09-01T19:50:27Z</time>
  <course>174.0</course>
  <speed>0.0</speed>
  <fix>3d</fix>
</trkpt>
<trkpt lat="-27.274439" lon="151.290064">
  <ele>343.1</ele>
  <time>2026-09-01T19:50:27Z</time>
  <course>8.0</course>
  <speed>0.0</speed>
  <fix>3d</fix>
</trkpt>
<trkpt lat="-27.274439" lon="151.290064">
  <ele>343.1</ele>
  <time>2026-09-01T19:50:27Z</time>
  <course>8.0</course>
  <speed>0.0</speed>
  <fix>3d</fix>
</trkpt>
<trkpt lat="-27.274439" lon="151.290064">
  <ele>343.1</ele>
  <time>2026-09-01T19:50:27Z</time>
  <course>174.0</course>
  <speed>0.0</speed>
  <fix>3d</fix>
</trkpt>
<trkpt lat="-27.274439" lon="151.290064">
  <ele>343.1</ele>
  <time>2026-09-01T19:50:27Z</time>
  <course>8.0</course>
  <speed>0.0</speed>
  <fix>3d</fix>
</trkpt>
<trkpt lat="-27.274439" lon="151.290064">
  <ele>343.1</ele>
  <time>2026-09-01T19:50:27Z</time>
  <course>8.0</course>
  <speed>0.0</speed>
  <fix>3d</fix>
</trkpt>
<trkpt lat="-27.274439" lon="151.290064">
  <ele>343.1</ele>
  <time>2026-09-01T19:50:27Z</time>
  <course>338.68</course>
  <speed>0.0</speed>
  <fix>3d</fix>
</trkpt>
<trkpt lat="-27.274439" lon="151.290064">
  <ele>343.1</ele>
  <time>2026-09-01T19:50:27Z</time>
  <course>8.0</course>
  <speed>0.0</speed>
  <fix>3d</fix>
</trkpt>
<trkpt lat="-27.274439" lon="151.290064">
  <ele>343.1</ele>
  <time>2026-09-01T19:50:27Z</time>
  <course>8.0</course>
  <speed>0.0</speed>
  <fix>3d</fix>
</trkpt>
<trkpt lat="-27.274439" lon="151.290064">
  <ele>343.1</ele>
  <time>2026-09-01T19:50:27Z</time>
  <course>338.68</course>
  <speed>0.0</speed>
  <fix>3d</fix>
</trkpt>
<trkpt lat="-27.274439" lon="151.290064">
  <ele>343.1</ele>
  <time>2026-09-01T19:50:27Z</time>
  <course>8.0</course>
  <speed>0.0</speed>
  <fix>3d</fix>
</trkpt>
<trkpt lat="-27.274439" lon="151.290064">
  <ele>343.1</ele>
  <time>2026-09-01T19:50:27Z</time>
  <course>8.0</course>
  <speed>0.0</speed>
  <fix>3d</fix>
</trkpt>
<trkpt lat="-27.274439" lon="151.290064">
  <ele>343.1</ele>
  <time>2026-09-01T19:50:27Z</time>
  <course>333.97</course>
  <speed>0.0</speed>
  <fix>3d</fix>
</trkpt>
<trkpt lat="-27.274439" lon="151.290064">
  <ele>343.1</ele>
  <time>2026-09-01T19:50:27Z</time>
  <course>8.0</course>
  <speed>0.0</speed>
  <fix>3d</fix>
</trkpt>
<trkpt lat="-27.274439" lon="151.290064">
  <ele>343.1</ele>
  <time>2026-09-01T19:50:27Z</time>
  <course>8.0</course>
  <speed>0.0</speed>
  <fix>3d</fix>
</trkpt>
<trkpt lat="-27.274439" lon="151.290064">
  <ele>343.1</ele>
  <time>2026-09-01T19:50:27Z</time>
  <course>333.97</course>
  <speed>0.0</speed>
  <fix>3d</fix>
</trkpt>
<trkpt lat="-27.274439" lon="151.290064">
  <ele>343.1</ele>
  <time>2026-09-01T19:50:27Z</time>
  <course>8.0</course>
  <speed>0.0</speed>
  <fix>3d</fix>
</trkpt>
<trkpt lat="-27.274439" lon="151.290064">
  <ele>343.1</ele>
  <time>2026-09-01T19:50:27Z</time>
  <course>8.0</course>
  <speed>0.0</speed>
  <fix>3d</fix>
</trkpt>
<trkpt lat="-27.274439" lon="151.290064">
  <ele>343.1</ele>
  <time>2026-09-01T19:50:27Z</time>
  <course>7.23</course>
  <speed>0.0</speed>
  <fix>3d</fix>
</trkpt>
<trkpt lat="-27.274439" lon="151.290064">
  <ele>343.11</ele>
  <time>2026-09-01T19:50:27Z</time>
  <course>8.0</course>
  <speed>0.0</speed>
  <fix>3d</fix>
</trkpt>
<trkpt lat="-27.274439" lon="151.290064">
  <ele>343.12</ele>
  <time>2026-09-01T19:50:27Z</time>
  <course>8.0</course>
  <speed>0.0</speed>
  <fix>3d</fix>
</trkpt>
<trkpt lat="-27.274439" lon="151.290064">
  <ele>343.1</ele>
  <time>2026-09-01T19:50:27Z</time>
  <course>7.23</course>
  <speed>0.0</speed>
  <fix>3d</fix>
</trkpt>
<trkpt lat="-27.274439" lon="151.290064">
  <ele>343.13</ele>
  <time>2026-09-01T19:50:27Z</time>
  <course>8.0</course>
  <speed>0.0</speed>
  <fix>3d</fix>
</trkpt>
<trkpt lat="-27.274439" lon="151.290064">
  <ele>343.16</ele>
  <time>2026-09-01T19:50:27Z</time>
  <course>8.0</course>
  <speed>0.0</speed>
  <fix>3d</fix>
</trkpt>
<trkpt lat="-27.274439" lon="151.290064">
  <ele>343.11</ele>
  <time>2026-09-01T19:50:27Z</time>
  <course>7.99</course>
  <speed>0.0</speed>
  <fix>3d</fix>
</trkpt>
<trkpt lat="-27.274439" lon="151.290064">
  <ele>343.17</ele>
  <time>2026-09-01T19:50:27Z</time>
  <course>8.0</course>
  <speed>0.0</speed>
  <fix>3d</fix>
</trkpt>
<trkpt lat="-27.274439" lon="151.290064">
  <ele>343.2</ele>
  <time>2026-09-01T19:50:27Z</time>
  <course>8.0</course>
  <speed>0.0</speed>
  <fix>3d</fix>
</trkpt>
<trkpt lat="-27.274439" lon="151.290064">
  <ele>343.11</ele>
  <time>2026-09-01T19:50:27Z</time>
  <course>7.99</course>
  <speed>0.0</speed>
  <fix>3d</fix>
</trkpt>
<trkpt lat="-27.274439" lon="151.290064">
  <ele>343.2</ele>
  <time>2026-09-01T19:50:27Z</time>
  <course>8.0</course>
  <speed>0.0</speed>
  <fix>3d</fix>
</trkpt>
<trkpt lat="-27.274439" lon="151.290064">
  <ele>343.27</ele>
  <time>2026-09-01T19:50:27Z</time>
  <course>8.0</course>
  <speed>0.01</speed>
  <fix>3d</fix>
</trkpt>
<trkpt lat="-27.274439" lon="151.290064">
  <ele>343.16</ele>
  <time>2026-09-01T19:50:27Z</time>
  <course>7.99</course>
  <speed>0.0</speed>
  <fix>3d</fix>
</trkpt>
<trkpt lat="-27.274439" lon="151.290064">
  <ele>343.28</ele>
  <time>2026-09-01T19:50:27Z</time>
  <course>8.0</course>
  <speed>0.01</speed>
  <fix>3d</fix>
</trkpt>
<trkpt lat="-27.274439" lon="151.290064">
  <ele>343.41</ele>
  <time>2026-09-01T19:50:27Z</time>
  <course>7.99</course>
  <speed>0.04</speed>
  <fix>3d</fix>
</trkpt>
<trkpt lat="-27.274439" lon="151.290064">
  <ele>343.16</ele>
  <time>2026-09-01T19:50:27Z</time>
  <course>7.99</course>
  <speed>0.0</speed>
  <fix>3d</fix>
</trkpt>
<trkpt lat="-27.274439" lon="151.290064">
  <ele>343.46</ele>
  <time>2026-09-01T19:50:27Z</time>
  <course>7.99</course>
  <speed>0.05</speed>
  <fix>3d</fix>
</trkpt>
<trkpt lat="-27.274439" lon="151.290064">
  <ele>343.61</ele>
  <time>2026-09-01T19:50:27Z</time>
  <course>7.99</course>
  <speed>0.07071067811865475</speed>
  <fix>3d</fix>
</trkpt>
<trkpt lat="-27.274439" lon="151.290064">
  <ele>343.3</ele>
  <time>2026-09-01T19:50:27Z</time>
  <course>7.88</course>
  <speed>0.02</speed>
  <fix>3d</fix>
</trkpt>
<trkpt lat="-27.274439" lon="151.290064">
  <ele>343.67</ele>
  <time>2026-09-01T19:50:27Z</time>
  <course>7.99</course>
  <speed>0.08062257748298549</speed>
  <fix>3d</fix>
</trkpt>
<trkpt lat="-27.2744389" lon="151.290064">
  <ele>343.84</ele>
  <time>2026-09-01T19:50:27Z</time>
  <course>7.99</course>
  <speed>0.11045361017187261</speed>
  <fix>3d</fix>
</trkpt>
<trkpt lat="-27.274439" lon="151.290064">
  <ele>343.3</ele>
  <time>2026-09-01T19:50:27Z</time>
  <course>7.88</course>
  <speed>0.02</speed>
  <fix>3d</fix>
</trkpt>
<trkpt lat="-27.2744389" lon="151.290064">
  <ele>343.9</ele>
  <time>2026-09-01T19:50:27Z</time>
  <course>7.99</course>
  <speed>0.12041594578792296</speed>
  <fix>3d</fix>
</trkpt>
<trkpt lat="-27.2744388" lon="151.290064">
  <ele>344.07</ele>
  <time>2026-09-01T19:50:27Z</time>
  <course>7.99</course>
  <speed>0.1414213562373095</speed>
  <fix>3d</fix>
</trkpt>
<trkpt lat="-27.274439" lon="151.290064">
  <ele>343.61</ele>
  <time>2026-09-01T19:50:27Z</time>
  <course>7.88</course>
  <speed>0.07</speed>
  <fix>3d</fix>
</trkpt>
<trkpt lat="-27.2744388" lon="151.290064">
  <ele>344.13</ele>
  <time>2026-09-01T19:50:27Z</time>
  <course>7.99</course>
  <speed>0.15132745950421556</speed>
  <fix>3d</fix>
</trkpt>
<trkpt lat="-27.2744387" lon="151.290064">
  <ele>344.3</ele>
  <time>2026-09-01T19:50:27Z</time>
  <course>7.99</course>
  <speed>0.1711724276862369</speed>
  <fix>3d</fix>
</trkpt>
<trkpt lat="-27.274439" lon="151.290064">
  <ele>343.61</ele>
  <time>2026-09-01T19:50:27Z</time>
  <course>7.88</course>
  <speed>0.07</speed>
  <fix>3d</fix>
</trkpt>
<trkpt lat="-27.2744387" lon="151.290064">
  <ele>344.36</ele>
  <time>2026-09-01T19:50:27Z</time>
  <course>8.0</course>
  <speed>0.1711724276862369</speed>
  <fix>3d</fix>
</trkpt>
<trkpt lat="-27.2744385" lon="151.290064">
  <ele>344.54</ele>
  <time>2026-09-01T19:50:27Z</time>
  <course>8.0</course>
  <speed>0.191049731745428</speed>
  <fix>3d</fix>
</trkpt>
<trkpt lat="-27.2744388" lon="151.290064">
  <ele>344.05</ele>
  <time>2026-09-01T19:50:27Z</time>
  <course>7.89</course>
  <speed>0.14</speed>
  <fix>3d</fix>
</trkpt>
<trkpt lat="-27.2744385" lon="151.290064">
  <ele>344.54</ele>
  <time>2026-09-01T19:50:27Z</time>
  <course>8.0</course>
  <speed>0.191049731745428</speed>
  <fix>3d</fix>
</trkpt>
<trkpt lat="-27.2744383" lon="151.2900641">
  <ele>344.77</ele>
  <time>2026-09-01T19:50:27Z</time>
  <course>8.0</course>
  <speed>0.21213203435596426</speed>
  <fix>3d</fix>
</trkpt>
<trkpt lat="-27.2744388" lon="151.290064">
  <ele>344.05</ele>
  <time>2026-09-01T19:50:27Z</time>
  <course>7.89</course>
  <speed>0.14</speed>
  <fix>3d</fix>
</trkpt>
<trkpt lat="-27.2744383" lon="151.2900641">
  <ele>344.82</ele>
  <time>2026-09-01T19:50:27Z</time>
  <course>8.0</course>
  <speed>0.21213203435596426</speed>
  <fix>3d</fix>
</trkpt>
<trkpt lat="-27.2744381" lon="151.2900641">
  <ele>344.99</ele>
  <time>2026-09-01T19:50:27Z</time>
  <course>8.0</course>
  <speed>0.23194827009486402</speed>
  <fix>3d</fix>
</trkpt>
<trkpt lat="-27.2744385" lon="151.290064">
  <ele>344.52</ele>
  <time>2026-09-01T19:50:27Z</time>
  <course>7.93</course>
  <speed>0.19</speed>
  <fix>3d</fix>
</trkpt>
<trkpt lat="-27.2744381" lon="151.2900641">
  <ele>345.05</ele>
  <time>2026-09-01T19:50:27Z</time>
  <course>8.0</course>
  <speed>0.23194827009486402</speed>
  <fix>3d</fix>
</trkpt>
<trkpt lat="-27.2744379" lon="151.2900641">
  <ele>345.22</ele>
  <time>2026-09-01T19:50:27Z</time>
  <course>7.99</course>
  <speed>0.24186773244895649</speed>
  <fix>3d</fix>
</trkpt>
<trkpt lat="-27.2744385" lon="151.290064">
  <ele>344.52</ele>
  <time>2026-09-01T19:50:27Z</time>
  <course>7.93</course>
  <speed>0.19</speed>
  <fix>3d</fix>
</trkpt>
<trkpt lat="-27.2744379" lon="151.2900641">
  <ele>345.27</ele>
  <time>2026-09-01T19:50:27Z</time>
  <course>7.99</course>
  <speed>0.24186773244895649</speed>
  <fix>3d</fix>
</trkpt>
<trkpt lat="-27.2744377" lon="151.2900642">
  <ele>345.43</ele>
  <time>2026-09-01T19:50:27Z</time>
  <course>7.99</course>
  <speed>0.25179356624028343</speed>
  <fix>3d</fix>
</trkpt>
<trkpt lat="-27.2744381" lon="151.2900641">
  <ele>344.97</ele>
  <time>2026-09-01T19:50:27Z</time>
  <course>7.99</course>
  <speed>0.23</speed>
  <fix>3d</fix>
</trkpt>
<trkpt lat="-27.2744377" lon="151.2900642">
  <ele>345.44</ele>
  <time>2026-09-01T19:50:27Z</time>
  <course>7.99</course>
  <speed>0.25179356624028343</speed>
  <fix>3d</fix>
</trkpt>
<trkpt lat="-27.2744375" lon="151.2900642">
  <ele>345.64</ele>
  <time>2026-09-01T19:50:27Z</time>
  <course>7.99</course>
  <speed>0.25179356624028343</speed>
  <fix>3d</fix>
</trkpt>
<trkpt lat="-27.2744381" lon="151.2900641">
  <ele>344.97</ele>
  <time>2026-09-01T19:50:27Z</time>
  <course>7.99</course>
  <speed>0.23</speed>
  <fix>3d</fix>
</trkpt>
<trkpt lat="-27.2744375" lon="151.2900642">
  <ele>345.65</ele>
  <time>2026-09-01T19:50:27Z</time>
  <course>7.99</course>
  <speed>0.25179356624028343</speed>
  <fix>3d</fix>
</trkpt>
<trkpt lat="-27.2744372" lon="151.2900642">
  <ele>345.84</ele>
  <time>2026-09-01T19:50:27Z</time>
  <course>8.0</course>
  <speed>0.25179356624028343</speed>
  <fix>3d</fix>
</trkpt>
<trkpt lat="-27.2744377" lon="151.2900641">
  <ele>345.41</ele>
  <time>2026-09-01T19:50:27Z</time>
  <course>8.02</course>
  <speed>0.25</speed>
  <fix>3d</fix>
</trkpt>
<trkpt lat="-27.2744372" lon="151.2900642">
  <ele>345.89</ele>
  <time>2026-09-01T19:50:27Z</time>
  <course>8.0</course>
  <speed>0.24186773244895649</speed>
  <fix>3d</fix>
</trkpt>
<trkpt lat="-27.274437" lon="151.2900642">
  <ele>346.02</ele>
  <time>2026-09-01T19:50:27Z</time>
  <course>8.0</course>
  <speed>0.24186773244895649</speed>
  <fix>3d</fix>
</trkpt>
<trkpt lat="-27.2744377" lon="151.2900641">
  <ele>345.41</ele>
  <time>2026-09-01T19:50:27Z</time>
  <course>8.02</course>
  <speed>0.25</speed>
  <fix>3d</fix>
</trkpt>
<trkpt lat="-27.274437" lon="151.2900642">
  <ele>346.07</ele>
  <time>2026-09-01T19:50:27Z</time>
  <course>8.0</course>
  <speed>0.24186773244895649</speed>
  <fix>3d</fix>
</trkpt>
<trkpt lat="-27.2744368" lon="151.2900642">
  <ele>346.2</ele>
  <time>2026-09-01T19:50:27Z</time>
  <course>8.0</course>
  <speed>0.23194827009486402</speed>
  <fix>3d</fix>
</trkpt>
<trkpt lat="-27.2744372" lon="151.2900642">
  <ele>345.82</ele>
  <time>2026-09-01T19:50:27Z</time>
  <course>8.06</course>
  <speed>0.25</speed>
  <fix>3d</fix>
</trkpt>
<trkpt lat="-27.2744368" lon="151.2900642">
  <ele>346.25</ele>
  <time>2026-09-01T19:50:27Z</time>
  <course>8.0</course>
  <speed>0.23194827009486402</speed>
  <fix>3d</fix>
</trkpt>
<trkpt lat="-27.2744366" lon="151.2900642">
  <ele>346.37</ele>
  <time>2026-09-01T19:50:27Z</time>
  <course>8.0</course>
  <speed>0.2220360331117452</speed>
  <fix>3d</fix>
</trkpt>
<trkpt lat="-27.2744372" lon="151.2900642">
  <ele>345.82</ele>
  <time>2026-09-01T19:50:27Z</time>
  <course>8.06</course>
  <speed>0.25</speed>
  <fix>3d</fix>
</trkpt>
<trkpt lat="-27.2744366" lon="151.2900642">
  <ele>346.41</ele>
  <time>2026-09-01T19:50:27Z</time>
  <course>8.0</course>
  <speed>0.21213203435596426</speed>
  <fix>3d</fix>
</trkpt>
<trkpt lat="-27.2744364" lon="151.2900644">
  <ele>346.53</ele>
  <time>2026-09-01T19:50:27Z</time>
  <course>8.0</course>
  <speed>0.2009975124224178</speed>
  <fix>3d</fix>
</trkpt>
<trkpt lat="-27.2744367" lon="151.2900642">
  <ele>346.18</ele>
  <time>2026-09-01T19:50:27Z</time>
  <course>8.14</course>
  <speed>0.23</speed>
  <fix>3d</fix>
</trkpt>
<trkpt lat="-27.2744364" lon="151.2900644">
  <ele>346.57</ele>
  <time>2026-09-01T19:50:27Z</time>
  <course>8.0</course>
  <speed>0.191049731745428</speed>
  <fix>3d</fix>
</trkpt>
<trkpt lat="-27.2744362" lon="151.2900644">
  <ele>346.68</ele>
  <time>2026-09-01T19:50:27Z</time>
  <course>8.0</course>
  <speed>0.18110770276274835</speed>
  <fix>3d</fix>
</trkpt>
<trkpt lat="-27.2744367" lon="151.2900642">
  <ele>346.18</ele>
  <time>2026-09-01T19:50:27Z</time>
  <course>8.14</course>
  <speed>0.23</speed>
  <fix>3d</fix>
</trkpt>
<trkpt lat="-27.2744362" lon="151.2900644">
  <ele>346.71</ele>
  <time>2026-09-01T19:50:27Z</time>
  <course>8.0</course>
  <speed>0.18110770276274835</speed>
  <fix>3d</fix>
</trkpt>
<trkpt lat="-27.2744361" lon="151.2900644">
  <ele>346.82</ele>
  <time>2026-09-01T19:50:27Z</time>
  <course>8.0</course>
  <speed>0.16124515496597097</speed>
  <fix>3d</fix>
</trkpt>
<trkpt lat="-27.2744364" lon="151.2900643">
  <ele>346.51</ele>
  <time>2026-09-01T19:50:27Z</time>
  <course>8.32</course>
  <speed>0.2</speed>
  <fix>3d</fix>
</trkpt>
<trkpt lat="-27.274436" lon="151.2900644">
  <ele>346.86</ele>
  <time>2026-09-01T19:50:27Z</time>
  <course>8.0</course>
  <speed>0.16124515496597097</speed>
  <fix>3d</fix>
</trkpt>
<trkpt lat="-27.2744359" lon="151.2900644">
  <ele>346.96</ele>
  <time>2026-09-01T19:50:27Z</time>
  <course>8.0</course>
  <speed>0.1414213562373095</speed>
  <fix>3d</fix>
</trkpt>
<trkpt lat="-27.2744364" lon="151.2900643">
  <ele>346.51</ele>
  <time>2026-09-01T19:50:27Z</time>
  <course>8.32</course>
  <speed>0.2</speed>
  <fix>3d</fix>
</trkpt>
<trkpt lat="-27.2744359" lon="151.2900645">
  <ele>346.99</ele>
  <time>2026-09-01T19:50:27Z</time>
  <course>8.0</course>
  <speed>0.13152946437965907</speed>
  <fix>3d</fix>
</trkpt>
<trkpt lat="-27.2744358" lon="151.2900645">
  <ele>347.1</ele>
  <time>2026-09-01T19:50:27Z</time>
  <course>8.0</course>
  <speed>0.12041594578792296</speed>
  <fix>3d</fix>
</trkpt>
<trkpt lat="-27.274436" lon="151.2900644">
  <ele>346.81</ele>
  <time>2026-09-01T19:50:27Z</time>
  <course>8.52</course>
  <speed>0.16</speed>
  <fix>3d</fix>
</trkpt>
<trkpt lat="-27.2744358" lon="151.2900645">
  <ele>347.13</ele>
  <time>2026-09-01T19:50:27Z</time>
  <course>8.0</course>
  <speed>0.11045361017187261</speed>
  <fix>3d</fix>
</trkpt>
<trkpt lat="-27.2744357" lon="151.2900645">
  <ele>347.23</ele>
  <time>2026-09-01T19:50:27Z</time>
  <course>8.0</course>
  <speed>0.09055385138137417</speed>
  <fix>3d</fix>
</trkpt>
<trkpt lat="-27.274436" lon="151.2900644">
  <ele>346.81</ele>
  <time>2026-09-01T19:50:27Z</time>
  <course>8.52</course>
  <speed>0.16</speed>
  <fix>3d</fix>
</trkpt>
<trkpt lat="-27.2744357" lon="151.2900645">
  <ele>347.24</ele>
  <time>2026-09-01T19:50:27Z</time>
  <course>8.0</course>
  <speed>0.09055385138137417</speed>
  <fix>3d</fix>
</trkpt>
<trkpt lat="-27.2744356" lon="151.2900645">
  <ele>347.36</ele>
  <time>2026-09-01T19:50:27Z</time>
  <course>8.0</course>
  <speed>0.07071067811865475</speed>
  <fix>3d</fix>
</trkpt>
<trkpt lat="-27.2744358" lon="151.2900644">
  <ele>347.09</ele>
  <time>2026-09-01T19:50:27Z</time>
  <course>8.71</course>
  <speed>0.12</speed>
  <fix>3d</fix>
</trkpt>
<trkpt lat="-27.2744356" lon="151.2900645">
  <ele>347.37</ele>
  <time>2026-09-01T19:50:27Z</time>
  <course>8.0</course>
  <speed>0.07071067811865475</speed>
  <fix>3d</fix>
</trkpt>
<trkpt lat="-27.2744356" lon="151.2900645">
  <ele>347.49</ele>
  <time>2026-09-01T19:50:27Z</time>
  <course>8.01</course>
  <speed>0.05</speed>
  <fix>3d</fix>
</trkpt>
<trkpt lat="-27.2744358" lon="151.2900644">
  <ele>347.09</ele>
  <time>2026-09-01T19:50:27Z</time>
  <course>8.71</course>
  <speed>0.12</speed>
  <fix>3d</fix>
</trkpt>
<trkpt lat="-27.2744356" lon="151.2900645">
  <ele>347.53</ele>
  <time>2026-09-01T19:50:27Z</time>
  <course>8.01</course>
  <speed>0.04</speed>
  <fix>3d</fix>
</trkpt>
<trkpt lat="-27.2744355" lon="151.2900645">
  <ele>347.63</ele>
  <time>2026-09-01T19:50:27Z</time>
  <course>8.01</course>
  <speed>0.03</speed>
  <fix>3d</fix>
</trkpt>
<trkpt lat="-27.2744356" lon="151.2900645">
  <ele>347.35</ele>
  <time>2026-09-01T19:50:27Z</time>
  <course>9.01</course>
  <speed>0.07</speed>
  <fix>3d</fix>
</trkpt>
<trkpt lat="-27.2744355" lon="151.2900645">
  <ele>347.66</ele>
  <time>2026-09-01T19:50:27Z</time>
  <course>8.01</course>
  <speed>0.02</speed>
  <fix>3d</fix>
</trkpt>
<trkpt lat="-27.2744355" lon="151.2900645">
  <ele>347.76</ele>
  <time>2026-09-01T19:50:27Z</time>
  <course>8.01</course>
  <speed>0.01</speed>
  <fix>3d</fix>
</trkpt>
<trkpt lat="-27.2744356" lon="151.2900645">
  <ele>347.35</ele>
  <time>2026-09-01T19:50:27Z</time>
  <course>9.01</course>
  <speed>0.07</speed>
  <fix>3d</fix>
</trkpt>
<trkpt lat="-27.2744355" lon="151.2900645">
  <ele>347.79</ele>
  <time>2026-09-01T19:50:27Z</time>
  <course>8.01</course>
  <speed>0.0</speed>
  <fix>3d</fix>
</trkpt>
<trkpt lat="-27.2744355" lon="151.2900645">
  <ele>347.89</ele>
  <time>2026-09-01T19:50:27Z</time>
  <course>8.01</course>
  <speed>0.0</speed>
  <fix>3d</fix>
</trkpt>
<trkpt lat="-27.2744355" lon="151.2900645">
  <ele>347.62</ele>
  <time>2026-09-01T19:50:27Z</time>
  <course>9.99</course>
  <speed>0.03</speed>
  <fix>3d</fix>
</trkpt>
<trkpt lat="-27.2744355" lon="151.2900645">
  <ele>347.93</ele>
  <time>2026-09-01T19:50:27Z</time>
  <course>8.01</course>
  <speed>0.01</speed>
  <fix>3d</fix>
</trkpt>
<trkpt lat="-27.2744355" lon="151.2900645">
  <ele>348.03</ele>
  <time>2026-09-01T19:50:27Z</time>
  <course>8.01</course>
  <speed>0.02</speed>
  <fix>3d</fix>
</trkpt>
<trkpt lat="-27.2744355" lon="151.2900645">
  <ele>347.62</ele>
  <time>2026-09-01T19:50:27Z</time>
  <course>9.99</course>
  <speed>0.03</speed>
  <fix>3d</fix>
</trkpt>
<trkpt lat="-27.2744355" lon="151.2900645">
  <ele>348.06</ele>
  <time>2026-09-01T19:50:27Z</time>
  <course>8.01</course>
  <speed>0.03</speed>
  <fix>3d</fix>
</trkpt>
<trkpt lat="-27.2744356" lon="151.2900645">
  <ele>348.17</ele>
  <time>2026-09-01T19:50:27Z</time>
  <course>8.01</course>
  <speed>0.04</speed>
  <fix>3d</fix>
</trkpt>
<trkpt lat="-27.2744355" lon="151.2900645">
  <ele>347.88</ele>
  <time>2026-09-01T19:50:27Z</time>
  <course>179.02</course>
  <speed>0.0</speed>
  <fix>3d</fix>
</trkpt>
<trkpt lat="-27.2744356" lon="151.2900645">
  <ele>348.2</ele>
  <time>2026-09-01T19:50:27Z</time>
  <course>8.02</course>
  <speed>0.04</speed>
  <fix>3d</fix>
</trkpt>
<trkpt lat="-27.2744356" lon="151.2900645">
  <ele>348.3</ele>
  <time>2026-09-01T19:50:27Z</time>
  <course>8.03</course>
  <speed>0.05</speed>
  <fix>3d</fix>
</trkpt>
<trkpt lat="-27.2744355" lon="151.2900645">
  <ele>347.88</ele>
  <time>2026-09-01T19:50:27Z</time>
  <course>179.02</course>
  <speed>0.0</speed>
  <fix>3d</fix>
</trkpt>
<trkpt lat="-27.2744356" lon="151.2900645">
  <ele>348.34</ele>
  <time>2026-09-01T19:50:27Z</time>
  <course>8.03</course>
  <speed>0.06</speed>
  <fix>3d</fix>
</trkpt>
<trkpt lat="-27.2744356" lon="151.2900645">
  <ele>348.45</ele>
  <time>2026-09-01T19:50:27Z</time>
  <course>8.03</course>
  <speed>0.07</speed>
  <fix>3d</fix>
</trkpt>
<trkpt lat="-27.2744355" lon="151.2900645">
  <ele>348.15</ele>
  <time>2026-09-01T19:50:27Z</time>
  <course>187.34</course>
  <speed>0.04</speed>
  <fix>3d</fix>
</trkpt>
<trkpt lat="-27.2744356" lon="151.2900645">
  <ele>348.48</ele>
  <time>2026-09-01T19:50:27Z</time>
  <course>8.03</course>
  <speed>0.07</speed>
  <fix>3d</fix>
</trkpt>
<trkpt lat="-27.2744356" lon="151.2900645">
  <ele>348.59</ele>
  <time>2026-09-01T19:50:27Z</time>
  <course>8.03</course>
  <speed>0.08062257748298549</speed>
  <fix>3d</fix>
</trkpt>
<trkpt lat="-27.2744355" lon="151.2900645">
  <ele>348.15</ele>
  <time>2026-09-01T19:50:27Z</time>
  <course>187.34</course>
  <speed>0.04</speed>
  <fix>3d</fix>
</trkpt>
<trkpt lat="-27.2744357" lon="151.2900645">
  <ele>348.62</ele>
  <time>2026-09-01T19:50:27Z</time>
  <course>8.02</course>
  <speed>0.08062257748298549</speed>
  <fix>3d</fix>
</trkpt>
<trkpt lat="-27.2744357" lon="151.2900645">
  <ele>348.73</ele>
  <time>2026-09-01T19:50:27Z</time>
  <course>8.02</course>
  <speed>0.09055385138137417</speed>
  <fix>3d</fix>
</trkpt>
<trkpt lat="-27.2744356" lon="151.2900645">
  <ele>348.44</ele>
  <time>2026-09-01T19:50:27Z</time>
  <course>187.87</course>
  <speed>0.06</speed>
  <fix>3d</fix>
</trkpt>
<trkpt lat="-27.2744357" lon="151.2900645">
  <ele>348.74</ele>
  <time>2026-09-01T19:50:27Z</time>
  <course>8.02</course>
  <speed>0.09055385138137417</speed>
  <fix>3d</fix>
</trkpt>
<trkpt lat="-27.2744358" lon="151.2900645">
  <ele>348.88</ele>
  <time>2026-09-01T19:50:27Z</time>
  <course>8.02</course>
  <speed>0.1004987562112089</speed>
  <fix>3d</fix>
</trkpt>
<trkpt lat="-27.2744356" lon="151.2900645">
  <ele>348.44</ele>
  <time>2026-09-01T19:50:27Z</time>
  <course>187.87</course>
  <speed>0.06</speed>
  <fix>3d</fix>
</trkpt>
<trkpt lat="-27.2744358" lon="151.2900645">
  <ele>348.88</ele>
  <time>2026-09-01T19:50:27Z</time>
  <course>8.02</course>
  <speed>0.1004987562112089</speed>
  <fix>3d</fix>
</trkpt>
<trkpt lat="-27.2744359" lon="151.2900645">
  <ele>349.03</ele>
  <time>2026-09-01T19:50:27Z</time>
  <course>8.03</course>
  <speed>0.1004987562112089</speed>
  <fix>3d</fix>
</trkpt>
<trkpt lat="-27.2744357" lon="151.2900645">
  <ele>348.72</ele>
  <time>2026-09-01T19:50:27Z</time>
  <course>187.71</course>
  <speed>0.09</speed>
  <fix>3d</fix>
</trkpt>
<trkpt lat="-27.2744359" lon="151.2900645">
  <ele>349.07</ele>
  <time>2026-09-01T19:50:27Z</time>
  <course>8.03</course>
  <speed>0.11045361017187261</speed>
  <fix>3d</fix>
</trkpt>
<trkpt lat="-27.274436" lon="151.2900645">
  <ele>349.17</ele>
  <time>2026-09-01T19:50:27Z</time>
  <course>8.04</course>
  <speed>0.11045361017187261</speed>
  <fix>3d</fix>
</trkpt>
<trkpt lat="-27.2744357" lon="151.2900645">
  <ele>348.72</ele>
  <time>2026-09-01T19:50:27Z</time>
  <course>187.71</course>
  <speed>0.09</speed>
  <fix>3d</fix>
</trkpt>
<trkpt lat="-27.274436" lon="151.2900645">
  <ele>349.18</ele>
  <time>2026-09-01T19:50:27Z</time>
  <course>8.04</course>
  <speed>0.11045361017187261</speed>
  <fix>3d</fix>
</trkpt>
<trkpt lat="-27.2744361" lon="151.2900645">
  <ele>349.32</ele>
  <time>2026-09-01T19:50:27Z</time>
  <course>8.03</course>
  <speed>0.12041594578792296</speed>
  <fix>3d</fix>
</trkpt>
<trkpt lat="-27.2744359" lon="151.2900645">
  <ele>349.02</ele>
  <time>2026-09-01T19:50:27Z</time>
  <course>187.82</course>
  <speed>0.1</speed>
  <fix>3d</fix>
</trkpt>
<trkpt lat="-27.2744361" lon="151.2900645">
  <ele>349.33</ele>
  <time>2026-09-01T19:50:27Z</time>
  <course>8.03</course>
  <speed>0.12041594578792296</speed>
  <fix>3d</fix>
</trkpt>
<trkpt lat="-27.2744362" lon="151.2900645">
  <ele>349.47</ele>
  <time>2026-09-01T19:50:27Z</time>
  <course>8.02</course>
  <speed>0.12041594578792296</speed>
  <fix>3d</fix>
</trkpt>
<trkpt lat="-27.2744359" lon="151.2900645">
  <ele>349.02</ele>
  <time>2026-09-01T19:50:27Z</time>
  <course>187.82</course>
  <speed>0.1</speed>
  <fix>3d</fix>
</trkpt>
<trkpt lat="-27.2744362" lon="151.2900645">
  <ele>349.47</ele>
  <time>2026-09-01T19:50:27Z</time>
  <course>8.02</course>
  <speed>0.12041594578792296</speed>
  <fix>3d</fix>
</trkpt>
<trkpt lat="-27.2744363" lon="151.2900645">
  <ele>349.62</ele>
  <time>2026-09-01T19:50:27Z</time>
  <course>8.01</course>
  <speed>0.12041594578792296</speed>
  <fix>3d</fix>
</trkpt>
<trkpt lat="-27.2744361" lon="151.2900645">
  <ele>349.31</ele>
  <time>2026-09-01T19:50:27Z</time>
  <course>188.02</course>
  <speed>0.12</speed>
  <fix>3d</fix>
</trkpt>
<trkpt lat="-27.2744363" lon="151.2900645">
  <ele>349.62</ele>
  <time>2026-09-01T19:50:27Z</time>
  <course>8.01</course>
  <speed>0.12041594578792296</speed>
  <fix>3d</fix>
</trkpt>
<trkpt lat="-27.2744365" lon="151.2900645">
  <ele>349.77</ele>
  <time>2026-09-01T19:50:27Z</time>
  <course>8.0</course>
  <speed>0.130384048104053</speed>
  <fix>3d</fix>
</trkpt>
<trkpt lat="-27.2744361" lon="151.2900645">
  <ele>349.31</ele>
  <time>2026-09-01T19:50:27Z</time>
  <course>188.02</course>
  <speed>0.12</speed>
  <fix>3d</fix>
</trkpt>
<trkpt lat="-27.2744365" lon="151.2900645">
  <ele>349.77</ele>
  <time>2026-09-01T19:50:27Z</time>
  <course>8.0</course>
  <speed>0.130384048104053</speed>
  <fix>3d</fix>
</trkpt>
<trkpt lat="-27.2744366" lon="151.2900644">
  <ele>349.91</ele>
  <time>2026-09-01T19:50:27Z</time>
  <course>7.98</course>
  <speed>0.130384048104053</speed>
  <fix>3d</fix>
</trkpt>
<trkpt lat="-27.2744363" lon="151.2900645">
  <ele>349.61</ele>
  <time>2026-09-01T19:50:27Z</time>
  <course>188.17</course>
  <speed>0.12</speed>
  <fix>3d</fix>
</trkpt>
<trkpt lat="-27.2744366" lon="151.2900644">
  <ele>349.95</ele>
  <time>2026-09-01T19:50:27Z</time>
  <course>7.98</course>
  <speed>0.130384048104053</speed>
  <fix>3d</fix>
</trkpt>
<trkpt lat="-27.2744367" lon="151.2900644">
  <ele>350.06</ele>
  <time>2026-09-01T19:50:27Z</time>
  <course>7.97</course>
  <speed>0.130384048104053</speed>
  <fix>3d</fix>
</trkpt>
<trkpt lat="-27.2744363" lon="151.2900645">
  <ele>349.61</ele>
  <time>2026-09-01T19:50:27Z</time>
  <course>188.17</course>
  <speed>0.12</speed>
  <fix>3d</fix>
</trkpt>
<trkpt lat="-27.2744367" lon="151.2900644">
  <ele>350.09</ele>
  <time>2026-09-01T19:50:27Z</time>
  <course>7.96</course>
  <speed>0.130384048104053</speed>
  <fix>3d</fix>
</trkpt>
<trkpt lat="-27.2744368" lon="151.2900644">
  <ele>350.21</ele>
  <time>2026-09-01T19:50:27Z</time>
  <course>7.96</course>
  <speed>0.130384048104053</speed>
  <fix>3d</fix>
</trkpt>
<trkpt lat="-27.2744365" lon="151.2900644">
  <ele>349.9</ele>
  <time>2026-09-01T19:50:27Z</time>
  <course>188.22</course>
  <speed>0.13</speed>
  <fix>3d</fix>
</trkpt>
<trkpt lat="-27.2744368" lon="151.2900644">
  <ele>350.25</ele>
  <time>2026-09-01T19:50:27Z</time>
  <course>7.96</course>
  <speed>0.130384048104053</speed>
  <fix>3d</fix>
</trkpt>
<trkpt lat="-27.2744369" lon="151.2900644">
  <ele>350.35</ele>
  <time>2026-09-01T19:50:27Z</time>
  <course>7.95</course>
  <speed>0.130384048104053</speed>
  <fix>3d</fix>
</trkpt>
<trkpt lat="-27.2744365" lon="151.2900644">
  <ele>349.9</ele>
  <time>2026-09-01T19:50:27Z</time>
  <course>188.22</course>
  <speed>0.13</speed>
  <fix>3d</fix>
</trkpt>
<trkpt lat="-27.2744369" lon="151.2900644">
  <ele>350.36</ele>
  <time>2026-09-01T19:50:27Z</time>
  <course>7.95</course>
  <speed>0.130384048104053</speed>
  <fix>3d</fix>
</trkpt>
<trkpt lat="-27.2744371" lon="151.2900644">
  <ele>350.5</ele>
  <time>2026-09-01T19:50:27Z</time>
  <course>7.94</course>
  <speed>0.130384048104053</speed>
  <fix>3d</fix>
</trkpt>
<trkpt lat="-27.2744367" lon="151.2900644">
  <ele>350.2</ele>
  <time>2026-09-01T19:50:27Z</time>
  <course>188.12</course>
  <speed>0.13</speed>
  <fix>3d</fix>
</trkpt>
<trkpt lat="-27.2744371" lon="151.2900644">
  <ele>350.5</ele>
  <time>2026-09-01T19:50:27Z</time>
  <course>7.94</course>
  <speed>0.130384048104053</speed>
  <fix>3d</fix>
</trkpt>
<trkpt lat="-27.2744372" lon="151.2900642">
  <ele>350.64</ele>
  <time>2026-09-01T19:50:27Z</time>
  <course>7.94</course>
  <speed>0.130384048104053</speed>
  <fix>3d</fix>
</trkpt>
<trkpt lat="-27.2744367" lon="151.2900644">
  <ele>350.2</ele>
  <time>2026-09-01T19:50:27Z</time>
  <course>188.12</course>
  <speed>0.13</speed>
  <fix>3d</fix>
</trkpt>
<trkpt lat="-27.2744372" lon="151.2900642">
  <ele>350.68</ele>
  <time>2026-09-01T19:50:27Z</time>
  <course>7.94</course>
  <speed>0.130384048104053</speed>
  <fix>3d</fix>
</trkpt>
<trkpt lat="-27.2744373" lon="151.2900642">
  <ele>350.79</ele>
  <time>2026-09-01T19:50:27Z</time>
  <course>7.95</course>
  <speed>0.130384048104053</speed>
  <fix>3d</fix>
</trkpt>
<trkpt lat="-27.274437" lon="151.2900643">
  <ele>350.49</ele>
  <time>2026-09-01T19:50:27Z</time>
  <course>188.0</course>
  <speed>0.13</speed>
  <fix>3d</fix>
</trkpt>
<trkpt lat="-27.2744373" lon="151.2900642">
  <ele>350.82</ele>
  <time>2026-09-01T19:50:27Z</time>
  <course>7.95</course>
  <speed>0.130384048104053</speed>
  <fix>3d</fix>
</trkpt>
<trkpt lat="-27.2744374" lon="151.2900642">
  <ele>350.93</ele>
  <time>2026-09-01T19:50:27Z</time>
  <course>7.97</course>
  <speed>0.130384048104053</speed>
  <fix>3d</fix>
</trkpt>
<trkpt lat="-27.274437" lon="151.2900643">
  <ele>350.49</ele>
  <time>2026-09-01T19:50:27Z</time>
  <course>188.0</course>
  <speed>0.13</speed>
  <fix>3d</fix>
</trkpt>
<trkpt lat="-27.2744375" lon="151.2900642">
  <ele>350.97</ele>
  <time>2026-09-01T19:50:27Z</time>
  <course>7.97</course>
  <speed>0.130384048104053</speed>
  <fix>3d</fix>
</trkpt>
<trkpt lat="-27.2744376" lon="151.2900642">
  <ele>351.08</ele>
  <time>2026-09-01T19:50:27Z</time>
  <course>7.99</course>
  <speed>0.130384048104053</speed>
  <fix>3d</fix>
</trkpt>
<trkpt lat="-27.2744373" lon="151.2900642">
  <ele>350.78</ele>
  <time>2026-09-01T19:50:27Z</time>
  <course>187.79</course>
  <speed>0.13</speed>
  <fix>3d</fix>
</trkpt>
<trkpt lat="-27.2744376" lon="151.2900642">
  <ele>351.11</ele>
  <time>2026-09-01T19:50:27Z</time>
  <course>8.0</course>
  <speed>0.130384048104053</speed>
  <fix>3d</fix>
</trkpt>
<trkpt lat="-27.2744377" lon="151.2900642">
  <ele>351.22</ele>
  <time>2026-09-01T19:50:27Z</time>
  <course>8.02</course>
  <speed>0.130384048104053</speed>
  <fix>3d</fix>
</trkpt>
<trkpt lat="-27.2744373" lon="151.2900642">
  <ele>350.78</ele>
  <time>2026-09-01T19:50:27Z</time>
  <course>187.79</course>
  <speed>0.13</speed>
  <fix>3d</fix>
</trkpt>
<trkpt lat="-27.2744377" lon="151.2900642">
  <ele>351.25</ele>
  <time>2026-09-01T19:50:27Z</time>
  <course>8.02</course>
  <speed>0.130384048104053</speed>
  <fix>3d</fix>
</trkpt>
<trkpt lat="-27.2744378" lon="151.2900642">
  <ele>351.36</ele>
  <time>2026-09-01T19:50:27Z</time>
  <course>8.04</course>
  <speed>0.130384048104053</speed>
  <fix>3d</fix>
</trkpt>
<trkpt lat="-27.2744375" lon="151.2900642">
  <ele>351.06</ele>
  <time>2026-09-01T19:50:27Z</time>
  <course>187.71</course>
  <speed>0.13</speed>
  <fix>3d</fix>
</trkpt>
<trkpt lat="-27.2744378" lon="151.2900642">
  <ele>351.4</ele>
  <time>2026-09-01T19:50:27Z</time>
  <course>8.04</course>
  <speed>0.12041594578792296</speed>
  <fix>3d</fix>
</trkpt>
<trkpt lat="-27.2744379" lon="151.2900642">
  <ele>351.51</ele>
  <time>2026-09-01T19:50:27Z</time>
  <course>8.06</course>
  <speed>0.12041594578792296</speed>
  <fix>3d</fix>
</trkpt>
<trkpt lat="-27.2744375" lon="151.2900642">
  <ele>351.06</ele>
  <time>2026-09-01T19:50:27Z</time>
  <course>187.71</course>
  <speed>0.13</speed>
  <fix>3d</fix>
</trkpt>
<trkpt lat="-27.2744379" lon="151.2900642">
  <ele>351.54</ele>
  <time>2026-09-01T19:50:27Z</time>
  <course>8.06</course>
  <speed>0.12041594578792296</speed>
  <fix>3d</fix>
</trkpt>
<trkpt lat="-27.274438" lon="151.2900642">
  <ele>351.65</ele>
  <time>2026-09-01T19:50:27Z</time>
  <course>8.06</course>
  <speed>0.12041594578792296</speed>
  <fix>3d</fix>
</trkpt>
<trkpt lat="-27.2744378" lon="151.2900642">
  <ele>351.35</ele>
  <time>2026-09-01T19:50:27Z</time>
  <course>187.94</course>
  <speed>0.13</speed>
  <fix>3d</fix>
</trkpt>
<trkpt lat="-27.2744381" lon="151.2900642">
  <ele>351.69</ele>
  <time>2026-09-01T19:50:27Z</time>
  <course>8.06</course>
  <speed>0.12041594578792296</speed>
  <fix>3d</fix>
</trkpt>
<trkpt lat="-27.2744381" lon="151.2900642">
  <ele>351.79</ele>
  <time>2026-09-01T19:50:27Z</time>
  <course>8.06</course>
  <speed>0.12041594578792296</speed>
  <fix>3d</fix>
</trkpt>
<trkpt lat="-27.2744378" lon="151.2900642">
  <ele>351.35</ele>
  <time>2026-09-01T19:50:27Z</time>
  <course>187.94</course>
  <speed>0.13</speed>
  <fix>3d</fix>
</trkpt>
<trkpt lat="-27.2744382" lon="151.2900642">
  <ele>351.83</ele>
  <time>2026-09-01T19:50:27Z</time>
  <course>8.06</course>
  <speed>0.12041594578792296</speed>
  <fix>3d</fix>
</trkpt>
<trkpt lat="-27.2744382" lon="151.2900642">
  <ele>351.93</ele>
  <time>2026-09-01T19:50:27Z</time>
  <course>8.04</course>
  <speed>0.12041594578792296</speed>
  <fix>3d</fix>
</trkpt>
<trkpt lat="-27.2744379" lon="151.2900642">
  <ele>351.64</ele>
  <time>2026-09-01T19:50:27Z</time>
  <course>188.1</course>
  <speed>0.12</speed>
  <fix>3d</fix>
</trkpt>
<trkpt lat="-27.2744382" lon="151.2900642">
  <ele>351.94</ele>
  <time>2026-09-01T19:50:27Z</time>
  <course>8.04</course>
  <speed>0.12041594578792296</speed>
  <fix>3d</fix>
</trkpt>
<trkpt lat="-27.2744384" lon="151.2900642">
  <ele>352.08</ele>
  <time>2026-09-01T19:50:27Z</time>
  <course>8.02</course>
  <speed>0.11045361017187261</speed>
  <fix>3d</fix>
</trkpt>
<trkpt lat="-27.2744379" lon="151.2900642">
  <ele>351.64</ele>
  <time>2026-09-01T19:50:27Z</time>
  <course>188.1</course>
  <speed>0.12</speed>
  <fix>3d</fix>
</trkpt>
<trkpt lat="-27.2744384" lon="151.2900642">
  <ele>352.08</ele>
  <time>2026-09-01T19:50:27Z</time>
  <course>8.02</course>
  <speed>0.11045361017187261</speed>
  <fix>3d</fix>
</trkpt>
<trkpt lat="-27.2744385" lon="151.2900641">
  <ele>352.22</ele>
  <time>2026-09-01T19:50:27Z</time>
  <course>8.01</course>
  <speed>0.11045361017187261</speed>
  <fix>3d</fix>
</trkpt>
<trkpt lat="-27.2744382" lon="151.2900642">
  <ele>351.93</ele>
  <time>2026-09-01T19:50:27Z</time>
  <course>188.12</course>
  <speed>0.12</speed>
  <fix>3d</fix>
</trkpt>
<trkpt lat="-27.2744385" lon="151.2900641">
  <ele>352.26</ele>
  <time>2026-09-01T19:50:27Z</time>
  <course>8.0</course>
  <speed>0.11045361017187261</speed>
  <fix>3d</fix>
</trkpt>
<trkpt lat="-27.2744386" lon="151.2900641">
  <ele>352.37</ele>
  <time>2026-09-01T19:50:27Z</time>
  <course>7.99</course>
  <speed>0.1004987562112089</speed>
  <fix>3d</fix>
</trkpt>
<trkpt lat="-27.2744382" lon="151.2900642">
  <ele>351.93</ele>
  <time>2026-09-01T19:50:27Z</time>
  <course>188.12</course>
  <speed>0.12</speed>
  <fix>3d</fix>
</trkpt>
<trkpt lat="-27.2744386" lon="151.2900641">
  <ele>352.4</ele>
  <time>2026-09-01T19:50:27Z</time>
  <course>7.99</course>
  <speed>0.1004987562112089</speed>
  <fix>3d</fix>
</trkpt>
<trkpt lat="-27.2744387" lon="151.2900641">
  <ele>352.51</ele>
  <time>2026-09-01T19:50:27Z</time>
  <course>7.98</course>
  <speed>0.1004987562112089</speed>
  <fix>3d</fix>
</trkpt>
<trkpt lat="-27.2744384" lon="151.2900641">
  <ele>352.21</ele>
  <time>2026-09-01T19:50:27Z</time>
  <course>188.08</course>
  <speed>0.11</speed>
  <fix>3d</fix>
</trkpt>
<trkpt lat="-27.2744387" lon="151.2900641">
  <ele>352.55</ele>
  <time>2026-09-01T19:50:27Z</time>
  <course>7.98</course>
  <speed>0.1004987562112089</speed>
  <fix>3d</fix>
</trkpt>
<trkpt lat="-27.2744387" lon="151.2900641">
  <ele>352.65</ele>
  <time>2026-09-01T19:50:27Z</time>
  <course>7.98</course>
  <speed>0.1004987562112089</speed>
  <fix>3d</fix>
</trkpt>
<trkpt lat="-27.2744384" lon="151.2900641">
  <ele>352.21</ele>
  <time>2026-09-01T19:50:27Z</time>
  <course>188.08</course>
  <speed>0.11</speed>
  <fix>3d</fix>
</trkpt>
<trkpt lat="-27.2744388" lon="151.2900641">
  <ele>352.69</ele>
  <time>2026-09-01T19:50:27Z</time>
  <course>7.98</course>
  <speed>0.1004987562112089</speed>
  <fix>3d</fix>
</trkpt>
<trkpt lat="-27.2744388" lon="151.2900641">
  <ele>352.8</ele>
  <time>2026-09-01T19:50:27Z</time>
  <course>7.98</course>
  <speed>0.09055385138137417</speed>
  <fix>3d</fix>
</trkpt>
<trkpt lat="-27.2744386" lon="151.2900641">
  <ele>352.5</ele>
  <time>2026-09-01T19:50:27Z</time>
  <course>188.15</course>
  <speed>0.1</speed>
  <fix>3d</fix>
</trkpt>
<trkpt lat="-27.2744389" lon="151.2900641">
  <ele>352.83</ele>
  <time>2026-09-01T19:50:27Z</time>
  <course>7.98</course>
  <speed>0.09055385138137417</speed>
  <fix>3d</fix>
</trkpt>
<trkpt lat="-27.2744389" lon="151.2900641">
  <ele>352.94</ele>
  <time>2026-09-01T19:50:27Z</time>
  <course>7.97</course>
  <speed>0.09055385138137417</speed>
  <fix>3d</fix>
</trkpt>
<trkpt lat="-27.2744386" lon="151.2900641">
  <ele>352.5</ele>
  <time>2026-09-01T19:50:27Z</time>
  <course>188.15</course>
  <speed>0.1</speed>
  <fix>3d</fix>
</trkpt>
<trkpt lat="-27.2744389" lon="151.2900641">
  <ele>352.98</ele>
  <time>2026-09-01T19:50:27Z</time>
  <course>7.97</course>
  <speed>0.09055385138137417</speed>
  <fix>3d</fix>
</trkpt>
<trkpt lat="-27.274439" lon="151.2900641">
  <ele>353.08</ele>
  <time>2026-09-01T19:50:27Z</time>
  <course>7.96</course>
  <speed>0.08062257748298549</speed>
  <fix>3d</fix>
</trkpt>
<trkpt lat="-27.2744388" lon="151.2900641">
  <ele>352.78</ele>
  <time>2026-09-01T19:50:27Z</time>
  <course>188.39</course>
  <speed>0.09</speed>
  <fix>3d</fix>
</trkpt>
<trkpt lat="-27.274439" lon="151.2900641">
  <ele>353.12</ele>
  <time>2026-09-01T19:50:27Z</time>
  <course>7.96</course>
  <speed>0.08062257748298549</speed>
  <fix>3d</fix>
</trkpt>
<trkpt lat="-27.2744391" lon="151.290064">
  <ele>353.23</ele>
  <time>2026-09-01T19:50:27Z</time>
  <course>7.95</course>
  <speed>0.08062257748298549</speed>
  <fix>3d</fix>
</trkpt>
<trkpt lat="-27.2744388" lon="151.2900641">
  <ele>352.78</ele>
  <time>2026-09-01T19:50:27Z</time>
  <course>188.39</course>
  <speed>0.09</speed>
  <fix>3d</fix>
</trkpt>
<trkpt lat="-27.2744391" lon="151.290064">
  <ele>353.23</ele>
  <time>2026-09-01T19:50:27Z</time>
  <course>7.95</course>
  <speed>0.08062257748298549</speed>
  <fix>3d</fix>
</trkpt>
<trkpt lat="-27.2744391" lon="151.290064">
  <ele>353.37</ele>
  <time>2026-09-01T19:50:27Z</time>
  <course>7.92</course>
  <speed>0.07071067811865475</speed>
  <fix>3d</fix>
</trkpt>
<trkpt lat="-27.274439" lon="151.290064">
  <ele>353.07</ele>
  <time>2026-09-01T19:50:27Z</time>
  <course>188.57</course>
  <speed>0.08</speed>
  <fix>3d</fix>
</trkpt>
<trkpt lat="-27.2744391" lon="151.290064">
  <ele>353.38</ele>
  <time>2026-09-01T19:50:27Z</time>
  <course>7.92</course>
  <speed>0.07071067811865475</speed>
  <fix>3d</fix>
</trkpt>
<trkpt lat="-27.2744392" lon="151.290064">
  <ele>353.52</ele>
  <time>2026-09-01T19:50:27Z</time>
  <course>7.91</course>
  <speed>0.07071067811865475</speed>
  <fix>3d</fix>
</trkpt>
<trkpt lat="-27.274439" lon="151.290064">
  <ele>353.07</ele>
  <time>2026-09-01T19:50:27Z</time>
  <course>188.57</course>
  <speed>0.08</speed>
  <fix>3d</fix>
</trkpt>
<trkpt lat="-27.2744392" lon="151.290064">
  <ele>353.52</ele>
  <time>2026-09-01T19:50:27Z</time>
  <course>7.91</course>
  <speed>0.07071067811865475</speed>
  <fix>3d</fix>
</trkpt>
<trkpt lat="-27.2744393" lon="151.290064">
  <ele>353.66</ele>
  <time>2026-09-01T19:50:27Z</time>
  <course>7.9</course>
  <speed>0.06</speed>
  <fix>3d</fix>
</trkpt>
<trkpt lat="-27.2744391" lon="151.290064">
  <ele>353.36</ele>
  <time>2026-09-01T19:50:27Z</time>
  <course>188.46</course>
  <speed>0.07</speed>
  <fix>3d</fix>
</trkpt>
<trkpt lat="-27.2744393" lon="151.290064">
  <ele>353.69</ele>
  <time>2026-09-01T19:50:27Z</time>
  <course>7.9</course>
  <speed>0.06</speed>
  <fix>3d</fix>
</trkpt>
<trkpt lat="-27.2744393" lon="151.290064">
  <ele>353.8</ele>
  <time>2026-09-01T19:50:27Z</time>
  <course>7.91</course>
  <speed>0.06</speed>
  <fix>3d</fix>
</trkpt>
<trkpt lat="-27.2744391" lon="151.290064">
  <ele>353.36</ele>
  <time>2026-09-01T19:50:27Z</time>
  <course>188.46</course>
  <speed>0.07</speed>
  <fix>3d</fix>
</trkpt>
<trkpt lat="-27.2744393" lon="151.290064">
  <ele>353.84</ele>
  <time>2026-09-01T19:50:27Z</time>
  <course>7.92</course>
  <speed>0.05</speed>
  <fix>3d</fix>
</trkpt>
<trkpt lat="-27.2744394" lon="151.290064">
  <ele>353.95</ele>
  <time>2026-09-01T19:50:27Z</time>
  <course>7.93</course>
  <speed>0.05</speed>
  <fix>3d</fix>
</trkpt>
<trkpt lat="-27.2744392" lon="151.290064">
  <ele>353.65</ele>
  <time>2026-09-01T19:50:27Z</time>
  <course>188.16</course>
  <speed>0.06</speed>
  <fix>3d</fix>
</trkpt>
<trkpt lat="-27.2744394" lon="151.290064">
  <ele>353.99</ele>
  <time>2026-09-01T19:50:27Z</time>
  <course>7.94</course>
  <speed>0.05</speed>
  <fix>3d</fix>
</trkpt>
<trkpt lat="-27.2744394" lon="151.290064">
  <ele>354.09</ele>
  <time>2026-09-01T19:50:27Z</time>
  <course>7.95</course>
  <speed>0.04</speed>
  <fix>3d</fix>
</trkpt>
<trkpt lat="-27.2744392" lon="151.290064">
  <ele>353.65</ele>
  <time>2026-09-01T19:50:27Z</time>
  <course>188.16</course>
  <speed>0.06</speed>
  <fix>3d</fix>
</trkpt>
<trkpt lat="-27.2744394" lon="151.290064">
  <ele>354.12</ele>
  <time>2026-09-01T19:50:27Z</time>
  <course>7.96</course>
  <speed>0.04</speed>
  <fix>3d</fix>
</trkpt>
<trkpt lat="-27.2744395" lon="151.290064">
  <ele>354.24</ele>
  <time>2026-09-01T19:50:27Z</time>
  <course>7.96</course>
  <speed>0.04</speed>
  <fix>3d</fix>
</trkpt>
<trkpt lat="-27.2744393" lon="151.290064">
  <ele>353.94</ele>
  <time>2026-09-01T19:50:27Z</time>
  <course>188.52</course>
  <speed>0.05</speed>
  <fix>3d</fix>
</trkpt>
<trkpt lat="-27.2744395" lon="151.290064">
  <ele>354.27</ele>
  <time>2026-09-01T19:50:27Z</time>
  <course>7.96</course>
  <speed>0.04</speed>
  <fix>3d</fix>
</trkpt>
<trkpt lat="-27.2744395" lon="151.290064">
  <ele>354.38</ele>
  <time>2026-09-01T19:50:27Z</time>
  <course>7.97</course>
  <speed>0.03</speed>
  <fix>3d</fix>
</trkpt>
<trkpt lat="-27.2744393" lon="151.290064">
  <ele>353.94</ele>
  <time>2026-09-01T19:50:27Z</time>
  <course>188.52</course>
  <speed>0.05</speed>
  <fix>3d</fix>
</trkpt>
<trkpt lat="-27.2744395" lon="151.290064">
  <ele>354.42</ele>
  <time>2026-09-01T19:50:27Z</time>
  <course>7.96</course>
  <speed>0.03</speed>
  <fix>3d</fix>
</trkpt>
<trkpt lat="-27.2744395" lon="151.290064">
  <ele>354.52</ele>
  <time>2026-09-01T19:50:27Z</time>
  <course>7.96</course>
  <speed>0.03</speed>
  <fix>3d</fix>
</trkpt>
<trkpt lat="-27.2744394" lon="151.290064">
  <ele>354.22</ele>
  <time>2026-09-01T19:50:27Z</time>
  <course>188.94</course>
  <speed>0.04</speed>
  <fix>3d</fix>
</trkpt>
<trkpt lat="-27.2744395" lon="151.290064">
  <ele>354.55</ele>
  <time>2026-09-01T19:50:27Z</time>
  <course>7.96</course>
  <speed>0.03</speed>
  <fix>3d</fix>
</trkpt>
<trkpt lat="-27.2744396" lon="151.290064">
  <ele>354.67</ele>
  <time>2026-09-01T19:50:27Z</time>
  <course>7.96</course>
  <speed>0.02</speed>
  <fix>3d</fix>
</trkpt>
<trkpt lat="-27.2744394" lon="151.290064">
  <ele>354.22</ele>
  <time>2026-09-01T19:50:27Z</time>
  <course>188.94</course>
  <speed>0.04</speed>
  <fix>3d</fix>
</trkpt>
<trkpt lat="-27.2744396" lon="151.290064">
  <ele>354.71</ele>
  <time>2026-09-01T19:50:27Z</time>
  <course>7.96</course>
  <speed>0.02</speed>
  <fix>3d</fix>
</trkpt>
<trkpt lat="-27.2744396" lon="151.290064">
  <ele>354.81</ele>
  <time>2026-09-01T19:50:27Z</time>
  <course>7.97</course>
  <speed>0.02</speed>
  <fix>3d</fix>
</trkpt>
<trkpt lat="-27.2744395" lon="151.290064">
  <ele>354.51</ele>
  <time>2026-09-01T19:50:27Z</time>
  <course>188.13</course>
  <speed>0.03</speed>
  <fix>3d</fix>
</trkpt>
<trkpt lat="-27.2744396" lon="151.290064">
  <ele>354.85</ele>
  <time>2026-09-01T19:50:27Z</time>
  <course>7.97</course>
  <speed>0.02</speed>
  <fix>3d</fix>
</trkpt>
<trkpt lat="-27.2744396" lon="151.290064">
  <ele>354.95</ele>
  <time>2026-09-01T19:50:27Z</time>
  <course>7.99</course>
  <speed>0.02</speed>
  <fix>3d</fix>
</trkpt>
<trkpt lat="-27.2744395" lon="151.290064">
  <ele>354.51</ele>
  <time>2026-09-01T19:50:27Z</time>
  <course>188.13</course>
  <speed>0.03</speed>
  <fix>3d</fix>
</trkpt>
<trkpt lat="-27.2744396" lon="151.290064">
  <ele>354.96</ele>
  <time>2026-09-01T19:50:27Z</time>
  <course>7.99</course>
  <speed>0.02</speed>
  <fix>3d</fix>
</trkpt>
<trkpt lat="-27.2744396" lon="151.290064">
  <ele>355.1</ele>
  <time>2026-09-01T19:50:27Z</time>
  <course>8.0</course>
  <speed>0.01</speed>
  <fix>3d</fix>
</trkpt>
<trkpt lat="-27.2744396" lon="151.290064">
  <ele>354.8</ele>
  <time>2026-09-01T19:50:27Z</time>
  <course>188.28</course>
  <speed>0.02</speed>
  <fix>3d</fix>
</trkpt>
<trkpt lat="-27.2744396" lon="151.290064">
  <ele>355.1</ele>
  <time>2026-09-01T19:50:27Z</time>
  <course>8.0</course>
  <speed>0.01</speed>
  <fix>3d</fix>
</trkpt>
<trkpt lat="-27.2744396" lon="151.290064">
  <ele>355.24</ele>
  <time>2026-09-01T19:50:27Z</time>
  <course>8.0</course>
  <speed>0.01</speed>
  <fix>3d</fix>
</trkpt>
<trkpt lat="-27.2744396" lon="151.290064">
  <ele>354.8</ele>
  <time>2026-09-01T19:50:27Z</time>
  <course>188.28</course>
  <speed>0.02</speed>
  <fix>3d</fix>
</trkpt>
<trkpt lat="-27.2744397" lon="151.2900639">
  <ele>355.27</ele>
  <time>2026-09-01T19:50:27Z</time>
  <course>7.99</course>
  <speed>0.01</speed>
  <fix>3d</fix>
</trkpt>
<trkpt lat="-27.2744397" lon="151.2900639">
  <ele>355.38</ele>
  <time>2026-09-01T19:50:27Z</time>
  <course>7.99</course>
  <speed>0.01</speed>
  <fix>3d</fix>
</trkpt>
<trkpt lat="-27.2744396" lon="151.290064">
  <ele>355.09</ele>
  <time>2026-09-01T19:50:27Z</time>
  <course>190.32</course>
  <speed>0.01</speed>
  <fix>3d</fix>
</trkpt>
<trkpt lat="-27.2744397" lon="151.2900639">
  <ele>355.39</ele>
  <time>2026-09-01T19:50:27Z</time>
  <course>7.99</course>
  <speed>0.01</speed>
  <fix>3d</fix>
</trkpt>
<trkpt lat="-27.2744397" lon="151.2900639">
  <ele>355.53</ele>
  <time>2026-09-01T19:50:27Z</time>
  <course>7.98</course>
  <speed>0.0</speed>
  <fix>3d</fix>
</trkpt>
<trkpt lat="-27.2744396" lon="151.290064">
  <ele>355.09</ele>
  <time>2026-09-01T19:50:27Z</time>
  <course>190.32</course>
  <speed>0.01</speed>
  <fix>3d</fix>
</trkpt>
<trkpt lat="-27.2744397" lon="151.2900639">
  <ele>355.56</ele>
  <time>2026-09-01T19:50:27Z</time>
  <course>7.98</course>
  <speed>0.0</speed>
  <fix>3d</fix>
</trkpt>
<trkpt lat="-27.2744397" lon="151.2900639">
  <ele>355.67</ele>
  <time>2026-09-01T19:50:27Z</time>
  <course>7.98</course>
  <speed>0.0</speed>
  <fix>3d</fix>
</trkpt>
<trkpt lat="-27.2744396" lon="151.2900639">
  <ele>355.38</ele>
  <time>2026-09-01T19:50:27Z</time>
  <course>192.07</course>
  <speed>0.01</speed>
  <fix>3d</fix>
</trkpt>
<trkpt lat="-27.2744397" lon="151.2900639">
  <ele>355.71</ele>
  <time>2026-09-01T19:50:27Z</time>
  <course>7.97</course>
  <speed>0.0</speed>
  <fix>3d</fix>
</trkpt>
<trkpt lat="-27.2744397" lon="151.2900639">
  <ele>355.82</ele>
  <time>2026-09-01T19:50:27Z</time>
  <course>7.97</course>
  <speed>0.0</speed>
  <fix>3d</fix>
</trkpt>
<trkpt lat="-27.2744396" lon="151.2900639">
  <ele>355.38</ele>
  <time>2026-09-01T19:50:27Z</time>
  <course>192.07</course>
  <speed>0.01</speed>
  <fix>3d</fix>
</trkpt>
<trkpt lat="-27.2744397" lon="151.2900639">
  <ele>355.85</ele>
  <time>2026-09-01T19:50:27Z</time>
  <course>7.97</course>
  <speed>0.0</speed>
  <fix>3d</fix>
</trkpt>
<trkpt lat="-27.2744397" lon="151.2900639">
  <ele>355.96</ele>
  <time>2026-09-01T19:50:27Z</time>
  <course>7.97</course>
  <speed>0.0</speed>
  <fix>3d</fix>
</trkpt>
<trkpt lat="-27.2744397" lon="151.2900639">
  <ele>355.66</ele>
  <time>2026-09-01T19:50:27Z</time>
  <course>196.02</course>
  <speed>0.0</speed>
  <fix>3d</fix>
</trkpt>
<trkpt lat="-27.2744397" lon="151.2900639">
  <ele>356.0</ele>
  <time>2026-09-01T19:50:27Z</time>
  <course>7.97</course>
  <speed>0.0</speed>
  <fix>3d</fix>
</trkpt>
<trkpt lat="-27.2744397" lon="151.2900639">
  <ele>356.1</ele>
  <time>2026-09-01T19:50:27Z</time>
  <course>7.97</course>
  <speed>0.0</speed>
  <fix>3d</fix>
</trkpt>
<trkpt lat="-27.2744397" lon="151.2900639">
  <ele>355.66</ele>
  <time>2026-09-01T19:50:27Z</time>
  <course>196.02</course>
  <speed>0.0</speed>
  <fix>3d</fix>
</trkpt>
<trkpt lat="-27.2744397" lon="151.2900639">
  <ele>356.14</ele>
  <time>2026-09-01T19:50:27Z</time>
  <course>7.97</course>
  <speed>0.0</speed>
  <fix>3d</fix>
</trkpt>
<trkpt lat="-27.2744397" lon="151.2900639">
  <ele>356.25</ele>
  <time>2026-09-01T19:50:27Z</time>
  <course>7.97</course>
  <speed>0.0</speed>
  <fix>3d</fix>
</trkpt>
<trkpt lat="-27.2744397" lon="151.2900639">
  <ele>355.95</ele>
  <time>2026-09-01T19:50:27Z</time>
  <course>328.22</course>
  <speed>0.0</speed>
  <fix>3d</fix>
</trkpt>
<trkpt lat="-27.2744397" lon="151.2900639">
  <ele>356.28</ele>
  <time>2026-09-01T19:50:27Z</time>
  <course>7.97</course>
  <speed>0.0</speed>
  <fix>3d</fix>
</trkpt>
<trkpt lat="-27.2744397" lon="151.2900639">
  <ele>356.39</ele>
  <time>2026-09-01T19:50:27Z</time>
  <course>7.98</course>
  <speed>0.0</speed>
  <fix>3d</fix>
</trkpt>
<trkpt lat="-27.2744397" lon="151.2900639">
  <ele>355.95</ele>
  <time>2026-09-01T19:50:27Z</time>
  <course>328.22</course>
  <speed>0.0</speed>
  <fix>3d</fix>
</trkpt>
<trkpt lat="-27.2744397" lon="151.2900639">
  <ele>356.39</ele>
  <time>2026-09-01T19:50:27Z</time>
  <course>7.98</course>
  <speed>0.01</speed>
  <fix>3d</fix>
</trkpt>
<trkpt lat="-27.2744397" lon="151.2900639">
  <ele>356.53</ele>
  <time>2026-09-01T19:50:27Z</time>
  <course>7.97</course>
  <speed>0.01</speed>
  <fix>3d</fix>
</trkpt>
<trkpt lat="-27.2744397" lon="151.2900639">
  <ele>356.24</ele>
  <time>2026-09-01T19:50:27Z</time>
  <course>359.74</course>
  <speed>0.0</speed>
  <fix>3d</fix>
</trkpt>
<trkpt lat="-27.2744397" lon="151.2900639">
  <ele>356.54</ele>
  <time>2026-09-01T19:50:27Z</time>
  <course>7.97</course>
  <speed>0.01</speed>
  <fix>3d</fix>
</trkpt>
<trkpt lat="-27.2744397" lon="151.2900639">
  <ele>356.68</ele>
  <time>2026-09-01T19:50:27Z</time>
  <course>7.97</course>
  <speed>0.01</speed>
  <fix>3d</fix>
</trkpt>
<trkpt lat="-27.2744397" lon="151.2900639">
  <ele>356.24</ele>
  <time>2026-09-01T19:50:27Z</time>
  <course>359.74</course>
  <speed>0.0</speed>
  <fix>3d</fix>
</trkpt>
<trkpt lat="-27.2744397" lon="151.2900639">
  <ele>356.72</ele>
  <time>2026-09-01T19:50:27Z</time>
  <course>7.97</course>
  <speed>0.01</speed>
  <fix>3d</fix>
</trkpt>
<trkpt lat="-27.2744397" lon="151.2900639">
  <ele>356.82</ele>
  <time>2026-09-01T19:50:27Z</time>
  <course>7.97</course>
  <speed>0.01</speed>
  <fix>3d</fix>
</trkpt>
<trkpt lat="-27.2744397" lon="151.2900639">
  <ele>356.52</ele>
  <time>2026-09-01T19:50:27Z</time>
  <course>2.68</course>
  <speed>0.01</speed>
  <fix>3d</fix>
</trkpt>
<trkpt lat="-27.2744397" lon="151.2900639">
  <ele>356.86</ele>
  <time>2026-09-01T19:50:27Z</time>
  <course>7.97</course>
  <speed>0.01</speed>
  <fix>3d</fix>
</trkpt>
<trkpt lat="-27.2744397" lon="151.2900639">
  <ele>356.96</ele>
  <time>2026-09-01T19:50:27Z</time>
  <course>7.96</course>
  <speed>0.01</speed>
  <fix>3d</fix>
</trkpt>
<trkpt lat="-27.2744397" lon="151.2900639">
  <ele>356.52</ele>
  <time>2026-09-01T19:50:27Z</time>
  <course>2.68</course>
  <speed>0.01</speed>
  <fix>3d</fix>
</trkpt>
<trkpt lat="-27.2744397" lon="151.2900639">
  <ele>357.0</ele>
  <time>2026-09-01T19:50:27Z</time>
  <course>7.96</course>
  <speed>0.02</speed>
  <fix>3d</fix>
</trkpt>
<trkpt lat="-27.2744397" lon="151.2900639">
  <ele>357.11</ele>
  <time>2026-09-01T19:50:27Z</time>
  <course>7.96</course>
  <speed>0.02</speed>
  <fix>3d</fix>
</trkpt>
<trkpt lat="-27.2744397" lon="151.2900639">
  <ele>356.81</ele>
  <time>2026-09-01T19:50:27Z</time>
  <course>3.16</course>
  <speed>0.01</speed>
  <fix>3d</fix>
</trkpt>
<trkpt lat="-27.2744397" lon="151.2900639">
  <ele>357.15</ele>
  <time>2026-09-01T19:50:27Z</time>
  <course>7.96</course>
  <speed>0.02</speed>
  <fix>3d</fix>
</trkpt>
<trkpt lat="-27.2744397" lon="151.2900639">
  <ele>357.25</ele>
  <time>2026-09-01T19:50:27Z</time>
  <course>7.96</course>
  <speed>0.02</speed>
  <fix>3d</fix>
</trkpt>
<trkpt lat="-27.2744397" lon="151.2900639">
  <ele>356.81</ele>
  <time>2026-09-01T19:50:27Z</time>
  <course>3.16</course>
  <speed>0.01</speed>
  <fix>3d</fix>
</trkpt>
<trkpt lat="-27.2744397" lon="151.2900639">
  <ele>357.26</ele>
  <time>2026-09-01T19:50:27Z</time>
  <course>7.96</course>
  <speed>0.02</speed>
  <fix>3d</fix>
</trkpt>
<trkpt lat="-27.2744396" lon="151.2900639">
  <ele>357.39</ele>
  <time>2026-09-01T19:50:27Z</time>
  <course>7.95</course>
  <speed>0.02</speed>
  <fix>3d</fix>
</trkpt>
<trkpt lat="-27.2744397" lon="151.2900639">
  <ele>357.09</ele>
  <time>2026-09-01T19:50:27Z</time>
  <course>3.14</course>
  <speed>0.02</speed>
  <fix>3d</fix>
</trkpt>
<trkpt lat="-27.2744396" lon="151.2900639">
  <ele>357.4</ele>
  <time>2026-09-01T19:50:27Z</time>
  <course>7.95</course>
  <speed>0.02</speed>
  <fix>3d</fix>
</trkpt>
<trkpt lat="-27.2744396" lon="151.2900639">
  <ele>357.54</ele>
  <time>2026-09-01T19:50:27Z</time>
  <course>7.95</course>
  <speed>0.02</speed>
  <fix>3d</fix>
</trkpt>
<trkpt lat="-27.2744397" lon="151.2900639">
  <ele>357.09</ele>
  <time>2026-09-01T19:50:27Z</time>
  <course>3.14</course>
  <speed>0.02</speed>
  <fix>3d</fix>
</trkpt>
<trkpt lat="-27.2744396" lon="151.2900639">
  <ele>357.54</ele>
  <time>2026-09-01T19:50:27Z</time>
  <course>7.95</course>
  <speed>0.02</speed>
  <fix>3d</fix>
</trkpt>
<trkpt lat="-27.2744396" lon="151.2900639">
  <ele>357.68</ele>
  <time>2026-09-01T19:50:27Z</time>
  <course>7.95</course>
  <speed>0.02</speed>
  <fix>3d</fix>
</trkpt>
<trkpt lat="-27.2744396" lon="151.2900639">
  <ele>357.38</ele>
  <time>2026-09-01T19:50:27Z</time>
  <course>3.24</course>
  <speed>0.02</speed>
  <fix>3d</fix>
</trkpt>
<trkpt lat="-27.2744396" lon="151.2900639">
  <ele>357.72</ele>
  <time>2026-09-01T19:50:27Z</time>
  <course>7.95</course>
  <speed>0.02</speed>
  <fix>3d</fix>
</trkpt>
<trkpt lat="-27.2744396" lon="151.2900639">
  <ele>357.82</ele>
  <time>2026-09-01T19:50:27Z</time>
  <course>7.95</course>
  <speed>0.02</speed>
  <fix>3d</fix>
</trkpt>
<trkpt lat="-27.2744396" lon="151.2900639">
  <ele>357.38</ele>
  <time>2026-09-01T19:50:27Z</time>
  <course>3.24</course>
  <speed>0.02</speed>
  <fix>3d</fix>
</trkpt>
<trkpt lat="-27.2744396" lon="151.2900639">
  <ele>357.86</ele>
  <time>2026-09-01T19:50:27Z</time>
  <course>7.95</course>
  <speed>0.02</speed>
  <fix>3d</fix>
</trkpt>
<trkpt lat="-27.2744395" lon="151.2900639">
  <ele>357.97</ele>
  <time>2026-09-01T19:50:27Z</time>
  <course>7.94</course>
  <speed>0.02</speed>
  <fix>3d</fix>
</trkpt>
<trkpt lat="-27.2744396" lon="151.2900639">
  <ele>357.67</ele>
  <time>2026-09-01T19:50:27Z</time>
  <course>3.86</course>
  <speed>0.02</speed>
  <fix>3d</fix>
</trkpt>
<trkpt lat="-27.2744395" lon="151.2900639">
  <ele>357.97</ele>
  <time>2026-09-01T19:50:27Z</time>
  <course>7.94</course>
  <speed>0.02</speed>
  <fix>3d</fix>
</trkpt>
<trkpt lat="-27.2744395" lon="151.2900639">
  <ele>358.11</ele>
  <time>2026-09-01T19:50:27Z</time>
  <course>7.94</course>
  <speed>0.03</speed>
  <fix>3d</fix>
</trkpt>
<trkpt lat="-27.2744396" lon="151.2900639">
  <ele>357.67</ele>
  <time>2026-09-01T19:50:27Z</time>
  <course>3.86</course>
  <speed>0.02</speed>
  <fix>3d</fix>
</trkpt>
<trkpt lat="-27.2744395" lon="151.2900639">
  <ele>358.15</ele>
  <time>2026-09-01T19:50:27Z</time>
  <course>7.94</course>
  <speed>0.03</speed>
  <fix>3d</fix>
</trkpt>
<trkpt lat="-27.2744395" lon="151.2900639">
  <ele>358.26</ele>
  <time>2026-09-01T19:50:27Z</time>
  <course>7.93</course>
  <speed>0.03</speed>
  <fix>3d</fix>
</trkpt>
<trkpt lat="-27.2744395" lon="151.2900639">
  <ele>357.96</ele>
  <time>2026-09-01T19:50:27Z</time>
  <course>5.12</course>
  <speed>0.02</speed>
  <fix>3d</fix>
</trkpt>
<trkpt lat="-27.2744395" lon="151.2900639">
  <ele>358.29</ele>
  <time>2026-09-01T19:50:27Z</time>
  <course>7.93</course>
  <speed>0.03</speed>
  <fix>3d</fix>
</trkpt>
<trkpt lat="-27.2744395" lon="151.2900639">
  <ele>358.4</ele>
  <time>2026-09-01T19:50:27Z</time>
  <course>7.93</course>
  <speed>0.03</speed>
  <fix>3d</fix>
</trkpt>
<trkpt lat="-27.2744395" lon="151.2900639">
  <ele>357.96</ele>
  <time>2026-09-01T19:50:27Z</time>
  <course>5.12</course>
  <speed>0.02</speed>
  <fix>3d</fix>
</trkpt>
<trkpt lat="-27.2744395" lon="151.2900639">
  <ele>358.43</ele>
  <time>2026-09-01T19:50:27Z</time>
  <course>7.94</course>
  <speed>0.03</speed>
  <fix>3d</fix>
</trkpt>
<trkpt lat="-27.2744394" lon="151.2900639">
  <ele>358.54</ele>
  <time>2026-09-01T19:50:27Z</time>
  <course>7.94</course>
  <speed>0.03</speed>
  <fix>3d</fix>
</trkpt>
<trkpt lat="-27.2744395" lon="151.2900639">
  <ele>358.25</ele>
  <time>2026-09-01T19:50:27Z</time>
  <course>6.75</course>
  <speed>0.03</speed>
  <fix>3d</fix>
</trkpt>
<trkpt lat="-27.2744394" lon="151.2900639">
  <ele>358.58</ele>
  <time>2026-09-01T19:50:27Z</time>
  <course>7.94</course>
  <speed>0.03</speed>
  <fix>3d</fix>
</trkpt>
<trkpt lat="-27.2744394" lon="151.2900639">
  <ele>358.69</ele>
  <time>2026-09-01T19:50:27Z</time>
  <course>7.95</course>
  <speed>0.03</speed>
  <fix>3d</fix>
</trkpt>
<trkpt lat="-27.2744395" lon="151.2900639">
  <ele>358.25</ele>
  <time>2026-09-01T19:50:27Z</time>
  <course>6.75</course>
  <speed>0.03</speed>
  <fix>3d</fix>
</trkpt>
<trkpt lat="-27.2744394" lon="151.2900639">
  <ele>358.72</ele>
  <time>2026-09-01T19:50:27Z</time>
  <course>7.95</course>
  <speed>0.03</speed>
  <fix>3d</fix>
</trkpt>
<trkpt lat="-27.2744394" lon="151.2900639">
  <ele>358.83</ele>
  <time>2026-09-01T19:50:27Z</time>
  <course>7.96</course>
  <speed>0.03</speed>
  <fix>3d</fix>
</trkpt>
<trkpt lat="-27.2744394" lon="151.2900639">
  <ele>358.53</ele>
  <time>2026-09-01T19:50:27Z</time>
  <course>8.36</course>
  <speed>0.03</speed>
  <fix>3d</fix>
</trkpt>
<trkpt lat="-27.2744394" lon="151.2900639">
  <ele>358.87</ele>
  <time>2026-09-01T19:50:27Z</time>
  <course>7.97</course>
  <speed>0.03</speed>
  <fix>3d</fix>
</trkpt>
<trkpt lat="-27.2744394" lon="151.2900639">
  <ele>358.97</ele>
  <time>2026-09-01T19:50:27Z</time>
  <course>7.97</course>
  <speed>0.03</speed>
  <fix>3d</fix>
</trkpt>
<trkpt lat="-27.2744394" lon="151.2900639">
  <ele>358.53</ele>
  <time>2026-09-01T19:50:27Z</time>
  <course>8.36</course>
  <speed>0.03</speed>
  <fix>3d</fix>
</trkpt>
<trkpt lat="-27.2744393" lon="151.2900639">
  <ele>359.01</ele>
  <time>2026-09-01T19:50:27Z</time>
  <course>7.98</course>
  <speed>0.03</speed>
  <fix>3d</fix>
</trkpt>
<trkpt lat="-27.2744393" lon="151.2900639">
  <ele>359.12</ele>
  <time>2026-09-01T19:50:27Z</time>
  <course>7.99</course>
  <speed>0.03</speed>
  <fix>3d</fix>
</trkpt>
<trkpt lat="-27.2744394" lon="151.2900639">
  <ele>358.82</ele>
  <time>2026-09-01T19:50:27Z</time>
  <course>9.96</course>
  <speed>0.03</speed>
  <fix>3d</fix>
</trkpt>
<trkpt lat="-27.2744393" lon="151.2900639">
  <ele>359.15</ele>
  <time>2026-09-01T19:50:27Z</time>
  <course>7.99</course>
  <speed>0.03</speed>
  <fix>3d</fix>
</trkpt>
<trkpt lat="-27.2744393" lon="151.2900639">
  <ele>359.26</ele>
  <time>2026-09-01T19:50:27Z</time>
  <course>8.01</course>
  <speed>0.03</speed>
  <fix>3d</fix>
</trkpt>
<trkpt lat="-27.2744394" lon="151.2900639">
  <ele>358.82</ele>
  <time>2026-09-01T19:50:27Z</time>
  <course>9.96</course>
  <speed>0.03</speed>
  <fix>3d</fix>
</trkpt>
<trkpt lat="-27.2744393" lon="151.2900639">
  <ele>359.3</ele>
  <time>2026-09-01T19:50:27Z</time>
  <course>8.01</course>
  <speed>0.03</speed>
  <fix>3d</fix>
</trkpt>
<trkpt lat="-27.2744393" lon="151.2900639">
  <ele>359.4</ele>
  <time>2026-09-01T19:50:27Z</time>
  <course>8.02</course>
  <speed>0.03</speed>
  <fix>3d</fix>
</trkpt>
<trkpt lat="-27.2744393" lon="151.2900639">
  <ele>359.11</ele>
  <time>2026-09-01T19:50:27Z</time>
  <course>10.89</course>
  <speed>0.03</speed>
  <fix>3d</fix>
</trkpt>
<trkpt lat="-27.2744393" lon="151.2900639">
  <ele>359.45</ele>
  <time>2026-09-01T19:50:27Z</time>
  <course>8.03</course>
  <speed>0.03</speed>
  <fix>3d</fix>
</trkpt>
<trkpt lat="-27.2744392" lon="151.2900639">
  <ele>359.55</ele>
  <time>2026-09-01T19:50:27Z</time>
  <course>8.04</course>
  <speed>0.03</speed>
  <fix>3d</fix>
</trkpt>
<trkpt lat="-27.2744393" lon="151.2900639">
  <ele>359.11</ele>
  <time>2026-09-01T19:50:27Z</time>
  <course>10.89</course>
  <speed>0.03</speed>
  <fix>3d</fix>
</trkpt>
<trkpt lat="-27.2744392" lon="151.2900639">
  <ele>359.55</ele>
  <time>2026-09-01T19:50:27Z</time>
  <course>8.04</course>
  <speed>0.03</speed>
  <fix>3d</fix>
</trkpt>
<trkpt lat="-27.2744392" lon="151.2900639">
  <ele>359.69</ele>
  <time>2026-09-01T19:50:27Z</time>
  <course>8.05</course>
  <speed>0.03</speed>
  <fix>3d</fix>
</trkpt>
<trkpt lat="-27.2744392" lon="151.2900639">
  <ele>359.39</ele>
  <time>2026-09-01T19:50:27Z</time>
  <course>9.99</course>
  <speed>0.03</speed>
  <fix>3d</fix>
</trkpt>
<trkpt lat="-27.2744392" lon="151.2900639">
  <ele>359.7</ele>
  <time>2026-09-01T19:50:27Z</time>
  <course>8.05</course>
  <speed>0.03</speed>
  <fix>3d</fix>
</trkpt>
<trkpt lat="-27.2744392" lon="151.2900639">
  <ele>359.83</ele>
  <time>2026-09-01T19:50:27Z</time>
  <course>8.05</course>
  <speed>0.02</speed>
  <fix>3d</fix>
</trkpt>
<trkpt lat="-27.2744392" lon="151.2900639">
  <ele>359.39</ele>
  <time>2026-09-01T19:50:27Z</time>
  <course>9.99</course>
  <speed>0.03</speed>
  <fix>3d</fix>
</trkpt>
<trkpt lat="-27.2744392" lon="151.2900639">
  <ele>359.89</ele>
  <time>2026-09-01T19:50:27Z</time>
  <course>8.05</course>
  <speed>0.02</speed>
  <fix>3d</fix>
</trkpt>
<trkpt lat="-27.2744392" lon="151.2900639">
  <ele>359.98</ele>
  <time>2026-09-01T19:50:27Z</time>
  <course>8.05</course>
  <speed>0.02</speed>
  <fix>3d</fix>
</trkpt>
<trkpt lat="-27.2744392" lon="151.2900639">
  <ele>359.68</ele>
  <time>2026-09-01T19:50:27Z</time>
  <course>8.18</course>
  <speed>0.03</speed>
  <fix>3d</fix>
</trkpt>
<trkpt lat="-27.2744392" lon="151.2900639">
  <ele>360.02</ele>
  <time>2026-09-01T19:50:27Z</time>
  <course>8.05</course>
  <speed>0.02</speed>
  <fix>3d</fix>
</trkpt>
<trkpt lat="-27.2744391" lon="151.2900639">
  <ele>360.12</ele>
  <time>2026-09-01T19:50:27Z</time>
  <course>8.04</course>
  <speed>0.02</speed>
  <fix>3d</fix>
</trkpt>
<trkpt lat="-27.2744392" lon="151.2900639">
  <ele>359.68</ele>
  <time>2026-09-01T19:50:27Z</time>
  <course>8.18</course>
  <speed>0.03</speed>
  <fix>3d</fix>
</trkpt>
<trkpt lat="-27.2744391" lon="151.2900639">
  <ele>360.16</ele>
  <time>2026-09-01T19:50:27Z</time>
  <course>8.04</course>
  <speed>0.02</speed>
  <fix>3d</fix>
</trkpt>
<trkpt lat="-27.2744391" lon="151.2900639">
  <ele>360.27</ele>
  <time>2026-09-01T19:50:27Z</time>
  <course>8.03</course>
  <speed>0.02</speed>
  <fix>3d</fix>
</trkpt>
<trkpt lat="-27.2744391" lon="151.2900639">
  <ele>359.97</ele>
  <time>2026-09-01T19:50:27Z</time>
  <course>6.85</course>
  <speed>0.02</speed>
  <fix>3d</fix>
</trkpt>
<trkpt lat="-27.2744391" lon="151.2900639">
  <ele>360.3</ele>
  <time>2026-09-01T19:50:27Z</time>
  <course>8.02</course>
  <speed>0.02</speed>
  <fix>3d</fix>
</trkpt>
<trkpt lat="-27.2744391" lon="151.2900639">
  <ele>360.41</ele>
  <time>2026-09-01T19:50:27Z</time>
  <course>8.01</course>
  <speed>0.02</speed>
  <fix>3d</fix>
</trkpt>
<trkpt lat="-27.2744391" lon="151.2900639">
  <ele>359.97</ele>
  <time>2026-09-01T19:50:27Z</time>
  <course>6.85</course>
  <speed>0.02</speed>
  <fix>3d</fix>
</trkpt>
<trkpt lat="-27.2744391" lon="151.2900639">
  <ele>360.45</ele>
  <time>2026-09-01T19:50:27Z</time>
  <course>8.01</course>
  <speed>0.02</speed>
  <fix>3d</fix>
</trkpt>
<trkpt lat="-27.2744391" lon="151.2900639">
  <ele>360.55</ele>
  <time>2026-09-01T19:50:27Z</time>
  <course>8.0</course>
  <speed>0.02</speed>
  <fix>3d</fix>
</trkpt>
<trkpt lat="-27.2744391" lon="151.2900639">
  <ele>360.26</ele>
  <time>2026-09-01T19:50:27Z</time>
  <course>6.46</course>
  <speed>0.02</speed>
  <fix>3d</fix>
</trkpt>
<trkpt lat="-27.2744391" lon="151.2900639">
  <ele>360.59</ele>
  <time>2026-09-01T19:50:27Z</time>
  <course>8.0</course>
  <speed>0.02</speed>
  <fix>3d</fix>
</trkpt>
<trkpt lat="-27.274439" lon="151.2900639">
  <ele>360.7</ele>
  <time>2026-09-01T19:50:27Z</time>
  <course>7.99</course>
  <speed>0.02</speed>
  <fix>3d</fix>
</trkpt>
<trkpt lat="-27.2744391" lon="151.2900639">
  <ele>360.26</ele>
  <time>2026-09-01T19:50:27Z</time>
  <course>6.46</course>
  <speed>0.02</speed>
  <fix>3d</fix>
</trkpt>
<trkpt lat="-27.274439" lon="151.2900639">
  <ele>360.73</ele>
  <time>2026-09-01T19:50:27Z</time>
  <course>7.99</course>
  <speed>0.02</speed>
  <fix>3d</fix>
</trkpt>
<trkpt lat="-27.274439" lon="151.2900639">
  <ele>360.84</ele>
  <time>2026-09-01T19:50:27Z</time>
  <course>7.98</course>
  <speed>0.02</speed>
  <fix>3d</fix>
</trkpt>
<trkpt lat="-27.274439" lon="151.2900639">
  <ele>360.54</ele>
  <time>2026-09-01T19:50:27Z</time>
  <course>7.41</course>
  <speed>0.02</speed>
  <fix>3d</fix>
</trkpt>
<trkpt lat="-27.274439" lon="151.2900639">
  <ele>360.88</ele>
  <time>2026-09-01T19:50:27Z</time>
  <course>7.98</course>
  <speed>0.02</speed>
  <fix>3d</fix>
</trkpt>
<trkpt lat="-27.274439" lon="151.2900639">
  <ele>360.98</ele>
  <time>2026-09-01T19:50:27Z</time>
  <course>7.98</course>
  <speed>0.02</speed>
  <fix>3d</fix>
</trkpt>
<trkpt lat="-27.274439" lon="151.2900639">
  <ele>360.54</ele>
  <time>2026-09-01T19:50:27Z</time>
  <course>7.41</course>
  <speed>0.02</speed>
  <fix>3d</fix>
</trkpt>
<trkpt lat="-27.274439" lon="151.2900639">
  <ele>361.02</ele>
  <time>2026-09-01T19:50:27Z</time>
  <course>7.98</course>
  <speed>0.02</speed>
  <fix>3d</fix>
</trkpt>
<trkpt lat="-27.274439" lon="151.2900639">
  <ele>361.13</ele>
  <time>2026-09-01T19:50:27Z</time>
  <course>7.98</course>
  <speed>0.02</speed>
  <fix>3d</fix>
</trkpt>
<trkpt lat="-27.274439" lon="151.2900639">
  <ele>360.83</ele>
  <time>2026-09-01T19:50:27Z</time>
  <course>8.65</course>
  <speed>0.02</speed>
  <fix>3d</fix>
</trkpt>
<trkpt lat="-27.274439" lon="151.2900639">
  <ele>361.13</ele>
  <time>2026-09-01T19:50:27Z</time>
  <course>7.98</course>
  <speed>0.02</speed>
  <fix>3d</fix>
</trkpt>
<trkpt lat="-27.274439" lon="151.290064">
  <ele>361.27</ele>
  <time>2026-09-01T19:50:27Z</time>
  <course>7.98</course>
  <speed>0.01</speed>
  <fix>3d</fix>
</trkpt>
<trkpt lat="-27.274439" lon="151.2900639">
  <ele>360.83</ele>
  <time>2026-09-01T19:50:27Z</time>
  <course>8.65</course>
  <speed>0.02</speed>
  <fix>3d</fix>
</trkpt>
<trkpt lat="-27.274439" lon="151.290064">
  <ele>361.27</ele>
  <time>2026-09-01T19:50:27Z</time>
  <course>7.98</course>
  <speed>0.01</speed>
  <fix>3d</fix>
</trkpt>
<trkpt lat="-27.274439" lon="151.290064">
  <ele>361.41</ele>
  <time>2026-09-01T19:50:27Z</time>
  <course>7.99</course>
  <speed>0.01</speed>
  <fix>3d</fix>
</trkpt>
<trkpt lat="-27.274439" lon="151.2900639">
  <ele>361.12</ele>
  <time>2026-09-01T19:50:27Z</time>
  <course>9.01</course>
  <speed>0.02</speed>
  <fix>3d</fix>
</trkpt>
<trkpt lat="-27.2744389" lon="151.290064">
  <ele>361.45</ele>
  <time>2026-09-01T19:50:27Z</time>
  <course>7.99</course>
  <speed>0.01</speed>
  <fix>3d</fix>
</trkpt>
<trkpt lat="-27.2744389" lon="151.290064">
  <ele>361.56</ele>
  <time>2026-09-01T19:50:27Z</time>
  <course>7.99</course>
  <speed>0.01</speed>
  <fix>3d</fix>
</trkpt>
<trkpt lat="-27.274439" lon="151.2900639">
  <ele>361.12</ele>
  <time>2026-09-01T19:50:27Z</time>
  <course>9.01</course>
  <speed>0.02</speed>
  <fix>3d</fix>
</trkpt>
<trkpt lat="-27.2744389" lon="151.290064">
  <ele>361.6</ele>
  <time>2026-09-01T19:50:27Z</time>
  <course>7.99</course>
  <speed>0.01</speed>
  <fix>3d</fix>
</trkpt>
<trkpt lat="-27.2744389" lon="151.290064">
  <ele>361.7</ele>
  <time>2026-09-01T19:50:27Z</time>
  <course>7.99</course>
  <speed>0.01</speed>
  <fix>3d</fix>
</trkpt>
<trkpt lat="-27.2744389" lon="151.290064">
  <ele>361.4</ele>
  <time>2026-09-01T19:50:27Z</time>
  <course>8.68</course>
  <speed>0.01</speed>
  <fix>3d</fix>
</trkpt>
<trkpt lat="-27.2744389" lon="151.290064">
  <ele>361.74</ele>
  <time>2026-09-01T19:50:27Z</time>
  <course>7.99</course>
  <speed>0.01</speed>
  <fix>3d</fix>
</trkpt>
<trkpt lat="-27.2744389" lon="151.290064">
  <ele>361.84</ele>
  <time>2026-09-01T19:50:27Z</time>
  <course>8.0</course>
  <speed>0.01</speed>
  <fix>3d</fix>
</trkpt>
<trkpt lat="-27.2744389" lon="151.290064">
  <ele>361.4</ele>
  <time>2026-09-01T19:50:27Z</time>
  <course>8.68</course>
  <speed>0.01</speed>
  <fix>3d</fix>
</trkpt>
<trkpt lat="-27.2744389" lon="151.290064">
  <ele>361.88</ele>
  <time>2026-09-01T19:50:27Z</time>
  <course>8.0</course>
  <speed>0.01</speed>
  <fix>3d</fix>
</trkpt>
<trkpt lat="-27.2744389" lon="151.290064">
  <ele>361.99</ele>
  <time>2026-09-01T19:50:27Z</time>
  <course>8.0</course>
  <speed>0.0</speed>
  <fix>3d</fix>
</trkpt>
<trkpt lat="-27.2744389" lon="151.290064">
  <ele>361.69</ele>
  <time>2026-09-01T19:50:27Z</time>
  <course>8.37</course>
  <speed>0.01</speed>
  <fix>3d</fix>
</trkpt>
<trkpt lat="-27.2744389" lon="151.290064">
  <ele>362.03</ele>
  <time>2026-09-01T19:50:27Z</time>
  <course>8.0</course>
  <speed>0.0</speed>
  <fix>3d</fix>
</trkpt>
<trkpt lat="-27.2744389" lon="151.290064">
  <ele>362.13</ele>
  <time>2026-09-01T19:50:27Z</time>
  <course>8.0</course>
  <speed>0.0</speed>
  <fix>3d</fix>
</trkpt>
<trkpt lat="-27.2744389" lon="151.290064">
  <ele>361.69</ele>
  <time>2026-09-01T19:50:27Z</time>
  <course>8.37</course>
  <speed>0.01</speed>
  <fix>3d</fix>
</trkpt>
<trkpt lat="-27.2744389" lon="151.290064">
  <ele>362.17</ele>
  <time>2026-09-01T19:50:27Z</time>
  <course>8.0</course>
  <speed>0.0</speed>
  <fix>3d</fix>
</trkpt>
<trkpt lat="-27.2744389" lon="151.290064">
  <ele>362.27</ele>
  <time>2026-09-01T19:50:27Z</time>
  <course>8.0</course>
  <speed>0.0</speed>
  <fix>3d</fix>
</trkpt>
<trkpt lat="-27.2744389" lon="151.290064">
  <ele>361.97</ele>
  <time>2026-09-01T19:50:27Z</time>
  <course>9.58</course>
  <speed>0.01</speed>
  <fix>3d</fix>
</trkpt>
<trkpt lat="-27.2744389" lon="151.290064">
  <ele>362.34</ele>
  <time>2026-09-01T19:50:27Z</time>
  <course>8.01</course>
  <speed>0.0</speed>
  <fix>3d</fix>
</trkpt>
<trkpt lat="-27.2744389" lon="151.290064">
  <ele>362.42</ele>
  <time>2026-09-01T19:50:27Z</time>
  <course>8.01</course>
  <speed>0.0</speed>
  <fix>3d</fix>
</trkpt>
<trkpt lat="-27.2744389" lon="151.290064">
  <ele>361.97</ele>
  <time>2026-09-01T19:50:27Z</time>
  <course>9.58</course>
  <speed>0.01</speed>
  <fix>3d</fix>
</trkpt>
<trkpt lat="-27.2744389" lon="151.290064">
  <ele>362.46</ele>
  <time>2026-09-01T19:50:27Z</time>
  <course>8.01</course>
  <speed>0.0</speed>
  <fix>3d</fix>
</trkpt>
<trkpt lat="-27.2744389" lon="151.290064">
  <ele>362.56</ele>
  <time>2026-09-01T19:50:27Z</time>
  <course>8.01</course>
  <speed>0.0</speed>
  <fix>3d</fix>
</trkpt>
<trkpt lat="-27.2744389" lon="151.290064">
  <ele>362.26</ele>
  <time>2026-09-01T19:50:27Z</time>
  <course>12.72</course>
  <speed>0.0</speed>
  <fix>3d</fix>
</trkpt>
<trkpt lat="-27.2744389" lon="151.290064">
  <ele>362.6</ele>
  <time>2026-09-01T19:50:27Z</time>
  <course>8.01</course>
  <speed>0.0</speed>
  <fix>3d</fix>
</trkpt>
<trkpt lat="-27.2744389" lon="151.290064">
  <ele>362.71</ele>
  <time>2026-09-01T19:50:27Z</time>
  <course>8.01</course>
  <speed>0.0</speed>
  <fix>3d</fix>
</trkpt>
<trkpt lat="-27.2744389" lon="151.290064">
  <ele>362.26</ele>
  <time>2026-09-01T19:50:27Z</time>
  <course>12.72</course>
  <speed>0.0</speed>
  <fix>3d</fix>
</trkpt>
<trkpt lat="-27.2744389" lon="151.290064">
  <ele>362.71</ele>
  <time>2026-09-01T19:50:27Z</time>
  <course>8.01</course>
  <speed>0.0</speed>
  <fix>3d</fix>
</trkpt>
<trkpt lat="-27.2744389" lon="151.290064">
  <ele>362.85</ele>
  <time>2026-09-01T19:50:27Z</time>
  <course>8.01</course>
  <speed>0.0</speed>
  <fix>3d</fix>
</trkpt>
<trkpt lat="-27.2744389" lon="151.290064">
  <ele>362.55</ele>
  <time>2026-09-01T19:50:27Z</time>
  <course>16.77</course>
  <speed>0.0</speed>
  <fix>3d</fix>
</trkpt>
<trkpt lat="-27.2744389" lon="151.290064">
  <ele>362.85</ele>
  <time>2026-09-01T19:50:27Z</time>
  <course>8.01</course>
  <speed>0.0</speed>
  <fix>3d</fix>
</trkpt>
<trkpt lat="-27.2744389" lon="151.290064">
  <ele>362.99</ele>
  <time>2026-09-01T19:50:27Z</time>
  <course>8.01</course>
  <speed>0.0</speed>
  <fix>3d</fix>
</trkpt>
<trkpt lat="-27.2744389" lon="151.290064">
  <ele>362.55</ele>
  <time>2026-09-01T19:50:27Z</time>
  <course>16.77</course>
  <speed>0.0</speed>
  <fix>3d</fix>
</trkpt>
<trkpt lat="-27.2744389" lon="151.290064">
  <ele>363.03</ele>
  <time>2026-09-01T19:50:27Z</time>
  <course>8.01</course>
  <speed>0.0</speed>
  <fix>3d</fix>
</trkpt>
<trkpt lat="-27.2744389" lon="151.290064">
  <ele>363.14</ele>
  <time>2026-09-01T19:50:27Z</time>
  <course>8.01</course>
  <speed>0.0</speed>
  <fix>3d</fix>
</trkpt>
<trkpt lat="-27.2744389" lon="151.290064">
  <ele>362.84</ele>
  <time>2026-09-01T19:50:27Z</time>
  <course>25.92</course>
  <speed>0.0</speed>
  <fix>3d</fix>
</trkpt>
<trkpt lat="-27.2744389" lon="151.290064">
  <ele>363.17</ele>
  <time>2026-09-01T19:50:27Z</time>
  <course>8.01</course>
  <speed>0.0</speed>
  <fix>3d</fix>
</trkpt>
<trkpt lat="-27.2744389" lon="151.290064">
  <ele>363.28</ele>
  <time>2026-09-01T19:50:27Z</time>
  <course>8.01</course>
  <speed>0.0</speed>
  <fix>3d</fix>
</trkpt>
<trkpt lat="-27.2744389" lon="151.290064">
  <ele>362.84</ele>
  <time>2026-09-01T19:50:27Z</time>
  <course>25.92</course>
  <speed>0.0</speed>
  <fix>3d</fix>
</trkpt>
<trkpt lat="-27.2744389" lon="151.290064">
  <ele>363.42</ele>
  <time>2026-09-01T19:50:27Z</time>
  <course>8.01</course>
  <speed>0.0</speed>
  <fix>3d</fix>
</trkpt>
<trkpt lat="-27.2744389" lon="151.290064">
  <ele>363.13</ele>
  <time>2026-09-01T19:50:27Z</time>
  <course>121.66</course>
  <speed>0.0</speed>
  <fix>3d</fix>
</trkpt>
<trkpt lat="-27.2744389" lon="151.290064">
  <ele>363.56</ele>
  <time>2026-09-01T19:50:27Z</time>
  <course>8.01</course>
  <speed>0.0</speed>
  <fix>3d</fix>
</trkpt>
<trkpt lat="-27.2744389" lon="151.290064">
  <ele>363.13</ele>
  <time>2026-09-01T19:50:27Z</time>
  <course>121.66</course>
  <speed>0.0</speed>
  <fix>3d</fix>
</trkpt>
<trkpt lat="-27.2744389" lon="151.290064">
  <ele>363.7</ele>
  <time>2026-09-01T19:50:27Z</time>
  <course>8.01</course>
  <speed>0.0</speed>
  <fix>3d</fix>
</trkpt>
<trkpt lat="-27.2744389" lon="151.290064">
  <ele>363.41</ele>
  <time>2026-09-01T19:50:27Z</time>
  <course>166.57</course>
  <speed>0.0</speed>
  <fix>3d</fix>
</trkpt>
<trkpt lat="-27.2744389" lon="151.290064">
  <ele>363.83</ele>
  <time>2026-09-01T19:50:27Z</time>
  <course>8.01</course>
  <speed>0.0</speed>
  <fix>3d</fix>
</trkpt>
<trkpt lat="-27.2744389" lon="151.290064">
  <ele>363.41</ele>
  <time>2026-09-01T19:50:27Z</time>
  <course>166.57</course>
  <speed>0.0</speed>
  <fix>3d</fix>
</trkpt>
<trkpt lat="-27.2744389" lon="151.290064">
  <ele>363.95</ele>
  <time>2026-09-01T19:50:27Z</time>
  <course>8.02</course>
  <speed>0.0</speed>
  <fix>3d</fix>
</trkpt>
<trkpt lat="-27.2741388" lon="151.290064">
  <ele>363.69</ele>
  <time>2026-09-01T19:50:27Z</time>
  <course>177.8</course>
  <speed>0.0</speed>
  <fix>3d</fix>
</trkpt>
<trkpt lat="-27.2744389" lon="151.290064">
  <ele>364.05</ele>
  <time>2026-09-01T19:50:27Z</time>
  <course>8.02</course>
  <speed>0.01</speed>
  <fix>3d</fix>
</trkpt>
<trkpt lat="-27.2741388" lon="151.290064">
  <ele>363.69</ele>
  <time>2026-09-01T19:50:27Z</time>
  <course>177.8</course>
  <speed>0.0</speed>
  <fix>3d</fix>
</trkpt>
<trkpt lat="-27.2744389" lon="151.290064">
  <ele>364.13</ele>
  <time>2026-09-01T19:50:27Z</time>
  <course>8.02</course>
  <speed>0.02</speed>
  <fix>3d</fix>
</trkpt>
<trkpt lat="-27.2741388" lon="151.290064">
  <ele>363.93</ele>
  <time>2026-09-01T19:50:27Z</time>
  <course>184.86</course>
  <speed>0.0</speed>
  <fix>3d</fix>
</trkpt>
<trkpt lat="-27.2744389" lon="151.290064">
  <ele>364.2</ele>
  <time>2026-09-01T19:50:27Z</time>
  <course>8.03</course>
  <speed>0.03</speed>
  <fix>3d</fix>
</trkpt>
<trkpt lat="-27.2741388" lon="151.290064">
  <ele>363.93</ele>
  <time>2026-09-01T19:50:27Z</time>
  <course>184.86</course>
  <speed>0.0</speed>
  <fix>3d</fix>
</trkpt>
<trkpt lat="-27.2744389" lon="151.290064">
  <ele>364.25</ele>
  <time>2026-09-01T19:50:27Z</time>
  <course>8.03</course>
  <speed>0.04</speed>
  <fix>3d</fix>
</trkpt>
<trkpt lat="-27.2741388" lon="151.290064">
  <ele>364.12</ele>
  <time>2026-09-01T19:50:27Z</time>
  <course>187.28</course>
  <speed>0.02</speed>
  <fix>3d</fix>
</trkpt>
<trkpt lat="-27.2744389" lon="151.290064">
  <ele>364.28</ele>
  <time>2026-09-01T19:50:27Z</time>
  <course>8.03</course>
  <speed>0.05</speed>
  <fix>3d</fix>
</trkpt>
<trkpt lat="-27.2741388" lon="151.290064">
  <ele>364.12</ele>
  <time>2026-09-01T19:50:27Z</time>
  <course>187.28</course>
  <speed>0.02</speed>
  <fix>3d</fix>
</trkpt>
<trkpt lat="-27.274439" lon="151.290064">
  <ele>364.3</ele>
  <time>2026-09-01T19:50:27Z</time>
  <course>8.03</course>
  <speed>0.06</speed>
  <fix>3d</fix>
</trkpt>
<trkpt lat="-27.2741388" lon="151.290064">
  <ele>364.24</ele>
  <time>2026-09-01T19:50:27Z</time>
  <course>187.87</course>
  <speed>0.04</speed>
  <fix>3d</fix>
</trkpt>
<trkpt lat="-27.274439" lon="151.290064">
  <ele>364.31</ele>
  <time>2026-09-01T19:50:27Z</time>
  <course>8.02</course>
  <speed>0.07071067811865475</speed>
  <fix>3d</fix>
</trkpt>
<trkpt lat="-27.2741388" lon="151.290064">
  <ele>364.24</ele>
  <time>2026-09-01T19:50:27Z</time>
  <course>187.87</course>
  <speed>0.04</speed>
  <fix>3d</fix>
</trkpt>
<trkpt lat="-27.2744391" lon="151.290064">
  <ele>364.3</ele>
  <time>2026-09-01T19:50:27Z</time>
  <course>8.02</course>
  <speed>0.08062257748298549</speed>
  <fix>3d</fix>
</trkpt>
<trkpt lat="-27.2741389" lon="151.290064">
  <ele>364.29</ele>
  <time>2026-09-01T19:50:27Z</time>
  <course>187.99</course>
  <speed>0.06</speed>
  <fix>3d</fix>
</trkpt>
<trkpt lat="-27.2744392" lon="151.290064">
  <ele>364.29</ele>
  <time>2026-09-01T19:50:27Z</time>
  <course>8.02</course>
  <speed>0.09055385138137417</speed>
  <fix>3d</fix>
</trkpt>
<trkpt lat="-27.2741389" lon="151.290064">
  <ele>364.29</ele>
  <time>2026-09-01T19:50:27Z</time>
  <course>187.99</course>
  <speed>0.06</speed>
  <fix>3d</fix>
</trkpt>
<trkpt lat="-27.2744393" lon="151.290064">
  <ele>364.27</ele>
  <time>2026-09-01T19:50:27Z</time>
  <course>8.01</course>
  <speed>0.1004987562112089</speed>
  <fix>3d</fix>
</trkpt>
<trkpt lat="-27.274139" lon="151.290064">
  <ele>364.3</ele>
  <time>2026-09-01T19:50:27Z</time>
  <course>188.02</course>
  <speed>0.08</speed>
  <fix>3d</fix>
</trkpt>
<trkpt lat="-27.2744394" lon="151.290064">
  <ele>364.25</ele>
  <time>2026-09-01T19:50:27Z</time>
  <course>8.0</course>
  <speed>0.11045361017187261</speed>
  <fix>3d</fix>
</trkpt>
<trkpt lat="-27.274139" lon="151.290064">
  <ele>364.3</ele>
  <time>2026-09-01T19:50:27Z</time>
  <course>188.02</course>
  <speed>0.08</speed>
  <fix>3d</fix>
</trkpt>
<trkpt lat="-27.2744395" lon="151.290064">
  <ele>364.23</ele>
  <time>2026-09-01T19:50:27Z</time>
  <course>7.99</course>
  <speed>0.11045361017187261</speed>
  <fix>3d</fix>
</trkpt>
<trkpt lat="-27.2741392" lon="151.290064">
  <ele>364.27</ele>
  <time>2026-09-01T19:50:27Z</time>
  <course>188.01</course>
  <speed>0.1</speed>
  <fix>3d</fix>
</trkpt>
<trkpt lat="-27.2744396" lon="151.2900639">
  <ele>364.21</ele>
  <time>2026-09-01T19:50:27Z</time>
  <course>7.98</course>
  <speed>0.12041594578792296</speed>
  <fix>3d</fix>
</trkpt>
<trkpt lat="-27.2741392" lon="151.290064">
  <ele>364.27</ele>
  <time>2026-09-01T19:50:27Z</time>
  <course>188.01</course>
  <speed>0.1</speed>
  <fix>3d</fix>
</trkpt>
<trkpt lat="-27.2744397" lon="151.2900639">
  <ele>364.19</ele>
  <time>2026-09-01T19:50:27Z</time>
  <course>7.98</course>
  <speed>0.12041594578792296</speed>
  <fix>3d</fix>
</trkpt>
<trkpt lat="-27.2741394" lon="151.2900639">
  <ele>364.22</ele>
  <time>2026-09-01T19:50:27Z</time>
  <course>187.99</course>
  <speed>0.11</speed>
  <fix>3d</fix>
</trkpt>
<trkpt lat="-27.2744398" lon="151.2900639">
  <ele>364.17</ele>
  <time>2026-09-01T19:50:27Z</time>
  <course>7.98</course>
  <speed>0.12041594578792296</speed>
  <fix>3d</fix>
</trkpt>
<trkpt lat="-27.2741394" lon="151.2900639">
  <ele>364.22</ele>
  <time>2026-09-01T19:50:27Z</time>
  <course>187.99</course>
  <speed>0.11</speed>
  <fix>3d</fix>
</trkpt>
<trkpt lat="-27.2744399" lon="151.2900639">
  <ele>364.16</ele>
  <time>2026-09-01T19:50:27Z</time>
  <course>7.98</course>
  <speed>0.130384048104053</speed>
  <fix>3d</fix>
</trkpt>
<trkpt lat="-27.2741396" lon="151.2900639">
  <ele>364.19</ele>
  <time>2026-09-01T19:50:27Z</time>
  <course>187.98</course>
  <speed>0.12</speed>
  <fix>3d</fix>
</trkpt>
<trkpt lat="-27.2744401" lon="151.2900639">
  <ele>364.15</ele>
  <time>2026-09-01T19:50:27Z</time>
  <course>7.98</course>
  <speed>0.130384048104053</speed>
  <fix>3d</fix>
</trkpt>
<trkpt lat="-27.2741396" lon="151.2900639">
  <ele>364.19</ele>
  <time>2026-09-01T19:50:27Z</time>
  <course>187.98</course>
  <speed>0.12</speed>
  <fix>3d</fix>
</trkpt>
<trkpt lat="-27.2744402" lon="151.2900639">
  <ele>364.15</ele>
  <time>2026-09-01T19:50:27Z</time>
  <course>7.98</course>
  <speed>0.130384048104053</speed>
  <fix>3d</fix>
</trkpt>
<trkpt lat="-27.2741399" lon="151.2900639">
  <ele>364.16</ele>
  <time>2026-09-01T19:50:27Z</time>
  <course>187.98</course>
  <speed>0.13</speed>
  <fix>3d</fix>
</trkpt>
<trkpt lat="-27.2744403" lon="151.2900637">
  <ele>364.15</ele>
  <time>2026-09-01T19:50:28Z</time>
  <course>7.98</course>
  <speed>0.12041594578792296</speed>
  <fix>3d</fix>
</trkpt>
<trkpt lat="-27.2741399" lon="151.2900639">
  <ele>364.16</ele>
  <time>2026-09-01T19:50:28Z</time>
  <course>187.98</course>
  <speed>0.13</speed>
  <fix>3d</fix>
</trkpt>
<trkpt lat="-27.2744404" lon="151.2900637">
  <ele>364.16</ele>
  <time>2026-09-01T19:50:28Z</time>
  <course>7.98</course>
  <speed>0.12041594578792296</speed>
  <fix>3d</fix>
</trkpt>
<trkpt lat="-27.2741401" lon="151.2900638">
  <ele>364.15</ele>
  <time>2026-09-01T19:50:28Z</time>
  <course>187.99</course>
  <speed>0.13</speed>
  <fix>3d</fix>
</trkpt>
<trkpt lat="-27.2744405" lon="151.2900637">
  <ele>364.17</ele>
  <time>2026-09-01T19:50:28Z</time>
  <course>7.98</course>
  <speed>0.12041594578792296</speed>
  <fix>3d</fix>
</trkpt>
<trkpt lat="-27.2741401" lon="151.2900638">
  <ele>364.15</ele>
  <time>2026-09-01T19:50:28Z</time>
  <course>187.99</course>
  <speed>0.13</speed>
  <fix>3d</fix>
</trkpt>
<trkpt lat="-27.2744406" lon="151.2900637">
  <ele>364.18</ele>
  <time>2026-09-01T19:50:28Z</time>
  <course>8.0</course>
  <speed>0.11045361017187261</speed>
  <fix>3d</fix>
</trkpt>
<trkpt lat="-27.2741403" lon="151.2900637">
  <ele>364.16</ele>
  <time>2026-09-01T19:50:28Z</time>
  <course>187.98</course>
  <speed>0.12</speed>
  <fix>3d</fix>
</trkpt>
<trkpt lat="-27.2744407" lon="151.2900637">
  <ele>364.19</ele>
  <time>2026-09-01T19:50:28Z</time>
  <course>8.01</course>
  <speed>0.11045361017187261</speed>
  <fix>3d</fix>
</trkpt>
<trkpt lat="-27.2741403" lon="151.2900637">
  <ele>364.16</ele>
  <time>2026-09-01T19:50:28Z</time>
  <course>187.98</course>
  <speed>0.12</speed>
  <fix>3d</fix>
</trkpt>
<trkpt lat="-27.2744408" lon="151.2900637">
  <ele>364.21</ele>
  <time>2026-09-01T19:50:28Z</time>
  <course>8.03</course>
  <speed>0.1004987562112089</speed>
  <fix>3d</fix>
</trkpt>
<trkpt lat="-27.2741405" lon="151.2900637">
  <ele>364.18</ele>
  <time>2026-09-01T19:50:28Z</time>
  <course>187.98</course>
  <speed>0.12</speed>
  <fix>3d</fix>
</trkpt>
<trkpt lat="-27.2744409" lon="151.2900637">
  <ele>364.22</ele>
  <time>2026-09-01T19:50:28Z</time>
  <course>8.04</course>
  <speed>0.1004987562112089</speed>
  <fix>3d</fix>
</trkpt>
<trkpt lat="-27.2741405" lon="151.2900637">
  <ele>364.18</ele>
  <time>2026-09-01T19:50:28Z</time>
  <course>187.98</course>
  <speed>0.12</speed>
  <fix>3d</fix>
</trkpt>
<trkpt lat="-27.274441" lon="151.2900637">
  <ele>364.23</ele>
  <time>2026-09-01T19:50:28Z</time>
  <course>8.04</course>
  <speed>0.09055385138137417</speed>
  <fix>3d</fix>
</trkpt>
<trkpt lat="-27.2741407" lon="151.2900637">
  <ele>364.2</ele>
  <time>2026-09-01T19:50:28Z</time>
  <course>188.01</course>
  <speed>0.11</speed>
  <fix>3d</fix>
</trkpt>
<trkpt lat="-27.2744411" lon="151.2900637">
  <ele>364.24</ele>
  <time>2026-09-01T19:50:28Z</time>
  <course>8.03</course>
  <speed>0.08062257748298549</speed>
  <fix>3d</fix>
</trkpt>
<trkpt lat="-27.2741407" lon="151.2900637">
  <ele>364.2</ele>
  <time>2026-09-01T19:50:28Z</time>
  <course>188.01</course>
  <speed>0.11</speed>
  <fix>3d</fix>
</trkpt>
<trkpt lat="-27.2744412" lon="151.2900637">
  <ele>364.25</ele>
  <time>2026-09-01T19:50:28Z</time>
  <course>8.02</course>
  <speed>0.08062257748298549</speed>
  <fix>3d</fix>
</trkpt>
<trkpt lat="-27.2741409" lon="151.2900637">
  <ele>364.22</ele>
  <time>2026-09-01T19:50:28Z</time>
  <course>188.04</course>
  <speed>0.09</speed>
  <fix>3d</fix>
</trkpt>
<trkpt lat="-27.2744413" lon="151.2900637">
  <ele>364.26</ele>
  <time>2026-09-01T19:50:28Z</time>
  <course>8.01</course>
  <speed>0.07071067811865475</speed>
  <fix>3d</fix>
</trkpt>
<trkpt lat="-27.2741409" lon="151.2900637">
  <ele>364.22</ele>
  <time>2026-09-01T19:50:28Z</time>
  <course>188.04</course>
  <speed>0.09</speed>
  <fix>3d</fix>
</trkpt>
<trkpt lat="-27.2744413" lon="151.2900637">
  <ele>364.27</ele>
  <time>2026-09-01T19:50:28Z</time>
  <course>7.99</course>
  <speed>0.06</speed>
  <fix>3d</fix>
</trkpt>
<trkpt lat="-27.2741411" lon="151.2900637">
  <ele>364.25</ele>
  <time>2026-09-01T19:50:28Z</time>
  <course>188.04</course>
  <speed>0.08</speed>
  <fix>3d</fix>
</trkpt>
<trkpt lat="-27.2744414" lon="151.2900637">
  <ele>364.27</ele>
  <time>2026-09-01T19:50:28Z</time>
  <course>7.97</course>
  <speed>0.05</speed>
  <fix>3d</fix>
</trkpt>
<trkpt lat="-27.2741411" lon="151.2900637">
  <ele>364.25</ele>
  <time>2026-09-01T19:50:28Z</time>
  <course>188.04</course>
  <speed>0.08</speed>
  <fix>3d</fix>
</trkpt>
<trkpt lat="-27.2744414" lon="151.2900637">
  <ele>364.27</ele>
  <time>2026-09-01T19:50:28Z</time>
  <course>7.96</course>
  <speed>0.04</speed>
  <fix>3d</fix>
</trkpt>
<trkpt lat="-27.2741413" lon="151.2900637">
  <ele>364.26</ele>
  <time>2026-09-01T19:50:28Z</time>
  <course>188.42</course>
  <speed>0.06</speed>
  <fix>3d</fix>
</trkpt>
<trkpt lat="-27.2744415" lon="151.2900636">
  <ele>364.27</ele>
  <time>2026-09-01T19:50:28Z</time>
  <course>7.96</course>
  <speed>0.04</speed>
  <fix>3d</fix>
</trkpt>
<trkpt lat="-27.2741413" lon="151.2900637">
  <ele>364.26</ele>
  <time>2026-09-01T19:50:28Z</time>
  <course>188.42</course>
  <speed>0.06</speed>
  <fix>3d</fix>
</trkpt>
<trkpt lat="-27.2744415" lon="151.2900636">
  <ele>364.27</ele>
  <time>2026-09-01T19:50:28Z</time>
  <course>7.96</course>
  <speed>0.03</speed>
  <fix>3d</fix>
</trkpt>
<trkpt lat="-27.2741414" lon="151.2900636">
  <ele>364.27</ele>
  <time>2026-09-01T19:50:28Z</time>
  <course>189.45</course>
  <speed>0.05</speed>
  <fix>3d</fix>
</trkpt>
<trkpt lat="-27.2744415" lon="151.2900636">
  <ele>364.27</ele>
  <time>2026-09-01T19:50:28Z</time>
  <course>7.97</course>
  <speed>0.02</speed>
  <fix>3d</fix>
</trkpt>
<trkpt lat="-27.2741414" lon="151.2900636">
  <ele>364.27</ele>
  <time>2026-09-01T19:50:28Z</time>
  <course>189.45</course>
  <speed>0.05</speed>
  <fix>3d</fix>
</trkpt>
<trkpt lat="-27.2744415" lon="151.2900636">
  <ele>364.26</ele>
  <time>2026-09-01T19:50:28Z</time>
  <course>7.98</course>
  <speed>0.01</speed>
  <fix>3d</fix>
</trkpt>
<trkpt lat="-27.2741414" lon="151.2900636">
  <ele>364.27</ele>
  <time>2026-09-01T19:50:28Z</time>
  <course>190.69</course>
  <speed>0.03</speed>
  <fix>3d</fix>
</trkpt>
<trkpt lat="-27.2744415" lon="151.2900636">
  <ele>364.26</ele>
  <time>2026-09-01T19:50:28Z</time>
  <course>7.99</course>
  <speed>0.0</speed>
  <fix>3d</fix>
</trkpt>
<trkpt lat="-27.2741414" lon="151.2900636">
  <ele>364.27</ele>
  <time>2026-09-01T19:50:28Z</time>
  <course>190.69</course>
  <speed>0.03</speed>
  <fix>3d</fix>
</trkpt>
<trkpt lat="-27.2744415" lon="151.2900636">
  <ele>364.25</ele>
  <time>2026-09-01T19:50:28Z</time>
  <course>7.99</course>
  <speed>0.0</speed>
  <fix>3d</fix>
</trkpt>
<trkpt lat="-27.2741414" lon="151.2900636">
  <ele>364.26</ele>
  <time>2026-09-01T19:50:28Z</time>
  <course>192.53</course>
  <speed>0.01</speed>
  <fix>3d</fix>
</trkpt>
<trkpt lat="-27.2744415" lon="151.2900636">
  <ele>364.25</ele>
  <time>2026-09-01T19:50:28Z</time>
  <course>8.0</course>
  <speed>0.01</speed>
  <fix>3d</fix>
</trkpt>
<trkpt lat="-27.2741414" lon="151.2900636">
  <ele>364.26</ele>
  <time>2026-09-01T19:50:28Z</time>
  <course>192.53</course>
  <speed>0.01</speed>
  <fix>3d</fix>
</trkpt>
<trkpt lat="-27.2744415" lon="151.2900636">
  <ele>364.25</ele>
  <time>2026-09-01T19:50:28Z</time>
  <course>8.0</course>
  <speed>0.02</speed>
  <fix>3d</fix>
</trkpt>
<trkpt lat="-27.2741414" lon="151.2900636">
  <ele>364.25</ele>
  <time>2026-09-01T19:50:28Z</time>
  <course>358.24</course>
  <speed>0.0</speed>
  <fix>3d</fix>
</trkpt>
<trkpt lat="-27.2744415" lon="151.2900636">
  <ele>364.24</ele>
  <time>2026-09-01T19:50:28Z</time>
  <course>8.01</course>
  <speed>0.03</speed>
  <fix>3d</fix>
</trkpt>
<trkpt lat="-27.2741414" lon="151.2900636">
  <ele>364.25</ele>
  <time>2026-09-01T19:50:28Z</time>
  <course>358.24</course>
  <speed>0.0</speed>
  <fix>3d</fix>
</trkpt>
<trkpt lat="-27.2744415" lon="151.2900636">
  <ele>364.24</ele>
  <time>2026-09-01T19:50:28Z</time>
  <course>8.01</course>
  <speed>0.04</speed>
  <fix>3d</fix>
</trkpt>
<trkpt lat="-27.2741414" lon="151.2900636">
  <ele>364.24</ele>
  <time>2026-09-01T19:50:28Z</time>
  <course>6.6</course>
  <speed>0.02</speed>
  <fix>3d</fix>
</trkpt>
<trkpt lat="-27.2744415" lon="151.2900636">
  <ele>364.24</ele>
  <time>2026-09-01T19:50:28Z</time>
  <course>8.01</course>
  <speed>0.04</speed>
  <fix>3d</fix>
</trkpt>
<trkpt lat="-27.2741414" lon="151.2900636">
  <ele>364.24</ele>
  <time>2026-09-01T19:50:28Z</time>
  <course>6.6</course>
  <speed>0.02</speed>
  <fix>3d</fix>
</trkpt>
<trkpt lat="-27.2744415" lon="151.2900636">
  <ele>364.24</ele>
  <time>2026-09-01T19:50:28Z</time>
  <course>8.0</course>
  <speed>0.05</speed>
  <fix>3d</fix>
</trkpt>
<trkpt lat="-27.2741414" lon="151.2900636">
  <ele>364.24</ele>
  <time>2026-09-01T19:50:28Z</time>
  <course>7.31</course>
  <speed>0.04</speed>
  <fix>3d</fix>
</trkpt>
<trkpt lat="-27.2744414" lon="151.2900636">
  <ele>364.24</ele>
  <time>2026-09-01T19:50:28Z</time>
  <course>7.99</course>
  <speed>0.06</speed>
  <fix>3d</fix>
</trkpt>
<trkpt lat="-27.2741414" lon="151.2900636">
  <ele>364.24</ele>
  <time>2026-09-01T19:50:28Z</time>
  <course>7.31</course>
  <speed>0.04</speed>
  <fix>3d</fix>
</trkpt>
<trkpt lat="-27.2744414" lon="151.2900636">
  <ele>364.24</ele>
  <time>2026-09-01T19:50:28Z</time>
  <course>7.99</course>
  <speed>0.07071067811865475</speed>
  <fix>3d</fix>
</trkpt>
<trkpt lat="-27.2741414" lon="151.2900636">
  <ele>364.24</ele>
  <time>2026-09-01T19:50:28Z</time>
  <course>7.56</course>
  <speed>0.05</speed>
  <fix>3d</fix>
</trkpt>
<trkpt lat="-27.2744413" lon="151.2900636">
  <ele>364.24</ele>
  <time>2026-09-01T19:50:28Z</time>
  <course>7.99</course>
  <speed>0.08062257748298549</speed>
  <fix>3d</fix>
</trkpt>
<trkpt lat="-27.2741414" lon="151.2900636">
  <ele>364.24</ele>
  <time>2026-09-01T19:50:28Z</time>
  <course>7.56</course>
  <speed>0.05</speed>
  <fix>3d</fix>
</trkpt>
<trkpt lat="-27.2744412" lon="151.2900636">
  <ele>364.24</ele>
  <time>2026-09-01T19:50:28Z</time>
  <course>7.98</course>
  <speed>0.08062257748298549</speed>
  <fix>3d</fix>
</trkpt>
<trkpt lat="-27.2741413" lon="151.2900636">
  <ele>364.24</ele>
  <time>2026-09-01T19:50:28Z</time>
  <course>8.02</course>
  <speed>0.07</speed>
  <fix>3d</fix>
</trkpt>
<trkpt lat="-27.2744411" lon="151.2900636">
  <ele>364.25</ele>
  <time>2026-09-01T19:50:28Z</time>
  <course>7.99</course>
  <speed>0.09055385138137417</speed>
  <fix>3d</fix>
</trkpt>
<trkpt lat="-27.2741413" lon="151.2900636">
  <ele>364.24</ele>
  <time>2026-09-01T19:50:28Z</time>
  <course>8.02</course>
  <speed>0.07</speed>
  <fix>3d</fix>
</trkpt>
<trkpt lat="-27.274441" lon="151.2900636">
  <ele>364.25</ele>
  <time>2026-09-01T19:50:28Z</time>
  <course>7.99</course>
  <speed>0.09055385138137417</speed>
  <fix>3d</fix>
</trkpt>
<trkpt lat="-27.2741411" lon="151.2900636">
  <ele>364.24</ele>
  <time>2026-09-01T19:50:28Z</time>
  <course>8.49</course>
  <speed>0.08</speed>
  <fix>3d</fix>
</trkpt>
<trkpt lat="-27.274441" lon="151.2900636">
  <ele>364.25</ele>
  <time>2026-09-01T19:50:28Z</time>
  <course>7.99</course>
  <speed>0.1004987562112089</speed>
  <fix>3d</fix>
</trkpt>
<trkpt lat="-27.2741411" lon="151.2900636">
  <ele>364.24</ele>
  <time>2026-09-01T19:50:28Z</time>
  <course>8.49</course>
  <speed>0.08</speed>
  <fix>3d</fix>
</trkpt>
<trkpt lat="-27.2744409" lon="151.2900637">
  <ele>364.25</ele>
  <time>2026-09-01T19:50:28Z</time>
  <course>7.99</course>
  <speed>0.1004987562112089</speed>
  <fix>3d</fix>
</trkpt>
<trkpt lat="-27.274141" lon="151.2900636">
  <ele>364.25</ele>
  <time>2026-09-01T19:50:28Z</time>
  <course>8.95</course>
  <speed>0.09</speed>
  <fix>3d</fix>
</trkpt>
<trkpt lat="-27.2744408" lon="151.2900637">
  <ele>364.25</ele>
  <time>2026-09-01T19:50:28Z</time>
  <course>8.0</course>
  <speed>0.11045361017187261</speed>
  <fix>3d</fix>
</trkpt>
<trkpt lat="-27.274141" lon="151.2900636">
  <ele>364.25</ele>
  <time>2026-09-01T19:50:28Z</time>
  <course>8.95</course>
  <speed>0.09</speed>
  <fix>3d</fix>
</trkpt>
<trkpt lat="-27.2744407" lon="151.2900637">
  <ele>364.26</ele>
  <time>2026-09-01T19:50:28Z</time>
  <course>8.0</course>
  <speed>0.11045361017187261</speed>
  <fix>3d</fix>
</trkpt>
<trkpt lat="-27.2741408" lon="151.2900636">
  <ele>364.25</ele>
  <time>2026-09-01T19:50:28Z</time>
  <course>9.4</course>
  <speed>0.1</speed>
  <fix>3d</fix>
</trkpt>
<trkpt lat="-27.2744406" lon="151.2900637">
  <ele>364.26</ele>
  <time>2026-09-01T19:50:28Z</time>
  <course>8.0</course>
  <speed>0.11045361017187261</speed>
  <fix>3d</fix>
</trkpt>
<trkpt lat="-27.2741408" lon="151.2900636">
  <ele>364.25</ele>
  <time>2026-09-01T19:50:28Z</time>
  <course>9.4</course>
  <speed>0.1</speed>
  <fix>3d</fix>
</trkpt>
<trkpt lat="-27.2744405" lon="151.2900637">
  <ele>364.26</ele>
  <time>2026-09-01T19:50:28Z</time>
  <course>8.0</course>
  <speed>0.11045361017187261</speed>
  <fix>3d</fix>
</trkpt>
<trkpt lat="-27.2741406" lon="151.2900637">
  <ele>364.25</ele>
  <time>2026-09-01T19:50:28Z</time>
  <course>9.56</course>
  <speed>0.11</speed>
  <fix>3d</fix>
</trkpt>
<trkpt lat="-27.2744404" lon="151.2900637">
  <ele>364.26</ele>
  <time>2026-09-01T19:50:28Z</time>
  <course>7.99</course>
  <speed>0.11045361017187261</speed>
  <fix>3d</fix>
</trkpt>
<trkpt lat="-27.2741406" lon="151.2900637">
  <ele>364.25</ele>
  <time>2026-09-01T19:50:28Z</time>
  <course>9.56</course>
  <speed>0.11</speed>
  <fix>3d</fix>
</trkpt>
<trkpt lat="-27.2744402" lon="151.2900637">
  <ele>364.26</ele>
  <time>2026-09-01T19:50:28Z</time>
  <course>7.99</course>
  <speed>0.11045361017187261</speed>
  <fix>3d</fix>
</trkpt>
<trkpt lat="-27.2741404" lon="151.2900637">
  <ele>364.26</ele>
  <time>2026-09-01T19:50:28Z</time>
  <course>9.5</course>
  <speed>0.11</speed>
  <fix>3d</fix>
</trkpt>
<trkpt lat="-27.2744401" lon="151.2900637">
  <ele>364.26</ele>
  <time>2026-09-01T19:50:28Z</time>
  <course>7.99</course>
  <speed>0.1118033988749895</speed>
  <fix>3d</fix>
</trkpt>
<trkpt lat="-27.2741404" lon="151.2900637">
  <ele>364.26</ele>
  <time>2026-09-01T19:50:28Z</time>
  <course>9.5</course>
  <speed>0.11</speed>
  <fix>3d</fix>
</trkpt>
<trkpt lat="-27.27444" lon="151.2900637">
  <ele>364.26</ele>
  <time>2026-09-01T19:50:28Z</time>
  <course>7.99</course>
  <speed>0.1118033988749895</speed>
  <fix>3d</fix>
</trkpt>
<trkpt lat="-27.2741402" lon="151.2900637">
  <ele>364.26</ele>
  <time>2026-09-01T19:50:28Z</time>
  <course>9.54</course>
  <speed>0.12</speed>
  <fix>3d</fix>
</trkpt>
<trkpt lat="-27.2744399" lon="151.2900637">
  <ele>364.26</ele>
  <time>2026-09-01T19:50:28Z</time>
  <course>7.99</course>
  <speed>0.1118033988749895</speed>
  <fix>3d</fix>
</trkpt>
<trkpt lat="-27.2741402" lon="151.2900637">
  <ele>364.26</ele>
  <time>2026-09-01T19:50:28Z</time>
  <course>9.54</course>
  <speed>0.12</speed>
  <fix>3d</fix>
</trkpt>
<trkpt lat="-27.2744398" lon="151.2900639">
  <ele>364.25</ele>
  <time>2026-09-01T19:50:28Z</time>
  <course>8.0</course>
  <speed>0.1118033988749895</speed>
  <fix>3d</fix>
</trkpt>
<trkpt lat="-27.2741399" lon="151.2900637">
  <ele>364.26</ele>
  <time>2026-09-01T19:50:28Z</time>
  <course>9.73</course>
  <speed>0.11</speed>
  <fix>3d</fix>
</trkpt>
<trkpt lat="-27.2744397" lon="151.2900639">
  <ele>364.25</ele>
  <time>2026-09-01T19:50:28Z</time>
  <course>8.0</course>
  <speed>0.1118033988749895</speed>
  <fix>3d</fix>
</trkpt>
<trkpt lat="-27.2741399" lon="151.2900637">
  <ele>364.26</ele>
  <time>2026-09-01T19:50:28Z</time>
  <course>9.73</course>
  <speed>0.11</speed>
  <fix>3d</fix>
</trkpt>
<trkpt lat="-27.2744396" lon="151.2900639">
  <ele>364.25</ele>
  <time>2026-09-01T19:50:28Z</time>
  <course>8.0</course>
  <speed>0.11045361017187261</speed>
  <fix>3d</fix>
</trkpt>
<trkpt lat="-27.2741397" lon="151.2900638">
  <ele>364.25</ele>
  <time>2026-09-01T19:50:28Z</time>
  <course>9.86</course>
  <speed>0.11</speed>
  <fix>3d</fix>
</trkpt>
<trkpt lat="-27.2744395" lon="151.2900639">
  <ele>364.25</ele>
  <time>2026-09-01T19:50:28Z</time>
  <course>8.0</course>
  <speed>0.11045361017187261</speed>
  <fix>3d</fix>
</trkpt>
<trkpt lat="-27.2741397" lon="151.2900638">
  <ele>364.25</ele>
  <time>2026-09-01T19:50:28Z</time>
  <course>9.86</course>
  <speed>0.11</speed>
  <fix>3d</fix>
</trkpt>
<trkpt lat="-27.2744394" lon="151.2900639">
  <ele>364.25</ele>
  <time>2026-09-01T19:50:28Z</time>
  <course>8.0</course>
  <speed>0.1004987562112089</speed>
  <fix>3d</fix>
</trkpt>
<trkpt lat="-27.2741395" lon="151.2900639">
  <ele>364.25</ele>
  <time>2026-09-01T19:50:28Z</time>
  <course>9.94</course>
  <speed>0.11</speed>
  <fix>3d</fix>
</trkpt>
<trkpt lat="-27.2744393" lon="151.290064">
  <ele>364.25</ele>
  <time>2026-09-01T19:50:28Z</time>
  <course>8.0</course>
  <speed>0.1004987562112089</speed>
  <fix>3d</fix>
</trkpt>
<trkpt lat="-27.2741395" lon="151.2900639">
  <ele>364.25</ele>
  <time>2026-09-01T19:50:28Z</time>
  <course>9.94</course>
  <speed>0.11</speed>
  <fix>3d</fix>
</trkpt>
<trkpt lat="-27.2744392" lon="151.290064">
  <ele>364.25</ele>
  <time>2026-09-01T19:50:28Z</time>
  <course>8.0</course>
  <speed>0.1004987562112089</speed>
  <fix>3d</fix>
</trkpt>
<trkpt lat="-27.2741393" lon="151.2900639">
  <ele>364.25</ele>
  <time>2026-09-01T19:50:28Z</time>
  <course>10.08</course>
  <speed>0.11</speed>
  <fix>3d</fix>
</trkpt>
<trkpt lat="-27.2744391" lon="151.290064">
  <ele>364.25</ele>
  <time>2026-09-01T19:50:28Z</time>
  <course>7.99</course>
  <speed>0.09055385138137417</speed>
  <fix>3d</fix>
</trkpt>
<trkpt lat="-27.2741393" lon="151.2900639">
  <ele>364.25</ele>
  <time>2026-09-01T19:50:28Z</time>
  <course>10.08</course>
  <speed>0.11</speed>
  <fix>3d</fix>
</trkpt>
<trkpt lat="-27.274439" lon="151.290064">
  <ele>364.25</ele>
  <time>2026-09-01T19:50:28Z</time>
  <course>7.99</course>
  <speed>0.09055385138137417</speed>
  <fix>3d</fix>
</trkpt>
<trkpt lat="-27.2741391" lon="151.290064">
  <ele>364.25</ele>
  <time>2026-09-01T19:50:28Z</time>
  <course>10.03</course>
  <speed>0.1</speed>
  <fix>3d</fix>
</trkpt>
<trkpt lat="-27.274439" lon="151.290064">
  <ele>364.25</ele>
  <time>2026-09-01T19:50:28Z</time>
  <course>7.99</course>
  <speed>0.08062257748298549</speed>
  <fix>3d</fix>
</trkpt>
<trkpt lat="-27.2741391" lon="151.290064">
  <ele>364.25</ele>
  <time>2026-09-01T19:50:28Z</time>
  <course>10.03</course>
  <speed>0.1</speed>
  <fix>3d</fix>
</trkpt>
<trkpt lat="-27.2744389" lon="151.290064">
  <ele>364.25</ele>
  <time>2026-09-01T19:50:28Z</time>
  <course>7.98</course>
  <speed>0.08062257748298549</speed>
  <fix>3d</fix>
</trkpt>
<trkpt lat="-27.274139" lon="151.290064">
  <ele>364.25</ele>
  <time>2026-09-01T19:50:28Z</time>
  <course>9.78</course>
  <speed>0.09</speed>
  <fix>3d</fix>
</trkpt>
<trkpt lat="-27.2744388" lon="151.290064">
  <ele>364.25</ele>
  <time>2026-09-01T19:50:28Z</time>
  <course>7.98</course>
  <speed>0.07071067811865475</speed>
  <fix>3d</fix>
</trkpt>
<trkpt lat="-27.274139" lon="151.290064">
  <ele>364.25</ele>
  <time>2026-09-01T19:50:28Z</time>
  <course>9.78</course>
  <speed>0.09</speed>
  <fix>3d</fix>
</trkpt>
<trkpt lat="-27.2744388" lon="151.2900641">
  <ele>364.25</ele>
  <time>2026-09-01T19:50:28Z</time>
  <course>7.98</course>
  <speed>0.06082762530298219</speed>
  <fix>3d</fix>
</trkpt>
<trkpt lat="-27.2741388" lon="151.290064">
  <ele>364.25</ele>
  <time>2026-09-01T19:50:28Z</time>
  <course>9.65</course>
  <speed>0.08</speed>
  <fix>3d</fix>
</trkpt>
<trkpt lat="-27.2744387" lon="151.2900641">
  <ele>364.25</ele>
  <time>2026-09-01T19:50:28Z</time>
  <course>7.99</course>
  <speed>0.06082762530298219</speed>
  <fix>3d</fix>
</trkpt>
<trkpt lat="-27.2741388" lon="151.290064">
  <ele>364.25</ele>
  <time>2026-09-01T19:50:28Z</time>
  <course>9.65</course>
  <speed>0.08</speed>
  <fix>3d</fix>
</trkpt>
<trkpt lat="-27.2744386" lon="151.2900641">
  <ele>364.25</ele>
  <time>2026-09-01T19:50:28Z</time>
  <course>7.99</course>
  <speed>0.05</speed>
  <fix>3d</fix>
</trkpt>
<trkpt lat="-27.2741387" lon="151.290064">
  <ele>364.25</ele>
  <time>2026-09-01T19:50:28Z</time>
  <course>9.48</course>
  <speed>0.07</speed>
  <fix>3d</fix>
</trkpt>
<trkpt lat="-27.2744386" lon="151.2900641">
  <ele>364.25</ele>
  <time>2026-09-01T19:50:28Z</time>
  <course>7.99</course>
  <speed>0.05</speed>
  <fix>3d</fix>
</trkpt>
<trkpt lat="-27.2741387" lon="151.290064">
  <ele>364.25</ele>
  <time>2026-09-01T19:50:28Z</time>
  <course>9.48</course>
  <speed>0.07</speed>
  <fix>3d</fix>
</trkpt>
<trkpt lat="-27.2744386" lon="151.2900641">
  <ele>364.25</ele>
  <time>2026-09-01T19:50:28Z</time>
  <course>7.99</course>
  <speed>0.04</speed>
  <fix>3d</fix>
</trkpt>
<trkpt lat="-27.2741386" lon="151.2900641">
  <ele>364.25</ele>
  <time>2026-09-01T19:50:28Z</time>
  <course>8.94</course>
  <speed>0.05</speed>
  <fix>3d</fix>
</trkpt>
<trkpt lat="-27.2744385" lon="151.2900641">
  <ele>364.25</ele>
  <time>2026-09-01T19:50:28Z</time>
  <course>7.99</course>
  <speed>0.03</speed>
  <fix>3d</fix>
</trkpt>
<trkpt lat="-27.2741386" lon="151.2900641">
  <ele>364.25</ele>
  <time>2026-09-01T19:50:28Z</time>
  <course>8.94</course>
  <speed>0.05</speed>
  <fix>3d</fix>
</trkpt>
<trkpt lat="-27.2744385" lon="151.2900641">
  <ele>364.26</ele>
  <time>2026-09-01T19:50:28Z</time>
  <course>7.99</course>
  <speed>0.03</speed>
  <fix>3d</fix>
</trkpt>
<trkpt lat="-27.2741385" lon="151.2900641">
  <ele>364.25</ele>
  <time>2026-09-01T19:50:28Z</time>
  <course>8.17</course>
  <speed>0.04</speed>
  <fix>3d</fix>
</trkpt>
<trkpt lat="-27.2744385" lon="151.2900641">
  <ele>364.26</ele>
  <time>2026-09-01T19:50:28Z</time>
  <course>7.99</course>
  <speed>0.02</speed>
  <fix>3d</fix>
</trkpt>
<trkpt lat="-27.2741385" lon="151.2900641">
  <ele>364.25</ele>
  <time>2026-09-01T19:50:28Z</time>
  <course>8.17</course>
  <speed>0.04</speed>
  <fix>3d</fix>
</trkpt>
<trkpt lat="-27.2744384" lon="151.2900641">
  <ele>364.26</ele>
  <time>2026-09-01T19:50:28Z</time>
  <course>7.99</course>
  <speed>0.02</speed>
  <fix>3d</fix>
</trkpt>
<trkpt lat="-27.2741384" lon="151.2900641">
  <ele>364.25</ele>
  <time>2026-09-01T19:50:28Z</time>
  <course>6.93</course>
  <speed>0.03</speed>
  <fix>3d</fix>
</trkpt>
<trkpt lat="-27.2744384" lon="151.2900641">
  <ele>364.26</ele>
  <time>2026-09-01T19:50:28Z</time>
  <course>8.0</course>
  <speed>0.01</speed>
  <fix>3d</fix>
</trkpt>
<trkpt lat="-27.2741384" lon="151.2900641">
  <ele>364.25</ele>
  <time>2026-09-01T19:50:28Z</time>
  <course>6.93</course>
  <speed>0.03</speed>
  <fix>3d</fix>
</trkpt>
<trkpt lat="-27.2744384" lon="151.2900641">
  <ele>364.26</ele>
  <time>2026-09-01T19:50:28Z</time>
  <course>8.0</course>
  <speed>0.01</speed>
  <fix>3d</fix>
</trkpt>
<trkpt lat="-27.2741384" lon="151.2900641">
  <ele>364.26</ele>
  <time>2026-09-01T19:50:28Z</time>
  <course>4.43</course>
  <speed>0.02</speed>
  <fix>3d</fix>
</trkpt>
<trkpt lat="-27.2744384" lon="151.2900641">
  <ele>364.26</ele>
  <time>2026-09-01T19:50:28Z</time>
  <course>8.0</course>
  <speed>0.0</speed>
  <fix>3d</fix>
</trkpt>
<trkpt lat="-27.2741384" lon="151.2900641">
  <ele>364.26</ele>
  <time>2026-09-01T19:50:28Z</time>
  <course>4.43</course>
  <speed>0.02</speed>
  <fix>3d</fix>
</trkpt>
<trkpt lat="-27.2744384" lon="151.2900641">
  <ele>364.27</ele>
  <time>2026-09-01T19:50:28Z</time>
  <course>7.99</course>
  <speed>0.0</speed>
  <fix>3d</fix>
</trkpt>
<trkpt lat="-27.2741383" lon="151.2900641">
  <ele>364.26</ele>
  <time>2026-09-01T19:50:28Z</time>
  <course>357.98</course>
  <speed>0.01</speed>
  <fix>3d</fix>
</trkpt>
<trkpt lat="-27.2744384" lon="151.2900641">
  <ele>364.27</ele>
  <time>2026-09-01T19:50:28Z</time>
  <course>7.98</course>
  <speed>0.0</speed>
  <fix>3d</fix>
</trkpt>
<trkpt lat="-27.2741383" lon="151.2900641">
  <ele>364.26</ele>
  <time>2026-09-01T19:50:28Z</time>
  <course>357.98</course>
  <speed>0.01</speed>
  <fix>3d</fix>
</trkpt>
<trkpt lat="-27.2744384" lon="151.2900641">
  <ele>364.27</ele>
  <time>2026-09-01T19:50:28Z</time>
  <course>7.98</course>
  <speed>0.01</speed>
  <fix>3d</fix>
</trkpt>
<trkpt lat="-27.2741383" lon="151.2900641">
  <ele>364.26</ele>
  <time>2026-09-01T19:50:28Z</time>
  <course>256.95</course>
  <speed>0.0</speed>
  <fix>3d</fix>
</trkpt>
<trkpt lat="-27.2744384" lon="151.2900641">
  <ele>364.28</ele>
  <time>2026-09-01T19:50:28Z</time>
  <course>7.98</course>
  <speed>0.01</speed>
  <fix>3d</fix>
</trkpt>
<trkpt lat="-27.2741383" lon="151.2900641">
  <ele>364.26</ele>
  <time>2026-09-01T19:50:28Z</time>
  <course>256.95</course>
  <speed>0.0</speed>
  <fix>3d</fix>
</trkpt>
<trkpt lat="-27.2744384" lon="151.2900641">
  <ele>364.28</ele>
  <time>2026-09-01T19:50:28Z</time>
  <course>7.98</course>
  <speed>0.02</speed>
  <fix>3d</fix>
</trkpt>
<trkpt lat="-27.2741383" lon="151.2900641">
  <ele>364.27</ele>
  <time>2026-09-01T19:50:28Z</time>
  <course>199.52</course>
  <speed>0.01</speed>
  <fix>3d</fix>
</trkpt>
<trkpt lat="-27.2744384" lon="151.2900641">
  <ele>364.28</ele>
  <time>2026-09-01T19:50:28Z</time>
  <course>7.98</course>
  <speed>0.02</speed>
  <fix>3d</fix>
</trkpt>
<trkpt lat="-27.2741383" lon="151.2900641">
  <ele>364.27</ele>
  <time>2026-09-01T19:50:28Z</time>
  <course>199.52</course>
  <speed>0.01</speed>
  <fix>3d</fix>
</trkpt>
<trkpt lat="-27.2744384" lon="151.2900641">
  <ele>364.29</ele>
  <time>2026-09-01T19:50:28Z</time>
  <course>7.99</course>
  <speed>0.02</speed>
  <fix>3d</fix>
</trkpt>
<trkpt lat="-27.2741383" lon="151.2900641">
  <ele>364.28</ele>
  <time>2026-09-01T19:50:28Z</time>
  <course>194.95</course>
  <speed>0.02</speed>
  <fix>3d</fix>
</trkpt>
<trkpt lat="-27.2744384" lon="151.2900641">
  <ele>364.29</ele>
  <time>2026-09-01T19:50:28Z</time>
  <course>7.99</course>
  <speed>0.03</speed>
  <fix>3d</fix>
</trkpt>
<trkpt lat="-27.2741383" lon="151.2900641">
  <ele>364.28</ele>
  <time>2026-09-01T19:50:28Z</time>
  <course>194.95</course>
  <speed>0.02</speed>
  <fix>3d</fix>
</trkpt>
<trkpt lat="-27.2744384" lon="151.2900641">
  <ele>364.29</ele>
  <time>2026-09-01T19:50:28Z</time>
  <course>8.0</course>
  <speed>0.03</speed>
  <fix>3d</fix>
</trkpt>
<trkpt lat="-27.2741383" lon="151.2900641">
  <ele>364.28</ele>
  <time>2026-09-01T19:50:28Z</time>
  <course>193.15</course>
  <speed>0.02</speed>
  <fix>3d</fix>
</trkpt>
<trkpt lat="-27.2744385" lon="151.2900641">
  <ele>364.29</ele>
  <time>2026-09-01T19:50:28Z</time>
  <course>8.0</course>
  <speed>0.03</speed>
  <fix>3d</fix>
</trkpt>
<trkpt lat="-27.2741383" lon="151.2900641">
  <ele>364.28</ele>
  <time>2026-09-01T19:50:28Z</time>
  <course>193.15</course>
  <speed>0.02</speed>
  <fix>3d</fix>
</trkpt>
<trkpt lat="-27.2744385" lon="151.2900641">
  <ele>364.29</ele>
  <time>2026-09-01T19:50:28Z</time>
  <course>8.0</course>
  <speed>0.04</speed>
  <fix>3d</fix>
</trkpt>
<trkpt lat="-27.2741384" lon="151.2900641">
  <ele>364.29</ele>
  <time>2026-09-01T19:50:28Z</time>
  <course>191.99</course>
  <speed>0.03</speed>
  <fix>3d</fix>
</trkpt>
<trkpt lat="-27.2744385" lon="151.2900641">
  <ele>364.3</ele>
  <time>2026-09-01T19:50:28Z</time>
  <course>8.0</course>
  <speed>0.04</speed>
  <fix>3d</fix>
</trkpt>
<trkpt lat="-27.2741384" lon="151.2900641">
  <ele>364.29</ele>
  <time>2026-09-01T19:50:28Z</time>
  <course>191.99</course>
  <speed>0.03</speed>
  <fix>3d</fix>
</trkpt>
<trkpt lat="-27.2744386" lon="151.2900641">
  <ele>364.3</ele>
  <time>2026-09-01T19:50:28Z</time>
  <course>7.99</course>
  <speed>0.04</speed>
  <fix>3d</fix>
</trkpt>
<trkpt lat="-27.2741384" lon="151.2900641">
  <ele>364.29</ele>
  <time>2026-09-01T19:50:28Z</time>
  <course>191.06</course>
  <speed>0.04</speed>
  <fix>3d</fix>
</trkpt>
<trkpt lat="-27.2744386" lon="151.2900641">
  <ele>364.3</ele>
  <time>2026-09-01T19:50:28Z</time>
  <course>7.99</course>
  <speed>0.04</speed>
  <fix>3d</fix>
</trkpt>
<trkpt lat="-27.2741384" lon="151.2900641">
  <ele>364.29</ele>
  <time>2026-09-01T19:50:28Z</time>
  <course>191.06</course>
  <speed>0.04</speed>
  <fix>3d</fix>
</trkpt>
<trkpt lat="-27.2744387" lon="151.2900641">
  <ele>364.3</ele>
  <time>2026-09-01T19:50:28Z</time>
  <course>7.99</course>
  <speed>0.05</speed>
  <fix>3d</fix>
</trkpt>
<trkpt lat="-27.2741385" lon="151.2900641">
  <ele>364.3</ele>
  <time>2026-09-01T19:50:28Z</time>
  <course>190.57</course>
  <speed>0.04</speed>
  <fix>3d</fix>
</trkpt>
<trkpt lat="-27.2744387" lon="151.2900641">
  <ele>364.3</ele>
  <time>2026-09-01T19:50:28Z</time>
  <course>7.99</course>
  <speed>0.05</speed>
  <fix>3d</fix>
</trkpt>
<trkpt lat="-27.2741385" lon="151.2900641">
  <ele>364.3</ele>
  <time>2026-09-01T19:50:28Z</time>
  <course>190.57</course>
  <speed>0.04</speed>
  <fix>3d</fix>
</trkpt>
<trkpt lat="-27.2744388" lon="151.2900641">
  <ele>364.29</ele>
  <time>2026-09-01T19:50:28Z</time>
  <course>7.99</course>
  <speed>0.05</speed>
  <fix>3d</fix>
</trkpt>
<trkpt lat="-27.2741386" lon="151.2900641">
  <ele>364.3</ele>
  <time>2026-09-01T19:50:28Z</time>
  <course>190.38</course>
  <speed>0.05</speed>
  <fix>3d</fix>
</trkpt>
<trkpt lat="-27.2744388" lon="151.2900641">
  <ele>364.29</ele>
  <time>2026-09-01T19:50:28Z</time>
  <course>7.99</course>
  <speed>0.05</speed>
  <fix>3d</fix>
</trkpt>
<trkpt lat="-27.2741386" lon="151.2900641">
  <ele>364.3</ele>
  <time>2026-09-01T19:50:28Z</time>
  <course>190.38</course>
  <speed>0.05</speed>
  <fix>3d</fix>
</trkpt>
<trkpt lat="-27.2744389" lon="151.2900641">
  <ele>364.29</ele>
  <time>2026-09-01T19:50:28Z</time>
  <course>7.99</course>
  <speed>0.05</speed>
  <fix>3d</fix>
</trkpt>
<trkpt lat="-27.2741387" lon="151.2900641">
  <ele>364.29</ele>
  <time>2026-09-01T19:50:28Z</time>
  <course>189.91</course>
  <speed>0.05</speed>
  <fix>3d</fix>
</trkpt>
<trkpt lat="-27.2744389" lon="151.2900641">
  <ele>364.29</ele>
  <time>2026-09-01T19:50:28Z</time>
  <course>7.99</course>
  <speed>0.05</speed>
  <fix>3d</fix>
</trkpt>
<trkpt lat="-27.2741387" lon="151.2900641">
  <ele>364.29</ele>
  <time>2026-09-01T19:50:28Z</time>
  <course>189.91</course>
  <speed>0.05</speed>
  <fix>3d</fix>
</trkpt>
<trkpt lat="-27.274439" lon="151.2900641">
  <ele>364.29</ele>
  <time>2026-09-01T19:50:28Z</time>
  <course>7.99</course>
  <speed>0.05</speed>
  <fix>3d</fix>
</trkpt>
<trkpt lat="-27.2741388" lon="151.2900641">
  <ele>364.29</ele>
  <time>2026-09-01T19:50:28Z</time>
  <course>189.19</course>
  <speed>0.05</speed>
  <fix>3d</fix>
</trkpt>
<trkpt lat="-27.274439" lon="151.2900641">
  <ele>364.29</ele>
  <time>2026-09-01T19:50:28Z</time>
  <course>7.99</course>
  <speed>0.05</speed>
  <fix>3d</fix>
</trkpt>
<trkpt lat="-27.2741388" lon="151.2900641">
  <ele>364.29</ele>
  <time>2026-09-01T19:50:28Z</time>
  <course>189.19</course>
  <speed>0.05</speed>
  <fix>3d</fix>
</trkpt>
<trkpt lat="-27.274439" lon="151.2900641">
  <ele>364.29</ele>
  <time>2026-09-01T19:50:28Z</time>
  <course>7.99</course>
  <speed>0.05</speed>
  <fix>3d</fix>
</trkpt>
<trkpt lat="-27.2741389" lon="151.2900641">
  <ele>364.29</ele>
  <time>2026-09-01T19:50:28Z</time>
  <course>188.3</course>
  <speed>0.05</speed>
  <fix>3d</fix>
</trkpt>
<trkpt lat="-27.2744391" lon="151.290064">
  <ele>364.29</ele>
  <time>2026-09-01T19:50:28Z</time>
  <course>7.99</course>
  <speed>0.04</speed>
  <fix>3d</fix>
</trkpt>
<trkpt lat="-27.2741389" lon="151.2900641">
  <ele>364.29</ele>
  <time>2026-09-01T19:50:28Z</time>
  <course>188.3</course>
  <speed>0.05</speed>
  <fix>3d</fix>
</trkpt>
<trkpt lat="-27.2744391" lon="151.290064">
  <ele>364.29</ele>
  <time>2026-09-01T19:50:28Z</time>
  <course>7.99</course>
  <speed>0.04</speed>
  <fix>3d</fix>
</trkpt>
<trkpt lat="-27.274139" lon="151.290064">
  <ele>364.29</ele>
  <time>2026-09-01T19:50:28Z</time>
  <course>187.02</course>
  <speed>0.05</speed>
  <fix>3d</fix>
</trkpt>
<trkpt lat="-27.2744392" lon="151.290064">
  <ele>364.29</ele>
  <time>2026-09-01T19:50:28Z</time>
  <course>7.99</course>
  <speed>0.04</speed>
  <fix>3d</fix>
</trkpt>
<trkpt lat="-27.274139" lon="151.290064">
  <ele>364.29</ele>
  <time>2026-09-01T19:50:28Z</time>
  <course>187.02</course>
  <speed>0.05</speed>
  <fix>3d</fix>
</trkpt>
<trkpt lat="-27.2744392" lon="151.290064">
  <ele>364.29</ele>
  <time>2026-09-01T19:50:28Z</time>
  <course>7.99</course>
  <speed>0.04</speed>
  <fix>3d</fix>
</trkpt>
<trkpt lat="-27.2741391" lon="151.290064">
  <ele>364.29</ele>
  <time>2026-09-01T19:50:28Z</time>
  <course>185.66</course>
  <speed>0.04</speed>
  <fix>3d</fix>
</trkpt>
<trkpt lat="-27.2744393" lon="151.290064">
  <ele>364.29</ele>
  <time>2026-09-01T19:50:28Z</time>
  <course>7.99</course>
  <speed>0.04</speed>
  <fix>3d</fix>
</trkpt>
<trkpt lat="-27.2741391" lon="151.290064">
  <ele>364.29</ele>
  <time>2026-09-01T19:50:28Z</time>
  <course>185.66</course>
  <speed>0.04</speed>
  <fix>3d</fix>
</trkpt>
<trkpt lat="-27.2744393" lon="151.290064">
  <ele>364.29</ele>
  <time>2026-09-01T19:50:28Z</time>
  <course>8.0</course>
  <speed>0.03</speed>
  <fix>3d</fix>
</trkpt>
<trkpt lat="-27.2741392" lon="151.290064">
  <ele>364.29</ele>
  <time>2026-09-01T19:50:28Z</time>
  <course>185.15</course>
  <speed>0.04</speed>
  <fix>3d</fix>
</trkpt>
<trkpt lat="-27.2744393" lon="151.290064">
  <ele>364.29</ele>
  <time>2026-09-01T19:50:28Z</time>
  <course>8.0</course>
  <speed>0.03</speed>
  <fix>3d</fix>
</trkpt>
<trkpt lat="-27.2741392" lon="151.290064">
  <ele>364.29</ele>
  <time>2026-09-01T19:50:28Z</time>
  <course>185.15</course>
  <speed>0.04</speed>
  <fix>3d</fix>
</trkpt>
<trkpt lat="-27.2744394" lon="151.290064">
  <ele>364.29</ele>
  <time>2026-09-01T19:50:28Z</time>
  <course>7.99</course>
  <speed>0.03</speed>
  <fix>3d</fix>
</trkpt>
<trkpt lat="-27.2741392" lon="151.290064">
  <ele>364.29</ele>
  <time>2026-09-01T19:50:28Z</time>
  <course>186.13</course>
  <speed>0.04</speed>
  <fix>3d</fix>
</trkpt>
<trkpt lat="-27.2744394" lon="151.290064">
  <ele>364.29</ele>
  <time>2026-09-01T19:50:28Z</time>
  <course>7.98</course>
  <speed>0.03</speed>
  <fix>3d</fix>
</trkpt>
<trkpt lat="-27.2741392" lon="151.290064">
  <ele>364.29</ele>
  <time>2026-09-01T19:50:28Z</time>
  <course>186.13</course>
  <speed>0.04</speed>
  <fix>3d</fix>
</trkpt>
<trkpt lat="-27.2744394" lon="151.290064">
  <ele>364.29</ele>
  <time>2026-09-01T19:50:28Z</time>
  <course>7.98</course>
  <speed>0.02</speed>
  <fix>3d</fix>
</trkpt>
<trkpt lat="-27.2741393" lon="151.290064">
  <ele>364.29</ele>
  <time>2026-09-01T19:50:28Z</time>
  <course>188.15</course>
  <speed>0.03</speed>
  <fix>3d</fix>
</trkpt>
<trkpt lat="-27.2744394" lon="151.290064">
  <ele>364.29</ele>
  <time>2026-09-01T19:50:28Z</time>
  <course>7.99</course>
  <speed>0.02</speed>
  <fix>3d</fix>
</trkpt>
<trkpt lat="-27.2741393" lon="151.290064">
  <ele>364.29</ele>
  <time>2026-09-01T19:50:28Z</time>
  <course>188.15</course>
  <speed>0.03</speed>
  <fix>3d</fix>
</trkpt>
<trkpt lat="-27.2744395" lon="151.290064">
  <ele>364.29</ele>
  <time>2026-09-01T19:50:28Z</time>
  <course>8.0</course>
  <speed>0.02</speed>
  <fix>3d</fix>
</trkpt>
<trkpt lat="-27.2741393" lon="151.290064">
  <ele>364.29</ele>
  <time>2026-09-01T19:50:28Z</time>
  <course>191.0</course>
  <speed>0.02</speed>
  <fix>3d</fix>
</trkpt>
<trkpt lat="-27.2744395" lon="151.290064">
  <ele>364.29</ele>
  <time>2026-09-01T19:50:28Z</time>
  <course>8.0</course>
  <speed>0.01</speed>
  <fix>3d</fix>
</trkpt>
<trkpt lat="-27.2741393" lon="151.290064">
  <ele>364.29</ele>
  <time>2026-09-01T19:50:28Z</time>
  <course>191.0</course>
  <speed>0.02</speed>
  <fix>3d</fix>
</trkpt>
<trkpt lat="-27.2744395" lon="151.290064">
  <ele>364.29</ele>
  <time>2026-09-01T19:50:28Z</time>
  <course>8.0</course>
  <speed>0.01</speed>
  <fix>3d</fix>
</trkpt>
<trkpt lat="-27.2741394" lon="151.290064">
  <ele>364.29</ele>
  <time>2026-09-01T19:50:28Z</time>
  <course>194.73</course>
  <speed>0.02</speed>
  <fix>3d</fix>
</trkpt>
<trkpt lat="-27.2744395" lon="151.290064">
  <ele>364.29</ele>
  <time>2026-09-01T19:50:28Z</time>
  <course>7.99</course>
  <speed>0.01</speed>
  <fix>3d</fix>
</trkpt>
<trkpt lat="-27.2741394" lon="151.290064">
  <ele>364.29</ele>
  <time>2026-09-01T19:50:28Z</time>
  <course>194.73</course>
  <speed>0.02</speed>
  <fix>3d</fix>
</trkpt>
<trkpt lat="-27.2744395" lon="151.290064">
  <ele>364.29</ele>
  <time>2026-09-01T19:50:28Z</time>
  <course>7.98</course>
  <speed>0.0</speed>
  <fix>3d</fix>
</trkpt>
<trkpt lat="-27.2741394" lon="151.290064">
  <ele>364.29</ele>
  <time>2026-09-01T19:50:28Z</time>
  <course>199.59</course>
  <speed>0.01</speed>
  <fix>3d</fix>
</trkpt>
<trkpt lat="-27.2744395" lon="151.290064">
  <ele>364.29</ele>
  <time>2026-09-01T19:50:28Z</time>
  <course>7.98</course>
  <speed>0.0</speed>
  <fix>3d</fix>
</trkpt>
<trkpt lat="-27.2741394" lon="151.290064">
  <ele>364.29</ele>
  <time>2026-09-01T19:50:28Z</time>
  <course>199.59</course>
  <speed>0.01</speed>
  <fix>3d</fix>
</trkpt>
<trkpt lat="-27.2744395" lon="151.290064">
  <ele>364.29</ele>
  <time>2026-09-01T19:50:28Z</time>
  <course>7.99</course>
  <speed>0.0</speed>
  <fix>3d</fix>
</trkpt>
<trkpt lat="-27.2741394" lon="151.290064">
  <ele>364.29</ele>
  <time>2026-09-01T19:50:28Z</time>
  <course>208.53</course>
  <speed>0.01</speed>
  <fix>3d</fix>
</trkpt>
<trkpt lat="-27.2744395" lon="151.290064">
  <ele>364.28</ele>
  <time>2026-09-01T19:50:28Z</time>
  <course>8.0</course>
  <speed>0.0</speed>
  <fix>3d</fix>
</trkpt>
<trkpt lat="-27.2741394" lon="151.290064">
  <ele>364.29</ele>
  <time>2026-09-01T19:50:28Z</time>
  <course>208.53</course>
  <speed>0.01</speed>
  <fix>3d</fix>
</trkpt>
<trkpt lat="-27.2744395" lon="151.2900639">
  <ele>364.28</ele>
  <time>2026-09-01T19:50:28Z</time>
  <course>8.0</course>
  <speed>0.0</speed>
  <fix>3d</fix>
</trkpt>
<trkpt lat="-27.2741394" lon="151.290064">
  <ele>364.28</ele>
  <time>2026-09-01T19:50:28Z</time>
  <course>230.89</course>
  <speed>0.0</speed>
  <fix>3d</fix>
</trkpt>
<trkpt lat="-27.2744395" lon="151.2900639">
  <ele>364.28</ele>
  <time>2026-09-01T19:50:28Z</time>
  <course>8.01</course>
  <speed>0.0</speed>
  <fix>3d</fix>
</trkpt>
<trkpt lat="-27.2741394" lon="151.290064">
  <ele>364.28</ele>
  <time>2026-09-01T19:50:28Z</time>
  <course>230.89</course>
  <speed>0.0</speed>
  <fix>3d</fix>
</trkpt>
<trkpt lat="-27.2744395" lon="151.2900639">
  <ele>364.28</ele>
  <time>2026-09-01T19:50:28Z</time>
  <course>8.01</course>
  <speed>0.0</speed>
  <fix>3d</fix>
</trkpt>
<trkpt lat="-27.2741394" lon="151.2900639">
  <ele>364.28</ele>
  <time>2026-09-01T19:50:28Z</time>
  <course>285.84</course>
  <speed>0.0</speed>
  <fix>3d</fix>
</trkpt>
<trkpt lat="-27.2744395" lon="151.2900639">
  <ele>364.28</ele>
  <time>2026-09-01T19:50:28Z</time>
  <course>8.01</course>
  <speed>0.0</speed>
  <fix>3d</fix>
</trkpt>
<trkpt lat="-27.2741394" lon="151.2900639">
  <ele>364.28</ele>
  <time>2026-09-01T19:50:28Z</time>
  <course>285.84</course>
  <speed>0.0</speed>
  <fix>3d</fix>
</trkpt>
<trkpt lat="-27.2744395" lon="151.2900639">
  <ele>364.28</ele>
  <time>2026-09-01T19:50:28Z</time>
  <course>8.01</course>
  <speed>0.01</speed>
  <fix>3d</fix>
</trkpt>
<trkpt lat="-27.2741394" lon="151.2900639">
  <ele>364.28</ele>
  <time>2026-09-01T19:50:28Z</time>
  <course>323.31</course>
  <speed>0.0</speed>
  <fix>3d</fix>
</trkpt>
<trkpt lat="-27.2744395" lon="151.2900639">
  <ele>364.28</ele>
  <time>2026-09-01T19:50:28Z</time>
  <course>8.01</course>
  <speed>0.01</speed>
  <fix>3d</fix>
</trkpt>
<trkpt lat="-27.2741394" lon="151.2900639">
  <ele>364.28</ele>
  <time>2026-09-01T19:50:28Z</time>
  <course>323.31</course>
  <speed>0.0</speed>
  <fix>3d</fix>
</trkpt>
<trkpt lat="-27.2744395" lon="151.2900639">
  <ele>364.28</ele>
  <time>2026-09-01T19:50:28Z</time>
  <course>8.01</course>
  <speed>0.01</speed>
  <fix>3d</fix>
</trkpt>
<trkpt lat="-27.2741394" lon="151.2900639">
  <ele>364.28</ele>
  <time>2026-09-01T19:50:28Z</time>
  <course>335.9</course>
  <speed>0.01</speed>
  <fix>3d</fix>
</trkpt>
<trkpt lat="-27.2744395" lon="151.2900639">
  <ele>364.28</ele>
  <time>2026-09-01T19:50:28Z</time>
  <course>8.01</course>
  <speed>0.01</speed>
  <fix>3d</fix>
</trkpt>
<trkpt lat="-27.2741394" lon="151.2900639">
  <ele>364.28</ele>
  <time>2026-09-01T19:50:28Z</time>
  <course>335.9</course>
  <speed>0.01</speed>
  <fix>3d</fix>
</trkpt>
<trkpt lat="-27.2744395" lon="151.2900639">
  <ele>364.28</ele>
  <time>2026-09-01T19:50:28Z</time>
  <course>8.0</course>
  <speed>0.02</speed>
  <fix>3d</fix>
</trkpt>
<trkpt lat="-27.2741394" lon="151.2900639">
  <ele>364.28</ele>
  <time>2026-09-01T19:50:28Z</time>
  <course>342.68</course>
  <speed>0.01</speed>
  <fix>3d</fix>
</trkpt>
<trkpt lat="-27.2744395" lon="151.2900639">
  <ele>364.29</ele>
  <time>2026-09-01T19:50:28Z</time>
  <course>7.99</course>
  <speed>0.02</speed>
  <fix>3d</fix>
</trkpt>
<trkpt lat="-27.2741394" lon="151.2900639">
  <ele>364.28</ele>
  <time>2026-09-01T19:50:28Z</time>
  <course>342.68</course>
  <speed>0.01</speed>
  <fix>3d</fix>
</trkpt>
<trkpt lat="-27.2744395" lon="151.2900639">
  <ele>364.29</ele>
  <time>2026-09-01T19:50:28Z</time>
  <course>7.99</course>
  <speed>0.02</speed>
  <fix>3d</fix>
</trkpt>
<trkpt lat="-27.2741394" lon="151.2900639">
  <ele>364.28</ele>
  <time>2026-09-01T19:50:28Z</time>
  <course>348.99</course>
  <speed>0.02</speed>
  <fix>3d</fix>
</trkpt>
<trkpt lat="-27.2744395" lon="151.2900639">
  <ele>364.29</ele>
  <time>2026-09-01T19:50:28Z</time>
  <course>7.98</course>
  <speed>0.02</speed>
  <fix>3d</fix>
</trkpt>
<trkpt lat="-27.2741394" lon="151.2900639">
  <ele>364.28</ele>
  <time>2026-09-01T19:50:28Z</time>
  <course>348.99</course>
  <speed>0.02</speed>
  <fix>3d</fix>
</trkpt>
<trkpt lat="-27.2744395" lon="151.2900639">
  <ele>364.29</ele>
  <time>2026-09-01T19:50:28Z</time>
  <course>7.99</course>
  <speed>0.02</speed>
  <fix>3d</fix>
</trkpt>
<trkpt lat="-27.2741394" lon="151.2900639">
  <ele>364.29</ele>
  <time>2026-09-01T19:50:28Z</time>
  <course>355.16</course>
  <speed>0.02</speed>
  <fix>3d</fix>
</trkpt>
<trkpt lat="-27.2744394" lon="151.2900639">
  <ele>364.29</ele>
  <time>2026-09-01T19:50:28Z</time>
  <course>7.99</course>
  <speed>0.02</speed>
  <fix>3d</fix>
</trkpt>
<trkpt lat="-27.2741394" lon="151.2900639">
  <ele>364.29</ele>
  <time>2026-09-01T19:50:28Z</time>
  <course>355.16</course>
  <speed>0.02</speed>
  <fix>3d</fix>
</trkpt>
<trkpt lat="-27.2744394" lon="151.2900639">
  <ele>364.28</ele>
  <time>2026-09-01T19:50:28Z</time>
  <course>8.0</course>
  <speed>0.03</speed>
  <fix>3d</fix>
</trkpt>
<trkpt lat="-27.2741394" lon="151.2900639">
  <ele>364.29</ele>
  <time>2026-09-01T19:50:28Z</time>
  <course>359.91</course>
  <speed>0.02</speed>
  <fix>3d</fix>
</trkpt>
<trkpt lat="-27.2744394" lon="151.2900639">
  <ele>364.28</ele>
  <time>2026-09-01T19:50:28Z</time>
  <course>8.0</course>
  <speed>0.03</speed>
  <fix>3d</fix>
</trkpt>
<trkpt lat="-27.2741394" lon="151.2900639">
  <ele>364.29</ele>
  <time>2026-09-01T19:50:28Z</time>
  <course>359.91</course>
  <speed>0.02</speed>
  <fix>3d</fix>
</trkpt>
<trkpt lat="-27.2744394" lon="151.2900639">
  <ele>364.28</ele>
  <time>2026-09-01T19:50:28Z</time>
  <course>8.0</course>
  <speed>0.03</speed>
  <fix>3d</fix>
</trkpt>
<trkpt lat="-27.2741393" lon="151.2900639">
  <ele>364.28</ele>
  <time>2026-09-01T19:50:28Z</time>
  <course>3.19</course>
  <speed>0.03</speed>
  <fix>3d</fix>
</trkpt>
<trkpt lat="-27.2744393" lon="151.2900639">
  <ele>364.28</ele>
  <time>2026-09-01T19:50:28Z</time>
  <course>8.0</course>
  <speed>0.03</speed>
  <fix>3d</fix>
</trkpt>
<trkpt lat="-27.2741393" lon="151.2900639">
  <ele>364.28</ele>
  <time>2026-09-01T19:50:28Z</time>
  <course>3.19</course>
  <speed>0.03</speed>
  <fix>3d</fix>
</trkpt>
<trkpt lat="-27.2744393" lon="151.2900639">
  <ele>364.28</ele>
  <time>2026-09-01T19:50:28Z</time>
  <course>8.0</course>
  <speed>0.03</speed>
  <fix>3d</fix>
</trkpt>
<trkpt lat="-27.2741393" lon="151.2900639">
  <ele>364.28</ele>
  <time>2026-09-01T19:50:28Z</time>
  <course>5.59</course>
  <speed>0.03</speed>
  <fix>3d</fix>
</trkpt>
<trkpt lat="-27.2744393" lon="151.2900639">
  <ele>364.28</ele>
  <time>2026-09-01T19:50:28Z</time>
  <course>8.0</course>
  <speed>0.03</speed>
  <fix>3d</fix>
</trkpt>
<trkpt lat="-27.2741393" lon="151.2900639">
  <ele>364.28</ele>
  <time>2026-09-01T19:50:28Z</time>
  <course>5.59</course>
  <speed>0.03</speed>
  <fix>3d</fix>
</trkpt>
<trkpt lat="-27.2744392" lon="151.2900639">
  <ele>364.28</ele>
  <time>2026-09-01T19:50:28Z</time>
  <course>7.99</course>
  <speed>0.03</speed>
  <fix>3d</fix>
</trkpt>
<trkpt lat="-27.2741392" lon="151.2900639">
  <ele>364.28</ele>
  <time>2026-09-01T19:50:28Z</time>
  <course>6.96</course>
  <speed>0.03</speed>
  <fix>3d</fix>
</trkpt>
<trkpt lat="-27.2744392" lon="151.2900639">
  <ele>364.28</ele>
  <time>2026-09-01T19:50:28Z</time>
  <course>7.99</course>
  <speed>0.03</speed>
  <fix>3d</fix>
</trkpt>
<trkpt lat="-27.2741392" lon="151.2900639">
  <ele>364.28</ele>
  <time>2026-09-01T19:50:28Z</time>
  <course>6.96</course>
  <speed>0.03</speed>
  <fix>3d</fix>
</trkpt>
<trkpt lat="-27.2744392" lon="151.2900639">
  <ele>364.28</ele>
  <time>2026-09-01T19:50:28Z</time>
  <course>7.99</course>
  <speed>0.03</speed>
  <fix>3d</fix>
</trkpt>
<trkpt lat="-27.2741392" lon="151.2900639">
  <ele>364.28</ele>
  <time>2026-09-01T19:50:28Z</time>
  <course>7.86</course>
  <speed>0.03</speed>
  <fix>3d</fix>
</trkpt>
<trkpt lat="-27.2744391" lon="151.2900639">
  <ele>364.28</ele>
  <time>2026-09-01T19:50:28Z</time>
  <course>7.99</course>
  <speed>0.03</speed>
  <fix>3d</fix>
</trkpt>
<trkpt lat="-27.2741392" lon="151.2900639">
  <ele>364.28</ele>
  <time>2026-09-01T19:50:28Z</time>
  <course>7.86</course>
  <speed>0.03</speed>
  <fix>3d</fix>
</trkpt>
<trkpt lat="-27.2744391" lon="151.2900639">
  <ele>364.28</ele>
  <time>2026-09-01T19:50:28Z</time>
  <course>7.99</course>
  <speed>0.03</speed>
  <fix>3d</fix>
</trkpt>
<trkpt lat="-27.2741391" lon="151.2900639">
  <ele>364.28</ele>
  <time>2026-09-01T19:50:28Z</time>
  <course>8.99</course>
  <speed>0.03</speed>
  <fix>3d</fix>
</trkpt>
<trkpt lat="-27.2744391" lon="151.2900639">
  <ele>364.28</ele>
  <time>2026-09-01T19:50:28Z</time>
  <course>7.99</course>
  <speed>0.03</speed>
  <fix>3d</fix>
</trkpt>
<trkpt lat="-27.2741391" lon="151.2900639">
  <ele>364.28</ele>
  <time>2026-09-01T19:50:28Z</time>
  <course>8.99</course>
  <speed>0.03</speed>
  <fix>3d</fix>
</trkpt>
<trkpt lat="-27.274439" lon="151.2900639">
  <ele>364.28</ele>
  <time>2026-09-01T19:50:28Z</time>
  <course>7.99</course>
  <speed>0.03</speed>
  <fix>3d</fix>
</trkpt>
<trkpt lat="-27.274139" lon="151.2900639">
  <ele>364.28</ele>
  <time>2026-09-01T19:50:28Z</time>
  <course>10.24</course>
  <speed>0.03</speed>
  <fix>3d</fix>
</trkpt>
<trkpt lat="-27.274439" lon="151.2900639">
  <ele>364.28</ele>
  <time>2026-09-01T19:50:28Z</time>
  <course>7.99</course>
  <speed>0.03</speed>
  <fix>3d</fix>
</trkpt>
<trkpt lat="-27.274139" lon="151.2900639">
  <ele>364.28</ele>
  <time>2026-09-01T19:50:28Z</time>
  <course>10.24</course>
  <speed>0.03</speed>
  <fix>3d</fix>
</trkpt>
<trkpt lat="-27.274439" lon="151.2900639">
  <ele>364.28</ele>
  <time>2026-09-01T19:50:28Z</time>
  <course>7.99</course>
  <speed>0.02</speed>
  <fix>3d</fix>
</trkpt>
<trkpt lat="-27.274139" lon="151.2900639">
  <ele>364.28</ele>
  <time>2026-09-01T19:50:28Z</time>
  <course>11.57</course>
  <speed>0.03</speed>
  <fix>3d</fix>
</trkpt>
<trkpt lat="-27.274439" lon="151.2900639">
  <ele>364.28</ele>
  <time>2026-09-01T19:50:28Z</time>
  <course>7.99</course>
  <speed>0.02</speed>
  <fix>3d</fix>
</trkpt>
<trkpt lat="-27.274139" lon="151.2900639">
  <ele>364.28</ele>
  <time>2026-09-01T19:50:28Z</time>
  <course>11.57</course>
  <speed>0.03</speed>
  <fix>3d</fix>
</trkpt>
<trkpt lat="-27.2744389" lon="151.2900639">
  <ele>364.28</ele>
  <time>2026-09-01T19:50:28Z</time>
  <course>7.99</course>
  <speed>0.02</speed>
  <fix>3d</fix>
</trkpt>
<trkpt lat="-27.2741389" lon="151.2900639">
  <ele>364.28</ele>
  <time>2026-09-01T19:50:28Z</time>
  <course>13.04</course>
  <speed>0.03</speed>
  <fix>3d</fix>
</trkpt>
<trkpt lat="-27.2744389" lon="151.2900639">
  <ele>364.28</ele>
  <time>2026-09-01T19:50:28Z</time>
  <course>7.99</course>
  <speed>0.02</speed>
  <fix>3d</fix>
</trkpt>
<trkpt lat="-27.2741389" lon="151.2900639">
  <ele>364.28</ele>
  <time>2026-09-01T19:50:28Z</time>
  <course>13.04</course>
  <speed>0.03</speed>
  <fix>3d</fix>
</trkpt>
<trkpt lat="-27.2744389" lon="151.2900639">
  <ele>364.28</ele>
  <time>2026-09-01T19:50:28Z</time>
  <course>7.99</course>
  <speed>0.02</speed>
  <fix>3d</fix>
</trkpt>
<trkpt lat="-27.2741389" lon="151.2900639">
  <ele>364.28</ele>
  <time>2026-09-01T19:50:28Z</time>
  <course>14.69</course>
  <speed>0.02</speed>
  <fix>3d</fix>
</trkpt>
<trkpt lat="-27.2744389" lon="151.2900639">
  <ele>364.28</ele>
  <time>2026-09-01T19:50:28Z</time>
  <course>7.99</course>
  <speed>0.02</speed>
  <fix>3d</fix>
</trkpt>
<trkpt lat="-27.2741389" lon="151.2900639">
  <ele>364.28</ele>
  <time>2026-09-01T19:50:28Z</time>
  <course>14.69</course>
  <speed>0.02</speed>
  <fix>3d</fix>
</trkpt>
<trkpt lat="-27.2744389" lon="151.2900639">
  <ele>364.28</ele>
  <time>2026-09-01T19:50:28Z</time>
  <course>8.0</course>
  <speed>0.02</speed>
  <fix>3d</fix>
</trkpt>
<trkpt lat="-27.2741388" lon="151.2900639">
  <ele>364.28</ele>
  <time>2026-09-01T19:50:28Z</time>
  <course>16.8</course>
  <speed>0.02</speed>
  <fix>3d</fix>
</trkpt>
<trkpt lat="-27.2744388" lon="151.2900639">
  <ele>364.28</ele>
  <time>2026-09-01T19:50:28Z</time>
  <course>8.0</course>
  <speed>0.01</speed>
  <fix>3d</fix>
</trkpt>
<trkpt lat="-27.2741388" lon="151.2900639">
  <ele>364.28</ele>
  <time>2026-09-01T19:50:28Z</time>
  <course>16.8</course>
  <speed>0.02</speed>
  <fix>3d</fix>
</trkpt>
<trkpt lat="-27.2744388" lon="151.2900639">
  <ele>364.28</ele>
  <time>2026-09-01T19:50:28Z</time>
  <course>7.99</course>
  <speed>0.01</speed>
  <fix>3d</fix>
</trkpt>
<trkpt lat="-27.2741388" lon="151.2900639">
  <ele>364.28</ele>
  <time>2026-09-01T19:50:28Z</time>
  <course>19.8</course>
  <speed>0.02</speed>
  <fix>3d</fix>
</trkpt>
<trkpt lat="-27.2744388" lon="151.2900639">
  <ele>364.27</ele>
  <time>2026-09-01T19:50:28Z</time>
  <course>7.99</course>
  <speed>0.01</speed>
  <fix>3d</fix>
</trkpt>
<trkpt lat="-27.2741388" lon="151.2900639">
  <ele>364.28</ele>
  <time>2026-09-01T19:50:28Z</time>
  <course>19.8</course>
  <speed>0.02</speed>
  <fix>3d</fix>
</trkpt>
<trkpt lat="-27.2744388" lon="151.2900639">
  <ele>364.27</ele>
  <time>2026-09-01T19:50:28Z</time>
  <course>7.99</course>
  <speed>0.01</speed>
  <fix>3d</fix>
</trkpt>
<trkpt lat="-27.2741387" lon="151.2900639">
  <ele>364.27</ele>
  <time>2026-09-01T19:50:28Z</time>
  <course>23.83</course>
  <speed>0.01</speed>
  <fix>3d</fix>
</trkpt>
<trkpt lat="-27.2744388" lon="151.290064">
  <ele>364.27</ele>
  <time>2026-09-01T19:50:28Z</time>
  <course>7.98</course>
  <speed>0.01</speed>
  <fix>3d</fix>
</trkpt>
<trkpt lat="-27.2741387" lon="151.2900639">
  <ele>364.27</ele>
  <time>2026-09-01T19:50:28Z</time>
  <course>23.83</course>
  <speed>0.01</speed>
  <fix>3d</fix>
</trkpt>
<trkpt lat="-27.2744388" lon="151.290064">
  <ele>364.27</ele>
  <time>2026-09-01T19:50:28Z</time>
  <course>7.98</course>
  <speed>0.0</speed>
  <fix>3d</fix>
</trkpt>
<trkpt lat="-27.2741387" lon="151.2900639">
  <ele>364.27</ele>
  <time>2026-09-01T19:50:28Z</time>
  <course>28.79</course>
  <speed>0.01</speed>
  <fix>3d</fix>
</trkpt>
<trkpt lat="-27.2744388" lon="151.290064">
  <ele>364.27</ele>
  <time>2026-09-01T19:50:28Z</time>
  <course>7.98</course>
  <speed>0.0</speed>
  <fix>3d</fix>
</trkpt>
<trkpt lat="-27.2741387" lon="151.2900639">
  <ele>364.27</ele>
  <time>2026-09-01T19:50:28Z</time>
  <course>28.79</course>
  <speed>0.01</speed>
  <fix>3d</fix>
</trkpt>
<trkpt lat="-27.2744388" lon="151.290064">
  <ele>364.27</ele>
  <time>2026-09-01T19:50:28Z</time>
  <course>7.97</course>
  <speed>0.0</speed>
  <fix>3d</fix>
</trkpt>
<trkpt lat="-27.2741387" lon="151.290064">
  <ele>364.27</ele>
  <time>2026-09-01T19:50:28Z</time>
  <course>32.47</course>
  <speed>0.01</speed>
  <fix>3d</fix>
</trkpt>
<trkpt lat="-27.2744387" lon="151.290064">
  <ele>364.27</ele>
  <time>2026-09-01T19:50:28Z</time>
  <course>7.97</course>
  <speed>0.0</speed>
  <fix>3d</fix>
</trkpt>
<trkpt lat="-27.2741387" lon="151.290064">
  <ele>364.27</ele>
  <time>2026-09-01T19:50:28Z</time>
  <course>32.47</course>
  <speed>0.01</speed>
  <fix>3d</fix>
</trkpt>
<trkpt lat="-27.2744387" lon="151.290064">
  <ele>364.27</ele>
  <time>2026-09-01T19:50:28Z</time>
  <course>7.97</course>
  <speed>0.0</speed>
  <fix>3d</fix>
</trkpt>
<trkpt lat="-27.2741387" lon="151.290064">
  <ele>364.27</ele>
  <time>2026-09-01T19:50:28Z</time>
  <course>34.0</course>
  <speed>0.0</speed>
  <fix>3d</fix>
</trkpt>
<trkpt lat="-27.2744387" lon="151.290064">
  <ele>364.27</ele>
  <time>2026-09-01T19:50:28Z</time>
  <course>7.97</course>
  <speed>0.0</speed>
  <fix>3d</fix>
</trkpt>
<trkpt lat="-27.2741387" lon="151.290064">
  <ele>364.27</ele>
  <time>2026-09-01T19:50:28Z</time>
  <course>34.0</course>
  <speed>0.0</speed>
  <fix>3d</fix>
</trkpt>
<trkpt lat="-27.2744387" lon="151.290064">
  <ele>364.28</ele>
  <time>2026-09-01T19:50:28Z</time>
  <course>7.98</course>
  <speed>0.0</speed>
  <fix>3d</fix>
</trkpt>
<trkpt lat="-27.2741386" lon="151.290064">
  <ele>364.27</ele>
  <time>2026-09-01T19:50:28Z</time>
  <course>42.04</course>
  <speed>0.0</speed>
  <fix>3d</fix>
</trkpt>
<trkpt lat="-27.2744387" lon="151.290064">
  <ele>364.28</ele>
  <time>2026-09-01T19:50:28Z</time>
  <course>7.98</course>
  <speed>0.0</speed>
  <fix>3d</fix>
</trkpt>
<trkpt lat="-27.2741386" lon="151.290064">
  <ele>364.27</ele>
  <time>2026-09-01T19:50:28Z</time>
  <course>42.04</course>
  <speed>0.0</speed>
  <fix>3d</fix>
</trkpt>
<trkpt lat="-27.2744387" lon="151.290064">
  <ele>364.28</ele>
  <time>2026-09-01T19:50:28Z</time>
  <course>7.99</course>
  <speed>0.0</speed>
  <fix>3d</fix>
</trkpt>
<trkpt lat="-27.2741386" lon="151.290064">
  <ele>364.27</ele>
  <time>2026-09-01T19:50:28Z</time>
  <course>81.96</course>
  <speed>0.0</speed>
  <fix>3d</fix>
</trkpt>
<trkpt lat="-27.2744387" lon="151.290064">
  <ele>364.28</ele>
  <time>2026-09-01T19:50:28Z</time>
  <course>7.99</course>
  <speed>0.0</speed>
  <fix>3d</fix>
</trkpt>
<trkpt lat="-27.2741386" lon="151.290064">
  <ele>364.27</ele>
  <time>2026-09-01T19:50:28Z</time>
  <course>81.96</course>
  <speed>0.0</speed>
  <fix>3d</fix>
</trkpt>
<trkpt lat="-27.2744387" lon="151.290064">
  <ele>364.28</ele>
  <time>2026-09-01T19:50:28Z</time>
  <course>7.99</course>
  <speed>0.0</speed>
  <fix>3d</fix>
</trkpt>
<trkpt lat="-27.2741386" lon="151.290064">
  <ele>364.28</ele>
  <time>2026-09-01T19:50:28Z</time>
  <course>130.65</course>
  <speed>0.0</speed>
  <fix>3d</fix>
</trkpt>
<trkpt lat="-27.2744387" lon="151.290064">
  <ele>364.28</ele>
  <time>2026-09-01T19:50:28Z</time>
  <course>7.99</course>
  <speed>0.0</speed>
  <fix>3d</fix>
</trkpt>
<trkpt lat="-27.2741386" lon="151.290064">
  <ele>364.28</ele>
  <time>2026-09-01T19:50:28Z</time>
  <course>130.65</course>
  <speed>0.0</speed>
  <fix>3d</fix>
</trkpt>
<trkpt lat="-27.2744387" lon="151.290064">
  <ele>364.28</ele>
  <time>2026-09-01T19:50:28Z</time>
  <course>7.99</course>
  <speed>0.01</speed>
  <fix>3d</fix>
</trkpt>
<trkpt lat="-27.2741386" lon="151.290064">
  <ele>364.28</ele>
  <time>2026-09-01T19:50:28Z</time>
  <course>149.96</course>
  <speed>0.0</speed>
  <fix>3d</fix>
</trkpt>
<trkpt lat="-27.2744387" lon="151.290064">
  <ele>364.27</ele>
  <time>2026-09-01T19:50:28Z</time>
  <course>7.99</course>
  <speed>0.01</speed>
  <fix>3d</fix>
</trkpt>
<trkpt lat="-27.2741386" lon="151.290064">
  <ele>364.28</ele>
  <time>2026-09-01T19:50:28Z</time>
  <course>149.96</course>
  <speed>0.0</speed>
  <fix>3d</fix>
</trkpt>
<trkpt lat="-27.2744387" lon="151.290064">
  <ele>364.27</ele>
  <time>2026-09-01T19:50:28Z</time>
  <course>7.99</course>
  <speed>0.01</speed>
  <fix>3d</fix>
</trkpt>
<trkpt lat="-27.2741386" lon="151.290064">
  <ele>364.27</ele>
  <time>2026-09-01T19:50:28Z</time>
  <course>159.12</course>
  <speed>0.01</speed>
  <fix>3d</fix>
</trkpt>
<trkpt lat="-27.2744387" lon="151.290064">
  <ele>364.27</ele>
  <time>2026-09-01T19:50:28Z</time>
  <course>7.99</course>
  <speed>0.01</speed>
  <fix>3d</fix>
</trkpt>
<trkpt lat="-27.2741386" lon="151.290064">
  <ele>364.27</ele>
  <time>2026-09-01T19:50:28Z</time>
  <course>159.12</course>
  <speed>0.01</speed>
  <fix>3d</fix>
</trkpt>
<trkpt lat="-27.2744387" lon="151.290064">
  <ele>364.27</ele>
  <time>2026-09-01T19:50:28Z</time>
  <course>7.99</course>
  <speed>0.01</speed>
  <fix>3d</fix>
</trkpt>
<trkpt lat="-27.2741386" lon="151.290064">
  <ele>364.27</ele>
  <time>2026-09-01T19:50:28Z</time>
  <course>164.47</course>
  <speed>0.01</speed>
  <fix>3d</fix>
</trkpt>
<trkpt lat="-27.2744387" lon="151.290064">
  <ele>364.27</ele>
  <time>2026-09-01T19:50:28Z</time>
  <course>7.99</course>
  <speed>0.01</speed>
  <fix>3d</fix>
</trkpt>
<trkpt lat="-27.2741386" lon="151.290064">
  <ele>364.27</ele>
  <time>2026-09-01T19:50:28Z</time>
  <course>164.47</course>
  <speed>0.01</speed>
  <fix>3d</fix>
</trkpt>
<trkpt lat="-27.2744388" lon="151.290064">
  <ele>364.27</ele>
  <time>2026-09-01T19:50:28Z</time>
  <course>7.99</course>
  <speed>0.02</speed>
  <fix>3d</fix>
</trkpt>
<trkpt lat="-27.2741386" lon="151.290064">
  <ele>364.27</ele>
  <time>2026-09-01T19:50:28Z</time>
  <course>166.82</course>
  <speed>0.01</speed>
  <fix>3d</fix>
</trkpt>
<trkpt lat="-27.2744388" lon="151.290064">
  <ele>364.27</ele>
  <time>2026-09-01T19:50:28Z</time>
  <course>7.99</course>
  <speed>0.02</speed>
  <fix>3d</fix>
</trkpt>
<trkpt lat="-27.2741386" lon="151.290064">
  <ele>364.27</ele>
  <time>2026-09-01T19:50:28Z</time>
  <course>166.82</course>
  <speed>0.01</speed>
  <fix>3d</fix>
</trkpt>
<trkpt lat="-27.2744388" lon="151.290064">
  <ele>364.27</ele>
  <time>2026-09-01T19:50:28Z</time>
  <course>7.99</course>
  <speed>0.02</speed>
  <fix>3d</fix>
</trkpt>
<trkpt lat="-27.2741387" lon="151.290064">
  <ele>364.27</ele>
  <time>2026-09-01T19:50:28Z</time>
  <course>166.99</course>
  <speed>0.02</speed>
  <fix>3d</fix>
</trkpt>
<trkpt lat="-27.2744388" lon="151.2900641">
  <ele>364.27</ele>
  <time>2026-09-01T19:50:28Z</time>
  <course>8.0</course>
  <speed>0.02</speed>
  <fix>3d</fix>
</trkpt>
<trkpt lat="-27.2741387" lon="151.290064">
  <ele>364.27</ele>
  <time>2026-09-01T19:50:28Z</time>
  <course>166.99</course>
  <speed>0.02</speed>
  <fix>3d</fix>
</trkpt>
<trkpt lat="-27.2744388" lon="151.2900641">
  <ele>364.27</ele>
  <time>2026-09-01T19:50:28Z</time>
  <course>8.0</course>
  <speed>0.02</speed>
  <fix>3d</fix>
</trkpt>
<trkpt lat="-27.2741387" lon="151.290064">
  <ele>364.27</ele>
  <time>2026-09-01T19:50:28Z</time>
  <course>167.39</course>
  <speed>0.02</speed>
  <fix>3d</fix>
</trkpt>
<trkpt lat="-27.2744389" lon="151.2900641">
  <ele>364.27</ele>
  <time>2026-09-01T19:50:28Z</time>
  <course>8.0</course>
  <speed>0.02</speed>
  <fix>3d</fix>
</trkpt>
<trkpt lat="-27.2741387" lon="151.290064">
  <ele>364.27</ele>
  <time>2026-09-01T19:50:28Z</time>
  <course>167.39</course>
  <speed>0.02</speed>
  <fix>3d</fix>
</trkpt>
<trkpt lat="-27.2744389" lon="151.2900641">
  <ele>364.27</ele>
  <time>2026-09-01T19:50:28Z</time>
  <course>7.99</course>
  <speed>0.02</speed>
  <fix>3d</fix>
</trkpt>
<trkpt lat="-27.2741388" lon="151.2900641">
  <ele>364.27</ele>
  <time>2026-09-01T19:50:28Z</time>
  <course>169.51</course>
  <speed>0.02</speed>
  <fix>3d</fix>
</trkpt>
<trkpt lat="-27.2744389" lon="151.2900641">
  <ele>364.27</ele>
  <time>2026-09-01T19:50:28Z</time>
  <course>7.99</course>
  <speed>0.02</speed>
  <fix>3d</fix>
</trkpt>
<trkpt lat="-27.2741388" lon="151.2900641">
  <ele>364.27</ele>
  <time>2026-09-01T19:50:28Z</time>
  <course>169.51</course>
  <speed>0.02</speed>
  <fix>3d</fix>
</trkpt>
<trkpt lat="-27.2744389" lon="151.2900641">
  <ele>364.27</ele>
  <time>2026-09-01T19:50:28Z</time>
  <course>7.99</course>
  <speed>0.02</speed>
  <fix>3d</fix>
</trkpt>
<trkpt lat="-27.2741388" lon="151.2900641">
  <ele>364.27</ele>
  <time>2026-09-01T19:50:28Z</time>
  <course>172.99</course>
  <speed>0.02</speed>
  <fix>3d</fix>
</trkpt>
<trkpt lat="-27.2744389" lon="151.2900641">
  <ele>364.27</ele>
  <time>2026-09-01T19:50:29Z</time>
  <course>7.99</course>
  <speed>0.02</speed>
  <fix>3d</fix>
</trkpt>
<trkpt lat="-27.2741388" lon="151.2900641">
  <ele>364.27</ele>
  <time>2026-09-01T19:50:29Z</time>
  <course>172.99</course>
  <speed>0.02</speed>
  <fix>3d</fix>
</trkpt>
<trkpt lat="-27.274439" lon="151.2900641">
  <ele>364.27</ele>
  <time>2026-09-01T19:50:29Z</time>
  <course>7.99</course>
  <speed>0.02</speed>
  <fix>3d</fix>
</trkpt>
<trkpt lat="-27.2741388" lon="151.2900641">
  <ele>364.27</ele>
  <time>2026-09-01T19:50:29Z</time>
  <course>176.6</course>
  <speed>0.02</speed>
  <fix>3d</fix>
</trkpt>
<trkpt lat="-27.274439" lon="151.2900641">
  <ele>364.27</ele>
  <time>2026-09-01T19:50:29Z</time>
  <course>7.99</course>
  <speed>0.02</speed>
  <fix>3d</fix>
</trkpt>
<trkpt lat="-27.2741388" lon="151.2900641">
  <ele>364.27</ele>
  <time>2026-09-01T19:50:29Z</time>
  <course>176.6</course>
  <speed>0.02</speed>
  <fix>3d</fix>
</trkpt>
<trkpt lat="-27.274439" lon="151.2900641">
  <ele>364.27</ele>
  <time>2026-09-01T19:50:29Z</time>
  <course>8.0</course>
  <speed>0.02</speed>
  <fix>3d</fix>
</trkpt>
<trkpt lat="-27.2741389" lon="151.2900641">
  <ele>364.27</ele>
  <time>2026-09-01T19:50:29Z</time>
  <course>179.86</course>
  <speed>0.02</speed>
  <fix>3d</fix>
</trkpt>
<trkpt lat="-27.274439" lon="151.2900641">
  <ele>364.27</ele>
  <time>2026-09-01T19:50:29Z</time>
  <course>8.0</course>
  <speed>0.02</speed>
  <fix>3d</fix>
</trkpt>
<trkpt lat="-27.2741389" lon="151.2900641">
  <ele>364.27</ele>
  <time>2026-09-01T19:50:29Z</time>
  <course>179.86</course>
  <speed>0.02</speed>
  <fix>3d</fix>
</trkpt>
<trkpt lat="-27.274439" lon="151.2900641">
  <ele>364.27</ele>
  <time>2026-09-01T19:50:29Z</time>
  <course>8.0</course>
  <speed>0.02</speed>
  <fix>3d</fix>
</trkpt>
<trkpt lat="-27.2741389" lon="151.2900641">
  <ele>364.27</ele>
  <time>2026-09-01T19:50:29Z</time>
  <course>182.91</course>
  <speed>0.02</speed>
  <fix>3d</fix>
</trkpt>
<trkpt lat="-27.2744391" lon="151.2900641">
  <ele>364.27</ele>
  <time>2026-09-01T19:50:29Z</time>
  <course>7.99</course>
  <speed>0.01</speed>
  <fix>3d</fix>
</trkpt>
<trkpt lat="-27.2741389" lon="151.2900641">
  <ele>364.27</ele>
  <time>2026-09-01T19:50:29Z</time>
  <course>182.91</course>
  <speed>0.02</speed>
  <fix>3d</fix>
</trkpt>
<trkpt lat="-27.2744391" lon="151.2900641">
  <ele>364.27</ele>
  <time>2026-09-01T19:50:29Z</time>
  <course>7.99</course>
  <speed>0.01</speed>
  <fix>3d</fix>
</trkpt>
<trkpt lat="-27.274139" lon="151.2900641">
  <ele>364.27</ele>
  <time>2026-09-01T19:50:29Z</time>
  <course>186.19</course>
  <speed>0.02</speed>
  <fix>3d</fix>
</trkpt>
<trkpt lat="-27.2744391" lon="151.2900641">
  <ele>364.27</ele>
  <time>2026-09-01T19:50:29Z</time>
  <course>7.99</course>
  <speed>0.01</speed>
  <fix>3d</fix>
</trkpt>
<trkpt lat="-27.274139" lon="151.2900641">
  <ele>364.27</ele>
  <time>2026-09-01T19:50:29Z</time>
  <course>186.19</course>
  <speed>0.02</speed>
  <fix>3d</fix>
</trkpt>
<trkpt lat="-27.2744391" lon="151.2900641">
  <ele>364.27</ele>
  <time>2026-09-01T19:50:29Z</time>
  <course>7.99</course>
  <speed>0.01</speed>
  <fix>3d</fix>
</trkpt>
<trkpt lat="-27.274139" lon="151.2900641">
  <ele>364.27</ele>
  <time>2026-09-01T19:50:29Z</time>
  <course>189.87</course>
  <speed>0.01</speed>
  <fix>3d</fix>
</trkpt>
<trkpt lat="-27.2744391" lon="151.2900641">
  <ele>364.27</ele>
  <time>2026-09-01T19:50:29Z</time>
  <course>7.99</course>
  <speed>0.01</speed>
  <fix>3d</fix>
</trkpt>
<trkpt lat="-27.274139" lon="151.2900641">
  <ele>364.27</ele>
  <time>2026-09-01T19:50:29Z</time>
  <course>189.87</course>
  <speed>0.01</speed>
  <fix>3d</fix>
</trkpt>
<trkpt lat="-27.2744391" lon="151.2900641">
  <ele>364.27</ele>
  <time>2026-09-01T19:50:29Z</time>
  <course>7.99</course>
  <speed>0.01</speed>
  <fix>3d</fix>
</trkpt>
<trkpt lat="-27.274139" lon="151.2900641">
  <ele>364.27</ele>
  <time>2026-09-01T19:50:29Z</time>
  <course>194.03</course>
  <speed>0.01</speed>
  <fix>3d</fix>
</trkpt>
<trkpt lat="-27.2744391" lon="151.2900641">
  <ele>364.27</ele>
  <time>2026-09-01T19:50:29Z</time>
  <course>7.99</course>
  <speed>0.01</speed>
  <fix>3d</fix>
</trkpt>
<trkpt lat="-27.274139" lon="151.2900641">
  <ele>364.27</ele>
  <time>2026-09-01T19:50:29Z</time>
  <course>194.03</course>
  <speed>0.01</speed>
  <fix>3d</fix>
</trkpt>
<trkpt lat="-27.2744391" lon="151.2900641">
  <ele>364.27</ele>
  <time>2026-09-01T19:50:29Z</time>
  <course>7.99</course>
  <speed>0.01</speed>
  <fix>3d</fix>
</trkpt>
<trkpt lat="-27.274139" lon="151.2900641">
  <ele>364.27</ele>
  <time>2026-09-01T19:50:29Z</time>
  <course>199.08</course>
  <speed>0.01</speed>
  <fix>3d</fix>
</trkpt>
<trkpt lat="-27.2744392" lon="151.2900641">
  <ele>364.27</ele>
  <time>2026-09-01T19:50:29Z</time>
  <course>7.99</course>
  <speed>0.01</speed>
  <fix>3d</fix>
</trkpt>
<trkpt lat="-27.274139" lon="151.2900641">
  <ele>364.27</ele>
  <time>2026-09-01T19:50:29Z</time>
  <course>199.08</course>
  <speed>0.01</speed>
  <fix>3d</fix>
</trkpt>
<trkpt lat="-27.2744392" lon="151.2900641">
  <ele>364.27</ele>
  <time>2026-09-01T19:50:29Z</time>
  <course>7.99</course>
  <speed>0.0</speed>
  <fix>3d</fix>
</trkpt>
<trkpt lat="-27.2741391" lon="151.2900641">
  <ele>364.27</ele>
  <time>2026-09-01T19:50:29Z</time>
  <course>204.79</course>
  <speed>0.01</speed>
  <fix>3d</fix>
</trkpt>
<trkpt lat="-27.2744392" lon="151.2900641">
  <ele>364.27</ele>
  <time>2026-09-01T19:50:29Z</time>
  <course>7.99</course>
  <speed>0.0</speed>
  <fix>3d</fix>
</trkpt>
<trkpt lat="-27.2741391" lon="151.2900641">
  <ele>364.27</ele>
  <time>2026-09-01T19:50:29Z</time>
  <course>204.79</course>
  <speed>0.01</speed>
  <fix>3d</fix>
</trkpt>
<trkpt lat="-27.2744392" lon="151.2900641">
  <ele>364.27</ele>
  <time>2026-09-01T19:50:29Z</time>
  <course>7.99</course>
  <speed>0.0</speed>
  <fix>3d</fix>
</trkpt>
<trkpt lat="-27.2741391" lon="151.2900641">
  <ele>364.27</ele>
  <time>2026-09-01T19:50:29Z</time>
  <course>212.37</course>
  <speed>0.01</speed>
  <fix>3d</fix>
</trkpt>
<trkpt lat="-27.2744392" lon="151.2900641">
  <ele>364.27</ele>
  <time>2026-09-01T19:50:29Z</time>
  <course>7.99</course>
  <speed>0.0</speed>
  <fix>3d</fix>
</trkpt>
<trkpt lat="-27.2741391" lon="151.2900641">
  <ele>364.27</ele>
  <time>2026-09-01T19:50:29Z</time>
  <course>212.37</course>
  <speed>0.01</speed>
  <fix>3d</fix>
</trkpt>
<trkpt lat="-27.2744392" lon="151.2900641">
  <ele>364.27</ele>
  <time>2026-09-01T19:50:29Z</time>
  <course>7.99</course>
  <speed>0.0</speed>
  <fix>3d</fix>
</trkpt>
<trkpt lat="-27.2741391" lon="151.2900641">
  <ele>364.27</ele>
  <time>2026-09-01T19:50:29Z</time>
  <course>224.4</course>
  <speed>0.0</speed>
  <fix>3d</fix>
</trkpt>
<trkpt lat="-27.2744392" lon="151.2900641">
  <ele>364.27</ele>
  <time>2026-09-01T19:50:29Z</time>
  <course>7.99</course>
  <speed>0.0</speed>
  <fix>3d</fix>
</trkpt>
<trkpt lat="-27.2741391" lon="151.2900641">
  <ele>364.27</ele>
  <time>2026-09-01T19:50:29Z</time>
  <course>224.4</course>
  <speed>0.0</speed>
  <fix>3d</fix>
</trkpt>
<trkpt lat="-27.2744392" lon="151.2900641">
  <ele>364.27</ele>
  <time>2026-09-01T19:50:29Z</time>
  <course>7.99</course>
  <speed>0.0</speed>
  <fix>3d</fix>
</trkpt>
<trkpt lat="-27.2741391" lon="151.2900641">
  <ele>364.27</ele>
  <time>2026-09-01T19:50:29Z</time>
  <course>241.89</course>
  <speed>0.0</speed>
  <fix>3d</fix>
</trkpt>
<trkpt lat="-27.2744392" lon="151.2900641">
  <ele>364.27</ele>
  <time>2026-09-01T19:50:29Z</time>
  <course>7.99</course>
  <speed>0.0</speed>
  <fix>3d</fix>
</trkpt>
<trkpt lat="-27.2741391" lon="151.2900641">
  <ele>364.27</ele>
  <time>2026-09-01T19:50:29Z</time>
  <course>241.89</course>
  <speed>0.0</speed>
  <fix>3d</fix>
</trkpt>
<trkpt lat="-27.2744392" lon="151.2900641">
  <ele>364.26</ele>
  <time>2026-09-01T19:50:29Z</time>
  <course>7.99</course>
  <speed>0.0</speed>
  <fix>3d</fix>
</trkpt>
<trkpt lat="-27.2741391" lon="151.2900641">
  <ele>364.27</ele>
  <time>2026-09-01T19:50:29Z</time>
  <course>262.66</course>
  <speed>0.0</speed>
  <fix>3d</fix>
</trkpt>
<trkpt lat="-27.2744392" lon="151.2900641">
  <ele>364.26</ele>
  <time>2026-09-01T19:50:29Z</time>
  <course>7.99</course>
  <speed>0.0</speed>
  <fix>3d</fix>
</trkpt>
<trkpt lat="-27.2741391" lon="151.2900641">
  <ele>364.27</ele>
  <time>2026-09-01T19:50:29Z</time>
  <course>262.66</course>
  <speed>0.0</speed>
  <fix>3d</fix>
</trkpt>
<trkpt lat="-27.2744392" lon="151.2900641">
  <ele>364.26</ele>
  <time>2026-09-01T19:50:29Z</time>
  <course>7.99</course>
  <speed>0.0</speed>
  <fix>3d</fix>
</trkpt>
<trkpt lat="-27.2741391" lon="151.2900641">
  <ele>364.26</ele>
  <time>2026-09-01T19:50:29Z</time>
  <course>282.23</course>
  <speed>0.0</speed>
  <fix>3d</fix>
</trkpt>
<trkpt lat="-27.2744392" lon="151.290064">
  <ele>364.26</ele>
  <time>2026-09-01T19:50:29Z</time>
  <course>7.98</course>
  <speed>0.0</speed>
  <fix>3d</fix>
</trkpt>
<trkpt lat="-27.2741391" lon="151.2900641">
  <ele>364.26</ele>
  <time>2026-09-01T19:50:29Z</time>
  <course>282.23</course>
  <speed>0.0</speed>
  <fix>3d</fix>
</trkpt>
<trkpt lat="-27.2744392" lon="151.290064">
  <ele>364.26</ele>
  <time>2026-09-01T19:50:29Z</time>
  <course>7.98</course>
  <speed>0.0</speed>
  <fix>3d</fix>
</trkpt>
<trkpt lat="-27.2741391" lon="151.290064">
  <ele>364.26</ele>
  <time>2026-09-01T19:50:29Z</time>
  <course>298.55</course>
  <speed>0.0</speed>
  <fix>3d</fix>
</trkpt>
<trkpt lat="-27.2744392" lon="151.290064">
  <ele>364.26</ele>
  <time>2026-09-01T19:50:29Z</time>
  <course>7.98</course>
  <speed>0.0</speed>
  <fix>3d</fix>
</trkpt>
<trkpt lat="-27.2741391" lon="151.290064">
  <ele>364.26</ele>
  <time>2026-09-01T19:50:29Z</time>
  <course>298.55</course>
  <speed>0.0</speed>
  <fix>3d</fix>
</trkpt>
<trkpt lat="-27.2744392" lon="151.290064">
  <ele>364.26</ele>
  <time>2026-09-01T19:50:29Z</time>
  <course>7.98</course>
  <speed>0.0</speed>
  <fix>3d</fix>
</trkpt>
<trkpt lat="-27.2741391" lon="151.290064">
  <ele>364.26</ele>
  <time>2026-09-01T19:50:29Z</time>
  <course>312.45</course>
  <speed>0.0</speed>
  <fix>3d</fix>
</trkpt>
<trkpt lat="-27.2744392" lon="151.290064">
  <ele>364.26</ele>
  <time>2026-09-01T19:50:29Z</time>
  <course>7.98</course>
  <speed>0.0</speed>
  <fix>3d</fix>
</trkpt>
<trkpt lat="-27.2741391" lon="151.290064">
  <ele>364.26</ele>
  <time>2026-09-01T19:50:29Z</time>
  <course>312.45</course>
  <speed>0.0</speed>
  <fix>3d</fix>
</trkpt>
<trkpt lat="-27.2744392" lon="151.290064">
  <ele>364.27</ele>
  <time>2026-09-01T19:50:29Z</time>
  <course>7.98</course>
  <speed>0.0</speed>
  <fix>3d</fix>
</trkpt>
<trkpt lat="-27.2741391" lon="151.290064">
  <ele>364.26</ele>
  <time>2026-09-01T19:50:29Z</time>
  <course>323.13</course>
  <speed>0.0</speed>
  <fix>3d</fix>
</trkpt>
<trkpt lat="-27.2744392" lon="151.290064">
  <ele>364.27</ele>
  <time>2026-09-01T19:50:29Z</time>
  <course>7.98</course>
  <speed>0.0</speed>
  <fix>3d</fix>
</trkpt>
<trkpt lat="-27.2741391" lon="151.290064">
  <ele>364.26</ele>
  <time>2026-09-01T19:50:29Z</time>
  <course>323.13</course>
  <speed>0.0</speed>
  <fix>3d</fix>
</trkpt>
<trkpt lat="-27.2744392" lon="151.290064">
  <ele>364.27</ele>
  <time>2026-09-01T19:50:29Z</time>
  <course>7.98</course>
  <speed>0.01</speed>
  <fix>3d</fix>
</trkpt>
<trkpt lat="-27.2741391" lon="151.290064">
  <ele>364.26</ele>
  <time>2026-09-01T19:50:29Z</time>
  <course>330.58</course>
  <speed>0.01</speed>
  <fix>3d</fix>
</trkpt>
<trkpt lat="-27.2744392" lon="151.290064">
  <ele>364.27</ele>
  <time>2026-09-01T19:50:29Z</time>
  <course>7.98</course>
  <speed>0.01</speed>
  <fix>3d</fix>
</trkpt>
<trkpt lat="-27.2741391" lon="151.290064">
  <ele>364.26</ele>
  <time>2026-09-01T19:50:29Z</time>
  <course>330.58</course>
  <speed>0.01</speed>
  <fix>3d</fix>
</trkpt>
<trkpt lat="-27.2744392" lon="151.290064">
  <ele>364.27</ele>
  <time>2026-09-01T19:50:29Z</time>
  <course>7.98</course>
  <speed>0.01</speed>
  <fix>3d</fix>
</trkpt>
<trkpt lat="-27.2741391" lon="151.290064">
  <ele>364.27</ele>
  <time>2026-09-01T19:50:29Z</time>
  <course>336.74</course>
  <speed>0.01</speed>
  <fix>3d</fix>
</trkpt>
<trkpt lat="-27.2744392" lon="151.290064">
  <ele>364.27</ele>
  <time>2026-09-01T19:50:29Z</time>
  <course>7.99</course>
  <speed>0.01</speed>
  <fix>3d</fix>
</trkpt>
<trkpt lat="-27.2741391" lon="151.290064">
  <ele>364.27</ele>
  <time>2026-09-01T19:50:29Z</time>
  <course>336.74</course>
  <speed>0.01</speed>
  <fix>3d</fix>
</trkpt>
<trkpt lat="-27.2744392" lon="151.290064">
  <ele>364.27</ele>
  <time>2026-09-01T19:50:29Z</time>
  <course>7.99</course>
  <speed>0.01</speed>
  <fix>3d</fix>
</trkpt>
<trkpt lat="-27.2741391" lon="151.290064">
  <ele>364.27</ele>
  <time>2026-09-01T19:50:29Z</time>
  <course>340.33</course>
  <speed>0.01</speed>
  <fix>3d</fix>
</trkpt>
<trkpt lat="-27.2744392" lon="151.290064">
  <ele>364.27</ele>
  <time>2026-09-01T19:50:29Z</time>
  <course>7.99</course>
  <speed>0.01</speed>
  <fix>3d</fix>
</trkpt>
<trkpt lat="-27.2741391" lon="151.290064">
  <ele>364.27</ele>
  <time>2026-09-01T19:50:29Z</time>
  <course>340.33</course>
  <speed>0.01</speed>
  <fix>3d</fix>
</trkpt>
<trkpt lat="-27.2744392" lon="151.290064">
  <ele>364.27</ele>
  <time>2026-09-01T19:50:29Z</time>
  <course>7.99</course>
  <speed>0.01</speed>
  <fix>3d</fix>
</trkpt>
<trkpt lat="-27.2741391" lon="151.290064">
  <ele>364.27</ele>
  <time>2026-09-01T19:50:29Z</time>
  <course>341.56</course>
  <speed>0.01</speed>
  <fix>3d</fix>
</trkpt>
<trkpt lat="-27.2744392" lon="151.290064">
  <ele>364.27</ele>
  <time>2026-09-01T19:50:29Z</time>
  <course>8.0</course>
  <speed>0.01</speed>
  <fix>3d</fix>
</trkpt>
<trkpt lat="-27.2741391" lon="151.290064">
  <ele>364.27</ele>
  <time>2026-09-01T19:50:29Z</time>
  <course>341.56</course>
  <speed>0.01</speed>
  <fix>3d</fix>
</trkpt>
<trkpt lat="-27.2744391" lon="151.290064">
  <ele>364.26</ele>
  <time>2026-09-01T19:50:29Z</time>
  <course>8.0</course>
  <speed>0.01</speed>
  <fix>3d</fix>
</trkpt>
<trkpt lat="-27.2741391" lon="151.290064">
  <ele>364.27</ele>
  <time>2026-09-01T19:50:29Z</time>
  <course>343.19</course>
  <speed>0.01</speed>
  <fix>3d</fix>
</trkpt>
<trkpt lat="-27.2744391" lon="151.290064">
  <ele>364.26</ele>
  <time>2026-09-01T19:50:29Z</time>
  <course>8.0</course>
  <speed>0.01</speed>
  <fix>3d</fix>
</trkpt>
<trkpt lat="-27.2741391" lon="151.290064">
  <ele>364.27</ele>
  <time>2026-09-01T19:50:29Z</time>
  <course>343.19</course>
  <speed>0.01</speed>
  <fix>3d</fix>
</trkpt>
<trkpt lat="-27.2744391" lon="151.290064">
  <ele>364.26</ele>
  <time>2026-09-01T19:50:29Z</time>
  <course>8.0</course>
  <speed>0.01</speed>
  <fix>3d</fix>
</trkpt>
<trkpt lat="-27.2741391" lon="151.290064">
  <ele>364.26</ele>
  <time>2026-09-01T19:50:29Z</time>
  <course>345.07</course>
  <speed>0.01</speed>
  <fix>3d</fix>
</trkpt>
<trkpt lat="-27.2744391" lon="151.290064">
  <ele>364.26</ele>
  <time>2026-09-01T19:50:29Z</time>
  <course>8.0</course>
  <speed>0.01</speed>
  <fix>3d</fix>
</trkpt>
<trkpt lat="-27.2741391" lon="151.290064">
  <ele>364.26</ele>
  <time>2026-09-01T19:50:29Z</time>
  <course>345.07</course>
  <speed>0.01</speed>
  <fix>3d</fix>
</trkpt>
<trkpt lat="-27.2744391" lon="151.290064">
  <ele>364.26</ele>
  <time>2026-09-01T19:50:29Z</time>
  <course>8.0</course>
  <speed>0.01</speed>
  <fix>3d</fix>
</trkpt>
<trkpt lat="-27.274139" lon="151.290064">
  <ele>364.26</ele>
  <time>2026-09-01T19:50:29Z</time>
  <course>346.3</course>
  <speed>0.01</speed>
  <fix>3d</fix>
</trkpt>
<trkpt lat="-27.2744391" lon="151.290064">
  <ele>364.26</ele>
  <time>2026-09-01T19:50:29Z</time>
  <course>8.0</course>
  <speed>0.01</speed>
  <fix>3d</fix>
</trkpt>
<trkpt lat="-27.274139" lon="151.290064">
  <ele>364.26</ele>
  <time>2026-09-01T19:50:29Z</time>
  <course>346.3</course>
  <speed>0.01</speed>
  <fix>3d</fix>
</trkpt>
<trkpt lat="-27.274439" lon="151.2900639">
  <ele>364.26</ele>
  <time>2026-09-01T19:50:29Z</time>
  <course>8.0</course>
  <speed>0.01</speed>
  <fix>3d</fix>
</trkpt>
<trkpt lat="-27.274139" lon="151.290064">
  <ele>364.26</ele>
  <time>2026-09-01T19:50:29Z</time>
  <course>347.1</course>
  <speed>0.01</speed>
  <fix>3d</fix>
</trkpt>
<trkpt lat="-27.274439" lon="151.2900639">
  <ele>364.26</ele>
  <time>2026-09-01T19:50:29Z</time>
  <course>8.0</course>
  <speed>0.01</speed>
  <fix>3d</fix>
</trkpt>
<trkpt lat="-27.274139" lon="151.290064">
  <ele>364.26</ele>
  <time>2026-09-01T19:50:29Z</time>
  <course>347.1</course>
  <speed>0.01</speed>
  <fix>3d</fix>
</trkpt>
<trkpt lat="-27.274439" lon="151.2900639">
  <ele>364.26</ele>
  <time>2026-09-01T19:50:29Z</time>
  <course>7.99</course>
  <speed>0.01</speed>
  <fix>3d</fix>
</trkpt>
<trkpt lat="-27.274139" lon="151.2900639">
  <ele>364.26</ele>
  <time>2026-09-01T19:50:29Z</time>
  <course>348.12</course>
  <speed>0.01</speed>
  <fix>3d</fix>
</trkpt>
<trkpt lat="-27.274439" lon="151.2900639">
  <ele>364.26</ele>
  <time>2026-09-01T19:50:29Z</time>
  <course>7.99</course>
  <speed>0.01</speed>
  <fix>3d</fix>
</trkpt>
<trkpt lat="-27.274139" lon="151.2900639">
  <ele>364.26</ele>
  <time>2026-09-01T19:50:29Z</time>
  <course>348.12</course>
  <speed>0.01</speed>
  <fix>3d</fix>
</trkpt>
<trkpt lat="-27.274439" lon="151.2900639">
  <ele>364.26</ele>
  <time>2026-09-01T19:50:29Z</time>
  <course>7.99</course>
  <speed>0.01</speed>
  <fix>3d</fix>
</trkpt>
<trkpt lat="-27.2741389" lon="151.2900639">
  <ele>364.26</ele>
  <time>2026-09-01T19:50:29Z</time>
  <course>350.01</course>
  <speed>0.01</speed>
  <fix>3d</fix>
</trkpt>
<trkpt lat="-27.274439" lon="151.2900639">
  <ele>364.26</ele>
  <time>2026-09-01T19:50:29Z</time>
  <course>7.99</course>
  <speed>0.01</speed>
  <fix>3d</fix>
</trkpt>
<trkpt lat="-27.2741389" lon="151.2900639">
  <ele>364.26</ele>
  <time>2026-09-01T19:50:29Z</time>
  <course>350.01</course>
  <speed>0.01</speed>
  <fix>3d</fix>
</trkpt>
<trkpt lat="-27.2744389" lon="151.2900639">
  <ele>364.26</ele>
  <time>2026-09-01T19:50:29Z</time>
  <course>7.99</course>
  <speed>0.01</speed>
  <fix>3d</fix>
</trkpt>
<trkpt lat="-27.2741389" lon="151.2900639">
  <ele>364.26</ele>
  <time>2026-09-01T19:50:29Z</time>
  <course>352.3</course>
  <speed>0.01</speed>
  <fix>3d</fix>
</trkpt>
<trkpt lat="-27.2744389" lon="151.2900639">
  <ele>364.26</ele>
  <time>2026-09-01T19:50:29Z</time>
  <course>7.99</course>
  <speed>0.01</speed>
  <fix>3d</fix>
</trkpt>
<trkpt lat="-27.2741389" lon="151.2900639">
  <ele>364.26</ele>
  <time>2026-09-01T19:50:29Z</time>
  <course>352.3</course>
  <speed>0.01</speed>
  <fix>3d</fix>
</trkpt>
<trkpt lat="-27.2744389" lon="151.2900639">
  <ele>364.27</ele>
  <time>2026-09-01T19:50:29Z</time>
  <course>7.99</course>
  <speed>0.01</speed>
  <fix>3d</fix>
</trkpt>
<trkpt lat="-27.2741389" lon="151.2900639">
  <ele>364.26</ele>
  <time>2026-09-01T19:50:29Z</time>
  <course>354.89</course>
  <speed>0.01</speed>
  <fix>3d</fix>
</trkpt>
<trkpt lat="-27.2744389" lon="151.2900639">
  <ele>364.27</ele>
  <time>2026-09-01T19:50:29Z</time>
  <course>7.99</course>
  <speed>0.01</speed>
  <fix>3d</fix>
</trkpt>
<trkpt lat="-27.2741389" lon="151.2900639">
  <ele>364.26</ele>
  <time>2026-09-01T19:50:29Z</time>
  <course>354.89</course>
  <speed>0.01</speed>
  <fix>3d</fix>
</trkpt>
<trkpt lat="-27.2744389" lon="151.2900639">
  <ele>364.27</ele>
  <time>2026-09-01T19:50:29Z</time>
  <course>7.99</course>
  <speed>0.01</speed>
  <fix>3d</fix>
</trkpt>
<trkpt lat="-27.2741388" lon="151.2900639">
  <ele>364.26</ele>
  <time>2026-09-01T19:50:29Z</time>
  <course>358.67</course>
  <speed>0.01</speed>
  <fix>3d</fix>
</trkpt>
<trkpt lat="-27.2744389" lon="151.2900639">
  <ele>364.27</ele>
  <time>2026-09-01T19:50:29Z</time>
  <course>7.99</course>
  <speed>0.0</speed>
  <fix>3d</fix>
</trkpt>
<trkpt lat="-27.2741388" lon="151.2900639">
  <ele>364.26</ele>
  <time>2026-09-01T19:50:29Z</time>
  <course>358.67</course>
  <speed>0.01</speed>
  <fix>3d</fix>
</trkpt>
<trkpt lat="-27.2744389" lon="151.2900639">
  <ele>364.27</ele>
  <time>2026-09-01T19:50:29Z</time>
  <course>7.99</course>
  <speed>0.0</speed>
  <fix>3d</fix>
</trkpt>
<trkpt lat="-27.2741388" lon="151.2900639">
  <ele>364.27</ele>
  <time>2026-09-01T19:50:29Z</time>
  <course>5.26</course>
  <speed>0.01</speed>
  <fix>3d</fix>
</trkpt>
<trkpt lat="-27.2744389" lon="151.2900639">
  <ele>364.26</ele>
  <time>2026-09-01T19:50:29Z</time>
  <course>7.99</course>
  <speed>0.0</speed>
  <fix>3d</fix>
</trkpt>
<trkpt lat="-27.2741388" lon="151.2900639">
  <ele>364.27</ele>
  <time>2026-09-01T19:50:29Z</time>
  <course>5.26</course>
  <speed>0.01</speed>
  <fix>3d</fix>
</trkpt>
<trkpt lat="-27.2744389" lon="151.2900639">
  <ele>364.26</ele>
  <time>2026-09-01T19:50:29Z</time>
  <course>7.99</course>
  <speed>0.0</speed>
  <fix>3d</fix>
</trkpt>
<trkpt lat="-27.2741388" lon="151.2900639">
  <ele>364.26</ele>
  <time>2026-09-01T19:50:29Z</time>
  <course>15.03</course>
  <speed>0.0</speed>
  <fix>3d</fix>
</trkpt>
<trkpt lat="-27.2744389" lon="151.2900639">
  <ele>364.26</ele>
  <time>2026-09-01T19:50:29Z</time>
  <course>7.99</course>
  <speed>0.0</speed>
  <fix>3d</fix>
</trkpt>
<trkpt lat="-27.2741388" lon="151.2900639">
  <ele>364.26</ele>
  <time>2026-09-01T19:50:29Z</time>
  <course>15.03</course>
  <speed>0.0</speed>
  <fix>3d</fix>
</trkpt>
<trkpt lat="-27.2744389" lon="151.2900639">
  <ele>364.26</ele>
  <time>2026-09-01T19:50:29Z</time>
  <course>7.99</course>
  <speed>0.0</speed>
  <fix>3d</fix>
</trkpt>
<trkpt lat="-27.2741388" lon="151.2900639">
  <ele>364.26</ele>
  <time>2026-09-01T19:50:29Z</time>
  <course>28.17</course>
  <speed>0.0</speed>
  <fix>3d</fix>
</trkpt>
<trkpt lat="-27.2744389" lon="151.2900639">
  <ele>364.26</ele>
  <time>2026-09-01T19:50:29Z</time>
  <course>7.99</course>
  <speed>0.0</speed>
  <fix>3d</fix>
</trkpt>
<trkpt lat="-27.2741388" lon="151.2900639">
  <ele>364.26</ele>
  <time>2026-09-01T19:50:29Z</time>
  <course>28.17</course>
  <speed>0.0</speed>
  <fix>3d</fix>
</trkpt>
<trkpt lat="-27.2744389" lon="151.2900639">
  <ele>364.26</ele>
  <time>2026-09-01T19:50:29Z</time>
  <course>7.99</course>
  <speed>0.0</speed>
  <fix>3d</fix>
</trkpt>
<trkpt lat="-27.2741388" lon="151.2900639">
  <ele>364.26</ele>
  <time>2026-09-01T19:50:29Z</time>
  <course>49.77</course>
  <speed>0.0</speed>
  <fix>3d</fix>
</trkpt>
<trkpt lat="-27.2744389" lon="151.2900639">
  <ele>364.26</ele>
  <time>2026-09-01T19:50:29Z</time>
  <course>7.99</course>
  <speed>0.0</speed>
  <fix>3d</fix>
</trkpt>
<trkpt lat="-27.2741388" lon="151.2900639">
  <ele>364.26</ele>
  <time>2026-09-01T19:50:29Z</time>
  <course>49.77</course>
  <speed>0.0</speed>
  <fix>3d</fix>
</trkpt>
<trkpt lat="-27.2744389" lon="151.2900639">
  <ele>364.26</ele>
  <time>2026-09-01T19:50:29Z</time>
  <course>7.99</course>
  <speed>0.0</speed>
  <fix>3d</fix>
</trkpt>
<trkpt lat="-27.2741388" lon="151.2900639">
  <ele>364.26</ele>
  <time>2026-09-01T19:50:29Z</time>
  <course>79.54</course>
  <speed>0.0</speed>
  <fix>3d</fix>
</trkpt>
<trkpt lat="-27.2744389" lon="151.2900639">
  <ele>364.26</ele>
  <time>2026-09-01T19:50:29Z</time>
  <course>7.99</course>
  <speed>0.0</speed>
  <fix>3d</fix>
</trkpt>
<trkpt lat="-27.2741388" lon="151.2900639">
  <ele>364.26</ele>
  <time>2026-09-01T19:50:29Z</time>
  <course>79.54</course>
  <speed>0.0</speed>
  <fix>3d</fix>
</trkpt>
<trkpt lat="-27.2744389" lon="151.2900639">
  <ele>364.26</ele>
  <time>2026-09-01T19:50:29Z</time>
  <course>7.99</course>
  <speed>0.0</speed>
  <fix>3d</fix>
</trkpt>
<trkpt lat="-27.2741388" lon="151.2900639">
  <ele>364.26</ele>
  <time>2026-09-01T19:50:29Z</time>
  <course>103.25</course>
  <speed>0.0</speed>
  <fix>3d</fix>
</trkpt>
<trkpt lat="-27.2744389" lon="151.2900639">
  <ele>364.26</ele>
  <time>2026-09-01T19:50:29Z</time>
  <course>7.99</course>
  <speed>0.0</speed>
  <fix>3d</fix>
</trkpt>
<trkpt lat="-27.2741388" lon="151.2900639">
  <ele>364.26</ele>
  <time>2026-09-01T19:50:29Z</time>
  <course>103.25</course>
  <speed>0.0</speed>
  <fix>3d</fix>
</trkpt>
<trkpt lat="-27.2744389" lon="151.2900639">
  <ele>364.26</ele>
  <time>2026-09-01T19:50:29Z</time>
  <course>7.99</course>
  <speed>0.0</speed>
  <fix>3d</fix>
</trkpt>
<trkpt lat="-27.2741388" lon="151.2900639">
  <ele>364.26</ele>
  <time>2026-09-01T19:50:29Z</time>
  <course>116.04</course>
  <speed>0.0</speed>
  <fix>3d</fix>
</trkpt>
<trkpt lat="-27.2744389" lon="151.2900639">
  <ele>364.26</ele>
  <time>2026-09-01T19:50:29Z</time>
  <course>7.99</course>
  <speed>0.0</speed>
  <fix>3d</fix>
</trkpt>
<trkpt lat="-27.2741388" lon="151.2900639">
  <ele>364.26</ele>
  <time>2026-09-01T19:50:29Z</time>
  <course>116.04</course>
  <speed>0.0</speed>
  <fix>3d</fix>
</trkpt>
<trkpt lat="-27.2744389" lon="151.2900639">
  <ele>364.26</ele>
  <time>2026-09-01T19:50:29Z</time>
  <course>7.99</course>
  <speed>0.0</speed>
  <fix>3d</fix>
</trkpt>
<trkpt lat="-27.2741388" lon="151.2900639">
  <ele>364.26</ele>
  <time>2026-09-01T19:50:29Z</time>
  <course>123.14</course>
  <speed>0.0</speed>
  <fix>3d</fix>
</trkpt>
<trkpt lat="-27.2744389" lon="151.2900639">
  <ele>364.26</ele>
  <time>2026-09-01T19:50:29Z</time>
  <course>7.99</course>
  <speed>0.0</speed>
  <fix>3d</fix>
</trkpt>
<trkpt lat="-27.2741388" lon="151.2900639">
  <ele>364.26</ele>
  <time>2026-09-01T19:50:29Z</time>
  <course>123.14</course>
  <speed>0.0</speed>
  <fix>3d</fix>
</trkpt>
<trkpt lat="-27.2744389" lon="151.2900639">
  <ele>364.26</ele>
  <time>2026-09-01T19:50:29Z</time>
  <course>7.99</course>
  <speed>0.0</speed>
  <fix>3d</fix>
</trkpt>
<trkpt lat="-27.2741388" lon="151.2900639">
  <ele>364.26</ele>
  <time>2026-09-01T19:50:29Z</time>
  <course>127.65</course>
  <speed>0.0</speed>
  <fix>3d</fix>
</trkpt>
<trkpt lat="-27.2744389" lon="151.2900639">
  <ele>364.26</ele>
  <time>2026-09-01T19:50:29Z</time>
  <course>7.99</course>
  <speed>0.0</speed>
  <fix>3d</fix>
</trkpt>
<trkpt lat="-27.2741388" lon="151.2900639">
  <ele>364.26</ele>
  <time>2026-09-01T19:50:29Z</time>
  <course>127.65</course>
  <speed>0.0</speed>
  <fix>3d</fix>
</trkpt>
<trkpt lat="-27.2744389" lon="151.2900639">
  <ele>364.26</ele>
  <time>2026-09-01T19:50:29Z</time>
  <course>7.99</course>
  <speed>0.0</speed>
  <fix>3d</fix>
</trkpt>
<trkpt lat="-27.2741388" lon="151.2900639">
  <ele>364.26</ele>
  <time>2026-09-01T19:50:29Z</time>
  <course>130.82</course>
  <speed>0.0</speed>
  <fix>3d</fix>
</trkpt>
<trkpt lat="-27.2744389" lon="151.2900639">
  <ele>364.26</ele>
  <time>2026-09-01T19:50:29Z</time>
  <course>7.99</course>
  <speed>0.0</speed>
  <fix>3d</fix>
</trkpt>
<trkpt lat="-27.2741388" lon="151.2900639">
  <ele>364.26</ele>
  <time>2026-09-01T19:50:29Z</time>
  <course>130.82</course>
  <speed>0.0</speed>
  <fix>3d</fix>
</trkpt>
<trkpt lat="-27.2744389" lon="151.2900639">
  <ele>364.26</ele>
  <time>2026-09-01T19:50:29Z</time>
  <course>7.99</course>
  <speed>0.0</speed>
  <fix>3d</fix>
</trkpt>
<trkpt lat="-27.2741388" lon="151.2900639">
  <ele>364.26</ele>
  <time>2026-09-01T19:50:29Z</time>
  <course>133.19</course>
  <speed>0.0</speed>
  <fix>3d</fix>
</trkpt>
<trkpt lat="-27.2744389" lon="151.2900639">
  <ele>364.26</ele>
  <time>2026-09-01T19:50:29Z</time>
  <course>7.99</course>
  <speed>0.0</speed>
  <fix>3d</fix>
</trkpt>
<trkpt lat="-27.2741388" lon="151.2900639">
  <ele>364.26</ele>
  <time>2026-09-01T19:50:29Z</time>
  <course>133.19</course>
  <speed>0.0</speed>
  <fix>3d</fix>
</trkpt>
<trkpt lat="-27.2744389" lon="151.2900639">
  <ele>364.26</ele>
  <time>2026-09-01T19:50:29Z</time>
  <course>7.99</course>
  <speed>0.0</speed>
  <fix>3d</fix>
</trkpt>
<trkpt lat="-27.2741388" lon="151.2900639">
  <ele>364.26</ele>
  <time>2026-09-01T19:50:29Z</time>
  <course>134.99</course>
  <speed>0.0</speed>
  <fix>3d</fix>
</trkpt>
<trkpt lat="-27.2744389" lon="151.290064">
  <ele>364.26</ele>
  <time>2026-09-01T19:50:29Z</time>
  <course>7.99</course>
  <speed>0.0</speed>
  <fix>3d</fix>
</trkpt>
<trkpt lat="-27.2741388" lon="151.2900639">
  <ele>364.26</ele>
  <time>2026-09-01T19:50:29Z</time>
  <course>134.99</course>
  <speed>0.0</speed>
  <fix>3d</fix>
</trkpt>
<trkpt lat="-27.2744389" lon="151.290064">
  <ele>364.26</ele>
  <time>2026-09-01T19:50:29Z</time>
  <course>7.99</course>
  <speed>0.0</speed>
  <fix>3d</fix>
</trkpt>
<trkpt lat="-27.2741388" lon="151.2900639">
  <ele>364.26</ele>
  <time>2026-09-01T19:50:29Z</time>
  <course>136.14</course>
  <speed>0.01</speed>
  <fix>3d</fix>
</trkpt>
<trkpt lat="-27.2744389" lon="151.290064">
  <ele>364.26</ele>
  <time>2026-09-01T19:50:29Z</time>
  <course>7.99</course>
  <speed>0.0</speed>
  <fix>3d</fix>
</trkpt>
<trkpt lat="-27.2741388" lon="151.2900639">
  <ele>364.26</ele>
  <time>2026-09-01T19:50:29Z</time>
  <course>136.14</course>
  <speed>0.01</speed>
  <fix>3d</fix>
</trkpt>
<trkpt lat="-27.2744389" lon="151.290064">
  <ele>364.26</ele>
  <time>2026-09-01T19:50:29Z</time>
  <course>7.99</course>
  <speed>0.0</speed>
  <fix>3d</fix>
</trkpt>
<trkpt lat="-27.2741388" lon="151.290064">
  <ele>364.26</ele>
  <time>2026-09-01T19:50:29Z</time>
  <course>137.46</course>
  <speed>0.01</speed>
  <fix>3d</fix>
</trkpt>
<trkpt lat="-27.2744389" lon="151.290064">
  <ele>364.26</ele>
  <time>2026-09-01T19:50:29Z</time>
  <course>7.99</course>
  <speed>0.0</speed>
  <fix>3d</fix>
</trkpt>
<trkpt lat="-27.2741388" lon="151.290064">
  <ele>364.26</ele>
  <time>2026-09-01T19:50:29Z</time>
  <course>137.46</course>
  <speed>0.01</speed>
  <fix>3d</fix>
</trkpt>
<trkpt lat="-27.2744389" lon="151.290064">
  <ele>364.26</ele>
  <time>2026-09-01T19:50:29Z</time>
  <course>7.99</course>
  <speed>0.0</speed>
  <fix>3d</fix>
</trkpt>
<trkpt lat="-27.2741388" lon="151.290064">
  <ele>364.26</ele>
  <time>2026-09-01T19:50:29Z</time>
  <course>139.97</course>
  <speed>0.01</speed>
  <fix>3d</fix>
</trkpt>
<trkpt lat="-27.2744389" lon="151.290064">
  <ele>364.26</ele>
  <time>2026-09-01T19:50:29Z</time>
  <course>7.99</course>
  <speed>0.0</speed>
  <fix>3d</fix>
</trkpt>
<trkpt lat="-27.2741388" lon="151.290064">
  <ele>364.26</ele>
  <time>2026-09-01T19:50:29Z</time>
  <course>139.97</course>
  <speed>0.01</speed>
  <fix>3d</fix>
</trkpt>
<trkpt lat="-27.2744389" lon="151.290064">
  <ele>364.26</ele>
  <time>2026-09-01T19:50:29Z</time>
  <course>7.99</course>
  <speed>0.0</speed>
  <fix>3d</fix>
</trkpt>
<trkpt lat="-27.2741388" lon="151.290064">
  <ele>364.26</ele>
  <time>2026-09-01T19:50:29Z</time>
  <course>143.11</course>
  <speed>0.01</speed>
  <fix>3d</fix>
</trkpt>
<trkpt lat="-27.2744389" lon="151.290064">
  <ele>364.26</ele>
  <time>2026-09-01T19:50:29Z</time>
  <course>7.99</course>
  <speed>0.0</speed>
  <fix>3d</fix>
</trkpt>
<trkpt lat="-27.2741388" lon="151.290064">
  <ele>364.26</ele>
  <time>2026-09-01T19:50:29Z</time>
  <course>143.11</course>
  <speed>0.01</speed>
  <fix>3d</fix>
</trkpt>
<trkpt lat="-27.2744389" lon="151.290064">
  <ele>364.26</ele>
  <time>2026-09-01T19:50:29Z</time>
  <course>7.99</course>
  <speed>0.0</speed>
  <fix>3d</fix>
</trkpt>
<trkpt lat="-27.2741388" lon="151.290064">
  <ele>364.26</ele>
  <time>2026-09-01T19:50:29Z</time>
  <course>145.92</course>
  <speed>0.01</speed>
  <fix>3d</fix>
</trkpt>
<trkpt lat="-27.2744389" lon="151.290064">
  <ele>364.26</ele>
  <time>2026-09-01T19:50:29Z</time>
  <course>7.99</course>
  <speed>0.0</speed>
  <fix>3d</fix>
</trkpt>
<trkpt lat="-27.2741388" lon="151.290064">
  <ele>364.26</ele>
  <time>2026-09-01T19:50:29Z</time>
  <course>145.92</course>
  <speed>0.01</speed>
  <fix>3d</fix>
</trkpt>
<trkpt lat="-27.2744389" lon="151.290064">
  <ele>364.26</ele>
  <time>2026-09-01T19:50:29Z</time>
  <course>7.99</course>
  <speed>0.0</speed>
  <fix>3d</fix>
</trkpt>
<trkpt lat="-27.2741388" lon="151.290064">
  <ele>364.26</ele>
  <time>2026-09-01T19:50:29Z</time>
  <course>148.27</course>
  <speed>0.01</speed>
  <fix>3d</fix>
</trkpt>
<trkpt lat="-27.2744389" lon="151.290064">
  <ele>364.26</ele>
  <time>2026-09-01T19:50:29Z</time>
  <course>7.99</course>
  <speed>0.0</speed>
  <fix>3d</fix>
</trkpt>
<trkpt lat="-27.2741388" lon="151.290064">
  <ele>364.26</ele>
  <time>2026-09-01T19:50:29Z</time>
  <course>148.27</course>
  <speed>0.01</speed>
  <fix>3d</fix>
</trkpt>
<trkpt lat="-27.2744389" lon="151.290064">
  <ele>364.26</ele>
  <time>2026-09-01T19:50:29Z</time>
  <course>7.99</course>
  <speed>0.0</speed>
  <fix>3d</fix>
</trkpt>
<trkpt lat="-27.2741388" lon="151.290064">
  <ele>364.26</ele>
  <time>2026-09-01T19:50:29Z</time>
  <course>150.11</course>
  <speed>0.01</speed>
  <fix>3d</fix>
</trkpt>
<trkpt lat="-27.2744389" lon="151.290064">
  <ele>364.26</ele>
  <time>2026-09-01T19:50:29Z</time>
  <course>7.99</course>
  <speed>0.0</speed>
  <fix>3d</fix>
</trkpt>
<trkpt lat="-27.2741388" lon="151.290064">
  <ele>364.26</ele>
  <time>2026-09-01T19:50:29Z</time>
  <course>150.11</course>
  <speed>0.01</speed>
  <fix>3d</fix>
</trkpt>
<trkpt lat="-27.2744389" lon="151.290064">
  <ele>364.26</ele>
  <time>2026-09-01T19:50:29Z</time>
  <course>7.99</course>
  <speed>0.0</speed>
  <fix>3d</fix>
</trkpt>
<trkpt lat="-27.2741388" lon="151.290064">
  <ele>364.26</ele>
  <time>2026-09-01T19:50:29Z</time>
  <course>151.6</course>
  <speed>0.01</speed>
  <fix>3d</fix>
</trkpt>
<trkpt lat="-27.274439" lon="151.290064">
  <ele>364.26</ele>
  <time>2026-09-01T19:50:29Z</time>
  <course>7.99</course>
  <speed>0.0</speed>
  <fix>3d</fix>
</trkpt>
<trkpt lat="-27.2741388" lon="151.290064">
  <ele>364.26</ele>
  <time>2026-09-01T19:50:29Z</time>
  <course>151.6</course>
  <speed>0.01</speed>
  <fix>3d</fix>
</trkpt>
<trkpt lat="-27.274439" lon="151.2900641">
  <ele>364.26</ele>
  <time>2026-09-01T19:50:29Z</time>
  <course>7.98</course>
  <speed>0.0</speed>
  <fix>3d</fix>
</trkpt>
<trkpt lat="-27.2741389" lon="151.290064">
  <ele>364.26</ele>
  <time>2026-09-01T19:50:29Z</time>
  <course>153.05</course>
  <speed>0.01</speed>
  <fix>3d</fix>
</trkpt>
<trkpt lat="-27.274439" lon="151.2900641">
  <ele>364.26</ele>
  <time>2026-09-01T19:50:29Z</time>
  <course>7.99</course>
  <speed>0.0</speed>
  <fix>3d</fix>
</trkpt>
<trkpt lat="-27.2741389" lon="151.290064">
  <ele>364.26</ele>
  <time>2026-09-01T19:50:29Z</time>
  <course>153.05</course>
  <speed>0.01</speed>
  <fix>3d</fix>
</trkpt>
<trkpt lat="-27.274439" lon="151.2900641">
  <ele>364.26</ele>
  <time>2026-09-01T19:50:29Z</time>
  <course>7.99</course>
  <speed>0.0</speed>
  <fix>3d</fix>
</trkpt>
<trkpt lat="-27.2741389" lon="151.290064">
  <ele>364.26</ele>
  <time>2026-09-01T19:50:29Z</time>
  <course>154.27</course>
  <speed>0.0</speed>
  <fix>3d</fix>
</trkpt>
<trkpt lat="-27.274439" lon="151.2900641">
  <ele>364.26</ele>
  <time>2026-09-01T19:50:29Z</time>
  <course>7.99</course>
  <speed>0.0</speed>
  <fix>3d</fix>
</trkpt>
<trkpt lat="-27.2741389" lon="151.290064">
  <ele>364.26</ele>
  <time>2026-09-01T19:50:29Z</time>
  <course>154.27</course>
  <speed>0.0</speed>
  <fix>3d</fix>
</trkpt>
<trkpt lat="-27.274439" lon="151.2900641">
  <ele>364.26</ele>
  <time>2026-09-01T19:50:29Z</time>
  <course>7.99</course>
  <speed>0.0</speed>
  <fix>3d</fix>
</trkpt>
<trkpt lat="-27.2741389" lon="151.2900641">
  <ele>364.26</ele>
  <time>2026-09-01T19:50:29Z</time>
  <course>156.79</course>
  <speed>0.0</speed>
  <fix>3d</fix>
</trkpt>
<trkpt lat="-27.274439" lon="151.2900641">
  <ele>364.26</ele>
  <time>2026-09-01T19:50:29Z</time>
  <course>7.99</course>
  <speed>0.0</speed>
  <fix>3d</fix>
</trkpt>
<trkpt lat="-27.2741389" lon="151.2900641">
  <ele>364.26</ele>
  <time>2026-09-01T19:50:29Z</time>
  <course>156.79</course>
  <speed>0.0</speed>
  <fix>3d</fix>
</trkpt>
<trkpt lat="-27.274439" lon="151.2900641">
  <ele>364.26</ele>
  <time>2026-09-01T19:50:29Z</time>
  <course>7.99</course>
  <speed>0.0</speed>
  <fix>3d</fix>
</trkpt>
<trkpt lat="-27.2741389" lon="151.2900641">
  <ele>364.26</ele>
  <time>2026-09-01T19:50:29Z</time>
  <course>162.45</course>
  <speed>0.0</speed>
  <fix>3d</fix>
</trkpt>
<trkpt lat="-27.274439" lon="151.2900641">
  <ele>364.26</ele>
  <time>2026-09-01T19:50:29Z</time>
  <course>7.99</course>
  <speed>0.0</speed>
  <fix>3d</fix>
</trkpt>
<trkpt lat="-27.2741389" lon="151.2900641">
  <ele>364.26</ele>
  <time>2026-09-01T19:50:29Z</time>
  <course>162.45</course>
  <speed>0.0</speed>
  <fix>3d</fix>
</trkpt>
<trkpt lat="-27.274439" lon="151.2900641">
  <ele>364.26</ele>
  <time>2026-09-01T19:50:29Z</time>
  <course>7.99</course>
  <speed>0.0</speed>
  <fix>3d</fix>
</trkpt>
<trkpt lat="-27.2741389" lon="151.2900641">
  <ele>364.26</ele>
  <time>2026-09-01T19:50:29Z</time>
  <course>170.23</course>
  <speed>0.0</speed>
  <fix>3d</fix>
</trkpt>
<trkpt lat="-27.274439" lon="151.2900641">
  <ele>364.26</ele>
  <time>2026-09-01T19:50:29Z</time>
  <course>7.99</course>
  <speed>0.0</speed>
  <fix>3d</fix>
</trkpt>
<trkpt lat="-27.2741389" lon="151.2900641">
  <ele>364.26</ele>
  <time>2026-09-01T19:50:29Z</time>
  <course>170.23</course>
  <speed>0.0</speed>
  <fix>3d</fix>
</trkpt>
<trkpt lat="-27.274439" lon="151.2900641">
  <ele>364.26</ele>
  <time>2026-09-01T19:50:29Z</time>
  <course>7.99</course>
  <speed>0.0</speed>
  <fix>3d</fix>
</trkpt>
<trkpt lat="-27.2741389" lon="151.2900641">
  <ele>364.26</ele>
  <time>2026-09-01T19:50:29Z</time>
  <course>179.29</course>
  <speed>0.0</speed>
  <fix>3d</fix>
</trkpt>
<trkpt lat="-27.274439" lon="151.2900641">
  <ele>364.26</ele>
  <time>2026-09-01T19:50:29Z</time>
  <course>7.99</course>
  <speed>0.0</speed>
  <fix>3d</fix>
</trkpt>
<trkpt lat="-27.2741389" lon="151.2900641">
  <ele>364.26</ele>
  <time>2026-09-01T19:50:29Z</time>
  <course>179.29</course>
  <speed>0.0</speed>
  <fix>3d</fix>
</trkpt>
<trkpt lat="-27.274439" lon="151.2900641">
  <ele>364.26</ele>
  <time>2026-09-01T19:50:29Z</time>
  <course>7.99</course>
  <speed>0.0</speed>
  <fix>3d</fix>
</trkpt>
<trkpt lat="-27.2741389" lon="151.2900641">
  <ele>364.26</ele>
  <time>2026-09-01T19:50:29Z</time>
  <course>189.25</course>
  <speed>0.0</speed>
  <fix>3d</fix>
</trkpt>
<trkpt lat="-27.274439" lon="151.2900641">
  <ele>364.26</ele>
  <time>2026-09-01T19:50:29Z</time>
  <course>7.99</course>
  <speed>0.0</speed>
  <fix>3d</fix>
</trkpt>
<trkpt lat="-27.2741389" lon="151.2900641">
  <ele>364.26</ele>
  <time>2026-09-01T19:50:29Z</time>
  <course>189.25</course>
  <speed>0.0</speed>
  <fix>3d</fix>
</trkpt>
<trkpt lat="-27.274439" lon="151.2900641">
  <ele>364.26</ele>
  <time>2026-09-01T19:50:29Z</time>
  <course>7.99</course>
  <speed>0.0</speed>
  <fix>3d</fix>
</trkpt>
<trkpt lat="-27.2741389" lon="151.2900641">
  <ele>364.26</ele>
  <time>2026-09-01T19:50:29Z</time>
  <course>199.87</course>
  <speed>0.0</speed>
  <fix>3d</fix>
</trkpt>
<trkpt lat="-27.2744391" lon="151.2900641">
  <ele>364.26</ele>
  <time>2026-09-01T19:50:29Z</time>
  <course>7.99</course>
  <speed>0.0</speed>
  <fix>3d</fix>
</trkpt>
<trkpt lat="-27.2741389" lon="151.2900641">
  <ele>364.26</ele>
  <time>2026-09-01T19:50:29Z</time>
  <course>199.87</course>
  <speed>0.0</speed>
  <fix>3d</fix>
</trkpt>
<trkpt lat="-27.2744391" lon="151.2900641">
  <ele>364.26</ele>
  <time>2026-09-01T19:50:29Z</time>
  <course>7.99</course>
  <speed>0.0</speed>
  <fix>3d</fix>
</trkpt>
<trkpt lat="-27.274139" lon="151.2900641">
  <ele>364.26</ele>
  <time>2026-09-01T19:50:29Z</time>
  <course>210.12</course>
  <speed>0.0</speed>
  <fix>3d</fix>
</trkpt>
<trkpt lat="-27.2744391" lon="151.2900641">
  <ele>364.26</ele>
  <time>2026-09-01T19:50:29Z</time>
  <course>7.99</course>
  <speed>0.0</speed>
  <fix>3d</fix>
</trkpt>
<trkpt lat="-27.274139" lon="151.2900641">
  <ele>364.26</ele>
  <time>2026-09-01T19:50:29Z</time>
  <course>210.12</course>
  <speed>0.0</speed>
  <fix>3d</fix>
</trkpt>
<trkpt lat="-27.2744391" lon="151.2900641">
  <ele>364.26</ele>
  <time>2026-09-01T19:50:29Z</time>
  <course>7.99</course>
  <speed>0.0</speed>
  <fix>3d</fix>
</trkpt>
<trkpt lat="-27.274139" lon="151.2900641">
  <ele>364.26</ele>
  <time>2026-09-01T19:50:29Z</time>
  <course>220.48</course>
  <speed>0.0</speed>
  <fix>3d</fix>
</trkpt>
<trkpt lat="-27.2744391" lon="151.2900641">
  <ele>364.26</ele>
  <time>2026-09-01T19:50:29Z</time>
  <course>7.99</course>
  <speed>0.0</speed>
  <fix>3d</fix>
</trkpt>
<trkpt lat="-27.274139" lon="151.2900641">
  <ele>364.26</ele>
  <time>2026-09-01T19:50:29Z</time>
  <course>220.48</course>
  <speed>0.0</speed>
  <fix>3d</fix>
</trkpt>
<trkpt lat="-27.2744391" lon="151.2900641">
  <ele>364.26</ele>
  <time>2026-09-01T19:50:29Z</time>
  <course>7.99</course>
  <speed>0.0</speed>
  <fix>3d</fix>
</trkpt>
<trkpt lat="-27.274139" lon="151.2900641">
  <ele>364.26</ele>
  <time>2026-09-01T19:50:29Z</time>
  <course>235.59</course>
  <speed>0.0</speed>
  <fix>3d</fix>
</trkpt>
<trkpt lat="-27.2744391" lon="151.2900641">
  <ele>364.26</ele>
  <time>2026-09-01T19:50:29Z</time>
  <course>7.99</course>
  <speed>0.0</speed>
  <fix>3d</fix>
</trkpt>
<trkpt lat="-27.274139" lon="151.2900641">
  <ele>364.26</ele>
  <time>2026-09-01T19:50:29Z</time>
  <course>235.59</course>
  <speed>0.0</speed>
  <fix>3d</fix>
</trkpt>
<trkpt lat="-27.2744391" lon="151.2900641">
  <ele>364.26</ele>
  <time>2026-09-01T19:50:29Z</time>
  <course>7.99</course>
  <speed>0.0</speed>
  <fix>3d</fix>
</trkpt>
<trkpt lat="-27.274139" lon="151.2900641">
  <ele>364.26</ele>
  <time>2026-09-01T19:50:29Z</time>
  <course>254.1</course>
  <speed>0.0</speed>
  <fix>3d</fix>
</trkpt>
<trkpt lat="-27.2744391" lon="151.2900641">
  <ele>364.26</ele>
  <time>2026-09-01T19:50:29Z</time>
  <course>7.99</course>
  <speed>0.0</speed>
  <fix>3d</fix>
</trkpt>
<trkpt lat="-27.274139" lon="151.2900641">
  <ele>364.26</ele>
  <time>2026-09-01T19:50:29Z</time>
  <course>254.1</course>
  <speed>0.0</speed>
  <fix>3d</fix>
</trkpt>
<trkpt lat="-27.2744391" lon="151.2900641">
  <ele>364.26</ele>
  <time>2026-09-01T19:50:29Z</time>
  <course>7.99</course>
  <speed>0.0</speed>
  <fix>3d</fix>
</trkpt>
<trkpt lat="-27.274139" lon="151.2900641">
  <ele>364.26</ele>
  <time>2026-09-01T19:50:29Z</time>
  <course>269.76</course>
  <speed>0.0</speed>
  <fix>3d</fix>
</trkpt>
<trkpt lat="-27.2744391" lon="151.2900641">
  <ele>364.26</ele>
  <time>2026-09-01T19:50:29Z</time>
  <course>7.99</course>
  <speed>0.0</speed>
  <fix>3d</fix>
</trkpt>
<trkpt lat="-27.274139" lon="151.2900641">
  <ele>364.26</ele>
  <time>2026-09-01T19:50:29Z</time>
  <course>269.76</course>
  <speed>0.0</speed>
  <fix>3d</fix>
</trkpt>
<trkpt lat="-27.2744391" lon="151.2900641">
  <ele>364.26</ele>
  <time>2026-09-01T19:50:29Z</time>
  <course>7.99</course>
  <speed>0.0</speed>
  <fix>3d</fix>
</trkpt>
<trkpt lat="-27.274139" lon="151.2900641">
  <ele>364.26</ele>
  <time>2026-09-01T19:50:29Z</time>
  <course>281.68</course>
  <speed>0.0</speed>
  <fix>3d</fix>
</trkpt>
<trkpt lat="-27.2744391" lon="151.2900641">
  <ele>364.26</ele>
  <time>2026-09-01T19:50:29Z</time>
  <course>7.99</course>
  <speed>0.0</speed>
  <fix>3d</fix>
</trkpt>
<trkpt lat="-27.274139" lon="151.2900641">
  <ele>364.26</ele>
  <time>2026-09-01T19:50:29Z</time>
  <course>281.68</course>
  <speed>0.0</speed>
  <fix>3d</fix>
</trkpt>
<trkpt lat="-27.2744391" lon="151.2900641">
  <ele>364.26</ele>
  <time>2026-09-01T19:50:29Z</time>
  <course>7.99</course>
  <speed>0.0</speed>
  <fix>3d</fix>
</trkpt>
<trkpt lat="-27.274139" lon="151.2900641">
  <ele>364.26</ele>
  <time>2026-09-01T19:50:29Z</time>
  <course>289.75</course>
  <speed>0.0</speed>
  <fix>3d</fix>
</trkpt>
<trkpt lat="-27.2744391" lon="151.2900641">
  <ele>364.26</ele>
  <time>2026-09-01T19:50:29Z</time>
  <course>7.99</course>
  <speed>0.0</speed>
  <fix>3d</fix>
</trkpt>
<trkpt lat="-27.274139" lon="151.2900641">
  <ele>364.26</ele>
  <time>2026-09-01T19:50:29Z</time>
  <course>289.75</course>
  <speed>0.0</speed>
  <fix>3d</fix>
</trkpt>
<trkpt lat="-27.2744391" lon="151.2900641">
  <ele>364.26</ele>
  <time>2026-09-01T19:50:29Z</time>
  <course>7.99</course>
  <speed>0.0</speed>
  <fix>3d</fix>
</trkpt>
<trkpt lat="-27.274139" lon="151.2900641">
  <ele>364.26</ele>
  <time>2026-09-01T19:50:29Z</time>
  <course>295.18</course>
  <speed>0.0</speed>
  <fix>3d</fix>
</trkpt>
<trkpt lat="-27.2744391" lon="151.2900641">
  <ele>364.26</ele>
  <time>2026-09-01T19:50:29Z</time>
  <course>7.99</course>
  <speed>0.0</speed>
  <fix>3d</fix>
</trkpt>
<trkpt lat="-27.274139" lon="151.2900641">
  <ele>364.26</ele>
  <time>2026-09-01T19:50:29Z</time>
  <course>295.18</course>
  <speed>0.0</speed>
  <fix>3d</fix>
</trkpt>
<trkpt lat="-27.2744391" lon="151.2900641">
  <ele>364.26</ele>
  <time>2026-09-01T19:50:29Z</time>
  <course>7.99</course>
  <speed>0.0</speed>
  <fix>3d</fix>
</trkpt>
<trkpt lat="-27.274139" lon="151.2900641">
  <ele>364.26</ele>
  <time>2026-09-01T19:50:29Z</time>
  <course>299.58</course>
  <speed>0.0</speed>
  <fix>3d</fix>
</trkpt>
<trkpt lat="-27.2744391" lon="151.2900641">
  <ele>364.26</ele>
  <time>2026-09-01T19:50:29Z</time>
  <course>7.99</course>
  <speed>0.0</speed>
  <fix>3d</fix>
</trkpt>
<trkpt lat="-27.274139" lon="151.2900641">
  <ele>364.26</ele>
  <time>2026-09-01T19:50:29Z</time>
  <course>299.58</course>
  <speed>0.0</speed>
  <fix>3d</fix>
</trkpt>
<trkpt lat="-27.2744391" lon="151.290064">
  <ele>364.26</ele>
  <time>2026-09-01T19:50:29Z</time>
  <course>7.99</course>
  <speed>0.0</speed>
  <fix>3d</fix>
</trkpt>
<trkpt lat="-27.274139" lon="151.2900641">
  <ele>364.26</ele>
  <time>2026-09-01T19:50:29Z</time>
  <course>303.28</course>
  <speed>0.0</speed>
  <fix>3d</fix>
</trkpt>
<trkpt lat="-27.2744391" lon="151.290064">
  <ele>364.26</ele>
  <time>2026-09-01T19:50:29Z</time>
  <course>7.99</course>
  <speed>0.0</speed>
  <fix>3d</fix>
</trkpt>
<trkpt lat="-27.274139" lon="151.2900641">
  <ele>364.26</ele>
  <time>2026-09-01T19:50:29Z</time>
  <course>303.28</course>
  <speed>0.0</speed>
  <fix>3d</fix>
</trkpt>
<trkpt lat="-27.2744391" lon="151.290064">
  <ele>364.26</ele>
  <time>2026-09-01T19:50:29Z</time>
  <course>7.99</course>
  <speed>0.0</speed>
  <fix>3d</fix>
</trkpt>
<trkpt lat="-27.274139" lon="151.290064">
  <ele>364.26</ele>
  <time>2026-09-01T19:50:29Z</time>
  <course>306.52</course>
  <speed>0.0</speed>
  <fix>3d</fix>
</trkpt>
<trkpt lat="-27.2744391" lon="151.290064">
  <ele>364.26</ele>
  <time>2026-09-01T19:50:29Z</time>
  <course>7.99</course>
  <speed>0.0</speed>
  <fix>3d</fix>
</trkpt>
<trkpt lat="-27.274139" lon="151.290064">
  <ele>364.26</ele>
  <time>2026-09-01T19:50:29Z</time>
  <course>306.52</course>
  <speed>0.0</speed>
  <fix>3d</fix>
</trkpt>
<trkpt lat="-27.2744391" lon="151.290064">
  <ele>364.25</ele>
  <time>2026-09-01T19:50:29Z</time>
  <course>7.99</course>
  <speed>0.0</speed>
  <fix>3d</fix>
</trkpt>
<trkpt lat="-27.274139" lon="151.290064">
  <ele>364.26</ele>
  <time>2026-09-01T19:50:29Z</time>
  <course>310.19</course>
  <speed>0.0</speed>
  <fix>3d</fix>
</trkpt>
<trkpt lat="-27.2744391" lon="151.290064">
  <ele>364.25</ele>
  <time>2026-09-01T19:50:29Z</time>
  <course>7.99</course>
  <speed>0.0</speed>
  <fix>3d</fix>
</trkpt>
<trkpt lat="-27.274139" lon="151.290064">
  <ele>364.26</ele>
  <time>2026-09-01T19:50:29Z</time>
  <course>310.19</course>
  <speed>0.0</speed>
  <fix>3d</fix>
</trkpt>
<trkpt lat="-27.2744391" lon="151.290064">
  <ele>364.25</ele>
  <time>2026-09-01T19:50:29Z</time>
  <course>7.99</course>
  <speed>0.0</speed>
  <fix>3d</fix>
</trkpt>
<trkpt lat="-27.274139" lon="151.290064">
  <ele>364.25</ele>
  <time>2026-09-01T19:50:29Z</time>
  <course>314.45</course>
  <speed>0.0</speed>
  <fix>3d</fix>
</trkpt>
<trkpt lat="-27.2744391" lon="151.290064">
  <ele>364.25</ele>
  <time>2026-09-01T19:50:29Z</time>
  <course>7.99</course>
  <speed>0.0</speed>
  <fix>3d</fix>
</trkpt>
<trkpt lat="-27.274139" lon="151.290064">
  <ele>364.25</ele>
  <time>2026-09-01T19:50:29Z</time>
  <course>314.45</course>
  <speed>0.0</speed>
  <fix>3d</fix>
</trkpt>
<trkpt lat="-27.2744391" lon="151.290064">
  <ele>364.25</ele>
  <time>2026-09-01T19:50:29Z</time>
  <course>7.99</course>
  <speed>0.0</speed>
  <fix>3d</fix>
</trkpt>
<trkpt lat="-27.274139" lon="151.290064">
  <ele>364.25</ele>
  <time>2026-09-01T19:50:29Z</time>
  <course>320.56</course>
  <speed>0.0</speed>
  <fix>3d</fix>
</trkpt>
<trkpt lat="-27.2744391" lon="151.290064">
  <ele>364.26</ele>
  <time>2026-09-01T19:50:29Z</time>
  <course>7.99</course>
  <speed>0.0</speed>
  <fix>3d</fix>
</trkpt>
<trkpt lat="-27.274139" lon="151.290064">
  <ele>364.25</ele>
  <time>2026-09-01T19:50:29Z</time>
  <course>320.56</course>
  <speed>0.0</speed>
  <fix>3d</fix>
</trkpt>
<trkpt lat="-27.2744391" lon="151.290064">
  <ele>364.26</ele>
  <time>2026-09-01T19:50:29Z</time>
  <course>7.99</course>
  <speed>0.0</speed>
  <fix>3d</fix>
</trkpt>
<trkpt lat="-27.274139" lon="151.290064">
  <ele>364.25</ele>
  <time>2026-09-01T19:50:29Z</time>
  <course>328.41</course>
  <speed>0.0</speed>
  <fix>3d</fix>
</trkpt>
<trkpt lat="-27.2744391" lon="151.290064">
  <ele>364.26</ele>
  <time>2026-09-01T19:50:29Z</time>
  <course>7.99</course>
  <speed>0.0</speed>
  <fix>3d</fix>
</trkpt>
<trkpt lat="-27.274139" lon="151.290064">
  <ele>364.25</ele>
  <time>2026-09-01T19:50:29Z</time>
  <course>328.41</course>
  <speed>0.0</speed>
  <fix>3d</fix>
</trkpt>
<trkpt lat="-27.2744391" lon="151.290064">
  <ele>364.26</ele>
  <time>2026-09-01T19:50:29Z</time>
  <course>7.99</course>
  <speed>0.0</speed>
  <fix>3d</fix>
</trkpt>
<trkpt lat="-27.274139" lon="151.290064">
  <ele>364.26</ele>
  <time>2026-09-01T19:50:29Z</time>
  <course>334.04</course>
  <speed>0.0</speed>
  <fix>3d</fix>
</trkpt>
<trkpt lat="-27.274439" lon="151.290064">
  <ele>364.26</ele>
  <time>2026-09-01T19:50:29Z</time>
  <course>7.99</course>
  <speed>0.0</speed>
  <fix>3d</fix>
</trkpt>
<trkpt lat="-27.274139" lon="151.290064">
  <ele>364.26</ele>
  <time>2026-09-01T19:50:29Z</time>
  <course>334.04</course>
  <speed>0.0</speed>
  <fix>3d</fix>
</trkpt>
<trkpt lat="-27.274439" lon="151.290064">
  <ele>364.26</ele>
  <time>2026-09-01T19:50:29Z</time>
  <course>7.99</course>
  <speed>0.0</speed>
  <fix>3d</fix>
</trkpt>
<trkpt lat="-27.274139" lon="151.290064">
  <ele>364.26</ele>
  <time>2026-09-01T19:50:29Z</time>
  <course>333.68</course>
  <speed>0.0</speed>
  <fix>3d</fix>
</trkpt>
<trkpt lat="-27.274439" lon="151.290064">
  <ele>364.26</ele>
  <time>2026-09-01T19:50:29Z</time>
  <course>7.98</course>
  <speed>0.0</speed>
  <fix>3d</fix>
</trkpt>
<trkpt lat="-27.274139" lon="151.290064">
  <ele>364.26</ele>
  <time>2026-09-01T19:50:29Z</time>
  <course>333.68</course>
  <speed>0.0</speed>
  <fix>3d</fix>
</trkpt>
<trkpt lat="-27.274439" lon="151.290064">
  <ele>364.26</ele>
  <time>2026-09-01T19:50:29Z</time>
  <course>7.98</course>
  <speed>0.0</speed>
  <fix>3d</fix>
</trkpt>
<trkpt lat="-27.2741389" lon="151.290064">
  <ele>364.26</ele>
  <time>2026-09-01T19:50:29Z</time>
  <course>325.6</course>
  <speed>0.0</speed>
  <fix>3d</fix>
</trkpt>
<trkpt lat="-27.274439" lon="151.290064">
  <ele>364.26</ele>
  <time>2026-09-01T19:50:29Z</time>
  <course>7.98</course>
  <speed>0.0</speed>
  <fix>3d</fix>
</trkpt>
<trkpt lat="-27.2741389" lon="151.290064">
  <ele>364.26</ele>
  <time>2026-09-01T19:50:29Z</time>
  <course>325.6</course>
  <speed>0.0</speed>
  <fix>3d</fix>
</trkpt>
<trkpt lat="-27.274439" lon="151.2900639">
  <ele>364.26</ele>
  <time>2026-09-01T19:50:29Z</time>
  <course>7.98</course>
  <speed>0.0</speed>
  <fix>3d</fix>
</trkpt>
<trkpt lat="-27.2741389" lon="151.290064">
  <ele>364.26</ele>
  <time>2026-09-01T19:50:29Z</time>
  <course>313.98</course>
  <speed>0.0</speed>
  <fix>3d</fix>
</trkpt>
<trkpt lat="-27.274439" lon="151.2900639">
  <ele>364.26</ele>
  <time>2026-09-01T19:50:29Z</time>
  <course>7.98</course>
  <speed>0.0</speed>
  <fix>3d</fix>
</trkpt>
<trkpt lat="-27.2741389" lon="151.290064">
  <ele>364.26</ele>
  <time>2026-09-01T19:50:29Z</time>
  <course>313.98</course>
  <speed>0.0</speed>
  <fix>3d</fix>
</trkpt>
<trkpt lat="-27.274439" lon="151.2900639">
  <ele>364.26</ele>
  <time>2026-09-01T19:50:29Z</time>
  <course>7.98</course>
  <speed>0.0</speed>
  <fix>3d</fix>
</trkpt>
<trkpt lat="-27.2741389" lon="151.2900639">
  <ele>364.26</ele>
  <time>2026-09-01T19:50:29Z</time>
  <course>304.46</course>
  <speed>0.0</speed>
  <fix>3d</fix>
</trkpt>
<trkpt lat="-27.274439" lon="151.2900639">
  <ele>364.26</ele>
  <time>2026-09-01T19:50:29Z</time>
  <course>7.99</course>
  <speed>0.0</speed>
  <fix>3d</fix>
</trkpt>
<trkpt lat="-27.2741389" lon="151.2900639">
  <ele>364.26</ele>
  <time>2026-09-01T19:50:29Z</time>
  <course>304.46</course>
  <speed>0.0</speed>
  <fix>3d</fix>
</trkpt>
<trkpt lat="-27.274439" lon="151.2900639">
  <ele>364.25</ele>
  <time>2026-09-01T19:50:29Z</time>
  <course>7.99</course>
  <speed>0.0</speed>
  <fix>3d</fix>
</trkpt>
<trkpt lat="-27.2741389" lon="151.2900639">
  <ele>364.26</ele>
  <time>2026-09-01T19:50:29Z</time>
  <course>303.43</course>
  <speed>0.0</speed>
  <fix>3d</fix>
</trkpt>
<trkpt lat="-27.274439" lon="151.2900639">
  <ele>364.25</ele>
  <time>2026-09-01T19:50:29Z</time>
  <course>7.99</course>
  <speed>0.0</speed>
  <fix>3d</fix>
</trkpt>
<trkpt lat="-27.2741389" lon="151.2900639">
  <ele>364.26</ele>
  <time>2026-09-01T19:50:29Z</time>
  <course>303.43</course>
  <speed>0.0</speed>
  <fix>3d</fix>
</trkpt>
<trkpt lat="-27.274439" lon="151.2900639">
  <ele>364.25</ele>
  <time>2026-09-01T19:50:29Z</time>
  <course>7.99</course>
  <speed>0.0</speed>
  <fix>3d</fix>
</trkpt>
<trkpt lat="-27.2741389" lon="151.2900639">
  <ele>364.25</ele>
  <time>2026-09-01T19:50:29Z</time>
  <course>315.16</course>
  <speed>0.0</speed>
  <fix>3d</fix>
</trkpt>
<trkpt lat="-27.274439" lon="151.2900639">
  <ele>364.25</ele>
  <time>2026-09-01T19:50:29Z</time>
  <course>7.99</course>
  <speed>0.0</speed>
  <fix>3d</fix>
</trkpt>
<trkpt lat="-27.2741389" lon="151.2900639">
  <ele>364.25</ele>
  <time>2026-09-01T19:50:29Z</time>
  <course>315.16</course>
  <speed>0.0</speed>
  <fix>3d</fix>
</trkpt>
<trkpt lat="-27.274439" lon="151.2900639">
  <ele>364.25</ele>
  <time>2026-09-01T19:50:29Z</time>
  <course>7.98</course>
  <speed>0.0</speed>
  <fix>3d</fix>
</trkpt>
<trkpt lat="-27.2741389" lon="151.2900639">
  <ele>364.25</ele>
  <time>2026-09-01T19:50:29Z</time>
  <course>332.14</course>
  <speed>0.0</speed>
  <fix>3d</fix>
</trkpt>
<trkpt lat="-27.274439" lon="151.2900639">
  <ele>364.25</ele>
  <time>2026-09-01T19:50:29Z</time>
  <course>7.98</course>
  <speed>0.0</speed>
  <fix>3d</fix>
</trkpt>
<trkpt lat="-27.2741389" lon="151.2900639">
  <ele>364.25</ele>
  <time>2026-09-01T19:50:29Z</time>
  <course>332.14</course>
  <speed>0.0</speed>
  <fix>3d</fix>
</trkpt>
<trkpt lat="-27.274439" lon="151.2900639">
  <ele>364.25</ele>
  <time>2026-09-01T19:50:29Z</time>
  <course>7.97</course>
  <speed>0.0</speed>
  <fix>3d</fix>
</trkpt>
<trkpt lat="-27.2741389" lon="151.2900639">
  <ele>364.25</ele>
  <time>2026-09-01T19:50:29Z</time>
  <course>347.19</course>
  <speed>0.0</speed>
  <fix>3d</fix>
</trkpt>
<trkpt lat="-27.274439" lon="151.2900639">
  <ele>364.26</ele>
  <time>2026-09-01T19:50:29Z</time>
  <course>7.97</course>
  <speed>0.0</speed>
  <fix>3d</fix>
</trkpt>
<trkpt lat="-27.2741389" lon="151.2900639">
  <ele>364.25</ele>
  <time>2026-09-01T19:50:29Z</time>
  <course>347.19</course>
  <speed>0.0</speed>
  <fix>3d</fix>
</trkpt>
<trkpt lat="-27.274439" lon="151.2900639">
  <ele>364.26</ele>
  <time>2026-09-01T19:50:29Z</time>
  <course>7.98</course>
  <speed>0.0</speed>
  <fix>3d</fix>
</trkpt>
<trkpt lat="-27.2741389" lon="151.2900639">
  <ele>364.25</ele>
  <time>2026-09-01T19:50:29Z</time>
  <course>6.93</course>
  <speed>0.0</speed>
  <fix>3d</fix>
</trkpt>
<trkpt lat="-27.274439" lon="151.2900639">
  <ele>364.26</ele>
  <time>2026-09-01T19:50:29Z</time>
  <course>7.98</course>
  <speed>0.0</speed>
  <fix>3d</fix>
</trkpt>
<trkpt lat="-27.2741389" lon="151.2900639">
  <ele>364.25</ele>
  <time>2026-09-01T19:50:29Z</time>
  <course>6.93</course>
  <speed>0.0</speed>
  <fix>3d</fix>
</trkpt>
<trkpt lat="-27.274439" lon="151.2900639">
  <ele>364.26</ele>
  <time>2026-09-01T19:50:29Z</time>
  <course>7.98</course>
  <speed>0.0</speed>
  <fix>3d</fix>
</trkpt>
<trkpt lat="-27.2741389" lon="151.2900639">
  <ele>364.26</ele>
  <time>2026-09-01T19:50:29Z</time>
  <course>32.77</course>
  <speed>0.0</speed>
  <fix>3d</fix>
</trkpt>
<trkpt lat="-27.274439" lon="151.2900639">
  <ele>364.26</ele>
  <time>2026-09-01T19:50:29Z</time>
  <course>7.99</course>
  <speed>0.0</speed>
  <fix>3d</fix>
</trkpt>
<trkpt lat="-27.2741389" lon="151.2900639">
  <ele>364.26</ele>
  <time>2026-09-01T19:50:29Z</time>
  <course>32.77</course>
  <speed>0.0</speed>
  <fix>3d</fix>
</trkpt>
<trkpt lat="-27.274439" lon="151.2900639">
  <ele>364.26</ele>
  <time>2026-09-01T19:50:29Z</time>
  <course>7.99</course>
  <speed>0.0</speed>
  <fix>3d</fix>
</trkpt>
<trkpt lat="-27.2741389" lon="151.2900639">
  <ele>364.26</ele>
  <time>2026-09-01T19:50:29Z</time>
  <course>48.25</course>
  <speed>0.0</speed>
  <fix>3d</fix>
</trkpt>
<trkpt lat="-27.274439" lon="151.2900639">
  <ele>364.26</ele>
  <time>2026-09-01T19:50:29Z</time>
  <course>7.99</course>
  <speed>0.0</speed>
  <fix>3d</fix>
</trkpt>
<trkpt lat="-27.2741389" lon="151.2900639">
  <ele>364.26</ele>
  <time>2026-09-01T19:50:29Z</time>
  <course>48.25</course>
  <speed>0.0</speed>
  <fix>3d</fix>
</trkpt>
<trkpt lat="-27.2744389" lon="151.2900639">
  <ele>364.26</ele>
  <time>2026-09-01T19:50:29Z</time>
  <course>7.99</course>
  <speed>0.0</speed>
  <fix>3d</fix>
</trkpt>
<trkpt lat="-27.2741389" lon="151.2900639">
  <ele>364.26</ele>
  <time>2026-09-01T19:50:29Z</time>
  <course>52.99</course>
  <speed>0.0</speed>
  <fix>3d</fix>
</trkpt>
<trkpt lat="-27.2744389" lon="151.2900639">
  <ele>364.26</ele>
  <time>2026-09-01T19:50:29Z</time>
  <course>7.99</course>
  <speed>0.0</speed>
  <fix>3d</fix>
</trkpt>
<trkpt lat="-27.2741389" lon="151.2900639">
  <ele>364.26</ele>
  <time>2026-09-01T19:50:29Z</time>
  <course>52.99</course>
  <speed>0.0</speed>
  <fix>3d</fix>
</trkpt>
<trkpt lat="-27.2744389" lon="151.2900639">
  <ele>364.26</ele>
  <time>2026-09-01T19:50:29Z</time>
  <course>7.99</course>
  <speed>0.0</speed>
  <fix>3d</fix>
</trkpt>
<trkpt lat="-27.2741389" lon="151.2900639">
  <ele>364.26</ele>
  <time>2026-09-01T19:50:29Z</time>
  <course>54.93</course>
  <speed>0.0</speed>
  <fix>3d</fix>
</trkpt>
<trkpt lat="-27.2744389" lon="151.2900639">
  <ele>364.26</ele>
  <time>2026-09-01T19:50:29Z</time>
  <course>7.99</course>
  <speed>0.0</speed>
  <fix>3d</fix>
</trkpt>
<trkpt lat="-27.2741389" lon="151.2900639">
  <ele>364.26</ele>
  <time>2026-09-01T19:50:29Z</time>
  <course>54.93</course>
  <speed>0.0</speed>
  <fix>3d</fix>
</trkpt>
<trkpt lat="-27.2744389" lon="151.2900639">
  <ele>364.26</ele>
  <time>2026-09-01T19:50:29Z</time>
  <course>8.0</course>
  <speed>0.0</speed>
  <fix>3d</fix>
</trkpt>
<trkpt lat="-27.2741388" lon="151.2900639">
  <ele>364.26</ele>
  <time>2026-09-01T19:50:29Z</time>
  <course>59.65</course>
  <speed>0.0</speed>
  <fix>3d</fix>
</trkpt>
<trkpt lat="-27.2744389" lon="151.2900639">
  <ele>364.26</ele>
  <time>2026-09-01T19:50:29Z</time>
  <course>8.0</course>
  <speed>0.0</speed>
  <fix>3d</fix>
</trkpt>
<trkpt lat="-27.2741388" lon="151.2900639">
  <ele>364.26</ele>
  <time>2026-09-01T19:50:29Z</time>
  <course>59.65</course>
  <speed>0.0</speed>
  <fix>3d</fix>
</trkpt>
<trkpt lat="-27.2744389" lon="151.2900639">
  <ele>364.26</ele>
  <time>2026-09-01T19:50:29Z</time>
  <course>8.0</course>
  <speed>0.0</speed>
  <fix>3d</fix>
</trkpt>
<trkpt lat="-27.2741388" lon="151.2900639">
  <ele>364.26</ele>
  <time>2026-09-01T19:50:29Z</time>
  <course>73.3</course>
  <speed>0.0</speed>
  <fix>3d</fix>
</trkpt>
<trkpt lat="-27.2744389" lon="151.2900639">
  <ele>364.25</ele>
  <time>2026-09-01T19:50:30Z</time>
  <course>8.0</course>
  <speed>0.0</speed>
  <fix>3d</fix>
</trkpt>
<trkpt lat="-27.2741388" lon="151.2900639">
  <ele>364.26</ele>
  <time>2026-09-01T19:50:30Z</time>
  <course>73.3</course>
  <speed>0.0</speed>
  <fix>3d</fix>
</trkpt>
<trkpt lat="-27.2744389" lon="151.2900639">
  <ele>364.25</ele>
  <time>2026-09-01T19:50:30Z</time>
  <course>7.99</course>
  <speed>0.0</speed>
  <fix>3d</fix>
</trkpt>
<trkpt lat="-27.2741388" lon="151.2900639">
  <ele>364.25</ele>
  <time>2026-09-01T19:50:30Z</time>
  <course>94.23</course>
  <speed>0.0</speed>
  <fix>3d</fix>
</trkpt>
<trkpt lat="-27.2744389" lon="151.2900639">
  <ele>364.25</ele>
  <time>2026-09-01T19:50:30Z</time>
  <course>7.99</course>
  <speed>0.0</speed>
  <fix>3d</fix>
</trkpt>
<trkpt lat="-27.2741388" lon="151.2900639">
  <ele>364.25</ele>
  <time>2026-09-01T19:50:30Z</time>
  <course>94.23</course>
  <speed>0.0</speed>
  <fix>3d</fix>
</trkpt>
<trkpt lat="-27.2744389" lon="151.2900639">
  <ele>364.25</ele>
  <time>2026-09-01T19:50:30Z</time>
  <course>7.99</course>
  <speed>0.0</speed>
  <fix>3d</fix>
</trkpt>
<trkpt lat="-27.2741388" lon="151.2900639">
  <ele>364.25</ele>
  <time>2026-09-01T19:50:30Z</time>
  <course>105.01</course>
  <speed>0.0</speed>
  <fix>3d</fix>
</trkpt>
<trkpt lat="-27.2744389" lon="151.2900639">
  <ele>364.25</ele>
  <time>2026-09-01T19:50:30Z</time>
  <course>7.98</course>
  <speed>0.0</speed>
  <fix>3d</fix>
</trkpt>
<trkpt lat="-27.2741388" lon="151.2900639">
  <ele>364.25</ele>
  <time>2026-09-01T19:50:30Z</time>
  <course>105.01</course>
  <speed>0.0</speed>
  <fix>3d</fix>
</trkpt>
<trkpt lat="-27.2744389" lon="151.2900639">
  <ele>364.25</ele>
  <time>2026-09-01T19:50:30Z</time>
  <course>7.98</course>
  <speed>0.0</speed>
  <fix>3d</fix>
</trkpt>
<trkpt lat="-27.2741388" lon="151.2900639">
  <ele>364.25</ele>
  <time>2026-09-01T19:50:30Z</time>
  <course>105.78</course>
  <speed>0.0</speed>
  <fix>3d</fix>
</trkpt>
<trkpt lat="-27.2744389" lon="151.2900639">
  <ele>364.25</ele>
  <time>2026-09-01T19:50:30Z</time>
  <course>7.99</course>
  <speed>0.0</speed>
  <fix>3d</fix>
</trkpt>
<trkpt lat="-27.2741388" lon="151.2900639">
  <ele>364.25</ele>
  <time>2026-09-01T19:50:30Z</time>
  <course>105.78</course>
  <speed>0.0</speed>
  <fix>3d</fix>
</trkpt>
<trkpt lat="-27.2744389" lon="151.2900639">
  <ele>364.25</ele>
  <time>2026-09-01T19:50:30Z</time>
  <course>7.99</course>
  <speed>0.0</speed>
  <fix>3d</fix>
</trkpt>
<trkpt lat="-27.2741388" lon="151.2900639">
  <ele>364.25</ele>
  <time>2026-09-01T19:50:30Z</time>
  <course>105.19</course>
  <speed>0.0</speed>
  <fix>3d</fix>
</trkpt>
<trkpt lat="-27.2744389" lon="151.2900639">
  <ele>364.25</ele>
  <time>2026-09-01T19:50:30Z</time>
  <course>7.99</course>
  <speed>0.0</speed>
  <fix>3d</fix>
</trkpt>
<trkpt lat="-27.2741388" lon="151.2900639">
  <ele>364.25</ele>
  <time>2026-09-01T19:50:30Z</time>
  <course>105.19</course>
  <speed>0.0</speed>
  <fix>3d</fix>
</trkpt>
<trkpt lat="-27.2744389" lon="151.290064">
  <ele>364.26</ele>
  <time>2026-09-01T19:50:30Z</time>
  <course>7.99</course>
  <speed>0.0</speed>
  <fix>3d</fix>
</trkpt>
<trkpt lat="-27.2741388" lon="151.2900639">
  <ele>364.25</ele>
  <time>2026-09-01T19:50:30Z</time>
  <course>101.04</course>
  <speed>0.0</speed>
  <fix>3d</fix>
</trkpt>
<trkpt lat="-27.2744389" lon="151.290064">
  <ele>364.26</ele>
  <time>2026-09-01T19:50:30Z</time>
  <course>7.99</course>
  <speed>0.0</speed>
  <fix>3d</fix>
</trkpt>
<trkpt lat="-27.2741388" lon="151.2900639">
  <ele>364.25</ele>
  <time>2026-09-01T19:50:30Z</time>
  <course>101.04</course>
  <speed>0.0</speed>
  <fix>3d</fix>
</trkpt>
<trkpt lat="-27.2744389" lon="151.290064">
  <ele>364.26</ele>
  <time>2026-09-01T19:50:30Z</time>
  <course>7.99</course>
  <speed>0.0</speed>
  <fix>3d</fix>
</trkpt>
<trkpt lat="-27.2741388" lon="151.2900639">
  <ele>364.25</ele>
  <time>2026-09-01T19:50:30Z</time>
  <course>94.72</course>
  <speed>0.0</speed>
  <fix>3d</fix>
</trkpt>
<trkpt lat="-27.2744389" lon="151.290064">
  <ele>364.26</ele>
  <time>2026-09-01T19:50:30Z</time>
  <course>7.99</course>
  <speed>0.0</speed>
  <fix>3d</fix>
</trkpt>
<trkpt lat="-27.2741388" lon="151.2900639">
  <ele>364.25</ele>
  <time>2026-09-01T19:50:30Z</time>
  <course>94.72</course>
  <speed>0.0</speed>
  <fix>3d</fix>
</trkpt>
<trkpt lat="-27.2744389" lon="151.290064">
  <ele>364.26</ele>
  <time>2026-09-01T19:50:30Z</time>
  <course>7.99</course>
  <speed>0.0</speed>
  <fix>3d</fix>
</trkpt>
<trkpt lat="-27.2741388" lon="151.290064">
  <ele>364.26</ele>
  <time>2026-09-01T19:50:30Z</time>
  <course>94.77</course>
  <speed>0.0</speed>
  <fix>3d</fix>
</trkpt>
<trkpt lat="-27.2744389" lon="151.290064">
  <ele>364.26</ele>
  <time>2026-09-01T19:50:30Z</time>
  <course>7.98</course>
  <speed>0.0</speed>
  <fix>3d</fix>
</trkpt>
<trkpt lat="-27.2741388" lon="151.290064">
  <ele>364.26</ele>
  <time>2026-09-01T19:50:30Z</time>
  <course>94.77</course>
  <speed>0.0</speed>
  <fix>3d</fix>
</trkpt>
<trkpt lat="-27.2744389" lon="151.290064">
  <ele>364.26</ele>
  <time>2026-09-01T19:50:30Z</time>
  <course>7.98</course>
  <speed>0.0</speed>
  <fix>3d</fix>
</trkpt>
<trkpt lat="-27.2741388" lon="151.290064">
  <ele>364.26</ele>
  <time>2026-09-01T19:50:30Z</time>
  <course>103.46</course>
  <speed>0.0</speed>
  <fix>3d</fix>
</trkpt>
<trkpt lat="-27.2744389" lon="151.290064">
  <ele>364.26</ele>
  <time>2026-09-01T19:50:30Z</time>
  <course>7.98</course>
  <speed>0.0</speed>
  <fix>3d</fix>
</trkpt>
<trkpt lat="-27.2741388" lon="151.290064">
  <ele>364.26</ele>
  <time>2026-09-01T19:50:30Z</time>
  <course>103.46</course>
  <speed>0.0</speed>
  <fix>3d</fix>
</trkpt>
<trkpt lat="-27.2744389" lon="151.290064">
  <ele>364.26</ele>
  <time>2026-09-01T19:50:30Z</time>
  <course>7.99</course>
  <speed>0.0</speed>
  <fix>3d</fix>
</trkpt>
<trkpt lat="-27.2741388" lon="151.290064">
  <ele>364.26</ele>
  <time>2026-09-01T19:50:30Z</time>
  <course>115.23</course>
  <speed>0.0</speed>
  <fix>3d</fix>
</trkpt>
<trkpt lat="-27.2744389" lon="151.290064">
  <ele>364.26</ele>
  <time>2026-09-01T19:50:30Z</time>
  <course>7.99</course>
  <speed>0.0</speed>
  <fix>3d</fix>
</trkpt>
<trkpt lat="-27.2741388" lon="151.290064">
  <ele>364.26</ele>
  <time>2026-09-01T19:50:30Z</time>
  <course>115.23</course>
  <speed>0.0</speed>
  <fix>3d</fix>
</trkpt>
<trkpt lat="-27.2744389" lon="151.290064">
  <ele>364.26</ele>
  <time>2026-09-01T19:50:30Z</time>
  <course>7.99</course>
  <speed>0.0</speed>
  <fix>3d</fix>
</trkpt>
<trkpt lat="-27.2741388" lon="151.290064">
  <ele>364.26</ele>
  <time>2026-09-01T19:50:30Z</time>
  <course>126.84</course>
  <speed>0.0</speed>
  <fix>3d</fix>
</trkpt>
<trkpt lat="-27.2744389" lon="151.290064">
  <ele>364.26</ele>
  <time>2026-09-01T19:50:30Z</time>
  <course>7.99</course>
  <speed>0.0</speed>
  <fix>3d</fix>
</trkpt>
<trkpt lat="-27.2741388" lon="151.290064">
  <ele>364.26</ele>
  <time>2026-09-01T19:50:30Z</time>
  <course>126.84</course>
  <speed>0.0</speed>
  <fix>3d</fix>
</trkpt>
<trkpt lat="-27.2744389" lon="151.290064">
  <ele>364.25</ele>
  <time>2026-09-01T19:50:30Z</time>
  <course>7.99</course>
  <speed>0.0</speed>
  <fix>3d</fix>
</trkpt>
<trkpt lat="-27.2741388" lon="151.290064">
  <ele>364.26</ele>
  <time>2026-09-01T19:50:30Z</time>
  <course>136.01</course>
  <speed>0.0</speed>
  <fix>3d</fix>
</trkpt>
<trkpt lat="-27.2744389" lon="151.290064">
  <ele>364.25</ele>
  <time>2026-09-01T19:50:30Z</time>
  <course>7.99</course>
  <speed>0.0</speed>
  <fix>3d</fix>
</trkpt>
<trkpt lat="-27.2741388" lon="151.290064">
  <ele>364.26</ele>
  <time>2026-09-01T19:50:30Z</time>
  <course>136.01</course>
  <speed>0.0</speed>
  <fix>3d</fix>
</trkpt>
<trkpt lat="-27.2744389" lon="151.2900641">
  <ele>364.25</ele>
  <time>2026-09-01T19:50:30Z</time>
  <course>7.99</course>
  <speed>0.0</speed>
  <fix>3d</fix>
</trkpt>
<trkpt lat="-27.2741388" lon="151.290064">
  <ele>364.25</ele>
  <time>2026-09-01T19:50:30Z</time>
  <course>141.62</course>
  <speed>0.01</speed>
  <fix>3d</fix>
</trkpt>
<trkpt lat="-27.2744389" lon="151.2900641">
  <ele>364.25</ele>
  <time>2026-09-01T19:50:30Z</time>
  <course>7.99</course>
  <speed>0.0</speed>
  <fix>3d</fix>
</trkpt>
<trkpt lat="-27.2741388" lon="151.290064">
  <ele>364.25</ele>
  <time>2026-09-01T19:50:30Z</time>
  <course>141.62</course>
  <speed>0.01</speed>
  <fix>3d</fix>
</trkpt>
<trkpt lat="-27.2744389" lon="151.2900641">
  <ele>364.25</ele>
  <time>2026-09-01T19:50:30Z</time>
  <course>7.99</course>
  <speed>0.0</speed>
  <fix>3d</fix>
</trkpt>
<trkpt lat="-27.2741388" lon="151.290064">
  <ele>364.25</ele>
  <time>2026-09-01T19:50:30Z</time>
  <course>145.53</course>
  <speed>0.01</speed>
  <fix>3d</fix>
</trkpt>
<trkpt lat="-27.2744389" lon="151.2900641">
  <ele>364.25</ele>
  <time>2026-09-01T19:50:30Z</time>
  <course>7.99</course>
  <speed>0.0</speed>
  <fix>3d</fix>
</trkpt>
<trkpt lat="-27.2741388" lon="151.290064">
  <ele>364.25</ele>
  <time>2026-09-01T19:50:30Z</time>
  <course>145.53</course>
  <speed>0.01</speed>
  <fix>3d</fix>
</trkpt>
<trkpt lat="-27.2744389" lon="151.2900641">
  <ele>364.25</ele>
  <time>2026-09-01T19:50:30Z</time>
  <course>7.98</course>
  <speed>0.0</speed>
  <fix>3d</fix>
</trkpt>
<trkpt lat="-27.2741388" lon="151.2900641">
  <ele>364.25</ele>
  <time>2026-09-01T19:50:30Z</time>
  <course>151.06</course>
  <speed>0.01</speed>
  <fix>3d</fix>
</trkpt>
<trkpt lat="-27.2744389" lon="151.2900641">
  <ele>364.25</ele>
  <time>2026-09-01T19:50:30Z</time>
  <course>7.98</course>
  <speed>0.0</speed>
  <fix>3d</fix>
</trkpt>
<trkpt lat="-27.2741388" lon="151.2900641">
  <ele>364.25</ele>
  <time>2026-09-01T19:50:30Z</time>
  <course>151.06</course>
  <speed>0.01</speed>
  <fix>3d</fix>
</trkpt>
<trkpt lat="-27.274439" lon="151.2900641">
  <ele>364.25</ele>
  <time>2026-09-01T19:50:30Z</time>
  <course>7.98</course>
  <speed>0.0</speed>
  <fix>3d</fix>
</trkpt>
<trkpt lat="-27.2741388" lon="151.2900641">
  <ele>364.25</ele>
  <time>2026-09-01T19:50:30Z</time>
  <course>158.98</course>
  <speed>0.0</speed>
  <fix>3d</fix>
</trkpt>
<trkpt lat="-27.274439" lon="151.2900641">
  <ele>364.25</ele>
  <time>2026-09-01T19:50:30Z</time>
  <course>7.98</course>
  <speed>0.0</speed>
  <fix>3d</fix>
</trkpt>
<trkpt lat="-27.2741388" lon="151.2900641">
  <ele>364.25</ele>
  <time>2026-09-01T19:50:30Z</time>
  <course>158.98</course>
  <speed>0.0</speed>
  <fix>3d</fix>
</trkpt>
<trkpt lat="-27.274439" lon="151.2900641">
  <ele>364.26</ele>
  <time>2026-09-01T19:50:30Z</time>
  <course>7.98</course>
  <speed>0.0</speed>
  <fix>3d</fix>
</trkpt>
<trkpt lat="-27.2741389" lon="151.2900641">
  <ele>364.25</ele>
  <time>2026-09-01T19:50:30Z</time>
  <course>165.3</course>
  <speed>0.0</speed>
  <fix>3d</fix>
</trkpt>
<trkpt lat="-27.274439" lon="151.2900641">
  <ele>364.26</ele>
  <time>2026-09-01T19:50:30Z</time>
  <course>7.98</course>
  <speed>0.0</speed>
  <fix>3d</fix>
</trkpt>
<trkpt lat="-27.2741389" lon="151.2900641">
  <ele>364.25</ele>
  <time>2026-09-01T19:50:30Z</time>
  <course>165.3</course>
  <speed>0.0</speed>
  <fix>3d</fix>
</trkpt>
<trkpt lat="-27.274439" lon="151.2900641">
  <ele>364.26</ele>
  <time>2026-09-01T19:50:30Z</time>
  <course>7.98</course>
  <speed>0.0</speed>
  <fix>3d</fix>
</trkpt>
<trkpt lat="-27.2741389" lon="151.2900641">
  <ele>364.25</ele>
  <time>2026-09-01T19:50:30Z</time>
  <course>169.88</course>
  <speed>0.0</speed>
  <fix>3d</fix>
</trkpt>
<trkpt lat="-27.274439" lon="151.2900641">
  <ele>364.26</ele>
  <time>2026-09-01T19:50:30Z</time>
  <course>7.98</course>
  <speed>0.0</speed>
  <fix>3d</fix>
</trkpt>
<trkpt lat="-27.2741389" lon="151.2900641">
  <ele>364.25</ele>
  <time>2026-09-01T19:50:30Z</time>
  <course>169.88</course>
  <speed>0.0</speed>
  <fix>3d</fix>
</trkpt>
<trkpt lat="-27.274439" lon="151.2900641">
  <ele>364.26</ele>
  <time>2026-09-01T19:50:30Z</time>
  <course>7.99</course>
  <speed>0.0</speed>
  <fix>3d</fix>
</trkpt>
<trkpt lat="-27.2741389" lon="151.2900641">
  <ele>364.26</ele>
  <time>2026-09-01T19:50:30Z</time>
  <course>177.67</course>
  <speed>0.0</speed>
  <fix>3d</fix>
</trkpt>
<trkpt lat="-27.274439" lon="151.2900641">
  <ele>364.26</ele>
  <time>2026-09-01T19:50:30Z</time>
  <course>7.99</course>
  <speed>0.0</speed>
  <fix>3d</fix>
</trkpt>
<trkpt lat="-27.2741389" lon="151.2900641">
  <ele>364.26</ele>
  <time>2026-09-01T19:50:30Z</time>
  <course>177.67</course>
  <speed>0.0</speed>
  <fix>3d</fix>
</trkpt>
<trkpt lat="-27.274439" lon="151.2900641">
  <ele>364.26</ele>
  <time>2026-09-01T19:50:30Z</time>
  <course>7.99</course>
  <speed>0.0</speed>
  <fix>3d</fix>
</trkpt>
<trkpt lat="-27.2741389" lon="151.2900641">
  <ele>364.26</ele>
  <time>2026-09-01T19:50:30Z</time>
  <course>190.4</course>
  <speed>0.0</speed>
  <fix>3d</fix>
</trkpt>
<trkpt lat="-27.274439" lon="151.2900641">
  <ele>364.26</ele>
  <time>2026-09-01T19:50:30Z</time>
  <course>7.99</course>
  <speed>0.0</speed>
  <fix>3d</fix>
</trkpt>
<trkpt lat="-27.2741389" lon="151.2900641">
  <ele>364.26</ele>
  <time>2026-09-01T19:50:30Z</time>
  <course>190.4</course>
  <speed>0.0</speed>
  <fix>3d</fix>
</trkpt>
<trkpt lat="-27.274439" lon="151.2900641">
  <ele>364.26</ele>
  <time>2026-09-01T19:50:30Z</time>
  <course>7.98</course>
  <speed>0.0</speed>
  <fix>3d</fix>
</trkpt>
<trkpt lat="-27.2741389" lon="151.2900641">
  <ele>364.26</ele>
  <time>2026-09-01T19:50:30Z</time>
  <course>204.37</course>
  <speed>0.0</speed>
  <fix>3d</fix>
</trkpt>
<trkpt lat="-27.274439" lon="151.2900641">
  <ele>364.26</ele>
  <time>2026-09-01T19:50:30Z</time>
  <course>7.98</course>
  <speed>0.0</speed>
  <fix>3d</fix>
</trkpt>
<trkpt lat="-27.2741389" lon="151.2900641">
  <ele>364.26</ele>
  <time>2026-09-01T19:50:30Z</time>
  <course>204.37</course>
  <speed>0.0</speed>
  <fix>3d</fix>
</trkpt>
<trkpt lat="-27.274439" lon="151.2900641">
  <ele>364.26</ele>
  <time>2026-09-01T19:50:30Z</time>
  <course>7.98</course>
  <speed>0.0</speed>
  <fix>3d</fix>
</trkpt>
<trkpt lat="-27.2741389" lon="151.2900641">
  <ele>364.26</ele>
  <time>2026-09-01T19:50:30Z</time>
  <course>218.41</course>
  <speed>0.0</speed>
  <fix>3d</fix>
</trkpt>
<trkpt lat="-27.274439" lon="151.2900641">
  <ele>364.25</ele>
  <time>2026-09-01T19:50:30Z</time>
  <course>7.97</course>
  <speed>0.0</speed>
  <fix>3d</fix>
</trkpt>
<trkpt lat="-27.2741389" lon="151.2900641">
  <ele>364.26</ele>
  <time>2026-09-01T19:50:30Z</time>
  <course>218.41</course>
  <speed>0.0</speed>
  <fix>3d</fix>
</trkpt>
<trkpt lat="-27.274439" lon="151.2900641">
  <ele>364.25</ele>
  <time>2026-09-01T19:50:30Z</time>
  <course>7.97</course>
  <speed>0.0</speed>
  <fix>3d</fix>
</trkpt>
<trkpt lat="-27.2741389" lon="151.2900641">
  <ele>364.26</ele>
  <time>2026-09-01T19:50:30Z</time>
  <course>231.58</course>
  <speed>0.0</speed>
  <fix>3d</fix>
</trkpt>
<trkpt lat="-27.274439" lon="151.2900641">
  <ele>364.25</ele>
  <time>2026-09-01T19:50:30Z</time>
  <course>7.97</course>
  <speed>0.0</speed>
  <fix>3d</fix>
</trkpt>
<trkpt lat="-27.2741389" lon="151.2900641">
  <ele>364.26</ele>
  <time>2026-09-01T19:50:30Z</time>
  <course>231.58</course>
  <speed>0.0</speed>
  <fix>3d</fix>
</trkpt>
<trkpt lat="-27.274439" lon="151.2900641">
  <ele>364.25</ele>
  <time>2026-09-01T19:50:30Z</time>
  <course>7.97</course>
  <speed>0.0</speed>
  <fix>3d</fix>
</trkpt>
<trkpt lat="-27.2741389" lon="151.2900641">
  <ele>364.25</ele>
  <time>2026-09-01T19:50:30Z</time>
  <course>243.5</course>
  <speed>0.0</speed>
  <fix>3d</fix>
</trkpt>
<trkpt lat="-27.274439" lon="151.2900641">
  <ele>364.25</ele>
  <time>2026-09-01T19:50:30Z</time>
  <course>7.97</course>
  <speed>0.0</speed>
  <fix>3d</fix>
</trkpt>
<trkpt lat="-27.2741389" lon="151.2900641">
  <ele>364.25</ele>
  <time>2026-09-01T19:50:30Z</time>
  <course>243.5</course>
  <speed>0.0</speed>
  <fix>3d</fix>
</trkpt>
<trkpt lat="-27.274439" lon="151.2900641">
  <ele>364.25</ele>
  <time>2026-09-01T19:50:30Z</time>
  <course>7.98</course>
  <speed>0.0</speed>
  <fix>3d</fix>
</trkpt>
<trkpt lat="-27.2741389" lon="151.2900641">
  <ele>364.25</ele>
  <time>2026-09-01T19:50:30Z</time>
  <course>252.39</course>
  <speed>0.0</speed>
  <fix>3d</fix>
</trkpt>
<trkpt lat="-27.274439" lon="151.2900641">
  <ele>364.25</ele>
  <time>2026-09-01T19:50:30Z</time>
  <course>7.99</course>
  <speed>0.0</speed>
  <fix>3d</fix>
</trkpt>
<trkpt lat="-27.2741389" lon="151.2900641">
  <ele>364.25</ele>
  <time>2026-09-01T19:50:30Z</time>
  <course>252.39</course>
  <speed>0.0</speed>
  <fix>3d</fix>
</trkpt>
<trkpt lat="-27.274439" lon="151.2900641">
  <ele>364.25</ele>
  <time>2026-09-01T19:50:30Z</time>
  <course>8.0</course>
  <speed>0.0</speed>
  <fix>3d</fix>
</trkpt>
<trkpt lat="-27.2741389" lon="151.2900641">
  <ele>364.25</ele>
  <time>2026-09-01T19:50:30Z</time>
  <course>256.68</course>
  <speed>0.0</speed>
  <fix>3d</fix>
</trkpt>
<trkpt lat="-27.274439" lon="151.2900641">
  <ele>364.25</ele>
  <time>2026-09-01T19:50:30Z</time>
  <course>8.0</course>
  <speed>0.0</speed>
  <fix>3d</fix>
</trkpt>
<trkpt lat="-27.2741389" lon="151.2900641">
  <ele>364.25</ele>
  <time>2026-09-01T19:50:30Z</time>
  <course>256.68</course>
  <speed>0.0</speed>
  <fix>3d</fix>
</trkpt>
<trkpt lat="-27.274439" lon="151.2900641">
  <ele>364.25</ele>
  <time>2026-09-01T19:50:30Z</time>
  <course>8.01</course>
  <speed>0.0</speed>
  <fix>3d</fix>
</trkpt>
<trkpt lat="-27.2741389" lon="151.2900641">
  <ele>364.25</ele>
  <time>2026-09-01T19:50:30Z</time>
  <course>258.59</course>
  <speed>0.0</speed>
  <fix>3d</fix>
</trkpt>
<trkpt lat="-27.274439" lon="151.2900641">
  <ele>364.25</ele>
  <time>2026-09-01T19:50:30Z</time>
  <course>8.01</course>
  <speed>0.0</speed>
  <fix>3d</fix>
</trkpt>
<trkpt lat="-27.2741389" lon="151.2900641">
  <ele>364.25</ele>
  <time>2026-09-01T19:50:30Z</time>
  <course>258.59</course>
  <speed>0.0</speed>
  <fix>3d</fix>
</trkpt>
<trkpt lat="-27.274439" lon="151.2900641">
  <ele>364.25</ele>
  <time>2026-09-01T19:50:30Z</time>
  <course>8.01</course>
  <speed>0.0</speed>
  <fix>3d</fix>
</trkpt>
<trkpt lat="-27.2741389" lon="151.2900641">
  <ele>364.25</ele>
  <time>2026-09-01T19:50:30Z</time>
  <course>259.35</course>
  <speed>0.0</speed>
  <fix>3d</fix>
</trkpt>
<trkpt lat="-27.274439" lon="151.2900641">
  <ele>364.26</ele>
  <time>2026-09-01T19:50:30Z</time>
  <course>8.0</course>
  <speed>0.0</speed>
  <fix>3d</fix>
</trkpt>
<trkpt lat="-27.2741389" lon="151.2900641">
  <ele>364.25</ele>
  <time>2026-09-01T19:50:30Z</time>
  <course>259.35</course>
  <speed>0.0</speed>
  <fix>3d</fix>
</trkpt>
<trkpt lat="-27.274439" lon="151.2900641">
  <ele>364.26</ele>
  <time>2026-09-01T19:50:30Z</time>
  <course>7.99</course>
  <speed>0.0</speed>
  <fix>3d</fix>
</trkpt>
<trkpt lat="-27.2741389" lon="151.2900641">
  <ele>364.25</ele>
  <time>2026-09-01T19:50:30Z</time>
  <course>256.94</course>
  <speed>0.0</speed>
  <fix>3d</fix>
</trkpt>
<trkpt lat="-27.274439" lon="151.2900641">
  <ele>364.26</ele>
  <time>2026-09-01T19:50:30Z</time>
  <course>7.99</course>
  <speed>0.0</speed>
  <fix>3d</fix>
</trkpt>
<trkpt lat="-27.2741389" lon="151.2900641">
  <ele>364.25</ele>
  <time>2026-09-01T19:50:30Z</time>
  <course>256.94</course>
  <speed>0.0</speed>
  <fix>3d</fix>
</trkpt>
<trkpt lat="-27.274439" lon="151.2900641">
  <ele>364.26</ele>
  <time>2026-09-01T19:50:30Z</time>
  <course>7.98</course>
  <speed>0.0</speed>
  <fix>3d</fix>
</trkpt>
<trkpt lat="-27.2741389" lon="151.2900641">
  <ele>364.26</ele>
  <time>2026-09-01T19:50:30Z</time>
  <course>254.66</course>
  <speed>0.0</speed>
  <fix>3d</fix>
</trkpt>
<trkpt lat="-27.274439" lon="151.290064">
  <ele>364.26</ele>
  <time>2026-09-01T19:50:30Z</time>
  <course>7.98</course>
  <speed>0.0</speed>
  <fix>3d</fix>
</trkpt>
<trkpt lat="-27.2741389" lon="151.2900641">
  <ele>364.26</ele>
  <time>2026-09-01T19:50:30Z</time>
  <course>254.66</course>
  <speed>0.0</speed>
  <fix>3d</fix>
</trkpt>
<trkpt lat="-27.2744391" lon="151.290064">
  <ele>364.26</ele>
  <time>2026-09-01T19:50:30Z</time>
  <course>7.98</course>
  <speed>0.0</speed>
  <fix>3d</fix>
</trkpt>
<trkpt lat="-27.2741389" lon="151.290064">
  <ele>364.26</ele>
  <time>2026-09-01T19:50:30Z</time>
  <course>256.15</course>
  <speed>0.0</speed>
  <fix>3d</fix>
</trkpt>
<trkpt lat="-27.2744391" lon="151.290064">
  <ele>364.26</ele>
  <time>2026-09-01T19:50:30Z</time>
  <course>7.98</course>
  <speed>0.0</speed>
  <fix>3d</fix>
</trkpt>
<trkpt lat="-27.2741389" lon="151.290064">
  <ele>364.26</ele>
  <time>2026-09-01T19:50:30Z</time>
  <course>256.15</course>
  <speed>0.0</speed>
  <fix>3d</fix>
</trkpt>
<trkpt lat="-27.2744391" lon="151.290064">
  <ele>364.26</ele>
  <time>2026-09-01T19:50:30Z</time>
  <course>7.98</course>
  <speed>0.0</speed>
  <fix>3d</fix>
</trkpt>
<trkpt lat="-27.274139" lon="151.290064">
  <ele>364.26</ele>
  <time>2026-09-01T19:50:30Z</time>
  <course>259.52</course>
  <speed>0.0</speed>
  <fix>3d</fix>
</trkpt>
<trkpt lat="-27.2744391" lon="151.290064">
  <ele>364.26</ele>
  <time>2026-09-01T19:50:30Z</time>
  <course>7.98</course>
  <speed>0.0</speed>
  <fix>3d</fix>
</trkpt>
<trkpt lat="-27.274139" lon="151.290064">
  <ele>364.26</ele>
  <time>2026-09-01T19:50:30Z</time>
  <course>259.52</course>
  <speed>0.0</speed>
  <fix>3d</fix>
</trkpt>
<trkpt lat="-27.2744391" lon="151.290064">
  <ele>364.26</ele>
  <time>2026-09-01T19:50:30Z</time>
  <course>7.99</course>
  <speed>0.0</speed>
  <fix>3d</fix>
</trkpt>
<trkpt lat="-27.274139" lon="151.290064">
  <ele>364.26</ele>
  <time>2026-09-01T19:50:30Z</time>
  <course>265.14</course>
  <speed>0.0</speed>
  <fix>3d</fix>
</trkpt>
<trkpt lat="-27.2744391" lon="151.290064">
  <ele>364.25</ele>
  <time>2026-09-01T19:50:30Z</time>
  <course>7.99</course>
  <speed>0.0</speed>
  <fix>3d</fix>
</trkpt>
<trkpt lat="-27.274139" lon="151.290064">
  <ele>364.26</ele>
  <time>2026-09-01T19:50:30Z</time>
  <course>265.14</course>
  <speed>0.0</speed>
  <fix>3d</fix>
</trkpt>
<trkpt lat="-27.2744391" lon="151.290064">
  <ele>364.25</ele>
  <time>2026-09-01T19:50:30Z</time>
  <course>7.99</course>
  <speed>0.0</speed>
  <fix>3d</fix>
</trkpt>
<trkpt lat="-27.274139" lon="151.290064">
  <ele>364.25</ele>
  <time>2026-09-01T19:50:30Z</time>
  <course>272.44</course>
  <speed>0.0</speed>
  <fix>3d</fix>
</trkpt>
<trkpt lat="-27.2744391" lon="151.290064">
  <ele>364.25</ele>
  <time>2026-09-01T19:50:30Z</time>
  <course>7.99</course>
  <speed>0.0</speed>
  <fix>3d</fix>
</trkpt>
<trkpt lat="-27.274139" lon="151.290064">
  <ele>364.25</ele>
  <time>2026-09-01T19:50:30Z</time>
  <course>272.44</course>
  <speed>0.0</speed>
  <fix>3d</fix>
</trkpt>
<trkpt lat="-27.2744391" lon="151.290064">
  <ele>364.25</ele>
  <time>2026-09-01T19:50:30Z</time>
  <course>7.99</course>
  <speed>0.0</speed>
  <fix>3d</fix>
</trkpt>
<trkpt lat="-27.274139" lon="151.290064">
  <ele>364.25</ele>
  <time>2026-09-01T19:50:30Z</time>
  <course>279.02</course>
  <speed>0.0</speed>
  <fix>3d</fix>
</trkpt>
<trkpt lat="-27.2744391" lon="151.290064">
  <ele>364.25</ele>
  <time>2026-09-01T19:50:30Z</time>
  <course>7.99</course>
  <speed>0.0</speed>
  <fix>3d</fix>
</trkpt>
<trkpt lat="-27.274139" lon="151.290064">
  <ele>364.25</ele>
  <time>2026-09-01T19:50:30Z</time>
  <course>279.02</course>
  <speed>0.0</speed>
  <fix>3d</fix>
</trkpt>
<trkpt lat="-27.2744391" lon="151.290064">
  <ele>364.25</ele>
  <time>2026-09-01T19:50:30Z</time>
  <course>7.99</course>
  <speed>0.0</speed>
  <fix>3d</fix>
</trkpt>
<trkpt lat="-27.274139" lon="151.290064">
  <ele>364.25</ele>
  <time>2026-09-01T19:50:30Z</time>
  <course>282.88</course>
  <speed>0.0</speed>
  <fix>3d</fix>
</trkpt>
<trkpt lat="-27.2744391" lon="151.2900639">
  <ele>364.25</ele>
  <time>2026-09-01T19:50:30Z</time>
  <course>7.98</course>
  <speed>0.0</speed>
  <fix>3d</fix>
</trkpt>
<trkpt lat="-27.274139" lon="151.290064">
  <ele>364.25</ele>
  <time>2026-09-01T19:50:30Z</time>
  <course>282.88</course>
  <speed>0.0</speed>
  <fix>3d</fix>
</trkpt>
<trkpt lat="-27.2744391" lon="151.2900639">
  <ele>364.25</ele>
  <time>2026-09-01T19:50:30Z</time>
  <course>7.97</course>
  <speed>0.0</speed>
  <fix>3d</fix>
</trkpt>
<trkpt lat="-27.274139" lon="151.2900639">
  <ele>364.25</ele>
  <time>2026-09-01T19:50:30Z</time>
  <course>285.89</course>
  <speed>0.0</speed>
  <fix>3d</fix>
</trkpt>
<trkpt lat="-27.2744391" lon="151.2900639">
  <ele>364.25</ele>
  <time>2026-09-01T19:50:30Z</time>
  <course>7.96</course>
  <speed>0.0</speed>
  <fix>3d</fix>
</trkpt>
<trkpt lat="-27.274139" lon="151.2900639">
  <ele>364.25</ele>
  <time>2026-09-01T19:50:30Z</time>
  <course>285.89</course>
  <speed>0.0</speed>
  <fix>3d</fix>
</trkpt>
<trkpt lat="-27.2744391" lon="151.2900639">
  <ele>364.25</ele>
  <time>2026-09-01T19:50:30Z</time>
  <course>7.96</course>
  <speed>0.0</speed>
  <fix>3d</fix>
</trkpt>
<trkpt lat="-27.274139" lon="151.2900639">
  <ele>364.25</ele>
  <time>2026-09-01T19:50:30Z</time>
  <course>291.27</course>
  <speed>0.0</speed>
  <fix>3d</fix>
</trkpt>
<trkpt lat="-27.2744391" lon="151.2900639">
  <ele>364.25</ele>
  <time>2026-09-01T19:50:30Z</time>
  <course>7.95</course>
  <speed>0.0</speed>
  <fix>3d</fix>
</trkpt>
<trkpt lat="-27.274139" lon="151.2900639">
  <ele>364.25</ele>
  <time>2026-09-01T19:50:30Z</time>
  <course>291.27</course>
  <speed>0.0</speed>
  <fix>3d</fix>
</trkpt>
<trkpt lat="-27.2744391" lon="151.2900639">
  <ele>364.25</ele>
  <time>2026-09-01T19:50:30Z</time>
  <course>7.95</course>
  <speed>0.0</speed>
  <fix>3d</fix>
</trkpt>
<trkpt lat="-27.274139" lon="151.2900639">
  <ele>364.25</ele>
  <time>2026-09-01T19:50:30Z</time>
  <course>299.99</course>
  <speed>0.0</speed>
  <fix>3d</fix>
</trkpt>
<trkpt lat="-27.2744391" lon="151.2900639">
  <ele>364.26</ele>
  <time>2026-09-01T19:50:30Z</time>
  <course>7.95</course>
  <speed>0.0</speed>
  <fix>3d</fix>
</trkpt>
<trkpt lat="-27.274139" lon="151.2900639">
  <ele>364.25</ele>
  <time>2026-09-01T19:50:30Z</time>
  <course>299.99</course>
  <speed>0.0</speed>
  <fix>3d</fix>
</trkpt>
<trkpt lat="-27.2744391" lon="151.2900639">
  <ele>364.26</ele>
  <time>2026-09-01T19:50:30Z</time>
  <course>7.97</course>
  <speed>0.0</speed>
  <fix>3d</fix>
</trkpt>
<trkpt lat="-27.274139" lon="151.2900639">
  <ele>364.25</ele>
  <time>2026-09-01T19:50:30Z</time>
  <course>314.54</course>
  <speed>0.0</speed>
  <fix>3d</fix>
</trkpt>
<trkpt lat="-27.2744391" lon="151.2900639">
  <ele>364.26</ele>
  <time>2026-09-01T19:50:30Z</time>
  <course>7.98</course>
  <speed>0.0</speed>
  <fix>3d</fix>
</trkpt>
<trkpt lat="-27.274139" lon="151.2900639">
  <ele>364.25</ele>
  <time>2026-09-01T19:50:30Z</time>
  <course>314.54</course>
  <speed>0.0</speed>
  <fix>3d</fix>
</trkpt>
<trkpt lat="-27.2744391" lon="151.2900639">
  <ele>364.26</ele>
  <time>2026-09-01T19:50:30Z</time>
  <course>7.99</course>
  <speed>0.0</speed>
  <fix>3d</fix>
</trkpt>
<trkpt lat="-27.274139" lon="151.2900639">
  <ele>364.26</ele>
  <time>2026-09-01T19:50:30Z</time>
  <course>334.85</course>
  <speed>0.0</speed>
  <fix>3d</fix>
</trkpt>
<trkpt lat="-27.2744391" lon="151.2900639">
  <ele>364.26</ele>
  <time>2026-09-01T19:50:30Z</time>
  <course>7.99</course>
  <speed>0.0</speed>
  <fix>3d</fix>
</trkpt>
<trkpt lat="-27.274139" lon="151.2900639">
  <ele>364.26</ele>
  <time>2026-09-01T19:50:30Z</time>
  <course>334.85</course>
  <speed>0.0</speed>
  <fix>3d</fix>
</trkpt>
<trkpt lat="-27.2744391" lon="151.2900639">
  <ele>364.26</ele>
  <time>2026-09-01T19:50:30Z</time>
  <course>7.99</course>
  <speed>0.0</speed>
  <fix>3d</fix>
</trkpt>
<trkpt lat="-27.274139" lon="151.2900639">
  <ele>364.26</ele>
  <time>2026-09-01T19:50:30Z</time>
  <course>352.4</course>
  <speed>0.0</speed>
  <fix>3d</fix>
</trkpt>
<trkpt lat="-27.2744391" lon="151.2900639">
  <ele>364.26</ele>
  <time>2026-09-01T19:50:30Z</time>
  <course>7.99</course>
  <speed>0.0</speed>
  <fix>3d</fix>
</trkpt>
<trkpt lat="-27.274139" lon="151.2900639">
  <ele>364.26</ele>
  <time>2026-09-01T19:50:30Z</time>
  <course>352.4</course>
  <speed>0.0</speed>
  <fix>3d</fix>
</trkpt>
<trkpt lat="-27.2744391" lon="151.2900639">
  <ele>364.26</ele>
  <time>2026-09-01T19:50:30Z</time>
  <course>7.99</course>
  <speed>0.0</speed>
  <fix>3d</fix>
</trkpt>
<trkpt lat="-27.274139" lon="151.2900639">
  <ele>364.26</ele>
  <time>2026-09-01T19:50:30Z</time>
  <course>4.49</course>
  <speed>0.0</speed>
  <fix>3d</fix>
</trkpt>
<trkpt lat="-27.2744391" lon="151.2900639">
  <ele>364.26</ele>
  <time>2026-09-01T19:50:30Z</time>
  <course>7.99</course>
  <speed>0.0</speed>
  <fix>3d</fix>
</trkpt>
<trkpt lat="-27.274139" lon="151.2900639">
  <ele>364.26</ele>
  <time>2026-09-01T19:50:30Z</time>
  <course>4.49</course>
  <speed>0.0</speed>
  <fix>3d</fix>
</trkpt>
<trkpt lat="-27.2744391" lon="151.2900639">
  <ele>364.26</ele>
  <time>2026-09-01T19:50:30Z</time>
  <course>7.99</course>
  <speed>0.0</speed>
  <fix>3d</fix>
</trkpt>
<trkpt lat="-27.274139" lon="151.2900639">
  <ele>364.26</ele>
  <time>2026-09-01T19:50:30Z</time>
  <course>13.62</course>
  <speed>0.0</speed>
  <fix>3d</fix>
</trkpt>
<trkpt lat="-27.2744391" lon="151.2900639">
  <ele>364.25</ele>
  <time>2026-09-01T19:50:30Z</time>
  <course>7.99</course>
  <speed>0.0</speed>
  <fix>3d</fix>
</trkpt>
<trkpt lat="-27.274139" lon="151.2900639">
  <ele>364.26</ele>
  <time>2026-09-01T19:50:30Z</time>
  <course>13.62</course>
  <speed>0.0</speed>
  <fix>3d</fix>
</trkpt>
<trkpt lat="-27.2744391" lon="151.2900639">
  <ele>364.25</ele>
  <time>2026-09-01T19:50:30Z</time>
  <course>7.99</course>
  <speed>0.0</speed>
  <fix>3d</fix>
</trkpt>
<trkpt lat="-27.274139" lon="151.2900639">
  <ele>364.25</ele>
  <time>2026-09-01T19:50:30Z</time>
  <course>23.64</course>
  <speed>0.0</speed>
  <fix>3d</fix>
</trkpt>
<trkpt lat="-27.2744391" lon="151.2900639">
  <ele>364.25</ele>
  <time>2026-09-01T19:50:30Z</time>
  <course>7.99</course>
  <speed>0.0</speed>
  <fix>3d</fix>
</trkpt>
<trkpt lat="-27.274139" lon="151.2900639">
  <ele>364.25</ele>
  <time>2026-09-01T19:50:30Z</time>
  <course>23.64</course>
  <speed>0.0</speed>
  <fix>3d</fix>
</trkpt>
<trkpt lat="-27.2744391" lon="151.2900639">
  <ele>364.25</ele>
  <time>2026-09-01T19:50:30Z</time>
  <course>7.99</course>
  <speed>0.0</speed>
  <fix>3d</fix>
</trkpt>
<trkpt lat="-27.274139" lon="151.2900639">
  <ele>364.25</ele>
  <time>2026-09-01T19:50:30Z</time>
  <course>34.12</course>
  <speed>0.0</speed>
  <fix>3d</fix>
</trkpt>
<trkpt lat="-27.2744391" lon="151.2900639">
  <ele>364.25</ele>
  <time>2026-09-01T19:50:30Z</time>
  <course>7.99</course>
  <speed>0.0</speed>
  <fix>3d</fix>
</trkpt>
<trkpt lat="-27.274139" lon="151.2900639">
  <ele>364.25</ele>
  <time>2026-09-01T19:50:30Z</time>
  <course>34.12</course>
  <speed>0.0</speed>
  <fix>3d</fix>
</trkpt>
<trkpt lat="-27.2744391" lon="151.2900639">
  <ele>364.25</ele>
  <time>2026-09-01T19:50:30Z</time>
  <course>7.99</course>
  <speed>0.0</speed>
  <fix>3d</fix>
</trkpt>
<trkpt lat="-27.274139" lon="151.2900639">
  <ele>364.25</ele>
  <time>2026-09-01T19:50:30Z</time>
  <course>42.5</course>
  <speed>0.0</speed>
  <fix>3d</fix>
</trkpt>
<trkpt lat="-27.274439" lon="151.2900639">
  <ele>364.25</ele>
  <time>2026-09-01T19:50:30Z</time>
  <course>7.99</course>
  <speed>0.0</speed>
  <fix>3d</fix>
</trkpt>
<trkpt lat="-27.274139" lon="151.2900639">
  <ele>364.25</ele>
  <time>2026-09-01T19:50:30Z</time>
  <course>42.5</course>
  <speed>0.0</speed>
  <fix>3d</fix>
</trkpt>
<trkpt lat="-27.274439" lon="151.2900639">
  <ele>364.25</ele>
  <time>2026-09-01T19:50:30Z</time>
  <course>7.99</course>
  <speed>0.0</speed>
  <fix>3d</fix>
</trkpt>
<trkpt lat="-27.274139" lon="151.2900639">
  <ele>364.25</ele>
  <time>2026-09-01T19:50:30Z</time>
  <course>45.66</course>
  <speed>0.0</speed>
  <fix>3d</fix>
</trkpt>
<trkpt lat="-27.274439" lon="151.2900639">
  <ele>364.25</ele>
  <time>2026-09-01T19:50:30Z</time>
  <course>7.98</course>
  <speed>0.0</speed>
  <fix>3d</fix>
</trkpt>
<trkpt lat="-27.274139" lon="151.2900639">
  <ele>364.25</ele>
  <time>2026-09-01T19:50:30Z</time>
  <course>45.66</course>
  <speed>0.0</speed>
  <fix>3d</fix>
</trkpt>
<trkpt lat="-27.274439" lon="151.2900639">
  <ele>364.25</ele>
  <time>2026-09-01T19:50:30Z</time>
  <course>7.98</course>
  <speed>0.0</speed>
  <fix>3d</fix>
</trkpt>
<trkpt lat="-27.2741389" lon="151.2900639">
  <ele>364.25</ele>
  <time>2026-09-01T19:50:30Z</time>
  <course>43.57</course>
  <speed>0.0</speed>
  <fix>3d</fix>
</trkpt>
<trkpt lat="-27.274439" lon="151.2900639">
  <ele>364.25</ele>
  <time>2026-09-01T19:50:30Z</time>
  <course>7.98</course>
  <speed>0.0</speed>
  <fix>3d</fix>
</trkpt>
<trkpt lat="-27.2741389" lon="151.2900639">
  <ele>364.25</ele>
  <time>2026-09-01T19:50:30Z</time>
  <course>43.57</course>
  <speed>0.0</speed>
  <fix>3d</fix>
</trkpt>
<trkpt lat="-27.274439" lon="151.2900639">
  <ele>364.25</ele>
  <time>2026-09-01T19:50:30Z</time>
  <course>7.98</course>
  <speed>0.0</speed>
  <fix>3d</fix>
</trkpt>
<trkpt lat="-27.2741389" lon="151.2900639">
  <ele>364.25</ele>
  <time>2026-09-01T19:50:30Z</time>
  <course>41.43</course>
  <speed>0.0</speed>
  <fix>3d</fix>
</trkpt>
<trkpt lat="-27.274439" lon="151.2900639">
  <ele>364.26</ele>
  <time>2026-09-01T19:50:30Z</time>
  <course>7.98</course>
  <speed>0.0</speed>
  <fix>3d</fix>
</trkpt>
<trkpt lat="-27.2741389" lon="151.2900639">
  <ele>364.25</ele>
  <time>2026-09-01T19:50:31Z</time>
  <course>41.43</course>
  <speed>0.0</speed>
  <fix>3d</fix>
</trkpt>
<trkpt lat="-27.274439" lon="151.2900639">
  <ele>364.26</ele>
  <time>2026-09-01T19:50:31Z</time>
  <course>7.98</course>
  <speed>0.0</speed>
  <fix>3d</fix>
</trkpt>
<trkpt lat="-27.2741389" lon="151.2900639">
  <ele>364.25</ele>
  <time>2026-09-01T19:50:31Z</time>
  <course>41.63</course>
  <speed>0.0</speed>
  <fix>3d</fix>
</trkpt>
<trkpt lat="-27.274439" lon="151.2900639">
  <ele>364.26</ele>
  <time>2026-09-01T19:50:31Z</time>
  <course>7.99</course>
  <speed>0.0</speed>
  <fix>3d</fix>
</trkpt>
<trkpt lat="-27.2741389" lon="151.2900639">
  <ele>364.25</ele>
  <time>2026-09-01T19:50:31Z</time>
  <course>41.63</course>
  <speed>0.0</speed>
  <fix>3d</fix>
</trkpt>
<trkpt lat="-27.274439" lon="151.2900639">
  <ele>364.26</ele>
  <time>2026-09-01T19:50:31Z</time>
  <course>7.99</course>
  <speed>0.0</speed>
  <fix>3d</fix>
</trkpt>
<trkpt lat="-27.2741389" lon="151.2900639">
  <ele>364.26</ele>
  <time>2026-09-01T19:50:31Z</time>
  <course>43.14</course>
  <speed>0.0</speed>
  <fix>3d</fix>
</trkpt>
<trkpt lat="-27.274439" lon="151.2900639">
  <ele>364.26</ele>
  <time>2026-09-01T19:50:31Z</time>
  <course>7.99</course>
  <speed>0.0</speed>
  <fix>3d</fix>
</trkpt>
<trkpt lat="-27.2741389" lon="151.2900639">
  <ele>364.26</ele>
  <time>2026-09-01T19:50:31Z</time>
  <course>43.14</course>
  <speed>0.0</speed>
  <fix>3d</fix>
</trkpt>
<trkpt lat="-27.274439" lon="151.2900639">
  <ele>364.26</ele>
  <time>2026-09-01T19:50:31Z</time>
  <course>7.99</course>
  <speed>0.0</speed>
  <fix>3d</fix>
</trkpt>
<trkpt lat="-27.2741389" lon="151.2900639">
  <ele>364.26</ele>
  <time>2026-09-01T19:50:31Z</time>
  <course>45.36</course>
  <speed>0.0</speed>
  <fix>3d</fix>
</trkpt>
<trkpt lat="-27.274439" lon="151.2900639">
  <ele>364.26</ele>
  <time>2026-09-01T19:50:31Z</time>
  <course>7.99</course>
  <speed>0.0</speed>
  <fix>3d</fix>
</trkpt>
<trkpt lat="-27.2741389" lon="151.2900639">
  <ele>364.26</ele>
  <time>2026-09-01T19:50:31Z</time>
  <course>45.36</course>
  <speed>0.0</speed>
  <fix>3d</fix>
</trkpt>
<trkpt lat="-27.274439" lon="151.2900639">
  <ele>364.26</ele>
  <time>2026-09-01T19:50:31Z</time>
  <course>7.99</course>
  <speed>0.0</speed>
  <fix>3d</fix>
</trkpt>
<trkpt lat="-27.2741389" lon="151.2900639">
  <ele>364.26</ele>
  <time>2026-09-01T19:50:31Z</time>
  <course>48.51</course>
  <speed>0.0</speed>
  <fix>3d</fix>
</trkpt>
<trkpt lat="-27.274439" lon="151.2900639">
  <ele>364.26</ele>
  <time>2026-09-01T19:50:31Z</time>
  <course>7.99</course>
  <speed>0.0</speed>
  <fix>3d</fix>
</trkpt>
<trkpt lat="-27.2741389" lon="151.2900639">
  <ele>364.26</ele>
  <time>2026-09-01T19:50:31Z</time>
  <course>48.51</course>
  <speed>0.0</speed>
  <fix>3d</fix>
</trkpt>
<trkpt lat="-27.274439" lon="151.2900639">
  <ele>364.26</ele>
  <time>2026-09-01T19:50:31Z</time>
  <course>7.98</course>
  <speed>0.0</speed>
  <fix>3d</fix>
</trkpt>
<trkpt lat="-27.2741389" lon="151.2900639">
  <ele>364.26</ele>
  <time>2026-09-01T19:50:31Z</time>
  <course>52.64</course>
  <speed>0.0</speed>
  <fix>3d</fix>
</trkpt>
<trkpt lat="-27.274439" lon="151.290064">
  <ele>364.25</ele>
  <time>2026-09-01T19:50:31Z</time>
  <course>7.98</course>
  <speed>0.0</speed>
  <fix>3d</fix>
</trkpt>
<trkpt lat="-27.2741389" lon="151.2900639">
  <ele>364.26</ele>
  <time>2026-09-01T19:50:31Z</time>
  <course>52.64</course>
  <speed>0.0</speed>
  <fix>3d</fix>
</trkpt>
<trkpt lat="-27.274439" lon="151.290064">
  <ele>364.25</ele>
  <time>2026-09-01T19:50:31Z</time>
  <course>7.98</course>
  <speed>0.0</speed>
  <fix>3d</fix>
</trkpt>
<trkpt lat="-27.2741389" lon="151.2900639">
  <ele>364.25</ele>
  <time>2026-09-01T19:50:31Z</time>
  <course>59.58</course>
  <speed>0.0</speed>
  <fix>3d</fix>
</trkpt>
<trkpt lat="-27.274439" lon="151.290064">
  <ele>364.25</ele>
  <time>2026-09-01T19:50:31Z</time>
  <course>7.98</course>
  <speed>0.0</speed>
  <fix>3d</fix>
</trkpt>
<trkpt lat="-27.2741389" lon="151.2900639">
  <ele>364.25</ele>
  <time>2026-09-01T19:50:31Z</time>
  <course>59.58</course>
  <speed>0.0</speed>
  <fix>3d</fix>
</trkpt>
<trkpt lat="-27.2744389" lon="151.290064">
  <ele>364.25</ele>
  <time>2026-09-01T19:50:31Z</time>
  <course>7.98</course>
  <speed>0.0</speed>
  <fix>3d</fix>
</trkpt>
<trkpt lat="-27.2741389" lon="151.290064">
  <ele>364.25</ele>
  <time>2026-09-01T19:50:31Z</time>
  <course>65.58</course>
  <speed>0.0</speed>
  <fix>3d</fix>
</trkpt>
<trkpt lat="-27.2744389" lon="151.290064">
  <ele>364.25</ele>
  <time>2026-09-01T19:50:31Z</time>
  <course>7.97</course>
  <speed>0.0</speed>
  <fix>3d</fix>
</trkpt>
<trkpt lat="-27.2741389" lon="151.290064">
  <ele>364.25</ele>
  <time>2026-09-01T19:50:31Z</time>
  <course>65.58</course>
  <speed>0.0</speed>
  <fix>3d</fix>
</trkpt>
<trkpt lat="-27.2744389" lon="151.290064">
  <ele>364.25</ele>
  <time>2026-09-01T19:50:31Z</time>
  <course>7.97</course>
  <speed>0.0</speed>
  <fix>3d</fix>
</trkpt>
<trkpt lat="-27.2741389" lon="151.290064">
  <ele>364.25</ele>
  <time>2026-09-01T19:50:31Z</time>
  <course>62.06</course>
  <speed>0.0</speed>
  <fix>3d</fix>
</trkpt>
<trkpt lat="-27.2744389" lon="151.290064">
  <ele>364.25</ele>
  <time>2026-09-01T19:50:31Z</time>
  <course>7.97</course>
  <speed>0.0</speed>
  <fix>3d</fix>
</trkpt>
<trkpt lat="-27.2741389" lon="151.290064">
  <ele>364.25</ele>
  <time>2026-09-01T19:50:31Z</time>
  <course>62.06</course>
  <speed>0.0</speed>
  <fix>3d</fix>
</trkpt>
<trkpt lat="-27.2744389" lon="151.290064">
  <ele>364.25</ele>
  <time>2026-09-01T19:50:31Z</time>
  <course>7.96</course>
  <speed>0.0</speed>
  <fix>3d</fix>
</trkpt>
<trkpt lat="-27.2741388" lon="151.290064">
  <ele>364.25</ele>
  <time>2026-09-01T19:50:31Z</time>
  <course>57.08</course>
  <speed>0.0</speed>
  <fix>3d</fix>
</trkpt>
<trkpt lat="-27.2744389" lon="151.290064">
  <ele>364.25</ele>
  <time>2026-09-01T19:50:31Z</time>
  <course>7.96</course>
  <speed>0.0</speed>
  <fix>3d</fix>
</trkpt>
<trkpt lat="-27.2741388" lon="151.290064">
  <ele>364.25</ele>
  <time>2026-09-01T19:50:31Z</time>
  <course>57.08</course>
  <speed>0.0</speed>
  <fix>3d</fix>
</trkpt>
<trkpt lat="-27.2744389" lon="151.290064">
  <ele>364.25</ele>
  <time>2026-09-01T19:50:31Z</time>
  <course>7.96</course>
  <speed>0.0</speed>
  <fix>3d</fix>
</trkpt>
<trkpt lat="-27.2741388" lon="151.290064">
  <ele>364.25</ele>
  <time>2026-09-01T19:50:31Z</time>
  <course>64.52</course>
  <speed>0.0</speed>
  <fix>3d</fix>
</trkpt>
<trkpt lat="-27.2744389" lon="151.290064">
  <ele>364.25</ele>
  <time>2026-09-01T19:50:31Z</time>
  <course>7.96</course>
  <speed>0.0</speed>
  <fix>3d</fix>
</trkpt>
<trkpt lat="-27.2741388" lon="151.290064">
  <ele>364.25</ele>
  <time>2026-09-01T19:50:31Z</time>
  <course>64.52</course>
  <speed>0.0</speed>
  <fix>3d</fix>
</trkpt>
<trkpt lat="-27.2744389" lon="151.290064">
  <ele>364.25</ele>
  <time>2026-09-01T19:50:31Z</time>
  <course>7.96</course>
  <speed>0.0</speed>
  <fix>3d</fix>
</trkpt>
<trkpt lat="-27.2741388" lon="151.290064">
  <ele>364.25</ele>
  <time>2026-09-01T19:50:31Z</time>
  <course>87.79</course>
  <speed>0.0</speed>
  <fix>3d</fix>
</trkpt>
<trkpt lat="-27.2744389" lon="151.290064">
  <ele>364.25</ele>
  <time>2026-09-01T19:50:31Z</time>
  <course>7.97</course>
  <speed>0.0</speed>
  <fix>3d</fix>
</trkpt>
<trkpt lat="-27.2741388" lon="151.290064">
  <ele>364.25</ele>
  <time>2026-09-01T19:50:31Z</time>
  <course>87.79</course>
  <speed>0.0</speed>
  <fix>3d</fix>
</trkpt>
<trkpt lat="-27.2744389" lon="151.290064">
  <ele>364.26</ele>
  <time>2026-09-01T19:50:31Z</time>
  <course>7.99</course>
  <speed>0.0</speed>
  <fix>3d</fix>
</trkpt>
<trkpt lat="-27.2741388" lon="151.290064">
  <ele>364.25</ele>
  <time>2026-09-01T19:50:31Z</time>
  <course>114.67</course>
  <speed>0.0</speed>
  <fix>3d</fix>
</trkpt>
<trkpt lat="-27.2744389" lon="151.290064">
  <ele>364.26</ele>
  <time>2026-09-01T19:50:31Z</time>
  <course>7.99</course>
  <speed>0.0</speed>
  <fix>3d</fix>
</trkpt>
<trkpt lat="-27.2741388" lon="151.290064">
  <ele>364.25</ele>
  <time>2026-09-01T19:50:31Z</time>
  <course>114.67</course>
  <speed>0.0</speed>
  <fix>3d</fix>
</trkpt>
<trkpt lat="-27.2744389" lon="151.290064">
  <ele>364.26</ele>
  <time>2026-09-01T19:50:31Z</time>
  <course>8.0</course>
  <speed>0.0</speed>
  <fix>3d</fix>
</trkpt>
<trkpt lat="-27.2741388" lon="151.290064">
  <ele>364.25</ele>
  <time>2026-09-01T19:50:31Z</time>
  <course>128.45</course>
  <speed>0.0</speed>
  <fix>3d</fix>
</trkpt>
<trkpt lat="-27.2744389" lon="151.290064">
  <ele>364.26</ele>
  <time>2026-09-01T19:50:31Z</time>
  <course>8.0</course>
  <speed>0.0</speed>
  <fix>3d</fix>
</trkpt>
<trkpt lat="-27.2741388" lon="151.290064">
  <ele>364.25</ele>
  <time>2026-09-01T19:50:31Z</time>
  <course>128.45</course>
  <speed>0.0</speed>
  <fix>3d</fix>
</trkpt>
<trkpt lat="-27.2744389" lon="151.2900641">
  <ele>364.26</ele>
  <time>2026-09-01T19:50:31Z</time>
  <course>7.99</course>
  <speed>0.0</speed>
  <fix>3d</fix>
</trkpt>
<trkpt lat="-27.2741388" lon="151.290064">
  <ele>364.26</ele>
  <time>2026-09-01T19:50:31Z</time>
  <course>132.34</course>
  <speed>0.0</speed>
  <fix>3d</fix>
</trkpt>
<trkpt lat="-27.2744389" lon="151.2900641">
  <ele>364.26</ele>
  <time>2026-09-01T19:50:31Z</time>
  <course>7.99</course>
  <speed>0.0</speed>
  <fix>3d</fix>
</trkpt>
<trkpt lat="-27.2741388" lon="151.290064">
  <ele>364.26</ele>
  <time>2026-09-01T19:50:31Z</time>
  <course>132.34</course>
  <speed>0.0</speed>
  <fix>3d</fix>
</trkpt>
<trkpt lat="-27.2744389" lon="151.2900641">
  <ele>364.26</ele>
  <time>2026-09-01T19:50:31Z</time>
  <course>7.99</course>
  <speed>0.0</speed>
  <fix>3d</fix>
</trkpt>
<trkpt lat="-27.2741388" lon="151.290064">
  <ele>364.26</ele>
  <time>2026-09-01T19:50:31Z</time>
  <course>135.37</course>
  <speed>0.0</speed>
  <fix>3d</fix>
</trkpt>
<trkpt lat="-27.2744389" lon="151.2900641">
  <ele>364.26</ele>
  <time>2026-09-01T19:50:31Z</time>
  <course>7.98</course>
  <speed>0.0</speed>
  <fix>3d</fix>
</trkpt>
<trkpt lat="-27.2741388" lon="151.290064">
  <ele>364.26</ele>
  <time>2026-09-01T19:50:31Z</time>
  <course>135.37</course>
  <speed>0.0</speed>
  <fix>3d</fix>
</trkpt>
<trkpt lat="-27.2744389" lon="151.2900641">
  <ele>364.25</ele>
  <time>2026-09-01T19:50:31Z</time>
  <course>7.98</course>
  <speed>0.0</speed>
  <fix>3d</fix>
</trkpt>
<trkpt lat="-27.2741388" lon="151.2900641">
  <ele>364.26</ele>
  <time>2026-09-01T19:50:31Z</time>
  <course>140.74</course>
  <speed>0.0</speed>
  <fix>3d</fix>
</trkpt>
<trkpt lat="-27.2744389" lon="151.2900641">
  <ele>364.25</ele>
  <time>2026-09-01T19:50:31Z</time>
  <course>7.98</course>
  <speed>0.0</speed>
  <fix>3d</fix>
</trkpt>
<trkpt lat="-27.2741388" lon="151.2900641">
  <ele>364.26</ele>
  <time>2026-09-01T19:50:31Z</time>
  <course>140.74</course>
  <speed>0.0</speed>
  <fix>3d</fix>
</trkpt>
<trkpt lat="-27.2744389" lon="151.2900641">
  <ele>364.25</ele>
  <time>2026-09-01T19:50:31Z</time>
  <course>7.98</course>
  <speed>0.0</speed>
  <fix>3d</fix>
</trkpt>
<trkpt lat="-27.2741388" lon="151.2900641">
  <ele>364.25</ele>
  <time>2026-09-01T19:50:31Z</time>
  <course>147.67</course>
  <speed>0.0</speed>
  <fix>3d</fix>
</trkpt>
<trkpt lat="-27.2744389" lon="151.2900641">
  <ele>364.25</ele>
  <time>2026-09-01T19:50:31Z</time>
  <course>7.98</course>
  <speed>0.0</speed>
  <fix>3d</fix>
</trkpt>
<trkpt lat="-27.2741388" lon="151.2900641">
  <ele>364.25</ele>
  <time>2026-09-01T19:50:31Z</time>
  <course>147.67</course>
  <speed>0.0</speed>
  <fix>3d</fix>
</trkpt>
<trkpt lat="-27.2744389" lon="151.2900641">
  <ele>364.25</ele>
  <time>2026-09-01T19:50:31Z</time>
  <course>7.98</course>
  <speed>0.0</speed>
  <fix>3d</fix>
</trkpt>
<trkpt lat="-27.2741388" lon="151.2900641">
  <ele>364.25</ele>
  <time>2026-09-01T19:50:31Z</time>
  <course>159.33</course>
  <speed>0.0</speed>
  <fix>3d</fix>
</trkpt>
<trkpt lat="-27.2744389" lon="151.2900641">
  <ele>364.25</ele>
  <time>2026-09-01T19:50:31Z</time>
  <course>7.98</course>
  <speed>0.0</speed>
  <fix>3d</fix>
</trkpt>
<trkpt lat="-27.2741388" lon="151.2900641">
  <ele>364.25</ele>
  <time>2026-09-01T19:50:31Z</time>
  <course>159.33</course>
  <speed>0.0</speed>
  <fix>3d</fix>
</trkpt>
<trkpt lat="-27.2744389" lon="151.2900641">
  <ele>364.25</ele>
  <time>2026-09-01T19:50:31Z</time>
  <course>7.98</course>
  <speed>0.0</speed>
  <fix>3d</fix>
</trkpt>
<trkpt lat="-27.2741388" lon="151.2900641">
  <ele>364.25</ele>
  <time>2026-09-01T19:50:31Z</time>
  <course>175.35</course>
  <speed>0.0</speed>
  <fix>3d</fix>
</trkpt>
<trkpt lat="-27.2744389" lon="151.2900641">
  <ele>364.25</ele>
  <time>2026-09-01T19:50:31Z</time>
  <course>7.98</course>
  <speed>0.0</speed>
  <fix>3d</fix>
</trkpt>
<trkpt lat="-27.2741388" lon="151.2900641">
  <ele>364.25</ele>
  <time>2026-09-01T19:50:31Z</time>
  <course>175.35</course>
  <speed>0.0</speed>
  <fix>3d</fix>
</trkpt>
<trkpt lat="-27.2744389" lon="151.2900641">
  <ele>364.25</ele>
  <time>2026-09-01T19:50:31Z</time>
  <course>7.98</course>
  <speed>0.0</speed>
  <fix>3d</fix>
</trkpt>
<trkpt lat="-27.2741388" lon="151.2900641">
  <ele>364.25</ele>
  <time>2026-09-01T19:50:31Z</time>
  <course>185.35</course>
  <speed>0.0</speed>
  <fix>3d</fix>
</trkpt>
<trkpt lat="-27.2744389" lon="151.2900641">
  <ele>364.25</ele>
  <time>2026-09-01T19:50:31Z</time>
  <course>7.98</course>
  <speed>0.01</speed>
  <fix>3d</fix>
</trkpt>
<trkpt lat="-27.2741388" lon="151.2900641">
  <ele>364.25</ele>
  <time>2026-09-01T19:50:31Z</time>
  <course>185.35</course>
  <speed>0.0</speed>
  <fix>3d</fix>
</trkpt>
<trkpt lat="-27.2744389" lon="151.2900641">
  <ele>364.25</ele>
  <time>2026-09-01T19:50:31Z</time>
  <course>7.98</course>
  <speed>0.01</speed>
  <fix>3d</fix>
</trkpt>
<trkpt lat="-27.2741388" lon="151.2900641">
  <ele>364.25</ele>
  <time>2026-09-01T19:50:31Z</time>
  <course>191.23</course>
  <speed>0.0</speed>
  <fix>3d</fix>
</trkpt>
<trkpt lat="-27.2744389" lon="151.2900641">
  <ele>364.25</ele>
  <time>2026-09-01T19:50:31Z</time>
  <course>7.98</course>
  <speed>0.01</speed>
  <fix>3d</fix>
</trkpt>
<trkpt lat="-27.2741388" lon="151.2900641">
  <ele>364.25</ele>
  <time>2026-09-01T19:50:31Z</time>
  <course>191.23</course>
  <speed>0.0</speed>
  <fix>3d</fix>
</trkpt>
<trkpt lat="-27.274439" lon="151.2900641">
  <ele>364.25</ele>
  <time>2026-09-01T19:50:31Z</time>
  <course>7.98</course>
  <speed>0.01</speed>
  <fix>3d</fix>
</trkpt>
<trkpt lat="-27.2741388" lon="151.2900641">
  <ele>364.25</ele>
  <time>2026-09-01T19:50:31Z</time>
  <course>196.45</course>
  <speed>0.01</speed>
  <fix>3d</fix>
</trkpt>
<trkpt lat="-27.274439" lon="151.2900641">
  <ele>364.26</ele>
  <time>2026-09-01T19:50:31Z</time>
  <course>7.99</course>
  <speed>0.0</speed>
  <fix>3d</fix>
</trkpt>
<trkpt lat="-27.2741388" lon="151.2900641">
  <ele>364.25</ele>
  <time>2026-09-01T19:50:31Z</time>
  <course>196.45</course>
  <speed>0.01</speed>
  <fix>3d</fix>
</trkpt>
<trkpt lat="-27.274439" lon="151.2900641">
  <ele>364.26</ele>
  <time>2026-09-01T19:50:31Z</time>
  <course>7.99</course>
  <speed>0.0</speed>
  <fix>3d</fix>
</trkpt>
<trkpt lat="-27.2741389" lon="151.2900641">
  <ele>364.25</ele>
  <time>2026-09-01T19:50:31Z</time>
  <course>201.33</course>
  <speed>0.01</speed>
  <fix>3d</fix>
</trkpt>
<trkpt lat="-27.274439" lon="151.2900641">
  <ele>364.26</ele>
  <time>2026-09-01T19:50:31Z</time>
  <course>7.99</course>
  <speed>0.0</speed>
  <fix>3d</fix>
</trkpt>
<trkpt lat="-27.2741389" lon="151.2900641">
  <ele>364.25</ele>
  <time>2026-09-01T19:50:31Z</time>
  <course>201.33</course>
  <speed>0.01</speed>
  <fix>3d</fix>
</trkpt>
<trkpt lat="-27.274439" lon="151.2900641">
  <ele>364.26</ele>
  <time>2026-09-01T19:50:31Z</time>
  <course>7.99</course>
  <speed>0.0</speed>
  <fix>3d</fix>
</trkpt>
<trkpt lat="-27.2741389" lon="151.2900641">
  <ele>364.26</ele>
  <time>2026-09-01T19:50:31Z</time>
  <course>207.64</course>
  <speed>0.01</speed>
  <fix>3d</fix>
</trkpt>
<trkpt lat="-27.274439" lon="151.2900641">
  <ele>364.26</ele>
  <time>2026-09-01T19:50:31Z</time>
  <course>7.99</course>
  <speed>0.0</speed>
  <fix>3d</fix>
</trkpt>
<trkpt lat="-27.2741389" lon="151.2900641">
  <ele>364.26</ele>
  <time>2026-09-01T19:50:31Z</time>
  <course>207.64</course>
  <speed>0.01</speed>
  <fix>3d</fix>
</trkpt>
<trkpt lat="-27.274439" lon="151.2900641">
  <ele>364.26</ele>
  <time>2026-09-01T19:50:31Z</time>
  <course>7.99</course>
  <speed>0.0</speed>
  <fix>3d</fix>
</trkpt>
<trkpt lat="-27.2741389" lon="151.2900641">
  <ele>364.26</ele>
  <time>2026-09-01T19:50:31Z</time>
  <course>215.53</course>
  <speed>0.0</speed>
  <fix>3d</fix>
</trkpt>
<trkpt lat="-27.274439" lon="151.2900641">
  <ele>364.26</ele>
  <time>2026-09-01T19:50:31Z</time>
  <course>7.98</course>
  <speed>0.0</speed>
  <fix>3d</fix>
</trkpt>
<trkpt lat="-27.2741389" lon="151.2900641">
  <ele>364.26</ele>
  <time>2026-09-01T19:50:31Z</time>
  <course>215.53</course>
  <speed>0.0</speed>
  <fix>3d</fix>
</trkpt>
<trkpt lat="-27.274439" lon="151.2900641">
  <ele>364.26</ele>
  <time>2026-09-01T19:50:31Z</time>
  <course>7.98</course>
  <speed>0.0</speed>
  <fix>3d</fix>
</trkpt>
<trkpt lat="-27.2741389" lon="151.2900641">
  <ele>364.26</ele>
  <time>2026-09-01T19:50:31Z</time>
  <course>222.78</course>
  <speed>0.0</speed>
  <fix>3d</fix>
</trkpt>
<trkpt lat="-27.274439" lon="151.2900641">
  <ele>364.25</ele>
  <time>2026-09-01T19:50:31Z</time>
  <course>7.98</course>
  <speed>0.0</speed>
  <fix>3d</fix>
</trkpt>
<trkpt lat="-27.2741389" lon="151.2900641">
  <ele>364.26</ele>
  <time>2026-09-01T19:50:31Z</time>
  <course>222.78</course>
  <speed>0.0</speed>
  <fix>3d</fix>
</trkpt>
<trkpt lat="-27.274439" lon="151.2900641">
  <ele>364.25</ele>
  <time>2026-09-01T19:50:31Z</time>
  <course>7.98</course>
  <speed>0.0</speed>
  <fix>3d</fix>
</trkpt>
<trkpt lat="-27.2741389" lon="151.2900641">
  <ele>364.25</ele>
  <time>2026-09-01T19:50:31Z</time>
  <course>229.02</course>
  <speed>0.0</speed>
  <fix>3d</fix>
</trkpt>
<trkpt lat="-27.274439" lon="151.2900641">
  <ele>364.25</ele>
  <time>2026-09-01T19:50:31Z</time>
  <course>7.98</course>
  <speed>0.0</speed>
  <fix>3d</fix>
</trkpt>
<trkpt lat="-27.2741389" lon="151.2900641">
  <ele>364.25</ele>
  <time>2026-09-01T19:50:31Z</time>
  <course>229.02</course>
  <speed>0.0</speed>
  <fix>3d</fix>
</trkpt>
<trkpt lat="-27.274439" lon="151.2900641">
  <ele>364.25</ele>
  <time>2026-09-01T19:50:31Z</time>
  <course>7.98</course>
  <speed>0.0</speed>
  <fix>3d</fix>
</trkpt>
<trkpt lat="-27.2741389" lon="151.2900641">
  <ele>364.25</ele>
  <time>2026-09-01T19:50:31Z</time>
  <course>236.14</course>
  <speed>0.0</speed>
  <fix>3d</fix>
</trkpt>
<trkpt lat="-27.274439" lon="151.2900641">
  <ele>364.25</ele>
  <time>2026-09-01T19:50:31Z</time>
  <course>7.98</course>
  <speed>0.0</speed>
  <fix>3d</fix>
</trkpt>
<trkpt lat="-27.2741389" lon="151.2900641">
  <ele>364.25</ele>
  <time>2026-09-01T19:50:31Z</time>
  <course>236.14</course>
  <speed>0.0</speed>
  <fix>3d</fix>
</trkpt>
<trkpt lat="-27.274439" lon="151.2900641">
  <ele>364.25</ele>
  <time>2026-09-01T19:50:31Z</time>
  <course>7.98</course>
  <speed>0.0</speed>
  <fix>3d</fix>
</trkpt>
<trkpt lat="-27.2741389" lon="151.2900641">
  <ele>364.25</ele>
  <time>2026-09-01T19:50:31Z</time>
  <course>245.5</course>
  <speed>0.0</speed>
  <fix>3d</fix>
</trkpt>
<trkpt lat="-27.274439" lon="151.2900641">
  <ele>364.25</ele>
  <time>2026-09-01T19:50:31Z</time>
  <course>7.98</course>
  <speed>0.0</speed>
  <fix>3d</fix>
</trkpt>
<trkpt lat="-27.2741389" lon="151.2900641">
  <ele>364.25</ele>
  <time>2026-09-01T19:50:31Z</time>
  <course>245.5</course>
  <speed>0.0</speed>
  <fix>3d</fix>
</trkpt>
<trkpt lat="-27.274439" lon="151.2900641">
  <ele>364.25</ele>
  <time>2026-09-01T19:50:31Z</time>
  <course>7.99</course>
  <speed>0.01</speed>
  <fix>3d</fix>
</trkpt>
<trkpt lat="-27.2741389" lon="151.2900641">
  <ele>364.25</ele>
  <time>2026-09-01T19:50:31Z</time>
  <course>254.72</course>
  <speed>0.0</speed>
  <fix>3d</fix>
</trkpt>
<trkpt lat="-27.274439" lon="151.2900641">
  <ele>364.25</ele>
  <time>2026-09-01T19:50:31Z</time>
  <course>7.99</course>
  <speed>0.01</speed>
  <fix>3d</fix>
</trkpt>
<trkpt lat="-27.2741389" lon="151.2900641">
  <ele>364.25</ele>
  <time>2026-09-01T19:50:31Z</time>
  <course>254.72</course>
  <speed>0.0</speed>
  <fix>3d</fix>
</trkpt>
<trkpt lat="-27.274439" lon="151.290064">
  <ele>364.25</ele>
  <time>2026-09-01T19:50:31Z</time>
  <course>7.99</course>
  <speed>0.01</speed>
  <fix>3d</fix>
</trkpt>
<trkpt lat="-27.2741389" lon="151.2900641">
  <ele>364.25</ele>
  <time>2026-09-01T19:50:31Z</time>
  <course>263.28</course>
  <speed>0.01</speed>
  <fix>3d</fix>
</trkpt>
<trkpt lat="-27.274439" lon="151.290064">
  <ele>364.25</ele>
  <time>2026-09-01T19:50:31Z</time>
  <course>7.99</course>
  <speed>0.01</speed>
  <fix>3d</fix>
</trkpt>
<trkpt lat="-27.2741389" lon="151.2900641">
  <ele>364.25</ele>
  <time>2026-09-01T19:50:31Z</time>
  <course>263.28</course>
  <speed>0.01</speed>
  <fix>3d</fix>
</trkpt>
<trkpt lat="-27.274439" lon="151.290064">
  <ele>364.25</ele>
  <time>2026-09-01T19:50:31Z</time>
  <course>7.99</course>
  <speed>0.01</speed>
  <fix>3d</fix>
</trkpt>
<trkpt lat="-27.2741389" lon="151.290064">
  <ele>364.25</ele>
  <time>2026-09-01T19:50:31Z</time>
  <course>269.99</course>
  <speed>0.01</speed>
  <fix>3d</fix>
</trkpt>
<trkpt lat="-27.274439" lon="151.290064">
  <ele>364.25</ele>
  <time>2026-09-01T19:50:31Z</time>
  <course>7.99</course>
  <speed>0.01</speed>
  <fix>3d</fix>
</trkpt>
<trkpt lat="-27.2741389" lon="151.290064">
  <ele>364.25</ele>
  <time>2026-09-01T19:50:31Z</time>
  <course>269.99</course>
  <speed>0.01</speed>
  <fix>3d</fix>
</trkpt>
<trkpt lat="-27.274439" lon="151.290064">
  <ele>364.26</ele>
  <time>2026-09-01T19:50:31Z</time>
  <course>7.98</course>
  <speed>0.0</speed>
  <fix>3d</fix>
</trkpt>
<trkpt lat="-27.2741389" lon="151.290064">
  <ele>364.25</ele>
  <time>2026-09-01T19:50:31Z</time>
  <course>273.61</course>
  <speed>0.01</speed>
  <fix>3d</fix>
</trkpt>
<trkpt lat="-27.274439" lon="151.290064">
  <ele>364.26</ele>
  <time>2026-09-01T19:50:31Z</time>
  <course>7.98</course>
  <speed>0.0</speed>
  <fix>3d</fix>
</trkpt>
<trkpt lat="-27.2741389" lon="151.290064">
  <ele>364.25</ele>
  <time>2026-09-01T19:50:31Z</time>
  <course>273.61</course>
  <speed>0.01</speed>
  <fix>3d</fix>
</trkpt>
<trkpt lat="-27.274439" lon="151.290064">
  <ele>364.26</ele>
  <time>2026-09-01T19:50:31Z</time>
  <course>7.98</course>
  <speed>0.0</speed>
  <fix>3d</fix>
</trkpt>
<trkpt lat="-27.2741389" lon="151.290064">
  <ele>364.25</ele>
  <time>2026-09-01T19:50:31Z</time>
  <course>275.07</course>
  <speed>0.0</speed>
  <fix>3d</fix>
</trkpt>
<trkpt lat="-27.274439" lon="151.290064">
  <ele>364.26</ele>
  <time>2026-09-01T19:50:31Z</time>
  <course>7.98</course>
  <speed>0.0</speed>
  <fix>3d</fix>
</trkpt>
<trkpt lat="-27.2741389" lon="151.290064">
  <ele>364.25</ele>
  <time>2026-09-01T19:50:31Z</time>
  <course>275.07</course>
  <speed>0.0</speed>
  <fix>3d</fix>
</trkpt>
<trkpt lat="-27.274439" lon="151.290064">
  <ele>364.26</ele>
  <time>2026-09-01T19:50:31Z</time>
  <course>7.98</course>
  <speed>0.0</speed>
  <fix>3d</fix>
</trkpt>
<trkpt lat="-27.2741389" lon="151.290064">
  <ele>364.26</ele>
  <time>2026-09-01T19:50:31Z</time>
  <course>276.52</course>
  <speed>0.0</speed>
  <fix>3d</fix>
</trkpt>
<trkpt lat="-27.274439" lon="151.290064">
  <ele>364.26</ele>
  <time>2026-09-01T19:50:31Z</time>
  <course>7.98</course>
  <speed>0.0</speed>
  <fix>3d</fix>
</trkpt>
<trkpt lat="-27.2741389" lon="151.290064">
  <ele>364.26</ele>
  <time>2026-09-01T19:50:31Z</time>
  <course>276.52</course>
  <speed>0.0</speed>
  <fix>3d</fix>
</trkpt>
<trkpt lat="-27.274439" lon="151.290064">
  <ele>364.26</ele>
  <time>2026-09-01T19:50:31Z</time>
  <course>7.99</course>
  <speed>0.0</speed>
  <fix>3d</fix>
</trkpt>
<trkpt lat="-27.2741389" lon="151.290064">
  <ele>364.26</ele>
  <time>2026-09-01T19:50:31Z</time>
  <course>278.25</course>
  <speed>0.0</speed>
  <fix>3d</fix>
</trkpt>
<trkpt lat="-27.274439" lon="151.2900639">
  <ele>364.25</ele>
  <time>2026-09-01T19:50:31Z</time>
  <course>7.99</course>
  <speed>0.0</speed>
  <fix>3d</fix>
</trkpt>
<trkpt lat="-27.2741389" lon="151.290064">
  <ele>364.26</ele>
  <time>2026-09-01T19:50:31Z</time>
  <course>278.25</course>
  <speed>0.0</speed>
  <fix>3d</fix>
</trkpt>
<trkpt lat="-27.274439" lon="151.2900639">
  <ele>364.25</ele>
  <time>2026-09-01T19:50:31Z</time>
  <course>7.99</course>
  <speed>0.0</speed>
  <fix>3d</fix>
</trkpt>
<trkpt lat="-27.2741389" lon="151.2900639">
  <ele>364.25</ele>
  <time>2026-09-01T19:50:31Z</time>
  <course>281.2</course>
  <speed>0.0</speed>
  <fix>3d</fix>
</trkpt>
<trkpt lat="-27.274439" lon="151.2900639">
  <ele>364.25</ele>
  <time>2026-09-01T19:50:31Z</time>
  <course>7.99</course>
  <speed>0.0</speed>
  <fix>3d</fix>
</trkpt>
<trkpt lat="-27.2741389" lon="151.2900639">
  <ele>364.25</ele>
  <time>2026-09-01T19:50:31Z</time>
  <course>281.2</course>
  <speed>0.0</speed>
  <fix>3d</fix>
</trkpt>
<trkpt lat="-27.274439" lon="151.2900639">
  <ele>364.25</ele>
  <time>2026-09-01T19:50:31Z</time>
  <course>7.99</course>
  <speed>0.0</speed>
  <fix>3d</fix>
</trkpt>
<trkpt lat="-27.2741389" lon="151.2900639">
  <ele>364.25</ele>
  <time>2026-09-01T19:50:31Z</time>
  <course>289.39</course>
  <speed>0.0</speed>
  <fix>3d</fix>
</trkpt>
<trkpt lat="-27.274439" lon="151.2900639">
  <ele>364.25</ele>
  <time>2026-09-01T19:50:31Z</time>
  <course>7.99</course>
  <speed>0.0</speed>
  <fix>3d</fix>
</trkpt>
<trkpt lat="-27.2741389" lon="151.2900639">
  <ele>364.25</ele>
  <time>2026-09-01T19:50:31Z</time>
  <course>289.39</course>
  <speed>0.0</speed>
  <fix>3d</fix>
</trkpt>
<trkpt lat="-27.274439" lon="151.2900639">
  <ele>364.25</ele>
  <time>2026-09-01T19:50:31Z</time>
  <course>7.98</course>
  <speed>0.0</speed>
  <fix>3d</fix>
</trkpt>
<trkpt lat="-27.2741389" lon="151.2900639">
  <ele>364.25</ele>
  <time>2026-09-01T19:50:31Z</time>
  <course>288.27</course>
  <speed>0.0</speed>
  <fix>3d</fix>
</trkpt>
<trkpt lat="-27.274439" lon="151.2900639">
  <ele>364.25</ele>
  <time>2026-09-01T19:50:31Z</time>
  <course>7.98</course>
  <speed>0.0</speed>
  <fix>3d</fix>
</trkpt>
<trkpt lat="-27.2741389" lon="151.2900639">
  <ele>364.25</ele>
  <time>2026-09-01T19:50:31Z</time>
  <course>288.27</course>
  <speed>0.0</speed>
  <fix>3d</fix>
</trkpt>
<trkpt lat="-27.274439" lon="151.2900639">
  <ele>364.25</ele>
  <time>2026-09-01T19:50:31Z</time>
  <course>7.98</course>
  <speed>0.0</speed>
  <fix>3d</fix>
</trkpt>
<trkpt lat="-27.2741389" lon="151.2900639">
  <ele>364.25</ele>
  <time>2026-09-01T19:50:31Z</time>
  <course>222.66</course>
  <speed>0.0</speed>
  <fix>3d</fix>
</trkpt>
<trkpt lat="-27.274439" lon="151.2900639">
  <ele>364.25</ele>
  <time>2026-09-01T19:50:31Z</time>
  <course>7.98</course>
  <speed>0.0</speed>
  <fix>3d</fix>
</trkpt>
<trkpt lat="-27.2741389" lon="151.2900639">
  <ele>364.25</ele>
  <time>2026-09-01T19:50:31Z</time>
  <course>222.66</course>
  <speed>0.0</speed>
  <fix>3d</fix>
</trkpt>
<trkpt lat="-27.274439" lon="151.2900639">
  <ele>364.25</ele>
  <time>2026-09-01T19:50:31Z</time>
  <course>7.98</course>
  <speed>0.0</speed>
  <fix>3d</fix>
</trkpt>
<trkpt lat="-27.2741389" lon="151.2900639">
  <ele>364.25</ele>
  <time>2026-09-01T19:50:31Z</time>
  <course>176.97</course>
  <speed>0.0</speed>
  <fix>3d</fix>
</trkpt>
<trkpt lat="-27.274439" lon="151.2900639">
  <ele>364.25</ele>
  <time>2026-09-01T19:50:31Z</time>
  <course>7.98</course>
  <speed>0.0</speed>
  <fix>3d</fix>
</trkpt>
<trkpt lat="-27.2741389" lon="151.2900639">
  <ele>364.25</ele>
  <time>2026-09-01T19:50:31Z</time>
  <course>176.97</course>
  <speed>0.0</speed>
  <fix>3d</fix>
</trkpt>
<trkpt lat="-27.274439" lon="151.2900639">
  <ele>364.25</ele>
  <time>2026-09-01T19:50:31Z</time>
  <course>7.98</course>
  <speed>0.0</speed>
  <fix>3d</fix>
</trkpt>
<trkpt lat="-27.2741389" lon="151.2900639">
  <ele>364.25</ele>
  <time>2026-09-01T19:50:31Z</time>
  <course>165.85</course>
  <speed>0.0</speed>
  <fix>3d</fix>
</trkpt>
<trkpt lat="-27.274439" lon="151.2900639">
  <ele>364.25</ele>
  <time>2026-09-01T19:50:31Z</time>
  <course>7.98</course>
  <speed>0.0</speed>
  <fix>3d</fix>
</trkpt>
<trkpt lat="-27.2741389" lon="151.2900639">
  <ele>364.25</ele>
  <time>2026-09-01T19:50:31Z</time>
  <course>165.85</course>
  <speed>0.0</speed>
  <fix>3d</fix>
</trkpt>
<trkpt lat="-27.274439" lon="151.2900639">
  <ele>364.26</ele>
  <time>2026-09-01T19:50:31Z</time>
  <course>7.98</course>
  <speed>0.0</speed>
  <fix>3d</fix>
</trkpt>
<trkpt lat="-27.2741389" lon="151.2900639">
  <ele>364.25</ele>
  <time>2026-09-01T19:50:31Z</time>
  <course>156.4</course>
  <speed>0.0</speed>
  <fix>3d</fix>
</trkpt>
<trkpt lat="-27.274439" lon="151.2900639">
  <ele>364.26</ele>
  <time>2026-09-01T19:50:31Z</time>
  <course>7.99</course>
  <speed>0.0</speed>
  <fix>3d</fix>
</trkpt>
<trkpt lat="-27.2741389" lon="151.2900639">
  <ele>364.25</ele>
  <time>2026-09-01T19:50:31Z</time>
  <course>156.4</course>
  <speed>0.0</speed>
  <fix>3d</fix>
</trkpt>
<trkpt lat="-27.274439" lon="151.2900639">
  <ele>364.26</ele>
  <time>2026-09-01T19:50:31Z</time>
  <course>7.99</course>
  <speed>0.0</speed>
  <fix>3d</fix>
</trkpt>
<trkpt lat="-27.2741389" lon="151.2900639">
  <ele>364.25</ele>
  <time>2026-09-01T19:50:31Z</time>
  <course>140.05</course>
  <speed>0.0</speed>
  <fix>3d</fix>
</trkpt>
<trkpt lat="-27.2744391" lon="151.2900639">
  <ele>364.26</ele>
  <time>2026-09-01T19:50:31Z</time>
  <course>7.99</course>
  <speed>0.0</speed>
  <fix>3d</fix>
</trkpt>
<trkpt lat="-27.2741389" lon="151.2900639">
  <ele>364.25</ele>
  <time>2026-09-01T19:50:31Z</time>
  <course>140.05</course>
  <speed>0.0</speed>
  <fix>3d</fix>
</trkpt>
<trkpt lat="-27.2744391" lon="151.2900639">
  <ele>364.26</ele>
  <time>2026-09-01T19:50:31Z</time>
  <course>7.99</course>
  <speed>0.0</speed>
  <fix>3d</fix>
</trkpt>
<trkpt lat="-27.274139" lon="151.2900639">
  <ele>364.26</ele>
  <time>2026-09-01T19:50:31Z</time>
  <course>121.42</course>
  <speed>0.0</speed>
  <fix>3d</fix>
</trkpt>
<trkpt lat="-27.2744391" lon="151.2900639">
  <ele>364.26</ele>
  <time>2026-09-01T19:50:31Z</time>
  <course>7.99</course>
  <speed>0.0</speed>
  <fix>3d</fix>
</trkpt>
<trkpt lat="-27.274139" lon="151.2900639">
  <ele>364.26</ele>
  <time>2026-09-01T19:50:31Z</time>
  <course>121.42</course>
  <speed>0.0</speed>
  <fix>3d</fix>
</trkpt>
<trkpt lat="-27.2744391" lon="151.2900639">
  <ele>364.26</ele>
  <time>2026-09-01T19:50:31Z</time>
  <course>7.99</course>
  <speed>0.0</speed>
  <fix>3d</fix>
</trkpt>
<trkpt lat="-27.274139" lon="151.2900639">
  <ele>364.26</ele>
  <time>2026-09-01T19:50:31Z</time>
  <course>102.91</course>
  <speed>0.0</speed>
  <fix>3d</fix>
</trkpt>
<trkpt lat="-27.2744391" lon="151.2900639">
  <ele>364.25</ele>
  <time>2026-09-01T19:50:31Z</time>
  <course>7.98</course>
  <speed>0.0</speed>
  <fix>3d</fix>
</trkpt>
<trkpt lat="-27.274139" lon="151.2900639">
  <ele>364.26</ele>
  <time>2026-09-01T19:50:31Z</time>
  <course>102.91</course>
  <speed>0.0</speed>
  <fix>3d</fix>
</trkpt>
<trkpt lat="-27.2744391" lon="151.2900639">
  <ele>364.25</ele>
  <time>2026-09-01T19:50:31Z</time>
  <course>7.98</course>
  <speed>0.0</speed>
  <fix>3d</fix>
</trkpt>
<trkpt lat="-27.274139" lon="151.2900639">
  <ele>364.25</ele>
  <time>2026-09-01T19:50:31Z</time>
  <course>84.57</course>
  <speed>0.0</speed>
  <fix>3d</fix>
</trkpt>
<trkpt lat="-27.274439" lon="151.2900639">
  <ele>364.25</ele>
  <time>2026-09-01T19:50:31Z</time>
  <course>7.98</course>
  <speed>0.0</speed>
  <fix>3d</fix>
</trkpt>
<trkpt lat="-27.274139" lon="151.2900639">
  <ele>364.25</ele>
  <time>2026-09-01T19:50:31Z</time>
  <course>84.57</course>
  <speed>0.0</speed>
  <fix>3d</fix>
</trkpt>
<trkpt lat="-27.274439" lon="151.2900639">
  <ele>364.25</ele>
  <time>2026-09-01T19:50:31Z</time>
  <course>7.98</course>
  <speed>0.0</speed>
  <fix>3d</fix>
</trkpt>
<trkpt lat="-27.274139" lon="151.2900639">
  <ele>364.25</ele>
  <time>2026-09-01T19:50:31Z</time>
  <course>74.49</course>
  <speed>0.0</speed>
  <fix>3d</fix>
</trkpt>
<trkpt lat="-27.274439" lon="151.2900639">
  <ele>364.25</ele>
  <time>2026-09-01T19:50:31Z</time>
  <course>7.98</course>
  <speed>0.0</speed>
  <fix>3d</fix>
</trkpt>
<trkpt lat="-27.274139" lon="151.2900639">
  <ele>364.25</ele>
  <time>2026-09-01T19:50:31Z</time>
  <course>74.49</course>
  <speed>0.0</speed>
  <fix>3d</fix>
</trkpt>
<trkpt lat="-27.274439" lon="151.2900639">
  <ele>364.25</ele>
  <time>2026-09-01T19:50:31Z</time>
  <course>7.98</course>
  <speed>0.0</speed>
  <fix>3d</fix>
</trkpt>
<trkpt lat="-27.2741389" lon="151.2900639">
  <ele>364.25</ele>
  <time>2026-09-01T19:50:31Z</time>
  <course>68.77</course>
  <speed>0.0</speed>
  <fix>3d</fix>
</trkpt>
<trkpt lat="-27.274439" lon="151.2900639">
  <ele>364.25</ele>
  <time>2026-09-01T19:50:31Z</time>
  <course>7.98</course>
  <speed>0.0</speed>
  <fix>3d</fix>
</trkpt>
<trkpt lat="-27.2741389" lon="151.2900639">
  <ele>364.25</ele>
  <time>2026-09-01T19:50:31Z</time>
  <course>68.77</course>
  <speed>0.0</speed>
  <fix>3d</fix>
</trkpt>
<trkpt lat="-27.274439" lon="151.2900639">
  <ele>364.25</ele>
  <time>2026-09-01T19:50:31Z</time>
  <course>7.98</course>
  <speed>0.0</speed>
  <fix>3d</fix>
</trkpt>
<trkpt lat="-27.2741389" lon="151.2900639">
  <ele>364.25</ele>
  <time>2026-09-01T19:50:31Z</time>
  <course>63.46</course>
  <speed>0.0</speed>
  <fix>3d</fix>
</trkpt>
<trkpt lat="-27.274439" lon="151.2900639">
  <ele>364.25</ele>
  <time>2026-09-01T19:50:31Z</time>
  <course>7.98</course>
  <speed>0.0</speed>
  <fix>3d</fix>
</trkpt>
<trkpt lat="-27.2741389" lon="151.2900639">
  <ele>364.25</ele>
  <time>2026-09-01T19:50:31Z</time>
  <course>63.46</course>
  <speed>0.0</speed>
  <fix>3d</fix>
</trkpt>
<trkpt lat="-27.274439" lon="151.2900639">
  <ele>364.25</ele>
  <time>2026-09-01T19:50:31Z</time>
  <course>7.98</course>
  <speed>0.0</speed>
  <fix>3d</fix>
</trkpt>
<trkpt lat="-27.2741389" lon="151.2900639">
  <ele>364.25</ele>
  <time>2026-09-01T19:50:31Z</time>
  <course>58.1</course>
  <speed>0.0</speed>
  <fix>3d</fix>
</trkpt>
<trkpt lat="-27.274439" lon="151.2900639">
  <ele>364.25</ele>
  <time>2026-09-01T19:50:31Z</time>
  <course>7.98</course>
  <speed>0.0</speed>
  <fix>3d</fix>
</trkpt>
<trkpt lat="-27.2741389" lon="151.2900639">
  <ele>364.25</ele>
  <time>2026-09-01T19:50:31Z</time>
  <course>58.1</course>
  <speed>0.0</speed>
  <fix>3d</fix>
</trkpt>
<trkpt lat="-27.274439" lon="151.2900639">
  <ele>364.25</ele>
  <time>2026-09-01T19:50:31Z</time>
  <course>7.99</course>
  <speed>0.0</speed>
  <fix>3d</fix>
</trkpt>
<trkpt lat="-27.2741389" lon="151.2900639">
  <ele>364.25</ele>
  <time>2026-09-01T19:50:31Z</time>
  <course>51.54</course>
  <speed>0.0</speed>
  <fix>3d</fix>
</trkpt>
<trkpt lat="-27.274439" lon="151.2900639">
  <ele>364.25</ele>
  <time>2026-09-01T19:50:31Z</time>
  <course>7.99</course>
  <speed>0.0</speed>
  <fix>3d</fix>
</trkpt>
<trkpt lat="-27.2741389" lon="151.2900639">
  <ele>364.25</ele>
  <time>2026-09-01T19:50:31Z</time>
  <course>51.54</course>
  <speed>0.0</speed>
  <fix>3d</fix>
</trkpt>
<trkpt lat="-27.274439" lon="151.2900639">
  <ele>364.26</ele>
  <time>2026-09-01T19:50:31Z</time>
  <course>7.99</course>
  <speed>0.0</speed>
  <fix>3d</fix>
</trkpt>
<trkpt lat="-27.2741389" lon="151.2900639">
  <ele>364.25</ele>
  <time>2026-09-01T19:50:31Z</time>
  <course>49.11</course>
  <speed>0.0</speed>
  <fix>3d</fix>
</trkpt>
<trkpt lat="-27.274439" lon="151.2900639">
  <ele>364.26</ele>
  <time>2026-09-01T19:50:31Z</time>
  <course>7.99</course>
  <speed>0.0</speed>
  <fix>3d</fix>
</trkpt>
<trkpt lat="-27.2741389" lon="151.2900639">
  <ele>364.25</ele>
  <time>2026-09-01T19:50:31Z</time>
  <course>49.11</course>
  <speed>0.0</speed>
  <fix>3d</fix>
</trkpt>
<trkpt lat="-27.274439" lon="151.290064">
  <ele>364.26</ele>
  <time>2026-09-01T19:50:31Z</time>
  <course>7.99</course>
  <speed>0.0</speed>
  <fix>3d</fix>
</trkpt>
<trkpt lat="-27.2741389" lon="151.2900639">
  <ele>364.25</ele>
  <time>2026-09-01T19:50:31Z</time>
  <course>51.02</course>
  <speed>0.0</speed>
  <fix>3d</fix>
</trkpt>
<trkpt lat="-27.274439" lon="151.290064">
  <ele>364.26</ele>
  <time>2026-09-01T19:50:31Z</time>
  <course>7.99</course>
  <speed>0.0</speed>
  <fix>3d</fix>
</trkpt>
<trkpt lat="-27.2741389" lon="151.2900639">
  <ele>364.25</ele>
  <time>2026-09-01T19:50:31Z</time>
  <course>51.02</course>
  <speed>0.0</speed>
  <fix>3d</fix>
</trkpt>
<trkpt lat="-27.274439" lon="151.290064">
  <ele>364.26</ele>
  <time>2026-09-01T19:50:31Z</time>
  <course>7.98</course>
  <speed>0.0</speed>
  <fix>3d</fix>
</trkpt>
<trkpt lat="-27.2741389" lon="151.2900639">
  <ele>364.26</ele>
  <time>2026-09-01T19:50:31Z</time>
  <course>54.73</course>
  <speed>0.0</speed>
  <fix>3d</fix>
</trkpt>
<trkpt lat="-27.274439" lon="151.290064">
  <ele>364.26</ele>
  <time>2026-09-01T19:50:31Z</time>
  <course>7.98</course>
  <speed>0.0</speed>
  <fix>3d</fix>
</trkpt>
<trkpt lat="-27.2741389" lon="151.2900639">
  <ele>364.26</ele>
  <time>2026-09-01T19:50:31Z</time>
  <course>54.73</course>
  <speed>0.0</speed>
  <fix>3d</fix>
</trkpt>
<trkpt lat="-27.274439" lon="151.290064">
  <ele>364.26</ele>
  <time>2026-09-01T19:50:31Z</time>
  <course>7.98</course>
  <speed>0.0</speed>
  <fix>3d</fix>
</trkpt>
<trkpt lat="-27.2741389" lon="151.290064">
  <ele>364.26</ele>
  <time>2026-09-01T19:50:31Z</time>
  <course>56.98</course>
  <speed>0.0</speed>
  <fix>3d</fix>
</trkpt>
<trkpt lat="-27.274439" lon="151.290064">
  <ele>364.25</ele>
  <time>2026-09-01T19:50:31Z</time>
  <course>7.99</course>
  <speed>0.0</speed>
  <fix>3d</fix>
</trkpt>
<trkpt lat="-27.2741389" lon="151.290064">
  <ele>364.26</ele>
  <time>2026-09-01T19:50:31Z</time>
  <course>56.98</course>
  <speed>0.0</speed>
  <fix>3d</fix>
</trkpt>
<trkpt lat="-27.274439" lon="151.290064">
  <ele>364.25</ele>
  <time>2026-09-01T19:50:31Z</time>
  <course>7.99</course>
  <speed>0.0</speed>
  <fix>3d</fix>
</trkpt>
<trkpt lat="-27.2741389" lon="151.290064">
  <ele>364.25</ele>
  <time>2026-09-01T19:50:31Z</time>
  <course>57.49</course>
  <speed>0.0</speed>
  <fix>3d</fix>
</trkpt>
<trkpt lat="-27.274439" lon="151.290064">
  <ele>364.25</ele>
  <time>2026-09-01T19:50:31Z</time>
  <course>7.99</course>
  <speed>0.0</speed>
  <fix>3d</fix>
</trkpt>
<trkpt lat="-27.2741389" lon="151.290064">
  <ele>364.25</ele>
  <time>2026-09-01T19:50:31Z</time>
  <course>57.49</course>
  <speed>0.0</speed>
  <fix>3d</fix>
</trkpt>
<trkpt lat="-27.274439" lon="151.290064">
  <ele>364.25</ele>
  <time>2026-09-01T19:50:31Z</time>
  <course>7.99</course>
  <speed>0.0</speed>
  <fix>3d</fix>
</trkpt>
<trkpt lat="-27.2741389" lon="151.290064">
  <ele>364.25</ele>
  <time>2026-09-01T19:50:31Z</time>
  <course>59.44</course>
  <speed>0.0</speed>
  <fix>3d</fix>
</trkpt>
<trkpt lat="-27.274439" lon="151.290064">
  <ele>364.25</ele>
  <time>2026-09-01T19:50:31Z</time>
  <course>7.99</course>
  <speed>0.0</speed>
  <fix>3d</fix>
</trkpt>
<trkpt lat="-27.2741389" lon="151.290064">
  <ele>364.25</ele>
  <time>2026-09-01T19:50:31Z</time>
  <course>59.44</course>
  <speed>0.0</speed>
  <fix>3d</fix>
</trkpt>
<trkpt lat="-27.274439" lon="151.290064">
  <ele>364.25</ele>
  <time>2026-09-01T19:50:31Z</time>
  <course>7.98</course>
  <speed>0.0</speed>
  <fix>3d</fix>
</trkpt>
<trkpt lat="-27.2741389" lon="151.290064">
  <ele>364.25</ele>
  <time>2026-09-01T19:50:31Z</time>
  <course>57.2</course>
  <speed>0.0</speed>
  <fix>3d</fix>
</trkpt>
<trkpt lat="-27.274439" lon="151.290064">
  <ele>364.25</ele>
  <time>2026-09-01T19:50:31Z</time>
  <course>7.98</course>
  <speed>0.0</speed>
  <fix>3d</fix>
</trkpt>
<trkpt lat="-27.2741389" lon="151.290064">
  <ele>364.25</ele>
  <time>2026-09-01T19:50:31Z</time>
  <course>57.2</course>
  <speed>0.0</speed>
  <fix>3d</fix>
</trkpt>
<trkpt lat="-27.274439" lon="151.290064">
  <ele>364.25</ele>
  <time>2026-09-01T19:50:31Z</time>
  <course>7.98</course>
  <speed>0.0</speed>
  <fix>3d</fix>
</trkpt>
<trkpt lat="-27.2741389" lon="151.290064">
  <ele>364.25</ele>
  <time>2026-09-01T19:50:31Z</time>
  <course>47.7</course>
  <speed>0.0</speed>
  <fix>3d</fix>
</trkpt>
<trkpt lat="-27.274439" lon="151.290064">
  <ele>364.25</ele>
  <time>2026-09-01T19:50:31Z</time>
  <course>7.98</course>
  <speed>0.0</speed>
  <fix>3d</fix>
</trkpt>
<trkpt lat="-27.2741389" lon="151.290064">
  <ele>364.25</ele>
  <time>2026-09-01T19:50:31Z</time>
  <course>47.7</course>
  <speed>0.0</speed>
  <fix>3d</fix>
</trkpt>
<trkpt lat="-27.274439" lon="151.2900641">
  <ele>364.25</ele>
  <time>2026-09-01T19:50:31Z</time>
  <course>7.98</course>
  <speed>0.0</speed>
  <fix>3d</fix>
</trkpt>
<trkpt lat="-27.2741389" lon="151.290064">
  <ele>364.25</ele>
  <time>2026-09-01T19:50:31Z</time>
  <course>39.6</course>
  <speed>0.01</speed>
  <fix>3d</fix>
</trkpt>
<trkpt lat="-27.274439" lon="151.2900641">
  <ele>364.25</ele>
  <time>2026-09-01T19:50:31Z</time>
  <course>7.98</course>
  <speed>0.0</speed>
  <fix>3d</fix>
</trkpt>
<trkpt lat="-27.2741389" lon="151.290064">
  <ele>364.25</ele>
  <time>2026-09-01T19:50:31Z</time>
  <course>39.6</course>
  <speed>0.01</speed>
  <fix>3d</fix>
</trkpt>
<trkpt lat="-27.274439" lon="151.2900641">
  <ele>364.25</ele>
  <time>2026-09-01T19:50:31Z</time>
  <course>7.98</course>
  <speed>0.0</speed>
  <fix>3d</fix>
</trkpt>
<trkpt lat="-27.2741389" lon="151.290064">
  <ele>364.25</ele>
  <time>2026-09-01T19:50:31Z</time>
  <course>36.87</course>
  <speed>0.01</speed>
  <fix>3d</fix>
</trkpt>
<trkpt lat="-27.274439" lon="151.2900641">
  <ele>364.25</ele>
  <time>2026-09-01T19:50:31Z</time>
  <course>7.98</course>
  <speed>0.0</speed>
  <fix>3d</fix>
</trkpt>
<trkpt lat="-27.2741389" lon="151.290064">
  <ele>364.25</ele>
  <time>2026-09-01T19:50:31Z</time>
  <course>36.87</course>
  <speed>0.01</speed>
  <fix>3d</fix>
</trkpt>
<trkpt lat="-27.274439" lon="151.2900641">
  <ele>364.26</ele>
  <time>2026-09-01T19:50:31Z</time>
  <course>7.98</course>
  <speed>0.0</speed>
  <fix>3d</fix>
</trkpt>
<trkpt lat="-27.2741389" lon="151.2900641">
  <ele>364.25</ele>
  <time>2026-09-01T19:50:31Z</time>
  <course>36.93</course>
  <speed>0.0</speed>
  <fix>3d</fix>
</trkpt>
<trkpt lat="-27.274439" lon="151.2900641">
  <ele>364.26</ele>
  <time>2026-09-01T19:50:31Z</time>
  <course>7.98</course>
  <speed>0.0</speed>
  <fix>3d</fix>
</trkpt>
<trkpt lat="-27.2741389" lon="151.2900641">
  <ele>364.25</ele>
  <time>2026-09-01T19:50:31Z</time>
  <course>36.93</course>
  <speed>0.0</speed>
  <fix>3d</fix>
</trkpt>
<trkpt lat="-27.274439" lon="151.2900641">
  <ele>364.26</ele>
  <time>2026-09-01T19:50:31Z</time>
  <course>7.98</course>
  <speed>0.0</speed>
  <fix>3d</fix>
</trkpt>
<trkpt lat="-27.2741389" lon="151.2900641">
  <ele>364.25</ele>
  <time>2026-09-01T19:50:31Z</time>
  <course>36.79</course>
  <speed>0.0</speed>
  <fix>3d</fix>
</trkpt>
<trkpt lat="-27.274439" lon="151.2900641">
  <ele>364.26</ele>
  <time>2026-09-01T19:50:31Z</time>
  <course>7.98</course>
  <speed>0.0</speed>
  <fix>3d</fix>
</trkpt>
<trkpt lat="-27.2741389" lon="151.2900641">
  <ele>364.25</ele>
  <time>2026-09-01T19:50:31Z</time>
  <course>36.79</course>
  <speed>0.0</speed>
  <fix>3d</fix>
</trkpt>
<trkpt lat="-27.274439" lon="151.2900641">
  <ele>364.26</ele>
  <time>2026-09-01T19:50:31Z</time>
  <course>7.98</course>
  <speed>0.0</speed>
  <fix>3d</fix>
</trkpt>
<trkpt lat="-27.2741389" lon="151.2900641">
  <ele>364.26</ele>
  <time>2026-09-01T19:50:31Z</time>
  <course>36.65</course>
  <speed>0.0</speed>
  <fix>3d</fix>
</trkpt>
<trkpt lat="-27.274439" lon="151.2900641">
  <ele>364.26</ele>
  <time>2026-09-01T19:50:31Z</time>
  <course>7.98</course>
  <speed>0.0</speed>
  <fix>3d</fix>
</trkpt>
<trkpt lat="-27.2741389" lon="151.2900641">
  <ele>364.26</ele>
  <time>2026-09-01T19:50:31Z</time>
  <course>36.65</course>
  <speed>0.0</speed>
  <fix>3d</fix>
</trkpt>
<trkpt lat="-27.274439" lon="151.2900641">
  <ele>364.26</ele>
  <time>2026-09-01T19:50:31Z</time>
  <course>7.98</course>
  <speed>0.0</speed>
  <fix>3d</fix>
</trkpt>
<trkpt lat="-27.2741389" lon="151.2900641">
  <ele>364.26</ele>
  <time>2026-09-01T19:50:31Z</time>
  <course>34.38</course>
  <speed>0.0</speed>
  <fix>3d</fix>
</trkpt>
<trkpt lat="-27.274439" lon="151.2900641">
  <ele>364.25</ele>
  <time>2026-09-01T19:50:31Z</time>
  <course>7.98</course>
  <speed>0.0</speed>
  <fix>3d</fix>
</trkpt>
<trkpt lat="-27.2741389" lon="151.2900641">
  <ele>364.26</ele>
  <time>2026-09-01T19:50:31Z</time>
  <course>34.38</course>
  <speed>0.0</speed>
  <fix>3d</fix>
</trkpt>
<trkpt lat="-27.274439" lon="151.2900641">
  <ele>364.25</ele>
  <time>2026-09-01T19:50:31Z</time>
  <course>7.98</course>
  <speed>0.0</speed>
  <fix>3d</fix>
</trkpt>
<trkpt lat="-27.2741389" lon="151.2900641">
  <ele>364.25</ele>
  <time>2026-09-01T19:50:31Z</time>
  <course>354.85</course>
  <speed>0.0</speed>
  <fix>3d</fix>
</trkpt>
<trkpt lat="-27.274439" lon="151.2900641">
  <ele>364.25</ele>
  <time>2026-09-01T19:50:31Z</time>
  <course>7.98</course>
  <speed>0.0</speed>
  <fix>3d</fix>
</trkpt>
<trkpt lat="-27.2741389" lon="151.2900641">
  <ele>364.25</ele>
  <time>2026-09-01T19:50:31Z</time>
  <course>354.85</course>
  <speed>0.0</speed>
  <fix>3d</fix>
</trkpt>
<trkpt lat="-27.274439" lon="151.2900641">
  <ele>364.25</ele>
  <time>2026-09-01T19:50:31Z</time>
  <course>7.98</course>
  <speed>0.0</speed>
  <fix>3d</fix>
</trkpt>
<trkpt lat="-27.2741389" lon="151.2900641">
  <ele>364.25</ele>
  <time>2026-09-01T19:50:31Z</time>
  <course>246.61</course>
  <speed>0.0</speed>
  <fix>3d</fix>
</trkpt>
<trkpt lat="-27.274439" lon="151.2900641">
  <ele>364.25</ele>
  <time>2026-09-01T19:50:31Z</time>
  <course>7.98</course>
  <speed>0.0</speed>
  <fix>3d</fix>
</trkpt>
<trkpt lat="-27.2741389" lon="151.2900641">
  <ele>364.25</ele>
  <time>2026-09-01T19:50:31Z</time>
  <course>246.61</course>
  <speed>0.0</speed>
  <fix>3d</fix>
</trkpt>
<trkpt lat="-27.274439" lon="151.2900641">
  <ele>364.25</ele>
  <time>2026-09-01T19:50:31Z</time>
  <course>7.98</course>
  <speed>0.0</speed>
  <fix>3d</fix>
</trkpt>
<trkpt lat="-27.2741389" lon="151.2900641">
  <ele>364.25</ele>
  <time>2026-09-01T19:50:31Z</time>
  <course>245.72</course>
  <speed>0.0</speed>
  <fix>3d</fix>
</trkpt>
<trkpt lat="-27.274439" lon="151.2900641">
  <ele>364.25</ele>
  <time>2026-09-01T19:50:31Z</time>
  <course>7.98</course>
  <speed>0.0</speed>
  <fix>3d</fix>
</trkpt>
<trkpt lat="-27.2741389" lon="151.2900641">
  <ele>364.25</ele>
  <time>2026-09-01T19:50:31Z</time>
  <course>245.72</course>
  <speed>0.0</speed>
  <fix>3d</fix>
</trkpt>
<trkpt lat="-27.274439" lon="151.2900641">
  <ele>364.25</ele>
  <time>2026-09-01T19:50:31Z</time>
  <course>7.98</course>
  <speed>0.0</speed>
  <fix>3d</fix>
</trkpt>
<trkpt lat="-27.2741389" lon="151.2900641">
  <ele>364.25</ele>
  <time>2026-09-01T19:50:31Z</time>
  <course>265.85</course>
  <speed>0.0</speed>
  <fix>3d</fix>
</trkpt>
<trkpt lat="-27.274439" lon="151.2900641">
  <ele>364.25</ele>
  <time>2026-09-01T19:50:31Z</time>
  <course>7.98</course>
  <speed>0.0</speed>
  <fix>3d</fix>
</trkpt>
<trkpt lat="-27.2741389" lon="151.2900641">
  <ele>364.25</ele>
  <time>2026-09-01T19:50:31Z</time>
  <course>265.85</course>
  <speed>0.0</speed>
  <fix>3d</fix>
</trkpt>
<trkpt lat="-27.274439" lon="151.2900641">
  <ele>364.25</ele>
  <time>2026-09-01T19:50:31Z</time>
  <course>7.98</course>
  <speed>0.0</speed>
  <fix>3d</fix>
</trkpt>
<trkpt lat="-27.2741389" lon="151.2900641">
  <ele>364.25</ele>
  <time>2026-09-01T19:50:31Z</time>
  <course>280.04</course>
  <speed>0.0</speed>
  <fix>3d</fix>
</trkpt>
<trkpt lat="-27.274439" lon="151.2900641">
  <ele>364.25</ele>
  <time>2026-09-01T19:50:31Z</time>
  <course>7.98</course>
  <speed>0.0</speed>
  <fix>3d</fix>
</trkpt>
<trkpt lat="-27.2741389" lon="151.2900641">
  <ele>364.25</ele>
  <time>2026-09-01T19:50:31Z</time>
  <course>280.04</course>
  <speed>0.0</speed>
  <fix>3d</fix>
</trkpt>
<trkpt lat="-27.274439" lon="151.2900641">
  <ele>364.25</ele>
  <time>2026-09-01T19:50:31Z</time>
  <course>7.98</course>
  <speed>0.0</speed>
  <fix>3d</fix>
</trkpt>
<trkpt lat="-27.2741389" lon="151.2900641">
  <ele>364.25</ele>
  <time>2026-09-01T19:50:31Z</time>
  <course>274.36</course>
  <speed>0.0</speed>
  <fix>3d</fix>
</trkpt>
<trkpt lat="-27.274439" lon="151.2900641">
  <ele>364.25</ele>
  <time>2026-09-01T19:50:31Z</time>
  <course>7.98</course>
  <speed>0.0</speed>
  <fix>3d</fix>
</trkpt>
<trkpt lat="-27.2741389" lon="151.2900641">
  <ele>364.25</ele>
  <time>2026-09-01T19:50:31Z</time>
  <course>274.36</course>
  <speed>0.0</speed>
  <fix>3d</fix>
</trkpt>
<trkpt lat="-27.274439" lon="151.2900641">
  <ele>364.26</ele>
  <time>2026-09-01T19:50:31Z</time>
  <course>7.99</course>
  <speed>0.0</speed>
  <fix>3d</fix>
</trkpt>
<trkpt lat="-27.2741389" lon="151.2900641">
  <ele>364.25</ele>
  <time>2026-09-01T19:50:31Z</time>
  <course>262.99</course>
  <speed>0.0</speed>
  <fix>3d</fix>
</trkpt>
<trkpt lat="-27.274439" lon="151.2900641">
  <ele>364.26</ele>
  <time>2026-09-01T19:50:31Z</time>
  <course>7.98</course>
  <speed>0.0</speed>
  <fix>3d</fix>
</trkpt>
<trkpt lat="-27.2741389" lon="151.2900641">
  <ele>364.25</ele>
  <time>2026-09-01T19:50:31Z</time>
  <course>262.99</course>
  <speed>0.0</speed>
  <fix>3d</fix>
</trkpt>
<trkpt lat="-27.274439" lon="151.2900641">
  <ele>364.26</ele>
  <time>2026-09-01T19:50:31Z</time>
  <course>7.98</course>
  <speed>0.0</speed>
  <fix>3d</fix>
</trkpt>
<trkpt lat="-27.2741389" lon="151.2900641">
  <ele>364.25</ele>
  <time>2026-09-01T19:50:31Z</time>
  <course>253.95</course>
  <speed>0.0</speed>
  <fix>3d</fix>
</trkpt>
<trkpt lat="-27.274439" lon="151.2900641">
  <ele>364.26</ele>
  <time>2026-09-01T19:50:31Z</time>
  <course>7.99</course>
  <speed>0.0</speed>
  <fix>3d</fix>
</trkpt>
<trkpt lat="-27.2741389" lon="151.2900641">
  <ele>364.25</ele>
  <time>2026-09-01T19:50:31Z</time>
  <course>253.95</course>
  <speed>0.0</speed>
  <fix>3d</fix>
</trkpt>
<trkpt lat="-27.274439" lon="151.2900641">
  <ele>364.26</ele>
  <time>2026-09-01T19:50:31Z</time>
  <course>7.99</course>
  <speed>0.0</speed>
  <fix>3d</fix>
</trkpt>
<trkpt lat="-27.2741389" lon="151.2900641">
  <ele>364.26</ele>
  <time>2026-09-01T19:50:31Z</time>
  <course>246.53</course>
  <speed>0.0</speed>
  <fix>3d</fix>
</trkpt>
<trkpt lat="-27.274439" lon="151.2900641">
  <ele>364.26</ele>
  <time>2026-09-01T19:50:31Z</time>
  <course>7.98</course>
  <speed>0.0</speed>
  <fix>3d</fix>
</trkpt>
<trkpt lat="-27.2741389" lon="151.2900641">
  <ele>364.26</ele>
  <time>2026-09-01T19:50:31Z</time>
  <course>246.53</course>
  <speed>0.0</speed>
  <fix>3d</fix>
</trkpt>
<trkpt lat="-27.274439" lon="151.2900641">
  <ele>364.25</ele>
  <time>2026-09-01T19:50:31Z</time>
  <course>7.98</course>
  <speed>0.0</speed>
  <fix>3d</fix>
</trkpt>
<trkpt lat="-27.2741389" lon="151.2900641">
  <ele>364.26</ele>
  <time>2026-09-01T19:50:31Z</time>
  <course>242.27</course>
  <speed>0.0</speed>
  <fix>3d</fix>
</trkpt>
<trkpt lat="-27.274439" lon="151.2900641">
  <ele>364.25</ele>
  <time>2026-09-01T19:50:31Z</time>
  <course>7.98</course>
  <speed>0.0</speed>
  <fix>3d</fix>
</trkpt>
<trkpt lat="-27.2741389" lon="151.2900641">
  <ele>364.26</ele>
  <time>2026-09-01T19:50:31Z</time>
  <course>242.27</course>
  <speed>0.0</speed>
  <fix>3d</fix>
</trkpt>
<trkpt lat="-27.274439" lon="151.2900641">
  <ele>364.25</ele>
  <time>2026-09-01T19:50:31Z</time>
  <course>7.98</course>
  <speed>0.0</speed>
  <fix>3d</fix>
</trkpt>
<trkpt lat="-27.2741389" lon="151.2900641">
  <ele>364.25</ele>
  <time>2026-09-01T19:50:31Z</time>
  <course>242.85</course>
  <speed>0.0</speed>
  <fix>3d</fix>
</trkpt>
<trkpt lat="-27.274439" lon="151.2900641">
  <ele>364.25</ele>
  <time>2026-09-01T19:50:31Z</time>
  <course>7.98</course>
  <speed>0.0</speed>
  <fix>3d</fix>
</trkpt>
<trkpt lat="-27.2741389" lon="151.2900641">
  <ele>364.25</ele>
  <time>2026-09-01T19:50:31Z</time>
  <course>242.85</course>
  <speed>0.0</speed>
  <fix>3d</fix>
</trkpt>
<trkpt lat="-27.274439" lon="151.2900641">
  <ele>364.25</ele>
  <time>2026-09-01T19:50:31Z</time>
  <course>7.98</course>
  <speed>0.0</speed>
  <fix>3d</fix>
</trkpt>
<trkpt lat="-27.2741389" lon="151.2900641">
  <ele>364.25</ele>
  <time>2026-09-01T19:50:31Z</time>
  <course>245.2</course>
  <speed>0.0</speed>
  <fix>3d</fix>
</trkpt>
<trkpt lat="-27.274439" lon="151.2900641">
  <ele>364.25</ele>
  <time>2026-09-01T19:50:31Z</time>
  <course>7.98</course>
  <speed>0.0</speed>
  <fix>3d</fix>
</trkpt>
<trkpt lat="-27.2741389" lon="151.2900641">
  <ele>364.25</ele>
  <time>2026-09-01T19:50:31Z</time>
  <course>245.2</course>
  <speed>0.0</speed>
  <fix>3d</fix>
</trkpt>
<trkpt lat="-27.274439" lon="151.2900641">
  <ele>364.25</ele>
  <time>2026-09-01T19:50:31Z</time>
  <course>7.98</course>
  <speed>0.0</speed>
  <fix>3d</fix>
</trkpt>
<trkpt lat="-27.2741389" lon="151.2900641">
  <ele>364.25</ele>
  <time>2026-09-01T19:50:31Z</time>
  <course>245.71</course>
  <speed>0.0</speed>
  <fix>3d</fix>
</trkpt>
<trkpt lat="-27.274439" lon="151.2900641">
  <ele>364.25</ele>
  <time>2026-09-01T19:50:31Z</time>
  <course>7.98</course>
  <speed>0.0</speed>
  <fix>3d</fix>
</trkpt>
<trkpt lat="-27.2741389" lon="151.2900641">
  <ele>364.25</ele>
  <time>2026-09-01T19:50:31Z</time>
  <course>245.71</course>
  <speed>0.0</speed>
  <fix>3d</fix>
</trkpt>
<trkpt lat="-27.274439" lon="151.290064">
  <ele>364.25</ele>
  <time>2026-09-01T19:50:31Z</time>
  <course>7.98</course>
  <speed>0.0</speed>
  <fix>3d</fix>
</trkpt>
<trkpt lat="-27.2741389" lon="151.2900641">
  <ele>364.25</ele>
  <time>2026-09-01T19:50:31Z</time>
  <course>242.77</course>
  <speed>0.0</speed>
  <fix>3d</fix>
</trkpt>
<trkpt lat="-27.274439" lon="151.290064">
  <ele>364.25</ele>
  <time>2026-09-01T19:50:31Z</time>
  <course>7.98</course>
  <speed>0.0</speed>
  <fix>3d</fix>
</trkpt>
<trkpt lat="-27.2741389" lon="151.2900641">
  <ele>364.25</ele>
  <time>2026-09-01T19:50:31Z</time>
  <course>242.77</course>
  <speed>0.0</speed>
  <fix>3d</fix>
</trkpt>
<trkpt lat="-27.274439" lon="151.290064">
  <ele>364.25</ele>
  <time>2026-09-01T19:50:31Z</time>
  <course>7.98</course>
  <speed>0.0</speed>
  <fix>3d</fix>
</trkpt>
<trkpt lat="-27.2741389" lon="151.290064">
  <ele>364.25</ele>
  <time>2026-09-01T19:50:31Z</time>
  <course>238.94</course>
  <speed>0.0</speed>
  <fix>3d</fix>
</trkpt>
<trkpt lat="-27.274439" lon="151.290064">
  <ele>364.25</ele>
  <time>2026-09-01T19:50:31Z</time>
  <course>7.98</course>
  <speed>0.0</speed>
  <fix>3d</fix>
</trkpt>
<trkpt lat="-27.2741389" lon="151.290064">
  <ele>364.25</ele>
  <time>2026-09-01T19:50:31Z</time>
  <course>238.94</course>
  <speed>0.0</speed>
  <fix>3d</fix>
</trkpt>
<trkpt lat="-27.274439" lon="151.290064">
  <ele>364.25</ele>
  <time>2026-09-01T19:50:31Z</time>
  <course>7.98</course>
  <speed>0.0</speed>
  <fix>3d</fix>
</trkpt>
<trkpt lat="-27.2741389" lon="151.290064">
  <ele>364.25</ele>
  <time>2026-09-01T19:50:31Z</time>
  <course>238.61</course>
  <speed>0.0</speed>
  <fix>3d</fix>
</trkpt>
<trkpt lat="-27.274439" lon="151.290064">
  <ele>364.26</ele>
  <time>2026-09-01T19:50:31Z</time>
  <course>7.99</course>
  <speed>0.0</speed>
  <fix>3d</fix>
</trkpt>
<trkpt lat="-27.2741389" lon="151.290064">
  <ele>364.25</ele>
  <time>2026-09-01T19:50:31Z</time>
  <course>238.61</course>
  <speed>0.0</speed>
  <fix>3d</fix>
</trkpt>
<trkpt lat="-27.274439" lon="151.290064">
  <ele>364.26</ele>
  <time>2026-09-01T19:50:31Z</time>
  <course>7.98</course>
  <speed>0.0</speed>
  <fix>3d</fix>
</trkpt>
<trkpt lat="-27.2741389" lon="151.290064">
  <ele>364.25</ele>
  <time>2026-09-01T19:50:31Z</time>
  <course>241.8</course>
  <speed>0.0</speed>
  <fix>3d</fix>
</trkpt>
<trkpt lat="-27.274439" lon="151.290064">
  <ele>364.26</ele>
  <time>2026-09-01T19:50:31Z</time>
  <course>7.98</course>
  <speed>0.0</speed>
  <fix>3d</fix>
</trkpt>
<trkpt lat="-27.2741389" lon="151.290064">
  <ele>364.25</ele>
  <time>2026-09-01T19:50:31Z</time>
  <course>241.8</course>
  <speed>0.0</speed>
  <fix>3d</fix>
</trkpt>
<trkpt lat="-27.274439" lon="151.290064">
  <ele>364.26</ele>
  <time>2026-09-01T19:50:31Z</time>
  <course>7.98</course>
  <speed>0.0</speed>
  <fix>3d</fix>
</trkpt>
<trkpt lat="-27.2741389" lon="151.290064">
  <ele>364.26</ele>
  <time>2026-09-01T19:50:31Z</time>
  <course>245.5</course>
  <speed>0.0</speed>
  <fix>3d</fix>
</trkpt>
<trkpt lat="-27.274439" lon="151.290064">
  <ele>364.26</ele>
  <time>2026-09-01T19:50:31Z</time>
  <course>7.98</course>
  <speed>0.0</speed>
  <fix>3d</fix>
</trkpt>
<trkpt lat="-27.2741389" lon="151.290064">
  <ele>364.26</ele>
  <time>2026-09-01T19:50:31Z</time>
  <course>245.5</course>
  <speed>0.0</speed>
  <fix>3d</fix>
</trkpt>
<trkpt lat="-27.274439" lon="151.290064">
  <ele>364.26</ele>
  <time>2026-09-01T19:50:31Z</time>
  <course>7.98</course>
  <speed>0.0</speed>
  <fix>3d</fix>
</trkpt>
<trkpt lat="-27.2741389" lon="151.290064">
  <ele>364.26</ele>
  <time>2026-09-01T19:50:31Z</time>
  <course>248.75</course>
  <speed>0.0</speed>
  <fix>3d</fix>
</trkpt>
<trkpt lat="-27.274439" lon="151.290064">
  <ele>364.26</ele>
  <time>2026-09-01T19:50:31Z</time>
  <course>7.98</course>
  <speed>0.0</speed>
  <fix>3d</fix>
</trkpt>
<trkpt lat="-27.2741389" lon="151.290064">
  <ele>364.26</ele>
  <time>2026-09-01T19:50:31Z</time>
  <course>248.75</course>
  <speed>0.0</speed>
  <fix>3d</fix>
</trkpt>
<trkpt lat="-27.274439" lon="151.290064">
  <ele>364.25</ele>
  <time>2026-09-01T19:50:31Z</time>
  <course>7.98</course>
  <speed>0.0</speed>
  <fix>3d</fix>
</trkpt>
<trkpt lat="-27.2741389" lon="151.290064">
  <ele>364.26</ele>
  <time>2026-09-01T19:50:31Z</time>
  <course>251.73</course>
  <speed>0.0</speed>
  <fix>3d</fix>
</trkpt>
<trkpt lat="-27.274439" lon="151.290064">
  <ele>364.25</ele>
  <time>2026-09-01T19:50:31Z</time>
  <course>7.98</course>
  <speed>0.0</speed>
  <fix>3d</fix>
</trkpt>
<trkpt lat="-27.2741389" lon="151.290064">
  <ele>364.26</ele>
  <time>2026-09-01T19:50:31Z</time>
  <course>251.73</course>
  <speed>0.0</speed>
  <fix>3d</fix>
</trkpt>
<trkpt lat="-27.274439" lon="151.2900639">
  <ele>364.25</ele>
  <time>2026-09-01T19:50:31Z</time>
  <course>7.98</course>
  <speed>0.0</speed>
  <fix>3d</fix>
</trkpt>
<trkpt lat="-27.2741389" lon="151.290064">
  <ele>364.25</ele>
  <time>2026-09-01T19:50:31Z</time>
  <course>257.13</course>
  <speed>0.0</speed>
  <fix>3d</fix>
</trkpt>
<trkpt lat="-27.274439" lon="151.2900639">
  <ele>364.25</ele>
  <time>2026-09-01T19:50:31Z</time>
  <course>7.98</course>
  <speed>0.0</speed>
  <fix>3d</fix>
</trkpt>
<trkpt lat="-27.2741389" lon="151.290064">
  <ele>364.25</ele>
  <time>2026-09-01T19:50:31Z</time>
  <course>257.13</course>
  <speed>0.0</speed>
  <fix>3d</fix>
</trkpt>
<trkpt lat="-27.274439" lon="151.2900639">
  <ele>364.25</ele>
  <time>2026-09-01T19:50:31Z</time>
  <course>7.98</course>
  <speed>0.0</speed>
  <fix>3d</fix>
</trkpt>
<trkpt lat="-27.2741389" lon="151.2900639">
  <ele>364.25</ele>
  <time>2026-09-01T19:50:31Z</time>
  <course>261.05</course>
  <speed>0.0</speed>
  <fix>3d</fix>
</trkpt>
<trkpt lat="-27.274439" lon="151.2900639">
  <ele>364.25</ele>
  <time>2026-09-01T19:50:31Z</time>
  <course>7.98</course>
  <speed>0.0</speed>
  <fix>3d</fix>
</trkpt>
<trkpt lat="-27.2741389" lon="151.2900639">
  <ele>364.25</ele>
  <time>2026-09-01T19:50:31Z</time>
  <course>261.05</course>
  <speed>0.0</speed>
  <fix>3d</fix>
</trkpt>
<trkpt lat="-27.274439" lon="151.2900639">
  <ele>364.25</ele>
  <time>2026-09-01T19:50:31Z</time>
  <course>7.99</course>
  <speed>0.0</speed>
  <fix>3d</fix>
</trkpt>
<trkpt lat="-27.2741389" lon="151.2900639">
  <ele>364.25</ele>
  <time>2026-09-01T19:50:31Z</time>
  <course>251.3</course>
  <speed>0.0</speed>
  <fix>3d</fix>
</trkpt>
<trkpt lat="-27.274439" lon="151.2900639">
  <ele>364.25</ele>
  <time>2026-09-01T19:50:31Z</time>
  <course>7.99</course>
  <speed>0.0</speed>
  <fix>3d</fix>
</trkpt>
<trkpt lat="-27.2741389" lon="151.2900639">
  <ele>364.25</ele>
  <time>2026-09-01T19:50:31Z</time>
  <course>251.3</course>
  <speed>0.0</speed>
  <fix>3d</fix>
</trkpt>
<trkpt lat="-27.274439" lon="151.2900639">
  <ele>364.25</ele>
  <time>2026-09-01T19:50:31Z</time>
  <course>7.99</course>
  <speed>0.0</speed>
  <fix>3d</fix>
</trkpt>
<trkpt lat="-27.2741389" lon="151.2900639">
  <ele>364.25</ele>
  <time>2026-09-01T19:50:31Z</time>
  <course>230.3</course>
  <speed>0.0</speed>
  <fix>3d</fix>
</trkpt>
<trkpt lat="-27.274439" lon="151.2900639">
  <ele>364.25</ele>
  <time>2026-09-01T19:50:31Z</time>
  <course>7.99</course>
  <speed>0.0</speed>
  <fix>3d</fix>
</trkpt>
<trkpt lat="-27.2741389" lon="151.2900639">
  <ele>364.25</ele>
  <time>2026-09-01T19:50:31Z</time>
  <course>230.3</course>
  <speed>0.0</speed>
  <fix>3d</fix>
</trkpt>
<trkpt lat="-27.274439" lon="151.2900639">
  <ele>364.25</ele>
  <time>2026-09-01T19:50:31Z</time>
  <course>7.98</course>
  <speed>0.0</speed>
  <fix>3d</fix>
</trkpt>
<trkpt lat="-27.2741389" lon="151.2900639">
  <ele>364.25</ele>
  <time>2026-09-01T19:50:31Z</time>
  <course>213.64</course>
  <speed>0.0</speed>
  <fix>3d</fix>
</trkpt>
<trkpt lat="-27.274439" lon="151.2900639">
  <ele>364.25</ele>
  <time>2026-09-01T19:50:31Z</time>
  <course>7.98</course>
  <speed>0.0</speed>
  <fix>3d</fix>
</trkpt>
<trkpt lat="-27.2741389" lon="151.2900639">
  <ele>364.25</ele>
  <time>2026-09-01T19:50:31Z</time>
  <course>213.64</course>
  <speed>0.0</speed>
  <fix>3d</fix>
</trkpt>
<trkpt lat="-27.274439" lon="151.2900639">
  <ele>364.25</ele>
  <time>2026-09-01T19:50:31Z</time>
  <course>7.98</course>
  <speed>0.0</speed>
  <fix>3d</fix>
</trkpt>
<trkpt lat="-27.2741389" lon="151.2900639">
  <ele>364.25</ele>
  <time>2026-09-01T19:50:31Z</time>
  <course>204.39</course>
  <speed>0.0</speed>
  <fix>3d</fix>
</trkpt>
<trkpt lat="-27.274439" lon="151.2900639">
  <ele>364.26</ele>
  <time>2026-09-01T19:50:31Z</time>
  <course>7.98</course>
  <speed>0.0</speed>
  <fix>3d</fix>
</trkpt>
<trkpt lat="-27.2741389" lon="151.2900639">
  <ele>364.25</ele>
  <time>2026-09-01T19:50:31Z</time>
  <course>204.39</course>
  <speed>0.0</speed>
  <fix>3d</fix>
</trkpt>
<trkpt lat="-27.274439" lon="151.2900639">
  <ele>364.26</ele>
  <time>2026-09-01T19:50:31Z</time>
  <course>7.98</course>
  <speed>0.0</speed>
  <fix>3d</fix>
</trkpt>
<trkpt lat="-27.2741389" lon="151.2900639">
  <ele>364.25</ele>
  <time>2026-09-01T19:50:31Z</time>
  <course>196.67</course>
  <speed>0.0</speed>
  <fix>3d</fix>
</trkpt>
<trkpt lat="-27.274439" lon="151.2900639">
  <ele>364.26</ele>
  <time>2026-09-01T19:50:31Z</time>
  <course>7.98</course>
  <speed>0.0</speed>
  <fix>3d</fix>
</trkpt>
<trkpt lat="-27.2741389" lon="151.2900639">
  <ele>364.25</ele>
  <time>2026-09-01T19:50:31Z</time>
  <course>196.67</course>
  <speed>0.0</speed>
  <fix>3d</fix>
</trkpt>
<trkpt lat="-27.2741389" lon="151.2900639">
  <ele>346.16</ele>
  <time>2026-09-01T19:50:32Z</time>
  <course>325.3</course>
  <speed>0.0</speed>
  <fix>3d</fix>
</trkpt>
<trkpt lat="-27.2741389" lon="151.2900639">
  <ele>364.26</ele>
  <time>2026-09-01T19:50:32Z</time>
  <course>187.25</course>
  <speed>0.0</speed>
  <fix>3d</fix>
</trkpt>
<trkpt lat="-27.2741389" lon="151.2900639">
  <ele>346.17</ele>
  <time>2026-09-01T19:50:32Z</time>
  <course>325.31</course>
  <speed>0.0</speed>
  <fix>3d</fix>
</trkpt>
<trkpt lat="-27.2741389" lon="151.2900639">
  <ele>364.26</ele>
  <time>2026-09-01T19:50:32Z</time>
  <course>187.25</course>
  <speed>0.0</speed>
  <fix>3d</fix>
</trkpt>
<trkpt lat="-27.2741389" lon="151.2900639">
  <ele>346.4</ele>
  <time>2026-09-01T19:50:32Z</time>
  <course>325.32</course>
  <speed>0.0</speed>
  <fix>3d</fix>
</trkpt>
<trkpt lat="-27.2741389" lon="151.2900639">
  <ele>364.26</ele>
  <time>2026-09-01T19:50:32Z</time>
  <course>167.21</course>
  <speed>0.0</speed>
  <fix>3d</fix>
</trkpt>
<trkpt lat="-27.2741389" lon="151.2900639">
  <ele>346.4</ele>
  <time>2026-09-01T19:50:32Z</time>
  <course>325.32</course>
  <speed>0.0</speed>
  <fix>3d</fix>
</trkpt>
<trkpt lat="-27.2741389" lon="151.2900639">
  <ele>364.26</ele>
  <time>2026-09-01T19:50:32Z</time>
  <course>167.21</course>
  <speed>0.0</speed>
  <fix>3d</fix>
</trkpt>
<trkpt lat="-27.2741389" lon="151.2900639">
  <ele>346.4</ele>
  <time>2026-09-01T19:50:32Z</time>
  <course>325.32</course>
  <speed>0.0</speed>
  <fix>3d</fix>
</trkpt>
<trkpt lat="-27.2741389" lon="151.2900639">
  <ele>346.13</ele>
  <time>2026-09-01T19:50:32Z</time>
  <course>325.33</course>
  <speed>0.0</speed>
  <fix>3d</fix>
</trkpt>
<trkpt lat="-27.2741389" lon="151.2900639">
  <ele>364.26</ele>
  <time>2026-09-01T19:50:32Z</time>
  <course>358.52</course>
  <speed>0.0</speed>
  <fix>3d</fix>
</trkpt>
<trkpt lat="-27.2741389" lon="151.2900639">
  <ele>346.38</ele>
  <time>2026-09-01T19:50:32Z</time>
  <course>325.32</course>
  <speed>0.0</speed>
  <fix>3d</fix>
</trkpt>
<trkpt lat="-27.2741389" lon="151.2900639">
  <ele>364.26</ele>
  <time>2026-09-01T19:50:32Z</time>
  <course>358.52</course>
  <speed>0.0</speed>
  <fix>3d</fix>
</trkpt>
<trkpt lat="-27.2741389" lon="151.2900639">
  <ele>346.25</ele>
  <time>2026-09-01T19:50:32Z</time>
  <course>325.32</course>
  <speed>0.0</speed>
  <fix>3d</fix>
</trkpt>
<trkpt lat="-27.2741389" lon="151.2900639">
  <ele>364.25</ele>
  <time>2026-09-01T19:50:32Z</time>
  <course>338.86</course>
  <speed>0.0</speed>
  <fix>3d</fix>
</trkpt>
<trkpt lat="-27.2741389" lon="151.2900639">
  <ele>346.02</ele>
  <time>2026-09-01T19:50:32Z</time>
  <course>325.32</course>
  <speed>0.0</speed>
  <fix>3d</fix>
</trkpt>
<trkpt lat="-27.2741389" lon="151.2900639">
  <ele>364.25</ele>
  <time>2026-09-01T19:50:32Z</time>
  <course>338.86</course>
  <speed>0.0</speed>
  <fix>3d</fix>
</trkpt>
<trkpt lat="-27.2741389" lon="151.2900639">
  <ele>346.29</ele>
  <time>2026-09-01T19:50:32Z</time>
  <course>325.31</course>
  <speed>0.0</speed>
  <fix>3d</fix>
</trkpt>
<trkpt lat="-27.2741389" lon="151.2900639">
  <ele>364.25</ele>
  <time>2026-09-01T19:50:32Z</time>
  <course>330.82</course>
  <speed>0.0</speed>
  <fix>3d</fix>
</trkpt>
<trkpt lat="-27.2741389" lon="151.2900639">
  <ele>346.36</ele>
  <time>2026-09-01T19:50:32Z</time>
  <course>325.31</course>
  <speed>0.0</speed>
  <fix>3d</fix>
</trkpt>
<trkpt lat="-27.2741389" lon="151.2900639">
  <ele>364.25</ele>
  <time>2026-09-01T19:50:32Z</time>
  <course>330.82</course>
  <speed>0.0</speed>
  <fix>3d</fix>
</trkpt>
<trkpt lat="-27.2741389" lon="151.2900639">
  <ele>346.15</ele>
  <time>2026-09-01T19:50:32Z</time>
  <course>325.31</course>
  <speed>0.01</speed>
  <fix>3d</fix>
</trkpt>
<trkpt lat="-27.2741389" lon="151.2900639">
  <ele>364.25</ele>
  <time>2026-09-01T19:50:32Z</time>
  <course>327.85</course>
  <speed>0.01</speed>
  <fix>3d</fix>
</trkpt>
<trkpt lat="-27.2741389" lon="151.2900639">
  <ele>346.2</ele>
  <time>2026-09-01T19:50:32Z</time>
  <course>325.31</course>
  <speed>0.01</speed>
  <fix>3d</fix>
</trkpt>
<trkpt lat="-27.2741389" lon="151.2900639">
  <ele>364.25</ele>
  <time>2026-09-01T19:50:32Z</time>
  <course>327.85</course>
  <speed>0.01</speed>
  <fix>3d</fix>
</trkpt>
<trkpt lat="-27.2741389" lon="151.2900639">
  <ele>346.03</ele>
  <time>2026-09-01T19:50:32Z</time>
  <course>325.31</course>
  <speed>0.01</speed>
  <fix>3d</fix>
</trkpt>
<trkpt lat="-27.2741389" lon="151.2900639">
  <ele>364.24</ele>
  <time>2026-09-01T19:50:32Z</time>
  <course>325.61</course>
  <speed>0.01</speed>
  <fix>3d</fix>
</trkpt>
<trkpt lat="-27.2741389" lon="151.2900639">
  <ele>346.13</ele>
  <time>2026-09-01T19:50:32Z</time>
  <course>325.31</course>
  <speed>0.01</speed>
  <fix>3d</fix>
</trkpt>
<trkpt lat="-27.2741389" lon="151.2900639">
  <ele>364.24</ele>
  <time>2026-09-01T19:50:32Z</time>
  <course>325.61</course>
  <speed>0.01</speed>
  <fix>3d</fix>
</trkpt>
<trkpt lat="-27.2741389" lon="151.2900638">
  <ele>346.31</ele>
  <time>2026-09-01T19:50:32Z</time>
  <course>325.32</course>
  <speed>0.01414213562373095</speed>
  <fix>3d</fix>
</trkpt>
<trkpt lat="-27.2741389" lon="151.2900638">
  <ele>364.23</ele>
  <time>2026-09-01T19:50:32Z</time>
  <course>322.58</course>
  <speed>0.02</speed>
  <fix>3d</fix>
</trkpt>
<trkpt lat="-27.2741389" lon="151.2900638">
  <ele>346.17</ele>
  <time>2026-09-01T19:50:32Z</time>
  <course>325.32</course>
  <speed>0.01414213562373095</speed>
  <fix>3d</fix>
</trkpt>
<trkpt lat="-27.2741389" lon="151.2900638">
  <ele>364.23</ele>
  <time>2026-09-01T19:50:32Z</time>
  <course>322.58</course>
  <speed>0.02</speed>
  <fix>3d</fix>
</trkpt>
<trkpt lat="-27.2741389" lon="151.2900637">
  <ele>346.33</ele>
  <time>2026-09-01T19:50:32Z</time>
  <course>325.32</course>
  <speed>0.01414213562373095</speed>
  <fix>3d</fix>
</trkpt>
<trkpt lat="-27.2741389" lon="151.2900637">
  <ele>364.23</ele>
  <time>2026-09-01T19:50:32Z</time>
  <course>320.04</course>
  <speed>0.02</speed>
  <fix>3d</fix>
</trkpt>
<trkpt lat="-27.2741389" lon="151.2900637">
  <ele>346.34</ele>
  <time>2026-09-01T19:50:32Z</time>
  <course>325.32</course>
  <speed>0.01414213562373095</speed>
  <fix>3d</fix>
</trkpt>
<trkpt lat="-27.2741389" lon="151.2900637">
  <ele>364.23</ele>
  <time>2026-09-01T19:50:32Z</time>
  <course>320.04</course>
  <speed>0.02</speed>
  <fix>3d</fix>
</trkpt>
<trkpt lat="-27.2741389" lon="151.2900637">
  <ele>346.24</ele>
  <time>2026-09-01T19:50:32Z</time>
  <course>325.32</course>
  <speed>0.01414213562373095</speed>
  <fix>3d</fix>
</trkpt>
<trkpt lat="-27.2741389" lon="151.2900637">
  <ele>364.22</ele>
  <time>2026-09-01T19:50:32Z</time>
  <course>316.53</course>
  <speed>0.02</speed>
  <fix>3d</fix>
</trkpt>
<trkpt lat="-27.2741389" lon="151.2900637">
  <ele>346.06</ele>
  <time>2026-09-01T19:50:32Z</time>
  <course>325.32</course>
  <speed>0.01414213562373095</speed>
  <fix>3d</fix>
</trkpt>
<trkpt lat="-27.2741389" lon="151.2900637">
  <ele>364.22</ele>
  <time>2026-09-01T19:50:32Z</time>
  <course>316.53</course>
  <speed>0.02</speed>
  <fix>3d</fix>
</trkpt>
<trkpt lat="-27.2741389" lon="151.2900637">
  <ele>346.22</ele>
  <time>2026-09-01T19:50:32Z</time>
  <course>325.32</course>
  <speed>0.022360679774997897</speed>
  <fix>3d</fix>
</trkpt>
<trkpt lat="-27.2741389" lon="151.2900637">
  <ele>364.21</ele>
  <time>2026-09-01T19:50:32Z</time>
  <course>312.13</course>
  <speed>0.02</speed>
  <fix>3d</fix>
</trkpt>
<trkpt lat="-27.2741389" lon="151.2900637">
  <ele>346.35</ele>
  <time>2026-09-01T19:50:32Z</time>
  <course>325.32</course>
  <speed>0.022360679774997897</speed>
  <fix>3d</fix>
</trkpt>
<trkpt lat="-27.2741389" lon="151.2900637">
  <ele>364.21</ele>
  <time>2026-09-01T19:50:32Z</time>
  <course>312.13</course>
  <speed>0.02</speed>
  <fix>3d</fix>
</trkpt>
<trkpt lat="-27.2741388" lon="151.2900637">
  <ele>346.31</ele>
  <time>2026-09-01T19:50:32Z</time>
  <course>325.31</course>
  <speed>0.022360679774997897</speed>
  <fix>3d</fix>
</trkpt>
<trkpt lat="-27.2741388" lon="151.2900637">
  <ele>364.2</ele>
  <time>2026-09-01T19:50:32Z</time>
  <course>308.64</course>
  <speed>0.03</speed>
  <fix>3d</fix>
</trkpt>
<trkpt lat="-27.2741388" lon="151.2900637">
  <ele>346.35</ele>
  <time>2026-09-01T19:50:32Z</time>
  <course>325.31</course>
  <speed>0.022360679774997897</speed>
  <fix>3d</fix>
</trkpt>
<trkpt lat="-27.2741388" lon="151.2900637">
  <ele>364.2</ele>
  <time>2026-09-01T19:50:32Z</time>
  <course>308.64</course>
  <speed>0.03</speed>
  <fix>3d</fix>
</trkpt>
<trkpt lat="-27.2741388" lon="151.2900636">
  <ele>346.01</ele>
  <time>2026-09-01T19:50:32Z</time>
  <course>325.31</course>
  <speed>0.0282842712474619</speed>
  <fix>3d</fix>
</trkpt>
<trkpt lat="-27.2741388" lon="151.2900636">
  <ele>364.2</ele>
  <time>2026-09-01T19:50:32Z</time>
  <course>306.15</course>
  <speed>0.03</speed>
  <fix>3d</fix>
</trkpt>
<trkpt lat="-27.2741388" lon="151.2900636">
  <ele>346.07</ele>
  <time>2026-09-01T19:50:32Z</time>
  <course>325.3</course>
  <speed>0.0282842712474619</speed>
  <fix>3d</fix>
</trkpt>
<trkpt lat="-27.2741388" lon="151.2900636">
  <ele>364.2</ele>
  <time>2026-09-01T19:50:32Z</time>
  <course>306.15</course>
  <speed>0.03</speed>
  <fix>3d</fix>
</trkpt>
<trkpt lat="-27.2741388" lon="151.2900636">
  <ele>346.2</ele>
  <time>2026-09-01T19:50:32Z</time>
  <course>325.3</course>
  <speed>0.0282842712474619</speed>
  <fix>3d</fix>
</trkpt>
<trkpt lat="-27.2741388" lon="151.2900636">
  <ele>364.19</ele>
  <time>2026-09-01T19:50:32Z</time>
  <course>304.16</course>
  <speed>0.03</speed>
  <fix>3d</fix>
</trkpt>
<trkpt lat="-27.2741388" lon="151.2900636">
  <ele>346.22</ele>
  <time>2026-09-01T19:50:32Z</time>
  <course>325.3</course>
  <speed>0.0282842712474619</speed>
  <fix>3d</fix>
</trkpt>
<trkpt lat="-27.2741388" lon="151.2900636">
  <ele>364.19</ele>
  <time>2026-09-01T19:50:32Z</time>
  <course>304.16</course>
  <speed>0.03</speed>
  <fix>3d</fix>
</trkpt>
<trkpt lat="-27.2741387" lon="151.2900635">
  <ele>345.95</ele>
  <time>2026-09-01T19:50:32Z</time>
  <course>325.3</course>
  <speed>0.0316227766016838</speed>
  <fix>3d</fix>
</trkpt>
<trkpt lat="-27.2741387" lon="151.2900635">
  <ele>364.18</ele>
  <time>2026-09-01T19:50:32Z</time>
  <course>301.35</course>
  <speed>0.03</speed>
  <fix>3d</fix>
</trkpt>
<trkpt lat="-27.2741387" lon="151.2900635">
  <ele>345.96</ele>
  <time>2026-09-01T19:50:32Z</time>
  <course>325.3</course>
  <speed>0.0316227766016838</speed>
  <fix>3d</fix>
</trkpt>
<trkpt lat="-27.2741387" lon="151.2900635">
  <ele>364.18</ele>
  <time>2026-09-01T19:50:32Z</time>
  <course>301.35</course>
  <speed>0.03</speed>
  <fix>3d</fix>
</trkpt>
<trkpt lat="-27.2741387" lon="151.2900634">
  <ele>346.26</ele>
  <time>2026-09-01T19:50:32Z</time>
  <course>325.3</course>
  <speed>0.0316227766016838</speed>
  <fix>3d</fix>
</trkpt>
<trkpt lat="-27.2741387" lon="151.2900634">
  <ele>364.17</ele>
  <time>2026-09-01T19:50:32Z</time>
  <course>297.29</course>
  <speed>0.03</speed>
  <fix>3d</fix>
</trkpt>
<trkpt lat="-27.2741387" lon="151.2900633">
  <ele>346.03</ele>
  <time>2026-09-01T19:50:32Z</time>
  <course>325.3</course>
  <speed>0.0316227766016838</speed>
  <fix>3d</fix>
</trkpt>
<trkpt lat="-27.2741387" lon="151.2900634">
  <ele>364.17</ele>
  <time>2026-09-01T19:50:32Z</time>
  <course>297.29</course>
  <speed>0.03</speed>
  <fix>3d</fix>
</trkpt>
<trkpt lat="-27.2741387" lon="151.2900633">
  <ele>345.98</ele>
  <time>2026-09-01T19:50:32Z</time>
  <course>325.31</course>
  <speed>0.0316227766016838</speed>
  <fix>3d</fix>
</trkpt>
<trkpt lat="-27.2741387" lon="151.2900633">
  <ele>364.16</ele>
  <time>2026-09-01T19:50:32Z</time>
  <course>292.63</course>
  <speed>0.04</speed>
  <fix>3d</fix>
</trkpt>
<trkpt lat="-27.2741387" lon="151.2900632">
  <ele>345.94</ele>
  <time>2026-09-01T19:50:32Z</time>
  <course>325.31</course>
  <speed>0.0316227766016838</speed>
  <fix>3d</fix>
</trkpt>
<trkpt lat="-27.2741387" lon="151.2900633">
  <ele>364.16</ele>
  <time>2026-09-01T19:50:32Z</time>
  <course>292.63</course>
  <speed>0.04</speed>
  <fix>3d</fix>
</trkpt>
<trkpt lat="-27.2741386" lon="151.2900632">
  <ele>346.16</ele>
  <time>2026-09-01T19:50:32Z</time>
  <course>325.31</course>
  <speed>0.0412310562561766</speed>
  <fix>3d</fix>
</trkpt>
<trkpt lat="-27.2741386" lon="151.2900632">
  <ele>364.16</ele>
  <time>2026-09-01T19:50:32Z</time>
  <course>287.62</course>
  <speed>0.04</speed>
  <fix>3d</fix>
</trkpt>
<trkpt lat="-27.2741386" lon="151.2900631">
  <ele>346.19</ele>
  <time>2026-09-01T19:50:32Z</time>
  <course>325.32</course>
  <speed>0.0412310562561766</speed>
  <fix>3d</fix>
</trkpt>
<trkpt lat="-27.2741386" lon="151.2900632">
  <ele>364.16</ele>
  <time>2026-09-01T19:50:32Z</time>
  <course>287.62</course>
  <speed>0.04</speed>
  <fix>3d</fix>
</trkpt>
<trkpt lat="-27.2741386" lon="151.2900632">
  <ele>345.93</ele>
  <time>2026-09-01T19:50:32Z</time>
  <course>325.32</course>
  <speed>0.04</speed>
  <fix>3d</fix>
</trkpt>
<trkpt lat="-27.2741386" lon="151.2900632">
  <ele>364.15</ele>
  <time>2026-09-01T19:50:32Z</time>
  <course>282.91</course>
  <speed>0.04</speed>
  <fix>3d</fix>
</trkpt>
<trkpt lat="-27.2741386" lon="151.2900631">
  <ele>345.99</ele>
  <time>2026-09-01T19:50:32Z</time>
  <course>325.32</course>
  <speed>0.04</speed>
  <fix>3d</fix>
</trkpt>
<trkpt lat="-27.2741386" lon="151.2900632">
  <ele>364.15</ele>
  <time>2026-09-01T19:50:32Z</time>
  <course>282.91</course>
  <speed>0.04</speed>
  <fix>3d</fix>
</trkpt>
<trkpt lat="-27.2741386" lon="151.2900631">
  <ele>345.98</ele>
  <time>2026-09-01T19:50:32Z</time>
  <course>325.31</course>
  <speed>0.04</speed>
  <fix>3d</fix>
</trkpt>
<trkpt lat="-27.2741386" lon="151.2900631">
  <ele>364.15</ele>
  <time>2026-09-01T19:50:32Z</time>
  <course>278.26</course>
  <speed>0.04</speed>
  <fix>3d</fix>
</trkpt>
<trkpt lat="-27.2741386" lon="151.290063">
  <ele>346.1</ele>
  <time>2026-09-01T19:50:32Z</time>
  <course>325.31</course>
  <speed>0.04</speed>
  <fix>3d</fix>
</trkpt>
<trkpt lat="-27.2741386" lon="151.2900631">
  <ele>364.15</ele>
  <time>2026-09-01T19:50:32Z</time>
  <course>278.26</course>
  <speed>0.04</speed>
  <fix>3d</fix>
</trkpt>
<trkpt lat="-27.2741386" lon="151.290063">
  <ele>345.98</ele>
  <time>2026-09-01T19:50:32Z</time>
  <course>325.31</course>
  <speed>0.04</speed>
  <fix>3d</fix>
</trkpt>
<trkpt lat="-27.2741386" lon="151.290063">
  <ele>364.15</ele>
  <time>2026-09-01T19:50:32Z</time>
  <course>272.97</course>
  <speed>0.04</speed>
  <fix>3d</fix>
</trkpt>
<trkpt lat="-27.2741386" lon="151.2900629">
  <ele>346.22</ele>
  <time>2026-09-01T19:50:32Z</time>
  <course>325.31</course>
  <speed>0.04</speed>
  <fix>3d</fix>
</trkpt>
<trkpt lat="-27.2741386" lon="151.290063">
  <ele>364.15</ele>
  <time>2026-09-01T19:50:32Z</time>
  <course>272.97</course>
  <speed>0.04</speed>
  <fix>3d</fix>
</trkpt>
<trkpt lat="-27.2741386" lon="151.2900629">
  <ele>346.19</ele>
  <time>2026-09-01T19:50:32Z</time>
  <course>325.31</course>
  <speed>0.04</speed>
  <fix>3d</fix>
</trkpt>
<trkpt lat="-27.2741386" lon="151.2900629">
  <ele>364.15</ele>
  <time>2026-09-01T19:50:32Z</time>
  <course>267.18</course>
  <speed>0.04</speed>
  <fix>3d</fix>
</trkpt>
<trkpt lat="-27.2741386" lon="151.2900628">
  <ele>346.14</ele>
  <time>2026-09-01T19:50:32Z</time>
  <course>325.31</course>
  <speed>0.04</speed>
  <fix>3d</fix>
</trkpt>
<trkpt lat="-27.2741386" lon="151.2900629">
  <ele>364.15</ele>
  <time>2026-09-01T19:50:32Z</time>
  <course>267.18</course>
  <speed>0.04</speed>
  <fix>3d</fix>
</trkpt>
<trkpt lat="-27.2741386" lon="151.2900628">
  <ele>346.11</ele>
  <time>2026-09-01T19:50:32Z</time>
  <course>325.31</course>
  <speed>0.03</speed>
  <fix>3d</fix>
</trkpt>
<trkpt lat="-27.2741386" lon="151.2900628">
  <ele>364.15</ele>
  <time>2026-09-01T19:50:32Z</time>
  <course>260.77</course>
  <speed>0.04</speed>
  <fix>3d</fix>
</trkpt>
<trkpt lat="-27.2741386" lon="151.2900627">
  <ele>346.03</ele>
  <time>2026-09-01T19:50:32Z</time>
  <course>325.3</course>
  <speed>0.03</speed>
  <fix>3d</fix>
</trkpt>
<trkpt lat="-27.2741386" lon="151.2900628">
  <ele>364.15</ele>
  <time>2026-09-01T19:50:32Z</time>
  <course>260.77</course>
  <speed>0.04</speed>
  <fix>3d</fix>
</trkpt>
<trkpt lat="-27.2741386" lon="151.2900628">
  <ele>346.15</ele>
  <time>2026-09-01T19:50:32Z</time>
  <course>325.3</course>
  <speed>0.0316227766016838</speed>
  <fix>3d</fix>
</trkpt>
<trkpt lat="-27.2741386" lon="151.2900628">
  <ele>364.15</ele>
  <time>2026-09-01T19:50:32Z</time>
  <course>253.46</course>
  <speed>0.03</speed>
  <fix>3d</fix>
</trkpt>
<trkpt lat="-27.2741386" lon="151.2900627">
  <ele>346.02</ele>
  <time>2026-09-01T19:50:32Z</time>
  <course>325.31</course>
  <speed>0.0316227766016838</speed>
  <fix>3d</fix>
</trkpt>
<trkpt lat="-27.2741386" lon="151.2900628">
  <ele>364.15</ele>
  <time>2026-09-01T19:50:32Z</time>
  <course>253.46</course>
  <speed>0.03</speed>
  <fix>3d</fix>
</trkpt>
<trkpt lat="-27.2741386" lon="151.2900627">
  <ele>346.0</ele>
  <time>2026-09-01T19:50:32Z</time>
  <course>325.31</course>
  <speed>0.0316227766016838</speed>
  <fix>3d</fix>
</trkpt>
<trkpt lat="-27.2741386" lon="151.2900627">
  <ele>364.15</ele>
  <time>2026-09-01T19:50:32Z</time>
  <course>245.27</course>
  <speed>0.03</speed>
  <fix>3d</fix>
</trkpt>
<trkpt lat="-27.2741386" lon="151.2900626">
  <ele>345.96</ele>
  <time>2026-09-01T19:50:32Z</time>
  <course>325.31</course>
  <speed>0.0316227766016838</speed>
  <fix>3d</fix>
</trkpt>
<trkpt lat="-27.2741386" lon="151.2900627">
  <ele>364.15</ele>
  <time>2026-09-01T19:50:32Z</time>
  <course>245.27</course>
  <speed>0.03</speed>
  <fix>3d</fix>
</trkpt>
<trkpt lat="-27.2741386" lon="151.2900626">
  <ele>346.25</ele>
  <time>2026-09-01T19:50:32Z</time>
  <course>325.31</course>
  <speed>0.03605551275463989</speed>
  <fix>3d</fix>
</trkpt>
<trkpt lat="-27.2741386" lon="151.2900626">
  <ele>364.16</ele>
  <time>2026-09-01T19:50:32Z</time>
  <course>236.25</course>
  <speed>0.03</speed>
  <fix>3d</fix>
</trkpt>
<trkpt lat="-27.2741386" lon="151.2900626">
  <ele>346.25</ele>
  <time>2026-09-01T19:50:32Z</time>
  <course>325.31</course>
  <speed>0.03605551275463989</speed>
  <fix>3d</fix>
</trkpt>
<trkpt lat="-27.2741386" lon="151.2900626">
  <ele>364.16</ele>
  <time>2026-09-01T19:50:32Z</time>
  <course>236.25</course>
  <speed>0.03</speed>
  <fix>3d</fix>
</trkpt>
<trkpt lat="-27.2741386" lon="151.2900626">
  <ele>346.29</ele>
  <time>2026-09-01T19:50:32Z</time>
  <course>325.31</course>
  <speed>0.0282842712474619</speed>
  <fix>3d</fix>
</trkpt>
<trkpt lat="-27.2741386" lon="151.2900626">
  <ele>364.16</ele>
  <time>2026-09-01T19:50:32Z</time>
  <course>226.33</course>
  <speed>0.03</speed>
  <fix>3d</fix>
</trkpt>
<trkpt lat="-27.2741386" lon="151.2900626">
  <ele>345.94</ele>
  <time>2026-09-01T19:50:32Z</time>
  <course>325.31</course>
  <speed>0.0282842712474619</speed>
  <fix>3d</fix>
</trkpt>
<trkpt lat="-27.2741386" lon="151.2900626">
  <ele>364.16</ele>
  <time>2026-09-01T19:50:32Z</time>
  <course>226.33</course>
  <speed>0.03</speed>
  <fix>3d</fix>
</trkpt>
<trkpt lat="-27.2741387" lon="151.2900625">
  <ele>346.2</ele>
  <time>2026-09-01T19:50:32Z</time>
  <course>325.31</course>
  <speed>0.03605551275463989</speed>
  <fix>3d</fix>
</trkpt>
<trkpt lat="-27.2741387" lon="151.2900625">
  <ele>364.16</ele>
  <time>2026-09-01T19:50:32Z</time>
  <course>216.05</course>
  <speed>0.03</speed>
  <fix>3d</fix>
</trkpt>
<trkpt lat="-27.2741387" lon="151.2900625">
  <ele>346.12</ele>
  <time>2026-09-01T19:50:32Z</time>
  <course>325.31</course>
  <speed>0.03605551275463989</speed>
  <fix>3d</fix>
</trkpt>
<trkpt lat="-27.2741387" lon="151.2900625">
  <ele>364.16</ele>
  <time>2026-09-01T19:50:32Z</time>
  <course>216.05</course>
  <speed>0.03</speed>
  <fix>3d</fix>
</trkpt>
<trkpt lat="-27.2741387" lon="151.2900625">
  <ele>346.29</ele>
  <time>2026-09-01T19:50:32Z</time>
  <course>325.31</course>
  <speed>0.0316227766016838</speed>
  <fix>3d</fix>
</trkpt>
<trkpt lat="-27.2741387" lon="151.2900625">
  <ele>364.16</ele>
  <time>2026-09-01T19:50:32Z</time>
  <course>206.27</course>
  <speed>0.04</speed>
  <fix>3d</fix>
</trkpt>
<trkpt lat="-27.2741388" lon="151.2900625">
  <ele>346.07</ele>
  <time>2026-09-01T19:50:32Z</time>
  <course>325.31</course>
  <speed>0.0316227766016838</speed>
  <fix>3d</fix>
</trkpt>
<trkpt lat="-27.2741387" lon="151.2900625">
  <ele>364.16</ele>
  <time>2026-09-01T19:50:32Z</time>
  <course>206.27</course>
  <speed>0.04</speed>
  <fix>3d</fix>
</trkpt>
<trkpt lat="-27.2741388" lon="151.2900625">
  <ele>346.06</ele>
  <time>2026-09-01T19:50:32Z</time>
  <course>325.31</course>
  <speed>0.0412310562561766</speed>
  <fix>3d</fix>
</trkpt>
<trkpt lat="-27.2741388" lon="151.2900625">
  <ele>364.17</ele>
  <time>2026-09-01T19:50:32Z</time>
  <course>196.68</course>
  <speed>0.04</speed>
  <fix>3d</fix>
</trkpt>
<trkpt lat="-27.2741389" lon="151.2900625">
  <ele>345.97</ele>
  <time>2026-09-01T19:50:32Z</time>
  <course>325.31</course>
  <speed>0.0412310562561766</speed>
  <fix>3d</fix>
</trkpt>
<trkpt lat="-27.2741388" lon="151.2900625">
  <ele>364.17</ele>
  <time>2026-09-01T19:50:32Z</time>
  <course>196.68</course>
  <speed>0.04</speed>
  <fix>3d</fix>
</trkpt>
<trkpt lat="-27.2741389" lon="151.2900625">
  <ele>346.03</ele>
  <time>2026-09-01T19:50:32Z</time>
  <course>325.32</course>
  <speed>0.04</speed>
  <fix>3d</fix>
</trkpt>
<trkpt lat="-27.2741389" lon="151.2900625">
  <ele>364.17</ele>
  <time>2026-09-01T19:50:32Z</time>
  <course>187.44</course>
  <speed>0.04</speed>
  <fix>3d</fix>
</trkpt>
<trkpt lat="-27.274139" lon="151.2900625">
  <ele>346.15</ele>
  <time>2026-09-01T19:50:32Z</time>
  <course>325.32</course>
  <speed>0.04</speed>
  <fix>3d</fix>
</trkpt>
<trkpt lat="-27.2741389" lon="151.2900625">
  <ele>364.17</ele>
  <time>2026-09-01T19:50:32Z</time>
  <course>187.44</course>
  <speed>0.04</speed>
  <fix>3d</fix>
</trkpt>
<trkpt lat="-27.274139" lon="151.2900625">
  <ele>346.14</ele>
  <time>2026-09-01T19:50:32Z</time>
  <course>325.32</course>
  <speed>0.04</speed>
  <fix>3d</fix>
</trkpt>
<trkpt lat="-27.274139" lon="151.2900625">
  <ele>364.17</ele>
  <time>2026-09-01T19:50:32Z</time>
  <course>179.31</course>
  <speed>0.04</speed>
  <fix>3d</fix>
</trkpt>
<trkpt lat="-27.2741391" lon="151.2900625">
  <ele>346.05</ele>
  <time>2026-09-01T19:50:32Z</time>
  <course>325.32</course>
  <speed>0.04</speed>
  <fix>3d</fix>
</trkpt>
<trkpt lat="-27.274139" lon="151.2900625">
  <ele>364.17</ele>
  <time>2026-09-01T19:50:32Z</time>
  <course>179.31</course>
  <speed>0.04</speed>
  <fix>3d</fix>
</trkpt>
<trkpt lat="-27.2741391" lon="151.2900625">
  <ele>346.29</ele>
  <time>2026-09-01T19:50:32Z</time>
  <course>325.32</course>
  <speed>0.05</speed>
  <fix>3d</fix>
</trkpt>
<trkpt lat="-27.2741391" lon="151.2900625">
  <ele>364.17</ele>
  <time>2026-09-01T19:50:32Z</time>
  <course>171.52</course>
  <speed>0.05</speed>
  <fix>3d</fix>
</trkpt>
<trkpt lat="-27.2741392" lon="151.2900625">
  <ele>346.01</ele>
  <time>2026-09-01T19:50:32Z</time>
  <course>325.32</course>
  <speed>0.05</speed>
  <fix>3d</fix>
</trkpt>
<trkpt lat="-27.2741391" lon="151.2900625">
  <ele>364.17</ele>
  <time>2026-09-01T19:50:32Z</time>
  <course>171.52</course>
  <speed>0.05</speed>
  <fix>3d</fix>
</trkpt>
<trkpt lat="-27.2741392" lon="151.2900625">
  <ele>346.3</ele>
  <time>2026-09-01T19:50:32Z</time>
  <course>325.32</course>
  <speed>0.05099019513592785</speed>
  <fix>3d</fix>
</trkpt>
<trkpt lat="-27.2741392" lon="151.2900625">
  <ele>364.17</ele>
  <time>2026-09-01T19:50:32Z</time>
  <course>163.63</course>
  <speed>0.05</speed>
  <fix>3d</fix>
</trkpt>
<trkpt lat="-27.2741393" lon="151.2900625">
  <ele>346.12</ele>
  <time>2026-09-01T19:50:32Z</time>
  <course>325.33</course>
  <speed>0.05099019513592785</speed>
  <fix>3d</fix>
</trkpt>
<trkpt lat="-27.2741392" lon="151.2900625">
  <ele>364.17</ele>
  <time>2026-09-01T19:50:32Z</time>
  <course>163.63</course>
  <speed>0.05</speed>
  <fix>3d</fix>
</trkpt>
<trkpt lat="-27.2741393" lon="151.2900625">
  <ele>346.22</ele>
  <time>2026-09-01T19:50:32Z</time>
  <course>325.33</course>
  <speed>0.053851648071345036</speed>
  <fix>3d</fix>
</trkpt>
<trkpt lat="-27.2741393" lon="151.2900625">
  <ele>364.17</ele>
  <time>2026-09-01T19:50:32Z</time>
  <course>156.09</course>
  <speed>0.05</speed>
  <fix>3d</fix>
</trkpt>
<trkpt lat="-27.2741394" lon="151.2900625">
  <ele>346.22</ele>
  <time>2026-09-01T19:50:32Z</time>
  <course>325.33</course>
  <speed>0.053851648071345036</speed>
  <fix>3d</fix>
</trkpt>
<trkpt lat="-27.2741393" lon="151.2900625">
  <ele>364.17</ele>
  <time>2026-09-01T19:50:32Z</time>
  <course>156.09</course>
  <speed>0.05</speed>
  <fix>3d</fix>
</trkpt>
<trkpt lat="-27.2741394" lon="151.2900625">
  <ele>346.07</ele>
  <time>2026-09-01T19:50:32Z</time>
  <course>325.33</course>
  <speed>0.05830951894845301</speed>
  <fix>3d</fix>
</trkpt>
<trkpt lat="-27.2741394" lon="151.2900625">
  <ele>364.16</ele>
  <time>2026-09-01T19:50:32Z</time>
  <course>148.45</course>
  <speed>0.06</speed>
  <fix>3d</fix>
</trkpt>
<trkpt lat="-27.2741395" lon="151.2900625">
  <ele>346.0</ele>
  <time>2026-09-01T19:50:32Z</time>
  <course>325.33</course>
  <speed>0.05830951894845301</speed>
  <fix>3d</fix>
</trkpt>
<trkpt lat="-27.2741394" lon="151.2900625">
  <ele>364.16</ele>
  <time>2026-09-01T19:50:32Z</time>
  <course>148.45</course>
  <speed>0.06</speed>
  <fix>3d</fix>
</trkpt>
<trkpt lat="-27.2741395" lon="151.2900625">
  <ele>346.23</ele>
  <time>2026-09-01T19:50:32Z</time>
  <course>325.32</course>
  <speed>0.06403124237432849</speed>
  <fix>3d</fix>
</trkpt>
<trkpt lat="-27.2741395" lon="151.2900625">
  <ele>364.16</ele>
  <time>2026-09-01T19:50:32Z</time>
  <course>140.74</course>
  <speed>0.06</speed>
  <fix>3d</fix>
</trkpt>
<trkpt lat="-27.2741396" lon="151.2900626">
  <ele>346.3</ele>
  <time>2026-09-01T19:50:32Z</time>
  <course>325.32</course>
  <speed>0.06403124237432849</speed>
  <fix>3d</fix>
</trkpt>
<trkpt lat="-27.2741395" lon="151.2900625">
  <ele>364.16</ele>
  <time>2026-09-01T19:50:32Z</time>
  <course>140.74</course>
  <speed>0.06</speed>
  <fix>3d</fix>
</trkpt>
<trkpt lat="-27.2741395" lon="151.2900627">
  <ele>346.2</ele>
  <time>2026-09-01T19:50:32Z</time>
  <course>325.32</course>
  <speed>0.06403124237432849</speed>
  <fix>3d</fix>
</trkpt>
<trkpt lat="-27.2741395" lon="151.2900626">
  <ele>364.16</ele>
  <time>2026-09-01T19:50:32Z</time>
  <course>133.21</course>
  <speed>0.07</speed>
  <fix>3d</fix>
</trkpt>
<trkpt lat="-27.2741396" lon="151.2900627">
  <ele>346.25</ele>
  <time>2026-09-01T19:50:32Z</time>
  <course>325.32</course>
  <speed>0.06403124237432849</speed>
  <fix>3d</fix>
</trkpt>
<trkpt lat="-27.2741395" lon="151.2900626">
  <ele>364.16</ele>
  <time>2026-09-01T19:50:32Z</time>
  <course>133.21</course>
  <speed>0.07</speed>
  <fix>3d</fix>
</trkpt>
<trkpt lat="-27.2741396" lon="151.2900628">
  <ele>346.24</ele>
  <time>2026-09-01T19:50:32Z</time>
  <course>325.32</course>
  <speed>0.07211102550927978</speed>
  <fix>3d</fix>
</trkpt>
<trkpt lat="-27.2741396" lon="151.2900627">
  <ele>364.16</ele>
  <time>2026-09-01T19:50:32Z</time>
  <course>126.35</course>
  <speed>0.07</speed>
  <fix>3d</fix>
</trkpt>
<trkpt lat="-27.2741397" lon="151.2900628">
  <ele>346.0</ele>
  <time>2026-09-01T19:50:32Z</time>
  <course>325.32</course>
  <speed>0.07211102550927978</speed>
  <fix>3d</fix>
</trkpt>
<trkpt lat="-27.2741396" lon="151.2900627">
  <ele>364.16</ele>
  <time>2026-09-01T19:50:32Z</time>
  <course>126.35</course>
  <speed>0.07</speed>
  <fix>3d</fix>
</trkpt>
<trkpt lat="-27.2741397" lon="151.290063">
  <ele>345.97</ele>
  <time>2026-09-01T19:50:32Z</time>
  <course>325.32</course>
  <speed>0.08062257748298549</speed>
  <fix>3d</fix>
</trkpt>
<trkpt lat="-27.2741397" lon="151.2900629">
  <ele>364.15</ele>
  <time>2026-09-01T19:50:32Z</time>
  <course>120.25</course>
  <speed>0.08</speed>
  <fix>3d</fix>
</trkpt>
<trkpt lat="-27.2741398" lon="151.2900631">
  <ele>346.13</ele>
  <time>2026-09-01T19:50:32Z</time>
  <course>325.32</course>
  <speed>0.08062257748298549</speed>
  <fix>3d</fix>
</trkpt>
<trkpt lat="-27.2741397" lon="151.2900629">
  <ele>364.15</ele>
  <time>2026-09-01T19:50:32Z</time>
  <course>120.25</course>
  <speed>0.08</speed>
  <fix>3d</fix>
</trkpt>
<trkpt lat="-27.2741398" lon="151.2900631">
  <ele>345.95</ele>
  <time>2026-09-01T19:50:32Z</time>
  <course>325.33</course>
  <speed>0.07615773105863909</speed>
  <fix>3d</fix>
</trkpt>
<trkpt lat="-27.2741398" lon="151.290063">
  <ele>364.15</ele>
  <time>2026-09-01T19:50:32Z</time>
  <course>114.38</course>
  <speed>0.08</speed>
  <fix>3d</fix>
</trkpt>
<trkpt lat="-27.2741398" lon="151.2900632">
  <ele>346.17</ele>
  <time>2026-09-01T19:50:32Z</time>
  <course>325.32</course>
  <speed>0.07615773105863909</speed>
  <fix>3d</fix>
</trkpt>
<trkpt lat="-27.2741398" lon="151.290063">
  <ele>364.15</ele>
  <time>2026-09-01T19:50:32Z</time>
  <course>114.38</course>
  <speed>0.08</speed>
  <fix>3d</fix>
</trkpt>
<trkpt lat="-27.2741398" lon="151.2900633">
  <ele>346.23</ele>
  <time>2026-09-01T19:50:32Z</time>
  <course>325.32</course>
  <speed>0.0824621125123532</speed>
  <fix>3d</fix>
</trkpt>
<trkpt lat="-27.2741398" lon="151.2900632">
  <ele>364.14</ele>
  <time>2026-09-01T19:50:32Z</time>
  <course>108.68</course>
  <speed>0.09</speed>
  <fix>3d</fix>
</trkpt>
<trkpt lat="-27.2741398" lon="151.2900634">
  <ele>346.24</ele>
  <time>2026-09-01T19:50:32Z</time>
  <course>325.32</course>
  <speed>0.0824621125123532</speed>
  <fix>3d</fix>
</trkpt>
<trkpt lat="-27.2741398" lon="151.2900632">
  <ele>364.14</ele>
  <time>2026-09-01T19:50:32Z</time>
  <course>108.68</course>
  <speed>0.09</speed>
  <fix>3d</fix>
</trkpt>
<trkpt lat="-27.2741399" lon="151.2900635">
  <ele>346.0</ele>
  <time>2026-09-01T19:50:32Z</time>
  <course>325.32</course>
  <speed>0.09219544457292887</speed>
  <fix>3d</fix>
</trkpt>
<trkpt lat="-27.2741399" lon="151.2900634">
  <ele>364.14</ele>
  <time>2026-09-01T19:50:32Z</time>
  <course>103.26</course>
  <speed>0.09</speed>
  <fix>3d</fix>
</trkpt>
<trkpt lat="-27.2741399" lon="151.2900636">
  <ele>345.97</ele>
  <time>2026-09-01T19:50:32Z</time>
  <course>325.32</course>
  <speed>0.09219544457292887</speed>
  <fix>3d</fix>
</trkpt>
<trkpt lat="-27.2741399" lon="151.2900634">
  <ele>364.14</ele>
  <time>2026-09-01T19:50:32Z</time>
  <course>103.26</course>
  <speed>0.09</speed>
  <fix>3d</fix>
</trkpt>
<trkpt lat="-27.2741399" lon="151.2900638">
  <ele>346.27</ele>
  <time>2026-09-01T19:50:32Z</time>
  <course>325.32</course>
  <speed>0.09055385138137417</speed>
  <fix>3d</fix>
</trkpt>
<trkpt lat="-27.2741399" lon="151.2900636">
  <ele>364.14</ele>
  <time>2026-09-01T19:50:32Z</time>
  <course>97.94</course>
  <speed>0.09</speed>
  <fix>3d</fix>
</trkpt>
<trkpt lat="-27.2741399" lon="151.2900639">
  <ele>346.23</ele>
  <time>2026-09-01T19:50:32Z</time>
  <course>325.32</course>
  <speed>0.09055385138137417</speed>
  <fix>3d</fix>
</trkpt>
<trkpt lat="-27.2741399" lon="151.2900636">
  <ele>364.14</ele>
  <time>2026-09-01T19:50:32Z</time>
  <course>97.94</course>
  <speed>0.09</speed>
  <fix>3d</fix>
</trkpt>
<trkpt lat="-27.2741399" lon="151.2900639">
  <ele>346.12</ele>
  <time>2026-09-01T19:50:32Z</time>
  <course>325.32</course>
  <speed>0.1</speed>
  <fix>3d</fix>
</trkpt>
<trkpt lat="-27.2741399" lon="151.2900637">
  <ele>364.14</ele>
  <time>2026-09-01T19:50:32Z</time>
  <course>92.34</course>
  <speed>0.1</speed>
  <fix>3d</fix>
</trkpt>
<trkpt lat="-27.2741399" lon="151.290064">
  <ele>346.07</ele>
  <time>2026-09-01T19:50:32Z</time>
  <course>325.33</course>
  <speed>0.1</speed>
  <fix>3d</fix>
</trkpt>
<trkpt lat="-27.2741399" lon="151.2900637">
  <ele>364.14</ele>
  <time>2026-09-01T19:50:32Z</time>
  <course>92.34</course>
  <speed>0.1</speed>
  <fix>3d</fix>
</trkpt>
<trkpt lat="-27.2741399" lon="151.2900642">
  <ele>346.28</ele>
  <time>2026-09-01T19:50:32Z</time>
  <course>325.32</course>
  <speed>0.1</speed>
  <fix>3d</fix>
</trkpt>
<trkpt lat="-27.2741399" lon="151.290064">
  <ele>364.13</ele>
  <time>2026-09-01T19:50:32Z</time>
  <course>86.72</course>
  <speed>0.1</speed>
  <fix>3d</fix>
</trkpt>
<trkpt lat="-27.2741399" lon="151.2900643">
  <ele>346.15</ele>
  <time>2026-09-01T19:50:32Z</time>
  <course>325.32</course>
  <speed>0.1</speed>
  <fix>3d</fix>
</trkpt>
<trkpt lat="-27.2741399" lon="151.290064">
  <ele>364.13</ele>
  <time>2026-09-01T19:50:32Z</time>
  <course>86.72</course>
  <speed>0.1</speed>
  <fix>3d</fix>
</trkpt>
<trkpt lat="-27.2741399" lon="151.2900644">
  <ele>345.97</ele>
  <time>2026-09-01T19:50:32Z</time>
  <course>325.32</course>
  <speed>0.1004987562112089</speed>
  <fix>3d</fix>
</trkpt>
<trkpt lat="-27.2741399" lon="151.2900642">
  <ele>364.13</ele>
  <time>2026-09-01T19:50:32Z</time>
  <course>81.36</course>
  <speed>0.1</speed>
  <fix>3d</fix>
</trkpt>
<trkpt lat="-27.2741399" lon="151.2900645">
  <ele>346.18</ele>
  <time>2026-09-01T19:50:32Z</time>
  <course>325.32</course>
  <speed>0.1004987562112089</speed>
  <fix>3d</fix>
</trkpt>
<trkpt lat="-27.2741399" lon="151.2900642">
  <ele>364.13</ele>
  <time>2026-09-01T19:50:32Z</time>
  <course>81.36</course>
  <speed>0.1</speed>
  <fix>3d</fix>
</trkpt>
<trkpt lat="-27.2741399" lon="151.2900646">
  <ele>345.96</ele>
  <time>2026-09-01T19:50:32Z</time>
  <course>325.32</course>
  <speed>0.1019803902718557</speed>
  <fix>3d</fix>
</trkpt>
<trkpt lat="-27.2741399" lon="151.2900644">
  <ele>364.13</ele>
  <time>2026-09-01T19:50:32Z</time>
  <course>75.97</course>
  <speed>0.11</speed>
  <fix>3d</fix>
</trkpt>
<trkpt lat="-27.2741399" lon="151.2900647">
  <ele>346.25</ele>
  <time>2026-09-01T19:50:32Z</time>
  <course>325.32</course>
  <speed>0.1019803902718557</speed>
  <fix>3d</fix>
</trkpt>
<trkpt lat="-27.2741399" lon="151.2900644">
  <ele>364.13</ele>
  <time>2026-09-01T19:50:32Z</time>
  <course>75.97</course>
  <speed>0.11</speed>
  <fix>3d</fix>
</trkpt>
<trkpt lat="-27.2741399" lon="151.2900648">
  <ele>346.17</ele>
  <time>2026-09-01T19:50:32Z</time>
  <course>325.32</course>
  <speed>0.1044030650891055</speed>
  <fix>3d</fix>
</trkpt>
<trkpt lat="-27.2741399" lon="151.2900646">
  <ele>364.12</ele>
  <time>2026-09-01T19:50:32Z</time>
  <course>70.27</course>
  <speed>0.11</speed>
  <fix>3d</fix>
</trkpt>
<trkpt lat="-27.2741398" lon="151.2900649">
  <ele>345.89</ele>
  <time>2026-09-01T19:50:32Z</time>
  <course>325.32</course>
  <speed>0.1044030650891055</speed>
  <fix>3d</fix>
</trkpt>
<trkpt lat="-27.2741399" lon="151.2900646">
  <ele>364.12</ele>
  <time>2026-09-01T19:50:32Z</time>
  <course>70.27</course>
  <speed>0.11</speed>
  <fix>3d</fix>
</trkpt>
<trkpt lat="-27.2741398" lon="151.2900651">
  <ele>346.15</ele>
  <time>2026-09-01T19:50:32Z</time>
  <course>325.32</course>
  <speed>0.1118033988749895</speed>
  <fix>3d</fix>
</trkpt>
<trkpt lat="-27.2741398" lon="151.2900649">
  <ele>364.12</ele>
  <time>2026-09-01T19:50:32Z</time>
  <course>64.47</course>
  <speed>0.11</speed>
  <fix>3d</fix>
</trkpt>
<trkpt lat="-27.2741397" lon="151.2900652">
  <ele>345.93</ele>
  <time>2026-09-01T19:50:32Z</time>
  <course>325.31</course>
  <speed>0.1118033988749895</speed>
  <fix>3d</fix>
</trkpt>
<trkpt lat="-27.2741398" lon="151.2900649">
  <ele>364.12</ele>
  <time>2026-09-01T19:50:32Z</time>
  <course>64.47</course>
  <speed>0.11</speed>
  <fix>3d</fix>
</trkpt>
<trkpt lat="-27.2741396" lon="151.2900653">
  <ele>346.26</ele>
  <time>2026-09-01T19:50:32Z</time>
  <course>325.31</course>
  <speed>0.11661903789690602</speed>
  <fix>3d</fix>
</trkpt>
<trkpt lat="-27.2741397" lon="151.2900651">
  <ele>364.12</ele>
  <time>2026-09-01T19:50:32Z</time>
  <course>58.66</course>
  <speed>0.11</speed>
  <fix>3d</fix>
</trkpt>
<trkpt lat="-27.2741396" lon="151.2900654">
  <ele>345.95</ele>
  <time>2026-09-01T19:50:32Z</time>
  <course>325.32</course>
  <speed>0.11661903789690602</speed>
  <fix>3d</fix>
</trkpt>
<trkpt lat="-27.2741397" lon="151.2900651">
  <ele>364.12</ele>
  <time>2026-09-01T19:50:32Z</time>
  <course>58.66</course>
  <speed>0.11</speed>
  <fix>3d</fix>
</trkpt>
<trkpt lat="-27.2741395" lon="151.2900654">
  <ele>346.15</ele>
  <time>2026-09-01T19:50:32Z</time>
  <course>325.31</course>
  <speed>0.11401754250991379</speed>
  <fix>3d</fix>
</trkpt>
<trkpt lat="-27.2741396" lon="151.2900652">
  <ele>364.12</ele>
  <time>2026-09-01T19:50:32Z</time>
  <course>52.44</course>
  <speed>0.12</speed>
  <fix>3d</fix>
</trkpt>
<trkpt lat="-27.2741394" lon="151.2900654">
  <ele>346.24</ele>
  <time>2026-09-01T19:50:32Z</time>
  <course>325.31</course>
  <speed>0.11401754250991379</speed>
  <fix>3d</fix>
</trkpt>
<trkpt lat="-27.2741396" lon="151.2900652">
  <ele>364.12</ele>
  <time>2026-09-01T19:50:32Z</time>
  <course>52.44</course>
  <speed>0.12</speed>
  <fix>3d</fix>
</trkpt>
<trkpt lat="-27.2741393" lon="151.2900656">
  <ele>346.22</ele>
  <time>2026-09-01T19:50:32Z</time>
  <course>325.31</course>
  <speed>0.1131370849898476</speed>
  <fix>3d</fix>
</trkpt>
<trkpt lat="-27.2741394" lon="151.2900655">
  <ele>364.12</ele>
  <time>2026-09-01T19:50:32Z</time>
  <course>45.97</course>
  <speed>0.12</speed>
  <fix>3d</fix>
</trkpt>
<trkpt lat="-27.2741392" lon="151.2900657">
  <ele>345.99</ele>
  <time>2026-09-01T19:50:32Z</time>
  <course>325.31</course>
  <speed>0.1131370849898476</speed>
  <fix>3d</fix>
</trkpt>
<trkpt lat="-27.2741394" lon="151.2900655">
  <ele>364.12</ele>
  <time>2026-09-01T19:50:32Z</time>
  <course>45.97</course>
  <speed>0.12</speed>
  <fix>3d</fix>
</trkpt>
<trkpt lat="-27.2741392" lon="151.2900657">
  <ele>345.93</ele>
  <time>2026-09-01T19:50:32Z</time>
  <course>325.31</course>
  <speed>0.11401754250991379</speed>
  <fix>3d</fix>
</trkpt>
<trkpt lat="-27.2741393" lon="151.2900656">
  <ele>364.12</ele>
  <time>2026-09-01T19:50:32Z</time>
  <course>39.49</course>
  <speed>0.12</speed>
  <fix>3d</fix>
</trkpt>
<trkpt lat="-27.2741391" lon="151.2900658">
  <ele>346.11</ele>
  <time>2026-09-01T19:50:32Z</time>
  <course>325.31</course>
  <speed>0.11401754250991379</speed>
  <fix>3d</fix>
</trkpt>
<trkpt lat="-27.2741393" lon="151.2900656">
  <ele>364.12</ele>
  <time>2026-09-01T19:50:32Z</time>
  <course>39.49</course>
  <speed>0.12</speed>
  <fix>3d</fix>
</trkpt>
<trkpt lat="-27.274139" lon="151.2900658">
  <ele>346.22</ele>
  <time>2026-09-01T19:50:32Z</time>
  <course>325.31</course>
  <speed>0.11661903789690602</speed>
  <fix>3d</fix>
</trkpt>
<trkpt lat="-27.2741391" lon="151.2900657">
  <ele>364.12</ele>
  <time>2026-09-01T19:50:32Z</time>
  <course>32.8</course>
  <speed>0.12</speed>
  <fix>3d</fix>
</trkpt>
<trkpt lat="-27.2741389" lon="151.2900659">
  <ele>346.02</ele>
  <time>2026-09-01T19:50:32Z</time>
  <course>325.31</course>
  <speed>0.11661903789690602</speed>
  <fix>3d</fix>
</trkpt>
<trkpt lat="-27.2741391" lon="151.2900657">
  <ele>364.12</ele>
  <time>2026-09-01T19:50:32Z</time>
  <course>32.8</course>
  <speed>0.12</speed>
  <fix>3d</fix>
</trkpt>
<trkpt lat="-27.2741387" lon="151.290066">
  <ele>346.0</ele>
  <time>2026-09-01T19:50:32Z</time>
  <course>325.3</course>
  <speed>0.12083045973594572</speed>
  <fix>3d</fix>
</trkpt>
<trkpt lat="-27.2741389" lon="151.2900659">
  <ele>364.12</ele>
  <time>2026-09-01T19:50:32Z</time>
  <course>25.89</course>
  <speed>0.12</speed>
  <fix>3d</fix>
</trkpt>
<trkpt lat="-27.2741386" lon="151.290066">
  <ele>346.19</ele>
  <time>2026-09-01T19:50:32Z</time>
  <course>325.3</course>
  <speed>0.12083045973594572</speed>
  <fix>3d</fix>
</trkpt>
<trkpt lat="-27.2741389" lon="151.2900659">
  <ele>364.12</ele>
  <time>2026-09-01T19:50:32Z</time>
  <course>25.89</course>
  <speed>0.12</speed>
  <fix>3d</fix>
</trkpt>
<trkpt lat="-27.2741385" lon="151.290066">
  <ele>345.97</ele>
  <time>2026-09-01T19:50:32Z</time>
  <course>325.3</course>
  <speed>0.1264911064067352</speed>
  <fix>3d</fix>
</trkpt>
<trkpt lat="-27.2741387" lon="151.290066">
  <ele>364.12</ele>
  <time>2026-09-01T19:50:32Z</time>
  <course>18.78</course>
  <speed>0.12</speed>
  <fix>3d</fix>
</trkpt>
<trkpt lat="-27.2741384" lon="151.2900661">
  <ele>346.23</ele>
  <time>2026-09-01T19:50:32Z</time>
  <course>325.3</course>
  <speed>0.1264911064067352</speed>
  <fix>3d</fix>
</trkpt>
<trkpt lat="-27.2741387" lon="151.290066">
  <ele>364.12</ele>
  <time>2026-09-01T19:50:32Z</time>
  <course>18.78</course>
  <speed>0.12</speed>
  <fix>3d</fix>
</trkpt>
<trkpt lat="-27.2741383" lon="151.2900661">
  <ele>346.08</ele>
  <time>2026-09-01T19:50:32Z</time>
  <course>325.29</course>
  <speed>0.12165525060596438</speed>
  <fix>3d</fix>
</trkpt>
<trkpt lat="-27.2741385" lon="151.2900661">
  <ele>364.12</ele>
  <time>2026-09-01T19:50:32Z</time>
  <course>11.39</course>
  <speed>0.13</speed>
  <fix>3d</fix>
</trkpt>
<trkpt lat="-27.2741382" lon="151.2900661">
  <ele>346.13</ele>
  <time>2026-09-01T19:50:32Z</time>
  <course>325.29</course>
  <speed>0.12165525060596438</speed>
  <fix>3d</fix>
</trkpt>
<trkpt lat="-27.2741385" lon="151.2900661">
  <ele>364.12</ele>
  <time>2026-09-01T19:50:32Z</time>
  <course>11.39</course>
  <speed>0.13</speed>
  <fix>3d</fix>
</trkpt>
<trkpt lat="-27.274138" lon="151.2900661">
  <ele>345.91</ele>
  <time>2026-09-01T19:50:32Z</time>
  <course>325.29</course>
  <speed>0.13</speed>
  <fix>3d</fix>
</trkpt>
<trkpt lat="-27.2741382" lon="151.2900661">
  <ele>364.12</ele>
  <time>2026-09-01T19:50:32Z</time>
  <course>3.88</course>
  <speed>0.13</speed>
  <fix>3d</fix>
</trkpt>
<trkpt lat="-27.2741379" lon="151.2900661">
  <ele>345.94</ele>
  <time>2026-09-01T19:50:32Z</time>
  <course>325.29</course>
  <speed>0.13</speed>
  <fix>3d</fix>
</trkpt>
<trkpt lat="-27.2741382" lon="151.2900661">
  <ele>364.12</ele>
  <time>2026-09-01T19:50:32Z</time>
  <course>3.88</course>
  <speed>0.13</speed>
  <fix>3d</fix>
</trkpt>
<trkpt lat="-27.2741378" lon="151.2900661">
  <ele>346.1</ele>
  <time>2026-09-01T19:50:32Z</time>
  <course>325.3</course>
  <speed>0.13</speed>
  <fix>3d</fix>
</trkpt>
<trkpt lat="-27.274138" lon="151.2900661">
  <ele>364.12</ele>
  <time>2026-09-01T19:50:32Z</time>
  <course>356.3</course>
  <speed>0.13</speed>
  <fix>3d</fix>
</trkpt>
<trkpt lat="-27.2741377" lon="151.2900661">
  <ele>346.27</ele>
  <time>2026-09-01T19:50:32Z</time>
  <course>325.29</course>
  <speed>0.13</speed>
  <fix>3d</fix>
</trkpt>
<trkpt lat="-27.274138" lon="151.2900661">
  <ele>364.12</ele>
  <time>2026-09-01T19:50:32Z</time>
  <course>356.3</course>
  <speed>0.13</speed>
  <fix>3d</fix>
</trkpt>
<trkpt lat="-27.2741375" lon="151.2900661">
  <ele>346.28</ele>
  <time>2026-09-01T19:50:32Z</time>
  <course>325.29</course>
  <speed>0.13152946437965907</speed>
  <fix>3d</fix>
</trkpt>
<trkpt lat="-27.2741377" lon="151.2900661">
  <ele>364.12</ele>
  <time>2026-09-01T19:50:32Z</time>
  <course>348.47</course>
  <speed>0.14</speed>
  <fix>3d</fix>
</trkpt>
<trkpt lat="-27.2741374" lon="151.2900661">
  <ele>346.05</ele>
  <time>2026-09-01T19:50:32Z</time>
  <course>325.29</course>
  <speed>0.13152946437965907</speed>
  <fix>3d</fix>
</trkpt>
<trkpt lat="-27.2741377" lon="151.2900661">
  <ele>364.12</ele>
  <time>2026-09-01T19:50:32Z</time>
  <course>348.47</course>
  <speed>0.14</speed>
  <fix>3d</fix>
</trkpt>
<trkpt lat="-27.2741373" lon="151.290066">
  <ele>345.97</ele>
  <time>2026-09-01T19:50:32Z</time>
  <course>325.29</course>
  <speed>0.13601470508735444</speed>
  <fix>3d</fix>
</trkpt>
<trkpt lat="-27.2741375" lon="151.2900661">
  <ele>364.12</ele>
  <time>2026-09-01T19:50:32Z</time>
  <course>340.51</course>
  <speed>0.14</speed>
  <fix>3d</fix>
</trkpt>
<trkpt lat="-27.2741372" lon="151.290066">
  <ele>345.95</ele>
  <time>2026-09-01T19:50:32Z</time>
  <course>325.29</course>
  <speed>0.13601470508735444</speed>
  <fix>3d</fix>
</trkpt>
<trkpt lat="-27.2741375" lon="151.2900661">
  <ele>364.12</ele>
  <time>2026-09-01T19:50:32Z</time>
  <course>340.51</course>
  <speed>0.14</speed>
  <fix>3d</fix>
</trkpt>
<trkpt lat="-27.274137" lon="151.2900659">
  <ele>346.06</ele>
  <time>2026-09-01T19:50:32Z</time>
  <course>325.29</course>
  <speed>0.14317821063276354</speed>
  <fix>3d</fix>
</trkpt>
<trkpt lat="-27.2741372" lon="151.290066">
  <ele>364.12</ele>
  <time>2026-09-01T19:50:32Z</time>
  <course>332.6</course>
  <speed>0.15</speed>
  <fix>3d</fix>
</trkpt>
<trkpt lat="-27.2741369" lon="151.2900658">
  <ele>346.27</ele>
  <time>2026-09-01T19:50:32Z</time>
  <course>325.28</course>
  <speed>0.14317821063276354</speed>
  <fix>3d</fix>
</trkpt>
<trkpt lat="-27.2741372" lon="151.290066">
  <ele>364.12</ele>
  <time>2026-09-01T19:50:32Z</time>
  <course>332.6</course>
  <speed>0.15</speed>
  <fix>3d</fix>
</trkpt>
<trkpt lat="-27.2741368" lon="151.2900656">
  <ele>346.01</ele>
  <time>2026-09-01T19:50:32Z</time>
  <course>325.28</course>
  <speed>0.15</speed>
  <fix>3d</fix>
</trkpt>
<trkpt lat="-27.274137" lon="151.2900657">
  <ele>364.12</ele>
  <time>2026-09-01T19:50:32Z</time>
  <course>324.9</course>
  <speed>0.15</speed>
  <fix>3d</fix>
</trkpt>
<trkpt lat="-27.2741367" lon="151.2900655">
  <ele>346.08</ele>
  <time>2026-09-01T19:50:32Z</time>
  <course>325.27</course>
  <speed>0.15</speed>
  <fix>3d</fix>
</trkpt>
<trkpt lat="-27.274137" lon="151.2900657">
  <ele>364.12</ele>
  <time>2026-09-01T19:50:32Z</time>
  <course>324.9</course>
  <speed>0.15</speed>
  <fix>3d</fix>
</trkpt>
<trkpt lat="-27.2741366" lon="151.2900654">
  <ele>346.15</ele>
  <time>2026-09-01T19:50:32Z</time>
  <course>325.27</course>
  <speed>0.16278820596099705</speed>
  <fix>3d</fix>
</trkpt>
<trkpt lat="-27.2741368" lon="151.2900656">
  <ele>364.12</ele>
  <time>2026-09-01T19:50:32Z</time>
  <course>317.51</course>
  <speed>0.16</speed>
  <fix>3d</fix>
</trkpt>
<trkpt lat="-27.2741365" lon="151.2900653">
  <ele>346.14</ele>
  <time>2026-09-01T19:50:32Z</time>
  <course>325.27</course>
  <speed>0.16278820596099705</speed>
  <fix>3d</fix>
</trkpt>
<trkpt lat="-27.2741368" lon="151.2900656">
  <ele>364.12</ele>
  <time>2026-09-01T19:50:32Z</time>
  <course>317.51</course>
  <speed>0.16</speed>
  <fix>3d</fix>
</trkpt>
<trkpt lat="-27.2741363" lon="151.2900651">
  <ele>346.0</ele>
  <time>2026-09-01T19:50:32Z</time>
  <course>325.27</course>
  <speed>0.17029386365926402</speed>
  <fix>3d</fix>
</trkpt>
<trkpt lat="-27.2741365" lon="151.2900653">
  <ele>364.12</ele>
  <time>2026-09-01T19:50:32Z</time>
  <course>310.2</course>
  <speed>0.17</speed>
  <fix>3d</fix>
</trkpt>
<trkpt lat="-27.2741362" lon="151.2900649">
  <ele>346.26</ele>
  <time>2026-09-01T19:50:32Z</time>
  <course>325.27</course>
  <speed>0.17029386365926402</speed>
  <fix>3d</fix>
</trkpt>
<trkpt lat="-27.2741365" lon="151.2900653">
  <ele>364.12</ele>
  <time>2026-09-01T19:50:32Z</time>
  <course>310.2</course>
  <speed>0.17</speed>
  <fix>3d</fix>
</trkpt>
<trkpt lat="-27.2741363" lon="151.2900647">
  <ele>346.15</ele>
  <time>2026-09-01T19:50:32Z</time>
  <course>325.27</course>
  <speed>0.1664331697709324</speed>
  <fix>3d</fix>
</trkpt>
<trkpt lat="-27.2741364" lon="151.290065">
  <ele>364.12</ele>
  <time>2026-09-01T19:50:32Z</time>
  <course>302.81</course>
  <speed>0.17</speed>
  <fix>3d</fix>
</trkpt>
<trkpt lat="-27.2741362" lon="151.2900646">
  <ele>346.07</ele>
  <time>2026-09-01T19:50:32Z</time>
  <course>325.27</course>
  <speed>0.1664331697709324</speed>
  <fix>3d</fix>
</trkpt>
<trkpt lat="-27.2741364" lon="151.290065">
  <ele>364.12</ele>
  <time>2026-09-01T19:50:32Z</time>
  <course>302.81</course>
  <speed>0.17</speed>
  <fix>3d</fix>
</trkpt>
<trkpt lat="-27.2741361" lon="151.2900644">
  <ele>346.11</ele>
  <time>2026-09-01T19:50:32Z</time>
  <course>325.26</course>
  <speed>0.17464249196572978</speed>
  <fix>3d</fix>
</trkpt>
<trkpt lat="-27.2741362" lon="151.2900647">
  <ele>364.12</ele>
  <time>2026-09-01T19:50:32Z</time>
  <course>295.42</course>
  <speed>0.18</speed>
  <fix>3d</fix>
</trkpt>
<trkpt lat="-27.274136" lon="151.2900642">
  <ele>345.9</ele>
  <time>2026-09-01T19:50:32Z</time>
  <course>325.25</course>
  <speed>0.17464249196572978</speed>
  <fix>3d</fix>
</trkpt>
<trkpt lat="-27.2741362" lon="151.2900647">
  <ele>364.12</ele>
  <time>2026-09-01T19:50:32Z</time>
  <course>295.42</course>
  <speed>0.18</speed>
  <fix>3d</fix>
</trkpt>
<trkpt lat="-27.274136" lon="151.2900641">
  <ele>346.09</ele>
  <time>2026-09-01T19:50:32Z</time>
  <course>325.24</course>
  <speed>0.18681541692269404</speed>
  <fix>3d</fix>
</trkpt>
<trkpt lat="-27.2741361" lon="151.2900644">
  <ele>364.12</ele>
  <time>2026-09-01T19:50:32Z</time>
  <course>288.12</course>
  <speed>0.19</speed>
  <fix>3d</fix>
</trkpt>
<trkpt lat="-27.274136" lon="151.2900639">
  <ele>346.25</ele>
  <time>2026-09-01T19:50:32Z</time>
  <course>325.23</course>
  <speed>0.18681541692269404</speed>
  <fix>3d</fix>
</trkpt>
<trkpt lat="-27.2741361" lon="151.2900644">
  <ele>364.12</ele>
  <time>2026-09-01T19:50:32Z</time>
  <course>288.12</course>
  <speed>0.19</speed>
  <fix>3d</fix>
</trkpt>
<trkpt lat="-27.274136" lon="151.2900635">
  <ele>346.12</ele>
  <time>2026-09-01T19:50:32Z</time>
  <course>325.23</course>
  <speed>0.19235384061671343</speed>
  <fix>3d</fix>
</trkpt>
<trkpt lat="-27.274136" lon="151.2900639">
  <ele>364.12</ele>
  <time>2026-09-01T19:50:32Z</time>
  <course>280.89</course>
  <speed>0.19</speed>
  <fix>3d</fix>
</trkpt>
<trkpt lat="-27.2741359" lon="151.2900633">
  <ele>346.02</ele>
  <time>2026-09-01T19:50:32Z</time>
  <course>325.23</course>
  <speed>0.19235384061671343</speed>
  <fix>3d</fix>
</trkpt>
<trkpt lat="-27.274136" lon="151.2900639">
  <ele>364.12</ele>
  <time>2026-09-01T19:50:32Z</time>
  <course>280.89</course>
  <speed>0.19</speed>
  <fix>3d</fix>
</trkpt>
<trkpt lat="-27.274136" lon="151.2900632">
  <ele>346.23</ele>
  <time>2026-09-01T19:50:32Z</time>
  <course>325.23</course>
  <speed>0.2002498439450079</speed>
  <fix>3d</fix>
</trkpt>
<trkpt lat="-27.274136" lon="151.2900636">
  <ele>364.12</ele>
  <time>2026-09-01T19:50:32Z</time>
  <course>275.13</course>
  <speed>0.2</speed>
  <fix>3d</fix>
</trkpt>
<trkpt lat="-27.274136" lon="151.290063">
  <ele>346.07</ele>
  <time>2026-09-01T19:50:32Z</time>
  <course>325.23</course>
  <speed>0.2002498439450079</speed>
  <fix>3d</fix>
</trkpt>
<trkpt lat="-27.274136" lon="151.2900636">
  <ele>364.12</ele>
  <time>2026-09-01T19:50:32Z</time>
  <course>275.13</course>
  <speed>0.2</speed>
  <fix>3d</fix>
</trkpt>
<trkpt lat="-27.2741359" lon="151.2900628">
  <ele>346.28</ele>
  <time>2026-09-01T19:50:32Z</time>
  <course>325.23</course>
  <speed>0.21</speed>
  <fix>3d</fix>
</trkpt>
<trkpt lat="-27.2741359" lon="151.2900632">
  <ele>364.12</ele>
  <time>2026-09-01T19:50:32Z</time>
  <course>270.89</course>
  <speed>0.21</speed>
  <fix>3d</fix>
</trkpt>
<trkpt lat="-27.2741359" lon="151.2900626">
  <ele>346.05</ele>
  <time>2026-09-01T19:50:32Z</time>
  <course>325.22</course>
  <speed>0.21</speed>
  <fix>3d</fix>
</trkpt>
<trkpt lat="-27.2741359" lon="151.2900632">
  <ele>364.12</ele>
  <time>2026-09-01T19:50:32Z</time>
  <course>270.89</course>
  <speed>0.21</speed>
  <fix>3d</fix>
</trkpt>
<trkpt lat="-27.2741359" lon="151.2900623">
  <ele>346.2</ele>
  <time>2026-09-01T19:50:32Z</time>
  <course>325.22</course>
  <speed>0.2102379604162864</speed>
  <fix>3d</fix>
</trkpt>
<trkpt lat="-27.2741359" lon="151.2900627">
  <ele>364.12</ele>
  <time>2026-09-01T19:50:32Z</time>
  <course>266.64</course>
  <speed>0.21</speed>
  <fix>3d</fix>
</trkpt>
<trkpt lat="-27.2741359" lon="151.2900621">
  <ele>346.27</ele>
  <time>2026-09-01T19:50:32Z</time>
  <course>325.22</course>
  <speed>0.2102379604162864</speed>
  <fix>3d</fix>
</trkpt>
<trkpt lat="-27.2741359" lon="151.2900627">
  <ele>364.12</ele>
  <time>2026-09-01T19:50:32Z</time>
  <course>266.64</course>
  <speed>0.21</speed>
  <fix>3d</fix>
</trkpt>
<trkpt lat="-27.2741359" lon="151.2900619">
  <ele>345.97</ele>
  <time>2026-09-01T19:50:32Z</time>
  <course>325.22</course>
  <speed>0.21213203435596426</speed>
  <fix>3d</fix>
</trkpt>
<trkpt lat="-27.2741359" lon="151.2900623">
  <ele>364.12</ele>
  <time>2026-09-01T19:50:32Z</time>
  <course>262.09</course>
  <speed>0.22</speed>
  <fix>3d</fix>
</trkpt>
<trkpt lat="-27.2741359" lon="151.2900617">
  <ele>345.91</ele>
  <time>2026-09-01T19:50:32Z</time>
  <course>325.23</course>
  <speed>0.21213203435596426</speed>
  <fix>3d</fix>
</trkpt>
<trkpt lat="-27.2741359" lon="151.2900623">
  <ele>364.12</ele>
  <time>2026-09-01T19:50:32Z</time>
  <course>262.09</course>
  <speed>0.22</speed>
  <fix>3d</fix>
</trkpt>
<trkpt lat="-27.274136" lon="151.2900615">
  <ele>346.27</ele>
  <time>2026-09-01T19:50:32Z</time>
  <course>325.23</course>
  <speed>0.215870331449229</speed>
  <fix>3d</fix>
</trkpt>
<trkpt lat="-27.274136" lon="151.2900619">
  <ele>364.12</ele>
  <time>2026-09-01T19:50:32Z</time>
  <course>257.07</course>
  <speed>0.22</speed>
  <fix>3d</fix>
</trkpt>
<trkpt lat="-27.2741361" lon="151.2900613">
  <ele>346.25</ele>
  <time>2026-09-01T19:50:32Z</time>
  <course>325.24</course>
  <speed>0.215870331449229</speed>
  <fix>3d</fix>
</trkpt>
<trkpt lat="-27.274136" lon="151.2900619">
  <ele>364.12</ele>
  <time>2026-09-01T19:50:32Z</time>
  <course>257.07</course>
  <speed>0.22</speed>
  <fix>3d</fix>
</trkpt>
<trkpt lat="-27.2741362" lon="151.290061">
  <ele>346.02</ele>
  <time>2026-09-01T19:50:32Z</time>
  <course>325.24</course>
  <speed>0.22135943621178655</speed>
  <fix>3d</fix>
</trkpt>
<trkpt lat="-27.2741361" lon="151.2900614">
  <ele>364.12</ele>
  <time>2026-09-01T19:50:32Z</time>
  <course>251.6</course>
  <speed>0.22</speed>
  <fix>3d</fix>
</trkpt>
<trkpt lat="-27.2741362" lon="151.2900608">
  <ele>346.16</ele>
  <time>2026-09-01T19:50:32Z</time>
  <course>325.24</course>
  <speed>0.22135943621178655</speed>
  <fix>3d</fix>
</trkpt>
<trkpt lat="-27.2741361" lon="151.2900614">
  <ele>364.12</ele>
  <time>2026-09-01T19:50:32Z</time>
  <course>251.6</course>
  <speed>0.22</speed>
  <fix>3d</fix>
</trkpt>
<trkpt lat="-27.2741363" lon="151.2900605">
  <ele>345.94</ele>
  <time>2026-09-01T19:50:32Z</time>
  <course>325.24</course>
  <speed>0.2193171219946131</speed>
  <fix>3d</fix>
</trkpt>
<trkpt lat="-27.2741362" lon="151.2900609">
  <ele>364.12</ele>
  <time>2026-09-01T19:50:32Z</time>
  <course>245.89</course>
  <speed>0.22</speed>
  <fix>3d</fix>
</trkpt>
<trkpt lat="-27.2741364" lon="151.2900603">
  <ele>345.98</ele>
  <time>2026-09-01T19:50:32Z</time>
  <course>325.24</course>
  <speed>0.2193171219946131</speed>
  <fix>3d</fix>
</trkpt>
<trkpt lat="-27.2741362" lon="151.2900609">
  <ele>364.12</ele>
  <time>2026-09-01T19:50:32Z</time>
  <course>245.89</course>
  <speed>0.22</speed>
  <fix>3d</fix>
</trkpt>
<trkpt lat="-27.2741366" lon="151.2900602">
  <ele>345.92</ele>
  <time>2026-09-01T19:50:32Z</time>
  <course>325.24</course>
  <speed>0.2195449840010015</speed>
  <fix>3d</fix>
</trkpt>
<trkpt lat="-27.2741364" lon="151.2900606">
  <ele>364.12</ele>
  <time>2026-09-01T19:50:32Z</time>
  <course>239.92</course>
  <speed>0.22</speed>
  <fix>3d</fix>
</trkpt>
<trkpt lat="-27.2741367" lon="151.29006">
  <ele>346.24</ele>
  <time>2026-09-01T19:50:32Z</time>
  <course>325.24</course>
  <speed>0.2195449840010015</speed>
  <fix>3d</fix>
</trkpt>
<trkpt lat="-27.2741364" lon="151.2900606">
  <ele>364.12</ele>
  <time>2026-09-01T19:50:32Z</time>
  <course>239.92</course>
  <speed>0.22</speed>
  <fix>3d</fix>
</trkpt>
<trkpt lat="-27.2741368" lon="151.2900598">
  <ele>346.19</ele>
  <time>2026-09-01T19:50:32Z</time>
  <course>325.23</course>
  <speed>0.2220360331117452</speed>
  <fix>3d</fix>
</trkpt>
<trkpt lat="-27.2741366" lon="151.2900601">
  <ele>364.11</ele>
  <time>2026-09-01T19:50:32Z</time>
  <course>233.57</course>
  <speed>0.22</speed>
  <fix>3d</fix>
</trkpt>
<trkpt lat="-27.2741369" lon="151.2900596">
  <ele>345.92</ele>
  <time>2026-09-01T19:50:32Z</time>
  <course>325.23</course>
  <speed>0.2220360331117452</speed>
  <fix>3d</fix>
</trkpt>
<trkpt lat="-27.2741366" lon="151.2900601">
  <ele>364.11</ele>
  <time>2026-09-01T19:50:32Z</time>
  <course>233.57</course>
  <speed>0.22</speed>
  <fix>3d</fix>
</trkpt>
<trkpt lat="-27.2741372" lon="151.2900595">
  <ele>346.22</ele>
  <time>2026-09-01T19:50:32Z</time>
  <course>325.23</course>
  <speed>0.2193171219946131</speed>
  <fix>3d</fix>
</trkpt>
<trkpt lat="-27.2741369" lon="151.2900598">
  <ele>364.11</ele>
  <time>2026-09-01T19:50:32Z</time>
  <course>226.8</course>
  <speed>0.22</speed>
  <fix>3d</fix>
</trkpt>
<trkpt lat="-27.2741373" lon="151.2900593">
  <ele>345.94</ele>
  <time>2026-09-01T19:50:32Z</time>
  <course>325.23</course>
  <speed>0.2193171219946131</speed>
  <fix>3d</fix>
</trkpt>
<trkpt lat="-27.2741369" lon="151.2900598">
  <ele>364.11</ele>
  <time>2026-09-01T19:50:32Z</time>
  <course>226.8</course>
  <speed>0.22</speed>
  <fix>3d</fix>
</trkpt>
<trkpt lat="-27.2741375" lon="151.2900592">
  <ele>345.96</ele>
  <time>2026-09-01T19:50:32Z</time>
  <course>325.23</course>
  <speed>0.22022715545545238</speed>
  <fix>3d</fix>
</trkpt>
<trkpt lat="-27.2741372" lon="151.2900595">
  <ele>364.11</ele>
  <time>2026-09-01T19:50:32Z</time>
  <course>219.57</course>
  <speed>0.22</speed>
  <fix>3d</fix>
</trkpt>
<trkpt lat="-27.2741376" lon="151.2900591">
  <ele>346.2</ele>
  <time>2026-09-01T19:50:32Z</time>
  <course>325.23</course>
  <speed>0.22022715545545238</speed>
  <fix>3d</fix>
</trkpt>
<trkpt lat="-27.2741372" lon="151.2900595">
  <ele>364.11</ele>
  <time>2026-09-01T19:50:32Z</time>
  <course>219.57</course>
  <speed>0.22</speed>
  <fix>3d</fix>
</trkpt>
<trkpt lat="-27.2741378" lon="151.2900591">
  <ele>346.0</ele>
  <time>2026-09-01T19:50:32Z</time>
  <course>325.24</course>
  <speed>0.22472205054244232</speed>
  <fix>3d</fix>
</trkpt>
<trkpt lat="-27.2741375" lon="151.2900593">
  <ele>364.11</ele>
  <time>2026-09-01T19:50:32Z</time>
  <course>211.84</course>
  <speed>0.22</speed>
  <fix>3d</fix>
</trkpt>
<trkpt lat="-27.274138" lon="151.290059">
  <ele>345.94</ele>
  <time>2026-09-01T19:50:32Z</time>
  <course>325.24</course>
  <speed>0.22472205054244232</speed>
  <fix>3d</fix>
</trkpt>
<trkpt lat="-27.2741375" lon="151.2900593">
  <ele>364.11</ele>
  <time>2026-09-01T19:50:32Z</time>
  <course>211.84</course>
  <speed>0.22</speed>
  <fix>3d</fix>
</trkpt>
<trkpt lat="-27.2741383" lon="151.2900589">
  <ele>346.14</ele>
  <time>2026-09-01T19:50:32Z</time>
  <course>325.24</course>
  <speed>0.22847319317591727</speed>
  <fix>3d</fix>
</trkpt>
<trkpt lat="-27.2741379" lon="151.2900591">
  <ele>364.11</ele>
  <time>2026-09-01T19:50:32Z</time>
  <course>203.81</course>
  <speed>0.23</speed>
  <fix>3d</fix>
</trkpt>
<trkpt lat="-27.2741384" lon="151.2900589">
  <ele>345.93</ele>
  <time>2026-09-01T19:50:32Z</time>
  <course>325.24</course>
  <speed>0.22847319317591727</speed>
  <fix>3d</fix>
</trkpt>
<trkpt lat="-27.2741379" lon="151.2900591">
  <ele>364.11</ele>
  <time>2026-09-01T19:50:32Z</time>
  <course>203.81</course>
  <speed>0.23</speed>
  <fix>3d</fix>
</trkpt>
<trkpt lat="-27.2741387" lon="151.2900588">
  <ele>346.1</ele>
  <time>2026-09-01T19:50:32Z</time>
  <course>325.23</course>
  <speed>0.22803508501982758</speed>
  <fix>3d</fix>
</trkpt>
<trkpt lat="-27.2741383" lon="151.2900589">
  <ele>364.11</ele>
  <time>2026-09-01T19:50:32Z</time>
  <course>195.65</course>
  <speed>0.23</speed>
  <fix>3d</fix>
</trkpt>
<trkpt lat="-27.2741389" lon="151.2900587">
  <ele>345.92</ele>
  <time>2026-09-01T19:50:32Z</time>
  <course>325.25</course>
  <speed>0.22803508501982758</speed>
  <fix>3d</fix>
</trkpt>
<trkpt lat="-27.2741383" lon="151.2900589">
  <ele>364.11</ele>
  <time>2026-09-01T19:50:32Z</time>
  <course>195.65</course>
  <speed>0.23</speed>
  <fix>3d</fix>
</trkpt>
<trkpt lat="-27.2741391" lon="151.2900588">
  <ele>346.04</ele>
  <time>2026-09-01T19:50:32Z</time>
  <course>325.29</course>
  <speed>0.24186773244895649</speed>
  <fix>3d</fix>
</trkpt>
<trkpt lat="-27.2741387" lon="151.2900588">
  <ele>364.11</ele>
  <time>2026-09-01T19:50:32Z</time>
  <course>187.62</course>
  <speed>0.24</speed>
  <fix>3d</fix>
</trkpt>
<trkpt lat="-27.2741393" lon="151.2900587">
  <ele>346.2</ele>
  <time>2026-09-01T19:50:32Z</time>
  <course>325.35</course>
  <speed>0.24186773244895649</speed>
  <fix>3d</fix>
</trkpt>
<trkpt lat="-27.2741387" lon="151.2900588">
  <ele>364.11</ele>
  <time>2026-09-01T19:50:32Z</time>
  <course>187.62</course>
  <speed>0.24</speed>
  <fix>3d</fix>
</trkpt>
<trkpt lat="-27.2741396" lon="151.2900588">
  <ele>346.05</ele>
  <time>2026-09-01T19:50:32Z</time>
  <course>325.41</course>
  <speed>0.24</speed>
  <fix>3d</fix>
</trkpt>
<trkpt lat="-27.2741392" lon="151.2900588">
  <ele>364.11</ele>
  <time>2026-09-01T19:50:32Z</time>
  <course>179.96</course>
  <speed>0.24</speed>
  <fix>3d</fix>
</trkpt>
<trkpt lat="-27.2741399" lon="151.2900588">
  <ele>346.07</ele>
  <time>2026-09-01T19:50:32Z</time>
  <course>325.47</course>
  <speed>0.24</speed>
  <fix>3d</fix>
</trkpt>
<trkpt lat="-27.2741392" lon="151.2900588">
  <ele>364.11</ele>
  <time>2026-09-01T19:50:32Z</time>
  <course>179.96</course>
  <speed>0.24</speed>
  <fix>3d</fix>
</trkpt>
<trkpt lat="-27.27414" lon="151.2900588">
  <ele>345.94</ele>
  <time>2026-09-01T19:50:32Z</time>
  <course>325.51</course>
  <speed>0.25179356624028343</speed>
  <fix>3d</fix>
</trkpt>
<trkpt lat="-27.2741396" lon="151.2900588">
  <ele>364.12</ele>
  <time>2026-09-01T19:50:32Z</time>
  <course>172.35</course>
  <speed>0.25</speed>
  <fix>3d</fix>
</trkpt>
<trkpt lat="-27.2741403" lon="151.2900589">
  <ele>346.18</ele>
  <time>2026-09-01T19:50:32Z</time>
  <course>325.52</course>
  <speed>0.25179356624028343</speed>
  <fix>3d</fix>
</trkpt>
<trkpt lat="-27.2741396" lon="151.2900588">
  <ele>364.12</ele>
  <time>2026-09-01T19:50:32Z</time>
  <course>172.35</course>
  <speed>0.25</speed>
  <fix>3d</fix>
</trkpt>
<trkpt lat="-27.2741405" lon="151.2900589">
  <ele>346.22</ele>
  <time>2026-09-01T19:50:32Z</time>
  <course>325.52</course>
  <speed>0.2570992026436488</speed>
  <fix>3d</fix>
</trkpt>
<trkpt lat="-27.2741401" lon="151.2900588">
  <ele>364.12</ele>
  <time>2026-09-01T19:50:32Z</time>
  <course>164.58</course>
  <speed>0.26</speed>
  <fix>3d</fix>
</trkpt>
<trkpt lat="-27.2741408" lon="151.290059">
  <ele>346.27</ele>
  <time>2026-09-01T19:50:32Z</time>
  <course>325.51</course>
  <speed>0.2570992026436488</speed>
  <fix>3d</fix>
</trkpt>
<trkpt lat="-27.2741401" lon="151.2900588">
  <ele>364.12</ele>
  <time>2026-09-01T19:50:32Z</time>
  <course>164.58</course>
  <speed>0.26</speed>
  <fix>3d</fix>
</trkpt>
<trkpt lat="-27.2741409" lon="151.2900591">
  <ele>346.17</ele>
  <time>2026-09-01T19:50:32Z</time>
  <course>325.49</course>
  <speed>0.26</speed>
  <fix>3d</fix>
</trkpt>
<trkpt lat="-27.2741405" lon="151.2900589">
  <ele>364.12</ele>
  <time>2026-09-01T19:50:32Z</time>
  <course>156.64</course>
  <speed>0.27</speed>
  <fix>3d</fix>
</trkpt>
<trkpt lat="-27.2741411" lon="151.2900592">
  <ele>346.18</ele>
  <time>2026-09-01T19:50:32Z</time>
  <course>325.47</course>
  <speed>0.26</speed>
  <fix>3d</fix>
</trkpt>
<trkpt lat="-27.2741405" lon="151.2900589">
  <ele>364.12</ele>
  <time>2026-09-01T19:50:32Z</time>
  <course>156.64</course>
  <speed>0.27</speed>
  <fix>3d</fix>
</trkpt>
<trkpt lat="-27.2741413" lon="151.2900595">
  <ele>346.21</ele>
  <time>2026-09-01T19:50:32Z</time>
  <course>325.46</course>
  <speed>0.2692582403567252</speed>
  <fix>3d</fix>
</trkpt>
<trkpt lat="-27.2741409" lon="151.2900592">
  <ele>364.12</ele>
  <time>2026-09-01T19:50:32Z</time>
  <course>148.53</course>
  <speed>0.27</speed>
  <fix>3d</fix>
</trkpt>
<trkpt lat="-27.2741415" lon="151.2900596">
  <ele>346.22</ele>
  <time>2026-09-01T19:50:32Z</time>
  <course>325.45</course>
  <speed>0.2692582403567252</speed>
  <fix>3d</fix>
</trkpt>
<trkpt lat="-27.2741409" lon="151.2900592">
  <ele>364.12</ele>
  <time>2026-09-01T19:50:32Z</time>
  <course>148.53</course>
  <speed>0.27</speed>
  <fix>3d</fix>
</trkpt>
<trkpt lat="-27.2741417" lon="151.2900599">
  <ele>346.03</ele>
  <time>2026-09-01T19:50:32Z</time>
  <course>325.44</course>
  <speed>0.2842534080710379</speed>
  <fix>3d</fix>
</trkpt>
<trkpt lat="-27.2741413" lon="151.2900596">
  <ele>364.13</ele>
  <time>2026-09-01T19:50:32Z</time>
  <course>140.32</course>
  <speed>0.28</speed>
  <fix>3d</fix>
</trkpt>
<trkpt lat="-27.2741419" lon="151.2900601">
  <ele>346.15</ele>
  <time>2026-09-01T19:50:32Z</time>
  <course>325.44</course>
  <speed>0.2842534080710379</speed>
  <fix>3d</fix>
</trkpt>
<trkpt lat="-27.2741413" lon="151.2900596">
  <ele>364.13</ele>
  <time>2026-09-01T19:50:32Z</time>
  <course>140.32</course>
  <speed>0.28</speed>
  <fix>3d</fix>
</trkpt>
<trkpt lat="-27.274142" lon="151.2900603">
  <ele>346.23</ele>
  <time>2026-09-01T19:50:32Z</time>
  <course>325.44</course>
  <speed>0.2906888370749727</speed>
  <fix>3d</fix>
</trkpt>
<trkpt lat="-27.2741417" lon="151.2900599">
  <ele>364.13</ele>
  <time>2026-09-01T19:50:32Z</time>
  <course>132.08</course>
  <speed>0.29</speed>
  <fix>3d</fix>
</trkpt>
<trkpt lat="-27.2741422" lon="151.2900606">
  <ele>346.17</ele>
  <time>2026-09-01T19:50:32Z</time>
  <course>325.44</course>
  <speed>0.2906888370749727</speed>
  <fix>3d</fix>
</trkpt>
<trkpt lat="-27.2741417" lon="151.2900599">
  <ele>364.13</ele>
  <time>2026-09-01T19:50:32Z</time>
  <course>132.08</course>
  <speed>0.29</speed>
  <fix>3d</fix>
</trkpt>
<trkpt lat="-27.2741424" lon="151.2900609">
  <ele>346.25</ele>
  <time>2026-09-01T19:50:32Z</time>
  <course>325.44</course>
  <speed>0.3023243291566195</speed>
  <fix>3d</fix>
</trkpt>
<trkpt lat="-27.2741421" lon="151.2900604">
  <ele>364.13</ele>
  <time>2026-09-01T19:50:32Z</time>
  <course>123.77</course>
  <speed>0.31</speed>
  <fix>3d</fix>
</trkpt>
<trkpt lat="-27.2741425" lon="151.2900612">
  <ele>345.97</ele>
  <time>2026-09-01T19:50:32Z</time>
  <course>325.44</course>
  <speed>0.3023243291566195</speed>
  <fix>3d</fix>
</trkpt>
<trkpt lat="-27.2741421" lon="151.2900604">
  <ele>364.13</ele>
  <time>2026-09-01T19:50:32Z</time>
  <course>123.77</course>
  <speed>0.31</speed>
  <fix>3d</fix>
</trkpt>
<trkpt lat="-27.2741426" lon="151.2900615">
  <ele>346.12</ele>
  <time>2026-09-01T19:50:32Z</time>
  <course>325.44</course>
  <speed>0.3178049716414141</speed>
  <fix>3d</fix>
</trkpt>
<trkpt lat="-27.2741424" lon="151.2900609">
  <ele>364.13</ele>
  <time>2026-09-01T19:50:32Z</time>
  <course>115.21</course>
  <speed>0.32</speed>
  <fix>3d</fix>
</trkpt>
<trkpt lat="-27.2741427" lon="151.2900618">
  <ele>346.19</ele>
  <time>2026-09-01T19:50:32Z</time>
  <course>325.44</course>
  <speed>0.3178049716414141</speed>
  <fix>3d</fix>
</trkpt>
<trkpt lat="-27.2741424" lon="151.2900609">
  <ele>364.13</ele>
  <time>2026-09-01T19:50:32Z</time>
  <course>115.21</course>
  <speed>0.32</speed>
  <fix>3d</fix>
</trkpt>
<trkpt lat="-27.2741427" lon="151.2900622">
  <ele>346.04</ele>
  <time>2026-09-01T19:50:32Z</time>
  <course>325.44</course>
  <speed>0.33241540277189324</speed>
  <fix>3d</fix>
</trkpt>
<trkpt lat="-27.2741426" lon="151.2900616">
  <ele>364.12</ele>
  <time>2026-09-01T19:50:32Z</time>
  <course>106.6</course>
  <speed>0.33</speed>
  <fix>3d</fix>
</trkpt>
<trkpt lat="-27.2741428" lon="151.2900626">
  <ele>345.93</ele>
  <time>2026-09-01T19:50:32Z</time>
  <course>325.44</course>
  <speed>0.33241540277189324</speed>
  <fix>3d</fix>
</trkpt>
<trkpt lat="-27.2741426" lon="151.2900616">
  <ele>364.12</ele>
  <time>2026-09-01T19:50:32Z</time>
  <course>106.6</course>
  <speed>0.33</speed>
  <fix>3d</fix>
</trkpt>
<trkpt lat="-27.2741428" lon="151.290063">
  <ele>345.96</ele>
  <time>2026-09-01T19:50:32Z</time>
  <course>325.44</course>
  <speed>0.3535533905932738</speed>
  <fix>3d</fix>
</trkpt>
<trkpt lat="-27.2741427" lon="151.2900623">
  <ele>364.12</ele>
  <time>2026-09-01T19:50:32Z</time>
  <course>99.47</course>
  <speed>0.35</speed>
  <fix>3d</fix>
</trkpt>
<trkpt lat="-27.2741428" lon="151.2900634">
  <ele>346.09</ele>
  <time>2026-09-01T19:50:32Z</time>
  <course>325.44</course>
  <speed>0.3535533905932738</speed>
  <fix>3d</fix>
</trkpt>
<trkpt lat="-27.2741427" lon="151.2900623">
  <ele>364.12</ele>
  <time>2026-09-01T19:50:32Z</time>
  <course>99.47</course>
  <speed>0.35</speed>
  <fix>3d</fix>
</trkpt>
<trkpt lat="-27.2741428" lon="151.2900637">
  <ele>345.95</ele>
  <time>2026-09-01T19:50:32Z</time>
  <course>325.45</course>
  <speed>0.3705401462729781</speed>
  <fix>3d</fix>
</trkpt>
<trkpt lat="-27.2741428" lon="151.290063">
  <ele>364.12</ele>
  <time>2026-09-01T19:50:32Z</time>
  <course>94.61</course>
  <speed>0.37</speed>
  <fix>3d</fix>
</trkpt>
<trkpt lat="-27.2741428" lon="151.2900641">
  <ele>346.2</ele>
  <time>2026-09-01T19:50:32Z</time>
  <course>325.45</course>
  <speed>0.3705401462729781</speed>
  <fix>3d</fix>
</trkpt>
<trkpt lat="-27.2741428" lon="151.290063">
  <ele>364.12</ele>
  <time>2026-09-01T19:50:32Z</time>
  <course>94.61</course>
  <speed>0.37</speed>
  <fix>3d</fix>
</trkpt>
<trkpt lat="-27.2741428" lon="151.2900645">
  <ele>346.05</ele>
  <time>2026-09-01T19:50:32Z</time>
  <course>325.45</course>
  <speed>0.38</speed>
  <fix>3d</fix>
</trkpt>
<trkpt lat="-27.2741428" lon="151.2900637">
  <ele>364.12</ele>
  <time>2026-09-01T19:50:32Z</time>
  <course>90.6</course>
  <speed>0.38</speed>
  <fix>3d</fix>
</trkpt>
<trkpt lat="-27.2741428" lon="151.2900649">
  <ele>346.1</ele>
  <time>2026-09-01T19:50:32Z</time>
  <course>325.45</course>
  <speed>0.38</speed>
  <fix>3d</fix>
</trkpt>
<trkpt lat="-27.2741428" lon="151.2900637">
  <ele>364.12</ele>
  <time>2026-09-01T19:50:32Z</time>
  <course>90.6</course>
  <speed>0.38</speed>
  <fix>3d</fix>
</trkpt>
<trkpt lat="-27.2741428" lon="151.2900654">
  <ele>346.09</ele>
  <time>2026-09-01T19:50:32Z</time>
  <course>325.45</course>
  <speed>0.3905124837953327</speed>
  <fix>3d</fix>
</trkpt>
<trkpt lat="-27.2741428" lon="151.2900646">
  <ele>364.12</ele>
  <time>2026-09-01T19:50:32Z</time>
  <course>86.31</course>
  <speed>0.39</speed>
  <fix>3d</fix>
</trkpt>
<trkpt lat="-27.2741428" lon="151.2900658">
  <ele>345.97</ele>
  <time>2026-09-01T19:50:32Z</time>
  <course>325.44</course>
  <speed>0.3905124837953327</speed>
  <fix>3d</fix>
</trkpt>
<trkpt lat="-27.2741428" lon="151.2900646">
  <ele>364.12</ele>
  <time>2026-09-01T19:50:32Z</time>
  <course>86.31</course>
  <speed>0.39</speed>
  <fix>3d</fix>
</trkpt>
<trkpt lat="-27.2741427" lon="151.2900662">
  <ele>345.91</ele>
  <time>2026-09-01T19:50:32Z</time>
  <course>325.43</course>
  <speed>0.39319206502675</speed>
  <fix>3d</fix>
</trkpt>
<trkpt lat="-27.2741428" lon="151.2900654">
  <ele>364.12</ele>
  <time>2026-09-01T19:50:32Z</time>
  <course>81.65</course>
  <speed>0.4</speed>
  <fix>3d</fix>
</trkpt>
<trkpt lat="-27.2741427" lon="151.2900666">
  <ele>346.03</ele>
  <time>2026-09-01T19:50:32Z</time>
  <course>325.43</course>
  <speed>0.39319206502675</speed>
  <fix>3d</fix>
</trkpt>
<trkpt lat="-27.2741428" lon="151.2900654">
  <ele>364.12</ele>
  <time>2026-09-01T19:50:32Z</time>
  <course>81.65</course>
  <speed>0.4</speed>
  <fix>3d</fix>
</trkpt>
<trkpt lat="-27.2741426" lon="151.2900669">
  <ele>346.0</ele>
  <time>2026-09-01T19:50:32Z</time>
  <course>325.42</course>
  <speed>0.40024992192379005</speed>
  <fix>3d</fix>
</trkpt>
<trkpt lat="-27.2741427" lon="151.2900661">
  <ele>364.12</ele>
  <time>2026-09-01T19:50:32Z</time>
  <course>76.65</course>
  <speed>0.4</speed>
  <fix>3d</fix>
</trkpt>
<trkpt lat="-27.2741425" lon="151.2900673">
  <ele>346.03</ele>
  <time>2026-09-01T19:50:32Z</time>
  <course>325.41</course>
  <speed>0.40024992192379005</speed>
  <fix>3d</fix>
</trkpt>
<trkpt lat="-27.2741427" lon="151.2900661">
  <ele>364.12</ele>
  <time>2026-09-01T19:50:32Z</time>
  <course>76.65</course>
  <speed>0.4</speed>
  <fix>3d</fix>
</trkpt>
<trkpt lat="-27.2741423" lon="151.2900678">
  <ele>346.13</ele>
  <time>2026-09-01T19:50:32Z</time>
  <course>325.4</course>
  <speed>0.41109609582188933</speed>
  <fix>3d</fix>
</trkpt>
<trkpt lat="-27.2741425" lon="151.290067">
  <ele>364.12</ele>
  <time>2026-09-01T19:50:32Z</time>
  <course>71.39</course>
  <speed>0.41</speed>
  <fix>3d</fix>
</trkpt>
<trkpt lat="-27.2741422" lon="151.2900682">
  <ele>346.24</ele>
  <time>2026-09-01T19:50:32Z</time>
  <course>325.4</course>
  <speed>0.41109609582188933</speed>
  <fix>3d</fix>
</trkpt>
<trkpt lat="-27.2741425" lon="151.290067">
  <ele>364.12</ele>
  <time>2026-09-01T19:50:32Z</time>
  <course>71.39</course>
  <speed>0.41</speed>
  <fix>3d</fix>
</trkpt>
<trkpt lat="-27.2741419" lon="151.2900685">
  <ele>346.15</ele>
  <time>2026-09-01T19:50:32Z</time>
  <course>325.39</course>
  <speed>0.416293165929973</speed>
  <fix>3d</fix>
</trkpt>
<trkpt lat="-27.2741422" lon="151.2900677">
  <ele>364.12</ele>
  <time>2026-09-01T19:50:32Z</time>
  <course>65.96</course>
  <speed>0.41</speed>
  <fix>3d</fix>
</trkpt>
<trkpt lat="-27.2741418" lon="151.2900689">
  <ele>346.05</ele>
  <time>2026-09-01T19:50:32Z</time>
  <course>325.39</course>
  <speed>0.416293165929973</speed>
  <fix>3d</fix>
</trkpt>
<trkpt lat="-27.2741422" lon="151.2900677">
  <ele>364.12</ele>
  <time>2026-09-01T19:50:32Z</time>
  <course>65.96</course>
  <speed>0.41</speed>
  <fix>3d</fix>
</trkpt>
<trkpt lat="-27.2741416" lon="151.2900692">
  <ele>345.89</ele>
  <time>2026-09-01T19:50:32Z</time>
  <course>325.38</course>
  <speed>0.41182520563948005</speed>
  <fix>3d</fix>
</trkpt>
<trkpt lat="-27.2741419" lon="151.2900685">
  <ele>364.12</ele>
  <time>2026-09-01T19:50:32Z</time>
  <course>60.3</course>
  <speed>0.42</speed>
  <fix>3d</fix>
</trkpt>
<trkpt lat="-27.2741414" lon="151.2900696">
  <ele>346.08</ele>
  <time>2026-09-01T19:50:32Z</time>
  <course>325.38</course>
  <speed>0.41182520563948005</speed>
  <fix>3d</fix>
</trkpt>
<trkpt lat="-27.2741419" lon="151.2900685">
  <ele>364.12</ele>
  <time>2026-09-01T19:50:32Z</time>
  <course>60.3</course>
  <speed>0.42</speed>
  <fix>3d</fix>
</trkpt>
<trkpt lat="-27.2744411" lon="151.2900699">
  <ele>364.12</ele>
  <time>2026-09-01T19:50:32Z</time>
  <course>7.59</course>
  <speed>0.41773197148410846</speed>
  <fix>3d</fix>
</trkpt>
<trkpt lat="-27.2741415" lon="151.2900692">
  <ele>364.12</ele>
  <time>2026-09-01T19:50:32Z</time>
  <course>54.36</course>
  <speed>0.42</speed>
  <fix>3d</fix>
</trkpt>
<trkpt lat="-27.2744408" lon="151.2900703">
  <ele>364.12</ele>
  <time>2026-09-01T19:50:32Z</time>
  <course>7.58</course>
  <speed>0.4172529209005013</speed>
  <fix>3d</fix>
</trkpt>
<trkpt lat="-27.2741415" lon="151.2900692">
  <ele>364.12</ele>
  <time>2026-09-01T19:50:32Z</time>
  <course>54.36</course>
  <speed>0.42</speed>
  <fix>3d</fix>
</trkpt>
<trkpt lat="-27.2744405" lon="151.2900706">
  <ele>364.12</ele>
  <time>2026-09-01T19:50:32Z</time>
  <course>7.56</course>
  <speed>0.39824615503479754</speed>
  <fix>3d</fix>
</trkpt>
<trkpt lat="-27.274441" lon="151.2900699">
  <ele>364.12</ele>
  <time>2026-09-01T19:50:32Z</time>
  <course>47.8</course>
  <speed>0.42</speed>
  <fix>3d</fix>
</trkpt>
<trkpt lat="-27.2744402" lon="151.2900708">
  <ele>364.12</ele>
  <time>2026-09-01T19:50:32Z</time>
  <course>7.54</course>
  <speed>0.38013155617496425</speed>
  <fix>3d</fix>
</trkpt>
<trkpt lat="-27.274441" lon="151.2900699">
  <ele>364.12</ele>
  <time>2026-09-01T19:50:32Z</time>
  <course>47.8</course>
  <speed>0.42</speed>
  <fix>3d</fix>
</trkpt>
<trkpt lat="-27.27444" lon="151.2900709">
  <ele>364.12</ele>
  <time>2026-09-01T19:50:32Z</time>
  <course>7.53</course>
  <speed>0.36359317925395684</speed>
  <fix>3d</fix>
</trkpt>
<trkpt lat="-27.2744405" lon="151.2900705">
  <ele>364.12</ele>
  <time>2026-09-01T19:50:32Z</time>
  <course>40.09</course>
  <speed>0.4</speed>
  <fix>3d</fix>
</trkpt>
<trkpt lat="-27.2744397" lon="151.2900712">
  <ele>364.12</ele>
  <time>2026-09-01T19:50:32Z</time>
  <course>7.53</course>
  <speed>0.34438350715445126</speed>
  <fix>3d</fix>
</trkpt>
<trkpt lat="-27.2744405" lon="151.2900705">
  <ele>364.12</ele>
  <time>2026-09-01T19:50:32Z</time>
  <course>40.09</course>
  <speed>0.4</speed>
  <fix>3d</fix>
</trkpt>
<trkpt lat="-27.2744394" lon="151.2900713">
  <ele>364.1</ele>
  <time>2026-09-01T19:50:32Z</time>
  <course>7.52</course>
  <speed>0.3231098884280702</speed>
  <fix>3d</fix>
</trkpt>
<trkpt lat="-27.27444" lon="151.290071">
  <ele>364.12</ele>
  <time>2026-09-01T19:50:32Z</time>
  <course>31.77</course>
  <speed>0.36</speed>
  <fix>3d</fix>
</trkpt>
<trkpt lat="-27.2744391" lon="151.2900713">
  <ele>364.07</ele>
  <time>2026-09-01T19:50:32Z</time>
  <course>7.52</course>
  <speed>0.30083217912982646</speed>
  <fix>3d</fix>
</trkpt>
<trkpt lat="-27.27444" lon="151.290071">
  <ele>364.12</ele>
  <time>2026-09-01T19:50:32Z</time>
  <course>31.77</course>
  <speed>0.36</speed>
  <fix>3d</fix>
</trkpt>
<trkpt lat="-27.2744389" lon="151.2900714">
  <ele>364.02</ele>
  <time>2026-09-01T19:50:32Z</time>
  <course>7.52</course>
  <speed>0.28442925306655786</speed>
  <fix>3d</fix>
</trkpt>
<trkpt lat="-27.2744394" lon="151.2900713">
  <ele>364.09</ele>
  <time>2026-09-01T19:50:32Z</time>
  <course>22.56</course>
  <speed>0.32</speed>
  <fix>3d</fix>
</trkpt>
<trkpt lat="-27.2744386" lon="151.2900714">
  <ele>363.95</ele>
  <time>2026-09-01T19:50:32Z</time>
  <course>7.51</course>
  <speed>0.27018512172212594</speed>
  <fix>3d</fix>
</trkpt>
<trkpt lat="-27.2744394" lon="151.2900713">
  <ele>364.09</ele>
  <time>2026-09-01T19:50:32Z</time>
  <course>22.56</course>
  <speed>0.32</speed>
  <fix>3d</fix>
</trkpt>
<trkpt lat="-27.2744384" lon="151.2900714">
  <ele>363.86</ele>
  <time>2026-09-01T19:50:32Z</time>
  <course>7.5</course>
  <speed>0.2501999200639361</speed>
  <fix>3d</fix>
</trkpt>
<trkpt lat="-27.2744388" lon="151.2900714">
  <ele>364.01</ele>
  <time>2026-09-01T19:50:32Z</time>
  <course>10.95</course>
  <speed>0.28</speed>
  <fix>3d</fix>
</trkpt>
<trkpt lat="-27.2744382" lon="151.2900714">
  <ele>363.75</ele>
  <time>2026-09-01T19:50:33Z</time>
  <course>7.45</course>
  <speed>0.24331050121192876</speed>
  <fix>3d</fix>
</trkpt>
<trkpt lat="-27.2744388" lon="151.2900714">
  <ele>364.01</ele>
  <time>2026-09-01T19:50:33Z</time>
  <course>10.95</course>
  <speed>0.28</speed>
  <fix>3d</fix>
</trkpt>
<trkpt lat="-27.2744379" lon="151.2900714">
  <ele>363.63</ele>
  <time>2026-09-01T19:50:33Z</time>
  <course>7.36</course>
  <speed>0.2308679276123039</speed>
  <fix>3d</fix>
</trkpt>
<trkpt lat="-27.2744384" lon="151.2900714">
  <ele>363.85</ele>
  <time>2026-09-01T19:50:33Z</time>
  <course>357.36</course>
  <speed>0.25</speed>
  <fix>3d</fix>
</trkpt>
<trkpt lat="-27.2744377" lon="151.2900714">
  <ele>363.5</ele>
  <time>2026-09-01T19:50:33Z</time>
  <course>7.21</course>
  <speed>0.22847319317591727</speed>
  <fix>3d</fix>
</trkpt>
<trkpt lat="-27.2744384" lon="151.2900714">
  <ele>363.85</ele>
  <time>2026-09-01T19:50:33Z</time>
  <course>357.36</course>
  <speed>0.25</speed>
  <fix>3d</fix>
</trkpt>
<trkpt lat="-27.2744376" lon="151.2900713">
  <ele>363.35</ele>
  <time>2026-09-01T19:50:33Z</time>
  <course>7.01</course>
  <speed>0.2195449840010015</speed>
  <fix>3d</fix>
</trkpt>
<trkpt lat="-27.2744379" lon="151.2900714">
  <ele>363.63</ele>
  <time>2026-09-01T19:50:33Z</time>
  <course>343.05</course>
  <speed>0.23</speed>
  <fix>3d</fix>
</trkpt>
<trkpt lat="-27.2744374" lon="151.2900712">
  <ele>363.2</ele>
  <time>2026-09-01T19:50:33Z</time>
  <course>6.74</course>
  <speed>0.21400934559032694</speed>
  <fix>3d</fix>
</trkpt>
<trkpt lat="-27.2744379" lon="151.2900714">
  <ele>363.63</ele>
  <time>2026-09-01T19:50:33Z</time>
  <course>343.05</course>
  <speed>0.23</speed>
  <fix>3d</fix>
</trkpt>
<trkpt lat="-27.2744372" lon="151.2900711">
  <ele>363.04</ele>
  <time>2026-09-01T19:50:33Z</time>
  <course>6.44</course>
  <speed>0.212602916254693</speed>
  <fix>3d</fix>
</trkpt>
<trkpt lat="-27.2744376" lon="151.2900713">
  <ele>363.35</ele>
  <time>2026-09-01T19:50:33Z</time>
  <course>329.63</course>
  <speed>0.22</speed>
  <fix>3d</fix>
</trkpt>
<trkpt lat="-27.2744371" lon="151.2900709">
  <ele>362.88</ele>
  <time>2026-09-01T19:50:33Z</time>
  <course>6.12</course>
  <speed>0.20518284528683192</speed>
  <fix>3d</fix>
</trkpt>
<trkpt lat="-27.2744376" lon="151.2900713">
  <ele>363.35</ele>
  <time>2026-09-01T19:50:33Z</time>
  <course>329.63</course>
  <speed>0.22</speed>
  <fix>3d</fix>
</trkpt>
<trkpt lat="-27.274437" lon="151.2900708">
  <ele>362.72</ele>
  <time>2026-09-01T19:50:33Z</time>
  <course>5.82</course>
  <speed>0.2</speed>
  <fix>3d</fix>
</trkpt>
<trkpt lat="-27.2744372" lon="151.290071">
  <ele>363.05</ele>
  <time>2026-09-01T19:50:33Z</time>
  <course>317.89</course>
  <speed>0.21</speed>
  <fix>3d</fix>
</trkpt>
<trkpt lat="-27.2744369" lon="151.2900706">
  <ele>362.56</ele>
  <time>2026-09-01T19:50:33Z</time>
  <course>5.55</course>
  <speed>0.20248456731316586</speed>
  <fix>3d</fix>
</trkpt>
<trkpt lat="-27.2744372" lon="151.290071">
  <ele>363.05</ele>
  <time>2026-09-01T19:50:33Z</time>
  <course>317.89</course>
  <speed>0.21</speed>
  <fix>3d</fix>
</trkpt>
<trkpt lat="-27.2744368" lon="151.2900704">
  <ele>362.39</ele>
  <time>2026-09-01T19:50:33Z</time>
  <course>5.34</course>
  <speed>0.20124611797498107</speed>
  <fix>3d</fix>
</trkpt>
<trkpt lat="-27.274437" lon="151.2900707">
  <ele>362.72</ele>
  <time>2026-09-01T19:50:33Z</time>
  <course>307.63</course>
  <speed>0.21</speed>
  <fix>3d</fix>
</trkpt>
<trkpt lat="-27.2744367" lon="151.2900702">
  <ele>362.23</ele>
  <time>2026-09-01T19:50:33Z</time>
  <course>5.2</course>
  <speed>0.19697715603592209</speed>
  <fix>3d</fix>
</trkpt>
<trkpt lat="-27.274437" lon="151.2900707">
  <ele>362.72</ele>
  <time>2026-09-01T19:50:33Z</time>
  <course>307.63</course>
  <speed>0.21</speed>
  <fix>3d</fix>
</trkpt>
<trkpt lat="-27.2744366" lon="151.2900699">
  <ele>362.07</ele>
  <time>2026-09-01T19:50:33Z</time>
  <course>5.12</course>
  <speed>0.19924858845171275</speed>
  <fix>3d</fix>
</trkpt>
<trkpt lat="-27.2744367" lon="151.2900704">
  <ele>362.4</ele>
  <time>2026-09-01T19:50:33Z</time>
  <course>298.3</course>
  <speed>0.2</speed>
  <fix>3d</fix>
</trkpt>
<trkpt lat="-27.2744366" lon="151.2900699">
  <ele>362.07</ele>
  <time>2026-09-01T19:50:33Z</time>
  <course>5.12</course>
  <speed>0.19924858845171275</speed>
  <fix>3d</fix>
</trkpt>
<trkpt lat="-27.2744366" lon="151.2900698">
  <ele>361.92</ele>
  <time>2026-09-01T19:50:33Z</time>
  <course>5.1</course>
  <speed>0.196468827043885</speed>
  <fix>3d</fix>
</trkpt>
<trkpt lat="-27.2744367" lon="151.2900704">
  <ele>362.4</ele>
  <time>2026-09-01T19:50:33Z</time>
  <course>298.3</course>
  <speed>0.2</speed>
  <fix>3d</fix>
</trkpt>
<trkpt lat="-27.2744366" lon="151.2900698">
  <ele>361.91</ele>
  <time>2026-09-01T19:50:33Z</time>
  <course>5.1</course>
  <speed>0.196468827043885</speed>
  <fix>3d</fix>
</trkpt>
<trkpt lat="-27.2744365" lon="151.2900695">
  <ele>361.76</ele>
  <time>2026-09-01T19:50:33Z</time>
  <course>5.13</course>
  <speed>0.19235384061671343</speed>
  <fix>3d</fix>
</trkpt>
<trkpt lat="-27.2744366" lon="151.29007">
  <ele>362.08</ele>
  <time>2026-09-01T19:50:33Z</time>
  <course>289.57</course>
  <speed>0.2</speed>
  <fix>3d</fix>
</trkpt>
<trkpt lat="-27.2744365" lon="151.2900695">
  <ele>361.75</ele>
  <time>2026-09-01T19:50:33Z</time>
  <course>5.13</course>
  <speed>0.19235384061671343</speed>
  <fix>3d</fix>
</trkpt>
<trkpt lat="-27.2744365" lon="151.2900694">
  <ele>361.61</ele>
  <time>2026-09-01T19:50:33Z</time>
  <course>5.19</course>
  <speed>0.191049731745428</speed>
  <fix>3d</fix>
</trkpt>
<trkpt lat="-27.2744366" lon="151.29007">
  <ele>362.08</ele>
  <time>2026-09-01T19:50:33Z</time>
  <course>289.57</course>
  <speed>0.2</speed>
  <fix>3d</fix>
</trkpt>
<trkpt lat="-27.2744365" lon="151.2900694">
  <ele>361.57</ele>
  <time>2026-09-01T19:50:33Z</time>
  <course>5.21</course>
  <speed>0.191049731745428</speed>
  <fix>3d</fix>
</trkpt>
<trkpt lat="-27.2744365" lon="151.2900692">
  <ele>361.46</ele>
  <time>2026-09-01T19:50:33Z</time>
  <course>5.26</course>
  <speed>0.2002498439450079</speed>
  <fix>3d</fix>
</trkpt>
<trkpt lat="-27.2744365" lon="151.2900697">
  <ele>361.77</ele>
  <time>2026-09-01T19:50:33Z</time>
  <course>281.34</course>
  <speed>0.2</speed>
  <fix>3d</fix>
</trkpt>
<trkpt lat="-27.2744365" lon="151.2900692">
  <ele>361.42</ele>
  <time>2026-09-01T19:50:33Z</time>
  <course>5.28</course>
  <speed>0.2</speed>
  <fix>3d</fix>
</trkpt>
<trkpt lat="-27.2744365" lon="151.290069">
  <ele>361.32</ele>
  <time>2026-09-01T19:50:33Z</time>
  <course>5.33</course>
  <speed>0.2</speed>
  <fix>3d</fix>
</trkpt>
<trkpt lat="-27.2744365" lon="151.2900697">
  <ele>361.77</ele>
  <time>2026-09-01T19:50:33Z</time>
  <course>281.34</course>
  <speed>0.2</speed>
  <fix>3d</fix>
</trkpt>
<trkpt lat="-27.2744365" lon="151.290069">
  <ele>361.28</ele>
  <time>2026-09-01T19:50:33Z</time>
  <course>5.35</course>
  <speed>0.19</speed>
  <fix>3d</fix>
</trkpt>
<trkpt lat="-27.2744365" lon="151.2900688">
  <ele>361.17</ele>
  <time>2026-09-01T19:50:33Z</time>
  <course>5.39</course>
  <speed>0.19026297590440447</speed>
  <fix>3d</fix>
</trkpt>
<trkpt lat="-27.2744365" lon="151.2900692">
  <ele>361.47</ele>
  <time>2026-09-01T19:50:33Z</time>
  <course>273.67</course>
  <speed>0.19</speed>
  <fix>3d</fix>
</trkpt>
<trkpt lat="-27.2744365" lon="151.2900688">
  <ele>361.13</ele>
  <time>2026-09-01T19:50:33Z</time>
  <course>5.41</course>
  <speed>0.19026297590440447</speed>
  <fix>3d</fix>
</trkpt>
<trkpt lat="-27.2744365" lon="151.2900685">
  <ele>361.03</ele>
  <time>2026-09-01T19:50:33Z</time>
  <course>5.44</course>
  <speed>0.191049731745428</speed>
  <fix>3d</fix>
</trkpt>
<trkpt lat="-27.2744365" lon="151.2900692">
  <ele>361.47</ele>
  <time>2026-09-01T19:50:33Z</time>
  <course>273.67</course>
  <speed>0.19</speed>
  <fix>3d</fix>
</trkpt>
<trkpt lat="-27.2744365" lon="151.2900685">
  <ele>360.98</ele>
  <time>2026-09-01T19:50:33Z</time>
  <course>5.45</course>
  <speed>0.191049731745428</speed>
  <fix>3d</fix>
</trkpt>
<trkpt lat="-27.2744365" lon="151.2900684">
  <ele>360.88</ele>
  <time>2026-09-01T19:50:33Z</time>
  <course>5.46</course>
  <speed>0.19235384061671343</speed>
  <fix>3d</fix>
</trkpt>
<trkpt lat="-27.2744365" lon="151.2900688">
  <ele>361.18</ele>
  <time>2026-09-01T19:50:33Z</time>
  <course>266.71</course>
  <speed>0.19</speed>
  <fix>3d</fix>
</trkpt>
<trkpt lat="-27.2744366" lon="151.2900684">
  <ele>360.84</ele>
  <time>2026-09-01T19:50:33Z</time>
  <course>5.46</course>
  <speed>0.19235384061671343</speed>
  <fix>3d</fix>
</trkpt>
<trkpt lat="-27.2744366" lon="151.2900681">
  <ele>360.74</ele>
  <time>2026-09-01T19:50:33Z</time>
  <course>5.46</course>
  <speed>0.194164878389476</speed>
  <fix>3d</fix>
</trkpt>
<trkpt lat="-27.2744365" lon="151.2900688">
  <ele>361.18</ele>
  <time>2026-09-01T19:50:33Z</time>
  <course>266.71</course>
  <speed>0.19</speed>
  <fix>3d</fix>
</trkpt>
<trkpt lat="-27.2744366" lon="151.2900681">
  <ele>360.7</ele>
  <time>2026-09-01T19:50:33Z</time>
  <course>5.45</course>
  <speed>0.194164878389476</speed>
  <fix>3d</fix>
</trkpt>
<trkpt lat="-27.2744366" lon="151.290068">
  <ele>360.6</ele>
  <time>2026-09-01T19:50:33Z</time>
  <course>5.43</course>
  <speed>0.18681541692269404</speed>
  <fix>3d</fix>
</trkpt>
<trkpt lat="-27.2744365" lon="151.2900684">
  <ele>360.89</ele>
  <time>2026-09-01T19:50:33Z</time>
  <course>260.49</course>
  <speed>0.19</speed>
  <fix>3d</fix>
</trkpt>
<trkpt lat="-27.2744366" lon="151.290068">
  <ele>360.56</ele>
  <time>2026-09-01T19:50:33Z</time>
  <course>5.42</course>
  <speed>0.18681541692269404</speed>
  <fix>3d</fix>
</trkpt>
<trkpt lat="-27.2744366" lon="151.2900679">
  <ele>360.46</ele>
  <time>2026-09-01T19:50:33Z</time>
  <course>5.39</course>
  <speed>0.18681541692269404</speed>
  <fix>3d</fix>
</trkpt>
<trkpt lat="-27.2744365" lon="151.2900684">
  <ele>360.89</ele>
  <time>2026-09-01T19:50:33Z</time>
  <course>260.49</course>
  <speed>0.19</speed>
  <fix>3d</fix>
</trkpt>
<trkpt lat="-27.2744366" lon="151.2900678">
  <ele>360.42</ele>
  <time>2026-09-01T19:50:33Z</time>
  <course>5.38</course>
  <speed>0.18973665961010278</speed>
  <fix>3d</fix>
</trkpt>
<trkpt lat="-27.2744366" lon="151.2900676">
  <ele>360.31</ele>
  <time>2026-09-01T19:50:33Z</time>
  <course>5.34</course>
  <speed>0.18027756377319945</speed>
  <fix>3d</fix>
</trkpt>
<trkpt lat="-27.2744366" lon="151.290068">
  <ele>360.6</ele>
  <time>2026-09-01T19:50:33Z</time>
  <course>254.88</course>
  <speed>0.19</speed>
  <fix>3d</fix>
</trkpt>
<trkpt lat="-27.2744366" lon="151.2900676">
  <ele>360.31</ele>
  <time>2026-09-01T19:50:33Z</time>
  <course>5.34</course>
  <speed>0.18027756377319945</speed>
  <fix>3d</fix>
</trkpt>
<trkpt lat="-27.2744367" lon="151.2900675">
  <ele>360.17</ele>
  <time>2026-09-01T19:50:33Z</time>
  <course>5.28</course>
  <speed>0.18384776310850234</speed>
  <fix>3d</fix>
</trkpt>
<trkpt lat="-27.2744366" lon="151.290068">
  <ele>360.6</ele>
  <time>2026-09-01T19:50:33Z</time>
  <course>254.88</course>
  <speed>0.19</speed>
  <fix>3d</fix>
</trkpt>
<trkpt lat="-27.2744367" lon="151.2900675">
  <ele>360.16</ele>
  <time>2026-09-01T19:50:33Z</time>
  <course>5.28</course>
  <speed>0.17464249196572978</speed>
  <fix>3d</fix>
</trkpt>
<trkpt lat="-27.2744368" lon="151.2900673">
  <ele>360.02</ele>
  <time>2026-09-01T19:50:33Z</time>
  <course>5.22</course>
  <speed>0.17464249196572978</speed>
  <fix>3d</fix>
</trkpt>
<trkpt lat="-27.2744366" lon="151.2900677">
  <ele>360.31</ele>
  <time>2026-09-01T19:50:33Z</time>
  <course>249.6</course>
  <speed>0.18</speed>
  <fix>3d</fix>
</trkpt>
<trkpt lat="-27.2744368" lon="151.2900673">
  <ele>359.98</ele>
  <time>2026-09-01T19:50:33Z</time>
  <course>5.2</course>
  <speed>0.17</speed>
  <fix>3d</fix>
</trkpt>
<trkpt lat="-27.2744368" lon="151.2900671">
  <ele>359.88</ele>
  <time>2026-09-01T19:50:33Z</time>
  <course>5.15</course>
  <speed>0.17</speed>
  <fix>3d</fix>
</trkpt>
<trkpt lat="-27.2744366" lon="151.2900677">
  <ele>360.31</ele>
  <time>2026-09-01T19:50:33Z</time>
  <course>249.6</course>
  <speed>0.18</speed>
  <fix>3d</fix>
</trkpt>
<trkpt lat="-27.2744368" lon="151.2900671">
  <ele>359.87</ele>
  <time>2026-09-01T19:50:33Z</time>
  <course>5.15</course>
  <speed>0.17</speed>
  <fix>3d</fix>
</trkpt>
<trkpt lat="-27.2744369" lon="151.290067">
  <ele>359.73</ele>
  <time>2026-09-01T19:50:33Z</time>
  <course>5.09</course>
  <speed>0.16124515496597097</speed>
  <fix>3d</fix>
</trkpt>
<trkpt lat="-27.2744367" lon="151.2900673">
  <ele>360.02</ele>
  <time>2026-09-01T19:50:33Z</time>
  <course>244.37</course>
  <speed>0.18</speed>
  <fix>3d</fix>
</trkpt>
<trkpt lat="-27.2744369" lon="151.290067">
  <ele>359.69</ele>
  <time>2026-09-01T19:50:33Z</time>
  <course>5.07</course>
  <speed>0.16124515496597097</speed>
  <fix>3d</fix>
</trkpt>
<trkpt lat="-27.274437" lon="151.2900669">
  <ele>359.58</ele>
  <time>2026-09-01T19:50:33Z</time>
  <course>5.03</course>
  <speed>0.15811388300841897</speed>
  <fix>3d</fix>
</trkpt>
<trkpt lat="-27.2744367" lon="151.2900673">
  <ele>360.02</ele>
  <time>2026-09-01T19:50:33Z</time>
  <course>244.37</course>
  <speed>0.18</speed>
  <fix>3d</fix>
</trkpt>
<trkpt lat="-27.274437" lon="151.2900668">
  <ele>359.54</ele>
  <time>2026-09-01T19:50:33Z</time>
  <course>5.01</course>
  <speed>0.15811388300841897</speed>
  <fix>3d</fix>
</trkpt>
<trkpt lat="-27.2744371" lon="151.2900668">
  <ele>359.43</ele>
  <time>2026-09-01T19:50:33Z</time>
  <course>4.97</course>
  <speed>0.15</speed>
  <fix>3d</fix>
</trkpt>
<trkpt lat="-27.2744369" lon="151.290067">
  <ele>359.73</ele>
  <time>2026-09-01T19:50:33Z</time>
  <course>239.0</course>
  <speed>0.16</speed>
  <fix>3d</fix>
</trkpt>
<trkpt lat="-27.2744371" lon="151.2900666">
  <ele>359.39</ele>
  <time>2026-09-01T19:50:33Z</time>
  <course>4.95</course>
  <speed>0.15</speed>
  <fix>3d</fix>
</trkpt>
<trkpt lat="-27.2744372" lon="151.2900666">
  <ele>359.28</ele>
  <time>2026-09-01T19:50:33Z</time>
  <course>4.91</course>
  <speed>0.14212670403551894</speed>
  <fix>3d</fix>
</trkpt>
<trkpt lat="-27.2744369" lon="151.290067">
  <ele>359.73</ele>
  <time>2026-09-01T19:50:33Z</time>
  <course>239.0</course>
  <speed>0.16</speed>
  <fix>3d</fix>
</trkpt>
<trkpt lat="-27.2744372" lon="151.2900666">
  <ele>359.22</ele>
  <time>2026-09-01T19:50:33Z</time>
  <course>4.88</course>
  <speed>0.14212670403551894</speed>
  <fix>3d</fix>
</trkpt>
<trkpt lat="-27.2744372" lon="151.2900665">
  <ele>359.13</ele>
  <time>2026-09-01T19:50:33Z</time>
  <course>4.85</course>
  <speed>0.1345362404707371</speed>
  <fix>3d</fix>
</trkpt>
<trkpt lat="-27.2744371" lon="151.2900667">
  <ele>359.44</ele>
  <time>2026-09-01T19:50:33Z</time>
  <course>233.32</course>
  <speed>0.15</speed>
  <fix>3d</fix>
</trkpt>
<trkpt lat="-27.2744373" lon="151.2900665">
  <ele>359.09</ele>
  <time>2026-09-01T19:50:33Z</time>
  <course>4.84</course>
  <speed>0.1345362404707371</speed>
  <fix>3d</fix>
</trkpt>
<trkpt lat="-27.2744373" lon="151.2900664">
  <ele>358.98</ele>
  <time>2026-09-01T19:50:33Z</time>
  <course>4.8</course>
  <speed>0.12727922061357855</speed>
  <fix>3d</fix>
</trkpt>
<trkpt lat="-27.2744371" lon="151.2900667">
  <ele>359.44</ele>
  <time>2026-09-01T19:50:33Z</time>
  <course>233.32</course>
  <speed>0.15</speed>
  <fix>3d</fix>
</trkpt>
<trkpt lat="-27.2744374" lon="151.2900664">
  <ele>358.94</ele>
  <time>2026-09-01T19:50:33Z</time>
  <course>4.78</course>
  <speed>0.12727922061357855</speed>
  <fix>3d</fix>
</trkpt>
<trkpt lat="-27.2744374" lon="151.2900663">
  <ele>358.83</ele>
  <time>2026-09-01T19:50:33Z</time>
  <course>4.75</course>
  <speed>0.12806248474865697</speed>
  <fix>3d</fix>
</trkpt>
<trkpt lat="-27.2744372" lon="151.2900665">
  <ele>359.14</ele>
  <time>2026-09-01T19:50:33Z</time>
  <course>227.04</course>
  <speed>0.14</speed>
  <fix>3d</fix>
</trkpt>
<trkpt lat="-27.2744374" lon="151.2900663">
  <ele>358.79</ele>
  <time>2026-09-01T19:50:33Z</time>
  <course>4.73</course>
  <speed>0.12806248474865697</speed>
  <fix>3d</fix>
</trkpt>
<trkpt lat="-27.2744375" lon="151.2900661">
  <ele>358.68</ele>
  <time>2026-09-01T19:50:33Z</time>
  <course>4.7</course>
  <speed>0.12206555615733702</speed>
  <fix>3d</fix>
</trkpt>
<trkpt lat="-27.2744372" lon="151.2900665">
  <ele>359.14</ele>
  <time>2026-09-01T19:50:33Z</time>
  <course>227.04</course>
  <speed>0.14</speed>
  <fix>3d</fix>
</trkpt>
<trkpt lat="-27.2744375" lon="151.2900661">
  <ele>358.68</ele>
  <time>2026-09-01T19:50:33Z</time>
  <course>4.7</course>
  <speed>0.12206555615733702</speed>
  <fix>3d</fix>
</trkpt>
<trkpt lat="-27.2744376" lon="151.2900661">
  <ele>358.53</ele>
  <time>2026-09-01T19:50:33Z</time>
  <course>4.66</course>
  <speed>0.10816653826391968</speed>
  <fix>3d</fix>
</trkpt>
<trkpt lat="-27.2744373" lon="151.2900663">
  <ele>358.84</ele>
  <time>2026-09-01T19:50:33Z</time>
  <course>220.02</course>
  <speed>0.13</speed>
  <fix>3d</fix>
</trkpt>
<trkpt lat="-27.2744376" lon="151.2900661">
  <ele>358.52</ele>
  <time>2026-09-01T19:50:33Z</time>
  <course>4.66</course>
  <speed>0.10816653826391968</speed>
  <fix>3d</fix>
</trkpt>
<trkpt lat="-27.2744377" lon="151.2900661">
  <ele>358.38</ele>
  <time>2026-09-01T19:50:33Z</time>
  <course>4.62</course>
  <speed>0.10295630140987001</speed>
  <fix>3d</fix>
</trkpt>
<trkpt lat="-27.2744373" lon="151.2900663">
  <ele>358.84</ele>
  <time>2026-09-01T19:50:33Z</time>
  <course>220.02</course>
  <speed>0.13</speed>
  <fix>3d</fix>
</trkpt>
<trkpt lat="-27.2744377" lon="151.2900661">
  <ele>358.34</ele>
  <time>2026-09-01T19:50:33Z</time>
  <course>4.61</course>
  <speed>0.09848857801796104</speed>
  <fix>3d</fix>
</trkpt>
<trkpt lat="-27.2744378" lon="151.2900661">
  <ele>358.23</ele>
  <time>2026-09-01T19:50:33Z</time>
  <course>4.59</course>
  <speed>0.09848857801796104</speed>
  <fix>3d</fix>
</trkpt>
<trkpt lat="-27.2744376" lon="151.2900662">
  <ele>358.54</ele>
  <time>2026-09-01T19:50:33Z</time>
  <course>212.12</course>
  <speed>0.11</speed>
  <fix>3d</fix>
</trkpt>
<trkpt lat="-27.2744378" lon="151.2900661">
  <ele>358.18</ele>
  <time>2026-09-01T19:50:33Z</time>
  <course>4.58</course>
  <speed>0.09486832980505139</speed>
  <fix>3d</fix>
</trkpt>
<trkpt lat="-27.2744379" lon="151.290066">
  <ele>358.08</ele>
  <time>2026-09-01T19:50:33Z</time>
  <course>4.55</course>
  <speed>0.09486832980505139</speed>
  <fix>3d</fix>
</trkpt>
<trkpt lat="-27.2744376" lon="151.2900662">
  <ele>358.54</ele>
  <time>2026-09-01T19:50:33Z</time>
  <course>212.12</course>
  <speed>0.11</speed>
  <fix>3d</fix>
</trkpt>
<trkpt lat="-27.2744379" lon="151.290066">
  <ele>358.04</ele>
  <time>2026-09-01T19:50:33Z</time>
  <course>4.54</course>
  <speed>0.09219544457292887</speed>
  <fix>3d</fix>
</trkpt>
<trkpt lat="-27.274438" lon="151.290066">
  <ele>357.93</ele>
  <time>2026-09-01T19:50:33Z</time>
  <course>4.52</course>
  <speed>0.09219544457292887</speed>
  <fix>3d</fix>
</trkpt>
<trkpt lat="-27.2744378" lon="151.290066">
  <ele>358.23</ele>
  <time>2026-09-01T19:50:33Z</time>
  <course>202.96</course>
  <speed>0.1</speed>
  <fix>3d</fix>
</trkpt>
<trkpt lat="-27.274438" lon="151.290066">
  <ele>357.88</ele>
  <time>2026-09-01T19:50:33Z</time>
  <course>4.5</course>
  <speed>0.09055385138137417</speed>
  <fix>3d</fix>
</trkpt>
<trkpt lat="-27.274438" lon="151.290066">
  <ele>357.78</ele>
  <time>2026-09-01T19:50:33Z</time>
  <course>4.48</course>
  <speed>0.09055385138137417</speed>
  <fix>3d</fix>
</trkpt>
<trkpt lat="-27.2744378" lon="151.290066">
  <ele>358.23</ele>
  <time>2026-09-01T19:50:33Z</time>
  <course>202.96</course>
  <speed>0.1</speed>
  <fix>3d</fix>
</trkpt>
<trkpt lat="-27.274438" lon="151.290066">
  <ele>357.77</ele>
  <time>2026-09-01T19:50:33Z</time>
  <course>4.48</course>
  <speed>0.09055385138137417</speed>
  <fix>3d</fix>
</trkpt>
<trkpt lat="-27.2744381" lon="151.290066">
  <ele>357.62</ele>
  <time>2026-09-01T19:50:33Z</time>
  <course>4.44</course>
  <speed>0.09</speed>
  <fix>3d</fix>
</trkpt>
<trkpt lat="-27.2744379" lon="151.290066">
  <ele>357.93</ele>
  <time>2026-09-01T19:50:33Z</time>
  <course>192.71</course>
  <speed>0.09</speed>
  <fix>3d</fix>
</trkpt>
<trkpt lat="-27.2744381" lon="151.290066">
  <ele>357.58</ele>
  <time>2026-09-01T19:50:33Z</time>
  <course>4.43</course>
  <speed>0.09</speed>
  <fix>3d</fix>
</trkpt>
<trkpt lat="-27.2744382" lon="151.290066">
  <ele>357.47</ele>
  <time>2026-09-01T19:50:33Z</time>
  <course>4.4</course>
  <speed>0.09</speed>
  <fix>3d</fix>
</trkpt>
<trkpt lat="-27.2744379" lon="151.290066">
  <ele>357.93</ele>
  <time>2026-09-01T19:50:33Z</time>
  <course>192.71</course>
  <speed>0.09</speed>
  <fix>3d</fix>
</trkpt>
<trkpt lat="-27.2744382" lon="151.290066">
  <ele>357.43</ele>
  <time>2026-09-01T19:50:33Z</time>
  <course>4.39</course>
  <speed>0.09</speed>
  <fix>3d</fix>
</trkpt>
<trkpt lat="-27.2744383" lon="151.290066">
  <ele>357.32</ele>
  <time>2026-09-01T19:50:33Z</time>
  <course>4.36</course>
  <speed>0.08062257748298549</speed>
  <fix>3d</fix>
</trkpt>
<trkpt lat="-27.2744381" lon="151.290066">
  <ele>357.63</ele>
  <time>2026-09-01T19:50:33Z</time>
  <course>181.98</course>
  <speed>0.09</speed>
  <fix>3d</fix>
</trkpt>
<trkpt lat="-27.2744383" lon="151.290066">
  <ele>357.28</ele>
  <time>2026-09-01T19:50:33Z</time>
  <course>4.35</course>
  <speed>0.08062257748298549</speed>
  <fix>3d</fix>
</trkpt>
<trkpt lat="-27.2744384" lon="151.290066">
  <ele>357.17</ele>
  <time>2026-09-01T19:50:33Z</time>
  <course>4.32</course>
  <speed>0.0824621125123532</speed>
  <fix>3d</fix>
</trkpt>
<trkpt lat="-27.2744381" lon="151.290066">
  <ele>357.63</ele>
  <time>2026-09-01T19:50:33Z</time>
  <course>181.98</course>
  <speed>0.09</speed>
  <fix>3d</fix>
</trkpt>
<trkpt lat="-27.2744384" lon="151.290066">
  <ele>357.13</ele>
  <time>2026-09-01T19:50:33Z</time>
  <course>4.31</course>
  <speed>0.0824621125123532</speed>
  <fix>3d</fix>
</trkpt>
<trkpt lat="-27.2744384" lon="151.290066">
  <ele>357.02</ele>
  <time>2026-09-01T19:50:33Z</time>
  <course>4.28</course>
  <speed>0.0854400374531753</speed>
  <fix>3d</fix>
</trkpt>
<trkpt lat="-27.2744383" lon="151.290066">
  <ele>357.33</ele>
  <time>2026-09-01T19:50:33Z</time>
  <course>171.12</course>
  <speed>0.09</speed>
  <fix>3d</fix>
</trkpt>
<trkpt lat="-27.2744384" lon="151.290066">
  <ele>357.02</ele>
  <time>2026-09-01T19:50:33Z</time>
  <course>4.28</course>
  <speed>0.0854400374531753</speed>
  <fix>3d</fix>
</trkpt>
<trkpt lat="-27.2744385" lon="151.290066">
  <ele>356.87</ele>
  <time>2026-09-01T19:50:33Z</time>
  <course>4.24</course>
  <speed>0.0854400374531753</speed>
  <fix>3d</fix>
</trkpt>
<trkpt lat="-27.2744383" lon="151.290066">
  <ele>357.33</ele>
  <time>2026-09-01T19:50:33Z</time>
  <course>171.12</course>
  <speed>0.09</speed>
  <fix>3d</fix>
</trkpt>
<trkpt lat="-27.2744385" lon="151.290066">
  <ele>356.87</ele>
  <time>2026-09-01T19:50:33Z</time>
  <course>4.24</course>
  <speed>0.0854400374531753</speed>
  <fix>3d</fix>
</trkpt>
<trkpt lat="-27.2744386" lon="151.290066">
  <ele>356.72</ele>
  <time>2026-09-01T19:50:33Z</time>
  <course>4.2</course>
  <speed>0.08062257748298549</speed>
  <fix>3d</fix>
</trkpt>
<trkpt lat="-27.2744384" lon="151.290066">
  <ele>357.03</ele>
  <time>2026-09-01T19:50:33Z</time>
  <course>160.88</course>
  <speed>0.08</speed>
  <fix>3d</fix>
</trkpt>
<trkpt lat="-27.2744386" lon="151.290066">
  <ele>356.68</ele>
  <time>2026-09-01T19:50:33Z</time>
  <course>4.19</course>
  <speed>0.08062257748298549</speed>
  <fix>3d</fix>
</trkpt>
<trkpt lat="-27.2744387" lon="151.2900661">
  <ele>356.57</ele>
  <time>2026-09-01T19:50:33Z</time>
  <course>4.17</course>
  <speed>0.08062257748298549</speed>
  <fix>3d</fix>
</trkpt>
<trkpt lat="-27.2744384" lon="151.290066">
  <ele>357.03</ele>
  <time>2026-09-01T19:50:33Z</time>
  <course>160.88</course>
  <speed>0.08</speed>
  <fix>3d</fix>
</trkpt>
<trkpt lat="-27.2744387" lon="151.2900661">
  <ele>356.53</ele>
  <time>2026-09-01T19:50:33Z</time>
  <course>4.17</course>
  <speed>0.08062257748298549</speed>
  <fix>3d</fix>
</trkpt>
<trkpt lat="-27.2744387" lon="151.2900661">
  <ele>356.42</ele>
  <time>2026-09-01T19:50:33Z</time>
  <course>4.19</course>
  <speed>0.08062257748298549</speed>
  <fix>3d</fix>
</trkpt>
<trkpt lat="-27.2744385" lon="151.290066">
  <ele>356.72</ele>
  <time>2026-09-01T19:50:33Z</time>
  <course>152.22</course>
  <speed>0.09</speed>
  <fix>3d</fix>
</trkpt>
<trkpt lat="-27.2744387" lon="151.2900661">
  <ele>356.38</ele>
  <time>2026-09-01T19:50:33Z</time>
  <course>4.2</course>
  <speed>0.08062257748298549</speed>
  <fix>3d</fix>
</trkpt>
<trkpt lat="-27.2744388" lon="151.2900661">
  <ele>356.27</ele>
  <time>2026-09-01T19:50:33Z</time>
  <course>4.24</course>
  <speed>0.07810249675906654</speed>
  <fix>3d</fix>
</trkpt>
<trkpt lat="-27.2744385" lon="151.290066">
  <ele>356.72</ele>
  <time>2026-09-01T19:50:33Z</time>
  <course>152.22</course>
  <speed>0.09</speed>
  <fix>3d</fix>
</trkpt>
<trkpt lat="-27.2744388" lon="151.2900661">
  <ele>356.23</ele>
  <time>2026-09-01T19:50:33Z</time>
  <course>4.26</course>
  <speed>0.07810249675906654</speed>
  <fix>3d</fix>
</trkpt>
<trkpt lat="-27.2744389" lon="151.2900661">
  <ele>356.12</ele>
  <time>2026-09-01T19:50:33Z</time>
  <course>4.31</course>
  <speed>0.07810249675906654</speed>
  <fix>3d</fix>
</trkpt>
<trkpt lat="-27.2744387" lon="151.2900661">
  <ele>356.43</ele>
  <time>2026-09-01T19:50:33Z</time>
  <course>146.37</course>
  <speed>0.08</speed>
  <fix>3d</fix>
</trkpt>
<trkpt lat="-27.2744389" lon="151.2900661">
  <ele>356.08</ele>
  <time>2026-09-01T19:50:33Z</time>
  <course>4.33</course>
  <speed>0.07810249675906654</speed>
  <fix>3d</fix>
</trkpt>
<trkpt lat="-27.2744389" lon="151.2900663">
  <ele>355.97</ele>
  <time>2026-09-01T19:50:33Z</time>
  <course>4.37</course>
  <speed>0.07810249675906654</speed>
  <fix>3d</fix>
</trkpt>
<trkpt lat="-27.2744387" lon="151.2900661">
  <ele>356.43</ele>
  <time>2026-09-01T19:50:33Z</time>
  <course>146.37</course>
  <speed>0.08</speed>
  <fix>3d</fix>
</trkpt>
<trkpt lat="-27.2744389" lon="151.2900663">
  <ele>355.93</ele>
  <time>2026-09-01T19:50:33Z</time>
  <course>4.38</course>
  <speed>0.07810249675906654</speed>
  <fix>3d</fix>
</trkpt>
<trkpt lat="-27.274439" lon="151.2900663">
  <ele>355.82</ele>
  <time>2026-09-01T19:50:33Z</time>
  <course>4.41</course>
  <speed>0.07071067811865475</speed>
  <fix>3d</fix>
</trkpt>
<trkpt lat="-27.2744388" lon="151.2900662">
  <ele>356.13</ele>
  <time>2026-09-01T19:50:33Z</time>
  <course>142.21</course>
  <speed>0.08</speed>
  <fix>3d</fix>
</trkpt>
<trkpt lat="-27.274439" lon="151.2900663">
  <ele>355.82</ele>
  <time>2026-09-01T19:50:33Z</time>
  <course>4.41</course>
  <speed>0.07071067811865475</speed>
  <fix>3d</fix>
</trkpt>
<trkpt lat="-27.274439" lon="151.2900664">
  <ele>355.67</ele>
  <time>2026-09-01T19:50:33Z</time>
  <course>4.43</course>
  <speed>0.07071067811865475</speed>
  <fix>3d</fix>
</trkpt>
<trkpt lat="-27.2744388" lon="151.2900662">
  <ele>356.13</ele>
  <time>2026-09-01T19:50:33Z</time>
  <course>142.21</course>
  <speed>0.08</speed>
  <fix>3d</fix>
</trkpt>
<trkpt lat="-27.274439" lon="151.2900664">
  <ele>355.67</ele>
  <time>2026-09-01T19:50:33Z</time>
  <course>4.43</course>
  <speed>0.07071067811865475</speed>
  <fix>3d</fix>
</trkpt>
<trkpt lat="-27.2744391" lon="151.2900664">
  <ele>355.52</ele>
  <time>2026-09-01T19:50:33Z</time>
  <course>4.45</course>
  <speed>0.07071067811865475</speed>
  <fix>3d</fix>
</trkpt>
<trkpt lat="-27.2744389" lon="151.2900663">
  <ele>355.83</ele>
  <time>2026-09-01T19:50:33Z</time>
  <course>138.32</course>
  <speed>0.08</speed>
  <fix>3d</fix>
</trkpt>
<trkpt lat="-27.2744391" lon="151.2900664">
  <ele>355.51</ele>
  <time>2026-09-01T19:50:33Z</time>
  <course>4.45</course>
  <speed>0.07071067811865475</speed>
  <fix>3d</fix>
</trkpt>
<trkpt lat="-27.2744391" lon="151.2900665">
  <ele>355.37</ele>
  <time>2026-09-01T19:50:33Z</time>
  <course>4.47</course>
  <speed>0.0565685424949238</speed>
  <fix>3d</fix>
</trkpt>
<trkpt lat="-27.2744389" lon="151.2900663">
  <ele>355.83</ele>
  <time>2026-09-01T19:50:33Z</time>
  <course>138.32</course>
  <speed>0.08</speed>
  <fix>3d</fix>
</trkpt>
<trkpt lat="-27.2744391" lon="151.2900665">
  <ele>355.37</ele>
  <time>2026-09-01T19:50:33Z</time>
  <course>4.47</course>
  <speed>0.0565685424949238</speed>
  <fix>3d</fix>
</trkpt>
<trkpt lat="-27.2744392" lon="151.2900665">
  <ele>355.22</ele>
  <time>2026-09-01T19:50:33Z</time>
  <course>4.52</course>
  <speed>0.0565685424949238</speed>
  <fix>3d</fix>
</trkpt>
<trkpt lat="-27.274439" lon="151.2900664">
  <ele>355.53</ele>
  <time>2026-09-01T19:50:33Z</time>
  <course>136.02</course>
  <speed>0.07</speed>
  <fix>3d</fix>
</trkpt>
<trkpt lat="-27.2744392" lon="151.2900665">
  <ele>355.22</ele>
  <time>2026-09-01T19:50:33Z</time>
  <course>4.52</course>
  <speed>0.0565685424949238</speed>
  <fix>3d</fix>
</trkpt>
<trkpt lat="-27.2744392" lon="151.2900666">
  <ele>355.07</ele>
  <time>2026-09-01T19:50:33Z</time>
  <course>4.61</course>
  <speed>0.05</speed>
  <fix>3d</fix>
</trkpt>
<trkpt lat="-27.274439" lon="151.2900664">
  <ele>355.53</ele>
  <time>2026-09-01T19:50:33Z</time>
  <course>136.02</course>
  <speed>0.07</speed>
  <fix>3d</fix>
</trkpt>
<trkpt lat="-27.2744392" lon="151.2900666">
  <ele>355.03</ele>
  <time>2026-09-01T19:50:33Z</time>
  <course>4.64</course>
  <speed>0.05</speed>
  <fix>3d</fix>
</trkpt>
<trkpt lat="-27.2744392" lon="151.2900666">
  <ele>354.92</ele>
  <time>2026-09-01T19:50:33Z</time>
  <course>4.75</course>
  <speed>0.03605551275463989</speed>
  <fix>3d</fix>
</trkpt>
<trkpt lat="-27.2744391" lon="151.2900665">
  <ele>355.22</ele>
  <time>2026-09-01T19:50:33Z</time>
  <course>137.04</course>
  <speed>0.06</speed>
  <fix>3d</fix>
</trkpt>
<trkpt lat="-27.2744392" lon="151.2900666">
  <ele>354.88</ele>
  <time>2026-09-01T19:50:33Z</time>
  <course>4.81</course>
  <speed>0.03605551275463989</speed>
  <fix>3d</fix>
</trkpt>
<trkpt lat="-27.2744393" lon="151.2900666">
  <ele>354.77</ele>
  <time>2026-09-01T19:50:33Z</time>
  <course>4.96</course>
  <speed>0.0316227766016838</speed>
  <fix>3d</fix>
</trkpt>
<trkpt lat="-27.2744391" lon="151.2900665">
  <ele>355.22</ele>
  <time>2026-09-01T19:50:33Z</time>
  <course>137.04</course>
  <speed>0.06</speed>
  <fix>3d</fix>
</trkpt>
<trkpt lat="-27.2744393" lon="151.2900666">
  <ele>354.73</ele>
  <time>2026-09-01T19:50:33Z</time>
  <course>5.02</course>
  <speed>0.0316227766016838</speed>
  <fix>3d</fix>
</trkpt>
<trkpt lat="-27.2744393" lon="151.2900666">
  <ele>354.62</ele>
  <time>2026-09-01T19:50:33Z</time>
  <course>5.22</course>
  <speed>0.03</speed>
  <fix>3d</fix>
</trkpt>
<trkpt lat="-27.2744392" lon="151.2900666">
  <ele>354.93</ele>
  <time>2026-09-01T19:50:33Z</time>
  <course>146.23</course>
  <speed>0.04</speed>
  <fix>3d</fix>
</trkpt>
<trkpt lat="-27.2744393" lon="151.2900666">
  <ele>354.58</ele>
  <time>2026-09-01T19:50:33Z</time>
  <course>5.3</course>
  <speed>0.03</speed>
  <fix>3d</fix>
</trkpt>
<trkpt lat="-27.2744393" lon="151.2900666">
  <ele>354.47</ele>
  <time>2026-09-01T19:50:33Z</time>
  <course>5.53</course>
  <speed>0.022360679774997897</speed>
  <fix>3d</fix>
</trkpt>
<trkpt lat="-27.2744392" lon="151.2900666">
  <ele>354.93</ele>
  <time>2026-09-01T19:50:33Z</time>
  <course>146.23</course>
  <speed>0.04</speed>
  <fix>3d</fix>
</trkpt>
<trkpt lat="-27.2744393" lon="151.2900666">
  <ele>354.43</ele>
  <time>2026-09-01T19:50:33Z</time>
  <course>5.61</course>
  <speed>0.0282842712474619</speed>
  <fix>3d</fix>
</trkpt>
<trkpt lat="-27.2744393" lon="151.2900666">
  <ele>354.33</ele>
  <time>2026-09-01T19:50:33Z</time>
  <course>5.85</course>
  <speed>0.03605551275463989</speed>
  <fix>3d</fix>
</trkpt>
<trkpt lat="-27.2744393" lon="151.2900666">
  <ele>354.63</ele>
  <time>2026-09-01T19:50:33Z</time>
  <course>181.75</course>
  <speed>0.03</speed>
  <fix>3d</fix>
</trkpt>
<trkpt lat="-27.2744394" lon="151.2900666">
  <ele>354.29</ele>
  <time>2026-09-01T19:50:33Z</time>
  <course>5.93</course>
  <speed>0.03605551275463989</speed>
  <fix>3d</fix>
</trkpt>
<trkpt lat="-27.2744394" lon="151.2900666">
  <ele>354.18</ele>
  <time>2026-09-01T19:50:33Z</time>
  <course>6.16</course>
  <speed>0.053851648071345036</speed>
  <fix>3d</fix>
</trkpt>
<trkpt lat="-27.2744393" lon="151.2900666">
  <ele>354.63</ele>
  <time>2026-09-01T19:50:33Z</time>
  <course>181.75</course>
  <speed>0.03</speed>
  <fix>3d</fix>
</trkpt>
<trkpt lat="-27.2744394" lon="151.2900666">
  <ele>354.14</ele>
  <time>2026-09-01T19:50:33Z</time>
  <course>6.24</course>
  <speed>0.053851648071345036</speed>
  <fix>3d</fix>
</trkpt>
<trkpt lat="-27.2744394" lon="151.2900666">
  <ele>354.03</ele>
  <time>2026-09-01T19:50:33Z</time>
  <course>6.44</course>
  <speed>0.07071067811865475</speed>
  <fix>3d</fix>
</trkpt>
<trkpt lat="-27.2744393" lon="151.2900666">
  <ele>354.33</ele>
  <time>2026-09-01T19:50:33Z</time>
  <course>234.02</course>
  <speed>0.04</speed>
  <fix>3d</fix>
</trkpt>
<trkpt lat="-27.2744394" lon="151.2900666">
  <ele>353.99</ele>
  <time>2026-09-01T19:50:33Z</time>
  <course>6.51</course>
  <speed>0.07071067811865475</speed>
  <fix>3d</fix>
</trkpt>
<trkpt lat="-27.2744394" lon="151.2900665">
  <ele>353.89</ele>
  <time>2026-09-01T19:50:33Z</time>
  <course>6.67</course>
  <speed>0.08062257748298549</speed>
  <fix>3d</fix>
</trkpt>
<trkpt lat="-27.2744393" lon="151.2900666">
  <ele>354.33</ele>
  <time>2026-09-01T19:50:33Z</time>
  <course>234.02</course>
  <speed>0.04</speed>
  <fix>3d</fix>
</trkpt>
<trkpt lat="-27.2744394" lon="151.2900665">
  <ele>353.85</ele>
  <time>2026-09-01T19:50:33Z</time>
  <course>6.72</course>
  <speed>0.09055385138137417</speed>
  <fix>3d</fix>
</trkpt>
<trkpt lat="-27.2744394" lon="151.2900664">
  <ele>353.75</ele>
  <time>2026-09-01T19:50:33Z</time>
  <course>6.85</course>
  <speed>0.1004987562112089</speed>
  <fix>3d</fix>
</trkpt>
<trkpt lat="-27.2744394" lon="151.2900665">
  <ele>354.04</ele>
  <time>2026-09-01T19:50:33Z</time>
  <course>254.46</course>
  <speed>0.07</speed>
  <fix>3d</fix>
</trkpt>
<trkpt lat="-27.2744394" lon="151.2900664">
  <ele>353.74</ele>
  <time>2026-09-01T19:50:33Z</time>
  <course>6.85</course>
  <speed>0.1004987562112089</speed>
  <fix>3d</fix>
</trkpt>
<trkpt lat="-27.2744394" lon="151.2900663">
  <ele>353.61</ele>
  <time>2026-09-01T19:50:33Z</time>
  <course>6.98</course>
  <speed>0.12041594578792296</speed>
  <fix>3d</fix>
</trkpt>
<trkpt lat="-27.2744394" lon="151.2900665">
  <ele>354.04</ele>
  <time>2026-09-01T19:50:33Z</time>
  <course>254.46</course>
  <speed>0.07</speed>
  <fix>3d</fix>
</trkpt>
<trkpt lat="-27.2744394" lon="151.2900663">
  <ele>353.57</ele>
  <time>2026-09-01T19:50:33Z</time>
  <course>7.0</course>
  <speed>0.130384048104053</speed>
  <fix>3d</fix>
</trkpt>
<trkpt lat="-27.2744394" lon="151.2900661">
  <ele>353.47</ele>
  <time>2026-09-01T19:50:33Z</time>
  <course>7.06</course>
  <speed>0.140356688476182</speed>
  <fix>3d</fix>
</trkpt>
<trkpt lat="-27.2744394" lon="151.2900664">
  <ele>353.75</ele>
  <time>2026-09-01T19:50:33Z</time>
  <course>261.78</course>
  <speed>0.1</speed>
  <fix>3d</fix>
</trkpt>
<trkpt lat="-27.2744394" lon="151.2900661">
  <ele>353.46</ele>
  <time>2026-09-01T19:50:33Z</time>
  <course>7.06</course>
  <speed>0.140356688476182</speed>
  <fix>3d</fix>
</trkpt>
<trkpt lat="-27.2744395" lon="151.290066">
  <ele>353.33</ele>
  <time>2026-09-01T19:50:33Z</time>
  <course>7.11</course>
  <speed>0.15033296378372907</speed>
  <fix>3d</fix>
</trkpt>
<trkpt lat="-27.2744394" lon="151.2900664">
  <ele>353.75</ele>
  <time>2026-09-01T19:50:33Z</time>
  <course>261.78</course>
  <speed>0.1</speed>
  <fix>3d</fix>
</trkpt>
<trkpt lat="-27.2744395" lon="151.290066">
  <ele>353.3</ele>
  <time>2026-09-01T19:50:33Z</time>
  <course>7.12</course>
  <speed>0.16031219541881397</speed>
  <fix>3d</fix>
</trkpt>
<trkpt lat="-27.2744395" lon="151.2900657">
  <ele>353.2</ele>
  <time>2026-09-01T19:50:33Z</time>
  <course>7.15</course>
  <speed>0.17029386365926402</speed>
  <fix>3d</fix>
</trkpt>
<trkpt lat="-27.2744394" lon="151.2900661">
  <ele>353.47</ele>
  <time>2026-09-01T19:50:33Z</time>
  <course>264.91</course>
  <speed>0.14</speed>
  <fix>3d</fix>
</trkpt>
<trkpt lat="-27.2744395" lon="151.2900657">
  <ele>353.17</ele>
  <time>2026-09-01T19:50:33Z</time>
  <course>7.16</course>
  <speed>0.17029386365926402</speed>
  <fix>3d</fix>
</trkpt>
<trkpt lat="-27.2744395" lon="151.2900656">
  <ele>353.07</ele>
  <time>2026-09-01T19:50:33Z</time>
  <course>7.18</course>
  <speed>0.18027756377319945</speed>
  <fix>3d</fix>
</trkpt>
<trkpt lat="-27.2744394" lon="151.2900661">
  <ele>353.47</ele>
  <time>2026-09-01T19:50:33Z</time>
  <course>264.91</course>
  <speed>0.14</speed>
  <fix>3d</fix>
</trkpt>
<trkpt lat="-27.2744395" lon="151.2900656">
  <ele>353.04</ele>
  <time>2026-09-01T19:50:33Z</time>
  <course>7.19</course>
  <speed>0.19</speed>
  <fix>3d</fix>
</trkpt>
<trkpt lat="-27.2744395" lon="151.2900654">
  <ele>352.94</ele>
  <time>2026-09-01T19:50:33Z</time>
  <course>7.22</course>
  <speed>0.2</speed>
  <fix>3d</fix>
</trkpt>
<trkpt lat="-27.2744395" lon="151.2900658">
  <ele>353.21</ele>
  <time>2026-09-01T19:50:33Z</time>
  <course>266.44</course>
  <speed>0.17</speed>
  <fix>3d</fix>
</trkpt>
<trkpt lat="-27.2744395" lon="151.2900654">
  <ele>352.91</ele>
  <time>2026-09-01T19:50:33Z</time>
  <course>7.23</course>
  <speed>0.2</speed>
  <fix>3d</fix>
</trkpt>
<trkpt lat="-27.2744395" lon="151.2900651">
  <ele>352.82</ele>
  <time>2026-09-01T19:50:33Z</time>
  <course>7.26</course>
  <speed>0.21</speed>
  <fix>3d</fix>
</trkpt>
<trkpt lat="-27.2744395" lon="151.2900658">
  <ele>353.21</ele>
  <time>2026-09-01T19:50:33Z</time>
  <course>266.44</course>
  <speed>0.17</speed>
  <fix>3d</fix>
</trkpt>
<trkpt lat="-27.2744395" lon="151.2900651">
  <ele>352.79</ele>
  <time>2026-09-01T19:50:33Z</time>
  <course>7.27</course>
  <speed>0.21</speed>
  <fix>3d</fix>
</trkpt>
<trkpt lat="-27.2744395" lon="151.290065">
  <ele>352.7</ele>
  <time>2026-09-01T19:50:33Z</time>
  <course>7.32</course>
  <speed>0.22</speed>
  <fix>3d</fix>
</trkpt>
<trkpt lat="-27.2744395" lon="151.2900654">
  <ele>352.95</ele>
  <time>2026-09-01T19:50:33Z</time>
  <course>267.37</course>
  <speed>0.2</speed>
  <fix>3d</fix>
</trkpt>
<trkpt lat="-27.2744395" lon="151.290065">
  <ele>352.66</ele>
  <time>2026-09-01T19:50:33Z</time>
  <course>7.33</course>
  <speed>0.22</speed>
  <fix>3d</fix>
</trkpt>
<trkpt lat="-27.2744395" lon="151.2900647">
  <ele>352.58</ele>
  <time>2026-09-01T19:50:33Z</time>
  <course>7.38</course>
  <speed>0.23</speed>
  <fix>3d</fix>
</trkpt>
<trkpt lat="-27.2744395" lon="151.2900654">
  <ele>352.95</ele>
  <time>2026-09-01T19:50:33Z</time>
  <course>267.37</course>
  <speed>0.2</speed>
  <fix>3d</fix>
</trkpt>
<trkpt lat="-27.2744395" lon="151.2900646">
  <ele>352.55</ele>
  <time>2026-09-01T19:50:33Z</time>
  <course>7.39</course>
  <speed>0.23</speed>
  <fix>3d</fix>
</trkpt>
<trkpt lat="-27.2744395" lon="151.2900645">
  <ele>352.46</ele>
  <time>2026-09-01T19:50:33Z</time>
  <course>7.45</course>
  <speed>0.24</speed>
  <fix>3d</fix>
</trkpt>
<trkpt lat="-27.2744395" lon="151.2900649">
  <ele>352.7</ele>
  <time>2026-09-01T19:50:33Z</time>
  <course>268.03</course>
  <speed>0.22</speed>
  <fix>3d</fix>
</trkpt>
<trkpt lat="-27.2744395" lon="151.2900645">
  <ele>352.44</ele>
  <time>2026-09-01T19:50:33Z</time>
  <course>7.47</course>
  <speed>0.24</speed>
  <fix>3d</fix>
</trkpt>
<trkpt lat="-27.2744395" lon="151.2900642">
  <ele>352.35</ele>
  <time>2026-09-01T19:50:33Z</time>
  <course>7.53</course>
  <speed>0.24</speed>
  <fix>3d</fix>
</trkpt>
<trkpt lat="-27.2744395" lon="151.2900649">
  <ele>352.7</ele>
  <time>2026-09-01T19:50:33Z</time>
  <course>268.03</course>
  <speed>0.22</speed>
  <fix>3d</fix>
</trkpt>
<trkpt lat="-27.2744395" lon="151.2900642">
  <ele>352.34</ele>
  <time>2026-09-01T19:50:33Z</time>
  <course>7.54</course>
  <speed>0.25</speed>
  <fix>3d</fix>
</trkpt>
<trkpt lat="-27.2744395" lon="151.290064">
  <ele>352.23</ele>
  <time>2026-09-01T19:50:33Z</time>
  <course>7.61</course>
  <speed>0.25</speed>
  <fix>3d</fix>
</trkpt>
<trkpt lat="-27.2744395" lon="151.2900645">
  <ele>352.46</ele>
  <time>2026-09-01T19:50:33Z</time>
  <course>268.47</course>
  <speed>0.24</speed>
  <fix>3d</fix>
</trkpt>
<trkpt lat="-27.2744395" lon="151.290064">
  <ele>352.23</ele>
  <time>2026-09-01T19:50:33Z</time>
  <course>7.61</course>
  <speed>0.25</speed>
  <fix>3d</fix>
</trkpt>
<trkpt lat="-27.2744395" lon="151.2900637">
  <ele>352.12</ele>
  <time>2026-09-01T19:50:33Z</time>
  <course>7.68</course>
  <speed>0.25</speed>
  <fix>3d</fix>
</trkpt>
<trkpt lat="-27.2744395" lon="151.2900645">
  <ele>352.46</ele>
  <time>2026-09-01T19:50:33Z</time>
  <course>268.47</course>
  <speed>0.24</speed>
  <fix>3d</fix>
</trkpt>
<trkpt lat="-27.2744395" lon="151.2900637">
  <ele>352.1</ele>
  <time>2026-09-01T19:50:33Z</time>
  <course>7.69</course>
  <speed>0.25</speed>
  <fix>3d</fix>
</trkpt>
<trkpt lat="-27.2744395" lon="151.2900635">
  <ele>352.02</ele>
  <time>2026-09-01T19:50:33Z</time>
  <course>7.74</course>
  <speed>0.26</speed>
  <fix>3d</fix>
</trkpt>
<trkpt lat="-27.2744395" lon="151.290064">
  <ele>352.24</ele>
  <time>2026-09-01T19:50:33Z</time>
  <course>268.76</course>
  <speed>0.25</speed>
  <fix>3d</fix>
</trkpt>
<trkpt lat="-27.2744395" lon="151.2900635">
  <ele>351.99</ele>
  <time>2026-09-01T19:50:33Z</time>
  <course>7.75</course>
  <speed>0.26</speed>
  <fix>3d</fix>
</trkpt>
<trkpt lat="-27.2744395" lon="151.2900632">
  <ele>351.91</ele>
  <time>2026-09-01T19:50:33Z</time>
  <course>7.79</course>
  <speed>0.26</speed>
  <fix>3d</fix>
</trkpt>
<trkpt lat="-27.2744395" lon="151.290064">
  <ele>352.24</ele>
  <time>2026-09-01T19:50:33Z</time>
  <course>268.76</course>
  <speed>0.25</speed>
  <fix>3d</fix>
</trkpt>
<trkpt lat="-27.2744395" lon="151.2900632">
  <ele>351.91</ele>
  <time>2026-09-01T19:50:33Z</time>
  <course>7.8</course>
  <speed>0.26</speed>
  <fix>3d</fix>
</trkpt>
<trkpt lat="-27.2744395" lon="151.290063">
  <ele>351.81</ele>
  <time>2026-09-01T19:50:33Z</time>
  <course>7.84</course>
  <speed>0.26</speed>
  <fix>3d</fix>
</trkpt>
<trkpt lat="-27.2744395" lon="151.2900635">
  <ele>352.02</ele>
  <time>2026-09-01T19:50:33Z</time>
  <course>268.95</course>
  <speed>0.25</speed>
  <fix>3d</fix>
</trkpt>
<trkpt lat="-27.2744395" lon="151.2900628">
  <ele>351.78</ele>
  <time>2026-09-01T19:50:33Z</time>
  <course>7.85</course>
  <speed>0.25</speed>
  <fix>3d</fix>
</trkpt>
<trkpt lat="-27.2744395" lon="151.2900627">
  <ele>351.7</ele>
  <time>2026-09-01T19:50:33Z</time>
  <course>7.88</course>
  <speed>0.25</speed>
  <fix>3d</fix>
</trkpt>
<trkpt lat="-27.2744395" lon="151.2900635">
  <ele>352.02</ele>
  <time>2026-09-01T19:50:33Z</time>
  <course>268.95</course>
  <speed>0.25</speed>
  <fix>3d</fix>
</trkpt>
<trkpt lat="-27.2744395" lon="151.2900627">
  <ele>351.68</ele>
  <time>2026-09-01T19:50:33Z</time>
  <course>7.89</course>
  <speed>0.25</speed>
  <fix>3d</fix>
</trkpt>
<trkpt lat="-27.2744395" lon="151.2900625">
  <ele>351.6</ele>
  <time>2026-09-01T19:50:33Z</time>
  <course>7.91</course>
  <speed>0.25</speed>
  <fix>3d</fix>
</trkpt>
<trkpt lat="-27.2744395" lon="151.2900629">
  <ele>351.81</ele>
  <time>2026-09-01T19:50:33Z</time>
  <course>269.06</course>
  <speed>0.25</speed>
  <fix>3d</fix>
</trkpt>
<trkpt lat="-27.2744395" lon="151.2900623">
  <ele>351.58</ele>
  <time>2026-09-01T19:50:33Z</time>
  <course>7.92</course>
  <speed>0.25</speed>
  <fix>3d</fix>
</trkpt>
<trkpt lat="-27.2744395" lon="151.2900622">
  <ele>351.51</ele>
  <time>2026-09-01T19:50:33Z</time>
  <course>7.94</course>
  <speed>0.24</speed>
  <fix>3d</fix>
</trkpt>
<trkpt lat="-27.2744395" lon="151.2900629">
  <ele>351.81</ele>
  <time>2026-09-01T19:50:33Z</time>
  <course>269.06</course>
  <speed>0.25</speed>
  <fix>3d</fix>
</trkpt>
<trkpt lat="-27.2744395" lon="151.2900622">
  <ele>351.49</ele>
  <time>2026-09-01T19:50:33Z</time>
  <course>7.95</course>
  <speed>0.24</speed>
  <fix>3d</fix>
</trkpt>
<trkpt lat="-27.2744395" lon="151.290062">
  <ele>351.41</ele>
  <time>2026-09-01T19:50:33Z</time>
  <course>7.98</course>
  <speed>0.24</speed>
  <fix>3d</fix>
</trkpt>
<trkpt lat="-27.2744395" lon="151.2900624">
  <ele>351.61</ele>
  <time>2026-09-01T19:50:33Z</time>
  <course>269.14</course>
  <speed>0.25</speed>
  <fix>3d</fix>
</trkpt>
<trkpt lat="-27.2744396" lon="151.2900618">
  <ele>351.39</ele>
  <time>2026-09-01T19:50:33Z</time>
  <course>7.98</course>
  <speed>0.24</speed>
  <fix>3d</fix>
</trkpt>
<trkpt lat="-27.2744396" lon="151.2900617">
  <ele>351.31</ele>
  <time>2026-09-01T19:50:33Z</time>
  <course>8.01</course>
  <speed>0.23</speed>
  <fix>3d</fix>
</trkpt>
<trkpt lat="-27.2744395" lon="151.2900624">
  <ele>351.61</ele>
  <time>2026-09-01T19:50:33Z</time>
  <course>269.14</course>
  <speed>0.25</speed>
  <fix>3d</fix>
</trkpt>
<trkpt lat="-27.2744396" lon="151.2900617">
  <ele>351.29</ele>
  <time>2026-09-01T19:50:33Z</time>
  <course>8.02</course>
  <speed>0.23</speed>
  <fix>3d</fix>
</trkpt>
<trkpt lat="-27.2744396" lon="151.2900615">
  <ele>351.22</ele>
  <time>2026-09-01T19:50:33Z</time>
  <course>8.04</course>
  <speed>0.22</speed>
  <fix>3d</fix>
</trkpt>
<trkpt lat="-27.2744395" lon="151.2900619">
  <ele>351.41</ele>
  <time>2026-09-01T19:50:33Z</time>
  <course>269.23</course>
  <speed>0.24</speed>
  <fix>3d</fix>
</trkpt>
<trkpt lat="-27.2744396" lon="151.2900615">
  <ele>351.22</ele>
  <time>2026-09-01T19:50:33Z</time>
  <course>8.04</course>
  <speed>0.22</speed>
  <fix>3d</fix>
</trkpt>
<trkpt lat="-27.2744396" lon="151.2900613">
  <ele>351.13</ele>
  <time>2026-09-01T19:50:33Z</time>
  <course>8.08</course>
  <speed>0.21</speed>
  <fix>3d</fix>
</trkpt>
<trkpt lat="-27.2744395" lon="151.2900619">
  <ele>351.41</ele>
  <time>2026-09-01T19:50:33Z</time>
  <course>269.23</course>
  <speed>0.24</speed>
  <fix>3d</fix>
</trkpt>
<trkpt lat="-27.2744396" lon="151.2900613">
  <ele>351.12</ele>
  <time>2026-09-01T19:50:33Z</time>
  <course>8.08</course>
  <speed>0.21</speed>
  <fix>3d</fix>
</trkpt>
<trkpt lat="-27.2744396" lon="151.2900611">
  <ele>351.04</ele>
  <time>2026-09-01T19:50:33Z</time>
  <course>8.11</course>
  <speed>0.2</speed>
  <fix>3d</fix>
</trkpt>
<trkpt lat="-27.2744396" lon="151.2900614">
  <ele>351.22</ele>
  <time>2026-09-01T19:50:33Z</time>
  <course>269.34</course>
  <speed>0.22</speed>
  <fix>3d</fix>
</trkpt>
<trkpt lat="-27.2744396" lon="151.2900609">
  <ele>351.03</ele>
  <time>2026-09-01T19:50:33Z</time>
  <course>8.11</course>
  <speed>0.2</speed>
  <fix>3d</fix>
</trkpt>
<trkpt lat="-27.2744396" lon="151.2900608">
  <ele>350.95</ele>
  <time>2026-09-01T19:50:33Z</time>
  <course>8.14</course>
  <speed>0.19</speed>
  <fix>3d</fix>
</trkpt>
<trkpt lat="-27.2744396" lon="151.2900614">
  <ele>351.22</ele>
  <time>2026-09-01T19:50:33Z</time>
  <course>269.34</course>
  <speed>0.22</speed>
  <fix>3d</fix>
</trkpt>
<trkpt lat="-27.2744396" lon="151.2900608">
  <ele>350.92</ele>
  <time>2026-09-01T19:50:33Z</time>
  <course>8.14</course>
  <speed>0.19</speed>
  <fix>3d</fix>
</trkpt>
<trkpt lat="-27.2744396" lon="151.2900607">
  <ele>350.86</ele>
  <time>2026-09-01T19:50:33Z</time>
  <course>8.16</course>
  <speed>0.18</speed>
  <fix>3d</fix>
</trkpt>
<trkpt lat="-27.2744396" lon="151.2900611">
  <ele>351.04</ele>
  <time>2026-09-01T19:50:33Z</time>
  <course>269.48</course>
  <speed>0.2</speed>
  <fix>3d</fix>
</trkpt>
<trkpt lat="-27.2744396" lon="151.2900606">
  <ele>350.84</ele>
  <time>2026-09-01T19:50:33Z</time>
  <course>8.17</course>
  <speed>0.17</speed>
  <fix>3d</fix>
</trkpt>
<trkpt lat="-27.2744396" lon="151.2900604">
  <ele>350.77</ele>
  <time>2026-09-01T19:50:33Z</time>
  <course>8.19</course>
  <speed>0.16</speed>
  <fix>3d</fix>
</trkpt>
<trkpt lat="-27.2744396" lon="151.2900611">
  <ele>351.04</ele>
  <time>2026-09-01T19:50:33Z</time>
  <course>269.48</course>
  <speed>0.2</speed>
  <fix>3d</fix>
</trkpt>
<trkpt lat="-27.2744396" lon="151.2900603">
  <ele>350.75</ele>
  <time>2026-09-01T19:50:33Z</time>
  <course>8.2</course>
  <speed>0.16</speed>
  <fix>3d</fix>
</trkpt>
<trkpt lat="-27.2744396" lon="151.2900603">
  <ele>350.69</ele>
  <time>2026-09-01T19:50:33Z</time>
  <course>8.21</course>
  <speed>0.15</speed>
  <fix>3d</fix>
</trkpt>
<trkpt lat="-27.2744396" lon="151.2900606">
  <ele>350.86</ele>
  <time>2026-09-01T19:50:33Z</time>
  <course>269.64</course>
  <speed>0.18</speed>
  <fix>3d</fix>
</trkpt>
<trkpt lat="-27.2744396" lon="151.2900603">
  <ele>350.66</ele>
  <time>2026-09-01T19:50:33Z</time>
  <course>8.22</course>
  <speed>0.15</speed>
  <fix>3d</fix>
</trkpt>
<trkpt lat="-27.2744396" lon="151.2900602">
  <ele>350.6</ele>
  <time>2026-09-01T19:50:33Z</time>
  <course>8.24</course>
  <speed>0.14</speed>
  <fix>3d</fix>
</trkpt>
<trkpt lat="-27.2744396" lon="151.2900606">
  <ele>350.86</ele>
  <time>2026-09-01T19:50:33Z</time>
  <course>269.64</course>
  <speed>0.18</speed>
  <fix>3d</fix>
</trkpt>
<trkpt lat="-27.2744396" lon="151.2900602">
  <ele>350.6</ele>
  <time>2026-09-01T19:50:33Z</time>
  <course>8.24</course>
  <speed>0.14</speed>
  <fix>3d</fix>
</trkpt>
<trkpt lat="-27.2744396" lon="151.2900599">
  <ele>350.52</ele>
  <time>2026-09-01T19:50:33Z</time>
  <course>8.26</course>
  <speed>0.12</speed>
  <fix>3d</fix>
</trkpt>
<trkpt lat="-27.2744396" lon="151.2900603">
  <ele>350.69</ele>
  <time>2026-09-01T19:50:33Z</time>
  <course>269.84</course>
  <speed>0.15</speed>
  <fix>3d</fix>
</trkpt>
<trkpt lat="-27.2744396" lon="151.2900599">
  <ele>350.52</ele>
  <time>2026-09-01T19:50:33Z</time>
  <course>8.26</course>
  <speed>0.12</speed>
  <fix>3d</fix>
</trkpt>
<trkpt lat="-27.2744396" lon="151.2900599">
  <ele>350.44</ele>
  <time>2026-09-01T19:50:33Z</time>
  <course>8.29</course>
  <speed>0.11</speed>
  <fix>3d</fix>
</trkpt>
<trkpt lat="-27.2744396" lon="151.2900603">
  <ele>350.69</ele>
  <time>2026-09-01T19:50:33Z</time>
  <course>269.84</course>
  <speed>0.15</speed>
  <fix>3d</fix>
</trkpt>
<trkpt lat="-27.2744396" lon="151.2900599">
  <ele>350.44</ele>
  <time>2026-09-01T19:50:33Z</time>
  <course>8.29</course>
  <speed>0.11</speed>
  <fix>3d</fix>
</trkpt>
<trkpt lat="-27.2744396" lon="151.2900598">
  <ele>350.36</ele>
  <time>2026-09-01T19:50:33Z</time>
  <course>8.31</course>
  <speed>0.09</speed>
  <fix>3d</fix>
</trkpt>
<trkpt lat="-27.2744396" lon="151.29006">
  <ele>350.52</ele>
  <time>2026-09-01T19:50:33Z</time>
  <course>270.1</course>
  <speed>0.12</speed>
  <fix>3d</fix>
</trkpt>
<trkpt lat="-27.2744396" lon="151.2900598">
  <ele>350.34</ele>
  <time>2026-09-01T19:50:33Z</time>
  <course>8.31</course>
  <speed>0.09</speed>
  <fix>3d</fix>
</trkpt>
<trkpt lat="-27.2744396" lon="151.2900597">
  <ele>350.28</ele>
  <time>2026-09-01T19:50:33Z</time>
  <course>8.33</course>
  <speed>0.07</speed>
  <fix>3d</fix>
</trkpt>
<trkpt lat="-27.2744396" lon="151.29006">
  <ele>350.52</ele>
  <time>2026-09-01T19:50:33Z</time>
  <course>270.1</course>
  <speed>0.12</speed>
  <fix>3d</fix>
</trkpt>
<trkpt lat="-27.2744396" lon="151.2900597">
  <ele>350.28</ele>
  <time>2026-09-01T19:50:33Z</time>
  <course>8.33</course>
  <speed>0.07</speed>
  <fix>3d</fix>
</trkpt>
<trkpt lat="-27.2744396" lon="151.2900596">
  <ele>350.21</ele>
  <time>2026-09-01T19:50:33Z</time>
  <course>8.35</course>
  <speed>0.06</speed>
  <fix>3d</fix>
</trkpt>
<trkpt lat="-27.2744396" lon="151.2900598">
  <ele>350.36</ele>
  <time>2026-09-01T19:50:33Z</time>
  <course>270.48</course>
  <speed>0.09</speed>
  <fix>3d</fix>
</trkpt>
<trkpt lat="-27.2744396" lon="151.2900596">
  <ele>350.21</ele>
  <time>2026-09-01T19:50:33Z</time>
  <course>8.35</course>
  <speed>0.06</speed>
  <fix>3d</fix>
</trkpt>
<trkpt lat="-27.2744396" lon="151.2900596">
  <ele>350.13</ele>
  <time>2026-09-01T19:50:33Z</time>
  <course>8.37</course>
  <speed>0.04</speed>
  <fix>3d</fix>
</trkpt>
<trkpt lat="-27.2744396" lon="151.2900598">
  <ele>350.36</ele>
  <time>2026-09-01T19:50:33Z</time>
  <course>270.48</course>
  <speed>0.09</speed>
  <fix>3d</fix>
</trkpt>
<trkpt lat="-27.2744396" lon="151.2900596">
  <ele>350.11</ele>
  <time>2026-09-01T19:50:33Z</time>
  <course>8.37</course>
  <speed>0.04</speed>
  <fix>3d</fix>
</trkpt>
<trkpt lat="-27.2744396" lon="151.2900594">
  <ele>350.06</ele>
  <time>2026-09-01T19:50:33Z</time>
  <course>8.39</course>
  <speed>0.03</speed>
  <fix>3d</fix>
</trkpt>
<trkpt lat="-27.2744396" lon="151.2900596">
  <ele>350.21</ele>
  <time>2026-09-01T19:50:33Z</time>
  <course>271.09</course>
  <speed>0.06</speed>
  <fix>3d</fix>
</trkpt>
<trkpt lat="-27.2744396" lon="151.2900594">
  <ele>350.04</ele>
  <time>2026-09-01T19:50:33Z</time>
  <course>8.4</course>
  <speed>0.02</speed>
  <fix>3d</fix>
</trkpt>
<trkpt lat="-27.2744396" lon="151.2900594">
  <ele>349.99</ele>
  <time>2026-09-01T19:50:33Z</time>
  <course>8.41</course>
  <speed>0.01</speed>
  <fix>3d</fix>
</trkpt>
<trkpt lat="-27.2744396" lon="151.2900596">
  <ele>350.21</ele>
  <time>2026-09-01T19:50:33Z</time>
  <course>271.09</course>
  <speed>0.06</speed>
  <fix>3d</fix>
</trkpt>
<trkpt lat="-27.2744396" lon="151.2900594">
  <ele>349.97</ele>
  <time>2026-09-01T19:50:33Z</time>
  <course>8.42</course>
  <speed>0.01</speed>
  <fix>3d</fix>
</trkpt>
<trkpt lat="-27.2744396" lon="151.2900594">
  <ele>349.92</ele>
  <time>2026-09-01T19:50:33Z</time>
  <course>8.44</course>
  <speed>0.0</speed>
  <fix>3d</fix>
</trkpt>
<trkpt lat="-27.2744396" lon="151.2900595">
  <ele>350.06</ele>
  <time>2026-09-01T19:50:33Z</time>
  <course>272.46</course>
  <speed>0.03</speed>
  <fix>3d</fix>
</trkpt>
<trkpt lat="-27.2744396" lon="151.2900594">
  <ele>349.9</ele>
  <time>2026-09-01T19:50:33Z</time>
  <course>8.46</course>
  <speed>0.0</speed>
  <fix>3d</fix>
</trkpt>
<trkpt lat="-27.2744396" lon="151.2900594">
  <ele>349.85</ele>
  <time>2026-09-01T19:50:33Z</time>
  <course>8.54</course>
  <speed>0.0</speed>
  <fix>3d</fix>
</trkpt>
<trkpt lat="-27.2744396" lon="151.2900595">
  <ele>350.06</ele>
  <time>2026-09-01T19:50:33Z</time>
  <course>272.46</course>
  <speed>0.03</speed>
  <fix>3d</fix>
</trkpt>
<trkpt lat="-27.2744396" lon="151.2900594">
  <ele>349.83</ele>
  <time>2026-09-01T19:50:33Z</time>
  <course>8.58</course>
  <speed>0.0</speed>
  <fix>3d</fix>
</trkpt>
<trkpt lat="-27.2744396" lon="151.2900594">
  <ele>349.78</ele>
  <time>2026-09-01T19:50:33Z</time>
  <course>8.72</course>
  <speed>0.01</speed>
  <fix>3d</fix>
</trkpt>
<trkpt lat="-27.2744396" lon="151.2900594">
  <ele>349.91</ele>
  <time>2026-09-01T19:50:33Z</time>
  <course>289.48</course>
  <speed>0.0</speed>
  <fix>3d</fix>
</trkpt>
<trkpt lat="-27.2744396" lon="151.2900594">
  <ele>349.76</ele>
  <time>2026-09-01T19:50:33Z</time>
  <course>8.77</course>
  <speed>0.01</speed>
  <fix>3d</fix>
</trkpt>
<trkpt lat="-27.2744396" lon="151.2900594">
  <ele>349.71</ele>
  <time>2026-09-01T19:50:33Z</time>
  <course>8.93</course>
  <speed>0.01</speed>
  <fix>3d</fix>
</trkpt>
<trkpt lat="-27.2744396" lon="151.2900594">
  <ele>349.91</ele>
  <time>2026-09-01T19:50:33Z</time>
  <course>289.48</course>
  <speed>0.0</speed>
  <fix>3d</fix>
</trkpt>
<trkpt lat="-27.2744396" lon="151.2900594">
  <ele>349.69</ele>
  <time>2026-09-01T19:50:33Z</time>
  <course>9.0</course>
  <speed>0.02</speed>
  <fix>3d</fix>
</trkpt>
<trkpt lat="-27.2744396" lon="151.2900596">
  <ele>349.65</ele>
  <time>2026-09-01T19:50:33Z</time>
  <course>9.13</course>
  <speed>0.02</speed>
  <fix>3d</fix>
</trkpt>
<trkpt lat="-27.2744396" lon="151.2900594">
  <ele>349.78</ele>
  <time>2026-09-01T19:50:33Z</time>
  <course>65.64</course>
  <speed>0.01</speed>
  <fix>3d</fix>
</trkpt>
<trkpt lat="-27.2744396" lon="151.2900596">
  <ele>349.63</ele>
  <time>2026-09-01T19:50:33Z</time>
  <course>9.18</course>
  <speed>0.03</speed>
  <fix>3d</fix>
</trkpt>
<trkpt lat="-27.2744396" lon="151.2900596">
  <ele>349.59</ele>
  <time>2026-09-01T19:50:33Z</time>
  <course>9.28</course>
  <speed>0.03</speed>
  <fix>3d</fix>
</trkpt>
<trkpt lat="-27.2744396" lon="151.2900594">
  <ele>349.78</ele>
  <time>2026-09-01T19:50:33Z</time>
  <course>65.64</course>
  <speed>0.01</speed>
  <fix>3d</fix>
</trkpt>
<trkpt lat="-27.2744396" lon="151.2900596">
  <ele>349.57</ele>
  <time>2026-09-01T19:50:33Z</time>
  <course>9.31</course>
  <speed>0.03</speed>
  <fix>3d</fix>
</trkpt>
<trkpt lat="-27.2744396" lon="151.2900596">
  <ele>349.52</ele>
  <time>2026-09-01T19:50:33Z</time>
  <course>9.37</course>
  <speed>0.04</speed>
  <fix>3d</fix>
</trkpt>
<trkpt lat="-27.2744396" lon="151.2900595">
  <ele>349.65</ele>
  <time>2026-09-01T19:50:33Z</time>
  <course>75.39</course>
  <speed>0.02</speed>
  <fix>3d</fix>
</trkpt>
<trkpt lat="-27.2744396" lon="151.2900596">
  <ele>349.52</ele>
  <time>2026-09-01T19:50:33Z</time>
  <course>9.37</course>
  <speed>0.04</speed>
  <fix>3d</fix>
</trkpt>
<trkpt lat="-27.2744396" lon="151.2900596">
  <ele>349.46</ele>
  <time>2026-09-01T19:50:33Z</time>
  <course>9.4</course>
  <speed>0.05099019513592785</speed>
  <fix>3d</fix>
</trkpt>
<trkpt lat="-27.2744396" lon="151.2900595">
  <ele>349.65</ele>
  <time>2026-09-01T19:50:33Z</time>
  <course>75.39</course>
  <speed>0.02</speed>
  <fix>3d</fix>
</trkpt>
<trkpt lat="-27.2744396" lon="151.2900596">
  <ele>349.46</ele>
  <time>2026-09-01T19:50:33Z</time>
  <course>9.4</course>
  <speed>0.05099019513592785</speed>
  <fix>3d</fix>
</trkpt>
<trkpt lat="-27.2744396" lon="151.2900596">
  <ele>349.4</ele>
  <time>2026-09-01T19:50:33Z</time>
  <course>9.37</course>
  <speed>0.06082762530298219</speed>
  <fix>3d</fix>
</trkpt>
<trkpt lat="-27.2744396" lon="151.2900596">
  <ele>349.52</ele>
  <time>2026-09-01T19:50:33Z</time>
  <course>78.29</course>
  <speed>0.04</speed>
  <fix>3d</fix>
</trkpt>
<trkpt lat="-27.2744396" lon="151.2900597">
  <ele>349.38</ele>
  <time>2026-09-01T19:50:33Z</time>
  <course>9.35</course>
  <speed>0.06082762530298219</speed>
  <fix>3d</fix>
</trkpt>
<trkpt lat="-27.2744396" lon="151.2900597">
  <ele>349.34</ele>
  <time>2026-09-01T19:50:33Z</time>
  <course>9.29</course>
  <speed>0.07071067811865475</speed>
  <fix>3d</fix>
</trkpt>
<trkpt lat="-27.2744396" lon="151.2900596">
  <ele>349.52</ele>
  <time>2026-09-01T19:50:33Z</time>
  <course>78.29</course>
  <speed>0.04</speed>
  <fix>3d</fix>
</trkpt>
<trkpt lat="-27.2744396" lon="151.2900597">
  <ele>349.33</ele>
  <time>2026-09-01T19:50:33Z</time>
  <course>9.27</course>
  <speed>0.07071067811865475</speed>
  <fix>3d</fix>
</trkpt>
<trkpt lat="-27.2744396" lon="151.2900598">
  <ele>349.28</ele>
  <time>2026-09-01T19:50:33Z</time>
  <course>9.2</course>
  <speed>0.08062257748298549</speed>
  <fix>3d</fix>
</trkpt>
<trkpt lat="-27.2744396" lon="151.2900596">
  <ele>349.4</ele>
  <time>2026-09-01T19:50:33Z</time>
  <course>79.42</course>
  <speed>0.06</speed>
  <fix>3d</fix>
</trkpt>
<trkpt lat="-27.2744396" lon="151.2900598">
  <ele>349.27</ele>
  <time>2026-09-01T19:50:33Z</time>
  <course>9.17</course>
  <speed>0.08062257748298549</speed>
  <fix>3d</fix>
</trkpt>
<trkpt lat="-27.2744396" lon="151.2900599">
  <ele>349.22</ele>
  <time>2026-09-01T19:50:33Z</time>
  <course>9.1</course>
  <speed>0.08062257748298549</speed>
  <fix>3d</fix>
</trkpt>
<trkpt lat="-27.2744396" lon="151.2900596">
  <ele>349.4</ele>
  <time>2026-09-01T19:50:33Z</time>
  <course>79.42</course>
  <speed>0.06</speed>
  <fix>3d</fix>
</trkpt>
<trkpt lat="-27.2744396" lon="151.2900599">
  <ele>349.21</ele>
  <time>2026-09-01T19:50:33Z</time>
  <course>9.07</course>
  <speed>0.09055385138137417</speed>
  <fix>3d</fix>
</trkpt>
<trkpt lat="-27.2744396" lon="151.2900599">
  <ele>349.17</ele>
  <time>2026-09-01T19:50:33Z</time>
  <course>9.01</course>
  <speed>0.09055385138137417</speed>
  <fix>3d</fix>
</trkpt>
<trkpt lat="-27.2744396" lon="151.2900598">
  <ele>349.28</ele>
  <time>2026-09-01T19:50:33Z</time>
  <course>80.13</course>
  <speed>0.08</speed>
  <fix>3d</fix>
</trkpt>
<trkpt lat="-27.2744395" lon="151.2900599">
  <ele>349.15</ele>
  <time>2026-09-01T19:50:33Z</time>
  <course>8.99</course>
  <speed>0.09055385138137417</speed>
  <fix>3d</fix>
</trkpt>
<trkpt lat="-27.2744395" lon="151.2900601">
  <ele>349.11</ele>
  <time>2026-09-01T19:50:33Z</time>
  <course>8.94</course>
  <speed>0.1004987562112089</speed>
  <fix>3d</fix>
</trkpt>
<trkpt lat="-27.2744396" lon="151.2900598">
  <ele>349.28</ele>
  <time>2026-09-01T19:50:33Z</time>
  <course>80.13</course>
  <speed>0.08</speed>
  <fix>3d</fix>
</trkpt>
<trkpt lat="-27.2744395" lon="151.2900601">
  <ele>349.1</ele>
  <time>2026-09-01T19:50:33Z</time>
  <course>8.92</course>
  <speed>0.1004987562112089</speed>
  <fix>3d</fix>
</trkpt>
<trkpt lat="-27.2744395" lon="151.2900602">
  <ele>349.06</ele>
  <time>2026-09-01T19:50:33Z</time>
  <course>8.89</course>
  <speed>0.11045361017187261</speed>
  <fix>3d</fix>
</trkpt>
<trkpt lat="-27.2744395" lon="151.2900599">
  <ele>349.17</ele>
  <time>2026-09-01T19:50:33Z</time>
  <course>80.8</course>
  <speed>0.09</speed>
  <fix>3d</fix>
</trkpt>
<trkpt lat="-27.2744395" lon="151.2900602">
  <ele>349.06</ele>
  <time>2026-09-01T19:50:33Z</time>
  <course>8.89</course>
  <speed>0.11045361017187261</speed>
  <fix>3d</fix>
</trkpt>
<trkpt lat="-27.2744395" lon="151.2900603">
  <ele>349.0</ele>
  <time>2026-09-01T19:50:33Z</time>
  <course>8.86</course>
  <speed>0.11045361017187261</speed>
  <fix>3d</fix>
</trkpt>
<trkpt lat="-27.2744395" lon="151.2900599">
  <ele>349.17</ele>
  <time>2026-09-01T19:50:33Z</time>
  <course>80.8</course>
  <speed>0.09</speed>
  <fix>3d</fix>
</trkpt>
<trkpt lat="-27.2744395" lon="151.2900603">
  <ele>349.0</ele>
  <time>2026-09-01T19:50:33Z</time>
  <course>8.86</course>
  <speed>0.11045361017187261</speed>
  <fix>3d</fix>
</trkpt>
<trkpt lat="-27.2744395" lon="151.2900603">
  <ele>348.95</ele>
  <time>2026-09-01T19:50:33Z</time>
  <course>8.85</course>
  <speed>0.12041594578792296</speed>
  <fix>3d</fix>
</trkpt>
<trkpt lat="-27.2744395" lon="151.2900602">
  <ele>349.06</ele>
  <time>2026-09-01T19:50:33Z</time>
  <course>81.64</course>
  <speed>0.11</speed>
  <fix>3d</fix>
</trkpt>
<trkpt lat="-27.2744395" lon="151.2900604">
  <ele>348.94</ele>
  <time>2026-09-01T19:50:33Z</time>
  <course>8.85</course>
  <speed>0.12041594578792296</speed>
  <fix>3d</fix>
</trkpt>
<trkpt lat="-27.2744395" lon="151.2900604">
  <ele>348.9</ele>
  <time>2026-09-01T19:50:33Z</time>
  <course>8.85</course>
  <speed>0.130384048104053</speed>
  <fix>3d</fix>
</trkpt>
<trkpt lat="-27.2744395" lon="151.2900602">
  <ele>349.06</ele>
  <time>2026-09-01T19:50:33Z</time>
  <course>81.64</course>
  <speed>0.11</speed>
  <fix>3d</fix>
</trkpt>
<trkpt lat="-27.2744395" lon="151.2900606">
  <ele>348.9</ele>
  <time>2026-09-01T19:50:33Z</time>
  <course>8.85</course>
  <speed>0.130384048104053</speed>
  <fix>3d</fix>
</trkpt>
<trkpt lat="-27.2744395" lon="151.2900607">
  <ele>348.85</ele>
  <time>2026-09-01T19:50:33Z</time>
  <course>8.86</course>
  <speed>0.130384048104053</speed>
  <fix>3d</fix>
</trkpt>
<trkpt lat="-27.2744395" lon="151.2900603">
  <ele>348.95</ele>
  <time>2026-09-01T19:50:33Z</time>
  <course>82.45</course>
  <speed>0.12</speed>
  <fix>3d</fix>
</trkpt>
<trkpt lat="-27.2744395" lon="151.2900607">
  <ele>348.85</ele>
  <time>2026-09-01T19:50:33Z</time>
  <course>8.86</course>
  <speed>0.130384048104053</speed>
  <fix>3d</fix>
</trkpt>
<trkpt lat="-27.2744394" lon="151.2900608">
  <ele>348.8</ele>
  <time>2026-09-01T19:50:33Z</time>
  <course>8.86</course>
  <speed>0.140356688476182</speed>
  <fix>3d</fix>
</trkpt>
<trkpt lat="-27.2744395" lon="151.2900603">
  <ele>348.95</ele>
  <time>2026-09-01T19:50:33Z</time>
  <course>82.45</course>
  <speed>0.12</speed>
  <fix>3d</fix>
</trkpt>
<trkpt lat="-27.2744394" lon="151.2900608">
  <ele>348.78</ele>
  <time>2026-09-01T19:50:33Z</time>
  <course>8.86</course>
  <speed>0.140356688476182</speed>
  <fix>3d</fix>
</trkpt>
<trkpt lat="-27.2744394" lon="151.2900609">
  <ele>348.75</ele>
  <time>2026-09-01T19:50:33Z</time>
  <course>8.87</course>
  <speed>0.140356688476182</speed>
  <fix>3d</fix>
</trkpt>
<trkpt lat="-27.2744394" lon="151.2900606">
  <ele>348.84</ele>
  <time>2026-09-01T19:50:33Z</time>
  <course>82.95</course>
  <speed>0.13</speed>
  <fix>3d</fix>
</trkpt>
<trkpt lat="-27.2744394" lon="151.2900609">
  <ele>348.73</ele>
  <time>2026-09-01T19:50:33Z</time>
  <course>8.87</course>
  <speed>0.140356688476182</speed>
  <fix>3d</fix>
</trkpt>
<trkpt lat="-27.2744394" lon="151.2900611">
  <ele>348.7</ele>
  <time>2026-09-01T19:50:33Z</time>
  <course>8.87</course>
  <speed>0.140356688476182</speed>
  <fix>3d</fix>
</trkpt>
<trkpt lat="-27.2744394" lon="151.2900606">
  <ele>348.84</ele>
  <time>2026-09-01T19:50:33Z</time>
  <course>82.95</course>
  <speed>0.13</speed>
  <fix>3d</fix>
</trkpt>
<trkpt lat="-27.2744394" lon="151.2900612">
  <ele>348.68</ele>
  <time>2026-09-01T19:50:33Z</time>
  <course>8.86</course>
  <speed>0.15033296378372907</speed>
  <fix>3d</fix>
</trkpt>
<trkpt lat="-27.2744394" lon="151.2900613">
  <ele>348.65</ele>
  <time>2026-09-01T19:50:33Z</time>
  <course>8.86</course>
  <speed>0.15033296378372907</speed>
  <fix>3d</fix>
</trkpt>
<trkpt lat="-27.2744394" lon="151.2900609">
  <ele>348.75</ele>
  <time>2026-09-01T19:50:33Z</time>
  <course>83.29</course>
  <speed>0.14</speed>
  <fix>3d</fix>
</trkpt>
<trkpt lat="-27.2744394" lon="151.2900613">
  <ele>348.63</ele>
  <time>2026-09-01T19:50:33Z</time>
  <course>8.86</course>
  <speed>0.15033296378372907</speed>
  <fix>3d</fix>
</trkpt>
<trkpt lat="-27.2744394" lon="151.2900613">
  <ele>348.6</ele>
  <time>2026-09-01T19:50:33Z</time>
  <course>8.85</course>
  <speed>0.15033296378372907</speed>
  <fix>3d</fix>
</trkpt>
<trkpt lat="-27.2744394" lon="151.2900609">
  <ele>348.75</ele>
  <time>2026-09-01T19:50:33Z</time>
  <course>83.29</course>
  <speed>0.14</speed>
  <fix>3d</fix>
</trkpt>
<trkpt lat="-27.2744394" lon="151.2900615">
  <ele>348.58</ele>
  <time>2026-09-01T19:50:33Z</time>
  <course>8.84</course>
  <speed>0.15033296378372907</speed>
  <fix>3d</fix>
</trkpt>
<trkpt lat="-27.2744394" lon="151.2900616">
  <ele>348.55</ele>
  <time>2026-09-01T19:50:33Z</time>
  <course>8.83</course>
  <speed>0.15033296378372907</speed>
  <fix>3d</fix>
</trkpt>
<trkpt lat="-27.2744394" lon="151.2900612">
  <ele>348.65</ele>
  <time>2026-09-01T19:50:33Z</time>
  <course>83.58</course>
  <speed>0.15</speed>
  <fix>3d</fix>
</trkpt>
<trkpt lat="-27.2744394" lon="151.2900616">
  <ele>348.54</ele>
  <time>2026-09-01T19:50:33Z</time>
  <course>8.82</course>
  <speed>0.15033296378372907</speed>
  <fix>3d</fix>
</trkpt>
<trkpt lat="-27.2744394" lon="151.2900617">
  <ele>348.5</ele>
  <time>2026-09-01T19:50:33Z</time>
  <course>8.8</course>
  <speed>0.15033296378372907</speed>
  <fix>3d</fix>
</trkpt>
<trkpt lat="-27.2744394" lon="151.2900612">
  <ele>348.65</ele>
  <time>2026-09-01T19:50:33Z</time>
  <course>83.58</course>
  <speed>0.15</speed>
  <fix>3d</fix>
</trkpt>
<trkpt lat="-27.2744394" lon="151.2900618">
  <ele>348.49</ele>
  <time>2026-09-01T19:50:33Z</time>
  <course>8.8</course>
  <speed>0.15033296378372907</speed>
  <fix>3d</fix>
</trkpt>
<trkpt lat="-27.2744393" lon="151.2900618">
  <ele>348.45</ele>
  <time>2026-09-01T19:50:33Z</time>
  <course>8.78</course>
  <speed>0.15033296378372907</speed>
  <fix>3d</fix>
</trkpt>
<trkpt lat="-27.2744394" lon="151.2900615">
  <ele>348.55</ele>
  <time>2026-09-01T19:50:33Z</time>
  <course>83.71</course>
  <speed>0.15</speed>
  <fix>3d</fix>
</trkpt>
<trkpt lat="-27.2744393" lon="151.2900618">
  <ele>348.44</ele>
  <time>2026-09-01T19:50:33Z</time>
  <course>8.78</course>
  <speed>0.15033296378372907</speed>
  <fix>3d</fix>
</trkpt>
<trkpt lat="-27.2744393" lon="151.2900621">
  <ele>348.4</ele>
  <time>2026-09-01T19:50:33Z</time>
  <course>8.76</course>
  <speed>0.15033296378372907</speed>
  <fix>3d</fix>
</trkpt>
<trkpt lat="-27.2744394" lon="151.2900615">
  <ele>348.55</ele>
  <time>2026-09-01T19:50:33Z</time>
  <course>83.71</course>
  <speed>0.15</speed>
  <fix>3d</fix>
</trkpt>
<trkpt lat="-27.2744393" lon="151.2900621">
  <ele>348.4</ele>
  <time>2026-09-01T19:50:33Z</time>
  <course>8.76</course>
  <speed>0.15033296378372907</speed>
  <fix>3d</fix>
</trkpt>
<trkpt lat="-27.2744393" lon="151.2900622">
  <ele>348.35</ele>
  <time>2026-09-01T19:50:33Z</time>
  <course>8.75</course>
  <speed>0.15033296378372907</speed>
  <fix>3d</fix>
</trkpt>
<trkpt lat="-27.2744393" lon="151.2900619">
  <ele>348.45</ele>
  <time>2026-09-01T19:50:33Z</time>
  <course>83.61</course>
  <speed>0.15</speed>
  <fix>3d</fix>
</trkpt>
<trkpt lat="-27.2744393" lon="151.2900622">
  <ele>348.35</ele>
  <time>2026-09-01T19:50:33Z</time>
  <course>8.75</course>
  <speed>0.15033296378372907</speed>
  <fix>3d</fix>
</trkpt>
<trkpt lat="-27.2744393" lon="151.2900623">
  <ele>348.3</ele>
  <time>2026-09-01T19:50:33Z</time>
  <course>8.74</course>
  <speed>0.15033296378372907</speed>
  <fix>3d</fix>
</trkpt>
<trkpt lat="-27.2744393" lon="151.2900619">
  <ele>348.45</ele>
  <time>2026-09-01T19:50:33Z</time>
  <course>83.61</course>
  <speed>0.15</speed>
  <fix>3d</fix>
</trkpt>
<trkpt lat="-27.2744393" lon="151.2900623">
  <ele>348.29</ele>
  <time>2026-09-01T19:50:33Z</time>
  <course>8.73</course>
  <speed>0.15033296378372907</speed>
  <fix>3d</fix>
</trkpt>
<trkpt lat="-27.2744393" lon="151.2900625">
  <ele>348.25</ele>
  <time>2026-09-01T19:50:33Z</time>
  <course>8.73</course>
  <speed>0.15033296378372907</speed>
  <fix>3d</fix>
</trkpt>
<trkpt lat="-27.2744393" lon="151.2900622">
  <ele>348.34</ele>
  <time>2026-09-01T19:50:33Z</time>
  <course>83.54</course>
  <speed>0.15</speed>
  <fix>3d</fix>
</trkpt>
<trkpt lat="-27.2744393" lon="151.2900626">
  <ele>348.23</ele>
  <time>2026-09-01T19:50:33Z</time>
  <course>8.72</course>
  <speed>0.15033296378372907</speed>
  <fix>3d</fix>
</trkpt>
<trkpt lat="-27.2744393" lon="151.2900627">
  <ele>348.2</ele>
  <time>2026-09-01T19:50:33Z</time>
  <course>8.71</course>
  <speed>0.140356688476182</speed>
  <fix>3d</fix>
</trkpt>
<trkpt lat="-27.2744393" lon="151.2900622">
  <ele>348.34</ele>
  <time>2026-09-01T19:50:33Z</time>
  <course>83.54</course>
  <speed>0.15</speed>
  <fix>3d</fix>
</trkpt>
<trkpt lat="-27.2744393" lon="151.2900627">
  <ele>348.18</ele>
  <time>2026-09-01T19:50:33Z</time>
  <course>8.71</course>
  <speed>0.140356688476182</speed>
  <fix>3d</fix>
</trkpt>
<trkpt lat="-27.2744392" lon="151.2900627">
  <ele>348.15</ele>
  <time>2026-09-01T19:50:33Z</time>
  <course>8.7</course>
  <speed>0.140356688476182</speed>
  <fix>3d</fix>
</trkpt>
<trkpt lat="-27.2744393" lon="151.2900625">
  <ele>348.25</ele>
  <time>2026-09-01T19:50:33Z</time>
  <course>83.7</course>
  <speed>0.15</speed>
  <fix>3d</fix>
</trkpt>
<trkpt lat="-27.2744392" lon="151.2900628">
  <ele>348.13</ele>
  <time>2026-09-01T19:50:33Z</time>
  <course>8.7</course>
  <speed>0.140356688476182</speed>
  <fix>3d</fix>
</trkpt>
<trkpt lat="-27.2744392" lon="151.290063">
  <ele>348.1</ele>
  <time>2026-09-01T19:50:33Z</time>
  <course>8.69</course>
  <speed>0.140356688476182</speed>
  <fix>3d</fix>
</trkpt>
<trkpt lat="-27.2744393" lon="151.2900625">
  <ele>348.25</ele>
  <time>2026-09-01T19:50:33Z</time>
  <course>83.7</course>
  <speed>0.15</speed>
  <fix>3d</fix>
</trkpt>
<trkpt lat="-27.2744392" lon="151.290063">
  <ele>348.08</ele>
  <time>2026-09-01T19:50:33Z</time>
  <course>8.69</course>
  <speed>0.140356688476182</speed>
  <fix>3d</fix>
</trkpt>
<trkpt lat="-27.2744392" lon="151.2900631">
  <ele>348.05</ele>
  <time>2026-09-01T19:50:33Z</time>
  <course>8.68</course>
  <speed>0.130384048104053</speed>
  <fix>3d</fix>
</trkpt>
<trkpt lat="-27.2744392" lon="151.2900628">
  <ele>348.15</ele>
  <time>2026-09-01T19:50:33Z</time>
  <course>83.7</course>
  <speed>0.14</speed>
  <fix>3d</fix>
</trkpt>
<trkpt lat="-27.2744392" lon="151.2900632">
  <ele>348.03</ele>
  <time>2026-09-01T19:50:33Z</time>
  <course>8.68</course>
  <speed>0.130384048104053</speed>
  <fix>3d</fix>
</trkpt>
<trkpt lat="-27.2744392" lon="151.2900632">
  <ele>348.0</ele>
  <time>2026-09-01T19:50:33Z</time>
  <course>8.68</course>
  <speed>0.130384048104053</speed>
  <fix>3d</fix>
</trkpt>
<trkpt lat="-27.2744392" lon="151.2900628">
  <ele>348.15</ele>
  <time>2026-09-01T19:50:33Z</time>
  <course>83.7</course>
  <speed>0.14</speed>
  <fix>3d</fix>
</trkpt>
<trkpt lat="-27.2744392" lon="151.2900632">
  <ele>347.98</ele>
  <time>2026-09-01T19:50:33Z</time>
  <course>8.68</course>
  <speed>0.130384048104053</speed>
  <fix>3d</fix>
</trkpt>
<trkpt lat="-27.2744392" lon="151.2900633">
  <ele>347.94</ele>
  <time>2026-09-01T19:50:33Z</time>
  <course>8.67</course>
  <speed>0.12041594578792296</speed>
  <fix>3d</fix>
</trkpt>
<trkpt lat="-27.2744392" lon="151.2900631">
  <ele>348.05</ele>
  <time>2026-09-01T19:50:33Z</time>
  <course>83.36</course>
  <speed>0.13</speed>
  <fix>3d</fix>
</trkpt>
<trkpt lat="-27.2744392" lon="151.2900633">
  <ele>347.94</ele>
  <time>2026-09-01T19:50:33Z</time>
  <course>8.67</course>
  <speed>0.12041594578792296</speed>
  <fix>3d</fix>
</trkpt>
<trkpt lat="-27.2744392" lon="151.2900635">
  <ele>347.89</ele>
  <time>2026-09-01T19:50:34Z</time>
  <course>8.65</course>
  <speed>0.12041594578792296</speed>
  <fix>3d</fix>
</trkpt>
<trkpt lat="-27.2744392" lon="151.2900631">
  <ele>348.05</ele>
  <time>2026-09-01T19:50:34Z</time>
  <course>83.36</course>
  <speed>0.13</speed>
  <fix>3d</fix>
</trkpt>
<trkpt lat="-27.2744392" lon="151.2900635">
  <ele>347.88</ele>
  <time>2026-09-01T19:50:34Z</time>
  <course>8.65</course>
  <speed>0.12041594578792296</speed>
  <fix>3d</fix>
</trkpt>
<trkpt lat="-27.2744392" lon="151.2900636">
  <ele>347.84</ele>
  <time>2026-09-01T19:50:34Z</time>
  <course>8.63</course>
  <speed>0.11045361017187261</speed>
  <fix>3d</fix>
</trkpt>
<trkpt lat="-27.2744392" lon="151.2900634">
  <ele>347.95</ele>
  <time>2026-09-01T19:50:34Z</time>
  <course>83.08</course>
  <speed>0.12</speed>
  <fix>3d</fix>
</trkpt>
<trkpt lat="-27.2744392" lon="151.2900636">
  <ele>347.84</ele>
  <time>2026-09-01T19:50:34Z</time>
  <course>8.63</course>
  <speed>0.11045361017187261</speed>
  <fix>3d</fix>
</trkpt>
<trkpt lat="-27.2744392" lon="151.2900637">
  <ele>347.79</ele>
  <time>2026-09-01T19:50:34Z</time>
  <course>8.61</course>
  <speed>0.1004987562112089</speed>
  <fix>3d</fix>
</trkpt>
<trkpt lat="-27.2744392" lon="151.2900634">
  <ele>347.95</ele>
  <time>2026-09-01T19:50:34Z</time>
  <course>83.08</course>
  <speed>0.12</speed>
  <fix>3d</fix>
</trkpt>
<trkpt lat="-27.2744392" lon="151.2900637">
  <ele>347.79</ele>
  <time>2026-09-01T19:50:34Z</time>
  <course>8.61</course>
  <speed>0.1004987562112089</speed>
  <fix>3d</fix>
</trkpt>
<trkpt lat="-27.2744391" lon="151.2900639">
  <ele>347.74</ele>
  <time>2026-09-01T19:50:34Z</time>
  <course>8.6</course>
  <speed>0.1004987562112089</speed>
  <fix>3d</fix>
</trkpt>
<trkpt lat="-27.2744392" lon="151.2900636">
  <ele>347.84</ele>
  <time>2026-09-01T19:50:34Z</time>
  <course>83.09</course>
  <speed>0.11</speed>
  <fix>3d</fix>
</trkpt>
<trkpt lat="-27.2744391" lon="151.2900639">
  <ele>347.73</ele>
  <time>2026-09-01T19:50:34Z</time>
  <course>8.59</course>
  <speed>0.1004987562112089</speed>
  <fix>3d</fix>
</trkpt>
<trkpt lat="-27.2744391" lon="151.290064">
  <ele>347.69</ele>
  <time>2026-09-01T19:50:34Z</time>
  <course>8.59</course>
  <speed>0.09055385138137417</speed>
  <fix>3d</fix>
</trkpt>
<trkpt lat="-27.2744392" lon="151.2900636">
  <ele>347.84</ele>
  <time>2026-09-01T19:50:34Z</time>
  <course>83.09</course>
  <speed>0.11</speed>
  <fix>3d</fix>
</trkpt>
<trkpt lat="-27.2744391" lon="151.290064">
  <ele>347.68</ele>
  <time>2026-09-01T19:50:34Z</time>
  <course>8.59</course>
  <speed>0.09055385138137417</speed>
  <fix>3d</fix>
</trkpt>
<trkpt lat="-27.2744391" lon="151.290064">
  <ele>347.64</ele>
  <time>2026-09-01T19:50:34Z</time>
  <course>8.58</course>
  <speed>0.08062257748298549</speed>
  <fix>3d</fix>
</trkpt>
<trkpt lat="-27.2744391" lon="151.2900637">
  <ele>347.74</ele>
  <time>2026-09-01T19:50:34Z</time>
  <course>83.24</course>
  <speed>0.1</speed>
  <fix>3d</fix>
</trkpt>
<trkpt lat="-27.2744391" lon="151.2900641">
  <ele>347.63</ele>
  <time>2026-09-01T19:50:34Z</time>
  <course>8.58</course>
  <speed>0.08</speed>
  <fix>3d</fix>
</trkpt>
<trkpt lat="-27.2744391" lon="151.2900641">
  <ele>347.59</ele>
  <time>2026-09-01T19:50:34Z</time>
  <course>8.57</course>
  <speed>0.08</speed>
  <fix>3d</fix>
</trkpt>
<trkpt lat="-27.2744391" lon="151.2900637">
  <ele>347.74</ele>
  <time>2026-09-01T19:50:34Z</time>
  <course>83.24</course>
  <speed>0.1</speed>
  <fix>3d</fix>
</trkpt>
<trkpt lat="-27.2744391" lon="151.2900641">
  <ele>347.58</ele>
  <time>2026-09-01T19:50:34Z</time>
  <course>8.57</course>
  <speed>0.07</speed>
  <fix>3d</fix>
</trkpt>
<trkpt lat="-27.2744391" lon="151.2900642">
  <ele>347.54</ele>
  <time>2026-09-01T19:50:34Z</time>
  <course>8.56</course>
  <speed>0.07</speed>
  <fix>3d</fix>
</trkpt>
<trkpt lat="-27.2744391" lon="151.290064">
  <ele>347.64</ele>
  <time>2026-09-01T19:50:34Z</time>
  <course>83.45</course>
  <speed>0.08</speed>
  <fix>3d</fix>
</trkpt>
<trkpt lat="-27.2744391" lon="151.2900642">
  <ele>347.53</ele>
  <time>2026-09-01T19:50:34Z</time>
  <course>8.56</course>
  <speed>0.07</speed>
  <fix>3d</fix>
</trkpt>
<trkpt lat="-27.2744391" lon="151.2900642">
  <ele>347.49</ele>
  <time>2026-09-01T19:50:34Z</time>
  <course>8.55</course>
  <speed>0.06</speed>
  <fix>3d</fix>
</trkpt>
<trkpt lat="-27.2744391" lon="151.290064">
  <ele>347.64</ele>
  <time>2026-09-01T19:50:34Z</time>
  <course>83.45</course>
  <speed>0.08</speed>
  <fix>3d</fix>
</trkpt>
<trkpt lat="-27.2744391" lon="151.2900642">
  <ele>347.47</ele>
  <time>2026-09-01T19:50:34Z</time>
  <course>8.55</course>
  <speed>0.06</speed>
  <fix>3d</fix>
</trkpt>
<trkpt lat="-27.2744391" lon="151.2900642">
  <ele>347.44</ele>
  <time>2026-09-01T19:50:34Z</time>
  <course>8.54</course>
  <speed>0.05</speed>
  <fix>3d</fix>
</trkpt>
<trkpt lat="-27.2744391" lon="151.2900642">
  <ele>347.53</ele>
  <time>2026-09-01T19:50:34Z</time>
  <course>83.47</course>
  <speed>0.07</speed>
  <fix>3d</fix>
</trkpt>
<trkpt lat="-27.2744391" lon="151.2900644">
  <ele>347.43</ele>
  <time>2026-09-01T19:50:34Z</time>
  <course>8.54</course>
  <speed>0.05</speed>
  <fix>3d</fix>
</trkpt>
<trkpt lat="-27.2744391" lon="151.2900644">
  <ele>347.39</ele>
  <time>2026-09-01T19:50:34Z</time>
  <course>8.53</course>
  <speed>0.05</speed>
  <fix>3d</fix>
</trkpt>
<trkpt lat="-27.2744391" lon="151.2900642">
  <ele>347.53</ele>
  <time>2026-09-01T19:50:34Z</time>
  <course>83.47</course>
  <speed>0.07</speed>
  <fix>3d</fix>
</trkpt>
<trkpt lat="-27.2744391" lon="151.2900644">
  <ele>347.38</ele>
  <time>2026-09-01T19:50:34Z</time>
  <course>8.52</course>
  <speed>0.04</speed>
  <fix>3d</fix>
</trkpt>
<trkpt lat="-27.2744391" lon="151.2900644">
  <ele>347.34</ele>
  <time>2026-09-01T19:50:34Z</time>
  <course>8.51</course>
  <speed>0.04</speed>
  <fix>3d</fix>
</trkpt>
<trkpt lat="-27.2744391" lon="151.2900643">
  <ele>347.44</ele>
  <time>2026-09-01T19:50:34Z</time>
  <course>83.09</course>
  <speed>0.05</speed>
  <fix>3d</fix>
</trkpt>
<trkpt lat="-27.2744391" lon="151.2900644">
  <ele>347.34</ele>
  <time>2026-09-01T19:50:34Z</time>
  <course>8.51</course>
  <speed>0.04</speed>
  <fix>3d</fix>
</trkpt>
<trkpt lat="-27.2744391" lon="151.2900645">
  <ele>347.29</ele>
  <time>2026-09-01T19:50:34Z</time>
  <course>8.5</course>
  <speed>0.03</speed>
  <fix>3d</fix>
</trkpt>
<trkpt lat="-27.2744391" lon="151.2900643">
  <ele>347.44</ele>
  <time>2026-09-01T19:50:34Z</time>
  <course>83.09</course>
  <speed>0.05</speed>
  <fix>3d</fix>
</trkpt>
<trkpt lat="-27.2744391" lon="151.2900645">
  <ele>347.28</ele>
  <time>2026-09-01T19:50:34Z</time>
  <course>8.5</course>
  <speed>0.03</speed>
  <fix>3d</fix>
</trkpt>
<trkpt lat="-27.2744391" lon="151.2900645">
  <ele>347.24</ele>
  <time>2026-09-01T19:50:34Z</time>
  <course>8.49</course>
  <speed>0.02</speed>
  <fix>3d</fix>
</trkpt>
<trkpt lat="-27.2744391" lon="151.2900644">
  <ele>347.34</ele>
  <time>2026-09-01T19:50:34Z</time>
  <course>82.01</course>
  <speed>0.04</speed>
  <fix>3d</fix>
</trkpt>
<trkpt lat="-27.2744391" lon="151.2900645">
  <ele>347.24</ele>
  <time>2026-09-01T19:50:34Z</time>
  <course>8.49</course>
  <speed>0.02</speed>
  <fix>3d</fix>
</trkpt>
<trkpt lat="-27.2744391" lon="151.2900645">
  <ele>347.19</ele>
  <time>2026-09-01T19:50:34Z</time>
  <course>8.48</course>
  <speed>0.02</speed>
  <fix>3d</fix>
</trkpt>
<trkpt lat="-27.2744391" lon="151.2900644">
  <ele>347.34</ele>
  <time>2026-09-01T19:50:34Z</time>
  <course>82.01</course>
  <speed>0.04</speed>
  <fix>3d</fix>
</trkpt>
<trkpt lat="-27.2744391" lon="151.2900645">
  <ele>347.18</ele>
  <time>2026-09-01T19:50:34Z</time>
  <course>8.48</course>
  <speed>0.02</speed>
  <fix>3d</fix>
</trkpt>
<trkpt lat="-27.2744391" lon="151.2900646">
  <ele>347.14</ele>
  <time>2026-09-01T19:50:34Z</time>
  <course>8.47</course>
  <speed>0.01</speed>
  <fix>3d</fix>
</trkpt>
<trkpt lat="-27.2744391" lon="151.2900645">
  <ele>347.24</ele>
  <time>2026-09-01T19:50:34Z</time>
  <course>79.4</course>
  <speed>0.02</speed>
  <fix>3d</fix>
</trkpt>
<trkpt lat="-27.2744391" lon="151.2900646">
  <ele>347.13</ele>
  <time>2026-09-01T19:50:34Z</time>
  <course>8.47</course>
  <speed>0.01</speed>
  <fix>3d</fix>
</trkpt>
<trkpt lat="-27.2744391" lon="151.2900646">
  <ele>347.09</ele>
  <time>2026-09-01T19:50:34Z</time>
  <course>8.46</course>
  <speed>0.0</speed>
  <fix>3d</fix>
</trkpt>
<trkpt lat="-27.2744391" lon="151.2900645">
  <ele>347.24</ele>
  <time>2026-09-01T19:50:34Z</time>
  <course>79.4</course>
  <speed>0.02</speed>
  <fix>3d</fix>
</trkpt>
<trkpt lat="-27.2744391" lon="151.2900646">
  <ele>347.08</ele>
  <time>2026-09-01T19:50:34Z</time>
  <course>8.45</course>
  <speed>0.0</speed>
  <fix>3d</fix>
</trkpt>
<trkpt lat="-27.2744391" lon="151.2900646">
  <ele>347.04</ele>
  <time>2026-09-01T19:50:34Z</time>
  <course>8.44</course>
  <speed>0.0</speed>
  <fix>3d</fix>
</trkpt>
<trkpt lat="-27.2744391" lon="151.2900645">
  <ele>347.14</ele>
  <time>2026-09-01T19:50:34Z</time>
  <course>72.33</course>
  <speed>0.01</speed>
  <fix>3d</fix>
</trkpt>
<trkpt lat="-27.274439" lon="151.2900646">
  <ele>347.03</ele>
  <time>2026-09-01T19:50:34Z</time>
  <course>8.43</course>
  <speed>0.0</speed>
  <fix>3d</fix>
</trkpt>
<trkpt lat="-27.274439" lon="151.2900646">
  <ele>346.99</ele>
  <time>2026-09-01T19:50:34Z</time>
  <course>8.4</course>
  <speed>0.0</speed>
  <fix>3d</fix>
</trkpt>
<trkpt lat="-27.2744391" lon="151.2900645">
  <ele>347.14</ele>
  <time>2026-09-01T19:50:34Z</time>
  <course>72.33</course>
  <speed>0.01</speed>
  <fix>3d</fix>
</trkpt>
<trkpt lat="-27.274439" lon="151.2900646">
  <ele>346.98</ele>
  <time>2026-09-01T19:50:34Z</time>
  <course>8.38</course>
  <speed>0.0</speed>
  <fix>3d</fix>
</trkpt>
<trkpt lat="-27.274439" lon="151.2900646">
  <ele>346.94</ele>
  <time>2026-09-01T19:50:34Z</time>
  <course>8.33</course>
  <speed>0.0</speed>
  <fix>3d</fix>
</trkpt>
<trkpt lat="-27.274439" lon="151.2900646">
  <ele>347.03</ele>
  <time>2026-09-01T19:50:34Z</time>
  <course>42.8</course>
  <speed>0.0</speed>
  <fix>3d</fix>
</trkpt>
<trkpt lat="-27.274439" lon="151.2900646">
  <ele>346.93</ele>
  <time>2026-09-01T19:50:34Z</time>
  <course>8.31</course>
  <speed>0.0</speed>
  <fix>3d</fix>
</trkpt>
<trkpt lat="-27.274439" lon="151.2900646">
  <ele>346.89</ele>
  <time>2026-09-01T19:50:34Z</time>
  <course>8.24</course>
  <speed>0.0</speed>
  <fix>3d</fix>
</trkpt>
<trkpt lat="-27.274439" lon="151.2900646">
  <ele>347.03</ele>
  <time>2026-09-01T19:50:34Z</time>
  <course>42.8</course>
  <speed>0.0</speed>
  <fix>3d</fix>
</trkpt>
<trkpt lat="-27.274439" lon="151.2900646">
  <ele>346.88</ele>
  <time>2026-09-01T19:50:34Z</time>
  <course>8.21</course>
  <speed>0.0</speed>
  <fix>3d</fix>
</trkpt>
<trkpt lat="-27.274439" lon="151.2900646">
  <ele>346.84</ele>
  <time>2026-09-01T19:50:34Z</time>
  <course>8.13</course>
  <speed>0.0</speed>
  <fix>3d</fix>
</trkpt>
<trkpt lat="-27.274439" lon="151.2900646">
  <ele>346.94</ele>
  <time>2026-09-01T19:50:34Z</time>
  <course>321.5</course>
  <speed>0.0</speed>
  <fix>3d</fix>
</trkpt>
<trkpt lat="-27.274439" lon="151.2900646">
  <ele>346.83</ele>
  <time>2026-09-01T19:50:34Z</time>
  <course>8.1</course>
  <speed>0.0</speed>
  <fix>3d</fix>
</trkpt>
<trkpt lat="-27.274439" lon="151.2900646">
  <ele>346.79</ele>
  <time>2026-09-01T19:50:34Z</time>
  <course>8.03</course>
  <speed>0.0</speed>
  <fix>3d</fix>
</trkpt>
<trkpt lat="-27.274439" lon="151.2900646">
  <ele>346.94</ele>
  <time>2026-09-01T19:50:34Z</time>
  <course>321.5</course>
  <speed>0.0</speed>
  <fix>3d</fix>
</trkpt>
<trkpt lat="-27.274439" lon="151.2900646">
  <ele>346.79</ele>
  <time>2026-09-01T19:50:34Z</time>
  <course>8.03</course>
  <speed>0.0</speed>
  <fix>3d</fix>
</trkpt>
<trkpt lat="-27.274439" lon="151.2900646">
  <ele>346.74</ele>
  <time>2026-09-01T19:50:34Z</time>
  <course>7.95</course>
  <speed>0.01</speed>
  <fix>3d</fix>
</trkpt>
<trkpt lat="-27.274439" lon="151.2900646">
  <ele>346.84</ele>
  <time>2026-09-01T19:50:34Z</time>
  <course>289.25</course>
  <speed>0.0</speed>
  <fix>3d</fix>
</trkpt>
<trkpt lat="-27.274439" lon="151.2900646">
  <ele>346.74</ele>
  <time>2026-09-01T19:50:34Z</time>
  <course>7.94</course>
  <speed>0.01</speed>
  <fix>3d</fix>
</trkpt>
<trkpt lat="-27.274439" lon="151.2900646">
  <ele>346.69</ele>
  <time>2026-09-01T19:50:34Z</time>
  <course>7.89</course>
  <speed>0.01</speed>
  <fix>3d</fix>
</trkpt>
<trkpt lat="-27.274439" lon="151.2900646">
  <ele>346.84</ele>
  <time>2026-09-01T19:50:34Z</time>
  <course>289.25</course>
  <speed>0.0</speed>
  <fix>3d</fix>
</trkpt>
<trkpt lat="-27.274439" lon="151.2900646">
  <ele>346.68</ele>
  <time>2026-09-01T19:50:34Z</time>
  <course>7.87</course>
  <speed>0.01</speed>
  <fix>3d</fix>
</trkpt>
<trkpt lat="-27.274439" lon="151.2900646">
  <ele>346.64</ele>
  <time>2026-09-01T19:50:34Z</time>
  <course>7.85</course>
  <speed>0.01</speed>
  <fix>3d</fix>
</trkpt>
<trkpt lat="-27.274439" lon="151.2900646">
  <ele>346.74</ele>
  <time>2026-09-01T19:50:34Z</time>
  <course>274.13</course>
  <speed>0.01</speed>
  <fix>3d</fix>
</trkpt>
<trkpt lat="-27.274439" lon="151.2900646">
  <ele>346.63</ele>
  <time>2026-09-01T19:50:34Z</time>
  <course>7.85</course>
  <speed>0.01</speed>
  <fix>3d</fix>
</trkpt>
<trkpt lat="-27.274439" lon="151.2900646">
  <ele>346.59</ele>
  <time>2026-09-01T19:50:34Z</time>
  <course>7.84</course>
  <speed>0.01</speed>
  <fix>3d</fix>
</trkpt>
<trkpt lat="-27.274439" lon="151.2900646">
  <ele>346.74</ele>
  <time>2026-09-01T19:50:34Z</time>
  <course>274.13</course>
  <speed>0.01</speed>
  <fix>3d</fix>
</trkpt>
<trkpt lat="-27.274439" lon="151.2900646">
  <ele>346.58</ele>
  <time>2026-09-01T19:50:34Z</time>
  <course>7.84</course>
  <speed>0.01</speed>
  <fix>3d</fix>
</trkpt>
<trkpt lat="-27.274439" lon="151.2900646">
  <ele>346.54</ele>
  <time>2026-09-01T19:50:34Z</time>
  <course>7.84</course>
  <speed>0.01</speed>
  <fix>3d</fix>
</trkpt>
<trkpt lat="-27.274439" lon="151.2900646">
  <ele>346.64</ele>
  <time>2026-09-01T19:50:34Z</time>
  <course>267.81</course>
  <speed>0.01</speed>
  <fix>3d</fix>
</trkpt>
<trkpt lat="-27.274439" lon="151.2900646">
  <ele>346.54</ele>
  <time>2026-09-01T19:50:34Z</time>
  <course>7.84</course>
  <speed>0.01</speed>
  <fix>3d</fix>
</trkpt>
<trkpt lat="-27.274439" lon="151.2900646">
  <ele>346.49</ele>
  <time>2026-09-01T19:50:34Z</time>
  <course>7.86</course>
  <speed>0.01</speed>
  <fix>3d</fix>
</trkpt>
<trkpt lat="-27.274439" lon="151.2900646">
  <ele>346.64</ele>
  <time>2026-09-01T19:50:34Z</time>
  <course>267.81</course>
  <speed>0.01</speed>
  <fix>3d</fix>
</trkpt>
<trkpt lat="-27.274439" lon="151.2900646">
  <ele>346.49</ele>
  <time>2026-09-01T19:50:34Z</time>
  <course>7.86</course>
  <speed>0.01</speed>
  <fix>3d</fix>
</trkpt>
<trkpt lat="-27.274439" lon="151.2900646">
  <ele>346.44</ele>
  <time>2026-09-01T19:50:34Z</time>
  <course>7.88</course>
  <speed>0.01</speed>
  <fix>3d</fix>
</trkpt>
<trkpt lat="-27.274439" lon="151.2900646">
  <ele>346.53</ele>
  <time>2026-09-01T19:50:34Z</time>
  <course>265.43</course>
  <speed>0.01</speed>
  <fix>3d</fix>
</trkpt>
<trkpt lat="-27.274439" lon="151.2900645">
  <ele>346.43</ele>
  <time>2026-09-01T19:50:34Z</time>
  <course>7.89</course>
  <speed>0.01</speed>
  <fix>3d</fix>
</trkpt>
<trkpt lat="-27.274439" lon="151.2900645">
  <ele>346.39</ele>
  <time>2026-09-01T19:50:34Z</time>
  <course>7.9</course>
  <speed>0.02</speed>
  <fix>3d</fix>
</trkpt>
<trkpt lat="-27.274439" lon="151.2900646">
  <ele>346.53</ele>
  <time>2026-09-01T19:50:34Z</time>
  <course>265.43</course>
  <speed>0.01</speed>
  <fix>3d</fix>
</trkpt>
<trkpt lat="-27.274439" lon="151.2900645">
  <ele>346.38</ele>
  <time>2026-09-01T19:50:34Z</time>
  <course>7.91</course>
  <speed>0.02</speed>
  <fix>3d</fix>
</trkpt>
<trkpt lat="-27.274439" lon="151.2900645">
  <ele>346.34</ele>
  <time>2026-09-01T19:50:34Z</time>
  <course>7.92</course>
  <speed>0.02</speed>
  <fix>3d</fix>
</trkpt>
<trkpt lat="-27.274439" lon="151.2900645">
  <ele>346.44</ele>
  <time>2026-09-01T19:50:34Z</time>
  <course>264.86</course>
  <speed>0.01</speed>
  <fix>3d</fix>
</trkpt>
<trkpt lat="-27.274439" lon="151.2900645">
  <ele>346.33</ele>
  <time>2026-09-01T19:50:34Z</time>
  <course>7.93</course>
  <speed>0.02</speed>
  <fix>3d</fix>
</trkpt>
<trkpt lat="-27.274439" lon="151.2900645">
  <ele>346.29</ele>
  <time>2026-09-01T19:50:34Z</time>
  <course>7.94</course>
  <speed>0.02</speed>
  <fix>3d</fix>
</trkpt>
<trkpt lat="-27.274439" lon="151.2900645">
  <ele>346.44</ele>
  <time>2026-09-01T19:50:34Z</time>
  <course>264.86</course>
  <speed>0.01</speed>
  <fix>3d</fix>
</trkpt>
<trkpt lat="-27.274439" lon="151.2900645">
  <ele>346.28</ele>
  <time>2026-09-01T19:50:34Z</time>
  <course>7.94</course>
  <speed>0.02</speed>
  <fix>3d</fix>
</trkpt>
<trkpt lat="-27.274439" lon="151.2900645">
  <ele>346.24</ele>
  <time>2026-09-01T19:50:34Z</time>
  <course>7.95</course>
  <speed>0.02</speed>
  <fix>3d</fix>
</trkpt>
<trkpt lat="-27.274439" lon="151.2900645">
  <ele>346.34</ele>
  <time>2026-09-01T19:50:34Z</time>
  <course>265.33</course>
  <speed>0.02</speed>
  <fix>3d</fix>
</trkpt>
<trkpt lat="-27.274439" lon="151.2900645">
  <ele>346.24</ele>
  <time>2026-09-01T19:50:34Z</time>
  <course>7.95</course>
  <speed>0.02</speed>
  <fix>3d</fix>
</trkpt>
<trkpt lat="-27.274439" lon="151.2900644">
  <ele>346.19</ele>
  <time>2026-09-01T19:50:34Z</time>
  <course>7.95</course>
  <speed>0.02</speed>
  <fix>3d</fix>
</trkpt>
<trkpt lat="-27.274439" lon="151.2900645">
  <ele>346.34</ele>
  <time>2026-09-01T19:50:34Z</time>
  <course>265.33</course>
  <speed>0.02</speed>
  <fix>3d</fix>
</trkpt>
<trkpt lat="-27.274439" lon="151.2900644">
  <ele>346.19</ele>
  <time>2026-09-01T19:50:34Z</time>
  <course>7.95</course>
  <speed>0.02</speed>
  <fix>3d</fix>
</trkpt>
<trkpt lat="-27.274439" lon="151.2900644">
  <ele>346.14</ele>
  <time>2026-09-01T19:50:34Z</time>
  <course>7.95</course>
  <speed>0.02</speed>
  <fix>3d</fix>
</trkpt>
<trkpt lat="-27.274439" lon="151.2900644">
  <ele>346.24</ele>
  <time>2026-09-01T19:50:34Z</time>
  <course>264.87</course>
  <speed>0.02</speed>
  <fix>3d</fix>
</trkpt>
<trkpt lat="-27.274439" lon="151.2900644">
  <ele>346.13</ele>
  <time>2026-09-01T19:50:34Z</time>
  <course>7.94</course>
  <speed>0.02</speed>
  <fix>3d</fix>
</trkpt>
<trkpt lat="-27.274439" lon="151.2900644">
  <ele>346.09</ele>
  <time>2026-09-01T19:50:34Z</time>
  <course>7.93</course>
  <speed>0.02</speed>
  <fix>3d</fix>
</trkpt>
<trkpt lat="-27.274439" lon="151.2900644">
  <ele>346.24</ele>
  <time>2026-09-01T19:50:34Z</time>
  <course>264.87</course>
  <speed>0.02</speed>
  <fix>3d</fix>
</trkpt>
<trkpt lat="-27.274439" lon="151.2900644">
  <ele>346.08</ele>
  <time>2026-09-01T19:50:34Z</time>
  <course>7.93</course>
  <speed>0.02</speed>
  <fix>3d</fix>
</trkpt>
<trkpt lat="-27.274439" lon="151.2900644">
  <ele>346.04</ele>
  <time>2026-09-01T19:50:34Z</time>
  <course>7.92</course>
  <speed>0.02</speed>
  <fix>3d</fix>
</trkpt>
<trkpt lat="-27.274439" lon="151.2900644">
  <ele>346.14</ele>
  <time>2026-09-01T19:50:34Z</time>
  <course>263.7</course>
  <speed>0.02</speed>
  <fix>3d</fix>
</trkpt>
<trkpt lat="-27.274439" lon="151.2900644">
  <ele>346.03</ele>
  <time>2026-09-01T19:50:34Z</time>
  <course>7.91</course>
  <speed>0.02</speed>
  <fix>3d</fix>
</trkpt>
<trkpt lat="-27.274439" lon="151.2900642">
  <ele>345.99</ele>
  <time>2026-09-01T19:50:34Z</time>
  <course>7.9</course>
  <speed>0.02</speed>
  <fix>3d</fix>
</trkpt>
<trkpt lat="-27.274439" lon="151.2900644">
  <ele>346.14</ele>
  <time>2026-09-01T19:50:34Z</time>
  <course>263.7</course>
  <speed>0.02</speed>
  <fix>3d</fix>
</trkpt>
<trkpt lat="-27.274439" lon="151.2900642">
  <ele>345.98</ele>
  <time>2026-09-01T19:50:34Z</time>
  <course>7.89</course>
  <speed>0.02</speed>
  <fix>3d</fix>
</trkpt>
<trkpt lat="-27.274439" lon="151.2900642">
  <ele>345.94</ele>
  <time>2026-09-01T19:50:34Z</time>
  <course>7.88</course>
  <speed>0.02</speed>
  <fix>3d</fix>
</trkpt>
<trkpt lat="-27.274439" lon="151.2900643">
  <ele>346.03</ele>
  <time>2026-09-01T19:50:34Z</time>
  <course>263.57</course>
  <speed>0.02</speed>
  <fix>3d</fix>
</trkpt>
<trkpt lat="-27.274439" lon="151.2900642">
  <ele>345.93</ele>
  <time>2026-09-01T19:50:34Z</time>
  <course>7.88</course>
  <speed>0.02</speed>
  <fix>3d</fix>
</trkpt>
<trkpt lat="-27.274439" lon="151.2900642">
  <ele>345.89</ele>
  <time>2026-09-01T19:50:34Z</time>
  <course>7.87</course>
  <speed>0.02</speed>
  <fix>3d</fix>
</trkpt>
<trkpt lat="-27.274439" lon="151.2900643">
  <ele>346.03</ele>
  <time>2026-09-01T19:50:34Z</time>
  <course>263.57</course>
  <speed>0.02</speed>
  <fix>3d</fix>
</trkpt>
<trkpt lat="-27.274439" lon="151.2900642">
  <ele>345.88</ele>
  <time>2026-09-01T19:50:34Z</time>
  <course>7.87</course>
  <speed>0.02</speed>
  <fix>3d</fix>
</trkpt>
<trkpt lat="-27.274439" lon="151.2900642">
  <ele>345.84</ele>
  <time>2026-09-01T19:50:34Z</time>
  <course>7.86</course>
  <speed>0.02</speed>
  <fix>3d</fix>
</trkpt>
<trkpt lat="-27.274439" lon="151.2900642">
  <ele>345.94</ele>
  <time>2026-09-01T19:50:34Z</time>
  <course>264.1</course>
  <speed>0.02</speed>
  <fix>3d</fix>
</trkpt>
<trkpt lat="-27.274439" lon="151.2900642">
  <ele>345.83</ele>
  <time>2026-09-01T19:50:34Z</time>
  <course>7.86</course>
  <speed>0.02</speed>
  <fix>3d</fix>
</trkpt>
<trkpt lat="-27.274439" lon="151.2900642">
  <ele>345.79</ele>
  <time>2026-09-01T19:50:34Z</time>
  <course>7.85</course>
  <speed>0.02</speed>
  <fix>3d</fix>
</trkpt>
<trkpt lat="-27.274439" lon="151.2900642">
  <ele>345.94</ele>
  <time>2026-09-01T19:50:34Z</time>
  <course>264.1</course>
  <speed>0.02</speed>
  <fix>3d</fix>
</trkpt>
<trkpt lat="-27.274439" lon="151.2900642">
  <ele>345.79</ele>
  <time>2026-09-01T19:50:34Z</time>
  <course>7.85</course>
  <speed>0.02</speed>
  <fix>3d</fix>
</trkpt>
<trkpt lat="-27.274439" lon="151.2900642">
  <ele>345.74</ele>
  <time>2026-09-01T19:50:34Z</time>
  <course>7.85</course>
  <speed>0.02</speed>
  <fix>3d</fix>
</trkpt>
<trkpt lat="-27.274439" lon="151.2900642">
  <ele>345.84</ele>
  <time>2026-09-01T19:50:34Z</time>
  <course>263.64</course>
  <speed>0.02</speed>
  <fix>3d</fix>
</trkpt>
<trkpt lat="-27.274439" lon="151.2900642">
  <ele>345.73</ele>
  <time>2026-09-01T19:50:34Z</time>
  <course>7.85</course>
  <speed>0.02</speed>
  <fix>3d</fix>
</trkpt>
<trkpt lat="-27.274439" lon="151.2900642">
  <ele>345.69</ele>
  <time>2026-09-01T19:50:34Z</time>
  <course>7.84</course>
  <speed>0.02</speed>
  <fix>3d</fix>
</trkpt>
<trkpt lat="-27.274439" lon="151.2900642">
  <ele>345.84</ele>
  <time>2026-09-01T19:50:34Z</time>
  <course>263.64</course>
  <speed>0.02</speed>
  <fix>3d</fix>
</trkpt>
<trkpt lat="-27.274439" lon="151.2900642">
  <ele>345.69</ele>
  <time>2026-09-01T19:50:34Z</time>
  <course>7.84</course>
  <speed>0.02</speed>
  <fix>3d</fix>
</trkpt>
<trkpt lat="-27.274439" lon="151.2900641">
  <ele>345.64</ele>
  <time>2026-09-01T19:50:34Z</time>
  <course>7.84</course>
  <speed>0.02</speed>
  <fix>3d</fix>
</trkpt>
<trkpt lat="-27.274439" lon="151.2900642">
  <ele>345.74</ele>
  <time>2026-09-01T19:50:34Z</time>
  <course>261.95</course>
  <speed>0.02</speed>
  <fix>3d</fix>
</trkpt>
<trkpt lat="-27.274439" lon="151.2900641">
  <ele>345.64</ele>
  <time>2026-09-01T19:50:34Z</time>
  <course>7.84</course>
  <speed>0.02</speed>
  <fix>3d</fix>
</trkpt>
<trkpt lat="-27.274439" lon="151.2900641">
  <ele>345.59</ele>
  <time>2026-09-01T19:50:34Z</time>
  <course>7.84</course>
  <speed>0.02</speed>
  <fix>3d</fix>
</trkpt>
<trkpt lat="-27.274439" lon="151.2900642">
  <ele>345.74</ele>
  <time>2026-09-01T19:50:34Z</time>
  <course>261.95</course>
  <speed>0.02</speed>
  <fix>3d</fix>
</trkpt>
<trkpt lat="-27.274439" lon="151.2900641">
  <ele>345.58</ele>
  <time>2026-09-01T19:50:34Z</time>
  <course>7.84</course>
  <speed>0.02</speed>
  <fix>3d</fix>
</trkpt>
<trkpt lat="-27.274439" lon="151.2900641">
  <ele>345.54</ele>
  <time>2026-09-01T19:50:34Z</time>
  <course>7.84</course>
  <speed>0.02</speed>
  <fix>3d</fix>
</trkpt>
<trkpt lat="-27.274439" lon="151.2900641">
  <ele>345.64</ele>
  <time>2026-09-01T19:50:34Z</time>
  <course>259.77</course>
  <speed>0.02</speed>
  <fix>3d</fix>
</trkpt>
<trkpt lat="-27.274439" lon="151.2900641">
  <ele>345.53</ele>
  <time>2026-09-01T19:50:34Z</time>
  <course>7.84</course>
  <speed>0.02</speed>
  <fix>3d</fix>
</trkpt>
<trkpt lat="-27.274439" lon="151.2900641">
  <ele>345.49</ele>
  <time>2026-09-01T19:50:34Z</time>
  <course>7.83</course>
  <speed>0.02</speed>
  <fix>3d</fix>
</trkpt>
<trkpt lat="-27.274439" lon="151.2900641">
  <ele>345.64</ele>
  <time>2026-09-01T19:50:34Z</time>
  <course>259.77</course>
  <speed>0.02</speed>
  <fix>3d</fix>
</trkpt>
<trkpt lat="-27.274439" lon="151.2900641">
  <ele>345.48</ele>
  <time>2026-09-01T19:50:34Z</time>
  <course>7.83</course>
  <speed>0.02</speed>
  <fix>3d</fix>
</trkpt>
<trkpt lat="-27.274439" lon="151.2900641">
  <ele>345.44</ele>
  <time>2026-09-01T19:50:34Z</time>
  <course>7.83</course>
  <speed>0.01</speed>
  <fix>3d</fix>
</trkpt>
<trkpt lat="-27.274439" lon="151.2900641">
  <ele>345.53</ele>
  <time>2026-09-01T19:50:34Z</time>
  <course>257.6</course>
  <speed>0.02</speed>
  <fix>3d</fix>
</trkpt>
<trkpt lat="-27.274439" lon="151.2900641">
  <ele>345.43</ele>
  <time>2026-09-01T19:50:34Z</time>
  <course>7.83</course>
  <speed>0.01</speed>
  <fix>3d</fix>
</trkpt>
<trkpt lat="-27.274439" lon="151.290064">
  <ele>345.39</ele>
  <time>2026-09-01T19:50:34Z</time>
  <course>7.82</course>
  <speed>0.01</speed>
  <fix>3d</fix>
</trkpt>
<trkpt lat="-27.274439" lon="151.2900641">
  <ele>345.53</ele>
  <time>2026-09-01T19:50:34Z</time>
  <course>257.6</course>
  <speed>0.02</speed>
  <fix>3d</fix>
</trkpt>
<trkpt lat="-27.274439" lon="151.290064">
  <ele>345.38</ele>
  <time>2026-09-01T19:50:34Z</time>
  <course>7.82</course>
  <speed>0.01</speed>
  <fix>3d</fix>
</trkpt>
<trkpt lat="-27.274439" lon="151.290064">
  <ele>345.34</ele>
  <time>2026-09-01T19:50:34Z</time>
  <course>7.81</course>
  <speed>0.01</speed>
  <fix>3d</fix>
</trkpt>
<trkpt lat="-27.274439" lon="151.290064">
  <ele>345.44</ele>
  <time>2026-09-01T19:50:34Z</time>
  <course>255.3</course>
  <speed>0.02</speed>
  <fix>3d</fix>
</trkpt>
<trkpt lat="-27.274439" lon="151.290064">
  <ele>345.33</ele>
  <time>2026-09-01T19:50:34Z</time>
  <course>7.81</course>
  <speed>0.01</speed>
  <fix>3d</fix>
</trkpt>
<trkpt lat="-27.274439" lon="151.290064">
  <ele>345.29</ele>
  <time>2026-09-01T19:50:34Z</time>
  <course>7.81</course>
  <speed>0.01</speed>
  <fix>3d</fix>
</trkpt>
<trkpt lat="-27.274439" lon="151.290064">
  <ele>345.44</ele>
  <time>2026-09-01T19:50:34Z</time>
  <course>255.3</course>
  <speed>0.02</speed>
  <fix>3d</fix>
</trkpt>
<trkpt lat="-27.274439" lon="151.290064">
  <ele>345.28</ele>
  <time>2026-09-01T19:50:34Z</time>
  <course>7.81</course>
  <speed>0.01</speed>
  <fix>3d</fix>
</trkpt>
<trkpt lat="-27.274439" lon="151.290064">
  <ele>345.24</ele>
  <time>2026-09-01T19:50:34Z</time>
  <course>7.81</course>
  <speed>0.01</speed>
  <fix>3d</fix>
</trkpt>
<trkpt lat="-27.274439" lon="151.290064">
  <ele>345.34</ele>
  <time>2026-09-01T19:50:34Z</time>
  <course>252.61</course>
  <speed>0.01</speed>
  <fix>3d</fix>
</trkpt>
<trkpt lat="-27.274439" lon="151.290064">
  <ele>345.23</ele>
  <time>2026-09-01T19:50:34Z</time>
  <course>7.81</course>
  <speed>0.01</speed>
  <fix>3d</fix>
</trkpt>
<trkpt lat="-27.274439" lon="151.290064">
  <ele>345.19</ele>
  <time>2026-09-01T19:50:34Z</time>
  <course>7.8</course>
  <speed>0.01</speed>
  <fix>3d</fix>
</trkpt>
<trkpt lat="-27.274439" lon="151.290064">
  <ele>345.34</ele>
  <time>2026-09-01T19:50:34Z</time>
  <course>252.61</course>
  <speed>0.01</speed>
  <fix>3d</fix>
</trkpt>
<trkpt lat="-27.274439" lon="151.290064">
  <ele>345.18</ele>
  <time>2026-09-01T19:50:34Z</time>
  <course>7.8</course>
  <speed>0.01</speed>
  <fix>3d</fix>
</trkpt>
<trkpt lat="-27.274439" lon="151.290064">
  <ele>345.14</ele>
  <time>2026-09-01T19:50:34Z</time>
  <course>7.8</course>
  <speed>0.01</speed>
  <fix>3d</fix>
</trkpt>
<trkpt lat="-27.274439" lon="151.290064">
  <ele>345.24</ele>
  <time>2026-09-01T19:50:34Z</time>
  <course>248.99</course>
  <speed>0.01</speed>
  <fix>3d</fix>
</trkpt>
<trkpt lat="-27.274439" lon="151.290064">
  <ele>345.14</ele>
  <time>2026-09-01T19:50:34Z</time>
  <course>7.8</course>
  <speed>0.01</speed>
  <fix>3d</fix>
</trkpt>
<trkpt lat="-27.274439" lon="151.290064">
  <ele>345.09</ele>
  <time>2026-09-01T19:50:34Z</time>
  <course>7.79</course>
  <speed>0.0</speed>
  <fix>3d</fix>
</trkpt>
<trkpt lat="-27.274439" lon="151.290064">
  <ele>345.24</ele>
  <time>2026-09-01T19:50:34Z</time>
  <course>248.99</course>
  <speed>0.01</speed>
  <fix>3d</fix>
</trkpt>
<trkpt lat="-27.274439" lon="151.290064">
  <ele>345.09</ele>
  <time>2026-09-01T19:50:34Z</time>
  <course>7.79</course>
  <speed>0.0</speed>
  <fix>3d</fix>
</trkpt>
<trkpt lat="-27.274439" lon="151.2900639">
  <ele>345.04</ele>
  <time>2026-09-01T19:50:34Z</time>
  <course>7.78</course>
  <speed>0.0</speed>
  <fix>3d</fix>
</trkpt>
<trkpt lat="-27.274439" lon="151.290064">
  <ele>345.14</ele>
  <time>2026-09-01T19:50:34Z</time>
  <course>243.91</course>
  <speed>0.01</speed>
  <fix>3d</fix>
</trkpt>
<trkpt lat="-27.274439" lon="151.2900639">
  <ele>345.03</ele>
  <time>2026-09-01T19:50:34Z</time>
  <course>7.78</course>
  <speed>0.0</speed>
  <fix>3d</fix>
</trkpt>
<trkpt lat="-27.274439" lon="151.2900639">
  <ele>344.99</ele>
  <time>2026-09-01T19:50:34Z</time>
  <course>7.77</course>
  <speed>0.0</speed>
  <fix>3d</fix>
</trkpt>
<trkpt lat="-27.274439" lon="151.290064">
  <ele>345.14</ele>
  <time>2026-09-01T19:50:34Z</time>
  <course>243.91</course>
  <speed>0.01</speed>
  <fix>3d</fix>
</trkpt>
<trkpt lat="-27.274439" lon="151.2900639">
  <ele>344.98</ele>
  <time>2026-09-01T19:50:34Z</time>
  <course>7.77</course>
  <speed>0.0</speed>
  <fix>3d</fix>
</trkpt>
<trkpt lat="-27.274439" lon="151.2900639">
  <ele>344.94</ele>
  <time>2026-09-01T19:50:34Z</time>
  <course>7.76</course>
  <speed>0.0</speed>
  <fix>3d</fix>
</trkpt>
<trkpt lat="-27.274439" lon="151.2900639">
  <ele>345.03</ele>
  <time>2026-09-01T19:50:34Z</time>
  <course>236.33</course>
  <speed>0.0</speed>
  <fix>3d</fix>
</trkpt>
<trkpt lat="-27.274439" lon="151.2900639">
  <ele>344.93</ele>
  <time>2026-09-01T19:50:34Z</time>
  <course>7.75</course>
  <speed>0.0</speed>
  <fix>3d</fix>
</trkpt>
<trkpt lat="-27.274439" lon="151.2900639">
  <ele>344.89</ele>
  <time>2026-09-01T19:50:34Z</time>
  <course>7.74</course>
  <speed>0.0</speed>
  <fix>3d</fix>
</trkpt>
<trkpt lat="-27.274439" lon="151.2900639">
  <ele>345.03</ele>
  <time>2026-09-01T19:50:34Z</time>
  <course>236.33</course>
  <speed>0.0</speed>
  <fix>3d</fix>
</trkpt>
<trkpt lat="-27.274439" lon="151.2900639">
  <ele>344.88</ele>
  <time>2026-09-01T19:50:34Z</time>
  <course>7.73</course>
  <speed>0.0</speed>
  <fix>3d</fix>
</trkpt>
<trkpt lat="-27.2744391" lon="151.2900639">
  <ele>344.84</ele>
  <time>2026-09-01T19:50:34Z</time>
  <course>7.73</course>
  <speed>0.0</speed>
  <fix>3d</fix>
</trkpt>
<trkpt lat="-27.274439" lon="151.2900639">
  <ele>344.94</ele>
  <time>2026-09-01T19:50:34Z</time>
  <course>216.66</course>
  <speed>0.0</speed>
  <fix>3d</fix>
</trkpt>
<trkpt lat="-27.2744391" lon="151.2900639">
  <ele>344.83</ele>
  <time>2026-09-01T19:50:34Z</time>
  <course>7.73</course>
  <speed>0.0</speed>
  <fix>3d</fix>
</trkpt>
<trkpt lat="-27.2744391" lon="151.2900639">
  <ele>344.79</ele>
  <time>2026-09-01T19:50:34Z</time>
  <course>7.75</course>
  <speed>0.0</speed>
  <fix>3d</fix>
</trkpt>
<trkpt lat="-27.274439" lon="151.2900639">
  <ele>344.94</ele>
  <time>2026-09-01T19:50:34Z</time>
  <course>216.66</course>
  <speed>0.0</speed>
  <fix>3d</fix>
</trkpt>
<trkpt lat="-27.2744391" lon="151.2900639">
  <ele>344.78</ele>
  <time>2026-09-01T19:50:34Z</time>
  <course>7.76</course>
  <speed>0.0</speed>
  <fix>3d</fix>
</trkpt>
<trkpt lat="-27.2744391" lon="151.2900639">
  <ele>344.74</ele>
  <time>2026-09-01T19:50:34Z</time>
  <course>7.79</course>
  <speed>0.0</speed>
  <fix>3d</fix>
</trkpt>
<trkpt lat="-27.274439" lon="151.2900639">
  <ele>344.84</ele>
  <time>2026-09-01T19:50:34Z</time>
  <course>184.37</course>
  <speed>0.0</speed>
  <fix>3d</fix>
</trkpt>
<trkpt lat="-27.2744391" lon="151.2900639">
  <ele>344.73</ele>
  <time>2026-09-01T19:50:34Z</time>
  <course>7.8</course>
  <speed>0.0</speed>
  <fix>3d</fix>
</trkpt>
<trkpt lat="-27.2744391" lon="151.2900639">
  <ele>344.69</ele>
  <time>2026-09-01T19:50:34Z</time>
  <course>7.84</course>
  <speed>0.0</speed>
  <fix>3d</fix>
</trkpt>
<trkpt lat="-27.274439" lon="151.2900639">
  <ele>344.84</ele>
  <time>2026-09-01T19:50:34Z</time>
  <course>184.37</course>
  <speed>0.0</speed>
  <fix>3d</fix>
</trkpt>
<trkpt lat="-27.2744391" lon="151.2900639">
  <ele>344.68</ele>
  <time>2026-09-01T19:50:34Z</time>
  <course>7.85</course>
  <speed>0.0</speed>
  <fix>3d</fix>
</trkpt>
<trkpt lat="-27.2744391" lon="151.2900639">
  <ele>344.64</ele>
  <time>2026-09-01T19:50:34Z</time>
  <course>7.88</course>
  <speed>0.0</speed>
  <fix>3d</fix>
</trkpt>
<trkpt lat="-27.2744391" lon="151.2900639">
  <ele>344.74</ele>
  <time>2026-09-01T19:50:34Z</time>
  <course>166.0</course>
  <speed>0.0</speed>
  <fix>3d</fix>
</trkpt>
<trkpt lat="-27.2744391" lon="151.2900639">
  <ele>344.63</ele>
  <time>2026-09-01T19:50:34Z</time>
  <course>7.89</course>
  <speed>0.0</speed>
  <fix>3d</fix>
</trkpt>
<trkpt lat="-27.2744391" lon="151.2900639">
  <ele>344.59</ele>
  <time>2026-09-01T19:50:34Z</time>
  <course>7.91</course>
  <speed>0.0</speed>
  <fix>3d</fix>
</trkpt>
<trkpt lat="-27.2744391" lon="151.2900639">
  <ele>344.74</ele>
  <time>2026-09-01T19:50:34Z</time>
  <course>166.0</course>
  <speed>0.0</speed>
  <fix>3d</fix>
</trkpt>
<trkpt lat="-27.2744391" lon="151.2900639">
  <ele>344.59</ele>
  <time>2026-09-01T19:50:34Z</time>
  <course>7.92</course>
  <speed>0.0</speed>
  <fix>3d</fix>
</trkpt>
<trkpt lat="-27.2744391" lon="151.2900639">
  <ele>344.54</ele>
  <time>2026-09-01T19:50:34Z</time>
  <course>7.94</course>
  <speed>0.0</speed>
  <fix>3d</fix>
</trkpt>
<trkpt lat="-27.2744391" lon="151.2900639">
  <ele>344.64</ele>
  <time>2026-09-01T19:50:34Z</time>
  <course>137.28</course>
  <speed>0.0</speed>
  <fix>3d</fix>
</trkpt>
<trkpt lat="-27.2744391" lon="151.2900639">
  <ele>344.54</ele>
  <time>2026-09-01T19:50:34Z</time>
  <course>7.94</course>
  <speed>0.0</speed>
  <fix>3d</fix>
</trkpt>
<trkpt lat="-27.2744391" lon="151.2900639">
  <ele>344.49</ele>
  <time>2026-09-01T19:50:34Z</time>
  <course>7.95</course>
  <speed>0.0</speed>
  <fix>3d</fix>
</trkpt>
<trkpt lat="-27.2744391" lon="151.2900639">
  <ele>344.64</ele>
  <time>2026-09-01T19:50:34Z</time>
  <course>137.28</course>
  <speed>0.0</speed>
  <fix>3d</fix>
</trkpt>
<trkpt lat="-27.2744391" lon="151.2900639">
  <ele>344.48</ele>
  <time>2026-09-01T19:50:34Z</time>
  <course>7.96</course>
  <speed>0.0</speed>
  <fix>3d</fix>
</trkpt>
<trkpt lat="-27.2744391" lon="151.2900639">
  <ele>344.44</ele>
  <time>2026-09-01T19:50:34Z</time>
  <course>7.96</course>
  <speed>0.0</speed>
  <fix>3d</fix>
</trkpt>
<trkpt lat="-27.2744391" lon="151.2900639">
  <ele>344.53</ele>
  <time>2026-09-01T19:50:34Z</time>
  <course>39.07</course>
  <speed>0.0</speed>
  <fix>3d</fix>
</trkpt>
<trkpt lat="-27.2744391" lon="151.2900639">
  <ele>344.43</ele>
  <time>2026-09-01T19:50:34Z</time>
  <course>7.96</course>
  <speed>0.0</speed>
  <fix>3d</fix>
</trkpt>
<trkpt lat="-27.2744391" lon="151.2900639">
  <ele>344.39</ele>
  <time>2026-09-01T19:50:34Z</time>
  <course>7.95</course>
  <speed>0.0</speed>
  <fix>3d</fix>
</trkpt>
<trkpt lat="-27.2744391" lon="151.2900639">
  <ele>344.53</ele>
  <time>2026-09-01T19:50:34Z</time>
  <course>39.07</course>
  <speed>0.0</speed>
  <fix>3d</fix>
</trkpt>
<trkpt lat="-27.2744391" lon="151.2900639">
  <ele>344.38</ele>
  <time>2026-09-01T19:50:34Z</time>
  <course>7.95</course>
  <speed>0.0</speed>
  <fix>3d</fix>
</trkpt>
<trkpt lat="-27.2744391" lon="151.2900639">
  <ele>344.34</ele>
  <time>2026-09-01T19:50:34Z</time>
  <course>7.93</course>
  <speed>0.0</speed>
  <fix>3d</fix>
</trkpt>
<trkpt lat="-27.2744391" lon="151.2900639">
  <ele>344.44</ele>
  <time>2026-09-01T19:50:34Z</time>
  <course>332.32</course>
  <speed>0.0</speed>
  <fix>3d</fix>
</trkpt>
<trkpt lat="-27.2744391" lon="151.2900639">
  <ele>344.34</ele>
  <time>2026-09-01T19:50:34Z</time>
  <course>7.93</course>
  <speed>0.0</speed>
  <fix>3d</fix>
</trkpt>
<trkpt lat="-27.2744391" lon="151.2900639">
  <ele>344.29</ele>
  <time>2026-09-01T19:50:34Z</time>
  <course>7.92</course>
  <speed>0.0</speed>
  <fix>3d</fix>
</trkpt>
<trkpt lat="-27.2744391" lon="151.2900639">
  <ele>344.44</ele>
  <time>2026-09-01T19:50:34Z</time>
  <course>332.32</course>
  <speed>0.0</speed>
  <fix>3d</fix>
</trkpt>
<trkpt lat="-27.2744391" lon="151.2900639">
  <ele>344.28</ele>
  <time>2026-09-01T19:50:34Z</time>
  <course>7.91</course>
  <speed>0.0</speed>
  <fix>3d</fix>
</trkpt>
<trkpt lat="-27.2744391" lon="151.2900639">
  <ele>344.24</ele>
  <time>2026-09-01T19:50:34Z</time>
  <course>7.91</course>
  <speed>0.0</speed>
  <fix>3d</fix>
</trkpt>
<trkpt lat="-27.2744391" lon="151.2900639">
  <ele>344.34</ele>
  <time>2026-09-01T19:50:34Z</time>
  <course>321.93</course>
  <speed>0.0</speed>
  <fix>3d</fix>
</trkpt>
<trkpt lat="-27.2744391" lon="151.2900639">
  <ele>344.23</ele>
  <time>2026-09-01T19:50:34Z</time>
  <course>7.9</course>
  <speed>0.0</speed>
  <fix>3d</fix>
</trkpt>
<trkpt lat="-27.2744391" lon="151.2900639">
  <ele>344.19</ele>
  <time>2026-09-01T19:50:34Z</time>
  <course>7.9</course>
  <speed>0.0</speed>
  <fix>3d</fix>
</trkpt>
<trkpt lat="-27.2744391" lon="151.2900639">
  <ele>344.34</ele>
  <time>2026-09-01T19:50:34Z</time>
  <course>321.93</course>
  <speed>0.0</speed>
  <fix>3d</fix>
</trkpt>
<trkpt lat="-27.2744391" lon="151.2900639">
  <ele>344.18</ele>
  <time>2026-09-01T19:50:34Z</time>
  <course>7.9</course>
  <speed>0.0</speed>
  <fix>3d</fix>
</trkpt>
<trkpt lat="-27.2744391" lon="151.2900639">
  <ele>344.14</ele>
  <time>2026-09-01T19:50:34Z</time>
  <course>7.9</course>
  <speed>0.0</speed>
  <fix>3d</fix>
</trkpt>
<trkpt lat="-27.2744391" lon="151.2900639">
  <ele>344.24</ele>
  <time>2026-09-01T19:50:34Z</time>
  <course>323.72</course>
  <speed>0.0</speed>
  <fix>3d</fix>
</trkpt>
<trkpt lat="-27.2744391" lon="151.2900639">
  <ele>344.13</ele>
  <time>2026-09-01T19:50:34Z</time>
  <course>7.91</course>
  <speed>0.0</speed>
  <fix>3d</fix>
</trkpt>
<trkpt lat="-27.2744391" lon="151.2900639">
  <ele>344.09</ele>
  <time>2026-09-01T19:50:34Z</time>
  <course>7.91</course>
  <speed>0.0</speed>
  <fix>3d</fix>
</trkpt>
<trkpt lat="-27.2744391" lon="151.2900639">
  <ele>344.24</ele>
  <time>2026-09-01T19:50:34Z</time>
  <course>323.72</course>
  <speed>0.0</speed>
  <fix>3d</fix>
</trkpt>
<trkpt lat="-27.2744391" lon="151.2900639">
  <ele>344.08</ele>
  <time>2026-09-01T19:50:34Z</time>
  <course>7.91</course>
  <speed>0.0</speed>
  <fix>3d</fix>
</trkpt>
<trkpt lat="-27.2744391" lon="151.2900639">
  <ele>344.04</ele>
  <time>2026-09-01T19:50:34Z</time>
  <course>7.92</course>
  <speed>0.0</speed>
  <fix>3d</fix>
</trkpt>
<trkpt lat="-27.2744391" lon="151.2900639">
  <ele>344.14</ele>
  <time>2026-09-01T19:50:34Z</time>
  <course>327.7</course>
  <speed>0.0</speed>
  <fix>3d</fix>
</trkpt>
<trkpt lat="-27.2744391" lon="151.2900639">
  <ele>343.99</ele>
  <time>2026-09-01T19:50:34Z</time>
  <course>7.92</course>
  <speed>0.0</speed>
  <fix>3d</fix>
</trkpt>
<trkpt lat="-27.2744391" lon="151.2900639">
  <ele>344.14</ele>
  <time>2026-09-01T19:50:34Z</time>
  <course>327.7</course>
  <speed>0.0</speed>
  <fix>3d</fix>
</trkpt>
<trkpt lat="-27.2744391" lon="151.2900639">
  <ele>343.94</ele>
  <time>2026-09-01T19:50:34Z</time>
  <course>7.91</course>
  <speed>0.0</speed>
  <fix>3d</fix>
</trkpt>
<trkpt lat="-27.2744391" lon="151.2900639">
  <ele>344.03</ele>
  <time>2026-09-01T19:50:34Z</time>
  <course>327.35</course>
  <speed>0.0</speed>
  <fix>3d</fix>
</trkpt>
<trkpt lat="-27.2744391" lon="151.2900639">
  <ele>343.89</ele>
  <time>2026-09-01T19:50:34Z</time>
  <course>7.9</course>
  <speed>0.0</speed>
  <fix>3d</fix>
</trkpt>
<trkpt lat="-27.2744391" lon="151.2900639">
  <ele>344.03</ele>
  <time>2026-09-01T19:50:34Z</time>
  <course>327.35</course>
  <speed>0.0</speed>
  <fix>3d</fix>
</trkpt>
<trkpt lat="-27.2744391" lon="151.2900639">
  <ele>343.84</ele>
  <time>2026-09-01T19:50:34Z</time>
  <course>7.9</course>
  <speed>0.0</speed>
  <fix>3d</fix>
</trkpt>
<trkpt lat="-27.2744391" lon="151.2900639">
  <ele>343.94</ele>
  <time>2026-09-01T19:50:34Z</time>
  <course>324.86</course>
  <speed>0.0</speed>
  <fix>3d</fix>
</trkpt>
<trkpt lat="-27.2744391" lon="151.2900639">
  <ele>343.79</ele>
  <time>2026-09-01T19:50:34Z</time>
  <course>7.9</course>
  <speed>0.0</speed>
  <fix>3d</fix>
</trkpt>
<trkpt lat="-27.2744391" lon="151.2900639">
  <ele>343.94</ele>
  <time>2026-09-01T19:50:34Z</time>
  <course>324.86</course>
  <speed>0.0</speed>
  <fix>3d</fix>
</trkpt>
<trkpt lat="-27.2744391" lon="151.2900639">
  <ele>343.74</ele>
  <time>2026-09-01T19:50:34Z</time>
  <course>7.89</course>
  <speed>0.0</speed>
  <fix>3d</fix>
</trkpt>
<trkpt lat="-27.2744391" lon="151.2900639">
  <ele>343.84</ele>
  <time>2026-09-01T19:50:34Z</time>
  <course>324.24</course>
  <speed>0.0</speed>
  <fix>3d</fix>
</trkpt>
<trkpt lat="-27.2744391" lon="151.2900639">
  <ele>343.69</ele>
  <time>2026-09-01T19:50:34Z</time>
  <course>7.89</course>
  <speed>0.0</speed>
  <fix>3d</fix>
</trkpt>
<trkpt lat="-27.2744391" lon="151.2900639">
  <ele>343.84</ele>
  <time>2026-09-01T19:50:34Z</time>
  <course>324.24</course>
  <speed>0.0</speed>
  <fix>3d</fix>
</trkpt>
<trkpt lat="-27.2744391" lon="151.2900639">
  <ele>343.64</ele>
  <time>2026-09-01T19:50:34Z</time>
  <course>7.89</course>
  <speed>0.0</speed>
  <fix>3d</fix>
</trkpt>
<trkpt lat="-27.2744391" lon="151.2900639">
  <ele>343.74</ele>
  <time>2026-09-01T19:50:34Z</time>
  <course>325.07</course>
  <speed>0.0</speed>
  <fix>3d</fix>
</trkpt>
<trkpt lat="-27.2744391" lon="151.2900639">
  <ele>343.59</ele>
  <time>2026-09-01T19:50:34Z</time>
  <course>7.88</course>
  <speed>0.0</speed>
  <fix>3d</fix>
</trkpt>
<trkpt lat="-27.2744391" lon="151.2900639">
  <ele>343.74</ele>
  <time>2026-09-01T19:50:34Z</time>
  <course>325.07</course>
  <speed>0.0</speed>
  <fix>3d</fix>
</trkpt>
<trkpt lat="-27.2744391" lon="151.2900639">
  <ele>343.54</ele>
  <time>2026-09-01T19:50:34Z</time>
  <course>7.88</course>
  <speed>0.0</speed>
  <fix>3d</fix>
</trkpt>
<trkpt lat="-27.2744391" lon="151.2900639">
  <ele>343.64</ele>
  <time>2026-09-01T19:50:34Z</time>
  <course>326.18</course>
  <speed>0.0</speed>
  <fix>3d</fix>
</trkpt>
<trkpt lat="-27.2744391" lon="151.2900639">
  <ele>343.49</ele>
  <time>2026-09-01T19:50:34Z</time>
  <course>7.88</course>
  <speed>0.0</speed>
  <fix>3d</fix>
</trkpt>
<trkpt lat="-27.2744391" lon="151.2900639">
  <ele>343.53</ele>
  <time>2026-09-01T19:50:34Z</time>
  <course>327.48</course>
  <speed>0.0</speed>
  <fix>3d</fix>
</trkpt>
<trkpt lat="-27.2744391" lon="151.2900639">
  <ele>343.44</ele>
  <time>2026-09-01T19:50:34Z</time>
  <course>7.88</course>
  <speed>0.0</speed>
  <fix>3d</fix>
</trkpt>
<trkpt lat="-27.2744391" lon="151.2900639">
  <ele>343.53</ele>
  <time>2026-09-01T19:50:34Z</time>
  <course>327.48</course>
  <speed>0.0</speed>
  <fix>3d</fix>
</trkpt>
<trkpt lat="-27.2744391" lon="151.2900639">
  <ele>343.39</ele>
  <time>2026-09-01T19:50:34Z</time>
  <course>7.88</course>
  <speed>0.0</speed>
  <fix>3d</fix>
</trkpt>
<trkpt lat="-27.2744391" lon="151.2900639">
  <ele>343.44</ele>
  <time>2026-09-01T19:50:34Z</time>
  <course>328.96</course>
  <speed>0.0</speed>
  <fix>3d</fix>
</trkpt>
<trkpt lat="-27.2744391" lon="151.2900639">
  <ele>343.34</ele>
  <time>2026-09-01T19:50:34Z</time>
  <course>7.87</course>
  <speed>0.0</speed>
  <fix>3d</fix>
</trkpt>
<trkpt lat="-27.2744391" lon="151.2900639">
  <ele>343.44</ele>
  <time>2026-09-01T19:50:34Z</time>
  <course>328.96</course>
  <speed>0.0</speed>
  <fix>3d</fix>
</trkpt>
<trkpt lat="-27.2744391" lon="151.2900639">
  <ele>343.29</ele>
  <time>2026-09-01T19:50:34Z</time>
  <course>7.87</course>
  <speed>0.0</speed>
  <fix>3d</fix>
</trkpt>
<trkpt lat="-27.2744391" lon="151.2900639">
  <ele>343.34</ele>
  <time>2026-09-01T19:50:34Z</time>
  <course>330.72</course>
  <speed>0.0</speed>
  <fix>3d</fix>
</trkpt>
<trkpt lat="-27.2744391" lon="151.2900639">
  <ele>343.24</ele>
  <time>2026-09-01T19:50:34Z</time>
  <course>7.86</course>
  <speed>0.0</speed>
  <fix>3d</fix>
</trkpt>
<trkpt lat="-27.2744391" lon="151.2900639">
  <ele>343.34</ele>
  <time>2026-09-01T19:50:34Z</time>
  <course>330.72</course>
  <speed>0.0</speed>
  <fix>3d</fix>
</trkpt>
<trkpt lat="-27.2744391" lon="151.2900639">
  <ele>343.19</ele>
  <time>2026-09-01T19:50:34Z</time>
  <course>7.86</course>
  <speed>0.0</speed>
  <fix>3d</fix>
</trkpt>
<trkpt lat="-27.2744391" lon="151.2900639">
  <ele>343.34</ele>
  <time>2026-09-01T19:50:34Z</time>
  <course>330.72</course>
  <speed>0.0</speed>
  <fix>3d</fix>
</trkpt>
<trkpt lat="-27.274439" lon="151.2900639">
  <ele>343.14</ele>
  <time>2026-09-01T19:50:34Z</time>
  <course>7.86</course>
  <speed>0.0</speed>
  <fix>3d</fix>
</trkpt>
<trkpt lat="-27.2744391" lon="151.2900639">
  <ele>343.24</ele>
  <time>2026-09-01T19:50:34Z</time>
  <course>333.02</course>
  <speed>0.0</speed>
  <fix>3d</fix>
</trkpt>
<trkpt lat="-27.274439" lon="151.2900639">
  <ele>343.09</ele>
  <time>2026-09-01T19:50:34Z</time>
  <course>7.86</course>
  <speed>0.0</speed>
  <fix>3d</fix>
</trkpt>
<trkpt lat="-27.2744391" lon="151.2900639">
  <ele>343.24</ele>
  <time>2026-09-01T19:50:34Z</time>
  <course>333.02</course>
  <speed>0.0</speed>
  <fix>3d</fix>
</trkpt>
<trkpt lat="-27.274439" lon="151.2900639">
  <ele>343.07</ele>
  <time>2026-09-01T19:50:34Z</time>
  <course>7.86</course>
  <speed>0.0</speed>
  <fix>3d</fix>
</trkpt>
<trkpt lat="-27.274439" lon="151.2900639">
  <ele>343.14</ele>
  <time>2026-09-01T19:50:34Z</time>
  <course>334.82</course>
  <speed>0.0</speed>
  <fix>3d</fix>
</trkpt>
<trkpt lat="-27.274439" lon="151.2900639">
  <ele>343.08</ele>
  <time>2026-09-01T19:50:34Z</time>
  <course>7.86</course>
  <speed>0.0</speed>
  <fix>3d</fix>
</trkpt>
<trkpt lat="-27.274439" lon="151.2900639">
  <ele>343.14</ele>
  <time>2026-09-01T19:50:34Z</time>
  <course>334.82</course>
  <speed>0.0</speed>
  <fix>3d</fix>
</trkpt>
<trkpt lat="-27.274439" lon="151.2900639">
  <ele>343.09</ele>
  <time>2026-09-01T19:50:34Z</time>
  <course>7.86</course>
  <speed>0.0</speed>
  <fix>3d</fix>
</trkpt>
<trkpt lat="-27.274439" lon="151.2900639">
  <ele>343.08</ele>
  <time>2026-09-01T19:50:34Z</time>
  <course>335.33</course>
  <speed>0.0</speed>
  <fix>3d</fix>
</trkpt>
<trkpt lat="-27.274439" lon="151.2900639">
  <ele>343.1</ele>
  <time>2026-09-01T19:50:34Z</time>
  <course>7.86</course>
  <speed>0.0</speed>
  <fix>3d</fix>
</trkpt>
<trkpt lat="-27.274439" lon="151.2900639">
  <ele>343.08</ele>
  <time>2026-09-01T19:50:34Z</time>
  <course>335.33</course>
  <speed>0.0</speed>
  <fix>3d</fix>
</trkpt>
<trkpt lat="-27.274439" lon="151.2900639">
  <ele>343.1</ele>
  <time>2026-09-01T19:50:34Z</time>
  <course>7.86</course>
  <speed>0.0</speed>
  <fix>3d</fix>
</trkpt>
<trkpt lat="-27.274439" lon="151.2900639">
  <ele>343.09</ele>
  <time>2026-09-01T19:50:34Z</time>
  <course>155.33</course>
  <speed>0.0</speed>
  <fix>3d</fix>
</trkpt>
<trkpt lat="-27.274439" lon="151.2900639">
  <ele>343.1</ele>
  <time>2026-09-01T19:50:34Z</time>
  <course>7.86</course>
  <speed>0.0</speed>
  <fix>3d</fix>
</trkpt>
<trkpt lat="-27.274439" lon="151.2900639">
  <ele>343.09</ele>
  <time>2026-09-01T19:50:34Z</time>
  <course>155.33</course>
  <speed>0.0</speed>
  <fix>3d</fix>
</trkpt>
<trkpt lat="-27.274439" lon="151.2900639">
  <ele>343.1</ele>
  <time>2026-09-01T19:50:34Z</time>
  <course>7.86</course>
  <speed>0.0</speed>
  <fix>3d</fix>
</trkpt>
<trkpt lat="-27.274439" lon="151.2900639">
  <ele>343.1</ele>
  <time>2026-09-01T19:50:34Z</time>
  <course>155.31</course>
  <speed>0.0</speed>
  <fix>3d</fix>
</trkpt>
<trkpt lat="-27.274439" lon="151.2900639">
  <ele>343.09</ele>
  <time>2026-09-01T19:50:34Z</time>
  <course>7.86</course>
  <speed>0.0</speed>
  <fix>3d</fix>
</trkpt>
<trkpt lat="-27.274439" lon="151.2900639">
  <ele>343.1</ele>
  <time>2026-09-01T19:50:34Z</time>
  <course>155.31</course>
  <speed>0.0</speed>
  <fix>3d</fix>
</trkpt>
<trkpt lat="-27.274439" lon="151.2900639">
  <ele>343.09</ele>
  <time>2026-09-01T19:50:34Z</time>
  <course>7.86</course>
  <speed>0.0</speed>
  <fix>3d</fix>
</trkpt>
<trkpt lat="-27.274439" lon="151.2900639">
  <ele>343.09</ele>
  <time>2026-09-01T19:50:34Z</time>
  <course>335.34</course>
  <speed>0.0</speed>
  <fix>3d</fix>
</trkpt>
<trkpt lat="-27.274439" lon="151.2900639">
  <ele>343.09</ele>
  <time>2026-09-01T19:50:34Z</time>
  <course>7.86</course>
  <speed>0.0</speed>
  <fix>3d</fix>
</trkpt>
<trkpt lat="-27.274439" lon="151.2900639">
  <ele>343.09</ele>
  <time>2026-09-01T19:50:34Z</time>
  <course>335.34</course>
  <speed>0.0</speed>
  <fix>3d</fix>
</trkpt>
<trkpt lat="-27.274439" lon="151.2900639">
  <ele>343.1</ele>
  <time>2026-09-01T19:50:34Z</time>
  <course>7.86</course>
  <speed>0.0</speed>
  <fix>3d</fix>
</trkpt>
<trkpt lat="-27.274439" lon="151.2900639">
  <ele>343.09</ele>
  <time>2026-09-01T19:50:34Z</time>
  <course>153.7</course>
  <speed>0.0</speed>
  <fix>3d</fix>
</trkpt>
<trkpt lat="-27.274439" lon="151.2900639">
  <ele>343.1</ele>
  <time>2026-09-01T19:50:34Z</time>
  <course>7.86</course>
  <speed>0.0</speed>
  <fix>3d</fix>
</trkpt>
<trkpt lat="-27.274439" lon="151.2900639">
  <ele>343.09</ele>
  <time>2026-09-01T19:50:34Z</time>
  <course>153.7</course>
  <speed>0.0</speed>
  <fix>3d</fix>
</trkpt>
<trkpt lat="-27.274439" lon="151.2900639">
  <ele>343.1</ele>
  <time>2026-09-01T19:50:34Z</time>
  <course>7.86</course>
  <speed>0.0</speed>
  <fix>3d</fix>
</trkpt>
<trkpt lat="-27.274439" lon="151.2900639">
  <ele>343.09</ele>
  <time>2026-09-01T19:50:34Z</time>
  <course>155.25</course>
  <speed>0.0</speed>
  <fix>3d</fix>
</trkpt>
<trkpt lat="-27.274439" lon="151.2900639">
  <ele>343.09</ele>
  <time>2026-09-01T19:50:34Z</time>
  <course>7.86</course>
  <speed>0.0</speed>
  <fix>3d</fix>
</trkpt>
<trkpt lat="-27.274439" lon="151.2900639">
  <ele>343.09</ele>
  <time>2026-09-01T19:50:34Z</time>
  <course>335.29</course>
  <speed>0.0</speed>
  <fix>3d</fix>
</trkpt>
<trkpt lat="-27.274439" lon="151.2900639">
  <ele>343.09</ele>
  <time>2026-09-01T19:50:34Z</time>
  <course>7.86</course>
  <speed>0.0</speed>
  <fix>3d</fix>
</trkpt>
<trkpt lat="-27.274439" lon="151.2900639">
  <ele>343.09</ele>
  <time>2026-09-01T19:50:34Z</time>
  <course>335.29</course>
  <speed>0.0</speed>
  <fix>3d</fix>
</trkpt>
<trkpt lat="-27.274439" lon="151.2900639">
  <ele>343.09</ele>
  <time>2026-09-01T19:50:34Z</time>
  <course>7.86</course>
  <speed>0.0</speed>
  <fix>3d</fix>
</trkpt>
<trkpt lat="-27.274439" lon="151.2900639">
  <ele>343.09</ele>
  <time>2026-09-01T19:50:34Z</time>
  <course>335.59</course>
  <speed>0.0</speed>
  <fix>3d</fix>
</trkpt>
<trkpt lat="-27.274439" lon="151.2900639">
  <ele>343.09</ele>
  <time>2026-09-01T19:50:34Z</time>
  <course>7.86</course>
  <speed>0.0</speed>
  <fix>3d</fix>
</trkpt>
<trkpt lat="-27.274439" lon="151.2900639">
  <ele>343.09</ele>
  <time>2026-09-01T19:50:34Z</time>
  <course>335.59</course>
  <speed>0.0</speed>
  <fix>3d</fix>
</trkpt>
<trkpt lat="-27.274439" lon="151.2900639">
  <ele>343.09</ele>
  <time>2026-09-01T19:50:34Z</time>
  <course>7.86</course>
  <speed>0.0</speed>
  <fix>3d</fix>
</trkpt>
<trkpt lat="-27.274439" lon="151.2900639">
  <ele>343.09</ele>
  <time>2026-09-01T19:50:34Z</time>
  <course>153.8</course>
  <speed>0.0</speed>
  <fix>3d</fix>
</trkpt>
<trkpt lat="-27.274439" lon="151.2900639">
  <ele>343.09</ele>
  <time>2026-09-01T19:50:34Z</time>
  <course>7.86</course>
  <speed>0.0</speed>
  <fix>3d</fix>
</trkpt>
<trkpt lat="-27.274439" lon="151.2900639">
  <ele>343.09</ele>
  <time>2026-09-01T19:50:34Z</time>
  <course>153.8</course>
  <speed>0.0</speed>
  <fix>3d</fix>
</trkpt>
<trkpt lat="-27.274439" lon="151.2900639">
  <ele>343.09</ele>
  <time>2026-09-01T19:50:34Z</time>
  <course>7.86</course>
  <speed>0.0</speed>
  <fix>3d</fix>
</trkpt>
<trkpt lat="-27.274439" lon="151.2900639">
  <ele>343.09</ele>
  <time>2026-09-01T19:50:34Z</time>
  <course>156.01</course>
  <speed>0.0</speed>
  <fix>3d</fix>
</trkpt>
<trkpt lat="-27.274439" lon="151.2900639">
  <ele>343.09</ele>
  <time>2026-09-01T19:50:34Z</time>
  <course>7.86</course>
  <speed>0.0</speed>
  <fix>3d</fix>
</trkpt>
<trkpt lat="-27.274439" lon="151.2900639">
  <ele>343.09</ele>
  <time>2026-09-01T19:50:34Z</time>
  <course>156.01</course>
  <speed>0.0</speed>
  <fix>3d</fix>
</trkpt>
<trkpt lat="-27.274439" lon="151.2900639">
  <ele>343.09</ele>
  <time>2026-09-01T19:50:34Z</time>
  <course>7.86</course>
  <speed>0.0</speed>
  <fix>3d</fix>
</trkpt>
<trkpt lat="-27.274439" lon="151.2900639">
  <ele>343.09</ele>
  <time>2026-09-01T19:50:34Z</time>
  <course>343.49</course>
  <speed>0.0</speed>
  <fix>3d</fix>
</trkpt>
<trkpt lat="-27.274439" lon="151.2900639">
  <ele>343.09</ele>
  <time>2026-09-01T19:50:34Z</time>
  <course>7.86</course>
  <speed>0.0</speed>
  <fix>3d</fix>
</trkpt>
<trkpt lat="-27.274439" lon="151.2900639">
  <ele>343.09</ele>
  <time>2026-09-01T19:50:34Z</time>
  <course>343.49</course>
  <speed>0.0</speed>
  <fix>3d</fix>
</trkpt>
<trkpt lat="-27.274439" lon="151.2900639">
  <ele>343.09</ele>
  <time>2026-09-01T19:50:34Z</time>
  <course>7.86</course>
  <speed>0.0</speed>
  <fix>3d</fix>
</trkpt>
<trkpt lat="-27.274439" lon="151.2900639">
  <ele>343.09</ele>
  <time>2026-09-01T19:50:34Z</time>
  <course>5.39</course>
  <speed>0.0</speed>
  <fix>3d</fix>
</trkpt>
<trkpt lat="-27.274439" lon="151.2900639">
  <ele>343.09</ele>
  <time>2026-09-01T19:50:34Z</time>
  <course>7.86</course>
  <speed>0.0</speed>
  <fix>3d</fix>
</trkpt>
<trkpt lat="-27.274439" lon="151.2900639">
  <ele>343.09</ele>
  <time>2026-09-01T19:50:34Z</time>
  <course>5.39</course>
  <speed>0.0</speed>
  <fix>3d</fix>
</trkpt>
<trkpt lat="-27.274439" lon="151.2900639">
  <ele>343.09</ele>
  <time>2026-09-01T19:50:34Z</time>
  <course>7.86</course>
  <speed>0.0</speed>
  <fix>3d</fix>
</trkpt>
<trkpt lat="-27.274439" lon="151.2900639">
  <ele>343.09</ele>
  <time>2026-09-01T19:50:34Z</time>
  <course>5.39</course>
  <speed>0.0</speed>
  <fix>3d</fix>
</trkpt>
<trkpt lat="-27.274439" lon="151.2900639">
  <ele>343.09</ele>
  <time>2026-09-01T19:50:34Z</time>
  <course>7.86</course>
  <speed>0.0</speed>
  <fix>3d</fix>
</trkpt>
<trkpt lat="-27.274439" lon="151.2900639">
  <ele>343.09</ele>
  <time>2026-09-01T19:50:34Z</time>
  <course>184.11</course>
  <speed>0.0</speed>
  <fix>3d</fix>
</trkpt>
<trkpt lat="-27.274439" lon="151.2900639">
  <ele>343.09</ele>
  <time>2026-09-01T19:50:34Z</time>
  <course>7.86</course>
  <speed>0.0</speed>
  <fix>3d</fix>
</trkpt>
<trkpt lat="-27.274439" lon="151.2900639">
  <ele>343.09</ele>
  <time>2026-09-01T19:50:34Z</time>
  <course>184.11</course>
  <speed>0.0</speed>
  <fix>3d</fix>
</trkpt>
<trkpt lat="-27.274439" lon="151.2900639">
  <ele>343.09</ele>
  <time>2026-09-01T19:50:34Z</time>
  <course>7.86</course>
  <speed>0.0</speed>
  <fix>3d</fix>
</trkpt>
<trkpt lat="-27.274439" lon="151.2900639">
  <ele>343.09</ele>
  <time>2026-09-01T19:50:34Z</time>
  <course>190.83</course>
  <speed>0.0</speed>
  <fix>3d</fix>
</trkpt>
<trkpt lat="-27.274439" lon="151.2900639">
  <ele>343.09</ele>
  <time>2026-09-01T19:50:34Z</time>
  <course>7.86</course>
  <speed>0.0</speed>
  <fix>3d</fix>
</trkpt>
<trkpt lat="-27.274439" lon="151.2900639">
  <ele>343.09</ele>
  <time>2026-09-01T19:50:34Z</time>
  <course>190.83</course>
  <speed>0.0</speed>
  <fix>3d</fix>
</trkpt>
<trkpt lat="-27.274439" lon="151.2900639">
  <ele>343.09</ele>
  <time>2026-09-01T19:50:34Z</time>
  <course>7.86</course>
  <speed>0.0</speed>
  <fix>3d</fix>
</trkpt>
<trkpt lat="-27.274439" lon="151.2900639">
  <ele>343.09</ele>
  <time>2026-09-01T19:50:34Z</time>
  <course>175.94</course>
  <speed>0.0</speed>
  <fix>3d</fix>
</trkpt>
<trkpt lat="-27.274439" lon="151.2900639">
  <ele>343.09</ele>
  <time>2026-09-01T19:50:34Z</time>
  <course>7.86</course>
  <speed>0.0</speed>
  <fix>3d</fix>
</trkpt>
<trkpt lat="-27.274439" lon="151.2900639">
  <ele>343.09</ele>
  <time>2026-09-01T19:50:34Z</time>
  <course>175.94</course>
  <speed>0.0</speed>
  <fix>3d</fix>
</trkpt>
<trkpt lat="-27.274439" lon="151.2900639">
  <ele>343.09</ele>
  <time>2026-09-01T19:50:34Z</time>
  <course>7.86</course>
  <speed>0.0</speed>
  <fix>3d</fix>
</trkpt>
<trkpt lat="-27.274439" lon="151.2900639">
  <ele>343.09</ele>
  <time>2026-09-01T19:50:34Z</time>
  <course>110.58</course>
  <speed>0.0</speed>
  <fix>3d</fix>
</trkpt>
<trkpt lat="-27.274439" lon="151.2900639">
  <ele>343.09</ele>
  <time>2026-09-01T19:50:34Z</time>
  <course>7.86</course>
  <speed>0.0</speed>
  <fix>3d</fix>
</trkpt>
<trkpt lat="-27.274439" lon="151.2900639">
  <ele>343.09</ele>
  <time>2026-09-01T19:50:34Z</time>
  <course>136.42</course>
  <speed>0.0</speed>
  <fix>3d</fix>
</trkpt>
<trkpt lat="-27.274439" lon="151.2900639">
  <ele>343.09</ele>
  <time>2026-09-01T19:50:34Z</time>
  <course>7.86</course>
  <speed>0.0</speed>
  <fix>3d</fix>
</trkpt>
<trkpt lat="-27.274439" lon="151.2900639">
  <ele>343.09</ele>
  <time>2026-09-01T19:50:34Z</time>
  <course>136.42</course>
  <speed>0.0</speed>
  <fix>3d</fix>
</trkpt>
<trkpt lat="-27.274439" lon="151.2900639">
  <ele>343.09</ele>
  <time>2026-09-01T19:50:34Z</time>
  <course>7.86</course>
  <speed>0.0</speed>
  <fix>3d</fix>
</trkpt>
<trkpt lat="-27.274439" lon="151.2900639">
  <ele>343.09</ele>
  <time>2026-09-01T19:50:34Z</time>
  <course>170.36</course>
  <speed>0.0</speed>
  <fix>3d</fix>
</trkpt>
<trkpt lat="-27.274439" lon="151.2900639">
  <ele>343.09</ele>
  <time>2026-09-01T19:50:34Z</time>
  <course>7.86</course>
  <speed>0.0</speed>
  <fix>3d</fix>
</trkpt>
<trkpt lat="-27.274439" lon="151.2900639">
  <ele>343.09</ele>
  <time>2026-09-01T19:50:34Z</time>
  <course>170.36</course>
  <speed>0.0</speed>
  <fix>3d</fix>
</trkpt>
<trkpt lat="-27.274439" lon="151.2900639">
  <ele>343.09</ele>
  <time>2026-09-01T19:50:34Z</time>
  <course>7.86</course>
  <speed>0.0</speed>
  <fix>3d</fix>
</trkpt>
<trkpt lat="-27.274439" lon="151.2900639">
  <ele>343.09</ele>
  <time>2026-09-01T19:50:34Z</time>
  <course>322.31</course>
  <speed>0.0</speed>
  <fix>3d</fix>
</trkpt>
<trkpt lat="-27.274439" lon="151.2900639">
  <ele>343.09</ele>
  <time>2026-09-01T19:50:34Z</time>
  <course>7.86</course>
  <speed>0.0</speed>
  <fix>3d</fix>
</trkpt>
<trkpt lat="-27.274439" lon="151.2900639">
  <ele>343.09</ele>
  <time>2026-09-01T19:50:34Z</time>
  <course>322.31</course>
  <speed>0.0</speed>
  <fix>3d</fix>
</trkpt>
<trkpt lat="-27.274439" lon="151.2900639">
  <ele>343.09</ele>
  <time>2026-09-01T19:50:34Z</time>
  <course>7.86</course>
  <speed>0.0</speed>
  <fix>3d</fix>
</trkpt>
<trkpt lat="-27.274439" lon="151.2900639">
  <ele>343.09</ele>
  <time>2026-09-01T19:50:34Z</time>
  <course>142.58</course>
  <speed>0.0</speed>
  <fix>3d</fix>
</trkpt>
<trkpt lat="-27.274439" lon="151.2900639">
  <ele>343.09</ele>
  <time>2026-09-01T19:50:34Z</time>
  <course>7.86</course>
  <speed>0.0</speed>
  <fix>3d</fix>
</trkpt>
<trkpt lat="-27.274439" lon="151.2900639">
  <ele>343.09</ele>
  <time>2026-09-01T19:50:34Z</time>
  <course>142.58</course>
  <speed>0.0</speed>
  <fix>3d</fix>
</trkpt>
<trkpt lat="-27.274439" lon="151.2900639">
  <ele>343.09</ele>
  <time>2026-09-01T19:50:34Z</time>
  <course>7.86</course>
  <speed>0.0</speed>
  <fix>3d</fix>
</trkpt>
<trkpt lat="-27.274439" lon="151.2900639">
  <ele>343.09</ele>
  <time>2026-09-01T19:50:34Z</time>
  <course>142.89</course>
  <speed>0.0</speed>
  <fix>3d</fix>
</trkpt>
<trkpt lat="-27.274439" lon="151.2900639">
  <ele>343.09</ele>
  <time>2026-09-01T19:50:34Z</time>
  <course>7.86</course>
  <speed>0.0</speed>
  <fix>3d</fix>
</trkpt>
<trkpt lat="-27.274439" lon="151.2900639">
  <ele>343.09</ele>
  <time>2026-09-01T19:50:34Z</time>
  <course>142.89</course>
  <speed>0.0</speed>
  <fix>3d</fix>
</trkpt>
<trkpt lat="-27.274439" lon="151.2900639">
  <ele>343.09</ele>
  <time>2026-09-01T19:50:34Z</time>
  <course>7.86</course>
  <speed>0.0</speed>
  <fix>3d</fix>
</trkpt>
<trkpt lat="-27.274439" lon="151.2900639">
  <ele>343.09</ele>
  <time>2026-09-01T19:50:34Z</time>
  <course>143.07</course>
  <speed>0.0</speed>
  <fix>3d</fix>
</trkpt>
<trkpt lat="-27.274439" lon="151.2900639">
  <ele>343.09</ele>
  <time>2026-09-01T19:50:34Z</time>
  <course>7.86</course>
  <speed>0.0</speed>
  <fix>3d</fix>
</trkpt>
<trkpt lat="-27.274439" lon="151.2900639">
  <ele>343.09</ele>
  <time>2026-09-01T19:50:34Z</time>
  <course>143.07</course>
  <speed>0.0</speed>
  <fix>3d</fix>
</trkpt>
<trkpt lat="-27.274439" lon="151.2900639">
  <ele>343.09</ele>
  <time>2026-09-01T19:50:34Z</time>
  <course>7.86</course>
  <speed>0.0</speed>
  <fix>3d</fix>
</trkpt>
<trkpt lat="-27.274439" lon="151.2900639">
  <ele>343.09</ele>
  <time>2026-09-01T19:50:34Z</time>
  <course>142.92</course>
  <speed>0.0</speed>
  <fix>3d</fix>
</trkpt>
<trkpt lat="-27.274439" lon="151.2900639">
  <ele>343.09</ele>
  <time>2026-09-01T19:50:34Z</time>
  <course>7.86</course>
  <speed>0.0</speed>
  <fix>3d</fix>
</trkpt>
<trkpt lat="-27.274439" lon="151.2900639">
  <ele>343.09</ele>
  <time>2026-09-01T19:50:34Z</time>
  <course>142.92</course>
  <speed>0.0</speed>
  <fix>3d</fix>
</trkpt>
<trkpt lat="-27.274439" lon="151.2900639">
  <ele>343.09</ele>
  <time>2026-09-01T19:50:34Z</time>
  <course>7.86</course>
  <speed>0.0</speed>
  <fix>3d</fix>
</trkpt>
<trkpt lat="-27.274439" lon="151.2900639">
  <ele>343.09</ele>
  <time>2026-09-01T19:50:34Z</time>
  <course>322.69</course>
  <speed>0.0</speed>
  <fix>3d</fix>
</trkpt>
<trkpt lat="-27.274439" lon="151.2900639">
  <ele>343.09</ele>
  <time>2026-09-01T19:50:34Z</time>
  <course>7.86</course>
  <speed>0.0</speed>
  <fix>3d</fix>
</trkpt>
<trkpt lat="-27.274439" lon="151.2900639">
  <ele>343.09</ele>
  <time>2026-09-01T19:50:34Z</time>
  <course>322.69</course>
  <speed>0.0</speed>
  <fix>3d</fix>
</trkpt>
<trkpt lat="-27.274439" lon="151.2900639">
  <ele>343.09</ele>
  <time>2026-09-01T19:50:34Z</time>
  <course>7.86</course>
  <speed>0.0</speed>
  <fix>3d</fix>
</trkpt>
<trkpt lat="-27.274439" lon="151.2900639">
  <ele>343.09</ele>
  <time>2026-09-01T19:50:34Z</time>
  <course>322.68</course>
  <speed>0.0</speed>
  <fix>3d</fix>
</trkpt>
<trkpt lat="-27.274439" lon="151.2900639">
  <ele>343.09</ele>
  <time>2026-09-01T19:50:34Z</time>
  <course>7.86</course>
  <speed>0.0</speed>
  <fix>3d</fix>
</trkpt>
<trkpt lat="-27.274439" lon="151.2900639">
  <ele>343.09</ele>
  <time>2026-09-01T19:50:34Z</time>
  <course>322.68</course>
  <speed>0.0</speed>
  <fix>3d</fix>
</trkpt>
<trkpt lat="-27.274439" lon="151.2900639">
  <ele>343.09</ele>
  <time>2026-09-01T19:50:34Z</time>
  <course>7.86</course>
  <speed>0.0</speed>
  <fix>3d</fix>
</trkpt>
<trkpt lat="-27.274439" lon="151.2900639">
  <ele>343.09</ele>
  <time>2026-09-01T19:50:34Z</time>
  <course>142.94</course>
  <speed>0.0</speed>
  <fix>3d</fix>
</trkpt>
<trkpt lat="-27.274439" lon="151.2900639">
  <ele>343.09</ele>
  <time>2026-09-01T19:50:34Z</time>
  <course>7.86</course>
  <speed>0.0</speed>
  <fix>3d</fix>
</trkpt>
<trkpt lat="-27.274439" lon="151.2900639">
  <ele>343.09</ele>
  <time>2026-09-01T19:50:34Z</time>
  <course>142.94</course>
  <speed>0.0</speed>
  <fix>3d</fix>
</trkpt>
<trkpt lat="-27.274439" lon="151.2900639">
  <ele>343.09</ele>
  <time>2026-09-01T19:50:34Z</time>
  <course>7.86</course>
  <speed>0.0</speed>
  <fix>3d</fix>
</trkpt>
<trkpt lat="-27.274439" lon="151.2900639">
  <ele>343.09</ele>
  <time>2026-09-01T19:50:34Z</time>
  <course>146.9</course>
  <speed>0.0</speed>
  <fix>3d</fix>
</trkpt>
<trkpt lat="-27.274439" lon="151.2900639">
  <ele>343.09</ele>
  <time>2026-09-01T19:50:34Z</time>
  <course>7.86</course>
  <speed>0.0</speed>
  <fix>3d</fix>
</trkpt>
<trkpt lat="-27.274439" lon="151.2900639">
  <ele>343.09</ele>
  <time>2026-09-01T19:50:34Z</time>
  <course>146.9</course>
  <speed>0.0</speed>
  <fix>3d</fix>
</trkpt>
<trkpt lat="-27.274439" lon="151.2900639">
  <ele>343.09</ele>
  <time>2026-09-01T19:50:34Z</time>
  <course>7.86</course>
  <speed>0.0</speed>
  <fix>3d</fix>
</trkpt>
<trkpt lat="-27.274439" lon="151.2900639">
  <ele>343.09</ele>
  <time>2026-09-01T19:50:34Z</time>
  <course>146.11</course>
  <speed>0.0</speed>
  <fix>3d</fix>
</trkpt>
<trkpt lat="-27.274439" lon="151.2900639">
  <ele>343.09</ele>
  <time>2026-09-01T19:50:34Z</time>
  <course>7.86</course>
  <speed>0.0</speed>
  <fix>3d</fix>
</trkpt>
<trkpt lat="-27.274439" lon="151.2900639">
  <ele>343.09</ele>
  <time>2026-09-01T19:50:34Z</time>
  <course>146.11</course>
  <speed>0.0</speed>
  <fix>3d</fix>
</trkpt>
<trkpt lat="-27.274439" lon="151.2900639">
  <ele>343.09</ele>
  <time>2026-09-01T19:50:34Z</time>
  <course>7.86</course>
  <speed>0.0</speed>
  <fix>3d</fix>
</trkpt>
<trkpt lat="-27.274439" lon="151.2900639">
  <ele>343.09</ele>
  <time>2026-09-01T19:50:34Z</time>
  <course>143.3</course>
  <speed>0.0</speed>
  <fix>3d</fix>
</trkpt>
<trkpt lat="-27.274439" lon="151.2900639">
  <ele>343.09</ele>
  <time>2026-09-01T19:50:34Z</time>
  <course>7.86</course>
  <speed>0.0</speed>
  <fix>3d</fix>
</trkpt>
<trkpt lat="-27.274439" lon="151.2900639">
  <ele>343.09</ele>
  <time>2026-09-01T19:50:34Z</time>
  <course>143.3</course>
  <speed>0.0</speed>
  <fix>3d</fix>
</trkpt>
<trkpt lat="-27.274439" lon="151.2900639">
  <ele>343.09</ele>
  <time>2026-09-01T19:50:34Z</time>
  <course>7.86</course>
  <speed>0.0</speed>
  <fix>3d</fix>
</trkpt>
<trkpt lat="-27.274439" lon="151.2900639">
  <ele>343.09</ele>
  <time>2026-09-01T19:50:34Z</time>
  <course>337.98</course>
  <speed>0.0</speed>
  <fix>3d</fix>
</trkpt>
<trkpt lat="-27.274439" lon="151.2900639">
  <ele>343.09</ele>
  <time>2026-09-01T19:50:34Z</time>
  <course>7.86</course>
  <speed>0.0</speed>
  <fix>3d</fix>
</trkpt>
<trkpt lat="-27.274439" lon="151.2900639">
  <ele>343.09</ele>
  <time>2026-09-01T19:50:34Z</time>
  <course>337.98</course>
  <speed>0.0</speed>
  <fix>3d</fix>
</trkpt>
<trkpt lat="-27.274439" lon="151.2900639">
  <ele>343.09</ele>
  <time>2026-09-01T19:50:34Z</time>
  <course>7.86</course>
  <speed>0.0</speed>
  <fix>3d</fix>
</trkpt>
<trkpt lat="-27.274439" lon="151.2900639">
  <ele>343.09</ele>
  <time>2026-09-01T19:50:34Z</time>
  <course>290.25</course>
  <speed>0.0</speed>
  <fix>3d</fix>
</trkpt>
<trkpt lat="-27.274439" lon="151.2900639">
  <ele>343.09</ele>
  <time>2026-09-01T19:50:34Z</time>
  <course>7.86</course>
  <speed>0.0</speed>
  <fix>3d</fix>
</trkpt>
<trkpt lat="-27.274439" lon="151.2900639">
  <ele>343.09</ele>
  <time>2026-09-01T19:50:34Z</time>
  <course>290.25</course>
  <speed>0.0</speed>
  <fix>3d</fix>
</trkpt>
<trkpt lat="-27.274439" lon="151.2900639">
  <ele>343.09</ele>
  <time>2026-09-01T19:50:34Z</time>
  <course>7.86</course>
  <speed>0.0</speed>
  <fix>3d</fix>
</trkpt>
<trkpt lat="-27.274439" lon="151.2900639">
  <ele>343.09</ele>
  <time>2026-09-01T19:50:34Z</time>
  <course>287.14</course>
  <speed>0.0</speed>
  <fix>3d</fix>
</trkpt>
<trkpt lat="-27.274439" lon="151.2900639">
  <ele>343.09</ele>
  <time>2026-09-01T19:50:34Z</time>
  <course>7.86</course>
  <speed>0.0</speed>
  <fix>3d</fix>
</trkpt>
<trkpt lat="-27.274439" lon="151.2900639">
  <ele>343.09</ele>
  <time>2026-09-01T19:50:34Z</time>
  <course>287.14</course>
  <speed>0.0</speed>
  <fix>3d</fix>
</trkpt>
<trkpt lat="-27.274439" lon="151.2900639">
  <ele>343.09</ele>
  <time>2026-09-01T19:50:34Z</time>
  <course>7.86</course>
  <speed>0.0</speed>
  <fix>3d</fix>
</trkpt>
<trkpt lat="-27.274439" lon="151.2900639">
  <ele>343.09</ele>
  <time>2026-09-01T19:50:34Z</time>
  <course>285.92</course>
  <speed>0.0</speed>
  <fix>3d</fix>
</trkpt>
<trkpt lat="-27.274439" lon="151.2900639">
  <ele>343.09</ele>
  <time>2026-09-01T19:50:34Z</time>
  <course>7.86</course>
  <speed>0.0</speed>
  <fix>3d</fix>
</trkpt>
<trkpt lat="-27.274439" lon="151.2900639">
  <ele>343.09</ele>
  <time>2026-09-01T19:50:34Z</time>
  <course>285.92</course>
  <speed>0.0</speed>
  <fix>3d</fix>
</trkpt>
<trkpt lat="-27.274439" lon="151.2900639">
  <ele>343.09</ele>
  <time>2026-09-01T19:50:34Z</time>
  <course>7.86</course>
  <speed>0.0</speed>
  <fix>3d</fix>
</trkpt>
<trkpt lat="-27.274439" lon="151.2900639">
  <ele>343.09</ele>
  <time>2026-09-01T19:50:34Z</time>
  <course>106.92</course>
  <speed>0.0</speed>
  <fix>3d</fix>
</trkpt>
<trkpt lat="-27.274439" lon="151.2900639">
  <ele>343.09</ele>
  <time>2026-09-01T19:50:34Z</time>
  <course>7.86</course>
  <speed>0.0</speed>
  <fix>3d</fix>
</trkpt>
<trkpt lat="-27.274439" lon="151.2900639">
  <ele>343.09</ele>
  <time>2026-09-01T19:50:34Z</time>
  <course>106.92</course>
  <speed>0.0</speed>
  <fix>3d</fix>
</trkpt>
<trkpt lat="-27.274439" lon="151.2900639">
  <ele>343.09</ele>
  <time>2026-09-01T19:50:34Z</time>
  <course>7.86</course>
  <speed>0.0</speed>
  <fix>3d</fix>
</trkpt>
<trkpt lat="-27.274439" lon="151.2900639">
  <ele>343.09</ele>
  <time>2026-09-01T19:50:34Z</time>
  <course>104.53</course>
  <speed>0.0</speed>
  <fix>3d</fix>
</trkpt>
<trkpt lat="-27.274439" lon="151.2900639">
  <ele>343.09</ele>
  <time>2026-09-01T19:50:34Z</time>
  <course>7.86</course>
  <speed>0.0</speed>
  <fix>3d</fix>
</trkpt>
<trkpt lat="-27.274439" lon="151.2900639">
  <ele>343.09</ele>
  <time>2026-09-01T19:50:34Z</time>
  <course>104.53</course>
  <speed>0.0</speed>
  <fix>3d</fix>
</trkpt>
<trkpt lat="-27.274439" lon="151.2900639">
  <ele>343.09</ele>
  <time>2026-09-01T19:50:34Z</time>
  <course>7.86</course>
  <speed>0.0</speed>
  <fix>3d</fix>
</trkpt>
<trkpt lat="-27.274439" lon="151.2900639">
  <ele>343.09</ele>
  <time>2026-09-01T19:50:34Z</time>
  <course>286.75</course>
  <speed>0.0</speed>
  <fix>3d</fix>
</trkpt>
<trkpt lat="-27.274439" lon="151.2900639">
  <ele>343.09</ele>
  <time>2026-09-01T19:50:34Z</time>
  <course>7.86</course>
  <speed>0.0</speed>
  <fix>3d</fix>
</trkpt>
<trkpt lat="-27.274439" lon="151.2900639">
  <ele>343.09</ele>
  <time>2026-09-01T19:50:34Z</time>
  <course>286.75</course>
  <speed>0.0</speed>
  <fix>3d</fix>
</trkpt>
<trkpt lat="-27.274439" lon="151.2900639">
  <ele>343.09</ele>
  <time>2026-09-01T19:50:34Z</time>
  <course>7.86</course>
  <speed>0.0</speed>
  <fix>3d</fix>
</trkpt>
<trkpt lat="-27.274439" lon="151.2900639">
  <ele>343.09</ele>
  <time>2026-09-01T19:50:34Z</time>
  <course>110.91</course>
  <speed>0.0</speed>
  <fix>3d</fix>
</trkpt>
<trkpt lat="-27.274439" lon="151.2900639">
  <ele>343.09</ele>
  <time>2026-09-01T19:50:34Z</time>
  <course>7.86</course>
  <speed>0.0</speed>
  <fix>3d</fix>
</trkpt>
<trkpt lat="-27.274439" lon="151.2900639">
  <ele>343.09</ele>
  <time>2026-09-01T19:50:34Z</time>
  <course>110.91</course>
  <speed>0.0</speed>
  <fix>3d</fix>
</trkpt>
<trkpt lat="-27.2744396" lon="151.290064">
  <ele>343.1</ele>
  <time>2026-09-01T19:50:34Z</time>
  <course>8.0</course>
  <speed>0.0</speed>
  <fix>3d</fix>
</trkpt>
<trkpt lat="-27.2744395" lon="151.290064">
  <ele>343.1</ele>
  <time>2026-09-01T19:50:35Z</time>
  <course>8.0</course>
  <speed>0.1711724276862369</speed>
  <fix>3d</fix>
</trkpt>
<trkpt lat="-27.2744393" lon="151.290064">
  <ele>343.1</ele>
  <time>2026-09-01T19:50:35Z</time>
  <course>8.0</course>
  <speed>0.27166155414412246</speed>
  <fix>3d</fix>
</trkpt>
<trkpt lat="-27.2744391" lon="151.290064">
  <ele>343.1</ele>
  <time>2026-09-01T19:50:35Z</time>
  <course>8.0</course>
  <speed>0.18110770276274835</speed>
  <fix>3d</fix>
</trkpt>
<trkpt lat="-27.274439" lon="151.290064">
  <ele>343.1</ele>
  <time>2026-09-01T19:50:35Z</time>
  <course>8.0</course>
  <speed>0.05</speed>
  <fix>3d</fix>
</trkpt>
<trkpt lat="-27.274439" lon="151.290064">
  <ele>343.1</ele>
  <time>2026-09-01T19:50:35Z</time>
  <course>8.0</course>
  <speed>0.02</speed>
  <fix>3d</fix>
</trkpt>
<trkpt lat="-27.274439" lon="151.290064">
  <ele>343.1</ele>
  <time>2026-09-01T19:50:35Z</time>
  <course>8.0</course>
  <speed>0.03</speed>
  <fix>3d</fix>
</trkpt>
<trkpt lat="-27.274439" lon="151.290064">
  <ele>343.1</ele>
  <time>2026-09-01T19:50:35Z</time>
  <course>8.0</course>
  <speed>0.02</speed>
  <fix>3d</fix>
</trkpt>
<trkpt lat="-27.274439" lon="151.290064">
  <ele>343.1</ele>
  <time>2026-09-01T19:50:35Z</time>
  <course>8.0</course>
  <speed>0.0</speed>
  <fix>3d</fix>
</trkpt>
<trkpt lat="-27.274439" lon="151.290064">
  <ele>343.1</ele>
  <time>2026-09-01T19:50:35Z</time>
  <course>8.0</course>
  <speed>0.0</speed>
  <fix>3d</fix>
</trkpt>
<trkpt lat="-27.274439" lon="151.290064">
  <ele>343.1</ele>
  <time>2026-09-01T19:50:35Z</time>
  <course>8.0</course>
  <speed>0.0</speed>
  <fix>3d</fix>
</trkpt>
<trkpt lat="-27.274439" lon="151.290064">
  <ele>343.1</ele>
  <time>2026-09-01T19:50:35Z</time>
  <course>8.0</course>
  <speed>0.0</speed>
  <fix>3d</fix>
</trkpt>
<trkpt lat="-27.274439" lon="151.290064">
  <ele>343.1</ele>
  <time>2026-09-01T19:50:35Z</time>
  <course>8.0</course>
  <speed>0.0</speed>
  <fix>3d</fix>
</trkpt>
<trkpt lat="-27.274439" lon="151.290064">
  <ele>343.1</ele>
  <time>2026-09-01T19:50:35Z</time>
  <course>8.0</course>
  <speed>0.0</speed>
  <fix>3d</fix>
</trkpt>
<trkpt lat="-27.274439" lon="151.290064">
  <ele>343.1</ele>
  <time>2026-09-01T19:50:35Z</time>
  <course>8.0</course>
  <speed>0.0</speed>
  <fix>3d</fix>
</trkpt>
<trkpt lat="-27.274439" lon="151.290064">
  <ele>343.1</ele>
  <time>2026-09-01T19:50:35Z</time>
  <course>8.0</course>
  <speed>0.0</speed>
  <fix>3d</fix>
</trkpt>
<trkpt lat="-27.274439" lon="151.290064">
  <ele>343.1</ele>
  <time>2026-09-01T19:50:35Z</time>
  <course>8.0</course>
  <speed>0.0</speed>
  <fix>3d</fix>
</trkpt>
<trkpt lat="-27.274439" lon="151.290064">
  <ele>343.1</ele>
  <time>2026-09-01T19:50:35Z</time>
  <course>8.0</course>
  <speed>0.0</speed>
  <fix>3d</fix>
</trkpt>
<trkpt lat="-27.274439" lon="151.290064">
  <ele>343.1</ele>
  <time>2026-09-01T19:50:35Z</time>
  <course>8.0</course>
  <speed>0.0</speed>
  <fix>3d</fix>
</trkpt>
<trkpt lat="-27.274439" lon="151.290064">
  <ele>343.1</ele>
  <time>2026-09-01T19:50:35Z</time>
  <course>8.0</course>
  <speed>0.0</speed>
  <fix>3d</fix>
</trkpt>
<trkpt lat="-27.274439" lon="151.290064">
  <ele>343.1</ele>
  <time>2026-09-01T19:50:35Z</time>
  <course>8.0</course>
  <speed>0.0</speed>
  <fix>3d</fix>
</trkpt>
<trkpt lat="-27.274439" lon="151.290064">
  <ele>343.1</ele>
  <time>2026-09-01T19:50:35Z</time>
  <course>8.0</course>
  <speed>0.0</speed>
  <fix>3d</fix>
</trkpt>
<trkpt lat="-27.274439" lon="151.290064">
  <ele>343.1</ele>
  <time>2026-09-01T19:50:35Z</time>
  <course>8.0</course>
  <speed>0.0</speed>
  <fix>3d</fix>
</trkpt>
<trkpt lat="-27.274439" lon="151.290064">
  <ele>343.1</ele>
  <time>2026-09-01T19:50:35Z</time>
  <course>8.0</course>
  <speed>0.0</speed>
  <fix>3d</fix>
</trkpt>
<trkpt lat="-27.274439" lon="151.290064">
  <ele>343.1</ele>
  <time>2026-09-01T19:50:35Z</time>
  <course>8.0</course>
  <speed>0.0</speed>
  <fix>3d</fix>
</trkpt>
<trkpt lat="-27.274439" lon="151.290064">
  <ele>343.1</ele>
  <time>2026-09-01T19:50:35Z</time>
  <course>8.0</course>
  <speed>0.0</speed>
  <fix>3d</fix>
</trkpt>
<trkpt lat="-27.274439" lon="151.290064">
  <ele>343.1</ele>
  <time>2026-09-01T19:50:35Z</time>
  <course>8.0</course>
  <speed>0.0</speed>
  <fix>3d</fix>
</trkpt>
<trkpt lat="-27.274439" lon="151.290064">
  <ele>343.1</ele>
  <time>2026-09-01T19:50:35Z</time>
  <course>8.0</course>
  <speed>0.0</speed>
  <fix>3d</fix>
</trkpt>
<trkpt lat="-27.274439" lon="151.290064">
  <ele>343.1</ele>
  <time>2026-09-01T19:50:35Z</time>
  <course>8.0</course>
  <speed>0.0</speed>
  <fix>3d</fix>
</trkpt>
<trkpt lat="-27.274439" lon="151.290064">
  <ele>343.1</ele>
  <time>2026-09-01T19:50:35Z</time>
  <course>8.0</course>
  <speed>0.0</speed>
  <fix>3d</fix>
</trkpt>
<trkpt lat="-27.274439" lon="151.290064">
  <ele>343.1</ele>
  <time>2026-09-01T19:50:35Z</time>
  <course>8.0</course>
  <speed>0.0</speed>
  <fix>3d</fix>
</trkpt>
<trkpt lat="-27.274439" lon="151.290064">
  <ele>343.1</ele>
  <time>2026-09-01T19:50:35Z</time>
  <course>8.0</course>
  <speed>0.0</speed>
  <fix>3d</fix>
</trkpt>
<trkpt lat="-27.274439" lon="151.290064">
  <ele>343.1</ele>
  <time>2026-09-01T19:50:35Z</time>
  <course>8.0</course>
  <speed>0.0</speed>
  <fix>3d</fix>
</trkpt>
<trkpt lat="-27.274439" lon="151.290064">
  <ele>343.1</ele>
  <time>2026-09-01T19:50:35Z</time>
  <course>8.0</course>
  <speed>0.0</speed>
  <fix>3d</fix>
</trkpt>
<trkpt lat="-27.274439" lon="151.290064">
  <ele>343.1</ele>
  <time>2026-09-01T19:50:35Z</time>
  <course>8.0</course>
  <speed>0.0</speed>
  <fix>3d</fix>
</trkpt>
<trkpt lat="-27.274439" lon="151.290064">
  <ele>343.1</ele>
  <time>2026-09-01T19:50:35Z</time>
  <course>8.0</course>
  <speed>0.0</speed>
  <fix>3d</fix>
</trkpt>
<trkpt lat="-27.274439" lon="151.290064">
  <ele>343.1</ele>
  <time>2026-09-01T19:50:35Z</time>
  <course>8.0</course>
  <speed>0.0</speed>
  <fix>3d</fix>
</trkpt>
<trkpt lat="-27.274439" lon="151.290064">
  <ele>343.1</ele>
  <time>2026-09-01T19:50:35Z</time>
  <course>8.0</course>
  <speed>0.0</speed>
  <fix>3d</fix>
</trkpt>
<trkpt lat="-27.274439" lon="151.290064">
  <ele>343.1</ele>
  <time>2026-09-01T19:50:35Z</time>
  <course>8.0</course>
  <speed>0.0</speed>
  <fix>3d</fix>
</trkpt>
<trkpt lat="-27.274439" lon="151.290064">
  <ele>343.1</ele>
  <time>2026-09-01T19:50:35Z</time>
  <course>8.0</course>
  <speed>0.0</speed>
  <fix>3d</fix>
</trkpt>
<trkpt lat="-27.274439" lon="151.290064">
  <ele>343.1</ele>
  <time>2026-09-01T19:50:35Z</time>
  <course>8.0</course>
  <speed>0.0</speed>
  <fix>3d</fix>
</trkpt>
<trkpt lat="-27.274439" lon="151.290064">
  <ele>343.1</ele>
  <time>2026-09-01T19:50:35Z</time>
  <course>8.0</course>
  <speed>0.0</speed>
  <fix>3d</fix>
</trkpt>
<trkpt lat="-27.274439" lon="151.290064">
  <ele>343.1</ele>
  <time>2026-09-01T19:50:35Z</time>
  <course>8.0</course>
  <speed>0.0</speed>
  <fix>3d</fix>
</trkpt>
<trkpt lat="-27.274439" lon="151.290064">
  <ele>343.1</ele>
  <time>2026-09-01T19:50:35Z</time>
  <course>8.0</course>
  <speed>0.0</speed>
  <fix>3d</fix>
</trkpt>
<trkpt lat="-27.274439" lon="151.290064">
  <ele>343.1</ele>
  <time>2026-09-01T19:50:35Z</time>
  <course>8.0</course>
  <speed>0.0</speed>
  <fix>3d</fix>
</trkpt>
<trkpt lat="-27.274439" lon="151.290064">
  <ele>343.1</ele>
  <time>2026-09-01T19:50:35Z</time>
  <course>8.0</course>
  <speed>0.0</speed>
  <fix>3d</fix>
</trkpt>
<trkpt lat="-27.274439" lon="151.290064">
  <ele>343.1</ele>
  <time>2026-09-01T19:50:35Z</time>
  <course>8.0</course>
  <speed>0.0</speed>
  <fix>3d</fix>
</trkpt>
<trkpt lat="-27.274439" lon="151.290064">
  <ele>343.1</ele>
  <time>2026-09-01T19:50:35Z</time>
  <course>8.0</course>
  <speed>0.0</speed>
  <fix>3d</fix>
</trkpt>
<trkpt lat="-27.274439" lon="151.290064">
  <ele>343.1</ele>
  <time>2026-09-01T19:50:35Z</time>
  <course>8.0</course>
  <speed>0.0</speed>
  <fix>3d</fix>
</trkpt>
<trkpt lat="-27.274439" lon="151.290064">
  <ele>343.1</ele>
  <time>2026-09-01T19:50:35Z</time>
  <course>8.0</course>
  <speed>0.0</speed>
  <fix>3d</fix>
</trkpt>
<trkpt lat="-27.274439" lon="151.290064">
  <ele>343.1</ele>
  <time>2026-09-01T19:50:35Z</time>
  <course>8.0</course>
  <speed>0.0</speed>
  <fix>3d</fix>
</trkpt>
<trkpt lat="-27.274439" lon="151.290064">
  <ele>343.1</ele>
  <time>2026-09-01T19:50:35Z</time>
  <course>8.0</course>
  <speed>0.0</speed>
  <fix>3d</fix>
</trkpt>
<trkpt lat="-27.274439" lon="151.290064">
  <ele>343.1</ele>
  <time>2026-09-01T19:50:35Z</time>
  <course>8.0</course>
  <speed>0.0</speed>
  <fix>3d</fix>
</trkpt>
<trkpt lat="-27.274439" lon="151.290064">
  <ele>343.1</ele>
  <time>2026-09-01T19:50:35Z</time>
  <course>8.0</course>
  <speed>0.0</speed>
  <fix>3d</fix>
</trkpt>
<trkpt lat="-27.274439" lon="151.290064">
  <ele>343.1</ele>
  <time>2026-09-01T19:50:35Z</time>
  <course>8.0</course>
  <speed>0.0</speed>
  <fix>3d</fix>
</trkpt>
<trkpt lat="-26.9720619" lon="149.6127921">
  <ele>339.29</ele>
  <time>2026-09-01T19:50:35Z</time>
  <course>310.27</course>
  <speed>0.0</speed>
  <fix>3d</fix>
</trkpt>
<trkpt lat="-27.274439" lon="151.290064">
  <ele>343.1</ele>
  <time>2026-09-01T19:50:35Z</time>
  <course>8.0</course>
  <speed>0.0</speed>
  <fix>3d</fix>
</trkpt>
<trkpt lat="-26.9720619" lon="149.6127921">
  <ele>339.29</ele>
  <time>2026-09-01T19:50:35Z</time>
  <course>310.27</course>
  <speed>0.0</speed>
  <fix>3d</fix>
</trkpt>
<trkpt lat="-27.274439" lon="151.290064">
  <ele>343.1</ele>
  <time>2026-09-01T19:50:35Z</time>
  <course>8.0</course>
  <speed>0.0</speed>
  <fix>3d</fix>
</trkpt>
<trkpt lat="-27.274439" lon="151.290064">
  <ele>343.1</ele>
  <time>2026-09-01T19:50:35Z</time>
  <course>294.58</course>
  <speed>0.0</speed>
  <fix>3d</fix>
</trkpt>
<trkpt lat="-27.274439" lon="151.290064">
  <ele>343.1</ele>
  <time>2026-09-01T19:50:35Z</time>
  <course>8.0</course>
  <speed>0.0</speed>
  <fix>3d</fix>
</trkpt>
<trkpt lat="-27.274439" lon="151.290064">
  <ele>343.1</ele>
  <time>2026-09-01T19:50:35Z</time>
  <course>294.58</course>
  <speed>0.0</speed>
  <fix>3d</fix>
</trkpt>
<trkpt lat="-27.274439" lon="151.290064">
  <ele>343.1</ele>
  <time>2026-09-01T19:50:35Z</time>
  <course>8.0</course>
  <speed>0.0</speed>
  <fix>3d</fix>
</trkpt>
<trkpt lat="-27.274439" lon="151.290064">
  <ele>343.1</ele>
  <time>2026-09-01T19:50:35Z</time>
  <course>273.33</course>
  <speed>0.0</speed>
  <fix>3d</fix>
</trkpt>
<trkpt lat="-27.274439" lon="151.290064">
  <ele>343.1</ele>
  <time>2026-09-01T19:50:35Z</time>
  <course>8.0</course>
  <speed>0.0</speed>
  <fix>3d</fix>
</trkpt>
<trkpt lat="-27.274439" lon="151.290064">
  <ele>343.1</ele>
  <time>2026-09-01T19:50:35Z</time>
  <course>273.33</course>
  <speed>0.0</speed>
  <fix>3d</fix>
</trkpt>
<trkpt lat="-27.274439" lon="151.290064">
  <ele>343.1</ele>
  <time>2026-09-01T19:50:35Z</time>
  <course>8.0</course>
  <speed>0.0</speed>
  <fix>3d</fix>
</trkpt>
<trkpt lat="-27.274439" lon="151.290064">
  <ele>343.1</ele>
  <time>2026-09-01T19:50:35Z</time>
  <course>270.44</course>
  <speed>0.0</speed>
  <fix>3d</fix>
</trkpt>
<trkpt lat="-27.274439" lon="151.290064">
  <ele>343.1</ele>
  <time>2026-09-01T19:50:35Z</time>
  <course>8.0</course>
  <speed>0.0</speed>
  <fix>3d</fix>
</trkpt>
<trkpt lat="-27.274439" lon="151.290064">
  <ele>343.1</ele>
  <time>2026-09-01T19:50:35Z</time>
  <course>270.44</course>
  <speed>0.0</speed>
  <fix>3d</fix>
</trkpt>
<trkpt lat="-27.274439" lon="151.290064">
  <ele>343.1</ele>
  <time>2026-09-01T19:50:35Z</time>
  <course>8.0</course>
  <speed>0.0</speed>
  <fix>3d</fix>
</trkpt>
<trkpt lat="-27.274439" lon="151.290064">
  <ele>343.1</ele>
  <time>2026-09-01T19:50:35Z</time>
  <course>270.05</course>
  <speed>0.0</speed>
  <fix>3d</fix>
</trkpt>
<trkpt lat="-27.274439" lon="151.290064">
  <ele>343.1</ele>
  <time>2026-09-01T19:50:35Z</time>
  <course>8.0</course>
  <speed>0.0</speed>
  <fix>3d</fix>
</trkpt>
<trkpt lat="-27.274439" lon="151.290064">
  <ele>343.1</ele>
  <time>2026-09-01T19:50:35Z</time>
  <course>270.05</course>
  <speed>0.0</speed>
  <fix>3d</fix>
</trkpt>
<trkpt lat="-27.274439" lon="151.290064">
  <ele>343.1</ele>
  <time>2026-09-01T19:50:35Z</time>
  <course>8.0</course>
  <speed>0.0</speed>
  <fix>3d</fix>
</trkpt>
<trkpt lat="-27.274439" lon="151.290064">
  <ele>343.1</ele>
  <time>2026-09-01T19:50:35Z</time>
  <course>270.0</course>
  <speed>0.0</speed>
  <fix>3d</fix>
</trkpt>
<trkpt lat="-27.274439" lon="151.290064">
  <ele>343.1</ele>
  <time>2026-09-01T19:50:35Z</time>
  <course>8.0</course>
  <speed>0.0</speed>
  <fix>3d</fix>
</trkpt>
<trkpt lat="-27.274439" lon="151.290064">
  <ele>343.1</ele>
  <time>2026-09-01T19:50:35Z</time>
  <course>270.0</course>
  <speed>0.0</speed>
  <fix>3d</fix>
</trkpt>
<trkpt lat="-27.274439" lon="151.290064">
  <ele>343.1</ele>
  <time>2026-09-01T19:50:35Z</time>
  <course>8.0</course>
  <speed>0.0</speed>
  <fix>3d</fix>
</trkpt>
<trkpt lat="-27.274439" lon="151.290064">
  <ele>343.1</ele>
  <time>2026-09-01T19:50:35Z</time>
  <course>270.0</course>
  <speed>0.0</speed>
  <fix>3d</fix>
</trkpt>
<trkpt lat="-27.274439" lon="151.290064">
  <ele>343.1</ele>
  <time>2026-09-01T19:50:35Z</time>
  <course>8.0</course>
  <speed>0.0</speed>
  <fix>3d</fix>
</trkpt>
<trkpt lat="-27.274439" lon="151.290064">
  <ele>343.1</ele>
  <time>2026-09-01T19:50:35Z</time>
  <course>270.0</course>
  <speed>0.0</speed>
  <fix>3d</fix>
</trkpt>
<trkpt lat="-27.274439" lon="151.290064">
  <ele>343.1</ele>
  <time>2026-09-01T19:50:35Z</time>
  <course>8.0</course>
  <speed>0.0</speed>
  <fix>3d</fix>
</trkpt>
<trkpt lat="-27.274439" lon="151.290064">
  <ele>343.1</ele>
  <time>2026-09-01T19:50:35Z</time>
  <course>270.0</course>
  <speed>0.0</speed>
  <fix>3d</fix>
</trkpt>
<trkpt lat="-27.274439" lon="151.290064">
  <ele>343.1</ele>
  <time>2026-09-01T19:50:35Z</time>
  <course>8.0</course>
  <speed>0.0</speed>
  <fix>3d</fix>
</trkpt>
<trkpt lat="-27.274439" lon="151.290064">
  <ele>343.1</ele>
  <time>2026-09-01T19:50:35Z</time>
  <course>270.0</course>
  <speed>0.0</speed>
  <fix>3d</fix>
</trkpt>
<trkpt lat="-27.274439" lon="151.290064">
  <ele>343.1</ele>
  <time>2026-09-01T19:50:35Z</time>
  <course>8.0</course>
  <speed>0.0</speed>
  <fix>3d</fix>
</trkpt>
<trkpt lat="-27.274439" lon="151.290064">
  <ele>343.1</ele>
  <time>2026-09-01T19:50:35Z</time>
  <course>270.0</course>
  <speed>0.0</speed>
  <fix>3d</fix>
</trkpt>
<trkpt lat="-27.274439" lon="151.290064">
  <ele>343.1</ele>
  <time>2026-09-01T19:50:35Z</time>
  <course>8.0</course>
  <speed>0.0</speed>
  <fix>3d</fix>
</trkpt>
<trkpt lat="-27.274439" lon="151.290064">
  <ele>343.1</ele>
  <time>2026-09-01T19:50:35Z</time>
  <course>270.0</course>
  <speed>0.0</speed>
  <fix>3d</fix>
</trkpt>
<trkpt lat="-27.274439" lon="151.290064">
  <ele>343.1</ele>
  <time>2026-09-01T19:50:35Z</time>
  <course>8.0</course>
  <speed>0.0</speed>
  <fix>3d</fix>
</trkpt>
<trkpt lat="-27.274439" lon="151.290064">
  <ele>343.1</ele>
  <time>2026-09-01T19:50:35Z</time>
  <course>270.0</course>
  <speed>0.0</speed>
  <fix>3d</fix>
</trkpt>
<trkpt lat="-27.274439" lon="151.290064">
  <ele>343.1</ele>
  <time>2026-09-01T19:50:35Z</time>
  <course>8.0</course>
  <speed>0.0</speed>
  <fix>3d</fix>
</trkpt>
<trkpt lat="-27.274439" lon="151.290064">
  <ele>343.1</ele>
  <time>2026-09-01T19:50:35Z</time>
  <course>270.0</course>
  <speed>0.0</speed>
  <fix>3d</fix>
</trkpt>
<trkpt lat="-27.274439" lon="151.290064">
  <ele>343.1</ele>
  <time>2026-09-01T19:50:35Z</time>
  <course>8.0</course>
  <speed>0.0</speed>
  <fix>3d</fix>
</trkpt>
<trkpt lat="-27.274439" lon="151.290064">
  <ele>343.1</ele>
  <time>2026-09-01T19:50:35Z</time>
  <course>270.0</course>
  <speed>0.0</speed>
  <fix>3d</fix>
</trkpt>
<trkpt lat="-27.274439" lon="151.290064">
  <ele>343.1</ele>
  <time>2026-09-01T19:50:35Z</time>
  <course>8.0</course>
  <speed>0.0</speed>
  <fix>3d</fix>
</trkpt>
<trkpt lat="-27.274439" lon="151.290064">
  <ele>343.1</ele>
  <time>2026-09-01T19:50:35Z</time>
  <course>270.0</course>
  <speed>0.0</speed>
  <fix>3d</fix>
</trkpt>
<trkpt lat="-27.274439" lon="151.290064">
  <ele>343.1</ele>
  <time>2026-09-01T19:50:35Z</time>
  <course>8.0</course>
  <speed>0.0</speed>
  <fix>3d</fix>
</trkpt>
<trkpt lat="-27.274439" lon="151.290064">
  <ele>343.1</ele>
  <time>2026-09-01T19:50:35Z</time>
  <course>270.0</course>
  <speed>0.0</speed>
  <fix>3d</fix>
</trkpt>
<trkpt lat="-27.274439" lon="151.290064">
  <ele>343.1</ele>
  <time>2026-09-01T19:50:35Z</time>
  <course>8.0</course>
  <speed>0.0</speed>
  <fix>3d</fix>
</trkpt>
<trkpt lat="-27.274439" lon="151.290064">
  <ele>343.1</ele>
  <time>2026-09-01T19:50:35Z</time>
  <course>270.0</course>
  <speed>0.0</speed>
  <fix>3d</fix>
</trkpt>
<trkpt lat="-27.274439" lon="151.290064">
  <ele>343.1</ele>
  <time>2026-09-01T19:50:35Z</time>
  <course>8.0</course>
  <speed>0.0</speed>
  <fix>3d</fix>
</trkpt>
<trkpt lat="-27.274439" lon="151.290064">
  <ele>343.1</ele>
  <time>2026-09-01T19:50:35Z</time>
  <course>270.0</course>
  <speed>0.0</speed>
  <fix>3d</fix>
</trkpt>
<trkpt lat="-27.274439" lon="151.290064">
  <ele>343.1</ele>
  <time>2026-09-01T19:50:35Z</time>
  <course>8.0</course>
  <speed>0.0</speed>
  <fix>3d</fix>
</trkpt>
<trkpt lat="-27.274439" lon="151.290064">
  <ele>343.1</ele>
  <time>2026-09-01T19:50:35Z</time>
  <course>270.0</course>
  <speed>0.0</speed>
  <fix>3d</fix>
</trkpt>
<trkpt lat="-27.274439" lon="151.290064">
  <ele>343.1</ele>
  <time>2026-09-01T19:50:35Z</time>
  <course>8.0</course>
  <speed>0.0</speed>
  <fix>3d</fix>
</trkpt>
<trkpt lat="-27.274439" lon="151.290064">
  <ele>343.1</ele>
  <time>2026-09-01T19:50:35Z</time>
  <course>270.0</course>
  <speed>0.0</speed>
  <fix>3d</fix>
</trkpt>
<trkpt lat="-27.274439" lon="151.290064">
  <ele>343.1</ele>
  <time>2026-09-01T19:50:35Z</time>
  <course>8.0</course>
  <speed>0.0</speed>
  <fix>3d</fix>
</trkpt>
<trkpt lat="-27.274439" lon="151.290064">
  <ele>343.1</ele>
  <time>2026-09-01T19:50:35Z</time>
  <course>270.0</course>
  <speed>0.0</speed>
  <fix>3d</fix>
</trkpt>
<trkpt lat="-27.274439" lon="151.290064">
  <ele>343.1</ele>
  <time>2026-09-01T19:50:35Z</time>
  <course>8.0</course>
  <speed>0.0</speed>
  <fix>3d</fix>
</trkpt>
<trkpt lat="-27.274439" lon="151.290064">
  <ele>343.1</ele>
  <time>2026-09-01T19:50:35Z</time>
  <course>270.0</course>
  <speed>0.0</speed>
  <fix>3d</fix>
</trkpt>
<trkpt lat="-27.274439" lon="151.290064">
  <ele>343.1</ele>
  <time>2026-09-01T19:50:35Z</time>
  <course>8.0</course>
  <speed>0.0</speed>
  <fix>3d</fix>
</trkpt>
<trkpt lat="-27.274439" lon="151.290064">
  <ele>343.1</ele>
  <time>2026-09-01T19:50:35Z</time>
  <course>270.0</course>
  <speed>0.0</speed>
  <fix>3d</fix>
</trkpt>
<trkpt lat="-27.274439" lon="151.290064">
  <ele>343.1</ele>
  <time>2026-09-01T19:50:35Z</time>
  <course>8.0</course>
  <speed>0.0</speed>
  <fix>3d</fix>
</trkpt>
<trkpt lat="-27.274439" lon="151.290064">
  <ele>343.1</ele>
  <time>2026-09-01T19:50:35Z</time>
  <course>270.0</course>
  <speed>0.0</speed>
  <fix>3d</fix>
</trkpt>
<trkpt lat="-27.274439" lon="151.290064">
  <ele>343.1</ele>
  <time>2026-09-01T19:50:35Z</time>
  <course>8.0</course>
  <speed>0.0</speed>
  <fix>3d</fix>
</trkpt>
<trkpt lat="-27.274439" lon="151.290064">
  <ele>343.1</ele>
  <time>2026-09-01T19:50:35Z</time>
  <course>270.0</course>
  <speed>0.0</speed>
  <fix>3d</fix>
</trkpt>
<trkpt lat="-27.274439" lon="151.290064">
  <ele>343.1</ele>
  <time>2026-09-01T19:50:35Z</time>
  <course>8.0</course>
  <speed>0.0</speed>
  <fix>3d</fix>
</trkpt>
<trkpt lat="-27.274439" lon="151.290064">
  <ele>343.1</ele>
  <time>2026-09-01T19:50:35Z</time>
  <course>270.0</course>
  <speed>0.0</speed>
  <fix>3d</fix>
</trkpt>
<trkpt lat="-27.274439" lon="151.290064">
  <ele>343.1</ele>
  <time>2026-09-01T19:50:35Z</time>
  <course>8.0</course>
  <speed>0.0</speed>
  <fix>3d</fix>
</trkpt>
<trkpt lat="-27.274439" lon="151.290064">
  <ele>343.1</ele>
  <time>2026-09-01T19:50:35Z</time>
  <course>270.0</course>
  <speed>0.0</speed>
  <fix>3d</fix>
</trkpt>
<trkpt lat="-27.274439" lon="151.290064">
  <ele>343.1</ele>
  <time>2026-09-01T19:50:35Z</time>
  <course>8.0</course>
  <speed>0.0</speed>
  <fix>3d</fix>
</trkpt>
<trkpt lat="-27.274439" lon="151.290064">
  <ele>343.1</ele>
  <time>2026-09-01T19:50:35Z</time>
  <course>270.0</course>
  <speed>0.0</speed>
  <fix>3d</fix>
</trkpt>
<trkpt lat="-27.274439" lon="151.290064">
  <ele>343.1</ele>
  <time>2026-09-01T19:50:35Z</time>
  <course>8.0</course>
  <speed>0.0</speed>
  <fix>3d</fix>
</trkpt>
<trkpt lat="-27.274439" lon="151.290064">
  <ele>343.1</ele>
  <time>2026-09-01T19:50:35Z</time>
  <course>270.0</course>
  <speed>0.0</speed>
  <fix>3d</fix>
</trkpt>
<trkpt lat="-27.274439" lon="151.290064">
  <ele>343.1</ele>
  <time>2026-09-01T19:50:35Z</time>
  <course>8.0</course>
  <speed>0.0</speed>
  <fix>3d</fix>
</trkpt>
<trkpt lat="-27.274439" lon="151.290064">
  <ele>343.1</ele>
  <time>2026-09-01T19:50:35Z</time>
  <course>270.0</course>
  <speed>0.0</speed>
  <fix>3d</fix>
</trkpt>
<trkpt lat="-27.274439" lon="151.290064">
  <ele>343.1</ele>
  <time>2026-09-01T19:50:35Z</time>
  <course>8.0</course>
  <speed>0.0</speed>
  <fix>3d</fix>
</trkpt>
<trkpt lat="-27.274439" lon="151.290064">
  <ele>343.1</ele>
  <time>2026-09-01T19:50:35Z</time>
  <course>270.0</course>
  <speed>0.0</speed>
  <fix>3d</fix>
</trkpt>
<trkpt lat="-27.274439" lon="151.290064">
  <ele>343.1</ele>
  <time>2026-09-01T19:50:35Z</time>
  <course>8.0</course>
  <speed>0.0</speed>
  <fix>3d</fix>
</trkpt>
<trkpt lat="-27.274439" lon="151.290064">
  <ele>343.1</ele>
  <time>2026-09-01T19:50:35Z</time>
  <course>270.0</course>
  <speed>0.0</speed>
  <fix>3d</fix>
</trkpt>
<trkpt lat="-27.274439" lon="151.290064">
  <ele>343.1</ele>
  <time>2026-09-01T19:50:35Z</time>
  <course>8.0</course>
  <speed>0.0</speed>
  <fix>3d</fix>
</trkpt>
<trkpt lat="-27.274439" lon="151.290064">
  <ele>343.1</ele>
  <time>2026-09-01T19:50:35Z</time>
  <course>270.0</course>
  <speed>0.0</speed>
  <fix>3d</fix>
</trkpt>
<trkpt lat="-27.274439" lon="151.290064">
  <ele>343.1</ele>
  <time>2026-09-01T19:50:35Z</time>
  <course>8.0</course>
  <speed>0.0</speed>
  <fix>3d</fix>
</trkpt>
<trkpt lat="-27.274439" lon="151.290064">
  <ele>343.1</ele>
  <time>2026-09-01T19:50:35Z</time>
  <course>270.0</course>
  <speed>0.0</speed>
  <fix>3d</fix>
</trkpt>
<trkpt lat="-27.274439" lon="151.290064">
  <ele>343.1</ele>
  <time>2026-09-01T19:50:35Z</time>
  <course>8.0</course>
  <speed>0.0</speed>
  <fix>3d</fix>
</trkpt>
<trkpt lat="-27.274439" lon="151.290064">
  <ele>343.1</ele>
  <time>2026-09-01T19:50:35Z</time>
  <course>270.0</course>
  <speed>0.0</speed>
  <fix>3d</fix>
</trkpt>
<trkpt lat="-27.274439" lon="151.290064">
  <ele>343.1</ele>
  <time>2026-09-01T19:50:35Z</time>
  <course>8.0</course>
  <speed>0.0</speed>
  <fix>3d</fix>
</trkpt>
<trkpt lat="-27.274439" lon="151.290064">
  <ele>343.1</ele>
  <time>2026-09-01T19:50:35Z</time>
  <course>270.0</course>
  <speed>0.0</speed>
  <fix>3d</fix>
</trkpt>
<trkpt lat="-27.274439" lon="151.290064">
  <ele>343.1</ele>
  <time>2026-09-01T19:50:35Z</time>
  <course>8.0</course>
  <speed>0.0</speed>
  <fix>3d</fix>
</trkpt>
<trkpt lat="-27.274439" lon="151.290064">
  <ele>343.1</ele>
  <time>2026-09-01T19:50:35Z</time>
  <course>270.0</course>
  <speed>0.0</speed>
  <fix>3d</fix>
</trkpt>
<trkpt lat="-27.274439" lon="151.290064">
  <ele>343.1</ele>
  <time>2026-09-01T19:50:35Z</time>
  <course>8.0</course>
  <speed>0.0</speed>
  <fix>3d</fix>
</trkpt>
<trkpt lat="-27.274439" lon="151.290064">
  <ele>343.1</ele>
  <time>2026-09-01T19:50:35Z</time>
  <course>270.0</course>
  <speed>0.0</speed>
  <fix>3d</fix>
</trkpt>
<trkpt lat="-27.274439" lon="151.290064">
  <ele>343.1</ele>
  <time>2026-09-01T19:50:35Z</time>
  <course>8.0</course>
  <speed>0.0</speed>
  <fix>3d</fix>
</trkpt>
<trkpt lat="-27.274439" lon="151.290064">
  <ele>343.1</ele>
  <time>2026-09-01T19:50:35Z</time>
  <course>270.0</course>
  <speed>0.0</speed>
  <fix>3d</fix>
</trkpt>
<trkpt lat="-27.274439" lon="151.290064">
  <ele>343.1</ele>
  <time>2026-09-01T19:50:35Z</time>
  <course>8.0</course>
  <speed>0.0</speed>
  <fix>3d</fix>
</trkpt>
<trkpt lat="-27.274439" lon="151.290064">
  <ele>343.1</ele>
  <time>2026-09-01T19:50:35Z</time>
  <course>270.0</course>
  <speed>0.0</speed>
  <fix>3d</fix>
</trkpt>
<trkpt lat="-27.274439" lon="151.290064">
  <ele>343.1</ele>
  <time>2026-09-01T19:50:35Z</time>
  <course>8.0</course>
  <speed>0.0</speed>
  <fix>3d</fix>
</trkpt>
<trkpt lat="-27.274439" lon="151.290064">
  <ele>343.1</ele>
  <time>2026-09-01T19:50:35Z</time>
  <course>270.0</course>
  <speed>0.0</speed>
  <fix>3d</fix>
</trkpt>
<trkpt lat="-27.274439" lon="151.290064">
  <ele>343.1</ele>
  <time>2026-09-01T19:50:35Z</time>
  <course>8.0</course>
  <speed>0.0</speed>
  <fix>3d</fix>
</trkpt>
<trkpt lat="-27.274439" lon="151.290064">
  <ele>343.1</ele>
  <time>2026-09-01T19:50:35Z</time>
  <course>270.0</course>
  <speed>0.0</speed>
  <fix>3d</fix>
</trkpt>
<trkpt lat="-27.274439" lon="151.290064">
  <ele>343.1</ele>
  <time>2026-09-01T19:50:35Z</time>
  <course>8.0</course>
  <speed>0.0</speed>
  <fix>3d</fix>
</trkpt>
<trkpt lat="-27.274439" lon="151.290064">
  <ele>343.1</ele>
  <time>2026-09-01T19:50:35Z</time>
  <course>270.0</course>
  <speed>0.0</speed>
  <fix>3d</fix>
</trkpt>
<trkpt lat="-27.274439" lon="151.290064">
  <ele>343.1</ele>
  <time>2026-09-01T19:50:35Z</time>
  <course>8.0</course>
  <speed>0.0</speed>
  <fix>3d</fix>
</trkpt>
<trkpt lat="-27.274439" lon="151.290064">
  <ele>343.1</ele>
  <time>2026-09-01T19:50:35Z</time>
  <course>270.0</course>
  <speed>0.0</speed>
  <fix>3d</fix>
</trkpt>
<trkpt lat="-27.274439" lon="151.290064">
  <ele>343.1</ele>
  <time>2026-09-01T19:50:36Z</time>
  <course>8.0</course>
  <speed>0.0</speed>
  <fix>3d</fix>
</trkpt>
<trkpt lat="-27.274439" lon="151.290064">
  <ele>343.1</ele>
  <time>2026-09-01T19:50:36Z</time>
  <course>270.0</course>
  <speed>0.0</speed>
  <fix>3d</fix>
</trkpt>
<trkpt lat="-27.274439" lon="151.290064">
  <ele>343.1</ele>
  <time>2026-09-01T19:50:36Z</time>
  <course>8.0</course>
  <speed>0.0</speed>
  <fix>3d</fix>
</trkpt>
<trkpt lat="-27.274439" lon="151.290064">
  <ele>343.1</ele>
  <time>2026-09-01T19:50:36Z</time>
  <course>270.0</course>
  <speed>0.0</speed>
  <fix>3d</fix>
</trkpt>
<trkpt lat="-27.274439" lon="151.290064">
  <ele>343.1</ele>
  <time>2026-09-01T19:50:36Z</time>
  <course>8.0</course>
  <speed>0.0</speed>
  <fix>3d</fix>
</trkpt>
<trkpt lat="-27.274439" lon="151.290064">
  <ele>343.1</ele>
  <time>2026-09-01T19:50:36Z</time>
  <course>270.0</course>
  <speed>0.0</speed>
  <fix>3d</fix>
</trkpt>
<trkpt lat="-27.274439" lon="151.290064">
  <ele>343.1</ele>
  <time>2026-09-01T19:50:36Z</time>
  <course>8.0</course>
  <speed>0.0</speed>
  <fix>3d</fix>
</trkpt>
<trkpt lat="-27.274439" lon="151.290064">
  <ele>343.1</ele>
  <time>2026-09-01T19:50:36Z</time>
  <course>270.0</course>
  <speed>0.0</speed>
  <fix>3d</fix>
</trkpt>
<trkpt lat="-27.274439" lon="151.290064">
  <ele>343.1</ele>
  <time>2026-09-01T19:50:36Z</time>
  <course>8.0</course>
  <speed>0.0</speed>
  <fix>3d</fix>
</trkpt>
<trkpt lat="-27.274439" lon="151.290064">
  <ele>343.1</ele>
  <time>2026-09-01T19:50:36Z</time>
  <course>270.0</course>
  <speed>0.0</speed>
  <fix>3d</fix>
</trkpt>
<trkpt lat="-27.274439" lon="151.290064">
  <ele>343.1</ele>
  <time>2026-09-01T19:50:36Z</time>
  <course>8.0</course>
  <speed>0.0</speed>
  <fix>3d</fix>
</trkpt>
<trkpt lat="-27.274439" lon="151.290064">
  <ele>343.1</ele>
  <time>2026-09-01T19:50:36Z</time>
  <course>270.0</course>
  <speed>0.0</speed>
  <fix>3d</fix>
</trkpt>
<trkpt lat="-27.274439" lon="151.290064">
  <ele>343.1</ele>
  <time>2026-09-01T19:50:36Z</time>
  <course>8.0</course>
  <speed>0.0</speed>
  <fix>3d</fix>
</trkpt>
<trkpt lat="-27.274439" lon="151.290064">
  <ele>343.1</ele>
  <time>2026-09-01T19:50:36Z</time>
  <course>270.0</course>
  <speed>0.0</speed>
  <fix>3d</fix>
</trkpt>
<trkpt lat="-27.274439" lon="151.290064">
  <ele>343.1</ele>
  <time>2026-09-01T19:50:36Z</time>
  <course>8.0</course>
  <speed>0.0</speed>
  <fix>3d</fix>
</trkpt>
<trkpt lat="-27.274439" lon="151.290064">
  <ele>343.1</ele>
  <time>2026-09-01T19:50:36Z</time>
  <course>270.0</course>
  <speed>0.0</speed>
  <fix>3d</fix>
</trkpt>
<trkpt lat="-27.274439" lon="151.290064">
  <ele>343.1</ele>
  <time>2026-09-01T19:50:36Z</time>
  <course>8.0</course>
  <speed>0.0</speed>
  <fix>3d</fix>
</trkpt>
<trkpt lat="-27.274439" lon="151.290064">
  <ele>343.1</ele>
  <time>2026-09-01T19:50:36Z</time>
  <course>270.0</course>
  <speed>0.0</speed>
  <fix>3d</fix>
</trkpt>
<trkpt lat="-27.274439" lon="151.290064">
  <ele>343.1</ele>
  <time>2026-09-01T19:50:36Z</time>
  <course>8.0</course>
  <speed>0.0</speed>
  <fix>3d</fix>
</trkpt>
<trkpt lat="-27.274439" lon="151.290064">
  <ele>343.1</ele>
  <time>2026-09-01T19:50:36Z</time>
  <course>270.0</course>
  <speed>0.0</speed>
  <fix>3d</fix>
</trkpt>
<trkpt lat="-27.274439" lon="151.290064">
  <ele>343.1</ele>
  <time>2026-09-01T19:50:36Z</time>
  <course>8.0</course>
  <speed>0.0</speed>
  <fix>3d</fix>
</trkpt>
<trkpt lat="-27.274439" lon="151.290064">
  <ele>343.1</ele>
  <time>2026-09-01T19:50:36Z</time>
  <course>270.0</course>
  <speed>0.0</speed>
  <fix>3d</fix>
</trkpt>
<trkpt lat="-27.274439" lon="151.290064">
  <ele>343.1</ele>
  <time>2026-09-01T19:50:36Z</time>
  <course>8.0</course>
  <speed>0.0</speed>
  <fix>3d</fix>
</trkpt>
<trkpt lat="-27.274439" lon="151.290064">
  <ele>343.1</ele>
  <time>2026-09-01T19:50:36Z</time>
  <course>270.0</course>
  <speed>0.0</speed>
  <fix>3d</fix>
</trkpt>
<trkpt lat="-27.274439" lon="151.290064">
  <ele>343.1</ele>
  <time>2026-09-01T19:50:36Z</time>
  <course>8.0</course>
  <speed>0.0</speed>
  <fix>3d</fix>
</trkpt>
<trkpt lat="-27.274439" lon="151.290064">
  <ele>343.1</ele>
  <time>2026-09-01T19:50:36Z</time>
  <course>270.0</course>
  <speed>0.0</speed>
  <fix>3d</fix>
</trkpt>
<trkpt lat="-27.274439" lon="151.290064">
  <ele>343.1</ele>
  <time>2026-09-01T19:50:36Z</time>
  <course>8.0</course>
  <speed>0.0</speed>
  <fix>3d</fix>
</trkpt>
<trkpt lat="-27.274439" lon="151.290064">
  <ele>343.1</ele>
  <time>2026-09-01T19:50:36Z</time>
  <course>270.0</course>
  <speed>0.0</speed>
  <fix>3d</fix>
</trkpt>
<trkpt lat="-27.274439" lon="151.290064">
  <ele>343.1</ele>
  <time>2026-09-01T19:50:36Z</time>
  <course>8.0</course>
  <speed>0.0</speed>
  <fix>3d</fix>
</trkpt>
<trkpt lat="-27.274439" lon="151.290064">
  <ele>343.1</ele>
  <time>2026-09-01T19:50:36Z</time>
  <course>270.0</course>
  <speed>0.0</speed>
  <fix>3d</fix>
</trkpt>
<trkpt lat="-27.274439" lon="151.290064">
  <ele>343.1</ele>
  <time>2026-09-01T19:50:36Z</time>
  <course>8.0</course>
  <speed>0.0</speed>
  <fix>3d</fix>
</trkpt>
<trkpt lat="-27.274439" lon="151.290064">
  <ele>343.1</ele>
  <time>2026-09-01T19:50:36Z</time>
  <course>270.0</course>
  <speed>0.0</speed>
  <fix>3d</fix>
</trkpt>
<trkpt lat="-27.274439" lon="151.290064">
  <ele>343.1</ele>
  <time>2026-09-01T19:50:36Z</time>
  <course>8.0</course>
  <speed>0.0</speed>
  <fix>3d</fix>
</trkpt>
<trkpt lat="-27.274439" lon="151.290064">
  <ele>343.1</ele>
  <time>2026-09-01T19:50:36Z</time>
  <course>270.0</course>
  <speed>0.0</speed>
  <fix>3d</fix>
</trkpt>
<trkpt lat="-27.274439" lon="151.290064">
  <ele>343.1</ele>
  <time>2026-09-01T19:50:36Z</time>
  <course>8.0</course>
  <speed>0.0</speed>
  <fix>3d</fix>
</trkpt>
<trkpt lat="-27.274439" lon="151.290064">
  <ele>343.1</ele>
  <time>2026-09-01T19:50:36Z</time>
  <course>270.0</course>
  <speed>0.0</speed>
  <fix>3d</fix>
</trkpt>
<trkpt lat="-27.274439" lon="151.290064">
  <ele>343.1</ele>
  <time>2026-09-01T19:50:36Z</time>
  <course>8.0</course>
  <speed>0.0</speed>
  <fix>3d</fix>
</trkpt>
<trkpt lat="-27.274439" lon="151.290064">
  <ele>343.1</ele>
  <time>2026-09-01T19:50:36Z</time>
  <course>270.0</course>
  <speed>0.0</speed>
  <fix>3d</fix>
</trkpt>
<trkpt lat="-27.274439" lon="151.290064">
  <ele>343.1</ele>
  <time>2026-09-01T19:50:36Z</time>
  <course>8.0</course>
  <speed>0.0</speed>
  <fix>3d</fix>
</trkpt>
<trkpt lat="-27.274439" lon="151.290064">
  <ele>343.1</ele>
  <time>2026-09-01T19:50:36Z</time>
  <course>270.0</course>
  <speed>0.0</speed>
  <fix>3d</fix>
</trkpt>
<trkpt lat="-27.274439" lon="151.290064">
  <ele>343.1</ele>
  <time>2026-09-01T19:50:36Z</time>
  <course>8.0</course>
  <speed>0.0</speed>
  <fix>3d</fix>
</trkpt>
<trkpt lat="-27.274439" lon="151.290064">
  <ele>343.1</ele>
  <time>2026-09-01T19:50:36Z</time>
  <course>270.0</course>
  <speed>0.0</speed>
  <fix>3d</fix>
</trkpt>
<trkpt lat="-27.274439" lon="151.290064">
  <ele>343.1</ele>
  <time>2026-09-01T19:50:36Z</time>
  <course>8.0</course>
  <speed>0.0</speed>
  <fix>3d</fix>
</trkpt>
<trkpt lat="-27.274439" lon="151.290064">
  <ele>343.1</ele>
  <time>2026-09-01T19:50:36Z</time>
  <course>270.0</course>
  <speed>0.0</speed>
  <fix>3d</fix>
</trkpt>
<trkpt lat="-27.274439" lon="151.290064">
  <ele>343.1</ele>
  <time>2026-09-01T19:50:36Z</time>
  <course>8.0</course>
  <speed>0.0</speed>
  <fix>3d</fix>
</trkpt>
<trkpt lat="-27.274439" lon="151.290064">
  <ele>343.1</ele>
  <time>2026-09-01T19:50:36Z</time>
  <course>270.0</course>
  <speed>0.0</speed>
  <fix>3d</fix>
</trkpt>
<trkpt lat="-27.274439" lon="151.290064">
  <ele>343.1</ele>
  <time>2026-09-01T19:50:36Z</time>
  <course>8.0</course>
  <speed>0.0</speed>
  <fix>3d</fix>
</trkpt>
<trkpt lat="-27.274439" lon="151.290064">
  <ele>343.1</ele>
  <time>2026-09-01T19:50:36Z</time>
  <course>270.0</course>
  <speed>0.0</speed>
  <fix>3d</fix>
</trkpt>
<trkpt lat="-27.274439" lon="151.290064">
  <ele>343.1</ele>
  <time>2026-09-01T19:50:36Z</time>
  <course>8.0</course>
  <speed>0.0</speed>
  <fix>3d</fix>
</trkpt>
<trkpt lat="-27.274439" lon="151.290064">
  <ele>343.1</ele>
  <time>2026-09-01T19:50:36Z</time>
  <course>270.0</course>
  <speed>0.0</speed>
  <fix>3d</fix>
</trkpt>
<trkpt lat="-27.274439" lon="151.290064">
  <ele>343.1</ele>
  <time>2026-09-01T19:50:36Z</time>
  <course>8.0</course>
  <speed>0.0</speed>
  <fix>3d</fix>
</trkpt>
<trkpt lat="-27.274439" lon="151.290064">
  <ele>343.1</ele>
  <time>2026-09-01T19:50:36Z</time>
  <course>270.0</course>
  <speed>0.0</speed>
  <fix>3d</fix>
</trkpt>
<trkpt lat="-27.274439" lon="151.290064">
  <ele>343.1</ele>
  <time>2026-09-01T19:50:36Z</time>
  <course>8.0</course>
  <speed>0.0</speed>
  <fix>3d</fix>
</trkpt>
<trkpt lat="-27.274439" lon="151.290064">
  <ele>343.1</ele>
  <time>2026-09-01T19:50:36Z</time>
  <course>270.0</course>
  <speed>0.0</speed>
  <fix>3d</fix>
</trkpt>
<trkpt lat="-27.274439" lon="151.290064">
  <ele>343.1</ele>
  <time>2026-09-01T19:50:36Z</time>
  <course>8.0</course>
  <speed>0.0</speed>
  <fix>3d</fix>
</trkpt>
<trkpt lat="-27.274439" lon="151.290064">
  <ele>343.1</ele>
  <time>2026-09-01T19:50:36Z</time>
  <course>270.0</course>
  <speed>0.0</speed>
  <fix>3d</fix>
</trkpt>
<trkpt lat="-27.274439" lon="151.290064">
  <ele>343.1</ele>
  <time>2026-09-01T19:50:36Z</time>
  <course>8.0</course>
  <speed>0.0</speed>
  <fix>3d</fix>
</trkpt>
<trkpt lat="-27.274439" lon="151.290064">
  <ele>343.1</ele>
  <time>2026-09-01T19:50:36Z</time>
  <course>270.0</course>
  <speed>0.0</speed>
  <fix>3d</fix>
</trkpt>
<trkpt lat="-27.274439" lon="151.290064">
  <ele>343.1</ele>
  <time>2026-09-01T19:50:36Z</time>
  <course>8.0</course>
  <speed>0.0</speed>
  <fix>3d</fix>
</trkpt>
<trkpt lat="-27.274439" lon="151.290064">
  <ele>343.1</ele>
  <time>2026-09-01T19:50:36Z</time>
  <course>270.0</course>
  <speed>0.0</speed>
  <fix>3d</fix>
</trkpt>
<trkpt lat="-27.274439" lon="151.290064">
  <ele>343.1</ele>
  <time>2026-09-01T19:50:36Z</time>
  <course>8.0</course>
  <speed>0.0</speed>
  <fix>3d</fix>
</trkpt>
<trkpt lat="-27.274439" lon="151.290064">
  <ele>343.1</ele>
  <time>2026-09-01T19:50:36Z</time>
  <course>270.0</course>
  <speed>0.0</speed>
  <fix>3d</fix>
</trkpt>
<trkpt lat="-27.274439" lon="151.290064">
  <ele>343.1</ele>
  <time>2026-09-01T19:50:36Z</time>
  <course>8.0</course>
  <speed>0.0</speed>
  <fix>3d</fix>
</trkpt>
<trkpt lat="-27.274439" lon="151.290064">
  <ele>343.1</ele>
  <time>2026-09-01T19:50:36Z</time>
  <course>270.0</course>
  <speed>0.0</speed>
  <fix>3d</fix>
</trkpt>
<trkpt lat="-27.274439" lon="151.290064">
  <ele>343.1</ele>
  <time>2026-09-01T19:50:36Z</time>
  <course>8.0</course>
  <speed>0.0</speed>
  <fix>3d</fix>
</trkpt>
<trkpt lat="-27.274439" lon="151.290064">
  <ele>343.1</ele>
  <time>2026-09-01T19:50:36Z</time>
  <course>270.0</course>
  <speed>0.0</speed>
  <fix>3d</fix>
</trkpt>
<trkpt lat="-27.274439" lon="151.290064">
  <ele>343.1</ele>
  <time>2026-09-01T19:50:36Z</time>
  <course>8.0</course>
  <speed>0.0</speed>
  <fix>3d</fix>
</trkpt>
<trkpt lat="-27.274439" lon="151.290064">
  <ele>343.1</ele>
  <time>2026-09-01T19:50:36Z</time>
  <course>270.0</course>
  <speed>0.0</speed>
  <fix>3d</fix>
</trkpt>
<trkpt lat="-27.274439" lon="151.290064">
  <ele>343.1</ele>
  <time>2026-09-01T19:50:36Z</time>
  <course>8.0</course>
  <speed>0.0</speed>
  <fix>3d</fix>
</trkpt>
<trkpt lat="-27.274439" lon="151.290064">
  <ele>343.1</ele>
  <time>2026-09-01T19:50:36Z</time>
  <course>270.0</course>
  <speed>0.0</speed>
  <fix>3d</fix>
</trkpt>
<trkpt lat="-27.274439" lon="151.290064">
  <ele>343.1</ele>
  <time>2026-09-01T19:50:36Z</time>
  <course>8.0</course>
  <speed>0.0</speed>
  <fix>3d</fix>
</trkpt>
<trkpt lat="-27.274439" lon="151.290064">
  <ele>343.1</ele>
  <time>2026-09-01T19:50:36Z</time>
  <course>270.0</course>
  <speed>0.0</speed>
  <fix>3d</fix>
</trkpt>
<trkpt lat="-27.274439" lon="151.290064">
  <ele>343.1</ele>
  <time>2026-09-01T19:50:36Z</time>
  <course>8.0</course>
  <speed>0.0</speed>
  <fix>3d</fix>
</trkpt>
<trkpt lat="-27.274439" lon="151.290064">
  <ele>343.1</ele>
  <time>2026-09-01T19:50:36Z</time>
  <course>270.0</course>
  <speed>0.0</speed>
  <fix>3d</fix>
</trkpt>
<trkpt lat="-27.274439" lon="151.290064">
  <ele>343.1</ele>
  <time>2026-09-01T19:50:36Z</time>
  <course>8.0</course>
  <speed>0.0</speed>
  <fix>3d</fix>
</trkpt>
<trkpt lat="-27.274439" lon="151.290064">
  <ele>343.1</ele>
  <time>2026-09-01T19:50:36Z</time>
  <course>270.0</course>
  <speed>0.0</speed>
  <fix>3d</fix>
</trkpt>
<trkpt lat="-27.274439" lon="151.290064">
  <ele>343.1</ele>
  <time>2026-09-01T19:50:36Z</time>
  <course>8.0</course>
  <speed>0.0</speed>
  <fix>3d</fix>
</trkpt>
<trkpt lat="-27.274439" lon="151.290064">
  <ele>343.1</ele>
  <time>2026-09-01T19:50:36Z</time>
  <course>270.0</course>
  <speed>0.0</speed>
  <fix>3d</fix>
</trkpt>
<trkpt lat="-27.274439" lon="151.290064">
  <ele>343.1</ele>
  <time>2026-09-01T19:50:36Z</time>
  <course>8.0</course>
  <speed>0.0</speed>
  <fix>3d</fix>
</trkpt>
<trkpt lat="-27.274439" lon="151.290064">
  <ele>343.1</ele>
  <time>2026-09-01T19:50:36Z</time>
  <course>270.0</course>
  <speed>0.0</speed>
  <fix>3d</fix>
</trkpt>
<trkpt lat="-27.274439" lon="151.290064">
  <ele>343.1</ele>
  <time>2026-09-01T19:50:36Z</time>
  <course>8.0</course>
  <speed>0.0</speed>
  <fix>3d</fix>
</trkpt>
<trkpt lat="-27.274439" lon="151.290064">
  <ele>343.1</ele>
  <time>2026-09-01T19:50:36Z</time>
  <course>270.0</course>
  <speed>0.0</speed>
  <fix>3d</fix>
</trkpt>
<trkpt lat="-27.274439" lon="151.290064">
  <ele>343.1</ele>
  <time>2026-09-01T19:50:36Z</time>
  <course>8.0</course>
  <speed>0.0</speed>
  <fix>3d</fix>
</trkpt>
<trkpt lat="-27.274439" lon="151.290064">
  <ele>343.1</ele>
  <time>2026-09-01T19:50:36Z</time>
  <course>270.0</course>
  <speed>0.0</speed>
  <fix>3d</fix>
</trkpt>
<trkpt lat="-27.274439" lon="151.290064">
  <ele>343.1</ele>
  <time>2026-09-01T19:50:36Z</time>
  <course>8.0</course>
  <speed>0.0</speed>
  <fix>3d</fix>
</trkpt>
<trkpt lat="-27.274439" lon="151.290064">
  <ele>343.1</ele>
  <time>2026-09-01T19:50:36Z</time>
  <course>270.0</course>
  <speed>0.0</speed>
  <fix>3d</fix>
</trkpt>
<trkpt lat="-27.274439" lon="151.290064">
  <ele>343.1</ele>
  <time>2026-09-01T19:50:36Z</time>
  <course>8.0</course>
  <speed>0.0</speed>
  <fix>3d</fix>
</trkpt>
<trkpt lat="-27.274439" lon="151.290064">
  <ele>343.1</ele>
  <time>2026-09-01T19:50:36Z</time>
  <course>270.0</course>
  <speed>0.0</speed>
  <fix>3d</fix>
</trkpt>
<trkpt lat="-27.274439" lon="151.290064">
  <ele>343.1</ele>
  <time>2026-09-01T19:50:36Z</time>
  <course>8.0</course>
  <speed>0.0</speed>
  <fix>3d</fix>
</trkpt>
<trkpt lat="-27.274439" lon="151.290064">
  <ele>343.1</ele>
  <time>2026-09-01T19:50:36Z</time>
  <course>270.0</course>
  <speed>0.0</speed>
  <fix>3d</fix>
</trkpt>
<trkpt lat="-27.274439" lon="151.290064">
  <ele>343.1</ele>
  <time>2026-09-01T19:50:36Z</time>
  <course>8.0</course>
  <speed>0.0</speed>
  <fix>3d</fix>
</trkpt>
<trkpt lat="-27.274439" lon="151.290064">
  <ele>343.1</ele>
  <time>2026-09-01T19:50:36Z</time>
  <course>270.0</course>
  <speed>0.0</speed>
  <fix>3d</fix>
</trkpt>
<trkpt lat="-27.274439" lon="151.290064">
  <ele>343.1</ele>
  <time>2026-09-01T19:50:36Z</time>
  <course>8.0</course>
  <speed>0.0</speed>
  <fix>3d</fix>
</trkpt>
<trkpt lat="-27.274439" lon="151.290064">
  <ele>343.1</ele>
  <time>2026-09-01T19:50:36Z</time>
  <course>270.0</course>
  <speed>0.0</speed>
  <fix>3d</fix>
</trkpt>
<trkpt lat="-27.274439" lon="151.290064">
  <ele>343.1</ele>
  <time>2026-09-01T19:50:36Z</time>
  <course>8.0</course>
  <speed>0.0</speed>
  <fix>3d</fix>
</trkpt>
<trkpt lat="-27.274439" lon="151.290064">
  <ele>343.1</ele>
  <time>2026-09-01T19:50:36Z</time>
  <course>270.0</course>
  <speed>0.0</speed>
  <fix>3d</fix>
</trkpt>
<trkpt lat="-27.274439" lon="151.290064">
  <ele>343.1</ele>
  <time>2026-09-01T19:50:36Z</time>
  <course>8.0</course>
  <speed>0.0</speed>
  <fix>3d</fix>
</trkpt>
<trkpt lat="-27.274439" lon="151.290064">
  <ele>343.1</ele>
  <time>2026-09-01T19:50:36Z</time>
  <course>270.0</course>
  <speed>0.0</speed>
  <fix>3d</fix>
</trkpt>
<trkpt lat="-27.274439" lon="151.290064">
  <ele>343.1</ele>
  <time>2026-09-01T19:50:36Z</time>
  <course>8.0</course>
  <speed>0.0</speed>
  <fix>3d</fix>
</trkpt>
<trkpt lat="-27.274439" lon="151.290064">
  <ele>343.1</ele>
  <time>2026-09-01T19:50:36Z</time>
  <course>270.0</course>
  <speed>0.0</speed>
  <fix>3d</fix>
</trkpt>
<trkpt lat="-27.274439" lon="151.290064">
  <ele>343.1</ele>
  <time>2026-09-01T19:50:36Z</time>
  <course>8.0</course>
  <speed>0.0</speed>
  <fix>3d</fix>
</trkpt>
<trkpt lat="-27.274439" lon="151.290064">
  <ele>343.1</ele>
  <time>2026-09-01T19:50:36Z</time>
  <course>270.0</course>
  <speed>0.0</speed>
  <fix>3d</fix>
</trkpt>
<trkpt lat="-27.274439" lon="151.290064">
  <ele>343.1</ele>
  <time>2026-09-01T19:50:36Z</time>
  <course>8.0</course>
  <speed>0.0</speed>
  <fix>3d</fix>
</trkpt>
<trkpt lat="-27.274439" lon="151.290064">
  <ele>343.1</ele>
  <time>2026-09-01T19:50:36Z</time>
  <course>270.0</course>
  <speed>0.0</speed>
  <fix>3d</fix>
</trkpt>
<trkpt lat="-27.274439" lon="151.290064">
  <ele>343.1</ele>
  <time>2026-09-01T19:50:36Z</time>
  <course>8.0</course>
  <speed>0.0</speed>
  <fix>3d</fix>
</trkpt>
<trkpt lat="-27.274439" lon="151.290064">
  <ele>343.1</ele>
  <time>2026-09-01T19:50:36Z</time>
  <course>270.0</course>
  <speed>0.0</speed>
  <fix>3d</fix>
</trkpt>
<trkpt lat="-27.274439" lon="151.290064">
  <ele>343.1</ele>
  <time>2026-09-01T19:50:36Z</time>
  <course>8.0</course>
  <speed>0.0</speed>
  <fix>3d</fix>
</trkpt>
<trkpt lat="-27.274439" lon="151.290064">
  <ele>343.1</ele>
  <time>2026-09-01T19:50:36Z</time>
  <course>270.0</course>
  <speed>0.0</speed>
  <fix>3d</fix>
</trkpt>
<trkpt lat="-27.274439" lon="151.290064">
  <ele>343.1</ele>
  <time>2026-09-01T19:50:36Z</time>
  <course>8.0</course>
  <speed>0.0</speed>
  <fix>3d</fix>
</trkpt>
<trkpt lat="-27.274439" lon="151.290064">
  <ele>343.1</ele>
  <time>2026-09-01T19:50:36Z</time>
  <course>270.0</course>
  <speed>0.0</speed>
  <fix>3d</fix>
</trkpt>
<trkpt lat="-27.274439" lon="151.290064">
  <ele>343.1</ele>
  <time>2026-09-01T19:50:36Z</time>
  <course>8.0</course>
  <speed>0.0</speed>
  <fix>3d</fix>
</trkpt>
<trkpt lat="-27.274439" lon="151.290064">
  <ele>343.1</ele>
  <time>2026-09-01T19:50:36Z</time>
  <course>270.0</course>
  <speed>0.0</speed>
  <fix>3d</fix>
</trkpt>
<trkpt lat="-27.274439" lon="151.290064">
  <ele>343.1</ele>
  <time>2026-09-01T19:50:36Z</time>
  <course>8.0</course>
  <speed>0.0</speed>
  <fix>3d</fix>
</trkpt>
<trkpt lat="-27.274439" lon="151.290064">
  <ele>343.1</ele>
  <time>2026-09-01T19:50:36Z</time>
  <course>270.0</course>
  <speed>0.0</speed>
  <fix>3d</fix>
</trkpt>
<trkpt lat="-27.274439" lon="151.290064">
  <ele>343.1</ele>
  <time>2026-09-01T19:50:36Z</time>
  <course>8.0</course>
  <speed>0.0</speed>
  <fix>3d</fix>
</trkpt>
<trkpt lat="-27.274439" lon="151.290064">
  <ele>343.1</ele>
  <time>2026-09-01T19:50:36Z</time>
  <course>270.0</course>
  <speed>0.0</speed>
  <fix>3d</fix>
</trkpt>
<trkpt lat="-27.274439" lon="151.290064">
  <ele>343.1</ele>
  <time>2026-09-01T19:50:36Z</time>
  <course>8.0</course>
  <speed>0.0</speed>
  <fix>3d</fix>
</trkpt>
<trkpt lat="-27.274439" lon="151.290064">
  <ele>343.1</ele>
  <time>2026-09-01T19:50:36Z</time>
  <course>270.0</course>
  <speed>0.0</speed>
  <fix>3d</fix>
</trkpt>
<trkpt lat="-27.274439" lon="151.290064">
  <ele>343.1</ele>
  <time>2026-09-01T19:50:36Z</time>
  <course>8.0</course>
  <speed>0.0</speed>
  <fix>3d</fix>
</trkpt>
<trkpt lat="-27.274439" lon="151.290064">
  <ele>343.1</ele>
  <time>2026-09-01T19:50:36Z</time>
  <course>270.0</course>
  <speed>0.0</speed>
  <fix>3d</fix>
</trkpt>
<trkpt lat="-27.274439" lon="151.290064">
  <ele>343.1</ele>
  <time>2026-09-01T19:50:36Z</time>
  <course>8.0</course>
  <speed>0.0</speed>
  <fix>3d</fix>
</trkpt>
<trkpt lat="-27.274439" lon="151.290064">
  <ele>343.1</ele>
  <time>2026-09-01T19:50:36Z</time>
  <course>270.0</course>
  <speed>0.0</speed>
  <fix>3d</fix>
</trkpt>
<trkpt lat="-27.274439" lon="151.290064">
  <ele>343.1</ele>
  <time>2026-09-01T19:50:36Z</time>
  <course>8.0</course>
  <speed>0.0</speed>
  <fix>3d</fix>
</trkpt>
<trkpt lat="-27.274439" lon="151.290064">
  <ele>343.1</ele>
  <time>2026-09-01T19:50:36Z</time>
  <course>270.0</course>
  <speed>0.0</speed>
  <fix>3d</fix>
</trkpt>
<trkpt lat="-27.274439" lon="151.290064">
  <ele>343.1</ele>
  <time>2026-09-01T19:50:36Z</time>
  <course>8.0</course>
  <speed>0.0</speed>
  <fix>3d</fix>
</trkpt>
<trkpt lat="-27.274439" lon="151.290064">
  <ele>343.1</ele>
  <time>2026-09-01T19:50:36Z</time>
  <course>270.0</course>
  <speed>0.0</speed>
  <fix>3d</fix>
</trkpt>
<trkpt lat="-27.274439" lon="151.290064">
  <ele>343.1</ele>
  <time>2026-09-01T19:50:36Z</time>
  <course>8.0</course>
  <speed>0.0</speed>
  <fix>3d</fix>
</trkpt>
<trkpt lat="-27.274439" lon="151.290064">
  <ele>343.1</ele>
  <time>2026-09-01T19:50:36Z</time>
  <course>270.0</course>
  <speed>0.0</speed>
  <fix>3d</fix>
</trkpt>
<trkpt lat="-27.274439" lon="151.290064">
  <ele>343.1</ele>
  <time>2026-09-01T19:50:36Z</time>
  <course>8.0</course>
  <speed>0.0</speed>
  <fix>3d</fix>
</trkpt>
<trkpt lat="-27.274439" lon="151.290064">
  <ele>343.1</ele>
  <time>2026-09-01T19:50:36Z</time>
  <course>270.0</course>
  <speed>0.0</speed>
  <fix>3d</fix>
</trkpt>
<trkpt lat="-27.274439" lon="151.290064">
  <ele>343.1</ele>
  <time>2026-09-01T19:50:36Z</time>
  <course>8.0</course>
  <speed>0.0</speed>
  <fix>3d</fix>
</trkpt>
<trkpt lat="-27.274439" lon="151.290064">
  <ele>343.1</ele>
  <time>2026-09-01T19:50:36Z</time>
  <course>270.0</course>
  <speed>0.0</speed>
  <fix>3d</fix>
</trkpt>
<trkpt lat="-27.274439" lon="151.290064">
  <ele>343.1</ele>
  <time>2026-09-01T19:50:36Z</time>
  <course>8.0</course>
  <speed>0.0</speed>
  <fix>3d</fix>
</trkpt>
<trkpt lat="-27.274439" lon="151.290064">
  <ele>343.1</ele>
  <time>2026-09-01T19:50:36Z</time>
  <course>270.0</course>
  <speed>0.0</speed>
  <fix>3d</fix>
</trkpt>
<trkpt lat="-27.274439" lon="151.290064">
  <ele>343.1</ele>
  <time>2026-09-01T19:50:36Z</time>
  <course>8.0</course>
  <speed>0.0</speed>
  <fix>3d</fix>
</trkpt>
<trkpt lat="-27.274439" lon="151.290064">
  <ele>343.1</ele>
  <time>2026-09-01T19:50:36Z</time>
  <course>270.0</course>
  <speed>0.0</speed>
  <fix>3d</fix>
</trkpt>
<trkpt lat="-27.274439" lon="151.290064">
  <ele>343.1</ele>
  <time>2026-09-01T19:50:36Z</time>
  <course>8.0</course>
  <speed>0.0</speed>
  <fix>3d</fix>
</trkpt>
<trkpt lat="-27.274439" lon="151.290064">
  <ele>343.1</ele>
  <time>2026-09-01T19:50:36Z</time>
  <course>270.0</course>
  <speed>0.0</speed>
  <fix>3d</fix>
</trkpt>
<trkpt lat="-27.274439" lon="151.290064">
  <ele>343.1</ele>
  <time>2026-09-01T19:50:36Z</time>
  <course>8.0</course>
  <speed>0.0</speed>
  <fix>3d</fix>
</trkpt>
<trkpt lat="-27.274439" lon="151.290064">
  <ele>343.1</ele>
  <time>2026-09-01T19:50:36Z</time>
  <course>270.0</course>
  <speed>0.0</speed>
  <fix>3d</fix>
</trkpt>
<trkpt lat="-27.274439" lon="151.290064">
  <ele>343.1</ele>
  <time>2026-09-01T19:50:36Z</time>
  <course>8.0</course>
  <speed>0.0</speed>
  <fix>3d</fix>
</trkpt>
<trkpt lat="-27.274439" lon="151.290064">
  <ele>343.1</ele>
  <time>2026-09-01T19:50:36Z</time>
  <course>270.0</course>
  <speed>0.0</speed>
  <fix>3d</fix>
</trkpt>
<trkpt lat="-27.274439" lon="151.290064">
  <ele>343.1</ele>
  <time>2026-09-01T19:50:36Z</time>
  <course>8.0</course>
  <speed>0.0</speed>
  <fix>3d</fix>
</trkpt>
<trkpt lat="-27.274439" lon="151.290064">
  <ele>343.1</ele>
  <time>2026-09-01T19:50:36Z</time>
  <course>270.0</course>
  <speed>0.0</speed>
  <fix>3d</fix>
</trkpt>
<trkpt lat="-27.274439" lon="151.290064">
  <ele>343.1</ele>
  <time>2026-09-01T19:50:36Z</time>
  <course>8.0</course>
  <speed>0.0</speed>
  <fix>3d</fix>
</trkpt>
<trkpt lat="-27.274439" lon="151.290064">
  <ele>343.1</ele>
  <time>2026-09-01T19:50:36Z</time>
  <course>270.0</course>
  <speed>0.0</speed>
  <fix>3d</fix>
</trkpt>
<trkpt lat="-27.274439" lon="151.290064">
  <ele>343.1</ele>
  <time>2026-09-01T19:50:36Z</time>
  <course>8.0</course>
  <speed>0.0</speed>
  <fix>3d</fix>
</trkpt>
<trkpt lat="-27.274439" lon="151.290064">
  <ele>343.1</ele>
  <time>2026-09-01T19:50:36Z</time>
  <course>270.0</course>
  <speed>0.0</speed>
  <fix>3d</fix>
</trkpt>
<trkpt lat="-27.274439" lon="151.290064">
  <ele>343.1</ele>
  <time>2026-09-01T19:50:36Z</time>
  <course>8.0</course>
  <speed>0.0</speed>
  <fix>3d</fix>
</trkpt>
<trkpt lat="-27.274439" lon="151.290064">
  <ele>343.1</ele>
  <time>2026-09-01T19:50:36Z</time>
  <course>270.0</course>
  <speed>0.0</speed>
  <fix>3d</fix>
</trkpt>
<trkpt lat="-27.274439" lon="151.290064">
  <ele>343.1</ele>
  <time>2026-09-01T19:50:36Z</time>
  <course>8.0</course>
  <speed>0.0</speed>
  <fix>3d</fix>
</trkpt>
<trkpt lat="-27.274439" lon="151.290064">
  <ele>343.1</ele>
  <time>2026-09-01T19:50:36Z</time>
  <course>270.0</course>
  <speed>0.0</speed>
  <fix>3d</fix>
</trkpt>
<trkpt lat="-27.274439" lon="151.290064">
  <ele>343.1</ele>
  <time>2026-09-01T19:50:36Z</time>
  <course>8.0</course>
  <speed>0.0</speed>
  <fix>3d</fix>
</trkpt>
<trkpt lat="-27.274439" lon="151.290064">
  <ele>343.1</ele>
  <time>2026-09-01T19:50:36Z</time>
  <course>270.0</course>
  <speed>0.0</speed>
  <fix>3d</fix>
</trkpt>
<trkpt lat="-27.274439" lon="151.290064">
  <ele>343.1</ele>
  <time>2026-09-01T19:50:36Z</time>
  <course>8.0</course>
  <speed>0.0</speed>
  <fix>3d</fix>
</trkpt>
<trkpt lat="-27.274439" lon="151.290064">
  <ele>343.1</ele>
  <time>2026-09-01T19:50:36Z</time>
  <course>270.0</course>
  <speed>0.0</speed>
  <fix>3d</fix>
</trkpt>
<trkpt lat="-27.274439" lon="151.290064">
  <ele>343.1</ele>
  <time>2026-09-01T19:50:36Z</time>
  <course>8.0</course>
  <speed>0.0</speed>
  <fix>3d</fix>
</trkpt>
<trkpt lat="-27.274439" lon="151.290064">
  <ele>343.1</ele>
  <time>2026-09-01T19:50:36Z</time>
  <course>270.0</course>
  <speed>0.0</speed>
  <fix>3d</fix>
</trkpt>
<trkpt lat="-27.274439" lon="151.290064">
  <ele>343.1</ele>
  <time>2026-09-01T19:50:36Z</time>
  <course>8.0</course>
  <speed>0.0</speed>
  <fix>3d</fix>
</trkpt>
<trkpt lat="-27.274439" lon="151.290064">
  <ele>343.1</ele>
  <time>2026-09-01T19:50:36Z</time>
  <course>270.0</course>
  <speed>0.0</speed>
  <fix>3d</fix>
</trkpt>
<trkpt lat="-27.274439" lon="151.290064">
  <ele>343.1</ele>
  <time>2026-09-01T19:50:36Z</time>
  <course>8.0</course>
  <speed>0.0</speed>
  <fix>3d</fix>
</trkpt>
<trkpt lat="-27.274439" lon="151.290064">
  <ele>343.1</ele>
  <time>2026-09-01T19:50:36Z</time>
  <course>270.0</course>
  <speed>0.0</speed>
  <fix>3d</fix>
</trkpt>
<trkpt lat="-27.274439" lon="151.290064">
  <ele>343.1</ele>
  <time>2026-09-01T19:50:36Z</time>
  <course>8.0</course>
  <speed>0.0</speed>
  <fix>3d</fix>
</trkpt>
<trkpt lat="-27.274439" lon="151.290064">
  <ele>343.1</ele>
  <time>2026-09-01T19:50:36Z</time>
  <course>143.0</course>
  <speed>0.0</speed>
  <fix>3d</fix>
</trkpt>
<trkpt lat="-27.274439" lon="151.290064">
  <ele>343.1</ele>
  <time>2026-09-01T19:50:36Z</time>
  <course>8.0</course>
  <speed>0.0</speed>
  <fix>3d</fix>
</trkpt>
<trkpt lat="-27.274439" lon="151.290064">
  <ele>343.1</ele>
  <time>2026-09-01T19:50:36Z</time>
  <course>143.0</course>
  <speed>0.0</speed>
  <fix>3d</fix>
</trkpt>
<trkpt lat="-27.274439" lon="151.290064">
  <ele>343.1</ele>
  <time>2026-09-01T19:50:36Z</time>
  <course>7.99</course>
  <speed>0.0</speed>
  <fix>3d</fix>
</trkpt>
<trkpt lat="-27.274439" lon="151.290064">
  <ele>343.1</ele>
  <time>2026-09-01T19:50:36Z</time>
  <course>143.0</course>
  <speed>0.0</speed>
  <fix>3d</fix>
</trkpt>
<trkpt lat="-27.274439" lon="151.290064">
  <ele>343.1</ele>
  <time>2026-09-01T19:50:36Z</time>
  <course>7.99</course>
  <speed>0.0</speed>
  <fix>3d</fix>
</trkpt>
<trkpt lat="-27.274439" lon="151.290064">
  <ele>343.1</ele>
  <time>2026-09-01T19:50:36Z</time>
  <course>143.0</course>
  <speed>0.0</speed>
  <fix>3d</fix>
</trkpt>
<trkpt lat="-27.274439" lon="151.290064">
  <ele>343.1</ele>
  <time>2026-09-01T19:50:36Z</time>
  <course>7.99</course>
  <speed>0.0</speed>
  <fix>3d</fix>
</trkpt>
<trkpt lat="-27.274439" lon="151.290064">
  <ele>343.1</ele>
  <time>2026-09-01T19:50:36Z</time>
  <course>323.0</course>
  <speed>0.0</speed>
  <fix>3d</fix>
</trkpt>
<trkpt lat="-27.274439" lon="151.290064">
  <ele>343.1</ele>
  <time>2026-09-01T19:50:36Z</time>
  <course>7.99</course>
  <speed>0.0</speed>
  <fix>3d</fix>
</trkpt>
<trkpt lat="-27.274439" lon="151.290064">
  <ele>343.1</ele>
  <time>2026-09-01T19:50:36Z</time>
  <course>323.0</course>
  <speed>0.0</speed>
  <fix>3d</fix>
</trkpt>
<trkpt lat="-27.274439" lon="151.290064">
  <ele>343.1</ele>
  <time>2026-09-01T19:50:36Z</time>
  <course>7.99</course>
  <speed>0.0</speed>
  <fix>3d</fix>
</trkpt>
<trkpt lat="-27.274439" lon="151.290064">
  <ele>343.1</ele>
  <time>2026-09-01T19:50:36Z</time>
  <course>323.0</course>
  <speed>0.0</speed>
  <fix>3d</fix>
</trkpt>
<trkpt lat="-27.274439" lon="151.290064">
  <ele>343.1</ele>
  <time>2026-09-01T19:50:36Z</time>
  <course>7.98</course>
  <speed>0.0</speed>
  <fix>3d</fix>
</trkpt>
<trkpt lat="-27.274439" lon="151.290064">
  <ele>343.1</ele>
  <time>2026-09-01T19:50:36Z</time>
  <course>323.0</course>
  <speed>0.0</speed>
  <fix>3d</fix>
</trkpt>
<trkpt lat="-27.274439" lon="151.290064">
  <ele>343.1</ele>
  <time>2026-09-01T19:50:36Z</time>
  <course>7.98</course>
  <speed>0.0</speed>
  <fix>3d</fix>
</trkpt>
<trkpt lat="-27.274439" lon="151.290064">
  <ele>343.1</ele>
  <time>2026-09-01T19:50:36Z</time>
  <course>322.99</course>
  <speed>0.0</speed>
  <fix>3d</fix>
</trkpt>
<trkpt lat="-27.274439" lon="151.290064">
  <ele>343.1</ele>
  <time>2026-09-01T19:50:36Z</time>
  <course>7.98</course>
  <speed>0.0</speed>
  <fix>3d</fix>
</trkpt>
<trkpt lat="-27.274439" lon="151.290064">
  <ele>343.1</ele>
  <time>2026-09-01T19:50:36Z</time>
  <course>322.99</course>
  <speed>0.0</speed>
  <fix>3d</fix>
</trkpt>
<trkpt lat="-27.274439" lon="151.290064">
  <ele>343.1</ele>
  <time>2026-09-01T19:50:36Z</time>
  <course>7.98</course>
  <speed>0.0</speed>
  <fix>3d</fix>
</trkpt>
<trkpt lat="-27.274439" lon="151.290064">
  <ele>343.1</ele>
  <time>2026-09-01T19:50:36Z</time>
  <course>143.0</course>
  <speed>0.0</speed>
  <fix>3d</fix>
</trkpt>
<trkpt lat="-27.274439" lon="151.290064">
  <ele>343.1</ele>
  <time>2026-09-01T19:50:36Z</time>
  <course>7.98</course>
  <speed>0.0</speed>
  <fix>3d</fix>
</trkpt>
<trkpt lat="-27.274439" lon="151.290064">
  <ele>343.1</ele>
  <time>2026-09-01T19:50:36Z</time>
  <course>143.0</course>
  <speed>0.0</speed>
  <fix>3d</fix>
</trkpt>
<trkpt lat="-27.274439" lon="151.290064">
  <ele>343.1</ele>
  <time>2026-09-01T19:50:36Z</time>
  <course>7.97</course>
  <speed>0.0</speed>
  <fix>3d</fix>
</trkpt>
<trkpt lat="-27.274439" lon="151.290064">
  <ele>343.1</ele>
  <time>2026-09-01T19:50:36Z</time>
  <course>142.99</course>
  <speed>0.0</speed>
  <fix>3d</fix>
</trkpt>
<trkpt lat="-27.274439" lon="151.290064">
  <ele>343.1</ele>
  <time>2026-09-01T19:50:36Z</time>
  <course>7.97</course>
  <speed>0.0</speed>
  <fix>3d</fix>
</trkpt>
<trkpt lat="-27.274439" lon="151.290064">
  <ele>343.1</ele>
  <time>2026-09-01T19:50:36Z</time>
  <course>142.99</course>
  <speed>0.0</speed>
  <fix>3d</fix>
</trkpt>
<trkpt lat="-27.274439" lon="151.290064">
  <ele>343.1</ele>
  <time>2026-09-01T19:50:36Z</time>
  <course>7.97</course>
  <speed>0.0</speed>
  <fix>3d</fix>
</trkpt>
<trkpt lat="-27.274439" lon="151.290064">
  <ele>343.1</ele>
  <time>2026-09-01T19:50:36Z</time>
  <course>323.0</course>
  <speed>0.0</speed>
  <fix>3d</fix>
</trkpt>
<trkpt lat="-27.274439" lon="151.290064">
  <ele>343.1</ele>
  <time>2026-09-01T19:50:36Z</time>
  <course>7.97</course>
  <speed>0.0</speed>
  <fix>3d</fix>
</trkpt>
<trkpt lat="-27.274439" lon="151.290064">
  <ele>343.1</ele>
  <time>2026-09-01T19:50:36Z</time>
  <course>323.0</course>
  <speed>0.0</speed>
  <fix>3d</fix>
</trkpt>
<trkpt lat="-27.274439" lon="151.290064">
  <ele>343.1</ele>
  <time>2026-09-01T19:50:36Z</time>
  <course>7.97</course>
  <speed>0.0</speed>
  <fix>3d</fix>
</trkpt>
<trkpt lat="-27.274439" lon="151.290064">
  <ele>343.1</ele>
  <time>2026-09-01T19:50:36Z</time>
  <course>143.0</course>
  <speed>0.0</speed>
  <fix>3d</fix>
</trkpt>
<trkpt lat="-27.274439" lon="151.290064">
  <ele>343.1</ele>
  <time>2026-09-01T19:50:36Z</time>
  <course>7.96</course>
  <speed>0.0</speed>
  <fix>3d</fix>
</trkpt>
<trkpt lat="-27.274439" lon="151.290064">
  <ele>343.1</ele>
  <time>2026-09-01T19:50:36Z</time>
  <course>143.0</course>
  <speed>0.0</speed>
  <fix>3d</fix>
</trkpt>
<trkpt lat="-27.274439" lon="151.290064">
  <ele>343.1</ele>
  <time>2026-09-01T19:50:36Z</time>
  <course>7.96</course>
  <speed>0.0</speed>
  <fix>3d</fix>
</trkpt>
<trkpt lat="-27.274439" lon="151.290064">
  <ele>343.1</ele>
  <time>2026-09-01T19:50:36Z</time>
  <course>143.0</course>
  <speed>0.0</speed>
  <fix>3d</fix>
</trkpt>
<trkpt lat="-27.274439" lon="151.290064">
  <ele>343.1</ele>
  <time>2026-09-01T19:50:36Z</time>
  <course>7.96</course>
  <speed>0.0</speed>
  <fix>3d</fix>
</trkpt>
<trkpt lat="-27.274439" lon="151.290064">
  <ele>343.1</ele>
  <time>2026-09-01T19:50:36Z</time>
  <course>143.0</course>
  <speed>0.0</speed>
  <fix>3d</fix>
</trkpt>
<trkpt lat="-27.274439" lon="151.290064">
  <ele>343.1</ele>
  <time>2026-09-01T19:50:36Z</time>
  <course>7.96</course>
  <speed>0.0</speed>
  <fix>3d</fix>
</trkpt>
<trkpt lat="-27.274439" lon="151.290064">
  <ele>343.1</ele>
  <time>2026-09-01T19:50:36Z</time>
  <course>323.0</course>
  <speed>0.0</speed>
  <fix>3d</fix>
</trkpt>
<trkpt lat="-27.274439" lon="151.290064">
  <ele>343.1</ele>
  <time>2026-09-01T19:50:36Z</time>
  <course>7.96</course>
  <speed>0.0</speed>
  <fix>3d</fix>
</trkpt>
<trkpt lat="-27.274439" lon="151.290064">
  <ele>343.1</ele>
  <time>2026-09-01T19:50:36Z</time>
  <course>323.0</course>
  <speed>0.0</speed>
  <fix>3d</fix>
</trkpt>
<trkpt lat="-27.274439" lon="151.290064">
  <ele>343.1</ele>
  <time>2026-09-01T19:50:36Z</time>
  <course>7.95</course>
  <speed>0.0</speed>
  <fix>3d</fix>
</trkpt>
<trkpt lat="-27.274439" lon="151.290064">
  <ele>343.1</ele>
  <time>2026-09-01T19:50:36Z</time>
  <course>323.0</course>
  <speed>0.0</speed>
  <fix>3d</fix>
</trkpt>
<trkpt lat="-27.274439" lon="151.290064">
  <ele>343.1</ele>
  <time>2026-09-01T19:50:36Z</time>
  <course>7.95</course>
  <speed>0.0</speed>
  <fix>3d</fix>
</trkpt>
<trkpt lat="-27.274439" lon="151.290064">
  <ele>343.1</ele>
  <time>2026-09-01T19:50:36Z</time>
  <course>323.0</course>
  <speed>0.0</speed>
  <fix>3d</fix>
</trkpt>
<trkpt lat="-27.274439" lon="151.290064">
  <ele>343.1</ele>
  <time>2026-09-01T19:50:36Z</time>
  <course>7.95</course>
  <speed>0.0</speed>
  <fix>3d</fix>
</trkpt>
<trkpt lat="-27.274439" lon="151.290064">
  <ele>343.1</ele>
  <time>2026-09-01T19:50:36Z</time>
  <course>143.0</course>
  <speed>0.0</speed>
  <fix>3d</fix>
</trkpt>
<trkpt lat="-27.274439" lon="151.290064">
  <ele>343.1</ele>
  <time>2026-09-01T19:50:36Z</time>
  <course>7.95</course>
  <speed>0.0</speed>
  <fix>3d</fix>
</trkpt>
<trkpt lat="-27.274439" lon="151.290064">
  <ele>343.1</ele>
  <time>2026-09-01T19:50:36Z</time>
  <course>143.0</course>
  <speed>0.0</speed>
  <fix>3d</fix>
</trkpt>
<trkpt lat="-27.274439" lon="151.290064">
  <ele>343.1</ele>
  <time>2026-09-01T19:50:36Z</time>
  <course>7.94</course>
  <speed>0.0</speed>
  <fix>3d</fix>
</trkpt>
<trkpt lat="-27.274439" lon="151.290064">
  <ele>343.1</ele>
  <time>2026-09-01T19:50:36Z</time>
  <course>143.0</course>
  <speed>0.0</speed>
  <fix>3d</fix>
</trkpt>
<trkpt lat="-27.274439" lon="151.290064">
  <ele>343.1</ele>
  <time>2026-09-01T19:50:36Z</time>
  <course>7.94</course>
  <speed>0.0</speed>
  <fix>3d</fix>
</trkpt>
<trkpt lat="-27.274439" lon="151.290064">
  <ele>343.1</ele>
  <time>2026-09-01T19:50:36Z</time>
  <course>143.0</course>
  <speed>0.0</speed>
  <fix>3d</fix>
</trkpt>
<trkpt lat="-27.274439" lon="151.290064">
  <ele>343.1</ele>
  <time>2026-09-01T19:50:36Z</time>
  <course>7.94</course>
  <speed>0.0</speed>
  <fix>3d</fix>
</trkpt>
<trkpt lat="-27.274439" lon="151.290064">
  <ele>343.1</ele>
  <time>2026-09-01T19:50:36Z</time>
  <course>322.99</course>
  <speed>0.0</speed>
  <fix>3d</fix>
</trkpt>
<trkpt lat="-27.274439" lon="151.290064">
  <ele>343.1</ele>
  <time>2026-09-01T19:50:36Z</time>
  <course>7.94</course>
  <speed>0.0</speed>
  <fix>3d</fix>
</trkpt>
<trkpt lat="-27.274439" lon="151.290064">
  <ele>343.1</ele>
  <time>2026-09-01T19:50:36Z</time>
  <course>322.99</course>
  <speed>0.0</speed>
  <fix>3d</fix>
</trkpt>
<trkpt lat="-27.274439" lon="151.290064">
  <ele>343.1</ele>
  <time>2026-09-01T19:50:36Z</time>
  <course>7.94</course>
  <speed>0.0</speed>
  <fix>3d</fix>
</trkpt>
<trkpt lat="-27.274439" lon="151.290064">
  <ele>343.1</ele>
  <time>2026-09-01T19:50:36Z</time>
  <course>322.91</course>
  <speed>0.0</speed>
  <fix>3d</fix>
</trkpt>
<trkpt lat="-27.274439" lon="151.290064">
  <ele>343.1</ele>
  <time>2026-09-01T19:50:36Z</time>
  <course>7.93</course>
  <speed>0.0</speed>
  <fix>3d</fix>
</trkpt>
<trkpt lat="-27.274439" lon="151.290064">
  <ele>343.1</ele>
  <time>2026-09-01T19:50:36Z</time>
  <course>322.91</course>
  <speed>0.0</speed>
  <fix>3d</fix>
</trkpt>
<trkpt lat="-27.274439" lon="151.290064">
  <ele>343.1</ele>
  <time>2026-09-01T19:50:36Z</time>
  <course>7.93</course>
  <speed>0.0</speed>
  <fix>3d</fix>
</trkpt>
<trkpt lat="-27.274439" lon="151.290064">
  <ele>343.1</ele>
  <time>2026-09-01T19:50:36Z</time>
  <course>143.05</course>
  <speed>0.0</speed>
  <fix>3d</fix>
</trkpt>
<trkpt lat="-27.274439" lon="151.290064">
  <ele>343.1</ele>
  <time>2026-09-01T19:50:36Z</time>
  <course>7.93</course>
  <speed>0.0</speed>
  <fix>3d</fix>
</trkpt>
<trkpt lat="-27.274439" lon="151.290064">
  <ele>343.1</ele>
  <time>2026-09-01T19:50:36Z</time>
  <course>143.05</course>
  <speed>0.0</speed>
  <fix>3d</fix>
</trkpt>
<trkpt lat="-27.274439" lon="151.290064">
  <ele>343.1</ele>
  <time>2026-09-01T19:50:36Z</time>
  <course>7.93</course>
  <speed>0.0</speed>
  <fix>3d</fix>
</trkpt>
<trkpt lat="-27.274439" lon="151.290064">
  <ele>343.1</ele>
  <time>2026-09-01T19:50:36Z</time>
  <course>324.47</course>
  <speed>0.0</speed>
  <fix>3d</fix>
</trkpt>
<trkpt lat="-27.274439" lon="151.290064">
  <ele>343.1</ele>
  <time>2026-09-01T19:50:36Z</time>
  <course>7.93</course>
  <speed>0.0</speed>
  <fix>3d</fix>
</trkpt>
<trkpt lat="-27.274439" lon="151.290064">
  <ele>343.1</ele>
  <time>2026-09-01T19:50:36Z</time>
  <course>324.47</course>
  <speed>0.0</speed>
  <fix>3d</fix>
</trkpt>
<trkpt lat="-27.274439" lon="151.290064">
  <ele>343.1</ele>
  <time>2026-09-01T19:50:36Z</time>
  <course>7.92</course>
  <speed>0.0</speed>
  <fix>3d</fix>
</trkpt>
<trkpt lat="-27.274439" lon="151.290064">
  <ele>343.1</ele>
  <time>2026-09-01T19:50:36Z</time>
  <course>324.32</course>
  <speed>0.0</speed>
  <fix>3d</fix>
</trkpt>
<trkpt lat="-27.274439" lon="151.290064">
  <ele>343.1</ele>
  <time>2026-09-01T19:50:36Z</time>
  <course>7.92</course>
  <speed>0.0</speed>
  <fix>3d</fix>
</trkpt>
<trkpt lat="-27.274439" lon="151.290064">
  <ele>343.1</ele>
  <time>2026-09-01T19:50:36Z</time>
  <course>324.32</course>
  <speed>0.0</speed>
  <fix>3d</fix>
</trkpt>
<trkpt lat="-27.274439" lon="151.290064">
  <ele>343.1</ele>
  <time>2026-09-01T19:50:36Z</time>
  <course>7.92</course>
  <speed>0.0</speed>
  <fix>3d</fix>
</trkpt>
<trkpt lat="-27.274439" lon="151.290064">
  <ele>343.1</ele>
  <time>2026-09-01T19:50:36Z</time>
  <course>131.36</course>
  <speed>0.0</speed>
  <fix>3d</fix>
</trkpt>
<trkpt lat="-27.274439" lon="151.290064">
  <ele>343.1</ele>
  <time>2026-09-01T19:50:36Z</time>
  <course>7.92</course>
  <speed>0.0</speed>
  <fix>3d</fix>
</trkpt>
<trkpt lat="-27.274439" lon="151.290064">
  <ele>343.1</ele>
  <time>2026-09-01T19:50:36Z</time>
  <course>131.36</course>
  <speed>0.0</speed>
  <fix>3d</fix>
</trkpt>
<trkpt lat="-27.274439" lon="151.290064">
  <ele>343.1</ele>
  <time>2026-09-01T19:50:36Z</time>
  <course>7.92</course>
  <speed>0.0</speed>
  <fix>3d</fix>
</trkpt>
<trkpt lat="-27.274439" lon="151.290064">
  <ele>343.1</ele>
  <time>2026-09-01T19:50:36Z</time>
  <course>141.04</course>
  <speed>0.0</speed>
  <fix>3d</fix>
</trkpt>
<trkpt lat="-27.274439" lon="151.290064">
  <ele>343.1</ele>
  <time>2026-09-01T19:50:36Z</time>
  <course>7.91</course>
  <speed>0.0</speed>
  <fix>3d</fix>
</trkpt>
<trkpt lat="-27.274439" lon="151.290064">
  <ele>343.1</ele>
  <time>2026-09-01T19:50:36Z</time>
  <course>141.04</course>
  <speed>0.0</speed>
  <fix>3d</fix>
</trkpt>
<trkpt lat="-27.274439" lon="151.290064">
  <ele>343.1</ele>
  <time>2026-09-01T19:50:36Z</time>
  <course>7.91</course>
  <speed>0.0</speed>
  <fix>3d</fix>
</trkpt>
<trkpt lat="-27.274439" lon="151.290064">
  <ele>343.1</ele>
  <time>2026-09-01T19:50:36Z</time>
  <course>252.86</course>
  <speed>0.0</speed>
  <fix>3d</fix>
</trkpt>
<trkpt lat="-27.274439" lon="151.290064">
  <ele>343.1</ele>
  <time>2026-09-01T19:50:36Z</time>
  <course>7.91</course>
  <speed>0.0</speed>
  <fix>3d</fix>
</trkpt>
<trkpt lat="-27.274439" lon="151.290064">
  <ele>343.1</ele>
  <time>2026-09-01T19:50:36Z</time>
  <course>252.86</course>
  <speed>0.0</speed>
  <fix>3d</fix>
</trkpt>
<trkpt lat="-27.274439" lon="151.290064">
  <ele>343.1</ele>
  <time>2026-09-01T19:50:36Z</time>
  <course>7.91</course>
  <speed>0.0</speed>
  <fix>3d</fix>
</trkpt>
<trkpt lat="-27.274439" lon="151.290064">
  <ele>343.1</ele>
  <time>2026-09-01T19:50:36Z</time>
  <course>305.23</course>
  <speed>0.0</speed>
  <fix>3d</fix>
</trkpt>
<trkpt lat="-27.274439" lon="151.290064">
  <ele>343.1</ele>
  <time>2026-09-01T19:50:36Z</time>
  <course>7.91</course>
  <speed>0.0</speed>
  <fix>3d</fix>
</trkpt>
<trkpt lat="-27.274439" lon="151.290064">
  <ele>343.1</ele>
  <time>2026-09-01T19:50:36Z</time>
  <course>305.23</course>
  <speed>0.0</speed>
  <fix>3d</fix>
</trkpt>
<trkpt lat="-27.274439" lon="151.290064">
  <ele>343.1</ele>
  <time>2026-09-01T19:50:36Z</time>
  <course>7.9</course>
  <speed>0.0</speed>
  <fix>3d</fix>
</trkpt>
<trkpt lat="-27.274439" lon="151.290064">
  <ele>343.1</ele>
  <time>2026-09-01T19:50:36Z</time>
  <course>351.55</course>
  <speed>0.0</speed>
  <fix>3d</fix>
</trkpt>
<trkpt lat="-27.274439" lon="151.290064">
  <ele>343.1</ele>
  <time>2026-09-01T19:50:36Z</time>
  <course>7.9</course>
  <speed>0.0</speed>
  <fix>3d</fix>
</trkpt>
<trkpt lat="-27.274439" lon="151.290064">
  <ele>343.1</ele>
  <time>2026-09-01T19:50:36Z</time>
  <course>351.55</course>
  <speed>0.0</speed>
  <fix>3d</fix>
</trkpt>
<trkpt lat="-27.274439" lon="151.290064">
  <ele>343.1</ele>
  <time>2026-09-01T19:50:36Z</time>
  <course>7.9</course>
  <speed>0.0</speed>
  <fix>3d</fix>
</trkpt>
<trkpt lat="-27.274439" lon="151.290064">
  <ele>343.1</ele>
  <time>2026-09-01T19:50:36Z</time>
  <course>358.89</course>
  <speed>0.0</speed>
  <fix>3d</fix>
</trkpt>
<trkpt lat="-27.274439" lon="151.290064">
  <ele>343.1</ele>
  <time>2026-09-01T19:50:36Z</time>
  <course>7.9</course>
  <speed>0.0</speed>
  <fix>3d</fix>
</trkpt>
<trkpt lat="-27.274439" lon="151.290064">
  <ele>343.1</ele>
  <time>2026-09-01T19:50:36Z</time>
  <course>358.89</course>
  <speed>0.0</speed>
  <fix>3d</fix>
</trkpt>
<trkpt lat="-27.274439" lon="151.290064">
  <ele>343.1</ele>
  <time>2026-09-01T19:50:36Z</time>
  <course>7.89</course>
  <speed>0.0</speed>
  <fix>3d</fix>
</trkpt>
<trkpt lat="-27.274439" lon="151.290064">
  <ele>343.1</ele>
  <time>2026-09-01T19:50:36Z</time>
  <course>359.85</course>
  <speed>0.0</speed>
  <fix>3d</fix>
</trkpt>
<trkpt lat="-27.274439" lon="151.290064">
  <ele>343.1</ele>
  <time>2026-09-01T19:50:36Z</time>
  <course>7.89</course>
  <speed>0.0</speed>
  <fix>3d</fix>
</trkpt>
<trkpt lat="-27.274439" lon="151.290064">
  <ele>343.1</ele>
  <time>2026-09-01T19:50:36Z</time>
  <course>359.85</course>
  <speed>0.0</speed>
  <fix>3d</fix>
</trkpt>
<trkpt lat="-27.274439" lon="151.290064">
  <ele>343.1</ele>
  <time>2026-09-01T19:50:36Z</time>
  <course>7.89</course>
  <speed>0.0</speed>
  <fix>3d</fix>
</trkpt>
<trkpt lat="-27.274439" lon="151.290064">
  <ele>343.1</ele>
  <time>2026-09-01T19:50:36Z</time>
  <course>359.98</course>
  <speed>0.0</speed>
  <fix>3d</fix>
</trkpt>
<trkpt lat="-27.274439" lon="151.290064">
  <ele>343.1</ele>
  <time>2026-09-01T19:50:36Z</time>
  <course>7.89</course>
  <speed>0.0</speed>
  <fix>3d</fix>
</trkpt>
<trkpt lat="-27.274439" lon="151.290064">
  <ele>343.1</ele>
  <time>2026-09-01T19:50:36Z</time>
  <course>359.98</course>
  <speed>0.0</speed>
  <fix>3d</fix>
</trkpt>
<trkpt lat="-27.274439" lon="151.290064">
  <ele>343.1</ele>
  <time>2026-09-01T19:50:36Z</time>
  <course>7.89</course>
  <speed>0.0</speed>
  <fix>3d</fix>
</trkpt>
<trkpt lat="-27.274439" lon="151.290064">
  <ele>343.1</ele>
  <time>2026-09-01T19:50:36Z</time>
  <course>359.99</course>
  <speed>0.0</speed>
  <fix>3d</fix>
</trkpt>
<trkpt lat="-27.274439" lon="151.290064">
  <ele>343.1</ele>
  <time>2026-09-01T19:50:36Z</time>
  <course>7.88</course>
  <speed>0.0</speed>
  <fix>3d</fix>
</trkpt>
<trkpt lat="-27.274439" lon="151.290064">
  <ele>343.1</ele>
  <time>2026-09-01T19:50:36Z</time>
  <course>359.99</course>
  <speed>0.0</speed>
  <fix>3d</fix>
</trkpt>
<trkpt lat="-27.274439" lon="151.290064">
  <ele>343.1</ele>
  <time>2026-09-01T19:50:36Z</time>
  <course>7.88</course>
  <speed>0.0</speed>
  <fix>3d</fix>
</trkpt>
<trkpt lat="-27.274439" lon="151.290064">
  <ele>343.1</ele>
  <time>2026-09-01T19:50:36Z</time>
  <course>359.99</course>
  <speed>0.0</speed>
  <fix>3d</fix>
</trkpt>
<trkpt lat="-27.274439" lon="151.290064">
  <ele>343.1</ele>
  <time>2026-09-01T19:50:36Z</time>
  <course>7.88</course>
  <speed>0.0</speed>
  <fix>3d</fix>
</trkpt>
<trkpt lat="-27.274439" lon="151.290064">
  <ele>343.1</ele>
  <time>2026-09-01T19:50:36Z</time>
  <course>359.99</course>
  <speed>0.0</speed>
  <fix>3d</fix>
</trkpt>
<trkpt lat="-27.274439" lon="151.290064">
  <ele>343.1</ele>
  <time>2026-09-01T19:50:36Z</time>
  <course>7.88</course>
  <speed>0.0</speed>
  <fix>3d</fix>
</trkpt>
<trkpt lat="-27.274439" lon="151.290064">
  <ele>343.1</ele>
  <time>2026-09-01T19:50:36Z</time>
  <course>359.99</course>
  <speed>0.0</speed>
  <fix>3d</fix>
</trkpt>
<trkpt lat="-27.274439" lon="151.290064">
  <ele>343.1</ele>
  <time>2026-09-01T19:50:36Z</time>
  <course>7.88</course>
  <speed>0.0</speed>
  <fix>3d</fix>
</trkpt>
<trkpt lat="-27.274439" lon="151.290064">
  <ele>343.1</ele>
  <time>2026-09-01T19:50:36Z</time>
  <course>359.99</course>
  <speed>0.0</speed>
  <fix>3d</fix>
</trkpt>
<trkpt lat="-27.274439" lon="151.290064">
  <ele>343.1</ele>
  <time>2026-09-01T19:50:36Z</time>
  <course>7.87</course>
  <speed>0.0</speed>
  <fix>3d</fix>
</trkpt>
<trkpt lat="-27.274439" lon="151.290064">
  <ele>343.1</ele>
  <time>2026-09-01T19:50:36Z</time>
  <course>0.0</course>
  <speed>0.0</speed>
  <fix>3d</fix>
</trkpt>
<trkpt lat="-27.274439" lon="151.290064">
  <ele>343.1</ele>
  <time>2026-09-01T19:50:36Z</time>
  <course>7.87</course>
  <speed>0.0</speed>
  <fix>3d</fix>
</trkpt>
<trkpt lat="-27.274439" lon="151.290064">
  <ele>343.1</ele>
  <time>2026-09-01T19:50:36Z</time>
  <course>0.0</course>
  <speed>0.0</speed>
  <fix>3d</fix>
</trkpt>
<trkpt lat="-27.274439" lon="151.290064">
  <ele>343.1</ele>
  <time>2026-09-01T19:50:36Z</time>
  <course>7.87</course>
  <speed>0.0</speed>
  <fix>3d</fix>
</trkpt>
<trkpt lat="-27.274439" lon="151.290064">
  <ele>343.1</ele>
  <time>2026-09-01T19:50:36Z</time>
  <course>0.0</course>
  <speed>0.0</speed>
  <fix>3d</fix>
</trkpt>
<trkpt lat="-27.274439" lon="151.290064">
  <ele>343.1</ele>
  <time>2026-09-01T19:50:36Z</time>
  <course>7.87</course>
  <speed>0.0</speed>
  <fix>3d</fix>
</trkpt>
<trkpt lat="-27.274439" lon="151.290064">
  <ele>343.1</ele>
  <time>2026-09-01T19:50:36Z</time>
  <course>0.0</course>
  <speed>0.0</speed>
  <fix>3d</fix>
</trkpt>
<trkpt lat="-27.274439" lon="151.290064">
  <ele>343.1</ele>
  <time>2026-09-01T19:50:36Z</time>
  <course>7.87</course>
  <speed>0.0</speed>
  <fix>3d</fix>
</trkpt>
<trkpt lat="-27.274439" lon="151.290064">
  <ele>343.1</ele>
  <time>2026-09-01T19:50:36Z</time>
  <course>0.0</course>
  <speed>0.0</speed>
  <fix>3d</fix>
</trkpt>
<trkpt lat="-27.274439" lon="151.290064">
  <ele>343.1</ele>
  <time>2026-09-01T19:50:36Z</time>
  <course>7.86</course>
  <speed>0.0</speed>
  <fix>3d</fix>
</trkpt>
<trkpt lat="-27.274439" lon="151.290064">
  <ele>343.1</ele>
  <time>2026-09-01T19:50:36Z</time>
  <course>0.0</course>
  <speed>0.0</speed>
  <fix>3d</fix>
</trkpt>
<trkpt lat="-27.274439" lon="151.290064">
  <ele>343.1</ele>
  <time>2026-09-01T19:50:36Z</time>
  <course>7.86</course>
  <speed>0.0</speed>
  <fix>3d</fix>
</trkpt>
<trkpt lat="-27.274439" lon="151.290064">
  <ele>343.1</ele>
  <time>2026-09-01T19:50:36Z</time>
  <course>0.0</course>
  <speed>0.0</speed>
  <fix>3d</fix>
</trkpt>
<trkpt lat="-27.274439" lon="151.290064">
  <ele>343.1</ele>
  <time>2026-09-01T19:50:36Z</time>
  <course>7.86</course>
  <speed>0.0</speed>
  <fix>3d</fix>
</trkpt>
<trkpt lat="-27.274439" lon="151.290064">
  <ele>343.1</ele>
  <time>2026-09-01T19:50:36Z</time>
  <course>0.0</course>
  <speed>0.0</speed>
  <fix>3d</fix>
</trkpt>
<trkpt lat="-27.274439" lon="151.290064">
  <ele>343.1</ele>
  <time>2026-09-01T19:50:36Z</time>
  <course>7.86</course>
  <speed>0.0</speed>
  <fix>3d</fix>
</trkpt>
<trkpt lat="-27.274439" lon="151.290064">
  <ele>343.1</ele>
  <time>2026-09-01T19:50:36Z</time>
  <course>0.0</course>
  <speed>0.0</speed>
  <fix>3d</fix>
</trkpt>
<trkpt lat="-27.274439" lon="151.290064">
  <ele>343.1</ele>
  <time>2026-09-01T19:50:36Z</time>
  <course>7.86</course>
  <speed>0.0</speed>
  <fix>3d</fix>
</trkpt>
<trkpt lat="-27.274439" lon="151.290064">
  <ele>343.1</ele>
  <time>2026-09-01T19:50:36Z</time>
  <course>0.0</course>
  <speed>0.0</speed>
  <fix>3d</fix>
</trkpt>
<trkpt lat="-27.274439" lon="151.290064">
  <ele>343.1</ele>
  <time>2026-09-01T19:50:36Z</time>
  <course>7.85</course>
  <speed>0.0</speed>
  <fix>3d</fix>
</trkpt>
<trkpt lat="-27.274439" lon="151.290064">
  <ele>343.1</ele>
  <time>2026-09-01T19:50:36Z</time>
  <course>0.0</course>
  <speed>0.0</speed>
  <fix>3d</fix>
</trkpt>
<trkpt lat="-27.274439" lon="151.290064">
  <ele>343.1</ele>
  <time>2026-09-01T19:50:36Z</time>
  <course>7.85</course>
  <speed>0.0</speed>
  <fix>3d</fix>
</trkpt>
<trkpt lat="-27.274439" lon="151.290064">
  <ele>343.1</ele>
  <time>2026-09-01T19:50:36Z</time>
  <course>0.0</course>
  <speed>0.0</speed>
  <fix>3d</fix>
</trkpt>
<trkpt lat="-27.274439" lon="151.290064">
  <ele>343.1</ele>
  <time>2026-09-01T19:50:36Z</time>
  <course>7.85</course>
  <speed>0.0</speed>
  <fix>3d</fix>
</trkpt>
<trkpt lat="-27.274439" lon="151.290064">
  <ele>343.1</ele>
  <time>2026-09-01T19:50:36Z</time>
  <course>0.0</course>
  <speed>0.0</speed>
  <fix>3d</fix>
</trkpt>
<trkpt lat="-27.274439" lon="151.290064">
  <ele>343.1</ele>
  <time>2026-09-01T19:50:36Z</time>
  <course>7.85</course>
  <speed>0.0</speed>
  <fix>3d</fix>
</trkpt>
<trkpt lat="-27.274439" lon="151.290064">
  <ele>343.1</ele>
  <time>2026-09-01T19:50:36Z</time>
  <course>0.0</course>
  <speed>0.0</speed>
  <fix>3d</fix>
</trkpt>
<trkpt lat="-27.274439" lon="151.290064">
  <ele>343.1</ele>
  <time>2026-09-01T19:50:36Z</time>
  <course>7.84</course>
  <speed>0.0</speed>
  <fix>3d</fix>
</trkpt>
<trkpt lat="-27.274439" lon="151.290064">
  <ele>343.1</ele>
  <time>2026-09-01T19:50:36Z</time>
  <course>0.0</course>
  <speed>0.0</speed>
  <fix>3d</fix>
</trkpt>
<trkpt lat="-27.274439" lon="151.290064">
  <ele>343.1</ele>
  <time>2026-09-01T19:50:36Z</time>
  <course>7.84</course>
  <speed>0.0</speed>
  <fix>3d</fix>
</trkpt>
<trkpt lat="-27.274439" lon="151.290064">
  <ele>343.1</ele>
  <time>2026-09-01T19:50:36Z</time>
  <course>0.0</course>
  <speed>0.0</speed>
  <fix>3d</fix>
</trkpt>
<trkpt lat="-27.274439" lon="151.290064">
  <ele>343.1</ele>
  <time>2026-09-01T19:50:36Z</time>
  <course>7.84</course>
  <speed>0.0</speed>
  <fix>3d</fix>
</trkpt>
<trkpt lat="-27.274439" lon="151.290064">
  <ele>343.1</ele>
  <time>2026-09-01T19:50:36Z</time>
  <course>0.0</course>
  <speed>0.0</speed>
  <fix>3d</fix>
</trkpt>
<trkpt lat="-27.274439" lon="151.290064">
  <ele>343.1</ele>
  <time>2026-09-01T19:50:36Z</time>
  <course>7.84</course>
  <speed>0.0</speed>
  <fix>3d</fix>
</trkpt>
<trkpt lat="-27.274439" lon="151.290064">
  <ele>343.1</ele>
  <time>2026-09-01T19:50:36Z</time>
  <course>0.0</course>
  <speed>0.0</speed>
  <fix>3d</fix>
</trkpt>
<trkpt lat="-27.274439" lon="151.290064">
  <ele>343.1</ele>
  <time>2026-09-01T19:50:36Z</time>
  <course>7.84</course>
  <speed>0.0</speed>
  <fix>3d</fix>
</trkpt>
<trkpt lat="-27.274439" lon="151.290064">
  <ele>343.1</ele>
  <time>2026-09-01T19:50:36Z</time>
  <course>0.0</course>
  <speed>0.0</speed>
  <fix>3d</fix>
</trkpt>
<trkpt lat="-27.274439" lon="151.290064">
  <ele>343.1</ele>
  <time>2026-09-01T19:50:36Z</time>
  <course>7.83</course>
  <speed>0.0</speed>
  <fix>3d</fix>
</trkpt>
<trkpt lat="-27.274439" lon="151.290064">
  <ele>343.1</ele>
  <time>2026-09-01T19:50:36Z</time>
  <course>0.0</course>
  <speed>0.0</speed>
  <fix>3d</fix>
</trkpt>
<trkpt lat="-27.274439" lon="151.290064">
  <ele>343.1</ele>
  <time>2026-09-01T19:50:36Z</time>
  <course>7.83</course>
  <speed>0.0</speed>
  <fix>3d</fix>
</trkpt>
<trkpt lat="-27.274439" lon="151.290064">
  <ele>343.1</ele>
  <time>2026-09-01T19:50:36Z</time>
  <course>0.0</course>
  <speed>0.0</speed>
  <fix>3d</fix>
</trkpt>
<trkpt lat="-27.274439" lon="151.290064">
  <ele>343.1</ele>
  <time>2026-09-01T19:50:36Z</time>
  <course>7.83</course>
  <speed>0.0</speed>
  <fix>3d</fix>
</trkpt>
<trkpt lat="-27.274439" lon="151.290064">
  <ele>343.1</ele>
  <time>2026-09-01T19:50:36Z</time>
  <course>0.0</course>
  <speed>0.0</speed>
  <fix>3d</fix>
</trkpt>
<trkpt lat="-27.274439" lon="151.290064">
  <ele>343.1</ele>
  <time>2026-09-01T19:50:36Z</time>
  <course>7.83</course>
  <speed>0.0</speed>
  <fix>3d</fix>
</trkpt>
<trkpt lat="-27.274439" lon="151.290064">
  <ele>343.1</ele>
  <time>2026-09-01T19:50:36Z</time>
  <course>0.0</course>
  <speed>0.0</speed>
  <fix>3d</fix>
</trkpt>
<trkpt lat="-27.274439" lon="151.290064">
  <ele>343.1</ele>
  <time>2026-09-01T19:50:36Z</time>
  <course>7.83</course>
  <speed>0.0</speed>
  <fix>3d</fix>
</trkpt>
<trkpt lat="-27.274439" lon="151.290064">
  <ele>343.1</ele>
  <time>2026-09-01T19:50:36Z</time>
  <course>0.0</course>
  <speed>0.0</speed>
  <fix>3d</fix>
</trkpt>
<trkpt lat="-27.274439" lon="151.290064">
  <ele>343.1</ele>
  <time>2026-09-01T19:50:36Z</time>
  <course>7.82</course>
  <speed>0.0</speed>
  <fix>3d</fix>
</trkpt>
<trkpt lat="-27.274439" lon="151.290064">
  <ele>343.1</ele>
  <time>2026-09-01T19:50:36Z</time>
  <course>0.0</course>
  <speed>0.0</speed>
  <fix>3d</fix>
</trkpt>
<trkpt lat="-27.274439" lon="151.290064">
  <ele>343.1</ele>
  <time>2026-09-01T19:50:36Z</time>
  <course>7.82</course>
  <speed>0.0</speed>
  <fix>3d</fix>
</trkpt>
<trkpt lat="-27.274439" lon="151.290064">
  <ele>343.1</ele>
  <time>2026-09-01T19:50:36Z</time>
  <course>0.0</course>
  <speed>0.0</speed>
  <fix>3d</fix>
</trkpt>
<trkpt lat="-27.274439" lon="151.290064">
  <ele>343.1</ele>
  <time>2026-09-01T19:50:36Z</time>
  <course>7.82</course>
  <speed>0.0</speed>
  <fix>3d</fix>
</trkpt>
<trkpt lat="-27.274439" lon="151.290064">
  <ele>343.1</ele>
  <time>2026-09-01T19:50:36Z</time>
  <course>0.0</course>
  <speed>0.0</speed>
  <fix>3d</fix>
</trkpt>
<trkpt lat="-27.274439" lon="151.290064">
  <ele>343.1</ele>
  <time>2026-09-01T19:50:36Z</time>
  <course>7.82</course>
  <speed>0.0</speed>
  <fix>3d</fix>
</trkpt>
<trkpt lat="-27.274439" lon="151.290064">
  <ele>343.1</ele>
  <time>2026-09-01T19:50:36Z</time>
  <course>0.0</course>
  <speed>0.0</speed>
  <fix>3d</fix>
</trkpt>
<trkpt lat="-27.274439" lon="151.290064">
  <ele>343.1</ele>
  <time>2026-09-01T19:50:36Z</time>
  <course>7.82</course>
  <speed>0.0</speed>
  <fix>3d</fix>
</trkpt>
<trkpt lat="-27.274439" lon="151.290064">
  <ele>343.1</ele>
  <time>2026-09-01T19:50:36Z</time>
  <course>0.0</course>
  <speed>0.0</speed>
  <fix>3d</fix>
</trkpt>
<trkpt lat="-27.274439" lon="151.290064">
  <ele>343.1</ele>
  <time>2026-09-01T19:50:36Z</time>
  <course>7.81</course>
  <speed>0.0</speed>
  <fix>3d</fix>
</trkpt>
<trkpt lat="-27.274439" lon="151.290064">
  <ele>343.1</ele>
  <time>2026-09-01T19:50:36Z</time>
  <course>0.0</course>
  <speed>0.0</speed>
  <fix>3d</fix>
</trkpt>
<trkpt lat="-27.274439" lon="151.290064">
  <ele>343.1</ele>
  <time>2026-09-01T19:50:36Z</time>
  <course>7.81</course>
  <speed>0.0</speed>
  <fix>3d</fix>
</trkpt>
<trkpt lat="-27.274439" lon="151.290064">
  <ele>343.1</ele>
  <time>2026-09-01T19:50:36Z</time>
  <course>0.0</course>
  <speed>0.0</speed>
  <fix>3d</fix>
</trkpt>
<trkpt lat="-27.274439" lon="151.290064">
  <ele>343.1</ele>
  <time>2026-09-01T19:50:36Z</time>
  <course>7.81</course>
  <speed>0.0</speed>
  <fix>3d</fix>
</trkpt>
<trkpt lat="-27.274439" lon="151.290064">
  <ele>343.1</ele>
  <time>2026-09-01T19:50:36Z</time>
  <course>0.0</course>
  <speed>0.0</speed>
  <fix>3d</fix>
</trkpt>
<trkpt lat="-27.274439" lon="151.290064">
  <ele>343.1</ele>
  <time>2026-09-01T19:50:36Z</time>
  <course>7.81</course>
  <speed>0.0</speed>
  <fix>3d</fix>
</trkpt>
<trkpt lat="-27.274439" lon="151.290064">
  <ele>343.1</ele>
  <time>2026-09-01T19:50:36Z</time>
  <course>0.0</course>
  <speed>0.0</speed>
  <fix>3d</fix>
</trkpt>
<trkpt lat="-27.274439" lon="151.290064">
  <ele>343.1</ele>
  <time>2026-09-01T19:50:36Z</time>
  <course>7.81</course>
  <speed>0.0</speed>
  <fix>3d</fix>
</trkpt>
<trkpt lat="-27.274439" lon="151.290064">
  <ele>343.1</ele>
  <time>2026-09-01T19:50:36Z</time>
  <course>0.0</course>
  <speed>0.0</speed>
  <fix>3d</fix>
</trkpt>
<trkpt lat="-27.274439" lon="151.290064">
  <ele>343.1</ele>
  <time>2026-09-01T19:50:36Z</time>
  <course>7.8</course>
  <speed>0.0</speed>
  <fix>3d</fix>
</trkpt>
<trkpt lat="-27.274439" lon="151.290064">
  <ele>343.1</ele>
  <time>2026-09-01T19:50:36Z</time>
  <course>0.0</course>
  <speed>0.0</speed>
  <fix>3d</fix>
</trkpt>
<trkpt lat="-27.274439" lon="151.290064">
  <ele>343.1</ele>
  <time>2026-09-01T19:50:36Z</time>
  <course>7.8</course>
  <speed>0.0</speed>
  <fix>3d</fix>
</trkpt>
<trkpt lat="-27.274439" lon="151.290064">
  <ele>343.1</ele>
  <time>2026-09-01T19:50:36Z</time>
  <course>0.0</course>
  <speed>0.0</speed>
  <fix>3d</fix>
</trkpt>
<trkpt lat="-27.274439" lon="151.290064">
  <ele>343.1</ele>
  <time>2026-09-01T19:50:36Z</time>
  <course>7.8</course>
  <speed>0.0</speed>
  <fix>3d</fix>
</trkpt>
<trkpt lat="-27.274439" lon="151.290064">
  <ele>343.1</ele>
  <time>2026-09-01T19:50:36Z</time>
  <course>0.0</course>
  <speed>0.0</speed>
  <fix>3d</fix>
</trkpt>
<trkpt lat="-27.274439" lon="151.290064">
  <ele>343.1</ele>
  <time>2026-09-01T19:50:36Z</time>
  <course>7.8</course>
  <speed>0.0</speed>
  <fix>3d</fix>
</trkpt>
<trkpt lat="-27.274439" lon="151.290064">
  <ele>343.1</ele>
  <time>2026-09-01T19:50:36Z</time>
  <course>0.0</course>
  <speed>0.0</speed>
  <fix>3d</fix>
</trkpt>
<trkpt lat="-27.274439" lon="151.290064">
  <ele>343.1</ele>
  <time>2026-09-01T19:50:36Z</time>
  <course>7.79</course>
  <speed>0.0</speed>
  <fix>3d</fix>
</trkpt>
<trkpt lat="-27.274439" lon="151.290064">
  <ele>343.1</ele>
  <time>2026-09-01T19:50:36Z</time>
  <course>0.0</course>
  <speed>0.0</speed>
  <fix>3d</fix>
</trkpt>
<trkpt lat="-27.274439" lon="151.290064">
  <ele>343.1</ele>
  <time>2026-09-01T19:50:36Z</time>
  <course>7.79</course>
  <speed>0.0</speed>
  <fix>3d</fix>
</trkpt>
<trkpt lat="-27.274439" lon="151.290064">
  <ele>343.1</ele>
  <time>2026-09-01T19:50:36Z</time>
  <course>0.0</course>
  <speed>0.0</speed>
  <fix>3d</fix>
</trkpt>
<trkpt lat="-27.274439" lon="151.290064">
  <ele>343.1</ele>
  <time>2026-09-01T19:50:36Z</time>
  <course>7.79</course>
  <speed>0.0</speed>
  <fix>3d</fix>
</trkpt>
<trkpt lat="-27.274439" lon="151.290064">
  <ele>343.1</ele>
  <time>2026-09-01T19:50:36Z</time>
  <course>0.0</course>
  <speed>0.0</speed>
  <fix>3d</fix>
</trkpt>
<trkpt lat="-27.274439" lon="151.290064">
  <ele>343.1</ele>
  <time>2026-09-01T19:50:36Z</time>
  <course>7.79</course>
  <speed>0.0</speed>
  <fix>3d</fix>
</trkpt>
<trkpt lat="-27.274439" lon="151.290064">
  <ele>343.1</ele>
  <time>2026-09-01T19:50:36Z</time>
  <course>0.0</course>
  <speed>0.0</speed>
  <fix>3d</fix>
</trkpt>
<trkpt lat="-27.274439" lon="151.290064">
  <ele>343.1</ele>
  <time>2026-09-01T19:50:36Z</time>
  <course>7.79</course>
  <speed>0.0</speed>
  <fix>3d</fix>
</trkpt>
<trkpt lat="-27.274439" lon="151.290064">
  <ele>343.1</ele>
  <time>2026-09-01T19:50:36Z</time>
  <course>0.0</course>
  <speed>0.0</speed>
  <fix>3d</fix>
</trkpt>
<trkpt lat="-27.274439" lon="151.290064">
  <ele>343.1</ele>
  <time>2026-09-01T19:50:36Z</time>
  <course>7.78</course>
  <speed>0.0</speed>
  <fix>3d</fix>
</trkpt>
<trkpt lat="-27.274439" lon="151.290064">
  <ele>343.1</ele>
  <time>2026-09-01T19:50:36Z</time>
  <course>0.0</course>
  <speed>0.0</speed>
  <fix>3d</fix>
</trkpt>
<trkpt lat="-27.274439" lon="151.290064">
  <ele>343.1</ele>
  <time>2026-09-01T19:50:36Z</time>
  <course>7.78</course>
  <speed>0.0</speed>
  <fix>3d</fix>
</trkpt>
<trkpt lat="-27.274439" lon="151.290064">
  <ele>343.1</ele>
  <time>2026-09-01T19:50:36Z</time>
  <course>0.0</course>
  <speed>0.0</speed>
  <fix>3d</fix>
</trkpt>
<trkpt lat="-27.274439" lon="151.290064">
  <ele>343.1</ele>
  <time>2026-09-01T19:50:37Z</time>
  <course>7.78</course>
  <speed>0.0</speed>
  <fix>3d</fix>
</trkpt>
<trkpt lat="-27.274439" lon="151.290064">
  <ele>343.1</ele>
  <time>2026-09-01T19:50:37Z</time>
  <course>0.0</course>
  <speed>0.0</speed>
  <fix>3d</fix>
</trkpt>
<trkpt lat="-27.274439" lon="151.290064">
  <ele>343.1</ele>
  <time>2026-09-01T19:50:37Z</time>
  <course>7.78</course>
  <speed>0.0</speed>
  <fix>3d</fix>
</trkpt>
<trkpt lat="-27.274439" lon="151.290064">
  <ele>343.1</ele>
  <time>2026-09-01T19:50:37Z</time>
  <course>0.0</course>
  <speed>0.0</speed>
  <fix>3d</fix>
</trkpt>
<trkpt lat="-27.274439" lon="151.290064">
  <ele>343.1</ele>
  <time>2026-09-01T19:50:37Z</time>
  <course>7.78</course>
  <speed>0.0</speed>
  <fix>3d</fix>
</trkpt>
<trkpt lat="-27.274439" lon="151.290064">
  <ele>343.1</ele>
  <time>2026-09-01T19:50:37Z</time>
  <course>0.0</course>
  <speed>0.0</speed>
  <fix>3d</fix>
</trkpt>
<trkpt lat="-27.274439" lon="151.290064">
  <ele>343.1</ele>
  <time>2026-09-01T19:50:37Z</time>
  <course>7.77</course>
  <speed>0.0</speed>
  <fix>3d</fix>
</trkpt>
<trkpt lat="-27.274439" lon="151.290064">
  <ele>343.1</ele>
  <time>2026-09-01T19:50:37Z</time>
  <course>0.0</course>
  <speed>0.0</speed>
  <fix>3d</fix>
</trkpt>
<trkpt lat="-27.274439" lon="151.290064">
  <ele>343.1</ele>
  <time>2026-09-01T19:50:37Z</time>
  <course>7.77</course>
  <speed>0.0</speed>
  <fix>3d</fix>
</trkpt>
<trkpt lat="-27.274439" lon="151.290064">
  <ele>343.1</ele>
  <time>2026-09-01T19:50:37Z</time>
  <course>0.0</course>
  <speed>0.0</speed>
  <fix>3d</fix>
</trkpt>
<trkpt lat="-27.274439" lon="151.290064">
  <ele>343.1</ele>
  <time>2026-09-01T19:50:37Z</time>
  <course>7.77</course>
  <speed>0.0</speed>
  <fix>3d</fix>
</trkpt>
<trkpt lat="-27.274439" lon="151.290064">
  <ele>343.1</ele>
  <time>2026-09-01T19:50:37Z</time>
  <course>0.0</course>
  <speed>0.0</speed>
  <fix>3d</fix>
</trkpt>
<trkpt lat="-27.274439" lon="151.290064">
  <ele>343.1</ele>
  <time>2026-09-01T19:50:37Z</time>
  <course>7.77</course>
  <speed>0.0</speed>
  <fix>3d</fix>
</trkpt>
<trkpt lat="-27.274439" lon="151.290064">
  <ele>343.1</ele>
  <time>2026-09-01T19:50:37Z</time>
  <course>0.0</course>
  <speed>0.0</speed>
  <fix>3d</fix>
</trkpt>
<trkpt lat="-27.274439" lon="151.290064">
  <ele>343.1</ele>
  <time>2026-09-01T19:50:37Z</time>
  <course>7.77</course>
  <speed>0.0</speed>
  <fix>3d</fix>
</trkpt>
<trkpt lat="-27.274439" lon="151.290064">
  <ele>343.1</ele>
  <time>2026-09-01T19:50:37Z</time>
  <course>0.0</course>
  <speed>0.0</speed>
  <fix>3d</fix>
</trkpt>
<trkpt lat="-27.274439" lon="151.290064">
  <ele>343.1</ele>
  <time>2026-09-01T19:50:37Z</time>
  <course>7.76</course>
  <speed>0.0</speed>
  <fix>3d</fix>
</trkpt>
<trkpt lat="-27.274439" lon="151.290064">
  <ele>343.1</ele>
  <time>2026-09-01T19:50:37Z</time>
  <course>0.0</course>
  <speed>0.0</speed>
  <fix>3d</fix>
</trkpt>
<trkpt lat="-27.274439" lon="151.290064">
  <ele>343.1</ele>
  <time>2026-09-01T19:50:37Z</time>
  <course>7.76</course>
  <speed>0.0</speed>
  <fix>3d</fix>
</trkpt>
<trkpt lat="-27.274439" lon="151.290064">
  <ele>343.1</ele>
  <time>2026-09-01T19:50:37Z</time>
  <course>0.0</course>
  <speed>0.0</speed>
  <fix>3d</fix>
</trkpt>
<trkpt lat="-27.274439" lon="151.290064">
  <ele>343.1</ele>
  <time>2026-09-01T19:50:37Z</time>
  <course>7.76</course>
  <speed>0.0</speed>
  <fix>3d</fix>
</trkpt>
<trkpt lat="-27.274439" lon="151.290064">
  <ele>343.1</ele>
  <time>2026-09-01T19:50:37Z</time>
  <course>0.0</course>
  <speed>0.0</speed>
  <fix>3d</fix>
</trkpt>
<trkpt lat="-27.274439" lon="151.290064">
  <ele>343.1</ele>
  <time>2026-09-01T19:50:37Z</time>
  <course>7.76</course>
  <speed>0.0</speed>
  <fix>3d</fix>
</trkpt>
<trkpt lat="-27.274439" lon="151.290064">
  <ele>343.1</ele>
  <time>2026-09-01T19:50:37Z</time>
  <course>0.0</course>
  <speed>0.0</speed>
  <fix>3d</fix>
</trkpt>
<trkpt lat="-27.274439" lon="151.290064">
  <ele>343.1</ele>
  <time>2026-09-01T19:50:37Z</time>
  <course>7.76</course>
  <speed>0.0</speed>
  <fix>3d</fix>
</trkpt>
<trkpt lat="-27.274439" lon="151.290064">
  <ele>343.1</ele>
  <time>2026-09-01T19:50:37Z</time>
  <course>0.0</course>
  <speed>0.0</speed>
  <fix>3d</fix>
</trkpt>
<trkpt lat="-27.274439" lon="151.290064">
  <ele>343.1</ele>
  <time>2026-09-01T19:50:37Z</time>
  <course>7.75</course>
  <speed>0.0</speed>
  <fix>3d</fix>
</trkpt>
<trkpt lat="-27.274439" lon="151.290064">
  <ele>343.1</ele>
  <time>2026-09-01T19:50:37Z</time>
  <course>0.0</course>
  <speed>0.0</speed>
  <fix>3d</fix>
</trkpt>
<trkpt lat="-27.274439" lon="151.290064">
  <ele>343.1</ele>
  <time>2026-09-01T19:50:37Z</time>
  <course>7.75</course>
  <speed>0.0</speed>
  <fix>3d</fix>
</trkpt>
<trkpt lat="-27.274439" lon="151.290064">
  <ele>343.1</ele>
  <time>2026-09-01T19:50:37Z</time>
  <course>0.0</course>
  <speed>0.0</speed>
  <fix>3d</fix>
</trkpt>
<trkpt lat="-27.274439" lon="151.290064">
  <ele>343.1</ele>
  <time>2026-09-01T19:50:37Z</time>
  <course>7.75</course>
  <speed>0.0</speed>
  <fix>3d</fix>
</trkpt>
<trkpt lat="-27.274439" lon="151.290064">
  <ele>343.1</ele>
  <time>2026-09-01T19:50:37Z</time>
  <course>0.0</course>
  <speed>0.0</speed>
  <fix>3d</fix>
</trkpt>
<trkpt lat="-27.274439" lon="151.290064">
  <ele>343.1</ele>
  <time>2026-09-01T19:50:37Z</time>
  <course>7.75</course>
  <speed>0.0</speed>
  <fix>3d</fix>
</trkpt>
<trkpt lat="-27.274439" lon="151.290064">
  <ele>343.1</ele>
  <time>2026-09-01T19:50:37Z</time>
  <course>0.0</course>
  <speed>0.0</speed>
  <fix>3d</fix>
</trkpt>
<trkpt lat="-27.274439" lon="151.290064">
  <ele>343.1</ele>
  <time>2026-09-01T19:50:37Z</time>
  <course>7.74</course>
  <speed>0.0</speed>
  <fix>3d</fix>
</trkpt>
<trkpt lat="-27.274439" lon="151.290064">
  <ele>343.1</ele>
  <time>2026-09-01T19:50:37Z</time>
  <course>0.0</course>
  <speed>0.0</speed>
  <fix>3d</fix>
</trkpt>
<trkpt lat="-27.274439" lon="151.290064">
  <ele>343.1</ele>
  <time>2026-09-01T19:50:37Z</time>
  <course>7.74</course>
  <speed>0.0</speed>
  <fix>3d</fix>
</trkpt>
<trkpt lat="-27.274439" lon="151.290064">
  <ele>343.1</ele>
  <time>2026-09-01T19:50:37Z</time>
  <course>0.0</course>
  <speed>0.0</speed>
  <fix>3d</fix>
</trkpt>
<trkpt lat="-27.274439" lon="151.290064">
  <ele>343.1</ele>
  <time>2026-09-01T19:50:37Z</time>
  <course>7.74</course>
  <speed>0.0</speed>
  <fix>3d</fix>
</trkpt>
<trkpt lat="-27.274439" lon="151.290064">
  <ele>343.1</ele>
  <time>2026-09-01T19:50:37Z</time>
  <course>0.0</course>
  <speed>0.0</speed>
  <fix>3d</fix>
</trkpt>
<trkpt lat="-27.274439" lon="151.290064">
  <ele>343.1</ele>
  <time>2026-09-01T19:50:37Z</time>
  <course>7.74</course>
  <speed>0.0</speed>
  <fix>3d</fix>
</trkpt>
<trkpt lat="-27.274439" lon="151.290064">
  <ele>343.1</ele>
  <time>2026-09-01T19:50:37Z</time>
  <course>0.0</course>
  <speed>0.0</speed>
  <fix>3d</fix>
</trkpt>
<trkpt lat="-27.274439" lon="151.290064">
  <ele>343.1</ele>
  <time>2026-09-01T19:50:37Z</time>
  <course>7.74</course>
  <speed>0.0</speed>
  <fix>3d</fix>
</trkpt>
<trkpt lat="-27.274439" lon="151.290064">
  <ele>343.1</ele>
  <time>2026-09-01T19:50:37Z</time>
  <course>0.0</course>
  <speed>0.0</speed>
  <fix>3d</fix>
</trkpt>
<trkpt lat="-27.274439" lon="151.290064">
  <ele>343.1</ele>
  <time>2026-09-01T19:50:37Z</time>
  <course>7.73</course>
  <speed>0.0</speed>
  <fix>3d</fix>
</trkpt>
<trkpt lat="-27.274439" lon="151.290064">
  <ele>343.1</ele>
  <time>2026-09-01T19:50:37Z</time>
  <course>0.0</course>
  <speed>0.0</speed>
  <fix>3d</fix>
</trkpt>
<trkpt lat="-27.274439" lon="151.290064">
  <ele>343.1</ele>
  <time>2026-09-01T19:50:37Z</time>
  <course>7.73</course>
  <speed>0.0</speed>
  <fix>3d</fix>
</trkpt>
<trkpt lat="-27.274439" lon="151.290064">
  <ele>343.1</ele>
  <time>2026-09-01T19:50:37Z</time>
  <course>0.0</course>
  <speed>0.0</speed>
  <fix>3d</fix>
</trkpt>
<trkpt lat="-27.274439" lon="151.290064">
  <ele>343.1</ele>
  <time>2026-09-01T19:50:37Z</time>
  <course>7.73</course>
  <speed>0.0</speed>
  <fix>3d</fix>
</trkpt>
<trkpt lat="-27.274439" lon="151.290064">
  <ele>343.1</ele>
  <time>2026-09-01T19:50:37Z</time>
  <course>0.0</course>
  <speed>0.0</speed>
  <fix>3d</fix>
</trkpt>
<trkpt lat="-27.274439" lon="151.290064">
  <ele>343.1</ele>
  <time>2026-09-01T19:50:37Z</time>
  <course>7.73</course>
  <speed>0.0</speed>
  <fix>3d</fix>
</trkpt>
<trkpt lat="-27.274439" lon="151.290064">
  <ele>343.1</ele>
  <time>2026-09-01T19:50:37Z</time>
  <course>0.0</course>
  <speed>0.0</speed>
  <fix>3d</fix>
</trkpt>
<trkpt lat="-27.274439" lon="151.290064">
  <ele>343.1</ele>
  <time>2026-09-01T19:50:37Z</time>
  <course>7.73</course>
  <speed>0.0</speed>
  <fix>3d</fix>
</trkpt>
<trkpt lat="-27.274439" lon="151.290064">
  <ele>343.1</ele>
  <time>2026-09-01T19:50:37Z</time>
  <course>0.0</course>
  <speed>0.0</speed>
  <fix>3d</fix>
</trkpt>
<trkpt lat="-27.274439" lon="151.290064">
  <ele>343.1</ele>
  <time>2026-09-01T19:50:37Z</time>
  <course>7.72</course>
  <speed>0.0</speed>
  <fix>3d</fix>
</trkpt>
<trkpt lat="-27.274439" lon="151.290064">
  <ele>343.1</ele>
  <time>2026-09-01T19:50:37Z</time>
  <course>0.0</course>
  <speed>0.0</speed>
  <fix>3d</fix>
</trkpt>
<trkpt lat="-27.274439" lon="151.290064">
  <ele>343.1</ele>
  <time>2026-09-01T19:50:37Z</time>
  <course>7.72</course>
  <speed>0.0</speed>
  <fix>3d</fix>
</trkpt>
<trkpt lat="-27.274439" lon="151.290064">
  <ele>343.1</ele>
  <time>2026-09-01T19:50:37Z</time>
  <course>0.0</course>
  <speed>0.0</speed>
  <fix>3d</fix>
</trkpt>
<trkpt lat="-27.274439" lon="151.290064">
  <ele>343.1</ele>
  <time>2026-09-01T19:50:37Z</time>
  <course>7.72</course>
  <speed>0.0</speed>
  <fix>3d</fix>
</trkpt>
<trkpt lat="-27.274439" lon="151.290064">
  <ele>343.1</ele>
  <time>2026-09-01T19:50:37Z</time>
  <course>0.0</course>
  <speed>0.0</speed>
  <fix>3d</fix>
</trkpt>
<trkpt lat="-27.274439" lon="151.290064">
  <ele>343.1</ele>
  <time>2026-09-01T19:50:37Z</time>
  <course>7.72</course>
  <speed>0.0</speed>
  <fix>3d</fix>
</trkpt>
<trkpt lat="-27.274439" lon="151.290064">
  <ele>343.1</ele>
  <time>2026-09-01T19:50:37Z</time>
  <course>0.0</course>
  <speed>0.0</speed>
  <fix>3d</fix>
</trkpt>
<trkpt lat="-27.274439" lon="151.290064">
  <ele>343.1</ele>
  <time>2026-09-01T19:50:37Z</time>
  <course>7.72</course>
  <speed>0.0</speed>
  <fix>3d</fix>
</trkpt>
<trkpt lat="-27.274439" lon="151.290064">
  <ele>343.1</ele>
  <time>2026-09-01T19:50:37Z</time>
  <course>0.0</course>
  <speed>0.0</speed>
  <fix>3d</fix>
</trkpt>
<trkpt lat="-27.274439" lon="151.290064">
  <ele>343.1</ele>
  <time>2026-09-01T19:50:37Z</time>
  <course>7.71</course>
  <speed>0.0</speed>
  <fix>3d</fix>
</trkpt>
<trkpt lat="-27.274439" lon="151.290064">
  <ele>343.1</ele>
  <time>2026-09-01T19:50:37Z</time>
  <course>0.0</course>
  <speed>0.0</speed>
  <fix>3d</fix>
</trkpt>
<trkpt lat="-27.274439" lon="151.290064">
  <ele>343.1</ele>
  <time>2026-09-01T19:50:37Z</time>
  <course>7.71</course>
  <speed>0.0</speed>
  <fix>3d</fix>
</trkpt>
<trkpt lat="-27.274439" lon="151.290064">
  <ele>343.1</ele>
  <time>2026-09-01T19:50:37Z</time>
  <course>0.0</course>
  <speed>0.0</speed>
  <fix>3d</fix>
</trkpt>
<trkpt lat="-27.274439" lon="151.290064">
  <ele>343.1</ele>
  <time>2026-09-01T19:50:37Z</time>
  <course>7.71</course>
  <speed>0.0</speed>
  <fix>3d</fix>
</trkpt>
<trkpt lat="-27.274439" lon="151.290064">
  <ele>343.1</ele>
  <time>2026-09-01T19:50:37Z</time>
  <course>0.0</course>
  <speed>0.0</speed>
  <fix>3d</fix>
</trkpt>
<trkpt lat="-27.274439" lon="151.290064">
  <ele>343.1</ele>
  <time>2026-09-01T19:50:37Z</time>
  <course>7.71</course>
  <speed>0.0</speed>
  <fix>3d</fix>
</trkpt>
<trkpt lat="-27.274439" lon="151.290064">
  <ele>343.1</ele>
  <time>2026-09-01T19:50:37Z</time>
  <course>0.0</course>
  <speed>0.0</speed>
  <fix>3d</fix>
</trkpt>
<trkpt lat="-27.274439" lon="151.290064">
  <ele>343.1</ele>
  <time>2026-09-01T19:50:37Z</time>
  <course>7.71</course>
  <speed>0.0</speed>
  <fix>3d</fix>
</trkpt>
<trkpt lat="-27.274439" lon="151.290064">
  <ele>343.1</ele>
  <time>2026-09-01T19:50:37Z</time>
  <course>0.0</course>
  <speed>0.0</speed>
  <fix>3d</fix>
</trkpt>
<trkpt lat="-27.274439" lon="151.290064">
  <ele>343.1</ele>
  <time>2026-09-01T19:50:37Z</time>
  <course>7.7</course>
  <speed>0.0</speed>
  <fix>3d</fix>
</trkpt>
<trkpt lat="-27.274439" lon="151.290064">
  <ele>343.1</ele>
  <time>2026-09-01T19:50:37Z</time>
  <course>0.0</course>
  <speed>0.0</speed>
  <fix>3d</fix>
</trkpt>
<trkpt lat="-27.274439" lon="151.290064">
  <ele>343.1</ele>
  <time>2026-09-01T19:50:37Z</time>
  <course>7.7</course>
  <speed>0.0</speed>
  <fix>3d</fix>
</trkpt>
<trkpt lat="-27.274439" lon="151.290064">
  <ele>343.1</ele>
  <time>2026-09-01T19:50:37Z</time>
  <course>0.0</course>
  <speed>0.0</speed>
  <fix>3d</fix>
</trkpt>
<trkpt lat="-27.274439" lon="151.290064">
  <ele>343.1</ele>
  <time>2026-09-01T19:50:37Z</time>
  <course>7.7</course>
  <speed>0.0</speed>
  <fix>3d</fix>
</trkpt>
<trkpt lat="-27.274439" lon="151.290064">
  <ele>343.1</ele>
  <time>2026-09-01T19:50:37Z</time>
  <course>0.0</course>
  <speed>0.0</speed>
  <fix>3d</fix>
</trkpt>
<trkpt lat="-27.274439" lon="151.290064">
  <ele>343.1</ele>
  <time>2026-09-01T19:50:37Z</time>
  <course>7.7</course>
  <speed>0.0</speed>
  <fix>3d</fix>
</trkpt>
<trkpt lat="-27.274439" lon="151.290064">
  <ele>343.1</ele>
  <time>2026-09-01T19:50:37Z</time>
  <course>0.0</course>
  <speed>0.0</speed>
  <fix>3d</fix>
</trkpt>
<trkpt lat="-27.274439" lon="151.290064">
  <ele>343.1</ele>
  <time>2026-09-01T19:50:37Z</time>
  <course>7.69</course>
  <speed>0.0</speed>
  <fix>3d</fix>
</trkpt>
<trkpt lat="-27.274439" lon="151.290064">
  <ele>343.1</ele>
  <time>2026-09-01T19:50:37Z</time>
  <course>0.0</course>
  <speed>0.0</speed>
  <fix>3d</fix>
</trkpt>
<trkpt lat="-27.274439" lon="151.290064">
  <ele>343.1</ele>
  <time>2026-09-01T19:50:37Z</time>
  <course>7.69</course>
  <speed>0.0</speed>
  <fix>3d</fix>
</trkpt>
<trkpt lat="-27.274439" lon="151.290064">
  <ele>343.1</ele>
  <time>2026-09-01T19:50:37Z</time>
  <course>0.0</course>
  <speed>0.0</speed>
  <fix>3d</fix>
</trkpt>
<trkpt lat="-27.274439" lon="151.290064">
  <ele>343.1</ele>
  <time>2026-09-01T19:50:37Z</time>
  <course>7.69</course>
  <speed>0.0</speed>
  <fix>3d</fix>
</trkpt>
<trkpt lat="-27.274439" lon="151.290064">
  <ele>343.1</ele>
  <time>2026-09-01T19:50:37Z</time>
  <course>0.0</course>
  <speed>0.0</speed>
  <fix>3d</fix>
</trkpt>
<trkpt lat="-27.274439" lon="151.290064">
  <ele>343.1</ele>
  <time>2026-09-01T19:50:37Z</time>
  <course>7.69</course>
  <speed>0.0</speed>
  <fix>3d</fix>
</trkpt>
<trkpt lat="-27.274439" lon="151.290064">
  <ele>343.1</ele>
  <time>2026-09-01T19:50:37Z</time>
  <course>0.0</course>
  <speed>0.0</speed>
  <fix>3d</fix>
</trkpt>
<trkpt lat="-27.274439" lon="151.290064">
  <ele>343.1</ele>
  <time>2026-09-01T19:50:37Z</time>
  <course>7.69</course>
  <speed>0.0</speed>
  <fix>3d</fix>
</trkpt>
<trkpt lat="-27.274439" lon="151.290064">
  <ele>343.1</ele>
  <time>2026-09-01T19:50:37Z</time>
  <course>0.0</course>
  <speed>0.0</speed>
  <fix>3d</fix>
</trkpt>
<trkpt lat="-27.274439" lon="151.290064">
  <ele>343.1</ele>
  <time>2026-09-01T19:50:37Z</time>
  <course>7.68</course>
  <speed>0.0</speed>
  <fix>3d</fix>
</trkpt>
<trkpt lat="-27.274439" lon="151.290064">
  <ele>343.1</ele>
  <time>2026-09-01T19:50:37Z</time>
  <course>0.0</course>
  <speed>0.0</speed>
  <fix>3d</fix>
</trkpt>
<trkpt lat="-27.274439" lon="151.290064">
  <ele>343.1</ele>
  <time>2026-09-01T19:50:37Z</time>
  <course>7.68</course>
  <speed>0.0</speed>
  <fix>3d</fix>
</trkpt>
<trkpt lat="-27.274439" lon="151.290064">
  <ele>343.1</ele>
  <time>2026-09-01T19:50:37Z</time>
  <course>0.0</course>
  <speed>0.0</speed>
  <fix>3d</fix>
</trkpt>
<trkpt lat="-27.274439" lon="151.290064">
  <ele>343.1</ele>
  <time>2026-09-01T19:50:37Z</time>
  <course>7.68</course>
  <speed>0.0</speed>
  <fix>3d</fix>
</trkpt>
<trkpt lat="-27.274439" lon="151.290064">
  <ele>343.1</ele>
  <time>2026-09-01T19:50:37Z</time>
  <course>0.0</course>
  <speed>0.0</speed>
  <fix>3d</fix>
</trkpt>
<trkpt lat="-27.274439" lon="151.290064">
  <ele>343.1</ele>
  <time>2026-09-01T19:50:37Z</time>
  <course>7.68</course>
  <speed>0.0</speed>
  <fix>3d</fix>
</trkpt>
<trkpt lat="-27.274439" lon="151.290064">
  <ele>343.1</ele>
  <time>2026-09-01T19:50:37Z</time>
  <course>0.0</course>
  <speed>0.0</speed>
  <fix>3d</fix>
</trkpt>
<trkpt lat="-27.274439" lon="151.290064">
  <ele>343.1</ele>
  <time>2026-09-01T19:50:37Z</time>
  <course>7.68</course>
  <speed>0.0</speed>
  <fix>3d</fix>
</trkpt>
<trkpt lat="-27.274439" lon="151.290064">
  <ele>343.1</ele>
  <time>2026-09-01T19:50:37Z</time>
  <course>0.0</course>
  <speed>0.0</speed>
  <fix>3d</fix>
</trkpt>
<trkpt lat="-27.274439" lon="151.290064">
  <ele>343.1</ele>
  <time>2026-09-01T19:50:37Z</time>
  <course>7.67</course>
  <speed>0.0</speed>
  <fix>3d</fix>
</trkpt>
<trkpt lat="-27.274439" lon="151.290064">
  <ele>343.1</ele>
  <time>2026-09-01T19:50:37Z</time>
  <course>0.0</course>
  <speed>0.0</speed>
  <fix>3d</fix>
</trkpt>
<trkpt lat="-27.274439" lon="151.290064">
  <ele>343.1</ele>
  <time>2026-09-01T19:50:37Z</time>
  <course>7.67</course>
  <speed>0.0</speed>
  <fix>3d</fix>
</trkpt>
<trkpt lat="-27.274439" lon="151.290064">
  <ele>343.1</ele>
  <time>2026-09-01T19:50:37Z</time>
  <course>0.0</course>
  <speed>0.0</speed>
  <fix>3d</fix>
</trkpt>
<trkpt lat="-27.274439" lon="151.290064">
  <ele>343.1</ele>
  <time>2026-09-01T19:50:37Z</time>
  <course>7.67</course>
  <speed>0.0</speed>
  <fix>3d</fix>
</trkpt>
<trkpt lat="-27.274439" lon="151.290064">
  <ele>343.1</ele>
  <time>2026-09-01T19:50:37Z</time>
  <course>0.0</course>
  <speed>0.0</speed>
  <fix>3d</fix>
</trkpt>
<trkpt lat="-27.274439" lon="151.290064">
  <ele>343.1</ele>
  <time>2026-09-01T19:50:37Z</time>
  <course>7.67</course>
  <speed>0.0</speed>
  <fix>3d</fix>
</trkpt>
<trkpt lat="-27.274439" lon="151.290064">
  <ele>343.1</ele>
  <time>2026-09-01T19:50:37Z</time>
  <course>0.0</course>
  <speed>0.0</speed>
  <fix>3d</fix>
</trkpt>
<trkpt lat="-27.274439" lon="151.290064">
  <ele>343.1</ele>
  <time>2026-09-01T19:50:37Z</time>
  <course>7.67</course>
  <speed>0.0</speed>
  <fix>3d</fix>
</trkpt>
<trkpt lat="-27.274439" lon="151.290064">
  <ele>343.1</ele>
  <time>2026-09-01T19:50:37Z</time>
  <course>0.0</course>
  <speed>0.0</speed>
  <fix>3d</fix>
</trkpt>
<trkpt lat="-27.274439" lon="151.290064">
  <ele>343.1</ele>
  <time>2026-09-01T19:50:37Z</time>
  <course>7.66</course>
  <speed>0.0</speed>
  <fix>3d</fix>
</trkpt>
<trkpt lat="-27.274439" lon="151.290064">
  <ele>343.1</ele>
  <time>2026-09-01T19:50:37Z</time>
  <course>0.0</course>
  <speed>0.0</speed>
  <fix>3d</fix>
</trkpt>
<trkpt lat="-27.274439" lon="151.290064">
  <ele>343.1</ele>
  <time>2026-09-01T19:50:37Z</time>
  <course>7.66</course>
  <speed>0.0</speed>
  <fix>3d</fix>
</trkpt>
<trkpt lat="-27.274439" lon="151.290064">
  <ele>343.1</ele>
  <time>2026-09-01T19:50:37Z</time>
  <course>0.0</course>
  <speed>0.0</speed>
  <fix>3d</fix>
</trkpt>
<trkpt lat="-27.274439" lon="151.290064">
  <ele>343.1</ele>
  <time>2026-09-01T19:50:37Z</time>
  <course>7.66</course>
  <speed>0.0</speed>
  <fix>3d</fix>
</trkpt>
<trkpt lat="-27.274439" lon="151.290064">
  <ele>343.1</ele>
  <time>2026-09-01T19:50:37Z</time>
  <course>0.0</course>
  <speed>0.0</speed>
  <fix>3d</fix>
</trkpt>
<trkpt lat="-27.274439" lon="151.290064">
  <ele>343.1</ele>
  <time>2026-09-01T19:50:37Z</time>
  <course>7.66</course>
  <speed>0.0</speed>
  <fix>3d</fix>
</trkpt>
<trkpt lat="-27.274439" lon="151.290064">
  <ele>343.1</ele>
  <time>2026-09-01T19:50:37Z</time>
  <course>0.0</course>
  <speed>0.0</speed>
  <fix>3d</fix>
</trkpt>
<trkpt lat="-27.274439" lon="151.290064">
  <ele>343.1</ele>
  <time>2026-09-01T19:50:37Z</time>
  <course>7.66</course>
  <speed>0.0</speed>
  <fix>3d</fix>
</trkpt>
<trkpt lat="-27.274439" lon="151.290064">
  <ele>343.1</ele>
  <time>2026-09-01T19:50:37Z</time>
  <course>0.0</course>
  <speed>0.0</speed>
  <fix>3d</fix>
</trkpt>
<trkpt lat="-27.274439" lon="151.290064">
  <ele>343.1</ele>
  <time>2026-09-01T19:50:37Z</time>
  <course>7.65</course>
  <speed>0.0</speed>
  <fix>3d</fix>
</trkpt>
<trkpt lat="-27.274439" lon="151.290064">
  <ele>343.1</ele>
  <time>2026-09-01T19:50:37Z</time>
  <course>0.0</course>
  <speed>0.0</speed>
  <fix>3d</fix>
</trkpt>
<trkpt lat="-27.274439" lon="151.290064">
  <ele>343.1</ele>
  <time>2026-09-01T19:50:37Z</time>
  <course>7.65</course>
  <speed>0.0</speed>
  <fix>3d</fix>
</trkpt>
<trkpt lat="-27.274439" lon="151.290064">
  <ele>343.1</ele>
  <time>2026-09-01T19:50:37Z</time>
  <course>0.0</course>
  <speed>0.0</speed>
  <fix>3d</fix>
</trkpt>
<trkpt lat="-27.274439" lon="151.290064">
  <ele>343.1</ele>
  <time>2026-09-01T19:50:37Z</time>
  <course>7.65</course>
  <speed>0.0</speed>
  <fix>3d</fix>
</trkpt>
<trkpt lat="-27.274439" lon="151.290064">
  <ele>343.1</ele>
  <time>2026-09-01T19:50:37Z</time>
  <course>0.0</course>
  <speed>0.0</speed>
  <fix>3d</fix>
</trkpt>
<trkpt lat="-27.274439" lon="151.290064">
  <ele>343.1</ele>
  <time>2026-09-01T19:50:37Z</time>
  <course>7.65</course>
  <speed>0.0</speed>
  <fix>3d</fix>
</trkpt>
<trkpt lat="-27.274439" lon="151.290064">
  <ele>343.1</ele>
  <time>2026-09-01T19:50:37Z</time>
  <course>0.0</course>
  <speed>0.0</speed>
  <fix>3d</fix>
</trkpt>
<trkpt lat="-27.274439" lon="151.290064">
  <ele>343.1</ele>
  <time>2026-09-01T19:50:37Z</time>
  <course>7.64</course>
  <speed>0.0</speed>
  <fix>3d</fix>
</trkpt>
<trkpt lat="-27.274439" lon="151.290064">
  <ele>343.1</ele>
  <time>2026-09-01T19:50:37Z</time>
  <course>0.0</course>
  <speed>0.0</speed>
  <fix>3d</fix>
</trkpt>
<trkpt lat="-27.274439" lon="151.290064">
  <ele>343.1</ele>
  <time>2026-09-01T19:50:37Z</time>
  <course>7.64</course>
  <speed>0.0</speed>
  <fix>3d</fix>
</trkpt>
<trkpt lat="-27.274439" lon="151.290064">
  <ele>343.1</ele>
  <time>2026-09-01T19:50:37Z</time>
  <course>0.0</course>
  <speed>0.0</speed>
  <fix>3d</fix>
</trkpt>
<trkpt lat="-27.274439" lon="151.290064">
  <ele>343.1</ele>
  <time>2026-09-01T19:50:37Z</time>
  <course>7.64</course>
  <speed>0.0</speed>
  <fix>3d</fix>
</trkpt>
<trkpt lat="-27.274439" lon="151.290064">
  <ele>343.1</ele>
  <time>2026-09-01T19:50:37Z</time>
  <course>0.0</course>
  <speed>0.0</speed>
  <fix>3d</fix>
</trkpt>
<trkpt lat="-27.274439" lon="151.290064">
  <ele>343.1</ele>
  <time>2026-09-01T19:50:37Z</time>
  <course>7.64</course>
  <speed>0.0</speed>
  <fix>3d</fix>
</trkpt>
<trkpt lat="-27.274439" lon="151.290064">
  <ele>343.1</ele>
  <time>2026-09-01T19:50:37Z</time>
  <course>0.0</course>
  <speed>0.0</speed>
  <fix>3d</fix>
</trkpt>
<trkpt lat="-27.274439" lon="151.290064">
  <ele>343.1</ele>
  <time>2026-09-01T19:50:37Z</time>
  <course>7.64</course>
  <speed>0.0</speed>
  <fix>3d</fix>
</trkpt>
<trkpt lat="-27.274439" lon="151.290064">
  <ele>343.1</ele>
  <time>2026-09-01T19:50:37Z</time>
  <course>0.0</course>
  <speed>0.0</speed>
  <fix>3d</fix>
</trkpt>
<trkpt lat="-27.274439" lon="151.290064">
  <ele>343.1</ele>
  <time>2026-09-01T19:50:37Z</time>
  <course>7.63</course>
  <speed>0.0</speed>
  <fix>3d</fix>
</trkpt>
<trkpt lat="-27.274439" lon="151.290064">
  <ele>343.1</ele>
  <time>2026-09-01T19:50:37Z</time>
  <course>0.0</course>
  <speed>0.0</speed>
  <fix>3d</fix>
</trkpt>
<trkpt lat="-27.274439" lon="151.290064">
  <ele>343.1</ele>
  <time>2026-09-01T19:50:37Z</time>
  <course>7.63</course>
  <speed>0.0</speed>
  <fix>3d</fix>
</trkpt>
<trkpt lat="-27.274439" lon="151.290064">
  <ele>343.1</ele>
  <time>2026-09-01T19:50:37Z</time>
  <course>0.0</course>
  <speed>0.0</speed>
  <fix>3d</fix>
</trkpt>
<trkpt lat="-27.274439" lon="151.290064">
  <ele>343.1</ele>
  <time>2026-09-01T19:50:37Z</time>
  <course>7.63</course>
  <speed>0.0</speed>
  <fix>3d</fix>
</trkpt>
<trkpt lat="-27.274439" lon="151.290064">
  <ele>343.1</ele>
  <time>2026-09-01T19:50:37Z</time>
  <course>0.0</course>
  <speed>0.0</speed>
  <fix>3d</fix>
</trkpt>
<trkpt lat="-27.274439" lon="151.290064">
  <ele>343.1</ele>
  <time>2026-09-01T19:50:37Z</time>
  <course>7.63</course>
  <speed>0.0</speed>
  <fix>3d</fix>
</trkpt>
<trkpt lat="-27.274439" lon="151.290064">
  <ele>343.1</ele>
  <time>2026-09-01T19:50:37Z</time>
  <course>0.0</course>
  <speed>0.0</speed>
  <fix>3d</fix>
</trkpt>
<trkpt lat="-27.274439" lon="151.290064">
  <ele>343.1</ele>
  <time>2026-09-01T19:50:37Z</time>
  <course>7.63</course>
  <speed>0.0</speed>
  <fix>3d</fix>
</trkpt>
<trkpt lat="-27.274439" lon="151.290064">
  <ele>343.1</ele>
  <time>2026-09-01T19:50:37Z</time>
  <course>0.0</course>
  <speed>0.0</speed>
  <fix>3d</fix>
</trkpt>
<trkpt lat="-27.274439" lon="151.290064">
  <ele>343.1</ele>
  <time>2026-09-01T19:50:37Z</time>
  <course>7.62</course>
  <speed>0.0</speed>
  <fix>3d</fix>
</trkpt>
<trkpt lat="-27.274439" lon="151.290064">
  <ele>343.1</ele>
  <time>2026-09-01T19:50:37Z</time>
  <course>0.0</course>
  <speed>0.0</speed>
  <fix>3d</fix>
</trkpt>
<trkpt lat="-27.274439" lon="151.290064">
  <ele>343.1</ele>
  <time>2026-09-01T19:50:37Z</time>
  <course>7.62</course>
  <speed>0.0</speed>
  <fix>3d</fix>
</trkpt>
<trkpt lat="-27.274439" lon="151.290064">
  <ele>343.1</ele>
  <time>2026-09-01T19:50:37Z</time>
  <course>0.0</course>
  <speed>0.0</speed>
  <fix>3d</fix>
</trkpt>
<trkpt lat="-27.274439" lon="151.290064">
  <ele>343.1</ele>
  <time>2026-09-01T19:50:37Z</time>
  <course>7.62</course>
  <speed>0.0</speed>
  <fix>3d</fix>
</trkpt>
<trkpt lat="-27.274439" lon="151.290064">
  <ele>343.1</ele>
  <time>2026-09-01T19:50:37Z</time>
  <course>0.0</course>
  <speed>0.0</speed>
  <fix>3d</fix>
</trkpt>
<trkpt lat="-27.274439" lon="151.290064">
  <ele>343.1</ele>
  <time>2026-09-01T19:50:37Z</time>
  <course>7.62</course>
  <speed>0.0</speed>
  <fix>3d</fix>
</trkpt>
<trkpt lat="-27.274439" lon="151.290064">
  <ele>343.1</ele>
  <time>2026-09-01T19:50:37Z</time>
  <course>0.0</course>
  <speed>0.0</speed>
  <fix>3d</fix>
</trkpt>
<trkpt lat="-27.274439" lon="151.290064">
  <ele>343.1</ele>
  <time>2026-09-01T19:50:37Z</time>
  <course>7.62</course>
  <speed>0.0</speed>
  <fix>3d</fix>
</trkpt>
<trkpt lat="-27.274439" lon="151.290064">
  <ele>343.1</ele>
  <time>2026-09-01T19:50:37Z</time>
  <course>0.0</course>
  <speed>0.0</speed>
  <fix>3d</fix>
</trkpt>
<trkpt lat="-27.274439" lon="151.290064">
  <ele>343.1</ele>
  <time>2026-09-01T19:50:37Z</time>
  <course>7.61</course>
  <speed>0.0</speed>
  <fix>3d</fix>
</trkpt>
<trkpt lat="-27.274439" lon="151.290064">
  <ele>343.1</ele>
  <time>2026-09-01T19:50:37Z</time>
  <course>0.0</course>
  <speed>0.0</speed>
  <fix>3d</fix>
</trkpt>
<trkpt lat="-27.274439" lon="151.290064">
  <ele>343.1</ele>
  <time>2026-09-01T19:50:37Z</time>
  <course>7.61</course>
  <speed>0.0</speed>
  <fix>3d</fix>
</trkpt>
<trkpt lat="-27.274439" lon="151.290064">
  <ele>343.1</ele>
  <time>2026-09-01T19:50:37Z</time>
  <course>0.0</course>
  <speed>0.0</speed>
  <fix>3d</fix>
</trkpt>
<trkpt lat="-27.274439" lon="151.290064">
  <ele>343.1</ele>
  <time>2026-09-01T19:50:37Z</time>
  <course>7.61</course>
  <speed>0.0</speed>
  <fix>3d</fix>
</trkpt>
<trkpt lat="-27.274439" lon="151.290064">
  <ele>343.1</ele>
  <time>2026-09-01T19:50:37Z</time>
  <course>0.0</course>
  <speed>0.0</speed>
  <fix>3d</fix>
</trkpt>
<trkpt lat="-27.274439" lon="151.290064">
  <ele>343.1</ele>
  <time>2026-09-01T19:50:37Z</time>
  <course>7.61</course>
  <speed>0.0</speed>
  <fix>3d</fix>
</trkpt>
<trkpt lat="-27.274439" lon="151.290064">
  <ele>343.1</ele>
  <time>2026-09-01T19:50:37Z</time>
  <course>0.0</course>
  <speed>0.0</speed>
  <fix>3d</fix>
</trkpt>
<trkpt lat="-27.274439" lon="151.290064">
  <ele>343.1</ele>
  <time>2026-09-01T19:50:37Z</time>
  <course>7.6</course>
  <speed>0.0</speed>
  <fix>3d</fix>
</trkpt>
<trkpt lat="-27.274439" lon="151.290064">
  <ele>343.1</ele>
  <time>2026-09-01T19:50:37Z</time>
  <course>0.0</course>
  <speed>0.0</speed>
  <fix>3d</fix>
</trkpt>
<trkpt lat="-27.274439" lon="151.290064">
  <ele>343.1</ele>
  <time>2026-09-01T19:50:37Z</time>
  <course>7.6</course>
  <speed>0.0</speed>
  <fix>3d</fix>
</trkpt>
<trkpt lat="-27.274439" lon="151.290064">
  <ele>343.1</ele>
  <time>2026-09-01T19:50:37Z</time>
  <course>0.0</course>
  <speed>0.0</speed>
  <fix>3d</fix>
</trkpt>
<trkpt lat="-27.274439" lon="151.290064">
  <ele>343.1</ele>
  <time>2026-09-01T19:50:37Z</time>
  <course>7.6</course>
  <speed>0.0</speed>
  <fix>3d</fix>
</trkpt>
<trkpt lat="-27.274439" lon="151.290064">
  <ele>343.1</ele>
  <time>2026-09-01T19:50:37Z</time>
  <course>0.0</course>
  <speed>0.0</speed>
  <fix>3d</fix>
</trkpt>
<trkpt lat="-27.274439" lon="151.290064">
  <ele>343.1</ele>
  <time>2026-09-01T19:50:37Z</time>
  <course>7.6</course>
  <speed>0.0</speed>
  <fix>3d</fix>
</trkpt>
<trkpt lat="-27.274439" lon="151.290064">
  <ele>343.1</ele>
  <time>2026-09-01T19:50:37Z</time>
  <course>0.0</course>
  <speed>0.0</speed>
  <fix>3d</fix>
</trkpt>
<trkpt lat="-27.274439" lon="151.290064">
  <ele>343.1</ele>
  <time>2026-09-01T19:50:37Z</time>
  <course>7.6</course>
  <speed>0.0</speed>
  <fix>3d</fix>
</trkpt>
<trkpt lat="-27.274439" lon="151.290064">
  <ele>343.1</ele>
  <time>2026-09-01T19:50:37Z</time>
  <course>0.0</course>
  <speed>0.0</speed>
  <fix>3d</fix>
</trkpt>
<trkpt lat="-27.274439" lon="151.290064">
  <ele>343.1</ele>
  <time>2026-09-01T19:50:37Z</time>
  <course>7.59</course>
  <speed>0.0</speed>
  <fix>3d</fix>
</trkpt>
<trkpt lat="-27.274439" lon="151.290064">
  <ele>343.1</ele>
  <time>2026-09-01T19:50:37Z</time>
  <course>0.0</course>
  <speed>0.0</speed>
  <fix>3d</fix>
</trkpt>
<trkpt lat="-27.274439" lon="151.290064">
  <ele>343.1</ele>
  <time>2026-09-01T19:50:37Z</time>
  <course>7.59</course>
  <speed>0.0</speed>
  <fix>3d</fix>
</trkpt>
<trkpt lat="-27.274439" lon="151.290064">
  <ele>343.1</ele>
  <time>2026-09-01T19:50:37Z</time>
  <course>0.0</course>
  <speed>0.0</speed>
  <fix>3d</fix>
</trkpt>
<trkpt lat="-27.274439" lon="151.290064">
  <ele>343.1</ele>
  <time>2026-09-01T19:50:37Z</time>
  <course>7.59</course>
  <speed>0.0</speed>
  <fix>3d</fix>
</trkpt>
<trkpt lat="-27.274439" lon="151.290064">
  <ele>343.1</ele>
  <time>2026-09-01T19:50:37Z</time>
  <course>0.0</course>
  <speed>0.0</speed>
  <fix>3d</fix>
</trkpt>
<trkpt lat="-27.274439" lon="151.290064">
  <ele>343.1</ele>
  <time>2026-09-01T19:50:37Z</time>
  <course>7.59</course>
  <speed>0.0</speed>
  <fix>3d</fix>
</trkpt>
<trkpt lat="-27.274439" lon="151.290064">
  <ele>343.1</ele>
  <time>2026-09-01T19:50:37Z</time>
  <course>0.0</course>
  <speed>0.0</speed>
  <fix>3d</fix>
</trkpt>
<trkpt lat="-27.274439" lon="151.290064">
  <ele>343.1</ele>
  <time>2026-09-01T19:50:37Z</time>
  <course>7.59</course>
  <speed>0.0</speed>
  <fix>3d</fix>
</trkpt>
<trkpt lat="-27.274439" lon="151.290064">
  <ele>343.1</ele>
  <time>2026-09-01T19:50:37Z</time>
  <course>0.0</course>
  <speed>0.0</speed>
  <fix>3d</fix>
</trkpt>
<trkpt lat="-27.274439" lon="151.290064">
  <ele>343.1</ele>
  <time>2026-09-01T19:50:37Z</time>
  <course>7.58</course>
  <speed>0.0</speed>
  <fix>3d</fix>
</trkpt>
<trkpt lat="-27.274439" lon="151.290064">
  <ele>343.1</ele>
  <time>2026-09-01T19:50:37Z</time>
  <course>0.0</course>
  <speed>0.0</speed>
  <fix>3d</fix>
</trkpt>
<trkpt lat="-27.274439" lon="151.290064">
  <ele>343.1</ele>
  <time>2026-09-01T19:50:37Z</time>
  <course>7.58</course>
  <speed>0.0</speed>
  <fix>3d</fix>
</trkpt>
<trkpt lat="-27.274439" lon="151.290064">
  <ele>343.1</ele>
  <time>2026-09-01T19:50:37Z</time>
  <course>0.0</course>
  <speed>0.0</speed>
  <fix>3d</fix>
</trkpt>
<trkpt lat="-27.274439" lon="151.290064">
  <ele>343.1</ele>
  <time>2026-09-01T19:50:37Z</time>
  <course>7.58</course>
  <speed>0.0</speed>
  <fix>3d</fix>
</trkpt>
<trkpt lat="-27.274439" lon="151.290064">
  <ele>343.1</ele>
  <time>2026-09-01T19:50:37Z</time>
  <course>0.0</course>
  <speed>0.0</speed>
  <fix>3d</fix>
</trkpt>
<trkpt lat="-27.274439" lon="151.290064">
  <ele>343.1</ele>
  <time>2026-09-01T19:50:37Z</time>
  <course>7.58</course>
  <speed>0.0</speed>
  <fix>3d</fix>
</trkpt>
<trkpt lat="-27.274439" lon="151.290064">
  <ele>343.1</ele>
  <time>2026-09-01T19:50:37Z</time>
  <course>0.0</course>
  <speed>0.0</speed>
  <fix>3d</fix>
</trkpt>
<trkpt lat="-27.274439" lon="151.290064">
  <ele>343.1</ele>
  <time>2026-09-01T19:50:37Z</time>
  <course>7.58</course>
  <speed>0.0</speed>
  <fix>3d</fix>
</trkpt>
<trkpt lat="-27.274439" lon="151.290064">
  <ele>343.1</ele>
  <time>2026-09-01T19:50:37Z</time>
  <course>0.0</course>
  <speed>0.0</speed>
  <fix>3d</fix>
</trkpt>
<trkpt lat="-27.274439" lon="151.290064">
  <ele>343.1</ele>
  <time>2026-09-01T19:50:37Z</time>
  <course>7.57</course>
  <speed>0.0</speed>
  <fix>3d</fix>
</trkpt>
<trkpt lat="-27.274439" lon="151.290064">
  <ele>343.1</ele>
  <time>2026-09-01T19:50:37Z</time>
  <course>0.0</course>
  <speed>0.0</speed>
  <fix>3d</fix>
</trkpt>
<trkpt lat="-27.274439" lon="151.290064">
  <ele>343.1</ele>
  <time>2026-09-01T19:50:37Z</time>
  <course>7.57</course>
  <speed>0.0</speed>
  <fix>3d</fix>
</trkpt>
<trkpt lat="-27.274439" lon="151.290064">
  <ele>343.1</ele>
  <time>2026-09-01T19:50:37Z</time>
  <course>0.0</course>
  <speed>0.0</speed>
  <fix>3d</fix>
</trkpt>
<trkpt lat="-27.274439" lon="151.290064">
  <ele>343.1</ele>
  <time>2026-09-01T19:50:37Z</time>
  <course>7.57</course>
  <speed>0.0</speed>
  <fix>3d</fix>
</trkpt>
<trkpt lat="-27.274439" lon="151.290064">
  <ele>343.1</ele>
  <time>2026-09-01T19:50:37Z</time>
  <course>0.0</course>
  <speed>0.0</speed>
  <fix>3d</fix>
</trkpt>
<trkpt lat="-27.274439" lon="151.290064">
  <ele>343.1</ele>
  <time>2026-09-01T19:50:37Z</time>
  <course>7.57</course>
  <speed>0.0</speed>
  <fix>3d</fix>
</trkpt>
<trkpt lat="-27.274439" lon="151.290064">
  <ele>343.1</ele>
  <time>2026-09-01T19:50:37Z</time>
  <course>0.0</course>
  <speed>0.0</speed>
  <fix>3d</fix>
</trkpt>
<trkpt lat="-27.274439" lon="151.290064">
  <ele>343.1</ele>
  <time>2026-09-01T19:50:37Z</time>
  <course>7.57</course>
  <speed>0.0</speed>
  <fix>3d</fix>
</trkpt>
<trkpt lat="-27.274439" lon="151.290064">
  <ele>343.1</ele>
  <time>2026-09-01T19:50:37Z</time>
  <course>0.0</course>
  <speed>0.0</speed>
  <fix>3d</fix>
</trkpt>
<trkpt lat="-27.274439" lon="151.290064">
  <ele>343.1</ele>
  <time>2026-09-01T19:50:37Z</time>
  <course>7.56</course>
  <speed>0.0</speed>
  <fix>3d</fix>
</trkpt>
<trkpt lat="-27.274439" lon="151.290064">
  <ele>343.1</ele>
  <time>2026-09-01T19:50:37Z</time>
  <course>0.0</course>
  <speed>0.0</speed>
  <fix>3d</fix>
</trkpt>
<trkpt lat="-27.274439" lon="151.290064">
  <ele>343.1</ele>
  <time>2026-09-01T19:50:37Z</time>
  <course>7.56</course>
  <speed>0.0</speed>
  <fix>3d</fix>
</trkpt>
<trkpt lat="-27.274439" lon="151.290064">
  <ele>343.1</ele>
  <time>2026-09-01T19:50:37Z</time>
  <course>0.0</course>
  <speed>0.0</speed>
  <fix>3d</fix>
</trkpt>
<trkpt lat="-27.274439" lon="151.290064">
  <ele>343.1</ele>
  <time>2026-09-01T19:50:37Z</time>
  <course>7.56</course>
  <speed>0.0</speed>
  <fix>3d</fix>
</trkpt>
<trkpt lat="-27.274439" lon="151.290064">
  <ele>343.1</ele>
  <time>2026-09-01T19:50:37Z</time>
  <course>0.0</course>
  <speed>0.0</speed>
  <fix>3d</fix>
</trkpt>
<trkpt lat="-27.274439" lon="151.290064">
  <ele>343.1</ele>
  <time>2026-09-01T19:50:37Z</time>
  <course>7.56</course>
  <speed>0.0</speed>
  <fix>3d</fix>
</trkpt>
<trkpt lat="-27.274439" lon="151.290064">
  <ele>343.1</ele>
  <time>2026-09-01T19:50:37Z</time>
  <course>0.0</course>
  <speed>0.0</speed>
  <fix>3d</fix>
</trkpt>
<trkpt lat="-27.274439" lon="151.290064">
  <ele>343.1</ele>
  <time>2026-09-01T19:50:37Z</time>
  <course>7.55</course>
  <speed>0.0</speed>
  <fix>3d</fix>
</trkpt>
<trkpt lat="-27.274439" lon="151.290064">
  <ele>343.1</ele>
  <time>2026-09-01T19:50:37Z</time>
  <course>0.0</course>
  <speed>0.0</speed>
  <fix>3d</fix>
</trkpt>
<trkpt lat="-27.274439" lon="151.290064">
  <ele>343.1</ele>
  <time>2026-09-01T19:50:37Z</time>
  <course>7.55</course>
  <speed>0.0</speed>
  <fix>3d</fix>
</trkpt>
<trkpt lat="-27.274439" lon="151.290064">
  <ele>343.1</ele>
  <time>2026-09-01T19:50:37Z</time>
  <course>0.0</course>
  <speed>0.0</speed>
  <fix>3d</fix>
</trkpt>
<trkpt lat="-27.274439" lon="151.290064">
  <ele>343.1</ele>
  <time>2026-09-01T19:50:37Z</time>
  <course>7.55</course>
  <speed>0.0</speed>
  <fix>3d</fix>
</trkpt>
<trkpt lat="-27.274439" lon="151.290064">
  <ele>343.1</ele>
  <time>2026-09-01T19:50:37Z</time>
  <course>0.0</course>
  <speed>0.0</speed>
  <fix>3d</fix>
</trkpt>
<trkpt lat="-27.274439" lon="151.290064">
  <ele>343.1</ele>
  <time>2026-09-01T19:50:37Z</time>
  <course>7.55</course>
  <speed>0.0</speed>
  <fix>3d</fix>
</trkpt>
<trkpt lat="-27.274439" lon="151.290064">
  <ele>343.1</ele>
  <time>2026-09-01T19:50:37Z</time>
  <course>0.0</course>
  <speed>0.0</speed>
  <fix>3d</fix>
</trkpt>
<trkpt lat="-27.274439" lon="151.290064">
  <ele>343.1</ele>
  <time>2026-09-01T19:50:37Z</time>
  <course>7.55</course>
  <speed>0.0</speed>
  <fix>3d</fix>
</trkpt>
<trkpt lat="-27.274439" lon="151.290064">
  <ele>343.1</ele>
  <time>2026-09-01T19:50:37Z</time>
  <course>0.0</course>
  <speed>0.0</speed>
  <fix>3d</fix>
</trkpt>
<trkpt lat="-27.274439" lon="151.290064">
  <ele>343.1</ele>
  <time>2026-09-01T19:50:37Z</time>
  <course>7.54</course>
  <speed>0.0</speed>
  <fix>3d</fix>
</trkpt>
<trkpt lat="-27.274439" lon="151.290064">
  <ele>343.1</ele>
  <time>2026-09-01T19:50:37Z</time>
  <course>0.0</course>
  <speed>0.0</speed>
  <fix>3d</fix>
</trkpt>
<trkpt lat="-27.274439" lon="151.290064">
  <ele>343.1</ele>
  <time>2026-09-01T19:50:37Z</time>
  <course>7.54</course>
  <speed>0.0</speed>
  <fix>3d</fix>
</trkpt>
<trkpt lat="-27.274439" lon="151.290064">
  <ele>343.1</ele>
  <time>2026-09-01T19:50:37Z</time>
  <course>0.0</course>
  <speed>0.0</speed>
  <fix>3d</fix>
</trkpt>
<trkpt lat="-27.274439" lon="151.290064">
  <ele>343.1</ele>
  <time>2026-09-01T19:50:37Z</time>
  <course>7.54</course>
  <speed>0.0</speed>
  <fix>3d</fix>
</trkpt>
<trkpt lat="-27.274439" lon="151.290064">
  <ele>343.1</ele>
  <time>2026-09-01T19:50:37Z</time>
  <course>0.0</course>
  <speed>0.0</speed>
  <fix>3d</fix>
</trkpt>
<trkpt lat="-27.274439" lon="151.290064">
  <ele>343.1</ele>
  <time>2026-09-01T19:50:37Z</time>
  <course>7.54</course>
  <speed>0.0</speed>
  <fix>3d</fix>
</trkpt>
<trkpt lat="-27.274439" lon="151.290064">
  <ele>343.1</ele>
  <time>2026-09-01T19:50:37Z</time>
  <course>0.0</course>
  <speed>0.0</speed>
  <fix>3d</fix>
</trkpt>
<trkpt lat="-27.274439" lon="151.290064">
  <ele>343.1</ele>
  <time>2026-09-01T19:50:37Z</time>
  <course>7.54</course>
  <speed>0.0</speed>
  <fix>3d</fix>
</trkpt>
<trkpt lat="-27.274439" lon="151.290064">
  <ele>343.1</ele>
  <time>2026-09-01T19:50:37Z</time>
  <course>0.0</course>
  <speed>0.0</speed>
  <fix>3d</fix>
</trkpt>
<trkpt lat="-27.274439" lon="151.290064">
  <ele>343.1</ele>
  <time>2026-09-01T19:50:37Z</time>
  <course>7.54</course>
  <speed>0.0</speed>
  <fix>3d</fix>
</trkpt>
<trkpt lat="-27.274439" lon="151.290064">
  <ele>343.1</ele>
  <time>2026-09-01T19:50:37Z</time>
  <course>0.0</course>
  <speed>0.0</speed>
  <fix>3d</fix>
</trkpt>
<trkpt lat="-27.274439" lon="151.290064">
  <ele>343.1</ele>
  <time>2026-09-01T19:50:37Z</time>
  <course>7.54</course>
  <speed>0.0</speed>
  <fix>3d</fix>
</trkpt>
<trkpt lat="-27.274439" lon="151.290064">
  <ele>343.1</ele>
  <time>2026-09-01T19:50:37Z</time>
  <course>0.0</course>
  <speed>0.0</speed>
  <fix>3d</fix>
</trkpt>
<trkpt lat="-27.274439" lon="151.290064">
  <ele>343.1</ele>
  <time>2026-09-01T19:50:37Z</time>
  <course>7.54</course>
  <speed>0.0</speed>
  <fix>3d</fix>
</trkpt>
<trkpt lat="-27.274439" lon="151.290064">
  <ele>343.1</ele>
  <time>2026-09-01T19:50:37Z</time>
  <course>0.0</course>
  <speed>0.0</speed>
  <fix>3d</fix>
</trkpt>
<trkpt lat="-27.274439" lon="151.290064">
  <ele>343.1</ele>
  <time>2026-09-01T19:50:37Z</time>
  <course>7.54</course>
  <speed>0.0</speed>
  <fix>3d</fix>
</trkpt>
<trkpt lat="-27.274439" lon="151.290064">
  <ele>343.1</ele>
  <time>2026-09-01T19:50:37Z</time>
  <course>0.0</course>
  <speed>0.0</speed>
  <fix>3d</fix>
</trkpt>
<trkpt lat="-27.274439" lon="151.290064">
  <ele>343.1</ele>
  <time>2026-09-01T19:50:37Z</time>
  <course>7.54</course>
  <speed>0.0</speed>
  <fix>3d</fix>
</trkpt>
<trkpt lat="-27.274439" lon="151.290064">
  <ele>343.1</ele>
  <time>2026-09-01T19:50:37Z</time>
  <course>0.0</course>
  <speed>0.0</speed>
  <fix>3d</fix>
</trkpt>
<trkpt lat="-27.274439" lon="151.290064">
  <ele>343.1</ele>
  <time>2026-09-01T19:50:37Z</time>
  <course>7.54</course>
  <speed>0.0</speed>
  <fix>3d</fix>
</trkpt>
<trkpt lat="-27.274439" lon="151.290064">
  <ele>343.1</ele>
  <time>2026-09-01T19:50:37Z</time>
  <course>0.0</course>
  <speed>0.0</speed>
  <fix>3d</fix>
</trkpt>
<trkpt lat="-27.274439" lon="151.290064">
  <ele>343.1</ele>
  <time>2026-09-01T19:50:37Z</time>
  <course>7.54</course>
  <speed>0.0</speed>
  <fix>3d</fix>
</trkpt>
<trkpt lat="-27.274439" lon="151.290064">
  <ele>343.1</ele>
  <time>2026-09-01T19:50:37Z</time>
  <course>0.0</course>
  <speed>0.0</speed>
  <fix>3d</fix>
</trkpt>
<trkpt lat="-27.274439" lon="151.290064">
  <ele>343.1</ele>
  <time>2026-09-01T19:50:37Z</time>
  <course>7.54</course>
  <speed>0.0</speed>
  <fix>3d</fix>
</trkpt>
<trkpt lat="-27.274439" lon="151.290064">
  <ele>343.1</ele>
  <time>2026-09-01T19:50:37Z</time>
  <course>0.0</course>
  <speed>0.0</speed>
  <fix>3d</fix>
</trkpt>
<trkpt lat="-27.274439" lon="151.290064">
  <ele>343.1</ele>
  <time>2026-09-01T19:50:37Z</time>
  <course>7.54</course>
  <speed>0.0</speed>
  <fix>3d</fix>
</trkpt>
<trkpt lat="-27.274439" lon="151.290064">
  <ele>343.1</ele>
  <time>2026-09-01T19:50:37Z</time>
  <course>0.0</course>
  <speed>0.0</speed>
  <fix>3d</fix>
</trkpt>
<trkpt lat="-27.274439" lon="151.290064">
  <ele>343.1</ele>
  <time>2026-09-01T19:50:37Z</time>
  <course>7.54</course>
  <speed>0.0</speed>
  <fix>3d</fix>
</trkpt>
<trkpt lat="-27.274439" lon="151.290064">
  <ele>343.1</ele>
  <time>2026-09-01T19:50:37Z</time>
  <course>0.0</course>
  <speed>0.0</speed>
  <fix>3d</fix>
</trkpt>
<trkpt lat="-27.274439" lon="151.290064">
  <ele>343.1</ele>
  <time>2026-09-01T19:50:37Z</time>
  <course>7.54</course>
  <speed>0.0</speed>
  <fix>3d</fix>
</trkpt>
<trkpt lat="-27.274439" lon="151.290064">
  <ele>343.1</ele>
  <time>2026-09-01T19:50:37Z</time>
  <course>0.0</course>
  <speed>0.0</speed>
  <fix>3d</fix>
</trkpt>
<trkpt lat="-27.274439" lon="151.290064">
  <ele>343.1</ele>
  <time>2026-09-01T19:50:37Z</time>
  <course>7.54</course>
  <speed>0.0</speed>
  <fix>3d</fix>
</trkpt>
<trkpt lat="-27.274439" lon="151.290064">
  <ele>343.1</ele>
  <time>2026-09-01T19:50:37Z</time>
  <course>0.0</course>
  <speed>0.0</speed>
  <fix>3d</fix>
</trkpt>
<trkpt lat="-27.274439" lon="151.290064">
  <ele>343.1</ele>
  <time>2026-09-01T19:50:37Z</time>
  <course>7.54</course>
  <speed>0.0</speed>
  <fix>3d</fix>
</trkpt>
<trkpt lat="-27.274439" lon="151.290064">
  <ele>343.1</ele>
  <time>2026-09-01T19:50:37Z</time>
  <course>0.0</course>
  <speed>0.0</speed>
  <fix>3d</fix>
</trkpt>
<trkpt lat="-27.274439" lon="151.290064">
  <ele>343.1</ele>
  <time>2026-09-01T19:50:37Z</time>
  <course>7.54</course>
  <speed>0.0</speed>
  <fix>3d</fix>
</trkpt>
<trkpt lat="-27.274439" lon="151.290064">
  <ele>343.1</ele>
  <time>2026-09-01T19:50:37Z</time>
  <course>0.0</course>
  <speed>0.0</speed>
  <fix>3d</fix>
</trkpt>
<trkpt lat="-27.274439" lon="151.290064">
  <ele>343.1</ele>
  <time>2026-09-01T19:50:37Z</time>
  <course>7.54</course>
  <speed>0.0</speed>
  <fix>3d</fix>
</trkpt>
<trkpt lat="-27.274439" lon="151.290064">
  <ele>343.1</ele>
  <time>2026-09-01T19:50:37Z</time>
  <course>0.0</course>
  <speed>0.0</speed>
  <fix>3d</fix>
</trkpt>
<trkpt lat="-27.274439" lon="151.290064">
  <ele>343.1</ele>
  <time>2026-09-01T19:50:37Z</time>
  <course>7.54</course>
  <speed>0.0</speed>
  <fix>3d</fix>
</trkpt>
<trkpt lat="-27.274439" lon="151.290064">
  <ele>343.1</ele>
  <time>2026-09-01T19:50:37Z</time>
  <course>0.0</course>
  <speed>0.0</speed>
  <fix>3d</fix>
</trkpt>
<trkpt lat="-27.274439" lon="151.290064">
  <ele>343.1</ele>
  <time>2026-09-01T19:50:37Z</time>
  <course>7.54</course>
  <speed>0.0</speed>
  <fix>3d</fix>
</trkpt>
<trkpt lat="-27.274439" lon="151.290064">
  <ele>343.1</ele>
  <time>2026-09-01T19:50:37Z</time>
  <course>0.0</course>
  <speed>0.0</speed>
  <fix>3d</fix>
</trkpt>
<trkpt lat="-27.274439" lon="151.290064">
  <ele>343.1</ele>
  <time>2026-09-01T19:50:37Z</time>
  <course>7.54</course>
  <speed>0.0</speed>
  <fix>3d</fix>
</trkpt>
<trkpt lat="-27.274439" lon="151.290064">
  <ele>343.1</ele>
  <time>2026-09-01T19:50:37Z</time>
  <course>0.0</course>
  <speed>0.0</speed>
  <fix>3d</fix>
</trkpt>
<trkpt lat="-27.274439" lon="151.290064">
  <ele>343.1</ele>
  <time>2026-09-01T19:50:37Z</time>
  <course>7.54</course>
  <speed>0.0</speed>
  <fix>3d</fix>
</trkpt>
<trkpt lat="-27.274439" lon="151.290064">
  <ele>343.1</ele>
  <time>2026-09-01T19:50:37Z</time>
  <course>0.0</course>
  <speed>0.0</speed>
  <fix>3d</fix>
</trkpt>
<trkpt lat="-27.274439" lon="151.290064">
  <ele>343.1</ele>
  <time>2026-09-01T19:50:37Z</time>
  <course>7.54</course>
  <speed>0.0</speed>
  <fix>3d</fix>
</trkpt>
<trkpt lat="-27.274439" lon="151.290064">
  <ele>343.1</ele>
  <time>2026-09-01T19:50:37Z</time>
  <course>0.0</course>
  <speed>0.0</speed>
  <fix>3d</fix>
</trkpt>
<trkpt lat="-27.274439" lon="151.290064">
  <ele>343.1</ele>
  <time>2026-09-01T19:50:37Z</time>
  <course>7.54</course>
  <speed>0.0</speed>
  <fix>3d</fix>
</trkpt>
<trkpt lat="-27.274439" lon="151.290064">
  <ele>343.1</ele>
  <time>2026-09-01T19:50:37Z</time>
  <course>0.0</course>
  <speed>0.0</speed>
  <fix>3d</fix>
</trkpt>
<trkpt lat="-27.274439" lon="151.290064">
  <ele>343.1</ele>
  <time>2026-09-01T19:50:37Z</time>
  <course>7.54</course>
  <speed>0.0</speed>
  <fix>3d</fix>
</trkpt>
<trkpt lat="-27.274439" lon="151.290064">
  <ele>343.1</ele>
  <time>2026-09-01T19:50:37Z</time>
  <course>0.0</course>
  <speed>0.0</speed>
  <fix>3d</fix>
</trkpt>
<trkpt lat="-27.274439" lon="151.290064">
  <ele>343.1</ele>
  <time>2026-09-01T19:50:37Z</time>
  <course>7.54</course>
  <speed>0.0</speed>
  <fix>3d</fix>
</trkpt>
<trkpt lat="-27.274439" lon="151.290064">
  <ele>343.1</ele>
  <time>2026-09-01T19:50:37Z</time>
  <course>0.0</course>
  <speed>0.0</speed>
  <fix>3d</fix>
</trkpt>
<trkpt lat="-27.274439" lon="151.290064">
  <ele>343.1</ele>
  <time>2026-09-01T19:50:37Z</time>
  <course>7.54</course>
  <speed>0.0</speed>
  <fix>3d</fix>
</trkpt>
<trkpt lat="-27.274439" lon="151.290064">
  <ele>343.1</ele>
  <time>2026-09-01T19:50:37Z</time>
  <course>0.0</course>
  <speed>0.0</speed>
  <fix>3d</fix>
</trkpt>
<trkpt lat="-27.274439" lon="151.290064">
  <ele>343.1</ele>
  <time>2026-09-01T19:50:37Z</time>
  <course>7.54</course>
  <speed>0.0</speed>
  <fix>3d</fix>
</trkpt>
<trkpt lat="-27.274439" lon="151.290064">
  <ele>343.1</ele>
  <time>2026-09-01T19:50:37Z</time>
  <course>0.0</course>
  <speed>0.0</speed>
  <fix>3d</fix>
</trkpt>
<trkpt lat="-27.274439" lon="151.290064">
  <ele>343.1</ele>
  <time>2026-09-01T19:50:37Z</time>
  <course>7.54</course>
  <speed>0.0</speed>
  <fix>3d</fix>
</trkpt>
<trkpt lat="-27.274439" lon="151.290064">
  <ele>343.1</ele>
  <time>2026-09-01T19:50:37Z</time>
  <course>0.0</course>
  <speed>0.0</speed>
  <fix>3d</fix>
</trkpt>
<trkpt lat="-27.274439" lon="151.290064">
  <ele>343.1</ele>
  <time>2026-09-01T19:50:37Z</time>
  <course>7.54</course>
  <speed>0.0</speed>
  <fix>3d</fix>
</trkpt>
<trkpt lat="-27.274439" lon="151.290064">
  <ele>343.1</ele>
  <time>2026-09-01T19:50:37Z</time>
  <course>0.0</course>
  <speed>0.0</speed>
  <fix>3d</fix>
</trkpt>
<trkpt lat="-27.274439" lon="151.290064">
  <ele>343.1</ele>
  <time>2026-09-01T19:50:37Z</time>
  <course>7.54</course>
  <speed>0.0</speed>
  <fix>3d</fix>
</trkpt>
<trkpt lat="-27.274439" lon="151.290064">
  <ele>343.1</ele>
  <time>2026-09-01T19:50:37Z</time>
  <course>0.0</course>
  <speed>0.0</speed>
  <fix>3d</fix>
</trkpt>
<trkpt lat="-27.274439" lon="151.290064">
  <ele>343.1</ele>
  <time>2026-09-01T19:50:37Z</time>
  <course>7.54</course>
  <speed>0.0</speed>
  <fix>3d</fix>
</trkpt>
<trkpt lat="-27.274439" lon="151.290064">
  <ele>343.1</ele>
  <time>2026-09-01T19:50:37Z</time>
  <course>0.0</course>
  <speed>0.0</speed>
  <fix>3d</fix>
</trkpt>
<trkpt lat="-27.274439" lon="151.290064">
  <ele>343.1</ele>
  <time>2026-09-01T19:50:37Z</time>
  <course>7.54</course>
  <speed>0.0</speed>
  <fix>3d</fix>
</trkpt>
<trkpt lat="-27.274439" lon="151.290064">
  <ele>343.1</ele>
  <time>2026-09-01T19:50:37Z</time>
  <course>0.0</course>
  <speed>0.0</speed>
  <fix>3d</fix>
</trkpt>
<trkpt lat="-27.274439" lon="151.290064">
  <ele>343.1</ele>
  <time>2026-09-01T19:50:37Z</time>
  <course>7.54</course>
  <speed>0.0</speed>
  <fix>3d</fix>
</trkpt>
<trkpt lat="-27.274439" lon="151.290064">
  <ele>343.1</ele>
  <time>2026-09-01T19:50:37Z</time>
  <course>0.0</course>
  <speed>0.0</speed>
  <fix>3d</fix>
</trkpt>
<trkpt lat="-27.274439" lon="151.290064">
  <ele>343.1</ele>
  <time>2026-09-01T19:50:37Z</time>
  <course>7.54</course>
  <speed>0.0</speed>
  <fix>3d</fix>
</trkpt>
<trkpt lat="-27.274439" lon="151.290064">
  <ele>343.1</ele>
  <time>2026-09-01T19:50:37Z</time>
  <course>0.0</course>
  <speed>0.0</speed>
  <fix>3d</fix>
</trkpt>
<trkpt lat="-27.274439" lon="151.290064">
  <ele>343.1</ele>
  <time>2026-09-01T19:50:37Z</time>
  <course>7.54</course>
  <speed>0.0</speed>
  <fix>3d</fix>
</trkpt>
<trkpt lat="-27.274439" lon="151.290064">
  <ele>343.1</ele>
  <time>2026-09-01T19:50:37Z</time>
  <course>0.0</course>
  <speed>0.0</speed>
  <fix>3d</fix>
</trkpt>
<trkpt lat="-27.274439" lon="151.290064">
  <ele>343.1</ele>
  <time>2026-09-01T19:50:37Z</time>
  <course>7.54</course>
  <speed>0.0</speed>
  <fix>3d</fix>
</trkpt>
<trkpt lat="-27.274439" lon="151.290064">
  <ele>343.1</ele>
  <time>2026-09-01T19:50:37Z</time>
  <course>0.0</course>
  <speed>0.0</speed>
  <fix>3d</fix>
</trkpt>
<trkpt lat="-27.274439" lon="151.290064">
  <ele>343.1</ele>
  <time>2026-09-01T19:50:37Z</time>
  <course>7.54</course>
  <speed>0.0</speed>
  <fix>3d</fix>
</trkpt>
<trkpt lat="-27.274439" lon="151.290064">
  <ele>343.1</ele>
  <time>2026-09-01T19:50:37Z</time>
  <course>0.0</course>
  <speed>0.0</speed>
  <fix>3d</fix>
</trkpt>
<trkpt lat="-27.274439" lon="151.290064">
  <ele>343.1</ele>
  <time>2026-09-01T19:50:37Z</time>
  <course>7.54</course>
  <speed>0.0</speed>
  <fix>3d</fix>
</trkpt>
<trkpt lat="-27.274439" lon="151.290064">
  <ele>343.1</ele>
  <time>2026-09-01T19:50:37Z</time>
  <course>0.0</course>
  <speed>0.0</speed>
  <fix>3d</fix>
</trkpt>
<trkpt lat="-27.274439" lon="151.290064">
  <ele>343.1</ele>
  <time>2026-09-01T19:50:37Z</time>
  <course>7.54</course>
  <speed>0.0</speed>
  <fix>3d</fix>
</trkpt>
<trkpt lat="-27.274439" lon="151.290064">
  <ele>343.1</ele>
  <time>2026-09-01T19:50:37Z</time>
  <course>0.0</course>
  <speed>0.0</speed>
  <fix>3d</fix>
</trkpt>
<trkpt lat="-27.274439" lon="151.290064">
  <ele>343.1</ele>
  <time>2026-09-01T19:50:37Z</time>
  <course>7.54</course>
  <speed>0.0</speed>
  <fix>3d</fix>
</trkpt>
<trkpt lat="-27.274439" lon="151.290064">
  <ele>343.1</ele>
  <time>2026-09-01T19:50:37Z</time>
  <course>0.0</course>
  <speed>0.0</speed>
  <fix>3d</fix>
</trkpt>
<trkpt lat="-27.274439" lon="151.290064">
  <ele>343.1</ele>
  <time>2026-09-01T19:50:37Z</time>
  <course>7.54</course>
  <speed>0.0</speed>
  <fix>3d</fix>
</trkpt>
<trkpt lat="-27.274439" lon="151.290064">
  <ele>343.1</ele>
  <time>2026-09-01T19:50:37Z</time>
  <course>0.0</course>
  <speed>0.0</speed>
  <fix>3d</fix>
</trkpt>
<trkpt lat="-27.274439" lon="151.290064">
  <ele>343.1</ele>
  <time>2026-09-01T19:50:37Z</time>
  <course>7.54</course>
  <speed>0.0</speed>
  <fix>3d</fix>
</trkpt>
<trkpt lat="-27.274439" lon="151.290064">
  <ele>343.1</ele>
  <time>2026-09-01T19:50:37Z</time>
  <course>0.0</course>
  <speed>0.0</speed>
  <fix>3d</fix>
</trkpt>
<trkpt lat="-27.274439" lon="151.290064">
  <ele>343.1</ele>
  <time>2026-09-01T19:50:37Z</time>
  <course>7.54</course>
  <speed>0.0</speed>
  <fix>3d</fix>
</trkpt>
<trkpt lat="-27.274439" lon="151.290064">
  <ele>343.1</ele>
  <time>2026-09-01T19:50:37Z</time>
  <course>0.0</course>
  <speed>0.0</speed>
  <fix>3d</fix>
</trkpt>
<trkpt lat="-27.274439" lon="151.290064">
  <ele>343.1</ele>
  <time>2026-09-01T19:50:37Z</time>
  <course>7.54</course>
  <speed>0.0</speed>
  <fix>3d</fix>
</trkpt>
<trkpt lat="-27.274439" lon="151.290064">
  <ele>343.1</ele>
  <time>2026-09-01T19:50:37Z</time>
  <course>0.0</course>
  <speed>0.0</speed>
  <fix>3d</fix>
</trkpt>
<trkpt lat="-27.274439" lon="151.290064">
  <ele>343.1</ele>
  <time>2026-09-01T19:50:37Z</time>
  <course>7.54</course>
  <speed>0.0</speed>
  <fix>3d</fix>
</trkpt>
<trkpt lat="-27.274439" lon="151.290064">
  <ele>343.1</ele>
  <time>2026-09-01T19:50:37Z</time>
  <course>0.0</course>
  <speed>0.0</speed>
  <fix>3d</fix>
</trkpt>
<trkpt lat="-27.274439" lon="151.290064">
  <ele>343.1</ele>
  <time>2026-09-01T19:50:37Z</time>
  <course>7.54</course>
  <speed>0.0</speed>
  <fix>3d</fix>
</trkpt>
<trkpt lat="-27.274439" lon="151.290064">
  <ele>343.1</ele>
  <time>2026-09-01T19:50:37Z</time>
  <course>0.0</course>
  <speed>0.0</speed>
  <fix>3d</fix>
</trkpt>
<trkpt lat="-27.274439" lon="151.290064">
  <ele>343.1</ele>
  <time>2026-09-01T19:50:37Z</time>
  <course>7.54</course>
  <speed>0.0</speed>
  <fix>3d</fix>
</trkpt>
<trkpt lat="-27.274439" lon="151.290064">
  <ele>343.1</ele>
  <time>2026-09-01T19:50:37Z</time>
  <course>0.0</course>
  <speed>0.0</speed>
  <fix>3d</fix>
</trkpt>
<trkpt lat="-27.274439" lon="151.290064">
  <ele>343.1</ele>
  <time>2026-09-01T19:50:37Z</time>
  <course>7.54</course>
  <speed>0.0</speed>
  <fix>3d</fix>
</trkpt>
<trkpt lat="-27.274439" lon="151.290064">
  <ele>343.1</ele>
  <time>2026-09-01T19:50:37Z</time>
  <course>0.0</course>
  <speed>0.0</speed>
  <fix>3d</fix>
</trkpt>
<trkpt lat="-27.274439" lon="151.290064">
  <ele>343.1</ele>
  <time>2026-09-01T19:50:37Z</time>
  <course>7.54</course>
  <speed>0.0</speed>
  <fix>3d</fix>
</trkpt>
<trkpt lat="-27.274439" lon="151.290064">
  <ele>343.1</ele>
  <time>2026-09-01T19:50:37Z</time>
  <course>0.0</course>
  <speed>0.0</speed>
  <fix>3d</fix>
</trkpt>
<trkpt lat="-27.274439" lon="151.290064">
  <ele>343.1</ele>
  <time>2026-09-01T19:50:37Z</time>
  <course>7.54</course>
  <speed>0.0</speed>
  <fix>3d</fix>
</trkpt>
<trkpt lat="-27.274439" lon="151.290064">
  <ele>343.1</ele>
  <time>2026-09-01T19:50:37Z</time>
  <course>142.54</course>
  <speed>0.0</speed>
  <fix>3d</fix>
</trkpt>
<trkpt lat="-27.274439" lon="151.290064">
  <ele>343.1</ele>
  <time>2026-09-01T19:50:37Z</time>
  <course>7.54</course>
  <speed>0.0</speed>
  <fix>3d</fix>
</trkpt>
<trkpt lat="-27.274439" lon="151.290064">
  <ele>343.1</ele>
  <time>2026-09-01T19:50:37Z</time>
  <course>142.54</course>
  <speed>0.0</speed>
  <fix>3d</fix>
</trkpt>
<trkpt lat="-27.274439" lon="151.290064">
  <ele>343.1</ele>
  <time>2026-09-01T19:50:37Z</time>
  <course>7.54</course>
  <speed>0.0</speed>
  <fix>3d</fix>
</trkpt>
<trkpt lat="-27.274439" lon="151.290064">
  <ele>343.1</ele>
  <time>2026-09-01T19:50:37Z</time>
  <course>142.54</course>
  <speed>0.0</speed>
  <fix>3d</fix>
</trkpt>
<trkpt lat="-27.274439" lon="151.290064">
  <ele>343.1</ele>
  <time>2026-09-01T19:50:37Z</time>
  <course>7.54</course>
  <speed>0.0</speed>
  <fix>3d</fix>
</trkpt>
<trkpt lat="-27.274439" lon="151.290064">
  <ele>343.1</ele>
  <time>2026-09-01T19:50:37Z</time>
  <course>142.54</course>
  <speed>0.0</speed>
  <fix>3d</fix>
</trkpt>
<trkpt lat="-27.274439" lon="151.290064">
  <ele>343.1</ele>
  <time>2026-09-01T19:50:37Z</time>
  <course>7.53</course>
  <speed>0.0</speed>
  <fix>3d</fix>
</trkpt>
<trkpt lat="-27.274439" lon="151.290064">
  <ele>343.1</ele>
  <time>2026-09-01T19:50:37Z</time>
  <course>322.54</course>
  <speed>0.0</speed>
  <fix>3d</fix>
</trkpt>
<trkpt lat="-27.274439" lon="151.290064">
  <ele>343.1</ele>
  <time>2026-09-01T19:50:37Z</time>
  <course>7.53</course>
  <speed>0.0</speed>
  <fix>3d</fix>
</trkpt>
<trkpt lat="-27.274439" lon="151.290064">
  <ele>343.1</ele>
  <time>2026-09-01T19:50:37Z</time>
  <course>322.54</course>
  <speed>0.0</speed>
  <fix>3d</fix>
</trkpt>
<trkpt lat="-27.274439" lon="151.290064">
  <ele>343.1</ele>
  <time>2026-09-01T19:50:37Z</time>
  <course>7.53</course>
  <speed>0.0</speed>
  <fix>3d</fix>
</trkpt>
<trkpt lat="-27.274439" lon="151.290064">
  <ele>343.1</ele>
  <time>2026-09-01T19:50:37Z</time>
  <course>322.54</course>
  <speed>0.0</speed>
  <fix>3d</fix>
</trkpt>
<trkpt lat="-27.274439" lon="151.290064">
  <ele>343.1</ele>
  <time>2026-09-01T19:50:37Z</time>
  <course>7.53</course>
  <speed>0.0</speed>
  <fix>3d</fix>
</trkpt>
<trkpt lat="-27.274439" lon="151.290064">
  <ele>343.1</ele>
  <time>2026-09-01T19:50:37Z</time>
  <course>322.54</course>
  <speed>0.0</speed>
  <fix>3d</fix>
</trkpt>
<trkpt lat="-27.274439" lon="151.290064">
  <ele>343.1</ele>
  <time>2026-09-01T19:50:37Z</time>
  <course>7.53</course>
  <speed>0.0</speed>
  <fix>3d</fix>
</trkpt>
<trkpt lat="-27.274439" lon="151.290064">
  <ele>343.1</ele>
  <time>2026-09-01T19:50:37Z</time>
  <course>322.54</course>
  <speed>0.0</speed>
  <fix>3d</fix>
</trkpt>
<trkpt lat="-27.274439" lon="151.290064">
  <ele>343.1</ele>
  <time>2026-09-01T19:50:38Z</time>
  <course>7.52</course>
  <speed>0.0</speed>
  <fix>3d</fix>
</trkpt>
<trkpt lat="-27.274439" lon="151.290064">
  <ele>343.1</ele>
  <time>2026-09-01T19:50:38Z</time>
  <course>322.54</course>
  <speed>0.0</speed>
  <fix>3d</fix>
</trkpt>
<trkpt lat="-27.274439" lon="151.290064">
  <ele>343.1</ele>
  <time>2026-09-01T19:50:38Z</time>
  <course>7.52</course>
  <speed>0.0</speed>
  <fix>3d</fix>
</trkpt>
<trkpt lat="-27.274439" lon="151.290064">
  <ele>343.1</ele>
  <time>2026-09-01T19:50:38Z</time>
  <course>142.54</course>
  <speed>0.0</speed>
  <fix>3d</fix>
</trkpt>
<trkpt lat="-27.274439" lon="151.290064">
  <ele>343.1</ele>
  <time>2026-09-01T19:50:38Z</time>
  <course>7.52</course>
  <speed>0.0</speed>
  <fix>3d</fix>
</trkpt>
<trkpt lat="-27.274439" lon="151.290064">
  <ele>343.1</ele>
  <time>2026-09-01T19:50:38Z</time>
  <course>142.54</course>
  <speed>0.0</speed>
  <fix>3d</fix>
</trkpt>
<trkpt lat="-27.274439" lon="151.290064">
  <ele>343.1</ele>
  <time>2026-09-01T19:50:38Z</time>
  <course>7.52</course>
  <speed>0.0</speed>
  <fix>3d</fix>
</trkpt>
<trkpt lat="-27.274439" lon="151.290064">
  <ele>343.1</ele>
  <time>2026-09-01T19:50:38Z</time>
  <course>142.54</course>
  <speed>0.0</speed>
  <fix>3d</fix>
</trkpt>
<trkpt lat="-27.274439" lon="151.290064">
  <ele>343.1</ele>
  <time>2026-09-01T19:50:38Z</time>
  <course>7.52</course>
  <speed>0.0</speed>
  <fix>3d</fix>
</trkpt>
<trkpt lat="-27.274439" lon="151.290064">
  <ele>343.1</ele>
  <time>2026-09-01T19:50:38Z</time>
  <course>142.54</course>
  <speed>0.0</speed>
  <fix>3d</fix>
</trkpt>
<trkpt lat="-27.274439" lon="151.290064">
  <ele>343.1</ele>
  <time>2026-09-01T19:50:38Z</time>
  <course>7.51</course>
  <speed>0.0</speed>
  <fix>3d</fix>
</trkpt>
<trkpt lat="-27.274439" lon="151.290064">
  <ele>343.1</ele>
  <time>2026-09-01T19:50:38Z</time>
  <course>322.54</course>
  <speed>0.0</speed>
  <fix>3d</fix>
</trkpt>
<trkpt lat="-27.274439" lon="151.290064">
  <ele>343.1</ele>
  <time>2026-09-01T19:50:38Z</time>
  <course>7.51</course>
  <speed>0.0</speed>
  <fix>3d</fix>
</trkpt>
<trkpt lat="-27.274439" lon="151.290064">
  <ele>343.1</ele>
  <time>2026-09-01T19:50:38Z</time>
  <course>322.54</course>
  <speed>0.0</speed>
  <fix>3d</fix>
</trkpt>
<trkpt lat="-27.274439" lon="151.290064">
  <ele>343.1</ele>
  <time>2026-09-01T19:50:38Z</time>
  <course>7.51</course>
  <speed>0.0</speed>
  <fix>3d</fix>
</trkpt>
<trkpt lat="-27.274439" lon="151.290064">
  <ele>343.1</ele>
  <time>2026-09-01T19:50:38Z</time>
  <course>142.54</course>
  <speed>0.0</speed>
  <fix>3d</fix>
</trkpt>
<trkpt lat="-27.274439" lon="151.290064">
  <ele>343.1</ele>
  <time>2026-09-01T19:50:38Z</time>
  <course>7.51</course>
  <speed>0.0</speed>
  <fix>3d</fix>
</trkpt>
<trkpt lat="-27.274439" lon="151.290064">
  <ele>343.1</ele>
  <time>2026-09-01T19:50:38Z</time>
  <course>142.54</course>
  <speed>0.0</speed>
  <fix>3d</fix>
</trkpt>
<trkpt lat="-27.274439" lon="151.290064">
  <ele>343.1</ele>
  <time>2026-09-01T19:50:38Z</time>
  <course>7.51</course>
  <speed>0.0</speed>
  <fix>3d</fix>
</trkpt>
<trkpt lat="-27.274439" lon="151.290064">
  <ele>343.1</ele>
  <time>2026-09-01T19:50:38Z</time>
  <course>142.54</course>
  <speed>0.0</speed>
  <fix>3d</fix>
</trkpt>
<trkpt lat="-27.274439" lon="151.290064">
  <ele>343.1</ele>
  <time>2026-09-01T19:50:38Z</time>
  <course>7.5</course>
  <speed>0.0</speed>
  <fix>3d</fix>
</trkpt>
<trkpt lat="-27.274439" lon="151.290064">
  <ele>343.1</ele>
  <time>2026-09-01T19:50:38Z</time>
  <course>142.54</course>
  <speed>0.0</speed>
  <fix>3d</fix>
</trkpt>
<trkpt lat="-27.274439" lon="151.290064">
  <ele>343.1</ele>
  <time>2026-09-01T19:50:38Z</time>
  <course>7.5</course>
  <speed>0.0</speed>
  <fix>3d</fix>
</trkpt>
<trkpt lat="-27.274439" lon="151.290064">
  <ele>343.1</ele>
  <time>2026-09-01T19:50:38Z</time>
  <course>322.54</course>
  <speed>0.0</speed>
  <fix>3d</fix>
</trkpt>
<trkpt lat="-27.274439" lon="151.290064">
  <ele>343.1</ele>
  <time>2026-09-01T19:50:38Z</time>
  <course>7.5</course>
  <speed>0.0</speed>
  <fix>3d</fix>
</trkpt>
<trkpt lat="-27.274439" lon="151.290064">
  <ele>343.1</ele>
  <time>2026-09-01T19:50:38Z</time>
  <course>322.54</course>
  <speed>0.0</speed>
  <fix>3d</fix>
</trkpt>
<trkpt lat="-27.274439" lon="151.290064">
  <ele>343.1</ele>
  <time>2026-09-01T19:50:38Z</time>
  <course>7.5</course>
  <speed>0.0</speed>
  <fix>3d</fix>
</trkpt>
<trkpt lat="-27.274439" lon="151.290064">
  <ele>343.1</ele>
  <time>2026-09-01T19:50:38Z</time>
  <course>322.54</course>
  <speed>0.0</speed>
  <fix>3d</fix>
</trkpt>
<trkpt lat="-27.274439" lon="151.290064">
  <ele>343.1</ele>
  <time>2026-09-01T19:50:38Z</time>
  <course>7.49</course>
  <speed>0.0</speed>
  <fix>3d</fix>
</trkpt>
<trkpt lat="-27.274439" lon="151.290064">
  <ele>343.1</ele>
  <time>2026-09-01T19:50:38Z</time>
  <course>322.54</course>
  <speed>0.0</speed>
  <fix>3d</fix>
</trkpt>
<trkpt lat="-27.274439" lon="151.290064">
  <ele>343.1</ele>
  <time>2026-09-01T19:50:38Z</time>
  <course>7.49</course>
  <speed>0.0</speed>
  <fix>3d</fix>
</trkpt>
<trkpt lat="-27.274439" lon="151.290064">
  <ele>343.1</ele>
  <time>2026-09-01T19:50:38Z</time>
  <course>142.54</course>
  <speed>0.0</speed>
  <fix>3d</fix>
</trkpt>
<trkpt lat="-27.274439" lon="151.290064">
  <ele>343.1</ele>
  <time>2026-09-01T19:50:38Z</time>
  <course>7.49</course>
  <speed>0.0</speed>
  <fix>3d</fix>
</trkpt>
<trkpt lat="-27.274439" lon="151.290064">
  <ele>343.1</ele>
  <time>2026-09-01T19:50:38Z</time>
  <course>142.54</course>
  <speed>0.0</speed>
  <fix>3d</fix>
</trkpt>
<trkpt lat="-27.274439" lon="151.290064">
  <ele>343.1</ele>
  <time>2026-09-01T19:50:38Z</time>
  <course>7.49</course>
  <speed>0.0</speed>
  <fix>3d</fix>
</trkpt>
<trkpt lat="-27.274439" lon="151.290064">
  <ele>343.1</ele>
  <time>2026-09-01T19:50:38Z</time>
  <course>142.54</course>
  <speed>0.0</speed>
  <fix>3d</fix>
</trkpt>
<trkpt lat="-27.274439" lon="151.290064">
  <ele>343.1</ele>
  <time>2026-09-01T19:50:38Z</time>
  <course>7.49</course>
  <speed>0.0</speed>
  <fix>3d</fix>
</trkpt>
<trkpt lat="-27.274439" lon="151.290064">
  <ele>343.1</ele>
  <time>2026-09-01T19:50:38Z</time>
  <course>142.54</course>
  <speed>0.0</speed>
  <fix>3d</fix>
</trkpt>
<trkpt lat="-27.274439" lon="151.290064">
  <ele>343.1</ele>
  <time>2026-09-01T19:50:38Z</time>
  <course>7.48</course>
  <speed>0.0</speed>
  <fix>3d</fix>
</trkpt>
<trkpt lat="-27.274439" lon="151.290064">
  <ele>343.1</ele>
  <time>2026-09-01T19:50:38Z</time>
  <course>322.54</course>
  <speed>0.0</speed>
  <fix>3d</fix>
</trkpt>
<trkpt lat="-27.274439" lon="151.290064">
  <ele>343.1</ele>
  <time>2026-09-01T19:50:38Z</time>
  <course>7.48</course>
  <speed>0.0</speed>
  <fix>3d</fix>
</trkpt>
<trkpt lat="-27.274439" lon="151.290064">
  <ele>343.1</ele>
  <time>2026-09-01T19:50:38Z</time>
  <course>322.54</course>
  <speed>0.0</speed>
  <fix>3d</fix>
</trkpt>
<trkpt lat="-27.274439" lon="151.290064">
  <ele>343.1</ele>
  <time>2026-09-01T19:50:38Z</time>
  <course>7.48</course>
  <speed>0.0</speed>
  <fix>3d</fix>
</trkpt>
<trkpt lat="-27.274439" lon="151.290064">
  <ele>343.1</ele>
  <time>2026-09-01T19:50:38Z</time>
  <course>322.53</course>
  <speed>0.0</speed>
  <fix>3d</fix>
</trkpt>
<trkpt lat="-27.274439" lon="151.290064">
  <ele>343.1</ele>
  <time>2026-09-01T19:50:38Z</time>
  <course>7.48</course>
  <speed>0.0</speed>
  <fix>3d</fix>
</trkpt>
<trkpt lat="-27.274439" lon="151.290064">
  <ele>343.1</ele>
  <time>2026-09-01T19:50:38Z</time>
  <course>322.53</course>
  <speed>0.0</speed>
  <fix>3d</fix>
</trkpt>
<trkpt lat="-27.274439" lon="151.290064">
  <ele>343.1</ele>
  <time>2026-09-01T19:50:38Z</time>
  <course>7.48</course>
  <speed>0.0</speed>
  <fix>3d</fix>
</trkpt>
<trkpt lat="-27.274439" lon="151.290064">
  <ele>343.1</ele>
  <time>2026-09-01T19:50:38Z</time>
  <course>142.53</course>
  <speed>0.0</speed>
  <fix>3d</fix>
</trkpt>
<trkpt lat="-27.274439" lon="151.290064">
  <ele>343.1</ele>
  <time>2026-09-01T19:50:38Z</time>
  <course>7.47</course>
  <speed>0.0</speed>
  <fix>3d</fix>
</trkpt>
<trkpt lat="-27.274439" lon="151.290064">
  <ele>343.1</ele>
  <time>2026-09-01T19:50:38Z</time>
  <course>142.53</course>
  <speed>0.0</speed>
  <fix>3d</fix>
</trkpt>
<trkpt lat="-27.274439" lon="151.290064">
  <ele>343.1</ele>
  <time>2026-09-01T19:50:38Z</time>
  <course>7.47</course>
  <speed>0.0</speed>
  <fix>3d</fix>
</trkpt>
<trkpt lat="-27.274439" lon="151.290064">
  <ele>343.1</ele>
  <time>2026-09-01T19:50:38Z</time>
  <course>322.98</course>
  <speed>0.0</speed>
  <fix>3d</fix>
</trkpt>
<trkpt lat="-27.274439" lon="151.290064">
  <ele>343.1</ele>
  <time>2026-09-01T19:50:38Z</time>
  <course>7.47</course>
  <speed>0.0</speed>
  <fix>3d</fix>
</trkpt>
<trkpt lat="-27.274439" lon="151.290064">
  <ele>343.1</ele>
  <time>2026-09-01T19:50:38Z</time>
  <course>322.98</course>
  <speed>0.0</speed>
  <fix>3d</fix>
</trkpt>
<trkpt lat="-27.274439" lon="151.290064">
  <ele>343.1</ele>
  <time>2026-09-01T19:50:38Z</time>
  <course>7.47</course>
  <speed>0.0</speed>
  <fix>3d</fix>
</trkpt>
<trkpt lat="-27.274439" lon="151.290064">
  <ele>343.1</ele>
  <time>2026-09-01T19:50:38Z</time>
  <course>322.66</course>
  <speed>0.0</speed>
  <fix>3d</fix>
</trkpt>
<trkpt lat="-27.274439" lon="151.290064">
  <ele>343.1</ele>
  <time>2026-09-01T19:50:38Z</time>
  <course>7.47</course>
  <speed>0.0</speed>
  <fix>3d</fix>
</trkpt>
<trkpt lat="-27.274439" lon="151.290064">
  <ele>343.1</ele>
  <time>2026-09-01T19:50:38Z</time>
  <course>322.66</course>
  <speed>0.0</speed>
  <fix>3d</fix>
</trkpt>
<trkpt lat="-27.274439" lon="151.290064">
  <ele>343.1</ele>
  <time>2026-09-01T19:50:38Z</time>
  <course>7.46</course>
  <speed>0.0</speed>
  <fix>3d</fix>
</trkpt>
<trkpt lat="-27.274439" lon="151.290064">
  <ele>343.1</ele>
  <time>2026-09-01T19:50:38Z</time>
  <course>143.38</course>
  <speed>0.0</speed>
  <fix>3d</fix>
</trkpt>
<trkpt lat="-27.274439" lon="151.290064">
  <ele>343.1</ele>
  <time>2026-09-01T19:50:38Z</time>
  <course>7.46</course>
  <speed>0.0</speed>
  <fix>3d</fix>
</trkpt>
<trkpt lat="-27.274439" lon="151.290064">
  <ele>343.1</ele>
  <time>2026-09-01T19:50:38Z</time>
  <course>143.38</course>
  <speed>0.0</speed>
  <fix>3d</fix>
</trkpt>
<trkpt lat="-27.274439" lon="151.290064">
  <ele>343.1</ele>
  <time>2026-09-01T19:50:38Z</time>
  <course>7.46</course>
  <speed>0.0</speed>
  <fix>3d</fix>
</trkpt>
<trkpt lat="-27.274439" lon="151.290064">
  <ele>343.1</ele>
  <time>2026-09-01T19:50:38Z</time>
  <course>145.78</course>
  <speed>0.0</speed>
  <fix>3d</fix>
</trkpt>
<trkpt lat="-27.274439" lon="151.290064">
  <ele>343.1</ele>
  <time>2026-09-01T19:50:38Z</time>
  <course>7.46</course>
  <speed>0.0</speed>
  <fix>3d</fix>
</trkpt>
<trkpt lat="-27.274439" lon="151.290064">
  <ele>343.1</ele>
  <time>2026-09-01T19:50:38Z</time>
  <course>145.78</course>
  <speed>0.0</speed>
  <fix>3d</fix>
</trkpt>
<trkpt lat="-27.274439" lon="151.290064">
  <ele>343.1</ele>
  <time>2026-09-01T19:50:38Z</time>
  <course>7.46</course>
  <speed>0.0</speed>
  <fix>3d</fix>
</trkpt>
<trkpt lat="-27.274439" lon="151.290064">
  <ele>343.1</ele>
  <time>2026-09-01T19:50:38Z</time>
  <course>329.6</course>
  <speed>0.0</speed>
  <fix>3d</fix>
</trkpt>
<trkpt lat="-27.274439" lon="151.290064">
  <ele>343.1</ele>
  <time>2026-09-01T19:50:38Z</time>
  <course>7.45</course>
  <speed>0.0</speed>
  <fix>3d</fix>
</trkpt>
<trkpt lat="-27.274439" lon="151.290064">
  <ele>343.1</ele>
  <time>2026-09-01T19:50:38Z</time>
  <course>329.6</course>
  <speed>0.0</speed>
  <fix>3d</fix>
</trkpt>
<trkpt lat="-27.274439" lon="151.290064">
  <ele>343.1</ele>
  <time>2026-09-01T19:50:38Z</time>
  <course>7.45</course>
  <speed>0.0</speed>
  <fix>3d</fix>
</trkpt>
<trkpt lat="-27.274439" lon="151.290064">
  <ele>343.1</ele>
  <time>2026-09-01T19:50:38Z</time>
  <course>351.8</course>
  <speed>0.0</speed>
  <fix>3d</fix>
</trkpt>
<trkpt lat="-27.274439" lon="151.290064">
  <ele>343.1</ele>
  <time>2026-09-01T19:50:38Z</time>
  <course>7.45</course>
  <speed>0.0</speed>
  <fix>3d</fix>
</trkpt>
<trkpt lat="-27.274439" lon="151.290064">
  <ele>343.1</ele>
  <time>2026-09-01T19:50:38Z</time>
  <course>351.8</course>
  <speed>0.0</speed>
  <fix>3d</fix>
</trkpt>
<trkpt lat="-27.274439" lon="151.290064">
  <ele>343.1</ele>
  <time>2026-09-01T19:50:38Z</time>
  <course>7.45</course>
  <speed>0.0</speed>
  <fix>3d</fix>
</trkpt>
<trkpt lat="-27.274439" lon="151.290064">
  <ele>343.1</ele>
  <time>2026-09-01T19:50:38Z</time>
  <course>4.96</course>
  <speed>0.0</speed>
  <fix>3d</fix>
</trkpt>
<trkpt lat="-27.274439" lon="151.290064">
  <ele>343.1</ele>
  <time>2026-09-01T19:50:38Z</time>
  <course>7.44</course>
  <speed>0.0</speed>
  <fix>3d</fix>
</trkpt>
<trkpt lat="-27.274439" lon="151.290064">
  <ele>343.1</ele>
  <time>2026-09-01T19:50:38Z</time>
  <course>4.96</course>
  <speed>0.0</speed>
  <fix>3d</fix>
</trkpt>
<trkpt lat="-27.274439" lon="151.290064">
  <ele>343.1</ele>
  <time>2026-09-01T19:50:38Z</time>
  <course>7.44</course>
  <speed>0.0</speed>
  <fix>3d</fix>
</trkpt>
<trkpt lat="-27.274439" lon="151.290064">
  <ele>343.1</ele>
  <time>2026-09-01T19:50:38Z</time>
  <course>6.83</course>
  <speed>0.0</speed>
  <fix>3d</fix>
</trkpt>
<trkpt lat="-27.274439" lon="151.290064">
  <ele>343.1</ele>
  <time>2026-09-01T19:50:38Z</time>
  <course>7.44</course>
  <speed>0.0</speed>
  <fix>3d</fix>
</trkpt>
<trkpt lat="-27.274439" lon="151.290064">
  <ele>343.1</ele>
  <time>2026-09-01T19:50:38Z</time>
  <course>6.83</course>
  <speed>0.0</speed>
  <fix>3d</fix>
</trkpt>
<trkpt lat="-27.274439" lon="151.290064">
  <ele>343.1</ele>
  <time>2026-09-01T19:50:38Z</time>
  <course>7.44</course>
  <speed>0.0</speed>
  <fix>3d</fix>
</trkpt>
<trkpt lat="-27.274439" lon="151.290064">
  <ele>343.1</ele>
  <time>2026-09-01T19:50:38Z</time>
  <course>7.08</course>
  <speed>0.0</speed>
  <fix>3d</fix>
</trkpt>
<trkpt lat="-27.274439" lon="151.290064">
  <ele>343.1</ele>
  <time>2026-09-01T19:50:38Z</time>
  <course>7.44</course>
  <speed>0.0</speed>
  <fix>3d</fix>
</trkpt>
<trkpt lat="-27.274439" lon="151.290064">
  <ele>343.1</ele>
  <time>2026-09-01T19:50:38Z</time>
  <course>7.08</course>
  <speed>0.0</speed>
  <fix>3d</fix>
</trkpt>
<trkpt lat="-27.274439" lon="151.290064">
  <ele>343.1</ele>
  <time>2026-09-01T19:50:38Z</time>
  <course>7.43</course>
  <speed>0.0</speed>
  <fix>3d</fix>
</trkpt>
<trkpt lat="-27.274439" lon="151.290064">
  <ele>343.1</ele>
  <time>2026-09-01T19:50:38Z</time>
  <course>7.11</course>
  <speed>0.0</speed>
  <fix>3d</fix>
</trkpt>
<trkpt lat="-27.274439" lon="151.290064">
  <ele>343.1</ele>
  <time>2026-09-01T19:50:38Z</time>
  <course>7.43</course>
  <speed>0.0</speed>
  <fix>3d</fix>
</trkpt>
<trkpt lat="-27.274439" lon="151.290064">
  <ele>343.1</ele>
  <time>2026-09-01T19:50:38Z</time>
  <course>7.11</course>
  <speed>0.0</speed>
  <fix>3d</fix>
</trkpt>
<trkpt lat="-27.274439" lon="151.290064">
  <ele>343.1</ele>
  <time>2026-09-01T19:50:38Z</time>
  <course>7.43</course>
  <speed>0.0</speed>
  <fix>3d</fix>
</trkpt>
<trkpt lat="-27.274439" lon="151.290064">
  <ele>343.1</ele>
  <time>2026-09-01T19:50:38Z</time>
  <course>7.12</course>
  <speed>0.0</speed>
  <fix>3d</fix>
</trkpt>
<trkpt lat="-27.274439" lon="151.290064">
  <ele>343.1</ele>
  <time>2026-09-01T19:50:38Z</time>
  <course>7.43</course>
  <speed>0.0</speed>
  <fix>3d</fix>
</trkpt>
<trkpt lat="-27.274439" lon="151.290064">
  <ele>343.1</ele>
  <time>2026-09-01T19:50:38Z</time>
  <course>7.12</course>
  <speed>0.0</speed>
  <fix>3d</fix>
</trkpt>
<trkpt lat="-27.274439" lon="151.290064">
  <ele>343.1</ele>
  <time>2026-09-01T19:50:38Z</time>
  <course>7.43</course>
  <speed>0.0</speed>
  <fix>3d</fix>
</trkpt>
<trkpt lat="-27.274439" lon="151.290064">
  <ele>343.1</ele>
  <time>2026-09-01T19:50:38Z</time>
  <course>7.12</course>
  <speed>0.0</speed>
  <fix>3d</fix>
</trkpt>
<trkpt lat="-27.274439" lon="151.290064">
  <ele>343.1</ele>
  <time>2026-09-01T19:50:38Z</time>
  <course>7.42</course>
  <speed>0.0</speed>
  <fix>3d</fix>
</trkpt>
<trkpt lat="-27.274439" lon="151.290064">
  <ele>343.1</ele>
  <time>2026-09-01T19:50:38Z</time>
  <course>7.12</course>
  <speed>0.0</speed>
  <fix>3d</fix>
</trkpt>
<trkpt lat="-27.274439" lon="151.290064">
  <ele>343.1</ele>
  <time>2026-09-01T19:50:38Z</time>
  <course>7.42</course>
  <speed>0.0</speed>
  <fix>3d</fix>
</trkpt>
<trkpt lat="-27.274439" lon="151.290064">
  <ele>343.1</ele>
  <time>2026-09-01T19:50:38Z</time>
  <course>7.12</course>
  <speed>0.0</speed>
  <fix>3d</fix>
</trkpt>
<trkpt lat="-27.274439" lon="151.290064">
  <ele>343.1</ele>
  <time>2026-09-01T19:50:38Z</time>
  <course>7.42</course>
  <speed>0.0</speed>
  <fix>3d</fix>
</trkpt>
<trkpt lat="-27.274439" lon="151.290064">
  <ele>343.1</ele>
  <time>2026-09-01T19:50:38Z</time>
  <course>7.12</course>
  <speed>0.0</speed>
  <fix>3d</fix>
</trkpt>
<trkpt lat="-27.274439" lon="151.290064">
  <ele>343.1</ele>
  <time>2026-09-01T19:50:38Z</time>
  <course>7.42</course>
  <speed>0.0</speed>
  <fix>3d</fix>
</trkpt>
<trkpt lat="-27.274439" lon="151.290064">
  <ele>343.1</ele>
  <time>2026-09-01T19:50:38Z</time>
  <course>7.12</course>
  <speed>0.0</speed>
  <fix>3d</fix>
</trkpt>
<trkpt lat="-27.274439" lon="151.290064">
  <ele>343.1</ele>
  <time>2026-09-01T19:50:38Z</time>
  <course>7.42</course>
  <speed>0.0</speed>
  <fix>3d</fix>
</trkpt>
<trkpt lat="-27.274439" lon="151.290064">
  <ele>343.1</ele>
  <time>2026-09-01T19:50:38Z</time>
  <course>7.12</course>
  <speed>0.0</speed>
  <fix>3d</fix>
</trkpt>
<trkpt lat="-27.274439" lon="151.290064">
  <ele>343.1</ele>
  <time>2026-09-01T19:50:38Z</time>
  <course>7.41</course>
  <speed>0.0</speed>
  <fix>3d</fix>
</trkpt>
<trkpt lat="-27.274439" lon="151.290064">
  <ele>343.1</ele>
  <time>2026-09-01T19:50:38Z</time>
  <course>7.12</course>
  <speed>0.0</speed>
  <fix>3d</fix>
</trkpt>
<trkpt lat="-27.274439" lon="151.290064">
  <ele>343.1</ele>
  <time>2026-09-01T19:50:38Z</time>
  <course>7.41</course>
  <speed>0.0</speed>
  <fix>3d</fix>
</trkpt>
<trkpt lat="-27.274439" lon="151.290064">
  <ele>343.1</ele>
  <time>2026-09-01T19:50:38Z</time>
  <course>7.12</course>
  <speed>0.0</speed>
  <fix>3d</fix>
</trkpt>
<trkpt lat="-27.274439" lon="151.290064">
  <ele>343.1</ele>
  <time>2026-09-01T19:50:38Z</time>
  <course>7.41</course>
  <speed>0.0</speed>
  <fix>3d</fix>
</trkpt>
<trkpt lat="-27.274439" lon="151.290064">
  <ele>343.1</ele>
  <time>2026-09-01T19:50:38Z</time>
  <course>7.12</course>
  <speed>0.0</speed>
  <fix>3d</fix>
</trkpt>
<trkpt lat="-27.274439" lon="151.290064">
  <ele>343.1</ele>
  <time>2026-09-01T19:50:38Z</time>
  <course>7.41</course>
  <speed>0.0</speed>
  <fix>3d</fix>
</trkpt>
<trkpt lat="-27.274439" lon="151.290064">
  <ele>343.1</ele>
  <time>2026-09-01T19:50:38Z</time>
  <course>7.12</course>
  <speed>0.0</speed>
  <fix>3d</fix>
</trkpt>
<trkpt lat="-27.274439" lon="151.290064">
  <ele>343.1</ele>
  <time>2026-09-01T19:50:38Z</time>
  <course>7.41</course>
  <speed>0.0</speed>
  <fix>3d</fix>
</trkpt>
<trkpt lat="-27.274439" lon="151.290064">
  <ele>343.1</ele>
  <time>2026-09-01T19:50:38Z</time>
  <course>7.12</course>
  <speed>0.0</speed>
  <fix>3d</fix>
</trkpt>
<trkpt lat="-27.274439" lon="151.290064">
  <ele>343.1</ele>
  <time>2026-09-01T19:50:38Z</time>
  <course>7.4</course>
  <speed>0.0</speed>
  <fix>3d</fix>
</trkpt>
<trkpt lat="-27.274439" lon="151.290064">
  <ele>343.1</ele>
  <time>2026-09-01T19:50:38Z</time>
  <course>7.12</course>
  <speed>0.0</speed>
  <fix>3d</fix>
</trkpt>
<trkpt lat="-27.274439" lon="151.290064">
  <ele>343.1</ele>
  <time>2026-09-01T19:50:38Z</time>
  <course>7.4</course>
  <speed>0.0</speed>
  <fix>3d</fix>
</trkpt>
<trkpt lat="-27.274439" lon="151.290064">
  <ele>343.1</ele>
  <time>2026-09-01T19:50:38Z</time>
  <course>7.12</course>
  <speed>0.0</speed>
  <fix>3d</fix>
</trkpt>
<trkpt lat="-27.274439" lon="151.290064">
  <ele>343.1</ele>
  <time>2026-09-01T19:50:38Z</time>
  <course>7.4</course>
  <speed>0.0</speed>
  <fix>3d</fix>
</trkpt>
<trkpt lat="-27.274439" lon="151.290064">
  <ele>343.1</ele>
  <time>2026-09-01T19:50:38Z</time>
  <course>7.12</course>
  <speed>0.0</speed>
  <fix>3d</fix>
</trkpt>
<trkpt lat="-27.274439" lon="151.290064">
  <ele>343.1</ele>
  <time>2026-09-01T19:50:38Z</time>
  <course>7.4</course>
  <speed>0.0</speed>
  <fix>3d</fix>
</trkpt>
<trkpt lat="-27.274439" lon="151.290064">
  <ele>343.1</ele>
  <time>2026-09-01T19:50:38Z</time>
  <course>7.12</course>
  <speed>0.0</speed>
  <fix>3d</fix>
</trkpt>
<trkpt lat="-27.274439" lon="151.290064">
  <ele>343.1</ele>
  <time>2026-09-01T19:50:38Z</time>
  <course>7.39</course>
  <speed>0.0</speed>
  <fix>3d</fix>
</trkpt>
<trkpt lat="-27.274439" lon="151.290064">
  <ele>343.1</ele>
  <time>2026-09-01T19:50:38Z</time>
  <course>7.12</course>
  <speed>0.0</speed>
  <fix>3d</fix>
</trkpt>
<trkpt lat="-27.274439" lon="151.290064">
  <ele>343.1</ele>
  <time>2026-09-01T19:50:38Z</time>
  <course>7.39</course>
  <speed>0.0</speed>
  <fix>3d</fix>
</trkpt>
<trkpt lat="-27.274439" lon="151.290064">
  <ele>343.1</ele>
  <time>2026-09-01T19:50:38Z</time>
  <course>7.12</course>
  <speed>0.0</speed>
  <fix>3d</fix>
</trkpt>
<trkpt lat="-27.274439" lon="151.290064">
  <ele>343.1</ele>
  <time>2026-09-01T19:50:38Z</time>
  <course>7.39</course>
  <speed>0.0</speed>
  <fix>3d</fix>
</trkpt>
<trkpt lat="-27.274439" lon="151.290064">
  <ele>343.1</ele>
  <time>2026-09-01T19:50:38Z</time>
  <course>7.12</course>
  <speed>0.0</speed>
  <fix>3d</fix>
</trkpt>
<trkpt lat="-27.274439" lon="151.290064">
  <ele>343.1</ele>
  <time>2026-09-01T19:50:38Z</time>
  <course>7.39</course>
  <speed>0.0</speed>
  <fix>3d</fix>
</trkpt>
<trkpt lat="-27.274439" lon="151.290064">
  <ele>343.1</ele>
  <time>2026-09-01T19:50:38Z</time>
  <course>7.12</course>
  <speed>0.0</speed>
  <fix>3d</fix>
</trkpt>
<trkpt lat="-27.274439" lon="151.290064">
  <ele>343.1</ele>
  <time>2026-09-01T19:50:38Z</time>
  <course>7.39</course>
  <speed>0.0</speed>
  <fix>3d</fix>
</trkpt>
<trkpt lat="-27.274439" lon="151.290064">
  <ele>343.1</ele>
  <time>2026-09-01T19:50:38Z</time>
  <course>7.12</course>
  <speed>0.0</speed>
  <fix>3d</fix>
</trkpt>
<trkpt lat="-27.274439" lon="151.290064">
  <ele>343.1</ele>
  <time>2026-09-01T19:50:38Z</time>
  <course>7.38</course>
  <speed>0.0</speed>
  <fix>3d</fix>
</trkpt>
<trkpt lat="-27.274439" lon="151.290064">
  <ele>343.1</ele>
  <time>2026-09-01T19:50:38Z</time>
  <course>7.12</course>
  <speed>0.0</speed>
  <fix>3d</fix>
</trkpt>
<trkpt lat="-27.274439" lon="151.290064">
  <ele>343.1</ele>
  <time>2026-09-01T19:50:38Z</time>
  <course>7.38</course>
  <speed>0.0</speed>
  <fix>3d</fix>
</trkpt>
<trkpt lat="-27.274439" lon="151.290064">
  <ele>343.1</ele>
  <time>2026-09-01T19:50:38Z</time>
  <course>7.12</course>
  <speed>0.0</speed>
  <fix>3d</fix>
</trkpt>
<trkpt lat="-27.274439" lon="151.290064">
  <ele>343.1</ele>
  <time>2026-09-01T19:50:38Z</time>
  <course>7.38</course>
  <speed>0.0</speed>
  <fix>3d</fix>
</trkpt>
<trkpt lat="-27.274439" lon="151.290064">
  <ele>343.1</ele>
  <time>2026-09-01T19:50:38Z</time>
  <course>7.12</course>
  <speed>0.0</speed>
  <fix>3d</fix>
</trkpt>
<trkpt lat="-27.274439" lon="151.290064">
  <ele>343.1</ele>
  <time>2026-09-01T19:50:38Z</time>
  <course>7.38</course>
  <speed>0.0</speed>
  <fix>3d</fix>
</trkpt>
<trkpt lat="-27.274439" lon="151.290064">
  <ele>343.1</ele>
  <time>2026-09-01T19:50:38Z</time>
  <course>7.12</course>
  <speed>0.0</speed>
  <fix>3d</fix>
</trkpt>
<trkpt lat="-27.274439" lon="151.290064">
  <ele>343.1</ele>
  <time>2026-09-01T19:50:38Z</time>
  <course>7.38</course>
  <speed>0.0</speed>
  <fix>3d</fix>
</trkpt>
<trkpt lat="-27.274439" lon="151.290064">
  <ele>343.1</ele>
  <time>2026-09-01T19:50:38Z</time>
  <course>7.12</course>
  <speed>0.0</speed>
  <fix>3d</fix>
</trkpt>
<trkpt lat="-27.274439" lon="151.290064">
  <ele>343.1</ele>
  <time>2026-09-01T19:50:38Z</time>
  <course>7.37</course>
  <speed>0.0</speed>
  <fix>3d</fix>
</trkpt>
<trkpt lat="-27.274439" lon="151.290064">
  <ele>343.1</ele>
  <time>2026-09-01T19:50:38Z</time>
  <course>7.12</course>
  <speed>0.0</speed>
  <fix>3d</fix>
</trkpt>
<trkpt lat="-27.274439" lon="151.290064">
  <ele>343.1</ele>
  <time>2026-09-01T19:50:38Z</time>
  <course>7.37</course>
  <speed>0.0</speed>
  <fix>3d</fix>
</trkpt>
<trkpt lat="-27.274439" lon="151.290064">
  <ele>343.1</ele>
  <time>2026-09-01T19:50:38Z</time>
  <course>7.12</course>
  <speed>0.0</speed>
  <fix>3d</fix>
</trkpt>
<trkpt lat="-27.274439" lon="151.290064">
  <ele>343.1</ele>
  <time>2026-09-01T19:50:38Z</time>
  <course>7.37</course>
  <speed>0.0</speed>
  <fix>3d</fix>
</trkpt>
<trkpt lat="-27.274439" lon="151.290064">
  <ele>343.1</ele>
  <time>2026-09-01T19:50:38Z</time>
  <course>7.12</course>
  <speed>0.0</speed>
  <fix>3d</fix>
</trkpt>
<trkpt lat="-27.274439" lon="151.290064">
  <ele>343.1</ele>
  <time>2026-09-01T19:50:38Z</time>
  <course>7.37</course>
  <speed>0.0</speed>
  <fix>3d</fix>
</trkpt>
<trkpt lat="-27.274439" lon="151.290064">
  <ele>343.1</ele>
  <time>2026-09-01T19:50:38Z</time>
  <course>7.12</course>
  <speed>0.0</speed>
  <fix>3d</fix>
</trkpt>
<trkpt lat="-27.274439" lon="151.290064">
  <ele>343.1</ele>
  <time>2026-09-01T19:50:38Z</time>
  <course>7.37</course>
  <speed>0.0</speed>
  <fix>3d</fix>
</trkpt>
<trkpt lat="-27.274439" lon="151.290064">
  <ele>343.1</ele>
  <time>2026-09-01T19:50:38Z</time>
  <course>7.12</course>
  <speed>0.0</speed>
  <fix>3d</fix>
</trkpt>
<trkpt lat="-27.274439" lon="151.290064">
  <ele>343.1</ele>
  <time>2026-09-01T19:50:38Z</time>
  <course>7.36</course>
  <speed>0.0</speed>
  <fix>3d</fix>
</trkpt>
<trkpt lat="-27.274439" lon="151.290064">
  <ele>343.1</ele>
  <time>2026-09-01T19:50:38Z</time>
  <course>7.12</course>
  <speed>0.0</speed>
  <fix>3d</fix>
</trkpt>
<trkpt lat="-27.274439" lon="151.290064">
  <ele>343.1</ele>
  <time>2026-09-01T19:50:38Z</time>
  <course>7.36</course>
  <speed>0.0</speed>
  <fix>3d</fix>
</trkpt>
<trkpt lat="-27.274439" lon="151.290064">
  <ele>343.1</ele>
  <time>2026-09-01T19:50:38Z</time>
  <course>7.12</course>
  <speed>0.0</speed>
  <fix>3d</fix>
</trkpt>
<trkpt lat="-27.274439" lon="151.290064">
  <ele>343.1</ele>
  <time>2026-09-01T19:50:38Z</time>
  <course>7.36</course>
  <speed>0.0</speed>
  <fix>3d</fix>
</trkpt>
<trkpt lat="-27.274439" lon="151.290064">
  <ele>343.1</ele>
  <time>2026-09-01T19:50:38Z</time>
  <course>7.12</course>
  <speed>0.0</speed>
  <fix>3d</fix>
</trkpt>
<trkpt lat="-27.274439" lon="151.290064">
  <ele>343.1</ele>
  <time>2026-09-01T19:50:38Z</time>
  <course>7.36</course>
  <speed>0.0</speed>
  <fix>3d</fix>
</trkpt>
<trkpt lat="-27.274439" lon="151.290064">
  <ele>343.1</ele>
  <time>2026-09-01T19:50:38Z</time>
  <course>7.12</course>
  <speed>0.0</speed>
  <fix>3d</fix>
</trkpt>
<trkpt lat="-27.274439" lon="151.290064">
  <ele>343.1</ele>
  <time>2026-09-01T19:50:38Z</time>
  <course>7.36</course>
  <speed>0.0</speed>
  <fix>3d</fix>
</trkpt>
<trkpt lat="-27.274439" lon="151.290064">
  <ele>343.1</ele>
  <time>2026-09-01T19:50:38Z</time>
  <course>7.12</course>
  <speed>0.0</speed>
  <fix>3d</fix>
</trkpt>
<trkpt lat="-27.274439" lon="151.290064">
  <ele>343.1</ele>
  <time>2026-09-01T19:50:38Z</time>
  <course>7.35</course>
  <speed>0.0</speed>
  <fix>3d</fix>
</trkpt>
<trkpt lat="-27.274439" lon="151.290064">
  <ele>343.1</ele>
  <time>2026-09-01T19:50:38Z</time>
  <course>7.12</course>
  <speed>0.0</speed>
  <fix>3d</fix>
</trkpt>
<trkpt lat="-27.274439" lon="151.290064">
  <ele>343.1</ele>
  <time>2026-09-01T19:50:38Z</time>
  <course>7.35</course>
  <speed>0.0</speed>
  <fix>3d</fix>
</trkpt>
<trkpt lat="-27.274439" lon="151.290064">
  <ele>343.1</ele>
  <time>2026-09-01T19:50:38Z</time>
  <course>7.12</course>
  <speed>0.0</speed>
  <fix>3d</fix>
</trkpt>
<trkpt lat="-27.274439" lon="151.290064">
  <ele>343.1</ele>
  <time>2026-09-01T19:50:38Z</time>
  <course>7.35</course>
  <speed>0.0</speed>
  <fix>3d</fix>
</trkpt>
<trkpt lat="-27.274439" lon="151.290064">
  <ele>343.1</ele>
  <time>2026-09-01T19:50:38Z</time>
  <course>7.12</course>
  <speed>0.0</speed>
  <fix>3d</fix>
</trkpt>
<trkpt lat="-27.274439" lon="151.290064">
  <ele>343.1</ele>
  <time>2026-09-01T19:50:38Z</time>
  <course>7.35</course>
  <speed>0.0</speed>
  <fix>3d</fix>
</trkpt>
<trkpt lat="-27.274439" lon="151.290064">
  <ele>343.1</ele>
  <time>2026-09-01T19:50:38Z</time>
  <course>7.12</course>
  <speed>0.0</speed>
  <fix>3d</fix>
</trkpt>
<trkpt lat="-27.274439" lon="151.290064">
  <ele>343.1</ele>
  <time>2026-09-01T19:50:38Z</time>
  <course>7.34</course>
  <speed>0.0</speed>
  <fix>3d</fix>
</trkpt>
<trkpt lat="-27.274439" lon="151.290064">
  <ele>343.1</ele>
  <time>2026-09-01T19:50:38Z</time>
  <course>7.12</course>
  <speed>0.0</speed>
  <fix>3d</fix>
</trkpt>
<trkpt lat="-27.274439" lon="151.290064">
  <ele>343.1</ele>
  <time>2026-09-01T19:50:38Z</time>
  <course>7.34</course>
  <speed>0.0</speed>
  <fix>3d</fix>
</trkpt>
<trkpt lat="-27.274439" lon="151.290064">
  <ele>343.1</ele>
  <time>2026-09-01T19:50:38Z</time>
  <course>7.12</course>
  <speed>0.0</speed>
  <fix>3d</fix>
</trkpt>
<trkpt lat="-27.274439" lon="151.290064">
  <ele>343.1</ele>
  <time>2026-09-01T19:50:38Z</time>
  <course>7.34</course>
  <speed>0.0</speed>
  <fix>3d</fix>
</trkpt>
<trkpt lat="-27.274439" lon="151.290064">
  <ele>343.1</ele>
  <time>2026-09-01T19:50:38Z</time>
  <course>7.12</course>
  <speed>0.0</speed>
  <fix>3d</fix>
</trkpt>
<trkpt lat="-27.274439" lon="151.290064">
  <ele>343.1</ele>
  <time>2026-09-01T19:50:38Z</time>
  <course>7.34</course>
  <speed>0.0</speed>
  <fix>3d</fix>
</trkpt>
<trkpt lat="-27.274439" lon="151.290064">
  <ele>343.1</ele>
  <time>2026-09-01T19:50:38Z</time>
  <course>7.12</course>
  <speed>0.0</speed>
  <fix>3d</fix>
</trkpt>
<trkpt lat="-27.274439" lon="151.290064">
  <ele>343.1</ele>
  <time>2026-09-01T19:50:38Z</time>
  <course>7.34</course>
  <speed>0.0</speed>
  <fix>3d</fix>
</trkpt>
<trkpt lat="-27.274439" lon="151.290064">
  <ele>343.1</ele>
  <time>2026-09-01T19:50:38Z</time>
  <course>7.12</course>
  <speed>0.0</speed>
  <fix>3d</fix>
</trkpt>
<trkpt lat="-27.274439" lon="151.290064">
  <ele>343.1</ele>
  <time>2026-09-01T19:50:38Z</time>
  <course>7.33</course>
  <speed>0.0</speed>
  <fix>3d</fix>
</trkpt>
<trkpt lat="-27.274439" lon="151.290064">
  <ele>343.1</ele>
  <time>2026-09-01T19:50:38Z</time>
  <course>7.12</course>
  <speed>0.0</speed>
  <fix>3d</fix>
</trkpt>
<trkpt lat="-27.274439" lon="151.290064">
  <ele>343.1</ele>
  <time>2026-09-01T19:50:38Z</time>
  <course>7.33</course>
  <speed>0.0</speed>
  <fix>3d</fix>
</trkpt>
<trkpt lat="-27.274439" lon="151.290064">
  <ele>343.1</ele>
  <time>2026-09-01T19:50:38Z</time>
  <course>7.12</course>
  <speed>0.0</speed>
  <fix>3d</fix>
</trkpt>
<trkpt lat="-27.274439" lon="151.290064">
  <ele>343.1</ele>
  <time>2026-09-01T19:50:38Z</time>
  <course>7.33</course>
  <speed>0.0</speed>
  <fix>3d</fix>
</trkpt>
<trkpt lat="-27.274439" lon="151.290064">
  <ele>343.1</ele>
  <time>2026-09-01T19:50:38Z</time>
  <course>7.12</course>
  <speed>0.0</speed>
  <fix>3d</fix>
</trkpt>
<trkpt lat="-27.274439" lon="151.290064">
  <ele>343.1</ele>
  <time>2026-09-01T19:50:38Z</time>
  <course>7.33</course>
  <speed>0.0</speed>
  <fix>3d</fix>
</trkpt>
<trkpt lat="-27.274439" lon="151.290064">
  <ele>343.1</ele>
  <time>2026-09-01T19:50:38Z</time>
  <course>7.12</course>
  <speed>0.0</speed>
  <fix>3d</fix>
</trkpt>
<trkpt lat="-27.274439" lon="151.290064">
  <ele>343.1</ele>
  <time>2026-09-01T19:50:38Z</time>
  <course>7.33</course>
  <speed>0.0</speed>
  <fix>3d</fix>
</trkpt>
<trkpt lat="-27.274439" lon="151.290064">
  <ele>343.1</ele>
  <time>2026-09-01T19:50:38Z</time>
  <course>7.12</course>
  <speed>0.0</speed>
  <fix>3d</fix>
</trkpt>
<trkpt lat="-27.274439" lon="151.290064">
  <ele>343.1</ele>
  <time>2026-09-01T19:50:38Z</time>
  <course>7.32</course>
  <speed>0.0</speed>
  <fix>3d</fix>
</trkpt>
<trkpt lat="-27.274439" lon="151.290064">
  <ele>343.1</ele>
  <time>2026-09-01T19:50:38Z</time>
  <course>7.12</course>
  <speed>0.0</speed>
  <fix>3d</fix>
</trkpt>
<trkpt lat="-27.274439" lon="151.290064">
  <ele>343.1</ele>
  <time>2026-09-01T19:50:38Z</time>
  <course>7.32</course>
  <speed>0.0</speed>
  <fix>3d</fix>
</trkpt>
<trkpt lat="-27.274439" lon="151.290064">
  <ele>343.1</ele>
  <time>2026-09-01T19:50:38Z</time>
  <course>7.12</course>
  <speed>0.0</speed>
  <fix>3d</fix>
</trkpt>
<trkpt lat="-27.274439" lon="151.290064">
  <ele>343.1</ele>
  <time>2026-09-01T19:50:38Z</time>
  <course>7.32</course>
  <speed>0.0</speed>
  <fix>3d</fix>
</trkpt>
<trkpt lat="-27.274439" lon="151.290064">
  <ele>343.1</ele>
  <time>2026-09-01T19:50:38Z</time>
  <course>7.12</course>
  <speed>0.0</speed>
  <fix>3d</fix>
</trkpt>
<trkpt lat="-27.274439" lon="151.290064">
  <ele>343.1</ele>
  <time>2026-09-01T19:50:38Z</time>
  <course>7.32</course>
  <speed>0.0</speed>
  <fix>3d</fix>
</trkpt>
<trkpt lat="-27.274439" lon="151.290064">
  <ele>343.1</ele>
  <time>2026-09-01T19:50:38Z</time>
  <course>7.12</course>
  <speed>0.0</speed>
  <fix>3d</fix>
</trkpt>
<trkpt lat="-27.274439" lon="151.290064">
  <ele>343.1</ele>
  <time>2026-09-01T19:50:38Z</time>
  <course>7.32</course>
  <speed>0.0</speed>
  <fix>3d</fix>
</trkpt>
<trkpt lat="-27.274439" lon="151.290064">
  <ele>343.1</ele>
  <time>2026-09-01T19:50:38Z</time>
  <course>7.12</course>
  <speed>0.0</speed>
  <fix>3d</fix>
</trkpt>
<trkpt lat="-27.274439" lon="151.290064">
  <ele>343.1</ele>
  <time>2026-09-01T19:50:38Z</time>
  <course>7.31</course>
  <speed>0.0</speed>
  <fix>3d</fix>
</trkpt>
<trkpt lat="-27.274439" lon="151.290064">
  <ele>343.1</ele>
  <time>2026-09-01T19:50:38Z</time>
  <course>7.12</course>
  <speed>0.0</speed>
  <fix>3d</fix>
</trkpt>
<trkpt lat="-27.274439" lon="151.290064">
  <ele>343.1</ele>
  <time>2026-09-01T19:50:38Z</time>
  <course>7.31</course>
  <speed>0.0</speed>
  <fix>3d</fix>
</trkpt>
<trkpt lat="-27.274439" lon="151.290064">
  <ele>343.1</ele>
  <time>2026-09-01T19:50:38Z</time>
  <course>7.12</course>
  <speed>0.0</speed>
  <fix>3d</fix>
</trkpt>
<trkpt lat="-27.274439" lon="151.290064">
  <ele>343.1</ele>
  <time>2026-09-01T19:50:38Z</time>
  <course>7.31</course>
  <speed>0.0</speed>
  <fix>3d</fix>
</trkpt>
<trkpt lat="-27.274439" lon="151.290064">
  <ele>343.1</ele>
  <time>2026-09-01T19:50:38Z</time>
  <course>7.12</course>
  <speed>0.0</speed>
  <fix>3d</fix>
</trkpt>
<trkpt lat="-27.274439" lon="151.290064">
  <ele>343.1</ele>
  <time>2026-09-01T19:50:38Z</time>
  <course>7.31</course>
  <speed>0.0</speed>
  <fix>3d</fix>
</trkpt>
<trkpt lat="-27.274439" lon="151.290064">
  <ele>343.1</ele>
  <time>2026-09-01T19:50:38Z</time>
  <course>7.12</course>
  <speed>0.0</speed>
  <fix>3d</fix>
</trkpt>
<trkpt lat="-27.274439" lon="151.290064">
  <ele>343.1</ele>
  <time>2026-09-01T19:50:38Z</time>
  <course>7.31</course>
  <speed>0.0</speed>
  <fix>3d</fix>
</trkpt>
<trkpt lat="-27.274439" lon="151.290064">
  <ele>343.1</ele>
  <time>2026-09-01T19:50:38Z</time>
  <course>7.12</course>
  <speed>0.0</speed>
  <fix>3d</fix>
</trkpt>
<trkpt lat="-27.274439" lon="151.290064">
  <ele>343.1</ele>
  <time>2026-09-01T19:50:38Z</time>
  <course>7.3</course>
  <speed>0.0</speed>
  <fix>3d</fix>
</trkpt>
<trkpt lat="-27.274439" lon="151.290064">
  <ele>343.1</ele>
  <time>2026-09-01T19:50:38Z</time>
  <course>7.12</course>
  <speed>0.0</speed>
  <fix>3d</fix>
</trkpt>
<trkpt lat="-27.274439" lon="151.290064">
  <ele>343.1</ele>
  <time>2026-09-01T19:50:38Z</time>
  <course>7.3</course>
  <speed>0.0</speed>
  <fix>3d</fix>
</trkpt>
<trkpt lat="-27.274439" lon="151.290064">
  <ele>343.1</ele>
  <time>2026-09-01T19:50:38Z</time>
  <course>7.12</course>
  <speed>0.0</speed>
  <fix>3d</fix>
</trkpt>
<trkpt lat="-27.274439" lon="151.290064">
  <ele>343.1</ele>
  <time>2026-09-01T19:50:38Z</time>
  <course>7.3</course>
  <speed>0.0</speed>
  <fix>3d</fix>
</trkpt>
<trkpt lat="-27.274439" lon="151.290064">
  <ele>343.1</ele>
  <time>2026-09-01T19:50:38Z</time>
  <course>7.12</course>
  <speed>0.0</speed>
  <fix>3d</fix>
</trkpt>
<trkpt lat="-27.274439" lon="151.290064">
  <ele>343.1</ele>
  <time>2026-09-01T19:50:38Z</time>
  <course>7.3</course>
  <speed>0.0</speed>
  <fix>3d</fix>
</trkpt>
<trkpt lat="-27.274439" lon="151.290064">
  <ele>343.1</ele>
  <time>2026-09-01T19:50:38Z</time>
  <course>7.12</course>
  <speed>0.0</speed>
  <fix>3d</fix>
</trkpt>
<trkpt lat="-27.274439" lon="151.290064">
  <ele>343.1</ele>
  <time>2026-09-01T19:50:38Z</time>
  <course>7.3</course>
  <speed>0.0</speed>
  <fix>3d</fix>
</trkpt>
<trkpt lat="-27.274439" lon="151.290064">
  <ele>343.1</ele>
  <time>2026-09-01T19:50:38Z</time>
  <course>7.12</course>
  <speed>0.0</speed>
  <fix>3d</fix>
</trkpt>
<trkpt lat="-27.274439" lon="151.290064">
  <ele>343.1</ele>
  <time>2026-09-01T19:50:38Z</time>
  <course>7.29</course>
  <speed>0.0</speed>
  <fix>3d</fix>
</trkpt>
<trkpt lat="-27.274439" lon="151.290064">
  <ele>343.1</ele>
  <time>2026-09-01T19:50:39Z</time>
  <course>7.12</course>
  <speed>0.0</speed>
  <fix>3d</fix>
</trkpt>
<trkpt lat="-27.274439" lon="151.290064">
  <ele>343.1</ele>
  <time>2026-09-01T19:50:39Z</time>
  <course>7.29</course>
  <speed>0.0</speed>
  <fix>3d</fix>
</trkpt>
<trkpt lat="-27.274439" lon="151.290064">
  <ele>343.1</ele>
  <time>2026-09-01T19:50:39Z</time>
  <course>7.12</course>
  <speed>0.0</speed>
  <fix>3d</fix>
</trkpt>
<trkpt lat="-27.274439" lon="151.290064">
  <ele>343.1</ele>
  <time>2026-09-01T19:50:39Z</time>
  <course>7.29</course>
  <speed>0.0</speed>
  <fix>3d</fix>
</trkpt>
<trkpt lat="-27.274439" lon="151.290064">
  <ele>343.1</ele>
  <time>2026-09-01T19:50:39Z</time>
  <course>7.12</course>
  <speed>0.0</speed>
  <fix>3d</fix>
</trkpt>
<trkpt lat="-27.274439" lon="151.290064">
  <ele>343.1</ele>
  <time>2026-09-01T19:50:39Z</time>
  <course>7.29</course>
  <speed>0.0</speed>
  <fix>3d</fix>
</trkpt>
<trkpt lat="-27.274439" lon="151.290064">
  <ele>343.1</ele>
  <time>2026-09-01T19:50:39Z</time>
  <course>7.12</course>
  <speed>0.0</speed>
  <fix>3d</fix>
</trkpt>
<trkpt lat="-27.274439" lon="151.290064">
  <ele>343.1</ele>
  <time>2026-09-01T19:50:39Z</time>
  <course>7.28</course>
  <speed>0.0</speed>
  <fix>3d</fix>
</trkpt>
<trkpt lat="-27.274439" lon="151.290064">
  <ele>343.1</ele>
  <time>2026-09-01T19:50:39Z</time>
  <course>7.12</course>
  <speed>0.0</speed>
  <fix>3d</fix>
</trkpt>
<trkpt lat="-27.274439" lon="151.290064">
  <ele>343.1</ele>
  <time>2026-09-01T19:50:39Z</time>
  <course>7.28</course>
  <speed>0.0</speed>
  <fix>3d</fix>
</trkpt>
<trkpt lat="-27.274439" lon="151.290064">
  <ele>343.1</ele>
  <time>2026-09-01T19:50:39Z</time>
  <course>7.12</course>
  <speed>0.0</speed>
  <fix>3d</fix>
</trkpt>
<trkpt lat="-27.274439" lon="151.290064">
  <ele>343.1</ele>
  <time>2026-09-01T19:50:39Z</time>
  <course>7.28</course>
  <speed>0.0</speed>
  <fix>3d</fix>
</trkpt>
<trkpt lat="-27.274439" lon="151.290064">
  <ele>343.1</ele>
  <time>2026-09-01T19:50:39Z</time>
  <course>7.12</course>
  <speed>0.0</speed>
  <fix>3d</fix>
</trkpt>
<trkpt lat="-27.274439" lon="151.290064">
  <ele>343.1</ele>
  <time>2026-09-01T19:50:39Z</time>
  <course>7.28</course>
  <speed>0.0</speed>
  <fix>3d</fix>
</trkpt>
<trkpt lat="-27.274439" lon="151.290064">
  <ele>343.1</ele>
  <time>2026-09-01T19:50:39Z</time>
  <course>7.12</course>
  <speed>0.0</speed>
  <fix>3d</fix>
</trkpt>
<trkpt lat="-27.274439" lon="151.290064">
  <ele>343.1</ele>
  <time>2026-09-01T19:50:39Z</time>
  <course>7.28</course>
  <speed>0.0</speed>
  <fix>3d</fix>
</trkpt>
<trkpt lat="-27.274439" lon="151.290064">
  <ele>343.1</ele>
  <time>2026-09-01T19:50:39Z</time>
  <course>7.12</course>
  <speed>0.0</speed>
  <fix>3d</fix>
</trkpt>
<trkpt lat="-27.274439" lon="151.290064">
  <ele>343.1</ele>
  <time>2026-09-01T19:50:39Z</time>
  <course>7.27</course>
  <speed>0.0</speed>
  <fix>3d</fix>
</trkpt>
<trkpt lat="-27.274439" lon="151.290064">
  <ele>343.1</ele>
  <time>2026-09-01T19:50:39Z</time>
  <course>7.12</course>
  <speed>0.0</speed>
  <fix>3d</fix>
</trkpt>
<trkpt lat="-27.274439" lon="151.290064">
  <ele>343.1</ele>
  <time>2026-09-01T19:50:39Z</time>
  <course>7.27</course>
  <speed>0.0</speed>
  <fix>3d</fix>
</trkpt>
<trkpt lat="-27.274439" lon="151.290064">
  <ele>343.1</ele>
  <time>2026-09-01T19:50:39Z</time>
  <course>7.12</course>
  <speed>0.0</speed>
  <fix>3d</fix>
</trkpt>
<trkpt lat="-27.274439" lon="151.290064">
  <ele>343.1</ele>
  <time>2026-09-01T19:50:39Z</time>
  <course>7.27</course>
  <speed>0.0</speed>
  <fix>3d</fix>
</trkpt>
<trkpt lat="-27.274439" lon="151.290064">
  <ele>343.1</ele>
  <time>2026-09-01T19:50:39Z</time>
  <course>7.12</course>
  <speed>0.0</speed>
  <fix>3d</fix>
</trkpt>
<trkpt lat="-27.274439" lon="151.290064">
  <ele>343.1</ele>
  <time>2026-09-01T19:50:39Z</time>
  <course>7.27</course>
  <speed>0.0</speed>
  <fix>3d</fix>
</trkpt>
<trkpt lat="-27.274439" lon="151.290064">
  <ele>343.1</ele>
  <time>2026-09-01T19:50:39Z</time>
  <course>7.12</course>
  <speed>0.0</speed>
  <fix>3d</fix>
</trkpt>
<trkpt lat="-27.274439" lon="151.290064">
  <ele>343.1</ele>
  <time>2026-09-01T19:50:39Z</time>
  <course>7.27</course>
  <speed>0.0</speed>
  <fix>3d</fix>
</trkpt>
<trkpt lat="-27.274439" lon="151.290064">
  <ele>343.1</ele>
  <time>2026-09-01T19:50:39Z</time>
  <course>7.12</course>
  <speed>0.0</speed>
  <fix>3d</fix>
</trkpt>
<trkpt lat="-27.274439" lon="151.290064">
  <ele>343.1</ele>
  <time>2026-09-01T19:50:39Z</time>
  <course>7.26</course>
  <speed>0.0</speed>
  <fix>3d</fix>
</trkpt>
<trkpt lat="-27.274439" lon="151.290064">
  <ele>343.1</ele>
  <time>2026-09-01T19:50:39Z</time>
  <course>7.12</course>
  <speed>0.0</speed>
  <fix>3d</fix>
</trkpt>
<trkpt lat="-27.274439" lon="151.290064">
  <ele>343.1</ele>
  <time>2026-09-01T19:50:39Z</time>
  <course>7.26</course>
  <speed>0.0</speed>
  <fix>3d</fix>
</trkpt>
<trkpt lat="-27.274439" lon="151.290064">
  <ele>343.1</ele>
  <time>2026-09-01T19:50:39Z</time>
  <course>7.12</course>
  <speed>0.0</speed>
  <fix>3d</fix>
</trkpt>
<trkpt lat="-27.274439" lon="151.290064">
  <ele>343.1</ele>
  <time>2026-09-01T19:50:39Z</time>
  <course>7.26</course>
  <speed>0.0</speed>
  <fix>3d</fix>
</trkpt>
<trkpt lat="-27.274439" lon="151.290064">
  <ele>343.1</ele>
  <time>2026-09-01T19:50:39Z</time>
  <course>7.12</course>
  <speed>0.0</speed>
  <fix>3d</fix>
</trkpt>
<trkpt lat="-27.274439" lon="151.290064">
  <ele>343.1</ele>
  <time>2026-09-01T19:50:39Z</time>
  <course>7.26</course>
  <speed>0.0</speed>
  <fix>3d</fix>
</trkpt>
<trkpt lat="-27.274439" lon="151.290064">
  <ele>343.1</ele>
  <time>2026-09-01T19:50:39Z</time>
  <course>7.12</course>
  <speed>0.0</speed>
  <fix>3d</fix>
</trkpt>
<trkpt lat="-27.274439" lon="151.290064">
  <ele>343.1</ele>
  <time>2026-09-01T19:50:39Z</time>
  <course>7.26</course>
  <speed>0.0</speed>
  <fix>3d</fix>
</trkpt>
<trkpt lat="-27.274439" lon="151.290064">
  <ele>343.1</ele>
  <time>2026-09-01T19:50:39Z</time>
  <course>7.12</course>
  <speed>0.0</speed>
  <fix>3d</fix>
</trkpt>
<trkpt lat="-27.274439" lon="151.290064">
  <ele>343.1</ele>
  <time>2026-09-01T19:50:39Z</time>
  <course>7.25</course>
  <speed>0.0</speed>
  <fix>3d</fix>
</trkpt>
<trkpt lat="-27.274439" lon="151.290064">
  <ele>343.1</ele>
  <time>2026-09-01T19:50:39Z</time>
  <course>7.12</course>
  <speed>0.0</speed>
  <fix>3d</fix>
</trkpt>
<trkpt lat="-27.274439" lon="151.290064">
  <ele>343.1</ele>
  <time>2026-09-01T19:50:39Z</time>
  <course>7.25</course>
  <speed>0.0</speed>
  <fix>3d</fix>
</trkpt>
<trkpt lat="-27.274439" lon="151.290064">
  <ele>343.1</ele>
  <time>2026-09-01T19:50:39Z</time>
  <course>7.12</course>
  <speed>0.0</speed>
  <fix>3d</fix>
</trkpt>
<trkpt lat="-27.274439" lon="151.290064">
  <ele>343.1</ele>
  <time>2026-09-01T19:50:39Z</time>
  <course>7.25</course>
  <speed>0.0</speed>
  <fix>3d</fix>
</trkpt>
<trkpt lat="-27.274439" lon="151.290064">
  <ele>343.1</ele>
  <time>2026-09-01T19:50:39Z</time>
  <course>7.12</course>
  <speed>0.0</speed>
  <fix>3d</fix>
</trkpt>
<trkpt lat="-27.274439" lon="151.290064">
  <ele>343.1</ele>
  <time>2026-09-01T19:50:39Z</time>
  <course>7.25</course>
  <speed>0.0</speed>
  <fix>3d</fix>
</trkpt>
<trkpt lat="-27.274439" lon="151.290064">
  <ele>343.1</ele>
  <time>2026-09-01T19:50:39Z</time>
  <course>7.12</course>
  <speed>0.0</speed>
  <fix>3d</fix>
</trkpt>
<trkpt lat="-27.274439" lon="151.290064">
  <ele>343.1</ele>
  <time>2026-09-01T19:50:39Z</time>
  <course>7.24</course>
  <speed>0.0</speed>
  <fix>3d</fix>
</trkpt>
<trkpt lat="-27.274439" lon="151.290064">
  <ele>343.1</ele>
  <time>2026-09-01T19:50:39Z</time>
  <course>7.12</course>
  <speed>0.0</speed>
  <fix>3d</fix>
</trkpt>
<trkpt lat="-27.274439" lon="151.290064">
  <ele>343.1</ele>
  <time>2026-09-01T19:50:39Z</time>
  <course>7.24</course>
  <speed>0.0</speed>
  <fix>3d</fix>
</trkpt>
<trkpt lat="-27.274439" lon="151.290064">
  <ele>343.1</ele>
  <time>2026-09-01T19:50:39Z</time>
  <course>7.12</course>
  <speed>0.0</speed>
  <fix>3d</fix>
</trkpt>
<trkpt lat="-27.274439" lon="151.290064">
  <ele>343.1</ele>
  <time>2026-09-01T19:50:39Z</time>
  <course>7.24</course>
  <speed>0.0</speed>
  <fix>3d</fix>
</trkpt>
<trkpt lat="-27.274439" lon="151.290064">
  <ele>343.1</ele>
  <time>2026-09-01T19:50:39Z</time>
  <course>7.12</course>
  <speed>0.0</speed>
  <fix>3d</fix>
</trkpt>
<trkpt lat="-27.274439" lon="151.290064">
  <ele>343.1</ele>
  <time>2026-09-01T19:50:39Z</time>
  <course>7.24</course>
  <speed>0.0</speed>
  <fix>3d</fix>
</trkpt>
<trkpt lat="-27.274439" lon="151.290064">
  <ele>343.1</ele>
  <time>2026-09-01T19:50:39Z</time>
  <course>7.12</course>
  <speed>0.0</speed>
  <fix>3d</fix>
</trkpt>
<trkpt lat="-27.274439" lon="151.290064">
  <ele>343.1</ele>
  <time>2026-09-01T19:50:39Z</time>
  <course>7.24</course>
  <speed>0.0</speed>
  <fix>3d</fix>
</trkpt>
<trkpt lat="-27.274439" lon="151.290064">
  <ele>343.1</ele>
  <time>2026-09-01T19:50:39Z</time>
  <course>7.12</course>
  <speed>0.0</speed>
  <fix>3d</fix>
</trkpt>
<trkpt lat="-27.274439" lon="151.290064">
  <ele>343.1</ele>
  <time>2026-09-01T19:50:39Z</time>
  <course>7.23</course>
  <speed>0.0</speed>
  <fix>3d</fix>
</trkpt>
<trkpt lat="-27.274439" lon="151.290064">
  <ele>343.1</ele>
  <time>2026-09-01T19:50:39Z</time>
  <course>7.12</course>
  <speed>0.0</speed>
  <fix>3d</fix>
</trkpt>
<trkpt lat="-27.274439" lon="151.290064">
  <ele>343.1</ele>
  <time>2026-09-01T19:50:39Z</time>
  <course>7.23</course>
  <speed>0.0</speed>
  <fix>3d</fix>
</trkpt>
<trkpt lat="-27.274439" lon="151.290064">
  <ele>343.1</ele>
  <time>2026-09-01T19:50:39Z</time>
  <course>7.12</course>
  <speed>0.0</speed>
  <fix>3d</fix>
</trkpt>
<trkpt lat="-27.274439" lon="151.290064">
  <ele>343.1</ele>
  <time>2026-09-01T19:50:39Z</time>
  <course>7.23</course>
  <speed>0.0</speed>
  <fix>3d</fix>
</trkpt>
<trkpt lat="-27.274439" lon="151.290064">
  <ele>343.1</ele>
  <time>2026-09-01T19:50:39Z</time>
  <course>7.12</course>
  <speed>0.0</speed>
  <fix>3d</fix>
</trkpt>
<trkpt lat="-27.274439" lon="151.290064">
  <ele>343.1</ele>
  <time>2026-09-01T19:50:39Z</time>
  <course>7.23</course>
  <speed>0.0</speed>
  <fix>3d</fix>
</trkpt>
<trkpt lat="-27.274439" lon="151.290064">
  <ele>343.1</ele>
  <time>2026-09-01T19:50:39Z</time>
  <course>7.12</course>
  <speed>0.0</speed>
  <fix>3d</fix>
</trkpt>
<trkpt lat="-27.274439" lon="151.290064">
  <ele>343.1</ele>
  <time>2026-09-01T19:50:39Z</time>
  <course>7.23</course>
  <speed>0.0</speed>
  <fix>3d</fix>
</trkpt>
<trkpt lat="-27.274439" lon="151.290064">
  <ele>343.1</ele>
  <time>2026-09-01T19:50:39Z</time>
  <course>7.12</course>
  <speed>0.0</speed>
  <fix>3d</fix>
</trkpt>
<trkpt lat="-27.274439" lon="151.290064">
  <ele>343.1</ele>
  <time>2026-09-01T19:50:39Z</time>
  <course>7.22</course>
  <speed>0.0</speed>
  <fix>3d</fix>
</trkpt>
<trkpt lat="-27.274439" lon="151.290064">
  <ele>343.1</ele>
  <time>2026-09-01T19:50:39Z</time>
  <course>7.12</course>
  <speed>0.0</speed>
  <fix>3d</fix>
</trkpt>
<trkpt lat="-27.274439" lon="151.290064">
  <ele>343.1</ele>
  <time>2026-09-01T19:50:39Z</time>
  <course>7.22</course>
  <speed>0.0</speed>
  <fix>3d</fix>
</trkpt>
<trkpt lat="-27.274439" lon="151.290064">
  <ele>343.1</ele>
  <time>2026-09-01T19:50:39Z</time>
  <course>7.12</course>
  <speed>0.0</speed>
  <fix>3d</fix>
</trkpt>
<trkpt lat="-27.274439" lon="151.290064">
  <ele>343.1</ele>
  <time>2026-09-01T19:50:39Z</time>
  <course>7.22</course>
  <speed>0.0</speed>
  <fix>3d</fix>
</trkpt>
<trkpt lat="-27.274439" lon="151.290064">
  <ele>343.1</ele>
  <time>2026-09-01T19:50:39Z</time>
  <course>7.12</course>
  <speed>0.0</speed>
  <fix>3d</fix>
</trkpt>
<trkpt lat="-27.274439" lon="151.290064">
  <ele>343.1</ele>
  <time>2026-09-01T19:50:39Z</time>
  <course>7.22</course>
  <speed>0.0</speed>
  <fix>3d</fix>
</trkpt>
<trkpt lat="-27.274439" lon="151.290064">
  <ele>343.1</ele>
  <time>2026-09-01T19:50:39Z</time>
  <course>7.12</course>
  <speed>0.0</speed>
  <fix>3d</fix>
</trkpt>
<trkpt lat="-27.274439" lon="151.290064">
  <ele>343.1</ele>
  <time>2026-09-01T19:50:39Z</time>
  <course>7.22</course>
  <speed>0.0</speed>
  <fix>3d</fix>
</trkpt>
<trkpt lat="-27.274439" lon="151.290064">
  <ele>343.1</ele>
  <time>2026-09-01T19:50:39Z</time>
  <course>7.12</course>
  <speed>0.0</speed>
  <fix>3d</fix>
</trkpt>
<trkpt lat="-27.274439" lon="151.290064">
  <ele>343.1</ele>
  <time>2026-09-01T19:50:39Z</time>
  <course>7.21</course>
  <speed>0.0</speed>
  <fix>3d</fix>
</trkpt>
<trkpt lat="-27.274439" lon="151.290064">
  <ele>343.1</ele>
  <time>2026-09-01T19:50:39Z</time>
  <course>7.12</course>
  <speed>0.0</speed>
  <fix>3d</fix>
</trkpt>
<trkpt lat="-27.274439" lon="151.290064">
  <ele>343.1</ele>
  <time>2026-09-01T19:50:39Z</time>
  <course>7.21</course>
  <speed>0.0</speed>
  <fix>3d</fix>
</trkpt>
<trkpt lat="-27.274439" lon="151.290064">
  <ele>343.1</ele>
  <time>2026-09-01T19:50:39Z</time>
  <course>7.12</course>
  <speed>0.0</speed>
  <fix>3d</fix>
</trkpt>
<trkpt lat="-27.274439" lon="151.290064">
  <ele>343.1</ele>
  <time>2026-09-01T19:50:39Z</time>
  <course>7.21</course>
  <speed>0.0</speed>
  <fix>3d</fix>
</trkpt>
<trkpt lat="-27.274439" lon="151.290064">
  <ele>343.1</ele>
  <time>2026-09-01T19:50:39Z</time>
  <course>7.12</course>
  <speed>0.0</speed>
  <fix>3d</fix>
</trkpt>
<trkpt lat="-27.274439" lon="151.290064">
  <ele>343.1</ele>
  <time>2026-09-01T19:50:39Z</time>
  <course>7.21</course>
  <speed>0.0</speed>
  <fix>3d</fix>
</trkpt>
<trkpt lat="-27.274439" lon="151.290064">
  <ele>343.1</ele>
  <time>2026-09-01T19:50:39Z</time>
  <course>7.12</course>
  <speed>0.0</speed>
  <fix>3d</fix>
</trkpt>
<trkpt lat="-27.274439" lon="151.290064">
  <ele>343.1</ele>
  <time>2026-09-01T19:50:39Z</time>
  <course>7.21</course>
  <speed>0.0</speed>
  <fix>3d</fix>
</trkpt>
<trkpt lat="-27.274439" lon="151.290064">
  <ele>343.1</ele>
  <time>2026-09-01T19:50:39Z</time>
  <course>7.12</course>
  <speed>0.0</speed>
  <fix>3d</fix>
</trkpt>
<trkpt lat="-27.274439" lon="151.290064">
  <ele>343.1</ele>
  <time>2026-09-01T19:50:39Z</time>
  <course>7.2</course>
  <speed>0.0</speed>
  <fix>3d</fix>
</trkpt>
<trkpt lat="-27.274439" lon="151.290064">
  <ele>343.1</ele>
  <time>2026-09-01T19:50:39Z</time>
  <course>7.12</course>
  <speed>0.0</speed>
  <fix>3d</fix>
</trkpt>
<trkpt lat="-27.274439" lon="151.290064">
  <ele>343.1</ele>
  <time>2026-09-01T19:50:39Z</time>
  <course>7.2</course>
  <speed>0.0</speed>
  <fix>3d</fix>
</trkpt>
<trkpt lat="-27.274439" lon="151.290064">
  <ele>343.1</ele>
  <time>2026-09-01T19:50:39Z</time>
  <course>7.12</course>
  <speed>0.0</speed>
  <fix>3d</fix>
</trkpt>
<trkpt lat="-27.274439" lon="151.290064">
  <ele>343.1</ele>
  <time>2026-09-01T19:50:39Z</time>
  <course>7.2</course>
  <speed>0.0</speed>
  <fix>3d</fix>
</trkpt>
<trkpt lat="-27.274439" lon="151.290064">
  <ele>343.1</ele>
  <time>2026-09-01T19:50:39Z</time>
  <course>7.12</course>
  <speed>0.0</speed>
  <fix>3d</fix>
</trkpt>
<trkpt lat="-27.274439" lon="151.290064">
  <ele>343.1</ele>
  <time>2026-09-01T19:50:39Z</time>
  <course>7.2</course>
  <speed>0.0</speed>
  <fix>3d</fix>
</trkpt>
<trkpt lat="-27.274439" lon="151.290064">
  <ele>343.1</ele>
  <time>2026-09-01T19:50:39Z</time>
  <course>7.12</course>
  <speed>0.0</speed>
  <fix>3d</fix>
</trkpt>
<trkpt lat="-27.274439" lon="151.290064">
  <ele>343.1</ele>
  <time>2026-09-01T19:50:39Z</time>
  <course>7.19</course>
  <speed>0.0</speed>
  <fix>3d</fix>
</trkpt>
<trkpt lat="-27.274439" lon="151.290064">
  <ele>343.1</ele>
  <time>2026-09-01T19:50:39Z</time>
  <course>7.12</course>
  <speed>0.0</speed>
  <fix>3d</fix>
</trkpt>
<trkpt lat="-27.274439" lon="151.290064">
  <ele>343.1</ele>
  <time>2026-09-01T19:50:39Z</time>
  <course>7.19</course>
  <speed>0.0</speed>
  <fix>3d</fix>
</trkpt>
<trkpt lat="-27.274439" lon="151.290064">
  <ele>343.1</ele>
  <time>2026-09-01T19:50:39Z</time>
  <course>7.12</course>
  <speed>0.0</speed>
  <fix>3d</fix>
</trkpt>
<trkpt lat="-27.274439" lon="151.290064">
  <ele>343.1</ele>
  <time>2026-09-01T19:50:39Z</time>
  <course>7.19</course>
  <speed>0.0</speed>
  <fix>3d</fix>
</trkpt>
<trkpt lat="-27.274439" lon="151.290064">
  <ele>343.1</ele>
  <time>2026-09-01T19:50:39Z</time>
  <course>7.12</course>
  <speed>0.0</speed>
  <fix>3d</fix>
</trkpt>
<trkpt lat="-27.274439" lon="151.290064">
  <ele>343.1</ele>
  <time>2026-09-01T19:50:39Z</time>
  <course>7.19</course>
  <speed>0.0</speed>
  <fix>3d</fix>
</trkpt>
<trkpt lat="-27.274439" lon="151.290064">
  <ele>343.1</ele>
  <time>2026-09-01T19:50:39Z</time>
  <course>7.12</course>
  <speed>0.0</speed>
  <fix>3d</fix>
</trkpt>
<trkpt lat="-27.274439" lon="151.290064">
  <ele>343.1</ele>
  <time>2026-09-01T19:50:39Z</time>
  <course>7.19</course>
  <speed>0.0</speed>
  <fix>3d</fix>
</trkpt>
<trkpt lat="-27.274439" lon="151.290064">
  <ele>343.1</ele>
  <time>2026-09-01T19:50:39Z</time>
  <course>7.12</course>
  <speed>0.0</speed>
  <fix>3d</fix>
</trkpt>
<trkpt lat="-27.274439" lon="151.290064">
  <ele>343.1</ele>
  <time>2026-09-01T19:50:39Z</time>
  <course>7.18</course>
  <speed>0.0</speed>
  <fix>3d</fix>
</trkpt>
<trkpt lat="-27.274439" lon="151.290064">
  <ele>343.1</ele>
  <time>2026-09-01T19:50:39Z</time>
  <course>7.12</course>
  <speed>0.0</speed>
  <fix>3d</fix>
</trkpt>
<trkpt lat="-27.274439" lon="151.290064">
  <ele>343.1</ele>
  <time>2026-09-01T19:50:39Z</time>
  <course>7.18</course>
  <speed>0.0</speed>
  <fix>3d</fix>
</trkpt>
<trkpt lat="-27.274439" lon="151.290064">
  <ele>343.1</ele>
  <time>2026-09-01T19:50:39Z</time>
  <course>7.12</course>
  <speed>0.0</speed>
  <fix>3d</fix>
</trkpt>
<trkpt lat="-27.274439" lon="151.290064">
  <ele>343.1</ele>
  <time>2026-09-01T19:50:39Z</time>
  <course>7.18</course>
  <speed>0.0</speed>
  <fix>3d</fix>
</trkpt>
<trkpt lat="-27.274439" lon="151.290064">
  <ele>343.1</ele>
  <time>2026-09-01T19:50:39Z</time>
  <course>7.12</course>
  <speed>0.0</speed>
  <fix>3d</fix>
</trkpt>
<trkpt lat="-27.274439" lon="151.290064">
  <ele>343.1</ele>
  <time>2026-09-01T19:50:39Z</time>
  <course>7.18</course>
  <speed>0.0</speed>
  <fix>3d</fix>
</trkpt>
<trkpt lat="-27.274439" lon="151.290064">
  <ele>343.1</ele>
  <time>2026-09-01T19:50:39Z</time>
  <course>7.12</course>
  <speed>0.0</speed>
  <fix>3d</fix>
</trkpt>
<trkpt lat="-27.274439" lon="151.290064">
  <ele>343.1</ele>
  <time>2026-09-01T19:50:39Z</time>
  <course>7.18</course>
  <speed>0.0</speed>
  <fix>3d</fix>
</trkpt>
<trkpt lat="-27.274439" lon="151.290064">
  <ele>343.1</ele>
  <time>2026-09-01T19:50:39Z</time>
  <course>7.12</course>
  <speed>0.0</speed>
  <fix>3d</fix>
</trkpt>
<trkpt lat="-27.274439" lon="151.290064">
  <ele>343.1</ele>
  <time>2026-09-01T19:50:39Z</time>
  <course>7.17</course>
  <speed>0.0</speed>
  <fix>3d</fix>
</trkpt>
<trkpt lat="-27.274439" lon="151.290064">
  <ele>343.1</ele>
  <time>2026-09-01T19:50:39Z</time>
  <course>7.12</course>
  <speed>0.0</speed>
  <fix>3d</fix>
</trkpt>
<trkpt lat="-27.274439" lon="151.290064">
  <ele>343.1</ele>
  <time>2026-09-01T19:50:39Z</time>
  <course>7.17</course>
  <speed>0.0</speed>
  <fix>3d</fix>
</trkpt>
<trkpt lat="-27.274439" lon="151.290064">
  <ele>343.1</ele>
  <time>2026-09-01T19:50:39Z</time>
  <course>7.12</course>
  <speed>0.0</speed>
  <fix>3d</fix>
</trkpt>
<trkpt lat="-27.274439" lon="151.290064">
  <ele>343.1</ele>
  <time>2026-09-01T19:50:39Z</time>
  <course>7.17</course>
  <speed>0.0</speed>
  <fix>3d</fix>
</trkpt>
<trkpt lat="-27.274439" lon="151.290064">
  <ele>343.1</ele>
  <time>2026-09-01T19:50:39Z</time>
  <course>7.12</course>
  <speed>0.0</speed>
  <fix>3d</fix>
</trkpt>
<trkpt lat="-27.274439" lon="151.290064">
  <ele>343.1</ele>
  <time>2026-09-01T19:50:39Z</time>
  <course>7.17</course>
  <speed>0.0</speed>
  <fix>3d</fix>
</trkpt>
<trkpt lat="-27.274439" lon="151.290064">
  <ele>343.1</ele>
  <time>2026-09-01T19:50:39Z</time>
  <course>7.12</course>
  <speed>0.0</speed>
  <fix>3d</fix>
</trkpt>
<trkpt lat="-27.274439" lon="151.290064">
  <ele>343.1</ele>
  <time>2026-09-01T19:50:39Z</time>
  <course>7.17</course>
  <speed>0.0</speed>
  <fix>3d</fix>
</trkpt>
<trkpt lat="-27.274439" lon="151.290064">
  <ele>343.1</ele>
  <time>2026-09-01T19:50:39Z</time>
  <course>7.12</course>
  <speed>0.0</speed>
  <fix>3d</fix>
</trkpt>
<trkpt lat="-27.274439" lon="151.290064">
  <ele>343.1</ele>
  <time>2026-09-01T19:50:39Z</time>
  <course>7.16</course>
  <speed>0.0</speed>
  <fix>3d</fix>
</trkpt>
<trkpt lat="-27.274439" lon="151.290064">
  <ele>343.1</ele>
  <time>2026-09-01T19:50:39Z</time>
  <course>7.12</course>
  <speed>0.0</speed>
  <fix>3d</fix>
</trkpt>
<trkpt lat="-27.274439" lon="151.290064">
  <ele>343.1</ele>
  <time>2026-09-01T19:50:39Z</time>
  <course>7.16</course>
  <speed>0.0</speed>
  <fix>3d</fix>
</trkpt>
<trkpt lat="-27.274439" lon="151.290064">
  <ele>343.1</ele>
  <time>2026-09-01T19:50:39Z</time>
  <course>7.12</course>
  <speed>0.0</speed>
  <fix>3d</fix>
</trkpt>
<trkpt lat="-27.274439" lon="151.290064">
  <ele>343.1</ele>
  <time>2026-09-01T19:50:39Z</time>
  <course>7.16</course>
  <speed>0.0</speed>
  <fix>3d</fix>
</trkpt>
<trkpt lat="-27.274439" lon="151.290064">
  <ele>343.1</ele>
  <time>2026-09-01T19:50:39Z</time>
  <course>7.12</course>
  <speed>0.0</speed>
  <fix>3d</fix>
</trkpt>
<trkpt lat="-27.274439" lon="151.290064">
  <ele>343.1</ele>
  <time>2026-09-01T19:50:39Z</time>
  <course>7.16</course>
  <speed>0.0</speed>
  <fix>3d</fix>
</trkpt>
<trkpt lat="-27.274439" lon="151.290064">
  <ele>343.1</ele>
  <time>2026-09-01T19:50:39Z</time>
  <course>7.12</course>
  <speed>0.0</speed>
  <fix>3d</fix>
</trkpt>
<trkpt lat="-27.274439" lon="151.290064">
  <ele>343.1</ele>
  <time>2026-09-01T19:50:39Z</time>
  <course>7.16</course>
  <speed>0.0</speed>
  <fix>3d</fix>
</trkpt>
<trkpt lat="-27.274439" lon="151.290064">
  <ele>343.1</ele>
  <time>2026-09-01T19:50:39Z</time>
  <course>7.12</course>
  <speed>0.0</speed>
  <fix>3d</fix>
</trkpt>
<trkpt lat="-27.274439" lon="151.290064">
  <ele>343.1</ele>
  <time>2026-09-01T19:50:39Z</time>
  <course>7.15</course>
  <speed>0.0</speed>
  <fix>3d</fix>
</trkpt>
<trkpt lat="-27.274439" lon="151.290064">
  <ele>343.1</ele>
  <time>2026-09-01T19:50:39Z</time>
  <course>7.12</course>
  <speed>0.0</speed>
  <fix>3d</fix>
</trkpt>
<trkpt lat="-27.274439" lon="151.290064">
  <ele>343.1</ele>
  <time>2026-09-01T19:50:39Z</time>
  <course>7.15</course>
  <speed>0.0</speed>
  <fix>3d</fix>
</trkpt>
<trkpt lat="-27.274439" lon="151.290064">
  <ele>343.1</ele>
  <time>2026-09-01T19:50:39Z</time>
  <course>7.12</course>
  <speed>0.0</speed>
  <fix>3d</fix>
</trkpt>
<trkpt lat="-27.274439" lon="151.290064">
  <ele>343.1</ele>
  <time>2026-09-01T19:50:39Z</time>
  <course>7.15</course>
  <speed>0.0</speed>
  <fix>3d</fix>
</trkpt>
<trkpt lat="-27.274439" lon="151.290064">
  <ele>343.1</ele>
  <time>2026-09-01T19:50:39Z</time>
  <course>7.12</course>
  <speed>0.0</speed>
  <fix>3d</fix>
</trkpt>
<trkpt lat="-27.274439" lon="151.290064">
  <ele>343.1</ele>
  <time>2026-09-01T19:50:39Z</time>
  <course>7.15</course>
  <speed>0.0</speed>
  <fix>3d</fix>
</trkpt>
<trkpt lat="-27.274439" lon="151.290064">
  <ele>343.1</ele>
  <time>2026-09-01T19:50:39Z</time>
  <course>7.12</course>
  <speed>0.0</speed>
  <fix>3d</fix>
</trkpt>
<trkpt lat="-27.274439" lon="151.290064">
  <ele>343.1</ele>
  <time>2026-09-01T19:50:39Z</time>
  <course>7.14</course>
  <speed>0.0</speed>
  <fix>3d</fix>
</trkpt>
<trkpt lat="-27.274439" lon="151.290064">
  <ele>343.1</ele>
  <time>2026-09-01T19:50:39Z</time>
  <course>7.12</course>
  <speed>0.0</speed>
  <fix>3d</fix>
</trkpt>
<trkpt lat="-27.274439" lon="151.290064">
  <ele>343.1</ele>
  <time>2026-09-01T19:50:39Z</time>
  <course>7.14</course>
  <speed>0.0</speed>
  <fix>3d</fix>
</trkpt>
<trkpt lat="-27.274439" lon="151.290064">
  <ele>343.1</ele>
  <time>2026-09-01T19:50:39Z</time>
  <course>7.12</course>
  <speed>0.0</speed>
  <fix>3d</fix>
</trkpt>
<trkpt lat="-27.274439" lon="151.290064">
  <ele>343.1</ele>
  <time>2026-09-01T19:50:39Z</time>
  <course>7.14</course>
  <speed>0.0</speed>
  <fix>3d</fix>
</trkpt>
<trkpt lat="-27.274439" lon="151.290064">
  <ele>343.1</ele>
  <time>2026-09-01T19:50:39Z</time>
  <course>7.12</course>
  <speed>0.0</speed>
  <fix>3d</fix>
</trkpt>
<trkpt lat="-27.274439" lon="151.290064">
  <ele>343.1</ele>
  <time>2026-09-01T19:50:39Z</time>
  <course>7.14</course>
  <speed>0.0</speed>
  <fix>3d</fix>
</trkpt>
<trkpt lat="-27.274439" lon="151.290064">
  <ele>343.1</ele>
  <time>2026-09-01T19:50:39Z</time>
  <course>7.12</course>
  <speed>0.0</speed>
  <fix>3d</fix>
</trkpt>
<trkpt lat="-27.274439" lon="151.290064">
  <ele>343.1</ele>
  <time>2026-09-01T19:50:39Z</time>
  <course>7.14</course>
  <speed>0.0</speed>
  <fix>3d</fix>
</trkpt>
<trkpt lat="-27.274439" lon="151.290064">
  <ele>343.1</ele>
  <time>2026-09-01T19:50:39Z</time>
  <course>7.12</course>
  <speed>0.0</speed>
  <fix>3d</fix>
</trkpt>
<trkpt lat="-27.274439" lon="151.290064">
  <ele>343.1</ele>
  <time>2026-09-01T19:50:39Z</time>
  <course>7.13</course>
  <speed>0.0</speed>
  <fix>3d</fix>
</trkpt>
<trkpt lat="-27.274439" lon="151.290064">
  <ele>343.1</ele>
  <time>2026-09-01T19:50:39Z</time>
  <course>7.12</course>
  <speed>0.0</speed>
  <fix>3d</fix>
</trkpt>
<trkpt lat="-27.274439" lon="151.290064">
  <ele>343.1</ele>
  <time>2026-09-01T19:50:39Z</time>
  <course>7.13</course>
  <speed>0.0</speed>
  <fix>3d</fix>
</trkpt>
<trkpt lat="-27.274439" lon="151.290064">
  <ele>343.1</ele>
  <time>2026-09-01T19:50:39Z</time>
  <course>7.12</course>
  <speed>0.0</speed>
  <fix>3d</fix>
</trkpt>
<trkpt lat="-27.274439" lon="151.290064">
  <ele>343.1</ele>
  <time>2026-09-01T19:50:39Z</time>
  <course>7.13</course>
  <speed>0.0</speed>
  <fix>3d</fix>
</trkpt>
<trkpt lat="-27.274439" lon="151.290064">
  <ele>343.1</ele>
  <time>2026-09-01T19:50:39Z</time>
  <course>7.12</course>
  <speed>0.0</speed>
  <fix>3d</fix>
</trkpt>
<trkpt lat="-27.274439" lon="151.290064">
  <ele>343.1</ele>
  <time>2026-09-01T19:50:39Z</time>
  <course>7.13</course>
  <speed>0.0</speed>
  <fix>3d</fix>
</trkpt>
<trkpt lat="-27.274439" lon="151.290064">
  <ele>343.1</ele>
  <time>2026-09-01T19:50:39Z</time>
  <course>7.12</course>
  <speed>0.0</speed>
  <fix>3d</fix>
</trkpt>
<trkpt lat="-27.274439" lon="151.290064">
  <ele>343.1</ele>
  <time>2026-09-01T19:50:39Z</time>
  <course>7.13</course>
  <speed>0.0</speed>
  <fix>3d</fix>
</trkpt>
<trkpt lat="-27.274439" lon="151.290064">
  <ele>343.1</ele>
  <time>2026-09-01T19:50:39Z</time>
  <course>7.12</course>
  <speed>0.0</speed>
  <fix>3d</fix>
</trkpt>
<trkpt lat="-27.274439" lon="151.290064">
  <ele>343.1</ele>
  <time>2026-09-01T19:50:39Z</time>
  <course>7.12</course>
  <speed>0.0</speed>
  <fix>3d</fix>
</trkpt>
<trkpt lat="-27.274439" lon="151.290064">
  <ele>343.1</ele>
  <time>2026-09-01T19:50:39Z</time>
  <course>7.12</course>
  <speed>0.0</speed>
  <fix>3d</fix>
</trkpt>
<trkpt lat="-27.274439" lon="151.290064">
  <ele>343.1</ele>
  <time>2026-09-01T19:50:39Z</time>
  <course>7.12</course>
  <speed>0.0</speed>
  <fix>3d</fix>
</trkpt>
<trkpt lat="-27.274439" lon="151.290064">
  <ele>343.1</ele>
  <time>2026-09-01T19:50:39Z</time>
  <course>7.12</course>
  <speed>0.0</speed>
  <fix>3d</fix>
</trkpt>
<trkpt lat="-27.274439" lon="151.290064">
  <ele>343.1</ele>
  <time>2026-09-01T19:50:39Z</time>
  <course>7.12</course>
  <speed>0.0</speed>
  <fix>3d</fix>
</trkpt>
<trkpt lat="-27.274439" lon="151.290064">
  <ele>343.1</ele>
  <time>2026-09-01T19:50:39Z</time>
  <course>7.12</course>
  <speed>0.0</speed>
  <fix>3d</fix>
</trkpt>
<trkpt lat="-27.274439" lon="151.290064">
  <ele>343.1</ele>
  <time>2026-09-01T19:50:39Z</time>
  <course>7.12</course>
  <speed>0.0</speed>
  <fix>3d</fix>
</trkpt>
<trkpt lat="-27.274439" lon="151.290064">
  <ele>343.1</ele>
  <time>2026-09-01T19:50:39Z</time>
  <course>7.12</course>
  <speed>0.0</speed>
  <fix>3d</fix>
</trkpt>
<trkpt lat="-27.274439" lon="151.290064">
  <ele>343.1</ele>
  <time>2026-09-01T19:50:39Z</time>
  <course>7.12</course>
  <speed>0.0</speed>
  <fix>3d</fix>
</trkpt>
<trkpt lat="-27.274439" lon="151.290064">
  <ele>343.1</ele>
  <time>2026-09-01T19:50:39Z</time>
  <course>7.12</course>
  <speed>0.0</speed>
  <fix>3d</fix>
</trkpt>
<trkpt lat="-27.274439" lon="151.290064">
  <ele>343.1</ele>
  <time>2026-09-01T19:50:39Z</time>
  <course>7.11</course>
  <speed>0.0</speed>
  <fix>3d</fix>
</trkpt>
<trkpt lat="-27.274439" lon="151.290064">
  <ele>343.1</ele>
  <time>2026-09-01T19:50:39Z</time>
  <course>7.12</course>
  <speed>0.0</speed>
  <fix>3d</fix>
</trkpt>
<trkpt lat="-27.274439" lon="151.290064">
  <ele>343.1</ele>
  <time>2026-09-01T19:50:39Z</time>
  <course>7.11</course>
  <speed>0.0</speed>
  <fix>3d</fix>
</trkpt>
<trkpt lat="-27.274439" lon="151.290064">
  <ele>343.1</ele>
  <time>2026-09-01T19:50:39Z</time>
  <course>7.12</course>
  <speed>0.0</speed>
  <fix>3d</fix>
</trkpt>
<trkpt lat="-27.274439" lon="151.290064">
  <ele>343.1</ele>
  <time>2026-09-01T19:50:39Z</time>
  <course>7.11</course>
  <speed>0.0</speed>
  <fix>3d</fix>
</trkpt>
<trkpt lat="-27.274439" lon="151.290064">
  <ele>343.1</ele>
  <time>2026-09-01T19:50:39Z</time>
  <course>7.12</course>
  <speed>0.0</speed>
  <fix>3d</fix>
</trkpt>
<trkpt lat="-27.274439" lon="151.290064">
  <ele>343.1</ele>
  <time>2026-09-01T19:50:39Z</time>
  <course>7.11</course>
  <speed>0.0</speed>
  <fix>3d</fix>
</trkpt>
<trkpt lat="-27.274439" lon="151.290064">
  <ele>343.1</ele>
  <time>2026-09-01T19:50:39Z</time>
  <course>7.12</course>
  <speed>0.0</speed>
  <fix>3d</fix>
</trkpt>
<trkpt lat="-27.274439" lon="151.290064">
  <ele>343.1</ele>
  <time>2026-09-01T19:50:39Z</time>
  <course>7.11</course>
  <speed>0.0</speed>
  <fix>3d</fix>
</trkpt>
<trkpt lat="-27.274439" lon="151.290064">
  <ele>343.1</ele>
  <time>2026-09-01T19:50:39Z</time>
  <course>7.12</course>
  <speed>0.0</speed>
  <fix>3d</fix>
</trkpt>
<trkpt lat="-27.274439" lon="151.290064">
  <ele>343.1</ele>
  <time>2026-09-01T19:50:39Z</time>
  <course>7.1</course>
  <speed>0.0</speed>
  <fix>3d</fix>
</trkpt>
<trkpt lat="-27.274439" lon="151.290064">
  <ele>343.1</ele>
  <time>2026-09-01T19:50:39Z</time>
  <course>7.12</course>
  <speed>0.0</speed>
  <fix>3d</fix>
</trkpt>
<trkpt lat="-27.274439" lon="151.290064">
  <ele>343.1</ele>
  <time>2026-09-01T19:50:39Z</time>
  <course>7.1</course>
  <speed>0.0</speed>
  <fix>3d</fix>
</trkpt>
<trkpt lat="-27.274439" lon="151.290064">
  <ele>343.1</ele>
  <time>2026-09-01T19:50:39Z</time>
  <course>7.12</course>
  <speed>0.0</speed>
  <fix>3d</fix>
</trkpt>
<trkpt lat="-27.274439" lon="151.290064">
  <ele>343.1</ele>
  <time>2026-09-01T19:50:39Z</time>
  <course>7.1</course>
  <speed>0.0</speed>
  <fix>3d</fix>
</trkpt>
<trkpt lat="-27.274439" lon="151.290064">
  <ele>343.1</ele>
  <time>2026-09-01T19:50:39Z</time>
  <course>7.12</course>
  <speed>0.0</speed>
  <fix>3d</fix>
</trkpt>
<trkpt lat="-27.274439" lon="151.290064">
  <ele>343.1</ele>
  <time>2026-09-01T19:50:39Z</time>
  <course>7.1</course>
  <speed>0.0</speed>
  <fix>3d</fix>
</trkpt>
<trkpt lat="-27.274439" lon="151.290064">
  <ele>343.1</ele>
  <time>2026-09-01T19:50:39Z</time>
  <course>7.12</course>
  <speed>0.0</speed>
  <fix>3d</fix>
</trkpt>
<trkpt lat="-27.274439" lon="151.290064">
  <ele>343.1</ele>
  <time>2026-09-01T19:50:39Z</time>
  <course>7.09</course>
  <speed>0.0</speed>
  <fix>3d</fix>
</trkpt>
<trkpt lat="-27.274439" lon="151.290064">
  <ele>343.1</ele>
  <time>2026-09-01T19:50:39Z</time>
  <course>7.12</course>
  <speed>0.0</speed>
  <fix>3d</fix>
</trkpt>
<trkpt lat="-27.274439" lon="151.290064">
  <ele>343.1</ele>
  <time>2026-09-01T19:50:39Z</time>
  <course>7.09</course>
  <speed>0.0</speed>
  <fix>3d</fix>
</trkpt>
<trkpt lat="-27.274439" lon="151.290064">
  <ele>343.1</ele>
  <time>2026-09-01T19:50:39Z</time>
  <course>7.12</course>
  <speed>0.0</speed>
  <fix>3d</fix>
</trkpt>
<trkpt lat="-27.274439" lon="151.290064">
  <ele>343.1</ele>
  <time>2026-09-01T19:50:39Z</time>
  <course>7.09</course>
  <speed>0.0</speed>
  <fix>3d</fix>
</trkpt>
<trkpt lat="-27.274439" lon="151.290064">
  <ele>343.1</ele>
  <time>2026-09-01T19:50:39Z</time>
  <course>7.12</course>
  <speed>0.0</speed>
  <fix>3d</fix>
</trkpt>
<trkpt lat="-27.274439" lon="151.290064">
  <ele>343.1</ele>
  <time>2026-09-01T19:50:39Z</time>
  <course>7.09</course>
  <speed>0.0</speed>
  <fix>3d</fix>
</trkpt>
<trkpt lat="-27.274439" lon="151.290064">
  <ele>343.1</ele>
  <time>2026-09-01T19:50:39Z</time>
  <course>7.12</course>
  <speed>0.0</speed>
  <fix>3d</fix>
</trkpt>
<trkpt lat="-27.274439" lon="151.290064">
  <ele>343.1</ele>
  <time>2026-09-01T19:50:39Z</time>
  <course>7.09</course>
  <speed>0.0</speed>
  <fix>3d</fix>
</trkpt>
<trkpt lat="-27.274439" lon="151.290064">
  <ele>343.1</ele>
  <time>2026-09-01T19:50:39Z</time>
  <course>7.12</course>
  <speed>0.0</speed>
  <fix>3d</fix>
</trkpt>
<trkpt lat="-27.274439" lon="151.290064">
  <ele>343.1</ele>
  <time>2026-09-01T19:50:39Z</time>
  <course>7.09</course>
  <speed>0.0</speed>
  <fix>3d</fix>
</trkpt>
<trkpt lat="-27.274439" lon="151.290064">
  <ele>343.1</ele>
  <time>2026-09-01T19:50:39Z</time>
  <course>142.09</course>
  <speed>0.0</speed>
  <fix>3d</fix>
</trkpt>
<trkpt lat="-27.274439" lon="151.290064">
  <ele>343.1</ele>
  <time>2026-09-01T19:50:39Z</time>
  <course>7.09</course>
  <speed>0.0</speed>
  <fix>3d</fix>
</trkpt>
<trkpt lat="-27.274439" lon="151.290064">
  <ele>343.1</ele>
  <time>2026-09-01T19:50:39Z</time>
  <course>142.09</course>
  <speed>0.0</speed>
  <fix>3d</fix>
</trkpt>
<trkpt lat="-27.274439" lon="151.290064">
  <ele>343.1</ele>
  <time>2026-09-01T19:50:39Z</time>
  <course>7.09</course>
  <speed>0.0</speed>
  <fix>3d</fix>
</trkpt>
<trkpt lat="-27.274439" lon="151.290064">
  <ele>343.1</ele>
  <time>2026-09-01T19:50:39Z</time>
  <course>322.1</course>
  <speed>0.0</speed>
  <fix>3d</fix>
</trkpt>
<trkpt lat="-27.274439" lon="151.290064">
  <ele>343.1</ele>
  <time>2026-09-01T19:50:39Z</time>
  <course>7.09</course>
  <speed>0.0</speed>
  <fix>3d</fix>
</trkpt>
<trkpt lat="-27.274439" lon="151.290064">
  <ele>343.1</ele>
  <time>2026-09-01T19:50:39Z</time>
  <course>322.1</course>
  <speed>0.0</speed>
  <fix>3d</fix>
</trkpt>
<trkpt lat="-27.274439" lon="151.290064">
  <ele>343.1</ele>
  <time>2026-09-01T19:50:39Z</time>
  <course>7.09</course>
  <speed>0.0</speed>
  <fix>3d</fix>
</trkpt>
<trkpt lat="-27.274439" lon="151.290064">
  <ele>343.1</ele>
  <time>2026-09-01T19:50:39Z</time>
  <course>322.09</course>
  <speed>0.0</speed>
  <fix>3d</fix>
</trkpt>
<trkpt lat="-27.274439" lon="151.290064">
  <ele>343.1</ele>
  <time>2026-09-01T19:50:39Z</time>
  <course>7.09</course>
  <speed>0.0</speed>
  <fix>3d</fix>
</trkpt>
<trkpt lat="-27.274439" lon="151.290064">
  <ele>343.1</ele>
  <time>2026-09-01T19:50:39Z</time>
  <course>322.09</course>
  <speed>0.0</speed>
  <fix>3d</fix>
</trkpt>
<trkpt lat="-27.274439" lon="151.290064">
  <ele>343.1</ele>
  <time>2026-09-01T19:50:39Z</time>
  <course>7.09</course>
  <speed>0.0</speed>
  <fix>3d</fix>
</trkpt>
<trkpt lat="-27.274439" lon="151.290064">
  <ele>343.1</ele>
  <time>2026-09-01T19:50:39Z</time>
  <course>322.09</course>
  <speed>0.0</speed>
  <fix>3d</fix>
</trkpt>
<trkpt lat="-27.274439" lon="151.290064">
  <ele>343.1</ele>
  <time>2026-09-01T19:50:39Z</time>
  <course>7.09</course>
  <speed>0.0</speed>
  <fix>3d</fix>
</trkpt>
<trkpt lat="-27.274439" lon="151.290064">
  <ele>343.1</ele>
  <time>2026-09-01T19:50:39Z</time>
  <course>322.09</course>
  <speed>0.0</speed>
  <fix>3d</fix>
</trkpt>
<trkpt lat="-27.274439" lon="151.290064">
  <ele>343.1</ele>
  <time>2026-09-01T19:50:39Z</time>
  <course>7.09</course>
  <speed>0.0</speed>
  <fix>3d</fix>
</trkpt>
<trkpt lat="-27.274439" lon="151.290064">
  <ele>343.1</ele>
  <time>2026-09-01T19:50:39Z</time>
  <course>142.09</course>
  <speed>0.0</speed>
  <fix>3d</fix>
</trkpt>
<trkpt lat="-27.274439" lon="151.290064">
  <ele>343.1</ele>
  <time>2026-09-01T19:50:39Z</time>
  <course>7.09</course>
  <speed>0.0</speed>
  <fix>3d</fix>
</trkpt>
<trkpt lat="-27.274439" lon="151.290064">
  <ele>343.1</ele>
  <time>2026-09-01T19:50:39Z</time>
  <course>142.09</course>
  <speed>0.0</speed>
  <fix>3d</fix>
</trkpt>
<trkpt lat="-27.274439" lon="151.290064">
  <ele>343.1</ele>
  <time>2026-09-01T19:50:39Z</time>
  <course>7.09</course>
  <speed>0.0</speed>
  <fix>3d</fix>
</trkpt>
<trkpt lat="-27.274439" lon="151.290064">
  <ele>343.1</ele>
  <time>2026-09-01T19:50:39Z</time>
  <course>142.07</course>
  <speed>0.0</speed>
  <fix>3d</fix>
</trkpt>
<trkpt lat="-27.274439" lon="151.290064">
  <ele>343.1</ele>
  <time>2026-09-01T19:50:39Z</time>
  <course>7.09</course>
  <speed>0.0</speed>
  <fix>3d</fix>
</trkpt>
<trkpt lat="-27.274439" lon="151.290064">
  <ele>343.1</ele>
  <time>2026-09-01T19:50:39Z</time>
  <course>142.07</course>
  <speed>0.0</speed>
  <fix>3d</fix>
</trkpt>
<trkpt lat="-27.274439" lon="151.290064">
  <ele>343.1</ele>
  <time>2026-09-01T19:50:39Z</time>
  <course>7.09</course>
  <speed>0.0</speed>
  <fix>3d</fix>
</trkpt>
<trkpt lat="-27.274439" lon="151.290064">
  <ele>343.1</ele>
  <time>2026-09-01T19:50:39Z</time>
  <course>322.09</course>
  <speed>0.0</speed>
  <fix>3d</fix>
</trkpt>
<trkpt lat="-27.274439" lon="151.290064">
  <ele>343.1</ele>
  <time>2026-09-01T19:50:39Z</time>
  <course>7.09</course>
  <speed>0.0</speed>
  <fix>3d</fix>
</trkpt>
<trkpt lat="-27.274439" lon="151.290064">
  <ele>343.1</ele>
  <time>2026-09-01T19:50:39Z</time>
  <course>322.09</course>
  <speed>0.0</speed>
  <fix>3d</fix>
</trkpt>
<trkpt lat="-27.274439" lon="151.290064">
  <ele>343.1</ele>
  <time>2026-09-01T19:50:39Z</time>
  <course>7.09</course>
  <speed>0.0</speed>
  <fix>3d</fix>
</trkpt>
<trkpt lat="-27.274439" lon="151.290064">
  <ele>343.1</ele>
  <time>2026-09-01T19:50:39Z</time>
  <course>142.09</course>
  <speed>0.0</speed>
  <fix>3d</fix>
</trkpt>
<trkpt lat="-27.274439" lon="151.290064">
  <ele>343.1</ele>
  <time>2026-09-01T19:50:39Z</time>
  <course>7.09</course>
  <speed>0.0</speed>
  <fix>3d</fix>
</trkpt>
<trkpt lat="-27.274439" lon="151.290064">
  <ele>343.1</ele>
  <time>2026-09-01T19:50:39Z</time>
  <course>142.09</course>
  <speed>0.0</speed>
  <fix>3d</fix>
</trkpt>
<trkpt lat="-27.274439" lon="151.290064">
  <ele>343.1</ele>
  <time>2026-09-01T19:50:39Z</time>
  <course>7.09</course>
  <speed>0.0</speed>
  <fix>3d</fix>
</trkpt>
<trkpt lat="-27.274439" lon="151.290064">
  <ele>343.1</ele>
  <time>2026-09-01T19:50:39Z</time>
  <course>142.09</course>
  <speed>0.0</speed>
  <fix>3d</fix>
</trkpt>
<trkpt lat="-27.274439" lon="151.290064">
  <ele>343.1</ele>
  <time>2026-09-01T19:50:39Z</time>
  <course>7.09</course>
  <speed>0.0</speed>
  <fix>3d</fix>
</trkpt>
<trkpt lat="-27.274439" lon="151.290064">
  <ele>343.1</ele>
  <time>2026-09-01T19:50:39Z</time>
  <course>142.09</course>
  <speed>0.0</speed>
  <fix>3d</fix>
</trkpt>
<trkpt lat="-27.274439" lon="151.290064">
  <ele>343.1</ele>
  <time>2026-09-01T19:50:39Z</time>
  <course>7.09</course>
  <speed>0.0</speed>
  <fix>3d</fix>
</trkpt>
<trkpt lat="-27.274439" lon="151.290064">
  <ele>343.1</ele>
  <time>2026-09-01T19:50:39Z</time>
  <course>322.09</course>
  <speed>0.0</speed>
  <fix>3d</fix>
</trkpt>
<trkpt lat="-27.274439" lon="151.290064">
  <ele>343.1</ele>
  <time>2026-09-01T19:50:39Z</time>
  <course>7.09</course>
  <speed>0.0</speed>
  <fix>3d</fix>
</trkpt>
<trkpt lat="-27.274439" lon="151.290064">
  <ele>343.1</ele>
  <time>2026-09-01T19:50:39Z</time>
  <course>322.09</course>
  <speed>0.0</speed>
  <fix>3d</fix>
</trkpt>
<trkpt lat="-27.274439" lon="151.290064">
  <ele>343.1</ele>
  <time>2026-09-01T19:50:39Z</time>
  <course>7.09</course>
  <speed>0.0</speed>
  <fix>3d</fix>
</trkpt>
<trkpt lat="-27.274439" lon="151.290064">
  <ele>343.1</ele>
  <time>2026-09-01T19:50:39Z</time>
  <course>322.09</course>
  <speed>0.0</speed>
  <fix>3d</fix>
</trkpt>
<trkpt lat="-27.274439" lon="151.290064">
  <ele>343.1</ele>
  <time>2026-09-01T19:50:39Z</time>
  <course>7.09</course>
  <speed>0.0</speed>
  <fix>3d</fix>
</trkpt>
<trkpt lat="-27.274439" lon="151.290064">
  <ele>343.1</ele>
  <time>2026-09-01T19:50:39Z</time>
  <course>322.09</course>
  <speed>0.0</speed>
  <fix>3d</fix>
</trkpt>
<trkpt lat="-27.274439" lon="151.290064">
  <ele>343.1</ele>
  <time>2026-09-01T19:50:39Z</time>
  <course>7.09</course>
  <speed>0.0</speed>
  <fix>3d</fix>
</trkpt>
<trkpt lat="-27.274439" lon="151.290064">
  <ele>343.1</ele>
  <time>2026-09-01T19:50:39Z</time>
  <course>142.09</course>
  <speed>0.0</speed>
  <fix>3d</fix>
</trkpt>
<trkpt lat="-27.274439" lon="151.290064">
  <ele>343.1</ele>
  <time>2026-09-01T19:50:39Z</time>
  <course>7.09</course>
  <speed>0.0</speed>
  <fix>3d</fix>
</trkpt>
<trkpt lat="-27.274439" lon="151.290064">
  <ele>343.1</ele>
  <time>2026-09-01T19:50:39Z</time>
  <course>142.09</course>
  <speed>0.0</speed>
  <fix>3d</fix>
</trkpt>
<trkpt lat="-27.274439" lon="151.290064">
  <ele>343.1</ele>
  <time>2026-09-01T19:50:39Z</time>
  <course>7.09</course>
  <speed>0.0</speed>
  <fix>3d</fix>
</trkpt>
<trkpt lat="-27.274439" lon="151.290064">
  <ele>343.1</ele>
  <time>2026-09-01T19:50:39Z</time>
  <course>142.09</course>
  <speed>0.0</speed>
  <fix>3d</fix>
</trkpt>
<trkpt lat="-27.274439" lon="151.290064">
  <ele>343.1</ele>
  <time>2026-09-01T19:50:39Z</time>
  <course>7.09</course>
  <speed>0.0</speed>
  <fix>3d</fix>
</trkpt>
<trkpt lat="-27.274439" lon="151.290064">
  <ele>343.1</ele>
  <time>2026-09-01T19:50:39Z</time>
  <course>142.09</course>
  <speed>0.0</speed>
  <fix>3d</fix>
</trkpt>
<trkpt lat="-27.274439" lon="151.290064">
  <ele>343.1</ele>
  <time>2026-09-01T19:50:39Z</time>
  <course>7.09</course>
  <speed>0.0</speed>
  <fix>3d</fix>
</trkpt>
<trkpt lat="-27.274439" lon="151.290064">
  <ele>343.1</ele>
  <time>2026-09-01T19:50:39Z</time>
  <course>322.09</course>
  <speed>0.0</speed>
  <fix>3d</fix>
</trkpt>
<trkpt lat="-27.274439" lon="151.290064">
  <ele>343.1</ele>
  <time>2026-09-01T19:50:39Z</time>
  <course>7.09</course>
  <speed>0.0</speed>
  <fix>3d</fix>
</trkpt>
<trkpt lat="-27.274439" lon="151.290064">
  <ele>343.1</ele>
  <time>2026-09-01T19:50:39Z</time>
  <course>322.09</course>
  <speed>0.0</speed>
  <fix>3d</fix>
</trkpt>
<trkpt lat="-27.274439" lon="151.290064">
  <ele>343.1</ele>
  <time>2026-09-01T19:50:39Z</time>
  <course>7.09</course>
  <speed>0.0</speed>
  <fix>3d</fix>
</trkpt>
<trkpt lat="-27.274439" lon="151.290064">
  <ele>343.1</ele>
  <time>2026-09-01T19:50:39Z</time>
  <course>321.99</course>
  <speed>0.0</speed>
  <fix>3d</fix>
</trkpt>
<trkpt lat="-27.274439" lon="151.290064">
  <ele>343.1</ele>
  <time>2026-09-01T19:50:39Z</time>
  <course>7.09</course>
  <speed>0.0</speed>
  <fix>3d</fix>
</trkpt>
<trkpt lat="-27.274439" lon="151.290064">
  <ele>343.1</ele>
  <time>2026-09-01T19:50:39Z</time>
  <course>321.99</course>
  <speed>0.0</speed>
  <fix>3d</fix>
</trkpt>
<trkpt lat="-27.274439" lon="151.290064">
  <ele>343.1</ele>
  <time>2026-09-01T19:50:39Z</time>
  <course>7.09</course>
  <speed>0.0</speed>
  <fix>3d</fix>
</trkpt>
<trkpt lat="-27.274439" lon="151.290064">
  <ele>343.1</ele>
  <time>2026-09-01T19:50:39Z</time>
  <course>142.14</course>
  <speed>0.0</speed>
  <fix>3d</fix>
</trkpt>
<trkpt lat="-27.274439" lon="151.290064">
  <ele>343.1</ele>
  <time>2026-09-01T19:50:39Z</time>
  <course>7.09</course>
  <speed>0.0</speed>
  <fix>3d</fix>
</trkpt>
<trkpt lat="-27.274439" lon="151.290064">
  <ele>343.1</ele>
  <time>2026-09-01T19:50:39Z</time>
  <course>142.14</course>
  <speed>0.0</speed>
  <fix>3d</fix>
</trkpt>
<trkpt lat="-27.274439" lon="151.290064">
  <ele>343.1</ele>
  <time>2026-09-01T19:50:39Z</time>
  <course>7.09</course>
  <speed>0.0</speed>
  <fix>3d</fix>
</trkpt>
<trkpt lat="-27.274439" lon="151.290064">
  <ele>343.1</ele>
  <time>2026-09-01T19:50:39Z</time>
  <course>321.91</course>
  <speed>0.0</speed>
  <fix>3d</fix>
</trkpt>
<trkpt lat="-27.274439" lon="151.290064">
  <ele>343.1</ele>
  <time>2026-09-01T19:50:39Z</time>
  <course>7.09</course>
  <speed>0.0</speed>
  <fix>3d</fix>
</trkpt>
<trkpt lat="-27.274439" lon="151.290064">
  <ele>343.1</ele>
  <time>2026-09-01T19:50:39Z</time>
  <course>321.91</course>
  <speed>0.0</speed>
  <fix>3d</fix>
</trkpt>
<trkpt lat="-27.274439" lon="151.290064">
  <ele>343.1</ele>
  <time>2026-09-01T19:50:39Z</time>
  <course>7.09</course>
  <speed>0.0</speed>
  <fix>3d</fix>
</trkpt>
<trkpt lat="-27.274439" lon="151.290064">
  <ele>343.1</ele>
  <time>2026-09-01T19:50:39Z</time>
  <course>322.19</course>
  <speed>0.0</speed>
  <fix>3d</fix>
</trkpt>
<trkpt lat="-27.274439" lon="151.290064">
  <ele>343.1</ele>
  <time>2026-09-01T19:50:39Z</time>
  <course>7.09</course>
  <speed>0.0</speed>
  <fix>3d</fix>
</trkpt>
<trkpt lat="-27.274439" lon="151.290064">
  <ele>343.1</ele>
  <time>2026-09-01T19:50:39Z</time>
  <course>322.19</course>
  <speed>0.0</speed>
  <fix>3d</fix>
</trkpt>
<trkpt lat="-27.274439" lon="151.290064">
  <ele>343.1</ele>
  <time>2026-09-01T19:50:39Z</time>
  <course>7.09</course>
  <speed>0.0</speed>
  <fix>3d</fix>
</trkpt>
<trkpt lat="-27.274439" lon="151.290064">
  <ele>343.1</ele>
  <time>2026-09-01T19:50:39Z</time>
  <course>143.84</course>
  <speed>0.0</speed>
  <fix>3d</fix>
</trkpt>
<trkpt lat="-27.274439" lon="151.290064">
  <ele>343.1</ele>
  <time>2026-09-01T19:50:39Z</time>
  <course>7.09</course>
  <speed>0.0</speed>
  <fix>3d</fix>
</trkpt>
<trkpt lat="-27.274439" lon="151.290064">
  <ele>343.1</ele>
  <time>2026-09-01T19:50:39Z</time>
  <course>143.84</course>
  <speed>0.0</speed>
  <fix>3d</fix>
</trkpt>
<trkpt lat="-27.274439" lon="151.290064">
  <ele>343.1</ele>
  <time>2026-09-01T19:50:39Z</time>
  <course>7.09</course>
  <speed>0.0</speed>
  <fix>3d</fix>
</trkpt>
<trkpt lat="-27.274439" lon="151.290064">
  <ele>343.1</ele>
  <time>2026-09-01T19:50:39Z</time>
  <course>147.62</course>
  <speed>0.0</speed>
  <fix>3d</fix>
</trkpt>
<trkpt lat="-27.274439" lon="151.290064">
  <ele>343.1</ele>
  <time>2026-09-01T19:50:39Z</time>
  <course>7.09</course>
  <speed>0.0</speed>
  <fix>3d</fix>
</trkpt>
<trkpt lat="-27.274439" lon="151.290064">
  <ele>343.1</ele>
  <time>2026-09-01T19:50:39Z</time>
  <course>147.62</course>
  <speed>0.0</speed>
  <fix>3d</fix>
</trkpt>
<trkpt lat="-27.274439" lon="151.290064">
  <ele>343.1</ele>
  <time>2026-09-01T19:50:39Z</time>
  <course>7.09</course>
  <speed>0.0</speed>
  <fix>3d</fix>
</trkpt>
<trkpt lat="-27.274439" lon="151.290064">
  <ele>343.1</ele>
  <time>2026-09-01T19:50:39Z</time>
  <course>330.14</course>
  <speed>0.0</speed>
  <fix>3d</fix>
</trkpt>
<trkpt lat="-27.274439" lon="151.290064">
  <ele>343.1</ele>
  <time>2026-09-01T19:50:39Z</time>
  <course>7.09</course>
  <speed>0.0</speed>
  <fix>3d</fix>
</trkpt>
<trkpt lat="-27.274439" lon="151.290064">
  <ele>343.1</ele>
  <time>2026-09-01T19:50:39Z</time>
  <course>330.14</course>
  <speed>0.0</speed>
  <fix>3d</fix>
</trkpt>
<trkpt lat="-27.274439" lon="151.290064">
  <ele>343.1</ele>
  <time>2026-09-01T19:50:39Z</time>
  <course>7.09</course>
  <speed>0.0</speed>
  <fix>3d</fix>
</trkpt>
<trkpt lat="-27.274439" lon="151.290064">
  <ele>343.1</ele>
  <time>2026-09-01T19:50:39Z</time>
  <course>353.51</course>
  <speed>0.0</speed>
  <fix>3d</fix>
</trkpt>
<trkpt lat="-27.274439" lon="151.290064">
  <ele>343.1</ele>
  <time>2026-09-01T19:50:39Z</time>
  <course>7.09</course>
  <speed>0.0</speed>
  <fix>3d</fix>
</trkpt>
<trkpt lat="-27.274439" lon="151.290064">
  <ele>343.1</ele>
  <time>2026-09-01T19:50:39Z</time>
  <course>353.51</course>
  <speed>0.0</speed>
  <fix>3d</fix>
</trkpt>
<trkpt lat="-27.274439" lon="151.290064">
  <ele>343.1</ele>
  <time>2026-09-01T19:50:39Z</time>
  <course>7.09</course>
  <speed>0.0</speed>
  <fix>3d</fix>
</trkpt>
<trkpt lat="-27.274439" lon="151.290064">
  <ele>343.1</ele>
  <time>2026-09-01T19:50:39Z</time>
  <course>5.3</course>
  <speed>0.0</speed>
  <fix>3d</fix>
</trkpt>
<trkpt lat="-27.274439" lon="151.290064">
  <ele>343.1</ele>
  <time>2026-09-01T19:50:39Z</time>
  <course>7.09</course>
  <speed>0.0</speed>
  <fix>3d</fix>
</trkpt>
<trkpt lat="-27.274439" lon="151.290064">
  <ele>343.1</ele>
  <time>2026-09-01T19:50:39Z</time>
  <course>5.3</course>
  <speed>0.0</speed>
  <fix>3d</fix>
</trkpt>
<trkpt lat="-27.274439" lon="151.290064">
  <ele>343.1</ele>
  <time>2026-09-01T19:50:39Z</time>
  <course>7.09</course>
  <speed>0.0</speed>
  <fix>3d</fix>
</trkpt>
<trkpt lat="-27.274439" lon="151.290064">
  <ele>343.1</ele>
  <time>2026-09-01T19:50:39Z</time>
  <course>6.88</course>
  <speed>0.0</speed>
  <fix>3d</fix>
</trkpt>
<trkpt lat="-27.274439" lon="151.290064">
  <ele>343.1</ele>
  <time>2026-09-01T19:50:39Z</time>
  <course>7.09</course>
  <speed>0.0</speed>
  <fix>3d</fix>
</trkpt>
<trkpt lat="-27.274439" lon="151.290064">
  <ele>343.1</ele>
  <time>2026-09-01T19:50:39Z</time>
  <course>6.88</course>
  <speed>0.0</speed>
  <fix>3d</fix>
</trkpt>
<trkpt lat="-27.274439" lon="151.290064">
  <ele>343.1</ele>
  <time>2026-09-01T19:50:39Z</time>
  <course>7.09</course>
  <speed>0.0</speed>
  <fix>3d</fix>
</trkpt>
<trkpt lat="-27.274439" lon="151.290064">
  <ele>343.1</ele>
  <time>2026-09-01T19:50:39Z</time>
  <course>7.09</course>
  <speed>0.0</speed>
  <fix>3d</fix>
</trkpt>
<trkpt lat="-27.274439" lon="151.290064">
  <ele>343.1</ele>
  <time>2026-09-01T19:50:39Z</time>
  <course>7.09</course>
  <speed>0.0</speed>
  <fix>3d</fix>
</trkpt>
<trkpt lat="-27.274439" lon="151.290064">
  <ele>343.1</ele>
  <time>2026-09-01T19:50:39Z</time>
  <course>7.09</course>
  <speed>0.0</speed>
  <fix>3d</fix>
</trkpt>
<trkpt lat="-27.274439" lon="151.290064">
  <ele>343.1</ele>
  <time>2026-09-01T19:50:39Z</time>
  <course>7.09</course>
  <speed>0.0</speed>
  <fix>3d</fix>
</trkpt>
<trkpt lat="-27.274439" lon="151.290064">
  <ele>343.1</ele>
  <time>2026-09-01T19:50:39Z</time>
  <course>7.12</course>
  <speed>0.0</speed>
  <fix>3d</fix>
</trkpt>
<trkpt lat="-27.274439" lon="151.290064">
  <ele>343.1</ele>
  <time>2026-09-01T19:50:39Z</time>
  <course>7.09</course>
  <speed>0.0</speed>
  <fix>3d</fix>
</trkpt>
<trkpt lat="-27.274439" lon="151.290064">
  <ele>343.1</ele>
  <time>2026-09-01T19:50:39Z</time>
  <course>7.12</course>
  <speed>0.0</speed>
  <fix>3d</fix>
</trkpt>
<trkpt lat="-27.274439" lon="151.290064">
  <ele>343.1</ele>
  <time>2026-09-01T19:50:39Z</time>
  <course>7.09</course>
  <speed>0.0</speed>
  <fix>3d</fix>
</trkpt>
<trkpt lat="-27.274439" lon="151.290064">
  <ele>343.1</ele>
  <time>2026-09-01T19:50:39Z</time>
  <course>7.12</course>
  <speed>0.0</speed>
  <fix>3d</fix>
</trkpt>
<trkpt lat="-27.274439" lon="151.290064">
  <ele>343.1</ele>
  <time>2026-09-01T19:50:39Z</time>
  <course>7.09</course>
  <speed>0.0</speed>
  <fix>3d</fix>
</trkpt>
<trkpt lat="-27.274439" lon="151.290064">
  <ele>343.1</ele>
  <time>2026-09-01T19:50:39Z</time>
  <course>7.12</course>
  <speed>0.0</speed>
  <fix>3d</fix>
</trkpt>
<trkpt lat="-27.274439" lon="151.290064">
  <ele>343.1</ele>
  <time>2026-09-01T19:50:39Z</time>
  <course>7.09</course>
  <speed>0.0</speed>
  <fix>3d</fix>
</trkpt>
<trkpt lat="-27.274439" lon="151.290064">
  <ele>343.1</ele>
  <time>2026-09-01T19:50:39Z</time>
  <course>7.12</course>
  <speed>0.0</speed>
  <fix>3d</fix>
</trkpt>
<trkpt lat="-27.274439" lon="151.290064">
  <ele>343.1</ele>
  <time>2026-09-01T19:50:39Z</time>
  <course>7.09</course>
  <speed>0.0</speed>
  <fix>3d</fix>
</trkpt>
<trkpt lat="-27.274439" lon="151.290064">
  <ele>343.1</ele>
  <time>2026-09-01T19:50:39Z</time>
  <course>7.12</course>
  <speed>0.0</speed>
  <fix>3d</fix>
</trkpt>
<trkpt lat="-27.274439" lon="151.290064">
  <ele>343.1</ele>
  <time>2026-09-01T19:50:39Z</time>
  <course>7.09</course>
  <speed>0.0</speed>
  <fix>3d</fix>
</trkpt>
<trkpt lat="-27.274439" lon="151.290064">
  <ele>343.1</ele>
  <time>2026-09-01T19:50:39Z</time>
  <course>7.12</course>
  <speed>0.0</speed>
  <fix>3d</fix>
</trkpt>
<trkpt lat="-27.274439" lon="151.290064">
  <ele>343.1</ele>
  <time>2026-09-01T19:50:39Z</time>
  <course>7.09</course>
  <speed>0.0</speed>
  <fix>3d</fix>
</trkpt>
<trkpt lat="-27.274439" lon="151.290064">
  <ele>343.1</ele>
  <time>2026-09-01T19:50:39Z</time>
  <course>7.12</course>
  <speed>0.0</speed>
  <fix>3d</fix>
</trkpt>
<trkpt lat="-27.274439" lon="151.290064">
  <ele>343.1</ele>
  <time>2026-09-01T19:50:39Z</time>
  <course>7.09</course>
  <speed>0.0</speed>
  <fix>3d</fix>
</trkpt>
<trkpt lat="-27.274439" lon="151.290064">
  <ele>343.1</ele>
  <time>2026-09-01T19:50:39Z</time>
  <course>7.12</course>
  <speed>0.0</speed>
  <fix>3d</fix>
</trkpt>
<trkpt lat="-27.274439" lon="151.290064">
  <ele>343.1</ele>
  <time>2026-09-01T19:50:39Z</time>
  <course>7.09</course>
  <speed>0.0</speed>
  <fix>3d</fix>
</trkpt>
<trkpt lat="-27.274439" lon="151.290064">
  <ele>343.1</ele>
  <time>2026-09-01T19:50:39Z</time>
  <course>7.12</course>
  <speed>0.0</speed>
  <fix>3d</fix>
</trkpt>
<trkpt lat="-27.274439" lon="151.290064">
  <ele>343.1</ele>
  <time>2026-09-01T19:50:39Z</time>
  <course>7.09</course>
  <speed>0.0</speed>
  <fix>3d</fix>
</trkpt>
<trkpt lat="-27.274439" lon="151.290064">
  <ele>343.1</ele>
  <time>2026-09-01T19:50:39Z</time>
  <course>7.12</course>
  <speed>0.0</speed>
  <fix>3d</fix>
</trkpt>
<trkpt lat="-27.274439" lon="151.290064">
  <ele>343.1</ele>
  <time>2026-09-01T19:50:39Z</time>
  <course>7.09</course>
  <speed>0.0</speed>
  <fix>3d</fix>
</trkpt>
<trkpt lat="-27.274439" lon="151.290064">
  <ele>343.1</ele>
  <time>2026-09-01T19:50:39Z</time>
  <course>7.12</course>
  <speed>0.0</speed>
  <fix>3d</fix>
</trkpt>
<trkpt lat="-27.274439" lon="151.290064">
  <ele>343.1</ele>
  <time>2026-09-01T19:50:39Z</time>
  <course>7.09</course>
  <speed>0.0</speed>
  <fix>3d</fix>
</trkpt>
<trkpt lat="-27.274439" lon="151.290064">
  <ele>343.1</ele>
  <time>2026-09-01T19:50:39Z</time>
  <course>7.12</course>
  <speed>0.0</speed>
  <fix>3d</fix>
</trkpt>
<trkpt lat="-27.274439" lon="151.290064">
  <ele>343.1</ele>
  <time>2026-09-01T19:50:39Z</time>
  <course>7.09</course>
  <speed>0.0</speed>
  <fix>3d</fix>
</trkpt>
<trkpt lat="-27.274439" lon="151.290064">
  <ele>343.1</ele>
  <time>2026-09-01T19:50:39Z</time>
  <course>7.12</course>
  <speed>0.0</speed>
  <fix>3d</fix>
</trkpt>
<trkpt lat="-27.274439" lon="151.290064">
  <ele>343.1</ele>
  <time>2026-09-01T19:50:39Z</time>
  <course>7.09</course>
  <speed>0.0</speed>
  <fix>3d</fix>
</trkpt>
<trkpt lat="-27.274439" lon="151.290064">
  <ele>343.1</ele>
  <time>2026-09-01T19:50:39Z</time>
  <course>7.12</course>
  <speed>0.0</speed>
  <fix>3d</fix>
</trkpt>
<trkpt lat="-27.274439" lon="151.290064">
  <ele>343.1</ele>
  <time>2026-09-01T19:50:39Z</time>
  <course>7.09</course>
  <speed>0.0</speed>
  <fix>3d</fix>
</trkpt>
<trkpt lat="-27.274439" lon="151.290064">
  <ele>343.1</ele>
  <time>2026-09-01T19:50:39Z</time>
  <course>7.12</course>
  <speed>0.0</speed>
  <fix>3d</fix>
</trkpt>
<trkpt lat="-27.274439" lon="151.290064">
  <ele>343.1</ele>
  <time>2026-09-01T19:50:39Z</time>
  <course>7.09</course>
  <speed>0.0</speed>
  <fix>3d</fix>
</trkpt>
<trkpt lat="-27.274439" lon="151.290064">
  <ele>343.1</ele>
  <time>2026-09-01T19:50:39Z</time>
  <course>7.12</course>
  <speed>0.0</speed>
  <fix>3d</fix>
</trkpt>
<trkpt lat="-27.274439" lon="151.290064">
  <ele>343.1</ele>
  <time>2026-09-01T19:50:39Z</time>
  <course>7.09</course>
  <speed>0.0</speed>
  <fix>3d</fix>
</trkpt>
<trkpt lat="-27.274439" lon="151.290064">
  <ele>343.1</ele>
  <time>2026-09-01T19:50:39Z</time>
  <course>7.12</course>
  <speed>0.0</speed>
  <fix>3d</fix>
</trkpt>
<trkpt lat="-27.274439" lon="151.290064">
  <ele>343.1</ele>
  <time>2026-09-01T19:50:39Z</time>
  <course>7.09</course>
  <speed>0.0</speed>
  <fix>3d</fix>
</trkpt>
<trkpt lat="-27.274439" lon="151.290064">
  <ele>343.1</ele>
  <time>2026-09-01T19:50:39Z</time>
  <course>7.12</course>
  <speed>0.0</speed>
  <fix>3d</fix>
</trkpt>
<trkpt lat="-27.274439" lon="151.290064">
  <ele>343.1</ele>
  <time>2026-09-01T19:50:39Z</time>
  <course>7.09</course>
  <speed>0.0</speed>
  <fix>3d</fix>
</trkpt>
<trkpt lat="-27.274439" lon="151.290064">
  <ele>343.1</ele>
  <time>2026-09-01T19:50:39Z</time>
  <course>7.12</course>
  <speed>0.0</speed>
  <fix>3d</fix>
</trkpt>
<trkpt lat="-27.274439" lon="151.290064">
  <ele>343.1</ele>
  <time>2026-09-01T19:50:39Z</time>
  <course>7.09</course>
  <speed>0.0</speed>
  <fix>3d</fix>
</trkpt>
<trkpt lat="-27.274439" lon="151.290064">
  <ele>343.1</ele>
  <time>2026-09-01T19:50:39Z</time>
  <course>7.12</course>
  <speed>0.0</speed>
  <fix>3d</fix>
</trkpt>
<trkpt lat="-27.274439" lon="151.290064">
  <ele>343.1</ele>
  <time>2026-09-01T19:50:39Z</time>
  <course>7.09</course>
  <speed>0.0</speed>
  <fix>3d</fix>
</trkpt>
<trkpt lat="-27.274439" lon="151.290064">
  <ele>343.1</ele>
  <time>2026-09-01T19:50:39Z</time>
  <course>7.12</course>
  <speed>0.0</speed>
  <fix>3d</fix>
</trkpt>
<trkpt lat="-27.274439" lon="151.290064">
  <ele>343.1</ele>
  <time>2026-09-01T19:50:39Z</time>
  <course>7.09</course>
  <speed>0.0</speed>
  <fix>3d</fix>
</trkpt>
<trkpt lat="-27.274439" lon="151.290064">
  <ele>343.1</ele>
  <time>2026-09-01T19:50:39Z</time>
  <course>7.12</course>
  <speed>0.0</speed>
  <fix>3d</fix>
</trkpt>
<trkpt lat="-27.274439" lon="151.290064">
  <ele>343.1</ele>
  <time>2026-09-01T19:50:39Z</time>
  <course>7.09</course>
  <speed>0.0</speed>
  <fix>3d</fix>
</trkpt>
<trkpt lat="-27.274439" lon="151.290064">
  <ele>343.1</ele>
  <time>2026-09-01T19:50:39Z</time>
  <course>7.12</course>
  <speed>0.0</speed>
  <fix>3d</fix>
</trkpt>
<trkpt lat="-27.274439" lon="151.290064">
  <ele>343.1</ele>
  <time>2026-09-01T19:50:39Z</time>
  <course>7.09</course>
  <speed>0.0</speed>
  <fix>3d</fix>
</trkpt>
<trkpt lat="-27.274439" lon="151.290064">
  <ele>343.1</ele>
  <time>2026-09-01T19:50:39Z</time>
  <course>7.12</course>
  <speed>0.0</speed>
  <fix>3d</fix>
</trkpt>
<trkpt lat="-27.274439" lon="151.290064">
  <ele>343.1</ele>
  <time>2026-09-01T19:50:39Z</time>
  <course>7.09</course>
  <speed>0.0</speed>
  <fix>3d</fix>
</trkpt>
<trkpt lat="-27.274439" lon="151.290064">
  <ele>343.1</ele>
  <time>2026-09-01T19:50:39Z</time>
  <course>7.12</course>
  <speed>0.0</speed>
  <fix>3d</fix>
</trkpt>
<trkpt lat="-27.274439" lon="151.290064">
  <ele>343.1</ele>
  <time>2026-09-01T19:50:39Z</time>
  <course>7.09</course>
  <speed>0.0</speed>
  <fix>3d</fix>
</trkpt>
<trkpt lat="-27.274439" lon="151.290064">
  <ele>343.1</ele>
  <time>2026-09-01T19:50:39Z</time>
  <course>7.12</course>
  <speed>0.0</speed>
  <fix>3d</fix>
</trkpt>
<trkpt lat="-27.274439" lon="151.290064">
  <ele>343.1</ele>
  <time>2026-09-01T19:50:39Z</time>
  <course>7.09</course>
  <speed>0.0</speed>
  <fix>3d</fix>
</trkpt>
<trkpt lat="-27.274439" lon="151.290064">
  <ele>343.1</ele>
  <time>2026-09-01T19:50:39Z</time>
  <course>7.12</course>
  <speed>0.0</speed>
  <fix>3d</fix>
</trkpt>
<trkpt lat="-27.274439" lon="151.290064">
  <ele>343.1</ele>
  <time>2026-09-01T19:50:39Z</time>
  <course>7.09</course>
  <speed>0.0</speed>
  <fix>3d</fix>
</trkpt>
<trkpt lat="-27.274439" lon="151.290064">
  <ele>343.1</ele>
  <time>2026-09-01T19:50:39Z</time>
  <course>7.12</course>
  <speed>0.0</speed>
  <fix>3d</fix>
</trkpt>
<trkpt lat="-27.274439" lon="151.290064">
  <ele>343.1</ele>
  <time>2026-09-01T19:50:39Z</time>
  <course>7.09</course>
  <speed>0.0</speed>
  <fix>3d</fix>
</trkpt>
<trkpt lat="-27.274439" lon="151.290064">
  <ele>343.1</ele>
  <time>2026-09-01T19:50:39Z</time>
  <course>7.12</course>
  <speed>0.0</speed>
  <fix>3d</fix>
</trkpt>
<trkpt lat="-27.274439" lon="151.290064">
  <ele>343.1</ele>
  <time>2026-09-01T19:50:39Z</time>
  <course>7.09</course>
  <speed>0.0</speed>
  <fix>3d</fix>
</trkpt>
<trkpt lat="-27.274439" lon="151.290064">
  <ele>343.1</ele>
  <time>2026-09-01T19:50:39Z</time>
  <course>7.12</course>
  <speed>0.0</speed>
  <fix>3d</fix>
</trkpt>
<trkpt lat="-27.274439" lon="151.290064">
  <ele>343.1</ele>
  <time>2026-09-01T19:50:39Z</time>
  <course>7.09</course>
  <speed>0.0</speed>
  <fix>3d</fix>
</trkpt>
<trkpt lat="-27.274439" lon="151.290064">
  <ele>343.1</ele>
  <time>2026-09-01T19:50:39Z</time>
  <course>7.12</course>
  <speed>0.0</speed>
  <fix>3d</fix>
</trkpt>
<trkpt lat="-27.274439" lon="151.290064">
  <ele>343.1</ele>
  <time>2026-09-01T19:50:39Z</time>
  <course>7.09</course>
  <speed>0.0</speed>
  <fix>3d</fix>
</trkpt>
<trkpt lat="-27.274439" lon="151.290064">
  <ele>343.1</ele>
  <time>2026-09-01T19:50:39Z</time>
  <course>7.12</course>
  <speed>0.0</speed>
  <fix>3d</fix>
</trkpt>
<trkpt lat="-27.274439" lon="151.290064">
  <ele>343.1</ele>
  <time>2026-09-01T19:50:39Z</time>
  <course>7.09</course>
  <speed>0.0</speed>
  <fix>3d</fix>
</trkpt>
<trkpt lat="-27.274439" lon="151.290064">
  <ele>343.1</ele>
  <time>2026-09-01T19:50:39Z</time>
  <course>7.12</course>
  <speed>0.0</speed>
  <fix>3d</fix>
</trkpt>
<trkpt lat="-27.274439" lon="151.290064">
  <ele>343.1</ele>
  <time>2026-09-01T19:50:39Z</time>
  <course>7.09</course>
  <speed>0.0</speed>
  <fix>3d</fix>
</trkpt>
<trkpt lat="-27.274439" lon="151.290064">
  <ele>343.1</ele>
  <time>2026-09-01T19:50:39Z</time>
  <course>7.12</course>
  <speed>0.0</speed>
  <fix>3d</fix>
</trkpt>
<trkpt lat="-27.274439" lon="151.290064">
  <ele>343.1</ele>
  <time>2026-09-01T19:50:39Z</time>
  <course>7.09</course>
  <speed>0.0</speed>
  <fix>3d</fix>
</trkpt>
<trkpt lat="-27.274439" lon="151.290064">
  <ele>343.1</ele>
  <time>2026-09-01T19:50:39Z</time>
  <course>7.12</course>
  <speed>0.0</speed>
  <fix>3d</fix>
</trkpt>
<trkpt lat="-27.274439" lon="151.290064">
  <ele>343.1</ele>
  <time>2026-09-01T19:50:39Z</time>
  <course>7.09</course>
  <speed>0.0</speed>
  <fix>3d</fix>
</trkpt>
<trkpt lat="-27.274439" lon="151.290064">
  <ele>343.1</ele>
  <time>2026-09-01T19:50:39Z</time>
  <course>7.12</course>
  <speed>0.0</speed>
  <fix>3d</fix>
</trkpt>
<trkpt lat="-27.274439" lon="151.290064">
  <ele>343.1</ele>
  <time>2026-09-01T19:50:39Z</time>
  <course>7.09</course>
  <speed>0.0</speed>
  <fix>3d</fix>
</trkpt>
<trkpt lat="-27.274439" lon="151.290064">
  <ele>343.1</ele>
  <time>2026-09-01T19:50:39Z</time>
  <course>7.12</course>
  <speed>0.0</speed>
  <fix>3d</fix>
</trkpt>
<trkpt lat="-27.274439" lon="151.290064">
  <ele>343.1</ele>
  <time>2026-09-01T19:50:39Z</time>
  <course>7.09</course>
  <speed>0.0</speed>
  <fix>3d</fix>
</trkpt>
<trkpt lat="-27.274439" lon="151.290064">
  <ele>343.1</ele>
  <time>2026-09-01T19:50:39Z</time>
  <course>7.12</course>
  <speed>0.0</speed>
  <fix>3d</fix>
</trkpt>
<trkpt lat="-27.274439" lon="151.290064">
  <ele>343.1</ele>
  <time>2026-09-01T19:50:39Z</time>
  <course>7.09</course>
  <speed>0.0</speed>
  <fix>3d</fix>
</trkpt>
<trkpt lat="-27.274439" lon="151.290064">
  <ele>343.1</ele>
  <time>2026-09-01T19:50:39Z</time>
  <course>7.12</course>
  <speed>0.0</speed>
  <fix>3d</fix>
</trkpt>
<trkpt lat="-27.274439" lon="151.290064">
  <ele>343.1</ele>
  <time>2026-09-01T19:50:39Z</time>
  <course>7.09</course>
  <speed>0.0</speed>
  <fix>3d</fix>
</trkpt>
<trkpt lat="-27.274439" lon="151.290064">
  <ele>343.1</ele>
  <time>2026-09-01T19:50:39Z</time>
  <course>7.12</course>
  <speed>0.0</speed>
  <fix>3d</fix>
</trkpt>
<trkpt lat="-27.274439" lon="151.290064">
  <ele>343.1</ele>
  <time>2026-09-01T19:50:39Z</time>
  <course>7.09</course>
  <speed>0.0</speed>
  <fix>3d</fix>
</trkpt>
<trkpt lat="-27.274439" lon="151.290064">
  <ele>343.1</ele>
  <time>2026-09-01T19:50:39Z</time>
  <course>7.12</course>
  <speed>0.0</speed>
  <fix>3d</fix>
</trkpt>
<trkpt lat="-27.274439" lon="151.290064">
  <ele>343.1</ele>
  <time>2026-09-01T19:50:40Z</time>
  <course>7.09</course>
  <speed>0.0</speed>
  <fix>3d</fix>
</trkpt>
<trkpt lat="-27.274439" lon="151.290064">
  <ele>343.1</ele>
  <time>2026-09-01T19:50:40Z</time>
  <course>7.12</course>
  <speed>0.0</speed>
  <fix>3d</fix>
</trkpt>
<trkpt lat="-27.274439" lon="151.290064">
  <ele>343.1</ele>
  <time>2026-09-01T19:50:40Z</time>
  <course>7.09</course>
  <speed>0.0</speed>
  <fix>3d</fix>
</trkpt>
<trkpt lat="-27.274439" lon="151.290064">
  <ele>343.1</ele>
  <time>2026-09-01T19:50:40Z</time>
  <course>7.12</course>
  <speed>0.0</speed>
  <fix>3d</fix>
</trkpt>
<trkpt lat="-27.274439" lon="151.290064">
  <ele>343.1</ele>
  <time>2026-09-01T19:50:40Z</time>
  <course>7.09</course>
  <speed>0.0</speed>
  <fix>3d</fix>
</trkpt>
<trkpt lat="-27.274439" lon="151.290064">
  <ele>343.1</ele>
  <time>2026-09-01T19:50:40Z</time>
  <course>7.12</course>
  <speed>0.0</speed>
  <fix>3d</fix>
</trkpt>
<trkpt lat="-27.274439" lon="151.290064">
  <ele>343.1</ele>
  <time>2026-09-01T19:50:40Z</time>
  <course>7.09</course>
  <speed>0.0</speed>
  <fix>3d</fix>
</trkpt>
<trkpt lat="-27.274439" lon="151.290064">
  <ele>343.1</ele>
  <time>2026-09-01T19:50:40Z</time>
  <course>7.12</course>
  <speed>0.0</speed>
  <fix>3d</fix>
</trkpt>
<trkpt lat="-27.274439" lon="151.290064">
  <ele>343.1</ele>
  <time>2026-09-01T19:50:40Z</time>
  <course>7.09</course>
  <speed>0.0</speed>
  <fix>3d</fix>
</trkpt>
<trkpt lat="-27.274439" lon="151.290064">
  <ele>343.1</ele>
  <time>2026-09-01T19:50:40Z</time>
  <course>7.12</course>
  <speed>0.0</speed>
  <fix>3d</fix>
</trkpt>
<trkpt lat="-27.274439" lon="151.290064">
  <ele>343.1</ele>
  <time>2026-09-01T19:50:40Z</time>
  <course>7.09</course>
  <speed>0.0</speed>
  <fix>3d</fix>
</trkpt>
<trkpt lat="-27.274439" lon="151.290064">
  <ele>343.1</ele>
  <time>2026-09-01T19:50:40Z</time>
  <course>7.12</course>
  <speed>0.0</speed>
  <fix>3d</fix>
</trkpt>
<trkpt lat="-27.274439" lon="151.290064">
  <ele>343.1</ele>
  <time>2026-09-01T19:50:40Z</time>
  <course>7.09</course>
  <speed>0.0</speed>
  <fix>3d</fix>
</trkpt>
<trkpt lat="-27.274439" lon="151.290064">
  <ele>343.1</ele>
  <time>2026-09-01T19:50:40Z</time>
  <course>7.12</course>
  <speed>0.0</speed>
  <fix>3d</fix>
</trkpt>
<trkpt lat="-27.274439" lon="151.290064">
  <ele>343.1</ele>
  <time>2026-09-01T19:50:40Z</time>
  <course>7.09</course>
  <speed>0.0</speed>
  <fix>3d</fix>
</trkpt>
<trkpt lat="-27.274439" lon="151.290064">
  <ele>343.1</ele>
  <time>2026-09-01T19:50:40Z</time>
  <course>7.12</course>
  <speed>0.0</speed>
  <fix>3d</fix>
</trkpt>
<trkpt lat="-27.274439" lon="151.290064">
  <ele>343.1</ele>
  <time>2026-09-01T19:50:40Z</time>
  <course>7.09</course>
  <speed>0.0</speed>
  <fix>3d</fix>
</trkpt>
<trkpt lat="-27.274439" lon="151.290064">
  <ele>343.1</ele>
  <time>2026-09-01T19:50:40Z</time>
  <course>7.12</course>
  <speed>0.0</speed>
  <fix>3d</fix>
</trkpt>
<trkpt lat="-27.274439" lon="151.290064">
  <ele>343.1</ele>
  <time>2026-09-01T19:50:40Z</time>
  <course>7.09</course>
  <speed>0.0</speed>
  <fix>3d</fix>
</trkpt>
<trkpt lat="-27.274439" lon="151.290064">
  <ele>343.1</ele>
  <time>2026-09-01T19:50:40Z</time>
  <course>7.12</course>
  <speed>0.0</speed>
  <fix>3d</fix>
</trkpt>
<trkpt lat="-27.274439" lon="151.290064">
  <ele>343.1</ele>
  <time>2026-09-01T19:50:40Z</time>
  <course>7.09</course>
  <speed>0.0</speed>
  <fix>3d</fix>
</trkpt>
<trkpt lat="-27.274439" lon="151.290064">
  <ele>343.1</ele>
  <time>2026-09-01T19:50:40Z</time>
  <course>7.12</course>
  <speed>0.0</speed>
  <fix>3d</fix>
</trkpt>
<trkpt lat="-27.274439" lon="151.290064">
  <ele>343.1</ele>
  <time>2026-09-01T19:50:40Z</time>
  <course>7.09</course>
  <speed>0.0</speed>
  <fix>3d</fix>
</trkpt>
<trkpt lat="-27.274439" lon="151.290064">
  <ele>343.1</ele>
  <time>2026-09-01T19:50:40Z</time>
  <course>7.12</course>
  <speed>0.0</speed>
  <fix>3d</fix>
</trkpt>
<trkpt lat="-27.274439" lon="151.290064">
  <ele>343.1</ele>
  <time>2026-09-01T19:50:40Z</time>
  <course>7.09</course>
  <speed>0.0</speed>
  <fix>3d</fix>
</trkpt>
<trkpt lat="-27.274439" lon="151.290064">
  <ele>343.1</ele>
  <time>2026-09-01T19:50:40Z</time>
  <course>7.12</course>
  <speed>0.0</speed>
  <fix>3d</fix>
</trkpt>
<trkpt lat="-27.274439" lon="151.290064">
  <ele>343.1</ele>
  <time>2026-09-01T19:50:40Z</time>
  <course>7.09</course>
  <speed>0.0</speed>
  <fix>3d</fix>
</trkpt>
<trkpt lat="-27.274439" lon="151.290064">
  <ele>343.1</ele>
  <time>2026-09-01T19:50:40Z</time>
  <course>7.12</course>
  <speed>0.0</speed>
  <fix>3d</fix>
</trkpt>
<trkpt lat="-27.274439" lon="151.290064">
  <ele>343.1</ele>
  <time>2026-09-01T19:50:40Z</time>
  <course>7.09</course>
  <speed>0.0</speed>
  <fix>3d</fix>
</trkpt>
<trkpt lat="-27.274439" lon="151.290064">
  <ele>343.1</ele>
  <time>2026-09-01T19:50:40Z</time>
  <course>7.12</course>
  <speed>0.0</speed>
  <fix>3d</fix>
</trkpt>
<trkpt lat="-27.274439" lon="151.290064">
  <ele>343.1</ele>
  <time>2026-09-01T19:50:40Z</time>
  <course>7.09</course>
  <speed>0.0</speed>
  <fix>3d</fix>
</trkpt>
<trkpt lat="-27.274439" lon="151.290064">
  <ele>343.1</ele>
  <time>2026-09-01T19:50:40Z</time>
  <course>7.12</course>
  <speed>0.0</speed>
  <fix>3d</fix>
</trkpt>
<trkpt lat="-27.274439" lon="151.290064">
  <ele>343.1</ele>
  <time>2026-09-01T19:50:40Z</time>
  <course>7.09</course>
  <speed>0.0</speed>
  <fix>3d</fix>
</trkpt>
<trkpt lat="-27.274439" lon="151.290064">
  <ele>343.1</ele>
  <time>2026-09-01T19:50:40Z</time>
  <course>7.12</course>
  <speed>0.0</speed>
  <fix>3d</fix>
</trkpt>
<trkpt lat="-27.274439" lon="151.290064">
  <ele>343.1</ele>
  <time>2026-09-01T19:50:40Z</time>
  <course>7.09</course>
  <speed>0.0</speed>
  <fix>3d</fix>
</trkpt>
<trkpt lat="-27.274439" lon="151.290064">
  <ele>343.1</ele>
  <time>2026-09-01T19:50:40Z</time>
  <course>7.12</course>
  <speed>0.0</speed>
  <fix>3d</fix>
</trkpt>
<trkpt lat="-27.274439" lon="151.290064">
  <ele>343.1</ele>
  <time>2026-09-01T19:50:40Z</time>
  <course>7.09</course>
  <speed>0.0</speed>
  <fix>3d</fix>
</trkpt>
<trkpt lat="-27.274439" lon="151.290064">
  <ele>343.1</ele>
  <time>2026-09-01T19:50:40Z</time>
  <course>7.12</course>
  <speed>0.0</speed>
  <fix>3d</fix>
</trkpt>
<trkpt lat="-27.274439" lon="151.290064">
  <ele>343.1</ele>
  <time>2026-09-01T19:50:40Z</time>
  <course>7.09</course>
  <speed>0.0</speed>
  <fix>3d</fix>
</trkpt>
<trkpt lat="-27.274439" lon="151.290064">
  <ele>343.1</ele>
  <time>2026-09-01T19:50:40Z</time>
  <course>7.12</course>
  <speed>0.0</speed>
  <fix>3d</fix>
</trkpt>
<trkpt lat="-27.274439" lon="151.290064">
  <ele>343.1</ele>
  <time>2026-09-01T19:50:40Z</time>
  <course>7.09</course>
  <speed>0.0</speed>
  <fix>3d</fix>
</trkpt>
<trkpt lat="-27.274439" lon="151.290064">
  <ele>343.1</ele>
  <time>2026-09-01T19:50:40Z</time>
  <course>7.12</course>
  <speed>0.0</speed>
  <fix>3d</fix>
</trkpt>
<trkpt lat="-27.274439" lon="151.290064">
  <ele>343.1</ele>
  <time>2026-09-01T19:50:40Z</time>
  <course>7.09</course>
  <speed>0.0</speed>
  <fix>3d</fix>
</trkpt>
<trkpt lat="-27.274439" lon="151.290064">
  <ele>343.1</ele>
  <time>2026-09-01T19:50:40Z</time>
  <course>7.12</course>
  <speed>0.0</speed>
  <fix>3d</fix>
</trkpt>
<trkpt lat="-27.274439" lon="151.290064">
  <ele>343.1</ele>
  <time>2026-09-01T19:50:40Z</time>
  <course>7.09</course>
  <speed>0.0</speed>
  <fix>3d</fix>
</trkpt>
<trkpt lat="-27.274439" lon="151.290064">
  <ele>343.1</ele>
  <time>2026-09-01T19:50:40Z</time>
  <course>7.12</course>
  <speed>0.0</speed>
  <fix>3d</fix>
</trkpt>
<trkpt lat="-27.274439" lon="151.290064">
  <ele>343.1</ele>
  <time>2026-09-01T19:50:40Z</time>
  <course>7.09</course>
  <speed>0.0</speed>
  <fix>3d</fix>
</trkpt>
<trkpt lat="-27.274439" lon="151.290064">
  <ele>343.1</ele>
  <time>2026-09-01T19:50:40Z</time>
  <course>7.12</course>
  <speed>0.0</speed>
  <fix>3d</fix>
</trkpt>
<trkpt lat="-27.274439" lon="151.290064">
  <ele>343.1</ele>
  <time>2026-09-01T19:50:40Z</time>
  <course>7.09</course>
  <speed>0.0</speed>
  <fix>3d</fix>
</trkpt>
<trkpt lat="-27.274439" lon="151.290064">
  <ele>343.1</ele>
  <time>2026-09-01T19:50:40Z</time>
  <course>7.12</course>
  <speed>0.0</speed>
  <fix>3d</fix>
</trkpt>
<trkpt lat="-27.274439" lon="151.290064">
  <ele>343.1</ele>
  <time>2026-09-01T19:50:40Z</time>
  <course>7.09</course>
  <speed>0.0</speed>
  <fix>3d</fix>
</trkpt>
<trkpt lat="-27.274439" lon="151.290064">
  <ele>343.1</ele>
  <time>2026-09-01T19:50:40Z</time>
  <course>7.12</course>
  <speed>0.0</speed>
  <fix>3d</fix>
</trkpt>
<trkpt lat="-27.274439" lon="151.290064">
  <ele>343.1</ele>
  <time>2026-09-01T19:50:40Z</time>
  <course>7.09</course>
  <speed>0.0</speed>
  <fix>3d</fix>
</trkpt>
<trkpt lat="-27.274439" lon="151.290064">
  <ele>343.1</ele>
  <time>2026-09-01T19:50:40Z</time>
  <course>7.12</course>
  <speed>0.0</speed>
  <fix>3d</fix>
</trkpt>
<trkpt lat="-27.274439" lon="151.290064">
  <ele>343.1</ele>
  <time>2026-09-01T19:50:40Z</time>
  <course>7.09</course>
  <speed>0.0</speed>
  <fix>3d</fix>
</trkpt>
<trkpt lat="-27.274439" lon="151.290064">
  <ele>343.1</ele>
  <time>2026-09-01T19:50:40Z</time>
  <course>7.12</course>
  <speed>0.0</speed>
  <fix>3d</fix>
</trkpt>
<trkpt lat="-27.274439" lon="151.290064">
  <ele>343.1</ele>
  <time>2026-09-01T19:50:40Z</time>
  <course>7.09</course>
  <speed>0.0</speed>
  <fix>3d</fix>
</trkpt>
<trkpt lat="-27.274439" lon="151.290064">
  <ele>343.1</ele>
  <time>2026-09-01T19:50:40Z</time>
  <course>7.12</course>
  <speed>0.0</speed>
  <fix>3d</fix>
</trkpt>
<trkpt lat="-27.274439" lon="151.290064">
  <ele>343.1</ele>
  <time>2026-09-01T19:50:40Z</time>
  <course>7.09</course>
  <speed>0.0</speed>
  <fix>3d</fix>
</trkpt>
<trkpt lat="-27.274439" lon="151.290064">
  <ele>343.1</ele>
  <time>2026-09-01T19:50:40Z</time>
  <course>7.12</course>
  <speed>0.0</speed>
  <fix>3d</fix>
</trkpt>
<trkpt lat="-27.274439" lon="151.290064">
  <ele>343.1</ele>
  <time>2026-09-01T19:50:40Z</time>
  <course>7.09</course>
  <speed>0.0</speed>
  <fix>3d</fix>
</trkpt>
<trkpt lat="-27.274439" lon="151.290064">
  <ele>343.1</ele>
  <time>2026-09-01T19:50:40Z</time>
  <course>7.12</course>
  <speed>0.0</speed>
  <fix>3d</fix>
</trkpt>
<trkpt lat="-27.274439" lon="151.290064">
  <ele>343.1</ele>
  <time>2026-09-01T19:50:40Z</time>
  <course>7.09</course>
  <speed>0.0</speed>
  <fix>3d</fix>
</trkpt>
<trkpt lat="-27.274439" lon="151.290064">
  <ele>343.1</ele>
  <time>2026-09-01T19:50:40Z</time>
  <course>7.12</course>
  <speed>0.0</speed>
  <fix>3d</fix>
</trkpt>
<trkpt lat="-27.274439" lon="151.290064">
  <ele>343.1</ele>
  <time>2026-09-01T19:50:40Z</time>
  <course>7.09</course>
  <speed>0.0</speed>
  <fix>3d</fix>
</trkpt>
<trkpt lat="-27.274439" lon="151.290064">
  <ele>343.1</ele>
  <time>2026-09-01T19:50:40Z</time>
  <course>7.12</course>
  <speed>0.0</speed>
  <fix>3d</fix>
</trkpt>
<trkpt lat="-27.274439" lon="151.290064">
  <ele>343.1</ele>
  <time>2026-09-01T19:50:40Z</time>
  <course>7.09</course>
  <speed>0.0</speed>
  <fix>3d</fix>
</trkpt>
<trkpt lat="-27.274439" lon="151.290064">
  <ele>343.1</ele>
  <time>2026-09-01T19:50:40Z</time>
  <course>7.12</course>
  <speed>0.0</speed>
  <fix>3d</fix>
</trkpt>
<trkpt lat="-27.274439" lon="151.290064">
  <ele>343.1</ele>
  <time>2026-09-01T19:50:40Z</time>
  <course>7.09</course>
  <speed>0.0</speed>
  <fix>3d</fix>
</trkpt>
<trkpt lat="-27.274439" lon="151.290064">
  <ele>343.1</ele>
  <time>2026-09-01T19:50:40Z</time>
  <course>7.12</course>
  <speed>0.0</speed>
  <fix>3d</fix>
</trkpt>
<trkpt lat="-27.274439" lon="151.290064">
  <ele>343.1</ele>
  <time>2026-09-01T19:50:40Z</time>
  <course>7.09</course>
  <speed>0.0</speed>
  <fix>3d</fix>
</trkpt>
<trkpt lat="-27.274439" lon="151.290064">
  <ele>343.1</ele>
  <time>2026-09-01T19:50:40Z</time>
  <course>7.12</course>
  <speed>0.0</speed>
  <fix>3d</fix>
</trkpt>
<trkpt lat="-27.274439" lon="151.290064">
  <ele>343.1</ele>
  <time>2026-09-01T19:50:40Z</time>
  <course>7.09</course>
  <speed>0.0</speed>
  <fix>3d</fix>
</trkpt>
<trkpt lat="-27.274439" lon="151.290064">
  <ele>343.1</ele>
  <time>2026-09-01T19:50:40Z</time>
  <course>7.12</course>
  <speed>0.0</speed>
  <fix>3d</fix>
</trkpt>
<trkpt lat="-27.274439" lon="151.290064">
  <ele>343.1</ele>
  <time>2026-09-01T19:50:40Z</time>
  <course>7.09</course>
  <speed>0.0</speed>
  <fix>3d</fix>
</trkpt>
<trkpt lat="-27.274439" lon="151.290064">
  <ele>343.1</ele>
  <time>2026-09-01T19:50:40Z</time>
  <course>7.12</course>
  <speed>0.0</speed>
  <fix>3d</fix>
</trkpt>
<trkpt lat="-27.274439" lon="151.290064">
  <ele>343.1</ele>
  <time>2026-09-01T19:50:40Z</time>
  <course>7.09</course>
  <speed>0.0</speed>
  <fix>3d</fix>
</trkpt>
<trkpt lat="-27.274439" lon="151.290064">
  <ele>343.1</ele>
  <time>2026-09-01T19:50:40Z</time>
  <course>7.12</course>
  <speed>0.0</speed>
  <fix>3d</fix>
</trkpt>
<trkpt lat="-27.274439" lon="151.290064">
  <ele>343.1</ele>
  <time>2026-09-01T19:50:40Z</time>
  <course>7.09</course>
  <speed>0.0</speed>
  <fix>3d</fix>
</trkpt>
<trkpt lat="-27.274439" lon="151.290064">
  <ele>343.1</ele>
  <time>2026-09-01T19:50:40Z</time>
  <course>7.12</course>
  <speed>0.0</speed>
  <fix>3d</fix>
</trkpt>
<trkpt lat="-27.274439" lon="151.290064">
  <ele>343.1</ele>
  <time>2026-09-01T19:50:40Z</time>
  <course>7.09</course>
  <speed>0.0</speed>
  <fix>3d</fix>
</trkpt>
<trkpt lat="-27.274439" lon="151.290064">
  <ele>343.1</ele>
  <time>2026-09-01T19:50:40Z</time>
  <course>7.12</course>
  <speed>0.0</speed>
  <fix>3d</fix>
</trkpt>
<trkpt lat="-27.274439" lon="151.290064">
  <ele>343.1</ele>
  <time>2026-09-01T19:50:40Z</time>
  <course>7.09</course>
  <speed>0.0</speed>
  <fix>3d</fix>
</trkpt>
<trkpt lat="-27.274439" lon="151.290064">
  <ele>343.1</ele>
  <time>2026-09-01T19:50:40Z</time>
  <course>7.12</course>
  <speed>0.0</speed>
  <fix>3d</fix>
</trkpt>
<trkpt lat="-27.274439" lon="151.290064">
  <ele>343.1</ele>
  <time>2026-09-01T19:50:40Z</time>
  <course>7.09</course>
  <speed>0.0</speed>
  <fix>3d</fix>
</trkpt>
<trkpt lat="-27.274439" lon="151.290064">
  <ele>343.1</ele>
  <time>2026-09-01T19:50:40Z</time>
  <course>7.12</course>
  <speed>0.0</speed>
  <fix>3d</fix>
</trkpt>
<trkpt lat="-27.274439" lon="151.290064">
  <ele>343.1</ele>
  <time>2026-09-01T19:50:40Z</time>
  <course>7.09</course>
  <speed>0.0</speed>
  <fix>3d</fix>
</trkpt>
<trkpt lat="-27.274439" lon="151.290064">
  <ele>343.1</ele>
  <time>2026-09-01T19:50:40Z</time>
  <course>7.12</course>
  <speed>0.0</speed>
  <fix>3d</fix>
</trkpt>
<trkpt lat="-27.274439" lon="151.290064">
  <ele>343.1</ele>
  <time>2026-09-01T19:50:40Z</time>
  <course>7.09</course>
  <speed>0.0</speed>
  <fix>3d</fix>
</trkpt>
<trkpt lat="-27.274439" lon="151.290064">
  <ele>343.1</ele>
  <time>2026-09-01T19:50:40Z</time>
  <course>7.12</course>
  <speed>0.0</speed>
  <fix>3d</fix>
</trkpt>
<trkpt lat="-27.274439" lon="151.290064">
  <ele>343.1</ele>
  <time>2026-09-01T19:50:40Z</time>
  <course>7.09</course>
  <speed>0.0</speed>
  <fix>3d</fix>
</trkpt>
<trkpt lat="-27.274439" lon="151.290064">
  <ele>343.1</ele>
  <time>2026-09-01T19:50:40Z</time>
  <course>7.12</course>
  <speed>0.0</speed>
  <fix>3d</fix>
</trkpt>
<trkpt lat="-27.274439" lon="151.290064">
  <ele>343.1</ele>
  <time>2026-09-01T19:50:40Z</time>
  <course>7.09</course>
  <speed>0.0</speed>
  <fix>3d</fix>
</trkpt>
<trkpt lat="-27.274439" lon="151.290064">
  <ele>343.1</ele>
  <time>2026-09-01T19:50:40Z</time>
  <course>7.12</course>
  <speed>0.0</speed>
  <fix>3d</fix>
</trkpt>
<trkpt lat="-27.274439" lon="151.290064">
  <ele>343.1</ele>
  <time>2026-09-01T19:50:40Z</time>
  <course>7.09</course>
  <speed>0.0</speed>
  <fix>3d</fix>
</trkpt>
<trkpt lat="-27.274439" lon="151.290064">
  <ele>343.1</ele>
  <time>2026-09-01T19:50:40Z</time>
  <course>7.12</course>
  <speed>0.0</speed>
  <fix>3d</fix>
</trkpt>
<trkpt lat="-27.274439" lon="151.290064">
  <ele>343.1</ele>
  <time>2026-09-01T19:50:40Z</time>
  <course>7.09</course>
  <speed>0.0</speed>
  <fix>3d</fix>
</trkpt>
<trkpt lat="-27.274439" lon="151.290064">
  <ele>343.1</ele>
  <time>2026-09-01T19:50:40Z</time>
  <course>7.12</course>
  <speed>0.0</speed>
  <fix>3d</fix>
</trkpt>
<trkpt lat="-27.274439" lon="151.290064">
  <ele>343.1</ele>
  <time>2026-09-01T19:50:40Z</time>
  <course>7.09</course>
  <speed>0.0</speed>
  <fix>3d</fix>
</trkpt>
<trkpt lat="-27.274439" lon="151.290064">
  <ele>343.1</ele>
  <time>2026-09-01T19:50:40Z</time>
  <course>7.12</course>
  <speed>0.0</speed>
  <fix>3d</fix>
</trkpt>
<trkpt lat="-27.274439" lon="151.290064">
  <ele>343.1</ele>
  <time>2026-09-01T19:50:40Z</time>
  <course>7.09</course>
  <speed>0.0</speed>
  <fix>3d</fix>
</trkpt>
<trkpt lat="-27.274439" lon="151.290064">
  <ele>343.1</ele>
  <time>2026-09-01T19:50:40Z</time>
  <course>7.12</course>
  <speed>0.0</speed>
  <fix>3d</fix>
</trkpt>
<trkpt lat="-27.274439" lon="151.290064">
  <ele>343.1</ele>
  <time>2026-09-01T19:50:40Z</time>
  <course>7.09</course>
  <speed>0.0</speed>
  <fix>3d</fix>
</trkpt>
<trkpt lat="-27.274439" lon="151.290064">
  <ele>343.1</ele>
  <time>2026-09-01T19:50:40Z</time>
  <course>7.12</course>
  <speed>0.0</speed>
  <fix>3d</fix>
</trkpt>
<trkpt lat="-27.274439" lon="151.290064">
  <ele>343.1</ele>
  <time>2026-09-01T19:50:40Z</time>
  <course>7.09</course>
  <speed>0.0</speed>
  <fix>3d</fix>
</trkpt>
<trkpt lat="-27.274439" lon="151.290064">
  <ele>343.1</ele>
  <time>2026-09-01T19:50:40Z</time>
  <course>7.12</course>
  <speed>0.0</speed>
  <fix>3d</fix>
</trkpt>
<trkpt lat="-27.274439" lon="151.290064">
  <ele>343.1</ele>
  <time>2026-09-01T19:50:40Z</time>
  <course>7.09</course>
  <speed>0.0</speed>
  <fix>3d</fix>
</trkpt>
<trkpt lat="-27.274439" lon="151.290064">
  <ele>343.1</ele>
  <time>2026-09-01T19:50:40Z</time>
  <course>7.12</course>
  <speed>0.0</speed>
  <fix>3d</fix>
</trkpt>
<trkpt lat="-27.274439" lon="151.290064">
  <ele>343.1</ele>
  <time>2026-09-01T19:50:40Z</time>
  <course>7.09</course>
  <speed>0.0</speed>
  <fix>3d</fix>
</trkpt>
<trkpt lat="-27.274439" lon="151.290064">
  <ele>343.1</ele>
  <time>2026-09-01T19:50:40Z</time>
  <course>7.12</course>
  <speed>0.0</speed>
  <fix>3d</fix>
</trkpt>
<trkpt lat="-27.274439" lon="151.290064">
  <ele>343.1</ele>
  <time>2026-09-01T19:50:40Z</time>
  <course>7.09</course>
  <speed>0.0</speed>
  <fix>3d</fix>
</trkpt>
<trkpt lat="-27.274439" lon="151.290064">
  <ele>343.1</ele>
  <time>2026-09-01T19:50:40Z</time>
  <course>7.12</course>
  <speed>0.0</speed>
  <fix>3d</fix>
</trkpt>
<trkpt lat="-27.274439" lon="151.290064">
  <ele>343.1</ele>
  <time>2026-09-01T19:50:40Z</time>
  <course>7.09</course>
  <speed>0.0</speed>
  <fix>3d</fix>
</trkpt>
<trkpt lat="-27.274439" lon="151.290064">
  <ele>343.1</ele>
  <time>2026-09-01T19:50:40Z</time>
  <course>7.12</course>
  <speed>0.0</speed>
  <fix>3d</fix>
</trkpt>
<trkpt lat="-27.274439" lon="151.290064">
  <ele>343.1</ele>
  <time>2026-09-01T19:50:40Z</time>
  <course>7.09</course>
  <speed>0.0</speed>
  <fix>3d</fix>
</trkpt>
<trkpt lat="-27.274439" lon="151.290064">
  <ele>343.1</ele>
  <time>2026-09-01T19:50:40Z</time>
  <course>7.12</course>
  <speed>0.0</speed>
  <fix>3d</fix>
</trkpt>
<trkpt lat="-27.274439" lon="151.290064">
  <ele>343.1</ele>
  <time>2026-09-01T19:50:40Z</time>
  <course>7.09</course>
  <speed>0.0</speed>
  <fix>3d</fix>
</trkpt>
<trkpt lat="-27.274439" lon="151.290064">
  <ele>343.1</ele>
  <time>2026-09-01T19:50:40Z</time>
  <course>7.12</course>
  <speed>0.0</speed>
  <fix>3d</fix>
</trkpt>
<trkpt lat="-27.274439" lon="151.290064">
  <ele>343.1</ele>
  <time>2026-09-01T19:50:40Z</time>
  <course>7.09</course>
  <speed>0.0</speed>
  <fix>3d</fix>
</trkpt>
<trkpt lat="-27.274439" lon="151.290064">
  <ele>343.1</ele>
  <time>2026-09-01T19:50:40Z</time>
  <course>7.12</course>
  <speed>0.0</speed>
  <fix>3d</fix>
</trkpt>
<trkpt lat="-27.274439" lon="151.290064">
  <ele>343.1</ele>
  <time>2026-09-01T19:50:40Z</time>
  <course>7.09</course>
  <speed>0.0</speed>
  <fix>3d</fix>
</trkpt>
<trkpt lat="-27.274439" lon="151.290064">
  <ele>343.1</ele>
  <time>2026-09-01T19:50:40Z</time>
  <course>7.12</course>
  <speed>0.0</speed>
  <fix>3d</fix>
</trkpt>
<trkpt lat="-27.274439" lon="151.290064">
  <ele>343.1</ele>
  <time>2026-09-01T19:50:40Z</time>
  <course>7.09</course>
  <speed>0.0</speed>
  <fix>3d</fix>
</trkpt>
<trkpt lat="-27.274439" lon="151.290064">
  <ele>343.1</ele>
  <time>2026-09-01T19:50:40Z</time>
  <course>7.12</course>
  <speed>0.0</speed>
  <fix>3d</fix>
</trkpt>
<trkpt lat="-27.274439" lon="151.290064">
  <ele>343.1</ele>
  <time>2026-09-01T19:50:40Z</time>
  <course>7.09</course>
  <speed>0.0</speed>
  <fix>3d</fix>
</trkpt>
<trkpt lat="-27.274439" lon="151.290064">
  <ele>343.1</ele>
  <time>2026-09-01T19:50:40Z</time>
  <course>7.12</course>
  <speed>0.0</speed>
  <fix>3d</fix>
</trkpt>
<trkpt lat="-27.274439" lon="151.290064">
  <ele>343.1</ele>
  <time>2026-09-01T19:50:40Z</time>
  <course>7.09</course>
  <speed>0.0</speed>
  <fix>3d</fix>
</trkpt>
<trkpt lat="-27.274439" lon="151.290064">
  <ele>343.1</ele>
  <time>2026-09-01T19:50:40Z</time>
  <course>7.12</course>
  <speed>0.0</speed>
  <fix>3d</fix>
</trkpt>
<trkpt lat="-27.274439" lon="151.290064">
  <ele>343.1</ele>
  <time>2026-09-01T19:50:40Z</time>
  <course>7.09</course>
  <speed>0.0</speed>
  <fix>3d</fix>
</trkpt>
<trkpt lat="-27.274439" lon="151.290064">
  <ele>343.1</ele>
  <time>2026-09-01T19:50:40Z</time>
  <course>7.12</course>
  <speed>0.0</speed>
  <fix>3d</fix>
</trkpt>
<trkpt lat="-27.274439" lon="151.290064">
  <ele>343.1</ele>
  <time>2026-09-01T19:50:40Z</time>
  <course>7.09</course>
  <speed>0.0</speed>
  <fix>3d</fix>
</trkpt>
<trkpt lat="-27.274439" lon="151.290064">
  <ele>343.1</ele>
  <time>2026-09-01T19:50:40Z</time>
  <course>7.12</course>
  <speed>0.0</speed>
  <fix>3d</fix>
</trkpt>
<trkpt lat="-27.274439" lon="151.290064">
  <ele>343.1</ele>
  <time>2026-09-01T19:50:40Z</time>
  <course>7.09</course>
  <speed>0.0</speed>
  <fix>3d</fix>
</trkpt>
<trkpt lat="-27.274439" lon="151.290064">
  <ele>343.1</ele>
  <time>2026-09-01T19:50:40Z</time>
  <course>7.12</course>
  <speed>0.0</speed>
  <fix>3d</fix>
</trkpt>
<trkpt lat="-27.274439" lon="151.290064">
  <ele>343.1</ele>
  <time>2026-09-01T19:50:40Z</time>
  <course>7.09</course>
  <speed>0.0</speed>
  <fix>3d</fix>
</trkpt>
<trkpt lat="-27.274439" lon="151.290064">
  <ele>343.1</ele>
  <time>2026-09-01T19:50:40Z</time>
  <course>7.12</course>
  <speed>0.0</speed>
  <fix>3d</fix>
</trkpt>
<trkpt lat="-27.274439" lon="151.290064">
  <ele>343.1</ele>
  <time>2026-09-01T19:50:40Z</time>
  <course>7.09</course>
  <speed>0.0</speed>
  <fix>3d</fix>
</trkpt>
<trkpt lat="-27.274439" lon="151.290064">
  <ele>343.1</ele>
  <time>2026-09-01T19:50:40Z</time>
  <course>7.12</course>
  <speed>0.0</speed>
  <fix>3d</fix>
</trkpt>
<trkpt lat="-27.274439" lon="151.290064">
  <ele>343.1</ele>
  <time>2026-09-01T19:50:40Z</time>
  <course>7.09</course>
  <speed>0.0</speed>
  <fix>3d</fix>
</trkpt>
<trkpt lat="-27.274439" lon="151.290064">
  <ele>343.1</ele>
  <time>2026-09-01T19:50:40Z</time>
  <course>7.12</course>
  <speed>0.0</speed>
  <fix>3d</fix>
</trkpt>
<trkpt lat="-27.274439" lon="151.290064">
  <ele>343.1</ele>
  <time>2026-09-01T19:50:40Z</time>
  <course>7.09</course>
  <speed>0.0</speed>
  <fix>3d</fix>
</trkpt>
<trkpt lat="-27.274439" lon="151.290064">
  <ele>343.1</ele>
  <time>2026-09-01T19:50:40Z</time>
  <course>7.12</course>
  <speed>0.0</speed>
  <fix>3d</fix>
</trkpt>
<trkpt lat="-27.274439" lon="151.290064">
  <ele>343.1</ele>
  <time>2026-09-01T19:50:40Z</time>
  <course>7.09</course>
  <speed>0.0</speed>
  <fix>3d</fix>
</trkpt>
<trkpt lat="-27.274439" lon="151.290064">
  <ele>343.1</ele>
  <time>2026-09-01T19:50:40Z</time>
  <course>7.12</course>
  <speed>0.0</speed>
  <fix>3d</fix>
</trkpt>
<trkpt lat="-27.274439" lon="151.290064">
  <ele>343.1</ele>
  <time>2026-09-01T19:50:40Z</time>
  <course>7.09</course>
  <speed>0.0</speed>
  <fix>3d</fix>
</trkpt>
<trkpt lat="-27.274439" lon="151.290064">
  <ele>343.1</ele>
  <time>2026-09-01T19:50:40Z</time>
  <course>7.12</course>
  <speed>0.0</speed>
  <fix>3d</fix>
</trkpt>
<trkpt lat="-27.274439" lon="151.290064">
  <ele>343.1</ele>
  <time>2026-09-01T19:50:40Z</time>
  <course>7.09</course>
  <speed>0.0</speed>
  <fix>3d</fix>
</trkpt>
<trkpt lat="-27.274439" lon="151.290064">
  <ele>343.1</ele>
  <time>2026-09-01T19:50:40Z</time>
  <course>7.12</course>
  <speed>0.0</speed>
  <fix>3d</fix>
</trkpt>
<trkpt lat="-27.274439" lon="151.290064">
  <ele>343.1</ele>
  <time>2026-09-01T19:50:40Z</time>
  <course>7.09</course>
  <speed>0.0</speed>
  <fix>3d</fix>
</trkpt>
<trkpt lat="-27.274439" lon="151.290064">
  <ele>343.1</ele>
  <time>2026-09-01T19:50:40Z</time>
  <course>7.12</course>
  <speed>0.0</speed>
  <fix>3d</fix>
</trkpt>
<trkpt lat="-27.274439" lon="151.290064">
  <ele>343.1</ele>
  <time>2026-09-01T19:50:40Z</time>
  <course>7.09</course>
  <speed>0.0</speed>
  <fix>3d</fix>
</trkpt>
<trkpt lat="-27.274439" lon="151.290064">
  <ele>343.1</ele>
  <time>2026-09-01T19:50:40Z</time>
  <course>7.12</course>
  <speed>0.0</speed>
  <fix>3d</fix>
</trkpt>
<trkpt lat="-27.274439" lon="151.290064">
  <ele>343.1</ele>
  <time>2026-09-01T19:50:40Z</time>
  <course>7.09</course>
  <speed>0.0</speed>
  <fix>3d</fix>
</trkpt>
<trkpt lat="-27.274439" lon="151.290064">
  <ele>343.1</ele>
  <time>2026-09-01T19:50:40Z</time>
  <course>7.12</course>
  <speed>0.0</speed>
  <fix>3d</fix>
</trkpt>
<trkpt lat="-27.274439" lon="151.290064">
  <ele>343.1</ele>
  <time>2026-09-01T19:50:40Z</time>
  <course>7.09</course>
  <speed>0.0</speed>
  <fix>3d</fix>
</trkpt>
<trkpt lat="-27.274439" lon="151.290064">
  <ele>343.1</ele>
  <time>2026-09-01T19:50:40Z</time>
  <course>7.12</course>
  <speed>0.0</speed>
  <fix>3d</fix>
</trkpt>
<trkpt lat="-27.274439" lon="151.290064">
  <ele>343.1</ele>
  <time>2026-09-01T19:50:40Z</time>
  <course>7.09</course>
  <speed>0.0</speed>
  <fix>3d</fix>
</trkpt>
<trkpt lat="-27.274439" lon="151.290064">
  <ele>343.1</ele>
  <time>2026-09-01T19:50:40Z</time>
  <course>7.12</course>
  <speed>0.0</speed>
  <fix>3d</fix>
</trkpt>
<trkpt lat="-27.274439" lon="151.290064">
  <ele>343.1</ele>
  <time>2026-09-01T19:50:40Z</time>
  <course>7.09</course>
  <speed>0.0</speed>
  <fix>3d</fix>
</trkpt>
<trkpt lat="-27.274439" lon="151.290064">
  <ele>343.1</ele>
  <time>2026-09-01T19:50:40Z</time>
  <course>7.12</course>
  <speed>0.0</speed>
  <fix>3d</fix>
</trkpt>
<trkpt lat="-27.274439" lon="151.290064">
  <ele>343.1</ele>
  <time>2026-09-01T19:50:40Z</time>
  <course>7.09</course>
  <speed>0.0</speed>
  <fix>3d</fix>
</trkpt>
<trkpt lat="-27.274439" lon="151.290064">
  <ele>343.1</ele>
  <time>2026-09-01T19:50:40Z</time>
  <course>7.12</course>
  <speed>0.0</speed>
  <fix>3d</fix>
</trkpt>
<trkpt lat="-27.274439" lon="151.290064">
  <ele>343.1</ele>
  <time>2026-09-01T19:50:40Z</time>
  <course>7.09</course>
  <speed>0.0</speed>
  <fix>3d</fix>
</trkpt>
<trkpt lat="-27.274439" lon="151.290064">
  <ele>343.1</ele>
  <time>2026-09-01T19:50:40Z</time>
  <course>7.12</course>
  <speed>0.0</speed>
  <fix>3d</fix>
</trkpt>
<trkpt lat="-27.274439" lon="151.290064">
  <ele>343.1</ele>
  <time>2026-09-01T19:50:40Z</time>
  <course>7.09</course>
  <speed>0.0</speed>
  <fix>3d</fix>
</trkpt>
<trkpt lat="-27.274439" lon="151.290064">
  <ele>343.1</ele>
  <time>2026-09-01T19:50:40Z</time>
  <course>7.12</course>
  <speed>0.0</speed>
  <fix>3d</fix>
</trkpt>
<trkpt lat="-27.274439" lon="151.290064">
  <ele>343.1</ele>
  <time>2026-09-01T19:50:40Z</time>
  <course>7.09</course>
  <speed>0.0</speed>
  <fix>3d</fix>
</trkpt>
<trkpt lat="-27.274439" lon="151.290064">
  <ele>343.1</ele>
  <time>2026-09-01T19:50:40Z</time>
  <course>7.12</course>
  <speed>0.0</speed>
  <fix>3d</fix>
</trkpt>
<trkpt lat="-27.274439" lon="151.290064">
  <ele>343.1</ele>
  <time>2026-09-01T19:50:40Z</time>
  <course>7.09</course>
  <speed>0.0</speed>
  <fix>3d</fix>
</trkpt>
<trkpt lat="-27.274439" lon="151.290064">
  <ele>343.1</ele>
  <time>2026-09-01T19:50:40Z</time>
  <course>7.12</course>
  <speed>0.0</speed>
  <fix>3d</fix>
</trkpt>
<trkpt lat="-27.274439" lon="151.290064">
  <ele>343.1</ele>
  <time>2026-09-01T19:50:40Z</time>
  <course>7.09</course>
  <speed>0.0</speed>
  <fix>3d</fix>
</trkpt>
<trkpt lat="-27.274439" lon="151.290064">
  <ele>343.1</ele>
  <time>2026-09-01T19:50:40Z</time>
  <course>7.12</course>
  <speed>0.0</speed>
  <fix>3d</fix>
</trkpt>
<trkpt lat="-27.274439" lon="151.290064">
  <ele>343.1</ele>
  <time>2026-09-01T19:50:40Z</time>
  <course>7.09</course>
  <speed>0.0</speed>
  <fix>3d</fix>
</trkpt>
<trkpt lat="-27.274439" lon="151.290064">
  <ele>343.1</ele>
  <time>2026-09-01T19:50:40Z</time>
  <course>7.12</course>
  <speed>0.0</speed>
  <fix>3d</fix>
</trkpt>
<trkpt lat="-27.274439" lon="151.290064">
  <ele>343.1</ele>
  <time>2026-09-01T19:50:40Z</time>
  <course>7.09</course>
  <speed>0.0</speed>
  <fix>3d</fix>
</trkpt>
<trkpt lat="-27.274439" lon="151.290064">
  <ele>343.1</ele>
  <time>2026-09-01T19:50:40Z</time>
  <course>7.12</course>
  <speed>0.0</speed>
  <fix>3d</fix>
</trkpt>
<trkpt lat="-27.274439" lon="151.290064">
  <ele>343.1</ele>
  <time>2026-09-01T19:50:40Z</time>
  <course>7.09</course>
  <speed>0.0</speed>
  <fix>3d</fix>
</trkpt>
<trkpt lat="-27.274439" lon="151.290064">
  <ele>343.1</ele>
  <time>2026-09-01T19:50:40Z</time>
  <course>7.12</course>
  <speed>0.0</speed>
  <fix>3d</fix>
</trkpt>
<trkpt lat="-27.274439" lon="151.290064">
  <ele>343.1</ele>
  <time>2026-09-01T19:50:40Z</time>
  <course>7.09</course>
  <speed>0.0</speed>
  <fix>3d</fix>
</trkpt>
<trkpt lat="-27.274439" lon="151.290064">
  <ele>343.1</ele>
  <time>2026-09-01T19:50:40Z</time>
  <course>7.12</course>
  <speed>0.0</speed>
  <fix>3d</fix>
</trkpt>
<trkpt lat="-27.274439" lon="151.290064">
  <ele>343.1</ele>
  <time>2026-09-01T19:50:40Z</time>
  <course>7.09</course>
  <speed>0.0</speed>
  <fix>3d</fix>
</trkpt>
<trkpt lat="-27.274439" lon="151.290064">
  <ele>343.1</ele>
  <time>2026-09-01T19:50:40Z</time>
  <course>7.12</course>
  <speed>0.0</speed>
  <fix>3d</fix>
</trkpt>
<trkpt lat="-27.274439" lon="151.290064">
  <ele>343.1</ele>
  <time>2026-09-01T19:50:40Z</time>
  <course>7.09</course>
  <speed>0.0</speed>
  <fix>3d</fix>
</trkpt>
<trkpt lat="-27.274439" lon="151.290064">
  <ele>343.1</ele>
  <time>2026-09-01T19:50:40Z</time>
  <course>7.12</course>
  <speed>0.0</speed>
  <fix>3d</fix>
</trkpt>
<trkpt lat="-27.274439" lon="151.290064">
  <ele>343.1</ele>
  <time>2026-09-01T19:50:40Z</time>
  <course>7.09</course>
  <speed>0.0</speed>
  <fix>3d</fix>
</trkpt>
<trkpt lat="-27.274439" lon="151.290064">
  <ele>343.1</ele>
  <time>2026-09-01T19:50:40Z</time>
  <course>7.12</course>
  <speed>0.0</speed>
  <fix>3d</fix>
</trkpt>
<trkpt lat="-27.274439" lon="151.290064">
  <ele>343.1</ele>
  <time>2026-09-01T19:50:40Z</time>
  <course>7.09</course>
  <speed>0.0</speed>
  <fix>3d</fix>
</trkpt>
<trkpt lat="-27.274439" lon="151.290064">
  <ele>343.1</ele>
  <time>2026-09-01T19:50:40Z</time>
  <course>7.12</course>
  <speed>0.0</speed>
  <fix>3d</fix>
</trkpt>
<trkpt lat="-27.274439" lon="151.290064">
  <ele>343.1</ele>
  <time>2026-09-01T19:50:40Z</time>
  <course>7.09</course>
  <speed>0.0</speed>
  <fix>3d</fix>
</trkpt>
<trkpt lat="-27.274439" lon="151.290064">
  <ele>343.1</ele>
  <time>2026-09-01T19:50:40Z</time>
  <course>7.12</course>
  <speed>0.0</speed>
  <fix>3d</fix>
</trkpt>
<trkpt lat="-27.274439" lon="151.290064">
  <ele>343.1</ele>
  <time>2026-09-01T19:50:40Z</time>
  <course>7.09</course>
  <speed>0.0</speed>
  <fix>3d</fix>
</trkpt>
<trkpt lat="-27.274439" lon="151.290064">
  <ele>343.1</ele>
  <time>2026-09-01T19:50:40Z</time>
  <course>7.12</course>
  <speed>0.0</speed>
  <fix>3d</fix>
</trkpt>
<trkpt lat="-27.274439" lon="151.290064">
  <ele>343.1</ele>
  <time>2026-09-01T19:50:40Z</time>
  <course>7.09</course>
  <speed>0.0</speed>
  <fix>3d</fix>
</trkpt>
<trkpt lat="-27.274439" lon="151.290064">
  <ele>343.1</ele>
  <time>2026-09-01T19:50:40Z</time>
  <course>7.12</course>
  <speed>0.0</speed>
  <fix>3d</fix>
</trkpt>
<trkpt lat="-27.274439" lon="151.290064">
  <ele>343.1</ele>
  <time>2026-09-01T19:50:40Z</time>
  <course>7.09</course>
  <speed>0.0</speed>
  <fix>3d</fix>
</trkpt>
<trkpt lat="-27.274439" lon="151.290064">
  <ele>343.1</ele>
  <time>2026-09-01T19:50:40Z</time>
  <course>7.12</course>
  <speed>0.0</speed>
  <fix>3d</fix>
</trkpt>
<trkpt lat="-27.274439" lon="151.290064">
  <ele>343.1</ele>
  <time>2026-09-01T19:50:40Z</time>
  <course>7.09</course>
  <speed>0.0</speed>
  <fix>3d</fix>
</trkpt>
<trkpt lat="-27.274439" lon="151.290064">
  <ele>343.1</ele>
  <time>2026-09-01T19:50:40Z</time>
  <course>7.12</course>
  <speed>0.0</speed>
  <fix>3d</fix>
</trkpt>
<trkpt lat="-27.274439" lon="151.290064">
  <ele>343.1</ele>
  <time>2026-09-01T19:50:40Z</time>
  <course>7.09</course>
  <speed>0.0</speed>
  <fix>3d</fix>
</trkpt>
<trkpt lat="-27.274439" lon="151.290064">
  <ele>343.1</ele>
  <time>2026-09-01T19:50:40Z</time>
  <course>7.12</course>
  <speed>0.0</speed>
  <fix>3d</fix>
</trkpt>
<trkpt lat="-27.274439" lon="151.290064">
  <ele>343.1</ele>
  <time>2026-09-01T19:50:40Z</time>
  <course>7.09</course>
  <speed>0.0</speed>
  <fix>3d</fix>
</trkpt>
<trkpt lat="-27.274439" lon="151.290064">
  <ele>343.1</ele>
  <time>2026-09-01T19:50:40Z</time>
  <course>7.12</course>
  <speed>0.0</speed>
  <fix>3d</fix>
</trkpt>
<trkpt lat="-27.274439" lon="151.290064">
  <ele>343.1</ele>
  <time>2026-09-01T19:50:40Z</time>
  <course>7.09</course>
  <speed>0.0</speed>
  <fix>3d</fix>
</trkpt>
<trkpt lat="-27.274439" lon="151.290064">
  <ele>343.1</ele>
  <time>2026-09-01T19:50:40Z</time>
  <course>7.12</course>
  <speed>0.0</speed>
  <fix>3d</fix>
</trkpt>
<trkpt lat="-27.274439" lon="151.290064">
  <ele>343.1</ele>
  <time>2026-09-01T19:50:40Z</time>
  <course>7.09</course>
  <speed>0.0</speed>
  <fix>3d</fix>
</trkpt>
<trkpt lat="-27.274439" lon="151.290064">
  <ele>343.1</ele>
  <time>2026-09-01T19:50:40Z</time>
  <course>7.12</course>
  <speed>0.0</speed>
  <fix>3d</fix>
</trkpt>
<trkpt lat="-27.274439" lon="151.290064">
  <ele>343.1</ele>
  <time>2026-09-01T19:50:40Z</time>
  <course>7.09</course>
  <speed>0.0</speed>
  <fix>3d</fix>
</trkpt>
<trkpt lat="-27.274439" lon="151.290064">
  <ele>343.1</ele>
  <time>2026-09-01T19:50:40Z</time>
  <course>7.12</course>
  <speed>0.0</speed>
  <fix>3d</fix>
</trkpt>
<trkpt lat="-27.274439" lon="151.290064">
  <ele>343.1</ele>
  <time>2026-09-01T19:50:40Z</time>
  <course>7.09</course>
  <speed>0.0</speed>
  <fix>3d</fix>
</trkpt>
<trkpt lat="-27.274439" lon="151.290064">
  <ele>343.1</ele>
  <time>2026-09-01T19:50:40Z</time>
  <course>7.12</course>
  <speed>0.0</speed>
  <fix>3d</fix>
</trkpt>
<trkpt lat="-27.274439" lon="151.290064">
  <ele>343.1</ele>
  <time>2026-09-01T19:50:40Z</time>
  <course>7.09</course>
  <speed>0.0</speed>
  <fix>3d</fix>
</trkpt>
<trkpt lat="-27.274439" lon="151.290064">
  <ele>343.1</ele>
  <time>2026-09-01T19:50:40Z</time>
  <course>7.12</course>
  <speed>0.0</speed>
  <fix>3d</fix>
</trkpt>
<trkpt lat="-27.274439" lon="151.290064">
  <ele>343.1</ele>
  <time>2026-09-01T19:50:40Z</time>
  <course>7.09</course>
  <speed>0.0</speed>
  <fix>3d</fix>
</trkpt>
<trkpt lat="-27.274439" lon="151.290064">
  <ele>343.1</ele>
  <time>2026-09-01T19:50:40Z</time>
  <course>7.12</course>
  <speed>0.0</speed>
  <fix>3d</fix>
</trkpt>
<trkpt lat="-27.274439" lon="151.290064">
  <ele>343.1</ele>
  <time>2026-09-01T19:50:40Z</time>
  <course>7.09</course>
  <speed>0.0</speed>
  <fix>3d</fix>
</trkpt>
<trkpt lat="-27.274439" lon="151.290064">
  <ele>343.1</ele>
  <time>2026-09-01T19:50:40Z</time>
  <course>7.12</course>
  <speed>0.0</speed>
  <fix>3d</fix>
</trkpt>
<trkpt lat="-27.274439" lon="151.290064">
  <ele>343.1</ele>
  <time>2026-09-01T19:50:40Z</time>
  <course>7.09</course>
  <speed>0.0</speed>
  <fix>3d</fix>
</trkpt>
<trkpt lat="-27.274439" lon="151.290064">
  <ele>343.1</ele>
  <time>2026-09-01T19:50:40Z</time>
  <course>7.12</course>
  <speed>0.0</speed>
  <fix>3d</fix>
</trkpt>
<trkpt lat="-27.274439" lon="151.290064">
  <ele>343.1</ele>
  <time>2026-09-01T19:50:40Z</time>
  <course>7.09</course>
  <speed>0.0</speed>
  <fix>3d</fix>
</trkpt>
<trkpt lat="-27.274439" lon="151.290064">
  <ele>343.1</ele>
  <time>2026-09-01T19:50:40Z</time>
  <course>7.12</course>
  <speed>0.0</speed>
  <fix>3d</fix>
</trkpt>
<trkpt lat="-27.274439" lon="151.290064">
  <ele>343.1</ele>
  <time>2026-09-01T19:50:40Z</time>
  <course>7.09</course>
  <speed>0.0</speed>
  <fix>3d</fix>
</trkpt>
<trkpt lat="-27.274439" lon="151.290064">
  <ele>343.1</ele>
  <time>2026-09-01T19:50:40Z</time>
  <course>7.12</course>
  <speed>0.0</speed>
  <fix>3d</fix>
</trkpt>
<trkpt lat="-27.274439" lon="151.290064">
  <ele>343.1</ele>
  <time>2026-09-01T19:50:40Z</time>
  <course>7.09</course>
  <speed>0.0</speed>
  <fix>3d</fix>
</trkpt>
<trkpt lat="-27.274439" lon="151.290064">
  <ele>343.1</ele>
  <time>2026-09-01T19:50:40Z</time>
  <course>7.12</course>
  <speed>0.0</speed>
  <fix>3d</fix>
</trkpt>
<trkpt lat="-27.274439" lon="151.290064">
  <ele>343.1</ele>
  <time>2026-09-01T19:50:40Z</time>
  <course>7.09</course>
  <speed>0.0</speed>
  <fix>3d</fix>
</trkpt>
<trkpt lat="-27.274439" lon="151.290064">
  <ele>343.1</ele>
  <time>2026-09-01T19:50:40Z</time>
  <course>7.12</course>
  <speed>0.0</speed>
  <fix>3d</fix>
</trkpt>
<trkpt lat="-27.274439" lon="151.290064">
  <ele>343.1</ele>
  <time>2026-09-01T19:50:40Z</time>
  <course>7.09</course>
  <speed>0.0</speed>
  <fix>3d</fix>
</trkpt>
<trkpt lat="-27.274439" lon="151.290064">
  <ele>343.1</ele>
  <time>2026-09-01T19:50:40Z</time>
  <course>7.12</course>
  <speed>0.0</speed>
  <fix>3d</fix>
</trkpt>
<trkpt lat="-27.274439" lon="151.290064">
  <ele>343.1</ele>
  <time>2026-09-01T19:50:40Z</time>
  <course>7.09</course>
  <speed>0.0</speed>
  <fix>3d</fix>
</trkpt>
<trkpt lat="-27.274439" lon="151.290064">
  <ele>343.1</ele>
  <time>2026-09-01T19:50:40Z</time>
  <course>7.12</course>
  <speed>0.0</speed>
  <fix>3d</fix>
</trkpt>
<trkpt lat="-27.274439" lon="151.290064">
  <ele>343.1</ele>
  <time>2026-09-01T19:50:40Z</time>
  <course>7.09</course>
  <speed>0.0</speed>
  <fix>3d</fix>
</trkpt>
<trkpt lat="-27.274439" lon="151.290064">
  <ele>343.1</ele>
  <time>2026-09-01T19:50:40Z</time>
  <course>7.12</course>
  <speed>0.0</speed>
  <fix>3d</fix>
</trkpt>
<trkpt lat="-27.274439" lon="151.290064">
  <ele>343.1</ele>
  <time>2026-09-01T19:50:40Z</time>
  <course>7.09</course>
  <speed>0.0</speed>
  <fix>3d</fix>
</trkpt>
<trkpt lat="-27.274439" lon="151.290064">
  <ele>343.1</ele>
  <time>2026-09-01T19:50:40Z</time>
  <course>7.12</course>
  <speed>0.0</speed>
  <fix>3d</fix>
</trkpt>
<trkpt lat="-27.274439" lon="151.290064">
  <ele>343.1</ele>
  <time>2026-09-01T19:50:40Z</time>
  <course>7.09</course>
  <speed>0.0</speed>
  <fix>3d</fix>
</trkpt>
<trkpt lat="-27.274439" lon="151.290064">
  <ele>343.1</ele>
  <time>2026-09-01T19:50:40Z</time>
  <course>7.12</course>
  <speed>0.0</speed>
  <fix>3d</fix>
</trkpt>
<trkpt lat="-27.274439" lon="151.290064">
  <ele>343.1</ele>
  <time>2026-09-01T19:50:40Z</time>
  <course>7.09</course>
  <speed>0.0</speed>
  <fix>3d</fix>
</trkpt>
<trkpt lat="-27.274439" lon="151.290064">
  <ele>343.1</ele>
  <time>2026-09-01T19:50:40Z</time>
  <course>7.12</course>
  <speed>0.0</speed>
  <fix>3d</fix>
</trkpt>
<trkpt lat="-27.274439" lon="151.290064">
  <ele>343.1</ele>
  <time>2026-09-01T19:50:40Z</time>
  <course>7.09</course>
  <speed>0.0</speed>
  <fix>3d</fix>
</trkpt>
<trkpt lat="-27.274439" lon="151.290064">
  <ele>343.1</ele>
  <time>2026-09-01T19:50:40Z</time>
  <course>7.12</course>
  <speed>0.0</speed>
  <fix>3d</fix>
</trkpt>
<trkpt lat="-27.274439" lon="151.290064">
  <ele>343.1</ele>
  <time>2026-09-01T19:50:40Z</time>
  <course>7.09</course>
  <speed>0.0</speed>
  <fix>3d</fix>
</trkpt>
<trkpt lat="-27.274439" lon="151.290064">
  <ele>343.1</ele>
  <time>2026-09-01T19:50:40Z</time>
  <course>7.12</course>
  <speed>0.0</speed>
  <fix>3d</fix>
</trkpt>
<trkpt lat="-27.274439" lon="151.290064">
  <ele>343.1</ele>
  <time>2026-09-01T19:50:40Z</time>
  <course>7.09</course>
  <speed>0.0</speed>
  <fix>3d</fix>
</trkpt>
<trkpt lat="-27.274439" lon="151.290064">
  <ele>343.1</ele>
  <time>2026-09-01T19:50:40Z</time>
  <course>7.12</course>
  <speed>0.0</speed>
  <fix>3d</fix>
</trkpt>
<trkpt lat="-27.274439" lon="151.290064">
  <ele>343.1</ele>
  <time>2026-09-01T19:50:40Z</time>
  <course>7.09</course>
  <speed>0.0</speed>
  <fix>3d</fix>
</trkpt>
<trkpt lat="-27.274439" lon="151.290064">
  <ele>343.1</ele>
  <time>2026-09-01T19:50:40Z</time>
  <course>7.12</course>
  <speed>0.0</speed>
  <fix>3d</fix>
</trkpt>
<trkpt lat="-27.274439" lon="151.290064">
  <ele>343.1</ele>
  <time>2026-09-01T19:50:40Z</time>
  <course>7.09</course>
  <speed>0.0</speed>
  <fix>3d</fix>
</trkpt>
<trkpt lat="-27.274439" lon="151.290064">
  <ele>343.1</ele>
  <time>2026-09-01T19:50:40Z</time>
  <course>7.12</course>
  <speed>0.0</speed>
  <fix>3d</fix>
</trkpt>
<trkpt lat="-27.274439" lon="151.290064">
  <ele>343.1</ele>
  <time>2026-09-01T19:50:40Z</time>
  <course>7.09</course>
  <speed>0.0</speed>
  <fix>3d</fix>
</trkpt>
<trkpt lat="-27.274439" lon="151.290064">
  <ele>343.1</ele>
  <time>2026-09-01T19:50:40Z</time>
  <course>7.12</course>
  <speed>0.0</speed>
  <fix>3d</fix>
</trkpt>
<trkpt lat="-27.274439" lon="151.290064">
  <ele>343.1</ele>
  <time>2026-09-01T19:50:40Z</time>
  <course>7.09</course>
  <speed>0.0</speed>
  <fix>3d</fix>
</trkpt>
<trkpt lat="-27.274439" lon="151.290064">
  <ele>343.1</ele>
  <time>2026-09-01T19:50:40Z</time>
  <course>7.12</course>
  <speed>0.0</speed>
  <fix>3d</fix>
</trkpt>
<trkpt lat="-27.274439" lon="151.290064">
  <ele>343.1</ele>
  <time>2026-09-01T19:50:40Z</time>
  <course>7.09</course>
  <speed>0.0</speed>
  <fix>3d</fix>
</trkpt>
<trkpt lat="-27.274439" lon="151.290064">
  <ele>343.1</ele>
  <time>2026-09-01T19:50:40Z</time>
  <course>7.12</course>
  <speed>0.0</speed>
  <fix>3d</fix>
</trkpt>
<trkpt lat="-27.274439" lon="151.290064">
  <ele>343.1</ele>
  <time>2026-09-01T19:50:40Z</time>
  <course>7.09</course>
  <speed>0.0</speed>
  <fix>3d</fix>
</trkpt>
<trkpt lat="-27.274439" lon="151.290064">
  <ele>343.1</ele>
  <time>2026-09-01T19:50:40Z</time>
  <course>7.12</course>
  <speed>0.0</speed>
  <fix>3d</fix>
</trkpt>
<trkpt lat="-27.274439" lon="151.290064">
  <ele>343.1</ele>
  <time>2026-09-01T19:50:40Z</time>
  <course>7.09</course>
  <speed>0.0</speed>
  <fix>3d</fix>
</trkpt>
<trkpt lat="-27.274439" lon="151.290064">
  <ele>343.1</ele>
  <time>2026-09-01T19:50:40Z</time>
  <course>7.12</course>
  <speed>0.0</speed>
  <fix>3d</fix>
</trkpt>
<trkpt lat="-27.274439" lon="151.290064">
  <ele>343.1</ele>
  <time>2026-09-01T19:50:40Z</time>
  <course>7.09</course>
  <speed>0.0</speed>
  <fix>3d</fix>
</trkpt>
<trkpt lat="-27.274439" lon="151.290064">
  <ele>343.1</ele>
  <time>2026-09-01T19:50:40Z</time>
  <course>7.12</course>
  <speed>0.0</speed>
  <fix>3d</fix>
</trkpt>
<trkpt lat="-27.274439" lon="151.290064">
  <ele>343.1</ele>
  <time>2026-09-01T19:50:40Z</time>
  <course>7.09</course>
  <speed>0.0</speed>
  <fix>3d</fix>
</trkpt>
<trkpt lat="-27.274439" lon="151.290064">
  <ele>343.1</ele>
  <time>2026-09-01T19:50:40Z</time>
  <course>7.12</course>
  <speed>0.0</speed>
  <fix>3d</fix>
</trkpt>
<trkpt lat="-27.274439" lon="151.290064">
  <ele>343.1</ele>
  <time>2026-09-01T19:50:40Z</time>
  <course>7.09</course>
  <speed>0.0</speed>
  <fix>3d</fix>
</trkpt>
<trkpt lat="-27.274439" lon="151.290064">
  <ele>343.1</ele>
  <time>2026-09-01T19:50:40Z</time>
  <course>7.12</course>
  <speed>0.0</speed>
  <fix>3d</fix>
</trkpt>
<trkpt lat="-27.274439" lon="151.290064">
  <ele>343.1</ele>
  <time>2026-09-01T19:50:40Z</time>
  <course>7.09</course>
  <speed>0.0</speed>
  <fix>3d</fix>
</trkpt>
<trkpt lat="-27.274439" lon="151.290064">
  <ele>343.1</ele>
  <time>2026-09-01T19:50:40Z</time>
  <course>7.12</course>
  <speed>0.0</speed>
  <fix>3d</fix>
</trkpt>
<trkpt lat="-27.274439" lon="151.290064">
  <ele>343.1</ele>
  <time>2026-09-01T19:50:40Z</time>
  <course>7.09</course>
  <speed>0.0</speed>
  <fix>3d</fix>
</trkpt>
<trkpt lat="-27.274439" lon="151.290064">
  <ele>343.1</ele>
  <time>2026-09-01T19:50:40Z</time>
  <course>7.12</course>
  <speed>0.0</speed>
  <fix>3d</fix>
</trkpt>
<trkpt lat="-27.274439" lon="151.290064">
  <ele>343.1</ele>
  <time>2026-09-01T19:50:40Z</time>
  <course>7.09</course>
  <speed>0.0</speed>
  <fix>3d</fix>
</trkpt>
<trkpt lat="-27.274439" lon="151.290064">
  <ele>343.1</ele>
  <time>2026-09-01T19:50:40Z</time>
  <course>7.12</course>
  <speed>0.0</speed>
  <fix>3d</fix>
</trkpt>
<trkpt lat="-27.274439" lon="151.290064">
  <ele>343.1</ele>
  <time>2026-09-01T19:50:40Z</time>
  <course>7.09</course>
  <speed>0.0</speed>
  <fix>3d</fix>
</trkpt>
<trkpt lat="-27.274439" lon="151.290064">
  <ele>343.1</ele>
  <time>2026-09-01T19:50:40Z</time>
  <course>7.12</course>
  <speed>0.0</speed>
  <fix>3d</fix>
</trkpt>
<trkpt lat="-27.274439" lon="151.290064">
  <ele>343.1</ele>
  <time>2026-09-01T19:50:40Z</time>
  <course>7.09</course>
  <speed>0.0</speed>
  <fix>3d</fix>
</trkpt>
<trkpt lat="-27.274439" lon="151.290064">
  <ele>343.1</ele>
  <time>2026-09-01T19:50:40Z</time>
  <course>7.12</course>
  <speed>0.0</speed>
  <fix>3d</fix>
</trkpt>
<trkpt lat="-27.274439" lon="151.290064">
  <ele>343.1</ele>
  <time>2026-09-01T19:50:40Z</time>
  <course>7.09</course>
  <speed>0.0</speed>
  <fix>3d</fix>
</trkpt>
<trkpt lat="-27.274439" lon="151.290064">
  <ele>343.1</ele>
  <time>2026-09-01T19:50:40Z</time>
  <course>7.12</course>
  <speed>0.0</speed>
  <fix>3d</fix>
</trkpt>
<trkpt lat="-27.274439" lon="151.290064">
  <ele>343.1</ele>
  <time>2026-09-01T19:50:40Z</time>
  <course>7.09</course>
  <speed>0.0</speed>
  <fix>3d</fix>
</trkpt>
<trkpt lat="-27.274439" lon="151.290064">
  <ele>343.1</ele>
  <time>2026-09-01T19:50:40Z</time>
  <course>7.12</course>
  <speed>0.0</speed>
  <fix>3d</fix>
</trkpt>
<trkpt lat="-27.274439" lon="151.290064">
  <ele>343.1</ele>
  <time>2026-09-01T19:50:40Z</time>
  <course>7.09</course>
  <speed>0.0</speed>
  <fix>3d</fix>
</trkpt>
<trkpt lat="-27.274439" lon="151.290064">
  <ele>343.1</ele>
  <time>2026-09-01T19:50:40Z</time>
  <course>7.12</course>
  <speed>0.0</speed>
  <fix>3d</fix>
</trkpt>
<trkpt lat="-27.274439" lon="151.290064">
  <ele>343.1</ele>
  <time>2026-09-01T19:50:40Z</time>
  <course>7.09</course>
  <speed>0.0</speed>
  <fix>3d</fix>
</trkpt>
<trkpt lat="-27.274439" lon="151.290064">
  <ele>343.1</ele>
  <time>2026-09-01T19:50:40Z</time>
  <course>7.12</course>
  <speed>0.0</speed>
  <fix>3d</fix>
</trkpt>
<trkpt lat="-27.274439" lon="151.290064">
  <ele>343.1</ele>
  <time>2026-09-01T19:50:40Z</time>
  <course>7.09</course>
  <speed>0.0</speed>
  <fix>3d</fix>
</trkpt>
<trkpt lat="-27.274439" lon="151.290064">
  <ele>343.1</ele>
  <time>2026-09-01T19:50:40Z</time>
  <course>7.12</course>
  <speed>0.0</speed>
  <fix>3d</fix>
</trkpt>
<trkpt lat="-27.274439" lon="151.290064">
  <ele>343.1</ele>
  <time>2026-09-01T19:50:40Z</time>
  <course>7.09</course>
  <speed>0.0</speed>
  <fix>3d</fix>
</trkpt>
<trkpt lat="-27.274439" lon="151.290064">
  <ele>343.1</ele>
  <time>2026-09-01T19:50:40Z</time>
  <course>7.12</course>
  <speed>0.0</speed>
  <fix>3d</fix>
</trkpt>
<trkpt lat="-27.274439" lon="151.290064">
  <ele>343.1</ele>
  <time>2026-09-01T19:50:40Z</time>
  <course>7.09</course>
  <speed>0.0</speed>
  <fix>3d</fix>
</trkpt>
<trkpt lat="-27.274439" lon="151.290064">
  <ele>343.1</ele>
  <time>2026-09-01T19:50:40Z</time>
  <course>7.12</course>
  <speed>0.0</speed>
  <fix>3d</fix>
</trkpt>
<trkpt lat="-27.274439" lon="151.290064">
  <ele>343.1</ele>
  <time>2026-09-01T19:50:40Z</time>
  <course>7.09</course>
  <speed>0.0</speed>
  <fix>3d</fix>
</trkpt>
<trkpt lat="-27.274439" lon="151.290064">
  <ele>343.1</ele>
  <time>2026-09-01T19:50:40Z</time>
  <course>7.12</course>
  <speed>0.0</speed>
  <fix>3d</fix>
</trkpt>
<trkpt lat="-27.274439" lon="151.290064">
  <ele>343.1</ele>
  <time>2026-09-01T19:50:40Z</time>
  <course>7.09</course>
  <speed>0.0</speed>
  <fix>3d</fix>
</trkpt>
<trkpt lat="-27.274439" lon="151.290064">
  <ele>343.1</ele>
  <time>2026-09-01T19:50:40Z</time>
  <course>7.12</course>
  <speed>0.0</speed>
  <fix>3d</fix>
</trkpt>
<trkpt lat="-27.274439" lon="151.290064">
  <ele>343.1</ele>
  <time>2026-09-01T19:50:40Z</time>
  <course>7.09</course>
  <speed>0.0</speed>
  <fix>3d</fix>
</trkpt>
<trkpt lat="-27.274439" lon="151.290064">
  <ele>343.1</ele>
  <time>2026-09-01T19:50:40Z</time>
  <course>7.12</course>
  <speed>0.0</speed>
  <fix>3d</fix>
</trkpt>
<trkpt lat="-27.274439" lon="151.290064">
  <ele>343.1</ele>
  <time>2026-09-01T19:50:40Z</time>
  <course>7.09</course>
  <speed>0.0</speed>
  <fix>3d</fix>
</trkpt>
<trkpt lat="-27.274439" lon="151.290064">
  <ele>343.1</ele>
  <time>2026-09-01T19:50:40Z</time>
  <course>7.12</course>
  <speed>0.0</speed>
  <fix>3d</fix>
</trkpt>
<trkpt lat="-27.274439" lon="151.290064">
  <ele>343.1</ele>
  <time>2026-09-01T19:50:40Z</time>
  <course>7.09</course>
  <speed>0.0</speed>
  <fix>3d</fix>
</trkpt>
<trkpt lat="-27.274439" lon="151.290064">
  <ele>343.1</ele>
  <time>2026-09-01T19:50:40Z</time>
  <course>7.12</course>
  <speed>0.0</speed>
  <fix>3d</fix>
</trkpt>
<trkpt lat="-27.274439" lon="151.290064">
  <ele>343.1</ele>
  <time>2026-09-01T19:50:40Z</time>
  <course>7.09</course>
  <speed>0.0</speed>
  <fix>3d</fix>
</trkpt>
<trkpt lat="-27.274439" lon="151.290064">
  <ele>343.1</ele>
  <time>2026-09-01T19:50:40Z</time>
  <course>7.12</course>
  <speed>0.0</speed>
  <fix>3d</fix>
</trkpt>
<trkpt lat="-27.274439" lon="151.290064">
  <ele>343.1</ele>
  <time>2026-09-01T19:50:40Z</time>
  <course>7.09</course>
  <speed>0.0</speed>
  <fix>3d</fix>
</trkpt>
<trkpt lat="-27.274439" lon="151.290064">
  <ele>343.1</ele>
  <time>2026-09-01T19:50:40Z</time>
  <course>7.12</course>
  <speed>0.0</speed>
  <fix>3d</fix>
</trkpt>
<trkpt lat="-27.274439" lon="151.290064">
  <ele>343.1</ele>
  <time>2026-09-01T19:50:40Z</time>
  <course>7.09</course>
  <speed>0.0</speed>
  <fix>3d</fix>
</trkpt>
<trkpt lat="-27.274439" lon="151.290064">
  <ele>343.1</ele>
  <time>2026-09-01T19:50:40Z</time>
  <course>7.12</course>
  <speed>0.0</speed>
  <fix>3d</fix>
</trkpt>
<trkpt lat="-27.274439" lon="151.290064">
  <ele>343.1</ele>
  <time>2026-09-01T19:50:40Z</time>
  <course>7.09</course>
  <speed>0.0</speed>
  <fix>3d</fix>
</trkpt>
<trkpt lat="-27.274439" lon="151.290064">
  <ele>343.1</ele>
  <time>2026-09-01T19:50:40Z</time>
  <course>7.12</course>
  <speed>0.0</speed>
  <fix>3d</fix>
</trkpt>
<trkpt lat="-27.274439" lon="151.290064">
  <ele>343.1</ele>
  <time>2026-09-01T19:50:40Z</time>
  <course>7.09</course>
  <speed>0.0</speed>
  <fix>3d</fix>
</trkpt>
<trkpt lat="-27.274439" lon="151.290064">
  <ele>343.1</ele>
  <time>2026-09-01T19:50:40Z</time>
  <course>7.12</course>
  <speed>0.0</speed>
  <fix>3d</fix>
</trkpt>
<trkpt lat="-27.274439" lon="151.290064">
  <ele>343.1</ele>
  <time>2026-09-01T19:50:40Z</time>
  <course>7.09</course>
  <speed>0.0</speed>
  <fix>3d</fix>
</trkpt>
<trkpt lat="-27.274439" lon="151.290064">
  <ele>343.1</ele>
  <time>2026-09-01T19:50:40Z</time>
  <course>7.12</course>
  <speed>0.0</speed>
  <fix>3d</fix>
</trkpt>
<trkpt lat="-27.274439" lon="151.290064">
  <ele>343.1</ele>
  <time>2026-09-01T19:50:40Z</time>
  <course>7.09</course>
  <speed>0.0</speed>
  <fix>3d</fix>
</trkpt>
<trkpt lat="-27.274439" lon="151.290064">
  <ele>343.1</ele>
  <time>2026-09-01T19:50:40Z</time>
  <course>7.12</course>
  <speed>0.0</speed>
  <fix>3d</fix>
</trkpt>
<trkpt lat="-27.274439" lon="151.290064">
  <ele>343.1</ele>
  <time>2026-09-01T19:50:40Z</time>
  <course>7.09</course>
  <speed>0.0</speed>
  <fix>3d</fix>
</trkpt>
<trkpt lat="-27.274439" lon="151.290064">
  <ele>343.1</ele>
  <time>2026-09-01T19:50:40Z</time>
  <course>7.12</course>
  <speed>0.0</speed>
  <fix>3d</fix>
</trkpt>
<trkpt lat="-27.274439" lon="151.290064">
  <ele>343.1</ele>
  <time>2026-09-01T19:50:40Z</time>
  <course>7.09</course>
  <speed>0.0</speed>
  <fix>3d</fix>
</trkpt>
<trkpt lat="-27.274439" lon="151.290064">
  <ele>343.1</ele>
  <time>2026-09-01T19:50:40Z</time>
  <course>7.12</course>
  <speed>0.0</speed>
  <fix>3d</fix>
</trkpt>
<trkpt lat="-27.274439" lon="151.290064">
  <ele>343.1</ele>
  <time>2026-09-01T19:50:40Z</time>
  <course>7.09</course>
  <speed>0.0</speed>
  <fix>3d</fix>
</trkpt>
<trkpt lat="-27.274439" lon="151.290064">
  <ele>343.1</ele>
  <time>2026-09-01T19:50:40Z</time>
  <course>7.12</course>
  <speed>0.0</speed>
  <fix>3d</fix>
</trkpt>
<trkpt lat="-27.274439" lon="151.290064">
  <ele>343.1</ele>
  <time>2026-09-01T19:50:40Z</time>
  <course>7.09</course>
  <speed>0.0</speed>
  <fix>3d</fix>
</trkpt>
<trkpt lat="-27.274439" lon="151.290064">
  <ele>343.1</ele>
  <time>2026-09-01T19:50:40Z</time>
  <course>7.12</course>
  <speed>0.0</speed>
  <fix>3d</fix>
</trkpt>
<trkpt lat="-27.274439" lon="151.290064">
  <ele>343.1</ele>
  <time>2026-09-01T19:50:40Z</time>
  <course>7.09</course>
  <speed>0.0</speed>
  <fix>3d</fix>
</trkpt>
<trkpt lat="-27.274439" lon="151.290064">
  <ele>343.1</ele>
  <time>2026-09-01T19:50:40Z</time>
  <course>7.12</course>
  <speed>0.0</speed>
  <fix>3d</fix>
</trkpt>
<trkpt lat="-27.274439" lon="151.290064">
  <ele>343.1</ele>
  <time>2026-09-01T19:50:40Z</time>
  <course>7.09</course>
  <speed>0.0</speed>
  <fix>3d</fix>
</trkpt>
<trkpt lat="-27.274439" lon="151.290064">
  <ele>343.1</ele>
  <time>2026-09-01T19:50:40Z</time>
  <course>7.12</course>
  <speed>0.0</speed>
  <fix>3d</fix>
</trkpt>
<trkpt lat="-27.274439" lon="151.290064">
  <ele>343.1</ele>
  <time>2026-09-01T19:50:40Z</time>
  <course>7.09</course>
  <speed>0.0</speed>
  <fix>3d</fix>
</trkpt>
<trkpt lat="-27.274439" lon="151.290064">
  <ele>343.1</ele>
  <time>2026-09-01T19:50:40Z</time>
  <course>7.12</course>
  <speed>0.0</speed>
  <fix>3d</fix>
</trkpt>
<trkpt lat="-27.274439" lon="151.290064">
  <ele>343.1</ele>
  <time>2026-09-01T19:50:40Z</time>
  <course>7.09</course>
  <speed>0.0</speed>
  <fix>3d</fix>
</trkpt>
<trkpt lat="-27.274439" lon="151.290064">
  <ele>343.1</ele>
  <time>2026-09-01T19:50:40Z</time>
  <course>7.12</course>
  <speed>0.0</speed>
  <fix>3d</fix>
</trkpt>
<trkpt lat="-27.274439" lon="151.290064">
  <ele>343.1</ele>
  <time>2026-09-01T19:50:40Z</time>
  <course>7.09</course>
  <speed>0.0</speed>
  <fix>3d</fix>
</trkpt>
<trkpt lat="-27.274439" lon="151.290064">
  <ele>343.1</ele>
  <time>2026-09-01T19:50:40Z</time>
  <course>7.12</course>
  <speed>0.0</speed>
  <fix>3d</fix>
</trkpt>
<trkpt lat="-27.274439" lon="151.290064">
  <ele>343.1</ele>
  <time>2026-09-01T19:50:40Z</time>
  <course>7.09</course>
  <speed>0.0</speed>
  <fix>3d</fix>
</trkpt>
<trkpt lat="-27.274439" lon="151.290064">
  <ele>343.1</ele>
  <time>2026-09-01T19:50:40Z</time>
  <course>7.12</course>
  <speed>0.0</speed>
  <fix>3d</fix>
</trkpt>
<trkpt lat="-27.274439" lon="151.290064">
  <ele>343.1</ele>
  <time>2026-09-01T19:50:40Z</time>
  <course>7.09</course>
  <speed>0.0</speed>
  <fix>3d</fix>
</trkpt>
<trkpt lat="-27.274439" lon="151.290064">
  <ele>343.1</ele>
  <time>2026-09-01T19:50:40Z</time>
  <course>7.12</course>
  <speed>0.0</speed>
  <fix>3d</fix>
</trkpt>
<trkpt lat="-27.274439" lon="151.290064">
  <ele>343.1</ele>
  <time>2026-09-01T19:50:40Z</time>
  <course>7.09</course>
  <speed>0.0</speed>
  <fix>3d</fix>
</trkpt>
<trkpt lat="-27.274439" lon="151.290064">
  <ele>343.1</ele>
  <time>2026-09-01T19:50:40Z</time>
  <course>7.12</course>
  <speed>0.0</speed>
  <fix>3d</fix>
</trkpt>
<trkpt lat="-27.274439" lon="151.290064">
  <ele>343.1</ele>
  <time>2026-09-01T19:50:40Z</time>
  <course>7.09</course>
  <speed>0.0</speed>
  <fix>3d</fix>
</trkpt>
<trkpt lat="-27.274439" lon="151.290064">
  <ele>343.1</ele>
  <time>2026-09-01T19:50:40Z</time>
  <course>7.12</course>
  <speed>0.0</speed>
  <fix>3d</fix>
</trkpt>
<trkpt lat="-27.274439" lon="151.290064">
  <ele>343.1</ele>
  <time>2026-09-01T19:50:40Z</time>
  <course>7.09</course>
  <speed>0.0</speed>
  <fix>3d</fix>
</trkpt>
<trkpt lat="-27.274439" lon="151.290064">
  <ele>343.1</ele>
  <time>2026-09-01T19:50:40Z</time>
  <course>7.12</course>
  <speed>0.0</speed>
  <fix>3d</fix>
</trkpt>
<trkpt lat="-27.274439" lon="151.290064">
  <ele>343.1</ele>
  <time>2026-09-01T19:50:40Z</time>
  <course>7.09</course>
  <speed>0.0</speed>
  <fix>3d</fix>
</trkpt>
<trkpt lat="-27.274439" lon="151.290064">
  <ele>343.1</ele>
  <time>2026-09-01T19:50:40Z</time>
  <course>7.12</course>
  <speed>0.0</speed>
  <fix>3d</fix>
</trkpt>
<trkpt lat="-27.274439" lon="151.290064">
  <ele>343.1</ele>
  <time>2026-09-01T19:50:40Z</time>
  <course>7.09</course>
  <speed>0.0</speed>
  <fix>3d</fix>
</trkpt>
<trkpt lat="-27.274439" lon="151.290064">
  <ele>343.1</ele>
  <time>2026-09-01T19:50:40Z</time>
  <course>7.12</course>
  <speed>0.0</speed>
  <fix>3d</fix>
</trkpt>
<trkpt lat="-27.274439" lon="151.290064">
  <ele>343.1</ele>
  <time>2026-09-01T19:50:40Z</time>
  <course>7.09</course>
  <speed>0.0</speed>
  <fix>3d</fix>
</trkpt>
<trkpt lat="-27.274439" lon="151.290064">
  <ele>343.1</ele>
  <time>2026-09-01T19:50:40Z</time>
  <course>7.12</course>
  <speed>0.0</speed>
  <fix>3d</fix>
</trkpt>
<trkpt lat="-27.274439" lon="151.290064">
  <ele>343.1</ele>
  <time>2026-09-01T19:50:40Z</time>
  <course>7.09</course>
  <speed>0.0</speed>
  <fix>3d</fix>
</trkpt>
<trkpt lat="-27.274439" lon="151.290064">
  <ele>343.1</ele>
  <time>2026-09-01T19:50:40Z</time>
  <course>7.12</course>
  <speed>0.0</speed>
  <fix>3d</fix>
</trkpt>
<trkpt lat="-27.274439" lon="151.290064">
  <ele>343.1</ele>
  <time>2026-09-01T19:50:40Z</time>
  <course>7.09</course>
  <speed>0.0</speed>
  <fix>3d</fix>
</trkpt>
<trkpt lat="-27.274439" lon="151.290064">
  <ele>343.1</ele>
  <time>2026-09-01T19:50:40Z</time>
  <course>7.12</course>
  <speed>0.0</speed>
  <fix>3d</fix>
</trkpt>
<trkpt lat="-27.274439" lon="151.290064">
  <ele>343.1</ele>
  <time>2026-09-01T19:50:40Z</time>
  <course>7.09</course>
  <speed>0.0</speed>
  <fix>3d</fix>
</trkpt>
<trkpt lat="-27.274439" lon="151.290064">
  <ele>343.1</ele>
  <time>2026-09-01T19:50:40Z</time>
  <course>7.12</course>
  <speed>0.0</speed>
  <fix>3d</fix>
</trkpt>
<trkpt lat="-27.274439" lon="151.290064">
  <ele>343.1</ele>
  <time>2026-09-01T19:50:40Z</time>
  <course>7.09</course>
  <speed>0.0</speed>
  <fix>3d</fix>
</trkpt>
<trkpt lat="-27.274439" lon="151.290064">
  <ele>343.1</ele>
  <time>2026-09-01T19:50:40Z</time>
  <course>7.12</course>
  <speed>0.0</speed>
  <fix>3d</fix>
</trkpt>
<trkpt lat="-27.274439" lon="151.290064">
  <ele>343.1</ele>
  <time>2026-09-01T19:50:40Z</time>
  <course>7.09</course>
  <speed>0.0</speed>
  <fix>3d</fix>
</trkpt>
<trkpt lat="-27.274439" lon="151.290064">
  <ele>343.1</ele>
  <time>2026-09-01T19:50:40Z</time>
  <course>7.12</course>
  <speed>0.0</speed>
  <fix>3d</fix>
</trkpt>
<trkpt lat="-27.274439" lon="151.290064">
  <ele>343.1</ele>
  <time>2026-09-01T19:50:40Z</time>
  <course>7.09</course>
  <speed>0.0</speed>
  <fix>3d</fix>
</trkpt>
<trkpt lat="-27.274439" lon="151.290064">
  <ele>343.1</ele>
  <time>2026-09-01T19:50:40Z</time>
  <course>7.12</course>
  <speed>0.0</speed>
  <fix>3d</fix>
</trkpt>
<trkpt lat="-27.274439" lon="151.290064">
  <ele>343.1</ele>
  <time>2026-09-01T19:50:40Z</time>
  <course>7.09</course>
  <speed>0.0</speed>
  <fix>3d</fix>
</trkpt>
<trkpt lat="-27.274439" lon="151.290064">
  <ele>343.1</ele>
  <time>2026-09-01T19:50:40Z</time>
  <course>7.12</course>
  <speed>0.0</speed>
  <fix>3d</fix>
</trkpt>
<trkpt lat="-27.274439" lon="151.290064">
  <ele>343.1</ele>
  <time>2026-09-01T19:50:40Z</time>
  <course>7.09</course>
  <speed>0.0</speed>
  <fix>3d</fix>
</trkpt>
<trkpt lat="-27.274439" lon="151.290064">
  <ele>343.1</ele>
  <time>2026-09-01T19:50:40Z</time>
  <course>7.12</course>
  <speed>0.0</speed>
  <fix>3d</fix>
</trkpt>
<trkpt lat="-27.274439" lon="151.290064">
  <ele>343.1</ele>
  <time>2026-09-01T19:50:40Z</time>
  <course>7.09</course>
  <speed>0.0</speed>
  <fix>3d</fix>
</trkpt>
<trkpt lat="-27.274439" lon="151.290064">
  <ele>343.1</ele>
  <time>2026-09-01T19:50:40Z</time>
  <course>7.12</course>
  <speed>0.0</speed>
  <fix>3d</fix>
</trkpt>
<trkpt lat="-27.274439" lon="151.290064">
  <ele>343.1</ele>
  <time>2026-09-01T19:50:40Z</time>
  <course>7.09</course>
  <speed>0.0</speed>
  <fix>3d</fix>
</trkpt>
<trkpt lat="-27.274439" lon="151.290064">
  <ele>343.1</ele>
  <time>2026-09-01T19:50:40Z</time>
  <course>7.12</course>
  <speed>0.0</speed>
  <fix>3d</fix>
</trkpt>
<trkpt lat="-27.274439" lon="151.290064">
  <ele>343.1</ele>
  <time>2026-09-01T19:50:40Z</time>
  <course>7.09</course>
  <speed>0.0</speed>
  <fix>3d</fix>
</trkpt>
<trkpt lat="-27.274439" lon="151.290064">
  <ele>343.1</ele>
  <time>2026-09-01T19:50:40Z</time>
  <course>7.12</course>
  <speed>0.0</speed>
  <fix>3d</fix>
</trkpt>
<trkpt lat="-27.274439" lon="151.290064">
  <ele>343.1</ele>
  <time>2026-09-01T19:50:40Z</time>
  <course>7.09</course>
  <speed>0.0</speed>
  <fix>3d</fix>
</trkpt>
<trkpt lat="-27.274439" lon="151.290064">
  <ele>343.1</ele>
  <time>2026-09-01T19:50:40Z</time>
  <course>7.12</course>
  <speed>0.0</speed>
  <fix>3d</fix>
</trkpt>
<trkpt lat="-27.274439" lon="151.290064">
  <ele>343.1</ele>
  <time>2026-09-01T19:50:40Z</time>
  <course>7.09</course>
  <speed>0.0</speed>
  <fix>3d</fix>
</trkpt>
<trkpt lat="-27.274439" lon="151.290064">
  <ele>343.1</ele>
  <time>2026-09-01T19:50:40Z</time>
  <course>7.12</course>
  <speed>0.0</speed>
  <fix>3d</fix>
</trkpt>
<trkpt lat="-27.274439" lon="151.290064">
  <ele>343.1</ele>
  <time>2026-09-01T19:50:40Z</time>
  <course>7.09</course>
  <speed>0.0</speed>
  <fix>3d</fix>
</trkpt>
<trkpt lat="-27.274439" lon="151.290064">
  <ele>343.1</ele>
  <time>2026-09-01T19:50:40Z</time>
  <course>7.12</course>
  <speed>0.0</speed>
  <fix>3d</fix>
</trkpt>
<trkpt lat="-27.274439" lon="151.290064">
  <ele>343.1</ele>
  <time>2026-09-01T19:50:40Z</time>
  <course>7.09</course>
  <speed>0.0</speed>
  <fix>3d</fix>
</trkpt>
<trkpt lat="-27.274439" lon="151.290064">
  <ele>343.1</ele>
  <time>2026-09-01T19:50:40Z</time>
  <course>7.12</course>
  <speed>0.0</speed>
  <fix>3d</fix>
</trkpt>
<trkpt lat="-27.274439" lon="151.290064">
  <ele>343.1</ele>
  <time>2026-09-01T19:50:40Z</time>
  <course>7.09</course>
  <speed>0.0</speed>
  <fix>3d</fix>
</trkpt>
<trkpt lat="-27.274439" lon="151.290064">
  <ele>343.1</ele>
  <time>2026-09-01T19:50:40Z</time>
  <course>7.12</course>
  <speed>0.0</speed>
  <fix>3d</fix>
</trkpt>
<trkpt lat="-27.274439" lon="151.290064">
  <ele>343.1</ele>
  <time>2026-09-01T19:50:40Z</time>
  <course>7.09</course>
  <speed>0.0</speed>
  <fix>3d</fix>
</trkpt>
<trkpt lat="-27.274439" lon="151.290064">
  <ele>343.1</ele>
  <time>2026-09-01T19:50:40Z</time>
  <course>7.12</course>
  <speed>0.0</speed>
  <fix>3d</fix>
</trkpt>
<trkpt lat="-27.274439" lon="151.290064">
  <ele>343.1</ele>
  <time>2026-09-01T19:50:40Z</time>
  <course>7.09</course>
  <speed>0.0</speed>
  <fix>3d</fix>
</trkpt>
<trkpt lat="-27.274439" lon="151.290064">
  <ele>343.1</ele>
  <time>2026-09-01T19:50:40Z</time>
  <course>7.12</course>
  <speed>0.0</speed>
  <fix>3d</fix>
</trkpt>
<trkpt lat="-27.274439" lon="151.290064">
  <ele>343.1</ele>
  <time>2026-09-01T19:50:40Z</time>
  <course>7.09</course>
  <speed>0.0</speed>
  <fix>3d</fix>
</trkpt>
<trkpt lat="-27.274439" lon="151.290064">
  <ele>343.1</ele>
  <time>2026-09-01T19:50:40Z</time>
  <course>7.12</course>
  <speed>0.0</speed>
  <fix>3d</fix>
</trkpt>
<trkpt lat="-27.274439" lon="151.290064">
  <ele>343.1</ele>
  <time>2026-09-01T19:50:40Z</time>
  <course>7.09</course>
  <speed>0.0</speed>
  <fix>3d</fix>
</trkpt>
<trkpt lat="-27.274439" lon="151.290064">
  <ele>343.1</ele>
  <time>2026-09-01T19:50:40Z</time>
  <course>7.12</course>
  <speed>0.0</speed>
  <fix>3d</fix>
</trkpt>
<trkpt lat="-27.274439" lon="151.290064">
  <ele>343.1</ele>
  <time>2026-09-01T19:50:40Z</time>
  <course>7.09</course>
  <speed>0.0</speed>
  <fix>3d</fix>
</trkpt>
<trkpt lat="-27.274439" lon="151.290064">
  <ele>343.1</ele>
  <time>2026-09-01T19:50:40Z</time>
  <course>7.12</course>
  <speed>0.0</speed>
  <fix>3d</fix>
</trkpt>
<trkpt lat="-27.274439" lon="151.290064">
  <ele>343.1</ele>
  <time>2026-09-01T19:50:40Z</time>
  <course>7.09</course>
  <speed>0.0</speed>
  <fix>3d</fix>
</trkpt>
<trkpt lat="-27.274439" lon="151.290064">
  <ele>343.1</ele>
  <time>2026-09-01T19:50:40Z</time>
  <course>7.12</course>
  <speed>0.0</speed>
  <fix>3d</fix>
</trkpt>
<trkpt lat="-27.274439" lon="151.290064">
  <ele>343.1</ele>
  <time>2026-09-01T19:50:40Z</time>
  <course>7.09</course>
  <speed>0.0</speed>
  <fix>3d</fix>
</trkpt>
<trkpt lat="-27.274439" lon="151.290064">
  <ele>343.1</ele>
  <time>2026-09-01T19:50:40Z</time>
  <course>7.12</course>
  <speed>0.0</speed>
  <fix>3d</fix>
</trkpt>
<trkpt lat="-27.274439" lon="151.290064">
  <ele>343.1</ele>
  <time>2026-09-01T19:50:41Z</time>
  <course>7.09</course>
  <speed>0.0</speed>
  <fix>3d</fix>
</trkpt>
<trkpt lat="-27.274439" lon="151.290064">
  <ele>343.1</ele>
  <time>2026-09-01T19:50:41Z</time>
  <course>7.12</course>
  <speed>0.0</speed>
  <fix>3d</fix>
</trkpt>
<trkpt lat="-27.274439" lon="151.290064">
  <ele>343.1</ele>
  <time>2026-09-01T19:50:41Z</time>
  <course>7.09</course>
  <speed>0.0</speed>
  <fix>3d</fix>
</trkpt>
<trkpt lat="-27.274439" lon="151.290064">
  <ele>343.1</ele>
  <time>2026-09-01T19:50:41Z</time>
  <course>7.12</course>
  <speed>0.0</speed>
  <fix>3d</fix>
</trkpt>
<trkpt lat="-27.274439" lon="151.290064">
  <ele>343.1</ele>
  <time>2026-09-01T19:50:41Z</time>
  <course>7.09</course>
  <speed>0.0</speed>
  <fix>3d</fix>
</trkpt>
<trkpt lat="-27.274439" lon="151.290064">
  <ele>343.1</ele>
  <time>2026-09-01T19:50:41Z</time>
  <course>7.12</course>
  <speed>0.0</speed>
  <fix>3d</fix>
</trkpt>
<trkpt lat="-27.274439" lon="151.290064">
  <ele>343.1</ele>
  <time>2026-09-01T19:50:41Z</time>
  <course>7.09</course>
  <speed>0.0</speed>
  <fix>3d</fix>
</trkpt>
<trkpt lat="-27.274439" lon="151.290064">
  <ele>343.1</ele>
  <time>2026-09-01T19:50:41Z</time>
  <course>7.12</course>
  <speed>0.0</speed>
  <fix>3d</fix>
</trkpt>
<trkpt lat="-27.274439" lon="151.290064">
  <ele>343.1</ele>
  <time>2026-09-01T19:50:41Z</time>
  <course>7.09</course>
  <speed>0.0</speed>
  <fix>3d</fix>
</trkpt>
<trkpt lat="-27.274439" lon="151.290064">
  <ele>343.1</ele>
  <time>2026-09-01T19:50:41Z</time>
  <course>7.12</course>
  <speed>0.0</speed>
  <fix>3d</fix>
</trkpt>
<trkpt lat="-27.274439" lon="151.290064">
  <ele>343.1</ele>
  <time>2026-09-01T19:50:41Z</time>
  <course>7.09</course>
  <speed>0.0</speed>
  <fix>3d</fix>
</trkpt>
<trkpt lat="-27.274439" lon="151.290064">
  <ele>343.1</ele>
  <time>2026-09-01T19:50:41Z</time>
  <course>7.12</course>
  <speed>0.0</speed>
  <fix>3d</fix>
</trkpt>
<trkpt lat="-27.274439" lon="151.290064">
  <ele>343.1</ele>
  <time>2026-09-01T19:50:41Z</time>
  <course>7.09</course>
  <speed>0.0</speed>
  <fix>3d</fix>
</trkpt>
<trkpt lat="-27.274439" lon="151.290064">
  <ele>343.1</ele>
  <time>2026-09-01T19:50:41Z</time>
  <course>7.12</course>
  <speed>0.0</speed>
  <fix>3d</fix>
</trkpt>
<trkpt lat="-27.274439" lon="151.290064">
  <ele>343.1</ele>
  <time>2026-09-01T19:50:41Z</time>
  <course>7.09</course>
  <speed>0.0</speed>
  <fix>3d</fix>
</trkpt>
<trkpt lat="-27.274439" lon="151.290064">
  <ele>343.1</ele>
  <time>2026-09-01T19:50:41Z</time>
  <course>7.12</course>
  <speed>0.0</speed>
  <fix>3d</fix>
</trkpt>
<trkpt lat="-27.274439" lon="151.290064">
  <ele>343.1</ele>
  <time>2026-09-01T19:50:41Z</time>
  <course>7.09</course>
  <speed>0.0</speed>
  <fix>3d</fix>
</trkpt>
<trkpt lat="-27.274439" lon="151.290064">
  <ele>343.1</ele>
  <time>2026-09-01T19:50:41Z</time>
  <course>7.12</course>
  <speed>0.0</speed>
  <fix>3d</fix>
</trkpt>
<trkpt lat="-27.274439" lon="151.290064">
  <ele>343.1</ele>
  <time>2026-09-01T19:50:41Z</time>
  <course>7.09</course>
  <speed>0.0</speed>
  <fix>3d</fix>
</trkpt>
<trkpt lat="-27.274439" lon="151.290064">
  <ele>343.1</ele>
  <time>2026-09-01T19:50:41Z</time>
  <course>7.12</course>
  <speed>0.0</speed>
  <fix>3d</fix>
</trkpt>
<trkpt lat="-27.274439" lon="151.290064">
  <ele>343.1</ele>
  <time>2026-09-01T19:50:41Z</time>
  <course>7.09</course>
  <speed>0.0</speed>
  <fix>3d</fix>
</trkpt>
<trkpt lat="-27.274439" lon="151.290064">
  <ele>343.1</ele>
  <time>2026-09-01T19:50:41Z</time>
  <course>7.12</course>
  <speed>0.0</speed>
  <fix>3d</fix>
</trkpt>
<trkpt lat="-27.274439" lon="151.290064">
  <ele>343.1</ele>
  <time>2026-09-01T19:50:41Z</time>
  <course>7.09</course>
  <speed>0.0</speed>
  <fix>3d</fix>
</trkpt>
<trkpt lat="-27.274439" lon="151.290064">
  <ele>343.1</ele>
  <time>2026-09-01T19:50:41Z</time>
  <course>7.12</course>
  <speed>0.0</speed>
  <fix>3d</fix>
</trkpt>
<trkpt lat="-27.274439" lon="151.290064">
  <ele>343.1</ele>
  <time>2026-09-01T19:50:41Z</time>
  <course>7.09</course>
  <speed>0.0</speed>
  <fix>3d</fix>
</trkpt>
<trkpt lat="-27.274439" lon="151.290064">
  <ele>343.1</ele>
  <time>2026-09-01T19:50:41Z</time>
  <course>7.12</course>
  <speed>0.0</speed>
  <fix>3d</fix>
</trkpt>
<trkpt lat="-27.274439" lon="151.290064">
  <ele>343.1</ele>
  <time>2026-09-01T19:50:41Z</time>
  <course>7.09</course>
  <speed>0.0</speed>
  <fix>3d</fix>
</trkpt>
<trkpt lat="-27.274439" lon="151.290064">
  <ele>343.1</ele>
  <time>2026-09-01T19:50:41Z</time>
  <course>7.12</course>
  <speed>0.0</speed>
  <fix>3d</fix>
</trkpt>
<trkpt lat="-27.274439" lon="151.290064">
  <ele>343.1</ele>
  <time>2026-09-01T19:50:41Z</time>
  <course>7.09</course>
  <speed>0.0</speed>
  <fix>3d</fix>
</trkpt>
<trkpt lat="-27.274439" lon="151.290064">
  <ele>343.1</ele>
  <time>2026-09-01T19:50:41Z</time>
  <course>7.12</course>
  <speed>0.0</speed>
  <fix>3d</fix>
</trkpt>
<trkpt lat="-27.274439" lon="151.290064">
  <ele>343.1</ele>
  <time>2026-09-01T19:50:41Z</time>
  <course>7.09</course>
  <speed>0.0</speed>
  <fix>3d</fix>
</trkpt>
<trkpt lat="-27.274439" lon="151.290064">
  <ele>343.1</ele>
  <time>2026-09-01T19:50:41Z</time>
  <course>7.12</course>
  <speed>0.0</speed>
  <fix>3d</fix>
</trkpt>
<trkpt lat="-27.274439" lon="151.290064">
  <ele>343.1</ele>
  <time>2026-09-01T19:50:41Z</time>
  <course>7.09</course>
  <speed>0.0</speed>
  <fix>3d</fix>
</trkpt>
<trkpt lat="-27.274439" lon="151.290064">
  <ele>343.1</ele>
  <time>2026-09-01T19:50:41Z</time>
  <course>7.12</course>
  <speed>0.0</speed>
  <fix>3d</fix>
</trkpt>
<trkpt lat="-27.274439" lon="151.290064">
  <ele>343.1</ele>
  <time>2026-09-01T19:50:41Z</time>
  <course>7.09</course>
  <speed>0.0</speed>
  <fix>3d</fix>
</trkpt>
<trkpt lat="-27.274439" lon="151.290064">
  <ele>343.1</ele>
  <time>2026-09-01T19:50:41Z</time>
  <course>7.12</course>
  <speed>0.0</speed>
  <fix>3d</fix>
</trkpt>
<trkpt lat="-27.274439" lon="151.290064">
  <ele>343.1</ele>
  <time>2026-09-01T19:50:41Z</time>
  <course>7.09</course>
  <speed>0.0</speed>
  <fix>3d</fix>
</trkpt>
<trkpt lat="-27.274439" lon="151.290064">
  <ele>343.1</ele>
  <time>2026-09-01T19:50:41Z</time>
  <course>7.12</course>
  <speed>0.0</speed>
  <fix>3d</fix>
</trkpt>
<trkpt lat="-27.274439" lon="151.290064">
  <ele>343.1</ele>
  <time>2026-09-01T19:50:41Z</time>
  <course>7.09</course>
  <speed>0.0</speed>
  <fix>3d</fix>
</trkpt>
<trkpt lat="-27.274439" lon="151.290064">
  <ele>343.1</ele>
  <time>2026-09-01T19:50:41Z</time>
  <course>7.12</course>
  <speed>0.0</speed>
  <fix>3d</fix>
</trkpt>
<trkpt lat="-27.274439" lon="151.290064">
  <ele>343.1</ele>
  <time>2026-09-01T19:50:41Z</time>
  <course>7.09</course>
  <speed>0.0</speed>
  <fix>3d</fix>
</trkpt>
<trkpt lat="-27.274439" lon="151.290064">
  <ele>343.1</ele>
  <time>2026-09-01T19:50:41Z</time>
  <course>7.12</course>
  <speed>0.0</speed>
  <fix>3d</fix>
</trkpt>
<trkpt lat="-27.274439" lon="151.290064">
  <ele>343.1</ele>
  <time>2026-09-01T19:50:41Z</time>
  <course>7.09</course>
  <speed>0.0</speed>
  <fix>3d</fix>
</trkpt>
<trkpt lat="-27.274439" lon="151.290064">
  <ele>343.1</ele>
  <time>2026-09-01T19:50:41Z</time>
  <course>7.12</course>
  <speed>0.0</speed>
  <fix>3d</fix>
</trkpt>
<trkpt lat="-27.274439" lon="151.290064">
  <ele>343.1</ele>
  <time>2026-09-01T19:50:41Z</time>
  <course>7.09</course>
  <speed>0.0</speed>
  <fix>3d</fix>
</trkpt>
<trkpt lat="-27.274439" lon="151.290064">
  <ele>343.1</ele>
  <time>2026-09-01T19:50:41Z</time>
  <course>7.12</course>
  <speed>0.0</speed>
  <fix>3d</fix>
</trkpt>
<trkpt lat="-27.274439" lon="151.290064">
  <ele>343.1</ele>
  <time>2026-09-01T19:50:41Z</time>
  <course>7.09</course>
  <speed>0.0</speed>
  <fix>3d</fix>
</trkpt>
<trkpt lat="-27.274439" lon="151.290064">
  <ele>343.1</ele>
  <time>2026-09-01T19:50:41Z</time>
  <course>7.12</course>
  <speed>0.0</speed>
  <fix>3d</fix>
</trkpt>
<trkpt lat="-27.274439" lon="151.290064">
  <ele>343.1</ele>
  <time>2026-09-01T19:50:41Z</time>
  <course>7.09</course>
  <speed>0.0</speed>
  <fix>3d</fix>
</trkpt>
<trkpt lat="-27.274439" lon="151.290064">
  <ele>343.1</ele>
  <time>2026-09-01T19:50:41Z</time>
  <course>7.12</course>
  <speed>0.0</speed>
  <fix>3d</fix>
</trkpt>
<trkpt lat="-27.274439" lon="151.290064">
  <ele>343.1</ele>
  <time>2026-09-01T19:50:41Z</time>
  <course>7.09</course>
  <speed>0.0</speed>
  <fix>3d</fix>
</trkpt>
<trkpt lat="-27.274439" lon="151.290064">
  <ele>343.1</ele>
  <time>2026-09-01T19:50:41Z</time>
  <course>7.12</course>
  <speed>0.0</speed>
  <fix>3d</fix>
</trkpt>
<trkpt lat="-27.274439" lon="151.290064">
  <ele>343.1</ele>
  <time>2026-09-01T19:50:41Z</time>
  <course>7.09</course>
  <speed>0.0</speed>
  <fix>3d</fix>
</trkpt>
<trkpt lat="-27.274439" lon="151.290064">
  <ele>343.1</ele>
  <time>2026-09-01T19:50:41Z</time>
  <course>7.12</course>
  <speed>0.0</speed>
  <fix>3d</fix>
</trkpt>
<trkpt lat="-27.274439" lon="151.290064">
  <ele>343.1</ele>
  <time>2026-09-01T19:50:41Z</time>
  <course>7.09</course>
  <speed>0.0</speed>
  <fix>3d</fix>
</trkpt>
<trkpt lat="-27.274439" lon="151.290064">
  <ele>343.1</ele>
  <time>2026-09-01T19:50:41Z</time>
  <course>7.12</course>
  <speed>0.0</speed>
  <fix>3d</fix>
</trkpt>
<trkpt lat="-27.274439" lon="151.290064">
  <ele>343.1</ele>
  <time>2026-09-01T19:50:41Z</time>
  <course>7.09</course>
  <speed>0.0</speed>
  <fix>3d</fix>
</trkpt>
<trkpt lat="-27.274439" lon="151.290064">
  <ele>343.1</ele>
  <time>2026-09-01T19:50:41Z</time>
  <course>7.12</course>
  <speed>0.0</speed>
  <fix>3d</fix>
</trkpt>
<trkpt lat="-27.274439" lon="151.290064">
  <ele>343.1</ele>
  <time>2026-09-01T19:50:41Z</time>
  <course>7.09</course>
  <speed>0.0</speed>
  <fix>3d</fix>
</trkpt>
<trkpt lat="-27.274439" lon="151.290064">
  <ele>343.1</ele>
  <time>2026-09-01T19:50:41Z</time>
  <course>7.12</course>
  <speed>0.0</speed>
  <fix>3d</fix>
</trkpt>
<trkpt lat="-27.274439" lon="151.290064">
  <ele>343.1</ele>
  <time>2026-09-01T19:50:41Z</time>
  <course>7.09</course>
  <speed>0.0</speed>
  <fix>3d</fix>
</trkpt>
<trkpt lat="-27.274439" lon="151.290064">
  <ele>343.1</ele>
  <time>2026-09-01T19:50:41Z</time>
  <course>7.12</course>
  <speed>0.0</speed>
  <fix>3d</fix>
</trkpt>
<trkpt lat="-27.274439" lon="151.290064">
  <ele>343.1</ele>
  <time>2026-09-01T19:50:41Z</time>
  <course>7.09</course>
  <speed>0.0</speed>
  <fix>3d</fix>
</trkpt>
<trkpt lat="-27.274439" lon="151.290064">
  <ele>343.1</ele>
  <time>2026-09-01T19:50:41Z</time>
  <course>7.12</course>
  <speed>0.0</speed>
  <fix>3d</fix>
</trkpt>
<trkpt lat="-27.274439" lon="151.290064">
  <ele>343.1</ele>
  <time>2026-09-01T19:50:41Z</time>
  <course>7.09</course>
  <speed>0.0</speed>
  <fix>3d</fix>
</trkpt>
<trkpt lat="-27.274439" lon="151.290064">
  <ele>343.1</ele>
  <time>2026-09-01T19:50:41Z</time>
  <course>7.12</course>
  <speed>0.0</speed>
  <fix>3d</fix>
</trkpt>
<trkpt lat="-27.274439" lon="151.290064">
  <ele>343.1</ele>
  <time>2026-09-01T19:50:41Z</time>
  <course>7.09</course>
  <speed>0.0</speed>
  <fix>3d</fix>
</trkpt>
<trkpt lat="-27.274439" lon="151.290064">
  <ele>343.1</ele>
  <time>2026-09-01T19:50:41Z</time>
  <course>7.12</course>
  <speed>0.0</speed>
  <fix>3d</fix>
</trkpt>
<trkpt lat="-27.274439" lon="151.290064">
  <ele>343.1</ele>
  <time>2026-09-01T19:50:41Z</time>
  <course>7.09</course>
  <speed>0.0</speed>
  <fix>3d</fix>
</trkpt>
<trkpt lat="-27.274439" lon="151.290064">
  <ele>343.1</ele>
  <time>2026-09-01T19:50:41Z</time>
  <course>7.12</course>
  <speed>0.0</speed>
  <fix>3d</fix>
</trkpt>
<trkpt lat="-27.274439" lon="151.290064">
  <ele>343.1</ele>
  <time>2026-09-01T19:50:41Z</time>
  <course>7.09</course>
  <speed>0.0</speed>
  <fix>3d</fix>
</trkpt>
<trkpt lat="-27.274439" lon="151.290064">
  <ele>343.1</ele>
  <time>2026-09-01T19:50:41Z</time>
  <course>7.12</course>
  <speed>0.0</speed>
  <fix>3d</fix>
</trkpt>
<trkpt lat="-27.274439" lon="151.290064">
  <ele>343.1</ele>
  <time>2026-09-01T19:50:41Z</time>
  <course>7.09</course>
  <speed>0.0</speed>
  <fix>3d</fix>
</trkpt>
<trkpt lat="-27.274439" lon="151.290064">
  <ele>343.1</ele>
  <time>2026-09-01T19:50:41Z</time>
  <course>7.12</course>
  <speed>0.0</speed>
  <fix>3d</fix>
</trkpt>
<trkpt lat="-27.274439" lon="151.290064">
  <ele>343.1</ele>
  <time>2026-09-01T19:50:41Z</time>
  <course>7.09</course>
  <speed>0.0</speed>
  <fix>3d</fix>
</trkpt>
<trkpt lat="-27.274439" lon="151.290064">
  <ele>343.1</ele>
  <time>2026-09-01T19:50:41Z</time>
  <course>7.12</course>
  <speed>0.0</speed>
  <fix>3d</fix>
</trkpt>
<trkpt lat="-27.274439" lon="151.290064">
  <ele>343.1</ele>
  <time>2026-09-01T19:50:41Z</time>
  <course>7.09</course>
  <speed>0.0</speed>
  <fix>3d</fix>
</trkpt>
<trkpt lat="-27.274439" lon="151.290064">
  <ele>343.1</ele>
  <time>2026-09-01T19:50:41Z</time>
  <course>7.12</course>
  <speed>0.0</speed>
  <fix>3d</fix>
</trkpt>
<trkpt lat="-27.274439" lon="151.290064">
  <ele>343.1</ele>
  <time>2026-09-01T19:50:41Z</time>
  <course>7.09</course>
  <speed>0.0</speed>
  <fix>3d</fix>
</trkpt>
<trkpt lat="-27.274439" lon="151.290064">
  <ele>343.1</ele>
  <time>2026-09-01T19:50:41Z</time>
  <course>7.12</course>
  <speed>0.0</speed>
  <fix>3d</fix>
</trkpt>
<trkpt lat="-27.274439" lon="151.290064">
  <ele>343.1</ele>
  <time>2026-09-01T19:50:41Z</time>
  <course>7.09</course>
  <speed>0.0</speed>
  <fix>3d</fix>
</trkpt>
<trkpt lat="-27.274439" lon="151.290064">
  <ele>343.1</ele>
  <time>2026-09-01T19:50:41Z</time>
  <course>7.12</course>
  <speed>0.0</speed>
  <fix>3d</fix>
</trkpt>
<trkpt lat="-27.274439" lon="151.290064">
  <ele>343.1</ele>
  <time>2026-09-01T19:50:41Z</time>
  <course>7.09</course>
  <speed>0.0</speed>
  <fix>3d</fix>
</trkpt>
<trkpt lat="-27.274439" lon="151.290064">
  <ele>343.1</ele>
  <time>2026-09-01T19:50:41Z</time>
  <course>7.12</course>
  <speed>0.0</speed>
  <fix>3d</fix>
</trkpt>
<trkpt lat="-27.274439" lon="151.290064">
  <ele>343.1</ele>
  <time>2026-09-01T19:50:41Z</time>
  <course>7.09</course>
  <speed>0.0</speed>
  <fix>3d</fix>
</trkpt>
<trkpt lat="-27.274439" lon="151.290064">
  <ele>343.1</ele>
  <time>2026-09-01T19:50:41Z</time>
  <course>7.12</course>
  <speed>0.0</speed>
  <fix>3d</fix>
</trkpt>
<trkpt lat="-27.274439" lon="151.290064">
  <ele>343.1</ele>
  <time>2026-09-01T19:50:41Z</time>
  <course>7.09</course>
  <speed>0.0</speed>
  <fix>3d</fix>
</trkpt>
<trkpt lat="-27.274439" lon="151.290064">
  <ele>343.1</ele>
  <time>2026-09-01T19:50:41Z</time>
  <course>7.12</course>
  <speed>0.0</speed>
  <fix>3d</fix>
</trkpt>
<trkpt lat="-27.274439" lon="151.290064">
  <ele>343.1</ele>
  <time>2026-09-01T19:50:41Z</time>
  <course>7.09</course>
  <speed>0.0</speed>
  <fix>3d</fix>
</trkpt>
<trkpt lat="-27.274439" lon="151.290064">
  <ele>343.1</ele>
  <time>2026-09-01T19:50:41Z</time>
  <course>7.12</course>
  <speed>0.0</speed>
  <fix>3d</fix>
</trkpt>
<trkpt lat="-27.274439" lon="151.290064">
  <ele>343.1</ele>
  <time>2026-09-01T19:50:41Z</time>
  <course>7.09</course>
  <speed>0.0</speed>
  <fix>3d</fix>
</trkpt>
<trkpt lat="-27.274439" lon="151.290064">
  <ele>343.1</ele>
  <time>2026-09-01T19:50:41Z</time>
  <course>7.12</course>
  <speed>0.0</speed>
  <fix>3d</fix>
</trkpt>
<trkpt lat="-27.274439" lon="151.290064">
  <ele>343.1</ele>
  <time>2026-09-01T19:50:41Z</time>
  <course>7.09</course>
  <speed>0.0</speed>
  <fix>3d</fix>
</trkpt>
<trkpt lat="-27.274439" lon="151.290064">
  <ele>343.1</ele>
  <time>2026-09-01T19:50:41Z</time>
  <course>7.12</course>
  <speed>0.0</speed>
  <fix>3d</fix>
</trkpt>
<trkpt lat="-27.274439" lon="151.290064">
  <ele>343.1</ele>
  <time>2026-09-01T19:50:41Z</time>
  <course>7.09</course>
  <speed>0.0</speed>
  <fix>3d</fix>
</trkpt>
<trkpt lat="-27.274439" lon="151.290064">
  <ele>343.1</ele>
  <time>2026-09-01T19:50:41Z</time>
  <course>7.12</course>
  <speed>0.0</speed>
  <fix>3d</fix>
</trkpt>
<trkpt lat="-27.274439" lon="151.290064">
  <ele>343.1</ele>
  <time>2026-09-01T19:50:41Z</time>
  <course>7.09</course>
  <speed>0.0</speed>
  <fix>3d</fix>
</trkpt>
<trkpt lat="-27.274439" lon="151.290064">
  <ele>343.1</ele>
  <time>2026-09-01T19:50:41Z</time>
  <course>7.12</course>
  <speed>0.0</speed>
  <fix>3d</fix>
</trkpt>
<trkpt lat="-27.274439" lon="151.290064">
  <ele>343.1</ele>
  <time>2026-09-01T19:50:41Z</time>
  <course>7.09</course>
  <speed>0.0</speed>
  <fix>3d</fix>
</trkpt>
<trkpt lat="-27.274439" lon="151.290064">
  <ele>343.1</ele>
  <time>2026-09-01T19:50:41Z</time>
  <course>7.12</course>
  <speed>0.0</speed>
  <fix>3d</fix>
</trkpt>
<trkpt lat="-27.274439" lon="151.290064">
  <ele>343.1</ele>
  <time>2026-09-01T19:50:41Z</time>
  <course>7.09</course>
  <speed>0.0</speed>
  <fix>3d</fix>
</trkpt>
<trkpt lat="-27.274439" lon="151.290064">
  <ele>343.1</ele>
  <time>2026-09-01T19:50:41Z</time>
  <course>7.12</course>
  <speed>0.0</speed>
  <fix>3d</fix>
</trkpt>
<trkpt lat="-27.274439" lon="151.290064">
  <ele>343.1</ele>
  <time>2026-09-01T19:50:41Z</time>
  <course>7.09</course>
  <speed>0.0</speed>
  <fix>3d</fix>
</trkpt>
<trkpt lat="-27.274439" lon="151.290064">
  <ele>343.1</ele>
  <time>2026-09-01T19:50:41Z</time>
  <course>7.12</course>
  <speed>0.0</speed>
  <fix>3d</fix>
</trkpt>
<trkpt lat="-27.274439" lon="151.290064">
  <ele>343.1</ele>
  <time>2026-09-01T19:50:41Z</time>
  <course>7.09</course>
  <speed>0.0</speed>
  <fix>3d</fix>
</trkpt>
<trkpt lat="-27.274439" lon="151.290064">
  <ele>343.1</ele>
  <time>2026-09-01T19:50:41Z</time>
  <course>7.12</course>
  <speed>0.0</speed>
  <fix>3d</fix>
</trkpt>
<trkpt lat="-27.274439" lon="151.290064">
  <ele>343.1</ele>
  <time>2026-09-01T19:50:41Z</time>
  <course>7.09</course>
  <speed>0.0</speed>
  <fix>3d</fix>
</trkpt>
<trkpt lat="-27.274439" lon="151.290064">
  <ele>343.1</ele>
  <time>2026-09-01T19:50:41Z</time>
  <course>7.12</course>
  <speed>0.0</speed>
  <fix>3d</fix>
</trkpt>
<trkpt lat="-27.274439" lon="151.290064">
  <ele>343.1</ele>
  <time>2026-09-01T19:50:41Z</time>
  <course>7.09</course>
  <speed>0.0</speed>
  <fix>3d</fix>
</trkpt>
<trkpt lat="-27.274439" lon="151.290064">
  <ele>343.1</ele>
  <time>2026-09-01T19:50:41Z</time>
  <course>7.12</course>
  <speed>0.0</speed>
  <fix>3d</fix>
</trkpt>
<trkpt lat="-27.274439" lon="151.290064">
  <ele>343.1</ele>
  <time>2026-09-01T19:50:41Z</time>
  <course>7.09</course>
  <speed>0.0</speed>
  <fix>3d</fix>
</trkpt>
<trkpt lat="-27.274439" lon="151.290064">
  <ele>343.1</ele>
  <time>2026-09-01T19:50:41Z</time>
  <course>7.12</course>
  <speed>0.0</speed>
  <fix>3d</fix>
</trkpt>
<trkpt lat="-27.274439" lon="151.290064">
  <ele>343.1</ele>
  <time>2026-09-01T19:50:41Z</time>
  <course>7.09</course>
  <speed>0.0</speed>
  <fix>3d</fix>
</trkpt>
<trkpt lat="-27.274439" lon="151.290064">
  <ele>343.1</ele>
  <time>2026-09-01T19:50:41Z</time>
  <course>7.12</course>
  <speed>0.0</speed>
  <fix>3d</fix>
</trkpt>
<trkpt lat="-27.274439" lon="151.290064">
  <ele>343.1</ele>
  <time>2026-09-01T19:50:41Z</time>
  <course>7.09</course>
  <speed>0.0</speed>
  <fix>3d</fix>
</trkpt>
<trkpt lat="-27.274439" lon="151.290064">
  <ele>343.1</ele>
  <time>2026-09-01T19:50:41Z</time>
  <course>7.12</course>
  <speed>0.0</speed>
  <fix>3d</fix>
</trkpt>
<trkpt lat="-27.274439" lon="151.290064">
  <ele>343.1</ele>
  <time>2026-09-01T19:50:41Z</time>
  <course>7.09</course>
  <speed>0.0</speed>
  <fix>3d</fix>
</trkpt>
<trkpt lat="-27.274439" lon="151.290064">
  <ele>343.1</ele>
  <time>2026-09-01T19:50:41Z</time>
  <course>7.12</course>
  <speed>0.0</speed>
  <fix>3d</fix>
</trkpt>
<trkpt lat="-27.274439" lon="151.290064">
  <ele>343.1</ele>
  <time>2026-09-01T19:50:41Z</time>
  <course>7.09</course>
  <speed>0.0</speed>
  <fix>3d</fix>
</trkpt>
<trkpt lat="-27.274439" lon="151.290064">
  <ele>343.1</ele>
  <time>2026-09-01T19:50:41Z</time>
  <course>7.12</course>
  <speed>0.0</speed>
  <fix>3d</fix>
</trkpt>
<trkpt lat="-27.274439" lon="151.290064">
  <ele>343.1</ele>
  <time>2026-09-01T19:50:41Z</time>
  <course>7.09</course>
  <speed>0.0</speed>
  <fix>3d</fix>
</trkpt>
<trkpt lat="-27.274439" lon="151.290064">
  <ele>343.1</ele>
  <time>2026-09-01T19:50:41Z</time>
  <course>7.12</course>
  <speed>0.0</speed>
  <fix>3d</fix>
</trkpt>
<trkpt lat="-27.274439" lon="151.290064">
  <ele>343.1</ele>
  <time>2026-09-01T19:50:41Z</time>
  <course>7.09</course>
  <speed>0.0</speed>
  <fix>3d</fix>
</trkpt>
<trkpt lat="-27.274439" lon="151.290064">
  <ele>343.1</ele>
  <time>2026-09-01T19:50:41Z</time>
  <course>7.12</course>
  <speed>0.0</speed>
  <fix>3d</fix>
</trkpt>
<trkpt lat="-27.274439" lon="151.290064">
  <ele>343.1</ele>
  <time>2026-09-01T19:50:41Z</time>
  <course>7.09</course>
  <speed>0.0</speed>
  <fix>3d</fix>
</trkpt>
<trkpt lat="-27.274439" lon="151.290064">
  <ele>343.1</ele>
  <time>2026-09-01T19:50:41Z</time>
  <course>7.12</course>
  <speed>0.0</speed>
  <fix>3d</fix>
</trkpt>
<trkpt lat="-27.274439" lon="151.290064">
  <ele>343.1</ele>
  <time>2026-09-01T19:50:41Z</time>
  <course>7.09</course>
  <speed>0.0</speed>
  <fix>3d</fix>
</trkpt>
<trkpt lat="-27.274439" lon="151.290064">
  <ele>343.1</ele>
  <time>2026-09-01T19:50:41Z</time>
  <course>7.12</course>
  <speed>0.0</speed>
  <fix>3d</fix>
</trkpt>
<trkpt lat="-27.274439" lon="151.290064">
  <ele>343.1</ele>
  <time>2026-09-01T19:50:41Z</time>
  <course>7.09</course>
  <speed>0.0</speed>
  <fix>3d</fix>
</trkpt>
<trkpt lat="-27.274439" lon="151.290064">
  <ele>343.1</ele>
  <time>2026-09-01T19:50:41Z</time>
  <course>7.12</course>
  <speed>0.0</speed>
  <fix>3d</fix>
</trkpt>
<trkpt lat="-27.274439" lon="151.290064">
  <ele>343.1</ele>
  <time>2026-09-01T19:50:41Z</time>
  <course>7.09</course>
  <speed>0.0</speed>
  <fix>3d</fix>
</trkpt>
<trkpt lat="-27.274439" lon="151.290064">
  <ele>343.1</ele>
  <time>2026-09-01T19:50:41Z</time>
  <course>7.12</course>
  <speed>0.0</speed>
  <fix>3d</fix>
</trkpt>
<trkpt lat="-27.274439" lon="151.290064">
  <ele>343.1</ele>
  <time>2026-09-01T19:50:41Z</time>
  <course>7.09</course>
  <speed>0.0</speed>
  <fix>3d</fix>
</trkpt>
<trkpt lat="-27.274439" lon="151.290064">
  <ele>343.1</ele>
  <time>2026-09-01T19:50:41Z</time>
  <course>7.12</course>
  <speed>0.0</speed>
  <fix>3d</fix>
</trkpt>
<trkpt lat="-27.274439" lon="151.290064">
  <ele>343.1</ele>
  <time>2026-09-01T19:50:41Z</time>
  <course>7.09</course>
  <speed>0.0</speed>
  <fix>3d</fix>
</trkpt>
<trkpt lat="-27.274439" lon="151.290064">
  <ele>343.1</ele>
  <time>2026-09-01T19:50:41Z</time>
  <course>7.12</course>
  <speed>0.0</speed>
  <fix>3d</fix>
</trkpt>
<trkpt lat="-27.274439" lon="151.290064">
  <ele>343.1</ele>
  <time>2026-09-01T19:50:41Z</time>
  <course>7.09</course>
  <speed>0.0</speed>
  <fix>3d</fix>
</trkpt>
<trkpt lat="-27.274439" lon="151.290064">
  <ele>343.1</ele>
  <time>2026-09-01T19:50:41Z</time>
  <course>7.12</course>
  <speed>0.0</speed>
  <fix>3d</fix>
</trkpt>
<trkpt lat="-27.274439" lon="151.290064">
  <ele>343.1</ele>
  <time>2026-09-01T19:50:41Z</time>
  <course>7.09</course>
  <speed>0.0</speed>
  <fix>3d</fix>
</trkpt>
<trkpt lat="-27.274439" lon="151.290064">
  <ele>343.1</ele>
  <time>2026-09-01T19:50:41Z</time>
  <course>7.12</course>
  <speed>0.0</speed>
  <fix>3d</fix>
</trkpt>
<trkpt lat="-27.274439" lon="151.290064">
  <ele>343.1</ele>
  <time>2026-09-01T19:50:41Z</time>
  <course>7.09</course>
  <speed>0.0</speed>
  <fix>3d</fix>
</trkpt>
<trkpt lat="-27.274439" lon="151.290064">
  <ele>343.1</ele>
  <time>2026-09-01T19:50:41Z</time>
  <course>7.12</course>
  <speed>0.0</speed>
  <fix>3d</fix>
</trkpt>
<trkpt lat="-27.274439" lon="151.290064">
  <ele>343.1</ele>
  <time>2026-09-01T19:50:41Z</time>
  <course>7.09</course>
  <speed>0.0</speed>
  <fix>3d</fix>
</trkpt>
<trkpt lat="-27.274439" lon="151.290064">
  <ele>343.1</ele>
  <time>2026-09-01T19:50:41Z</time>
  <course>7.12</course>
  <speed>0.0</speed>
  <fix>3d</fix>
</trkpt>
<trkpt lat="-27.274439" lon="151.290064">
  <ele>343.1</ele>
  <time>2026-09-01T19:50:41Z</time>
  <course>7.09</course>
  <speed>0.0</speed>
  <fix>3d</fix>
</trkpt>
<trkpt lat="-27.274439" lon="151.290064">
  <ele>343.1</ele>
  <time>2026-09-01T19:50:41Z</time>
  <course>7.12</course>
  <speed>0.0</speed>
  <fix>3d</fix>
</trkpt>
<trkpt lat="-27.274439" lon="151.290064">
  <ele>343.1</ele>
  <time>2026-09-01T19:50:41Z</time>
  <course>7.09</course>
  <speed>0.0</speed>
  <fix>3d</fix>
</trkpt>
<trkpt lat="-27.274439" lon="151.290064">
  <ele>343.1</ele>
  <time>2026-09-01T19:50:41Z</time>
  <course>7.12</course>
  <speed>0.0</speed>
  <fix>3d</fix>
</trkpt>
<trkpt lat="-27.274439" lon="151.290064">
  <ele>343.1</ele>
  <time>2026-09-01T19:50:41Z</time>
  <course>7.09</course>
  <speed>0.0</speed>
  <fix>3d</fix>
</trkpt>
<trkpt lat="-27.274439" lon="151.290064">
  <ele>343.1</ele>
  <time>2026-09-01T19:50:41Z</time>
  <course>7.12</course>
  <speed>0.0</speed>
  <fix>3d</fix>
</trkpt>
<trkpt lat="-27.274439" lon="151.290064">
  <ele>343.1</ele>
  <time>2026-09-01T19:50:41Z</time>
  <course>7.09</course>
  <speed>0.0</speed>
  <fix>3d</fix>
</trkpt>
<trkpt lat="-27.274439" lon="151.290064">
  <ele>343.1</ele>
  <time>2026-09-01T19:50:41Z</time>
  <course>7.12</course>
  <speed>0.0</speed>
  <fix>3d</fix>
</trkpt>
<trkpt lat="-27.274439" lon="151.290064">
  <ele>343.1</ele>
  <time>2026-09-01T19:50:41Z</time>
  <course>7.09</course>
  <speed>0.0</speed>
  <fix>3d</fix>
</trkpt>
<trkpt lat="-27.274439" lon="151.290064">
  <ele>343.1</ele>
  <time>2026-09-01T19:50:41Z</time>
  <course>7.12</course>
  <speed>0.0</speed>
  <fix>3d</fix>
</trkpt>
<trkpt lat="-27.274439" lon="151.290064">
  <ele>343.1</ele>
  <time>2026-09-01T19:50:41Z</time>
  <course>7.09</course>
  <speed>0.0</speed>
  <fix>3d</fix>
</trkpt>
<trkpt lat="-27.274439" lon="151.290064">
  <ele>343.1</ele>
  <time>2026-09-01T19:50:41Z</time>
  <course>7.12</course>
  <speed>0.0</speed>
  <fix>3d</fix>
</trkpt>
<trkpt lat="-27.274439" lon="151.290064">
  <ele>343.1</ele>
  <time>2026-09-01T19:50:41Z</time>
  <course>7.09</course>
  <speed>0.0</speed>
  <fix>3d</fix>
</trkpt>
<trkpt lat="-27.274439" lon="151.290064">
  <ele>343.1</ele>
  <time>2026-09-01T19:50:41Z</time>
  <course>7.12</course>
  <speed>0.0</speed>
  <fix>3d</fix>
</trkpt>
<trkpt lat="-27.274439" lon="151.290064">
  <ele>343.1</ele>
  <time>2026-09-01T19:50:41Z</time>
  <course>7.09</course>
  <speed>0.0</speed>
  <fix>3d</fix>
</trkpt>
<trkpt lat="-27.274439" lon="151.290064">
  <ele>343.1</ele>
  <time>2026-09-01T19:50:41Z</time>
  <course>7.12</course>
  <speed>0.0</speed>
  <fix>3d</fix>
</trkpt>
<trkpt lat="-27.274439" lon="151.290064">
  <ele>343.1</ele>
  <time>2026-09-01T19:50:41Z</time>
  <course>7.09</course>
  <speed>0.0</speed>
  <fix>3d</fix>
</trkpt>
<trkpt lat="-27.274439" lon="151.290064">
  <ele>343.1</ele>
  <time>2026-09-01T19:50:41Z</time>
  <course>7.12</course>
  <speed>0.0</speed>
  <fix>3d</fix>
</trkpt>
<trkpt lat="-27.274439" lon="151.290064">
  <ele>343.1</ele>
  <time>2026-09-01T19:50:41Z</time>
  <course>7.09</course>
  <speed>0.0</speed>
  <fix>3d</fix>
</trkpt>
<trkpt lat="-27.274439" lon="151.290064">
  <ele>343.1</ele>
  <time>2026-09-01T19:50:41Z</time>
  <course>7.12</course>
  <speed>0.0</speed>
  <fix>3d</fix>
</trkpt>
<trkpt lat="-27.274439" lon="151.290064">
  <ele>343.1</ele>
  <time>2026-09-01T19:50:41Z</time>
  <course>7.09</course>
  <speed>0.0</speed>
  <fix>3d</fix>
</trkpt>
<trkpt lat="-27.274439" lon="151.290064">
  <ele>343.1</ele>
  <time>2026-09-01T19:50:41Z</time>
  <course>7.12</course>
  <speed>0.0</speed>
  <fix>3d</fix>
</trkpt>
<trkpt lat="-27.274439" lon="151.290064">
  <ele>343.1</ele>
  <time>2026-09-01T19:50:41Z</time>
  <course>7.09</course>
  <speed>0.0</speed>
  <fix>3d</fix>
</trkpt>
<trkpt lat="-27.274439" lon="151.290064">
  <ele>343.1</ele>
  <time>2026-09-01T19:50:41Z</time>
  <course>7.12</course>
  <speed>0.0</speed>
  <fix>3d</fix>
</trkpt>
<trkpt lat="-27.274439" lon="151.290064">
  <ele>343.1</ele>
  <time>2026-09-01T19:50:41Z</time>
  <course>7.09</course>
  <speed>0.0</speed>
  <fix>3d</fix>
</trkpt>
<trkpt lat="-27.274439" lon="151.290064">
  <ele>343.1</ele>
  <time>2026-09-01T19:50:41Z</time>
  <course>7.12</course>
  <speed>0.0</speed>
  <fix>3d</fix>
</trkpt>
<trkpt lat="-27.274439" lon="151.290064">
  <ele>343.1</ele>
  <time>2026-09-01T19:50:41Z</time>
  <course>7.09</course>
  <speed>0.0</speed>
  <fix>3d</fix>
</trkpt>
<trkpt lat="-27.274439" lon="151.290064">
  <ele>343.1</ele>
  <time>2026-09-01T19:50:41Z</time>
  <course>7.12</course>
  <speed>0.0</speed>
  <fix>3d</fix>
</trkpt>
<trkpt lat="-27.274439" lon="151.290064">
  <ele>343.1</ele>
  <time>2026-09-01T19:50:41Z</time>
  <course>7.09</course>
  <speed>0.0</speed>
  <fix>3d</fix>
</trkpt>
<trkpt lat="-27.274439" lon="151.290064">
  <ele>343.1</ele>
  <time>2026-09-01T19:50:41Z</time>
  <course>7.12</course>
  <speed>0.0</speed>
  <fix>3d</fix>
</trkpt>
<trkpt lat="-27.274439" lon="151.290064">
  <ele>343.1</ele>
  <time>2026-09-01T19:50:41Z</time>
  <course>7.09</course>
  <speed>0.0</speed>
  <fix>3d</fix>
</trkpt>
<trkpt lat="-27.274439" lon="151.290064">
  <ele>343.1</ele>
  <time>2026-09-01T19:50:41Z</time>
  <course>7.12</course>
  <speed>0.0</speed>
  <fix>3d</fix>
</trkpt>
<trkpt lat="-27.274439" lon="151.290064">
  <ele>343.1</ele>
  <time>2026-09-01T19:50:41Z</time>
  <course>7.09</course>
  <speed>0.0</speed>
  <fix>3d</fix>
</trkpt>
<trkpt lat="-27.274439" lon="151.290064">
  <ele>343.1</ele>
  <time>2026-09-01T19:50:41Z</time>
  <course>7.12</course>
  <speed>0.0</speed>
  <fix>3d</fix>
</trkpt>
<trkpt lat="-27.274439" lon="151.290064">
  <ele>343.1</ele>
  <time>2026-09-01T19:50:41Z</time>
  <course>7.09</course>
  <speed>0.0</speed>
  <fix>3d</fix>
</trkpt>
<trkpt lat="-27.274439" lon="151.290064">
  <ele>343.1</ele>
  <time>2026-09-01T19:50:41Z</time>
  <course>7.12</course>
  <speed>0.0</speed>
  <fix>3d</fix>
</trkpt>
<trkpt lat="-27.274439" lon="151.290064">
  <ele>343.1</ele>
  <time>2026-09-01T19:50:41Z</time>
  <course>7.09</course>
  <speed>0.0</speed>
  <fix>3d</fix>
</trkpt>
<trkpt lat="-27.274439" lon="151.290064">
  <ele>343.1</ele>
  <time>2026-09-01T19:50:41Z</time>
  <course>7.12</course>
  <speed>0.0</speed>
  <fix>3d</fix>
</trkpt>
<trkpt lat="-27.274439" lon="151.290064">
  <ele>343.1</ele>
  <time>2026-09-01T19:50:41Z</time>
  <course>7.09</course>
  <speed>0.0</speed>
  <fix>3d</fix>
</trkpt>
<trkpt lat="-27.274439" lon="151.290064">
  <ele>343.1</ele>
  <time>2026-09-01T19:50:41Z</time>
  <course>7.12</course>
  <speed>0.0</speed>
  <fix>3d</fix>
</trkpt>
<trkpt lat="-27.274439" lon="151.290064">
  <ele>343.1</ele>
  <time>2026-09-01T19:50:41Z</time>
  <course>7.09</course>
  <speed>0.0</speed>
  <fix>3d</fix>
</trkpt>
<trkpt lat="-27.274439" lon="151.290064">
  <ele>343.1</ele>
  <time>2026-09-01T19:50:41Z</time>
  <course>7.12</course>
  <speed>0.0</speed>
  <fix>3d</fix>
</trkpt>
<trkpt lat="-27.274439" lon="151.290064">
  <ele>343.1</ele>
  <time>2026-09-01T19:50:41Z</time>
  <course>7.09</course>
  <speed>0.0</speed>
  <fix>3d</fix>
</trkpt>
<trkpt lat="-27.274439" lon="151.290064">
  <ele>343.1</ele>
  <time>2026-09-01T19:50:41Z</time>
  <course>7.12</course>
  <speed>0.0</speed>
  <fix>3d</fix>
</trkpt>
<trkpt lat="-27.274439" lon="151.290064">
  <ele>343.1</ele>
  <time>2026-09-01T19:50:41Z</time>
  <course>7.09</course>
  <speed>0.0</speed>
  <fix>3d</fix>
</trkpt>
<trkpt lat="-27.274439" lon="151.290064">
  <ele>343.1</ele>
  <time>2026-09-01T19:50:41Z</time>
  <course>7.12</course>
  <speed>0.0</speed>
  <fix>3d</fix>
</trkpt>
<trkpt lat="-27.274439" lon="151.290064">
  <ele>343.1</ele>
  <time>2026-09-01T19:50:41Z</time>
  <course>7.09</course>
  <speed>0.0</speed>
  <fix>3d</fix>
</trkpt>
<trkpt lat="-27.274439" lon="151.290064">
  <ele>343.1</ele>
  <time>2026-09-01T19:50:41Z</time>
  <course>7.12</course>
  <speed>0.0</speed>
  <fix>3d</fix>
</trkpt>
<trkpt lat="-27.274439" lon="151.290064">
  <ele>343.1</ele>
  <time>2026-09-01T19:50:41Z</time>
  <course>7.09</course>
  <speed>0.0</speed>
  <fix>3d</fix>
</trkpt>
<trkpt lat="-27.274439" lon="151.290064">
  <ele>343.1</ele>
  <time>2026-09-01T19:50:41Z</time>
  <course>7.12</course>
  <speed>0.0</speed>
  <fix>3d</fix>
</trkpt>
<trkpt lat="-27.274439" lon="151.290064">
  <ele>343.1</ele>
  <time>2026-09-01T19:50:41Z</time>
  <course>7.09</course>
  <speed>0.0</speed>
  <fix>3d</fix>
</trkpt>
<trkpt lat="-27.274439" lon="151.290064">
  <ele>343.1</ele>
  <time>2026-09-01T19:50:41Z</time>
  <course>7.12</course>
  <speed>0.0</speed>
  <fix>3d</fix>
</trkpt>
<trkpt lat="-27.274439" lon="151.290064">
  <ele>343.1</ele>
  <time>2026-09-01T19:50:41Z</time>
  <course>7.09</course>
  <speed>0.0</speed>
  <fix>3d</fix>
</trkpt>
<trkpt lat="-27.274439" lon="151.290064">
  <ele>343.1</ele>
  <time>2026-09-01T19:50:41Z</time>
  <course>7.12</course>
  <speed>0.0</speed>
  <fix>3d</fix>
</trkpt>
<trkpt lat="-27.274439" lon="151.290064">
  <ele>343.1</ele>
  <time>2026-09-01T19:50:41Z</time>
  <course>7.09</course>
  <speed>0.0</speed>
  <fix>3d</fix>
</trkpt>
<trkpt lat="-27.274439" lon="151.290064">
  <ele>343.1</ele>
  <time>2026-09-01T19:50:41Z</time>
  <course>7.12</course>
  <speed>0.0</speed>
  <fix>3d</fix>
</trkpt>
<trkpt lat="-27.274439" lon="151.290064">
  <ele>343.1</ele>
  <time>2026-09-01T19:50:41Z</time>
  <course>7.09</course>
  <speed>0.0</speed>
  <fix>3d</fix>
</trkpt>
<trkpt lat="-27.274439" lon="151.290064">
  <ele>343.1</ele>
  <time>2026-09-01T19:50:41Z</time>
  <course>7.12</course>
  <speed>0.0</speed>
  <fix>3d</fix>
</trkpt>
<trkpt lat="-27.274439" lon="151.290064">
  <ele>343.1</ele>
  <time>2026-09-01T19:50:41Z</time>
  <course>7.09</course>
  <speed>0.0</speed>
  <fix>3d</fix>
</trkpt>
<trkpt lat="-27.274439" lon="151.290064">
  <ele>343.1</ele>
  <time>2026-09-01T19:50:41Z</time>
  <course>7.12</course>
  <speed>0.0</speed>
  <fix>3d</fix>
</trkpt>
<trkpt lat="-27.274439" lon="151.290064">
  <ele>343.1</ele>
  <time>2026-09-01T19:50:41Z</time>
  <course>7.09</course>
  <speed>0.0</speed>
  <fix>3d</fix>
</trkpt>
<trkpt lat="-27.274439" lon="151.290064">
  <ele>343.1</ele>
  <time>2026-09-01T19:50:41Z</time>
  <course>7.12</course>
  <speed>0.0</speed>
  <fix>3d</fix>
</trkpt>
<trkpt lat="-27.274439" lon="151.290064">
  <ele>343.1</ele>
  <time>2026-09-01T19:50:41Z</time>
  <course>7.09</course>
  <speed>0.0</speed>
  <fix>3d</fix>
</trkpt>
<trkpt lat="-27.274439" lon="151.290064">
  <ele>343.1</ele>
  <time>2026-09-01T19:50:41Z</time>
  <course>7.12</course>
  <speed>0.0</speed>
  <fix>3d</fix>
</trkpt>
<trkpt lat="-27.274439" lon="151.290064">
  <ele>343.1</ele>
  <time>2026-09-01T19:50:41Z</time>
  <course>7.09</course>
  <speed>0.0</speed>
  <fix>3d</fix>
</trkpt>
<trkpt lat="-27.274439" lon="151.290064">
  <ele>343.1</ele>
  <time>2026-09-01T19:50:41Z</time>
  <course>7.12</course>
  <speed>0.0</speed>
  <fix>3d</fix>
</trkpt>
<trkpt lat="-27.274439" lon="151.290064">
  <ele>343.1</ele>
  <time>2026-09-01T19:50:41Z</time>
  <course>7.09</course>
  <speed>0.0</speed>
  <fix>3d</fix>
</trkpt>
<trkpt lat="-27.274439" lon="151.290064">
  <ele>343.1</ele>
  <time>2026-09-01T19:50:41Z</time>
  <course>7.12</course>
  <speed>0.0</speed>
  <fix>3d</fix>
</trkpt>
<trkpt lat="-27.274439" lon="151.290064">
  <ele>343.1</ele>
  <time>2026-09-01T19:50:41Z</time>
  <course>7.09</course>
  <speed>0.0</speed>
  <fix>3d</fix>
</trkpt>
<trkpt lat="-27.274439" lon="151.290064">
  <ele>343.1</ele>
  <time>2026-09-01T19:50:41Z</time>
  <course>7.12</course>
  <speed>0.0</speed>
  <fix>3d</fix>
</trkpt>
<trkpt lat="-27.274439" lon="151.290064">
  <ele>343.1</ele>
  <time>2026-09-01T19:50:41Z</time>
  <course>7.09</course>
  <speed>0.0</speed>
  <fix>3d</fix>
</trkpt>
<trkpt lat="-27.274439" lon="151.290064">
  <ele>343.1</ele>
  <time>2026-09-01T19:50:41Z</time>
  <course>7.12</course>
  <speed>0.0</speed>
  <fix>3d</fix>
</trkpt>
<trkpt lat="-27.274439" lon="151.290064">
  <ele>343.1</ele>
  <time>2026-09-01T19:50:41Z</time>
  <course>7.09</course>
  <speed>0.0</speed>
  <fix>3d</fix>
</trkpt>
<trkpt lat="-27.274439" lon="151.290064">
  <ele>343.1</ele>
  <time>2026-09-01T19:50:41Z</time>
  <course>7.12</course>
  <speed>0.0</speed>
  <fix>3d</fix>
</trkpt>
<trkpt lat="-27.274439" lon="151.290064">
  <ele>343.1</ele>
  <time>2026-09-01T19:50:41Z</time>
  <course>7.09</course>
  <speed>0.0</speed>
  <fix>3d</fix>
</trkpt>
<trkpt lat="-27.274439" lon="151.290064">
  <ele>343.1</ele>
  <time>2026-09-01T19:50:41Z</time>
  <course>7.12</course>
  <speed>0.0</speed>
  <fix>3d</fix>
</trkpt>
<trkpt lat="-27.274439" lon="151.290064">
  <ele>343.1</ele>
  <time>2026-09-01T19:50:41Z</time>
  <course>7.09</course>
  <speed>0.0</speed>
  <fix>3d</fix>
</trkpt>
<trkpt lat="-27.274439" lon="151.290064">
  <ele>343.1</ele>
  <time>2026-09-01T19:50:41Z</time>
  <course>7.12</course>
  <speed>0.0</speed>
  <fix>3d</fix>
</trkpt>
<trkpt lat="-27.274439" lon="151.290064">
  <ele>343.1</ele>
  <time>2026-09-01T19:50:41Z</time>
  <course>7.09</course>
  <speed>0.0</speed>
  <fix>3d</fix>
</trkpt>
<trkpt lat="-27.274439" lon="151.290064">
  <ele>343.1</ele>
  <time>2026-09-01T19:50:41Z</time>
  <course>7.12</course>
  <speed>0.0</speed>
  <fix>3d</fix>
</trkpt>
<trkpt lat="-27.274439" lon="151.290064">
  <ele>343.1</ele>
  <time>2026-09-01T19:50:41Z</time>
  <course>7.09</course>
  <speed>0.0</speed>
  <fix>3d</fix>
</trkpt>
<trkpt lat="-27.274439" lon="151.290064">
  <ele>343.1</ele>
  <time>2026-09-01T19:50:41Z</time>
  <course>7.12</course>
  <speed>0.0</speed>
  <fix>3d</fix>
</trkpt>
<trkpt lat="-27.274439" lon="151.290064">
  <ele>343.1</ele>
  <time>2026-09-01T19:50:41Z</time>
  <course>7.09</course>
  <speed>0.0</speed>
  <fix>3d</fix>
</trkpt>
<trkpt lat="-27.274439" lon="151.290064">
  <ele>343.1</ele>
  <time>2026-09-01T19:50:41Z</time>
  <course>7.12</course>
  <speed>0.0</speed>
  <fix>3d</fix>
</trkpt>
<trkpt lat="-27.274439" lon="151.290064">
  <ele>343.1</ele>
  <time>2026-09-01T19:50:41Z</time>
  <course>7.09</course>
  <speed>0.0</speed>
  <fix>3d</fix>
</trkpt>
<trkpt lat="-27.274439" lon="151.290064">
  <ele>343.1</ele>
  <time>2026-09-01T19:50:41Z</time>
  <course>7.12</course>
  <speed>0.0</speed>
  <fix>3d</fix>
</trkpt>
<trkpt lat="-27.274439" lon="151.290064">
  <ele>343.1</ele>
  <time>2026-09-01T19:50:41Z</time>
  <course>7.09</course>
  <speed>0.0</speed>
  <fix>3d</fix>
</trkpt>
<trkpt lat="-27.274439" lon="151.290064">
  <ele>343.1</ele>
  <time>2026-09-01T19:50:41Z</time>
  <course>7.12</course>
  <speed>0.0</speed>
  <fix>3d</fix>
</trkpt>
<trkpt lat="-27.274439" lon="151.290064">
  <ele>343.1</ele>
  <time>2026-09-01T19:50:41Z</time>
  <course>7.09</course>
  <speed>0.0</speed>
  <fix>3d</fix>
</trkpt>
<trkpt lat="-27.274439" lon="151.290064">
  <ele>343.1</ele>
  <time>2026-09-01T19:50:41Z</time>
  <course>7.12</course>
  <speed>0.0</speed>
  <fix>3d</fix>
</trkpt>
<trkpt lat="-27.274439" lon="151.290064">
  <ele>343.1</ele>
  <time>2026-09-01T19:50:41Z</time>
  <course>7.09</course>
  <speed>0.0</speed>
  <fix>3d</fix>
</trkpt>
<trkpt lat="-27.274439" lon="151.290064">
  <ele>343.1</ele>
  <time>2026-09-01T19:50:41Z</time>
  <course>7.12</course>
  <speed>0.0</speed>
  <fix>3d</fix>
</trkpt>
<trkpt lat="-27.274439" lon="151.290064">
  <ele>343.1</ele>
  <time>2026-09-01T19:50:41Z</time>
  <course>7.09</course>
  <speed>0.0</speed>
  <fix>3d</fix>
</trkpt>
<trkpt lat="-27.274439" lon="151.290064">
  <ele>343.1</ele>
  <time>2026-09-01T19:50:41Z</time>
  <course>7.12</course>
  <speed>0.0</speed>
  <fix>3d</fix>
</trkpt>
<trkpt lat="-27.274439" lon="151.290064">
  <ele>343.1</ele>
  <time>2026-09-01T19:50:41Z</time>
  <course>7.09</course>
  <speed>0.0</speed>
  <fix>3d</fix>
</trkpt>
<trkpt lat="-27.274439" lon="151.290064">
  <ele>343.1</ele>
  <time>2026-09-01T19:50:41Z</time>
  <course>7.12</course>
  <speed>0.0</speed>
  <fix>3d</fix>
</trkpt>
<trkpt lat="-27.274439" lon="151.290064">
  <ele>343.1</ele>
  <time>2026-09-01T19:50:41Z</time>
  <course>7.09</course>
  <speed>0.0</speed>
  <fix>3d</fix>
</trkpt>
<trkpt lat="-27.274439" lon="151.290064">
  <ele>343.1</ele>
  <time>2026-09-01T19:50:41Z</time>
  <course>7.12</course>
  <speed>0.0</speed>
  <fix>3d</fix>
</trkpt>
<trkpt lat="-27.274439" lon="151.290064">
  <ele>343.1</ele>
  <time>2026-09-01T19:50:41Z</time>
  <course>7.09</course>
  <speed>0.0</speed>
  <fix>3d</fix>
</trkpt>
<trkpt lat="-27.274439" lon="151.290064">
  <ele>343.1</ele>
  <time>2026-09-01T19:50:41Z</time>
  <course>7.12</course>
  <speed>0.0</speed>
  <fix>3d</fix>
</trkpt>
<trkpt lat="-27.274439" lon="151.290064">
  <ele>343.1</ele>
  <time>2026-09-01T19:50:41Z</time>
  <course>7.09</course>
  <speed>0.0</speed>
  <fix>3d</fix>
</trkpt>
<trkpt lat="-27.274439" lon="151.290064">
  <ele>343.1</ele>
  <time>2026-09-01T19:50:41Z</time>
  <course>7.12</course>
  <speed>0.0</speed>
  <fix>3d</fix>
</trkpt>
<trkpt lat="-27.274439" lon="151.290064">
  <ele>343.1</ele>
  <time>2026-09-01T19:50:41Z</time>
  <course>7.09</course>
  <speed>0.0</speed>
  <fix>3d</fix>
</trkpt>
<trkpt lat="-27.274439" lon="151.290064">
  <ele>343.1</ele>
  <time>2026-09-01T19:50:41Z</time>
  <course>7.12</course>
  <speed>0.0</speed>
  <fix>3d</fix>
</trkpt>
<trkpt lat="-27.274439" lon="151.290064">
  <ele>343.1</ele>
  <time>2026-09-01T19:50:41Z</time>
  <course>7.09</course>
  <speed>0.0</speed>
  <fix>3d</fix>
</trkpt>
<trkpt lat="-27.274439" lon="151.290064">
  <ele>343.1</ele>
  <time>2026-09-01T19:50:41Z</time>
  <course>7.12</course>
  <speed>0.0</speed>
  <fix>3d</fix>
</trkpt>
<trkpt lat="-27.274439" lon="151.290064">
  <ele>343.1</ele>
  <time>2026-09-01T19:50:41Z</time>
  <course>7.09</course>
  <speed>0.0</speed>
  <fix>3d</fix>
</trkpt>
<trkpt lat="-27.274439" lon="151.290064">
  <ele>343.1</ele>
  <time>2026-09-01T19:50:41Z</time>
  <course>7.12</course>
  <speed>0.0</speed>
  <fix>3d</fix>
</trkpt>
<trkpt lat="-27.274439" lon="151.290064">
  <ele>343.1</ele>
  <time>2026-09-01T19:50:41Z</time>
  <course>7.09</course>
  <speed>0.0</speed>
  <fix>3d</fix>
</trkpt>
<trkpt lat="-27.274439" lon="151.290064">
  <ele>343.1</ele>
  <time>2026-09-01T19:50:41Z</time>
  <course>7.12</course>
  <speed>0.0</speed>
  <fix>3d</fix>
</trkpt>
<trkpt lat="-27.274439" lon="151.290064">
  <ele>343.1</ele>
  <time>2026-09-01T19:50:41Z</time>
  <course>7.09</course>
  <speed>0.0</speed>
  <fix>3d</fix>
</trkpt>
<trkpt lat="-27.274439" lon="151.290064">
  <ele>343.1</ele>
  <time>2026-09-01T19:50:41Z</time>
  <course>7.12</course>
  <speed>0.0</speed>
  <fix>3d</fix>
</trkpt>
<trkpt lat="-27.274439" lon="151.290064">
  <ele>343.1</ele>
  <time>2026-09-01T19:50:41Z</time>
  <course>7.09</course>
  <speed>0.0</speed>
  <fix>3d</fix>
</trkpt>
<trkpt lat="-27.274439" lon="151.290064">
  <ele>343.1</ele>
  <time>2026-09-01T19:50:41Z</time>
  <course>7.12</course>
  <speed>0.0</speed>
  <fix>3d</fix>
</trkpt>
<trkpt lat="-27.274439" lon="151.290064">
  <ele>343.1</ele>
  <time>2026-09-01T19:50:41Z</time>
  <course>7.09</course>
  <speed>0.0</speed>
  <fix>3d</fix>
</trkpt>
<trkpt lat="-27.274439" lon="151.290064">
  <ele>343.1</ele>
  <time>2026-09-01T19:50:41Z</time>
  <course>7.12</course>
  <speed>0.0</speed>
  <fix>3d</fix>
</trkpt>
<trkpt lat="-27.274439" lon="151.290064">
  <ele>343.1</ele>
  <time>2026-09-01T19:50:41Z</time>
  <course>7.09</course>
  <speed>0.0</speed>
  <fix>3d</fix>
</trkpt>
<trkpt lat="-27.274439" lon="151.290064">
  <ele>343.1</ele>
  <time>2026-09-01T19:50:41Z</time>
  <course>7.12</course>
  <speed>0.0</speed>
  <fix>3d</fix>
</trkpt>
<trkpt lat="-27.274439" lon="151.290064">
  <ele>343.1</ele>
  <time>2026-09-01T19:50:41Z</time>
  <course>7.09</course>
  <speed>0.0</speed>
  <fix>3d</fix>
</trkpt>
<trkpt lat="-27.274439" lon="151.290064">
  <ele>343.1</ele>
  <time>2026-09-01T19:50:41Z</time>
  <course>7.12</course>
  <speed>0.0</speed>
  <fix>3d</fix>
</trkpt>
<trkpt lat="-27.274439" lon="151.290064">
  <ele>343.1</ele>
  <time>2026-09-01T19:50:41Z</time>
  <course>7.09</course>
  <speed>0.0</speed>
  <fix>3d</fix>
</trkpt>
<trkpt lat="-27.274439" lon="151.290064">
  <ele>343.1</ele>
  <time>2026-09-01T19:50:41Z</time>
  <course>7.12</course>
  <speed>0.0</speed>
  <fix>3d</fix>
</trkpt>
<trkpt lat="-27.274439" lon="151.290064">
  <ele>343.1</ele>
  <time>2026-09-01T19:50:41Z</time>
  <course>7.09</course>
  <speed>0.0</speed>
  <fix>3d</fix>
</trkpt>
<trkpt lat="-27.274439" lon="151.290064">
  <ele>343.1</ele>
  <time>2026-09-01T19:50:41Z</time>
  <course>7.12</course>
  <speed>0.0</speed>
  <fix>3d</fix>
</trkpt>
<trkpt lat="-27.274439" lon="151.290064">
  <ele>343.1</ele>
  <time>2026-09-01T19:50:41Z</time>
  <course>7.09</course>
  <speed>0.0</speed>
  <fix>3d</fix>
</trkpt>
<trkpt lat="-27.274439" lon="151.290064">
  <ele>343.1</ele>
  <time>2026-09-01T19:50:41Z</time>
  <course>7.12</course>
  <speed>0.0</speed>
  <fix>3d</fix>
</trkpt>
<trkpt lat="-27.274439" lon="151.290064">
  <ele>343.1</ele>
  <time>2026-09-01T19:50:41Z</time>
  <course>7.09</course>
  <speed>0.0</speed>
  <fix>3d</fix>
</trkpt>
<trkpt lat="-27.274439" lon="151.290064">
  <ele>343.1</ele>
  <time>2026-09-01T19:50:41Z</time>
  <course>7.12</course>
  <speed>0.0</speed>
  <fix>3d</fix>
</trkpt>
<trkpt lat="-27.274439" lon="151.290064">
  <ele>343.1</ele>
  <time>2026-09-01T19:50:41Z</time>
  <course>7.09</course>
  <speed>0.0</speed>
  <fix>3d</fix>
</trkpt>
<trkpt lat="-27.274439" lon="151.290064">
  <ele>343.1</ele>
  <time>2026-09-01T19:50:41Z</time>
  <course>7.12</course>
  <speed>0.0</speed>
  <fix>3d</fix>
</trkpt>
<trkpt lat="-27.274439" lon="151.290064">
  <ele>343.1</ele>
  <time>2026-09-01T19:50:41Z</time>
  <course>7.09</course>
  <speed>0.0</speed>
  <fix>3d</fix>
</trkpt>
<trkpt lat="-27.274439" lon="151.290064">
  <ele>343.1</ele>
  <time>2026-09-01T19:50:41Z</time>
  <course>7.12</course>
  <speed>0.0</speed>
  <fix>3d</fix>
</trkpt>
<trkpt lat="-27.274439" lon="151.290064">
  <ele>343.1</ele>
  <time>2026-09-01T19:50:41Z</time>
  <course>7.09</course>
  <speed>0.0</speed>
  <fix>3d</fix>
</trkpt>
<trkpt lat="-27.274439" lon="151.290064">
  <ele>343.1</ele>
  <time>2026-09-01T19:50:41Z</time>
  <course>7.12</course>
  <speed>0.0</speed>
  <fix>3d</fix>
</trkpt>
<trkpt lat="-27.274439" lon="151.290064">
  <ele>343.1</ele>
  <time>2026-09-01T19:50:41Z</time>
  <course>7.09</course>
  <speed>0.0</speed>
  <fix>3d</fix>
</trkpt>
<trkpt lat="-27.274439" lon="151.290064">
  <ele>343.1</ele>
  <time>2026-09-01T19:50:41Z</time>
  <course>7.12</course>
  <speed>0.0</speed>
  <fix>3d</fix>
</trkpt>
<trkpt lat="-27.274439" lon="151.290064">
  <ele>343.1</ele>
  <time>2026-09-01T19:50:41Z</time>
  <course>7.09</course>
  <speed>0.0</speed>
  <fix>3d</fix>
</trkpt>
<trkpt lat="-27.274439" lon="151.290064">
  <ele>343.1</ele>
  <time>2026-09-01T19:50:41Z</time>
  <course>7.12</course>
  <speed>0.0</speed>
  <fix>3d</fix>
</trkpt>
<trkpt lat="-27.274439" lon="151.290064">
  <ele>343.1</ele>
  <time>2026-09-01T19:50:41Z</time>
  <course>7.09</course>
  <speed>0.0</speed>
  <fix>3d</fix>
</trkpt>
<trkpt lat="-27.274439" lon="151.290064">
  <ele>343.1</ele>
  <time>2026-09-01T19:50:41Z</time>
  <course>7.12</course>
  <speed>0.0</speed>
  <fix>3d</fix>
</trkpt>
<trkpt lat="-27.274439" lon="151.290064">
  <ele>343.1</ele>
  <time>2026-09-01T19:50:41Z</time>
  <course>7.09</course>
  <speed>0.0</speed>
  <fix>3d</fix>
</trkpt>
<trkpt lat="-27.274439" lon="151.290064">
  <ele>343.1</ele>
  <time>2026-09-01T19:50:41Z</time>
  <course>7.12</course>
  <speed>0.0</speed>
  <fix>3d</fix>
</trkpt>
<trkpt lat="-27.274439" lon="151.290064">
  <ele>343.1</ele>
  <time>2026-09-01T19:50:41Z</time>
  <course>7.09</course>
  <speed>0.0</speed>
  <fix>3d</fix>
</trkpt>
<trkpt lat="-27.274439" lon="151.290064">
  <ele>343.1</ele>
  <time>2026-09-01T19:50:41Z</time>
  <course>7.12</course>
  <speed>0.0</speed>
  <fix>3d</fix>
</trkpt>
<trkpt lat="-27.274439" lon="151.290064">
  <ele>343.1</ele>
  <time>2026-09-01T19:50:41Z</time>
  <course>7.09</course>
  <speed>0.0</speed>
  <fix>3d</fix>
</trkpt>
<trkpt lat="-27.274439" lon="151.290064">
  <ele>343.1</ele>
  <time>2026-09-01T19:50:41Z</time>
  <course>7.12</course>
  <speed>0.0</speed>
  <fix>3d</fix>
</trkpt>
<trkpt lat="-27.274439" lon="151.290064">
  <ele>343.1</ele>
  <time>2026-09-01T19:50:41Z</time>
  <course>7.09</course>
  <speed>0.0</speed>
  <fix>3d</fix>
</trkpt>
<trkpt lat="-27.274439" lon="151.290064">
  <ele>343.1</ele>
  <time>2026-09-01T19:50:41Z</time>
  <course>7.12</course>
  <speed>0.0</speed>
  <fix>3d</fix>
</trkpt>
<trkpt lat="-27.274439" lon="151.290064">
  <ele>343.1</ele>
  <time>2026-09-01T19:50:41Z</time>
  <course>7.09</course>
  <speed>0.0</speed>
  <fix>3d</fix>
</trkpt>
<trkpt lat="-27.274439" lon="151.290064">
  <ele>343.1</ele>
  <time>2026-09-01T19:50:41Z</time>
  <course>7.12</course>
  <speed>0.0</speed>
  <fix>3d</fix>
</trkpt>
<trkpt lat="-27.274439" lon="151.290064">
  <ele>343.1</ele>
  <time>2026-09-01T19:50:41Z</time>
  <course>7.09</course>
  <speed>0.0</speed>
  <fix>3d</fix>
</trkpt>
<trkpt lat="-27.274439" lon="151.290064">
  <ele>343.1</ele>
  <time>2026-09-01T19:50:41Z</time>
  <course>7.12</course>
  <speed>0.0</speed>
  <fix>3d</fix>
</trkpt>
<trkpt lat="-27.274439" lon="151.290064">
  <ele>343.1</ele>
  <time>2026-09-01T19:50:41Z</time>
  <course>7.09</course>
  <speed>0.0</speed>
  <fix>3d</fix>
</trkpt>
<trkpt lat="-27.274439" lon="151.290064">
  <ele>343.1</ele>
  <time>2026-09-01T19:50:41Z</time>
  <course>7.12</course>
  <speed>0.0</speed>
  <fix>3d</fix>
</trkpt>
<trkpt lat="-27.274439" lon="151.290064">
  <ele>343.1</ele>
  <time>2026-09-01T19:50:41Z</time>
  <course>7.09</course>
  <speed>0.0</speed>
  <fix>3d</fix>
</trkpt>
<trkpt lat="-27.274439" lon="151.290064">
  <ele>343.1</ele>
  <time>2026-09-01T19:50:41Z</time>
  <course>7.12</course>
  <speed>0.0</speed>
  <fix>3d</fix>
</trkpt>
<trkpt lat="-27.274439" lon="151.290064">
  <ele>343.1</ele>
  <time>2026-09-01T19:50:41Z</time>
  <course>7.09</course>
  <speed>0.0</speed>
  <fix>3d</fix>
</trkpt>
<trkpt lat="-27.274439" lon="151.290064">
  <ele>343.1</ele>
  <time>2026-09-01T19:50:41Z</time>
  <course>7.12</course>
  <speed>0.0</speed>
  <fix>3d</fix>
</trkpt>
<trkpt lat="-27.274439" lon="151.290064">
  <ele>343.1</ele>
  <time>2026-09-01T19:50:41Z</time>
  <course>7.09</course>
  <speed>0.0</speed>
  <fix>3d</fix>
</trkpt>
<trkpt lat="-27.274439" lon="151.290064">
  <ele>343.1</ele>
  <time>2026-09-01T19:50:41Z</time>
  <course>7.12</course>
  <speed>0.0</speed>
  <fix>3d</fix>
</trkpt>
<trkpt lat="-27.274439" lon="151.290064">
  <ele>343.1</ele>
  <time>2026-09-01T19:50:41Z</time>
  <course>7.09</course>
  <speed>0.0</speed>
  <fix>3d</fix>
</trkpt>
<trkpt lat="-27.274439" lon="151.290064">
  <ele>343.1</ele>
  <time>2026-09-01T19:50:41Z</time>
  <course>7.12</course>
  <speed>0.0</speed>
  <fix>3d</fix>
</trkpt>
<trkpt lat="-27.274439" lon="151.290064">
  <ele>343.1</ele>
  <time>2026-09-01T19:50:41Z</time>
  <course>7.09</course>
  <speed>0.0</speed>
  <fix>3d</fix>
</trkpt>
<trkpt lat="-27.274439" lon="151.290064">
  <ele>343.1</ele>
  <time>2026-09-01T19:50:41Z</time>
  <course>7.12</course>
  <speed>0.0</speed>
  <fix>3d</fix>
</trkpt>
<trkpt lat="-27.274439" lon="151.290064">
  <ele>343.1</ele>
  <time>2026-09-01T19:50:41Z</time>
  <course>7.09</course>
  <speed>0.0</speed>
  <fix>3d</fix>
</trkpt>
<trkpt lat="-27.274439" lon="151.290064">
  <ele>343.1</ele>
  <time>2026-09-01T19:50:41Z</time>
  <course>7.12</course>
  <speed>0.0</speed>
  <fix>3d</fix>
</trkpt>
<trkpt lat="-27.274439" lon="151.290064">
  <ele>343.1</ele>
  <time>2026-09-01T19:50:41Z</time>
  <course>7.09</course>
  <speed>0.0</speed>
  <fix>3d</fix>
</trkpt>
<trkpt lat="-27.274439" lon="151.290064">
  <ele>343.1</ele>
  <time>2026-09-01T19:50:41Z</time>
  <course>7.12</course>
  <speed>0.0</speed>
  <fix>3d</fix>
</trkpt>
<trkpt lat="-27.274439" lon="151.290064">
  <ele>343.1</ele>
  <time>2026-09-01T19:50:41Z</time>
  <course>7.09</course>
  <speed>0.0</speed>
  <fix>3d</fix>
</trkpt>
<trkpt lat="-27.274439" lon="151.290064">
  <ele>343.1</ele>
  <time>2026-09-01T19:50:41Z</time>
  <course>7.12</course>
  <speed>0.0</speed>
  <fix>3d</fix>
</trkpt>
<trkpt lat="-27.274439" lon="151.290064">
  <ele>343.1</ele>
  <time>2026-09-01T19:50:41Z</time>
  <course>7.09</course>
  <speed>0.0</speed>
  <fix>3d</fix>
</trkpt>
<trkpt lat="-27.274439" lon="151.290064">
  <ele>343.1</ele>
  <time>2026-09-01T19:50:41Z</time>
  <course>7.12</course>
  <speed>0.0</speed>
  <fix>3d</fix>
</trkpt>
<trkpt lat="-27.274439" lon="151.290064">
  <ele>343.1</ele>
  <time>2026-09-01T19:50:41Z</time>
  <course>7.09</course>
  <speed>0.0</speed>
  <fix>3d</fix>
</trkpt>
<trkpt lat="-27.274439" lon="151.290064">
  <ele>343.1</ele>
  <time>2026-09-01T19:50:41Z</time>
  <course>7.12</course>
  <speed>0.0</speed>
  <fix>3d</fix>
</trkpt>
<trkpt lat="-27.274439" lon="151.290064">
  <ele>343.1</ele>
  <time>2026-09-01T19:50:41Z</time>
  <course>7.09</course>
  <speed>0.0</speed>
  <fix>3d</fix>
</trkpt>
<trkpt lat="-27.274439" lon="151.290064">
  <ele>343.1</ele>
  <time>2026-09-01T19:50:41Z</time>
  <course>7.12</course>
  <speed>0.0</speed>
  <fix>3d</fix>
</trkpt>
<trkpt lat="-27.274439" lon="151.290064">
  <ele>343.1</ele>
  <time>2026-09-01T19:50:41Z</time>
  <course>7.09</course>
  <speed>0.0</speed>
  <fix>3d</fix>
</trkpt>
<trkpt lat="-27.274439" lon="151.290064">
  <ele>343.1</ele>
  <time>2026-09-01T19:50:41Z</time>
  <course>7.12</course>
  <speed>0.0</speed>
  <fix>3d</fix>
</trkpt>
<trkpt lat="-27.274439" lon="151.290064">
  <ele>343.1</ele>
  <time>2026-09-01T19:50:41Z</time>
  <course>7.09</course>
  <speed>0.0</speed>
  <fix>3d</fix>
</trkpt>
<trkpt lat="-27.274439" lon="151.290064">
  <ele>343.1</ele>
  <time>2026-09-01T19:50:41Z</time>
  <course>7.12</course>
  <speed>0.0</speed>
  <fix>3d</fix>
</trkpt>
<trkpt lat="-27.274439" lon="151.290064">
  <ele>343.1</ele>
  <time>2026-09-01T19:50:41Z</time>
  <course>7.09</course>
  <speed>0.0</speed>
  <fix>3d</fix>
</trkpt>
<trkpt lat="-27.274439" lon="151.290064">
  <ele>343.1</ele>
  <time>2026-09-01T19:50:41Z</time>
  <course>7.12</course>
  <speed>0.0</speed>
  <fix>3d</fix>
</trkpt>
<trkpt lat="-27.274439" lon="151.290064">
  <ele>343.1</ele>
  <time>2026-09-01T19:50:41Z</time>
  <course>7.09</course>
  <speed>0.0</speed>
  <fix>3d</fix>
</trkpt>
<trkpt lat="-27.274439" lon="151.290064">
  <ele>343.1</ele>
  <time>2026-09-01T19:50:41Z</time>
  <course>7.12</course>
  <speed>0.0</speed>
  <fix>3d</fix>
</trkpt>
<trkpt lat="-27.274439" lon="151.290064">
  <ele>343.1</ele>
  <time>2026-09-01T19:50:41Z</time>
  <course>7.09</course>
  <speed>0.0</speed>
  <fix>3d</fix>
</trkpt>
<trkpt lat="-27.274439" lon="151.290064">
  <ele>343.1</ele>
  <time>2026-09-01T19:50:41Z</time>
  <course>7.12</course>
  <speed>0.0</speed>
  <fix>3d</fix>
</trkpt>
<trkpt lat="-27.274439" lon="151.290064">
  <ele>343.1</ele>
  <time>2026-09-01T19:50:41Z</time>
  <course>7.09</course>
  <speed>0.0</speed>
  <fix>3d</fix>
</trkpt>
<trkpt lat="-27.274439" lon="151.290064">
  <ele>343.1</ele>
  <time>2026-09-01T19:50:41Z</time>
  <course>7.12</course>
  <speed>0.0</speed>
  <fix>3d</fix>
</trkpt>
<trkpt lat="-27.274439" lon="151.290064">
  <ele>343.1</ele>
  <time>2026-09-01T19:50:41Z</time>
  <course>7.09</course>
  <speed>0.0</speed>
  <fix>3d</fix>
</trkpt>
<trkpt lat="-27.274439" lon="151.290064">
  <ele>343.1</ele>
  <time>2026-09-01T19:50:41Z</time>
  <course>7.12</course>
  <speed>0.0</speed>
  <fix>3d</fix>
</trkpt>
<trkpt lat="-27.274439" lon="151.290064">
  <ele>343.1</ele>
  <time>2026-09-01T19:50:41Z</time>
  <course>7.09</course>
  <speed>0.0</speed>
  <fix>3d</fix>
</trkpt>
<trkpt lat="-27.274439" lon="151.290064">
  <ele>343.1</ele>
  <time>2026-09-01T19:50:41Z</time>
  <course>7.12</course>
  <speed>0.0</speed>
  <fix>3d</fix>
</trkpt>
<trkpt lat="-27.274439" lon="151.290064">
  <ele>343.1</ele>
  <time>2026-09-01T19:50:41Z</time>
  <course>7.09</course>
  <speed>0.0</speed>
  <fix>3d</fix>
</trkpt>
<trkpt lat="-27.274439" lon="151.290064">
  <ele>343.1</ele>
  <time>2026-09-01T19:50:41Z</time>
  <course>7.12</course>
  <speed>0.0</speed>
  <fix>3d</fix>
</trkpt>
<trkpt lat="-27.274439" lon="151.290064">
  <ele>343.1</ele>
  <time>2026-09-01T19:50:41Z</time>
  <course>7.09</course>
  <speed>0.0</speed>
  <fix>3d</fix>
</trkpt>
<trkpt lat="-27.274439" lon="151.290064">
  <ele>343.1</ele>
  <time>2026-09-01T19:50:41Z</time>
  <course>7.12</course>
  <speed>0.0</speed>
  <fix>3d</fix>
</trkpt>
<trkpt lat="-27.274439" lon="151.290064">
  <ele>343.1</ele>
  <time>2026-09-01T19:50:41Z</time>
  <course>7.09</course>
  <speed>0.0</speed>
  <fix>3d</fix>
</trkpt>
<trkpt lat="-27.274439" lon="151.290064">
  <ele>343.1</ele>
  <time>2026-09-01T19:50:41Z</time>
  <course>7.12</course>
  <speed>0.0</speed>
  <fix>3d</fix>
</trkpt>
<trkpt lat="-27.274439" lon="151.290064">
  <ele>343.1</ele>
  <time>2026-09-01T19:50:41Z</time>
  <course>7.09</course>
  <speed>0.0</speed>
  <fix>3d</fix>
</trkpt>
<trkpt lat="-27.274439" lon="151.290064">
  <ele>343.1</ele>
  <time>2026-09-01T19:50:41Z</time>
  <course>7.12</course>
  <speed>0.0</speed>
  <fix>3d</fix>
</trkpt>
<trkpt lat="-27.274439" lon="151.290064">
  <ele>343.1</ele>
  <time>2026-09-01T19:50:42Z</time>
  <course>7.09</course>
  <speed>0.0</speed>
  <fix>3d</fix>
</trkpt>
<trkpt lat="-27.274439" lon="151.290064">
  <ele>343.1</ele>
  <time>2026-09-01T19:50:42Z</time>
  <course>7.12</course>
  <speed>0.0</speed>
  <fix>3d</fix>
</trkpt>
<trkpt lat="-27.274439" lon="151.290064">
  <ele>343.1</ele>
  <time>2026-09-01T19:50:42Z</time>
  <course>7.09</course>
  <speed>0.0</speed>
  <fix>3d</fix>
</trkpt>
<trkpt lat="-27.274439" lon="151.290064">
  <ele>343.1</ele>
  <time>2026-09-01T19:50:42Z</time>
  <course>7.12</course>
  <speed>0.0</speed>
  <fix>3d</fix>
</trkpt>
<trkpt lat="-27.274439" lon="151.290064">
  <ele>343.1</ele>
  <time>2026-09-01T19:50:42Z</time>
  <course>7.09</course>
  <speed>0.0</speed>
  <fix>3d</fix>
</trkpt>
<trkpt lat="-27.274439" lon="151.290064">
  <ele>343.1</ele>
  <time>2026-09-01T19:50:42Z</time>
  <course>7.12</course>
  <speed>0.0</speed>
  <fix>3d</fix>
</trkpt>
<trkpt lat="-27.274439" lon="151.290064">
  <ele>343.1</ele>
  <time>2026-09-01T19:50:42Z</time>
  <course>7.09</course>
  <speed>0.0</speed>
  <fix>3d</fix>
</trkpt>
<trkpt lat="-27.274439" lon="151.290064">
  <ele>343.1</ele>
  <time>2026-09-01T19:50:42Z</time>
  <course>7.12</course>
  <speed>0.0</speed>
  <fix>3d</fix>
</trkpt>
<trkpt lat="-27.274439" lon="151.290064">
  <ele>343.1</ele>
  <time>2026-09-01T19:50:42Z</time>
  <course>7.09</course>
  <speed>0.0</speed>
  <fix>3d</fix>
</trkpt>
<trkpt lat="-27.274439" lon="151.290064">
  <ele>343.1</ele>
  <time>2026-09-01T19:50:42Z</time>
  <course>7.12</course>
  <speed>0.0</speed>
  <fix>3d</fix>
</trkpt>
<trkpt lat="-27.274439" lon="151.290064">
  <ele>343.1</ele>
  <time>2026-09-01T19:50:42Z</time>
  <course>7.09</course>
  <speed>0.0</speed>
  <fix>3d</fix>
</trkpt>
<trkpt lat="-27.274439" lon="151.290064">
  <ele>343.1</ele>
  <time>2026-09-01T19:50:42Z</time>
  <course>7.12</course>
  <speed>0.0</speed>
  <fix>3d</fix>
</trkpt>
<trkpt lat="-27.274439" lon="151.290064">
  <ele>343.1</ele>
  <time>2026-09-01T19:50:42Z</time>
  <course>7.09</course>
  <speed>0.0</speed>
  <fix>3d</fix>
</trkpt>
<trkpt lat="-27.274439" lon="151.290064">
  <ele>343.1</ele>
  <time>2026-09-01T19:50:42Z</time>
  <course>7.12</course>
  <speed>0.0</speed>
  <fix>3d</fix>
</trkpt>
<trkpt lat="-27.274439" lon="151.290064">
  <ele>343.1</ele>
  <time>2026-09-01T19:50:42Z</time>
  <course>7.09</course>
  <speed>0.0</speed>
  <fix>3d</fix>
</trkpt>
<trkpt lat="-27.274439" lon="151.290064">
  <ele>343.1</ele>
  <time>2026-09-01T19:50:42Z</time>
  <course>7.12</course>
  <speed>0.0</speed>
  <fix>3d</fix>
</trkpt>
<trkpt lat="-27.274439" lon="151.290064">
  <ele>343.1</ele>
  <time>2026-09-01T19:50:42Z</time>
  <course>7.09</course>
  <speed>0.0</speed>
  <fix>3d</fix>
</trkpt>
<trkpt lat="-27.274439" lon="151.290064">
  <ele>343.1</ele>
  <time>2026-09-01T19:50:42Z</time>
  <course>7.12</course>
  <speed>0.0</speed>
  <fix>3d</fix>
</trkpt>
<trkpt lat="-27.274439" lon="151.290064">
  <ele>343.1</ele>
  <time>2026-09-01T19:50:42Z</time>
  <course>7.09</course>
  <speed>0.0</speed>
  <fix>3d</fix>
</trkpt>
<trkpt lat="-27.274439" lon="151.290064">
  <ele>343.1</ele>
  <time>2026-09-01T19:50:42Z</time>
  <course>7.12</course>
  <speed>0.0</speed>
  <fix>3d</fix>
</trkpt>
<trkpt lat="-27.274439" lon="151.290064">
  <ele>343.1</ele>
  <time>2026-09-01T19:50:42Z</time>
  <course>7.09</course>
  <speed>0.0</speed>
  <fix>3d</fix>
</trkpt>
<trkpt lat="-27.274439" lon="151.290064">
  <ele>343.1</ele>
  <time>2026-09-01T19:50:42Z</time>
  <course>7.12</course>
  <speed>0.0</speed>
  <fix>3d</fix>
</trkpt>
<trkpt lat="-27.274439" lon="151.290064">
  <ele>343.1</ele>
  <time>2026-09-01T19:50:42Z</time>
  <course>7.09</course>
  <speed>0.0</speed>
  <fix>3d</fix>
</trkpt>
<trkpt lat="-27.274439" lon="151.290064">
  <ele>343.1</ele>
  <time>2026-09-01T19:50:42Z</time>
  <course>7.12</course>
  <speed>0.0</speed>
  <fix>3d</fix>
</trkpt>
<trkpt lat="-27.274439" lon="151.290064">
  <ele>343.1</ele>
  <time>2026-09-01T19:50:42Z</time>
  <course>7.09</course>
  <speed>0.0</speed>
  <fix>3d</fix>
</trkpt>
<trkpt lat="-27.274439" lon="151.290064">
  <ele>343.1</ele>
  <time>2026-09-01T19:50:42Z</time>
  <course>7.12</course>
  <speed>0.0</speed>
  <fix>3d</fix>
</trkpt>
<trkpt lat="-27.274439" lon="151.290064">
  <ele>343.1</ele>
  <time>2026-09-01T19:50:42Z</time>
  <course>7.09</course>
  <speed>0.0</speed>
  <fix>3d</fix>
</trkpt>
<trkpt lat="-27.274439" lon="151.290064">
  <ele>343.1</ele>
  <time>2026-09-01T19:50:42Z</time>
  <course>7.12</course>
  <speed>0.0</speed>
  <fix>3d</fix>
</trkpt>
<trkpt lat="-27.274439" lon="151.290064">
  <ele>343.1</ele>
  <time>2026-09-01T19:50:42Z</time>
  <course>7.09</course>
  <speed>0.0</speed>
  <fix>3d</fix>
</trkpt>
<trkpt lat="-27.274439" lon="151.290064">
  <ele>343.1</ele>
  <time>2026-09-01T19:50:42Z</time>
  <course>7.12</course>
  <speed>0.0</speed>
  <fix>3d</fix>
</trkpt>
<trkpt lat="-27.274439" lon="151.290064">
  <ele>343.1</ele>
  <time>2026-09-01T19:50:42Z</time>
  <course>7.09</course>
  <speed>0.0</speed>
  <fix>3d</fix>
</trkpt>
<trkpt lat="-27.274439" lon="151.290064">
  <ele>343.1</ele>
  <time>2026-09-01T19:50:42Z</time>
  <course>7.12</course>
  <speed>0.0</speed>
  <fix>3d</fix>
</trkpt>
<trkpt lat="-27.274439" lon="151.290064">
  <ele>343.1</ele>
  <time>2026-09-01T19:50:42Z</time>
  <course>7.09</course>
  <speed>0.0</speed>
  <fix>3d</fix>
</trkpt>
<trkpt lat="-27.274439" lon="151.290064">
  <ele>343.1</ele>
  <time>2026-09-01T19:50:42Z</time>
  <course>7.12</course>
  <speed>0.0</speed>
  <fix>3d</fix>
</trkpt>
<trkpt lat="-27.274439" lon="151.290064">
  <ele>343.1</ele>
  <time>2026-09-01T19:50:42Z</time>
  <course>7.09</course>
  <speed>0.0</speed>
  <fix>3d</fix>
</trkpt>
<trkpt lat="-27.274439" lon="151.290064">
  <ele>343.1</ele>
  <time>2026-09-01T19:50:42Z</time>
  <course>7.12</course>
  <speed>0.0</speed>
  <fix>3d</fix>
</trkpt>
<trkpt lat="-27.274439" lon="151.290064">
  <ele>343.1</ele>
  <time>2026-09-01T19:50:42Z</time>
  <course>7.09</course>
  <speed>0.0</speed>
  <fix>3d</fix>
</trkpt>
<trkpt lat="-27.274439" lon="151.290064">
  <ele>343.1</ele>
  <time>2026-09-01T19:50:42Z</time>
  <course>7.12</course>
  <speed>0.0</speed>
  <fix>3d</fix>
</trkpt>
<trkpt lat="-27.274439" lon="151.290064">
  <ele>343.1</ele>
  <time>2026-09-01T19:50:42Z</time>
  <course>7.09</course>
  <speed>0.0</speed>
  <fix>3d</fix>
</trkpt>
<trkpt lat="-27.274439" lon="151.290064">
  <ele>343.1</ele>
  <time>2026-09-01T19:50:42Z</time>
  <course>7.12</course>
  <speed>0.0</speed>
  <fix>3d</fix>
</trkpt>
<trkpt lat="-27.274439" lon="151.290064">
  <ele>343.1</ele>
  <time>2026-09-01T19:50:42Z</time>
  <course>7.09</course>
  <speed>0.0</speed>
  <fix>3d</fix>
</trkpt>
<trkpt lat="-27.274439" lon="151.290064">
  <ele>343.1</ele>
  <time>2026-09-01T19:50:42Z</time>
  <course>7.12</course>
  <speed>0.0</speed>
  <fix>3d</fix>
</trkpt>
<trkpt lat="-27.274439" lon="151.290064">
  <ele>343.1</ele>
  <time>2026-09-01T19:50:42Z</time>
  <course>7.09</course>
  <speed>0.0</speed>
  <fix>3d</fix>
</trkpt>
<trkpt lat="-27.274439" lon="151.290064">
  <ele>343.1</ele>
  <time>2026-09-01T19:50:42Z</time>
  <course>7.12</course>
  <speed>0.0</speed>
  <fix>3d</fix>
</trkpt>
<trkpt lat="-27.274439" lon="151.290064">
  <ele>343.1</ele>
  <time>2026-09-01T19:50:42Z</time>
  <course>7.09</course>
  <speed>0.0</speed>
  <fix>3d</fix>
</trkpt>
<trkpt lat="-27.274439" lon="151.290064">
  <ele>343.1</ele>
  <time>2026-09-01T19:50:42Z</time>
  <course>7.12</course>
  <speed>0.0</speed>
  <fix>3d</fix>
</trkpt>
<trkpt lat="-27.274439" lon="151.290064">
  <ele>343.1</ele>
  <time>2026-09-01T19:50:42Z</time>
  <course>7.09</course>
  <speed>0.0</speed>
  <fix>3d</fix>
</trkpt>
<trkpt lat="-27.274439" lon="151.290064">
  <ele>343.1</ele>
  <time>2026-09-01T19:50:42Z</time>
  <course>7.12</course>
  <speed>0.0</speed>
  <fix>3d</fix>
</trkpt>
<trkpt lat="-27.274439" lon="151.290064">
  <ele>343.1</ele>
  <time>2026-09-01T19:50:42Z</time>
  <course>7.09</course>
  <speed>0.0</speed>
  <fix>3d</fix>
</trkpt>
<trkpt lat="-27.274439" lon="151.290064">
  <ele>343.1</ele>
  <time>2026-09-01T19:50:42Z</time>
  <course>7.12</course>
  <speed>0.0</speed>
  <fix>3d</fix>
</trkpt>
<trkpt lat="-27.274439" lon="151.290064">
  <ele>343.1</ele>
  <time>2026-09-01T19:50:42Z</time>
  <course>7.09</course>
  <speed>0.0</speed>
  <fix>3d</fix>
</trkpt>
<trkpt lat="-27.274439" lon="151.290064">
  <ele>343.1</ele>
  <time>2026-09-01T19:50:42Z</time>
  <course>7.12</course>
  <speed>0.0</speed>
  <fix>3d</fix>
</trkpt>
<trkpt lat="-27.274439" lon="151.290064">
  <ele>343.1</ele>
  <time>2026-09-01T19:50:42Z</time>
  <course>7.09</course>
  <speed>0.0</speed>
  <fix>3d</fix>
</trkpt>
<trkpt lat="-27.274439" lon="151.290064">
  <ele>343.1</ele>
  <time>2026-09-01T19:50:42Z</time>
  <course>7.12</course>
  <speed>0.0</speed>
  <fix>3d</fix>
</trkpt>
<trkpt lat="-27.274439" lon="151.290064">
  <ele>343.1</ele>
  <time>2026-09-01T19:50:42Z</time>
  <course>7.09</course>
  <speed>0.0</speed>
  <fix>3d</fix>
</trkpt>
<trkpt lat="-27.274439" lon="151.290064">
  <ele>343.1</ele>
  <time>2026-09-01T19:50:42Z</time>
  <course>7.12</course>
  <speed>0.0</speed>
  <fix>3d</fix>
</trkpt>
<trkpt lat="-27.274439" lon="151.290064">
  <ele>343.1</ele>
  <time>2026-09-01T19:50:42Z</time>
  <course>7.09</course>
  <speed>0.0</speed>
  <fix>3d</fix>
</trkpt>
<trkpt lat="-27.274439" lon="151.290064">
  <ele>343.1</ele>
  <time>2026-09-01T19:50:42Z</time>
  <course>7.12</course>
  <speed>0.0</speed>
  <fix>3d</fix>
</trkpt>
<trkpt lat="-27.274439" lon="151.290064">
  <ele>343.1</ele>
  <time>2026-09-01T19:50:42Z</time>
  <course>7.09</course>
  <speed>0.0</speed>
  <fix>3d</fix>
</trkpt>
<trkpt lat="-27.274439" lon="151.290064">
  <ele>343.1</ele>
  <time>2026-09-01T19:50:42Z</time>
  <course>7.12</course>
  <speed>0.0</speed>
  <fix>3d</fix>
</trkpt>
<trkpt lat="-27.274439" lon="151.290064">
  <ele>343.1</ele>
  <time>2026-09-01T19:50:42Z</time>
  <course>7.09</course>
  <speed>0.0</speed>
  <fix>3d</fix>
</trkpt>
<trkpt lat="-27.274439" lon="151.290064">
  <ele>343.1</ele>
  <time>2026-09-01T19:50:42Z</time>
  <course>7.12</course>
  <speed>0.0</speed>
  <fix>3d</fix>
</trkpt>
<trkpt lat="-27.274439" lon="151.290064">
  <ele>343.1</ele>
  <time>2026-09-01T19:50:42Z</time>
  <course>7.09</course>
  <speed>0.0</speed>
  <fix>3d</fix>
</trkpt>
<trkpt lat="-27.274439" lon="151.290064">
  <ele>343.1</ele>
  <time>2026-09-01T19:50:42Z</time>
  <course>7.12</course>
  <speed>0.0</speed>
  <fix>3d</fix>
</trkpt>
<trkpt lat="-27.274439" lon="151.290064">
  <ele>343.1</ele>
  <time>2026-09-01T19:50:42Z</time>
  <course>7.09</course>
  <speed>0.0</speed>
  <fix>3d</fix>
</trkpt>
<trkpt lat="-27.274439" lon="151.290064">
  <ele>343.1</ele>
  <time>2026-09-01T19:50:42Z</time>
  <course>7.12</course>
  <speed>0.0</speed>
  <fix>3d</fix>
</trkpt>
<trkpt lat="-27.274439" lon="151.290064">
  <ele>343.1</ele>
  <time>2026-09-01T19:50:42Z</time>
  <course>7.09</course>
  <speed>0.0</speed>
  <fix>3d</fix>
</trkpt>
<trkpt lat="-27.274439" lon="151.290064">
  <ele>343.1</ele>
  <time>2026-09-01T19:50:42Z</time>
  <course>7.12</course>
  <speed>0.0</speed>
  <fix>3d</fix>
</trkpt>
<trkpt lat="-27.274439" lon="151.290064">
  <ele>343.1</ele>
  <time>2026-09-01T19:50:42Z</time>
  <course>7.09</course>
  <speed>0.0</speed>
  <fix>3d</fix>
</trkpt>
<trkpt lat="-27.274439" lon="151.290064">
  <ele>343.1</ele>
  <time>2026-09-01T19:50:42Z</time>
  <course>7.12</course>
  <speed>0.0</speed>
  <fix>3d</fix>
</trkpt>
<trkpt lat="-27.274439" lon="151.290064">
  <ele>343.1</ele>
  <time>2026-09-01T19:50:42Z</time>
  <course>7.09</course>
  <speed>0.0</speed>
  <fix>3d</fix>
</trkpt>
<trkpt lat="-27.274439" lon="151.290064">
  <ele>343.1</ele>
  <time>2026-09-01T19:50:42Z</time>
  <course>7.12</course>
  <speed>0.0</speed>
  <fix>3d</fix>
</trkpt>
<trkpt lat="-27.274439" lon="151.290064">
  <ele>343.1</ele>
  <time>2026-09-01T19:50:42Z</time>
  <course>7.09</course>
  <speed>0.0</speed>
  <fix>3d</fix>
</trkpt>
<trkpt lat="-27.274439" lon="151.290064">
  <ele>343.1</ele>
  <time>2026-09-01T19:50:42Z</time>
  <course>7.12</course>
  <speed>0.0</speed>
  <fix>3d</fix>
</trkpt>
<trkpt lat="-27.274439" lon="151.290064">
  <ele>343.1</ele>
  <time>2026-09-01T19:50:42Z</time>
  <course>7.09</course>
  <speed>0.0</speed>
  <fix>3d</fix>
</trkpt>
<trkpt lat="-27.274439" lon="151.290064">
  <ele>343.1</ele>
  <time>2026-09-01T19:50:42Z</time>
  <course>7.12</course>
  <speed>0.0</speed>
  <fix>3d</fix>
</trkpt>
<trkpt lat="-27.274439" lon="151.290064">
  <ele>343.1</ele>
  <time>2026-09-01T19:50:42Z</time>
  <course>7.09</course>
  <speed>0.0</speed>
  <fix>3d</fix>
</trkpt>
<trkpt lat="-27.274439" lon="151.290064">
  <ele>343.1</ele>
  <time>2026-09-01T19:50:42Z</time>
  <course>7.12</course>
  <speed>0.0</speed>
  <fix>3d</fix>
</trkpt>
<trkpt lat="-27.274439" lon="151.290064">
  <ele>343.1</ele>
  <time>2026-09-01T19:50:42Z</time>
  <course>7.09</course>
  <speed>0.0</speed>
  <fix>3d</fix>
</trkpt>
<trkpt lat="-27.274439" lon="151.290064">
  <ele>343.1</ele>
  <time>2026-09-01T19:50:42Z</time>
  <course>7.12</course>
  <speed>0.0</speed>
  <fix>3d</fix>
</trkpt>
<trkpt lat="-27.274439" lon="151.290064">
  <ele>343.1</ele>
  <time>2026-09-01T19:50:42Z</time>
  <course>7.09</course>
  <speed>0.0</speed>
  <fix>3d</fix>
</trkpt>
<trkpt lat="-27.274439" lon="151.290064">
  <ele>343.1</ele>
  <time>2026-09-01T19:50:42Z</time>
  <course>7.12</course>
  <speed>0.0</speed>
  <fix>3d</fix>
</trkpt>
<trkpt lat="-27.274439" lon="151.290064">
  <ele>343.1</ele>
  <time>2026-09-01T19:50:42Z</time>
  <course>7.09</course>
  <speed>0.0</speed>
  <fix>3d</fix>
</trkpt>
<trkpt lat="-27.274439" lon="151.290064">
  <ele>343.1</ele>
  <time>2026-09-01T19:50:42Z</time>
  <course>7.12</course>
  <speed>0.0</speed>
  <fix>3d</fix>
</trkpt>
<trkpt lat="-27.274439" lon="151.290064">
  <ele>343.1</ele>
  <time>2026-09-01T19:50:42Z</time>
  <course>7.09</course>
  <speed>0.0</speed>
  <fix>3d</fix>
</trkpt>
<trkpt lat="-27.274439" lon="151.290064">
  <ele>343.1</ele>
  <time>2026-09-01T19:50:42Z</time>
  <course>7.12</course>
  <speed>0.0</speed>
  <fix>3d</fix>
</trkpt>
<trkpt lat="-27.274439" lon="151.290064">
  <ele>343.1</ele>
  <time>2026-09-01T19:50:42Z</time>
  <course>7.09</course>
  <speed>0.0</speed>
  <fix>3d</fix>
</trkpt>
<trkpt lat="-27.274439" lon="151.290064">
  <ele>343.1</ele>
  <time>2026-09-01T19:50:42Z</time>
  <course>7.12</course>
  <speed>0.0</speed>
  <fix>3d</fix>
</trkpt>
<trkpt lat="-27.274439" lon="151.290064">
  <ele>343.1</ele>
  <time>2026-09-01T19:50:42Z</time>
  <course>7.09</course>
  <speed>0.0</speed>
  <fix>3d</fix>
</trkpt>
<trkpt lat="-27.274439" lon="151.290064">
  <ele>343.1</ele>
  <time>2026-09-01T19:50:42Z</time>
  <course>7.12</course>
  <speed>0.0</speed>
  <fix>3d</fix>
</trkpt>
<trkpt lat="-27.274439" lon="151.290064">
  <ele>343.1</ele>
  <time>2026-09-01T19:50:42Z</time>
  <course>7.09</course>
  <speed>0.0</speed>
  <fix>3d</fix>
</trkpt>
<trkpt lat="-27.274439" lon="151.290064">
  <ele>343.1</ele>
  <time>2026-09-01T19:50:42Z</time>
  <course>7.12</course>
  <speed>0.0</speed>
  <fix>3d</fix>
</trkpt>
<trkpt lat="-27.274439" lon="151.290064">
  <ele>343.1</ele>
  <time>2026-09-01T19:50:42Z</time>
  <course>7.09</course>
  <speed>0.0</speed>
  <fix>3d</fix>
</trkpt>
<trkpt lat="-27.274439" lon="151.290064">
  <ele>343.1</ele>
  <time>2026-09-01T19:50:42Z</time>
  <course>7.12</course>
  <speed>0.0</speed>
  <fix>3d</fix>
</trkpt>
<trkpt lat="-27.274439" lon="151.290064">
  <ele>343.1</ele>
  <time>2026-09-01T19:50:42Z</time>
  <course>7.09</course>
  <speed>0.0</speed>
  <fix>3d</fix>
</trkpt>
<trkpt lat="-27.274439" lon="151.290064">
  <ele>343.1</ele>
  <time>2026-09-01T19:50:42Z</time>
  <course>7.12</course>
  <speed>0.0</speed>
  <fix>3d</fix>
</trkpt>
<trkpt lat="-27.274439" lon="151.290064">
  <ele>343.1</ele>
  <time>2026-09-01T19:50:42Z</time>
  <course>7.09</course>
  <speed>0.0</speed>
  <fix>3d</fix>
</trkpt>
<trkpt lat="-27.274439" lon="151.290064">
  <ele>343.1</ele>
  <time>2026-09-01T19:50:42Z</time>
  <course>7.12</course>
  <speed>0.0</speed>
  <fix>3d</fix>
</trkpt>
<trkpt lat="-27.274439" lon="151.290064">
  <ele>343.1</ele>
  <time>2026-09-01T19:50:42Z</time>
  <course>7.09</course>
  <speed>0.0</speed>
  <fix>3d</fix>
</trkpt>
<trkpt lat="-27.274439" lon="151.290064">
  <ele>343.1</ele>
  <time>2026-09-01T19:50:42Z</time>
  <course>7.12</course>
  <speed>0.0</speed>
  <fix>3d</fix>
</trkpt>
<trkpt lat="-27.274439" lon="151.290064">
  <ele>343.1</ele>
  <time>2026-09-01T19:50:42Z</time>
  <course>7.09</course>
  <speed>0.0</speed>
  <fix>3d</fix>
</trkpt>
<trkpt lat="-27.274439" lon="151.290064">
  <ele>343.1</ele>
  <time>2026-09-01T19:50:42Z</time>
  <course>7.12</course>
  <speed>0.0</speed>
  <fix>3d</fix>
</trkpt>
<trkpt lat="-27.274439" lon="151.290064">
  <ele>343.1</ele>
  <time>2026-09-01T19:50:42Z</time>
  <course>7.09</course>
  <speed>0.0</speed>
  <fix>3d</fix>
</trkpt>
<trkpt lat="-27.274439" lon="151.290064">
  <ele>343.1</ele>
  <time>2026-09-01T19:50:42Z</time>
  <course>7.12</course>
  <speed>0.0</speed>
  <fix>3d</fix>
</trkpt>
<trkpt lat="-27.274439" lon="151.290064">
  <ele>343.1</ele>
  <time>2026-09-01T19:50:42Z</time>
  <course>7.09</course>
  <speed>0.0</speed>
  <fix>3d</fix>
</trkpt>
<trkpt lat="-27.274439" lon="151.290064">
  <ele>343.1</ele>
  <time>2026-09-01T19:50:42Z</time>
  <course>7.12</course>
  <speed>0.0</speed>
  <fix>3d</fix>
</trkpt>
<trkpt lat="-27.274439" lon="151.290064">
  <ele>343.1</ele>
  <time>2026-09-01T19:50:42Z</time>
  <course>7.09</course>
  <speed>0.0</speed>
  <fix>3d</fix>
</trkpt>
<trkpt lat="-27.274439" lon="151.290064">
  <ele>343.1</ele>
  <time>2026-09-01T19:50:42Z</time>
  <course>7.12</course>
  <speed>0.0</speed>
  <fix>3d</fix>
</trkpt>
<trkpt lat="-27.274439" lon="151.290064">
  <ele>343.1</ele>
  <time>2026-09-01T19:50:42Z</time>
  <course>7.09</course>
  <speed>0.0</speed>
  <fix>3d</fix>
</trkpt>
<trkpt lat="-27.274439" lon="151.290064">
  <ele>343.1</ele>
  <time>2026-09-01T19:50:42Z</time>
  <course>7.12</course>
  <speed>0.0</speed>
  <fix>3d</fix>
</trkpt>
<trkpt lat="-27.274439" lon="151.290064">
  <ele>343.1</ele>
  <time>2026-09-01T19:50:42Z</time>
  <course>7.09</course>
  <speed>0.0</speed>
  <fix>3d</fix>
</trkpt>
<trkpt lat="-27.274439" lon="151.290064">
  <ele>343.1</ele>
  <time>2026-09-01T19:50:42Z</time>
  <course>7.12</course>
  <speed>0.0</speed>
  <fix>3d</fix>
</trkpt>
<trkpt lat="-27.274439" lon="151.290064">
  <ele>343.1</ele>
  <time>2026-09-01T19:50:42Z</time>
  <course>7.09</course>
  <speed>0.0</speed>
  <fix>3d</fix>
</trkpt>
<trkpt lat="-27.274439" lon="151.290064">
  <ele>343.1</ele>
  <time>2026-09-01T19:50:42Z</time>
  <course>7.12</course>
  <speed>0.0</speed>
  <fix>3d</fix>
</trkpt>
<trkpt lat="-27.274439" lon="151.290064">
  <ele>343.1</ele>
  <time>2026-09-01T19:50:42Z</time>
  <course>7.09</course>
  <speed>0.0</speed>
  <fix>3d</fix>
</trkpt>
<trkpt lat="-27.274439" lon="151.290064">
  <ele>343.1</ele>
  <time>2026-09-01T19:50:42Z</time>
  <course>7.12</course>
  <speed>0.0</speed>
  <fix>3d</fix>
</trkpt>
<trkpt lat="-27.274439" lon="151.290064">
  <ele>343.1</ele>
  <time>2026-09-01T19:50:42Z</time>
  <course>7.09</course>
  <speed>0.0</speed>
  <fix>3d</fix>
</trkpt>
<trkpt lat="-27.274439" lon="151.290064">
  <ele>343.1</ele>
  <time>2026-09-01T19:50:42Z</time>
  <course>7.12</course>
  <speed>0.0</speed>
  <fix>3d</fix>
</trkpt>
<trkpt lat="-27.274439" lon="151.290064">
  <ele>343.1</ele>
  <time>2026-09-01T19:50:42Z</time>
  <course>7.09</course>
  <speed>0.0</speed>
  <fix>3d</fix>
</trkpt>
<trkpt lat="-27.274439" lon="151.290064">
  <ele>343.1</ele>
  <time>2026-09-01T19:50:42Z</time>
  <course>7.12</course>
  <speed>0.0</speed>
  <fix>3d</fix>
</trkpt>
<trkpt lat="-27.274439" lon="151.290064">
  <ele>343.1</ele>
  <time>2026-09-01T19:50:42Z</time>
  <course>7.09</course>
  <speed>0.0</speed>
  <fix>3d</fix>
</trkpt>
<trkpt lat="-27.274439" lon="151.290064">
  <ele>343.1</ele>
  <time>2026-09-01T19:50:42Z</time>
  <course>7.12</course>
  <speed>0.0</speed>
  <fix>3d</fix>
</trkpt>
<trkpt lat="-27.274439" lon="151.290064">
  <ele>343.1</ele>
  <time>2026-09-01T19:50:42Z</time>
  <course>7.09</course>
  <speed>0.0</speed>
  <fix>3d</fix>
</trkpt>
<trkpt lat="-27.274439" lon="151.290064">
  <ele>343.1</ele>
  <time>2026-09-01T19:50:42Z</time>
  <course>7.12</course>
  <speed>0.0</speed>
  <fix>3d</fix>
</trkpt>
<trkpt lat="-27.274439" lon="151.290064">
  <ele>343.1</ele>
  <time>2026-09-01T19:50:42Z</time>
  <course>7.09</course>
  <speed>0.0</speed>
  <fix>3d</fix>
</trkpt>
<trkpt lat="-27.274439" lon="151.290064">
  <ele>343.1</ele>
  <time>2026-09-01T19:50:42Z</time>
  <course>7.12</course>
  <speed>0.0</speed>
  <fix>3d</fix>
</trkpt>
<trkpt lat="-27.274439" lon="151.290064">
  <ele>343.1</ele>
  <time>2026-09-01T19:50:42Z</time>
  <course>7.09</course>
  <speed>0.0</speed>
  <fix>3d</fix>
</trkpt>
<trkpt lat="-27.274439" lon="151.290064">
  <ele>343.1</ele>
  <time>2026-09-01T19:50:42Z</time>
  <course>7.12</course>
  <speed>0.0</speed>
  <fix>3d</fix>
</trkpt>
<trkpt lat="-27.274439" lon="151.290064">
  <ele>343.1</ele>
  <time>2026-09-01T19:50:42Z</time>
  <course>7.09</course>
  <speed>0.0</speed>
  <fix>3d</fix>
</trkpt>
<trkpt lat="-27.274439" lon="151.290064">
  <ele>343.1</ele>
  <time>2026-09-01T19:50:42Z</time>
  <course>7.12</course>
  <speed>0.0</speed>
  <fix>3d</fix>
</trkpt>
<trkpt lat="-27.274439" lon="151.290064">
  <ele>343.1</ele>
  <time>2026-09-01T19:50:42Z</time>
  <course>7.09</course>
  <speed>0.0</speed>
  <fix>3d</fix>
</trkpt>
<trkpt lat="-27.274439" lon="151.290064">
  <ele>343.1</ele>
  <time>2026-09-01T19:50:42Z</time>
  <course>7.12</course>
  <speed>0.0</speed>
  <fix>3d</fix>
</trkpt>
<trkpt lat="-27.274439" lon="151.290064">
  <ele>343.1</ele>
  <time>2026-09-01T19:50:42Z</time>
  <course>7.09</course>
  <speed>0.0</speed>
  <fix>3d</fix>
</trkpt>
<trkpt lat="-27.274439" lon="151.290064">
  <ele>343.1</ele>
  <time>2026-09-01T19:50:42Z</time>
  <course>7.12</course>
  <speed>0.0</speed>
  <fix>3d</fix>
</trkpt>
<trkpt lat="-27.274439" lon="151.290064">
  <ele>343.1</ele>
  <time>2026-09-01T19:50:42Z</time>
  <course>7.09</course>
  <speed>0.0</speed>
  <fix>3d</fix>
</trkpt>
<trkpt lat="-27.274439" lon="151.290064">
  <ele>343.1</ele>
  <time>2026-09-01T19:50:42Z</time>
  <course>7.12</course>
  <speed>0.0</speed>
  <fix>3d</fix>
</trkpt>
<trkpt lat="-27.274439" lon="151.290064">
  <ele>343.1</ele>
  <time>2026-09-01T19:50:42Z</time>
  <course>7.09</course>
  <speed>0.0</speed>
  <fix>3d</fix>
</trkpt>
<trkpt lat="-27.274439" lon="151.290064">
  <ele>343.1</ele>
  <time>2026-09-01T19:50:42Z</time>
  <course>7.12</course>
  <speed>0.0</speed>
  <fix>3d</fix>
</trkpt>
<trkpt lat="-27.274439" lon="151.290064">
  <ele>343.1</ele>
  <time>2026-09-01T19:50:42Z</time>
  <course>7.09</course>
  <speed>0.0</speed>
  <fix>3d</fix>
</trkpt>
<trkpt lat="-27.274439" lon="151.290064">
  <ele>343.1</ele>
  <time>2026-09-01T19:50:42Z</time>
  <course>7.12</course>
  <speed>0.0</speed>
  <fix>3d</fix>
</trkpt>
<trkpt lat="-27.274439" lon="151.290064">
  <ele>343.1</ele>
  <time>2026-09-01T19:50:42Z</time>
  <course>7.09</course>
  <speed>0.0</speed>
  <fix>3d</fix>
</trkpt>
<trkpt lat="-27.274439" lon="151.290064">
  <ele>343.1</ele>
  <time>2026-09-01T19:50:42Z</time>
  <course>7.12</course>
  <speed>0.0</speed>
  <fix>3d</fix>
</trkpt>
<trkpt lat="-27.274439" lon="151.290064">
  <ele>343.1</ele>
  <time>2026-09-01T19:50:42Z</time>
  <course>7.09</course>
  <speed>0.0</speed>
  <fix>3d</fix>
</trkpt>
<trkpt lat="-27.274439" lon="151.290064">
  <ele>343.1</ele>
  <time>2026-09-01T19:50:42Z</time>
  <course>7.12</course>
  <speed>0.0</speed>
  <fix>3d</fix>
</trkpt>
<trkpt lat="-27.274439" lon="151.290064">
  <ele>343.1</ele>
  <time>2026-09-01T19:50:42Z</time>
  <course>7.09</course>
  <speed>0.0</speed>
  <fix>3d</fix>
</trkpt>
<trkpt lat="-27.274439" lon="151.290064">
  <ele>343.1</ele>
  <time>2026-09-01T19:50:42Z</time>
  <course>7.12</course>
  <speed>0.0</speed>
  <fix>3d</fix>
</trkpt>
<trkpt lat="-27.274439" lon="151.290064">
  <ele>343.1</ele>
  <time>2026-09-01T19:50:42Z</time>
  <course>7.09</course>
  <speed>0.0</speed>
  <fix>3d</fix>
</trkpt>
<trkpt lat="-27.274439" lon="151.290064">
  <ele>343.1</ele>
  <time>2026-09-01T19:50:42Z</time>
  <course>7.12</course>
  <speed>0.0</speed>
  <fix>3d</fix>
</trkpt>
<trkpt lat="-27.274439" lon="151.290064">
  <ele>343.1</ele>
  <time>2026-09-01T19:50:42Z</time>
  <course>7.09</course>
  <speed>0.0</speed>
  <fix>3d</fix>
</trkpt>
<trkpt lat="-27.274439" lon="151.290064">
  <ele>343.1</ele>
  <time>2026-09-01T19:50:42Z</time>
  <course>7.12</course>
  <speed>0.0</speed>
  <fix>3d</fix>
</trkpt>
<trkpt lat="-27.274439" lon="151.290064">
  <ele>343.1</ele>
  <time>2026-09-01T19:50:42Z</time>
  <course>7.09</course>
  <speed>0.0</speed>
  <fix>3d</fix>
</trkpt>
<trkpt lat="-27.274439" lon="151.290064">
  <ele>343.1</ele>
  <time>2026-09-01T19:50:42Z</time>
  <course>7.12</course>
  <speed>0.0</speed>
  <fix>3d</fix>
</trkpt>
<trkpt lat="-27.274439" lon="151.290064">
  <ele>343.1</ele>
  <time>2026-09-01T19:50:42Z</time>
  <course>7.09</course>
  <speed>0.0</speed>
  <fix>3d</fix>
</trkpt>
<trkpt lat="-27.274439" lon="151.290064">
  <ele>343.1</ele>
  <time>2026-09-01T19:50:42Z</time>
  <course>7.12</course>
  <speed>0.0</speed>
  <fix>3d</fix>
</trkpt>
<trkpt lat="-27.274439" lon="151.290064">
  <ele>343.1</ele>
  <time>2026-09-01T19:50:42Z</time>
  <course>7.09</course>
  <speed>0.0</speed>
  <fix>3d</fix>
</trkpt>
<trkpt lat="-27.274439" lon="151.290064">
  <ele>343.1</ele>
  <time>2026-09-01T19:50:42Z</time>
  <course>7.12</course>
  <speed>0.0</speed>
  <fix>3d</fix>
</trkpt>
<trkpt lat="-27.274439" lon="151.290064">
  <ele>343.1</ele>
  <time>2026-09-01T19:50:42Z</time>
  <course>7.09</course>
  <speed>0.0</speed>
  <fix>3d</fix>
</trkpt>
<trkpt lat="-27.274439" lon="151.290064">
  <ele>343.1</ele>
  <time>2026-09-01T19:50:42Z</time>
  <course>7.12</course>
  <speed>0.0</speed>
  <fix>3d</fix>
</trkpt>
<trkpt lat="-27.274439" lon="151.290064">
  <ele>343.1</ele>
  <time>2026-09-01T19:50:42Z</time>
  <course>7.09</course>
  <speed>0.0</speed>
  <fix>3d</fix>
</trkpt>
<trkpt lat="-27.274439" lon="151.290064">
  <ele>343.1</ele>
  <time>2026-09-01T19:50:42Z</time>
  <course>7.12</course>
  <speed>0.0</speed>
  <fix>3d</fix>
</trkpt>
<trkpt lat="-27.274439" lon="151.290064">
  <ele>343.1</ele>
  <time>2026-09-01T19:50:42Z</time>
  <course>7.09</course>
  <speed>0.0</speed>
  <fix>3d</fix>
</trkpt>
<trkpt lat="-27.274439" lon="151.290064">
  <ele>343.1</ele>
  <time>2026-09-01T19:50:42Z</time>
  <course>7.12</course>
  <speed>0.0</speed>
  <fix>3d</fix>
</trkpt>
<trkpt lat="-27.274439" lon="151.290064">
  <ele>343.1</ele>
  <time>2026-09-01T19:50:42Z</time>
  <course>7.09</course>
  <speed>0.0</speed>
  <fix>3d</fix>
</trkpt>
<trkpt lat="-27.274439" lon="151.290064">
  <ele>343.1</ele>
  <time>2026-09-01T19:50:42Z</time>
  <course>7.12</course>
  <speed>0.0</speed>
  <fix>3d</fix>
</trkpt>
<trkpt lat="-27.274439" lon="151.290064">
  <ele>343.1</ele>
  <time>2026-09-01T19:50:42Z</time>
  <course>7.09</course>
  <speed>0.0</speed>
  <fix>3d</fix>
</trkpt>
<trkpt lat="-27.274439" lon="151.290064">
  <ele>343.1</ele>
  <time>2026-09-01T19:50:42Z</time>
  <course>7.12</course>
  <speed>0.0</speed>
  <fix>3d</fix>
</trkpt>
<trkpt lat="-27.274439" lon="151.290064">
  <ele>343.1</ele>
  <time>2026-09-01T19:50:42Z</time>
  <course>7.09</course>
  <speed>0.0</speed>
  <fix>3d</fix>
</trkpt>
<trkpt lat="-27.274439" lon="151.290064">
  <ele>343.1</ele>
  <time>2026-09-01T19:50:42Z</time>
  <course>7.12</course>
  <speed>0.0</speed>
  <fix>3d</fix>
</trkpt>
<trkpt lat="-27.274439" lon="151.290064">
  <ele>343.1</ele>
  <time>2026-09-01T19:50:42Z</time>
  <course>7.09</course>
  <speed>0.0</speed>
  <fix>3d</fix>
</trkpt>
<trkpt lat="-27.274439" lon="151.290064">
  <ele>343.1</ele>
  <time>2026-09-01T19:50:42Z</time>
  <course>7.12</course>
  <speed>0.0</speed>
  <fix>3d</fix>
</trkpt>
<trkpt lat="-27.274439" lon="151.290064">
  <ele>343.1</ele>
  <time>2026-09-01T19:50:42Z</time>
  <course>7.09</course>
  <speed>0.0</speed>
  <fix>3d</fix>
</trkpt>
<trkpt lat="-27.274439" lon="151.290064">
  <ele>343.1</ele>
  <time>2026-09-01T19:50:42Z</time>
  <course>7.12</course>
  <speed>0.0</speed>
  <fix>3d</fix>
</trkpt>
<trkpt lat="-27.274439" lon="151.290064">
  <ele>343.1</ele>
  <time>2026-09-01T19:50:42Z</time>
  <course>7.09</course>
  <speed>0.0</speed>
  <fix>3d</fix>
</trkpt>
<trkpt lat="-27.274439" lon="151.290064">
  <ele>343.1</ele>
  <time>2026-09-01T19:50:42Z</time>
  <course>7.12</course>
  <speed>0.0</speed>
  <fix>3d</fix>
</trkpt>
<trkpt lat="-27.274439" lon="151.290064">
  <ele>343.1</ele>
  <time>2026-09-01T19:50:42Z</time>
  <course>7.09</course>
  <speed>0.0</speed>
  <fix>3d</fix>
</trkpt>
<trkpt lat="-27.274439" lon="151.290064">
  <ele>343.1</ele>
  <time>2026-09-01T19:50:42Z</time>
  <course>7.12</course>
  <speed>0.0</speed>
  <fix>3d</fix>
</trkpt>
<trkpt lat="-27.274439" lon="151.290064">
  <ele>343.1</ele>
  <time>2026-09-01T19:50:42Z</time>
  <course>7.09</course>
  <speed>0.0</speed>
  <fix>3d</fix>
</trkpt>
<trkpt lat="-27.274439" lon="151.290064">
  <ele>343.1</ele>
  <time>2026-09-01T19:50:42Z</time>
  <course>7.12</course>
  <speed>0.0</speed>
  <fix>3d</fix>
</trkpt>
<trkpt lat="-27.274439" lon="151.290064">
  <ele>343.1</ele>
  <time>2026-09-01T19:50:42Z</time>
  <course>7.09</course>
  <speed>0.0</speed>
  <fix>3d</fix>
</trkpt>
<trkpt lat="-27.274439" lon="151.290064">
  <ele>343.1</ele>
  <time>2026-09-01T19:50:42Z</time>
  <course>7.12</course>
  <speed>0.0</speed>
  <fix>3d</fix>
</trkpt>
<trkpt lat="-27.274439" lon="151.290064">
  <ele>343.1</ele>
  <time>2026-09-01T19:50:42Z</time>
  <course>7.09</course>
  <speed>0.0</speed>
  <fix>3d</fix>
</trkpt>
<trkpt lat="-27.274439" lon="151.290064">
  <ele>343.1</ele>
  <time>2026-09-01T19:50:42Z</time>
  <course>7.12</course>
  <speed>0.0</speed>
  <fix>3d</fix>
</trkpt>
<trkpt lat="-27.274439" lon="151.290064">
  <ele>343.1</ele>
  <time>2026-09-01T19:50:42Z</time>
  <course>7.09</course>
  <speed>0.0</speed>
  <fix>3d</fix>
</trkpt>
<trkpt lat="-27.274439" lon="151.290064">
  <ele>343.1</ele>
  <time>2026-09-01T19:50:42Z</time>
  <course>7.12</course>
  <speed>0.0</speed>
  <fix>3d</fix>
</trkpt>
<trkpt lat="-27.274439" lon="151.290064">
  <ele>343.1</ele>
  <time>2026-09-01T19:50:42Z</time>
  <course>7.09</course>
  <speed>0.0</speed>
  <fix>3d</fix>
</trkpt>
<trkpt lat="-27.274439" lon="151.290064">
  <ele>343.1</ele>
  <time>2026-09-01T19:50:42Z</time>
  <course>7.12</course>
  <speed>0.0</speed>
  <fix>3d</fix>
</trkpt>
<trkpt lat="-27.274439" lon="151.290064">
  <ele>343.1</ele>
  <time>2026-09-01T19:50:42Z</time>
  <course>7.09</course>
  <speed>0.0</speed>
  <fix>3d</fix>
</trkpt>
<trkpt lat="-27.274439" lon="151.290064">
  <ele>343.1</ele>
  <time>2026-09-01T19:50:42Z</time>
  <course>7.12</course>
  <speed>0.0</speed>
  <fix>3d</fix>
</trkpt>
<trkpt lat="-27.274439" lon="151.290064">
  <ele>343.1</ele>
  <time>2026-09-01T19:50:42Z</time>
  <course>7.09</course>
  <speed>0.0</speed>
  <fix>3d</fix>
</trkpt>
<trkpt lat="-27.274439" lon="151.290064">
  <ele>343.1</ele>
  <time>2026-09-01T19:50:42Z</time>
  <course>7.12</course>
  <speed>0.0</speed>
  <fix>3d</fix>
</trkpt>
<trkpt lat="-27.274439" lon="151.290064">
  <ele>343.1</ele>
  <time>2026-09-01T19:50:42Z</time>
  <course>7.09</course>
  <speed>0.0</speed>
  <fix>3d</fix>
</trkpt>
<trkpt lat="-27.274439" lon="151.290064">
  <ele>343.1</ele>
  <time>2026-09-01T19:50:42Z</time>
  <course>7.12</course>
  <speed>0.0</speed>
  <fix>3d</fix>
</trkpt>
<trkpt lat="-27.274439" lon="151.290064">
  <ele>343.1</ele>
  <time>2026-09-01T19:50:42Z</time>
  <course>7.09</course>
  <speed>0.0</speed>
  <fix>3d</fix>
</trkpt>
<trkpt lat="-27.274439" lon="151.290064">
  <ele>343.1</ele>
  <time>2026-09-01T19:50:42Z</time>
  <course>7.12</course>
  <speed>0.0</speed>
  <fix>3d</fix>
</trkpt>
<trkpt lat="-27.274439" lon="151.290064">
  <ele>343.1</ele>
  <time>2026-09-01T19:50:42Z</time>
  <course>7.09</course>
  <speed>0.0</speed>
  <fix>3d</fix>
</trkpt>
<trkpt lat="-27.274439" lon="151.290064">
  <ele>343.1</ele>
  <time>2026-09-01T19:50:42Z</time>
  <course>7.12</course>
  <speed>0.0</speed>
  <fix>3d</fix>
</trkpt>
<trkpt lat="-27.274439" lon="151.290064">
  <ele>343.1</ele>
  <time>2026-09-01T19:50:42Z</time>
  <course>7.09</course>
  <speed>0.0</speed>
  <fix>3d</fix>
</trkpt>
<trkpt lat="-27.274439" lon="151.290064">
  <ele>343.1</ele>
  <time>2026-09-01T19:50:42Z</time>
  <course>7.12</course>
  <speed>0.0</speed>
  <fix>3d</fix>
</trkpt>
<trkpt lat="-27.274439" lon="151.290064">
  <ele>343.1</ele>
  <time>2026-09-01T19:50:42Z</time>
  <course>7.09</course>
  <speed>0.0</speed>
  <fix>3d</fix>
</trkpt>
<trkpt lat="-27.274439" lon="151.290064">
  <ele>343.1</ele>
  <time>2026-09-01T19:50:42Z</time>
  <course>7.12</course>
  <speed>0.0</speed>
  <fix>3d</fix>
</trkpt>
<trkpt lat="-27.274439" lon="151.290064">
  <ele>343.1</ele>
  <time>2026-09-01T19:50:42Z</time>
  <course>7.09</course>
  <speed>0.0</speed>
  <fix>3d</fix>
</trkpt>
<trkpt lat="-27.274439" lon="151.290064">
  <ele>343.1</ele>
  <time>2026-09-01T19:50:42Z</time>
  <course>7.12</course>
  <speed>0.0</speed>
  <fix>3d</fix>
</trkpt>
<trkpt lat="-27.274439" lon="151.290064">
  <ele>343.1</ele>
  <time>2026-09-01T19:50:42Z</time>
  <course>7.09</course>
  <speed>0.0</speed>
  <fix>3d</fix>
</trkpt>
<trkpt lat="-27.274439" lon="151.290064">
  <ele>343.1</ele>
  <time>2026-09-01T19:50:42Z</time>
  <course>7.12</course>
  <speed>0.0</speed>
  <fix>3d</fix>
</trkpt>
<trkpt lat="-27.274439" lon="151.290064">
  <ele>343.1</ele>
  <time>2026-09-01T19:50:42Z</time>
  <course>7.09</course>
  <speed>0.0</speed>
  <fix>3d</fix>
</trkpt>
<trkpt lat="-27.274439" lon="151.290064">
  <ele>343.1</ele>
  <time>2026-09-01T19:50:42Z</time>
  <course>7.12</course>
  <speed>0.0</speed>
  <fix>3d</fix>
</trkpt>
<trkpt lat="-27.274439" lon="151.290064">
  <ele>343.1</ele>
  <time>2026-09-01T19:50:42Z</time>
  <course>7.09</course>
  <speed>0.0</speed>
  <fix>3d</fix>
</trkpt>
<trkpt lat="-27.274439" lon="151.290064">
  <ele>343.1</ele>
  <time>2026-09-01T19:50:42Z</time>
  <course>7.12</course>
  <speed>0.0</speed>
  <fix>3d</fix>
</trkpt>
<trkpt lat="-27.274439" lon="151.290064">
  <ele>343.1</ele>
  <time>2026-09-01T19:50:42Z</time>
  <course>7.09</course>
  <speed>0.0</speed>
  <fix>3d</fix>
</trkpt>
<trkpt lat="-27.274439" lon="151.290064">
  <ele>343.1</ele>
  <time>2026-09-01T19:50:42Z</time>
  <course>7.12</course>
  <speed>0.0</speed>
  <fix>3d</fix>
</trkpt>
<trkpt lat="-27.274439" lon="151.290064">
  <ele>343.1</ele>
  <time>2026-09-01T19:50:42Z</time>
  <course>7.09</course>
  <speed>0.0</speed>
  <fix>3d</fix>
</trkpt>
<trkpt lat="-27.274439" lon="151.290064">
  <ele>343.1</ele>
  <time>2026-09-01T19:50:42Z</time>
  <course>7.12</course>
  <speed>0.0</speed>
  <fix>3d</fix>
</trkpt>
<trkpt lat="-27.274439" lon="151.290064">
  <ele>343.1</ele>
  <time>2026-09-01T19:50:42Z</time>
  <course>7.09</course>
  <speed>0.0</speed>
  <fix>3d</fix>
</trkpt>
<trkpt lat="-27.274439" lon="151.290064">
  <ele>343.1</ele>
  <time>2026-09-01T19:50:42Z</time>
  <course>7.12</course>
  <speed>0.0</speed>
  <fix>3d</fix>
</trkpt>
<trkpt lat="-27.274439" lon="151.290064">
  <ele>343.1</ele>
  <time>2026-09-01T19:50:42Z</time>
  <course>7.09</course>
  <speed>0.0</speed>
  <fix>3d</fix>
</trkpt>
<trkpt lat="-27.274439" lon="151.290064">
  <ele>343.1</ele>
  <time>2026-09-01T19:50:42Z</time>
  <course>7.12</course>
  <speed>0.0</speed>
  <fix>3d</fix>
</trkpt>
<trkpt lat="-27.274439" lon="151.290064">
  <ele>343.1</ele>
  <time>2026-09-01T19:50:42Z</time>
  <course>7.09</course>
  <speed>0.0</speed>
  <fix>3d</fix>
</trkpt>
<trkpt lat="-27.274439" lon="151.290064">
  <ele>343.1</ele>
  <time>2026-09-01T19:50:42Z</time>
  <course>7.12</course>
  <speed>0.0</speed>
  <fix>3d</fix>
</trkpt>
<trkpt lat="-27.274439" lon="151.290064">
  <ele>343.1</ele>
  <time>2026-09-01T19:50:42Z</time>
  <course>7.09</course>
  <speed>0.0</speed>
  <fix>3d</fix>
</trkpt>
<trkpt lat="-27.274439" lon="151.290064">
  <ele>343.1</ele>
  <time>2026-09-01T19:50:42Z</time>
  <course>7.12</course>
  <speed>0.0</speed>
  <fix>3d</fix>
</trkpt>
<trkpt lat="-27.274439" lon="151.290064">
  <ele>343.1</ele>
  <time>2026-09-01T19:50:42Z</time>
  <course>7.09</course>
  <speed>0.0</speed>
  <fix>3d</fix>
</trkpt>
<trkpt lat="-27.274439" lon="151.290064">
  <ele>343.1</ele>
  <time>2026-09-01T19:50:42Z</time>
  <course>7.12</course>
  <speed>0.0</speed>
  <fix>3d</fix>
</trkpt>
<trkpt lat="-27.274439" lon="151.290064">
  <ele>343.1</ele>
  <time>2026-09-01T19:50:42Z</time>
  <course>7.09</course>
  <speed>0.0</speed>
  <fix>3d</fix>
</trkpt>
<trkpt lat="-27.274439" lon="151.290064">
  <ele>343.1</ele>
  <time>2026-09-01T19:50:42Z</time>
  <course>7.12</course>
  <speed>0.0</speed>
  <fix>3d</fix>
</trkpt>
<trkpt lat="-27.274439" lon="151.290064">
  <ele>343.1</ele>
  <time>2026-09-01T19:50:42Z</time>
  <course>7.09</course>
  <speed>0.0</speed>
  <fix>3d</fix>
</trkpt>
<trkpt lat="-27.274439" lon="151.290064">
  <ele>343.1</ele>
  <time>2026-09-01T19:50:42Z</time>
  <course>7.12</course>
  <speed>0.0</speed>
  <fix>3d</fix>
</trkpt>
<trkpt lat="-27.274439" lon="151.290064">
  <ele>343.1</ele>
  <time>2026-09-01T19:50:42Z</time>
  <course>7.09</course>
  <speed>0.0</speed>
  <fix>3d</fix>
</trkpt>
<trkpt lat="-27.274439" lon="151.290064">
  <ele>343.1</ele>
  <time>2026-09-01T19:50:42Z</time>
  <course>7.12</course>
  <speed>0.0</speed>
  <fix>3d</fix>
</trkpt>
<trkpt lat="-27.274439" lon="151.290064">
  <ele>343.1</ele>
  <time>2026-09-01T19:50:42Z</time>
  <course>7.09</course>
  <speed>0.0</speed>
  <fix>3d</fix>
</trkpt>
<trkpt lat="-27.274439" lon="151.290064">
  <ele>343.1</ele>
  <time>2026-09-01T19:50:42Z</time>
  <course>7.12</course>
  <speed>0.0</speed>
  <fix>3d</fix>
</trkpt>
<trkpt lat="-27.274439" lon="151.290064">
  <ele>343.1</ele>
  <time>2026-09-01T19:50:42Z</time>
  <course>7.09</course>
  <speed>0.0</speed>
  <fix>3d</fix>
</trkpt>
<trkpt lat="-27.274439" lon="151.290064">
  <ele>343.1</ele>
  <time>2026-09-01T19:50:42Z</time>
  <course>7.12</course>
  <speed>0.0</speed>
  <fix>3d</fix>
</trkpt>
<trkpt lat="-27.274439" lon="151.290064">
  <ele>343.1</ele>
  <time>2026-09-01T19:50:42Z</time>
  <course>7.09</course>
  <speed>0.0</speed>
  <fix>3d</fix>
</trkpt>
<trkpt lat="-27.274439" lon="151.290064">
  <ele>343.1</ele>
  <time>2026-09-01T19:50:42Z</time>
  <course>7.12</course>
  <speed>0.0</speed>
  <fix>3d</fix>
</trkpt>
<trkpt lat="-27.274439" lon="151.290064">
  <ele>343.1</ele>
  <time>2026-09-01T19:50:42Z</time>
  <course>7.09</course>
  <speed>0.0</speed>
  <fix>3d</fix>
</trkpt>
<trkpt lat="-27.274439" lon="151.290064">
  <ele>343.1</ele>
  <time>2026-09-01T19:50:42Z</time>
  <course>7.12</course>
  <speed>0.0</speed>
  <fix>3d</fix>
</trkpt>
<trkpt lat="-27.274439" lon="151.290064">
  <ele>343.1</ele>
  <time>2026-09-01T19:50:42Z</time>
  <course>7.09</course>
  <speed>0.0</speed>
  <fix>3d</fix>
</trkpt>
<trkpt lat="-27.274439" lon="151.290064">
  <ele>343.1</ele>
  <time>2026-09-01T19:50:42Z</time>
  <course>7.12</course>
  <speed>0.0</speed>
  <fix>3d</fix>
</trkpt>
<trkpt lat="-27.274439" lon="151.290064">
  <ele>343.1</ele>
  <time>2026-09-01T19:50:42Z</time>
  <course>7.09</course>
  <speed>0.0</speed>
  <fix>3d</fix>
</trkpt>
<trkpt lat="-27.274439" lon="151.290064">
  <ele>343.1</ele>
  <time>2026-09-01T19:50:42Z</time>
  <course>7.12</course>
  <speed>0.0</speed>
  <fix>3d</fix>
</trkpt>
<trkpt lat="-27.274439" lon="151.290064">
  <ele>343.1</ele>
  <time>2026-09-01T19:50:42Z</time>
  <course>7.09</course>
  <speed>0.0</speed>
  <fix>3d</fix>
</trkpt>
<trkpt lat="-27.274439" lon="151.290064">
  <ele>343.1</ele>
  <time>2026-09-01T19:50:42Z</time>
  <course>7.12</course>
  <speed>0.0</speed>
  <fix>3d</fix>
</trkpt>
<trkpt lat="-27.274439" lon="151.290064">
  <ele>343.1</ele>
  <time>2026-09-01T19:50:42Z</time>
  <course>7.09</course>
  <speed>0.0</speed>
  <fix>3d</fix>
</trkpt>
<trkpt lat="-27.274439" lon="151.290064">
  <ele>343.1</ele>
  <time>2026-09-01T19:50:42Z</time>
  <course>7.12</course>
  <speed>0.0</speed>
  <fix>3d</fix>
</trkpt>
<trkpt lat="-27.274439" lon="151.290064">
  <ele>343.1</ele>
  <time>2026-09-01T19:50:42Z</time>
  <course>7.09</course>
  <speed>0.0</speed>
  <fix>3d</fix>
</trkpt>
<trkpt lat="-27.274439" lon="151.290064">
  <ele>343.1</ele>
  <time>2026-09-01T19:50:42Z</time>
  <course>7.12</course>
  <speed>0.0</speed>
  <fix>3d</fix>
</trkpt>
<trkpt lat="-27.274439" lon="151.290064">
  <ele>343.1</ele>
  <time>2026-09-01T19:50:42Z</time>
  <course>7.09</course>
  <speed>0.0</speed>
  <fix>3d</fix>
</trkpt>
<trkpt lat="-27.274439" lon="151.290064">
  <ele>343.1</ele>
  <time>2026-09-01T19:50:42Z</time>
  <course>7.12</course>
  <speed>0.0</speed>
  <fix>3d</fix>
</trkpt>
<trkpt lat="-27.274439" lon="151.290064">
  <ele>343.1</ele>
  <time>2026-09-01T19:50:42Z</time>
  <course>7.09</course>
  <speed>0.0</speed>
  <fix>3d</fix>
</trkpt>
<trkpt lat="-27.274439" lon="151.290064">
  <ele>343.1</ele>
  <time>2026-09-01T19:50:42Z</time>
  <course>7.12</course>
  <speed>0.0</speed>
  <fix>3d</fix>
</trkpt>
<trkpt lat="-27.274439" lon="151.290064">
  <ele>343.1</ele>
  <time>2026-09-01T19:50:42Z</time>
  <course>7.09</course>
  <speed>0.0</speed>
  <fix>3d</fix>
</trkpt>
<trkpt lat="-27.274439" lon="151.290064">
  <ele>343.1</ele>
  <time>2026-09-01T19:50:42Z</time>
  <course>7.12</course>
  <speed>0.0</speed>
  <fix>3d</fix>
</trkpt>
<trkpt lat="-27.274439" lon="151.290064">
  <ele>343.1</ele>
  <time>2026-09-01T19:50:42Z</time>
  <course>7.09</course>
  <speed>0.0</speed>
  <fix>3d</fix>
</trkpt>
<trkpt lat="-27.274439" lon="151.290064">
  <ele>343.1</ele>
  <time>2026-09-01T19:50:42Z</time>
  <course>7.12</course>
  <speed>0.0</speed>
  <fix>3d</fix>
</trkpt>
<trkpt lat="-27.274439" lon="151.290064">
  <ele>343.1</ele>
  <time>2026-09-01T19:50:42Z</time>
  <course>7.09</course>
  <speed>0.0</speed>
  <fix>3d</fix>
</trkpt>
<trkpt lat="-27.274439" lon="151.290064">
  <ele>343.1</ele>
  <time>2026-09-01T19:50:42Z</time>
  <course>7.12</course>
  <speed>0.0</speed>
  <fix>3d</fix>
</trkpt>
<trkpt lat="-27.274439" lon="151.290064">
  <ele>343.1</ele>
  <time>2026-09-01T19:50:42Z</time>
  <course>7.09</course>
  <speed>0.0</speed>
  <fix>3d</fix>
</trkpt>
<trkpt lat="-27.274439" lon="151.290064">
  <ele>343.1</ele>
  <time>2026-09-01T19:50:42Z</time>
  <course>7.12</course>
  <speed>0.0</speed>
  <fix>3d</fix>
</trkpt>
<trkpt lat="-27.274439" lon="151.290064">
  <ele>343.1</ele>
  <time>2026-09-01T19:50:42Z</time>
  <course>7.09</course>
  <speed>0.0</speed>
  <fix>3d</fix>
</trkpt>
<trkpt lat="-27.274439" lon="151.290064">
  <ele>343.1</ele>
  <time>2026-09-01T19:50:42Z</time>
  <course>7.12</course>
  <speed>0.0</speed>
  <fix>3d</fix>
</trkpt>
<trkpt lat="-27.274439" lon="151.290064">
  <ele>343.1</ele>
  <time>2026-09-01T19:50:42Z</time>
  <course>7.09</course>
  <speed>0.0</speed>
  <fix>3d</fix>
</trkpt>
<trkpt lat="-27.274439" lon="151.290064">
  <ele>343.1</ele>
  <time>2026-09-01T19:50:42Z</time>
  <course>7.12</course>
  <speed>0.0</speed>
  <fix>3d</fix>
</trkpt>
<trkpt lat="-27.274439" lon="151.290064">
  <ele>343.1</ele>
  <time>2026-09-01T19:50:42Z</time>
  <course>7.09</course>
  <speed>0.0</speed>
  <fix>3d</fix>
</trkpt>
<trkpt lat="-27.274439" lon="151.290064">
  <ele>343.1</ele>
  <time>2026-09-01T19:50:42Z</time>
  <course>7.12</course>
  <speed>0.0</speed>
  <fix>3d</fix>
</trkpt>
<trkpt lat="-27.274439" lon="151.290064">
  <ele>343.1</ele>
  <time>2026-09-01T19:50:42Z</time>
  <course>7.09</course>
  <speed>0.0</speed>
  <fix>3d</fix>
</trkpt>
<trkpt lat="-27.274439" lon="151.290064">
  <ele>343.1</ele>
  <time>2026-09-01T19:50:42Z</time>
  <course>7.12</course>
  <speed>0.0</speed>
  <fix>3d</fix>
</trkpt>
<trkpt lat="-27.274439" lon="151.290064">
  <ele>343.1</ele>
  <time>2026-09-01T19:50:42Z</time>
  <course>7.09</course>
  <speed>0.0</speed>
  <fix>3d</fix>
</trkpt>
<trkpt lat="-27.274439" lon="151.290064">
  <ele>343.1</ele>
  <time>2026-09-01T19:50:42Z</time>
  <course>7.12</course>
  <speed>0.0</speed>
  <fix>3d</fix>
</trkpt>
<trkpt lat="-27.274439" lon="151.290064">
  <ele>343.1</ele>
  <time>2026-09-01T19:50:42Z</time>
  <course>7.09</course>
  <speed>0.0</speed>
  <fix>3d</fix>
</trkpt>
<trkpt lat="-27.274439" lon="151.290064">
  <ele>343.1</ele>
  <time>2026-09-01T19:50:42Z</time>
  <course>7.12</course>
  <speed>0.0</speed>
  <fix>3d</fix>
</trkpt>
<trkpt lat="-27.274439" lon="151.290064">
  <ele>343.1</ele>
  <time>2026-09-01T19:50:42Z</time>
  <course>7.09</course>
  <speed>0.0</speed>
  <fix>3d</fix>
</trkpt>
<trkpt lat="-27.274439" lon="151.290064">
  <ele>343.1</ele>
  <time>2026-09-01T19:50:42Z</time>
  <course>7.12</course>
  <speed>0.0</speed>
  <fix>3d</fix>
</trkpt>
<trkpt lat="-27.274439" lon="151.290064">
  <ele>343.1</ele>
  <time>2026-09-01T19:50:42Z</time>
  <course>7.09</course>
  <speed>0.0</speed>
  <fix>3d</fix>
</trkpt>
<trkpt lat="-27.274439" lon="151.290064">
  <ele>343.1</ele>
  <time>2026-09-01T19:50:42Z</time>
  <course>7.12</course>
  <speed>0.0</speed>
  <fix>3d</fix>
</trkpt>
<trkpt lat="-27.274439" lon="151.290064">
  <ele>343.1</ele>
  <time>2026-09-01T19:50:42Z</time>
  <course>7.09</course>
  <speed>0.0</speed>
  <fix>3d</fix>
</trkpt>
<trkpt lat="-27.274439" lon="151.290064">
  <ele>343.1</ele>
  <time>2026-09-01T19:50:42Z</time>
  <course>7.12</course>
  <speed>0.0</speed>
  <fix>3d</fix>
</trkpt>
<trkpt lat="-27.274439" lon="151.290064">
  <ele>343.1</ele>
  <time>2026-09-01T19:50:42Z</time>
  <course>7.09</course>
  <speed>0.0</speed>
  <fix>3d</fix>
</trkpt>
<trkpt lat="-27.274439" lon="151.290064">
  <ele>343.1</ele>
  <time>2026-09-01T19:50:42Z</time>
  <course>7.12</course>
  <speed>0.0</speed>
  <fix>3d</fix>
</trkpt>
<trkpt lat="-27.274439" lon="151.290064">
  <ele>343.1</ele>
  <time>2026-09-01T19:50:42Z</time>
  <course>7.09</course>
  <speed>0.0</speed>
  <fix>3d</fix>
</trkpt>
<trkpt lat="-27.274439" lon="151.290064">
  <ele>343.1</ele>
  <time>2026-09-01T19:50:42Z</time>
  <course>7.12</course>
  <speed>0.0</speed>
  <fix>3d</fix>
</trkpt>
<trkpt lat="-27.274439" lon="151.290064">
  <ele>343.1</ele>
  <time>2026-09-01T19:50:42Z</time>
  <course>7.09</course>
  <speed>0.0</speed>
  <fix>3d</fix>
</trkpt>
<trkpt lat="-27.274439" lon="151.290064">
  <ele>343.1</ele>
  <time>2026-09-01T19:50:42Z</time>
  <course>7.12</course>
  <speed>0.0</speed>
  <fix>3d</fix>
</trkpt>
<trkpt lat="-27.274439" lon="151.290064">
  <ele>343.1</ele>
  <time>2026-09-01T19:50:42Z</time>
  <course>7.09</course>
  <speed>0.0</speed>
  <fix>3d</fix>
</trkpt>
<trkpt lat="-27.274439" lon="151.290064">
  <ele>343.1</ele>
  <time>2026-09-01T19:50:42Z</time>
  <course>7.12</course>
  <speed>0.0</speed>
  <fix>3d</fix>
</trkpt>
<trkpt lat="-27.274439" lon="151.290064">
  <ele>343.1</ele>
  <time>2026-09-01T19:50:42Z</time>
  <course>7.09</course>
  <speed>0.0</speed>
  <fix>3d</fix>
</trkpt>
<trkpt lat="-27.274439" lon="151.290064">
  <ele>343.1</ele>
  <time>2026-09-01T19:50:42Z</time>
  <course>7.12</course>
  <speed>0.0</speed>
  <fix>3d</fix>
</trkpt>
<trkpt lat="-27.274439" lon="151.290064">
  <ele>343.1</ele>
  <time>2026-09-01T19:50:42Z</time>
  <course>7.09</course>
  <speed>0.0</speed>
  <fix>3d</fix>
</trkpt>
<trkpt lat="-27.274439" lon="151.290064">
  <ele>343.1</ele>
  <time>2026-09-01T19:50:42Z</time>
  <course>7.12</course>
  <speed>0.0</speed>
  <fix>3d</fix>
</trkpt>
<trkpt lat="-27.274439" lon="151.290064">
  <ele>343.1</ele>
  <time>2026-09-01T19:50:42Z</time>
  <course>7.09</course>
  <speed>0.0</speed>
  <fix>3d</fix>
</trkpt>
<trkpt lat="-27.274439" lon="151.290064">
  <ele>343.1</ele>
  <time>2026-09-01T19:50:42Z</time>
  <course>7.12</course>
  <speed>0.0</speed>
  <fix>3d</fix>
</trkpt>
<trkpt lat="-27.274439" lon="151.290064">
  <ele>343.1</ele>
  <time>2026-09-01T19:50:42Z</time>
  <course>7.09</course>
  <speed>0.0</speed>
  <fix>3d</fix>
</trkpt>
<trkpt lat="-27.274439" lon="151.290064">
  <ele>343.1</ele>
  <time>2026-09-01T19:50:42Z</time>
  <course>7.12</course>
  <speed>0.0</speed>
  <fix>3d</fix>
</trkpt>
<trkpt lat="-27.274439" lon="151.290064">
  <ele>343.1</ele>
  <time>2026-09-01T19:50:42Z</time>
  <course>7.09</course>
  <speed>0.0</speed>
  <fix>3d</fix>
</trkpt>
<trkpt lat="-27.274439" lon="151.290064">
  <ele>343.1</ele>
  <time>2026-09-01T19:50:42Z</time>
  <course>7.12</course>
  <speed>0.0</speed>
  <fix>3d</fix>
</trkpt>
<trkpt lat="-27.274439" lon="151.290064">
  <ele>343.1</ele>
  <time>2026-09-01T19:50:42Z</time>
  <course>7.09</course>
  <speed>0.0</speed>
  <fix>3d</fix>
</trkpt>
<trkpt lat="-27.274439" lon="151.290064">
  <ele>343.1</ele>
  <time>2026-09-01T19:50:42Z</time>
  <course>7.12</course>
  <speed>0.0</speed>
  <fix>3d</fix>
</trkpt>
<trkpt lat="-27.274439" lon="151.290064">
  <ele>343.1</ele>
  <time>2026-09-01T19:50:42Z</time>
  <course>7.09</course>
  <speed>0.0</speed>
  <fix>3d</fix>
</trkpt>
<trkpt lat="-27.274439" lon="151.290064">
  <ele>343.1</ele>
  <time>2026-09-01T19:50:42Z</time>
  <course>7.12</course>
  <speed>0.0</speed>
  <fix>3d</fix>
</trkpt>
<trkpt lat="-27.274439" lon="151.290064">
  <ele>343.1</ele>
  <time>2026-09-01T19:50:42Z</time>
  <course>7.09</course>
  <speed>0.0</speed>
  <fix>3d</fix>
</trkpt>
<trkpt lat="-27.274439" lon="151.290064">
  <ele>343.1</ele>
  <time>2026-09-01T19:50:42Z</time>
  <course>7.12</course>
  <speed>0.0</speed>
  <fix>3d</fix>
</trkpt>
<trkpt lat="-27.274439" lon="151.290064">
  <ele>343.1</ele>
  <time>2026-09-01T19:50:42Z</time>
  <course>7.09</course>
  <speed>0.0</speed>
  <fix>3d</fix>
</trkpt>
<trkpt lat="-27.274439" lon="151.290064">
  <ele>343.1</ele>
  <time>2026-09-01T19:50:42Z</time>
  <course>7.12</course>
  <speed>0.0</speed>
  <fix>3d</fix>
</trkpt>
<trkpt lat="-27.274439" lon="151.290064">
  <ele>343.1</ele>
  <time>2026-09-01T19:50:42Z</time>
  <course>7.09</course>
  <speed>0.0</speed>
  <fix>3d</fix>
</trkpt>
<trkpt lat="-27.274439" lon="151.290064">
  <ele>343.1</ele>
  <time>2026-09-01T19:50:42Z</time>
  <course>7.12</course>
  <speed>0.0</speed>
  <fix>3d</fix>
</trkpt>
<trkpt lat="-27.274439" lon="151.290064">
  <ele>343.1</ele>
  <time>2026-09-01T19:50:42Z</time>
  <course>7.09</course>
  <speed>0.0</speed>
  <fix>3d</fix>
</trkpt>
<trkpt lat="-27.274439" lon="151.290064">
  <ele>343.1</ele>
  <time>2026-09-01T19:50:42Z</time>
  <course>7.12</course>
  <speed>0.0</speed>
  <fix>3d</fix>
</trkpt>
<trkpt lat="-27.274439" lon="151.290064">
  <ele>343.1</ele>
  <time>2026-09-01T19:50:42Z</time>
  <course>7.09</course>
  <speed>0.0</speed>
  <fix>3d</fix>
</trkpt>
<trkpt lat="-27.274439" lon="151.290064">
  <ele>343.1</ele>
  <time>2026-09-01T19:50:42Z</time>
  <course>7.12</course>
  <speed>0.0</speed>
  <fix>3d</fix>
</trkpt>
<trkpt lat="-27.274439" lon="151.290064">
  <ele>343.1</ele>
  <time>2026-09-01T19:50:42Z</time>
  <course>7.09</course>
  <speed>0.0</speed>
  <fix>3d</fix>
</trkpt>
<trkpt lat="-27.274439" lon="151.290064">
  <ele>343.1</ele>
  <time>2026-09-01T19:50:42Z</time>
  <course>7.12</course>
  <speed>0.0</speed>
  <fix>3d</fix>
</trkpt>
<trkpt lat="-27.274439" lon="151.290064">
  <ele>343.1</ele>
  <time>2026-09-01T19:50:42Z</time>
  <course>7.09</course>
  <speed>0.0</speed>
  <fix>3d</fix>
</trkpt>
<trkpt lat="-27.274439" lon="151.290064">
  <ele>343.1</ele>
  <time>2026-09-01T19:50:42Z</time>
  <course>7.12</course>
  <speed>0.0</speed>
  <fix>3d</fix>
</trkpt>
<trkpt lat="-27.274439" lon="151.290064">
  <ele>343.1</ele>
  <time>2026-09-01T19:50:42Z</time>
  <course>7.09</course>
  <speed>0.0</speed>
  <fix>3d</fix>
</trkpt>
<trkpt lat="-27.274439" lon="151.290064">
  <ele>343.1</ele>
  <time>2026-09-01T19:50:42Z</time>
  <course>7.12</course>
  <speed>0.0</speed>
  <fix>3d</fix>
</trkpt>
<trkpt lat="-27.274439" lon="151.290064">
  <ele>343.1</ele>
  <time>2026-09-01T19:50:42Z</time>
  <course>7.09</course>
  <speed>0.0</speed>
  <fix>3d</fix>
</trkpt>
<trkpt lat="-27.274439" lon="151.290064">
  <ele>343.1</ele>
  <time>2026-09-01T19:50:42Z</time>
  <course>7.12</course>
  <speed>0.0</speed>
  <fix>3d</fix>
</trkpt>
<trkpt lat="-27.274439" lon="151.290064">
  <ele>343.1</ele>
  <time>2026-09-01T19:50:42Z</time>
  <course>7.09</course>
  <speed>0.0</speed>
  <fix>3d</fix>
</trkpt>
<trkpt lat="-27.274439" lon="151.290064">
  <ele>343.1</ele>
  <time>2026-09-01T19:50:42Z</time>
  <course>7.12</course>
  <speed>0.0</speed>
  <fix>3d</fix>
</trkpt>
<trkpt lat="-27.274439" lon="151.290064">
  <ele>343.1</ele>
  <time>2026-09-01T19:50:42Z</time>
  <course>7.09</course>
  <speed>0.0</speed>
  <fix>3d</fix>
</trkpt>
<trkpt lat="-27.274439" lon="151.290064">
  <ele>343.1</ele>
  <time>2026-09-01T19:50:42Z</time>
  <course>7.12</course>
  <speed>0.0</speed>
  <fix>3d</fix>
</trkpt>
<trkpt lat="-27.274439" lon="151.290064">
  <ele>343.1</ele>
  <time>2026-09-01T19:50:42Z</time>
  <course>7.09</course>
  <speed>0.0</speed>
  <fix>3d</fix>
</trkpt>
<trkpt lat="-27.274439" lon="151.290064">
  <ele>343.1</ele>
  <time>2026-09-01T19:50:42Z</time>
  <course>7.12</course>
  <speed>0.0</speed>
  <fix>3d</fix>
</trkpt>
<trkpt lat="-27.274439" lon="151.290064">
  <ele>343.1</ele>
  <time>2026-09-01T19:50:42Z</time>
  <course>7.09</course>
  <speed>0.0</speed>
  <fix>3d</fix>
</trkpt>
<trkpt lat="-27.274439" lon="151.290064">
  <ele>343.1</ele>
  <time>2026-09-01T19:50:42Z</time>
  <course>7.12</course>
  <speed>0.0</speed>
  <fix>3d</fix>
</trkpt>
<trkpt lat="-27.274439" lon="151.290064">
  <ele>343.1</ele>
  <time>2026-09-01T19:50:42Z</time>
  <course>7.09</course>
  <speed>0.0</speed>
  <fix>3d</fix>
</trkpt>
<trkpt lat="-27.274439" lon="151.290064">
  <ele>343.1</ele>
  <time>2026-09-01T19:50:42Z</time>
  <course>7.12</course>
  <speed>0.0</speed>
  <fix>3d</fix>
</trkpt>
<trkpt lat="-27.274439" lon="151.290064">
  <ele>343.1</ele>
  <time>2026-09-01T19:50:42Z</time>
  <course>7.09</course>
  <speed>0.0</speed>
  <fix>3d</fix>
</trkpt>
<trkpt lat="-27.274439" lon="151.290064">
  <ele>343.1</ele>
  <time>2026-09-01T19:50:42Z</time>
  <course>7.12</course>
  <speed>0.0</speed>
  <fix>3d</fix>
</trkpt>
<trkpt lat="-27.274439" lon="151.290064">
  <ele>343.1</ele>
  <time>2026-09-01T19:50:42Z</time>
  <course>7.09</course>
  <speed>0.0</speed>
  <fix>3d</fix>
</trkpt>
<trkpt lat="-27.274439" lon="151.290064">
  <ele>343.1</ele>
  <time>2026-09-01T19:50:42Z</time>
  <course>7.12</course>
  <speed>0.0</speed>
  <fix>3d</fix>
</trkpt>
<trkpt lat="-27.274439" lon="151.290064">
  <ele>343.1</ele>
  <time>2026-09-01T19:50:42Z</time>
  <course>7.09</course>
  <speed>0.0</speed>
  <fix>3d</fix>
</trkpt>
<trkpt lat="-27.274439" lon="151.290064">
  <ele>343.1</ele>
  <time>2026-09-01T19:50:42Z</time>
  <course>7.12</course>
  <speed>0.0</speed>
  <fix>3d</fix>
</trkpt>
<trkpt lat="-27.274439" lon="151.290064">
  <ele>343.1</ele>
  <time>2026-09-01T19:50:42Z</time>
  <course>7.09</course>
  <speed>0.0</speed>
  <fix>3d</fix>
</trkpt>
<trkpt lat="-27.274439" lon="151.290064">
  <ele>343.1</ele>
  <time>2026-09-01T19:50:42Z</time>
  <course>7.12</course>
  <speed>0.0</speed>
  <fix>3d</fix>
</trkpt>
<trkpt lat="-27.274439" lon="151.290064">
  <ele>343.1</ele>
  <time>2026-09-01T19:50:42Z</time>
  <course>7.09</course>
  <speed>0.0</speed>
  <fix>3d</fix>
</trkpt>
<trkpt lat="-27.274439" lon="151.290064">
  <ele>343.1</ele>
  <time>2026-09-01T19:50:42Z</time>
  <course>7.12</course>
  <speed>0.0</speed>
  <fix>3d</fix>
</trkpt>
<trkpt lat="-27.274439" lon="151.290064">
  <ele>343.1</ele>
  <time>2026-09-01T19:50:42Z</time>
  <course>7.09</course>
  <speed>0.0</speed>
  <fix>3d</fix>
</trkpt>
<trkpt lat="-27.274439" lon="151.290064">
  <ele>343.1</ele>
  <time>2026-09-01T19:50:42Z</time>
  <course>7.12</course>
  <speed>0.0</speed>
  <fix>3d</fix>
</trkpt>
<trkpt lat="-27.274439" lon="151.290064">
  <ele>343.1</ele>
  <time>2026-09-01T19:50:42Z</time>
  <course>7.09</course>
  <speed>0.0</speed>
  <fix>3d</fix>
</trkpt>
<trkpt lat="-27.274439" lon="151.290064">
  <ele>343.1</ele>
  <time>2026-09-01T19:50:42Z</time>
  <course>7.12</course>
  <speed>0.0</speed>
  <fix>3d</fix>
</trkpt>
<trkpt lat="-27.274439" lon="151.290064">
  <ele>343.1</ele>
  <time>2026-09-01T19:50:42Z</time>
  <course>7.09</course>
  <speed>0.0</speed>
  <fix>3d</fix>
</trkpt>
<trkpt lat="-27.274439" lon="151.290064">
  <ele>343.1</ele>
  <time>2026-09-01T19:50:42Z</time>
  <course>7.12</course>
  <speed>0.0</speed>
  <fix>3d</fix>
</trkpt>
<trkpt lat="-27.274439" lon="151.290064">
  <ele>343.1</ele>
  <time>2026-09-01T19:50:42Z</time>
  <course>7.09</course>
  <speed>0.0</speed>
  <fix>3d</fix>
</trkpt>
<trkpt lat="-27.274439" lon="151.290064">
  <ele>343.1</ele>
  <time>2026-09-01T19:50:42Z</time>
  <course>7.12</course>
  <speed>0.0</speed>
  <fix>3d</fix>
</trkpt>
<trkpt lat="-27.274439" lon="151.290064">
  <ele>343.1</ele>
  <time>2026-09-01T19:50:42Z</time>
  <course>7.09</course>
  <speed>0.0</speed>
  <fix>3d</fix>
</trkpt>
<trkpt lat="-27.274439" lon="151.290064">
  <ele>343.1</ele>
  <time>2026-09-01T19:50:42Z</time>
  <course>7.12</course>
  <speed>0.0</speed>
  <fix>3d</fix>
</trkpt>
<trkpt lat="-27.274439" lon="151.290064">
  <ele>343.1</ele>
  <time>2026-09-01T19:50:42Z</time>
  <course>7.09</course>
  <speed>0.0</speed>
  <fix>3d</fix>
</trkpt>
<trkpt lat="-27.274439" lon="151.290064">
  <ele>343.1</ele>
  <time>2026-09-01T19:50:42Z</time>
  <course>7.12</course>
  <speed>0.0</speed>
  <fix>3d</fix>
</trkpt>
<trkpt lat="-27.274439" lon="151.290064">
  <ele>343.1</ele>
  <time>2026-09-01T19:50:42Z</time>
  <course>7.09</course>
  <speed>0.0</speed>
  <fix>3d</fix>
</trkpt>
<trkpt lat="-27.274439" lon="151.290064">
  <ele>343.1</ele>
  <time>2026-09-01T19:50:42Z</time>
  <course>7.12</course>
  <speed>0.0</speed>
  <fix>3d</fix>
</trkpt>
<trkpt lat="-27.274439" lon="151.290064">
  <ele>343.1</ele>
  <time>2026-09-01T19:50:42Z</time>
  <course>7.09</course>
  <speed>0.0</speed>
  <fix>3d</fix>
</trkpt>
<trkpt lat="-27.274439" lon="151.290064">
  <ele>343.1</ele>
  <time>2026-09-01T19:50:42Z</time>
  <course>7.12</course>
  <speed>0.0</speed>
  <fix>3d</fix>
</trkpt>
<trkpt lat="-27.274439" lon="151.290064">
  <ele>343.1</ele>
  <time>2026-09-01T19:50:42Z</time>
  <course>7.09</course>
  <speed>0.0</speed>
  <fix>3d</fix>
</trkpt>
<trkpt lat="-27.274439" lon="151.290064">
  <ele>343.1</ele>
  <time>2026-09-01T19:50:42Z</time>
  <course>7.12</course>
  <speed>0.0</speed>
  <fix>3d</fix>
</trkpt>
<trkpt lat="-27.274439" lon="151.290064">
  <ele>343.1</ele>
  <time>2026-09-01T19:50:42Z</time>
  <course>7.09</course>
  <speed>0.0</speed>
  <fix>3d</fix>
</trkpt>
<trkpt lat="-27.274439" lon="151.290064">
  <ele>343.1</ele>
  <time>2026-09-01T19:50:42Z</time>
  <course>7.12</course>
  <speed>0.0</speed>
  <fix>3d</fix>
</trkpt>
<trkpt lat="-27.274439" lon="151.290064">
  <ele>343.1</ele>
  <time>2026-09-01T19:50:42Z</time>
  <course>7.09</course>
  <speed>0.0</speed>
  <fix>3d</fix>
</trkpt>
<trkpt lat="-27.274439" lon="151.290064">
  <ele>343.1</ele>
  <time>2026-09-01T19:50:42Z</time>
  <course>7.12</course>
  <speed>0.0</speed>
  <fix>3d</fix>
</trkpt>
<trkpt lat="-27.274439" lon="151.290064">
  <ele>343.1</ele>
  <time>2026-09-01T19:50:42Z</time>
  <course>7.09</course>
  <speed>0.0</speed>
  <fix>3d</fix>
</trkpt>
<trkpt lat="-27.274439" lon="151.290064">
  <ele>343.1</ele>
  <time>2026-09-01T19:50:42Z</time>
  <course>7.12</course>
  <speed>0.0</speed>
  <fix>3d</fix>
</trkpt>
<trkpt lat="-27.274439" lon="151.290064">
  <ele>343.1</ele>
  <time>2026-09-01T19:50:42Z</time>
  <course>7.09</course>
  <speed>0.0</speed>
  <fix>3d</fix>
</trkpt>
<trkpt lat="-27.274439" lon="151.290064">
  <ele>343.1</ele>
  <time>2026-09-01T19:50:42Z</time>
  <course>7.12</course>
  <speed>0.0</speed>
  <fix>3d</fix>
</trkpt>
<trkpt lat="-27.274439" lon="151.290064">
  <ele>343.1</ele>
  <time>2026-09-01T19:50:42Z</time>
  <course>7.09</course>
  <speed>0.0</speed>
  <fix>3d</fix>
</trkpt>
<trkpt lat="-27.274439" lon="151.290064">
  <ele>343.1</ele>
  <time>2026-09-01T19:50:42Z</time>
  <course>7.12</course>
  <speed>0.0</speed>
  <fix>3d</fix>
</trkpt>
<trkpt lat="-27.274439" lon="151.290064">
  <ele>343.1</ele>
  <time>2026-09-01T19:50:42Z</time>
  <course>7.09</course>
  <speed>0.0</speed>
  <fix>3d</fix>
</trkpt>
<trkpt lat="-27.274439" lon="151.290064">
  <ele>343.1</ele>
  <time>2026-09-01T19:50:42Z</time>
  <course>7.12</course>
  <speed>0.0</speed>
  <fix>3d</fix>
</trkpt>
<trkpt lat="-27.274439" lon="151.290064">
  <ele>343.1</ele>
  <time>2026-09-01T19:50:42Z</time>
  <course>7.09</course>
  <speed>0.0</speed>
  <fix>3d</fix>
</trkpt>
<trkpt lat="-27.274439" lon="151.290064">
  <ele>343.1</ele>
  <time>2026-09-01T19:50:42Z</time>
  <course>7.12</course>
  <speed>0.0</speed>
  <fix>3d</fix>
</trkpt>
<trkpt lat="-27.274439" lon="151.290064">
  <ele>343.1</ele>
  <time>2026-09-01T19:50:42Z</time>
  <course>7.09</course>
  <speed>0.0</speed>
  <fix>3d</fix>
</trkpt>
<trkpt lat="-27.274439" lon="151.290064">
  <ele>343.1</ele>
  <time>2026-09-01T19:50:42Z</time>
  <course>7.12</course>
  <speed>0.0</speed>
  <fix>3d</fix>
</trkpt>
<trkpt lat="-27.274439" lon="151.290064">
  <ele>343.1</ele>
  <time>2026-09-01T19:50:42Z</time>
  <course>7.09</course>
  <speed>0.0</speed>
  <fix>3d</fix>
</trkpt>
<trkpt lat="-27.274439" lon="151.290064">
  <ele>343.1</ele>
  <time>2026-09-01T19:50:42Z</time>
  <course>7.12</course>
  <speed>0.0</speed>
  <fix>3d</fix>
</trkpt>
<trkpt lat="-27.274439" lon="151.290064">
  <ele>343.1</ele>
  <time>2026-09-01T19:50:42Z</time>
  <course>7.09</course>
  <speed>0.0</speed>
  <fix>3d</fix>
</trkpt>
<trkpt lat="-27.274439" lon="151.290064">
  <ele>343.1</ele>
  <time>2026-09-01T19:50:42Z</time>
  <course>7.12</course>
  <speed>0.0</speed>
  <fix>3d</fix>
</trkpt>
<trkpt lat="-27.274439" lon="151.290064">
  <ele>343.1</ele>
  <time>2026-09-01T19:50:42Z</time>
  <course>7.09</course>
  <speed>0.0</speed>
  <fix>3d</fix>
</trkpt>
<trkpt lat="-27.274439" lon="151.290064">
  <ele>343.1</ele>
  <time>2026-09-01T19:50:42Z</time>
  <course>7.12</course>
  <speed>0.0</speed>
  <fix>3d</fix>
</trkpt>
<trkpt lat="-27.274439" lon="151.290064">
  <ele>343.1</ele>
  <time>2026-09-01T19:50:42Z</time>
  <course>7.09</course>
  <speed>0.0</speed>
  <fix>3d</fix>
</trkpt>
<trkpt lat="-27.274439" lon="151.290064">
  <ele>343.1</ele>
  <time>2026-09-01T19:50:42Z</time>
  <course>7.12</course>
  <speed>0.0</speed>
  <fix>3d</fix>
</trkpt>
<trkpt lat="-27.274439" lon="151.290064">
  <ele>343.1</ele>
  <time>2026-09-01T19:50:42Z</time>
  <course>7.09</course>
  <speed>0.0</speed>
  <fix>3d</fix>
</trkpt>
<trkpt lat="-27.274439" lon="151.290064">
  <ele>343.1</ele>
  <time>2026-09-01T19:50:42Z</time>
  <course>7.12</course>
  <speed>0.0</speed>
  <fix>3d</fix>
</trkpt>
<trkpt lat="-27.274439" lon="151.290064">
  <ele>343.1</ele>
  <time>2026-09-01T19:50:42Z</time>
  <course>7.09</course>
  <speed>0.0</speed>
  <fix>3d</fix>
</trkpt>
<trkpt lat="-27.274439" lon="151.290064">
  <ele>343.1</ele>
  <time>2026-09-01T19:50:42Z</time>
  <course>7.12</course>
  <speed>0.0</speed>
  <fix>3d</fix>
</trkpt>
<trkpt lat="-27.274439" lon="151.290064">
  <ele>343.1</ele>
  <time>2026-09-01T19:50:42Z</time>
  <course>7.09</course>
  <speed>0.0</speed>
  <fix>3d</fix>
</trkpt>
<trkpt lat="-27.274439" lon="151.290064">
  <ele>343.1</ele>
  <time>2026-09-01T19:50:42Z</time>
  <course>7.12</course>
  <speed>0.0</speed>
  <fix>3d</fix>
</trkpt>
<trkpt lat="-27.274439" lon="151.290064">
  <ele>343.1</ele>
  <time>2026-09-01T19:50:42Z</time>
  <course>7.09</course>
  <speed>0.0</speed>
  <fix>3d</fix>
</trkpt>
<trkpt lat="-27.274439" lon="151.290064">
  <ele>343.1</ele>
  <time>2026-09-01T19:50:42Z</time>
  <course>7.12</course>
  <speed>0.0</speed>
  <fix>3d</fix>
</trkpt>
<trkpt lat="-27.274439" lon="151.290064">
  <ele>343.1</ele>
  <time>2026-09-01T19:50:42Z</time>
  <course>7.09</course>
  <speed>0.0</speed>
  <fix>3d</fix>
</trkpt>
<trkpt lat="-27.274439" lon="151.290064">
  <ele>343.1</ele>
  <time>2026-09-01T19:50:42Z</time>
  <course>7.12</course>
  <speed>0.0</speed>
  <fix>3d</fix>
</trkpt>
<trkpt lat="-27.274439" lon="151.290064">
  <ele>343.1</ele>
  <time>2026-09-01T19:50:42Z</time>
  <course>7.09</course>
  <speed>0.0</speed>
  <fix>3d</fix>
</trkpt>
<trkpt lat="-27.274439" lon="151.290064">
  <ele>343.1</ele>
  <time>2026-09-01T19:50:42Z</time>
  <course>7.12</course>
  <speed>0.0</speed>
  <fix>3d</fix>
</trkpt>
<trkpt lat="-27.274439" lon="151.290064">
  <ele>343.1</ele>
  <time>2026-09-01T19:50:42Z</time>
  <course>7.09</course>
  <speed>0.0</speed>
  <fix>3d</fix>
</trkpt>
<trkpt lat="-27.274439" lon="151.290064">
  <ele>343.1</ele>
  <time>2026-09-01T19:50:42Z</time>
  <course>7.12</course>
  <speed>0.0</speed>
  <fix>3d</fix>
</trkpt>
<trkpt lat="-27.274439" lon="151.290064">
  <ele>343.1</ele>
  <time>2026-09-01T19:50:42Z</time>
  <course>7.09</course>
  <speed>0.0</speed>
  <fix>3d</fix>
</trkpt>
<trkpt lat="-27.274439" lon="151.290064">
  <ele>343.1</ele>
  <time>2026-09-01T19:50:42Z</time>
  <course>7.12</course>
  <speed>0.0</speed>
  <fix>3d</fix>
</trkpt>
<trkpt lat="-27.274439" lon="151.290064">
  <ele>343.1</ele>
  <time>2026-09-01T19:50:42Z</time>
  <course>7.09</course>
  <speed>0.0</speed>
  <fix>3d</fix>
</trkpt>
<trkpt lat="-27.274439" lon="151.290064">
  <ele>343.1</ele>
  <time>2026-09-01T19:50:42Z</time>
  <course>7.12</course>
  <speed>0.0</speed>
  <fix>3d</fix>
</trkpt>
<trkpt lat="-27.274439" lon="151.290064">
  <ele>343.1</ele>
  <time>2026-09-01T19:50:42Z</time>
  <course>7.09</course>
  <speed>0.0</speed>
  <fix>3d</fix>
</trkpt>
<trkpt lat="-27.274439" lon="151.290064">
  <ele>343.1</ele>
  <time>2026-09-01T19:50:42Z</time>
  <course>7.12</course>
  <speed>0.0</speed>
  <fix>3d</fix>
</trkpt>
<trkpt lat="-27.274439" lon="151.290064">
  <ele>343.1</ele>
  <time>2026-09-01T19:50:42Z</time>
  <course>7.09</course>
  <speed>0.0</speed>
  <fix>3d</fix>
</trkpt>
<trkpt lat="-27.274439" lon="151.290064">
  <ele>343.1</ele>
  <time>2026-09-01T19:50:42Z</time>
  <course>7.12</course>
  <speed>0.0</speed>
  <fix>3d</fix>
</trkpt>
<trkpt lat="-27.274439" lon="151.290064">
  <ele>343.1</ele>
  <time>2026-09-01T19:50:43Z</time>
  <course>7.09</course>
  <speed>0.0</speed>
  <fix>3d</fix>
</trkpt>
<trkpt lat="-27.274439" lon="151.290064">
  <ele>343.1</ele>
  <time>2026-09-01T19:50:43Z</time>
  <course>7.12</course>
  <speed>0.0</speed>
  <fix>3d</fix>
</trkpt>
<trkpt lat="-27.274439" lon="151.290064">
  <ele>343.1</ele>
  <time>2026-09-01T19:50:43Z</time>
  <course>7.09</course>
  <speed>0.0</speed>
  <fix>3d</fix>
</trkpt>
<trkpt lat="-27.274439" lon="151.290064">
  <ele>343.1</ele>
  <time>2026-09-01T19:50:43Z</time>
  <course>7.12</course>
  <speed>0.0</speed>
  <fix>3d</fix>
</trkpt>
<trkpt lat="-27.274439" lon="151.290064">
  <ele>343.1</ele>
  <time>2026-09-01T19:50:43Z</time>
  <course>7.09</course>
  <speed>0.0</speed>
  <fix>3d</fix>
</trkpt>
<trkpt lat="-27.274439" lon="151.290064">
  <ele>343.1</ele>
  <time>2026-09-01T19:50:43Z</time>
  <course>7.12</course>
  <speed>0.0</speed>
  <fix>3d</fix>
</trkpt>
<trkpt lat="-27.274439" lon="151.290064">
  <ele>343.1</ele>
  <time>2026-09-01T19:50:43Z</time>
  <course>7.09</course>
  <speed>0.0</speed>
  <fix>3d</fix>
</trkpt>
<trkpt lat="-27.274439" lon="151.290064">
  <ele>343.1</ele>
  <time>2026-09-01T19:50:43Z</time>
  <course>7.12</course>
  <speed>0.0</speed>
  <fix>3d</fix>
</trkpt>
<trkpt lat="-27.274439" lon="151.290064">
  <ele>343.1</ele>
  <time>2026-09-01T19:50:43Z</time>
  <course>7.09</course>
  <speed>0.0</speed>
  <fix>3d</fix>
</trkpt>
<trkpt lat="-27.274439" lon="151.290064">
  <ele>343.1</ele>
  <time>2026-09-01T19:50:43Z</time>
  <course>7.12</course>
  <speed>0.0</speed>
  <fix>3d</fix>
</trkpt>
<trkpt lat="-27.274439" lon="151.290064">
  <ele>343.1</ele>
  <time>2026-09-01T19:50:43Z</time>
  <course>7.09</course>
  <speed>0.0</speed>
  <fix>3d</fix>
</trkpt>
<trkpt lat="-27.274439" lon="151.290064">
  <ele>343.1</ele>
  <time>2026-09-01T19:50:43Z</time>
  <course>7.12</course>
  <speed>0.0</speed>
  <fix>3d</fix>
</trkpt>
<trkpt lat="-27.274439" lon="151.290064">
  <ele>343.1</ele>
  <time>2026-09-01T19:50:43Z</time>
  <course>7.09</course>
  <speed>0.0</speed>
  <fix>3d</fix>
</trkpt>
<trkpt lat="-27.274439" lon="151.290064">
  <ele>343.1</ele>
  <time>2026-09-01T19:50:43Z</time>
  <course>7.12</course>
  <speed>0.0</speed>
  <fix>3d</fix>
</trkpt>
<trkpt lat="-27.274439" lon="151.290064">
  <ele>343.1</ele>
  <time>2026-09-01T19:50:43Z</time>
  <course>7.09</course>
  <speed>0.0</speed>
  <fix>3d</fix>
</trkpt>
<trkpt lat="-27.274439" lon="151.290064">
  <ele>343.1</ele>
  <time>2026-09-01T19:50:43Z</time>
  <course>7.12</course>
  <speed>0.0</speed>
  <fix>3d</fix>
</trkpt>
<trkpt lat="-27.274439" lon="151.290064">
  <ele>343.1</ele>
  <time>2026-09-01T19:50:43Z</time>
  <course>7.09</course>
  <speed>0.0</speed>
  <fix>3d</fix>
</trkpt>
<trkpt lat="-27.274439" lon="151.290064">
  <ele>343.1</ele>
  <time>2026-09-01T19:50:43Z</time>
  <course>7.12</course>
  <speed>0.0</speed>
  <fix>3d</fix>
</trkpt>
<trkpt lat="-27.274439" lon="151.290064">
  <ele>343.1</ele>
  <time>2026-09-01T19:50:43Z</time>
  <course>7.09</course>
  <speed>0.0</speed>
  <fix>3d</fix>
</trkpt>
<trkpt lat="-27.274439" lon="151.290064">
  <ele>343.1</ele>
  <time>2026-09-01T19:50:43Z</time>
  <course>7.12</course>
  <speed>0.0</speed>
  <fix>3d</fix>
</trkpt>
<trkpt lat="-27.274439" lon="151.290064">
  <ele>343.1</ele>
  <time>2026-09-01T19:50:43Z</time>
  <course>7.09</course>
  <speed>0.0</speed>
  <fix>3d</fix>
</trkpt>
<trkpt lat="-27.274439" lon="151.290064">
  <ele>343.1</ele>
  <time>2026-09-01T19:50:43Z</time>
  <course>7.12</course>
  <speed>0.0</speed>
  <fix>3d</fix>
</trkpt>
<trkpt lat="-27.274439" lon="151.290064">
  <ele>343.1</ele>
  <time>2026-09-01T19:50:43Z</time>
  <course>7.09</course>
  <speed>0.0</speed>
  <fix>3d</fix>
</trkpt>
<trkpt lat="-27.274439" lon="151.290064">
  <ele>343.1</ele>
  <time>2026-09-01T19:50:43Z</time>
  <course>7.12</course>
  <speed>0.0</speed>
  <fix>3d</fix>
</trkpt>
<trkpt lat="-27.274439" lon="151.290064">
  <ele>343.1</ele>
  <time>2026-09-01T19:50:43Z</time>
  <course>7.09</course>
  <speed>0.0</speed>
  <fix>3d</fix>
</trkpt>
<trkpt lat="-27.274439" lon="151.290064">
  <ele>343.1</ele>
  <time>2026-09-01T19:50:43Z</time>
  <course>7.12</course>
  <speed>0.0</speed>
  <fix>3d</fix>
</trkpt>
<trkpt lat="-27.274439" lon="151.290064">
  <ele>343.1</ele>
  <time>2026-09-01T19:50:43Z</time>
  <course>7.09</course>
  <speed>0.0</speed>
  <fix>3d</fix>
</trkpt>
<trkpt lat="-27.274439" lon="151.290064">
  <ele>343.1</ele>
  <time>2026-09-01T19:50:43Z</time>
  <course>7.12</course>
  <speed>0.0</speed>
  <fix>3d</fix>
</trkpt>
<trkpt lat="-27.274439" lon="151.290064">
  <ele>343.1</ele>
  <time>2026-09-01T19:50:43Z</time>
  <course>7.09</course>
  <speed>0.0</speed>
  <fix>3d</fix>
</trkpt>
<trkpt lat="-27.274439" lon="151.290064">
  <ele>343.1</ele>
  <time>2026-09-01T19:50:43Z</time>
  <course>7.12</course>
  <speed>0.0</speed>
  <fix>3d</fix>
</trkpt>
<trkpt lat="-27.274439" lon="151.290064">
  <ele>343.1</ele>
  <time>2026-09-01T19:50:43Z</time>
  <course>7.09</course>
  <speed>0.0</speed>
  <fix>3d</fix>
</trkpt>
<trkpt lat="-27.274439" lon="151.290064">
  <ele>343.1</ele>
  <time>2026-09-01T19:50:43Z</time>
  <course>7.12</course>
  <speed>0.0</speed>
  <fix>3d</fix>
</trkpt>
<trkpt lat="-27.274439" lon="151.290064">
  <ele>343.1</ele>
  <time>2026-09-01T19:50:43Z</time>
  <course>7.09</course>
  <speed>0.0</speed>
  <fix>3d</fix>
</trkpt>
<trkpt lat="-27.274439" lon="151.290064">
  <ele>343.1</ele>
  <time>2026-09-01T19:50:43Z</time>
  <course>7.12</course>
  <speed>0.0</speed>
  <fix>3d</fix>
</trkpt>
<trkpt lat="-27.274439" lon="151.290064">
  <ele>343.1</ele>
  <time>2026-09-01T19:50:43Z</time>
  <course>7.09</course>
  <speed>0.0</speed>
  <fix>3d</fix>
</trkpt>
<trkpt lat="-27.274439" lon="151.290064">
  <ele>343.1</ele>
  <time>2026-09-01T19:50:43Z</time>
  <course>7.12</course>
  <speed>0.0</speed>
  <fix>3d</fix>
</trkpt>
<trkpt lat="-27.274439" lon="151.290064">
  <ele>343.1</ele>
  <time>2026-09-01T19:50:43Z</time>
  <course>7.09</course>
  <speed>0.0</speed>
  <fix>3d</fix>
</trkpt>
<trkpt lat="-27.274439" lon="151.290064">
  <ele>343.1</ele>
  <time>2026-09-01T19:50:43Z</time>
  <course>7.12</course>
  <speed>0.0</speed>
  <fix>3d</fix>
</trkpt>
<trkpt lat="-27.274439" lon="151.290064">
  <ele>343.1</ele>
  <time>2026-09-01T19:50:43Z</time>
  <course>7.09</course>
  <speed>0.0</speed>
  <fix>3d</fix>
</trkpt>
<trkpt lat="-27.274439" lon="151.290064">
  <ele>343.1</ele>
  <time>2026-09-01T19:50:43Z</time>
  <course>7.12</course>
  <speed>0.0</speed>
  <fix>3d</fix>
</trkpt>
<trkpt lat="-27.274439" lon="151.290064">
  <ele>343.1</ele>
  <time>2026-09-01T19:50:43Z</time>
  <course>7.09</course>
  <speed>0.0</speed>
  <fix>3d</fix>
</trkpt>
<trkpt lat="-27.274439" lon="151.290064">
  <ele>343.1</ele>
  <time>2026-09-01T19:50:43Z</time>
  <course>7.12</course>
  <speed>0.0</speed>
  <fix>3d</fix>
</trkpt>
<trkpt lat="-27.274439" lon="151.290064">
  <ele>343.1</ele>
  <time>2026-09-01T19:50:43Z</time>
  <course>7.09</course>
  <speed>0.0</speed>
  <fix>3d</fix>
</trkpt>
<trkpt lat="-27.274439" lon="151.290064">
  <ele>343.1</ele>
  <time>2026-09-01T19:50:43Z</time>
  <course>7.12</course>
  <speed>0.0</speed>
  <fix>3d</fix>
</trkpt>
<trkpt lat="-27.274439" lon="151.290064">
  <ele>343.1</ele>
  <time>2026-09-01T19:50:43Z</time>
  <course>7.09</course>
  <speed>0.0</speed>
  <fix>3d</fix>
</trkpt>
<trkpt lat="-27.274439" lon="151.290064">
  <ele>343.1</ele>
  <time>2026-09-01T19:50:43Z</time>
  <course>7.12</course>
  <speed>0.0</speed>
  <fix>3d</fix>
</trkpt>
<trkpt lat="-27.274439" lon="151.290064">
  <ele>343.1</ele>
  <time>2026-09-01T19:50:43Z</time>
  <course>7.09</course>
  <speed>0.0</speed>
  <fix>3d</fix>
</trkpt>
<trkpt lat="-27.274439" lon="151.290064">
  <ele>343.1</ele>
  <time>2026-09-01T19:50:43Z</time>
  <course>7.12</course>
  <speed>0.0</speed>
  <fix>3d</fix>
</trkpt>
<trkpt lat="-27.274439" lon="151.290064">
  <ele>343.1</ele>
  <time>2026-09-01T19:50:43Z</time>
  <course>7.09</course>
  <speed>0.0</speed>
  <fix>3d</fix>
</trkpt>
<trkpt lat="-27.274439" lon="151.290064">
  <ele>343.1</ele>
  <time>2026-09-01T19:50:43Z</time>
  <course>142.09</course>
  <speed>0.0</speed>
  <fix>3d</fix>
</trkpt>
<trkpt lat="-27.274439" lon="151.290064">
  <ele>343.1</ele>
  <time>2026-09-01T19:50:43Z</time>
  <course>7.09</course>
  <speed>0.0</speed>
  <fix>3d</fix>
</trkpt>
<trkpt lat="-27.274439" lon="151.290064">
  <ele>343.1</ele>
  <time>2026-09-01T19:50:43Z</time>
  <course>142.09</course>
  <speed>0.0</speed>
  <fix>3d</fix>
</trkpt>
<trkpt lat="-27.274439" lon="151.290064">
  <ele>343.1</ele>
  <time>2026-09-01T19:50:43Z</time>
  <course>7.09</course>
  <speed>0.0</speed>
  <fix>3d</fix>
</trkpt>
<trkpt lat="-27.274439" lon="151.290064">
  <ele>343.1</ele>
  <time>2026-09-01T19:50:43Z</time>
  <course>142.1</course>
  <speed>0.0</speed>
  <fix>3d</fix>
</trkpt>
<trkpt lat="-27.274439" lon="151.290064">
  <ele>343.1</ele>
  <time>2026-09-01T19:50:43Z</time>
  <course>7.09</course>
  <speed>0.0</speed>
  <fix>3d</fix>
</trkpt>
<trkpt lat="-27.274439" lon="151.290064">
  <ele>343.1</ele>
  <time>2026-09-01T19:50:43Z</time>
  <course>322.09</course>
  <speed>0.0</speed>
  <fix>3d</fix>
</trkpt>
<trkpt lat="-27.274439" lon="151.290064">
  <ele>343.1</ele>
  <time>2026-09-01T19:50:43Z</time>
  <course>7.09</course>
  <speed>0.0</speed>
  <fix>3d</fix>
</trkpt>
<trkpt lat="-27.274439" lon="151.290064">
  <ele>343.1</ele>
  <time>2026-09-01T19:50:43Z</time>
  <course>322.09</course>
  <speed>0.0</speed>
  <fix>3d</fix>
</trkpt>
<trkpt lat="-27.274439" lon="151.290064">
  <ele>343.1</ele>
  <time>2026-09-01T19:50:43Z</time>
  <course>7.09</course>
  <speed>0.0</speed>
  <fix>3d</fix>
</trkpt>
<trkpt lat="-27.274439" lon="151.290064">
  <ele>343.1</ele>
  <time>2026-09-01T19:50:43Z</time>
  <course>322.09</course>
  <speed>0.0</speed>
  <fix>3d</fix>
</trkpt>
<trkpt lat="-27.274439" lon="151.290064">
  <ele>343.1</ele>
  <time>2026-09-01T19:50:43Z</time>
  <course>7.09</course>
  <speed>0.0</speed>
  <fix>3d</fix>
</trkpt>
<trkpt lat="-27.274439" lon="151.290064">
  <ele>343.1</ele>
  <time>2026-09-01T19:50:43Z</time>
  <course>322.09</course>
  <speed>0.0</speed>
  <fix>3d</fix>
</trkpt>
<trkpt lat="-27.274439" lon="151.290064">
  <ele>343.1</ele>
  <time>2026-09-01T19:50:43Z</time>
  <course>7.09</course>
  <speed>0.0</speed>
  <fix>3d</fix>
</trkpt>
<trkpt lat="-27.274439" lon="151.290064">
  <ele>343.1</ele>
  <time>2026-09-01T19:50:43Z</time>
  <course>142.09</course>
  <speed>0.0</speed>
  <fix>3d</fix>
</trkpt>
<trkpt lat="-27.274439" lon="151.290064">
  <ele>343.1</ele>
  <time>2026-09-01T19:50:43Z</time>
  <course>7.09</course>
  <speed>0.0</speed>
  <fix>3d</fix>
</trkpt>
<trkpt lat="-27.274439" lon="151.290064">
  <ele>343.1</ele>
  <time>2026-09-01T19:50:43Z</time>
  <course>142.09</course>
  <speed>0.0</speed>
  <fix>3d</fix>
</trkpt>
<trkpt lat="-27.274439" lon="151.290064">
  <ele>343.1</ele>
  <time>2026-09-01T19:50:43Z</time>
  <course>7.09</course>
  <speed>0.0</speed>
  <fix>3d</fix>
</trkpt>
<trkpt lat="-27.274439" lon="151.290064">
  <ele>343.1</ele>
  <time>2026-09-01T19:50:43Z</time>
  <course>142.09</course>
  <speed>0.0</speed>
  <fix>3d</fix>
</trkpt>
<trkpt lat="-27.274439" lon="151.290064">
  <ele>343.1</ele>
  <time>2026-09-01T19:50:43Z</time>
  <course>7.09</course>
  <speed>0.0</speed>
  <fix>3d</fix>
</trkpt>
<trkpt lat="-27.274439" lon="151.290064">
  <ele>343.1</ele>
  <time>2026-09-01T19:50:43Z</time>
  <course>322.09</course>
  <speed>0.0</speed>
  <fix>3d</fix>
</trkpt>
<trkpt lat="-27.274439" lon="151.290064">
  <ele>343.1</ele>
  <time>2026-09-01T19:50:43Z</time>
  <course>7.09</course>
  <speed>0.0</speed>
  <fix>3d</fix>
</trkpt>
<trkpt lat="-27.274439" lon="151.290064">
  <ele>343.1</ele>
  <time>2026-09-01T19:50:43Z</time>
  <course>322.09</course>
  <speed>0.0</speed>
  <fix>3d</fix>
</trkpt>
<trkpt lat="-27.274439" lon="151.290064">
  <ele>343.1</ele>
  <time>2026-09-01T19:50:43Z</time>
  <course>7.09</course>
  <speed>0.0</speed>
  <fix>3d</fix>
</trkpt>
<trkpt lat="-27.274439" lon="151.290064">
  <ele>343.1</ele>
  <time>2026-09-01T19:50:43Z</time>
  <course>322.09</course>
  <speed>0.0</speed>
  <fix>3d</fix>
</trkpt>
<trkpt lat="-27.274439" lon="151.290064">
  <ele>343.1</ele>
  <time>2026-09-01T19:50:43Z</time>
  <course>7.09</course>
  <speed>0.0</speed>
  <fix>3d</fix>
</trkpt>
<trkpt lat="-27.274439" lon="151.290064">
  <ele>343.1</ele>
  <time>2026-09-01T19:50:43Z</time>
  <course>322.09</course>
  <speed>0.0</speed>
  <fix>3d</fix>
</trkpt>
<trkpt lat="-27.274439" lon="151.290064">
  <ele>343.1</ele>
  <time>2026-09-01T19:50:43Z</time>
  <course>7.09</course>
  <speed>0.0</speed>
  <fix>3d</fix>
</trkpt>
<trkpt lat="-27.274439" lon="151.290064">
  <ele>343.1</ele>
  <time>2026-09-01T19:50:43Z</time>
  <course>142.09</course>
  <speed>0.0</speed>
  <fix>3d</fix>
</trkpt>
<trkpt lat="-27.274439" lon="151.290064">
  <ele>343.1</ele>
  <time>2026-09-01T19:50:43Z</time>
  <course>7.09</course>
  <speed>0.0</speed>
  <fix>3d</fix>
</trkpt>
<trkpt lat="-27.274439" lon="151.290064">
  <ele>343.1</ele>
  <time>2026-09-01T19:50:43Z</time>
  <course>142.09</course>
  <speed>0.0</speed>
  <fix>3d</fix>
</trkpt>
<trkpt lat="-27.274439" lon="151.290064">
  <ele>343.1</ele>
  <time>2026-09-01T19:50:43Z</time>
  <course>7.09</course>
  <speed>0.0</speed>
  <fix>3d</fix>
</trkpt>
<trkpt lat="-27.274439" lon="151.290064">
  <ele>343.1</ele>
  <time>2026-09-01T19:50:43Z</time>
  <course>142.09</course>
  <speed>0.0</speed>
  <fix>3d</fix>
</trkpt>
<trkpt lat="-27.274439" lon="151.290064">
  <ele>343.1</ele>
  <time>2026-09-01T19:50:43Z</time>
  <course>7.09</course>
  <speed>0.0</speed>
  <fix>3d</fix>
</trkpt>
<trkpt lat="-27.274439" lon="151.290064">
  <ele>343.1</ele>
  <time>2026-09-01T19:50:43Z</time>
  <course>142.09</course>
  <speed>0.0</speed>
  <fix>3d</fix>
</trkpt>
<trkpt lat="-27.274439" lon="151.290064">
  <ele>343.1</ele>
  <time>2026-09-01T19:50:43Z</time>
  <course>7.09</course>
  <speed>0.0</speed>
  <fix>3d</fix>
</trkpt>
<trkpt lat="-27.274439" lon="151.290064">
  <ele>343.1</ele>
  <time>2026-09-01T19:50:43Z</time>
  <course>322.09</course>
  <speed>0.0</speed>
  <fix>3d</fix>
</trkpt>
<trkpt lat="-27.274439" lon="151.290064">
  <ele>343.1</ele>
  <time>2026-09-01T19:50:43Z</time>
  <course>7.09</course>
  <speed>0.0</speed>
  <fix>3d</fix>
</trkpt>
<trkpt lat="-27.274439" lon="151.290064">
  <ele>343.1</ele>
  <time>2026-09-01T19:50:43Z</time>
  <course>322.09</course>
  <speed>0.0</speed>
  <fix>3d</fix>
</trkpt>
<trkpt lat="-27.274439" lon="151.290064">
  <ele>343.1</ele>
  <time>2026-09-01T19:50:43Z</time>
  <course>7.09</course>
  <speed>0.0</speed>
  <fix>3d</fix>
</trkpt>
<trkpt lat="-27.274439" lon="151.290064">
  <ele>343.1</ele>
  <time>2026-09-01T19:50:43Z</time>
  <course>322.09</course>
  <speed>0.0</speed>
  <fix>3d</fix>
</trkpt>
<trkpt lat="-27.274439" lon="151.290064">
  <ele>343.1</ele>
  <time>2026-09-01T19:50:43Z</time>
  <course>7.09</course>
  <speed>0.0</speed>
  <fix>3d</fix>
</trkpt>
<trkpt lat="-27.274439" lon="151.290064">
  <ele>343.1</ele>
  <time>2026-09-01T19:50:43Z</time>
  <course>322.09</course>
  <speed>0.0</speed>
  <fix>3d</fix>
</trkpt>
<trkpt lat="-27.274439" lon="151.290064">
  <ele>343.1</ele>
  <time>2026-09-01T19:50:43Z</time>
  <course>7.09</course>
  <speed>0.0</speed>
  <fix>3d</fix>
</trkpt>
<trkpt lat="-27.274439" lon="151.290064">
  <ele>343.1</ele>
  <time>2026-09-01T19:50:43Z</time>
  <course>142.09</course>
  <speed>0.0</speed>
  <fix>3d</fix>
</trkpt>
<trkpt lat="-27.274439" lon="151.290064">
  <ele>343.1</ele>
  <time>2026-09-01T19:50:43Z</time>
  <course>7.09</course>
  <speed>0.0</speed>
  <fix>3d</fix>
</trkpt>
<trkpt lat="-27.274439" lon="151.290064">
  <ele>343.1</ele>
  <time>2026-09-01T19:50:43Z</time>
  <course>142.09</course>
  <speed>0.0</speed>
  <fix>3d</fix>
</trkpt>
<trkpt lat="-27.274439" lon="151.290064">
  <ele>343.1</ele>
  <time>2026-09-01T19:50:43Z</time>
  <course>7.09</course>
  <speed>0.0</speed>
  <fix>3d</fix>
</trkpt>
<trkpt lat="-27.274439" lon="151.290064">
  <ele>343.1</ele>
  <time>2026-09-01T19:50:43Z</time>
  <course>142.09</course>
  <speed>0.0</speed>
  <fix>3d</fix>
</trkpt>
<trkpt lat="-27.274439" lon="151.290064">
  <ele>343.1</ele>
  <time>2026-09-01T19:50:43Z</time>
  <course>7.09</course>
  <speed>0.0</speed>
  <fix>3d</fix>
</trkpt>
<trkpt lat="-27.274439" lon="151.290064">
  <ele>343.1</ele>
  <time>2026-09-01T19:50:43Z</time>
  <course>322.09</course>
  <speed>0.0</speed>
  <fix>3d</fix>
</trkpt>
<trkpt lat="-27.274439" lon="151.290064">
  <ele>343.1</ele>
  <time>2026-09-01T19:50:43Z</time>
  <course>7.09</course>
  <speed>0.0</speed>
  <fix>3d</fix>
</trkpt>
<trkpt lat="-27.274439" lon="151.290064">
  <ele>343.1</ele>
  <time>2026-09-01T19:50:43Z</time>
  <course>322.09</course>
  <speed>0.0</speed>
  <fix>3d</fix>
</trkpt>
<trkpt lat="-27.274439" lon="151.290064">
  <ele>343.1</ele>
  <time>2026-09-01T19:50:43Z</time>
  <course>7.09</course>
  <speed>0.0</speed>
  <fix>3d</fix>
</trkpt>
<trkpt lat="-27.274439" lon="151.290064">
  <ele>343.1</ele>
  <time>2026-09-01T19:50:43Z</time>
  <course>322.05</course>
  <speed>0.0</speed>
  <fix>3d</fix>
</trkpt>
<trkpt lat="-27.274439" lon="151.290064">
  <ele>343.1</ele>
  <time>2026-09-01T19:50:43Z</time>
  <course>7.09</course>
  <speed>0.0</speed>
  <fix>3d</fix>
</trkpt>
<trkpt lat="-27.274439" lon="151.290064">
  <ele>343.1</ele>
  <time>2026-09-01T19:50:43Z</time>
  <course>322.05</course>
  <speed>0.0</speed>
  <fix>3d</fix>
</trkpt>
<trkpt lat="-27.274439" lon="151.290064">
  <ele>343.1</ele>
  <time>2026-09-01T19:50:43Z</time>
  <course>7.09</course>
  <speed>0.0</speed>
  <fix>3d</fix>
</trkpt>
<trkpt lat="-27.274439" lon="151.290064">
  <ele>343.1</ele>
  <time>2026-09-01T19:50:43Z</time>
  <course>142.08</course>
  <speed>0.0</speed>
  <fix>3d</fix>
</trkpt>
<trkpt lat="-27.274439" lon="151.290064">
  <ele>343.1</ele>
  <time>2026-09-01T19:50:43Z</time>
  <course>7.09</course>
  <speed>0.0</speed>
  <fix>3d</fix>
</trkpt>
<trkpt lat="-27.274439" lon="151.290064">
  <ele>343.1</ele>
  <time>2026-09-01T19:50:43Z</time>
  <course>142.08</course>
  <speed>0.0</speed>
  <fix>3d</fix>
</trkpt>
<trkpt lat="-27.274439" lon="151.290064">
  <ele>343.1</ele>
  <time>2026-09-01T19:50:43Z</time>
  <course>7.09</course>
  <speed>0.0</speed>
  <fix>3d</fix>
</trkpt>
<trkpt lat="-27.274439" lon="151.290064">
  <ele>343.1</ele>
  <time>2026-09-01T19:50:43Z</time>
  <course>322.03</course>
  <speed>0.0</speed>
  <fix>3d</fix>
</trkpt>
<trkpt lat="-27.274439" lon="151.290064">
  <ele>343.1</ele>
  <time>2026-09-01T19:50:43Z</time>
  <course>7.09</course>
  <speed>0.0</speed>
  <fix>3d</fix>
</trkpt>
<trkpt lat="-27.274439" lon="151.290064">
  <ele>343.1</ele>
  <time>2026-09-01T19:50:43Z</time>
  <course>322.03</course>
  <speed>0.0</speed>
  <fix>3d</fix>
</trkpt>
<trkpt lat="-27.274439" lon="151.290064">
  <ele>343.1</ele>
  <time>2026-09-01T19:50:43Z</time>
  <course>7.09</course>
  <speed>0.0</speed>
  <fix>3d</fix>
</trkpt>
<trkpt lat="-27.274439" lon="151.290064">
  <ele>343.1</ele>
  <time>2026-09-01T19:50:43Z</time>
  <course>321.93</course>
  <speed>0.0</speed>
  <fix>3d</fix>
</trkpt>
<trkpt lat="-27.274439" lon="151.290064">
  <ele>343.1</ele>
  <time>2026-09-01T19:50:43Z</time>
  <course>7.09</course>
  <speed>0.0</speed>
  <fix>3d</fix>
</trkpt>
<trkpt lat="-27.274439" lon="151.290064">
  <ele>343.1</ele>
  <time>2026-09-01T19:50:43Z</time>
  <course>321.93</course>
  <speed>0.0</speed>
  <fix>3d</fix>
</trkpt>
<trkpt lat="-27.274439" lon="151.290064">
  <ele>343.1</ele>
  <time>2026-09-01T19:50:43Z</time>
  <course>7.09</course>
  <speed>0.0</speed>
  <fix>3d</fix>
</trkpt>
<trkpt lat="-27.274439" lon="151.290064">
  <ele>343.1</ele>
  <time>2026-09-01T19:50:43Z</time>
  <course>145.33</course>
  <speed>0.0</speed>
  <fix>3d</fix>
</trkpt>
<trkpt lat="-27.274439" lon="151.290064">
  <ele>343.1</ele>
  <time>2026-09-01T19:50:43Z</time>
  <course>7.09</course>
  <speed>0.0</speed>
  <fix>3d</fix>
</trkpt>
<trkpt lat="-27.274439" lon="151.290064">
  <ele>343.1</ele>
  <time>2026-09-01T19:50:43Z</time>
  <course>145.33</course>
  <speed>0.0</speed>
  <fix>3d</fix>
</trkpt>
<trkpt lat="-27.274439" lon="151.290064">
  <ele>343.1</ele>
  <time>2026-09-01T19:50:43Z</time>
  <course>7.09</course>
  <speed>0.0</speed>
  <fix>3d</fix>
</trkpt>
<trkpt lat="-27.274439" lon="151.290064">
  <ele>343.1</ele>
  <time>2026-09-01T19:50:43Z</time>
  <course>145.33</course>
  <speed>0.0</speed>
  <fix>3d</fix>
</trkpt>
<trkpt lat="-27.274439" lon="151.290064">
  <ele>343.1</ele>
  <time>2026-09-01T19:50:43Z</time>
  <course>7.09</course>
  <speed>0.0</speed>
  <fix>3d</fix>
</trkpt>
<trkpt lat="-27.274439" lon="151.290064">
  <ele>343.1</ele>
  <time>2026-09-01T19:50:43Z</time>
  <course>150.23</course>
  <speed>0.0</speed>
  <fix>3d</fix>
</trkpt>
<trkpt lat="-27.274439" lon="151.290064">
  <ele>343.1</ele>
  <time>2026-09-01T19:50:43Z</time>
  <course>7.09</course>
  <speed>0.0</speed>
  <fix>3d</fix>
</trkpt>
<trkpt lat="-27.274439" lon="151.290064">
  <ele>343.1</ele>
  <time>2026-09-01T19:50:43Z</time>
  <course>150.23</course>
  <speed>0.0</speed>
  <fix>3d</fix>
</trkpt>
<trkpt lat="-27.274439" lon="151.290064">
  <ele>343.1</ele>
  <time>2026-09-01T19:50:43Z</time>
  <course>7.09</course>
  <speed>0.0</speed>
  <fix>3d</fix>
</trkpt>
<trkpt lat="-27.274439" lon="151.290064">
  <ele>343.1</ele>
  <time>2026-09-01T19:50:43Z</time>
  <course>328.39</course>
  <speed>0.0</speed>
  <fix>3d</fix>
</trkpt>
<trkpt lat="-27.274439" lon="151.290064">
  <ele>343.1</ele>
  <time>2026-09-01T19:50:43Z</time>
  <course>7.09</course>
  <speed>0.0</speed>
  <fix>3d</fix>
</trkpt>
<trkpt lat="-27.274439" lon="151.290064">
  <ele>343.1</ele>
  <time>2026-09-01T19:50:43Z</time>
  <course>328.39</course>
  <speed>0.0</speed>
  <fix>3d</fix>
</trkpt>
<trkpt lat="-27.274439" lon="151.290064">
  <ele>343.1</ele>
  <time>2026-09-01T19:50:43Z</time>
  <course>7.09</course>
  <speed>0.0</speed>
  <fix>3d</fix>
</trkpt>
<trkpt lat="-27.274439" lon="151.290064">
  <ele>343.1</ele>
  <time>2026-09-01T19:50:43Z</time>
  <course>353.37</course>
  <speed>0.0</speed>
  <fix>3d</fix>
</trkpt>
<trkpt lat="-27.274439" lon="151.290064">
  <ele>343.1</ele>
  <time>2026-09-01T19:50:43Z</time>
  <course>7.09</course>
  <speed>0.0</speed>
  <fix>3d</fix>
</trkpt>
<trkpt lat="-27.274439" lon="151.290064">
  <ele>343.1</ele>
  <time>2026-09-01T19:50:43Z</time>
  <course>353.37</course>
  <speed>0.0</speed>
  <fix>3d</fix>
</trkpt>
<trkpt lat="-27.274439" lon="151.290064">
  <ele>343.1</ele>
  <time>2026-09-01T19:50:43Z</time>
  <course>7.09</course>
  <speed>0.0</speed>
  <fix>3d</fix>
</trkpt>
<trkpt lat="-27.274439" lon="151.290064">
  <ele>343.1</ele>
  <time>2026-09-01T19:50:43Z</time>
  <course>5.44</course>
  <speed>0.0</speed>
  <fix>3d</fix>
</trkpt>
<trkpt lat="-27.274439" lon="151.290064">
  <ele>343.1</ele>
  <time>2026-09-01T19:50:43Z</time>
  <course>7.09</course>
  <speed>0.0</speed>
  <fix>3d</fix>
</trkpt>
<trkpt lat="-27.274439" lon="151.290064">
  <ele>343.1</ele>
  <time>2026-09-01T19:50:43Z</time>
  <course>7.05</course>
  <speed>0.0</speed>
  <fix>3d</fix>
</trkpt>
<trkpt lat="-27.274439" lon="151.290064">
  <ele>343.1</ele>
  <time>2026-09-01T19:50:43Z</time>
  <course>7.09</course>
  <speed>0.0</speed>
  <fix>3d</fix>
</trkpt>
<trkpt lat="-27.274439" lon="151.290064">
  <ele>343.1</ele>
  <time>2026-09-01T19:50:43Z</time>
  <course>7.05</course>
  <speed>0.0</speed>
  <fix>3d</fix>
</trkpt>
<trkpt lat="-27.274439" lon="151.290064">
  <ele>343.1</ele>
  <time>2026-09-01T19:50:43Z</time>
  <course>7.09</course>
  <speed>0.0</speed>
  <fix>3d</fix>
</trkpt>
<trkpt lat="-27.274439" lon="151.290064">
  <ele>343.1</ele>
  <time>2026-09-01T19:50:43Z</time>
  <course>142.09</course>
  <speed>0.0</speed>
  <fix>3d</fix>
</trkpt>
<trkpt lat="-27.274439" lon="151.290064">
  <ele>343.1</ele>
  <time>2026-09-01T19:50:43Z</time>
  <course>7.09</course>
  <speed>0.0</speed>
  <fix>3d</fix>
</trkpt>
<trkpt lat="-27.274439" lon="151.290064">
  <ele>343.1</ele>
  <time>2026-09-01T19:50:43Z</time>
  <course>142.09</course>
  <speed>0.0</speed>
  <fix>3d</fix>
</trkpt>
<trkpt lat="-27.274439" lon="151.290064">
  <ele>343.1</ele>
  <time>2026-09-01T19:50:43Z</time>
  <course>7.09</course>
  <speed>0.0</speed>
  <fix>3d</fix>
</trkpt>
<trkpt lat="-27.274439" lon="151.290064">
  <ele>343.1</ele>
  <time>2026-09-01T19:50:43Z</time>
  <course>142.09</course>
  <speed>0.0</speed>
  <fix>3d</fix>
</trkpt>
<trkpt lat="-27.274439" lon="151.290064">
  <ele>343.1</ele>
  <time>2026-09-01T19:50:43Z</time>
  <course>7.09</course>
  <speed>0.0</speed>
  <fix>3d</fix>
</trkpt>
<trkpt lat="-27.274439" lon="151.290064">
  <ele>343.1</ele>
  <time>2026-09-01T19:50:43Z</time>
  <course>142.09</course>
  <speed>0.0</speed>
  <fix>3d</fix>
</trkpt>
<trkpt lat="-27.274439" lon="151.290064">
  <ele>343.1</ele>
  <time>2026-09-01T19:50:43Z</time>
  <course>7.09</course>
  <speed>0.0</speed>
  <fix>3d</fix>
</trkpt>
<trkpt lat="-27.274439" lon="151.290064">
  <ele>343.1</ele>
  <time>2026-09-01T19:50:43Z</time>
  <course>142.09</course>
  <speed>0.0</speed>
  <fix>3d</fix>
</trkpt>
<trkpt lat="-27.274439" lon="151.290064">
  <ele>343.1</ele>
  <time>2026-09-01T19:50:43Z</time>
  <course>7.09</course>
  <speed>0.0</speed>
  <fix>3d</fix>
</trkpt>
<trkpt lat="-27.274439" lon="151.290064">
  <ele>343.1</ele>
  <time>2026-09-01T19:50:43Z</time>
  <course>142.09</course>
  <speed>0.0</speed>
  <fix>3d</fix>
</trkpt>
<trkpt lat="-27.274439" lon="151.290064">
  <ele>343.1</ele>
  <time>2026-09-01T19:50:43Z</time>
  <course>7.09</course>
  <speed>0.0</speed>
  <fix>3d</fix>
</trkpt>
<trkpt lat="-27.274439" lon="151.290064">
  <ele>343.1</ele>
  <time>2026-09-01T19:50:43Z</time>
  <course>322.09</course>
  <speed>0.0</speed>
  <fix>3d</fix>
</trkpt>
<trkpt lat="-27.274439" lon="151.290064">
  <ele>343.1</ele>
  <time>2026-09-01T19:50:43Z</time>
  <course>7.09</course>
  <speed>0.0</speed>
  <fix>3d</fix>
</trkpt>
<trkpt lat="-27.274439" lon="151.290064">
  <ele>343.1</ele>
  <time>2026-09-01T19:50:43Z</time>
  <course>322.09</course>
  <speed>0.0</speed>
  <fix>3d</fix>
</trkpt>
<trkpt lat="-27.274439" lon="151.290064">
  <ele>343.1</ele>
  <time>2026-09-01T19:50:43Z</time>
  <course>7.09</course>
  <speed>0.0</speed>
  <fix>3d</fix>
</trkpt>
<trkpt lat="-27.274439" lon="151.290064">
  <ele>343.1</ele>
  <time>2026-09-01T19:50:43Z</time>
  <course>322.09</course>
  <speed>0.0</speed>
  <fix>3d</fix>
</trkpt>
<trkpt lat="-27.274439" lon="151.290064">
  <ele>343.1</ele>
  <time>2026-09-01T19:50:43Z</time>
  <course>7.09</course>
  <speed>0.0</speed>
  <fix>3d</fix>
</trkpt>
<trkpt lat="-27.274439" lon="151.290064">
  <ele>343.1</ele>
  <time>2026-09-01T19:50:43Z</time>
  <course>322.09</course>
  <speed>0.0</speed>
  <fix>3d</fix>
</trkpt>
<trkpt lat="-27.274439" lon="151.290064">
  <ele>343.1</ele>
  <time>2026-09-01T19:50:43Z</time>
  <course>7.09</course>
  <speed>0.0</speed>
  <fix>3d</fix>
</trkpt>
<trkpt lat="-27.274439" lon="151.290064">
  <ele>343.1</ele>
  <time>2026-09-01T19:50:43Z</time>
  <course>322.09</course>
  <speed>0.0</speed>
  <fix>3d</fix>
</trkpt>
<trkpt lat="-27.274439" lon="151.290064">
  <ele>343.1</ele>
  <time>2026-09-01T19:50:43Z</time>
  <course>7.09</course>
  <speed>0.0</speed>
  <fix>3d</fix>
</trkpt>
<trkpt lat="-27.274439" lon="151.290064">
  <ele>343.1</ele>
  <time>2026-09-01T19:50:43Z</time>
  <course>322.09</course>
  <speed>0.0</speed>
  <fix>3d</fix>
</trkpt>
<trkpt lat="-27.274439" lon="151.290064">
  <ele>343.1</ele>
  <time>2026-09-01T19:50:43Z</time>
  <course>7.09</course>
  <speed>0.0</speed>
  <fix>3d</fix>
</trkpt>
<trkpt lat="-27.274439" lon="151.290064">
  <ele>343.1</ele>
  <time>2026-09-01T19:50:43Z</time>
  <course>142.09</course>
  <speed>0.0</speed>
  <fix>3d</fix>
</trkpt>
<trkpt lat="-27.274439" lon="151.290064">
  <ele>343.1</ele>
  <time>2026-09-01T19:50:43Z</time>
  <course>7.09</course>
  <speed>0.0</speed>
  <fix>3d</fix>
</trkpt>
<trkpt lat="-27.274439" lon="151.290064">
  <ele>343.1</ele>
  <time>2026-09-01T19:50:43Z</time>
  <course>142.09</course>
  <speed>0.0</speed>
  <fix>3d</fix>
</trkpt>
<trkpt lat="-27.274439" lon="151.290064">
  <ele>343.1</ele>
  <time>2026-09-01T19:50:43Z</time>
  <course>7.09</course>
  <speed>0.0</speed>
  <fix>3d</fix>
</trkpt>
<trkpt lat="-27.274439" lon="151.290064">
  <ele>343.1</ele>
  <time>2026-09-01T19:50:43Z</time>
  <course>142.09</course>
  <speed>0.0</speed>
  <fix>3d</fix>
</trkpt>
<trkpt lat="-27.274439" lon="151.290064">
  <ele>343.1</ele>
  <time>2026-09-01T19:50:43Z</time>
  <course>7.09</course>
  <speed>0.0</speed>
  <fix>3d</fix>
</trkpt>
<trkpt lat="-27.274439" lon="151.290064">
  <ele>343.1</ele>
  <time>2026-09-01T19:50:43Z</time>
  <course>142.09</course>
  <speed>0.0</speed>
  <fix>3d</fix>
</trkpt>
<trkpt lat="-27.274439" lon="151.290064">
  <ele>343.1</ele>
  <time>2026-09-01T19:50:43Z</time>
  <course>7.09</course>
  <speed>0.0</speed>
  <fix>3d</fix>
</trkpt>
<trkpt lat="-27.274439" lon="151.290064">
  <ele>343.1</ele>
  <time>2026-09-01T19:50:43Z</time>
  <course>322.09</course>
  <speed>0.0</speed>
  <fix>3d</fix>
</trkpt>
<trkpt lat="-27.274439" lon="151.290064">
  <ele>343.1</ele>
  <time>2026-09-01T19:50:43Z</time>
  <course>7.09</course>
  <speed>0.0</speed>
  <fix>3d</fix>
</trkpt>
<trkpt lat="-27.274439" lon="151.290064">
  <ele>343.1</ele>
  <time>2026-09-01T19:50:43Z</time>
  <course>322.09</course>
  <speed>0.0</speed>
  <fix>3d</fix>
</trkpt>
<trkpt lat="-27.274439" lon="151.290064">
  <ele>343.1</ele>
  <time>2026-09-01T19:50:43Z</time>
  <course>7.09</course>
  <speed>0.0</speed>
  <fix>3d</fix>
</trkpt>
<trkpt lat="-27.274439" lon="151.290064">
  <ele>343.1</ele>
  <time>2026-09-01T19:50:43Z</time>
  <course>142.09</course>
  <speed>0.0</speed>
  <fix>3d</fix>
</trkpt>
<trkpt lat="-27.274439" lon="151.290064">
  <ele>343.1</ele>
  <time>2026-09-01T19:50:43Z</time>
  <course>7.09</course>
  <speed>0.0</speed>
  <fix>3d</fix>
</trkpt>
<trkpt lat="-27.274439" lon="151.290064">
  <ele>343.1</ele>
  <time>2026-09-01T19:50:43Z</time>
  <course>142.09</course>
  <speed>0.0</speed>
  <fix>3d</fix>
</trkpt>
<trkpt lat="-27.274439" lon="151.290064">
  <ele>343.1</ele>
  <time>2026-09-01T19:50:43Z</time>
  <course>7.09</course>
  <speed>0.0</speed>
  <fix>3d</fix>
</trkpt>
<trkpt lat="-27.274439" lon="151.290064">
  <ele>343.1</ele>
  <time>2026-09-01T19:50:43Z</time>
  <course>142.09</course>
  <speed>0.0</speed>
  <fix>3d</fix>
</trkpt>
<trkpt lat="-27.274439" lon="151.290064">
  <ele>343.1</ele>
  <time>2026-09-01T19:50:43Z</time>
  <course>7.09</course>
  <speed>0.0</speed>
  <fix>3d</fix>
</trkpt>
<trkpt lat="-27.274439" lon="151.290064">
  <ele>343.1</ele>
  <time>2026-09-01T19:50:43Z</time>
  <course>142.09</course>
  <speed>0.0</speed>
  <fix>3d</fix>
</trkpt>
<trkpt lat="-27.274439" lon="151.290064">
  <ele>343.1</ele>
  <time>2026-09-01T19:50:43Z</time>
  <course>7.09</course>
  <speed>0.0</speed>
  <fix>3d</fix>
</trkpt>
<trkpt lat="-27.274439" lon="151.290064">
  <ele>343.1</ele>
  <time>2026-09-01T19:50:43Z</time>
  <course>322.09</course>
  <speed>0.0</speed>
  <fix>3d</fix>
</trkpt>
<trkpt lat="-27.274439" lon="151.290064">
  <ele>343.1</ele>
  <time>2026-09-01T19:50:43Z</time>
  <course>7.09</course>
  <speed>0.0</speed>
  <fix>3d</fix>
</trkpt>
<trkpt lat="-27.274439" lon="151.290064">
  <ele>343.1</ele>
  <time>2026-09-01T19:50:43Z</time>
  <course>322.09</course>
  <speed>0.0</speed>
  <fix>3d</fix>
</trkpt>
<trkpt lat="-27.274439" lon="151.290064">
  <ele>343.1</ele>
  <time>2026-09-01T19:50:43Z</time>
  <course>7.09</course>
  <speed>0.0</speed>
  <fix>3d</fix>
</trkpt>
<trkpt lat="-27.274439" lon="151.290064">
  <ele>343.1</ele>
  <time>2026-09-01T19:50:43Z</time>
  <course>322.09</course>
  <speed>0.0</speed>
  <fix>3d</fix>
</trkpt>
<trkpt lat="-27.274439" lon="151.290064">
  <ele>343.1</ele>
  <time>2026-09-01T19:50:43Z</time>
  <course>7.09</course>
  <speed>0.0</speed>
  <fix>3d</fix>
</trkpt>
<trkpt lat="-27.274439" lon="151.290064">
  <ele>343.1</ele>
  <time>2026-09-01T19:50:43Z</time>
  <course>322.09</course>
  <speed>0.0</speed>
  <fix>3d</fix>
</trkpt>
<trkpt lat="-27.274439" lon="151.290064">
  <ele>343.1</ele>
  <time>2026-09-01T19:50:43Z</time>
  <course>7.09</course>
  <speed>0.0</speed>
  <fix>3d</fix>
</trkpt>
<trkpt lat="-27.274439" lon="151.290064">
  <ele>343.1</ele>
  <time>2026-09-01T19:50:43Z</time>
  <course>142.09</course>
  <speed>0.0</speed>
  <fix>3d</fix>
</trkpt>
<trkpt lat="-27.274439" lon="151.290064">
  <ele>343.1</ele>
  <time>2026-09-01T19:50:43Z</time>
  <course>7.09</course>
  <speed>0.0</speed>
  <fix>3d</fix>
</trkpt>
<trkpt lat="-27.274439" lon="151.290064">
  <ele>343.1</ele>
  <time>2026-09-01T19:50:43Z</time>
  <course>142.09</course>
  <speed>0.0</speed>
  <fix>3d</fix>
</trkpt>
<trkpt lat="-27.274439" lon="151.290064">
  <ele>343.1</ele>
  <time>2026-09-01T19:50:43Z</time>
  <course>7.09</course>
  <speed>0.0</speed>
  <fix>3d</fix>
</trkpt>
<trkpt lat="-27.274439" lon="151.290064">
  <ele>343.1</ele>
  <time>2026-09-01T19:50:43Z</time>
  <course>142.09</course>
  <speed>0.0</speed>
  <fix>3d</fix>
</trkpt>
<trkpt lat="-27.274439" lon="151.290064">
  <ele>343.1</ele>
  <time>2026-09-01T19:50:43Z</time>
  <course>7.09</course>
  <speed>0.0</speed>
  <fix>3d</fix>
</trkpt>
<trkpt lat="-27.274439" lon="151.290064">
  <ele>343.1</ele>
  <time>2026-09-01T19:50:43Z</time>
  <course>142.09</course>
  <speed>0.0</speed>
  <fix>3d</fix>
</trkpt>
<trkpt lat="-27.274439" lon="151.290064">
  <ele>343.1</ele>
  <time>2026-09-01T19:50:43Z</time>
  <course>7.09</course>
  <speed>0.0</speed>
  <fix>3d</fix>
</trkpt>
<trkpt lat="-27.274439" lon="151.290064">
  <ele>343.1</ele>
  <time>2026-09-01T19:50:43Z</time>
  <course>322.09</course>
  <speed>0.0</speed>
  <fix>3d</fix>
</trkpt>
<trkpt lat="-27.274439" lon="151.290064">
  <ele>343.1</ele>
  <time>2026-09-01T19:50:43Z</time>
  <course>7.09</course>
  <speed>0.0</speed>
  <fix>3d</fix>
</trkpt>
<trkpt lat="-27.274439" lon="151.290064">
  <ele>343.1</ele>
  <time>2026-09-01T19:50:43Z</time>
  <course>322.09</course>
  <speed>0.0</speed>
  <fix>3d</fix>
</trkpt>
<trkpt lat="-27.274439" lon="151.290064">
  <ele>343.1</ele>
  <time>2026-09-01T19:50:43Z</time>
  <course>7.09</course>
  <speed>0.0</speed>
  <fix>3d</fix>
</trkpt>
<trkpt lat="-27.274439" lon="151.290064">
  <ele>343.1</ele>
  <time>2026-09-01T19:50:43Z</time>
  <course>322.07</course>
  <speed>0.0</speed>
  <fix>3d</fix>
</trkpt>
<trkpt lat="-27.274439" lon="151.290064">
  <ele>343.1</ele>
  <time>2026-09-01T19:50:43Z</time>
  <course>7.09</course>
  <speed>0.0</speed>
  <fix>3d</fix>
</trkpt>
<trkpt lat="-27.274439" lon="151.290064">
  <ele>343.1</ele>
  <time>2026-09-01T19:50:43Z</time>
  <course>322.07</course>
  <speed>0.0</speed>
  <fix>3d</fix>
</trkpt>
<trkpt lat="-27.274439" lon="151.290064">
  <ele>343.1</ele>
  <time>2026-09-01T19:50:43Z</time>
  <course>7.09</course>
  <speed>0.0</speed>
  <fix>3d</fix>
</trkpt>
<trkpt lat="-27.274439" lon="151.290064">
  <ele>343.1</ele>
  <time>2026-09-01T19:50:43Z</time>
  <course>142.09</course>
  <speed>0.0</speed>
  <fix>3d</fix>
</trkpt>
<trkpt lat="-27.274439" lon="151.290064">
  <ele>343.1</ele>
  <time>2026-09-01T19:50:43Z</time>
  <course>7.09</course>
  <speed>0.0</speed>
  <fix>3d</fix>
</trkpt>
<trkpt lat="-27.274439" lon="151.290064">
  <ele>343.1</ele>
  <time>2026-09-01T19:50:43Z</time>
  <course>142.09</course>
  <speed>0.0</speed>
  <fix>3d</fix>
</trkpt>
<trkpt lat="-27.274439" lon="151.290064">
  <ele>343.1</ele>
  <time>2026-09-01T19:50:43Z</time>
  <course>7.09</course>
  <speed>0.0</speed>
  <fix>3d</fix>
</trkpt>
<trkpt lat="-27.274439" lon="151.290064">
  <ele>343.1</ele>
  <time>2026-09-01T19:50:43Z</time>
  <course>321.63</course>
  <speed>0.0</speed>
  <fix>3d</fix>
</trkpt>
<trkpt lat="-27.274439" lon="151.290064">
  <ele>343.1</ele>
  <time>2026-09-01T19:50:43Z</time>
  <course>7.09</course>
  <speed>0.0</speed>
  <fix>3d</fix>
</trkpt>
<trkpt lat="-27.274439" lon="151.290064">
  <ele>343.1</ele>
  <time>2026-09-01T19:50:43Z</time>
  <course>321.63</course>
  <speed>0.0</speed>
  <fix>3d</fix>
</trkpt>
<trkpt lat="-27.274439" lon="151.290064">
  <ele>343.1</ele>
  <time>2026-09-01T19:50:43Z</time>
  <course>7.09</course>
  <speed>0.0</speed>
  <fix>3d</fix>
</trkpt>
<trkpt lat="-27.274439" lon="151.290064">
  <ele>343.1</ele>
  <time>2026-09-01T19:50:43Z</time>
  <course>321.94</course>
  <speed>0.0</speed>
  <fix>3d</fix>
</trkpt>
<trkpt lat="-27.274439" lon="151.290064">
  <ele>343.1</ele>
  <time>2026-09-01T19:50:43Z</time>
  <course>7.09</course>
  <speed>0.0</speed>
  <fix>3d</fix>
</trkpt>
<trkpt lat="-27.274439" lon="151.290064">
  <ele>343.1</ele>
  <time>2026-09-01T19:50:43Z</time>
  <course>321.94</course>
  <speed>0.0</speed>
  <fix>3d</fix>
</trkpt>
<trkpt lat="-27.274439" lon="151.290064">
  <ele>343.1</ele>
  <time>2026-09-01T19:50:43Z</time>
  <course>7.09</course>
  <speed>0.0</speed>
  <fix>3d</fix>
</trkpt>
<trkpt lat="-27.274439" lon="151.290064">
  <ele>343.1</ele>
  <time>2026-09-01T19:50:43Z</time>
  <course>147.07</course>
  <speed>0.0</speed>
  <fix>3d</fix>
</trkpt>
<trkpt lat="-27.274439" lon="151.290064">
  <ele>343.1</ele>
  <time>2026-09-01T19:50:43Z</time>
  <course>7.09</course>
  <speed>0.0</speed>
  <fix>3d</fix>
</trkpt>
<trkpt lat="-27.274439" lon="151.290064">
  <ele>343.1</ele>
  <time>2026-09-01T19:50:43Z</time>
  <course>147.07</course>
  <speed>0.0</speed>
  <fix>3d</fix>
</trkpt>
<trkpt lat="-27.274439" lon="151.290064">
  <ele>343.1</ele>
  <time>2026-09-01T19:50:43Z</time>
  <course>7.09</course>
  <speed>0.0</speed>
  <fix>3d</fix>
</trkpt>
<trkpt lat="-27.274439" lon="151.290064">
  <ele>343.1</ele>
  <time>2026-09-01T19:50:43Z</time>
  <course>151.08</course>
  <speed>0.0</speed>
  <fix>3d</fix>
</trkpt>
<trkpt lat="-27.274439" lon="151.290064">
  <ele>343.1</ele>
  <time>2026-09-01T19:50:43Z</time>
  <course>7.09</course>
  <speed>0.0</speed>
  <fix>3d</fix>
</trkpt>
<trkpt lat="-27.274439" lon="151.290064">
  <ele>343.1</ele>
  <time>2026-09-01T19:50:43Z</time>
  <course>151.08</course>
  <speed>0.0</speed>
  <fix>3d</fix>
</trkpt>
<trkpt lat="-27.274439" lon="151.290064">
  <ele>343.1</ele>
  <time>2026-09-01T19:50:43Z</time>
  <course>7.09</course>
  <speed>0.0</speed>
  <fix>3d</fix>
</trkpt>
<trkpt lat="-27.274439" lon="151.290064">
  <ele>343.1</ele>
  <time>2026-09-01T19:50:43Z</time>
  <course>320.58</course>
  <speed>0.0</speed>
  <fix>3d</fix>
</trkpt>
<trkpt lat="-27.274439" lon="151.290064">
  <ele>343.1</ele>
  <time>2026-09-01T19:50:43Z</time>
  <course>7.09</course>
  <speed>0.0</speed>
  <fix>3d</fix>
</trkpt>
<trkpt lat="-27.274439" lon="151.290064">
  <ele>343.1</ele>
  <time>2026-09-01T19:50:43Z</time>
  <course>320.58</course>
  <speed>0.0</speed>
  <fix>3d</fix>
</trkpt>
<trkpt lat="-27.274439" lon="151.290064">
  <ele>343.1</ele>
  <time>2026-09-01T19:50:43Z</time>
  <course>7.09</course>
  <speed>0.0</speed>
  <fix>3d</fix>
</trkpt>
<trkpt lat="-27.274439" lon="151.290064">
  <ele>343.1</ele>
  <time>2026-09-01T19:50:43Z</time>
  <course>350.96</course>
  <speed>0.0</speed>
  <fix>3d</fix>
</trkpt>
<trkpt lat="-27.274439" lon="151.290064">
  <ele>343.1</ele>
  <time>2026-09-01T19:50:43Z</time>
  <course>7.09</course>
  <speed>0.0</speed>
  <fix>3d</fix>
</trkpt>
<trkpt lat="-27.274439" lon="151.290064">
  <ele>343.1</ele>
  <time>2026-09-01T19:50:43Z</time>
  <course>350.96</course>
  <speed>0.0</speed>
  <fix>3d</fix>
</trkpt>
<trkpt lat="-27.274439" lon="151.290064">
  <ele>343.1</ele>
  <time>2026-09-01T19:50:43Z</time>
  <course>7.09</course>
  <speed>0.0</speed>
  <fix>3d</fix>
</trkpt>
<trkpt lat="-27.274439" lon="151.290064">
  <ele>343.1</ele>
  <time>2026-09-01T19:50:43Z</time>
  <course>4.84</course>
  <speed>0.0</speed>
  <fix>3d</fix>
</trkpt>
<trkpt lat="-27.274439" lon="151.290064">
  <ele>343.1</ele>
  <time>2026-09-01T19:50:43Z</time>
  <course>7.09</course>
  <speed>0.0</speed>
  <fix>3d</fix>
</trkpt>
<trkpt lat="-27.274439" lon="151.290064">
  <ele>343.1</ele>
  <time>2026-09-01T19:50:43Z</time>
  <course>4.84</course>
  <speed>0.0</speed>
  <fix>3d</fix>
</trkpt>
<trkpt lat="-27.274439" lon="151.290064">
  <ele>343.1</ele>
  <time>2026-09-01T19:50:43Z</time>
  <course>7.09</course>
  <speed>0.0</speed>
  <fix>3d</fix>
</trkpt>
<trkpt lat="-27.274439" lon="151.290064">
  <ele>343.1</ele>
  <time>2026-09-01T19:50:43Z</time>
  <course>6.82</course>
  <speed>0.0</speed>
  <fix>3d</fix>
</trkpt>
<trkpt lat="-27.274439" lon="151.290064">
  <ele>343.1</ele>
  <time>2026-09-01T19:50:43Z</time>
  <course>7.09</course>
  <speed>0.0</speed>
  <fix>3d</fix>
</trkpt>
<trkpt lat="-27.274439" lon="151.290064">
  <ele>343.1</ele>
  <time>2026-09-01T19:50:43Z</time>
  <course>6.82</course>
  <speed>0.0</speed>
  <fix>3d</fix>
</trkpt>
<trkpt lat="-27.274439" lon="151.290064">
  <ele>343.1</ele>
  <time>2026-09-01T19:50:43Z</time>
  <course>7.09</course>
  <speed>0.0</speed>
  <fix>3d</fix>
</trkpt>
<trkpt lat="-27.274439" lon="151.290064">
  <ele>343.1</ele>
  <time>2026-09-01T19:50:43Z</time>
  <course>7.08</course>
  <speed>0.0</speed>
  <fix>3d</fix>
</trkpt>
<trkpt lat="-27.274439" lon="151.290064">
  <ele>343.1</ele>
  <time>2026-09-01T19:50:43Z</time>
  <course>7.09</course>
  <speed>0.0</speed>
  <fix>3d</fix>
</trkpt>
<trkpt lat="-27.274439" lon="151.290064">
  <ele>343.1</ele>
  <time>2026-09-01T19:50:43Z</time>
  <course>7.08</course>
  <speed>0.0</speed>
  <fix>3d</fix>
</trkpt>
<trkpt lat="-27.274439" lon="151.290064">
  <ele>343.1</ele>
  <time>2026-09-01T19:50:43Z</time>
  <course>7.09</course>
  <speed>0.0</speed>
  <fix>3d</fix>
</trkpt>
<trkpt lat="-27.274439" lon="151.290064">
  <ele>343.1</ele>
  <time>2026-09-01T19:50:43Z</time>
  <course>322.09</course>
  <speed>0.0</speed>
  <fix>3d</fix>
</trkpt>
<trkpt lat="-27.274439" lon="151.290064">
  <ele>343.1</ele>
  <time>2026-09-01T19:50:43Z</time>
  <course>7.09</course>
  <speed>0.0</speed>
  <fix>3d</fix>
</trkpt>
<trkpt lat="-27.274439" lon="151.290064">
  <ele>343.1</ele>
  <time>2026-09-01T19:50:43Z</time>
  <course>322.09</course>
  <speed>0.0</speed>
  <fix>3d</fix>
</trkpt>
<trkpt lat="-27.274439" lon="151.290064">
  <ele>343.1</ele>
  <time>2026-09-01T19:50:43Z</time>
  <course>7.09</course>
  <speed>0.0</speed>
  <fix>3d</fix>
</trkpt>
<trkpt lat="-27.274439" lon="151.290064">
  <ele>343.1</ele>
  <time>2026-09-01T19:50:43Z</time>
  <course>322.09</course>
  <speed>0.0</speed>
  <fix>3d</fix>
</trkpt>
<trkpt lat="-27.274439" lon="151.290064">
  <ele>343.1</ele>
  <time>2026-09-01T19:50:43Z</time>
  <course>7.09</course>
  <speed>0.0</speed>
  <fix>3d</fix>
</trkpt>
<trkpt lat="-27.274439" lon="151.290064">
  <ele>343.1</ele>
  <time>2026-09-01T19:50:43Z</time>
  <course>322.09</course>
  <speed>0.0</speed>
  <fix>3d</fix>
</trkpt>
<trkpt lat="-27.274439" lon="151.290064">
  <ele>343.1</ele>
  <time>2026-09-01T19:50:43Z</time>
  <course>7.09</course>
  <speed>0.0</speed>
  <fix>3d</fix>
</trkpt>
<trkpt lat="-27.274439" lon="151.290064">
  <ele>343.1</ele>
  <time>2026-09-01T19:50:43Z</time>
  <course>322.09</course>
  <speed>0.0</speed>
  <fix>3d</fix>
</trkpt>
<trkpt lat="-27.274439" lon="151.290064">
  <ele>343.1</ele>
  <time>2026-09-01T19:50:43Z</time>
  <course>7.09</course>
  <speed>0.0</speed>
  <fix>3d</fix>
</trkpt>
<trkpt lat="-27.274439" lon="151.290064">
  <ele>343.1</ele>
  <time>2026-09-01T19:50:43Z</time>
  <course>322.09</course>
  <speed>0.0</speed>
  <fix>3d</fix>
</trkpt>
<trkpt lat="-27.274439" lon="151.290064">
  <ele>343.1</ele>
  <time>2026-09-01T19:50:43Z</time>
  <course>7.09</course>
  <speed>0.0</speed>
  <fix>3d</fix>
</trkpt>
<trkpt lat="-27.274439" lon="151.290064">
  <ele>343.1</ele>
  <time>2026-09-01T19:50:43Z</time>
  <course>142.09</course>
  <speed>0.0</speed>
  <fix>3d</fix>
</trkpt>
<trkpt lat="-27.274439" lon="151.290064">
  <ele>343.1</ele>
  <time>2026-09-01T19:50:43Z</time>
  <course>7.09</course>
  <speed>0.0</speed>
  <fix>3d</fix>
</trkpt>
<trkpt lat="-27.274439" lon="151.290064">
  <ele>343.1</ele>
  <time>2026-09-01T19:50:43Z</time>
  <course>142.09</course>
  <speed>0.0</speed>
  <fix>3d</fix>
</trkpt>
<trkpt lat="-27.274439" lon="151.290064">
  <ele>343.1</ele>
  <time>2026-09-01T19:50:43Z</time>
  <course>7.09</course>
  <speed>0.0</speed>
  <fix>3d</fix>
</trkpt>
<trkpt lat="-27.274439" lon="151.290064">
  <ele>343.1</ele>
  <time>2026-09-01T19:50:43Z</time>
  <course>142.09</course>
  <speed>0.0</speed>
  <fix>3d</fix>
</trkpt>
<trkpt lat="-27.274439" lon="151.290064">
  <ele>343.1</ele>
  <time>2026-09-01T19:50:43Z</time>
  <course>7.09</course>
  <speed>0.0</speed>
  <fix>3d</fix>
</trkpt>
<trkpt lat="-27.274439" lon="151.290064">
  <ele>343.1</ele>
  <time>2026-09-01T19:50:43Z</time>
  <course>142.09</course>
  <speed>0.0</speed>
  <fix>3d</fix>
</trkpt>
<trkpt lat="-27.274439" lon="151.290064">
  <ele>343.1</ele>
  <time>2026-09-01T19:50:43Z</time>
  <course>7.09</course>
  <speed>0.0</speed>
  <fix>3d</fix>
</trkpt>
<trkpt lat="-27.274439" lon="151.290064">
  <ele>343.1</ele>
  <time>2026-09-01T19:50:43Z</time>
  <course>129.3</course>
  <speed>0.0</speed>
  <fix>3d</fix>
</trkpt>
<trkpt lat="-27.274439" lon="151.290064">
  <ele>343.1</ele>
  <time>2026-09-01T19:50:43Z</time>
  <course>7.09</course>
  <speed>0.0</speed>
  <fix>3d</fix>
</trkpt>
<trkpt lat="-27.274439" lon="151.290064">
  <ele>343.1</ele>
  <time>2026-09-01T19:50:43Z</time>
  <course>129.3</course>
  <speed>0.0</speed>
  <fix>3d</fix>
</trkpt>
<trkpt lat="-27.274439" lon="151.290064">
  <ele>343.1</ele>
  <time>2026-09-01T19:50:43Z</time>
  <course>7.09</course>
  <speed>0.0</speed>
  <fix>3d</fix>
</trkpt>
<trkpt lat="-27.274439" lon="151.290064">
  <ele>343.1</ele>
  <time>2026-09-01T19:50:43Z</time>
  <course>287.66</course>
  <speed>0.0</speed>
  <fix>3d</fix>
</trkpt>
<trkpt lat="-27.274439" lon="151.290064">
  <ele>343.1</ele>
  <time>2026-09-01T19:50:43Z</time>
  <course>7.09</course>
  <speed>0.0</speed>
  <fix>3d</fix>
</trkpt>
<trkpt lat="-27.274439" lon="151.290064">
  <ele>343.1</ele>
  <time>2026-09-01T19:50:43Z</time>
  <course>287.66</course>
  <speed>0.0</speed>
  <fix>3d</fix>
</trkpt>
<trkpt lat="-27.274439" lon="151.290064">
  <ele>343.1</ele>
  <time>2026-09-01T19:50:43Z</time>
  <course>7.09</course>
  <speed>0.0</speed>
  <fix>3d</fix>
</trkpt>
<trkpt lat="-27.274439" lon="151.290064">
  <ele>343.1</ele>
  <time>2026-09-01T19:50:43Z</time>
  <course>204.39</course>
  <speed>0.0</speed>
  <fix>3d</fix>
</trkpt>
<trkpt lat="-27.274439" lon="151.290064">
  <ele>343.1</ele>
  <time>2026-09-01T19:50:43Z</time>
  <course>7.09</course>
  <speed>0.0</speed>
  <fix>3d</fix>
</trkpt>
<trkpt lat="-27.274439" lon="151.290064">
  <ele>343.1</ele>
  <time>2026-09-01T19:50:43Z</time>
  <course>204.39</course>
  <speed>0.0</speed>
  <fix>3d</fix>
</trkpt>
<trkpt lat="-27.274439" lon="151.290064">
  <ele>343.1</ele>
  <time>2026-09-01T19:50:43Z</time>
  <course>7.09</course>
  <speed>0.0</speed>
  <fix>3d</fix>
</trkpt>
<trkpt lat="-27.274439" lon="151.290064">
  <ele>343.1</ele>
  <time>2026-09-01T19:50:43Z</time>
  <course>308.11</course>
  <speed>0.0</speed>
  <fix>3d</fix>
</trkpt>
<trkpt lat="-27.274439" lon="151.290064">
  <ele>343.1</ele>
  <time>2026-09-01T19:50:43Z</time>
  <course>7.09</course>
  <speed>0.0</speed>
  <fix>3d</fix>
</trkpt>
<trkpt lat="-27.274439" lon="151.290064">
  <ele>343.1</ele>
  <time>2026-09-01T19:50:43Z</time>
  <course>308.11</course>
  <speed>0.0</speed>
  <fix>3d</fix>
</trkpt>
<trkpt lat="-27.274439" lon="151.290064">
  <ele>343.1</ele>
  <time>2026-09-01T19:50:43Z</time>
  <course>7.09</course>
  <speed>0.0</speed>
  <fix>3d</fix>
</trkpt>
<trkpt lat="-27.274439" lon="151.290064">
  <ele>343.1</ele>
  <time>2026-09-01T19:50:43Z</time>
  <course>325.0</course>
  <speed>0.0</speed>
  <fix>3d</fix>
</trkpt>
<trkpt lat="-27.274439" lon="151.290064">
  <ele>343.1</ele>
  <time>2026-09-01T19:50:43Z</time>
  <course>7.09</course>
  <speed>0.0</speed>
  <fix>3d</fix>
</trkpt>
<trkpt lat="-27.274439" lon="151.290064">
  <ele>343.1</ele>
  <time>2026-09-01T19:50:43Z</time>
  <course>325.0</course>
  <speed>0.0</speed>
  <fix>3d</fix>
</trkpt>
<trkpt lat="-27.274439" lon="151.290064">
  <ele>343.1</ele>
  <time>2026-09-01T19:50:43Z</time>
  <course>7.09</course>
  <speed>0.0</speed>
  <fix>3d</fix>
</trkpt>
<trkpt lat="-27.274439" lon="151.290064">
  <ele>343.1</ele>
  <time>2026-09-01T19:50:43Z</time>
  <course>324.05</course>
  <speed>0.0</speed>
  <fix>3d</fix>
</trkpt>
<trkpt lat="-27.274439" lon="151.290064">
  <ele>343.1</ele>
  <time>2026-09-01T19:50:43Z</time>
  <course>7.09</course>
  <speed>0.0</speed>
  <fix>3d</fix>
</trkpt>
<trkpt lat="-27.274439" lon="151.290064">
  <ele>343.1</ele>
  <time>2026-09-01T19:50:43Z</time>
  <course>324.05</course>
  <speed>0.0</speed>
  <fix>3d</fix>
</trkpt>
<trkpt lat="-27.274439" lon="151.290064">
  <ele>343.1</ele>
  <time>2026-09-01T19:50:43Z</time>
  <course>7.09</course>
  <speed>0.0</speed>
  <fix>3d</fix>
</trkpt>
<trkpt lat="-27.274439" lon="151.290064">
  <ele>343.1</ele>
  <time>2026-09-01T19:50:43Z</time>
  <course>144.83</course>
  <speed>0.0</speed>
  <fix>3d</fix>
</trkpt>
<trkpt lat="-27.274439" lon="151.290064">
  <ele>343.1</ele>
  <time>2026-09-01T19:50:43Z</time>
  <course>7.09</course>
  <speed>0.0</speed>
  <fix>3d</fix>
</trkpt>
<trkpt lat="-27.274439" lon="151.290064">
  <ele>343.1</ele>
  <time>2026-09-01T19:50:43Z</time>
  <course>144.83</course>
  <speed>0.0</speed>
  <fix>3d</fix>
</trkpt>
<trkpt lat="-27.274439" lon="151.290064">
  <ele>343.1</ele>
  <time>2026-09-01T19:50:43Z</time>
  <course>7.09</course>
  <speed>0.0</speed>
  <fix>3d</fix>
</trkpt>
<trkpt lat="-27.274439" lon="151.290064">
  <ele>343.1</ele>
  <time>2026-09-01T19:50:43Z</time>
  <course>142.91</course>
  <speed>0.0</speed>
  <fix>3d</fix>
</trkpt>
<trkpt lat="-27.274439" lon="151.290064">
  <ele>343.1</ele>
  <time>2026-09-01T19:50:43Z</time>
  <course>7.09</course>
  <speed>0.0</speed>
  <fix>3d</fix>
</trkpt>
<trkpt lat="-27.274439" lon="151.290064">
  <ele>343.1</ele>
  <time>2026-09-01T19:50:43Z</time>
  <course>142.91</course>
  <speed>0.0</speed>
  <fix>3d</fix>
</trkpt>
<trkpt lat="-27.274439" lon="151.290064">
  <ele>343.1</ele>
  <time>2026-09-01T19:50:43Z</time>
  <course>7.09</course>
  <speed>0.0</speed>
  <fix>3d</fix>
</trkpt>
<trkpt lat="-27.274439" lon="151.290064">
  <ele>343.1</ele>
  <time>2026-09-01T19:50:43Z</time>
  <course>324.7</course>
  <speed>0.0</speed>
  <fix>3d</fix>
</trkpt>
<trkpt lat="-27.274439" lon="151.290064">
  <ele>343.1</ele>
  <time>2026-09-01T19:50:43Z</time>
  <course>7.09</course>
  <speed>0.0</speed>
  <fix>3d</fix>
</trkpt>
<trkpt lat="-27.274439" lon="151.290064">
  <ele>343.1</ele>
  <time>2026-09-01T19:50:43Z</time>
  <course>324.7</course>
  <speed>0.0</speed>
  <fix>3d</fix>
</trkpt>
<trkpt lat="-27.274439" lon="151.290064">
  <ele>343.1</ele>
  <time>2026-09-01T19:50:43Z</time>
  <course>7.09</course>
  <speed>0.0</speed>
  <fix>3d</fix>
</trkpt>
<trkpt lat="-27.274439" lon="151.290064">
  <ele>343.1</ele>
  <time>2026-09-01T19:50:43Z</time>
  <course>147.75</course>
  <speed>0.0</speed>
  <fix>3d</fix>
</trkpt>
<trkpt lat="-27.274439" lon="151.290064">
  <ele>343.1</ele>
  <time>2026-09-01T19:50:43Z</time>
  <course>7.09</course>
  <speed>0.0</speed>
  <fix>3d</fix>
</trkpt>
<trkpt lat="-27.274439" lon="151.290064">
  <ele>343.1</ele>
  <time>2026-09-01T19:50:43Z</time>
  <course>147.75</course>
  <speed>0.0</speed>
  <fix>3d</fix>
</trkpt>
<trkpt lat="-27.274439" lon="151.290064">
  <ele>343.1</ele>
  <time>2026-09-01T19:50:43Z</time>
  <course>7.09</course>
  <speed>0.0</speed>
  <fix>3d</fix>
</trkpt>
<trkpt lat="-27.274439" lon="151.290064">
  <ele>343.1</ele>
  <time>2026-09-01T19:50:43Z</time>
  <course>144.57</course>
  <speed>0.0</speed>
  <fix>3d</fix>
</trkpt>
<trkpt lat="-27.274439" lon="151.290064">
  <ele>343.1</ele>
  <time>2026-09-01T19:50:43Z</time>
  <course>7.09</course>
  <speed>0.0</speed>
  <fix>3d</fix>
</trkpt>
<trkpt lat="-27.274439" lon="151.290064">
  <ele>343.1</ele>
  <time>2026-09-01T19:50:43Z</time>
  <course>144.57</course>
  <speed>0.0</speed>
  <fix>3d</fix>
</trkpt>
<trkpt lat="-27.274439" lon="151.290064">
  <ele>343.1</ele>
  <time>2026-09-01T19:50:43Z</time>
  <course>7.09</course>
  <speed>0.0</speed>
  <fix>3d</fix>
</trkpt>
<trkpt lat="-27.274439" lon="151.290064">
  <ele>343.1</ele>
  <time>2026-09-01T19:50:43Z</time>
  <course>325.47</course>
  <speed>0.0</speed>
  <fix>3d</fix>
</trkpt>
<trkpt lat="-27.274439" lon="151.290064">
  <ele>343.1</ele>
  <time>2026-09-01T19:50:43Z</time>
  <course>7.09</course>
  <speed>0.0</speed>
  <fix>3d</fix>
</trkpt>
<trkpt lat="-27.274439" lon="151.290064">
  <ele>343.1</ele>
  <time>2026-09-01T19:50:43Z</time>
  <course>325.47</course>
  <speed>0.0</speed>
  <fix>3d</fix>
</trkpt>
<trkpt lat="-27.274439" lon="151.290064">
  <ele>343.1</ele>
  <time>2026-09-01T19:50:43Z</time>
  <course>7.09</course>
  <speed>0.0</speed>
  <fix>3d</fix>
</trkpt>
<trkpt lat="-27.274439" lon="151.290064">
  <ele>343.1</ele>
  <time>2026-09-01T19:50:43Z</time>
  <course>324.42</course>
  <speed>0.0</speed>
  <fix>3d</fix>
</trkpt>
<trkpt lat="-27.274439" lon="151.290064">
  <ele>343.1</ele>
  <time>2026-09-01T19:50:43Z</time>
  <course>7.09</course>
  <speed>0.0</speed>
  <fix>3d</fix>
</trkpt>
<trkpt lat="-27.274439" lon="151.290064">
  <ele>343.1</ele>
  <time>2026-09-01T19:50:43Z</time>
  <course>324.42</course>
  <speed>0.0</speed>
  <fix>3d</fix>
</trkpt>
<trkpt lat="-27.274439" lon="151.290064">
  <ele>343.1</ele>
  <time>2026-09-01T19:50:43Z</time>
  <course>7.09</course>
  <speed>0.0</speed>
  <fix>3d</fix>
</trkpt>
<trkpt lat="-27.274439" lon="151.290064">
  <ele>343.1</ele>
  <time>2026-09-01T19:50:43Z</time>
  <course>145.07</course>
  <speed>0.0</speed>
  <fix>3d</fix>
</trkpt>
<trkpt lat="-27.274439" lon="151.290064">
  <ele>343.1</ele>
  <time>2026-09-01T19:50:43Z</time>
  <course>7.09</course>
  <speed>0.0</speed>
  <fix>3d</fix>
</trkpt>
<trkpt lat="-27.274439" lon="151.290064">
  <ele>343.1</ele>
  <time>2026-09-01T19:50:43Z</time>
  <course>145.07</course>
  <speed>0.0</speed>
  <fix>3d</fix>
</trkpt>
<trkpt lat="-27.274439" lon="151.290064">
  <ele>343.1</ele>
  <time>2026-09-01T19:50:43Z</time>
  <course>7.09</course>
  <speed>0.0</speed>
  <fix>3d</fix>
</trkpt>
<trkpt lat="-27.274439" lon="151.290064">
  <ele>343.1</ele>
  <time>2026-09-01T19:50:43Z</time>
  <course>144.17</course>
  <speed>0.0</speed>
  <fix>3d</fix>
</trkpt>
<trkpt lat="-27.274439" lon="151.290064">
  <ele>343.1</ele>
  <time>2026-09-01T19:50:43Z</time>
  <course>7.09</course>
  <speed>0.0</speed>
  <fix>3d</fix>
</trkpt>
<trkpt lat="-27.274439" lon="151.290064">
  <ele>343.1</ele>
  <time>2026-09-01T19:50:43Z</time>
  <course>144.17</course>
  <speed>0.0</speed>
  <fix>3d</fix>
</trkpt>
<trkpt lat="-27.274439" lon="151.290064">
  <ele>343.1</ele>
  <time>2026-09-01T19:50:43Z</time>
  <course>7.09</course>
  <speed>0.0</speed>
  <fix>3d</fix>
</trkpt>
<trkpt lat="-27.274439" lon="151.290064">
  <ele>343.1</ele>
  <time>2026-09-01T19:50:43Z</time>
  <course>142.09</course>
  <speed>0.0</speed>
  <fix>3d</fix>
</trkpt>
<trkpt lat="-27.274439" lon="151.290064">
  <ele>343.1</ele>
  <time>2026-09-01T19:50:43Z</time>
  <course>7.09</course>
  <speed>0.0</speed>
  <fix>3d</fix>
</trkpt>
<trkpt lat="-27.274439" lon="151.290064">
  <ele>343.1</ele>
  <time>2026-09-01T19:50:43Z</time>
  <course>142.09</course>
  <speed>0.0</speed>
  <fix>3d</fix>
</trkpt>
<trkpt lat="-27.274439" lon="151.290064">
  <ele>343.1</ele>
  <time>2026-09-01T19:50:43Z</time>
  <course>7.09</course>
  <speed>0.0</speed>
  <fix>3d</fix>
</trkpt>
<trkpt lat="-27.274439" lon="151.290064">
  <ele>343.1</ele>
  <time>2026-09-01T19:50:43Z</time>
  <course>142.09</course>
  <speed>0.0</speed>
  <fix>3d</fix>
</trkpt>
<trkpt lat="-27.274439" lon="151.290064">
  <ele>343.1</ele>
  <time>2026-09-01T19:50:43Z</time>
  <course>7.09</course>
  <speed>0.0</speed>
  <fix>3d</fix>
</trkpt>
<trkpt lat="-27.274439" lon="151.290064">
  <ele>343.1</ele>
  <time>2026-09-01T19:50:43Z</time>
  <course>142.09</course>
  <speed>0.0</speed>
  <fix>3d</fix>
</trkpt>
<trkpt lat="-27.274439" lon="151.290064">
  <ele>343.1</ele>
  <time>2026-09-01T19:50:43Z</time>
  <course>7.09</course>
  <speed>0.0</speed>
  <fix>3d</fix>
</trkpt>
<trkpt lat="-27.274439" lon="151.290064">
  <ele>343.1</ele>
  <time>2026-09-01T19:50:43Z</time>
  <course>142.09</course>
  <speed>0.0</speed>
  <fix>3d</fix>
</trkpt>
<trkpt lat="-27.274439" lon="151.290064">
  <ele>343.1</ele>
  <time>2026-09-01T19:50:43Z</time>
  <course>7.09</course>
  <speed>0.0</speed>
  <fix>3d</fix>
</trkpt>
<trkpt lat="-27.274439" lon="151.290064">
  <ele>343.1</ele>
  <time>2026-09-01T19:50:43Z</time>
  <course>142.09</course>
  <speed>0.0</speed>
  <fix>3d</fix>
</trkpt>
<trkpt lat="-27.274439" lon="151.290064">
  <ele>343.1</ele>
  <time>2026-09-01T19:50:43Z</time>
  <course>7.09</course>
  <speed>0.0</speed>
  <fix>3d</fix>
</trkpt>
<trkpt lat="-27.274439" lon="151.290064">
  <ele>343.1</ele>
  <time>2026-09-01T19:50:43Z</time>
  <course>142.09</course>
  <speed>0.0</speed>
  <fix>3d</fix>
</trkpt>
<trkpt lat="-27.274439" lon="151.290064">
  <ele>343.1</ele>
  <time>2026-09-01T19:50:43Z</time>
  <course>7.09</course>
  <speed>0.0</speed>
  <fix>3d</fix>
</trkpt>
<trkpt lat="-27.274439" lon="151.290064">
  <ele>343.1</ele>
  <time>2026-09-01T19:50:43Z</time>
  <course>142.09</course>
  <speed>0.0</speed>
  <fix>3d</fix>
</trkpt>
<trkpt lat="-27.274439" lon="151.290064">
  <ele>343.1</ele>
  <time>2026-09-01T19:50:43Z</time>
  <course>7.09</course>
  <speed>0.0</speed>
  <fix>3d</fix>
</trkpt>
<trkpt lat="-27.274439" lon="151.290064">
  <ele>343.1</ele>
  <time>2026-09-01T19:50:43Z</time>
  <course>142.09</course>
  <speed>0.0</speed>
  <fix>3d</fix>
</trkpt>
<trkpt lat="-27.274439" lon="151.290064">
  <ele>343.1</ele>
  <time>2026-09-01T19:50:43Z</time>
  <course>7.09</course>
  <speed>0.0</speed>
  <fix>3d</fix>
</trkpt>
<trkpt lat="-27.274439" lon="151.290064">
  <ele>343.1</ele>
  <time>2026-09-01T19:50:43Z</time>
  <course>142.09</course>
  <speed>0.0</speed>
  <fix>3d</fix>
</trkpt>
<trkpt lat="-27.274439" lon="151.290064">
  <ele>343.1</ele>
  <time>2026-09-01T19:50:43Z</time>
  <course>7.09</course>
  <speed>0.0</speed>
  <fix>3d</fix>
</trkpt>
<trkpt lat="-27.274439" lon="151.290064">
  <ele>343.1</ele>
  <time>2026-09-01T19:50:43Z</time>
  <course>322.09</course>
  <speed>0.0</speed>
  <fix>3d</fix>
</trkpt>
<trkpt lat="-27.274439" lon="151.290064">
  <ele>343.1</ele>
  <time>2026-09-01T19:50:43Z</time>
  <course>7.09</course>
  <speed>0.0</speed>
  <fix>3d</fix>
</trkpt>
<trkpt lat="-27.274439" lon="151.290064">
  <ele>343.1</ele>
  <time>2026-09-01T19:50:43Z</time>
  <course>322.09</course>
  <speed>0.0</speed>
  <fix>3d</fix>
</trkpt>
<trkpt lat="-27.274439" lon="151.290064">
  <ele>343.1</ele>
  <time>2026-09-01T19:50:43Z</time>
  <course>7.09</course>
  <speed>0.0</speed>
  <fix>3d</fix>
</trkpt>
<trkpt lat="-27.274439" lon="151.290064">
  <ele>343.1</ele>
  <time>2026-09-01T19:50:43Z</time>
  <course>322.09</course>
  <speed>0.0</speed>
  <fix>3d</fix>
</trkpt>
<trkpt lat="-27.274439" lon="151.290064">
  <ele>343.1</ele>
  <time>2026-09-01T19:50:43Z</time>
  <course>7.09</course>
  <speed>0.0</speed>
  <fix>3d</fix>
</trkpt>
<trkpt lat="-27.274439" lon="151.290064">
  <ele>343.1</ele>
  <time>2026-09-01T19:50:43Z</time>
  <course>322.09</course>
  <speed>0.0</speed>
  <fix>3d</fix>
</trkpt>
<trkpt lat="-27.274439" lon="151.290064">
  <ele>343.1</ele>
  <time>2026-09-01T19:50:43Z</time>
  <course>7.09</course>
  <speed>0.0</speed>
  <fix>3d</fix>
</trkpt>
<trkpt lat="-27.274439" lon="151.290064">
  <ele>343.1</ele>
  <time>2026-09-01T19:50:43Z</time>
  <course>142.09</course>
  <speed>0.0</speed>
  <fix>3d</fix>
</trkpt>
<trkpt lat="-27.274439" lon="151.290064">
  <ele>343.1</ele>
  <time>2026-09-01T19:50:43Z</time>
  <course>7.09</course>
  <speed>0.0</speed>
  <fix>3d</fix>
</trkpt>
<trkpt lat="-27.274439" lon="151.290064">
  <ele>343.1</ele>
  <time>2026-09-01T19:50:43Z</time>
  <course>142.09</course>
  <speed>0.0</speed>
  <fix>3d</fix>
</trkpt>
<trkpt lat="-27.274439" lon="151.290064">
  <ele>343.1</ele>
  <time>2026-09-01T19:50:43Z</time>
  <course>7.09</course>
  <speed>0.0</speed>
  <fix>3d</fix>
</trkpt>
<trkpt lat="-27.274439" lon="151.290064">
  <ele>343.1</ele>
  <time>2026-09-01T19:50:43Z</time>
  <course>142.09</course>
  <speed>0.0</speed>
  <fix>3d</fix>
</trkpt>
<trkpt lat="-27.274439" lon="151.290064">
  <ele>343.1</ele>
  <time>2026-09-01T19:50:43Z</time>
  <course>7.09</course>
  <speed>0.0</speed>
  <fix>3d</fix>
</trkpt>
<trkpt lat="-27.274439" lon="151.290064">
  <ele>343.1</ele>
  <time>2026-09-01T19:50:43Z</time>
  <course>142.09</course>
  <speed>0.0</speed>
  <fix>3d</fix>
</trkpt>
<trkpt lat="-27.274439" lon="151.290064">
  <ele>343.1</ele>
  <time>2026-09-01T19:50:43Z</time>
  <course>7.09</course>
  <speed>0.0</speed>
  <fix>3d</fix>
</trkpt>
<trkpt lat="-27.274439" lon="151.290064">
  <ele>343.1</ele>
  <time>2026-09-01T19:50:43Z</time>
  <course>142.09</course>
  <speed>0.0</speed>
  <fix>3d</fix>
</trkpt>
<trkpt lat="-27.274439" lon="151.290064">
  <ele>343.1</ele>
  <time>2026-09-01T19:50:43Z</time>
  <course>7.09</course>
  <speed>0.0</speed>
  <fix>3d</fix>
</trkpt>
<trkpt lat="-27.274439" lon="151.290064">
  <ele>343.1</ele>
  <time>2026-09-01T19:50:43Z</time>
  <course>142.09</course>
  <speed>0.0</speed>
  <fix>3d</fix>
</trkpt>
<trkpt lat="-27.274439" lon="151.290064">
  <ele>343.1</ele>
  <time>2026-09-01T19:50:43Z</time>
  <course>7.09</course>
  <speed>0.0</speed>
  <fix>3d</fix>
</trkpt>
<trkpt lat="-27.274439" lon="151.290064">
  <ele>343.1</ele>
  <time>2026-09-01T19:50:43Z</time>
  <course>142.09</course>
  <speed>0.0</speed>
  <fix>3d</fix>
</trkpt>
<trkpt lat="-27.274439" lon="151.290064">
  <ele>343.1</ele>
  <time>2026-09-01T19:50:43Z</time>
  <course>7.09</course>
  <speed>0.0</speed>
  <fix>3d</fix>
</trkpt>
<trkpt lat="-27.274439" lon="151.290064">
  <ele>343.1</ele>
  <time>2026-09-01T19:50:43Z</time>
  <course>142.09</course>
  <speed>0.0</speed>
  <fix>3d</fix>
</trkpt>
<trkpt lat="-27.274439" lon="151.290064">
  <ele>343.1</ele>
  <time>2026-09-01T19:50:43Z</time>
  <course>7.09</course>
  <speed>0.0</speed>
  <fix>3d</fix>
</trkpt>
<trkpt lat="-27.274439" lon="151.290064">
  <ele>343.1</ele>
  <time>2026-09-01T19:50:43Z</time>
  <course>142.09</course>
  <speed>0.0</speed>
  <fix>3d</fix>
</trkpt>
<trkpt lat="-27.274439" lon="151.290064">
  <ele>343.1</ele>
  <time>2026-09-01T19:50:43Z</time>
  <course>7.09</course>
  <speed>0.0</speed>
  <fix>3d</fix>
</trkpt>
<trkpt lat="-27.274439" lon="151.290064">
  <ele>343.1</ele>
  <time>2026-09-01T19:50:43Z</time>
  <course>142.09</course>
  <speed>0.0</speed>
  <fix>3d</fix>
</trkpt>
<trkpt lat="-27.274439" lon="151.290064">
  <ele>343.1</ele>
  <time>2026-09-01T19:50:43Z</time>
  <course>7.09</course>
  <speed>0.0</speed>
  <fix>3d</fix>
</trkpt>
<trkpt lat="-27.274439" lon="151.290064">
  <ele>343.1</ele>
  <time>2026-09-01T19:50:43Z</time>
  <course>142.09</course>
  <speed>0.0</speed>
  <fix>3d</fix>
</trkpt>
<trkpt lat="-27.274439" lon="151.290064">
  <ele>343.1</ele>
  <time>2026-09-01T19:50:43Z</time>
  <course>7.09</course>
  <speed>0.0</speed>
  <fix>3d</fix>
</trkpt>
<trkpt lat="-27.274439" lon="151.290064">
  <ele>343.1</ele>
  <time>2026-09-01T19:50:43Z</time>
  <course>142.09</course>
  <speed>0.0</speed>
  <fix>3d</fix>
</trkpt>
<trkpt lat="-27.274439" lon="151.290064">
  <ele>343.1</ele>
  <time>2026-09-01T19:50:43Z</time>
  <course>7.09</course>
  <speed>0.0</speed>
  <fix>3d</fix>
</trkpt>
<trkpt lat="-27.274439" lon="151.290064">
  <ele>343.1</ele>
  <time>2026-09-01T19:50:43Z</time>
  <course>322.09</course>
  <speed>0.0</speed>
  <fix>3d</fix>
</trkpt>
<trkpt lat="-27.274439" lon="151.290064">
  <ele>343.1</ele>
  <time>2026-09-01T19:50:43Z</time>
  <course>7.09</course>
  <speed>0.0</speed>
  <fix>3d</fix>
</trkpt>
<trkpt lat="-27.274439" lon="151.290064">
  <ele>343.1</ele>
  <time>2026-09-01T19:50:43Z</time>
  <course>322.09</course>
  <speed>0.0</speed>
  <fix>3d</fix>
</trkpt>
<trkpt lat="-27.274439" lon="151.290064">
  <ele>343.1</ele>
  <time>2026-09-01T19:50:43Z</time>
  <course>7.09</course>
  <speed>0.0</speed>
  <fix>3d</fix>
</trkpt>
<trkpt lat="-27.274439" lon="151.290064">
  <ele>343.1</ele>
  <time>2026-09-01T19:50:43Z</time>
  <course>322.09</course>
  <speed>0.0</speed>
  <fix>3d</fix>
</trkpt>
<trkpt lat="-27.274439" lon="151.290064">
  <ele>343.1</ele>
  <time>2026-09-01T19:50:43Z</time>
  <course>7.09</course>
  <speed>0.0</speed>
  <fix>3d</fix>
</trkpt>
<trkpt lat="-27.274439" lon="151.290064">
  <ele>343.1</ele>
  <time>2026-09-01T19:50:43Z</time>
  <course>322.09</course>
  <speed>0.0</speed>
  <fix>3d</fix>
</trkpt>
<trkpt lat="-27.274439" lon="151.290064">
  <ele>343.1</ele>
  <time>2026-09-01T19:50:44Z</time>
  <course>7.09</course>
  <speed>0.0</speed>
  <fix>3d</fix>
</trkpt>
<trkpt lat="-27.274439" lon="151.290064">
  <ele>343.1</ele>
  <time>2026-09-01T19:50:44Z</time>
  <course>322.09</course>
  <speed>0.0</speed>
  <fix>3d</fix>
</trkpt>
<trkpt lat="-27.274439" lon="151.290064">
  <ele>343.1</ele>
  <time>2026-09-01T19:50:44Z</time>
  <course>7.09</course>
  <speed>0.0</speed>
  <fix>3d</fix>
</trkpt>
<trkpt lat="-27.274439" lon="151.290064">
  <ele>343.1</ele>
  <time>2026-09-01T19:50:44Z</time>
  <course>322.09</course>
  <speed>0.0</speed>
  <fix>3d</fix>
</trkpt>
<trkpt lat="-27.274439" lon="151.290064">
  <ele>343.1</ele>
  <time>2026-09-01T19:50:44Z</time>
  <course>7.09</course>
  <speed>0.0</speed>
  <fix>3d</fix>
</trkpt>
<trkpt lat="-27.274439" lon="151.290064">
  <ele>343.1</ele>
  <time>2026-09-01T19:50:44Z</time>
  <course>142.09</course>
  <speed>0.0</speed>
  <fix>3d</fix>
</trkpt>
<trkpt lat="-27.274439" lon="151.290064">
  <ele>343.1</ele>
  <time>2026-09-01T19:50:44Z</time>
  <course>7.09</course>
  <speed>0.0</speed>
  <fix>3d</fix>
</trkpt>
<trkpt lat="-27.274439" lon="151.290064">
  <ele>343.1</ele>
  <time>2026-09-01T19:50:44Z</time>
  <course>142.09</course>
  <speed>0.0</speed>
  <fix>3d</fix>
</trkpt>
<trkpt lat="-27.274439" lon="151.290064">
  <ele>343.1</ele>
  <time>2026-09-01T19:50:44Z</time>
  <course>7.09</course>
  <speed>0.0</speed>
  <fix>3d</fix>
</trkpt>
<trkpt lat="-27.274439" lon="151.290064">
  <ele>343.1</ele>
  <time>2026-09-01T19:50:44Z</time>
  <course>322.09</course>
  <speed>0.0</speed>
  <fix>3d</fix>
</trkpt>
<trkpt lat="-27.274439" lon="151.290064">
  <ele>343.1</ele>
  <time>2026-09-01T19:50:44Z</time>
  <course>7.09</course>
  <speed>0.0</speed>
  <fix>3d</fix>
</trkpt>
<trkpt lat="-27.274439" lon="151.290064">
  <ele>343.1</ele>
  <time>2026-09-01T19:50:44Z</time>
  <course>322.09</course>
  <speed>0.0</speed>
  <fix>3d</fix>
</trkpt>
<trkpt lat="-27.274439" lon="151.290064">
  <ele>343.1</ele>
  <time>2026-09-01T19:50:44Z</time>
  <course>7.09</course>
  <speed>0.0</speed>
  <fix>3d</fix>
</trkpt>
<trkpt lat="-27.274439" lon="151.290064">
  <ele>343.1</ele>
  <time>2026-09-01T19:50:44Z</time>
  <course>322.09</course>
  <speed>0.0</speed>
  <fix>3d</fix>
</trkpt>
<trkpt lat="-27.274439" lon="151.290064">
  <ele>343.1</ele>
  <time>2026-09-01T19:50:44Z</time>
  <course>7.09</course>
  <speed>0.0</speed>
  <fix>3d</fix>
</trkpt>
<trkpt lat="-27.274439" lon="151.290064">
  <ele>343.1</ele>
  <time>2026-09-01T19:50:44Z</time>
  <course>322.09</course>
  <speed>0.0</speed>
  <fix>3d</fix>
</trkpt>
<trkpt lat="-27.274439" lon="151.290064">
  <ele>343.1</ele>
  <time>2026-09-01T19:50:44Z</time>
  <course>7.09</course>
  <speed>0.0</speed>
  <fix>3d</fix>
</trkpt>
<trkpt lat="-27.274439" lon="151.290064">
  <ele>343.1</ele>
  <time>2026-09-01T19:50:44Z</time>
  <course>142.09</course>
  <speed>0.0</speed>
  <fix>3d</fix>
</trkpt>
<trkpt lat="-27.274439" lon="151.290064">
  <ele>343.1</ele>
  <time>2026-09-01T19:50:44Z</time>
  <course>7.09</course>
  <speed>0.0</speed>
  <fix>3d</fix>
</trkpt>
<trkpt lat="-27.274439" lon="151.290064">
  <ele>343.1</ele>
  <time>2026-09-01T19:50:44Z</time>
  <course>142.09</course>
  <speed>0.0</speed>
  <fix>3d</fix>
</trkpt>
<trkpt lat="-27.274439" lon="151.290064">
  <ele>343.1</ele>
  <time>2026-09-01T19:50:44Z</time>
  <course>7.09</course>
  <speed>0.0</speed>
  <fix>3d</fix>
</trkpt>
<trkpt lat="-27.274439" lon="151.290064">
  <ele>343.1</ele>
  <time>2026-09-01T19:50:44Z</time>
  <course>142.09</course>
  <speed>0.0</speed>
  <fix>3d</fix>
</trkpt>
<trkpt lat="-27.274439" lon="151.290064">
  <ele>343.1</ele>
  <time>2026-09-01T19:50:44Z</time>
  <course>7.09</course>
  <speed>0.0</speed>
  <fix>3d</fix>
</trkpt>
<trkpt lat="-27.274439" lon="151.290064">
  <ele>343.1</ele>
  <time>2026-09-01T19:50:44Z</time>
  <course>142.09</course>
  <speed>0.0</speed>
  <fix>3d</fix>
</trkpt>
<trkpt lat="-27.274439" lon="151.290064">
  <ele>343.1</ele>
  <time>2026-09-01T19:50:44Z</time>
  <course>7.09</course>
  <speed>0.0</speed>
  <fix>3d</fix>
</trkpt>
<trkpt lat="-27.274439" lon="151.290064">
  <ele>343.1</ele>
  <time>2026-09-01T19:50:44Z</time>
  <course>322.09</course>
  <speed>0.0</speed>
  <fix>3d</fix>
</trkpt>
<trkpt lat="-27.274439" lon="151.290064">
  <ele>343.1</ele>
  <time>2026-09-01T19:50:44Z</time>
  <course>7.09</course>
  <speed>0.0</speed>
  <fix>3d</fix>
</trkpt>
<trkpt lat="-27.274439" lon="151.290064">
  <ele>343.1</ele>
  <time>2026-09-01T19:50:44Z</time>
  <course>322.09</course>
  <speed>0.0</speed>
  <fix>3d</fix>
</trkpt>
<trkpt lat="-27.274439" lon="151.290064">
  <ele>343.1</ele>
  <time>2026-09-01T19:50:44Z</time>
  <course>7.09</course>
  <speed>0.0</speed>
  <fix>3d</fix>
</trkpt>
<trkpt lat="-27.274439" lon="151.290064">
  <ele>343.1</ele>
  <time>2026-09-01T19:50:44Z</time>
  <course>322.09</course>
  <speed>0.0</speed>
  <fix>3d</fix>
</trkpt>
<trkpt lat="-27.274439" lon="151.290064">
  <ele>343.1</ele>
  <time>2026-09-01T19:50:44Z</time>
  <course>7.09</course>
  <speed>0.0</speed>
  <fix>3d</fix>
</trkpt>
<trkpt lat="-27.274439" lon="151.290064">
  <ele>343.1</ele>
  <time>2026-09-01T19:50:44Z</time>
  <course>322.09</course>
  <speed>0.0</speed>
  <fix>3d</fix>
</trkpt>
<trkpt lat="-27.274439" lon="151.290064">
  <ele>343.1</ele>
  <time>2026-09-01T19:50:44Z</time>
  <course>7.09</course>
  <speed>0.0</speed>
  <fix>3d</fix>
</trkpt>
<trkpt lat="-27.274439" lon="151.290064">
  <ele>343.1</ele>
  <time>2026-09-01T19:50:44Z</time>
  <course>142.09</course>
  <speed>0.0</speed>
  <fix>3d</fix>
</trkpt>
<trkpt lat="-27.274439" lon="151.290064">
  <ele>343.1</ele>
  <time>2026-09-01T19:50:44Z</time>
  <course>7.09</course>
  <speed>0.0</speed>
  <fix>3d</fix>
</trkpt>
<trkpt lat="-27.274439" lon="151.290064">
  <ele>343.1</ele>
  <time>2026-09-01T19:50:44Z</time>
  <course>142.09</course>
  <speed>0.0</speed>
  <fix>3d</fix>
</trkpt>
<trkpt lat="-27.274439" lon="151.290064">
  <ele>343.1</ele>
  <time>2026-09-01T19:50:44Z</time>
  <course>7.09</course>
  <speed>0.0</speed>
  <fix>3d</fix>
</trkpt>
<trkpt lat="-27.274439" lon="151.290064">
  <ele>343.1</ele>
  <time>2026-09-01T19:50:44Z</time>
  <course>142.09</course>
  <speed>0.0</speed>
  <fix>3d</fix>
</trkpt>
<trkpt lat="-27.274439" lon="151.290064">
  <ele>343.1</ele>
  <time>2026-09-01T19:50:44Z</time>
  <course>7.09</course>
  <speed>0.0</speed>
  <fix>3d</fix>
</trkpt>
<trkpt lat="-27.274439" lon="151.290064">
  <ele>343.1</ele>
  <time>2026-09-01T19:50:44Z</time>
  <course>142.09</course>
  <speed>0.0</speed>
  <fix>3d</fix>
</trkpt>
<trkpt lat="-27.274439" lon="151.290064">
  <ele>343.1</ele>
  <time>2026-09-01T19:50:44Z</time>
  <course>7.09</course>
  <speed>0.0</speed>
  <fix>3d</fix>
</trkpt>
<trkpt lat="-27.274439" lon="151.290064">
  <ele>343.1</ele>
  <time>2026-09-01T19:50:44Z</time>
  <course>322.09</course>
  <speed>0.0</speed>
  <fix>3d</fix>
</trkpt>
<trkpt lat="-27.274439" lon="151.290064">
  <ele>343.1</ele>
  <time>2026-09-01T19:50:44Z</time>
  <course>7.09</course>
  <speed>0.0</speed>
  <fix>3d</fix>
</trkpt>
<trkpt lat="-27.274439" lon="151.290064">
  <ele>343.1</ele>
  <time>2026-09-01T19:50:44Z</time>
  <course>322.09</course>
  <speed>0.0</speed>
  <fix>3d</fix>
</trkpt>
<trkpt lat="-27.274439" lon="151.290064">
  <ele>343.1</ele>
  <time>2026-09-01T19:50:44Z</time>
  <course>7.09</course>
  <speed>0.0</speed>
  <fix>3d</fix>
</trkpt>
<trkpt lat="-27.274439" lon="151.290064">
  <ele>343.1</ele>
  <time>2026-09-01T19:50:44Z</time>
  <course>322.22</course>
  <speed>0.0</speed>
  <fix>3d</fix>
</trkpt>
<trkpt lat="-27.274439" lon="151.290064">
  <ele>343.1</ele>
  <time>2026-09-01T19:50:44Z</time>
  <course>7.09</course>
  <speed>0.0</speed>
  <fix>3d</fix>
</trkpt>
<trkpt lat="-27.274439" lon="151.290064">
  <ele>343.1</ele>
  <time>2026-09-01T19:50:44Z</time>
  <course>322.22</course>
  <speed>0.0</speed>
  <fix>3d</fix>
</trkpt>
<trkpt lat="-27.2744392" lon="151.2900641">
  <ele>342.95</ele>
  <time>2026-09-01T19:50:44Z</time>
  <course>9.47</course>
  <speed>0.0282842712474619</speed>
  <fix>3d</fix>
</trkpt>
<trkpt lat="-27.274439" lon="151.290064">
  <ele>343.1</ele>
  <time>2026-09-01T19:50:44Z</time>
  <course>142.08</course>
  <speed>0.0</speed>
  <fix>3d</fix>
</trkpt>
<trkpt lat="-27.2744392" lon="151.2900641">
  <ele>342.95</ele>
  <time>2026-09-01T19:50:44Z</time>
  <course>9.47</course>
  <speed>0.0282842712474619</speed>
  <fix>3d</fix>
</trkpt>
<trkpt lat="-27.274439" lon="151.290064">
  <ele>343.1</ele>
  <time>2026-09-01T19:50:44Z</time>
  <course>142.08</course>
  <speed>0.0</speed>
  <fix>3d</fix>
</trkpt>
<trkpt lat="-27.2744392" lon="151.2900641">
  <ele>342.95</ele>
  <time>2026-09-01T19:50:44Z</time>
  <course>9.47</course>
  <speed>0.0282842712474619</speed>
  <fix>3d</fix>
</trkpt>
<trkpt lat="-27.274439" lon="151.290064">
  <ele>343.1</ele>
  <time>2026-09-01T19:50:44Z</time>
  <course>322.0</course>
  <speed>0.0</speed>
  <fix>3d</fix>
</trkpt>
<trkpt lat="-27.2744392" lon="151.2900641">
  <ele>342.95</ele>
  <time>2026-09-01T19:50:44Z</time>
  <course>9.47</course>
  <speed>0.0282842712474619</speed>
  <fix>3d</fix>
</trkpt>
<trkpt lat="-27.274439" lon="151.290064">
  <ele>343.1</ele>
  <time>2026-09-01T19:50:44Z</time>
  <course>322.0</course>
  <speed>0.0</speed>
  <fix>3d</fix>
</trkpt>
<trkpt lat="-27.2744392" lon="151.2900641">
  <ele>342.95</ele>
  <time>2026-09-01T19:50:44Z</time>
  <course>9.47</course>
  <speed>0.0282842712474619</speed>
  <fix>3d</fix>
</trkpt>
<trkpt lat="-27.274439" lon="151.290064">
  <ele>343.1</ele>
  <time>2026-09-01T19:50:44Z</time>
  <course>322.03</course>
  <speed>0.0</speed>
  <fix>3d</fix>
</trkpt>
<trkpt lat="-27.2744392" lon="151.2900641">
  <ele>342.95</ele>
  <time>2026-09-01T19:50:44Z</time>
  <course>9.47</course>
  <speed>0.0282842712474619</speed>
  <fix>3d</fix>
</trkpt>
<trkpt lat="-27.274439" lon="151.290064">
  <ele>343.1</ele>
  <time>2026-09-01T19:50:44Z</time>
  <course>322.03</course>
  <speed>0.0</speed>
  <fix>3d</fix>
</trkpt>
<trkpt lat="-27.2744392" lon="151.2900641">
  <ele>342.94</ele>
  <time>2026-09-01T19:50:44Z</time>
  <course>9.47</course>
  <speed>0.0282842712474619</speed>
  <fix>3d</fix>
</trkpt>
<trkpt lat="-27.274439" lon="151.290064">
  <ele>343.1</ele>
  <time>2026-09-01T19:50:44Z</time>
  <course>141.75</course>
  <speed>0.0</speed>
  <fix>3d</fix>
</trkpt>
<trkpt lat="-27.2744392" lon="151.2900641">
  <ele>342.94</ele>
  <time>2026-09-01T19:50:44Z</time>
  <course>9.47</course>
  <speed>0.0282842712474619</speed>
  <fix>3d</fix>
</trkpt>
<trkpt lat="-27.274439" lon="151.290064">
  <ele>343.1</ele>
  <time>2026-09-01T19:50:44Z</time>
  <course>141.75</course>
  <speed>0.0</speed>
  <fix>3d</fix>
</trkpt>
<trkpt lat="-27.2744392" lon="151.2900641">
  <ele>342.94</ele>
  <time>2026-09-01T19:50:44Z</time>
  <course>9.47</course>
  <speed>0.0282842712474619</speed>
  <fix>3d</fix>
</trkpt>
<trkpt lat="-27.274439" lon="151.290064">
  <ele>343.1</ele>
  <time>2026-09-01T19:50:44Z</time>
  <course>140.7</course>
  <speed>0.0</speed>
  <fix>3d</fix>
</trkpt>
<trkpt lat="-27.2744392" lon="151.2900641">
  <ele>342.93</ele>
  <time>2026-09-01T19:50:44Z</time>
  <course>9.47</course>
  <speed>0.0282842712474619</speed>
  <fix>3d</fix>
</trkpt>
<trkpt lat="-27.274439" lon="151.290064">
  <ele>343.1</ele>
  <time>2026-09-01T19:50:44Z</time>
  <course>351.48</course>
  <speed>0.0</speed>
  <fix>3d</fix>
</trkpt>
<trkpt lat="-27.2744392" lon="151.2900641">
  <ele>343.09</ele>
  <time>2026-09-01T19:50:44Z</time>
  <course>9.48</course>
  <speed>0.0282842712474619</speed>
  <fix>3d</fix>
</trkpt>
<trkpt lat="-27.274439" lon="151.290064">
  <ele>343.1</ele>
  <time>2026-09-01T19:50:44Z</time>
  <course>7.93</course>
  <speed>0.0</speed>
  <fix>3d</fix>
</trkpt>
<trkpt lat="-27.2744392" lon="151.2900641">
  <ele>343.09</ele>
  <time>2026-09-01T19:50:44Z</time>
  <course>9.48</course>
  <speed>0.0282842712474619</speed>
  <fix>3d</fix>
</trkpt>
<trkpt lat="-27.274439" lon="151.290064">
  <ele>343.1</ele>
  <time>2026-09-01T19:50:44Z</time>
  <course>7.93</course>
  <speed>0.0</speed>
  <fix>3d</fix>
</trkpt>
<trkpt lat="-27.2744392" lon="151.2900641">
  <ele>343.09</ele>
  <time>2026-09-01T19:50:44Z</time>
  <course>9.48</course>
  <speed>0.0282842712474619</speed>
  <fix>3d</fix>
</trkpt>
<trkpt lat="-27.274439" lon="151.290064">
  <ele>343.1</ele>
  <time>2026-09-01T19:50:44Z</time>
  <course>7.0</course>
  <speed>0.0</speed>
  <fix>3d</fix>
</trkpt>
<trkpt lat="-27.2744392" lon="151.2900641">
  <ele>343.09</ele>
  <time>2026-09-01T19:50:44Z</time>
  <course>9.48</course>
  <speed>0.0282842712474619</speed>
  <fix>3d</fix>
</trkpt>
<trkpt lat="-27.274439" lon="151.290064">
  <ele>343.1</ele>
  <time>2026-09-01T19:50:44Z</time>
  <course>7.0</course>
  <speed>0.0</speed>
  <fix>3d</fix>
</trkpt>
<trkpt lat="-27.2744392" lon="151.2900641">
  <ele>343.09</ele>
  <time>2026-09-01T19:50:44Z</time>
  <course>9.48</course>
  <speed>0.0282842712474619</speed>
  <fix>3d</fix>
</trkpt>
<trkpt lat="-27.274439" lon="151.290064">
  <ele>343.1</ele>
  <time>2026-09-01T19:50:44Z</time>
  <course>6.87</course>
  <speed>0.0</speed>
  <fix>3d</fix>
</trkpt>
<trkpt lat="-27.2744392" lon="151.2900641">
  <ele>343.08</ele>
  <time>2026-09-01T19:50:44Z</time>
  <course>9.48</course>
  <speed>0.0282842712474619</speed>
  <fix>3d</fix>
</trkpt>
<trkpt lat="-27.274439" lon="151.290064">
  <ele>343.1</ele>
  <time>2026-09-01T19:50:44Z</time>
  <course>6.87</course>
  <speed>0.0</speed>
  <fix>3d</fix>
</trkpt>
<trkpt lat="-27.2744392" lon="151.2900641">
  <ele>343.08</ele>
  <time>2026-09-01T19:50:44Z</time>
  <course>9.48</course>
  <speed>0.0282842712474619</speed>
  <fix>3d</fix>
</trkpt>
<trkpt lat="-27.274439" lon="151.290064">
  <ele>343.1</ele>
  <time>2026-09-01T19:50:44Z</time>
  <course>6.85</course>
  <speed>0.0</speed>
  <fix>3d</fix>
</trkpt>
<trkpt lat="-27.2744392" lon="151.2900641">
  <ele>343.08</ele>
  <time>2026-09-01T19:50:44Z</time>
  <course>9.48</course>
  <speed>0.0282842712474619</speed>
  <fix>3d</fix>
</trkpt>
<trkpt lat="-27.274439" lon="151.290064">
  <ele>343.1</ele>
  <time>2026-09-01T19:50:44Z</time>
  <course>6.85</course>
  <speed>0.0</speed>
  <fix>3d</fix>
</trkpt>
<trkpt lat="-27.2744392" lon="151.2900641">
  <ele>343.08</ele>
  <time>2026-09-01T19:50:44Z</time>
  <course>9.48</course>
  <speed>0.0282842712474619</speed>
  <fix>3d</fix>
</trkpt>
<trkpt lat="-27.274439" lon="151.290064">
  <ele>343.1</ele>
  <time>2026-09-01T19:50:44Z</time>
  <course>6.85</course>
  <speed>0.0</speed>
  <fix>3d</fix>
</trkpt>
<trkpt lat="-27.2744392" lon="151.2900641">
  <ele>343.08</ele>
  <time>2026-09-01T19:50:44Z</time>
  <course>9.48</course>
  <speed>0.0282842712474619</speed>
  <fix>3d</fix>
</trkpt>
<trkpt lat="-27.274439" lon="151.290064">
  <ele>343.1</ele>
  <time>2026-09-01T19:50:44Z</time>
  <course>6.85</course>
  <speed>0.0</speed>
  <fix>3d</fix>
</trkpt>
<trkpt lat="-27.2744392" lon="151.2900641">
  <ele>343.08</ele>
  <time>2026-09-01T19:50:44Z</time>
  <course>9.48</course>
  <speed>0.0282842712474619</speed>
  <fix>3d</fix>
</trkpt>
<trkpt lat="-27.274439" lon="151.290064">
  <ele>343.1</ele>
  <time>2026-09-01T19:50:44Z</time>
  <course>6.85</course>
  <speed>0.0</speed>
  <fix>3d</fix>
</trkpt>
<trkpt lat="-27.2744392" lon="151.2900641">
  <ele>343.08</ele>
  <time>2026-09-01T19:50:44Z</time>
  <course>9.48</course>
  <speed>0.0282842712474619</speed>
  <fix>3d</fix>
</trkpt>
<trkpt lat="-27.274439" lon="151.290064">
  <ele>343.1</ele>
  <time>2026-09-01T19:50:44Z</time>
  <course>6.85</course>
  <speed>0.0</speed>
  <fix>3d</fix>
</trkpt>
<trkpt lat="-27.2744392" lon="151.2900641">
  <ele>343.08</ele>
  <time>2026-09-01T19:50:44Z</time>
  <course>9.48</course>
  <speed>0.0282842712474619</speed>
  <fix>3d</fix>
</trkpt>
<trkpt lat="-27.274439" lon="151.290064">
  <ele>343.1</ele>
  <time>2026-09-01T19:50:44Z</time>
  <course>6.85</course>
  <speed>0.0</speed>
  <fix>3d</fix>
</trkpt>
<trkpt lat="-27.2744392" lon="151.2900641">
  <ele>343.08</ele>
  <time>2026-09-01T19:50:44Z</time>
  <course>9.48</course>
  <speed>0.0282842712474619</speed>
  <fix>3d</fix>
</trkpt>
<trkpt lat="-27.274439" lon="151.290064">
  <ele>343.1</ele>
  <time>2026-09-01T19:50:44Z</time>
  <course>6.85</course>
  <speed>0.0</speed>
  <fix>3d</fix>
</trkpt>
<trkpt lat="-27.2744392" lon="151.2900641">
  <ele>343.07</ele>
  <time>2026-09-01T19:50:44Z</time>
  <course>9.48</course>
  <speed>0.0282842712474619</speed>
  <fix>3d</fix>
</trkpt>
<trkpt lat="-27.274439" lon="151.290064">
  <ele>343.1</ele>
  <time>2026-09-01T19:50:44Z</time>
  <course>6.85</course>
  <speed>0.0</speed>
  <fix>3d</fix>
</trkpt>
<trkpt lat="-27.2744392" lon="151.2900641">
  <ele>343.07</ele>
  <time>2026-09-01T19:50:44Z</time>
  <course>9.48</course>
  <speed>0.0282842712474619</speed>
  <fix>3d</fix>
</trkpt>
<trkpt lat="-27.274439" lon="151.290064">
  <ele>343.1</ele>
  <time>2026-09-01T19:50:44Z</time>
  <course>6.85</course>
  <speed>0.0</speed>
  <fix>3d</fix>
</trkpt>
<trkpt lat="-27.2744392" lon="151.2900641">
  <ele>343.07</ele>
  <time>2026-09-01T19:50:44Z</time>
  <course>9.48</course>
  <speed>0.0282842712474619</speed>
  <fix>3d</fix>
</trkpt>
<trkpt lat="-27.274439" lon="151.290064">
  <ele>343.1</ele>
  <time>2026-09-01T19:50:44Z</time>
  <course>6.85</course>
  <speed>0.0</speed>
  <fix>3d</fix>
</trkpt>
<trkpt lat="-27.2744392" lon="151.2900641">
  <ele>343.07</ele>
  <time>2026-09-01T19:50:44Z</time>
  <course>9.48</course>
  <speed>0.0282842712474619</speed>
  <fix>3d</fix>
</trkpt>
<trkpt lat="-27.274439" lon="151.290064">
  <ele>343.1</ele>
  <time>2026-09-01T19:50:44Z</time>
  <course>6.85</course>
  <speed>0.0</speed>
  <fix>3d</fix>
</trkpt>
<trkpt lat="-27.2744392" lon="151.2900641">
  <ele>343.06</ele>
  <time>2026-09-01T19:50:44Z</time>
  <course>9.48</course>
  <speed>0.0282842712474619</speed>
  <fix>3d</fix>
</trkpt>
<trkpt lat="-27.274439" lon="151.290064">
  <ele>343.1</ele>
  <time>2026-09-01T19:50:44Z</time>
  <course>6.85</course>
  <speed>0.0</speed>
  <fix>3d</fix>
</trkpt>
<trkpt lat="-27.2744392" lon="151.2900641">
  <ele>343.06</ele>
  <time>2026-09-01T19:50:44Z</time>
  <course>9.48</course>
  <speed>0.0282842712474619</speed>
  <fix>3d</fix>
</trkpt>
<trkpt lat="-27.274439" lon="151.290064">
  <ele>343.1</ele>
  <time>2026-09-01T19:50:44Z</time>
  <course>6.85</course>
  <speed>0.0</speed>
  <fix>3d</fix>
</trkpt>
<trkpt lat="-27.2744392" lon="151.2900641">
  <ele>343.06</ele>
  <time>2026-09-01T19:50:44Z</time>
  <course>9.48</course>
  <speed>0.0282842712474619</speed>
  <fix>3d</fix>
</trkpt>
<trkpt lat="-27.274439" lon="151.290064">
  <ele>343.1</ele>
  <time>2026-09-01T19:50:44Z</time>
  <course>6.85</course>
  <speed>0.0</speed>
  <fix>3d</fix>
</trkpt>
<trkpt lat="-27.2744392" lon="151.2900641">
  <ele>343.06</ele>
  <time>2026-09-01T19:50:44Z</time>
  <course>9.49</course>
  <speed>0.0282842712474619</speed>
  <fix>3d</fix>
</trkpt>
<trkpt lat="-27.274439" lon="151.290064">
  <ele>343.1</ele>
  <time>2026-09-01T19:50:44Z</time>
  <course>6.85</course>
  <speed>0.0</speed>
  <fix>3d</fix>
</trkpt>
<trkpt lat="-27.2744392" lon="151.2900642">
  <ele>343.06</ele>
  <time>2026-09-01T19:50:44Z</time>
  <course>9.49</course>
  <speed>0.0282842712474619</speed>
  <fix>3d</fix>
</trkpt>
<trkpt lat="-27.274439" lon="151.290064">
  <ele>343.1</ele>
  <time>2026-09-01T19:50:44Z</time>
  <course>6.85</course>
  <speed>0.0</speed>
  <fix>3d</fix>
</trkpt>
<trkpt lat="-27.2744392" lon="151.2900641">
  <ele>343.06</ele>
  <time>2026-09-01T19:50:44Z</time>
  <course>9.49</course>
  <speed>0.0282842712474619</speed>
  <fix>3d</fix>
</trkpt>
<trkpt lat="-27.274439" lon="151.290064">
  <ele>343.1</ele>
  <time>2026-09-01T19:50:44Z</time>
  <course>6.85</course>
  <speed>0.0</speed>
  <fix>3d</fix>
</trkpt>
<trkpt lat="-27.2744392" lon="151.2900642">
  <ele>343.05</ele>
  <time>2026-09-01T19:50:44Z</time>
  <course>9.49</course>
  <speed>0.0282842712474619</speed>
  <fix>3d</fix>
</trkpt>
<trkpt lat="-27.274439" lon="151.290064">
  <ele>343.1</ele>
  <time>2026-09-01T19:50:44Z</time>
  <course>6.85</course>
  <speed>0.0</speed>
  <fix>3d</fix>
</trkpt>
<trkpt lat="-27.2744392" lon="151.2900641">
  <ele>343.05</ele>
  <time>2026-09-01T19:50:44Z</time>
  <course>9.49</course>
  <speed>0.0282842712474619</speed>
  <fix>3d</fix>
</trkpt>
<trkpt lat="-27.274439" lon="151.290064">
  <ele>343.1</ele>
  <time>2026-09-01T19:50:44Z</time>
  <course>6.85</course>
  <speed>0.0</speed>
  <fix>3d</fix>
</trkpt>
<trkpt lat="-27.2744392" lon="151.2900642">
  <ele>343.05</ele>
  <time>2026-09-01T19:50:44Z</time>
  <course>9.49</course>
  <speed>0.0282842712474619</speed>
  <fix>3d</fix>
</trkpt>
<trkpt lat="-27.274439" lon="151.290064">
  <ele>343.1</ele>
  <time>2026-09-01T19:50:44Z</time>
  <course>6.85</course>
  <speed>0.0</speed>
  <fix>3d</fix>
</trkpt>
<trkpt lat="-27.2744392" lon="151.2900641">
  <ele>343.05</ele>
  <time>2026-09-01T19:50:44Z</time>
  <course>9.49</course>
  <speed>0.0282842712474619</speed>
  <fix>3d</fix>
</trkpt>
<trkpt lat="-27.274439" lon="151.290064">
  <ele>343.1</ele>
  <time>2026-09-01T19:50:44Z</time>
  <course>6.85</course>
  <speed>0.0</speed>
  <fix>3d</fix>
</trkpt>
<trkpt lat="-27.2744392" lon="151.2900642">
  <ele>343.05</ele>
  <time>2026-09-01T19:50:44Z</time>
  <course>9.49</course>
  <speed>0.0282842712474619</speed>
  <fix>3d</fix>
</trkpt>
<trkpt lat="-27.274439" lon="151.290064">
  <ele>343.1</ele>
  <time>2026-09-01T19:50:44Z</time>
  <course>6.85</course>
  <speed>0.0</speed>
  <fix>3d</fix>
</trkpt>
<trkpt lat="-27.2744392" lon="151.2900641">
  <ele>343.05</ele>
  <time>2026-09-01T19:50:44Z</time>
  <course>9.49</course>
  <speed>0.0282842712474619</speed>
  <fix>3d</fix>
</trkpt>
<trkpt lat="-27.274439" lon="151.290064">
  <ele>343.1</ele>
  <time>2026-09-01T19:50:44Z</time>
  <course>6.85</course>
  <speed>0.0</speed>
  <fix>3d</fix>
</trkpt>
<trkpt lat="-27.2744392" lon="151.2900642">
  <ele>343.05</ele>
  <time>2026-09-01T19:50:44Z</time>
  <course>9.49</course>
  <speed>0.0282842712474619</speed>
  <fix>3d</fix>
</trkpt>
<trkpt lat="-27.274439" lon="151.290064">
  <ele>343.1</ele>
  <time>2026-09-01T19:50:44Z</time>
  <course>6.85</course>
  <speed>0.0</speed>
  <fix>3d</fix>
</trkpt>
<trkpt lat="-27.2744392" lon="151.2900641">
  <ele>343.05</ele>
  <time>2026-09-01T19:50:44Z</time>
  <course>9.49</course>
  <speed>0.0282842712474619</speed>
  <fix>3d</fix>
</trkpt>
<trkpt lat="-27.274439" lon="151.290064">
  <ele>343.1</ele>
  <time>2026-09-01T19:50:44Z</time>
  <course>6.85</course>
  <speed>0.0</speed>
  <fix>3d</fix>
</trkpt>
<trkpt lat="-27.2744392" lon="151.2900642">
  <ele>343.05</ele>
  <time>2026-09-01T19:50:44Z</time>
  <course>9.49</course>
  <speed>0.0282842712474619</speed>
  <fix>3d</fix>
</trkpt>
<trkpt lat="-27.274439" lon="151.290064">
  <ele>343.1</ele>
  <time>2026-09-01T19:50:44Z</time>
  <course>6.85</course>
  <speed>0.0</speed>
  <fix>3d</fix>
</trkpt>
<trkpt lat="-27.2744392" lon="151.2900642">
  <ele>343.05</ele>
  <time>2026-09-01T19:50:44Z</time>
  <course>9.49</course>
  <speed>0.0282842712474619</speed>
  <fix>3d</fix>
</trkpt>
<trkpt lat="-27.274439" lon="151.290064">
  <ele>343.1</ele>
  <time>2026-09-01T19:50:44Z</time>
  <course>6.85</course>
  <speed>0.0</speed>
  <fix>3d</fix>
</trkpt>
<trkpt lat="-27.2744392" lon="151.2900642">
  <ele>343.04</ele>
  <time>2026-09-01T19:50:44Z</time>
  <course>9.49</course>
  <speed>0.0282842712474619</speed>
  <fix>3d</fix>
</trkpt>
<trkpt lat="-27.274439" lon="151.290064">
  <ele>343.1</ele>
  <time>2026-09-01T19:50:44Z</time>
  <course>6.85</course>
  <speed>0.0</speed>
  <fix>3d</fix>
</trkpt>
<trkpt lat="-27.2744392" lon="151.2900641">
  <ele>343.04</ele>
  <time>2026-09-01T19:50:44Z</time>
  <course>9.49</course>
  <speed>0.0282842712474619</speed>
  <fix>3d</fix>
</trkpt>
<trkpt lat="-27.274439" lon="151.290064">
  <ele>343.1</ele>
  <time>2026-09-01T19:50:44Z</time>
  <course>6.85</course>
  <speed>0.0</speed>
  <fix>3d</fix>
</trkpt>
<trkpt lat="-27.2744392" lon="151.2900642">
  <ele>343.04</ele>
  <time>2026-09-01T19:50:44Z</time>
  <course>9.5</course>
  <speed>0.0282842712474619</speed>
  <fix>3d</fix>
</trkpt>
<trkpt lat="-27.274439" lon="151.290064">
  <ele>343.1</ele>
  <time>2026-09-01T19:50:44Z</time>
  <course>6.85</course>
  <speed>0.0</speed>
  <fix>3d</fix>
</trkpt>
<trkpt lat="-27.2744392" lon="151.2900641">
  <ele>343.04</ele>
  <time>2026-09-01T19:50:44Z</time>
  <course>9.5</course>
  <speed>0.0282842712474619</speed>
  <fix>3d</fix>
</trkpt>
<trkpt lat="-27.274439" lon="151.290064">
  <ele>343.1</ele>
  <time>2026-09-01T19:50:44Z</time>
  <course>6.85</course>
  <speed>0.0</speed>
  <fix>3d</fix>
</trkpt>
<trkpt lat="-27.2744392" lon="151.2900642">
  <ele>343.04</ele>
  <time>2026-09-01T19:50:44Z</time>
  <course>9.5</course>
  <speed>0.0282842712474619</speed>
  <fix>3d</fix>
</trkpt>
<trkpt lat="-27.274439" lon="151.290064">
  <ele>343.1</ele>
  <time>2026-09-01T19:50:44Z</time>
  <course>6.85</course>
  <speed>0.0</speed>
  <fix>3d</fix>
</trkpt>
<trkpt lat="-27.2744392" lon="151.2900641">
  <ele>343.03</ele>
  <time>2026-09-01T19:50:44Z</time>
  <course>9.5</course>
  <speed>0.0282842712474619</speed>
  <fix>3d</fix>
</trkpt>
<trkpt lat="-27.274439" lon="151.290064">
  <ele>343.1</ele>
  <time>2026-09-01T19:50:44Z</time>
  <course>6.85</course>
  <speed>0.0</speed>
  <fix>3d</fix>
</trkpt>
<trkpt lat="-27.2744392" lon="151.2900642">
  <ele>343.03</ele>
  <time>2026-09-01T19:50:44Z</time>
  <course>9.5</course>
  <speed>0.0282842712474619</speed>
  <fix>3d</fix>
</trkpt>
<trkpt lat="-27.274439" lon="151.290064">
  <ele>343.1</ele>
  <time>2026-09-01T19:50:44Z</time>
  <course>6.85</course>
  <speed>0.0</speed>
  <fix>3d</fix>
</trkpt>
<trkpt lat="-27.2744392" lon="151.2900641">
  <ele>343.03</ele>
  <time>2026-09-01T19:50:44Z</time>
  <course>9.5</course>
  <speed>0.0282842712474619</speed>
  <fix>3d</fix>
</trkpt>
<trkpt lat="-27.274439" lon="151.290064">
  <ele>343.1</ele>
  <time>2026-09-01T19:50:44Z</time>
  <course>6.85</course>
  <speed>0.0</speed>
  <fix>3d</fix>
</trkpt>
<trkpt lat="-27.2744392" lon="151.2900642">
  <ele>343.03</ele>
  <time>2026-09-01T19:50:44Z</time>
  <course>9.5</course>
  <speed>0.0282842712474619</speed>
  <fix>3d</fix>
</trkpt>
<trkpt lat="-27.274439" lon="151.290064">
  <ele>343.1</ele>
  <time>2026-09-01T19:50:44Z</time>
  <course>6.85</course>
  <speed>0.0</speed>
  <fix>3d</fix>
</trkpt>
<trkpt lat="-27.2744392" lon="151.2900641">
  <ele>343.04</ele>
  <time>2026-09-01T19:50:44Z</time>
  <course>9.5</course>
  <speed>0.0282842712474619</speed>
  <fix>3d</fix>
</trkpt>
<trkpt lat="-27.274439" lon="151.290064">
  <ele>343.1</ele>
  <time>2026-09-01T19:50:44Z</time>
  <course>6.85</course>
  <speed>0.0</speed>
  <fix>3d</fix>
</trkpt>
<trkpt lat="-27.2744392" lon="151.2900642">
  <ele>343.04</ele>
  <time>2026-09-01T19:50:44Z</time>
  <course>9.5</course>
  <speed>0.0282842712474619</speed>
  <fix>3d</fix>
</trkpt>
<trkpt lat="-27.274439" lon="151.290064">
  <ele>343.1</ele>
  <time>2026-09-01T19:50:44Z</time>
  <course>6.85</course>
  <speed>0.0</speed>
  <fix>3d</fix>
</trkpt>
<trkpt lat="-27.2744392" lon="151.2900641">
  <ele>343.04</ele>
  <time>2026-09-01T19:50:44Z</time>
  <course>9.5</course>
  <speed>0.0282842712474619</speed>
  <fix>3d</fix>
</trkpt>
<trkpt lat="-27.274439" lon="151.290064">
  <ele>343.1</ele>
  <time>2026-09-01T19:50:44Z</time>
  <course>6.85</course>
  <speed>0.0</speed>
  <fix>3d</fix>
</trkpt>
<trkpt lat="-27.2744392" lon="151.2900642">
  <ele>343.04</ele>
  <time>2026-09-01T19:50:44Z</time>
  <course>9.5</course>
  <speed>0.0282842712474619</speed>
  <fix>3d</fix>
</trkpt>
<trkpt lat="-27.274439" lon="151.290064">
  <ele>343.1</ele>
  <time>2026-09-01T19:50:44Z</time>
  <course>6.85</course>
  <speed>0.0</speed>
  <fix>3d</fix>
</trkpt>
<trkpt lat="-27.2744392" lon="151.2900641">
  <ele>343.04</ele>
  <time>2026-09-01T19:50:44Z</time>
  <course>9.5</course>
  <speed>0.0282842712474619</speed>
  <fix>3d</fix>
</trkpt>
<trkpt lat="-27.274439" lon="151.290064">
  <ele>343.1</ele>
  <time>2026-09-01T19:50:44Z</time>
  <course>6.85</course>
  <speed>0.0</speed>
  <fix>3d</fix>
</trkpt>
<trkpt lat="-27.2744392" lon="151.2900642">
  <ele>343.04</ele>
  <time>2026-09-01T19:50:44Z</time>
  <course>9.5</course>
  <speed>0.0282842712474619</speed>
  <fix>3d</fix>
</trkpt>
<trkpt lat="-27.274439" lon="151.290064">
  <ele>343.1</ele>
  <time>2026-09-01T19:50:44Z</time>
  <course>6.85</course>
  <speed>0.0</speed>
  <fix>3d</fix>
</trkpt>
<trkpt lat="-27.2744392" lon="151.2900641">
  <ele>343.04</ele>
  <time>2026-09-01T19:50:44Z</time>
  <course>9.5</course>
  <speed>0.0282842712474619</speed>
  <fix>3d</fix>
</trkpt>
<trkpt lat="-27.274439" lon="151.290064">
  <ele>343.1</ele>
  <time>2026-09-01T19:50:44Z</time>
  <course>6.85</course>
  <speed>0.0</speed>
  <fix>3d</fix>
</trkpt>
<trkpt lat="-27.2744392" lon="151.2900642">
  <ele>343.04</ele>
  <time>2026-09-01T19:50:44Z</time>
  <course>9.5</course>
  <speed>0.0282842712474619</speed>
  <fix>3d</fix>
</trkpt>
<trkpt lat="-27.274439" lon="151.290064">
  <ele>343.1</ele>
  <time>2026-09-01T19:50:44Z</time>
  <course>6.85</course>
  <speed>0.0</speed>
  <fix>3d</fix>
</trkpt>
<trkpt lat="-27.2744392" lon="151.2900641">
  <ele>343.05</ele>
  <time>2026-09-01T19:50:44Z</time>
  <course>9.5</course>
  <speed>0.0282842712474619</speed>
  <fix>3d</fix>
</trkpt>
<trkpt lat="-27.274439" lon="151.290064">
  <ele>343.1</ele>
  <time>2026-09-01T19:50:44Z</time>
  <course>6.85</course>
  <speed>0.0</speed>
  <fix>3d</fix>
</trkpt>
<trkpt lat="-27.2744392" lon="151.2900642">
  <ele>343.05</ele>
  <time>2026-09-01T19:50:44Z</time>
  <course>9.5</course>
  <speed>0.0282842712474619</speed>
  <fix>3d</fix>
</trkpt>
<trkpt lat="-27.274439" lon="151.290064">
  <ele>343.1</ele>
  <time>2026-09-01T19:50:44Z</time>
  <course>6.85</course>
  <speed>0.0</speed>
  <fix>3d</fix>
</trkpt>
<trkpt lat="-27.2744392" lon="151.2900641">
  <ele>343.1</ele>
  <time>2026-09-01T19:50:44Z</time>
  <course>9.5</course>
  <speed>0.0282842712474619</speed>
  <fix>3d</fix>
</trkpt>
<trkpt lat="-27.274439" lon="151.290064">
  <ele>343.1</ele>
  <time>2026-09-01T19:50:44Z</time>
  <course>6.85</course>
  <speed>0.0</speed>
  <fix>3d</fix>
</trkpt>
<trkpt lat="-27.2744392" lon="151.2900642">
  <ele>343.09</ele>
  <time>2026-09-01T19:50:44Z</time>
  <course>9.5</course>
  <speed>0.0282842712474619</speed>
  <fix>3d</fix>
</trkpt>
<trkpt lat="-27.274439" lon="151.290064">
  <ele>343.1</ele>
  <time>2026-09-01T19:50:44Z</time>
  <course>6.85</course>
  <speed>0.0</speed>
  <fix>3d</fix>
</trkpt>
<trkpt lat="-27.2744392" lon="151.2900641">
  <ele>343.09</ele>
  <time>2026-09-01T19:50:44Z</time>
  <course>9.51</course>
  <speed>0.0282842712474619</speed>
  <fix>3d</fix>
</trkpt>
<trkpt lat="-27.274439" lon="151.290064">
  <ele>343.1</ele>
  <time>2026-09-01T19:50:44Z</time>
  <course>6.85</course>
  <speed>0.0</speed>
  <fix>3d</fix>
</trkpt>
<trkpt lat="-27.2744392" lon="151.2900642">
  <ele>343.09</ele>
  <time>2026-09-01T19:50:44Z</time>
  <course>9.51</course>
  <speed>0.0282842712474619</speed>
  <fix>3d</fix>
</trkpt>
<trkpt lat="-27.274439" lon="151.290064">
  <ele>343.1</ele>
  <time>2026-09-01T19:50:44Z</time>
  <course>6.85</course>
  <speed>0.0</speed>
  <fix>3d</fix>
</trkpt>
<trkpt lat="-27.2744392" lon="151.2900641">
  <ele>343.09</ele>
  <time>2026-09-01T19:50:44Z</time>
  <course>9.51</course>
  <speed>0.0282842712474619</speed>
  <fix>3d</fix>
</trkpt>
<trkpt lat="-27.274439" lon="151.290064">
  <ele>343.1</ele>
  <time>2026-09-01T19:50:44Z</time>
  <course>6.85</course>
  <speed>0.0</speed>
  <fix>3d</fix>
</trkpt>
<trkpt lat="-27.2744392" lon="151.2900642">
  <ele>343.09</ele>
  <time>2026-09-01T19:50:44Z</time>
  <course>9.51</course>
  <speed>0.0282842712474619</speed>
  <fix>3d</fix>
</trkpt>
<trkpt lat="-27.274439" lon="151.290064">
  <ele>343.1</ele>
  <time>2026-09-01T19:50:44Z</time>
  <course>6.85</course>
  <speed>0.0</speed>
  <fix>3d</fix>
</trkpt>
<trkpt lat="-27.2744392" lon="151.2900641">
  <ele>343.09</ele>
  <time>2026-09-01T19:50:44Z</time>
  <course>9.51</course>
  <speed>0.0282842712474619</speed>
  <fix>3d</fix>
</trkpt>
<trkpt lat="-27.274439" lon="151.290064">
  <ele>343.1</ele>
  <time>2026-09-01T19:50:44Z</time>
  <course>6.85</course>
  <speed>0.0</speed>
  <fix>3d</fix>
</trkpt>
<trkpt lat="-27.2744392" lon="151.2900642">
  <ele>343.09</ele>
  <time>2026-09-01T19:50:44Z</time>
  <course>9.51</course>
  <speed>0.0282842712474619</speed>
  <fix>3d</fix>
</trkpt>
<trkpt lat="-27.274439" lon="151.290064">
  <ele>343.1</ele>
  <time>2026-09-01T19:50:44Z</time>
  <course>6.85</course>
  <speed>0.0</speed>
  <fix>3d</fix>
</trkpt>
<trkpt lat="-27.2744392" lon="151.2900641">
  <ele>343.09</ele>
  <time>2026-09-01T19:50:44Z</time>
  <course>9.51</course>
  <speed>0.0282842712474619</speed>
  <fix>3d</fix>
</trkpt>
<trkpt lat="-27.274439" lon="151.290064">
  <ele>343.1</ele>
  <time>2026-09-01T19:50:44Z</time>
  <course>6.85</course>
  <speed>0.0</speed>
  <fix>3d</fix>
</trkpt>
<trkpt lat="-27.2744392" lon="151.2900642">
  <ele>343.09</ele>
  <time>2026-09-01T19:50:44Z</time>
  <course>9.51</course>
  <speed>0.0282842712474619</speed>
  <fix>3d</fix>
</trkpt>
<trkpt lat="-27.274439" lon="151.290064">
  <ele>343.1</ele>
  <time>2026-09-01T19:50:44Z</time>
  <course>6.85</course>
  <speed>0.0</speed>
  <fix>3d</fix>
</trkpt>
<trkpt lat="-27.2744392" lon="151.2900641">
  <ele>343.09</ele>
  <time>2026-09-01T19:50:44Z</time>
  <course>9.51</course>
  <speed>0.0282842712474619</speed>
  <fix>3d</fix>
</trkpt>
<trkpt lat="-27.274439" lon="151.290064">
  <ele>343.1</ele>
  <time>2026-09-01T19:50:44Z</time>
  <course>6.85</course>
  <speed>0.0</speed>
  <fix>3d</fix>
</trkpt>
<trkpt lat="-27.2744392" lon="151.2900642">
  <ele>343.1</ele>
  <time>2026-09-01T19:50:44Z</time>
  <course>9.51</course>
  <speed>0.0282842712474619</speed>
  <fix>3d</fix>
</trkpt>
<trkpt lat="-27.274439" lon="151.290064">
  <ele>343.1</ele>
  <time>2026-09-01T19:50:44Z</time>
  <course>6.85</course>
  <speed>0.0</speed>
  <fix>3d</fix>
</trkpt>
<trkpt lat="-27.2744392" lon="151.2900641">
  <ele>343.1</ele>
  <time>2026-09-01T19:50:44Z</time>
  <course>9.51</course>
  <speed>0.0282842712474619</speed>
  <fix>3d</fix>
</trkpt>
<trkpt lat="-27.274439" lon="151.290064">
  <ele>343.1</ele>
  <time>2026-09-01T19:50:44Z</time>
  <course>6.85</course>
  <speed>0.0</speed>
  <fix>3d</fix>
</trkpt>
<trkpt lat="-27.2744392" lon="151.2900642">
  <ele>343.11</ele>
  <time>2026-09-01T19:50:44Z</time>
  <course>9.51</course>
  <speed>0.0282842712474619</speed>
  <fix>3d</fix>
</trkpt>
<trkpt lat="-27.274439" lon="151.290064">
  <ele>343.1</ele>
  <time>2026-09-01T19:50:44Z</time>
  <course>6.85</course>
  <speed>0.0</speed>
  <fix>3d</fix>
</trkpt>
<trkpt lat="-27.2744392" lon="151.2900641">
  <ele>343.11</ele>
  <time>2026-09-01T19:50:44Z</time>
  <course>9.51</course>
  <speed>0.0282842712474619</speed>
  <fix>3d</fix>
</trkpt>
<trkpt lat="-27.274439" lon="151.290064">
  <ele>343.1</ele>
  <time>2026-09-01T19:50:44Z</time>
  <course>6.85</course>
  <speed>0.0</speed>
  <fix>3d</fix>
</trkpt>
<trkpt lat="-27.2744392" lon="151.2900642">
  <ele>343.12</ele>
  <time>2026-09-01T19:50:44Z</time>
  <course>9.51</course>
  <speed>0.0282842712474619</speed>
  <fix>3d</fix>
</trkpt>
<trkpt lat="-27.274439" lon="151.290064">
  <ele>343.1</ele>
  <time>2026-09-01T19:50:44Z</time>
  <course>6.85</course>
  <speed>0.0</speed>
  <fix>3d</fix>
</trkpt>
<trkpt lat="-27.2744392" lon="151.2900641">
  <ele>343.1</ele>
  <time>2026-09-01T19:50:44Z</time>
  <course>9.51</course>
  <speed>0.0282842712474619</speed>
  <fix>3d</fix>
</trkpt>
<trkpt lat="-27.274439" lon="151.290064">
  <ele>343.1</ele>
  <time>2026-09-01T19:50:44Z</time>
  <course>6.85</course>
  <speed>0.0</speed>
  <fix>3d</fix>
</trkpt>
<trkpt lat="-27.2744392" lon="151.2900641">
  <ele>343.1</ele>
  <time>2026-09-01T19:50:44Z</time>
  <course>9.51</course>
  <speed>0.0282842712474619</speed>
  <fix>3d</fix>
</trkpt>
<trkpt lat="-27.274439" lon="151.290064">
  <ele>343.1</ele>
  <time>2026-09-01T19:50:44Z</time>
  <course>6.85</course>
  <speed>0.0</speed>
  <fix>3d</fix>
</trkpt>
<trkpt lat="-27.2744392" lon="151.2900641">
  <ele>343.09</ele>
  <time>2026-09-01T19:50:44Z</time>
  <course>9.51</course>
  <speed>0.0282842712474619</speed>
  <fix>3d</fix>
</trkpt>
<trkpt lat="-27.274439" lon="151.290064">
  <ele>343.1</ele>
  <time>2026-09-01T19:50:44Z</time>
  <course>6.85</course>
  <speed>0.0</speed>
  <fix>3d</fix>
</trkpt>
<trkpt lat="-27.2744392" lon="151.2900642">
  <ele>343.09</ele>
  <time>2026-09-01T19:50:44Z</time>
  <course>9.52</course>
  <speed>0.0282842712474619</speed>
  <fix>3d</fix>
</trkpt>
<trkpt lat="-27.274439" lon="151.290064">
  <ele>343.1</ele>
  <time>2026-09-01T19:50:44Z</time>
  <course>6.85</course>
  <speed>0.0</speed>
  <fix>3d</fix>
</trkpt>
<trkpt lat="-27.2744392" lon="151.2900641">
  <ele>343.09</ele>
  <time>2026-09-01T19:50:44Z</time>
  <course>9.52</course>
  <speed>0.0282842712474619</speed>
  <fix>3d</fix>
</trkpt>
<trkpt lat="-27.274439" lon="151.290064">
  <ele>343.1</ele>
  <time>2026-09-01T19:50:44Z</time>
  <course>6.85</course>
  <speed>0.0</speed>
  <fix>3d</fix>
</trkpt>
<trkpt lat="-27.2744392" lon="151.2900641">
  <ele>343.09</ele>
  <time>2026-09-01T19:50:44Z</time>
  <course>9.52</course>
  <speed>0.0282842712474619</speed>
  <fix>3d</fix>
</trkpt>
<trkpt lat="-27.274439" lon="151.290064">
  <ele>343.1</ele>
  <time>2026-09-01T19:50:44Z</time>
  <course>6.85</course>
  <speed>0.0</speed>
  <fix>3d</fix>
</trkpt>
<trkpt lat="-27.2744392" lon="151.2900641">
  <ele>343.09</ele>
  <time>2026-09-01T19:50:44Z</time>
  <course>9.52</course>
  <speed>0.0282842712474619</speed>
  <fix>3d</fix>
</trkpt>
<trkpt lat="-27.274439" lon="151.290064">
  <ele>343.1</ele>
  <time>2026-09-01T19:50:44Z</time>
  <course>6.85</course>
  <speed>0.0</speed>
  <fix>3d</fix>
</trkpt>
<trkpt lat="-27.2744392" lon="151.2900641">
  <ele>343.09</ele>
  <time>2026-09-01T19:50:44Z</time>
  <course>9.52</course>
  <speed>0.0282842712474619</speed>
  <fix>3d</fix>
</trkpt>
<trkpt lat="-27.274439" lon="151.290064">
  <ele>343.1</ele>
  <time>2026-09-01T19:50:44Z</time>
  <course>6.85</course>
  <speed>0.0</speed>
  <fix>3d</fix>
</trkpt>
<trkpt lat="-27.2744392" lon="151.2900641">
  <ele>343.09</ele>
  <time>2026-09-01T19:50:44Z</time>
  <course>9.52</course>
  <speed>0.022360679774997897</speed>
  <fix>3d</fix>
</trkpt>
<trkpt lat="-27.274439" lon="151.290064">
  <ele>343.1</ele>
  <time>2026-09-01T19:50:44Z</time>
  <course>6.85</course>
  <speed>0.0</speed>
  <fix>3d</fix>
</trkpt>
<trkpt lat="-27.2744392" lon="151.2900641">
  <ele>343.09</ele>
  <time>2026-09-01T19:50:44Z</time>
  <course>9.52</course>
  <speed>0.0282842712474619</speed>
  <fix>3d</fix>
</trkpt>
<trkpt lat="-27.274439" lon="151.290064">
  <ele>343.1</ele>
  <time>2026-09-01T19:50:44Z</time>
  <course>135.43</course>
  <speed>0.0</speed>
  <fix>3d</fix>
</trkpt>
<trkpt lat="-27.2744392" lon="151.2900641">
  <ele>343.09</ele>
  <time>2026-09-01T19:50:44Z</time>
  <course>9.52</course>
  <speed>0.022360679774997897</speed>
  <fix>3d</fix>
</trkpt>
<trkpt lat="-27.274439" lon="151.290064">
  <ele>343.1</ele>
  <time>2026-09-01T19:50:44Z</time>
  <course>135.43</course>
  <speed>0.0</speed>
  <fix>3d</fix>
</trkpt>
<trkpt lat="-27.2744392" lon="151.2900641">
  <ele>343.09</ele>
  <time>2026-09-01T19:50:44Z</time>
  <course>9.52</course>
  <speed>0.022360679774997897</speed>
  <fix>3d</fix>
</trkpt>
<trkpt lat="-27.274439" lon="151.290064">
  <ele>343.1</ele>
  <time>2026-09-01T19:50:44Z</time>
  <course>135.68</course>
  <speed>0.0</speed>
  <fix>3d</fix>
</trkpt>
<trkpt lat="-27.2744392" lon="151.2900641">
  <ele>343.09</ele>
  <time>2026-09-01T19:50:44Z</time>
  <course>9.52</course>
  <speed>0.022360679774997897</speed>
  <fix>3d</fix>
</trkpt>
<trkpt lat="-27.2744392" lon="151.2900641">
  <ele>343.09</ele>
  <time>2026-09-01T19:50:44Z</time>
  <course>9.52</course>
  <speed>0.022360679774997897</speed>
  <fix>3d</fix>
</trkpt>
<trkpt lat="-27.274439" lon="151.290064">
  <ele>343.1</ele>
  <time>2026-09-01T19:50:44Z</time>
  <course>135.68</course>
  <speed>0.0</speed>
  <fix>3d</fix>
</trkpt>
<trkpt lat="-27.2744392" lon="151.2900641">
  <ele>343.09</ele>
  <time>2026-09-01T19:50:44Z</time>
  <course>9.52</course>
  <speed>0.022360679774997897</speed>
  <fix>3d</fix>
</trkpt>
<trkpt lat="-27.2744392" lon="151.2900641">
  <ele>343.09</ele>
  <time>2026-09-01T19:50:44Z</time>
  <course>9.52</course>
  <speed>0.022360679774997897</speed>
  <fix>3d</fix>
</trkpt>
<trkpt lat="-27.274439" lon="151.290064">
  <ele>343.1</ele>
  <time>2026-09-01T19:50:44Z</time>
  <course>137.09</course>
  <speed>0.0</speed>
  <fix>3d</fix>
</trkpt>
<trkpt lat="-27.2744392" lon="151.2900641">
  <ele>343.09</ele>
  <time>2026-09-01T19:50:44Z</time>
  <course>9.52</course>
  <speed>0.022360679774997897</speed>
  <fix>3d</fix>
</trkpt>
<trkpt lat="-27.2744392" lon="151.2900641">
  <ele>343.1</ele>
  <time>2026-09-01T19:50:44Z</time>
  <course>9.52</course>
  <speed>0.022360679774997897</speed>
  <fix>3d</fix>
</trkpt>
<trkpt lat="-27.274439" lon="151.290064">
  <ele>343.1</ele>
  <time>2026-09-01T19:50:44Z</time>
  <course>137.09</course>
  <speed>0.0</speed>
  <fix>3d</fix>
</trkpt>
<trkpt lat="-27.2744392" lon="151.2900641">
  <ele>343.1</ele>
  <time>2026-09-01T19:50:44Z</time>
  <course>9.52</course>
  <speed>0.022360679774997897</speed>
  <fix>3d</fix>
</trkpt>
<trkpt lat="-27.2744392" lon="151.2900641">
  <ele>343.1</ele>
  <time>2026-09-01T19:50:44Z</time>
  <course>9.52</course>
  <speed>0.022360679774997897</speed>
  <fix>3d</fix>
</trkpt>
<trkpt lat="-27.274439" lon="151.290064">
  <ele>343.1</ele>
  <time>2026-09-01T19:50:44Z</time>
  <course>315.28</course>
  <speed>0.0</speed>
  <fix>3d</fix>
</trkpt>
<trkpt lat="-27.2744392" lon="151.2900641">
  <ele>343.1</ele>
  <time>2026-09-01T19:50:44Z</time>
  <course>9.52</course>
  <speed>0.022360679774997897</speed>
  <fix>3d</fix>
</trkpt>
<trkpt lat="-27.2744392" lon="151.2900641">
  <ele>343.1</ele>
  <time>2026-09-01T19:50:44Z</time>
  <course>9.52</course>
  <speed>0.022360679774997897</speed>
  <fix>3d</fix>
</trkpt>
<trkpt lat="-27.274439" lon="151.290064">
  <ele>343.1</ele>
  <time>2026-09-01T19:50:44Z</time>
  <course>315.28</course>
  <speed>0.0</speed>
  <fix>3d</fix>
</trkpt>
<trkpt lat="-27.2744392" lon="151.2900641">
  <ele>343.1</ele>
  <time>2026-09-01T19:50:44Z</time>
  <course>9.52</course>
  <speed>0.022360679774997897</speed>
  <fix>3d</fix>
</trkpt>
<trkpt lat="-27.2744392" lon="151.2900641">
  <ele>343.1</ele>
  <time>2026-09-01T19:50:44Z</time>
  <course>9.52</course>
  <speed>0.022360679774997897</speed>
  <fix>3d</fix>
</trkpt>
<trkpt lat="-27.274439" lon="151.290064">
  <ele>343.1</ele>
  <time>2026-09-01T19:50:44Z</time>
  <course>316.09</course>
  <speed>0.0</speed>
  <fix>3d</fix>
</trkpt>
<trkpt lat="-27.2744392" lon="151.2900641">
  <ele>343.1</ele>
  <time>2026-09-01T19:50:44Z</time>
  <course>9.52</course>
  <speed>0.022360679774997897</speed>
  <fix>3d</fix>
</trkpt>
<trkpt lat="-27.2744392" lon="151.2900641">
  <ele>343.1</ele>
  <time>2026-09-01T19:50:44Z</time>
  <course>9.52</course>
  <speed>0.022360679774997897</speed>
  <fix>3d</fix>
</trkpt>
<trkpt lat="-27.274439" lon="151.290064">
  <ele>343.1</ele>
  <time>2026-09-01T19:50:44Z</time>
  <course>316.09</course>
  <speed>0.0</speed>
  <fix>3d</fix>
</trkpt>
<trkpt lat="-27.2744392" lon="151.2900641">
  <ele>343.1</ele>
  <time>2026-09-01T19:50:44Z</time>
  <course>9.52</course>
  <speed>0.022360679774997897</speed>
  <fix>3d</fix>
</trkpt>
<trkpt lat="-27.2744392" lon="151.2900641">
  <ele>343.1</ele>
  <time>2026-09-01T19:50:44Z</time>
  <course>9.53</course>
  <speed>0.022360679774997897</speed>
  <fix>3d</fix>
</trkpt>
<trkpt lat="-27.274439" lon="151.290064">
  <ele>343.1</ele>
  <time>2026-09-01T19:50:44Z</time>
  <course>336.71</course>
  <speed>0.0</speed>
  <fix>3d</fix>
</trkpt>
<trkpt lat="-27.2744392" lon="151.2900641">
  <ele>343.1</ele>
  <time>2026-09-01T19:50:44Z</time>
  <course>9.53</course>
  <speed>0.022360679774997897</speed>
  <fix>3d</fix>
</trkpt>
<trkpt lat="-27.2744392" lon="151.2900641">
  <ele>343.11</ele>
  <time>2026-09-01T19:50:44Z</time>
  <course>9.53</course>
  <speed>0.022360679774997897</speed>
  <fix>3d</fix>
</trkpt>
<trkpt lat="-27.274439" lon="151.290064">
  <ele>343.1</ele>
  <time>2026-09-01T19:50:44Z</time>
  <course>336.71</course>
  <speed>0.0</speed>
  <fix>3d</fix>
</trkpt>
<trkpt lat="-27.2744392" lon="151.2900641">
  <ele>343.12</ele>
  <time>2026-09-01T19:50:44Z</time>
  <course>9.53</course>
  <speed>0.0282842712474619</speed>
  <fix>3d</fix>
</trkpt>
<trkpt lat="-27.2744392" lon="151.2900641">
  <ele>343.14</ele>
  <time>2026-09-01T19:50:44Z</time>
  <course>9.53</course>
  <speed>0.0282842712474619</speed>
  <fix>3d</fix>
</trkpt>
<trkpt lat="-27.274439" lon="151.290064">
  <ele>343.11</ele>
  <time>2026-09-01T19:50:44Z</time>
  <course>4.66</course>
  <speed>0.0</speed>
  <fix>3d</fix>
</trkpt>
<trkpt lat="-27.2744392" lon="151.2900641">
  <ele>343.14</ele>
  <time>2026-09-01T19:50:44Z</time>
  <course>9.53</course>
  <speed>0.0282842712474619</speed>
  <fix>3d</fix>
</trkpt>
<trkpt lat="-27.2744392" lon="151.2900641">
  <ele>343.17</ele>
  <time>2026-09-01T19:50:44Z</time>
  <course>9.53</course>
  <speed>0.0282842712474619</speed>
  <fix>3d</fix>
</trkpt>
<trkpt lat="-27.274439" lon="151.290064">
  <ele>343.11</ele>
  <time>2026-09-01T19:50:44Z</time>
  <course>4.66</course>
  <speed>0.0</speed>
  <fix>3d</fix>
</trkpt>
<trkpt lat="-27.2744392" lon="151.2900641">
  <ele>343.19</ele>
  <time>2026-09-01T19:50:44Z</time>
  <course>9.53</course>
  <speed>0.0282842712474619</speed>
  <fix>3d</fix>
</trkpt>
<trkpt lat="-27.2744392" lon="151.2900641">
  <ele>343.23</ele>
  <time>2026-09-01T19:50:44Z</time>
  <course>9.53</course>
  <speed>0.0282842712474619</speed>
  <fix>3d</fix>
</trkpt>
<trkpt lat="-27.274439" lon="151.290064">
  <ele>343.18</ele>
  <time>2026-09-01T19:50:44Z</time>
  <course>352.54</course>
  <speed>0.0</speed>
  <fix>3d</fix>
</trkpt>
<trkpt lat="-27.2744392" lon="151.2900641">
  <ele>343.23</ele>
  <time>2026-09-01T19:50:44Z</time>
  <course>9.53</course>
  <speed>0.0282842712474619</speed>
  <fix>3d</fix>
</trkpt>
<trkpt lat="-27.2744392" lon="151.2900641">
  <ele>343.33</ele>
  <time>2026-09-01T19:50:44Z</time>
  <course>9.6</course>
  <speed>0.01</speed>
  <fix>3d</fix>
</trkpt>
<trkpt lat="-27.274439" lon="151.290064">
  <ele>343.18</ele>
  <time>2026-09-01T19:50:44Z</time>
  <course>352.54</course>
  <speed>0.0</speed>
  <fix>3d</fix>
</trkpt>
<trkpt lat="-27.2744392" lon="151.2900641">
  <ele>343.33</ele>
  <time>2026-09-01T19:50:44Z</time>
  <course>9.6</course>
  <speed>0.01</speed>
  <fix>3d</fix>
</trkpt>
<trkpt lat="-27.2744392" lon="151.2900641">
  <ele>343.49</ele>
  <time>2026-09-01T19:50:44Z</time>
  <course>9.67</course>
  <speed>0.0412310562561766</speed>
  <fix>3d</fix>
</trkpt>
<trkpt lat="-27.274439" lon="151.290064">
  <ele>343.36</ele>
  <time>2026-09-01T19:50:44Z</time>
  <course>343.96</course>
  <speed>0.05</speed>
  <fix>3d</fix>
</trkpt>
<trkpt lat="-27.2744392" lon="151.2900641">
  <ele>343.55</ele>
  <time>2026-09-01T19:50:44Z</time>
  <course>9.68</course>
  <speed>0.06</speed>
  <fix>3d</fix>
</trkpt>
<trkpt lat="-27.2744391" lon="151.2900641">
  <ele>343.71</ele>
  <time>2026-09-01T19:50:44Z</time>
  <course>9.67</course>
  <speed>0.09</speed>
  <fix>3d</fix>
</trkpt>
<trkpt lat="-27.274439" lon="151.290064">
  <ele>343.36</ele>
  <time>2026-09-01T19:50:44Z</time>
  <course>343.96</course>
  <speed>0.05</speed>
  <fix>3d</fix>
</trkpt>
<trkpt lat="-27.2744391" lon="151.2900641">
  <ele>343.77</ele>
  <time>2026-09-01T19:50:44Z</time>
  <course>9.66</course>
  <speed>0.11</speed>
  <fix>3d</fix>
</trkpt>
<trkpt lat="-27.274439" lon="151.2900641">
  <ele>343.94</ele>
  <time>2026-09-01T19:50:44Z</time>
  <course>9.59</course>
  <speed>0.14</speed>
  <fix>3d</fix>
</trkpt>
<trkpt lat="-27.2744389" lon="151.2900639">
  <ele>343.7</ele>
  <time>2026-09-01T19:50:44Z</time>
  <course>345.82</course>
  <speed>0.14</speed>
  <fix>3d</fix>
</trkpt>
<trkpt lat="-27.2744389" lon="151.2900641">
  <ele>344.0</ele>
  <time>2026-09-01T19:50:44Z</time>
  <course>9.56</course>
  <speed>0.15</speed>
  <fix>3d</fix>
</trkpt>
<trkpt lat="-27.2744388" lon="151.2900641">
  <ele>344.17</ele>
  <time>2026-09-01T19:50:44Z</time>
  <course>9.44</course>
  <speed>0.18</speed>
  <fix>3d</fix>
</trkpt>
<trkpt lat="-27.2744389" lon="151.2900639">
  <ele>343.7</ele>
  <time>2026-09-01T19:50:44Z</time>
  <course>345.82</course>
  <speed>0.14</speed>
  <fix>3d</fix>
</trkpt>
<trkpt lat="-27.2744387" lon="151.2900641">
  <ele>344.23</ele>
  <time>2026-09-01T19:50:44Z</time>
  <course>9.4</course>
  <speed>0.19</speed>
  <fix>3d</fix>
</trkpt>
<trkpt lat="-27.2744386" lon="151.2900641">
  <ele>344.39</ele>
  <time>2026-09-01T19:50:44Z</time>
  <course>9.27</course>
  <speed>0.22</speed>
  <fix>3d</fix>
</trkpt>
<trkpt lat="-27.2744385" lon="151.2900638">
  <ele>344.15</ele>
  <time>2026-09-01T19:50:44Z</time>
  <course>348.03</course>
  <speed>0.23</speed>
  <fix>3d</fix>
</trkpt>
<trkpt lat="-27.2744385" lon="151.2900641">
  <ele>344.45</ele>
  <time>2026-09-01T19:50:44Z</time>
  <course>9.22</course>
  <speed>0.23</speed>
  <fix>3d</fix>
</trkpt>
<trkpt lat="-27.2744383" lon="151.2900641">
  <ele>344.62</ele>
  <time>2026-09-01T19:50:44Z</time>
  <course>9.1</course>
  <speed>0.2501999200639361</speed>
  <fix>3d</fix>
</trkpt>
<trkpt lat="-27.2744385" lon="151.2900638">
  <ele>344.15</ele>
  <time>2026-09-01T19:50:44Z</time>
  <course>348.03</course>
  <speed>0.23</speed>
  <fix>3d</fix>
</trkpt>
<trkpt lat="-27.2744383" lon="151.2900641">
  <ele>344.68</ele>
  <time>2026-09-01T19:50:44Z</time>
  <course>9.06</course>
  <speed>0.2601922366251538</speed>
  <fix>3d</fix>
</trkpt>
<trkpt lat="-27.2744381" lon="151.290064">
  <ele>344.85</ele>
  <time>2026-09-01T19:50:45Z</time>
  <course>8.96</course>
  <speed>0.27018512172212594</speed>
  <fix>3d</fix>
</trkpt>
<trkpt lat="-27.2744381" lon="151.2900637">
  <ele>344.61</ele>
  <time>2026-09-01T19:50:45Z</time>
  <course>349.41</course>
  <speed>0.29</speed>
  <fix>3d</fix>
</trkpt>
<trkpt lat="-27.274438" lon="151.290064">
  <ele>344.9</ele>
  <time>2026-09-01T19:50:45Z</time>
  <course>8.93</course>
  <speed>0.280178514522438</speed>
  <fix>3d</fix>
</trkpt>
<trkpt lat="-27.2744378" lon="151.290064">
  <ele>345.08</ele>
  <time>2026-09-01T19:50:45Z</time>
  <course>8.1</course>
  <speed>0.29017236257093815</speed>
  <fix>3d</fix>
</trkpt>
<trkpt lat="-27.2744381" lon="151.2900637">
  <ele>344.61</ele>
  <time>2026-09-01T19:50:45Z</time>
  <course>349.41</course>
  <speed>0.29</speed>
  <fix>3d</fix>
</trkpt>
<trkpt lat="-27.2744377" lon="151.290064">
  <ele>345.13</ele>
  <time>2026-09-01T19:50:45Z</time>
  <course>8.07</course>
  <speed>0.29017236257093815</speed>
  <fix>3d</fix>
</trkpt>
<trkpt lat="-27.2744375" lon="151.2900639">
  <ele>345.29</ele>
  <time>2026-09-01T19:50:45Z</time>
  <course>8.0</course>
  <speed>0.30016662039607267</speed>
  <fix>3d</fix>
</trkpt>
<trkpt lat="-27.2744376" lon="151.2900636">
  <ele>345.06</ele>
  <time>2026-09-01T19:50:45Z</time>
  <course>350.45</course>
  <speed>0.33</speed>
  <fix>3d</fix>
</trkpt>
<trkpt lat="-27.2744374" lon="151.2900639">
  <ele>345.35</ele>
  <time>2026-09-01T19:50:45Z</time>
  <course>7.99</course>
  <speed>0.30016662039607267</speed>
  <fix>3d</fix>
</trkpt>
<trkpt lat="-27.2744372" lon="151.2900639">
  <ele>345.51</ele>
  <time>2026-09-01T19:50:45Z</time>
  <course>7.98</course>
  <speed>0.3101612483854165</speed>
  <fix>3d</fix>
</trkpt>
<trkpt lat="-27.2744376" lon="151.2900636">
  <ele>345.06</ele>
  <time>2026-09-01T19:50:45Z</time>
  <course>350.45</course>
  <speed>0.33</speed>
  <fix>3d</fix>
</trkpt>
<trkpt lat="-27.2744372" lon="151.2900639">
  <ele>345.51</ele>
  <time>2026-09-01T19:50:45Z</time>
  <course>7.99</course>
  <speed>0.3101612483854165</speed>
  <fix>3d</fix>
</trkpt>
<trkpt lat="-27.2744369" lon="151.2900638">
  <ele>345.71</ele>
  <time>2026-09-01T19:50:45Z</time>
  <course>8.04</course>
  <speed>0.3101612483854165</speed>
  <fix>3d</fix>
</trkpt>
<trkpt lat="-27.2744369" lon="151.2900635">
  <ele>345.49</ele>
  <time>2026-09-01T19:50:45Z</time>
  <course>351.06</course>
  <speed>0.35</speed>
  <fix>3d</fix>
</trkpt>
<trkpt lat="-27.2744369" lon="151.2900638">
  <ele>345.72</ele>
  <time>2026-09-01T19:50:45Z</time>
  <course>8.04</course>
  <speed>0.3101612483854165</speed>
  <fix>3d</fix>
</trkpt>
<trkpt lat="-27.2744366" lon="151.2900638">
  <ele>345.91</ele>
  <time>2026-09-01T19:50:45Z</time>
  <course>8.12</course>
  <speed>0.30066592756745814</speed>
  <fix>3d</fix>
</trkpt>
<trkpt lat="-27.2744369" lon="151.2900635">
  <ele>345.49</ele>
  <time>2026-09-01T19:50:45Z</time>
  <course>351.06</course>
  <speed>0.35</speed>
  <fix>3d</fix>
</trkpt>
<trkpt lat="-27.2744365" lon="151.2900637">
  <ele>345.95</ele>
  <time>2026-09-01T19:50:45Z</time>
  <course>8.14</course>
  <speed>0.30066592756745814</speed>
  <fix>3d</fix>
</trkpt>
<trkpt lat="-27.2744363" lon="151.2900637">
  <ele>346.09</ele>
  <time>2026-09-01T19:50:45Z</time>
  <course>8.21</course>
  <speed>0.2906888370749727</speed>
  <fix>3d</fix>
</trkpt>
<trkpt lat="-27.2744363" lon="151.2900634">
  <ele>345.88</ele>
  <time>2026-09-01T19:50:45Z</time>
  <course>351.23</course>
  <speed>0.34</speed>
  <fix>3d</fix>
</trkpt>
<trkpt lat="-27.2744362" lon="151.2900637">
  <ele>346.13</ele>
  <time>2026-09-01T19:50:45Z</time>
  <course>8.24</course>
  <speed>0.2906888370749727</speed>
  <fix>3d</fix>
</trkpt>
<trkpt lat="-27.274436" lon="151.2900636">
  <ele>346.26</ele>
  <time>2026-09-01T19:50:45Z</time>
  <course>8.31</course>
  <speed>0.280713376952364</speed>
  <fix>3d</fix>
</trkpt>
<trkpt lat="-27.2744363" lon="151.2900634">
  <ele>345.88</ele>
  <time>2026-09-01T19:50:45Z</time>
  <course>351.23</course>
  <speed>0.34</speed>
  <fix>3d</fix>
</trkpt>
<trkpt lat="-27.2744359" lon="151.2900636">
  <ele>346.31</ele>
  <time>2026-09-01T19:50:45Z</time>
  <course>8.33</course>
  <speed>0.280713376952364</speed>
  <fix>3d</fix>
</trkpt>
<trkpt lat="-27.2744357" lon="151.2900636">
  <ele>346.43</ele>
  <time>2026-09-01T19:50:45Z</time>
  <course>8.39</course>
  <speed>0.260768096208106</speed>
  <fix>3d</fix>
</trkpt>
<trkpt lat="-27.2744357" lon="151.2900633">
  <ele>346.24</ele>
  <time>2026-09-01T19:50:45Z</time>
  <course>351.11</course>
  <speed>0.31</speed>
  <fix>3d</fix>
</trkpt>
<trkpt lat="-27.2744356" lon="151.2900636">
  <ele>346.47</ele>
  <time>2026-09-01T19:50:45Z</time>
  <course>8.41</course>
  <speed>0.260768096208106</speed>
  <fix>3d</fix>
</trkpt>
<trkpt lat="-27.2744355" lon="151.2900635">
  <ele>346.58</ele>
  <time>2026-09-01T19:50:45Z</time>
  <course>8.46</course>
  <speed>0.24083189157584592</speed>
  <fix>3d</fix>
</trkpt>
<trkpt lat="-27.2744357" lon="151.2900633">
  <ele>346.24</ele>
  <time>2026-09-01T19:50:45Z</time>
  <course>351.11</course>
  <speed>0.31</speed>
  <fix>3d</fix>
</trkpt>
<trkpt lat="-27.2744354" lon="151.2900635">
  <ele>346.62</ele>
  <time>2026-09-01T19:50:45Z</time>
  <course>8.48</course>
  <speed>0.24083189157584592</speed>
  <fix>3d</fix>
</trkpt>
<trkpt lat="-27.2744352" lon="151.2900635">
  <ele>346.73</ele>
  <time>2026-09-01T19:50:45Z</time>
  <course>8.52</course>
  <speed>0.22090722034374521</speed>
  <fix>3d</fix>
</trkpt>
<trkpt lat="-27.2744352" lon="151.2900632">
  <ele>346.56</ele>
  <time>2026-09-01T19:50:45Z</time>
  <course>350.8</course>
  <speed>0.28</speed>
  <fix>3d</fix>
</trkpt>
<trkpt lat="-27.2744352" lon="151.2900635">
  <ele>346.77</ele>
  <time>2026-09-01T19:50:45Z</time>
  <course>8.53</course>
  <speed>0.2109502310972899</speed>
  <fix>3d</fix>
</trkpt>
<trkpt lat="-27.274435" lon="151.2900634">
  <ele>346.88</ele>
  <time>2026-09-01T19:50:45Z</time>
  <course>8.56</course>
  <speed>0.2009975124224178</speed>
  <fix>3d</fix>
</trkpt>
<trkpt lat="-27.2744352" lon="151.2900632">
  <ele>346.56</ele>
  <time>2026-09-01T19:50:45Z</time>
  <course>350.8</course>
  <speed>0.28</speed>
  <fix>3d</fix>
</trkpt>
<trkpt lat="-27.274435" lon="151.2900634">
  <ele>346.88</ele>
  <time>2026-09-01T19:50:45Z</time>
  <course>8.56</course>
  <speed>0.2009975124224178</speed>
  <fix>3d</fix>
</trkpt>
<trkpt lat="-27.2744348" lon="151.2900634">
  <ele>347.02</ele>
  <time>2026-09-01T19:50:45Z</time>
  <course>8.58</course>
  <speed>0.1711724276862369</speed>
  <fix>3d</fix>
</trkpt>
<trkpt lat="-27.2744348" lon="151.2900631">
  <ele>346.84</ele>
  <time>2026-09-01T19:50:45Z</time>
  <course>350.35</course>
  <speed>0.23</speed>
  <fix>3d</fix>
</trkpt>
<trkpt lat="-27.2744348" lon="151.2900633">
  <ele>347.06</ele>
  <time>2026-09-01T19:50:45Z</time>
  <course>8.59</course>
  <speed>0.16124515496597097</speed>
  <fix>3d</fix>
</trkpt>
<trkpt lat="-27.2744346" lon="151.2900633">
  <ele>347.15</ele>
  <time>2026-09-01T19:50:45Z</time>
  <course>8.6</course>
  <speed>0.140356688476182</speed>
  <fix>3d</fix>
</trkpt>
<trkpt lat="-27.2744348" lon="151.2900631">
  <ele>346.84</ele>
  <time>2026-09-01T19:50:45Z</time>
  <course>350.35</course>
  <speed>0.23</speed>
  <fix>3d</fix>
</trkpt>
<trkpt lat="-27.2744346" lon="151.2900633">
  <ele>347.19</ele>
  <time>2026-09-01T19:50:45Z</time>
  <course>8.6</course>
  <speed>0.130384048104053</speed>
  <fix>3d</fix>
</trkpt>
<trkpt lat="-27.2744345" lon="151.2900633">
  <ele>347.29</ele>
  <time>2026-09-01T19:50:45Z</time>
  <course>8.61</course>
  <speed>0.11045361017187261</speed>
  <fix>3d</fix>
</trkpt>
<trkpt lat="-27.2744343" lon="151.2900631">
  <ele>347.12</ele>
  <time>2026-09-01T19:50:45Z</time>
  <course>349.85</course>
  <speed>0.17</speed>
  <fix>3d</fix>
</trkpt>
<trkpt lat="-27.2744345" lon="151.2900633">
  <ele>347.29</ele>
  <time>2026-09-01T19:50:45Z</time>
  <course>8.61</course>
  <speed>0.11045361017187261</speed>
  <fix>3d</fix>
</trkpt>
<trkpt lat="-27.2744344" lon="151.2900632">
  <ele>347.42</ele>
  <time>2026-09-01T19:50:45Z</time>
  <course>8.61</course>
  <speed>0.08062257748298549</speed>
  <fix>3d</fix>
</trkpt>
<trkpt lat="-27.2744343" lon="151.2900631">
  <ele>347.12</ele>
  <time>2026-09-01T19:50:45Z</time>
  <course>349.85</course>
  <speed>0.17</speed>
  <fix>3d</fix>
</trkpt>
<trkpt lat="-27.2744344" lon="151.2900632">
  <ele>347.43</ele>
  <time>2026-09-01T19:50:45Z</time>
  <course>8.61</course>
  <speed>0.08062257748298549</speed>
  <fix>3d</fix>
</trkpt>
<trkpt lat="-27.2744343" lon="151.2900632">
  <ele>347.55</ele>
  <time>2026-09-01T19:50:45Z</time>
  <course>8.61</course>
  <speed>0.05</speed>
  <fix>3d</fix>
</trkpt>
<trkpt lat="-27.2744341" lon="151.290063">
  <ele>347.39</ele>
  <time>2026-09-01T19:50:45Z</time>
  <course>349.53</course>
  <speed>0.11</speed>
  <fix>3d</fix>
</trkpt>
<trkpt lat="-27.2744343" lon="151.2900632">
  <ele>347.59</ele>
  <time>2026-09-01T19:50:45Z</time>
  <course>8.61</course>
  <speed>0.04</speed>
  <fix>3d</fix>
</trkpt>
<trkpt lat="-27.2744342" lon="151.2900632">
  <ele>347.68</ele>
  <time>2026-09-01T19:50:45Z</time>
  <course>8.61</course>
  <speed>0.02</speed>
  <fix>3d</fix>
</trkpt>
<trkpt lat="-27.2744341" lon="151.290063">
  <ele>347.39</ele>
  <time>2026-09-01T19:50:45Z</time>
  <course>349.53</course>
  <speed>0.11</speed>
  <fix>3d</fix>
</trkpt>
<trkpt lat="-27.2744342" lon="151.2900632">
  <ele>347.71</ele>
  <time>2026-09-01T19:50:45Z</time>
  <course>8.61</course>
  <speed>0.01</speed>
  <fix>3d</fix>
</trkpt>
<trkpt lat="-27.2744342" lon="151.2900632">
  <ele>347.82</ele>
  <time>2026-09-01T19:50:45Z</time>
  <course>8.62</course>
  <speed>0.0</speed>
  <fix>3d</fix>
</trkpt>
<trkpt lat="-27.274434" lon="151.290063">
  <ele>347.65</ele>
  <time>2026-09-01T19:50:45Z</time>
  <course>350.42</course>
  <speed>0.05</speed>
  <fix>3d</fix>
</trkpt>
<trkpt lat="-27.2744342" lon="151.2900631">
  <ele>347.85</ele>
  <time>2026-09-01T19:50:45Z</time>
  <course>8.62</course>
  <speed>0.01</speed>
  <fix>3d</fix>
</trkpt>
<trkpt lat="-27.2744342" lon="151.2900631">
  <ele>347.95</ele>
  <time>2026-09-01T19:50:45Z</time>
  <course>8.63</course>
  <speed>0.03</speed>
  <fix>3d</fix>
</trkpt>
<trkpt lat="-27.274434" lon="151.290063">
  <ele>347.65</ele>
  <time>2026-09-01T19:50:45Z</time>
  <course>350.42</course>
  <speed>0.05</speed>
  <fix>3d</fix>
</trkpt>
<trkpt lat="-27.2744342" lon="151.2900631">
  <ele>347.99</ele>
  <time>2026-09-01T19:50:45Z</time>
  <course>8.64</course>
  <speed>0.03</speed>
  <fix>3d</fix>
</trkpt>
<trkpt lat="-27.2744342" lon="151.2900631">
  <ele>348.09</ele>
  <time>2026-09-01T19:50:45Z</time>
  <course>8.66</course>
  <speed>0.05</speed>
  <fix>3d</fix>
</trkpt>
<trkpt lat="-27.274434" lon="151.290063">
  <ele>347.91</ele>
  <time>2026-09-01T19:50:45Z</time>
  <course>147.98</course>
  <speed>0.0</speed>
  <fix>3d</fix>
</trkpt>
<trkpt lat="-27.2744342" lon="151.2900631">
  <ele>348.13</ele>
  <time>2026-09-01T19:50:45Z</time>
  <course>8.68</course>
  <speed>0.06</speed>
  <fix>3d</fix>
</trkpt>
<trkpt lat="-27.2744343" lon="151.2900631">
  <ele>348.23</ele>
  <time>2026-09-01T19:50:45Z</time>
  <course>8.74</course>
  <speed>0.07</speed>
  <fix>3d</fix>
</trkpt>
<trkpt lat="-27.274434" lon="151.290063">
  <ele>347.91</ele>
  <time>2026-09-01T19:50:45Z</time>
  <course>147.98</course>
  <speed>0.0</speed>
  <fix>3d</fix>
</trkpt>
<trkpt lat="-27.2744342" lon="151.2900631">
  <ele>348.27</ele>
  <time>2026-09-01T19:50:45Z</time>
  <course>8.8</course>
  <speed>0.08</speed>
  <fix>3d</fix>
</trkpt>
<trkpt lat="-27.2744342" lon="151.2900631">
  <ele>348.37</ele>
  <time>2026-09-01T19:50:45Z</time>
  <course>9.0</course>
  <speed>0.09</speed>
  <fix>3d</fix>
</trkpt>
<trkpt lat="-27.274434" lon="151.290063">
  <ele>348.18</ele>
  <time>2026-09-01T19:50:45Z</time>
  <course>174.04</course>
  <speed>0.05</speed>
  <fix>3d</fix>
</trkpt>
<trkpt lat="-27.2744342" lon="151.2900631">
  <ele>348.4</ele>
  <time>2026-09-01T19:50:45Z</time>
  <course>9.08</course>
  <speed>0.1</speed>
  <fix>3d</fix>
</trkpt>
<trkpt lat="-27.2744343" lon="151.2900631">
  <ele>348.51</ele>
  <time>2026-09-01T19:50:45Z</time>
  <course>9.31</course>
  <speed>0.11</speed>
  <fix>3d</fix>
</trkpt>
<trkpt lat="-27.274434" lon="151.290063">
  <ele>348.18</ele>
  <time>2026-09-01T19:50:45Z</time>
  <course>174.04</course>
  <speed>0.05</speed>
  <fix>3d</fix>
</trkpt>
<trkpt lat="-27.2744343" lon="151.2900631">
  <ele>348.55</ele>
  <time>2026-09-01T19:50:45Z</time>
  <course>9.39</course>
  <speed>0.12</speed>
  <fix>3d</fix>
</trkpt>
<trkpt lat="-27.2744344" lon="151.2900631">
  <ele>348.66</ele>
  <time>2026-09-01T19:50:45Z</time>
  <course>9.59</course>
  <speed>0.13</speed>
  <fix>3d</fix>
</trkpt>
<trkpt lat="-27.274434" lon="151.290063">
  <ele>348.46</ele>
  <time>2026-09-01T19:50:45Z</time>
  <course>179.69</course>
  <speed>0.09</speed>
  <fix>3d</fix>
</trkpt>
<trkpt lat="-27.2744344" lon="151.2900631">
  <ele>348.66</ele>
  <time>2026-09-01T19:50:45Z</time>
  <course>9.6</course>
  <speed>0.13</speed>
  <fix>3d</fix>
</trkpt>
<trkpt lat="-27.2744345" lon="151.2900631">
  <ele>348.8</ele>
  <time>2026-09-01T19:50:45Z</time>
  <course>9.8</course>
  <speed>0.14</speed>
  <fix>3d</fix>
</trkpt>
<trkpt lat="-27.274434" lon="151.290063">
  <ele>348.46</ele>
  <time>2026-09-01T19:50:45Z</time>
  <course>179.69</course>
  <speed>0.09</speed>
  <fix>3d</fix>
</trkpt>
<trkpt lat="-27.2744345" lon="151.2900631">
  <ele>348.8</ele>
  <time>2026-09-01T19:50:45Z</time>
  <course>9.81</course>
  <speed>0.14</speed>
  <fix>3d</fix>
</trkpt>
<trkpt lat="-27.2744346" lon="151.2900631">
  <ele>348.94</ele>
  <time>2026-09-01T19:50:45Z</time>
  <course>9.96</course>
  <speed>0.15</speed>
  <fix>3d</fix>
</trkpt>
<trkpt lat="-27.2744342" lon="151.290063">
  <ele>348.74</ele>
  <time>2026-09-01T19:50:45Z</time>
  <course>181.13</course>
  <speed>0.12</speed>
  <fix>3d</fix>
</trkpt>
<trkpt lat="-27.2744346" lon="151.2900631">
  <ele>348.94</ele>
  <time>2026-09-01T19:50:45Z</time>
  <course>9.96</course>
  <speed>0.15</speed>
  <fix>3d</fix>
</trkpt>
<trkpt lat="-27.2744347" lon="151.2900631">
  <ele>349.08</ele>
  <time>2026-09-01T19:50:45Z</time>
  <course>10.05</course>
  <speed>0.16</speed>
  <fix>3d</fix>
</trkpt>
<trkpt lat="-27.2744342" lon="151.290063">
  <ele>348.74</ele>
  <time>2026-09-01T19:50:45Z</time>
  <course>181.13</course>
  <speed>0.12</speed>
  <fix>3d</fix>
</trkpt>
<trkpt lat="-27.2744347" lon="151.2900631">
  <ele>349.12</ele>
  <time>2026-09-01T19:50:45Z</time>
  <course>10.06</course>
  <speed>0.16</speed>
  <fix>3d</fix>
</trkpt>
<trkpt lat="-27.2744348" lon="151.2900631">
  <ele>349.23</ele>
  <time>2026-09-01T19:50:45Z</time>
  <course>10.09</course>
  <speed>0.17</speed>
  <fix>3d</fix>
</trkpt>
<trkpt lat="-27.2744345" lon="151.290063">
  <ele>349.02</ele>
  <time>2026-09-01T19:50:45Z</time>
  <course>181.86</course>
  <speed>0.14</speed>
  <fix>3d</fix>
</trkpt>
<trkpt lat="-27.2744349" lon="151.2900631">
  <ele>349.27</ele>
  <time>2026-09-01T19:50:45Z</time>
  <course>10.1</course>
  <speed>0.17029386365926402</speed>
  <fix>3d</fix>
</trkpt>
<trkpt lat="-27.274435" lon="151.290063">
  <ele>349.38</ele>
  <time>2026-09-01T19:50:45Z</time>
  <course>10.1</course>
  <speed>0.18027756377319945</speed>
  <fix>3d</fix>
</trkpt>
<trkpt lat="-27.2744345" lon="151.290063">
  <ele>349.02</ele>
  <time>2026-09-01T19:50:45Z</time>
  <course>181.86</course>
  <speed>0.14</speed>
  <fix>3d</fix>
</trkpt>
<trkpt lat="-27.274435" lon="151.290063">
  <ele>349.41</ele>
  <time>2026-09-01T19:50:45Z</time>
  <course>10.09</course>
  <speed>0.18</speed>
  <fix>3d</fix>
</trkpt>
<trkpt lat="-27.2744351" lon="151.290063">
  <ele>349.52</ele>
  <time>2026-09-01T19:50:45Z</time>
  <course>10.07</course>
  <speed>0.18027756377319945</speed>
  <fix>3d</fix>
</trkpt>
<trkpt lat="-27.2744347" lon="151.290063">
  <ele>349.32</ele>
  <time>2026-09-01T19:50:45Z</time>
  <course>182.04</course>
  <speed>0.16</speed>
  <fix>3d</fix>
</trkpt>
<trkpt lat="-27.2744351" lon="151.290063">
  <ele>349.56</ele>
  <time>2026-09-01T19:50:45Z</time>
  <course>10.07</course>
  <speed>0.19026297590440447</speed>
  <fix>3d</fix>
</trkpt>
<trkpt lat="-27.2744352" lon="151.290063">
  <ele>349.67</ele>
  <time>2026-09-01T19:50:45Z</time>
  <course>10.04</course>
  <speed>0.191049731745428</speed>
  <fix>3d</fix>
</trkpt>
<trkpt lat="-27.2744347" lon="151.290063">
  <ele>349.32</ele>
  <time>2026-09-01T19:50:45Z</time>
  <course>182.04</course>
  <speed>0.16</speed>
  <fix>3d</fix>
</trkpt>
<trkpt lat="-27.2744353" lon="151.290063">
  <ele>349.71</ele>
  <time>2026-09-01T19:50:45Z</time>
  <course>10.04</course>
  <speed>0.191049731745428</speed>
  <fix>3d</fix>
</trkpt>
<trkpt lat="-27.2744354" lon="151.290063">
  <ele>349.81</ele>
  <time>2026-09-01T19:50:45Z</time>
  <course>10.02</course>
  <speed>0.19026297590440447</speed>
  <fix>3d</fix>
</trkpt>
<trkpt lat="-27.274435" lon="151.290063">
  <ele>349.61</ele>
  <time>2026-09-01T19:50:45Z</time>
  <course>182.03</course>
  <speed>0.17</speed>
  <fix>3d</fix>
</trkpt>
<trkpt lat="-27.2744354" lon="151.290063">
  <ele>349.85</ele>
  <time>2026-09-01T19:50:45Z</time>
  <course>10.02</course>
  <speed>0.19026297590440447</speed>
  <fix>3d</fix>
</trkpt>
<trkpt lat="-27.2744355" lon="151.290063">
  <ele>349.96</ele>
  <time>2026-09-01T19:50:45Z</time>
  <course>10.01</course>
  <speed>0.2002498439450079</speed>
  <fix>3d</fix>
</trkpt>
<trkpt lat="-27.274435" lon="151.290063">
  <ele>349.61</ele>
  <time>2026-09-01T19:50:45Z</time>
  <course>182.03</course>
  <speed>0.17</speed>
  <fix>3d</fix>
</trkpt>
<trkpt lat="-27.2744356" lon="151.290063">
  <ele>350.0</ele>
  <time>2026-09-01T19:50:45Z</time>
  <course>10.01</course>
  <speed>0.2002498439450079</speed>
  <fix>3d</fix>
</trkpt>
<trkpt lat="-27.2744357" lon="151.290063">
  <ele>350.1</ele>
  <time>2026-09-01T19:50:45Z</time>
  <course>10.02</course>
  <speed>0.2002498439450079</speed>
  <fix>3d</fix>
</trkpt>
<trkpt lat="-27.2744354" lon="151.290063">
  <ele>349.9</ele>
  <time>2026-09-01T19:50:45Z</time>
  <course>181.94</course>
  <speed>0.18</speed>
  <fix>3d</fix>
</trkpt>
<trkpt lat="-27.2744357" lon="151.290063">
  <ele>350.14</ele>
  <time>2026-09-01T19:50:45Z</time>
  <course>10.03</course>
  <speed>0.2002498439450079</speed>
  <fix>3d</fix>
</trkpt>
<trkpt lat="-27.2744359" lon="151.290063">
  <ele>350.25</ele>
  <time>2026-09-01T19:50:45Z</time>
  <course>10.06</course>
  <speed>0.2002498439450079</speed>
  <fix>3d</fix>
</trkpt>
<trkpt lat="-27.2744354" lon="151.290063">
  <ele>349.9</ele>
  <time>2026-09-01T19:50:45Z</time>
  <course>181.94</course>
  <speed>0.18</speed>
  <fix>3d</fix>
</trkpt>
<trkpt lat="-27.2744359" lon="151.290063">
  <ele>350.25</ele>
  <time>2026-09-01T19:50:45Z</time>
  <course>10.06</course>
  <speed>0.2002498439450079</speed>
  <fix>3d</fix>
</trkpt>
<trkpt lat="-27.274436" lon="151.290063">
  <ele>350.39</ele>
  <time>2026-09-01T19:50:45Z</time>
  <course>10.11</course>
  <speed>0.2002498439450079</speed>
  <fix>3d</fix>
</trkpt>
<trkpt lat="-27.2744357" lon="151.290063">
  <ele>350.19</ele>
  <time>2026-09-01T19:50:45Z</time>
  <course>181.92</course>
  <speed>0.19</speed>
  <fix>3d</fix>
</trkpt>
<trkpt lat="-27.274436" lon="151.290063">
  <ele>350.4</ele>
  <time>2026-09-01T19:50:45Z</time>
  <course>10.11</course>
  <speed>0.2002498439450079</speed>
  <fix>3d</fix>
</trkpt>
<trkpt lat="-27.2744362" lon="151.290063">
  <ele>350.54</ele>
  <time>2026-09-01T19:50:45Z</time>
  <course>10.16</course>
  <speed>0.2002498439450079</speed>
  <fix>3d</fix>
</trkpt>
<trkpt lat="-27.2744357" lon="151.290063">
  <ele>350.19</ele>
  <time>2026-09-01T19:50:45Z</time>
  <course>181.92</course>
  <speed>0.19</speed>
  <fix>3d</fix>
</trkpt>
<trkpt lat="-27.2744362" lon="151.290063">
  <ele>350.58</ele>
  <time>2026-09-01T19:50:45Z</time>
  <course>10.17</course>
  <speed>0.2002498439450079</speed>
  <fix>3d</fix>
</trkpt>
<trkpt lat="-27.2744364" lon="151.290063">
  <ele>350.69</ele>
  <time>2026-09-01T19:50:45Z</time>
  <course>10.21</course>
  <speed>0.2002498439450079</speed>
  <fix>3d</fix>
</trkpt>
<trkpt lat="-27.2744361" lon="151.290063">
  <ele>350.48</ele>
  <time>2026-09-01T19:50:45Z</time>
  <course>181.93</course>
  <speed>0.19</speed>
  <fix>3d</fix>
</trkpt>
<trkpt lat="-27.2744364" lon="151.290063">
  <ele>350.73</ele>
  <time>2026-09-01T19:50:45Z</time>
  <course>10.22</course>
  <speed>0.2002498439450079</speed>
  <fix>3d</fix>
</trkpt>
<trkpt lat="-27.2744365" lon="151.290063">
  <ele>350.83</ele>
  <time>2026-09-01T19:50:45Z</time>
  <course>10.24</course>
  <speed>0.2002498439450079</speed>
  <fix>3d</fix>
</trkpt>
<trkpt lat="-27.2744361" lon="151.290063">
  <ele>350.48</ele>
  <time>2026-09-01T19:50:45Z</time>
  <course>181.93</course>
  <speed>0.19</speed>
  <fix>3d</fix>
</trkpt>
<trkpt lat="-27.2744366" lon="151.290063">
  <ele>350.87</ele>
  <time>2026-09-01T19:50:45Z</time>
  <course>10.25</course>
  <speed>0.2002498439450079</speed>
  <fix>3d</fix>
</trkpt>
<trkpt lat="-27.2744367" lon="151.2900629">
  <ele>350.98</ele>
  <time>2026-09-01T19:50:45Z</time>
  <course>10.27</course>
  <speed>0.2</speed>
  <fix>3d</fix>
</trkpt>
<trkpt lat="-27.2744364" lon="151.2900629">
  <ele>350.77</ele>
  <time>2026-09-01T19:50:45Z</time>
  <course>181.93</course>
  <speed>0.19</speed>
  <fix>3d</fix>
</trkpt>
<trkpt lat="-27.2744367" lon="151.2900629">
  <ele>350.99</ele>
  <time>2026-09-01T19:50:45Z</time>
  <course>10.27</course>
  <speed>0.2</speed>
  <fix>3d</fix>
</trkpt>
<trkpt lat="-27.2744369" lon="151.2900629">
  <ele>351.12</ele>
  <time>2026-09-01T19:50:45Z</time>
  <course>10.29</course>
  <speed>0.2</speed>
  <fix>3d</fix>
</trkpt>
<trkpt lat="-27.2744364" lon="151.2900629">
  <ele>350.77</ele>
  <time>2026-09-01T19:50:45Z</time>
  <course>181.93</course>
  <speed>0.19</speed>
  <fix>3d</fix>
</trkpt>
<trkpt lat="-27.2744369" lon="151.2900629">
  <ele>351.16</ele>
  <time>2026-09-01T19:50:45Z</time>
  <course>10.29</course>
  <speed>0.2</speed>
  <fix>3d</fix>
</trkpt>
<trkpt lat="-27.274437" lon="151.2900629">
  <ele>351.27</ele>
  <time>2026-09-01T19:50:45Z</time>
  <course>10.29</course>
  <speed>0.2</speed>
  <fix>3d</fix>
</trkpt>
<trkpt lat="-27.2744367" lon="151.2900628">
  <ele>351.05</ele>
  <time>2026-09-01T19:50:45Z</time>
  <course>181.88</course>
  <speed>0.19</speed>
  <fix>3d</fix>
</trkpt>
<trkpt lat="-27.2744371" lon="151.2900629">
  <ele>351.3</ele>
  <time>2026-09-01T19:50:45Z</time>
  <course>10.29</course>
  <speed>0.2</speed>
  <fix>3d</fix>
</trkpt>
<trkpt lat="-27.2744372" lon="151.2900629">
  <ele>351.41</ele>
  <time>2026-09-01T19:50:45Z</time>
  <course>10.28</course>
  <speed>0.19</speed>
  <fix>3d</fix>
</trkpt>
<trkpt lat="-27.2744367" lon="151.2900628">
  <ele>351.05</ele>
  <time>2026-09-01T19:50:45Z</time>
  <course>181.88</course>
  <speed>0.19</speed>
  <fix>3d</fix>
</trkpt>
<trkpt lat="-27.2744373" lon="151.2900629">
  <ele>351.47</ele>
  <time>2026-09-01T19:50:45Z</time>
  <course>10.28</course>
  <speed>0.19</speed>
  <fix>3d</fix>
</trkpt>
<trkpt lat="-27.2744374" lon="151.2900629">
  <ele>351.56</ele>
  <time>2026-09-01T19:50:45Z</time>
  <course>10.27</course>
  <speed>0.19</speed>
  <fix>3d</fix>
</trkpt>
<trkpt lat="-27.2744371" lon="151.2900628">
  <ele>351.34</ele>
  <time>2026-09-01T19:50:45Z</time>
  <course>181.7</course>
  <speed>0.18</speed>
  <fix>3d</fix>
</trkpt>
<trkpt lat="-27.2744374" lon="151.2900629">
  <ele>351.6</ele>
  <time>2026-09-01T19:50:45Z</time>
  <course>10.26</course>
  <speed>0.19</speed>
  <fix>3d</fix>
</trkpt>
<trkpt lat="-27.2744375" lon="151.2900629">
  <ele>351.7</ele>
  <time>2026-09-01T19:50:45Z</time>
  <course>10.24</course>
  <speed>0.19</speed>
  <fix>3d</fix>
</trkpt>
<trkpt lat="-27.2744371" lon="151.2900628">
  <ele>351.34</ele>
  <time>2026-09-01T19:50:45Z</time>
  <course>181.7</course>
  <speed>0.18</speed>
  <fix>3d</fix>
</trkpt>
<trkpt lat="-27.2744375" lon="151.2900629">
  <ele>351.7</ele>
  <time>2026-09-01T19:50:45Z</time>
  <course>10.24</course>
  <speed>0.19</speed>
  <fix>3d</fix>
</trkpt>
<trkpt lat="-27.2744377" lon="151.2900629">
  <ele>351.84</ele>
  <time>2026-09-01T19:50:45Z</time>
  <course>10.21</course>
  <speed>0.18</speed>
  <fix>3d</fix>
</trkpt>
<trkpt lat="-27.2744374" lon="151.2900628">
  <ele>351.62</ele>
  <time>2026-09-01T19:50:45Z</time>
  <course>181.33</course>
  <speed>0.18</speed>
  <fix>3d</fix>
</trkpt>
<trkpt lat="-27.2744377" lon="151.2900629">
  <ele>351.85</ele>
  <time>2026-09-01T19:50:45Z</time>
  <course>10.21</course>
  <speed>0.18</speed>
  <fix>3d</fix>
</trkpt>
<trkpt lat="-27.2744378" lon="151.2900629">
  <ele>351.99</ele>
  <time>2026-09-01T19:50:45Z</time>
  <course>10.18</course>
  <speed>0.18</speed>
  <fix>3d</fix>
</trkpt>
<trkpt lat="-27.2744374" lon="151.2900628">
  <ele>351.62</ele>
  <time>2026-09-01T19:50:45Z</time>
  <course>181.33</course>
  <speed>0.18</speed>
  <fix>3d</fix>
</trkpt>
<trkpt lat="-27.2744379" lon="151.2900629">
  <ele>352.02</ele>
  <time>2026-09-01T19:50:45Z</time>
  <course>10.18</course>
  <speed>0.18</speed>
  <fix>3d</fix>
</trkpt>
<trkpt lat="-27.274438" lon="151.2900629">
  <ele>352.13</ele>
  <time>2026-09-01T19:50:45Z</time>
  <course>10.17</course>
  <speed>0.17</speed>
  <fix>3d</fix>
</trkpt>
<trkpt lat="-27.2744378" lon="151.2900628">
  <ele>351.9</ele>
  <time>2026-09-01T19:50:45Z</time>
  <course>180.69</course>
  <speed>0.17</speed>
  <fix>3d</fix>
</trkpt>
<trkpt lat="-27.274438" lon="151.2900629">
  <ele>352.17</ele>
  <time>2026-09-01T19:50:45Z</time>
  <course>10.17</course>
  <speed>0.17</speed>
  <fix>3d</fix>
</trkpt>
<trkpt lat="-27.2744381" lon="151.2900629">
  <ele>352.27</ele>
  <time>2026-09-01T19:50:45Z</time>
  <course>10.18</course>
  <speed>0.17</speed>
  <fix>3d</fix>
</trkpt>
<trkpt lat="-27.2744378" lon="151.2900628">
  <ele>351.9</ele>
  <time>2026-09-01T19:50:45Z</time>
  <course>180.69</course>
  <speed>0.17</speed>
  <fix>3d</fix>
</trkpt>
<trkpt lat="-27.2744382" lon="151.2900629">
  <ele>352.31</ele>
  <time>2026-09-01T19:50:45Z</time>
  <course>10.18</course>
  <speed>0.17</speed>
  <fix>3d</fix>
</trkpt>
<trkpt lat="-27.2744383" lon="151.2900629">
  <ele>352.42</ele>
  <time>2026-09-01T19:50:45Z</time>
  <course>10.19</course>
  <speed>0.16</speed>
  <fix>3d</fix>
</trkpt>
<trkpt lat="-27.2744381" lon="151.2900628">
  <ele>352.19</ele>
  <time>2026-09-01T19:50:45Z</time>
  <course>180.03</course>
  <speed>0.16</speed>
  <fix>3d</fix>
</trkpt>
<trkpt lat="-27.2744383" lon="151.2900629">
  <ele>352.46</ele>
  <time>2026-09-01T19:50:45Z</time>
  <course>10.19</course>
  <speed>0.16</speed>
  <fix>3d</fix>
</trkpt>
<trkpt lat="-27.2744384" lon="151.2900629">
  <ele>352.56</ele>
  <time>2026-09-01T19:50:45Z</time>
  <course>10.21</course>
  <speed>0.16</speed>
  <fix>3d</fix>
</trkpt>
<trkpt lat="-27.2744381" lon="151.2900628">
  <ele>352.19</ele>
  <time>2026-09-01T19:50:45Z</time>
  <course>180.03</course>
  <speed>0.16</speed>
  <fix>3d</fix>
</trkpt>
<trkpt lat="-27.2744384" lon="151.2900629">
  <ele>352.6</ele>
  <time>2026-09-01T19:50:45Z</time>
  <course>10.21</course>
  <speed>0.16</speed>
  <fix>3d</fix>
</trkpt>
<trkpt lat="-27.2744385" lon="151.2900629">
  <ele>352.71</ele>
  <time>2026-09-01T19:50:45Z</time>
  <course>10.23</course>
  <speed>0.15</speed>
  <fix>3d</fix>
</trkpt>
<trkpt lat="-27.2744384" lon="151.2900628">
  <ele>352.47</ele>
  <time>2026-09-01T19:50:45Z</time>
  <course>179.23</course>
  <speed>0.15</speed>
  <fix>3d</fix>
</trkpt>
<trkpt lat="-27.2744386" lon="151.2900629">
  <ele>352.75</ele>
  <time>2026-09-01T19:50:45Z</time>
  <course>10.23</course>
  <speed>0.15</speed>
  <fix>3d</fix>
</trkpt>
<trkpt lat="-27.2744387" lon="151.2900629">
  <ele>352.85</ele>
  <time>2026-09-01T19:50:45Z</time>
  <course>10.24</course>
  <speed>0.15033296378372907</speed>
  <fix>3d</fix>
</trkpt>
<trkpt lat="-27.2744384" lon="151.2900628">
  <ele>352.47</ele>
  <time>2026-09-01T19:50:45Z</time>
  <course>179.23</course>
  <speed>0.15</speed>
  <fix>3d</fix>
</trkpt>
<trkpt lat="-27.2744387" lon="151.2900629">
  <ele>352.89</ele>
  <time>2026-09-01T19:50:45Z</time>
  <course>10.24</course>
  <speed>0.15033296378372907</speed>
  <fix>3d</fix>
</trkpt>
<trkpt lat="-27.2744388" lon="151.2900629">
  <ele>352.99</ele>
  <time>2026-09-01T19:50:45Z</time>
  <course>10.26</course>
  <speed>0.14</speed>
  <fix>3d</fix>
</trkpt>
<trkpt lat="-27.2744386" lon="151.2900628">
  <ele>352.76</ele>
  <time>2026-09-01T19:50:45Z</time>
  <course>178.3</course>
  <speed>0.14</speed>
  <fix>3d</fix>
</trkpt>
<trkpt lat="-27.2744388" lon="151.2900629">
  <ele>353.03</ele>
  <time>2026-09-01T19:50:45Z</time>
  <course>10.26</course>
  <speed>0.14</speed>
  <fix>3d</fix>
</trkpt>
<trkpt lat="-27.2744389" lon="151.2900629">
  <ele>353.14</ele>
  <time>2026-09-01T19:50:45Z</time>
  <course>10.26</course>
  <speed>0.140356688476182</speed>
  <fix>3d</fix>
</trkpt>
<trkpt lat="-27.2744386" lon="151.2900628">
  <ele>352.76</ele>
  <time>2026-09-01T19:50:45Z</time>
  <course>178.3</course>
  <speed>0.14</speed>
  <fix>3d</fix>
</trkpt>
<trkpt lat="-27.2744389" lon="151.2900629">
  <ele>353.18</ele>
  <time>2026-09-01T19:50:45Z</time>
  <course>10.27</course>
  <speed>0.140356688476182</speed>
  <fix>3d</fix>
</trkpt>
<trkpt lat="-27.274439" lon="151.2900629">
  <ele>353.28</ele>
  <time>2026-09-01T19:50:45Z</time>
  <course>10.27</course>
  <speed>0.130384048104053</speed>
  <fix>3d</fix>
</trkpt>
<trkpt lat="-27.2744389" lon="151.2900628">
  <ele>353.04</ele>
  <time>2026-09-01T19:50:45Z</time>
  <course>177.24</course>
  <speed>0.13</speed>
  <fix>3d</fix>
</trkpt>
<trkpt lat="-27.2744391" lon="151.2900629">
  <ele>353.42</ele>
  <time>2026-09-01T19:50:45Z</time>
  <course>10.27</course>
  <speed>0.130384048104053</speed>
  <fix>3d</fix>
</trkpt>
<trkpt lat="-27.2744389" lon="151.2900628">
  <ele>353.04</ele>
  <time>2026-09-01T19:50:45Z</time>
  <course>177.24</course>
  <speed>0.13</speed>
  <fix>3d</fix>
</trkpt>
<trkpt lat="-27.2744393" lon="151.2900629">
  <ele>353.57</ele>
  <time>2026-09-01T19:50:45Z</time>
  <course>10.28</course>
  <speed>0.12041594578792296</speed>
  <fix>3d</fix>
</trkpt>
<trkpt lat="-27.2744391" lon="151.2900628">
  <ele>353.33</ele>
  <time>2026-09-01T19:50:45Z</time>
  <course>176.21</course>
  <speed>0.11</speed>
  <fix>3d</fix>
</trkpt>
<trkpt lat="-27.2744393" lon="151.2900629">
  <ele>353.7</ele>
  <time>2026-09-01T19:50:45Z</time>
  <course>10.28</course>
  <speed>0.11045361017187261</speed>
  <fix>3d</fix>
</trkpt>
<trkpt lat="-27.2744391" lon="151.2900628">
  <ele>353.33</ele>
  <time>2026-09-01T19:50:45Z</time>
  <course>176.21</course>
  <speed>0.11</speed>
  <fix>3d</fix>
</trkpt>
<trkpt lat="-27.2744394" lon="151.2900629">
  <ele>353.83</ele>
  <time>2026-09-01T19:50:45Z</time>
  <course>10.28</course>
  <speed>0.11045361017187261</speed>
  <fix>3d</fix>
</trkpt>
<trkpt lat="-27.2744393" lon="151.2900628">
  <ele>353.6</ele>
  <time>2026-09-01T19:50:45Z</time>
  <course>175.78</course>
  <speed>0.1</speed>
  <fix>3d</fix>
</trkpt>
<trkpt lat="-27.2744395" lon="151.2900629">
  <ele>353.96</ele>
  <time>2026-09-01T19:50:45Z</time>
  <course>10.3</course>
  <speed>0.1004987562112089</speed>
  <fix>3d</fix>
</trkpt>
<trkpt lat="-27.2744393" lon="151.2900628">
  <ele>353.6</ele>
  <time>2026-09-01T19:50:45Z</time>
  <course>175.78</course>
  <speed>0.1</speed>
  <fix>3d</fix>
</trkpt>
<trkpt lat="-27.2744396" lon="151.2900629">
  <ele>354.06</ele>
  <time>2026-09-01T19:50:45Z</time>
  <course>10.47</course>
  <speed>0.1</speed>
  <fix>3d</fix>
</trkpt>
<trkpt lat="-27.2744395" lon="151.2900628">
  <ele>353.84</ele>
  <time>2026-09-01T19:50:45Z</time>
  <course>176.92</course>
  <speed>0.09</speed>
  <fix>3d</fix>
</trkpt>
<trkpt lat="-27.2744397" lon="151.2900629">
  <ele>354.14</ele>
  <time>2026-09-01T19:50:45Z</time>
  <course>10.95</course>
  <speed>0.1004987562112089</speed>
  <fix>3d</fix>
</trkpt>
<trkpt lat="-27.2744395" lon="151.2900628">
  <ele>353.84</ele>
  <time>2026-09-01T19:50:45Z</time>
  <course>176.92</course>
  <speed>0.09</speed>
  <fix>3d</fix>
</trkpt>
<trkpt lat="-27.2744398" lon="151.2900629">
  <ele>354.21</ele>
  <time>2026-09-01T19:50:45Z</time>
  <course>11.97</course>
  <speed>0.11045361017187261</speed>
  <fix>3d</fix>
</trkpt>
<trkpt lat="-27.2744397" lon="151.2900628">
  <ele>354.02</ele>
  <time>2026-09-01T19:50:45Z</time>
  <course>175.96</course>
  <speed>0.1</speed>
  <fix>3d</fix>
</trkpt>
<trkpt lat="-27.2744399" lon="151.2900629">
  <ele>354.26</ele>
  <time>2026-09-01T19:50:45Z</time>
  <course>13.71</course>
  <speed>0.12165525060596438</speed>
  <fix>3d</fix>
</trkpt>
<trkpt lat="-27.2744397" lon="151.2900628">
  <ele>354.02</ele>
  <time>2026-09-01T19:50:45Z</time>
  <course>175.96</course>
  <speed>0.1</speed>
  <fix>3d</fix>
</trkpt>
<trkpt lat="-27.27444" lon="151.2900629">
  <ele>354.29</ele>
  <time>2026-09-01T19:50:45Z</time>
  <course>16.26</course>
  <speed>0.13341664064126335</speed>
  <fix>3d</fix>
</trkpt>
<trkpt lat="-27.2744399" lon="151.2900628">
  <ele>354.14</ele>
  <time>2026-09-01T19:50:45Z</time>
  <course>170.32</course>
  <speed>0.12</speed>
  <fix>3d</fix>
</trkpt>
<trkpt lat="-27.2744401" lon="151.2900629">
  <ele>354.31</ele>
  <time>2026-09-01T19:50:45Z</time>
  <course>19.54</course>
  <speed>0.14560219778561037</speed>
  <fix>3d</fix>
</trkpt>
<trkpt lat="-27.2744399" lon="151.2900628">
  <ele>354.14</ele>
  <time>2026-09-01T19:50:45Z</time>
  <course>170.32</course>
  <speed>0.12</speed>
  <fix>3d</fix>
</trkpt>
<trkpt lat="-27.2744402" lon="151.290063">
  <ele>354.32</ele>
  <time>2026-09-01T19:50:45Z</time>
  <course>23.46</course>
  <speed>0.15811388300841897</speed>
  <fix>3d</fix>
</trkpt>
<trkpt lat="-27.2744401" lon="151.2900629">
  <ele>354.19</ele>
  <time>2026-09-01T19:50:45Z</time>
  <course>164.71</course>
  <speed>0.14</speed>
  <fix>3d</fix>
</trkpt>
<trkpt lat="-27.2744404" lon="151.290063">
  <ele>354.31</ele>
  <time>2026-09-01T19:50:45Z</time>
  <course>27.87</course>
  <speed>0.1708800749063506</speed>
  <fix>3d</fix>
</trkpt>
<trkpt lat="-27.2744401" lon="151.2900629">
  <ele>354.19</ele>
  <time>2026-09-01T19:50:45Z</time>
  <course>164.71</course>
  <speed>0.14</speed>
  <fix>3d</fix>
</trkpt>
<trkpt lat="-27.2744405" lon="151.2900631">
  <ele>354.29</ele>
  <time>2026-09-01T19:50:45Z</time>
  <course>32.59</course>
  <speed>0.18384776310850234</speed>
  <fix>3d</fix>
</trkpt>
<trkpt lat="-27.2744404" lon="151.290063">
  <ele>354.19</ele>
  <time>2026-09-01T19:50:45Z</time>
  <course>160.86</course>
  <speed>0.17</speed>
  <fix>3d</fix>
</trkpt>
<trkpt lat="-27.2744407" lon="151.2900631">
  <ele>354.28</ele>
  <time>2026-09-01T19:50:45Z</time>
  <course>37.43</course>
  <speed>0.19235384061671343</speed>
  <fix>3d</fix>
</trkpt>
<trkpt lat="-27.2744404" lon="151.290063">
  <ele>354.19</ele>
  <time>2026-09-01T19:50:45Z</time>
  <course>160.86</course>
  <speed>0.17</speed>
  <fix>3d</fix>
</trkpt>
<trkpt lat="-27.2744408" lon="151.2900632">
  <ele>354.25</ele>
  <time>2026-09-01T19:50:45Z</time>
  <course>42.23</course>
  <speed>0.20591260281974003</speed>
  <fix>3d</fix>
</trkpt>
<trkpt lat="-27.2744407" lon="151.2900632">
  <ele>354.16</ele>
  <time>2026-09-01T19:50:45Z</time>
  <course>158.09</course>
  <speed>0.19</speed>
  <fix>3d</fix>
</trkpt>
<trkpt lat="-27.274441" lon="151.2900633">
  <ele>354.22</ele>
  <time>2026-09-01T19:50:45Z</time>
  <course>46.86</course>
  <speed>0.2109502310972899</speed>
  <fix>3d</fix>
</trkpt>
<trkpt lat="-27.2744407" lon="151.2900632">
  <ele>354.16</ele>
  <time>2026-09-01T19:50:45Z</time>
  <course>158.09</course>
  <speed>0.19</speed>
  <fix>3d</fix>
</trkpt>
<trkpt lat="-27.2744412" lon="151.2900634">
  <ele>354.2</ele>
  <time>2026-09-01T19:50:45Z</time>
  <course>51.22</course>
  <speed>0.2220360331117452</speed>
  <fix>3d</fix>
</trkpt>
<trkpt lat="-27.274441" lon="151.2900633">
  <ele>354.12</ele>
  <time>2026-09-01T19:50:45Z</time>
  <course>155.85</course>
  <speed>0.21</speed>
  <fix>3d</fix>
</trkpt>
<trkpt lat="-27.2744413" lon="151.2900636">
  <ele>354.17</ele>
  <time>2026-09-01T19:50:45Z</time>
  <course>55.31</course>
  <speed>0.23600847442411893</speed>
  <fix>3d</fix>
</trkpt>
<trkpt lat="-27.274441" lon="151.2900633">
  <ele>354.12</ele>
  <time>2026-09-01T19:50:45Z</time>
  <course>155.85</course>
  <speed>0.21</speed>
  <fix>3d</fix>
</trkpt>
<trkpt lat="-27.2744415" lon="151.2900637">
  <ele>354.16</ele>
  <time>2026-09-01T19:50:45Z</time>
  <course>59.16</course>
  <speed>0.24839484696748443</speed>
  <fix>3d</fix>
</trkpt>
<trkpt lat="-27.2744414" lon="151.2900634">
  <ele>354.08</ele>
  <time>2026-09-01T19:50:45Z</time>
  <course>153.98</course>
  <speed>0.22</speed>
  <fix>3d</fix>
</trkpt>
<trkpt lat="-27.2744417" lon="151.2900638">
  <ele>354.14</ele>
  <time>2026-09-01T19:50:45Z</time>
  <course>62.87</course>
  <speed>0.24758836806279894</speed>
  <fix>3d</fix>
</trkpt>
<trkpt lat="-27.2744414" lon="151.2900634">
  <ele>354.08</ele>
  <time>2026-09-01T19:50:45Z</time>
  <course>153.98</course>
  <speed>0.22</speed>
  <fix>3d</fix>
</trkpt>
<trkpt lat="-27.2744418" lon="151.290064">
  <ele>354.14</ele>
  <time>2026-09-01T19:50:45Z</time>
  <course>66.5</course>
  <speed>0.2545584412271571</speed>
  <fix>3d</fix>
</trkpt>
<trkpt lat="-27.2744418" lon="151.2900637">
  <ele>354.05</ele>
  <time>2026-09-01T19:50:45Z</time>
  <course>152.6</course>
  <speed>0.22</speed>
  <fix>3d</fix>
</trkpt>
<trkpt lat="-27.274442" lon="151.2900642">
  <ele>354.13</ele>
  <time>2026-09-01T19:50:45Z</time>
  <course>70.14</course>
  <speed>0.261725046566048</speed>
  <fix>3d</fix>
</trkpt>
<trkpt lat="-27.2744418" lon="151.2900637">
  <ele>354.05</ele>
  <time>2026-09-01T19:50:45Z</time>
  <course>152.6</course>
  <speed>0.22</speed>
  <fix>3d</fix>
</trkpt>
<trkpt lat="-27.2744422" lon="151.2900643">
  <ele>354.14</ele>
  <time>2026-09-01T19:50:45Z</time>
  <course>73.75</course>
  <speed>0.26248809496813374</speed>
  <fix>3d</fix>
</trkpt>
<trkpt lat="-27.2744421" lon="151.290064">
  <ele>354.04</ele>
  <time>2026-09-01T19:50:45Z</time>
  <course>151.72</course>
  <speed>0.21</speed>
  <fix>3d</fix>
</trkpt>
<trkpt lat="-27.2744423" lon="151.2900645">
  <ele>354.14</ele>
  <time>2026-09-01T19:50:45Z</time>
  <course>77.64</course>
  <speed>0.2640075756488817</speed>
  <fix>3d</fix>
</trkpt>
<trkpt lat="-27.2744421" lon="151.290064">
  <ele>354.04</ele>
  <time>2026-09-01T19:50:45Z</time>
  <course>151.72</course>
  <speed>0.21</speed>
  <fix>3d</fix>
</trkpt>
<trkpt lat="-27.2744425" lon="151.2900647">
  <ele>354.15</ele>
  <time>2026-09-01T19:50:45Z</time>
  <course>81.5</course>
  <speed>0.2720294101747089</speed>
  <fix>3d</fix>
</trkpt>
<trkpt lat="-27.2744424" lon="151.2900642">
  <ele>354.05</ele>
  <time>2026-09-01T19:50:45Z</time>
  <course>151.21</course>
  <speed>0.2</speed>
  <fix>3d</fix>
</trkpt>
<trkpt lat="-27.2744426" lon="151.2900648">
  <ele>354.16</ele>
  <time>2026-09-01T19:50:45Z</time>
  <course>85.39</course>
  <speed>0.266270539113887</speed>
  <fix>3d</fix>
</trkpt>
<trkpt lat="-27.2744424" lon="151.2900642">
  <ele>354.05</ele>
  <time>2026-09-01T19:50:45Z</time>
  <course>151.21</course>
  <speed>0.2</speed>
  <fix>3d</fix>
</trkpt>
<trkpt lat="-27.2744428" lon="151.290065">
  <ele>354.17</ele>
  <time>2026-09-01T19:50:45Z</time>
  <course>89.36</course>
  <speed>0.2692582403567252</speed>
  <fix>3d</fix>
</trkpt>
<trkpt lat="-27.2744427" lon="151.2900643">
  <ele>354.07</ele>
  <time>2026-09-01T19:50:45Z</time>
  <course>151.12</course>
  <speed>0.18</speed>
  <fix>3d</fix>
</trkpt>
<trkpt lat="-27.2744429" lon="151.2900652">
  <ele>354.18</ele>
  <time>2026-09-01T19:50:45Z</time>
  <course>93.36</course>
  <speed>0.2641968962724581</speed>
  <fix>3d</fix>
</trkpt>
<trkpt lat="-27.2744427" lon="151.2900643">
  <ele>354.07</ele>
  <time>2026-09-01T19:50:45Z</time>
  <course>151.12</course>
  <speed>0.18</speed>
  <fix>3d</fix>
</trkpt>
<trkpt lat="-27.274443" lon="151.2900654">
  <ele>354.19</ele>
  <time>2026-09-01T19:50:45Z</time>
  <course>97.37</course>
  <speed>0.2640075756488817</speed>
  <fix>3d</fix>
</trkpt>
<trkpt lat="-27.274443" lon="151.2900645">
  <ele>354.09</ele>
  <time>2026-09-01T19:50:45Z</time>
  <course>151.73</course>
  <speed>0.15</speed>
  <fix>3d</fix>
</trkpt>
<trkpt lat="-27.2744431" lon="151.2900655">
  <ele>354.21</ele>
  <time>2026-09-01T19:50:45Z</time>
  <course>101.39</course>
  <speed>0.25079872407968906</speed>
  <fix>3d</fix>
</trkpt>
<trkpt lat="-27.274443" lon="151.2900645">
  <ele>354.09</ele>
  <time>2026-09-01T19:50:45Z</time>
  <course>151.73</course>
  <speed>0.15</speed>
  <fix>3d</fix>
</trkpt>
<trkpt lat="-27.2744432" lon="151.2900657">
  <ele>354.22</ele>
  <time>2026-09-01T19:50:45Z</time>
  <course>105.37</course>
  <speed>0.25632011235952595</speed>
  <fix>3d</fix>
</trkpt>
<trkpt lat="-27.2744433" lon="151.2900646">
  <ele>354.12</ele>
  <time>2026-09-01T19:50:45Z</time>
  <course>153.68</course>
  <speed>0.11</speed>
  <fix>3d</fix>
</trkpt>
<trkpt lat="-27.2744433" lon="151.2900658">
  <ele>354.23</ele>
  <time>2026-09-01T19:50:45Z</time>
  <course>109.31</course>
  <speed>0.24351591323771843</speed>
  <fix>3d</fix>
</trkpt>
<trkpt lat="-27.2744433" lon="151.2900646">
  <ele>354.12</ele>
  <time>2026-09-01T19:50:45Z</time>
  <course>153.68</course>
  <speed>0.11</speed>
  <fix>3d</fix>
</trkpt>
<trkpt lat="-27.2744434" lon="151.2900659">
  <ele>354.24</ele>
  <time>2026-09-01T19:50:45Z</time>
  <course>113.22</course>
  <speed>0.24041630560342614</speed>
  <fix>3d</fix>
</trkpt>
<trkpt lat="-27.2744434" lon="151.2900647">
  <ele>354.15</ele>
  <time>2026-09-01T19:50:45Z</time>
  <course>159.05</course>
  <speed>0.08</speed>
  <fix>3d</fix>
</trkpt>
<trkpt lat="-27.2744434" lon="151.290066">
  <ele>354.24</ele>
  <time>2026-09-01T19:50:45Z</time>
  <course>117.12</course>
  <speed>0.22803508501982758</speed>
  <fix>3d</fix>
</trkpt>
<trkpt lat="-27.2744434" lon="151.2900647">
  <ele>354.15</ele>
  <time>2026-09-01T19:50:45Z</time>
  <course>159.05</course>
  <speed>0.08</speed>
  <fix>3d</fix>
</trkpt>
<trkpt lat="-27.2744435" lon="151.2900661">
  <ele>354.24</ele>
  <time>2026-09-01T19:50:45Z</time>
  <course>121.01</course>
  <speed>0.223606797749979</speed>
  <fix>3d</fix>
</trkpt>
<trkpt lat="-27.2744435" lon="151.2900647">
  <ele>354.17</ele>
  <time>2026-09-01T19:50:45Z</time>
  <course>178.71</course>
  <speed>0.03</speed>
  <fix>3d</fix>
</trkpt>
<trkpt lat="-27.2744435" lon="151.2900661">
  <ele>354.25</ele>
  <time>2026-09-01T19:50:45Z</time>
  <course>124.91</course>
  <speed>0.21213203435596426</speed>
  <fix>3d</fix>
</trkpt>
<trkpt lat="-27.2744435" lon="151.2900647">
  <ele>354.17</ele>
  <time>2026-09-01T19:50:45Z</time>
  <course>178.71</course>
  <speed>0.03</speed>
  <fix>3d</fix>
</trkpt>
<trkpt lat="-27.2744436" lon="151.2900662">
  <ele>354.25</ele>
  <time>2026-09-01T19:50:45Z</time>
  <course>128.81</course>
  <speed>0.2009975124224178</speed>
  <fix>3d</fix>
</trkpt>
<trkpt lat="-27.2744436" lon="151.2900647">
  <ele>354.18</ele>
  <time>2026-09-01T19:50:45Z</time>
  <course>266.28</course>
  <speed>0.02</speed>
  <fix>3d</fix>
</trkpt>
<trkpt lat="-27.2744436" lon="151.2900662">
  <ele>354.25</ele>
  <time>2026-09-01T19:50:45Z</time>
  <course>132.72</course>
  <speed>0.19026297590440447</speed>
  <fix>3d</fix>
</trkpt>
<trkpt lat="-27.2744436" lon="151.2900647">
  <ele>354.18</ele>
  <time>2026-09-01T19:50:45Z</time>
  <course>266.28</course>
  <speed>0.02</speed>
  <fix>3d</fix>
</trkpt>
<trkpt lat="-27.2744436" lon="151.2900662">
  <ele>354.25</ele>
  <time>2026-09-01T19:50:45Z</time>
  <course>136.62</course>
  <speed>0.19</speed>
  <fix>3d</fix>
</trkpt>
<trkpt lat="-27.2744435" lon="151.2900646">
  <ele>354.19</ele>
  <time>2026-09-01T19:50:45Z</time>
  <course>301.9</course>
  <speed>0.07</speed>
  <fix>3d</fix>
</trkpt>
<trkpt lat="-27.2744436" lon="151.2900662">
  <ele>354.24</ele>
  <time>2026-09-01T19:50:45Z</time>
  <course>140.51</course>
  <speed>0.17</speed>
  <fix>3d</fix>
</trkpt>
<trkpt lat="-27.2744435" lon="151.2900646">
  <ele>354.19</ele>
  <time>2026-09-01T19:50:45Z</time>
  <course>301.9</course>
  <speed>0.07</speed>
  <fix>3d</fix>
</trkpt>
<trkpt lat="-27.2744435" lon="151.2900662">
  <ele>354.24</ele>
  <time>2026-09-01T19:50:45Z</time>
  <course>144.39</course>
  <speed>0.16031219541881397</speed>
  <fix>3d</fix>
</trkpt>
<trkpt lat="-27.2744435" lon="151.2900645">
  <ele>354.19</ele>
  <time>2026-09-01T19:50:45Z</time>
  <course>310.14</course>
  <speed>0.12</speed>
  <fix>3d</fix>
</trkpt>
<trkpt lat="-27.2744435" lon="151.2900661">
  <ele>354.23</ele>
  <time>2026-09-01T19:50:45Z</time>
  <course>148.27</course>
  <speed>0.15132745950421556</speed>
  <fix>3d</fix>
</trkpt>
<trkpt lat="-27.2744435" lon="151.2900645">
  <ele>354.19</ele>
  <time>2026-09-01T19:50:45Z</time>
  <course>310.14</course>
  <speed>0.12</speed>
  <fix>3d</fix>
</trkpt>
<trkpt lat="-27.2744434" lon="151.2900661">
  <ele>354.23</ele>
  <time>2026-09-01T19:50:45Z</time>
  <course>152.14</course>
  <speed>0.14317821063276354</speed>
  <fix>3d</fix>
</trkpt>
<trkpt lat="-27.2744434" lon="151.2900643">
  <ele>354.18</ele>
  <time>2026-09-01T19:50:45Z</time>
  <course>313.49</course>
  <speed>0.16</speed>
  <fix>3d</fix>
</trkpt>
<trkpt lat="-27.2744434" lon="151.2900659">
  <ele>354.22</ele>
  <time>2026-09-01T19:50:45Z</time>
  <course>156.02</course>
  <speed>0.12369316876852982</speed>
  <fix>3d</fix>
</trkpt>
<trkpt lat="-27.2744434" lon="151.2900643">
  <ele>354.18</ele>
  <time>2026-09-01T19:50:45Z</time>
  <course>313.49</course>
  <speed>0.16</speed>
  <fix>3d</fix>
</trkpt>
<trkpt lat="-27.2744434" lon="151.2900659">
  <ele>354.22</ele>
  <time>2026-09-01T19:50:45Z</time>
  <course>159.89</course>
  <speed>0.1264911064067352</speed>
  <fix>3d</fix>
</trkpt>
<trkpt lat="-27.2744431" lon="151.2900641">
  <ele>354.18</ele>
  <time>2026-09-01T19:50:45Z</time>
  <course>315.18</course>
  <speed>0.2</speed>
  <fix>3d</fix>
</trkpt>
<trkpt lat="-27.2744433" lon="151.2900657">
  <ele>354.22</ele>
  <time>2026-09-01T19:50:45Z</time>
  <course>163.77</course>
  <speed>0.10770329614269007</speed>
  <fix>3d</fix>
</trkpt>
<trkpt lat="-27.2744431" lon="151.2900641">
  <ele>354.18</ele>
  <time>2026-09-01T19:50:45Z</time>
  <course>315.18</course>
  <speed>0.2</speed>
  <fix>3d</fix>
</trkpt>
<trkpt lat="-27.2744432" lon="151.2900656">
  <ele>354.22</ele>
  <time>2026-09-01T19:50:45Z</time>
  <course>167.64</course>
  <speed>0.09848857801796104</speed>
  <fix>3d</fix>
</trkpt>
<trkpt lat="-27.2744428" lon="151.2900637">
  <ele>354.18</ele>
  <time>2026-09-01T19:50:45Z</time>
  <course>316.15</course>
  <speed>0.24</speed>
  <fix>3d</fix>
</trkpt>
<trkpt lat="-27.2744431" lon="151.2900655">
  <ele>354.22</ele>
  <time>2026-09-01T19:50:45Z</time>
  <course>171.51</course>
  <speed>0.08602325267042626</speed>
  <fix>3d</fix>
</trkpt>
<trkpt lat="-27.2744428" lon="151.2900637">
  <ele>354.18</ele>
  <time>2026-09-01T19:50:45Z</time>
  <course>316.15</course>
  <speed>0.24</speed>
  <fix>3d</fix>
</trkpt>
<trkpt lat="-27.274443" lon="151.2900654">
  <ele>354.22</ele>
  <time>2026-09-01T19:50:45Z</time>
  <course>175.39</course>
  <speed>0.07810249675906654</speed>
  <fix>3d</fix>
</trkpt>
<trkpt lat="-27.2744425" lon="151.2900634">
  <ele>354.18</ele>
  <time>2026-09-01T19:50:45Z</time>
  <course>316.67</course>
  <speed>0.27</speed>
  <fix>3d</fix>
</trkpt>
<trkpt lat="-27.2744429" lon="151.2900651">
  <ele>354.22</ele>
  <time>2026-09-01T19:50:45Z</time>
  <course>179.28</course>
  <speed>0.06403124237432849</speed>
  <fix>3d</fix>
</trkpt>
<trkpt lat="-27.2744425" lon="151.2900634">
  <ele>354.18</ele>
  <time>2026-09-01T19:50:45Z</time>
  <course>316.67</course>
  <speed>0.27</speed>
  <fix>3d</fix>
</trkpt>
<trkpt lat="-27.2744427" lon="151.2900649">
  <ele>354.23</ele>
  <time>2026-09-01T19:50:45Z</time>
  <course>183.21</course>
  <speed>0.05830951894845301</speed>
  <fix>3d</fix>
</trkpt>
<trkpt lat="-27.2744421" lon="151.2900629">
  <ele>354.19</ele>
  <time>2026-09-01T19:50:45Z</time>
  <course>316.84</course>
  <speed>0.3</speed>
  <fix>3d</fix>
</trkpt>
<trkpt lat="-27.2744426" lon="151.2900647">
  <ele>354.23</ele>
  <time>2026-09-01T19:50:45Z</time>
  <course>187.1</course>
  <speed>0.053851648071345036</speed>
  <fix>3d</fix>
</trkpt>
<trkpt lat="-27.2744421" lon="151.2900629">
  <ele>354.19</ele>
  <time>2026-09-01T19:50:45Z</time>
  <course>316.84</course>
  <speed>0.3</speed>
  <fix>3d</fix>
</trkpt>
<trkpt lat="-27.2744425" lon="151.2900644">
  <ele>354.23</ele>
  <time>2026-09-01T19:50:45Z</time>
  <course>191.0</course>
  <speed>0.05</speed>
  <fix>3d</fix>
</trkpt>
<trkpt lat="-27.2744416" lon="151.2900626">
  <ele>354.19</ele>
  <time>2026-09-01T19:50:45Z</time>
  <course>316.84</course>
  <speed>0.32</speed>
  <fix>3d</fix>
</trkpt>
<trkpt lat="-27.2744423" lon="151.2900642">
  <ele>354.23</ele>
  <time>2026-09-01T19:50:45Z</time>
  <course>194.91</course>
  <speed>0.04</speed>
  <fix>3d</fix>
</trkpt>
<trkpt lat="-27.2744416" lon="151.2900626">
  <ele>354.19</ele>
  <time>2026-09-01T19:50:45Z</time>
  <course>316.84</course>
  <speed>0.32</speed>
  <fix>3d</fix>
</trkpt>
<trkpt lat="-27.2744421" lon="151.2900639">
  <ele>354.23</ele>
  <time>2026-09-01T19:50:45Z</time>
  <course>198.81</course>
  <speed>0.0412310562561766</speed>
  <fix>3d</fix>
</trkpt>
<trkpt lat="-27.2744413" lon="151.2900621">
  <ele>354.2</ele>
  <time>2026-09-01T19:50:45Z</time>
  <course>316.81</course>
  <speed>0.33</speed>
  <fix>3d</fix>
</trkpt>
<trkpt lat="-27.274442" lon="151.2900636">
  <ele>354.24</ele>
  <time>2026-09-01T19:50:45Z</time>
  <course>202.72</course>
  <speed>0.05</speed>
  <fix>3d</fix>
</trkpt>
<trkpt lat="-27.2744413" lon="151.2900621">
  <ele>354.2</ele>
  <time>2026-09-01T19:50:45Z</time>
  <course>316.81</course>
  <speed>0.33</speed>
  <fix>3d</fix>
</trkpt>
<trkpt lat="-27.2744418" lon="151.2900634">
  <ele>354.24</ele>
  <time>2026-09-01T19:50:45Z</time>
  <course>206.61</course>
  <speed>0.0565685424949238</speed>
  <fix>3d</fix>
</trkpt>
<trkpt lat="-27.2744408" lon="151.2900616">
  <ele>354.21</ele>
  <time>2026-09-01T19:50:45Z</time>
  <course>316.99</course>
  <speed>0.34</speed>
  <fix>3d</fix>
</trkpt>
<trkpt lat="-27.2744416" lon="151.2900631">
  <ele>354.24</ele>
  <time>2026-09-01T19:50:45Z</time>
  <course>210.51</course>
  <speed>0.06403124237432849</speed>
  <fix>3d</fix>
</trkpt>
<trkpt lat="-27.2744408" lon="151.2900616">
  <ele>354.21</ele>
  <time>2026-09-01T19:50:45Z</time>
  <course>316.99</course>
  <speed>0.34</speed>
  <fix>3d</fix>
</trkpt>
<trkpt lat="-27.2744415" lon="151.2900628">
  <ele>354.24</ele>
  <time>2026-09-01T19:50:45Z</time>
  <course>214.4</course>
  <speed>0.0670820393249937</speed>
  <fix>3d</fix>
</trkpt>
<trkpt lat="-27.2744403" lon="151.2900611">
  <ele>354.22</ele>
  <time>2026-09-01T19:50:45Z</time>
  <course>317.56</course>
  <speed>0.34</speed>
  <fix>3d</fix>
</trkpt>
<trkpt lat="-27.2744413" lon="151.2900625">
  <ele>354.24</ele>
  <time>2026-09-01T19:50:45Z</time>
  <course>218.3</course>
  <speed>0.07211102550927978</speed>
  <fix>3d</fix>
</trkpt>
<trkpt lat="-27.2744403" lon="151.2900611">
  <ele>354.22</ele>
  <time>2026-09-01T19:50:45Z</time>
  <course>317.56</course>
  <speed>0.34</speed>
  <fix>3d</fix>
</trkpt>
<trkpt lat="-27.2744411" lon="151.2900622">
  <ele>354.24</ele>
  <time>2026-09-01T19:50:45Z</time>
  <course>222.18</course>
  <speed>0.07615773105863909</speed>
  <fix>3d</fix>
</trkpt>
<trkpt lat="-27.2744399" lon="151.2900606">
  <ele>354.22</ele>
  <time>2026-09-01T19:50:45Z</time>
  <course>318.66</course>
  <speed>0.34</speed>
  <fix>3d</fix>
</trkpt>
<trkpt lat="-27.2744409" lon="151.2900619">
  <ele>354.24</ele>
  <time>2026-09-01T19:50:45Z</time>
  <course>226.06</course>
  <speed>0.08944271909999159</speed>
  <fix>3d</fix>
</trkpt>
<trkpt lat="-27.2744399" lon="151.2900606">
  <ele>354.22</ele>
  <time>2026-09-01T19:50:45Z</time>
  <course>318.66</course>
  <speed>0.34</speed>
  <fix>3d</fix>
</trkpt>
<trkpt lat="-27.2744407" lon="151.2900616">
  <ele>354.24</ele>
  <time>2026-09-01T19:50:45Z</time>
  <course>229.94</course>
  <speed>0.08944271909999159</speed>
  <fix>3d</fix>
</trkpt>
<trkpt lat="-27.2744394" lon="151.2900602">
  <ele>354.23</ele>
  <time>2026-09-01T19:50:45Z</time>
  <course>320.72</course>
  <speed>0.34</speed>
  <fix>3d</fix>
</trkpt>
<trkpt lat="-27.2744405" lon="151.2900613">
  <ele>354.24</ele>
  <time>2026-09-01T19:50:45Z</time>
  <course>233.82</course>
  <speed>0.08944271909999159</speed>
  <fix>3d</fix>
</trkpt>
<trkpt lat="-27.2744394" lon="151.2900602">
  <ele>354.23</ele>
  <time>2026-09-01T19:50:45Z</time>
  <course>320.72</course>
  <speed>0.34</speed>
  <fix>3d</fix>
</trkpt>
<trkpt lat="-27.2744402" lon="151.2900611">
  <ele>354.23</ele>
  <time>2026-09-01T19:50:45Z</time>
  <course>237.7</course>
  <speed>0.08062257748298549</speed>
  <fix>3d</fix>
</trkpt>
<trkpt lat="-27.2744389" lon="151.2900598">
  <ele>354.23</ele>
  <time>2026-09-01T19:50:45Z</time>
  <course>324.55</course>
  <speed>0.33</speed>
  <fix>3d</fix>
</trkpt>
<trkpt lat="-27.27444" lon="151.2900608">
  <ele>354.23</ele>
  <time>2026-09-01T19:50:45Z</time>
  <course>241.59</course>
  <speed>0.07810249675906654</speed>
  <fix>3d</fix>
</trkpt>
<trkpt lat="-27.2744389" lon="151.2900598">
  <ele>354.23</ele>
  <time>2026-09-01T19:50:45Z</time>
  <course>324.55</course>
  <speed>0.33</speed>
  <fix>3d</fix>
</trkpt>
<trkpt lat="-27.2744398" lon="151.2900606">
  <ele>354.23</ele>
  <time>2026-09-01T19:50:45Z</time>
  <course>245.47</course>
  <speed>0.07071067811865475</speed>
  <fix>3d</fix>
</trkpt>
<trkpt lat="-27.2744384" lon="151.2900594">
  <ele>354.24</ele>
  <time>2026-09-01T19:50:45Z</time>
  <course>330.24</course>
  <speed>0.31</speed>
  <fix>3d</fix>
</trkpt>
<trkpt lat="-27.2744396" lon="151.2900603">
  <ele>354.23</ele>
  <time>2026-09-01T19:50:45Z</time>
  <course>249.37</course>
  <speed>0.07071067811865475</speed>
  <fix>3d</fix>
</trkpt>
<trkpt lat="-27.2744384" lon="151.2900594">
  <ele>354.24</ele>
  <time>2026-09-01T19:50:45Z</time>
  <course>330.24</course>
  <speed>0.31</speed>
  <fix>3d</fix>
</trkpt>
<trkpt lat="-27.2744393" lon="151.2900602">
  <ele>354.23</ele>
  <time>2026-09-01T19:50:45Z</time>
  <course>253.26</course>
  <speed>0.05830951894845301</speed>
  <fix>3d</fix>
</trkpt>
<trkpt lat="-27.2744379" lon="151.2900591">
  <ele>354.24</ele>
  <time>2026-09-01T19:50:45Z</time>
  <course>337.12</course>
  <speed>0.29</speed>
  <fix>3d</fix>
</trkpt>
<trkpt lat="-27.2744391" lon="151.29006">
  <ele>354.23</ele>
  <time>2026-09-01T19:50:45Z</time>
  <course>257.15</course>
  <speed>0.053851648071345036</speed>
  <fix>3d</fix>
</trkpt>
<trkpt lat="-27.2744379" lon="151.2900591">
  <ele>354.24</ele>
  <time>2026-09-01T19:50:45Z</time>
  <course>337.12</course>
  <speed>0.29</speed>
  <fix>3d</fix>
</trkpt>
<trkpt lat="-27.2744389" lon="151.2900598">
  <ele>354.23</ele>
  <time>2026-09-01T19:50:45Z</time>
  <course>261.01</course>
  <speed>0.0412310562561766</speed>
  <fix>3d</fix>
</trkpt>
<trkpt lat="-27.2744375" lon="151.290059">
  <ele>354.25</ele>
  <time>2026-09-01T19:50:45Z</time>
  <course>345.23</course>
  <speed>0.27</speed>
  <fix>3d</fix>
</trkpt>
<trkpt lat="-27.2744386" lon="151.2900597">
  <ele>354.23</ele>
  <time>2026-09-01T19:50:45Z</time>
  <course>264.9</course>
  <speed>0.04</speed>
  <fix>3d</fix>
</trkpt>
<trkpt lat="-27.2744375" lon="151.290059">
  <ele>354.25</ele>
  <time>2026-09-01T19:50:45Z</time>
  <course>345.23</course>
  <speed>0.27</speed>
  <fix>3d</fix>
</trkpt>
<trkpt lat="-27.2744384" lon="151.2900596">
  <ele>354.23</ele>
  <time>2026-09-01T19:50:45Z</time>
  <course>268.8</course>
  <speed>0.04</speed>
  <fix>3d</fix>
</trkpt>
<trkpt lat="-27.274437" lon="151.2900589">
  <ele>354.25</ele>
  <time>2026-09-01T19:50:45Z</time>
  <course>354.94</course>
  <speed>0.25</speed>
  <fix>3d</fix>
</trkpt>
<trkpt lat="-27.2744382" lon="151.2900595">
  <ele>354.23</ele>
  <time>2026-09-01T19:50:45Z</time>
  <course>272.71</course>
  <speed>0.03605551275463989</speed>
  <fix>3d</fix>
</trkpt>
<trkpt lat="-27.274437" lon="151.2900589">
  <ele>354.25</ele>
  <time>2026-09-01T19:50:45Z</time>
  <course>354.94</course>
  <speed>0.25</speed>
  <fix>3d</fix>
</trkpt>
<trkpt lat="-27.274438" lon="151.2900595">
  <ele>354.24</ele>
  <time>2026-09-01T19:50:45Z</time>
  <course>276.62</course>
  <speed>0.04242640687119285</speed>
  <fix>3d</fix>
</trkpt>
<trkpt lat="-27.2744366" lon="151.2900589">
  <ele>354.26</ele>
  <time>2026-09-01T19:50:45Z</time>
  <course>6.29</course>
  <speed>0.23</speed>
  <fix>3d</fix>
</trkpt>
<trkpt lat="-27.2744377" lon="151.2900595">
  <ele>354.24</ele>
  <time>2026-09-01T19:50:45Z</time>
  <course>280.57</course>
  <speed>0.044721359549995794</speed>
  <fix>3d</fix>
</trkpt>
<trkpt lat="-27.2744366" lon="151.2900589">
  <ele>354.26</ele>
  <time>2026-09-01T19:50:45Z</time>
  <course>6.29</course>
  <speed>0.23</speed>
  <fix>3d</fix>
</trkpt>
<trkpt lat="-27.2744376" lon="151.2900595">
  <ele>354.24</ele>
  <time>2026-09-01T19:50:45Z</time>
  <course>284.49</course>
  <speed>0.0632455532033676</speed>
  <fix>3d</fix>
</trkpt>
<trkpt lat="-27.2744361" lon="151.290059">
  <ele>354.27</ele>
  <time>2026-09-01T19:50:45Z</time>
  <course>18.88</course>
  <speed>0.22</speed>
  <fix>3d</fix>
</trkpt>
<trkpt lat="-27.2744374" lon="151.2900595">
  <ele>354.24</ele>
  <time>2026-09-01T19:50:45Z</time>
  <course>288.39</course>
  <speed>0.07071067811865475</speed>
  <fix>3d</fix>
</trkpt>
<trkpt lat="-27.2744361" lon="151.290059">
  <ele>354.27</ele>
  <time>2026-09-01T19:50:45Z</time>
  <course>18.88</course>
  <speed>0.22</speed>
  <fix>3d</fix>
</trkpt>
<trkpt lat="-27.2744372" lon="151.2900595">
  <ele>354.24</ele>
  <time>2026-09-01T19:50:45Z</time>
  <course>292.32</course>
  <speed>0.08</speed>
  <fix>3d</fix>
</trkpt>
<trkpt lat="-27.2744358" lon="151.2900591">
  <ele>354.28</ele>
  <time>2026-09-01T19:50:45Z</time>
  <course>31.87</course>
  <speed>0.21</speed>
  <fix>3d</fix>
</trkpt>
<trkpt lat="-27.274437" lon="151.2900596">
  <ele>354.25</ele>
  <time>2026-09-01T19:50:45Z</time>
  <course>296.22</course>
  <speed>0.09</speed>
  <fix>3d</fix>
</trkpt>
<trkpt lat="-27.2744358" lon="151.2900591">
  <ele>354.28</ele>
  <time>2026-09-01T19:50:45Z</time>
  <course>31.87</course>
  <speed>0.21</speed>
  <fix>3d</fix>
</trkpt>
<trkpt lat="-27.2744369" lon="151.2900596">
  <ele>354.25</ele>
  <time>2026-09-01T19:50:45Z</time>
  <course>300.11</course>
  <speed>0.1</speed>
  <fix>3d</fix>
</trkpt>
<trkpt lat="-27.2744355" lon="151.2900594">
  <ele>354.28</ele>
  <time>2026-09-01T19:50:45Z</time>
  <course>44.36</course>
  <speed>0.22</speed>
  <fix>3d</fix>
</trkpt>
<trkpt lat="-27.2744367" lon="151.2900597">
  <ele>354.25</ele>
  <time>2026-09-01T19:50:45Z</time>
  <course>304.0</course>
  <speed>0.11</speed>
  <fix>3d</fix>
</trkpt>
<trkpt lat="-27.2744355" lon="151.2900594">
  <ele>354.28</ele>
  <time>2026-09-01T19:50:45Z</time>
  <course>44.36</course>
  <speed>0.22</speed>
  <fix>3d</fix>
</trkpt>
<trkpt lat="-27.2744366" lon="151.2900598">
  <ele>354.25</ele>
  <time>2026-09-01T19:50:45Z</time>
  <course>307.89</course>
  <speed>0.12041594578792296</speed>
  <fix>3d</fix>
</trkpt>
<trkpt lat="-27.2744353" lon="151.2900598">
  <ele>354.29</ele>
  <time>2026-09-01T19:50:45Z</time>
  <course>55.86</course>
  <speed>0.23</speed>
  <fix>3d</fix>
</trkpt>
<trkpt lat="-27.2744364" lon="151.2900599">
  <ele>354.26</ele>
  <time>2026-09-01T19:50:45Z</time>
  <course>311.77</course>
  <speed>0.13152946437965907</speed>
  <fix>3d</fix>
</trkpt>
<trkpt lat="-27.2744353" lon="151.2900598">
  <ele>354.29</ele>
  <time>2026-09-01T19:50:45Z</time>
  <course>55.86</course>
  <speed>0.23</speed>
  <fix>3d</fix>
</trkpt>
<trkpt lat="-27.2744363" lon="151.2900601">
  <ele>354.26</ele>
  <time>2026-09-01T19:50:45Z</time>
  <course>315.66</course>
  <speed>0.14317821063276354</speed>
  <fix>3d</fix>
</trkpt>
<trkpt lat="-27.2744351" lon="151.2900601">
  <ele>354.3</ele>
  <time>2026-09-01T19:50:45Z</time>
  <course>66.04</course>
  <speed>0.24</speed>
  <fix>3d</fix>
</trkpt>
<trkpt lat="-27.2744361" lon="151.2900603">
  <ele>354.26</ele>
  <time>2026-09-01T19:50:45Z</time>
  <course>319.55</course>
  <speed>0.15297058540778355</speed>
  <fix>3d</fix>
</trkpt>
<trkpt lat="-27.2744351" lon="151.2900601">
  <ele>354.3</ele>
  <time>2026-09-01T19:50:45Z</time>
  <course>66.04</course>
  <speed>0.24</speed>
  <fix>3d</fix>
</trkpt>
<trkpt lat="-27.2744361" lon="151.2900605">
  <ele>354.27</ele>
  <time>2026-09-01T19:50:45Z</time>
  <course>323.44</course>
  <speed>0.1649242250247064</speed>
  <fix>3d</fix>
</trkpt>
<trkpt lat="-27.2744349" lon="151.2900606">
  <ele>354.3</ele>
  <time>2026-09-01T19:50:45Z</time>
  <course>74.69</course>
  <speed>0.26</speed>
  <fix>3d</fix>
</trkpt>
<trkpt lat="-27.274436" lon="151.2900607">
  <ele>354.27</ele>
  <time>2026-09-01T19:50:45Z</time>
  <course>327.33</course>
  <speed>0.17464249196572978</speed>
  <fix>3d</fix>
</trkpt>
<trkpt lat="-27.2744349" lon="151.2900606">
  <ele>354.3</ele>
  <time>2026-09-01T19:50:45Z</time>
  <course>74.69</course>
  <speed>0.26</speed>
  <fix>3d</fix>
</trkpt>
<trkpt lat="-27.2744359" lon="151.2900609">
  <ele>354.27</ele>
  <time>2026-09-01T19:50:45Z</time>
  <course>331.21</course>
  <speed>0.1772004514666935</speed>
  <fix>3d</fix>
</trkpt>
<trkpt lat="-27.2744348" lon="151.2900612">
  <ele>354.31</ele>
  <time>2026-09-01T19:50:45Z</time>
  <course>81.71</course>
  <speed>0.28</speed>
  <fix>3d</fix>
</trkpt>
<trkpt lat="-27.2744358" lon="151.2900611">
  <ele>354.27</ele>
  <time>2026-09-01T19:50:45Z</time>
  <course>335.08</course>
  <speed>0.18681541692269404</speed>
  <fix>3d</fix>
</trkpt>
<trkpt lat="-27.2744348" lon="151.2900612">
  <ele>354.31</ele>
  <time>2026-09-01T19:50:45Z</time>
  <course>81.71</course>
  <speed>0.28</speed>
  <fix>3d</fix>
</trkpt>
<trkpt lat="-27.2744358" lon="151.2900614">
  <ele>354.27</ele>
  <time>2026-09-01T19:50:45Z</time>
  <course>338.96</course>
  <speed>0.19924858845171275</speed>
  <fix>3d</fix>
</trkpt>
<trkpt lat="-27.2744348" lon="151.2900618">
  <ele>354.31</ele>
  <time>2026-09-01T19:50:45Z</time>
  <course>87.22</course>
  <speed>0.3</speed>
  <fix>3d</fix>
</trkpt>
<trkpt lat="-27.2744357" lon="151.2900617">
  <ele>354.27</ele>
  <time>2026-09-01T19:50:45Z</time>
  <course>342.8</course>
  <speed>0.19924858845171275</speed>
  <fix>3d</fix>
</trkpt>
<trkpt lat="-27.2744348" lon="151.2900618">
  <ele>354.31</ele>
  <time>2026-09-01T19:50:45Z</time>
  <course>87.22</course>
  <speed>0.3</speed>
  <fix>3d</fix>
</trkpt>
<trkpt lat="-27.2744357" lon="151.2900619">
  <ele>354.27</ele>
  <time>2026-09-01T19:50:45Z</time>
  <course>346.69</course>
  <speed>0.208806130178211</speed>
  <fix>3d</fix>
</trkpt>
<trkpt lat="-27.2744348" lon="151.2900624">
  <ele>354.31</ele>
  <time>2026-09-01T19:50:45Z</time>
  <course>91.47</course>
  <speed>0.31</speed>
  <fix>3d</fix>
</trkpt>
<trkpt lat="-27.2744357" lon="151.2900622">
  <ele>354.27</ele>
  <time>2026-09-01T19:50:45Z</time>
  <course>350.58</course>
  <speed>0.208806130178211</speed>
  <fix>3d</fix>
</trkpt>
<trkpt lat="-27.2744348" lon="151.2900624">
  <ele>354.31</ele>
  <time>2026-09-01T19:50:45Z</time>
  <course>91.47</course>
  <speed>0.31</speed>
  <fix>3d</fix>
</trkpt>
<trkpt lat="-27.2744357" lon="151.2900625">
  <ele>354.27</ele>
  <time>2026-09-01T19:50:45Z</time>
  <course>354.46</course>
  <speed>0.208806130178211</speed>
  <fix>3d</fix>
</trkpt>
<trkpt lat="-27.2744348" lon="151.290063">
  <ele>354.3</ele>
  <time>2026-09-01T19:50:45Z</time>
  <course>94.86</course>
  <speed>0.33</speed>
  <fix>3d</fix>
</trkpt>
<trkpt lat="-27.2744356" lon="151.2900628">
  <ele>354.27</ele>
  <time>2026-09-01T19:50:45Z</time>
  <course>358.39</course>
  <speed>0.21840329667841554</speed>
  <fix>3d</fix>
</trkpt>
<trkpt lat="-27.2744348" lon="151.290063">
  <ele>354.3</ele>
  <time>2026-09-01T19:50:45Z</time>
  <course>94.86</course>
  <speed>0.33</speed>
  <fix>3d</fix>
</trkpt>
<trkpt lat="-27.2744356" lon="151.2900631">
  <ele>354.27</ele>
  <time>2026-09-01T19:50:45Z</time>
  <course>2.28</course>
  <speed>0.21840329667841554</speed>
  <fix>3d</fix>
</trkpt>
<trkpt lat="-27.2744348" lon="151.2900637">
  <ele>354.3</ele>
  <time>2026-09-01T19:50:45Z</time>
  <course>97.91</course>
  <speed>0.34</speed>
  <fix>3d</fix>
</trkpt>
<trkpt lat="-27.2744356" lon="151.2900634">
  <ele>354.27</ele>
  <time>2026-09-01T19:50:45Z</time>
  <course>6.17</course>
  <speed>0.22803508501982758</speed>
  <fix>3d</fix>
</trkpt>
<trkpt lat="-27.2744348" lon="151.2900637">
  <ele>354.3</ele>
  <time>2026-09-01T19:50:45Z</time>
  <course>97.91</course>
  <speed>0.34</speed>
  <fix>3d</fix>
</trkpt>
<trkpt lat="-27.2744356" lon="151.2900637">
  <ele>354.27</ele>
  <time>2026-09-01T19:50:45Z</time>
  <course>10.08</course>
  <speed>0.2308679276123039</speed>
  <fix>3d</fix>
</trkpt>
<trkpt lat="-27.2744348" lon="151.2900644">
  <ele>354.3</ele>
  <time>2026-09-01T19:50:45Z</time>
  <course>101.09</course>
  <speed>0.35</speed>
  <fix>3d</fix>
</trkpt>
<trkpt lat="-27.2744356" lon="151.2900641">
  <ele>354.27</ele>
  <time>2026-09-01T19:50:45Z</time>
  <course>13.97</course>
  <speed>0.2308679276123039</speed>
  <fix>3d</fix>
</trkpt>
<trkpt lat="-27.2744348" lon="151.2900644">
  <ele>354.3</ele>
  <time>2026-09-01T19:50:45Z</time>
  <course>101.09</course>
  <speed>0.35</speed>
  <fix>3d</fix>
</trkpt>
<trkpt lat="-27.2744356" lon="151.2900644">
  <ele>354.27</ele>
  <time>2026-09-01T19:50:45Z</time>
  <course>17.86</course>
  <speed>0.2340939982143925</speed>
  <fix>3d</fix>
</trkpt>
<trkpt lat="-27.2744349" lon="151.2900651">
  <ele>354.3</ele>
  <time>2026-09-01T19:50:45Z</time>
  <course>105.19</course>
  <speed>0.35</speed>
  <fix>3d</fix>
</trkpt>
<trkpt lat="-27.2744356" lon="151.2900647">
  <ele>354.26</ele>
  <time>2026-09-01T19:50:45Z</time>
  <course>21.74</course>
  <speed>0.24166091947189144</speed>
  <fix>3d</fix>
</trkpt>
<trkpt lat="-27.2744349" lon="151.2900651">
  <ele>354.3</ele>
  <time>2026-09-01T19:50:45Z</time>
  <course>105.19</course>
  <speed>0.35</speed>
  <fix>3d</fix>
</trkpt>
<trkpt lat="-27.2744356" lon="151.290065">
  <ele>354.26</ele>
  <time>2026-09-01T19:50:45Z</time>
  <course>25.62</course>
  <speed>0.23706539182259395</speed>
  <fix>3d</fix>
</trkpt>
<trkpt lat="-27.2744352" lon="151.2900658">
  <ele>354.3</ele>
  <time>2026-09-01T19:50:45Z</time>
  <course>111.39</course>
  <speed>0.36</speed>
  <fix>3d</fix>
</trkpt>
<trkpt lat="-27.2744357" lon="151.2900654">
  <ele>354.26</ele>
  <time>2026-09-01T19:50:45Z</time>
  <course>29.5</course>
  <speed>0.24698178070456936</speed>
  <fix>3d</fix>
</trkpt>
<trkpt lat="-27.2744352" lon="151.2900658">
  <ele>354.3</ele>
  <time>2026-09-01T19:50:45Z</time>
  <course>111.39</course>
  <speed>0.36</speed>
  <fix>3d</fix>
</trkpt>
<trkpt lat="-27.2744358" lon="151.2900657">
  <ele>354.26</ele>
  <time>2026-09-01T19:50:45Z</time>
  <course>33.38</course>
  <speed>0.24413111231467405</speed>
  <fix>3d</fix>
</trkpt>
<trkpt lat="-27.2744354" lon="151.2900665">
  <ele>354.3</ele>
  <time>2026-09-01T19:50:45Z</time>
  <course>118.86</course>
  <speed>0.36</speed>
  <fix>3d</fix>
</trkpt>
<trkpt lat="-27.2744359" lon="151.290066">
  <ele>354.26</ele>
  <time>2026-09-01T19:50:45Z</time>
  <course>37.27</course>
  <speed>0.25612496949731395</speed>
  <fix>3d</fix>
</trkpt>
<trkpt lat="-27.2744354" lon="151.2900665">
  <ele>354.3</ele>
  <time>2026-09-01T19:50:45Z</time>
  <course>118.86</course>
  <speed>0.36</speed>
  <fix>3d</fix>
</trkpt>
<trkpt lat="-27.274436" lon="151.2900663">
  <ele>354.25</ele>
  <time>2026-09-01T19:50:45Z</time>
  <course>41.19</course>
  <speed>0.25495097567963926</speed>
  <fix>3d</fix>
</trkpt>
<trkpt lat="-27.2744358" lon="151.290067">
  <ele>354.3</ele>
  <time>2026-09-01T19:50:45Z</time>
  <course>125.95</course>
  <speed>0.37</speed>
  <fix>3d</fix>
</trkpt>
<trkpt lat="-27.2744362" lon="151.2900666">
  <ele>354.25</ele>
  <time>2026-09-01T19:50:45Z</time>
  <course>45.08</course>
  <speed>0.2545584412271571</speed>
  <fix>3d</fix>
</trkpt>
<trkpt lat="-27.2744358" lon="151.290067">
  <ele>354.3</ele>
  <time>2026-09-01T19:50:45Z</time>
  <course>125.95</course>
  <speed>0.37</speed>
  <fix>3d</fix>
</trkpt>
<trkpt lat="-27.2744364" lon="151.2900669">
  <ele>354.25</ele>
  <time>2026-09-01T19:50:45Z</time>
  <course>48.98</course>
  <speed>0.25495097567963926</speed>
  <fix>3d</fix>
</trkpt>
<trkpt lat="-27.2744362" lon="151.2900677">
  <ele>354.3</ele>
  <time>2026-09-01T19:50:45Z</time>
  <course>132.63</course>
  <speed>0.37</speed>
  <fix>3d</fix>
</trkpt>
<trkpt lat="-27.2744365" lon="151.2900672">
  <ele>354.26</ele>
  <time>2026-09-01T19:50:45Z</time>
  <course>52.87</course>
  <speed>0.25612496949731395</speed>
  <fix>3d</fix>
</trkpt>
<trkpt lat="-27.2744362" lon="151.2900677">
  <ele>354.3</ele>
  <time>2026-09-01T19:50:45Z</time>
  <course>132.63</course>
  <speed>0.37</speed>
  <fix>3d</fix>
</trkpt>
<trkpt lat="-27.2744367" lon="151.2900674">
  <ele>354.26</ele>
  <time>2026-09-01T19:50:45Z</time>
  <course>56.76</course>
  <speed>0.25</speed>
  <fix>3d</fix>
</trkpt>
<trkpt lat="-27.2744367" lon="151.2900682">
  <ele>354.3</ele>
  <time>2026-09-01T19:50:45Z</time>
  <course>139.11</course>
  <speed>0.37</speed>
  <fix>3d</fix>
</trkpt>
<trkpt lat="-27.274437" lon="151.2900677">
  <ele>354.26</ele>
  <time>2026-09-01T19:50:45Z</time>
  <course>60.64</course>
  <speed>0.25238858928247926</speed>
  <fix>3d</fix>
</trkpt>
<trkpt lat="-27.2744367" lon="151.2900682">
  <ele>354.3</ele>
  <time>2026-09-01T19:50:45Z</time>
  <course>139.11</course>
  <speed>0.37</speed>
  <fix>3d</fix>
</trkpt>
<trkpt lat="-27.2744372" lon="151.2900679">
  <ele>354.26</ele>
  <time>2026-09-01T19:50:45Z</time>
  <course>64.49</course>
  <speed>0.25059928172283336</speed>
  <fix>3d</fix>
</trkpt>
<trkpt lat="-27.2744373" lon="151.2900687">
  <ele>354.3</ele>
  <time>2026-09-01T19:50:45Z</time>
  <course>145.42</course>
  <speed>0.37</speed>
  <fix>3d</fix>
</trkpt>
<trkpt lat="-27.2744374" lon="151.2900681">
  <ele>354.26</ele>
  <time>2026-09-01T19:50:45Z</time>
  <course>68.38</course>
  <speed>0.24596747752497689</speed>
  <fix>3d</fix>
</trkpt>
<trkpt lat="-27.2744373" lon="151.2900687">
  <ele>354.3</ele>
  <time>2026-09-01T19:50:45Z</time>
  <course>145.42</course>
  <speed>0.37</speed>
  <fix>3d</fix>
</trkpt>
<trkpt lat="-27.2744377" lon="151.2900683">
  <ele>354.26</ele>
  <time>2026-09-01T19:50:45Z</time>
  <course>72.28</course>
  <speed>0.25079872407968906</speed>
  <fix>3d</fix>
</trkpt>
<trkpt lat="-27.2744378" lon="151.290069">
  <ele>354.3</ele>
  <time>2026-09-01T19:50:45Z</time>
  <course>151.66</course>
  <speed>0.36</speed>
  <fix>3d</fix>
</trkpt>
<trkpt lat="-27.2744379" lon="151.2900685">
  <ele>354.26</ele>
  <time>2026-09-01T19:50:45Z</time>
  <course>76.19</course>
  <speed>0.24698178070456936</speed>
  <fix>3d</fix>
</trkpt>
<trkpt lat="-27.2744378" lon="151.290069">
  <ele>354.3</ele>
  <time>2026-09-01T19:50:45Z</time>
  <course>151.66</course>
  <speed>0.36</speed>
  <fix>3d</fix>
</trkpt>
<trkpt lat="-27.2744382" lon="151.2900687">
  <ele>354.26</ele>
  <time>2026-09-01T19:50:45Z</time>
  <course>80.12</course>
  <speed>0.24041630560342614</speed>
  <fix>3d</fix>
</trkpt>
<trkpt lat="-27.2744384" lon="151.2900694">
  <ele>354.3</ele>
  <time>2026-09-01T19:50:45Z</time>
  <course>157.96</course>
  <speed>0.35</speed>
  <fix>3d</fix>
</trkpt>
<trkpt lat="-27.2744384" lon="151.2900688">
  <ele>354.26</ele>
  <time>2026-09-01T19:50:45Z</time>
  <course>84.02</course>
  <speed>0.23769728648009425</speed>
  <fix>3d</fix>
</trkpt>
<trkpt lat="-27.2744384" lon="151.2900694">
  <ele>354.3</ele>
  <time>2026-09-01T19:50:45Z</time>
  <course>157.96</course>
  <speed>0.35</speed>
  <fix>3d</fix>
</trkpt>
<trkpt lat="-27.2744387" lon="151.290069">
  <ele>354.26</ele>
  <time>2026-09-01T19:50:45Z</time>
  <course>87.93</course>
  <speed>0.23345235059857505</speed>
  <fix>3d</fix>
</trkpt>
<trkpt lat="-27.274439" lon="151.2900695">
  <ele>354.3</ele>
  <time>2026-09-01T19:50:45Z</time>
  <course>164.45</course>
  <speed>0.34</speed>
  <fix>3d</fix>
</trkpt>
<trkpt lat="-27.274439" lon="151.2900691">
  <ele>354.26</ele>
  <time>2026-09-01T19:50:45Z</time>
  <course>91.83</course>
  <speed>0.2220360331117452</speed>
  <fix>3d</fix>
</trkpt>
<trkpt lat="-27.274439" lon="151.2900695">
  <ele>354.3</ele>
  <time>2026-09-01T19:50:45Z</time>
  <course>164.45</course>
  <speed>0.34</speed>
  <fix>3d</fix>
</trkpt>
<trkpt lat="-27.2744392" lon="151.2900692">
  <ele>354.26</ele>
  <time>2026-09-01T19:50:45Z</time>
  <course>95.74</course>
  <speed>0.22022715545545238</speed>
  <fix>3d</fix>
</trkpt>
<trkpt lat="-27.2744396" lon="151.2900697">
  <ele>354.3</ele>
  <time>2026-09-01T19:50:45Z</time>
  <course>171.22</course>
  <speed>0.33</speed>
  <fix>3d</fix>
</trkpt>
<trkpt lat="-27.2744395" lon="151.2900692">
  <ele>354.26</ele>
  <time>2026-09-01T19:50:45Z</time>
  <course>99.64</course>
  <speed>0.22</speed>
  <fix>3d</fix>
</trkpt>
<trkpt lat="-27.2744396" lon="151.2900697">
  <ele>354.3</ele>
  <time>2026-09-01T19:50:45Z</time>
  <course>171.22</course>
  <speed>0.33</speed>
  <fix>3d</fix>
</trkpt>
<trkpt lat="-27.2744398" lon="151.2900693">
  <ele>354.26</ele>
  <time>2026-09-01T19:50:45Z</time>
  <course>103.54</course>
  <speed>0.21</speed>
  <fix>3d</fix>
</trkpt>
<trkpt lat="-27.2744402" lon="151.2900698">
  <ele>354.3</ele>
  <time>2026-09-01T19:50:45Z</time>
  <course>178.27</course>
  <speed>0.32</speed>
  <fix>3d</fix>
</trkpt>
<trkpt lat="-27.27444" lon="151.2900693">
  <ele>354.27</ele>
  <time>2026-09-01T19:50:45Z</time>
  <course>107.44</course>
  <speed>0.2109502310972899</speed>
  <fix>3d</fix>
</trkpt>
<trkpt lat="-27.2744402" lon="151.2900698">
  <ele>354.3</ele>
  <time>2026-09-01T19:50:45Z</time>
  <course>178.27</course>
  <speed>0.32</speed>
  <fix>3d</fix>
</trkpt>
<trkpt lat="-27.2744403" lon="151.2900693">
  <ele>354.27</ele>
  <time>2026-09-01T19:50:45Z</time>
  <course>111.34</course>
  <speed>0.20223748416156684</speed>
  <fix>3d</fix>
</trkpt>
<trkpt lat="-27.2744408" lon="151.2900698">
  <ele>354.3</ele>
  <time>2026-09-01T19:50:45Z</time>
  <course>185.66</course>
  <speed>0.31</speed>
  <fix>3d</fix>
</trkpt>
<trkpt lat="-27.2744405" lon="151.2900694">
  <ele>354.27</ele>
  <time>2026-09-01T19:50:45Z</time>
  <course>115.23</course>
  <speed>0.194164878389476</speed>
  <fix>3d</fix>
</trkpt>
<trkpt lat="-27.2744408" lon="151.2900698">
  <ele>354.3</ele>
  <time>2026-09-01T19:50:45Z</time>
  <course>185.66</course>
  <speed>0.31</speed>
  <fix>3d</fix>
</trkpt>
<trkpt lat="-27.2744408" lon="151.2900694">
  <ele>354.27</ele>
  <time>2026-09-01T19:50:45Z</time>
  <course>119.13</course>
  <speed>0.18973665961010278</speed>
  <fix>3d</fix>
</trkpt>
<trkpt lat="-27.2744413" lon="151.2900697">
  <ele>354.3</ele>
  <time>2026-09-01T19:50:45Z</time>
  <course>193.48</course>
  <speed>0.29</speed>
  <fix>3d</fix>
</trkpt>
<trkpt lat="-27.274441" lon="151.2900693">
  <ele>354.28</ele>
  <time>2026-09-01T19:50:45Z</time>
  <course>123.01</course>
  <speed>0.18384776310850234</speed>
  <fix>3d</fix>
</trkpt>
<trkpt lat="-27.2744413" lon="151.2900697">
  <ele>354.3</ele>
  <time>2026-09-01T19:50:45Z</time>
  <course>193.48</course>
  <speed>0.29</speed>
  <fix>3d</fix>
</trkpt>
<trkpt lat="-27.2744413" lon="151.2900693">
  <ele>354.28</ele>
  <time>2026-09-01T19:50:45Z</time>
  <course>126.9</course>
  <speed>0.17888543819998318</speed>
  <fix>3d</fix>
</trkpt>
<trkpt lat="-27.2744418" lon="151.2900695">
  <ele>354.3</ele>
  <time>2026-09-01T19:50:45Z</time>
  <course>201.74</course>
  <speed>0.28</speed>
  <fix>3d</fix>
</trkpt>
<trkpt lat="-27.2744415" lon="151.2900692">
  <ele>354.28</ele>
  <time>2026-09-01T19:50:45Z</time>
  <course>130.78</course>
  <speed>0.17492855684535902</speed>
  <fix>3d</fix>
</trkpt>
<trkpt lat="-27.2744418" lon="151.2900695">
  <ele>354.3</ele>
  <time>2026-09-01T19:50:45Z</time>
  <course>201.74</course>
  <speed>0.28</speed>
  <fix>3d</fix>
</trkpt>
<trkpt lat="-27.2744417" lon="151.2900691">
  <ele>354.28</ele>
  <time>2026-09-01T19:50:45Z</time>
  <course>134.67</course>
  <speed>0.17204650534085253</speed>
  <fix>3d</fix>
</trkpt>
<trkpt lat="-27.2744422" lon="151.2900693">
  <ele>354.3</ele>
  <time>2026-09-01T19:50:45Z</time>
  <course>210.48</course>
  <speed>0.27</speed>
  <fix>3d</fix>
</trkpt>
<trkpt lat="-27.2744419" lon="151.290069">
  <ele>354.28</ele>
  <time>2026-09-01T19:50:45Z</time>
  <course>138.58</course>
  <speed>0.17029386365926402</speed>
  <fix>3d</fix>
</trkpt>
<trkpt lat="-27.2744422" lon="151.2900693">
  <ele>354.3</ele>
  <time>2026-09-01T19:50:45Z</time>
  <course>210.48</course>
  <speed>0.27</speed>
  <fix>3d</fix>
</trkpt>
<trkpt lat="-27.2744421" lon="151.2900689">
  <ele>354.28</ele>
  <time>2026-09-01T19:50:46Z</time>
  <course>142.48</course>
  <speed>0.1697056274847714</speed>
  <fix>3d</fix>
</trkpt>
<trkpt lat="-27.2744427" lon="151.290069">
  <ele>354.3</ele>
  <time>2026-09-01T19:50:46Z</time>
  <course>219.63</course>
  <speed>0.26</speed>
  <fix>3d</fix>
</trkpt>
<trkpt lat="-27.2744423" lon="151.2900687">
  <ele>354.28</ele>
  <time>2026-09-01T19:50:46Z</time>
  <course>146.39</course>
  <speed>0.17029386365926402</speed>
  <fix>3d</fix>
</trkpt>
<trkpt lat="-27.2744427" lon="151.290069">
  <ele>354.3</ele>
  <time>2026-09-01T19:50:46Z</time>
  <course>219.63</course>
  <speed>0.26</speed>
  <fix>3d</fix>
</trkpt>
<trkpt lat="-27.2744424" lon="151.2900686">
  <ele>354.28</ele>
  <time>2026-09-01T19:50:46Z</time>
  <course>150.3</course>
  <speed>0.1664331697709324</speed>
  <fix>3d</fix>
</trkpt>
<trkpt lat="-27.274443" lon="151.2900687">
  <ele>354.29</ele>
  <time>2026-09-01T19:50:46Z</time>
  <course>229.07</course>
  <speed>0.26</speed>
  <fix>3d</fix>
</trkpt>
<trkpt lat="-27.2744426" lon="151.2900684">
  <ele>354.28</ele>
  <time>2026-09-01T19:50:46Z</time>
  <course>154.2</course>
  <speed>0.17</speed>
  <fix>3d</fix>
</trkpt>
<trkpt lat="-27.274443" lon="151.2900687">
  <ele>354.29</ele>
  <time>2026-09-01T19:50:46Z</time>
  <course>229.07</course>
  <speed>0.26</speed>
  <fix>3d</fix>
</trkpt>
<trkpt lat="-27.2744427" lon="151.2900682">
  <ele>354.28</ele>
  <time>2026-09-01T19:50:46Z</time>
  <course>158.1</course>
  <speed>0.17464249196572978</speed>
  <fix>3d</fix>
</trkpt>
<trkpt lat="-27.2744433" lon="151.2900682">
  <ele>354.29</ele>
  <time>2026-09-01T19:50:46Z</time>
  <course>238.67</course>
  <speed>0.25</speed>
  <fix>3d</fix>
</trkpt>
<trkpt lat="-27.2744428" lon="151.290068">
  <ele>354.28</ele>
  <time>2026-09-01T19:50:46Z</time>
  <course>162.02</course>
  <speed>0.1772004514666935</speed>
  <fix>3d</fix>
</trkpt>
<trkpt lat="-27.2744433" lon="151.2900682">
  <ele>354.29</ele>
  <time>2026-09-01T19:50:46Z</time>
  <course>238.67</course>
  <speed>0.25</speed>
  <fix>3d</fix>
</trkpt>
<trkpt lat="-27.2744429" lon="151.2900678">
  <ele>354.27</ele>
  <time>2026-09-01T19:50:46Z</time>
  <course>165.9</course>
  <speed>0.17464249196572978</speed>
  <fix>3d</fix>
</trkpt>
<trkpt lat="-27.2744434" lon="151.2900678">
  <ele>354.28</ele>
  <time>2026-09-01T19:50:46Z</time>
  <course>248.33</course>
  <speed>0.26</speed>
  <fix>3d</fix>
</trkpt>
<trkpt lat="-27.274443" lon="151.2900676">
  <ele>354.27</ele>
  <time>2026-09-01T19:50:46Z</time>
  <course>169.78</course>
  <speed>0.1824828759089466</speed>
  <fix>3d</fix>
</trkpt>
<trkpt lat="-27.2744434" lon="151.2900678">
  <ele>354.28</ele>
  <time>2026-09-01T19:50:46Z</time>
  <course>248.33</course>
  <speed>0.26</speed>
  <fix>3d</fix>
</trkpt>
<trkpt lat="-27.2744431" lon="151.2900674">
  <ele>354.27</ele>
  <time>2026-09-01T19:50:46Z</time>
  <course>173.67</course>
  <speed>0.18027756377319945</speed>
  <fix>3d</fix>
</trkpt>
<trkpt lat="-27.2744436" lon="151.2900672">
  <ele>354.28</ele>
  <time>2026-09-01T19:50:46Z</time>
  <course>257.8</course>
  <speed>0.26</speed>
  <fix>3d</fix>
</trkpt>
<trkpt lat="-27.2744432" lon="151.2900672">
  <ele>354.28</ele>
  <time>2026-09-01T19:50:46Z</time>
  <course>177.56</course>
  <speed>0.19</speed>
  <fix>3d</fix>
</trkpt>
<trkpt lat="-27.2744436" lon="151.2900672">
  <ele>354.28</ele>
  <time>2026-09-01T19:50:46Z</time>
  <course>257.8</course>
  <speed>0.26</speed>
  <fix>3d</fix>
</trkpt>
<trkpt lat="-27.2744432" lon="151.2900669">
  <ele>354.28</ele>
  <time>2026-09-01T19:50:46Z</time>
  <course>181.46</course>
  <speed>0.19026297590440447</speed>
  <fix>3d</fix>
</trkpt>
<trkpt lat="-27.2744437" lon="151.2900667">
  <ele>354.28</ele>
  <time>2026-09-01T19:50:46Z</time>
  <course>266.59</course>
  <speed>0.27</speed>
  <fix>3d</fix>
</trkpt>
<trkpt lat="-27.2744432" lon="151.2900667">
  <ele>354.28</ele>
  <time>2026-09-01T19:50:46Z</time>
  <course>185.35</course>
  <speed>0.2009975124224178</speed>
  <fix>3d</fix>
</trkpt>
<trkpt lat="-27.2744437" lon="151.2900667">
  <ele>354.28</ele>
  <time>2026-09-01T19:50:46Z</time>
  <course>266.59</course>
  <speed>0.27</speed>
  <fix>3d</fix>
</trkpt>
<trkpt lat="-27.2744432" lon="151.2900664">
  <ele>354.28</ele>
  <time>2026-09-01T19:50:46Z</time>
  <course>189.24</course>
  <speed>0.20223748416156684</speed>
  <fix>3d</fix>
</trkpt>
<trkpt lat="-27.2744437" lon="151.2900662">
  <ele>354.27</ele>
  <time>2026-09-01T19:50:46Z</time>
  <course>274.59</course>
  <speed>0.27</speed>
  <fix>3d</fix>
</trkpt>
<trkpt lat="-27.2744433" lon="151.2900662">
  <ele>354.28</ele>
  <time>2026-09-01T19:50:46Z</time>
  <course>193.13</course>
  <speed>0.2039607805437114</speed>
  <fix>3d</fix>
</trkpt>
<trkpt lat="-27.2744437" lon="151.2900662">
  <ele>354.27</ele>
  <time>2026-09-01T19:50:46Z</time>
  <course>274.59</course>
  <speed>0.27</speed>
  <fix>3d</fix>
</trkpt>
<trkpt lat="-27.2744433" lon="151.2900659">
  <ele>354.28</ele>
  <time>2026-09-01T19:50:46Z</time>
  <course>197.02</course>
  <speed>0.20615528128088303</speed>
  <fix>3d</fix>
</trkpt>
<trkpt lat="-27.2744436" lon="151.2900656">
  <ele>354.27</ele>
  <time>2026-09-01T19:50:46Z</time>
  <course>282.02</course>
  <speed>0.28</speed>
  <fix>3d</fix>
</trkpt>
<trkpt lat="-27.2744433" lon="151.2900657">
  <ele>354.28</ele>
  <time>2026-09-01T19:50:46Z</time>
  <course>200.91</course>
  <speed>0.19924858845171275</speed>
  <fix>3d</fix>
</trkpt>
<trkpt lat="-27.2744436" lon="151.2900656">
  <ele>354.27</ele>
  <time>2026-09-01T19:50:46Z</time>
  <course>282.02</course>
  <speed>0.28</speed>
  <fix>3d</fix>
</trkpt>
<trkpt lat="-27.2744433" lon="151.2900654">
  <ele>354.28</ele>
  <time>2026-09-01T19:50:46Z</time>
  <course>204.8</course>
  <speed>0.20615528128088303</speed>
  <fix>3d</fix>
</trkpt>
<trkpt lat="-27.2744435" lon="151.2900651">
  <ele>354.27</ele>
  <time>2026-09-01T19:50:46Z</time>
  <course>288.99</course>
  <speed>0.28</speed>
  <fix>3d</fix>
</trkpt>
<trkpt lat="-27.2744432" lon="151.2900652">
  <ele>354.28</ele>
  <time>2026-09-01T19:50:46Z</time>
  <course>208.69</course>
  <speed>0.2102379604162864</speed>
  <fix>3d</fix>
</trkpt>
<trkpt lat="-27.2744435" lon="151.2900651">
  <ele>354.27</ele>
  <time>2026-09-01T19:50:46Z</time>
  <course>288.99</course>
  <speed>0.28</speed>
  <fix>3d</fix>
</trkpt>
<trkpt lat="-27.2744431" lon="151.2900649">
  <ele>354.28</ele>
  <time>2026-09-01T19:50:46Z</time>
  <course>212.58</course>
  <speed>0.20591260281974003</speed>
  <fix>3d</fix>
</trkpt>
<trkpt lat="-27.2744434" lon="151.2900645">
  <ele>354.26</ele>
  <time>2026-09-01T19:50:46Z</time>
  <course>295.61</course>
  <speed>0.28</speed>
  <fix>3d</fix>
</trkpt>
<trkpt lat="-27.274443" lon="151.2900646">
  <ele>354.27</ele>
  <time>2026-09-01T19:50:46Z</time>
  <course>216.47</course>
  <speed>0.20591260281974003</speed>
  <fix>3d</fix>
</trkpt>
<trkpt lat="-27.2744434" lon="151.2900645">
  <ele>354.26</ele>
  <time>2026-09-01T19:50:46Z</time>
  <course>295.61</course>
  <speed>0.28</speed>
  <fix>3d</fix>
</trkpt>
<trkpt lat="-27.274443" lon="151.2900644">
  <ele>354.27</ele>
  <time>2026-09-01T19:50:46Z</time>
  <course>220.36</course>
  <speed>0.2109502310972899</speed>
  <fix>3d</fix>
</trkpt>
<trkpt lat="-27.2744431" lon="151.290064">
  <ele>354.26</ele>
  <time>2026-09-01T19:50:46Z</time>
  <course>302.02</course>
  <speed>0.29</speed>
  <fix>3d</fix>
</trkpt>
<trkpt lat="-27.2744428" lon="151.2900642">
  <ele>354.26</ele>
  <time>2026-09-01T19:50:46Z</time>
  <course>224.25</course>
  <speed>0.20808652046684814</speed>
  <fix>3d</fix>
</trkpt>
<trkpt lat="-27.2744431" lon="151.290064">
  <ele>354.26</ele>
  <time>2026-09-01T19:50:46Z</time>
  <course>302.02</course>
  <speed>0.29</speed>
  <fix>3d</fix>
</trkpt>
<trkpt lat="-27.2744427" lon="151.2900639">
  <ele>354.26</ele>
  <time>2026-09-01T19:50:46Z</time>
  <course>228.15</course>
  <speed>0.20615528128088303</speed>
  <fix>3d</fix>
</trkpt>
<trkpt lat="-27.2744428" lon="151.2900635">
  <ele>354.25</ele>
  <time>2026-09-01T19:50:46Z</time>
  <course>308.29</course>
  <speed>0.29</speed>
  <fix>3d</fix>
</trkpt>
<trkpt lat="-27.2744426" lon="151.2900637">
  <ele>354.26</ele>
  <time>2026-09-01T19:50:46Z</time>
  <course>232.04</course>
  <speed>0.20615528128088303</speed>
  <fix>3d</fix>
</trkpt>
<trkpt lat="-27.2744428" lon="151.2900635">
  <ele>354.25</ele>
  <time>2026-09-01T19:50:46Z</time>
  <course>308.29</course>
  <speed>0.29</speed>
  <fix>3d</fix>
</trkpt>
<trkpt lat="-27.2744425" lon="151.2900635">
  <ele>354.26</ele>
  <time>2026-09-01T19:50:46Z</time>
  <course>235.93</course>
  <speed>0.20518284528683192</speed>
  <fix>3d</fix>
</trkpt>
<trkpt lat="-27.2744425" lon="151.2900631">
  <ele>354.25</ele>
  <time>2026-09-01T19:50:46Z</time>
  <course>314.45</course>
  <speed>0.28</speed>
  <fix>3d</fix>
</trkpt>
<trkpt lat="-27.2744423" lon="151.2900633">
  <ele>354.26</ele>
  <time>2026-09-01T19:50:46Z</time>
  <course>239.82</course>
  <speed>0.20518284528683192</speed>
  <fix>3d</fix>
</trkpt>
<trkpt lat="-27.2744425" lon="151.2900631">
  <ele>354.25</ele>
  <time>2026-09-01T19:50:46Z</time>
  <course>314.45</course>
  <speed>0.28</speed>
  <fix>3d</fix>
</trkpt>
<trkpt lat="-27.2744422" lon="151.2900631">
  <ele>354.26</ele>
  <time>2026-09-01T19:50:46Z</time>
  <course>243.68</course>
  <speed>0.19849433241279207</speed>
  <fix>3d</fix>
</trkpt>
<trkpt lat="-27.2744421" lon="151.2900627">
  <ele>354.25</ele>
  <time>2026-09-01T19:50:46Z</time>
  <course>320.59</course>
  <speed>0.28</speed>
  <fix>3d</fix>
</trkpt>
<trkpt lat="-27.274442" lon="151.2900629">
  <ele>354.25</ele>
  <time>2026-09-01T19:50:46Z</time>
  <course>247.58</course>
  <speed>0.19209372712298545</speed>
  <fix>3d</fix>
</trkpt>
<trkpt lat="-27.2744421" lon="151.2900627">
  <ele>354.25</ele>
  <time>2026-09-01T19:50:46Z</time>
  <course>320.59</course>
  <speed>0.28</speed>
  <fix>3d</fix>
</trkpt>
<trkpt lat="-27.2744418" lon="151.2900627">
  <ele>354.25</ele>
  <time>2026-09-01T19:50:46Z</time>
  <course>251.48</course>
  <speed>0.194164878389476</speed>
  <fix>3d</fix>
</trkpt>
<trkpt lat="-27.2744416" lon="151.2900624">
  <ele>354.24</ele>
  <time>2026-09-01T19:50:46Z</time>
  <course>326.8</course>
  <speed>0.27</speed>
  <fix>3d</fix>
</trkpt>
<trkpt lat="-27.2744416" lon="151.2900626">
  <ele>354.25</ele>
  <time>2026-09-01T19:50:46Z</time>
  <course>255.44</course>
  <speed>0.18867962264113206</speed>
  <fix>3d</fix>
</trkpt>
<trkpt lat="-27.2744416" lon="151.2900624">
  <ele>354.24</ele>
  <time>2026-09-01T19:50:46Z</time>
  <course>326.8</course>
  <speed>0.27</speed>
  <fix>3d</fix>
</trkpt>
<trkpt lat="-27.2744415" lon="151.2900624">
  <ele>354.25</ele>
  <time>2026-09-01T19:50:46Z</time>
  <course>259.34</course>
  <speed>0.1835755975068582</speed>
  <fix>3d</fix>
</trkpt>
<trkpt lat="-27.2744413" lon="151.2900621">
  <ele>354.24</ele>
  <time>2026-09-01T19:50:46Z</time>
  <course>333.17</course>
  <speed>0.26</speed>
  <fix>3d</fix>
</trkpt>
<trkpt lat="-27.2744413" lon="151.2900623">
  <ele>354.25</ele>
  <time>2026-09-01T19:50:46Z</time>
  <course>263.23</course>
  <speed>0.17888543819998318</speed>
  <fix>3d</fix>
</trkpt>
<trkpt lat="-27.2744413" lon="151.2900621">
  <ele>354.24</ele>
  <time>2026-09-01T19:50:46Z</time>
  <course>333.17</course>
  <speed>0.26</speed>
  <fix>3d</fix>
</trkpt>
<trkpt lat="-27.2744411" lon="151.2900622">
  <ele>354.25</ele>
  <time>2026-09-01T19:50:46Z</time>
  <course>267.13</course>
  <speed>0.17464249196572978</speed>
  <fix>3d</fix>
</trkpt>
<trkpt lat="-27.2744408" lon="151.2900619">
  <ele>354.24</ele>
  <time>2026-09-01T19:50:46Z</time>
  <course>339.67</course>
  <speed>0.26</speed>
  <fix>3d</fix>
</trkpt>
<trkpt lat="-27.2744409" lon="151.2900621">
  <ele>354.25</ele>
  <time>2026-09-01T19:50:46Z</time>
  <course>271.02</course>
  <speed>0.1708800749063506</speed>
  <fix>3d</fix>
</trkpt>
<trkpt lat="-27.2744408" lon="151.2900619">
  <ele>354.24</ele>
  <time>2026-09-01T19:50:46Z</time>
  <course>339.67</course>
  <speed>0.26</speed>
  <fix>3d</fix>
</trkpt>
<trkpt lat="-27.2744407" lon="151.290062">
  <ele>354.25</ele>
  <time>2026-09-01T19:50:46Z</time>
  <course>274.9</course>
  <speed>0.1676305461424021</speed>
  <fix>3d</fix>
</trkpt>
<trkpt lat="-27.2744403" lon="151.2900617">
  <ele>354.25</ele>
  <time>2026-09-01T19:50:46Z</time>
  <course>346.52</course>
  <speed>0.25</speed>
  <fix>3d</fix>
</trkpt>
<trkpt lat="-27.2744405" lon="151.2900619">
  <ele>354.25</ele>
  <time>2026-09-01T19:50:46Z</time>
  <course>278.77</course>
  <speed>0.1649242250247064</speed>
  <fix>3d</fix>
</trkpt>
<trkpt lat="-27.2744403" lon="151.2900617">
  <ele>354.25</ele>
  <time>2026-09-01T19:50:46Z</time>
  <course>346.52</course>
  <speed>0.25</speed>
  <fix>3d</fix>
</trkpt>
<trkpt lat="-27.2744403" lon="151.2900618">
  <ele>354.25</ele>
  <time>2026-09-01T19:50:46Z</time>
  <course>282.49</course>
  <speed>0.16278820596099705</speed>
  <fix>3d</fix>
</trkpt>
<trkpt lat="-27.27444" lon="151.2900617">
  <ele>354.25</ele>
  <time>2026-09-01T19:50:46Z</time>
  <course>353.92</course>
  <speed>0.24</speed>
  <fix>3d</fix>
</trkpt>
<trkpt lat="-27.2744401" lon="151.2900618">
  <ele>354.25</ele>
  <time>2026-09-01T19:50:46Z</time>
  <course>285.84</course>
  <speed>0.15132745950421556</speed>
  <fix>3d</fix>
</trkpt>
<trkpt lat="-27.27444" lon="151.2900617">
  <ele>354.25</ele>
  <time>2026-09-01T19:50:46Z</time>
  <course>353.92</course>
  <speed>0.24</speed>
  <fix>3d</fix>
</trkpt>
<trkpt lat="-27.2744399" lon="151.2900618">
  <ele>354.25</ele>
  <time>2026-09-01T19:50:46Z</time>
  <course>288.59</course>
  <speed>0.15033296378372907</speed>
  <fix>3d</fix>
</trkpt>
<trkpt lat="-27.2744395" lon="151.2900617">
  <ele>354.25</ele>
  <time>2026-09-01T19:50:46Z</time>
  <course>1.28</course>
  <speed>0.23</speed>
  <fix>3d</fix>
</trkpt>
<trkpt lat="-27.2744399" lon="151.2900618">
  <ele>354.25</ele>
  <time>2026-09-01T19:50:46Z</time>
  <course>288.67</course>
  <speed>0.15033296378372907</speed>
  <fix>3d</fix>
</trkpt>
<trkpt lat="-27.2744397" lon="151.2900617">
  <ele>354.24</ele>
  <time>2026-09-01T19:50:46Z</time>
  <course>290.55</course>
  <speed>0.15</speed>
  <fix>3d</fix>
</trkpt>
<trkpt lat="-27.2744395" lon="151.2900617">
  <ele>354.25</ele>
  <time>2026-09-01T19:50:46Z</time>
  <course>1.28</course>
  <speed>0.23</speed>
  <fix>3d</fix>
</trkpt>
<trkpt lat="-27.2744397" lon="151.2900617">
  <ele>354.24</ele>
  <time>2026-09-01T19:50:46Z</time>
  <course>290.6</course>
  <speed>0.15</speed>
  <fix>3d</fix>
</trkpt>
<trkpt lat="-27.2744395" lon="151.2900617">
  <ele>354.23</ele>
  <time>2026-09-01T19:50:46Z</time>
  <course>291.65</course>
  <speed>0.14</speed>
  <fix>3d</fix>
</trkpt>
<trkpt lat="-27.2744391" lon="151.2900617">
  <ele>354.24</ele>
  <time>2026-09-01T19:50:46Z</time>
  <course>7.54</course>
  <speed>0.22</speed>
  <fix>3d</fix>
</trkpt>
<trkpt lat="-27.2744395" lon="151.2900617">
  <ele>354.23</ele>
  <time>2026-09-01T19:50:46Z</time>
  <course>291.68</course>
  <speed>0.14</speed>
  <fix>3d</fix>
</trkpt>
<trkpt lat="-27.2744393" lon="151.2900617">
  <ele>354.21</ele>
  <time>2026-09-01T19:50:46Z</time>
  <course>292.0</course>
  <speed>0.14</speed>
  <fix>3d</fix>
</trkpt>
<trkpt lat="-27.2744391" lon="151.2900617">
  <ele>354.24</ele>
  <time>2026-09-01T19:50:46Z</time>
  <course>7.54</course>
  <speed>0.22</speed>
  <fix>3d</fix>
</trkpt>
<trkpt lat="-27.2744393" lon="151.2900617">
  <ele>354.2</ele>
  <time>2026-09-01T19:50:46Z</time>
  <course>291.98</course>
  <speed>0.14</speed>
  <fix>3d</fix>
</trkpt>
<trkpt lat="-27.2744391" lon="151.2900618">
  <ele>354.17</ele>
  <time>2026-09-01T19:50:46Z</time>
  <course>291.76</course>
  <speed>0.140356688476182</speed>
  <fix>3d</fix>
</trkpt>
<trkpt lat="-27.2744387" lon="151.2900617">
  <ele>354.21</ele>
  <time>2026-09-01T19:50:46Z</time>
  <course>13.22</course>
  <speed>0.22</speed>
  <fix>3d</fix>
</trkpt>
<trkpt lat="-27.2744391" lon="151.2900618">
  <ele>354.16</ele>
  <time>2026-09-01T19:50:46Z</time>
  <course>291.58</course>
  <speed>0.140356688476182</speed>
  <fix>3d</fix>
</trkpt>
<trkpt lat="-27.2744389" lon="151.2900618">
  <ele>354.12</ele>
  <time>2026-09-01T19:50:46Z</time>
  <course>291.13</course>
  <speed>0.140356688476182</speed>
  <fix>3d</fix>
</trkpt>
<trkpt lat="-27.2744387" lon="151.2900617">
  <ele>354.21</ele>
  <time>2026-09-01T19:50:46Z</time>
  <course>13.22</course>
  <speed>0.22</speed>
  <fix>3d</fix>
</trkpt>
<trkpt lat="-27.2744389" lon="151.2900618">
  <ele>354.1</ele>
  <time>2026-09-01T19:50:46Z</time>
  <course>290.89</course>
  <speed>0.140356688476182</speed>
  <fix>3d</fix>
</trkpt>
<trkpt lat="-27.2744388" lon="151.2900618">
  <ele>354.05</ele>
  <time>2026-09-01T19:50:46Z</time>
  <course>290.29</course>
  <speed>0.13152946437965907</speed>
  <fix>3d</fix>
</trkpt>
<trkpt lat="-27.2744383" lon="151.2900618">
  <ele>354.12</ele>
  <time>2026-09-01T19:50:46Z</time>
  <course>18.99</course>
  <speed>0.21</speed>
  <fix>3d</fix>
</trkpt>
<trkpt lat="-27.2744387" lon="151.2900618">
  <ele>354.03</ele>
  <time>2026-09-01T19:50:46Z</time>
  <course>290.03</course>
  <speed>0.13152946437965907</speed>
  <fix>3d</fix>
</trkpt>
<trkpt lat="-27.2744386" lon="151.2900618">
  <ele>353.97</ele>
  <time>2026-09-01T19:50:46Z</time>
  <course>289.44</course>
  <speed>0.12165525060596438</speed>
  <fix>3d</fix>
</trkpt>
<trkpt lat="-27.2744383" lon="151.2900618">
  <ele>354.12</ele>
  <time>2026-09-01T19:50:46Z</time>
  <course>18.99</course>
  <speed>0.21</speed>
  <fix>3d</fix>
</trkpt>
<trkpt lat="-27.2744385" lon="151.2900618">
  <ele>353.94</ele>
  <time>2026-09-01T19:50:46Z</time>
  <course>289.23</course>
  <speed>0.12165525060596438</speed>
  <fix>3d</fix>
</trkpt>
<trkpt lat="-27.2744384" lon="151.2900618">
  <ele>353.86</ele>
  <time>2026-09-01T19:50:46Z</time>
  <course>288.74</course>
  <speed>0.1118033988749895</speed>
  <fix>3d</fix>
</trkpt>
<trkpt lat="-27.2744379" lon="151.2900619">
  <ele>353.97</ele>
  <time>2026-09-01T19:50:46Z</time>
  <course>24.42</course>
  <speed>0.2</speed>
  <fix>3d</fix>
</trkpt>
<trkpt lat="-27.2744384" lon="151.2900618">
  <ele>353.83</ele>
  <time>2026-09-01T19:50:46Z</time>
  <course>288.58</course>
  <speed>0.1019803902718557</speed>
  <fix>3d</fix>
</trkpt>
<trkpt lat="-27.2744383" lon="151.2900618">
  <ele>353.75</ele>
  <time>2026-09-01T19:50:46Z</time>
  <course>288.31</course>
  <speed>0.09219544457292887</speed>
  <fix>3d</fix>
</trkpt>
<trkpt lat="-27.2744379" lon="151.2900619">
  <ele>353.97</ele>
  <time>2026-09-01T19:50:46Z</time>
  <course>24.42</course>
  <speed>0.2</speed>
  <fix>3d</fix>
</trkpt>
<trkpt lat="-27.2744382" lon="151.2900619">
  <ele>353.72</ele>
  <time>2026-09-01T19:50:46Z</time>
  <course>288.24</course>
  <speed>0.09219544457292887</speed>
  <fix>3d</fix>
</trkpt>
<trkpt lat="-27.2744381" lon="151.2900619">
  <ele>353.63</ele>
  <time>2026-09-01T19:50:46Z</time>
  <course>288.2</course>
  <speed>0.07071067811865475</speed>
  <fix>3d</fix>
</trkpt>
<trkpt lat="-27.2744377" lon="151.2900621">
  <ele>353.76</ele>
  <time>2026-09-01T19:50:46Z</time>
  <course>30.05</course>
  <speed>0.17</speed>
  <fix>3d</fix>
</trkpt>
<trkpt lat="-27.2744381" lon="151.2900619">
  <ele>353.62</ele>
  <time>2026-09-01T19:50:46Z</time>
  <course>288.2</course>
  <speed>0.07071067811865475</speed>
  <fix>3d</fix>
</trkpt>
<trkpt lat="-27.274438" lon="151.2900619">
  <ele>353.5</ele>
  <time>2026-09-01T19:50:46Z</time>
  <course>288.38</course>
  <speed>0.05099019513592785</speed>
  <fix>3d</fix>
</trkpt>
<trkpt lat="-27.2744377" lon="151.2900621">
  <ele>353.76</ele>
  <time>2026-09-01T19:50:46Z</time>
  <course>30.05</course>
  <speed>0.17</speed>
  <fix>3d</fix>
</trkpt>
<trkpt lat="-27.274438" lon="151.2900619">
  <ele>353.46</ele>
  <time>2026-09-01T19:50:46Z</time>
  <course>288.49</course>
  <speed>0.04</speed>
  <fix>3d</fix>
</trkpt>
<trkpt lat="-27.2744379" lon="151.290062">
  <ele>353.36</ele>
  <time>2026-09-01T19:50:46Z</time>
  <course>288.81</course>
  <speed>0.03</speed>
  <fix>3d</fix>
</trkpt>
<trkpt lat="-27.2744375" lon="151.2900623">
  <ele>353.52</ele>
  <time>2026-09-01T19:50:46Z</time>
  <course>37.99</course>
  <speed>0.13</speed>
  <fix>3d</fix>
</trkpt>
<trkpt lat="-27.2744379" lon="151.290062">
  <ele>353.35</ele>
  <time>2026-09-01T19:50:46Z</time>
  <course>288.83</course>
  <speed>0.02</speed>
  <fix>3d</fix>
</trkpt>
<trkpt lat="-27.2744379" lon="151.290062">
  <ele>353.22</ele>
  <time>2026-09-01T19:50:46Z</time>
  <course>289.39</course>
  <speed>0.0</speed>
  <fix>3d</fix>
</trkpt>
<trkpt lat="-27.2744375" lon="151.2900623">
  <ele>353.52</ele>
  <time>2026-09-01T19:50:46Z</time>
  <course>37.99</course>
  <speed>0.13</speed>
  <fix>3d</fix>
</trkpt>
<trkpt lat="-27.2744379" lon="151.290062">
  <ele>353.21</ele>
  <time>2026-09-01T19:50:46Z</time>
  <course>289.41</course>
  <speed>0.0</speed>
  <fix>3d</fix>
</trkpt>
<trkpt lat="-27.2744378" lon="151.290062">
  <ele>353.08</ele>
  <time>2026-09-01T19:50:46Z</time>
  <course>290.03</course>
  <speed>0.022360679774997897</speed>
  <fix>3d</fix>
</trkpt>
<trkpt lat="-27.2744373" lon="151.2900624">
  <ele>353.25</ele>
  <time>2026-09-01T19:50:46Z</time>
  <course>54.87</course>
  <speed>0.08</speed>
  <fix>3d</fix>
</trkpt>
<trkpt lat="-27.2744378" lon="151.290062">
  <ele>353.04</ele>
  <time>2026-09-01T19:50:46Z</time>
  <course>290.2</course>
  <speed>0.0316227766016838</speed>
  <fix>3d</fix>
</trkpt>
<trkpt lat="-27.2744377" lon="151.2900622">
  <ele>352.93</ele>
  <time>2026-09-01T19:50:46Z</time>
  <course>290.66</course>
  <speed>0.053851648071345036</speed>
  <fix>3d</fix>
</trkpt>
<trkpt lat="-27.2744373" lon="151.2900624">
  <ele>353.25</ele>
  <time>2026-09-01T19:50:46Z</time>
  <course>54.87</course>
  <speed>0.08</speed>
  <fix>3d</fix>
</trkpt>
<trkpt lat="-27.2744377" lon="151.2900622">
  <ele>352.89</ele>
  <time>2026-09-01T19:50:46Z</time>
  <course>290.83</course>
  <speed>0.0632455532033676</speed>
  <fix>3d</fix>
</trkpt>
<trkpt lat="-27.2744377" lon="151.2900622">
  <ele>352.79</ele>
  <time>2026-09-01T19:50:46Z</time>
  <course>291.06</course>
  <speed>0.0632455532033676</speed>
  <fix>3d</fix>
</trkpt>
<trkpt lat="-27.2744373" lon="151.2900626">
  <ele>352.97</ele>
  <time>2026-09-01T19:50:46Z</time>
  <course>90.86</course>
  <speed>0.06</speed>
  <fix>3d</fix>
</trkpt>
<trkpt lat="-27.2744377" lon="151.2900622">
  <ele>352.76</ele>
  <time>2026-09-01T19:50:46Z</time>
  <course>291.07</course>
  <speed>0.0632455532033676</speed>
  <fix>3d</fix>
</trkpt>
<trkpt lat="-27.2744377" lon="151.2900622">
  <ele>352.66</ele>
  <time>2026-09-01T19:50:46Z</time>
  <course>290.93</course>
  <speed>0.06082762530298219</speed>
  <fix>3d</fix>
</trkpt>
<trkpt lat="-27.2744373" lon="151.2900626">
  <ele>352.97</ele>
  <time>2026-09-01T19:50:46Z</time>
  <course>90.86</course>
  <speed>0.06</speed>
  <fix>3d</fix>
</trkpt>
<trkpt lat="-27.2744377" lon="151.2900622">
  <ele>352.61</ele>
  <time>2026-09-01T19:50:46Z</time>
  <course>290.8</course>
  <speed>0.06082762530298219</speed>
  <fix>3d</fix>
</trkpt>
<trkpt lat="-27.2744377" lon="151.2900622">
  <ele>352.53</ele>
  <time>2026-09-01T19:50:46Z</time>
  <course>290.41</course>
  <speed>0.06082762530298219</speed>
  <fix>3d</fix>
</trkpt>
<trkpt lat="-27.2744373" lon="151.2900627">
  <ele>352.71</ele>
  <time>2026-09-01T19:50:46Z</time>
  <course>111.77</course>
  <speed>0.06</speed>
  <fix>3d</fix>
</trkpt>
<trkpt lat="-27.2744377" lon="151.2900622">
  <ele>352.49</ele>
  <time>2026-09-01T19:50:46Z</time>
  <course>290.19</course>
  <speed>0.05099019513592785</speed>
  <fix>3d</fix>
</trkpt>
<trkpt lat="-27.2744377" lon="151.2900622">
  <ele>352.4</ele>
  <time>2026-09-01T19:50:46Z</time>
  <course>289.63</course>
  <speed>0.05</speed>
  <fix>3d</fix>
</trkpt>
<trkpt lat="-27.2744373" lon="151.2900627">
  <ele>352.71</ele>
  <time>2026-09-01T19:50:46Z</time>
  <course>111.77</course>
  <speed>0.06</speed>
  <fix>3d</fix>
</trkpt>
<trkpt lat="-27.2744377" lon="151.2900622">
  <ele>352.37</ele>
  <time>2026-09-01T19:50:46Z</time>
  <course>289.41</course>
  <speed>0.05</speed>
  <fix>3d</fix>
</trkpt>
<trkpt lat="-27.2744377" lon="151.2900622">
  <ele>352.28</ele>
  <time>2026-09-01T19:50:46Z</time>
  <course>288.79</course>
  <speed>0.05</speed>
  <fix>3d</fix>
</trkpt>
<trkpt lat="-27.2744373" lon="151.2900628">
  <ele>352.45</ele>
  <time>2026-09-01T19:50:46Z</time>
  <course>110.51</course>
  <speed>0.07</speed>
  <fix>3d</fix>
</trkpt>
<trkpt lat="-27.2744377" lon="151.2900623">
  <ele>352.25</ele>
  <time>2026-09-01T19:50:46Z</time>
  <course>288.6</course>
  <speed>0.05</speed>
  <fix>3d</fix>
</trkpt>
<trkpt lat="-27.2744377" lon="151.2900623">
  <ele>352.16</ele>
  <time>2026-09-01T19:50:46Z</time>
  <course>288.0</course>
  <speed>0.04</speed>
  <fix>3d</fix>
</trkpt>
<trkpt lat="-27.2744373" lon="151.2900628">
  <ele>352.45</ele>
  <time>2026-09-01T19:50:46Z</time>
  <course>110.51</course>
  <speed>0.07</speed>
  <fix>3d</fix>
</trkpt>
<trkpt lat="-27.2744377" lon="151.2900623">
  <ele>352.13</ele>
  <time>2026-09-01T19:50:46Z</time>
  <course>287.82</course>
  <speed>0.04</speed>
  <fix>3d</fix>
</trkpt>
<trkpt lat="-27.2744378" lon="151.2900624">
  <ele>352.05</ele>
  <time>2026-09-01T19:50:46Z</time>
  <course>287.37</course>
  <speed>0.0412310562561766</speed>
  <fix>3d</fix>
</trkpt>
<trkpt lat="-27.2744373" lon="151.2900629">
  <ele>352.21</ele>
  <time>2026-09-01T19:50:46Z</time>
  <course>107.51</course>
  <speed>0.08</speed>
  <fix>3d</fix>
</trkpt>
<trkpt lat="-27.2744377" lon="151.2900624">
  <ele>352.03</ele>
  <time>2026-09-01T19:50:46Z</time>
  <course>287.24</course>
  <speed>0.0412310562561766</speed>
  <fix>3d</fix>
</trkpt>
<trkpt lat="-27.2744377" lon="151.2900625">
  <ele>351.95</ele>
  <time>2026-09-01T19:50:46Z</time>
  <course>286.95</course>
  <speed>0.0412310562561766</speed>
  <fix>3d</fix>
</trkpt>
<trkpt lat="-27.2744373" lon="151.2900629">
  <ele>352.21</ele>
  <time>2026-09-01T19:50:46Z</time>
  <course>107.51</course>
  <speed>0.08</speed>
  <fix>3d</fix>
</trkpt>
<trkpt lat="-27.2744377" lon="151.2900625">
  <ele>351.94</ele>
  <time>2026-09-01T19:50:46Z</time>
  <course>286.93</course>
  <speed>0.0412310562561766</speed>
  <fix>3d</fix>
</trkpt>
<trkpt lat="-27.2744378" lon="151.2900625">
  <ele>351.85</ele>
  <time>2026-09-01T19:50:46Z</time>
  <course>286.74</course>
  <speed>0.044721359549995794</speed>
  <fix>3d</fix>
</trkpt>
<trkpt lat="-27.2744373" lon="151.2900632">
  <ele>352.01</ele>
  <time>2026-09-01T19:50:46Z</time>
  <course>105.53</course>
  <speed>0.09</speed>
  <fix>3d</fix>
</trkpt>
<trkpt lat="-27.2744378" lon="151.2900625">
  <ele>351.84</ele>
  <time>2026-09-01T19:50:46Z</time>
  <course>286.73</course>
  <speed>0.044721359549995794</speed>
  <fix>3d</fix>
</trkpt>
<trkpt lat="-27.2744377" lon="151.2900626">
  <ele>351.75</ele>
  <time>2026-09-01T19:50:46Z</time>
  <course>286.72</course>
  <speed>0.05</speed>
  <fix>3d</fix>
</trkpt>
<trkpt lat="-27.2744373" lon="151.2900632">
  <ele>352.01</ele>
  <time>2026-09-01T19:50:46Z</time>
  <course>105.53</course>
  <speed>0.09</speed>
  <fix>3d</fix>
</trkpt>
<trkpt lat="-27.2744377" lon="151.2900627">
  <ele>351.73</ele>
  <time>2026-09-01T19:50:46Z</time>
  <course>286.74</course>
  <speed>0.05</speed>
  <fix>3d</fix>
</trkpt>
<trkpt lat="-27.2744378" lon="151.2900627">
  <ele>351.66</ele>
  <time>2026-09-01T19:50:46Z</time>
  <course>286.84</course>
  <speed>0.05</speed>
  <fix>3d</fix>
</trkpt>
<trkpt lat="-27.2744374" lon="151.2900634">
  <ele>351.81</ele>
  <time>2026-09-01T19:50:46Z</time>
  <course>104.92</course>
  <speed>0.1</speed>
  <fix>3d</fix>
</trkpt>
<trkpt lat="-27.2744378" lon="151.2900628">
  <ele>351.63</ele>
  <time>2026-09-01T19:50:46Z</time>
  <course>286.89</course>
  <speed>0.05</speed>
  <fix>3d</fix>
</trkpt>
<trkpt lat="-27.2744377" lon="151.2900629">
  <ele>351.57</ele>
  <time>2026-09-01T19:50:46Z</time>
  <course>287.04</course>
  <speed>0.0565685424949238</speed>
  <fix>3d</fix>
</trkpt>
<trkpt lat="-27.2744374" lon="151.2900634">
  <ele>351.81</ele>
  <time>2026-09-01T19:50:46Z</time>
  <course>104.92</course>
  <speed>0.1</speed>
  <fix>3d</fix>
</trkpt>
<trkpt lat="-27.2744377" lon="151.2900629">
  <ele>351.54</ele>
  <time>2026-09-01T19:50:46Z</time>
  <course>287.1</course>
  <speed>0.0565685424949238</speed>
  <fix>3d</fix>
</trkpt>
<trkpt lat="-27.2744378" lon="151.290063">
  <ele>351.48</ele>
  <time>2026-09-01T19:50:46Z</time>
  <course>287.27</course>
  <speed>0.0565685424949238</speed>
  <fix>3d</fix>
</trkpt>
<trkpt lat="-27.2744374" lon="151.2900636">
  <ele>351.63</ele>
  <time>2026-09-01T19:50:46Z</time>
  <course>105.02</course>
  <speed>0.11</speed>
  <fix>3d</fix>
</trkpt>
<trkpt lat="-27.2744378" lon="151.290063">
  <ele>351.45</ele>
  <time>2026-09-01T19:50:46Z</time>
  <course>287.34</course>
  <speed>0.0565685424949238</speed>
  <fix>3d</fix>
</trkpt>
<trkpt lat="-27.2744378" lon="151.2900631">
  <ele>351.39</ele>
  <time>2026-09-01T19:50:46Z</time>
  <course>287.48</course>
  <speed>0.06403124237432849</speed>
  <fix>3d</fix>
</trkpt>
<trkpt lat="-27.2744374" lon="151.2900636">
  <ele>351.63</ele>
  <time>2026-09-01T19:50:46Z</time>
  <course>105.02</course>
  <speed>0.11</speed>
  <fix>3d</fix>
</trkpt>
<trkpt lat="-27.2744378" lon="151.2900631">
  <ele>351.36</ele>
  <time>2026-09-01T19:50:46Z</time>
  <course>287.53</course>
  <speed>0.06403124237432849</speed>
  <fix>3d</fix>
</trkpt>
<trkpt lat="-27.2744378" lon="151.2900632">
  <ele>351.3</ele>
  <time>2026-09-01T19:50:46Z</time>
  <course>287.63</course>
  <speed>0.06403124237432849</speed>
  <fix>3d</fix>
</trkpt>
<trkpt lat="-27.2744375" lon="151.2900638">
  <ele>351.45</ele>
  <time>2026-09-01T19:50:46Z</time>
  <course>105.33</course>
  <speed>0.12</speed>
  <fix>3d</fix>
</trkpt>
<trkpt lat="-27.2744378" lon="151.2900632">
  <ele>351.28</ele>
  <time>2026-09-01T19:50:46Z</time>
  <course>287.66</course>
  <speed>0.06403124237432849</speed>
  <fix>3d</fix>
</trkpt>
<trkpt lat="-27.2744378" lon="151.2900633">
  <ele>351.22</ele>
  <time>2026-09-01T19:50:46Z</time>
  <course>287.71</course>
  <speed>0.07211102550927978</speed>
  <fix>3d</fix>
</trkpt>
<trkpt lat="-27.2744375" lon="151.2900638">
  <ele>351.45</ele>
  <time>2026-09-01T19:50:46Z</time>
  <course>105.33</course>
  <speed>0.12</speed>
  <fix>3d</fix>
</trkpt>
<trkpt lat="-27.2744378" lon="151.2900634">
  <ele>351.19</ele>
  <time>2026-09-01T19:50:46Z</time>
  <course>287.72</course>
  <speed>0.07211102550927978</speed>
  <fix>3d</fix>
</trkpt>
<trkpt lat="-27.2744378" lon="151.2900635">
  <ele>351.13</ele>
  <time>2026-09-01T19:50:46Z</time>
  <course>287.71</course>
  <speed>0.07211102550927978</speed>
  <fix>3d</fix>
</trkpt>
<trkpt lat="-27.2744375" lon="151.2900641">
  <ele>351.28</ele>
  <time>2026-09-01T19:50:46Z</time>
  <course>105.35</course>
  <speed>0.12</speed>
  <fix>3d</fix>
</trkpt>
<trkpt lat="-27.2744378" lon="151.2900635">
  <ele>351.11</ele>
  <time>2026-09-01T19:50:46Z</time>
  <course>287.7</course>
  <speed>0.0670820393249937</speed>
  <fix>3d</fix>
</trkpt>
<trkpt lat="-27.2744378" lon="151.2900636">
  <ele>351.05</ele>
  <time>2026-09-01T19:50:46Z</time>
  <course>287.65</course>
  <speed>0.0670820393249937</speed>
  <fix>3d</fix>
</trkpt>
<trkpt lat="-27.2744375" lon="151.2900641">
  <ele>351.28</ele>
  <time>2026-09-01T19:50:46Z</time>
  <course>105.35</course>
  <speed>0.12</speed>
  <fix>3d</fix>
</trkpt>
<trkpt lat="-27.2744378" lon="151.2900636">
  <ele>351.02</ele>
  <time>2026-09-01T19:50:46Z</time>
  <course>287.63</course>
  <speed>0.0670820393249937</speed>
  <fix>3d</fix>
</trkpt>
<trkpt lat="-27.2744378" lon="151.2900637">
  <ele>350.96</ele>
  <time>2026-09-01T19:50:46Z</time>
  <course>287.55</course>
  <speed>0.0670820393249937</speed>
  <fix>3d</fix>
</trkpt>
<trkpt lat="-27.2744376" lon="151.2900643">
  <ele>351.11</ele>
  <time>2026-09-01T19:50:46Z</time>
  <course>105.07</course>
  <speed>0.12</speed>
  <fix>3d</fix>
</trkpt>
<trkpt lat="-27.2744378" lon="151.2900637">
  <ele>350.96</ele>
  <time>2026-09-01T19:50:46Z</time>
  <course>287.54</course>
  <speed>0.0670820393249937</speed>
  <fix>3d</fix>
</trkpt>
<trkpt lat="-27.2744378" lon="151.2900639">
  <ele>350.88</ele>
  <time>2026-09-01T19:50:46Z</time>
  <course>287.42</course>
  <speed>0.07615773105863909</speed>
  <fix>3d</fix>
</trkpt>
<trkpt lat="-27.2744376" lon="151.2900643">
  <ele>351.11</ele>
  <time>2026-09-01T19:50:46Z</time>
  <course>105.07</course>
  <speed>0.12</speed>
  <fix>3d</fix>
</trkpt>
<trkpt lat="-27.2744378" lon="151.2900639">
  <ele>350.87</ele>
  <time>2026-09-01T19:50:46Z</time>
  <course>287.41</course>
  <speed>0.07615773105863909</speed>
  <fix>3d</fix>
</trkpt>
<trkpt lat="-27.2744378" lon="151.290064">
  <ele>350.8</ele>
  <time>2026-09-01T19:50:46Z</time>
  <course>287.29</course>
  <speed>0.07615773105863909</speed>
  <fix>3d</fix>
</trkpt>
<trkpt lat="-27.2744377" lon="151.2900646">
  <ele>350.95</ele>
  <time>2026-09-01T19:50:46Z</time>
  <course>104.53</course>
  <speed>0.12</speed>
  <fix>3d</fix>
</trkpt>
<trkpt lat="-27.2744378" lon="151.290064">
  <ele>350.77</ele>
  <time>2026-09-01T19:50:46Z</time>
  <course>287.25</course>
  <speed>0.07615773105863909</speed>
  <fix>3d</fix>
</trkpt>
<trkpt lat="-27.2744378" lon="151.2900642">
  <ele>350.71</ele>
  <time>2026-09-01T19:50:46Z</time>
  <course>287.16</course>
  <speed>0.07280109889280519</speed>
  <fix>3d</fix>
</trkpt>
<trkpt lat="-27.2744377" lon="151.2900646">
  <ele>350.95</ele>
  <time>2026-09-01T19:50:46Z</time>
  <course>104.53</course>
  <speed>0.12</speed>
  <fix>3d</fix>
</trkpt>
<trkpt lat="-27.2744378" lon="151.2900642">
  <ele>350.69</ele>
  <time>2026-09-01T19:50:46Z</time>
  <course>287.13</course>
  <speed>0.07280109889280519</speed>
  <fix>3d</fix>
</trkpt>
<trkpt lat="-27.2744378" lon="151.2900643">
  <ele>350.63</ele>
  <time>2026-09-01T19:50:46Z</time>
  <course>287.06</course>
  <speed>0.07280109889280519</speed>
  <fix>3d</fix>
</trkpt>
<trkpt lat="-27.2744377" lon="151.2900648">
  <ele>350.78</ele>
  <time>2026-09-01T19:50:46Z</time>
  <course>103.79</course>
  <speed>0.12</speed>
  <fix>3d</fix>
</trkpt>
<trkpt lat="-27.2744378" lon="151.2900643">
  <ele>350.62</ele>
  <time>2026-09-01T19:50:46Z</time>
  <course>287.05</course>
  <speed>0.07280109889280519</speed>
  <fix>3d</fix>
</trkpt>
<trkpt lat="-27.2744379" lon="151.2900644">
  <ele>350.55</ele>
  <time>2026-09-01T19:50:46Z</time>
  <course>286.98</course>
  <speed>0.07280109889280519</speed>
  <fix>3d</fix>
</trkpt>
<trkpt lat="-27.2744377" lon="151.2900648">
  <ele>350.78</ele>
  <time>2026-09-01T19:50:46Z</time>
  <course>103.79</course>
  <speed>0.12</speed>
  <fix>3d</fix>
</trkpt>
<trkpt lat="-27.2744379" lon="151.2900645">
  <ele>350.53</ele>
  <time>2026-09-01T19:50:46Z</time>
  <course>286.96</course>
  <speed>0.07280109889280519</speed>
  <fix>3d</fix>
</trkpt>
<trkpt lat="-27.2744379" lon="151.2900645">
  <ele>350.47</ele>
  <time>2026-09-01T19:50:46Z</time>
  <course>286.93</course>
  <speed>0.0632455532033676</speed>
  <fix>3d</fix>
</trkpt>
<trkpt lat="-27.2744378" lon="151.2900651">
  <ele>350.62</ele>
  <time>2026-09-01T19:50:46Z</time>
  <course>103.13</course>
  <speed>0.11</speed>
  <fix>3d</fix>
</trkpt>
<trkpt lat="-27.2744379" lon="151.2900646">
  <ele>350.44</ele>
  <time>2026-09-01T19:50:46Z</time>
  <course>286.91</course>
  <speed>0.0632455532033676</speed>
  <fix>3d</fix>
</trkpt>
<trkpt lat="-27.2744379" lon="151.2900647">
  <ele>350.39</ele>
  <time>2026-09-01T19:50:46Z</time>
  <course>286.9</course>
  <speed>0.0632455532033676</speed>
  <fix>3d</fix>
</trkpt>
<trkpt lat="-27.2744378" lon="151.2900651">
  <ele>350.62</ele>
  <time>2026-09-01T19:50:46Z</time>
  <course>103.13</course>
  <speed>0.11</speed>
  <fix>3d</fix>
</trkpt>
<trkpt lat="-27.2744379" lon="151.2900647">
  <ele>350.35</ele>
  <time>2026-09-01T19:50:46Z</time>
  <course>286.89</course>
  <speed>0.0632455532033676</speed>
  <fix>3d</fix>
</trkpt>
<trkpt lat="-27.2744379" lon="151.2900648">
  <ele>350.31</ele>
  <time>2026-09-01T19:50:46Z</time>
  <course>286.89</course>
  <speed>0.0632455532033676</speed>
  <fix>3d</fix>
</trkpt>
<trkpt lat="-27.2744378" lon="151.2900652">
  <ele>350.47</ele>
  <time>2026-09-01T19:50:46Z</time>
  <course>102.53</course>
  <speed>0.1</speed>
  <fix>3d</fix>
</trkpt>
<trkpt lat="-27.2744379" lon="151.2900648">
  <ele>350.29</ele>
  <time>2026-09-01T19:50:46Z</time>
  <course>286.89</course>
  <speed>0.0632455532033676</speed>
  <fix>3d</fix>
</trkpt>
<trkpt lat="-27.2744379" lon="151.2900649">
  <ele>350.24</ele>
  <time>2026-09-01T19:50:46Z</time>
  <course>286.9</course>
  <speed>0.06082762530298219</speed>
  <fix>3d</fix>
</trkpt>
<trkpt lat="-27.2744378" lon="151.2900652">
  <ele>350.47</ele>
  <time>2026-09-01T19:50:46Z</time>
  <course>102.53</course>
  <speed>0.1</speed>
  <fix>3d</fix>
</trkpt>
<trkpt lat="-27.2744379" lon="151.290065">
  <ele>350.21</ele>
  <time>2026-09-01T19:50:46Z</time>
  <course>286.91</course>
  <speed>0.06082762530298219</speed>
  <fix>3d</fix>
</trkpt>
<trkpt lat="-27.2744379" lon="151.290065">
  <ele>350.16</ele>
  <time>2026-09-01T19:50:46Z</time>
  <course>286.92</course>
  <speed>0.06082762530298219</speed>
  <fix>3d</fix>
</trkpt>
<trkpt lat="-27.2744379" lon="151.2900655">
  <ele>350.31</ele>
  <time>2026-09-01T19:50:46Z</time>
  <course>102.45</course>
  <speed>0.09</speed>
  <fix>3d</fix>
</trkpt>
<trkpt lat="-27.2744379" lon="151.2900651">
  <ele>350.13</ele>
  <time>2026-09-01T19:50:46Z</time>
  <course>286.94</course>
  <speed>0.06082762530298219</speed>
  <fix>3d</fix>
</trkpt>
<trkpt lat="-27.2744379" lon="151.2900651">
  <ele>350.09</ele>
  <time>2026-09-01T19:50:46Z</time>
  <course>286.96</course>
  <speed>0.05099019513592785</speed>
  <fix>3d</fix>
</trkpt>
<trkpt lat="-27.2744379" lon="151.2900655">
  <ele>350.31</ele>
  <time>2026-09-01T19:50:46Z</time>
  <course>102.45</course>
  <speed>0.09</speed>
  <fix>3d</fix>
</trkpt>
<trkpt lat="-27.2744379" lon="151.2900651">
  <ele>350.08</ele>
  <time>2026-09-01T19:50:46Z</time>
  <course>286.96</course>
  <speed>0.05099019513592785</speed>
  <fix>3d</fix>
</trkpt>
<trkpt lat="-27.2744379" lon="151.2900652">
  <ele>350.01</ele>
  <time>2026-09-01T19:50:46Z</time>
  <course>287.02</course>
  <speed>0.053851648071345036</speed>
  <fix>3d</fix>
</trkpt>
<trkpt lat="-27.2744379" lon="151.2900656">
  <ele>350.16</ele>
  <time>2026-09-01T19:50:46Z</time>
  <course>104.12</course>
  <speed>0.08</speed>
  <fix>3d</fix>
</trkpt>
<trkpt lat="-27.2744379" lon="151.2900653">
  <ele>350.01</ele>
  <time>2026-09-01T19:50:46Z</time>
  <course>287.02</course>
  <speed>0.053851648071345036</speed>
  <fix>3d</fix>
</trkpt>
<trkpt lat="-27.2744379" lon="151.2900653">
  <ele>349.94</ele>
  <time>2026-09-01T19:50:46Z</time>
  <course>287.08</course>
  <speed>0.053851648071345036</speed>
  <fix>3d</fix>
</trkpt>
<trkpt lat="-27.2744379" lon="151.2900656">
  <ele>350.16</ele>
  <time>2026-09-01T19:50:46Z</time>
  <course>104.12</course>
  <speed>0.08</speed>
  <fix>3d</fix>
</trkpt>
<trkpt lat="-27.2744379" lon="151.2900654">
  <ele>349.93</ele>
  <time>2026-09-01T19:50:46Z</time>
  <course>287.1</course>
  <speed>0.053851648071345036</speed>
  <fix>3d</fix>
</trkpt>
<trkpt lat="-27.274438" lon="151.2900654">
  <ele>349.87</ele>
  <time>2026-09-01T19:50:46Z</time>
  <course>287.16</course>
  <speed>0.044721359549995794</speed>
  <fix>3d</fix>
</trkpt>
<trkpt lat="-27.2744379" lon="151.2900658">
  <ele>350.02</ele>
  <time>2026-09-01T19:50:46Z</time>
  <course>108.43</course>
  <speed>0.07</speed>
  <fix>3d</fix>
</trkpt>
<trkpt lat="-27.274438" lon="151.2900655">
  <ele>349.85</ele>
  <time>2026-09-01T19:50:46Z</time>
  <course>287.18</course>
  <speed>0.044721359549995794</speed>
  <fix>3d</fix>
</trkpt>
<trkpt lat="-27.274438" lon="151.2900655">
  <ele>349.81</ele>
  <time>2026-09-01T19:50:46Z</time>
  <course>287.24</course>
  <speed>0.044721359549995794</speed>
  <fix>3d</fix>
</trkpt>
<trkpt lat="-27.2744379" lon="151.2900658">
  <ele>350.02</ele>
  <time>2026-09-01T19:50:46Z</time>
  <course>108.43</course>
  <speed>0.07</speed>
  <fix>3d</fix>
</trkpt>
<trkpt lat="-27.274438" lon="151.2900655">
  <ele>349.79</ele>
  <time>2026-09-01T19:50:46Z</time>
  <course>287.26</course>
  <speed>0.044721359549995794</speed>
  <fix>3d</fix>
</trkpt>
<trkpt lat="-27.274438" lon="151.2900656">
  <ele>349.74</ele>
  <time>2026-09-01T19:50:46Z</time>
  <course>287.32</course>
  <speed>0.03605551275463989</speed>
  <fix>3d</fix>
</trkpt>
<trkpt lat="-27.274438" lon="151.2900659">
  <ele>349.88</ele>
  <time>2026-09-01T19:50:46Z</time>
  <course>116.57</course>
  <speed>0.06</speed>
  <fix>3d</fix>
</trkpt>
<trkpt lat="-27.274438" lon="151.2900656">
  <ele>349.72</ele>
  <time>2026-09-01T19:50:46Z</time>
  <course>287.34</course>
  <speed>0.04242640687119285</speed>
  <fix>3d</fix>
</trkpt>
<trkpt lat="-27.274438" lon="151.2900657">
  <ele>349.67</ele>
  <time>2026-09-01T19:50:46Z</time>
  <course>287.4</course>
  <speed>0.04242640687119285</speed>
  <fix>3d</fix>
</trkpt>
<trkpt lat="-27.274438" lon="151.2900659">
  <ele>349.88</ele>
  <time>2026-09-01T19:50:46Z</time>
  <course>116.57</course>
  <speed>0.06</speed>
  <fix>3d</fix>
</trkpt>
<trkpt lat="-27.274438" lon="151.2900657">
  <ele>349.66</ele>
  <time>2026-09-01T19:50:46Z</time>
  <course>287.42</course>
  <speed>0.03605551275463989</speed>
  <fix>3d</fix>
</trkpt>
<trkpt lat="-27.274438" lon="151.2900657">
  <ele>349.61</ele>
  <time>2026-09-01T19:50:46Z</time>
  <course>287.48</course>
  <speed>0.03605551275463989</speed>
  <fix>3d</fix>
</trkpt>
<trkpt lat="-27.274438" lon="151.290066">
  <ele>349.75</ele>
  <time>2026-09-01T19:50:46Z</time>
  <course>130.48</course>
  <speed>0.05</speed>
  <fix>3d</fix>
</trkpt>
<trkpt lat="-27.2744381" lon="151.2900657">
  <ele>349.6</ele>
  <time>2026-09-01T19:50:46Z</time>
  <course>287.5</course>
  <speed>0.03605551275463989</speed>
  <fix>3d</fix>
</trkpt>
<trkpt lat="-27.2744381" lon="151.2900658">
  <ele>349.55</ele>
  <time>2026-09-01T19:50:46Z</time>
  <course>287.55</course>
  <speed>0.044721359549995794</speed>
  <fix>3d</fix>
</trkpt>
<trkpt lat="-27.274438" lon="151.290066">
  <ele>349.75</ele>
  <time>2026-09-01T19:50:46Z</time>
  <course>130.48</course>
  <speed>0.05</speed>
  <fix>3d</fix>
</trkpt>
<trkpt lat="-27.2744381" lon="151.2900658">
  <ele>349.53</ele>
  <time>2026-09-01T19:50:46Z</time>
  <course>287.57</course>
  <speed>0.0412310562561766</speed>
  <fix>3d</fix>
</trkpt>
<trkpt lat="-27.2744381" lon="151.2900658">
  <ele>349.49</ele>
  <time>2026-09-01T19:50:46Z</time>
  <course>287.63</course>
  <speed>0.0412310562561766</speed>
  <fix>3d</fix>
</trkpt>
<trkpt lat="-27.2744381" lon="151.2900661">
  <ele>349.62</ele>
  <time>2026-09-01T19:50:46Z</time>
  <course>150.02</course>
  <speed>0.05</speed>
  <fix>3d</fix>
</trkpt>
<trkpt lat="-27.2744381" lon="151.2900658">
  <ele>349.48</ele>
  <time>2026-09-01T19:50:46Z</time>
  <course>287.64</course>
  <speed>0.0412310562561766</speed>
  <fix>3d</fix>
</trkpt>
<trkpt lat="-27.2744382" lon="151.2900658">
  <ele>349.43</ele>
  <time>2026-09-01T19:50:46Z</time>
  <course>287.69</course>
  <speed>0.05</speed>
  <fix>3d</fix>
</trkpt>
<trkpt lat="-27.2744381" lon="151.2900661">
  <ele>349.62</ele>
  <time>2026-09-01T19:50:46Z</time>
  <course>150.02</course>
  <speed>0.05</speed>
  <fix>3d</fix>
</trkpt>
<trkpt lat="-27.2744382" lon="151.2900659">
  <ele>349.43</ele>
  <time>2026-09-01T19:50:46Z</time>
  <course>287.7</course>
  <speed>0.05</speed>
  <fix>3d</fix>
</trkpt>
<trkpt lat="-27.2744382" lon="151.2900659">
  <ele>349.37</ele>
  <time>2026-09-01T19:50:46Z</time>
  <course>287.75</course>
  <speed>0.05</speed>
  <fix>3d</fix>
</trkpt>
<trkpt lat="-27.2744382" lon="151.2900661">
  <ele>349.5</ele>
  <time>2026-09-01T19:50:46Z</time>
  <course>170.69</course>
  <speed>0.05</speed>
  <fix>3d</fix>
</trkpt>
<trkpt lat="-27.2744382" lon="151.2900659">
  <ele>349.37</ele>
  <time>2026-09-01T19:50:46Z</time>
  <course>287.76</course>
  <speed>0.05</speed>
  <fix>3d</fix>
</trkpt>
<trkpt lat="-27.2744383" lon="151.2900659">
  <ele>349.32</ele>
  <time>2026-09-01T19:50:46Z</time>
  <course>287.81</course>
  <speed>0.06</speed>
  <fix>3d</fix>
</trkpt>
<trkpt lat="-27.2744382" lon="151.2900661">
  <ele>349.5</ele>
  <time>2026-09-01T19:50:46Z</time>
  <course>170.69</course>
  <speed>0.05</speed>
  <fix>3d</fix>
</trkpt>
<trkpt lat="-27.2744383" lon="151.2900659">
  <ele>349.3</ele>
  <time>2026-09-01T19:50:46Z</time>
  <course>287.82</course>
  <speed>0.06</speed>
  <fix>3d</fix>
</trkpt>
<trkpt lat="-27.2744383" lon="151.2900659">
  <ele>349.26</ele>
  <time>2026-09-01T19:50:46Z</time>
  <course>287.86</course>
  <speed>0.06082762530298219</speed>
  <fix>3d</fix>
</trkpt>
<trkpt lat="-27.2744383" lon="151.2900661">
  <ele>349.38</ele>
  <time>2026-09-01T19:50:46Z</time>
  <course>187.46</course>
  <speed>0.06</speed>
  <fix>3d</fix>
</trkpt>
<trkpt lat="-27.2744383" lon="151.2900659">
  <ele>349.25</ele>
  <time>2026-09-01T19:50:46Z</time>
  <course>287.87</course>
  <speed>0.07071067811865475</speed>
  <fix>3d</fix>
</trkpt>
<trkpt lat="-27.2744384" lon="151.2900659">
  <ele>349.21</ele>
  <time>2026-09-01T19:50:46Z</time>
  <course>287.9</course>
  <speed>0.07071067811865475</speed>
  <fix>3d</fix>
</trkpt>
<trkpt lat="-27.2744383" lon="151.2900661">
  <ele>349.38</ele>
  <time>2026-09-01T19:50:46Z</time>
  <course>187.46</course>
  <speed>0.06</speed>
  <fix>3d</fix>
</trkpt>
<trkpt lat="-27.2744384" lon="151.2900659">
  <ele>349.19</ele>
  <time>2026-09-01T19:50:46Z</time>
  <course>287.91</course>
  <speed>0.07280109889280519</speed>
  <fix>3d</fix>
</trkpt>
<trkpt lat="-27.2744385" lon="151.2900659">
  <ele>349.15</ele>
  <time>2026-09-01T19:50:46Z</time>
  <course>287.93</course>
  <speed>0.07280109889280519</speed>
  <fix>3d</fix>
</trkpt>
<trkpt lat="-27.2744384" lon="151.2900661">
  <ele>349.27</ele>
  <time>2026-09-01T19:50:46Z</time>
  <course>199.18</course>
  <speed>0.07</speed>
  <fix>3d</fix>
</trkpt>
<trkpt lat="-27.2744385" lon="151.2900659">
  <ele>349.14</ele>
  <time>2026-09-01T19:50:46Z</time>
  <course>287.94</course>
  <speed>0.07280109889280519</speed>
  <fix>3d</fix>
</trkpt>
<trkpt lat="-27.2744385" lon="151.2900659">
  <ele>349.1</ele>
  <time>2026-09-01T19:50:46Z</time>
  <course>287.96</course>
  <speed>0.0854400374531753</speed>
  <fix>3d</fix>
</trkpt>
<trkpt lat="-27.2744384" lon="151.2900661">
  <ele>349.27</ele>
  <time>2026-09-01T19:50:46Z</time>
  <course>199.18</course>
  <speed>0.07</speed>
  <fix>3d</fix>
</trkpt>
<trkpt lat="-27.2744385" lon="151.2900659">
  <ele>349.09</ele>
  <time>2026-09-01T19:50:46Z</time>
  <course>287.96</course>
  <speed>0.0854400374531753</speed>
  <fix>3d</fix>
</trkpt>
<trkpt lat="-27.2744386" lon="151.2900658">
  <ele>349.04</ele>
  <time>2026-09-01T19:50:46Z</time>
  <course>287.99</course>
  <speed>0.0854400374531753</speed>
  <fix>3d</fix>
</trkpt>
<trkpt lat="-27.2744385" lon="151.2900661">
  <ele>349.16</ele>
  <time>2026-09-01T19:50:46Z</time>
  <course>207.05</course>
  <speed>0.09</speed>
  <fix>3d</fix>
</trkpt>
<trkpt lat="-27.2744386" lon="151.2900658">
  <ele>349.04</ele>
  <time>2026-09-01T19:50:46Z</time>
  <course>287.99</course>
  <speed>0.0854400374531753</speed>
  <fix>3d</fix>
</trkpt>
<trkpt lat="-27.2744387" lon="151.2900658">
  <ele>348.99</ele>
  <time>2026-09-01T19:50:46Z</time>
  <course>288.0</course>
  <speed>0.08944271909999159</speed>
  <fix>3d</fix>
</trkpt>
<trkpt lat="-27.2744385" lon="151.2900661">
  <ele>349.16</ele>
  <time>2026-09-01T19:50:46Z</time>
  <course>207.05</course>
  <speed>0.09</speed>
  <fix>3d</fix>
</trkpt>
<trkpt lat="-27.2744387" lon="151.2900658">
  <ele>348.97</ele>
  <time>2026-09-01T19:50:46Z</time>
  <course>288.0</course>
  <speed>0.08944271909999159</speed>
  <fix>3d</fix>
</trkpt>
<trkpt lat="-27.2744387" lon="151.2900658">
  <ele>348.93</ele>
  <time>2026-09-01T19:50:46Z</time>
  <course>288.0</course>
  <speed>0.08944271909999159</speed>
  <fix>3d</fix>
</trkpt>
<trkpt lat="-27.2744387" lon="151.290066">
  <ele>349.05</ele>
  <time>2026-09-01T19:50:46Z</time>
  <course>212.38</course>
  <speed>0.1</speed>
  <fix>3d</fix>
</trkpt>
<trkpt lat="-27.2744388" lon="151.2900658">
  <ele>348.92</ele>
  <time>2026-09-01T19:50:46Z</time>
  <course>288.0</course>
  <speed>0.08944271909999159</speed>
  <fix>3d</fix>
</trkpt>
<trkpt lat="-27.2744388" lon="151.2900658">
  <ele>348.88</ele>
  <time>2026-09-01T19:50:46Z</time>
  <course>287.99</course>
  <speed>0.08944271909999159</speed>
  <fix>3d</fix>
</trkpt>
<trkpt lat="-27.2744387" lon="151.290066">
  <ele>349.05</ele>
  <time>2026-09-01T19:50:46Z</time>
  <course>212.38</course>
  <speed>0.1</speed>
  <fix>3d</fix>
</trkpt>
<trkpt lat="-27.2744388" lon="151.2900658">
  <ele>348.87</ele>
  <time>2026-09-01T19:50:46Z</time>
  <course>287.99</course>
  <speed>0.08944271909999159</speed>
  <fix>3d</fix>
</trkpt>
<trkpt lat="-27.2744389" lon="151.2900658">
  <ele>348.83</ele>
  <time>2026-09-01T19:50:46Z</time>
  <course>288.0</course>
  <speed>0.10295630140987001</speed>
  <fix>3d</fix>
</trkpt>
<trkpt lat="-27.2744389" lon="151.2900659">
  <ele>348.95</ele>
  <time>2026-09-01T19:50:46Z</time>
  <course>216.49</course>
  <speed>0.11</speed>
  <fix>3d</fix>
</trkpt>
<trkpt lat="-27.2744389" lon="151.2900658">
  <ele>348.83</ele>
  <time>2026-09-01T19:50:46Z</time>
  <course>288.0</course>
  <speed>0.10295630140987001</speed>
  <fix>3d</fix>
</trkpt>
<trkpt lat="-27.274439" lon="151.2900657">
  <ele>348.78</ele>
  <time>2026-09-01T19:50:46Z</time>
  <course>288.0</course>
  <speed>0.10295630140987001</speed>
  <fix>3d</fix>
</trkpt>
<trkpt lat="-27.2744389" lon="151.2900659">
  <ele>348.95</ele>
  <time>2026-09-01T19:50:46Z</time>
  <course>216.49</course>
  <speed>0.11</speed>
  <fix>3d</fix>
</trkpt>
<trkpt lat="-27.274439" lon="151.2900657">
  <ele>348.76</ele>
  <time>2026-09-01T19:50:46Z</time>
  <course>288.0</course>
  <speed>0.10295630140987001</speed>
  <fix>3d</fix>
</trkpt>
<trkpt lat="-27.2744391" lon="151.2900657">
  <ele>348.73</ele>
  <time>2026-09-01T19:50:46Z</time>
  <course>288.0</course>
  <speed>0.10295630140987001</speed>
  <fix>3d</fix>
</trkpt>
<trkpt lat="-27.2744391" lon="151.2900657">
  <ele>348.84</ele>
  <time>2026-09-01T19:50:46Z</time>
  <course>220.37</course>
  <speed>0.12</speed>
  <fix>3d</fix>
</trkpt>
<trkpt lat="-27.2744391" lon="151.2900657">
  <ele>348.72</ele>
  <time>2026-09-01T19:50:46Z</time>
  <course>288.0</course>
  <speed>0.10295630140987001</speed>
  <fix>3d</fix>
</trkpt>
<trkpt lat="-27.2744392" lon="151.2900656">
  <ele>348.67</ele>
  <time>2026-09-01T19:50:46Z</time>
  <course>288.01</course>
  <speed>0.10816653826391968</speed>
  <fix>3d</fix>
</trkpt>
<trkpt lat="-27.2744391" lon="151.2900657">
  <ele>348.84</ele>
  <time>2026-09-01T19:50:46Z</time>
  <course>220.37</course>
  <speed>0.12</speed>
  <fix>3d</fix>
</trkpt>
<trkpt lat="-27.2744392" lon="151.2900656">
  <ele>348.66</ele>
  <time>2026-09-01T19:50:46Z</time>
  <course>288.01</course>
  <speed>0.10816653826391968</speed>
  <fix>3d</fix>
</trkpt>
<trkpt lat="-27.2744392" lon="151.2900656">
  <ele>348.63</ele>
  <time>2026-09-01T19:50:46Z</time>
  <course>288.02</course>
  <speed>0.10816653826391968</speed>
  <fix>3d</fix>
</trkpt>
<trkpt lat="-27.2744392" lon="151.2900656">
  <ele>348.74</ele>
  <time>2026-09-01T19:50:46Z</time>
  <course>224.48</course>
  <speed>0.12</speed>
  <fix>3d</fix>
</trkpt>
<trkpt lat="-27.2744393" lon="151.2900655">
  <ele>348.61</ele>
  <time>2026-09-01T19:50:46Z</time>
  <course>288.02</course>
  <speed>0.10816653826391968</speed>
  <fix>3d</fix>
</trkpt>
<trkpt lat="-27.2744393" lon="151.2900655">
  <ele>348.58</ele>
  <time>2026-09-01T19:50:46Z</time>
  <course>288.02</course>
  <speed>0.1</speed>
  <fix>3d</fix>
</trkpt>
<trkpt lat="-27.2744392" lon="151.2900656">
  <ele>348.74</ele>
  <time>2026-09-01T19:50:46Z</time>
  <course>224.48</course>
  <speed>0.12</speed>
  <fix>3d</fix>
</trkpt>
<trkpt lat="-27.2744393" lon="151.2900655">
  <ele>348.56</ele>
  <time>2026-09-01T19:50:46Z</time>
  <course>288.03</course>
  <speed>0.1063014581273465</speed>
  <fix>3d</fix>
</trkpt>
<trkpt lat="-27.2744394" lon="151.2900654">
  <ele>348.53</ele>
  <time>2026-09-01T19:50:46Z</time>
  <course>288.03</course>
  <speed>0.1063014581273465</speed>
  <fix>3d</fix>
</trkpt>
<trkpt lat="-27.2744394" lon="151.2900654">
  <ele>348.64</ele>
  <time>2026-09-01T19:50:46Z</time>
  <course>228.56</course>
  <speed>0.13</speed>
  <fix>3d</fix>
</trkpt>
<trkpt lat="-27.2744394" lon="151.2900654">
  <ele>348.51</ele>
  <time>2026-09-01T19:50:46Z</time>
  <course>288.04</course>
  <speed>0.1063014581273465</speed>
  <fix>3d</fix>
</trkpt>
<trkpt lat="-27.2744395" lon="151.2900653">
  <ele>348.48</ele>
  <time>2026-09-01T19:50:46Z</time>
  <course>288.05</course>
  <speed>0.1063014581273465</speed>
  <fix>3d</fix>
</trkpt>
<trkpt lat="-27.2744394" lon="151.2900654">
  <ele>348.64</ele>
  <time>2026-09-01T19:50:46Z</time>
  <course>228.56</course>
  <speed>0.13</speed>
  <fix>3d</fix>
</trkpt>
<trkpt lat="-27.2744395" lon="151.2900653">
  <ele>348.46</ele>
  <time>2026-09-01T19:50:46Z</time>
  <course>288.05</course>
  <speed>0.1063014581273465</speed>
  <fix>3d</fix>
</trkpt>
<trkpt lat="-27.2744396" lon="151.2900652">
  <ele>348.43</ele>
  <time>2026-09-01T19:50:46Z</time>
  <course>288.06</course>
  <speed>0.1063014581273465</speed>
  <fix>3d</fix>
</trkpt>
<trkpt lat="-27.2744395" lon="151.2900651">
  <ele>348.53</ele>
  <time>2026-09-01T19:50:46Z</time>
  <course>232.43</course>
  <speed>0.13</speed>
  <fix>3d</fix>
</trkpt>
<trkpt lat="-27.2744396" lon="151.2900652">
  <ele>348.41</ele>
  <time>2026-09-01T19:50:46Z</time>
  <course>288.06</course>
  <speed>0.1063014581273465</speed>
  <fix>3d</fix>
</trkpt>
<trkpt lat="-27.2744396" lon="151.2900651">
  <ele>348.37</ele>
  <time>2026-09-01T19:50:46Z</time>
  <course>288.07</course>
  <speed>0.1131370849898476</speed>
  <fix>3d</fix>
</trkpt>
<trkpt lat="-27.2744395" lon="151.2900651">
  <ele>348.53</ele>
  <time>2026-09-01T19:50:46Z</time>
  <course>232.43</course>
  <speed>0.13</speed>
  <fix>3d</fix>
</trkpt>
<trkpt lat="-27.2744396" lon="151.2900651">
  <ele>348.36</ele>
  <time>2026-09-01T19:50:46Z</time>
  <course>288.07</course>
  <speed>0.1063014581273465</speed>
  <fix>3d</fix>
</trkpt>
<trkpt lat="-27.2744397" lon="151.290065">
  <ele>348.32</ele>
  <time>2026-09-01T19:50:46Z</time>
  <course>288.07</course>
  <speed>0.1063014581273465</speed>
  <fix>3d</fix>
</trkpt>
<trkpt lat="-27.2744397" lon="151.290065">
  <ele>348.44</ele>
  <time>2026-09-01T19:50:46Z</time>
  <course>236.23</course>
  <speed>0.14</speed>
  <fix>3d</fix>
</trkpt>
<trkpt lat="-27.2744397" lon="151.290065">
  <ele>348.32</ele>
  <time>2026-09-01T19:50:46Z</time>
  <course>288.07</course>
  <speed>0.1063014581273465</speed>
  <fix>3d</fix>
</trkpt>
<trkpt lat="-27.2744398" lon="151.2900649">
  <ele>348.27</ele>
  <time>2026-09-01T19:50:46Z</time>
  <course>288.06</course>
  <speed>0.1063014581273465</speed>
  <fix>3d</fix>
</trkpt>
<trkpt lat="-27.2744397" lon="151.290065">
  <ele>348.44</ele>
  <time>2026-09-01T19:50:46Z</time>
  <course>236.23</course>
  <speed>0.14</speed>
  <fix>3d</fix>
</trkpt>
<trkpt lat="-27.2744398" lon="151.2900649">
  <ele>348.27</ele>
  <time>2026-09-01T19:50:46Z</time>
  <course>288.06</course>
  <speed>0.1063014581273465</speed>
  <fix>3d</fix>
</trkpt>
<trkpt lat="-27.2744398" lon="151.2900648">
  <ele>348.22</ele>
  <time>2026-09-01T19:50:46Z</time>
  <course>288.06</course>
  <speed>0.1</speed>
  <fix>3d</fix>
</trkpt>
<trkpt lat="-27.2744398" lon="151.2900647">
  <ele>348.34</ele>
  <time>2026-09-01T19:50:46Z</time>
  <course>239.99</course>
  <speed>0.14</speed>
  <fix>3d</fix>
</trkpt>
<trkpt lat="-27.2744398" lon="151.2900648">
  <ele>348.21</ele>
  <time>2026-09-01T19:50:46Z</time>
  <course>288.06</course>
  <speed>0.1</speed>
  <fix>3d</fix>
</trkpt>
<trkpt lat="-27.2744399" lon="151.2900647">
  <ele>348.17</ele>
  <time>2026-09-01T19:50:46Z</time>
  <course>288.06</course>
  <speed>0.1</speed>
  <fix>3d</fix>
</trkpt>
<trkpt lat="-27.2744398" lon="151.2900647">
  <ele>348.34</ele>
  <time>2026-09-01T19:50:46Z</time>
  <course>239.99</course>
  <speed>0.14</speed>
  <fix>3d</fix>
</trkpt>
<trkpt lat="-27.2744399" lon="151.2900647">
  <ele>348.16</ele>
  <time>2026-09-01T19:50:46Z</time>
  <course>288.06</course>
  <speed>0.1</speed>
  <fix>3d</fix>
</trkpt>
<trkpt lat="-27.2744399" lon="151.2900646">
  <ele>348.12</ele>
  <time>2026-09-01T19:50:46Z</time>
  <course>288.06</course>
  <speed>0.1</speed>
  <fix>3d</fix>
</trkpt>
<trkpt lat="-27.2744399" lon="151.2900645">
  <ele>348.24</ele>
  <time>2026-09-01T19:50:46Z</time>
  <course>243.68</course>
  <speed>0.14</speed>
  <fix>3d</fix>
</trkpt>
<trkpt lat="-27.27444" lon="151.2900646">
  <ele>348.11</ele>
  <time>2026-09-01T19:50:46Z</time>
  <course>288.07</course>
  <speed>0.1</speed>
  <fix>3d</fix>
</trkpt>
<trkpt lat="-27.27444" lon="151.2900645">
  <ele>348.07</ele>
  <time>2026-09-01T19:50:46Z</time>
  <course>288.08</course>
  <speed>0.09433981132056603</speed>
  <fix>3d</fix>
</trkpt>
<trkpt lat="-27.2744399" lon="151.2900645">
  <ele>348.24</ele>
  <time>2026-09-01T19:50:46Z</time>
  <course>243.68</course>
  <speed>0.14</speed>
  <fix>3d</fix>
</trkpt>
<trkpt lat="-27.27444" lon="151.2900644">
  <ele>348.06</ele>
  <time>2026-09-01T19:50:46Z</time>
  <course>288.08</course>
  <speed>0.09433981132056603</speed>
  <fix>3d</fix>
</trkpt>
<trkpt lat="-27.27444" lon="151.2900644">
  <ele>348.02</ele>
  <time>2026-09-01T19:50:46Z</time>
  <course>288.09</course>
  <speed>0.09433981132056603</speed>
  <fix>3d</fix>
</trkpt>
<trkpt lat="-27.27444" lon="151.2900642">
  <ele>348.14</ele>
  <time>2026-09-01T19:50:46Z</time>
  <course>247.4</course>
  <speed>0.14</speed>
  <fix>3d</fix>
</trkpt>
<trkpt lat="-27.2744401" lon="151.2900643">
  <ele>348.01</ele>
  <time>2026-09-01T19:50:46Z</time>
  <course>288.1</course>
  <speed>0.09433981132056603</speed>
  <fix>3d</fix>
</trkpt>
<trkpt lat="-27.2744401" lon="151.2900643">
  <ele>347.97</ele>
  <time>2026-09-01T19:50:46Z</time>
  <course>288.11</course>
  <speed>0.08944271909999159</speed>
  <fix>3d</fix>
</trkpt>
<trkpt lat="-27.27444" lon="151.2900642">
  <ele>348.14</ele>
  <time>2026-09-01T19:50:46Z</time>
  <course>247.4</course>
  <speed>0.14</speed>
  <fix>3d</fix>
</trkpt>
<trkpt lat="-27.2744401" lon="151.2900642">
  <ele>347.96</ele>
  <time>2026-09-01T19:50:46Z</time>
  <course>288.11</course>
  <speed>0.08944271909999159</speed>
  <fix>3d</fix>
</trkpt>
<trkpt lat="-27.2744401" lon="151.2900641">
  <ele>347.92</ele>
  <time>2026-09-01T19:50:46Z</time>
  <course>288.12</course>
  <speed>0.08062257748298549</speed>
  <fix>3d</fix>
</trkpt>
<trkpt lat="-27.2744401" lon="151.2900639">
  <ele>348.03</ele>
  <time>2026-09-01T19:50:46Z</time>
  <course>251.4</course>
  <speed>0.13</speed>
  <fix>3d</fix>
</trkpt>
<trkpt lat="-27.2744401" lon="151.2900641">
  <ele>347.91</ele>
  <time>2026-09-01T19:50:46Z</time>
  <course>288.12</course>
  <speed>0.07615773105863909</speed>
  <fix>3d</fix>
</trkpt>
<trkpt lat="-27.2744401" lon="151.290064">
  <ele>347.87</ele>
  <time>2026-09-01T19:50:46Z</time>
  <course>288.12</course>
  <speed>0.07615773105863909</speed>
  <fix>3d</fix>
</trkpt>
<trkpt lat="-27.2744401" lon="151.2900639">
  <ele>348.03</ele>
  <time>2026-09-01T19:50:46Z</time>
  <course>251.4</course>
  <speed>0.13</speed>
  <fix>3d</fix>
</trkpt>
<trkpt lat="-27.2744402" lon="151.290064">
  <ele>347.86</ele>
  <time>2026-09-01T19:50:46Z</time>
  <course>288.12</course>
  <speed>0.07615773105863909</speed>
  <fix>3d</fix>
</trkpt>
<trkpt lat="-27.2744402" lon="151.2900639">
  <ele>347.82</ele>
  <time>2026-09-01T19:50:46Z</time>
  <course>288.12</course>
  <speed>0.07280109889280519</speed>
  <fix>3d</fix>
</trkpt>
<trkpt lat="-27.2744402" lon="151.2900637">
  <ele>347.94</ele>
  <time>2026-09-01T19:50:46Z</time>
  <course>255.85</course>
  <speed>0.12</speed>
  <fix>3d</fix>
</trkpt>
<trkpt lat="-27.2744402" lon="151.2900639">
  <ele>347.81</ele>
  <time>2026-09-01T19:50:46Z</time>
  <course>288.12</course>
  <speed>0.07280109889280519</speed>
  <fix>3d</fix>
</trkpt>
<trkpt lat="-27.2744402" lon="151.2900638">
  <ele>347.77</ele>
  <time>2026-09-01T19:50:46Z</time>
  <course>288.12</course>
  <speed>0.0632455532033676</speed>
  <fix>3d</fix>
</trkpt>
<trkpt lat="-27.2744402" lon="151.2900637">
  <ele>347.94</ele>
  <time>2026-09-01T19:50:46Z</time>
  <course>255.85</course>
  <speed>0.12</speed>
  <fix>3d</fix>
</trkpt>
<trkpt lat="-27.2744402" lon="151.2900638">
  <ele>347.77</ele>
  <time>2026-09-01T19:50:46Z</time>
  <course>288.12</course>
  <speed>0.0632455532033676</speed>
  <fix>3d</fix>
</trkpt>
<trkpt lat="-27.2744402" lon="151.2900637">
  <ele>347.72</ele>
  <time>2026-09-01T19:50:46Z</time>
  <course>288.12</course>
  <speed>0.06082762530298219</speed>
  <fix>3d</fix>
</trkpt>
<trkpt lat="-27.2744403" lon="151.2900634">
  <ele>347.84</ele>
  <time>2026-09-01T19:50:46Z</time>
  <course>260.8</course>
  <speed>0.11</speed>
  <fix>3d</fix>
</trkpt>
<trkpt lat="-27.2744402" lon="151.2900637">
  <ele>347.72</ele>
  <time>2026-09-01T19:50:46Z</time>
  <course>288.12</course>
  <speed>0.06082762530298219</speed>
  <fix>3d</fix>
</trkpt>
<trkpt lat="-27.2744402" lon="151.2900636">
  <ele>347.67</ele>
  <time>2026-09-01T19:50:46Z</time>
  <course>288.13</course>
  <speed>0.06082762530298219</speed>
  <fix>3d</fix>
</trkpt>
<trkpt lat="-27.2744403" lon="151.2900634">
  <ele>347.84</ele>
  <time>2026-09-01T19:50:46Z</time>
  <course>260.8</course>
  <speed>0.11</speed>
  <fix>3d</fix>
</trkpt>
<trkpt lat="-27.2744402" lon="151.2900636">
  <ele>347.66</ele>
  <time>2026-09-01T19:50:46Z</time>
  <course>288.13</course>
  <speed>0.05</speed>
  <fix>3d</fix>
</trkpt>
<trkpt lat="-27.2744402" lon="151.2900635">
  <ele>347.62</ele>
  <time>2026-09-01T19:50:46Z</time>
  <course>288.14</course>
  <speed>0.05</speed>
  <fix>3d</fix>
</trkpt>
<trkpt lat="-27.2744403" lon="151.2900632">
  <ele>347.74</ele>
  <time>2026-09-01T19:50:46Z</time>
  <course>266.31</course>
  <speed>0.1</speed>
  <fix>3d</fix>
</trkpt>
<trkpt lat="-27.2744402" lon="151.2900635">
  <ele>347.6</ele>
  <time>2026-09-01T19:50:46Z</time>
  <course>288.14</course>
  <speed>0.05</speed>
  <fix>3d</fix>
</trkpt>
<trkpt lat="-27.2744402" lon="151.2900634">
  <ele>347.57</ele>
  <time>2026-09-01T19:50:46Z</time>
  <course>288.14</course>
  <speed>0.05</speed>
  <fix>3d</fix>
</trkpt>
<trkpt lat="-27.2744403" lon="151.2900632">
  <ele>347.74</ele>
  <time>2026-09-01T19:50:46Z</time>
  <course>266.31</course>
  <speed>0.1</speed>
  <fix>3d</fix>
</trkpt>
<trkpt lat="-27.2744402" lon="151.2900634">
  <ele>347.55</ele>
  <time>2026-09-01T19:50:46Z</time>
  <course>288.14</course>
  <speed>0.05</speed>
  <fix>3d</fix>
</trkpt>
<trkpt lat="-27.2744402" lon="151.2900633">
  <ele>347.52</ele>
  <time>2026-09-01T19:50:46Z</time>
  <course>288.15</course>
  <speed>0.04</speed>
  <fix>3d</fix>
</trkpt>
<trkpt lat="-27.2744403" lon="151.2900629">
  <ele>347.64</ele>
  <time>2026-09-01T19:50:46Z</time>
  <course>272.42</course>
  <speed>0.1</speed>
  <fix>3d</fix>
</trkpt>
<trkpt lat="-27.2744402" lon="151.2900633">
  <ele>347.5</ele>
  <time>2026-09-01T19:50:46Z</time>
  <course>288.15</course>
  <speed>0.04</speed>
  <fix>3d</fix>
</trkpt>
<trkpt lat="-27.2744402" lon="151.2900632">
  <ele>347.47</ele>
  <time>2026-09-01T19:50:46Z</time>
  <course>288.16</course>
  <speed>0.04</speed>
  <fix>3d</fix>
</trkpt>
<trkpt lat="-27.2744403" lon="151.2900629">
  <ele>347.64</ele>
  <time>2026-09-01T19:50:46Z</time>
  <course>272.42</course>
  <speed>0.1</speed>
  <fix>3d</fix>
</trkpt>
<trkpt lat="-27.2744402" lon="151.2900632">
  <ele>347.45</ele>
  <time>2026-09-01T19:50:46Z</time>
  <course>288.16</course>
  <speed>0.0412310562561766</speed>
  <fix>3d</fix>
</trkpt>
<trkpt lat="-27.2744402" lon="151.2900631">
  <ele>347.42</ele>
  <time>2026-09-01T19:50:46Z</time>
  <course>288.17</course>
  <speed>0.0316227766016838</speed>
  <fix>3d</fix>
</trkpt>
<trkpt lat="-27.2744403" lon="151.2900627">
  <ele>347.53</ele>
  <time>2026-09-01T19:50:46Z</time>
  <course>279.08</course>
  <speed>0.09</speed>
  <fix>3d</fix>
</trkpt>
<trkpt lat="-27.2744402" lon="151.2900631">
  <ele>347.4</ele>
  <time>2026-09-01T19:50:46Z</time>
  <course>288.17</course>
  <speed>0.0316227766016838</speed>
  <fix>3d</fix>
</trkpt>
<trkpt lat="-27.2744402" lon="151.290063">
  <ele>347.37</ele>
  <time>2026-09-01T19:50:46Z</time>
  <course>288.18</course>
  <speed>0.0316227766016838</speed>
  <fix>3d</fix>
</trkpt>
<trkpt lat="-27.2744403" lon="151.2900627">
  <ele>347.53</ele>
  <time>2026-09-01T19:50:46Z</time>
  <course>279.08</course>
  <speed>0.09</speed>
  <fix>3d</fix>
</trkpt>
<trkpt lat="-27.2744402" lon="151.290063">
  <ele>347.35</ele>
  <time>2026-09-01T19:50:46Z</time>
  <course>288.18</course>
  <speed>0.0316227766016838</speed>
  <fix>3d</fix>
</trkpt>
<trkpt lat="-27.2744402" lon="151.290063">
  <ele>347.32</ele>
  <time>2026-09-01T19:50:46Z</time>
  <course>288.19</course>
  <speed>0.0282842712474619</speed>
  <fix>3d</fix>
</trkpt>
<trkpt lat="-27.2744403" lon="151.2900626">
  <ele>347.44</ele>
  <time>2026-09-01T19:50:46Z</time>
  <course>286.35</course>
  <speed>0.08</speed>
  <fix>3d</fix>
</trkpt>
<trkpt lat="-27.2744402" lon="151.2900629">
  <ele>347.3</ele>
  <time>2026-09-01T19:50:46Z</time>
  <course>288.19</course>
  <speed>0.0282842712474619</speed>
  <fix>3d</fix>
</trkpt>
<trkpt lat="-27.2744402" lon="151.2900629">
  <ele>347.27</ele>
  <time>2026-09-01T19:50:46Z</time>
  <course>288.2</course>
  <speed>0.0282842712474619</speed>
  <fix>3d</fix>
</trkpt>
<trkpt lat="-27.2744403" lon="151.2900626">
  <ele>347.44</ele>
  <time>2026-09-01T19:50:46Z</time>
  <course>286.35</course>
  <speed>0.08</speed>
  <fix>3d</fix>
</trkpt>
<trkpt lat="-27.2744402" lon="151.2900629">
  <ele>347.27</ele>
  <time>2026-09-01T19:50:46Z</time>
  <course>288.2</course>
  <speed>0.0282842712474619</speed>
  <fix>3d</fix>
</trkpt>
<trkpt lat="-27.2744402" lon="151.2900628">
  <ele>347.22</ele>
  <time>2026-09-01T19:50:46Z</time>
  <course>288.22</course>
  <speed>0.0316227766016838</speed>
  <fix>3d</fix>
</trkpt>
<trkpt lat="-27.2744403" lon="151.2900624">
  <ele>347.34</ele>
  <time>2026-09-01T19:50:46Z</time>
  <course>294.69</course>
  <speed>0.07</speed>
  <fix>3d</fix>
</trkpt>
<trkpt lat="-27.2744402" lon="151.2900628">
  <ele>347.22</ele>
  <time>2026-09-01T19:50:46Z</time>
  <course>288.22</course>
  <speed>0.0316227766016838</speed>
  <fix>3d</fix>
</trkpt>
<trkpt lat="-27.2744402" lon="151.2900628">
  <ele>347.17</ele>
  <time>2026-09-01T19:50:46Z</time>
  <course>288.23</course>
  <speed>0.0316227766016838</speed>
  <fix>3d</fix>
</trkpt>
<trkpt lat="-27.2744403" lon="151.2900624">
  <ele>347.34</ele>
  <time>2026-09-01T19:50:46Z</time>
  <course>294.69</course>
  <speed>0.07</speed>
  <fix>3d</fix>
</trkpt>
<trkpt lat="-27.2744402" lon="151.2900628">
  <ele>347.17</ele>
  <time>2026-09-01T19:50:46Z</time>
  <course>288.23</course>
  <speed>0.0316227766016838</speed>
  <fix>3d</fix>
</trkpt>
<trkpt lat="-27.2744402" lon="151.2900627">
  <ele>347.12</ele>
  <time>2026-09-01T19:50:46Z</time>
  <course>288.25</course>
  <speed>0.03</speed>
  <fix>3d</fix>
</trkpt>
<trkpt lat="-27.2744403" lon="151.2900624">
  <ele>347.34</ele>
  <time>2026-09-01T19:50:46Z</time>
  <course>294.69</course>
  <speed>0.07</speed>
  <fix>3d</fix>
</trkpt>
<trkpt lat="-27.2744402" lon="151.2900627">
  <ele>347.11</ele>
  <time>2026-09-01T19:50:46Z</time>
  <course>288.25</course>
  <speed>0.03</speed>
  <fix>3d</fix>
</trkpt>
<trkpt lat="-27.2744402" lon="151.2900626">
  <ele>347.07</ele>
  <time>2026-09-01T19:50:46Z</time>
  <course>288.26</course>
  <speed>0.03</speed>
  <fix>3d</fix>
</trkpt>
<trkpt lat="-27.2744402" lon="151.2900623">
  <ele>347.24</ele>
  <time>2026-09-01T19:50:46Z</time>
  <course>303.98</course>
  <speed>0.07</speed>
  <fix>3d</fix>
</trkpt>
<trkpt lat="-27.2744401" lon="151.2900626">
  <ele>347.06</ele>
  <time>2026-09-01T19:50:46Z</time>
  <course>288.27</course>
  <speed>0.04</speed>
  <fix>3d</fix>
</trkpt>
<trkpt lat="-27.2744401" lon="151.2900626">
  <ele>347.02</ele>
  <time>2026-09-01T19:50:46Z</time>
  <course>288.27</course>
  <speed>0.04</speed>
  <fix>3d</fix>
</trkpt>
<trkpt lat="-27.2744401" lon="151.2900622">
  <ele>347.14</ele>
  <time>2026-09-01T19:50:46Z</time>
  <course>313.71</course>
  <speed>0.06</speed>
  <fix>3d</fix>
</trkpt>
<trkpt lat="-27.2744401" lon="151.2900626">
  <ele>347.01</ele>
  <time>2026-09-01T19:50:46Z</time>
  <course>288.27</course>
  <speed>0.04</speed>
  <fix>3d</fix>
</trkpt>
<trkpt lat="-27.2744401" lon="151.2900626">
  <ele>346.97</ele>
  <time>2026-09-01T19:50:46Z</time>
  <course>288.28</course>
  <speed>0.04</speed>
  <fix>3d</fix>
</trkpt>
<trkpt lat="-27.2744401" lon="151.2900622">
  <ele>347.14</ele>
  <time>2026-09-01T19:50:46Z</time>
  <course>313.71</course>
  <speed>0.06</speed>
  <fix>3d</fix>
</trkpt>
<trkpt lat="-27.2744401" lon="151.2900625">
  <ele>346.96</ele>
  <time>2026-09-01T19:50:46Z</time>
  <course>288.28</course>
  <speed>0.0412310562561766</speed>
  <fix>3d</fix>
</trkpt>
<trkpt lat="-27.27444" lon="151.2900625">
  <ele>346.92</ele>
  <time>2026-09-01T19:50:46Z</time>
  <course>288.29</course>
  <speed>0.0412310562561766</speed>
  <fix>3d</fix>
</trkpt>
<trkpt lat="-27.27444" lon="151.2900621">
  <ele>347.03</ele>
  <time>2026-09-01T19:50:46Z</time>
  <course>323.86</course>
  <speed>0.06</speed>
  <fix>3d</fix>
</trkpt>
<trkpt lat="-27.27444" lon="151.2900625">
  <ele>346.91</ele>
  <time>2026-09-01T19:50:46Z</time>
  <course>288.29</course>
  <speed>0.0412310562561766</speed>
  <fix>3d</fix>
</trkpt>
<trkpt lat="-27.27444" lon="151.2900625">
  <ele>346.87</ele>
  <time>2026-09-01T19:50:46Z</time>
  <course>288.3</course>
  <speed>0.0412310562561766</speed>
  <fix>3d</fix>
</trkpt>
<trkpt lat="-27.27444" lon="151.2900621">
  <ele>347.03</ele>
  <time>2026-09-01T19:50:46Z</time>
  <course>323.86</course>
  <speed>0.06</speed>
  <fix>3d</fix>
</trkpt>
<trkpt lat="-27.27444" lon="151.2900625">
  <ele>346.86</ele>
  <time>2026-09-01T19:50:46Z</time>
  <course>288.3</course>
  <speed>0.044721359549995794</speed>
  <fix>3d</fix>
</trkpt>
<trkpt lat="-27.2744399" lon="151.2900624">
  <ele>346.82</ele>
  <time>2026-09-01T19:50:46Z</time>
  <course>288.31</course>
  <speed>0.053851648071345036</speed>
  <fix>3d</fix>
</trkpt>
<trkpt lat="-27.2744399" lon="151.2900621">
  <ele>346.94</ele>
  <time>2026-09-01T19:50:46Z</time>
  <course>334.14</course>
  <speed>0.06</speed>
  <fix>3d</fix>
</trkpt>
<trkpt lat="-27.2744399" lon="151.2900624">
  <ele>346.81</ele>
  <time>2026-09-01T19:50:46Z</time>
  <course>288.31</course>
  <speed>0.053851648071345036</speed>
  <fix>3d</fix>
</trkpt>
<trkpt lat="-27.2744399" lon="151.2900624">
  <ele>346.77</ele>
  <time>2026-09-01T19:50:46Z</time>
  <course>288.32</course>
  <speed>0.053851648071345036</speed>
  <fix>3d</fix>
</trkpt>
<trkpt lat="-27.2744399" lon="151.2900621">
  <ele>346.94</ele>
  <time>2026-09-01T19:50:46Z</time>
  <course>334.14</course>
  <speed>0.06</speed>
  <fix>3d</fix>
</trkpt>
<trkpt lat="-27.2744399" lon="151.2900624">
  <ele>346.76</ele>
  <time>2026-09-01T19:50:46Z</time>
  <course>288.33</course>
  <speed>0.05830951894845301</speed>
  <fix>3d</fix>
</trkpt>
<trkpt lat="-27.2744398" lon="151.2900624">
  <ele>346.72</ele>
  <time>2026-09-01T19:50:46Z</time>
  <course>288.34</course>
  <speed>0.05830951894845301</speed>
  <fix>3d</fix>
</trkpt>
<trkpt lat="-27.2744398" lon="151.290062">
  <ele>346.84</ele>
  <time>2026-09-01T19:50:46Z</time>
  <course>344.21</course>
  <speed>0.06</speed>
  <fix>3d</fix>
</trkpt>
<trkpt lat="-27.2744398" lon="151.2900624">
  <ele>346.71</ele>
  <time>2026-09-01T19:50:46Z</time>
  <course>288.34</course>
  <speed>0.05830951894845301</speed>
  <fix>3d</fix>
</trkpt>
<trkpt lat="-27.2744398" lon="151.2900624">
  <ele>346.67</ele>
  <time>2026-09-01T19:50:46Z</time>
  <course>288.35</course>
  <speed>0.06403124237432849</speed>
  <fix>3d</fix>
</trkpt>
<trkpt lat="-27.2744398" lon="151.290062">
  <ele>346.84</ele>
  <time>2026-09-01T19:50:46Z</time>
  <course>344.21</course>
  <speed>0.06</speed>
  <fix>3d</fix>
</trkpt>
<trkpt lat="-27.2744398" lon="151.2900624">
  <ele>346.67</ele>
  <time>2026-09-01T19:50:46Z</time>
  <course>288.36</course>
  <speed>0.06403124237432849</speed>
  <fix>3d</fix>
</trkpt>
<trkpt lat="-27.2744397" lon="151.2900624">
  <ele>346.62</ele>
  <time>2026-09-01T19:50:46Z</time>
  <course>288.37</course>
  <speed>0.06403124237432849</speed>
  <fix>3d</fix>
</trkpt>
<trkpt lat="-27.2744397" lon="151.290062">
  <ele>346.74</ele>
  <time>2026-09-01T19:50:46Z</time>
  <course>354.28</course>
  <speed>0.06</speed>
  <fix>3d</fix>
</trkpt>
<trkpt lat="-27.2744397" lon="151.2900624">
  <ele>346.61</ele>
  <time>2026-09-01T19:50:46Z</time>
  <course>288.37</course>
  <speed>0.06403124237432849</speed>
  <fix>3d</fix>
</trkpt>
<trkpt lat="-27.2744397" lon="151.2900624">
  <ele>346.57</ele>
  <time>2026-09-01T19:50:46Z</time>
  <course>288.38</course>
  <speed>0.07071067811865475</speed>
  <fix>3d</fix>
</trkpt>
<trkpt lat="-27.2744397" lon="151.290062">
  <ele>346.74</ele>
  <time>2026-09-01T19:50:46Z</time>
  <course>354.28</course>
  <speed>0.06</speed>
  <fix>3d</fix>
</trkpt>
<trkpt lat="-27.2744397" lon="151.2900624">
  <ele>346.56</ele>
  <time>2026-09-01T19:50:46Z</time>
  <course>288.38</course>
  <speed>0.07071067811865475</speed>
  <fix>3d</fix>
</trkpt>
<trkpt lat="-27.2744396" lon="151.2900624">
  <ele>346.52</ele>
  <time>2026-09-01T19:50:46Z</time>
  <course>288.38</course>
  <speed>0.07071067811865475</speed>
  <fix>3d</fix>
</trkpt>
<trkpt lat="-27.2744396" lon="151.290062">
  <ele>346.64</ele>
  <time>2026-09-01T19:50:46Z</time>
  <course>4.36</course>
  <speed>0.06</speed>
  <fix>3d</fix>
</trkpt>
<trkpt lat="-27.2744396" lon="151.2900624">
  <ele>346.51</ele>
  <time>2026-09-01T19:50:46Z</time>
  <course>288.39</course>
  <speed>0.07071067811865475</speed>
  <fix>3d</fix>
</trkpt>
<trkpt lat="-27.2744396" lon="151.2900624">
  <ele>346.47</ele>
  <time>2026-09-01T19:50:46Z</time>
  <course>288.4</course>
  <speed>0.07211102550927978</speed>
  <fix>3d</fix>
</trkpt>
<trkpt lat="-27.2744396" lon="151.290062">
  <ele>346.64</ele>
  <time>2026-09-01T19:50:46Z</time>
  <course>4.36</course>
  <speed>0.06</speed>
  <fix>3d</fix>
</trkpt>
<trkpt lat="-27.2744396" lon="151.2900624">
  <ele>346.46</ele>
  <time>2026-09-01T19:50:46Z</time>
  <course>288.4</course>
  <speed>0.07211102550927978</speed>
  <fix>3d</fix>
</trkpt>
<trkpt lat="-27.2744395" lon="151.2900624">
  <ele>346.42</ele>
  <time>2026-09-01T19:50:46Z</time>
  <course>288.41</course>
  <speed>0.07211102550927978</speed>
  <fix>3d</fix>
</trkpt>
<trkpt lat="-27.2744395" lon="151.290062">
  <ele>346.53</ele>
  <time>2026-09-01T19:50:46Z</time>
  <course>13.71</course>
  <speed>0.06</speed>
  <fix>3d</fix>
</trkpt>
<trkpt lat="-27.2744395" lon="151.2900624">
  <ele>346.41</ele>
  <time>2026-09-01T19:50:46Z</time>
  <course>288.41</course>
  <speed>0.07211102550927978</speed>
  <fix>3d</fix>
</trkpt>
<trkpt lat="-27.2744395" lon="151.2900624">
  <ele>346.37</ele>
  <time>2026-09-01T19:50:46Z</time>
  <course>288.42</course>
  <speed>0.07211102550927978</speed>
  <fix>3d</fix>
</trkpt>
<trkpt lat="-27.2744395" lon="151.290062">
  <ele>346.53</ele>
  <time>2026-09-01T19:50:46Z</time>
  <course>13.71</course>
  <speed>0.06</speed>
  <fix>3d</fix>
</trkpt>
<trkpt lat="-27.2744395" lon="151.2900624">
  <ele>346.36</ele>
  <time>2026-09-01T19:50:46Z</time>
  <course>288.43</course>
  <speed>0.07211102550927978</speed>
  <fix>3d</fix>
</trkpt>
<trkpt lat="-27.2744394" lon="151.2900624">
  <ele>346.32</ele>
  <time>2026-09-01T19:50:46Z</time>
  <course>288.44</course>
  <speed>0.08062257748298549</speed>
  <fix>3d</fix>
</trkpt>
<trkpt lat="-27.2744394" lon="151.290062">
  <ele>346.44</ele>
  <time>2026-09-01T19:50:46Z</time>
  <course>21.95</course>
  <speed>0.06</speed>
  <fix>3d</fix>
</trkpt>
<trkpt lat="-27.2744394" lon="151.2900624">
  <ele>346.31</ele>
  <time>2026-09-01T19:50:46Z</time>
  <course>288.44</course>
  <speed>0.08062257748298549</speed>
  <fix>3d</fix>
</trkpt>
<trkpt lat="-27.2744394" lon="151.2900624">
  <ele>346.27</ele>
  <time>2026-09-01T19:50:46Z</time>
  <course>288.45</course>
  <speed>0.08062257748298549</speed>
  <fix>3d</fix>
</trkpt>
<trkpt lat="-27.2744394" lon="151.290062">
  <ele>346.44</ele>
  <time>2026-09-01T19:50:46Z</time>
  <course>21.95</course>
  <speed>0.06</speed>
  <fix>3d</fix>
</trkpt>
<trkpt lat="-27.2744394" lon="151.2900625">
  <ele>346.26</ele>
  <time>2026-09-01T19:50:46Z</time>
  <course>288.46</course>
  <speed>0.08062257748298549</speed>
  <fix>3d</fix>
</trkpt>
<trkpt lat="-27.2744393" lon="151.2900625">
  <ele>346.22</ele>
  <time>2026-09-01T19:50:46Z</time>
  <course>288.46</course>
  <speed>0.08062257748298549</speed>
  <fix>3d</fix>
</trkpt>
<trkpt lat="-27.2744393" lon="151.290062">
  <ele>346.33</ele>
  <time>2026-09-01T19:50:46Z</time>
  <course>29.68</course>
  <speed>0.06</speed>
  <fix>3d</fix>
</trkpt>
<trkpt lat="-27.2744393" lon="151.2900625">
  <ele>346.21</ele>
  <time>2026-09-01T19:50:46Z</time>
  <course>288.46</course>
  <speed>0.08062257748298549</speed>
  <fix>3d</fix>
</trkpt>
<trkpt lat="-27.2744393" lon="151.2900625">
  <ele>346.17</ele>
  <time>2026-09-01T19:50:46Z</time>
  <course>288.46</course>
  <speed>0.07615773105863909</speed>
  <fix>3d</fix>
</trkpt>
<trkpt lat="-27.2744393" lon="151.290062">
  <ele>346.33</ele>
  <time>2026-09-01T19:50:46Z</time>
  <course>29.68</course>
  <speed>0.06</speed>
  <fix>3d</fix>
</trkpt>
<trkpt lat="-27.2744393" lon="151.2900625">
  <ele>346.16</ele>
  <time>2026-09-01T19:50:46Z</time>
  <course>288.46</course>
  <speed>0.0854400374531753</speed>
  <fix>3d</fix>
</trkpt>
<trkpt lat="-27.2744393" lon="151.2900625">
  <ele>346.13</ele>
  <time>2026-09-01T19:50:46Z</time>
  <course>288.46</course>
  <speed>0.0854400374531753</speed>
  <fix>3d</fix>
</trkpt>
<trkpt lat="-27.2744393" lon="151.290062">
  <ele>346.33</ele>
  <time>2026-09-01T19:50:46Z</time>
  <course>29.68</course>
  <speed>0.06</speed>
  <fix>3d</fix>
</trkpt>
<trkpt lat="-27.2744393" lon="151.2900625">
  <ele>346.12</ele>
  <time>2026-09-01T19:50:46Z</time>
  <course>288.46</course>
  <speed>0.0854400374531753</speed>
  <fix>3d</fix>
</trkpt>
<trkpt lat="-27.2744392" lon="151.2900626">
  <ele>346.07</ele>
  <time>2026-09-01T19:50:46Z</time>
  <course>288.45</course>
  <speed>0.0854400374531753</speed>
  <fix>3d</fix>
</trkpt>
<trkpt lat="-27.2744392" lon="151.2900621">
  <ele>346.22</ele>
  <time>2026-09-01T19:50:46Z</time>
  <course>37.12</course>
  <speed>0.06</speed>
  <fix>3d</fix>
</trkpt>
<trkpt lat="-27.2744392" lon="151.2900626">
  <ele>346.07</ele>
  <time>2026-09-01T19:50:46Z</time>
  <course>288.45</course>
  <speed>0.0854400374531753</speed>
  <fix>3d</fix>
</trkpt>
<trkpt lat="-27.2744392" lon="151.2900626">
  <ele>346.02</ele>
  <time>2026-09-01T19:50:46Z</time>
  <course>288.45</course>
  <speed>0.0824621125123532</speed>
  <fix>3d</fix>
</trkpt>
<trkpt lat="-27.2744392" lon="151.2900621">
  <ele>346.22</ele>
  <time>2026-09-01T19:50:46Z</time>
  <course>37.12</course>
  <speed>0.06</speed>
  <fix>3d</fix>
</trkpt>
<trkpt lat="-27.2744392" lon="151.2900626">
  <ele>346.01</ele>
  <time>2026-09-01T19:50:46Z</time>
  <course>288.45</course>
  <speed>0.0824621125123532</speed>
  <fix>3d</fix>
</trkpt>
<trkpt lat="-27.2744392" lon="151.2900626">
  <ele>345.97</ele>
  <time>2026-09-01T19:50:46Z</time>
  <course>288.46</course>
  <speed>0.0824621125123532</speed>
  <fix>3d</fix>
</trkpt>
<trkpt lat="-27.2744391" lon="151.2900621">
  <ele>346.13</ele>
  <time>2026-09-01T19:50:46Z</time>
  <course>44.29</course>
  <speed>0.05</speed>
  <fix>3d</fix>
</trkpt>
<trkpt lat="-27.2744392" lon="151.2900627">
  <ele>345.96</ele>
  <time>2026-09-01T19:50:46Z</time>
  <course>288.46</course>
  <speed>0.0824621125123532</speed>
  <fix>3d</fix>
</trkpt>
<trkpt lat="-27.2744391" lon="151.2900627">
  <ele>345.92</ele>
  <time>2026-09-01T19:50:46Z</time>
  <course>288.46</course>
  <speed>0.0824621125123532</speed>
  <fix>3d</fix>
</trkpt>
<trkpt lat="-27.2744391" lon="151.2900621">
  <ele>346.13</ele>
  <time>2026-09-01T19:50:46Z</time>
  <course>44.29</course>
  <speed>0.05</speed>
  <fix>3d</fix>
</trkpt>
<trkpt lat="-27.2744391" lon="151.2900627">
  <ele>345.91</ele>
  <time>2026-09-01T19:50:46Z</time>
  <course>288.46</course>
  <speed>0.0824621125123532</speed>
  <fix>3d</fix>
</trkpt>
<trkpt lat="-27.2744391" lon="151.2900627">
  <ele>345.87</ele>
  <time>2026-09-01T19:50:46Z</time>
  <course>288.46</course>
  <speed>0.0824621125123532</speed>
  <fix>3d</fix>
</trkpt>
<trkpt lat="-27.274439" lon="151.2900622">
  <ele>346.03</ele>
  <time>2026-09-01T19:50:46Z</time>
  <course>51.47</course>
  <speed>0.05</speed>
  <fix>3d</fix>
</trkpt>
<trkpt lat="-27.2744391" lon="151.2900627">
  <ele>345.86</ele>
  <time>2026-09-01T19:50:46Z</time>
  <course>288.46</course>
  <speed>0.08062257748298549</speed>
  <fix>3d</fix>
</trkpt>
<trkpt lat="-27.2744391" lon="151.2900628">
  <ele>345.82</ele>
  <time>2026-09-01T19:50:46Z</time>
  <course>288.46</course>
  <speed>0.08062257748298549</speed>
  <fix>3d</fix>
</trkpt>
<trkpt lat="-27.274439" lon="151.2900622">
  <ele>346.03</ele>
  <time>2026-09-01T19:50:46Z</time>
  <course>51.47</course>
  <speed>0.05</speed>
  <fix>3d</fix>
</trkpt>
<trkpt lat="-27.2744391" lon="151.2900628">
  <ele>345.82</ele>
  <time>2026-09-01T19:50:46Z</time>
  <course>288.46</course>
  <speed>0.08062257748298549</speed>
  <fix>3d</fix>
</trkpt>
<trkpt lat="-27.2744391" lon="151.2900628">
  <ele>345.77</ele>
  <time>2026-09-01T19:50:46Z</time>
  <course>288.46</course>
  <speed>0.08062257748298549</speed>
  <fix>3d</fix>
</trkpt>
<trkpt lat="-27.274439" lon="151.2900623">
  <ele>345.93</ele>
  <time>2026-09-01T19:50:46Z</time>
  <course>58.77</course>
  <speed>0.05</speed>
  <fix>3d</fix>
</trkpt>
<trkpt lat="-27.2744391" lon="151.2900628">
  <ele>345.75</ele>
  <time>2026-09-01T19:50:46Z</time>
  <course>288.46</course>
  <speed>0.08062257748298549</speed>
  <fix>3d</fix>
</trkpt>
<trkpt lat="-27.274439" lon="151.2900628">
  <ele>345.72</ele>
  <time>2026-09-01T19:50:46Z</time>
  <course>288.47</course>
  <speed>0.08</speed>
  <fix>3d</fix>
</trkpt>
<trkpt lat="-27.274439" lon="151.2900623">
  <ele>345.93</ele>
  <time>2026-09-01T19:50:46Z</time>
  <course>58.77</course>
  <speed>0.05</speed>
  <fix>3d</fix>
</trkpt>
<trkpt lat="-27.274439" lon="151.2900628">
  <ele>345.69</ele>
  <time>2026-09-01T19:50:46Z</time>
  <course>288.47</course>
  <speed>0.08</speed>
  <fix>3d</fix>
</trkpt>
<trkpt lat="-27.274439" lon="151.2900629">
  <ele>345.66</ele>
  <time>2026-09-01T19:50:46Z</time>
  <course>288.48</course>
  <speed>0.08</speed>
  <fix>3d</fix>
</trkpt>
<trkpt lat="-27.274439" lon="151.2900624">
  <ele>345.83</ele>
  <time>2026-09-01T19:50:46Z</time>
  <course>66.36</course>
  <speed>0.05</speed>
  <fix>3d</fix>
</trkpt>
<trkpt lat="-27.274439" lon="151.2900629">
  <ele>345.65</ele>
  <time>2026-09-01T19:50:46Z</time>
  <course>288.48</course>
  <speed>0.08</speed>
  <fix>3d</fix>
</trkpt>
<trkpt lat="-27.274439" lon="151.2900629">
  <ele>345.62</ele>
  <time>2026-09-01T19:50:46Z</time>
  <course>288.49</course>
  <speed>0.08</speed>
  <fix>3d</fix>
</trkpt>
<trkpt lat="-27.2744389" lon="151.2900625">
  <ele>345.72</ele>
  <time>2026-09-01T19:50:46Z</time>
  <course>74.46</course>
  <speed>0.04</speed>
  <fix>3d</fix>
</trkpt>
<trkpt lat="-27.274439" lon="151.2900629">
  <ele>345.61</ele>
  <time>2026-09-01T19:50:46Z</time>
  <course>288.49</course>
  <speed>0.08</speed>
  <fix>3d</fix>
</trkpt>
<trkpt lat="-27.274439" lon="151.2900629">
  <ele>345.57</ele>
  <time>2026-09-01T19:50:46Z</time>
  <course>288.51</course>
  <speed>0.08</speed>
  <fix>3d</fix>
</trkpt>
<trkpt lat="-27.2744389" lon="151.2900625">
  <ele>345.72</ele>
  <time>2026-09-01T19:50:46Z</time>
  <course>74.46</course>
  <speed>0.04</speed>
  <fix>3d</fix>
</trkpt>
<trkpt lat="-27.274439" lon="151.2900629">
  <ele>345.56</ele>
  <time>2026-09-01T19:50:46Z</time>
  <course>288.51</course>
  <speed>0.08</speed>
  <fix>3d</fix>
</trkpt>
<trkpt lat="-27.274439" lon="151.290063">
  <ele>345.52</ele>
  <time>2026-09-01T19:50:46Z</time>
  <course>288.52</course>
  <speed>0.08</speed>
  <fix>3d</fix>
</trkpt>
<trkpt lat="-27.2744389" lon="151.2900626">
  <ele>345.63</ele>
  <time>2026-09-01T19:50:46Z</time>
  <course>82.94</course>
  <speed>0.04</speed>
  <fix>3d</fix>
</trkpt>
<trkpt lat="-27.274439" lon="151.290063">
  <ele>345.5</ele>
  <time>2026-09-01T19:50:46Z</time>
  <course>288.52</course>
  <speed>0.08</speed>
  <fix>3d</fix>
</trkpt>
<trkpt lat="-27.274439" lon="151.290063">
  <ele>345.47</ele>
  <time>2026-09-01T19:50:46Z</time>
  <course>288.53</course>
  <speed>0.08</speed>
  <fix>3d</fix>
</trkpt>
<trkpt lat="-27.2744389" lon="151.2900626">
  <ele>345.63</ele>
  <time>2026-09-01T19:50:46Z</time>
  <course>82.94</course>
  <speed>0.04</speed>
  <fix>3d</fix>
</trkpt>
<trkpt lat="-27.274439" lon="151.290063">
  <ele>345.45</ele>
  <time>2026-09-01T19:50:46Z</time>
  <course>288.53</course>
  <speed>0.07</speed>
  <fix>3d</fix>
</trkpt>
<trkpt lat="-27.274439" lon="151.290063">
  <ele>345.42</ele>
  <time>2026-09-01T19:50:46Z</time>
  <course>288.53</course>
  <speed>0.07071067811865475</speed>
  <fix>3d</fix>
</trkpt>
<trkpt lat="-27.2744389" lon="151.2900627">
  <ele>345.53</ele>
  <time>2026-09-01T19:50:46Z</time>
  <course>91.08</course>
  <speed>0.04</speed>
  <fix>3d</fix>
</trkpt>
<trkpt lat="-27.274439" lon="151.2900631">
  <ele>345.4</ele>
  <time>2026-09-01T19:50:46Z</time>
  <course>288.53</course>
  <speed>0.07071067811865475</speed>
  <fix>3d</fix>
</trkpt>
<trkpt lat="-27.274439" lon="151.2900631">
  <ele>345.37</ele>
  <time>2026-09-01T19:50:46Z</time>
  <course>288.54</course>
  <speed>0.07071067811865475</speed>
  <fix>3d</fix>
</trkpt>
<trkpt lat="-27.2744389" lon="151.2900627">
  <ele>345.53</ele>
  <time>2026-09-01T19:50:46Z</time>
  <course>91.08</course>
  <speed>0.04</speed>
  <fix>3d</fix>
</trkpt>
<trkpt lat="-27.274439" lon="151.2900631">
  <ele>345.35</ele>
  <time>2026-09-01T19:50:46Z</time>
  <course>288.54</course>
  <speed>0.07071067811865475</speed>
  <fix>3d</fix>
</trkpt>
<trkpt lat="-27.274439" lon="151.2900631">
  <ele>345.32</ele>
  <time>2026-09-01T19:50:46Z</time>
  <course>288.55</course>
  <speed>0.07071067811865475</speed>
  <fix>3d</fix>
</trkpt>
<trkpt lat="-27.2744389" lon="151.2900628">
  <ele>345.43</ele>
  <time>2026-09-01T19:50:46Z</time>
  <course>98.86</course>
  <speed>0.04</speed>
  <fix>3d</fix>
</trkpt>
<trkpt lat="-27.274439" lon="151.2900631">
  <ele>345.31</ele>
  <time>2026-09-01T19:50:46Z</time>
  <course>288.55</course>
  <speed>0.07071067811865475</speed>
  <fix>3d</fix>
</trkpt>
<trkpt lat="-27.274439" lon="151.2900632">
  <ele>345.27</ele>
  <time>2026-09-01T19:50:46Z</time>
  <course>288.55</course>
  <speed>0.07071067811865475</speed>
  <fix>3d</fix>
</trkpt>
<trkpt lat="-27.2744389" lon="151.2900628">
  <ele>345.43</ele>
  <time>2026-09-01T19:50:46Z</time>
  <course>98.86</course>
  <speed>0.04</speed>
  <fix>3d</fix>
</trkpt>
<trkpt lat="-27.274439" lon="151.2900632">
  <ele>345.26</ele>
  <time>2026-09-01T19:50:46Z</time>
  <course>288.56</course>
  <speed>0.07071067811865475</speed>
  <fix>3d</fix>
</trkpt>
<trkpt lat="-27.274439" lon="151.2900632">
  <ele>345.22</ele>
  <time>2026-09-01T19:50:46Z</time>
  <course>288.54</course>
  <speed>0.07071067811865475</speed>
  <fix>3d</fix>
</trkpt>
<trkpt lat="-27.2744389" lon="151.2900629">
  <ele>345.33</ele>
  <time>2026-09-01T19:50:46Z</time>
  <course>105.8</course>
  <speed>0.04</speed>
  <fix>3d</fix>
</trkpt>
<trkpt lat="-27.274439" lon="151.2900632">
  <ele>345.21</ele>
  <time>2026-09-01T19:50:46Z</time>
  <course>288.53</course>
  <speed>0.07071067811865475</speed>
  <fix>3d</fix>
</trkpt>
<trkpt lat="-27.274439" lon="151.2900632">
  <ele>345.17</ele>
  <time>2026-09-01T19:50:46Z</time>
  <course>288.48</course>
  <speed>0.07071067811865475</speed>
  <fix>3d</fix>
</trkpt>
<trkpt lat="-27.2744389" lon="151.2900629">
  <ele>345.33</ele>
  <time>2026-09-01T19:50:46Z</time>
  <course>105.8</course>
  <speed>0.04</speed>
  <fix>3d</fix>
</trkpt>
<trkpt lat="-27.274439" lon="151.2900632">
  <ele>345.16</ele>
  <time>2026-09-01T19:50:46Z</time>
  <course>288.45</course>
  <speed>0.07071067811865475</speed>
  <fix>3d</fix>
</trkpt>
<trkpt lat="-27.274439" lon="151.2900633">
  <ele>345.12</ele>
  <time>2026-09-01T19:50:46Z</time>
  <course>288.39</course>
  <speed>0.07071067811865475</speed>
  <fix>3d</fix>
</trkpt>
<trkpt lat="-27.274439" lon="151.290063">
  <ele>345.22</ele>
  <time>2026-09-01T19:50:46Z</time>
  <course>108.94</course>
  <speed>0.04</speed>
  <fix>3d</fix>
</trkpt>
<trkpt lat="-27.274439" lon="151.2900633">
  <ele>345.11</ele>
  <time>2026-09-01T19:50:46Z</time>
  <course>288.36</course>
  <speed>0.07071067811865475</speed>
  <fix>3d</fix>
</trkpt>
<trkpt lat="-27.274439" lon="151.2900633">
  <ele>345.07</ele>
  <time>2026-09-01T19:50:46Z</time>
  <course>288.29</course>
  <speed>0.06082762530298219</speed>
  <fix>3d</fix>
</trkpt>
<trkpt lat="-27.274439" lon="151.290063">
  <ele>345.22</ele>
  <time>2026-09-01T19:50:46Z</time>
  <course>108.94</course>
  <speed>0.04</speed>
  <fix>3d</fix>
</trkpt>
<trkpt lat="-27.274439" lon="151.2900633">
  <ele>345.07</ele>
  <time>2026-09-01T19:50:46Z</time>
  <course>288.29</course>
  <speed>0.06082762530298219</speed>
  <fix>3d</fix>
</trkpt>
<trkpt lat="-27.274439" lon="151.2900633">
  <ele>345.02</ele>
  <time>2026-09-01T19:50:46Z</time>
  <course>288.21</course>
  <speed>0.06082762530298219</speed>
  <fix>3d</fix>
</trkpt>
<trkpt lat="-27.274439" lon="151.290063">
  <ele>345.22</ele>
  <time>2026-09-01T19:50:46Z</time>
  <course>108.94</course>
  <speed>0.04</speed>
  <fix>3d</fix>
</trkpt>
<trkpt lat="-27.274439" lon="151.2900633">
  <ele>345.02</ele>
  <time>2026-09-01T19:50:46Z</time>
  <course>288.21</course>
  <speed>0.06082762530298219</speed>
  <fix>3d</fix>
</trkpt>
<trkpt lat="-27.274439" lon="151.2900634">
  <ele>344.97</ele>
  <time>2026-09-01T19:50:47Z</time>
  <course>288.14</course>
  <speed>0.06082762530298219</speed>
  <fix>3d</fix>
</trkpt>
<trkpt lat="-27.274439" lon="151.290063">
  <ele>345.13</ele>
  <time>2026-09-01T19:50:47Z</time>
  <course>108.95</course>
  <speed>0.03</speed>
  <fix>3d</fix>
</trkpt>
<trkpt lat="-27.274439" lon="151.2900634">
  <ele>344.96</ele>
  <time>2026-09-01T19:50:47Z</time>
  <course>288.13</course>
  <speed>0.06082762530298219</speed>
  <fix>3d</fix>
</trkpt>
<trkpt lat="-27.274439" lon="151.2900634">
  <ele>344.92</ele>
  <time>2026-09-01T19:50:47Z</time>
  <course>288.11</course>
  <speed>0.06082762530298219</speed>
  <fix>3d</fix>
</trkpt>
<trkpt lat="-27.274439" lon="151.290063">
  <ele>345.13</ele>
  <time>2026-09-01T19:50:47Z</time>
  <course>108.95</course>
  <speed>0.03</speed>
  <fix>3d</fix>
</trkpt>
<trkpt lat="-27.274439" lon="151.2900634">
  <ele>344.91</ele>
  <time>2026-09-01T19:50:47Z</time>
  <course>288.1</course>
  <speed>0.06082762530298219</speed>
  <fix>3d</fix>
</trkpt>
<trkpt lat="-27.274439" lon="151.2900634">
  <ele>344.87</ele>
  <time>2026-09-01T19:50:47Z</time>
  <course>288.1</course>
  <speed>0.06082762530298219</speed>
  <fix>3d</fix>
</trkpt>
<trkpt lat="-27.274439" lon="151.2900631">
  <ele>345.03</ele>
  <time>2026-09-01T19:50:47Z</time>
  <course>108.72</course>
  <speed>0.03</speed>
  <fix>3d</fix>
</trkpt>
<trkpt lat="-27.274439" lon="151.2900634">
  <ele>344.86</ele>
  <time>2026-09-01T19:50:47Z</time>
  <course>288.1</course>
  <speed>0.06082762530298219</speed>
  <fix>3d</fix>
</trkpt>
<trkpt lat="-27.274439" lon="151.2900635">
  <ele>344.82</ele>
  <time>2026-09-01T19:50:47Z</time>
  <course>288.11</course>
  <speed>0.06082762530298219</speed>
  <fix>3d</fix>
</trkpt>
<trkpt lat="-27.274439" lon="151.2900631">
  <ele>345.03</ele>
  <time>2026-09-01T19:50:47Z</time>
  <course>108.72</course>
  <speed>0.03</speed>
  <fix>3d</fix>
</trkpt>
<trkpt lat="-27.274439" lon="151.2900635">
  <ele>344.81</ele>
  <time>2026-09-01T19:50:47Z</time>
  <course>288.11</course>
  <speed>0.06082762530298219</speed>
  <fix>3d</fix>
</trkpt>
<trkpt lat="-27.274439" lon="151.2900635">
  <ele>344.77</ele>
  <time>2026-09-01T19:50:47Z</time>
  <course>288.12</course>
  <speed>0.06082762530298219</speed>
  <fix>3d</fix>
</trkpt>
<trkpt lat="-27.274439" lon="151.2900632">
  <ele>344.92</ele>
  <time>2026-09-01T19:50:47Z</time>
  <course>108.59</course>
  <speed>0.03</speed>
  <fix>3d</fix>
</trkpt>
<trkpt lat="-27.274439" lon="151.2900635">
  <ele>344.76</ele>
  <time>2026-09-01T19:50:47Z</time>
  <course>288.13</course>
  <speed>0.06082762530298219</speed>
  <fix>3d</fix>
</trkpt>
<trkpt lat="-27.274439" lon="151.2900635">
  <ele>344.72</ele>
  <time>2026-09-01T19:50:47Z</time>
  <course>288.14</course>
  <speed>0.06082762530298219</speed>
  <fix>3d</fix>
</trkpt>
<trkpt lat="-27.274439" lon="151.2900632">
  <ele>344.92</ele>
  <time>2026-09-01T19:50:47Z</time>
  <course>108.59</course>
  <speed>0.03</speed>
  <fix>3d</fix>
</trkpt>
<trkpt lat="-27.274439" lon="151.2900635">
  <ele>344.71</ele>
  <time>2026-09-01T19:50:47Z</time>
  <course>288.14</course>
  <speed>0.06082762530298219</speed>
  <fix>3d</fix>
</trkpt>
<trkpt lat="-27.274439" lon="151.2900635">
  <ele>344.67</ele>
  <time>2026-09-01T19:50:47Z</time>
  <course>288.15</course>
  <speed>0.05099019513592785</speed>
  <fix>3d</fix>
</trkpt>
<trkpt lat="-27.274439" lon="151.2900632">
  <ele>344.82</ele>
  <time>2026-09-01T19:50:47Z</time>
  <course>108.5</course>
  <speed>0.03</speed>
  <fix>3d</fix>
</trkpt>
<trkpt lat="-27.274439" lon="151.2900636">
  <ele>344.66</ele>
  <time>2026-09-01T19:50:47Z</time>
  <course>288.16</course>
  <speed>0.05099019513592785</speed>
  <fix>3d</fix>
</trkpt>
<trkpt lat="-27.274439" lon="151.2900636">
  <ele>344.62</ele>
  <time>2026-09-01T19:50:47Z</time>
  <course>288.16</course>
  <speed>0.05099019513592785</speed>
  <fix>3d</fix>
</trkpt>
<trkpt lat="-27.274439" lon="151.2900632">
  <ele>344.82</ele>
  <time>2026-09-01T19:50:47Z</time>
  <course>108.5</course>
  <speed>0.03</speed>
  <fix>3d</fix>
</trkpt>
<trkpt lat="-27.274439" lon="151.2900636">
  <ele>344.61</ele>
  <time>2026-09-01T19:50:47Z</time>
  <course>288.17</course>
  <speed>0.05099019513592785</speed>
  <fix>3d</fix>
</trkpt>
<trkpt lat="-27.274439" lon="151.2900636">
  <ele>344.57</ele>
  <time>2026-09-01T19:50:47Z</time>
  <course>288.17</course>
  <speed>0.05</speed>
  <fix>3d</fix>
</trkpt>
<trkpt lat="-27.274439" lon="151.2900633">
  <ele>344.72</ele>
  <time>2026-09-01T19:50:47Z</time>
  <course>108.53</course>
  <speed>0.02</speed>
  <fix>3d</fix>
</trkpt>
<trkpt lat="-27.274439" lon="151.2900636">
  <ele>344.57</ele>
  <time>2026-09-01T19:50:47Z</time>
  <course>288.17</course>
  <speed>0.05</speed>
  <fix>3d</fix>
</trkpt>
<trkpt lat="-27.2744391" lon="151.2900636">
  <ele>344.52</ele>
  <time>2026-09-01T19:50:47Z</time>
  <course>288.18</course>
  <speed>0.05</speed>
  <fix>3d</fix>
</trkpt>
<trkpt lat="-27.274439" lon="151.2900633">
  <ele>344.72</ele>
  <time>2026-09-01T19:50:47Z</time>
  <course>108.53</course>
  <speed>0.02</speed>
  <fix>3d</fix>
</trkpt>
<trkpt lat="-27.2744391" lon="151.2900636">
  <ele>344.52</ele>
  <time>2026-09-01T19:50:47Z</time>
  <course>288.18</course>
  <speed>0.05</speed>
  <fix>3d</fix>
</trkpt>
<trkpt lat="-27.2744391" lon="151.2900636">
  <ele>344.47</ele>
  <time>2026-09-01T19:50:47Z</time>
  <course>288.17</course>
  <speed>0.05</speed>
  <fix>3d</fix>
</trkpt>
<trkpt lat="-27.274439" lon="151.2900633">
  <ele>344.62</ele>
  <time>2026-09-01T19:50:47Z</time>
  <course>108.72</course>
  <speed>0.02</speed>
  <fix>3d</fix>
</trkpt>
<trkpt lat="-27.2744391" lon="151.2900636">
  <ele>344.46</ele>
  <time>2026-09-01T19:50:47Z</time>
  <course>288.17</course>
  <speed>0.05</speed>
  <fix>3d</fix>
</trkpt>
<trkpt lat="-27.2744391" lon="151.2900637">
  <ele>344.42</ele>
  <time>2026-09-01T19:50:47Z</time>
  <course>288.17</course>
  <speed>0.05</speed>
  <fix>3d</fix>
</trkpt>
<trkpt lat="-27.274439" lon="151.2900633">
  <ele>344.62</ele>
  <time>2026-09-01T19:50:47Z</time>
  <course>108.72</course>
  <speed>0.02</speed>
  <fix>3d</fix>
</trkpt>
<trkpt lat="-27.2744391" lon="151.2900637">
  <ele>344.42</ele>
  <time>2026-09-01T19:50:47Z</time>
  <course>288.17</course>
  <speed>0.05</speed>
  <fix>3d</fix>
</trkpt>
<trkpt lat="-27.274439" lon="151.2900637">
  <ele>344.37</ele>
  <time>2026-09-01T19:50:47Z</time>
  <course>288.16</course>
  <speed>0.04</speed>
  <fix>3d</fix>
</trkpt>
<trkpt lat="-27.274439" lon="151.2900634">
  <ele>344.52</ele>
  <time>2026-09-01T19:50:47Z</time>
  <course>108.71</course>
  <speed>0.02</speed>
  <fix>3d</fix>
</trkpt>
<trkpt lat="-27.274439" lon="151.2900637">
  <ele>344.37</ele>
  <time>2026-09-01T19:50:47Z</time>
  <course>288.16</course>
  <speed>0.04</speed>
  <fix>3d</fix>
</trkpt>
<trkpt lat="-27.274439" lon="151.2900637">
  <ele>344.32</ele>
  <time>2026-09-01T19:50:47Z</time>
  <course>288.16</course>
  <speed>0.04</speed>
  <fix>3d</fix>
</trkpt>
<trkpt lat="-27.274439" lon="151.2900634">
  <ele>344.52</ele>
  <time>2026-09-01T19:50:47Z</time>
  <course>108.71</course>
  <speed>0.02</speed>
  <fix>3d</fix>
</trkpt>
<trkpt lat="-27.274439" lon="151.2900637">
  <ele>344.31</ele>
  <time>2026-09-01T19:50:47Z</time>
  <course>288.15</course>
  <speed>0.04</speed>
  <fix>3d</fix>
</trkpt>
<trkpt lat="-27.274439" lon="151.2900637">
  <ele>344.27</ele>
  <time>2026-09-01T19:50:47Z</time>
  <course>288.15</course>
  <speed>0.04</speed>
  <fix>3d</fix>
</trkpt>
<trkpt lat="-27.274439" lon="151.2900635">
  <ele>344.41</ele>
  <time>2026-09-01T19:50:47Z</time>
  <course>108.71</course>
  <speed>0.02</speed>
  <fix>3d</fix>
</trkpt>
<trkpt lat="-27.274439" lon="151.2900637">
  <ele>344.25</ele>
  <time>2026-09-01T19:50:47Z</time>
  <course>288.15</course>
  <speed>0.04</speed>
  <fix>3d</fix>
</trkpt>
<trkpt lat="-27.274439" lon="151.2900637">
  <ele>344.22</ele>
  <time>2026-09-01T19:50:47Z</time>
  <course>288.14</course>
  <speed>0.04</speed>
  <fix>3d</fix>
</trkpt>
<trkpt lat="-27.274439" lon="151.2900635">
  <ele>344.32</ele>
  <time>2026-09-01T19:50:47Z</time>
  <course>108.53</course>
  <speed>0.01</speed>
  <fix>3d</fix>
</trkpt>
<trkpt lat="-27.274439" lon="151.2900637">
  <ele>344.2</ele>
  <time>2026-09-01T19:50:47Z</time>
  <course>288.14</course>
  <speed>0.04</speed>
  <fix>3d</fix>
</trkpt>
<trkpt lat="-27.274439" lon="151.2900637">
  <ele>344.17</ele>
  <time>2026-09-01T19:50:47Z</time>
  <course>288.14</course>
  <speed>0.04</speed>
  <fix>3d</fix>
</trkpt>
<trkpt lat="-27.274439" lon="151.2900635">
  <ele>344.32</ele>
  <time>2026-09-01T19:50:47Z</time>
  <course>108.53</course>
  <speed>0.01</speed>
  <fix>3d</fix>
</trkpt>
<trkpt lat="-27.274439" lon="151.2900637">
  <ele>344.15</ele>
  <time>2026-09-01T19:50:47Z</time>
  <course>288.14</course>
  <speed>0.04</speed>
  <fix>3d</fix>
</trkpt>
<trkpt lat="-27.274439" lon="151.2900637">
  <ele>344.12</ele>
  <time>2026-09-01T19:50:47Z</time>
  <course>288.13</course>
  <speed>0.04</speed>
  <fix>3d</fix>
</trkpt>
<trkpt lat="-27.274439" lon="151.2900636">
  <ele>344.22</ele>
  <time>2026-09-01T19:50:47Z</time>
  <course>108.45</course>
  <speed>0.01</speed>
  <fix>3d</fix>
</trkpt>
<trkpt lat="-27.274439" lon="151.2900637">
  <ele>344.1</ele>
  <time>2026-09-01T19:50:47Z</time>
  <course>288.13</course>
  <speed>0.04</speed>
  <fix>3d</fix>
</trkpt>
<trkpt lat="-27.274439" lon="151.2900638">
  <ele>344.07</ele>
  <time>2026-09-01T19:50:47Z</time>
  <course>288.13</course>
  <speed>0.03</speed>
  <fix>3d</fix>
</trkpt>
<trkpt lat="-27.274439" lon="151.2900636">
  <ele>344.22</ele>
  <time>2026-09-01T19:50:47Z</time>
  <course>108.45</course>
  <speed>0.01</speed>
  <fix>3d</fix>
</trkpt>
<trkpt lat="-27.274439" lon="151.2900638">
  <ele>344.02</ele>
  <time>2026-09-01T19:50:47Z</time>
  <course>288.12</course>
  <speed>0.03</speed>
  <fix>3d</fix>
</trkpt>
<trkpt lat="-27.274439" lon="151.2900636">
  <ele>344.22</ele>
  <time>2026-09-01T19:50:47Z</time>
  <course>108.45</course>
  <speed>0.01</speed>
  <fix>3d</fix>
</trkpt>
<trkpt lat="-27.274439" lon="151.2900638">
  <ele>343.97</ele>
  <time>2026-09-01T19:50:47Z</time>
  <course>288.11</course>
  <speed>0.03</speed>
  <fix>3d</fix>
</trkpt>
<trkpt lat="-27.274439" lon="151.2900636">
  <ele>344.11</ele>
  <time>2026-09-01T19:50:47Z</time>
  <course>108.76</course>
  <speed>0.01</speed>
  <fix>3d</fix>
</trkpt>
<trkpt lat="-27.274439" lon="151.2900638">
  <ele>343.92</ele>
  <time>2026-09-01T19:50:47Z</time>
  <course>288.1</course>
  <speed>0.03</speed>
  <fix>3d</fix>
</trkpt>
<trkpt lat="-27.274439" lon="151.2900636">
  <ele>344.11</ele>
  <time>2026-09-01T19:50:47Z</time>
  <course>108.76</course>
  <speed>0.01</speed>
  <fix>3d</fix>
</trkpt>
<trkpt lat="-27.274439" lon="151.2900638">
  <ele>343.87</ele>
  <time>2026-09-01T19:50:47Z</time>
  <course>288.1</course>
  <speed>0.03</speed>
  <fix>3d</fix>
</trkpt>
<trkpt lat="-27.274439" lon="151.2900636">
  <ele>344.01</ele>
  <time>2026-09-01T19:50:47Z</time>
  <course>108.99</course>
  <speed>0.0</speed>
  <fix>3d</fix>
</trkpt>
<trkpt lat="-27.274439" lon="151.2900638">
  <ele>343.82</ele>
  <time>2026-09-01T19:50:47Z</time>
  <course>288.09</course>
  <speed>0.03</speed>
  <fix>3d</fix>
</trkpt>
<trkpt lat="-27.274439" lon="151.2900636">
  <ele>344.01</ele>
  <time>2026-09-01T19:50:47Z</time>
  <course>108.99</course>
  <speed>0.0</speed>
  <fix>3d</fix>
</trkpt>
<trkpt lat="-27.274439" lon="151.2900638">
  <ele>343.77</ele>
  <time>2026-09-01T19:50:47Z</time>
  <course>288.07</course>
  <speed>0.02</speed>
  <fix>3d</fix>
</trkpt>
<trkpt lat="-27.2744391" lon="151.2900636">
  <ele>343.9</ele>
  <time>2026-09-01T19:50:47Z</time>
  <course>107.01</course>
  <speed>0.0</speed>
  <fix>3d</fix>
</trkpt>
<trkpt lat="-27.274439" lon="151.2900638">
  <ele>343.72</ele>
  <time>2026-09-01T19:50:47Z</time>
  <course>288.05</course>
  <speed>0.02</speed>
  <fix>3d</fix>
</trkpt>
<trkpt lat="-27.2744391" lon="151.2900636">
  <ele>343.9</ele>
  <time>2026-09-01T19:50:47Z</time>
  <course>107.01</course>
  <speed>0.0</speed>
  <fix>3d</fix>
</trkpt>
<trkpt lat="-27.274439" lon="151.2900638">
  <ele>343.67</ele>
  <time>2026-09-01T19:50:47Z</time>
  <course>288.02</course>
  <speed>0.02</speed>
  <fix>3d</fix>
</trkpt>
<trkpt lat="-27.2744391" lon="151.2900636">
  <ele>343.81</ele>
  <time>2026-09-01T19:50:47Z</time>
  <course>278.74</course>
  <speed>0.0</speed>
  <fix>3d</fix>
</trkpt>
<trkpt lat="-27.274439" lon="151.2900638">
  <ele>343.62</ele>
  <time>2026-09-01T19:50:47Z</time>
  <course>288.0</course>
  <speed>0.02</speed>
  <fix>3d</fix>
</trkpt>
<trkpt lat="-27.2744391" lon="151.2900636">
  <ele>343.81</ele>
  <time>2026-09-01T19:50:47Z</time>
  <course>278.74</course>
  <speed>0.0</speed>
  <fix>3d</fix>
</trkpt>
<trkpt lat="-27.274439" lon="151.2900638">
  <ele>343.57</ele>
  <time>2026-09-01T19:50:47Z</time>
  <course>287.99</course>
  <speed>0.02</speed>
  <fix>3d</fix>
</trkpt>
<trkpt lat="-27.2744391" lon="151.2900636">
  <ele>343.71</ele>
  <time>2026-09-01T19:50:47Z</time>
  <course>274.65</course>
  <speed>0.0</speed>
  <fix>3d</fix>
</trkpt>
<trkpt lat="-27.274439" lon="151.2900638">
  <ele>343.52</ele>
  <time>2026-09-01T19:50:47Z</time>
  <course>287.98</course>
  <speed>0.02</speed>
  <fix>3d</fix>
</trkpt>
<trkpt lat="-27.2744391" lon="151.2900636">
  <ele>343.71</ele>
  <time>2026-09-01T19:50:47Z</time>
  <course>274.65</course>
  <speed>0.0</speed>
  <fix>3d</fix>
</trkpt>
<trkpt lat="-27.274439" lon="151.2900638">
  <ele>343.47</ele>
  <time>2026-09-01T19:50:47Z</time>
  <course>287.98</course>
  <speed>0.02</speed>
  <fix>3d</fix>
</trkpt>
<trkpt lat="-27.2744391" lon="151.2900636">
  <ele>343.61</ele>
  <time>2026-09-01T19:50:47Z</time>
  <course>268.92</course>
  <speed>0.0</speed>
  <fix>3d</fix>
</trkpt>
<trkpt lat="-27.274439" lon="151.2900638">
  <ele>343.42</ele>
  <time>2026-09-01T19:50:47Z</time>
  <course>287.99</course>
  <speed>0.02</speed>
  <fix>3d</fix>
</trkpt>
<trkpt lat="-27.2744391" lon="151.2900636">
  <ele>343.61</ele>
  <time>2026-09-01T19:50:47Z</time>
  <course>268.92</course>
  <speed>0.0</speed>
  <fix>3d</fix>
</trkpt>
<trkpt lat="-27.274439" lon="151.2900638">
  <ele>343.37</ele>
  <time>2026-09-01T19:50:47Z</time>
  <course>287.99</course>
  <speed>0.02</speed>
  <fix>3d</fix>
</trkpt>
<trkpt lat="-27.2744391" lon="151.2900636">
  <ele>343.51</ele>
  <time>2026-09-01T19:50:47Z</time>
  <course>263.69</course>
  <speed>0.0</speed>
  <fix>3d</fix>
</trkpt>
<trkpt lat="-27.274439" lon="151.2900638">
  <ele>343.32</ele>
  <time>2026-09-01T19:50:47Z</time>
  <course>288.0</course>
  <speed>0.02</speed>
  <fix>3d</fix>
</trkpt>
<trkpt lat="-27.2744391" lon="151.2900636">
  <ele>343.51</ele>
  <time>2026-09-01T19:50:47Z</time>
  <course>263.69</course>
  <speed>0.0</speed>
  <fix>3d</fix>
</trkpt>
<trkpt lat="-27.274439" lon="151.2900638">
  <ele>343.26</ele>
  <time>2026-09-01T19:50:47Z</time>
  <course>288.0</course>
  <speed>0.02</speed>
  <fix>3d</fix>
</trkpt>
<trkpt lat="-27.2744391" lon="151.2900636">
  <ele>343.4</ele>
  <time>2026-09-01T19:50:47Z</time>
  <course>260.09</course>
  <speed>0.0</speed>
  <fix>3d</fix>
</trkpt>
<trkpt lat="-27.274439" lon="151.2900638">
  <ele>343.21</ele>
  <time>2026-09-01T19:50:47Z</time>
  <course>288.01</course>
  <speed>0.01</speed>
  <fix>3d</fix>
</trkpt>
<trkpt lat="-27.2744391" lon="151.2900636">
  <ele>343.4</ele>
  <time>2026-09-01T19:50:47Z</time>
  <course>260.09</course>
  <speed>0.0</speed>
  <fix>3d</fix>
</trkpt>
<trkpt lat="-27.274439" lon="151.2900638">
  <ele>343.17</ele>
  <time>2026-09-01T19:50:47Z</time>
  <course>288.02</course>
  <speed>0.01</speed>
  <fix>3d</fix>
</trkpt>
<trkpt lat="-27.2744391" lon="151.2900636">
  <ele>343.31</ele>
  <time>2026-09-01T19:50:47Z</time>
  <course>257.5</course>
  <speed>0.01</speed>
  <fix>3d</fix>
</trkpt>
<trkpt lat="-27.274439" lon="151.2900638">
  <ele>343.12</ele>
  <time>2026-09-01T19:50:47Z</time>
  <course>288.02</course>
  <speed>0.01</speed>
  <fix>3d</fix>
</trkpt>
<trkpt lat="-27.2744391" lon="151.2900636">
  <ele>343.31</ele>
  <time>2026-09-01T19:50:47Z</time>
  <course>257.5</course>
  <speed>0.01</speed>
  <fix>3d</fix>
</trkpt>
<trkpt lat="-27.274439" lon="151.2900638">
  <ele>343.07</ele>
  <time>2026-09-01T19:50:47Z</time>
  <course>288.01</course>
  <speed>0.01</speed>
  <fix>3d</fix>
</trkpt>
<trkpt lat="-27.2744391" lon="151.2900636">
  <ele>343.21</ele>
  <time>2026-09-01T19:50:47Z</time>
  <course>256.04</course>
  <speed>0.01</speed>
  <fix>3d</fix>
</trkpt>
<trkpt lat="-27.274439" lon="151.2900638">
  <ele>343.03</ele>
  <time>2026-09-01T19:50:47Z</time>
  <course>288.01</course>
  <speed>0.02</speed>
  <fix>3d</fix>
</trkpt>
<trkpt lat="-27.2744391" lon="151.2900636">
  <ele>343.21</ele>
  <time>2026-09-01T19:50:47Z</time>
  <course>256.04</course>
  <speed>0.01</speed>
  <fix>3d</fix>
</trkpt>
<trkpt lat="-27.274439" lon="151.2900638">
  <ele>343.04</ele>
  <time>2026-09-01T19:50:47Z</time>
  <course>288.01</course>
  <speed>0.03</speed>
  <fix>3d</fix>
</trkpt>
<trkpt lat="-27.2744391" lon="151.2900636">
  <ele>343.11</ele>
  <time>2026-09-01T19:50:47Z</time>
  <course>255.66</course>
  <speed>0.0</speed>
  <fix>3d</fix>
</trkpt>
<trkpt lat="-27.274439" lon="151.2900638">
  <ele>343.06</ele>
  <time>2026-09-01T19:50:47Z</time>
  <course>288.01</course>
  <speed>0.03</speed>
  <fix>3d</fix>
</trkpt>
<trkpt lat="-27.2744391" lon="151.2900636">
  <ele>343.11</ele>
  <time>2026-09-01T19:50:47Z</time>
  <course>255.66</course>
  <speed>0.0</speed>
  <fix>3d</fix>
</trkpt>
<trkpt lat="-27.274439" lon="151.2900638">
  <ele>343.07</ele>
  <time>2026-09-01T19:50:47Z</time>
  <course>288.01</course>
  <speed>0.03</speed>
  <fix>3d</fix>
</trkpt>
<trkpt lat="-27.2744391" lon="151.2900636">
  <ele>343.08</ele>
  <time>2026-09-01T19:50:47Z</time>
  <course>75.05</course>
  <speed>0.0</speed>
  <fix>3d</fix>
</trkpt>
<trkpt lat="-27.274439" lon="151.2900638">
  <ele>343.07</ele>
  <time>2026-09-01T19:50:47Z</time>
  <course>288.01</course>
  <speed>0.03</speed>
  <fix>3d</fix>
</trkpt>
<trkpt lat="-27.2744391" lon="151.2900636">
  <ele>343.08</ele>
  <time>2026-09-01T19:50:47Z</time>
  <course>75.05</course>
  <speed>0.0</speed>
  <fix>3d</fix>
</trkpt>
<trkpt lat="-27.274439" lon="151.2900638">
  <ele>343.07</ele>
  <time>2026-09-01T19:50:47Z</time>
  <course>288.01</course>
  <speed>0.03</speed>
  <fix>3d</fix>
</trkpt>
<trkpt lat="-27.2744391" lon="151.2900636">
  <ele>343.09</ele>
  <time>2026-09-01T19:50:47Z</time>
  <course>75.71</course>
  <speed>0.0</speed>
  <fix>3d</fix>
</trkpt>
<trkpt lat="-27.274439" lon="151.2900638">
  <ele>343.07</ele>
  <time>2026-09-01T19:50:47Z</time>
  <course>288.01</course>
  <speed>0.03</speed>
  <fix>3d</fix>
</trkpt>
<trkpt lat="-27.2744391" lon="151.2900636">
  <ele>343.09</ele>
  <time>2026-09-01T19:50:47Z</time>
  <course>75.71</course>
  <speed>0.0</speed>
  <fix>3d</fix>
</trkpt>
<trkpt lat="-27.274439" lon="151.2900638">
  <ele>343.07</ele>
  <time>2026-09-01T19:50:47Z</time>
  <course>288.02</course>
  <speed>0.03</speed>
  <fix>3d</fix>
</trkpt>
<trkpt lat="-27.2744391" lon="151.2900636">
  <ele>343.1</ele>
  <time>2026-09-01T19:50:47Z</time>
  <course>255.71</course>
  <speed>0.0</speed>
  <fix>3d</fix>
</trkpt>
<trkpt lat="-27.274439" lon="151.2900638">
  <ele>343.07</ele>
  <time>2026-09-01T19:50:47Z</time>
  <course>288.02</course>
  <speed>0.03</speed>
  <fix>3d</fix>
</trkpt>
<trkpt lat="-27.2744391" lon="151.2900636">
  <ele>343.1</ele>
  <time>2026-09-01T19:50:47Z</time>
  <course>255.71</course>
  <speed>0.0</speed>
  <fix>3d</fix>
</trkpt>
<trkpt lat="-27.274439" lon="151.2900638">
  <ele>343.07</ele>
  <time>2026-09-01T19:50:47Z</time>
  <course>288.02</course>
  <speed>0.03</speed>
  <fix>3d</fix>
</trkpt>
<trkpt lat="-27.2744391" lon="151.2900636">
  <ele>343.09</ele>
  <time>2026-09-01T19:50:47Z</time>
  <course>255.73</course>
  <speed>0.0</speed>
  <fix>3d</fix>
</trkpt>
<trkpt lat="-27.274439" lon="151.2900638">
  <ele>343.07</ele>
  <time>2026-09-01T19:50:47Z</time>
  <course>288.02</course>
  <speed>0.03</speed>
  <fix>3d</fix>
</trkpt>
<trkpt lat="-27.2744391" lon="151.2900636">
  <ele>343.09</ele>
  <time>2026-09-01T19:50:47Z</time>
  <course>255.73</course>
  <speed>0.0</speed>
  <fix>3d</fix>
</trkpt>
<trkpt lat="-27.274439" lon="151.2900638">
  <ele>343.07</ele>
  <time>2026-09-01T19:50:47Z</time>
  <course>288.02</course>
  <speed>0.03</speed>
  <fix>3d</fix>
</trkpt>
<trkpt lat="-27.2744391" lon="151.2900636">
  <ele>343.09</ele>
  <time>2026-09-01T19:50:47Z</time>
  <course>75.65</course>
  <speed>0.0</speed>
  <fix>3d</fix>
</trkpt>
<trkpt lat="-27.274439" lon="151.2900638">
  <ele>343.08</ele>
  <time>2026-09-01T19:50:47Z</time>
  <course>288.02</course>
  <speed>0.03</speed>
  <fix>3d</fix>
</trkpt>
<trkpt lat="-27.2744391" lon="151.2900636">
  <ele>343.09</ele>
  <time>2026-09-01T19:50:47Z</time>
  <course>75.65</course>
  <speed>0.0</speed>
  <fix>3d</fix>
</trkpt>
<trkpt lat="-27.274439" lon="151.2900638">
  <ele>343.08</ele>
  <time>2026-09-01T19:50:47Z</time>
  <course>288.02</course>
  <speed>0.03</speed>
  <fix>3d</fix>
</trkpt>
<trkpt lat="-27.2744391" lon="151.2900636">
  <ele>343.09</ele>
  <time>2026-09-01T19:50:47Z</time>
  <course>75.62</course>
  <speed>0.0</speed>
  <fix>3d</fix>
</trkpt>
<trkpt lat="-27.274439" lon="151.2900638">
  <ele>343.08</ele>
  <time>2026-09-01T19:50:47Z</time>
  <course>288.02</course>
  <speed>0.03</speed>
  <fix>3d</fix>
</trkpt>
<trkpt lat="-27.2744391" lon="151.2900636">
  <ele>343.09</ele>
  <time>2026-09-01T19:50:47Z</time>
  <course>75.62</course>
  <speed>0.0</speed>
  <fix>3d</fix>
</trkpt>
<trkpt lat="-27.274439" lon="151.2900638">
  <ele>343.08</ele>
  <time>2026-09-01T19:50:47Z</time>
  <course>288.02</course>
  <speed>0.03</speed>
  <fix>3d</fix>
</trkpt>
<trkpt lat="-27.2744391" lon="151.2900636">
  <ele>343.09</ele>
  <time>2026-09-01T19:50:47Z</time>
  <course>255.89</course>
  <speed>0.0</speed>
  <fix>3d</fix>
</trkpt>
<trkpt lat="-27.274439" lon="151.2900638">
  <ele>343.08</ele>
  <time>2026-09-01T19:50:47Z</time>
  <course>288.02</course>
  <speed>0.03</speed>
  <fix>3d</fix>
</trkpt>
<trkpt lat="-27.2744391" lon="151.2900636">
  <ele>343.09</ele>
  <time>2026-09-01T19:50:47Z</time>
  <course>255.89</course>
  <speed>0.0</speed>
  <fix>3d</fix>
</trkpt>
<trkpt lat="-27.274439" lon="151.2900638">
  <ele>343.08</ele>
  <time>2026-09-01T19:50:47Z</time>
  <course>288.02</course>
  <speed>0.03</speed>
  <fix>3d</fix>
</trkpt>
<trkpt lat="-27.2744391" lon="151.2900636">
  <ele>343.09</ele>
  <time>2026-09-01T19:50:47Z</time>
  <course>256.17</course>
  <speed>0.0</speed>
  <fix>3d</fix>
</trkpt>
<trkpt lat="-27.274439" lon="151.2900638">
  <ele>343.08</ele>
  <time>2026-09-01T19:50:47Z</time>
  <course>288.02</course>
  <speed>0.03</speed>
  <fix>3d</fix>
</trkpt>
<trkpt lat="-27.2744391" lon="151.2900636">
  <ele>343.09</ele>
  <time>2026-09-01T19:50:47Z</time>
  <course>256.17</course>
  <speed>0.0</speed>
  <fix>3d</fix>
</trkpt>
<trkpt lat="-27.274439" lon="151.2900638">
  <ele>343.08</ele>
  <time>2026-09-01T19:50:47Z</time>
  <course>288.02</course>
  <speed>0.03</speed>
  <fix>3d</fix>
</trkpt>
<trkpt lat="-27.2744391" lon="151.2900636">
  <ele>343.09</ele>
  <time>2026-09-01T19:50:47Z</time>
  <course>75.38</course>
  <speed>0.0</speed>
  <fix>3d</fix>
</trkpt>
<trkpt lat="-27.274439" lon="151.2900638">
  <ele>343.08</ele>
  <time>2026-09-01T19:50:47Z</time>
  <course>288.02</course>
  <speed>0.03</speed>
  <fix>3d</fix>
</trkpt>
<trkpt lat="-27.2744391" lon="151.2900636">
  <ele>343.09</ele>
  <time>2026-09-01T19:50:47Z</time>
  <course>75.38</course>
  <speed>0.0</speed>
  <fix>3d</fix>
</trkpt>
<trkpt lat="-27.274439" lon="151.2900638">
  <ele>343.08</ele>
  <time>2026-09-01T19:50:47Z</time>
  <course>288.02</course>
  <speed>0.03</speed>
  <fix>3d</fix>
</trkpt>
<trkpt lat="-27.2744391" lon="151.2900636">
  <ele>343.09</ele>
  <time>2026-09-01T19:50:47Z</time>
  <course>64.82</course>
  <speed>0.0</speed>
  <fix>3d</fix>
</trkpt>
<trkpt lat="-27.274439" lon="151.2900638">
  <ele>343.08</ele>
  <time>2026-09-01T19:50:47Z</time>
  <course>288.02</course>
  <speed>0.03</speed>
  <fix>3d</fix>
</trkpt>
<trkpt lat="-27.2744391" lon="151.2900636">
  <ele>343.09</ele>
  <time>2026-09-01T19:50:47Z</time>
  <course>64.82</course>
  <speed>0.0</speed>
  <fix>3d</fix>
</trkpt>
<trkpt lat="-27.274439" lon="151.2900638">
  <ele>343.07</ele>
  <time>2026-09-01T19:50:47Z</time>
  <course>288.02</course>
  <speed>0.03</speed>
  <fix>3d</fix>
</trkpt>
<trkpt lat="-27.2744391" lon="151.2900636">
  <ele>343.09</ele>
  <time>2026-09-01T19:50:47Z</time>
  <course>259.26</course>
  <speed>0.0</speed>
  <fix>3d</fix>
</trkpt>
<trkpt lat="-27.274439" lon="151.2900638">
  <ele>343.07</ele>
  <time>2026-09-01T19:50:47Z</time>
  <course>288.02</course>
  <speed>0.03</speed>
  <fix>3d</fix>
</trkpt>
<trkpt lat="-27.2744391" lon="151.2900636">
  <ele>343.09</ele>
  <time>2026-09-01T19:50:47Z</time>
  <course>259.26</course>
  <speed>0.0</speed>
  <fix>3d</fix>
</trkpt>
<trkpt lat="-27.274439" lon="151.2900638">
  <ele>343.07</ele>
  <time>2026-09-01T19:50:47Z</time>
  <course>288.02</course>
  <speed>0.03</speed>
  <fix>3d</fix>
</trkpt>
<trkpt lat="-27.2744391" lon="151.2900636">
  <ele>343.09</ele>
  <time>2026-09-01T19:50:47Z</time>
  <course>83.53</course>
  <speed>0.0</speed>
  <fix>3d</fix>
</trkpt>
<trkpt lat="-27.274439" lon="151.2900638">
  <ele>343.07</ele>
  <time>2026-09-01T19:50:47Z</time>
  <course>288.02</course>
  <speed>0.03</speed>
  <fix>3d</fix>
</trkpt>
<trkpt lat="-27.2744391" lon="151.2900636">
  <ele>343.09</ele>
  <time>2026-09-01T19:50:47Z</time>
  <course>83.53</course>
  <speed>0.0</speed>
  <fix>3d</fix>
</trkpt>
<trkpt lat="-27.274439" lon="151.2900638">
  <ele>343.07</ele>
  <time>2026-09-01T19:50:47Z</time>
  <course>288.02</course>
  <speed>0.02</speed>
  <fix>3d</fix>
</trkpt>
<trkpt lat="-27.2744391" lon="151.2900636">
  <ele>343.09</ele>
  <time>2026-09-01T19:50:47Z</time>
  <course>83.19</course>
  <speed>0.0</speed>
  <fix>3d</fix>
</trkpt>
<trkpt lat="-27.274439" lon="151.2900638">
  <ele>343.07</ele>
  <time>2026-09-01T19:50:47Z</time>
  <course>288.02</course>
  <speed>0.02</speed>
  <fix>3d</fix>
</trkpt>
<trkpt lat="-27.2744391" lon="151.2900636">
  <ele>343.09</ele>
  <time>2026-09-01T19:50:47Z</time>
  <course>83.19</course>
  <speed>0.0</speed>
  <fix>3d</fix>
</trkpt>
<trkpt lat="-27.274439" lon="151.2900638">
  <ele>343.07</ele>
  <time>2026-09-01T19:50:47Z</time>
  <course>288.02</course>
  <speed>0.02</speed>
  <fix>3d</fix>
</trkpt>
<trkpt lat="-27.2744391" lon="151.2900636">
  <ele>343.09</ele>
  <time>2026-09-01T19:50:47Z</time>
  <course>71.67</course>
  <speed>0.0</speed>
  <fix>3d</fix>
</trkpt>
<trkpt lat="-27.274439" lon="151.2900638">
  <ele>343.07</ele>
  <time>2026-09-01T19:50:47Z</time>
  <course>288.02</course>
  <speed>0.02</speed>
  <fix>3d</fix>
</trkpt>
<trkpt lat="-27.2744391" lon="151.2900636">
  <ele>343.09</ele>
  <time>2026-09-01T19:50:47Z</time>
  <course>71.67</course>
  <speed>0.0</speed>
  <fix>3d</fix>
</trkpt>
<trkpt lat="-27.274439" lon="151.2900638">
  <ele>343.07</ele>
  <time>2026-09-01T19:50:47Z</time>
  <course>288.02</course>
  <speed>0.02</speed>
  <fix>3d</fix>
</trkpt>
<trkpt lat="-27.2744391" lon="151.2900636">
  <ele>343.09</ele>
  <time>2026-09-01T19:50:47Z</time>
  <course>61.01</course>
  <speed>0.0</speed>
  <fix>3d</fix>
</trkpt>
<trkpt lat="-27.274439" lon="151.2900638">
  <ele>343.07</ele>
  <time>2026-09-01T19:50:47Z</time>
  <course>288.02</course>
  <speed>0.02</speed>
  <fix>3d</fix>
</trkpt>
<trkpt lat="-27.2744391" lon="151.2900636">
  <ele>343.09</ele>
  <time>2026-09-01T19:50:47Z</time>
  <course>61.01</course>
  <speed>0.0</speed>
  <fix>3d</fix>
</trkpt>
<trkpt lat="-27.274439" lon="151.2900638">
  <ele>343.08</ele>
  <time>2026-09-01T19:50:47Z</time>
  <course>288.03</course>
  <speed>0.02</speed>
  <fix>3d</fix>
</trkpt>
<trkpt lat="-27.2744391" lon="151.2900636">
  <ele>343.09</ele>
  <time>2026-09-01T19:50:47Z</time>
  <course>65.04</course>
  <speed>0.0</speed>
  <fix>3d</fix>
</trkpt>
<trkpt lat="-27.274439" lon="151.2900638">
  <ele>343.08</ele>
  <time>2026-09-01T19:50:47Z</time>
  <course>288.03</course>
  <speed>0.02</speed>
  <fix>3d</fix>
</trkpt>
<trkpt lat="-27.2744391" lon="151.2900636">
  <ele>343.09</ele>
  <time>2026-09-01T19:50:47Z</time>
  <course>65.04</course>
  <speed>0.0</speed>
  <fix>3d</fix>
</trkpt>
<trkpt lat="-27.274439" lon="151.2900638">
  <ele>343.08</ele>
  <time>2026-09-01T19:50:47Z</time>
  <course>288.03</course>
  <speed>0.02</speed>
  <fix>3d</fix>
</trkpt>
<trkpt lat="-27.2744391" lon="151.2900636">
  <ele>343.09</ele>
  <time>2026-09-01T19:50:47Z</time>
  <course>69.3</course>
  <speed>0.0</speed>
  <fix>3d</fix>
</trkpt>
<trkpt lat="-27.274439" lon="151.2900638">
  <ele>343.08</ele>
  <time>2026-09-01T19:50:47Z</time>
  <course>288.03</course>
  <speed>0.02</speed>
  <fix>3d</fix>
</trkpt>
<trkpt lat="-27.2744391" lon="151.2900636">
  <ele>343.09</ele>
  <time>2026-09-01T19:50:47Z</time>
  <course>69.3</course>
  <speed>0.0</speed>
  <fix>3d</fix>
</trkpt>
<trkpt lat="-27.274439" lon="151.2900638">
  <ele>343.08</ele>
  <time>2026-09-01T19:50:47Z</time>
  <course>288.03</course>
  <speed>0.02</speed>
  <fix>3d</fix>
</trkpt>
<trkpt lat="-27.2744391" lon="151.2900636">
  <ele>343.09</ele>
  <time>2026-09-01T19:50:47Z</time>
  <course>72.02</course>
  <speed>0.0</speed>
  <fix>3d</fix>
</trkpt>
<trkpt lat="-27.274439" lon="151.2900638">
  <ele>343.08</ele>
  <time>2026-09-01T19:50:47Z</time>
  <course>288.03</course>
  <speed>0.02</speed>
  <fix>3d</fix>
</trkpt>
<trkpt lat="-27.2744391" lon="151.2900636">
  <ele>343.09</ele>
  <time>2026-09-01T19:50:47Z</time>
  <course>72.02</course>
  <speed>0.0</speed>
  <fix>3d</fix>
</trkpt>
<trkpt lat="-27.274439" lon="151.2900638">
  <ele>343.08</ele>
  <time>2026-09-01T19:50:47Z</time>
  <course>288.03</course>
  <speed>0.02</speed>
  <fix>3d</fix>
</trkpt>
<trkpt lat="-27.2744391" lon="151.2900636">
  <ele>343.09</ele>
  <time>2026-09-01T19:50:47Z</time>
  <course>78.41</course>
  <speed>0.0</speed>
  <fix>3d</fix>
</trkpt>
<trkpt lat="-27.274439" lon="151.2900638">
  <ele>343.08</ele>
  <time>2026-09-01T19:50:47Z</time>
  <course>288.03</course>
  <speed>0.02</speed>
  <fix>3d</fix>
</trkpt>
<trkpt lat="-27.2744391" lon="151.2900636">
  <ele>343.09</ele>
  <time>2026-09-01T19:50:47Z</time>
  <course>78.41</course>
  <speed>0.0</speed>
  <fix>3d</fix>
</trkpt>
<trkpt lat="-27.274439" lon="151.2900638">
  <ele>343.08</ele>
  <time>2026-09-01T19:50:47Z</time>
  <course>288.03</course>
  <speed>0.02</speed>
  <fix>3d</fix>
</trkpt>
<trkpt lat="-27.2744391" lon="151.2900636">
  <ele>343.09</ele>
  <time>2026-09-01T19:50:47Z</time>
  <course>79.2</course>
  <speed>0.0</speed>
  <fix>3d</fix>
</trkpt>
<trkpt lat="-27.274439" lon="151.2900638">
  <ele>343.08</ele>
  <time>2026-09-01T19:50:47Z</time>
  <course>288.03</course>
  <speed>0.02</speed>
  <fix>3d</fix>
</trkpt>
<trkpt lat="-27.2744391" lon="151.2900636">
  <ele>343.09</ele>
  <time>2026-09-01T19:50:47Z</time>
  <course>79.2</course>
  <speed>0.0</speed>
  <fix>3d</fix>
</trkpt>
<trkpt lat="-27.274439" lon="151.2900638">
  <ele>343.08</ele>
  <time>2026-09-01T19:50:47Z</time>
  <course>288.03</course>
  <speed>0.02</speed>
  <fix>3d</fix>
</trkpt>
<trkpt lat="-27.2744391" lon="151.2900636">
  <ele>343.09</ele>
  <time>2026-09-01T19:50:47Z</time>
  <course>73.07</course>
  <speed>0.0</speed>
  <fix>3d</fix>
</trkpt>
<trkpt lat="-27.274439" lon="151.2900638">
  <ele>343.08</ele>
  <time>2026-09-01T19:50:47Z</time>
  <course>288.03</course>
  <speed>0.02</speed>
  <fix>3d</fix>
</trkpt>
<trkpt lat="-27.2744391" lon="151.2900636">
  <ele>343.09</ele>
  <time>2026-09-01T19:50:47Z</time>
  <course>73.07</course>
  <speed>0.0</speed>
  <fix>3d</fix>
</trkpt>
<trkpt lat="-27.274439" lon="151.2900638">
  <ele>343.08</ele>
  <time>2026-09-01T19:50:47Z</time>
  <course>288.03</course>
  <speed>0.02</speed>
  <fix>3d</fix>
</trkpt>
<trkpt lat="-27.2744391" lon="151.2900636">
  <ele>343.09</ele>
  <time>2026-09-01T19:50:47Z</time>
  <course>68.69</course>
  <speed>0.0</speed>
  <fix>3d</fix>
</trkpt>
<trkpt lat="-27.274439" lon="151.2900638">
  <ele>343.08</ele>
  <time>2026-09-01T19:50:47Z</time>
  <course>288.03</course>
  <speed>0.02</speed>
  <fix>3d</fix>
</trkpt>
<trkpt lat="-27.2744391" lon="151.2900636">
  <ele>343.09</ele>
  <time>2026-09-01T19:50:47Z</time>
  <course>68.69</course>
  <speed>0.0</speed>
  <fix>3d</fix>
</trkpt>
<trkpt lat="-27.274439" lon="151.2900638">
  <ele>343.08</ele>
  <time>2026-09-01T19:50:47Z</time>
  <course>288.03</course>
  <speed>0.02</speed>
  <fix>3d</fix>
</trkpt>
<trkpt lat="-27.2744391" lon="151.2900636">
  <ele>343.09</ele>
  <time>2026-09-01T19:50:47Z</time>
  <course>68.12</course>
  <speed>0.0</speed>
  <fix>3d</fix>
</trkpt>
<trkpt lat="-27.274439" lon="151.2900638">
  <ele>343.08</ele>
  <time>2026-09-01T19:50:47Z</time>
  <course>288.03</course>
  <speed>0.02</speed>
  <fix>3d</fix>
</trkpt>
<trkpt lat="-27.2744391" lon="151.2900636">
  <ele>343.09</ele>
  <time>2026-09-01T19:50:47Z</time>
  <course>68.12</course>
  <speed>0.0</speed>
  <fix>3d</fix>
</trkpt>
<trkpt lat="-27.274439" lon="151.2900638">
  <ele>343.08</ele>
  <time>2026-09-01T19:50:47Z</time>
  <course>288.03</course>
  <speed>0.02</speed>
  <fix>3d</fix>
</trkpt>
<trkpt lat="-27.2744391" lon="151.2900636">
  <ele>343.09</ele>
  <time>2026-09-01T19:50:47Z</time>
  <course>71.1</course>
  <speed>0.0</speed>
  <fix>3d</fix>
</trkpt>
<trkpt lat="-27.274439" lon="151.2900638">
  <ele>343.08</ele>
  <time>2026-09-01T19:50:47Z</time>
  <course>288.03</course>
  <speed>0.02</speed>
  <fix>3d</fix>
</trkpt>
<trkpt lat="-27.2744391" lon="151.2900636">
  <ele>343.09</ele>
  <time>2026-09-01T19:50:47Z</time>
  <course>71.1</course>
  <speed>0.0</speed>
  <fix>3d</fix>
</trkpt>
<trkpt lat="-27.274439" lon="151.2900638">
  <ele>343.08</ele>
  <time>2026-09-01T19:50:47Z</time>
  <course>288.03</course>
  <speed>0.02</speed>
  <fix>3d</fix>
</trkpt>
<trkpt lat="-27.2744391" lon="151.2900636">
  <ele>343.09</ele>
  <time>2026-09-01T19:50:47Z</time>
  <course>78.93</course>
  <speed>0.0</speed>
  <fix>3d</fix>
</trkpt>
<trkpt lat="-27.274439" lon="151.2900638">
  <ele>343.08</ele>
  <time>2026-09-01T19:50:47Z</time>
  <course>288.03</course>
  <speed>0.02</speed>
  <fix>3d</fix>
</trkpt>
<trkpt lat="-27.2744391" lon="151.2900636">
  <ele>343.09</ele>
  <time>2026-09-01T19:50:47Z</time>
  <course>78.93</course>
  <speed>0.0</speed>
  <fix>3d</fix>
</trkpt>
<trkpt lat="-27.274439" lon="151.2900638">
  <ele>343.08</ele>
  <time>2026-09-01T19:50:47Z</time>
  <course>288.03</course>
  <speed>0.02</speed>
  <fix>3d</fix>
</trkpt>
<trkpt lat="-27.2744391" lon="151.2900636">
  <ele>343.09</ele>
  <time>2026-09-01T19:50:47Z</time>
  <course>82.29</course>
  <speed>0.0</speed>
  <fix>3d</fix>
</trkpt>
<trkpt lat="-27.274439" lon="151.2900638">
  <ele>343.08</ele>
  <time>2026-09-01T19:50:47Z</time>
  <course>288.03</course>
  <speed>0.02</speed>
  <fix>3d</fix>
</trkpt>
<trkpt lat="-27.2744391" lon="151.2900636">
  <ele>343.09</ele>
  <time>2026-09-01T19:50:47Z</time>
  <course>82.29</course>
  <speed>0.0</speed>
  <fix>3d</fix>
</trkpt>
<trkpt lat="-27.274439" lon="151.2900638">
  <ele>343.08</ele>
  <time>2026-09-01T19:50:47Z</time>
  <course>288.03</course>
  <speed>0.02</speed>
  <fix>3d</fix>
</trkpt>
<trkpt lat="-27.2744391" lon="151.2900636">
  <ele>343.09</ele>
  <time>2026-09-01T19:50:47Z</time>
  <course>75.63</course>
  <speed>0.0</speed>
  <fix>3d</fix>
</trkpt>
<trkpt lat="-27.274439" lon="151.2900638">
  <ele>343.08</ele>
  <time>2026-09-01T19:50:47Z</time>
  <course>288.03</course>
  <speed>0.02</speed>
  <fix>3d</fix>
</trkpt>
<trkpt lat="-27.2744391" lon="151.2900636">
  <ele>343.09</ele>
  <time>2026-09-01T19:50:47Z</time>
  <course>75.63</course>
  <speed>0.0</speed>
  <fix>3d</fix>
</trkpt>
<trkpt lat="-27.274439" lon="151.2900638">
  <ele>343.08</ele>
  <time>2026-09-01T19:50:47Z</time>
  <course>288.03</course>
  <speed>0.02</speed>
  <fix>3d</fix>
</trkpt>
<trkpt lat="-27.2744391" lon="151.2900636">
  <ele>343.09</ele>
  <time>2026-09-01T19:50:47Z</time>
  <course>70.06</course>
  <speed>0.0</speed>
  <fix>3d</fix>
</trkpt>
<trkpt lat="-27.274439" lon="151.2900638">
  <ele>343.08</ele>
  <time>2026-09-01T19:50:47Z</time>
  <course>288.03</course>
  <speed>0.02</speed>
  <fix>3d</fix>
</trkpt>
<trkpt lat="-27.2744391" lon="151.2900636">
  <ele>343.09</ele>
  <time>2026-09-01T19:50:47Z</time>
  <course>70.06</course>
  <speed>0.0</speed>
  <fix>3d</fix>
</trkpt>
<trkpt lat="-27.274439" lon="151.2900638">
  <ele>343.08</ele>
  <time>2026-09-01T19:50:47Z</time>
  <course>288.03</course>
  <speed>0.02</speed>
  <fix>3d</fix>
</trkpt>
<trkpt lat="-27.2744391" lon="151.2900636">
  <ele>343.09</ele>
  <time>2026-09-01T19:50:47Z</time>
  <course>67.54</course>
  <speed>0.0</speed>
  <fix>3d</fix>
</trkpt>
<trkpt lat="-27.274439" lon="151.2900638">
  <ele>343.08</ele>
  <time>2026-09-01T19:50:47Z</time>
  <course>288.03</course>
  <speed>0.02</speed>
  <fix>3d</fix>
</trkpt>
<trkpt lat="-27.2744391" lon="151.2900636">
  <ele>343.09</ele>
  <time>2026-09-01T19:50:47Z</time>
  <course>67.54</course>
  <speed>0.0</speed>
  <fix>3d</fix>
</trkpt>
<trkpt lat="-27.274439" lon="151.2900638">
  <ele>343.08</ele>
  <time>2026-09-01T19:50:47Z</time>
  <course>288.03</course>
  <speed>0.02</speed>
  <fix>3d</fix>
</trkpt>
<trkpt lat="-27.2744391" lon="151.2900636">
  <ele>343.09</ele>
  <time>2026-09-01T19:50:47Z</time>
  <course>71.24</course>
  <speed>0.0</speed>
  <fix>3d</fix>
</trkpt>
<trkpt lat="-27.274439" lon="151.2900638">
  <ele>343.08</ele>
  <time>2026-09-01T19:50:47Z</time>
  <course>288.03</course>
  <speed>0.02</speed>
  <fix>3d</fix>
</trkpt>
<trkpt lat="-27.2744391" lon="151.2900636">
  <ele>343.09</ele>
  <time>2026-09-01T19:50:47Z</time>
  <course>71.24</course>
  <speed>0.0</speed>
  <fix>3d</fix>
</trkpt>
<trkpt lat="-27.274439" lon="151.2900638">
  <ele>343.08</ele>
  <time>2026-09-01T19:50:47Z</time>
  <course>288.03</course>
  <speed>0.02</speed>
  <fix>3d</fix>
</trkpt>
<trkpt lat="-27.2744391" lon="151.2900636">
  <ele>343.09</ele>
  <time>2026-09-01T19:50:47Z</time>
  <course>243.74</course>
  <speed>0.0</speed>
  <fix>3d</fix>
</trkpt>
<trkpt lat="-27.274439" lon="151.2900638">
  <ele>343.08</ele>
  <time>2026-09-01T19:50:47Z</time>
  <course>288.03</course>
  <speed>0.02</speed>
  <fix>3d</fix>
</trkpt>
<trkpt lat="-27.2744391" lon="151.2900636">
  <ele>343.09</ele>
  <time>2026-09-01T19:50:47Z</time>
  <course>243.74</course>
  <speed>0.0</speed>
  <fix>3d</fix>
</trkpt>
<trkpt lat="-27.274439" lon="151.2900638">
  <ele>343.08</ele>
  <time>2026-09-01T19:50:47Z</time>
  <course>288.03</course>
  <speed>0.02</speed>
  <fix>3d</fix>
</trkpt>
<trkpt lat="-27.2744391" lon="151.2900636">
  <ele>343.09</ele>
  <time>2026-09-01T19:50:47Z</time>
  <course>244.12</course>
  <speed>0.0</speed>
  <fix>3d</fix>
</trkpt>
<trkpt lat="-27.274439" lon="151.2900638">
  <ele>343.09</ele>
  <time>2026-09-01T19:50:47Z</time>
  <course>288.03</course>
  <speed>0.02</speed>
  <fix>3d</fix>
</trkpt>
<trkpt lat="-27.2744391" lon="151.2900636">
  <ele>343.09</ele>
  <time>2026-09-01T19:50:47Z</time>
  <course>244.12</course>
  <speed>0.0</speed>
  <fix>3d</fix>
</trkpt>
<trkpt lat="-27.274439" lon="151.2900638">
  <ele>343.09</ele>
  <time>2026-09-01T19:50:47Z</time>
  <course>288.03</course>
  <speed>0.02</speed>
  <fix>3d</fix>
</trkpt>
<trkpt lat="-27.2744391" lon="151.2900636">
  <ele>343.09</ele>
  <time>2026-09-01T19:50:47Z</time>
  <course>64.1</course>
  <speed>0.0</speed>
  <fix>3d</fix>
</trkpt>
<trkpt lat="-27.274439" lon="151.2900638">
  <ele>343.09</ele>
  <time>2026-09-01T19:50:47Z</time>
  <course>288.03</course>
  <speed>0.02</speed>
  <fix>3d</fix>
</trkpt>
<trkpt lat="-27.2744391" lon="151.2900636">
  <ele>343.09</ele>
  <time>2026-09-01T19:50:47Z</time>
  <course>64.1</course>
  <speed>0.0</speed>
  <fix>3d</fix>
</trkpt>
<trkpt lat="-27.274439" lon="151.2900638">
  <ele>343.09</ele>
  <time>2026-09-01T19:50:47Z</time>
  <course>288.03</course>
  <speed>0.02</speed>
  <fix>3d</fix>
</trkpt>
<trkpt lat="-27.2744391" lon="151.2900636">
  <ele>343.09</ele>
  <time>2026-09-01T19:50:47Z</time>
  <course>64.12</course>
  <speed>0.0</speed>
  <fix>3d</fix>
</trkpt>
<trkpt lat="-27.274439" lon="151.2900638">
  <ele>343.09</ele>
  <time>2026-09-01T19:50:47Z</time>
  <course>288.03</course>
  <speed>0.02</speed>
  <fix>3d</fix>
</trkpt>
<trkpt lat="-27.2744391" lon="151.2900636">
  <ele>343.09</ele>
  <time>2026-09-01T19:50:47Z</time>
  <course>64.12</course>
  <speed>0.0</speed>
  <fix>3d</fix>
</trkpt>
<trkpt lat="-27.274439" lon="151.2900638">
  <ele>343.09</ele>
  <time>2026-09-01T19:50:47Z</time>
  <course>288.04</course>
  <speed>0.02</speed>
  <fix>3d</fix>
</trkpt>
<trkpt lat="-27.2744391" lon="151.2900636">
  <ele>343.09</ele>
  <time>2026-09-01T19:50:47Z</time>
  <course>244.11</course>
  <speed>0.0</speed>
  <fix>3d</fix>
</trkpt>
<trkpt lat="-27.274439" lon="151.2900638">
  <ele>343.1</ele>
  <time>2026-09-01T19:50:47Z</time>
  <course>288.04</course>
  <speed>0.02</speed>
  <fix>3d</fix>
</trkpt>
<trkpt lat="-27.2744391" lon="151.2900636">
  <ele>343.09</ele>
  <time>2026-09-01T19:50:47Z</time>
  <course>244.11</course>
  <speed>0.0</speed>
  <fix>3d</fix>
</trkpt>
<trkpt lat="-27.274439" lon="151.2900638">
  <ele>343.1</ele>
  <time>2026-09-01T19:50:47Z</time>
  <course>288.04</course>
  <speed>0.02</speed>
  <fix>3d</fix>
</trkpt>
<trkpt lat="-27.2744391" lon="151.2900636">
  <ele>343.09</ele>
  <time>2026-09-01T19:50:47Z</time>
  <course>244.12</course>
  <speed>0.0</speed>
  <fix>3d</fix>
</trkpt>
<trkpt lat="-27.274439" lon="151.2900638">
  <ele>343.1</ele>
  <time>2026-09-01T19:50:47Z</time>
  <course>288.04</course>
  <speed>0.02</speed>
  <fix>3d</fix>
</trkpt>
<trkpt lat="-27.2744391" lon="151.2900636">
  <ele>343.09</ele>
  <time>2026-09-01T19:50:47Z</time>
  <course>244.12</course>
  <speed>0.0</speed>
  <fix>3d</fix>
</trkpt>
<trkpt lat="-27.274439" lon="151.2900638">
  <ele>343.11</ele>
  <time>2026-09-01T19:50:47Z</time>
  <course>288.04</course>
  <speed>0.02</speed>
  <fix>3d</fix>
</trkpt>
<trkpt lat="-27.2744391" lon="151.2900636">
  <ele>343.09</ele>
  <time>2026-09-01T19:50:47Z</time>
  <course>64.11</course>
  <speed>0.0</speed>
  <fix>3d</fix>
</trkpt>
<trkpt lat="-27.274439" lon="151.2900638">
  <ele>343.11</ele>
  <time>2026-09-01T19:50:47Z</time>
  <course>288.04</course>
  <speed>0.02</speed>
  <fix>3d</fix>
</trkpt>
<trkpt lat="-27.2744391" lon="151.2900636">
  <ele>343.09</ele>
  <time>2026-09-01T19:50:47Z</time>
  <course>64.11</course>
  <speed>0.0</speed>
  <fix>3d</fix>
</trkpt>
<trkpt lat="-27.274439" lon="151.2900638">
  <ele>343.11</ele>
  <time>2026-09-01T19:50:47Z</time>
  <course>288.04</course>
  <speed>0.02</speed>
  <fix>3d</fix>
</trkpt>
<trkpt lat="-27.2744391" lon="151.2900636">
  <ele>343.09</ele>
  <time>2026-09-01T19:50:47Z</time>
  <course>64.13</course>
  <speed>0.0</speed>
  <fix>3d</fix>
</trkpt>
<trkpt lat="-27.274439" lon="151.2900638">
  <ele>343.12</ele>
  <time>2026-09-01T19:50:47Z</time>
  <course>288.04</course>
  <speed>0.02</speed>
  <fix>3d</fix>
</trkpt>
<trkpt lat="-27.2744391" lon="151.2900636">
  <ele>343.09</ele>
  <time>2026-09-01T19:50:47Z</time>
  <course>64.13</course>
  <speed>0.0</speed>
  <fix>3d</fix>
</trkpt>
<trkpt lat="-27.274439" lon="151.2900638">
  <ele>343.12</ele>
  <time>2026-09-01T19:50:47Z</time>
  <course>288.04</course>
  <speed>0.02</speed>
  <fix>3d</fix>
</trkpt>
<trkpt lat="-27.2744391" lon="151.2900636">
  <ele>343.09</ele>
  <time>2026-09-01T19:50:47Z</time>
  <course>244.12</course>
  <speed>0.0</speed>
  <fix>3d</fix>
</trkpt>
<trkpt lat="-27.274439" lon="151.2900638">
  <ele>343.12</ele>
  <time>2026-09-01T19:50:47Z</time>
  <course>288.04</course>
  <speed>0.02</speed>
  <fix>3d</fix>
</trkpt>
<trkpt lat="-27.2744391" lon="151.2900636">
  <ele>343.09</ele>
  <time>2026-09-01T19:50:47Z</time>
  <course>244.12</course>
  <speed>0.0</speed>
  <fix>3d</fix>
</trkpt>
<trkpt lat="-27.274439" lon="151.2900638">
  <ele>343.12</ele>
  <time>2026-09-01T19:50:47Z</time>
  <course>288.04</course>
  <speed>0.02</speed>
  <fix>3d</fix>
</trkpt>
<trkpt lat="-27.2744391" lon="151.2900636">
  <ele>343.09</ele>
  <time>2026-09-01T19:50:47Z</time>
  <course>244.16</course>
  <speed>0.0</speed>
  <fix>3d</fix>
</trkpt>
<trkpt lat="-27.274439" lon="151.2900638">
  <ele>343.13</ele>
  <time>2026-09-01T19:50:47Z</time>
  <course>288.04</course>
  <speed>0.02</speed>
  <fix>3d</fix>
</trkpt>
<trkpt lat="-27.2744391" lon="151.2900636">
  <ele>343.09</ele>
  <time>2026-09-01T19:50:47Z</time>
  <course>244.16</course>
  <speed>0.0</speed>
  <fix>3d</fix>
</trkpt>
<trkpt lat="-27.274439" lon="151.2900638">
  <ele>343.13</ele>
  <time>2026-09-01T19:50:47Z</time>
  <course>288.04</course>
  <speed>0.02</speed>
  <fix>3d</fix>
</trkpt>
<trkpt lat="-27.2744391" lon="151.2900636">
  <ele>343.09</ele>
  <time>2026-09-01T19:50:47Z</time>
  <course>64.12</course>
  <speed>0.0</speed>
  <fix>3d</fix>
</trkpt>
<trkpt lat="-27.274439" lon="151.2900638">
  <ele>343.13</ele>
  <time>2026-09-01T19:50:47Z</time>
  <course>288.04</course>
  <speed>0.02</speed>
  <fix>3d</fix>
</trkpt>
<trkpt lat="-27.2744391" lon="151.2900636">
  <ele>343.09</ele>
  <time>2026-09-01T19:50:47Z</time>
  <course>64.12</course>
  <speed>0.0</speed>
  <fix>3d</fix>
</trkpt>
<trkpt lat="-27.274439" lon="151.2900638">
  <ele>343.12</ele>
  <time>2026-09-01T19:50:47Z</time>
  <course>288.04</course>
  <speed>0.02</speed>
  <fix>3d</fix>
</trkpt>
<trkpt lat="-27.2744391" lon="151.2900636">
  <ele>343.09</ele>
  <time>2026-09-01T19:50:47Z</time>
  <course>244.09</course>
  <speed>0.0</speed>
  <fix>3d</fix>
</trkpt>
<trkpt lat="-27.274439" lon="151.2900638">
  <ele>343.12</ele>
  <time>2026-09-01T19:50:47Z</time>
  <course>288.04</course>
  <speed>0.02</speed>
  <fix>3d</fix>
</trkpt>
<trkpt lat="-27.2744391" lon="151.2900636">
  <ele>343.09</ele>
  <time>2026-09-01T19:50:47Z</time>
  <course>244.09</course>
  <speed>0.0</speed>
  <fix>3d</fix>
</trkpt>
<trkpt lat="-27.274439" lon="151.2900638">
  <ele>343.1</ele>
  <time>2026-09-01T19:50:47Z</time>
  <course>288.04</course>
  <speed>0.02</speed>
  <fix>3d</fix>
</trkpt>
<trkpt lat="-27.2744391" lon="151.2900636">
  <ele>343.09</ele>
  <time>2026-09-01T19:50:47Z</time>
  <course>64.11</course>
  <speed>0.0</speed>
  <fix>3d</fix>
</trkpt>
<trkpt lat="-27.274439" lon="151.2900638">
  <ele>343.1</ele>
  <time>2026-09-01T19:50:47Z</time>
  <course>288.05</course>
  <speed>0.02</speed>
  <fix>3d</fix>
</trkpt>
<trkpt lat="-27.2744391" lon="151.2900636">
  <ele>343.09</ele>
  <time>2026-09-01T19:50:47Z</time>
  <course>244.11</course>
  <speed>0.0</speed>
  <fix>3d</fix>
</trkpt>
<trkpt lat="-27.274439" lon="151.2900638">
  <ele>343.1</ele>
  <time>2026-09-01T19:50:47Z</time>
  <course>288.05</course>
  <speed>0.02</speed>
  <fix>3d</fix>
</trkpt>
<trkpt lat="-27.2744391" lon="151.2900636">
  <ele>343.09</ele>
  <time>2026-09-01T19:50:47Z</time>
  <course>244.13</course>
  <speed>0.0</speed>
  <fix>3d</fix>
</trkpt>
<trkpt lat="-27.274439" lon="151.2900638">
  <ele>343.1</ele>
  <time>2026-09-01T19:50:47Z</time>
  <course>288.05</course>
  <speed>0.02</speed>
  <fix>3d</fix>
</trkpt>
<trkpt lat="-27.2744391" lon="151.2900636">
  <ele>343.09</ele>
  <time>2026-09-01T19:50:47Z</time>
  <course>244.13</course>
  <speed>0.0</speed>
  <fix>3d</fix>
</trkpt>
<trkpt lat="-27.274439" lon="151.2900638">
  <ele>343.1</ele>
  <time>2026-09-01T19:50:47Z</time>
  <course>288.05</course>
  <speed>0.02</speed>
  <fix>3d</fix>
</trkpt>
<trkpt lat="-27.2744391" lon="151.2900636">
  <ele>343.09</ele>
  <time>2026-09-01T19:50:47Z</time>
  <course>64.11</course>
  <speed>0.0</speed>
  <fix>3d</fix>
</trkpt>
<trkpt lat="-27.274439" lon="151.2900638">
  <ele>343.1</ele>
  <time>2026-09-01T19:50:47Z</time>
  <course>288.05</course>
  <speed>0.02</speed>
  <fix>3d</fix>
</trkpt>
<trkpt lat="-27.2744391" lon="151.2900636">
  <ele>343.09</ele>
  <time>2026-09-01T19:50:47Z</time>
  <course>64.11</course>
  <speed>0.0</speed>
  <fix>3d</fix>
</trkpt>
<trkpt lat="-27.274439" lon="151.2900638">
  <ele>343.1</ele>
  <time>2026-09-01T19:50:47Z</time>
  <course>288.05</course>
  <speed>0.02</speed>
  <fix>3d</fix>
</trkpt>
<trkpt lat="-27.2744391" lon="151.2900636">
  <ele>343.09</ele>
  <time>2026-09-01T19:50:47Z</time>
  <course>64.15</course>
  <speed>0.0</speed>
  <fix>3d</fix>
</trkpt>
<trkpt lat="-27.274439" lon="151.2900638">
  <ele>343.1</ele>
  <time>2026-09-01T19:50:47Z</time>
  <course>288.05</course>
  <speed>0.02</speed>
  <fix>3d</fix>
</trkpt>
<trkpt lat="-27.2744391" lon="151.2900636">
  <ele>343.09</ele>
  <time>2026-09-01T19:50:47Z</time>
  <course>64.15</course>
  <speed>0.0</speed>
  <fix>3d</fix>
</trkpt>
<trkpt lat="-27.274439" lon="151.2900638">
  <ele>343.1</ele>
  <time>2026-09-01T19:50:47Z</time>
  <course>288.05</course>
  <speed>0.02</speed>
  <fix>3d</fix>
</trkpt>
<trkpt lat="-27.2744391" lon="151.2900636">
  <ele>343.09</ele>
  <time>2026-09-01T19:50:47Z</time>
  <course>244.07</course>
  <speed>0.0</speed>
  <fix>3d</fix>
</trkpt>
<trkpt lat="-27.274439" lon="151.2900638">
  <ele>343.1</ele>
  <time>2026-09-01T19:50:47Z</time>
  <course>288.05</course>
  <speed>0.02</speed>
  <fix>3d</fix>
</trkpt>
<trkpt lat="-27.2744391" lon="151.2900636">
  <ele>343.09</ele>
  <time>2026-09-01T19:50:47Z</time>
  <course>244.07</course>
  <speed>0.0</speed>
  <fix>3d</fix>
</trkpt>
<trkpt lat="-27.274439" lon="151.2900638">
  <ele>343.1</ele>
  <time>2026-09-01T19:50:47Z</time>
  <course>288.05</course>
  <speed>0.02</speed>
  <fix>3d</fix>
</trkpt>
<trkpt lat="-27.2744391" lon="151.2900636">
  <ele>343.09</ele>
  <time>2026-09-01T19:50:47Z</time>
  <course>66.05</course>
  <speed>0.0</speed>
  <fix>3d</fix>
</trkpt>
<trkpt lat="-27.274439" lon="151.2900638">
  <ele>343.1</ele>
  <time>2026-09-01T19:50:47Z</time>
  <course>288.05</course>
  <speed>0.02</speed>
  <fix>3d</fix>
</trkpt>
<trkpt lat="-27.2744391" lon="151.2900636">
  <ele>343.09</ele>
  <time>2026-09-01T19:50:47Z</time>
  <course>66.05</course>
  <speed>0.0</speed>
  <fix>3d</fix>
</trkpt>
<trkpt lat="-27.274439" lon="151.2900638">
  <ele>343.1</ele>
  <time>2026-09-01T19:50:47Z</time>
  <course>288.05</course>
  <speed>0.02</speed>
  <fix>3d</fix>
</trkpt>
<trkpt lat="-27.2744391" lon="151.2900636">
  <ele>343.09</ele>
  <time>2026-09-01T19:50:47Z</time>
  <course>64.43</course>
  <speed>0.0</speed>
  <fix>3d</fix>
</trkpt>
<trkpt lat="-27.274439" lon="151.2900638">
  <ele>343.1</ele>
  <time>2026-09-01T19:50:47Z</time>
  <course>288.05</course>
  <speed>0.02</speed>
  <fix>3d</fix>
</trkpt>
<trkpt lat="-27.2744391" lon="151.2900636">
  <ele>343.09</ele>
  <time>2026-09-01T19:50:47Z</time>
  <course>64.43</course>
  <speed>0.0</speed>
  <fix>3d</fix>
</trkpt>
<trkpt lat="-27.274439" lon="151.2900638">
  <ele>343.1</ele>
  <time>2026-09-01T19:50:47Z</time>
  <course>288.05</course>
  <speed>0.02</speed>
  <fix>3d</fix>
</trkpt>
<trkpt lat="-27.2744391" lon="151.2900636">
  <ele>343.09</ele>
  <time>2026-09-01T19:50:47Z</time>
  <course>249.72</course>
  <speed>0.0</speed>
  <fix>3d</fix>
</trkpt>
<trkpt lat="-27.274439" lon="151.2900638">
  <ele>343.11</ele>
  <time>2026-09-01T19:50:47Z</time>
  <course>288.05</course>
  <speed>0.02</speed>
  <fix>3d</fix>
</trkpt>
<trkpt lat="-27.2744391" lon="151.2900636">
  <ele>343.09</ele>
  <time>2026-09-01T19:50:47Z</time>
  <course>249.72</course>
  <speed>0.0</speed>
  <fix>3d</fix>
</trkpt>
<trkpt lat="-27.274439" lon="151.2900638">
  <ele>343.11</ele>
  <time>2026-09-01T19:50:47Z</time>
  <course>288.05</course>
  <speed>0.02</speed>
  <fix>3d</fix>
</trkpt>
<trkpt lat="-27.2744391" lon="151.2900636">
  <ele>343.09</ele>
  <time>2026-09-01T19:50:47Z</time>
  <course>248.34</course>
  <speed>0.0</speed>
  <fix>3d</fix>
</trkpt>
<trkpt lat="-27.274439" lon="151.2900638">
  <ele>343.11</ele>
  <time>2026-09-01T19:50:47Z</time>
  <course>288.05</course>
  <speed>0.02</speed>
  <fix>3d</fix>
</trkpt>
<trkpt lat="-27.2744391" lon="151.2900636">
  <ele>343.09</ele>
  <time>2026-09-01T19:50:47Z</time>
  <course>248.34</course>
  <speed>0.0</speed>
  <fix>3d</fix>
</trkpt>
<trkpt lat="-27.274439" lon="151.2900638">
  <ele>343.11</ele>
  <time>2026-09-01T19:50:47Z</time>
  <course>288.05</course>
  <speed>0.02</speed>
  <fix>3d</fix>
</trkpt>
<trkpt lat="-27.2744391" lon="151.2900636">
  <ele>343.09</ele>
  <time>2026-09-01T19:50:47Z</time>
  <course>88.98</course>
  <speed>0.0</speed>
  <fix>3d</fix>
</trkpt>
<trkpt lat="-27.274439" lon="151.2900638">
  <ele>343.11</ele>
  <time>2026-09-01T19:50:47Z</time>
  <course>288.05</course>
  <speed>0.02</speed>
  <fix>3d</fix>
</trkpt>
<trkpt lat="-27.2744391" lon="151.2900636">
  <ele>343.09</ele>
  <time>2026-09-01T19:50:47Z</time>
  <course>88.98</course>
  <speed>0.0</speed>
  <fix>3d</fix>
</trkpt>
<trkpt lat="-27.274439" lon="151.2900638">
  <ele>343.11</ele>
  <time>2026-09-01T19:50:47Z</time>
  <course>288.05</course>
  <speed>0.02</speed>
  <fix>3d</fix>
</trkpt>
<trkpt lat="-27.2744391" lon="151.2900636">
  <ele>343.09</ele>
  <time>2026-09-01T19:50:47Z</time>
  <course>84.73</course>
  <speed>0.0</speed>
  <fix>3d</fix>
</trkpt>
<trkpt lat="-27.274439" lon="151.2900638">
  <ele>343.11</ele>
  <time>2026-09-01T19:50:47Z</time>
  <course>288.05</course>
  <speed>0.02</speed>
  <fix>3d</fix>
</trkpt>
<trkpt lat="-27.2744391" lon="151.2900636">
  <ele>343.09</ele>
  <time>2026-09-01T19:50:47Z</time>
  <course>84.73</course>
  <speed>0.0</speed>
  <fix>3d</fix>
</trkpt>
<trkpt lat="-27.274439" lon="151.2900638">
  <ele>343.11</ele>
  <time>2026-09-01T19:50:47Z</time>
  <course>288.05</course>
  <speed>0.02</speed>
  <fix>3d</fix>
</trkpt>
<trkpt lat="-27.2744391" lon="151.2900636">
  <ele>343.09</ele>
  <time>2026-09-01T19:50:47Z</time>
  <course>84.39</course>
  <speed>0.0</speed>
  <fix>3d</fix>
</trkpt>
<trkpt lat="-27.274439" lon="151.2900638">
  <ele>343.12</ele>
  <time>2026-09-01T19:50:47Z</time>
  <course>288.05</course>
  <speed>0.02</speed>
  <fix>3d</fix>
</trkpt>
<trkpt lat="-27.2744391" lon="151.2900636">
  <ele>343.09</ele>
  <time>2026-09-01T19:50:47Z</time>
  <course>84.39</course>
  <speed>0.0</speed>
  <fix>3d</fix>
</trkpt>
<trkpt lat="-27.274439" lon="151.2900638">
  <ele>343.12</ele>
  <time>2026-09-01T19:50:47Z</time>
  <course>288.05</course>
  <speed>0.02</speed>
  <fix>3d</fix>
</trkpt>
<trkpt lat="-27.2744391" lon="151.2900636">
  <ele>343.09</ele>
  <time>2026-09-01T19:50:47Z</time>
  <course>84.35</course>
  <speed>0.0</speed>
  <fix>3d</fix>
</trkpt>
<trkpt lat="-27.274439" lon="151.2900638">
  <ele>343.12</ele>
  <time>2026-09-01T19:50:47Z</time>
  <course>288.05</course>
  <speed>0.02</speed>
  <fix>3d</fix>
</trkpt>
<trkpt lat="-27.2744391" lon="151.2900636">
  <ele>343.09</ele>
  <time>2026-09-01T19:50:47Z</time>
  <course>84.35</course>
  <speed>0.0</speed>
  <fix>3d</fix>
</trkpt>
<trkpt lat="-27.274439" lon="151.2900638">
  <ele>343.09</ele>
  <time>2026-09-01T19:50:47Z</time>
  <course>288.05</course>
  <speed>0.02</speed>
  <fix>3d</fix>
</trkpt>
<trkpt lat="-27.2744391" lon="151.2900636">
  <ele>343.09</ele>
  <time>2026-09-01T19:50:47Z</time>
  <course>84.34</course>
  <speed>0.0</speed>
  <fix>3d</fix>
</trkpt>
<trkpt lat="-27.274439" lon="151.2900638">
  <ele>343.09</ele>
  <time>2026-09-01T19:50:47Z</time>
  <course>288.05</course>
  <speed>0.02</speed>
  <fix>3d</fix>
</trkpt>
<trkpt lat="-27.2744391" lon="151.2900636">
  <ele>343.09</ele>
  <time>2026-09-01T19:50:47Z</time>
  <course>84.34</course>
  <speed>0.0</speed>
  <fix>3d</fix>
</trkpt>
<trkpt lat="-27.274439" lon="151.2900638">
  <ele>343.09</ele>
  <time>2026-09-01T19:50:48Z</time>
  <course>288.05</course>
  <speed>0.02</speed>
  <fix>3d</fix>
</trkpt>
<trkpt lat="-27.2744391" lon="151.2900636">
  <ele>343.09</ele>
  <time>2026-09-01T19:50:48Z</time>
  <course>84.34</course>
  <speed>0.0</speed>
  <fix>3d</fix>
</trkpt>
<trkpt lat="-27.274439" lon="151.2900638">
  <ele>343.09</ele>
  <time>2026-09-01T19:50:48Z</time>
  <course>288.05</course>
  <speed>0.02</speed>
  <fix>3d</fix>
</trkpt>
<trkpt lat="-27.2744391" lon="151.2900636">
  <ele>343.09</ele>
  <time>2026-09-01T19:50:48Z</time>
  <course>84.34</course>
  <speed>0.0</speed>
  <fix>3d</fix>
</trkpt>
<trkpt lat="-27.274439" lon="151.2900638">
  <ele>343.09</ele>
  <time>2026-09-01T19:50:48Z</time>
  <course>288.05</course>
  <speed>0.02</speed>
  <fix>3d</fix>
</trkpt>
<trkpt lat="-27.2744391" lon="151.2900636">
  <ele>343.09</ele>
  <time>2026-09-01T19:50:48Z</time>
  <course>84.34</course>
  <speed>0.0</speed>
  <fix>3d</fix>
</trkpt>
<trkpt lat="-27.274439" lon="151.2900638">
  <ele>343.09</ele>
  <time>2026-09-01T19:50:48Z</time>
  <course>288.04</course>
  <speed>0.02</speed>
  <fix>3d</fix>
</trkpt>
<trkpt lat="-27.2744391" lon="151.2900636">
  <ele>343.09</ele>
  <time>2026-09-01T19:50:48Z</time>
  <course>84.34</course>
  <speed>0.0</speed>
  <fix>3d</fix>
</trkpt>
<trkpt lat="-27.274439" lon="151.2900638">
  <ele>343.09</ele>
  <time>2026-09-01T19:50:48Z</time>
  <course>288.04</course>
  <speed>0.02</speed>
  <fix>3d</fix>
</trkpt>
<trkpt lat="-27.2744391" lon="151.2900636">
  <ele>343.09</ele>
  <time>2026-09-01T19:50:48Z</time>
  <course>84.34</course>
  <speed>0.0</speed>
  <fix>3d</fix>
</trkpt>
<trkpt lat="-27.274439" lon="151.2900638">
  <ele>343.09</ele>
  <time>2026-09-01T19:50:48Z</time>
  <course>288.04</course>
  <speed>0.02</speed>
  <fix>3d</fix>
</trkpt>
<trkpt lat="-27.2744391" lon="151.2900636">
  <ele>343.09</ele>
  <time>2026-09-01T19:50:48Z</time>
  <course>84.34</course>
  <speed>0.0</speed>
  <fix>3d</fix>
</trkpt>
<trkpt lat="-27.274439" lon="151.2900638">
  <ele>343.09</ele>
  <time>2026-09-01T19:50:48Z</time>
  <course>288.04</course>
  <speed>0.02</speed>
  <fix>3d</fix>
</trkpt>
<trkpt lat="-27.2744391" lon="151.2900636">
  <ele>343.09</ele>
  <time>2026-09-01T19:50:48Z</time>
  <course>84.34</course>
  <speed>0.0</speed>
  <fix>3d</fix>
</trkpt>
<trkpt lat="-27.274439" lon="151.2900638">
  <ele>343.09</ele>
  <time>2026-09-01T19:50:48Z</time>
  <course>288.04</course>
  <speed>0.02</speed>
  <fix>3d</fix>
</trkpt>
<trkpt lat="-27.2744391" lon="151.2900636">
  <ele>343.09</ele>
  <time>2026-09-01T19:50:48Z</time>
  <course>84.34</course>
  <speed>0.0</speed>
  <fix>3d</fix>
</trkpt>
<trkpt lat="-27.274439" lon="151.2900638">
  <ele>343.09</ele>
  <time>2026-09-01T19:50:48Z</time>
  <course>288.04</course>
  <speed>0.02</speed>
  <fix>3d</fix>
</trkpt>
<trkpt lat="-27.2744391" lon="151.2900636">
  <ele>343.09</ele>
  <time>2026-09-01T19:50:48Z</time>
  <course>84.34</course>
  <speed>0.0</speed>
  <fix>3d</fix>
</trkpt>
<trkpt lat="-27.274439" lon="151.2900638">
  <ele>343.09</ele>
  <time>2026-09-01T19:50:48Z</time>
  <course>288.04</course>
  <speed>0.02</speed>
  <fix>3d</fix>
</trkpt>
<trkpt lat="-27.2744391" lon="151.2900636">
  <ele>343.09</ele>
  <time>2026-09-01T19:50:48Z</time>
  <course>84.34</course>
  <speed>0.0</speed>
  <fix>3d</fix>
</trkpt>
<trkpt lat="-27.274439" lon="151.2900638">
  <ele>343.09</ele>
  <time>2026-09-01T19:50:48Z</time>
  <course>288.04</course>
  <speed>0.02</speed>
  <fix>3d</fix>
</trkpt>
<trkpt lat="-27.2744391" lon="151.2900636">
  <ele>343.09</ele>
  <time>2026-09-01T19:50:48Z</time>
  <course>84.34</course>
  <speed>0.0</speed>
  <fix>3d</fix>
</trkpt>
<trkpt lat="-27.274439" lon="151.2900638">
  <ele>343.09</ele>
  <time>2026-09-01T19:50:48Z</time>
  <course>288.04</course>
  <speed>0.02</speed>
  <fix>3d</fix>
</trkpt>
<trkpt lat="-27.2744391" lon="151.2900636">
  <ele>343.09</ele>
  <time>2026-09-01T19:50:48Z</time>
  <course>84.34</course>
  <speed>0.0</speed>
  <fix>3d</fix>
</trkpt>
<trkpt lat="-27.274439" lon="151.2900638">
  <ele>343.1</ele>
  <time>2026-09-01T19:50:48Z</time>
  <course>288.04</course>
  <speed>0.02</speed>
  <fix>3d</fix>
</trkpt>
<trkpt lat="-27.2744391" lon="151.2900636">
  <ele>343.09</ele>
  <time>2026-09-01T19:50:48Z</time>
  <course>84.34</course>
  <speed>0.0</speed>
  <fix>3d</fix>
</trkpt>
<trkpt lat="-27.274439" lon="151.2900638">
  <ele>343.1</ele>
  <time>2026-09-01T19:50:48Z</time>
  <course>288.04</course>
  <speed>0.02</speed>
  <fix>3d</fix>
</trkpt>
<trkpt lat="-27.2744391" lon="151.2900636">
  <ele>343.09</ele>
  <time>2026-09-01T19:50:48Z</time>
  <course>84.34</course>
  <speed>0.0</speed>
  <fix>3d</fix>
</trkpt>
<trkpt lat="-27.274439" lon="151.2900638">
  <ele>343.11</ele>
  <time>2026-09-01T19:50:48Z</time>
  <course>288.04</course>
  <speed>0.02</speed>
  <fix>3d</fix>
</trkpt>
<trkpt lat="-27.2744391" lon="151.2900636">
  <ele>343.09</ele>
  <time>2026-09-01T19:50:48Z</time>
  <course>84.34</course>
  <speed>0.0</speed>
  <fix>3d</fix>
</trkpt>
<trkpt lat="-27.274439" lon="151.2900638">
  <ele>343.11</ele>
  <time>2026-09-01T19:50:48Z</time>
  <course>288.04</course>
  <speed>0.022360679774997897</speed>
  <fix>3d</fix>
</trkpt>
<trkpt lat="-27.2744391" lon="151.2900636">
  <ele>343.09</ele>
  <time>2026-09-01T19:50:48Z</time>
  <course>84.34</course>
  <speed>0.0</speed>
  <fix>3d</fix>
</trkpt>
<trkpt lat="-27.274439" lon="151.2900638">
  <ele>343.11</ele>
  <time>2026-09-01T19:50:48Z</time>
  <course>288.04</course>
  <speed>0.022360679774997897</speed>
  <fix>3d</fix>
</trkpt>
<trkpt lat="-27.2744391" lon="151.2900636">
  <ele>343.09</ele>
  <time>2026-09-01T19:50:48Z</time>
  <course>84.34</course>
  <speed>0.0</speed>
  <fix>3d</fix>
</trkpt>
<trkpt lat="-27.274439" lon="151.2900638">
  <ele>343.12</ele>
  <time>2026-09-01T19:50:48Z</time>
  <course>288.04</course>
  <speed>0.022360679774997897</speed>
  <fix>3d</fix>
</trkpt>
<trkpt lat="-27.2744391" lon="151.2900636">
  <ele>343.09</ele>
  <time>2026-09-01T19:50:48Z</time>
  <course>84.34</course>
  <speed>0.0</speed>
  <fix>3d</fix>
</trkpt>
<trkpt lat="-27.274439" lon="151.2900638">
  <ele>343.12</ele>
  <time>2026-09-01T19:50:48Z</time>
  <course>288.04</course>
  <speed>0.022360679774997897</speed>
  <fix>3d</fix>
</trkpt>
<trkpt lat="-27.2744391" lon="151.2900636">
  <ele>343.09</ele>
  <time>2026-09-01T19:50:48Z</time>
  <course>84.34</course>
  <speed>0.0</speed>
  <fix>3d</fix>
</trkpt>
<trkpt lat="-27.274439" lon="151.2900638">
  <ele>343.12</ele>
  <time>2026-09-01T19:50:48Z</time>
  <course>288.04</course>
  <speed>0.022360679774997897</speed>
  <fix>3d</fix>
</trkpt>
<trkpt lat="-27.2744391" lon="151.2900636">
  <ele>343.09</ele>
  <time>2026-09-01T19:50:48Z</time>
  <course>84.34</course>
  <speed>0.0</speed>
  <fix>3d</fix>
</trkpt>
<trkpt lat="-27.274439" lon="151.2900638">
  <ele>343.12</ele>
  <time>2026-09-01T19:50:48Z</time>
  <course>288.04</course>
  <speed>0.022360679774997897</speed>
  <fix>3d</fix>
</trkpt>
<trkpt lat="-27.2744391" lon="151.2900636">
  <ele>343.09</ele>
  <time>2026-09-01T19:50:48Z</time>
  <course>84.34</course>
  <speed>0.0</speed>
  <fix>3d</fix>
</trkpt>
<trkpt lat="-27.274439" lon="151.2900638">
  <ele>343.12</ele>
  <time>2026-09-01T19:50:48Z</time>
  <course>288.04</course>
  <speed>0.022360679774997897</speed>
  <fix>3d</fix>
</trkpt>
<trkpt lat="-27.2744391" lon="151.2900636">
  <ele>343.09</ele>
  <time>2026-09-01T19:50:48Z</time>
  <course>84.34</course>
  <speed>0.0</speed>
  <fix>3d</fix>
</trkpt>
<trkpt lat="-27.274439" lon="151.2900638">
  <ele>343.12</ele>
  <time>2026-09-01T19:50:48Z</time>
  <course>288.04</course>
  <speed>0.022360679774997897</speed>
  <fix>3d</fix>
</trkpt>
<trkpt lat="-27.2744391" lon="151.2900636">
  <ele>343.09</ele>
  <time>2026-09-01T19:50:48Z</time>
  <course>84.34</course>
  <speed>0.0</speed>
  <fix>3d</fix>
</trkpt>
<trkpt lat="-27.274439" lon="151.2900638">
  <ele>343.13</ele>
  <time>2026-09-01T19:50:48Z</time>
  <course>288.03</course>
  <speed>0.022360679774997897</speed>
  <fix>3d</fix>
</trkpt>
<trkpt lat="-27.2744391" lon="151.2900636">
  <ele>343.09</ele>
  <time>2026-09-01T19:50:48Z</time>
  <course>84.34</course>
  <speed>0.0</speed>
  <fix>3d</fix>
</trkpt>
<trkpt lat="-27.274439" lon="151.2900638">
  <ele>343.13</ele>
  <time>2026-09-01T19:50:48Z</time>
  <course>288.03</course>
  <speed>0.022360679774997897</speed>
  <fix>3d</fix>
</trkpt>
<trkpt lat="-27.2744391" lon="151.2900636">
  <ele>343.09</ele>
  <time>2026-09-01T19:50:48Z</time>
  <course>84.34</course>
  <speed>0.0</speed>
  <fix>3d</fix>
</trkpt>
<trkpt lat="-27.274439" lon="151.2900638">
  <ele>343.13</ele>
  <time>2026-09-01T19:50:48Z</time>
  <course>288.03</course>
  <speed>0.022360679774997897</speed>
  <fix>3d</fix>
</trkpt>
<trkpt lat="-27.2744391" lon="151.2900636">
  <ele>343.09</ele>
  <time>2026-09-01T19:50:48Z</time>
  <course>84.34</course>
  <speed>0.0</speed>
  <fix>3d</fix>
</trkpt>
<trkpt lat="-27.274439" lon="151.2900638">
  <ele>343.13</ele>
  <time>2026-09-01T19:50:48Z</time>
  <course>288.03</course>
  <speed>0.022360679774997897</speed>
  <fix>3d</fix>
</trkpt>
<trkpt lat="-27.2744391" lon="151.2900636">
  <ele>343.09</ele>
  <time>2026-09-01T19:50:48Z</time>
  <course>84.34</course>
  <speed>0.0</speed>
  <fix>3d</fix>
</trkpt>
<trkpt lat="-27.274439" lon="151.2900638">
  <ele>343.13</ele>
  <time>2026-09-01T19:50:48Z</time>
  <course>288.03</course>
  <speed>0.0316227766016838</speed>
  <fix>3d</fix>
</trkpt>
<trkpt lat="-27.2744391" lon="151.2900636">
  <ele>343.09</ele>
  <time>2026-09-01T19:50:48Z</time>
  <course>84.34</course>
  <speed>0.0</speed>
  <fix>3d</fix>
</trkpt>
<trkpt lat="-27.274439" lon="151.2900638">
  <ele>343.13</ele>
  <time>2026-09-01T19:50:48Z</time>
  <course>288.03</course>
  <speed>0.022360679774997897</speed>
  <fix>3d</fix>
</trkpt>
<trkpt lat="-27.2744391" lon="151.2900636">
  <ele>343.09</ele>
  <time>2026-09-01T19:50:48Z</time>
  <course>84.34</course>
  <speed>0.0</speed>
  <fix>3d</fix>
</trkpt>
<trkpt lat="-27.274439" lon="151.2900638">
  <ele>343.13</ele>
  <time>2026-09-01T19:50:48Z</time>
  <course>288.03</course>
  <speed>0.0316227766016838</speed>
  <fix>3d</fix>
</trkpt>
<trkpt lat="-27.2744391" lon="151.2900636">
  <ele>343.09</ele>
  <time>2026-09-01T19:50:48Z</time>
  <course>84.34</course>
  <speed>0.0</speed>
  <fix>3d</fix>
</trkpt>
<trkpt lat="-27.274439" lon="151.2900638">
  <ele>343.13</ele>
  <time>2026-09-01T19:50:48Z</time>
  <course>288.03</course>
  <speed>0.022360679774997897</speed>
  <fix>3d</fix>
</trkpt>
<trkpt lat="-27.2744391" lon="151.2900636">
  <ele>343.09</ele>
  <time>2026-09-01T19:50:48Z</time>
  <course>84.34</course>
  <speed>0.0</speed>
  <fix>3d</fix>
</trkpt>
<trkpt lat="-27.274439" lon="151.2900638">
  <ele>343.13</ele>
  <time>2026-09-01T19:50:48Z</time>
  <course>288.03</course>
  <speed>0.0316227766016838</speed>
  <fix>3d</fix>
</trkpt>
<trkpt lat="-27.2744391" lon="151.2900636">
  <ele>343.09</ele>
  <time>2026-09-01T19:50:48Z</time>
  <course>84.34</course>
  <speed>0.0</speed>
  <fix>3d</fix>
</trkpt>
<trkpt lat="-27.274439" lon="151.2900638">
  <ele>343.13</ele>
  <time>2026-09-01T19:50:48Z</time>
  <course>288.03</course>
  <speed>0.022360679774997897</speed>
  <fix>3d</fix>
</trkpt>
<trkpt lat="-27.2744391" lon="151.2900636">
  <ele>343.09</ele>
  <time>2026-09-01T19:50:48Z</time>
  <course>84.34</course>
  <speed>0.0</speed>
  <fix>3d</fix>
</trkpt>
<trkpt lat="-27.274439" lon="151.2900638">
  <ele>343.13</ele>
  <time>2026-09-01T19:50:48Z</time>
  <course>288.03</course>
  <speed>0.0316227766016838</speed>
  <fix>3d</fix>
</trkpt>
<trkpt lat="-27.2744391" lon="151.2900636">
  <ele>343.09</ele>
  <time>2026-09-01T19:50:48Z</time>
  <course>84.34</course>
  <speed>0.0</speed>
  <fix>3d</fix>
</trkpt>
<trkpt lat="-27.274439" lon="151.2900638">
  <ele>343.14</ele>
  <time>2026-09-01T19:50:48Z</time>
  <course>288.03</course>
  <speed>0.022360679774997897</speed>
  <fix>3d</fix>
</trkpt>
<trkpt lat="-27.2744391" lon="151.2900636">
  <ele>343.09</ele>
  <time>2026-09-01T19:50:48Z</time>
  <course>84.34</course>
  <speed>0.0</speed>
  <fix>3d</fix>
</trkpt>
<trkpt lat="-27.274439" lon="151.2900638">
  <ele>343.13</ele>
  <time>2026-09-01T19:50:48Z</time>
  <course>288.02</course>
  <speed>0.0316227766016838</speed>
  <fix>3d</fix>
</trkpt>
<trkpt lat="-27.2744391" lon="151.2900636">
  <ele>343.09</ele>
  <time>2026-09-01T19:50:48Z</time>
  <course>84.34</course>
  <speed>0.0</speed>
  <fix>3d</fix>
</trkpt>
<trkpt lat="-27.274439" lon="151.2900638">
  <ele>343.14</ele>
  <time>2026-09-01T19:50:48Z</time>
  <course>288.02</course>
  <speed>0.0316227766016838</speed>
  <fix>3d</fix>
</trkpt>
<trkpt lat="-27.2744391" lon="151.2900636">
  <ele>343.09</ele>
  <time>2026-09-01T19:50:48Z</time>
  <course>84.34</course>
  <speed>0.0</speed>
  <fix>3d</fix>
</trkpt>
<trkpt lat="-27.274439" lon="151.2900638">
  <ele>343.14</ele>
  <time>2026-09-01T19:50:48Z</time>
  <course>288.02</course>
  <speed>0.0316227766016838</speed>
  <fix>3d</fix>
</trkpt>
<trkpt lat="-27.2744391" lon="151.2900636">
  <ele>343.09</ele>
  <time>2026-09-01T19:50:48Z</time>
  <course>84.34</course>
  <speed>0.0</speed>
  <fix>3d</fix>
</trkpt>
<trkpt lat="-27.274439" lon="151.2900638">
  <ele>343.14</ele>
  <time>2026-09-01T19:50:48Z</time>
  <course>288.02</course>
  <speed>0.022360679774997897</speed>
  <fix>3d</fix>
</trkpt>
<trkpt lat="-27.2744391" lon="151.2900636">
  <ele>343.09</ele>
  <time>2026-09-01T19:50:48Z</time>
  <course>84.34</course>
  <speed>0.0</speed>
  <fix>3d</fix>
</trkpt>
<trkpt lat="-27.274439" lon="151.2900638">
  <ele>343.14</ele>
  <time>2026-09-01T19:50:48Z</time>
  <course>288.02</course>
  <speed>0.0316227766016838</speed>
  <fix>3d</fix>
</trkpt>
<trkpt lat="-27.2744391" lon="151.2900636">
  <ele>343.09</ele>
  <time>2026-09-01T19:50:48Z</time>
  <course>84.34</course>
  <speed>0.0</speed>
  <fix>3d</fix>
</trkpt>
<trkpt lat="-27.274439" lon="151.2900638">
  <ele>343.14</ele>
  <time>2026-09-01T19:50:48Z</time>
  <course>288.02</course>
  <speed>0.022360679774997897</speed>
  <fix>3d</fix>
</trkpt>
<trkpt lat="-27.2744391" lon="151.2900636">
  <ele>343.09</ele>
  <time>2026-09-01T19:50:48Z</time>
  <course>84.34</course>
  <speed>0.0</speed>
  <fix>3d</fix>
</trkpt>
<trkpt lat="-27.274439" lon="151.2900638">
  <ele>343.14</ele>
  <time>2026-09-01T19:50:48Z</time>
  <course>288.01</course>
  <speed>0.022360679774997897</speed>
  <fix>3d</fix>
</trkpt>
<trkpt lat="-27.2744391" lon="151.2900636">
  <ele>343.09</ele>
  <time>2026-09-01T19:50:48Z</time>
  <course>84.34</course>
  <speed>0.0</speed>
  <fix>3d</fix>
</trkpt>
<trkpt lat="-27.274439" lon="151.2900638">
  <ele>343.14</ele>
  <time>2026-09-01T19:50:48Z</time>
  <course>288.01</course>
  <speed>0.022360679774997897</speed>
  <fix>3d</fix>
</trkpt>
<trkpt lat="-27.2744391" lon="151.2900636">
  <ele>343.09</ele>
  <time>2026-09-01T19:50:48Z</time>
  <course>84.34</course>
  <speed>0.0</speed>
  <fix>3d</fix>
</trkpt>
<trkpt lat="-27.274439" lon="151.2900638">
  <ele>343.14</ele>
  <time>2026-09-01T19:50:48Z</time>
  <course>288.01</course>
  <speed>0.022360679774997897</speed>
  <fix>3d</fix>
</trkpt>
<trkpt lat="-27.2744391" lon="151.2900636">
  <ele>343.09</ele>
  <time>2026-09-01T19:50:48Z</time>
  <course>84.34</course>
  <speed>0.0</speed>
  <fix>3d</fix>
</trkpt>
<trkpt lat="-27.274439" lon="151.2900638">
  <ele>343.14</ele>
  <time>2026-09-01T19:50:48Z</time>
  <course>288.01</course>
  <speed>0.022360679774997897</speed>
  <fix>3d</fix>
</trkpt>
<trkpt lat="-27.2744391" lon="151.2900636">
  <ele>343.09</ele>
  <time>2026-09-01T19:50:48Z</time>
  <course>84.34</course>
  <speed>0.0</speed>
  <fix>3d</fix>
</trkpt>
<trkpt lat="-27.274439" lon="151.2900638">
  <ele>343.14</ele>
  <time>2026-09-01T19:50:48Z</time>
  <course>288.01</course>
  <speed>0.022360679774997897</speed>
  <fix>3d</fix>
</trkpt>
<trkpt lat="-27.2744391" lon="151.2900636">
  <ele>343.09</ele>
  <time>2026-09-01T19:50:48Z</time>
  <course>84.34</course>
  <speed>0.0</speed>
  <fix>3d</fix>
</trkpt>
<trkpt lat="-27.274439" lon="151.2900638">
  <ele>343.14</ele>
  <time>2026-09-01T19:50:48Z</time>
  <course>288.01</course>
  <speed>0.022360679774997897</speed>
  <fix>3d</fix>
</trkpt>
<trkpt lat="-27.2744391" lon="151.2900636">
  <ele>343.09</ele>
  <time>2026-09-01T19:50:48Z</time>
  <course>84.34</course>
  <speed>0.0</speed>
  <fix>3d</fix>
</trkpt>
<trkpt lat="-27.274439" lon="151.2900638">
  <ele>343.14</ele>
  <time>2026-09-01T19:50:48Z</time>
  <course>288.01</course>
  <speed>0.022360679774997897</speed>
  <fix>3d</fix>
</trkpt>
<trkpt lat="-27.2744391" lon="151.2900636">
  <ele>343.09</ele>
  <time>2026-09-01T19:50:48Z</time>
  <course>84.34</course>
  <speed>0.0</speed>
  <fix>3d</fix>
</trkpt>
<trkpt lat="-27.274439" lon="151.2900638">
  <ele>343.14</ele>
  <time>2026-09-01T19:50:48Z</time>
  <course>288.01</course>
  <speed>0.022360679774997897</speed>
  <fix>3d</fix>
</trkpt>
<trkpt lat="-27.2744391" lon="151.2900636">
  <ele>343.09</ele>
  <time>2026-09-01T19:50:48Z</time>
  <course>84.34</course>
  <speed>0.0</speed>
  <fix>3d</fix>
</trkpt>
<trkpt lat="-27.274439" lon="151.2900638">
  <ele>343.14</ele>
  <time>2026-09-01T19:50:48Z</time>
  <course>288.01</course>
  <speed>0.022360679774997897</speed>
  <fix>3d</fix>
</trkpt>
<trkpt lat="-27.2744391" lon="151.2900636">
  <ele>343.09</ele>
  <time>2026-09-01T19:50:48Z</time>
  <course>84.34</course>
  <speed>0.0</speed>
  <fix>3d</fix>
</trkpt>
<trkpt lat="-27.274439" lon="151.2900638">
  <ele>343.14</ele>
  <time>2026-09-01T19:50:48Z</time>
  <course>288.01</course>
  <speed>0.022360679774997897</speed>
  <fix>3d</fix>
</trkpt>
<trkpt lat="-27.2744391" lon="151.2900636">
  <ele>343.09</ele>
  <time>2026-09-01T19:50:48Z</time>
  <course>84.34</course>
  <speed>0.0</speed>
  <fix>3d</fix>
</trkpt>
<trkpt lat="-27.274439" lon="151.2900638">
  <ele>343.14</ele>
  <time>2026-09-01T19:50:48Z</time>
  <course>288.01</course>
  <speed>0.022360679774997897</speed>
  <fix>3d</fix>
</trkpt>
<trkpt lat="-27.2744391" lon="151.2900636">
  <ele>343.09</ele>
  <time>2026-09-01T19:50:48Z</time>
  <course>84.34</course>
  <speed>0.0</speed>
  <fix>3d</fix>
</trkpt>
<trkpt lat="-27.274439" lon="151.2900638">
  <ele>343.14</ele>
  <time>2026-09-01T19:50:48Z</time>
  <course>288.0</course>
  <speed>0.022360679774997897</speed>
  <fix>3d</fix>
</trkpt>
<trkpt lat="-27.2744391" lon="151.2900636">
  <ele>343.09</ele>
  <time>2026-09-01T19:50:48Z</time>
  <course>84.34</course>
  <speed>0.0</speed>
  <fix>3d</fix>
</trkpt>
<trkpt lat="-27.274439" lon="151.2900638">
  <ele>343.14</ele>
  <time>2026-09-01T19:50:48Z</time>
  <course>288.0</course>
  <speed>0.022360679774997897</speed>
  <fix>3d</fix>
</trkpt>
<trkpt lat="-27.2744391" lon="151.2900636">
  <ele>343.09</ele>
  <time>2026-09-01T19:50:48Z</time>
  <course>84.34</course>
  <speed>0.0</speed>
  <fix>3d</fix>
</trkpt>
<trkpt lat="-27.274439" lon="151.2900638">
  <ele>343.14</ele>
  <time>2026-09-01T19:50:48Z</time>
  <course>288.0</course>
  <speed>0.022360679774997897</speed>
  <fix>3d</fix>
</trkpt>
<trkpt lat="-27.2744391" lon="151.2900636">
  <ele>343.09</ele>
  <time>2026-09-01T19:50:48Z</time>
  <course>84.34</course>
  <speed>0.0</speed>
  <fix>3d</fix>
</trkpt>
<trkpt lat="-27.274439" lon="151.2900638">
  <ele>343.14</ele>
  <time>2026-09-01T19:50:48Z</time>
  <course>288.0</course>
  <speed>0.022360679774997897</speed>
  <fix>3d</fix>
</trkpt>
<trkpt lat="-27.2744391" lon="151.2900636">
  <ele>343.09</ele>
  <time>2026-09-01T19:50:48Z</time>
  <course>84.34</course>
  <speed>0.0</speed>
  <fix>3d</fix>
</trkpt>
<trkpt lat="-27.274439" lon="151.2900638">
  <ele>343.09</ele>
  <time>2026-09-01T19:50:48Z</time>
  <course>288.0</course>
  <speed>0.022360679774997897</speed>
  <fix>3d</fix>
</trkpt>
<trkpt lat="-27.2744391" lon="151.2900636">
  <ele>343.09</ele>
  <time>2026-09-01T19:50:48Z</time>
  <course>84.34</course>
  <speed>0.0</speed>
  <fix>3d</fix>
</trkpt>
<trkpt lat="-27.274439" lon="151.2900638">
  <ele>343.09</ele>
  <time>2026-09-01T19:50:48Z</time>
  <course>288.0</course>
  <speed>0.022360679774997897</speed>
  <fix>3d</fix>
</trkpt>
<trkpt lat="-27.2744391" lon="151.2900636">
  <ele>343.09</ele>
  <time>2026-09-01T19:50:48Z</time>
  <course>84.34</course>
  <speed>0.0</speed>
  <fix>3d</fix>
</trkpt>
<trkpt lat="-27.274439" lon="151.2900638">
  <ele>343.09</ele>
  <time>2026-09-01T19:50:48Z</time>
  <course>288.0</course>
  <speed>0.022360679774997897</speed>
  <fix>3d</fix>
</trkpt>
<trkpt lat="-27.2744391" lon="151.2900636">
  <ele>343.09</ele>
  <time>2026-09-01T19:50:48Z</time>
  <course>84.34</course>
  <speed>0.0</speed>
  <fix>3d</fix>
</trkpt>
<trkpt lat="-27.274439" lon="151.2900638">
  <ele>343.09</ele>
  <time>2026-09-01T19:50:48Z</time>
  <course>288.0</course>
  <speed>0.022360679774997897</speed>
  <fix>3d</fix>
</trkpt>
<trkpt lat="-27.2744391" lon="151.2900636">
  <ele>343.09</ele>
  <time>2026-09-01T19:50:48Z</time>
  <course>84.34</course>
  <speed>0.0</speed>
  <fix>3d</fix>
</trkpt>
<trkpt lat="-27.274439" lon="151.2900638">
  <ele>343.09</ele>
  <time>2026-09-01T19:50:48Z</time>
  <course>288.0</course>
  <speed>0.022360679774997897</speed>
  <fix>3d</fix>
</trkpt>
<trkpt lat="-27.2744391" lon="151.2900636">
  <ele>343.09</ele>
  <time>2026-09-01T19:50:48Z</time>
  <course>84.34</course>
  <speed>0.0</speed>
  <fix>3d</fix>
</trkpt>
<trkpt lat="-27.274439" lon="151.2900638">
  <ele>343.09</ele>
  <time>2026-09-01T19:50:48Z</time>
  <course>287.99</course>
  <speed>0.022360679774997897</speed>
  <fix>3d</fix>
</trkpt>
<trkpt lat="-27.2744391" lon="151.2900636">
  <ele>343.09</ele>
  <time>2026-09-01T19:50:48Z</time>
  <course>84.34</course>
  <speed>0.0</speed>
  <fix>3d</fix>
</trkpt>
<trkpt lat="-27.274439" lon="151.2900638">
  <ele>343.09</ele>
  <time>2026-09-01T19:50:48Z</time>
  <course>287.99</course>
  <speed>0.022360679774997897</speed>
  <fix>3d</fix>
</trkpt>
<trkpt lat="-27.2744391" lon="151.2900636">
  <ele>343.09</ele>
  <time>2026-09-01T19:50:48Z</time>
  <course>84.34</course>
  <speed>0.0</speed>
  <fix>3d</fix>
</trkpt>
<trkpt lat="-27.274439" lon="151.2900638">
  <ele>343.09</ele>
  <time>2026-09-01T19:50:48Z</time>
  <course>287.99</course>
  <speed>0.022360679774997897</speed>
  <fix>3d</fix>
</trkpt>
<trkpt lat="-27.2744391" lon="151.2900636">
  <ele>343.09</ele>
  <time>2026-09-01T19:50:48Z</time>
  <course>84.34</course>
  <speed>0.0</speed>
  <fix>3d</fix>
</trkpt>
<trkpt lat="-27.274439" lon="151.2900638">
  <ele>343.09</ele>
  <time>2026-09-01T19:50:48Z</time>
  <course>287.99</course>
  <speed>0.022360679774997897</speed>
  <fix>3d</fix>
</trkpt>
<trkpt lat="-27.2744391" lon="151.2900636">
  <ele>343.09</ele>
  <time>2026-09-01T19:50:48Z</time>
  <course>84.34</course>
  <speed>0.0</speed>
  <fix>3d</fix>
</trkpt>
<trkpt lat="-27.274439" lon="151.2900638">
  <ele>343.09</ele>
  <time>2026-09-01T19:50:48Z</time>
  <course>287.99</course>
  <speed>0.022360679774997897</speed>
  <fix>3d</fix>
</trkpt>
<trkpt lat="-27.2744391" lon="151.2900636">
  <ele>343.09</ele>
  <time>2026-09-01T19:50:48Z</time>
  <course>84.34</course>
  <speed>0.0</speed>
  <fix>3d</fix>
</trkpt>
<trkpt lat="-27.274439" lon="151.2900638">
  <ele>343.09</ele>
  <time>2026-09-01T19:50:48Z</time>
  <course>287.99</course>
  <speed>0.022360679774997897</speed>
  <fix>3d</fix>
</trkpt>
<trkpt lat="-27.2744391" lon="151.2900636">
  <ele>343.09</ele>
  <time>2026-09-01T19:50:48Z</time>
  <course>84.34</course>
  <speed>0.0</speed>
  <fix>3d</fix>
</trkpt>
<trkpt lat="-27.274439" lon="151.2900638">
  <ele>343.09</ele>
  <time>2026-09-01T19:50:48Z</time>
  <course>287.99</course>
  <speed>0.022360679774997897</speed>
  <fix>3d</fix>
</trkpt>
<trkpt lat="-27.2744391" lon="151.2900636">
  <ele>343.09</ele>
  <time>2026-09-01T19:50:48Z</time>
  <course>84.34</course>
  <speed>0.0</speed>
  <fix>3d</fix>
</trkpt>
<trkpt lat="-27.274439" lon="151.2900638">
  <ele>343.08</ele>
  <time>2026-09-01T19:50:48Z</time>
  <course>287.99</course>
  <speed>0.022360679774997897</speed>
  <fix>3d</fix>
</trkpt>
<trkpt lat="-27.2744391" lon="151.2900636">
  <ele>343.09</ele>
  <time>2026-09-01T19:50:48Z</time>
  <course>84.34</course>
  <speed>0.0</speed>
  <fix>3d</fix>
</trkpt>
<trkpt lat="-27.274439" lon="151.2900638">
  <ele>343.08</ele>
  <time>2026-09-01T19:50:48Z</time>
  <course>287.99</course>
  <speed>0.022360679774997897</speed>
  <fix>3d</fix>
</trkpt>
<trkpt lat="-27.2744391" lon="151.2900636">
  <ele>343.09</ele>
  <time>2026-09-01T19:50:48Z</time>
  <course>84.34</course>
  <speed>0.0</speed>
  <fix>3d</fix>
</trkpt>
<trkpt lat="-27.274439" lon="151.2900638">
  <ele>343.08</ele>
  <time>2026-09-01T19:50:48Z</time>
  <course>287.99</course>
  <speed>0.022360679774997897</speed>
  <fix>3d</fix>
</trkpt>
<trkpt lat="-27.2744391" lon="151.2900636">
  <ele>343.09</ele>
  <time>2026-09-01T19:50:48Z</time>
  <course>84.34</course>
  <speed>0.0</speed>
  <fix>3d</fix>
</trkpt>
<trkpt lat="-27.274439" lon="151.2900638">
  <ele>343.08</ele>
  <time>2026-09-01T19:50:48Z</time>
  <course>287.99</course>
  <speed>0.022360679774997897</speed>
  <fix>3d</fix>
</trkpt>
<trkpt lat="-27.2744391" lon="151.2900636">
  <ele>343.09</ele>
  <time>2026-09-01T19:50:48Z</time>
  <course>84.34</course>
  <speed>0.0</speed>
  <fix>3d</fix>
</trkpt>
<trkpt lat="-27.274439" lon="151.2900638">
  <ele>343.08</ele>
  <time>2026-09-01T19:50:48Z</time>
  <course>287.98</course>
  <speed>0.022360679774997897</speed>
  <fix>3d</fix>
</trkpt>
<trkpt lat="-27.2744391" lon="151.2900636">
  <ele>343.09</ele>
  <time>2026-09-01T19:50:48Z</time>
  <course>84.34</course>
  <speed>0.0</speed>
  <fix>3d</fix>
</trkpt>
<trkpt lat="-27.274439" lon="151.2900638">
  <ele>343.08</ele>
  <time>2026-09-01T19:50:48Z</time>
  <course>287.98</course>
  <speed>0.022360679774997897</speed>
  <fix>3d</fix>
</trkpt>
<trkpt lat="-27.2744391" lon="151.2900636">
  <ele>343.09</ele>
  <time>2026-09-01T19:50:48Z</time>
  <course>84.34</course>
  <speed>0.0</speed>
  <fix>3d</fix>
</trkpt>
<trkpt lat="-27.274439" lon="151.2900638">
  <ele>343.08</ele>
  <time>2026-09-01T19:50:48Z</time>
  <course>287.98</course>
  <speed>0.022360679774997897</speed>
  <fix>3d</fix>
</trkpt>
<trkpt lat="-27.2744391" lon="151.2900636">
  <ele>343.09</ele>
  <time>2026-09-01T19:50:48Z</time>
  <course>84.34</course>
  <speed>0.0</speed>
  <fix>3d</fix>
</trkpt>
<trkpt lat="-27.274439" lon="151.2900638">
  <ele>343.08</ele>
  <time>2026-09-01T19:50:48Z</time>
  <course>287.98</course>
  <speed>0.022360679774997897</speed>
  <fix>3d</fix>
</trkpt>
<trkpt lat="-27.2744391" lon="151.2900636">
  <ele>343.09</ele>
  <time>2026-09-01T19:50:48Z</time>
  <course>84.34</course>
  <speed>0.0</speed>
  <fix>3d</fix>
</trkpt>
<trkpt lat="-27.274439" lon="151.2900638">
  <ele>343.08</ele>
  <time>2026-09-01T19:50:48Z</time>
  <course>287.98</course>
  <speed>0.022360679774997897</speed>
  <fix>3d</fix>
</trkpt>
<trkpt lat="-27.2744391" lon="151.2900636">
  <ele>343.09</ele>
  <time>2026-09-01T19:50:48Z</time>
  <course>84.34</course>
  <speed>0.0</speed>
  <fix>3d</fix>
</trkpt>
<trkpt lat="-27.274439" lon="151.2900638">
  <ele>343.08</ele>
  <time>2026-09-01T19:50:48Z</time>
  <course>287.98</course>
  <speed>0.022360679774997897</speed>
  <fix>3d</fix>
</trkpt>
<trkpt lat="-27.2744391" lon="151.2900636">
  <ele>343.09</ele>
  <time>2026-09-01T19:50:48Z</time>
  <course>84.34</course>
  <speed>0.0</speed>
  <fix>3d</fix>
</trkpt>
<trkpt lat="-27.274439" lon="151.2900638">
  <ele>343.08</ele>
  <time>2026-09-01T19:50:48Z</time>
  <course>287.98</course>
  <speed>0.022360679774997897</speed>
  <fix>3d</fix>
</trkpt>
<trkpt lat="-27.2744391" lon="151.2900636">
  <ele>343.09</ele>
  <time>2026-09-01T19:50:48Z</time>
  <course>84.34</course>
  <speed>0.0</speed>
  <fix>3d</fix>
</trkpt>
<trkpt lat="-27.274439" lon="151.2900638">
  <ele>343.08</ele>
  <time>2026-09-01T19:50:48Z</time>
  <course>287.98</course>
  <speed>0.022360679774997897</speed>
  <fix>3d</fix>
</trkpt>
<trkpt lat="-27.2744391" lon="151.2900636">
  <ele>343.09</ele>
  <time>2026-09-01T19:50:48Z</time>
  <course>84.34</course>
  <speed>0.0</speed>
  <fix>3d</fix>
</trkpt>
<trkpt lat="-27.274439" lon="151.2900638">
  <ele>343.08</ele>
  <time>2026-09-01T19:50:48Z</time>
  <course>287.98</course>
  <speed>0.022360679774997897</speed>
  <fix>3d</fix>
</trkpt>
<trkpt lat="-27.2744391" lon="151.2900636">
  <ele>343.09</ele>
  <time>2026-09-01T19:50:48Z</time>
  <course>84.34</course>
  <speed>0.0</speed>
  <fix>3d</fix>
</trkpt>
<trkpt lat="-27.274439" lon="151.2900638">
  <ele>343.08</ele>
  <time>2026-09-01T19:50:48Z</time>
  <course>287.97</course>
  <speed>0.022360679774997897</speed>
  <fix>3d</fix>
</trkpt>
<trkpt lat="-27.2744391" lon="151.2900636">
  <ele>343.09</ele>
  <time>2026-09-01T19:50:48Z</time>
  <course>84.34</course>
  <speed>0.0</speed>
  <fix>3d</fix>
</trkpt>
<trkpt lat="-27.274439" lon="151.2900638">
  <ele>343.09</ele>
  <time>2026-09-01T19:50:48Z</time>
  <course>287.97</course>
  <speed>0.022360679774997897</speed>
  <fix>3d</fix>
</trkpt>
<trkpt lat="-27.2744391" lon="151.2900636">
  <ele>343.09</ele>
  <time>2026-09-01T19:50:48Z</time>
  <course>84.34</course>
  <speed>0.0</speed>
  <fix>3d</fix>
</trkpt>
<trkpt lat="-27.274439" lon="151.2900638">
  <ele>343.09</ele>
  <time>2026-09-01T19:50:48Z</time>
  <course>287.97</course>
  <speed>0.022360679774997897</speed>
  <fix>3d</fix>
</trkpt>
<trkpt lat="-27.2744391" lon="151.2900636">
  <ele>343.09</ele>
  <time>2026-09-01T19:50:48Z</time>
  <course>84.34</course>
  <speed>0.0</speed>
  <fix>3d</fix>
</trkpt>
<trkpt lat="-27.274439" lon="151.2900638">
  <ele>343.09</ele>
  <time>2026-09-01T19:50:48Z</time>
  <course>287.97</course>
  <speed>0.022360679774997897</speed>
  <fix>3d</fix>
</trkpt>
<trkpt lat="-27.2744391" lon="151.2900636">
  <ele>343.09</ele>
  <time>2026-09-01T19:50:48Z</time>
  <course>84.34</course>
  <speed>0.0</speed>
  <fix>3d</fix>
</trkpt>
<trkpt lat="-27.274439" lon="151.2900638">
  <ele>343.09</ele>
  <time>2026-09-01T19:50:48Z</time>
  <course>287.97</course>
  <speed>0.022360679774997897</speed>
  <fix>3d</fix>
</trkpt>
<trkpt lat="-27.2744391" lon="151.2900636">
  <ele>343.09</ele>
  <time>2026-09-01T19:50:48Z</time>
  <course>84.34</course>
  <speed>0.0</speed>
  <fix>3d</fix>
</trkpt>
<trkpt lat="-27.274439" lon="151.2900638">
  <ele>343.09</ele>
  <time>2026-09-01T19:50:48Z</time>
  <course>287.97</course>
  <speed>0.022360679774997897</speed>
  <fix>3d</fix>
</trkpt>
<trkpt lat="-27.2744391" lon="151.2900636">
  <ele>343.09</ele>
  <time>2026-09-01T19:50:48Z</time>
  <course>84.34</course>
  <speed>0.0</speed>
  <fix>3d</fix>
</trkpt>
<trkpt lat="-27.274439" lon="151.2900638">
  <ele>343.09</ele>
  <time>2026-09-01T19:50:48Z</time>
  <course>287.97</course>
  <speed>0.022360679774997897</speed>
  <fix>3d</fix>
</trkpt>
<trkpt lat="-27.2744391" lon="151.2900636">
  <ele>343.09</ele>
  <time>2026-09-01T19:50:48Z</time>
  <course>84.34</course>
  <speed>0.0</speed>
  <fix>3d</fix>
</trkpt>
<trkpt lat="-27.274439" lon="151.2900638">
  <ele>343.09</ele>
  <time>2026-09-01T19:50:48Z</time>
  <course>287.97</course>
  <speed>0.022360679774997897</speed>
  <fix>3d</fix>
</trkpt>
<trkpt lat="-27.2744391" lon="151.2900636">
  <ele>343.09</ele>
  <time>2026-09-01T19:50:48Z</time>
  <course>84.34</course>
  <speed>0.0</speed>
  <fix>3d</fix>
</trkpt>
<trkpt lat="-27.274439" lon="151.2900638">
  <ele>343.1</ele>
  <time>2026-09-01T19:50:48Z</time>
  <course>287.97</course>
  <speed>0.022360679774997897</speed>
  <fix>3d</fix>
</trkpt>
<trkpt lat="-27.2744391" lon="151.2900636">
  <ele>343.09</ele>
  <time>2026-09-01T19:50:48Z</time>
  <course>84.34</course>
  <speed>0.0</speed>
  <fix>3d</fix>
</trkpt>
<trkpt lat="-27.274439" lon="151.2900638">
  <ele>343.1</ele>
  <time>2026-09-01T19:50:48Z</time>
  <course>287.97</course>
  <speed>0.022360679774997897</speed>
  <fix>3d</fix>
</trkpt>
<trkpt lat="-27.2744391" lon="151.2900636">
  <ele>343.09</ele>
  <time>2026-09-01T19:50:48Z</time>
  <course>84.34</course>
  <speed>0.0</speed>
  <fix>3d</fix>
</trkpt>
<trkpt lat="-27.274439" lon="151.2900638">
  <ele>343.1</ele>
  <time>2026-09-01T19:50:48Z</time>
  <course>287.96</course>
  <speed>0.022360679774997897</speed>
  <fix>3d</fix>
</trkpt>
<trkpt lat="-27.2744391" lon="151.2900636">
  <ele>343.09</ele>
  <time>2026-09-01T19:50:48Z</time>
  <course>84.34</course>
  <speed>0.0</speed>
  <fix>3d</fix>
</trkpt>
<trkpt lat="-27.274439" lon="151.2900638">
  <ele>343.1</ele>
  <time>2026-09-01T19:50:48Z</time>
  <course>287.96</course>
  <speed>0.022360679774997897</speed>
  <fix>3d</fix>
</trkpt>
<trkpt lat="-27.2744391" lon="151.2900636">
  <ele>343.09</ele>
  <time>2026-09-01T19:50:48Z</time>
  <course>84.34</course>
  <speed>0.0</speed>
  <fix>3d</fix>
</trkpt>
<trkpt lat="-27.274439" lon="151.2900638">
  <ele>343.11</ele>
  <time>2026-09-01T19:50:48Z</time>
  <course>287.96</course>
  <speed>0.022360679774997897</speed>
  <fix>3d</fix>
</trkpt>
<trkpt lat="-27.2744391" lon="151.2900636">
  <ele>343.09</ele>
  <time>2026-09-01T19:50:48Z</time>
  <course>84.34</course>
  <speed>0.0</speed>
  <fix>3d</fix>
</trkpt>
<trkpt lat="-27.274439" lon="151.2900638">
  <ele>343.11</ele>
  <time>2026-09-01T19:50:48Z</time>
  <course>287.96</course>
  <speed>0.022360679774997897</speed>
  <fix>3d</fix>
</trkpt>
<trkpt lat="-27.2744391" lon="151.2900636">
  <ele>343.09</ele>
  <time>2026-09-01T19:50:48Z</time>
  <course>83.01</course>
  <speed>0.0</speed>
  <fix>3d</fix>
</trkpt>
<trkpt lat="-27.274439" lon="151.2900638">
  <ele>343.11</ele>
  <time>2026-09-01T19:50:48Z</time>
  <course>287.96</course>
  <speed>0.022360679774997897</speed>
  <fix>3d</fix>
</trkpt>
<trkpt lat="-27.2744391" lon="151.2900636">
  <ele>343.09</ele>
  <time>2026-09-01T19:50:48Z</time>
  <course>83.01</course>
  <speed>0.0</speed>
  <fix>3d</fix>
</trkpt>
<trkpt lat="-27.274439" lon="151.2900638">
  <ele>343.11</ele>
  <time>2026-09-01T19:50:48Z</time>
  <course>287.96</course>
  <speed>0.022360679774997897</speed>
  <fix>3d</fix>
</trkpt>
<trkpt lat="-27.2744391" lon="151.2900636">
  <ele>343.09</ele>
  <time>2026-09-01T19:50:48Z</time>
  <course>75.73</course>
  <speed>0.0</speed>
  <fix>3d</fix>
</trkpt>
<trkpt lat="-27.274439" lon="151.2900638">
  <ele>343.11</ele>
  <time>2026-09-01T19:50:48Z</time>
  <course>287.96</course>
  <speed>0.022360679774997897</speed>
  <fix>3d</fix>
</trkpt>
<trkpt lat="-27.2744391" lon="151.2900636">
  <ele>343.09</ele>
  <time>2026-09-01T19:50:48Z</time>
  <course>75.73</course>
  <speed>0.0</speed>
  <fix>3d</fix>
</trkpt>
<trkpt lat="-27.274439" lon="151.2900638">
  <ele>343.11</ele>
  <time>2026-09-01T19:50:48Z</time>
  <course>287.96</course>
  <speed>0.022360679774997897</speed>
  <fix>3d</fix>
</trkpt>
<trkpt lat="-27.2744391" lon="151.2900636">
  <ele>343.09</ele>
  <time>2026-09-01T19:50:48Z</time>
  <course>64.8</course>
  <speed>0.0</speed>
  <fix>3d</fix>
</trkpt>
<trkpt lat="-27.274439" lon="151.2900638">
  <ele>343.12</ele>
  <time>2026-09-01T19:50:48Z</time>
  <course>287.95</course>
  <speed>0.022360679774997897</speed>
  <fix>3d</fix>
</trkpt>
<trkpt lat="-27.2744391" lon="151.2900636">
  <ele>343.09</ele>
  <time>2026-09-01T19:50:48Z</time>
  <course>64.8</course>
  <speed>0.0</speed>
  <fix>3d</fix>
</trkpt>
<trkpt lat="-27.274439" lon="151.2900638">
  <ele>343.12</ele>
  <time>2026-09-01T19:50:48Z</time>
  <course>287.95</course>
  <speed>0.022360679774997897</speed>
  <fix>3d</fix>
</trkpt>
<trkpt lat="-27.2744391" lon="151.2900636">
  <ele>343.09</ele>
  <time>2026-09-01T19:50:48Z</time>
  <course>57.1</course>
  <speed>0.0</speed>
  <fix>3d</fix>
</trkpt>
<trkpt lat="-27.274439" lon="151.2900638">
  <ele>343.12</ele>
  <time>2026-09-01T19:50:48Z</time>
  <course>287.95</course>
  <speed>0.022360679774997897</speed>
  <fix>3d</fix>
</trkpt>
<trkpt lat="-27.2744391" lon="151.2900636">
  <ele>343.09</ele>
  <time>2026-09-01T19:50:48Z</time>
  <course>57.1</course>
  <speed>0.0</speed>
  <fix>3d</fix>
</trkpt>
<trkpt lat="-27.274439" lon="151.2900638">
  <ele>343.12</ele>
  <time>2026-09-01T19:50:48Z</time>
  <course>287.95</course>
  <speed>0.022360679774997897</speed>
  <fix>3d</fix>
</trkpt>
<trkpt lat="-27.2744391" lon="151.2900636">
  <ele>343.09</ele>
  <time>2026-09-01T19:50:48Z</time>
  <course>53.61</course>
  <speed>0.0</speed>
  <fix>3d</fix>
</trkpt>
<trkpt lat="-27.274439" lon="151.2900638">
  <ele>343.12</ele>
  <time>2026-09-01T19:50:48Z</time>
  <course>287.95</course>
  <speed>0.022360679774997897</speed>
  <fix>3d</fix>
</trkpt>
<trkpt lat="-27.2744391" lon="151.2900636">
  <ele>343.09</ele>
  <time>2026-09-01T19:50:48Z</time>
  <course>53.61</course>
  <speed>0.0</speed>
  <fix>3d</fix>
</trkpt>
<trkpt lat="-27.274439" lon="151.2900638">
  <ele>343.12</ele>
  <time>2026-09-01T19:50:48Z</time>
  <course>287.95</course>
  <speed>0.022360679774997897</speed>
  <fix>3d</fix>
</trkpt>
<trkpt lat="-27.2744391" lon="151.2900636">
  <ele>343.09</ele>
  <time>2026-09-01T19:50:48Z</time>
  <course>52.51</course>
  <speed>0.0</speed>
  <fix>3d</fix>
</trkpt>
<trkpt lat="-27.274439" lon="151.2900638">
  <ele>343.11</ele>
  <time>2026-09-01T19:50:48Z</time>
  <course>287.95</course>
  <speed>0.022360679774997897</speed>
  <fix>3d</fix>
</trkpt>
<trkpt lat="-27.2744391" lon="151.2900636">
  <ele>343.09</ele>
  <time>2026-09-01T19:50:48Z</time>
  <course>52.51</course>
  <speed>0.0</speed>
  <fix>3d</fix>
</trkpt>
<trkpt lat="-27.274439" lon="151.2900638">
  <ele>343.11</ele>
  <time>2026-09-01T19:50:48Z</time>
  <course>287.95</course>
  <speed>0.022360679774997897</speed>
  <fix>3d</fix>
</trkpt>
<trkpt lat="-27.2744391" lon="151.2900636">
  <ele>343.09</ele>
  <time>2026-09-01T19:50:48Z</time>
  <course>52.21</course>
  <speed>0.0</speed>
  <fix>3d</fix>
</trkpt>
<trkpt lat="-27.274439" lon="151.2900638">
  <ele>343.11</ele>
  <time>2026-09-01T19:50:48Z</time>
  <course>287.95</course>
  <speed>0.022360679774997897</speed>
  <fix>3d</fix>
</trkpt>
<trkpt lat="-27.2744391" lon="151.2900636">
  <ele>343.09</ele>
  <time>2026-09-01T19:50:48Z</time>
  <course>52.21</course>
  <speed>0.0</speed>
  <fix>3d</fix>
</trkpt>
<trkpt lat="-27.274439" lon="151.2900638">
  <ele>343.11</ele>
  <time>2026-09-01T19:50:48Z</time>
  <course>287.94</course>
  <speed>0.022360679774997897</speed>
  <fix>3d</fix>
</trkpt>
<trkpt lat="-27.2744391" lon="151.2900636">
  <ele>343.09</ele>
  <time>2026-09-01T19:50:48Z</time>
  <course>52.14</course>
  <speed>0.0</speed>
  <fix>3d</fix>
</trkpt>
<trkpt lat="-27.274439" lon="151.2900638">
  <ele>343.11</ele>
  <time>2026-09-01T19:50:48Z</time>
  <course>287.94</course>
  <speed>0.022360679774997897</speed>
  <fix>3d</fix>
</trkpt>
<trkpt lat="-27.2744391" lon="151.2900636">
  <ele>343.09</ele>
  <time>2026-09-01T19:50:48Z</time>
  <course>52.14</course>
  <speed>0.0</speed>
  <fix>3d</fix>
</trkpt>
<trkpt lat="-27.274439" lon="151.2900638">
  <ele>343.11</ele>
  <time>2026-09-01T19:50:48Z</time>
  <course>287.94</course>
  <speed>0.022360679774997897</speed>
  <fix>3d</fix>
</trkpt>
<trkpt lat="-27.2744391" lon="151.2900636">
  <ele>343.09</ele>
  <time>2026-09-01T19:50:48Z</time>
  <course>52.12</course>
  <speed>0.0</speed>
  <fix>3d</fix>
</trkpt>
<trkpt lat="-27.274439" lon="151.2900638">
  <ele>343.11</ele>
  <time>2026-09-01T19:50:48Z</time>
  <course>287.94</course>
  <speed>0.022360679774997897</speed>
  <fix>3d</fix>
</trkpt>
<trkpt lat="-27.2744391" lon="151.2900636">
  <ele>343.09</ele>
  <time>2026-09-01T19:50:48Z</time>
  <course>52.12</course>
  <speed>0.0</speed>
  <fix>3d</fix>
</trkpt>
<trkpt lat="-27.274439" lon="151.2900638">
  <ele>343.09</ele>
  <time>2026-09-01T19:50:48Z</time>
  <course>287.94</course>
  <speed>0.022360679774997897</speed>
  <fix>3d</fix>
</trkpt>
<trkpt lat="-27.2744391" lon="151.2900636">
  <ele>343.09</ele>
  <time>2026-09-01T19:50:48Z</time>
  <course>52.11</course>
  <speed>0.0</speed>
  <fix>3d</fix>
</trkpt>
<trkpt lat="-27.274439" lon="151.2900638">
  <ele>343.08</ele>
  <time>2026-09-01T19:50:48Z</time>
  <course>287.94</course>
  <speed>0.022360679774997897</speed>
  <fix>3d</fix>
</trkpt>
<trkpt lat="-27.2744391" lon="151.2900636">
  <ele>343.09</ele>
  <time>2026-09-01T19:50:48Z</time>
  <course>52.11</course>
  <speed>0.0</speed>
  <fix>3d</fix>
</trkpt>
<trkpt lat="-27.274439" lon="151.2900638">
  <ele>343.08</ele>
  <time>2026-09-01T19:50:48Z</time>
  <course>287.94</course>
  <speed>0.022360679774997897</speed>
  <fix>3d</fix>
</trkpt>
<trkpt lat="-27.2744391" lon="151.2900636">
  <ele>343.09</ele>
  <time>2026-09-01T19:50:48Z</time>
  <course>52.11</course>
  <speed>0.0</speed>
  <fix>3d</fix>
</trkpt>
<trkpt lat="-27.274439" lon="151.2900638">
  <ele>343.08</ele>
  <time>2026-09-01T19:50:48Z</time>
  <course>287.94</course>
  <speed>0.022360679774997897</speed>
  <fix>3d</fix>
</trkpt>
<trkpt lat="-27.2744391" lon="151.2900636">
  <ele>343.09</ele>
  <time>2026-09-01T19:50:48Z</time>
  <course>52.11</course>
  <speed>0.0</speed>
  <fix>3d</fix>
</trkpt>
<trkpt lat="-27.274439" lon="151.2900638">
  <ele>343.08</ele>
  <time>2026-09-01T19:50:48Z</time>
  <course>287.94</course>
  <speed>0.022360679774997897</speed>
  <fix>3d</fix>
</trkpt>
<trkpt lat="-27.2744391" lon="151.2900636">
  <ele>343.09</ele>
  <time>2026-09-01T19:50:48Z</time>
  <course>52.11</course>
  <speed>0.0</speed>
  <fix>3d</fix>
</trkpt>
<trkpt lat="-27.274439" lon="151.2900638">
  <ele>343.08</ele>
  <time>2026-09-01T19:50:48Z</time>
  <course>287.93</course>
  <speed>0.022360679774997897</speed>
  <fix>3d</fix>
</trkpt>
<trkpt lat="-27.2744391" lon="151.2900636">
  <ele>343.09</ele>
  <time>2026-09-01T19:50:48Z</time>
  <course>52.11</course>
  <speed>0.0</speed>
  <fix>3d</fix>
</trkpt>
<trkpt lat="-27.274439" lon="151.2900638">
  <ele>343.07</ele>
  <time>2026-09-01T19:50:48Z</time>
  <course>287.93</course>
  <speed>0.022360679774997897</speed>
  <fix>3d</fix>
</trkpt>
<trkpt lat="-27.2744391" lon="151.2900636">
  <ele>343.09</ele>
  <time>2026-09-01T19:50:48Z</time>
  <course>52.11</course>
  <speed>0.0</speed>
  <fix>3d</fix>
</trkpt>
<trkpt lat="-27.274439" lon="151.2900638">
  <ele>343.07</ele>
  <time>2026-09-01T19:50:48Z</time>
  <course>287.93</course>
  <speed>0.022360679774997897</speed>
  <fix>3d</fix>
</trkpt>
<trkpt lat="-27.2744391" lon="151.2900636">
  <ele>343.09</ele>
  <time>2026-09-01T19:50:48Z</time>
  <course>52.11</course>
  <speed>0.0</speed>
  <fix>3d</fix>
</trkpt>
<trkpt lat="-27.274439" lon="151.2900638">
  <ele>343.07</ele>
  <time>2026-09-01T19:50:48Z</time>
  <course>287.93</course>
  <speed>0.022360679774997897</speed>
  <fix>3d</fix>
</trkpt>
<trkpt lat="-27.2744391" lon="151.2900636">
  <ele>343.09</ele>
  <time>2026-09-01T19:50:48Z</time>
  <course>52.11</course>
  <speed>0.0</speed>
  <fix>3d</fix>
</trkpt>
<trkpt lat="-27.274439" lon="151.2900638">
  <ele>343.06</ele>
  <time>2026-09-01T19:50:48Z</time>
  <course>287.93</course>
  <speed>0.022360679774997897</speed>
  <fix>3d</fix>
</trkpt>
<trkpt lat="-27.2744391" lon="151.2900636">
  <ele>343.09</ele>
  <time>2026-09-01T19:50:48Z</time>
  <course>52.11</course>
  <speed>0.0</speed>
  <fix>3d</fix>
</trkpt>
<trkpt lat="-27.274439" lon="151.2900638">
  <ele>343.06</ele>
  <time>2026-09-01T19:50:48Z</time>
  <course>287.93</course>
  <speed>0.022360679774997897</speed>
  <fix>3d</fix>
</trkpt>
<trkpt lat="-27.2744391" lon="151.2900636">
  <ele>343.09</ele>
  <time>2026-09-01T19:50:48Z</time>
  <course>52.27</course>
  <speed>0.0</speed>
  <fix>3d</fix>
</trkpt>
<trkpt lat="-27.274439" lon="151.2900638">
  <ele>343.06</ele>
  <time>2026-09-01T19:50:48Z</time>
  <course>287.93</course>
  <speed>0.022360679774997897</speed>
  <fix>3d</fix>
</trkpt>
<trkpt lat="-27.274439" lon="151.2900638">
  <ele>343.06</ele>
  <time>2026-09-01T19:50:48Z</time>
  <course>287.93</course>
  <speed>0.022360679774997897</speed>
  <fix>3d</fix>
</trkpt>
<trkpt lat="-27.2744391" lon="151.2900636">
  <ele>343.09</ele>
  <time>2026-09-01T19:50:48Z</time>
  <course>52.27</course>
  <speed>0.0</speed>
  <fix>3d</fix>
</trkpt>
<trkpt lat="-27.274439" lon="151.2900638">
  <ele>343.06</ele>
  <time>2026-09-01T19:50:48Z</time>
  <course>287.93</course>
  <speed>0.022360679774997897</speed>
  <fix>3d</fix>
</trkpt>
<trkpt lat="-27.274439" lon="151.2900638">
  <ele>343.06</ele>
  <time>2026-09-01T19:50:48Z</time>
  <course>287.93</course>
  <speed>0.022360679774997897</speed>
  <fix>3d</fix>
</trkpt>
<trkpt lat="-27.2744391" lon="151.2900636">
  <ele>343.09</ele>
  <time>2026-09-01T19:50:48Z</time>
  <course>67.33</course>
  <speed>0.0</speed>
  <fix>3d</fix>
</trkpt>
<trkpt lat="-27.274439" lon="151.2900638">
  <ele>343.06</ele>
  <time>2026-09-01T19:50:48Z</time>
  <course>287.93</course>
  <speed>0.022360679774997897</speed>
  <fix>3d</fix>
</trkpt>
<trkpt lat="-27.274439" lon="151.2900638">
  <ele>343.06</ele>
  <time>2026-09-01T19:50:48Z</time>
  <course>287.93</course>
  <speed>0.022360679774997897</speed>
  <fix>3d</fix>
</trkpt>
<trkpt lat="-27.2744391" lon="151.2900636">
  <ele>343.09</ele>
  <time>2026-09-01T19:50:48Z</time>
  <course>67.33</course>
  <speed>0.0</speed>
  <fix>3d</fix>
</trkpt>
<trkpt lat="-27.274439" lon="151.2900638">
  <ele>343.06</ele>
  <time>2026-09-01T19:50:48Z</time>
  <course>287.93</course>
  <speed>0.022360679774997897</speed>
  <fix>3d</fix>
</trkpt>
<trkpt lat="-27.274439" lon="151.2900638">
  <ele>343.05</ele>
  <time>2026-09-01T19:50:48Z</time>
  <course>287.92</course>
  <speed>0.022360679774997897</speed>
  <fix>3d</fix>
</trkpt>
<trkpt lat="-27.2744391" lon="151.2900636">
  <ele>343.09</ele>
  <time>2026-09-01T19:50:48Z</time>
  <course>67.6</course>
  <speed>0.0</speed>
  <fix>3d</fix>
</trkpt>
<trkpt lat="-27.274439" lon="151.2900638">
  <ele>343.05</ele>
  <time>2026-09-01T19:50:48Z</time>
  <course>287.92</course>
  <speed>0.022360679774997897</speed>
  <fix>3d</fix>
</trkpt>
<trkpt lat="-27.274439" lon="151.2900638">
  <ele>343.05</ele>
  <time>2026-09-01T19:50:48Z</time>
  <course>287.92</course>
  <speed>0.022360679774997897</speed>
  <fix>3d</fix>
</trkpt>
<trkpt lat="-27.2744391" lon="151.2900636">
  <ele>343.09</ele>
  <time>2026-09-01T19:50:48Z</time>
  <course>67.6</course>
  <speed>0.0</speed>
  <fix>3d</fix>
</trkpt>
<trkpt lat="-27.274439" lon="151.2900638">
  <ele>343.05</ele>
  <time>2026-09-01T19:50:48Z</time>
  <course>287.92</course>
  <speed>0.022360679774997897</speed>
  <fix>3d</fix>
</trkpt>
<trkpt lat="-27.274439" lon="151.2900638">
  <ele>343.05</ele>
  <time>2026-09-01T19:50:48Z</time>
  <course>287.92</course>
  <speed>0.022360679774997897</speed>
  <fix>3d</fix>
</trkpt>
<trkpt lat="-27.2744391" lon="151.2900636">
  <ele>343.09</ele>
  <time>2026-09-01T19:50:48Z</time>
  <course>68.62</course>
  <speed>0.0</speed>
  <fix>3d</fix>
</trkpt>
<trkpt lat="-27.274439" lon="151.2900638">
  <ele>343.05</ele>
  <time>2026-09-01T19:50:48Z</time>
  <course>287.92</course>
  <speed>0.022360679774997897</speed>
  <fix>3d</fix>
</trkpt>
<trkpt lat="-27.274439" lon="151.2900638">
  <ele>343.05</ele>
  <time>2026-09-01T19:50:48Z</time>
  <course>287.92</course>
  <speed>0.022360679774997897</speed>
  <fix>3d</fix>
</trkpt>
<trkpt lat="-27.2744391" lon="151.2900636">
  <ele>343.09</ele>
  <time>2026-09-01T19:50:48Z</time>
  <course>68.62</course>
  <speed>0.0</speed>
  <fix>3d</fix>
</trkpt>
<trkpt lat="-27.274439" lon="151.2900638">
  <ele>343.05</ele>
  <time>2026-09-01T19:50:48Z</time>
  <course>287.92</course>
  <speed>0.022360679774997897</speed>
  <fix>3d</fix>
</trkpt>
<trkpt lat="-27.274439" lon="151.2900638">
  <ele>343.05</ele>
  <time>2026-09-01T19:50:48Z</time>
  <course>287.92</course>
  <speed>0.022360679774997897</speed>
  <fix>3d</fix>
</trkpt>
<trkpt lat="-27.2744391" lon="151.2900636">
  <ele>343.09</ele>
  <time>2026-09-01T19:50:48Z</time>
  <course>237.51</course>
  <speed>0.0</speed>
  <fix>3d</fix>
</trkpt>
<trkpt lat="-27.274439" lon="151.2900638">
  <ele>343.05</ele>
  <time>2026-09-01T19:50:48Z</time>
  <course>287.92</course>
  <speed>0.022360679774997897</speed>
  <fix>3d</fix>
</trkpt>
<trkpt lat="-27.274439" lon="151.2900638">
  <ele>343.05</ele>
  <time>2026-09-01T19:50:48Z</time>
  <course>287.92</course>
  <speed>0.022360679774997897</speed>
  <fix>3d</fix>
</trkpt>
<trkpt lat="-27.2744391" lon="151.2900636">
  <ele>343.09</ele>
  <time>2026-09-01T19:50:48Z</time>
  <course>237.51</course>
  <speed>0.0</speed>
  <fix>3d</fix>
</trkpt>
<trkpt lat="-27.274439" lon="151.2900638">
  <ele>343.05</ele>
  <time>2026-09-01T19:50:48Z</time>
  <course>287.92</course>
  <speed>0.022360679774997897</speed>
  <fix>3d</fix>
</trkpt>
<trkpt lat="-27.274439" lon="151.2900638">
  <ele>343.05</ele>
  <time>2026-09-01T19:50:48Z</time>
  <course>287.92</course>
  <speed>0.022360679774997897</speed>
  <fix>3d</fix>
</trkpt>
<trkpt lat="-27.2744391" lon="151.2900636">
  <ele>343.09</ele>
  <time>2026-09-01T19:50:48Z</time>
  <course>245.03</course>
  <speed>0.0</speed>
  <fix>3d</fix>
</trkpt>
<trkpt lat="-27.274439" lon="151.2900638">
  <ele>343.05</ele>
  <time>2026-09-01T19:50:48Z</time>
  <course>287.92</course>
  <speed>0.022360679774997897</speed>
  <fix>3d</fix>
</trkpt>
<trkpt lat="-27.274439" lon="151.2900638">
  <ele>343.04</ele>
  <time>2026-09-01T19:50:48Z</time>
  <course>287.92</course>
  <speed>0.022360679774997897</speed>
  <fix>3d</fix>
</trkpt>
<trkpt lat="-27.2744391" lon="151.2900636">
  <ele>343.09</ele>
  <time>2026-09-01T19:50:48Z</time>
  <course>245.03</course>
  <speed>0.0</speed>
  <fix>3d</fix>
</trkpt>
<trkpt lat="-27.274439" lon="151.2900638">
  <ele>343.04</ele>
  <time>2026-09-01T19:50:48Z</time>
  <course>287.92</course>
  <speed>0.022360679774997897</speed>
  <fix>3d</fix>
</trkpt>
<trkpt lat="-27.274439" lon="151.2900638">
  <ele>343.05</ele>
  <time>2026-09-01T19:50:48Z</time>
  <course>287.92</course>
  <speed>0.022360679774997897</speed>
  <fix>3d</fix>
</trkpt>
<trkpt lat="-27.2744391" lon="151.2900636">
  <ele>343.09</ele>
  <time>2026-09-01T19:50:48Z</time>
  <course>260.06</course>
  <speed>0.0</speed>
  <fix>3d</fix>
</trkpt>
<trkpt lat="-27.274439" lon="151.2900638">
  <ele>343.05</ele>
  <time>2026-09-01T19:50:48Z</time>
  <course>287.92</course>
  <speed>0.022360679774997897</speed>
  <fix>3d</fix>
</trkpt>
<trkpt lat="-27.274439" lon="151.2900638">
  <ele>343.08</ele>
  <time>2026-09-01T19:50:48Z</time>
  <course>287.91</course>
  <speed>0.022360679774997897</speed>
  <fix>3d</fix>
</trkpt>
<trkpt lat="-27.2744391" lon="151.2900636">
  <ele>343.09</ele>
  <time>2026-09-01T19:50:48Z</time>
  <course>260.06</course>
  <speed>0.0</speed>
  <fix>3d</fix>
</trkpt>
<trkpt lat="-27.274439" lon="151.2900638">
  <ele>343.08</ele>
  <time>2026-09-01T19:50:48Z</time>
  <course>287.91</course>
  <speed>0.022360679774997897</speed>
  <fix>3d</fix>
</trkpt>
<trkpt lat="-27.274439" lon="151.2900638">
  <ele>343.12</ele>
  <time>2026-09-01T19:50:48Z</time>
  <course>287.91</course>
  <speed>0.022360679774997897</speed>
  <fix>3d</fix>
</trkpt>
<trkpt lat="-27.2744391" lon="151.2900636">
  <ele>343.12</ele>
  <time>2026-09-01T19:50:48Z</time>
  <course>287.02</course>
  <speed>0.0</speed>
  <fix>3d</fix>
</trkpt>
<trkpt lat="-27.274439" lon="151.2900638">
  <ele>343.14</ele>
  <time>2026-09-01T19:50:48Z</time>
  <course>287.91</course>
  <speed>0.022360679774997897</speed>
  <fix>3d</fix>
</trkpt>
<trkpt lat="-27.274439" lon="151.2900638">
  <ele>343.19</ele>
  <time>2026-09-01T19:50:48Z</time>
  <course>287.92</course>
  <speed>0.01414213562373095</speed>
  <fix>3d</fix>
</trkpt>
<trkpt lat="-27.2744391" lon="151.2900636">
  <ele>343.12</ele>
  <time>2026-09-01T19:50:48Z</time>
  <course>287.02</course>
  <speed>0.0</speed>
  <fix>3d</fix>
</trkpt>
<trkpt lat="-27.274439" lon="151.2900638">
  <ele>343.22</ele>
  <time>2026-09-01T19:50:48Z</time>
  <course>287.92</course>
  <speed>0.01</speed>
  <fix>3d</fix>
</trkpt>
<trkpt lat="-27.274439" lon="151.2900638">
  <ele>343.33</ele>
  <time>2026-09-01T19:50:48Z</time>
  <course>287.94</course>
  <speed>0.022360679774997897</speed>
  <fix>3d</fix>
</trkpt>
<trkpt lat="-27.2744391" lon="151.2900636">
  <ele>343.2</ele>
  <time>2026-09-01T19:50:48Z</time>
  <course>280.22</course>
  <speed>0.0</speed>
  <fix>3d</fix>
</trkpt>
<trkpt lat="-27.274439" lon="151.2900638">
  <ele>343.38</ele>
  <time>2026-09-01T19:50:48Z</time>
  <course>287.94</course>
  <speed>0.0282842712474619</speed>
  <fix>3d</fix>
</trkpt>
<trkpt lat="-27.274439" lon="151.2900638">
  <ele>343.53</ele>
  <time>2026-09-01T19:50:48Z</time>
  <course>287.95</course>
  <speed>0.05830951894845301</speed>
  <fix>3d</fix>
</trkpt>
<trkpt lat="-27.2744391" lon="151.2900636">
  <ele>343.2</ele>
  <time>2026-09-01T19:50:48Z</time>
  <course>280.22</course>
  <speed>0.0</speed>
  <fix>3d</fix>
</trkpt>
<trkpt lat="-27.274439" lon="151.2900638">
  <ele>343.54</ele>
  <time>2026-09-01T19:50:48Z</time>
  <course>287.95</course>
  <speed>0.0670820393249937</speed>
  <fix>3d</fix>
</trkpt>
<trkpt lat="-27.274439" lon="151.2900637">
  <ele>343.77</ele>
  <time>2026-09-01T19:50:48Z</time>
  <course>287.94</course>
  <speed>0.10770329614269007</speed>
  <fix>3d</fix>
</trkpt>
<trkpt lat="-27.2744391" lon="151.2900635">
  <ele>343.43</ele>
  <time>2026-09-01T19:50:48Z</time>
  <course>280.07</course>
  <speed>0.05</speed>
  <fix>3d</fix>
</trkpt>
<trkpt lat="-27.274439" lon="151.2900637">
  <ele>343.78</ele>
  <time>2026-09-01T19:50:48Z</time>
  <course>287.94</course>
  <speed>0.10770329614269007</speed>
  <fix>3d</fix>
</trkpt>
<trkpt lat="-27.274439" lon="151.2900635">
  <ele>344.04</ele>
  <time>2026-09-01T19:50:48Z</time>
  <course>287.92</course>
  <speed>0.15811388300841897</speed>
  <fix>3d</fix>
</trkpt>
<trkpt lat="-27.2744391" lon="151.2900635">
  <ele>343.43</ele>
  <time>2026-09-01T19:50:48Z</time>
  <course>280.07</course>
  <speed>0.05</speed>
  <fix>3d</fix>
</trkpt>
<trkpt lat="-27.274439" lon="151.2900635">
  <ele>344.11</ele>
  <time>2026-09-01T19:50:48Z</time>
  <course>287.91</course>
  <speed>0.1676305461424021</speed>
  <fix>3d</fix>
</trkpt>
<trkpt lat="-27.2744389" lon="151.2900633">
  <ele>344.31</ele>
  <time>2026-09-01T19:50:48Z</time>
  <course>287.87</course>
  <speed>0.19924858845171275</speed>
  <fix>3d</fix>
</trkpt>
<trkpt lat="-27.2744391" lon="151.2900633">
  <ele>343.85</ele>
  <time>2026-09-01T19:50:48Z</time>
  <course>281.1</course>
  <speed>0.14</speed>
  <fix>3d</fix>
</trkpt>
<trkpt lat="-27.2744389" lon="151.2900633">
  <ele>344.39</ele>
  <time>2026-09-01T19:50:48Z</time>
  <course>287.86</course>
  <speed>0.21189620100417092</speed>
  <fix>3d</fix>
</trkpt>
<trkpt lat="-27.2744389" lon="151.2900631">
  <ele>344.61</ele>
  <time>2026-09-01T19:50:48Z</time>
  <course>287.82</course>
  <speed>0.24351591323771843</speed>
  <fix>3d</fix>
</trkpt>
<trkpt lat="-27.2744391" lon="151.2900633">
  <ele>343.85</ele>
  <time>2026-09-01T19:50:48Z</time>
  <course>281.1</course>
  <speed>0.14</speed>
  <fix>3d</fix>
</trkpt>
<trkpt lat="-27.2744389" lon="151.290063">
  <ele>344.69</ele>
  <time>2026-09-01T19:50:48Z</time>
  <course>287.81</course>
  <speed>0.26248809496813374</speed>
  <fix>3d</fix>
</trkpt>
<trkpt lat="-27.2744388" lon="151.2900628">
  <ele>344.92</ele>
  <time>2026-09-01T19:50:48Z</time>
  <course>287.77</course>
  <speed>0.29410882339705485</speed>
  <fix>3d</fix>
</trkpt>
<trkpt lat="-27.274439" lon="151.2900629">
  <ele>344.4</ele>
  <time>2026-09-01T19:50:48Z</time>
  <course>282.27</course>
  <speed>0.23</speed>
  <fix>3d</fix>
</trkpt>
<trkpt lat="-27.2744388" lon="151.2900627">
  <ele>345.0</ele>
  <time>2026-09-01T19:50:48Z</time>
  <course>287.76</course>
  <speed>0.30364452901377953</speed>
  <fix>3d</fix>
</trkpt>
<trkpt lat="-27.2744387" lon="151.2900624">
  <ele>345.24</ele>
  <time>2026-09-01T19:50:48Z</time>
  <course>286.7</course>
  <speed>0.3352610922848042</speed>
  <fix>3d</fix>
</trkpt>
<trkpt lat="-27.274439" lon="151.2900629">
  <ele>344.4</ele>
  <time>2026-09-01T19:50:48Z</time>
  <course>282.27</course>
  <speed>0.23</speed>
  <fix>3d</fix>
</trkpt>
<trkpt lat="-27.2744387" lon="151.2900624">
  <ele>345.25</ele>
  <time>2026-09-01T19:50:48Z</time>
  <course>286.71</course>
  <speed>0.3352610922848042</speed>
  <fix>3d</fix>
</trkpt>
<trkpt lat="-27.2744386" lon="151.290062">
  <ele>345.57</ele>
  <time>2026-09-01T19:50:48Z</time>
  <course>287.01</course>
  <speed>0.3668787265568828</speed>
  <fix>3d</fix>
</trkpt>
<trkpt lat="-27.2744389" lon="151.2900624">
  <ele>345.0</ele>
  <time>2026-09-01T19:50:48Z</time>
  <course>283.28</course>
  <speed>0.32</speed>
  <fix>3d</fix>
</trkpt>
<trkpt lat="-27.2744386" lon="151.290062">
  <ele>345.59</ele>
  <time>2026-09-01T19:50:48Z</time>
  <course>287.02</course>
  <speed>0.3668787265568828</speed>
  <fix>3d</fix>
</trkpt>
<trkpt lat="-27.2744386" lon="151.2900616">
  <ele>345.91</ele>
  <time>2026-09-01T19:50:48Z</time>
  <course>287.15</course>
  <speed>0.3984971769034255</speed>
  <fix>3d</fix>
</trkpt>
<trkpt lat="-27.2744389" lon="151.2900624">
  <ele>345.0</ele>
  <time>2026-09-01T19:50:48Z</time>
  <course>283.28</course>
  <speed>0.32</speed>
  <fix>3d</fix>
</trkpt>
<trkpt lat="-27.2744385" lon="151.2900615">
  <ele>346.0</ele>
  <time>2026-09-01T19:50:48Z</time>
  <course>287.15</course>
  <speed>0.4080441152620633</speed>
  <fix>3d</fix>
</trkpt>
<trkpt lat="-27.2744385" lon="151.2900612">
  <ele>346.25</ele>
  <time>2026-09-01T19:50:48Z</time>
  <course>287.08</course>
  <speed>0.4301162633521314</speed>
  <fix>3d</fix>
</trkpt>
<trkpt lat="-27.2744388" lon="151.2900617">
  <ele>345.65</ele>
  <time>2026-09-01T19:50:48Z</time>
  <course>284.05</course>
  <speed>0.4</speed>
  <fix>3d</fix>
</trkpt>
<trkpt lat="-27.2744385" lon="151.2900612">
  <ele>346.26</ele>
  <time>2026-09-01T19:50:48Z</time>
  <course>287.08</course>
  <speed>0.4301162633521314</speed>
  <fix>3d</fix>
</trkpt>
<trkpt lat="-27.2744384" lon="151.2900607">
  <ele>346.58</ele>
  <time>2026-09-01T19:50:48Z</time>
  <course>286.91</course>
  <speed>0.44922154890432403</speed>
  <fix>3d</fix>
</trkpt>
<trkpt lat="-27.2744388" lon="151.2900617">
  <ele>345.65</ele>
  <time>2026-09-01T19:50:48Z</time>
  <course>284.05</course>
  <speed>0.4</speed>
  <fix>3d</fix>
</trkpt>
<trkpt lat="-27.2744383" lon="151.2900606">
  <ele>346.67</ele>
  <time>2026-09-01T19:50:48Z</time>
  <course>286.86</course>
  <speed>0.4522167621838005</speed>
  <fix>3d</fix>
</trkpt>
<trkpt lat="-27.2744382" lon="151.2900603">
  <ele>346.91</ele>
  <time>2026-09-01T19:50:48Z</time>
  <course>286.71</course>
  <speed>0.4617358552246078</speed>
  <fix>3d</fix>
</trkpt>
<trkpt lat="-27.2744385" lon="151.2900608">
  <ele>346.32</ele>
  <time>2026-09-01T19:50:48Z</time>
  <course>284.52</course>
  <speed>0.46</speed>
  <fix>3d</fix>
</trkpt>
<trkpt lat="-27.2744382" lon="151.2900603">
  <ele>346.93</ele>
  <time>2026-09-01T19:50:48Z</time>
  <course>286.7</course>
  <speed>0.4617358552246078</speed>
  <fix>3d</fix>
</trkpt>
<trkpt lat="-27.2744381" lon="151.2900598">
  <ele>347.24</ele>
  <time>2026-09-01T19:50:48Z</time>
  <course>286.54</course>
  <speed>0.4712748667179272</speed>
  <fix>3d</fix>
</trkpt>
<trkpt lat="-27.2744385" lon="151.2900608">
  <ele>346.32</ele>
  <time>2026-09-01T19:50:48Z</time>
  <course>284.52</course>
  <speed>0.46</speed>
  <fix>3d</fix>
</trkpt>
<trkpt lat="-27.2744381" lon="151.2900598">
  <ele>347.26</ele>
  <time>2026-09-01T19:50:48Z</time>
  <course>286.53</course>
  <speed>0.4712748667179272</speed>
  <fix>3d</fix>
</trkpt>
<trkpt lat="-27.274438" lon="151.2900593">
  <ele>347.57</ele>
  <time>2026-09-01T19:50:48Z</time>
  <course>286.41</course>
  <speed>0.4712748667179272</speed>
  <fix>3d</fix>
</trkpt>
<trkpt lat="-27.2744384" lon="151.2900599">
  <ele>346.99</ele>
  <time>2026-09-01T19:50:48Z</time>
  <course>284.72</course>
  <speed>0.49</speed>
  <fix>3d</fix>
</trkpt>
<trkpt lat="-27.274438" lon="151.2900592">
  <ele>347.64</ele>
  <time>2026-09-01T19:50:48Z</time>
  <course>286.39</course>
  <speed>0.4712748667179272</speed>
  <fix>3d</fix>
</trkpt>
<trkpt lat="-27.2744379" lon="151.2900588">
  <ele>347.88</ele>
  <time>2026-09-01T19:50:48Z</time>
  <course>286.35</course>
  <speed>0.4617358552246078</speed>
  <fix>3d</fix>
</trkpt>
<trkpt lat="-27.2744384" lon="151.2900599">
  <ele>346.99</ele>
  <time>2026-09-01T19:50:48Z</time>
  <course>284.72</course>
  <speed>0.49</speed>
  <fix>3d</fix>
</trkpt>
<trkpt lat="-27.2744379" lon="151.2900587">
  <ele>347.96</ele>
  <time>2026-09-01T19:50:48Z</time>
  <course>286.34</course>
  <speed>0.45880278987817846</speed>
  <fix>3d</fix>
</trkpt>
<trkpt lat="-27.2744378" lon="151.2900583">
  <ele>348.19</ele>
  <time>2026-09-01T19:50:48Z</time>
  <course>286.32</course>
  <speed>0.44922154890432403</speed>
  <fix>3d</fix>
</trkpt>
<trkpt lat="-27.2744381" lon="151.2900589">
  <ele>347.64</ele>
  <time>2026-09-01T19:50:48Z</time>
  <course>284.72</course>
  <speed>0.5</speed>
  <fix>3d</fix>
</trkpt>
<trkpt lat="-27.2744378" lon="151.2900582">
  <ele>348.26</ele>
  <time>2026-09-01T19:50:48Z</time>
  <course>286.32</course>
  <speed>0.44922154890432403</speed>
  <fix>3d</fix>
</trkpt>
<trkpt lat="-27.2744377" lon="151.2900579">
  <ele>348.49</ele>
  <time>2026-09-01T19:50:48Z</time>
  <course>286.34</course>
  <speed>0.42720018726587655</speed>
  <fix>3d</fix>
</trkpt>
<trkpt lat="-27.2744381" lon="151.2900589">
  <ele>347.64</ele>
  <time>2026-09-01T19:50:48Z</time>
  <course>284.72</course>
  <speed>0.5</speed>
  <fix>3d</fix>
</trkpt>
<trkpt lat="-27.2744377" lon="151.2900578">
  <ele>348.56</ele>
  <time>2026-09-01T19:50:48Z</time>
  <course>286.35</course>
  <speed>0.42720018726587655</speed>
  <fix>3d</fix>
</trkpt>
<trkpt lat="-27.2744376" lon="151.2900574">
  <ele>348.78</ele>
  <time>2026-09-01T19:50:48Z</time>
  <course>286.37</course>
  <speed>0.4080441152620633</speed>
  <fix>3d</fix>
</trkpt>
<trkpt lat="-27.2744379" lon="151.2900579">
  <ele>348.26</ele>
  <time>2026-09-01T19:50:48Z</time>
  <course>284.58</course>
  <speed>0.48</speed>
  <fix>3d</fix>
</trkpt>
<trkpt lat="-27.2744376" lon="151.2900574">
  <ele>348.79</ele>
  <time>2026-09-01T19:50:48Z</time>
  <course>286.37</course>
  <speed>0.4080441152620633</speed>
  <fix>3d</fix>
</trkpt>
<trkpt lat="-27.2744375" lon="151.290057">
  <ele>349.06</ele>
  <time>2026-09-01T19:50:48Z</time>
  <course>286.41</course>
  <speed>0.3764306044943742</speed>
  <fix>3d</fix>
</trkpt>
<trkpt lat="-27.2744379" lon="151.2900579">
  <ele>348.26</ele>
  <time>2026-09-01T19:50:48Z</time>
  <course>284.58</course>
  <speed>0.48</speed>
  <fix>3d</fix>
</trkpt>
<trkpt lat="-27.2744375" lon="151.290057">
  <ele>349.08</ele>
  <time>2026-09-01T19:50:48Z</time>
  <course>286.41</course>
  <speed>0.3764306044943742</speed>
  <fix>3d</fix>
</trkpt>
<trkpt lat="-27.2744374" lon="151.2900566">
  <ele>349.34</ele>
  <time>2026-09-01T19:50:48Z</time>
  <course>286.44</course>
  <speed>0.34481879299133333</speed>
  <fix>3d</fix>
</trkpt>
<trkpt lat="-27.2744377" lon="151.290057">
  <ele>348.84</ele>
  <time>2026-09-01T19:50:48Z</time>
  <course>284.38</course>
  <speed>0.44</speed>
  <fix>3d</fix>
</trkpt>
<trkpt lat="-27.2744374" lon="151.2900565">
  <ele>349.41</ele>
  <time>2026-09-01T19:50:48Z</time>
  <course>286.45</course>
  <speed>0.3352610922848042</speed>
  <fix>3d</fix>
</trkpt>
<trkpt lat="-27.2744374" lon="151.2900563">
  <ele>349.61</ele>
  <time>2026-09-01T19:50:48Z</time>
  <course>286.48</course>
  <speed>0.3132091952673165</speed>
  <fix>3d</fix>
</trkpt>
<trkpt lat="-27.2744377" lon="151.290057">
  <ele>348.84</ele>
  <time>2026-09-01T19:50:48Z</time>
  <course>284.38</course>
  <speed>0.44</speed>
  <fix>3d</fix>
</trkpt>
<trkpt lat="-27.2744374" lon="151.2900563">
  <ele>349.61</ele>
  <time>2026-09-01T19:50:48Z</time>
  <course>286.48</course>
  <speed>0.3132091952673165</speed>
  <fix>3d</fix>
</trkpt>
<trkpt lat="-27.2744373" lon="151.2900559">
  <ele>349.87</ele>
  <time>2026-09-01T19:50:48Z</time>
  <course>286.51</course>
  <speed>0.2720294101747089</speed>
  <fix>3d</fix>
</trkpt>
<trkpt lat="-27.2744375" lon="151.2900562">
  <ele>349.39</ele>
  <time>2026-09-01T19:50:48Z</time>
  <course>284.15</course>
  <speed>0.38</speed>
  <fix>3d</fix>
</trkpt>
<trkpt lat="-27.2744373" lon="151.2900559">
  <ele>349.88</ele>
  <time>2026-09-01T19:50:48Z</time>
  <course>286.51</course>
  <speed>0.2720294101747089</speed>
  <fix>3d</fix>
</trkpt>
<trkpt lat="-27.2744373" lon="151.2900557">
  <ele>350.12</ele>
  <time>2026-09-01T19:50:48Z</time>
  <course>286.53</course>
  <speed>0.2308679276123039</speed>
  <fix>3d</fix>
</trkpt>
<trkpt lat="-27.2744375" lon="151.2900562">
  <ele>349.39</ele>
  <time>2026-09-01T19:50:48Z</time>
  <course>284.15</course>
  <speed>0.38</speed>
  <fix>3d</fix>
</trkpt>
<trkpt lat="-27.2744372" lon="151.2900556">
  <ele>350.19</ele>
  <time>2026-09-01T19:50:48Z</time>
  <course>286.54</course>
  <speed>0.21840329667841554</speed>
  <fix>3d</fix>
</trkpt>
<trkpt lat="-27.2744372" lon="151.2900554">
  <ele>350.37</ele>
  <time>2026-09-01T19:50:48Z</time>
  <course>286.55</course>
  <speed>0.18681541692269404</speed>
  <fix>3d</fix>
</trkpt>
<trkpt lat="-27.2744373" lon="151.2900556">
  <ele>349.91</ele>
  <time>2026-09-01T19:50:48Z</time>
  <course>283.89</course>
  <speed>0.3</speed>
  <fix>3d</fix>
</trkpt>
<trkpt lat="-27.2744372" lon="151.2900554">
  <ele>350.43</ele>
  <time>2026-09-01T19:50:48Z</time>
  <course>286.55</course>
  <speed>0.1772004514666935</speed>
  <fix>3d</fix>
</trkpt>
<trkpt lat="-27.2744372" lon="151.2900552">
  <ele>350.61</ele>
  <time>2026-09-01T19:50:48Z</time>
  <course>286.56</course>
  <speed>0.14560219778561037</speed>
  <fix>3d</fix>
</trkpt>
<trkpt lat="-27.2744373" lon="151.2900556">
  <ele>349.91</ele>
  <time>2026-09-01T19:50:48Z</time>
  <course>283.89</course>
  <speed>0.3</speed>
  <fix>3d</fix>
</trkpt>
<trkpt lat="-27.2744372" lon="151.2900552">
  <ele>350.68</ele>
  <time>2026-09-01T19:50:48Z</time>
  <course>286.56</course>
  <speed>0.13601470508735444</speed>
  <fix>3d</fix>
</trkpt>
<trkpt lat="-27.2744371" lon="151.2900551">
  <ele>350.86</ele>
  <time>2026-09-01T19:50:48Z</time>
  <course>286.57</course>
  <speed>0.1044030650891055</speed>
  <fix>3d</fix>
</trkpt>
<trkpt lat="-27.2744372" lon="151.290055">
  <ele>350.4</ele>
  <time>2026-09-01T19:50:48Z</time>
  <course>283.55</course>
  <speed>0.22</speed>
  <fix>3d</fix>
</trkpt>
<trkpt lat="-27.2744371" lon="151.290055">
  <ele>350.92</ele>
  <time>2026-09-01T19:50:48Z</time>
  <course>286.57</course>
  <speed>0.09486832980505139</speed>
  <fix>3d</fix>
</trkpt>
<trkpt lat="-27.2744371" lon="151.290055">
  <ele>351.09</ele>
  <time>2026-09-01T19:50:48Z</time>
  <course>286.57</course>
  <speed>0.0632455532033676</speed>
  <fix>3d</fix>
</trkpt>
<trkpt lat="-27.2744372" lon="151.290055">
  <ele>350.4</ele>
  <time>2026-09-01T19:50:48Z</time>
  <course>283.55</course>
  <speed>0.22</speed>
  <fix>3d</fix>
</trkpt>
<trkpt lat="-27.2744371" lon="151.2900549">
  <ele>351.15</ele>
  <time>2026-09-01T19:50:48Z</time>
  <course>286.57</course>
  <speed>0.044721359549995794</speed>
  <fix>3d</fix>
</trkpt>
<trkpt lat="-27.2744371" lon="151.2900549">
  <ele>351.33</ele>
  <time>2026-09-01T19:50:48Z</time>
  <course>286.57</course>
  <speed>0.022360679774997897</speed>
  <fix>3d</fix>
</trkpt>
<trkpt lat="-27.2744372" lon="151.2900546">
  <ele>350.89</ele>
  <time>2026-09-01T19:50:48Z</time>
  <course>282.97</course>
  <speed>0.13</speed>
  <fix>3d</fix>
</trkpt>
<trkpt lat="-27.2744371" lon="151.2900549">
  <ele>351.38</ele>
  <time>2026-09-01T19:50:48Z</time>
  <course>286.57</course>
  <speed>0.01414213562373095</speed>
  <fix>3d</fix>
</trkpt>
<trkpt lat="-27.2744371" lon="151.2900548">
  <ele>351.57</ele>
  <time>2026-09-01T19:50:49Z</time>
  <course>286.58</course>
  <speed>0.01</speed>
  <fix>3d</fix>
</trkpt>
<trkpt lat="-27.2744372" lon="151.2900546">
  <ele>350.89</ele>
  <time>2026-09-01T19:50:49Z</time>
  <course>282.97</course>
  <speed>0.13</speed>
  <fix>3d</fix>
</trkpt>
<trkpt lat="-27.2744371" lon="151.2900548">
  <ele>351.57</ele>
  <time>2026-09-01T19:50:49Z</time>
  <course>286.58</course>
  <speed>0.01</speed>
  <fix>3d</fix>
</trkpt>
<trkpt lat="-27.2744371" lon="151.2900548">
  <ele>351.8</ele>
  <time>2026-09-01T19:50:49Z</time>
  <course>286.58</course>
  <speed>0.05</speed>
  <fix>3d</fix>
</trkpt>
<trkpt lat="-27.2744371" lon="151.2900545">
  <ele>351.36</ele>
  <time>2026-09-01T19:50:49Z</time>
  <course>281.09</course>
  <speed>0.05</speed>
  <fix>3d</fix>
</trkpt>
<trkpt lat="-27.2744371" lon="151.2900548">
  <ele>351.81</ele>
  <time>2026-09-01T19:50:49Z</time>
  <course>286.58</course>
  <speed>0.05</speed>
  <fix>3d</fix>
</trkpt>
<trkpt lat="-27.2744371" lon="151.2900549">
  <ele>352.04</ele>
  <time>2026-09-01T19:50:49Z</time>
  <course>286.59</course>
  <speed>0.08062257748298549</speed>
  <fix>3d</fix>
</trkpt>
<trkpt lat="-27.2744371" lon="151.2900545">
  <ele>351.36</ele>
  <time>2026-09-01T19:50:49Z</time>
  <course>281.09</course>
  <speed>0.05</speed>
  <fix>3d</fix>
</trkpt>
<trkpt lat="-27.2744371" lon="151.2900548">
  <ele>352.1</ele>
  <time>2026-09-01T19:50:49Z</time>
  <course>286.59</course>
  <speed>0.09055385138137417</speed>
  <fix>3d</fix>
</trkpt>
<trkpt lat="-27.2744371" lon="151.2900548">
  <ele>352.27</ele>
  <time>2026-09-01T19:50:49Z</time>
  <course>286.61</course>
  <speed>0.1118033988749895</speed>
  <fix>3d</fix>
</trkpt>
<trkpt lat="-27.2744371" lon="151.2900544">
  <ele>351.83</ele>
  <time>2026-09-01T19:50:49Z</time>
  <course>110.64</course>
  <speed>0.02</speed>
  <fix>3d</fix>
</trkpt>
<trkpt lat="-27.2744371" lon="151.2900549">
  <ele>352.33</ele>
  <time>2026-09-01T19:50:49Z</time>
  <course>286.61</course>
  <speed>0.12165525060596438</speed>
  <fix>3d</fix>
</trkpt>
<trkpt lat="-27.2744371" lon="151.2900549">
  <ele>352.51</ele>
  <time>2026-09-01T19:50:49Z</time>
  <course>286.63</course>
  <speed>0.1414213562373095</speed>
  <fix>3d</fix>
</trkpt>
<trkpt lat="-27.2744371" lon="151.2900544">
  <ele>351.83</ele>
  <time>2026-09-01T19:50:49Z</time>
  <course>110.64</course>
  <speed>0.02</speed>
  <fix>3d</fix>
</trkpt>
<trkpt lat="-27.2744371" lon="151.290055">
  <ele>352.57</ele>
  <time>2026-09-01T19:50:49Z</time>
  <course>286.63</course>
  <speed>0.1414213562373095</speed>
  <fix>3d</fix>
</trkpt>
<trkpt lat="-27.2744371" lon="151.290055">
  <ele>352.75</ele>
  <time>2026-09-01T19:50:49Z</time>
  <course>286.66</course>
  <speed>0.16278820596099705</speed>
  <fix>3d</fix>
</trkpt>
<trkpt lat="-27.2744372" lon="151.2900545">
  <ele>352.3</ele>
  <time>2026-09-01T19:50:49Z</time>
  <course>105.56</course>
  <speed>0.09</speed>
  <fix>3d</fix>
</trkpt>
<trkpt lat="-27.2744371" lon="151.2900551">
  <ele>352.81</ele>
  <time>2026-09-01T19:50:49Z</time>
  <course>286.67</course>
  <speed>0.17262676501632068</speed>
  <fix>3d</fix>
</trkpt>
<trkpt lat="-27.2744372" lon="151.2900552">
  <ele>352.99</ele>
  <time>2026-09-01T19:50:49Z</time>
  <course>286.71</course>
  <speed>0.18439088914585774</speed>
  <fix>3d</fix>
</trkpt>
<trkpt lat="-27.2744372" lon="151.2900545">
  <ele>352.3</ele>
  <time>2026-09-01T19:50:49Z</time>
  <course>105.56</course>
  <speed>0.09</speed>
  <fix>3d</fix>
</trkpt>
<trkpt lat="-27.2744372" lon="151.2900552">
  <ele>353.05</ele>
  <time>2026-09-01T19:50:49Z</time>
  <course>286.72</course>
  <speed>0.194164878389476</speed>
  <fix>3d</fix>
</trkpt>
<trkpt lat="-27.2744372" lon="151.2900553">
  <ele>353.23</ele>
  <time>2026-09-01T19:50:49Z</time>
  <course>286.78</course>
  <speed>0.2039607805437114</speed>
  <fix>3d</fix>
</trkpt>
<trkpt lat="-27.2744372" lon="151.2900547">
  <ele>352.78</ele>
  <time>2026-09-01T19:50:49Z</time>
  <course>105.3</course>
  <speed>0.14</speed>
  <fix>3d</fix>
</trkpt>
<trkpt lat="-27.2744372" lon="151.2900554">
  <ele>353.29</ele>
  <time>2026-09-01T19:50:49Z</time>
  <course>286.79</course>
  <speed>0.21377558326431947</speed>
  <fix>3d</fix>
</trkpt>
<trkpt lat="-27.2744373" lon="151.2900555">
  <ele>353.48</ele>
  <time>2026-09-01T19:50:49Z</time>
  <course>286.84</course>
  <speed>0.2220360331117452</speed>
  <fix>3d</fix>
</trkpt>
<trkpt lat="-27.2744372" lon="151.2900547">
  <ele>352.78</ele>
  <time>2026-09-01T19:50:49Z</time>
  <course>105.3</course>
  <speed>0.14</speed>
  <fix>3d</fix>
</trkpt>
<trkpt lat="-27.2744373" lon="151.2900556">
  <ele>353.54</ele>
  <time>2026-09-01T19:50:49Z</time>
  <course>286.86</course>
  <speed>0.23194827009486402</speed>
  <fix>3d</fix>
</trkpt>
<trkpt lat="-27.2744373" lon="151.2900557">
  <ele>353.72</ele>
  <time>2026-09-01T19:50:49Z</time>
  <course>286.92</course>
  <speed>0.24186773244895649</speed>
  <fix>3d</fix>
</trkpt>
<trkpt lat="-27.2744372" lon="151.290055">
  <ele>353.26</ele>
  <time>2026-09-01T19:50:49Z</time>
  <course>105.57</course>
  <speed>0.18</speed>
  <fix>3d</fix>
</trkpt>
<trkpt lat="-27.2744373" lon="151.2900558">
  <ele>353.79</ele>
  <time>2026-09-01T19:50:49Z</time>
  <course>286.95</course>
  <speed>0.24331050121192876</speed>
  <fix>3d</fix>
</trkpt>
<trkpt lat="-27.2744373" lon="151.2900559">
  <ele>353.97</ele>
  <time>2026-09-01T19:50:49Z</time>
  <course>287.0</course>
  <speed>0.25179356624028343</speed>
  <fix>3d</fix>
</trkpt>
<trkpt lat="-27.2744372" lon="151.290055">
  <ele>353.26</ele>
  <time>2026-09-01T19:50:49Z</time>
  <course>105.57</course>
  <speed>0.18</speed>
  <fix>3d</fix>
</trkpt>
<trkpt lat="-27.2744373" lon="151.2900559">
  <ele>353.98</ele>
  <time>2026-09-01T19:50:49Z</time>
  <course>287.0</course>
  <speed>0.25179356624028343</speed>
  <fix>3d</fix>
</trkpt>
<trkpt lat="-27.2744374" lon="151.2900562">
  <ele>354.22</ele>
  <time>2026-09-01T19:50:49Z</time>
  <course>287.03</course>
  <speed>0.260768096208106</speed>
  <fix>3d</fix>
</trkpt>
<trkpt lat="-27.2744373" lon="151.2900554">
  <ele>353.75</ele>
  <time>2026-09-01T19:50:49Z</time>
  <course>106.36</course>
  <speed>0.21</speed>
  <fix>3d</fix>
</trkpt>
<trkpt lat="-27.2744374" lon="151.2900562">
  <ele>354.22</ele>
  <time>2026-09-01T19:50:49Z</time>
  <course>287.03</course>
  <speed>0.260768096208106</speed>
  <fix>3d</fix>
</trkpt>
<trkpt lat="-27.2744374" lon="151.2900564">
  <ele>354.47</ele>
  <time>2026-09-01T19:50:49Z</time>
  <course>287.05</course>
  <speed>0.2707397274136177</speed>
  <fix>3d</fix>
</trkpt>
<trkpt lat="-27.2744373" lon="151.2900554">
  <ele>353.75</ele>
  <time>2026-09-01T19:50:49Z</time>
  <course>106.36</course>
  <speed>0.21</speed>
  <fix>3d</fix>
</trkpt>
<trkpt lat="-27.2744374" lon="151.2900564">
  <ele>354.47</ele>
  <time>2026-09-01T19:50:49Z</time>
  <course>287.05</course>
  <speed>0.27018512172212594</speed>
  <fix>3d</fix>
</trkpt>
<trkpt lat="-27.2744374" lon="151.2900566">
  <ele>354.72</ele>
  <time>2026-09-01T19:50:49Z</time>
  <course>287.05</course>
  <speed>0.2707397274136177</speed>
  <fix>3d</fix>
</trkpt>
<trkpt lat="-27.2744374" lon="151.2900558">
  <ele>354.25</ele>
  <time>2026-09-01T19:50:49Z</time>
  <course>107.22</course>
  <speed>0.24</speed>
  <fix>3d</fix>
</trkpt>
<trkpt lat="-27.2744374" lon="151.2900567">
  <ele>354.8</ele>
  <time>2026-09-01T19:50:49Z</time>
  <course>287.05</course>
  <speed>0.27294688127912364</speed>
  <fix>3d</fix>
</trkpt>
<trkpt lat="-27.2744375" lon="151.2900569">
  <ele>354.97</ele>
  <time>2026-09-01T19:50:49Z</time>
  <course>287.01</course>
  <speed>0.26476404589747454</speed>
  <fix>3d</fix>
</trkpt>
<trkpt lat="-27.2744374" lon="151.2900558">
  <ele>354.25</ele>
  <time>2026-09-01T19:50:49Z</time>
  <course>107.22</course>
  <speed>0.24</speed>
  <fix>3d</fix>
</trkpt>
<trkpt lat="-27.2744375" lon="151.2900569">
  <ele>355.04</ele>
  <time>2026-09-01T19:50:49Z</time>
  <course>286.99</course>
  <speed>0.2668332812825267</speed>
  <fix>3d</fix>
</trkpt>
<trkpt lat="-27.2744375" lon="151.2900571">
  <ele>355.22</ele>
  <time>2026-09-01T19:50:49Z</time>
  <course>286.89</course>
  <speed>0.26476404589747454</speed>
  <fix>3d</fix>
</trkpt>
<trkpt lat="-27.2744375" lon="151.2900563">
  <ele>354.75</ele>
  <time>2026-09-01T19:50:49Z</time>
  <course>107.6</course>
  <speed>0.25</speed>
  <fix>3d</fix>
</trkpt>
<trkpt lat="-27.2744376" lon="151.2900571">
  <ele>355.29</ele>
  <time>2026-09-01T19:50:49Z</time>
  <course>286.85</course>
  <speed>0.2668332812825267</speed>
  <fix>3d</fix>
</trkpt>
<trkpt lat="-27.2744376" lon="151.2900573">
  <ele>355.48</ele>
  <time>2026-09-01T19:50:49Z</time>
  <course>286.72</course>
  <speed>0.26476404589747454</speed>
  <fix>3d</fix>
</trkpt>
<trkpt lat="-27.2744375" lon="151.2900563">
  <ele>354.75</ele>
  <time>2026-09-01T19:50:49Z</time>
  <course>107.6</course>
  <speed>0.25</speed>
  <fix>3d</fix>
</trkpt>
<trkpt lat="-27.2744376" lon="151.2900574">
  <ele>355.54</ele>
  <time>2026-09-01T19:50:49Z</time>
  <course>286.69</course>
  <speed>0.27294688127912364</speed>
  <fix>3d</fix>
</trkpt>
<trkpt lat="-27.2744377" lon="151.2900575">
  <ele>355.73</ele>
  <time>2026-09-01T19:50:49Z</time>
  <course>286.6</course>
  <speed>0.27294688127912364</speed>
  <fix>3d</fix>
</trkpt>
<trkpt lat="-27.2744377" lon="151.2900568">
  <ele>355.25</ele>
  <time>2026-09-01T19:50:49Z</time>
  <course>106.94</course>
  <speed>0.25</speed>
  <fix>3d</fix>
</trkpt>
<trkpt lat="-27.2744377" lon="151.2900576">
  <ele>355.79</ele>
  <time>2026-09-01T19:50:49Z</time>
  <course>286.58</course>
  <speed>0.27166155414412246</speed>
  <fix>3d</fix>
</trkpt>
<trkpt lat="-27.2744377" lon="151.2900578">
  <ele>355.98</ele>
  <time>2026-09-01T19:50:49Z</time>
  <course>286.57</course>
  <speed>0.27294688127912364</speed>
  <fix>3d</fix>
</trkpt>
<trkpt lat="-27.2744377" lon="151.2900568">
  <ele>355.25</ele>
  <time>2026-09-01T19:50:49Z</time>
  <course>106.94</course>
  <speed>0.25</speed>
  <fix>3d</fix>
</trkpt>
<trkpt lat="-27.2744377" lon="151.2900578">
  <ele>356.04</ele>
  <time>2026-09-01T19:50:49Z</time>
  <course>286.58</course>
  <speed>0.27294688127912364</speed>
  <fix>3d</fix>
</trkpt>
<trkpt lat="-27.2744378" lon="151.290058">
  <ele>356.23</ele>
  <time>2026-09-01T19:50:49Z</time>
  <course>286.62</course>
  <speed>0.26476404589747454</speed>
  <fix>3d</fix>
</trkpt>
<trkpt lat="-27.2744378" lon="151.2900573">
  <ele>355.76</ele>
  <time>2026-09-01T19:50:49Z</time>
  <course>106.23</course>
  <speed>0.26</speed>
  <fix>3d</fix>
</trkpt>
<trkpt lat="-27.2744378" lon="151.2900581">
  <ele>356.28</ele>
  <time>2026-09-01T19:50:49Z</time>
  <course>286.63</course>
  <speed>0.26305892875931813</speed>
  <fix>3d</fix>
</trkpt>
<trkpt lat="-27.2744378" lon="151.2900583">
  <ele>356.47</ele>
  <time>2026-09-01T19:50:49Z</time>
  <course>286.69</course>
  <speed>0.26476404589747454</speed>
  <fix>3d</fix>
</trkpt>
<trkpt lat="-27.2744378" lon="151.2900573">
  <ele>355.76</ele>
  <time>2026-09-01T19:50:49Z</time>
  <course>106.23</course>
  <speed>0.26</speed>
  <fix>3d</fix>
</trkpt>
<trkpt lat="-27.2744379" lon="151.2900583">
  <ele>356.53</ele>
  <time>2026-09-01T19:50:49Z</time>
  <course>286.7</course>
  <speed>0.2570992026436488</speed>
  <fix>3d</fix>
</trkpt>
<trkpt lat="-27.2744379" lon="151.2900585">
  <ele>356.7</ele>
  <time>2026-09-01T19:50:49Z</time>
  <course>286.73</course>
  <speed>0.2596150997149434</speed>
  <fix>3d</fix>
</trkpt>
<trkpt lat="-27.2744379" lon="151.2900578">
  <ele>356.26</ele>
  <time>2026-09-01T19:50:49Z</time>
  <course>106.51</course>
  <speed>0.25</speed>
  <fix>3d</fix>
</trkpt>
<trkpt lat="-27.2744379" lon="151.2900585">
  <ele>356.71</ele>
  <time>2026-09-01T19:50:49Z</time>
  <course>286.73</course>
  <speed>0.2596150997149434</speed>
  <fix>3d</fix>
</trkpt>
<trkpt lat="-27.274438" lon="151.2900587">
  <ele>356.93</ele>
  <time>2026-09-01T19:50:49Z</time>
  <course>286.73</course>
  <speed>0.2596150997149434</speed>
  <fix>3d</fix>
</trkpt>
<trkpt lat="-27.2744379" lon="151.2900578">
  <ele>356.26</ele>
  <time>2026-09-01T19:50:49Z</time>
  <course>106.51</course>
  <speed>0.25</speed>
  <fix>3d</fix>
</trkpt>
<trkpt lat="-27.274438" lon="151.2900587">
  <ele>356.94</ele>
  <time>2026-09-01T19:50:49Z</time>
  <course>286.73</course>
  <speed>0.2596150997149434</speed>
  <fix>3d</fix>
</trkpt>
<trkpt lat="-27.2744381" lon="151.2900589">
  <ele>357.14</ele>
  <time>2026-09-01T19:50:49Z</time>
  <course>286.72</course>
  <speed>0.2668332812825267</speed>
  <fix>3d</fix>
</trkpt>
<trkpt lat="-27.2744381" lon="151.2900583">
  <ele>356.74</ele>
  <time>2026-09-01T19:50:49Z</time>
  <course>106.33</course>
  <speed>0.25</speed>
  <fix>3d</fix>
</trkpt>
<trkpt lat="-27.2744381" lon="151.290059">
  <ele>357.2</ele>
  <time>2026-09-01T19:50:49Z</time>
  <course>286.72</course>
  <speed>0.2692582403567252</speed>
  <fix>3d</fix>
</trkpt>
<trkpt lat="-27.2744382" lon="151.2900592">
  <ele>357.34</ele>
  <time>2026-09-01T19:50:49Z</time>
  <course>286.75</course>
  <speed>0.2692582403567252</speed>
  <fix>3d</fix>
</trkpt>
<trkpt lat="-27.2744381" lon="151.2900583">
  <ele>356.74</ele>
  <time>2026-09-01T19:50:49Z</time>
  <course>106.33</course>
  <speed>0.25</speed>
  <fix>3d</fix>
</trkpt>
<trkpt lat="-27.2744382" lon="151.2900594">
  <ele>357.52</ele>
  <time>2026-09-01T19:50:49Z</time>
  <course>286.8</course>
  <speed>0.27892651361962706</speed>
  <fix>3d</fix>
</trkpt>
<trkpt lat="-27.2744382" lon="151.2900588">
  <ele>357.18</ele>
  <time>2026-09-01T19:50:49Z</time>
  <course>105.84</course>
  <speed>0.26</speed>
  <fix>3d</fix>
</trkpt>
<trkpt lat="-27.2744383" lon="151.2900597">
  <ele>357.68</ele>
  <time>2026-09-01T19:50:49Z</time>
  <course>286.88</course>
  <speed>0.29120439557122074</speed>
  <fix>3d</fix>
</trkpt>
<trkpt lat="-27.2744382" lon="151.2900588">
  <ele>357.18</ele>
  <time>2026-09-01T19:50:49Z</time>
  <course>105.84</course>
  <speed>0.26</speed>
  <fix>3d</fix>
</trkpt>
<trkpt lat="-27.2744384" lon="151.29006">
  <ele>357.82</ele>
  <time>2026-09-01T19:50:49Z</time>
  <course>286.96</course>
  <speed>0.30083217912982646</speed>
  <fix>3d</fix>
</trkpt>
<trkpt lat="-27.2744383" lon="151.2900594">
  <ele>357.56</ele>
  <time>2026-09-01T19:50:49Z</time>
  <course>105.91</course>
  <speed>0.27</speed>
  <fix>3d</fix>
</trkpt>
<trkpt lat="-27.2744385" lon="151.2900603">
  <ele>357.93</ele>
  <time>2026-09-01T19:50:49Z</time>
  <course>287.06</course>
  <speed>0.32280024783137945</speed>
  <fix>3d</fix>
</trkpt>
<trkpt lat="-27.2744383" lon="151.2900594">
  <ele>357.56</ele>
  <time>2026-09-01T19:50:49Z</time>
  <course>105.91</course>
  <speed>0.27</speed>
  <fix>3d</fix>
</trkpt>
<trkpt lat="-27.2744386" lon="151.2900606">
  <ele>358.02</ele>
  <time>2026-09-01T19:50:49Z</time>
  <course>287.15</course>
  <speed>0.34481879299133333</speed>
  <fix>3d</fix>
</trkpt>
<trkpt lat="-27.2744385" lon="151.2900599">
  <ele>357.86</ele>
  <time>2026-09-01T19:50:49Z</time>
  <course>106.38</course>
  <speed>0.3</speed>
  <fix>3d</fix>
</trkpt>
<trkpt lat="-27.2744387" lon="151.2900609">
  <ele>358.08</ele>
  <time>2026-09-01T19:50:49Z</time>
  <course>287.24</course>
  <speed>0.3668787265568828</speed>
  <fix>3d</fix>
</trkpt>
<trkpt lat="-27.2744385" lon="151.2900599">
  <ele>357.86</ele>
  <time>2026-09-01T19:50:49Z</time>
  <course>106.38</course>
  <speed>0.3</speed>
  <fix>3d</fix>
</trkpt>
<trkpt lat="-27.2744388" lon="151.2900612">
  <ele>358.12</ele>
  <time>2026-09-01T19:50:49Z</time>
  <course>287.32</course>
  <speed>0.3764306044943742</speed>
  <fix>3d</fix>
</trkpt>
<trkpt lat="-27.2744387" lon="151.2900605">
  <ele>358.06</ele>
  <time>2026-09-01T19:50:49Z</time>
  <course>106.9</course>
  <speed>0.34</speed>
  <fix>3d</fix>
</trkpt>
<trkpt lat="-27.2744389" lon="151.2900616">
  <ele>358.14</ele>
  <time>2026-09-01T19:50:49Z</time>
  <course>287.38</course>
  <speed>0.3984971769034255</speed>
  <fix>3d</fix>
</trkpt>
<trkpt lat="-27.2744387" lon="151.2900605">
  <ele>358.06</ele>
  <time>2026-09-01T19:50:49Z</time>
  <course>106.9</course>
  <speed>0.34</speed>
  <fix>3d</fix>
</trkpt>
<trkpt lat="-27.274439" lon="151.290062">
  <ele>358.15</ele>
  <time>2026-09-01T19:50:49Z</time>
  <course>287.38</course>
  <speed>0.417612260356422</speed>
  <fix>3d</fix>
</trkpt>
<trkpt lat="-27.2744389" lon="151.2900612">
  <ele>358.17</ele>
  <time>2026-09-01T19:50:49Z</time>
  <course>107.18</course>
  <speed>0.38</speed>
  <fix>3d</fix>
</trkpt>
<trkpt lat="-27.2744391" lon="151.2900624">
  <ele>358.14</ele>
  <time>2026-09-01T19:50:49Z</time>
  <course>287.34</course>
  <speed>0.42720018726587655</speed>
  <fix>3d</fix>
</trkpt>
<trkpt lat="-27.2744389" lon="151.2900612">
  <ele>358.17</ele>
  <time>2026-09-01T19:50:49Z</time>
  <course>107.18</course>
  <speed>0.38</speed>
  <fix>3d</fix>
</trkpt>
<trkpt lat="-27.2744392" lon="151.2900628">
  <ele>358.12</ele>
  <time>2026-09-01T19:50:49Z</time>
  <course>287.27</course>
  <speed>0.42720018726587655</speed>
  <fix>3d</fix>
</trkpt>
<trkpt lat="-27.2744391" lon="151.2900619">
  <ele>358.21</ele>
  <time>2026-09-01T19:50:49Z</time>
  <course>106.98</course>
  <speed>0.41</speed>
  <fix>3d</fix>
</trkpt>
<trkpt lat="-27.2744394" lon="151.2900632">
  <ele>358.09</ele>
  <time>2026-09-01T19:50:49Z</time>
  <course>287.21</course>
  <speed>0.4301162633521314</speed>
  <fix>3d</fix>
</trkpt>
<trkpt lat="-27.2744391" lon="151.2900619">
  <ele>358.21</ele>
  <time>2026-09-01T19:50:49Z</time>
  <course>106.98</course>
  <speed>0.41</speed>
  <fix>3d</fix>
</trkpt>
<trkpt lat="-27.2744395" lon="151.2900636">
  <ele>358.06</ele>
  <time>2026-09-01T19:50:49Z</time>
  <course>287.22</course>
  <speed>0.4301162633521314</speed>
  <fix>3d</fix>
</trkpt>
<trkpt lat="-27.2744393" lon="151.2900628">
  <ele>358.18</ele>
  <time>2026-09-01T19:50:49Z</time>
  <course>106.73</course>
  <speed>0.43</speed>
  <fix>3d</fix>
</trkpt>
<trkpt lat="-27.2744396" lon="151.290064">
  <ele>358.02</ele>
  <time>2026-09-01T19:50:49Z</time>
  <course>287.3</course>
  <speed>0.41109609582188933</speed>
  <fix>3d</fix>
</trkpt>
<trkpt lat="-27.2744393" lon="151.2900628">
  <ele>358.18</ele>
  <time>2026-09-01T19:50:49Z</time>
  <course>106.73</course>
  <speed>0.43</speed>
  <fix>3d</fix>
</trkpt>
<trkpt lat="-27.2744397" lon="151.2900644">
  <ele>357.99</ele>
  <time>2026-09-01T19:50:49Z</time>
  <course>287.38</course>
  <speed>0.3984971769034255</speed>
  <fix>3d</fix>
</trkpt>
<trkpt lat="-27.2744395" lon="151.2900637">
  <ele>358.13</ele>
  <time>2026-09-01T19:50:49Z</time>
  <course>107.16</course>
  <speed>0.42</speed>
  <fix>3d</fix>
</trkpt>
<trkpt lat="-27.2744398" lon="151.2900648">
  <ele>357.95</ele>
  <time>2026-09-01T19:50:49Z</time>
  <course>287.4</course>
  <speed>0.37947331922020555</speed>
  <fix>3d</fix>
</trkpt>
<trkpt lat="-27.2744395" lon="151.2900637">
  <ele>358.13</ele>
  <time>2026-09-01T19:50:49Z</time>
  <course>107.16</course>
  <speed>0.42</speed>
  <fix>3d</fix>
</trkpt>
<trkpt lat="-27.2744399" lon="151.2900651">
  <ele>357.92</ele>
  <time>2026-09-01T19:50:49Z</time>
  <course>287.35</course>
  <speed>0.3712142238654117</speed>
  <fix>3d</fix>
</trkpt>
<trkpt lat="-27.2744397" lon="151.2900645">
  <ele>358.06</ele>
  <time>2026-09-01T19:50:49Z</time>
  <course>107.77</course>
  <speed>0.39</speed>
  <fix>3d</fix>
</trkpt>
<trkpt lat="-27.2744401" lon="151.2900654">
  <ele>357.9</ele>
  <time>2026-09-01T19:50:49Z</time>
  <course>287.27</course>
  <speed>0.3661966684720111</speed>
  <fix>3d</fix>
</trkpt>
<trkpt lat="-27.2744397" lon="151.2900645">
  <ele>358.06</ele>
  <time>2026-09-01T19:50:49Z</time>
  <course>107.77</course>
  <speed>0.39</speed>
  <fix>3d</fix>
</trkpt>
<trkpt lat="-27.2744403" lon="151.2900657">
  <ele>357.88</ele>
  <time>2026-09-01T19:50:49Z</time>
  <course>287.17</course>
  <speed>0.354682957019364</speed>
  <fix>3d</fix>
</trkpt>
<trkpt lat="-27.27444" lon="151.2900652">
  <ele>358.0</ele>
  <time>2026-09-01T19:50:49Z</time>
  <course>116.07</course>
  <speed>0.36</speed>
  <fix>3d</fix>
</trkpt>
<trkpt lat="-27.2744405" lon="151.290066">
  <ele>357.86</ele>
  <time>2026-09-01T19:50:49Z</time>
  <course>287.08</course>
  <speed>0.34655446902326914</speed>
  <fix>3d</fix>
</trkpt>
<trkpt lat="-27.27444" lon="151.2900652">
  <ele>358.0</ele>
  <time>2026-09-01T19:50:49Z</time>
  <course>116.07</course>
  <speed>0.36</speed>
  <fix>3d</fix>
</trkpt>
<trkpt lat="-27.2744407" lon="151.2900662">
  <ele>357.85</ele>
  <time>2026-09-01T19:50:49Z</time>
  <course>287.01</course>
  <speed>0.3330165161069343</speed>
  <fix>3d</fix>
</trkpt>
<trkpt lat="-27.2744403" lon="151.2900657">
  <ele>357.96</ele>
  <time>2026-09-01T19:50:49Z</time>
  <course>130.25</course>
  <speed>0.35</speed>
  <fix>3d</fix>
</trkpt>
<trkpt lat="-27.274441" lon="151.2900664">
  <ele>357.85</ele>
  <time>2026-09-01T19:50:49Z</time>
  <course>286.97</course>
  <speed>0.32015621187164245</speed>
  <fix>3d</fix>
</trkpt>
<trkpt lat="-27.2744403" lon="151.2900657">
  <ele>357.96</ele>
  <time>2026-09-01T19:50:49Z</time>
  <course>130.25</course>
  <speed>0.35</speed>
  <fix>3d</fix>
</trkpt>
<trkpt lat="-27.2744412" lon="151.2900666">
  <ele>357.85</ele>
  <time>2026-09-01T19:50:49Z</time>
  <course>286.96</course>
  <speed>0.3080584360149873</speed>
  <fix>3d</fix>
</trkpt>
<trkpt lat="-27.2744408" lon="151.2900662">
  <ele>357.94</ele>
  <time>2026-09-01T19:50:49Z</time>
  <course>139.57</course>
  <speed>0.33</speed>
  <fix>3d</fix>
</trkpt>
<trkpt lat="-27.2744414" lon="151.2900668">
  <ele>357.86</ele>
  <time>2026-09-01T19:50:49Z</time>
  <course>286.98</course>
  <speed>0.2968164415931166</speed>
  <fix>3d</fix>
</trkpt>
<trkpt lat="-27.2744408" lon="151.2900662">
  <ele>357.94</ele>
  <time>2026-09-01T19:50:49Z</time>
  <course>139.57</course>
  <speed>0.33</speed>
  <fix>3d</fix>
</trkpt>
<trkpt lat="-27.2744416" lon="151.290067">
  <ele>357.87</ele>
  <time>2026-09-01T19:50:49Z</time>
  <course>287.01</course>
  <speed>0.25612496949731395</speed>
  <fix>3d</fix>
</trkpt>
<trkpt lat="-27.2744412" lon="151.2900667">
  <ele>357.94</ele>
  <time>2026-09-01T19:50:49Z</time>
  <course>146.13</course>
  <speed>0.3</speed>
  <fix>3d</fix>
</trkpt>
<trkpt lat="-27.2744418" lon="151.2900671">
  <ele>357.88</ele>
  <time>2026-09-01T19:50:49Z</time>
  <course>287.03</course>
  <speed>0.2193171219946131</speed>
  <fix>3d</fix>
</trkpt>
<trkpt lat="-27.2744412" lon="151.2900667">
  <ele>357.94</ele>
  <time>2026-09-01T19:50:49Z</time>
  <course>146.13</course>
  <speed>0.3</speed>
  <fix>3d</fix>
</trkpt>
<trkpt lat="-27.2744419" lon="151.2900673">
  <ele>357.89</ele>
  <time>2026-09-01T19:50:49Z</time>
  <course>287.04</course>
  <speed>0.194164878389476</speed>
  <fix>3d</fix>
</trkpt>
<trkpt lat="-27.2744416" lon="151.290067">
  <ele>357.96</ele>
  <time>2026-09-01T19:50:49Z</time>
  <course>143.88</course>
  <speed>0.25</speed>
  <fix>3d</fix>
</trkpt>
<trkpt lat="-27.274442" lon="151.2900674">
  <ele>357.9</ele>
  <time>2026-09-01T19:50:49Z</time>
  <course>287.06</course>
  <speed>0.1835755975068582</speed>
  <fix>3d</fix>
</trkpt>
<trkpt lat="-27.2744416" lon="151.290067">
  <ele>357.96</ele>
  <time>2026-09-01T19:50:49Z</time>
  <course>143.88</course>
  <speed>0.25</speed>
  <fix>3d</fix>
</trkpt>
<trkpt lat="-27.2744421" lon="151.2900676">
  <ele>357.91</ele>
  <time>2026-09-01T19:50:49Z</time>
  <course>287.08</course>
  <speed>0.16552945357246848</speed>
  <fix>3d</fix>
</trkpt>
<trkpt lat="-27.274442" lon="151.2900673">
  <ele>357.99</ele>
  <time>2026-09-01T19:50:49Z</time>
  <course>131.28</course>
  <speed>0.19</speed>
  <fix>3d</fix>
</trkpt>
<trkpt lat="-27.2744421" lon="151.2900677">
  <ele>357.92</ele>
  <time>2026-09-01T19:50:49Z</time>
  <course>287.11</course>
  <speed>0.15231546211727817</speed>
  <fix>3d</fix>
</trkpt>
<trkpt lat="-27.274442" lon="151.2900673">
  <ele>357.99</ele>
  <time>2026-09-01T19:50:49Z</time>
  <course>131.28</course>
  <speed>0.19</speed>
  <fix>3d</fix>
</trkpt>
<trkpt lat="-27.2744422" lon="151.2900679">
  <ele>357.93</ele>
  <time>2026-09-01T19:50:49Z</time>
  <course>287.15</course>
  <speed>0.14317821063276354</speed>
  <fix>3d</fix>
</trkpt>
<trkpt lat="-27.2744421" lon="151.2900675">
  <ele>358.02</ele>
  <time>2026-09-01T19:50:49Z</time>
  <course>121.9</course>
  <speed>0.15</speed>
  <fix>3d</fix>
</trkpt>
<trkpt lat="-27.2744423" lon="151.290068">
  <ele>357.94</ele>
  <time>2026-09-01T19:50:49Z</time>
  <course>287.19</course>
  <speed>0.14866068747318506</speed>
  <fix>3d</fix>
</trkpt>
<trkpt lat="-27.2744421" lon="151.2900675">
  <ele>358.02</ele>
  <time>2026-09-01T19:50:49Z</time>
  <course>121.9</course>
  <speed>0.15</speed>
  <fix>3d</fix>
</trkpt>
<trkpt lat="-27.2744424" lon="151.2900681">
  <ele>357.94</ele>
  <time>2026-09-01T19:50:49Z</time>
  <course>287.21</course>
  <speed>0.15264337522473748</speed>
  <fix>3d</fix>
</trkpt>
<trkpt lat="-27.2744422" lon="151.2900678">
  <ele>358.05</ele>
  <time>2026-09-01T19:50:49Z</time>
  <course>128.96</course>
  <speed>0.13</speed>
  <fix>3d</fix>
</trkpt>
<trkpt lat="-27.2744425" lon="151.2900681">
  <ele>357.95</ele>
  <time>2026-09-01T19:50:49Z</time>
  <course>287.23</course>
  <speed>0.1708800749063506</speed>
  <fix>3d</fix>
</trkpt>
<trkpt lat="-27.2744422" lon="151.2900678">
  <ele>358.05</ele>
  <time>2026-09-01T19:50:49Z</time>
  <course>128.96</course>
  <speed>0.13</speed>
  <fix>3d</fix>
</trkpt>
<trkpt lat="-27.2744427" lon="151.2900682">
  <ele>357.95</ele>
  <time>2026-09-01T19:50:49Z</time>
  <course>287.25</course>
  <speed>0.1772004514666935</speed>
  <fix>3d</fix>
</trkpt>
<trkpt lat="-27.2744425" lon="151.290068">
  <ele>358.07</ele>
  <time>2026-09-01T19:50:49Z</time>
  <course>153.76</course>
  <speed>0.14</speed>
  <fix>3d</fix>
</trkpt>
<trkpt lat="-27.2744428" lon="151.2900682">
  <ele>357.95</ele>
  <time>2026-09-01T19:50:49Z</time>
  <course>287.27</course>
  <speed>0.1824828759089466</speed>
  <fix>3d</fix>
</trkpt>
<trkpt lat="-27.2744425" lon="151.290068">
  <ele>358.07</ele>
  <time>2026-09-01T19:50:49Z</time>
  <course>153.76</course>
  <speed>0.14</speed>
  <fix>3d</fix>
</trkpt>
<trkpt lat="-27.274443" lon="151.2900682">
  <ele>357.95</ele>
  <time>2026-09-01T19:50:49Z</time>
  <course>287.29</course>
  <speed>0.18027756377319945</speed>
  <fix>3d</fix>
</trkpt>
<trkpt lat="-27.2744427" lon="151.290068">
  <ele>358.08</ele>
  <time>2026-09-01T19:50:49Z</time>
  <course>171.67</course>
  <speed>0.17</speed>
  <fix>3d</fix>
</trkpt>
<trkpt lat="-27.2744432" lon="151.2900682">
  <ele>357.94</ele>
  <time>2026-09-01T19:50:49Z</time>
  <course>287.3</course>
  <speed>0.18</speed>
  <fix>3d</fix>
</trkpt>
<trkpt lat="-27.2744427" lon="151.290068">
  <ele>358.08</ele>
  <time>2026-09-01T19:50:49Z</time>
  <course>171.67</course>
  <speed>0.17</speed>
  <fix>3d</fix>
</trkpt>
<trkpt lat="-27.2744433" lon="151.2900682">
  <ele>357.94</ele>
  <time>2026-09-01T19:50:49Z</time>
  <course>287.3</course>
  <speed>0.18</speed>
  <fix>3d</fix>
</trkpt>
<trkpt lat="-27.2744431" lon="151.290068">
  <ele>358.08</ele>
  <time>2026-09-01T19:50:49Z</time>
  <course>182.21</course>
  <speed>0.18</speed>
  <fix>3d</fix>
</trkpt>
<trkpt lat="-27.2744435" lon="151.2900682">
  <ele>357.94</ele>
  <time>2026-09-01T19:50:49Z</time>
  <course>287.29</course>
  <speed>0.13</speed>
  <fix>3d</fix>
</trkpt>
<trkpt lat="-27.2744431" lon="151.290068">
  <ele>358.08</ele>
  <time>2026-09-01T19:50:49Z</time>
  <course>182.21</course>
  <speed>0.18</speed>
  <fix>3d</fix>
</trkpt>
<trkpt lat="-27.2744436" lon="151.2900682">
  <ele>357.93</ele>
  <time>2026-09-01T19:50:49Z</time>
  <course>287.28</course>
  <speed>0.08</speed>
  <fix>3d</fix>
</trkpt>
<trkpt lat="-27.2744434" lon="151.290068">
  <ele>358.09</ele>
  <time>2026-09-01T19:50:49Z</time>
  <course>190.29</course>
  <speed>0.17</speed>
  <fix>3d</fix>
</trkpt>
<trkpt lat="-27.2744436" lon="151.2900682">
  <ele>357.93</ele>
  <time>2026-09-01T19:50:49Z</time>
  <course>287.28</course>
  <speed>0.05</speed>
  <fix>3d</fix>
</trkpt>
<trkpt lat="-27.2744434" lon="151.290068">
  <ele>358.09</ele>
  <time>2026-09-01T19:50:49Z</time>
  <course>190.29</course>
  <speed>0.17</speed>
  <fix>3d</fix>
</trkpt>
<trkpt lat="-27.2744437" lon="151.2900682">
  <ele>357.93</ele>
  <time>2026-09-01T19:50:49Z</time>
  <course>287.26</course>
  <speed>0.0316227766016838</speed>
  <fix>3d</fix>
</trkpt>
<trkpt lat="-27.2744437" lon="151.290068">
  <ele>358.09</ele>
  <time>2026-09-01T19:50:49Z</time>
  <course>199.83</course>
  <speed>0.1</speed>
  <fix>3d</fix>
</trkpt>
<trkpt lat="-27.2744437" lon="151.2900681">
  <ele>357.93</ele>
  <time>2026-09-01T19:50:49Z</time>
  <course>287.24</course>
  <speed>0.01414213562373095</speed>
  <fix>3d</fix>
</trkpt>
<trkpt lat="-27.2744437" lon="151.290068">
  <ele>358.09</ele>
  <time>2026-09-01T19:50:49Z</time>
  <course>199.83</course>
  <speed>0.1</speed>
  <fix>3d</fix>
</trkpt>
<trkpt lat="-27.2744437" lon="151.2900681">
  <ele>357.93</ele>
  <time>2026-09-01T19:50:49Z</time>
  <course>287.21</course>
  <speed>0.02</speed>
  <fix>3d</fix>
</trkpt>
<trkpt lat="-27.2744438" lon="151.290068">
  <ele>358.09</ele>
  <time>2026-09-01T19:50:49Z</time>
  <course>224.22</course>
  <speed>0.06</speed>
  <fix>3d</fix>
</trkpt>
<trkpt lat="-27.2744437" lon="151.290068">
  <ele>357.93</ele>
  <time>2026-09-01T19:50:49Z</time>
  <course>287.21</course>
  <speed>0.0316227766016838</speed>
  <fix>3d</fix>
</trkpt>
<trkpt lat="-27.2744438" lon="151.290068">
  <ele>358.09</ele>
  <time>2026-09-01T19:50:49Z</time>
  <course>224.22</course>
  <speed>0.06</speed>
  <fix>3d</fix>
</trkpt>
<trkpt lat="-27.2744438" lon="151.2900679">
  <ele>357.94</ele>
  <time>2026-09-01T19:50:49Z</time>
  <course>287.19</course>
  <speed>0.07810249675906654</speed>
  <fix>3d</fix>
</trkpt>
<trkpt lat="-27.2744439" lon="151.2900679">
  <ele>358.09</ele>
  <time>2026-09-01T19:50:49Z</time>
  <course>251.43</course>
  <speed>0.06</speed>
  <fix>3d</fix>
</trkpt>
<trkpt lat="-27.2744439" lon="151.2900679">
  <ele>357.94</ele>
  <time>2026-09-01T19:50:49Z</time>
  <course>287.19</course>
  <speed>0.12041594578792296</speed>
  <fix>3d</fix>
</trkpt>
<trkpt lat="-27.2744439" lon="151.2900679">
  <ele>358.09</ele>
  <time>2026-09-01T19:50:49Z</time>
  <course>251.43</course>
  <speed>0.06</speed>
  <fix>3d</fix>
</trkpt>
<trkpt lat="-27.274444" lon="151.2900677">
  <ele>357.94</ele>
  <time>2026-09-01T19:50:49Z</time>
  <course>287.21</course>
  <speed>0.15620499351813308</speed>
  <fix>3d</fix>
</trkpt>
<trkpt lat="-27.2744439" lon="151.2900677">
  <ele>358.09</ele>
  <time>2026-09-01T19:50:49Z</time>
  <course>238.8</course>
  <speed>0.11</speed>
  <fix>3d</fix>
</trkpt>
<trkpt lat="-27.2744441" lon="151.2900676">
  <ele>357.94</ele>
  <time>2026-09-01T19:50:49Z</time>
  <course>287.24</course>
  <speed>0.1769180601295413</speed>
  <fix>3d</fix>
</trkpt>
<trkpt lat="-27.2744439" lon="151.2900677">
  <ele>358.09</ele>
  <time>2026-09-01T19:50:49Z</time>
  <course>238.8</course>
  <speed>0.11</speed>
  <fix>3d</fix>
</trkpt>
<trkpt lat="-27.2744442" lon="151.2900674">
  <ele>357.94</ele>
  <time>2026-09-01T19:50:49Z</time>
  <course>287.27</course>
  <speed>0.191049731745428</speed>
  <fix>3d</fix>
</trkpt>
<trkpt lat="-27.274444" lon="151.2900675">
  <ele>358.09</ele>
  <time>2026-09-01T19:50:49Z</time>
  <course>229.27</course>
  <speed>0.18</speed>
  <fix>3d</fix>
</trkpt>
<trkpt lat="-27.2744443" lon="151.2900673">
  <ele>357.95</ele>
  <time>2026-09-01T19:50:49Z</time>
  <course>287.3</course>
  <speed>0.1979898987322333</speed>
  <fix>3d</fix>
</trkpt>
<trkpt lat="-27.274444" lon="151.2900675">
  <ele>358.09</ele>
  <time>2026-09-01T19:50:49Z</time>
  <course>229.27</course>
  <speed>0.18</speed>
  <fix>3d</fix>
</trkpt>
<trkpt lat="-27.2744445" lon="151.2900671">
  <ele>357.95</ele>
  <time>2026-09-01T19:50:49Z</time>
  <course>287.31</course>
  <speed>0.20518284528683192</speed>
  <fix>3d</fix>
</trkpt>
<trkpt lat="-27.2744443" lon="151.2900672">
  <ele>358.1</ele>
  <time>2026-09-01T19:50:49Z</time>
  <course>229.7</course>
  <speed>0.22</speed>
  <fix>3d</fix>
</trkpt>
<trkpt lat="-27.2744446" lon="151.2900669">
  <ele>357.96</ele>
  <time>2026-09-01T19:50:49Z</time>
  <course>287.32</course>
  <speed>0.20615528128088303</speed>
  <fix>3d</fix>
</trkpt>
<trkpt lat="-27.2744443" lon="151.2900672">
  <ele>358.1</ele>
  <time>2026-09-01T19:50:49Z</time>
  <course>229.7</course>
  <speed>0.22</speed>
  <fix>3d</fix>
</trkpt>
<trkpt lat="-27.2744447" lon="151.2900667">
  <ele>357.96</ele>
  <time>2026-09-01T19:50:49Z</time>
  <course>287.31</course>
  <speed>0.17888543819998318</speed>
  <fix>3d</fix>
</trkpt>
<trkpt lat="-27.2744446" lon="151.2900669">
  <ele>358.1</ele>
  <time>2026-09-01T19:50:49Z</time>
  <course>232.61</course>
  <speed>0.24</speed>
  <fix>3d</fix>
</trkpt>
<trkpt lat="-27.2744448" lon="151.2900665">
  <ele>357.96</ele>
  <time>2026-09-01T19:50:49Z</time>
  <course>287.29</course>
  <speed>0.15297058540778355</speed>
  <fix>3d</fix>
</trkpt>
<trkpt lat="-27.2744446" lon="151.2900669">
  <ele>358.1</ele>
  <time>2026-09-01T19:50:49Z</time>
  <course>232.61</course>
  <speed>0.24</speed>
  <fix>3d</fix>
</trkpt>
<trkpt lat="-27.2744448" lon="151.2900664">
  <ele>357.96</ele>
  <time>2026-09-01T19:50:49Z</time>
  <course>287.26</course>
  <speed>0.15</speed>
  <fix>3d</fix>
</trkpt>
<trkpt lat="-27.2744448" lon="151.2900664">
  <ele>358.11</ele>
  <time>2026-09-01T19:50:49Z</time>
  <course>243.97</course>
  <speed>0.22</speed>
  <fix>3d</fix>
</trkpt>
<trkpt lat="-27.2744448" lon="151.2900662">
  <ele>357.96</ele>
  <time>2026-09-01T19:50:49Z</time>
  <course>287.24</course>
  <speed>0.16124515496597097</speed>
  <fix>3d</fix>
</trkpt>
<trkpt lat="-27.2744448" lon="151.2900664">
  <ele>358.11</ele>
  <time>2026-09-01T19:50:49Z</time>
  <course>243.97</course>
  <speed>0.22</speed>
  <fix>3d</fix>
</trkpt>
<trkpt lat="-27.2744448" lon="151.290066">
  <ele>357.97</ele>
  <time>2026-09-01T19:50:49Z</time>
  <course>287.22</course>
  <speed>0.16278820596099705</speed>
  <fix>3d</fix>
</trkpt>
<trkpt lat="-27.2744449" lon="151.2900659">
  <ele>358.11</ele>
  <time>2026-09-01T19:50:49Z</time>
  <course>264.44</course>
  <speed>0.2</speed>
  <fix>3d</fix>
</trkpt>
<trkpt lat="-27.2744448" lon="151.2900658">
  <ele>357.96</ele>
  <time>2026-09-01T19:50:49Z</time>
  <course>287.21</course>
  <speed>0.17464249196572978</speed>
  <fix>3d</fix>
</trkpt>
<trkpt lat="-27.2744449" lon="151.2900659">
  <ele>358.11</ele>
  <time>2026-09-01T19:50:49Z</time>
  <course>264.44</course>
  <speed>0.2</speed>
  <fix>3d</fix>
</trkpt>
<trkpt lat="-27.2744448" lon="151.2900655">
  <ele>357.96</ele>
  <time>2026-09-01T19:50:49Z</time>
  <course>287.2</course>
  <speed>0.18439088914585774</speed>
  <fix>3d</fix>
</trkpt>
<trkpt lat="-27.274445" lon="151.2900656">
  <ele>358.12</ele>
  <time>2026-09-01T19:50:49Z</time>
  <course>276.48</course>
  <speed>0.2</speed>
  <fix>3d</fix>
</trkpt>
<trkpt lat="-27.2744448" lon="151.2900653">
  <ele>357.96</ele>
  <time>2026-09-01T19:50:49Z</time>
  <course>287.2</course>
  <speed>0.21</speed>
  <fix>3d</fix>
</trkpt>
<trkpt lat="-27.274445" lon="151.2900656">
  <ele>358.12</ele>
  <time>2026-09-01T19:50:49Z</time>
  <course>276.48</course>
  <speed>0.2</speed>
  <fix>3d</fix>
</trkpt>
<trkpt lat="-27.2744448" lon="151.290065">
  <ele>357.96</ele>
  <time>2026-09-01T19:50:49Z</time>
  <course>287.19</course>
  <speed>0.23345235059857505</speed>
  <fix>3d</fix>
</trkpt>
<trkpt lat="-27.274445" lon="151.2900652">
  <ele>358.12</ele>
  <time>2026-09-01T19:50:49Z</time>
  <course>273.35</course>
  <speed>0.23</speed>
  <fix>3d</fix>
</trkpt>
<trkpt lat="-27.2744448" lon="151.2900648">
  <ele>357.96</ele>
  <time>2026-09-01T19:50:49Z</time>
  <course>287.18</course>
  <speed>0.2570992026436488</speed>
  <fix>3d</fix>
</trkpt>
<trkpt lat="-27.274445" lon="151.2900652">
  <ele>358.12</ele>
  <time>2026-09-01T19:50:49Z</time>
  <course>273.35</course>
  <speed>0.23</speed>
  <fix>3d</fix>
</trkpt>
<trkpt lat="-27.2744449" lon="151.2900645">
  <ele>357.95</ele>
  <time>2026-09-01T19:50:49Z</time>
  <course>287.19</course>
  <speed>0.2720294101747089</speed>
  <fix>3d</fix>
</trkpt>
<trkpt lat="-27.274445" lon="151.2900647">
  <ele>358.11</ele>
  <time>2026-09-01T19:50:49Z</time>
  <course>261.14</course>
  <speed>0.27</speed>
  <fix>3d</fix>
</trkpt>
<trkpt lat="-27.274445" lon="151.2900642">
  <ele>357.95</ele>
  <time>2026-09-01T19:50:49Z</time>
  <course>287.22</course>
  <speed>0.2816025568065745</speed>
  <fix>3d</fix>
</trkpt>
<trkpt lat="-27.274445" lon="151.2900647">
  <ele>358.11</ele>
  <time>2026-09-01T19:50:49Z</time>
  <course>261.14</course>
  <speed>0.27</speed>
  <fix>3d</fix>
</trkpt>
<trkpt lat="-27.2744451" lon="151.2900638">
  <ele>357.95</ele>
  <time>2026-09-01T19:50:49Z</time>
  <course>287.24</course>
  <speed>0.29120439557122074</speed>
  <fix>3d</fix>
</trkpt>
<trkpt lat="-27.274445" lon="151.2900641">
  <ele>358.11</ele>
  <time>2026-09-01T19:50:49Z</time>
  <course>254.27</course>
  <speed>0.31</speed>
  <fix>3d</fix>
</trkpt>
<trkpt lat="-27.2744452" lon="151.2900635">
  <ele>357.95</ele>
  <time>2026-09-01T19:50:49Z</time>
  <course>287.27</course>
  <speed>0.30083217912982646</speed>
  <fix>3d</fix>
</trkpt>
<trkpt lat="-27.274445" lon="151.2900641">
  <ele>358.11</ele>
  <time>2026-09-01T19:50:49Z</time>
  <course>254.27</course>
  <speed>0.31</speed>
  <fix>3d</fix>
</trkpt>
<trkpt lat="-27.2744453" lon="151.2900632">
  <ele>357.95</ele>
  <time>2026-09-01T19:50:49Z</time>
  <course>287.29</course>
  <speed>0.31048349392520047</speed>
  <fix>3d</fix>
</trkpt>
<trkpt lat="-27.2744452" lon="151.2900634">
  <ele>358.11</ele>
  <time>2026-09-01T19:50:49Z</time>
  <course>253.26</course>
  <speed>0.34</speed>
  <fix>3d</fix>
</trkpt>
<trkpt lat="-27.2744453" lon="151.2900629">
  <ele>357.95</ele>
  <time>2026-09-01T19:50:49Z</time>
  <course>287.3</course>
  <speed>0.291547594742265</speed>
  <fix>3d</fix>
</trkpt>
<trkpt lat="-27.2744452" lon="151.2900634">
  <ele>358.11</ele>
  <time>2026-09-01T19:50:49Z</time>
  <course>253.26</course>
  <speed>0.34</speed>
  <fix>3d</fix>
</trkpt>
<trkpt lat="-27.2744453" lon="151.2900625">
  <ele>357.94</ele>
  <time>2026-09-01T19:50:49Z</time>
  <course>287.3</course>
  <speed>0.280713376952364</speed>
  <fix>3d</fix>
</trkpt>
<trkpt lat="-27.2744453" lon="151.2900627">
  <ele>358.11</ele>
  <time>2026-09-01T19:50:49Z</time>
  <course>257.68</course>
  <speed>0.34</speed>
  <fix>3d</fix>
</trkpt>
<trkpt lat="-27.2744453" lon="151.2900622">
  <ele>357.94</ele>
  <time>2026-09-01T19:50:49Z</time>
  <course>287.3</course>
  <speed>0.2863564212655271</speed>
  <fix>3d</fix>
</trkpt>
<trkpt lat="-27.2744453" lon="151.2900627">
  <ele>358.11</ele>
  <time>2026-09-01T19:50:49Z</time>
  <course>257.68</course>
  <speed>0.34</speed>
  <fix>3d</fix>
</trkpt>
<trkpt lat="-27.2744452" lon="151.2900619">
  <ele>357.94</ele>
  <time>2026-09-01T19:50:49Z</time>
  <course>287.3</course>
  <speed>0.29120439557122074</speed>
  <fix>3d</fix>
</trkpt>
<trkpt lat="-27.2744454" lon="151.2900621">
  <ele>358.11</ele>
  <time>2026-09-01T19:50:49Z</time>
  <course>269.76</course>
  <speed>0.33</speed>
  <fix>3d</fix>
</trkpt>
<trkpt lat="-27.2744452" lon="151.2900616">
  <ele>357.94</ele>
  <time>2026-09-01T19:50:49Z</time>
  <course>287.29</course>
  <speed>0.2973213749463701</speed>
  <fix>3d</fix>
</trkpt>
<trkpt lat="-27.2744454" lon="151.2900621">
  <ele>358.11</ele>
  <time>2026-09-01T19:50:49Z</time>
  <course>269.76</course>
  <speed>0.33</speed>
  <fix>3d</fix>
</trkpt>
<trkpt lat="-27.2744452" lon="151.2900612">
  <ele>357.95</ele>
  <time>2026-09-01T19:50:49Z</time>
  <course>287.28</course>
  <speed>0.30083217912982646</speed>
  <fix>3d</fix>
</trkpt>
<trkpt lat="-27.2744453" lon="151.2900614">
  <ele>358.11</ele>
  <time>2026-09-01T19:50:49Z</time>
  <course>281.6</course>
  <speed>0.33</speed>
  <fix>3d</fix>
</trkpt>
<trkpt lat="-27.2744451" lon="151.2900609">
  <ele>357.95</ele>
  <time>2026-09-01T19:50:49Z</time>
  <course>287.27</course>
  <speed>0.3138470965295043</speed>
  <fix>3d</fix>
</trkpt>
<trkpt lat="-27.2744453" lon="151.2900614">
  <ele>358.11</ele>
  <time>2026-09-01T19:50:49Z</time>
  <course>281.6</course>
  <speed>0.33</speed>
  <fix>3d</fix>
</trkpt>
<trkpt lat="-27.274445" lon="151.2900605">
  <ele>357.95</ele>
  <time>2026-09-01T19:50:49Z</time>
  <course>287.26</course>
  <speed>0.3255764119219941</speed>
  <fix>3d</fix>
</trkpt>
<trkpt lat="-27.2744452" lon="151.2900608">
  <ele>358.12</ele>
  <time>2026-09-01T19:50:49Z</time>
  <course>286.58</course>
  <speed>0.34</speed>
  <fix>3d</fix>
</trkpt>
<trkpt lat="-27.274445" lon="151.2900602">
  <ele>357.95</ele>
  <time>2026-09-01T19:50:49Z</time>
  <course>287.26</course>
  <speed>0.34</speed>
  <fix>3d</fix>
</trkpt>
<trkpt lat="-27.2744452" lon="151.2900608">
  <ele>358.12</ele>
  <time>2026-09-01T19:50:49Z</time>
  <course>286.58</course>
  <speed>0.34</speed>
  <fix>3d</fix>
</trkpt>
<trkpt lat="-27.274445" lon="151.2900598">
  <ele>357.95</ele>
  <time>2026-09-01T19:50:49Z</time>
  <course>287.25</course>
  <speed>0.3622154055254967</speed>
  <fix>3d</fix>
</trkpt>
<trkpt lat="-27.2744451" lon="151.2900601">
  <ele>358.12</ele>
  <time>2026-09-01T19:50:49Z</time>
  <course>277.52</course>
  <speed>0.36</speed>
  <fix>3d</fix>
</trkpt>
<trkpt lat="-27.274445" lon="151.2900594">
  <ele>357.95</ele>
  <time>2026-09-01T19:50:49Z</time>
  <course>287.24</course>
  <speed>0.37483329627982626</speed>
  <fix>3d</fix>
</trkpt>
<trkpt lat="-27.2744451" lon="151.2900601">
  <ele>358.12</ele>
  <time>2026-09-01T19:50:49Z</time>
  <course>277.52</course>
  <speed>0.36</speed>
  <fix>3d</fix>
</trkpt>
<trkpt lat="-27.274445" lon="151.2900589">
  <ele>357.95</ele>
  <time>2026-09-01T19:50:49Z</time>
  <course>287.24</course>
  <speed>0.388329756778952</speed>
  <fix>3d</fix>
</trkpt>
<trkpt lat="-27.2744451" lon="151.2900593">
  <ele>358.12</ele>
  <time>2026-09-01T19:50:49Z</time>
  <course>263.27</course>
  <speed>0.4</speed>
  <fix>3d</fix>
</trkpt>
<trkpt lat="-27.2744451" lon="151.2900585">
  <ele>357.96</ele>
  <time>2026-09-01T19:50:49Z</time>
  <course>287.25</course>
  <speed>0.39812058474788764</speed>
  <fix>3d</fix>
</trkpt>
<trkpt lat="-27.2744451" lon="151.2900593">
  <ele>358.12</ele>
  <time>2026-09-01T19:50:49Z</time>
  <course>263.27</course>
  <speed>0.4</speed>
  <fix>3d</fix>
</trkpt>
<trkpt lat="-27.2744452" lon="151.290058">
  <ele>357.96</ele>
  <time>2026-09-01T19:50:49Z</time>
  <course>287.26</course>
  <speed>0.4079215610874228</speed>
  <fix>3d</fix>
</trkpt>
<trkpt lat="-27.2744452" lon="151.2900584">
  <ele>358.13</ele>
  <time>2026-09-01T19:50:49Z</time>
  <course>257.62</course>
  <speed>0.43</speed>
  <fix>3d</fix>
</trkpt>
<trkpt lat="-27.2744453" lon="151.2900576">
  <ele>357.96</ele>
  <time>2026-09-01T19:50:49Z</time>
  <course>287.26</course>
  <speed>0.4079215610874228</speed>
  <fix>3d</fix>
</trkpt>
<trkpt lat="-27.2744452" lon="151.2900584">
  <ele>358.13</ele>
  <time>2026-09-01T19:50:49Z</time>
  <course>257.62</course>
  <speed>0.43</speed>
  <fix>3d</fix>
</trkpt>
<trkpt lat="-27.2744454" lon="151.2900571">
  <ele>357.96</ele>
  <time>2026-09-01T19:50:49Z</time>
  <course>287.27</course>
  <speed>0.4079215610874228</speed>
  <fix>3d</fix>
</trkpt>
<trkpt lat="-27.2744454" lon="151.2900576">
  <ele>358.13</ele>
  <time>2026-09-01T19:50:49Z</time>
  <course>256.42</course>
  <speed>0.45</speed>
  <fix>3d</fix>
</trkpt>
<trkpt lat="-27.2744455" lon="151.2900567">
  <ele>357.96</ele>
  <time>2026-09-01T19:50:49Z</time>
  <course>287.27</course>
  <speed>0.3905124837953327</speed>
  <fix>3d</fix>
</trkpt>
<trkpt lat="-27.2744454" lon="151.2900576">
  <ele>358.13</ele>
  <time>2026-09-01T19:50:49Z</time>
  <course>256.42</course>
  <speed>0.45</speed>
  <fix>3d</fix>
</trkpt>
<trkpt lat="-27.2744455" lon="151.2900563">
  <ele>357.96</ele>
  <time>2026-09-01T19:50:49Z</time>
  <course>287.27</course>
  <speed>0.38052595180880894</speed>
  <fix>3d</fix>
</trkpt>
<trkpt lat="-27.2744456" lon="151.2900567">
  <ele>358.13</ele>
  <time>2026-09-01T19:50:49Z</time>
  <course>259.88</course>
  <speed>0.44</speed>
  <fix>3d</fix>
</trkpt>
<trkpt lat="-27.2744454" lon="151.2900559">
  <ele>357.96</ele>
  <time>2026-09-01T19:50:49Z</time>
  <course>287.27</course>
  <speed>0.37483329627982626</speed>
  <fix>3d</fix>
</trkpt>
<trkpt lat="-27.2744456" lon="151.2900567">
  <ele>358.13</ele>
  <time>2026-09-01T19:50:49Z</time>
  <course>259.88</course>
  <speed>0.44</speed>
  <fix>3d</fix>
</trkpt>
<trkpt lat="-27.2744454" lon="151.2900555">
  <ele>357.95</ele>
  <time>2026-09-01T19:50:49Z</time>
  <course>287.27</course>
  <speed>0.3687817782917155</speed>
  <fix>3d</fix>
</trkpt>
<trkpt lat="-27.2744457" lon="151.2900558">
  <ele>358.14</ele>
  <time>2026-09-01T19:50:49Z</time>
  <course>269.21</course>
  <speed>0.42</speed>
  <fix>3d</fix>
</trkpt>
<trkpt lat="-27.2744454" lon="151.290055">
  <ele>357.95</ele>
  <time>2026-09-01T19:50:49Z</time>
  <course>287.28</course>
  <speed>0.3736308338453881</speed>
  <fix>3d</fix>
</trkpt>
<trkpt lat="-27.2744457" lon="151.2900558">
  <ele>358.14</ele>
  <time>2026-09-01T19:50:49Z</time>
  <course>269.21</course>
  <speed>0.42</speed>
  <fix>3d</fix>
</trkpt>
<trkpt lat="-27.2744454" lon="151.2900546">
  <ele>357.95</ele>
  <time>2026-09-01T19:50:49Z</time>
  <course>287.3</course>
  <speed>0.3764306044943742</speed>
  <fix>3d</fix>
</trkpt>
<trkpt lat="-27.2744457" lon="151.290055">
  <ele>358.14</ele>
  <time>2026-09-01T19:50:49Z</time>
  <course>278.09</course>
  <speed>0.4</speed>
  <fix>3d</fix>
</trkpt>
<trkpt lat="-27.2744453" lon="151.2900542">
  <ele>357.95</ele>
  <time>2026-09-01T19:50:49Z</time>
  <course>287.31</course>
  <speed>0.3736308338453881</speed>
  <fix>3d</fix>
</trkpt>
<trkpt lat="-27.2744457" lon="151.290055">
  <ele>358.14</ele>
  <time>2026-09-01T19:50:49Z</time>
  <course>278.09</course>
  <speed>0.4</speed>
  <fix>3d</fix>
</trkpt>
<trkpt lat="-27.2744452" lon="151.2900538">
  <ele>357.95</ele>
  <time>2026-09-01T19:50:49Z</time>
  <course>287.32</course>
  <speed>0.382099463490856</speed>
  <fix>3d</fix>
</trkpt>
<trkpt lat="-27.2744456" lon="151.2900541">
  <ele>358.14</ele>
  <time>2026-09-01T19:50:49Z</time>
  <course>281.93</course>
  <speed>0.4</speed>
  <fix>3d</fix>
</trkpt>
<trkpt lat="-27.2744452" lon="151.2900534">
  <ele>357.95</ele>
  <time>2026-09-01T19:50:49Z</time>
  <course>287.33</course>
  <speed>0.4001249804748511</speed>
  <fix>3d</fix>
</trkpt>
<trkpt lat="-27.2744456" lon="151.2900541">
  <ele>358.14</ele>
  <time>2026-09-01T19:50:49Z</time>
  <course>281.93</course>
  <speed>0.4</speed>
  <fix>3d</fix>
</trkpt>
<trkpt lat="-27.2744453" lon="151.2900529">
  <ele>357.95</ele>
  <time>2026-09-01T19:50:49Z</time>
  <course>287.32</course>
  <speed>0.422965719651132</speed>
  <fix>3d</fix>
</trkpt>
<trkpt lat="-27.2744455" lon="151.2900533">
  <ele>358.14</ele>
  <time>2026-09-01T19:50:49Z</time>
  <course>274.16</course>
  <speed>0.41</speed>
  <fix>3d</fix>
</trkpt>
<trkpt lat="-27.2744454" lon="151.2900524">
  <ele>357.95</ele>
  <time>2026-09-01T19:50:49Z</time>
  <course>287.32</course>
  <speed>0.42579337712087534</speed>
  <fix>3d</fix>
</trkpt>
<trkpt lat="-27.2744455" lon="151.2900533">
  <ele>358.14</ele>
  <time>2026-09-01T19:50:49Z</time>
  <course>274.16</course>
  <speed>0.41</speed>
  <fix>3d</fix>
</trkpt>
<trkpt lat="-27.2744455" lon="151.290052">
  <ele>357.96</ele>
  <time>2026-09-01T19:50:49Z</time>
  <course>287.31</course>
  <speed>0.4373785545725808</speed>
  <fix>3d</fix>
</trkpt>
<trkpt lat="-27.2744455" lon="151.2900525">
  <ele>358.14</ele>
  <time>2026-09-01T19:50:49Z</time>
  <course>262.15</course>
  <speed>0.45</speed>
  <fix>3d</fix>
</trkpt>
<trkpt lat="-27.2744455" lon="151.2900515">
  <ele>357.96</ele>
  <time>2026-09-01T19:50:49Z</time>
  <course>287.29</course>
  <speed>0.4393176527297759</speed>
  <fix>3d</fix>
</trkpt>
<trkpt lat="-27.2744455" lon="151.2900525">
  <ele>358.14</ele>
  <time>2026-09-01T19:50:49Z</time>
  <course>262.15</course>
  <speed>0.45</speed>
  <fix>3d</fix>
</trkpt>
<trkpt lat="-27.2744456" lon="151.290051">
  <ele>357.96</ele>
  <time>2026-09-01T19:50:49Z</time>
  <course>287.29</course>
  <speed>0.4393176527297759</speed>
  <fix>3d</fix>
</trkpt>
<trkpt lat="-27.2744456" lon="151.2900516">
  <ele>358.14</ele>
  <time>2026-09-01T19:50:49Z</time>
  <course>257.28</course>
  <speed>0.47</speed>
  <fix>3d</fix>
</trkpt>
<trkpt lat="-27.2744457" lon="151.2900506">
  <ele>357.96</ele>
  <time>2026-09-01T19:50:49Z</time>
  <course>287.28</course>
  <speed>0.4295346318982906</speed>
  <fix>3d</fix>
</trkpt>
<trkpt lat="-27.2744456" lon="151.2900516">
  <ele>358.14</ele>
  <time>2026-09-01T19:50:49Z</time>
  <course>257.28</course>
  <speed>0.47</speed>
  <fix>3d</fix>
</trkpt>
<trkpt lat="-27.2744458" lon="151.2900501">
  <ele>357.96</ele>
  <time>2026-09-01T19:50:49Z</time>
  <course>287.29</course>
  <speed>0.42755116652863895</speed>
  <fix>3d</fix>
</trkpt>
<trkpt lat="-27.2744458" lon="151.2900506">
  <ele>358.14</ele>
  <time>2026-09-01T19:50:49Z</time>
  <course>256.04</course>
  <speed>0.47</speed>
  <fix>3d</fix>
</trkpt>
<trkpt lat="-27.2744459" lon="151.2900496">
  <ele>357.96</ele>
  <time>2026-09-01T19:50:49Z</time>
  <course>287.29</course>
  <speed>0.4004996878900158</speed>
  <fix>3d</fix>
</trkpt>
<trkpt lat="-27.2744458" lon="151.2900506">
  <ele>358.14</ele>
  <time>2026-09-01T19:50:49Z</time>
  <course>256.04</course>
  <speed>0.47</speed>
  <fix>3d</fix>
</trkpt>
<trkpt lat="-27.2744459" lon="151.2900492">
  <ele>357.96</ele>
  <time>2026-09-01T19:50:49Z</time>
  <course>287.3</course>
  <speed>0.38118237105091834</speed>
  <fix>3d</fix>
</trkpt>
<trkpt lat="-27.2744459" lon="151.2900497">
  <ele>358.14</ele>
  <time>2026-09-01T19:50:49Z</time>
  <course>259.81</course>
  <speed>0.45</speed>
  <fix>3d</fix>
</trkpt>
<trkpt lat="-27.2744458" lon="151.2900488">
  <ele>357.96</ele>
  <time>2026-09-01T19:50:49Z</time>
  <course>287.31</course>
  <speed>0.3649657518178932</speed>
  <fix>3d</fix>
</trkpt>
<trkpt lat="-27.2744459" lon="151.2900497">
  <ele>358.14</ele>
  <time>2026-09-01T19:50:49Z</time>
  <course>259.81</course>
  <speed>0.45</speed>
  <fix>3d</fix>
</trkpt>
<trkpt lat="-27.2744458" lon="151.2900484">
  <ele>357.96</ele>
  <time>2026-09-01T19:50:49Z</time>
  <course>287.32</course>
  <speed>0.36138621999185305</speed>
  <fix>3d</fix>
</trkpt>
<trkpt lat="-27.274446" lon="151.2900488">
  <ele>358.14</ele>
  <time>2026-09-01T19:50:49Z</time>
  <course>269.89</course>
  <speed>0.41</speed>
  <fix>3d</fix>
</trkpt>
<trkpt lat="-27.2744457" lon="151.290048">
  <ele>357.96</ele>
  <time>2026-09-01T19:50:49Z</time>
  <course>287.34</course>
  <speed>0.354400902933387</speed>
  <fix>3d</fix>
</trkpt>
<trkpt lat="-27.274446" lon="151.2900488">
  <ele>358.14</ele>
  <time>2026-09-01T19:50:49Z</time>
  <course>269.89</course>
  <speed>0.41</speed>
  <fix>3d</fix>
</trkpt>
<trkpt lat="-27.2744456" lon="151.2900476">
  <ele>357.95</ele>
  <time>2026-09-01T19:50:49Z</time>
  <course>287.36</course>
  <speed>0.35114099732158877</speed>
  <fix>3d</fix>
</trkpt>
<trkpt lat="-27.2744459" lon="151.2900479">
  <ele>358.15</ele>
  <time>2026-09-01T19:50:49Z</time>
  <course>279.46</course>
  <speed>0.39</speed>
  <fix>3d</fix>
</trkpt>
<trkpt lat="-27.2744455" lon="151.2900473">
  <ele>357.95</ele>
  <time>2026-09-01T19:50:49Z</time>
  <course>287.38</course>
  <speed>0.3478505426185217</speed>
  <fix>3d</fix>
</trkpt>
<trkpt lat="-27.2744459" lon="151.2900479">
  <ele>358.15</ele>
  <time>2026-09-01T19:50:49Z</time>
  <course>279.46</course>
  <speed>0.39</speed>
  <fix>3d</fix>
</trkpt>
<trkpt lat="-27.2744455" lon="151.2900469">
  <ele>357.95</ele>
  <time>2026-09-01T19:50:49Z</time>
  <course>287.39</course>
  <speed>0.3535533905932738</speed>
  <fix>3d</fix>
</trkpt>
<trkpt lat="-27.2744458" lon="151.2900472">
  <ele>358.15</ele>
  <time>2026-09-01T19:50:49Z</time>
  <course>283.92</course>
  <speed>0.38</speed>
  <fix>3d</fix>
</trkpt>
<trkpt lat="-27.2744455" lon="151.2900465">
  <ele>357.95</ele>
  <time>2026-09-01T19:50:49Z</time>
  <course>287.4</course>
  <speed>0.36</speed>
  <fix>3d</fix>
</trkpt>
<trkpt lat="-27.2744458" lon="151.2900472">
  <ele>358.15</ele>
  <time>2026-09-01T19:50:49Z</time>
  <course>283.92</course>
  <speed>0.38</speed>
  <fix>3d</fix>
</trkpt>
<trkpt lat="-27.2744455" lon="151.2900461">
  <ele>357.95</ele>
  <time>2026-09-01T19:50:49Z</time>
  <course>287.4</course>
  <speed>0.36124783736376886</speed>
  <fix>3d</fix>
</trkpt>
<trkpt lat="-27.2744458" lon="151.2900465">
  <ele>358.15</ele>
  <time>2026-09-01T19:50:49Z</time>
  <course>275.82</course>
  <speed>0.37</speed>
  <fix>3d</fix>
</trkpt>
<trkpt lat="-27.2744456" lon="151.2900457">
  <ele>357.95</ele>
  <time>2026-09-01T19:50:49Z</time>
  <course>287.38</course>
  <speed>0.3649657518178932</speed>
  <fix>3d</fix>
</trkpt>
<trkpt lat="-27.2744458" lon="151.2900465">
  <ele>358.15</ele>
  <time>2026-09-01T19:50:49Z</time>
  <course>275.82</course>
  <speed>0.37</speed>
  <fix>3d</fix>
</trkpt>
<trkpt lat="-27.2744456" lon="151.2900453">
  <ele>357.96</ele>
  <time>2026-09-01T19:50:49Z</time>
  <course>287.37</course>
  <speed>0.366742416417845</speed>
  <fix>3d</fix>
</trkpt>
<trkpt lat="-27.2744458" lon="151.2900457">
  <ele>358.15</ele>
  <time>2026-09-01T19:50:49Z</time>
  <course>262.5</course>
  <speed>0.39</speed>
  <fix>3d</fix>
</trkpt>
<trkpt lat="-27.2744457" lon="151.2900449">
  <ele>357.96</ele>
  <time>2026-09-01T19:50:49Z</time>
  <course>287.35</course>
  <speed>0.3687817782917155</speed>
  <fix>3d</fix>
</trkpt>
<trkpt lat="-27.2744458" lon="151.2900457">
  <ele>358.15</ele>
  <time>2026-09-01T19:50:49Z</time>
  <course>262.5</course>
  <speed>0.39</speed>
  <fix>3d</fix>
</trkpt>
<trkpt lat="-27.2744458" lon="151.2900445">
  <ele>357.96</ele>
  <time>2026-09-01T19:50:49Z</time>
  <course>287.33</course>
  <speed>0.3590264614203248</speed>
  <fix>3d</fix>
</trkpt>
<trkpt lat="-27.2744458" lon="151.2900449">
  <ele>358.15</ele>
  <time>2026-09-01T19:50:49Z</time>
  <course>256.79</course>
  <speed>0.4</speed>
  <fix>3d</fix>
</trkpt>
<trkpt lat="-27.2744459" lon="151.2900441">
  <ele>357.96</ele>
  <time>2026-09-01T19:50:49Z</time>
  <course>287.32</course>
  <speed>0.34928498393145957</speed>
  <fix>3d</fix>
</trkpt>
<trkpt lat="-27.2744458" lon="151.2900449">
  <ele>358.15</ele>
  <time>2026-09-01T19:50:49Z</time>
  <course>256.79</course>
  <speed>0.4</speed>
  <fix>3d</fix>
</trkpt>
<trkpt lat="-27.274446" lon="151.2900437">
  <ele>357.96</ele>
  <time>2026-09-01T19:50:49Z</time>
  <course>287.31</course>
  <speed>0.33541019662496846</speed>
  <fix>3d</fix>
</trkpt>
<trkpt lat="-27.274446" lon="151.2900441">
  <ele>358.15</ele>
  <time>2026-09-01T19:50:49Z</time>
  <course>255.01</course>
  <speed>0.39</speed>
  <fix>3d</fix>
</trkpt>
<trkpt lat="-27.274446" lon="151.2900434">
  <ele>357.96</ele>
  <time>2026-09-01T19:50:49Z</time>
  <course>287.31</course>
  <speed>0.3</speed>
  <fix>3d</fix>
</trkpt>
<trkpt lat="-27.274446" lon="151.2900441">
  <ele>358.15</ele>
  <time>2026-09-01T19:50:49Z</time>
  <course>255.01</course>
  <speed>0.39</speed>
  <fix>3d</fix>
</trkpt>
<trkpt lat="-27.274446" lon="151.290043">
  <ele>357.96</ele>
  <time>2026-09-01T19:50:49Z</time>
  <course>287.31</course>
  <speed>0.27892651361962706</speed>
  <fix>3d</fix>
</trkpt>
<trkpt lat="-27.2744462" lon="151.2900434">
  <ele>358.15</ele>
  <time>2026-09-01T19:50:49Z</time>
  <course>260.02</course>
  <speed>0.35</speed>
  <fix>3d</fix>
</trkpt>
<trkpt lat="-27.274446" lon="151.2900428">
  <ele>357.96</ele>
  <time>2026-09-01T19:50:49Z</time>
  <course>287.32</course>
  <speed>0.2683281572999748</speed>
  <fix>3d</fix>
</trkpt>
<trkpt lat="-27.2744462" lon="151.2900434">
  <ele>358.15</ele>
  <time>2026-09-01T19:50:49Z</time>
  <course>260.02</course>
  <speed>0.35</speed>
  <fix>3d</fix>
</trkpt>
<trkpt lat="-27.2744459" lon="151.2900425">
  <ele>357.96</ele>
  <time>2026-09-01T19:50:49Z</time>
  <course>287.35</course>
  <speed>0.2720294101747089</speed>
  <fix>3d</fix>
</trkpt>
<trkpt lat="-27.2744463" lon="151.2900427">
  <ele>358.15</ele>
  <time>2026-09-01T19:50:49Z</time>
  <course>277.48</course>
  <speed>0.3</speed>
  <fix>3d</fix>
</trkpt>
<trkpt lat="-27.2744458" lon="151.2900422">
  <ele>357.97</ele>
  <time>2026-09-01T19:50:49Z</time>
  <course>287.38</course>
  <speed>0.2765863337187866</speed>
  <fix>3d</fix>
</trkpt>
<trkpt lat="-27.2744463" lon="151.2900427">
  <ele>358.15</ele>
  <time>2026-09-01T19:50:49Z</time>
  <course>277.48</course>
  <speed>0.3</speed>
  <fix>3d</fix>
</trkpt>
<trkpt lat="-27.2744457" lon="151.290042">
  <ele>357.97</ele>
  <time>2026-09-01T19:50:49Z</time>
  <course>287.41</course>
  <speed>0.26870057685088805</speed>
  <fix>3d</fix>
</trkpt>
<trkpt lat="-27.2744462" lon="151.2900421">
  <ele>358.15</ele>
  <time>2026-09-01T19:50:49Z</time>
  <course>296.91</course>
  <speed>0.28</speed>
  <fix>3d</fix>
</trkpt>
<trkpt lat="-27.2744455" lon="151.2900418">
  <ele>357.97</ele>
  <time>2026-09-01T19:50:49Z</time>
  <course>287.44</course>
  <speed>0.2690724809414742</speed>
  <fix>3d</fix>
</trkpt>
<trkpt lat="-27.2744462" lon="151.2900421">
  <ele>358.15</ele>
  <time>2026-09-01T19:50:49Z</time>
  <course>296.91</course>
  <speed>0.28</speed>
  <fix>3d</fix>
</trkpt>
<trkpt lat="-27.2744454" lon="151.2900416">
  <ele>357.97</ele>
  <time>2026-09-01T19:50:49Z</time>
  <course>287.45</course>
  <speed>0.24758836806279894</speed>
  <fix>3d</fix>
</trkpt>
<trkpt lat="-27.2744458" lon="151.2900417">
  <ele>358.15</ele>
  <time>2026-09-01T19:50:49Z</time>
  <course>307.59</course>
  <speed>0.28</speed>
  <fix>3d</fix>
</trkpt>
<trkpt lat="-27.2744453" lon="151.2900413">
  <ele>357.97</ele>
  <time>2026-09-01T19:50:49Z</time>
  <course>287.46</course>
  <speed>0.2195449840010015</speed>
  <fix>3d</fix>
</trkpt>
<trkpt lat="-27.2744458" lon="151.2900417">
  <ele>358.15</ele>
  <time>2026-09-01T19:50:49Z</time>
  <course>307.59</course>
  <speed>0.28</speed>
  <fix>3d</fix>
</trkpt>
<trkpt lat="-27.2744452" lon="151.2900411">
  <ele>357.97</ele>
  <time>2026-09-01T19:50:49Z</time>
  <course>287.47</course>
  <speed>0.19924858845171275</speed>
  <fix>3d</fix>
</trkpt>
<trkpt lat="-27.2744456" lon="151.2900412">
  <ele>358.15</ele>
  <time>2026-09-01T19:50:49Z</time>
  <course>303.41</course>
  <speed>0.25</speed>
  <fix>3d</fix>
</trkpt>
<trkpt lat="-27.2744452" lon="151.2900409">
  <ele>357.97</ele>
  <time>2026-09-01T19:50:49Z</time>
  <course>287.46</course>
  <speed>0.19235384061671343</speed>
  <fix>3d</fix>
</trkpt>
<trkpt lat="-27.2744456" lon="151.2900412">
  <ele>358.15</ele>
  <time>2026-09-01T19:50:49Z</time>
  <course>303.41</course>
  <speed>0.25</speed>
  <fix>3d</fix>
</trkpt>
<trkpt lat="-27.2744452" lon="151.2900407">
  <ele>357.97</ele>
  <time>2026-09-01T19:50:49Z</time>
  <course>287.45</course>
  <speed>0.19026297590440447</speed>
  <fix>3d</fix>
</trkpt>
<trkpt lat="-27.2744454" lon="151.2900408">
  <ele>358.15</ele>
  <time>2026-09-01T19:50:49Z</time>
  <course>284.27</course>
  <speed>0.22</speed>
  <fix>3d</fix>
</trkpt>
<trkpt lat="-27.2744452" lon="151.2900405">
  <ele>357.97</ele>
  <time>2026-09-01T19:50:49Z</time>
  <course>287.42</course>
  <speed>0.18</speed>
  <fix>3d</fix>
</trkpt>
<trkpt lat="-27.2744454" lon="151.2900408">
  <ele>358.15</ele>
  <time>2026-09-01T19:50:49Z</time>
  <course>284.27</course>
  <speed>0.22</speed>
  <fix>3d</fix>
</trkpt>
<trkpt lat="-27.2744452" lon="151.2900403">
  <ele>357.97</ele>
  <time>2026-09-01T19:50:49Z</time>
  <course>287.4</course>
  <speed>0.17</speed>
  <fix>3d</fix>
</trkpt>
<trkpt lat="-27.2744454" lon="151.2900404">
  <ele>358.14</ele>
  <time>2026-09-01T19:50:49Z</time>
  <course>270.25</course>
  <speed>0.21</speed>
  <fix>3d</fix>
</trkpt>
<trkpt lat="-27.2744452" lon="151.2900401">
  <ele>357.96</ele>
  <time>2026-09-01T19:50:49Z</time>
  <course>287.38</course>
  <speed>0.15</speed>
  <fix>3d</fix>
</trkpt>
<trkpt lat="-27.2744454" lon="151.2900404">
  <ele>358.14</ele>
  <time>2026-09-01T19:50:49Z</time>
  <course>270.25</course>
  <speed>0.21</speed>
  <fix>3d</fix>
</trkpt>
<trkpt lat="-27.2744452" lon="151.2900399">
  <ele>357.96</ele>
  <time>2026-09-01T19:50:49Z</time>
  <course>287.36</course>
  <speed>0.14</speed>
  <fix>3d</fix>
</trkpt>
<trkpt lat="-27.2744454" lon="151.2900399">
  <ele>358.14</ele>
  <time>2026-09-01T19:50:49Z</time>
  <course>265.3</course>
  <speed>0.19</speed>
  <fix>3d</fix>
</trkpt>
<trkpt lat="-27.2744452" lon="151.2900397">
  <ele>357.96</ele>
  <time>2026-09-01T19:50:49Z</time>
  <course>287.35</course>
  <speed>0.1264911064067352</speed>
  <fix>3d</fix>
</trkpt>
<trkpt lat="-27.2744454" lon="151.2900399">
  <ele>358.14</ele>
  <time>2026-09-01T19:50:49Z</time>
  <course>265.3</course>
  <speed>0.19</speed>
  <fix>3d</fix>
</trkpt>
<trkpt lat="-27.2744452" lon="151.2900396">
  <ele>357.96</ele>
  <time>2026-09-01T19:50:49Z</time>
  <course>287.35</course>
  <speed>0.14422205101855956</speed>
  <fix>3d</fix>
</trkpt>
<trkpt lat="-27.2744454" lon="151.2900396">
  <ele>358.14</ele>
  <time>2026-09-01T19:50:49Z</time>
  <course>270.04</course>
  <speed>0.16</speed>
  <fix>3d</fix>
</trkpt>
<trkpt lat="-27.2744451" lon="151.2900395">
  <ele>357.96</ele>
  <time>2026-09-01T19:50:49Z</time>
  <course>287.35</course>
  <speed>0.18439088914585774</speed>
  <fix>3d</fix>
</trkpt>
<trkpt lat="-27.2744454" lon="151.2900396">
  <ele>358.14</ele>
  <time>2026-09-01T19:50:49Z</time>
  <course>270.04</course>
  <speed>0.16</speed>
  <fix>3d</fix>
</trkpt>
<trkpt lat="-27.2744449" lon="151.2900394">
  <ele>357.96</ele>
  <time>2026-09-01T19:50:49Z</time>
  <course>287.37</course>
  <speed>0.22090722034374521</speed>
  <fix>3d</fix>
</trkpt>
<trkpt lat="-27.2744453" lon="151.2900393">
  <ele>358.13</ele>
  <time>2026-09-01T19:50:49Z</time>
  <course>309.94</course>
  <speed>0.14</speed>
  <fix>3d</fix>
</trkpt>
<trkpt lat="-27.2744447" lon="151.2900394">
  <ele>357.96</ele>
  <time>2026-09-01T19:50:49Z</time>
  <course>287.39</course>
  <speed>0.25</speed>
  <fix>3d</fix>
</trkpt>
<trkpt lat="-27.2744453" lon="151.2900393">
  <ele>358.13</ele>
  <time>2026-09-01T19:50:49Z</time>
  <course>309.94</course>
  <speed>0.14</speed>
  <fix>3d</fix>
</trkpt>
<trkpt lat="-27.2744445" lon="151.2900394">
  <ele>357.96</ele>
  <time>2026-09-01T19:50:49Z</time>
  <course>287.42</course>
  <speed>0.27018512172212594</speed>
  <fix>3d</fix>
</trkpt>
<trkpt lat="-27.2744451" lon="151.2900391">
  <ele>358.13</ele>
  <time>2026-09-01T19:50:49Z</time>
  <course>346.25</course>
  <speed>0.2</speed>
  <fix>3d</fix>
</trkpt>
<trkpt lat="-27.2744443" lon="151.2900394">
  <ele>357.96</ele>
  <time>2026-09-01T19:50:49Z</time>
  <course>287.44</course>
  <speed>0.2816025568065745</speed>
  <fix>3d</fix>
</trkpt>
<trkpt lat="-27.2744451" lon="151.2900391">
  <ele>358.13</ele>
  <time>2026-09-01T19:50:49Z</time>
  <course>346.25</course>
  <speed>0.2</speed>
  <fix>3d</fix>
</trkpt>
<trkpt lat="-27.274444" lon="151.2900394">
  <ele>357.96</ele>
  <time>2026-09-01T19:50:49Z</time>
  <course>287.45</course>
  <speed>0.2942787793912432</speed>
  <fix>3d</fix>
</trkpt>
<trkpt lat="-27.2744446" lon="151.2900391">
  <ele>358.13</ele>
  <time>2026-09-01T19:50:49Z</time>
  <course>358.56</course>
  <speed>0.25</speed>
  <fix>3d</fix>
</trkpt>
<trkpt lat="-27.2744438" lon="151.2900394">
  <ele>357.96</ele>
  <time>2026-09-01T19:50:49Z</time>
  <course>287.46</course>
  <speed>0.23345235059857505</speed>
  <fix>3d</fix>
</trkpt>
<trkpt lat="-27.2744446" lon="151.2900391">
  <ele>358.13</ele>
  <time>2026-09-01T19:50:49Z</time>
  <course>358.56</course>
  <speed>0.25</speed>
  <fix>3d</fix>
</trkpt>
<trkpt lat="-27.2744437" lon="151.2900394">
  <ele>357.96</ele>
  <time>2026-09-01T19:50:49Z</time>
  <course>287.48</course>
  <speed>0.17262676501632068</speed>
  <fix>3d</fix>
</trkpt>
<trkpt lat="-27.2744441" lon="151.2900391">
  <ele>358.13</ele>
  <time>2026-09-01T19:50:49Z</time>
  <course>4.24</course>
  <speed>0.25</speed>
  <fix>3d</fix>
</trkpt>
<trkpt lat="-27.2744436" lon="151.2900394">
  <ele>357.96</ele>
  <time>2026-09-01T19:50:49Z</time>
  <course>287.49</course>
  <speed>0.12369316876852982</speed>
  <fix>3d</fix>
</trkpt>
<trkpt lat="-27.2744441" lon="151.2900391">
  <ele>358.13</ele>
  <time>2026-09-01T19:50:49Z</time>
  <course>4.24</course>
  <speed>0.25</speed>
  <fix>3d</fix>
</trkpt>
<trkpt lat="-27.2744435" lon="151.2900394">
  <ele>357.96</ele>
  <time>2026-09-01T19:50:49Z</time>
  <course>287.47</course>
  <speed>0.09848857801796104</speed>
  <fix>3d</fix>
</trkpt>
<trkpt lat="-27.2744437" lon="151.2900391">
  <ele>358.13</ele>
  <time>2026-09-01T19:50:49Z</time>
  <course>6.97</course>
  <speed>0.17</speed>
  <fix>3d</fix>
</trkpt>
<trkpt lat="-27.2744434" lon="151.2900394">
  <ele>357.96</ele>
  <time>2026-09-01T19:50:49Z</time>
  <course>287.44</course>
  <speed>0.08062257748298549</speed>
  <fix>3d</fix>
</trkpt>
<trkpt lat="-27.2744437" lon="151.2900391">
  <ele>358.13</ele>
  <time>2026-09-01T19:50:49Z</time>
  <course>6.97</course>
  <speed>0.17</speed>
  <fix>3d</fix>
</trkpt>
<trkpt lat="-27.2744433" lon="151.2900394">
  <ele>357.96</ele>
  <time>2026-09-01T19:50:49Z</time>
  <course>287.41</course>
  <speed>0.07810249675906654</speed>
  <fix>3d</fix>
</trkpt>
<trkpt lat="-27.2744435" lon="151.2900391">
  <ele>358.13</ele>
  <time>2026-09-01T19:50:49Z</time>
  <course>14.25</course>
  <speed>0.09</speed>
  <fix>3d</fix>
</trkpt>
<trkpt lat="-27.2744433" lon="151.2900394">
  <ele>357.97</ele>
  <time>2026-09-01T19:50:49Z</time>
  <course>287.37</course>
  <speed>0.09219544457292887</speed>
  <fix>3d</fix>
</trkpt>
<trkpt lat="-27.2744435" lon="151.2900391">
  <ele>358.13</ele>
  <time>2026-09-01T19:50:49Z</time>
  <course>14.25</course>
  <speed>0.09</speed>
  <fix>3d</fix>
</trkpt>
<trkpt lat="-27.2744433" lon="151.2900395">
  <ele>357.97</ele>
  <time>2026-09-01T19:50:49Z</time>
  <course>287.35</course>
  <speed>0.1</speed>
  <fix>3d</fix>
</trkpt>
<trkpt lat="-27.2744434" lon="151.2900392">
  <ele>358.13</ele>
  <time>2026-09-01T19:50:49Z</time>
  <course>34.95</course>
  <speed>0.06</speed>
  <fix>3d</fix>
</trkpt>
<trkpt lat="-27.2744432" lon="151.2900396">
  <ele>357.97</ele>
  <time>2026-09-01T19:50:49Z</time>
  <course>287.34</course>
  <speed>0.10816653826391968</speed>
  <fix>3d</fix>
</trkpt>
<trkpt lat="-27.2744434" lon="151.2900392">
  <ele>358.13</ele>
  <time>2026-09-01T19:50:49Z</time>
  <course>34.95</course>
  <speed>0.06</speed>
  <fix>3d</fix>
</trkpt>
<trkpt lat="-27.2744431" lon="151.2900396">
  <ele>357.97</ele>
  <time>2026-09-01T19:50:49Z</time>
  <course>287.33</course>
  <speed>0.18384776310850234</speed>
  <fix>3d</fix>
</trkpt>
<trkpt lat="-27.2744433" lon="151.2900393">
  <ele>358.13</ele>
  <time>2026-09-01T19:50:49Z</time>
  <course>52.76</course>
  <speed>0.07</speed>
  <fix>3d</fix>
</trkpt>
<trkpt lat="-27.274443" lon="151.2900398">
  <ele>357.97</ele>
  <time>2026-09-01T19:50:49Z</time>
  <course>287.34</course>
  <speed>0.2640075756488817</speed>
  <fix>3d</fix>
</trkpt>
<trkpt lat="-27.2744433" lon="151.2900393">
  <ele>358.13</ele>
  <time>2026-09-01T19:50:49Z</time>
  <course>52.76</course>
  <speed>0.07</speed>
  <fix>3d</fix>
</trkpt>
<trkpt lat="-27.2744428" lon="151.2900399">
  <ele>357.97</ele>
  <time>2026-09-01T19:50:49Z</time>
  <course>287.36</course>
  <speed>0.32449961479175904</speed>
  <fix>3d</fix>
</trkpt>
<trkpt lat="-27.2744432" lon="151.2900394">
  <ele>358.13</ele>
  <time>2026-09-01T19:50:49Z</time>
  <course>42.35</course>
  <speed>0.16</speed>
  <fix>3d</fix>
</trkpt>
<trkpt lat="-27.2744426" lon="151.2900401">
  <ele>357.96</ele>
  <time>2026-09-01T19:50:49Z</time>
  <course>287.39</course>
  <speed>0.36359317925395684</speed>
  <fix>3d</fix>
</trkpt>
<trkpt lat="-27.2744432" lon="151.2900394">
  <ele>358.13</ele>
  <time>2026-09-01T19:50:49Z</time>
  <course>42.35</course>
  <speed>0.16</speed>
  <fix>3d</fix>
</trkpt>
<trkpt lat="-27.2744423" lon="151.2900402">
  <ele>357.96</ele>
  <time>2026-09-01T19:50:49Z</time>
  <course>287.44</course>
  <speed>0.3858756276314948</speed>
  <fix>3d</fix>
</trkpt>
<trkpt lat="-27.2744428" lon="151.2900397">
  <ele>358.12</ele>
  <time>2026-09-01T19:50:49Z</time>
  <course>33.43</course>
  <speed>0.29</speed>
  <fix>3d</fix>
</trkpt>
<trkpt lat="-27.274442" lon="151.2900404">
  <ele>357.96</ele>
  <time>2026-09-01T19:50:49Z</time>
  <course>287.48</course>
  <speed>0.40311288741492746</speed>
  <fix>3d</fix>
</trkpt>
<trkpt lat="-27.2744428" lon="151.2900397">
  <ele>358.12</ele>
  <time>2026-09-01T19:50:49Z</time>
  <course>33.43</course>
  <speed>0.29</speed>
  <fix>3d</fix>
</trkpt>
<trkpt lat="-27.2744417" lon="151.2900406">
  <ele>357.96</ele>
  <time>2026-09-01T19:50:49Z</time>
  <course>287.53</course>
  <speed>0.4205948168962618</speed>
  <fix>3d</fix>
</trkpt>
<trkpt lat="-27.2744424" lon="151.2900401">
  <ele>358.12</ele>
  <time>2026-09-01T19:50:49Z</time>
  <course>29.8</course>
  <speed>0.36</speed>
  <fix>3d</fix>
</trkpt>
<trkpt lat="-27.2744413" lon="151.2900408">
  <ele>357.96</ele>
  <time>2026-09-01T19:50:49Z</time>
  <course>287.56</course>
  <speed>0.4159326868617084</speed>
  <fix>3d</fix>
</trkpt>
<trkpt lat="-27.2744424" lon="151.2900401">
  <ele>358.12</ele>
  <time>2026-09-01T19:50:49Z</time>
  <course>29.8</course>
  <speed>0.36</speed>
  <fix>3d</fix>
</trkpt>
<trkpt lat="-27.2744411" lon="151.2900409">
  <ele>357.96</ele>
  <time>2026-09-01T19:50:49Z</time>
  <course>287.59</course>
  <speed>0.34481879299133333</speed>
  <fix>3d</fix>
</trkpt>
<trkpt lat="-27.2744417" lon="151.2900404">
  <ele>358.12</ele>
  <time>2026-09-01T19:50:49Z</time>
  <course>27.37</course>
  <speed>0.39</speed>
  <fix>3d</fix>
</trkpt>
<trkpt lat="-27.2744408" lon="151.2900411">
  <ele>357.96</ele>
  <time>2026-09-01T19:50:49Z</time>
  <course>287.62</course>
  <speed>0.2830194339616981</speed>
  <fix>3d</fix>
</trkpt>
<trkpt lat="-27.2744417" lon="151.2900404">
  <ele>358.12</ele>
  <time>2026-09-01T19:50:49Z</time>
  <course>27.37</course>
  <speed>0.39</speed>
  <fix>3d</fix>
</trkpt>
<trkpt lat="-27.2744406" lon="151.2900412">
  <ele>357.96</ele>
  <time>2026-09-01T19:50:49Z</time>
  <course>287.62</course>
  <speed>0.2420743687382041</speed>
  <fix>3d</fix>
</trkpt>
<trkpt lat="-27.2744411" lon="151.2900408">
  <ele>358.12</ele>
  <time>2026-09-01T19:50:49Z</time>
  <course>28.52</course>
  <speed>0.33</speed>
  <fix>3d</fix>
</trkpt>
<trkpt lat="-27.2744405" lon="151.2900414">
  <ele>357.96</ele>
  <time>2026-09-01T19:50:49Z</time>
  <course>287.6</course>
  <speed>0.212602916254693</speed>
  <fix>3d</fix>
</trkpt>
<trkpt lat="-27.2744411" lon="151.2900408">
  <ele>358.12</ele>
  <time>2026-09-01T19:50:49Z</time>
  <course>28.52</course>
  <speed>0.33</speed>
  <fix>3d</fix>
</trkpt>
<trkpt lat="-27.2744404" lon="151.2900415">
  <ele>357.95</ele>
  <time>2026-09-01T19:50:49Z</time>
  <course>287.55</course>
  <speed>0.20518284528683192</speed>
  <fix>3d</fix>
</trkpt>
<trkpt lat="-27.2744407" lon="151.2900411">
  <ele>358.12</ele>
  <time>2026-09-01T19:50:49Z</time>
  <course>35.69</course>
  <speed>0.23</speed>
  <fix>3d</fix>
</trkpt>
<trkpt lat="-27.2744402" lon="151.2900416">
  <ele>357.95</ele>
  <time>2026-09-01T19:50:49Z</time>
  <course>287.49</course>
  <speed>0.19849433241279207</speed>
  <fix>3d</fix>
</trkpt>
<trkpt lat="-27.2744407" lon="151.2900411">
  <ele>358.12</ele>
  <time>2026-09-01T19:50:49Z</time>
  <course>35.69</course>
  <speed>0.23</speed>
  <fix>3d</fix>
</trkpt>
<trkpt lat="-27.2744401" lon="151.2900418">
  <ele>357.95</ele>
  <time>2026-09-01T19:50:49Z</time>
  <course>287.43</course>
  <speed>0.20615528128088303</speed>
  <fix>3d</fix>
</trkpt>
<trkpt lat="-27.2744404" lon="151.2900414">
  <ele>358.12</ele>
  <time>2026-09-01T19:50:49Z</time>
  <course>44.65</course>
  <speed>0.19</speed>
  <fix>3d</fix>
</trkpt>
<trkpt lat="-27.27444" lon="151.2900419">
  <ele>357.95</ele>
  <time>2026-09-01T19:50:49Z</time>
  <course>287.37</course>
  <speed>0.20808652046684814</speed>
  <fix>3d</fix>
</trkpt>
<trkpt lat="-27.2744404" lon="151.2900414">
  <ele>358.12</ele>
  <time>2026-09-01T19:50:49Z</time>
  <course>44.65</course>
  <speed>0.19</speed>
  <fix>3d</fix>
</trkpt>
<trkpt lat="-27.2744399" lon="151.2900421">
  <ele>357.95</ele>
  <time>2026-09-01T19:50:49Z</time>
  <course>287.33</course>
  <speed>0.2220360331117452</speed>
  <fix>3d</fix>
</trkpt>
<trkpt lat="-27.2744402" lon="151.2900416">
  <ele>358.12</ele>
  <time>2026-09-01T19:50:49Z</time>
  <course>51.29</course>
  <speed>0.19</speed>
  <fix>3d</fix>
</trkpt>
<trkpt lat="-27.2744398" lon="151.2900423">
  <ele>357.94</ele>
  <time>2026-09-01T19:50:49Z</time>
  <course>287.31</course>
  <speed>0.29698484809834996</speed>
  <fix>3d</fix>
</trkpt>
<trkpt lat="-27.2744402" lon="151.2900416">
  <ele>358.12</ele>
  <time>2026-09-01T19:50:49Z</time>
  <course>51.29</course>
  <speed>0.19</speed>
  <fix>3d</fix>
</trkpt>
<trkpt lat="-27.2744396" lon="151.2900425">
  <ele>357.94</ele>
  <time>2026-09-01T19:50:50Z</time>
  <course>287.31</course>
  <speed>0.3687817782917155</speed>
  <fix>3d</fix>
</trkpt>
<trkpt lat="-27.27444" lon="151.2900419">
  <ele>358.11</ele>
  <time>2026-09-01T19:50:50Z</time>
  <course>48.89</course>
  <speed>0.23</speed>
  <fix>3d</fix>
</trkpt>
<trkpt lat="-27.2744393" lon="151.2900427">
  <ele>357.94</ele>
  <time>2026-09-01T19:50:50Z</time>
  <course>287.33</course>
  <speed>0.4220189569201838</speed>
  <fix>3d</fix>
</trkpt>
<trkpt lat="-27.27444" lon="151.2900419">
  <ele>358.11</ele>
  <time>2026-09-01T19:50:50Z</time>
  <course>48.89</course>
  <speed>0.23</speed>
  <fix>3d</fix>
</trkpt>
<trkpt lat="-27.274439" lon="151.2900429">
  <ele>357.94</ele>
  <time>2026-09-01T19:50:50Z</time>
  <course>287.38</course>
  <speed>0.4604345773288535</speed>
  <fix>3d</fix>
</trkpt>
<trkpt lat="-27.2744396" lon="151.2900424">
  <ele>358.11</ele>
  <time>2026-09-01T19:50:50Z</time>
  <course>39.59</course>
  <speed>0.33</speed>
  <fix>3d</fix>
</trkpt>
<trkpt lat="-27.2744386" lon="151.2900432">
  <ele>357.94</ele>
  <time>2026-09-01T19:50:50Z</time>
  <course>287.44</course>
  <speed>0.4802082881417188</speed>
  <fix>3d</fix>
</trkpt>
<trkpt lat="-27.2744396" lon="151.2900424">
  <ele>358.11</ele>
  <time>2026-09-01T19:50:50Z</time>
  <course>39.59</course>
  <speed>0.33</speed>
  <fix>3d</fix>
</trkpt>
<trkpt lat="-27.2744383" lon="151.2900434">
  <ele>357.94</ele>
  <time>2026-09-01T19:50:50Z</time>
  <course>287.51</course>
  <speed>0.48877397639399744</speed>
  <fix>3d</fix>
</trkpt>
<trkpt lat="-27.274439" lon="151.2900428">
  <ele>358.12</ele>
  <time>2026-09-01T19:50:50Z</time>
  <course>33.41</course>
  <speed>0.43</speed>
  <fix>3d</fix>
</trkpt>
<trkpt lat="-27.2744379" lon="151.2900436">
  <ele>357.94</ele>
  <time>2026-09-01T19:50:50Z</time>
  <course>287.57</course>
  <speed>0.49244289008980524</speed>
  <fix>3d</fix>
</trkpt>
<trkpt lat="-27.274439" lon="151.2900428">
  <ele>358.12</ele>
  <time>2026-09-01T19:50:50Z</time>
  <course>33.41</course>
  <speed>0.43</speed>
  <fix>3d</fix>
</trkpt>
<trkpt lat="-27.2744375" lon="151.2900439">
  <ele>357.95</ele>
  <time>2026-09-01T19:50:50Z</time>
  <course>287.62</course>
  <speed>0.4876474136094644</speed>
  <fix>3d</fix>
</trkpt>
<trkpt lat="-27.2744383" lon="151.2900433">
  <ele>358.12</ele>
  <time>2026-09-01T19:50:50Z</time>
  <course>29.85</course>
  <speed>0.46</speed>
  <fix>3d</fix>
</trkpt>
<trkpt lat="-27.2744372" lon="151.290044">
  <ele>357.95</ele>
  <time>2026-09-01T19:50:50Z</time>
  <course>287.66</course>
  <speed>0.39824615503479754</speed>
  <fix>3d</fix>
</trkpt>
<trkpt lat="-27.2744383" lon="151.2900433">
  <ele>358.12</ele>
  <time>2026-09-01T19:50:50Z</time>
  <course>29.85</course>
  <speed>0.46</speed>
  <fix>3d</fix>
</trkpt>
<trkpt lat="-27.2744369" lon="151.2900442">
  <ele>357.95</ele>
  <time>2026-09-01T19:50:50Z</time>
  <course>287.69</course>
  <speed>0.327566787083184</speed>
  <fix>3d</fix>
</trkpt>
<trkpt lat="-27.2744376" lon="151.2900437">
  <ele>358.12</ele>
  <time>2026-09-01T19:50:50Z</time>
  <course>28.04</course>
  <speed>0.43</speed>
  <fix>3d</fix>
</trkpt>
<trkpt lat="-27.2744367" lon="151.2900444">
  <ele>357.95</ele>
  <time>2026-09-01T19:50:50Z</time>
  <course>287.69</course>
  <speed>0.2745906043549196</speed>
  <fix>3d</fix>
</trkpt>
<trkpt lat="-27.2744376" lon="151.2900437">
  <ele>358.12</ele>
  <time>2026-09-01T19:50:50Z</time>
  <course>28.04</course>
  <speed>0.43</speed>
  <fix>3d</fix>
</trkpt>
<trkpt lat="-27.2744365" lon="151.2900445">
  <ele>357.95</ele>
  <time>2026-09-01T19:50:50Z</time>
  <course>287.66</course>
  <speed>0.25</speed>
  <fix>3d</fix>
</trkpt>
<trkpt lat="-27.274437" lon="151.2900441">
  <ele>358.12</ele>
  <time>2026-09-01T19:50:50Z</time>
  <course>29.61</course>
  <speed>0.32</speed>
  <fix>3d</fix>
</trkpt>
<trkpt lat="-27.2744364" lon="151.2900446">
  <ele>357.95</ele>
  <time>2026-09-01T19:50:50Z</time>
  <course>287.6</course>
  <speed>0.22671568097509268</speed>
  <fix>3d</fix>
</trkpt>
<trkpt lat="-27.274437" lon="151.2900441">
  <ele>358.12</ele>
  <time>2026-09-01T19:50:50Z</time>
  <course>29.61</course>
  <speed>0.32</speed>
  <fix>3d</fix>
</trkpt>
<trkpt lat="-27.2744362" lon="151.2900448">
  <ele>357.96</ele>
  <time>2026-09-01T19:50:50Z</time>
  <course>287.51</course>
  <speed>0.2193171219946131</speed>
  <fix>3d</fix>
</trkpt>
<trkpt lat="-27.2744366" lon="151.2900444">
  <ele>358.13</ele>
  <time>2026-09-01T19:50:50Z</time>
  <course>35.56</course>
  <speed>0.24</speed>
  <fix>3d</fix>
</trkpt>
<trkpt lat="-27.2744361" lon="151.2900449">
  <ele>357.96</ele>
  <time>2026-09-01T19:50:50Z</time>
  <course>287.42</course>
  <speed>0.2193171219946131</speed>
  <fix>3d</fix>
</trkpt>
<trkpt lat="-27.2744366" lon="151.2900444">
  <ele>358.13</ele>
  <time>2026-09-01T19:50:50Z</time>
  <course>35.56</course>
  <speed>0.24</speed>
  <fix>3d</fix>
</trkpt>
<trkpt lat="-27.274436" lon="151.2900451">
  <ele>357.96</ele>
  <time>2026-09-01T19:50:50Z</time>
  <course>287.35</course>
  <speed>0.212602916254693</speed>
  <fix>3d</fix>
</trkpt>
<trkpt lat="-27.2744363" lon="151.2900447">
  <ele>358.13</ele>
  <time>2026-09-01T19:50:50Z</time>
  <course>42.39</course>
  <speed>0.2</speed>
  <fix>3d</fix>
</trkpt>
<trkpt lat="-27.2744359" lon="151.2900452">
  <ele>357.96</ele>
  <time>2026-09-01T19:50:50Z</time>
  <course>287.29</course>
  <speed>0.22022715545545238</speed>
  <fix>3d</fix>
</trkpt>
<trkpt lat="-27.2744363" lon="151.2900447">
  <ele>358.13</ele>
  <time>2026-09-01T19:50:50Z</time>
  <course>42.39</course>
  <speed>0.2</speed>
  <fix>3d</fix>
</trkpt>
<trkpt lat="-27.2744357" lon="151.2900454">
  <ele>357.96</ele>
  <time>2026-09-01T19:50:50Z</time>
  <course>287.25</course>
  <speed>0.2973213749463701</speed>
  <fix>3d</fix>
</trkpt>
<trkpt lat="-27.274436" lon="151.290045">
  <ele>358.13</ele>
  <time>2026-09-01T19:50:50Z</time>
  <course>47.64</course>
  <speed>0.2</speed>
  <fix>3d</fix>
</trkpt>
<trkpt lat="-27.2744355" lon="151.2900456">
  <ele>357.96</ele>
  <time>2026-09-01T19:50:50Z</time>
  <course>287.24</course>
  <speed>0.3720215047547655</speed>
  <fix>3d</fix>
</trkpt>
<trkpt lat="-27.274436" lon="151.290045">
  <ele>358.13</ele>
  <time>2026-09-01T19:50:50Z</time>
  <course>47.64</course>
  <speed>0.2</speed>
  <fix>3d</fix>
</trkpt>
<trkpt lat="-27.2744352" lon="151.2900458">
  <ele>357.96</ele>
  <time>2026-09-01T19:50:50Z</time>
  <course>287.26</course>
  <speed>0.4243819034784589</speed>
  <fix>3d</fix>
</trkpt>
<trkpt lat="-27.2744357" lon="151.2900453">
  <ele>358.13</ele>
  <time>2026-09-01T19:50:50Z</time>
  <course>41.17</course>
  <speed>0.27</speed>
  <fix>3d</fix>
</trkpt>
<trkpt lat="-27.2744349" lon="151.290046">
  <ele>357.96</ele>
  <time>2026-09-01T19:50:50Z</time>
  <course>287.3</course>
  <speed>0.45793012567421243</speed>
  <fix>3d</fix>
</trkpt>
<trkpt lat="-27.2744357" lon="151.2900453">
  <ele>358.13</ele>
  <time>2026-09-01T19:50:50Z</time>
  <course>41.17</course>
  <speed>0.27</speed>
  <fix>3d</fix>
</trkpt>
<trkpt lat="-27.2744345" lon="151.2900463">
  <ele>357.96</ele>
  <time>2026-09-01T19:50:50Z</time>
  <course>287.37</course>
  <speed>0.47010637094172636</speed>
  <fix>3d</fix>
</trkpt>
<trkpt lat="-27.2744352" lon="151.2900457">
  <ele>358.13</ele>
  <time>2026-09-01T19:50:50Z</time>
  <course>33.09</course>
  <speed>0.39</speed>
  <fix>3d</fix>
</trkpt>
<trkpt lat="-27.2744342" lon="151.2900465">
  <ele>357.96</ele>
  <time>2026-09-01T19:50:50Z</time>
  <course>287.45</course>
  <speed>0.4741307836451879</speed>
  <fix>3d</fix>
</trkpt>
<trkpt lat="-27.2744352" lon="151.2900457">
  <ele>358.13</ele>
  <time>2026-09-01T19:50:50Z</time>
  <course>33.09</course>
  <speed>0.39</speed>
  <fix>3d</fix>
</trkpt>
<trkpt lat="-27.2744338" lon="151.2900467">
  <ele>357.96</ele>
  <time>2026-09-01T19:50:50Z</time>
  <course>287.52</course>
  <speed>0.47853944456021597</speed>
  <fix>3d</fix>
</trkpt>
<trkpt lat="-27.2744345" lon="151.2900462">
  <ele>358.13</ele>
  <time>2026-09-01T19:50:50Z</time>
  <course>28.55</course>
  <speed>0.45</speed>
  <fix>3d</fix>
</trkpt>
<trkpt lat="-27.2744334" lon="151.2900469">
  <ele>357.96</ele>
  <time>2026-09-01T19:50:50Z</time>
  <course>287.57</course>
  <speed>0.47010637094172636</speed>
  <fix>3d</fix>
</trkpt>
<trkpt lat="-27.2744345" lon="151.2900462">
  <ele>358.13</ele>
  <time>2026-09-01T19:50:50Z</time>
  <course>28.55</course>
  <speed>0.45</speed>
  <fix>3d</fix>
</trkpt>
<trkpt lat="-27.2744331" lon="151.290047">
  <ele>357.96</ele>
  <time>2026-09-01T19:50:50Z</time>
  <course>287.61</course>
  <speed>0.3757658845611187</speed>
  <fix>3d</fix>
</trkpt>
<trkpt lat="-27.2744338" lon="151.2900465">
  <ele>358.13</ele>
  <time>2026-09-01T19:50:50Z</time>
  <course>24.75</course>
  <speed>0.46</speed>
  <fix>3d</fix>
</trkpt>
<trkpt lat="-27.2744328" lon="151.2900471">
  <ele>357.96</ele>
  <time>2026-09-01T19:50:50Z</time>
  <course>287.64</course>
  <speed>0.2641968962724581</speed>
  <fix>3d</fix>
</trkpt>
<trkpt lat="-27.2744338" lon="151.2900465">
  <ele>358.13</ele>
  <time>2026-09-01T19:50:50Z</time>
  <course>24.75</course>
  <speed>0.46</speed>
  <fix>3d</fix>
</trkpt>
<trkpt lat="-27.2744327" lon="151.2900473">
  <ele>357.96</ele>
  <time>2026-09-01T19:50:50Z</time>
  <course>287.64</course>
  <speed>0.18601075237738274</speed>
  <fix>3d</fix>
</trkpt>
<trkpt lat="-27.2744332" lon="151.2900469">
  <ele>358.13</ele>
  <time>2026-09-01T19:50:50Z</time>
  <course>24.66</course>
  <speed>0.35</speed>
  <fix>3d</fix>
</trkpt>
<trkpt lat="-27.2744326" lon="151.2900473">
  <ele>357.96</ele>
  <time>2026-09-01T19:50:50Z</time>
  <course>287.61</course>
  <speed>0.1345362404707371</speed>
  <fix>3d</fix>
</trkpt>
<trkpt lat="-27.2744332" lon="151.2900469">
  <ele>358.13</ele>
  <time>2026-09-01T19:50:50Z</time>
  <course>24.66</course>
  <speed>0.35</speed>
  <fix>3d</fix>
</trkpt>
<trkpt lat="-27.2744325" lon="151.2900474">
  <ele>357.96</ele>
  <time>2026-09-01T19:50:50Z</time>
  <course>287.55</course>
  <speed>0.1118033988749895</speed>
  <fix>3d</fix>
</trkpt>
<trkpt lat="-27.2744327" lon="151.2900472">
  <ele>358.13</ele>
  <time>2026-09-01T19:50:50Z</time>
  <course>34.12</course>
  <speed>0.18</speed>
  <fix>3d</fix>
</trkpt>
<trkpt lat="-27.2744325" lon="151.2900475">
  <ele>357.96</ele>
  <time>2026-09-01T19:50:50Z</time>
  <course>287.47</course>
  <speed>0.1019803902718557</speed>
  <fix>3d</fix>
</trkpt>
<trkpt lat="-27.2744327" lon="151.2900472">
  <ele>358.13</ele>
  <time>2026-09-01T19:50:50Z</time>
  <course>34.12</course>
  <speed>0.18</speed>
  <fix>3d</fix>
</trkpt>
<trkpt lat="-27.2744325" lon="151.2900476">
  <ele>357.96</ele>
  <time>2026-09-01T19:50:50Z</time>
  <course>287.38</course>
  <speed>0.1004987562112089</speed>
  <fix>3d</fix>
</trkpt>
<trkpt lat="-27.2744325" lon="151.2900474">
  <ele>358.13</ele>
  <time>2026-09-01T19:50:50Z</time>
  <course>61.22</course>
  <speed>0.1</speed>
  <fix>3d</fix>
</trkpt>
<trkpt lat="-27.2744325" lon="151.2900477">
  <ele>357.96</ele>
  <time>2026-09-01T19:50:50Z</time>
  <course>287.3</course>
  <speed>0.11</speed>
  <fix>3d</fix>
</trkpt>
<trkpt lat="-27.2744325" lon="151.2900474">
  <ele>358.13</ele>
  <time>2026-09-01T19:50:50Z</time>
  <course>61.22</course>
  <speed>0.1</speed>
  <fix>3d</fix>
</trkpt>
<trkpt lat="-27.2744325" lon="151.2900478">
  <ele>357.96</ele>
  <time>2026-09-01T19:50:50Z</time>
  <course>287.24</course>
  <speed>0.12041594578792296</speed>
  <fix>3d</fix>
</trkpt>
<trkpt lat="-27.2744325" lon="151.2900475">
  <ele>358.13</ele>
  <time>2026-09-01T19:50:50Z</time>
  <course>91.67</course>
  <speed>0.09</speed>
  <fix>3d</fix>
</trkpt>
<trkpt lat="-27.2744325" lon="151.2900479">
  <ele>357.96</ele>
  <time>2026-09-01T19:50:50Z</time>
  <course>287.2</course>
  <speed>0.130384048104053</speed>
  <fix>3d</fix>
</trkpt>
<trkpt lat="-27.2744325" lon="151.2900475">
  <ele>358.13</ele>
  <time>2026-09-01T19:50:50Z</time>
  <course>91.67</course>
  <speed>0.09</speed>
  <fix>3d</fix>
</trkpt>
<trkpt lat="-27.2744325" lon="151.2900481">
  <ele>357.96</ele>
  <time>2026-09-01T19:50:50Z</time>
  <course>287.17</course>
  <speed>0.17888543819998318</speed>
  <fix>3d</fix>
</trkpt>
<trkpt lat="-27.2744325" lon="151.2900478">
  <ele>358.12</ele>
  <time>2026-09-01T19:50:50Z</time>
  <course>103.83</course>
  <speed>0.1</speed>
  <fix>3d</fix>
</trkpt>
<trkpt lat="-27.2744324" lon="151.2900482">
  <ele>357.96</ele>
  <time>2026-09-01T19:50:50Z</time>
  <course>287.16</course>
  <speed>0.2690724809414742</speed>
  <fix>3d</fix>
</trkpt>
<trkpt lat="-27.2744325" lon="151.2900478">
  <ele>358.12</ele>
  <time>2026-09-01T19:50:50Z</time>
  <course>103.83</course>
  <speed>0.1</speed>
  <fix>3d</fix>
</trkpt>
<trkpt lat="-27.2744322" lon="151.2900484">
  <ele>357.96</ele>
  <time>2026-09-01T19:50:50Z</time>
  <course>287.17</course>
  <speed>0.3330165161069343</speed>
  <fix>3d</fix>
</trkpt>
<trkpt lat="-27.2744325" lon="151.290048">
  <ele>358.12</ele>
  <time>2026-09-01T19:50:50Z</time>
  <course>66.82</course>
  <speed>0.15</speed>
  <fix>3d</fix>
</trkpt>
<trkpt lat="-27.274432" lon="151.2900487">
  <ele>357.95</ele>
  <time>2026-09-01T19:50:50Z</time>
  <course>287.21</course>
  <speed>0.37013511046643494</speed>
  <fix>3d</fix>
</trkpt>
<trkpt lat="-27.2744325" lon="151.290048">
  <ele>358.12</ele>
  <time>2026-09-01T19:50:50Z</time>
  <course>66.82</course>
  <speed>0.15</speed>
  <fix>3d</fix>
</trkpt>
<trkpt lat="-27.2744317" lon="151.2900489">
  <ele>357.95</ele>
  <time>2026-09-01T19:50:50Z</time>
  <course>287.27</course>
  <speed>0.4</speed>
  <fix>3d</fix>
</trkpt>
<trkpt lat="-27.2744323" lon="151.2900484">
  <ele>358.12</ele>
  <time>2026-09-01T19:50:50Z</time>
  <course>42.42</course>
  <speed>0.29</speed>
  <fix>3d</fix>
</trkpt>
<trkpt lat="-27.2744314" lon="151.2900491">
  <ele>357.95</ele>
  <time>2026-09-01T19:50:50Z</time>
  <course>287.34</course>
  <speed>0.4022437072223753</speed>
  <fix>3d</fix>
</trkpt>
<trkpt lat="-27.2744323" lon="151.2900484">
  <ele>358.12</ele>
  <time>2026-09-01T19:50:50Z</time>
  <course>42.42</course>
  <speed>0.29</speed>
  <fix>3d</fix>
</trkpt>
<trkpt lat="-27.2744311" lon="151.2900493">
  <ele>357.95</ele>
  <time>2026-09-01T19:50:50Z</time>
  <course>287.41</course>
  <speed>0.41048751503547587</speed>
  <fix>3d</fix>
</trkpt>
<trkpt lat="-27.2744318" lon="151.2900488">
  <ele>358.12</ele>
  <time>2026-09-01T19:50:50Z</time>
  <course>35.77</course>
  <speed>0.36</speed>
  <fix>3d</fix>
</trkpt>
<trkpt lat="-27.2744308" lon="151.2900495">
  <ele>357.95</ele>
  <time>2026-09-01T19:50:50Z</time>
  <course>287.47</course>
  <speed>0.4049691346263317</speed>
  <fix>3d</fix>
</trkpt>
<trkpt lat="-27.2744318" lon="151.2900488">
  <ele>358.12</ele>
  <time>2026-09-01T19:50:50Z</time>
  <course>35.77</course>
  <speed>0.36</speed>
  <fix>3d</fix>
</trkpt>
<trkpt lat="-27.2744306" lon="151.2900497">
  <ele>357.95</ele>
  <time>2026-09-01T19:50:50Z</time>
  <course>287.52</course>
  <speed>0.3522782990761707</speed>
  <fix>3d</fix>
</trkpt>
<trkpt lat="-27.2744312" lon="151.2900492">
  <ele>358.12</ele>
  <time>2026-09-01T19:50:50Z</time>
  <course>32.7</course>
  <speed>0.38</speed>
  <fix>3d</fix>
</trkpt>
<trkpt lat="-27.2744304" lon="151.2900499">
  <ele>357.96</ele>
  <time>2026-09-01T19:50:50Z</time>
  <course>287.55</course>
  <speed>0.23345235059857505</speed>
  <fix>3d</fix>
</trkpt>
<trkpt lat="-27.2744312" lon="151.2900492">
  <ele>358.12</ele>
  <time>2026-09-01T19:50:50Z</time>
  <course>32.7</course>
  <speed>0.38</speed>
  <fix>3d</fix>
</trkpt>
<trkpt lat="-27.2744303" lon="151.29005">
  <ele>357.96</ele>
  <time>2026-09-01T19:50:50Z</time>
  <course>287.57</course>
  <speed>0.15652475842498528</speed>
  <fix>3d</fix>
</trkpt>
<trkpt lat="-27.2744307" lon="151.2900496">
  <ele>358.12</ele>
  <time>2026-09-01T19:50:50Z</time>
  <course>35.16</course>
  <speed>0.3</speed>
  <fix>3d</fix>
</trkpt>
<trkpt lat="-27.2744303" lon="151.2900501">
  <ele>357.96</ele>
  <time>2026-09-01T19:50:50Z</time>
  <course>287.55</course>
  <speed>0.12</speed>
  <fix>3d</fix>
</trkpt>
<trkpt lat="-27.2744307" lon="151.2900496">
  <ele>358.12</ele>
  <time>2026-09-01T19:50:50Z</time>
  <course>35.16</course>
  <speed>0.3</speed>
  <fix>3d</fix>
</trkpt>
<trkpt lat="-27.2744303" lon="151.2900502">
  <ele>357.96</ele>
  <time>2026-09-01T19:50:50Z</time>
  <course>287.51</course>
  <speed>0.12083045973594572</speed>
  <fix>3d</fix>
</trkpt>
<trkpt lat="-27.2744304" lon="151.2900499">
  <ele>358.12</ele>
  <time>2026-09-01T19:50:50Z</time>
  <course>58.87</course>
  <speed>0.14</speed>
  <fix>3d</fix>
</trkpt>
<trkpt lat="-27.2744304" lon="151.2900503">
  <ele>357.96</ele>
  <time>2026-09-01T19:50:50Z</time>
  <course>287.44</course>
  <speed>0.13601470508735444</speed>
  <fix>3d</fix>
</trkpt>
<trkpt lat="-27.2744304" lon="151.2900499">
  <ele>358.12</ele>
  <time>2026-09-01T19:50:50Z</time>
  <course>58.87</course>
  <speed>0.14</speed>
  <fix>3d</fix>
</trkpt>
<trkpt lat="-27.2744305" lon="151.2900504">
  <ele>357.96</ele>
  <time>2026-09-01T19:50:50Z</time>
  <course>287.37</course>
  <speed>0.14866068747318506</speed>
  <fix>3d</fix>
</trkpt>
<trkpt lat="-27.2744304" lon="151.2900502">
  <ele>358.12</ele>
  <time>2026-09-01T19:50:50Z</time>
  <course>120.29</course>
  <speed>0.11</speed>
  <fix>3d</fix>
</trkpt>
<trkpt lat="-27.2744306" lon="151.2900505">
  <ele>357.96</ele>
  <time>2026-09-01T19:50:50Z</time>
  <course>287.29</course>
  <speed>0.16278820596099705</speed>
  <fix>3d</fix>
</trkpt>
<trkpt lat="-27.2744304" lon="151.2900502">
  <ele>358.12</ele>
  <time>2026-09-01T19:50:50Z</time>
  <course>120.29</course>
  <speed>0.11</speed>
  <fix>3d</fix>
</trkpt>
<trkpt lat="-27.2744307" lon="151.2900506">
  <ele>357.96</ele>
  <time>2026-09-01T19:50:50Z</time>
  <course>287.22</course>
  <speed>0.17804493814764857</speed>
  <fix>3d</fix>
</trkpt>
<trkpt lat="-27.2744306" lon="151.2900503">
  <ele>358.11</ele>
  <time>2026-09-01T19:50:50Z</time>
  <course>143.35</course>
  <speed>0.15</speed>
  <fix>3d</fix>
</trkpt>
<trkpt lat="-27.2744308" lon="151.2900507">
  <ele>357.96</ele>
  <time>2026-09-01T19:50:50Z</time>
  <course>287.17</course>
  <speed>0.18601075237738274</speed>
  <fix>3d</fix>
</trkpt>
<trkpt lat="-27.2744306" lon="151.2900503">
  <ele>358.11</ele>
  <time>2026-09-01T19:50:50Z</time>
  <course>143.35</course>
  <speed>0.15</speed>
  <fix>3d</fix>
</trkpt>
<trkpt lat="-27.2744309" lon="151.2900508">
  <ele>357.96</ele>
  <time>2026-09-01T19:50:50Z</time>
  <course>287.15</course>
  <speed>0.16401219466856726</speed>
  <fix>3d</fix>
</trkpt>
<trkpt lat="-27.2744308" lon="151.2900505">
  <ele>358.11</ele>
  <time>2026-09-01T19:50:50Z</time>
  <course>149.92</course>
  <speed>0.18</speed>
  <fix>3d</fix>
</trkpt>
<trkpt lat="-27.274431" lon="151.2900509">
  <ele>357.95</ele>
  <time>2026-09-01T19:50:50Z</time>
  <course>287.12</course>
  <speed>0.16</speed>
  <fix>3d</fix>
</trkpt>
<trkpt lat="-27.2744308" lon="151.2900505">
  <ele>358.11</ele>
  <time>2026-09-01T19:50:50Z</time>
  <course>149.92</course>
  <speed>0.18</speed>
  <fix>3d</fix>
</trkpt>
<trkpt lat="-27.2744309" lon="151.2900511">
  <ele>357.95</ele>
  <time>2026-09-01T19:50:50Z</time>
  <course>287.12</course>
  <speed>0.21540659228538014</speed>
  <fix>3d</fix>
</trkpt>
<trkpt lat="-27.274431" lon="151.2900507">
  <ele>358.11</ele>
  <time>2026-09-01T19:50:50Z</time>
  <course>129.98</course>
  <speed>0.15</speed>
  <fix>3d</fix>
</trkpt>
<trkpt lat="-27.2744308" lon="151.2900513">
  <ele>357.95</ele>
  <time>2026-09-01T19:50:50Z</time>
  <course>287.14</course>
  <speed>0.266270539113887</speed>
  <fix>3d</fix>
</trkpt>
<trkpt lat="-27.274431" lon="151.2900507">
  <ele>358.11</ele>
  <time>2026-09-01T19:50:50Z</time>
  <course>129.98</course>
  <speed>0.15</speed>
  <fix>3d</fix>
</trkpt>
<trkpt lat="-27.2744307" lon="151.2900515">
  <ele>357.95</ele>
  <time>2026-09-01T19:50:50Z</time>
  <course>287.19</course>
  <speed>0.2920616373302047</speed>
  <fix>3d</fix>
</trkpt>
<trkpt lat="-27.274431" lon="151.290051">
  <ele>358.11</ele>
  <time>2026-09-01T19:50:50Z</time>
  <course>74.09</course>
  <speed>0.17</speed>
  <fix>3d</fix>
</trkpt>
<trkpt lat="-27.2744306" lon="151.2900517">
  <ele>357.95</ele>
  <time>2026-09-01T19:50:50Z</time>
  <course>287.25</course>
  <speed>0.31240998703626616</speed>
  <fix>3d</fix>
</trkpt>
<trkpt lat="-27.274431" lon="151.290051">
  <ele>358.11</ele>
  <time>2026-09-01T19:50:50Z</time>
  <course>74.09</course>
  <speed>0.17</speed>
  <fix>3d</fix>
</trkpt>
<trkpt lat="-27.2744305" lon="151.290052">
  <ele>357.95</ele>
  <time>2026-09-01T19:50:50Z</time>
  <course>287.33</course>
  <speed>0.3189043743820395</speed>
  <fix>3d</fix>
</trkpt>
<trkpt lat="-27.2744308" lon="151.2900513">
  <ele>358.11</ele>
  <time>2026-09-01T19:50:50Z</time>
  <course>53.41</course>
  <speed>0.25</speed>
  <fix>3d</fix>
</trkpt>
<trkpt lat="-27.2744303" lon="151.2900522">
  <ele>357.95</ele>
  <time>2026-09-01T19:50:50Z</time>
  <course>287.4</course>
  <speed>0.31144823004794875</speed>
  <fix>3d</fix>
</trkpt>
<trkpt lat="-27.2744308" lon="151.2900513">
  <ele>358.11</ele>
  <time>2026-09-01T19:50:50Z</time>
  <course>53.41</course>
  <speed>0.25</speed>
  <fix>3d</fix>
</trkpt>
<trkpt lat="-27.2744301" lon="151.2900524">
  <ele>357.95</ele>
  <time>2026-09-01T19:50:50Z</time>
  <course>287.45</course>
  <speed>0.29832867780352595</speed>
  <fix>3d</fix>
</trkpt>
<trkpt lat="-27.2744306" lon="151.2900518">
  <ele>358.11</ele>
  <time>2026-09-01T19:50:50Z</time>
  <course>49.07</course>
  <speed>0.28</speed>
  <fix>3d</fix>
</trkpt>
<trkpt lat="-27.27443" lon="151.2900526">
  <ele>357.95</ele>
  <time>2026-09-01T19:50:50Z</time>
  <course>287.49</course>
  <speed>0.223606797749979</speed>
  <fix>3d</fix>
</trkpt>
<trkpt lat="-27.2744306" lon="151.2900518">
  <ele>358.11</ele>
  <time>2026-09-01T19:50:50Z</time>
  <course>49.07</course>
  <speed>0.28</speed>
  <fix>3d</fix>
</trkpt>
<trkpt lat="-27.27443" lon="151.2900527">
  <ele>357.95</ele>
  <time>2026-09-01T19:50:50Z</time>
  <course>287.51</course>
  <speed>0.17029386365926402</speed>
  <fix>3d</fix>
</trkpt>
<trkpt lat="-27.2744303" lon="151.2900523">
  <ele>358.11</ele>
  <time>2026-09-01T19:50:50Z</time>
  <course>54.22</course>
  <speed>0.24</speed>
  <fix>3d</fix>
</trkpt>
<trkpt lat="-27.2744301" lon="151.2900529">
  <ele>357.95</ele>
  <time>2026-09-01T19:50:50Z</time>
  <course>287.5</course>
  <speed>0.17204650534085253</speed>
  <fix>3d</fix>
</trkpt>
<trkpt lat="-27.2744303" lon="151.2900523">
  <ele>358.11</ele>
  <time>2026-09-01T19:50:50Z</time>
  <course>54.22</course>
  <speed>0.24</speed>
  <fix>3d</fix>
</trkpt>
<trkpt lat="-27.2744302" lon="151.290053">
  <ele>357.95</ele>
  <time>2026-09-01T19:50:50Z</time>
  <course>287.46</course>
  <speed>0.2</speed>
  <fix>3d</fix>
</trkpt>
<trkpt lat="-27.2744302" lon="151.2900526">
  <ele>358.11</ele>
  <time>2026-09-01T19:50:50Z</time>
  <course>93.45</course>
  <speed>0.15</speed>
  <fix>3d</fix>
</trkpt>
<trkpt lat="-27.2744303" lon="151.2900531">
  <ele>357.95</ele>
  <time>2026-09-01T19:50:50Z</time>
  <course>287.39</course>
  <speed>0.22825424421026652</speed>
  <fix>3d</fix>
</trkpt>
<trkpt lat="-27.2744302" lon="151.2900526">
  <ele>358.11</ele>
  <time>2026-09-01T19:50:50Z</time>
  <course>93.45</course>
  <speed>0.15</speed>
  <fix>3d</fix>
</trkpt>
<trkpt lat="-27.2744305" lon="151.2900532">
  <ele>357.95</ele>
  <time>2026-09-01T19:50:50Z</time>
  <course>287.32</course>
  <speed>0.25079872407968906</speed>
  <fix>3d</fix>
</trkpt>
<trkpt lat="-27.2744303" lon="151.2900528">
  <ele>358.11</ele>
  <time>2026-09-01T19:50:50Z</time>
  <course>146.21</course>
  <speed>0.2</speed>
  <fix>3d</fix>
</trkpt>
<trkpt lat="-27.2744308" lon="151.2900533">
  <ele>357.94</ele>
  <time>2026-09-01T19:50:50Z</time>
  <course>287.23</course>
  <speed>0.26570660511172844</speed>
  <fix>3d</fix>
</trkpt>
<trkpt lat="-27.2744303" lon="151.2900528">
  <ele>358.11</ele>
  <time>2026-09-01T19:50:50Z</time>
  <course>146.21</course>
  <speed>0.2</speed>
  <fix>3d</fix>
</trkpt>
<trkpt lat="-27.274431" lon="151.2900533">
  <ele>357.94</ele>
  <time>2026-09-01T19:50:50Z</time>
  <course>287.16</course>
  <speed>0.2751363298439521</speed>
  <fix>3d</fix>
</trkpt>
<trkpt lat="-27.2744306" lon="151.2900531">
  <ele>358.11</ele>
  <time>2026-09-01T19:50:50Z</time>
  <course>160.16</course>
  <speed>0.26</speed>
  <fix>3d</fix>
</trkpt>
<trkpt lat="-27.2744313" lon="151.2900534">
  <ele>357.94</ele>
  <time>2026-09-01T19:50:50Z</time>
  <course>287.11</course>
  <speed>0.2816025568065745</speed>
  <fix>3d</fix>
</trkpt>
<trkpt lat="-27.2744306" lon="151.2900531">
  <ele>358.11</ele>
  <time>2026-09-01T19:50:50Z</time>
  <course>160.16</course>
  <speed>0.26</speed>
  <fix>3d</fix>
</trkpt>
<trkpt lat="-27.2744315" lon="151.2900535">
  <ele>357.95</ele>
  <time>2026-09-01T19:50:50Z</time>
  <course>287.08</course>
  <speed>0.28861739379323625</speed>
  <fix>3d</fix>
</trkpt>
<trkpt lat="-27.2744311" lon="151.2900533">
  <ele>358.11</ele>
  <time>2026-09-01T19:50:50Z</time>
  <course>165.58</course>
  <speed>0.29</speed>
  <fix>3d</fix>
</trkpt>
<trkpt lat="-27.2744317" lon="151.2900536">
  <ele>357.95</ele>
  <time>2026-09-01T19:50:50Z</time>
  <course>287.06</course>
  <speed>0.21470910553583888</speed>
  <fix>3d</fix>
</trkpt>
<trkpt lat="-27.2744311" lon="151.2900533">
  <ele>358.11</ele>
  <time>2026-09-01T19:50:50Z</time>
  <course>165.58</course>
  <speed>0.29</speed>
  <fix>3d</fix>
</trkpt>
<trkpt lat="-27.2744319" lon="151.2900536">
  <ele>357.95</ele>
  <time>2026-09-01T19:50:50Z</time>
  <course>287.05</course>
  <speed>0.15811388300841897</speed>
  <fix>3d</fix>
</trkpt>
<trkpt lat="-27.2744316" lon="151.2900534">
  <ele>358.11</ele>
  <time>2026-09-01T19:50:50Z</time>
  <course>164.7</course>
  <speed>0.27</speed>
  <fix>3d</fix>
</trkpt>
<trkpt lat="-27.2744319" lon="151.2900538">
  <ele>357.95</ele>
  <time>2026-09-01T19:50:50Z</time>
  <course>287.04</course>
  <speed>0.16031219541881397</speed>
  <fix>3d</fix>
</trkpt>
<trkpt lat="-27.2744316" lon="151.2900534">
  <ele>358.11</ele>
  <time>2026-09-01T19:50:50Z</time>
  <course>164.7</course>
  <speed>0.27</speed>
  <fix>3d</fix>
</trkpt>
<trkpt lat="-27.2744319" lon="151.2900539">
  <ele>357.95</ele>
  <time>2026-09-01T19:50:50Z</time>
  <course>287.07</course>
  <speed>0.1824828759089466</speed>
  <fix>3d</fix>
</trkpt>
<trkpt lat="-27.274432" lon="151.2900536">
  <ele>358.11</ele>
  <time>2026-09-01T19:50:50Z</time>
  <course>141.39</course>
  <speed>0.17</speed>
  <fix>3d</fix>
</trkpt>
<trkpt lat="-27.2744319" lon="151.2900541">
  <ele>357.95</ele>
  <time>2026-09-01T19:50:50Z</time>
  <course>287.12</course>
  <speed>0.19924858845171275</speed>
  <fix>3d</fix>
</trkpt>
<trkpt lat="-27.274432" lon="151.2900536">
  <ele>358.11</ele>
  <time>2026-09-01T19:50:50Z</time>
  <course>141.39</course>
  <speed>0.17</speed>
  <fix>3d</fix>
</trkpt>
<trkpt lat="-27.2744318" lon="151.2900543">
  <ele>357.95</ele>
  <time>2026-09-01T19:50:50Z</time>
  <course>287.2</course>
  <speed>0.21189620100417092</speed>
  <fix>3d</fix>
</trkpt>
<trkpt lat="-27.2744321" lon="151.2900538">
  <ele>358.12</ele>
  <time>2026-09-01T19:50:50Z</time>
  <course>89.93</course>
  <speed>0.15</speed>
  <fix>3d</fix>
</trkpt>
<trkpt lat="-27.2744318" lon="151.2900545">
  <ele>357.95</ele>
  <time>2026-09-01T19:50:50Z</time>
  <course>287.28</course>
  <speed>0.21540659228538014</speed>
  <fix>3d</fix>
</trkpt>
<trkpt lat="-27.2744321" lon="151.2900538">
  <ele>358.12</ele>
  <time>2026-09-01T19:50:50Z</time>
  <course>89.93</course>
  <speed>0.15</speed>
  <fix>3d</fix>
</trkpt>
<trkpt lat="-27.2744317" lon="151.2900547">
  <ele>357.95</ele>
  <time>2026-09-01T19:50:50Z</time>
  <course>287.36</course>
  <speed>0.21540659228538014</speed>
  <fix>3d</fix>
</trkpt>
<trkpt lat="-27.274432" lon="151.2900541">
  <ele>358.12</ele>
  <time>2026-09-01T19:50:50Z</time>
  <course>73.39</course>
  <speed>0.17</speed>
  <fix>3d</fix>
</trkpt>
<trkpt lat="-27.2744317" lon="151.2900548">
  <ele>357.95</ele>
  <time>2026-09-01T19:50:50Z</time>
  <course>287.42</course>
  <speed>0.194164878389476</speed>
  <fix>3d</fix>
</trkpt>
<trkpt lat="-27.274432" lon="151.2900541">
  <ele>358.12</ele>
  <time>2026-09-01T19:50:50Z</time>
  <course>73.39</course>
  <speed>0.17</speed>
  <fix>3d</fix>
</trkpt>
<trkpt lat="-27.2744317" lon="151.290055">
  <ele>357.95</ele>
  <time>2026-09-01T19:50:50Z</time>
  <course>287.46</course>
  <speed>0.1649242250247064</speed>
  <fix>3d</fix>
</trkpt>
<trkpt lat="-27.2744319" lon="151.2900545">
  <ele>358.12</ele>
  <time>2026-09-01T19:50:50Z</time>
  <course>74.7</course>
  <speed>0.18</speed>
  <fix>3d</fix>
</trkpt>
<trkpt lat="-27.2744318" lon="151.2900551">
  <ele>357.95</ele>
  <time>2026-09-01T19:50:50Z</time>
  <course>287.48</course>
  <speed>0.18439088914585774</speed>
  <fix>3d</fix>
</trkpt>
<trkpt lat="-27.2744319" lon="151.2900545">
  <ele>358.12</ele>
  <time>2026-09-01T19:50:50Z</time>
  <course>74.7</course>
  <speed>0.18</speed>
  <fix>3d</fix>
</trkpt>
<trkpt lat="-27.274432" lon="151.2900552">
  <ele>357.95</ele>
  <time>2026-09-01T19:50:50Z</time>
  <course>287.46</course>
  <speed>0.20808652046684814</speed>
  <fix>3d</fix>
</trkpt>
<trkpt lat="-27.2744319" lon="151.2900548">
  <ele>358.12</ele>
  <time>2026-09-01T19:50:50Z</time>
  <course>109.29</course>
  <speed>0.15</speed>
  <fix>3d</fix>
</trkpt>
<trkpt lat="-27.2744321" lon="151.2900553">
  <ele>357.95</ele>
  <time>2026-09-01T19:50:50Z</time>
  <course>287.41</course>
  <speed>0.23706539182259395</speed>
  <fix>3d</fix>
</trkpt>
<trkpt lat="-27.2744319" lon="151.2900548">
  <ele>358.12</ele>
  <time>2026-09-01T19:50:50Z</time>
  <course>109.29</course>
  <speed>0.15</speed>
  <fix>3d</fix>
</trkpt>
<trkpt lat="-27.2744324" lon="151.2900554">
  <ele>357.95</ele>
  <time>2026-09-01T19:50:50Z</time>
  <course>287.34</course>
  <speed>0.25079872407968906</speed>
  <fix>3d</fix>
</trkpt>
<trkpt lat="-27.2744322" lon="151.2900551">
  <ele>358.12</ele>
  <time>2026-09-01T19:50:50Z</time>
  <course>149.63</course>
  <speed>0.21</speed>
  <fix>3d</fix>
</trkpt>
<trkpt lat="-27.2744326" lon="151.2900555">
  <ele>357.95</ele>
  <time>2026-09-01T19:50:50Z</time>
  <course>287.26</course>
  <speed>0.26570660511172844</speed>
  <fix>3d</fix>
</trkpt>
<trkpt lat="-27.2744322" lon="151.2900551">
  <ele>358.12</ele>
  <time>2026-09-01T19:50:50Z</time>
  <course>149.63</course>
  <speed>0.21</speed>
  <fix>3d</fix>
</trkpt>
<trkpt lat="-27.2744328" lon="151.2900556">
  <ele>357.95</ele>
  <time>2026-09-01T19:50:50Z</time>
  <course>287.19</course>
  <speed>0.2720294101747089</speed>
  <fix>3d</fix>
</trkpt>
<trkpt lat="-27.2744326" lon="151.2900553">
  <ele>358.12</ele>
  <time>2026-09-01T19:50:50Z</time>
  <course>161.98</course>
  <speed>0.26</speed>
  <fix>3d</fix>
</trkpt>
<trkpt lat="-27.2744331" lon="151.2900556">
  <ele>357.95</ele>
  <time>2026-09-01T19:50:50Z</time>
  <course>287.14</course>
  <speed>0.27892651361962706</speed>
  <fix>3d</fix>
</trkpt>
<trkpt lat="-27.2744326" lon="151.2900553">
  <ele>358.12</ele>
  <time>2026-09-01T19:50:50Z</time>
  <course>161.98</course>
  <speed>0.26</speed>
  <fix>3d</fix>
</trkpt>
<trkpt lat="-27.2744334" lon="151.2900557">
  <ele>357.95</ele>
  <time>2026-09-01T19:50:50Z</time>
  <course>287.11</course>
  <speed>0.2765863337187866</speed>
  <fix>3d</fix>
</trkpt>
<trkpt lat="-27.274433" lon="151.2900554">
  <ele>358.12</ele>
  <time>2026-09-01T19:50:50Z</time>
  <course>167.55</course>
  <speed>0.29</speed>
  <fix>3d</fix>
</trkpt>
<trkpt lat="-27.2744336" lon="151.2900557">
  <ele>357.95</ele>
  <time>2026-09-01T19:50:50Z</time>
  <course>287.08</course>
  <speed>0.20615528128088303</speed>
  <fix>3d</fix>
</trkpt>
<trkpt lat="-27.274433" lon="151.2900554">
  <ele>358.12</ele>
  <time>2026-09-01T19:50:50Z</time>
  <course>167.55</course>
  <speed>0.29</speed>
  <fix>3d</fix>
</trkpt>
<trkpt lat="-27.2744337" lon="151.2900558">
  <ele>357.96</ele>
  <time>2026-09-01T19:50:50Z</time>
  <course>287.06</course>
  <speed>0.14422205101855956</speed>
  <fix>3d</fix>
</trkpt>
<trkpt lat="-27.2744335" lon="151.2900555">
  <ele>358.12</ele>
  <time>2026-09-01T19:50:50Z</time>
  <course>167.23</course>
  <speed>0.26</speed>
  <fix>3d</fix>
</trkpt>
<trkpt lat="-27.2744338" lon="151.2900559">
  <ele>357.96</ele>
  <time>2026-09-01T19:50:50Z</time>
  <course>287.06</course>
  <speed>0.14</speed>
  <fix>3d</fix>
</trkpt>
<trkpt lat="-27.2744335" lon="151.2900555">
  <ele>358.12</ele>
  <time>2026-09-01T19:50:50Z</time>
  <course>167.23</course>
  <speed>0.26</speed>
  <fix>3d</fix>
</trkpt>
<trkpt lat="-27.2744338" lon="151.290056">
  <ele>357.96</ele>
  <time>2026-09-01T19:50:50Z</time>
  <course>287.08</course>
  <speed>0.1649242250247064</speed>
  <fix>3d</fix>
</trkpt>
<trkpt lat="-27.2744339" lon="151.2900556">
  <ele>358.12</ele>
  <time>2026-09-01T19:50:50Z</time>
  <course>144.14</course>
  <speed>0.15</speed>
  <fix>3d</fix>
</trkpt>
<trkpt lat="-27.2744337" lon="151.2900562">
  <ele>357.95</ele>
  <time>2026-09-01T19:50:50Z</time>
  <course>287.13</course>
  <speed>0.18384776310850234</speed>
  <fix>3d</fix>
</trkpt>
<trkpt lat="-27.2744339" lon="151.2900556">
  <ele>358.12</ele>
  <time>2026-09-01T19:50:50Z</time>
  <course>144.14</course>
  <speed>0.15</speed>
  <fix>3d</fix>
</trkpt>
<trkpt lat="-27.2744337" lon="151.2900563">
  <ele>357.95</ele>
  <time>2026-09-01T19:50:50Z</time>
  <course>287.2</course>
  <speed>0.19235384061671343</speed>
  <fix>3d</fix>
</trkpt>
<trkpt lat="-27.274434" lon="151.2900559">
  <ele>358.12</ele>
  <time>2026-09-01T19:50:50Z</time>
  <course>85.53</course>
  <speed>0.13</speed>
  <fix>3d</fix>
</trkpt>
<trkpt lat="-27.2744337" lon="151.2900565">
  <ele>357.96</ele>
  <time>2026-09-01T19:50:50Z</time>
  <course>287.28</course>
  <speed>0.20124611797498107</speed>
  <fix>3d</fix>
</trkpt>
<trkpt lat="-27.274434" lon="151.2900559">
  <ele>358.12</ele>
  <time>2026-09-01T19:50:50Z</time>
  <course>85.53</course>
  <speed>0.13</speed>
  <fix>3d</fix>
</trkpt>
<trkpt lat="-27.2744336" lon="151.2900567">
  <ele>357.96</ele>
  <time>2026-09-01T19:50:50Z</time>
  <course>287.35</course>
  <speed>0.19235384061671343</speed>
  <fix>3d</fix>
</trkpt>
<trkpt lat="-27.2744339" lon="151.2900562">
  <ele>358.12</ele>
  <time>2026-09-01T19:50:50Z</time>
  <course>66.87</course>
  <speed>0.16</speed>
  <fix>3d</fix>
</trkpt>
<trkpt lat="-27.2744336" lon="151.2900568">
  <ele>357.96</ele>
  <time>2026-09-01T19:50:50Z</time>
  <course>287.41</course>
  <speed>0.1708800749063506</speed>
  <fix>3d</fix>
</trkpt>
<trkpt lat="-27.2744339" lon="151.2900562">
  <ele>358.12</ele>
  <time>2026-09-01T19:50:50Z</time>
  <course>66.87</course>
  <speed>0.16</speed>
  <fix>3d</fix>
</trkpt>
<trkpt lat="-27.2744336" lon="151.2900569">
  <ele>357.96</ele>
  <time>2026-09-01T19:50:50Z</time>
  <course>287.44</course>
  <speed>0.13341664064126335</speed>
  <fix>3d</fix>
</trkpt>
<trkpt lat="-27.2744338" lon="151.2900565">
  <ele>358.12</ele>
  <time>2026-09-01T19:50:50Z</time>
  <course>66.97</course>
  <speed>0.16</speed>
  <fix>3d</fix>
</trkpt>
<trkpt lat="-27.2744337" lon="151.290057">
  <ele>357.96</ele>
  <time>2026-09-01T19:50:50Z</time>
  <course>287.45</course>
  <speed>0.15556349186104046</speed>
  <fix>3d</fix>
</trkpt>
<trkpt lat="-27.2744338" lon="151.2900565">
  <ele>358.12</ele>
  <time>2026-09-01T19:50:50Z</time>
  <course>66.97</course>
  <speed>0.16</speed>
  <fix>3d</fix>
</trkpt>
<trkpt lat="-27.2744337" lon="151.2900571">
  <ele>357.96</ele>
  <time>2026-09-01T19:50:50Z</time>
  <course>287.44</course>
  <speed>0.1835755975068582</speed>
  <fix>3d</fix>
</trkpt>
<trkpt lat="-27.2744338" lon="151.2900568">
  <ele>358.12</ele>
  <time>2026-09-01T19:50:50Z</time>
  <course>106.91</course>
  <speed>0.12</speed>
  <fix>3d</fix>
</trkpt>
<trkpt lat="-27.2744339" lon="151.2900572">
  <ele>357.96</ele>
  <time>2026-09-01T19:50:50Z</time>
  <course>287.4</course>
  <speed>0.21540659228538014</speed>
  <fix>3d</fix>
</trkpt>
<trkpt lat="-27.2744338" lon="151.2900568">
  <ele>358.12</ele>
  <time>2026-09-01T19:50:50Z</time>
  <course>106.91</course>
  <speed>0.12</speed>
  <fix>3d</fix>
</trkpt>
<trkpt lat="-27.2744341" lon="151.2900572">
  <ele>357.95</ele>
  <time>2026-09-01T19:50:50Z</time>
  <course>287.35</course>
  <speed>0.23769728648009425</speed>
  <fix>3d</fix>
</trkpt>
<trkpt lat="-27.274434" lon="151.290057">
  <ele>358.12</ele>
  <time>2026-09-01T19:50:50Z</time>
  <course>155.93</course>
  <speed>0.18</speed>
  <fix>3d</fix>
</trkpt>
<trkpt lat="-27.2744344" lon="151.2900573">
  <ele>357.95</ele>
  <time>2026-09-01T19:50:50Z</time>
  <course>287.29</course>
  <speed>0.24515301344262524</speed>
  <fix>3d</fix>
</trkpt>
<trkpt lat="-27.274434" lon="151.290057">
  <ele>358.12</ele>
  <time>2026-09-01T19:50:50Z</time>
  <course>155.93</course>
  <speed>0.18</speed>
  <fix>3d</fix>
</trkpt>
<trkpt lat="-27.2744346" lon="151.2900573">
  <ele>357.95</ele>
  <time>2026-09-01T19:50:50Z</time>
  <course>287.23</course>
  <speed>0.25317977802344327</speed>
  <fix>3d</fix>
</trkpt>
<trkpt lat="-27.2744343" lon="151.2900571">
  <ele>358.12</ele>
  <time>2026-09-01T19:50:50Z</time>
  <course>168.59</course>
  <speed>0.24</speed>
  <fix>3d</fix>
</trkpt>
<trkpt lat="-27.2744348" lon="151.2900573">
  <ele>357.94</ele>
  <time>2026-09-01T19:50:50Z</time>
  <course>287.18</course>
  <speed>0.261725046566048</speed>
  <fix>3d</fix>
</trkpt>
<trkpt lat="-27.2744343" lon="151.2900571">
  <ele>358.12</ele>
  <time>2026-09-01T19:50:50Z</time>
  <course>168.59</course>
  <speed>0.24</speed>
  <fix>3d</fix>
</trkpt>
<trkpt lat="-27.2744351" lon="151.2900573">
  <ele>357.94</ele>
  <time>2026-09-01T19:50:50Z</time>
  <course>287.14</course>
  <speed>0.260768096208106</speed>
  <fix>3d</fix>
</trkpt>
<trkpt lat="-27.2744348" lon="151.2900572">
  <ele>358.12</ele>
  <time>2026-09-01T19:50:50Z</time>
  <course>174.22</course>
  <speed>0.27</speed>
  <fix>3d</fix>
</trkpt>
<trkpt lat="-27.2744353" lon="151.2900574">
  <ele>357.94</ele>
  <time>2026-09-01T19:50:50Z</time>
  <course>287.12</course>
  <speed>0.18439088914585774</speed>
  <fix>3d</fix>
</trkpt>
<trkpt lat="-27.2744348" lon="151.2900572">
  <ele>358.12</ele>
  <time>2026-09-01T19:50:50Z</time>
  <course>174.22</course>
  <speed>0.27</speed>
  <fix>3d</fix>
</trkpt>
<trkpt lat="-27.2744355" lon="151.2900574">
  <ele>357.94</ele>
  <time>2026-09-01T19:50:50Z</time>
  <course>287.1</course>
  <speed>0.1</speed>
  <fix>3d</fix>
</trkpt>
<trkpt lat="-27.2744353" lon="151.2900573">
  <ele>358.12</ele>
  <time>2026-09-01T19:50:50Z</time>
  <course>175.41</course>
  <speed>0.25</speed>
  <fix>3d</fix>
</trkpt>
<trkpt lat="-27.2744355" lon="151.2900575">
  <ele>357.95</ele>
  <time>2026-09-01T19:50:50Z</time>
  <course>287.09</course>
  <speed>0.11401754250991379</speed>
  <fix>3d</fix>
</trkpt>
<trkpt lat="-27.2744353" lon="151.2900573">
  <ele>358.12</ele>
  <time>2026-09-01T19:50:50Z</time>
  <course>175.41</course>
  <speed>0.25</speed>
  <fix>3d</fix>
</trkpt>
<trkpt lat="-27.2744354" lon="151.2900576">
  <ele>357.95</ele>
  <time>2026-09-01T19:50:50Z</time>
  <course>287.1</course>
  <speed>0.15811388300841897</speed>
  <fix>3d</fix>
</trkpt>
<trkpt lat="-27.2744357" lon="151.2900573">
  <ele>358.12</ele>
  <time>2026-09-01T19:50:50Z</time>
  <course>152.64</course>
  <speed>0.12</speed>
  <fix>3d</fix>
</trkpt>
<trkpt lat="-27.2744354" lon="151.2900577">
  <ele>357.95</ele>
  <time>2026-09-01T19:50:50Z</time>
  <course>287.14</course>
  <speed>0.191049731745428</speed>
  <fix>3d</fix>
</trkpt>
<trkpt lat="-27.2744357" lon="151.2900573">
  <ele>358.12</ele>
  <time>2026-09-01T19:50:50Z</time>
  <course>152.64</course>
  <speed>0.12</speed>
  <fix>3d</fix>
</trkpt>
<trkpt lat="-27.2744353" lon="151.2900579">
  <ele>357.95</ele>
  <time>2026-09-01T19:50:50Z</time>
  <course>287.2</course>
  <speed>0.21213203435596426</speed>
  <fix>3d</fix>
</trkpt>
<trkpt lat="-27.2744357" lon="151.2900575">
  <ele>358.12</ele>
  <time>2026-09-01T19:50:50Z</time>
  <course>59.86</course>
  <speed>0.12</speed>
  <fix>3d</fix>
</trkpt>
<trkpt lat="-27.2744352" lon="151.290058">
  <ele>357.95</ele>
  <time>2026-09-01T19:50:50Z</time>
  <course>287.27</course>
  <speed>0.2193171219946131</speed>
  <fix>3d</fix>
</trkpt>
<trkpt lat="-27.2744357" lon="151.2900575">
  <ele>358.12</ele>
  <time>2026-09-01T19:50:50Z</time>
  <course>59.86</course>
  <speed>0.12</speed>
  <fix>3d</fix>
</trkpt>
<trkpt lat="-27.2744351" lon="151.2900581">
  <ele>357.95</ele>
  <time>2026-09-01T19:50:50Z</time>
  <course>287.33</course>
  <speed>0.22671568097509268</speed>
  <fix>3d</fix>
</trkpt>
<trkpt lat="-27.2744355" lon="151.2900577">
  <ele>358.12</ele>
  <time>2026-09-01T19:50:50Z</time>
  <course>42.66</course>
  <speed>0.18</speed>
  <fix>3d</fix>
</trkpt>
<trkpt lat="-27.274435" lon="151.2900583">
  <ele>357.95</ele>
  <time>2026-09-01T19:50:50Z</time>
  <course>287.38</course>
  <speed>0.212602916254693</speed>
  <fix>3d</fix>
</trkpt>
<trkpt lat="-27.2744355" lon="151.2900577">
  <ele>358.12</ele>
  <time>2026-09-01T19:50:50Z</time>
  <course>42.66</course>
  <speed>0.18</speed>
  <fix>3d</fix>
</trkpt>
<trkpt lat="-27.2744349" lon="151.2900584">
  <ele>357.95</ele>
  <time>2026-09-01T19:50:50Z</time>
  <course>287.41</course>
  <speed>0.12529964086141668</speed>
  <fix>3d</fix>
</trkpt>
<trkpt lat="-27.2744353" lon="151.2900579">
  <ele>358.12</ele>
  <time>2026-09-01T19:50:50Z</time>
  <course>39.05</course>
  <speed>0.19</speed>
  <fix>3d</fix>
</trkpt>
<trkpt lat="-27.2744349" lon="151.2900584">
  <ele>357.94</ele>
  <time>2026-09-01T19:50:50Z</time>
  <course>287.42</course>
  <speed>0.08602325267042626</speed>
  <fix>3d</fix>
</trkpt>
<trkpt lat="-27.2744353" lon="151.2900579">
  <ele>358.12</ele>
  <time>2026-09-01T19:50:50Z</time>
  <course>39.05</course>
  <speed>0.19</speed>
  <fix>3d</fix>
</trkpt>
<trkpt lat="-27.274435" lon="151.2900585">
  <ele>357.94</ele>
  <time>2026-09-01T19:50:50Z</time>
  <course>287.42</course>
  <speed>0.15524174696260024</speed>
  <fix>3d</fix>
</trkpt>
<trkpt lat="-27.2744351" lon="151.2900581">
  <ele>358.12</ele>
  <time>2026-09-01T19:50:50Z</time>
  <course>63.29</course>
  <speed>0.09</speed>
  <fix>3d</fix>
</trkpt>
<trkpt lat="-27.2744352" lon="151.2900585">
  <ele>357.94</ele>
  <time>2026-09-01T19:50:50Z</time>
  <course>287.4</course>
  <speed>0.22022715545545238</speed>
  <fix>3d</fix>
</trkpt>
<trkpt lat="-27.2744351" lon="151.2900581">
  <ele>358.12</ele>
  <time>2026-09-01T19:50:50Z</time>
  <course>63.29</course>
  <speed>0.09</speed>
  <fix>3d</fix>
</trkpt>
<trkpt lat="-27.2744354" lon="151.2900584">
  <ele>357.94</ele>
  <time>2026-09-01T19:50:50Z</time>
  <course>287.36</course>
  <speed>0.26</speed>
  <fix>3d</fix>
</trkpt>
<trkpt lat="-27.2744352" lon="151.2900583">
  <ele>358.13</ele>
  <time>2026-09-01T19:50:50Z</time>
  <course>170.4</course>
  <speed>0.15</speed>
  <fix>3d</fix>
</trkpt>
<trkpt lat="-27.2744356" lon="151.2900584">
  <ele>357.94</ele>
  <time>2026-09-01T19:50:50Z</time>
  <course>287.31</course>
  <speed>0.29017236257093815</speed>
  <fix>3d</fix>
</trkpt>
<trkpt lat="-27.2744352" lon="151.2900583">
  <ele>358.13</ele>
  <time>2026-09-01T19:50:50Z</time>
  <course>170.4</course>
  <speed>0.15</speed>
  <fix>3d</fix>
</trkpt>
<trkpt lat="-27.2744359" lon="151.2900584">
  <ele>357.94</ele>
  <time>2026-09-01T19:50:50Z</time>
  <course>287.25</course>
  <speed>0.31144823004794875</speed>
  <fix>3d</fix>
</trkpt>
<trkpt lat="-27.2744355" lon="151.2900583">
  <ele>358.13</ele>
  <time>2026-09-01T19:50:50Z</time>
  <course>184.12</course>
  <speed>0.27</speed>
  <fix>3d</fix>
</trkpt>
<trkpt lat="-27.2744362" lon="151.2900584">
  <ele>357.94</ele>
  <time>2026-09-01T19:50:50Z</time>
  <course>287.19</course>
  <speed>0.32249030993194194</speed>
  <fix>3d</fix>
</trkpt>
<trkpt lat="-27.2744355" lon="151.2900583">
  <ele>358.13</ele>
  <time>2026-09-01T19:50:50Z</time>
  <course>184.12</course>
  <speed>0.27</speed>
  <fix>3d</fix>
</trkpt>
<trkpt lat="-27.2744365" lon="151.2900583">
  <ele>357.94</ele>
  <time>2026-09-01T19:50:50Z</time>
  <course>287.15</course>
  <speed>0.3238826948140329</speed>
  <fix>3d</fix>
</trkpt>
<trkpt lat="-27.2744361" lon="151.2900583">
  <ele>358.13</ele>
  <time>2026-09-01T19:50:50Z</time>
  <course>188.88</course>
  <speed>0.32</speed>
  <fix>3d</fix>
</trkpt>
<trkpt lat="-27.2744368" lon="151.2900583">
  <ele>357.94</ele>
  <time>2026-09-01T19:50:50Z</time>
  <course>287.12</course>
  <speed>0.33541019662496846</speed>
  <fix>3d</fix>
</trkpt>
<trkpt lat="-27.2744361" lon="151.2900583">
  <ele>358.13</ele>
  <time>2026-09-01T19:50:50Z</time>
  <course>188.88</course>
  <speed>0.32</speed>
  <fix>3d</fix>
</trkpt>
<trkpt lat="-27.2744371" lon="151.2900582">
  <ele>357.95</ele>
  <time>2026-09-01T19:50:50Z</time>
  <course>287.11</course>
  <speed>0.2745906043549196</speed>
  <fix>3d</fix>
</trkpt>
<trkpt lat="-27.2744367" lon="151.2900582">
  <ele>358.13</ele>
  <time>2026-09-01T19:50:50Z</time>
  <course>192.22</course>
  <speed>0.35</speed>
  <fix>3d</fix>
</trkpt>
<trkpt lat="-27.2744373" lon="151.2900581">
  <ele>357.95</ele>
  <time>2026-09-01T19:50:50Z</time>
  <course>287.09</course>
  <speed>0.19235384061671343</speed>
  <fix>3d</fix>
</trkpt>
<trkpt lat="-27.2744367" lon="151.2900582">
  <ele>358.13</ele>
  <time>2026-09-01T19:50:50Z</time>
  <course>192.22</course>
  <speed>0.35</speed>
  <fix>3d</fix>
</trkpt>
<trkpt lat="-27.2744375" lon="151.2900581">
  <ele>357.95</ele>
  <time>2026-09-01T19:50:50Z</time>
  <course>287.09</course>
  <speed>0.12041594578792296</speed>
  <fix>3d</fix>
</trkpt>
<trkpt lat="-27.2744372" lon="151.2900581">
  <ele>358.13</ele>
  <time>2026-09-01T19:50:50Z</time>
  <course>194.2</course>
  <speed>0.29</speed>
  <fix>3d</fix>
</trkpt>
<trkpt lat="-27.2744376" lon="151.2900581">
  <ele>357.96</ele>
  <time>2026-09-01T19:50:50Z</time>
  <course>287.11</course>
  <speed>0.08</speed>
  <fix>3d</fix>
</trkpt>
<trkpt lat="-27.2744372" lon="151.2900581">
  <ele>358.13</ele>
  <time>2026-09-01T19:50:50Z</time>
  <course>194.2</course>
  <speed>0.29</speed>
  <fix>3d</fix>
</trkpt>
<trkpt lat="-27.2744377" lon="151.290058">
  <ele>357.96</ele>
  <time>2026-09-01T19:50:50Z</time>
  <course>287.15</course>
  <speed>0.06</speed>
  <fix>3d</fix>
</trkpt>
<trkpt lat="-27.2744376" lon="151.2900579">
  <ele>358.14</ele>
  <time>2026-09-01T19:50:50Z</time>
  <course>194.92</course>
  <speed>0.16</speed>
  <fix>3d</fix>
</trkpt>
<trkpt lat="-27.2744377" lon="151.290058">
  <ele>357.96</ele>
  <time>2026-09-01T19:50:50Z</time>
  <course>287.21</course>
  <speed>0.0412310562561766</speed>
  <fix>3d</fix>
</trkpt>
<trkpt lat="-27.2744376" lon="151.2900579">
  <ele>358.14</ele>
  <time>2026-09-01T19:50:50Z</time>
  <course>194.92</course>
  <speed>0.16</speed>
  <fix>3d</fix>
</trkpt>
<trkpt lat="-27.2744378" lon="151.290058">
  <ele>357.96</ele>
  <time>2026-09-01T19:50:50Z</time>
  <course>287.26</course>
  <speed>0.0412310562561766</speed>
  <fix>3d</fix>
</trkpt>
<trkpt lat="-27.2744379" lon="151.2900579">
  <ele>358.14</ele>
  <time>2026-09-01T19:50:50Z</time>
  <course>193.99</course>
  <speed>0.08</speed>
  <fix>3d</fix>
</trkpt>
<trkpt lat="-27.2744378" lon="151.290058">
  <ele>357.96</ele>
  <time>2026-09-01T19:50:50Z</time>
  <course>287.31</course>
  <speed>0.0412310562561766</speed>
  <fix>3d</fix>
</trkpt>
<trkpt lat="-27.2744379" lon="151.2900579">
  <ele>358.14</ele>
  <time>2026-09-01T19:50:50Z</time>
  <course>193.99</course>
  <speed>0.08</speed>
  <fix>3d</fix>
</trkpt>
<trkpt lat="-27.2744379" lon="151.290058">
  <ele>357.97</ele>
  <time>2026-09-01T19:50:50Z</time>
  <course>287.35</course>
  <speed>0.1</speed>
  <fix>3d</fix>
</trkpt>
<trkpt lat="-27.274438" lon="151.2900578">
  <ele>358.14</ele>
  <time>2026-09-01T19:50:50Z</time>
  <course>192.47</course>
  <speed>0.06</speed>
  <fix>3d</fix>
</trkpt>
<trkpt lat="-27.2744381" lon="151.290058">
  <ele>357.96</ele>
  <time>2026-09-01T19:50:50Z</time>
  <course>287.37</course>
  <speed>0.1824828759089466</speed>
  <fix>3d</fix>
</trkpt>
<trkpt lat="-27.274438" lon="151.2900578">
  <ele>358.14</ele>
  <time>2026-09-01T19:50:50Z</time>
  <course>192.47</course>
  <speed>0.06</speed>
  <fix>3d</fix>
</trkpt>
<trkpt lat="-27.2744383" lon="151.2900579">
  <ele>357.96</ele>
  <time>2026-09-01T19:50:50Z</time>
  <course>287.37</course>
  <speed>0.24515301344262524</speed>
  <fix>3d</fix>
</trkpt>
<trkpt lat="-27.2744382" lon="151.2900578">
  <ele>358.14</ele>
  <time>2026-09-01T19:50:50Z</time>
  <course>194.66</course>
  <speed>0.13</speed>
  <fix>3d</fix>
</trkpt>
<trkpt lat="-27.2744385" lon="151.2900578">
  <ele>357.96</ele>
  <time>2026-09-01T19:50:50Z</time>
  <course>287.35</course>
  <speed>0.29614185789921693</speed>
  <fix>3d</fix>
</trkpt>
<trkpt lat="-27.2744382" lon="151.2900578">
  <ele>358.14</ele>
  <time>2026-09-01T19:50:50Z</time>
  <course>194.66</course>
  <speed>0.13</speed>
  <fix>3d</fix>
</trkpt>
<trkpt lat="-27.2744388" lon="151.2900577">
  <ele>357.96</ele>
  <time>2026-09-01T19:50:50Z</time>
  <course>287.32</course>
  <speed>0.3178049716414141</speed>
  <fix>3d</fix>
</trkpt>
<trkpt lat="-27.2744385" lon="151.2900576">
  <ele>358.14</ele>
  <time>2026-09-01T19:50:50Z</time>
  <course>196.27</course>
  <speed>0.26</speed>
  <fix>3d</fix>
</trkpt>
<trkpt lat="-27.2744391" lon="151.2900576">
  <ele>357.96</ele>
  <time>2026-09-01T19:50:50Z</time>
  <course>287.28</course>
  <speed>0.33955853692699295</speed>
  <fix>3d</fix>
</trkpt>
<trkpt lat="-27.2744385" lon="151.2900576">
  <ele>358.14</ele>
  <time>2026-09-01T19:50:50Z</time>
  <course>196.27</course>
  <speed>0.26</speed>
  <fix>3d</fix>
</trkpt>
<trkpt lat="-27.2744394" lon="151.2900575">
  <ele>357.96</ele>
  <time>2026-09-01T19:50:50Z</time>
  <course>287.24</course>
  <speed>0.34928498393145957</speed>
  <fix>3d</fix>
</trkpt>
<trkpt lat="-27.274439" lon="151.2900575">
  <ele>358.14</ele>
  <time>2026-09-01T19:50:50Z</time>
  <course>196.76</course>
  <speed>0.33</speed>
  <fix>3d</fix>
</trkpt>
<trkpt lat="-27.2744398" lon="151.2900574">
  <ele>357.96</ele>
  <time>2026-09-01T19:50:50Z</time>
  <course>287.2</course>
  <speed>0.34928498393145957</speed>
  <fix>3d</fix>
</trkpt>
<trkpt lat="-27.274439" lon="151.2900575">
  <ele>358.14</ele>
  <time>2026-09-01T19:50:50Z</time>
  <course>196.76</course>
  <speed>0.33</speed>
  <fix>3d</fix>
</trkpt>
<trkpt lat="-27.2744401" lon="151.2900573">
  <ele>357.96</ele>
  <time>2026-09-01T19:50:50Z</time>
  <course>287.17</course>
  <speed>0.3590264614203248</speed>
  <fix>3d</fix>
</trkpt>
<trkpt lat="-27.2744396" lon="151.2900573">
  <ele>358.14</ele>
  <time>2026-09-01T19:50:50Z</time>
  <course>196.7</course>
  <speed>0.37</speed>
  <fix>3d</fix>
</trkpt>
<trkpt lat="-27.2744404" lon="151.2900572">
  <ele>357.96</ele>
  <time>2026-09-01T19:50:50Z</time>
  <course>287.14</course>
  <speed>0.3178049716414141</speed>
  <fix>3d</fix>
</trkpt>
<trkpt lat="-27.2744396" lon="151.2900573">
  <ele>358.14</ele>
  <time>2026-09-01T19:50:50Z</time>
  <course>196.7</course>
  <speed>0.37</speed>
  <fix>3d</fix>
</trkpt>
<trkpt lat="-27.2744406" lon="151.2900571">
  <ele>357.96</ele>
  <time>2026-09-01T19:50:50Z</time>
  <course>287.13</course>
  <speed>0.19235384061671343</speed>
  <fix>3d</fix>
</trkpt>
<trkpt lat="-27.2744403" lon="151.2900571">
  <ele>358.14</ele>
  <time>2026-09-01T19:50:50Z</time>
  <course>196.65</course>
  <speed>0.36</speed>
  <fix>3d</fix>
</trkpt>
<trkpt lat="-27.2744408" lon="151.2900571">
  <ele>357.96</ele>
  <time>2026-09-01T19:50:50Z</time>
  <course>287.12</course>
  <speed>0.09</speed>
  <fix>3d</fix>
</trkpt>
<trkpt lat="-27.2744403" lon="151.2900571">
  <ele>358.14</ele>
  <time>2026-09-01T19:50:50Z</time>
  <course>196.65</course>
  <speed>0.36</speed>
  <fix>3d</fix>
</trkpt>
<trkpt lat="-27.2744408" lon="151.2900571">
  <ele>357.96</ele>
  <time>2026-09-01T19:50:50Z</time>
  <course>287.13</course>
  <speed>0.022360679774997897</speed>
  <fix>3d</fix>
</trkpt>
<trkpt lat="-27.2744408" lon="151.2900569">
  <ele>358.14</ele>
  <time>2026-09-01T19:50:50Z</time>
  <course>196.68</course>
  <speed>0.23</speed>
  <fix>3d</fix>
</trkpt>
<trkpt lat="-27.2744408" lon="151.2900571">
  <ele>357.96</ele>
  <time>2026-09-01T19:50:50Z</time>
  <course>287.16</course>
  <speed>0.03605551275463989</speed>
  <fix>3d</fix>
</trkpt>
<trkpt lat="-27.2744408" lon="151.2900569">
  <ele>358.14</ele>
  <time>2026-09-01T19:50:50Z</time>
  <course>196.68</course>
  <speed>0.23</speed>
  <fix>3d</fix>
</trkpt>
<trkpt lat="-27.2744408" lon="151.2900571">
  <ele>357.96</ele>
  <time>2026-09-01T19:50:50Z</time>
  <course>287.21</course>
  <speed>0.06403124237432849</speed>
  <fix>3d</fix>
</trkpt>
<trkpt lat="-27.274441" lon="151.2900568">
  <ele>358.13</ele>
  <time>2026-09-01T19:50:50Z</time>
  <course>196.77</course>
  <speed>0.05</speed>
  <fix>3d</fix>
</trkpt>
<trkpt lat="-27.2744408" lon="151.2900571">
  <ele>357.96</ele>
  <time>2026-09-01T19:50:50Z</time>
  <course>287.27</course>
  <speed>0.07211102550927978</speed>
  <fix>3d</fix>
</trkpt>
<trkpt lat="-27.274441" lon="151.2900568">
  <ele>358.13</ele>
  <time>2026-09-01T19:50:50Z</time>
  <course>196.77</course>
  <speed>0.05</speed>
  <fix>3d</fix>
</trkpt>
<trkpt lat="-27.2744407" lon="151.2900571">
  <ele>357.96</ele>
  <time>2026-09-01T19:50:50Z</time>
  <course>287.32</course>
  <speed>0.08062257748298549</speed>
  <fix>3d</fix>
</trkpt>
<trkpt lat="-27.2744411" lon="151.2900568">
  <ele>358.13</ele>
  <time>2026-09-01T19:50:50Z</time>
  <course>17.17</course>
  <speed>0.03</speed>
  <fix>3d</fix>
</trkpt>
<trkpt lat="-27.2744407" lon="151.2900572">
  <ele>357.96</ele>
  <time>2026-09-01T19:50:50Z</time>
  <course>287.37</course>
  <speed>0.08062257748298549</speed>
  <fix>3d</fix>
</trkpt>
<trkpt lat="-27.2744411" lon="151.2900568">
  <ele>358.13</ele>
  <time>2026-09-01T19:50:50Z</time>
  <course>17.17</course>
  <speed>0.03</speed>
  <fix>3d</fix>
</trkpt>
<trkpt lat="-27.2744408" lon="151.2900571">
  <ele>357.96</ele>
  <time>2026-09-01T19:50:50Z</time>
  <course>287.4</course>
  <speed>0.02</speed>
  <fix>3d</fix>
</trkpt>
<trkpt lat="-27.2744411" lon="151.2900568">
  <ele>358.13</ele>
  <time>2026-09-01T19:50:50Z</time>
  <course>17.32</course>
  <speed>0.06</speed>
  <fix>3d</fix>
</trkpt>
<trkpt lat="-27.2744408" lon="151.2900571">
  <ele>357.96</ele>
  <time>2026-09-01T19:50:50Z</time>
  <course>287.42</course>
  <speed>0.06</speed>
  <fix>3d</fix>
</trkpt>
<trkpt lat="-27.2744411" lon="151.2900568">
  <ele>358.13</ele>
  <time>2026-09-01T19:50:50Z</time>
  <course>17.32</course>
  <speed>0.06</speed>
  <fix>3d</fix>
</trkpt>
<trkpt lat="-27.2744408" lon="151.2900571">
  <ele>357.96</ele>
  <time>2026-09-01T19:50:50Z</time>
  <course>287.42</course>
  <speed>0.12041594578792296</speed>
  <fix>3d</fix>
</trkpt>
<trkpt lat="-27.2744411" lon="151.2900568">
  <ele>358.13</ele>
  <time>2026-09-01T19:50:50Z</time>
  <course>187.66</course>
  <speed>0.0</speed>
  <fix>3d</fix>
</trkpt>
<trkpt lat="-27.274441" lon="151.2900571">
  <ele>357.95</ele>
  <time>2026-09-01T19:50:50Z</time>
  <course>287.4</course>
  <speed>0.16124515496597097</speed>
  <fix>3d</fix>
</trkpt>
<trkpt lat="-27.2744411" lon="151.2900568">
  <ele>358.13</ele>
  <time>2026-09-01T19:50:50Z</time>
  <course>187.66</course>
  <speed>0.0</speed>
  <fix>3d</fix>
</trkpt>
<trkpt lat="-27.2744412" lon="151.290057">
  <ele>357.95</ele>
  <time>2026-09-01T19:50:50Z</time>
  <course>287.38</course>
  <speed>0.1824828759089466</speed>
  <fix>3d</fix>
</trkpt>
<trkpt lat="-27.2744411" lon="151.2900568">
  <ele>358.13</ele>
  <time>2026-09-01T19:50:50Z</time>
  <course>196.54</course>
  <speed>0.13</speed>
  <fix>3d</fix>
</trkpt>
<trkpt lat="-27.2744414" lon="151.2900569">
  <ele>357.95</ele>
  <time>2026-09-01T19:50:50Z</time>
  <course>287.35</course>
  <speed>0.194164878389476</speed>
  <fix>3d</fix>
</trkpt>
<trkpt lat="-27.2744411" lon="151.2900568">
  <ele>358.13</ele>
  <time>2026-09-01T19:50:50Z</time>
  <course>196.54</course>
  <speed>0.13</speed>
  <fix>3d</fix>
</trkpt>
<trkpt lat="-27.2744416" lon="151.2900569">
  <ele>357.95</ele>
  <time>2026-09-01T19:50:50Z</time>
  <course>287.31</course>
  <speed>0.2039607805437114</speed>
  <fix>3d</fix>
</trkpt>
<trkpt lat="-27.2744413" lon="151.2900567">
  <ele>358.13</ele>
  <time>2026-09-01T19:50:50Z</time>
  <course>196.81</course>
  <speed>0.19</speed>
  <fix>3d</fix>
</trkpt>
<trkpt lat="-27.2744417" lon="151.2900568">
  <ele>357.95</ele>
  <time>2026-09-01T19:50:50Z</time>
  <course>287.28</course>
  <speed>0.2039607805437114</speed>
  <fix>3d</fix>
</trkpt>
<trkpt lat="-27.2744413" lon="151.2900567">
  <ele>358.13</ele>
  <time>2026-09-01T19:50:50Z</time>
  <course>196.81</course>
  <speed>0.19</speed>
  <fix>3d</fix>
</trkpt>
<trkpt lat="-27.2744419" lon="151.2900567">
  <ele>357.94</ele>
  <time>2026-09-01T19:50:50Z</time>
  <course>287.25</course>
  <speed>0.21377558326431947</speed>
  <fix>3d</fix>
</trkpt>
<trkpt lat="-27.2744416" lon="151.2900566">
  <ele>358.13</ele>
  <time>2026-09-01T19:50:50Z</time>
  <course>196.82</course>
  <speed>0.22</speed>
  <fix>3d</fix>
</trkpt>
<trkpt lat="-27.2744421" lon="151.2900567">
  <ele>357.94</ele>
  <time>2026-09-01T19:50:50Z</time>
  <course>287.23</course>
  <speed>0.15132745950421556</speed>
  <fix>3d</fix>
</trkpt>
<trkpt lat="-27.2744416" lon="151.2900566">
  <ele>358.13</ele>
  <time>2026-09-01T19:50:50Z</time>
  <course>196.82</course>
  <speed>0.22</speed>
  <fix>3d</fix>
</trkpt>
<trkpt lat="-27.2744422" lon="151.2900566">
  <ele>357.94</ele>
  <time>2026-09-01T19:50:50Z</time>
  <course>287.22</course>
  <speed>0.03</speed>
  <fix>3d</fix>
</trkpt>
<trkpt lat="-27.2744421" lon="151.2900565">
  <ele>358.13</ele>
  <time>2026-09-01T19:50:50Z</time>
  <course>196.8</course>
  <speed>0.2</speed>
  <fix>3d</fix>
</trkpt>
<trkpt lat="-27.2744422" lon="151.2900566">
  <ele>357.94</ele>
  <time>2026-09-01T19:50:50Z</time>
  <course>287.21</course>
  <speed>0.07211102550927978</speed>
  <fix>3d</fix>
</trkpt>
<trkpt lat="-27.2744421" lon="151.2900565">
  <ele>358.13</ele>
  <time>2026-09-01T19:50:50Z</time>
  <course>196.8</course>
  <speed>0.2</speed>
  <fix>3d</fix>
</trkpt>
<trkpt lat="-27.2744421" lon="151.2900567">
  <ele>357.94</ele>
  <time>2026-09-01T19:50:50Z</time>
  <course>287.23</course>
  <speed>0.14317821063276354</speed>
  <fix>3d</fix>
</trkpt>
<trkpt lat="-27.2744423" lon="151.2900564">
  <ele>358.13</ele>
  <time>2026-09-01T19:50:50Z</time>
  <course>196.66</course>
  <speed>0.06</speed>
  <fix>3d</fix>
</trkpt>
<trkpt lat="-27.274442" lon="151.2900567">
  <ele>357.93</ele>
  <time>2026-09-01T19:50:50Z</time>
  <course>287.25</course>
  <speed>0.18384776310850234</speed>
  <fix>3d</fix>
</trkpt>
<trkpt lat="-27.2744423" lon="151.2900564">
  <ele>358.13</ele>
  <time>2026-09-01T19:50:50Z</time>
  <course>196.66</course>
  <speed>0.06</speed>
  <fix>3d</fix>
</trkpt>
<trkpt lat="-27.2744419" lon="151.2900567">
  <ele>357.94</ele>
  <time>2026-09-01T19:50:50Z</time>
  <course>287.28</course>
  <speed>0.21540659228538014</speed>
  <fix>3d</fix>
</trkpt>
<trkpt lat="-27.2744422" lon="151.2900564">
  <ele>358.13</ele>
  <time>2026-09-01T19:50:50Z</time>
  <course>17.03</course>
  <speed>0.1</speed>
  <fix>3d</fix>
</trkpt>
<trkpt lat="-27.2744417" lon="151.2900567">
  <ele>357.94</ele>
  <time>2026-09-01T19:50:50Z</time>
  <course>287.32</course>
  <speed>0.23769728648009425</speed>
  <fix>3d</fix>
</trkpt>
<trkpt lat="-27.2744422" lon="151.2900564">
  <ele>358.13</ele>
  <time>2026-09-01T19:50:50Z</time>
  <course>17.03</course>
  <speed>0.1</speed>
  <fix>3d</fix>
</trkpt>
<trkpt lat="-27.2744416" lon="151.2900568">
  <ele>357.94</ele>
  <time>2026-09-01T19:50:50Z</time>
  <course>287.35</course>
  <speed>0.24698178070456936</speed>
  <fix>3d</fix>
</trkpt>
<trkpt lat="-27.274442" lon="151.2900565">
  <ele>358.13</ele>
  <time>2026-09-01T19:50:50Z</time>
  <course>16.97</course>
  <speed>0.19</speed>
  <fix>3d</fix>
</trkpt>
<trkpt lat="-27.2744414" lon="151.2900569">
  <ele>357.94</ele>
  <time>2026-09-01T19:50:50Z</time>
  <course>287.38</course>
  <speed>0.24698178070456936</speed>
  <fix>3d</fix>
</trkpt>
<trkpt lat="-27.274442" lon="151.2900565">
  <ele>358.13</ele>
  <time>2026-09-01T19:50:50Z</time>
  <course>16.97</course>
  <speed>0.19</speed>
  <fix>3d</fix>
</trkpt>
<trkpt lat="-27.2744412" lon="151.2900569">
  <ele>357.94</ele>
  <time>2026-09-01T19:50:50Z</time>
  <course>287.41</course>
  <speed>0.1615549442140351</speed>
  <fix>3d</fix>
</trkpt>
<trkpt lat="-27.2744417" lon="151.2900565">
  <ele>358.13</ele>
  <time>2026-09-01T19:50:50Z</time>
  <course>16.94</course>
  <speed>0.22</speed>
  <fix>3d</fix>
</trkpt>
<trkpt lat="-27.2744411" lon="151.2900569">
  <ele>357.94</ele>
  <time>2026-09-01T19:50:50Z</time>
  <course>287.42</course>
  <speed>0.08062257748298549</speed>
  <fix>3d</fix>
</trkpt>
<trkpt lat="-27.2744417" lon="151.2900565">
  <ele>358.13</ele>
  <time>2026-09-01T19:50:50Z</time>
  <course>16.94</course>
  <speed>0.22</speed>
  <fix>3d</fix>
</trkpt>
<trkpt lat="-27.2744411" lon="151.2900569">
  <ele>357.94</ele>
  <time>2026-09-01T19:50:50Z</time>
  <course>287.42</course>
  <speed>0.022360679774997897</speed>
  <fix>3d</fix>
</trkpt>
<trkpt lat="-27.2744414" lon="151.2900566">
  <ele>358.14</ele>
  <time>2026-09-01T19:50:50Z</time>
  <course>17.02</course>
  <speed>0.15</speed>
  <fix>3d</fix>
</trkpt>
<trkpt lat="-27.2744411" lon="151.2900569">
  <ele>357.95</ele>
  <time>2026-09-01T19:50:50Z</time>
  <course>287.41</course>
  <speed>0.01414213562373095</speed>
  <fix>3d</fix>
</trkpt>
<trkpt lat="-27.2744414" lon="151.2900566">
  <ele>358.14</ele>
  <time>2026-09-01T19:50:50Z</time>
  <course>17.02</course>
  <speed>0.15</speed>
  <fix>3d</fix>
</trkpt>
<trkpt lat="-27.2744412" lon="151.2900569">
  <ele>357.95</ele>
  <time>2026-09-01T19:50:50Z</time>
  <course>287.39</course>
  <speed>0.04</speed>
  <fix>3d</fix>
</trkpt>
<trkpt lat="-27.2744413" lon="151.2900566">
  <ele>358.14</ele>
  <time>2026-09-01T19:50:50Z</time>
  <course>19.46</course>
  <speed>0.02</speed>
  <fix>3d</fix>
</trkpt>
<trkpt lat="-27.2744412" lon="151.2900569">
  <ele>357.95</ele>
  <time>2026-09-01T19:50:50Z</time>
  <course>287.36</course>
  <speed>0.05</speed>
  <fix>3d</fix>
</trkpt>
<trkpt lat="-27.2744413" lon="151.2900566">
  <ele>358.14</ele>
  <time>2026-09-01T19:50:50Z</time>
  <course>19.46</course>
  <speed>0.02</speed>
  <fix>3d</fix>
</trkpt>
<trkpt lat="-27.2744412" lon="151.2900568">
  <ele>357.95</ele>
  <time>2026-09-01T19:50:50Z</time>
  <course>287.34</course>
  <speed>0.06</speed>
  <fix>3d</fix>
</trkpt>
<trkpt lat="-27.2744413" lon="151.2900566">
  <ele>358.15</ele>
  <time>2026-09-01T19:50:50Z</time>
  <course>194.83</course>
  <speed>0.04</speed>
  <fix>3d</fix>
</trkpt>
<trkpt lat="-27.2744413" lon="151.2900568">
  <ele>357.95</ele>
  <time>2026-09-01T19:50:50Z</time>
  <course>287.32</course>
  <speed>0.06</speed>
  <fix>3d</fix>
</trkpt>
<trkpt lat="-27.2744413" lon="151.2900566">
  <ele>358.15</ele>
  <time>2026-09-01T19:50:50Z</time>
  <course>194.83</course>
  <speed>0.04</speed>
  <fix>3d</fix>
</trkpt>
<trkpt lat="-27.2744413" lon="151.2900568">
  <ele>357.95</ele>
  <time>2026-09-01T19:50:50Z</time>
  <course>287.3</course>
  <speed>0.07</speed>
  <fix>3d</fix>
</trkpt>
<trkpt lat="-27.2744414" lon="151.2900566">
  <ele>358.15</ele>
  <time>2026-09-01T19:50:50Z</time>
  <course>195.02</course>
  <speed>0.07</speed>
  <fix>3d</fix>
</trkpt>
<trkpt lat="-27.2744414" lon="151.2900568">
  <ele>357.96</ele>
  <time>2026-09-01T19:50:50Z</time>
  <course>287.29</course>
  <speed>0.022360679774997897</speed>
  <fix>3d</fix>
</trkpt>
<trkpt lat="-27.2744414" lon="151.2900566">
  <ele>358.15</ele>
  <time>2026-09-01T19:50:50Z</time>
  <course>195.02</course>
  <speed>0.07</speed>
  <fix>3d</fix>
</trkpt>
<trkpt lat="-27.2744414" lon="151.2900568">
  <ele>357.96</ele>
  <time>2026-09-01T19:50:50Z</time>
  <course>287.28</course>
  <speed>0.08944271909999159</speed>
  <fix>3d</fix>
</trkpt>
<trkpt lat="-27.2744415" lon="151.2900565">
  <ele>358.16</ele>
  <time>2026-09-01T19:50:50Z</time>
  <course>194.03</course>
  <speed>0.06</speed>
  <fix>3d</fix>
</trkpt>
<trkpt lat="-27.2744413" lon="151.2900568">
  <ele>357.96</ele>
  <time>2026-09-01T19:50:50Z</time>
  <course>287.28</course>
  <speed>0.19313207915827968</speed>
  <fix>3d</fix>
</trkpt>
<trkpt lat="-27.2744415" lon="151.2900565">
  <ele>358.16</ele>
  <time>2026-09-01T19:50:50Z</time>
  <course>194.03</course>
  <speed>0.06</speed>
  <fix>3d</fix>
</trkpt>
<trkpt lat="-27.2744412" lon="151.2900568">
  <ele>357.96</ele>
  <time>2026-09-01T19:50:50Z</time>
  <course>287.29</course>
  <speed>0.26570660511172844</speed>
  <fix>3d</fix>
</trkpt>
<trkpt lat="-27.2744416" lon="151.2900565">
  <ele>358.16</ele>
  <time>2026-09-01T19:50:50Z</time>
  <course>20.51</course>
  <speed>0.06</speed>
  <fix>3d</fix>
</trkpt>
<trkpt lat="-27.274441" lon="151.2900569">
  <ele>357.96</ele>
  <time>2026-09-01T19:50:50Z</time>
  <course>287.31</course>
  <speed>0.30675723300355934</speed>
  <fix>3d</fix>
</trkpt>
<trkpt lat="-27.2744416" lon="151.2900565">
  <ele>358.16</ele>
  <time>2026-09-01T19:50:50Z</time>
  <course>20.51</course>
  <speed>0.06</speed>
  <fix>3d</fix>
</trkpt>
<trkpt lat="-27.2744407" lon="151.290057">
  <ele>357.96</ele>
  <time>2026-09-01T19:50:50Z</time>
  <course>287.34</course>
  <speed>0.33837848631377265</speed>
  <fix>3d</fix>
</trkpt>
<trkpt lat="-27.2744413" lon="151.2900566">
  <ele>358.16</ele>
  <time>2026-09-01T19:50:50Z</time>
  <course>17.78</course>
  <speed>0.23</speed>
  <fix>3d</fix>
</trkpt>
<trkpt lat="-27.2744404" lon="151.2900571">
  <ele>357.96</ele>
  <time>2026-09-01T19:50:50Z</time>
  <course>287.38</course>
  <speed>0.3478505426185217</speed>
  <fix>3d</fix>
</trkpt>
<trkpt lat="-27.2744413" lon="151.2900566">
  <ele>358.16</ele>
  <time>2026-09-01T19:50:50Z</time>
  <course>17.78</course>
  <speed>0.23</speed>
  <fix>3d</fix>
</trkpt>
<trkpt lat="-27.2744401" lon="151.2900572">
  <ele>357.96</ele>
  <time>2026-09-01T19:50:51Z</time>
  <course>287.42</course>
  <speed>0.35735136770411274</speed>
  <fix>3d</fix>
</trkpt>
<trkpt lat="-27.2744408" lon="151.2900569">
  <ele>358.16</ele>
  <time>2026-09-01T19:50:51Z</time>
  <course>17.16</course>
  <speed>0.31</speed>
  <fix>3d</fix>
</trkpt>
<trkpt lat="-27.2744398" lon="151.2900573">
  <ele>357.96</ele>
  <time>2026-09-01T19:50:51Z</time>
  <course>287.45</course>
  <speed>0.35735136770411274</speed>
  <fix>3d</fix>
</trkpt>
<trkpt lat="-27.2744408" lon="151.2900569">
  <ele>358.16</ele>
  <time>2026-09-01T19:50:51Z</time>
  <course>17.16</course>
  <speed>0.31</speed>
  <fix>3d</fix>
</trkpt>
<trkpt lat="-27.2744396" lon="151.2900574">
  <ele>357.96</ele>
  <time>2026-09-01T19:50:51Z</time>
  <course>287.48</course>
  <speed>0.2751363298439521</speed>
  <fix>3d</fix>
</trkpt>
<trkpt lat="-27.2744403" lon="151.2900571">
  <ele>358.16</ele>
  <time>2026-09-01T19:50:51Z</time>
  <course>16.96</course>
  <speed>0.34</speed>
  <fix>3d</fix>
</trkpt>
<trkpt lat="-27.2744394" lon="151.2900574">
  <ele>357.96</ele>
  <time>2026-09-01T19:50:51Z</time>
  <course>287.5</course>
  <speed>0.19313207915827968</speed>
  <fix>3d</fix>
</trkpt>
<trkpt lat="-27.2744403" lon="151.2900571">
  <ele>358.16</ele>
  <time>2026-09-01T19:50:51Z</time>
  <course>16.96</course>
  <speed>0.34</speed>
  <fix>3d</fix>
</trkpt>
<trkpt lat="-27.2744393" lon="151.2900575">
  <ele>357.96</ele>
  <time>2026-09-01T19:50:51Z</time>
  <course>287.51</course>
  <speed>0.13</speed>
  <fix>3d</fix>
</trkpt>
<trkpt lat="-27.2744397" lon="151.2900573">
  <ele>358.16</ele>
  <time>2026-09-01T19:50:51Z</time>
  <course>17.04</course>
  <speed>0.27</speed>
  <fix>3d</fix>
</trkpt>
<trkpt lat="-27.2744392" lon="151.2900575">
  <ele>357.96</ele>
  <time>2026-09-01T19:50:51Z</time>
  <course>287.5</course>
  <speed>0.08944271909999159</speed>
  <fix>3d</fix>
</trkpt>
<trkpt lat="-27.2744397" lon="151.2900573">
  <ele>358.16</ele>
  <time>2026-09-01T19:50:51Z</time>
  <course>17.04</course>
  <speed>0.27</speed>
  <fix>3d</fix>
</trkpt>
<trkpt lat="-27.2744391" lon="151.2900575">
  <ele>357.96</ele>
  <time>2026-09-01T19:50:51Z</time>
  <course>287.46</course>
  <speed>0.0670820393249937</speed>
  <fix>3d</fix>
</trkpt>
<trkpt lat="-27.2744394" lon="151.2900574">
  <ele>358.16</ele>
  <time>2026-09-01T19:50:51Z</time>
  <course>17.32</course>
  <speed>0.13</speed>
  <fix>3d</fix>
</trkpt>
<trkpt lat="-27.2744391" lon="151.2900575">
  <ele>357.96</ele>
  <time>2026-09-01T19:50:51Z</time>
  <course>287.42</course>
  <speed>0.044721359549995794</speed>
  <fix>3d</fix>
</trkpt>
<trkpt lat="-27.2744394" lon="151.2900574">
  <ele>358.16</ele>
  <time>2026-09-01T19:50:51Z</time>
  <course>17.32</course>
  <speed>0.13</speed>
  <fix>3d</fix>
</trkpt>
<trkpt lat="-27.2744391" lon="151.2900576">
  <ele>357.96</ele>
  <time>2026-09-01T19:50:51Z</time>
  <course>287.37</course>
  <speed>0.03605551275463989</speed>
  <fix>3d</fix>
</trkpt>
<trkpt lat="-27.2744392" lon="151.2900574">
  <ele>358.16</ele>
  <time>2026-09-01T19:50:51Z</time>
  <course>18.33</course>
  <speed>0.06</speed>
  <fix>3d</fix>
</trkpt>
<trkpt lat="-27.2744391" lon="151.2900576">
  <ele>357.96</ele>
  <time>2026-09-01T19:50:51Z</time>
  <course>287.32</course>
  <speed>0.03605551275463989</speed>
  <fix>3d</fix>
</trkpt>
<trkpt lat="-27.2744392" lon="151.2900574">
  <ele>358.16</ele>
  <time>2026-09-01T19:50:51Z</time>
  <course>18.33</course>
  <speed>0.06</speed>
  <fix>3d</fix>
</trkpt>
<trkpt lat="-27.274439" lon="151.2900576">
  <ele>357.96</ele>
  <time>2026-09-01T19:50:51Z</time>
  <course>287.29</course>
  <speed>0.0282842712474619</speed>
  <fix>3d</fix>
</trkpt>
<trkpt lat="-27.2744391" lon="151.2900575">
  <ele>358.16</ele>
  <time>2026-09-01T19:50:51Z</time>
  <course>21.11</course>
  <speed>0.03</speed>
  <fix>3d</fix>
</trkpt>
<trkpt lat="-27.274439" lon="151.2900576">
  <ele>357.95</ele>
  <time>2026-09-01T19:50:51Z</time>
  <course>287.26</course>
  <speed>0.08944271909999159</speed>
  <fix>3d</fix>
</trkpt>
<trkpt lat="-27.2744391" lon="151.2900575">
  <ele>358.16</ele>
  <time>2026-09-01T19:50:51Z</time>
  <course>21.11</course>
  <speed>0.03</speed>
  <fix>3d</fix>
</trkpt>
<trkpt lat="-27.2744389" lon="151.2900576">
  <ele>357.95</ele>
  <time>2026-09-01T19:50:51Z</time>
  <course>287.25</course>
  <speed>0.21189620100417092</speed>
  <fix>3d</fix>
</trkpt>
<trkpt lat="-27.2744391" lon="151.2900575">
  <ele>358.16</ele>
  <time>2026-09-01T19:50:51Z</time>
  <course>21.25</course>
  <speed>0.04</speed>
  <fix>3d</fix>
</trkpt>
<trkpt lat="-27.2744387" lon="151.2900577">
  <ele>357.95</ele>
  <time>2026-09-01T19:50:51Z</time>
  <course>287.25</course>
  <speed>0.30675723300355934</speed>
  <fix>3d</fix>
</trkpt>
<trkpt lat="-27.2744391" lon="151.2900575">
  <ele>358.16</ele>
  <time>2026-09-01T19:50:51Z</time>
  <course>21.25</course>
  <speed>0.04</speed>
  <fix>3d</fix>
</trkpt>
<trkpt lat="-27.2744384" lon="151.2900578">
  <ele>357.95</ele>
  <time>2026-09-01T19:50:51Z</time>
  <course>287.27</course>
  <speed>0.37947331922020555</speed>
  <fix>3d</fix>
</trkpt>
<trkpt lat="-27.2744389" lon="151.2900575">
  <ele>358.16</ele>
  <time>2026-09-01T19:50:51Z</time>
  <course>18.13</course>
  <speed>0.18</speed>
  <fix>3d</fix>
</trkpt>
<trkpt lat="-27.2744381" lon="151.2900579">
  <ele>357.95</ele>
  <time>2026-09-01T19:50:51Z</time>
  <course>287.32</course>
  <speed>0.4205948168962618</speed>
  <fix>3d</fix>
</trkpt>
<trkpt lat="-27.2744389" lon="151.2900575">
  <ele>358.16</ele>
  <time>2026-09-01T19:50:51Z</time>
  <course>18.13</course>
  <speed>0.18</speed>
  <fix>3d</fix>
</trkpt>
<trkpt lat="-27.2744377" lon="151.2900581">
  <ele>357.95</ele>
  <time>2026-09-01T19:50:51Z</time>
  <course>287.38</course>
  <speed>0.4427188724235731</speed>
  <fix>3d</fix>
</trkpt>
<trkpt lat="-27.2744385" lon="151.2900577">
  <ele>358.16</ele>
  <time>2026-09-01T19:50:51Z</time>
  <course>17.26</course>
  <speed>0.34</speed>
  <fix>3d</fix>
</trkpt>
<trkpt lat="-27.2744373" lon="151.2900582">
  <ele>357.95</ele>
  <time>2026-09-01T19:50:51Z</time>
  <course>287.44</course>
  <speed>0.4522167621838005</speed>
  <fix>3d</fix>
</trkpt>
<trkpt lat="-27.2744385" lon="151.2900577">
  <ele>358.16</ele>
  <time>2026-09-01T19:50:51Z</time>
  <course>17.26</course>
  <speed>0.34</speed>
  <fix>3d</fix>
</trkpt>
<trkpt lat="-27.274437" lon="151.2900583">
  <ele>357.95</ele>
  <time>2026-09-01T19:50:51Z</time>
  <course>287.51</course>
  <speed>0.4522167621838005</speed>
  <fix>3d</fix>
</trkpt>
<trkpt lat="-27.2744378" lon="151.2900579">
  <ele>358.16</ele>
  <time>2026-09-01T19:50:51Z</time>
  <course>16.89</course>
  <speed>0.42</speed>
  <fix>3d</fix>
</trkpt>
<trkpt lat="-27.2744366" lon="151.2900584">
  <ele>357.95</ele>
  <time>2026-09-01T19:50:51Z</time>
  <course>287.56</course>
  <speed>0.4427188724235731</speed>
  <fix>3d</fix>
</trkpt>
<trkpt lat="-27.2744378" lon="151.2900579">
  <ele>358.16</ele>
  <time>2026-09-01T19:50:51Z</time>
  <course>16.89</course>
  <speed>0.42</speed>
  <fix>3d</fix>
</trkpt>
<trkpt lat="-27.2744363" lon="151.2900585">
  <ele>357.95</ele>
  <time>2026-09-01T19:50:51Z</time>
  <course>287.6</course>
  <speed>0.35735136770411274</speed>
  <fix>3d</fix>
</trkpt>
<trkpt lat="-27.274437" lon="151.2900582">
  <ele>358.16</ele>
  <time>2026-09-01T19:50:51Z</time>
  <course>16.78</course>
  <speed>0.44</speed>
  <fix>3d</fix>
</trkpt>
<trkpt lat="-27.274436" lon="151.2900586">
  <ele>357.95</ele>
  <time>2026-09-01T19:50:51Z</time>
  <course>287.63</course>
  <speed>0.26570660511172844</speed>
  <fix>3d</fix>
</trkpt>
<trkpt lat="-27.274437" lon="151.2900582">
  <ele>358.16</ele>
  <time>2026-09-01T19:50:51Z</time>
  <course>16.78</course>
  <speed>0.44</speed>
  <fix>3d</fix>
</trkpt>
<trkpt lat="-27.2744358" lon="151.2900587">
  <ele>357.95</ele>
  <time>2026-09-01T19:50:51Z</time>
  <course>287.64</course>
  <speed>0.20248456731316586</speed>
  <fix>3d</fix>
</trkpt>
<trkpt lat="-27.2744363" lon="151.2900584">
  <ele>358.16</ele>
  <time>2026-09-01T19:50:51Z</time>
  <course>16.76</course>
  <speed>0.35</speed>
  <fix>3d</fix>
</trkpt>
<trkpt lat="-27.2744357" lon="151.2900587">
  <ele>357.95</ele>
  <time>2026-09-01T19:50:51Z</time>
  <course>287.61</course>
  <speed>0.15811388300841897</speed>
  <fix>3d</fix>
</trkpt>
<trkpt lat="-27.2744363" lon="151.2900584">
  <ele>358.16</ele>
  <time>2026-09-01T19:50:51Z</time>
  <course>16.76</course>
  <speed>0.35</speed>
  <fix>3d</fix>
</trkpt>
<trkpt lat="-27.2744356" lon="151.2900588">
  <ele>357.95</ele>
  <time>2026-09-01T19:50:51Z</time>
  <course>287.55</course>
  <speed>0.13</speed>
  <fix>3d</fix>
</trkpt>
<trkpt lat="-27.2744358" lon="151.2900586">
  <ele>358.16</ele>
  <time>2026-09-01T19:50:51Z</time>
  <course>16.72</course>
  <speed>0.2</speed>
  <fix>3d</fix>
</trkpt>
<trkpt lat="-27.2744355" lon="151.2900588">
  <ele>357.95</ele>
  <time>2026-09-01T19:50:51Z</time>
  <course>287.47</course>
  <speed>0.10770329614269007</speed>
  <fix>3d</fix>
</trkpt>
<trkpt lat="-27.2744358" lon="151.2900586">
  <ele>358.16</ele>
  <time>2026-09-01T19:50:51Z</time>
  <course>16.72</course>
  <speed>0.2</speed>
  <fix>3d</fix>
</trkpt>
<trkpt lat="-27.2744354" lon="151.2900588">
  <ele>357.95</ele>
  <time>2026-09-01T19:50:51Z</time>
  <course>287.38</course>
  <speed>0.08944271909999159</speed>
  <fix>3d</fix>
</trkpt>
<trkpt lat="-27.2744355" lon="151.2900587">
  <ele>358.16</ele>
  <time>2026-09-01T19:50:51Z</time>
  <course>16.85</course>
  <speed>0.12</speed>
  <fix>3d</fix>
</trkpt>
<trkpt lat="-27.2744353" lon="151.2900589">
  <ele>357.95</ele>
  <time>2026-09-01T19:50:51Z</time>
  <course>287.31</course>
  <speed>0.07615773105863909</speed>
  <fix>3d</fix>
</trkpt>
<trkpt lat="-27.2744355" lon="151.2900587">
  <ele>358.16</ele>
  <time>2026-09-01T19:50:51Z</time>
  <course>16.85</course>
  <speed>0.12</speed>
  <fix>3d</fix>
</trkpt>
<trkpt lat="-27.2744352" lon="151.2900589">
  <ele>357.96</ele>
  <time>2026-09-01T19:50:51Z</time>
  <course>287.25</course>
  <speed>0.07615773105863909</speed>
  <fix>3d</fix>
</trkpt>
<trkpt lat="-27.2744354" lon="151.2900588">
  <ele>358.16</ele>
  <time>2026-09-01T19:50:51Z</time>
  <course>17.3</course>
  <speed>0.08</speed>
  <fix>3d</fix>
</trkpt>
<trkpt lat="-27.2744352" lon="151.2900589">
  <ele>357.96</ele>
  <time>2026-09-01T19:50:51Z</time>
  <course>287.21</course>
  <speed>0.10770329614269007</speed>
  <fix>3d</fix>
</trkpt>
<trkpt lat="-27.2744354" lon="151.2900588">
  <ele>358.16</ele>
  <time>2026-09-01T19:50:51Z</time>
  <course>17.3</course>
  <speed>0.08</speed>
  <fix>3d</fix>
</trkpt>
<trkpt lat="-27.274435" lon="151.290059">
  <ele>357.96</ele>
  <time>2026-09-01T19:50:51Z</time>
  <course>287.2</course>
  <speed>0.2340939982143925</speed>
  <fix>3d</fix>
</trkpt>
<trkpt lat="-27.2744352" lon="151.2900588">
  <ele>358.17</ele>
  <time>2026-09-01T19:50:51Z</time>
  <course>17.88</course>
  <speed>0.08</speed>
  <fix>3d</fix>
</trkpt>
<trkpt lat="-27.2744348" lon="151.2900591">
  <ele>357.96</ele>
  <time>2026-09-01T19:50:51Z</time>
  <course>287.2</course>
  <speed>0.3478505426185217</speed>
  <fix>3d</fix>
</trkpt>
<trkpt lat="-27.2744352" lon="151.2900588">
  <ele>358.17</ele>
  <time>2026-09-01T19:50:51Z</time>
  <course>17.88</course>
  <speed>0.08</speed>
  <fix>3d</fix>
</trkpt>
<trkpt lat="-27.2744344" lon="151.2900592">
  <ele>357.97</ele>
  <time>2026-09-01T19:50:51Z</time>
  <course>287.23</course>
  <speed>0.42379240200834184</speed>
  <fix>3d</fix>
</trkpt>
<trkpt lat="-27.274435" lon="151.2900589">
  <ele>358.17</ele>
  <time>2026-09-01T19:50:51Z</time>
  <course>17.3</course>
  <speed>0.21</speed>
  <fix>3d</fix>
</trkpt>
<trkpt lat="-27.2744341" lon="151.2900593">
  <ele>357.97</ele>
  <time>2026-09-01T19:50:51Z</time>
  <course>287.28</course>
  <speed>0.4743416490252569</speed>
  <fix>3d</fix>
</trkpt>
<trkpt lat="-27.274435" lon="151.2900589">
  <ele>358.17</ele>
  <time>2026-09-01T19:50:51Z</time>
  <course>17.3</course>
  <speed>0.21</speed>
  <fix>3d</fix>
</trkpt>
<trkpt lat="-27.2744337" lon="151.2900594">
  <ele>357.96</ele>
  <time>2026-09-01T19:50:51Z</time>
  <course>287.36</course>
  <speed>0.4933558553417604</speed>
  <fix>3d</fix>
</trkpt>
<trkpt lat="-27.2744345" lon="151.2900591">
  <ele>358.17</ele>
  <time>2026-09-01T19:50:51Z</time>
  <course>16.87</course>
  <speed>0.39</speed>
  <fix>3d</fix>
</trkpt>
<trkpt lat="-27.2744333" lon="151.2900596">
  <ele>357.96</ele>
  <time>2026-09-01T19:50:51Z</time>
  <course>287.44</course>
  <speed>0.5059644256269408</speed>
  <fix>3d</fix>
</trkpt>
<trkpt lat="-27.2744345" lon="151.2900591">
  <ele>358.17</ele>
  <time>2026-09-01T19:50:51Z</time>
  <course>16.87</course>
  <speed>0.39</speed>
  <fix>3d</fix>
</trkpt>
<trkpt lat="-27.2744328" lon="151.2900597">
  <ele>357.96</ele>
  <time>2026-09-01T19:50:51Z</time>
  <course>287.52</course>
  <speed>0.5059644256269408</speed>
  <fix>3d</fix>
</trkpt>
<trkpt lat="-27.2744337" lon="151.2900593">
  <ele>358.17</ele>
  <time>2026-09-01T19:50:51Z</time>
  <course>16.7</course>
  <speed>0.47</speed>
  <fix>3d</fix>
</trkpt>
<trkpt lat="-27.2744324" lon="151.2900599">
  <ele>357.97</ele>
  <time>2026-09-01T19:50:51Z</time>
  <course>287.59</course>
  <speed>0.5059644256269408</speed>
  <fix>3d</fix>
</trkpt>
<trkpt lat="-27.2744337" lon="151.2900593">
  <ele>358.17</ele>
  <time>2026-09-01T19:50:51Z</time>
  <course>16.7</course>
  <speed>0.47</speed>
  <fix>3d</fix>
</trkpt>
<trkpt lat="-27.274432" lon="151.29006">
  <ele>357.97</ele>
  <time>2026-09-01T19:50:51Z</time>
  <course>287.64</course>
  <speed>0.4332435804486894</speed>
  <fix>3d</fix>
</trkpt>
<trkpt lat="-27.2744329" lon="151.2900596">
  <ele>358.17</ele>
  <time>2026-09-01T19:50:51Z</time>
  <course>16.85</course>
  <speed>0.49</speed>
  <fix>3d</fix>
</trkpt>
<trkpt lat="-27.2744317" lon="151.2900601">
  <ele>357.97</ele>
  <time>2026-09-01T19:50:51Z</time>
  <course>287.68</course>
  <speed>0.3289376840679705</speed>
  <fix>3d</fix>
</trkpt>
<trkpt lat="-27.2744329" lon="151.2900596">
  <ele>358.17</ele>
  <time>2026-09-01T19:50:51Z</time>
  <course>16.85</course>
  <speed>0.49</speed>
  <fix>3d</fix>
</trkpt>
<trkpt lat="-27.2744315" lon="151.2900602">
  <ele>357.97</ele>
  <time>2026-09-01T19:50:51Z</time>
  <course>287.7</course>
  <speed>0.2529822128134704</speed>
  <fix>3d</fix>
</trkpt>
<trkpt lat="-27.2744321" lon="151.2900599">
  <ele>358.16</ele>
  <time>2026-09-01T19:50:51Z</time>
  <course>16.98</course>
  <speed>0.41</speed>
  <fix>3d</fix>
</trkpt>
<trkpt lat="-27.2744313" lon="151.2900603">
  <ele>357.96</ele>
  <time>2026-09-01T19:50:51Z</time>
  <course>287.68</course>
  <speed>0.19313207915827968</speed>
  <fix>3d</fix>
</trkpt>
<trkpt lat="-27.2744321" lon="151.2900599">
  <ele>358.16</ele>
  <time>2026-09-01T19:50:51Z</time>
  <course>16.98</course>
  <speed>0.41</speed>
  <fix>3d</fix>
</trkpt>
<trkpt lat="-27.2744312" lon="151.2900603">
  <ele>357.96</ele>
  <time>2026-09-01T19:50:51Z</time>
  <course>287.62</course>
  <speed>0.14866068747318506</speed>
  <fix>3d</fix>
</trkpt>
<trkpt lat="-27.2744315" lon="151.2900601">
  <ele>358.16</ele>
  <time>2026-09-01T19:50:51Z</time>
  <course>16.95</course>
  <speed>0.25</speed>
  <fix>3d</fix>
</trkpt>
<trkpt lat="-27.2744311" lon="151.2900603">
  <ele>357.96</ele>
  <time>2026-09-01T19:50:51Z</time>
  <course>287.53</course>
  <speed>0.12083045973594572</speed>
  <fix>3d</fix>
</trkpt>
<trkpt lat="-27.2744315" lon="151.2900601">
  <ele>358.16</ele>
  <time>2026-09-01T19:50:51Z</time>
  <course>16.95</course>
  <speed>0.25</speed>
  <fix>3d</fix>
</trkpt>
<trkpt lat="-27.274431" lon="151.2900604">
  <ele>357.96</ele>
  <time>2026-09-01T19:50:51Z</time>
  <course>287.43</course>
  <speed>0.09848857801796104</speed>
  <fix>3d</fix>
</trkpt>
<trkpt lat="-27.2744312" lon="151.2900602">
  <ele>358.16</ele>
  <time>2026-09-01T19:50:51Z</time>
  <course>17.11</course>
  <speed>0.14</speed>
  <fix>3d</fix>
</trkpt>
<trkpt lat="-27.2744309" lon="151.2900604">
  <ele>357.95</ele>
  <time>2026-09-01T19:50:51Z</time>
  <course>287.34</course>
  <speed>0.08944271909999159</speed>
  <fix>3d</fix>
</trkpt>
<trkpt lat="-27.2744312" lon="151.2900602">
  <ele>358.16</ele>
  <time>2026-09-01T19:50:51Z</time>
  <course>17.11</course>
  <speed>0.14</speed>
  <fix>3d</fix>
</trkpt>
<trkpt lat="-27.2744308" lon="151.2900604">
  <ele>357.95</ele>
  <time>2026-09-01T19:50:51Z</time>
  <course>287.26</course>
  <speed>0.0670820393249937</speed>
  <fix>3d</fix>
</trkpt>
<trkpt lat="-27.274431" lon="151.2900603">
  <ele>358.16</ele>
  <time>2026-09-01T19:50:51Z</time>
  <course>17.59</course>
  <speed>0.09</speed>
  <fix>3d</fix>
</trkpt>
<trkpt lat="-27.2744308" lon="151.2900604">
  <ele>357.96</ele>
  <time>2026-09-01T19:50:51Z</time>
  <course>287.21</course>
  <speed>0.0670820393249937</speed>
  <fix>3d</fix>
</trkpt>
<trkpt lat="-27.274431" lon="151.2900603">
  <ele>358.16</ele>
  <time>2026-09-01T19:50:51Z</time>
  <course>17.59</course>
  <speed>0.09</speed>
  <fix>3d</fix>
</trkpt>
<trkpt lat="-27.2744307" lon="151.2900605">
  <ele>357.96</ele>
  <time>2026-09-01T19:50:51Z</time>
  <course>287.18</course>
  <speed>0.1708800749063506</speed>
  <fix>3d</fix>
</trkpt>
<trkpt lat="-27.2744308" lon="151.2900603">
  <ele>358.16</ele>
  <time>2026-09-01T19:50:51Z</time>
  <course>18.55</course>
  <speed>0.06</speed>
  <fix>3d</fix>
</trkpt>
<trkpt lat="-27.2744305" lon="151.2900605">
  <ele>357.95</ele>
  <time>2026-09-01T19:50:51Z</time>
  <course>287.16</course>
  <speed>0.2879236009777594</speed>
  <fix>3d</fix>
</trkpt>
<trkpt lat="-27.2744308" lon="151.2900603">
  <ele>358.16</ele>
  <time>2026-09-01T19:50:51Z</time>
  <course>18.55</course>
  <speed>0.06</speed>
  <fix>3d</fix>
</trkpt>
<trkpt lat="-27.2744302" lon="151.2900606">
  <ele>357.95</ele>
  <time>2026-09-01T19:50:51Z</time>
  <course>287.17</course>
  <speed>0.37947331922020555</speed>
  <fix>3d</fix>
</trkpt>
<trkpt lat="-27.2744306" lon="151.2900604">
  <ele>358.16</ele>
  <time>2026-09-01T19:50:51Z</time>
  <course>17.52</course>
  <speed>0.16</speed>
  <fix>3d</fix>
</trkpt>
<trkpt lat="-27.2744299" lon="151.2900608">
  <ele>357.95</ele>
  <time>2026-09-01T19:50:51Z</time>
  <course>287.21</course>
  <speed>0.4427188724235731</speed>
  <fix>3d</fix>
</trkpt>
<trkpt lat="-27.2744306" lon="151.2900604">
  <ele>358.16</ele>
  <time>2026-09-01T19:50:51Z</time>
  <course>17.52</course>
  <speed>0.16</speed>
  <fix>3d</fix>
</trkpt>
<trkpt lat="-27.2744295" lon="151.2900609">
  <ele>357.95</ele>
  <time>2026-09-01T19:50:51Z</time>
  <course>287.29</course>
  <speed>0.4743416490252569</speed>
  <fix>3d</fix>
</trkpt>
<trkpt lat="-27.2744302" lon="151.2900606">
  <ele>358.15</ele>
  <time>2026-09-01T19:50:51Z</time>
  <course>16.89</course>
  <speed>0.34</speed>
  <fix>3d</fix>
</trkpt>
<trkpt lat="-27.2744291" lon="151.290061">
  <ele>357.95</ele>
  <time>2026-09-01T19:50:51Z</time>
  <course>287.37</course>
  <speed>0.4838388161361178</speed>
  <fix>3d</fix>
</trkpt>
<trkpt lat="-27.2744302" lon="151.2900606">
  <ele>358.15</ele>
  <time>2026-09-01T19:50:51Z</time>
  <course>16.89</course>
  <speed>0.34</speed>
  <fix>3d</fix>
</trkpt>
<trkpt lat="-27.2744287" lon="151.2900612">
  <ele>357.95</ele>
  <time>2026-09-01T19:50:51Z</time>
  <course>287.46</course>
  <speed>0.4838388161361178</speed>
  <fix>3d</fix>
</trkpt>
<trkpt lat="-27.2744295" lon="151.2900608">
  <ele>358.15</ele>
  <time>2026-09-01T19:50:51Z</time>
  <course>16.65</course>
  <speed>0.44</speed>
  <fix>3d</fix>
</trkpt>
<trkpt lat="-27.2744283" lon="151.2900613">
  <ele>357.95</ele>
  <time>2026-09-01T19:50:51Z</time>
  <course>287.54</course>
  <speed>0.4838388161361178</speed>
  <fix>3d</fix>
</trkpt>
<trkpt lat="-27.2744295" lon="151.2900608">
  <ele>358.15</ele>
  <time>2026-09-01T19:50:51Z</time>
  <course>16.65</course>
  <speed>0.44</speed>
  <fix>3d</fix>
</trkpt>
<trkpt lat="-27.2744279" lon="151.2900615">
  <ele>357.95</ele>
  <time>2026-09-01T19:50:51Z</time>
  <course>287.59</course>
  <speed>0.455411901469428</speed>
  <fix>3d</fix>
</trkpt>
<trkpt lat="-27.2744288" lon="151.290061">
  <ele>358.15</ele>
  <time>2026-09-01T19:50:51Z</time>
  <course>16.64</course>
  <speed>0.47</speed>
  <fix>3d</fix>
</trkpt>
<trkpt lat="-27.2744275" lon="151.2900616">
  <ele>357.95</ele>
  <time>2026-09-01T19:50:51Z</time>
  <course>287.63</course>
  <speed>0.33837848631377265</speed>
  <fix>3d</fix>
</trkpt>
<trkpt lat="-27.2744288" lon="151.290061">
  <ele>358.15</ele>
  <time>2026-09-01T19:50:51Z</time>
  <course>16.64</course>
  <speed>0.47</speed>
  <fix>3d</fix>
</trkpt>
<trkpt lat="-27.2744273" lon="151.2900616">
  <ele>357.95</ele>
  <time>2026-09-01T19:50:51Z</time>
  <course>287.66</course>
  <speed>0.19313207915827968</speed>
  <fix>3d</fix>
</trkpt>
<trkpt lat="-27.274428" lon="151.2900613">
  <ele>358.15</ele>
  <time>2026-09-01T19:50:51Z</time>
  <course>16.71</course>
  <speed>0.4</speed>
  <fix>3d</fix>
</trkpt>
<trkpt lat="-27.2744272" lon="151.2900617">
  <ele>357.95</ele>
  <time>2026-09-01T19:50:51Z</time>
  <course>287.66</course>
  <speed>0.08944271909999159</speed>
  <fix>3d</fix>
</trkpt>
<trkpt lat="-27.274428" lon="151.2900613">
  <ele>358.15</ele>
  <time>2026-09-01T19:50:51Z</time>
  <course>16.71</course>
  <speed>0.4</speed>
  <fix>3d</fix>
</trkpt>
<trkpt lat="-27.2744272" lon="151.2900617">
  <ele>357.95</ele>
  <time>2026-09-01T19:50:51Z</time>
  <course>287.61</course>
  <speed>0.01414213562373095</speed>
  <fix>3d</fix>
</trkpt>
<trkpt lat="-27.2744274" lon="151.2900615">
  <ele>358.15</ele>
  <time>2026-09-01T19:50:51Z</time>
  <course>16.73</course>
  <speed>0.2</speed>
  <fix>3d</fix>
</trkpt>
<trkpt lat="-27.2744272" lon="151.2900617">
  <ele>357.95</ele>
  <time>2026-09-01T19:50:51Z</time>
  <course>287.54</course>
  <speed>0.03</speed>
  <fix>3d</fix>
</trkpt>
<trkpt lat="-27.2744274" lon="151.2900615">
  <ele>358.15</ele>
  <time>2026-09-01T19:50:51Z</time>
  <course>16.73</course>
  <speed>0.2</speed>
  <fix>3d</fix>
</trkpt>
<trkpt lat="-27.2744273" lon="151.2900616">
  <ele>357.95</ele>
  <time>2026-09-01T19:50:51Z</time>
  <course>287.44</course>
  <speed>0.07</speed>
  <fix>3d</fix>
</trkpt>
<trkpt lat="-27.2744273" lon="151.2900616">
  <ele>358.16</ele>
  <time>2026-09-01T19:50:51Z</time>
  <course>17.34</course>
  <speed>0.01</speed>
  <fix>3d</fix>
</trkpt>
<trkpt lat="-27.2744274" lon="151.2900616">
  <ele>357.95</ele>
  <time>2026-09-01T19:50:51Z</time>
  <course>287.34</course>
  <speed>0.1004987562112089</speed>
  <fix>3d</fix>
</trkpt>
<trkpt lat="-27.2744273" lon="151.2900616">
  <ele>358.16</ele>
  <time>2026-09-01T19:50:51Z</time>
  <course>17.34</course>
  <speed>0.01</speed>
  <fix>3d</fix>
</trkpt>
<trkpt lat="-27.2744275" lon="151.2900616">
  <ele>357.96</ele>
  <time>2026-09-01T19:50:51Z</time>
  <course>287.26</course>
  <speed>0.12165525060596438</speed>
  <fix>3d</fix>
</trkpt>
<trkpt lat="-27.2744273" lon="151.2900615">
  <ele>358.16</ele>
  <time>2026-09-01T19:50:51Z</time>
  <course>196.2</course>
  <speed>0.08</speed>
  <fix>3d</fix>
</trkpt>
<trkpt lat="-27.2744276" lon="151.2900615">
  <ele>357.96</ele>
  <time>2026-09-01T19:50:51Z</time>
  <course>287.19</course>
  <speed>0.13152946437965907</speed>
  <fix>3d</fix>
</trkpt>
<trkpt lat="-27.2744273" lon="151.2900615">
  <ele>358.16</ele>
  <time>2026-09-01T19:50:51Z</time>
  <course>196.2</course>
  <speed>0.08</speed>
  <fix>3d</fix>
</trkpt>
<trkpt lat="-27.2744277" lon="151.2900615">
  <ele>357.96</ele>
  <time>2026-09-01T19:50:51Z</time>
  <course>287.15</course>
  <speed>0.15297058540778355</speed>
  <fix>3d</fix>
</trkpt>
<trkpt lat="-27.2744275" lon="151.2900615">
  <ele>358.16</ele>
  <time>2026-09-01T19:50:51Z</time>
  <course>196.19</course>
  <speed>0.13</speed>
  <fix>3d</fix>
</trkpt>
<trkpt lat="-27.2744278" lon="151.2900615">
  <ele>357.96</ele>
  <time>2026-09-01T19:50:51Z</time>
  <course>287.13</course>
  <speed>0.09055385138137417</speed>
  <fix>3d</fix>
</trkpt>
<trkpt lat="-27.2744275" lon="151.2900615">
  <ele>358.16</ele>
  <time>2026-09-01T19:50:51Z</time>
  <course>196.19</course>
  <speed>0.13</speed>
  <fix>3d</fix>
</trkpt>
<trkpt lat="-27.2744278" lon="151.2900615">
  <ele>357.96</ele>
  <time>2026-09-01T19:50:51Z</time>
  <course>287.12</course>
  <speed>0.01414213562373095</speed>
  <fix>3d</fix>
</trkpt>
<trkpt lat="-27.2744276" lon="151.2900615">
  <ele>358.16</ele>
  <time>2026-09-01T19:50:51Z</time>
  <course>196.19</course>
  <speed>0.13</speed>
  <fix>3d</fix>
</trkpt>
<trkpt lat="-27.2744278" lon="151.2900615">
  <ele>357.96</ele>
  <time>2026-09-01T19:50:51Z</time>
  <course>287.13</course>
  <speed>0.03605551275463989</speed>
  <fix>3d</fix>
</trkpt>
<trkpt lat="-27.2744276" lon="151.2900615">
  <ele>358.16</ele>
  <time>2026-09-01T19:50:51Z</time>
  <course>196.19</course>
  <speed>0.13</speed>
  <fix>3d</fix>
</trkpt>
<trkpt lat="-27.2744278" lon="151.2900615">
  <ele>357.95</ele>
  <time>2026-09-01T19:50:51Z</time>
  <course>287.15</course>
  <speed>0.0670820393249937</speed>
  <fix>3d</fix>
</trkpt>
<trkpt lat="-27.2744278" lon="151.2900614">
  <ele>358.16</ele>
  <time>2026-09-01T19:50:51Z</time>
  <course>195.43</course>
  <speed>0.05</speed>
  <fix>3d</fix>
</trkpt>
<trkpt lat="-27.2744277" lon="151.2900615">
  <ele>357.95</ele>
  <time>2026-09-01T19:50:51Z</time>
  <course>287.19</course>
  <speed>0.08062257748298549</speed>
  <fix>3d</fix>
</trkpt>
<trkpt lat="-27.2744278" lon="151.2900614">
  <ele>358.16</ele>
  <time>2026-09-01T19:50:51Z</time>
  <course>195.43</course>
  <speed>0.05</speed>
  <fix>3d</fix>
</trkpt>
<trkpt lat="-27.2744276" lon="151.2900615">
  <ele>357.95</ele>
  <time>2026-09-01T19:50:51Z</time>
  <course>287.24</course>
  <speed>0.08944271909999159</speed>
  <fix>3d</fix>
</trkpt>
<trkpt lat="-27.2744278" lon="151.2900614">
  <ele>358.16</ele>
  <time>2026-09-01T19:50:51Z</time>
  <course>18.65</course>
  <speed>0.03</speed>
  <fix>3d</fix>
</trkpt>
<trkpt lat="-27.2744276" lon="151.2900616">
  <ele>357.95</ele>
  <time>2026-09-01T19:50:51Z</time>
  <course>287.29</course>
  <speed>0.08062257748298549</speed>
  <fix>3d</fix>
</trkpt>
<trkpt lat="-27.2744278" lon="151.2900614">
  <ele>358.16</ele>
  <time>2026-09-01T19:50:51Z</time>
  <course>18.65</course>
  <speed>0.03</speed>
  <fix>3d</fix>
</trkpt>
<trkpt lat="-27.2744276" lon="151.2900616">
  <ele>357.95</ele>
  <time>2026-09-01T19:50:51Z</time>
  <course>287.33</course>
  <speed>0.0670820393249937</speed>
  <fix>3d</fix>
</trkpt>
<trkpt lat="-27.2744277" lon="151.2900615">
  <ele>358.16</ele>
  <time>2026-09-01T19:50:51Z</time>
  <course>18.08</course>
  <speed>0.06</speed>
  <fix>3d</fix>
</trkpt>
<trkpt lat="-27.2744276" lon="151.2900616">
  <ele>357.95</ele>
  <time>2026-09-01T19:50:51Z</time>
  <course>287.35</course>
  <speed>0.01414213562373095</speed>
  <fix>3d</fix>
</trkpt>
<trkpt lat="-27.2744277" lon="151.2900615">
  <ele>358.16</ele>
  <time>2026-09-01T19:50:51Z</time>
  <course>18.08</course>
  <speed>0.06</speed>
  <fix>3d</fix>
</trkpt>
<trkpt lat="-27.2744276" lon="151.2900616">
  <ele>357.95</ele>
  <time>2026-09-01T19:50:51Z</time>
  <course>287.36</course>
  <speed>0.1004987562112089</speed>
  <fix>3d</fix>
</trkpt>
<trkpt lat="-27.2744277" lon="151.2900615">
  <ele>358.16</ele>
  <time>2026-09-01T19:50:51Z</time>
  <course>22.58</course>
  <speed>0.01</speed>
  <fix>3d</fix>
</trkpt>
<trkpt lat="-27.2744277" lon="151.2900616">
  <ele>357.95</ele>
  <time>2026-09-01T19:50:51Z</time>
  <course>287.35</course>
  <speed>0.17262676501632068</speed>
  <fix>3d</fix>
</trkpt>
<trkpt lat="-27.2744277" lon="151.2900615">
  <ele>358.16</ele>
  <time>2026-09-01T19:50:51Z</time>
  <course>22.58</course>
  <speed>0.01</speed>
  <fix>3d</fix>
</trkpt>
<trkpt lat="-27.2744279" lon="151.2900616">
  <ele>357.95</ele>
  <time>2026-09-01T19:50:51Z</time>
  <course>287.34</course>
  <speed>0.22561028345356957</speed>
  <fix>3d</fix>
</trkpt>
<trkpt lat="-27.2744278" lon="151.2900615">
  <ele>358.16</ele>
  <time>2026-09-01T19:50:51Z</time>
  <course>195.89</course>
  <speed>0.11</speed>
  <fix>3d</fix>
</trkpt>
<trkpt lat="-27.2744281" lon="151.2900615">
  <ele>357.95</ele>
  <time>2026-09-01T19:50:51Z</time>
  <course>287.31</course>
  <speed>0.2668332812825267</speed>
  <fix>3d</fix>
</trkpt>
<trkpt lat="-27.2744278" lon="151.2900615">
  <ele>358.16</ele>
  <time>2026-09-01T19:50:51Z</time>
  <course>195.89</course>
  <speed>0.11</speed>
  <fix>3d</fix>
</trkpt>
<trkpt lat="-27.2744284" lon="151.2900614">
  <ele>357.95</ele>
  <time>2026-09-01T19:50:51Z</time>
  <course>287.28</course>
  <speed>0.28861739379323625</speed>
  <fix>3d</fix>
</trkpt>
<trkpt lat="-27.2744281" lon="151.2900614">
  <ele>358.16</ele>
  <time>2026-09-01T19:50:51Z</time>
  <course>196.42</course>
  <speed>0.24</speed>
  <fix>3d</fix>
</trkpt>
<trkpt lat="-27.2744287" lon="151.2900613">
  <ele>357.95</ele>
  <time>2026-09-01T19:50:51Z</time>
  <course>287.24</course>
  <speed>0.3080584360149873</speed>
  <fix>3d</fix>
</trkpt>
<trkpt lat="-27.2744281" lon="151.2900614">
  <ele>358.16</ele>
  <time>2026-09-01T19:50:51Z</time>
  <course>196.42</course>
  <speed>0.24</speed>
  <fix>3d</fix>
</trkpt>
<trkpt lat="-27.274429" lon="151.2900612">
  <ele>357.95</ele>
  <time>2026-09-01T19:50:51Z</time>
  <course>287.21</course>
  <speed>0.3298484500494128</speed>
  <fix>3d</fix>
</trkpt>
<trkpt lat="-27.2744286" lon="151.2900612">
  <ele>358.16</ele>
  <time>2026-09-01T19:50:51Z</time>
  <course>196.64</course>
  <speed>0.31</speed>
  <fix>3d</fix>
</trkpt>
<trkpt lat="-27.2744293" lon="151.2900611">
  <ele>357.96</ele>
  <time>2026-09-01T19:50:51Z</time>
  <course>287.18</course>
  <speed>0.33955853692699295</speed>
  <fix>3d</fix>
</trkpt>
<trkpt lat="-27.2744286" lon="151.2900612">
  <ele>358.16</ele>
  <time>2026-09-01T19:50:51Z</time>
  <course>196.64</course>
  <speed>0.31</speed>
  <fix>3d</fix>
</trkpt>
<trkpt lat="-27.2744296" lon="151.290061">
  <ele>357.96</ele>
  <time>2026-09-01T19:50:51Z</time>
  <course>287.16</course>
  <speed>0.3178049716414141</speed>
  <fix>3d</fix>
</trkpt>
<trkpt lat="-27.2744292" lon="151.2900609">
  <ele>358.16</ele>
  <time>2026-09-01T19:50:51Z</time>
  <course>196.75</course>
  <speed>0.36</speed>
  <fix>3d</fix>
</trkpt>
<trkpt lat="-27.2744299" lon="151.2900609">
  <ele>357.96</ele>
  <time>2026-09-01T19:50:51Z</time>
  <course>287.13</course>
  <speed>0.2668332812825267</speed>
  <fix>3d</fix>
</trkpt>
<trkpt lat="-27.2744292" lon="151.2900609">
  <ele>358.16</ele>
  <time>2026-09-01T19:50:51Z</time>
  <course>196.75</course>
  <speed>0.36</speed>
  <fix>3d</fix>
</trkpt>
<trkpt lat="-27.2744301" lon="151.2900608">
  <ele>357.96</ele>
  <time>2026-09-01T19:50:51Z</time>
  <course>287.12</course>
  <speed>0.22561028345356957</speed>
  <fix>3d</fix>
</trkpt>
<trkpt lat="-27.2744298" lon="151.2900608">
  <ele>358.16</ele>
  <time>2026-09-01T19:50:51Z</time>
  <course>196.82</course>
  <speed>0.33</speed>
  <fix>3d</fix>
</trkpt>
<trkpt lat="-27.2744303" lon="151.2900608">
  <ele>357.96</ele>
  <time>2026-09-01T19:50:51Z</time>
  <course>287.12</course>
  <speed>0.21377558326431947</speed>
  <fix>3d</fix>
</trkpt>
<trkpt lat="-27.2744298" lon="151.2900608">
  <ele>358.16</ele>
  <time>2026-09-01T19:50:51Z</time>
  <course>196.82</course>
  <speed>0.33</speed>
  <fix>3d</fix>
</trkpt>
<trkpt lat="-27.2744305" lon="151.2900607">
  <ele>357.96</ele>
  <time>2026-09-01T19:50:51Z</time>
  <course>287.14</course>
  <speed>0.2039607805437114</speed>
  <fix>3d</fix>
</trkpt>
<trkpt lat="-27.2744303" lon="151.2900606">
  <ele>358.16</ele>
  <time>2026-09-01T19:50:51Z</time>
  <course>196.83</course>
  <speed>0.27</speed>
  <fix>3d</fix>
</trkpt>
<trkpt lat="-27.2744307" lon="151.2900606">
  <ele>357.96</ele>
  <time>2026-09-01T19:50:51Z</time>
  <course>287.17</course>
  <speed>0.2039607805437114</speed>
  <fix>3d</fix>
</trkpt>
<trkpt lat="-27.2744303" lon="151.2900606">
  <ele>358.16</ele>
  <time>2026-09-01T19:50:51Z</time>
  <course>196.83</course>
  <speed>0.27</speed>
  <fix>3d</fix>
</trkpt>
<trkpt lat="-27.2744309" lon="151.2900606">
  <ele>357.96</ele>
  <time>2026-09-01T19:50:51Z</time>
  <course>287.22</course>
  <speed>0.2039607805437114</speed>
  <fix>3d</fix>
</trkpt>
<trkpt lat="-27.2744307" lon="151.2900604">
  <ele>358.16</ele>
  <time>2026-09-01T19:50:51Z</time>
  <course>196.76</course>
  <speed>0.24</speed>
  <fix>3d</fix>
</trkpt>
<trkpt lat="-27.2744311" lon="151.2900605">
  <ele>357.96</ele>
  <time>2026-09-01T19:50:51Z</time>
  <course>287.26</course>
  <speed>0.24515301344262524</speed>
  <fix>3d</fix>
</trkpt>
<trkpt lat="-27.2744307" lon="151.2900604">
  <ele>358.16</ele>
  <time>2026-09-01T19:50:51Z</time>
  <course>196.76</course>
  <speed>0.24</speed>
  <fix>3d</fix>
</trkpt>
<trkpt lat="-27.2744314" lon="151.2900604">
  <ele>357.96</ele>
  <time>2026-09-01T19:50:51Z</time>
  <course>287.28</course>
  <speed>0.33955853692699295</speed>
  <fix>3d</fix>
</trkpt>
<trkpt lat="-27.2744312" lon="151.2900603">
  <ele>358.16</ele>
  <time>2026-09-01T19:50:51Z</time>
  <course>196.67</course>
  <speed>0.25</speed>
  <fix>3d</fix>
</trkpt>
<trkpt lat="-27.2744318" lon="151.2900603">
  <ele>357.96</ele>
  <time>2026-09-01T19:50:51Z</time>
  <course>287.27</course>
  <speed>0.4220189569201838</speed>
  <fix>3d</fix>
</trkpt>
<trkpt lat="-27.2744312" lon="151.2900603">
  <ele>358.16</ele>
  <time>2026-09-01T19:50:51Z</time>
  <course>196.67</course>
  <speed>0.25</speed>
  <fix>3d</fix>
</trkpt>
<trkpt lat="-27.2744322" lon="151.2900601">
  <ele>357.96</ele>
  <time>2026-09-01T19:50:51Z</time>
  <course>287.25</course>
  <speed>0.4753945729601885</speed>
  <fix>3d</fix>
</trkpt>
<trkpt lat="-27.2744317" lon="151.2900602">
  <ele>358.16</ele>
  <time>2026-09-01T19:50:51Z</time>
  <course>196.74</course>
  <speed>0.36</speed>
  <fix>3d</fix>
</trkpt>
<trkpt lat="-27.2744326" lon="151.29006">
  <ele>357.96</ele>
  <time>2026-09-01T19:50:51Z</time>
  <course>287.2</course>
  <speed>0.5166236541235796</speed>
  <fix>3d</fix>
</trkpt>
<trkpt lat="-27.2744317" lon="151.2900602">
  <ele>358.16</ele>
  <time>2026-09-01T19:50:51Z</time>
  <course>196.74</course>
  <speed>0.36</speed>
  <fix>3d</fix>
</trkpt>
<trkpt lat="-27.2744331" lon="151.2900598">
  <ele>357.96</ele>
  <time>2026-09-01T19:50:51Z</time>
  <course>287.14</course>
  <speed>0.5385164807134504</speed>
  <fix>3d</fix>
</trkpt>
<trkpt lat="-27.2744324" lon="151.2900599">
  <ele>358.16</ele>
  <time>2026-09-01T19:50:51Z</time>
  <course>196.88</course>
  <speed>0.49</speed>
  <fix>3d</fix>
</trkpt>
<trkpt lat="-27.2744336" lon="151.2900597">
  <ele>357.96</ele>
  <time>2026-09-01T19:50:51Z</time>
  <course>287.07</course>
  <speed>0.5604462507680822</speed>
  <fix>3d</fix>
</trkpt>
<trkpt lat="-27.2744324" lon="151.2900599">
  <ele>358.16</ele>
  <time>2026-09-01T19:50:51Z</time>
  <course>196.88</course>
  <speed>0.49</speed>
  <fix>3d</fix>
</trkpt>
<trkpt lat="-27.2744341" lon="151.2900595">
  <ele>357.96</ele>
  <time>2026-09-01T19:50:51Z</time>
  <course>287.01</course>
  <speed>0.570087712549569</speed>
  <fix>3d</fix>
</trkpt>
<trkpt lat="-27.2744334" lon="151.2900596">
  <ele>358.16</ele>
  <time>2026-09-01T19:50:51Z</time>
  <course>196.95</course>
  <speed>0.57</speed>
  <fix>3d</fix>
</trkpt>
<trkpt lat="-27.2744346" lon="151.2900593">
  <ele>357.96</ele>
  <time>2026-09-01T19:50:51Z</time>
  <course>286.95</course>
  <speed>0.5797413216254298</speed>
  <fix>3d</fix>
</trkpt>
<trkpt lat="-27.2744334" lon="151.2900596">
  <ele>358.16</ele>
  <time>2026-09-01T19:50:51Z</time>
  <course>196.95</course>
  <speed>0.57</speed>
  <fix>3d</fix>
</trkpt>
<trkpt lat="-27.2744352" lon="151.2900591">
  <ele>357.96</ele>
  <time>2026-09-01T19:50:51Z</time>
  <course>286.92</course>
  <speed>0.5797413216254298</speed>
  <fix>3d</fix>
</trkpt>
<trkpt lat="-27.2744343" lon="151.2900592">
  <ele>358.16</ele>
  <time>2026-09-01T19:50:51Z</time>
  <course>196.96</course>
  <speed>0.6</speed>
  <fix>3d</fix>
</trkpt>
<trkpt lat="-27.2744357" lon="151.290059">
  <ele>357.96</ele>
  <time>2026-09-01T19:50:51Z</time>
  <course>286.88</course>
  <speed>0.5263078946776306</speed>
  <fix>3d</fix>
</trkpt>
<trkpt lat="-27.2744343" lon="151.2900592">
  <ele>358.16</ele>
  <time>2026-09-01T19:50:51Z</time>
  <course>196.96</course>
  <speed>0.6</speed>
  <fix>3d</fix>
</trkpt>
<trkpt lat="-27.2744361" lon="151.2900588">
  <ele>357.96</ele>
  <time>2026-09-01T19:50:51Z</time>
  <course>286.84</course>
  <speed>0.4753945729601885</speed>
  <fix>3d</fix>
</trkpt>
<trkpt lat="-27.2744354" lon="151.2900589">
  <ele>358.16</ele>
  <time>2026-09-01T19:50:51Z</time>
  <course>196.93</course>
  <speed>0.58</speed>
  <fix>3d</fix>
</trkpt>
<trkpt lat="-27.2744365" lon="151.2900587">
  <ele>357.97</ele>
  <time>2026-09-01T19:50:51Z</time>
  <course>286.81</course>
  <speed>0.4341658669218482</speed>
  <fix>3d</fix>
</trkpt>
<trkpt lat="-27.2744354" lon="151.2900589">
  <ele>358.16</ele>
  <time>2026-09-01T19:50:51Z</time>
  <course>196.93</course>
  <speed>0.58</speed>
  <fix>3d</fix>
</trkpt>
<trkpt lat="-27.2744369" lon="151.2900585">
  <ele>357.97</ele>
  <time>2026-09-01T19:50:51Z</time>
  <course>286.83</course>
  <speed>0.41231056256176607</speed>
  <fix>3d</fix>
</trkpt>
<trkpt lat="-27.2744363" lon="151.2900585">
  <ele>358.16</ele>
  <time>2026-09-01T19:50:51Z</time>
  <course>196.87</course>
  <speed>0.51</speed>
  <fix>3d</fix>
</trkpt>
<trkpt lat="-27.2744373" lon="151.2900584">
  <ele>357.97</ele>
  <time>2026-09-01T19:50:51Z</time>
  <course>286.89</course>
  <speed>0.4026164427839479</speed>
  <fix>3d</fix>
</trkpt>
<trkpt lat="-27.2744363" lon="151.2900585">
  <ele>358.16</ele>
  <time>2026-09-01T19:50:51Z</time>
  <course>196.87</course>
  <speed>0.51</speed>
  <fix>3d</fix>
</trkpt>
<trkpt lat="-27.2744377" lon="151.2900583">
  <ele>357.97</ele>
  <time>2026-09-01T19:50:51Z</time>
  <course>286.97</course>
  <speed>0.40024992192379005</speed>
  <fix>3d</fix>
</trkpt>
<trkpt lat="-27.2744372" lon="151.2900583">
  <ele>358.16</ele>
  <time>2026-09-01T19:50:51Z</time>
  <course>196.83</course>
  <speed>0.45</speed>
  <fix>3d</fix>
</trkpt>
<trkpt lat="-27.274438" lon="151.2900582">
  <ele>357.97</ele>
  <time>2026-09-01T19:50:51Z</time>
  <course>287.06</course>
  <speed>0.40024992192379005</speed>
  <fix>3d</fix>
</trkpt>
<trkpt lat="-27.2744372" lon="151.2900583">
  <ele>358.16</ele>
  <time>2026-09-01T19:50:51Z</time>
  <course>196.83</course>
  <speed>0.45</speed>
  <fix>3d</fix>
</trkpt>
<trkpt lat="-27.2744384" lon="151.290058">
  <ele>357.97</ele>
  <time>2026-09-01T19:50:51Z</time>
  <course>287.13</course>
  <speed>0.4753945729601885</speed>
  <fix>3d</fix>
</trkpt>
<trkpt lat="-27.2744379" lon="151.290058">
  <ele>358.16</ele>
  <time>2026-09-01T19:50:51Z</time>
  <course>196.89</course>
  <speed>0.43</speed>
  <fix>3d</fix>
</trkpt>
<trkpt lat="-27.2744389" lon="151.2900579">
  <ele>357.97</ele>
  <time>2026-09-01T19:50:51Z</time>
  <course>287.16</course>
  <speed>0.5578530272392541</speed>
  <fix>3d</fix>
</trkpt>
<trkpt lat="-27.2744379" lon="151.290058">
  <ele>358.16</ele>
  <time>2026-09-01T19:50:51Z</time>
  <course>196.89</course>
  <speed>0.43</speed>
  <fix>3d</fix>
</trkpt>
<trkpt lat="-27.2744394" lon="151.2900577">
  <ele>357.97</ele>
  <time>2026-09-01T19:50:51Z</time>
  <course>287.15</course>
  <speed>0.611310068623117</speed>
  <fix>3d</fix>
</trkpt>
<trkpt lat="-27.2744387" lon="151.2900577">
  <ele>358.16</ele>
  <time>2026-09-01T19:50:51Z</time>
  <course>196.96</course>
  <speed>0.5</speed>
  <fix>3d</fix>
</trkpt>
<trkpt lat="-27.27444" lon="151.2900575">
  <ele>357.96</ele>
  <time>2026-09-01T19:50:51Z</time>
  <course>287.1</course>
  <speed>0.6525335240430181</speed>
  <fix>3d</fix>
</trkpt>
<trkpt lat="-27.2744387" lon="151.2900577">
  <ele>358.16</ele>
  <time>2026-09-01T19:50:51Z</time>
  <course>196.96</course>
  <speed>0.5</speed>
  <fix>3d</fix>
</trkpt>
<trkpt lat="-27.2744406" lon="151.2900573">
  <ele>357.96</ele>
  <time>2026-09-01T19:50:51Z</time>
  <course>287.03</course>
  <speed>0.6744627491566899</speed>
  <fix>3d</fix>
</trkpt>
<trkpt lat="-27.2744397" lon="151.2900574">
  <ele>358.15</ele>
  <time>2026-09-01T19:50:51Z</time>
  <course>196.98</course>
  <speed>0.63</speed>
  <fix>3d</fix>
</trkpt>
<trkpt lat="-27.2744412" lon="151.2900571">
  <ele>357.96</ele>
  <time>2026-09-01T19:50:51Z</time>
  <course>286.96</course>
  <speed>0.6841052550594828</speed>
  <fix>3d</fix>
</trkpt>
<trkpt lat="-27.2744397" lon="151.2900574">
  <ele>358.15</ele>
  <time>2026-09-01T19:50:51Z</time>
  <course>196.98</course>
  <speed>0.63</speed>
  <fix>3d</fix>
</trkpt>
<trkpt lat="-27.2744418" lon="151.2900568">
  <ele>357.96</ele>
  <time>2026-09-01T19:50:51Z</time>
  <course>286.88</course>
  <speed>0.6937578828380979</speed>
  <fix>3d</fix>
</trkpt>
<trkpt lat="-27.2744409" lon="151.290057">
  <ele>358.15</ele>
  <time>2026-09-01T19:50:51Z</time>
  <course>196.98</course>
  <speed>0.7</speed>
  <fix>3d</fix>
</trkpt>
<trkpt lat="-27.2744425" lon="151.2900566">
  <ele>357.96</ele>
  <time>2026-09-01T19:50:51Z</time>
  <course>286.82</course>
  <speed>0.6937578828380979</speed>
  <fix>3d</fix>
</trkpt>
<trkpt lat="-27.2744409" lon="151.290057">
  <ele>358.15</ele>
  <time>2026-09-01T19:50:51Z</time>
  <course>196.98</course>
  <speed>0.7</speed>
  <fix>3d</fix>
</trkpt>
<trkpt lat="-27.2744431" lon="151.2900564">
  <ele>357.96</ele>
  <time>2026-09-01T19:50:51Z</time>
  <course>286.78</course>
  <speed>0.6937578828380979</speed>
  <fix>3d</fix>
</trkpt>
<trkpt lat="-27.2744421" lon="151.2900566">
  <ele>358.14</ele>
  <time>2026-09-01T19:50:51Z</time>
  <course>196.97</course>
  <speed>0.72</speed>
  <fix>3d</fix>
</trkpt>
<trkpt lat="-27.2744437" lon="151.2900562">
  <ele>357.96</ele>
  <time>2026-09-01T19:50:51Z</time>
  <course>286.75</course>
  <speed>0.6525335240430181</speed>
  <fix>3d</fix>
</trkpt>
<trkpt lat="-27.2744421" lon="151.2900566">
  <ele>358.14</ele>
  <time>2026-09-01T19:50:51Z</time>
  <course>196.97</course>
  <speed>0.72</speed>
  <fix>3d</fix>
</trkpt>
<trkpt lat="-27.2744443" lon="151.290056">
  <ele>357.96</ele>
  <time>2026-09-01T19:50:51Z</time>
  <course>286.7</course>
  <speed>0.5797413216254298</speed>
  <fix>3d</fix>
</trkpt>
<trkpt lat="-27.2744434" lon="151.2900561">
  <ele>358.14</ele>
  <time>2026-09-01T19:50:51Z</time>
  <course>196.95</course>
  <speed>0.7</speed>
  <fix>3d</fix>
</trkpt>
<trkpt lat="-27.2744448" lon="151.2900559">
  <ele>357.97</ele>
  <time>2026-09-01T19:50:51Z</time>
  <course>286.67</course>
  <speed>0.5360037313302959</speed>
  <fix>3d</fix>
</trkpt>
<trkpt lat="-27.2744434" lon="151.2900561">
  <ele>358.14</ele>
  <time>2026-09-01T19:50:51Z</time>
  <course>196.95</course>
  <speed>0.7</speed>
  <fix>3d</fix>
</trkpt>
<trkpt lat="-27.2744452" lon="151.2900557">
  <ele>357.97</ele>
  <time>2026-09-01T19:50:51Z</time>
  <course>286.68</course>
  <speed>0.49477267507411926</speed>
  <fix>3d</fix>
</trkpt>
<trkpt lat="-27.2744445" lon="151.2900557">
  <ele>358.14</ele>
  <time>2026-09-01T19:50:51Z</time>
  <course>196.9</course>
  <speed>0.62</speed>
  <fix>3d</fix>
</trkpt>
<trkpt lat="-27.2744457" lon="151.2900556">
  <ele>357.97</ele>
  <time>2026-09-01T19:50:51Z</time>
  <course>286.74</course>
  <speed>0.4729693436154187</speed>
  <fix>3d</fix>
</trkpt>
<trkpt lat="-27.2744445" lon="151.2900557">
  <ele>358.14</ele>
  <time>2026-09-01T19:50:51Z</time>
  <course>196.9</course>
  <speed>0.62</speed>
  <fix>3d</fix>
</trkpt>
<trkpt lat="-27.2744461" lon="151.2900554">
  <ele>357.97</ele>
  <time>2026-09-01T19:50:51Z</time>
  <course>286.84</course>
  <speed>0.4632493928760188</speed>
  <fix>3d</fix>
</trkpt>
<trkpt lat="-27.2744455" lon="151.2900554">
  <ele>358.14</ele>
  <time>2026-09-01T19:50:51Z</time>
  <course>196.77</course>
  <speed>0.53</speed>
  <fix>3d</fix>
</trkpt>
<trkpt lat="-27.2744465" lon="151.2900553">
  <ele>357.97</ele>
  <time>2026-09-01T19:50:51Z</time>
  <course>286.97</course>
  <speed>0.45122056690713913</speed>
  <fix>3d</fix>
</trkpt>
<trkpt lat="-27.2744455" lon="151.2900554">
  <ele>358.14</ele>
  <time>2026-09-01T19:50:51Z</time>
  <course>196.77</course>
  <speed>0.53</speed>
  <fix>3d</fix>
</trkpt>
<trkpt lat="-27.2744469" lon="151.2900551">
  <ele>357.97</ele>
  <time>2026-09-01T19:50:51Z</time>
  <course>287.08</course>
  <speed>0.4827007354458868</speed>
  <fix>3d</fix>
</trkpt>
<trkpt lat="-27.2744464" lon="151.2900551">
  <ele>358.14</ele>
  <time>2026-09-01T19:50:51Z</time>
  <course>196.59</course>
  <speed>0.49</speed>
  <fix>3d</fix>
</trkpt>
<trkpt lat="-27.2744474" lon="151.290055">
  <ele>357.97</ele>
  <time>2026-09-01T19:50:51Z</time>
  <course>287.16</course>
  <speed>0.5578530272392541</speed>
  <fix>3d</fix>
</trkpt>
<trkpt lat="-27.2744464" lon="151.2900551">
  <ele>358.14</ele>
  <time>2026-09-01T19:50:51Z</time>
  <course>196.59</course>
  <speed>0.49</speed>
  <fix>3d</fix>
</trkpt>
<trkpt lat="-27.274448" lon="151.2900548">
  <ele>357.97</ele>
  <time>2026-09-01T19:50:51Z</time>
  <course>287.17</course>
  <speed>0.6209669878504009</speed>
  <fix>3d</fix>
</trkpt>
<trkpt lat="-27.2744473" lon="151.2900548">
  <ele>358.14</ele>
  <time>2026-09-01T19:50:51Z</time>
  <course>196.61</course>
  <speed>0.53</speed>
  <fix>3d</fix>
</trkpt>
<trkpt lat="-27.2744485" lon="151.2900546">
  <ele>357.97</ele>
  <time>2026-09-01T19:50:51Z</time>
  <course>287.15</course>
  <speed>0.6525335240430181</speed>
  <fix>3d</fix>
</trkpt>
<trkpt lat="-27.2744473" lon="151.2900548">
  <ele>358.14</ele>
  <time>2026-09-01T19:50:51Z</time>
  <course>196.61</course>
  <speed>0.53</speed>
  <fix>3d</fix>
</trkpt>
<trkpt lat="-27.2744491" lon="151.2900544">
  <ele>357.97</ele>
  <time>2026-09-01T19:50:51Z</time>
  <course>287.09</course>
  <speed>0.671863081289633</speed>
  <fix>3d</fix>
</trkpt>
<trkpt lat="-27.2744482" lon="151.2900545">
  <ele>358.13</ele>
  <time>2026-09-01T19:50:51Z</time>
  <course>196.64</course>
  <speed>0.63</speed>
  <fix>3d</fix>
</trkpt>
<trkpt lat="-27.2744497" lon="151.2900542">
  <ele>357.97</ele>
  <time>2026-09-01T19:50:51Z</time>
  <course>287.03</course>
  <speed>0.6815423684555495</speed>
  <fix>3d</fix>
</trkpt>
<trkpt lat="-27.2744482" lon="151.2900545">
  <ele>358.13</ele>
  <time>2026-09-01T19:50:51Z</time>
  <course>196.64</course>
  <speed>0.63</speed>
  <fix>3d</fix>
</trkpt>
<trkpt lat="-27.2744503" lon="151.290054">
  <ele>357.97</ele>
  <time>2026-09-01T19:50:51Z</time>
  <course>286.96</course>
  <speed>0.6815423684555495</speed>
  <fix>3d</fix>
</trkpt>
<trkpt lat="-27.2744494" lon="151.2900541">
  <ele>358.13</ele>
  <time>2026-09-01T19:50:51Z</time>
  <course>196.49</course>
  <speed>0.69</speed>
  <fix>3d</fix>
</trkpt>
<trkpt lat="-27.2744509" lon="151.2900538">
  <ele>357.97</ele>
  <time>2026-09-01T19:50:51Z</time>
  <course>286.9</course>
  <speed>0.671863081289633</speed>
  <fix>3d</fix>
</trkpt>
<trkpt lat="-27.2744494" lon="151.2900541">
  <ele>358.13</ele>
  <time>2026-09-01T19:50:51Z</time>
  <course>196.49</course>
  <speed>0.69</speed>
  <fix>3d</fix>
</trkpt>
<trkpt lat="-27.2744515" lon="151.2900536">
  <ele>357.97</ele>
  <time>2026-09-01T19:50:51Z</time>
  <course>286.85</course>
  <speed>0.6596969000988256</speed>
  <fix>3d</fix>
</trkpt>
<trkpt lat="-27.2744506" lon="151.2900536">
  <ele>358.13</ele>
  <time>2026-09-01T19:50:51Z</time>
  <course>196.33</course>
  <speed>0.7</speed>
  <fix>3d</fix>
</trkpt>
<trkpt lat="-27.2744521" lon="151.2900534">
  <ele>357.97</ele>
  <time>2026-09-01T19:50:51Z</time>
  <course>286.83</course>
  <speed>0.6403124237432849</speed>
  <fix>3d</fix>
</trkpt>
<trkpt lat="-27.2744506" lon="151.2900536">
  <ele>358.13</ele>
  <time>2026-09-01T19:50:51Z</time>
  <course>196.33</course>
  <speed>0.7</speed>
  <fix>3d</fix>
</trkpt>
<trkpt lat="-27.2744527" lon="151.2900532">
  <ele>357.97</ele>
  <time>2026-09-01T19:50:51Z</time>
  <course>286.81</course>
  <speed>0.5675385449465085</speed>
  <fix>3d</fix>
</trkpt>
<trkpt lat="-27.2744519" lon="151.2900533">
  <ele>358.13</ele>
  <time>2026-09-01T19:50:51Z</time>
  <course>196.23</course>
  <speed>0.68</speed>
  <fix>3d</fix>
</trkpt>
<trkpt lat="-27.2744532" lon="151.2900531">
  <ele>357.97</ele>
  <time>2026-09-01T19:50:51Z</time>
  <course>286.79</course>
  <speed>0.5044799302251776</speed>
  <fix>3d</fix>
</trkpt>
<trkpt lat="-27.2744519" lon="151.2900533">
  <ele>358.13</ele>
  <time>2026-09-01T19:50:51Z</time>
  <course>196.23</course>
  <speed>0.68</speed>
  <fix>3d</fix>
</trkpt>
<trkpt lat="-27.2744536" lon="151.2900529">
  <ele>357.97</ele>
  <time>2026-09-01T19:50:51Z</time>
  <course>286.79</course>
  <speed>0.45122056690713913</speed>
  <fix>3d</fix>
</trkpt>
<trkpt lat="-27.274453" lon="151.2900529">
  <ele>358.12</ele>
  <time>2026-09-01T19:50:51Z</time>
  <course>196.3</course>
  <speed>0.6</speed>
  <fix>3d</fix>
</trkpt>
<trkpt lat="-27.274454" lon="151.2900528">
  <ele>357.97</ele>
  <time>2026-09-01T19:50:51Z</time>
  <course>286.84</course>
  <speed>0.41</speed>
  <fix>3d</fix>
</trkpt>
<trkpt lat="-27.274453" lon="151.2900529">
  <ele>358.12</ele>
  <time>2026-09-01T19:50:51Z</time>
  <course>196.3</course>
  <speed>0.6</speed>
  <fix>3d</fix>
</trkpt>
<trkpt lat="-27.2744544" lon="151.2900527">
  <ele>357.97</ele>
  <time>2026-09-01T19:50:51Z</time>
  <course>286.93</course>
  <speed>0.3905124837953327</speed>
  <fix>3d</fix>
</trkpt>
<trkpt lat="-27.2744539" lon="151.2900526">
  <ele>358.12</ele>
  <time>2026-09-01T19:50:51Z</time>
  <course>196.45</course>
  <speed>0.48</speed>
  <fix>3d</fix>
</trkpt>
<trkpt lat="-27.2744548" lon="151.2900525">
  <ele>357.96</ele>
  <time>2026-09-01T19:50:51Z</time>
  <course>287.04</course>
  <speed>0.3687817782917155</speed>
  <fix>3d</fix>
</trkpt>
<trkpt lat="-27.2744539" lon="151.2900526">
  <ele>358.12</ele>
  <time>2026-09-01T19:50:51Z</time>
  <course>196.45</course>
  <speed>0.48</speed>
  <fix>3d</fix>
</trkpt>
<trkpt lat="-27.2744551" lon="151.2900524">
  <ele>357.96</ele>
  <time>2026-09-01T19:50:51Z</time>
  <course>287.15</course>
  <speed>0.3590264614203248</speed>
  <fix>3d</fix>
</trkpt>
<trkpt lat="-27.2744546" lon="151.2900523">
  <ele>358.12</ele>
  <time>2026-09-01T19:50:51Z</time>
  <course>196.54</course>
  <speed>0.41</speed>
  <fix>3d</fix>
</trkpt>
<trkpt lat="-27.2744554" lon="151.2900523">
  <ele>357.96</ele>
  <time>2026-09-01T19:50:51Z</time>
  <course>287.26</course>
  <speed>0.41231056256176607</speed>
  <fix>3d</fix>
</trkpt>
<trkpt lat="-27.2744546" lon="151.2900523">
  <ele>358.12</ele>
  <time>2026-09-01T19:50:51Z</time>
  <course>196.54</course>
  <speed>0.41</speed>
  <fix>3d</fix>
</trkpt>
<trkpt lat="-27.2744559" lon="151.2900522">
  <ele>357.95</ele>
  <time>2026-09-01T19:50:51Z</time>
  <course>287.32</course>
  <speed>0.5385164807134504</speed>
  <fix>3d</fix>
</trkpt>
<trkpt lat="-27.2744553" lon="151.2900521">
  <ele>358.11</ele>
  <time>2026-09-01T19:50:51Z</time>
  <course>196.64</course>
  <speed>0.41</speed>
  <fix>3d</fix>
</trkpt>
<trkpt lat="-27.2744564" lon="151.290052">
  <ele>357.95</ele>
  <time>2026-09-01T19:50:51Z</time>
  <course>287.34</course>
  <speed>0.7156814934033155</speed>
  <fix>3d</fix>
</trkpt>
<trkpt lat="-27.2744553" lon="151.2900521">
  <ele>358.11</ele>
  <time>2026-09-01T19:50:51Z</time>
  <course>196.64</course>
  <speed>0.41</speed>
  <fix>3d</fix>
</trkpt>
<trkpt lat="-27.2744572" lon="151.2900517">
  <ele>357.94</ele>
  <time>2026-09-01T19:50:51Z</time>
  <course>287.28</course>
  <speed>0.9052071586106685</speed>
  <fix>3d</fix>
</trkpt>
<trkpt lat="-27.2744561" lon="151.2900518">
  <ele>358.1</ele>
  <time>2026-09-01T19:50:51Z</time>
  <course>196.93</course>
  <speed>0.57</speed>
  <fix>3d</fix>
</trkpt>
<trkpt lat="-27.274458" lon="151.2900514">
  <ele>357.94</ele>
  <time>2026-09-01T19:50:51Z</time>
  <course>287.13</course>
  <speed>1.1072488428533127</speed>
  <fix>3d</fix>
</trkpt>
<trkpt lat="-27.2744561" lon="151.2900518">
  <ele>358.1</ele>
  <time>2026-09-01T19:50:51Z</time>
  <course>196.93</course>
  <speed>0.57</speed>
  <fix>3d</fix>
</trkpt>
<trkpt lat="-27.2744591" lon="151.290051">
  <ele>357.93</ele>
  <time>2026-09-01T19:50:51Z</time>
  <course>286.88</course>
  <speed>1.3189768762188365</speed>
  <fix>3d</fix>
</trkpt>
<trkpt lat="-27.2744574" lon="151.2900514">
  <ele>358.09</ele>
  <time>2026-09-01T19:50:51Z</time>
  <course>197.36</course>
  <speed>0.92</speed>
  <fix>3d</fix>
</trkpt>
<trkpt lat="-27.2744603" lon="151.2900505">
  <ele>357.93</ele>
  <time>2026-09-01T19:50:51Z</time>
  <course>286.53</course>
  <speed>1.5337861650177969</speed>
  <fix>3d</fix>
</trkpt>
<trkpt lat="-27.2744574" lon="151.2900514">
  <ele>358.09</ele>
  <time>2026-09-01T19:50:51Z</time>
  <course>197.36</course>
  <speed>0.92</speed>
  <fix>3d</fix>
</trkpt>
<trkpt lat="-27.2744618" lon="151.29005">
  <ele>357.92</ele>
  <time>2026-09-01T19:50:51Z</time>
  <course>286.08</course>
  <speed>1.7456230979223437</speed>
  <fix>3d</fix>
</trkpt>
<trkpt lat="-27.2744594" lon="151.2900507">
  <ele>358.08</ele>
  <time>2026-09-01T19:50:51Z</time>
  <course>197.84</course>
  <speed>1.33</speed>
  <fix>3d</fix>
</trkpt>
<trkpt lat="-27.2744633" lon="151.2900494">
  <ele>357.91</ele>
  <time>2026-09-01T19:50:51Z</time>
  <course>285.53</course>
  <speed>1.925850461484484</speed>
  <fix>3d</fix>
</trkpt>
<trkpt lat="-27.2744594" lon="151.2900507">
  <ele>358.08</ele>
  <time>2026-09-01T19:50:51Z</time>
  <course>197.84</course>
  <speed>1.33</speed>
  <fix>3d</fix>
</trkpt>
<trkpt lat="-27.274465" lon="151.2900487">
  <ele>357.9</ele>
  <time>2026-09-01T19:50:51Z</time>
  <course>284.91</course>
  <speed>2.033346994489627</speed>
  <fix>3d</fix>
</trkpt>
<trkpt lat="-27.2744621" lon="151.2900497">
  <ele>358.07</ele>
  <time>2026-09-01T19:50:51Z</time>
  <course>198.3</course>
  <speed>1.74</speed>
  <fix>3d</fix>
</trkpt>
<trkpt lat="-27.2744668" lon="151.2900481">
  <ele>357.9</ele>
  <time>2026-09-01T19:50:51Z</time>
  <course>284.31</course>
  <speed>2.0681392603013946</speed>
  <fix>3d</fix>
</trkpt>
<trkpt lat="-27.2744621" lon="151.2900497">
  <ele>358.07</ele>
  <time>2026-09-01T19:50:51Z</time>
  <course>198.3</course>
  <speed>1.74</speed>
  <fix>3d</fix>
</trkpt>
<trkpt lat="-27.2744685" lon="151.2900474">
  <ele>357.89</ele>
  <time>2026-09-01T19:50:51Z</time>
  <course>283.78</course>
  <speed>2.058664615715731</speed>
  <fix>3d</fix>
</trkpt>
<trkpt lat="-27.2744652" lon="151.2900485">
  <ele>358.05</ele>
  <time>2026-09-01T19:50:51Z</time>
  <course>198.67</course>
  <speed>2.01</speed>
  <fix>3d</fix>
</trkpt>
<trkpt lat="-27.2744702" lon="151.2900467">
  <ele>357.9</ele>
  <time>2026-09-01T19:50:51Z</time>
  <course>283.39</course>
  <speed>2.0270421801235416</speed>
  <fix>3d</fix>
</trkpt>
<trkpt lat="-27.2744652" lon="151.2900485">
  <ele>358.05</ele>
  <time>2026-09-01T19:50:51Z</time>
  <course>198.67</course>
  <speed>2.01</speed>
  <fix>3d</fix>
</trkpt>
<trkpt lat="-27.2744719" lon="151.290046">
  <ele>357.9</ele>
  <time>2026-09-01T19:50:51Z</time>
  <course>283.13</course>
  <speed>1.97327139542436</speed>
  <fix>3d</fix>
</trkpt>
<trkpt lat="-27.2744688" lon="151.2900472">
  <ele>358.05</ele>
  <time>2026-09-01T19:50:51Z</time>
  <course>198.89</course>
  <speed>2.07</speed>
  <fix>3d</fix>
</trkpt>
<trkpt lat="-27.2744736" lon="151.2900454">
  <ele>357.91</ele>
  <time>2026-09-01T19:50:51Z</time>
  <course>283.03</course>
  <speed>1.9227064258487305</speed>
  <fix>3d</fix>
</trkpt>
<trkpt lat="-27.2744688" lon="151.2900472">
  <ele>358.05</ele>
  <time>2026-09-01T19:50:51Z</time>
  <course>198.89</course>
  <speed>2.07</speed>
  <fix>3d</fix>
</trkpt>
<trkpt lat="-27.2744752" lon="151.2900448">
  <ele>357.92</ele>
  <time>2026-09-01T19:50:51Z</time>
  <course>283.07</course>
  <speed>1.8689301752607026</speed>
  <fix>3d</fix>
</trkpt>
<trkpt lat="-27.2744723" lon="151.2900458">
  <ele>358.05</ele>
  <time>2026-09-01T19:50:51Z</time>
  <course>199.01</course>
  <speed>2.0</speed>
  <fix>3d</fix>
</trkpt>
<trkpt lat="-27.2744768" lon="151.2900442">
  <ele>357.93</ele>
  <time>2026-09-01T19:50:51Z</time>
  <course>283.23</course>
  <speed>1.805685465411958</speed>
  <fix>3d</fix>
</trkpt>
<trkpt lat="-27.2744723" lon="151.2900458">
  <ele>358.05</ele>
  <time>2026-09-01T19:50:51Z</time>
  <course>199.01</course>
  <speed>2.0</speed>
  <fix>3d</fix>
</trkpt>
<trkpt lat="-27.2744783" lon="151.2900435">
  <ele>357.94</ele>
  <time>2026-09-01T19:50:51Z</time>
  <course>283.48</course>
  <speed>1.755135322418189</speed>
  <fix>3d</fix>
</trkpt>
<trkpt lat="-27.2744756" lon="151.2900445">
  <ele>358.07</ele>
  <time>2026-09-01T19:50:51Z</time>
  <course>199.17</course>
  <speed>1.9</speed>
  <fix>3d</fix>
</trkpt>
<trkpt lat="-27.2744798" lon="151.290043">
  <ele>357.96</ele>
  <time>2026-09-01T19:50:51Z</time>
  <course>283.81</course>
  <speed>1.691892431568863</speed>
  <fix>3d</fix>
</trkpt>
<trkpt lat="-27.2744756" lon="151.2900445">
  <ele>358.07</ele>
  <time>2026-09-01T19:50:51Z</time>
  <course>199.17</course>
  <speed>1.9</speed>
  <fix>3d</fix>
</trkpt>
<trkpt lat="-27.2744813" lon="151.2900424">
  <ele>357.97</ele>
  <time>2026-09-01T19:50:51Z</time>
  <course>284.2</course>
  <speed>1.6381086655042152</speed>
  <fix>3d</fix>
</trkpt>
<trkpt lat="-27.2744787" lon="151.2900432">
  <ele>358.09</ele>
  <time>2026-09-01T19:50:51Z</time>
  <course>199.33</course>
  <speed>1.79</speed>
  <fix>3d</fix>
</trkpt>
<trkpt lat="-27.2744827" lon="151.2900418">
  <ele>357.97</ele>
  <time>2026-09-01T19:50:51Z</time>
  <course>284.57</course>
  <speed>1.5748650735856708</speed>
  <fix>3d</fix>
</trkpt>
<trkpt lat="-27.2744787" lon="151.2900432">
  <ele>358.09</ele>
  <time>2026-09-01T19:50:51Z</time>
  <course>199.33</course>
  <speed>1.79</speed>
  <fix>3d</fix>
</trkpt>
<trkpt lat="-27.274484" lon="151.2900413">
  <ele>357.98</ele>
  <time>2026-09-01T19:50:51Z</time>
  <course>284.79</course>
  <speed>1.5210851389715174</speed>
  <fix>3d</fix>
</trkpt>
<trkpt lat="-27.2744817" lon="151.2900421">
  <ele>358.11</ele>
  <time>2026-09-01T19:50:51Z</time>
  <course>199.39</course>
  <speed>1.67</speed>
  <fix>3d</fix>
</trkpt>
<trkpt lat="-27.2744853" lon="151.2900408">
  <ele>357.99</ele>
  <time>2026-09-01T19:50:51Z</time>
  <course>284.58</course>
  <speed>1.4578408692309321</speed>
  <fix>3d</fix>
</trkpt>
<trkpt lat="-27.2744817" lon="151.2900421">
  <ele>358.11</ele>
  <time>2026-09-01T19:50:51Z</time>
  <course>199.39</course>
  <speed>1.67</speed>
  <fix>3d</fix>
</trkpt>
<trkpt lat="-27.2744865" lon="151.2900403">
  <ele>357.99</ele>
  <time>2026-09-01T19:50:51Z</time>
  <course>283.6</course>
  <speed>1.4040655255364687</speed>
  <fix>3d</fix>
</trkpt>
<trkpt lat="-27.2744844" lon="151.2900411">
  <ele>358.12</ele>
  <time>2026-09-01T19:50:51Z</time>
  <course>199.41</course>
  <speed>1.55</speed>
  <fix>3d</fix>
</trkpt>
<trkpt lat="-27.2744877" lon="151.2900399">
  <ele>358.0</ele>
  <time>2026-09-01T19:50:51Z</time>
  <course>281.55</course>
  <speed>1.3440610105199837</speed>
  <fix>3d</fix>
</trkpt>
<trkpt lat="-27.2744844" lon="151.2900411">
  <ele>358.12</ele>
  <time>2026-09-01T19:50:51Z</time>
  <course>199.41</course>
  <speed>1.55</speed>
  <fix>3d</fix>
</trkpt>
<trkpt lat="-27.2744888" lon="151.2900394">
  <ele>358.0</ele>
  <time>2026-09-01T19:50:51Z</time>
  <course>278.3</course>
  <speed>1.293560976529518</speed>
  <fix>3d</fix>
</trkpt>
<trkpt lat="-27.2744869" lon="151.2900401">
  <ele>358.13</ele>
  <time>2026-09-01T19:50:51Z</time>
  <course>199.68</course>
  <speed>1.44</speed>
  <fix>3d</fix>
</trkpt>
<trkpt lat="-27.2744899" lon="151.2900389">
  <ele>358.0</ele>
  <time>2026-09-01T19:50:51Z</time>
  <course>273.87</course>
  <speed>1.2371337841963577</speed>
  <fix>3d</fix>
</trkpt>
<trkpt lat="-27.2744869" lon="151.2900401">
  <ele>358.13</ele>
  <time>2026-09-01T19:50:51Z</time>
  <course>199.68</course>
  <speed>1.44</speed>
  <fix>3d</fix>
</trkpt>
<trkpt lat="-27.274491" lon="151.2900385">
  <ele>358.0</ele>
  <time>2026-09-01T19:50:51Z</time>
  <course>268.43</course>
  <speed>1.181058846967415</speed>
  <fix>3d</fix>
</trkpt>
<trkpt lat="-27.2744893" lon="151.2900391">
  <ele>358.14</ele>
  <time>2026-09-01T19:50:51Z</time>
  <course>200.59</course>
  <speed>1.32</speed>
  <fix>3d</fix>
</trkpt>
<trkpt lat="-27.274492" lon="151.290038">
  <ele>357.99</ele>
  <time>2026-09-01T19:50:51Z</time>
  <course>262.21</course>
  <speed>1.1346365056704284</speed>
  <fix>3d</fix>
</trkpt>
<trkpt lat="-27.2744893" lon="151.2900391">
  <ele>358.14</ele>
  <time>2026-09-01T19:50:51Z</time>
  <course>200.59</course>
  <speed>1.32</speed>
  <fix>3d</fix>
</trkpt>
<trkpt lat="-27.2744929" lon="151.2900375">
  <ele>357.99</ele>
  <time>2026-09-01T19:50:51Z</time>
  <course>255.46</course>
  <speed>1.092520022699813</speed>
  <fix>3d</fix>
</trkpt>
<trkpt lat="-27.2744914" lon="151.2900381">
  <ele>358.15</ele>
  <time>2026-09-01T19:50:51Z</time>
  <course>202.41</course>
  <speed>1.22</speed>
  <fix>3d</fix>
</trkpt>
<trkpt lat="-27.2744938" lon="151.2900371">
  <ele>357.99</ele>
  <time>2026-09-01T19:50:51Z</time>
  <course>248.38</course>
  <speed>1.0511898020814319</speed>
  <fix>3d</fix>
</trkpt>
<trkpt lat="-27.2744914" lon="151.2900381">
  <ele>358.15</ele>
  <time>2026-09-01T19:50:51Z</time>
  <course>202.41</course>
  <speed>1.22</speed>
  <fix>3d</fix>
</trkpt>
<trkpt lat="-27.2744947" lon="151.2900366">
  <ele>357.98</ele>
  <time>2026-09-01T19:50:51Z</time>
  <course>241.15</course>
  <speed>0.9972963451251589</speed>
  <fix>3d</fix>
</trkpt>
<trkpt lat="-27.2744933" lon="151.2900372">
  <ele>358.14</ele>
  <time>2026-09-01T19:50:51Z</time>
  <course>205.11</course>
  <speed>1.12</speed>
  <fix>3d</fix>
</trkpt>
<trkpt lat="-27.2744955" lon="151.2900361">
  <ele>357.97</ele>
  <time>2026-09-01T19:50:51Z</time>
  <course>233.88</course>
  <speed>0.9577055915050303</speed>
  <fix>3d</fix>
</trkpt>
<trkpt lat="-27.2744933" lon="151.2900372">
  <ele>358.14</ele>
  <time>2026-09-01T19:50:51Z</time>
  <course>205.11</course>
  <speed>1.12</speed>
  <fix>3d</fix>
</trkpt>
<trkpt lat="-27.2744962" lon="151.2900356">
  <ele>357.97</ele>
  <time>2026-09-01T19:50:51Z</time>
  <course>226.73</course>
  <speed>0.914166286842826</speed>
  <fix>3d</fix>
</trkpt>
<trkpt lat="-27.274495" lon="151.2900362">
  <ele>358.13</ele>
  <time>2026-09-01T19:50:51Z</time>
  <course>208.49</course>
  <speed>1.03</speed>
  <fix>3d</fix>
</trkpt>
<trkpt lat="-27.2744969" lon="151.2900351">
  <ele>357.96</ele>
  <time>2026-09-01T19:50:51Z</time>
  <course>219.73</course>
  <speed>0.8766413177577246</speed>
  <fix>3d</fix>
</trkpt>
<trkpt lat="-27.274495" lon="151.2900362">
  <ele>358.13</ele>
  <time>2026-09-01T19:50:51Z</time>
  <course>208.49</course>
  <speed>1.03</speed>
  <fix>3d</fix>
</trkpt>
<trkpt lat="-27.2744976" lon="151.2900346">
  <ele>357.95</ele>
  <time>2026-09-01T19:50:51Z</time>
  <course>213.13</course>
  <speed>0.8348652585896721</speed>
  <fix>3d</fix>
</trkpt>
<trkpt lat="-27.2744966" lon="151.2900352">
  <ele>358.12</ele>
  <time>2026-09-01T19:50:51Z</time>
  <course>212.36</course>
  <speed>0.95</speed>
  <fix>3d</fix>
</trkpt>
<trkpt lat="-27.2744982" lon="151.2900341">
  <ele>357.95</ele>
  <time>2026-09-01T19:50:51Z</time>
  <course>207.27</course>
  <speed>0.7881624198095213</speed>
  <fix>3d</fix>
</trkpt>
<trkpt lat="-27.2744966" lon="151.2900352">
  <ele>358.12</ele>
  <time>2026-09-01T19:50:51Z</time>
  <course>212.36</course>
  <speed>0.95</speed>
  <fix>3d</fix>
</trkpt>
<trkpt lat="-27.2744988" lon="151.2900336">
  <ele>357.94</ele>
  <time>2026-09-01T19:50:51Z</time>
  <course>202.39</course>
  <speed>0.7402702209328699</speed>
  <fix>3d</fix>
</trkpt>
<trkpt lat="-27.2744979" lon="151.2900341">
  <ele>358.1</ele>
  <time>2026-09-01T19:50:51Z</time>
  <course>216.56</course>
  <speed>0.86</speed>
  <fix>3d</fix>
</trkpt>
<trkpt lat="-27.2744993" lon="151.2900331">
  <ele>357.94</ele>
  <time>2026-09-01T19:50:51Z</time>
  <course>198.8</course>
  <speed>0.6952697318307479</speed>
  <fix>3d</fix>
</trkpt>
<trkpt lat="-27.2744979" lon="151.2900341">
  <ele>358.1</ele>
  <time>2026-09-01T19:50:51Z</time>
  <course>216.56</course>
  <speed>0.86</speed>
  <fix>3d</fix>
</trkpt>
<trkpt lat="-27.2744998" lon="151.2900326">
  <ele>357.94</ele>
  <time>2026-09-01T19:50:52Z</time>
  <course>196.53</course>
  <speed>0.644437739428721</speed>
  <fix>3d</fix>
</trkpt>
<trkpt lat="-27.2744991" lon="151.2900331">
  <ele>358.1</ele>
  <time>2026-09-01T19:50:52Z</time>
  <course>220.94</course>
  <speed>0.78</speed>
  <fix>3d</fix>
</trkpt>
<trkpt lat="-27.2745002" lon="151.2900321">
  <ele>357.94</ele>
  <time>2026-09-01T19:50:52Z</time>
  <course>195.55</course>
  <speed>0.58</speed>
  <fix>3d</fix>
</trkpt>
<trkpt lat="-27.2744991" lon="151.2900331">
  <ele>358.1</ele>
  <time>2026-09-01T19:50:52Z</time>
  <course>220.94</course>
  <speed>0.78</speed>
  <fix>3d</fix>
</trkpt>
<trkpt lat="-27.2745006" lon="151.2900317">
  <ele>357.94</ele>
  <time>2026-09-01T19:50:52Z</time>
  <course>195.71</course>
  <speed>0.5303772242470448</speed>
  <fix>3d</fix>
</trkpt>
<trkpt lat="-27.2745001" lon="151.2900321">
  <ele>358.09</ele>
  <time>2026-09-01T19:50:52Z</time>
  <course>225.38</course>
  <speed>0.68</speed>
  <fix>3d</fix>
</trkpt>
<trkpt lat="-27.2745009" lon="151.2900312">
  <ele>357.94</ele>
  <time>2026-09-01T19:50:52Z</time>
  <course>196.72</course>
  <speed>0.474236228055175</speed>
  <fix>3d</fix>
</trkpt>
<trkpt lat="-27.2745001" lon="151.2900321">
  <ele>358.09</ele>
  <time>2026-09-01T19:50:52Z</time>
  <course>225.38</course>
  <speed>0.68</speed>
  <fix>3d</fix>
</trkpt>
<trkpt lat="-27.2745012" lon="151.2900308">
  <ele>357.94</ele>
  <time>2026-09-01T19:50:52Z</time>
  <course>198.3</course>
  <speed>0.4186884283091664</speed>
  <fix>3d</fix>
</trkpt>
<trkpt lat="-27.2745008" lon="151.2900311">
  <ele>358.09</ele>
  <time>2026-09-01T19:50:52Z</time>
  <course>229.98</course>
  <speed>0.58</speed>
  <fix>3d</fix>
</trkpt>
<trkpt lat="-27.2745014" lon="151.2900305">
  <ele>357.94</ele>
  <time>2026-09-01T19:50:52Z</time>
  <course>200.21</course>
  <speed>0.3640054944640259</speed>
  <fix>3d</fix>
</trkpt>
<trkpt lat="-27.2745008" lon="151.2900311">
  <ele>358.09</ele>
  <time>2026-09-01T19:50:52Z</time>
  <course>229.98</course>
  <speed>0.58</speed>
  <fix>3d</fix>
</trkpt>
<trkpt lat="-27.2745016" lon="151.2900301">
  <ele>357.94</ele>
  <time>2026-09-01T19:50:52Z</time>
  <course>202.23</course>
  <speed>0.31064449134018135</speed>
  <fix>3d</fix>
</trkpt>
<trkpt lat="-27.2745014" lon="151.2900302">
  <ele>358.09</ele>
  <time>2026-09-01T19:50:52Z</time>
  <course>235.48</course>
  <speed>0.47</speed>
  <fix>3d</fix>
</trkpt>
<trkpt lat="-27.2745018" lon="151.2900298">
  <ele>357.94</ele>
  <time>2026-09-01T19:50:52Z</time>
  <course>204.16</course>
  <speed>0.25942243542145693</speed>
  <fix>3d</fix>
</trkpt>
<trkpt lat="-27.2745014" lon="151.2900302">
  <ele>358.09</ele>
  <time>2026-09-01T19:50:52Z</time>
  <course>235.48</course>
  <speed>0.47</speed>
  <fix>3d</fix>
</trkpt>
<trkpt lat="-27.2745019" lon="151.2900295">
  <ele>357.94</ele>
  <time>2026-09-01T19:50:52Z</time>
  <course>205.77</course>
  <speed>0.208806130178211</speed>
  <fix>3d</fix>
</trkpt>
<trkpt lat="-27.2745018" lon="151.2900295">
  <ele>358.1</ele>
  <time>2026-09-01T19:50:52Z</time>
  <course>243.71</course>
  <speed>0.37</speed>
  <fix>3d</fix>
</trkpt>
<trkpt lat="-27.2745019" lon="151.2900293">
  <ele>357.94</ele>
  <time>2026-09-01T19:50:52Z</time>
  <course>206.94</course>
  <speed>0.17029386365926402</speed>
  <fix>3d</fix>
</trkpt>
<trkpt lat="-27.2745018" lon="151.2900295">
  <ele>358.1</ele>
  <time>2026-09-01T19:50:52Z</time>
  <course>243.71</course>
  <speed>0.37</speed>
  <fix>3d</fix>
</trkpt>
<trkpt lat="-27.2745019" lon="151.2900291">
  <ele>357.94</ele>
  <time>2026-09-01T19:50:52Z</time>
  <course>207.62</course>
  <speed>0.14560219778561037</speed>
  <fix>3d</fix>
</trkpt>
<trkpt lat="-27.274502" lon="151.290029">
  <ele>358.1</ele>
  <time>2026-09-01T19:50:52Z</time>
  <course>258.23</course>
  <speed>0.28</speed>
  <fix>3d</fix>
</trkpt>
<trkpt lat="-27.2745018" lon="151.2900289">
  <ele>357.94</ele>
  <time>2026-09-01T19:50:52Z</time>
  <course>207.83</course>
  <speed>0.15</speed>
  <fix>3d</fix>
</trkpt>
<trkpt lat="-27.274502" lon="151.290029">
  <ele>358.1</ele>
  <time>2026-09-01T19:50:52Z</time>
  <course>258.23</course>
  <speed>0.28</speed>
  <fix>3d</fix>
</trkpt>
<trkpt lat="-27.2745017" lon="151.2900287">
  <ele>357.94</ele>
  <time>2026-09-01T19:50:52Z</time>
  <course>207.67</course>
  <speed>0.17204650534085253</speed>
  <fix>3d</fix>
</trkpt>
<trkpt lat="-27.274502" lon="151.2900285">
  <ele>358.1</ele>
  <time>2026-09-01T19:50:52Z</time>
  <course>283.54</course>
  <speed>0.22</speed>
  <fix>3d</fix>
</trkpt>
<trkpt lat="-27.2745016" lon="151.2900286">
  <ele>357.94</ele>
  <time>2026-09-01T19:50:52Z</time>
  <course>207.27</course>
  <speed>0.21540659228538014</speed>
  <fix>3d</fix>
</trkpt>
<trkpt lat="-27.274502" lon="151.2900285">
  <ele>358.1</ele>
  <time>2026-09-01T19:50:52Z</time>
  <course>283.54</course>
  <speed>0.22</speed>
  <fix>3d</fix>
</trkpt>
<trkpt lat="-27.2745015" lon="151.2900284">
  <ele>357.94</ele>
  <time>2026-09-01T19:50:52Z</time>
  <course>206.73</course>
  <speed>0.3087069808086626</speed>
  <fix>3d</fix>
</trkpt>
<trkpt lat="-27.2745018" lon="151.290028">
  <ele>358.11</ele>
  <time>2026-09-01T19:50:52Z</time>
  <course>313.21</course>
  <speed>0.23</speed>
  <fix>3d</fix>
</trkpt>
<trkpt lat="-27.2745012" lon="151.2900281">
  <ele>357.94</ele>
  <time>2026-09-01T19:50:52Z</time>
  <course>206.17</course>
  <speed>0.45486261662176636</speed>
  <fix>3d</fix>
</trkpt>
<trkpt lat="-27.2745018" lon="151.290028">
  <ele>358.11</ele>
  <time>2026-09-01T19:50:52Z</time>
  <course>313.21</course>
  <speed>0.23</speed>
  <fix>3d</fix>
</trkpt>
<trkpt lat="-27.2745008" lon="151.2900277">
  <ele>357.94</ele>
  <time>2026-09-01T19:50:52Z</time>
  <course>205.71</course>
  <speed>0.6389053137985315</speed>
  <fix>3d</fix>
</trkpt>
<trkpt lat="-27.2745015" lon="151.2900277">
  <ele>358.11</ele>
  <time>2026-09-01T19:50:52Z</time>
  <course>323.07</course>
  <speed>0.38</speed>
  <fix>3d</fix>
</trkpt>
<trkpt lat="-27.2745003" lon="151.2900272">
  <ele>357.94</ele>
  <time>2026-09-01T19:50:52Z</time>
  <course>205.42</course>
  <speed>0.841486779456457</speed>
  <fix>3d</fix>
</trkpt>
<trkpt lat="-27.2745015" lon="151.2900277">
  <ele>358.11</ele>
  <time>2026-09-01T19:50:52Z</time>
  <course>323.07</course>
  <speed>0.38</speed>
  <fix>3d</fix>
</trkpt>
<trkpt lat="-27.2744997" lon="151.2900264">
  <ele>357.94</ele>
  <time>2026-09-01T19:50:52Z</time>
  <course>205.36</course>
  <speed>1.0489041900955491</speed>
  <fix>3d</fix>
</trkpt>
<trkpt lat="-27.2745008" lon="151.2900269">
  <ele>358.11</ele>
  <time>2026-09-01T19:50:52Z</time>
  <course>316.67</course>
  <speed>0.69</speed>
  <fix>3d</fix>
</trkpt>
<trkpt lat="-27.2744991" lon="151.2900254">
  <ele>357.94</ele>
  <time>2026-09-01T19:50:52Z</time>
  <course>205.55</course>
  <speed>1.2621014222319853</speed>
  <fix>3d</fix>
</trkpt>
<trkpt lat="-27.2745008" lon="151.2900269">
  <ele>358.11</ele>
  <time>2026-09-01T19:50:52Z</time>
  <course>316.67</course>
  <speed>0.69</speed>
  <fix>3d</fix>
</trkpt>
<trkpt lat="-27.2744984" lon="151.2900242">
  <ele>357.93</ele>
  <time>2026-09-01T19:50:52Z</time>
  <course>205.97</course>
  <speed>1.481215716902842</speed>
  <fix>3d</fix>
</trkpt>
<trkpt lat="-27.2744997" lon="151.2900256">
  <ele>358.1</ele>
  <time>2026-09-01T19:50:52Z</time>
  <course>309.49</course>
  <speed>1.1</speed>
  <fix>3d</fix>
</trkpt>
<trkpt lat="-27.2744976" lon="151.2900228">
  <ele>357.92</ele>
  <time>2026-09-01T19:50:52Z</time>
  <course>206.58</course>
  <speed>1.689644933114647</speed>
  <fix>3d</fix>
</trkpt>
<trkpt lat="-27.2744997" lon="151.2900256">
  <ele>358.1</ele>
  <time>2026-09-01T19:50:52Z</time>
  <course>309.49</course>
  <speed>1.1</speed>
  <fix>3d</fix>
</trkpt>
<trkpt lat="-27.2744967" lon="151.2900212">
  <ele>357.9</ele>
  <time>2026-09-01T19:50:52Z</time>
  <course>207.45</course>
  <speed>1.8866372200293304</speed>
  <fix>3d</fix>
</trkpt>
<trkpt lat="-27.2744983" lon="151.2900235">
  <ele>358.09</ele>
  <time>2026-09-01T19:50:52Z</time>
  <course>303.93</course>
  <speed>1.53</speed>
  <fix>3d</fix>
</trkpt>
<trkpt lat="-27.2744959" lon="151.2900195">
  <ele>357.88</ele>
  <time>2026-09-01T19:50:52Z</time>
  <course>208.62</course>
  <speed>2.005716829465216</speed>
  <fix>3d</fix>
</trkpt>
<trkpt lat="-27.2744983" lon="151.2900235">
  <ele>358.09</ele>
  <time>2026-09-01T19:50:52Z</time>
  <course>303.93</course>
  <speed>1.53</speed>
  <fix>3d</fix>
</trkpt>
<trkpt lat="-27.274495" lon="151.2900176">
  <ele>357.86</ele>
  <time>2026-09-01T19:50:52Z</time>
  <course>210.25</course>
  <speed>2.0565261972559457</speed>
  <fix>3d</fix>
</trkpt>
<trkpt lat="-27.2744966" lon="151.2900205">
  <ele>358.07</ele>
  <time>2026-09-01T19:50:52Z</time>
  <course>300.34</course>
  <speed>1.91</speed>
  <fix>3d</fix>
</trkpt>
<trkpt lat="-27.274494" lon="151.2900158">
  <ele>357.85</ele>
  <time>2026-09-01T19:50:52Z</time>
  <course>212.38</course>
  <speed>2.0649455198624493</speed>
  <fix>3d</fix>
</trkpt>
<trkpt lat="-27.2744966" lon="151.2900205">
  <ele>358.07</ele>
  <time>2026-09-01T19:50:52Z</time>
  <course>300.34</course>
  <speed>1.91</speed>
  <fix>3d</fix>
</trkpt>
<trkpt lat="-27.274493" lon="151.290014">
  <ele>357.85</ele>
  <time>2026-09-01T19:50:52Z</time>
  <course>214.85</course>
  <speed>2.0441379601191305</speed>
  <fix>3d</fix>
</trkpt>
<trkpt lat="-27.2744948" lon="151.290017">
  <ele>358.04</ele>
  <time>2026-09-01T19:50:52Z</time>
  <course>300.2</course>
  <speed>2.1</speed>
  <fix>3d</fix>
</trkpt>
<trkpt lat="-27.274492" lon="151.2900122">
  <ele>357.86</ele>
  <time>2026-09-01T19:50:52Z</time>
  <course>217.5</course>
  <speed>2.019430612821347</speed>
  <fix>3d</fix>
</trkpt>
<trkpt lat="-27.2744948" lon="151.290017">
  <ele>358.04</ele>
  <time>2026-09-01T19:50:52Z</time>
  <course>300.2</course>
  <speed>2.1</speed>
  <fix>3d</fix>
</trkpt>
<trkpt lat="-27.2744909" lon="151.2900105">
  <ele>357.86</ele>
  <time>2026-09-01T19:50:52Z</time>
  <course>220.06</course>
  <speed>1.9880643852752857</speed>
  <fix>3d</fix>
</trkpt>
<trkpt lat="-27.2744928" lon="151.2900133">
  <ele>358.03</ele>
  <time>2026-09-01T19:50:52Z</time>
  <course>302.8</course>
  <speed>2.11</speed>
  <fix>3d</fix>
</trkpt>
<trkpt lat="-27.2744899" lon="151.2900089">
  <ele>357.88</ele>
  <time>2026-09-01T19:50:52Z</time>
  <course>222.42</course>
  <speed>1.9523319389898839</speed>
  <fix>3d</fix>
</trkpt>
<trkpt lat="-27.2744928" lon="151.2900133">
  <ele>358.03</ele>
  <time>2026-09-01T19:50:52Z</time>
  <course>302.8</course>
  <speed>2.11</speed>
  <fix>3d</fix>
</trkpt>
<trkpt lat="-27.2744888" lon="151.2900073">
  <ele>357.89</ele>
  <time>2026-09-01T19:50:52Z</time>
  <course>224.49</course>
  <speed>1.911674658512792</speed>
  <fix>3d</fix>
</trkpt>
<trkpt lat="-27.2744907" lon="151.2900098">
  <ele>358.03</ele>
  <time>2026-09-01T19:50:52Z</time>
  <course>305.83</course>
  <speed>2.05</speed>
  <fix>3d</fix>
</trkpt>
<trkpt lat="-27.2744877" lon="151.2900058">
  <ele>357.91</ele>
  <time>2026-09-01T19:50:52Z</time>
  <course>226.27</course>
  <speed>1.878643127366132</speed>
  <fix>3d</fix>
</trkpt>
<trkpt lat="-27.2744907" lon="151.2900098">
  <ele>358.03</ele>
  <time>2026-09-01T19:50:52Z</time>
  <course>305.83</course>
  <speed>2.05</speed>
  <fix>3d</fix>
</trkpt>
<trkpt lat="-27.2744865" lon="151.2900043">
  <ele>357.93</ele>
  <time>2026-09-01T19:50:52Z</time>
  <course>227.79</course>
  <speed>1.847187050625897</speed>
  <fix>3d</fix>
</trkpt>
<trkpt lat="-27.2744884" lon="151.2900065">
  <ele>358.07</ele>
  <time>2026-09-01T19:50:52Z</time>
  <course>308.85</course>
  <speed>1.98</speed>
  <fix>3d</fix>
</trkpt>
<trkpt lat="-27.2744854" lon="151.2900029">
  <ele>357.95</ele>
  <time>2026-09-01T19:50:52Z</time>
  <course>229.11</course>
  <speed>1.81738823590338</speed>
  <fix>3d</fix>
</trkpt>
<trkpt lat="-27.2744884" lon="151.2900065">
  <ele>358.07</ele>
  <time>2026-09-01T19:50:52Z</time>
  <course>308.85</course>
  <speed>1.98</speed>
  <fix>3d</fix>
</trkpt>
<trkpt lat="-27.2744842" lon="151.2900015">
  <ele>357.96</ele>
  <time>2026-09-01T19:50:52Z</time>
  <course>230.29</course>
  <speed>1.7891059219621404</speed>
  <fix>3d</fix>
</trkpt>
<trkpt lat="-27.2744862" lon="151.2900035">
  <ele>358.1</ele>
  <time>2026-09-01T19:50:52Z</time>
  <course>311.94</course>
  <speed>1.91</speed>
  <fix>3d</fix>
</trkpt>
<trkpt lat="-27.274483" lon="151.2900002">
  <ele>357.97</ele>
  <time>2026-09-01T19:50:52Z</time>
  <course>231.37</course>
  <speed>1.7624131184259835</speed>
  <fix>3d</fix>
</trkpt>
<trkpt lat="-27.2744862" lon="151.2900035">
  <ele>358.1</ele>
  <time>2026-09-01T19:50:52Z</time>
  <course>311.94</course>
  <speed>1.91</speed>
  <fix>3d</fix>
</trkpt>
<trkpt lat="-27.2744818" lon="151.289999">
  <ele>357.99</ele>
  <time>2026-09-01T19:50:52Z</time>
  <course>232.41</course>
  <speed>1.7300289014926888</speed>
  <fix>3d</fix>
</trkpt>
<trkpt lat="-27.2744839" lon="151.2900008">
  <ele>358.13</ele>
  <time>2026-09-01T19:50:52Z</time>
  <course>315.16</course>
  <speed>1.84</speed>
  <fix>3d</fix>
</trkpt>
<trkpt lat="-27.2744806" lon="151.2899978">
  <ele>358.0</ele>
  <time>2026-09-01T19:50:52Z</time>
  <course>233.43</course>
  <speed>1.6992056967889437</speed>
  <fix>3d</fix>
</trkpt>
<trkpt lat="-27.2744839" lon="151.2900008">
  <ele>358.13</ele>
  <time>2026-09-01T19:50:52Z</time>
  <course>315.16</course>
  <speed>1.84</speed>
  <fix>3d</fix>
</trkpt>
<trkpt lat="-27.2744794" lon="151.2899967">
  <ele>358.0</ele>
  <time>2026-09-01T19:50:52Z</time>
  <course>234.45</course>
  <speed>1.6840427548016705</speed>
  <fix>3d</fix>
</trkpt>
<trkpt lat="-27.2744816" lon="151.2899983">
  <ele>358.16</ele>
  <time>2026-09-01T19:50:52Z</time>
  <course>318.54</course>
  <speed>1.78</speed>
  <fix>3d</fix>
</trkpt>
<trkpt lat="-27.2744782" lon="151.2899957">
  <ele>358.0</ele>
  <time>2026-09-01T19:50:52Z</time>
  <course>235.47</course>
  <speed>1.656532523073423</speed>
  <fix>3d</fix>
</trkpt>
<trkpt lat="-27.2744816" lon="151.2899983">
  <ele>358.16</ele>
  <time>2026-09-01T19:50:52Z</time>
  <course>318.54</course>
  <speed>1.78</speed>
  <fix>3d</fix>
</trkpt>
<trkpt lat="-27.274477" lon="151.2899946">
  <ele>358.01</ele>
  <time>2026-09-01T19:50:52Z</time>
  <course>236.58</course>
  <speed>1.6337074401495513</speed>
  <fix>3d</fix>
</trkpt>
<trkpt lat="-27.2744791" lon="151.2899961">
  <ele>358.17</ele>
  <time>2026-09-01T19:50:52Z</time>
  <course>322.17</course>
  <speed>1.72</speed>
  <fix>3d</fix>
</trkpt>
<trkpt lat="-27.2744757" lon="151.2899937">
  <ele>358.01</ele>
  <time>2026-09-01T19:50:52Z</time>
  <course>237.71</course>
  <speed>1.6090991268408543</speed>
  <fix>3d</fix>
</trkpt>
<trkpt lat="-27.2744791" lon="151.2899961">
  <ele>358.17</ele>
  <time>2026-09-01T19:50:52Z</time>
  <course>322.17</course>
  <speed>1.72</speed>
  <fix>3d</fix>
</trkpt>
<trkpt lat="-27.2744745" lon="151.2899928">
  <ele>358.01</ele>
  <time>2026-09-01T19:50:52Z</time>
  <course>238.87</course>
  <speed>1.5880806024884253</speed>
  <fix>3d</fix>
</trkpt>
<trkpt lat="-27.2744766" lon="151.289994">
  <ele>358.17</ele>
  <time>2026-09-01T19:50:52Z</time>
  <course>325.82</course>
  <speed>1.66</speed>
  <fix>3d</fix>
</trkpt>
<trkpt lat="-27.2744732" lon="151.2899919">
  <ele>358.02</ele>
  <time>2026-09-01T19:50:52Z</time>
  <course>240.08</course>
  <speed>1.5591343752223539</speed>
  <fix>3d</fix>
</trkpt>
<trkpt lat="-27.2744766" lon="151.289994">
  <ele>358.17</ele>
  <time>2026-09-01T19:50:52Z</time>
  <course>325.82</course>
  <speed>1.66</speed>
  <fix>3d</fix>
</trkpt>
<trkpt lat="-27.274472" lon="151.2899911">
  <ele>358.02</ele>
  <time>2026-09-01T19:50:52Z</time>
  <course>241.25</course>
  <speed>1.5395129099815954</speed>
  <fix>3d</fix>
</trkpt>
<trkpt lat="-27.2744741" lon="151.2899922">
  <ele>358.18</ele>
  <time>2026-09-01T19:50:52Z</time>
  <course>328.73</course>
  <speed>1.61</speed>
  <fix>3d</fix>
</trkpt>
<trkpt lat="-27.2744708" lon="151.2899904">
  <ele>358.02</ele>
  <time>2026-09-01T19:50:52Z</time>
  <course>242.41</course>
  <speed>1.520690632574555</speed>
  <fix>3d</fix>
</trkpt>
<trkpt lat="-27.2744741" lon="151.2899922">
  <ele>358.18</ele>
  <time>2026-09-01T19:50:52Z</time>
  <course>328.73</course>
  <speed>1.61</speed>
  <fix>3d</fix>
</trkpt>
<trkpt lat="-27.2744695" lon="151.2899896">
  <ele>358.02</ele>
  <time>2026-09-01T19:50:52Z</time>
  <course>243.55</course>
  <speed>1.4937201879870272</speed>
  <fix>3d</fix>
</trkpt>
<trkpt lat="-27.2744717" lon="151.2899906">
  <ele>358.18</ele>
  <time>2026-09-01T19:50:52Z</time>
  <course>331.05</course>
  <speed>1.56</speed>
  <fix>3d</fix>
</trkpt>
<trkpt lat="-27.2744683" lon="151.2899889">
  <ele>358.03</ele>
  <time>2026-09-01T19:50:52Z</time>
  <course>244.66</course>
  <speed>1.4716657229140047</speed>
  <fix>3d</fix>
</trkpt>
<trkpt lat="-27.2744717" lon="151.2899906">
  <ele>358.18</ele>
  <time>2026-09-01T19:50:52Z</time>
  <course>331.05</course>
  <speed>1.56</speed>
  <fix>3d</fix>
</trkpt>
<trkpt lat="-27.2744671" lon="151.2899883">
  <ele>358.03</ele>
  <time>2026-09-01T19:50:52Z</time>
  <course>245.75</course>
  <speed>1.4590750494748377</speed>
  <fix>3d</fix>
</trkpt>
<trkpt lat="-27.2744693" lon="151.2899891">
  <ele>358.18</ele>
  <time>2026-09-01T19:50:52Z</time>
  <course>333.35</course>
  <speed>1.51</speed>
  <fix>3d</fix>
</trkpt>
<trkpt lat="-27.2744659" lon="151.2899876">
  <ele>358.03</ele>
  <time>2026-09-01T19:50:52Z</time>
  <course>246.8</course>
  <speed>1.437810835958611</speed>
  <fix>3d</fix>
</trkpt>
<trkpt lat="-27.2744693" lon="151.2899891">
  <ele>358.18</ele>
  <time>2026-09-01T19:50:52Z</time>
  <course>333.35</course>
  <speed>1.51</speed>
  <fix>3d</fix>
</trkpt>
<trkpt lat="-27.2744647" lon="151.289987">
  <ele>358.03</ele>
  <time>2026-09-01T19:50:52Z</time>
  <course>247.81</course>
  <speed>1.4169333082400175</speed>
  <fix>3d</fix>
</trkpt>
<trkpt lat="-27.2744669" lon="151.2899879">
  <ele>358.18</ele>
  <time>2026-09-01T19:50:52Z</time>
  <course>335.54</course>
  <speed>1.46</speed>
  <fix>3d</fix>
</trkpt>
<trkpt lat="-27.2744635" lon="151.2899865">
  <ele>358.03</ele>
  <time>2026-09-01T19:50:52Z</time>
  <course>248.81</course>
  <speed>1.3964598096615597</speed>
  <fix>3d</fix>
</trkpt>
<trkpt lat="-27.2744669" lon="151.2899879">
  <ele>358.18</ele>
  <time>2026-09-01T19:50:52Z</time>
  <course>335.54</course>
  <speed>1.46</speed>
  <fix>3d</fix>
</trkpt>
<trkpt lat="-27.2744624" lon="151.289986">
  <ele>358.03</ele>
  <time>2026-09-01T19:50:52Z</time>
  <course>249.65</course>
  <speed>1.315750736271882</speed>
  <fix>3d</fix>
</trkpt>
<trkpt lat="-27.2744645" lon="151.2899867">
  <ele>358.18</ele>
  <time>2026-09-01T19:50:52Z</time>
  <course>337.67</course>
  <speed>1.42</speed>
  <fix>3d</fix>
</trkpt>
<trkpt lat="-27.2744613" lon="151.2899855">
  <ele>358.03</ele>
  <time>2026-09-01T19:50:52Z</time>
  <course>250.16</course>
  <speed>1.163872845288522</speed>
  <fix>3d</fix>
</trkpt>
<trkpt lat="-27.2744645" lon="151.2899867">
  <ele>358.18</ele>
  <time>2026-09-01T19:50:52Z</time>
  <course>337.67</course>
  <speed>1.42</speed>
  <fix>3d</fix>
</trkpt>
<trkpt lat="-27.2744604" lon="151.2899852">
  <ele>358.03</ele>
  <time>2026-09-01T19:50:52Z</time>
  <course>250.25</course>
  <speed>0.9798469268207153</speed>
  <fix>3d</fix>
</trkpt>
<trkpt lat="-27.2744622" lon="151.2899858">
  <ele>358.18</ele>
  <time>2026-09-01T19:50:52Z</time>
  <course>340.76</course>
  <speed>1.28</speed>
  <fix>3d</fix>
</trkpt>
<trkpt lat="-27.2744596" lon="151.289985">
  <ele>358.02</ele>
  <time>2026-09-01T19:50:52Z</time>
  <course>249.97</course>
  <speed>0.7792945527847606</speed>
  <fix>3d</fix>
</trkpt>
<trkpt lat="-27.2744622" lon="151.2899858">
  <ele>358.18</ele>
  <time>2026-09-01T19:50:52Z</time>
  <course>340.76</course>
  <speed>1.28</speed>
  <fix>3d</fix>
</trkpt>
<trkpt lat="-27.274459" lon="151.289985">
  <ele>358.01</ele>
  <time>2026-09-01T19:50:52Z</time>
  <course>249.37</course>
  <speed>0.57</speed>
  <fix>3d</fix>
</trkpt>
<trkpt lat="-27.2744602" lon="151.2899851">
  <ele>358.17</ele>
  <time>2026-09-01T19:50:52Z</time>
  <course>346.61</course>
  <speed>0.98</speed>
  <fix>3d</fix>
</trkpt>
<trkpt lat="-27.2744586" lon="151.289985">
  <ele>357.99</ele>
  <time>2026-09-01T19:50:52Z</time>
  <course>248.58</course>
  <speed>0.3827531841800928</speed>
  <fix>3d</fix>
</trkpt>
<trkpt lat="-27.2744602" lon="151.2899851">
  <ele>358.17</ele>
  <time>2026-09-01T19:50:52Z</time>
  <course>346.61</course>
  <speed>0.98</speed>
  <fix>3d</fix>
</trkpt>
<trkpt lat="-27.2744583" lon="151.2899851">
  <ele>357.97</ele>
  <time>2026-09-01T19:50:52Z</time>
  <course>247.71</course>
  <speed>0.3176476034853718</speed>
  <fix>3d</fix>
</trkpt>
<trkpt lat="-27.2744588" lon="151.2899848">
  <ele>358.15</ele>
  <time>2026-09-01T19:50:52Z</time>
  <course>2.09</course>
  <speed>0.57</speed>
  <fix>3d</fix>
</trkpt>
<trkpt lat="-27.2744583" lon="151.2899855">
  <ele>357.95</ele>
  <time>2026-09-01T19:50:52Z</time>
  <course>246.87</course>
  <speed>0.4242640687119285</speed>
  <fix>3d</fix>
</trkpt>
<trkpt lat="-27.2744588" lon="151.2899848">
  <ele>358.15</ele>
  <time>2026-09-01T19:50:52Z</time>
  <course>2.09</course>
  <speed>0.57</speed>
  <fix>3d</fix>
</trkpt>
<trkpt lat="-27.2744584" lon="151.289986">
  <ele>357.93</ele>
  <time>2026-09-01T19:50:52Z</time>
  <course>246.16</course>
  <speed>0.6037383539249432</speed>
  <fix>3d</fix>
</trkpt>
<trkpt lat="-27.2744581" lon="151.2899851">
  <ele>358.12</ele>
  <time>2026-09-01T19:50:52Z</time>
  <course>61.86</course>
  <speed>0.34</speed>
  <fix>3d</fix>
</trkpt>
<trkpt lat="-27.2744587" lon="151.2899866">
  <ele>357.91</ele>
  <time>2026-09-01T19:50:52Z</time>
  <course>245.77</course>
  <speed>0.7640026177965623</speed>
  <fix>3d</fix>
</trkpt>
<trkpt lat="-27.2744581" lon="151.2899851">
  <ele>358.12</ele>
  <time>2026-09-01T19:50:52Z</time>
  <course>61.86</course>
  <speed>0.34</speed>
  <fix>3d</fix>
</trkpt>
<trkpt lat="-27.2744592" lon="151.2899872">
  <ele>357.9</ele>
  <time>2026-09-01T19:50:52Z</time>
  <course>245.96</course>
  <speed>0.8631338250816034</speed>
  <fix>3d</fix>
</trkpt>
<trkpt lat="-27.2744582" lon="151.289986">
  <ele>358.08</ele>
  <time>2026-09-01T19:50:52Z</time>
  <course>115.45</course>
  <speed>0.6</speed>
  <fix>3d</fix>
</trkpt>
<trkpt lat="-27.2744596" lon="151.2899878">
  <ele>357.89</ele>
  <time>2026-09-01T19:50:52Z</time>
  <course>246.91</course>
  <speed>0.899388681271896</speed>
  <fix>3d</fix>
</trkpt>
<trkpt lat="-27.2744582" lon="151.289986">
  <ele>358.08</ele>
  <time>2026-09-01T19:50:52Z</time>
  <course>115.45</course>
  <speed>0.6</speed>
  <fix>3d</fix>
</trkpt>
<trkpt lat="-27.2744602" lon="151.2899884">
  <ele>357.88</ele>
  <time>2026-09-01T19:50:52Z</time>
  <course>248.46</course>
  <speed>0.9261749294814667</speed>
  <fix>3d</fix>
</trkpt>
<trkpt lat="-27.274459" lon="151.2899872">
  <ele>358.05</ele>
  <time>2026-09-01T19:50:52Z</time>
  <course>131.82</course>
  <speed>0.87</speed>
  <fix>3d</fix>
</trkpt>
<trkpt lat="-27.2744609" lon="151.289989">
  <ele>357.87</ele>
  <time>2026-09-01T19:50:52Z</time>
  <course>250.26</course>
  <speed>0.9404786015641186</speed>
  <fix>3d</fix>
</trkpt>
<trkpt lat="-27.274459" lon="151.2899872">
  <ele>358.05</ele>
  <time>2026-09-01T19:50:52Z</time>
  <course>131.82</course>
  <speed>0.87</speed>
  <fix>3d</fix>
</trkpt>
<trkpt lat="-27.2744616" lon="151.2899895">
  <ele>357.87</ele>
  <time>2026-09-01T19:50:52Z</time>
  <course>251.86</course>
  <speed>0.9349331526906082</speed>
  <fix>3d</fix>
</trkpt>
<trkpt lat="-27.2744601" lon="151.2899885">
  <ele>358.03</ele>
  <time>2026-09-01T19:50:52Z</time>
  <course>140.31</course>
  <speed>0.97</speed>
  <fix>3d</fix>
</trkpt>
<trkpt lat="-27.2744623" lon="151.28999">
  <ele>357.87</ele>
  <time>2026-09-01T19:50:52Z</time>
  <course>252.94</course>
  <speed>0.9278469701410895</speed>
  <fix>3d</fix>
</trkpt>
<trkpt lat="-27.2744601" lon="151.2899885">
  <ele>358.03</ele>
  <time>2026-09-01T19:50:52Z</time>
  <course>140.31</course>
  <speed>0.97</speed>
  <fix>3d</fix>
</trkpt>
<trkpt lat="-27.274463" lon="151.2899905">
  <ele>357.88</ele>
  <time>2026-09-01T19:50:52Z</time>
  <course>253.33</course>
  <speed>0.9130169768410661</speed>
  <fix>3d</fix>
</trkpt>
<trkpt lat="-27.2744615" lon="151.2899897">
  <ele>358.03</ele>
  <time>2026-09-01T19:50:52Z</time>
  <course>145.83</course>
  <speed>0.99</speed>
  <fix>3d</fix>
</trkpt>
<trkpt lat="-27.2744637" lon="151.2899909">
  <ele>357.88</ele>
  <time>2026-09-01T19:50:52Z</time>
  <course>253.02</course>
  <speed>0.9035485598461215</speed>
  <fix>3d</fix>
</trkpt>
<trkpt lat="-27.2744615" lon="151.2899897">
  <ele>358.03</ele>
  <time>2026-09-01T19:50:52Z</time>
  <course>145.83</course>
  <speed>0.99</speed>
  <fix>3d</fix>
</trkpt>
<trkpt lat="-27.2744644" lon="151.2899914">
  <ele>357.89</ele>
  <time>2026-09-01T19:50:52Z</time>
  <course>252.12</course>
  <speed>0.894427190999916</speed>
  <fix>3d</fix>
</trkpt>
<trkpt lat="-27.274463" lon="151.2899908">
  <ele>358.03</ele>
  <time>2026-09-01T19:50:52Z</time>
  <course>149.51</course>
  <speed>0.98</speed>
  <fix>3d</fix>
</trkpt>
<trkpt lat="-27.2744651" lon="151.2899918">
  <ele>357.9</ele>
  <time>2026-09-01T19:50:52Z</time>
  <course>250.81</course>
  <speed>0.8766413177577246</speed>
  <fix>3d</fix>
</trkpt>
<trkpt lat="-27.274463" lon="151.2899908">
  <ele>358.03</ele>
  <time>2026-09-01T19:50:52Z</time>
  <course>149.51</course>
  <speed>0.98</speed>
  <fix>3d</fix>
</trkpt>
<trkpt lat="-27.2744659" lon="151.2899922">
  <ele>357.9</ele>
  <time>2026-09-01T19:50:52Z</time>
  <course>249.3</course>
  <speed>0.8633075929238663</speed>
  <fix>3d</fix>
</trkpt>
<trkpt lat="-27.2744646" lon="151.2899917">
  <ele>358.04</ele>
  <time>2026-09-01T19:50:52Z</time>
  <course>151.81</course>
  <speed>0.96</speed>
  <fix>3d</fix>
</trkpt>
<trkpt lat="-27.2744666" lon="151.2899926">
  <ele>357.91</ele>
  <time>2026-09-01T19:50:52Z</time>
  <course>247.76</course>
  <speed>0.8542833253669417</speed>
  <fix>3d</fix>
</trkpt>
<trkpt lat="-27.2744646" lon="151.2899917">
  <ele>358.04</ele>
  <time>2026-09-01T19:50:52Z</time>
  <course>151.81</course>
  <speed>0.96</speed>
  <fix>3d</fix>
</trkpt>
<trkpt lat="-27.2744673" lon="151.2899931">
  <ele>357.91</ele>
  <time>2026-09-01T19:50:52Z</time>
  <course>246.33</course>
  <speed>0.8452810183601664</speed>
  <fix>3d</fix>
</trkpt>
<trkpt lat="-27.2744661" lon="151.2899926">
  <ele>358.05</ele>
  <time>2026-09-01T19:50:52Z</time>
  <course>152.76</course>
  <speed>0.94</speed>
  <fix>3d</fix>
</trkpt>
<trkpt lat="-27.274468" lon="151.2899935">
  <ele>357.92</ele>
  <time>2026-09-01T19:50:52Z</time>
  <course>245.2</course>
  <speed>0.7738862965578341</speed>
  <fix>3d</fix>
</trkpt>
<trkpt lat="-27.2744661" lon="151.2899926">
  <ele>358.05</ele>
  <time>2026-09-01T19:50:52Z</time>
  <course>152.76</course>
  <speed>0.94</speed>
  <fix>3d</fix>
</trkpt>
<trkpt lat="-27.2744686" lon="151.2899938">
  <ele>357.93</ele>
  <time>2026-09-01T19:50:52Z</time>
  <course>244.54</course>
  <speed>0.6217716622683925</speed>
  <fix>3d</fix>
</trkpt>
<trkpt lat="-27.2744676" lon="151.2899934">
  <ele>358.06</ele>
  <time>2026-09-01T19:50:52Z</time>
  <course>152.99</course>
  <speed>0.89</speed>
  <fix>3d</fix>
</trkpt>
<trkpt lat="-27.274469" lon="151.2899941">
  <ele>357.94</ele>
  <time>2026-09-01T19:50:52Z</time>
  <course>244.39</course>
  <speed>0.4410215414239989</speed>
  <fix>3d</fix>
</trkpt>
<trkpt lat="-27.2744676" lon="151.2899934">
  <ele>358.06</ele>
  <time>2026-09-01T19:50:52Z</time>
  <course>152.99</course>
  <speed>0.89</speed>
  <fix>3d</fix>
</trkpt>
<trkpt lat="-27.2744693" lon="151.2899944">
  <ele>357.94</ele>
  <time>2026-09-01T19:50:52Z</time>
  <course>244.68</course>
  <speed>0.25612496949731395</speed>
  <fix>3d</fix>
</trkpt>
<trkpt lat="-27.2744689" lon="151.2899942">
  <ele>358.08</ele>
  <time>2026-09-01T19:50:52Z</time>
  <course>150.48</course>
  <speed>0.69</speed>
  <fix>3d</fix>
</trkpt>
<trkpt lat="-27.2744694" lon="151.2899946">
  <ele>357.95</ele>
  <time>2026-09-01T19:50:52Z</time>
  <course>245.29</course>
  <speed>0.1708800749063506</speed>
  <fix>3d</fix>
</trkpt>
<trkpt lat="-27.2744689" lon="151.2899942">
  <ele>358.08</ele>
  <time>2026-09-01T19:50:52Z</time>
  <course>150.48</course>
  <speed>0.69</speed>
  <fix>3d</fix>
</trkpt>
<trkpt lat="-27.2744693" lon="151.2899948">
  <ele>357.95</ele>
  <time>2026-09-01T19:50:52Z</time>
  <course>246.07</course>
  <speed>0.32695565448543634</speed>
  <fix>3d</fix>
</trkpt>
<trkpt lat="-27.2744697" lon="151.2899949">
  <ele>358.09</ele>
  <time>2026-09-01T19:50:52Z</time>
  <course>131.8</course>
  <speed>0.34</speed>
  <fix>3d</fix>
</trkpt>
<trkpt lat="-27.2744689" lon="151.289995">
  <ele>357.96</ele>
  <time>2026-09-01T19:50:52Z</time>
  <course>246.91</course>
  <speed>0.5557877292636101</speed>
  <fix>3d</fix>
</trkpt>
<trkpt lat="-27.2744697" lon="151.2899949">
  <ele>358.09</ele>
  <time>2026-09-01T19:50:52Z</time>
  <course>131.8</course>
  <speed>0.34</speed>
  <fix>3d</fix>
</trkpt>
<trkpt lat="-27.2744685" lon="151.2899951">
  <ele>357.96</ele>
  <time>2026-09-01T19:50:52Z</time>
  <course>247.7</course>
  <speed>0.7802563681252463</speed>
  <fix>3d</fix>
</trkpt>
<trkpt lat="-27.2744697" lon="151.2899953">
  <ele>358.11</ele>
  <time>2026-09-01T19:50:52Z</time>
  <course>36.28</course>
  <speed>0.28</speed>
  <fix>3d</fix>
</trkpt>
<trkpt lat="-27.2744677" lon="151.2899951">
  <ele>357.96</ele>
  <time>2026-09-01T19:50:52Z</time>
  <course>248.31</course>
  <speed>1.0012492197250393</speed>
  <fix>3d</fix>
</trkpt>
<trkpt lat="-27.2744697" lon="151.2899953">
  <ele>358.11</ele>
  <time>2026-09-01T19:50:52Z</time>
  <course>36.28</course>
  <speed>0.28</speed>
  <fix>3d</fix>
</trkpt>
<trkpt lat="-27.2744668" lon="151.289995">
  <ele>357.95</ele>
  <time>2026-09-01T19:50:52Z</time>
  <course>248.63</course>
  <speed>1.1485643212288985</speed>
  <fix>3d</fix>
</trkpt>
<trkpt lat="-27.2744689" lon="151.2899955">
  <ele>358.11</ele>
  <time>2026-09-01T19:50:52Z</time>
  <course>4.57</course>
  <speed>0.7</speed>
  <fix>3d</fix>
</trkpt>
<trkpt lat="-27.2744658" lon="151.2899949">
  <ele>357.95</ele>
  <time>2026-09-01T19:50:52Z</time>
  <course>248.55</course>
  <speed>1.241491039033307</speed>
  <fix>3d</fix>
</trkpt>
<trkpt lat="-27.2744689" lon="151.2899955">
  <ele>358.11</ele>
  <time>2026-09-01T19:50:52Z</time>
  <course>4.57</course>
  <speed>0.7</speed>
  <fix>3d</fix>
</trkpt>
<trkpt lat="-27.2744648" lon="151.2899946">
  <ele>357.95</ele>
  <time>2026-09-01T19:50:52Z</time>
  <course>248.09</course>
  <speed>1.2734991166074674</speed>
  <fix>3d</fix>
</trkpt>
<trkpt lat="-27.2744673" lon="151.2899955">
  <ele>358.11</ele>
  <time>2026-09-01T19:50:52Z</time>
  <course>354.28</course>
  <speed>1.05</speed>
  <fix>3d</fix>
</trkpt>
<trkpt lat="-27.2744638" lon="151.2899944">
  <ele>357.94</ele>
  <time>2026-09-01T19:50:52Z</time>
  <course>247.48</course>
  <speed>1.2841339493993607</speed>
  <fix>3d</fix>
</trkpt>
<trkpt lat="-27.2744673" lon="151.2899955">
  <ele>358.11</ele>
  <time>2026-09-01T19:50:52Z</time>
  <course>354.28</course>
  <speed>1.05</speed>
  <fix>3d</fix>
</trkpt>
<trkpt lat="-27.2744628" lon="151.289994">
  <ele>357.94</ele>
  <time>2026-09-01T19:50:52Z</time>
  <course>246.99</course>
  <speed>1.2803515142334936</speed>
  <fix>3d</fix>
</trkpt>
<trkpt lat="-27.2744652" lon="151.2899952">
  <ele>358.1</ele>
  <time>2026-09-01T19:50:52Z</time>
  <course>345.83</course>
  <speed>1.2</speed>
  <fix>3d</fix>
</trkpt>
<trkpt lat="-27.2744618" lon="151.2899935">
  <ele>357.94</ele>
  <time>2026-09-01T19:50:52Z</time>
  <course>246.84</course>
  <speed>1.2712198865656563</speed>
  <fix>3d</fix>
</trkpt>
<trkpt lat="-27.2744652" lon="151.2899952">
  <ele>358.1</ele>
  <time>2026-09-01T19:50:52Z</time>
  <course>345.83</course>
  <speed>1.2</speed>
  <fix>3d</fix>
</trkpt>
<trkpt lat="-27.2744608" lon="151.289993">
  <ele>357.94</ele>
  <time>2026-09-01T19:50:52Z</time>
  <course>247.1</course>
  <speed>1.2529964086141667</speed>
  <fix>3d</fix>
</trkpt>
<trkpt lat="-27.2744631" lon="151.2899944">
  <ele>358.1</ele>
  <time>2026-09-01T19:50:52Z</time>
  <course>339.0</course>
  <speed>1.23</speed>
  <fix>3d</fix>
</trkpt>
<trkpt lat="-27.2744598" lon="151.2899926">
  <ele>357.94</ele>
  <time>2026-09-01T19:50:52Z</time>
  <course>247.79</course>
  <speed>1.235677951571525</speed>
  <fix>3d</fix>
</trkpt>
<trkpt lat="-27.2744631" lon="151.2899944">
  <ele>358.1</ele>
  <time>2026-09-01T19:50:52Z</time>
  <course>339.0</course>
  <speed>1.23</speed>
  <fix>3d</fix>
</trkpt>
<trkpt lat="-27.2744589" lon="151.2899921">
  <ele>357.94</ele>
  <time>2026-09-01T19:50:52Z</time>
  <course>248.83</course>
  <speed>1.2185236969382254</speed>
  <fix>3d</fix>
</trkpt>
<trkpt lat="-27.274461" lon="151.2899934">
  <ele>358.1</ele>
  <time>2026-09-01T19:50:52Z</time>
  <course>337.12</course>
  <speed>1.22</speed>
  <fix>3d</fix>
</trkpt>
<trkpt lat="-27.2744579" lon="151.2899917">
  <ele>357.94</ele>
  <time>2026-09-01T19:50:52Z</time>
  <course>250.12</course>
  <speed>1.194026800369238</speed>
  <fix>3d</fix>
</trkpt>
<trkpt lat="-27.274461" lon="151.2899934">
  <ele>358.1</ele>
  <time>2026-09-01T19:50:52Z</time>
  <course>337.12</course>
  <speed>1.22</speed>
  <fix>3d</fix>
</trkpt>
<trkpt lat="-27.2744569" lon="151.2899913">
  <ele>357.95</ele>
  <time>2026-09-01T19:50:52Z</time>
  <course>251.55</course>
  <speed>1.173925040196349</speed>
  <fix>3d</fix>
</trkpt>
<trkpt lat="-27.2744591" lon="151.2899925">
  <ele>358.1</ele>
  <time>2026-09-01T19:50:52Z</time>
  <course>338.76</course>
  <speed>1.18</speed>
  <fix>3d</fix>
</trkpt>
<trkpt lat="-27.274456" lon="151.289991">
  <ele>357.95</ele>
  <time>2026-09-01T19:50:52Z</time>
  <course>252.99</course>
  <speed>1.151086443322134</speed>
  <fix>3d</fix>
</trkpt>
<trkpt lat="-27.2744591" lon="151.2899925">
  <ele>358.1</ele>
  <time>2026-09-01T19:50:52Z</time>
  <course>338.76</course>
  <speed>1.18</speed>
  <fix>3d</fix>
</trkpt>
<trkpt lat="-27.274455" lon="151.2899907">
  <ele>357.94</ele>
  <time>2026-09-01T19:50:52Z</time>
  <course>254.33</course>
  <speed>1.132254388377453</speed>
  <fix>3d</fix>
</trkpt>
<trkpt lat="-27.2744571" lon="151.2899917">
  <ele>358.1</ele>
  <time>2026-09-01T19:50:52Z</time>
  <course>341.32</course>
  <speed>1.15</speed>
  <fix>3d</fix>
</trkpt>
<trkpt lat="-27.2744541" lon="151.2899904">
  <ele>357.94</ele>
  <time>2026-09-01T19:50:52Z</time>
  <course>255.54</course>
  <speed>1.1168258592994702</speed>
  <fix>3d</fix>
</trkpt>
<trkpt lat="-27.2744571" lon="151.2899917">
  <ele>358.1</ele>
  <time>2026-09-01T19:50:52Z</time>
  <course>341.32</course>
  <speed>1.15</speed>
  <fix>3d</fix>
</trkpt>
<trkpt lat="-27.2744531" lon="151.2899901">
  <ele>357.94</ele>
  <time>2026-09-01T19:50:52Z</time>
  <course>256.6</course>
  <speed>1.0989540481748998</speed>
  <fix>3d</fix>
</trkpt>
<trkpt lat="-27.2744552" lon="151.2899911">
  <ele>358.1</ele>
  <time>2026-09-01T19:50:52Z</time>
  <course>344.03</course>
  <speed>1.11</speed>
  <fix>3d</fix>
</trkpt>
<trkpt lat="-27.2744522" lon="151.2899898">
  <ele>357.94</ele>
  <time>2026-09-01T19:50:52Z</time>
  <course>257.5</course>
  <speed>1.084158659975559</speed>
  <fix>3d</fix>
</trkpt>
<trkpt lat="-27.2744552" lon="151.2899911">
  <ele>358.1</ele>
  <time>2026-09-01T19:50:52Z</time>
  <course>344.03</course>
  <speed>1.11</speed>
  <fix>3d</fix>
</trkpt>
<trkpt lat="-27.2744513" lon="151.2899896">
  <ele>357.94</ele>
  <time>2026-09-01T19:50:52Z</time>
  <course>258.27</course>
  <speed>1.0673331251301068</speed>
  <fix>3d</fix>
</trkpt>
<trkpt lat="-27.2744533" lon="151.2899905">
  <ele>358.1</ele>
  <time>2026-09-01T19:50:52Z</time>
  <course>346.31</course>
  <speed>1.08</speed>
  <fix>3d</fix>
</trkpt>
<trkpt lat="-27.2744504" lon="151.2899894">
  <ele>357.94</ele>
  <time>2026-09-01T19:50:52Z</time>
  <course>258.95</course>
  <speed>1.0553672346628922</speed>
  <fix>3d</fix>
</trkpt>
<trkpt lat="-27.2744533" lon="151.2899905">
  <ele>358.1</ele>
  <time>2026-09-01T19:50:52Z</time>
  <course>346.31</course>
  <speed>1.08</speed>
  <fix>3d</fix>
</trkpt>
<trkpt lat="-27.2744495" lon="151.2899892">
  <ele>357.94</ele>
  <time>2026-09-01T19:50:52Z</time>
  <course>259.57</course>
  <speed>1.0434557968596465</speed>
  <fix>3d</fix>
</trkpt>
<trkpt lat="-27.2744514" lon="151.28999">
  <ele>358.1</ele>
  <time>2026-09-01T19:50:52Z</time>
  <course>348.03</course>
  <speed>1.05</speed>
  <fix>3d</fix>
</trkpt>
<trkpt lat="-27.2744486" lon="151.2899891">
  <ele>357.94</ele>
  <time>2026-09-01T19:50:52Z</time>
  <course>260.18</course>
  <speed>1.0218121158021176</speed>
  <fix>3d</fix>
</trkpt>
<trkpt lat="-27.2744514" lon="151.28999">
  <ele>358.1</ele>
  <time>2026-09-01T19:50:52Z</time>
  <course>348.03</course>
  <speed>1.05</speed>
  <fix>3d</fix>
</trkpt>
<trkpt lat="-27.2744477" lon="151.2899889">
  <ele>357.94</ele>
  <time>2026-09-01T19:50:52Z</time>
  <course>260.7</course>
  <speed>0.942019108086455</speed>
  <fix>3d</fix>
</trkpt>
<trkpt lat="-27.2744495" lon="151.2899896">
  <ele>358.1</ele>
  <time>2026-09-01T19:50:52Z</time>
  <course>349.41</course>
  <speed>1.02</speed>
  <fix>3d</fix>
</trkpt>
<trkpt lat="-27.274447" lon="151.2899888">
  <ele>357.95</ele>
  <time>2026-09-01T19:50:52Z</time>
  <course>260.99</course>
  <speed>0.7951100552753688</speed>
  <fix>3d</fix>
</trkpt>
<trkpt lat="-27.2744495" lon="151.2899896">
  <ele>358.1</ele>
  <time>2026-09-01T19:50:52Z</time>
  <course>349.41</course>
  <speed>1.02</speed>
  <fix>3d</fix>
</trkpt>
<trkpt lat="-27.2744464" lon="151.2899888">
  <ele>357.95</ele>
  <time>2026-09-01T19:50:52Z</time>
  <course>261.02</course>
  <speed>0.6107372593840988</speed>
  <fix>3d</fix>
</trkpt>
<trkpt lat="-27.2744478" lon="151.2899893">
  <ele>358.1</ele>
  <time>2026-09-01T19:50:52Z</time>
  <course>352.27</course>
  <speed>0.9</speed>
  <fix>3d</fix>
</trkpt>
<trkpt lat="-27.2744459" lon="151.2899888">
  <ele>357.96</ele>
  <time>2026-09-01T19:50:52Z</time>
  <course>260.78</course>
  <speed>0.4019950248448356</speed>
  <fix>3d</fix>
</trkpt>
<trkpt lat="-27.2744478" lon="151.2899893">
  <ele>358.1</ele>
  <time>2026-09-01T19:50:52Z</time>
  <course>352.27</course>
  <speed>0.9</speed>
  <fix>3d</fix>
</trkpt>
<trkpt lat="-27.2744457" lon="151.2899889">
  <ele>357.96</ele>
  <time>2026-09-01T19:50:52Z</time>
  <course>260.35</course>
  <speed>0.2220360331117452</speed>
  <fix>3d</fix>
</trkpt>
<trkpt lat="-27.2744464" lon="151.2899891">
  <ele>358.12</ele>
  <time>2026-09-01T19:50:52Z</time>
  <course>0.07</course>
  <speed>0.6</speed>
  <fix>3d</fix>
</trkpt>
<trkpt lat="-27.2744456" lon="151.2899891">
  <ele>357.96</ele>
  <time>2026-09-01T19:50:52Z</time>
  <course>259.81</course>
  <speed>0.23194827009486402</speed>
  <fix>3d</fix>
</trkpt>
<trkpt lat="-27.2744464" lon="151.2899891">
  <ele>358.12</ele>
  <time>2026-09-01T19:50:52Z</time>
  <course>0.07</course>
  <speed>0.6</speed>
  <fix>3d</fix>
</trkpt>
<trkpt lat="-27.2744458" lon="151.2899894">
  <ele>357.96</ele>
  <time>2026-09-01T19:50:52Z</time>
  <course>259.24</course>
  <speed>0.4186884283091664</speed>
  <fix>3d</fix>
</trkpt>
<trkpt lat="-27.2744457" lon="151.2899893">
  <ele>358.13</ele>
  <time>2026-09-01T19:50:52Z</time>
  <course>40.85</course>
  <speed>0.24</speed>
  <fix>3d</fix>
</trkpt>
<trkpt lat="-27.2744461" lon="151.2899898">
  <ele>357.96</ele>
  <time>2026-09-01T19:50:52Z</time>
  <course>258.7</course>
  <speed>0.6481512169239521</speed>
  <fix>3d</fix>
</trkpt>
<trkpt lat="-27.2744457" lon="151.2899893">
  <ele>358.13</ele>
  <time>2026-09-01T19:50:52Z</time>
  <course>40.85</course>
  <speed>0.24</speed>
  <fix>3d</fix>
</trkpt>
<trkpt lat="-27.2744466" lon="151.2899903">
  <ele>357.95</ele>
  <time>2026-09-01T19:50:52Z</time>
  <course>258.28</course>
  <speed>0.866083136886985</speed>
  <fix>3d</fix>
</trkpt>
<trkpt lat="-27.2744458" lon="151.2899898">
  <ele>358.12</ele>
  <time>2026-09-01T19:50:52Z</time>
  <course>128.62</course>
  <speed>0.43</speed>
  <fix>3d</fix>
</trkpt>
<trkpt lat="-27.2744474" lon="151.2899908">
  <ele>357.95</ele>
  <time>2026-09-01T19:50:52Z</time>
  <course>258.09</course>
  <speed>1.0285912696499033</speed>
  <fix>3d</fix>
</trkpt>
<trkpt lat="-27.2744458" lon="151.2899898">
  <ele>358.12</ele>
  <time>2026-09-01T19:50:52Z</time>
  <course>128.62</course>
  <speed>0.43</speed>
  <fix>3d</fix>
</trkpt>
<trkpt lat="-27.2744483" lon="151.2899913">
  <ele>357.94</ele>
  <time>2026-09-01T19:50:52Z</time>
  <course>258.32</course>
  <speed>1.1253888216967503</speed>
  <fix>3d</fix>
</trkpt>
<trkpt lat="-27.2744467" lon="151.2899905">
  <ele>358.11</ele>
  <time>2026-09-01T19:50:52Z</time>
  <course>147.39</course>
  <speed>0.85</speed>
  <fix>3d</fix>
</trkpt>
<trkpt lat="-27.2744492" lon="151.2899917">
  <ele>357.93</ele>
  <time>2026-09-01T19:50:52Z</time>
  <course>258.98</course>
  <speed>1.1764352935882194</speed>
  <fix>3d</fix>
</trkpt>
<trkpt lat="-27.2744467" lon="151.2899905">
  <ele>358.11</ele>
  <time>2026-09-01T19:50:52Z</time>
  <course>147.39</course>
  <speed>0.85</speed>
  <fix>3d</fix>
</trkpt>
<trkpt lat="-27.2744503" lon="151.289992">
  <ele>357.93</ele>
  <time>2026-09-01T19:50:52Z</time>
  <course>259.82</course>
  <speed>1.1910079764636339</speed>
  <fix>3d</fix>
</trkpt>
<trkpt lat="-27.2744482" lon="151.2899915">
  <ele>358.1</ele>
  <time>2026-09-01T19:50:52Z</time>
  <course>156.72</course>
  <speed>1.12</speed>
  <fix>3d</fix>
</trkpt>
<trkpt lat="-27.2744513" lon="151.2899923">
  <ele>357.93</ele>
  <time>2026-09-01T19:50:52Z</time>
  <course>260.52</course>
  <speed>1.2035364556173611</speed>
  <fix>3d</fix>
</trkpt>
<trkpt lat="-27.2744482" lon="151.2899915">
  <ele>358.1</ele>
  <time>2026-09-01T19:50:52Z</time>
  <course>156.72</course>
  <speed>1.12</speed>
  <fix>3d</fix>
</trkpt>
<trkpt lat="-27.2744524" lon="151.2899925">
  <ele>357.92</ele>
  <time>2026-09-01T19:50:52Z</time>
  <course>260.83</course>
  <speed>1.2020815280171309</speed>
  <fix>3d</fix>
</trkpt>
<trkpt lat="-27.2744502" lon="151.2899923">
  <ele>358.1</ele>
  <time>2026-09-01T19:50:52Z</time>
  <course>165.45</course>
  <speed>1.21</speed>
  <fix>3d</fix>
</trkpt>
<trkpt lat="-27.2744534" lon="151.2899927">
  <ele>357.92</ele>
  <time>2026-09-01T19:50:52Z</time>
  <course>260.61</course>
  <speed>1.1921828718783036</speed>
  <fix>3d</fix>
</trkpt>
<trkpt lat="-27.2744502" lon="151.2899923">
  <ele>358.1</ele>
  <time>2026-09-01T19:50:52Z</time>
  <course>165.45</course>
  <speed>1.21</speed>
  <fix>3d</fix>
</trkpt>
<trkpt lat="-27.2744545" lon="151.2899929">
  <ele>357.92</ele>
  <time>2026-09-01T19:50:52Z</time>
  <course>259.87</course>
  <speed>1.1853269591129698</speed>
  <fix>3d</fix>
</trkpt>
<trkpt lat="-27.2744524" lon="151.2899928">
  <ele>358.09</ele>
  <time>2026-09-01T19:50:52Z</time>
  <course>170.2</course>
  <speed>1.23</speed>
  <fix>3d</fix>
</trkpt>
<trkpt lat="-27.2744555" lon="151.2899931">
  <ele>357.92</ele>
  <time>2026-09-01T19:50:52Z</time>
  <course>258.71</course>
  <speed>1.169016680804855</speed>
  <fix>3d</fix>
</trkpt>
<trkpt lat="-27.2744524" lon="151.2899928">
  <ele>358.09</ele>
  <time>2026-09-01T19:50:52Z</time>
  <course>170.2</course>
  <speed>1.23</speed>
  <fix>3d</fix>
</trkpt>
<trkpt lat="-27.2744566" lon="151.2899934">
  <ele>357.92</ele>
  <time>2026-09-01T19:50:52Z</time>
  <course>257.24</course>
  <speed>1.15316954521007</speed>
  <fix>3d</fix>
</trkpt>
<trkpt lat="-27.2744545" lon="151.2899932">
  <ele>358.09</ele>
  <time>2026-09-01T19:50:52Z</time>
  <course>169.55</course>
  <speed>1.22</speed>
  <fix>3d</fix>
</trkpt>
<trkpt lat="-27.2744576" lon="151.2899937">
  <ele>357.92</ele>
  <time>2026-09-01T19:50:52Z</time>
  <course>255.64</course>
  <speed>1.140043858805441</speed>
  <fix>3d</fix>
</trkpt>
<trkpt lat="-27.2744545" lon="151.2899932">
  <ele>358.09</ele>
  <time>2026-09-01T19:50:52Z</time>
  <course>169.55</course>
  <speed>1.22</speed>
  <fix>3d</fix>
</trkpt>
<trkpt lat="-27.2744586" lon="151.289994">
  <ele>357.92</ele>
  <time>2026-09-01T19:50:52Z</time>
  <course>254.05</course>
  <speed>1.127918436767482</speed>
  <fix>3d</fix>
</trkpt>
<trkpt lat="-27.2744566" lon="151.2899937">
  <ele>358.09</ele>
  <time>2026-09-01T19:50:52Z</time>
  <course>167.11</course>
  <speed>1.19</speed>
  <fix>3d</fix>
</trkpt>
<trkpt lat="-27.2744595" lon="151.2899943">
  <ele>357.92</ele>
  <time>2026-09-01T19:50:52Z</time>
  <course>252.56</course>
  <speed>1.1168258592994702</speed>
  <fix>3d</fix>
</trkpt>
<trkpt lat="-27.2744566" lon="151.2899937">
  <ele>358.09</ele>
  <time>2026-09-01T19:50:52Z</time>
  <course>167.11</course>
  <speed>1.19</speed>
  <fix>3d</fix>
</trkpt>
<trkpt lat="-27.2744605" lon="151.2899947">
  <ele>357.92</ele>
  <time>2026-09-01T19:50:52Z</time>
  <course>251.36</course>
  <speed>1.0373041983911953</speed>
  <fix>3d</fix>
</trkpt>
<trkpt lat="-27.2744587" lon="151.2899943">
  <ele>358.09</ele>
  <time>2026-09-01T19:50:52Z</time>
  <course>164.04</course>
  <speed>1.17</speed>
  <fix>3d</fix>
</trkpt>
<trkpt lat="-27.2744613" lon="151.289995">
  <ele>357.93</ele>
  <time>2026-09-01T19:50:52Z</time>
  <course>250.65</course>
  <speed>0.8802272433866155</speed>
  <fix>3d</fix>
</trkpt>
<trkpt lat="-27.2744587" lon="151.2899943">
  <ele>358.09</ele>
  <time>2026-09-01T19:50:52Z</time>
  <course>164.04</course>
  <speed>1.17</speed>
  <fix>3d</fix>
</trkpt>
<trkpt lat="-27.274462" lon="151.2899954">
  <ele>357.94</ele>
  <time>2026-09-01T19:50:52Z</time>
  <course>250.48</course>
  <speed>0.6946221994724903</speed>
  <fix>3d</fix>
</trkpt>
<trkpt lat="-27.2744607" lon="151.2899949">
  <ele>358.09</ele>
  <time>2026-09-01T19:50:52Z</time>
  <course>160.67</course>
  <speed>1.04</speed>
  <fix>3d</fix>
</trkpt>
<trkpt lat="-27.2744625" lon="151.2899956">
  <ele>357.95</ele>
  <time>2026-09-01T19:50:52Z</time>
  <course>250.79</course>
  <speed>0.4876474136094644</speed>
  <fix>3d</fix>
</trkpt>
<trkpt lat="-27.2744607" lon="151.2899949">
  <ele>358.09</ele>
  <time>2026-09-01T19:50:52Z</time>
  <course>160.67</course>
  <speed>1.04</speed>
  <fix>3d</fix>
</trkpt>
<trkpt lat="-27.2744628" lon="151.2899959">
  <ele>357.96</ele>
  <time>2026-09-01T19:50:52Z</time>
  <course>251.46</course>
  <speed>0.29</speed>
  <fix>3d</fix>
</trkpt>
<trkpt lat="-27.2744622" lon="151.2899957">
  <ele>358.12</ele>
  <time>2026-09-01T19:50:52Z</time>
  <course>156.31</course>
  <speed>0.74</speed>
  <fix>3d</fix>
</trkpt>
<trkpt lat="-27.2744629" lon="151.2899961">
  <ele>357.97</ele>
  <time>2026-09-01T19:50:52Z</time>
  <course>252.35</course>
  <speed>0.1824828759089466</speed>
  <fix>3d</fix>
</trkpt>
<trkpt lat="-27.2744622" lon="151.2899957">
  <ele>358.12</ele>
  <time>2026-09-01T19:50:52Z</time>
  <course>156.31</course>
  <speed>0.74</speed>
  <fix>3d</fix>
</trkpt>
<trkpt lat="-27.2744628" lon="151.2899963">
  <ele>357.97</ele>
  <time>2026-09-01T19:50:52Z</time>
  <course>253.29</course>
  <speed>0.31906112267087633</speed>
  <fix>3d</fix>
</trkpt>
<trkpt lat="-27.274463" lon="151.2899962">
  <ele>358.14</ele>
  <time>2026-09-01T19:50:52Z</time>
  <course>138.17</course>
  <speed>0.33</speed>
  <fix>3d</fix>
</trkpt>
<trkpt lat="-27.2744624" lon="151.2899965">
  <ele>357.97</ele>
  <time>2026-09-01T19:50:52Z</time>
  <course>254.18</course>
  <speed>0.5385164807134504</speed>
  <fix>3d</fix>
</trkpt>
<trkpt lat="-27.274463" lon="151.2899962">
  <ele>358.14</ele>
  <time>2026-09-01T19:50:52Z</time>
  <course>138.17</course>
  <speed>0.33</speed>
  <fix>3d</fix>
</trkpt>
<trkpt lat="-27.2744619" lon="151.2899967">
  <ele>357.97</ele>
  <time>2026-09-01T19:50:52Z</time>
  <course>254.86</course>
  <speed>0.7566372975210779</speed>
  <fix>3d</fix>
</trkpt>
<trkpt lat="-27.2744631" lon="151.2899966">
  <ele>358.15</ele>
  <time>2026-09-01T19:50:52Z</time>
  <course>37.5</course>
  <speed>0.29</speed>
  <fix>3d</fix>
</trkpt>
<trkpt lat="-27.2744612" lon="151.2899967">
  <ele>357.97</ele>
  <time>2026-09-01T19:50:52Z</time>
  <course>255.19</course>
  <speed>0.9313431161500041</speed>
  <fix>3d</fix>
</trkpt>
<trkpt lat="-27.2744631" lon="151.2899966">
  <ele>358.15</ele>
  <time>2026-09-01T19:50:52Z</time>
  <course>37.5</course>
  <speed>0.29</speed>
  <fix>3d</fix>
</trkpt>
<trkpt lat="-27.2744604" lon="151.2899968">
  <ele>357.97</ele>
  <time>2026-09-01T19:50:52Z</time>
  <course>254.94</course>
  <speed>1.02</speed>
  <fix>3d</fix>
</trkpt>
<trkpt lat="-27.2744623" lon="151.2899969">
  <ele>358.15</ele>
  <time>2026-09-01T19:50:52Z</time>
  <course>8.86</course>
  <speed>0.69</speed>
  <fix>3d</fix>
</trkpt>
<trkpt lat="-27.2744595" lon="151.2899968">
  <ele>357.96</ele>
  <time>2026-09-01T19:50:52Z</time>
  <course>254.03</course>
  <speed>1.0630145812734648</speed>
  <fix>3d</fix>
</trkpt>
<trkpt lat="-27.2744623" lon="151.2899969">
  <ele>358.15</ele>
  <time>2026-09-01T19:50:52Z</time>
  <course>8.86</course>
  <speed>0.69</speed>
  <fix>3d</fix>
</trkpt>
<trkpt lat="-27.2744586" lon="151.2899968">
  <ele>357.96</ele>
  <time>2026-09-01T19:50:52Z</time>
  <course>252.66</course>
  <speed>1.0804628637764464</speed>
  <fix>3d</fix>
</trkpt>
<trkpt lat="-27.2744608" lon="151.289997">
  <ele>358.14</ele>
  <time>2026-09-01T19:50:52Z</time>
  <course>359.39</course>
  <speed>0.96</speed>
  <fix>3d</fix>
</trkpt>
<trkpt lat="-27.2744577" lon="151.2899966">
  <ele>357.96</ele>
  <time>2026-09-01T19:50:52Z</time>
  <course>251.24</course>
  <speed>1.084665847162157</speed>
  <fix>3d</fix>
</trkpt>
<trkpt lat="-27.2744608" lon="151.289997">
  <ele>358.14</ele>
  <time>2026-09-01T19:50:52Z</time>
  <course>359.39</course>
  <speed>0.96</speed>
  <fix>3d</fix>
</trkpt>
<trkpt lat="-27.2744568" lon="151.2899963">
  <ele>357.96</ele>
  <time>2026-09-01T19:50:52Z</time>
  <course>250.17</course>
  <speed>1.0756393447619885</speed>
  <fix>3d</fix>
</trkpt>
<trkpt lat="-27.2744589" lon="151.2899969">
  <ele>358.13</ele>
  <time>2026-09-01T19:50:52Z</time>
  <course>351.44</course>
  <speed>1.05</speed>
  <fix>3d</fix>
</trkpt>
<trkpt lat="-27.274456" lon="151.289996">
  <ele>357.96</ele>
  <time>2026-09-01T19:50:52Z</time>
  <course>249.72</course>
  <speed>1.0594810050208545</speed>
  <fix>3d</fix>
</trkpt>
<trkpt lat="-27.2744589" lon="151.2899969">
  <ele>358.13</ele>
  <time>2026-09-01T19:50:52Z</time>
  <course>351.44</course>
  <speed>1.05</speed>
  <fix>3d</fix>
</trkpt>
<trkpt lat="-27.2744551" lon="151.2899957">
  <ele>357.96</ele>
  <time>2026-09-01T19:50:52Z</time>
  <course>249.95</course>
  <speed>1.0467568963231146</speed>
  <fix>3d</fix>
</trkpt>
<trkpt lat="-27.2744571" lon="151.2899964">
  <ele>358.13</ele>
  <time>2026-09-01T19:50:52Z</time>
  <course>343.5</course>
  <speed>1.06</speed>
  <fix>3d</fix>
</trkpt>
<trkpt lat="-27.2744543" lon="151.2899953">
  <ele>357.96</ele>
  <time>2026-09-01T19:50:52Z</time>
  <course>250.8</course>
  <speed>1.0309219175087898</speed>
  <fix>3d</fix>
</trkpt>
<trkpt lat="-27.2744571" lon="151.2899964">
  <ele>358.13</ele>
  <time>2026-09-01T19:50:52Z</time>
  <course>343.5</course>
  <speed>1.06</speed>
  <fix>3d</fix>
</trkpt>
<trkpt lat="-27.2744534" lon="151.289995">
  <ele>357.96</ele>
  <time>2026-09-01T19:50:52Z</time>
  <course>252.12</course>
  <speed>1.0124228365658294</speed>
  <fix>3d</fix>
</trkpt>
<trkpt lat="-27.2744553" lon="151.2899957">
  <ele>358.13</ele>
  <time>2026-09-01T19:50:52Z</time>
  <course>340.11</course>
  <speed>1.04</speed>
  <fix>3d</fix>
</trkpt>
<trkpt lat="-27.2744526" lon="151.2899948">
  <ele>357.96</ele>
  <time>2026-09-01T19:50:52Z</time>
  <course>253.72</course>
  <speed>0.9920181449953424</speed>
  <fix>3d</fix>
</trkpt>
<trkpt lat="-27.2744553" lon="151.2899957">
  <ele>358.13</ele>
  <time>2026-09-01T19:50:52Z</time>
  <course>340.11</course>
  <speed>1.04</speed>
  <fix>3d</fix>
</trkpt>
<trkpt lat="-27.2744517" lon="151.2899945">
  <ele>357.96</ele>
  <time>2026-09-01T19:50:52Z</time>
  <course>255.42</course>
  <speed>0.9751410154434076</speed>
  <fix>3d</fix>
</trkpt>
<trkpt lat="-27.2744535" lon="151.2899951">
  <ele>358.13</ele>
  <time>2026-09-01T19:50:52Z</time>
  <course>342.06</course>
  <speed>1.01</speed>
  <fix>3d</fix>
</trkpt>
<trkpt lat="-27.2744509" lon="151.2899943">
  <ele>357.95</ele>
  <time>2026-09-01T19:50:52Z</time>
  <course>257.05</course>
  <speed>0.9688137075826292</speed>
  <fix>3d</fix>
</trkpt>
<trkpt lat="-27.2744535" lon="151.2899951">
  <ele>358.13</ele>
  <time>2026-09-01T19:50:52Z</time>
  <course>342.06</course>
  <speed>1.01</speed>
  <fix>3d</fix>
</trkpt>
<trkpt lat="-27.2744501" lon="151.2899941">
  <ele>357.95</ele>
  <time>2026-09-01T19:50:52Z</time>
  <course>258.52</course>
  <speed>0.9535197952848173</speed>
  <fix>3d</fix>
</trkpt>
<trkpt lat="-27.2744518" lon="151.2899945">
  <ele>358.13</ele>
  <time>2026-09-01T19:50:52Z</time>
  <course>345.19</course>
  <speed>0.98</speed>
  <fix>3d</fix>
</trkpt>
<trkpt lat="-27.2744492" lon="151.289994">
  <ele>357.95</ele>
  <time>2026-09-01T19:50:52Z</time>
  <course>259.75</course>
  <speed>0.9404786015641186</speed>
  <fix>3d</fix>
</trkpt>
<trkpt lat="-27.2744518" lon="151.2899945">
  <ele>358.13</ele>
  <time>2026-09-01T19:50:52Z</time>
  <course>345.19</course>
  <speed>0.98</speed>
  <fix>3d</fix>
</trkpt>
<trkpt lat="-27.2744484" lon="151.2899938">
  <ele>357.95</ele>
  <time>2026-09-01T19:50:52Z</time>
  <course>260.74</course>
  <speed>0.9291393867445293</speed>
  <fix>3d</fix>
</trkpt>
<trkpt lat="-27.2744501" lon="151.2899941">
  <ele>358.13</ele>
  <time>2026-09-01T19:50:52Z</time>
  <course>348.22</course>
  <speed>0.96</speed>
  <fix>3d</fix>
</trkpt>
<trkpt lat="-27.2744476" lon="151.2899937">
  <ele>357.95</ele>
  <time>2026-09-01T19:50:52Z</time>
  <course>261.5</course>
  <speed>0.9166242414424789</speed>
  <fix>3d</fix>
</trkpt>
<trkpt lat="-27.2744501" lon="151.2899941">
  <ele>358.13</ele>
  <time>2026-09-01T19:50:52Z</time>
  <course>348.22</course>
  <speed>0.96</speed>
  <fix>3d</fix>
</trkpt>
<trkpt lat="-27.2744468" lon="151.2899936">
  <ele>357.95</ele>
  <time>2026-09-01T19:50:52Z</time>
  <course>262.1</course>
  <speed>0.9055385138137417</speed>
  <fix>3d</fix>
</trkpt>
<trkpt lat="-27.2744484" lon="151.2899937">
  <ele>358.13</ele>
  <time>2026-09-01T19:50:52Z</time>
  <course>350.48</course>
  <speed>0.93</speed>
  <fix>3d</fix>
</trkpt>
<trkpt lat="-27.274446" lon="151.2899935">
  <ele>357.95</ele>
  <time>2026-09-01T19:50:52Z</time>
  <course>262.59</course>
  <speed>0.9044888059008801</speed>
  <fix>3d</fix>
</trkpt>
<trkpt lat="-27.2744484" lon="151.2899937">
  <ele>358.13</ele>
  <time>2026-09-01T19:50:52Z</time>
  <course>350.48</course>
  <speed>0.93</speed>
  <fix>3d</fix>
</trkpt>
<trkpt lat="-27.2744452" lon="151.2899934">
  <ele>357.95</ele>
  <time>2026-09-01T19:50:52Z</time>
  <course>263.02</course>
  <speed>0.8827797007181349</speed>
  <fix>3d</fix>
</trkpt>
<trkpt lat="-27.2744468" lon="151.2899934">
  <ele>358.13</ele>
  <time>2026-09-01T19:50:52Z</time>
  <course>351.92</course>
  <speed>0.91</speed>
  <fix>3d</fix>
</trkpt>
<trkpt lat="-27.2744445" lon="151.2899933">
  <ele>357.95</ele>
  <time>2026-09-01T19:50:52Z</time>
  <course>263.35</course>
  <speed>0.7902531240052139</speed>
  <fix>3d</fix>
</trkpt>
<trkpt lat="-27.2744468" lon="151.2899934">
  <ele>358.13</ele>
  <time>2026-09-01T19:50:52Z</time>
  <course>351.92</course>
  <speed>0.91</speed>
  <fix>3d</fix>
</trkpt>
<trkpt lat="-27.2744439" lon="151.2899933">
  <ele>357.96</ele>
  <time>2026-09-01T19:50:52Z</time>
  <course>263.45</course>
  <speed>0.6307138812488592</speed>
  <fix>3d</fix>
</trkpt>
<trkpt lat="-27.2744452" lon="151.2899932">
  <ele>358.13</ele>
  <time>2026-09-01T19:50:52Z</time>
  <course>354.29</course>
  <speed>0.85</speed>
  <fix>3d</fix>
</trkpt>
<trkpt lat="-27.2744434" lon="151.2899933">
  <ele>357.96</ele>
  <time>2026-09-01T19:50:52Z</time>
  <course>263.32</course>
  <speed>0.4491102314577124</speed>
  <fix>3d</fix>
</trkpt>
<trkpt lat="-27.2744452" lon="151.2899932">
  <ele>358.13</ele>
  <time>2026-09-01T19:50:52Z</time>
  <course>354.29</course>
  <speed>0.85</speed>
  <fix>3d</fix>
</trkpt>
<trkpt lat="-27.2744431" lon="151.2899934">
  <ele>357.95</ele>
  <time>2026-09-01T19:50:52Z</time>
  <course>263.0</course>
  <speed>0.2780287754891569</speed>
  <fix>3d</fix>
</trkpt>
<trkpt lat="-27.2744438" lon="151.2899931">
  <ele>358.13</ele>
  <time>2026-09-01T19:50:52Z</time>
  <course>0.79</course>
  <speed>0.63</speed>
  <fix>3d</fix>
</trkpt>
<trkpt lat="-27.274443" lon="151.2899935">
  <ele>357.95</ele>
  <time>2026-09-01T19:50:52Z</time>
  <course>262.56</course>
  <speed>0.25</speed>
  <fix>3d</fix>
</trkpt>
<trkpt lat="-27.2744438" lon="151.2899931">
  <ele>358.13</ele>
  <time>2026-09-01T19:50:52Z</time>
  <course>0.79</course>
  <speed>0.63</speed>
  <fix>3d</fix>
</trkpt>
<trkpt lat="-27.2744431" lon="151.2899938">
  <ele>357.94</ele>
  <time>2026-09-01T19:50:52Z</time>
  <course>262.06</course>
  <speed>0.4080441152620633</speed>
  <fix>3d</fix>
</trkpt>
<trkpt lat="-27.274443" lon="151.2899932">
  <ele>358.14</ele>
  <time>2026-09-01T19:50:52Z</time>
  <course>31.65</course>
  <speed>0.27</speed>
  <fix>3d</fix>
</trkpt>
<trkpt lat="-27.2744434" lon="151.2899942">
  <ele>357.94</ele>
  <time>2026-09-01T19:50:52Z</time>
  <course>261.56</course>
  <speed>0.6184658438426491</speed>
  <fix>3d</fix>
</trkpt>
<trkpt lat="-27.274443" lon="151.2899932">
  <ele>358.14</ele>
  <time>2026-09-01T19:50:52Z</time>
  <course>31.65</course>
  <speed>0.27</speed>
  <fix>3d</fix>
</trkpt>
<trkpt lat="-27.2744438" lon="151.2899946">
  <ele>357.93</ele>
  <time>2026-09-01T19:50:52Z</time>
  <course>261.13</course>
  <speed>0.8438009243891595</speed>
  <fix>3d</fix>
</trkpt>
<trkpt lat="-27.274443" lon="151.2899936">
  <ele>358.13</ele>
  <time>2026-09-01T19:50:52Z</time>
  <course>126.85</course>
  <speed>0.37</speed>
  <fix>3d</fix>
</trkpt>
<trkpt lat="-27.2744446" lon="151.289995">
  <ele>357.93</ele>
  <time>2026-09-01T19:50:52Z</time>
  <course>260.86</course>
  <speed>1.0331505214633538</speed>
  <fix>3d</fix>
</trkpt>
<trkpt lat="-27.274443" lon="151.2899936">
  <ele>358.13</ele>
  <time>2026-09-01T19:50:52Z</time>
  <course>126.85</course>
  <speed>0.37</speed>
  <fix>3d</fix>
</trkpt>
<trkpt lat="-27.2744455" lon="151.2899954">
  <ele>357.92</ele>
  <time>2026-09-01T19:50:52Z</time>
  <course>260.91</course>
  <speed>1.1438968484964018</speed>
  <fix>3d</fix>
</trkpt>
<trkpt lat="-27.2744438" lon="151.2899943">
  <ele>358.12</ele>
  <time>2026-09-01T19:50:52Z</time>
  <course>149.43</course>
  <speed>0.8</speed>
  <fix>3d</fix>
</trkpt>
<trkpt lat="-27.2744464" lon="151.2899958">
  <ele>357.92</ele>
  <time>2026-09-01T19:50:52Z</time>
  <course>261.33</course>
  <speed>1.1954915307102765</speed>
  <fix>3d</fix>
</trkpt>
<trkpt lat="-27.2744438" lon="151.2899943">
  <ele>358.12</ele>
  <time>2026-09-01T19:50:52Z</time>
  <course>149.43</course>
  <speed>0.8</speed>
  <fix>3d</fix>
</trkpt>
<trkpt lat="-27.2744475" lon="151.2899961">
  <ele>357.92</ele>
  <time>2026-09-01T19:50:52Z</time>
  <course>261.97</course>
  <speed>1.2224974437601086</speed>
  <fix>3d</fix>
</trkpt>
<trkpt lat="-27.2744453" lon="151.2899952">
  <ele>358.11</ele>
  <time>2026-09-01T19:50:52Z</time>
  <course>158.79</course>
  <speed>1.1</speed>
  <fix>3d</fix>
</trkpt>
<trkpt lat="-27.2744485" lon="151.2899963">
  <ele>357.92</ele>
  <time>2026-09-01T19:50:52Z</time>
  <course>262.52</course>
  <speed>1.2362847568420472</speed>
  <fix>3d</fix>
</trkpt>
<trkpt lat="-27.2744453" lon="151.2899952">
  <ele>358.11</ele>
  <time>2026-09-01T19:50:52Z</time>
  <course>158.79</course>
  <speed>1.1</speed>
  <fix>3d</fix>
</trkpt>
<trkpt lat="-27.2744496" lon="151.2899964">
  <ele>357.92</ele>
  <time>2026-09-01T19:50:52Z</time>
  <course>262.73</course>
  <speed>1.2304470732217618</speed>
  <fix>3d</fix>
</trkpt>
<trkpt lat="-27.2744473" lon="151.2899959">
  <ele>358.11</ele>
  <time>2026-09-01T19:50:52Z</time>
  <course>166.79</course>
  <speed>1.22</speed>
  <fix>3d</fix>
</trkpt>
<trkpt lat="-27.2744507" lon="151.2899966">
  <ele>357.92</ele>
  <time>2026-09-01T19:50:52Z</time>
  <course>262.47</course>
  <speed>1.2218837915284744</speed>
  <fix>3d</fix>
</trkpt>
<trkpt lat="-27.2744473" lon="151.2899959">
  <ele>358.11</ele>
  <time>2026-09-01T19:50:52Z</time>
  <course>166.79</course>
  <speed>1.22</speed>
  <fix>3d</fix>
</trkpt>
<trkpt lat="-27.2744517" lon="151.2899968">
  <ele>357.92</ele>
  <time>2026-09-01T19:50:52Z</time>
  <course>261.73</course>
  <speed>1.2149485585818027</speed>
  <fix>3d</fix>
</trkpt>
<trkpt lat="-27.2744495" lon="151.2899963">
  <ele>358.11</ele>
  <time>2026-09-01T19:50:52Z</time>
  <course>171.61</course>
  <speed>1.24</speed>
  <fix>3d</fix>
</trkpt>
<trkpt lat="-27.2744528" lon="151.289997">
  <ele>357.92</ele>
  <time>2026-09-01T19:50:52Z</time>
  <course>260.57</course>
  <speed>1.1985407794480754</speed>
  <fix>3d</fix>
</trkpt>
<trkpt lat="-27.2744495" lon="151.2899963">
  <ele>358.11</ele>
  <time>2026-09-01T19:50:52Z</time>
  <course>171.61</course>
  <speed>1.24</speed>
  <fix>3d</fix>
</trkpt>
<trkpt lat="-27.2744538" lon="151.2899972">
  <ele>357.92</ele>
  <time>2026-09-01T19:50:52Z</time>
  <course>259.13</course>
  <speed>1.1825819210524064</speed>
  <fix>3d</fix>
</trkpt>
<trkpt lat="-27.2744517" lon="151.2899967">
  <ele>358.11</ele>
  <time>2026-09-01T19:50:52Z</time>
  <course>171.47</course>
  <speed>1.23</speed>
  <fix>3d</fix>
</trkpt>
<trkpt lat="-27.2744549" lon="151.2899974">
  <ele>357.93</ele>
  <time>2026-09-01T19:50:52Z</time>
  <course>257.54</course>
  <speed>1.1692732785794773</speed>
  <fix>3d</fix>
</trkpt>
<trkpt lat="-27.2744517" lon="151.2899967">
  <ele>358.11</ele>
  <time>2026-09-01T19:50:52Z</time>
  <course>171.47</course>
  <speed>1.23</speed>
  <fix>3d</fix>
</trkpt>
<trkpt lat="-27.2744559" lon="151.2899977">
  <ele>357.93</ele>
  <time>2026-09-01T19:50:52Z</time>
  <course>255.93</course>
  <speed>1.1569356075426152</speed>
  <fix>3d</fix>
</trkpt>
<trkpt lat="-27.2744539" lon="151.2899971">
  <ele>358.11</ele>
  <time>2026-09-01T19:50:52Z</time>
  <course>169.03</course>
  <speed>1.2</speed>
  <fix>3d</fix>
</trkpt>
<trkpt lat="-27.2744569" lon="151.289998">
  <ele>357.93</ele>
  <time>2026-09-01T19:50:52Z</time>
  <course>254.4</course>
  <speed>1.1456002793295748</speed>
  <fix>3d</fix>
</trkpt>
<trkpt lat="-27.2744539" lon="151.2899971">
  <ele>358.11</ele>
  <time>2026-09-01T19:50:52Z</time>
  <course>169.03</course>
  <speed>1.2</speed>
  <fix>3d</fix>
</trkpt>
<trkpt lat="-27.2744578" lon="151.2899983">
  <ele>357.94</ele>
  <time>2026-09-01T19:50:52Z</time>
  <course>253.05</course>
  <speed>1.0941663493271945</speed>
  <fix>3d</fix>
</trkpt>
<trkpt lat="-27.274456" lon="151.2899976">
  <ele>358.11</ele>
  <time>2026-09-01T19:50:52Z</time>
  <course>165.93</course>
  <speed>1.17</speed>
  <fix>3d</fix>
</trkpt>
<trkpt lat="-27.2744587" lon="151.2899986">
  <ele>357.95</ele>
  <time>2026-09-01T19:50:52Z</time>
  <course>252.14</course>
  <speed>0.9679876032264049</speed>
  <fix>3d</fix>
</trkpt>
<trkpt lat="-27.274456" lon="151.2899976">
  <ele>358.11</ele>
  <time>2026-09-01T19:50:52Z</time>
  <course>165.93</course>
  <speed>1.17</speed>
  <fix>3d</fix>
</trkpt>
<trkpt lat="-27.2744595" lon="151.2899989">
  <ele>357.96</ele>
  <time>2026-09-01T19:50:52Z</time>
  <course>251.76</course>
  <speed>0.7725283166331187</speed>
  <fix>3d</fix>
</trkpt>
<trkpt lat="-27.2744579" lon="151.2899982">
  <ele>358.11</ele>
  <time>2026-09-01T19:50:52Z</time>
  <course>162.69</course>
  <speed>1.07</speed>
  <fix>3d</fix>
</trkpt>
<trkpt lat="-27.27446" lon="151.2899992">
  <ele>357.98</ele>
  <time>2026-09-01T19:50:52Z</time>
  <course>251.9</course>
  <speed>0.5646237685397242</speed>
  <fix>3d</fix>
</trkpt>
<trkpt lat="-27.2744579" lon="151.2899982">
  <ele>358.11</ele>
  <time>2026-09-01T19:50:52Z</time>
  <course>162.69</course>
  <speed>1.07</speed>
  <fix>3d</fix>
</trkpt>
<trkpt lat="-27.2744604" lon="151.2899994">
  <ele>357.99</ele>
  <time>2026-09-01T19:50:52Z</time>
  <course>252.46</course>
  <speed>0.3466987164671943</speed>
  <fix>3d</fix>
</trkpt>
<trkpt lat="-27.2744596" lon="151.2899989">
  <ele>358.13</ele>
  <time>2026-09-01T19:50:52Z</time>
  <course>159.77</course>
  <speed>0.79</speed>
  <fix>3d</fix>
</trkpt>
<trkpt lat="-27.2744606" lon="151.2899995">
  <ele>358.0</ele>
  <time>2026-09-01T19:50:52Z</time>
  <course>253.3</course>
  <speed>0.1772004514666935</speed>
  <fix>3d</fix>
</trkpt>
<trkpt lat="-27.2744596" lon="151.2899989">
  <ele>358.13</ele>
  <time>2026-09-01T19:50:52Z</time>
  <course>159.77</course>
  <speed>0.79</speed>
  <fix>3d</fix>
</trkpt>
<trkpt lat="-27.2744605" lon="151.2899997">
  <ele>358.0</ele>
  <time>2026-09-01T19:50:52Z</time>
  <course>254.25</course>
  <speed>0.24839484696748443</speed>
  <fix>3d</fix>
</trkpt>
<trkpt lat="-27.2744606" lon="151.2899993">
  <ele>358.16</ele>
  <time>2026-09-01T19:50:52Z</time>
  <course>148.79</course>
  <speed>0.38</speed>
  <fix>3d</fix>
</trkpt>
<trkpt lat="-27.2744602" lon="151.2899998">
  <ele>358.0</ele>
  <time>2026-09-01T19:50:52Z</time>
  <course>255.18</course>
  <speed>0.4617358552246078</speed>
  <fix>3d</fix>
</trkpt>
<trkpt lat="-27.2744606" lon="151.2899993">
  <ele>358.16</ele>
  <time>2026-09-01T19:50:52Z</time>
  <course>148.79</course>
  <speed>0.38</speed>
  <fix>3d</fix>
</trkpt>
<trkpt lat="-27.2744598" lon="151.29">
  <ele>358.0</ele>
  <time>2026-09-01T19:50:52Z</time>
  <course>255.9</course>
  <speed>0.6675327707311455</speed>
  <fix>3d</fix>
</trkpt>
<trkpt lat="-27.2744608" lon="151.2899997">
  <ele>358.17</ele>
  <time>2026-09-01T19:50:52Z</time>
  <course>44.07</course>
  <speed>0.22</speed>
  <fix>3d</fix>
</trkpt>
<trkpt lat="-27.2744591" lon="151.29">
  <ele>358.0</ele>
  <time>2026-09-01T19:50:52Z</time>
  <course>256.21</course>
  <speed>0.8221921916437787</speed>
  <fix>3d</fix>
</trkpt>
<trkpt lat="-27.2744608" lon="151.2899997">
  <ele>358.17</ele>
  <time>2026-09-01T19:50:52Z</time>
  <course>44.07</course>
  <speed>0.22</speed>
  <fix>3d</fix>
</trkpt>
<trkpt lat="-27.2744584" lon="151.2900001">
  <ele>357.99</ele>
  <time>2026-09-01T19:50:52Z</time>
  <course>255.88</course>
  <speed>0.9100549433962765</speed>
  <fix>3d</fix>
</trkpt>
<trkpt lat="-27.2744601" lon="151.29">
  <ele>358.17</ele>
  <time>2026-09-01T19:50:52Z</time>
  <course>9.34</course>
  <speed>0.61</speed>
  <fix>3d</fix>
</trkpt>
<trkpt lat="-27.2744576" lon="151.2900001">
  <ele>357.98</ele>
  <time>2026-09-01T19:50:52Z</time>
  <course>254.85</course>
  <speed>0.9508417323613851</speed>
  <fix>3d</fix>
</trkpt>
<trkpt lat="-27.2744601" lon="151.29">
  <ele>358.17</ele>
  <time>2026-09-01T19:50:52Z</time>
  <course>9.34</course>
  <speed>0.61</speed>
  <fix>3d</fix>
</trkpt>
<trkpt lat="-27.2744568" lon="151.2900001">
  <ele>357.98</ele>
  <time>2026-09-01T19:50:52Z</time>
  <course>253.36</course>
  <speed>0.9662815324738437</speed>
  <fix>3d</fix>
</trkpt>
<trkpt lat="-27.2744588" lon="151.29">
  <ele>358.16</ele>
  <time>2026-09-01T19:50:53Z</time>
  <course>0.54</course>
  <speed>0.87</speed>
  <fix>3d</fix>
</trkpt>
<trkpt lat="-27.274456" lon="151.2899999">
  <ele>357.97</ele>
  <time>2026-09-01T19:50:53Z</time>
  <course>251.85</course>
  <speed>0.965090669315583</speed>
  <fix>3d</fix>
</trkpt>
<trkpt lat="-27.2744588" lon="151.29">
  <ele>358.16</ele>
  <time>2026-09-01T19:50:53Z</time>
  <course>0.54</course>
  <speed>0.87</speed>
  <fix>3d</fix>
</trkpt>
<trkpt lat="-27.2744552" lon="151.2899997">
  <ele>357.96</ele>
  <time>2026-09-01T19:50:53Z</time>
  <course>250.73</course>
  <speed>0.9556673061269805</speed>
  <fix>3d</fix>
</trkpt>
<trkpt lat="-27.2744571" lon="151.29">
  <ele>358.15</ele>
  <time>2026-09-01T19:50:53Z</time>
  <course>353.32</course>
  <speed>0.95</speed>
  <fix>3d</fix>
</trkpt>
<trkpt lat="-27.2744544" lon="151.2899995">
  <ele>357.96</ele>
  <time>2026-09-01T19:50:53Z</time>
  <course>250.25</course>
  <speed>0.9464142856064675</speed>
  <fix>3d</fix>
</trkpt>
<trkpt lat="-27.2744571" lon="151.29">
  <ele>358.15</ele>
  <time>2026-09-01T19:50:53Z</time>
  <course>353.32</course>
  <speed>0.95</speed>
  <fix>3d</fix>
</trkpt>
<trkpt lat="-27.2744536" lon="151.2899992">
  <ele>357.96</ele>
  <time>2026-09-01T19:50:53Z</time>
  <course>250.48</course>
  <speed>0.9392017887546851</speed>
  <fix>3d</fix>
</trkpt>
<trkpt lat="-27.2744553" lon="151.2899997">
  <ele>358.15</ele>
  <time>2026-09-01T19:50:53Z</time>
  <course>346.58</course>
  <speed>0.96</speed>
  <fix>3d</fix>
</trkpt>
<trkpt lat="-27.2744528" lon="151.2899989">
  <ele>357.96</ele>
  <time>2026-09-01T19:50:53Z</time>
  <course>251.34</course>
  <speed>0.91706052144883</speed>
  <fix>3d</fix>
</trkpt>
<trkpt lat="-27.2744553" lon="151.2899997">
  <ele>358.15</ele>
  <time>2026-09-01T19:50:53Z</time>
  <course>346.58</course>
  <speed>0.96</speed>
  <fix>3d</fix>
</trkpt>
<trkpt lat="-27.2744521" lon="151.2899986">
  <ele>357.96</ele>
  <time>2026-09-01T19:50:53Z</time>
  <course>252.67</course>
  <speed>0.9013878188659973</speed>
  <fix>3d</fix>
</trkpt>
<trkpt lat="-27.2744537" lon="151.2899992">
  <ele>358.14</ele>
  <time>2026-09-01T19:50:53Z</time>
  <course>342.39</course>
  <speed>0.94</speed>
  <fix>3d</fix>
</trkpt>
<trkpt lat="-27.2744513" lon="151.2899983">
  <ele>357.96</ele>
  <time>2026-09-01T19:50:53Z</time>
  <course>254.29</course>
  <speed>0.8928605714219886</speed>
  <fix>3d</fix>
</trkpt>
<trkpt lat="-27.2744537" lon="151.2899992">
  <ele>358.14</ele>
  <time>2026-09-01T19:50:53Z</time>
  <course>342.39</course>
  <speed>0.94</speed>
  <fix>3d</fix>
</trkpt>
<trkpt lat="-27.2744506" lon="151.2899981">
  <ele>357.96</ele>
  <time>2026-09-01T19:50:53Z</time>
  <course>255.99</course>
  <speed>0.8755569655939013</speed>
  <fix>3d</fix>
</trkpt>
<trkpt lat="-27.2744521" lon="151.2899986">
  <ele>358.14</ele>
  <time>2026-09-01T19:50:53Z</time>
  <course>342.67</course>
  <speed>0.92</speed>
  <fix>3d</fix>
</trkpt>
<trkpt lat="-27.2744498" lon="151.2899979">
  <ele>357.96</ele>
  <time>2026-09-01T19:50:53Z</time>
  <course>257.62</course>
  <speed>0.8590692637965812</speed>
  <fix>3d</fix>
</trkpt>
<trkpt lat="-27.2744521" lon="151.2899986">
  <ele>358.14</ele>
  <time>2026-09-01T19:50:53Z</time>
  <course>342.67</course>
  <speed>0.92</speed>
  <fix>3d</fix>
</trkpt>
<trkpt lat="-27.274449" lon="151.2899978">
  <ele>357.95</ele>
  <time>2026-09-01T19:50:53Z</time>
  <course>259.05</course>
  <speed>0.8532877591996736</speed>
  <fix>3d</fix>
</trkpt>
<trkpt lat="-27.2744506" lon="151.2899981">
  <ele>358.15</ele>
  <time>2026-09-01T19:50:53Z</time>
  <course>345.78</course>
  <speed>0.89</speed>
  <fix>3d</fix>
</trkpt>
<trkpt lat="-27.2744483" lon="151.2899976">
  <ele>357.95</ele>
  <time>2026-09-01T19:50:53Z</time>
  <course>260.26</course>
  <speed>0.8417244204607586</speed>
  <fix>3d</fix>
</trkpt>
<trkpt lat="-27.2744506" lon="151.2899981">
  <ele>358.15</ele>
  <time>2026-09-01T19:50:53Z</time>
  <course>345.78</course>
  <speed>0.89</speed>
  <fix>3d</fix>
</trkpt>
<trkpt lat="-27.2744476" lon="151.2899975">
  <ele>357.95</ele>
  <time>2026-09-01T19:50:53Z</time>
  <course>261.21</course>
  <speed>0.8287339742040264</speed>
  <fix>3d</fix>
</trkpt>
<trkpt lat="-27.274449" lon="151.2899977">
  <ele>358.15</ele>
  <time>2026-09-01T19:50:53Z</time>
  <course>348.78</course>
  <speed>0.87</speed>
  <fix>3d</fix>
</trkpt>
<trkpt lat="-27.2744468" lon="151.2899973">
  <ele>357.95</ele>
  <time>2026-09-01T19:50:53Z</time>
  <course>261.94</course>
  <speed>0.8273451516749222</speed>
  <fix>3d</fix>
</trkpt>
<trkpt lat="-27.274449" lon="151.2899977">
  <ele>358.15</ele>
  <time>2026-09-01T19:50:53Z</time>
  <course>348.78</course>
  <speed>0.87</speed>
  <fix>3d</fix>
</trkpt>
<trkpt lat="-27.2744461" lon="151.2899972">
  <ele>357.95</ele>
  <time>2026-09-01T19:50:53Z</time>
  <course>262.5</course>
  <speed>0.8174350127074322</speed>
  <fix>3d</fix>
</trkpt>
<trkpt lat="-27.2744475" lon="151.2899974">
  <ele>358.15</ele>
  <time>2026-09-01T19:50:53Z</time>
  <course>350.98</course>
  <speed>0.85</speed>
  <fix>3d</fix>
</trkpt>
<trkpt lat="-27.2744453" lon="151.2899971">
  <ele>357.95</ele>
  <time>2026-09-01T19:50:53Z</time>
  <course>262.95</course>
  <speed>0.8062257748298549</speed>
  <fix>3d</fix>
</trkpt>
<trkpt lat="-27.2744475" lon="151.2899974">
  <ele>358.15</ele>
  <time>2026-09-01T19:50:53Z</time>
  <course>350.98</course>
  <speed>0.85</speed>
  <fix>3d</fix>
</trkpt>
<trkpt lat="-27.2744446" lon="151.289997">
  <ele>357.96</ele>
  <time>2026-09-01T19:50:53Z</time>
  <course>263.33</course>
  <speed>0.7831347265956222</speed>
  <fix>3d</fix>
</trkpt>
<trkpt lat="-27.274446" lon="151.2899971">
  <ele>358.15</ele>
  <time>2026-09-01T19:50:53Z</time>
  <course>352.34</course>
  <speed>0.83</speed>
  <fix>3d</fix>
</trkpt>
<trkpt lat="-27.274444" lon="151.289997">
  <ele>357.96</ele>
  <time>2026-09-01T19:50:53Z</time>
  <course>263.57</course>
  <speed>0.6702984409947557</speed>
  <fix>3d</fix>
</trkpt>
<trkpt lat="-27.274446" lon="151.2899971">
  <ele>358.15</ele>
  <time>2026-09-01T19:50:53Z</time>
  <course>352.34</course>
  <speed>0.83</speed>
  <fix>3d</fix>
</trkpt>
<trkpt lat="-27.2744434" lon="151.289997">
  <ele>357.96</ele>
  <time>2026-09-01T19:50:53Z</time>
  <course>263.59</course>
  <speed>0.5008991914547277</speed>
  <fix>3d</fix>
</trkpt>
<trkpt lat="-27.2744446" lon="151.289997">
  <ele>358.15</ele>
  <time>2026-09-01T19:50:53Z</time>
  <course>355.22</course>
  <speed>0.76</speed>
  <fix>3d</fix>
</trkpt>
<trkpt lat="-27.2744431" lon="151.289997">
  <ele>357.96</ele>
  <time>2026-09-01T19:50:53Z</time>
  <course>263.4</course>
  <speed>0.31622776601683794</speed>
  <fix>3d</fix>
</trkpt>
<trkpt lat="-27.2744446" lon="151.289997">
  <ele>358.15</ele>
  <time>2026-09-01T19:50:53Z</time>
  <course>355.22</course>
  <speed>0.76</speed>
  <fix>3d</fix>
</trkpt>
<trkpt lat="-27.2744429" lon="151.2899971">
  <ele>357.96</ele>
  <time>2026-09-01T19:50:53Z</time>
  <course>263.04</course>
  <speed>0.19697715603592209</speed>
  <fix>3d</fix>
</trkpt>
<trkpt lat="-27.2744434" lon="151.2899969">
  <ele>358.15</ele>
  <time>2026-09-01T19:50:53Z</time>
  <course>4.41</course>
  <speed>0.51</speed>
  <fix>3d</fix>
</trkpt>
<trkpt lat="-27.2744429" lon="151.2899973">
  <ele>357.96</ele>
  <time>2026-09-01T19:50:53Z</time>
  <course>262.59</course>
  <speed>0.295296461204668</speed>
  <fix>3d</fix>
</trkpt>
<trkpt lat="-27.2744434" lon="151.2899969">
  <ele>358.15</ele>
  <time>2026-09-01T19:50:53Z</time>
  <course>4.41</course>
  <speed>0.51</speed>
  <fix>3d</fix>
</trkpt>
<trkpt lat="-27.2744431" lon="151.2899976">
  <ele>357.95</ele>
  <time>2026-09-01T19:50:53Z</time>
  <course>262.11</course>
  <speed>0.4957822102496216</speed>
  <fix>3d</fix>
</trkpt>
<trkpt lat="-27.2744428" lon="151.2899971">
  <ele>358.14</ele>
  <time>2026-09-01T19:50:53Z</time>
  <course>57.82</course>
  <speed>0.21</speed>
  <fix>3d</fix>
</trkpt>
<trkpt lat="-27.2744435" lon="151.289998">
  <ele>357.95</ele>
  <time>2026-09-01T19:50:53Z</time>
  <course>261.67</course>
  <speed>0.7102112361825881</speed>
  <fix>3d</fix>
</trkpt>
<trkpt lat="-27.2744428" lon="151.2899971">
  <ele>358.14</ele>
  <time>2026-09-01T19:50:53Z</time>
  <course>57.82</course>
  <speed>0.21</speed>
  <fix>3d</fix>
</trkpt>
<trkpt lat="-27.2744441" lon="151.2899984">
  <ele>357.95</ele>
  <time>2026-09-01T19:50:53Z</time>
  <course>261.37</course>
  <speed>0.894427190999916</speed>
  <fix>3d</fix>
</trkpt>
<trkpt lat="-27.274443" lon="151.2899976">
  <ele>358.13</ele>
  <time>2026-09-01T19:50:53Z</time>
  <course>136.6</course>
  <speed>0.47</speed>
  <fix>3d</fix>
</trkpt>
<trkpt lat="-27.2744449" lon="151.2899988">
  <ele>357.94</ele>
  <time>2026-09-01T19:50:53Z</time>
  <course>261.36</course>
  <speed>1.0176934705499492</speed>
  <fix>3d</fix>
</trkpt>
<trkpt lat="-27.274443" lon="151.2899976">
  <ele>358.13</ele>
  <time>2026-09-01T19:50:53Z</time>
  <course>136.6</course>
  <speed>0.47</speed>
  <fix>3d</fix>
</trkpt>
<trkpt lat="-27.2744457" lon="151.2899991">
  <ele>357.94</ele>
  <time>2026-09-01T19:50:53Z</time>
  <course>261.74</course>
  <speed>1.075174404457249</speed>
  <fix>3d</fix>
</trkpt>
<trkpt lat="-27.2744439" lon="151.2899983">
  <ele>358.12</ele>
  <time>2026-09-01T19:50:53Z</time>
  <course>152.25</course>
  <speed>0.84</speed>
  <fix>3d</fix>
</trkpt>
<trkpt lat="-27.2744467" lon="151.2899994">
  <ele>357.93</ele>
  <time>2026-09-01T19:50:53Z</time>
  <course>262.35</course>
  <speed>1.1060289327137875</speed>
  <fix>3d</fix>
</trkpt>
<trkpt lat="-27.2744439" lon="151.2899983">
  <ele>358.12</ele>
  <time>2026-09-01T19:50:53Z</time>
  <course>152.25</course>
  <speed>0.84</speed>
  <fix>3d</fix>
</trkpt>
<trkpt lat="-27.2744476" lon="151.2899997">
  <ele>357.93</ele>
  <time>2026-09-01T19:50:53Z</time>
  <course>262.92</course>
  <speed>1.119866063420086</speed>
  <fix>3d</fix>
</trkpt>
<trkpt lat="-27.2744455" lon="151.2899991">
  <ele>358.11</ele>
  <time>2026-09-01T19:50:53Z</time>
  <course>160.65</course>
  <speed>1.05</speed>
  <fix>3d</fix>
</trkpt>
<trkpt lat="-27.2744486" lon="151.2899999">
  <ele>357.93</ele>
  <time>2026-09-01T19:50:53Z</time>
  <course>263.2</course>
  <speed>1.1187939935484101</speed>
  <fix>3d</fix>
</trkpt>
<trkpt lat="-27.2744455" lon="151.2899991">
  <ele>358.11</ele>
  <time>2026-09-01T19:50:53Z</time>
  <course>160.65</course>
  <speed>1.05</speed>
  <fix>3d</fix>
</trkpt>
<trkpt lat="-27.2744496" lon="151.29">
  <ele>357.93</ele>
  <time>2026-09-01T19:50:53Z</time>
  <course>263.05</course>
  <speed>1.1164676439557037</speed>
  <fix>3d</fix>
</trkpt>
<trkpt lat="-27.2744474" lon="151.2899997">
  <ele>358.11</ele>
  <time>2026-09-01T19:50:53Z</time>
  <course>168.29</course>
  <speed>1.1</speed>
  <fix>3d</fix>
</trkpt>
<trkpt lat="-27.2744505" lon="151.2900001">
  <ele>357.93</ele>
  <time>2026-09-01T19:50:53Z</time>
  <course>262.43</course>
  <speed>1.1065260954898444</speed>
  <fix>3d</fix>
</trkpt>
<trkpt lat="-27.2744474" lon="151.2899997">
  <ele>358.11</ele>
  <time>2026-09-01T19:50:53Z</time>
  <course>168.29</course>
  <speed>1.1</speed>
  <fix>3d</fix>
</trkpt>
<trkpt lat="-27.2744515" lon="151.2900002">
  <ele>357.93</ele>
  <time>2026-09-01T19:50:53Z</time>
  <course>261.4</course>
  <speed>1.0903669107231748</speed>
  <fix>3d</fix>
</trkpt>
<trkpt lat="-27.2744493" lon="151.29">
  <ele>358.11</ele>
  <time>2026-09-01T19:50:53Z</time>
  <course>172.23</course>
  <speed>1.1</speed>
  <fix>3d</fix>
</trkpt>
<trkpt lat="-27.2744524" lon="151.2900004">
  <ele>357.93</ele>
  <time>2026-09-01T19:50:53Z</time>
  <course>260.06</course>
  <speed>1.0735455276791945</speed>
  <fix>3d</fix>
</trkpt>
<trkpt lat="-27.2744493" lon="151.29">
  <ele>358.11</ele>
  <time>2026-09-01T19:50:53Z</time>
  <course>172.23</course>
  <speed>1.1</speed>
  <fix>3d</fix>
</trkpt>
<trkpt lat="-27.2744533" lon="151.2900006">
  <ele>357.93</ele>
  <time>2026-09-01T19:50:53Z</time>
  <course>258.54</course>
  <speed>1.0688779163215976</speed>
  <fix>3d</fix>
</trkpt>
<trkpt lat="-27.2744513" lon="151.2900003">
  <ele>358.11</ele>
  <time>2026-09-01T19:50:53Z</time>
  <course>171.22</course>
  <speed>1.09</speed>
  <fix>3d</fix>
</trkpt>
<trkpt lat="-27.2744542" lon="151.2900008">
  <ele>357.93</ele>
  <time>2026-09-01T19:50:53Z</time>
  <course>256.96</course>
  <speed>1.0553672346628922</speed>
  <fix>3d</fix>
</trkpt>
<trkpt lat="-27.2744513" lon="151.2900003">
  <ele>358.11</ele>
  <time>2026-09-01T19:50:53Z</time>
  <course>171.22</course>
  <speed>1.09</speed>
  <fix>3d</fix>
</trkpt>
<trkpt lat="-27.2744551" lon="151.2900011">
  <ele>357.93</ele>
  <time>2026-09-01T19:50:53Z</time>
  <course>255.46</course>
  <speed>1.0404806581575652</speed>
  <fix>3d</fix>
</trkpt>
<trkpt lat="-27.2744532" lon="151.2900007">
  <ele>358.11</ele>
  <time>2026-09-01T19:50:53Z</time>
  <course>168.52</course>
  <speed>1.06</speed>
  <fix>3d</fix>
</trkpt>
<trkpt lat="-27.274456" lon="151.2900013">
  <ele>357.93</ele>
  <time>2026-09-01T19:50:53Z</time>
  <course>254.1</course>
  <speed>1.0165136496870073</speed>
  <fix>3d</fix>
</trkpt>
<trkpt lat="-27.2744532" lon="151.2900007">
  <ele>358.11</ele>
  <time>2026-09-01T19:50:53Z</time>
  <course>168.52</course>
  <speed>1.06</speed>
  <fix>3d</fix>
</trkpt>
<trkpt lat="-27.2744568" lon="151.2900016">
  <ele>357.94</ele>
  <time>2026-09-01T19:50:53Z</time>
  <course>253.08</course>
  <speed>0.9139474820797966</speed>
  <fix>3d</fix>
</trkpt>
<trkpt lat="-27.2744551" lon="151.2900012">
  <ele>358.11</ele>
  <time>2026-09-01T19:50:53Z</time>
  <course>165.4</course>
  <speed>1.04</speed>
  <fix>3d</fix>
</trkpt>
<trkpt lat="-27.2744575" lon="151.2900019">
  <ele>357.95</ele>
  <time>2026-09-01T19:50:53Z</time>
  <course>252.56</course>
  <speed>0.7467261881037789</speed>
  <fix>3d</fix>
</trkpt>
<trkpt lat="-27.2744551" lon="151.2900012">
  <ele>358.11</ele>
  <time>2026-09-01T19:50:53Z</time>
  <course>165.4</course>
  <speed>1.04</speed>
  <fix>3d</fix>
</trkpt>
<trkpt lat="-27.2744581" lon="151.2900022">
  <ele>357.96</ele>
  <time>2026-09-01T19:50:53Z</time>
  <course>252.55</course>
  <speed>0.5554277630799526</speed>
  <fix>3d</fix>
</trkpt>
<trkpt lat="-27.2744567" lon="151.2900017">
  <ele>358.12</ele>
  <time>2026-09-01T19:50:53Z</time>
  <course>161.74</course>
  <speed>0.89</speed>
  <fix>3d</fix>
</trkpt>
<trkpt lat="-27.2744584" lon="151.2900024">
  <ele>357.97</ele>
  <time>2026-09-01T19:50:53Z</time>
  <course>252.97</course>
  <speed>0.3466987164671943</speed>
  <fix>3d</fix>
</trkpt>
<trkpt lat="-27.2744567" lon="151.2900017">
  <ele>358.12</ele>
  <time>2026-09-01T19:50:53Z</time>
  <course>161.74</course>
  <speed>0.89</speed>
  <fix>3d</fix>
</trkpt>
<trkpt lat="-27.2744586" lon="151.2900026">
  <ele>357.98</ele>
  <time>2026-09-01T19:50:53Z</time>
  <course>253.69</course>
  <speed>0.19313207915827968</speed>
  <fix>3d</fix>
</trkpt>
<trkpt lat="-27.274458" lon="151.2900023">
  <ele>358.13</ele>
  <time>2026-09-01T19:50:53Z</time>
  <course>154.69</course>
  <speed>0.56</speed>
  <fix>3d</fix>
</trkpt>
<trkpt lat="-27.2744585" lon="151.2900028">
  <ele>357.98</ele>
  <time>2026-09-01T19:50:53Z</time>
  <course>254.56</course>
  <speed>0.22671568097509268</speed>
  <fix>3d</fix>
</trkpt>
<trkpt lat="-27.274458" lon="151.2900023">
  <ele>358.13</ele>
  <time>2026-09-01T19:50:53Z</time>
  <course>154.69</course>
  <speed>0.56</speed>
  <fix>3d</fix>
</trkpt>
<trkpt lat="-27.2744583" lon="151.2900029">
  <ele>357.98</ele>
  <time>2026-09-01T19:50:53Z</time>
  <course>255.43</course>
  <speed>0.4085339643163099</speed>
  <fix>3d</fix>
</trkpt>
<trkpt lat="-27.2744585" lon="151.2900027">
  <ele>358.14</ele>
  <time>2026-09-01T19:50:53Z</time>
  <course>112.82</course>
  <speed>0.21</speed>
  <fix>3d</fix>
</trkpt>
<trkpt lat="-27.2744578" lon="151.2900031">
  <ele>357.98</ele>
  <time>2026-09-01T19:50:53Z</time>
  <course>256.09</course>
  <speed>0.5846366392897386</speed>
  <fix>3d</fix>
</trkpt>
<trkpt lat="-27.2744585" lon="151.2900027">
  <ele>358.14</ele>
  <time>2026-09-01T19:50:53Z</time>
  <course>112.82</course>
  <speed>0.21</speed>
  <fix>3d</fix>
</trkpt>
<trkpt lat="-27.2744573" lon="151.2900032">
  <ele>357.98</ele>
  <time>2026-09-01T19:50:53Z</time>
  <course>256.28</course>
  <speed>0.7071067811865476</speed>
  <fix>3d</fix>
</trkpt>
<trkpt lat="-27.2744583" lon="151.2900031">
  <ele>358.15</ele>
  <time>2026-09-01T19:50:53Z</time>
  <course>24.91</course>
  <speed>0.39</speed>
  <fix>3d</fix>
</trkpt>
<trkpt lat="-27.2744567" lon="151.2900033">
  <ele>357.98</ele>
  <time>2026-09-01T19:50:53Z</time>
  <course>255.78</course>
  <speed>0.7731752712031082</speed>
  <fix>3d</fix>
</trkpt>
<trkpt lat="-27.2744583" lon="151.2900031">
  <ele>358.15</ele>
  <time>2026-09-01T19:50:53Z</time>
  <course>24.91</course>
  <speed>0.39</speed>
  <fix>3d</fix>
</trkpt>
<trkpt lat="-27.274456" lon="151.2900034">
  <ele>357.97</ele>
  <time>2026-09-01T19:50:53Z</time>
  <course>254.65</course>
  <speed>0.8009993757800316</speed>
  <fix>3d</fix>
</trkpt>
<trkpt lat="-27.2744574" lon="151.2900034">
  <ele>358.15</ele>
  <time>2026-09-01T19:50:53Z</time>
  <course>9.94</course>
  <speed>0.68</speed>
  <fix>3d</fix>
</trkpt>
<trkpt lat="-27.2744553" lon="151.2900034">
  <ele>357.97</ele>
  <time>2026-09-01T19:50:53Z</time>
  <course>253.2</course>
  <speed>0.81</speed>
  <fix>3d</fix>
</trkpt>
<trkpt lat="-27.2744574" lon="151.2900034">
  <ele>358.15</ele>
  <time>2026-09-01T19:50:53Z</time>
  <course>9.94</course>
  <speed>0.68</speed>
  <fix>3d</fix>
</trkpt>
<trkpt lat="-27.2744546" lon="151.2900034">
  <ele>357.97</ele>
  <time>2026-09-01T19:50:53Z</time>
  <course>251.86</course>
  <speed>0.8105553651663777</speed>
  <fix>3d</fix>
</trkpt>
<trkpt lat="-27.2744561" lon="151.2900035">
  <ele>358.14</ele>
  <time>2026-09-01T19:50:53Z</time>
  <course>3.74</course>
  <speed>0.8</speed>
  <fix>3d</fix>
</trkpt>
<trkpt lat="-27.2744539" lon="151.2900035">
  <ele>357.96</ele>
  <time>2026-09-01T19:50:53Z</time>
  <course>250.97</course>
  <speed>0.8022468448052632</speed>
  <fix>3d</fix>
</trkpt>
<trkpt lat="-27.2744561" lon="151.2900035">
  <ele>358.14</ele>
  <time>2026-09-01T19:50:53Z</time>
  <course>3.74</course>
  <speed>0.8</speed>
  <fix>3d</fix>
</trkpt>
<trkpt lat="-27.2744532" lon="151.2900034">
  <ele>357.96</ele>
  <time>2026-09-01T19:50:53Z</time>
  <course>250.69</course>
  <speed>0.7840918313565064</speed>
  <fix>3d</fix>
</trkpt>
<trkpt lat="-27.2744546" lon="151.2900036">
  <ele>358.13</ele>
  <time>2026-09-01T19:50:53Z</time>
  <course>358.84</course>
  <speed>0.82</speed>
  <fix>3d</fix>
</trkpt>
<trkpt lat="-27.2744525" lon="151.2900034">
  <ele>357.95</ele>
  <time>2026-09-01T19:50:53Z</time>
  <course>251.04</course>
  <speed>0.7764663547121665</speed>
  <fix>3d</fix>
</trkpt>
<trkpt lat="-27.2744546" lon="151.2900036">
  <ele>358.13</ele>
  <time>2026-09-01T19:50:53Z</time>
  <course>358.84</course>
  <speed>0.82</speed>
  <fix>3d</fix>
</trkpt>
<trkpt lat="-27.2744518" lon="151.2900032">
  <ele>357.95</ele>
  <time>2026-09-01T19:50:53Z</time>
  <course>251.93</course>
  <speed>0.7595393340703298</speed>
  <fix>3d</fix>
</trkpt>
<trkpt lat="-27.2744531" lon="151.2900035">
  <ele>358.13</ele>
  <time>2026-09-01T19:50:53Z</time>
  <course>354.77</course>
  <speed>0.8</speed>
  <fix>3d</fix>
</trkpt>
<trkpt lat="-27.2744512" lon="151.2900031">
  <ele>357.95</ele>
  <time>2026-09-01T19:50:53Z</time>
  <course>253.22</course>
  <speed>0.7433034373659253</speed>
  <fix>3d</fix>
</trkpt>
<trkpt lat="-27.2744531" lon="151.2900035">
  <ele>358.13</ele>
  <time>2026-09-01T19:50:53Z</time>
  <course>354.77</course>
  <speed>0.8</speed>
  <fix>3d</fix>
</trkpt>
<trkpt lat="-27.2744505" lon="151.290003">
  <ele>357.95</ele>
  <time>2026-09-01T19:50:53Z</time>
  <course>254.73</course>
  <speed>0.7256721022610694</speed>
  <fix>3d</fix>
</trkpt>
<trkpt lat="-27.2744517" lon="151.2900034">
  <ele>358.12</ele>
  <time>2026-09-01T19:50:53Z</time>
  <course>351.54</course>
  <speed>0.77</speed>
  <fix>3d</fix>
</trkpt>
<trkpt lat="-27.2744499" lon="151.2900028">
  <ele>357.95</ele>
  <time>2026-09-01T19:50:53Z</time>
  <course>256.26</course>
  <speed>0.7180529228406496</speed>
  <fix>3d</fix>
</trkpt>
<trkpt lat="-27.2744517" lon="151.2900034">
  <ele>358.12</ele>
  <time>2026-09-01T19:50:53Z</time>
  <course>351.54</course>
  <speed>0.77</speed>
  <fix>3d</fix>
</trkpt>
<trkpt lat="-27.2744492" lon="151.2900027">
  <ele>357.94</ele>
  <time>2026-09-01T19:50:53Z</time>
  <course>257.7</course>
  <speed>0.7083078426785913</speed>
  <fix>3d</fix>
</trkpt>
<trkpt lat="-27.2744504" lon="151.2900031">
  <ele>358.12</ele>
  <time>2026-09-01T19:50:53Z</time>
  <course>348.9</course>
  <speed>0.75</speed>
  <fix>3d</fix>
</trkpt>
<trkpt lat="-27.2744486" lon="151.2900025">
  <ele>357.95</ele>
  <time>2026-09-01T19:50:53Z</time>
  <course>258.96</course>
  <speed>0.6942621983083913</speed>
  <fix>3d</fix>
</trkpt>
<trkpt lat="-27.2744504" lon="151.2900031">
  <ele>358.12</ele>
  <time>2026-09-01T19:50:53Z</time>
  <course>348.9</course>
  <speed>0.75</speed>
  <fix>3d</fix>
</trkpt>
<trkpt lat="-27.274448" lon="151.2900024">
  <ele>357.94</ele>
  <time>2026-09-01T19:50:53Z</time>
  <course>259.98</course>
  <speed>0.692314957226839</speed>
  <fix>3d</fix>
</trkpt>
<trkpt lat="-27.274449" lon="151.2900028">
  <ele>358.12</ele>
  <time>2026-09-01T19:50:53Z</time>
  <course>348.28</course>
  <speed>0.73</speed>
  <fix>3d</fix>
</trkpt>
<trkpt lat="-27.2744473" lon="151.2900023">
  <ele>357.95</ele>
  <time>2026-09-01T19:50:53Z</time>
  <course>260.78</course>
  <speed>0.6905070600652827</speed>
  <fix>3d</fix>
</trkpt>
<trkpt lat="-27.274449" lon="151.2900028">
  <ele>358.12</ele>
  <time>2026-09-01T19:50:53Z</time>
  <course>348.28</course>
  <speed>0.73</speed>
  <fix>3d</fix>
</trkpt>
<trkpt lat="-27.2744467" lon="151.2900022">
  <ele>357.95</ele>
  <time>2026-09-01T19:50:53Z</time>
  <course>261.38</course>
  <speed>0.6789698078707183</speed>
  <fix>3d</fix>
</trkpt>
<trkpt lat="-27.2744478" lon="151.2900025">
  <ele>358.12</ele>
  <time>2026-09-01T19:50:53Z</time>
  <course>349.78</course>
  <speed>0.71</speed>
  <fix>3d</fix>
</trkpt>
<trkpt lat="-27.2744461" lon="151.2900021">
  <ele>357.94</ele>
  <time>2026-09-01T19:50:53Z</time>
  <course>261.85</course>
  <speed>0.677421582177598</speed>
  <fix>3d</fix>
</trkpt>
<trkpt lat="-27.2744478" lon="151.2900025">
  <ele>358.12</ele>
  <time>2026-09-01T19:50:53Z</time>
  <course>349.78</course>
  <speed>0.71</speed>
  <fix>3d</fix>
</trkpt>
<trkpt lat="-27.2744455" lon="151.290002">
  <ele>357.94</ele>
  <time>2026-09-01T19:50:53Z</time>
  <course>262.24</course>
  <speed>0.6661080993352355</speed>
  <fix>3d</fix>
</trkpt>
<trkpt lat="-27.2744465" lon="151.2900024">
  <ele>358.12</ele>
  <time>2026-09-01T19:50:53Z</time>
  <course>351.26</course>
  <speed>0.7</speed>
  <fix>3d</fix>
</trkpt>
<trkpt lat="-27.2744449" lon="151.290002">
  <ele>357.95</ele>
  <time>2026-09-01T19:50:53Z</time>
  <course>262.52</course>
  <speed>0.5813776741499453</speed>
  <fix>3d</fix>
</trkpt>
<trkpt lat="-27.2744465" lon="151.2900024">
  <ele>358.12</ele>
  <time>2026-09-01T19:50:53Z</time>
  <course>351.26</course>
  <speed>0.7</speed>
  <fix>3d</fix>
</trkpt>
<trkpt lat="-27.2744444" lon="151.290002">
  <ele>357.95</ele>
  <time>2026-09-01T19:50:53Z</time>
  <course>262.6</course>
  <speed>0.44011362169330775</speed>
  <fix>3d</fix>
</trkpt>
<trkpt lat="-27.2744453" lon="151.2900022">
  <ele>358.12</ele>
  <time>2026-09-01T19:50:53Z</time>
  <course>353.83</course>
  <speed>0.65</speed>
  <fix>3d</fix>
</trkpt>
<trkpt lat="-27.2744441" lon="151.290002">
  <ele>357.95</ele>
  <time>2026-09-01T19:50:53Z</time>
  <course>262.47</course>
  <speed>0.2692582403567252</speed>
  <fix>3d</fix>
</trkpt>
<trkpt lat="-27.2744453" lon="151.2900022">
  <ele>358.12</ele>
  <time>2026-09-01T19:50:53Z</time>
  <course>353.83</course>
  <speed>0.65</speed>
  <fix>3d</fix>
</trkpt>
<trkpt lat="-27.2744439" lon="151.2900022">
  <ele>357.95</ele>
  <time>2026-09-01T19:50:53Z</time>
  <course>262.18</course>
  <speed>0.1615549442140351</speed>
  <fix>3d</fix>
</trkpt>
<trkpt lat="-27.2744443" lon="151.290002">
  <ele>358.12</ele>
  <time>2026-09-01T19:50:53Z</time>
  <course>2.3</course>
  <speed>0.45</speed>
  <fix>3d</fix>
</trkpt>
<trkpt lat="-27.274444" lon="151.2900024">
  <ele>357.95</ele>
  <time>2026-09-01T19:50:53Z</time>
  <course>261.79</course>
  <speed>0.25553864678361277</speed>
  <fix>3d</fix>
</trkpt>
<trkpt lat="-27.2744443" lon="151.290002">
  <ele>358.12</ele>
  <time>2026-09-01T19:50:53Z</time>
  <course>2.3</course>
  <speed>0.45</speed>
  <fix>3d</fix>
</trkpt>
<trkpt lat="-27.2744442" lon="151.2900026">
  <ele>357.95</ele>
  <time>2026-09-01T19:50:53Z</time>
  <course>261.35</course>
  <speed>0.45343136195018535</speed>
  <fix>3d</fix>
</trkpt>
<trkpt lat="-27.2744438" lon="151.2900022">
  <ele>358.13</ele>
  <time>2026-09-01T19:50:53Z</time>
  <course>57.61</course>
  <speed>0.18</speed>
  <fix>3d</fix>
</trkpt>
<trkpt lat="-27.2744444" lon="151.2900029">
  <ele>357.94</ele>
  <time>2026-09-01T19:50:53Z</time>
  <course>260.96</course>
  <speed>0.6519202405202649</speed>
  <fix>3d</fix>
</trkpt>
<trkpt lat="-27.2744438" lon="151.2900022">
  <ele>358.13</ele>
  <time>2026-09-01T19:50:53Z</time>
  <course>57.61</course>
  <speed>0.18</speed>
  <fix>3d</fix>
</trkpt>
<trkpt lat="-27.274445" lon="151.2900032">
  <ele>357.94</ele>
  <time>2026-09-01T19:50:53Z</time>
  <course>260.73</course>
  <speed>0.8052949770115296</speed>
  <fix>3d</fix>
</trkpt>
<trkpt lat="-27.2744439" lon="151.2900025">
  <ele>358.13</ele>
  <time>2026-09-01T19:50:53Z</time>
  <course>136.45</course>
  <speed>0.42</speed>
  <fix>3d</fix>
</trkpt>
<trkpt lat="-27.2744456" lon="151.2900036">
  <ele>357.94</ele>
  <time>2026-09-01T19:50:53Z</time>
  <course>260.81</course>
  <speed>0.8947066558375433</speed>
  <fix>3d</fix>
</trkpt>
<trkpt lat="-27.2744439" lon="151.2900025">
  <ele>358.13</ele>
  <time>2026-09-01T19:50:53Z</time>
  <course>136.45</course>
  <speed>0.42</speed>
  <fix>3d</fix>
</trkpt>
<trkpt lat="-27.2744464" lon="151.290004">
  <ele>357.94</ele>
  <time>2026-09-01T19:50:53Z</time>
  <course>261.21</course>
  <speed>0.9470480452437458</speed>
  <fix>3d</fix>
</trkpt>
<trkpt lat="-27.2744448" lon="151.2900033">
  <ele>358.12</ele>
  <time>2026-09-01T19:50:53Z</time>
  <course>150.28</course>
  <speed>0.75</speed>
  <fix>3d</fix>
</trkpt>
<trkpt lat="-27.2744471" lon="151.2900043">
  <ele>357.94</ele>
  <time>2026-09-01T19:50:53Z</time>
  <course>261.74</course>
  <speed>0.9613532129243653</speed>
  <fix>3d</fix>
</trkpt>
<trkpt lat="-27.2744448" lon="151.2900033">
  <ele>358.12</ele>
  <time>2026-09-01T19:50:53Z</time>
  <course>150.28</course>
  <speed>0.75</speed>
  <fix>3d</fix>
</trkpt>
<trkpt lat="-27.2744479" lon="151.2900046">
  <ele>357.94</ele>
  <time>2026-09-01T19:50:53Z</time>
  <course>262.15</course>
  <speed>0.9684007434941384</speed>
  <fix>3d</fix>
</trkpt>
<trkpt lat="-27.2744461" lon="151.290004">
  <ele>358.12</ele>
  <time>2026-09-01T19:50:53Z</time>
  <course>157.02</course>
  <speed>0.92</speed>
  <fix>3d</fix>
</trkpt>
<trkpt lat="-27.2744488" lon="151.2900049">
  <ele>357.94</ele>
  <time>2026-09-01T19:50:53Z</time>
  <course>262.28</course>
  <speed>0.9654014708917736</speed>
  <fix>3d</fix>
</trkpt>
<trkpt lat="-27.2744461" lon="151.290004">
  <ele>358.12</ele>
  <time>2026-09-01T19:50:53Z</time>
  <course>157.02</course>
  <speed>0.92</speed>
  <fix>3d</fix>
</trkpt>
<trkpt lat="-27.2744496" lon="151.2900051">
  <ele>357.93</ele>
  <time>2026-09-01T19:50:53Z</time>
  <course>262.02</course>
  <speed>0.9570788891204319</speed>
  <fix>3d</fix>
</trkpt>
<trkpt lat="-27.2744477" lon="151.2900047">
  <ele>358.12</ele>
  <time>2026-09-01T19:50:53Z</time>
  <course>162.77</course>
  <speed>0.96</speed>
  <fix>3d</fix>
</trkpt>
<trkpt lat="-27.2744504" lon="151.2900052">
  <ele>357.93</ele>
  <time>2026-09-01T19:50:53Z</time>
  <course>261.37</course>
  <speed>0.9503683496413378</speed>
  <fix>3d</fix>
</trkpt>
<trkpt lat="-27.2744477" lon="151.2900047">
  <ele>358.12</ele>
  <time>2026-09-01T19:50:53Z</time>
  <course>162.77</course>
  <speed>0.96</speed>
  <fix>3d</fix>
</trkpt>
<trkpt lat="-27.2744512" lon="151.2900054">
  <ele>357.93</ele>
  <time>2026-09-01T19:50:53Z</time>
  <course>260.37</course>
  <speed>0.9404786015641186</speed>
  <fix>3d</fix>
</trkpt>
<trkpt lat="-27.2744494" lon="151.2900052">
  <ele>358.12</ele>
  <time>2026-09-01T19:50:53Z</time>
  <course>167.93</course>
  <speed>0.95</speed>
  <fix>3d</fix>
</trkpt>
<trkpt lat="-27.274452" lon="151.2900056">
  <ele>357.93</ele>
  <time>2026-09-01T19:50:53Z</time>
  <course>259.13</course>
  <speed>0.932148056909416</speed>
  <fix>3d</fix>
</trkpt>
<trkpt lat="-27.2744494" lon="151.2900052">
  <ele>358.12</ele>
  <time>2026-09-01T19:50:53Z</time>
  <course>167.93</course>
  <speed>0.95</speed>
  <fix>3d</fix>
</trkpt>
<trkpt lat="-27.2744528" lon="151.2900057">
  <ele>357.93</ele>
  <time>2026-09-01T19:50:53Z</time>
  <course>257.74</course>
  <speed>0.9159148432032315</speed>
  <fix>3d</fix>
</trkpt>
<trkpt lat="-27.274451" lon="151.2900055">
  <ele>358.12</ele>
  <time>2026-09-01T19:50:53Z</time>
  <course>169.74</course>
  <speed>0.94</speed>
  <fix>3d</fix>
</trkpt>
<trkpt lat="-27.2744536" lon="151.2900059">
  <ele>357.93</ele>
  <time>2026-09-01T19:50:53Z</time>
  <course>256.32</course>
  <speed>0.9121951545584969</speed>
  <fix>3d</fix>
</trkpt>
<trkpt lat="-27.274451" lon="151.2900055">
  <ele>358.12</ele>
  <time>2026-09-01T19:50:53Z</time>
  <course>169.74</course>
  <speed>0.94</speed>
  <fix>3d</fix>
</trkpt>
<trkpt lat="-27.2744544" lon="151.2900062">
  <ele>357.93</ele>
  <time>2026-09-01T19:50:53Z</time>
  <course>254.96</course>
  <speed>0.8973850901368933</speed>
  <fix>3d</fix>
</trkpt>
<trkpt lat="-27.2744527" lon="151.290006">
  <ele>358.12</ele>
  <time>2026-09-01T19:50:53Z</time>
  <course>167.77</course>
  <speed>0.92</speed>
  <fix>3d</fix>
</trkpt>
<trkpt lat="-27.2744551" lon="151.2900064">
  <ele>357.93</ele>
  <time>2026-09-01T19:50:53Z</time>
  <course>253.74</course>
  <speed>0.8709190547921202</speed>
  <fix>3d</fix>
</trkpt>
<trkpt lat="-27.2744527" lon="151.290006">
  <ele>358.12</ele>
  <time>2026-09-01T19:50:53Z</time>
  <course>167.77</course>
  <speed>0.92</speed>
  <fix>3d</fix>
</trkpt>
<trkpt lat="-27.2744558" lon="151.2900067">
  <ele>357.94</ele>
  <time>2026-09-01T19:50:53Z</time>
  <course>252.85</course>
  <speed>0.7558438992278762</speed>
  <fix>3d</fix>
</trkpt>
<trkpt lat="-27.2744543" lon="151.2900063">
  <ele>358.12</ele>
  <time>2026-09-01T19:50:53Z</time>
  <course>164.77</course>
  <speed>0.89</speed>
  <fix>3d</fix>
</trkpt>
<trkpt lat="-27.2744564" lon="151.2900069">
  <ele>357.94</ele>
  <time>2026-09-01T19:50:53Z</time>
  <course>252.44</course>
  <speed>0.5887274411814011</speed>
  <fix>3d</fix>
</trkpt>
<trkpt lat="-27.2744543" lon="151.2900063">
  <ele>358.12</ele>
  <time>2026-09-01T19:50:53Z</time>
  <course>164.77</course>
  <speed>0.89</speed>
  <fix>3d</fix>
</trkpt>
<trkpt lat="-27.2744568" lon="151.2900071">
  <ele>357.95</ele>
  <time>2026-09-01T19:50:53Z</time>
  <course>252.49</course>
  <speed>0.40249223594996214</speed>
  <fix>3d</fix>
</trkpt>
<trkpt lat="-27.2744557" lon="151.2900068">
  <ele>358.13</ele>
  <time>2026-09-01T19:50:53Z</time>
  <course>160.86</course>
  <speed>0.74</speed>
  <fix>3d</fix>
</trkpt>
<trkpt lat="-27.274457" lon="151.2900073">
  <ele>357.95</ele>
  <time>2026-09-01T19:50:53Z</time>
  <course>252.91</course>
  <speed>0.2262741699796952</speed>
  <fix>3d</fix>
</trkpt>
<trkpt lat="-27.2744557" lon="151.2900068">
  <ele>358.13</ele>
  <time>2026-09-01T19:50:53Z</time>
  <course>160.86</course>
  <speed>0.74</speed>
  <fix>3d</fix>
</trkpt>
<trkpt lat="-27.2744571" lon="151.2900075">
  <ele>357.96</ele>
  <time>2026-09-01T19:50:53Z</time>
  <course>253.59</course>
  <speed>0.15524174696260024</speed>
  <fix>3d</fix>
</trkpt>
<trkpt lat="-27.2744567" lon="151.2900073">
  <ele>358.14</ele>
  <time>2026-09-01T19:50:53Z</time>
  <course>150.66</course>
  <speed>0.42</speed>
  <fix>3d</fix>
</trkpt>
<trkpt lat="-27.274457" lon="151.2900076">
  <ele>357.96</ele>
  <time>2026-09-01T19:50:53Z</time>
  <course>254.38</course>
  <speed>0.28653097563788804</speed>
  <fix>3d</fix>
</trkpt>
<trkpt lat="-27.2744567" lon="151.2900073">
  <ele>358.14</ele>
  <time>2026-09-01T19:50:53Z</time>
  <course>150.66</course>
  <speed>0.42</speed>
  <fix>3d</fix>
</trkpt>
<trkpt lat="-27.2744567" lon="151.2900078">
  <ele>357.97</ele>
  <time>2026-09-01T19:50:53Z</time>
  <course>255.08</course>
  <speed>0.44922154890432403</speed>
  <fix>3d</fix>
</trkpt>
<trkpt lat="-27.274457" lon="151.2900077">
  <ele>358.15</ele>
  <time>2026-09-01T19:50:53Z</time>
  <course>78.5</course>
  <speed>0.17</speed>
  <fix>3d</fix>
</trkpt>
<trkpt lat="-27.2744562" lon="151.2900079">
  <ele>357.96</ele>
  <time>2026-09-01T19:50:53Z</time>
  <course>255.43</course>
  <speed>0.570701322935211</speed>
  <fix>3d</fix>
</trkpt>
<trkpt lat="-27.274457" lon="151.2900077">
  <ele>358.15</ele>
  <time>2026-09-01T19:50:53Z</time>
  <course>78.5</course>
  <speed>0.17</speed>
  <fix>3d</fix>
</trkpt>
<trkpt lat="-27.2744557" lon="151.2900081">
  <ele>357.96</ele>
  <time>2026-09-01T19:50:53Z</time>
  <course>255.15</course>
  <speed>0.6378871373526824</speed>
  <fix>3d</fix>
</trkpt>
<trkpt lat="-27.2744566" lon="151.290008">
  <ele>358.16</ele>
  <time>2026-09-01T19:50:53Z</time>
  <course>19.85</course>
  <speed>0.43</speed>
  <fix>3d</fix>
</trkpt>
<trkpt lat="-27.2744551" lon="151.2900082">
  <ele>357.96</ele>
  <time>2026-09-01T19:50:53Z</time>
  <course>254.23</course>
  <speed>0.6846897107449476</speed>
  <fix>3d</fix>
</trkpt>
<trkpt lat="-27.2744566" lon="151.290008">
  <ele>358.16</ele>
  <time>2026-09-01T19:50:53Z</time>
  <course>19.85</course>
  <speed>0.43</speed>
  <fix>3d</fix>
</trkpt>
<trkpt lat="-27.2744545" lon="151.2900083">
  <ele>357.96</ele>
  <time>2026-09-01T19:50:53Z</time>
  <course>252.93</course>
  <speed>0.7025667228100119</speed>
  <fix>3d</fix>
</trkpt>
<trkpt lat="-27.2744557" lon="151.2900083">
  <ele>358.16</ele>
  <time>2026-09-01T19:50:53Z</time>
  <course>10.39</course>
  <speed>0.63</speed>
  <fix>3d</fix>
</trkpt>
<trkpt lat="-27.2744539" lon="151.2900083">
  <ele>357.95</ele>
  <time>2026-09-01T19:50:53Z</time>
  <course>251.64</course>
  <speed>0.70178344238091</speed>
  <fix>3d</fix>
</trkpt>
<trkpt lat="-27.2744557" lon="151.2900083">
  <ele>358.16</ele>
  <time>2026-09-01T19:50:53Z</time>
  <course>10.39</course>
  <speed>0.63</speed>
  <fix>3d</fix>
</trkpt>
<trkpt lat="-27.2744533" lon="151.2900084">
  <ele>357.95</ele>
  <time>2026-09-01T19:50:53Z</time>
  <course>250.71</course>
  <speed>0.7011419257183242</speed>
  <fix>3d</fix>
</trkpt>
<trkpt lat="-27.2744545" lon="151.2900085">
  <ele>358.16</ele>
  <time>2026-09-01T19:50:53Z</time>
  <course>6.61</course>
  <speed>0.71</speed>
  <fix>3d</fix>
</trkpt>
<trkpt lat="-27.2744527" lon="151.2900085">
  <ele>357.95</ele>
  <time>2026-09-01T19:50:53Z</time>
  <course>250.32</course>
  <speed>0.6906518659932803</speed>
  <fix>3d</fix>
</trkpt>
<trkpt lat="-27.2744545" lon="151.2900085">
  <ele>358.16</ele>
  <time>2026-09-01T19:50:53Z</time>
  <course>6.61</course>
  <speed>0.71</speed>
  <fix>3d</fix>
</trkpt>
<trkpt lat="-27.274452" lon="151.2900085">
  <ele>357.95</ele>
  <time>2026-09-01T19:50:53Z</time>
  <course>250.53</course>
  <speed>0.680294054067798</speed>
  <fix>3d</fix>
</trkpt>
<trkpt lat="-27.2744532" lon="151.2900086">
  <ele>358.16</ele>
  <time>2026-09-01T19:50:53Z</time>
  <course>4.26</course>
  <speed>0.72</speed>
  <fix>3d</fix>
</trkpt>
<trkpt lat="-27.2744514" lon="151.2900085">
  <ele>357.95</ele>
  <time>2026-09-01T19:50:53Z</time>
  <course>251.3</course>
  <speed>0.6700746227100381</speed>
  <fix>3d</fix>
</trkpt>
<trkpt lat="-27.2744532" lon="151.2900086">
  <ele>358.16</ele>
  <time>2026-09-01T19:50:53Z</time>
  <course>4.26</course>
  <speed>0.72</speed>
  <fix>3d</fix>
</trkpt>
<trkpt lat="-27.2744508" lon="151.2900086">
  <ele>357.95</ele>
  <time>2026-09-01T19:50:53Z</time>
  <course>252.45</course>
  <speed>0.66007575322837</speed>
  <fix>3d</fix>
</trkpt>
<trkpt lat="-27.274452" lon="151.2900087">
  <ele>358.16</ele>
  <time>2026-09-01T19:50:53Z</time>
  <course>2.77</course>
  <speed>0.7</speed>
  <fix>3d</fix>
</trkpt>
<trkpt lat="-27.2744502" lon="151.2900086">
  <ele>357.94</ele>
  <time>2026-09-01T19:50:53Z</time>
  <course>253.84</course>
  <speed>0.65</speed>
  <fix>3d</fix>
</trkpt>
<trkpt lat="-27.274452" lon="151.2900087">
  <ele>358.16</ele>
  <time>2026-09-01T19:50:53Z</time>
  <course>2.77</course>
  <speed>0.7</speed>
  <fix>3d</fix>
</trkpt>
<trkpt lat="-27.2744496" lon="151.2900086">
  <ele>357.94</ele>
  <time>2026-09-01T19:50:53Z</time>
  <course>255.3</course>
  <speed>0.64</speed>
  <fix>3d</fix>
</trkpt>
<trkpt lat="-27.2744507" lon="151.2900087">
  <ele>358.16</ele>
  <time>2026-09-01T19:50:53Z</time>
  <course>1.89</course>
  <speed>0.68</speed>
  <fix>3d</fix>
</trkpt>
<trkpt lat="-27.2744491" lon="151.2900086">
  <ele>357.94</ele>
  <time>2026-09-01T19:50:53Z</time>
  <course>256.69</course>
  <speed>0.63</speed>
  <fix>3d</fix>
</trkpt>
<trkpt lat="-27.2744507" lon="151.2900087">
  <ele>358.16</ele>
  <time>2026-09-01T19:50:53Z</time>
  <course>1.89</course>
  <speed>0.68</speed>
  <fix>3d</fix>
</trkpt>
<trkpt lat="-27.2744485" lon="151.2900086">
  <ele>357.94</ele>
  <time>2026-09-01T19:50:53Z</time>
  <course>257.93</course>
  <speed>0.62</speed>
  <fix>3d</fix>
</trkpt>
<trkpt lat="-27.2744495" lon="151.2900087">
  <ele>358.16</ele>
  <time>2026-09-01T19:50:53Z</time>
  <course>1.5</course>
  <speed>0.66</speed>
  <fix>3d</fix>
</trkpt>
<trkpt lat="-27.2744479" lon="151.2900087">
  <ele>357.94</ele>
  <time>2026-09-01T19:50:53Z</time>
  <course>258.95</course>
  <speed>0.61</speed>
  <fix>3d</fix>
</trkpt>
<trkpt lat="-27.2744495" lon="151.2900087">
  <ele>358.16</ele>
  <time>2026-09-01T19:50:53Z</time>
  <course>1.5</course>
  <speed>0.66</speed>
  <fix>3d</fix>
</trkpt>
<trkpt lat="-27.2744474" lon="151.2900087">
  <ele>357.94</ele>
  <time>2026-09-01T19:50:53Z</time>
  <course>259.75</course>
  <speed>0.6100819617067857</speed>
  <fix>3d</fix>
</trkpt>
<trkpt lat="-27.2744483" lon="151.2900088">
  <ele>358.16</ele>
  <time>2026-09-01T19:50:53Z</time>
  <course>1.48</course>
  <speed>0.64</speed>
  <fix>3d</fix>
</trkpt>
<trkpt lat="-27.2744468" lon="151.2900087">
  <ele>357.95</ele>
  <time>2026-09-01T19:50:53Z</time>
  <course>260.35</course>
  <speed>0.6000833275470999</speed>
  <fix>3d</fix>
</trkpt>
<trkpt lat="-27.2744483" lon="151.2900088">
  <ele>358.16</ele>
  <time>2026-09-01T19:50:53Z</time>
  <course>1.48</course>
  <speed>0.64</speed>
  <fix>3d</fix>
</trkpt>
<trkpt lat="-27.2744463" lon="151.2900087">
  <ele>357.95</ele>
  <time>2026-09-01T19:50:53Z</time>
  <course>260.82</course>
  <speed>0.6000833275470999</speed>
  <fix>3d</fix>
</trkpt>
<trkpt lat="-27.2744472" lon="151.2900089">
  <ele>358.16</ele>
  <time>2026-09-01T19:50:53Z</time>
  <course>1.8</course>
  <speed>0.63</speed>
  <fix>3d</fix>
</trkpt>
<trkpt lat="-27.2744457" lon="151.2900088">
  <ele>357.96</ele>
  <time>2026-09-01T19:50:53Z</time>
  <course>261.2</course>
  <speed>0.5903388857258176</speed>
  <fix>3d</fix>
</trkpt>
<trkpt lat="-27.2744472" lon="151.2900089">
  <ele>358.16</ele>
  <time>2026-09-01T19:50:53Z</time>
  <course>1.8</course>
  <speed>0.63</speed>
  <fix>3d</fix>
</trkpt>
<trkpt lat="-27.2744452" lon="151.2900088">
  <ele>357.96</ele>
  <time>2026-09-01T19:50:53Z</time>
  <course>261.48</course>
  <speed>0.5208646657242167</speed>
  <fix>3d</fix>
</trkpt>
<trkpt lat="-27.274446" lon="151.2900089">
  <ele>358.16</ele>
  <time>2026-09-01T19:50:53Z</time>
  <course>2.37</course>
  <speed>0.62</speed>
  <fix>3d</fix>
</trkpt>
<trkpt lat="-27.2744448" lon="151.2900089">
  <ele>357.96</ele>
  <time>2026-09-01T19:50:53Z</time>
  <course>261.56</course>
  <speed>0.388329756778952</speed>
  <fix>3d</fix>
</trkpt>
<trkpt lat="-27.274446" lon="151.2900089">
  <ele>358.16</ele>
  <time>2026-09-01T19:50:53Z</time>
  <course>2.37</course>
  <speed>0.62</speed>
  <fix>3d</fix>
</trkpt>
<trkpt lat="-27.2744445" lon="151.290009">
  <ele>357.96</ele>
  <time>2026-09-01T19:50:53Z</time>
  <course>261.44</course>
  <speed>0.260768096208106</speed>
  <fix>3d</fix>
</trkpt>
<trkpt lat="-27.274445" lon="151.290009">
  <ele>358.16</ele>
  <time>2026-09-01T19:50:53Z</time>
  <course>6.49</course>
  <speed>0.52</speed>
  <fix>3d</fix>
</trkpt>
<trkpt lat="-27.2744443" lon="151.2900092">
  <ele>357.96</ele>
  <time>2026-09-01T19:50:53Z</time>
  <course>261.17</course>
  <speed>0.21377558326431947</speed>
  <fix>3d</fix>
</trkpt>
<trkpt lat="-27.274445" lon="151.290009">
  <ele>358.16</ele>
  <time>2026-09-01T19:50:53Z</time>
  <course>6.49</course>
  <speed>0.52</speed>
  <fix>3d</fix>
</trkpt>
<trkpt lat="-27.2744444" lon="151.2900095">
  <ele>357.96</ele>
  <time>2026-09-01T19:50:53Z</time>
  <course>260.8</course>
  <speed>0.31304951684997057</speed>
  <fix>3d</fix>
</trkpt>
<trkpt lat="-27.2744442" lon="151.2900092">
  <ele>358.16</ele>
  <time>2026-09-01T19:50:53Z</time>
  <course>31.41</course>
  <speed>0.29</speed>
  <fix>3d</fix>
</trkpt>
<trkpt lat="-27.2744446" lon="151.2900098">
  <ele>357.96</ele>
  <time>2026-09-01T19:50:53Z</time>
  <course>260.38</course>
  <speed>0.4738143096192854</speed>
  <fix>3d</fix>
</trkpt>
<trkpt lat="-27.2744442" lon="151.2900092">
  <ele>358.16</ele>
  <time>2026-09-01T19:50:53Z</time>
  <course>31.41</course>
  <speed>0.29</speed>
  <fix>3d</fix>
</trkpt>
<trkpt lat="-27.2744449" lon="151.2900102">
  <ele>357.96</ele>
  <time>2026-09-01T19:50:53Z</time>
  <course>260.03</course>
  <speed>0.6341135544995076</speed>
  <fix>3d</fix>
</trkpt>
<trkpt lat="-27.274444" lon="151.2900096">
  <ele>358.16</ele>
  <time>2026-09-01T19:50:53Z</time>
  <course>111.27</course>
  <speed>0.3</speed>
  <fix>3d</fix>
</trkpt>
<trkpt lat="-27.2744454" lon="151.2900106">
  <ele>357.97</ele>
  <time>2026-09-01T19:50:53Z</time>
  <course>259.89</course>
  <speed>0.7462573282722254</speed>
  <fix>3d</fix>
</trkpt>
<trkpt lat="-27.274444" lon="151.2900096">
  <ele>358.16</ele>
  <time>2026-09-01T19:50:53Z</time>
  <course>111.27</course>
  <speed>0.3</speed>
  <fix>3d</fix>
</trkpt>
<trkpt lat="-27.274446" lon="151.290011">
  <ele>357.97</ele>
  <time>2026-09-01T19:50:53Z</time>
  <course>260.09</course>
  <speed>0.8062257748298549</speed>
  <fix>3d</fix>
</trkpt>
<trkpt lat="-27.2744445" lon="151.2900104">
  <ele>358.16</ele>
  <time>2026-09-01T19:50:53Z</time>
  <course>139.57</course>
  <speed>0.59</speed>
  <fix>3d</fix>
</trkpt>
<trkpt lat="-27.2744465" lon="151.2900114">
  <ele>357.97</ele>
  <time>2026-09-01T19:50:53Z</time>
  <course>260.55</course>
  <speed>0.8407734534343958</speed>
  <fix>3d</fix>
</trkpt>
<trkpt lat="-27.2744445" lon="151.2900104">
  <ele>358.16</ele>
  <time>2026-09-01T19:50:53Z</time>
  <course>139.57</course>
  <speed>0.59</speed>
  <fix>3d</fix>
</trkpt>
<trkpt lat="-27.2744471" lon="151.2900118">
  <ele>357.97</ele>
  <time>2026-09-01T19:50:53Z</time>
  <course>261.05</course>
  <speed>0.85492689745966</speed>
  <fix>3d</fix>
</trkpt>
<trkpt lat="-27.2744456" lon="151.2900111">
  <ele>358.16</ele>
  <time>2026-09-01T19:50:53Z</time>
  <course>148.81</course>
  <speed>0.78</speed>
  <fix>3d</fix>
</trkpt>
<trkpt lat="-27.2744478" lon="151.2900121">
  <ele>357.98</ele>
  <time>2026-09-01T19:50:53Z</time>
  <course>261.39</course>
  <speed>0.8486459803710851</speed>
  <fix>3d</fix>
</trkpt>
<trkpt lat="-27.2744456" lon="151.2900111">
  <ele>358.16</ele>
  <time>2026-09-01T19:50:53Z</time>
  <course>148.81</course>
  <speed>0.78</speed>
  <fix>3d</fix>
</trkpt>
<trkpt lat="-27.2744485" lon="151.2900124">
  <ele>357.98</ele>
  <time>2026-09-01T19:50:53Z</time>
  <course>261.41</course>
  <speed>0.8475848040166837</speed>
  <fix>3d</fix>
</trkpt>
<trkpt lat="-27.2744469" lon="151.2900119">
  <ele>358.15</ele>
  <time>2026-09-01T19:50:53Z</time>
  <course>154.58</course>
  <speed>0.84</speed>
  <fix>3d</fix>
</trkpt>
<trkpt lat="-27.2744492" lon="151.2900127">
  <ele>357.98</ele>
  <time>2026-09-01T19:50:53Z</time>
  <course>261.04</course>
  <speed>0.835224520712844</speed>
  <fix>3d</fix>
</trkpt>
<trkpt lat="-27.2744469" lon="151.2900119">
  <ele>358.15</ele>
  <time>2026-09-01T19:50:53Z</time>
  <course>154.58</course>
  <speed>0.84</speed>
  <fix>3d</fix>
</trkpt>
<trkpt lat="-27.2744499" lon="151.2900129">
  <ele>357.98</ele>
  <time>2026-09-01T19:50:53Z</time>
  <course>260.27</course>
  <speed>0.8222530024268686</speed>
  <fix>3d</fix>
</trkpt>
<trkpt lat="-27.2744482" lon="151.2900126">
  <ele>358.15</ele>
  <time>2026-09-01T19:50:53Z</time>
  <course>159.69</course>
  <speed>0.84</speed>
  <fix>3d</fix>
</trkpt>
<trkpt lat="-27.2744506" lon="151.2900131">
  <ele>357.97</ele>
  <time>2026-09-01T19:50:53Z</time>
  <course>259.21</course>
  <speed>0.8158431221748456</speed>
  <fix>3d</fix>
</trkpt>
<trkpt lat="-27.2744497" lon="151.2900131">
  <ele>358.15</ele>
  <time>2026-09-01T19:50:53Z</time>
  <course>164.8</course>
  <speed>0.82</speed>
  <fix>3d</fix>
</trkpt>
<trkpt lat="-27.2744513" lon="151.2900133">
  <ele>357.97</ele>
  <time>2026-09-01T19:50:53Z</time>
  <course>257.94</course>
  <speed>0.804114419718985</speed>
  <fix>3d</fix>
</trkpt>
<trkpt lat="-27.2744497" lon="151.2900131">
  <ele>358.15</ele>
  <time>2026-09-01T19:50:53Z</time>
  <course>164.8</course>
  <speed>0.82</speed>
  <fix>3d</fix>
</trkpt>
<trkpt lat="-27.2744519" lon="151.2900135">
  <ele>357.97</ele>
  <time>2026-09-01T19:50:53Z</time>
  <course>256.58</course>
  <speed>0.7983107164506812</speed>
  <fix>3d</fix>
</trkpt>
<trkpt lat="-27.2744497" lon="151.2900131">
  <ele>358.15</ele>
  <time>2026-09-01T19:50:53Z</time>
  <course>164.8</course>
  <speed>0.82</speed>
  <fix>3d</fix>
</trkpt>
<trkpt lat="-27.2744526" lon="151.2900137">
  <ele>357.97</ele>
  <time>2026-09-01T19:50:53Z</time>
  <course>255.18</course>
  <speed>0.7930952023559341</speed>
  <fix>3d</fix>
</trkpt>
<trkpt lat="-27.2744511" lon="151.2900134">
  <ele>358.15</ele>
  <time>2026-09-01T19:50:53Z</time>
  <course>167.06</course>
  <speed>0.8</speed>
  <fix>3d</fix>
</trkpt>
<trkpt lat="-27.2744533" lon="151.2900139">
  <ele>357.98</ele>
  <time>2026-09-01T19:50:53Z</time>
  <course>253.86</course>
  <speed>0.78587530817554</speed>
  <fix>3d</fix>
</trkpt>
<trkpt lat="-27.2744511" lon="151.2900134">
  <ele>358.15</ele>
  <time>2026-09-01T19:50:53Z</time>
  <course>167.06</course>
  <speed>0.8</speed>
  <fix>3d</fix>
</trkpt>
<trkpt lat="-27.2744539" lon="151.2900141">
  <ele>357.98</ele>
  <time>2026-09-01T19:50:53Z</time>
  <course>252.67</course>
  <speed>0.7433034373659253</speed>
  <fix>3d</fix>
</trkpt>
<trkpt lat="-27.2744525" lon="151.2900139">
  <ele>358.15</ele>
  <time>2026-09-01T19:50:53Z</time>
  <course>165.31</course>
  <speed>0.79</speed>
  <fix>3d</fix>
</trkpt>
<trkpt lat="-27.2744545" lon="151.2900143">
  <ele>357.98</ele>
  <time>2026-09-01T19:50:53Z</time>
  <course>251.84</course>
  <speed>0.6390618123468184</speed>
  <fix>3d</fix>
</trkpt>
<trkpt lat="-27.2744525" lon="151.2900139">
  <ele>358.15</ele>
  <time>2026-09-01T19:50:53Z</time>
  <course>165.31</course>
  <speed>0.79</speed>
  <fix>3d</fix>
</trkpt>
<trkpt lat="-27.2744549" lon="151.2900146">
  <ele>357.98</ele>
  <time>2026-09-01T19:50:53Z</time>
  <course>251.48</course>
  <speed>0.4833218389437829</speed>
  <fix>3d</fix>
</trkpt>
<trkpt lat="-27.2744538" lon="151.2900143">
  <ele>358.15</ele>
  <time>2026-09-01T19:50:53Z</time>
  <course>161.5</course>
  <speed>0.71</speed>
  <fix>3d</fix>
</trkpt>
<trkpt lat="-27.2744552" lon="151.2900148">
  <ele>357.97</ele>
  <time>2026-09-01T19:50:53Z</time>
  <course>251.55</course>
  <speed>0.32202484376209234</speed>
  <fix>3d</fix>
</trkpt>
<trkpt lat="-27.2744538" lon="151.2900143">
  <ele>358.15</ele>
  <time>2026-09-01T19:50:53Z</time>
  <course>161.5</course>
  <speed>0.71</speed>
  <fix>3d</fix>
</trkpt>
<trkpt lat="-27.2744554" lon="151.290015">
  <ele>357.97</ele>
  <time>2026-09-01T19:50:53Z</time>
  <course>251.99</course>
  <speed>0.18384776310850234</speed>
  <fix>3d</fix>
</trkpt>
<trkpt lat="-27.2744549" lon="151.2900148">
  <ele>358.15</ele>
  <time>2026-09-01T19:50:53Z</time>
  <course>153.01</course>
  <speed>0.48</speed>
  <fix>3d</fix>
</trkpt>
<trkpt lat="-27.2744553" lon="151.2900152">
  <ele>357.96</ele>
  <time>2026-09-01T19:50:53Z</time>
  <course>252.65</course>
  <speed>0.18601075237738274</speed>
  <fix>3d</fix>
</trkpt>
<trkpt lat="-27.2744549" lon="151.2900148">
  <ele>358.15</ele>
  <time>2026-09-01T19:50:53Z</time>
  <course>153.01</course>
  <speed>0.48</speed>
  <fix>3d</fix>
</trkpt>
<trkpt lat="-27.2744551" lon="151.2900153">
  <ele>357.96</ele>
  <time>2026-09-01T19:50:53Z</time>
  <course>253.38</course>
  <speed>0.32202484376209234</speed>
  <fix>3d</fix>
</trkpt>
<trkpt lat="-27.2744553" lon="151.2900151">
  <ele>358.14</ele>
  <time>2026-09-01T19:50:53Z</time>
  <course>111.39</course>
  <speed>0.2</speed>
  <fix>3d</fix>
</trkpt>
<trkpt lat="-27.2744548" lon="151.2900155">
  <ele>357.95</ele>
  <time>2026-09-01T19:50:53Z</time>
  <course>253.9</course>
  <speed>0.4464302857109943</speed>
  <fix>3d</fix>
</trkpt>
<trkpt lat="-27.2744553" lon="151.2900151">
  <ele>358.14</ele>
  <time>2026-09-01T19:50:53Z</time>
  <course>111.39</course>
  <speed>0.2</speed>
  <fix>3d</fix>
</trkpt>
<trkpt lat="-27.2744544" lon="151.2900156">
  <ele>357.95</ele>
  <time>2026-09-01T19:50:53Z</time>
  <course>253.93</course>
  <speed>0.5197114584074513</speed>
  <fix>3d</fix>
</trkpt>
<trkpt lat="-27.2744552" lon="151.2900155">
  <ele>358.13</ele>
  <time>2026-09-01T19:50:53Z</time>
  <course>28.92</course>
  <speed>0.31</speed>
  <fix>3d</fix>
</trkpt>
<trkpt lat="-27.274454" lon="151.2900157">
  <ele>357.95</ele>
  <time>2026-09-01T19:50:53Z</time>
  <course>253.29</course>
  <speed>0.5770615218501404</speed>
  <fix>3d</fix>
</trkpt>
<trkpt lat="-27.2744552" lon="151.2900155">
  <ele>358.13</ele>
  <time>2026-09-01T19:50:53Z</time>
  <course>28.92</course>
  <speed>0.31</speed>
  <fix>3d</fix>
</trkpt>
<trkpt lat="-27.2744535" lon="151.2900158">
  <ele>357.94</ele>
  <time>2026-09-01T19:50:53Z</time>
  <course>252.13</course>
  <speed>0.5953990258641678</speed>
  <fix>3d</fix>
</trkpt>
<trkpt lat="-27.2744545" lon="151.2900158">
  <ele>358.12</ele>
  <time>2026-09-01T19:50:53Z</time>
  <course>13.25</course>
  <speed>0.52</speed>
  <fix>3d</fix>
</trkpt>
<trkpt lat="-27.274453" lon="151.2900159">
  <ele>357.94</ele>
  <time>2026-09-01T19:50:53Z</time>
  <course>250.77</course>
  <speed>0.6140032573203501</speed>
  <fix>3d</fix>
</trkpt>
<trkpt lat="-27.2744545" lon="151.2900158">
  <ele>358.12</ele>
  <time>2026-09-01T19:50:53Z</time>
  <course>13.25</course>
  <speed>0.52</speed>
  <fix>3d</fix>
</trkpt>
<trkpt lat="-27.2744524" lon="151.290016">
  <ele>357.94</ele>
  <time>2026-09-01T19:50:53Z</time>
  <course>249.47</course>
  <speed>0.6129437168288782</speed>
  <fix>3d</fix>
</trkpt>
<trkpt lat="-27.2744534" lon="151.2900159">
  <ele>358.12</ele>
  <time>2026-09-01T19:50:53Z</time>
  <course>8.8</course>
  <speed>0.61</speed>
  <fix>3d</fix>
</trkpt>
<trkpt lat="-27.2744519" lon="151.290016">
  <ele>357.93</ele>
  <time>2026-09-01T19:50:53Z</time>
  <course>248.47</course>
  <speed>0.6129437168288782</speed>
  <fix>3d</fix>
</trkpt>
<trkpt lat="-27.2744534" lon="151.2900159">
  <ele>358.12</ele>
  <time>2026-09-01T19:50:53Z</time>
  <course>8.8</course>
  <speed>0.61</speed>
  <fix>3d</fix>
</trkpt>
<trkpt lat="-27.2744513" lon="151.2900161">
  <ele>357.93</ele>
  <time>2026-09-01T19:50:53Z</time>
  <course>247.82</course>
  <speed>0.6029925372672534</speed>
  <fix>3d</fix>
</trkpt>
<trkpt lat="-27.2744523" lon="151.2900162">
  <ele>358.12</ele>
  <time>2026-09-01T19:50:53Z</time>
  <course>6.92</course>
  <speed>0.63</speed>
  <fix>3d</fix>
</trkpt>
<trkpt lat="-27.2744508" lon="151.2900162">
  <ele>357.93</ele>
  <time>2026-09-01T19:50:53Z</time>
  <course>247.59</course>
  <speed>0.5261178575186363</speed>
  <fix>3d</fix>
</trkpt>
<trkpt lat="-27.2744512" lon="151.2900163">
  <ele>358.12</ele>
  <time>2026-09-01T19:50:53Z</time>
  <course>7.86</course>
  <speed>0.59</speed>
  <fix>3d</fix>
</trkpt>
<trkpt lat="-27.2744504" lon="151.2900163">
  <ele>357.93</ele>
  <time>2026-09-01T19:50:53Z</time>
  <course>247.68</course>
  <speed>0.4143669871020132</speed>
  <fix>3d</fix>
</trkpt>
<trkpt lat="-27.2744512" lon="151.2900163">
  <ele>358.12</ele>
  <time>2026-09-01T19:50:53Z</time>
  <course>7.86</course>
  <speed>0.59</speed>
  <fix>3d</fix>
</trkpt>
<trkpt lat="-27.2744501" lon="151.2900165">
  <ele>357.94</ele>
  <time>2026-09-01T19:50:53Z</time>
  <course>247.97</course>
  <speed>0.3255764119219941</speed>
  <fix>3d</fix>
</trkpt>
<trkpt lat="-27.2744503" lon="151.2900165">
  <ele>358.12</ele>
  <time>2026-09-01T19:50:53Z</time>
  <course>20.97</course>
  <speed>0.44</speed>
  <fix>3d</fix>
</trkpt>
<trkpt lat="-27.2744499" lon="151.2900168">
  <ele>357.94</ele>
  <time>2026-09-01T19:50:53Z</time>
  <course>248.38</course>
  <speed>0.32280024783137945</speed>
  <fix>3d</fix>
</trkpt>
<trkpt lat="-27.2744503" lon="151.2900165">
  <ele>358.12</ele>
  <time>2026-09-01T19:50:53Z</time>
  <course>20.97</course>
  <speed>0.44</speed>
  <fix>3d</fix>
</trkpt>
<trkpt lat="-27.2744499" lon="151.2900172">
  <ele>357.94</ele>
  <time>2026-09-01T19:50:53Z</time>
  <course>248.79</course>
  <speed>0.4044749683231337</speed>
  <fix>3d</fix>
</trkpt>
<trkpt lat="-27.2744498" lon="151.290017">
  <ele>358.12</ele>
  <time>2026-09-01T19:50:53Z</time>
  <course>67.35</course>
  <speed>0.34</speed>
  <fix>3d</fix>
</trkpt>
<trkpt lat="-27.27445" lon="151.2900177">
  <ele>357.94</ele>
  <time>2026-09-01T19:50:53Z</time>
  <course>249.1</course>
  <speed>0.5239274758971895</speed>
  <fix>3d</fix>
</trkpt>
<trkpt lat="-27.2744498" lon="151.290017">
  <ele>358.12</ele>
  <time>2026-09-01T19:50:53Z</time>
  <course>67.35</course>
  <speed>0.34</speed>
  <fix>3d</fix>
</trkpt>
<trkpt lat="-27.2744502" lon="151.2900182">
  <ele>357.94</ele>
  <time>2026-09-01T19:50:53Z</time>
  <course>249.25</course>
  <speed>0.6191122676865642</speed>
  <fix>3d</fix>
</trkpt>
<trkpt lat="-27.2744498" lon="151.2900178">
  <ele>358.13</ele>
  <time>2026-09-01T19:50:53Z</time>
  <course>108.38</course>
  <speed>0.49</speed>
  <fix>3d</fix>
</trkpt>
<trkpt lat="-27.2744505" lon="151.2900187">
  <ele>357.94</ele>
  <time>2026-09-01T19:50:53Z</time>
  <course>249.24</course>
  <speed>0.6881860213634101</speed>
  <fix>3d</fix>
</trkpt>
<trkpt lat="-27.2744498" lon="151.2900178">
  <ele>358.13</ele>
  <time>2026-09-01T19:50:53Z</time>
  <course>108.38</course>
  <speed>0.49</speed>
  <fix>3d</fix>
</trkpt>
<trkpt lat="-27.2744508" lon="151.2900193">
  <ele>357.94</ele>
  <time>2026-09-01T19:50:53Z</time>
  <course>249.1</course>
  <speed>0.7184010022264724</speed>
  <fix>3d</fix>
</trkpt>
<trkpt lat="-27.2744503" lon="151.2900189">
  <ele>358.13</ele>
  <time>2026-09-01T19:50:53Z</time>
  <course>122.76</course>
  <speed>0.66</speed>
  <fix>3d</fix>
</trkpt>
<trkpt lat="-27.2744512" lon="151.2900199">
  <ele>357.95</ele>
  <time>2026-09-01T19:50:54Z</time>
  <course>248.88</course>
  <speed>0.737563556583431</speed>
  <fix>3d</fix>
</trkpt>
<trkpt lat="-27.2744503" lon="151.2900189">
  <ele>358.13</ele>
  <time>2026-09-01T19:50:54Z</time>
  <course>122.76</course>
  <speed>0.66</speed>
  <fix>3d</fix>
</trkpt>
<trkpt lat="-27.2744516" lon="151.2900204">
  <ele>357.95</ele>
  <time>2026-09-01T19:50:54Z</time>
  <course>248.61</course>
  <speed>0.7433034373659253</speed>
  <fix>3d</fix>
</trkpt>
<trkpt lat="-27.2744503" lon="151.2900189">
  <ele>358.13</ele>
  <time>2026-09-01T19:50:54Z</time>
  <course>122.76</course>
  <speed>0.66</speed>
  <fix>3d</fix>
</trkpt>
<trkpt lat="-27.2744521" lon="151.290021">
  <ele>357.95</ele>
  <time>2026-09-01T19:50:54Z</time>
  <course>248.35</course>
  <speed>0.7424957912338628</speed>
  <fix>3d</fix>
</trkpt>
<trkpt lat="-27.274451" lon="151.29002">
  <ele>358.13</ele>
  <time>2026-09-01T19:50:54Z</time>
  <course>128.66</course>
  <speed>0.72</speed>
  <fix>3d</fix>
</trkpt>
<trkpt lat="-27.2744525" lon="151.2900215">
  <ele>357.95</ele>
  <time>2026-09-01T19:50:54Z</time>
  <course>248.14</course>
  <speed>0.7355270219373317</speed>
  <fix>3d</fix>
</trkpt>
<trkpt lat="-27.274451" lon="151.29002">
  <ele>358.13</ele>
  <time>2026-09-01T19:50:54Z</time>
  <course>128.66</course>
  <speed>0.72</speed>
  <fix>3d</fix>
</trkpt>
<trkpt lat="-27.2744529" lon="151.290022">
  <ele>357.95</ele>
  <time>2026-09-01T19:50:54Z</time>
  <course>248.0</course>
  <speed>0.7218032973047436</speed>
  <fix>3d</fix>
</trkpt>
<trkpt lat="-27.2744518" lon="151.2900211">
  <ele>358.14</ele>
  <time>2026-09-01T19:50:54Z</time>
  <course>132.4</course>
  <speed>0.73</speed>
  <fix>3d</fix>
</trkpt>
<trkpt lat="-27.2744534" lon="151.2900225">
  <ele>357.95</ele>
  <time>2026-09-01T19:50:54Z</time>
  <course>247.95</course>
  <speed>0.6942621983083913</speed>
  <fix>3d</fix>
</trkpt>
<trkpt lat="-27.2744518" lon="151.2900211">
  <ele>358.14</ele>
  <time>2026-09-01T19:50:54Z</time>
  <course>132.4</course>
  <speed>0.73</speed>
  <fix>3d</fix>
</trkpt>
<trkpt lat="-27.2744538" lon="151.290023">
  <ele>357.95</ele>
  <time>2026-09-01T19:50:54Z</time>
  <course>247.98</course>
  <speed>0.594138031100518</speed>
  <fix>3d</fix>
</trkpt>
<trkpt lat="-27.2744527" lon="151.2900221">
  <ele>358.14</ele>
  <time>2026-09-01T19:50:54Z</time>
  <course>135.2</course>
  <speed>0.7</speed>
  <fix>3d</fix>
</trkpt>
<trkpt lat="-27.2744541" lon="151.2900234">
  <ele>357.95</ele>
  <time>2026-09-01T19:50:54Z</time>
  <course>248.08</course>
  <speed>0.47010637094172636</speed>
  <fix>3d</fix>
</trkpt>
<trkpt lat="-27.2744527" lon="151.2900221">
  <ele>358.14</ele>
  <time>2026-09-01T19:50:54Z</time>
  <course>135.2</course>
  <speed>0.7</speed>
  <fix>3d</fix>
</trkpt>
<trkpt lat="-27.2744542" lon="151.2900237">
  <ele>357.95</ele>
  <time>2026-09-01T19:50:54Z</time>
  <course>248.26</course>
  <speed>0.3453983207834109</speed>
  <fix>3d</fix>
</trkpt>
<trkpt lat="-27.2744535" lon="151.2900231">
  <ele>358.14</ele>
  <time>2026-09-01T19:50:54Z</time>
  <course>132.38</course>
  <speed>0.58</speed>
  <fix>3d</fix>
</trkpt>
<trkpt lat="-27.2744543" lon="151.290024">
  <ele>357.95</ele>
  <time>2026-09-01T19:50:54Z</time>
  <course>248.47</course>
  <speed>0.280713376952364</speed>
  <fix>3d</fix>
</trkpt>
<trkpt lat="-27.2744535" lon="151.2900231">
  <ele>358.14</ele>
  <time>2026-09-01T19:50:54Z</time>
  <course>132.38</course>
  <speed>0.58</speed>
  <fix>3d</fix>
</trkpt>
<trkpt lat="-27.2744541" lon="151.2900243">
  <ele>357.95</ele>
  <time>2026-09-01T19:50:54Z</time>
  <course>248.7</course>
  <speed>0.3080584360149873</speed>
  <fix>3d</fix>
</trkpt>
<trkpt lat="-27.274454" lon="151.2900239">
  <ele>358.15</ele>
  <time>2026-09-01T19:50:54Z</time>
  <course>109.91</course>
  <speed>0.36</speed>
  <fix>3d</fix>
</trkpt>
<trkpt lat="-27.2744539" lon="151.2900246">
  <ele>357.95</ele>
  <time>2026-09-01T19:50:54Z</time>
  <course>248.95</course>
  <speed>0.388329756778952</speed>
  <fix>3d</fix>
</trkpt>
<trkpt lat="-27.274454" lon="151.2900245">
  <ele>358.15</ele>
  <time>2026-09-01T19:50:54Z</time>
  <course>54.94</course>
  <speed>0.32</speed>
  <fix>3d</fix>
</trkpt>
<trkpt lat="-27.2744535" lon="151.2900248">
  <ele>357.95</ele>
  <time>2026-09-01T19:50:54Z</time>
  <course>249.19</course>
  <speed>0.4651881339845203</speed>
  <fix>3d</fix>
</trkpt>
<trkpt lat="-27.274454" lon="151.2900245">
  <ele>358.15</ele>
  <time>2026-09-01T19:50:54Z</time>
  <course>54.94</course>
  <speed>0.32</speed>
  <fix>3d</fix>
</trkpt>
<trkpt lat="-27.2744531" lon="151.290025">
  <ele>357.96</ele>
  <time>2026-09-01T19:50:54Z</time>
  <course>249.41</course>
  <speed>0.5126402247190519</speed>
  <fix>3d</fix>
</trkpt>
<trkpt lat="-27.2744535" lon="151.290025">
  <ele>358.15</ele>
  <time>2026-09-01T19:50:54Z</time>
  <course>27.1</course>
  <speed>0.47</speed>
  <fix>3d</fix>
</trkpt>
<trkpt lat="-27.2744527" lon="151.2900252">
  <ele>357.96</ele>
  <time>2026-09-01T19:50:54Z</time>
  <course>249.58</course>
  <speed>0.5375872022286245</speed>
  <fix>3d</fix>
</trkpt>
<trkpt lat="-27.2744535" lon="151.290025">
  <ele>358.15</ele>
  <time>2026-09-01T19:50:54Z</time>
  <course>27.1</course>
  <speed>0.47</speed>
  <fix>3d</fix>
</trkpt>
<trkpt lat="-27.2744523" lon="151.2900254">
  <ele>357.95</ele>
  <time>2026-09-01T19:50:54Z</time>
  <course>249.69</course>
  <speed>0.5440588203494178</speed>
  <fix>3d</fix>
</trkpt>
<trkpt lat="-27.2744525" lon="151.2900254">
  <ele>358.15</ele>
  <time>2026-09-01T19:50:54Z</time>
  <course>19.34</course>
  <speed>0.55</speed>
  <fix>3d</fix>
</trkpt>
<trkpt lat="-27.2744518" lon="151.2900256">
  <ele>357.96</ele>
  <time>2026-09-01T19:50:54Z</time>
  <course>249.74</course>
  <speed>0.5508175741568164</speed>
  <fix>3d</fix>
</trkpt>
<trkpt lat="-27.2744525" lon="151.2900254">
  <ele>358.15</ele>
  <time>2026-09-01T19:50:54Z</time>
  <course>19.34</course>
  <speed>0.55</speed>
  <fix>3d</fix>
</trkpt>
<trkpt lat="-27.2744513" lon="151.2900257">
  <ele>357.95</ele>
  <time>2026-09-01T19:50:54Z</time>
  <course>249.75</course>
  <speed>0.5508175741568164</speed>
  <fix>3d</fix>
</trkpt>
<trkpt lat="-27.2744516" lon="151.2900258">
  <ele>358.15</ele>
  <time>2026-09-01T19:50:54Z</time>
  <course>16.63</course>
  <speed>0.58</speed>
  <fix>3d</fix>
</trkpt>
<trkpt lat="-27.2744508" lon="151.2900259">
  <ele>357.95</ele>
  <time>2026-09-01T19:50:54Z</time>
  <course>249.7</course>
  <speed>0.5154609587543949</speed>
  <fix>3d</fix>
</trkpt>
<trkpt lat="-27.2744516" lon="151.2900258">
  <ele>358.15</ele>
  <time>2026-09-01T19:50:54Z</time>
  <course>16.63</course>
  <speed>0.58</speed>
  <fix>3d</fix>
</trkpt>
<trkpt lat="-27.2744504" lon="151.2900261">
  <ele>357.96</ele>
  <time>2026-09-01T19:50:54Z</time>
  <course>249.63</course>
  <speed>0.42941821107167777</speed>
  <fix>3d</fix>
</trkpt>
<trkpt lat="-27.2744506" lon="151.2900261">
  <ele>358.15</ele>
  <time>2026-09-01T19:50:54Z</time>
  <course>20.46</course>
  <speed>0.52</speed>
  <fix>3d</fix>
</trkpt>
<trkpt lat="-27.2744501" lon="151.2900264">
  <ele>357.96</ele>
  <time>2026-09-01T19:50:54Z</time>
  <course>249.52</course>
  <speed>0.36069377593742863</speed>
  <fix>3d</fix>
</trkpt>
<trkpt lat="-27.2744506" lon="151.2900261">
  <ele>358.15</ele>
  <time>2026-09-01T19:50:54Z</time>
  <course>20.46</course>
  <speed>0.52</speed>
  <fix>3d</fix>
</trkpt>
<trkpt lat="-27.2744499" lon="151.2900267">
  <ele>357.96</ele>
  <time>2026-09-01T19:50:54Z</time>
  <course>249.4</course>
  <speed>0.34481879299133333</speed>
  <fix>3d</fix>
</trkpt>
<trkpt lat="-27.2744499" lon="151.2900265">
  <ele>358.15</ele>
  <time>2026-09-01T19:50:54Z</time>
  <course>43.93</course>
  <speed>0.39</speed>
  <fix>3d</fix>
</trkpt>
<trkpt lat="-27.2744499" lon="151.2900271">
  <ele>357.96</ele>
  <time>2026-09-01T19:50:54Z</time>
  <course>249.25</course>
  <speed>0.41109609582188933</speed>
  <fix>3d</fix>
</trkpt>
<trkpt lat="-27.2744499" lon="151.2900265">
  <ele>358.15</ele>
  <time>2026-09-01T19:50:54Z</time>
  <course>43.93</course>
  <speed>0.39</speed>
  <fix>3d</fix>
</trkpt>
<trkpt lat="-27.27445" lon="151.2900275">
  <ele>357.96</ele>
  <time>2026-09-01T19:50:54Z</time>
  <course>249.06</course>
  <speed>0.49979995998399196</speed>
  <fix>3d</fix>
</trkpt>
<trkpt lat="-27.2744497" lon="151.2900272">
  <ele>358.15</ele>
  <time>2026-09-01T19:50:54Z</time>
  <course>89.08</course>
  <speed>0.4</speed>
  <fix>3d</fix>
</trkpt>
<trkpt lat="-27.2744501" lon="151.290028">
  <ele>357.96</ele>
  <time>2026-09-01T19:50:54Z</time>
  <course>248.84</course>
  <speed>0.5770615218501404</speed>
  <fix>3d</fix>
</trkpt>
<trkpt lat="-27.2744497" lon="151.2900272">
  <ele>358.15</ele>
  <time>2026-09-01T19:50:54Z</time>
  <course>89.08</course>
  <speed>0.4</speed>
  <fix>3d</fix>
</trkpt>
<trkpt lat="-27.2744504" lon="151.2900286">
  <ele>357.95</ele>
  <time>2026-09-01T19:50:54Z</time>
  <course>248.62</course>
  <speed>0.6296824596572467</speed>
  <fix>3d</fix>
</trkpt>
<trkpt lat="-27.2744499" lon="151.2900282">
  <ele>358.15</ele>
  <time>2026-09-01T19:50:54Z</time>
  <course>113.94</course>
  <speed>0.55</speed>
  <fix>3d</fix>
</trkpt>
<trkpt lat="-27.2744506" lon="151.2900291">
  <ele>357.95</ele>
  <time>2026-09-01T19:50:54Z</time>
  <course>248.42</course>
  <speed>0.6580273550544841</speed>
  <fix>3d</fix>
</trkpt>
<trkpt lat="-27.2744499" lon="151.2900282">
  <ele>358.15</ele>
  <time>2026-09-01T19:50:54Z</time>
  <course>113.94</course>
  <speed>0.55</speed>
  <fix>3d</fix>
</trkpt>
<trkpt lat="-27.274451" lon="151.2900297">
  <ele>357.95</ele>
  <time>2026-09-01T19:50:54Z</time>
  <course>248.26</course>
  <speed>0.6762396025078685</speed>
  <fix>3d</fix>
</trkpt>
<trkpt lat="-27.2744504" lon="151.2900292">
  <ele>358.15</ele>
  <time>2026-09-01T19:50:54Z</time>
  <course>123.54</course>
  <speed>0.64</speed>
  <fix>3d</fix>
</trkpt>
<trkpt lat="-27.2744513" lon="151.2900302">
  <ele>357.95</ele>
  <time>2026-09-01T19:50:54Z</time>
  <course>248.16</course>
  <speed>0.6735725647619565</speed>
  <fix>3d</fix>
</trkpt>
<trkpt lat="-27.2744504" lon="151.2900292">
  <ele>358.15</ele>
  <time>2026-09-01T19:50:54Z</time>
  <course>123.54</course>
  <speed>0.64</speed>
  <fix>3d</fix>
</trkpt>
<trkpt lat="-27.2744517" lon="151.2900307">
  <ele>357.95</ele>
  <time>2026-09-01T19:50:54Z</time>
  <course>248.11</course>
  <speed>0.6726812023536856</speed>
  <fix>3d</fix>
</trkpt>
<trkpt lat="-27.2744504" lon="151.2900292">
  <ele>358.15</ele>
  <time>2026-09-01T19:50:54Z</time>
  <course>123.54</course>
  <speed>0.64</speed>
  <fix>3d</fix>
</trkpt>
<trkpt lat="-27.2744521" lon="151.2900312">
  <ele>357.96</ele>
  <time>2026-09-01T19:50:54Z</time>
  <course>248.12</course>
  <speed>0.6648308055437865</speed>
  <fix>3d</fix>
</trkpt>
<trkpt lat="-27.274451" lon="151.2900303">
  <ele>358.15</ele>
  <time>2026-09-01T19:50:54Z</time>
  <course>128.34</course>
  <speed>0.66</speed>
  <fix>3d</fix>
</trkpt>
<trkpt lat="-27.2744525" lon="151.2900317">
  <ele>357.96</ele>
  <time>2026-09-01T19:50:54Z</time>
  <course>248.17</course>
  <speed>0.6505382386916237</speed>
  <fix>3d</fix>
</trkpt>
<trkpt lat="-27.274451" lon="151.2900303">
  <ele>358.15</ele>
  <time>2026-09-01T19:50:54Z</time>
  <course>128.34</course>
  <speed>0.66</speed>
  <fix>3d</fix>
</trkpt>
<trkpt lat="-27.2744528" lon="151.2900322">
  <ele>357.96</ele>
  <time>2026-09-01T19:50:54Z</time>
  <course>248.26</course>
  <speed>0.6081118318204308</speed>
  <fix>3d</fix>
</trkpt>
<trkpt lat="-27.2744518" lon="151.2900314">
  <ele>358.15</ele>
  <time>2026-09-01T19:50:54Z</time>
  <course>131.67</course>
  <speed>0.65</speed>
  <fix>3d</fix>
</trkpt>
<trkpt lat="-27.2744532" lon="151.2900326">
  <ele>357.96</ele>
  <time>2026-09-01T19:50:54Z</time>
  <course>248.38</course>
  <speed>0.49678969393496886</speed>
  <fix>3d</fix>
</trkpt>
<trkpt lat="-27.2744525" lon="151.2900323">
  <ele>358.15</ele>
  <time>2026-09-01T19:50:54Z</time>
  <course>131.1</course>
  <speed>0.57</speed>
  <fix>3d</fix>
</trkpt>
<trkpt lat="-27.2744533" lon="151.290033">
  <ele>357.96</ele>
  <time>2026-09-01T19:50:54Z</time>
  <course>248.51</course>
  <speed>0.37589892258425</speed>
  <fix>3d</fix>
</trkpt>
<trkpt lat="-27.2744525" lon="151.2900323">
  <ele>358.15</ele>
  <time>2026-09-01T19:50:54Z</time>
  <course>131.1</course>
  <speed>0.57</speed>
  <fix>3d</fix>
</trkpt>
<trkpt lat="-27.2744534" lon="151.2900333">
  <ele>357.96</ele>
  <time>2026-09-01T19:50:54Z</time>
  <course>248.65</course>
  <speed>0.2906888370749727</speed>
  <fix>3d</fix>
</trkpt>
<trkpt lat="-27.274453" lon="151.290033">
  <ele>358.15</ele>
  <time>2026-09-01T19:50:54Z</time>
  <course>115.26</course>
  <speed>0.38</speed>
  <fix>3d</fix>
</trkpt>
<trkpt lat="-27.2744533" lon="151.2900336">
  <ele>357.96</ele>
  <time>2026-09-01T19:50:54Z</time>
  <course>248.8</course>
  <speed>0.27294688127912364</speed>
  <fix>3d</fix>
</trkpt>
<trkpt lat="-27.274453" lon="151.290033">
  <ele>358.15</ele>
  <time>2026-09-01T19:50:54Z</time>
  <course>115.26</course>
  <speed>0.38</speed>
  <fix>3d</fix>
</trkpt>
<trkpt lat="-27.2744532" lon="151.2900338">
  <ele>357.96</ele>
  <time>2026-09-01T19:50:54Z</time>
  <course>248.96</course>
  <speed>0.34409301068170506</speed>
  <fix>3d</fix>
</trkpt>
<trkpt lat="-27.2744531" lon="151.2900336">
  <ele>358.15</ele>
  <time>2026-09-01T19:50:54Z</time>
  <course>61.68</course>
  <speed>0.29</speed>
  <fix>3d</fix>
</trkpt>
<trkpt lat="-27.2744528" lon="151.290034">
  <ele>357.96</ele>
  <time>2026-09-01T19:50:54Z</time>
  <course>249.12</course>
  <speed>0.425440947723653</speed>
  <fix>3d</fix>
</trkpt>
<trkpt lat="-27.2744531" lon="151.2900336">
  <ele>358.15</ele>
  <time>2026-09-01T19:50:54Z</time>
  <course>61.68</course>
  <speed>0.29</speed>
  <fix>3d</fix>
</trkpt>
<trkpt lat="-27.2744524" lon="151.2900342">
  <ele>357.96</ele>
  <time>2026-09-01T19:50:54Z</time>
  <course>249.28</course>
  <speed>0.4838388161361178</speed>
  <fix>3d</fix>
</trkpt>
<trkpt lat="-27.2744527" lon="151.2900341">
  <ele>358.15</ele>
  <time>2026-09-01T19:50:54Z</time>
  <course>26.13</course>
  <speed>0.43</speed>
  <fix>3d</fix>
</trkpt>
<trkpt lat="-27.274452" lon="151.2900343">
  <ele>357.96</ele>
  <time>2026-09-01T19:50:54Z</time>
  <course>249.42</course>
  <speed>0.5166236541235796</speed>
  <fix>3d</fix>
</trkpt>
<trkpt lat="-27.2744527" lon="151.2900341">
  <ele>358.15</ele>
  <time>2026-09-01T19:50:54Z</time>
  <course>26.13</course>
  <speed>0.43</speed>
  <fix>3d</fix>
</trkpt>
<trkpt lat="-27.2744515" lon="151.2900344">
  <ele>357.96</ele>
  <time>2026-09-01T19:50:54Z</time>
  <course>249.53</course>
  <speed>0.5315072906367324</speed>
  <fix>3d</fix>
</trkpt>
<trkpt lat="-27.2744519" lon="151.2900345">
  <ele>358.15</ele>
  <time>2026-09-01T19:50:54Z</time>
  <course>15.53</course>
  <speed>0.53</speed>
  <fix>3d</fix>
</trkpt>
<trkpt lat="-27.274451" lon="151.2900346">
  <ele>357.96</ele>
  <time>2026-09-01T19:50:54Z</time>
  <course>249.61</course>
  <speed>0.539351462406472</speed>
  <fix>3d</fix>
</trkpt>
<trkpt lat="-27.2744519" lon="151.2900345">
  <ele>358.15</ele>
  <time>2026-09-01T19:50:54Z</time>
  <course>15.53</course>
  <speed>0.53</speed>
  <fix>3d</fix>
</trkpt>
<trkpt lat="-27.2744505" lon="151.2900347">
  <ele>357.96</ele>
  <time>2026-09-01T19:50:54Z</time>
  <course>249.64</course>
  <speed>0.5458937625582473</speed>
  <fix>3d</fix>
</trkpt>
<trkpt lat="-27.2744509" lon="151.2900347">
  <ele>358.15</ele>
  <time>2026-09-01T19:50:54Z</time>
  <course>11.21</course>
  <speed>0.56</speed>
  <fix>3d</fix>
</trkpt>
<trkpt lat="-27.2744501" lon="151.2900348">
  <ele>357.96</ele>
  <time>2026-09-01T19:50:54Z</time>
  <course>249.64</course>
  <speed>0.5261178575186363</speed>
  <fix>3d</fix>
</trkpt>
<trkpt lat="-27.2744509" lon="151.2900347">
  <ele>358.15</ele>
  <time>2026-09-01T19:50:54Z</time>
  <course>11.21</course>
  <speed>0.56</speed>
  <fix>3d</fix>
</trkpt>
<trkpt lat="-27.2744496" lon="151.2900349">
  <ele>357.96</ele>
  <time>2026-09-01T19:50:54Z</time>
  <course>249.61</course>
  <speed>0.44147480109288234</speed>
  <fix>3d</fix>
</trkpt>
<trkpt lat="-27.2744499" lon="151.290035">
  <ele>358.15</ele>
  <time>2026-09-01T19:50:54Z</time>
  <course>11.41</course>
  <speed>0.52</speed>
  <fix>3d</fix>
</trkpt>
<trkpt lat="-27.2744493" lon="151.290035">
  <ele>357.95</ele>
  <time>2026-09-01T19:50:54Z</time>
  <course>249.53</course>
  <speed>0.34</speed>
  <fix>3d</fix>
</trkpt>
<trkpt lat="-27.2744499" lon="151.290035">
  <ele>358.15</ele>
  <time>2026-09-01T19:50:54Z</time>
  <course>11.41</course>
  <speed>0.52</speed>
  <fix>3d</fix>
</trkpt>
<trkpt lat="-27.2744491" lon="151.2900352">
  <ele>357.95</ele>
  <time>2026-09-01T19:50:54Z</time>
  <course>249.43</course>
  <speed>0.280178514522438</speed>
  <fix>3d</fix>
</trkpt>
<trkpt lat="-27.2744491" lon="151.2900352">
  <ele>358.15</ele>
  <time>2026-09-01T19:50:54Z</time>
  <course>27.1</course>
  <speed>0.37</speed>
  <fix>3d</fix>
</trkpt>
<trkpt lat="-27.274449" lon="151.2900355">
  <ele>357.95</ele>
  <time>2026-09-01T19:50:54Z</time>
  <course>249.31</course>
  <speed>0.30016662039607267</speed>
  <fix>3d</fix>
</trkpt>
<trkpt lat="-27.2744491" lon="151.2900352">
  <ele>358.15</ele>
  <time>2026-09-01T19:50:54Z</time>
  <course>27.1</course>
  <speed>0.37</speed>
  <fix>3d</fix>
</trkpt>
<trkpt lat="-27.274449" lon="151.2900359">
  <ele>357.95</ele>
  <time>2026-09-01T19:50:54Z</time>
  <course>249.15</course>
  <speed>0.37947331922020555</speed>
  <fix>3d</fix>
</trkpt>
<trkpt lat="-27.2744487" lon="151.2900356">
  <ele>358.15</ele>
  <time>2026-09-01T19:50:54Z</time>
  <course>78.77</course>
  <speed>0.3</speed>
  <fix>3d</fix>
</trkpt>
<trkpt lat="-27.2744491" lon="151.2900363">
  <ele>357.94</ele>
  <time>2026-09-01T19:50:54Z</time>
  <course>248.98</course>
  <speed>0.46529560496527367</speed>
  <fix>3d</fix>
</trkpt>
<trkpt lat="-27.2744487" lon="151.2900356">
  <ele>358.15</ele>
  <time>2026-09-01T19:50:54Z</time>
  <course>78.77</course>
  <speed>0.3</speed>
  <fix>3d</fix>
</trkpt>
<trkpt lat="-27.2744494" lon="151.2900367">
  <ele>357.94</ele>
  <time>2026-09-01T19:50:54Z</time>
  <course>248.79</course>
  <speed>0.532541078227774</speed>
  <fix>3d</fix>
</trkpt>
<trkpt lat="-27.2744488" lon="151.2900364">
  <ele>358.15</ele>
  <time>2026-09-01T19:50:54Z</time>
  <course>113.52</course>
  <speed>0.44</speed>
  <fix>3d</fix>
</trkpt>
<trkpt lat="-27.2744496" lon="151.2900372">
  <ele>357.94</ele>
  <time>2026-09-01T19:50:54Z</time>
  <course>248.62</course>
  <speed>0.564003546088143</speed>
  <fix>3d</fix>
</trkpt>
<trkpt lat="-27.2744488" lon="151.2900364">
  <ele>358.15</ele>
  <time>2026-09-01T19:50:54Z</time>
  <course>113.52</course>
  <speed>0.44</speed>
  <fix>3d</fix>
</trkpt>
<trkpt lat="-27.2744499" lon="151.2900376">
  <ele>357.95</ele>
  <time>2026-09-01T19:50:54Z</time>
  <course>248.48</course>
  <speed>0.5825804665451804</speed>
  <fix>3d</fix>
</trkpt>
<trkpt lat="-27.2744493" lon="151.2900373">
  <ele>358.15</ele>
  <time>2026-09-01T19:50:54Z</time>
  <course>124.67</course>
  <speed>0.54</speed>
  <fix>3d</fix>
</trkpt>
<trkpt lat="-27.2744501" lon="151.2900381">
  <ele>357.95</ele>
  <time>2026-09-01T19:50:54Z</time>
  <course>248.38</course>
  <speed>0.587962583843564</speed>
  <fix>3d</fix>
</trkpt>
<trkpt lat="-27.2744493" lon="151.2900373">
  <ele>358.15</ele>
  <time>2026-09-01T19:50:54Z</time>
  <course>124.67</course>
  <speed>0.54</speed>
  <fix>3d</fix>
</trkpt>
<trkpt lat="-27.2744504" lon="151.2900385">
  <ele>357.95</ele>
  <time>2026-09-01T19:50:54Z</time>
  <course>248.33</course>
  <speed>0.587281874401041</speed>
  <fix>3d</fix>
</trkpt>
<trkpt lat="-27.2744499" lon="151.2900382">
  <ele>358.15</ele>
  <time>2026-09-01T19:50:54Z</time>
  <course>129.36</course>
  <speed>0.57</speed>
  <fix>3d</fix>
</trkpt>
<trkpt lat="-27.2744508" lon="151.2900389">
  <ele>357.95</ele>
  <time>2026-09-01T19:50:54Z</time>
  <course>248.32</course>
  <speed>0.5728001396647874</speed>
  <fix>3d</fix>
</trkpt>
<trkpt lat="-27.2744499" lon="151.2900382">
  <ele>358.15</ele>
  <time>2026-09-01T19:50:54Z</time>
  <course>129.36</course>
  <speed>0.57</speed>
  <fix>3d</fix>
</trkpt>
<trkpt lat="-27.2744511" lon="151.2900393">
  <ele>357.95</ele>
  <time>2026-09-01T19:50:54Z</time>
  <course>248.36</course>
  <speed>0.5728001396647874</speed>
  <fix>3d</fix>
</trkpt>
<trkpt lat="-27.2744505" lon="151.2900391">
  <ele>358.15</ele>
  <time>2026-09-01T19:50:54Z</time>
  <course>132.23</course>
  <speed>0.57</speed>
  <fix>3d</fix>
</trkpt>
<trkpt lat="-27.2744514" lon="151.2900398">
  <ele>357.95</ele>
  <time>2026-09-01T19:50:54Z</time>
  <course>248.42</course>
  <speed>0.5374011537017761</speed>
  <fix>3d</fix>
</trkpt>
<trkpt lat="-27.2744505" lon="151.2900391">
  <ele>358.15</ele>
  <time>2026-09-01T19:50:54Z</time>
  <course>132.23</course>
  <speed>0.57</speed>
  <fix>3d</fix>
</trkpt>
<trkpt lat="-27.2744517" lon="151.2900401">
  <ele>357.95</ele>
  <time>2026-09-01T19:50:54Z</time>
  <course>248.51</course>
  <speed>0.43278170016764805</speed>
  <fix>3d</fix>
</trkpt>
<trkpt lat="-27.2744512" lon="151.2900399">
  <ele>358.15</ele>
  <time>2026-09-01T19:50:54Z</time>
  <course>131.18</course>
  <speed>0.5</speed>
  <fix>3d</fix>
</trkpt>
<trkpt lat="-27.2744519" lon="151.2900404">
  <ele>357.95</ele>
  <time>2026-09-01T19:50:54Z</time>
  <course>248.61</course>
  <speed>0.3087069808086626</speed>
  <fix>3d</fix>
</trkpt>
<trkpt lat="-27.2744512" lon="151.2900399">
  <ele>358.15</ele>
  <time>2026-09-01T19:50:54Z</time>
  <course>131.18</course>
  <speed>0.5</speed>
  <fix>3d</fix>
</trkpt>
<trkpt lat="-27.2744519" lon="151.2900407">
  <ele>357.95</ele>
  <time>2026-09-01T19:50:54Z</time>
  <course>248.72</course>
  <speed>0.2308679276123039</speed>
  <fix>3d</fix>
</trkpt>
<trkpt lat="-27.2744517" lon="151.2900406">
  <ele>358.16</ele>
  <time>2026-09-01T19:50:54Z</time>
  <course>112.42</course>
  <speed>0.32</speed>
  <fix>3d</fix>
</trkpt>
<trkpt lat="-27.2744518" lon="151.2900409">
  <ele>357.95</ele>
  <time>2026-09-01T19:50:54Z</time>
  <course>248.85</course>
  <speed>0.2545584412271571</speed>
  <fix>3d</fix>
</trkpt>
<trkpt lat="-27.2744517" lon="151.2900406">
  <ele>358.16</ele>
  <time>2026-09-01T19:50:54Z</time>
  <course>112.42</course>
  <speed>0.32</speed>
  <fix>3d</fix>
</trkpt>
<trkpt lat="-27.2744515" lon="151.2900411">
  <ele>357.95</ele>
  <time>2026-09-01T19:50:54Z</time>
  <course>248.98</course>
  <speed>0.3584689665786984</speed>
  <fix>3d</fix>
</trkpt>
<trkpt lat="-27.2744516" lon="151.2900411">
  <ele>358.16</ele>
  <time>2026-09-01T19:50:54Z</time>
  <course>48.15</course>
  <speed>0.27</speed>
  <fix>3d</fix>
</trkpt>
<trkpt lat="-27.2744511" lon="151.2900412">
  <ele>357.95</ele>
  <time>2026-09-01T19:50:54Z</time>
  <course>249.13</course>
  <speed>0.44147480109288234</speed>
  <fix>3d</fix>
</trkpt>
<trkpt lat="-27.2744516" lon="151.2900411">
  <ele>358.16</ele>
  <time>2026-09-01T19:50:54Z</time>
  <course>48.15</course>
  <speed>0.27</speed>
  <fix>3d</fix>
</trkpt>
<trkpt lat="-27.2744507" lon="151.2900413">
  <ele>357.95</ele>
  <time>2026-09-01T19:50:54Z</time>
  <course>249.27</course>
  <speed>0.4949747468305833</speed>
  <fix>3d</fix>
</trkpt>
<trkpt lat="-27.2744511" lon="151.2900414">
  <ele>358.16</ele>
  <time>2026-09-01T19:50:54Z</time>
  <course>16.28</course>
  <speed>0.44</speed>
  <fix>3d</fix>
</trkpt>
<trkpt lat="-27.2744503" lon="151.2900414">
  <ele>357.95</ele>
  <time>2026-09-01T19:50:54Z</time>
  <course>249.39</course>
  <speed>0.5323532661682466</speed>
  <fix>3d</fix>
</trkpt>
<trkpt lat="-27.2744511" lon="151.2900414">
  <ele>358.16</ele>
  <time>2026-09-01T19:50:54Z</time>
  <course>16.28</course>
  <speed>0.44</speed>
  <fix>3d</fix>
</trkpt>
<trkpt lat="-27.2744498" lon="151.2900415">
  <ele>357.96</ele>
  <time>2026-09-01T19:50:54Z</time>
  <course>249.5</course>
  <speed>0.5503635162326805</speed>
  <fix>3d</fix>
</trkpt>
<trkpt lat="-27.2744503" lon="151.2900416">
  <ele>358.16</ele>
  <time>2026-09-01T19:50:54Z</time>
  <course>6.88</course>
  <speed>0.54</speed>
  <fix>3d</fix>
</trkpt>
<trkpt lat="-27.2744493" lon="151.2900415">
  <ele>357.96</ele>
  <time>2026-09-01T19:50:54Z</time>
  <course>249.57</course>
  <speed>0.56</speed>
  <fix>3d</fix>
</trkpt>
<trkpt lat="-27.2744503" lon="151.2900416">
  <ele>358.16</ele>
  <time>2026-09-01T19:50:54Z</time>
  <course>6.88</course>
  <speed>0.54</speed>
  <fix>3d</fix>
</trkpt>
<trkpt lat="-27.2744488" lon="151.2900415">
  <ele>357.96</ele>
  <time>2026-09-01T19:50:54Z</time>
  <course>249.61</course>
  <speed>0.5600892785976178</speed>
  <fix>3d</fix>
</trkpt>
<trkpt lat="-27.2744492" lon="151.2900417">
  <ele>358.16</ele>
  <time>2026-09-01T19:50:54Z</time>
  <course>2.02</course>
  <speed>0.57</speed>
  <fix>3d</fix>
</trkpt>
<trkpt lat="-27.2744483" lon="151.2900415">
  <ele>357.96</ele>
  <time>2026-09-01T19:50:54Z</time>
  <course>249.61</course>
  <speed>0.5303772242470448</speed>
  <fix>3d</fix>
</trkpt>
<trkpt lat="-27.2744492" lon="151.2900417">
  <ele>358.16</ele>
  <time>2026-09-01T19:50:54Z</time>
  <course>2.02</course>
  <speed>0.57</speed>
  <fix>3d</fix>
</trkpt>
<trkpt lat="-27.2744479" lon="151.2900415">
  <ele>357.96</ele>
  <time>2026-09-01T19:50:54Z</time>
  <course>249.58</course>
  <speed>0.43</speed>
  <fix>3d</fix>
</trkpt>
<trkpt lat="-27.2744482" lon="151.2900417">
  <ele>358.16</ele>
  <time>2026-09-01T19:50:54Z</time>
  <course>0.63</course>
  <speed>0.52</speed>
  <fix>3d</fix>
</trkpt>
<trkpt lat="-27.2744475" lon="151.2900416">
  <ele>357.96</ele>
  <time>2026-09-01T19:50:54Z</time>
  <course>249.5</course>
  <speed>0.29614185789921693</speed>
  <fix>3d</fix>
</trkpt>
<trkpt lat="-27.2744482" lon="151.2900417">
  <ele>358.16</ele>
  <time>2026-09-01T19:50:54Z</time>
  <course>0.63</course>
  <speed>0.52</speed>
  <fix>3d</fix>
</trkpt>
<trkpt lat="-27.2744473" lon="151.2900417">
  <ele>357.97</ele>
  <time>2026-09-01T19:50:54Z</time>
  <course>249.39</course>
  <speed>0.19209372712298545</speed>
  <fix>3d</fix>
</trkpt>
<trkpt lat="-27.2744474" lon="151.2900417">
  <ele>358.16</ele>
  <time>2026-09-01T19:50:54Z</time>
  <course>12.02</course>
  <speed>0.33</speed>
  <fix>3d</fix>
</trkpt>
<trkpt lat="-27.2744472" lon="151.2900418">
  <ele>357.97</ele>
  <time>2026-09-01T19:50:54Z</time>
  <course>249.27</course>
  <speed>0.19026297590440447</speed>
  <fix>3d</fix>
</trkpt>
<trkpt lat="-27.2744474" lon="151.2900417">
  <ele>358.16</ele>
  <time>2026-09-01T19:50:54Z</time>
  <course>12.02</course>
  <speed>0.33</speed>
  <fix>3d</fix>
</trkpt>
<trkpt lat="-27.2744473" lon="151.2900421">
  <ele>357.97</ele>
  <time>2026-09-01T19:50:54Z</time>
  <course>249.12</course>
  <speed>0.27313000567495327</speed>
  <fix>3d</fix>
</trkpt>
<trkpt lat="-27.2744471" lon="151.2900421">
  <ele>358.16</ele>
  <time>2026-09-01T19:50:54Z</time>
  <course>74.23</course>
  <speed>0.2</speed>
  <fix>3d</fix>
</trkpt>
<trkpt lat="-27.2744473" lon="151.2900424">
  <ele>357.97</ele>
  <time>2026-09-01T19:50:54Z</time>
  <course>248.97</course>
  <speed>0.3605551275463989</speed>
  <fix>3d</fix>
</trkpt>
<trkpt lat="-27.2744471" lon="151.2900421">
  <ele>358.16</ele>
  <time>2026-09-01T19:50:54Z</time>
  <course>74.23</course>
  <speed>0.2</speed>
  <fix>3d</fix>
</trkpt>
<trkpt lat="-27.2744475" lon="151.2900427">
  <ele>357.97</ele>
  <time>2026-09-01T19:50:54Z</time>
  <course>248.83</course>
  <speed>0.41231056256176607</speed>
  <fix>3d</fix>
</trkpt>
<trkpt lat="-27.2744472" lon="151.2900426">
  <ele>358.16</ele>
  <time>2026-09-01T19:50:54Z</time>
  <course>118.34</course>
  <speed>0.33</speed>
  <fix>3d</fix>
</trkpt>
<trkpt lat="-27.2744477" lon="151.2900431">
  <ele>357.96</ele>
  <time>2026-09-01T19:50:54Z</time>
  <course>248.71</course>
  <speed>0.4459820624195552</speed>
  <fix>3d</fix>
</trkpt>
<trkpt lat="-27.2744472" lon="151.2900426">
  <ele>358.16</ele>
  <time>2026-09-01T19:50:54Z</time>
  <course>118.34</course>
  <speed>0.33</speed>
  <fix>3d</fix>
</trkpt>
<trkpt lat="-27.274448" lon="151.2900434">
  <ele>357.96</ele>
  <time>2026-09-01T19:50:54Z</time>
  <course>248.61</course>
  <speed>0.4669047011971501</speed>
  <fix>3d</fix>
</trkpt>
<trkpt lat="-27.2744476" lon="151.2900432">
  <ele>358.16</ele>
  <time>2026-09-01T19:50:54Z</time>
  <course>128.41</course>
  <speed>0.43</speed>
  <fix>3d</fix>
</trkpt>
<trkpt lat="-27.2744483" lon="151.2900438">
  <ele>357.96</ele>
  <time>2026-09-01T19:50:54Z</time>
  <course>248.56</course>
  <speed>0.4666904755831214</speed>
  <fix>3d</fix>
</trkpt>
<trkpt lat="-27.2744476" lon="151.2900432">
  <ele>358.16</ele>
  <time>2026-09-01T19:50:54Z</time>
  <course>128.41</course>
  <speed>0.43</speed>
  <fix>3d</fix>
</trkpt>
<trkpt lat="-27.2744485" lon="151.2900441">
  <ele>357.96</ele>
  <time>2026-09-01T19:50:54Z</time>
  <course>248.53</course>
  <speed>0.4738143096192854</speed>
  <fix>3d</fix>
</trkpt>
<trkpt lat="-27.274448" lon="151.2900439">
  <ele>358.16</ele>
  <time>2026-09-01T19:50:54Z</time>
  <course>132.26</course>
  <speed>0.46</speed>
  <fix>3d</fix>
</trkpt>
<trkpt lat="-27.2744488" lon="151.2900444">
  <ele>357.96</ele>
  <time>2026-09-01T19:50:54Z</time>
  <course>248.54</course>
  <speed>0.474236228055175</speed>
  <fix>3d</fix>
</trkpt>
<trkpt lat="-27.274448" lon="151.2900439">
  <ele>358.16</ele>
  <time>2026-09-01T19:50:54Z</time>
  <course>132.26</course>
  <speed>0.46</speed>
  <fix>3d</fix>
</trkpt>
<trkpt lat="-27.2744491" lon="151.2900448">
  <ele>357.96</ele>
  <time>2026-09-01T19:50:54Z</time>
  <course>248.57</course>
  <speed>0.4675467891024384</speed>
  <fix>3d</fix>
</trkpt>
<trkpt lat="-27.2744486" lon="151.2900445">
  <ele>358.15</ele>
  <time>2026-09-01T19:50:54Z</time>
  <course>134.76</course>
  <speed>0.46</speed>
  <fix>3d</fix>
</trkpt>
<trkpt lat="-27.2744494" lon="151.2900451">
  <ele>357.96</ele>
  <time>2026-09-01T19:50:54Z</time>
  <course>248.63</course>
  <speed>0.3959797974644666</speed>
  <fix>3d</fix>
</trkpt>
<trkpt lat="-27.2744486" lon="151.2900445">
  <ele>358.15</ele>
  <time>2026-09-01T19:50:54Z</time>
  <course>134.76</course>
  <speed>0.46</speed>
  <fix>3d</fix>
</trkpt>
<trkpt lat="-27.2744496" lon="151.2900453">
  <ele>357.96</ele>
  <time>2026-09-01T19:50:54Z</time>
  <course>248.7</course>
  <speed>0.2745906043549196</speed>
  <fix>3d</fix>
</trkpt>
<trkpt lat="-27.2744491" lon="151.2900452">
  <ele>358.15</ele>
  <time>2026-09-01T19:50:54Z</time>
  <course>129.8</course>
  <speed>0.37</speed>
  <fix>3d</fix>
</trkpt>
<trkpt lat="-27.2744496" lon="151.2900456">
  <ele>357.96</ele>
  <time>2026-09-01T19:50:54Z</time>
  <course>248.78</course>
  <speed>0.18</speed>
  <fix>3d</fix>
</trkpt>
<trkpt lat="-27.2744491" lon="151.2900452">
  <ele>358.15</ele>
  <time>2026-09-01T19:50:54Z</time>
  <course>129.8</course>
  <speed>0.37</speed>
  <fix>3d</fix>
</trkpt>
<trkpt lat="-27.2744495" lon="151.2900457">
  <ele>357.96</ele>
  <time>2026-09-01T19:50:54Z</time>
  <course>248.87</course>
  <speed>0.20615528128088303</speed>
  <fix>3d</fix>
</trkpt>
<trkpt lat="-27.2744494" lon="151.2900457">
  <ele>358.15</ele>
  <time>2026-09-01T19:50:54Z</time>
  <course>85.7</course>
  <speed>0.2</speed>
  <fix>3d</fix>
</trkpt>
<trkpt lat="-27.2744493" lon="151.2900458">
  <ele>357.96</ele>
  <time>2026-09-01T19:50:54Z</time>
  <course>248.97</course>
  <speed>0.32015621187164245</speed>
  <fix>3d</fix>
</trkpt>
<trkpt lat="-27.2744494" lon="151.2900457">
  <ele>358.15</ele>
  <time>2026-09-01T19:50:54Z</time>
  <course>85.7</course>
  <speed>0.2</speed>
  <fix>3d</fix>
</trkpt>
<trkpt lat="-27.274449" lon="151.2900459">
  <ele>357.96</ele>
  <time>2026-09-01T19:50:54Z</time>
  <course>249.08</course>
  <speed>0.43185645763378366</speed>
  <fix>3d</fix>
</trkpt>
<trkpt lat="-27.2744491" lon="151.290046">
  <ele>358.15</ele>
  <time>2026-09-01T19:50:54Z</time>
  <course>18.77</course>
  <speed>0.32</speed>
  <fix>3d</fix>
</trkpt>
<trkpt lat="-27.2744485" lon="151.290046">
  <ele>357.96</ele>
  <time>2026-09-01T19:50:54Z</time>
  <course>249.19</course>
  <speed>0.5</speed>
  <fix>3d</fix>
</trkpt>
<trkpt lat="-27.2744491" lon="151.290046">
  <ele>358.15</ele>
  <time>2026-09-01T19:50:54Z</time>
  <course>18.77</course>
  <speed>0.32</speed>
  <fix>3d</fix>
</trkpt>
<trkpt lat="-27.274448" lon="151.290046">
  <ele>357.96</ele>
  <time>2026-09-01T19:50:54Z</time>
  <course>249.3</course>
  <speed>0.5403702434442519</speed>
  <fix>3d</fix>
</trkpt>
<trkpt lat="-27.2744484" lon="151.2900461">
  <ele>358.15</ele>
  <time>2026-09-01T19:50:54Z</time>
  <course>2.65</course>
  <speed>0.5</speed>
  <fix>3d</fix>
</trkpt>
<trkpt lat="-27.2744475" lon="151.2900459">
  <ele>357.96</ele>
  <time>2026-09-01T19:50:54Z</time>
  <course>249.4</course>
  <speed>0.5622277118748239</speed>
  <fix>3d</fix>
</trkpt>
<trkpt lat="-27.2744484" lon="151.2900461">
  <ele>358.15</ele>
  <time>2026-09-01T19:50:54Z</time>
  <course>2.65</course>
  <speed>0.5</speed>
  <fix>3d</fix>
</trkpt>
<trkpt lat="-27.274447" lon="151.2900459">
  <ele>357.96</ele>
  <time>2026-09-01T19:50:54Z</time>
  <course>249.48</course>
  <speed>0.5755866572463264</speed>
  <fix>3d</fix>
</trkpt>
<trkpt lat="-27.2744474" lon="151.2900461">
  <ele>358.15</ele>
  <time>2026-09-01T19:50:54Z</time>
  <course>356.01</course>
  <speed>0.58</speed>
  <fix>3d</fix>
</trkpt>
<trkpt lat="-27.2744465" lon="151.2900458">
  <ele>357.97</ele>
  <time>2026-09-01T19:50:54Z</time>
  <course>249.53</course>
  <speed>0.5787054518492115</speed>
  <fix>3d</fix>
</trkpt>
<trkpt lat="-27.2744474" lon="151.2900461">
  <ele>358.15</ele>
  <time>2026-09-01T19:50:54Z</time>
  <course>356.01</course>
  <speed>0.58</speed>
  <fix>3d</fix>
</trkpt>
<trkpt lat="-27.274446" lon="151.2900457">
  <ele>357.97</ele>
  <time>2026-09-01T19:50:54Z</time>
  <course>249.53</course>
  <speed>0.5772347875864725</speed>
  <fix>3d</fix>
</trkpt>
<trkpt lat="-27.2744463" lon="151.290046">
  <ele>358.15</ele>
  <time>2026-09-01T19:50:54Z</time>
  <course>350.44</course>
  <speed>0.59</speed>
  <fix>3d</fix>
</trkpt>
<trkpt lat="-27.2744455" lon="151.2900456">
  <ele>357.97</ele>
  <time>2026-09-01T19:50:54Z</time>
  <course>249.55</course>
  <speed>0.5738466694161429</speed>
  <fix>3d</fix>
</trkpt>
<trkpt lat="-27.2744463" lon="151.290046">
  <ele>358.15</ele>
  <time>2026-09-01T19:50:54Z</time>
  <course>350.44</course>
  <speed>0.59</speed>
  <fix>3d</fix>
</trkpt>
<trkpt lat="-27.274445" lon="151.2900454">
  <ele>357.97</ele>
  <time>2026-09-01T19:50:54Z</time>
  <course>249.59</course>
  <speed>0.5769748694700663</speed>
  <fix>3d</fix>
</trkpt>
<trkpt lat="-27.2744452" lon="151.2900457">
  <ele>358.15</ele>
  <time>2026-09-01T19:50:54Z</time>
  <course>342.13</course>
  <speed>0.59</speed>
  <fix>3d</fix>
</trkpt>
<trkpt lat="-27.2744445" lon="151.2900451">
  <ele>357.97</ele>
  <time>2026-09-01T19:50:54Z</time>
  <course>249.61</course>
  <speed>0.5813776741499453</speed>
  <fix>3d</fix>
</trkpt>
<trkpt lat="-27.2744452" lon="151.2900457">
  <ele>358.15</ele>
  <time>2026-09-01T19:50:54Z</time>
  <course>342.13</course>
  <speed>0.59</speed>
  <fix>3d</fix>
</trkpt>
<trkpt lat="-27.274444" lon="151.2900449">
  <ele>357.96</ele>
  <time>2026-09-01T19:50:54Z</time>
  <course>249.59</course>
  <speed>0.5724508712544685</speed>
  <fix>3d</fix>
</trkpt>
<trkpt lat="-27.2744443" lon="151.2900453">
  <ele>358.14</ele>
  <time>2026-09-01T19:50:54Z</time>
  <course>335.73</course>
  <speed>0.6</speed>
  <fix>3d</fix>
</trkpt>
<trkpt lat="-27.2744436" lon="151.2900447">
  <ele>357.96</ele>
  <time>2026-09-01T19:50:54Z</time>
  <course>249.54</course>
  <speed>0.5724508712544685</speed>
  <fix>3d</fix>
</trkpt>
<trkpt lat="-27.2744443" lon="151.2900453">
  <ele>358.14</ele>
  <time>2026-09-01T19:50:54Z</time>
  <course>335.73</course>
  <speed>0.6</speed>
  <fix>3d</fix>
</trkpt>
<trkpt lat="-27.2744431" lon="151.2900444">
  <ele>357.96</ele>
  <time>2026-09-01T19:50:54Z</time>
  <course>249.47</course>
  <speed>0.567978872846517</speed>
  <fix>3d</fix>
</trkpt>
<trkpt lat="-27.2744433" lon="151.2900448">
  <ele>358.14</ele>
  <time>2026-09-01T19:50:54Z</time>
  <course>335.23</course>
  <speed>0.59</speed>
  <fix>3d</fix>
</trkpt>
<trkpt lat="-27.2744426" lon="151.2900442">
  <ele>357.96</ele>
  <time>2026-09-01T19:50:54Z</time>
  <course>249.39</course>
  <speed>0.563648826841678</speed>
  <fix>3d</fix>
</trkpt>
<trkpt lat="-27.2744433" lon="151.2900448">
  <ele>358.14</ele>
  <time>2026-09-01T19:50:54Z</time>
  <course>335.23</course>
  <speed>0.59</speed>
  <fix>3d</fix>
</trkpt>
<trkpt lat="-27.2744421" lon="151.290044">
  <ele>357.95</ele>
  <time>2026-09-01T19:50:54Z</time>
  <course>249.31</course>
  <speed>0.5554277630799526</speed>
  <fix>3d</fix>
</trkpt>
<trkpt lat="-27.2744424" lon="151.2900443">
  <ele>358.14</ele>
  <time>2026-09-01T19:50:54Z</time>
  <course>336.84</course>
  <speed>0.59</speed>
  <fix>3d</fix>
</trkpt>
<trkpt lat="-27.2744416" lon="151.2900438">
  <ele>357.95</ele>
  <time>2026-09-01T19:50:54Z</time>
  <course>249.26</course>
  <speed>0.5502726596879042</speed>
  <fix>3d</fix>
</trkpt>
<trkpt lat="-27.2744424" lon="151.2900443">
  <ele>358.14</ele>
  <time>2026-09-01T19:50:54Z</time>
  <course>336.84</course>
  <speed>0.59</speed>
  <fix>3d</fix>
</trkpt>
<trkpt lat="-27.2744411" lon="151.2900436">
  <ele>357.95</ele>
  <time>2026-09-01T19:50:54Z</time>
  <course>249.26</course>
  <speed>0.5536244214266564</speed>
  <fix>3d</fix>
</trkpt>
<trkpt lat="-27.2744414" lon="151.2900439">
  <ele>358.14</ele>
  <time>2026-09-01T19:50:54Z</time>
  <course>340.86</course>
  <speed>0.58</speed>
  <fix>3d</fix>
</trkpt>
<trkpt lat="-27.2744406" lon="151.2900435">
  <ele>357.95</ele>
  <time>2026-09-01T19:50:54Z</time>
  <course>249.28</course>
  <speed>0.5412023651093923</speed>
  <fix>3d</fix>
</trkpt>
<trkpt lat="-27.2744414" lon="151.2900439">
  <ele>358.14</ele>
  <time>2026-09-01T19:50:54Z</time>
  <course>340.86</course>
  <speed>0.58</speed>
  <fix>3d</fix>
</trkpt>
<trkpt lat="-27.2744401" lon="151.2900433">
  <ele>357.95</ele>
  <time>2026-09-01T19:50:54Z</time>
  <course>249.31</course>
  <speed>0.5345091205957107</speed>
  <fix>3d</fix>
</trkpt>
<trkpt lat="-27.2744403" lon="151.2900435">
  <ele>358.14</ele>
  <time>2026-09-01T19:50:54Z</time>
  <course>343.91</course>
  <speed>0.57</speed>
  <fix>3d</fix>
</trkpt>
<trkpt lat="-27.2744397" lon="151.2900432">
  <ele>357.95</ele>
  <time>2026-09-01T19:50:54Z</time>
  <course>249.33</course>
  <speed>0.5281098370604357</speed>
  <fix>3d</fix>
</trkpt>
<trkpt lat="-27.2744403" lon="151.2900435">
  <ele>358.14</ele>
  <time>2026-09-01T19:50:54Z</time>
  <course>343.91</course>
  <speed>0.57</speed>
  <fix>3d</fix>
</trkpt>
<trkpt lat="-27.2744392" lon="151.290043">
  <ele>357.95</ele>
  <time>2026-09-01T19:50:54Z</time>
  <course>249.34</course>
  <speed>0.5220153254455275</speed>
  <fix>3d</fix>
</trkpt>
<trkpt lat="-27.2744394" lon="151.2900432">
  <ele>358.14</ele>
  <time>2026-09-01T19:50:54Z</time>
  <course>342.63</course>
  <speed>0.55</speed>
  <fix>3d</fix>
</trkpt>
<trkpt lat="-27.2744387" lon="151.2900428">
  <ele>357.94</ele>
  <time>2026-09-01T19:50:54Z</time>
  <course>249.34</course>
  <speed>0.52</speed>
  <fix>3d</fix>
</trkpt>
<trkpt lat="-27.2744394" lon="151.2900432">
  <ele>358.14</ele>
  <time>2026-09-01T19:50:54Z</time>
  <course>342.63</course>
  <speed>0.55</speed>
  <fix>3d</fix>
</trkpt>
<trkpt lat="-27.2744383" lon="151.2900426">
  <ele>357.94</ele>
  <time>2026-09-01T19:50:54Z</time>
  <course>249.34</course>
  <speed>0.5099019513592785</speed>
  <fix>3d</fix>
</trkpt>
<trkpt lat="-27.2744384" lon="151.2900429">
  <ele>358.14</ele>
  <time>2026-09-01T19:50:54Z</time>
  <course>338.5</course>
  <speed>0.54</speed>
  <fix>3d</fix>
</trkpt>
<trkpt lat="-27.2744379" lon="151.2900424">
  <ele>357.94</ele>
  <time>2026-09-01T19:50:54Z</time>
  <course>249.34</course>
  <speed>0.5011985634456667</speed>
  <fix>3d</fix>
</trkpt>
<trkpt lat="-27.2744384" lon="151.2900429">
  <ele>358.14</ele>
  <time>2026-09-01T19:50:54Z</time>
  <course>338.5</course>
  <speed>0.54</speed>
  <fix>3d</fix>
</trkpt>
<trkpt lat="-27.2744374" lon="151.2900421">
  <ele>357.94</ele>
  <time>2026-09-01T19:50:54Z</time>
  <course>249.35</course>
  <speed>0.4973932046178355</speed>
  <fix>3d</fix>
</trkpt>
<trkpt lat="-27.2744376" lon="151.2900424">
  <ele>358.14</ele>
  <time>2026-09-01T19:50:54Z</time>
  <course>333.63</course>
  <speed>0.53</speed>
  <fix>3d</fix>
</trkpt>
<trkpt lat="-27.274437" lon="151.2900419">
  <ele>357.94</ele>
  <time>2026-09-01T19:50:54Z</time>
  <course>249.33</course>
  <speed>0.48877397639399744</speed>
  <fix>3d</fix>
</trkpt>
<trkpt lat="-27.2744376" lon="151.2900424">
  <ele>358.14</ele>
  <time>2026-09-01T19:50:54Z</time>
  <course>333.63</course>
  <speed>0.53</speed>
  <fix>3d</fix>
</trkpt>
<trkpt lat="-27.2744366" lon="151.2900416">
  <ele>357.95</ele>
  <time>2026-09-01T19:50:54Z</time>
  <course>249.3</course>
  <speed>0.47507894080878815</speed>
  <fix>3d</fix>
</trkpt>
<trkpt lat="-27.2744367" lon="151.2900419">
  <ele>358.14</ele>
  <time>2026-09-01T19:50:54Z</time>
  <course>331.46</course>
  <speed>0.51</speed>
  <fix>3d</fix>
</trkpt>
<trkpt lat="-27.2744362" lon="151.2900414">
  <ele>357.95</ele>
  <time>2026-09-01T19:50:54Z</time>
  <course>249.25</course>
  <speed>0.47010637094172636</speed>
  <fix>3d</fix>
</trkpt>
<trkpt lat="-27.2744367" lon="151.2900419">
  <ele>358.14</ele>
  <time>2026-09-01T19:50:54Z</time>
  <course>331.46</course>
  <speed>0.51</speed>
  <fix>3d</fix>
</trkpt>
<trkpt lat="-27.2744358" lon="151.2900412">
  <ele>357.95</ele>
  <time>2026-09-01T19:50:54Z</time>
  <course>249.2</course>
  <speed>0.45650848842053304</speed>
  <fix>3d</fix>
</trkpt>
<trkpt lat="-27.274436" lon="151.2900414">
  <ele>358.15</ele>
  <time>2026-09-01T19:50:54Z</time>
  <course>332.46</course>
  <speed>0.49</speed>
  <fix>3d</fix>
</trkpt>
<trkpt lat="-27.2744355" lon="151.290041">
  <ele>357.95</ele>
  <time>2026-09-01T19:50:54Z</time>
  <course>249.13</course>
  <speed>0.4428317965096906</speed>
  <fix>3d</fix>
</trkpt>
<trkpt lat="-27.274436" lon="151.2900414">
  <ele>358.15</ele>
  <time>2026-09-01T19:50:54Z</time>
  <course>332.46</course>
  <speed>0.49</speed>
  <fix>3d</fix>
</trkpt>
<trkpt lat="-27.2744351" lon="151.2900408">
  <ele>357.95</ele>
  <time>2026-09-01T19:50:54Z</time>
  <course>249.1</course>
  <speed>0.4301162633521314</speed>
  <fix>3d</fix>
</trkpt>
<trkpt lat="-27.2744352" lon="151.290041">
  <ele>358.15</ele>
  <time>2026-09-01T19:50:54Z</time>
  <course>338.04</course>
  <speed>0.47</speed>
  <fix>3d</fix>
</trkpt>
<trkpt lat="-27.2744347" lon="151.2900407">
  <ele>357.95</ele>
  <time>2026-09-01T19:50:54Z</time>
  <course>249.09</course>
  <speed>0.4220189569201838</speed>
  <fix>3d</fix>
</trkpt>
<trkpt lat="-27.2744352" lon="151.290041">
  <ele>358.15</ele>
  <time>2026-09-01T19:50:54Z</time>
  <course>338.04</course>
  <speed>0.47</speed>
  <fix>3d</fix>
</trkpt>
<trkpt lat="-27.2744343" lon="151.2900406">
  <ele>357.95</ele>
  <time>2026-09-01T19:50:54Z</time>
  <course>249.1</course>
  <speed>0.4159326868617084</speed>
  <fix>3d</fix>
</trkpt>
<trkpt lat="-27.2744343" lon="151.2900407">
  <ele>358.15</ele>
  <time>2026-09-01T19:50:54Z</time>
  <course>346.7</course>
  <speed>0.45</speed>
  <fix>3d</fix>
</trkpt>
<trkpt lat="-27.2744339" lon="151.2900406">
  <ele>357.95</ele>
  <time>2026-09-01T19:50:54Z</time>
  <course>249.12</course>
  <speed>0.40311288741492746</speed>
  <fix>3d</fix>
</trkpt>
<trkpt lat="-27.2744343" lon="151.2900407">
  <ele>358.15</ele>
  <time>2026-09-01T19:50:54Z</time>
  <course>346.7</course>
  <speed>0.45</speed>
  <fix>3d</fix>
</trkpt>
<trkpt lat="-27.2744335" lon="151.2900405">
  <ele>357.95</ele>
  <time>2026-09-01T19:50:54Z</time>
  <course>249.13</course>
  <speed>0.3920459156782532</speed>
  <fix>3d</fix>
</trkpt>
<trkpt lat="-27.2744336" lon="151.2900406">
  <ele>358.15</ele>
  <time>2026-09-01T19:50:54Z</time>
  <course>352.33</course>
  <speed>0.43</speed>
  <fix>3d</fix>
</trkpt>
<trkpt lat="-27.2744331" lon="151.2900405">
  <ele>357.95</ele>
  <time>2026-09-01T19:50:54Z</time>
  <course>249.14</course>
  <speed>0.382099463490856</speed>
  <fix>3d</fix>
</trkpt>
<trkpt lat="-27.2744336" lon="151.2900406">
  <ele>358.15</ele>
  <time>2026-09-01T19:50:54Z</time>
  <course>352.33</course>
  <speed>0.43</speed>
  <fix>3d</fix>
</trkpt>
<trkpt lat="-27.2744327" lon="151.2900404">
  <ele>357.95</ele>
  <time>2026-09-01T19:50:54Z</time>
  <course>249.18</course>
  <speed>0.3634556369077249</speed>
  <fix>3d</fix>
</trkpt>
<trkpt lat="-27.2744328" lon="151.2900405">
  <ele>358.15</ele>
  <time>2026-09-01T19:50:54Z</time>
  <course>353.58</course>
  <speed>0.41</speed>
  <fix>3d</fix>
</trkpt>
<trkpt lat="-27.2744324" lon="151.2900404">
  <ele>357.95</ele>
  <time>2026-09-01T19:50:54Z</time>
  <course>249.18</course>
  <speed>0.34481879299133333</speed>
  <fix>3d</fix>
</trkpt>
<trkpt lat="-27.2744328" lon="151.2900405">
  <ele>358.15</ele>
  <time>2026-09-01T19:50:54Z</time>
  <course>353.58</course>
  <speed>0.41</speed>
  <fix>3d</fix>
</trkpt>
<trkpt lat="-27.2744321" lon="151.2900402">
  <ele>357.95</ele>
  <time>2026-09-01T19:50:54Z</time>
  <course>249.17</course>
  <speed>0.3361547262794322</speed>
  <fix>3d</fix>
</trkpt>
<trkpt lat="-27.2744321" lon="151.2900404">
  <ele>358.16</ele>
  <time>2026-09-01T19:50:54Z</time>
  <course>346.93</course>
  <speed>0.37</speed>
  <fix>3d</fix>
</trkpt>
<trkpt lat="-27.2744318" lon="151.2900401">
  <ele>357.95</ele>
  <time>2026-09-01T19:50:54Z</time>
  <course>249.15</course>
  <speed>0.3178049716414141</speed>
  <fix>3d</fix>
</trkpt>
<trkpt lat="-27.2744321" lon="151.2900404">
  <ele>358.16</ele>
  <time>2026-09-01T19:50:54Z</time>
  <course>346.93</course>
  <speed>0.37</speed>
  <fix>3d</fix>
</trkpt>
<trkpt lat="-27.2744315" lon="151.29004">
  <ele>357.95</ele>
  <time>2026-09-01T19:50:54Z</time>
  <course>249.13</course>
  <speed>0.3087069808086626</speed>
  <fix>3d</fix>
</trkpt>
<trkpt lat="-27.2744315" lon="151.2900401">
  <ele>358.16</ele>
  <time>2026-09-01T19:50:54Z</time>
  <course>338.82</course>
  <speed>0.34</speed>
  <fix>3d</fix>
</trkpt>
<trkpt lat="-27.2744312" lon="151.2900399">
  <ele>357.95</ele>
  <time>2026-09-01T19:50:54Z</time>
  <course>249.09</course>
  <speed>0.29546573405388316</speed>
  <fix>3d</fix>
</trkpt>
<trkpt lat="-27.2744315" lon="151.2900401">
  <ele>358.16</ele>
  <time>2026-09-01T19:50:54Z</time>
  <course>338.82</course>
  <speed>0.34</speed>
  <fix>3d</fix>
</trkpt>
<trkpt lat="-27.274431" lon="151.2900398">
  <ele>357.96</ele>
  <time>2026-09-01T19:50:54Z</time>
  <course>249.06</course>
  <speed>0.2823118842698621</speed>
  <fix>3d</fix>
</trkpt>
<trkpt lat="-27.2744309" lon="151.2900399">
  <ele>358.16</ele>
  <time>2026-09-01T19:50:54Z</time>
  <course>338.48</course>
  <speed>0.32</speed>
  <fix>3d</fix>
</trkpt>
<trkpt lat="-27.2744307" lon="151.2900397">
  <ele>357.96</ele>
  <time>2026-09-01T19:50:54Z</time>
  <course>249.02</course>
  <speed>0.26</speed>
  <fix>3d</fix>
</trkpt>
<trkpt lat="-27.2744309" lon="151.2900399">
  <ele>358.16</ele>
  <time>2026-09-01T19:50:54Z</time>
  <course>338.48</course>
  <speed>0.32</speed>
  <fix>3d</fix>
</trkpt>
<trkpt lat="-27.2744305" lon="151.2900396">
  <ele>357.95</ele>
  <time>2026-09-01T19:50:54Z</time>
  <course>248.95</course>
  <speed>0.2529822128134704</speed>
  <fix>3d</fix>
</trkpt>
<trkpt lat="-27.2744304" lon="151.2900397">
  <ele>358.16</ele>
  <time>2026-09-01T19:50:54Z</time>
  <course>341.33</course>
  <speed>0.29</speed>
  <fix>3d</fix>
</trkpt>
<trkpt lat="-27.2744302" lon="151.2900395">
  <ele>357.95</ele>
  <time>2026-09-01T19:50:54Z</time>
  <course>248.92</course>
  <speed>0.2501999200639361</speed>
  <fix>3d</fix>
</trkpt>
<trkpt lat="-27.2744304" lon="151.2900397">
  <ele>358.16</ele>
  <time>2026-09-01T19:50:54Z</time>
  <course>341.33</course>
  <speed>0.29</speed>
  <fix>3d</fix>
</trkpt>
<trkpt lat="-27.27443" lon="151.2900396">
  <ele>357.95</ele>
  <time>2026-09-01T19:50:54Z</time>
  <course>248.92</course>
  <speed>0.25179356624028343</speed>
  <fix>3d</fix>
</trkpt>
<trkpt lat="-27.2744299" lon="151.2900396">
  <ele>358.16</ele>
  <time>2026-09-01T19:50:54Z</time>
  <course>355.56</course>
  <speed>0.27</speed>
  <fix>3d</fix>
</trkpt>
<trkpt lat="-27.2744297" lon="151.2900396">
  <ele>357.95</ele>
  <time>2026-09-01T19:50:54Z</time>
  <course>248.92</course>
  <speed>0.2596150997149434</speed>
  <fix>3d</fix>
</trkpt>
<trkpt lat="-27.2744299" lon="151.2900396">
  <ele>358.16</ele>
  <time>2026-09-01T19:50:54Z</time>
  <course>355.56</course>
  <speed>0.27</speed>
  <fix>3d</fix>
</trkpt>
<trkpt lat="-27.2744295" lon="151.2900396">
  <ele>357.96</ele>
  <time>2026-09-01T19:50:54Z</time>
  <course>248.94</course>
  <speed>0.26</speed>
  <fix>3d</fix>
</trkpt>
<trkpt lat="-27.2744294" lon="151.2900396">
  <ele>358.16</ele>
  <time>2026-09-01T19:50:54Z</time>
  <course>14.81</course>
  <speed>0.28</speed>
  <fix>3d</fix>
</trkpt>
<trkpt lat="-27.2744292" lon="151.2900397">
  <ele>357.96</ele>
  <time>2026-09-01T19:50:54Z</time>
  <course>248.97</course>
  <speed>0.25942243542145693</speed>
  <fix>3d</fix>
</trkpt>
<trkpt lat="-27.2744294" lon="151.2900396">
  <ele>358.16</ele>
  <time>2026-09-01T19:50:54Z</time>
  <course>14.81</course>
  <speed>0.28</speed>
  <fix>3d</fix>
</trkpt>
<trkpt lat="-27.274429" lon="151.2900399">
  <ele>357.96</ele>
  <time>2026-09-01T19:50:54Z</time>
  <course>248.99</course>
  <speed>0.25553864678361277</speed>
  <fix>3d</fix>
</trkpt>
<trkpt lat="-27.2744289" lon="151.2900398">
  <ele>358.17</ele>
  <time>2026-09-01T19:50:54Z</time>
  <course>25.99</course>
  <speed>0.28</speed>
  <fix>3d</fix>
</trkpt>
<trkpt lat="-27.2744288" lon="151.29004">
  <ele>357.96</ele>
  <time>2026-09-01T19:50:54Z</time>
  <course>249.07</course>
  <speed>0.23853720883753127</speed>
  <fix>3d</fix>
</trkpt>
<trkpt lat="-27.2744289" lon="151.2900398">
  <ele>358.17</ele>
  <time>2026-09-01T19:50:54Z</time>
  <course>25.99</course>
  <speed>0.28</speed>
  <fix>3d</fix>
</trkpt>
<trkpt lat="-27.2744286" lon="151.2900401">
  <ele>357.96</ele>
  <time>2026-09-01T19:50:54Z</time>
  <course>249.08</course>
  <speed>0.19235384061671343</speed>
  <fix>3d</fix>
</trkpt>
<trkpt lat="-27.2744285" lon="151.2900399">
  <ele>358.17</ele>
  <time>2026-09-01T19:50:54Z</time>
  <course>29.38</course>
  <speed>0.25</speed>
  <fix>3d</fix>
</trkpt>
<trkpt lat="-27.2744284" lon="151.2900402">
  <ele>357.96</ele>
  <time>2026-09-01T19:50:54Z</time>
  <course>249.08</course>
  <speed>0.15652475842498528</speed>
  <fix>3d</fix>
</trkpt>
<trkpt lat="-27.2744285" lon="151.2900399">
  <ele>358.17</ele>
  <time>2026-09-01T19:50:54Z</time>
  <course>29.38</course>
  <speed>0.25</speed>
  <fix>3d</fix>
</trkpt>
<trkpt lat="-27.2744283" lon="151.2900403">
  <ele>357.96</ele>
  <time>2026-09-01T19:50:54Z</time>
  <course>249.07</course>
  <speed>0.13</speed>
  <fix>3d</fix>
</trkpt>
<trkpt lat="-27.2744281" lon="151.2900402">
  <ele>358.17</ele>
  <time>2026-09-01T19:50:54Z</time>
  <course>26.86</course>
  <speed>0.19</speed>
  <fix>3d</fix>
</trkpt>
<trkpt lat="-27.2744282" lon="151.2900403">
  <ele>357.96</ele>
  <time>2026-09-01T19:50:54Z</time>
  <course>249.04</course>
  <speed>0.1118033988749895</speed>
  <fix>3d</fix>
</trkpt>
<trkpt lat="-27.2744281" lon="151.2900402">
  <ele>358.17</ele>
  <time>2026-09-01T19:50:54Z</time>
  <course>26.86</course>
  <speed>0.19</speed>
  <fix>3d</fix>
</trkpt>
<trkpt lat="-27.274428" lon="151.2900404">
  <ele>357.96</ele>
  <time>2026-09-01T19:50:54Z</time>
  <course>249.01</course>
  <speed>0.10816653826391968</speed>
  <fix>3d</fix>
</trkpt>
<trkpt lat="-27.2744279" lon="151.2900404">
  <ele>358.17</ele>
  <time>2026-09-01T19:50:54Z</time>
  <course>28.82</course>
  <speed>0.15</speed>
  <fix>3d</fix>
</trkpt>
<trkpt lat="-27.2744279" lon="151.2900405">
  <ele>357.97</ele>
  <time>2026-09-01T19:50:54Z</time>
  <course>248.97</course>
  <speed>0.09899494936611665</speed>
  <fix>3d</fix>
</trkpt>
<trkpt lat="-27.2744279" lon="151.2900404">
  <ele>358.17</ele>
  <time>2026-09-01T19:50:54Z</time>
  <course>28.82</course>
  <speed>0.15</speed>
  <fix>3d</fix>
</trkpt>
<trkpt lat="-27.2744279" lon="151.2900405">
  <ele>357.97</ele>
  <time>2026-09-01T19:50:54Z</time>
  <course>248.93</course>
  <speed>0.1</speed>
  <fix>3d</fix>
</trkpt>
<trkpt lat="-27.2744276" lon="151.2900405">
  <ele>358.17</ele>
  <time>2026-09-01T19:50:54Z</time>
  <course>40.74</course>
  <speed>0.13</speed>
  <fix>3d</fix>
</trkpt>
<trkpt lat="-27.2744278" lon="151.2900406">
  <ele>357.97</ele>
  <time>2026-09-01T19:50:54Z</time>
  <course>248.85</course>
  <speed>0.12083045973594572</speed>
  <fix>3d</fix>
</trkpt>
<trkpt lat="-27.2744276" lon="151.2900405">
  <ele>358.17</ele>
  <time>2026-09-01T19:50:54Z</time>
  <course>40.74</course>
  <speed>0.13</speed>
  <fix>3d</fix>
</trkpt>
<trkpt lat="-27.2744277" lon="151.2900408">
  <ele>357.97</ele>
  <time>2026-09-01T19:50:54Z</time>
  <course>248.83</course>
  <speed>0.18973665961010278</speed>
  <fix>3d</fix>
</trkpt>
<trkpt lat="-27.2744275" lon="151.2900407">
  <ele>358.17</ele>
  <time>2026-09-01T19:50:54Z</time>
  <course>58.99</course>
  <speed>0.16</speed>
  <fix>3d</fix>
</trkpt>
<trkpt lat="-27.2744276" lon="151.290041">
  <ele>357.97</ele>
  <time>2026-09-01T19:50:54Z</time>
  <course>248.83</course>
  <speed>0.23769728648009425</speed>
  <fix>3d</fix>
</trkpt>
<trkpt lat="-27.2744275" lon="151.2900407">
  <ele>358.17</ele>
  <time>2026-09-01T19:50:54Z</time>
  <course>58.99</course>
  <speed>0.16</speed>
  <fix>3d</fix>
</trkpt>
<trkpt lat="-27.2744275" lon="151.2900413">
  <ele>357.97</ele>
  <time>2026-09-01T19:50:54Z</time>
  <course>248.82</course>
  <speed>0.2765863337187866</speed>
  <fix>3d</fix>
</trkpt>
<trkpt lat="-27.2744274" lon="151.2900411">
  <ele>358.17</ele>
  <time>2026-09-01T19:50:54Z</time>
  <course>70.12</course>
  <speed>0.25</speed>
  <fix>3d</fix>
</trkpt>
<trkpt lat="-27.2744275" lon="151.2900416">
  <ele>357.97</ele>
  <time>2026-09-01T19:50:54Z</time>
  <course>248.8</course>
  <speed>0.304138126514911</speed>
  <fix>3d</fix>
</trkpt>
<trkpt lat="-27.2744274" lon="151.2900411">
  <ele>358.17</ele>
  <time>2026-09-01T19:50:54Z</time>
  <course>70.12</course>
  <speed>0.25</speed>
  <fix>3d</fix>
</trkpt>
<trkpt lat="-27.2744274" lon="151.2900419">
  <ele>357.97</ele>
  <time>2026-09-01T19:50:54Z</time>
  <course>248.77</course>
  <speed>0.3125699921617557</speed>
  <fix>3d</fix>
</trkpt>
<trkpt lat="-27.2744272" lon="151.2900417">
  <ele>358.16</ele>
  <time>2026-09-01T19:50:54Z</time>
  <course>75.71</course>
  <speed>0.31</speed>
  <fix>3d</fix>
</trkpt>
<trkpt lat="-27.2744273" lon="151.2900422">
  <ele>357.97</ele>
  <time>2026-09-01T19:50:54Z</time>
  <course>248.73</course>
  <speed>0.32140317359976395</speed>
  <fix>3d</fix>
</trkpt>
<trkpt lat="-27.2744272" lon="151.2900417">
  <ele>358.16</ele>
  <time>2026-09-01T19:50:54Z</time>
  <course>75.71</course>
  <speed>0.31</speed>
  <fix>3d</fix>
</trkpt>
<trkpt lat="-27.2744273" lon="151.2900426">
  <ele>357.97</ele>
  <time>2026-09-01T19:50:54Z</time>
  <course>248.73</course>
  <speed>0.32015621187164245</speed>
  <fix>3d</fix>
</trkpt>
<trkpt lat="-27.2744271" lon="151.2900423">
  <ele>358.16</ele>
  <time>2026-09-01T19:50:54Z</time>
  <course>80.58</course>
  <speed>0.33</speed>
  <fix>3d</fix>
</trkpt>
<trkpt lat="-27.2744273" lon="151.2900429">
  <ele>357.96</ele>
  <time>2026-09-01T19:50:54Z</time>
  <course>248.72</course>
  <speed>0.260768096208106</speed>
  <fix>3d</fix>
</trkpt>
<trkpt lat="-27.2744271" lon="151.2900423">
  <ele>358.16</ele>
  <time>2026-09-01T19:50:54Z</time>
  <course>80.58</course>
  <speed>0.33</speed>
  <fix>3d</fix>
</trkpt>
<trkpt lat="-27.2744273" lon="151.2900431">
  <ele>357.96</ele>
  <time>2026-09-01T19:50:54Z</time>
  <course>248.65</course>
  <speed>0.21840329667841554</speed>
  <fix>3d</fix>
</trkpt>
<trkpt lat="-27.2744271" lon="151.2900429">
  <ele>358.16</ele>
  <time>2026-09-01T19:50:54Z</time>
  <course>89.6</course>
  <speed>0.28</speed>
  <fix>3d</fix>
</trkpt>
<trkpt lat="-27.2744273" lon="151.2900433">
  <ele>357.96</ele>
  <time>2026-09-01T19:50:54Z</time>
  <course>248.62</course>
  <speed>0.19235384061671343</speed>
  <fix>3d</fix>
</trkpt>
<trkpt lat="-27.2744271" lon="151.2900429">
  <ele>358.16</ele>
  <time>2026-09-01T19:50:54Z</time>
  <course>89.6</course>
  <speed>0.28</speed>
  <fix>3d</fix>
</trkpt>
<trkpt lat="-27.2744273" lon="151.2900435">
  <ele>357.96</ele>
  <time>2026-09-01T19:50:54Z</time>
  <course>248.62</course>
  <speed>0.194164878389476</speed>
  <fix>3d</fix>
</trkpt>
<trkpt lat="-27.2744271" lon="151.2900434">
  <ele>358.15</ele>
  <time>2026-09-01T19:50:54Z</time>
  <course>107.65</course>
  <speed>0.21</speed>
  <fix>3d</fix>
</trkpt>
<trkpt lat="-27.2744274" lon="151.2900437">
  <ele>357.96</ele>
  <time>2026-09-01T19:50:54Z</time>
  <course>248.66</course>
  <speed>0.19849433241279207</speed>
  <fix>3d</fix>
</trkpt>
<trkpt lat="-27.2744271" lon="151.2900434">
  <ele>358.15</ele>
  <time>2026-09-01T19:50:54Z</time>
  <course>107.65</course>
  <speed>0.21</speed>
  <fix>3d</fix>
</trkpt>
<trkpt lat="-27.2744275" lon="151.2900438">
  <ele>357.96</ele>
  <time>2026-09-01T19:50:54Z</time>
  <course>248.73</course>
  <speed>0.21213203435596426</speed>
  <fix>3d</fix>
</trkpt>
<trkpt lat="-27.2744272" lon="151.2900438">
  <ele>358.15</ele>
  <time>2026-09-01T19:50:54Z</time>
  <course>122.29</course>
  <speed>0.2</speed>
  <fix>3d</fix>
</trkpt>
<trkpt lat="-27.2744276" lon="151.290044">
  <ele>357.96</ele>
  <time>2026-09-01T19:50:54Z</time>
  <course>248.8</course>
  <speed>0.2262741699796952</speed>
  <fix>3d</fix>
</trkpt>
<trkpt lat="-27.2744272" lon="151.2900438">
  <ele>358.15</ele>
  <time>2026-09-01T19:50:54Z</time>
  <course>122.29</course>
  <speed>0.2</speed>
  <fix>3d</fix>
</trkpt>
<trkpt lat="-27.2744278" lon="151.2900442">
  <ele>357.97</ele>
  <time>2026-09-01T19:50:55Z</time>
  <course>248.87</course>
  <speed>0.24083189157584592</speed>
  <fix>3d</fix>
</trkpt>
<trkpt lat="-27.2744274" lon="151.2900442">
  <ele>358.15</ele>
  <time>2026-09-01T19:50:55Z</time>
  <course>129.32</course>
  <speed>0.22</speed>
  <fix>3d</fix>
</trkpt>
<trkpt lat="-27.2744279" lon="151.2900444">
  <ele>357.97</ele>
  <time>2026-09-01T19:50:55Z</time>
  <course>248.87</course>
  <speed>0.261725046566048</speed>
  <fix>3d</fix>
</trkpt>
<trkpt lat="-27.2744274" lon="151.2900442">
  <ele>358.15</ele>
  <time>2026-09-01T19:50:55Z</time>
  <course>129.32</course>
  <speed>0.22</speed>
  <fix>3d</fix>
</trkpt>
<trkpt lat="-27.2744281" lon="151.2900446">
  <ele>357.97</ele>
  <time>2026-09-01T19:50:55Z</time>
  <course>248.9</course>
  <speed>0.3</speed>
  <fix>3d</fix>
</trkpt>
<trkpt lat="-27.2744276" lon="151.2900445">
  <ele>358.15</ele>
  <time>2026-09-01T19:50:55Z</time>
  <course>126.72</course>
  <speed>0.27</speed>
  <fix>3d</fix>
</trkpt>
<trkpt lat="-27.2744282" lon="151.2900449">
  <ele>357.97</ele>
  <time>2026-09-01T19:50:55Z</time>
  <course>248.9</course>
  <speed>0.34132096331752027</speed>
  <fix>3d</fix>
</trkpt>
<trkpt lat="-27.2744276" lon="151.2900445">
  <ele>358.15</ele>
  <time>2026-09-01T19:50:55Z</time>
  <course>126.72</course>
  <speed>0.27</speed>
  <fix>3d</fix>
</trkpt>
<trkpt lat="-27.2744283" lon="151.2900452">
  <ele>357.97</ele>
  <time>2026-09-01T19:50:55Z</time>
  <course>248.88</course>
  <speed>0.3671511950137164</speed>
  <fix>3d</fix>
</trkpt>
<trkpt lat="-27.2744279" lon="151.290045">
  <ele>358.15</ele>
  <time>2026-09-01T19:50:55Z</time>
  <course>119.52</course>
  <speed>0.33</speed>
  <fix>3d</fix>
</trkpt>
<trkpt lat="-27.2744285" lon="151.2900456">
  <ele>357.97</ele>
  <time>2026-09-01T19:50:55Z</time>
  <course>248.83</course>
  <speed>0.38078865529319544</speed>
  <fix>3d</fix>
</trkpt>
<trkpt lat="-27.2744279" lon="151.290045">
  <ele>358.15</ele>
  <time>2026-09-01T19:50:55Z</time>
  <course>119.52</course>
  <speed>0.33</speed>
  <fix>3d</fix>
</trkpt>
<trkpt lat="-27.2744286" lon="151.2900459">
  <ele>357.97</ele>
  <time>2026-09-01T19:50:55Z</time>
  <course>248.77</course>
  <speed>0.3944616584663204</speed>
  <fix>3d</fix>
</trkpt>
<trkpt lat="-27.2744282" lon="151.2900457">
  <ele>358.15</ele>
  <time>2026-09-01T19:50:55Z</time>
  <course>117.17</course>
  <speed>0.38</speed>
  <fix>3d</fix>
</trkpt>
<trkpt lat="-27.2744288" lon="151.2900463">
  <ele>357.96</ele>
  <time>2026-09-01T19:50:55Z</time>
  <course>248.71</course>
  <speed>0.4049691346263317</speed>
  <fix>3d</fix>
</trkpt>
<trkpt lat="-27.2744282" lon="151.2900457">
  <ele>358.15</ele>
  <time>2026-09-01T19:50:55Z</time>
  <course>117.17</course>
  <speed>0.38</speed>
  <fix>3d</fix>
</trkpt>
<trkpt lat="-27.274429" lon="151.2900466">
  <ele>357.96</ele>
  <time>2026-09-01T19:50:55Z</time>
  <course>248.72</course>
  <speed>0.4</speed>
  <fix>3d</fix>
</trkpt>
<trkpt lat="-27.2744286" lon="151.2900464">
  <ele>358.15</ele>
  <time>2026-09-01T19:50:55Z</time>
  <course>120.03</course>
  <speed>0.4</speed>
  <fix>3d</fix>
</trkpt>
<trkpt lat="-27.2744292" lon="151.2900469">
  <ele>357.96</ele>
  <time>2026-09-01T19:50:55Z</time>
  <course>248.67</course>
  <speed>0.3753664875824692</speed>
  <fix>3d</fix>
</trkpt>
<trkpt lat="-27.2744286" lon="151.2900464">
  <ele>358.15</ele>
  <time>2026-09-01T19:50:55Z</time>
  <course>120.03</course>
  <speed>0.4</speed>
  <fix>3d</fix>
</trkpt>
<trkpt lat="-27.2744294" lon="151.2900472">
  <ele>357.96</ele>
  <time>2026-09-01T19:50:55Z</time>
  <course>248.61</course>
  <speed>0.3721558813185679</speed>
  <fix>3d</fix>
</trkpt>
<trkpt lat="-27.274429" lon="151.290047">
  <ele>358.14</ele>
  <time>2026-09-01T19:50:55Z</time>
  <course>132.93</course>
  <speed>0.38</speed>
  <fix>3d</fix>
</trkpt>
<trkpt lat="-27.2744297" lon="151.2900473">
  <ele>357.96</ele>
  <time>2026-09-01T19:50:55Z</time>
  <course>248.57</course>
  <speed>0.38078865529319544</speed>
  <fix>3d</fix>
</trkpt>
<trkpt lat="-27.274429" lon="151.290047">
  <ele>358.14</ele>
  <time>2026-09-01T19:50:55Z</time>
  <course>132.93</course>
  <speed>0.38</speed>
  <fix>3d</fix>
</trkpt>
<trkpt lat="-27.27443" lon="151.2900475">
  <ele>357.96</ele>
  <time>2026-09-01T19:50:55Z</time>
  <course>248.57</course>
  <speed>0.3889730067755345</speed>
  <fix>3d</fix>
</trkpt>
<trkpt lat="-27.2744296" lon="151.2900475">
  <ele>358.14</ele>
  <time>2026-09-01T19:50:55Z</time>
  <course>151.59</course>
  <speed>0.37</speed>
  <fix>3d</fix>
</trkpt>
<trkpt lat="-27.2744303" lon="151.2900476">
  <ele>357.96</ele>
  <time>2026-09-01T19:50:55Z</time>
  <course>248.61</course>
  <speed>0.4080441152620633</speed>
  <fix>3d</fix>
</trkpt>
<trkpt lat="-27.2744296" lon="151.2900475">
  <ele>358.14</ele>
  <time>2026-09-01T19:50:55Z</time>
  <course>151.59</course>
  <speed>0.37</speed>
  <fix>3d</fix>
</trkpt>
<trkpt lat="-27.2744307" lon="151.2900478">
  <ele>357.96</ele>
  <time>2026-09-01T19:50:55Z</time>
  <course>248.67</course>
  <speed>0.417612260356422</speed>
  <fix>3d</fix>
</trkpt>
<trkpt lat="-27.2744302" lon="151.2900478">
  <ele>358.14</ele>
  <time>2026-09-01T19:50:55Z</time>
  <course>159.16</course>
  <speed>0.39</speed>
  <fix>3d</fix>
</trkpt>
<trkpt lat="-27.274431" lon="151.2900479">
  <ele>357.96</ele>
  <time>2026-09-01T19:50:55Z</time>
  <course>248.73</course>
  <speed>0.4301162633521314</speed>
  <fix>3d</fix>
</trkpt>
<trkpt lat="-27.2744302" lon="151.2900478">
  <ele>358.14</ele>
  <time>2026-09-01T19:50:55Z</time>
  <course>159.16</course>
  <speed>0.39</speed>
  <fix>3d</fix>
</trkpt>
<trkpt lat="-27.2744314" lon="151.2900481">
  <ele>357.96</ele>
  <time>2026-09-01T19:50:55Z</time>
  <course>248.79</course>
  <speed>0.4427188724235731</speed>
  <fix>3d</fix>
</trkpt>
<trkpt lat="-27.2744308" lon="151.2900481">
  <ele>358.14</ele>
  <time>2026-09-01T19:50:55Z</time>
  <course>159.52</course>
  <speed>0.41</speed>
  <fix>3d</fix>
</trkpt>
<trkpt lat="-27.2744317" lon="151.2900482">
  <ele>357.96</ele>
  <time>2026-09-01T19:50:55Z</time>
  <course>248.79</course>
  <speed>0.44944410108488464</speed>
  <fix>3d</fix>
</trkpt>
<trkpt lat="-27.2744308" lon="151.2900481">
  <ele>358.14</ele>
  <time>2026-09-01T19:50:55Z</time>
  <course>159.52</course>
  <speed>0.41</speed>
  <fix>3d</fix>
</trkpt>
<trkpt lat="-27.2744321" lon="151.2900484">
  <ele>357.96</ele>
  <time>2026-09-01T19:50:55Z</time>
  <course>248.81</course>
  <speed>0.4651881339845203</speed>
  <fix>3d</fix>
</trkpt>
<trkpt lat="-27.2744316" lon="151.2900484">
  <ele>358.14</ele>
  <time>2026-09-01T19:50:55Z</time>
  <course>155.4</course>
  <speed>0.44</speed>
  <fix>3d</fix>
</trkpt>
<trkpt lat="-27.2744325" lon="151.2900487">
  <ele>357.96</ele>
  <time>2026-09-01T19:50:55Z</time>
  <course>248.8</course>
  <speed>0.47885279575251516</speed>
  <fix>3d</fix>
</trkpt>
<trkpt lat="-27.2744316" lon="151.2900484">
  <ele>358.14</ele>
  <time>2026-09-01T19:50:55Z</time>
  <course>155.4</course>
  <speed>0.44</speed>
  <fix>3d</fix>
</trkpt>
<trkpt lat="-27.2744328" lon="151.2900489">
  <ele>357.96</ele>
  <time>2026-09-01T19:50:55Z</time>
  <course>248.77</course>
  <speed>0.48877397639399744</speed>
  <fix>3d</fix>
</trkpt>
<trkpt lat="-27.2744323" lon="151.2900488">
  <ele>358.14</ele>
  <time>2026-09-01T19:50:55Z</time>
  <course>149.42</course>
  <speed>0.46</speed>
  <fix>3d</fix>
</trkpt>
<trkpt lat="-27.2744332" lon="151.2900492">
  <ele>357.96</ele>
  <time>2026-09-01T19:50:55Z</time>
  <course>248.74</course>
  <speed>0.4973932046178355</speed>
  <fix>3d</fix>
</trkpt>
<trkpt lat="-27.2744323" lon="151.2900488">
  <ele>358.14</ele>
  <time>2026-09-01T19:50:55Z</time>
  <course>149.42</course>
  <speed>0.46</speed>
  <fix>3d</fix>
</trkpt>
<trkpt lat="-27.2744335" lon="151.2900495">
  <ele>357.96</ele>
  <time>2026-09-01T19:50:55Z</time>
  <course>248.7</course>
  <speed>0.5011985634456667</speed>
  <fix>3d</fix>
</trkpt>
<trkpt lat="-27.274433" lon="151.2900493">
  <ele>358.14</ele>
  <time>2026-09-01T19:50:55Z</time>
  <course>147.6</course>
  <speed>0.49</speed>
  <fix>3d</fix>
</trkpt>
<trkpt lat="-27.2744339" lon="151.2900497">
  <ele>357.97</ele>
  <time>2026-09-01T19:50:55Z</time>
  <course>248.66</course>
  <speed>0.5053711507397312</speed>
  <fix>3d</fix>
</trkpt>
<trkpt lat="-27.274433" lon="151.2900493">
  <ele>358.14</ele>
  <time>2026-09-01T19:50:55Z</time>
  <course>147.6</course>
  <speed>0.49</speed>
  <fix>3d</fix>
</trkpt>
<trkpt lat="-27.2744343" lon="151.2900499">
  <ele>357.97</ele>
  <time>2026-09-01T19:50:55Z</time>
  <course>248.68</course>
  <speed>0.5107837115648853</speed>
  <fix>3d</fix>
</trkpt>
<trkpt lat="-27.2744338" lon="151.2900499">
  <ele>358.13</ele>
  <time>2026-09-01T19:50:55Z</time>
  <course>151.21</course>
  <speed>0.5</speed>
  <fix>3d</fix>
</trkpt>
<trkpt lat="-27.2744347" lon="151.2900501">
  <ele>357.97</ele>
  <time>2026-09-01T19:50:55Z</time>
  <course>248.64</course>
  <speed>0.5263078946776306</speed>
  <fix>3d</fix>
</trkpt>
<trkpt lat="-27.2744338" lon="151.2900499">
  <ele>358.13</ele>
  <time>2026-09-01T19:50:55Z</time>
  <course>151.21</course>
  <speed>0.5</speed>
  <fix>3d</fix>
</trkpt>
<trkpt lat="-27.2744352" lon="151.2900502">
  <ele>357.97</ele>
  <time>2026-09-01T19:50:55Z</time>
  <course>248.6</course>
  <speed>0.5375872022286245</speed>
  <fix>3d</fix>
</trkpt>
<trkpt lat="-27.2744346" lon="151.2900503">
  <ele>358.13</ele>
  <time>2026-09-01T19:50:55Z</time>
  <course>161.42</course>
  <speed>0.51</speed>
  <fix>3d</fix>
</trkpt>
<trkpt lat="-27.2744357" lon="151.2900503">
  <ele>357.97</ele>
  <time>2026-09-01T19:50:55Z</time>
  <course>248.57</course>
  <speed>0.5532630477449222</speed>
  <fix>3d</fix>
</trkpt>
<trkpt lat="-27.2744346" lon="151.2900503">
  <ele>358.13</ele>
  <time>2026-09-01T19:50:55Z</time>
  <course>161.42</course>
  <speed>0.51</speed>
  <fix>3d</fix>
</trkpt>
<trkpt lat="-27.2744362" lon="151.2900504">
  <ele>357.97</ele>
  <time>2026-09-01T19:50:55Z</time>
  <course>248.57</course>
  <speed>0.561426753904728</speed>
  <fix>3d</fix>
</trkpt>
<trkpt lat="-27.2744355" lon="151.2900506">
  <ele>358.13</ele>
  <time>2026-09-01T19:50:55Z</time>
  <course>170.97</course>
  <speed>0.53</speed>
  <fix>3d</fix>
</trkpt>
<trkpt lat="-27.2744366" lon="151.2900505">
  <ele>357.97</ele>
  <time>2026-09-01T19:50:55Z</time>
  <course>248.59</course>
  <speed>0.5714017850864661</speed>
  <fix>3d</fix>
</trkpt>
<trkpt lat="-27.2744355" lon="151.2900506">
  <ele>358.13</ele>
  <time>2026-09-01T19:50:55Z</time>
  <course>170.97</course>
  <speed>0.53</speed>
  <fix>3d</fix>
</trkpt>
<trkpt lat="-27.2744371" lon="151.2900505">
  <ele>357.97</ele>
  <time>2026-09-01T19:50:55Z</time>
  <course>248.63</course>
  <speed>0.5813776741499453</speed>
  <fix>3d</fix>
</trkpt>
<trkpt lat="-27.2744366" lon="151.2900507">
  <ele>358.13</ele>
  <time>2026-09-01T19:50:55Z</time>
  <course>173.78</course>
  <speed>0.55</speed>
  <fix>3d</fix>
</trkpt>
<trkpt lat="-27.2744377" lon="151.2900506">
  <ele>357.97</ele>
  <time>2026-09-01T19:50:55Z</time>
  <course>248.67</course>
  <speed>0.5821511831131153</speed>
  <fix>3d</fix>
</trkpt>
<trkpt lat="-27.2744366" lon="151.2900507">
  <ele>358.13</ele>
  <time>2026-09-01T19:50:55Z</time>
  <course>173.78</course>
  <speed>0.55</speed>
  <fix>3d</fix>
</trkpt>
<trkpt lat="-27.2744382" lon="151.2900507">
  <ele>357.97</ele>
  <time>2026-09-01T19:50:55Z</time>
  <course>248.71</course>
  <speed>0.5821511831131153</speed>
  <fix>3d</fix>
</trkpt>
<trkpt lat="-27.2744376" lon="151.2900508">
  <ele>358.13</ele>
  <time>2026-09-01T19:50:55Z</time>
  <course>173.61</course>
  <speed>0.56</speed>
  <fix>3d</fix>
</trkpt>
<trkpt lat="-27.2744387" lon="151.2900508">
  <ele>357.97</ele>
  <time>2026-09-01T19:50:55Z</time>
  <course>248.72</course>
  <speed>0.5770615218501404</speed>
  <fix>3d</fix>
</trkpt>
<trkpt lat="-27.2744376" lon="151.2900508">
  <ele>358.13</ele>
  <time>2026-09-01T19:50:55Z</time>
  <course>173.61</course>
  <speed>0.56</speed>
  <fix>3d</fix>
</trkpt>
<trkpt lat="-27.2744392" lon="151.2900509">
  <ele>357.96</ele>
  <time>2026-09-01T19:50:55Z</time>
  <course>248.72</course>
  <speed>0.5756735185849702</speed>
  <fix>3d</fix>
</trkpt>
<trkpt lat="-27.2744385" lon="151.290051">
  <ele>358.12</ele>
  <time>2026-09-01T19:50:55Z</time>
  <course>167.24</course>
  <speed>0.56</speed>
  <fix>3d</fix>
</trkpt>
<trkpt lat="-27.2744396" lon="151.2900511">
  <ele>357.96</ele>
  <time>2026-09-01T19:50:55Z</time>
  <course>248.7</course>
  <speed>0.5738466694161429</speed>
  <fix>3d</fix>
</trkpt>
<trkpt lat="-27.2744385" lon="151.290051">
  <ele>358.12</ele>
  <time>2026-09-01T19:50:55Z</time>
  <course>167.24</course>
  <speed>0.56</speed>
  <fix>3d</fix>
</trkpt>
<trkpt lat="-27.2744401" lon="151.2900514">
  <ele>357.96</ele>
  <time>2026-09-01T19:50:55Z</time>
  <course>248.67</course>
  <speed>0.5777542730261715</speed>
  <fix>3d</fix>
</trkpt>
<trkpt lat="-27.2744395" lon="151.2900513">
  <ele>358.12</ele>
  <time>2026-09-01T19:50:55Z</time>
  <course>157.96</course>
  <speed>0.56</speed>
  <fix>3d</fix>
</trkpt>
<trkpt lat="-27.2744406" lon="151.2900516">
  <ele>357.96</ele>
  <time>2026-09-01T19:50:55Z</time>
  <course>248.63</course>
  <speed>0.5738466694161429</speed>
  <fix>3d</fix>
</trkpt>
<trkpt lat="-27.2744395" lon="151.2900513">
  <ele>358.12</ele>
  <time>2026-09-01T19:50:55Z</time>
  <course>157.96</course>
  <speed>0.56</speed>
  <fix>3d</fix>
</trkpt>
<trkpt lat="-27.274441" lon="151.2900519">
  <ele>357.96</ele>
  <time>2026-09-01T19:50:55Z</time>
  <course>248.61</course>
  <speed>0.579396237474839</speed>
  <fix>3d</fix>
</trkpt>
<trkpt lat="-27.2744404" lon="151.2900518">
  <ele>358.12</ele>
  <time>2026-09-01T19:50:55Z</time>
  <course>155.58</course>
  <speed>0.56</speed>
  <fix>3d</fix>
</trkpt>
<trkpt lat="-27.2744415" lon="151.2900521">
  <ele>357.95</ele>
  <time>2026-09-01T19:50:55Z</time>
  <course>248.61</course>
  <speed>0.5818934610390462</speed>
  <fix>3d</fix>
</trkpt>
<trkpt lat="-27.2744404" lon="151.2900518">
  <ele>358.12</ele>
  <time>2026-09-01T19:50:55Z</time>
  <course>155.58</course>
  <speed>0.56</speed>
  <fix>3d</fix>
</trkpt>
<trkpt lat="-27.274442" lon="151.2900523">
  <ele>357.95</ele>
  <time>2026-09-01T19:50:55Z</time>
  <course>248.62</course>
  <speed>0.5818934610390462</speed>
  <fix>3d</fix>
</trkpt>
<trkpt lat="-27.2744414" lon="151.2900523">
  <ele>358.12</ele>
  <time>2026-09-01T19:50:55Z</time>
  <course>157.68</course>
  <speed>0.56</speed>
  <fix>3d</fix>
</trkpt>
<trkpt lat="-27.2744424" lon="151.2900525">
  <ele>357.95</ele>
  <time>2026-09-01T19:50:55Z</time>
  <course>248.63</course>
  <speed>0.5869412236331676</speed>
  <fix>3d</fix>
</trkpt>
<trkpt lat="-27.2744414" lon="151.2900523">
  <ele>358.12</ele>
  <time>2026-09-01T19:50:55Z</time>
  <course>157.68</course>
  <speed>0.56</speed>
  <fix>3d</fix>
</trkpt>
<trkpt lat="-27.274443" lon="151.2900526">
  <ele>357.95</ele>
  <time>2026-09-01T19:50:55Z</time>
  <course>248.61</course>
  <speed>0.596824932455071</speed>
  <fix>3d</fix>
</trkpt>
<trkpt lat="-27.2744424" lon="151.2900526">
  <ele>358.12</ele>
  <time>2026-09-01T19:50:55Z</time>
  <course>164.25</course>
  <speed>0.56</speed>
  <fix>3d</fix>
</trkpt>
<trkpt lat="-27.2744435" lon="151.2900527">
  <ele>357.94</ele>
  <time>2026-09-01T19:50:55Z</time>
  <course>248.59</course>
  <speed>0.6020797289396147</speed>
  <fix>3d</fix>
</trkpt>
<trkpt lat="-27.2744424" lon="151.2900526">
  <ele>358.12</ele>
  <time>2026-09-01T19:50:55Z</time>
  <course>164.25</course>
  <speed>0.56</speed>
  <fix>3d</fix>
</trkpt>
<trkpt lat="-27.274444" lon="151.2900527">
  <ele>357.94</ele>
  <time>2026-09-01T19:50:55Z</time>
  <course>248.58</course>
  <speed>0.6107372593840988</speed>
  <fix>3d</fix>
</trkpt>
<trkpt lat="-27.2744434" lon="151.2900528">
  <ele>358.12</ele>
  <time>2026-09-01T19:50:55Z</time>
  <course>172.68</course>
  <speed>0.58</speed>
  <fix>3d</fix>
</trkpt>
<trkpt lat="-27.2744445" lon="151.2900528">
  <ele>357.94</ele>
  <time>2026-09-01T19:50:55Z</time>
  <course>248.6</course>
  <speed>0.6103277807866851</speed>
  <fix>3d</fix>
</trkpt>
<trkpt lat="-27.2744434" lon="151.2900528">
  <ele>358.12</ele>
  <time>2026-09-01T19:50:55Z</time>
  <course>172.68</course>
  <speed>0.58</speed>
  <fix>3d</fix>
</trkpt>
<trkpt lat="-27.274445" lon="151.2900528">
  <ele>357.94</ele>
  <time>2026-09-01T19:50:55Z</time>
  <course>248.63</course>
  <speed>0.6100819617067857</speed>
  <fix>3d</fix>
</trkpt>
<trkpt lat="-27.2744444" lon="151.2900529">
  <ele>358.12</ele>
  <time>2026-09-01T19:50:55Z</time>
  <course>176.53</course>
  <speed>0.58</speed>
  <fix>3d</fix>
</trkpt>
<trkpt lat="-27.2744456" lon="151.2900528">
  <ele>357.94</ele>
  <time>2026-09-01T19:50:55Z</time>
  <course>248.68</course>
  <speed>0.6000833275470999</speed>
  <fix>3d</fix>
</trkpt>
<trkpt lat="-27.2744444" lon="151.2900529">
  <ele>358.12</ele>
  <time>2026-09-01T19:50:55Z</time>
  <course>176.53</course>
  <speed>0.58</speed>
  <fix>3d</fix>
</trkpt>
<trkpt lat="-27.2744461" lon="151.2900529">
  <ele>357.95</ele>
  <time>2026-09-01T19:50:55Z</time>
  <course>248.73</course>
  <speed>0.6003332407921453</speed>
  <fix>3d</fix>
</trkpt>
<trkpt lat="-27.2744455" lon="151.290053">
  <ele>358.12</ele>
  <time>2026-09-01T19:50:55Z</time>
  <course>177.06</course>
  <speed>0.58</speed>
  <fix>3d</fix>
</trkpt>
<trkpt lat="-27.2744466" lon="151.2900529">
  <ele>357.95</ele>
  <time>2026-09-01T19:50:55Z</time>
  <course>248.77</course>
  <speed>0.5907622195096772</speed>
  <fix>3d</fix>
</trkpt>
<trkpt lat="-27.2744455" lon="151.290053">
  <ele>358.12</ele>
  <time>2026-09-01T19:50:55Z</time>
  <course>177.06</course>
  <speed>0.58</speed>
  <fix>3d</fix>
</trkpt>
<trkpt lat="-27.2744471" lon="151.290053">
  <ele>357.95</ele>
  <time>2026-09-01T19:50:55Z</time>
  <course>248.81</course>
  <speed>0.5688585061331157</speed>
  <fix>3d</fix>
</trkpt>
<trkpt lat="-27.2744464" lon="151.2900531">
  <ele>358.12</ele>
  <time>2026-09-01T19:50:55Z</time>
  <course>172.72</course>
  <speed>0.56</speed>
  <fix>3d</fix>
</trkpt>
<trkpt lat="-27.2744476" lon="151.2900532">
  <ele>357.95</ele>
  <time>2026-09-01T19:50:55Z</time>
  <course>248.8</course>
  <speed>0.5502726596879042</speed>
  <fix>3d</fix>
</trkpt>
<trkpt lat="-27.2744464" lon="151.2900531">
  <ele>358.12</ele>
  <time>2026-09-01T19:50:55Z</time>
  <course>172.72</course>
  <speed>0.56</speed>
  <fix>3d</fix>
</trkpt>
<trkpt lat="-27.274448" lon="151.2900534">
  <ele>357.95</ele>
  <time>2026-09-01T19:50:55Z</time>
  <course>248.78</course>
  <speed>0.54230987451825</speed>
  <fix>3d</fix>
</trkpt>
<trkpt lat="-27.2744474" lon="151.2900533">
  <ele>358.12</ele>
  <time>2026-09-01T19:50:55Z</time>
  <course>161.8</course>
  <speed>0.54</speed>
  <fix>3d</fix>
</trkpt>
<trkpt lat="-27.2744484" lon="151.2900536">
  <ele>357.95</ele>
  <time>2026-09-01T19:50:55Z</time>
  <course>248.75</course>
  <speed>0.5412947441089743</speed>
  <fix>3d</fix>
</trkpt>
<trkpt lat="-27.2744474" lon="151.2900533">
  <ele>358.12</ele>
  <time>2026-09-01T19:50:55Z</time>
  <course>161.8</course>
  <speed>0.54</speed>
  <fix>3d</fix>
</trkpt>
<trkpt lat="-27.2744489" lon="151.2900539">
  <ele>357.95</ele>
  <time>2026-09-01T19:50:55Z</time>
  <course>248.73</course>
  <speed>0.5412947441089743</speed>
  <fix>3d</fix>
</trkpt>
<trkpt lat="-27.2744483" lon="151.2900537">
  <ele>358.12</ele>
  <time>2026-09-01T19:50:55Z</time>
  <course>153.91</course>
  <speed>0.53</speed>
  <fix>3d</fix>
</trkpt>
<trkpt lat="-27.2744493" lon="151.2900541">
  <ele>357.95</ele>
  <time>2026-09-01T19:50:55Z</time>
  <course>248.72</course>
  <speed>0.5280151512977634</speed>
  <fix>3d</fix>
</trkpt>
<trkpt lat="-27.2744483" lon="151.2900537">
  <ele>358.12</ele>
  <time>2026-09-01T19:50:55Z</time>
  <course>153.91</course>
  <speed>0.53</speed>
  <fix>3d</fix>
</trkpt>
<trkpt lat="-27.2744497" lon="151.2900543">
  <ele>357.95</ele>
  <time>2026-09-01T19:50:55Z</time>
  <course>248.72</course>
  <speed>0.5239274758971895</speed>
  <fix>3d</fix>
</trkpt>
<trkpt lat="-27.2744492" lon="151.2900542">
  <ele>358.13</ele>
  <time>2026-09-01T19:50:55Z</time>
  <course>153.5</course>
  <speed>0.51</speed>
  <fix>3d</fix>
</trkpt>
<trkpt lat="-27.2744501" lon="151.2900545">
  <ele>357.95</ele>
  <time>2026-09-01T19:50:55Z</time>
  <course>248.71</course>
  <speed>0.5092150822589606</speed>
  <fix>3d</fix>
</trkpt>
<trkpt lat="-27.2744492" lon="151.2900542">
  <ele>358.13</ele>
  <time>2026-09-01T19:50:55Z</time>
  <course>153.5</course>
  <speed>0.51</speed>
  <fix>3d</fix>
</trkpt>
<trkpt lat="-27.2744505" lon="151.2900547">
  <ele>357.95</ele>
  <time>2026-09-01T19:50:55Z</time>
  <course>248.71</course>
  <speed>0.5119570294468082</speed>
  <fix>3d</fix>
</trkpt>
<trkpt lat="-27.27445" lon="151.2900546">
  <ele>358.13</ele>
  <time>2026-09-01T19:50:55Z</time>
  <course>159.7</course>
  <speed>0.49</speed>
  <fix>3d</fix>
</trkpt>
<trkpt lat="-27.274451" lon="151.2900548">
  <ele>357.94</ele>
  <time>2026-09-01T19:50:55Z</time>
  <course>248.71</course>
  <speed>0.5124451190127582</speed>
  <fix>3d</fix>
</trkpt>
<trkpt lat="-27.27445" lon="151.2900546">
  <ele>358.13</ele>
  <time>2026-09-01T19:50:55Z</time>
  <course>159.7</course>
  <speed>0.49</speed>
  <fix>3d</fix>
</trkpt>
<trkpt lat="-27.2744514" lon="151.2900548">
  <ele>357.94</ele>
  <time>2026-09-01T19:50:55Z</time>
  <course>248.72</course>
  <speed>0.5203844732503076</speed>
  <fix>3d</fix>
</trkpt>
<trkpt lat="-27.2744509" lon="151.2900549">
  <ele>358.13</ele>
  <time>2026-09-01T19:50:55Z</time>
  <course>170.5</course>
  <speed>0.49</speed>
  <fix>3d</fix>
</trkpt>
<trkpt lat="-27.2744519" lon="151.2900548">
  <ele>357.94</ele>
  <time>2026-09-01T19:50:55Z</time>
  <course>248.74</course>
  <speed>0.51</speed>
  <fix>3d</fix>
</trkpt>
<trkpt lat="-27.2744509" lon="151.2900549">
  <ele>358.13</ele>
  <time>2026-09-01T19:50:55Z</time>
  <course>170.5</course>
  <speed>0.49</speed>
  <fix>3d</fix>
</trkpt>
<trkpt lat="-27.2744523" lon="151.2900548">
  <ele>357.94</ele>
  <time>2026-09-01T19:50:55Z</time>
  <course>248.78</course>
  <speed>0.51</speed>
  <fix>3d</fix>
</trkpt>
<trkpt lat="-27.2744517" lon="151.290055">
  <ele>358.13</ele>
  <time>2026-09-01T19:50:55Z</time>
  <course>177.41</course>
  <speed>0.49</speed>
  <fix>3d</fix>
</trkpt>
<trkpt lat="-27.2744527" lon="151.2900548">
  <ele>357.94</ele>
  <time>2026-09-01T19:50:55Z</time>
  <course>248.82</course>
  <speed>0.5</speed>
  <fix>3d</fix>
</trkpt>
<trkpt lat="-27.2744517" lon="151.290055">
  <ele>358.13</ele>
  <time>2026-09-01T19:50:55Z</time>
  <course>177.41</course>
  <speed>0.49</speed>
  <fix>3d</fix>
</trkpt>
<trkpt lat="-27.2744532" lon="151.2900549">
  <ele>357.94</ele>
  <time>2026-09-01T19:50:55Z</time>
  <course>248.86</course>
  <speed>0.49</speed>
  <fix>3d</fix>
</trkpt>
<trkpt lat="-27.2744526" lon="151.2900551">
  <ele>358.13</ele>
  <time>2026-09-01T19:50:55Z</time>
  <course>179.37</course>
  <speed>0.47</speed>
  <fix>3d</fix>
</trkpt>
<trkpt lat="-27.2744536" lon="151.2900549">
  <ele>357.94</ele>
  <time>2026-09-01T19:50:55Z</time>
  <course>248.9</course>
  <speed>0.48</speed>
  <fix>3d</fix>
</trkpt>
<trkpt lat="-27.2744526" lon="151.2900551">
  <ele>358.13</ele>
  <time>2026-09-01T19:50:55Z</time>
  <course>179.37</course>
  <speed>0.47</speed>
  <fix>3d</fix>
</trkpt>
<trkpt lat="-27.274454" lon="151.2900549">
  <ele>357.94</ele>
  <time>2026-09-01T19:50:55Z</time>
  <course>248.96</course>
  <speed>0.46010868281309364</speed>
  <fix>3d</fix>
</trkpt>
<trkpt lat="-27.2744535" lon="151.2900551">
  <ele>358.14</ele>
  <time>2026-09-01T19:50:55Z</time>
  <course>178.32</course>
  <speed>0.45</speed>
  <fix>3d</fix>
</trkpt>
<trkpt lat="-27.2744544" lon="151.290055">
  <ele>357.94</ele>
  <time>2026-09-01T19:50:55Z</time>
  <course>248.99</course>
  <speed>0.4197618372363071</speed>
  <fix>3d</fix>
</trkpt>
<trkpt lat="-27.2744535" lon="151.2900551">
  <ele>358.14</ele>
  <time>2026-09-01T19:50:55Z</time>
  <course>178.32</course>
  <speed>0.45</speed>
  <fix>3d</fix>
</trkpt>
<trkpt lat="-27.2744547" lon="151.2900551">
  <ele>357.95</ele>
  <time>2026-09-01T19:50:55Z</time>
  <course>248.98</course>
  <speed>0.41231056256176607</speed>
  <fix>3d</fix>
</trkpt>
<trkpt lat="-27.2744542" lon="151.2900551">
  <ele>358.14</ele>
  <time>2026-09-01T19:50:55Z</time>
  <course>166.33</course>
  <speed>0.4</speed>
  <fix>3d</fix>
</trkpt>
<trkpt lat="-27.274455" lon="151.2900553">
  <ele>357.95</ele>
  <time>2026-09-01T19:50:55Z</time>
  <course>248.96</course>
  <speed>0.40311288741492746</speed>
  <fix>3d</fix>
</trkpt>
<trkpt lat="-27.2744542" lon="151.2900551">
  <ele>358.14</ele>
  <time>2026-09-01T19:50:55Z</time>
  <course>166.33</course>
  <speed>0.4</speed>
  <fix>3d</fix>
</trkpt>
<trkpt lat="-27.2744553" lon="151.2900555">
  <ele>357.95</ele>
  <time>2026-09-01T19:50:55Z</time>
  <course>248.94</course>
  <speed>0.3911521443121589</speed>
  <fix>3d</fix>
</trkpt>
<trkpt lat="-27.2744549" lon="151.2900555">
  <ele>358.15</ele>
  <time>2026-09-01T19:50:55Z</time>
  <course>149.1</course>
  <speed>0.38</speed>
  <fix>3d</fix>
</trkpt>
<trkpt lat="-27.2744556" lon="151.2900558">
  <ele>357.96</ele>
  <time>2026-09-01T19:50:55Z</time>
  <course>248.92</course>
  <speed>0.38013155617496425</speed>
  <fix>3d</fix>
</trkpt>
<trkpt lat="-27.2744549" lon="151.2900555">
  <ele>358.15</ele>
  <time>2026-09-01T19:50:55Z</time>
  <course>149.1</course>
  <speed>0.38</speed>
  <fix>3d</fix>
</trkpt>
<trkpt lat="-27.2744558" lon="151.290056">
  <ele>357.96</ele>
  <time>2026-09-01T19:50:55Z</time>
  <course>248.9</course>
  <speed>0.3720215047547655</speed>
  <fix>3d</fix>
</trkpt>
<trkpt lat="-27.2744554" lon="151.2900559">
  <ele>358.15</ele>
  <time>2026-09-01T19:50:55Z</time>
  <course>141.42</course>
  <speed>0.37</speed>
  <fix>3d</fix>
</trkpt>
<trkpt lat="-27.2744561" lon="151.2900562">
  <ele>357.96</ele>
  <time>2026-09-01T19:50:55Z</time>
  <course>248.89</course>
  <speed>0.3640054944640259</speed>
  <fix>3d</fix>
</trkpt>
<trkpt lat="-27.2744554" lon="151.2900559">
  <ele>358.15</ele>
  <time>2026-09-01T19:50:55Z</time>
  <course>141.42</course>
  <speed>0.37</speed>
  <fix>3d</fix>
</trkpt>
<trkpt lat="-27.2744563" lon="151.2900565">
  <ele>357.96</ele>
  <time>2026-09-01T19:50:55Z</time>
  <course>248.82</course>
  <speed>0.34132096331752027</speed>
  <fix>3d</fix>
</trkpt>
<trkpt lat="-27.2744559" lon="151.2900563">
  <ele>358.15</ele>
  <time>2026-09-01T19:50:55Z</time>
  <course>141.24</course>
  <speed>0.34</speed>
  <fix>3d</fix>
</trkpt>
<trkpt lat="-27.2744566" lon="151.2900566">
  <ele>357.96</ele>
  <time>2026-09-01T19:50:55Z</time>
  <course>248.82</course>
  <speed>0.32572994949804657</speed>
  <fix>3d</fix>
</trkpt>
<trkpt lat="-27.2744559" lon="151.2900563">
  <ele>358.15</ele>
  <time>2026-09-01T19:50:55Z</time>
  <course>141.24</course>
  <speed>0.34</speed>
  <fix>3d</fix>
</trkpt>
<trkpt lat="-27.2744568" lon="151.2900567">
  <ele>357.96</ele>
  <time>2026-09-01T19:50:55Z</time>
  <course>248.84</course>
  <speed>0.3125699921617557</speed>
  <fix>3d</fix>
</trkpt>
<trkpt lat="-27.2744564" lon="151.2900567">
  <ele>358.15</ele>
  <time>2026-09-01T19:50:55Z</time>
  <course>154.85</course>
  <speed>0.3</speed>
  <fix>3d</fix>
</trkpt>
<trkpt lat="-27.2744571" lon="151.2900567">
  <ele>357.96</ele>
  <time>2026-09-01T19:50:55Z</time>
  <course>248.88</course>
  <speed>0.3101612483854165</speed>
  <fix>3d</fix>
</trkpt>
<trkpt lat="-27.2744564" lon="151.2900567">
  <ele>358.15</ele>
  <time>2026-09-01T19:50:55Z</time>
  <course>154.85</course>
  <speed>0.3</speed>
  <fix>3d</fix>
</trkpt>
<trkpt lat="-27.2744573" lon="151.2900567">
  <ele>357.96</ele>
  <time>2026-09-01T19:50:55Z</time>
  <course>248.91</course>
  <speed>0.3</speed>
  <fix>3d</fix>
</trkpt>
<trkpt lat="-27.2744569" lon="151.2900569">
  <ele>358.15</ele>
  <time>2026-09-01T19:50:55Z</time>
  <course>172.7</course>
  <speed>0.28</speed>
  <fix>3d</fix>
</trkpt>
<trkpt lat="-27.2744576" lon="151.2900567">
  <ele>357.96</ele>
  <time>2026-09-01T19:50:55Z</time>
  <course>248.95</course>
  <speed>0.29017236257093815</speed>
  <fix>3d</fix>
</trkpt>
<trkpt lat="-27.2744569" lon="151.2900569">
  <ele>358.15</ele>
  <time>2026-09-01T19:50:55Z</time>
  <course>172.7</course>
  <speed>0.28</speed>
  <fix>3d</fix>
</trkpt>
<trkpt lat="-27.2744578" lon="151.2900567">
  <ele>357.96</ele>
  <time>2026-09-01T19:50:55Z</time>
  <course>248.99</course>
  <speed>0.280178514522438</speed>
  <fix>3d</fix>
</trkpt>
<trkpt lat="-27.2744574" lon="151.290057">
  <ele>358.15</ele>
  <time>2026-09-01T19:50:55Z</time>
  <course>179.53</course>
  <speed>0.26</speed>
  <fix>3d</fix>
</trkpt>
<trkpt lat="-27.274458" lon="151.2900567">
  <ele>357.96</ele>
  <time>2026-09-01T19:50:55Z</time>
  <course>249.02</course>
  <speed>0.2601922366251538</speed>
  <fix>3d</fix>
</trkpt>
<trkpt lat="-27.2744574" lon="151.290057">
  <ele>358.15</ele>
  <time>2026-09-01T19:50:55Z</time>
  <course>179.53</course>
  <speed>0.26</speed>
  <fix>3d</fix>
</trkpt>
<trkpt lat="-27.2744583" lon="151.2900567">
  <ele>357.96</ele>
  <time>2026-09-01T19:50:55Z</time>
  <course>249.05</course>
  <speed>0.2501999200639361</speed>
  <fix>3d</fix>
</trkpt>
<trkpt lat="-27.2744579" lon="151.2900569">
  <ele>358.15</ele>
  <time>2026-09-01T19:50:55Z</time>
  <course>181.01</course>
  <speed>0.23</speed>
  <fix>3d</fix>
</trkpt>
<trkpt lat="-27.2744584" lon="151.2900568">
  <ele>357.96</ele>
  <time>2026-09-01T19:50:55Z</time>
  <course>249.14</course>
  <speed>0.22090722034374521</speed>
  <fix>3d</fix>
</trkpt>
<trkpt lat="-27.2744579" lon="151.2900569">
  <ele>358.15</ele>
  <time>2026-09-01T19:50:55Z</time>
  <course>181.01</course>
  <speed>0.23</speed>
  <fix>3d</fix>
</trkpt>
<trkpt lat="-27.2744586" lon="151.2900568">
  <ele>357.96</ele>
  <time>2026-09-01T19:50:55Z</time>
  <course>249.16</course>
  <speed>0.1972308292331602</speed>
  <fix>3d</fix>
</trkpt>
<trkpt lat="-27.2744583" lon="151.2900569">
  <ele>358.15</ele>
  <time>2026-09-01T19:50:55Z</time>
  <course>163.43</course>
  <speed>0.19</speed>
  <fix>3d</fix>
</trkpt>
<trkpt lat="-27.2744587" lon="151.290057">
  <ele>357.96</ele>
  <time>2026-09-01T19:50:55Z</time>
  <course>249.15</course>
  <speed>0.21400934559032694</speed>
  <fix>3d</fix>
</trkpt>
<trkpt lat="-27.2744583" lon="151.2900569">
  <ele>358.15</ele>
  <time>2026-09-01T19:50:55Z</time>
  <course>163.43</course>
  <speed>0.19</speed>
  <fix>3d</fix>
</trkpt>
<trkpt lat="-27.2744588" lon="151.2900572">
  <ele>357.96</ele>
  <time>2026-09-01T19:50:55Z</time>
  <course>249.13</course>
  <speed>0.23769728648009425</speed>
  <fix>3d</fix>
</trkpt>
<trkpt lat="-27.2744586" lon="151.2900571">
  <ele>358.15</ele>
  <time>2026-09-01T19:50:55Z</time>
  <course>122.65</course>
  <speed>0.2</speed>
  <fix>3d</fix>
</trkpt>
<trkpt lat="-27.2744588" lon="151.2900575">
  <ele>357.96</ele>
  <time>2026-09-01T19:50:55Z</time>
  <course>249.1</course>
  <speed>0.25</speed>
  <fix>3d</fix>
</trkpt>
<trkpt lat="-27.2744586" lon="151.2900571">
  <ele>358.15</ele>
  <time>2026-09-01T19:50:55Z</time>
  <course>122.65</course>
  <speed>0.2</speed>
  <fix>3d</fix>
</trkpt>
<trkpt lat="-27.2744589" lon="151.2900577">
  <ele>357.96</ele>
  <time>2026-09-01T19:50:55Z</time>
  <course>249.06</course>
  <speed>0.26305892875931813</speed>
  <fix>3d</fix>
</trkpt>
<trkpt lat="-27.2744587" lon="151.2900576">
  <ele>358.15</ele>
  <time>2026-09-01T19:50:55Z</time>
  <course>100.5</course>
  <speed>0.25</speed>
  <fix>3d</fix>
</trkpt>
<trkpt lat="-27.2744589" lon="151.290058">
  <ele>357.96</ele>
  <time>2026-09-01T19:50:55Z</time>
  <course>249.01</course>
  <speed>0.260768096208106</speed>
  <fix>3d</fix>
</trkpt>
<trkpt lat="-27.2744587" lon="151.2900576">
  <ele>358.15</ele>
  <time>2026-09-01T19:50:55Z</time>
  <course>100.5</course>
  <speed>0.25</speed>
  <fix>3d</fix>
</trkpt>
<trkpt lat="-27.2744589" lon="151.2900583">
  <ele>357.96</ele>
  <time>2026-09-01T19:50:55Z</time>
  <course>248.97</course>
  <speed>0.2601922366251538</speed>
  <fix>3d</fix>
</trkpt>
<trkpt lat="-27.2744587" lon="151.2900581">
  <ele>358.15</ele>
  <time>2026-09-01T19:50:55Z</time>
  <course>90.31</course>
  <speed>0.27</speed>
  <fix>3d</fix>
</trkpt>
<trkpt lat="-27.2744589" lon="151.2900586">
  <ele>357.96</ele>
  <time>2026-09-01T19:50:55Z</time>
  <course>248.84</course>
  <speed>0.22</speed>
  <fix>3d</fix>
</trkpt>
<trkpt lat="-27.2744587" lon="151.2900581">
  <ele>358.15</ele>
  <time>2026-09-01T19:50:55Z</time>
  <course>90.31</course>
  <speed>0.27</speed>
  <fix>3d</fix>
</trkpt>
<trkpt lat="-27.2744589" lon="151.2900587">
  <ele>357.96</ele>
  <time>2026-09-01T19:50:55Z</time>
  <course>248.82</course>
  <speed>0.1414213562373095</speed>
  <fix>3d</fix>
</trkpt>
<trkpt lat="-27.2744587" lon="151.2900586">
  <ele>358.15</ele>
  <time>2026-09-01T19:50:55Z</time>
  <course>86.43</course>
  <speed>0.22</speed>
  <fix>3d</fix>
</trkpt>
<trkpt lat="-27.2744589" lon="151.2900589">
  <ele>357.96</ele>
  <time>2026-09-01T19:50:55Z</time>
  <course>248.84</course>
  <speed>0.0824621125123532</speed>
  <fix>3d</fix>
</trkpt>
<trkpt lat="-27.2744587" lon="151.2900586">
  <ele>358.15</ele>
  <time>2026-09-01T19:50:55Z</time>
  <course>86.43</course>
  <speed>0.22</speed>
  <fix>3d</fix>
</trkpt>
<trkpt lat="-27.2744589" lon="151.2900589">
  <ele>357.96</ele>
  <time>2026-09-01T19:50:55Z</time>
  <course>248.88</course>
  <speed>0.044721359549995794</speed>
  <fix>3d</fix>
</trkpt>
<trkpt lat="-27.2744587" lon="151.2900589">
  <ele>358.15</ele>
  <time>2026-09-01T19:50:55Z</time>
  <course>85.85</course>
  <speed>0.11</speed>
  <fix>3d</fix>
</trkpt>
<trkpt lat="-27.2744589" lon="151.290059">
  <ele>357.96</ele>
  <time>2026-09-01T19:50:55Z</time>
  <course>248.93</course>
  <speed>0.022360679774997897</speed>
  <fix>3d</fix>
</trkpt>
<trkpt lat="-27.2744587" lon="151.2900589">
  <ele>358.15</ele>
  <time>2026-09-01T19:50:55Z</time>
  <course>85.85</course>
  <speed>0.11</speed>
  <fix>3d</fix>
</trkpt>
<trkpt lat="-27.2744588" lon="151.290059">
  <ele>357.96</ele>
  <time>2026-09-01T19:50:55Z</time>
  <course>248.99</course>
  <speed>0.01</speed>
  <fix>3d</fix>
</trkpt>
<trkpt lat="-27.2744587" lon="151.2900591">
  <ele>358.15</ele>
  <time>2026-09-01T19:50:55Z</time>
  <course>69.26</course>
  <speed>0.04</speed>
  <fix>3d</fix>
</trkpt>
<trkpt lat="-27.2744588" lon="151.290059">
  <ele>357.96</ele>
  <time>2026-09-01T19:50:55Z</time>
  <course>249.04</course>
  <speed>0.01</speed>
  <fix>3d</fix>
</trkpt>
<trkpt lat="-27.2744587" lon="151.2900591">
  <ele>358.15</ele>
  <time>2026-09-01T19:50:55Z</time>
  <course>69.26</course>
  <speed>0.04</speed>
  <fix>3d</fix>
</trkpt>
<trkpt lat="-27.2744588" lon="151.290059">
  <ele>357.96</ele>
  <time>2026-09-01T19:50:55Z</time>
  <course>249.09</course>
  <speed>0.02</speed>
  <fix>3d</fix>
</trkpt>
<trkpt lat="-27.2744587" lon="151.2900592">
  <ele>358.15</ele>
  <time>2026-09-01T19:50:55Z</time>
  <course>26.75</course>
  <speed>0.04</speed>
  <fix>3d</fix>
</trkpt>
<trkpt lat="-27.2744588" lon="151.2900591">
  <ele>357.96</ele>
  <time>2026-09-01T19:50:55Z</time>
  <course>249.12</course>
  <speed>0.04</speed>
  <fix>3d</fix>
</trkpt>
<trkpt lat="-27.2744587" lon="151.2900592">
  <ele>358.15</ele>
  <time>2026-09-01T19:50:55Z</time>
  <course>26.75</course>
  <speed>0.04</speed>
  <fix>3d</fix>
</trkpt>
<trkpt lat="-27.2744587" lon="151.2900591">
  <ele>357.96</ele>
  <time>2026-09-01T19:50:55Z</time>
  <course>249.22</course>
  <speed>0.07615773105863909</speed>
  <fix>3d</fix>
</trkpt>
<trkpt lat="-27.2744586" lon="151.2900593">
  <ele>358.15</ele>
  <time>2026-09-01T19:50:55Z</time>
  <course>19.06</course>
  <speed>0.08</speed>
  <fix>3d</fix>
</trkpt>
<trkpt lat="-27.2744586" lon="151.2900592">
  <ele>357.97</ele>
  <time>2026-09-01T19:50:55Z</time>
  <course>249.29</course>
  <speed>0.1769180601295413</speed>
  <fix>3d</fix>
</trkpt>
<trkpt lat="-27.2744586" lon="151.2900593">
  <ele>358.15</ele>
  <time>2026-09-01T19:50:55Z</time>
  <course>19.06</course>
  <speed>0.08</speed>
  <fix>3d</fix>
</trkpt>
<trkpt lat="-27.2744585" lon="151.2900594">
  <ele>357.97</ele>
  <time>2026-09-01T19:50:55Z</time>
  <course>249.29</course>
  <speed>0.2920616373302047</speed>
  <fix>3d</fix>
</trkpt>
<trkpt lat="-27.2744584" lon="151.2900594">
  <ele>358.15</ele>
  <time>2026-09-01T19:50:55Z</time>
  <course>41.71</course>
  <speed>0.2</speed>
  <fix>3d</fix>
</trkpt>
<trkpt lat="-27.2744583" lon="151.2900597">
  <ele>357.97</ele>
  <time>2026-09-01T19:50:55Z</time>
  <course>249.3</course>
  <speed>0.35805027579936316</speed>
  <fix>3d</fix>
</trkpt>
<trkpt lat="-27.2744584" lon="151.2900594">
  <ele>358.15</ele>
  <time>2026-09-01T19:50:55Z</time>
  <course>41.71</course>
  <speed>0.2</speed>
  <fix>3d</fix>
</trkpt>
<trkpt lat="-27.274458" lon="151.29006">
  <ele>357.97</ele>
  <time>2026-09-01T19:50:55Z</time>
  <course>249.32</course>
  <speed>0.4</speed>
  <fix>3d</fix>
</trkpt>
<trkpt lat="-27.274458" lon="151.2900599">
  <ele>358.15</ele>
  <time>2026-09-01T19:50:55Z</time>
  <course>49.76</course>
  <speed>0.37</speed>
  <fix>3d</fix>
</trkpt>
<trkpt lat="-27.2744578" lon="151.2900603">
  <ele>357.97</ele>
  <time>2026-09-01T19:50:55Z</time>
  <course>249.36</course>
  <speed>0.4201190307520001</speed>
  <fix>3d</fix>
</trkpt>
<trkpt lat="-27.274458" lon="151.2900599">
  <ele>358.15</ele>
  <time>2026-09-01T19:50:55Z</time>
  <course>49.76</course>
  <speed>0.37</speed>
  <fix>3d</fix>
</trkpt>
<trkpt lat="-27.2744575" lon="151.2900607">
  <ele>357.97</ele>
  <time>2026-09-01T19:50:55Z</time>
  <course>249.4</course>
  <speed>0.42638011210655685</speed>
  <fix>3d</fix>
</trkpt>
<trkpt lat="-27.2744575" lon="151.2900605">
  <ele>358.15</ele>
  <time>2026-09-01T19:50:55Z</time>
  <course>49.39</course>
  <speed>0.44</speed>
  <fix>3d</fix>
</trkpt>
<trkpt lat="-27.2744573" lon="151.290061">
  <ele>357.97</ele>
  <time>2026-09-01T19:50:55Z</time>
  <course>249.44</course>
  <speed>0.425205832509386</speed>
  <fix>3d</fix>
</trkpt>
<trkpt lat="-27.2744575" lon="151.2900605">
  <ele>358.15</ele>
  <time>2026-09-01T19:50:55Z</time>
  <course>49.39</course>
  <speed>0.44</speed>
  <fix>3d</fix>
</trkpt>
<trkpt lat="-27.274457" lon="151.2900613">
  <ele>357.97</ele>
  <time>2026-09-01T19:50:55Z</time>
  <course>249.46</course>
  <speed>0.4172529209005013</speed>
  <fix>3d</fix>
</trkpt>
<trkpt lat="-27.274457" lon="151.2900612">
  <ele>358.14</ele>
  <time>2026-09-01T19:50:55Z</time>
  <course>46.48</course>
  <speed>0.45</speed>
  <fix>3d</fix>
</trkpt>
<trkpt lat="-27.2744567" lon="151.2900616">
  <ele>357.97</ele>
  <time>2026-09-01T19:50:55Z</time>
  <course>249.39</course>
  <speed>0.34828149534535996</speed>
  <fix>3d</fix>
</trkpt>
<trkpt lat="-27.274457" lon="151.2900612">
  <ele>358.14</ele>
  <time>2026-09-01T19:50:55Z</time>
  <course>46.48</course>
  <speed>0.45</speed>
  <fix>3d</fix>
</trkpt>
<trkpt lat="-27.2744565" lon="151.2900618">
  <ele>357.97</ele>
  <time>2026-09-01T19:50:55Z</time>
  <course>249.46</course>
  <speed>0.2640075756488817</speed>
  <fix>3d</fix>
</trkpt>
<trkpt lat="-27.2744564" lon="151.2900618">
  <ele>358.14</ele>
  <time>2026-09-01T19:50:55Z</time>
  <course>36.54</course>
  <speed>0.37</speed>
  <fix>3d</fix>
</trkpt>
<trkpt lat="-27.2744562" lon="151.2900619">
  <ele>357.97</ele>
  <time>2026-09-01T19:50:55Z</time>
  <course>249.52</course>
  <speed>0.22090722034374521</speed>
  <fix>3d</fix>
</trkpt>
<trkpt lat="-27.2744564" lon="151.2900618">
  <ele>358.14</ele>
  <time>2026-09-01T19:50:55Z</time>
  <course>36.54</course>
  <speed>0.37</speed>
  <fix>3d</fix>
</trkpt>
<trkpt lat="-27.274456" lon="151.2900619">
  <ele>357.97</ele>
  <time>2026-09-01T19:50:55Z</time>
  <course>249.53</course>
  <speed>0.21213203435596426</speed>
  <fix>3d</fix>
</trkpt>
<trkpt lat="-27.2744559" lon="151.290062">
  <ele>358.14</ele>
  <time>2026-09-01T19:50:55Z</time>
  <course>11.0</course>
  <speed>0.27</speed>
  <fix>3d</fix>
</trkpt>
<trkpt lat="-27.2744558" lon="151.2900618">
  <ele>357.96</ele>
  <time>2026-09-01T19:50:55Z</time>
  <course>249.47</course>
  <speed>0.2340939982143925</speed>
  <fix>3d</fix>
</trkpt>
<trkpt lat="-27.2744559" lon="151.290062">
  <ele>358.14</ele>
  <time>2026-09-01T19:50:55Z</time>
  <course>11.0</course>
  <speed>0.27</speed>
  <fix>3d</fix>
</trkpt>
<trkpt lat="-27.2744555" lon="151.2900618">
  <ele>357.96</ele>
  <time>2026-09-01T19:50:55Z</time>
  <course>249.37</course>
  <speed>0.24166091947189144</speed>
  <fix>3d</fix>
</trkpt>
<trkpt lat="-27.2744555" lon="151.290062">
  <ele>358.14</ele>
  <time>2026-09-01T19:50:55Z</time>
  <course>347.12</course>
  <speed>0.26</speed>
  <fix>3d</fix>
</trkpt>
<trkpt lat="-27.2744553" lon="151.2900618">
  <ele>357.96</ele>
  <time>2026-09-01T19:50:55Z</time>
  <course>249.25</course>
  <speed>0.25495097567963926</speed>
  <fix>3d</fix>
</trkpt>
<trkpt lat="-27.2744555" lon="151.290062">
  <ele>358.14</ele>
  <time>2026-09-01T19:50:55Z</time>
  <course>347.12</course>
  <speed>0.26</speed>
  <fix>3d</fix>
</trkpt>
<trkpt lat="-27.2744551" lon="151.2900616">
  <ele>357.96</ele>
  <time>2026-09-01T19:50:55Z</time>
  <course>249.13</course>
  <speed>0.2683281572999748</speed>
  <fix>3d</fix>
</trkpt>
<trkpt lat="-27.274455" lon="151.2900619">
  <ele>358.13</ele>
  <time>2026-09-01T19:50:55Z</time>
  <course>339.24</course>
  <speed>0.29</speed>
  <fix>3d</fix>
</trkpt>
<trkpt lat="-27.2744548" lon="151.2900615">
  <ele>357.96</ele>
  <time>2026-09-01T19:50:55Z</time>
  <course>249.03</course>
  <speed>0.2863564212655271</speed>
  <fix>3d</fix>
</trkpt>
<trkpt lat="-27.274455" lon="151.2900619">
  <ele>358.13</ele>
  <time>2026-09-01T19:50:55Z</time>
  <course>339.24</course>
  <speed>0.29</speed>
  <fix>3d</fix>
</trkpt>
<trkpt lat="-27.2744545" lon="151.2900614">
  <ele>357.96</ele>
  <time>2026-09-01T19:50:55Z</time>
  <course>248.99</course>
  <speed>0.29546573405388316</speed>
  <fix>3d</fix>
</trkpt>
<trkpt lat="-27.2744545" lon="151.2900617">
  <ele>358.13</ele>
  <time>2026-09-01T19:50:55Z</time>
  <course>338.97</course>
  <speed>0.31</speed>
  <fix>3d</fix>
</trkpt>
<trkpt lat="-27.2744543" lon="151.2900614">
  <ele>357.96</ele>
  <time>2026-09-01T19:50:55Z</time>
  <course>249.02</course>
  <speed>0.31575306807693887</speed>
  <fix>3d</fix>
</trkpt>
<trkpt lat="-27.2744545" lon="151.2900617">
  <ele>358.13</ele>
  <time>2026-09-01T19:50:55Z</time>
  <course>338.97</course>
  <speed>0.31</speed>
  <fix>3d</fix>
</trkpt>
<trkpt lat="-27.2744539" lon="151.2900613">
  <ele>357.96</ele>
  <time>2026-09-01T19:50:55Z</time>
  <course>249.02</course>
  <speed>0.35</speed>
  <fix>3d</fix>
</trkpt>
<trkpt lat="-27.2744539" lon="151.2900616">
  <ele>358.13</ele>
  <time>2026-09-01T19:50:55Z</time>
  <course>351.45</course>
  <speed>0.35</speed>
  <fix>3d</fix>
</trkpt>
<trkpt lat="-27.2744536" lon="151.2900614">
  <ele>357.95</ele>
  <time>2026-09-01T19:50:55Z</time>
  <course>249.04</course>
  <speed>0.382099463490856</speed>
  <fix>3d</fix>
</trkpt>
<trkpt lat="-27.2744539" lon="151.2900616">
  <ele>358.13</ele>
  <time>2026-09-01T19:50:55Z</time>
  <course>351.45</course>
  <speed>0.35</speed>
  <fix>3d</fix>
</trkpt>
<trkpt lat="-27.2744532" lon="151.2900615">
  <ele>357.95</ele>
  <time>2026-09-01T19:50:55Z</time>
  <course>249.09</course>
  <speed>0.4044749683231337</speed>
  <fix>3d</fix>
</trkpt>
<trkpt lat="-27.2744532" lon="151.2900615">
  <ele>358.13</ele>
  <time>2026-09-01T19:50:55Z</time>
  <course>6.0</course>
  <speed>0.41</speed>
  <fix>3d</fix>
</trkpt>
<trkpt lat="-27.2744528" lon="151.2900616">
  <ele>357.95</ele>
  <time>2026-09-01T19:50:55Z</time>
  <course>249.17</course>
  <speed>0.4159326868617084</speed>
  <fix>3d</fix>
</trkpt>
<trkpt lat="-27.2744532" lon="151.2900615">
  <ele>358.13</ele>
  <time>2026-09-01T19:50:55Z</time>
  <course>6.0</course>
  <speed>0.41</speed>
  <fix>3d</fix>
</trkpt>
<trkpt lat="-27.2744524" lon="151.2900617">
  <ele>357.94</ele>
  <time>2026-09-01T19:50:55Z</time>
  <course>249.25</course>
  <speed>0.4242640687119285</speed>
  <fix>3d</fix>
</trkpt>
<trkpt lat="-27.2744524" lon="151.2900617">
  <ele>358.13</ele>
  <time>2026-09-01T19:50:55Z</time>
  <course>9.53</course>
  <speed>0.45</speed>
  <fix>3d</fix>
</trkpt>
<trkpt lat="-27.274452" lon="151.2900616">
  <ele>357.94</ele>
  <time>2026-09-01T19:50:55Z</time>
  <course>249.32</course>
  <speed>0.422965719651132</speed>
  <fix>3d</fix>
</trkpt>
<trkpt lat="-27.2744524" lon="151.2900617">
  <ele>358.13</ele>
  <time>2026-09-01T19:50:55Z</time>
  <course>9.53</course>
  <speed>0.45</speed>
  <fix>3d</fix>
</trkpt>
<trkpt lat="-27.2744516" lon="151.2900617">
  <ele>357.94</ele>
  <time>2026-09-01T19:50:55Z</time>
  <course>249.35</course>
  <speed>0.4310452412450461</speed>
  <fix>3d</fix>
</trkpt>
<trkpt lat="-27.2744516" lon="151.2900618">
  <ele>358.13</ele>
  <time>2026-09-01T19:50:55Z</time>
  <course>7.11</course>
  <speed>0.46</speed>
  <fix>3d</fix>
</trkpt>
<trkpt lat="-27.2744512" lon="151.2900617">
  <ele>357.94</ele>
  <time>2026-09-01T19:50:55Z</time>
  <course>249.34</course>
  <speed>0.40607881008493907</speed>
  <fix>3d</fix>
</trkpt>
<trkpt lat="-27.2744516" lon="151.2900618">
  <ele>358.13</ele>
  <time>2026-09-01T19:50:55Z</time>
  <course>7.11</course>
  <speed>0.46</speed>
  <fix>3d</fix>
</trkpt>
<trkpt lat="-27.2744508" lon="151.2900616">
  <ele>357.94</ele>
  <time>2026-09-01T19:50:55Z</time>
  <course>249.4</course>
  <speed>0.4114608122288197</speed>
  <fix>3d</fix>
</trkpt>
<trkpt lat="-27.2744507" lon="151.2900618">
  <ele>358.13</ele>
  <time>2026-09-01T19:50:55Z</time>
  <course>351.48</course>
  <speed>0.44</speed>
  <fix>3d</fix>
</trkpt>
<trkpt lat="-27.2744504" lon="151.2900614">
  <ele>357.94</ele>
  <time>2026-09-01T19:50:55Z</time>
  <course>249.45</course>
  <speed>0.43600458713183277</speed>
  <fix>3d</fix>
</trkpt>
<trkpt lat="-27.2744507" lon="151.2900618">
  <ele>358.13</ele>
  <time>2026-09-01T19:50:55Z</time>
  <course>351.48</course>
  <speed>0.44</speed>
  <fix>3d</fix>
</trkpt>
<trkpt lat="-27.2744501" lon="151.2900612">
  <ele>357.94</ele>
  <time>2026-09-01T19:50:55Z</time>
  <course>249.46</course>
  <speed>0.46010868281309364</speed>
  <fix>3d</fix>
</trkpt>
<trkpt lat="-27.27445" lon="151.2900615">
  <ele>358.13</ele>
  <time>2026-09-01T19:50:55Z</time>
  <course>328.94</course>
  <speed>0.45</speed>
  <fix>3d</fix>
</trkpt>
<trkpt lat="-27.2744497" lon="151.2900608">
  <ele>357.94</ele>
  <time>2026-09-01T19:50:55Z</time>
  <course>249.42</course>
  <speed>0.4808326112068523</speed>
  <fix>3d</fix>
</trkpt>
<trkpt lat="-27.27445" lon="151.2900615">
  <ele>358.13</ele>
  <time>2026-09-01T19:50:55Z</time>
  <course>328.94</course>
  <speed>0.45</speed>
  <fix>3d</fix>
</trkpt>
<trkpt lat="-27.2744494" lon="151.2900605">
  <ele>357.94</ele>
  <time>2026-09-01T19:50:55Z</time>
  <course>249.36</course>
  <speed>0.49517673612559787</speed>
  <fix>3d</fix>
</trkpt>
<trkpt lat="-27.2744494" lon="151.2900609">
  <ele>358.13</ele>
  <time>2026-09-01T19:50:55Z</time>
  <course>319.09</course>
  <speed>0.5</speed>
  <fix>3d</fix>
</trkpt>
<trkpt lat="-27.2744491" lon="151.2900602">
  <ele>357.94</ele>
  <time>2026-09-01T19:50:55Z</time>
  <course>249.28</course>
  <speed>0.5024937810560445</speed>
  <fix>3d</fix>
</trkpt>
<trkpt lat="-27.2744494" lon="151.2900609">
  <ele>358.13</ele>
  <time>2026-09-01T19:50:55Z</time>
  <course>319.09</course>
  <speed>0.5</speed>
  <fix>3d</fix>
</trkpt>
<trkpt lat="-27.2744487" lon="151.2900598">
  <ele>357.95</ele>
  <time>2026-09-01T19:50:55Z</time>
  <course>249.21</course>
  <speed>0.5093132631298737</speed>
  <fix>3d</fix>
</trkpt>
<trkpt lat="-27.2744487" lon="151.2900602">
  <ele>358.14</ele>
  <time>2026-09-01T19:50:55Z</time>
  <course>316.63</course>
  <speed>0.52</speed>
  <fix>3d</fix>
</trkpt>
<trkpt lat="-27.2744484" lon="151.2900594">
  <ele>357.95</ele>
  <time>2026-09-01T19:50:55Z</time>
  <course>249.14</course>
  <speed>0.5162363799656123</speed>
  <fix>3d</fix>
</trkpt>
<trkpt lat="-27.2744487" lon="151.2900602">
  <ele>358.14</ele>
  <time>2026-09-01T19:50:55Z</time>
  <course>316.63</course>
  <speed>0.52</speed>
  <fix>3d</fix>
</trkpt>
<trkpt lat="-27.274448" lon="151.2900591">
  <ele>357.95</ele>
  <time>2026-09-01T19:50:55Z</time>
  <course>249.12</course>
  <speed>0.5091168824543142</speed>
  <fix>3d</fix>
</trkpt>
<trkpt lat="-27.274448" lon="151.2900595">
  <ele>358.14</ele>
  <time>2026-09-01T19:50:55Z</time>
  <course>317.07</course>
  <speed>0.53</speed>
  <fix>3d</fix>
</trkpt>
<trkpt lat="-27.2744476" lon="151.2900587">
  <ele>357.95</ele>
  <time>2026-09-01T19:50:55Z</time>
  <course>249.15</course>
  <speed>0.4909175083453431</speed>
  <fix>3d</fix>
</trkpt>
<trkpt lat="-27.274448" lon="151.2900595">
  <ele>358.14</ele>
  <time>2026-09-01T19:50:55Z</time>
  <course>317.07</course>
  <speed>0.53</speed>
  <fix>3d</fix>
</trkpt>
<trkpt lat="-27.2744472" lon="151.2900585">
  <ele>357.96</ele>
  <time>2026-09-01T19:50:55Z</time>
  <course>249.17</course>
  <speed>0.4775981574503821</speed>
  <fix>3d</fix>
</trkpt>
<trkpt lat="-27.2744473" lon="151.2900589">
  <ele>358.14</ele>
  <time>2026-09-01T19:50:55Z</time>
  <course>329.17</course>
  <speed>0.51</speed>
  <fix>3d</fix>
</trkpt>
<trkpt lat="-27.2744467" lon="151.2900584">
  <ele>357.96</ele>
  <time>2026-09-01T19:50:55Z</time>
  <course>249.2</course>
  <speed>0.4903060268852505</speed>
  <fix>3d</fix>
</trkpt>
<trkpt lat="-27.2744473" lon="151.2900589">
  <ele>358.14</ele>
  <time>2026-09-01T19:50:55Z</time>
  <course>329.17</course>
  <speed>0.51</speed>
  <fix>3d</fix>
</trkpt>
<trkpt lat="-27.2744463" lon="151.2900583">
  <ele>357.96</ele>
  <time>2026-09-01T19:50:55Z</time>
  <course>249.25</course>
  <speed>0.5035871324805669</speed>
  <fix>3d</fix>
</trkpt>
<trkpt lat="-27.2744464" lon="151.2900584">
  <ele>358.15</ele>
  <time>2026-09-01T19:50:55Z</time>
  <course>347.28</course>
  <speed>0.52</speed>
  <fix>3d</fix>
</trkpt>
<trkpt lat="-27.2744458" lon="151.2900583">
  <ele>357.96</ele>
  <time>2026-09-01T19:50:55Z</time>
  <course>249.3</course>
  <speed>0.5124451190127582</speed>
  <fix>3d</fix>
</trkpt>
<trkpt lat="-27.2744464" lon="151.2900584">
  <ele>358.15</ele>
  <time>2026-09-01T19:50:55Z</time>
  <course>347.28</course>
  <speed>0.52</speed>
  <fix>3d</fix>
</trkpt>
<trkpt lat="-27.2744453" lon="151.2900582">
  <ele>357.96</ele>
  <time>2026-09-01T19:50:55Z</time>
  <course>249.34</course>
  <speed>0.5135172830587107</speed>
  <fix>3d</fix>
</trkpt>
<trkpt lat="-27.2744454" lon="151.2900583">
  <ele>358.15</ele>
  <time>2026-09-01T19:50:55Z</time>
  <course>353.48</course>
  <speed>0.54</speed>
  <fix>3d</fix>
</trkpt>
<trkpt lat="-27.2744448" lon="151.2900582">
  <ele>357.96</ele>
  <time>2026-09-01T19:50:55Z</time>
  <course>249.37</course>
  <speed>0.51478150704935</speed>
  <fix>3d</fix>
</trkpt>
<trkpt lat="-27.2744454" lon="151.2900583">
  <ele>358.15</ele>
  <time>2026-09-01T19:50:55Z</time>
  <course>353.48</course>
  <speed>0.54</speed>
  <fix>3d</fix>
</trkpt>
<trkpt lat="-27.2744443" lon="151.2900581">
  <ele>357.97</ele>
  <time>2026-09-01T19:50:55Z</time>
  <course>249.39</course>
  <speed>0.5080354318352215</speed>
  <fix>3d</fix>
</trkpt>
<trkpt lat="-27.2744445" lon="151.2900581">
  <ele>358.15</ele>
  <time>2026-09-01T19:50:55Z</time>
  <course>352.07</course>
  <speed>0.54</speed>
  <fix>3d</fix>
</trkpt>
<trkpt lat="-27.2744439" lon="151.290058">
  <ele>357.97</ele>
  <time>2026-09-01T19:50:55Z</time>
  <course>249.37</course>
  <speed>0.5028916384272063</speed>
  <fix>3d</fix>
</trkpt>
<trkpt lat="-27.2744445" lon="151.2900581">
  <ele>358.15</ele>
  <time>2026-09-01T19:50:55Z</time>
  <course>352.07</course>
  <speed>0.54</speed>
  <fix>3d</fix>
</trkpt>
<trkpt lat="-27.2744434" lon="151.2900578">
  <ele>357.97</ele>
  <time>2026-09-01T19:50:55Z</time>
  <course>249.37</course>
  <speed>0.5060632371551997</speed>
  <fix>3d</fix>
</trkpt>
<trkpt lat="-27.2744435" lon="151.2900579">
  <ele>358.15</ele>
  <time>2026-09-01T19:50:55Z</time>
  <course>341.49</course>
  <speed>0.53</speed>
  <fix>3d</fix>
</trkpt>
<trkpt lat="-27.274443" lon="151.2900575">
  <ele>357.97</ele>
  <time>2026-09-01T19:50:55Z</time>
  <course>249.41</course>
  <speed>0.532634959423431</speed>
  <fix>3d</fix>
</trkpt>
<trkpt lat="-27.2744435" lon="151.2900579">
  <ele>358.15</ele>
  <time>2026-09-01T19:50:55Z</time>
  <course>341.49</course>
  <speed>0.53</speed>
  <fix>3d</fix>
</trkpt>
<trkpt lat="-27.2744426" lon="151.2900571">
  <ele>357.97</ele>
  <time>2026-09-01T19:50:55Z</time>
  <course>249.43</course>
  <speed>0.5586591089385369</speed>
  <fix>3d</fix>
</trkpt>
<trkpt lat="-27.2744427" lon="151.2900574">
  <ele>358.15</ele>
  <time>2026-09-01T19:50:55Z</time>
  <course>324.67</course>
  <speed>0.55</speed>
  <fix>3d</fix>
</trkpt>
<trkpt lat="-27.2744422" lon="151.2900566">
  <ele>357.97</ele>
  <time>2026-09-01T19:50:55Z</time>
  <course>249.42</course>
  <speed>0.5813776741499453</speed>
  <fix>3d</fix>
</trkpt>
<trkpt lat="-27.2744427" lon="151.2900574">
  <ele>358.15</ele>
  <time>2026-09-01T19:50:55Z</time>
  <course>324.67</course>
  <speed>0.55</speed>
  <fix>3d</fix>
</trkpt>
<trkpt lat="-27.2744419" lon="151.2900562">
  <ele>357.97</ele>
  <time>2026-09-01T19:50:55Z</time>
  <course>249.38</course>
  <speed>0.5903388857258176</speed>
  <fix>3d</fix>
</trkpt>
<trkpt lat="-27.2744419" lon="151.2900566">
  <ele>358.14</ele>
  <time>2026-09-01T19:50:55Z</time>
  <course>314.35</course>
  <speed>0.59</speed>
  <fix>3d</fix>
</trkpt>
<trkpt lat="-27.2744415" lon="151.2900557">
  <ele>357.96</ele>
  <time>2026-09-01T19:50:55Z</time>
  <course>249.32</course>
  <speed>0.5920304046246274</speed>
  <fix>3d</fix>
</trkpt>
<trkpt lat="-27.2744419" lon="151.2900566">
  <ele>358.14</ele>
  <time>2026-09-01T19:50:55Z</time>
  <course>314.35</course>
  <speed>0.59</speed>
  <fix>3d</fix>
</trkpt>
<trkpt lat="-27.2744411" lon="151.2900552">
  <ele>357.96</ele>
  <time>2026-09-01T19:50:55Z</time>
  <course>249.26</course>
  <speed>0.5920304046246274</speed>
  <fix>3d</fix>
</trkpt>
<trkpt lat="-27.2744411" lon="151.2900558">
  <ele>358.14</ele>
  <time>2026-09-01T19:50:55Z</time>
  <course>310.88</course>
  <speed>0.61</speed>
  <fix>3d</fix>
</trkpt>
<trkpt lat="-27.2744408" lon="151.2900548">
  <ele>357.96</ele>
  <time>2026-09-01T19:50:55Z</time>
  <course>249.2</course>
  <speed>0.5920304046246274</speed>
  <fix>3d</fix>
</trkpt>
<trkpt lat="-27.2744411" lon="151.2900558">
  <ele>358.14</ele>
  <time>2026-09-01T19:50:55Z</time>
  <course>310.88</course>
  <speed>0.61</speed>
  <fix>3d</fix>
</trkpt>
<trkpt lat="-27.2744404" lon="151.2900543">
  <ele>357.95</ele>
  <time>2026-09-01T19:50:55Z</time>
  <course>249.14</course>
  <speed>0.5920304046246274</speed>
  <fix>3d</fix>
</trkpt>
<trkpt lat="-27.2744404" lon="151.2900548">
  <ele>358.14</ele>
  <time>2026-09-01T19:50:55Z</time>
  <course>310.15</course>
  <speed>0.61</speed>
  <fix>3d</fix>
</trkpt>
<trkpt lat="-27.2744401" lon="151.2900539">
  <ele>357.95</ele>
  <time>2026-09-01T19:50:55Z</time>
  <course>249.11</course>
  <speed>0.5672741841473133</speed>
  <fix>3d</fix>
</trkpt>
<trkpt lat="-27.2744404" lon="151.2900548">
  <ele>358.14</ele>
  <time>2026-09-01T19:50:55Z</time>
  <course>310.15</course>
  <speed>0.61</speed>
  <fix>3d</fix>
</trkpt>
<trkpt lat="-27.2744397" lon="151.2900535">
  <ele>357.95</ele>
  <time>2026-09-01T19:50:55Z</time>
  <course>249.1</course>
  <speed>0.5140038910358559</speed>
  <fix>3d</fix>
</trkpt>
<trkpt lat="-27.2744397" lon="151.2900539">
  <ele>358.14</ele>
  <time>2026-09-01T19:50:55Z</time>
  <course>316.87</course>
  <speed>0.57</speed>
  <fix>3d</fix>
</trkpt>
<trkpt lat="-27.2744392" lon="151.2900532">
  <ele>357.94</ele>
  <time>2026-09-01T19:50:55Z</time>
  <course>249.13</course>
  <speed>0.4965883607174055</speed>
  <fix>3d</fix>
</trkpt>
<trkpt lat="-27.2744397" lon="151.2900539">
  <ele>358.14</ele>
  <time>2026-09-01T19:50:55Z</time>
  <course>316.87</course>
  <speed>0.57</speed>
  <fix>3d</fix>
</trkpt>
<trkpt lat="-27.2744388" lon="151.2900531">
  <ele>357.94</ele>
  <time>2026-09-01T19:50:55Z</time>
  <course>249.16</course>
  <speed>0.4933558553417604</speed>
  <fix>3d</fix>
</trkpt>
<trkpt lat="-27.2744389" lon="151.2900533">
  <ele>358.14</ele>
  <time>2026-09-01T19:50:55Z</time>
  <course>333.45</course>
  <speed>0.52</speed>
  <fix>3d</fix>
</trkpt>
<trkpt lat="-27.2744383" lon="151.2900529">
  <ele>357.94</ele>
  <time>2026-09-01T19:50:55Z</time>
  <course>249.2</course>
  <speed>0.49729267036625424</speed>
  <fix>3d</fix>
</trkpt>
<trkpt lat="-27.2744389" lon="151.2900533">
  <ele>358.14</ele>
  <time>2026-09-01T19:50:55Z</time>
  <course>333.45</course>
  <speed>0.52</speed>
  <fix>3d</fix>
</trkpt>
<trkpt lat="-27.2744379" lon="151.2900528">
  <ele>357.94</ele>
  <time>2026-09-01T19:50:55Z</time>
  <course>249.23</course>
  <speed>0.4850773134253961</speed>
  <fix>3d</fix>
</trkpt>
<trkpt lat="-27.274438" lon="151.2900529">
  <ele>358.14</ele>
  <time>2026-09-01T19:50:55Z</time>
  <course>344.92</course>
  <speed>0.52</speed>
  <fix>3d</fix>
</trkpt>
<trkpt lat="-27.2744374" lon="151.2900527">
  <ele>357.94</ele>
  <time>2026-09-01T19:50:55Z</time>
  <course>249.25</course>
  <speed>0.4850773134253961</speed>
  <fix>3d</fix>
</trkpt>
<trkpt lat="-27.274438" lon="151.2900529">
  <ele>358.14</ele>
  <time>2026-09-01T19:50:55Z</time>
  <course>344.92</course>
  <speed>0.52</speed>
  <fix>3d</fix>
</trkpt>
<trkpt lat="-27.274437" lon="151.2900526">
  <ele>357.94</ele>
  <time>2026-09-01T19:50:56Z</time>
  <course>249.26</course>
  <speed>0.4753945729601885</speed>
  <fix>3d</fix>
</trkpt>
<trkpt lat="-27.2744371" lon="151.2900527">
  <ele>358.14</ele>
  <time>2026-09-01T19:50:56Z</time>
  <course>346.4</course>
  <speed>0.51</speed>
  <fix>3d</fix>
</trkpt>
<trkpt lat="-27.2744365" lon="151.2900524">
  <ele>357.95</ele>
  <time>2026-09-01T19:50:56Z</time>
  <course>249.26</course>
  <speed>0.4712748667179272</speed>
  <fix>3d</fix>
</trkpt>
<trkpt lat="-27.2744371" lon="151.2900527">
  <ele>358.14</ele>
  <time>2026-09-01T19:50:56Z</time>
  <course>346.4</course>
  <speed>0.51</speed>
  <fix>3d</fix>
</trkpt>
<trkpt lat="-27.2744361" lon="151.2900523">
  <ele>357.95</ele>
  <time>2026-09-01T19:50:56Z</time>
  <course>249.28</course>
  <speed>0.46529560496527367</speed>
  <fix>3d</fix>
</trkpt>
<trkpt lat="-27.2744362" lon="151.2900524">
  <ele>358.14</ele>
  <time>2026-09-01T19:50:56Z</time>
  <course>340.49</course>
  <speed>0.49</speed>
  <fix>3d</fix>
</trkpt>
<trkpt lat="-27.2744357" lon="151.290052">
  <ele>357.95</ele>
  <time>2026-09-01T19:50:56Z</time>
  <course>249.28</course>
  <speed>0.4827007354458868</speed>
  <fix>3d</fix>
</trkpt>
<trkpt lat="-27.2744362" lon="151.2900524">
  <ele>358.14</ele>
  <time>2026-09-01T19:50:56Z</time>
  <course>340.49</course>
  <speed>0.49</speed>
  <fix>3d</fix>
</trkpt>
<trkpt lat="-27.2744354" lon="151.2900516">
  <ele>357.95</ele>
  <time>2026-09-01T19:50:56Z</time>
  <course>249.29</course>
  <speed>0.5099019513592785</speed>
  <fix>3d</fix>
</trkpt>
<trkpt lat="-27.2744354" lon="151.290052">
  <ele>358.14</ele>
  <time>2026-09-01T19:50:56Z</time>
  <course>324.62</course>
  <speed>0.49</speed>
  <fix>3d</fix>
</trkpt>
<trkpt lat="-27.274435" lon="151.2900512">
  <ele>357.95</ele>
  <time>2026-09-01T19:50:56Z</time>
  <course>249.27</course>
  <speed>0.5220153254455275</speed>
  <fix>3d</fix>
</trkpt>
<trkpt lat="-27.2744354" lon="151.290052">
  <ele>358.14</ele>
  <time>2026-09-01T19:50:56Z</time>
  <course>324.62</course>
  <speed>0.49</speed>
  <fix>3d</fix>
</trkpt>
<trkpt lat="-27.2744347" lon="151.2900508">
  <ele>357.95</ele>
  <time>2026-09-01T19:50:56Z</time>
  <course>249.24</course>
  <speed>0.532541078227774</speed>
  <fix>3d</fix>
</trkpt>
<trkpt lat="-27.2744348" lon="151.2900512">
  <ele>358.15</ele>
  <time>2026-09-01T19:50:56Z</time>
  <course>310.67</course>
  <speed>0.53</speed>
  <fix>3d</fix>
</trkpt>
<trkpt lat="-27.2744344" lon="151.2900503">
  <ele>357.96</ele>
  <time>2026-09-01T19:50:56Z</time>
  <course>249.2</course>
  <speed>0.53</speed>
  <fix>3d</fix>
</trkpt>
<trkpt lat="-27.2744348" lon="151.2900512">
  <ele>358.15</ele>
  <time>2026-09-01T19:50:56Z</time>
  <course>310.67</course>
  <speed>0.53</speed>
  <fix>3d</fix>
</trkpt>
<trkpt lat="-27.2744342" lon="151.2900499">
  <ele>357.96</ele>
  <time>2026-09-01T19:50:56Z</time>
  <course>249.15</course>
  <speed>0.5333854141237835</speed>
  <fix>3d</fix>
</trkpt>
<trkpt lat="-27.2744342" lon="151.2900503">
  <ele>358.15</ele>
  <time>2026-09-01T19:50:56Z</time>
  <course>305.19</course>
  <speed>0.54</speed>
  <fix>3d</fix>
</trkpt>
<trkpt lat="-27.2744339" lon="151.2900494">
  <ele>357.96</ele>
  <time>2026-09-01T19:50:56Z</time>
  <course>249.11</course>
  <speed>0.5197114584074513</speed>
  <fix>3d</fix>
</trkpt>
<trkpt lat="-27.2744342" lon="151.2900503">
  <ele>358.15</ele>
  <time>2026-09-01T19:50:56Z</time>
  <course>305.19</course>
  <speed>0.54</speed>
  <fix>3d</fix>
</trkpt>
<trkpt lat="-27.2744337" lon="151.290049">
  <ele>357.97</ele>
  <time>2026-09-01T19:50:56Z</time>
  <course>249.06</course>
  <speed>0.5197114584074513</speed>
  <fix>3d</fix>
</trkpt>
<trkpt lat="-27.2744336" lon="151.2900494">
  <ele>358.15</ele>
  <time>2026-09-01T19:50:56Z</time>
  <course>303.33</course>
  <speed>0.53</speed>
  <fix>3d</fix>
</trkpt>
<trkpt lat="-27.2744334" lon="151.2900485">
  <ele>357.97</ele>
  <time>2026-09-01T19:50:56Z</time>
  <course>249.01</course>
  <speed>0.4973932046178355</speed>
  <fix>3d</fix>
</trkpt>
<trkpt lat="-27.2744336" lon="151.2900494">
  <ele>358.15</ele>
  <time>2026-09-01T19:50:56Z</time>
  <course>303.33</course>
  <speed>0.53</speed>
  <fix>3d</fix>
</trkpt>
<trkpt lat="-27.2744331" lon="151.2900481">
  <ele>357.97</ele>
  <time>2026-09-01T19:50:56Z</time>
  <course>248.96</course>
  <speed>0.43278170016764805</speed>
  <fix>3d</fix>
</trkpt>
<trkpt lat="-27.2744331" lon="151.2900485">
  <ele>358.15</ele>
  <time>2026-09-01T19:50:56Z</time>
  <course>307.23</course>
  <speed>0.49</speed>
  <fix>3d</fix>
</trkpt>
<trkpt lat="-27.2744328" lon="151.2900479">
  <ele>357.97</ele>
  <time>2026-09-01T19:50:56Z</time>
  <course>248.96</course>
  <speed>0.38013155617496425</speed>
  <fix>3d</fix>
</trkpt>
<trkpt lat="-27.2744331" lon="151.2900485">
  <ele>358.15</ele>
  <time>2026-09-01T19:50:56Z</time>
  <course>307.23</course>
  <speed>0.49</speed>
  <fix>3d</fix>
</trkpt>
<trkpt lat="-27.2744325" lon="151.2900477">
  <ele>357.97</ele>
  <time>2026-09-01T19:50:56Z</time>
  <course>248.98</course>
  <speed>0.3640054944640259</speed>
  <fix>3d</fix>
</trkpt>
<trkpt lat="-27.2744325" lon="151.2900479">
  <ele>358.15</ele>
  <time>2026-09-01T19:50:56Z</time>
  <course>325.22</course>
  <speed>0.4</speed>
  <fix>3d</fix>
</trkpt>
<trkpt lat="-27.2744322" lon="151.2900476">
  <ele>357.96</ele>
  <time>2026-09-01T19:50:56Z</time>
  <course>249.01</course>
  <speed>0.356931365951495</speed>
  <fix>3d</fix>
</trkpt>
<trkpt lat="-27.2744325" lon="151.2900479">
  <ele>358.15</ele>
  <time>2026-09-01T19:50:56Z</time>
  <course>325.22</course>
  <speed>0.4</speed>
  <fix>3d</fix>
</trkpt>
<trkpt lat="-27.2744318" lon="151.2900476">
  <ele>357.96</ele>
  <time>2026-09-01T19:50:56Z</time>
  <course>249.04</course>
  <speed>0.34365680554879163</speed>
  <fix>3d</fix>
</trkpt>
<trkpt lat="-27.2744319" lon="151.2900476">
  <ele>358.15</ele>
  <time>2026-09-01T19:50:56Z</time>
  <course>346.71</course>
  <speed>0.37</speed>
  <fix>3d</fix>
</trkpt>
<trkpt lat="-27.2744315" lon="151.2900475">
  <ele>357.96</ele>
  <time>2026-09-01T19:50:56Z</time>
  <course>249.06</course>
  <speed>0.34132096331752027</speed>
  <fix>3d</fix>
</trkpt>
<trkpt lat="-27.2744319" lon="151.2900476">
  <ele>358.15</ele>
  <time>2026-09-01T19:50:56Z</time>
  <course>346.71</course>
  <speed>0.37</speed>
  <fix>3d</fix>
</trkpt>
<trkpt lat="-27.2744312" lon="151.2900475">
  <ele>357.96</ele>
  <time>2026-09-01T19:50:56Z</time>
  <course>249.08</course>
  <speed>0.3306055050963308</speed>
  <fix>3d</fix>
</trkpt>
<trkpt lat="-27.2744312" lon="151.2900475">
  <ele>358.15</ele>
  <time>2026-09-01T19:50:56Z</time>
  <course>355.02</course>
  <speed>0.36</speed>
  <fix>3d</fix>
</trkpt>
<trkpt lat="-27.2744308" lon="151.2900475">
  <ele>357.96</ele>
  <time>2026-09-01T19:50:56Z</time>
  <course>249.09</course>
  <speed>0.32015621187164245</speed>
  <fix>3d</fix>
</trkpt>
<trkpt lat="-27.2744312" lon="151.2900475">
  <ele>358.15</ele>
  <time>2026-09-01T19:50:56Z</time>
  <course>355.02</course>
  <speed>0.36</speed>
  <fix>3d</fix>
</trkpt>
<trkpt lat="-27.2744306" lon="151.2900474">
  <ele>357.96</ele>
  <time>2026-09-01T19:50:56Z</time>
  <course>249.15</course>
  <speed>0.2942787793912432</speed>
  <fix>3d</fix>
</trkpt>
<trkpt lat="-27.2744306" lon="151.2900474">
  <ele>358.15</ele>
  <time>2026-09-01T19:50:56Z</time>
  <course>354.78</course>
  <speed>0.34</speed>
  <fix>3d</fix>
</trkpt>
<trkpt lat="-27.2744303" lon="151.2900473">
  <ele>357.95</ele>
  <time>2026-09-01T19:50:56Z</time>
  <course>249.14</course>
  <speed>0.28178005607210743</speed>
  <fix>3d</fix>
</trkpt>
<trkpt lat="-27.2744306" lon="151.2900474">
  <ele>358.15</ele>
  <time>2026-09-01T19:50:56Z</time>
  <course>354.78</course>
  <speed>0.34</speed>
  <fix>3d</fix>
</trkpt>
<trkpt lat="-27.2744301" lon="151.2900472">
  <ele>357.95</ele>
  <time>2026-09-01T19:50:56Z</time>
  <course>249.11</course>
  <speed>0.2765863337187866</speed>
  <fix>3d</fix>
</trkpt>
<trkpt lat="-27.27443" lon="151.2900473">
  <ele>358.15</ele>
  <time>2026-09-01T19:50:56Z</time>
  <course>339.07</course>
  <speed>0.3</speed>
  <fix>3d</fix>
</trkpt>
<trkpt lat="-27.2744298" lon="151.290047">
  <ele>357.95</ele>
  <time>2026-09-01T19:50:56Z</time>
  <course>249.08</course>
  <speed>0.2831960451701259</speed>
  <fix>3d</fix>
</trkpt>
<trkpt lat="-27.27443" lon="151.2900473">
  <ele>358.15</ele>
  <time>2026-09-01T19:50:56Z</time>
  <course>339.07</course>
  <speed>0.3</speed>
  <fix>3d</fix>
</trkpt>
<trkpt lat="-27.2744297" lon="151.2900468">
  <ele>357.95</ele>
  <time>2026-09-01T19:50:56Z</time>
  <course>249.05</course>
  <speed>0.28600699292150183</speed>
  <fix>3d</fix>
</trkpt>
<trkpt lat="-27.2744296" lon="151.290047">
  <ele>358.15</ele>
  <time>2026-09-01T19:50:56Z</time>
  <course>318.48</course>
  <speed>0.29</speed>
  <fix>3d</fix>
</trkpt>
<trkpt lat="-27.2744295" lon="151.2900465">
  <ele>357.95</ele>
  <time>2026-09-01T19:50:56Z</time>
  <course>249.01</course>
  <speed>0.2745906043549196</speed>
  <fix>3d</fix>
</trkpt>
<trkpt lat="-27.2744296" lon="151.290047">
  <ele>358.15</ele>
  <time>2026-09-01T19:50:56Z</time>
  <course>318.48</course>
  <speed>0.29</speed>
  <fix>3d</fix>
</trkpt>
<trkpt lat="-27.2744293" lon="151.2900463">
  <ele>357.95</ele>
  <time>2026-09-01T19:50:56Z</time>
  <course>248.97</course>
  <speed>0.2692582403567252</speed>
  <fix>3d</fix>
</trkpt>
<trkpt lat="-27.2744292" lon="151.2900465">
  <ele>358.15</ele>
  <time>2026-09-01T19:50:56Z</time>
  <course>309.69</course>
  <speed>0.28</speed>
  <fix>3d</fix>
</trkpt>
<trkpt lat="-27.2744292" lon="151.2900461">
  <ele>357.95</ele>
  <time>2026-09-01T19:50:56Z</time>
  <course>248.94</course>
  <speed>0.25553864678361277</speed>
  <fix>3d</fix>
</trkpt>
<trkpt lat="-27.2744292" lon="151.2900465">
  <ele>358.15</ele>
  <time>2026-09-01T19:50:56Z</time>
  <course>309.69</course>
  <speed>0.28</speed>
  <fix>3d</fix>
</trkpt>
<trkpt lat="-27.2744291" lon="151.2900459">
  <ele>357.95</ele>
  <time>2026-09-01T19:50:56Z</time>
  <course>248.91</course>
  <speed>0.24186773244895649</speed>
  <fix>3d</fix>
</trkpt>
<trkpt lat="-27.2744289" lon="151.2900461">
  <ele>358.15</ele>
  <time>2026-09-01T19:50:56Z</time>
  <course>306.31</course>
  <speed>0.26</speed>
  <fix>3d</fix>
</trkpt>
<trkpt lat="-27.2744289" lon="151.2900457">
  <ele>357.96</ele>
  <time>2026-09-01T19:50:56Z</time>
  <course>248.85</course>
  <speed>0.2109502310972899</speed>
  <fix>3d</fix>
</trkpt>
<trkpt lat="-27.2744289" lon="151.2900461">
  <ele>358.15</ele>
  <time>2026-09-01T19:50:56Z</time>
  <course>306.31</course>
  <speed>0.26</speed>
  <fix>3d</fix>
</trkpt>
<trkpt lat="-27.2744288" lon="151.2900456">
  <ele>357.96</ele>
  <time>2026-09-01T19:50:56Z</time>
  <course>248.79</course>
  <speed>0.15652475842498528</speed>
  <fix>3d</fix>
</trkpt>
<trkpt lat="-27.2744286" lon="151.2900457">
  <ele>358.15</ele>
  <time>2026-09-01T19:50:56Z</time>
  <course>318.07</course>
  <speed>0.21</speed>
  <fix>3d</fix>
</trkpt>
<trkpt lat="-27.2744286" lon="151.2900456">
  <ele>357.96</ele>
  <time>2026-09-01T19:50:56Z</time>
  <course>248.8</course>
  <speed>0.17464249196572978</speed>
  <fix>3d</fix>
</trkpt>
<trkpt lat="-27.2744286" lon="151.2900457">
  <ele>358.15</ele>
  <time>2026-09-01T19:50:56Z</time>
  <course>318.07</course>
  <speed>0.21</speed>
  <fix>3d</fix>
</trkpt>
<trkpt lat="-27.2744284" lon="151.2900457">
  <ele>357.96</ele>
  <time>2026-09-01T19:50:56Z</time>
  <course>248.82</course>
  <speed>0.22472205054244232</speed>
  <fix>3d</fix>
</trkpt>
<trkpt lat="-27.2744283" lon="151.2900456">
  <ele>358.15</ele>
  <time>2026-09-01T19:50:56Z</time>
  <course>7.56</course>
  <speed>0.19</speed>
  <fix>3d</fix>
</trkpt>
<trkpt lat="-27.2744282" lon="151.2900458">
  <ele>357.96</ele>
  <time>2026-09-01T19:50:56Z</time>
  <course>248.86</course>
  <speed>0.25495097567963926</speed>
  <fix>3d</fix>
</trkpt>
<trkpt lat="-27.2744283" lon="151.2900456">
  <ele>358.15</ele>
  <time>2026-09-01T19:50:56Z</time>
  <course>7.56</course>
  <speed>0.19</speed>
  <fix>3d</fix>
</trkpt>
<trkpt lat="-27.274428" lon="151.2900459">
  <ele>357.96</ele>
  <time>2026-09-01T19:50:56Z</time>
  <course>248.9</course>
  <speed>0.2831960451701259</speed>
  <fix>3d</fix>
</trkpt>
<trkpt lat="-27.274428" lon="151.2900458">
  <ele>358.15</ele>
  <time>2026-09-01T19:50:56Z</time>
  <course>39.01</course>
  <speed>0.27</speed>
  <fix>3d</fix>
</trkpt>
<trkpt lat="-27.2744278" lon="151.2900462">
  <ele>357.97</ele>
  <time>2026-09-01T19:50:56Z</time>
  <course>248.96</course>
  <speed>0.2920616373302047</speed>
  <fix>3d</fix>
</trkpt>
<trkpt lat="-27.274428" lon="151.2900458">
  <ele>358.15</ele>
  <time>2026-09-01T19:50:56Z</time>
  <course>39.01</course>
  <speed>0.27</speed>
  <fix>3d</fix>
</trkpt>
<trkpt lat="-27.2744277" lon="151.2900464">
  <ele>357.97</ele>
  <time>2026-09-01T19:50:56Z</time>
  <course>249.01</course>
  <speed>0.29410882339705485</speed>
  <fix>3d</fix>
</trkpt>
<trkpt lat="-27.2744276" lon="151.2900462">
  <ele>358.15</ele>
  <time>2026-09-01T19:50:56Z</time>
  <course>49.53</course>
  <speed>0.31</speed>
  <fix>3d</fix>
</trkpt>
<trkpt lat="-27.2744275" lon="151.2900467">
  <ele>357.97</ele>
  <time>2026-09-01T19:50:56Z</time>
  <course>249.07</course>
  <speed>0.291547594742265</speed>
  <fix>3d</fix>
</trkpt>
<trkpt lat="-27.2744276" lon="151.2900462">
  <ele>358.15</ele>
  <time>2026-09-01T19:50:56Z</time>
  <course>49.53</course>
  <speed>0.31</speed>
  <fix>3d</fix>
</trkpt>
<trkpt lat="-27.2744273" lon="151.2900469">
  <ele>357.97</ele>
  <time>2026-09-01T19:50:56Z</time>
  <course>249.21</course>
  <speed>0.22825424421026652</speed>
  <fix>3d</fix>
</trkpt>
<trkpt lat="-27.2744272" lon="151.2900466">
  <ele>358.15</ele>
  <time>2026-09-01T19:50:56Z</time>
  <course>54.89</course>
  <speed>0.29</speed>
  <fix>3d</fix>
</trkpt>
<trkpt lat="-27.2744272" lon="151.2900471">
  <ele>357.97</ele>
  <time>2026-09-01T19:50:56Z</time>
  <course>249.25</course>
  <speed>0.10816653826391968</speed>
  <fix>3d</fix>
</trkpt>
<trkpt lat="-27.2744272" lon="151.2900466">
  <ele>358.15</ele>
  <time>2026-09-01T19:50:56Z</time>
  <course>54.89</course>
  <speed>0.29</speed>
  <fix>3d</fix>
</trkpt>
<trkpt lat="-27.2744272" lon="151.2900471">
  <ele>357.97</ele>
  <time>2026-09-01T19:50:56Z</time>
  <course>249.22</course>
  <speed>0.01</speed>
  <fix>3d</fix>
</trkpt>
<trkpt lat="-27.274427" lon="151.290047">
  <ele>358.14</ele>
  <time>2026-09-01T19:50:56Z</time>
  <course>53.93</course>
  <speed>0.15</speed>
  <fix>3d</fix>
</trkpt>
<trkpt lat="-27.2744272" lon="151.2900471">
  <ele>357.97</ele>
  <time>2026-09-01T19:50:56Z</time>
  <course>249.17</course>
  <speed>0.044721359549995794</speed>
  <fix>3d</fix>
</trkpt>
<trkpt lat="-27.274427" lon="151.290047">
  <ele>358.14</ele>
  <time>2026-09-01T19:50:56Z</time>
  <course>53.93</course>
  <speed>0.15</speed>
  <fix>3d</fix>
</trkpt>
<trkpt lat="-27.2744272" lon="151.290047">
  <ele>357.97</ele>
  <time>2026-09-01T19:50:56Z</time>
  <course>249.1</course>
  <speed>0.08602325267042626</speed>
  <fix>3d</fix>
</trkpt>
<trkpt lat="-27.2744269" lon="151.2900471">
  <ele>358.14</ele>
  <time>2026-09-01T19:50:56Z</time>
  <course>282.18</course>
  <speed>0.01</speed>
  <fix>3d</fix>
</trkpt>
<trkpt lat="-27.2744272" lon="151.2900469">
  <ele>357.96</ele>
  <time>2026-09-01T19:50:56Z</time>
  <course>249.01</course>
  <speed>0.11401754250991379</speed>
  <fix>3d</fix>
</trkpt>
<trkpt lat="-27.2744269" lon="151.2900471">
  <ele>358.14</ele>
  <time>2026-09-01T19:50:56Z</time>
  <course>282.18</course>
  <speed>0.01</speed>
  <fix>3d</fix>
</trkpt>
<trkpt lat="-27.2744272" lon="151.2900469">
  <ele>357.96</ele>
  <time>2026-09-01T19:50:56Z</time>
  <course>248.93</course>
  <speed>0.12727922061357855</speed>
  <fix>3d</fix>
</trkpt>
<trkpt lat="-27.2744269" lon="151.290047">
  <ele>358.14</ele>
  <time>2026-09-01T19:50:56Z</time>
  <course>235.84</course>
  <speed>0.08</speed>
  <fix>3d</fix>
</trkpt>
<trkpt lat="-27.2744273" lon="151.2900469">
  <ele>357.96</ele>
  <time>2026-09-01T19:50:56Z</time>
  <course>248.86</course>
  <speed>0.14212670403551894</speed>
  <fix>3d</fix>
</trkpt>
<trkpt lat="-27.2744269" lon="151.290047">
  <ele>358.14</ele>
  <time>2026-09-01T19:50:56Z</time>
  <course>235.84</course>
  <speed>0.08</speed>
  <fix>3d</fix>
</trkpt>
<trkpt lat="-27.2744273" lon="151.2900468">
  <ele>357.96</ele>
  <time>2026-09-01T19:50:56Z</time>
  <course>248.81</course>
  <speed>0.14422205101855956</speed>
  <fix>3d</fix>
</trkpt>
<trkpt lat="-27.274427" lon="151.2900469">
  <ele>358.13</ele>
  <time>2026-09-01T19:50:56Z</time>
  <course>222.66</course>
  <speed>0.11</speed>
  <fix>3d</fix>
</trkpt>
<trkpt lat="-27.2744274" lon="151.2900467">
  <ele>357.96</ele>
  <time>2026-09-01T19:50:56Z</time>
  <course>248.79</course>
  <speed>0.147648230602334</speed>
  <fix>3d</fix>
</trkpt>
<trkpt lat="-27.274427" lon="151.2900469">
  <ele>358.13</ele>
  <time>2026-09-01T19:50:56Z</time>
  <course>222.66</course>
  <speed>0.11</speed>
  <fix>3d</fix>
</trkpt>
<trkpt lat="-27.2744275" lon="151.2900467">
  <ele>357.96</ele>
  <time>2026-09-01T19:50:56Z</time>
  <course>248.7</course>
  <speed>0.13152946437965907</speed>
  <fix>3d</fix>
</trkpt>
<trkpt lat="-27.2744272" lon="151.2900468">
  <ele>358.13</ele>
  <time>2026-09-01T19:50:56Z</time>
  <course>203.87</course>
  <speed>0.11</speed>
  <fix>3d</fix>
</trkpt>
<trkpt lat="-27.2744276" lon="151.2900467">
  <ele>357.95</ele>
  <time>2026-09-01T19:50:56Z</time>
  <course>248.7</course>
  <speed>0.130384048104053</speed>
  <fix>3d</fix>
</trkpt>
<trkpt lat="-27.2744272" lon="151.2900468">
  <ele>358.13</ele>
  <time>2026-09-01T19:50:56Z</time>
  <course>203.87</course>
  <speed>0.11</speed>
  <fix>3d</fix>
</trkpt>
<trkpt lat="-27.2744277" lon="151.2900468">
  <ele>357.95</ele>
  <time>2026-09-01T19:50:56Z</time>
  <course>248.72</course>
  <speed>0.17492855684535902</speed>
  <fix>3d</fix>
</trkpt>
<trkpt lat="-27.2744273" lon="151.2900468">
  <ele>358.13</ele>
  <time>2026-09-01T19:50:56Z</time>
  <course>142.58</course>
  <speed>0.11</speed>
  <fix>3d</fix>
</trkpt>
<trkpt lat="-27.2744277" lon="151.290047">
  <ele>357.95</ele>
  <time>2026-09-01T19:50:56Z</time>
  <course>248.74</course>
  <speed>0.22472205054244232</speed>
  <fix>3d</fix>
</trkpt>
<trkpt lat="-27.2744273" lon="151.2900468">
  <ele>358.13</ele>
  <time>2026-09-01T19:50:56Z</time>
  <course>142.58</course>
  <speed>0.11</speed>
  <fix>3d</fix>
</trkpt>
<trkpt lat="-27.2744278" lon="151.2900472">
  <ele>357.95</ele>
  <time>2026-09-01T19:50:56Z</time>
  <course>248.75</course>
  <speed>0.26570660511172844</speed>
  <fix>3d</fix>
</trkpt>
<trkpt lat="-27.2744275" lon="151.290047">
  <ele>358.13</ele>
  <time>2026-09-01T19:50:56Z</time>
  <course>108.73</course>
  <speed>0.22</speed>
  <fix>3d</fix>
</trkpt>
<trkpt lat="-27.2744278" lon="151.2900475">
  <ele>357.95</ele>
  <time>2026-09-01T19:50:56Z</time>
  <course>248.76</course>
  <speed>0.28460498941515416</speed>
  <fix>3d</fix>
</trkpt>
<trkpt lat="-27.2744275" lon="151.290047">
  <ele>358.13</ele>
  <time>2026-09-01T19:50:56Z</time>
  <course>108.73</course>
  <speed>0.22</speed>
  <fix>3d</fix>
</trkpt>
<trkpt lat="-27.2744279" lon="151.2900477">
  <ele>357.95</ele>
  <time>2026-09-01T19:50:56Z</time>
  <course>248.76</course>
  <speed>0.2973213749463701</speed>
  <fix>3d</fix>
</trkpt>
<trkpt lat="-27.2744276" lon="151.2900475">
  <ele>358.13</ele>
  <time>2026-09-01T19:50:56Z</time>
  <course>105.43</course>
  <speed>0.29</speed>
  <fix>3d</fix>
</trkpt>
<trkpt lat="-27.274428" lon="151.290048">
  <ele>357.95</ele>
  <time>2026-09-01T19:50:56Z</time>
  <course>248.76</course>
  <speed>0.3101612483854165</speed>
  <fix>3d</fix>
</trkpt>
<trkpt lat="-27.2744276" lon="151.2900475">
  <ele>358.13</ele>
  <time>2026-09-01T19:50:56Z</time>
  <course>105.43</course>
  <speed>0.29</speed>
  <fix>3d</fix>
</trkpt>
<trkpt lat="-27.2744281" lon="151.2900483">
  <ele>357.95</ele>
  <time>2026-09-01T19:50:56Z</time>
  <course>248.83</course>
  <speed>0.28653097563788804</speed>
  <fix>3d</fix>
</trkpt>
<trkpt lat="-27.2744278" lon="151.2900482">
  <ele>358.13</ele>
  <time>2026-09-01T19:50:56Z</time>
  <course>109.78</course>
  <speed>0.3</speed>
  <fix>3d</fix>
</trkpt>
<trkpt lat="-27.2744282" lon="151.2900486">
  <ele>357.96</ele>
  <time>2026-09-01T19:50:56Z</time>
  <course>248.79</course>
  <speed>0.261725046566048</speed>
  <fix>3d</fix>
</trkpt>
<trkpt lat="-27.2744278" lon="151.2900482">
  <ele>358.13</ele>
  <time>2026-09-01T19:50:56Z</time>
  <course>109.78</course>
  <speed>0.3</speed>
  <fix>3d</fix>
</trkpt>
<trkpt lat="-27.2744284" lon="151.2900487">
  <ele>357.95</ele>
  <time>2026-09-01T19:50:56Z</time>
  <course>248.75</course>
  <speed>0.25553864678361277</speed>
  <fix>3d</fix>
</trkpt>
<trkpt lat="-27.274428" lon="151.2900487">
  <ele>358.13</ele>
  <time>2026-09-01T19:50:56Z</time>
  <course>127.27</course>
  <speed>0.26</speed>
  <fix>3d</fix>
</trkpt>
<trkpt lat="-27.2744286" lon="151.2900488">
  <ele>357.95</ele>
  <time>2026-09-01T19:50:56Z</time>
  <course>248.72</course>
  <speed>0.26570660511172844</speed>
  <fix>3d</fix>
</trkpt>
<trkpt lat="-27.274428" lon="151.2900487">
  <ele>358.13</ele>
  <time>2026-09-01T19:50:56Z</time>
  <course>127.27</course>
  <speed>0.26</speed>
  <fix>3d</fix>
</trkpt>
<trkpt lat="-27.2744288" lon="151.2900489">
  <ele>357.96</ele>
  <time>2026-09-01T19:50:56Z</time>
  <course>248.72</course>
  <speed>0.27892651361962706</speed>
  <fix>3d</fix>
</trkpt>
<trkpt lat="-27.2744284" lon="151.290049">
  <ele>358.13</ele>
  <time>2026-09-01T19:50:56Z</time>
  <course>152.01</course>
  <speed>0.25</speed>
  <fix>3d</fix>
</trkpt>
<trkpt lat="-27.274429" lon="151.290049">
  <ele>357.96</ele>
  <time>2026-09-01T19:50:56Z</time>
  <course>248.74</course>
  <speed>0.29832867780352595</speed>
  <fix>3d</fix>
</trkpt>
<trkpt lat="-27.2744284" lon="151.290049">
  <ele>358.13</ele>
  <time>2026-09-01T19:50:56Z</time>
  <course>152.01</course>
  <speed>0.25</speed>
  <fix>3d</fix>
</trkpt>
<trkpt lat="-27.2744292" lon="151.2900491">
  <ele>357.96</ele>
  <time>2026-09-01T19:50:56Z</time>
  <course>248.77</course>
  <speed>0.3080584360149873</speed>
  <fix>3d</fix>
</trkpt>
<trkpt lat="-27.2744288" lon="151.2900492">
  <ele>358.14</ele>
  <time>2026-09-01T19:50:56Z</time>
  <course>161.09</course>
  <speed>0.28</speed>
  <fix>3d</fix>
</trkpt>
<trkpt lat="-27.2744295" lon="151.2900492">
  <ele>357.96</ele>
  <time>2026-09-01T19:50:56Z</time>
  <course>248.81</course>
  <speed>0.32015621187164245</speed>
  <fix>3d</fix>
</trkpt>
<trkpt lat="-27.2744288" lon="151.2900492">
  <ele>358.14</ele>
  <time>2026-09-01T19:50:56Z</time>
  <course>161.09</course>
  <speed>0.28</speed>
  <fix>3d</fix>
</trkpt>
<trkpt lat="-27.2744298" lon="151.2900493">
  <ele>357.96</ele>
  <time>2026-09-01T19:50:56Z</time>
  <course>248.84</course>
  <speed>0.33241540277189324</speed>
  <fix>3d</fix>
</trkpt>
<trkpt lat="-27.2744293" lon="151.2900493">
  <ele>358.14</ele>
  <time>2026-09-01T19:50:56Z</time>
  <course>161.9</course>
  <speed>0.3</speed>
  <fix>3d</fix>
</trkpt>
<trkpt lat="-27.27443" lon="151.2900494">
  <ele>357.96</ele>
  <time>2026-09-01T19:50:56Z</time>
  <course>248.79</course>
  <speed>0.3417601498127012</speed>
  <fix>3d</fix>
</trkpt>
<trkpt lat="-27.2744293" lon="151.2900493">
  <ele>358.14</ele>
  <time>2026-09-01T19:50:56Z</time>
  <course>161.9</course>
  <speed>0.3</speed>
  <fix>3d</fix>
</trkpt>
<trkpt lat="-27.2744303" lon="151.2900496">
  <ele>357.95</ele>
  <time>2026-09-01T19:50:56Z</time>
  <course>248.78</course>
  <speed>0.3661966684720111</speed>
  <fix>3d</fix>
</trkpt>
<trkpt lat="-27.2744298" lon="151.2900496">
  <ele>358.13</ele>
  <time>2026-09-01T19:50:56Z</time>
  <course>151.41</course>
  <speed>0.33</speed>
  <fix>3d</fix>
</trkpt>
<trkpt lat="-27.2744305" lon="151.2900499">
  <ele>357.95</ele>
  <time>2026-09-01T19:50:56Z</time>
  <course>248.77</course>
  <speed>0.40311288741492746</speed>
  <fix>3d</fix>
</trkpt>
<trkpt lat="-27.2744298" lon="151.2900496">
  <ele>358.13</ele>
  <time>2026-09-01T19:50:56Z</time>
  <course>151.41</course>
  <speed>0.33</speed>
  <fix>3d</fix>
</trkpt>
<trkpt lat="-27.2744308" lon="151.2900502">
  <ele>357.95</ele>
  <time>2026-09-01T19:50:56Z</time>
  <course>248.74</course>
  <speed>0.425205832509386</speed>
  <fix>3d</fix>
</trkpt>
<trkpt lat="-27.2744303" lon="151.29005">
  <ele>358.13</ele>
  <time>2026-09-01T19:50:56Z</time>
  <course>134.8</course>
  <speed>0.39</speed>
  <fix>3d</fix>
</trkpt>
<trkpt lat="-27.274431" lon="151.2900506">
  <ele>357.96</ele>
  <time>2026-09-01T19:50:56Z</time>
  <course>248.7</course>
  <speed>0.44045431091090476</speed>
  <fix>3d</fix>
</trkpt>
<trkpt lat="-27.2744303" lon="151.29005">
  <ele>358.13</ele>
  <time>2026-09-01T19:50:56Z</time>
  <course>134.8</course>
  <speed>0.39</speed>
  <fix>3d</fix>
</trkpt>
<trkpt lat="-27.2744313" lon="151.2900509">
  <ele>357.96</ele>
  <time>2026-09-01T19:50:56Z</time>
  <course>248.66</course>
  <speed>0.45453272709454046</speed>
  <fix>3d</fix>
</trkpt>
<trkpt lat="-27.2744308" lon="151.2900507">
  <ele>358.13</ele>
  <time>2026-09-01T19:50:56Z</time>
  <course>127.46</course>
  <speed>0.44</speed>
  <fix>3d</fix>
</trkpt>
<trkpt lat="-27.2744315" lon="151.2900513">
  <ele>357.96</ele>
  <time>2026-09-01T19:50:56Z</time>
  <course>248.62</course>
  <speed>0.4609772228646444</speed>
  <fix>3d</fix>
</trkpt>
<trkpt lat="-27.2744308" lon="151.2900507">
  <ele>358.13</ele>
  <time>2026-09-01T19:50:56Z</time>
  <course>127.46</course>
  <speed>0.44</speed>
  <fix>3d</fix>
</trkpt>
<trkpt lat="-27.2744318" lon="151.2900517">
  <ele>357.95</ele>
  <time>2026-09-01T19:50:56Z</time>
  <course>248.59</course>
  <speed>0.46010868281309364</speed>
  <fix>3d</fix>
</trkpt>
<trkpt lat="-27.2744313" lon="151.2900514">
  <ele>358.14</ele>
  <time>2026-09-01T19:50:56Z</time>
  <course>128.03</course>
  <speed>0.46</speed>
  <fix>3d</fix>
</trkpt>
<trkpt lat="-27.274432" lon="151.290052">
  <ele>357.96</ele>
  <time>2026-09-01T19:50:56Z</time>
  <course>248.62</course>
  <speed>0.45343136195018535</speed>
  <fix>3d</fix>
</trkpt>
<trkpt lat="-27.2744313" lon="151.2900514">
  <ele>358.14</ele>
  <time>2026-09-01T19:50:56Z</time>
  <course>128.03</course>
  <speed>0.46</speed>
  <fix>3d</fix>
</trkpt>
<trkpt lat="-27.2744323" lon="151.2900523">
  <ele>357.96</ele>
  <time>2026-09-01T19:50:56Z</time>
  <course>248.58</course>
  <speed>0.442944691807002</speed>
  <fix>3d</fix>
</trkpt>
<trkpt lat="-27.2744319" lon="151.2900521">
  <ele>358.14</ele>
  <time>2026-09-01T19:50:56Z</time>
  <course>138.07</course>
  <speed>0.44</speed>
  <fix>3d</fix>
</trkpt>
<trkpt lat="-27.2744327" lon="151.2900524">
  <ele>357.96</ele>
  <time>2026-09-01T19:50:56Z</time>
  <course>248.54</course>
  <speed>0.43965895873961214</speed>
  <fix>3d</fix>
</trkpt>
<trkpt lat="-27.2744319" lon="151.2900521">
  <ele>358.14</ele>
  <time>2026-09-01T19:50:56Z</time>
  <course>138.07</course>
  <speed>0.44</speed>
  <fix>3d</fix>
</trkpt>
<trkpt lat="-27.2744331" lon="151.2900526">
  <ele>357.96</ele>
  <time>2026-09-01T19:50:56Z</time>
  <course>248.52</course>
  <speed>0.4589117562233506</speed>
  <fix>3d</fix>
</trkpt>
<trkpt lat="-27.2744325" lon="151.2900526">
  <ele>358.14</ele>
  <time>2026-09-01T19:50:56Z</time>
  <course>156.31</course>
  <speed>0.43</speed>
  <fix>3d</fix>
</trkpt>
<trkpt lat="-27.2744334" lon="151.2900527">
  <ele>357.96</ele>
  <time>2026-09-01T19:50:56Z</time>
  <course>248.54</course>
  <speed>0.46529560496527367</speed>
  <fix>3d</fix>
</trkpt>
<trkpt lat="-27.2744325" lon="151.2900526">
  <ele>358.14</ele>
  <time>2026-09-01T19:50:56Z</time>
  <course>156.31</course>
  <speed>0.43</speed>
  <fix>3d</fix>
</trkpt>
<trkpt lat="-27.2744338" lon="151.2900528">
  <ele>357.96</ele>
  <time>2026-09-01T19:50:56Z</time>
  <course>248.59</course>
  <speed>0.48373546489791297</speed>
  <fix>3d</fix>
</trkpt>
<trkpt lat="-27.2744333" lon="151.2900528">
  <ele>358.14</ele>
  <time>2026-09-01T19:50:56Z</time>
  <course>167.42</course>
  <speed>0.45</speed>
  <fix>3d</fix>
</trkpt>
<trkpt lat="-27.2744343" lon="151.2900528">
  <ele>357.96</ele>
  <time>2026-09-01T19:50:56Z</time>
  <course>248.66</course>
  <speed>0.4936598018878993</speed>
  <fix>3d</fix>
</trkpt>
<trkpt lat="-27.2744333" lon="151.2900528">
  <ele>358.14</ele>
  <time>2026-09-01T19:50:56Z</time>
  <course>167.42</course>
  <speed>0.45</speed>
  <fix>3d</fix>
</trkpt>
<trkpt lat="-27.2744347" lon="151.2900529">
  <ele>357.96</ele>
  <time>2026-09-01T19:50:56Z</time>
  <course>248.73</course>
  <speed>0.4936598018878993</speed>
  <fix>3d</fix>
</trkpt>
<trkpt lat="-27.2744341" lon="151.290053">
  <ele>358.14</ele>
  <time>2026-09-01T19:50:56Z</time>
  <course>170.09</course>
  <speed>0.47</speed>
  <fix>3d</fix>
</trkpt>
<trkpt lat="-27.2744351" lon="151.290053">
  <ele>357.96</ele>
  <time>2026-09-01T19:50:56Z</time>
  <course>248.79</course>
  <speed>0.5048762224545735</speed>
  <fix>3d</fix>
</trkpt>
<trkpt lat="-27.2744341" lon="151.290053">
  <ele>358.14</ele>
  <time>2026-09-01T19:50:56Z</time>
  <course>170.09</course>
  <speed>0.47</speed>
  <fix>3d</fix>
</trkpt>
<trkpt lat="-27.2744355" lon="151.2900531">
  <ele>357.95</ele>
  <time>2026-09-01T19:50:56Z</time>
  <course>248.8</course>
  <speed>0.5080354318352215</speed>
  <fix>3d</fix>
</trkpt>
<trkpt lat="-27.2744349" lon="151.2900532">
  <ele>358.14</ele>
  <time>2026-09-01T19:50:56Z</time>
  <course>169.22</course>
  <speed>0.48</speed>
  <fix>3d</fix>
</trkpt>
<trkpt lat="-27.2744359" lon="151.2900533">
  <ele>357.95</ele>
  <time>2026-09-01T19:50:56Z</time>
  <course>248.8</course>
  <speed>0.5032891812864648</speed>
  <fix>3d</fix>
</trkpt>
<trkpt lat="-27.2744349" lon="151.2900532">
  <ele>358.14</ele>
  <time>2026-09-01T19:50:56Z</time>
  <course>169.22</course>
  <speed>0.48</speed>
  <fix>3d</fix>
</trkpt>
<trkpt lat="-27.2744363" lon="151.2900535">
  <ele>357.95</ele>
  <time>2026-09-01T19:50:56Z</time>
  <course>248.79</course>
  <speed>0.51</speed>
  <fix>3d</fix>
</trkpt>
<trkpt lat="-27.2744358" lon="151.2900535">
  <ele>358.13</ele>
  <time>2026-09-01T19:50:56Z</time>
  <course>158.96</course>
  <speed>0.48</speed>
  <fix>3d</fix>
</trkpt>
<trkpt lat="-27.2744367" lon="151.2900538">
  <ele>357.95</ele>
  <time>2026-09-01T19:50:56Z</time>
  <course>248.75</course>
  <speed>0.5162363799656123</speed>
  <fix>3d</fix>
</trkpt>
<trkpt lat="-27.2744358" lon="151.2900535">
  <ele>358.13</ele>
  <time>2026-09-01T19:50:56Z</time>
  <course>158.96</course>
  <speed>0.48</speed>
  <fix>3d</fix>
</trkpt>
<trkpt lat="-27.2744371" lon="151.2900541">
  <ele>357.96</ele>
  <time>2026-09-01T19:50:56Z</time>
  <course>248.71</course>
  <speed>0.5269724850502159</speed>
  <fix>3d</fix>
</trkpt>
<trkpt lat="-27.2744366" lon="151.2900539">
  <ele>358.13</ele>
  <time>2026-09-01T19:50:56Z</time>
  <course>147.02</course>
  <speed>0.5</speed>
  <fix>3d</fix>
</trkpt>
<trkpt lat="-27.2744375" lon="151.2900544">
  <ele>357.96</ele>
  <time>2026-09-01T19:50:56Z</time>
  <course>248.66</course>
  <speed>0.5269724850502159</speed>
  <fix>3d</fix>
</trkpt>
<trkpt lat="-27.2744366" lon="151.2900539">
  <ele>358.13</ele>
  <time>2026-09-01T19:50:56Z</time>
  <course>147.02</course>
  <speed>0.5</speed>
  <fix>3d</fix>
</trkpt>
<trkpt lat="-27.2744379" lon="151.2900547">
  <ele>357.96</ele>
  <time>2026-09-01T19:50:56Z</time>
  <course>248.63</course>
  <speed>0.53</speed>
  <fix>3d</fix>
</trkpt>
<trkpt lat="-27.2744373" lon="151.2900545">
  <ele>358.14</ele>
  <time>2026-09-01T19:50:56Z</time>
  <course>144.72</course>
  <speed>0.51</speed>
  <fix>3d</fix>
</trkpt>
<trkpt lat="-27.2744383" lon="151.290055">
  <ele>357.96</ele>
  <time>2026-09-01T19:50:56Z</time>
  <course>248.6</course>
  <speed>0.5283937925449163</speed>
  <fix>3d</fix>
</trkpt>
<trkpt lat="-27.2744373" lon="151.2900545">
  <ele>358.14</ele>
  <time>2026-09-01T19:50:56Z</time>
  <course>144.72</course>
  <speed>0.51</speed>
  <fix>3d</fix>
</trkpt>
<trkpt lat="-27.2744387" lon="151.2900552">
  <ele>357.96</ele>
  <time>2026-09-01T19:50:56Z</time>
  <course>248.6</course>
  <speed>0.5232590180780452</speed>
  <fix>3d</fix>
</trkpt>
<trkpt lat="-27.2744381" lon="151.2900551">
  <ele>358.14</ele>
  <time>2026-09-01T19:50:56Z</time>
  <course>148.06</course>
  <speed>0.51</speed>
  <fix>3d</fix>
</trkpt>
<trkpt lat="-27.2744391" lon="151.2900554">
  <ele>357.95</ele>
  <time>2026-09-01T19:50:56Z</time>
  <course>248.59</course>
  <speed>0.5288667128870941</speed>
  <fix>3d</fix>
</trkpt>
<trkpt lat="-27.2744381" lon="151.2900551">
  <ele>358.14</ele>
  <time>2026-09-01T19:50:56Z</time>
  <course>148.06</course>
  <speed>0.51</speed>
  <fix>3d</fix>
</trkpt>
<trkpt lat="-27.2744396" lon="151.2900556">
  <ele>357.95</ele>
  <time>2026-09-01T19:50:56Z</time>
  <course>248.55</course>
  <speed>0.5445181356024793</speed>
  <fix>3d</fix>
</trkpt>
<trkpt lat="-27.2744389" lon="151.2900556">
  <ele>358.14</ele>
  <time>2026-09-01T19:50:56Z</time>
  <course>160.22</course>
  <speed>0.51</speed>
  <fix>3d</fix>
</trkpt>
<trkpt lat="-27.27444" lon="151.2900556">
  <ele>357.95</ele>
  <time>2026-09-01T19:50:56Z</time>
  <course>248.54</course>
  <speed>0.5608029957123981</speed>
  <fix>3d</fix>
</trkpt>
<trkpt lat="-27.2744389" lon="151.2900556">
  <ele>358.14</ele>
  <time>2026-09-01T19:50:56Z</time>
  <course>160.22</course>
  <speed>0.51</speed>
  <fix>3d</fix>
</trkpt>
<trkpt lat="-27.2744405" lon="151.2900557">
  <ele>357.95</ele>
  <time>2026-09-01T19:50:56Z</time>
  <course>248.55</course>
  <speed>0.570087712549569</speed>
  <fix>3d</fix>
</trkpt>
<trkpt lat="-27.2744399" lon="151.2900558">
  <ele>358.14</ele>
  <time>2026-09-01T19:50:56Z</time>
  <course>173.54</course>
  <speed>0.53</speed>
  <fix>3d</fix>
</trkpt>
<trkpt lat="-27.274441" lon="151.2900557">
  <ele>357.95</ele>
  <time>2026-09-01T19:50:56Z</time>
  <course>248.59</course>
  <speed>0.57</speed>
  <fix>3d</fix>
</trkpt>
<trkpt lat="-27.2744399" lon="151.2900558">
  <ele>358.14</ele>
  <time>2026-09-01T19:50:56Z</time>
  <course>173.54</course>
  <speed>0.53</speed>
  <fix>3d</fix>
</trkpt>
<trkpt lat="-27.2744415" lon="151.2900557">
  <ele>357.95</ele>
  <time>2026-09-01T19:50:56Z</time>
  <course>248.65</course>
  <speed>0.58</speed>
  <fix>3d</fix>
</trkpt>
<trkpt lat="-27.2744408" lon="151.2900559">
  <ele>358.14</ele>
  <time>2026-09-01T19:50:56Z</time>
  <course>178.6</course>
  <speed>0.54</speed>
  <fix>3d</fix>
</trkpt>
<trkpt lat="-27.274442" lon="151.2900557">
  <ele>357.95</ele>
  <time>2026-09-01T19:50:56Z</time>
  <course>248.71</course>
  <speed>0.58</speed>
  <fix>3d</fix>
</trkpt>
<trkpt lat="-27.2744408" lon="151.2900559">
  <ele>358.14</ele>
  <time>2026-09-01T19:50:56Z</time>
  <course>178.6</course>
  <speed>0.54</speed>
  <fix>3d</fix>
</trkpt>
<trkpt lat="-27.2744425" lon="151.2900557">
  <ele>357.95</ele>
  <time>2026-09-01T19:50:56Z</time>
  <course>248.77</course>
  <speed>0.57</speed>
  <fix>3d</fix>
</trkpt>
<trkpt lat="-27.2744418" lon="151.2900559">
  <ele>358.14</ele>
  <time>2026-09-01T19:50:56Z</time>
  <course>179.81</course>
  <speed>0.54</speed>
  <fix>3d</fix>
</trkpt>
<trkpt lat="-27.274443" lon="151.2900557">
  <ele>357.95</ele>
  <time>2026-09-01T19:50:56Z</time>
  <course>248.81</course>
  <speed>0.57</speed>
  <fix>3d</fix>
</trkpt>
<trkpt lat="-27.2744418" lon="151.2900559">
  <ele>358.14</ele>
  <time>2026-09-01T19:50:56Z</time>
  <course>179.81</course>
  <speed>0.54</speed>
  <fix>3d</fix>
</trkpt>
<trkpt lat="-27.2744435" lon="151.2900558">
  <ele>357.95</ele>
  <time>2026-09-01T19:50:56Z</time>
  <course>248.84</course>
  <speed>0.5360037313302959</speed>
  <fix>3d</fix>
</trkpt>
<trkpt lat="-27.2744428" lon="151.2900559">
  <ele>358.14</ele>
  <time>2026-09-01T19:50:56Z</time>
  <course>175.39</course>
  <speed>0.53</speed>
  <fix>3d</fix>
</trkpt>
<trkpt lat="-27.2744439" lon="151.2900559">
  <ele>357.95</ele>
  <time>2026-09-01T19:50:56Z</time>
  <course>248.83</course>
  <speed>0.5255473337388366</speed>
  <fix>3d</fix>
</trkpt>
<trkpt lat="-27.2744428" lon="151.2900559">
  <ele>358.14</ele>
  <time>2026-09-01T19:50:56Z</time>
  <course>175.39</course>
  <speed>0.53</speed>
  <fix>3d</fix>
</trkpt>
<trkpt lat="-27.2744443" lon="151.2900562">
  <ele>357.95</ele>
  <time>2026-09-01T19:50:56Z</time>
  <course>248.8</course>
  <speed>0.523545604508337</speed>
  <fix>3d</fix>
</trkpt>
<trkpt lat="-27.2744437" lon="151.2900561">
  <ele>358.14</ele>
  <time>2026-09-01T19:50:56Z</time>
  <course>159.93</course>
  <speed>0.5</speed>
  <fix>3d</fix>
</trkpt>
<trkpt lat="-27.2744447" lon="151.2900565">
  <ele>357.95</ele>
  <time>2026-09-01T19:50:56Z</time>
  <course>248.76</course>
  <speed>0.5269724850502159</speed>
  <fix>3d</fix>
</trkpt>
<trkpt lat="-27.2744437" lon="151.2900561">
  <ele>358.14</ele>
  <time>2026-09-01T19:50:56Z</time>
  <course>159.93</course>
  <speed>0.5</speed>
  <fix>3d</fix>
</trkpt>
<trkpt lat="-27.274445" lon="151.2900568">
  <ele>357.95</ele>
  <time>2026-09-01T19:50:56Z</time>
  <course>248.72</course>
  <speed>0.5243090691567331</speed>
  <fix>3d</fix>
</trkpt>
<trkpt lat="-27.2744445" lon="151.2900566">
  <ele>358.14</ele>
  <time>2026-09-01T19:50:56Z</time>
  <course>145.71</course>
  <speed>0.51</speed>
  <fix>3d</fix>
</trkpt>
<trkpt lat="-27.2744454" lon="151.2900571">
  <ele>357.95</ele>
  <time>2026-09-01T19:50:56Z</time>
  <course>248.69</course>
  <speed>0.5243090691567331</speed>
  <fix>3d</fix>
</trkpt>
<trkpt lat="-27.2744445" lon="151.2900566">
  <ele>358.14</ele>
  <time>2026-09-01T19:50:56Z</time>
  <course>145.71</course>
  <speed>0.51</speed>
  <fix>3d</fix>
</trkpt>
<trkpt lat="-27.2744458" lon="151.2900574">
  <ele>357.95</ele>
  <time>2026-09-01T19:50:56Z</time>
  <course>248.66</course>
  <speed>0.5186520991955976</speed>
  <fix>3d</fix>
</trkpt>
<trkpt lat="-27.2744452" lon="151.2900571">
  <ele>358.14</ele>
  <time>2026-09-01T19:50:56Z</time>
  <course>142.6</course>
  <speed>0.51</speed>
  <fix>3d</fix>
</trkpt>
<trkpt lat="-27.2744461" lon="151.2900577">
  <ele>357.95</ele>
  <time>2026-09-01T19:50:56Z</time>
  <course>248.65</course>
  <speed>0.5131276644267</speed>
  <fix>3d</fix>
</trkpt>
<trkpt lat="-27.2744452" lon="151.2900571">
  <ele>358.14</ele>
  <time>2026-09-01T19:50:56Z</time>
  <course>142.6</course>
  <speed>0.51</speed>
  <fix>3d</fix>
</trkpt>
<trkpt lat="-27.2744465" lon="151.290058">
  <ele>357.95</ele>
  <time>2026-09-01T19:50:56Z</time>
  <course>248.63</course>
  <speed>0.49648766349225637</speed>
  <fix>3d</fix>
</trkpt>
<trkpt lat="-27.274446" lon="151.2900578">
  <ele>358.14</ele>
  <time>2026-09-01T19:50:56Z</time>
  <course>145.54</course>
  <speed>0.49</speed>
  <fix>3d</fix>
</trkpt>
<trkpt lat="-27.2744469" lon="151.2900582">
  <ele>357.95</ele>
  <time>2026-09-01T19:50:56Z</time>
  <course>248.62</course>
  <speed>0.4876474136094644</speed>
  <fix>3d</fix>
</trkpt>
<trkpt lat="-27.274446" lon="151.2900578">
  <ele>358.14</ele>
  <time>2026-09-01T19:50:56Z</time>
  <course>145.54</course>
  <speed>0.49</speed>
  <fix>3d</fix>
</trkpt>
<trkpt lat="-27.2744473" lon="151.2900583">
  <ele>357.95</ele>
  <time>2026-09-01T19:50:56Z</time>
  <course>248.62</course>
  <speed>0.4949747468305833</speed>
  <fix>3d</fix>
</trkpt>
<trkpt lat="-27.2744467" lon="151.2900582">
  <ele>358.15</ele>
  <time>2026-09-01T19:50:56Z</time>
  <course>158.9</course>
  <speed>0.46</speed>
  <fix>3d</fix>
</trkpt>
<trkpt lat="-27.2744477" lon="151.2900583">
  <ele>357.95</ele>
  <time>2026-09-01T19:50:56Z</time>
  <course>248.63</course>
  <speed>0.5003998401278722</speed>
  <fix>3d</fix>
</trkpt>
<trkpt lat="-27.2744467" lon="151.2900582">
  <ele>358.15</ele>
  <time>2026-09-01T19:50:56Z</time>
  <course>158.9</course>
  <speed>0.46</speed>
  <fix>3d</fix>
</trkpt>
<trkpt lat="-27.2744482" lon="151.2900583">
  <ele>357.95</ele>
  <time>2026-09-01T19:50:56Z</time>
  <course>248.66</course>
  <speed>0.5</speed>
  <fix>3d</fix>
</trkpt>
<trkpt lat="-27.2744475" lon="151.2900584">
  <ele>358.15</ele>
  <time>2026-09-01T19:50:56Z</time>
  <course>174.33</course>
  <speed>0.47</speed>
  <fix>3d</fix>
</trkpt>
<trkpt lat="-27.2744486" lon="151.2900583">
  <ele>357.96</ele>
  <time>2026-09-01T19:50:56Z</time>
  <course>248.71</course>
  <speed>0.5000999900019995</speed>
  <fix>3d</fix>
</trkpt>
<trkpt lat="-27.2744475" lon="151.2900584">
  <ele>358.15</ele>
  <time>2026-09-01T19:50:56Z</time>
  <course>174.33</course>
  <speed>0.47</speed>
  <fix>3d</fix>
</trkpt>
<trkpt lat="-27.274449" lon="151.2900583">
  <ele>357.96</ele>
  <time>2026-09-01T19:50:56Z</time>
  <course>248.77</course>
  <speed>0.5003998401278722</speed>
  <fix>3d</fix>
</trkpt>
<trkpt lat="-27.2744484" lon="151.2900584">
  <ele>358.15</ele>
  <time>2026-09-01T19:50:56Z</time>
  <course>180.51</course>
  <speed>0.47</speed>
  <fix>3d</fix>
</trkpt>
<trkpt lat="-27.2744494" lon="151.2900583">
  <ele>357.95</ele>
  <time>2026-09-01T19:50:56Z</time>
  <course>248.83</course>
  <speed>0.4909175083453431</speed>
  <fix>3d</fix>
</trkpt>
<trkpt lat="-27.2744484" lon="151.2900584">
  <ele>358.15</ele>
  <time>2026-09-01T19:50:56Z</time>
  <course>180.51</course>
  <speed>0.47</speed>
  <fix>3d</fix>
</trkpt>
<trkpt lat="-27.2744498" lon="151.2900583">
  <ele>357.95</ele>
  <time>2026-09-01T19:50:56Z</time>
  <course>248.89</course>
  <speed>0.480936586256442</speed>
  <fix>3d</fix>
</trkpt>
<trkpt lat="-27.2744493" lon="151.2900584">
  <ele>358.15</ele>
  <time>2026-09-01T19:50:56Z</time>
  <course>182.45</course>
  <speed>0.46</speed>
  <fix>3d</fix>
</trkpt>
<trkpt lat="-27.2744502" lon="151.2900583">
  <ele>357.95</ele>
  <time>2026-09-01T19:50:56Z</time>
  <course>248.94</course>
  <speed>0.470425339453563</speed>
  <fix>3d</fix>
</trkpt>
<trkpt lat="-27.2744493" lon="151.2900584">
  <ele>358.15</ele>
  <time>2026-09-01T19:50:56Z</time>
  <course>182.45</course>
  <speed>0.46</speed>
  <fix>3d</fix>
</trkpt>
<trkpt lat="-27.2744506" lon="151.2900583">
  <ele>357.95</ele>
  <time>2026-09-01T19:50:56Z</time>
  <course>249.01</course>
  <speed>0.43289721643826723</speed>
  <fix>3d</fix>
</trkpt>
<trkpt lat="-27.2744501" lon="151.2900584">
  <ele>358.15</ele>
  <time>2026-09-01T19:50:56Z</time>
  <course>177.43</course>
  <speed>0.43</speed>
  <fix>3d</fix>
</trkpt>
<trkpt lat="-27.274451" lon="151.2900584">
  <ele>357.95</ele>
  <time>2026-09-01T19:50:56Z</time>
  <course>249.01</course>
  <speed>0.41231056256176607</speed>
  <fix>3d</fix>
</trkpt>
<trkpt lat="-27.2744501" lon="151.2900584">
  <ele>358.15</ele>
  <time>2026-09-01T19:50:56Z</time>
  <course>177.43</course>
  <speed>0.43</speed>
  <fix>3d</fix>
</trkpt>
<trkpt lat="-27.2744513" lon="151.2900586">
  <ele>357.95</ele>
  <time>2026-09-01T19:50:56Z</time>
  <course>248.99</course>
  <speed>0.41048751503547587</speed>
  <fix>3d</fix>
</trkpt>
<trkpt lat="-27.2744508" lon="151.2900586">
  <ele>358.15</ele>
  <time>2026-09-01T19:50:56Z</time>
  <course>157.42</course>
  <speed>0.39</speed>
  <fix>3d</fix>
</trkpt>
<trkpt lat="-27.2744515" lon="151.2900589">
  <ele>357.95</ele>
  <time>2026-09-01T19:50:56Z</time>
  <course>248.96</course>
  <speed>0.41109609582188933</speed>
  <fix>3d</fix>
</trkpt>
<trkpt lat="-27.2744508" lon="151.2900586">
  <ele>358.15</ele>
  <time>2026-09-01T19:50:56Z</time>
  <course>157.42</course>
  <speed>0.39</speed>
  <fix>3d</fix>
</trkpt>
<trkpt lat="-27.2744518" lon="151.2900592">
  <ele>357.95</ele>
  <time>2026-09-01T19:50:56Z</time>
  <course>248.91</course>
  <speed>0.41012193308819755</speed>
  <fix>3d</fix>
</trkpt>
<trkpt lat="-27.2744513" lon="151.2900591">
  <ele>358.15</ele>
  <time>2026-09-01T19:50:56Z</time>
  <course>137.23</course>
  <speed>0.4</speed>
  <fix>3d</fix>
</trkpt>
<trkpt lat="-27.274452" lon="151.2900595">
  <ele>357.95</ele>
  <time>2026-09-01T19:50:56Z</time>
  <course>248.87</course>
  <speed>0.41036569057366384</speed>
  <fix>3d</fix>
</trkpt>
<trkpt lat="-27.2744513" lon="151.2900591">
  <ele>358.15</ele>
  <time>2026-09-01T19:50:56Z</time>
  <course>137.23</course>
  <speed>0.4</speed>
  <fix>3d</fix>
</trkpt>
<trkpt lat="-27.2744522" lon="151.2900598">
  <ele>357.95</ele>
  <time>2026-09-01T19:50:56Z</time>
  <course>248.84</course>
  <speed>0.396232255123179</speed>
  <fix>3d</fix>
</trkpt>
<trkpt lat="-27.2744518" lon="151.2900596">
  <ele>358.15</ele>
  <time>2026-09-01T19:50:56Z</time>
  <course>129.95</course>
  <speed>0.4</speed>
  <fix>3d</fix>
</trkpt>
<trkpt lat="-27.2744524" lon="151.2900601">
  <ele>357.94</ele>
  <time>2026-09-01T19:50:56Z</time>
  <course>248.81</course>
  <speed>0.38948684188300897</speed>
  <fix>3d</fix>
</trkpt>
<trkpt lat="-27.2744518" lon="151.2900596">
  <ele>358.15</ele>
  <time>2026-09-01T19:50:56Z</time>
  <course>129.95</course>
  <speed>0.4</speed>
  <fix>3d</fix>
</trkpt>
<trkpt lat="-27.2744527" lon="151.2900604">
  <ele>357.94</ele>
  <time>2026-09-01T19:50:56Z</time>
  <course>248.74</course>
  <speed>0.36069377593742863</speed>
  <fix>3d</fix>
</trkpt>
<trkpt lat="-27.2744523" lon="151.2900603">
  <ele>358.15</ele>
  <time>2026-09-01T19:50:56Z</time>
  <course>129.68</course>
  <speed>0.37</speed>
  <fix>3d</fix>
</trkpt>
<trkpt lat="-27.2744529" lon="151.2900606">
  <ele>357.94</ele>
  <time>2026-09-01T19:50:56Z</time>
  <course>248.73</course>
  <speed>0.32649655434629016</speed>
  <fix>3d</fix>
</trkpt>
<trkpt lat="-27.2744523" lon="151.2900603">
  <ele>358.15</ele>
  <time>2026-09-01T19:50:56Z</time>
  <course>129.68</course>
  <speed>0.37</speed>
  <fix>3d</fix>
</trkpt>
<trkpt lat="-27.2744531" lon="151.2900607">
  <ele>357.94</ele>
  <time>2026-09-01T19:50:56Z</time>
  <course>248.74</course>
  <speed>0.3178049716414141</speed>
  <fix>3d</fix>
</trkpt>
<trkpt lat="-27.2744527" lon="151.2900607">
  <ele>358.15</ele>
  <time>2026-09-01T19:50:56Z</time>
  <course>145.05</course>
  <speed>0.31</speed>
  <fix>3d</fix>
</trkpt>
<trkpt lat="-27.2744534" lon="151.2900608">
  <ele>357.94</ele>
  <time>2026-09-01T19:50:56Z</time>
  <course>248.77</course>
  <speed>0.31064449134018135</speed>
  <fix>3d</fix>
</trkpt>
<trkpt lat="-27.2744527" lon="151.2900607">
  <ele>358.15</ele>
  <time>2026-09-01T19:50:56Z</time>
  <course>145.05</course>
  <speed>0.31</speed>
  <fix>3d</fix>
</trkpt>
<trkpt lat="-27.2744536" lon="151.2900608">
  <ele>357.95</ele>
  <time>2026-09-01T19:50:56Z</time>
  <course>248.82</course>
  <speed>0.31</speed>
  <fix>3d</fix>
</trkpt>
<trkpt lat="-27.2744532" lon="151.2900609">
  <ele>358.15</ele>
  <time>2026-09-01T19:50:56Z</time>
  <course>169.96</course>
  <speed>0.28</speed>
  <fix>3d</fix>
</trkpt>
<trkpt lat="-27.2744539" lon="151.2900608">
  <ele>357.95</ele>
  <time>2026-09-01T19:50:56Z</time>
  <course>248.88</course>
  <speed>0.30066592756745814</speed>
  <fix>3d</fix>
</trkpt>
<trkpt lat="-27.2744532" lon="151.2900609">
  <ele>358.15</ele>
  <time>2026-09-01T19:50:56Z</time>
  <course>169.96</course>
  <speed>0.28</speed>
  <fix>3d</fix>
</trkpt>
<trkpt lat="-27.2744541" lon="151.2900608">
  <ele>357.95</ele>
  <time>2026-09-01T19:50:56Z</time>
  <course>248.94</course>
  <speed>0.3014962686336267</speed>
  <fix>3d</fix>
</trkpt>
<trkpt lat="-27.2744537" lon="151.2900609">
  <ele>358.16</ele>
  <time>2026-09-01T19:50:56Z</time>
  <course>181.36</course>
  <speed>0.27</speed>
  <fix>3d</fix>
</trkpt>
<trkpt lat="-27.2744544" lon="151.2900608">
  <ele>357.95</ele>
  <time>2026-09-01T19:50:56Z</time>
  <course>248.99</course>
  <speed>0.2816025568065745</speed>
  <fix>3d</fix>
</trkpt>
<trkpt lat="-27.2744537" lon="151.2900609">
  <ele>358.16</ele>
  <time>2026-09-01T19:50:56Z</time>
  <course>181.36</course>
  <speed>0.27</speed>
  <fix>3d</fix>
</trkpt>
<trkpt lat="-27.2744546" lon="151.2900608">
  <ele>357.95</ele>
  <time>2026-09-01T19:50:56Z</time>
  <course>249.03</course>
  <speed>0.27294688127912364</speed>
  <fix>3d</fix>
</trkpt>
<trkpt lat="-27.2744542" lon="151.2900609">
  <ele>358.16</ele>
  <time>2026-09-01T19:50:56Z</time>
  <course>185.84</course>
  <speed>0.25</speed>
  <fix>3d</fix>
</trkpt>
<trkpt lat="-27.2744548" lon="151.2900608">
  <ele>357.95</ele>
  <time>2026-09-01T19:50:56Z</time>
  <course>249.08</course>
  <speed>0.261725046566048</speed>
  <fix>3d</fix>
</trkpt>
<trkpt lat="-27.2744542" lon="151.2900609">
  <ele>358.16</ele>
  <time>2026-09-01T19:50:56Z</time>
  <course>185.84</course>
  <speed>0.25</speed>
  <fix>3d</fix>
</trkpt>
<trkpt lat="-27.274455" lon="151.2900608">
  <ele>357.95</ele>
  <time>2026-09-01T19:50:56Z</time>
  <course>249.19</course>
  <speed>0.21377558326431947</speed>
  <fix>3d</fix>
</trkpt>
<trkpt lat="-27.2744547" lon="151.2900609">
  <ele>358.16</ele>
  <time>2026-09-01T19:50:56Z</time>
  <course>178.05</course>
  <speed>0.21</speed>
  <fix>3d</fix>
</trkpt>
<trkpt lat="-27.2744551" lon="151.2900609">
  <ele>357.95</ele>
  <time>2026-09-01T19:50:56Z</time>
  <course>249.2</course>
  <speed>0.21213203435596426</speed>
  <fix>3d</fix>
</trkpt>
<trkpt lat="-27.2744547" lon="151.2900609">
  <ele>358.16</ele>
  <time>2026-09-01T19:50:56Z</time>
  <course>178.05</course>
  <speed>0.21</speed>
  <fix>3d</fix>
</trkpt>
<trkpt lat="-27.2744552" lon="151.2900611">
  <ele>357.95</ele>
  <time>2026-09-01T19:50:56Z</time>
  <course>249.17</course>
  <speed>0.26</speed>
  <fix>3d</fix>
</trkpt>
<trkpt lat="-27.2744549" lon="151.2900611">
  <ele>358.16</ele>
  <time>2026-09-01T19:50:56Z</time>
  <course>133.2</course>
  <speed>0.2</speed>
  <fix>3d</fix>
</trkpt>
<trkpt lat="-27.2744553" lon="151.2900614">
  <ele>357.95</ele>
  <time>2026-09-01T19:50:56Z</time>
  <course>249.13</course>
  <speed>0.29832867780352595</speed>
  <fix>3d</fix>
</trkpt>
<trkpt lat="-27.2744549" lon="151.2900611">
  <ele>358.16</ele>
  <time>2026-09-01T19:50:56Z</time>
  <course>133.2</course>
  <speed>0.2</speed>
  <fix>3d</fix>
</trkpt>
<trkpt lat="-27.2744553" lon="151.2900617">
  <ele>357.96</ele>
  <time>2026-09-01T19:50:56Z</time>
  <course>249.08</course>
  <speed>0.32249030993194194</speed>
  <fix>3d</fix>
</trkpt>
<trkpt lat="-27.2744551" lon="151.2900614">
  <ele>358.17</ele>
  <time>2026-09-01T19:50:56Z</time>
  <course>100.39</course>
  <speed>0.29</speed>
  <fix>3d</fix>
</trkpt>
<trkpt lat="-27.2744553" lon="151.290062">
  <ele>357.96</ele>
  <time>2026-09-01T19:50:56Z</time>
  <course>249.0</course>
  <speed>0.3306055050963308</speed>
  <fix>3d</fix>
</trkpt>
<trkpt lat="-27.2744551" lon="151.2900614">
  <ele>358.17</ele>
  <time>2026-09-01T19:50:56Z</time>
  <course>100.39</course>
  <speed>0.29</speed>
  <fix>3d</fix>
</trkpt>
<trkpt lat="-27.2744553" lon="151.2900624">
  <ele>357.96</ele>
  <time>2026-09-01T19:50:56Z</time>
  <course>248.93</course>
  <speed>0.33</speed>
  <fix>3d</fix>
</trkpt>
<trkpt lat="-27.2744552" lon="151.2900621">
  <ele>358.17</ele>
  <time>2026-09-01T19:50:56Z</time>
  <course>90.28</course>
  <speed>0.33</speed>
  <fix>3d</fix>
</trkpt>
<trkpt lat="-27.2744553" lon="151.2900627">
  <ele>357.96</ele>
  <time>2026-09-01T19:50:56Z</time>
  <course>248.86</course>
  <speed>0.33</speed>
  <fix>3d</fix>
</trkpt>
<trkpt lat="-27.2744552" lon="151.2900621">
  <ele>358.17</ele>
  <time>2026-09-01T19:50:56Z</time>
  <course>90.28</course>
  <speed>0.33</speed>
  <fix>3d</fix>
</trkpt>
<trkpt lat="-27.2744553" lon="151.2900631">
  <ele>357.96</ele>
  <time>2026-09-01T19:50:56Z</time>
  <course>248.75</course>
  <speed>0.30016662039607267</speed>
  <fix>3d</fix>
</trkpt>
<trkpt lat="-27.2744552" lon="151.2900628">
  <ele>358.17</ele>
  <time>2026-09-01T19:50:56Z</time>
  <course>84.93</course>
  <speed>0.33</speed>
  <fix>3d</fix>
</trkpt>
<trkpt lat="-27.2744553" lon="151.2900633">
  <ele>357.96</ele>
  <time>2026-09-01T19:50:56Z</time>
  <course>248.65</course>
  <speed>0.19026297590440447</speed>
  <fix>3d</fix>
</trkpt>
<trkpt lat="-27.2744552" lon="151.2900628">
  <ele>358.17</ele>
  <time>2026-09-01T19:50:56Z</time>
  <course>84.93</course>
  <speed>0.33</speed>
  <fix>3d</fix>
</trkpt>
<trkpt lat="-27.2744553" lon="151.2900634">
  <ele>357.96</ele>
  <time>2026-09-01T19:50:56Z</time>
  <course>248.64</course>
  <speed>0.08062257748298549</speed>
  <fix>3d</fix>
</trkpt>
<trkpt lat="-27.2744552" lon="151.2900634">
  <ele>358.17</ele>
  <time>2026-09-01T19:50:56Z</time>
  <course>85.95</course>
  <speed>0.2</speed>
  <fix>3d</fix>
</trkpt>
<trkpt lat="-27.2744553" lon="151.2900635">
  <ele>357.96</ele>
  <time>2026-09-01T19:50:56Z</time>
  <course>248.68</course>
  <speed>0.06</speed>
  <fix>3d</fix>
</trkpt>
<trkpt lat="-27.2744552" lon="151.2900634">
  <ele>358.17</ele>
  <time>2026-09-01T19:50:56Z</time>
  <course>85.95</course>
  <speed>0.2</speed>
  <fix>3d</fix>
</trkpt>
<trkpt lat="-27.2744553" lon="151.2900635">
  <ele>357.95</ele>
  <time>2026-09-01T19:50:56Z</time>
  <course>248.76</course>
  <speed>0.0848528137423857</speed>
  <fix>3d</fix>
</trkpt>
<trkpt lat="-27.2744552" lon="151.2900636">
  <ele>358.17</ele>
  <time>2026-09-01T19:50:56Z</time>
  <course>138.81</course>
  <speed>0.03</speed>
  <fix>3d</fix>
</trkpt>
<trkpt lat="-27.2744554" lon="151.2900634">
  <ele>357.95</ele>
  <time>2026-09-01T19:50:56Z</time>
  <course>248.85</course>
  <speed>0.10816653826391968</speed>
  <fix>3d</fix>
</trkpt>
<trkpt lat="-27.2744552" lon="151.2900636">
  <ele>358.17</ele>
  <time>2026-09-01T19:50:56Z</time>
  <course>138.81</course>
  <speed>0.03</speed>
  <fix>3d</fix>
</trkpt>
<trkpt lat="-27.2744554" lon="151.2900633">
  <ele>357.95</ele>
  <time>2026-09-01T19:50:56Z</time>
  <course>248.95</course>
  <speed>0.13</speed>
  <fix>3d</fix>
</trkpt>
<trkpt lat="-27.2744552" lon="151.2900636">
  <ele>358.17</ele>
  <time>2026-09-01T19:50:56Z</time>
  <course>248.92</course>
  <speed>0.08</speed>
  <fix>3d</fix>
</trkpt>
<trkpt lat="-27.2744554" lon="151.2900632">
  <ele>357.95</ele>
  <time>2026-09-01T19:50:56Z</time>
  <course>249.05</course>
  <speed>0.13601470508735444</speed>
  <fix>3d</fix>
</trkpt>
<trkpt lat="-27.2744552" lon="151.2900636">
  <ele>358.17</ele>
  <time>2026-09-01T19:50:56Z</time>
  <course>248.92</course>
  <speed>0.08</speed>
  <fix>3d</fix>
</trkpt>
<trkpt lat="-27.2744554" lon="151.290063">
  <ele>357.96</ele>
  <time>2026-09-01T19:50:56Z</time>
  <course>249.12</course>
  <speed>0.14317821063276354</speed>
  <fix>3d</fix>
</trkpt>
<trkpt lat="-27.2744552" lon="151.2900633">
  <ele>358.17</ele>
  <time>2026-09-01T19:50:56Z</time>
  <course>262.85</course>
  <speed>0.12</speed>
  <fix>3d</fix>
</trkpt>
<trkpt lat="-27.2744554" lon="151.2900629">
  <ele>357.96</ele>
  <time>2026-09-01T19:50:56Z</time>
  <course>249.17</course>
  <speed>0.1414213562373095</speed>
  <fix>3d</fix>
</trkpt>
<trkpt lat="-27.2744552" lon="151.2900633">
  <ele>358.17</ele>
  <time>2026-09-01T19:50:56Z</time>
  <course>262.85</course>
  <speed>0.12</speed>
  <fix>3d</fix>
</trkpt>
<trkpt lat="-27.2744554" lon="151.2900629">
  <ele>357.96</ele>
  <time>2026-09-01T19:50:56Z</time>
  <course>249.23</course>
  <speed>0.14</speed>
  <fix>3d</fix>
</trkpt>
<trkpt lat="-27.2744553" lon="151.2900631">
  <ele>358.17</ele>
  <time>2026-09-01T19:50:56Z</time>
  <course>274.67</course>
  <speed>0.13</speed>
  <fix>3d</fix>
</trkpt>
<trkpt lat="-27.2744554" lon="151.2900628">
  <ele>357.96</ele>
  <time>2026-09-01T19:50:56Z</time>
  <course>249.28</course>
  <speed>0.07211102550927978</speed>
  <fix>3d</fix>
</trkpt>
<trkpt lat="-27.2744553" lon="151.2900631">
  <ele>358.17</ele>
  <time>2026-09-01T19:50:56Z</time>
  <course>274.67</course>
  <speed>0.13</speed>
  <fix>3d</fix>
</trkpt>
<trkpt lat="-27.2744554" lon="151.2900628">
  <ele>357.96</ele>
  <time>2026-09-01T19:50:56Z</time>
  <course>249.28</course>
  <speed>0.0824621125123532</speed>
  <fix>3d</fix>
</trkpt>
<trkpt lat="-27.2744552" lon="151.2900629">
  <ele>358.17</ele>
  <time>2026-09-01T19:50:56Z</time>
  <course>320.88</course>
  <speed>0.09</speed>
  <fix>3d</fix>
</trkpt>
<trkpt lat="-27.2744553" lon="151.2900628">
  <ele>357.96</ele>
  <time>2026-09-01T19:50:56Z</time>
  <course>249.26</course>
  <speed>0.13892443989449804</speed>
  <fix>3d</fix>
</trkpt>
<trkpt lat="-27.2744552" lon="151.2900629">
  <ele>358.17</ele>
  <time>2026-09-01T19:50:56Z</time>
  <course>320.88</course>
  <speed>0.09</speed>
  <fix>3d</fix>
</trkpt>
<trkpt lat="-27.2744551" lon="151.2900629">
  <ele>357.96</ele>
  <time>2026-09-01T19:50:56Z</time>
  <course>249.23</course>
  <speed>0.18601075237738274</speed>
  <fix>3d</fix>
</trkpt>
<trkpt lat="-27.274455" lon="151.2900629">
  <ele>358.17</ele>
  <time>2026-09-01T19:50:56Z</time>
  <course>25.01</course>
  <speed>0.16</speed>
  <fix>3d</fix>
</trkpt>
<trkpt lat="-27.274455" lon="151.290063">
  <ele>357.96</ele>
  <time>2026-09-01T19:50:56Z</time>
  <course>249.2</course>
  <speed>0.21400934559032694</speed>
  <fix>3d</fix>
</trkpt>
<trkpt lat="-27.274455" lon="151.2900629">
  <ele>358.17</ele>
  <time>2026-09-01T19:50:56Z</time>
  <course>25.01</course>
  <speed>0.16</speed>
  <fix>3d</fix>
</trkpt>
<trkpt lat="-27.2744548" lon="151.2900631">
  <ele>357.96</ele>
  <time>2026-09-01T19:50:56Z</time>
  <course>249.18</course>
  <speed>0.23021728866442676</speed>
  <fix>3d</fix>
</trkpt>
<trkpt lat="-27.2744547" lon="151.2900632">
  <ele>358.17</ele>
  <time>2026-09-01T19:50:56Z</time>
  <course>32.96</course>
  <speed>0.24</speed>
  <fix>3d</fix>
</trkpt>
<trkpt lat="-27.2744546" lon="151.2900633">
  <ele>357.96</ele>
  <time>2026-09-01T19:50:56Z</time>
  <course>249.16</course>
  <speed>0.23853720883753127</speed>
  <fix>3d</fix>
</trkpt>
<trkpt lat="-27.2744547" lon="151.2900632">
  <ele>358.17</ele>
  <time>2026-09-01T19:50:56Z</time>
  <course>32.96</course>
  <speed>0.24</speed>
  <fix>3d</fix>
</trkpt>
<trkpt lat="-27.2744544" lon="151.2900634">
  <ele>357.96</ele>
  <time>2026-09-01T19:50:56Z</time>
  <course>249.11</course>
  <speed>0.24186773244895649</speed>
  <fix>3d</fix>
</trkpt>
<trkpt lat="-27.2744543" lon="151.2900634">
  <ele>358.17</ele>
  <time>2026-09-01T19:50:56Z</time>
  <course>30.95</course>
  <speed>0.27</speed>
  <fix>3d</fix>
</trkpt>
<trkpt lat="-27.2744542" lon="151.2900635">
  <ele>357.96</ele>
  <time>2026-09-01T19:50:56Z</time>
  <course>249.06</course>
  <speed>0.194164878389476</speed>
  <fix>3d</fix>
</trkpt>
<trkpt lat="-27.2744543" lon="151.2900634">
  <ele>358.17</ele>
  <time>2026-09-01T19:50:56Z</time>
  <course>30.95</course>
  <speed>0.27</speed>
  <fix>3d</fix>
</trkpt>
<trkpt lat="-27.274454" lon="151.2900635">
  <ele>357.96</ele>
  <time>2026-09-01T19:50:56Z</time>
  <course>249.09</course>
  <speed>0.1824828759089466</speed>
  <fix>3d</fix>
</trkpt>
<trkpt lat="-27.2744539" lon="151.2900636">
  <ele>358.17</ele>
  <time>2026-09-01T19:50:56Z</time>
  <course>13.51</course>
  <speed>0.23</speed>
  <fix>3d</fix>
</trkpt>
<trkpt lat="-27.2744538" lon="151.2900635">
  <ele>357.96</ele>
  <time>2026-09-01T19:50:56Z</time>
  <course>249.12</course>
  <speed>0.19235384061671343</speed>
  <fix>3d</fix>
</trkpt>
<trkpt lat="-27.2744539" lon="151.2900636">
  <ele>358.17</ele>
  <time>2026-09-01T19:50:56Z</time>
  <course>13.51</course>
  <speed>0.23</speed>
  <fix>3d</fix>
</trkpt>
<trkpt lat="-27.2744536" lon="151.2900635">
  <ele>357.97</ele>
  <time>2026-09-01T19:50:56Z</time>
  <course>249.14</course>
  <speed>0.21400934559032694</speed>
  <fix>3d</fix>
</trkpt>
<trkpt lat="-27.2744535" lon="151.2900636">
  <ele>358.16</ele>
  <time>2026-09-01T19:50:56Z</time>
  <course>340.32</course>
  <speed>0.22</speed>
  <fix>3d</fix>
</trkpt>
<trkpt lat="-27.2744534" lon="151.2900633">
  <ele>357.97</ele>
  <time>2026-09-01T19:50:56Z</time>
  <course>249.15</course>
  <speed>0.22671568097509268</speed>
  <fix>3d</fix>
</trkpt>
<trkpt lat="-27.2744535" lon="151.2900636">
  <ele>358.16</ele>
  <time>2026-09-01T19:50:56Z</time>
  <course>340.32</course>
  <speed>0.22</speed>
  <fix>3d</fix>
</trkpt>
<trkpt lat="-27.2744532" lon="151.2900632">
  <ele>357.97</ele>
  <time>2026-09-01T19:50:56Z</time>
  <course>249.14</course>
  <speed>0.24758836806279894</speed>
  <fix>3d</fix>
</trkpt>
<trkpt lat="-27.2744531" lon="151.2900634">
  <ele>358.16</ele>
  <time>2026-09-01T19:50:56Z</time>
  <course>325.74</course>
  <speed>0.25</speed>
  <fix>3d</fix>
</trkpt>
<trkpt lat="-27.274453" lon="151.290063">
  <ele>357.97</ele>
  <time>2026-09-01T19:50:56Z</time>
  <course>249.13</course>
  <speed>0.25495097567963926</speed>
  <fix>3d</fix>
</trkpt>
<trkpt lat="-27.2744531" lon="151.2900634">
  <ele>358.16</ele>
  <time>2026-09-01T19:50:56Z</time>
  <course>325.74</course>
  <speed>0.25</speed>
  <fix>3d</fix>
</trkpt>
<trkpt lat="-27.2744528" lon="151.2900628">
  <ele>357.96</ele>
  <time>2026-09-01T19:50:57Z</time>
  <course>249.11</course>
  <speed>0.2690724809414742</speed>
  <fix>3d</fix>
</trkpt>
<trkpt lat="-27.2744528" lon="151.2900631">
  <ele>358.16</ele>
  <time>2026-09-01T19:50:57Z</time>
  <course>323.17</course>
  <speed>0.28</speed>
  <fix>3d</fix>
</trkpt>
<trkpt lat="-27.2744526" lon="151.2900627">
  <ele>357.96</ele>
  <time>2026-09-01T19:50:57Z</time>
  <course>249.1</course>
  <speed>0.2765863337187866</speed>
  <fix>3d</fix>
</trkpt>
<trkpt lat="-27.2744528" lon="151.2900631">
  <ele>358.16</ele>
  <time>2026-09-01T19:50:57Z</time>
  <course>323.17</course>
  <speed>0.28</speed>
  <fix>3d</fix>
</trkpt>
<trkpt lat="-27.2744524" lon="151.2900625">
  <ele>357.96</ele>
  <time>2026-09-01T19:50:57Z</time>
  <course>249.14</course>
  <speed>0.2778488797889961</speed>
  <fix>3d</fix>
</trkpt>
<trkpt lat="-27.2744523" lon="151.2900627">
  <ele>358.16</ele>
  <time>2026-09-01T19:50:57Z</time>
  <course>327.77</course>
  <speed>0.3</speed>
  <fix>3d</fix>
</trkpt>
<trkpt lat="-27.2744521" lon="151.2900624">
  <ele>357.96</ele>
  <time>2026-09-01T19:50:57Z</time>
  <course>249.14</course>
  <speed>0.28460498941515416</speed>
  <fix>3d</fix>
</trkpt>
<trkpt lat="-27.2744523" lon="151.2900627">
  <ele>358.16</ele>
  <time>2026-09-01T19:50:57Z</time>
  <course>327.77</course>
  <speed>0.3</speed>
  <fix>3d</fix>
</trkpt>
<trkpt lat="-27.2744518" lon="151.2900623">
  <ele>357.96</ele>
  <time>2026-09-01T19:50:57Z</time>
  <course>249.14</course>
  <speed>0.3059411708155671</speed>
  <fix>3d</fix>
</trkpt>
<trkpt lat="-27.2744518" lon="151.2900624">
  <ele>358.15</ele>
  <time>2026-09-01T19:50:57Z</time>
  <course>340.63</course>
  <speed>0.32</speed>
  <fix>3d</fix>
</trkpt>
<trkpt lat="-27.2744515" lon="151.2900623">
  <ele>357.96</ele>
  <time>2026-09-01T19:50:57Z</time>
  <course>249.16</course>
  <speed>0.31400636936215165</speed>
  <fix>3d</fix>
</trkpt>
<trkpt lat="-27.2744518" lon="151.2900624">
  <ele>358.15</ele>
  <time>2026-09-01T19:50:57Z</time>
  <course>340.63</course>
  <speed>0.32</speed>
  <fix>3d</fix>
</trkpt>
<trkpt lat="-27.2744512" lon="151.2900622">
  <ele>357.96</ele>
  <time>2026-09-01T19:50:57Z</time>
  <course>249.18</course>
  <speed>0.3238826948140329</speed>
  <fix>3d</fix>
</trkpt>
<trkpt lat="-27.2744513" lon="151.2900623">
  <ele>358.15</ele>
  <time>2026-09-01T19:50:57Z</time>
  <course>350.08</course>
  <speed>0.35</speed>
  <fix>3d</fix>
</trkpt>
<trkpt lat="-27.2744509" lon="151.2900622">
  <ele>357.96</ele>
  <time>2026-09-01T19:50:57Z</time>
  <course>249.19</course>
  <speed>0.33541019662496846</speed>
  <fix>3d</fix>
</trkpt>
<trkpt lat="-27.2744513" lon="151.2900623">
  <ele>358.15</ele>
  <time>2026-09-01T19:50:57Z</time>
  <course>350.08</course>
  <speed>0.35</speed>
  <fix>3d</fix>
</trkpt>
<trkpt lat="-27.2744506" lon="151.2900621">
  <ele>357.95</ele>
  <time>2026-09-01T19:50:57Z</time>
  <course>249.2</course>
  <speed>0.34713109915419565</speed>
  <fix>3d</fix>
</trkpt>
<trkpt lat="-27.2744506" lon="151.2900622">
  <ele>358.15</ele>
  <time>2026-09-01T19:50:57Z</time>
  <course>350.38</course>
  <speed>0.37</speed>
  <fix>3d</fix>
</trkpt>
<trkpt lat="-27.2744502" lon="151.290062">
  <ele>357.95</ele>
  <time>2026-09-01T19:50:57Z</time>
  <course>249.15</course>
  <speed>0.3453983207834109</speed>
  <fix>3d</fix>
</trkpt>
<trkpt lat="-27.2744506" lon="151.2900622">
  <ele>358.15</ele>
  <time>2026-09-01T19:50:57Z</time>
  <course>350.38</course>
  <speed>0.37</speed>
  <fix>3d</fix>
</trkpt>
<trkpt lat="-27.2744499" lon="151.2900618">
  <ele>357.95</ele>
  <time>2026-09-01T19:50:57Z</time>
  <course>249.18</course>
  <speed>0.3661966684720111</speed>
  <fix>3d</fix>
</trkpt>
<trkpt lat="-27.2744499" lon="151.290062">
  <ele>358.15</ele>
  <time>2026-09-01T19:50:57Z</time>
  <course>339.09</course>
  <speed>0.38</speed>
  <fix>3d</fix>
</trkpt>
<trkpt lat="-27.2744496" lon="151.2900616">
  <ele>357.96</ele>
  <time>2026-09-01T19:50:57Z</time>
  <course>249.22</course>
  <speed>0.396232255123179</speed>
  <fix>3d</fix>
</trkpt>
<trkpt lat="-27.2744499" lon="151.290062">
  <ele>358.15</ele>
  <time>2026-09-01T19:50:57Z</time>
  <course>339.09</course>
  <speed>0.38</speed>
  <fix>3d</fix>
</trkpt>
<trkpt lat="-27.2744493" lon="151.2900613">
  <ele>357.96</ele>
  <time>2026-09-01T19:50:57Z</time>
  <course>249.24</course>
  <speed>0.41773197148410846</speed>
  <fix>3d</fix>
</trkpt>
<trkpt lat="-27.2744493" lon="151.2900616">
  <ele>358.15</ele>
  <time>2026-09-01T19:50:57Z</time>
  <course>322.44</course>
  <speed>0.42</speed>
  <fix>3d</fix>
</trkpt>
<trkpt lat="-27.2744491" lon="151.290061">
  <ele>357.96</ele>
  <time>2026-09-01T19:50:57Z</time>
  <course>249.25</course>
  <speed>0.44045431091090476</speed>
  <fix>3d</fix>
</trkpt>
<trkpt lat="-27.2744493" lon="151.2900616">
  <ele>358.15</ele>
  <time>2026-09-01T19:50:57Z</time>
  <course>322.44</course>
  <speed>0.42</speed>
  <fix>3d</fix>
</trkpt>
<trkpt lat="-27.2744488" lon="151.2900606">
  <ele>357.96</ele>
  <time>2026-09-01T19:50:57Z</time>
  <course>249.25</course>
  <speed>0.4482186966202994</speed>
  <fix>3d</fix>
</trkpt>
<trkpt lat="-27.2744487" lon="151.290061">
  <ele>358.15</ele>
  <time>2026-09-01T19:50:57Z</time>
  <course>314.39</course>
  <speed>0.46</speed>
  <fix>3d</fix>
</trkpt>
<trkpt lat="-27.2744485" lon="151.2900603">
  <ele>357.96</ele>
  <time>2026-09-01T19:50:57Z</time>
  <course>249.23</course>
  <speed>0.4622769732530488</speed>
  <fix>3d</fix>
</trkpt>
<trkpt lat="-27.2744487" lon="151.290061">
  <ele>358.15</ele>
  <time>2026-09-01T19:50:57Z</time>
  <course>314.39</course>
  <speed>0.46</speed>
  <fix>3d</fix>
</trkpt>
<trkpt lat="-27.2744482" lon="151.2900599">
  <ele>357.96</ele>
  <time>2026-09-01T19:50:57Z</time>
  <course>249.21</course>
  <speed>0.46861498055439926</speed>
  <fix>3d</fix>
</trkpt>
<trkpt lat="-27.2744482" lon="151.2900603">
  <ele>358.15</ele>
  <time>2026-09-01T19:50:57Z</time>
  <course>312.57</course>
  <speed>0.48</speed>
  <fix>3d</fix>
</trkpt>
<trkpt lat="-27.2744479" lon="151.2900595">
  <ele>357.96</ele>
  <time>2026-09-01T19:50:57Z</time>
  <course>249.18</course>
  <speed>0.47634021455258213</speed>
  <fix>3d</fix>
</trkpt>
<trkpt lat="-27.2744482" lon="151.2900603">
  <ele>358.15</ele>
  <time>2026-09-01T19:50:57Z</time>
  <course>312.57</course>
  <speed>0.48</speed>
  <fix>3d</fix>
</trkpt>
<trkpt lat="-27.2744476" lon="151.2900592">
  <ele>357.96</ele>
  <time>2026-09-01T19:50:57Z</time>
  <course>249.2</course>
  <speed>0.4669047011971501</speed>
  <fix>3d</fix>
</trkpt>
<trkpt lat="-27.2744476" lon="151.2900596">
  <ele>358.15</ele>
  <time>2026-09-01T19:50:57Z</time>
  <course>314.02</course>
  <speed>0.49</speed>
  <fix>3d</fix>
</trkpt>
<trkpt lat="-27.2744472" lon="151.2900589">
  <ele>357.96</ele>
  <time>2026-09-01T19:50:57Z</time>
  <course>249.21</course>
  <speed>0.4482186966202994</speed>
  <fix>3d</fix>
</trkpt>
<trkpt lat="-27.2744476" lon="151.2900596">
  <ele>358.15</ele>
  <time>2026-09-01T19:50:57Z</time>
  <course>314.02</course>
  <speed>0.49</speed>
  <fix>3d</fix>
</trkpt>
<trkpt lat="-27.2744469" lon="151.2900586">
  <ele>357.96</ele>
  <time>2026-09-01T19:50:57Z</time>
  <course>249.22</course>
  <speed>0.4410215414239989</speed>
  <fix>3d</fix>
</trkpt>
<trkpt lat="-27.2744469" lon="151.2900589">
  <ele>358.15</ele>
  <time>2026-09-01T19:50:57Z</time>
  <course>322.26</course>
  <speed>0.48</speed>
  <fix>3d</fix>
</trkpt>
<trkpt lat="-27.2744465" lon="151.2900584">
  <ele>357.96</ele>
  <time>2026-09-01T19:50:57Z</time>
  <course>249.24</course>
  <speed>0.442944691807002</speed>
  <fix>3d</fix>
</trkpt>
<trkpt lat="-27.2744469" lon="151.2900589">
  <ele>358.15</ele>
  <time>2026-09-01T19:50:57Z</time>
  <course>322.26</course>
  <speed>0.48</speed>
  <fix>3d</fix>
</trkpt>
<trkpt lat="-27.2744461" lon="151.2900582">
  <ele>357.96</ele>
  <time>2026-09-01T19:50:57Z</time>
  <course>249.25</course>
  <speed>0.4386342439892262</speed>
  <fix>3d</fix>
</trkpt>
<trkpt lat="-27.2744462" lon="151.2900584">
  <ele>358.14</ele>
  <time>2026-09-01T19:50:57Z</time>
  <course>333.09</course>
  <speed>0.47</speed>
  <fix>3d</fix>
</trkpt>
<trkpt lat="-27.2744457" lon="151.290058">
  <ele>357.96</ele>
  <time>2026-09-01T19:50:57Z</time>
  <course>249.26</course>
  <speed>0.4438468204234429</speed>
  <fix>3d</fix>
</trkpt>
<trkpt lat="-27.2744462" lon="151.2900584">
  <ele>358.14</ele>
  <time>2026-09-01T19:50:57Z</time>
  <course>333.09</course>
  <speed>0.47</speed>
  <fix>3d</fix>
</trkpt>
<trkpt lat="-27.2744453" lon="151.2900579">
  <ele>357.96</ele>
  <time>2026-09-01T19:50:57Z</time>
  <course>249.26</course>
  <speed>0.45310043036836767</speed>
  <fix>3d</fix>
</trkpt>
<trkpt lat="-27.2744454" lon="151.290058">
  <ele>358.14</ele>
  <time>2026-09-01T19:50:57Z</time>
  <course>338.24</course>
  <speed>0.47</speed>
  <fix>3d</fix>
</trkpt>
<trkpt lat="-27.2744449" lon="151.2900577">
  <ele>357.96</ele>
  <time>2026-09-01T19:50:57Z</time>
  <course>249.24</course>
  <speed>0.45188494110780014</speed>
  <fix>3d</fix>
</trkpt>
<trkpt lat="-27.2744454" lon="151.290058">
  <ele>358.14</ele>
  <time>2026-09-01T19:50:57Z</time>
  <course>338.24</course>
  <speed>0.47</speed>
  <fix>3d</fix>
</trkpt>
<trkpt lat="-27.2744445" lon="151.2900575">
  <ele>357.95</ele>
  <time>2026-09-01T19:50:57Z</time>
  <course>249.25</course>
  <speed>0.4687216658103186</speed>
  <fix>3d</fix>
</trkpt>
<trkpt lat="-27.2744446" lon="151.2900576">
  <ele>358.14</ele>
  <time>2026-09-01T19:50:57Z</time>
  <course>334.01</course>
  <speed>0.48</speed>
  <fix>3d</fix>
</trkpt>
<trkpt lat="-27.2744442" lon="151.2900571">
  <ele>357.96</ele>
  <time>2026-09-01T19:50:57Z</time>
  <course>249.28</course>
  <speed>0.4883646178829912</speed>
  <fix>3d</fix>
</trkpt>
<trkpt lat="-27.2744446" lon="151.2900576">
  <ele>358.14</ele>
  <time>2026-09-01T19:50:57Z</time>
  <course>334.01</course>
  <speed>0.48</speed>
  <fix>3d</fix>
</trkpt>
<trkpt lat="-27.2744438" lon="151.2900568">
  <ele>357.96</ele>
  <time>2026-09-01T19:50:57Z</time>
  <course>249.31</course>
  <speed>0.5093132631298737</speed>
  <fix>3d</fix>
</trkpt>
<trkpt lat="-27.2744438" lon="151.2900571">
  <ele>358.14</ele>
  <time>2026-09-01T19:50:57Z</time>
  <course>322.4</course>
  <speed>0.51</speed>
  <fix>3d</fix>
</trkpt>
<trkpt lat="-27.2744435" lon="151.2900564">
  <ele>357.96</ele>
  <time>2026-09-01T19:50:57Z</time>
  <course>249.32</course>
  <speed>0.5249761899362675</speed>
  <fix>3d</fix>
</trkpt>
<trkpt lat="-27.2744438" lon="151.2900571">
  <ele>358.14</ele>
  <time>2026-09-01T19:50:57Z</time>
  <course>322.4</course>
  <speed>0.51</speed>
  <fix>3d</fix>
</trkpt>
<trkpt lat="-27.2744431" lon="151.290056">
  <ele>357.96</ele>
  <time>2026-09-01T19:50:57Z</time>
  <course>249.3</course>
  <speed>0.532634959423431</speed>
  <fix>3d</fix>
</trkpt>
<trkpt lat="-27.2744431" lon="151.2900564">
  <ele>358.14</ele>
  <time>2026-09-01T19:50:57Z</time>
  <course>314.67</course>
  <speed>0.54</speed>
  <fix>3d</fix>
</trkpt>
<trkpt lat="-27.2744428" lon="151.2900556">
  <ele>357.96</ele>
  <time>2026-09-01T19:50:57Z</time>
  <course>249.27</course>
  <speed>0.5403702434442519</speed>
  <fix>3d</fix>
</trkpt>
<trkpt lat="-27.2744431" lon="151.2900564">
  <ele>358.14</ele>
  <time>2026-09-01T19:50:57Z</time>
  <course>314.67</course>
  <speed>0.54</speed>
  <fix>3d</fix>
</trkpt>
<trkpt lat="-27.2744425" lon="151.2900551">
  <ele>357.96</ele>
  <time>2026-09-01T19:50:57Z</time>
  <course>249.24</course>
  <speed>0.5403702434442519</speed>
  <fix>3d</fix>
</trkpt>
<trkpt lat="-27.2744424" lon="151.2900556">
  <ele>358.14</ele>
  <time>2026-09-01T19:50:57Z</time>
  <course>312.41</course>
  <speed>0.55</speed>
  <fix>3d</fix>
</trkpt>
<trkpt lat="-27.2744421" lon="151.2900547">
  <ele>357.96</ele>
  <time>2026-09-01T19:50:57Z</time>
  <course>249.2</course>
  <speed>0.5403702434442519</speed>
  <fix>3d</fix>
</trkpt>
<trkpt lat="-27.2744424" lon="151.2900556">
  <ele>358.14</ele>
  <time>2026-09-01T19:50:57Z</time>
  <course>312.41</course>
  <speed>0.55</speed>
  <fix>3d</fix>
</trkpt>
<trkpt lat="-27.2744418" lon="151.2900543">
  <ele>357.97</ele>
  <time>2026-09-01T19:50:57Z</time>
  <course>249.18</course>
  <speed>0.5249761899362675</speed>
  <fix>3d</fix>
</trkpt>
<trkpt lat="-27.2744417" lon="151.2900547">
  <ele>358.14</ele>
  <time>2026-09-01T19:50:57Z</time>
  <course>312.54</course>
  <speed>0.55</speed>
  <fix>3d</fix>
</trkpt>
<trkpt lat="-27.2744414" lon="151.2900539">
  <ele>357.97</ele>
  <time>2026-09-01T19:50:57Z</time>
  <course>249.17</course>
  <speed>0.5024937810560445</speed>
  <fix>3d</fix>
</trkpt>
<trkpt lat="-27.2744417" lon="151.2900547">
  <ele>358.14</ele>
  <time>2026-09-01T19:50:57Z</time>
  <course>312.54</course>
  <speed>0.55</speed>
  <fix>3d</fix>
</trkpt>
<trkpt lat="-27.274441" lon="151.2900536">
  <ele>357.97</ele>
  <time>2026-09-01T19:50:57Z</time>
  <course>249.18</course>
  <speed>0.4860041152089147</speed>
  <fix>3d</fix>
</trkpt>
<trkpt lat="-27.274441" lon="151.290054">
  <ele>358.14</ele>
  <time>2026-09-01T19:50:57Z</time>
  <course>319.01</course>
  <speed>0.52</speed>
  <fix>3d</fix>
</trkpt>
<trkpt lat="-27.2744406" lon="151.2900533">
  <ele>357.97</ele>
  <time>2026-09-01T19:50:57Z</time>
  <course>249.2</course>
  <speed>0.47169905660283024</speed>
  <fix>3d</fix>
</trkpt>
<trkpt lat="-27.274441" lon="151.290054">
  <ele>358.14</ele>
  <time>2026-09-01T19:50:57Z</time>
  <course>319.01</course>
  <speed>0.52</speed>
  <fix>3d</fix>
</trkpt>
<trkpt lat="-27.2744402" lon="151.2900531">
  <ele>357.96</ele>
  <time>2026-09-01T19:50:57Z</time>
  <course>249.21</course>
  <speed>0.46529560496527367</speed>
  <fix>3d</fix>
</trkpt>
<trkpt lat="-27.2744403" lon="151.2900533">
  <ele>358.13</ele>
  <time>2026-09-01T19:50:57Z</time>
  <course>329.51</course>
  <speed>0.5</speed>
  <fix>3d</fix>
</trkpt>
<trkpt lat="-27.2744398" lon="151.2900529">
  <ele>357.96</ele>
  <time>2026-09-01T19:50:57Z</time>
  <course>249.22</course>
  <speed>0.4561797891182817</speed>
  <fix>3d</fix>
</trkpt>
<trkpt lat="-27.2744403" lon="151.2900533">
  <ele>358.13</ele>
  <time>2026-09-01T19:50:57Z</time>
  <course>329.51</course>
  <speed>0.5</speed>
  <fix>3d</fix>
</trkpt>
<trkpt lat="-27.2744394" lon="151.2900527">
  <ele>357.96</ele>
  <time>2026-09-01T19:50:57Z</time>
  <course>249.22</course>
  <speed>0.45188494110780014</speed>
  <fix>3d</fix>
</trkpt>
<trkpt lat="-27.2744395" lon="151.2900528">
  <ele>358.13</ele>
  <time>2026-09-01T19:50:57Z</time>
  <course>335.65</course>
  <speed>0.48</speed>
  <fix>3d</fix>
</trkpt>
<trkpt lat="-27.274439" lon="151.2900525">
  <ele>357.96</ele>
  <time>2026-09-01T19:50:57Z</time>
  <course>249.22</course>
  <speed>0.4477722635447622</speed>
  <fix>3d</fix>
</trkpt>
<trkpt lat="-27.2744395" lon="151.2900528">
  <ele>358.13</ele>
  <time>2026-09-01T19:50:57Z</time>
  <course>335.65</course>
  <speed>0.48</speed>
  <fix>3d</fix>
</trkpt>
<trkpt lat="-27.2744386" lon="151.2900523">
  <ele>357.96</ele>
  <time>2026-09-01T19:50:57Z</time>
  <course>249.23</course>
  <speed>0.45486261662176636</speed>
  <fix>3d</fix>
</trkpt>
<trkpt lat="-27.2744387" lon="151.2900525">
  <ele>358.13</ele>
  <time>2026-09-01T19:50:57Z</time>
  <course>334.05</course>
  <speed>0.48</speed>
  <fix>3d</fix>
</trkpt>
<trkpt lat="-27.2744383" lon="151.290052">
  <ele>357.96</ele>
  <time>2026-09-01T19:50:57Z</time>
  <course>249.24</course>
  <speed>0.4675467891024384</speed>
  <fix>3d</fix>
</trkpt>
<trkpt lat="-27.2744387" lon="151.2900525">
  <ele>358.13</ele>
  <time>2026-09-01T19:50:57Z</time>
  <course>334.05</course>
  <speed>0.48</speed>
  <fix>3d</fix>
</trkpt>
<trkpt lat="-27.2744379" lon="151.2900517">
  <ele>357.96</ele>
  <time>2026-09-01T19:50:57Z</time>
  <course>249.25</course>
  <speed>0.4883646178829912</speed>
  <fix>3d</fix>
</trkpt>
<trkpt lat="-27.2744379" lon="151.290052">
  <ele>358.13</ele>
  <time>2026-09-01T19:50:57Z</time>
  <course>323.29</course>
  <speed>0.49</speed>
  <fix>3d</fix>
</trkpt>
<trkpt lat="-27.2744376" lon="151.2900513">
  <ele>357.96</ele>
  <time>2026-09-01T19:50:57Z</time>
  <course>249.25</course>
  <speed>0.49678969393496886</speed>
  <fix>3d</fix>
</trkpt>
<trkpt lat="-27.2744379" lon="151.290052">
  <ele>358.13</ele>
  <time>2026-09-01T19:50:57Z</time>
  <course>323.29</course>
  <speed>0.49</speed>
  <fix>3d</fix>
</trkpt>
<trkpt lat="-27.2744373" lon="151.2900509">
  <ele>357.96</ele>
  <time>2026-09-01T19:50:57Z</time>
  <course>249.23</course>
  <speed>0.498196748283246</speed>
  <fix>3d</fix>
</trkpt>
<trkpt lat="-27.2744373" lon="151.2900513">
  <ele>358.12</ele>
  <time>2026-09-01T19:50:57Z</time>
  <course>313.97</course>
  <speed>0.51</speed>
  <fix>3d</fix>
</trkpt>
<trkpt lat="-27.274437" lon="151.2900505">
  <ele>357.96</ele>
  <time>2026-09-01T19:50:57Z</time>
  <course>249.21</course>
  <speed>0.5</speed>
  <fix>3d</fix>
</trkpt>
<trkpt lat="-27.2744373" lon="151.2900513">
  <ele>358.12</ele>
  <time>2026-09-01T19:50:57Z</time>
  <course>313.97</course>
  <speed>0.51</speed>
  <fix>3d</fix>
</trkpt>
<trkpt lat="-27.2744367" lon="151.2900501">
  <ele>357.96</ele>
  <time>2026-09-01T19:50:57Z</time>
  <course>249.17</course>
  <speed>0.494064773081425</speed>
  <fix>3d</fix>
</trkpt>
<trkpt lat="-27.2744367" lon="151.2900506">
  <ele>358.12</ele>
  <time>2026-09-01T19:50:57Z</time>
  <course>310.78</course>
  <speed>0.51</speed>
  <fix>3d</fix>
</trkpt>
<trkpt lat="-27.2744364" lon="151.2900497">
  <ele>357.96</ele>
  <time>2026-09-01T19:50:57Z</time>
  <course>249.14</course>
  <speed>0.4860041152089147</speed>
  <fix>3d</fix>
</trkpt>
<trkpt lat="-27.2744367" lon="151.2900506">
  <ele>358.12</ele>
  <time>2026-09-01T19:50:57Z</time>
  <course>310.78</course>
  <speed>0.51</speed>
  <fix>3d</fix>
</trkpt>
<trkpt lat="-27.2744361" lon="151.2900493">
  <ele>357.96</ele>
  <time>2026-09-01T19:50:57Z</time>
  <course>249.11</course>
  <speed>0.4780167361086848</speed>
  <fix>3d</fix>
</trkpt>
<trkpt lat="-27.2744361" lon="151.2900498">
  <ele>358.12</ele>
  <time>2026-09-01T19:50:57Z</time>
  <course>310.21</course>
  <speed>0.5</speed>
  <fix>3d</fix>
</trkpt>
<trkpt lat="-27.2744358" lon="151.290049">
  <ele>357.96</ele>
  <time>2026-09-01T19:50:57Z</time>
  <course>249.07</course>
  <speed>0.4386342439892262</speed>
  <fix>3d</fix>
</trkpt>
<trkpt lat="-27.2744361" lon="151.2900498">
  <ele>358.12</ele>
  <time>2026-09-01T19:50:57Z</time>
  <course>310.21</course>
  <speed>0.5</speed>
  <fix>3d</fix>
</trkpt>
<trkpt lat="-27.2744355" lon="151.2900487">
  <ele>357.96</ele>
  <time>2026-09-01T19:50:57Z</time>
  <course>249.07</course>
  <speed>0.41231056256176607</speed>
  <fix>3d</fix>
</trkpt>
<trkpt lat="-27.2744355" lon="151.290049">
  <ele>358.12</ele>
  <time>2026-09-01T19:50:57Z</time>
  <course>316.64</course>
  <speed>0.45</speed>
  <fix>3d</fix>
</trkpt>
<trkpt lat="-27.2744352" lon="151.2900485">
  <ele>357.96</ele>
  <time>2026-09-01T19:50:57Z</time>
  <course>249.08</course>
  <speed>0.3911521443121589</speed>
  <fix>3d</fix>
</trkpt>
<trkpt lat="-27.2744355" lon="151.290049">
  <ele>358.12</ele>
  <time>2026-09-01T19:50:57Z</time>
  <course>316.64</course>
  <speed>0.45</speed>
  <fix>3d</fix>
</trkpt>
<trkpt lat="-27.2744349" lon="151.2900483">
  <ele>357.96</ele>
  <time>2026-09-01T19:50:57Z</time>
  <course>249.09</course>
  <speed>0.37589892258425</speed>
  <fix>3d</fix>
</trkpt>
<trkpt lat="-27.2744349" lon="151.2900485">
  <ele>358.11</ele>
  <time>2026-09-01T19:50:57Z</time>
  <course>329.05</course>
  <speed>0.41</speed>
  <fix>3d</fix>
</trkpt>
<trkpt lat="-27.2744345" lon="151.2900481">
  <ele>357.96</ele>
  <time>2026-09-01T19:50:57Z</time>
  <course>249.1</course>
  <speed>0.3624913792078372</speed>
  <fix>3d</fix>
</trkpt>
<trkpt lat="-27.2744349" lon="151.2900485">
  <ele>358.11</ele>
  <time>2026-09-01T19:50:57Z</time>
  <course>329.05</course>
  <speed>0.41</speed>
  <fix>3d</fix>
</trkpt>
<trkpt lat="-27.2744342" lon="151.290048">
  <ele>357.96</ele>
  <time>2026-09-01T19:50:57Z</time>
  <course>249.1</course>
  <speed>0.354682957019364</speed>
  <fix>3d</fix>
</trkpt>
<trkpt lat="-27.2744342" lon="151.2900482">
  <ele>358.11</ele>
  <time>2026-09-01T19:50:57Z</time>
  <course>337.48</course>
  <speed>0.39</speed>
  <fix>3d</fix>
</trkpt>
<trkpt lat="-27.2744339" lon="151.2900479">
  <ele>357.96</ele>
  <time>2026-09-01T19:50:57Z</time>
  <course>249.1</course>
  <speed>0.3453983207834109</speed>
  <fix>3d</fix>
</trkpt>
<trkpt lat="-27.2744342" lon="151.2900482">
  <ele>358.11</ele>
  <time>2026-09-01T19:50:57Z</time>
  <course>337.48</course>
  <speed>0.39</speed>
  <fix>3d</fix>
</trkpt>
<trkpt lat="-27.2744336" lon="151.2900477">
  <ele>357.96</ele>
  <time>2026-09-01T19:50:57Z</time>
  <course>249.14</course>
  <speed>0.3361547262794322</speed>
  <fix>3d</fix>
</trkpt>
<trkpt lat="-27.2744336" lon="151.2900479">
  <ele>358.11</ele>
  <time>2026-09-01T19:50:57Z</time>
  <course>337.28</course>
  <speed>0.37</speed>
  <fix>3d</fix>
</trkpt>
<trkpt lat="-27.2744333" lon="151.2900475">
  <ele>357.96</ele>
  <time>2026-09-01T19:50:57Z</time>
  <course>249.15</course>
  <speed>0.3687817782917155</speed>
  <fix>3d</fix>
</trkpt>
<trkpt lat="-27.2744336" lon="151.2900479">
  <ele>358.11</ele>
  <time>2026-09-01T19:50:57Z</time>
  <course>337.28</course>
  <speed>0.37</speed>
  <fix>3d</fix>
</trkpt>
<trkpt lat="-27.2744331" lon="151.2900471">
  <ele>357.96</ele>
  <time>2026-09-01T19:50:57Z</time>
  <course>249.15</course>
  <speed>0.47169905660283024</speed>
  <fix>3d</fix>
</trkpt>
<trkpt lat="-27.274433" lon="151.2900475">
  <ele>358.11</ele>
  <time>2026-09-01T19:50:57Z</time>
  <course>312.7</course>
  <speed>0.39</speed>
  <fix>3d</fix>
</trkpt>
<trkpt lat="-27.2744329" lon="151.2900466">
  <ele>357.95</ele>
  <time>2026-09-01T19:50:57Z</time>
  <course>249.15</course>
  <speed>0.6264982043070834</speed>
  <fix>3d</fix>
</trkpt>
<trkpt lat="-27.274433" lon="151.2900475">
  <ele>358.11</ele>
  <time>2026-09-01T19:50:57Z</time>
  <course>312.7</course>
  <speed>0.39</speed>
  <fix>3d</fix>
</trkpt>
<trkpt lat="-27.2744329" lon="151.2900459">
  <ele>357.95</ele>
  <time>2026-09-01T19:50:57Z</time>
  <course>249.15</course>
  <speed>0.82</speed>
  <fix>3d</fix>
</trkpt>
<trkpt lat="-27.2744327" lon="151.2900465">
  <ele>358.1</ele>
  <time>2026-09-01T19:50:57Z</time>
  <course>281.74</course>
  <speed>0.62</speed>
  <fix>3d</fix>
</trkpt>
<trkpt lat="-27.2744329" lon="151.2900449">
  <ele>357.94</ele>
  <time>2026-09-01T19:50:57Z</time>
  <course>249.16</course>
  <speed>1.0331021246711285</speed>
  <fix>3d</fix>
</trkpt>
<trkpt lat="-27.2744327" lon="151.2900465">
  <ele>358.1</ele>
  <time>2026-09-01T19:50:57Z</time>
  <course>281.74</course>
  <speed>0.62</speed>
  <fix>3d</fix>
</trkpt>
<trkpt lat="-27.274433" lon="151.2900438">
  <ele>357.94</ele>
  <time>2026-09-01T19:50:57Z</time>
  <course>249.18</course>
  <speed>1.2615070352558484</speed>
  <fix>3d</fix>
</trkpt>
<trkpt lat="-27.2744326" lon="151.290045">
  <ele>358.1</ele>
  <time>2026-09-01T19:50:57Z</time>
  <course>267.37</course>
  <speed>1.02</speed>
  <fix>3d</fix>
</trkpt>
<trkpt lat="-27.2744331" lon="151.2900424">
  <ele>357.94</ele>
  <time>2026-09-01T19:50:57Z</time>
  <course>249.21</course>
  <speed>1.4945902448497381</speed>
  <fix>3d</fix>
</trkpt>
<trkpt lat="-27.2744326" lon="151.290045">
  <ele>358.1</ele>
  <time>2026-09-01T19:50:57Z</time>
  <course>267.37</course>
  <speed>1.02</speed>
  <fix>3d</fix>
</trkpt>
<trkpt lat="-27.2744333" lon="151.2900408">
  <ele>357.93</ele>
  <time>2026-09-01T19:50:57Z</time>
  <course>249.22</course>
  <speed>1.7181385275931624</speed>
  <fix>3d</fix>
</trkpt>
<trkpt lat="-27.2744328" lon="151.2900425">
  <ele>358.1</ele>
  <time>2026-09-01T19:50:57Z</time>
  <course>260.92</course>
  <speed>1.46</speed>
  <fix>3d</fix>
</trkpt>
<trkpt lat="-27.2744336" lon="151.2900391">
  <ele>357.93</ele>
  <time>2026-09-01T19:50:57Z</time>
  <course>249.21</course>
  <speed>1.8701069488133562</speed>
  <fix>3d</fix>
</trkpt>
<trkpt lat="-27.2744328" lon="151.2900425">
  <ele>358.1</ele>
  <time>2026-09-01T19:50:57Z</time>
  <course>260.92</course>
  <speed>1.46</speed>
  <fix>3d</fix>
</trkpt>
<trkpt lat="-27.274434" lon="151.2900372">
  <ele>357.93</ele>
  <time>2026-09-01T19:50:57Z</time>
  <course>249.21</course>
  <speed>1.9572685048301368</speed>
  <fix>3d</fix>
</trkpt>
<trkpt lat="-27.2744333" lon="151.2900392">
  <ele>358.1</ele>
  <time>2026-09-01T19:50:57Z</time>
  <course>257.87</course>
  <speed>1.82</speed>
  <fix>3d</fix>
</trkpt>
<trkpt lat="-27.2744344" lon="151.2900353">
  <ele>357.93</ele>
  <time>2026-09-01T19:50:57Z</time>
  <course>249.22</course>
  <speed>1.9937151250868315</speed>
  <fix>3d</fix>
</trkpt>
<trkpt lat="-27.2744333" lon="151.2900392">
  <ele>358.1</ele>
  <time>2026-09-01T19:50:57Z</time>
  <course>257.87</course>
  <speed>1.82</speed>
  <fix>3d</fix>
</trkpt>
<trkpt lat="-27.2744349" lon="151.2900334">
  <ele>357.93</ele>
  <time>2026-09-01T19:50:57Z</time>
  <course>249.23</course>
  <speed>2.0084820138602186</speed>
  <fix>3d</fix>
</trkpt>
<trkpt lat="-27.2744341" lon="151.2900354">
  <ele>358.1</ele>
  <time>2026-09-01T19:50:57Z</time>
  <course>256.39</course>
  <speed>1.97</speed>
  <fix>3d</fix>
</trkpt>
<trkpt lat="-27.2744353" lon="151.2900314">
  <ele>357.94</ele>
  <time>2026-09-01T19:50:57Z</time>
  <course>249.24</course>
  <speed>2.001449474755733</speed>
  <fix>3d</fix>
</trkpt>
<trkpt lat="-27.2744341" lon="151.2900354">
  <ele>358.1</ele>
  <time>2026-09-01T19:50:57Z</time>
  <course>256.39</course>
  <speed>1.97</speed>
  <fix>3d</fix>
</trkpt>
<trkpt lat="-27.2744357" lon="151.2900295">
  <ele>357.94</ele>
  <time>2026-09-01T19:50:57Z</time>
  <course>249.24</course>
  <speed>1.9848677537810926</speed>
  <fix>3d</fix>
</trkpt>
<trkpt lat="-27.2744349" lon="151.2900315">
  <ele>358.1</ele>
  <time>2026-09-01T19:50:57Z</time>
  <course>255.48</course>
  <speed>1.98</speed>
  <fix>3d</fix>
</trkpt>
<trkpt lat="-27.2744362" lon="151.2900276">
  <ele>357.95</ele>
  <time>2026-09-01T19:50:57Z</time>
  <course>249.23</course>
  <speed>1.96562967010574</speed>
  <fix>3d</fix>
</trkpt>
<trkpt lat="-27.2744349" lon="151.2900315">
  <ele>358.1</ele>
  <time>2026-09-01T19:50:57Z</time>
  <course>255.48</course>
  <speed>1.98</speed>
  <fix>3d</fix>
</trkpt>
<trkpt lat="-27.2744366" lon="151.2900257">
  <ele>357.96</ele>
  <time>2026-09-01T19:50:57Z</time>
  <course>249.21</course>
  <speed>1.9396133635340833</speed>
  <fix>3d</fix>
</trkpt>
<trkpt lat="-27.2744358" lon="151.2900277">
  <ele>358.11</ele>
  <time>2026-09-01T19:50:57Z</time>
  <course>254.71</course>
  <speed>1.96</speed>
  <fix>3d</fix>
</trkpt>
<trkpt lat="-27.2744371" lon="151.2900239">
  <ele>357.96</ele>
  <time>2026-09-01T19:50:57Z</time>
  <course>249.14</course>
  <speed>1.8888356201639147</speed>
  <fix>3d</fix>
</trkpt>
<trkpt lat="-27.2744358" lon="151.2900277">
  <ele>358.11</ele>
  <time>2026-09-01T19:50:57Z</time>
  <course>254.71</course>
  <speed>1.96</speed>
  <fix>3d</fix>
</trkpt>
<trkpt lat="-27.2744375" lon="151.2900221">
  <ele>357.96</ele>
  <time>2026-09-01T19:50:57Z</time>
  <course>249.05</course>
  <speed>1.7652761823578769</speed>
  <fix>3d</fix>
</trkpt>
<trkpt lat="-27.2744367" lon="151.2900239">
  <ele>358.12</ele>
  <time>2026-09-01T19:50:57Z</time>
  <course>254.09</course>
  <speed>1.85</speed>
  <fix>3d</fix>
</trkpt>
<trkpt lat="-27.2744379" lon="151.2900205">
  <ele>357.97</ele>
  <time>2026-09-01T19:50:57Z</time>
  <course>248.98</course>
  <speed>1.57851195750935</speed>
  <fix>3d</fix>
</trkpt>
<trkpt lat="-27.2744367" lon="151.2900239">
  <ele>358.12</ele>
  <time>2026-09-01T19:50:57Z</time>
  <course>254.09</course>
  <speed>1.85</speed>
  <fix>3d</fix>
</trkpt>
<trkpt lat="-27.2744383" lon="151.2900191">
  <ele>357.97</ele>
  <time>2026-09-01T19:50:57Z</time>
  <course>248.92</course>
  <speed>1.3572398461583715</speed>
  <fix>3d</fix>
</trkpt>
<trkpt lat="-27.2744377" lon="151.2900205">
  <ele>358.13</ele>
  <time>2026-09-01T19:50:57Z</time>
  <course>253.89</course>
  <speed>1.57</speed>
  <fix>3d</fix>
</trkpt>
<trkpt lat="-27.2744386" lon="151.2900179">
  <ele>357.97</ele>
  <time>2026-09-01T19:50:57Z</time>
  <course>248.86</course>
  <speed>1.1168258592994702</speed>
  <fix>3d</fix>
</trkpt>
<trkpt lat="-27.2744377" lon="151.2900205">
  <ele>358.13</ele>
  <time>2026-09-01T19:50:57Z</time>
  <course>253.89</course>
  <speed>1.57</speed>
  <fix>3d</fix>
</trkpt>
<trkpt lat="-27.2744388" lon="151.290017">
  <ele>357.97</ele>
  <time>2026-09-01T19:50:57Z</time>
  <course>248.81</course>
  <speed>0.8640023148117139</speed>
  <fix>3d</fix>
</trkpt>
<trkpt lat="-27.2744383" lon="151.2900179">
  <ele>358.14</ele>
  <time>2026-09-01T19:50:57Z</time>
  <course>254.26</course>
  <speed>1.12</speed>
  <fix>3d</fix>
</trkpt>
<trkpt lat="-27.2744389" lon="151.2900163">
  <ele>357.96</ele>
  <time>2026-09-01T19:50:57Z</time>
  <course>248.77</course>
  <speed>0.6016643582596529</speed>
  <fix>3d</fix>
</trkpt>
<trkpt lat="-27.2744383" lon="151.2900179">
  <ele>358.14</ele>
  <time>2026-09-01T19:50:57Z</time>
  <course>254.26</course>
  <speed>1.12</speed>
  <fix>3d</fix>
</trkpt>
<trkpt lat="-27.274439" lon="151.2900158">
  <ele>357.96</ele>
  <time>2026-09-01T19:50:57Z</time>
  <course>248.73</course>
  <speed>0.327566787083184</speed>
  <fix>3d</fix>
</trkpt>
<trkpt lat="-27.2744387" lon="151.2900162">
  <ele>358.14</ele>
  <time>2026-09-01T19:50:57Z</time>
  <course>255.87</course>
  <speed>0.61</speed>
  <fix>3d</fix>
</trkpt>
<trkpt lat="-27.274439" lon="151.2900156">
  <ele>357.96</ele>
  <time>2026-09-01T19:50:57Z</time>
  <course>248.72</course>
  <speed>0.07</speed>
  <fix>3d</fix>
</trkpt>
<trkpt lat="-27.2744387" lon="151.2900162">
  <ele>358.14</ele>
  <time>2026-09-01T19:50:57Z</time>
  <course>255.87</course>
  <speed>0.61</speed>
  <fix>3d</fix>
</trkpt>
<trkpt lat="-27.2744389" lon="151.2900156">
  <ele>357.95</ele>
  <time>2026-09-01T19:50:57Z</time>
  <course>248.75</course>
  <speed>0.16552945357246848</speed>
  <fix>3d</fix>
</trkpt>
<trkpt lat="-27.2744389" lon="151.2900154">
  <ele>358.14</ele>
  <time>2026-09-01T19:50:57Z</time>
  <course>274.65</course>
  <speed>0.1</speed>
  <fix>3d</fix>
</trkpt>
<trkpt lat="-27.2744389" lon="151.2900158">
  <ele>357.95</ele>
  <time>2026-09-01T19:50:57Z</time>
  <course>248.81</course>
  <speed>0.3231098884280702</speed>
  <fix>3d</fix>
</trkpt>
<trkpt lat="-27.2744389" lon="151.2900154">
  <ele>358.14</ele>
  <time>2026-09-01T19:50:57Z</time>
  <course>274.65</course>
  <speed>0.1</speed>
  <fix>3d</fix>
</trkpt>
<trkpt lat="-27.2744388" lon="151.2900161">
  <ele>357.95</ele>
  <time>2026-09-01T19:50:57Z</time>
  <course>248.88</course>
  <speed>0.4143669871020132</speed>
  <fix>3d</fix>
</trkpt>
<trkpt lat="-27.2744388" lon="151.2900156">
  <ele>358.13</ele>
  <time>2026-09-01T19:50:57Z</time>
  <course>66.62</course>
  <speed>0.29</speed>
  <fix>3d</fix>
</trkpt>
<trkpt lat="-27.2744387" lon="151.2900165">
  <ele>357.94</ele>
  <time>2026-09-01T19:50:57Z</time>
  <course>248.9</course>
  <speed>0.4712748667179272</speed>
  <fix>3d</fix>
</trkpt>
<trkpt lat="-27.2744388" lon="151.2900156">
  <ele>358.13</ele>
  <time>2026-09-01T19:50:57Z</time>
  <course>66.62</course>
  <speed>0.29</speed>
  <fix>3d</fix>
</trkpt>
<trkpt lat="-27.2744385" lon="151.290017">
  <ele>357.94</ele>
  <time>2026-09-01T19:50:57Z</time>
  <course>248.84</course>
  <speed>0.5</speed>
  <fix>3d</fix>
</trkpt>
<trkpt lat="-27.2744385" lon="151.2900163">
  <ele>358.12</ele>
  <time>2026-09-01T19:50:57Z</time>
  <course>70.86</course>
  <speed>0.46</speed>
  <fix>3d</fix>
</trkpt>
<trkpt lat="-27.2744384" lon="151.2900175">
  <ele>357.94</ele>
  <time>2026-09-01T19:50:57Z</time>
  <course>248.73</course>
  <speed>0.5096076922496363</speed>
  <fix>3d</fix>
</trkpt>
<trkpt lat="-27.2744385" lon="151.2900163">
  <ele>358.12</ele>
  <time>2026-09-01T19:50:57Z</time>
  <course>70.86</course>
  <speed>0.46</speed>
  <fix>3d</fix>
</trkpt>
<trkpt lat="-27.2744382" lon="151.2900179">
  <ele>357.94</ele>
  <time>2026-09-01T19:50:57Z</time>
  <course>248.58</course>
  <speed>0.5166236541235796</speed>
  <fix>3d</fix>
</trkpt>
<trkpt lat="-27.2744383" lon="151.2900173">
  <ele>358.12</ele>
  <time>2026-09-01T19:50:57Z</time>
  <course>72.97</course>
  <speed>0.52</speed>
  <fix>3d</fix>
</trkpt>
<trkpt lat="-27.2744381" lon="151.2900184">
  <ele>357.94</ele>
  <time>2026-09-01T19:50:57Z</time>
  <course>248.5</course>
  <speed>0.4827007354458868</speed>
  <fix>3d</fix>
</trkpt>
<trkpt lat="-27.2744383" lon="151.2900173">
  <ele>358.12</ele>
  <time>2026-09-01T19:50:57Z</time>
  <course>72.97</course>
  <speed>0.52</speed>
  <fix>3d</fix>
</trkpt>
<trkpt lat="-27.274438" lon="151.2900189">
  <ele>357.94</ele>
  <time>2026-09-01T19:50:57Z</time>
  <course>248.43</course>
  <speed>0.37336309405188944</speed>
  <fix>3d</fix>
</trkpt>
<trkpt lat="-27.2744381" lon="151.2900182">
  <ele>358.12</ele>
  <time>2026-09-01T19:50:57Z</time>
  <course>75.97</course>
  <speed>0.46</speed>
  <fix>3d</fix>
</trkpt>
<trkpt lat="-27.274438" lon="151.2900191">
  <ele>357.94</ele>
  <time>2026-09-01T19:50:57Z</time>
  <course>248.42</course>
  <speed>0.23</speed>
  <fix>3d</fix>
</trkpt>
<trkpt lat="-27.2744381" lon="151.2900182">
  <ele>358.12</ele>
  <time>2026-09-01T19:50:57Z</time>
  <course>75.97</course>
  <speed>0.46</speed>
  <fix>3d</fix>
</trkpt>
<trkpt lat="-27.274438" lon="151.2900193">
  <ele>357.94</ele>
  <time>2026-09-01T19:50:57Z</time>
  <course>248.48</course>
  <speed>0.1063014581273465</speed>
  <fix>3d</fix>
</trkpt>
<trkpt lat="-27.2744379" lon="151.290019">
  <ele>358.12</ele>
  <time>2026-09-01T19:50:57Z</time>
  <course>87.93</course>
  <speed>0.24</speed>
  <fix>3d</fix>
</trkpt>
<trkpt lat="-27.2744381" lon="151.2900193">
  <ele>357.94</ele>
  <time>2026-09-01T19:50:57Z</time>
  <course>248.62</course>
  <speed>0.1835755975068582</speed>
  <fix>3d</fix>
</trkpt>
<trkpt lat="-27.2744379" lon="151.290019">
  <ele>358.12</ele>
  <time>2026-09-01T19:50:57Z</time>
  <course>87.93</course>
  <speed>0.24</speed>
  <fix>3d</fix>
</trkpt>
<trkpt lat="-27.2744382" lon="151.2900192">
  <ele>357.94</ele>
  <time>2026-09-01T19:50:57Z</time>
  <course>248.8</course>
  <speed>0.36796738985948196</speed>
  <fix>3d</fix>
</trkpt>
<trkpt lat="-27.2744379" lon="151.2900192">
  <ele>358.12</ele>
  <time>2026-09-01T19:50:57Z</time>
  <course>207.45</course>
  <speed>0.16</speed>
  <fix>3d</fix>
</trkpt>
<trkpt lat="-27.2744385" lon="151.2900188">
  <ele>357.94</ele>
  <time>2026-09-01T19:50:57Z</time>
  <course>248.98</course>
  <speed>0.5720139858430037</speed>
  <fix>3d</fix>
</trkpt>
<trkpt lat="-27.2744379" lon="151.2900192">
  <ele>358.12</ele>
  <time>2026-09-01T19:50:57Z</time>
  <course>207.45</course>
  <speed>0.16</speed>
  <fix>3d</fix>
</trkpt>
<trkpt lat="-27.2744388" lon="151.2900182">
  <ele>357.94</ele>
  <time>2026-09-01T19:50:57Z</time>
  <course>249.14</course>
  <speed>0.7793587107359485</speed>
  <fix>3d</fix>
</trkpt>
<trkpt lat="-27.2744384" lon="151.2900188">
  <ele>358.12</ele>
  <time>2026-09-01T19:50:57Z</time>
  <course>234.76</course>
  <speed>0.53</speed>
  <fix>3d</fix>
</trkpt>
<trkpt lat="-27.2744392" lon="151.2900174">
  <ele>357.94</ele>
  <time>2026-09-01T19:50:57Z</time>
  <course>249.21</course>
  <speed>0.9741663102366043</speed>
  <fix>3d</fix>
</trkpt>
<trkpt lat="-27.2744384" lon="151.2900188">
  <ele>358.12</ele>
  <time>2026-09-01T19:50:57Z</time>
  <course>234.76</course>
  <speed>0.53</speed>
  <fix>3d</fix>
</trkpt>
<trkpt lat="-27.2744397" lon="151.2900165">
  <ele>357.94</ele>
  <time>2026-09-01T19:50:57Z</time>
  <course>249.19</course>
  <speed>1.1164676439557037</speed>
  <fix>3d</fix>
</trkpt>
<trkpt lat="-27.2744391" lon="151.2900176">
  <ele>358.12</ele>
  <time>2026-09-01T19:50:57Z</time>
  <course>239.08</course>
  <speed>0.91</speed>
  <fix>3d</fix>
</trkpt>
<trkpt lat="-27.2744402" lon="151.2900155">
  <ele>357.94</ele>
  <time>2026-09-01T19:50:57Z</time>
  <course>249.13</course>
  <speed>1.1884864324004711</speed>
  <fix>3d</fix>
</trkpt>
<trkpt lat="-27.2744391" lon="151.2900176">
  <ele>358.12</ele>
  <time>2026-09-01T19:50:57Z</time>
  <course>239.08</course>
  <speed>0.91</speed>
  <fix>3d</fix>
</trkpt>
<trkpt lat="-27.2744408" lon="151.2900145">
  <ele>357.95</ele>
  <time>2026-09-01T19:50:57Z</time>
  <course>249.06</course>
  <speed>1.2159358535712317</speed>
  <fix>3d</fix>
</trkpt>
<trkpt lat="-27.27444" lon="151.2900157">
  <ele>358.13</ele>
  <time>2026-09-01T19:50:57Z</time>
  <course>239.77</course>
  <speed>1.14</speed>
  <fix>3d</fix>
</trkpt>
<trkpt lat="-27.2744413" lon="151.2900135">
  <ele>357.95</ele>
  <time>2026-09-01T19:50:57Z</time>
  <course>248.97</course>
  <speed>1.2126417442921877</speed>
  <fix>3d</fix>
</trkpt>
<trkpt lat="-27.27444" lon="151.2900157">
  <ele>358.13</ele>
  <time>2026-09-01T19:50:57Z</time>
  <course>239.77</course>
  <speed>1.14</speed>
  <fix>3d</fix>
</trkpt>
<trkpt lat="-27.2744419" lon="151.2900125">
  <ele>357.95</ele>
  <time>2026-09-01T19:50:57Z</time>
  <course>248.89</course>
  <speed>1.1872657663724664</speed>
  <fix>3d</fix>
</trkpt>
<trkpt lat="-27.2744411" lon="151.2900137">
  <ele>358.13</ele>
  <time>2026-09-01T19:50:57Z</time>
  <course>238.9</course>
  <speed>1.18</speed>
  <fix>3d</fix>
</trkpt>
<trkpt lat="-27.2744424" lon="151.2900115">
  <ele>357.96</ele>
  <time>2026-09-01T19:50:57Z</time>
  <course>248.81</course>
  <speed>1.1621101496846158</speed>
  <fix>3d</fix>
</trkpt>
<trkpt lat="-27.2744411" lon="151.2900137">
  <ele>358.13</ele>
  <time>2026-09-01T19:50:57Z</time>
  <course>238.9</course>
  <speed>1.18</speed>
  <fix>3d</fix>
</trkpt>
<trkpt lat="-27.274443" lon="151.2900106">
  <ele>357.96</ele>
  <time>2026-09-01T19:50:57Z</time>
  <course>248.73</course>
  <speed>1.128937553631732</speed>
  <fix>3d</fix>
</trkpt>
<trkpt lat="-27.2744422" lon="151.2900116">
  <ele>358.14</ele>
  <time>2026-09-01T19:50:57Z</time>
  <course>237.35</course>
  <speed>1.14</speed>
  <fix>3d</fix>
</trkpt>
<trkpt lat="-27.2744435" lon="151.2900097">
  <ele>357.96</ele>
  <time>2026-09-01T19:50:57Z</time>
  <course>248.51</course>
  <speed>1.1043550153822819</speed>
  <fix>3d</fix>
</trkpt>
<trkpt lat="-27.2744422" lon="151.2900116">
  <ele>358.14</ele>
  <time>2026-09-01T19:50:57Z</time>
  <course>237.35</course>
  <speed>1.14</speed>
  <fix>3d</fix>
</trkpt>
<trkpt lat="-27.2744441" lon="151.2900088">
  <ele>357.97</ele>
  <time>2026-09-01T19:50:57Z</time>
  <course>247.88</course>
  <speed>1.0580170130957252</speed>
  <fix>3d</fix>
</trkpt>
<trkpt lat="-27.2744433" lon="151.2900098">
  <ele>358.14</ele>
  <time>2026-09-01T19:50:57Z</time>
  <course>235.46</course>
  <speed>1.08</speed>
  <fix>3d</fix>
</trkpt>
<trkpt lat="-27.2744446" lon="151.290008">
  <ele>357.97</ele>
  <time>2026-09-01T19:50:57Z</time>
  <course>246.5</course>
  <speed>1.0200490184299968</speed>
  <fix>3d</fix>
</trkpt>
<trkpt lat="-27.2744433" lon="151.2900098">
  <ele>358.14</ele>
  <time>2026-09-01T19:50:57Z</time>
  <course>235.46</course>
  <speed>1.08</speed>
  <fix>3d</fix>
</trkpt>
<trkpt lat="-27.2744451" lon="151.2900072">
  <ele>357.97</ele>
  <time>2026-09-01T19:50:57Z</time>
  <course>244.1</course>
  <speed>0.982344135219425</speed>
  <fix>3d</fix>
</trkpt>
<trkpt lat="-27.2744444" lon="151.2900081">
  <ele>358.15</ele>
  <time>2026-09-01T19:50:57Z</time>
  <course>233.47</course>
  <speed>1.0</speed>
  <fix>3d</fix>
</trkpt>
<trkpt lat="-27.2744457" lon="151.2900064">
  <ele>357.96</ele>
  <time>2026-09-01T19:50:57Z</time>
  <course>240.56</course>
  <speed>0.9449338601193208</speed>
  <fix>3d</fix>
</trkpt>
<trkpt lat="-27.2744444" lon="151.2900081">
  <ele>358.15</ele>
  <time>2026-09-01T19:50:57Z</time>
  <course>233.47</course>
  <speed>1.0</speed>
  <fix>3d</fix>
</trkpt>
<trkpt lat="-27.2744462" lon="151.2900057">
  <ele>357.96</ele>
  <time>2026-09-01T19:50:57Z</time>
  <course>235.88</course>
  <speed>0.9013878188659973</speed>
  <fix>3d</fix>
</trkpt>
<trkpt lat="-27.2744455" lon="151.2900065">
  <ele>358.15</ele>
  <time>2026-09-01T19:50:57Z</time>
  <course>231.64</course>
  <speed>0.92</speed>
  <fix>3d</fix>
</trkpt>
<trkpt lat="-27.2744467" lon="151.2900051">
  <ele>357.96</ele>
  <time>2026-09-01T19:50:57Z</time>
  <course>230.26</course>
  <speed>0.850411665018772</speed>
  <fix>3d</fix>
</trkpt>
<trkpt lat="-27.2744455" lon="151.2900065">
  <ele>358.15</ele>
  <time>2026-09-01T19:50:57Z</time>
  <course>231.64</course>
  <speed>0.92</speed>
  <fix>3d</fix>
</trkpt>
<trkpt lat="-27.2744471" lon="151.2900044">
  <ele>357.96</ele>
  <time>2026-09-01T19:50:57Z</time>
  <course>223.81</course>
  <speed>0.8072174428244225</speed>
  <fix>3d</fix>
</trkpt>
<trkpt lat="-27.2744464" lon="151.2900051">
  <ele>358.14</ele>
  <time>2026-09-01T19:50:57Z</time>
  <course>230.12</course>
  <speed>0.83</speed>
  <fix>3d</fix>
</trkpt>
<trkpt lat="-27.2744476" lon="151.2900039">
  <ele>357.95</ele>
  <time>2026-09-01T19:50:57Z</time>
  <course>216.8</course>
  <speed>0.757429864739964</speed>
  <fix>3d</fix>
</trkpt>
<trkpt lat="-27.2744464" lon="151.2900051">
  <ele>358.14</ele>
  <time>2026-09-01T19:50:57Z</time>
  <course>230.12</course>
  <speed>0.83</speed>
  <fix>3d</fix>
</trkpt>
<trkpt lat="-27.274448" lon="151.2900033">
  <ele>357.95</ele>
  <time>2026-09-01T19:50:57Z</time>
  <course>209.31</course>
  <speed>0.7144928271158499</speed>
  <fix>3d</fix>
</trkpt>
<trkpt lat="-27.2744474" lon="151.2900039">
  <ele>358.14</ele>
  <time>2026-09-01T19:50:57Z</time>
  <course>228.81</course>
  <speed>0.74</speed>
  <fix>3d</fix>
</trkpt>
<trkpt lat="-27.2744484" lon="151.2900028">
  <ele>357.94</ele>
  <time>2026-09-01T19:50:57Z</time>
  <course>201.77</course>
  <speed>0.6576473218982953</speed>
  <fix>3d</fix>
</trkpt>
<trkpt lat="-27.2744474" lon="151.2900039">
  <ele>358.14</ele>
  <time>2026-09-01T19:50:57Z</time>
  <course>228.81</course>
  <speed>0.74</speed>
  <fix>3d</fix>
</trkpt>
<trkpt lat="-27.2744488" lon="151.2900023">
  <ele>357.94</ele>
  <time>2026-09-01T19:50:57Z</time>
  <course>194.2</course>
  <speed>0.6081118318204308</speed>
  <fix>3d</fix>
</trkpt>
<trkpt lat="-27.2744482" lon="151.2900029">
  <ele>358.14</ele>
  <time>2026-09-01T19:50:57Z</time>
  <course>227.44</course>
  <speed>0.65</speed>
  <fix>3d</fix>
</trkpt>
<trkpt lat="-27.2744492" lon="151.2900019">
  <ele>357.94</ele>
  <time>2026-09-01T19:50:57Z</time>
  <course>186.76</course>
  <speed>0.5658621740318044</speed>
  <fix>3d</fix>
</trkpt>
<trkpt lat="-27.2744482" lon="151.2900029">
  <ele>358.14</ele>
  <time>2026-09-01T19:50:57Z</time>
  <course>227.44</course>
  <speed>0.65</speed>
  <fix>3d</fix>
</trkpt>
<trkpt lat="-27.2744495" lon="151.2900016">
  <ele>357.94</ele>
  <time>2026-09-01T19:50:57Z</time>
  <course>179.71</course>
  <speed>0.5099019513592785</speed>
  <fix>3d</fix>
</trkpt>
<trkpt lat="-27.2744489" lon="151.2900019">
  <ele>358.14</ele>
  <time>2026-09-01T19:50:57Z</time>
  <course>225.5</course>
  <speed>0.55</speed>
  <fix>3d</fix>
</trkpt>
<trkpt lat="-27.2744498" lon="151.2900013">
  <ele>357.95</ele>
  <time>2026-09-01T19:50:57Z</time>
  <course>173.41</course>
  <speed>0.4622769732530488</speed>
  <fix>3d</fix>
</trkpt>
<trkpt lat="-27.2744489" lon="151.2900019">
  <ele>358.14</ele>
  <time>2026-09-01T19:50:57Z</time>
  <course>225.5</course>
  <speed>0.55</speed>
  <fix>3d</fix>
</trkpt>
<trkpt lat="-27.2744501" lon="151.290001">
  <ele>357.95</ele>
  <time>2026-09-01T19:50:57Z</time>
  <course>168.15</course>
  <speed>0.41400483088968904</speed>
  <fix>3d</fix>
</trkpt>
<trkpt lat="-27.2744495" lon="151.2900012">
  <ele>358.14</ele>
  <time>2026-09-01T19:50:57Z</time>
  <course>222.07</course>
  <speed>0.45</speed>
  <fix>3d</fix>
</trkpt>
<trkpt lat="-27.2744503" lon="151.2900008">
  <ele>357.95</ele>
  <time>2026-09-01T19:50:57Z</time>
  <course>164.12</course>
  <speed>0.3689173349139343</speed>
  <fix>3d</fix>
</trkpt>
<trkpt lat="-27.2744495" lon="151.2900012">
  <ele>358.14</ele>
  <time>2026-09-01T19:50:57Z</time>
  <course>222.07</course>
  <speed>0.45</speed>
  <fix>3d</fix>
</trkpt>
<trkpt lat="-27.2744506" lon="151.2900006">
  <ele>357.95</ele>
  <time>2026-09-01T19:50:57Z</time>
  <course>161.39</course>
  <speed>0.33105890714493696</speed>
  <fix>3d</fix>
</trkpt>
<trkpt lat="-27.2744502" lon="151.2900007">
  <ele>358.14</ele>
  <time>2026-09-01T19:50:57Z</time>
  <course>215.38</course>
  <speed>0.36</speed>
  <fix>3d</fix>
</trkpt>
<trkpt lat="-27.2744508" lon="151.2900005">
  <ele>357.95</ele>
  <time>2026-09-01T19:50:57Z</time>
  <course>159.89</course>
  <speed>0.29410882339705485</speed>
  <fix>3d</fix>
</trkpt>
<trkpt lat="-27.2744502" lon="151.2900007">
  <ele>358.14</ele>
  <time>2026-09-01T19:50:57Z</time>
  <course>215.38</course>
  <speed>0.36</speed>
  <fix>3d</fix>
</trkpt>
<trkpt lat="-27.2744511" lon="151.2900004">
  <ele>357.95</ele>
  <time>2026-09-01T19:50:57Z</time>
  <course>159.48</course>
  <speed>0.27294688127912364</speed>
  <fix>3d</fix>
</trkpt>
<trkpt lat="-27.2744507" lon="151.2900004">
  <ele>358.14</ele>
  <time>2026-09-01T19:50:57Z</time>
  <course>202.78</course>
  <speed>0.29</speed>
  <fix>3d</fix>
</trkpt>
<trkpt lat="-27.2744513" lon="151.2900004">
  <ele>357.95</ele>
  <time>2026-09-01T19:50:57Z</time>
  <course>159.95</course>
  <speed>0.27018512172212594</speed>
  <fix>3d</fix>
</trkpt>
<trkpt lat="-27.2744507" lon="151.2900004">
  <ele>358.14</ele>
  <time>2026-09-01T19:50:57Z</time>
  <course>202.78</course>
  <speed>0.29</speed>
  <fix>3d</fix>
</trkpt>
<trkpt lat="-27.2744515" lon="151.2900004">
  <ele>357.95</ele>
  <time>2026-09-01T19:50:57Z</time>
  <course>161.05</course>
  <speed>0.2668332812825267</speed>
  <fix>3d</fix>
</trkpt>
<trkpt lat="-27.2744512" lon="151.2900003">
  <ele>358.14</ele>
  <time>2026-09-01T19:50:57Z</time>
  <course>182.75</course>
  <speed>0.25</speed>
  <fix>3d</fix>
</trkpt>
<trkpt lat="-27.2744517" lon="151.2900005">
  <ele>357.95</ele>
  <time>2026-09-01T19:50:57Z</time>
  <course>162.53</course>
  <speed>0.2863564212655271</speed>
  <fix>3d</fix>
</trkpt>
<trkpt lat="-27.2744512" lon="151.2900003">
  <ele>358.14</ele>
  <time>2026-09-01T19:50:57Z</time>
  <course>182.75</course>
  <speed>0.25</speed>
  <fix>3d</fix>
</trkpt>
<trkpt lat="-27.2744519" lon="151.2900005">
  <ele>357.95</ele>
  <time>2026-09-01T19:50:57Z</time>
  <course>164.18</course>
  <speed>0.3023243291566195</speed>
  <fix>3d</fix>
</trkpt>
<trkpt lat="-27.2744516" lon="151.2900004">
  <ele>358.14</ele>
  <time>2026-09-01T19:50:57Z</time>
  <course>159.55</course>
  <speed>0.26</speed>
  <fix>3d</fix>
</trkpt>
<trkpt lat="-27.2744522" lon="151.2900007">
  <ele>357.95</ele>
  <time>2026-09-01T19:50:57Z</time>
  <course>165.79</course>
  <speed>0.33241540277189324</speed>
  <fix>3d</fix>
</trkpt>
<trkpt lat="-27.2744516" lon="151.2900004">
  <ele>358.14</ele>
  <time>2026-09-01T19:50:57Z</time>
  <course>159.55</course>
  <speed>0.26</speed>
  <fix>3d</fix>
</trkpt>
<trkpt lat="-27.2744524" lon="151.290001">
  <ele>357.95</ele>
  <time>2026-09-01T19:50:57Z</time>
  <course>167.16</course>
  <speed>0.3687817782917155</speed>
  <fix>3d</fix>
</trkpt>
<trkpt lat="-27.2744521" lon="151.2900006">
  <ele>358.15</ele>
  <time>2026-09-01T19:50:57Z</time>
  <course>140.26</course>
  <speed>0.3</speed>
  <fix>3d</fix>
</trkpt>
<trkpt lat="-27.2744526" lon="151.2900013">
  <ele>357.95</ele>
  <time>2026-09-01T19:50:57Z</time>
  <course>168.15</course>
  <speed>0.4022437072223753</speed>
  <fix>3d</fix>
</trkpt>
<trkpt lat="-27.2744521" lon="151.2900006">
  <ele>358.15</ele>
  <time>2026-09-01T19:50:57Z</time>
  <course>140.26</course>
  <speed>0.3</speed>
  <fix>3d</fix>
</trkpt>
<trkpt lat="-27.2744527" lon="151.2900016">
  <ele>357.95</ele>
  <time>2026-09-01T19:50:57Z</time>
  <course>168.64</course>
  <speed>0.439089968002003</speed>
  <fix>3d</fix>
</trkpt>
<trkpt lat="-27.2744525" lon="151.290001">
  <ele>358.15</ele>
  <time>2026-09-01T19:50:57Z</time>
  <course>126.5</course>
  <speed>0.37</speed>
  <fix>3d</fix>
</trkpt>
<trkpt lat="-27.2744529" lon="151.290002">
  <ele>357.95</ele>
  <time>2026-09-01T19:50:57Z</time>
  <course>168.64</course>
  <speed>0.4875448697299562</speed>
  <fix>3d</fix>
</trkpt>
<trkpt lat="-27.2744525" lon="151.290001">
  <ele>358.15</ele>
  <time>2026-09-01T19:50:57Z</time>
  <course>126.5</course>
  <speed>0.37</speed>
  <fix>3d</fix>
</trkpt>
<trkpt lat="-27.2744531" lon="151.2900025">
  <ele>357.95</ele>
  <time>2026-09-01T19:50:57Z</time>
  <course>168.21</course>
  <speed>0.5255473337388366</speed>
  <fix>3d</fix>
</trkpt>
<trkpt lat="-27.2744529" lon="151.2900018">
  <ele>358.15</ele>
  <time>2026-09-01T19:50:57Z</time>
  <course>116.7</course>
  <speed>0.44</speed>
  <fix>3d</fix>
</trkpt>
<trkpt lat="-27.2744533" lon="151.290003">
  <ele>357.95</ele>
  <time>2026-09-01T19:50:57Z</time>
  <course>167.28</course>
  <speed>0.5536244214266564</speed>
  <fix>3d</fix>
</trkpt>
<trkpt lat="-27.2744529" lon="151.2900018">
  <ele>358.15</ele>
  <time>2026-09-01T19:50:57Z</time>
  <course>116.7</course>
  <speed>0.44</speed>
  <fix>3d</fix>
</trkpt>
<trkpt lat="-27.2744533" lon="151.2900035">
  <ele>357.95</ele>
  <time>2026-09-01T19:50:57Z</time>
  <course>166.18</course>
  <speed>0.5514526271584895</speed>
  <fix>3d</fix>
</trkpt>
<trkpt lat="-27.2744531" lon="151.2900027">
  <ele>358.15</ele>
  <time>2026-09-01T19:50:57Z</time>
  <course>103.57</course>
  <speed>0.49</speed>
  <fix>3d</fix>
</trkpt>
<trkpt lat="-27.2744533" lon="151.290004">
  <ele>357.95</ele>
  <time>2026-09-01T19:50:57Z</time>
  <course>165.21</course>
  <speed>0.5748912940721924</speed>
  <fix>3d</fix>
</trkpt>
<trkpt lat="-27.2744531" lon="151.2900027">
  <ele>358.15</ele>
  <time>2026-09-01T19:50:57Z</time>
  <course>103.57</course>
  <speed>0.49</speed>
  <fix>3d</fix>
</trkpt>
<trkpt lat="-27.2744531" lon="151.2900046">
  <ele>357.95</ele>
  <time>2026-09-01T19:50:57Z</time>
  <course>164.45</course>
  <speed>0.6488451279003334</speed>
  <fix>3d</fix>
</trkpt>
<trkpt lat="-27.2744531" lon="151.2900037">
  <ele>358.15</ele>
  <time>2026-09-01T19:50:57Z</time>
  <course>75.71</course>
  <speed>0.54</speed>
  <fix>3d</fix>
</trkpt>
<trkpt lat="-27.2744528" lon="151.2900051">
  <ele>357.95</ele>
  <time>2026-09-01T19:50:57Z</time>
  <course>163.89</course>
  <speed>0.7648529270389177</speed>
  <fix>3d</fix>
</trkpt>
<trkpt lat="-27.2744531" lon="151.2900037">
  <ele>358.15</ele>
  <time>2026-09-01T19:50:57Z</time>
  <course>75.71</course>
  <speed>0.54</speed>
  <fix>3d</fix>
</trkpt>
<trkpt lat="-27.2744522" lon="151.2900057">
  <ele>357.95</ele>
  <time>2026-09-01T19:50:57Z</time>
  <course>163.58</course>
  <speed>0.9027181176868004</speed>
  <fix>3d</fix>
</trkpt>
<trkpt lat="-27.2744527" lon="151.2900047">
  <ele>358.15</ele>
  <time>2026-09-01T19:50:57Z</time>
  <course>46.92</course>
  <speed>0.73</speed>
  <fix>3d</fix>
</trkpt>
<trkpt lat="-27.2744515" lon="151.2900062">
  <ele>357.95</ele>
  <time>2026-09-01T19:50:57Z</time>
  <course>163.41</course>
  <speed>1.040096149401583</speed>
  <fix>3d</fix>
</trkpt>
<trkpt lat="-27.2744527" lon="151.2900047">
  <ele>358.15</ele>
  <time>2026-09-01T19:50:57Z</time>
  <course>46.92</course>
  <speed>0.73</speed>
  <fix>3d</fix>
</trkpt>
<trkpt lat="-27.2744506" lon="151.2900068">
  <ele>357.95</ele>
  <time>2026-09-01T19:50:57Z</time>
  <course>163.31</course>
  <speed>1.1733712115098103</speed>
  <fix>3d</fix>
</trkpt>
<trkpt lat="-27.2744515" lon="151.2900058">
  <ele>358.15</ele>
  <time>2026-09-01T19:50:57Z</time>
  <course>32.47</course>
  <speed>1.01</speed>
  <fix>3d</fix>
</trkpt>
<trkpt lat="-27.2744497" lon="151.2900073">
  <ele>357.95</ele>
  <time>2026-09-01T19:50:57Z</time>
  <course>163.28</course>
  <speed>1.2747548783981961</speed>
  <fix>3d</fix>
</trkpt>
<trkpt lat="-27.2744515" lon="151.2900058">
  <ele>358.15</ele>
  <time>2026-09-01T19:50:57Z</time>
  <course>32.47</course>
  <speed>1.01</speed>
  <fix>3d</fix>
</trkpt>
<trkpt lat="-27.2744486" lon="151.2900079">
  <ele>357.96</ele>
  <time>2026-09-01T19:50:57Z</time>
  <course>163.42</course>
  <speed>1.337235955244997</speed>
  <fix>3d</fix>
</trkpt>
<trkpt lat="-27.2744497" lon="151.290007">
  <ele>358.15</ele>
  <time>2026-09-01T19:50:57Z</time>
  <course>26.9</course>
  <speed>1.23</speed>
  <fix>3d</fix>
</trkpt>
<trkpt lat="-27.2744476" lon="151.2900084">
  <ele>357.96</ele>
  <time>2026-09-01T19:50:57Z</time>
  <course>163.7</course>
  <speed>1.3209844813622906</speed>
  <fix>3d</fix>
</trkpt>
<trkpt lat="-27.2744497" lon="151.290007">
  <ele>358.15</ele>
  <time>2026-09-01T19:50:57Z</time>
  <course>26.9</course>
  <speed>1.23</speed>
  <fix>3d</fix>
</trkpt>
<trkpt lat="-27.2744466" lon="151.2900091">
  <ele>357.96</ele>
  <time>2026-09-01T19:50:57Z</time>
  <course>164.1</course>
  <speed>1.2758134659894447</speed>
  <fix>3d</fix>
</trkpt>
<trkpt lat="-27.2744476" lon="151.2900082">
  <ele>358.15</ele>
  <time>2026-09-01T19:50:57Z</time>
  <course>28.74</course>
  <speed>1.29</speed>
  <fix>3d</fix>
</trkpt>
<trkpt lat="-27.2744457" lon="151.2900098">
  <ele>357.96</ele>
  <time>2026-09-01T19:50:57Z</time>
  <course>164.72</course>
  <speed>1.2151131634543344</speed>
  <fix>3d</fix>
</trkpt>
<trkpt lat="-27.2744476" lon="151.2900082">
  <ele>358.15</ele>
  <time>2026-09-01T19:50:57Z</time>
  <course>28.74</course>
  <speed>1.29</speed>
  <fix>3d</fix>
</trkpt>
<trkpt lat="-27.2744449" lon="151.2900106">
  <ele>357.97</ele>
  <time>2026-09-01T19:50:57Z</time>
  <course>165.64</course>
  <speed>1.1669190203266036</speed>
  <fix>3d</fix>
</trkpt>
<trkpt lat="-27.2744457" lon="151.2900095">
  <ele>358.16</ele>
  <time>2026-09-01T19:50:57Z</time>
  <course>37.52</course>
  <speed>1.2</speed>
  <fix>3d</fix>
</trkpt>
<trkpt lat="-27.2744443" lon="151.2900114">
  <ele>357.97</ele>
  <time>2026-09-01T19:50:57Z</time>
  <course>166.84</course>
  <speed>1.134063490286148</speed>
  <fix>3d</fix>
</trkpt>
<trkpt lat="-27.2744457" lon="151.2900095">
  <ele>358.16</ele>
  <time>2026-09-01T19:50:57Z</time>
  <course>37.52</course>
  <speed>1.2</speed>
  <fix>3d</fix>
</trkpt>
<trkpt lat="-27.2744437" lon="151.2900123">
  <ele>357.97</ele>
  <time>2026-09-01T19:50:57Z</time>
  <course>168.26</course>
  <speed>1.1113955191559843</speed>
  <fix>3d</fix>
</trkpt>
<trkpt lat="-27.2744442" lon="151.2900111">
  <ele>358.16</ele>
  <time>2026-09-01T19:50:57Z</time>
  <course>50.33</course>
  <speed>1.11</speed>
  <fix>3d</fix>
</trkpt>
<trkpt lat="-27.2744433" lon="151.2900133">
  <ele>357.97</ele>
  <time>2026-09-01T19:50:57Z</time>
  <course>169.79</course>
  <speed>1.101680534456337</speed>
  <fix>3d</fix>
</trkpt>
<trkpt lat="-27.2744442" lon="151.2900111">
  <ele>358.16</ele>
  <time>2026-09-01T19:50:57Z</time>
  <course>50.33</course>
  <speed>1.11</speed>
  <fix>3d</fix>
</trkpt>
<trkpt lat="-27.2744429" lon="151.2900143">
  <ele>357.97</ele>
  <time>2026-09-01T19:50:57Z</time>
  <course>171.3</course>
  <speed>1.1044002897500524</speed>
  <fix>3d</fix>
</trkpt>
<trkpt lat="-27.2744432" lon="151.2900129">
  <ele>358.16</ele>
  <time>2026-09-01T19:50:57Z</time>
  <course>64.47</course>
  <speed>1.07</speed>
  <fix>3d</fix>
</trkpt>
<trkpt lat="-27.2744427" lon="151.2900153">
  <ele>357.97</ele>
  <time>2026-09-01T19:50:57Z</time>
  <course>172.64</course>
  <speed>1.1261438629233833</speed>
  <fix>3d</fix>
</trkpt>
<trkpt lat="-27.2744432" lon="151.2900129">
  <ele>358.16</ele>
  <time>2026-09-01T19:50:57Z</time>
  <course>64.47</course>
  <speed>1.07</speed>
  <fix>3d</fix>
</trkpt>
<trkpt lat="-27.2744425" lon="151.2900164">
  <ele>357.96</ele>
  <time>2026-09-01T19:50:57Z</time>
  <course>173.7</course>
  <speed>1.1535163631262453</speed>
  <fix>3d</fix>
</trkpt>
<trkpt lat="-27.2744426" lon="151.290015">
  <ele>358.16</ele>
  <time>2026-09-01T19:50:57Z</time>
  <course>78.0</course>
  <speed>1.08</speed>
  <fix>3d</fix>
</trkpt>
<trkpt lat="-27.2744425" lon="151.2900176">
  <ele>357.96</ele>
  <time>2026-09-01T19:50:57Z</time>
  <course>174.4</course>
  <speed>1.1827087553578015</speed>
  <fix>3d</fix>
</trkpt>
<trkpt lat="-27.2744426" lon="151.290015">
  <ele>358.16</ele>
  <time>2026-09-01T19:50:57Z</time>
  <course>78.0</course>
  <speed>1.08</speed>
  <fix>3d</fix>
</trkpt>
<trkpt lat="-27.2744424" lon="151.2900187">
  <ele>357.95</ele>
  <time>2026-09-01T19:50:57Z</time>
  <course>174.72</course>
  <speed>1.2126417442921877</speed>
  <fix>3d</fix>
</trkpt>
<trkpt lat="-27.2744422" lon="151.2900172">
  <ele>358.15</ele>
  <time>2026-09-01T19:50:57Z</time>
  <course>84.67</course>
  <speed>1.13</speed>
  <fix>3d</fix>
</trkpt>
<trkpt lat="-27.2744423" lon="151.2900199">
  <ele>357.95</ele>
  <time>2026-09-01T19:50:57Z</time>
  <course>174.69</course>
  <speed>1.2325988804148738</speed>
  <fix>3d</fix>
</trkpt>
<trkpt lat="-27.2744422" lon="151.2900172">
  <ele>358.15</ele>
  <time>2026-09-01T19:50:57Z</time>
  <course>84.67</course>
  <speed>1.13</speed>
  <fix>3d</fix>
</trkpt>
<trkpt lat="-27.2744422" lon="151.2900211">
  <ele>357.95</ele>
  <time>2026-09-01T19:50:57Z</time>
  <course>174.46</course>
  <speed>1.2619429464123961</speed>
  <fix>3d</fix>
</trkpt>
<trkpt lat="-27.2744421" lon="151.2900196">
  <ele>358.14</ele>
  <time>2026-09-01T19:50:57Z</time>
  <course>85.42</course>
  <speed>1.19</speed>
  <fix>3d</fix>
</trkpt>
<trkpt lat="-27.2744421" lon="151.2900224">
  <ele>357.95</ele>
  <time>2026-09-01T19:50:57Z</time>
  <course>174.22</course>
  <speed>1.29</speed>
  <fix>3d</fix>
</trkpt>
<trkpt lat="-27.2744421" lon="151.2900196">
  <ele>358.14</ele>
  <time>2026-09-01T19:50:57Z</time>
  <course>85.42</course>
  <speed>1.19</speed>
  <fix>3d</fix>
</trkpt>
<trkpt lat="-27.2744422" lon="151.2900237">
  <ele>357.94</ele>
  <time>2026-09-01T19:50:57Z</time>
  <course>173.83</course>
  <speed>1.3373481222179961</speed>
  <fix>3d</fix>
</trkpt>
<trkpt lat="-27.274442" lon="151.290022">
  <ele>358.13</ele>
  <time>2026-09-01T19:50:57Z</time>
  <course>90.6</course>
  <speed>1.24</speed>
  <fix>3d</fix>
</trkpt>
<trkpt lat="-27.2744424" lon="151.290025">
  <ele>357.94</ele>
  <time>2026-09-01T19:50:57Z</time>
  <course>173.44</course>
  <speed>1.4091841611372162</speed>
  <fix>3d</fix>
</trkpt>
<trkpt lat="-27.274442" lon="151.290022">
  <ele>358.13</ele>
  <time>2026-09-01T19:50:57Z</time>
  <course>90.6</course>
  <speed>1.24</speed>
  <fix>3d</fix>
</trkpt>
<trkpt lat="-27.2744428" lon="151.2900264">
  <ele>357.94</ele>
  <time>2026-09-01T19:50:57Z</time>
  <course>173.11</course>
  <speed>1.5227934856703322</speed>
  <fix>3d</fix>
</trkpt>
<trkpt lat="-27.2744422" lon="151.2900246">
  <ele>358.13</ele>
  <time>2026-09-01T19:50:57Z</time>
  <course>103.54</course>
  <speed>1.36</speed>
  <fix>3d</fix>
</trkpt>
<trkpt lat="-27.2744432" lon="151.2900277">
  <ele>357.94</ele>
  <time>2026-09-01T19:50:57Z</time>
  <course>172.9</course>
  <speed>1.6552945357246849</speed>
  <fix>3d</fix>
</trkpt>
<trkpt lat="-27.2744422" lon="151.2900246">
  <ele>358.13</ele>
  <time>2026-09-01T19:50:57Z</time>
  <course>103.54</course>
  <speed>1.36</speed>
  <fix>3d</fix>
</trkpt>
<trkpt lat="-27.274444" lon="151.2900292">
  <ele>357.94</ele>
  <time>2026-09-01T19:50:57Z</time>
  <course>172.79</course>
  <speed>1.8278402556022229</speed>
  <fix>3d</fix>
</trkpt>
<trkpt lat="-27.2744432" lon="151.2900274">
  <ele>358.13</ele>
  <time>2026-09-01T19:50:57Z</time>
  <course>118.25</course>
  <speed>1.6</speed>
  <fix>3d</fix>
</trkpt>
<trkpt lat="-27.2744451" lon="151.2900307">
  <ele>357.93</ele>
  <time>2026-09-01T19:50:57Z</time>
  <course>172.77</course>
  <speed>2.0179197209007103</speed>
  <fix>3d</fix>
</trkpt>
<trkpt lat="-27.2744432" lon="151.2900274">
  <ele>358.13</ele>
  <time>2026-09-01T19:50:57Z</time>
  <course>118.25</course>
  <speed>1.6</speed>
  <fix>3d</fix>
</trkpt>
<trkpt lat="-27.2744463" lon="151.2900322">
  <ele>357.93</ele>
  <time>2026-09-01T19:50:57Z</time>
  <course>172.78</course>
  <speed>2.2207206037680653</speed>
  <fix>3d</fix>
</trkpt>
<trkpt lat="-27.274445" lon="151.2900303">
  <ele>358.12</ele>
  <time>2026-09-01T19:50:57Z</time>
  <course>129.78</course>
  <speed>1.96</speed>
  <fix>3d</fix>
</trkpt>
<trkpt lat="-27.2744478" lon="151.2900338">
  <ele>357.93</ele>
  <time>2026-09-01T19:50:57Z</time>
  <course>172.71</course>
  <speed>2.4129857024027306</speed>
  <fix>3d</fix>
</trkpt>
<trkpt lat="-27.274445" lon="151.2900303">
  <ele>358.12</ele>
  <time>2026-09-01T19:50:57Z</time>
  <course>129.78</course>
  <speed>1.96</speed>
  <fix>3d</fix>
</trkpt>
<trkpt lat="-27.2744494" lon="151.2900354">
  <ele>357.93</ele>
  <time>2026-09-01T19:50:57Z</time>
  <course>172.57</course>
  <speed>2.552214724508892</speed>
  <fix>3d</fix>
</trkpt>
<trkpt lat="-27.2744476" lon="151.2900335">
  <ele>358.12</ele>
  <time>2026-09-01T19:50:57Z</time>
  <course>137.16</course>
  <speed>2.33</speed>
  <fix>3d</fix>
</trkpt>
<trkpt lat="-27.2744511" lon="151.2900371">
  <ele>357.94</ele>
  <time>2026-09-01T19:50:57Z</time>
  <course>172.45</course>
  <speed>2.619637379485947</speed>
  <fix>3d</fix>
</trkpt>
<trkpt lat="-27.2744476" lon="151.2900335">
  <ele>358.12</ele>
  <time>2026-09-01T19:50:57Z</time>
  <course>137.16</course>
  <speed>2.33</speed>
  <fix>3d</fix>
</trkpt>
<trkpt lat="-27.2744529" lon="151.2900387">
  <ele>357.94</ele>
  <time>2026-09-01T19:50:57Z</time>
  <course>172.35</course>
  <speed>2.6568025895801894</speed>
  <fix>3d</fix>
</trkpt>
<trkpt lat="-27.274451" lon="151.2900368">
  <ele>358.12</ele>
  <time>2026-09-01T19:50:57Z</time>
  <course>140.48</course>
  <speed>2.56</speed>
  <fix>3d</fix>
</trkpt>
<trkpt lat="-27.2744547" lon="151.2900403">
  <ele>357.95</ele>
  <time>2026-09-01T19:50:57Z</time>
  <course>172.26</course>
  <speed>2.6645262243033</speed>
  <fix>3d</fix>
</trkpt>
<trkpt lat="-27.274451" lon="151.2900368">
  <ele>358.12</ele>
  <time>2026-09-01T19:50:57Z</time>
  <course>140.48</course>
  <speed>2.56</speed>
  <fix>3d</fix>
</trkpt>
<trkpt lat="-27.2744565" lon="151.290042">
  <ele>357.96</ele>
  <time>2026-09-01T19:50:57Z</time>
  <course>172.17</course>
  <speed>2.6645262243033</speed>
  <fix>3d</fix>
</trkpt>
<trkpt lat="-27.2744546" lon="151.2900401">
  <ele>358.14</ele>
  <time>2026-09-01T19:50:57Z</time>
  <course>141.28</course>
  <speed>2.64</speed>
  <fix>3d</fix>
</trkpt>
<trkpt lat="-27.2744583" lon="151.2900436">
  <ele>357.97</ele>
  <time>2026-09-01T19:50:57Z</time>
  <course>172.1</course>
  <speed>2.6645262243033</speed>
  <fix>3d</fix>
</trkpt>
<trkpt lat="-27.2744546" lon="151.2900401">
  <ele>358.14</ele>
  <time>2026-09-01T19:50:57Z</time>
  <course>141.28</course>
  <speed>2.64</speed>
  <fix>3d</fix>
</trkpt>
<trkpt lat="-27.2744601" lon="151.2900453">
  <ele>357.97</ele>
  <time>2026-09-01T19:50:57Z</time>
  <course>172.05</course>
  <speed>2.6568025895801894</speed>
  <fix>3d</fix>
</trkpt>
<trkpt lat="-27.2744583" lon="151.2900434">
  <ele>358.15</ele>
  <time>2026-09-01T19:50:57Z</time>
  <course>141.27</course>
  <speed>2.64</speed>
  <fix>3d</fix>
</trkpt>
<trkpt lat="-27.2744619" lon="151.2900469">
  <ele>357.98</ele>
  <time>2026-09-01T19:50:57Z</time>
  <course>172.02</course>
  <speed>2.6350142314606195</speed>
  <fix>3d</fix>
</trkpt>
<trkpt lat="-27.2744583" lon="151.2900434">
  <ele>358.15</ele>
  <time>2026-09-01T19:50:57Z</time>
  <course>141.27</course>
  <speed>2.64</speed>
  <fix>3d</fix>
</trkpt>
<trkpt lat="-27.2744637" lon="151.2900486">
  <ele>357.99</ele>
  <time>2026-09-01T19:50:57Z</time>
  <course>171.96</course>
  <speed>2.6119724347703213</speed>
  <fix>3d</fix>
</trkpt>
<trkpt lat="-27.274462" lon="151.2900468">
  <ele>358.16</ele>
  <time>2026-09-01T19:50:57Z</time>
  <course>140.99</course>
  <speed>2.61</speed>
  <fix>3d</fix>
</trkpt>
<trkpt lat="-27.2744655" lon="151.2900502">
  <ele>358.0</ele>
  <time>2026-09-01T19:50:57Z</time>
  <course>171.88</course>
  <speed>2.530553299181821</speed>
  <fix>3d</fix>
</trkpt>
<trkpt lat="-27.274462" lon="151.2900468">
  <ele>358.16</ele>
  <time>2026-09-01T19:50:57Z</time>
  <course>140.99</course>
  <speed>2.61</speed>
  <fix>3d</fix>
</trkpt>
<trkpt lat="-27.2744671" lon="151.2900519">
  <ele>358.01</ele>
  <time>2026-09-01T19:50:58Z</time>
  <course>171.84</course>
  <speed>2.3910667075596197</speed>
  <fix>3d</fix>
</trkpt>
<trkpt lat="-27.2744656" lon="151.2900501">
  <ele>358.18</ele>
  <time>2026-09-01T19:50:58Z</time>
  <course>139.22</course>
  <speed>2.49</speed>
  <fix>3d</fix>
</trkpt>
<trkpt lat="-27.2744686" lon="151.2900535">
  <ele>358.02</ele>
  <time>2026-09-01T19:50:58Z</time>
  <course>171.85</course>
  <speed>2.2351733713517614</speed>
  <fix>3d</fix>
</trkpt>
<trkpt lat="-27.2744656" lon="151.2900501">
  <ele>358.18</ele>
  <time>2026-09-01T19:50:58Z</time>
  <course>139.22</course>
  <speed>2.49</speed>
  <fix>3d</fix>
</trkpt>
<trkpt lat="-27.2744699" lon="151.2900551">
  <ele>358.02</ele>
  <time>2026-09-01T19:50:58Z</time>
  <course>171.9</course>
  <speed>2.066518811915343</speed>
  <fix>3d</fix>
</trkpt>
<trkpt lat="-27.2744687" lon="151.2900533">
  <ele>358.19</ele>
  <time>2026-09-01T19:50:58Z</time>
  <course>134.21</course>
  <speed>2.22</speed>
  <fix>3d</fix>
</trkpt>
<trkpt lat="-27.274471" lon="151.2900567">
  <ele>358.03</ele>
  <time>2026-09-01T19:50:58Z</time>
  <course>172.0</course>
  <speed>1.8999473676920633</speed>
  <fix>3d</fix>
</trkpt>
<trkpt lat="-27.2744687" lon="151.2900533">
  <ele>358.19</ele>
  <time>2026-09-01T19:50:58Z</time>
  <course>134.21</course>
  <speed>2.22</speed>
  <fix>3d</fix>
</trkpt>
<trkpt lat="-27.2744718" lon="151.2900582">
  <ele>358.03</ele>
  <time>2026-09-01T19:50:58Z</time>
  <course>172.12</course>
  <speed>1.7494284781036347</speed>
  <fix>3d</fix>
</trkpt>
<trkpt lat="-27.2744711" lon="151.2900565">
  <ele>358.2</ele>
  <time>2026-09-01T19:50:58Z</time>
  <course>125.26</course>
  <speed>1.89</speed>
  <fix>3d</fix>
</trkpt>
<trkpt lat="-27.2744724" lon="151.2900597">
  <ele>358.03</ele>
  <time>2026-09-01T19:50:58Z</time>
  <course>172.25</course>
  <speed>1.6233607116103308</speed>
  <fix>3d</fix>
</trkpt>
<trkpt lat="-27.2744711" lon="151.2900565">
  <ele>358.2</ele>
  <time>2026-09-01T19:50:58Z</time>
  <course>125.26</course>
  <speed>1.89</speed>
  <fix>3d</fix>
</trkpt>
<trkpt lat="-27.2744729" lon="151.2900612">
  <ele>358.02</ele>
  <time>2026-09-01T19:50:58Z</time>
  <course>172.4</course>
  <speed>1.523975065412817</speed>
  <fix>3d</fix>
</trkpt>
<trkpt lat="-27.2744726" lon="151.2900596">
  <ele>358.19</ele>
  <time>2026-09-01T19:50:58Z</time>
  <course>111.69</course>
  <speed>1.61</speed>
  <fix>3d</fix>
</trkpt>
<trkpt lat="-27.274473" lon="151.2900627">
  <ele>358.02</ele>
  <time>2026-09-01T19:50:58Z</time>
  <course>172.58</course>
  <speed>1.4727525250360294</speed>
  <fix>3d</fix>
</trkpt>
<trkpt lat="-27.2744726" lon="151.2900596">
  <ele>358.19</ele>
  <time>2026-09-01T19:50:58Z</time>
  <course>111.69</course>
  <speed>1.61</speed>
  <fix>3d</fix>
</trkpt>
<trkpt lat="-27.2744731" lon="151.2900642">
  <ele>358.01</ele>
  <time>2026-09-01T19:50:58Z</time>
  <course>172.74</course>
  <speed>1.452205219657332</speed>
  <fix>3d</fix>
</trkpt>
<trkpt lat="-27.2744732" lon="151.2900626">
  <ele>358.18</ele>
  <time>2026-09-01T19:50:58Z</time>
  <course>95.23</course>
  <speed>1.46</speed>
  <fix>3d</fix>
</trkpt>
<trkpt lat="-27.2744729" lon="151.2900656">
  <ele>358.0</ele>
  <time>2026-09-01T19:50:58Z</time>
  <course>172.83</course>
  <speed>1.4425671561490647</speed>
  <fix>3d</fix>
</trkpt>
<trkpt lat="-27.2744732" lon="151.2900626">
  <ele>358.18</ele>
  <time>2026-09-01T19:50:58Z</time>
  <course>95.23</course>
  <speed>1.46</speed>
  <fix>3d</fix>
</trkpt>
<trkpt lat="-27.2744728" lon="151.290067">
  <ele>358.0</ele>
  <time>2026-09-01T19:50:58Z</time>
  <course>172.84</course>
  <speed>1.4279005567615695</speed>
  <fix>3d</fix>
</trkpt>
<trkpt lat="-27.2744732" lon="151.2900655">
  <ele>358.17</ele>
  <time>2026-09-01T19:50:58Z</time>
  <course>85.1</course>
  <speed>1.42</speed>
  <fix>3d</fix>
</trkpt>
<trkpt lat="-27.2744727" lon="151.2900684">
  <ele>357.99</ele>
  <time>2026-09-01T19:50:58Z</time>
  <course>172.81</course>
  <speed>1.417956275771577</speed>
  <fix>3d</fix>
</trkpt>
<trkpt lat="-27.2744732" lon="151.2900655">
  <ele>358.17</ele>
  <time>2026-09-01T19:50:58Z</time>
  <course>85.1</course>
  <speed>1.42</speed>
  <fix>3d</fix>
</trkpt>
<trkpt lat="-27.2744726" lon="151.2900699">
  <ele>357.99</ele>
  <time>2026-09-01T19:50:58Z</time>
  <course>172.77</course>
  <speed>1.4080127840328722</speed>
  <fix>3d</fix>
</trkpt>
<trkpt lat="-27.2744729" lon="151.2900684">
  <ele>358.17</ele>
  <time>2026-09-01T19:50:58Z</time>
  <course>83.22</course>
  <speed>1.4</speed>
  <fix>3d</fix>
</trkpt>
<trkpt lat="-27.2744725" lon="151.2900712">
  <ele>357.99</ele>
  <time>2026-09-01T19:50:58Z</time>
  <course>172.74</course>
  <speed>1.3870832707519762</speed>
  <fix>3d</fix>
</trkpt>
<trkpt lat="-27.2744729" lon="151.2900684">
  <ele>358.17</ele>
  <time>2026-09-01T19:50:58Z</time>
  <course>83.22</course>
  <speed>1.4</speed>
  <fix>3d</fix>
</trkpt>
<trkpt lat="-27.2744723" lon="151.2900726">
  <ele>357.99</ele>
  <time>2026-09-01T19:50:58Z</time>
  <course>172.72</course>
  <speed>1.3761540611428649</speed>
  <fix>3d</fix>
</trkpt>
<trkpt lat="-27.2744726" lon="151.2900712">
  <ele>358.17</ele>
  <time>2026-09-01T19:50:58Z</time>
  <course>83.26</course>
  <speed>1.37</speed>
  <fix>3d</fix>
</trkpt>
<trkpt lat="-27.2744722" lon="151.290074">
  <ele>357.98</ele>
  <time>2026-09-01T19:50:58Z</time>
  <course>172.73</course>
  <speed>1.361322886019331</speed>
  <fix>3d</fix>
</trkpt>
<trkpt lat="-27.2744726" lon="151.2900712">
  <ele>358.17</ele>
  <time>2026-09-01T19:50:58Z</time>
  <course>83.26</course>
  <speed>1.37</speed>
  <fix>3d</fix>
</trkpt>
<trkpt lat="-27.2744723" lon="151.2900753">
  <ele>357.97</ele>
  <time>2026-09-01T19:50:58Z</time>
  <course>172.77</course>
  <speed>1.361800279042415</speed>
  <fix>3d</fix>
</trkpt>
<trkpt lat="-27.2744725" lon="151.2900739">
  <ele>358.16</ele>
  <time>2026-09-01T19:50:58Z</time>
  <course>87.51</course>
  <speed>1.34</speed>
  <fix>3d</fix>
</trkpt>
<trkpt lat="-27.2744724" lon="151.2900767">
  <ele>357.96</ele>
  <time>2026-09-01T19:50:58Z</time>
  <course>172.85</course>
  <speed>1.3810141201305655</speed>
  <fix>3d</fix>
</trkpt>
<trkpt lat="-27.2744725" lon="151.2900739">
  <ele>358.16</ele>
  <time>2026-09-01T19:50:58Z</time>
  <course>87.51</course>
  <speed>1.34</speed>
  <fix>3d</fix>
</trkpt>
<trkpt lat="-27.2744727" lon="151.2900781">
  <ele>357.95</ele>
  <time>2026-09-01T19:50:58Z</time>
  <course>172.97</course>
  <speed>1.4358969322343438</speed>
  <fix>3d</fix>
</trkpt>
<trkpt lat="-27.2744726" lon="151.2900766">
  <ele>358.15</ele>
  <time>2026-09-01T19:50:58Z</time>
  <course>99.17</course>
  <speed>1.36</speed>
  <fix>3d</fix>
</trkpt>
<trkpt lat="-27.2744732" lon="151.2900794">
  <ele>357.94</ele>
  <time>2026-09-01T19:50:58Z</time>
  <course>173.13</course>
  <speed>1.517003625572464</speed>
  <fix>3d</fix>
</trkpt>
<trkpt lat="-27.2744726" lon="151.2900766">
  <ele>358.15</ele>
  <time>2026-09-01T19:50:58Z</time>
  <course>99.17</course>
  <speed>1.36</speed>
  <fix>3d</fix>
</trkpt>
<trkpt lat="-27.2744738" lon="151.2900808">
  <ele>357.93</ele>
  <time>2026-09-01T19:50:58Z</time>
  <course>173.27</course>
  <speed>1.610372627685903</speed>
  <fix>3d</fix>
</trkpt>
<trkpt lat="-27.2744732" lon="151.2900794">
  <ele>358.12</ele>
  <time>2026-09-01T19:50:58Z</time>
  <course>113.81</course>
  <speed>1.47</speed>
  <fix>3d</fix>
</trkpt>
<trkpt lat="-27.2744747" lon="151.2900822">
  <ele>357.92</ele>
  <time>2026-09-01T19:50:58Z</time>
  <course>173.4</course>
  <speed>1.7420103329199859</speed>
  <fix>3d</fix>
</trkpt>
<trkpt lat="-27.2744732" lon="151.2900794">
  <ele>358.12</ele>
  <time>2026-09-01T19:50:58Z</time>
  <course>113.81</course>
  <speed>1.47</speed>
  <fix>3d</fix>
</trkpt>
<trkpt lat="-27.2744757" lon="151.2900836">
  <ele>357.91</ele>
  <time>2026-09-01T19:50:58Z</time>
  <course>173.51</course>
  <speed>1.8768324379123458</speed>
  <fix>3d</fix>
</trkpt>
<trkpt lat="-27.2744747" lon="151.2900821">
  <ele>358.09</ele>
  <time>2026-09-01T19:50:58Z</time>
  <course>126.5</course>
  <speed>1.69</speed>
  <fix>3d</fix>
</trkpt>
<trkpt lat="-27.2744769" lon="151.290085">
  <ele>357.9</ele>
  <time>2026-09-01T19:50:58Z</time>
  <course>173.58</course>
  <speed>1.9728405916343064</speed>
  <fix>3d</fix>
</trkpt>
<trkpt lat="-27.2744747" lon="151.2900821">
  <ele>358.09</ele>
  <time>2026-09-01T19:50:58Z</time>
  <course>126.5</course>
  <speed>1.69</speed>
  <fix>3d</fix>
</trkpt>
<trkpt lat="-27.2744782" lon="151.2900864">
  <ele>357.9</ele>
  <time>2026-09-01T19:50:58Z</time>
  <course>173.6</course>
  <speed>2.023561217260303</speed>
  <fix>3d</fix>
</trkpt>
<trkpt lat="-27.2744768" lon="151.2900848">
  <ele>358.08</ele>
  <time>2026-09-01T19:50:58Z</time>
  <course>134.51</course>
  <speed>1.9</speed>
  <fix>3d</fix>
</trkpt>
<trkpt lat="-27.2744795" lon="151.2900877">
  <ele>357.9</ele>
  <time>2026-09-01T19:50:58Z</time>
  <course>173.58</course>
  <speed>2.0180436070610566</speed>
  <fix>3d</fix>
</trkpt>
<trkpt lat="-27.2744768" lon="151.2900848">
  <ele>358.08</ele>
  <time>2026-09-01T19:50:58Z</time>
  <course>134.51</course>
  <speed>1.9</speed>
  <fix>3d</fix>
</trkpt>
<trkpt lat="-27.2744809" lon="151.290089">
  <ele>357.9</ele>
  <time>2026-09-01T19:50:58Z</time>
  <course>173.56</course>
  <speed>1.9980990966416057</speed>
  <fix>3d</fix>
</trkpt>
<trkpt lat="-27.2744794" lon="151.2900876">
  <ele>358.08</ele>
  <time>2026-09-01T19:50:58Z</time>
  <course>137.93</course>
  <speed>1.97</speed>
  <fix>3d</fix>
</trkpt>
<trkpt lat="-27.2744822" lon="151.2900903">
  <ele>357.91</ele>
  <time>2026-09-01T19:50:58Z</time>
  <course>173.72</course>
  <speed>1.9557607215607944</speed>
  <fix>3d</fix>
</trkpt>
<trkpt lat="-27.2744794" lon="151.2900876">
  <ele>358.08</ele>
  <time>2026-09-01T19:50:58Z</time>
  <course>137.93</course>
  <speed>1.97</speed>
  <fix>3d</fix>
</trkpt>
<trkpt lat="-27.2744834" lon="151.2900916">
  <ele>357.91</ele>
  <time>2026-09-01T19:50:58Z</time>
  <course>174.37</course>
  <speed>1.9134262462922367</speed>
  <fix>3d</fix>
</trkpt>
<trkpt lat="-27.274482" lon="151.2900902">
  <ele>358.09</ele>
  <time>2026-09-01T19:50:58Z</time>
  <course>138.89</course>
  <speed>1.92</speed>
  <fix>3d</fix>
</trkpt>
<trkpt lat="-27.2744847" lon="151.2900928">
  <ele>357.92</ele>
  <time>2026-09-01T19:50:58Z</time>
  <course>175.84</course>
  <speed>1.863571839237758</speed>
  <fix>3d</fix>
</trkpt>
<trkpt lat="-27.274482" lon="151.2900902">
  <ele>358.09</ele>
  <time>2026-09-01T19:50:58Z</time>
  <course>138.89</course>
  <speed>1.92</speed>
  <fix>3d</fix>
</trkpt>
<trkpt lat="-27.2744859" lon="151.290094">
  <ele>357.93</ele>
  <time>2026-09-01T19:50:58Z</time>
  <course>178.28</course>
  <speed>1.8137254478007414</speed>
  <fix>3d</fix>
</trkpt>
<trkpt lat="-27.2744846" lon="151.2900927">
  <ele>358.1</ele>
  <time>2026-09-01T19:50:58Z</time>
  <course>138.92</course>
  <speed>1.83</speed>
  <fix>3d</fix>
</trkpt>
<trkpt lat="-27.2744871" lon="151.2900952">
  <ele>357.94</ele>
  <time>2026-09-01T19:50:58Z</time>
  <course>181.79</course>
  <speed>1.7564168070250294</speed>
  <fix>3d</fix>
</trkpt>
<trkpt lat="-27.2744846" lon="151.2900927">
  <ele>358.1</ele>
  <time>2026-09-01T19:50:58Z</time>
  <course>138.92</course>
  <speed>1.83</speed>
  <fix>3d</fix>
</trkpt>
<trkpt lat="-27.2744882" lon="151.2900964">
  <ele>357.95</ele>
  <time>2026-09-01T19:50:58Z</time>
  <course>186.32</course>
  <speed>1.7059015211904818</speed>
  <fix>3d</fix>
</trkpt>
<trkpt lat="-27.274487" lon="151.2900951">
  <ele>358.12</ele>
  <time>2026-09-01T19:50:58Z</time>
  <course>138.32</course>
  <speed>1.73</speed>
  <fix>3d</fix>
</trkpt>
<trkpt lat="-27.2744893" lon="151.2900975">
  <ele>357.96</ele>
  <time>2026-09-01T19:50:58Z</time>
  <course>191.7</course>
  <speed>1.6483021567661678</speed>
  <fix>3d</fix>
</trkpt>
<trkpt lat="-27.274487" lon="151.2900951">
  <ele>358.12</ele>
  <time>2026-09-01T19:50:58Z</time>
  <course>138.32</course>
  <speed>1.73</speed>
  <fix>3d</fix>
</trkpt>
<trkpt lat="-27.2744903" lon="151.2900986">
  <ele>357.97</ele>
  <time>2026-09-01T19:50:58Z</time>
  <course>197.74</course>
  <speed>1.598311609167624</speed>
  <fix>3d</fix>
</trkpt>
<trkpt lat="-27.2744892" lon="151.2900973">
  <ele>358.13</ele>
  <time>2026-09-01T19:50:58Z</time>
  <course>137.08</course>
  <speed>1.62</speed>
  <fix>3d</fix>
</trkpt>
<trkpt lat="-27.2744913" lon="151.2900997">
  <ele>357.98</ele>
  <time>2026-09-01T19:50:58Z</time>
  <course>204.24</course>
  <speed>1.5414927829866736</speed>
  <fix>3d</fix>
</trkpt>
<trkpt lat="-27.2744892" lon="151.2900973">
  <ele>358.13</ele>
  <time>2026-09-01T19:50:58Z</time>
  <course>137.08</course>
  <speed>1.62</speed>
  <fix>3d</fix>
</trkpt>
<trkpt lat="-27.2744922" lon="151.2901007">
  <ele>357.98</ele>
  <time>2026-09-01T19:50:58Z</time>
  <course>211.02</course>
  <speed>1.4851935900750448</speed>
  <fix>3d</fix>
</trkpt>
<trkpt lat="-27.2744913" lon="151.2900996">
  <ele>358.14</ele>
  <time>2026-09-01T19:50:58Z</time>
  <course>135.15</course>
  <speed>1.51</speed>
  <fix>3d</fix>
</trkpt>
<trkpt lat="-27.2744931" lon="151.2901018">
  <ele>357.98</ele>
  <time>2026-09-01T19:50:58Z</time>
  <course>217.85</course>
  <speed>1.422708684165525</speed>
  <fix>3d</fix>
</trkpt>
<trkpt lat="-27.2744913" lon="151.2900996">
  <ele>358.14</ele>
  <time>2026-09-01T19:50:58Z</time>
  <course>135.15</course>
  <speed>1.51</speed>
  <fix>3d</fix>
</trkpt>
<trkpt lat="-27.2744939" lon="151.2901028">
  <ele>357.98</ele>
  <time>2026-09-01T19:50:58Z</time>
  <course>224.44</course>
  <speed>1.3656134152826707</speed>
  <fix>3d</fix>
</trkpt>
<trkpt lat="-27.2744931" lon="151.2901017">
  <ele>358.15</ele>
  <time>2026-09-01T19:50:58Z</time>
  <course>133.24</course>
  <speed>1.39</speed>
  <fix>3d</fix>
</trkpt>
<trkpt lat="-27.2744948" lon="151.2901037">
  <ele>357.99</ele>
  <time>2026-09-01T19:50:58Z</time>
  <course>230.51</course>
  <speed>1.289728653632228</speed>
  <fix>3d</fix>
</trkpt>
<trkpt lat="-27.2744931" lon="151.2901017">
  <ele>358.15</ele>
  <time>2026-09-01T19:50:58Z</time>
  <course>133.24</course>
  <speed>1.39</speed>
  <fix>3d</fix>
</trkpt>
<trkpt lat="-27.2744957" lon="151.2901045">
  <ele>358.0</ele>
  <time>2026-09-01T19:50:58Z</time>
  <course>235.77</course>
  <speed>1.2182774724995944</speed>
  <fix>3d</fix>
</trkpt>
<trkpt lat="-27.2744948" lon="151.2901036">
  <ele>358.16</ele>
  <time>2026-09-01T19:50:58Z</time>
  <course>137.8</course>
  <speed>1.25</speed>
  <fix>3d</fix>
</trkpt>
<trkpt lat="-27.2744965" lon="151.2901051">
  <ele>358.0</ele>
  <time>2026-09-01T19:50:58Z</time>
  <course>239.9</course>
  <speed>1.1438968484964018</speed>
  <fix>3d</fix>
</trkpt>
<trkpt lat="-27.2744948" lon="151.2901036">
  <ele>358.16</ele>
  <time>2026-09-01T19:50:58Z</time>
  <course>137.8</course>
  <speed>1.25</speed>
  <fix>3d</fix>
</trkpt>
<trkpt lat="-27.2744974" lon="151.2901057">
  <ele>358.01</ele>
  <time>2026-09-01T19:50:58Z</time>
  <course>242.66</course>
  <speed>1.0647065323364933</speed>
  <fix>3d</fix>
</trkpt>
<trkpt lat="-27.2744964" lon="151.2901051">
  <ele>358.17</ele>
  <time>2026-09-01T19:50:58Z</time>
  <course>147.43</course>
  <speed>1.11</speed>
  <fix>3d</fix>
</trkpt>
<trkpt lat="-27.2744982" lon="151.2901062">
  <ele>358.01</ele>
  <time>2026-09-01T19:50:58Z</time>
  <course>244.08</course>
  <speed>1.0017983829094554</speed>
  <fix>3d</fix>
</trkpt>
<trkpt lat="-27.2744964" lon="151.2901051">
  <ele>358.17</ele>
  <time>2026-09-01T19:50:58Z</time>
  <course>147.43</course>
  <speed>1.11</speed>
  <fix>3d</fix>
</trkpt>
<trkpt lat="-27.274499" lon="151.2901066">
  <ele>358.01</ele>
  <time>2026-09-01T19:50:58Z</time>
  <course>244.39</course>
  <speed>0.9261209424259879</speed>
  <fix>3d</fix>
</trkpt>
<trkpt lat="-27.2744964" lon="151.2901051">
  <ele>358.17</ele>
  <time>2026-09-01T19:50:58Z</time>
  <course>147.43</course>
  <speed>1.11</speed>
  <fix>3d</fix>
</trkpt>
<trkpt lat="-27.2744997" lon="151.2901069">
  <ele>358.0</ele>
  <time>2026-09-01T19:50:58Z</time>
  <course>243.89</course>
  <speed>0.85492689745966</speed>
  <fix>3d</fix>
</trkpt>
<trkpt lat="-27.2744981" lon="151.2901061">
  <ele>358.18</ele>
  <time>2026-09-01T19:50:58Z</time>
  <course>152.98</course>
  <speed>0.97</speed>
  <fix>3d</fix>
</trkpt>
<trkpt lat="-27.2745003" lon="151.2901073">
  <ele>358.0</ele>
  <time>2026-09-01T19:50:58Z</time>
  <course>242.85</course>
  <speed>0.7930952023559341</speed>
  <fix>3d</fix>
</trkpt>
<trkpt lat="-27.2744981" lon="151.2901061">
  <ele>358.18</ele>
  <time>2026-09-01T19:50:58Z</time>
  <course>152.98</course>
  <speed>0.97</speed>
  <fix>3d</fix>
</trkpt>
<trkpt lat="-27.2745009" lon="151.2901076">
  <ele>357.99</ele>
  <time>2026-09-01T19:50:58Z</time>
  <course>241.52</course>
  <speed>0.722357252334328</speed>
  <fix>3d</fix>
</trkpt>
<trkpt lat="-27.2744996" lon="151.2901068">
  <ele>358.17</ele>
  <time>2026-09-01T19:50:58Z</time>
  <course>155.44</course>
  <speed>0.83</speed>
  <fix>3d</fix>
</trkpt>
<trkpt lat="-27.2745015" lon="151.2901078">
  <ele>357.97</ele>
  <time>2026-09-01T19:50:58Z</time>
  <course>240.09</course>
  <speed>0.657875368135941</speed>
  <fix>3d</fix>
</trkpt>
<trkpt lat="-27.2745008" lon="151.2901074">
  <ele>358.16</ele>
  <time>2026-09-01T19:50:58Z</time>
  <course>157.75</course>
  <speed>0.69</speed>
  <fix>3d</fix>
</trkpt>
<trkpt lat="-27.274502" lon="151.290108">
  <ele>357.96</ele>
  <time>2026-09-01T19:50:58Z</time>
  <course>238.74</course>
  <speed>0.5882176467941097</speed>
  <fix>3d</fix>
</trkpt>
<trkpt lat="-27.2745008" lon="151.2901074">
  <ele>358.16</ele>
  <time>2026-09-01T19:50:58Z</time>
  <course>157.75</course>
  <speed>0.69</speed>
  <fix>3d</fix>
</trkpt>
<trkpt lat="-27.2745025" lon="151.2901081">
  <ele>357.95</ele>
  <time>2026-09-01T19:50:58Z</time>
  <course>237.6</course>
  <speed>0.5192301994298868</speed>
  <fix>3d</fix>
</trkpt>
<trkpt lat="-27.2745019" lon="151.2901079">
  <ele>358.13</ele>
  <time>2026-09-01T19:50:58Z</time>
  <course>161.27</course>
  <speed>0.55</speed>
  <fix>3d</fix>
</trkpt>
<trkpt lat="-27.2745029" lon="151.2901082">
  <ele>357.94</ele>
  <time>2026-09-01T19:50:58Z</time>
  <course>236.84</course>
  <speed>0.4491102314577124</speed>
  <fix>3d</fix>
</trkpt>
<trkpt lat="-27.2745019" lon="151.2901079">
  <ele>358.13</ele>
  <time>2026-09-01T19:50:58Z</time>
  <course>161.27</course>
  <speed>0.55</speed>
  <fix>3d</fix>
</trkpt>
<trkpt lat="-27.2745032" lon="151.2901083">
  <ele>357.92</ele>
  <time>2026-09-01T19:50:58Z</time>
  <course>236.84</course>
  <speed>0.3640054944640259</speed>
  <fix>3d</fix>
</trkpt>
<trkpt lat="-27.2745027" lon="151.2901082">
  <ele>358.11</ele>
  <time>2026-09-01T19:50:58Z</time>
  <course>163.43</course>
  <speed>0.41</speed>
  <fix>3d</fix>
</trkpt>
<trkpt lat="-27.2745034" lon="151.2901085">
  <ele>357.92</ele>
  <time>2026-09-01T19:50:58Z</time>
  <course>237.07</course>
  <speed>0.2765863337187866</speed>
  <fix>3d</fix>
</trkpt>
<trkpt lat="-27.2745027" lon="151.2901082">
  <ele>358.11</ele>
  <time>2026-09-01T19:50:58Z</time>
  <course>163.43</course>
  <speed>0.41</speed>
  <fix>3d</fix>
</trkpt>
<trkpt lat="-27.2745035" lon="151.2901087">
  <ele>357.91</ele>
  <time>2026-09-01T19:50:58Z</time>
  <course>237.48</course>
  <speed>0.304138126514911</speed>
  <fix>3d</fix>
</trkpt>
<trkpt lat="-27.2745032" lon="151.2901084">
  <ele>358.09</ele>
  <time>2026-09-01T19:50:58Z</time>
  <course>132.08</course>
  <speed>0.26</speed>
  <fix>3d</fix>
</trkpt>
<trkpt lat="-27.2745035" lon="151.2901091">
  <ele>357.9</ele>
  <time>2026-09-01T19:50:58Z</time>
  <course>238.01</course>
  <speed>0.4464302857109943</speed>
  <fix>3d</fix>
</trkpt>
<trkpt lat="-27.2745032" lon="151.2901084">
  <ele>358.09</ele>
  <time>2026-09-01T19:50:58Z</time>
  <course>132.08</course>
  <speed>0.26</speed>
  <fix>3d</fix>
</trkpt>
<trkpt lat="-27.2745033" lon="151.2901096">
  <ele>357.9</ele>
  <time>2026-09-01T19:50:58Z</time>
  <course>238.53</course>
  <speed>0.6352952069707436</speed>
  <fix>3d</fix>
</trkpt>
<trkpt lat="-27.2745033" lon="151.2901091">
  <ele>358.08</ele>
  <time>2026-09-01T19:50:58Z</time>
  <course>70.74</course>
  <speed>0.44</speed>
  <fix>3d</fix>
</trkpt>
<trkpt lat="-27.274503" lon="151.2901102">
  <ele>357.9</ele>
  <time>2026-09-01T19:50:58Z</time>
  <course>239.01</course>
  <speed>0.8292767933567176</speed>
  <fix>3d</fix>
</trkpt>
<trkpt lat="-27.2745033" lon="151.2901091">
  <ele>358.08</ele>
  <time>2026-09-01T19:50:58Z</time>
  <course>70.74</course>
  <speed>0.44</speed>
  <fix>3d</fix>
</trkpt>
<trkpt lat="-27.2745025" lon="151.290111">
  <ele>357.9</ele>
  <time>2026-09-01T19:50:58Z</time>
  <course>239.6</course>
  <speed>1.0</speed>
  <fix>3d</fix>
</trkpt>
<trkpt lat="-27.2745028" lon="151.2901102">
  <ele>358.08</ele>
  <time>2026-09-01T19:50:58Z</time>
  <course>54.98</course>
  <speed>0.83</speed>
  <fix>3d</fix>
</trkpt>
<trkpt lat="-27.2745019" lon="151.2901118">
  <ele>357.9</ele>
  <time>2026-09-01T19:50:58Z</time>
  <course>240.17</course>
  <speed>1.1370136322841515</speed>
  <fix>3d</fix>
</trkpt>
<trkpt lat="-27.2745028" lon="151.2901102">
  <ele>358.08</ele>
  <time>2026-09-01T19:50:58Z</time>
  <course>54.98</course>
  <speed>0.83</speed>
  <fix>3d</fix>
</trkpt>
<trkpt lat="-27.2745012" lon="151.2901127">
  <ele>357.91</ele>
  <time>2026-09-01T19:50:58Z</time>
  <course>240.49</course>
  <speed>1.1975391434103522</speed>
  <fix>3d</fix>
</trkpt>
<trkpt lat="-27.2745017" lon="151.2901118">
  <ele>358.08</ele>
  <time>2026-09-01T19:50:58Z</time>
  <course>49.58</course>
  <speed>1.12</speed>
  <fix>3d</fix>
</trkpt>
<trkpt lat="-27.2745004" lon="151.2901136">
  <ele>357.91</ele>
  <time>2026-09-01T19:50:58Z</time>
  <course>240.6</course>
  <speed>1.1738824472663352</speed>
  <fix>3d</fix>
</trkpt>
<trkpt lat="-27.2745017" lon="151.2901118">
  <ele>358.08</ele>
  <time>2026-09-01T19:50:58Z</time>
  <course>49.58</course>
  <speed>1.12</speed>
  <fix>3d</fix>
</trkpt>
<trkpt lat="-27.2744997" lon="151.2901144">
  <ele>357.92</ele>
  <time>2026-09-01T19:50:58Z</time>
  <course>240.53</course>
  <speed>1.105350623105628</speed>
  <fix>3d</fix>
</trkpt>
<trkpt lat="-27.2745003" lon="151.2901135">
  <ele>358.09</ele>
  <time>2026-09-01T19:50:58Z</time>
  <course>44.45</course>
  <speed>1.19</speed>
  <fix>3d</fix>
</trkpt>
<trkpt lat="-27.2744989" lon="151.290115">
  <ele>357.93</ele>
  <time>2026-09-01T19:50:58Z</time>
  <course>240.18</course>
  <speed>1.0220078277586722</speed>
  <fix>3d</fix>
</trkpt>
<trkpt lat="-27.2745003" lon="151.2901135">
  <ele>358.09</ele>
  <time>2026-09-01T19:50:58Z</time>
  <course>44.45</course>
  <speed>1.19</speed>
  <fix>3d</fix>
</trkpt>
<trkpt lat="-27.2744981" lon="151.2901156">
  <ele>357.94</ele>
  <time>2026-09-01T19:50:58Z</time>
  <course>239.49</course>
  <speed>0.9466784036831093</speed>
  <fix>3d</fix>
</trkpt>
<trkpt lat="-27.2744987" lon="151.290115">
  <ele>358.12</ele>
  <time>2026-09-01T19:50:58Z</time>
  <course>36.32</course>
  <speed>1.07</speed>
  <fix>3d</fix>
</trkpt>
<trkpt lat="-27.2744974" lon="151.290116">
  <ele>357.94</ele>
  <time>2026-09-01T19:50:58Z</time>
  <course>238.5</course>
  <speed>0.8814193099768123</speed>
  <fix>3d</fix>
</trkpt>
<trkpt lat="-27.2744987" lon="151.290115">
  <ele>358.12</ele>
  <time>2026-09-01T19:50:58Z</time>
  <course>36.32</course>
  <speed>1.07</speed>
  <fix>3d</fix>
</trkpt>
<trkpt lat="-27.2744966" lon="151.2901163">
  <ele>357.95</ele>
  <time>2026-09-01T19:50:58Z</time>
  <course>237.28</course>
  <speed>0.8381527307120105</speed>
  <fix>3d</fix>
</trkpt>
<trkpt lat="-27.2744987" lon="151.290115">
  <ele>358.12</ele>
  <time>2026-09-01T19:50:58Z</time>
  <course>36.32</course>
  <speed>1.07</speed>
  <fix>3d</fix>
</trkpt>
<trkpt lat="-27.2744959" lon="151.2901165">
  <ele>357.95</ele>
  <time>2026-09-01T19:50:58Z</time>
  <course>235.91</course>
  <speed>0.8121576201698781</speed>
  <fix>3d</fix>
</trkpt>
<trkpt lat="-27.2744972" lon="151.290116">
  <ele>358.13</ele>
  <time>2026-09-01T19:50:58Z</time>
  <course>24.88</course>
  <speed>0.94</speed>
  <fix>3d</fix>
</trkpt>
<trkpt lat="-27.2744952" lon="151.2901166">
  <ele>357.96</ele>
  <time>2026-09-01T19:50:58Z</time>
  <course>234.49</course>
  <speed>0.7905694150420949</speed>
  <fix>3d</fix>
</trkpt>
<trkpt lat="-27.2744972" lon="151.290116">
  <ele>358.13</ele>
  <time>2026-09-01T19:50:58Z</time>
  <course>24.88</course>
  <speed>0.94</speed>
  <fix>3d</fix>
</trkpt>
<trkpt lat="-27.2744944" lon="151.2901166">
  <ele>357.96</ele>
  <time>2026-09-01T19:50:58Z</time>
  <course>233.09</course>
  <speed>0.7930952023559341</speed>
  <fix>3d</fix>
</trkpt>
<trkpt lat="-27.2744956" lon="151.2901167">
  <ele>358.14</ele>
  <time>2026-09-01T19:50:58Z</time>
  <course>11.22</course>
  <speed>0.86</speed>
  <fix>3d</fix>
</trkpt>
<trkpt lat="-27.2744937" lon="151.2901165">
  <ele>357.96</ele>
  <time>2026-09-01T19:50:58Z</time>
  <course>231.8</course>
  <speed>0.7983107164506812</speed>
  <fix>3d</fix>
</trkpt>
<trkpt lat="-27.2744956" lon="151.2901167">
  <ele>358.14</ele>
  <time>2026-09-01T19:50:58Z</time>
  <course>11.22</course>
  <speed>0.86</speed>
  <fix>3d</fix>
</trkpt>
<trkpt lat="-27.274493" lon="151.2901163">
  <ele>357.95</ele>
  <time>2026-09-01T19:50:58Z</time>
  <course>230.7</course>
  <speed>0.8254089895318564</speed>
  <fix>3d</fix>
</trkpt>
<trkpt lat="-27.2744941" lon="151.2901168">
  <ele>358.15</ele>
  <time>2026-09-01T19:50:58Z</time>
  <course>356.75</course>
  <speed>0.84</speed>
  <fix>3d</fix>
</trkpt>
<trkpt lat="-27.2744923" lon="151.290116">
  <ele>357.95</ele>
  <time>2026-09-01T19:50:58Z</time>
  <course>229.84</course>
  <speed>0.8586617494683223</speed>
  <fix>3d</fix>
</trkpt>
<trkpt lat="-27.2744941" lon="151.2901168">
  <ele>358.15</ele>
  <time>2026-09-01T19:50:58Z</time>
  <course>356.75</course>
  <speed>0.84</speed>
  <fix>3d</fix>
</trkpt>
<trkpt lat="-27.2744915" lon="151.2901157">
  <ele>357.95</ele>
  <time>2026-09-01T19:50:58Z</time>
  <course>229.11</course>
  <speed>0.8958794561770016</speed>
  <fix>3d</fix>
</trkpt>
<trkpt lat="-27.2744926" lon="151.2901165">
  <ele>358.15</ele>
  <time>2026-09-01T19:50:58Z</time>
  <course>342.66</course>
  <speed>0.87</speed>
  <fix>3d</fix>
</trkpt>
<trkpt lat="-27.2744909" lon="151.2901151">
  <ele>357.94</ele>
  <time>2026-09-01T19:50:58Z</time>
  <course>228.42</course>
  <speed>0.9479451460923254</speed>
  <fix>3d</fix>
</trkpt>
<trkpt lat="-27.2744926" lon="151.2901165">
  <ele>358.15</ele>
  <time>2026-09-01T19:50:58Z</time>
  <course>342.66</course>
  <speed>0.87</speed>
  <fix>3d</fix>
</trkpt>
<trkpt lat="-27.2744902" lon="151.2901144">
  <ele>357.94</ele>
  <time>2026-09-01T19:50:58Z</time>
  <course>228.17</course>
  <speed>1.0261578825892241</speed>
  <fix>3d</fix>
</trkpt>
<trkpt lat="-27.2744911" lon="151.2901158">
  <ele>358.14</ele>
  <time>2026-09-01T19:50:58Z</time>
  <course>327.66</course>
  <speed>0.93</speed>
  <fix>3d</fix>
</trkpt>
<trkpt lat="-27.2744897" lon="151.2901135">
  <ele>357.94</ele>
  <time>2026-09-01T19:50:58Z</time>
  <course>228.27</course>
  <speed>1.1364858116140297</speed>
  <fix>3d</fix>
</trkpt>
<trkpt lat="-27.2744898" lon="151.2901145">
  <ele>358.13</ele>
  <time>2026-09-01T19:50:58Z</time>
  <course>310.22</course>
  <speed>1.06</speed>
  <fix>3d</fix>
</trkpt>
<trkpt lat="-27.2744892" lon="151.2901124">
  <ele>357.93</ele>
  <time>2026-09-01T19:50:58Z</time>
  <course>228.58</course>
  <speed>1.2875169901791588</speed>
  <fix>3d</fix>
</trkpt>
<trkpt lat="-27.2744898" lon="151.2901145">
  <ele>358.13</ele>
  <time>2026-09-01T19:50:58Z</time>
  <course>310.22</course>
  <speed>1.06</speed>
  <fix>3d</fix>
</trkpt>
<trkpt lat="-27.2744888" lon="151.2901111">
  <ele>357.93</ele>
  <time>2026-09-01T19:50:58Z</time>
  <course>229.0</course>
  <speed>1.4653668482670132</speed>
  <fix>3d</fix>
</trkpt>
<trkpt lat="-27.2744887" lon="151.2901125">
  <ele>358.13</ele>
  <time>2026-09-01T19:50:58Z</time>
  <course>292.86</course>
  <speed>1.3</speed>
  <fix>3d</fix>
</trkpt>
<trkpt lat="-27.2744885" lon="151.2901096">
  <ele>357.93</ele>
  <time>2026-09-01T19:50:58Z</time>
  <course>229.45</course>
  <speed>1.6620770138594663</speed>
  <fix>3d</fix>
</trkpt>
<trkpt lat="-27.2744887" lon="151.2901125">
  <ele>358.13</ele>
  <time>2026-09-01T19:50:58Z</time>
  <course>292.86</course>
  <speed>1.3</speed>
  <fix>3d</fix>
</trkpt>
<trkpt lat="-27.2744883" lon="151.2901078">
  <ele>357.93</ele>
  <time>2026-09-01T19:50:58Z</time>
  <course>229.88</course>
  <speed>1.881701357814252</speed>
  <fix>3d</fix>
</trkpt>
<trkpt lat="-27.274488" lon="151.2901096">
  <ele>358.12</ele>
  <time>2026-09-01T19:50:58Z</time>
  <course>279.52</course>
  <speed>1.66</speed>
  <fix>3d</fix>
</trkpt>
<trkpt lat="-27.2744883" lon="151.2901058">
  <ele>357.92</ele>
  <time>2026-09-01T19:50:58Z</time>
  <course>230.41</course>
  <speed>2.0902152999152985</speed>
  <fix>3d</fix>
</trkpt>
<trkpt lat="-27.274488" lon="151.2901096">
  <ele>358.12</ele>
  <time>2026-09-01T19:50:58Z</time>
  <course>279.52</course>
  <speed>1.66</speed>
  <fix>3d</fix>
</trkpt>
<trkpt lat="-27.2744883" lon="151.2901036">
  <ele>357.92</ele>
  <time>2026-09-01T19:50:58Z</time>
  <course>231.09</course>
  <speed>2.2522211259110416</speed>
  <fix>3d</fix>
</trkpt>
<trkpt lat="-27.2744877" lon="151.2901059">
  <ele>358.12</ele>
  <time>2026-09-01T19:50:58Z</time>
  <course>271.61</course>
  <speed>2.06</speed>
  <fix>3d</fix>
</trkpt>
<trkpt lat="-27.2744883" lon="151.2901013">
  <ele>357.93</ele>
  <time>2026-09-01T19:50:58Z</time>
  <course>231.9</course>
  <speed>2.35306183514161</speed>
  <fix>3d</fix>
</trkpt>
<trkpt lat="-27.2744877" lon="151.2901059">
  <ele>358.12</ele>
  <time>2026-09-01T19:50:58Z</time>
  <course>271.61</course>
  <speed>2.06</speed>
  <fix>3d</fix>
</trkpt>
<trkpt lat="-27.2744884" lon="151.290099">
  <ele>357.93</ele>
  <time>2026-09-01T19:50:58Z</time>
  <course>232.88</course>
  <speed>2.4129857024027306</speed>
  <fix>3d</fix>
</trkpt>
<trkpt lat="-27.2744877" lon="151.2901014">
  <ele>358.12</ele>
  <time>2026-09-01T19:50:58Z</time>
  <course>268.74</course>
  <speed>2.33</speed>
  <fix>3d</fix>
</trkpt>
<trkpt lat="-27.2744884" lon="151.2900965">
  <ele>357.94</ele>
  <time>2026-09-01T19:50:58Z</time>
  <course>234.1</course>
  <speed>2.462031681355868</speed>
  <fix>3d</fix>
</trkpt>
<trkpt lat="-27.2744877" lon="151.2901014">
  <ele>358.12</ele>
  <time>2026-09-01T19:50:58Z</time>
  <course>268.74</course>
  <speed>2.33</speed>
  <fix>3d</fix>
</trkpt>
<trkpt lat="-27.2744883" lon="151.290094">
  <ele>357.95</ele>
  <time>2026-09-01T19:50:58Z</time>
  <course>235.58</course>
  <speed>2.4809877065394743</speed>
  <fix>3d</fix>
</trkpt>
<trkpt lat="-27.2744877" lon="151.2901014">
  <ele>358.12</ele>
  <time>2026-09-01T19:50:58Z</time>
  <course>268.74</course>
  <speed>2.33</speed>
  <fix>3d</fix>
</trkpt>
<trkpt lat="-27.2744883" lon="151.2900915">
  <ele>357.96</ele>
  <time>2026-09-01T19:50:58Z</time>
  <course>237.29</course>
  <speed>2.500319979522621</speed>
  <fix>3d</fix>
</trkpt>
<trkpt lat="-27.2744878" lon="151.2900966">
  <ele>358.13</ele>
  <time>2026-09-01T19:50:58Z</time>
  <course>268.99</course>
  <speed>2.46</speed>
  <fix>3d</fix>
</trkpt>
<trkpt lat="-27.2744883" lon="151.290089">
  <ele>357.97</ele>
  <time>2026-09-01T19:50:58Z</time>
  <course>239.18</course>
  <speed>2.52</speed>
  <fix>3d</fix>
</trkpt>
<trkpt lat="-27.2744878" lon="151.2900966">
  <ele>358.13</ele>
  <time>2026-09-01T19:50:58Z</time>
  <course>268.99</course>
  <speed>2.46</speed>
  <fix>3d</fix>
</trkpt>
<trkpt lat="-27.2744883" lon="151.2900865">
  <ele>357.97</ele>
  <time>2026-09-01T19:50:58Z</time>
  <course>241.2</course>
  <speed>2.5300790501484336</speed>
  <fix>3d</fix>
</trkpt>
<trkpt lat="-27.2744878" lon="151.2900915">
  <ele>358.15</ele>
  <time>2026-09-01T19:50:58Z</time>
  <course>270.22</course>
  <speed>2.51</speed>
  <fix>3d</fix>
</trkpt>
<trkpt lat="-27.2744882" lon="151.290084">
  <ele>357.98</ele>
  <time>2026-09-01T19:50:58Z</time>
  <course>243.29</course>
  <speed>2.5407085625864294</speed>
  <fix>3d</fix>
</trkpt>
<trkpt lat="-27.2744878" lon="151.2900915">
  <ele>358.15</ele>
  <time>2026-09-01T19:50:58Z</time>
  <course>270.22</course>
  <speed>2.51</speed>
  <fix>3d</fix>
</trkpt>
<trkpt lat="-27.2744881" lon="151.2900814">
  <ele>357.99</ele>
  <time>2026-09-01T19:50:58Z</time>
  <course>245.39</course>
  <speed>2.54159398803192</speed>
  <fix>3d</fix>
</trkpt>
<trkpt lat="-27.2744877" lon="151.2900864">
  <ele>358.16</ele>
  <time>2026-09-01T19:50:58Z</time>
  <course>271.67</course>
  <speed>2.54</speed>
  <fix>3d</fix>
</trkpt>
<trkpt lat="-27.2744879" lon="151.2900789">
  <ele>357.99</ele>
  <time>2026-09-01T19:50:58Z</time>
  <course>247.53</course>
  <speed>2.553311575190149</speed>
  <fix>3d</fix>
</trkpt>
<trkpt lat="-27.2744877" lon="151.2900864">
  <ele>358.16</ele>
  <time>2026-09-01T19:50:58Z</time>
  <course>271.67</course>
  <speed>2.54</speed>
  <fix>3d</fix>
</trkpt>
<trkpt lat="-27.2744878" lon="151.2900763">
  <ele>357.99</ele>
  <time>2026-09-01T19:50:58Z</time>
  <course>249.67</course>
  <speed>2.5550146770615623</speed>
  <fix>3d</fix>
</trkpt>
<trkpt lat="-27.2744876" lon="151.2900811">
  <ele>358.17</ele>
  <time>2026-09-01T19:50:58Z</time>
  <course>273.18</course>
  <speed>2.56</speed>
  <fix>3d</fix>
</trkpt>
<trkpt lat="-27.2744875" lon="151.2900737">
  <ele>357.99</ele>
  <time>2026-09-01T19:50:58Z</time>
  <course>251.82</course>
  <speed>2.5578311124857325</speed>
  <fix>3d</fix>
</trkpt>
<trkpt lat="-27.2744876" lon="151.2900811">
  <ele>358.17</ele>
  <time>2026-09-01T19:50:58Z</time>
  <course>273.18</course>
  <speed>2.56</speed>
  <fix>3d</fix>
</trkpt>
<trkpt lat="-27.2744873" lon="151.2900712">
  <ele>357.99</ele>
  <time>2026-09-01T19:50:58Z</time>
  <course>253.99</course>
  <speed>2.5612692166189794</speed>
  <fix>3d</fix>
</trkpt>
<trkpt lat="-27.2744872" lon="151.290076">
  <ele>358.18</ele>
  <time>2026-09-01T19:50:58Z</time>
  <course>274.69</course>
  <speed>2.58</speed>
  <fix>3d</fix>
</trkpt>
<trkpt lat="-27.274487" lon="151.2900686">
  <ele>357.99</ele>
  <time>2026-09-01T19:50:58Z</time>
  <course>256.2</course>
  <speed>2.564254277562972</speed>
  <fix>3d</fix>
</trkpt>
<trkpt lat="-27.2744872" lon="151.290076">
  <ele>358.18</ele>
  <time>2026-09-01T19:50:58Z</time>
  <course>274.69</course>
  <speed>2.58</speed>
  <fix>3d</fix>
</trkpt>
<trkpt lat="-27.2744867" lon="151.290066">
  <ele>357.98</ele>
  <time>2026-09-01T19:50:58Z</time>
  <course>258.45</course>
  <speed>2.5687740266516244</speed>
  <fix>3d</fix>
</trkpt>
<trkpt lat="-27.2744868" lon="151.2900707">
  <ele>358.18</ele>
  <time>2026-09-01T19:50:58Z</time>
  <course>276.22</course>
  <speed>2.59</speed>
  <fix>3d</fix>
</trkpt>
<trkpt lat="-27.2744864" lon="151.2900634">
  <ele>357.98</ele>
  <time>2026-09-01T19:50:58Z</time>
  <course>260.75</course>
  <speed>2.57390753524675</speed>
  <fix>3d</fix>
</trkpt>
<trkpt lat="-27.2744868" lon="151.2900707">
  <ele>358.18</ele>
  <time>2026-09-01T19:50:58Z</time>
  <course>276.22</course>
  <speed>2.59</speed>
  <fix>3d</fix>
</trkpt>
<trkpt lat="-27.274486" lon="151.2900608">
  <ele>357.98</ele>
  <time>2026-09-01T19:50:58Z</time>
  <course>263.11</course>
  <speed>2.5682678987987213</speed>
  <fix>3d</fix>
</trkpt>
<trkpt lat="-27.2744863" lon="151.2900656">
  <ele>358.18</ele>
  <time>2026-09-01T19:50:58Z</time>
  <course>277.77</course>
  <speed>2.59</speed>
  <fix>3d</fix>
</trkpt>
<trkpt lat="-27.2744856" lon="151.2900583">
  <ele>357.98</ele>
  <time>2026-09-01T19:50:58Z</time>
  <course>265.55</course>
  <speed>2.574490240804964</speed>
  <fix>3d</fix>
</trkpt>
<trkpt lat="-27.2744863" lon="151.2900656">
  <ele>358.18</ele>
  <time>2026-09-01T19:50:58Z</time>
  <course>277.77</course>
  <speed>2.59</speed>
  <fix>3d</fix>
</trkpt>
<trkpt lat="-27.2744852" lon="151.2900557">
  <ele>357.98</ele>
  <time>2026-09-01T19:50:58Z</time>
  <course>268.06</course>
  <speed>2.571478174124758</speed>
  <fix>3d</fix>
</trkpt>
<trkpt lat="-27.2744856" lon="151.2900604">
  <ele>358.18</ele>
  <time>2026-09-01T19:50:58Z</time>
  <course>279.36</course>
  <speed>2.6</speed>
  <fix>3d</fix>
</trkpt>
<trkpt lat="-27.2744847" lon="151.2900531">
  <ele>357.98</ele>
  <time>2026-09-01T19:50:58Z</time>
  <course>270.64</course>
  <speed>2.569124364447934</speed>
  <fix>3d</fix>
</trkpt>
<trkpt lat="-27.2744856" lon="151.2900604">
  <ele>358.18</ele>
  <time>2026-09-01T19:50:58Z</time>
  <course>279.36</course>
  <speed>2.6</speed>
  <fix>3d</fix>
</trkpt>
<trkpt lat="-27.2744842" lon="151.2900506">
  <ele>357.97</ele>
  <time>2026-09-01T19:50:58Z</time>
  <course>273.29</course>
  <speed>2.565345980564805</speed>
  <fix>3d</fix>
</trkpt>
<trkpt lat="-27.2744847" lon="151.2900552">
  <ele>358.17</ele>
  <time>2026-09-01T19:50:58Z</time>
  <course>281.01</course>
  <speed>2.59</speed>
  <fix>3d</fix>
</trkpt>
<trkpt lat="-27.2744837" lon="151.290048">
  <ele>357.97</ele>
  <time>2026-09-01T19:50:58Z</time>
  <course>275.98</course>
  <speed>2.55440795488896</speed>
  <fix>3d</fix>
</trkpt>
<trkpt lat="-27.2744838" lon="151.2900501">
  <ele>358.16</ele>
  <time>2026-09-01T19:50:58Z</time>
  <course>282.72</course>
  <speed>2.58</speed>
  <fix>3d</fix>
</trkpt>
<trkpt lat="-27.2744831" lon="151.2900455">
  <ele>357.97</ele>
  <time>2026-09-01T19:50:58Z</time>
  <course>278.7</course>
  <speed>2.553918557824427</speed>
  <fix>3d</fix>
</trkpt>
<trkpt lat="-27.2744838" lon="151.2900501">
  <ele>358.16</ele>
  <time>2026-09-01T19:50:58Z</time>
  <course>282.72</course>
  <speed>2.58</speed>
  <fix>3d</fix>
</trkpt>
<trkpt lat="-27.2744825" lon="151.290043">
  <ele>357.97</ele>
  <time>2026-09-01T19:50:58Z</time>
  <course>281.45</course>
  <speed>2.544425278918601</speed>
  <fix>3d</fix>
</trkpt>
<trkpt lat="-27.2744827" lon="151.290045">
  <ele>358.16</ele>
  <time>2026-09-01T19:50:58Z</time>
  <course>284.51</course>
  <speed>2.57</speed>
  <fix>3d</fix>
</trkpt>
<trkpt lat="-27.2744818" lon="151.2900405">
  <ele>357.97</ele>
  <time>2026-09-01T19:50:58Z</time>
  <course>284.21</course>
  <speed>2.5356853117056932</speed>
  <fix>3d</fix>
</trkpt>
<trkpt lat="-27.2744827" lon="151.290045">
  <ele>358.16</ele>
  <time>2026-09-01T19:50:58Z</time>
  <course>284.51</course>
  <speed>2.57</speed>
  <fix>3d</fix>
</trkpt>
<trkpt lat="-27.2744812" lon="151.290038">
  <ele>357.97</ele>
  <time>2026-09-01T19:50:58Z</time>
  <course>286.99</course>
  <speed>2.5277064703006955</speed>
  <fix>3d</fix>
</trkpt>
<trkpt lat="-27.2744827" lon="151.290045">
  <ele>358.16</ele>
  <time>2026-09-01T19:50:58Z</time>
  <course>284.51</course>
  <speed>2.57</speed>
  <fix>3d</fix>
</trkpt>
<trkpt lat="-27.2744805" lon="151.2900355">
  <ele>357.97</ele>
  <time>2026-09-01T19:50:58Z</time>
  <course>289.76</course>
  <speed>2.510975905897944</speed>
  <fix>3d</fix>
</trkpt>
<trkpt lat="-27.2744814" lon="151.29004">
  <ele>358.15</ele>
  <time>2026-09-01T19:50:58Z</time>
  <course>286.4</course>
  <speed>2.55</speed>
  <fix>3d</fix>
</trkpt>
<trkpt lat="-27.2744797" lon="151.2900331">
  <ele>357.97</ele>
  <time>2026-09-01T19:50:58Z</time>
  <course>292.53</course>
  <speed>2.5045957757690163</speed>
  <fix>3d</fix>
</trkpt>
<trkpt lat="-27.2744814" lon="151.29004">
  <ele>358.15</ele>
  <time>2026-09-01T19:50:58Z</time>
  <course>286.4</course>
  <speed>2.55</speed>
  <fix>3d</fix>
</trkpt>
<trkpt lat="-27.274479" lon="151.2900307">
  <ele>357.97</ele>
  <time>2026-09-01T19:50:58Z</time>
  <course>295.27</course>
  <speed>2.48959836118198</speed>
  <fix>3d</fix>
</trkpt>
<trkpt lat="-27.2744801" lon="151.2900351">
  <ele>358.15</ele>
  <time>2026-09-01T19:50:58Z</time>
  <course>288.38</course>
  <speed>2.53</speed>
  <fix>3d</fix>
</trkpt>
<trkpt lat="-27.2744782" lon="151.2900284">
  <ele>357.97</ele>
  <time>2026-09-01T19:50:58Z</time>
  <course>297.97</course>
  <speed>2.4626002517664127</speed>
  <fix>3d</fix>
</trkpt>
<trkpt lat="-27.2744801" lon="151.2900351">
  <ele>358.15</ele>
  <time>2026-09-01T19:50:58Z</time>
  <course>288.38</course>
  <speed>2.53</speed>
  <fix>3d</fix>
</trkpt>
<trkpt lat="-27.2744773" lon="151.2900261">
  <ele>357.97</ele>
  <time>2026-09-01T19:50:58Z</time>
  <course>300.67</course>
  <speed>2.449346851713738</speed>
  <fix>3d</fix>
</trkpt>
<trkpt lat="-27.2744786" lon="151.2900303">
  <ele>358.15</ele>
  <time>2026-09-01T19:50:58Z</time>
  <course>290.47</course>
  <speed>2.5</speed>
  <fix>3d</fix>
</trkpt>
<trkpt lat="-27.2744765" lon="151.2900238">
  <ele>357.97</ele>
  <time>2026-09-01T19:50:58Z</time>
  <course>303.32</course>
  <speed>2.4278591392418134</speed>
  <fix>3d</fix>
</trkpt>
<trkpt lat="-27.2744786" lon="151.2900303">
  <ele>358.15</ele>
  <time>2026-09-01T19:50:58Z</time>
  <course>290.47</course>
  <speed>2.5</speed>
  <fix>3d</fix>
</trkpt>
<trkpt lat="-27.2744756" lon="151.2900216">
  <ele>357.97</ele>
  <time>2026-09-01T19:50:58Z</time>
  <course>305.93</course>
  <speed>2.4075090861718467</speed>
  <fix>3d</fix>
</trkpt>
<trkpt lat="-27.2744769" lon="151.2900257">
  <ele>358.15</ele>
  <time>2026-09-01T19:50:58Z</time>
  <course>292.66</course>
  <speed>2.46</speed>
  <fix>3d</fix>
</trkpt>
<trkpt lat="-27.2744746" lon="151.2900194">
  <ele>357.97</ele>
  <time>2026-09-01T19:50:58Z</time>
  <course>308.49</course>
  <speed>2.383988255004626</speed>
  <fix>3d</fix>
</trkpt>
<trkpt lat="-27.2744769" lon="151.2900257">
  <ele>358.15</ele>
  <time>2026-09-01T19:50:58Z</time>
  <course>292.66</course>
  <speed>2.46</speed>
  <fix>3d</fix>
</trkpt>
<trkpt lat="-27.2744736" lon="151.2900172">
  <ele>357.97</ele>
  <time>2026-09-01T19:50:58Z</time>
  <course>310.98</course>
  <speed>2.3657979626333265</speed>
  <fix>3d</fix>
</trkpt>
<trkpt lat="-27.2744752" lon="151.2900211">
  <ele>358.14</ele>
  <time>2026-09-01T19:50:58Z</time>
  <course>294.97</course>
  <speed>2.42</speed>
  <fix>3d</fix>
</trkpt>
<trkpt lat="-27.2744726" lon="151.2900151">
  <ele>357.97</ele>
  <time>2026-09-01T19:50:58Z</time>
  <course>313.39</course>
  <speed>2.3400213674238106</speed>
  <fix>3d</fix>
</trkpt>
<trkpt lat="-27.2744752" lon="151.2900211">
  <ele>358.14</ele>
  <time>2026-09-01T19:50:58Z</time>
  <course>294.97</course>
  <speed>2.42</speed>
  <fix>3d</fix>
</trkpt>
<trkpt lat="-27.2744716" lon="151.290013">
  <ele>357.97</ele>
  <time>2026-09-01T19:50:58Z</time>
  <course>315.74</course>
  <speed>2.3107790893982054</speed>
  <fix>3d</fix>
</trkpt>
<trkpt lat="-27.2744732" lon="151.2900168">
  <ele>358.14</ele>
  <time>2026-09-01T19:50:58Z</time>
  <course>297.39</course>
  <speed>2.37</speed>
  <fix>3d</fix>
</trkpt>
<trkpt lat="-27.2744706" lon="151.290011">
  <ele>357.96</ele>
  <time>2026-09-01T19:50:58Z</time>
  <course>318.03</course>
  <speed>2.2826519664635696</speed>
  <fix>3d</fix>
</trkpt>
<trkpt lat="-27.2744732" lon="151.2900168">
  <ele>358.14</ele>
  <time>2026-09-01T19:50:58Z</time>
  <course>297.39</course>
  <speed>2.37</speed>
  <fix>3d</fix>
</trkpt>
<trkpt lat="-27.2744695" lon="151.2900091">
  <ele>357.96</ele>
  <time>2026-09-01T19:50:58Z</time>
  <course>320.24</course>
  <speed>2.2556817151362467</speed>
  <fix>3d</fix>
</trkpt>
<trkpt lat="-27.2744712" lon="151.2900126">
  <ele>358.13</ele>
  <time>2026-09-01T19:50:58Z</time>
  <course>299.94</course>
  <speed>2.32</speed>
  <fix>3d</fix>
</trkpt>
<trkpt lat="-27.2744684" lon="151.2900071">
  <ele>357.96</ele>
  <time>2026-09-01T19:50:58Z</time>
  <course>322.39</course>
  <speed>2.229910312097776</speed>
  <fix>3d</fix>
</trkpt>
<trkpt lat="-27.2744712" lon="151.2900126">
  <ele>358.13</ele>
  <time>2026-09-01T19:50:58Z</time>
  <course>299.94</course>
  <speed>2.32</speed>
  <fix>3d</fix>
</trkpt>
<trkpt lat="-27.2744672" lon="151.2900053">
  <ele>357.95</ele>
  <time>2026-09-01T19:50:58Z</time>
  <course>324.47</course>
  <speed>2.1971800108320663</speed>
  <fix>3d</fix>
</trkpt>
<trkpt lat="-27.2744691" lon="151.2900086">
  <ele>358.13</ele>
  <time>2026-09-01T19:50:58Z</time>
  <course>302.62</course>
  <speed>2.26</speed>
  <fix>3d</fix>
</trkpt>
<trkpt lat="-27.2744661" lon="151.2900035">
  <ele>357.95</ele>
  <time>2026-09-01T19:50:58Z</time>
  <course>326.48</course>
  <speed>2.1740745157422734</speed>
  <fix>3d</fix>
</trkpt>
<trkpt lat="-27.2744691" lon="151.2900086">
  <ele>358.13</ele>
  <time>2026-09-01T19:50:58Z</time>
  <course>302.62</course>
  <speed>2.26</speed>
  <fix>3d</fix>
</trkpt>
<trkpt lat="-27.2744649" lon="151.2900018">
  <ele>357.95</ele>
  <time>2026-09-01T19:50:58Z</time>
  <course>328.44</course>
  <speed>2.144411341137703</speed>
  <fix>3d</fix>
</trkpt>
<trkpt lat="-27.2744668" lon="151.2900049">
  <ele>358.13</ele>
  <time>2026-09-01T19:50:58Z</time>
  <course>305.44</course>
  <speed>2.2</speed>
  <fix>3d</fix>
</trkpt>
<trkpt lat="-27.2744637" lon="151.2900001">
  <ele>357.95</ele>
  <time>2026-09-01T19:50:58Z</time>
  <course>330.33</course>
  <speed>2.1100947846009195</speed>
  <fix>3d</fix>
</trkpt>
<trkpt lat="-27.2744668" lon="151.2900049">
  <ele>358.13</ele>
  <time>2026-09-01T19:50:58Z</time>
  <course>305.44</course>
  <speed>2.2</speed>
  <fix>3d</fix>
</trkpt>
<trkpt lat="-27.2744624" lon="151.2899985">
  <ele>357.95</ele>
  <time>2026-09-01T19:50:58Z</time>
  <course>332.16</course>
  <speed>2.0836986346398563</speed>
  <fix>3d</fix>
</trkpt>
<trkpt lat="-27.2744645" lon="151.2900014">
  <ele>358.12</ele>
  <time>2026-09-01T19:50:58Z</time>
  <course>308.4</course>
  <speed>2.14</speed>
  <fix>3d</fix>
</trkpt>
<trkpt lat="-27.2744612" lon="151.2899969">
  <ele>357.95</ele>
  <time>2026-09-01T19:50:58Z</time>
  <course>333.93</course>
  <speed>2.052364490045567</speed>
  <fix>3d</fix>
</trkpt>
<trkpt lat="-27.2744645" lon="151.2900014">
  <ele>358.12</ele>
  <time>2026-09-01T19:50:58Z</time>
  <course>308.4</course>
  <speed>2.14</speed>
  <fix>3d</fix>
</trkpt>
<trkpt lat="-27.2744599" lon="151.2899954">
  <ele>357.94</ele>
  <time>2026-09-01T19:50:58Z</time>
  <course>335.64</course>
  <speed>2.0153659717282117</speed>
  <fix>3d</fix>
</trkpt>
<trkpt lat="-27.2744621" lon="151.2899981">
  <ele>358.12</ele>
  <time>2026-09-01T19:50:58Z</time>
  <course>311.52</course>
  <speed>2.07</speed>
  <fix>3d</fix>
</trkpt>
<trkpt lat="-27.2744586" lon="151.289994">
  <ele>357.94</ele>
  <time>2026-09-01T19:50:58Z</time>
  <course>337.31</course>
  <speed>1.9872845795205074</speed>
  <fix>3d</fix>
</trkpt>
<trkpt lat="-27.2744621" lon="151.2899981">
  <ele>358.12</ele>
  <time>2026-09-01T19:50:58Z</time>
  <course>311.52</course>
  <speed>2.07</speed>
  <fix>3d</fix>
</trkpt>
<trkpt lat="-27.2744573" lon="151.2899926">
  <ele>357.94</ele>
  <time>2026-09-01T19:50:58Z</time>
  <course>338.94</course>
  <speed>1.9541238445912277</speed>
  <fix>3d</fix>
</trkpt>
<trkpt lat="-27.2744596" lon="151.2899951">
  <ele>358.12</ele>
  <time>2026-09-01T19:50:58Z</time>
  <course>314.81</course>
  <speed>2.01</speed>
  <fix>3d</fix>
</trkpt>
<trkpt lat="-27.274456" lon="151.2899913">
  <ele>357.94</ele>
  <time>2026-09-01T19:50:58Z</time>
  <course>340.52</course>
  <speed>1.9220041623263984</speed>
  <fix>3d</fix>
</trkpt>
<trkpt lat="-27.2744596" lon="151.2899951">
  <ele>358.12</ele>
  <time>2026-09-01T19:50:58Z</time>
  <course>314.81</course>
  <speed>2.01</speed>
  <fix>3d</fix>
</trkpt>
<trkpt lat="-27.2744547" lon="151.2899901">
  <ele>357.94</ele>
  <time>2026-09-01T19:50:58Z</time>
  <course>342.04</course>
  <speed>1.892828571212935</speed>
  <fix>3d</fix>
</trkpt>
<trkpt lat="-27.274457" lon="151.2899924">
  <ele>358.12</ele>
  <time>2026-09-01T19:50:58Z</time>
  <course>318.28</course>
  <speed>1.94</speed>
  <fix>3d</fix>
</trkpt>
<trkpt lat="-27.2744534" lon="151.289989">
  <ele>357.94</ele>
  <time>2026-09-01T19:50:58Z</time>
  <course>343.54</course>
  <speed>1.8580096878111265</speed>
  <fix>3d</fix>
</trkpt>
<trkpt lat="-27.274457" lon="151.2899924">
  <ele>358.12</ele>
  <time>2026-09-01T19:50:58Z</time>
  <course>318.28</course>
  <speed>1.94</speed>
  <fix>3d</fix>
</trkpt>
<trkpt lat="-27.274452" lon="151.2899879">
  <ele>357.94</ele>
  <time>2026-09-01T19:50:58Z</time>
  <course>344.99</course>
  <speed>1.8309833423600554</speed>
  <fix>3d</fix>
</trkpt>
<trkpt lat="-27.2744543" lon="151.2899898">
  <ele>358.12</ele>
  <time>2026-09-01T19:50:58Z</time>
  <course>321.94</course>
  <speed>1.88</speed>
  <fix>3d</fix>
</trkpt>
<trkpt lat="-27.2744506" lon="151.2899868">
  <ele>357.94</ele>
  <time>2026-09-01T19:50:58Z</time>
  <course>346.42</course>
  <speed>1.8001388835309349</speed>
  <fix>3d</fix>
</trkpt>
<trkpt lat="-27.2744543" lon="151.2899898">
  <ele>358.12</ele>
  <time>2026-09-01T19:50:58Z</time>
  <course>321.94</course>
  <speed>1.88</speed>
  <fix>3d</fix>
</trkpt>
<trkpt lat="-27.2744493" lon="151.2899859">
  <ele>357.95</ele>
  <time>2026-09-01T19:50:58Z</time>
  <course>348.1</course>
  <speed>1.73216627377397</speed>
  <fix>3d</fix>
</trkpt>
<trkpt lat="-27.2744516" lon="151.2899876">
  <ele>358.12</ele>
  <time>2026-09-01T19:50:58Z</time>
  <course>325.82</course>
  <speed>1.82</speed>
  <fix>3d</fix>
</trkpt>
<trkpt lat="-27.274448" lon="151.289985">
  <ele>357.95</ele>
  <time>2026-09-01T19:50:58Z</time>
  <course>349.3</course>
  <speed>1.5778466338652817</speed>
  <fix>3d</fix>
</trkpt>
<trkpt lat="-27.2744516" lon="151.2899876">
  <ele>358.12</ele>
  <time>2026-09-01T19:50:58Z</time>
  <course>325.82</course>
  <speed>1.82</speed>
  <fix>3d</fix>
</trkpt>
<trkpt lat="-27.2744468" lon="151.2899843">
  <ele>357.95</ele>
  <time>2026-09-01T19:50:58Z</time>
  <course>349.95</course>
  <speed>1.3842326394071194</speed>
  <fix>3d</fix>
</trkpt>
<trkpt lat="-27.274449" lon="151.2899857">
  <ele>358.12</ele>
  <time>2026-09-01T19:50:58Z</time>
  <course>329.07</course>
  <speed>1.68</speed>
  <fix>3d</fix>
</trkpt>
<trkpt lat="-27.2744458" lon="151.2899836">
  <ele>357.94</ele>
  <time>2026-09-01T19:50:58Z</time>
  <course>350.14</course>
  <speed>1.1646887996370532</speed>
  <fix>3d</fix>
</trkpt>
<trkpt lat="-27.274449" lon="151.2899857">
  <ele>358.12</ele>
  <time>2026-09-01T19:50:58Z</time>
  <course>329.07</course>
  <speed>1.68</speed>
  <fix>3d</fix>
</trkpt>
<trkpt lat="-27.274445" lon="151.2899831">
  <ele>357.95</ele>
  <time>2026-09-01T19:50:58Z</time>
  <course>349.97</course>
  <speed>0.9364827814754524</speed>
  <fix>3d</fix>
</trkpt>
<trkpt lat="-27.2744466" lon="151.2899842">
  <ele>358.12</ele>
  <time>2026-09-01T19:50:58Z</time>
  <course>330.84</course>
  <speed>1.36</speed>
  <fix>3d</fix>
</trkpt>
<trkpt lat="-27.2744444" lon="151.2899827">
  <ele>357.94</ele>
  <time>2026-09-01T19:50:58Z</time>
  <course>349.6</course>
  <speed>0.6946221994724903</speed>
  <fix>3d</fix>
</trkpt>
<trkpt lat="-27.2744466" lon="151.2899842">
  <ele>358.12</ele>
  <time>2026-09-01T19:50:58Z</time>
  <course>330.84</course>
  <speed>1.36</speed>
  <fix>3d</fix>
</trkpt>
<trkpt lat="-27.2744439" lon="151.2899824">
  <ele>357.94</ele>
  <time>2026-09-01T19:50:58Z</time>
  <course>349.13</course>
  <speed>0.44944410108488464</speed>
  <fix>3d</fix>
</trkpt>
<trkpt lat="-27.2744448" lon="151.2899831">
  <ele>358.12</ele>
  <time>2026-09-01T19:50:58Z</time>
  <course>331.39</course>
  <speed>0.92</speed>
  <fix>3d</fix>
</trkpt>
<trkpt lat="-27.2744437" lon="151.2899822">
  <ele>357.94</ele>
  <time>2026-09-01T19:50:58Z</time>
  <course>348.58</course>
  <speed>0.21633307652783937</speed>
  <fix>3d</fix>
</trkpt>
<trkpt lat="-27.2744448" lon="151.2899831">
  <ele>358.12</ele>
  <time>2026-09-01T19:50:58Z</time>
  <course>331.39</course>
  <speed>0.92</speed>
  <fix>3d</fix>
</trkpt>
<trkpt lat="-27.2744436" lon="151.2899822">
  <ele>357.94</ele>
  <time>2026-09-01T19:50:58Z</time>
  <course>348.24</course>
  <speed>0.04242640687119285</speed>
  <fix>3d</fix>
</trkpt>
<trkpt lat="-27.2744437" lon="151.2899824">
  <ele>358.12</ele>
  <time>2026-09-01T19:50:58Z</time>
  <course>331.38</course>
  <speed>0.44</speed>
  <fix>3d</fix>
</trkpt>
<trkpt lat="-27.2744436" lon="151.2899822">
  <ele>357.94</ele>
  <time>2026-09-01T19:50:58Z</time>
  <course>348.64</course>
  <speed>0.07810249675906654</speed>
  <fix>3d</fix>
</trkpt>
<trkpt lat="-27.2744437" lon="151.2899824">
  <ele>358.12</ele>
  <time>2026-09-01T19:50:58Z</time>
  <course>331.38</course>
  <speed>0.44</speed>
  <fix>3d</fix>
</trkpt>
<trkpt lat="-27.2744435" lon="151.2899822">
  <ele>357.94</ele>
  <time>2026-09-01T19:50:58Z</time>
  <course>350.04</course>
  <speed>0.16278820596099705</speed>
  <fix>3d</fix>
</trkpt>
<trkpt lat="-27.2744433" lon="151.2899822">
  <ele>358.12</ele>
  <time>2026-09-01T19:50:58Z</time>
  <course>350.73</course>
  <speed>0.05</speed>
  <fix>3d</fix>
</trkpt>
<trkpt lat="-27.2744436" lon="151.2899824">
  <ele>357.93</ele>
  <time>2026-09-01T19:50:58Z</time>
  <course>352.31</course>
  <speed>0.23600847442411893</speed>
  <fix>3d</fix>
</trkpt>
<trkpt lat="-27.2744433" lon="151.2899822">
  <ele>358.12</ele>
  <time>2026-09-01T19:50:58Z</time>
  <course>350.73</course>
  <speed>0.05</speed>
  <fix>3d</fix>
</trkpt>
<trkpt lat="-27.2744437" lon="151.2899826">
  <ele>357.93</ele>
  <time>2026-09-01T19:50:58Z</time>
  <course>355.02</course>
  <speed>0.295296461204668</speed>
  <fix>3d</fix>
</trkpt>
<trkpt lat="-27.2744434" lon="151.2899823">
  <ele>358.12</ele>
  <time>2026-09-01T19:50:58Z</time>
  <course>128.11</course>
  <speed>0.19</speed>
  <fix>3d</fix>
</trkpt>
<trkpt lat="-27.2744438" lon="151.2899829">
  <ele>357.93</ele>
  <time>2026-09-01T19:50:58Z</time>
  <course>357.63</course>
  <speed>0.34928498393145957</speed>
  <fix>3d</fix>
</trkpt>
<trkpt lat="-27.2744434" lon="151.2899823">
  <ele>358.12</ele>
  <time>2026-09-01T19:50:58Z</time>
  <course>128.11</course>
  <speed>0.19</speed>
  <fix>3d</fix>
</trkpt>
<trkpt lat="-27.274444" lon="151.2899833">
  <ele>357.94</ele>
  <time>2026-09-01T19:50:58Z</time>
  <course>359.72</course>
  <speed>0.4080441152620633</speed>
  <fix>3d</fix>
</trkpt>
<trkpt lat="-27.2744436" lon="151.2899828">
  <ele>358.12</ele>
  <time>2026-09-01T19:50:58Z</time>
  <course>120.17</course>
  <speed>0.34</speed>
  <fix>3d</fix>
</trkpt>
<trkpt lat="-27.274444" lon="151.2899837">
  <ele>357.93</ele>
  <time>2026-09-01T19:50:58Z</time>
  <course>1.04</course>
  <speed>0.4609772228646444</speed>
  <fix>3d</fix>
</trkpt>
<trkpt lat="-27.2744436" lon="151.2899828">
  <ele>358.12</ele>
  <time>2026-09-01T19:50:58Z</time>
  <course>120.17</course>
  <speed>0.34</speed>
  <fix>3d</fix>
</trkpt>
<trkpt lat="-27.2744441" lon="151.2899842">
  <ele>357.93</ele>
  <time>2026-09-01T19:50:58Z</time>
  <course>1.59</course>
  <speed>0.5246903848937962</speed>
  <fix>3d</fix>
</trkpt>
<trkpt lat="-27.2744439" lon="151.2899835">
  <ele>358.12</ele>
  <time>2026-09-01T19:50:58Z</time>
  <course>110.41</course>
  <speed>0.46</speed>
  <fix>3d</fix>
</trkpt>
<trkpt lat="-27.2744442" lon="151.2899848">
  <ele>357.93</ele>
  <time>2026-09-01T19:50:58Z</time>
  <course>1.46</course>
  <speed>0.5807753438292642</speed>
  <fix>3d</fix>
</trkpt>
<trkpt lat="-27.2744439" lon="151.2899835">
  <ele>358.12</ele>
  <time>2026-09-01T19:50:58Z</time>
  <course>110.41</course>
  <speed>0.46</speed>
  <fix>3d</fix>
</trkpt>
<trkpt lat="-27.2744442" lon="151.2899855">
  <ele>357.93</ele>
  <time>2026-09-01T19:50:58Z</time>
  <course>0.86</course>
  <speed>0.65</speed>
  <fix>3d</fix>
</trkpt>
<trkpt lat="-27.2744442" lon="151.2899845">
  <ele>358.12</ele>
  <time>2026-09-01T19:50:58Z</time>
  <course>101.18</course>
  <speed>0.57</speed>
  <fix>3d</fix>
</trkpt>
<trkpt lat="-27.2744442" lon="151.2899862">
  <ele>357.92</ele>
  <time>2026-09-01T19:50:58Z</time>
  <course>359.97</course>
  <speed>0.7102816342831905</speed>
  <fix>3d</fix>
</trkpt>
<trkpt lat="-27.2744442" lon="151.2899845">
  <ele>358.12</ele>
  <time>2026-09-01T19:50:58Z</time>
  <course>101.18</course>
  <speed>0.57</speed>
  <fix>3d</fix>
</trkpt>
<trkpt lat="-27.2744443" lon="151.2899869">
  <ele>357.92</ele>
  <time>2026-09-01T19:50:58Z</time>
  <course>358.96</course>
  <speed>0.7710382610480494</speed>
  <fix>3d</fix>
</trkpt>
<trkpt lat="-27.2744443" lon="151.2899858">
  <ele>358.11</ele>
  <time>2026-09-01T19:50:58Z</time>
  <course>94.13</course>
  <speed>0.69</speed>
  <fix>3d</fix>
</trkpt>
<trkpt lat="-27.2744442" lon="151.2899878">
  <ele>357.92</ele>
  <time>2026-09-01T19:50:58Z</time>
  <course>357.96</course>
  <speed>0.8321658488546619</speed>
  <fix>3d</fix>
</trkpt>
<trkpt lat="-27.2744443" lon="151.2899858">
  <ele>358.11</ele>
  <time>2026-09-01T19:50:58Z</time>
  <course>94.13</course>
  <speed>0.69</speed>
  <fix>3d</fix>
</trkpt>
<trkpt lat="-27.2744442" lon="151.2899887">
  <ele>357.91</ele>
  <time>2026-09-01T19:50:58Z</time>
  <course>357.13</course>
  <speed>0.8836288813749809</speed>
  <fix>3d</fix>
</trkpt>
<trkpt lat="-27.2744444" lon="151.2899873">
  <ele>358.11</ele>
  <time>2026-09-01T19:50:58Z</time>
  <course>90.01</course>
  <speed>0.81</speed>
  <fix>3d</fix>
</trkpt>
<trkpt lat="-27.2744441" lon="151.2899896">
  <ele>357.91</ele>
  <time>2026-09-01T19:50:58Z</time>
  <course>356.24</course>
  <speed>0.9489467845985885</speed>
  <fix>3d</fix>
</trkpt>
<trkpt lat="-27.2744444" lon="151.2899873">
  <ele>358.11</ele>
  <time>2026-09-01T19:50:58Z</time>
  <course>90.01</course>
  <speed>0.81</speed>
  <fix>3d</fix>
</trkpt>
<trkpt lat="-27.274444" lon="151.2899906">
  <ele>357.91</ele>
  <time>2026-09-01T19:50:58Z</time>
  <course>355.66</course>
  <speed>1.0113851887386922</speed>
  <fix>3d</fix>
</trkpt>
<trkpt lat="-27.2744443" lon="151.289989">
  <ele>358.11</ele>
  <time>2026-09-01T19:50:58Z</time>
  <course>86.96</course>
  <speed>0.93</speed>
  <fix>3d</fix>
</trkpt>
<trkpt lat="-27.2744437" lon="151.2899917">
  <ele>357.91</ele>
  <time>2026-09-01T19:50:58Z</time>
  <course>355.47</course>
  <speed>1.1161541112229978</speed>
  <fix>3d</fix>
</trkpt>
<trkpt lat="-27.2744443" lon="151.289989">
  <ele>358.11</ele>
  <time>2026-09-01T19:50:58Z</time>
  <course>86.96</course>
  <speed>0.93</speed>
  <fix>3d</fix>
</trkpt>
<trkpt lat="-27.2744432" lon="151.2899928">
  <ele>357.91</ele>
  <time>2026-09-01T19:50:58Z</time>
  <course>355.57</course>
  <speed>1.2467958934805647</speed>
  <fix>3d</fix>
</trkpt>
<trkpt lat="-27.2744441" lon="151.289991">
  <ele>358.11</ele>
  <time>2026-09-01T19:50:58Z</time>
  <course>77.59</course>
  <speed>1.06</speed>
  <fix>3d</fix>
</trkpt>
<trkpt lat="-27.2744426" lon="151.2899939">
  <ele>357.92</ele>
  <time>2026-09-01T19:50:58Z</time>
  <course>355.86</course>
  <speed>1.4041723540933284</speed>
  <fix>3d</fix>
</trkpt>
<trkpt lat="-27.2744441" lon="151.289991">
  <ele>358.11</ele>
  <time>2026-09-01T19:50:58Z</time>
  <course>77.59</course>
  <speed>1.06</speed>
  <fix>3d</fix>
</trkpt>
<trkpt lat="-27.2744417" lon="151.289995">
  <ele>357.92</ele>
  <time>2026-09-01T19:50:58Z</time>
  <course>356.24</course>
  <speed>1.577244432546839</speed>
  <fix>3d</fix>
</trkpt>
<trkpt lat="-27.2744434" lon="151.2899932">
  <ele>358.11</ele>
  <time>2026-09-01T19:50:58Z</time>
  <course>62.32</course>
  <speed>1.27</speed>
  <fix>3d</fix>
</trkpt>
<trkpt lat="-27.2744407" lon="151.2899963">
  <ele>357.92</ele>
  <time>2026-09-01T19:50:58Z</time>
  <course>356.67</course>
  <speed>1.7705366418123065</speed>
  <fix>3d</fix>
</trkpt>
<trkpt lat="-27.2744434" lon="151.2899932">
  <ele>358.11</ele>
  <time>2026-09-01T19:50:58Z</time>
  <course>62.32</course>
  <speed>1.27</speed>
  <fix>3d</fix>
</trkpt>
<trkpt lat="-27.2744395" lon="151.2899975">
  <ele>357.93</ele>
  <time>2026-09-01T19:50:58Z</time>
  <course>357.23</course>
  <speed>1.9506409203131159</speed>
  <fix>3d</fix>
</trkpt>
<trkpt lat="-27.274442" lon="151.2899956">
  <ele>358.11</ele>
  <time>2026-09-01T19:50:58Z</time>
  <course>49.33</course>
  <speed>1.59</speed>
  <fix>3d</fix>
</trkpt>
<trkpt lat="-27.2744381" lon="151.2899988">
  <ele>357.93</ele>
  <time>2026-09-01T19:50:58Z</time>
  <course>357.98</course>
  <speed>2.0940152817016404</speed>
  <fix>3d</fix>
</trkpt>
<trkpt lat="-27.274442" lon="151.2899956">
  <ele>358.11</ele>
  <time>2026-09-01T19:50:58Z</time>
  <course>49.33</course>
  <speed>1.59</speed>
  <fix>3d</fix>
</trkpt>
<trkpt lat="-27.2744366" lon="151.2900001">
  <ele>357.93</ele>
  <time>2026-09-01T19:50:58Z</time>
  <course>358.9</course>
  <speed>2.182131985009156</speed>
  <fix>3d</fix>
</trkpt>
<trkpt lat="-27.2744397" lon="151.2899981">
  <ele>358.12</ele>
  <time>2026-09-01T19:50:58Z</time>
  <course>41.38</course>
  <speed>1.93</speed>
  <fix>3d</fix>
</trkpt>
<trkpt lat="-27.274435" lon="151.2900015">
  <ele>357.94</ele>
  <time>2026-09-01T19:50:58Z</time>
  <course>0.06</course>
  <speed>2.24610774452162</speed>
  <fix>3d</fix>
</trkpt>
<trkpt lat="-27.2744397" lon="151.2899981">
  <ele>358.12</ele>
  <time>2026-09-01T19:50:58Z</time>
  <course>41.38</course>
  <speed>1.93</speed>
  <fix>3d</fix>
</trkpt>
<trkpt lat="-27.2744334" lon="151.2900029">
  <ele>357.95</ele>
  <time>2026-09-01T19:50:58Z</time>
  <course>1.51</course>
  <speed>2.2800219297190982</speed>
  <fix>3d</fix>
</trkpt>
<trkpt lat="-27.2744368" lon="151.2900008">
  <ele>358.13</ele>
  <time>2026-09-01T19:50:58Z</time>
  <course>38.43</course>
  <speed>2.18</speed>
  <fix>3d</fix>
</trkpt>
<trkpt lat="-27.2744319" lon="151.2900043">
  <ele>357.96</ele>
  <time>2026-09-01T19:50:58Z</time>
  <course>3.21</course>
  <speed>2.3041050323281707</speed>
  <fix>3d</fix>
</trkpt>
<trkpt lat="-27.2744368" lon="151.2900008">
  <ele>358.13</ele>
  <time>2026-09-01T19:50:58Z</time>
  <course>38.43</course>
  <speed>2.18</speed>
  <fix>3d</fix>
</trkpt>
<trkpt lat="-27.2744303" lon="151.2900058">
  <ele>357.96</ele>
  <time>2026-09-01T19:50:58Z</time>
  <course>5.1</course>
  <speed>2.328626204439004</speed>
  <fix>3d</fix>
</trkpt>
<trkpt lat="-27.2744337" lon="151.2900036">
  <ele>358.14</ele>
  <time>2026-09-01T19:50:58Z</time>
  <course>38.6</course>
  <speed>2.29</speed>
  <fix>3d</fix>
</trkpt>
<trkpt lat="-27.2744287" lon="151.2900073">
  <ele>357.97</ele>
  <time>2026-09-01T19:50:58Z</time>
  <course>7.11</course>
  <speed>2.3395084953895764</speed>
  <fix>3d</fix>
</trkpt>
<trkpt lat="-27.2744337" lon="151.2900036">
  <ele>358.14</ele>
  <time>2026-09-01T19:50:58Z</time>
  <course>38.6</course>
  <speed>2.29</speed>
  <fix>3d</fix>
</trkpt>
<trkpt lat="-27.2744271" lon="151.2900089">
  <ele>357.97</ele>
  <time>2026-09-01T19:50:58Z</time>
  <course>9.18</course>
  <speed>2.350765832659646</speed>
  <fix>3d</fix>
</trkpt>
<trkpt lat="-27.2744304" lon="151.2900066">
  <ele>358.15</ele>
  <time>2026-09-01T19:50:58Z</time>
  <course>39.77</course>
  <speed>2.35</speed>
  <fix>3d</fix>
</trkpt>
<trkpt lat="-27.2744255" lon="151.2900105">
  <ele>357.98</ele>
  <time>2026-09-01T19:50:58Z</time>
  <course>11.27</course>
  <speed>2.3688815926508444</speed>
  <fix>3d</fix>
</trkpt>
<trkpt lat="-27.2744304" lon="151.2900066">
  <ele>358.15</ele>
  <time>2026-09-01T19:50:58Z</time>
  <course>39.77</course>
  <speed>2.35</speed>
  <fix>3d</fix>
</trkpt>
<trkpt lat="-27.2744239" lon="151.2900121">
  <ele>357.98</ele>
  <time>2026-09-01T19:50:58Z</time>
  <course>13.36</course>
  <speed>2.3734573937612615</speed>
  <fix>3d</fix>
</trkpt>
<trkpt lat="-27.2744272" lon="151.2900096">
  <ele>358.16</ele>
  <time>2026-09-01T19:50:58Z</time>
  <course>41.19</course>
  <speed>2.38</speed>
  <fix>3d</fix>
</trkpt>
<trkpt lat="-27.2744224" lon="151.2900138">
  <ele>357.98</ele>
  <time>2026-09-01T19:50:58Z</time>
  <course>15.45</course>
  <speed>2.385979882563975</speed>
  <fix>3d</fix>
</trkpt>
<trkpt lat="-27.2744272" lon="151.2900096">
  <ele>358.16</ele>
  <time>2026-09-01T19:50:58Z</time>
  <course>41.19</course>
  <speed>2.38</speed>
  <fix>3d</fix>
</trkpt>
<trkpt lat="-27.2744208" lon="151.2900154">
  <ele>357.98</ele>
  <time>2026-09-01T19:50:58Z</time>
  <course>17.53</course>
  <speed>2.3915267090291925</speed>
  <fix>3d</fix>
</trkpt>
<trkpt lat="-27.2744239" lon="151.2900129">
  <ele>358.17</ele>
  <time>2026-09-01T19:50:58Z</time>
  <course>42.67</course>
  <speed>2.4</speed>
  <fix>3d</fix>
</trkpt>
<trkpt lat="-27.2744193" lon="151.2900172">
  <ele>357.98</ele>
  <time>2026-09-01T19:50:58Z</time>
  <course>19.65</course>
  <speed>2.390690276886573</speed>
  <fix>3d</fix>
</trkpt>
<trkpt lat="-27.2744239" lon="151.2900129">
  <ele>358.17</ele>
  <time>2026-09-01T19:50:58Z</time>
  <course>42.67</course>
  <speed>2.4</speed>
  <fix>3d</fix>
</trkpt>
<trkpt lat="-27.2744178" lon="151.2900189">
  <ele>357.98</ele>
  <time>2026-09-01T19:50:58Z</time>
  <course>21.81</course>
  <speed>2.3971858501167573</speed>
  <fix>3d</fix>
</trkpt>
<trkpt lat="-27.2744208" lon="151.2900163">
  <ele>358.18</ele>
  <time>2026-09-01T19:50:58Z</time>
  <course>44.15</course>
  <speed>2.42</speed>
  <fix>3d</fix>
</trkpt>
<trkpt lat="-27.2744163" lon="151.2900207">
  <ele>357.98</ele>
  <time>2026-09-01T19:50:58Z</time>
  <course>23.99</course>
  <speed>2.404204650190994</speed>
  <fix>3d</fix>
</trkpt>
<trkpt lat="-27.2744208" lon="151.2900163">
  <ele>358.18</ele>
  <time>2026-09-01T19:50:58Z</time>
  <course>44.15</course>
  <speed>2.42</speed>
  <fix>3d</fix>
</trkpt>
<trkpt lat="-27.2744148" lon="151.2900225">
  <ele>357.98</ele>
  <time>2026-09-01T19:50:58Z</time>
  <course>26.07</course>
  <speed>2.4117421089328768</speed>
  <fix>3d</fix>
</trkpt>
<trkpt lat="-27.2744178" lon="151.2900197">
  <ele>358.18</ele>
  <time>2026-09-01T19:50:59Z</time>
  <course>45.64</course>
  <speed>2.43</speed>
  <fix>3d</fix>
</trkpt>
<trkpt lat="-27.2744133" lon="151.2900243">
  <ele>357.98</ele>
  <time>2026-09-01T19:50:59Z</time>
  <course>27.84</course>
  <speed>2.412488341940744</speed>
  <fix>3d</fix>
</trkpt>
<trkpt lat="-27.2744178" lon="151.2900197">
  <ele>358.18</ele>
  <time>2026-09-01T19:50:59Z</time>
  <course>45.64</course>
  <speed>2.43</speed>
  <fix>3d</fix>
</trkpt>
<trkpt lat="-27.2744118" lon="151.2900262">
  <ele>357.98</ele>
  <time>2026-09-01T19:50:59Z</time>
  <course>29.15</course>
  <speed>2.4209502266672067</speed>
  <fix>3d</fix>
</trkpt>
<trkpt lat="-27.2744148" lon="151.2900233">
  <ele>358.18</ele>
  <time>2026-09-01T19:50:59Z</time>
  <course>47.14</course>
  <speed>2.44</speed>
  <fix>3d</fix>
</trkpt>
<trkpt lat="-27.2744104" lon="151.290028">
  <ele>357.97</ele>
  <time>2026-09-01T19:50:59Z</time>
  <course>29.94</course>
  <speed>2.422436789681002</speed>
  <fix>3d</fix>
</trkpt>
<trkpt lat="-27.2744148" lon="151.2900233">
  <ele>358.18</ele>
  <time>2026-09-01T19:50:59Z</time>
  <course>47.14</course>
  <speed>2.44</speed>
  <fix>3d</fix>
</trkpt>
<trkpt lat="-27.274409" lon="151.29003">
  <ele>357.97</ele>
  <time>2026-09-01T19:50:59Z</time>
  <course>30.25</course>
  <speed>2.431810025474852</speed>
  <fix>3d</fix>
</trkpt>
<trkpt lat="-27.2744118" lon="151.290027">
  <ele>358.17</ele>
  <time>2026-09-01T19:50:59Z</time>
  <course>48.62</course>
  <speed>2.45</speed>
  <fix>3d</fix>
</trkpt>
<trkpt lat="-27.2744076" lon="151.2900319">
  <ele>357.97</ele>
  <time>2026-09-01T19:50:59Z</time>
  <course>30.21</course>
  <speed>2.43402958075698</speed>
  <fix>3d</fix>
</trkpt>
<trkpt lat="-27.2744118" lon="151.290027">
  <ele>358.17</ele>
  <time>2026-09-01T19:50:59Z</time>
  <course>48.62</course>
  <speed>2.45</speed>
  <fix>3d</fix>
</trkpt>
<trkpt lat="-27.2744062" lon="151.2900338">
  <ele>357.97</ele>
  <time>2026-09-01T19:50:59Z</time>
  <course>30.11</course>
  <speed>2.4035390573069537</speed>
  <fix>3d</fix>
</trkpt>
<trkpt lat="-27.2744089" lon="151.2900307">
  <ele>358.17</ele>
  <time>2026-09-01T19:50:59Z</time>
  <course>50.07</course>
  <speed>2.46</speed>
  <fix>3d</fix>
</trkpt>
<trkpt lat="-27.2744049" lon="151.2900357">
  <ele>357.97</ele>
  <time>2026-09-01T19:50:59Z</time>
  <course>29.84</course>
  <speed>2.306013876801265</speed>
  <fix>3d</fix>
</trkpt>
<trkpt lat="-27.2744089" lon="151.2900307">
  <ele>358.17</ele>
  <time>2026-09-01T19:50:59Z</time>
  <course>50.07</course>
  <speed>2.46</speed>
  <fix>3d</fix>
</trkpt>
<trkpt lat="-27.2744038" lon="151.2900376">
  <ele>357.97</ele>
  <time>2026-09-01T19:50:59Z</time>
  <course>29.42</course>
  <speed>2.166217902243447</speed>
  <fix>3d</fix>
</trkpt>
<trkpt lat="-27.2744061" lon="151.2900346">
  <ele>358.17</ele>
  <time>2026-09-01T19:50:59Z</time>
  <course>52.15</course>
  <speed>2.4</speed>
  <fix>3d</fix>
</trkpt>
<trkpt lat="-27.2744028" lon="151.2900394">
  <ele>357.97</ele>
  <time>2026-09-01T19:50:59Z</time>
  <course>28.98</course>
  <speed>2.009975124224178</speed>
  <fix>3d</fix>
</trkpt>
<trkpt lat="-27.2744061" lon="151.2900346">
  <ele>358.17</ele>
  <time>2026-09-01T19:50:59Z</time>
  <course>52.15</course>
  <speed>2.4</speed>
  <fix>3d</fix>
</trkpt>
<trkpt lat="-27.2744019" lon="151.2900411">
  <ele>357.97</ele>
  <time>2026-09-01T19:50:59Z</time>
  <course>28.59</course>
  <speed>1.8604300578092152</speed>
  <fix>3d</fix>
</trkpt>
<trkpt lat="-27.2744037" lon="151.2900384">
  <ele>358.17</ele>
  <time>2026-09-01T19:50:59Z</time>
  <course>56.35</course>
  <speed>2.2</speed>
  <fix>3d</fix>
</trkpt>
<trkpt lat="-27.2744013" lon="151.2900428">
  <ele>357.98</ele>
  <time>2026-09-01T19:50:59Z</time>
  <course>28.28</course>
  <speed>1.7139719951037709</speed>
  <fix>3d</fix>
</trkpt>
<trkpt lat="-27.2744037" lon="151.2900384">
  <ele>358.17</ele>
  <time>2026-09-01T19:50:59Z</time>
  <course>56.35</course>
  <speed>2.2</speed>
  <fix>3d</fix>
</trkpt>
<trkpt lat="-27.2744008" lon="151.2900444">
  <ele>357.98</ele>
  <time>2026-09-01T19:50:59Z</time>
  <course>28.04</course>
  <speed>1.5824032355881985</speed>
  <fix>3d</fix>
</trkpt>
<trkpt lat="-27.2744018" lon="151.290042">
  <ele>358.17</ele>
  <time>2026-09-01T19:50:59Z</time>
  <course>63.64</course>
  <speed>1.9</speed>
  <fix>3d</fix>
</trkpt>
<trkpt lat="-27.2744005" lon="151.290046">
  <ele>357.97</ele>
  <time>2026-09-01T19:50:59Z</time>
  <course>27.8</course>
  <speed>1.4945902448497381</speed>
  <fix>3d</fix>
</trkpt>
<trkpt lat="-27.2744018" lon="151.290042">
  <ele>358.17</ele>
  <time>2026-09-01T19:50:59Z</time>
  <course>63.64</course>
  <speed>1.9</speed>
  <fix>3d</fix>
</trkpt>
<trkpt lat="-27.2744003" lon="151.2900475">
  <ele>357.97</ele>
  <time>2026-09-01T19:50:59Z</time>
  <course>27.66</course>
  <speed>1.4378456106272326</speed>
  <fix>3d</fix>
</trkpt>
<trkpt lat="-27.2744007" lon="151.2900453">
  <ele>358.17</ele>
  <time>2026-09-01T19:50:59Z</time>
  <course>73.75</course>
  <speed>1.63</speed>
  <fix>3d</fix>
</trkpt>
<trkpt lat="-27.2744002" lon="151.290049">
  <ele>357.97</ele>
  <time>2026-09-01T19:50:59Z</time>
  <course>27.63</course>
  <speed>1.4112760183606892</speed>
  <fix>3d</fix>
</trkpt>
<trkpt lat="-27.2744007" lon="151.2900453">
  <ele>358.17</ele>
  <time>2026-09-01T19:50:59Z</time>
  <course>73.75</course>
  <speed>1.63</speed>
  <fix>3d</fix>
</trkpt>
<trkpt lat="-27.2744001" lon="151.2900505">
  <ele>357.97</ele>
  <time>2026-09-01T19:50:59Z</time>
  <course>27.67</course>
  <speed>1.4</speed>
  <fix>3d</fix>
</trkpt>
<trkpt lat="-27.2744001" lon="151.2900484">
  <ele>358.17</ele>
  <time>2026-09-01T19:50:59Z</time>
  <course>83.75</course>
  <speed>1.48</speed>
  <fix>3d</fix>
</trkpt>
<trkpt lat="-27.2744002" lon="151.2900519">
  <ele>357.96</ele>
  <time>2026-09-01T19:50:59Z</time>
  <course>27.75</course>
  <speed>1.4005713120009278</speed>
  <fix>3d</fix>
</trkpt>
<trkpt lat="-27.2744001" lon="151.2900484">
  <ele>358.17</ele>
  <time>2026-09-01T19:50:59Z</time>
  <course>83.75</course>
  <speed>1.48</speed>
  <fix>3d</fix>
</trkpt>
<trkpt lat="-27.2744002" lon="151.2900534">
  <ele>357.96</ele>
  <time>2026-09-01T19:50:59Z</time>
  <course>27.84</course>
  <speed>1.4022838514366485</speed>
  <fix>3d</fix>
</trkpt>
<trkpt lat="-27.2744" lon="151.2900513">
  <ele>358.16</ele>
  <time>2026-09-01T19:50:59Z</time>
  <course>90.26</course>
  <speed>1.43</speed>
  <fix>3d</fix>
</trkpt>
<trkpt lat="-27.2744003" lon="151.2900549">
  <ele>357.95</ele>
  <time>2026-09-01T19:50:59Z</time>
  <course>27.91</course>
  <speed>1.4051334456200237</speed>
  <fix>3d</fix>
</trkpt>
<trkpt lat="-27.2744" lon="151.2900513">
  <ele>358.16</ele>
  <time>2026-09-01T19:50:59Z</time>
  <course>90.26</course>
  <speed>1.43</speed>
  <fix>3d</fix>
</trkpt>
<trkpt lat="-27.2744004" lon="151.2900563">
  <ele>357.95</ele>
  <time>2026-09-01T19:50:59Z</time>
  <course>27.85</course>
  <speed>1.4334922392534952</speed>
  <fix>3d</fix>
</trkpt>
<trkpt lat="-27.2744001" lon="151.2900542">
  <ele>358.15</ele>
  <time>2026-09-01T19:50:59Z</time>
  <course>94.28</course>
  <speed>1.42</speed>
  <fix>3d</fix>
</trkpt>
<trkpt lat="-27.2744004" lon="151.2900579">
  <ele>357.94</ele>
  <time>2026-09-01T19:50:59Z</time>
  <course>27.83</course>
  <speed>1.4900335566691105</speed>
  <fix>3d</fix>
</trkpt>
<trkpt lat="-27.2744001" lon="151.2900542">
  <ele>358.15</ele>
  <time>2026-09-01T19:50:59Z</time>
  <course>94.28</course>
  <speed>1.42</speed>
  <fix>3d</fix>
</trkpt>
<trkpt lat="-27.2744004" lon="151.2900595">
  <ele>357.93</ele>
  <time>2026-09-01T19:50:59Z</time>
  <course>27.83</course>
  <speed>1.5632018423735305</speed>
  <fix>3d</fix>
</trkpt>
<trkpt lat="-27.2744002" lon="151.2900571">
  <ele>358.14</ele>
  <time>2026-09-01T19:50:59Z</time>
  <course>93.85</course>
  <speed>1.46</speed>
  <fix>3d</fix>
</trkpt>
<trkpt lat="-27.2744002" lon="151.2900611">
  <ele>357.93</ele>
  <time>2026-09-01T19:50:59Z</time>
  <course>27.82</course>
  <speed>1.6560495161679194</speed>
  <fix>3d</fix>
</trkpt>
<trkpt lat="-27.2744002" lon="151.2900571">
  <ele>358.14</ele>
  <time>2026-09-01T19:50:59Z</time>
  <course>93.85</course>
  <speed>1.46</speed>
  <fix>3d</fix>
</trkpt>
<trkpt lat="-27.2744" lon="151.2900629">
  <ele>357.92</ele>
  <time>2026-09-01T19:50:59Z</time>
  <course>27.81</course>
  <speed>1.7593464695732903</speed>
  <fix>3d</fix>
</trkpt>
<trkpt lat="-27.2744003" lon="151.2900601">
  <ele>358.13</ele>
  <time>2026-09-01T19:50:59Z</time>
  <course>87.42</course>
  <speed>1.58</speed>
  <fix>3d</fix>
</trkpt>
<trkpt lat="-27.2743996" lon="151.2900647">
  <ele>357.92</ele>
  <time>2026-09-01T19:50:59Z</time>
  <course>27.82</course>
  <speed>1.8804786624686813</speed>
  <fix>3d</fix>
</trkpt>
<trkpt lat="-27.2744003" lon="151.2900601">
  <ele>358.13</ele>
  <time>2026-09-01T19:50:59Z</time>
  <course>87.42</course>
  <speed>1.58</speed>
  <fix>3d</fix>
</trkpt>
<trkpt lat="-27.2743991" lon="151.2900666">
  <ele>357.92</ele>
  <time>2026-09-01T19:50:59Z</time>
  <course>27.88</course>
  <speed>1.9859506539690255</speed>
  <fix>3d</fix>
</trkpt>
<trkpt lat="-27.2744" lon="151.2900635">
  <ele>358.12</ele>
  <time>2026-09-01T19:50:59Z</time>
  <course>79.18</course>
  <speed>1.77</speed>
  <fix>3d</fix>
</trkpt>
<trkpt lat="-27.2743985" lon="151.2900685">
  <ele>357.92</ele>
  <time>2026-09-01T19:50:59Z</time>
  <course>27.97</course>
  <speed>2.059927183179056</speed>
  <fix>3d</fix>
</trkpt>
<trkpt lat="-27.2744" lon="151.2900635">
  <ele>358.12</ele>
  <time>2026-09-01T19:50:59Z</time>
  <course>79.18</course>
  <speed>1.77</speed>
  <fix>3d</fix>
</trkpt>
<trkpt lat="-27.2743978" lon="151.2900705">
  <ele>357.92</ele>
  <time>2026-09-01T19:50:59Z</time>
  <course>28.07</course>
  <speed>2.092868844433401</speed>
  <fix>3d</fix>
</trkpt>
<trkpt lat="-27.2743992" lon="151.2900671">
  <ele>358.11</ele>
  <time>2026-09-01T19:50:59Z</time>
  <course>72.91</course>
  <speed>1.97</speed>
  <fix>3d</fix>
</trkpt>
<trkpt lat="-27.2743972" lon="151.2900725">
  <ele>357.92</ele>
  <time>2026-09-01T19:50:59Z</time>
  <course>28.15</course>
  <speed>2.0965209276322523</speed>
  <fix>3d</fix>
</trkpt>
<trkpt lat="-27.2743992" lon="151.2900671">
  <ele>358.11</ele>
  <time>2026-09-01T19:50:59Z</time>
  <course>72.91</course>
  <speed>1.97</speed>
  <fix>3d</fix>
</trkpt>
<trkpt lat="-27.2743965" lon="151.2900745">
  <ele>357.93</ele>
  <time>2026-09-01T19:50:59Z</time>
  <course>28.22</course>
  <speed>2.092868844433401</speed>
  <fix>3d</fix>
</trkpt>
<trkpt lat="-27.274398" lon="151.290071">
  <ele>358.11</ele>
  <time>2026-09-01T19:50:59Z</time>
  <course>70.01</course>
  <speed>2.08</speed>
  <fix>3d</fix>
</trkpt>
<trkpt lat="-27.2743959" lon="151.2900764">
  <ele>357.93</ele>
  <time>2026-09-01T19:50:59Z</time>
  <course>28.27</course>
  <speed>2.0670026608594387</speed>
  <fix>3d</fix>
</trkpt>
<trkpt lat="-27.274398" lon="151.290071">
  <ele>358.11</ele>
  <time>2026-09-01T19:50:59Z</time>
  <course>70.01</course>
  <speed>2.08</speed>
  <fix>3d</fix>
</trkpt>
<trkpt lat="-27.2743953" lon="151.2900784">
  <ele>357.94</ele>
  <time>2026-09-01T19:50:59Z</time>
  <course>28.3</course>
  <speed>2.04707107839469</speed>
  <fix>3d</fix>
</trkpt>
<trkpt lat="-27.2743966" lon="151.2900751">
  <ele>358.12</ele>
  <time>2026-09-01T19:50:59Z</time>
  <course>69.71</course>
  <speed>2.1</speed>
  <fix>3d</fix>
</trkpt>
<trkpt lat="-27.2743947" lon="151.2900803">
  <ele>357.95</ele>
  <time>2026-09-01T19:50:59Z</time>
  <course>28.38</course>
  <speed>2.008606482116395</speed>
  <fix>3d</fix>
</trkpt>
<trkpt lat="-27.2743966" lon="151.2900751">
  <ele>358.12</ele>
  <time>2026-09-01T19:50:59Z</time>
  <course>69.71</course>
  <speed>2.1</speed>
  <fix>3d</fix>
</trkpt>
<trkpt lat="-27.2743941" lon="151.2900822">
  <ele>357.95</ele>
  <time>2026-09-01T19:50:59Z</time>
  <course>28.73</course>
  <speed>1.979747458642137</speed>
  <fix>3d</fix>
</trkpt>
<trkpt lat="-27.2743954" lon="151.290079">
  <ele>358.13</ele>
  <time>2026-09-01T19:50:59Z</time>
  <course>70.52</course>
  <speed>2.05</speed>
  <fix>3d</fix>
</trkpt>
<trkpt lat="-27.2743936" lon="151.2900841">
  <ele>357.96</ele>
  <time>2026-09-01T19:50:59Z</time>
  <course>29.66</course>
  <speed>1.9384787850270635</speed>
  <fix>3d</fix>
</trkpt>
<trkpt lat="-27.2743954" lon="151.290079">
  <ele>358.13</ele>
  <time>2026-09-01T19:50:59Z</time>
  <course>70.52</course>
  <speed>2.05</speed>
  <fix>3d</fix>
</trkpt>
<trkpt lat="-27.2743931" lon="151.290086">
  <ele>357.96</ele>
  <time>2026-09-01T19:50:59Z</time>
  <course>31.47</course>
  <speed>1.9006577808748213</speed>
  <fix>3d</fix>
</trkpt>
<trkpt lat="-27.2743942" lon="151.2900829">
  <ele>358.14</ele>
  <time>2026-09-01T19:50:59Z</time>
  <course>71.76</course>
  <speed>1.99</speed>
  <fix>3d</fix>
</trkpt>
<trkpt lat="-27.2743926" lon="151.2900878">
  <ele>357.97</ele>
  <time>2026-09-01T19:50:59Z</time>
  <course>34.32</course>
  <speed>1.8601075237738274</speed>
  <fix>3d</fix>
</trkpt>
<trkpt lat="-27.2743942" lon="151.2900829">
  <ele>358.14</ele>
  <time>2026-09-01T19:50:59Z</time>
  <course>71.76</course>
  <speed>1.99</speed>
  <fix>3d</fix>
</trkpt>
<trkpt lat="-27.2743921" lon="151.2900896">
  <ele>357.97</ele>
  <time>2026-09-01T19:50:59Z</time>
  <course>38.31</course>
  <speed>1.813201588351389</speed>
  <fix>3d</fix>
</trkpt>
<trkpt lat="-27.2743932" lon="151.2900867">
  <ele>358.15</ele>
  <time>2026-09-01T19:50:59Z</time>
  <course>73.12</course>
  <speed>1.91</speed>
  <fix>3d</fix>
</trkpt>
<trkpt lat="-27.2743917" lon="151.2900914">
  <ele>357.97</ele>
  <time>2026-09-01T19:50:59Z</time>
  <course>43.31</course>
  <speed>1.7664653973401234</speed>
  <fix>3d</fix>
</trkpt>
<trkpt lat="-27.2743932" lon="151.2900867">
  <ele>358.15</ele>
  <time>2026-09-01T19:50:59Z</time>
  <course>73.12</course>
  <speed>1.91</speed>
  <fix>3d</fix>
</trkpt>
<trkpt lat="-27.2743913" lon="151.2900931">
  <ele>357.97</ele>
  <time>2026-09-01T19:50:59Z</time>
  <course>49.1</course>
  <speed>1.719912788486672</speed>
  <fix>3d</fix>
</trkpt>
<trkpt lat="-27.2743922" lon="151.2900904">
  <ele>358.16</ele>
  <time>2026-09-01T19:50:59Z</time>
  <course>74.43</course>
  <speed>1.83</speed>
  <fix>3d</fix>
</trkpt>
<trkpt lat="-27.2743909" lon="151.2900948">
  <ele>357.97</ele>
  <time>2026-09-01T19:50:59Z</time>
  <course>55.44</course>
  <speed>1.6735590817177624</speed>
  <fix>3d</fix>
</trkpt>
<trkpt lat="-27.2743922" lon="151.2900904">
  <ele>358.16</ele>
  <time>2026-09-01T19:50:59Z</time>
  <course>74.43</course>
  <speed>1.83</speed>
  <fix>3d</fix>
</trkpt>
<trkpt lat="-27.2743906" lon="151.2900965">
  <ele>357.97</ele>
  <time>2026-09-01T19:50:59Z</time>
  <course>62.19</course>
  <speed>1.627421273057471</speed>
  <fix>3d</fix>
</trkpt>
<trkpt lat="-27.2743914" lon="151.2900938">
  <ele>358.17</ele>
  <time>2026-09-01T19:50:59Z</time>
  <course>75.63</course>
  <speed>1.74</speed>
  <fix>3d</fix>
</trkpt>
<trkpt lat="-27.2743902" lon="151.2900981">
  <ele>357.97</ele>
  <time>2026-09-01T19:50:59Z</time>
  <course>69.06</course>
  <speed>1.5838244852255567</speed>
  <fix>3d</fix>
</trkpt>
<trkpt lat="-27.2743914" lon="151.2900938">
  <ele>358.17</ele>
  <time>2026-09-01T19:50:59Z</time>
  <course>75.63</course>
  <speed>1.74</speed>
  <fix>3d</fix>
</trkpt>
<trkpt lat="-27.27439" lon="151.2900997">
  <ele>357.96</ele>
  <time>2026-09-01T19:50:59Z</time>
  <course>76.0</course>
  <speed>1.5380507143784303</speed>
  <fix>3d</fix>
</trkpt>
<trkpt lat="-27.2743907" lon="151.2900972">
  <ele>358.17</ele>
  <time>2026-09-01T19:50:59Z</time>
  <course>76.85</course>
  <speed>1.64</speed>
  <fix>3d</fix>
</trkpt>
<trkpt lat="-27.2743897" lon="151.2901012">
  <ele>357.96</ele>
  <time>2026-09-01T19:50:59Z</time>
  <course>82.9</course>
  <speed>1.4905032707109367</speed>
  <fix>3d</fix>
</trkpt>
<trkpt lat="-27.2743907" lon="151.2900972">
  <ele>358.17</ele>
  <time>2026-09-01T19:50:59Z</time>
  <course>76.85</course>
  <speed>1.64</speed>
  <fix>3d</fix>
</trkpt>
<trkpt lat="-27.2743894" lon="151.2901027">
  <ele>357.96</ele>
  <time>2026-09-01T19:50:59Z</time>
  <course>89.72</course>
  <speed>1.4356183336806478</speed>
  <fix>3d</fix>
</trkpt>
<trkpt lat="-27.2743901" lon="151.2901003">
  <ele>358.17</ele>
  <time>2026-09-01T19:50:59Z</time>
  <course>78.24</course>
  <speed>1.54</speed>
  <fix>3d</fix>
</trkpt>
<trkpt lat="-27.2743892" lon="151.2901042">
  <ele>357.96</ele>
  <time>2026-09-01T19:50:59Z</time>
  <course>96.42</course>
  <speed>1.3908630414242804</speed>
  <fix>3d</fix>
</trkpt>
<trkpt lat="-27.2743901" lon="151.2901003">
  <ele>358.17</ele>
  <time>2026-09-01T19:50:59Z</time>
  <course>78.24</course>
  <speed>1.54</speed>
  <fix>3d</fix>
</trkpt>
<trkpt lat="-27.274389" lon="151.2901056">
  <ele>357.96</ele>
  <time>2026-09-01T19:50:59Z</time>
  <course>102.97</course>
  <speed>1.335065541462291</speed>
  <fix>3d</fix>
</trkpt>
<trkpt lat="-27.2743895" lon="151.2901033">
  <ele>358.16</ele>
  <time>2026-09-01T19:50:59Z</time>
  <course>79.96</course>
  <speed>1.44</speed>
  <fix>3d</fix>
</trkpt>
<trkpt lat="-27.2743889" lon="151.2901069">
  <ele>357.96</ele>
  <time>2026-09-01T19:50:59Z</time>
  <course>109.34</course>
  <speed>1.2899612397277678</speed>
  <fix>3d</fix>
</trkpt>
<trkpt lat="-27.2743895" lon="151.2901033">
  <ele>358.16</ele>
  <time>2026-09-01T19:50:59Z</time>
  <course>79.96</course>
  <speed>1.44</speed>
  <fix>3d</fix>
</trkpt>
<trkpt lat="-27.2743888" lon="151.2901082">
  <ele>357.95</ele>
  <time>2026-09-01T19:50:59Z</time>
  <course>115.39</course>
  <speed>1.2368508398347797</speed>
  <fix>3d</fix>
</trkpt>
<trkpt lat="-27.2743891" lon="151.2901061">
  <ele>358.16</ele>
  <time>2026-09-01T19:50:59Z</time>
  <course>82.12</course>
  <speed>1.34</speed>
  <fix>3d</fix>
</trkpt>
<trkpt lat="-27.2743887" lon="151.2901094">
  <ele>357.95</ele>
  <time>2026-09-01T19:50:59Z</time>
  <course>120.94</course>
  <speed>1.183427226321923</speed>
  <fix>3d</fix>
</trkpt>
<trkpt lat="-27.2743891" lon="151.2901061">
  <ele>358.16</ele>
  <time>2026-09-01T19:50:59Z</time>
  <course>82.12</course>
  <speed>1.34</speed>
  <fix>3d</fix>
</trkpt>
<trkpt lat="-27.2743886" lon="151.2901106">
  <ele>357.95</ele>
  <time>2026-09-01T19:50:59Z</time>
  <course>125.79</course>
  <speed>1.1311056537742175</speed>
  <fix>3d</fix>
</trkpt>
<trkpt lat="-27.2743889" lon="151.2901087">
  <ele>358.15</ele>
  <time>2026-09-01T19:50:59Z</time>
  <course>84.82</course>
  <speed>1.23</speed>
  <fix>3d</fix>
</trkpt>
<trkpt lat="-27.2743886" lon="151.2901118">
  <ele>357.95</ele>
  <time>2026-09-01T19:50:59Z</time>
  <course>129.77</course>
  <speed>1.08</speed>
  <fix>3d</fix>
</trkpt>
<trkpt lat="-27.2743889" lon="151.2901087">
  <ele>358.15</ele>
  <time>2026-09-01T19:50:59Z</time>
  <course>84.82</course>
  <speed>1.23</speed>
  <fix>3d</fix>
</trkpt>
<trkpt lat="-27.2743886" lon="151.2901128">
  <ele>357.95</ele>
  <time>2026-09-01T19:50:59Z</time>
  <course>132.8</course>
  <speed>1.0304368005850721</speed>
  <fix>3d</fix>
</trkpt>
<trkpt lat="-27.2743887" lon="151.2901111">
  <ele>358.15</ele>
  <time>2026-09-01T19:50:59Z</time>
  <course>88.3</course>
  <speed>1.13</speed>
  <fix>3d</fix>
</trkpt>
<trkpt lat="-27.2743886" lon="151.2901139">
  <ele>357.95</ele>
  <time>2026-09-01T19:50:59Z</time>
  <course>134.85</course>
  <speed>0.9932270636667125</speed>
  <fix>3d</fix>
</trkpt>
<trkpt lat="-27.2743887" lon="151.2901111">
  <ele>358.15</ele>
  <time>2026-09-01T19:50:59Z</time>
  <course>88.3</course>
  <speed>1.13</speed>
  <fix>3d</fix>
</trkpt>
<trkpt lat="-27.2743887" lon="151.2901149">
  <ele>357.95</ele>
  <time>2026-09-01T19:50:59Z</time>
  <course>136.02</course>
  <speed>0.9489467845985885</speed>
  <fix>3d</fix>
</trkpt>
<trkpt lat="-27.2743887" lon="151.2901132">
  <ele>358.14</ele>
  <time>2026-09-01T19:50:59Z</time>
  <course>92.88</course>
  <speed>1.03</speed>
  <fix>3d</fix>
</trkpt>
<trkpt lat="-27.2743889" lon="151.2901158">
  <ele>357.95</ele>
  <time>2026-09-01T19:50:59Z</time>
  <course>136.45</course>
  <speed>0.9178235124467012</speed>
  <fix>3d</fix>
</trkpt>
<trkpt lat="-27.2743887" lon="151.2901132">
  <ele>358.14</ele>
  <time>2026-09-01T19:50:59Z</time>
  <course>92.88</course>
  <speed>1.03</speed>
  <fix>3d</fix>
</trkpt>
<trkpt lat="-27.2743891" lon="151.2901167">
  <ele>357.95</ele>
  <time>2026-09-01T19:50:59Z</time>
  <course>136.32</course>
  <speed>0.8805679985100526</speed>
  <fix>3d</fix>
</trkpt>
<trkpt lat="-27.2743889" lon="151.2901152">
  <ele>358.14</ele>
  <time>2026-09-01T19:50:59Z</time>
  <course>98.81</course>
  <speed>0.95</speed>
  <fix>3d</fix>
</trkpt>
<trkpt lat="-27.2743893" lon="151.2901176">
  <ele>357.95</ele>
  <time>2026-09-01T19:50:59Z</time>
  <course>135.83</course>
  <speed>0.8570297544426332</speed>
  <fix>3d</fix>
</trkpt>
<trkpt lat="-27.2743889" lon="151.2901152">
  <ele>358.14</ele>
  <time>2026-09-01T19:50:59Z</time>
  <course>98.81</course>
  <speed>0.95</speed>
  <fix>3d</fix>
</trkpt>
<trkpt lat="-27.2743896" lon="151.2901184">
  <ele>357.95</ele>
  <time>2026-09-01T19:50:59Z</time>
  <course>135.2</course>
  <speed>0.83773504164503</speed>
  <fix>3d</fix>
</trkpt>
<trkpt lat="-27.2743892" lon="151.290117">
  <ele>358.14</ele>
  <time>2026-09-01T19:50:59Z</time>
  <course>106.08</course>
  <speed>0.88</speed>
  <fix>3d</fix>
</trkpt>
<trkpt lat="-27.2743899" lon="151.2901191">
  <ele>357.95</ele>
  <time>2026-09-01T19:50:59Z</time>
  <course>134.6</course>
  <speed>0.8141252974819048</speed>
  <fix>3d</fix>
</trkpt>
<trkpt lat="-27.2743892" lon="151.290117">
  <ele>358.14</ele>
  <time>2026-09-01T19:50:59Z</time>
  <course>106.08</course>
  <speed>0.88</speed>
  <fix>3d</fix>
</trkpt>
<trkpt lat="-27.2743903" lon="151.2901198">
  <ele>357.95</ele>
  <time>2026-09-01T19:50:59Z</time>
  <course>134.44</course>
  <speed>0.7769813382572325</speed>
  <fix>3d</fix>
</trkpt>
<trkpt lat="-27.2743897" lon="151.2901187">
  <ele>358.14</ele>
  <time>2026-09-01T19:50:59Z</time>
  <course>114.5</course>
  <speed>0.83</speed>
  <fix>3d</fix>
</trkpt>
<trkpt lat="-27.2743907" lon="151.2901205">
  <ele>357.95</ele>
  <time>2026-09-01T19:50:59Z</time>
  <course>134.44</course>
  <speed>0.6661080993352355</speed>
  <fix>3d</fix>
</trkpt>
<trkpt lat="-27.2743897" lon="151.2901187">
  <ele>358.14</ele>
  <time>2026-09-01T19:50:59Z</time>
  <course>114.5</course>
  <speed>0.83</speed>
  <fix>3d</fix>
</trkpt>
<trkpt lat="-27.274391" lon="151.2901209">
  <ele>357.95</ele>
  <time>2026-09-01T19:50:59Z</time>
  <course>134.44</course>
  <speed>0.5032891812864648</speed>
  <fix>3d</fix>
</trkpt>
<trkpt lat="-27.2743904" lon="151.2901201">
  <ele>358.14</ele>
  <time>2026-09-01T19:50:59Z</time>
  <course>122.82</course>
  <speed>0.74</speed>
  <fix>3d</fix>
</trkpt>
<trkpt lat="-27.2743913" lon="151.2901212">
  <ele>357.95</ele>
  <time>2026-09-01T19:50:59Z</time>
  <course>134.48</course>
  <speed>0.33421549934136807</speed>
  <fix>3d</fix>
</trkpt>
<trkpt lat="-27.2743904" lon="151.2901201">
  <ele>358.14</ele>
  <time>2026-09-01T19:50:59Z</time>
  <course>122.82</course>
  <speed>0.74</speed>
  <fix>3d</fix>
</trkpt>
<trkpt lat="-27.2743915" lon="151.2901214">
  <ele>357.95</ele>
  <time>2026-09-01T19:50:59Z</time>
  <course>134.58</course>
  <speed>0.1824828759089466</speed>
  <fix>3d</fix>
</trkpt>
<trkpt lat="-27.2743911" lon="151.2901211">
  <ele>358.14</ele>
  <time>2026-09-01T19:50:59Z</time>
  <course>132.73</course>
  <speed>0.5</speed>
  <fix>3d</fix>
</trkpt>
<trkpt lat="-27.2743916" lon="151.2901213">
  <ele>357.95</ele>
  <time>2026-09-01T19:50:59Z</time>
  <course>134.71</course>
  <speed>0.1664331697709324</speed>
  <fix>3d</fix>
</trkpt>
<trkpt lat="-27.2743911" lon="151.2901211">
  <ele>358.14</ele>
  <time>2026-09-01T19:50:59Z</time>
  <course>132.73</course>
  <speed>0.5</speed>
  <fix>3d</fix>
</trkpt>
<trkpt lat="-27.2743917" lon="151.2901211">
  <ele>357.95</ele>
  <time>2026-09-01T19:50:59Z</time>
  <course>134.8</course>
  <speed>0.30066592756745814</speed>
  <fix>3d</fix>
</trkpt>
<trkpt lat="-27.2743916" lon="151.2901215">
  <ele>358.14</ele>
  <time>2026-09-01T19:50:59Z</time>
  <course>171.75</course>
  <speed>0.19</speed>
  <fix>3d</fix>
</trkpt>
<trkpt lat="-27.2743917" lon="151.2901207">
  <ele>357.95</ele>
  <time>2026-09-01T19:50:59Z</time>
  <course>135.02</course>
  <speed>0.43</speed>
  <fix>3d</fix>
</trkpt>
<trkpt lat="-27.2743916" lon="151.2901215">
  <ele>358.14</ele>
  <time>2026-09-01T19:50:59Z</time>
  <course>171.75</course>
  <speed>0.19</speed>
  <fix>3d</fix>
</trkpt>
<trkpt lat="-27.2743917" lon="151.2901203">
  <ele>357.95</ele>
  <time>2026-09-01T19:50:59Z</time>
  <course>135.59</course>
  <speed>0.51</speed>
  <fix>3d</fix>
</trkpt>
<trkpt lat="-27.2743918" lon="151.2901212">
  <ele>358.13</ele>
  <time>2026-09-01T19:50:59Z</time>
  <course>259.95</course>
  <speed>0.3</speed>
  <fix>3d</fix>
</trkpt>
<trkpt lat="-27.2743917" lon="151.2901198">
  <ele>357.95</ele>
  <time>2026-09-01T19:50:59Z</time>
  <course>136.45</course>
  <speed>0.570350769263968</speed>
  <fix>3d</fix>
</trkpt>
<trkpt lat="-27.2743918" lon="151.2901212">
  <ele>358.13</ele>
  <time>2026-09-01T19:50:59Z</time>
  <course>259.95</course>
  <speed>0.3</speed>
  <fix>3d</fix>
</trkpt>
<trkpt lat="-27.2743918" lon="151.2901193">
  <ele>357.95</ele>
  <time>2026-09-01T19:50:59Z</time>
  <course>137.4</course>
  <speed>0.6140032573203501</speed>
  <fix>3d</fix>
</trkpt>
<trkpt lat="-27.2743919" lon="151.2901204">
  <ele>358.13</ele>
  <time>2026-09-01T19:50:59Z</time>
  <course>268.81</course>
  <speed>0.52</speed>
  <fix>3d</fix>
</trkpt>
<trkpt lat="-27.2743919" lon="151.2901186">
  <ele>357.95</ele>
  <time>2026-09-01T19:50:59Z</time>
  <course>138.25</course>
  <speed>0.6453681120105021</speed>
  <fix>3d</fix>
</trkpt>
<trkpt lat="-27.2743919" lon="151.2901204">
  <ele>358.13</ele>
  <time>2026-09-01T19:50:59Z</time>
  <course>268.81</course>
  <speed>0.52</speed>
  <fix>3d</fix>
</trkpt>
<trkpt lat="-27.274392" lon="151.290118">
  <ele>357.95</ele>
  <time>2026-09-01T19:50:59Z</time>
  <course>138.87</course>
  <speed>0.6830812543175226</speed>
  <fix>3d</fix>
</trkpt>
<trkpt lat="-27.2743919" lon="151.2901193">
  <ele>358.14</ele>
  <time>2026-09-01T19:50:59Z</time>
  <course>262.81</course>
  <speed>0.63</speed>
  <fix>3d</fix>
</trkpt>
<trkpt lat="-27.2743923" lon="151.2901174">
  <ele>357.95</ele>
  <time>2026-09-01T19:50:59Z</time>
  <course>139.17</course>
  <speed>0.7209022125087423</speed>
  <fix>3d</fix>
</trkpt>
<trkpt lat="-27.2743919" lon="151.2901193">
  <ele>358.14</ele>
  <time>2026-09-01T19:50:59Z</time>
  <course>262.81</course>
  <speed>0.63</speed>
  <fix>3d</fix>
</trkpt>
<trkpt lat="-27.2743926" lon="151.2901167">
  <ele>357.95</ele>
  <time>2026-09-01T19:50:59Z</time>
  <course>139.15</course>
  <speed>0.7615773105863909</speed>
  <fix>3d</fix>
</trkpt>
<trkpt lat="-27.2743922" lon="151.290118">
  <ele>358.14</ele>
  <time>2026-09-01T19:50:59Z</time>
  <course>252.81</course>
  <speed>0.71</speed>
  <fix>3d</fix>
</trkpt>
<trkpt lat="-27.274393" lon="151.290116">
  <ele>357.95</ele>
  <time>2026-09-01T19:50:59Z</time>
  <course>138.86</course>
  <speed>0.8102468759581859</speed>
  <fix>3d</fix>
</trkpt>
<trkpt lat="-27.2743922" lon="151.290118">
  <ele>358.14</ele>
  <time>2026-09-01T19:50:59Z</time>
  <course>252.81</course>
  <speed>0.71</speed>
  <fix>3d</fix>
</trkpt>
<trkpt lat="-27.2743934" lon="151.2901154">
  <ele>357.95</ele>
  <time>2026-09-01T19:50:59Z</time>
  <course>138.37</course>
  <speed>0.859127464349732</speed>
  <fix>3d</fix>
</trkpt>
<trkpt lat="-27.2743927" lon="151.2901165">
  <ele>358.14</ele>
  <time>2026-09-01T19:50:59Z</time>
  <course>241.98</course>
  <speed>0.79</speed>
  <fix>3d</fix>
</trkpt>
<trkpt lat="-27.2743939" lon="151.2901147">
  <ele>357.94</ele>
  <time>2026-09-01T19:50:59Z</time>
  <course>137.8</course>
  <speed>0.9196738552334734</speed>
  <fix>3d</fix>
</trkpt>
<trkpt lat="-27.2743927" lon="151.2901165">
  <ele>358.14</ele>
  <time>2026-09-01T19:50:59Z</time>
  <course>241.98</course>
  <speed>0.79</speed>
  <fix>3d</fix>
</trkpt>
<trkpt lat="-27.2743945" lon="151.290114">
  <ele>357.94</ele>
  <time>2026-09-01T19:50:59Z</time>
  <course>137.24</course>
  <speed>0.9687620966986684</speed>
  <fix>3d</fix>
</trkpt>
<trkpt lat="-27.2743935" lon="151.2901151">
  <ele>358.13</ele>
  <time>2026-09-01T19:50:59Z</time>
  <course>232.73</course>
  <speed>0.89</speed>
  <fix>3d</fix>
</trkpt>
<trkpt lat="-27.2743951" lon="151.2901133">
  <ele>357.93</ele>
  <time>2026-09-01T19:50:59Z</time>
  <course>136.47</course>
  <speed>1.0259142264341596</speed>
  <fix>3d</fix>
</trkpt>
<trkpt lat="-27.2743935" lon="151.2901151">
  <ele>358.13</ele>
  <time>2026-09-01T19:50:59Z</time>
  <course>232.73</course>
  <speed>0.89</speed>
  <fix>3d</fix>
</trkpt>
<trkpt lat="-27.2743959" lon="151.2901126">
  <ele>357.93</ele>
  <time>2026-09-01T19:50:59Z</time>
  <course>135.97</course>
  <speed>1.0860018416190647</speed>
  <fix>3d</fix>
</trkpt>
<trkpt lat="-27.2743946" lon="151.2901136">
  <ele>358.12</ele>
  <time>2026-09-01T19:50:59Z</time>
  <course>227.09</course>
  <speed>1.0</speed>
  <fix>3d</fix>
</trkpt>
<trkpt lat="-27.2743967" lon="151.2901119">
  <ele>357.93</ele>
  <time>2026-09-01T19:50:59Z</time>
  <course>135.76</course>
  <speed>1.1733712115098103</speed>
  <fix>3d</fix>
</trkpt>
<trkpt lat="-27.2743946" lon="151.2901136">
  <ele>358.12</ele>
  <time>2026-09-01T19:50:59Z</time>
  <course>227.09</course>
  <speed>1.0</speed>
  <fix>3d</fix>
</trkpt>
<trkpt lat="-27.2743977" lon="151.2901114">
  <ele>357.92</ele>
  <time>2026-09-01T19:50:59Z</time>
  <course>135.77</course>
  <speed>1.2869343417595163</speed>
  <fix>3d</fix>
</trkpt>
<trkpt lat="-27.2743959" lon="151.2901122">
  <ele>358.11</ele>
  <time>2026-09-01T19:50:59Z</time>
  <course>218.34</course>
  <speed>1.12</speed>
  <fix>3d</fix>
</trkpt>
<trkpt lat="-27.2743988" lon="151.2901109">
  <ele>357.92</ele>
  <time>2026-09-01T19:50:59Z</time>
  <course>135.92</course>
  <speed>1.417603611733548</speed>
  <fix>3d</fix>
</trkpt>
<trkpt lat="-27.2743959" lon="151.2901122">
  <ele>358.11</ele>
  <time>2026-09-01T19:50:59Z</time>
  <course>218.34</course>
  <speed>1.12</speed>
  <fix>3d</fix>
</trkpt>
<trkpt lat="-27.2744001" lon="151.2901105">
  <ele>357.92</ele>
  <time>2026-09-01T19:50:59Z</time>
  <course>136.22</course>
  <speed>1.5610893632332519</speed>
  <fix>3d</fix>
</trkpt>
<trkpt lat="-27.2743978" lon="151.2901109">
  <ele>358.11</ele>
  <time>2026-09-01T19:50:59Z</time>
  <course>205.01</course>
  <speed>1.31</speed>
  <fix>3d</fix>
</trkpt>
<trkpt lat="-27.2744016" lon="151.2901102">
  <ele>357.92</ele>
  <time>2026-09-01T19:50:59Z</time>
  <course>136.72</course>
  <speed>1.695670958647343</speed>
  <fix>3d</fix>
</trkpt>
<trkpt lat="-27.2743978" lon="151.2901109">
  <ele>358.11</ele>
  <time>2026-09-01T19:50:59Z</time>
  <course>205.01</course>
  <speed>1.31</speed>
  <fix>3d</fix>
</trkpt>
<trkpt lat="-27.2744031" lon="151.2901099">
  <ele>357.93</ele>
  <time>2026-09-01T19:50:59Z</time>
  <course>137.34</course>
  <speed>1.800055554698243</speed>
  <fix>3d</fix>
</trkpt>
<trkpt lat="-27.2744002" lon="151.29011">
  <ele>358.11</ele>
  <time>2026-09-01T19:50:59Z</time>
  <course>194.17</course>
  <speed>1.56</speed>
  <fix>3d</fix>
</trkpt>
<trkpt lat="-27.2744047" lon="151.2901097">
  <ele>357.93</ele>
  <time>2026-09-01T19:50:59Z</time>
  <course>138.09</course>
  <speed>1.8686893802876923</speed>
  <fix>3d</fix>
</trkpt>
<trkpt lat="-27.2744002" lon="151.29011">
  <ele>358.11</ele>
  <time>2026-09-01T19:50:59Z</time>
  <course>194.17</course>
  <speed>1.56</speed>
  <fix>3d</fix>
</trkpt>
<trkpt lat="-27.2744064" lon="151.2901094">
  <ele>357.94</ele>
  <time>2026-09-01T19:50:59Z</time>
  <course>138.98</course>
  <speed>1.9284190415985836</speed>
  <fix>3d</fix>
</trkpt>
<trkpt lat="-27.2744033" lon="151.2901093">
  <ele>358.12</ele>
  <time>2026-09-01T19:50:59Z</time>
  <course>188.63</course>
  <speed>1.79</speed>
  <fix>3d</fix>
</trkpt>
<trkpt lat="-27.2744081" lon="151.2901092">
  <ele>357.94</ele>
  <time>2026-09-01T19:50:59Z</time>
  <course>140.05</course>
  <speed>1.9602295783912658</speed>
  <fix>3d</fix>
</trkpt>
<trkpt lat="-27.2744033" lon="151.2901093">
  <ele>358.12</ele>
  <time>2026-09-01T19:50:59Z</time>
  <course>188.63</course>
  <speed>1.79</speed>
  <fix>3d</fix>
</trkpt>
<trkpt lat="-27.2744099" lon="151.2901089">
  <ele>357.95</ele>
  <time>2026-09-01T19:50:59Z</time>
  <course>141.27</course>
  <speed>1.9921847303902316</speed>
  <fix>3d</fix>
</trkpt>
<trkpt lat="-27.2744066" lon="151.2901088">
  <ele>358.12</ele>
  <time>2026-09-01T19:50:59Z</time>
  <course>187.38</course>
  <speed>1.93</speed>
  <fix>3d</fix>
</trkpt>
<trkpt lat="-27.2744116" lon="151.2901086">
  <ele>357.96</ele>
  <time>2026-09-01T19:50:59Z</time>
  <course>142.64</course>
  <speed>2.025487595617411</speed>
  <fix>3d</fix>
</trkpt>
<trkpt lat="-27.2744066" lon="151.2901088">
  <ele>358.12</ele>
  <time>2026-09-01T19:50:59Z</time>
  <course>187.38</course>
  <speed>1.93</speed>
  <fix>3d</fix>
</trkpt>
<trkpt lat="-27.2744134" lon="151.2901083">
  <ele>357.97</ele>
  <time>2026-09-01T19:50:59Z</time>
  <course>144.11</course>
  <speed>2.0379646709401023</speed>
  <fix>3d</fix>
</trkpt>
<trkpt lat="-27.2744102" lon="151.2901082">
  <ele>358.14</ele>
  <time>2026-09-01T19:50:59Z</time>
  <course>187.98</course>
  <speed>2.01</speed>
  <fix>3d</fix>
</trkpt>
<trkpt lat="-27.2744153" lon="151.2901079">
  <ele>357.97</ele>
  <time>2026-09-01T19:50:59Z</time>
  <course>145.67</course>
  <speed>2.0619408332927502</speed>
  <fix>3d</fix>
</trkpt>
<trkpt lat="-27.2744102" lon="151.2901082">
  <ele>358.14</ele>
  <time>2026-09-01T19:50:59Z</time>
  <course>187.98</course>
  <speed>2.01</speed>
  <fix>3d</fix>
</trkpt>
<trkpt lat="-27.2744171" lon="151.2901075">
  <ele>357.98</ele>
  <time>2026-09-01T19:50:59Z</time>
  <course>147.27</course>
  <speed>2.0763910999616617</speed>
  <fix>3d</fix>
</trkpt>
<trkpt lat="-27.2744138" lon="151.2901077">
  <ele>358.15</ele>
  <time>2026-09-01T19:50:59Z</time>
  <course>189.15</course>
  <speed>2.06</speed>
  <fix>3d</fix>
</trkpt>
<trkpt lat="-27.2744189" lon="151.2901071">
  <ele>357.98</ele>
  <time>2026-09-01T19:50:59Z</time>
  <course>148.92</course>
  <speed>2.091219739769114</speed>
  <fix>3d</fix>
</trkpt>
<trkpt lat="-27.2744138" lon="151.2901077">
  <ele>358.15</ele>
  <time>2026-09-01T19:50:59Z</time>
  <course>189.15</course>
  <speed>2.06</speed>
  <fix>3d</fix>
</trkpt>
<trkpt lat="-27.2744208" lon="151.2901067">
  <ele>357.98</ele>
  <time>2026-09-01T19:50:59Z</time>
  <course>150.59</course>
  <speed>2.10459022139703</speed>
  <fix>3d</fix>
</trkpt>
<trkpt lat="-27.2744175" lon="151.2901069">
  <ele>358.16</ele>
  <time>2026-09-01T19:50:59Z</time>
  <course>190.44</course>
  <speed>2.1</speed>
  <fix>3d</fix>
</trkpt>
<trkpt lat="-27.2744227" lon="151.2901063">
  <ele>357.98</ele>
  <time>2026-09-01T19:50:59Z</time>
  <course>152.23</course>
  <speed>2.1200235847744713</speed>
  <fix>3d</fix>
</trkpt>
<trkpt lat="-27.2744175" lon="151.2901069">
  <ele>358.16</ele>
  <time>2026-09-01T19:50:59Z</time>
  <course>190.44</course>
  <speed>2.1</speed>
  <fix>3d</fix>
</trkpt>
<trkpt lat="-27.2744245" lon="151.2901058">
  <ele>357.99</ele>
  <time>2026-09-01T19:50:59Z</time>
  <course>153.68</course>
  <speed>2.1358136622842356</speed>
  <fix>3d</fix>
</trkpt>
<trkpt lat="-27.2744212" lon="151.2901061">
  <ele>358.16</ele>
  <time>2026-09-01T19:50:59Z</time>
  <course>191.72</course>
  <speed>2.13</speed>
  <fix>3d</fix>
</trkpt>
<trkpt lat="-27.2744264" lon="151.2901053">
  <ele>357.99</ele>
  <time>2026-09-01T19:50:59Z</time>
  <course>154.82</course>
  <speed>2.140023364358436</speed>
  <fix>3d</fix>
</trkpt>
<trkpt lat="-27.2744212" lon="151.2901061">
  <ele>358.16</ele>
  <time>2026-09-01T19:50:59Z</time>
  <course>191.72</course>
  <speed>2.13</speed>
  <fix>3d</fix>
</trkpt>
<trkpt lat="-27.2744283" lon="151.2901047">
  <ele>357.99</ele>
  <time>2026-09-01T19:50:59Z</time>
  <course>155.57</course>
  <speed>2.1564090521049106</speed>
  <fix>3d</fix>
</trkpt>
<trkpt lat="-27.274425" lon="151.2901052">
  <ele>358.17</ele>
  <time>2026-09-01T19:50:59Z</time>
  <course>192.95</course>
  <speed>2.16</speed>
  <fix>3d</fix>
</trkpt>
<trkpt lat="-27.2744302" lon="151.2901042">
  <ele>357.99</ele>
  <time>2026-09-01T19:50:59Z</time>
  <course>155.95</course>
  <speed>2.1707602354935474</speed>
  <fix>3d</fix>
</trkpt>
<trkpt lat="-27.274425" lon="151.2901052">
  <ele>358.17</ele>
  <time>2026-09-01T19:50:59Z</time>
  <course>192.95</course>
  <speed>2.16</speed>
  <fix>3d</fix>
</trkpt>
<trkpt lat="-27.2744321" lon="151.2901036">
  <ele>357.99</ele>
  <time>2026-09-01T19:50:59Z</time>
  <course>156.01</course>
  <speed>2.1755459085020474</speed>
  <fix>3d</fix>
</trkpt>
<trkpt lat="-27.2744288" lon="151.2901041">
  <ele>358.16</ele>
  <time>2026-09-01T19:50:59Z</time>
  <course>194.08</course>
  <speed>2.18</speed>
  <fix>3d</fix>
</trkpt>
<trkpt lat="-27.274434" lon="151.290103">
  <ele>357.98</ele>
  <time>2026-09-01T19:50:59Z</time>
  <course>155.97</course>
  <speed>2.1733844574764034</speed>
  <fix>3d</fix>
</trkpt>
<trkpt lat="-27.2744288" lon="151.2901041">
  <ele>358.16</ele>
  <time>2026-09-01T19:50:59Z</time>
  <course>194.08</course>
  <speed>2.18</speed>
  <fix>3d</fix>
</trkpt>
<trkpt lat="-27.2744359" lon="151.2901024">
  <ele>357.98</ele>
  <time>2026-09-01T19:50:59Z</time>
  <course>155.83</course>
  <speed>2.1225691979297165</speed>
  <fix>3d</fix>
</trkpt>
<trkpt lat="-27.2744326" lon="151.290103">
  <ele>358.16</ele>
  <time>2026-09-01T19:50:59Z</time>
  <course>195.21</course>
  <speed>2.2</speed>
  <fix>3d</fix>
</trkpt>
<trkpt lat="-27.2744377" lon="151.2901017">
  <ele>357.98</ele>
  <time>2026-09-01T19:50:59Z</time>
  <course>155.52</course>
  <speed>2.0342320418280706</speed>
  <fix>3d</fix>
</trkpt>
<trkpt lat="-27.2744326" lon="151.290103">
  <ele>358.16</ele>
  <time>2026-09-01T19:50:59Z</time>
  <course>195.21</course>
  <speed>2.2</speed>
  <fix>3d</fix>
</trkpt>
<trkpt lat="-27.2744393" lon="151.2901009">
  <ele>357.97</ele>
  <time>2026-09-01T19:50:59Z</time>
  <course>155.15</course>
  <speed>1.9423954283306992</speed>
  <fix>3d</fix>
</trkpt>
<trkpt lat="-27.2744363" lon="151.2901018">
  <ele>358.15</ele>
  <time>2026-09-01T19:50:59Z</time>
  <course>198.31</course>
  <speed>2.13</speed>
  <fix>3d</fix>
</trkpt>
<trkpt lat="-27.2744409" lon="151.2901">
  <ele>357.97</ele>
  <time>2026-09-01T19:50:59Z</time>
  <course>154.8</course>
  <speed>1.8483776670366907</speed>
  <fix>3d</fix>
</trkpt>
<trkpt lat="-27.2744363" lon="151.2901018">
  <ele>358.15</ele>
  <time>2026-09-01T19:50:59Z</time>
  <course>198.31</course>
  <speed>2.13</speed>
  <fix>3d</fix>
</trkpt>
<trkpt lat="-27.2744423" lon="151.290099">
  <ele>357.97</ele>
  <time>2026-09-01T19:50:59Z</time>
  <course>154.51</course>
  <speed>1.7805897899291685</speed>
  <fix>3d</fix>
</trkpt>
<trkpt lat="-27.2744397" lon="151.2901003">
  <ele>358.15</ele>
  <time>2026-09-01T19:50:59Z</time>
  <course>205.01</course>
  <speed>1.97</speed>
  <fix>3d</fix>
</trkpt>
<trkpt lat="-27.2744436" lon="151.2900978">
  <ele>357.97</ele>
  <time>2026-09-01T19:50:59Z</time>
  <course>154.23</course>
  <speed>1.7210461934532728</speed>
  <fix>3d</fix>
</trkpt>
<trkpt lat="-27.2744397" lon="151.2901003">
  <ele>358.15</ele>
  <time>2026-09-01T19:50:59Z</time>
  <course>205.01</course>
  <speed>1.97</speed>
  <fix>3d</fix>
</trkpt>
<trkpt lat="-27.2744448" lon="151.2900967">
  <ele>357.96</ele>
  <time>2026-09-01T19:50:59Z</time>
  <course>154.05</course>
  <speed>1.6985287751463027</speed>
  <fix>3d</fix>
</trkpt>
<trkpt lat="-27.2744427" lon="151.2900984">
  <ele>358.15</ele>
  <time>2026-09-01T19:50:59Z</time>
  <course>214.13</course>
  <speed>1.81</speed>
  <fix>3d</fix>
</trkpt>
<trkpt lat="-27.2744459" lon="151.2900955">
  <ele>357.96</ele>
  <time>2026-09-01T19:50:59Z</time>
  <course>153.99</course>
  <speed>1.675857989210303</speed>
  <fix>3d</fix>
</trkpt>
<trkpt lat="-27.2744427" lon="151.2900984">
  <ele>358.15</ele>
  <time>2026-09-01T19:50:59Z</time>
  <course>214.13</course>
  <speed>1.81</speed>
  <fix>3d</fix>
</trkpt>
<trkpt lat="-27.2744469" lon="151.2900942">
  <ele>357.96</ele>
  <time>2026-09-01T19:50:59Z</time>
  <course>154.01</course>
  <speed>1.670269439342048</speed>
  <fix>3d</fix>
</trkpt>
<trkpt lat="-27.2744452" lon="151.2900962">
  <ele>358.15</ele>
  <time>2026-09-01T19:50:59Z</time>
  <course>222.46</course>
  <speed>1.73</speed>
  <fix>3d</fix>
</trkpt>
<trkpt lat="-27.2744479" lon="151.290093">
  <ele>357.96</ele>
  <time>2026-09-01T19:50:59Z</time>
  <course>154.1</course>
  <speed>1.6650825805346714</speed>
  <fix>3d</fix>
</trkpt>
<trkpt lat="-27.2744452" lon="151.2900962">
  <ele>358.15</ele>
  <time>2026-09-01T19:50:59Z</time>
  <course>222.46</course>
  <speed>1.73</speed>
  <fix>3d</fix>
</trkpt>
<trkpt lat="-27.274449" lon="151.2900917">
  <ele>357.95</ele>
  <time>2026-09-01T19:50:59Z</time>
  <course>154.21</course>
  <speed>1.6606625183943908</speed>
  <fix>3d</fix>
</trkpt>
<trkpt lat="-27.2744474" lon="151.2900937">
  <ele>358.14</ele>
  <time>2026-09-01T19:50:59Z</time>
  <course>227.5</course>
  <speed>1.7</speed>
  <fix>3d</fix>
</trkpt>
<trkpt lat="-27.2744499" lon="151.2900904">
  <ele>357.95</ele>
  <time>2026-09-01T19:50:59Z</time>
  <course>154.32</course>
  <speed>1.6555663683464943</speed>
  <fix>3d</fix>
</trkpt>
<trkpt lat="-27.2744474" lon="151.2900937">
  <ele>358.14</ele>
  <time>2026-09-01T19:50:59Z</time>
  <course>227.5</course>
  <speed>1.7</speed>
  <fix>3d</fix>
</trkpt>
<trkpt lat="-27.2744509" lon="151.290089">
  <ele>357.94</ele>
  <time>2026-09-01T19:50:59Z</time>
  <course>154.41</course>
  <speed>1.6507574019219178</speed>
  <fix>3d</fix>
</trkpt>
<trkpt lat="-27.2744494" lon="151.2900911">
  <ele>358.14</ele>
  <time>2026-09-01T19:50:59Z</time>
  <course>230.23</course>
  <speed>1.69</speed>
  <fix>3d</fix>
</trkpt>
<trkpt lat="-27.2744518" lon="151.2900877">
  <ele>357.94</ele>
  <time>2026-09-01T19:50:59Z</time>
  <course>154.47</course>
  <speed>1.6462381358722071</speed>
  <fix>3d</fix>
</trkpt>
<trkpt lat="-27.2744494" lon="151.2900911">
  <ele>358.14</ele>
  <time>2026-09-01T19:50:59Z</time>
  <course>230.23</course>
  <speed>1.69</speed>
  <fix>3d</fix>
</trkpt>
<trkpt lat="-27.2744528" lon="151.2900863">
  <ele>357.94</ele>
  <time>2026-09-01T19:50:59Z</time>
  <course>154.46</course>
  <speed>1.6401219466856725</speed>
  <fix>3d</fix>
</trkpt>
<trkpt lat="-27.2744513" lon="151.2900884">
  <ele>358.13</ele>
  <time>2026-09-01T19:50:59Z</time>
  <course>232.03</course>
  <speed>1.68</speed>
  <fix>3d</fix>
</trkpt>
<trkpt lat="-27.2744537" lon="151.290085">
  <ele>357.93</ele>
  <time>2026-09-01T19:50:59Z</time>
  <course>154.38</course>
  <speed>1.6478470802838472</speed>
  <fix>3d</fix>
</trkpt>
<trkpt lat="-27.2744513" lon="151.2900884">
  <ele>358.13</ele>
  <time>2026-09-01T19:50:59Z</time>
  <course>232.03</course>
  <speed>1.68</speed>
  <fix>3d</fix>
</trkpt>
<trkpt lat="-27.2744547" lon="151.2900837">
  <ele>357.93</ele>
  <time>2026-09-01T19:50:59Z</time>
  <course>154.32</course>
  <speed>1.676573887426379</speed>
  <fix>3d</fix>
</trkpt>
<trkpt lat="-27.2744532" lon="151.2900857">
  <ele>358.12</ele>
  <time>2026-09-01T19:50:59Z</time>
  <course>232.17</course>
  <speed>1.67</speed>
  <fix>3d</fix>
</trkpt>
<trkpt lat="-27.2744558" lon="151.2900825">
  <ele>357.93</ele>
  <time>2026-09-01T19:50:59Z</time>
  <course>154.24</course>
  <speed>1.7200290695217917</speed>
  <fix>3d</fix>
</trkpt>
<trkpt lat="-27.2744532" lon="151.2900857">
  <ele>358.12</ele>
  <time>2026-09-01T19:50:59Z</time>
  <course>232.17</course>
  <speed>1.67</speed>
  <fix>3d</fix>
</trkpt>
<trkpt lat="-27.274457" lon="151.2900813">
  <ele>357.93</ele>
  <time>2026-09-01T19:50:59Z</time>
  <course>154.15</course>
  <speed>1.774288589829738</speed>
  <fix>3d</fix>
</trkpt>
<trkpt lat="-27.2744551" lon="151.2900831">
  <ele>358.12</ele>
  <time>2026-09-01T19:50:59Z</time>
  <course>227.52</course>
  <speed>1.7</speed>
  <fix>3d</fix>
</trkpt>
<trkpt lat="-27.2744583" lon="151.2900802">
  <ele>357.93</ele>
  <time>2026-09-01T19:50:59Z</time>
  <course>154.06</course>
  <speed>1.8388311504866346</speed>
  <fix>3d</fix>
</trkpt>
<trkpt lat="-27.2744551" lon="151.2900831">
  <ele>358.12</ele>
  <time>2026-09-01T19:50:59Z</time>
  <course>227.52</course>
  <speed>1.7</speed>
  <fix>3d</fix>
</trkpt>
<trkpt lat="-27.2744598" lon="151.2900792">
  <ele>357.92</ele>
  <time>2026-09-01T19:50:59Z</time>
  <course>154.0</course>
  <speed>1.9003157632351526</speed>
  <fix>3d</fix>
</trkpt>
<trkpt lat="-27.2744573" lon="151.2900807">
  <ele>358.12</ele>
  <time>2026-09-01T19:50:59Z</time>
  <course>219.23</course>
  <speed>1.79</speed>
  <fix>3d</fix>
</trkpt>
<trkpt lat="-27.2744613" lon="151.2900782">
  <ele>357.92</ele>
  <time>2026-09-01T19:50:59Z</time>
  <course>153.96</course>
  <speed>1.9370596273734062</speed>
  <fix>3d</fix>
</trkpt>
<trkpt lat="-27.2744573" lon="151.2900807">
  <ele>358.12</ele>
  <time>2026-09-01T19:50:59Z</time>
  <course>219.23</course>
  <speed>1.79</speed>
  <fix>3d</fix>
</trkpt>
<trkpt lat="-27.2744628" lon="151.2900772">
  <ele>357.92</ele>
  <time>2026-09-01T19:50:59Z</time>
  <course>153.93</course>
  <speed>1.9498717906570164</speed>
  <fix>3d</fix>
</trkpt>
<trkpt lat="-27.2744601" lon="151.2900785">
  <ele>358.11</ele>
  <time>2026-09-01T19:50:59Z</time>
  <course>212.18</course>
  <speed>1.9</speed>
  <fix>3d</fix>
</trkpt>
<trkpt lat="-27.2744644" lon="151.2900763">
  <ele>357.92</ele>
  <time>2026-09-01T19:50:59Z</time>
  <course>153.92</course>
  <speed>1.954328529188478</speed>
  <fix>3d</fix>
</trkpt>
<trkpt lat="-27.2744601" lon="151.2900785">
  <ele>358.11</ele>
  <time>2026-09-01T19:50:59Z</time>
  <course>212.18</course>
  <speed>1.9</speed>
  <fix>3d</fix>
</trkpt>
<trkpt lat="-27.2744659" lon="151.2900754">
  <ele>357.92</ele>
  <time>2026-09-01T19:50:59Z</time>
  <course>153.92</course>
  <speed>1.9409276132818556</speed>
  <fix>3d</fix>
</trkpt>
<trkpt lat="-27.2744631" lon="151.2900766">
  <ele>358.11</ele>
  <time>2026-09-01T19:50:59Z</time>
  <course>208.47</course>
  <speed>1.96</speed>
  <fix>3d</fix>
</trkpt>
<trkpt lat="-27.2744675" lon="151.2900745">
  <ele>357.93</ele>
  <time>2026-09-01T19:50:59Z</time>
  <course>153.93</course>
  <speed>1.918567173700207</speed>
  <fix>3d</fix>
</trkpt>
<trkpt lat="-27.2744631" lon="151.2900766">
  <ele>358.11</ele>
  <time>2026-09-01T19:50:59Z</time>
  <course>208.47</course>
  <speed>1.96</speed>
  <fix>3d</fix>
</trkpt>
<trkpt lat="-27.2744691" lon="151.2900735">
  <ele>357.93</ele>
  <time>2026-09-01T19:50:59Z</time>
  <course>153.92</course>
  <speed>1.8872466717416672</speed>
  <fix>3d</fix>
</trkpt>
<trkpt lat="-27.2744662" lon="151.2900747">
  <ele>358.12</ele>
  <time>2026-09-01T19:50:59Z</time>
  <course>207.45</course>
  <speed>1.95</speed>
  <fix>3d</fix>
</trkpt>
<trkpt lat="-27.2744706" lon="151.2900726">
  <ele>357.93</ele>
  <time>2026-09-01T19:50:59Z</time>
  <course>153.9</course>
  <speed>1.8604300578092152</speed>
  <fix>3d</fix>
</trkpt>
<trkpt lat="-27.2744662" lon="151.2900747">
  <ele>358.12</ele>
  <time>2026-09-01T19:50:59Z</time>
  <course>207.45</course>
  <speed>1.95</speed>
  <fix>3d</fix>
</trkpt>
<trkpt lat="-27.274472" lon="151.2900717">
  <ele>357.94</ele>
  <time>2026-09-01T19:50:59Z</time>
  <course>153.87</course>
  <speed>1.833712082089225</speed>
  <fix>3d</fix>
</trkpt>
<trkpt lat="-27.2744693" lon="151.290073">
  <ele>358.13</ele>
  <time>2026-09-01T19:50:59Z</time>
  <course>207.61</course>
  <speed>1.9</speed>
  <fix>3d</fix>
</trkpt>
<trkpt lat="-27.2744735" lon="151.2900709">
  <ele>357.94</ele>
  <time>2026-09-01T19:50:59Z</time>
  <course>153.81</course>
  <speed>1.7638594048279472</speed>
  <fix>3d</fix>
</trkpt>
<trkpt lat="-27.2744693" lon="151.290073">
  <ele>358.13</ele>
  <time>2026-09-01T19:50:59Z</time>
  <course>207.61</course>
  <speed>1.9</speed>
  <fix>3d</fix>
</trkpt>
<trkpt lat="-27.2744748" lon="151.2900699">
  <ele>357.95</ele>
  <time>2026-09-01T19:50:59Z</time>
  <course>153.75</course>
  <speed>1.6668833192518306</speed>
  <fix>3d</fix>
</trkpt>
<trkpt lat="-27.2744723" lon="151.2900712">
  <ele>358.14</ele>
  <time>2026-09-01T19:50:59Z</time>
  <course>208.93</course>
  <speed>1.83</speed>
  <fix>3d</fix>
</trkpt>
<trkpt lat="-27.274476" lon="151.2900689">
  <ele>357.95</ele>
  <time>2026-09-01T19:50:59Z</time>
  <course>153.66</course>
  <speed>1.5648642113614843</speed>
  <fix>3d</fix>
</trkpt>
<trkpt lat="-27.2744723" lon="151.2900712">
  <ele>358.14</ele>
  <time>2026-09-01T19:50:59Z</time>
  <course>208.93</course>
  <speed>1.83</speed>
  <fix>3d</fix>
</trkpt>
<trkpt lat="-27.274477" lon="151.2900678">
  <ele>357.96</ele>
  <time>2026-09-01T19:50:59Z</time>
  <course>153.57</course>
  <speed>1.4849915824677256</speed>
  <fix>3d</fix>
</trkpt>
<trkpt lat="-27.274475" lon="151.2900693">
  <ele>358.16</ele>
  <time>2026-09-01T19:50:59Z</time>
  <course>214.47</course>
  <speed>1.68</speed>
  <fix>3d</fix>
</trkpt>
<trkpt lat="-27.2744778" lon="151.2900667">
  <ele>357.96</ele>
  <time>2026-09-01T19:50:59Z</time>
  <course>153.48</course>
  <speed>1.4200352108310554</speed>
  <fix>3d</fix>
</trkpt>
<trkpt lat="-27.274475" lon="151.2900693">
  <ele>358.16</ele>
  <time>2026-09-01T19:50:59Z</time>
  <course>214.47</course>
  <speed>1.68</speed>
  <fix>3d</fix>
</trkpt>
<trkpt lat="-27.2744785" lon="151.2900654">
  <ele>357.96</ele>
  <time>2026-09-01T19:50:59Z</time>
  <course>153.41</course>
  <speed>1.3806158046321215</speed>
  <fix>3d</fix>
</trkpt>
<trkpt lat="-27.2744772" lon="151.2900672">
  <ele>358.17</ele>
  <time>2026-09-01T19:50:59Z</time>
  <course>225.84</course>
  <speed>1.51</speed>
  <fix>3d</fix>
</trkpt>
<trkpt lat="-27.2744791" lon="151.2900642">
  <ele>357.96</ele>
  <time>2026-09-01T19:50:59Z</time>
  <course>153.38</course>
  <speed>1.3640014662748718</speed>
  <fix>3d</fix>
</trkpt>
<trkpt lat="-27.2744772" lon="151.2900672">
  <ele>358.17</ele>
  <time>2026-09-01T19:50:59Z</time>
  <course>225.84</course>
  <speed>1.51</speed>
  <fix>3d</fix>
</trkpt>
<trkpt lat="-27.2744797" lon="151.290063">
  <ele>357.96</ele>
  <time>2026-09-01T19:50:59Z</time>
  <course>153.37</course>
  <speed>1.337235955244997</speed>
  <fix>3d</fix>
</trkpt>
<trkpt lat="-27.2744788" lon="151.2900649">
  <ele>358.17</ele>
  <time>2026-09-01T19:50:59Z</time>
  <course>238.31</course>
  <speed>1.41</speed>
  <fix>3d</fix>
</trkpt>
<trkpt lat="-27.2744803" lon="151.2900617">
  <ele>357.97</ele>
  <time>2026-09-01T19:50:59Z</time>
  <course>153.36</course>
  <speed>1.3148764200486676</speed>
  <fix>3d</fix>
</trkpt>
<trkpt lat="-27.2744788" lon="151.2900649">
  <ele>358.17</ele>
  <time>2026-09-01T19:50:59Z</time>
  <course>238.31</course>
  <speed>1.41</speed>
  <fix>3d</fix>
</trkpt>
<trkpt lat="-27.2744808" lon="151.2900605">
  <ele>357.97</ele>
  <time>2026-09-01T19:50:59Z</time>
  <course>153.35</course>
  <speed>1.283627671873741</speed>
  <fix>3d</fix>
</trkpt>
<trkpt lat="-27.2744799" lon="151.2900624">
  <ele>358.18</ele>
  <time>2026-09-01T19:50:59Z</time>
  <course>243.9</course>
  <speed>1.36</speed>
  <fix>3d</fix>
</trkpt>
<trkpt lat="-27.2744813" lon="151.2900594">
  <ele>357.97</ele>
  <time>2026-09-01T19:50:59Z</time>
  <course>153.33</course>
  <speed>1.2523977004130915</speed>
  <fix>3d</fix>
</trkpt>
<trkpt lat="-27.2744799" lon="151.2900624">
  <ele>358.18</ele>
  <time>2026-09-01T19:50:59Z</time>
  <course>243.9</course>
  <speed>1.36</speed>
  <fix>3d</fix>
</trkpt>
<trkpt lat="-27.2744819" lon="151.2900582">
  <ele>357.98</ele>
  <time>2026-09-01T19:50:59Z</time>
  <course>153.29</course>
  <speed>1.2300406497347964</speed>
  <fix>3d</fix>
</trkpt>
<trkpt lat="-27.274481" lon="151.29006">
  <ele>358.18</ele>
  <time>2026-09-01T19:50:59Z</time>
  <course>243.84</course>
  <speed>1.3</speed>
  <fix>3d</fix>
</trkpt>
<trkpt lat="-27.2744824" lon="151.2900571">
  <ele>357.99</ele>
  <time>2026-09-01T19:50:59Z</time>
  <course>153.32</course>
  <speed>1.1988327656516566</speed>
  <fix>3d</fix>
</trkpt>
<trkpt lat="-27.274481" lon="151.29006">
  <ele>358.18</ele>
  <time>2026-09-01T19:50:59Z</time>
  <course>243.84</course>
  <speed>1.3</speed>
  <fix>3d</fix>
</trkpt>
<trkpt lat="-27.2744829" lon="151.290056">
  <ele>357.99</ele>
  <time>2026-09-01T19:50:59Z</time>
  <course>153.3</course>
  <speed>1.1766052864066183</speed>
  <fix>3d</fix>
</trkpt>
<trkpt lat="-27.274482" lon="151.2900577">
  <ele>358.18</ele>
  <time>2026-09-01T19:50:59Z</time>
  <course>243.61</course>
  <speed>1.25</speed>
  <fix>3d</fix>
</trkpt>
<trkpt lat="-27.2744835" lon="151.290055">
  <ele>357.99</ele>
  <time>2026-09-01T19:50:59Z</time>
  <course>153.22</course>
  <speed>1.156027681329474</speed>
  <fix>3d</fix>
</trkpt>
<trkpt lat="-27.274482" lon="151.2900577">
  <ele>358.18</ele>
  <time>2026-09-01T19:50:59Z</time>
  <course>243.61</course>
  <speed>1.25</speed>
  <fix>3d</fix>
</trkpt>
<trkpt lat="-27.2744842" lon="151.2900541">
  <ele>357.99</ele>
  <time>2026-09-01T19:50:59Z</time>
  <course>153.11</course>
  <speed>1.16</speed>
  <fix>3d</fix>
</trkpt>
<trkpt lat="-27.274483" lon="151.2900555">
  <ele>358.19</ele>
  <time>2026-09-01T19:50:59Z</time>
  <course>239.04</course>
  <speed>1.19</speed>
  <fix>3d</fix>
</trkpt>
<trkpt lat="-27.2744849" lon="151.2900533">
  <ele>357.98</ele>
  <time>2026-09-01T19:50:59Z</time>
  <course>152.97</course>
  <speed>1.1779643458101778</speed>
  <fix>3d</fix>
</trkpt>
<trkpt lat="-27.274483" lon="151.2900555">
  <ele>358.19</ele>
  <time>2026-09-01T19:50:59Z</time>
  <course>239.04</course>
  <speed>1.19</speed>
  <fix>3d</fix>
</trkpt>
<trkpt lat="-27.2744858" lon="151.2900525">
  <ele>357.98</ele>
  <time>2026-09-01T19:50:59Z</time>
  <course>152.77</course>
  <speed>1.1985407794480754</speed>
  <fix>3d</fix>
</trkpt>
<trkpt lat="-27.2744843" lon="151.2900536">
  <ele>358.18</ele>
  <time>2026-09-01T19:50:59Z</time>
  <course>228.45</course>
  <speed>1.17</speed>
  <fix>3d</fix>
</trkpt>
<trkpt lat="-27.2744867" lon="151.2900518">
  <ele>357.97</ele>
  <time>2026-09-01T19:50:59Z</time>
  <course>152.34</course>
  <speed>1.2022063050907694</speed>
  <fix>3d</fix>
</trkpt>
<trkpt lat="-27.2744843" lon="151.2900536">
  <ele>358.18</ele>
  <time>2026-09-01T19:50:59Z</time>
  <course>228.45</course>
  <speed>1.17</speed>
  <fix>3d</fix>
</trkpt>
<trkpt lat="-27.2744876" lon="151.2900511">
  <ele>357.96</ele>
  <time>2026-09-01T19:51:00Z</time>
  <course>151.46</course>
  <speed>1.1995415791042843</speed>
  <fix>3d</fix>
</trkpt>
<trkpt lat="-27.2744859" lon="151.2900519">
  <ele>358.16</ele>
  <time>2026-09-01T19:51:00Z</time>
  <course>217.76</course>
  <speed>1.2</speed>
  <fix>3d</fix>
</trkpt>
<trkpt lat="-27.2744886" lon="151.2900505">
  <ele>357.95</ele>
  <time>2026-09-01T19:51:00Z</time>
  <course>149.8</course>
  <speed>1.176477794095579</speed>
  <fix>3d</fix>
</trkpt>
<trkpt lat="-27.2744859" lon="151.2900519">
  <ele>358.16</ele>
  <time>2026-09-01T19:51:00Z</time>
  <course>217.76</course>
  <speed>1.2</speed>
  <fix>3d</fix>
</trkpt>
<trkpt lat="-27.2744895" lon="151.2900499">
  <ele>357.95</ele>
  <time>2026-09-01T19:51:00Z</time>
  <course>147.13</course>
  <speed>1.1406138698087096</speed>
  <fix>3d</fix>
</trkpt>
<trkpt lat="-27.2744877" lon="151.2900505">
  <ele>358.15</ele>
  <time>2026-09-01T19:51:00Z</time>
  <course>211.51</course>
  <speed>1.2</speed>
  <fix>3d</fix>
</trkpt>
<trkpt lat="-27.2744903" lon="151.2900493">
  <ele>357.95</ele>
  <time>2026-09-01T19:51:00Z</time>
  <course>143.34</course>
  <speed>1.0959014554237987</speed>
  <fix>3d</fix>
</trkpt>
<trkpt lat="-27.2744877" lon="151.2900505">
  <ele>358.15</ele>
  <time>2026-09-01T19:51:00Z</time>
  <course>211.51</course>
  <speed>1.2</speed>
  <fix>3d</fix>
</trkpt>
<trkpt lat="-27.2744912" lon="151.2900488">
  <ele>357.94</ele>
  <time>2026-09-01T19:51:00Z</time>
  <course>138.43</course>
  <speed>1.0519030373565805</speed>
  <fix>3d</fix>
</trkpt>
<trkpt lat="-27.2744895" lon="151.2900493">
  <ele>358.13</ele>
  <time>2026-09-01T19:51:00Z</time>
  <course>209.79</course>
  <speed>1.14</speed>
  <fix>3d</fix>
</trkpt>
<trkpt lat="-27.274492" lon="151.2900482">
  <ele>357.94</ele>
  <time>2026-09-01T19:51:00Z</time>
  <course>132.63</course>
  <speed>1.0034440691936946</speed>
  <fix>3d</fix>
</trkpt>
<trkpt lat="-27.2744895" lon="151.2900493">
  <ele>358.13</ele>
  <time>2026-09-01T19:51:00Z</time>
  <course>209.79</course>
  <speed>1.14</speed>
  <fix>3d</fix>
</trkpt>
<trkpt lat="-27.2744927" lon="151.2900476">
  <ele>357.93</ele>
  <time>2026-09-01T19:51:00Z</time>
  <course>126.18</course>
  <speed>0.9656603957913983</speed>
  <fix>3d</fix>
</trkpt>
<trkpt lat="-27.2744912" lon="151.2900482">
  <ele>358.13</ele>
  <time>2026-09-01T19:51:00Z</time>
  <course>210.84</course>
  <speed>1.06</speed>
  <fix>3d</fix>
</trkpt>
<trkpt lat="-27.2744934" lon="151.2900471">
  <ele>357.93</ele>
  <time>2026-09-01T19:51:00Z</time>
  <course>119.46</course>
  <speed>0.9158602513484249</speed>
  <fix>3d</fix>
</trkpt>
<trkpt lat="-27.2744912" lon="151.2900482">
  <ele>358.13</ele>
  <time>2026-09-01T19:51:00Z</time>
  <course>210.84</course>
  <speed>1.06</speed>
  <fix>3d</fix>
</trkpt>
<trkpt lat="-27.2744941" lon="151.2900466">
  <ele>357.94</ele>
  <time>2026-09-01T19:51:00Z</time>
  <course>112.87</course>
  <speed>0.8588364221433555</speed>
  <fix>3d</fix>
</trkpt>
<trkpt lat="-27.2744928" lon="151.2900472">
  <ele>358.12</ele>
  <time>2026-09-01T19:51:00Z</time>
  <course>212.86</course>
  <speed>0.97</speed>
  <fix>3d</fix>
</trkpt>
<trkpt lat="-27.2744948" lon="151.2900462">
  <ele>357.94</ele>
  <time>2026-09-01T19:51:00Z</time>
  <course>106.82</course>
  <speed>0.8062257748298549</speed>
  <fix>3d</fix>
</trkpt>
<trkpt lat="-27.2744928" lon="151.2900472">
  <ele>358.12</ele>
  <time>2026-09-01T19:51:00Z</time>
  <course>212.86</course>
  <speed>0.97</speed>
  <fix>3d</fix>
</trkpt>
<trkpt lat="-27.2744954" lon="151.2900459">
  <ele>357.94</ele>
  <time>2026-09-01T19:51:00Z</time>
  <course>101.76</course>
  <speed>0.7433034373659253</speed>
  <fix>3d</fix>
</trkpt>
<trkpt lat="-27.2744942" lon="151.2900462">
  <ele>358.12</ele>
  <time>2026-09-01T19:51:00Z</time>
  <course>210.33</course>
  <speed>0.87</speed>
  <fix>3d</fix>
</trkpt>
<trkpt lat="-27.274496" lon="151.2900456">
  <ele>357.94</ele>
  <time>2026-09-01T19:51:00Z</time>
  <course>98.09</course>
  <speed>0.6772001181334805</speed>
  <fix>3d</fix>
</trkpt>
<trkpt lat="-27.2744942" lon="151.2900462">
  <ele>358.12</ele>
  <time>2026-09-01T19:51:00Z</time>
  <course>210.33</course>
  <speed>0.87</speed>
  <fix>3d</fix>
</trkpt>
<trkpt lat="-27.2744966" lon="151.2900454">
  <ele>357.94</ele>
  <time>2026-09-01T19:51:00Z</time>
  <course>95.94</course>
  <speed>0.6139218191268331</speed>
  <fix>3d</fix>
</trkpt>
<trkpt lat="-27.2744955" lon="151.2900455">
  <ele>358.13</ele>
  <time>2026-09-01T19:51:00Z</time>
  <course>203.16</course>
  <speed>0.75</speed>
  <fix>3d</fix>
</trkpt>
<trkpt lat="-27.2744971" lon="151.2900453">
  <ele>357.95</ele>
  <time>2026-09-01T19:51:00Z</time>
  <course>95.13</course>
  <speed>0.5557877292636101</speed>
  <fix>3d</fix>
</trkpt>
<trkpt lat="-27.2744955" lon="151.2900455">
  <ele>358.13</ele>
  <time>2026-09-01T19:51:00Z</time>
  <course>203.16</course>
  <speed>0.75</speed>
  <fix>3d</fix>
</trkpt>
<trkpt lat="-27.2744976" lon="151.2900452">
  <ele>357.95</ele>
  <time>2026-09-01T19:51:00Z</time>
  <course>95.4</course>
  <speed>0.5015974481593781</speed>
  <fix>3d</fix>
</trkpt>
<trkpt lat="-27.2744966" lon="151.290045">
  <ele>358.13</ele>
  <time>2026-09-01T19:51:00Z</time>
  <course>196.23</course>
  <speed>0.62</speed>
  <fix>3d</fix>
</trkpt>
<trkpt lat="-27.274498" lon="151.2900451">
  <ele>357.95</ele>
  <time>2026-09-01T19:51:00Z</time>
  <course>96.4</course>
  <speed>0.44011362169330775</speed>
  <fix>3d</fix>
</trkpt>
<trkpt lat="-27.2744966" lon="151.290045">
  <ele>358.13</ele>
  <time>2026-09-01T19:51:00Z</time>
  <course>196.23</course>
  <speed>0.62</speed>
  <fix>3d</fix>
</trkpt>
<trkpt lat="-27.2744984" lon="151.2900451">
  <ele>357.95</ele>
  <time>2026-09-01T19:51:00Z</time>
  <course>97.82</course>
  <speed>0.39</speed>
  <fix>3d</fix>
</trkpt>
<trkpt lat="-27.2744976" lon="151.2900447">
  <ele>358.14</ele>
  <time>2026-09-01T19:51:00Z</time>
  <course>189.76</course>
  <speed>0.5</speed>
  <fix>3d</fix>
</trkpt>
<trkpt lat="-27.2744987" lon="151.290045">
  <ele>357.96</ele>
  <time>2026-09-01T19:51:00Z</time>
  <course>99.54</course>
  <speed>0.34058772731852804</speed>
  <fix>3d</fix>
</trkpt>
<trkpt lat="-27.2744976" lon="151.2900447">
  <ele>358.14</ele>
  <time>2026-09-01T19:51:00Z</time>
  <course>189.76</course>
  <speed>0.5</speed>
  <fix>3d</fix>
</trkpt>
<trkpt lat="-27.274499" lon="151.290045">
  <ele>357.96</ele>
  <time>2026-09-01T19:51:00Z</time>
  <course>101.28</course>
  <speed>0.29274562336608895</speed>
  <fix>3d</fix>
</trkpt>
<trkpt lat="-27.2744984" lon="151.2900446">
  <ele>358.14</ele>
  <time>2026-09-01T19:51:00Z</time>
  <course>184.53</course>
  <speed>0.39</speed>
  <fix>3d</fix>
</trkpt>
<trkpt lat="-27.2744992" lon="151.290045">
  <ele>357.96</ele>
  <time>2026-09-01T19:51:00Z</time>
  <course>102.91</course>
  <speed>0.23769728648009425</speed>
  <fix>3d</fix>
</trkpt>
<trkpt lat="-27.2744984" lon="151.2900446">
  <ele>358.14</ele>
  <time>2026-09-01T19:51:00Z</time>
  <course>184.53</course>
  <speed>0.39</speed>
  <fix>3d</fix>
</trkpt>
<trkpt lat="-27.2744994" lon="151.2900451">
  <ele>357.96</ele>
  <time>2026-09-01T19:51:00Z</time>
  <course>104.3</course>
  <speed>0.19697715603592209</speed>
  <fix>3d</fix>
</trkpt>
<trkpt lat="-27.2744991" lon="151.2900445">
  <ele>358.14</ele>
  <time>2026-09-01T19:51:00Z</time>
  <course>178.35</course>
  <speed>0.29</speed>
  <fix>3d</fix>
</trkpt>
<trkpt lat="-27.2744995" lon="151.290045">
  <ele>357.95</ele>
  <time>2026-09-01T19:51:00Z</time>
  <course>105.24</course>
  <speed>0.15</speed>
  <fix>3d</fix>
</trkpt>
<trkpt lat="-27.2744991" lon="151.2900445">
  <ele>358.14</ele>
  <time>2026-09-01T19:51:00Z</time>
  <course>178.35</course>
  <speed>0.29</speed>
  <fix>3d</fix>
</trkpt>
<trkpt lat="-27.2744996" lon="151.2900451">
  <ele>357.95</ele>
  <time>2026-09-01T19:51:00Z</time>
  <course>105.73</course>
  <speed>0.130384048104053</speed>
  <fix>3d</fix>
</trkpt>
<trkpt lat="-27.2744995" lon="151.2900445">
  <ele>358.13</ele>
  <time>2026-09-01T19:51:00Z</time>
  <course>165.9</course>
  <speed>0.19</speed>
  <fix>3d</fix>
</trkpt>
<trkpt lat="-27.2744997" lon="151.2900451">
  <ele>357.94</ele>
  <time>2026-09-01T19:51:00Z</time>
  <course>105.78</course>
  <speed>0.12041594578792296</speed>
  <fix>3d</fix>
</trkpt>
<trkpt lat="-27.2744995" lon="151.2900445">
  <ele>358.13</ele>
  <time>2026-09-01T19:51:00Z</time>
  <course>165.9</course>
  <speed>0.19</speed>
  <fix>3d</fix>
</trkpt>
<trkpt lat="-27.2744997" lon="151.2900452">
  <ele>357.94</ele>
  <time>2026-09-01T19:51:00Z</time>
  <course>105.47</course>
  <speed>0.13601470508735444</speed>
  <fix>3d</fix>
</trkpt>
<trkpt lat="-27.2744997" lon="151.2900447">
  <ele>358.13</ele>
  <time>2026-09-01T19:51:00Z</time>
  <course>134.04</course>
  <speed>0.11</speed>
  <fix>3d</fix>
</trkpt>
<trkpt lat="-27.2744996" lon="151.2900453">
  <ele>357.94</ele>
  <time>2026-09-01T19:51:00Z</time>
  <course>104.59</course>
  <speed>0.14866068747318506</speed>
  <fix>3d</fix>
</trkpt>
<trkpt lat="-27.2744997" lon="151.2900447">
  <ele>358.13</ele>
  <time>2026-09-01T19:51:00Z</time>
  <course>134.04</course>
  <speed>0.11</speed>
  <fix>3d</fix>
</trkpt>
<trkpt lat="-27.2744995" lon="151.2900453">
  <ele>357.94</ele>
  <time>2026-09-01T19:51:00Z</time>
  <course>103.71</course>
  <speed>0.19</speed>
  <fix>3d</fix>
</trkpt>
<trkpt lat="-27.2744998" lon="151.2900449">
  <ele>358.12</ele>
  <time>2026-09-01T19:51:00Z</time>
  <course>67.51</course>
  <speed>0.09</speed>
  <fix>3d</fix>
</trkpt>
<trkpt lat="-27.2744993" lon="151.2900452">
  <ele>357.94</ele>
  <time>2026-09-01T19:51:00Z</time>
  <course>102.97</course>
  <speed>0.30463092423455634</speed>
  <fix>3d</fix>
</trkpt>
<trkpt lat="-27.2744998" lon="151.2900449">
  <ele>358.12</ele>
  <time>2026-09-01T19:51:00Z</time>
  <course>67.51</course>
  <speed>0.09</speed>
  <fix>3d</fix>
</trkpt>
<trkpt lat="-27.2744991" lon="151.290045">
  <ele>357.94</ele>
  <time>2026-09-01T19:51:00Z</time>
  <course>102.38</course>
  <speed>0.44654227123532214</speed>
  <fix>3d</fix>
</trkpt>
<trkpt lat="-27.2744996" lon="151.290045">
  <ele>358.12</ele>
  <time>2026-09-01T19:51:00Z</time>
  <course>352.6</course>
  <speed>0.19</speed>
  <fix>3d</fix>
</trkpt>
<trkpt lat="-27.2744987" lon="151.2900448">
  <ele>357.94</ele>
  <time>2026-09-01T19:51:00Z</time>
  <course>101.98</course>
  <speed>0.5966573556070519</speed>
  <fix>3d</fix>
</trkpt>
<trkpt lat="-27.2744996" lon="151.290045">
  <ele>358.12</ele>
  <time>2026-09-01T19:51:00Z</time>
  <course>352.6</course>
  <speed>0.19</speed>
  <fix>3d</fix>
</trkpt>
<trkpt lat="-27.2744983" lon="151.2900443">
  <ele>357.94</ele>
  <time>2026-09-01T19:51:00Z</time>
  <course>101.86</course>
  <speed>0.709365914038728</speed>
  <fix>3d</fix>
</trkpt>
<trkpt lat="-27.2744992" lon="151.2900447">
  <ele>358.12</ele>
  <time>2026-09-01T19:51:00Z</time>
  <course>324.08</course>
  <speed>0.45</speed>
  <fix>3d</fix>
</trkpt>
<trkpt lat="-27.2744978" lon="151.2900438">
  <ele>357.95</ele>
  <time>2026-09-01T19:51:00Z</time>
  <course>101.92</course>
  <speed>0.7746612162745725</speed>
  <fix>3d</fix>
</trkpt>
<trkpt lat="-27.2744992" lon="151.2900447">
  <ele>358.12</ele>
  <time>2026-09-01T19:51:00Z</time>
  <course>324.08</course>
  <speed>0.45</speed>
  <fix>3d</fix>
</trkpt>
<trkpt lat="-27.2744972" lon="151.2900433">
  <ele>357.95</ele>
  <time>2026-09-01T19:51:00Z</time>
  <course>102.11</course>
  <speed>0.802122185206219</speed>
  <fix>3d</fix>
</trkpt>
<trkpt lat="-27.2744984" lon="151.290044">
  <ele>358.12</ele>
  <time>2026-09-01T19:51:00Z</time>
  <course>319.21</course>
  <speed>0.7</speed>
  <fix>3d</fix>
</trkpt>
<trkpt lat="-27.2744967" lon="151.2900428">
  <ele>357.95</ele>
  <time>2026-09-01T19:51:00Z</time>
  <course>102.44</course>
  <speed>0.8077747210701756</speed>
  <fix>3d</fix>
</trkpt>
<trkpt lat="-27.2744984" lon="151.290044">
  <ele>358.12</ele>
  <time>2026-09-01T19:51:00Z</time>
  <course>319.21</course>
  <speed>0.7</speed>
  <fix>3d</fix>
</trkpt>
<trkpt lat="-27.274496" lon="151.2900424">
  <ele>357.95</ele>
  <time>2026-09-01T19:51:00Z</time>
  <course>102.91</course>
  <speed>0.8049844718999243</speed>
  <fix>3d</fix>
</trkpt>
<trkpt lat="-27.2744973" lon="151.290043">
  <ele>358.12</ele>
  <time>2026-09-01T19:51:00Z</time>
  <course>322.78</course>
  <speed>0.81</speed>
  <fix>3d</fix>
</trkpt>
<trkpt lat="-27.2744954" lon="151.290042">
  <ele>357.95</ele>
  <time>2026-09-01T19:51:00Z</time>
  <course>103.52</course>
  <speed>0.8005623023850174</speed>
  <fix>3d</fix>
</trkpt>
<trkpt lat="-27.2744973" lon="151.290043">
  <ele>358.12</ele>
  <time>2026-09-01T19:51:00Z</time>
  <course>322.78</course>
  <speed>0.81</speed>
  <fix>3d</fix>
</trkpt>
<trkpt lat="-27.2744947" lon="151.2900418">
  <ele>357.95</ele>
  <time>2026-09-01T19:51:00Z</time>
  <course>104.24</course>
  <speed>0.8052328855678959</speed>
  <fix>3d</fix>
</trkpt>
<trkpt lat="-27.274496" lon="151.2900421">
  <ele>358.13</ele>
  <time>2026-09-01T19:51:00Z</time>
  <course>331.45</course>
  <speed>0.82</speed>
  <fix>3d</fix>
</trkpt>
<trkpt lat="-27.274494" lon="151.2900416">
  <ele>357.95</ele>
  <time>2026-09-01T19:51:00Z</time>
  <course>105.02</course>
  <speed>0.8188406438373709</speed>
  <fix>3d</fix>
</trkpt>
<trkpt lat="-27.274496" lon="151.2900421">
  <ele>358.13</ele>
  <time>2026-09-01T19:51:00Z</time>
  <course>331.45</course>
  <speed>0.82</speed>
  <fix>3d</fix>
</trkpt>
<trkpt lat="-27.2744933" lon="151.2900415">
  <ele>357.95</ele>
  <time>2026-09-01T19:51:00Z</time>
  <course>105.82</course>
  <speed>0.8305419917138447</speed>
  <fix>3d</fix>
</trkpt>
<trkpt lat="-27.2744947" lon="151.2900414">
  <ele>358.13</ele>
  <time>2026-09-01T19:51:00Z</time>
  <course>342.68</course>
  <speed>0.82</speed>
  <fix>3d</fix>
</trkpt>
<trkpt lat="-27.2744925" lon="151.2900414">
  <ele>357.94</ele>
  <time>2026-09-01T19:51:00Z</time>
  <course>106.58</course>
  <speed>0.8514693182963201</speed>
  <fix>3d</fix>
</trkpt>
<trkpt lat="-27.2744947" lon="151.2900414">
  <ele>358.13</ele>
  <time>2026-09-01T19:51:00Z</time>
  <course>342.68</course>
  <speed>0.82</speed>
  <fix>3d</fix>
</trkpt>
<trkpt lat="-27.2744918" lon="151.2900415">
  <ele>357.94</ele>
  <time>2026-09-01T19:51:00Z</time>
  <course>107.26</course>
  <speed>0.8811923740024082</speed>
  <fix>3d</fix>
</trkpt>
<trkpt lat="-27.2744932" lon="151.2900411">
  <ele>358.13</ele>
  <time>2026-09-01T19:51:00Z</time>
  <course>354.76</course>
  <speed>0.83</speed>
  <fix>3d</fix>
</trkpt>
<trkpt lat="-27.274491" lon="151.2900416">
  <ele>357.94</ele>
  <time>2026-09-01T19:51:00Z</time>
  <course>107.83</course>
  <speed>0.9192388155425119</speed>
  <fix>3d</fix>
</trkpt>
<trkpt lat="-27.2744932" lon="151.2900411">
  <ele>358.13</ele>
  <time>2026-09-01T19:51:00Z</time>
  <course>354.76</course>
  <speed>0.83</speed>
  <fix>3d</fix>
</trkpt>
<trkpt lat="-27.2744902" lon="151.2900418">
  <ele>357.93</ele>
  <time>2026-09-01T19:51:00Z</time>
  <course>108.26</course>
  <speed>0.9613532129243653</speed>
  <fix>3d</fix>
</trkpt>
<trkpt lat="-27.2744917" lon="151.2900412">
  <ele>358.13</ele>
  <time>2026-09-01T19:51:00Z</time>
  <course>6.52</course>
  <speed>0.87</speed>
  <fix>3d</fix>
</trkpt>
<trkpt lat="-27.2744893" lon="151.2900421">
  <ele>357.93</ele>
  <time>2026-09-01T19:51:00Z</time>
  <course>108.55</course>
  <speed>1.0030453628824572</speed>
  <fix>3d</fix>
</trkpt>
<trkpt lat="-27.2744917" lon="151.2900412">
  <ele>358.13</ele>
  <time>2026-09-01T19:51:00Z</time>
  <course>6.52</course>
  <speed>0.87</speed>
  <fix>3d</fix>
</trkpt>
<trkpt lat="-27.2744885" lon="151.2900424">
  <ele>357.92</ele>
  <time>2026-09-01T19:51:00Z</time>
  <course>108.78</course>
  <speed>1.0417773274553443</speed>
  <fix>3d</fix>
</trkpt>
<trkpt lat="-27.2744901" lon="151.2900414">
  <ele>358.13</ele>
  <time>2026-09-01T19:51:00Z</time>
  <course>15.64</course>
  <speed>0.94</speed>
  <fix>3d</fix>
</trkpt>
<trkpt lat="-27.2744876" lon="151.2900428">
  <ele>357.92</ele>
  <time>2026-09-01T19:51:00Z</time>
  <course>109.08</course>
  <speed>1.086876257906115</speed>
  <fix>3d</fix>
</trkpt>
<trkpt lat="-27.2744901" lon="151.2900414">
  <ele>358.13</ele>
  <time>2026-09-01T19:51:00Z</time>
  <course>15.64</course>
  <speed>0.94</speed>
  <fix>3d</fix>
</trkpt>
<trkpt lat="-27.2744867" lon="151.2900433">
  <ele>357.92</ele>
  <time>2026-09-01T19:51:00Z</time>
  <course>109.07</course>
  <speed>1.1566330446602329</speed>
  <fix>3d</fix>
</trkpt>
<trkpt lat="-27.2744884" lon="151.290042">
  <ele>358.12</ele>
  <time>2026-09-01T19:51:00Z</time>
  <course>21.48</course>
  <speed>1.03</speed>
  <fix>3d</fix>
</trkpt>
<trkpt lat="-27.2744859" lon="151.290044">
  <ele>357.92</ele>
  <time>2026-09-01T19:51:00Z</time>
  <course>108.9</course>
  <speed>1.2496399481450646</speed>
  <fix>3d</fix>
</trkpt>
<trkpt lat="-27.2744884" lon="151.290042">
  <ele>358.12</ele>
  <time>2026-09-01T19:51:00Z</time>
  <course>21.48</course>
  <speed>1.03</speed>
  <fix>3d</fix>
</trkpt>
<trkpt lat="-27.274485" lon="151.2900448">
  <ele>357.92</ele>
  <time>2026-09-01T19:51:00Z</time>
  <course>108.66</course>
  <speed>1.3579396157414365</speed>
  <fix>3d</fix>
</trkpt>
<trkpt lat="-27.2744867" lon="151.290043">
  <ele>358.12</ele>
  <time>2026-09-01T19:51:00Z</time>
  <course>31.49</course>
  <speed>1.13</speed>
  <fix>3d</fix>
</trkpt>
<trkpt lat="-27.2744842" lon="151.2900459">
  <ele>357.92</ele>
  <time>2026-09-01T19:51:00Z</time>
  <course>108.35</course>
  <speed>1.4727185746095552</speed>
  <fix>3d</fix>
</trkpt>
<trkpt lat="-27.2744867" lon="151.290043">
  <ele>358.12</ele>
  <time>2026-09-01T19:51:00Z</time>
  <course>31.49</course>
  <speed>1.13</speed>
  <fix>3d</fix>
</trkpt>
<trkpt lat="-27.2744834" lon="151.2900471">
  <ele>357.92</ele>
  <time>2026-09-01T19:51:00Z</time>
  <course>107.95</course>
  <speed>1.5705094714773293</speed>
  <fix>3d</fix>
</trkpt>
<trkpt lat="-27.274485" lon="151.2900445">
  <ele>358.12</ele>
  <time>2026-09-01T19:51:00Z</time>
  <course>44.88</course>
  <speed>1.31</speed>
  <fix>3d</fix>
</trkpt>
<trkpt lat="-27.2744826" lon="151.2900484">
  <ele>357.93</ele>
  <time>2026-09-01T19:51:00Z</time>
  <course>107.48</course>
  <speed>1.6446884203398529</speed>
  <fix>3d</fix>
</trkpt>
<trkpt lat="-27.274485" lon="151.2900445">
  <ele>358.12</ele>
  <time>2026-09-01T19:51:00Z</time>
  <course>44.88</course>
  <speed>1.31</speed>
  <fix>3d</fix>
</trkpt>
<trkpt lat="-27.2744818" lon="151.2900497">
  <ele>357.93</ele>
  <time>2026-09-01T19:51:00Z</time>
  <course>106.92</course>
  <speed>1.705813588877753</speed>
  <fix>3d</fix>
</trkpt>
<trkpt lat="-27.2744833" lon="151.2900467">
  <ele>358.12</ele>
  <time>2026-09-01T19:51:00Z</time>
  <course>53.39</course>
  <speed>1.52</speed>
  <fix>3d</fix>
</trkpt>
<trkpt lat="-27.2744809" lon="151.2900511">
  <ele>357.94</ele>
  <time>2026-09-01T19:51:00Z</time>
  <course>106.22</course>
  <speed>1.75025712396779</speed>
  <fix>3d</fix>
</trkpt>
<trkpt lat="-27.2744833" lon="151.2900467">
  <ele>358.12</ele>
  <time>2026-09-01T19:51:00Z</time>
  <course>53.39</course>
  <speed>1.52</speed>
  <fix>3d</fix>
</trkpt>
<trkpt lat="-27.2744801" lon="151.2900525">
  <ele>357.95</ele>
  <time>2026-09-01T19:51:00Z</time>
  <course>105.43</course>
  <speed>1.7779201331893397</speed>
  <fix>3d</fix>
</trkpt>
<trkpt lat="-27.2744817" lon="151.2900493">
  <ele>358.13</ele>
  <time>2026-09-01T19:51:00Z</time>
  <course>56.53</course>
  <speed>1.66</speed>
  <fix>3d</fix>
</trkpt>
<trkpt lat="-27.2744792" lon="151.290054">
  <ele>357.96</ele>
  <time>2026-09-01T19:51:00Z</time>
  <course>104.63</course>
  <speed>1.7972478960900191</speed>
  <fix>3d</fix>
</trkpt>
<trkpt lat="-27.2744817" lon="151.2900493">
  <ele>358.13</ele>
  <time>2026-09-01T19:51:00Z</time>
  <course>56.53</course>
  <speed>1.66</speed>
  <fix>3d</fix>
</trkpt>
<trkpt lat="-27.2744783" lon="151.2900555">
  <ele>357.96</ele>
  <time>2026-09-01T19:51:00Z</time>
  <course>103.93</course>
  <speed>1.8166452598127132</speed>
  <fix>3d</fix>
</trkpt>
<trkpt lat="-27.27448" lon="151.2900522">
  <ele>358.15</ele>
  <time>2026-09-01T19:51:00Z</time>
  <course>56.79</course>
  <speed>1.74</speed>
  <fix>3d</fix>
</trkpt>
<trkpt lat="-27.2744774" lon="151.2900569">
  <ele>357.96</ele>
  <time>2026-09-01T19:51:00Z</time>
  <course>103.39</course>
  <speed>1.8278402556022229</speed>
  <fix>3d</fix>
</trkpt>
<trkpt lat="-27.27448" lon="151.2900522">
  <ele>358.15</ele>
  <time>2026-09-01T19:51:00Z</time>
  <course>56.79</course>
  <speed>1.74</speed>
  <fix>3d</fix>
</trkpt>
<trkpt lat="-27.2744765" lon="151.2900584">
  <ele>357.97</ele>
  <time>2026-09-01T19:51:00Z</time>
  <course>103.04</course>
  <speed>1.8391846019364124</speed>
  <fix>3d</fix>
</trkpt>
<trkpt lat="-27.2744783" lon="151.2900553">
  <ele>358.16</ele>
  <time>2026-09-01T19:51:00Z</time>
  <course>56.09</course>
  <speed>1.78</speed>
  <fix>3d</fix>
</trkpt>
<trkpt lat="-27.2744755" lon="151.2900599">
  <ele>357.97</ele>
  <time>2026-09-01T19:51:00Z</time>
  <course>102.87</course>
  <speed>1.8506755523321745</speed>
  <fix>3d</fix>
</trkpt>
<trkpt lat="-27.2744783" lon="151.2900553">
  <ele>358.16</ele>
  <time>2026-09-01T19:51:00Z</time>
  <course>56.09</course>
  <speed>1.78</speed>
  <fix>3d</fix>
</trkpt>
<trkpt lat="-27.2744746" lon="151.2900614">
  <ele>357.97</ele>
  <time>2026-09-01T19:51:00Z</time>
  <course>102.85</course>
  <speed>1.8623103930333418</speed>
  <fix>3d</fix>
</trkpt>
<trkpt lat="-27.2744764" lon="151.2900583">
  <ele>358.17</ele>
  <time>2026-09-01T19:51:00Z</time>
  <course>55.14</course>
  <speed>1.82</speed>
  <fix>3d</fix>
</trkpt>
<trkpt lat="-27.2744736" lon="151.2900629">
  <ele>357.97</ele>
  <time>2026-09-01T19:51:00Z</time>
  <course>102.94</course>
  <speed>1.8740864441108365</speed>
  <fix>3d</fix>
</trkpt>
<trkpt lat="-27.2744764" lon="151.2900583">
  <ele>358.17</ele>
  <time>2026-09-01T19:51:00Z</time>
  <course>55.14</course>
  <speed>1.82</speed>
  <fix>3d</fix>
</trkpt>
<trkpt lat="-27.2744726" lon="151.2900644">
  <ele>357.97</ele>
  <time>2026-09-01T19:51:00Z</time>
  <course>103.09</course>
  <speed>1.886001060445089</speed>
  <fix>3d</fix>
</trkpt>
<trkpt lat="-27.2744745" lon="151.2900613">
  <ele>358.18</ele>
  <time>2026-09-01T19:51:00Z</time>
  <course>54.17</course>
  <speed>1.84</speed>
  <fix>3d</fix>
</trkpt>
<trkpt lat="-27.2744716" lon="151.2900659">
  <ele>357.98</ele>
  <time>2026-09-01T19:51:00Z</time>
  <course>103.11</course>
  <speed>1.8742731924668825</speed>
  <fix>3d</fix>
</trkpt>
<trkpt lat="-27.2744745" lon="151.2900613">
  <ele>358.18</ele>
  <time>2026-09-01T19:51:00Z</time>
  <course>54.17</course>
  <speed>1.84</speed>
  <fix>3d</fix>
</trkpt>
<trkpt lat="-27.2744705" lon="151.2900673">
  <ele>357.98</ele>
  <time>2026-09-01T19:51:00Z</time>
  <course>103.14</course>
  <speed>1.8071247881648904</speed>
  <fix>3d</fix>
</trkpt>
<trkpt lat="-27.2744726" lon="151.2900643">
  <ele>358.18</ele>
  <time>2026-09-01T19:51:00Z</time>
  <course>52.94</course>
  <speed>1.85</speed>
  <fix>3d</fix>
</trkpt>
<trkpt lat="-27.2744695" lon="151.2900686">
  <ele>357.98</ele>
  <time>2026-09-01T19:51:00Z</time>
  <course>103.24</course>
  <speed>1.7327723451163457</speed>
  <fix>3d</fix>
</trkpt>
<trkpt lat="-27.2744726" lon="151.2900643">
  <ele>358.18</ele>
  <time>2026-09-01T19:51:00Z</time>
  <course>52.94</course>
  <speed>1.85</speed>
  <fix>3d</fix>
</trkpt>
<trkpt lat="-27.2744683" lon="151.2900697">
  <ele>357.99</ele>
  <time>2026-09-01T19:51:00Z</time>
  <course>103.34</course>
  <speed>1.6726326554267679</speed>
  <fix>3d</fix>
</trkpt>
<trkpt lat="-27.2744705" lon="151.2900672">
  <ele>358.18</ele>
  <time>2026-09-01T19:51:00Z</time>
  <course>48.3</course>
  <speed>1.78</speed>
  <fix>3d</fix>
</trkpt>
<trkpt lat="-27.2744671" lon="151.2900706">
  <ele>357.99</ele>
  <time>2026-09-01T19:51:00Z</time>
  <course>103.42</course>
  <speed>1.6282813024781684</speed>
  <fix>3d</fix>
</trkpt>
<trkpt lat="-27.2744705" lon="151.2900672">
  <ele>358.18</ele>
  <time>2026-09-01T19:51:00Z</time>
  <course>48.3</course>
  <speed>1.78</speed>
  <fix>3d</fix>
</trkpt>
<trkpt lat="-27.2744659" lon="151.2900714">
  <ele>357.99</ele>
  <time>2026-09-01T19:51:00Z</time>
  <course>103.52</course>
  <speed>1.5966527487215245</speed>
  <fix>3d</fix>
</trkpt>
<trkpt lat="-27.2744682" lon="151.2900696">
  <ele>358.18</ele>
  <time>2026-09-01T19:51:00Z</time>
  <course>38.6</course>
  <speed>1.66</speed>
  <fix>3d</fix>
</trkpt>
<trkpt lat="-27.2744646" lon="151.2900721">
  <ele>357.99</ele>
  <time>2026-09-01T19:51:00Z</time>
  <course>103.58</course>
  <speed>1.590125781188394</speed>
  <fix>3d</fix>
</trkpt>
<trkpt lat="-27.2744682" lon="151.2900696">
  <ele>358.18</ele>
  <time>2026-09-01T19:51:00Z</time>
  <course>38.6</course>
  <speed>1.66</speed>
  <fix>3d</fix>
</trkpt>
<trkpt lat="-27.2744633" lon="151.2900727">
  <ele>357.99</ele>
  <time>2026-09-01T19:51:00Z</time>
  <course>103.57</course>
  <speed>1.5824032355881985</speed>
  <fix>3d</fix>
</trkpt>
<trkpt lat="-27.2744658" lon="151.2900714">
  <ele>358.18</ele>
  <time>2026-09-01T19:51:00Z</time>
  <course>27.97</course>
  <speed>1.59</speed>
  <fix>3d</fix>
</trkpt>
<trkpt lat="-27.274462" lon="151.2900732">
  <ele>357.99</ele>
  <time>2026-09-01T19:51:00Z</time>
  <course>103.53</course>
  <speed>1.5843295111813072</speed>
  <fix>3d</fix>
</trkpt>
<trkpt lat="-27.2744658" lon="151.2900714">
  <ele>358.18</ele>
  <time>2026-09-01T19:51:00Z</time>
  <course>27.97</course>
  <speed>1.59</speed>
  <fix>3d</fix>
</trkpt>
<trkpt lat="-27.2744606" lon="151.2900737">
  <ele>357.99</ele>
  <time>2026-09-01T19:51:00Z</time>
  <course>103.45</course>
  <speed>1.5814550262337528</speed>
  <fix>3d</fix>
</trkpt>
<trkpt lat="-27.2744632" lon="151.2900727">
  <ele>358.17</ele>
  <time>2026-09-01T19:51:00Z</time>
  <course>20.67</course>
  <speed>1.57</speed>
  <fix>3d</fix>
</trkpt>
<trkpt lat="-27.2744593" lon="151.2900742">
  <ele>357.98</ele>
  <time>2026-09-01T19:51:00Z</time>
  <course>103.38</course>
  <speed>1.5756268593801008</speed>
  <fix>3d</fix>
</trkpt>
<trkpt lat="-27.2744632" lon="151.2900727">
  <ele>358.17</ele>
  <time>2026-09-01T19:51:00Z</time>
  <course>20.67</course>
  <speed>1.57</speed>
  <fix>3d</fix>
</trkpt>
<trkpt lat="-27.2744579" lon="151.2900746">
  <ele>357.98</ele>
  <time>2026-09-01T19:51:00Z</time>
  <course>103.32</course>
  <speed>1.5700318468107581</speed>
  <fix>3d</fix>
</trkpt>
<trkpt lat="-27.2744605" lon="151.2900737">
  <ele>358.16</ele>
  <time>2026-09-01T19:51:00Z</time>
  <course>17.02</course>
  <speed>1.57</speed>
  <fix>3d</fix>
</trkpt>
<trkpt lat="-27.2744566" lon="151.290075">
  <ele>357.98</ele>
  <time>2026-09-01T19:51:00Z</time>
  <course>103.28</course>
  <speed>1.5646724896923316</speed>
  <fix>3d</fix>
</trkpt>
<trkpt lat="-27.2744605" lon="151.2900737">
  <ele>358.16</ele>
  <time>2026-09-01T19:51:00Z</time>
  <course>17.02</course>
  <speed>1.57</speed>
  <fix>3d</fix>
</trkpt>
<trkpt lat="-27.2744552" lon="151.2900754">
  <ele>357.98</ele>
  <time>2026-09-01T19:51:00Z</time>
  <course>103.26</course>
  <speed>1.5620819440733575</speed>
  <fix>3d</fix>
</trkpt>
<trkpt lat="-27.2744578" lon="151.2900746">
  <ele>358.16</ele>
  <time>2026-09-01T19:51:00Z</time>
  <course>15.11</course>
  <speed>1.56</speed>
  <fix>3d</fix>
</trkpt>
<trkpt lat="-27.2744539" lon="151.2900758">
  <ele>357.98</ele>
  <time>2026-09-01T19:51:00Z</time>
  <course>103.27</course>
  <speed>1.5524174696260025</speed>
  <fix>3d</fix>
</trkpt>
<trkpt lat="-27.2744578" lon="151.2900746">
  <ele>358.16</ele>
  <time>2026-09-01T19:51:00Z</time>
  <course>15.11</course>
  <speed>1.56</speed>
  <fix>3d</fix>
</trkpt>
<trkpt lat="-27.2744526" lon="151.2900762">
  <ele>357.98</ele>
  <time>2026-09-01T19:51:00Z</time>
  <course>103.3</course>
  <speed>1.5498709623707387</speed>
  <fix>3d</fix>
</trkpt>
<trkpt lat="-27.2744551" lon="151.2900753">
  <ele>358.15</ele>
  <time>2026-09-01T19:51:00Z</time>
  <course>14.13</course>
  <speed>1.55</speed>
  <fix>3d</fix>
</trkpt>
<trkpt lat="-27.2744512" lon="151.2900766">
  <ele>357.98</ele>
  <time>2026-09-01T19:51:00Z</time>
  <course>103.35</course>
  <speed>1.5401947928752389</speed>
  <fix>3d</fix>
</trkpt>
<trkpt lat="-27.2744551" lon="151.2900753">
  <ele>358.15</ele>
  <time>2026-09-01T19:51:00Z</time>
  <course>14.13</course>
  <speed>1.55</speed>
  <fix>3d</fix>
</trkpt>
<trkpt lat="-27.2744499" lon="151.2900769">
  <ele>357.97</ele>
  <time>2026-09-01T19:51:00Z</time>
  <course>103.0</course>
  <speed>1.5280052355931246</speed>
  <fix>3d</fix>
</trkpt>
<trkpt lat="-27.2744524" lon="151.2900761">
  <ele>358.15</ele>
  <time>2026-09-01T19:51:00Z</time>
  <course>13.88</course>
  <speed>1.54</speed>
  <fix>3d</fix>
</trkpt>
<trkpt lat="-27.2744486" lon="151.2900773">
  <ele>357.97</ele>
  <time>2026-09-01T19:51:00Z</time>
  <course>101.3</course>
  <speed>1.5158495967608396</speed>
  <fix>3d</fix>
</trkpt>
<trkpt lat="-27.2744524" lon="151.2900761">
  <ele>358.15</ele>
  <time>2026-09-01T19:51:00Z</time>
  <course>13.88</course>
  <speed>1.54</speed>
  <fix>3d</fix>
</trkpt>
<trkpt lat="-27.2744473" lon="151.2900776">
  <ele>357.97</ele>
  <time>2026-09-01T19:51:00Z</time>
  <course>98.29</course>
  <speed>1.5110923201446034</speed>
  <fix>3d</fix>
</trkpt>
<trkpt lat="-27.2744497" lon="151.2900769">
  <ele>358.15</ele>
  <time>2026-09-01T19:51:00Z</time>
  <course>13.58</course>
  <speed>1.52</speed>
  <fix>3d</fix>
</trkpt>
<trkpt lat="-27.2744459" lon="151.290078">
  <ele>357.97</ele>
  <time>2026-09-01T19:51:00Z</time>
  <course>94.36</course>
  <speed>1.4990663761154805</speed>
  <fix>3d</fix>
</trkpt>
<trkpt lat="-27.2744497" lon="151.2900769">
  <ele>358.15</ele>
  <time>2026-09-01T19:51:00Z</time>
  <course>13.58</course>
  <speed>1.52</speed>
  <fix>3d</fix>
</trkpt>
<trkpt lat="-27.2744446" lon="151.2900783">
  <ele>357.96</ele>
  <time>2026-09-01T19:51:00Z</time>
  <course>89.85</course>
  <speed>1.4968299836654797</speed>
  <fix>3d</fix>
</trkpt>
<trkpt lat="-27.274447" lon="151.2900776">
  <ele>358.14</ele>
  <time>2026-09-01T19:51:00Z</time>
  <course>12.77</course>
  <speed>1.5</speed>
  <fix>3d</fix>
</trkpt>
<trkpt lat="-27.2744433" lon="151.2900786">
  <ele>357.96</ele>
  <time>2026-09-01T19:51:00Z</time>
  <course>85.02</course>
  <speed>1.4848905683584903</speed>
  <fix>3d</fix>
</trkpt>
<trkpt lat="-27.274447" lon="151.2900776">
  <ele>358.14</ele>
  <time>2026-09-01T19:51:00Z</time>
  <course>12.77</course>
  <speed>1.5</speed>
  <fix>3d</fix>
</trkpt>
<trkpt lat="-27.274442" lon="151.2900789">
  <ele>357.95</ele>
  <time>2026-09-01T19:51:00Z</time>
  <course>80.01</course>
  <speed>1.482767682410161</speed>
  <fix>3d</fix>
</trkpt>
<trkpt lat="-27.2744445" lon="151.2900781">
  <ele>358.13</ele>
  <time>2026-09-01T19:51:00Z</time>
  <course>11.88</course>
  <speed>1.48</speed>
  <fix>3d</fix>
</trkpt>
<trkpt lat="-27.2744407" lon="151.2900792">
  <ele>357.95</ele>
  <time>2026-09-01T19:51:00Z</time>
  <course>74.93</course>
  <speed>1.4807092894960845</speed>
  <fix>3d</fix>
</trkpt>
<trkpt lat="-27.2744445" lon="151.2900781">
  <ele>358.13</ele>
  <time>2026-09-01T19:51:00Z</time>
  <course>11.88</course>
  <speed>1.48</speed>
  <fix>3d</fix>
</trkpt>
<trkpt lat="-27.2744394" lon="151.2900795">
  <ele>357.95</ele>
  <time>2026-09-01T19:51:00Z</time>
  <course>69.95</course>
  <speed>1.4787156589419075</speed>
  <fix>3d</fix>
</trkpt>
<trkpt lat="-27.2744419" lon="151.2900788">
  <ele>358.12</ele>
  <time>2026-09-01T19:51:00Z</time>
  <course>11.13</course>
  <speed>1.47</speed>
  <fix>3d</fix>
</trkpt>
<trkpt lat="-27.2744381" lon="151.2900798">
  <ele>357.94</ele>
  <time>2026-09-01T19:51:00Z</time>
  <course>65.91</course>
  <speed>1.4787156589419075</speed>
  <fix>3d</fix>
</trkpt>
<trkpt lat="-27.2744419" lon="151.2900788">
  <ele>358.12</ele>
  <time>2026-09-01T19:51:00Z</time>
  <course>11.13</course>
  <speed>1.47</speed>
  <fix>3d</fix>
</trkpt>
<trkpt lat="-27.2744368" lon="151.29008">
  <ele>357.94</ele>
  <time>2026-09-01T19:51:00Z</time>
  <course>63.55</course>
  <speed>1.46696966567138</speed>
  <fix>3d</fix>
</trkpt>
<trkpt lat="-27.2744393" lon="151.2900794">
  <ele>358.12</ele>
  <time>2026-09-01T19:51:00Z</time>
  <course>10.47</course>
  <speed>1.46</speed>
  <fix>3d</fix>
</trkpt>
<trkpt lat="-27.2744356" lon="151.2900803">
  <ele>357.93</ele>
  <time>2026-09-01T19:51:00Z</time>
  <course>62.74</course>
  <speed>1.4650938536489735</speed>
  <fix>3d</fix>
</trkpt>
<trkpt lat="-27.2744393" lon="151.2900794">
  <ele>358.12</ele>
  <time>2026-09-01T19:51:00Z</time>
  <course>10.47</course>
  <speed>1.46</speed>
  <fix>3d</fix>
</trkpt>
<trkpt lat="-27.2744343" lon="151.2900805">
  <ele>357.93</ele>
  <time>2026-09-01T19:51:00Z</time>
  <course>63.09</course>
  <speed>1.4534441853748632</speed>
  <fix>3d</fix>
</trkpt>
<trkpt lat="-27.2744367" lon="151.2900799">
  <ele>358.11</ele>
  <time>2026-09-01T19:51:00Z</time>
  <course>9.81</course>
  <speed>1.45</speed>
  <fix>3d</fix>
</trkpt>
<trkpt lat="-27.274433" lon="151.2900808">
  <ele>357.93</ele>
  <time>2026-09-01T19:51:00Z</time>
  <course>64.2</course>
  <speed>1.4401388821915753</speed>
  <fix>3d</fix>
</trkpt>
<trkpt lat="-27.2744367" lon="151.2900799">
  <ele>358.11</ele>
  <time>2026-09-01T19:51:00Z</time>
  <course>9.81</course>
  <speed>1.45</speed>
  <fix>3d</fix>
</trkpt>
<trkpt lat="-27.2744318" lon="151.290081">
  <ele>357.93</ele>
  <time>2026-09-01T19:51:00Z</time>
  <course>65.73</course>
  <speed>1.4286357128393508</speed>
  <fix>3d</fix>
</trkpt>
<trkpt lat="-27.2744341" lon="151.2900804">
  <ele>358.11</ele>
  <time>2026-09-01T19:51:00Z</time>
  <course>9.06</course>
  <speed>1.43</speed>
  <fix>3d</fix>
</trkpt>
<trkpt lat="-27.2744305" lon="151.2900812">
  <ele>357.92</ele>
  <time>2026-09-01T19:51:00Z</time>
  <course>67.46</course>
  <speed>1.4073023839957068</speed>
  <fix>3d</fix>
</trkpt>
<trkpt lat="-27.2744341" lon="151.2900804">
  <ele>358.11</ele>
  <time>2026-09-01T19:51:00Z</time>
  <course>9.06</course>
  <speed>1.43</speed>
  <fix>3d</fix>
</trkpt>
<trkpt lat="-27.2744293" lon="151.2900814">
  <ele>357.92</ele>
  <time>2026-09-01T19:51:00Z</time>
  <course>69.19</course>
  <speed>1.3944174410842687</speed>
  <fix>3d</fix>
</trkpt>
<trkpt lat="-27.2744316" lon="151.2900808">
  <ele>358.11</ele>
  <time>2026-09-01T19:51:00Z</time>
  <course>8.19</course>
  <speed>1.41</speed>
  <fix>3d</fix>
</trkpt>
<trkpt lat="-27.2744281" lon="151.2900816">
  <ele>357.93</ele>
  <time>2026-09-01T19:51:00Z</time>
  <course>70.8</course>
  <speed>1.3732079230764729</speed>
  <fix>3d</fix>
</trkpt>
<trkpt lat="-27.2744316" lon="151.2900808">
  <ele>358.11</ele>
  <time>2026-09-01T19:51:00Z</time>
  <course>8.19</course>
  <speed>1.41</speed>
  <fix>3d</fix>
</trkpt>
<trkpt lat="-27.2744269" lon="151.2900817">
  <ele>357.93</ele>
  <time>2026-09-01T19:51:00Z</time>
  <course>72.16</course>
  <speed>1.3520355024924455</speed>
  <fix>3d</fix>
</trkpt>
<trkpt lat="-27.2744291" lon="151.2900811">
  <ele>358.11</ele>
  <time>2026-09-01T19:51:00Z</time>
  <course>7.2</course>
  <speed>1.37</speed>
  <fix>3d</fix>
</trkpt>
<trkpt lat="-27.2744257" lon="151.2900818">
  <ele>357.93</ele>
  <time>2026-09-01T19:51:00Z</time>
  <course>73.21</course>
  <speed>1.329661611087573</speed>
  <fix>3d</fix>
</trkpt>
<trkpt lat="-27.2744291" lon="151.2900811">
  <ele>358.11</ele>
  <time>2026-09-01T19:51:00Z</time>
  <course>7.2</course>
  <speed>1.37</speed>
  <fix>3d</fix>
</trkpt>
<trkpt lat="-27.2744245" lon="151.290082">
  <ele>357.93</ele>
  <time>2026-09-01T19:51:00Z</time>
  <course>73.85</course>
  <speed>1.3075167302944921</speed>
  <fix>3d</fix>
</trkpt>
<trkpt lat="-27.2744267" lon="151.2900815">
  <ele>358.11</ele>
  <time>2026-09-01T19:51:00Z</time>
  <course>6.11</course>
  <speed>1.33</speed>
  <fix>3d</fix>
</trkpt>
<trkpt lat="-27.2744233" lon="151.2900821">
  <ele>357.94</ele>
  <time>2026-09-01T19:51:00Z</time>
  <course>74.14</course>
  <speed>1.2865846260545786</speed>
  <fix>3d</fix>
</trkpt>
<trkpt lat="-27.2744267" lon="151.2900815">
  <ele>358.11</ele>
  <time>2026-09-01T19:51:00Z</time>
  <course>6.11</course>
  <speed>1.33</speed>
  <fix>3d</fix>
</trkpt>
<trkpt lat="-27.2744222" lon="151.2900822">
  <ele>357.94</ele>
  <time>2026-09-01T19:51:00Z</time>
  <course>74.11</course>
  <speed>1.2548306658669128</speed>
  <fix>3d</fix>
</trkpt>
<trkpt lat="-27.2744243" lon="151.2900818">
  <ele>358.12</ele>
  <time>2026-09-01T19:51:00Z</time>
  <course>4.92</course>
  <speed>1.29</speed>
  <fix>3d</fix>
</trkpt>
<trkpt lat="-27.2744211" lon="151.2900823">
  <ele>357.95</ele>
  <time>2026-09-01T19:51:00Z</time>
  <course>73.9</course>
  <speed>1.2340583454602136</speed>
  <fix>3d</fix>
</trkpt>
<trkpt lat="-27.2744243" lon="151.2900818">
  <ele>358.12</ele>
  <time>2026-09-01T19:51:00Z</time>
  <course>4.92</course>
  <speed>1.29</speed>
  <fix>3d</fix>
</trkpt>
<trkpt lat="-27.27442" lon="151.2900823">
  <ele>357.95</ele>
  <time>2026-09-01T19:51:00Z</time>
  <course>74.27</course>
  <speed>1.2126417442921877</speed>
  <fix>3d</fix>
</trkpt>
<trkpt lat="-27.274422" lon="151.2900819">
  <ele>358.12</ele>
  <time>2026-09-01T19:51:00Z</time>
  <course>3.62</course>
  <speed>1.24</speed>
  <fix>3d</fix>
</trkpt>
<trkpt lat="-27.2744189" lon="151.2900824">
  <ele>357.96</ele>
  <time>2026-09-01T19:51:00Z</time>
  <course>75.81</course>
  <speed>1.1815244390193544</speed>
  <fix>3d</fix>
</trkpt>
<trkpt lat="-27.274422" lon="151.2900819">
  <ele>358.12</ele>
  <time>2026-09-01T19:51:00Z</time>
  <course>3.62</course>
  <speed>1.24</speed>
  <fix>3d</fix>
</trkpt>
<trkpt lat="-27.2744179" lon="151.2900824">
  <ele>357.96</ele>
  <time>2026-09-01T19:51:00Z</time>
  <course>78.36</course>
  <speed>1.161077086157504</speed>
  <fix>3d</fix>
</trkpt>
<trkpt lat="-27.2744198" lon="151.290082">
  <ele>358.13</ele>
  <time>2026-09-01T19:51:00Z</time>
  <course>2.2</course>
  <speed>1.18</speed>
  <fix>3d</fix>
</trkpt>
<trkpt lat="-27.2744169" lon="151.2900824">
  <ele>357.96</ele>
  <time>2026-09-01T19:51:00Z</time>
  <course>81.61</course>
  <speed>1.1303981599418853</speed>
  <fix>3d</fix>
</trkpt>
<trkpt lat="-27.2744198" lon="151.290082">
  <ele>358.13</ele>
  <time>2026-09-01T19:51:00Z</time>
  <course>2.2</course>
  <speed>1.18</speed>
  <fix>3d</fix>
</trkpt>
<trkpt lat="-27.2744159" lon="151.2900824">
  <ele>357.96</ele>
  <time>2026-09-01T19:51:00Z</time>
  <course>85.27</course>
  <speed>1.110045044131093</speed>
  <fix>3d</fix>
</trkpt>
<trkpt lat="-27.2744178" lon="151.2900821">
  <ele>358.13</ele>
  <time>2026-09-01T19:51:00Z</time>
  <course>0.62</course>
  <speed>1.13</speed>
  <fix>3d</fix>
</trkpt>
<trkpt lat="-27.2744149" lon="151.2900824">
  <ele>357.96</ele>
  <time>2026-09-01T19:51:00Z</time>
  <course>89.22</course>
  <speed>1.0804165863221464</speed>
  <fix>3d</fix>
</trkpt>
<trkpt lat="-27.2744178" lon="151.2900821">
  <ele>358.13</ele>
  <time>2026-09-01T19:51:00Z</time>
  <course>0.62</course>
  <speed>1.13</speed>
  <fix>3d</fix>
</trkpt>
<trkpt lat="-27.274414" lon="151.2900824">
  <ele>357.96</ele>
  <time>2026-09-01T19:51:00Z</time>
  <course>93.35</course>
  <speed>1.0557461816175324</speed>
  <fix>3d</fix>
</trkpt>
<trkpt lat="-27.2744158" lon="151.2900822">
  <ele>358.13</ele>
  <time>2026-09-01T19:51:00Z</time>
  <course>359.56</course>
  <speed>1.08</speed>
  <fix>3d</fix>
</trkpt>
<trkpt lat="-27.274413" lon="151.2900825">
  <ele>357.96</ele>
  <time>2026-09-01T19:51:00Z</time>
  <course>97.58</course>
  <speed>1.035760590097924</speed>
  <fix>3d</fix>
</trkpt>
<trkpt lat="-27.2744158" lon="151.2900822">
  <ele>358.13</ele>
  <time>2026-09-01T19:51:00Z</time>
  <course>359.56</course>
  <speed>1.08</speed>
  <fix>3d</fix>
</trkpt>
<trkpt lat="-27.2744122" lon="151.2900827">
  <ele>357.96</ele>
  <time>2026-09-01T19:51:00Z</time>
  <course>101.89</course>
  <speed>1.0089598604503551</speed>
  <fix>3d</fix>
</trkpt>
<trkpt lat="-27.2744139" lon="151.2900822">
  <ele>358.13</ele>
  <time>2026-09-01T19:51:00Z</time>
  <course>3.51</course>
  <speed>1.02</speed>
  <fix>3d</fix>
</trkpt>
<trkpt lat="-27.2744113" lon="151.2900829">
  <ele>357.97</ele>
  <time>2026-09-01T19:51:00Z</time>
  <course>106.27</course>
  <speed>0.9771898484941398</speed>
  <fix>3d</fix>
</trkpt>
<trkpt lat="-27.2744139" lon="151.2900822">
  <ele>358.13</ele>
  <time>2026-09-01T19:51:00Z</time>
  <course>3.51</course>
  <speed>1.02</speed>
  <fix>3d</fix>
</trkpt>
<trkpt lat="-27.2744105" lon="151.2900832">
  <ele>357.97</ele>
  <time>2026-09-01T19:51:00Z</time>
  <course>109.92</course>
  <speed>0.950789145920377</speed>
  <fix>3d</fix>
</trkpt>
<trkpt lat="-27.2744121" lon="151.2900824">
  <ele>358.14</ele>
  <time>2026-09-01T19:51:00Z</time>
  <course>12.1</course>
  <speed>0.97</speed>
  <fix>3d</fix>
</trkpt>
<trkpt lat="-27.2744097" lon="151.2900836">
  <ele>357.97</ele>
  <time>2026-09-01T19:51:00Z</time>
  <course>112.08</course>
  <speed>0.9219544457292888</speed>
  <fix>3d</fix>
</trkpt>
<trkpt lat="-27.2744121" lon="151.2900824">
  <ele>358.14</ele>
  <time>2026-09-01T19:51:00Z</time>
  <course>12.1</course>
  <speed>0.97</speed>
  <fix>3d</fix>
</trkpt>
<trkpt lat="-27.274409" lon="151.2900839">
  <ele>357.97</ele>
  <time>2026-09-01T19:51:00Z</time>
  <course>112.77</course>
  <speed>0.8814193099768123</speed>
  <fix>3d</fix>
</trkpt>
<trkpt lat="-27.2744105" lon="151.2900829">
  <ele>358.14</ele>
  <time>2026-09-01T19:51:00Z</time>
  <course>19.43</course>
  <speed>0.91</speed>
  <fix>3d</fix>
</trkpt>
<trkpt lat="-27.2744083" lon="151.2900842">
  <ele>357.97</ele>
  <time>2026-09-01T19:51:00Z</time>
  <course>112.32</course>
  <speed>0.84581321815162</speed>
  <fix>3d</fix>
</trkpt>
<trkpt lat="-27.2744105" lon="151.2900829">
  <ele>358.14</ele>
  <time>2026-09-01T19:51:00Z</time>
  <course>19.43</course>
  <speed>0.91</speed>
  <fix>3d</fix>
</trkpt>
<trkpt lat="-27.2744077" lon="151.2900845">
  <ele>357.97</ele>
  <time>2026-09-01T19:51:00Z</time>
  <course>111.1</course>
  <speed>0.8011242100947892</speed>
  <fix>3d</fix>
</trkpt>
<trkpt lat="-27.274409" lon="151.2900836">
  <ele>358.15</ele>
  <time>2026-09-01T19:51:00Z</time>
  <course>22.82</course>
  <speed>0.84</speed>
  <fix>3d</fix>
</trkpt>
<trkpt lat="-27.274407" lon="151.2900848">
  <ele>357.97</ele>
  <time>2026-09-01T19:51:00Z</time>
  <course>109.41</course>
  <speed>0.7655716818169281</speed>
  <fix>3d</fix>
</trkpt>
<trkpt lat="-27.274409" lon="151.2900836">
  <ele>358.15</ele>
  <time>2026-09-01T19:51:00Z</time>
  <course>22.82</course>
  <speed>0.84</speed>
  <fix>3d</fix>
</trkpt>
<trkpt lat="-27.2744064" lon="151.2900851">
  <ele>357.96</ele>
  <time>2026-09-01T19:51:00Z</time>
  <course>107.52</course>
  <speed>0.7300684899377592</speed>
  <fix>3d</fix>
</trkpt>
<trkpt lat="-27.2744077" lon="151.2900843">
  <ele>358.15</ele>
  <time>2026-09-01T19:51:00Z</time>
  <course>22.85</course>
  <speed>0.76</speed>
  <fix>3d</fix>
</trkpt>
<trkpt lat="-27.2744059" lon="151.2900854">
  <ele>357.96</ele>
  <time>2026-09-01T19:51:00Z</time>
  <course>105.67</course>
  <speed>0.6854195795277518</speed>
  <fix>3d</fix>
</trkpt>
<trkpt lat="-27.2744077" lon="151.2900843">
  <ele>358.15</ele>
  <time>2026-09-01T19:51:00Z</time>
  <course>22.85</course>
  <speed>0.76</speed>
  <fix>3d</fix>
</trkpt>
<trkpt lat="-27.2744053" lon="151.2900856">
  <ele>357.95</ele>
  <time>2026-09-01T19:51:00Z</time>
  <course>104.03</course>
  <speed>0.6407807737440318</speed>
  <fix>3d</fix>
</trkpt>
<trkpt lat="-27.2744065" lon="151.2900848">
  <ele>358.14</ele>
  <time>2026-09-01T19:51:00Z</time>
  <course>22.18</course>
  <speed>0.69</speed>
  <fix>3d</fix>
</trkpt>
<trkpt lat="-27.2744048" lon="151.2900858">
  <ele>357.94</ele>
  <time>2026-09-01T19:51:00Z</time>
  <course>102.79</course>
  <speed>0.6053924347066124</speed>
  <fix>3d</fix>
</trkpt>
<trkpt lat="-27.2744065" lon="151.2900848">
  <ele>358.14</ele>
  <time>2026-09-01T19:51:00Z</time>
  <course>22.18</course>
  <speed>0.69</speed>
  <fix>3d</fix>
</trkpt>
<trkpt lat="-27.2744044" lon="151.290086">
  <ele>357.94</ele>
  <time>2026-09-01T19:51:00Z</time>
  <course>101.89</course>
  <speed>0.5608029957123981</speed>
  <fix>3d</fix>
</trkpt>
<trkpt lat="-27.2744054" lon="151.2900852">
  <ele>358.13</ele>
  <time>2026-09-01T19:51:00Z</time>
  <course>21.29</course>
  <speed>0.6</speed>
  <fix>3d</fix>
</trkpt>
<trkpt lat="-27.2744039" lon="151.2900862">
  <ele>357.93</ele>
  <time>2026-09-01T19:51:00Z</time>
  <course>100.49</course>
  <speed>0.5255473337388366</speed>
  <fix>3d</fix>
</trkpt>
<trkpt lat="-27.2744054" lon="151.2900852">
  <ele>358.13</ele>
  <time>2026-09-01T19:51:00Z</time>
  <course>21.29</course>
  <speed>0.6</speed>
  <fix>3d</fix>
</trkpt>
<trkpt lat="-27.2744035" lon="151.2900863">
  <ele>357.93</ele>
  <time>2026-09-01T19:51:00Z</time>
  <course>98.25</course>
  <speed>0.48104053883222775</speed>
  <fix>3d</fix>
</trkpt>
<trkpt lat="-27.2744044" lon="151.2900857">
  <ele>358.11</ele>
  <time>2026-09-01T19:51:00Z</time>
  <course>19.91</course>
  <speed>0.52</speed>
  <fix>3d</fix>
</trkpt>
<trkpt lat="-27.2744031" lon="151.2900864">
  <ele>357.92</ele>
  <time>2026-09-01T19:51:00Z</time>
  <course>95.28</course>
  <speed>0.4459820624195552</speed>
  <fix>3d</fix>
</trkpt>
<trkpt lat="-27.2744044" lon="151.2900857">
  <ele>358.11</ele>
  <time>2026-09-01T19:51:00Z</time>
  <course>19.91</course>
  <speed>0.52</speed>
  <fix>3d</fix>
</trkpt>
<trkpt lat="-27.2744028" lon="151.2900865">
  <ele>357.92</ele>
  <time>2026-09-01T19:51:00Z</time>
  <course>91.84</course>
  <speed>0.4016217125604641</speed>
  <fix>3d</fix>
</trkpt>
<trkpt lat="-27.2744036" lon="151.290086">
  <ele>358.1</ele>
  <time>2026-09-01T19:51:00Z</time>
  <course>17.9</course>
  <speed>0.44</speed>
  <fix>3d</fix>
</trkpt>
<trkpt lat="-27.2744025" lon="151.2900866">
  <ele>357.92</ele>
  <time>2026-09-01T19:51:00Z</time>
  <course>88.1</course>
  <speed>0.3668787265568828</speed>
  <fix>3d</fix>
</trkpt>
<trkpt lat="-27.2744036" lon="151.290086">
  <ele>358.1</ele>
  <time>2026-09-01T19:51:00Z</time>
  <course>17.9</course>
  <speed>0.44</speed>
  <fix>3d</fix>
</trkpt>
<trkpt lat="-27.2744022" lon="151.2900867">
  <ele>357.92</ele>
  <time>2026-09-01T19:51:00Z</time>
  <course>84.14</course>
  <speed>0.32015621187164245</speed>
  <fix>3d</fix>
</trkpt>
<trkpt lat="-27.2744029" lon="151.2900862">
  <ele>358.1</ele>
  <time>2026-09-01T19:51:00Z</time>
  <course>15.12</course>
  <speed>0.36</speed>
  <fix>3d</fix>
</trkpt>
<trkpt lat="-27.274402" lon="151.2900867">
  <ele>357.93</ele>
  <time>2026-09-01T19:51:00Z</time>
  <course>80.04</course>
  <speed>0.2863564212655271</speed>
  <fix>3d</fix>
</trkpt>
<trkpt lat="-27.2744029" lon="151.2900862">
  <ele>358.1</ele>
  <time>2026-09-01T19:51:00Z</time>
  <course>15.12</course>
  <speed>0.36</speed>
  <fix>3d</fix>
</trkpt>
<trkpt lat="-27.2744018" lon="151.2900867">
  <ele>357.93</ele>
  <time>2026-09-01T19:51:00Z</time>
  <course>75.85</course>
  <speed>0.25317977802344327</speed>
  <fix>3d</fix>
</trkpt>
<trkpt lat="-27.2744023" lon="151.2900864">
  <ele>358.1</ele>
  <time>2026-09-01T19:51:00Z</time>
  <course>10.86</course>
  <speed>0.29</speed>
  <fix>3d</fix>
</trkpt>
<trkpt lat="-27.2744016" lon="151.2900867">
  <ele>357.94</ele>
  <time>2026-09-01T19:51:00Z</time>
  <course>71.57</course>
  <speed>0.2109502310972899</speed>
  <fix>3d</fix>
</trkpt>
<trkpt lat="-27.2744023" lon="151.2900864">
  <ele>358.1</ele>
  <time>2026-09-01T19:51:00Z</time>
  <course>10.86</course>
  <speed>0.29</speed>
  <fix>3d</fix>
</trkpt>
<trkpt lat="-27.2744014" lon="151.2900867">
  <ele>357.94</ele>
  <time>2026-09-01T19:51:00Z</time>
  <course>67.7</course>
  <speed>0.18</speed>
  <fix>3d</fix>
</trkpt>
<trkpt lat="-27.2744019" lon="151.2900865">
  <ele>358.1</ele>
  <time>2026-09-01T19:51:00Z</time>
  <course>3.38</course>
  <speed>0.21</speed>
  <fix>3d</fix>
</trkpt>
<trkpt lat="-27.2744013" lon="151.2900867">
  <ele>357.94</ele>
  <time>2026-09-01T19:51:00Z</time>
  <course>65.11</course>
  <speed>0.140356688476182</speed>
  <fix>3d</fix>
</trkpt>
<trkpt lat="-27.2744019" lon="151.2900865">
  <ele>358.1</ele>
  <time>2026-09-01T19:51:00Z</time>
  <course>3.38</course>
  <speed>0.21</speed>
  <fix>3d</fix>
</trkpt>
<trkpt lat="-27.2744012" lon="151.2900866">
  <ele>357.94</ele>
  <time>2026-09-01T19:51:00Z</time>
  <course>64.02</course>
  <speed>0.11704699910719625</speed>
  <fix>3d</fix>
</trkpt>
<trkpt lat="-27.2744015" lon="151.2900865">
  <ele>358.11</ele>
  <time>2026-09-01T19:51:00Z</time>
  <course>348.64</course>
  <speed>0.15</speed>
  <fix>3d</fix>
</trkpt>
<trkpt lat="-27.2744011" lon="151.2900866">
  <ele>357.95</ele>
  <time>2026-09-01T19:51:00Z</time>
  <course>64.2</course>
  <speed>0.1</speed>
  <fix>3d</fix>
</trkpt>
<trkpt lat="-27.2744015" lon="151.2900865">
  <ele>358.11</ele>
  <time>2026-09-01T19:51:00Z</time>
  <course>348.64</course>
  <speed>0.15</speed>
  <fix>3d</fix>
</trkpt>
<trkpt lat="-27.2744011" lon="151.2900865">
  <ele>357.95</ele>
  <time>2026-09-01T19:51:00Z</time>
  <course>65.32</course>
  <speed>0.08944271909999159</speed>
  <fix>3d</fix>
</trkpt>
<trkpt lat="-27.2744013" lon="151.2900864">
  <ele>358.11</ele>
  <time>2026-09-01T19:51:00Z</time>
  <course>317.31</course>
  <speed>0.11</speed>
  <fix>3d</fix>
</trkpt>
<trkpt lat="-27.2744011" lon="151.2900864">
  <ele>357.95</ele>
  <time>2026-09-01T19:51:00Z</time>
  <course>67.03</course>
  <speed>0.11045361017187261</speed>
  <fix>3d</fix>
</trkpt>
<trkpt lat="-27.2744013" lon="151.2900864">
  <ele>358.11</ele>
  <time>2026-09-01T19:51:00Z</time>
  <course>317.31</course>
  <speed>0.11</speed>
  <fix>3d</fix>
</trkpt>
<trkpt lat="-27.2744011" lon="151.2900862">
  <ele>357.95</ele>
  <time>2026-09-01T19:51:00Z</time>
  <course>69.05</course>
  <speed>0.130384048104053</speed>
  <fix>3d</fix>
</trkpt>
<trkpt lat="-27.2744013" lon="151.2900862">
  <ele>358.12</ele>
  <time>2026-09-01T19:51:00Z</time>
  <course>275.9</course>
  <speed>0.12</speed>
  <fix>3d</fix>
</trkpt>
<trkpt lat="-27.2744012" lon="151.2900861">
  <ele>357.95</ele>
  <time>2026-09-01T19:51:00Z</time>
  <course>71.13</course>
  <speed>0.15811388300841897</speed>
  <fix>3d</fix>
</trkpt>
<trkpt lat="-27.2744013" lon="151.2900862">
  <ele>358.12</ele>
  <time>2026-09-01T19:51:00Z</time>
  <course>275.9</course>
  <speed>0.12</speed>
  <fix>3d</fix>
</trkpt>
<trkpt lat="-27.2744012" lon="151.2900859">
  <ele>357.95</ele>
  <time>2026-09-01T19:51:00Z</time>
  <course>73.03</course>
  <speed>0.18788294228055935</speed>
  <fix>3d</fix>
</trkpt>
<trkpt lat="-27.2744013" lon="151.2900859">
  <ele>358.12</ele>
  <time>2026-09-01T19:51:00Z</time>
  <course>251.78</course>
  <speed>0.17</speed>
  <fix>3d</fix>
</trkpt>
<trkpt lat="-27.2744013" lon="151.2900857">
  <ele>357.95</ele>
  <time>2026-09-01T19:51:00Z</time>
  <course>74.54</course>
  <speed>0.2195449840010015</speed>
  <fix>3d</fix>
</trkpt>
<trkpt lat="-27.2744013" lon="151.2900859">
  <ele>358.12</ele>
  <time>2026-09-01T19:51:00Z</time>
  <course>251.78</course>
  <speed>0.17</speed>
  <fix>3d</fix>
</trkpt>
<trkpt lat="-27.2744014" lon="151.2900854">
  <ele>357.95</ele>
  <time>2026-09-01T19:51:00Z</time>
  <course>75.52</course>
  <speed>0.25</speed>
  <fix>3d</fix>
</trkpt>
<trkpt lat="-27.2744014" lon="151.2900856">
  <ele>358.13</ele>
  <time>2026-09-01T19:51:00Z</time>
  <course>239.65</course>
  <speed>0.24</speed>
  <fix>3d</fix>
</trkpt>
<trkpt lat="-27.2744016" lon="151.2900852">
  <ele>357.95</ele>
  <time>2026-09-01T19:51:00Z</time>
  <course>75.96</course>
  <speed>0.2765863337187866</speed>
  <fix>3d</fix>
</trkpt>
<trkpt lat="-27.2744014" lon="151.2900856">
  <ele>358.13</ele>
  <time>2026-09-01T19:51:00Z</time>
  <course>239.65</course>
  <speed>0.24</speed>
  <fix>3d</fix>
</trkpt>
<trkpt lat="-27.2744018" lon="151.2900849">
  <ele>357.95</ele>
  <time>2026-09-01T19:51:00Z</time>
  <course>75.91</course>
  <speed>0.304138126514911</speed>
  <fix>3d</fix>
</trkpt>
<trkpt lat="-27.2744016" lon="151.2900851">
  <ele>358.13</ele>
  <time>2026-09-01T19:51:00Z</time>
  <course>231.77</course>
  <speed>0.3</speed>
  <fix>3d</fix>
</trkpt>
<trkpt lat="-27.274402" lon="151.2900847">
  <ele>357.95</ele>
  <time>2026-09-01T19:51:00Z</time>
  <course>75.5</course>
  <speed>0.33241540277189324</speed>
  <fix>3d</fix>
</trkpt>
<trkpt lat="-27.2744016" lon="151.2900851">
  <ele>358.13</ele>
  <time>2026-09-01T19:51:00Z</time>
  <course>231.77</course>
  <speed>0.3</speed>
  <fix>3d</fix>
</trkpt>
<trkpt lat="-27.2744023" lon="151.2900844">
  <ele>357.95</ele>
  <time>2026-09-01T19:51:00Z</time>
  <course>74.86</course>
  <speed>0.354682957019364</speed>
  <fix>3d</fix>
</trkpt>
<trkpt lat="-27.274402" lon="151.2900846">
  <ele>358.13</ele>
  <time>2026-09-01T19:51:00Z</time>
  <course>225.42</course>
  <speed>0.36</speed>
  <fix>3d</fix>
</trkpt>
<trkpt lat="-27.2744026" lon="151.2900842">
  <ele>357.95</ele>
  <time>2026-09-01T19:51:00Z</time>
  <course>74.16</course>
  <speed>0.378021163428716</speed>
  <fix>3d</fix>
</trkpt>
<trkpt lat="-27.274402" lon="151.2900846">
  <ele>358.13</ele>
  <time>2026-09-01T19:51:00Z</time>
  <course>225.42</course>
  <speed>0.36</speed>
  <fix>3d</fix>
</trkpt>
<trkpt lat="-27.2744029" lon="151.2900839">
  <ele>357.95</ele>
  <time>2026-09-01T19:51:00Z</time>
  <course>74.18</course>
  <speed>0.4022437072223753</speed>
  <fix>3d</fix>
</trkpt>
<trkpt lat="-27.2744025" lon="151.2900841">
  <ele>358.13</ele>
  <time>2026-09-01T19:51:00Z</time>
  <course>219.86</course>
  <speed>0.41</speed>
  <fix>3d</fix>
</trkpt>
<trkpt lat="-27.2744032" lon="151.2900836">
  <ele>357.95</ele>
  <time>2026-09-01T19:51:00Z</time>
  <course>75.55</course>
  <speed>0.4219004621945798</speed>
  <fix>3d</fix>
</trkpt>
<trkpt lat="-27.2744025" lon="151.2900841">
  <ele>358.13</ele>
  <time>2026-09-01T19:51:00Z</time>
  <course>219.86</course>
  <speed>0.41</speed>
  <fix>3d</fix>
</trkpt>
<trkpt lat="-27.2744036" lon="151.2900834">
  <ele>357.95</ele>
  <time>2026-09-01T19:51:00Z</time>
  <course>78.09</course>
  <speed>0.4477722635447622</speed>
  <fix>3d</fix>
</trkpt>
<trkpt lat="-27.2744031" lon="151.2900835">
  <ele>358.13</ele>
  <time>2026-09-01T19:51:00Z</time>
  <course>214.84</course>
  <speed>0.45</speed>
  <fix>3d</fix>
</trkpt>
<trkpt lat="-27.2744039" lon="151.2900831">
  <ele>357.95</ele>
  <time>2026-09-01T19:51:00Z</time>
  <course>81.48</course>
  <speed>0.4695742752749558</speed>
  <fix>3d</fix>
</trkpt>
<trkpt lat="-27.2744031" lon="151.2900835">
  <ele>358.13</ele>
  <time>2026-09-01T19:51:00Z</time>
  <course>214.84</course>
  <speed>0.45</speed>
  <fix>3d</fix>
</trkpt>
<trkpt lat="-27.2744044" lon="151.2900829">
  <ele>357.95</ele>
  <time>2026-09-01T19:51:00Z</time>
  <course>85.44</course>
  <speed>0.49244289008980524</speed>
  <fix>3d</fix>
</trkpt>
<trkpt lat="-27.2744039" lon="151.290083">
  <ele>358.13</ele>
  <time>2026-09-01T19:51:00Z</time>
  <course>210.0</course>
  <speed>0.5</speed>
  <fix>3d</fix>
</trkpt>
<trkpt lat="-27.2744048" lon="151.2900827">
  <ele>357.94</ele>
  <time>2026-09-01T19:51:00Z</time>
  <course>89.72</course>
  <speed>0.5126402247190519</speed>
  <fix>3d</fix>
</trkpt>
<trkpt lat="-27.2744039" lon="151.290083">
  <ele>358.13</ele>
  <time>2026-09-01T19:51:00Z</time>
  <course>210.0</course>
  <speed>0.5</speed>
  <fix>3d</fix>
</trkpt>
<trkpt lat="-27.2744053" lon="151.2900825">
  <ele>357.94</ele>
  <time>2026-09-01T19:51:00Z</time>
  <course>94.19</course>
  <speed>0.5345091205957107</speed>
  <fix>3d</fix>
</trkpt>
<trkpt lat="-27.2744047" lon="151.2900825">
  <ele>358.13</ele>
  <time>2026-09-01T19:51:00Z</time>
  <course>204.91</course>
  <speed>0.54</speed>
  <fix>3d</fix>
</trkpt>
<trkpt lat="-27.2744058" lon="151.2900823">
  <ele>357.94</ele>
  <time>2026-09-01T19:51:00Z</time>
  <course>98.79</course>
  <speed>0.570087712549569</speed>
  <fix>3d</fix>
</trkpt>
<trkpt lat="-27.2744047" lon="151.2900825">
  <ele>358.13</ele>
  <time>2026-09-01T19:51:00Z</time>
  <course>204.91</course>
  <speed>0.54</speed>
  <fix>3d</fix>
</trkpt>
<trkpt lat="-27.2744064" lon="151.2900821">
  <ele>357.94</ele>
  <time>2026-09-01T19:51:00Z</time>
  <course>103.45</course>
  <speed>0.6063827174318213</speed>
  <fix>3d</fix>
</trkpt>
<trkpt lat="-27.2744057" lon="151.2900821">
  <ele>358.13</ele>
  <time>2026-09-01T19:51:00Z</time>
  <course>199.49</course>
  <speed>0.59</speed>
  <fix>3d</fix>
</trkpt>
<trkpt lat="-27.2744069" lon="151.2900819">
  <ele>357.94</ele>
  <time>2026-09-01T19:51:00Z</time>
  <course>108.04</course>
  <speed>0.6476109943476871</speed>
  <fix>3d</fix>
</trkpt>
<trkpt lat="-27.2744057" lon="151.2900821">
  <ele>358.13</ele>
  <time>2026-09-01T19:51:00Z</time>
  <course>199.49</course>
  <speed>0.59</speed>
  <fix>3d</fix>
</trkpt>
<trkpt lat="-27.2744075" lon="151.2900817">
  <ele>357.94</ele>
  <time>2026-09-01T19:51:00Z</time>
  <course>111.64</course>
  <speed>0.6815423684555495</speed>
  <fix>3d</fix>
</trkpt>
<trkpt lat="-27.2744067" lon="151.2900817">
  <ele>358.13</ele>
  <time>2026-09-01T19:51:00Z</time>
  <course>196.07</course>
  <speed>0.66</speed>
  <fix>3d</fix>
</trkpt>
<trkpt lat="-27.2744082" lon="151.2900815">
  <ele>357.94</ele>
  <time>2026-09-01T19:51:00Z</time>
  <course>113.69</course>
  <speed>0.7130918594402827</speed>
  <fix>3d</fix>
</trkpt>
<trkpt lat="-27.2744067" lon="151.2900817">
  <ele>358.13</ele>
  <time>2026-09-01T19:51:00Z</time>
  <course>196.07</course>
  <speed>0.66</speed>
  <fix>3d</fix>
</trkpt>
<trkpt lat="-27.2744089" lon="151.2900813">
  <ele>357.94</ele>
  <time>2026-09-01T19:51:00Z</time>
  <course>114.33</course>
  <speed>0.7472616676907762</speed>
  <fix>3d</fix>
</trkpt>
<trkpt lat="-27.2744079" lon="151.2900814">
  <ele>358.13</ele>
  <time>2026-09-01T19:51:00Z</time>
  <course>195.87</course>
  <speed>0.73</speed>
  <fix>3d</fix>
</trkpt>
<trkpt lat="-27.2744095" lon="151.290081">
  <ele>357.94</ele>
  <time>2026-09-01T19:51:00Z</time>
  <course>113.89</course>
  <speed>0.7788452991448301</speed>
  <fix>3d</fix>
</trkpt>
<trkpt lat="-27.2744079" lon="151.2900814">
  <ele>358.13</ele>
  <time>2026-09-01T19:51:00Z</time>
  <course>195.87</course>
  <speed>0.73</speed>
  <fix>3d</fix>
</trkpt>
<trkpt lat="-27.2744103" lon="151.2900808">
  <ele>357.94</ele>
  <time>2026-09-01T19:51:00Z</time>
  <course>112.73</course>
  <speed>0.8104319835741924</speed>
  <fix>3d</fix>
</trkpt>
<trkpt lat="-27.2744093" lon="151.2900809">
  <ele>358.13</ele>
  <time>2026-09-01T19:51:00Z</time>
  <course>196.61</course>
  <speed>0.8</speed>
  <fix>3d</fix>
</trkpt>
<trkpt lat="-27.274411" lon="151.2900805">
  <ele>357.94</ele>
  <time>2026-09-01T19:51:00Z</time>
  <course>111.16</course>
  <speed>0.8420213774008353</speed>
  <fix>3d</fix>
</trkpt>
<trkpt lat="-27.2744093" lon="151.2900809">
  <ele>358.13</ele>
  <time>2026-09-01T19:51:00Z</time>
  <course>196.61</course>
  <speed>0.8</speed>
  <fix>3d</fix>
</trkpt>
<trkpt lat="-27.2744118" lon="151.2900802">
  <ele>357.94</ele>
  <time>2026-09-01T19:51:00Z</time>
  <course>109.43</course>
  <speed>0.8640023148117139</speed>
  <fix>3d</fix>
</trkpt>
<trkpt lat="-27.2744107" lon="151.2900804">
  <ele>358.13</ele>
  <time>2026-09-01T19:51:00Z</time>
  <course>196.91</course>
  <speed>0.86</speed>
  <fix>3d</fix>
</trkpt>
<trkpt lat="-27.2744126" lon="151.29008">
  <ele>357.94</ele>
  <time>2026-09-01T19:51:00Z</time>
  <course>107.73</course>
  <speed>0.8956003573022958</speed>
  <fix>3d</fix>
</trkpt>
<trkpt lat="-27.2744107" lon="151.2900804">
  <ele>358.13</ele>
  <time>2026-09-01T19:51:00Z</time>
  <course>196.91</course>
  <speed>0.86</speed>
  <fix>3d</fix>
</trkpt>
<trkpt lat="-27.2744134" lon="151.2900797">
  <ele>357.94</ele>
  <time>2026-09-01T19:51:00Z</time>
  <course>106.2</course>
  <speed>0.9148223871331527</speed>
  <fix>3d</fix>
</trkpt>
<trkpt lat="-27.2744123" lon="151.2900799">
  <ele>358.13</ele>
  <time>2026-09-01T19:51:00Z</time>
  <course>197.03</course>
  <speed>0.91</speed>
  <fix>3d</fix>
</trkpt>
<trkpt lat="-27.2744142" lon="151.2900794">
  <ele>357.94</ele>
  <time>2026-09-01T19:51:00Z</time>
  <course>104.97</course>
  <speed>0.9411163583744573</speed>
  <fix>3d</fix>
</trkpt>
<trkpt lat="-27.2744123" lon="151.2900799">
  <ele>358.13</ele>
  <time>2026-09-01T19:51:00Z</time>
  <course>197.03</course>
  <speed>0.91</speed>
  <fix>3d</fix>
</trkpt>
<trkpt lat="-27.2744151" lon="151.2900791">
  <ele>357.94</ele>
  <time>2026-09-01T19:51:00Z</time>
  <course>104.13</course>
  <speed>0.9654014708917736</speed>
  <fix>3d</fix>
</trkpt>
<trkpt lat="-27.2744139" lon="151.2900794">
  <ele>358.13</ele>
  <time>2026-09-01T19:51:00Z</time>
  <course>196.46</course>
  <speed>0.96</speed>
  <fix>3d</fix>
</trkpt>
<trkpt lat="-27.274416" lon="151.2900789">
  <ele>357.94</ele>
  <time>2026-09-01T19:51:00Z</time>
  <course>103.51</course>
  <speed>0.9848857801796105</speed>
  <fix>3d</fix>
</trkpt>
<trkpt lat="-27.2744139" lon="151.2900794">
  <ele>358.13</ele>
  <time>2026-09-01T19:51:00Z</time>
  <course>196.46</course>
  <speed>0.96</speed>
  <fix>3d</fix>
</trkpt>
<trkpt lat="-27.2744169" lon="151.2900787">
  <ele>357.94</ele>
  <time>2026-09-01T19:51:00Z</time>
  <course>102.23</course>
  <speed>1.000199980003999</speed>
  <fix>3d</fix>
</trkpt>
<trkpt lat="-27.2744156" lon="151.2900788">
  <ele>358.12</ele>
  <time>2026-09-01T19:51:00Z</time>
  <course>194.91</course>
  <speed>1.01</speed>
  <fix>3d</fix>
</trkpt>
<trkpt lat="-27.2744178" lon="151.2900784">
  <ele>357.93</ele>
  <time>2026-09-01T19:51:00Z</time>
  <course>100.11</course>
  <speed>1.0242070103255494</speed>
  <fix>3d</fix>
</trkpt>
<trkpt lat="-27.2744156" lon="151.2900788">
  <ele>358.12</ele>
  <time>2026-09-01T19:51:00Z</time>
  <course>194.91</course>
  <speed>1.01</speed>
  <fix>3d</fix>
</trkpt>
<trkpt lat="-27.2744188" lon="151.2900783">
  <ele>357.93</ele>
  <time>2026-09-01T19:51:00Z</time>
  <course>97.33</course>
  <speed>1.035857133006285</speed>
  <fix>3d</fix>
</trkpt>
<trkpt lat="-27.2744174" lon="151.2900783">
  <ele>358.12</ele>
  <time>2026-09-01T19:51:00Z</time>
  <course>192.31</course>
  <speed>1.04</speed>
  <fix>3d</fix>
</trkpt>
<trkpt lat="-27.2744197" lon="151.2900782">
  <ele>357.93</ele>
  <time>2026-09-01T19:51:00Z</time>
  <course>94.16</course>
  <speed>1.061178590059185</speed>
  <fix>3d</fix>
</trkpt>
<trkpt lat="-27.2744174" lon="151.2900783">
  <ele>358.12</ele>
  <time>2026-09-01T19:51:00Z</time>
  <course>192.31</course>
  <speed>1.04</speed>
  <fix>3d</fix>
</trkpt>
<trkpt lat="-27.2744207" lon="151.2900781">
  <ele>357.92</ele>
  <time>2026-09-01T19:51:00Z</time>
  <course>90.7</course>
  <speed>1.07</speed>
  <fix>3d</fix>
</trkpt>
<trkpt lat="-27.2744192" lon="151.2900779">
  <ele>358.11</ele>
  <time>2026-09-01T19:51:00Z</time>
  <course>187.69</course>
  <speed>1.08</speed>
  <fix>3d</fix>
</trkpt>
<trkpt lat="-27.2744217" lon="151.2900781">
  <ele>357.92</ele>
  <time>2026-09-01T19:51:00Z</time>
  <course>87.1</course>
  <speed>1.0916501271011696</speed>
  <fix>3d</fix>
</trkpt>
<trkpt lat="-27.2744192" lon="151.2900779">
  <ele>358.11</ele>
  <time>2026-09-01T19:51:00Z</time>
  <course>187.69</course>
  <speed>1.08</speed>
  <fix>3d</fix>
</trkpt>
<trkpt lat="-27.2744227" lon="151.2900782">
  <ele>357.92</ele>
  <time>2026-09-01T19:51:00Z</time>
  <course>83.43</course>
  <speed>1.0965856099730653</speed>
  <fix>3d</fix>
</trkpt>
<trkpt lat="-27.2744212" lon="151.2900778">
  <ele>358.11</ele>
  <time>2026-09-01T19:51:00Z</time>
  <course>181.53</course>
  <speed>1.11</speed>
  <fix>3d</fix>
</trkpt>
<trkpt lat="-27.2744238" lon="151.2900783">
  <ele>357.92</ele>
  <time>2026-09-01T19:51:01Z</time>
  <course>79.7</course>
  <speed>1.1064357188738982</speed>
  <fix>3d</fix>
</trkpt>
<trkpt lat="-27.2744212" lon="151.2900778">
  <ele>358.11</ele>
  <time>2026-09-01T19:51:01Z</time>
  <course>181.53</course>
  <speed>1.11</speed>
  <fix>3d</fix>
</trkpt>
<trkpt lat="-27.2744248" lon="151.2900785">
  <ele>357.92</ele>
  <time>2026-09-01T19:51:01Z</time>
  <course>75.98</course>
  <speed>1.1183022847155415</speed>
  <fix>3d</fix>
</trkpt>
<trkpt lat="-27.2744232" lon="151.2900778">
  <ele>358.11</ele>
  <time>2026-09-01T19:51:01Z</time>
  <course>175.15</course>
  <speed>1.13</speed>
  <fix>3d</fix>
</trkpt>
<trkpt lat="-27.2744258" lon="151.2900787">
  <ele>357.93</ele>
  <time>2026-09-01T19:51:01Z</time>
  <course>72.28</course>
  <speed>1.1140017953306898</speed>
  <fix>3d</fix>
</trkpt>
<trkpt lat="-27.2744232" lon="151.2900778">
  <ele>358.11</ele>
  <time>2026-09-01T19:51:01Z</time>
  <course>175.15</course>
  <speed>1.13</speed>
  <fix>3d</fix>
</trkpt>
<trkpt lat="-27.2744268" lon="151.290079">
  <ele>357.93</ele>
  <time>2026-09-01T19:51:01Z</time>
  <course>69.23</course>
  <speed>1.1227199116431488</speed>
  <fix>3d</fix>
</trkpt>
<trkpt lat="-27.2744253" lon="151.2900781">
  <ele>358.11</ele>
  <time>2026-09-01T19:51:01Z</time>
  <course>168.8</course>
  <speed>1.14</speed>
  <fix>3d</fix>
</trkpt>
<trkpt lat="-27.2744277" lon="151.2900793">
  <ele>357.93</ele>
  <time>2026-09-01T19:51:01Z</time>
  <course>67.67</course>
  <speed>1.1216059914247962</speed>
  <fix>3d</fix>
</trkpt>
<trkpt lat="-27.2744253" lon="151.2900781">
  <ele>358.11</ele>
  <time>2026-09-01T19:51:01Z</time>
  <course>168.8</course>
  <speed>1.14</speed>
  <fix>3d</fix>
</trkpt>
<trkpt lat="-27.2744287" lon="151.2900797">
  <ele>357.93</ele>
  <time>2026-09-01T19:51:01Z</time>
  <course>67.5</course>
  <speed>1.120044641967453</speed>
  <fix>3d</fix>
</trkpt>
<trkpt lat="-27.2744273" lon="151.2900786">
  <ele>358.11</ele>
  <time>2026-09-01T19:51:01Z</time>
  <course>162.77</course>
  <speed>1.15</speed>
  <fix>3d</fix>
</trkpt>
<trkpt lat="-27.2744297" lon="151.2900801">
  <ele>357.94</ele>
  <time>2026-09-01T19:51:01Z</time>
  <course>68.38</course>
  <speed>1.1069326989478627</speed>
  <fix>3d</fix>
</trkpt>
<trkpt lat="-27.2744273" lon="151.2900786">
  <ele>358.11</ele>
  <time>2026-09-01T19:51:01Z</time>
  <course>162.77</course>
  <speed>1.15</speed>
  <fix>3d</fix>
</trkpt>
<trkpt lat="-27.2744306" lon="151.2900805">
  <ele>357.94</ele>
  <time>2026-09-01T19:51:01Z</time>
  <course>69.91</course>
  <speed>1.099317970379817</speed>
  <fix>3d</fix>
</trkpt>
<trkpt lat="-27.2744292" lon="151.2900794">
  <ele>358.11</ele>
  <time>2026-09-01T19:51:01Z</time>
  <course>159.3</course>
  <speed>1.14</speed>
  <fix>3d</fix>
</trkpt>
<trkpt lat="-27.2744316" lon="151.2900809">
  <ele>357.94</ele>
  <time>2026-09-01T19:51:01Z</time>
  <course>71.75</course>
  <speed>1.0920164833920778</speed>
  <fix>3d</fix>
</trkpt>
<trkpt lat="-27.2744292" lon="151.2900794">
  <ele>358.11</ele>
  <time>2026-09-01T19:51:01Z</time>
  <course>159.3</course>
  <speed>1.14</speed>
  <fix>3d</fix>
</trkpt>
<trkpt lat="-27.2744325" lon="151.2900812">
  <ele>357.95</ele>
  <time>2026-09-01T19:51:01Z</time>
  <course>73.61</course>
  <speed>1.0850345616615167</speed>
  <fix>3d</fix>
</trkpt>
<trkpt lat="-27.2744311" lon="151.2900801">
  <ele>358.12</ele>
  <time>2026-09-01T19:51:01Z</time>
  <course>159.46</course>
  <speed>1.13</speed>
  <fix>3d</fix>
</trkpt>
<trkpt lat="-27.2744335" lon="151.2900816">
  <ele>357.95</ele>
  <time>2026-09-01T19:51:01Z</time>
  <course>75.24</course>
  <speed>1.0816653826391969</speed>
  <fix>3d</fix>
</trkpt>
<trkpt lat="-27.2744311" lon="151.2900801">
  <ele>358.12</ele>
  <time>2026-09-01T19:51:01Z</time>
  <course>159.46</course>
  <speed>1.13</speed>
  <fix>3d</fix>
</trkpt>
<trkpt lat="-27.2744345" lon="151.2900819">
  <ele>357.96</ele>
  <time>2026-09-01T19:51:01Z</time>
  <course>76.46</course>
  <speed>1.075174404457249</speed>
  <fix>3d</fix>
</trkpt>
<trkpt lat="-27.274433" lon="151.2900809">
  <ele>358.13</ele>
  <time>2026-09-01T19:51:01Z</time>
  <course>161.04</course>
  <speed>1.12</speed>
  <fix>3d</fix>
</trkpt>
<trkpt lat="-27.2744354" lon="151.2900822">
  <ele>357.96</ele>
  <time>2026-09-01T19:51:01Z</time>
  <course>77.19</course>
  <speed>1.0690182411914213</speed>
  <fix>3d</fix>
</trkpt>
<trkpt lat="-27.274433" lon="151.2900809">
  <ele>358.13</ele>
  <time>2026-09-01T19:51:01Z</time>
  <course>161.04</course>
  <speed>1.12</speed>
  <fix>3d</fix>
</trkpt>
<trkpt lat="-27.2744364" lon="151.2900825">
  <ele>357.97</ele>
  <time>2026-09-01T19:51:01Z</time>
  <course>77.46</course>
  <speed>1.053612832116238</speed>
  <fix>3d</fix>
</trkpt>
<trkpt lat="-27.2744349" lon="151.2900817">
  <ele>358.14</ele>
  <time>2026-09-01T19:51:01Z</time>
  <course>162.63</course>
  <speed>1.1</speed>
  <fix>3d</fix>
</trkpt>
<trkpt lat="-27.2744373" lon="151.2900828">
  <ele>357.98</ele>
  <time>2026-09-01T19:51:01Z</time>
  <course>77.34</course>
  <speed>1.0508092119885513</speed>
  <fix>3d</fix>
</trkpt>
<trkpt lat="-27.2744349" lon="151.2900817">
  <ele>358.14</ele>
  <time>2026-09-01T19:51:01Z</time>
  <course>162.63</course>
  <speed>1.1</speed>
  <fix>3d</fix>
</trkpt>
<trkpt lat="-27.2744382" lon="151.290083">
  <ele>357.98</ele>
  <time>2026-09-01T19:51:01Z</time>
  <course>76.96</course>
  <speed>1.04546640309481</speed>
  <fix>3d</fix>
</trkpt>
<trkpt lat="-27.2744368" lon="151.2900824">
  <ele>358.16</ele>
  <time>2026-09-01T19:51:01Z</time>
  <course>164.16</course>
  <speed>1.09</speed>
  <fix>3d</fix>
</trkpt>
<trkpt lat="-27.2744392" lon="151.2900833">
  <ele>357.98</ele>
  <time>2026-09-01T19:51:01Z</time>
  <course>76.42</course>
  <speed>1.0307764064044151</speed>
  <fix>3d</fix>
</trkpt>
<trkpt lat="-27.2744368" lon="151.2900824">
  <ele>358.16</ele>
  <time>2026-09-01T19:51:01Z</time>
  <course>164.16</course>
  <speed>1.09</speed>
  <fix>3d</fix>
</trkpt>
<trkpt lat="-27.2744401" lon="151.2900835">
  <ele>357.98</ele>
  <time>2026-09-01T19:51:01Z</time>
  <course>75.84</course>
  <speed>1.0235721762533407</speed>
  <fix>3d</fix>
</trkpt>
<trkpt lat="-27.2744387" lon="151.2900829">
  <ele>358.17</ele>
  <time>2026-09-01T19:51:01Z</time>
  <course>165.71</course>
  <speed>1.07</speed>
  <fix>3d</fix>
</trkpt>
<trkpt lat="-27.274441" lon="151.2900838">
  <ele>357.98</ele>
  <time>2026-09-01T19:51:01Z</time>
  <course>75.63</course>
  <speed>1.0139033484509261</speed>
  <fix>3d</fix>
</trkpt>
<trkpt lat="-27.2744387" lon="151.2900829">
  <ele>358.17</ele>
  <time>2026-09-01T19:51:01Z</time>
  <course>165.71</course>
  <speed>1.07</speed>
  <fix>3d</fix>
</trkpt>
<trkpt lat="-27.2744419" lon="151.290084">
  <ele>357.97</ele>
  <time>2026-09-01T19:51:01Z</time>
  <course>76.64</course>
  <speed>0.9992497185388645</speed>
  <fix>3d</fix>
</trkpt>
<trkpt lat="-27.2744406" lon="151.2900834">
  <ele>358.17</ele>
  <time>2026-09-01T19:51:01Z</time>
  <course>166.27</course>
  <speed>1.05</speed>
  <fix>3d</fix>
</trkpt>
<trkpt lat="-27.2744428" lon="151.2900842">
  <ele>357.97</ele>
  <time>2026-09-01T19:51:01Z</time>
  <course>78.84</course>
  <speed>0.9946356116689167</speed>
  <fix>3d</fix>
</trkpt>
<trkpt lat="-27.2744406" lon="151.2900834">
  <ele>358.17</ele>
  <time>2026-09-01T19:51:01Z</time>
  <course>166.27</course>
  <speed>1.05</speed>
  <fix>3d</fix>
</trkpt>
<trkpt lat="-27.2744437" lon="151.2900844">
  <ele>357.97</ele>
  <time>2026-09-01T19:51:01Z</time>
  <course>81.92</course>
  <speed>0.980612053770501</speed>
  <fix>3d</fix>
</trkpt>
<trkpt lat="-27.2744425" lon="151.2900839">
  <ele>358.17</ele>
  <time>2026-09-01T19:51:01Z</time>
  <course>166.97</course>
  <speed>1.03</speed>
  <fix>3d</fix>
</trkpt>
<trkpt lat="-27.2744446" lon="151.2900846">
  <ele>357.98</ele>
  <time>2026-09-01T19:51:01Z</time>
  <course>85.53</course>
  <speed>0.9767292357659824</speed>
  <fix>3d</fix>
</trkpt>
<trkpt lat="-27.2744425" lon="151.2900839">
  <ele>358.17</ele>
  <time>2026-09-01T19:51:01Z</time>
  <course>166.97</course>
  <speed>1.03</speed>
  <fix>3d</fix>
</trkpt>
<trkpt lat="-27.2744455" lon="151.2900848">
  <ele>357.98</ele>
  <time>2026-09-01T19:51:01Z</time>
  <course>89.47</course>
  <speed>0.9633794683301072</speed>
  <fix>3d</fix>
</trkpt>
<trkpt lat="-27.2744443" lon="151.2900844">
  <ele>358.17</ele>
  <time>2026-09-01T19:51:01Z</time>
  <course>168.94</course>
  <speed>1.01</speed>
  <fix>3d</fix>
</trkpt>
<trkpt lat="-27.2744464" lon="151.2900849">
  <ele>357.98</ele>
  <time>2026-09-01T19:51:01Z</time>
  <course>93.6</course>
  <speed>0.960260381354974</speed>
  <fix>3d</fix>
</trkpt>
<trkpt lat="-27.2744443" lon="151.2900844">
  <ele>358.17</ele>
  <time>2026-09-01T19:51:01Z</time>
  <course>168.94</course>
  <speed>1.01</speed>
  <fix>3d</fix>
</trkpt>
<trkpt lat="-27.2744473" lon="151.290085">
  <ele>357.97</ele>
  <time>2026-09-01T19:51:01Z</time>
  <course>97.83</course>
  <speed>0.9588534820294495</speed>
  <fix>3d</fix>
</trkpt>
<trkpt lat="-27.274446" lon="151.2900847">
  <ele>358.17</ele>
  <time>2026-09-01T19:51:01Z</time>
  <course>170.96</course>
  <speed>0.99</speed>
  <fix>3d</fix>
</trkpt>
<trkpt lat="-27.2744482" lon="151.2900852">
  <ele>357.97</ele>
  <time>2026-09-01T19:51:01Z</time>
  <course>102.12</course>
  <speed>0.9464142856064675</speed>
  <fix>3d</fix>
</trkpt>
<trkpt lat="-27.274446" lon="151.2900847">
  <ele>358.17</ele>
  <time>2026-09-01T19:51:01Z</time>
  <course>170.96</course>
  <speed>0.99</speed>
  <fix>3d</fix>
</trkpt>
<trkpt lat="-27.2744491" lon="151.2900853">
  <ele>357.97</ele>
  <time>2026-09-01T19:51:01Z</time>
  <course>106.44</course>
  <speed>0.9442986815621421</speed>
  <fix>3d</fix>
</trkpt>
<trkpt lat="-27.2744478" lon="151.2900849">
  <ele>358.17</ele>
  <time>2026-09-01T19:51:01Z</time>
  <course>172.92</course>
  <speed>0.98</speed>
  <fix>3d</fix>
</trkpt>
<trkpt lat="-27.27445" lon="151.2900853">
  <ele>357.97</ele>
  <time>2026-09-01T19:51:01Z</time>
  <course>110.45</course>
  <speed>0.9433981132056605</speed>
  <fix>3d</fix>
</trkpt>
<trkpt lat="-27.2744478" lon="151.2900849">
  <ele>358.17</ele>
  <time>2026-09-01T19:51:01Z</time>
  <course>172.92</course>
  <speed>0.98</speed>
  <fix>3d</fix>
</trkpt>
<trkpt lat="-27.2744508" lon="151.2900854">
  <ele>357.97</ele>
  <time>2026-09-01T19:51:01Z</time>
  <course>113.21</course>
  <speed>0.931933474020544</speed>
  <fix>3d</fix>
</trkpt>
<trkpt lat="-27.2744495" lon="151.2900852">
  <ele>358.17</ele>
  <time>2026-09-01T19:51:01Z</time>
  <course>174.84</course>
  <speed>0.97</speed>
  <fix>3d</fix>
</trkpt>
<trkpt lat="-27.2744517" lon="151.2900854">
  <ele>357.97</ele>
  <time>2026-09-01T19:51:01Z</time>
  <course>114.51</course>
  <speed>0.930859817588019</speed>
  <fix>3d</fix>
</trkpt>
<trkpt lat="-27.2744495" lon="151.2900852">
  <ele>358.17</ele>
  <time>2026-09-01T19:51:01Z</time>
  <course>174.84</course>
  <speed>0.97</speed>
  <fix>3d</fix>
</trkpt>
<trkpt lat="-27.2744526" lon="151.2900855">
  <ele>357.97</ele>
  <time>2026-09-01T19:51:01Z</time>
  <course>114.57</course>
  <speed>0.9202173656261873</speed>
  <fix>3d</fix>
</trkpt>
<trkpt lat="-27.2744513" lon="151.2900853">
  <ele>358.16</ele>
  <time>2026-09-01T19:51:01Z</time>
  <course>176.78</course>
  <speed>0.96</speed>
  <fix>3d</fix>
</trkpt>
<trkpt lat="-27.2744534" lon="151.2900855">
  <ele>357.97</ele>
  <time>2026-09-01T19:51:01Z</time>
  <course>113.75</course>
  <speed>0.9100549433962765</speed>
  <fix>3d</fix>
</trkpt>
<trkpt lat="-27.2744513" lon="151.2900853">
  <ele>358.16</ele>
  <time>2026-09-01T19:51:01Z</time>
  <course>176.78</course>
  <speed>0.96</speed>
  <fix>3d</fix>
</trkpt>
<trkpt lat="-27.2744543" lon="151.2900855">
  <ele>357.97</ele>
  <time>2026-09-01T19:51:01Z</time>
  <course>112.37</course>
  <speed>0.9</speed>
  <fix>3d</fix>
</trkpt>
<trkpt lat="-27.274453" lon="151.2900854">
  <ele>358.16</ele>
  <time>2026-09-01T19:51:01Z</time>
  <course>178.84</course>
  <speed>0.94</speed>
  <fix>3d</fix>
</trkpt>
<trkpt lat="-27.2744551" lon="151.2900855">
  <ele>357.97</ele>
  <time>2026-09-01T19:51:01Z</time>
  <course>110.7</course>
  <speed>0.8802272433866155</speed>
  <fix>3d</fix>
</trkpt>
<trkpt lat="-27.274453" lon="151.2900854">
  <ele>358.16</ele>
  <time>2026-09-01T19:51:01Z</time>
  <course>178.84</course>
  <speed>0.94</speed>
  <fix>3d</fix>
</trkpt>
<trkpt lat="-27.2744559" lon="151.2900855">
  <ele>357.96</ele>
  <time>2026-09-01T19:51:01Z</time>
  <course>108.95</course>
  <speed>0.8709190547921202</speed>
  <fix>3d</fix>
</trkpt>
<trkpt lat="-27.2744547" lon="151.2900854">
  <ele>358.16</ele>
  <time>2026-09-01T19:51:01Z</time>
  <course>181.11</course>
  <speed>0.91</speed>
  <fix>3d</fix>
</trkpt>
<trkpt lat="-27.2744567" lon="151.2900854">
  <ele>357.96</ele>
  <time>2026-09-01T19:51:01Z</time>
  <course>107.3</course>
  <speed>0.8521150157109073</speed>
  <fix>3d</fix>
</trkpt>
<trkpt lat="-27.2744547" lon="151.2900854">
  <ele>358.16</ele>
  <time>2026-09-01T19:51:01Z</time>
  <course>181.11</course>
  <speed>0.91</speed>
  <fix>3d</fix>
</trkpt>
<trkpt lat="-27.2744575" lon="151.2900853">
  <ele>357.96</ele>
  <time>2026-09-01T19:51:01Z</time>
  <course>105.91</course>
  <speed>0.8338465086573187</speed>
  <fix>3d</fix>
</trkpt>
<trkpt lat="-27.2744563" lon="151.2900853">
  <ele>358.15</ele>
  <time>2026-09-01T19:51:01Z</time>
  <course>183.6</course>
  <speed>0.89</speed>
  <fix>3d</fix>
</trkpt>
<trkpt lat="-27.2744583" lon="151.2900852">
  <ele>357.96</ele>
  <time>2026-09-01T19:51:01Z</time>
  <course>104.91</course>
  <speed>0.8260750571225353</speed>
  <fix>3d</fix>
</trkpt>
<trkpt lat="-27.2744563" lon="151.2900853">
  <ele>358.15</ele>
  <time>2026-09-01T19:51:01Z</time>
  <course>183.6</course>
  <speed>0.89</speed>
  <fix>3d</fix>
</trkpt>
<trkpt lat="-27.274459" lon="151.2900851">
  <ele>357.95</ele>
  <time>2026-09-01T19:51:01Z</time>
  <course>104.13</course>
  <speed>0.8075270893288967</speed>
  <fix>3d</fix>
</trkpt>
<trkpt lat="-27.2744578" lon="151.2900852">
  <ele>358.15</ele>
  <time>2026-09-01T19:51:01Z</time>
  <course>186.28</course>
  <speed>0.85</speed>
  <fix>3d</fix>
</trkpt>
<trkpt lat="-27.2744597" lon="151.290085">
  <ele>357.95</ele>
  <time>2026-09-01T19:51:01Z</time>
  <course>102.86</course>
  <speed>0.7907591289387687</speed>
  <fix>3d</fix>
</trkpt>
<trkpt lat="-27.2744578" lon="151.2900852">
  <ele>358.15</ele>
  <time>2026-09-01T19:51:01Z</time>
  <course>186.28</course>
  <speed>0.85</speed>
  <fix>3d</fix>
</trkpt>
<trkpt lat="-27.2744604" lon="151.2900848">
  <ele>357.95</ele>
  <time>2026-09-01T19:51:01Z</time>
  <course>100.93</course>
  <speed>0.7727871634544663</speed>
  <fix>3d</fix>
</trkpt>
<trkpt lat="-27.2744593" lon="151.290085">
  <ele>358.15</ele>
  <time>2026-09-01T19:51:01Z</time>
  <course>189.14</course>
  <speed>0.82</speed>
  <fix>3d</fix>
</trkpt>
<trkpt lat="-27.2744611" lon="151.2900847">
  <ele>357.95</ele>
  <time>2026-09-01T19:51:01Z</time>
  <course>98.44</course>
  <speed>0.7566372975210779</speed>
  <fix>3d</fix>
</trkpt>
<trkpt lat="-27.2744593" lon="151.290085">
  <ele>358.15</ele>
  <time>2026-09-01T19:51:01Z</time>
  <course>189.14</course>
  <speed>0.82</speed>
  <fix>3d</fix>
</trkpt>
<trkpt lat="-27.2744618" lon="151.2900846">
  <ele>357.95</ele>
  <time>2026-09-01T19:51:01Z</time>
  <course>95.6</course>
  <speed>0.7424284477308234</speed>
  <fix>3d</fix>
</trkpt>
<trkpt lat="-27.2744608" lon="151.2900847">
  <ele>358.15</ele>
  <time>2026-09-01T19:51:01Z</time>
  <course>189.85</course>
  <speed>0.79</speed>
  <fix>3d</fix>
</trkpt>
<trkpt lat="-27.2744625" lon="151.2900846">
  <ele>357.95</ele>
  <time>2026-09-01T19:51:01Z</time>
  <course>92.53</course>
  <speed>0.7202777242147643</speed>
  <fix>3d</fix>
</trkpt>
<trkpt lat="-27.2744608" lon="151.2900847">
  <ele>358.15</ele>
  <time>2026-09-01T19:51:01Z</time>
  <course>189.85</course>
  <speed>0.79</speed>
  <fix>3d</fix>
</trkpt>
<trkpt lat="-27.2744632" lon="151.2900845">
  <ele>357.95</ele>
  <time>2026-09-01T19:51:01Z</time>
  <course>89.3</course>
  <speed>0.7000714249274855</speed>
  <fix>3d</fix>
</trkpt>
<trkpt lat="-27.2744622" lon="151.2900845">
  <ele>358.15</ele>
  <time>2026-09-01T19:51:01Z</time>
  <course>186.16</course>
  <speed>0.75</speed>
  <fix>3d</fix>
</trkpt>
<trkpt lat="-27.2744638" lon="151.2900846">
  <ele>357.96</ele>
  <time>2026-09-01T19:51:01Z</time>
  <course>85.97</course>
  <speed>0.6818357573492314</speed>
  <fix>3d</fix>
</trkpt>
<trkpt lat="-27.2744622" lon="151.2900845">
  <ele>358.15</ele>
  <time>2026-09-01T19:51:01Z</time>
  <course>186.16</course>
  <speed>0.75</speed>
  <fix>3d</fix>
</trkpt>
<trkpt lat="-27.2744645" lon="151.2900846">
  <ele>357.96</ele>
  <time>2026-09-01T19:51:01Z</time>
  <course>82.57</course>
  <speed>0.6661080993352355</speed>
  <fix>3d</fix>
</trkpt>
<trkpt lat="-27.2744635" lon="151.2900845">
  <ele>358.15</ele>
  <time>2026-09-01T19:51:01Z</time>
  <course>180.0</course>
  <speed>0.72</speed>
  <fix>3d</fix>
</trkpt>
<trkpt lat="-27.2744651" lon="151.2900847">
  <ele>357.96</ele>
  <time>2026-09-01T19:51:01Z</time>
  <course>79.13</course>
  <speed>0.6413267497929586</speed>
  <fix>3d</fix>
</trkpt>
<trkpt lat="-27.2744635" lon="151.2900845">
  <ele>358.15</ele>
  <time>2026-09-01T19:51:01Z</time>
  <course>180.0</course>
  <speed>0.72</speed>
  <fix>3d</fix>
</trkpt>
<trkpt lat="-27.2744656" lon="151.2900848">
  <ele>357.96</ele>
  <time>2026-09-01T19:51:01Z</time>
  <course>75.65</course>
  <speed>0.6184658438426491</speed>
  <fix>3d</fix>
</trkpt>
<trkpt lat="-27.2744647" lon="151.2900845">
  <ele>358.15</ele>
  <time>2026-09-01T19:51:01Z</time>
  <course>173.7</course>
  <speed>0.68</speed>
  <fix>3d</fix>
</trkpt>
<trkpt lat="-27.2744662" lon="151.2900849">
  <ele>357.96</ele>
  <time>2026-09-01T19:51:01Z</time>
  <course>72.21</course>
  <speed>0.5948108943185221</speed>
  <fix>3d</fix>
</trkpt>
<trkpt lat="-27.2744647" lon="151.2900845">
  <ele>358.15</ele>
  <time>2026-09-01T19:51:01Z</time>
  <course>173.7</course>
  <speed>0.68</speed>
  <fix>3d</fix>
</trkpt>
<trkpt lat="-27.2744667" lon="151.2900851">
  <ele>357.96</ele>
  <time>2026-09-01T19:51:01Z</time>
  <course>69.51</course>
  <speed>0.5724508712544685</speed>
  <fix>3d</fix>
</trkpt>
<trkpt lat="-27.2744659" lon="151.2900847">
  <ele>358.16</ele>
  <time>2026-09-01T19:51:01Z</time>
  <course>167.78</course>
  <speed>0.63</speed>
  <fix>3d</fix>
</trkpt>
<trkpt lat="-27.2744672" lon="151.2900853">
  <ele>357.96</ele>
  <time>2026-09-01T19:51:01Z</time>
  <course>68.03</course>
  <speed>0.5478138369920935</speed>
  <fix>3d</fix>
</trkpt>
<trkpt lat="-27.2744659" lon="151.2900847">
  <ele>358.16</ele>
  <time>2026-09-01T19:51:01Z</time>
  <course>167.78</course>
  <speed>0.63</speed>
  <fix>3d</fix>
</trkpt>
<trkpt lat="-27.2744676" lon="151.2900855">
  <ele>357.97</ele>
  <time>2026-09-01T19:51:01Z</time>
  <course>67.72</course>
  <speed>0.5107837115648853</speed>
  <fix>3d</fix>
</trkpt>
<trkpt lat="-27.274467" lon="151.2900849">
  <ele>358.16</ele>
  <time>2026-09-01T19:51:01Z</time>
  <course>162.63</course>
  <speed>0.58</speed>
  <fix>3d</fix>
</trkpt>
<trkpt lat="-27.2744681" lon="151.2900857">
  <ele>357.97</ele>
  <time>2026-09-01T19:51:01Z</time>
  <course>68.29</course>
  <speed>0.47927027865287036</speed>
  <fix>3d</fix>
</trkpt>
<trkpt lat="-27.274467" lon="151.2900849">
  <ele>358.16</ele>
  <time>2026-09-01T19:51:01Z</time>
  <course>162.63</course>
  <speed>0.58</speed>
  <fix>3d</fix>
</trkpt>
<trkpt lat="-27.2744685" lon="151.2900858">
  <ele>357.97</ele>
  <time>2026-09-01T19:51:01Z</time>
  <course>69.47</course>
  <speed>0.45310043036836767</speed>
  <fix>3d</fix>
</trkpt>
<trkpt lat="-27.2744679" lon="151.2900854">
  <ele>358.16</ele>
  <time>2026-09-01T19:51:01Z</time>
  <course>159.61</course>
  <speed>0.52</speed>
  <fix>3d</fix>
</trkpt>
<trkpt lat="-27.2744689" lon="151.290086">
  <ele>357.97</ele>
  <time>2026-09-01T19:51:01Z</time>
  <course>70.99</course>
  <speed>0.4215447781671598</speed>
  <fix>3d</fix>
</trkpt>
<trkpt lat="-27.2744679" lon="151.2900854">
  <ele>358.16</ele>
  <time>2026-09-01T19:51:01Z</time>
  <course>159.61</course>
  <speed>0.52</speed>
  <fix>3d</fix>
</trkpt>
<trkpt lat="-27.2744692" lon="151.2900861">
  <ele>357.97</ele>
  <time>2026-09-01T19:51:01Z</time>
  <course>72.62</course>
  <speed>0.38626415831655936</speed>
  <fix>3d</fix>
</trkpt>
<trkpt lat="-27.2744688" lon="151.2900857">
  <ele>358.16</ele>
  <time>2026-09-01T19:51:01Z</time>
  <course>159.64</course>
  <speed>0.46</speed>
  <fix>3d</fix>
</trkpt>
<trkpt lat="-27.2744696" lon="151.2900862">
  <ele>357.97</ele>
  <time>2026-09-01T19:51:01Z</time>
  <course>74.16</course>
  <speed>0.35114099732158877</speed>
  <fix>3d</fix>
</trkpt>
<trkpt lat="-27.2744688" lon="151.2900857">
  <ele>358.16</ele>
  <time>2026-09-01T19:51:01Z</time>
  <course>159.64</course>
  <speed>0.46</speed>
  <fix>3d</fix>
</trkpt>
<trkpt lat="-27.2744699" lon="151.2900863">
  <ele>357.97</ele>
  <time>2026-09-01T19:51:01Z</time>
  <course>75.42</course>
  <speed>0.31622776601683794</speed>
  <fix>3d</fix>
</trkpt>
<trkpt lat="-27.2744695" lon="151.2900859">
  <ele>358.16</ele>
  <time>2026-09-01T19:51:01Z</time>
  <course>161.52</course>
  <speed>0.4</speed>
  <fix>3d</fix>
</trkpt>
<trkpt lat="-27.2744701" lon="151.2900864">
  <ele>357.96</ele>
  <time>2026-09-01T19:51:01Z</time>
  <course>76.29</course>
  <speed>0.2816025568065745</speed>
  <fix>3d</fix>
</trkpt>
<trkpt lat="-27.2744695" lon="151.2900859">
  <ele>358.16</ele>
  <time>2026-09-01T19:51:01Z</time>
  <course>161.52</course>
  <speed>0.4</speed>
  <fix>3d</fix>
</trkpt>
<trkpt lat="-27.2744704" lon="151.2900865">
  <ele>357.96</ele>
  <time>2026-09-01T19:51:01Z</time>
  <course>76.73</course>
  <speed>0.24738633753705963</speed>
  <fix>3d</fix>
</trkpt>
<trkpt lat="-27.2744701" lon="151.2900862">
  <ele>358.15</ele>
  <time>2026-09-01T19:51:01Z</time>
  <course>164.4</course>
  <speed>0.33</speed>
  <fix>3d</fix>
</trkpt>
<trkpt lat="-27.2744706" lon="151.2900865">
  <ele>357.96</ele>
  <time>2026-09-01T19:51:01Z</time>
  <course>76.75</course>
  <speed>0.21377558326431947</speed>
  <fix>3d</fix>
</trkpt>
<trkpt lat="-27.2744701" lon="151.2900862">
  <ele>358.15</ele>
  <time>2026-09-01T19:51:01Z</time>
  <course>164.4</course>
  <speed>0.33</speed>
  <fix>3d</fix>
</trkpt>
<trkpt lat="-27.2744708" lon="151.2900865">
  <ele>357.96</ele>
  <time>2026-09-01T19:51:01Z</time>
  <course>76.44</course>
  <speed>0.18110770276274835</speed>
  <fix>3d</fix>
</trkpt>
<trkpt lat="-27.2744706" lon="151.2900863">
  <ele>358.14</ele>
  <time>2026-09-01T19:51:01Z</time>
  <course>168.94</course>
  <speed>0.26</speed>
  <fix>3d</fix>
</trkpt>
<trkpt lat="-27.274471" lon="151.2900865">
  <ele>357.96</ele>
  <time>2026-09-01T19:51:01Z</time>
  <course>76.08</course>
  <speed>0.15</speed>
  <fix>3d</fix>
</trkpt>
<trkpt lat="-27.2744706" lon="151.2900863">
  <ele>358.14</ele>
  <time>2026-09-01T19:51:01Z</time>
  <course>168.94</course>
  <speed>0.26</speed>
  <fix>3d</fix>
</trkpt>
<trkpt lat="-27.2744711" lon="151.2900865">
  <ele>357.96</ele>
  <time>2026-09-01T19:51:01Z</time>
  <course>76.5</course>
  <speed>0.130384048104053</speed>
  <fix>3d</fix>
</trkpt>
<trkpt lat="-27.2744711" lon="151.2900864">
  <ele>358.14</ele>
  <time>2026-09-01T19:51:01Z</time>
  <course>176.36</course>
  <speed>0.2</speed>
  <fix>3d</fix>
</trkpt>
<trkpt lat="-27.2744713" lon="151.2900865">
  <ele>357.96</ele>
  <time>2026-09-01T19:51:01Z</time>
  <course>77.87</course>
  <speed>0.1044030650891055</speed>
  <fix>3d</fix>
</trkpt>
<trkpt lat="-27.2744711" lon="151.2900864">
  <ele>358.14</ele>
  <time>2026-09-01T19:51:01Z</time>
  <course>176.36</course>
  <speed>0.2</speed>
  <fix>3d</fix>
</trkpt>
<trkpt lat="-27.2744714" lon="151.2900865">
  <ele>357.96</ele>
  <time>2026-09-01T19:51:01Z</time>
  <course>80.02</course>
  <speed>0.08602325267042626</speed>
  <fix>3d</fix>
</trkpt>
<trkpt lat="-27.2744713" lon="151.2900864">
  <ele>358.13</ele>
  <time>2026-09-01T19:51:01Z</time>
  <course>189.87</course>
  <speed>0.14</speed>
  <fix>3d</fix>
</trkpt>
<trkpt lat="-27.2744714" lon="151.2900864">
  <ele>357.95</ele>
  <time>2026-09-01T19:51:01Z</time>
  <course>82.7</course>
  <speed>0.08062257748298549</speed>
  <fix>3d</fix>
</trkpt>
<trkpt lat="-27.2744713" lon="151.2900864">
  <ele>358.13</ele>
  <time>2026-09-01T19:51:01Z</time>
  <course>189.87</course>
  <speed>0.14</speed>
  <fix>3d</fix>
</trkpt>
<trkpt lat="-27.2744715" lon="151.2900863">
  <ele>357.95</ele>
  <time>2026-09-01T19:51:01Z</time>
  <course>85.74</course>
  <speed>0.09055385138137417</speed>
  <fix>3d</fix>
</trkpt>
<trkpt lat="-27.2744716" lon="151.2900863">
  <ele>358.13</ele>
  <time>2026-09-01T19:51:01Z</time>
  <course>216.14</course>
  <speed>0.11</speed>
  <fix>3d</fix>
</trkpt>
<trkpt lat="-27.2744715" lon="151.2900862">
  <ele>357.95</ele>
  <time>2026-09-01T19:51:01Z</time>
  <course>89.01</course>
  <speed>0.11045361017187261</speed>
  <fix>3d</fix>
</trkpt>
<trkpt lat="-27.2744716" lon="151.2900863">
  <ele>358.13</ele>
  <time>2026-09-01T19:51:01Z</time>
  <course>216.14</course>
  <speed>0.11</speed>
  <fix>3d</fix>
</trkpt>
<trkpt lat="-27.2744715" lon="151.2900861">
  <ele>357.95</ele>
  <time>2026-09-01T19:51:01Z</time>
  <course>92.42</course>
  <speed>0.12369316876852982</speed>
  <fix>3d</fix>
</trkpt>
<trkpt lat="-27.2744717" lon="151.2900862">
  <ele>358.13</ele>
  <time>2026-09-01T19:51:01Z</time>
  <course>252.98</course>
  <speed>0.1</speed>
  <fix>3d</fix>
</trkpt>
<trkpt lat="-27.2744715" lon="151.2900859">
  <ele>357.95</ele>
  <time>2026-09-01T19:51:01Z</time>
  <course>95.91</course>
  <speed>0.15231546211727817</speed>
  <fix>3d</fix>
</trkpt>
<trkpt lat="-27.2744717" lon="151.2900862">
  <ele>358.13</ele>
  <time>2026-09-01T19:51:01Z</time>
  <course>252.98</course>
  <speed>0.1</speed>
  <fix>3d</fix>
</trkpt>
<trkpt lat="-27.2744714" lon="151.2900858">
  <ele>357.95</ele>
  <time>2026-09-01T19:51:01Z</time>
  <course>99.43</course>
  <speed>0.1835755975068582</speed>
  <fix>3d</fix>
</trkpt>
<trkpt lat="-27.2744717" lon="151.290086">
  <ele>358.13</ele>
  <time>2026-09-01T19:51:01Z</time>
  <course>279.23</course>
  <speed>0.14</speed>
  <fix>3d</fix>
</trkpt>
<trkpt lat="-27.2744714" lon="151.2900856">
  <ele>357.95</ele>
  <time>2026-09-01T19:51:01Z</time>
  <course>102.98</course>
  <speed>0.2109502310972899</speed>
  <fix>3d</fix>
</trkpt>
<trkpt lat="-27.2744717" lon="151.290086">
  <ele>358.13</ele>
  <time>2026-09-01T19:51:01Z</time>
  <course>279.23</course>
  <speed>0.14</speed>
  <fix>3d</fix>
</trkpt>
<trkpt lat="-27.2744713" lon="151.2900854">
  <ele>357.95</ele>
  <time>2026-09-01T19:51:01Z</time>
  <course>106.52</course>
  <speed>0.23600847442411893</speed>
  <fix>3d</fix>
</trkpt>
<trkpt lat="-27.2744717" lon="151.2900857">
  <ele>358.13</ele>
  <time>2026-09-01T19:51:01Z</time>
  <course>292.98</course>
  <speed>0.19</speed>
  <fix>3d</fix>
</trkpt>
<trkpt lat="-27.2744712" lon="151.2900852">
  <ele>357.95</ele>
  <time>2026-09-01T19:51:01Z</time>
  <course>109.6</course>
  <speed>0.2640075756488817</speed>
  <fix>3d</fix>
</trkpt>
<trkpt lat="-27.2744717" lon="151.2900857">
  <ele>358.13</ele>
  <time>2026-09-01T19:51:01Z</time>
  <course>292.98</course>
  <speed>0.19</speed>
  <fix>3d</fix>
</trkpt>
<trkpt lat="-27.2744711" lon="151.290085">
  <ele>357.95</ele>
  <time>2026-09-01T19:51:01Z</time>
  <course>111.51</course>
  <speed>0.2842534080710379</speed>
  <fix>3d</fix>
</trkpt>
<trkpt lat="-27.2744715" lon="151.2900852">
  <ele>358.13</ele>
  <time>2026-09-01T19:51:01Z</time>
  <course>300.73</course>
  <speed>0.24</speed>
  <fix>3d</fix>
</trkpt>
<trkpt lat="-27.2744709" lon="151.2900847">
  <ele>357.95</ele>
  <time>2026-09-01T19:51:01Z</time>
  <course>112.14</course>
  <speed>0.31144823004794875</speed>
  <fix>3d</fix>
</trkpt>
<trkpt lat="-27.2744715" lon="151.2900852">
  <ele>358.13</ele>
  <time>2026-09-01T19:51:01Z</time>
  <course>300.73</course>
  <speed>0.24</speed>
  <fix>3d</fix>
</trkpt>
<trkpt lat="-27.2744707" lon="151.2900845">
  <ele>357.95</ele>
  <time>2026-09-01T19:51:01Z</time>
  <course>111.72</course>
  <speed>0.33241540277189324</speed>
  <fix>3d</fix>
</trkpt>
<trkpt lat="-27.2744712" lon="151.2900848">
  <ele>358.14</ele>
  <time>2026-09-01T19:51:01Z</time>
  <course>305.69</course>
  <speed>0.3</speed>
  <fix>3d</fix>
</trkpt>
<trkpt lat="-27.2744705" lon="151.2900842">
  <ele>357.95</ele>
  <time>2026-09-01T19:51:01Z</time>
  <course>110.54</course>
  <speed>0.3535533905932738</speed>
  <fix>3d</fix>
</trkpt>
<trkpt lat="-27.2744712" lon="151.2900848">
  <ele>358.14</ele>
  <time>2026-09-01T19:51:01Z</time>
  <course>305.69</course>
  <speed>0.3</speed>
  <fix>3d</fix>
</trkpt>
<trkpt lat="-27.2744703" lon="151.2900839">
  <ele>357.96</ele>
  <time>2026-09-01T19:51:01Z</time>
  <course>108.91</course>
  <speed>0.37483329627982626</speed>
  <fix>3d</fix>
</trkpt>
<trkpt lat="-27.2744709" lon="151.2900843">
  <ele>358.14</ele>
  <time>2026-09-01T19:51:01Z</time>
  <course>309.25</course>
  <speed>0.34</speed>
  <fix>3d</fix>
</trkpt>
<trkpt lat="-27.2744701" lon="151.2900836">
  <ele>357.96</ele>
  <time>2026-09-01T19:51:01Z</time>
  <course>107.08</course>
  <speed>0.382099463490856</speed>
  <fix>3d</fix>
</trkpt>
<trkpt lat="-27.2744709" lon="151.2900843">
  <ele>358.14</ele>
  <time>2026-09-01T19:51:01Z</time>
  <course>309.25</course>
  <speed>0.34</speed>
  <fix>3d</fix>
</trkpt>
<trkpt lat="-27.2744699" lon="151.2900834">
  <ele>357.96</ele>
  <time>2026-09-01T19:51:01Z</time>
  <course>105.33</course>
  <speed>0.40360872141221127</speed>
  <fix>3d</fix>
</trkpt>
<trkpt lat="-27.2744705" lon="151.2900837">
  <ele>358.14</ele>
  <time>2026-09-01T19:51:01Z</time>
  <course>312.17</course>
  <speed>0.38</speed>
  <fix>3d</fix>
</trkpt>
<trkpt lat="-27.2744696" lon="151.2900831">
  <ele>357.96</ele>
  <time>2026-09-01T19:51:01Z</time>
  <course>103.84</course>
  <speed>0.4186884283091664</speed>
  <fix>3d</fix>
</trkpt>
<trkpt lat="-27.2744705" lon="151.2900837">
  <ele>358.14</ele>
  <time>2026-09-01T19:51:01Z</time>
  <course>312.17</course>
  <speed>0.38</speed>
  <fix>3d</fix>
</trkpt>
<trkpt lat="-27.2744693" lon="151.2900828">
  <ele>357.96</ele>
  <time>2026-09-01T19:51:01Z</time>
  <course>102.75</course>
  <speed>0.4341658669218482</speed>
  <fix>3d</fix>
</trkpt>
<trkpt lat="-27.27447" lon="151.2900831">
  <ele>358.14</ele>
  <time>2026-09-01T19:51:01Z</time>
  <course>315.13</course>
  <speed>0.42</speed>
  <fix>3d</fix>
</trkpt>
<trkpt lat="-27.274469" lon="151.2900825">
  <ele>357.96</ele>
  <time>2026-09-01T19:51:01Z</time>
  <course>101.56</course>
  <speed>0.45</speed>
  <fix>3d</fix>
</trkpt>
<trkpt lat="-27.27447" lon="151.2900831">
  <ele>358.14</ele>
  <time>2026-09-01T19:51:01Z</time>
  <course>315.13</course>
  <speed>0.42</speed>
  <fix>3d</fix>
</trkpt>
<trkpt lat="-27.2744687" lon="151.2900822">
  <ele>357.96</ele>
  <time>2026-09-01T19:51:01Z</time>
  <course>99.79</course>
  <speed>0.4604345773288535</speed>
  <fix>3d</fix>
</trkpt>
<trkpt lat="-27.2744694" lon="151.2900824">
  <ele>358.14</ele>
  <time>2026-09-01T19:51:01Z</time>
  <course>318.49</course>
  <speed>0.45</speed>
  <fix>3d</fix>
</trkpt>
<trkpt lat="-27.2744683" lon="151.2900819">
  <ele>357.96</ele>
  <time>2026-09-01T19:51:01Z</time>
  <course>97.52</course>
  <speed>0.47707441767506253</speed>
  <fix>3d</fix>
</trkpt>
<trkpt lat="-27.2744694" lon="151.2900824">
  <ele>358.14</ele>
  <time>2026-09-01T19:51:01Z</time>
  <course>318.49</course>
  <speed>0.45</speed>
  <fix>3d</fix>
</trkpt>
<trkpt lat="-27.274468" lon="151.2900816">
  <ele>357.96</ele>
  <time>2026-09-01T19:51:01Z</time>
  <course>94.89</course>
  <speed>0.48877397639399744</speed>
  <fix>3d</fix>
</trkpt>
<trkpt lat="-27.2744687" lon="151.2900819">
  <ele>358.14</ele>
  <time>2026-09-01T19:51:01Z</time>
  <course>322.19</course>
  <speed>0.47</speed>
  <fix>3d</fix>
</trkpt>
<trkpt lat="-27.2744676" lon="151.2900813">
  <ele>357.96</ele>
  <time>2026-09-01T19:51:01Z</time>
  <course>92.02</course>
  <speed>0.51</speed>
  <fix>3d</fix>
</trkpt>
<trkpt lat="-27.2744687" lon="151.2900819">
  <ele>358.14</ele>
  <time>2026-09-01T19:51:01Z</time>
  <course>322.19</course>
  <speed>0.47</speed>
  <fix>3d</fix>
</trkpt>
<trkpt lat="-27.2744672" lon="151.2900811">
  <ele>357.96</ele>
  <time>2026-09-01T19:51:01Z</time>
  <course>88.99</course>
  <speed>0.5232590180780452</speed>
  <fix>3d</fix>
</trkpt>
<trkpt lat="-27.274468" lon="151.2900813">
  <ele>358.14</ele>
  <time>2026-09-01T19:51:01Z</time>
  <course>326.22</course>
  <speed>0.5</speed>
  <fix>3d</fix>
</trkpt>
<trkpt lat="-27.2744668" lon="151.2900808">
  <ele>357.96</ele>
  <time>2026-09-01T19:51:01Z</time>
  <course>85.87</course>
  <speed>0.5371219600798314</speed>
  <fix>3d</fix>
</trkpt>
<trkpt lat="-27.274468" lon="151.2900813">
  <ele>358.14</ele>
  <time>2026-09-01T19:51:01Z</time>
  <course>326.22</course>
  <speed>0.5</speed>
  <fix>3d</fix>
</trkpt>
<trkpt lat="-27.2744663" lon="151.2900806">
  <ele>357.96</ele>
  <time>2026-09-01T19:51:01Z</time>
  <course>82.69</course>
  <speed>0.5571355310873648</speed>
  <fix>3d</fix>
</trkpt>
<trkpt lat="-27.2744673" lon="151.2900808">
  <ele>358.14</ele>
  <time>2026-09-01T19:51:01Z</time>
  <course>330.71</course>
  <speed>0.53</speed>
  <fix>3d</fix>
</trkpt>
<trkpt lat="-27.2744659" lon="151.2900804">
  <ele>357.96</ele>
  <time>2026-09-01T19:51:01Z</time>
  <course>79.48</course>
  <speed>0.5787054518492115</speed>
  <fix>3d</fix>
</trkpt>
<trkpt lat="-27.2744673" lon="151.2900808">
  <ele>358.14</ele>
  <time>2026-09-01T19:51:01Z</time>
  <course>330.71</course>
  <speed>0.53</speed>
  <fix>3d</fix>
</trkpt>
<trkpt lat="-27.2744654" lon="151.2900802">
  <ele>357.96</ele>
  <time>2026-09-01T19:51:01Z</time>
  <course>76.26</course>
  <speed>0.6044005294504631</speed>
  <fix>3d</fix>
</trkpt>
<trkpt lat="-27.2744664" lon="151.2900803">
  <ele>358.14</ele>
  <time>2026-09-01T19:51:01Z</time>
  <course>335.67</course>
  <speed>0.56</speed>
  <fix>3d</fix>
</trkpt>
<trkpt lat="-27.2744648" lon="151.29008">
  <ele>357.96</ele>
  <time>2026-09-01T19:51:01Z</time>
  <course>73.02</course>
  <speed>0.6281719509815764</speed>
  <fix>3d</fix>
</trkpt>
<trkpt lat="-27.2744664" lon="151.2900803">
  <ele>358.14</ele>
  <time>2026-09-01T19:51:01Z</time>
  <course>335.67</course>
  <speed>0.56</speed>
  <fix>3d</fix>
</trkpt>
<trkpt lat="-27.2744643" lon="151.2900798">
  <ele>357.96</ele>
  <time>2026-09-01T19:51:01Z</time>
  <course>69.95</course>
  <speed>0.6621933252457322</speed>
  <fix>3d</fix>
</trkpt>
<trkpt lat="-27.2744653" lon="151.2900799">
  <ele>358.14</ele>
  <time>2026-09-01T19:51:01Z</time>
  <course>340.75</course>
  <speed>0.6</speed>
  <fix>3d</fix>
</trkpt>
<trkpt lat="-27.2744637" lon="151.2900796">
  <ele>357.96</ele>
  <time>2026-09-01T19:51:01Z</time>
  <course>67.72</course>
  <speed>0.686804193347711</speed>
  <fix>3d</fix>
</trkpt>
<trkpt lat="-27.2744653" lon="151.2900799">
  <ele>358.14</ele>
  <time>2026-09-01T19:51:01Z</time>
  <course>340.75</course>
  <speed>0.6</speed>
  <fix>3d</fix>
</trkpt>
<trkpt lat="-27.2744631" lon="151.2900793">
  <ele>357.96</ele>
  <time>2026-09-01T19:51:01Z</time>
  <course>66.58</course>
  <speed>0.708801805866774</speed>
  <fix>3d</fix>
</trkpt>
<trkpt lat="-27.2744643" lon="151.2900795">
  <ele>358.14</ele>
  <time>2026-09-01T19:51:01Z</time>
  <course>342.32</course>
  <speed>0.66</speed>
  <fix>3d</fix>
</trkpt>
<trkpt lat="-27.2744625" lon="151.2900791">
  <ele>357.96</ele>
  <time>2026-09-01T19:51:01Z</time>
  <course>66.41</course>
  <speed>0.7308214556237386</speed>
  <fix>3d</fix>
</trkpt>
<trkpt lat="-27.2744643" lon="151.2900795">
  <ele>358.14</ele>
  <time>2026-09-01T19:51:01Z</time>
  <course>342.32</course>
  <speed>0.66</speed>
  <fix>3d</fix>
</trkpt>
<trkpt lat="-27.2744619" lon="151.2900789">
  <ele>357.96</ele>
  <time>2026-09-01T19:51:01Z</time>
  <course>66.95</course>
  <speed>0.7558438992278762</speed>
  <fix>3d</fix>
</trkpt>
<trkpt lat="-27.2744632" lon="151.290079">
  <ele>358.13</ele>
  <time>2026-09-01T19:51:01Z</time>
  <course>340.94</course>
  <speed>0.71</speed>
  <fix>3d</fix>
</trkpt>
<trkpt lat="-27.2744612" lon="151.2900786">
  <ele>357.96</ele>
  <time>2026-09-01T19:51:01Z</time>
  <course>67.97</course>
  <speed>0.777946013551069</speed>
  <fix>3d</fix>
</trkpt>
<trkpt lat="-27.2744632" lon="151.290079">
  <ele>358.13</ele>
  <time>2026-09-01T19:51:01Z</time>
  <course>340.94</course>
  <speed>0.71</speed>
  <fix>3d</fix>
</trkpt>
<trkpt lat="-27.2744606" lon="151.2900783">
  <ele>357.96</ele>
  <time>2026-09-01T19:51:01Z</time>
  <course>69.22</course>
  <speed>0.796994353806851</speed>
  <fix>3d</fix>
</trkpt>
<trkpt lat="-27.2744619" lon="151.2900785">
  <ele>358.13</ele>
  <time>2026-09-01T19:51:01Z</time>
  <course>340.02</course>
  <speed>0.75</speed>
  <fix>3d</fix>
</trkpt>
<trkpt lat="-27.2744599" lon="151.2900781">
  <ele>357.96</ele>
  <time>2026-09-01T19:51:01Z</time>
  <course>70.52</course>
  <speed>0.8132035415564789</speed>
  <fix>3d</fix>
</trkpt>
<trkpt lat="-27.2744619" lon="151.2900785">
  <ele>358.13</ele>
  <time>2026-09-01T19:51:01Z</time>
  <course>340.02</course>
  <speed>0.75</speed>
  <fix>3d</fix>
</trkpt>
<trkpt lat="-27.2744592" lon="151.2900778">
  <ele>357.96</ele>
  <time>2026-09-01T19:51:01Z</time>
  <course>71.73</course>
  <speed>0.8393449827097318</speed>
  <fix>3d</fix>
</trkpt>
<trkpt lat="-27.2744606" lon="151.290078">
  <ele>358.13</ele>
  <time>2026-09-01T19:51:01Z</time>
  <course>340.35</course>
  <speed>0.79</speed>
  <fix>3d</fix>
</trkpt>
<trkpt lat="-27.2744585" lon="151.2900775">
  <ele>357.96</ele>
  <time>2026-09-01T19:51:01Z</time>
  <course>72.72</course>
  <speed>0.8561541917201597</speed>
  <fix>3d</fix>
</trkpt>
<trkpt lat="-27.2744606" lon="151.290078">
  <ele>358.13</ele>
  <time>2026-09-01T19:51:01Z</time>
  <course>340.35</course>
  <speed>0.79</speed>
  <fix>3d</fix>
</trkpt>
<trkpt lat="-27.2744577" lon="151.2900773">
  <ele>357.96</ele>
  <time>2026-09-01T19:51:01Z</time>
  <course>73.4</course>
  <speed>0.8755569655939013</speed>
  <fix>3d</fix>
</trkpt>
<trkpt lat="-27.2744592" lon="151.2900774">
  <ele>358.12</ele>
  <time>2026-09-01T19:51:01Z</time>
  <course>342.14</course>
  <speed>0.83</speed>
  <fix>3d</fix>
</trkpt>
<trkpt lat="-27.274457" lon="151.2900771">
  <ele>357.96</ele>
  <time>2026-09-01T19:51:01Z</time>
  <course>73.73</course>
  <speed>0.8852683209061533</speed>
  <fix>3d</fix>
</trkpt>
<trkpt lat="-27.2744592" lon="151.2900774">
  <ele>358.12</ele>
  <time>2026-09-01T19:51:01Z</time>
  <course>342.14</course>
  <speed>0.83</speed>
  <fix>3d</fix>
</trkpt>
<trkpt lat="-27.2744562" lon="151.2900768">
  <ele>357.96</ele>
  <time>2026-09-01T19:51:01Z</time>
  <course>73.76</course>
  <speed>0.9047098982546836</speed>
  <fix>3d</fix>
</trkpt>
<trkpt lat="-27.2744577" lon="151.2900769">
  <ele>358.12</ele>
  <time>2026-09-01T19:51:01Z</time>
  <course>343.75</course>
  <speed>0.86</speed>
  <fix>3d</fix>
</trkpt>
<trkpt lat="-27.2744554" lon="151.2900766">
  <ele>357.95</ele>
  <time>2026-09-01T19:51:01Z</time>
  <course>73.55</course>
  <speed>0.9167878707749137</speed>
  <fix>3d</fix>
</trkpt>
<trkpt lat="-27.2744577" lon="151.2900769">
  <ele>358.12</ele>
  <time>2026-09-01T19:51:01Z</time>
  <course>343.75</course>
  <speed>0.86</speed>
  <fix>3d</fix>
</trkpt>
<trkpt lat="-27.2744546" lon="151.2900763">
  <ele>357.95</ele>
  <time>2026-09-01T19:51:01Z</time>
  <course>73.52</course>
  <speed>0.9264987857520376</speed>
  <fix>3d</fix>
</trkpt>
<trkpt lat="-27.2744561" lon="151.2900764">
  <ele>358.12</ele>
  <time>2026-09-01T19:51:01Z</time>
  <course>344.16</course>
  <speed>0.89</speed>
  <fix>3d</fix>
</trkpt>
<trkpt lat="-27.2744538" lon="151.290076">
  <ele>357.95</ele>
  <time>2026-09-01T19:51:01Z</time>
  <course>74.26</course>
  <speed>0.9339164844888433</speed>
  <fix>3d</fix>
</trkpt>
<trkpt lat="-27.2744561" lon="151.2900764">
  <ele>358.12</ele>
  <time>2026-09-01T19:51:01Z</time>
  <course>344.16</course>
  <speed>0.89</speed>
  <fix>3d</fix>
</trkpt>
<trkpt lat="-27.274453" lon="151.2900758">
  <ele>357.95</ele>
  <time>2026-09-01T19:51:01Z</time>
  <course>75.67</course>
  <speed>0.951262319236918</speed>
  <fix>3d</fix>
</trkpt>
<trkpt lat="-27.2744546" lon="151.2900759">
  <ele>358.11</ele>
  <time>2026-09-01T19:51:01Z</time>
  <course>344.41</course>
  <speed>0.92</speed>
  <fix>3d</fix>
</trkpt>
<trkpt lat="-27.2744522" lon="151.2900756">
  <ele>357.95</ele>
  <time>2026-09-01T19:51:01Z</time>
  <course>77.56</course>
  <speed>0.965090669315583</speed>
  <fix>3d</fix>
</trkpt>
<trkpt lat="-27.2744546" lon="151.2900759">
  <ele>358.11</ele>
  <time>2026-09-01T19:51:01Z</time>
  <course>344.41</course>
  <speed>0.92</speed>
  <fix>3d</fix>
</trkpt>
<trkpt lat="-27.2744513" lon="151.2900754">
  <ele>357.95</ele>
  <time>2026-09-01T19:51:01Z</time>
  <course>79.79</course>
  <speed>0.9701546268507922</speed>
  <fix>3d</fix>
</trkpt>
<trkpt lat="-27.274453" lon="151.2900755">
  <ele>358.11</ele>
  <time>2026-09-01T19:51:01Z</time>
  <course>346.37</course>
  <speed>0.94</speed>
  <fix>3d</fix>
</trkpt>
<trkpt lat="-27.2744505" lon="151.2900752">
  <ele>357.95</ele>
  <time>2026-09-01T19:51:01Z</time>
  <course>82.2</course>
  <speed>0.9850888284819801</speed>
  <fix>3d</fix>
</trkpt>
<trkpt lat="-27.274453" lon="151.2900755">
  <ele>358.11</ele>
  <time>2026-09-01T19:51:01Z</time>
  <course>346.37</course>
  <speed>0.94</speed>
  <fix>3d</fix>
</trkpt>
<trkpt lat="-27.2744496" lon="151.2900751">
  <ele>357.94</ele>
  <time>2026-09-01T19:51:01Z</time>
  <course>84.73</course>
  <speed>0.9918165152889924</speed>
  <fix>3d</fix>
</trkpt>
<trkpt lat="-27.2744513" lon="151.290075">
  <ele>358.1</ele>
  <time>2026-09-01T19:51:01Z</time>
  <course>350.32</course>
  <speed>0.96</speed>
  <fix>3d</fix>
</trkpt>
<trkpt lat="-27.2744487" lon="151.2900751">
  <ele>357.94</ele>
  <time>2026-09-01T19:51:01Z</time>
  <course>87.33</course>
  <speed>1.0004498987955368</speed>
  <fix>3d</fix>
</trkpt>
<trkpt lat="-27.2744513" lon="151.290075">
  <ele>358.1</ele>
  <time>2026-09-01T19:51:01Z</time>
  <course>350.32</course>
  <speed>0.96</speed>
  <fix>3d</fix>
</trkpt>
<trkpt lat="-27.2744478" lon="151.290075">
  <ele>357.94</ele>
  <time>2026-09-01T19:51:01Z</time>
  <course>89.96</course>
  <speed>1.01</speed>
  <fix>3d</fix>
</trkpt>
<trkpt lat="-27.2744495" lon="151.2900748">
  <ele>358.1</ele>
  <time>2026-09-01T19:51:01Z</time>
  <course>355.19</course>
  <speed>0.97</speed>
  <fix>3d</fix>
</trkpt>
<trkpt lat="-27.2744469" lon="151.290075">
  <ele>357.93</ele>
  <time>2026-09-01T19:51:01Z</time>
  <course>92.61</course>
  <speed>1.0107917688624102</speed>
  <fix>3d</fix>
</trkpt>
<trkpt lat="-27.2744495" lon="151.2900748">
  <ele>358.1</ele>
  <time>2026-09-01T19:51:01Z</time>
  <course>355.19</course>
  <speed>0.97</speed>
  <fix>3d</fix>
</trkpt>
<trkpt lat="-27.274446" lon="151.2900751">
  <ele>357.93</ele>
  <time>2026-09-01T19:51:01Z</time>
  <course>95.26</course>
  <speed>1.0140019723846694</speed>
  <fix>3d</fix>
</trkpt>
<trkpt lat="-27.2744478" lon="151.2900747">
  <ele>358.1</ele>
  <time>2026-09-01T19:51:01Z</time>
  <course>0.38</course>
  <speed>0.99</speed>
  <fix>3d</fix>
</trkpt>
<trkpt lat="-27.2744451" lon="151.2900752">
  <ele>357.93</ele>
  <time>2026-09-01T19:51:01Z</time>
  <course>97.92</course>
  <speed>1.0183319694480775</speed>
  <fix>3d</fix>
</trkpt>
<trkpt lat="-27.2744478" lon="151.2900747">
  <ele>358.1</ele>
  <time>2026-09-01T19:51:01Z</time>
  <course>0.38</course>
  <speed>0.99</speed>
  <fix>3d</fix>
</trkpt>
<trkpt lat="-27.2744442" lon="151.2900753">
  <ele>357.93</ele>
  <time>2026-09-01T19:51:01Z</time>
  <course>100.58</course>
  <speed>1.0242070103255494</speed>
  <fix>3d</fix>
</trkpt>
<trkpt lat="-27.2744461" lon="151.2900748">
  <ele>358.1</ele>
  <time>2026-09-01T19:51:01Z</time>
  <course>5.58</course>
  <speed>1.0</speed>
  <fix>3d</fix>
</trkpt>
<trkpt lat="-27.2744433" lon="151.2900754">
  <ele>357.93</ele>
  <time>2026-09-01T19:51:01Z</time>
  <course>103.25</course>
  <speed>1.0218121158021176</speed>
  <fix>3d</fix>
</trkpt>
<trkpt lat="-27.2744461" lon="151.2900748">
  <ele>358.1</ele>
  <time>2026-09-01T19:51:01Z</time>
  <course>5.58</course>
  <speed>1.0</speed>
  <fix>3d</fix>
</trkpt>
<trkpt lat="-27.2744425" lon="151.2900756">
  <ele>357.93</ele>
  <time>2026-09-01T19:51:01Z</time>
  <course>105.78</course>
  <speed>1.021077861869505</speed>
  <fix>3d</fix>
</trkpt>
<trkpt lat="-27.2744443" lon="151.290075">
  <ele>358.1</ele>
  <time>2026-09-01T19:51:01Z</time>
  <course>10.49</course>
  <speed>1.0</speed>
  <fix>3d</fix>
</trkpt>
<trkpt lat="-27.2744416" lon="151.2900759">
  <ele>357.93</ele>
  <time>2026-09-01T19:51:01Z</time>
  <course>107.55</course>
  <speed>1.0220078277586722</speed>
  <fix>3d</fix>
</trkpt>
<trkpt lat="-27.2744443" lon="151.290075">
  <ele>358.1</ele>
  <time>2026-09-01T19:51:01Z</time>
  <course>10.49</course>
  <speed>1.0</speed>
  <fix>3d</fix>
</trkpt>
<trkpt lat="-27.2744407" lon="151.2900761">
  <ele>357.93</ele>
  <time>2026-09-01T19:51:01Z</time>
  <course>108.22</course>
  <speed>1.0057832768544126</speed>
  <fix>3d</fix>
</trkpt>
<trkpt lat="-27.2744425" lon="151.2900755">
  <ele>358.1</ele>
  <time>2026-09-01T19:51:01Z</time>
  <course>14.97</course>
  <speed>1.0</speed>
  <fix>3d</fix>
</trkpt>
<trkpt lat="-27.2744399" lon="151.2900764">
  <ele>357.93</ele>
  <time>2026-09-01T19:51:01Z</time>
  <course>107.92</course>
  <speed>0.9962429422585637</speed>
  <fix>3d</fix>
</trkpt>
<trkpt lat="-27.2744425" lon="151.2900755">
  <ele>358.1</ele>
  <time>2026-09-01T19:51:01Z</time>
  <course>14.97</course>
  <speed>1.0</speed>
  <fix>3d</fix>
</trkpt>
<trkpt lat="-27.2744391" lon="151.2900767">
  <ele>357.93</ele>
  <time>2026-09-01T19:51:01Z</time>
  <course>106.92</course>
  <speed>0.9932774033471213</speed>
  <fix>3d</fix>
</trkpt>
<trkpt lat="-27.2744407" lon="151.2900761">
  <ele>358.1</ele>
  <time>2026-09-01T19:51:01Z</time>
  <course>17.69</course>
  <speed>0.99</speed>
  <fix>3d</fix>
</trkpt>
<trkpt lat="-27.2744382" lon="151.290077">
  <ele>357.93</ele>
  <time>2026-09-01T19:51:01Z</time>
  <course>105.54</course>
  <speed>0.9808159868191383</speed>
  <fix>3d</fix>
</trkpt>
<trkpt lat="-27.2744407" lon="151.2900761">
  <ele>358.1</ele>
  <time>2026-09-01T19:51:01Z</time>
  <course>17.69</course>
  <speed>0.99</speed>
  <fix>3d</fix>
</trkpt>
<trkpt lat="-27.2744374" lon="151.2900773">
  <ele>357.94</ele>
  <time>2026-09-01T19:51:01Z</time>
  <course>104.06</course>
  <speed>0.9684007434941384</speed>
  <fix>3d</fix>
</trkpt>
<trkpt lat="-27.2744391" lon="151.2900766">
  <ele>358.1</ele>
  <time>2026-09-01T19:51:01Z</time>
  <course>17.79</course>
  <speed>0.97</speed>
  <fix>3d</fix>
</trkpt>
<trkpt lat="-27.2744366" lon="151.2900775">
  <ele>357.94</ele>
  <time>2026-09-01T19:51:01Z</time>
  <course>102.68</course>
  <speed>0.9533624704172071</speed>
  <fix>3d</fix>
</trkpt>
<trkpt lat="-27.2744391" lon="151.2900766">
  <ele>358.1</ele>
  <time>2026-09-01T19:51:01Z</time>
  <course>17.79</course>
  <speed>0.97</speed>
  <fix>3d</fix>
</trkpt>
<trkpt lat="-27.2744358" lon="151.2900778">
  <ele>357.95</ele>
  <time>2026-09-01T19:51:01Z</time>
  <course>101.65</course>
  <speed>0.9411163583744573</speed>
  <fix>3d</fix>
</trkpt>
<trkpt lat="-27.2744374" lon="151.2900773">
  <ele>358.11</ele>
  <time>2026-09-01T19:51:01Z</time>
  <course>16.63</course>
  <speed>0.95</speed>
  <fix>3d</fix>
</trkpt>
<trkpt lat="-27.274435" lon="151.290078">
  <ele>357.96</ele>
  <time>2026-09-01T19:51:01Z</time>
  <course>100.68</course>
  <speed>0.9289241088485108</speed>
  <fix>3d</fix>
</trkpt>
<trkpt lat="-27.2744374" lon="151.2900773">
  <ele>358.11</ele>
  <time>2026-09-01T19:51:01Z</time>
  <course>16.63</course>
  <speed>0.95</speed>
  <fix>3d</fix>
</trkpt>
<trkpt lat="-27.2744342" lon="151.2900782">
  <ele>357.96</ele>
  <time>2026-09-01T19:51:01Z</time>
  <course>99.31</course>
  <speed>0.9167878707749137</speed>
  <fix>3d</fix>
</trkpt>
<trkpt lat="-27.2744358" lon="151.2900778">
  <ele>358.13</ele>
  <time>2026-09-01T19:51:01Z</time>
  <course>15.31</course>
  <speed>0.92</speed>
  <fix>3d</fix>
</trkpt>
<trkpt lat="-27.2744334" lon="151.2900784">
  <ele>357.97</ele>
  <time>2026-09-01T19:51:01Z</time>
  <course>97.52</course>
  <speed>0.9024411338142783</speed>
  <fix>3d</fix>
</trkpt>
<trkpt lat="-27.2744358" lon="151.2900778">
  <ele>358.13</ele>
  <time>2026-09-01T19:51:01Z</time>
  <course>15.31</course>
  <speed>0.92</speed>
  <fix>3d</fix>
</trkpt>
<trkpt lat="-27.2744327" lon="151.2900786">
  <ele>357.97</ele>
  <time>2026-09-01T19:51:01Z</time>
  <course>95.45</course>
  <speed>0.8905054744357274</speed>
  <fix>3d</fix>
</trkpt>
<trkpt lat="-27.2744342" lon="151.2900782">
  <ele>358.14</ele>
  <time>2026-09-01T19:51:01Z</time>
  <course>13.95</course>
  <speed>0.9</speed>
  <fix>3d</fix>
</trkpt>
<trkpt lat="-27.2744319" lon="151.2900788">
  <ele>357.98</ele>
  <time>2026-09-01T19:51:01Z</time>
  <course>93.16</course>
  <speed>0.8786353054595518</speed>
  <fix>3d</fix>
</trkpt>
<trkpt lat="-27.2744342" lon="151.2900782">
  <ele>358.14</ele>
  <time>2026-09-01T19:51:01Z</time>
  <course>13.95</course>
  <speed>0.9</speed>
  <fix>3d</fix>
</trkpt>
<trkpt lat="-27.2744311" lon="151.290079">
  <ele>357.98</ele>
  <time>2026-09-01T19:51:01Z</time>
  <course>90.78</course>
  <speed>0.8668333173107734</speed>
  <fix>3d</fix>
</trkpt>
<trkpt lat="-27.2744326" lon="151.2900786">
  <ele>358.15</ele>
  <time>2026-09-01T19:51:01Z</time>
  <course>12.52</course>
  <speed>0.87</speed>
  <fix>3d</fix>
</trkpt>
<trkpt lat="-27.2744304" lon="151.2900792">
  <ele>357.98</ele>
  <time>2026-09-01T19:51:01Z</time>
  <course>88.33</course>
  <speed>0.8532877591996736</speed>
  <fix>3d</fix>
</trkpt>
<trkpt lat="-27.2744326" lon="151.2900786">
  <ele>358.15</ele>
  <time>2026-09-01T19:51:01Z</time>
  <course>12.52</course>
  <speed>0.87</speed>
  <fix>3d</fix>
</trkpt>
<trkpt lat="-27.2744296" lon="151.2900793">
  <ele>357.98</ele>
  <time>2026-09-01T19:51:01Z</time>
  <course>85.84</course>
  <speed>0.8515867542417507</speed>
  <fix>3d</fix>
</trkpt>
<trkpt lat="-27.2744311" lon="151.290079">
  <ele>358.16</ele>
  <time>2026-09-01T19:51:01Z</time>
  <course>10.91</course>
  <speed>0.85</speed>
  <fix>3d</fix>
</trkpt>
<trkpt lat="-27.2744289" lon="151.2900794">
  <ele>357.98</ele>
  <time>2026-09-01T19:51:01Z</time>
  <course>83.4</course>
  <speed>0.840119039184329</speed>
  <fix>3d</fix>
</trkpt>
<trkpt lat="-27.2744311" lon="151.290079">
  <ele>358.16</ele>
  <time>2026-09-01T19:51:01Z</time>
  <course>10.91</course>
  <speed>0.85</speed>
  <fix>3d</fix>
</trkpt>
<trkpt lat="-27.2744282" lon="151.2900795">
  <ele>357.98</ele>
  <time>2026-09-01T19:51:01Z</time>
  <course>80.89</course>
  <speed>0.8273451516749222</speed>
  <fix>3d</fix>
</trkpt>
<trkpt lat="-27.2744296" lon="151.2900793">
  <ele>358.17</ele>
  <time>2026-09-01T19:51:01Z</time>
  <course>9.1</course>
  <speed>0.83</speed>
  <fix>3d</fix>
</trkpt>
<trkpt lat="-27.2744275" lon="151.2900797">
  <ele>357.98</ele>
  <time>2026-09-01T19:51:01Z</time>
  <course>78.37</course>
  <speed>0.8161494961096283</speed>
  <fix>3d</fix>
</trkpt>
<trkpt lat="-27.2744296" lon="151.2900793">
  <ele>358.17</ele>
  <time>2026-09-01T19:51:01Z</time>
  <course>9.1</course>
  <speed>0.83</speed>
  <fix>3d</fix>
</trkpt>
<trkpt lat="-27.2744268" lon="151.2900797">
  <ele>357.98</ele>
  <time>2026-09-01T19:51:01Z</time>
  <course>75.85</course>
  <speed>0.8149846624323674</speed>
  <fix>3d</fix>
</trkpt>
<trkpt lat="-27.2744282" lon="151.2900796">
  <ele>358.17</ele>
  <time>2026-09-01T19:51:01Z</time>
  <course>7.23</course>
  <speed>0.81</speed>
  <fix>3d</fix>
</trkpt>
<trkpt lat="-27.2744261" lon="151.2900798">
  <ele>357.98</ele>
  <time>2026-09-01T19:51:01Z</time>
  <course>73.35</course>
  <speed>0.8039900496896712</speed>
  <fix>3d</fix>
</trkpt>
<trkpt lat="-27.2744282" lon="151.2900796">
  <ele>358.17</ele>
  <time>2026-09-01T19:51:01Z</time>
  <course>7.23</course>
  <speed>0.81</speed>
  <fix>3d</fix>
</trkpt>
<trkpt lat="-27.2744254" lon="151.2900799">
  <ele>357.98</ele>
  <time>2026-09-01T19:51:01Z</time>
  <course>70.85</course>
  <speed>0.7922752047110904</speed>
  <fix>3d</fix>
</trkpt>
<trkpt lat="-27.2744268" lon="151.2900797">
  <ele>358.17</ele>
  <time>2026-09-01T19:51:01Z</time>
  <course>5.35</course>
  <speed>0.79</speed>
  <fix>3d</fix>
</trkpt>
<trkpt lat="-27.2744247" lon="151.2900799">
  <ele>357.97</ele>
  <time>2026-09-01T19:51:01Z</time>
  <course>68.65</course>
  <speed>0.7816009211867653</speed>
  <fix>3d</fix>
</trkpt>
<trkpt lat="-27.2744268" lon="151.2900797">
  <ele>358.17</ele>
  <time>2026-09-01T19:51:01Z</time>
  <course>5.35</course>
  <speed>0.79</speed>
  <fix>3d</fix>
</trkpt>
<trkpt lat="-27.274424" lon="151.29008">
  <ele>357.97</ele>
  <time>2026-09-01T19:51:01Z</time>
  <course>67.24</course>
  <speed>0.7710382610480494</speed>
  <fix>3d</fix>
</trkpt>
<trkpt lat="-27.2744254" lon="151.2900798">
  <ele>358.16</ele>
  <time>2026-09-01T19:51:01Z</time>
  <course>3.46</course>
  <speed>0.77</speed>
  <fix>3d</fix>
</trkpt>
<trkpt lat="-27.2744233" lon="151.29008">
  <ele>357.97</ele>
  <time>2026-09-01T19:51:01Z</time>
  <course>66.69</course>
  <speed>0.7605918747922567</speed>
  <fix>3d</fix>
</trkpt>
<trkpt lat="-27.2744254" lon="151.2900798">
  <ele>358.16</ele>
  <time>2026-09-01T19:51:01Z</time>
  <course>3.46</course>
  <speed>0.77</speed>
  <fix>3d</fix>
</trkpt>
<trkpt lat="-27.2744226" lon="151.29008">
  <ele>357.96</ele>
  <time>2026-09-01T19:51:01Z</time>
  <course>66.86</course>
  <speed>0.750066663703967</speed>
  <fix>3d</fix>
</trkpt>
<trkpt lat="-27.2744239" lon="151.2900799">
  <ele>358.16</ele>
  <time>2026-09-01T19:51:01Z</time>
  <course>1.47</course>
  <speed>0.75</speed>
  <fix>3d</fix>
</trkpt>
<trkpt lat="-27.274422" lon="151.29008">
  <ele>357.96</ele>
  <time>2026-09-01T19:51:01Z</time>
  <course>67.56</course>
  <speed>0.73</speed>
  <fix>3d</fix>
</trkpt>
<trkpt lat="-27.2744239" lon="151.2900799">
  <ele>358.16</ele>
  <time>2026-09-01T19:51:01Z</time>
  <course>1.47</course>
  <speed>0.75</speed>
  <fix>3d</fix>
</trkpt>
<trkpt lat="-27.2744213" lon="151.29008">
  <ele>357.96</ele>
  <time>2026-09-01T19:51:01Z</time>
  <course>68.61</course>
  <speed>0.7100704190430693</speed>
  <fix>3d</fix>
</trkpt>
<trkpt lat="-27.2744226" lon="151.2900799">
  <ele>358.16</ele>
  <time>2026-09-01T19:51:01Z</time>
  <course>359.21</course>
  <speed>0.72</speed>
  <fix>3d</fix>
</trkpt>
<trkpt lat="-27.2744207" lon="151.29008">
  <ele>357.96</ele>
  <time>2026-09-01T19:51:01Z</time>
  <course>69.75</course>
  <speed>0.6902897942168927</speed>
  <fix>3d</fix>
</trkpt>
<trkpt lat="-27.2744226" lon="151.2900799">
  <ele>358.16</ele>
  <time>2026-09-01T19:51:01Z</time>
  <course>359.21</course>
  <speed>0.72</speed>
  <fix>3d</fix>
</trkpt>
<trkpt lat="-27.2744201" lon="151.29008">
  <ele>357.97</ele>
  <time>2026-09-01T19:51:01Z</time>
  <course>70.85</course>
  <speed>0.6811754546370561</speed>
  <fix>3d</fix>
</trkpt>
<trkpt lat="-27.2744213" lon="151.2900799">
  <ele>358.15</ele>
  <time>2026-09-01T19:51:01Z</time>
  <course>356.58</course>
  <speed>0.69</speed>
  <fix>3d</fix>
</trkpt>
<trkpt lat="-27.2744195" lon="151.2900799">
  <ele>357.97</ele>
  <time>2026-09-01T19:51:01Z</time>
  <course>71.78</course>
  <speed>0.6618912297349165</speed>
  <fix>3d</fix>
</trkpt>
<trkpt lat="-27.2744213" lon="151.2900799">
  <ele>358.15</ele>
  <time>2026-09-01T19:51:01Z</time>
  <course>356.58</course>
  <speed>0.69</speed>
  <fix>3d</fix>
</trkpt>
<trkpt lat="-27.274419" lon="151.2900798">
  <ele>357.96</ele>
  <time>2026-09-01T19:51:01Z</time>
  <course>72.44</course>
  <speed>0.6438167441127949</speed>
  <fix>3d</fix>
</trkpt>
<trkpt lat="-27.2744201" lon="151.2900798">
  <ele>358.15</ele>
  <time>2026-09-01T19:51:01Z</time>
  <course>353.59</course>
  <speed>0.66</speed>
  <fix>3d</fix>
</trkpt>
<trkpt lat="-27.2744184" lon="151.2900797">
  <ele>357.96</ele>
  <time>2026-09-01T19:51:01Z</time>
  <course>72.8</course>
  <speed>0.6152235366108809</speed>
  <fix>3d</fix>
</trkpt>
<trkpt lat="-27.2744201" lon="151.2900798">
  <ele>358.15</ele>
  <time>2026-09-01T19:51:01Z</time>
  <course>353.59</course>
  <speed>0.66</speed>
  <fix>3d</fix>
</trkpt>
<trkpt lat="-27.2744179" lon="151.2900796">
  <ele>357.96</ele>
  <time>2026-09-01T19:51:01Z</time>
  <course>72.88</course>
  <speed>0.5984145720150873</speed>
  <fix>3d</fix>
</trkpt>
<trkpt lat="-27.274419" lon="151.2900796">
  <ele>358.15</ele>
  <time>2026-09-01T19:51:01Z</time>
  <course>350.27</course>
  <speed>0.62</speed>
  <fix>3d</fix>
</trkpt>
<trkpt lat="-27.2744174" lon="151.2900795">
  <ele>357.96</ele>
  <time>2026-09-01T19:51:01Z</time>
  <course>72.73</course>
  <speed>0.5805170109479997</speed>
  <fix>3d</fix>
</trkpt>
<trkpt lat="-27.274419" lon="151.2900796">
  <ele>358.15</ele>
  <time>2026-09-01T19:51:01Z</time>
  <course>350.27</course>
  <speed>0.62</speed>
  <fix>3d</fix>
</trkpt>
<trkpt lat="-27.2744169" lon="151.2900793">
  <ele>357.96</ele>
  <time>2026-09-01T19:51:01Z</time>
  <course>72.64</course>
  <speed>0.5629387178015027</speed>
  <fix>3d</fix>
</trkpt>
<trkpt lat="-27.2744178" lon="151.2900794">
  <ele>358.15</ele>
  <time>2026-09-01T19:51:01Z</time>
  <course>346.61</course>
  <speed>0.58</speed>
  <fix>3d</fix>
</trkpt>
<trkpt lat="-27.2744164" lon="151.2900792">
  <ele>357.96</ele>
  <time>2026-09-01T19:51:01Z</time>
  <course>73.17</course>
  <speed>0.5412947441089743</speed>
  <fix>3d</fix>
</trkpt>
<trkpt lat="-27.2744178" lon="151.2900794">
  <ele>358.15</ele>
  <time>2026-09-01T19:51:01Z</time>
  <course>346.61</course>
  <speed>0.58</speed>
  <fix>3d</fix>
</trkpt>
<trkpt lat="-27.2744159" lon="151.2900791">
  <ele>357.96</ele>
  <time>2026-09-01T19:51:01Z</time>
  <course>74.35</course>
  <speed>0.5295280917949491</speed>
  <fix>3d</fix>
</trkpt>
<trkpt lat="-27.2744169" lon="151.2900791">
  <ele>358.15</ele>
  <time>2026-09-01T19:51:01Z</time>
  <course>343.98</course>
  <speed>0.55</speed>
  <fix>3d</fix>
</trkpt>
<trkpt lat="-27.2744155" lon="151.290079">
  <ele>357.96</ele>
  <time>2026-09-01T19:51:01Z</time>
  <course>76.01</course>
  <speed>0.5063595560468865</speed>
  <fix>3d</fix>
</trkpt>
<trkpt lat="-27.2744169" lon="151.2900791">
  <ele>358.15</ele>
  <time>2026-09-01T19:51:01Z</time>
  <course>343.98</course>
  <speed>0.55</speed>
  <fix>3d</fix>
</trkpt>
<trkpt lat="-27.274415" lon="151.2900788">
  <ele>357.96</ele>
  <time>2026-09-01T19:51:02Z</time>
  <course>78.0</course>
  <speed>0.4949747468305833</speed>
  <fix>3d</fix>
</trkpt>
<trkpt lat="-27.274416" lon="151.2900788">
  <ele>358.15</ele>
  <time>2026-09-01T19:51:02Z</time>
  <course>344.24</course>
  <speed>0.51</speed>
  <fix>3d</fix>
</trkpt>
<trkpt lat="-27.2744146" lon="151.2900788">
  <ele>357.96</ele>
  <time>2026-09-01T19:51:02Z</time>
  <course>80.21</course>
  <speed>0.4738143096192854</speed>
  <fix>3d</fix>
</trkpt>
<trkpt lat="-27.274416" lon="151.2900788">
  <ele>358.15</ele>
  <time>2026-09-01T19:51:02Z</time>
  <course>344.24</course>
  <speed>0.51</speed>
  <fix>3d</fix>
</trkpt>
<trkpt lat="-27.2744142" lon="151.2900787">
  <ele>357.96</ele>
  <time>2026-09-01T19:51:02Z</time>
  <course>82.56</course>
  <speed>0.45276925690687087</speed>
  <fix>3d</fix>
</trkpt>
<trkpt lat="-27.2744151" lon="151.2900785">
  <ele>358.15</ele>
  <time>2026-09-01T19:51:02Z</time>
  <course>345.95</course>
  <speed>0.47</speed>
  <fix>3d</fix>
</trkpt>
<trkpt lat="-27.2744138" lon="151.2900786">
  <ele>357.96</ele>
  <time>2026-09-01T19:51:02Z</time>
  <course>85.0</course>
  <speed>0.43185645763378366</speed>
  <fix>3d</fix>
</trkpt>
<trkpt lat="-27.2744151" lon="151.2900785">
  <ele>358.15</ele>
  <time>2026-09-01T19:51:02Z</time>
  <course>345.95</course>
  <speed>0.47</speed>
  <fix>3d</fix>
</trkpt>
<trkpt lat="-27.2744135" lon="151.2900785">
  <ele>357.96</ele>
  <time>2026-09-01T19:51:02Z</time>
  <course>87.51</course>
  <speed>0.4119465984809196</speed>
  <fix>3d</fix>
</trkpt>
<trkpt lat="-27.2744143" lon="151.2900784">
  <ele>358.15</ele>
  <time>2026-09-01T19:51:02Z</time>
  <course>347.04</course>
  <speed>0.43</speed>
  <fix>3d</fix>
</trkpt>
<trkpt lat="-27.2744131" lon="151.2900784">
  <ele>357.95</ele>
  <time>2026-09-01T19:51:02Z</time>
  <course>89.97</course>
  <speed>0.3920459156782532</speed>
  <fix>3d</fix>
</trkpt>
<trkpt lat="-27.2744143" lon="151.2900784">
  <ele>358.15</ele>
  <time>2026-09-01T19:51:02Z</time>
  <course>347.04</course>
  <speed>0.43</speed>
  <fix>3d</fix>
</trkpt>
<trkpt lat="-27.2744128" lon="151.2900784">
  <ele>357.95</ele>
  <time>2026-09-01T19:51:02Z</time>
  <course>92.58</course>
  <speed>0.3712142238654117</speed>
  <fix>3d</fix>
</trkpt>
<trkpt lat="-27.2744136" lon="151.2900781">
  <ele>358.15</ele>
  <time>2026-09-01T19:51:02Z</time>
  <course>347.31</course>
  <speed>0.39</speed>
  <fix>3d</fix>
</trkpt>
<trkpt lat="-27.2744125" lon="151.2900783">
  <ele>357.95</ele>
  <time>2026-09-01T19:51:02Z</time>
  <course>95.19</course>
  <speed>0.35128336140500593</speed>
  <fix>3d</fix>
</trkpt>
<trkpt lat="-27.2744136" lon="151.2900781">
  <ele>358.15</ele>
  <time>2026-09-01T19:51:02Z</time>
  <course>347.31</course>
  <speed>0.39</speed>
  <fix>3d</fix>
</trkpt>
<trkpt lat="-27.2744122" lon="151.2900782">
  <ele>357.95</ele>
  <time>2026-09-01T19:51:02Z</time>
  <course>97.75</course>
  <speed>0.32140317359976395</speed>
  <fix>3d</fix>
</trkpt>
<trkpt lat="-27.274413" lon="151.290078">
  <ele>358.15</ele>
  <time>2026-09-01T19:51:02Z</time>
  <course>346.49</course>
  <speed>0.35</speed>
  <fix>3d</fix>
</trkpt>
<trkpt lat="-27.274412" lon="151.2900781">
  <ele>357.96</ele>
  <time>2026-09-01T19:51:02Z</time>
  <course>99.76</course>
  <speed>0.3026549190084311</speed>
  <fix>3d</fix>
</trkpt>
<trkpt lat="-27.274413" lon="151.290078">
  <ele>358.15</ele>
  <time>2026-09-01T19:51:02Z</time>
  <course>346.49</course>
  <speed>0.35</speed>
  <fix>3d</fix>
</trkpt>
<trkpt lat="-27.2744117" lon="151.2900781">
  <ele>357.96</ele>
  <time>2026-09-01T19:51:02Z</time>
  <course>100.74</course>
  <speed>0.27294688127912364</speed>
  <fix>3d</fix>
</trkpt>
<trkpt lat="-27.2744124" lon="151.2900778">
  <ele>358.15</ele>
  <time>2026-09-01T19:51:02Z</time>
  <course>344.12</course>
  <speed>0.3</speed>
  <fix>3d</fix>
</trkpt>
<trkpt lat="-27.2744115" lon="151.290078">
  <ele>357.96</ele>
  <time>2026-09-01T19:51:02Z</time>
  <course>100.8</course>
  <speed>0.24515301344262524</speed>
  <fix>3d</fix>
</trkpt>
<trkpt lat="-27.2744124" lon="151.2900778">
  <ele>358.15</ele>
  <time>2026-09-01T19:51:02Z</time>
  <course>344.12</course>
  <speed>0.3</speed>
  <fix>3d</fix>
</trkpt>
<trkpt lat="-27.2744114" lon="151.2900779">
  <ele>357.96</ele>
  <time>2026-09-01T19:51:02Z</time>
  <course>100.16</course>
  <speed>0.21840329667841554</speed>
  <fix>3d</fix>
</trkpt>
<trkpt lat="-27.2744118" lon="151.2900776">
  <ele>358.15</ele>
  <time>2026-09-01T19:51:02Z</time>
  <course>339.33</course>
  <speed>0.25</speed>
  <fix>3d</fix>
</trkpt>
<trkpt lat="-27.2744112" lon="151.2900778">
  <ele>357.96</ele>
  <time>2026-09-01T19:51:02Z</time>
  <course>99.04</course>
  <speed>0.18973665961010278</speed>
  <fix>3d</fix>
</trkpt>
<trkpt lat="-27.2744118" lon="151.2900776">
  <ele>358.15</ele>
  <time>2026-09-01T19:51:02Z</time>
  <course>339.33</course>
  <speed>0.25</speed>
  <fix>3d</fix>
</trkpt>
<trkpt lat="-27.2744111" lon="151.2900776">
  <ele>357.96</ele>
  <time>2026-09-01T19:51:02Z</time>
  <course>97.67</course>
  <speed>0.16552945357246848</speed>
  <fix>3d</fix>
</trkpt>
<trkpt lat="-27.2744115" lon="151.2900775">
  <ele>358.15</ele>
  <time>2026-09-01T19:51:02Z</time>
  <course>330.78</course>
  <speed>0.21</speed>
  <fix>3d</fix>
</trkpt>
<trkpt lat="-27.2744109" lon="151.2900775">
  <ele>357.95</ele>
  <time>2026-09-01T19:51:02Z</time>
  <course>96.29</course>
  <speed>0.14422205101855956</speed>
  <fix>3d</fix>
</trkpt>
<trkpt lat="-27.2744115" lon="151.2900775">
  <ele>358.15</ele>
  <time>2026-09-01T19:51:02Z</time>
  <course>330.78</course>
  <speed>0.21</speed>
  <fix>3d</fix>
</trkpt>
<trkpt lat="-27.2744109" lon="151.2900774">
  <ele>357.95</ele>
  <time>2026-09-01T19:51:02Z</time>
  <course>95.08</course>
  <speed>0.1345362404707371</speed>
  <fix>3d</fix>
</trkpt>
<trkpt lat="-27.2744112" lon="151.2900772">
  <ele>358.15</ele>
  <time>2026-09-01T19:51:02Z</time>
  <course>316.83</course>
  <speed>0.17</speed>
  <fix>3d</fix>
</trkpt>
<trkpt lat="-27.2744108" lon="151.2900773">
  <ele>357.95</ele>
  <time>2026-09-01T19:51:02Z</time>
  <course>94.18</course>
  <speed>0.12206555615733702</speed>
  <fix>3d</fix>
</trkpt>
<trkpt lat="-27.2744112" lon="151.2900772">
  <ele>358.15</ele>
  <time>2026-09-01T19:51:02Z</time>
  <course>316.83</course>
  <speed>0.17</speed>
  <fix>3d</fix>
</trkpt>
<trkpt lat="-27.2744108" lon="151.2900771">
  <ele>357.95</ele>
  <time>2026-09-01T19:51:02Z</time>
  <course>93.31</course>
  <speed>0.11704699910719625</speed>
  <fix>3d</fix>
</trkpt>
<trkpt lat="-27.274411" lon="151.2900769">
  <ele>358.15</ele>
  <time>2026-09-01T19:51:02Z</time>
  <course>296.77</course>
  <speed>0.15</speed>
  <fix>3d</fix>
</trkpt>
<trkpt lat="-27.2744108" lon="151.2900769">
  <ele>357.95</ele>
  <time>2026-09-01T19:51:02Z</time>
  <course>92.09</course>
  <speed>0.12041594578792296</speed>
  <fix>3d</fix>
</trkpt>
<trkpt lat="-27.274411" lon="151.2900769">
  <ele>358.15</ele>
  <time>2026-09-01T19:51:02Z</time>
  <course>296.77</course>
  <speed>0.15</speed>
  <fix>3d</fix>
</trkpt>
<trkpt lat="-27.2744108" lon="151.2900768">
  <ele>357.95</ele>
  <time>2026-09-01T19:51:02Z</time>
  <course>90.55</course>
  <speed>0.130384048104053</speed>
  <fix>3d</fix>
</trkpt>
<trkpt lat="-27.274411" lon="151.2900766">
  <ele>358.15</ele>
  <time>2026-09-01T19:51:02Z</time>
  <course>274.61</course>
  <speed>0.16</speed>
  <fix>3d</fix>
</trkpt>
<trkpt lat="-27.2744108" lon="151.2900766">
  <ele>357.95</ele>
  <time>2026-09-01T19:51:02Z</time>
  <course>88.78</course>
  <speed>0.14560219778561037</speed>
  <fix>3d</fix>
</trkpt>
<trkpt lat="-27.274411" lon="151.2900766">
  <ele>358.15</ele>
  <time>2026-09-01T19:51:02Z</time>
  <course>274.61</course>
  <speed>0.16</speed>
  <fix>3d</fix>
</trkpt>
<trkpt lat="-27.2744108" lon="151.2900764">
  <ele>357.95</ele>
  <time>2026-09-01T19:51:02Z</time>
  <course>86.85</course>
  <speed>0.1615549442140351</speed>
  <fix>3d</fix>
</trkpt>
<trkpt lat="-27.274411" lon="151.2900763">
  <ele>358.15</ele>
  <time>2026-09-01T19:51:02Z</time>
  <course>256.45</course>
  <speed>0.18</speed>
  <fix>3d</fix>
</trkpt>
<trkpt lat="-27.2744109" lon="151.2900762">
  <ele>357.95</ele>
  <time>2026-09-01T19:51:02Z</time>
  <course>84.83</course>
  <speed>0.1835755975068582</speed>
  <fix>3d</fix>
</trkpt>
<trkpt lat="-27.274411" lon="151.2900763">
  <ele>358.15</ele>
  <time>2026-09-01T19:51:02Z</time>
  <course>256.45</course>
  <speed>0.18</speed>
  <fix>3d</fix>
</trkpt>
<trkpt lat="-27.2744111" lon="151.290076">
  <ele>357.95</ele>
  <time>2026-09-01T19:51:02Z</time>
  <course>82.74</course>
  <speed>0.20808652046684814</speed>
  <fix>3d</fix>
</trkpt>
<trkpt lat="-27.2744111" lon="151.290076">
  <ele>358.15</ele>
  <time>2026-09-01T19:51:02Z</time>
  <course>243.53</course>
  <speed>0.22</speed>
  <fix>3d</fix>
</trkpt>
<trkpt lat="-27.2744112" lon="151.2900758">
  <ele>357.95</ele>
  <time>2026-09-01T19:51:02Z</time>
  <course>80.61</course>
  <speed>0.22022715545545238</speed>
  <fix>3d</fix>
</trkpt>
<trkpt lat="-27.2744111" lon="151.290076">
  <ele>358.15</ele>
  <time>2026-09-01T19:51:02Z</time>
  <course>243.53</course>
  <speed>0.22</speed>
  <fix>3d</fix>
</trkpt>
<trkpt lat="-27.2744114" lon="151.2900755">
  <ele>357.95</ele>
  <time>2026-09-01T19:51:02Z</time>
  <course>78.47</course>
  <speed>0.24758836806279894</speed>
  <fix>3d</fix>
</trkpt>
<trkpt lat="-27.2744113" lon="151.2900755">
  <ele>358.15</ele>
  <time>2026-09-01T19:51:02Z</time>
  <course>234.36</course>
  <speed>0.26</speed>
  <fix>3d</fix>
</trkpt>
<trkpt lat="-27.2744116" lon="151.2900753">
  <ele>357.95</ele>
  <time>2026-09-01T19:51:02Z</time>
  <course>76.33</course>
  <speed>0.261725046566048</speed>
  <fix>3d</fix>
</trkpt>
<trkpt lat="-27.2744113" lon="151.2900755">
  <ele>358.15</ele>
  <time>2026-09-01T19:51:02Z</time>
  <course>234.36</course>
  <speed>0.26</speed>
  <fix>3d</fix>
</trkpt>
<trkpt lat="-27.2744118" lon="151.2900751">
  <ele>357.95</ele>
  <time>2026-09-01T19:51:02Z</time>
  <course>74.19</course>
  <speed>0.2842534080710379</speed>
  <fix>3d</fix>
</trkpt>
<trkpt lat="-27.2744116" lon="151.290075">
  <ele>358.16</ele>
  <time>2026-09-01T19:51:02Z</time>
  <course>227.52</course>
  <speed>0.3</speed>
  <fix>3d</fix>
</trkpt>
<trkpt lat="-27.274412" lon="151.2900748">
  <ele>357.95</ele>
  <time>2026-09-01T19:51:02Z</time>
  <course>72.07</course>
  <speed>0.3</speed>
  <fix>3d</fix>
</trkpt>
<trkpt lat="-27.2744116" lon="151.290075">
  <ele>358.16</ele>
  <time>2026-09-01T19:51:02Z</time>
  <course>227.52</course>
  <speed>0.3</speed>
  <fix>3d</fix>
</trkpt>
<trkpt lat="-27.2744122" lon="151.2900746">
  <ele>357.95</ele>
  <time>2026-09-01T19:51:02Z</time>
  <course>69.95</course>
  <speed>0.31622776601683794</speed>
  <fix>3d</fix>
</trkpt>
<trkpt lat="-27.274412" lon="151.2900746">
  <ele>358.16</ele>
  <time>2026-09-01T19:51:02Z</time>
  <course>222.12</course>
  <speed>0.33</speed>
  <fix>3d</fix>
</trkpt>
<trkpt lat="-27.2744125" lon="151.2900744">
  <ele>357.95</ele>
  <time>2026-09-01T19:51:02Z</time>
  <course>67.84</course>
  <speed>0.3328663395418648</speed>
  <fix>3d</fix>
</trkpt>
<trkpt lat="-27.274412" lon="151.2900746">
  <ele>358.16</ele>
  <time>2026-09-01T19:51:02Z</time>
  <course>222.12</course>
  <speed>0.33</speed>
  <fix>3d</fix>
</trkpt>
<trkpt lat="-27.2744128" lon="151.2900741">
  <ele>357.96</ele>
  <time>2026-09-01T19:51:02Z</time>
  <course>65.74</course>
  <speed>0.34985711369071804</speed>
  <fix>3d</fix>
</trkpt>
<trkpt lat="-27.2744125" lon="151.2900741">
  <ele>358.16</ele>
  <time>2026-09-01T19:51:02Z</time>
  <course>217.65</course>
  <speed>0.37</speed>
  <fix>3d</fix>
</trkpt>
<trkpt lat="-27.2744131" lon="151.2900739">
  <ele>357.96</ele>
  <time>2026-09-01T19:51:02Z</time>
  <course>63.65</course>
  <speed>0.3584689665786984</speed>
  <fix>3d</fix>
</trkpt>
<trkpt lat="-27.2744125" lon="151.2900741">
  <ele>358.16</ele>
  <time>2026-09-01T19:51:02Z</time>
  <course>217.65</course>
  <speed>0.37</speed>
  <fix>3d</fix>
</trkpt>
<trkpt lat="-27.2744134" lon="151.2900737">
  <ele>357.96</ele>
  <time>2026-09-01T19:51:02Z</time>
  <course>61.83</course>
  <speed>0.37589892258425</speed>
  <fix>3d</fix>
</trkpt>
<trkpt lat="-27.2744131" lon="151.2900737">
  <ele>358.16</ele>
  <time>2026-09-01T19:51:02Z</time>
  <course>213.89</course>
  <speed>0.4</speed>
  <fix>3d</fix>
</trkpt>
<trkpt lat="-27.2744137" lon="151.2900735">
  <ele>357.96</ele>
  <time>2026-09-01T19:51:02Z</time>
  <course>60.7</course>
  <speed>0.38013155617496425</speed>
  <fix>3d</fix>
</trkpt>
<trkpt lat="-27.2744131" lon="151.2900737">
  <ele>358.16</ele>
  <time>2026-09-01T19:51:02Z</time>
  <course>213.89</course>
  <speed>0.4</speed>
  <fix>3d</fix>
</trkpt>
<trkpt lat="-27.2744141" lon="151.2900733">
  <ele>357.96</ele>
  <time>2026-09-01T19:51:02Z</time>
  <course>60.36</course>
  <speed>0.39812058474788764</speed>
  <fix>3d</fix>
</trkpt>
<trkpt lat="-27.2744137" lon="151.2900732">
  <ele>358.16</ele>
  <time>2026-09-01T19:51:02Z</time>
  <course>210.66</course>
  <speed>0.42</speed>
  <fix>3d</fix>
</trkpt>
<trkpt lat="-27.2744144" lon="151.290073">
  <ele>357.96</ele>
  <time>2026-09-01T19:51:02Z</time>
  <course>60.69</course>
  <speed>0.40311288741492746</speed>
  <fix>3d</fix>
</trkpt>
<trkpt lat="-27.2744137" lon="151.2900732">
  <ele>358.16</ele>
  <time>2026-09-01T19:51:02Z</time>
  <course>210.66</course>
  <speed>0.42</speed>
  <fix>3d</fix>
</trkpt>
<trkpt lat="-27.2744148" lon="151.2900728">
  <ele>357.96</ele>
  <time>2026-09-01T19:51:02Z</time>
  <course>61.49</course>
  <speed>0.41231056256176607</speed>
  <fix>3d</fix>
</trkpt>
<trkpt lat="-27.2744143" lon="151.2900728">
  <ele>358.16</ele>
  <time>2026-09-01T19:51:02Z</time>
  <course>207.74</course>
  <speed>0.44</speed>
  <fix>3d</fix>
</trkpt>
<trkpt lat="-27.2744152" lon="151.2900726">
  <ele>357.96</ele>
  <time>2026-09-01T19:51:02Z</time>
  <course>62.56</course>
  <speed>0.41785164831552357</speed>
  <fix>3d</fix>
</trkpt>
<trkpt lat="-27.2744143" lon="151.2900728">
  <ele>358.16</ele>
  <time>2026-09-01T19:51:02Z</time>
  <course>207.74</course>
  <speed>0.44</speed>
  <fix>3d</fix>
</trkpt>
<trkpt lat="-27.2744155" lon="151.2900724">
  <ele>357.96</ele>
  <time>2026-09-01T19:51:02Z</time>
  <course>63.69</course>
  <speed>0.42379240200834184</speed>
  <fix>3d</fix>
</trkpt>
<trkpt lat="-27.2744151" lon="151.2900723">
  <ele>358.16</ele>
  <time>2026-09-01T19:51:02Z</time>
  <course>204.86</course>
  <speed>0.46</speed>
  <fix>3d</fix>
</trkpt>
<trkpt lat="-27.2744159" lon="151.2900723">
  <ele>357.96</ele>
  <time>2026-09-01T19:51:02Z</time>
  <course>64.71</course>
  <speed>0.4301162633521314</speed>
  <fix>3d</fix>
</trkpt>
<trkpt lat="-27.2744151" lon="151.2900723">
  <ele>358.16</ele>
  <time>2026-09-01T19:51:02Z</time>
  <course>204.86</course>
  <speed>0.46</speed>
  <fix>3d</fix>
</trkpt>
<trkpt lat="-27.2744163" lon="151.2900721">
  <ele>357.96</ele>
  <time>2026-09-01T19:51:02Z</time>
  <course>65.49</course>
  <speed>0.4368065933568311</speed>
  <fix>3d</fix>
</trkpt>
<trkpt lat="-27.2744159" lon="151.290072">
  <ele>358.17</ele>
  <time>2026-09-01T19:51:02Z</time>
  <course>201.78</course>
  <speed>0.47</speed>
  <fix>3d</fix>
</trkpt>
<trkpt lat="-27.2744167" lon="151.2900719">
  <ele>357.96</ele>
  <time>2026-09-01T19:51:02Z</time>
  <course>65.97</course>
  <speed>0.44147480109288234</speed>
  <fix>3d</fix>
</trkpt>
<trkpt lat="-27.2744159" lon="151.290072">
  <ele>358.17</ele>
  <time>2026-09-01T19:51:02Z</time>
  <course>201.78</course>
  <speed>0.47</speed>
  <fix>3d</fix>
</trkpt>
<trkpt lat="-27.2744172" lon="151.2900718">
  <ele>357.95</ele>
  <time>2026-09-01T19:51:02Z</time>
  <course>66.14</course>
  <speed>0.4491102314577124</speed>
  <fix>3d</fix>
</trkpt>
<trkpt lat="-27.2744166" lon="151.2900717">
  <ele>358.16</ele>
  <time>2026-09-01T19:51:02Z</time>
  <course>198.35</course>
  <speed>0.48</speed>
  <fix>3d</fix>
</trkpt>
<trkpt lat="-27.2744176" lon="151.2900717">
  <ele>357.95</ele>
  <time>2026-09-01T19:51:02Z</time>
  <course>66.06</course>
  <speed>0.4570557952810576</speed>
  <fix>3d</fix>
</trkpt>
<trkpt lat="-27.2744166" lon="151.2900717">
  <ele>358.16</ele>
  <time>2026-09-01T19:51:02Z</time>
  <course>198.35</course>
  <speed>0.48</speed>
  <fix>3d</fix>
</trkpt>
<trkpt lat="-27.274418" lon="151.2900716">
  <ele>357.95</ele>
  <time>2026-09-01T19:51:02Z</time>
  <course>65.82</course>
  <speed>0.46389654018972803</speed>
  <fix>3d</fix>
</trkpt>
<trkpt lat="-27.2744175" lon="151.2900714">
  <ele>358.16</ele>
  <time>2026-09-01T19:51:02Z</time>
  <course>194.59</course>
  <speed>0.49</speed>
  <fix>3d</fix>
</trkpt>
<trkpt lat="-27.2744185" lon="151.2900715">
  <ele>357.95</ele>
  <time>2026-09-01T19:51:02Z</time>
  <course>66.01</course>
  <speed>0.4617358552246078</speed>
  <fix>3d</fix>
</trkpt>
<trkpt lat="-27.2744175" lon="151.2900714">
  <ele>358.16</ele>
  <time>2026-09-01T19:51:02Z</time>
  <course>194.59</course>
  <speed>0.49</speed>
  <fix>3d</fix>
</trkpt>
<trkpt lat="-27.2744189" lon="151.2900714">
  <ele>357.96</ele>
  <time>2026-09-01T19:51:02Z</time>
  <course>66.88</course>
  <speed>0.4709564735726646</speed>
  <fix>3d</fix>
</trkpt>
<trkpt lat="-27.2744184" lon="151.2900712">
  <ele>358.16</ele>
  <time>2026-09-01T19:51:02Z</time>
  <course>190.63</course>
  <speed>0.5</speed>
  <fix>3d</fix>
</trkpt>
<trkpt lat="-27.2744194" lon="151.2900714">
  <ele>357.96</ele>
  <time>2026-09-01T19:51:02Z</time>
  <course>68.29</course>
  <speed>0.4801041553663121</speed>
  <fix>3d</fix>
</trkpt>
<trkpt lat="-27.2744184" lon="151.2900712">
  <ele>358.16</ele>
  <time>2026-09-01T19:51:02Z</time>
  <course>190.63</course>
  <speed>0.5</speed>
  <fix>3d</fix>
</trkpt>
<trkpt lat="-27.2744199" lon="151.2900713">
  <ele>357.96</ele>
  <time>2026-09-01T19:51:02Z</time>
  <course>70.07</course>
  <speed>0.49</speed>
  <fix>3d</fix>
</trkpt>
<trkpt lat="-27.2744193" lon="151.290071">
  <ele>358.16</ele>
  <time>2026-09-01T19:51:02Z</time>
  <course>186.54</course>
  <speed>0.51</speed>
  <fix>3d</fix>
</trkpt>
<trkpt lat="-27.2744203" lon="151.2900713">
  <ele>357.96</ele>
  <time>2026-09-01T19:51:02Z</time>
  <course>72.09</course>
  <speed>0.5003998401278722</speed>
  <fix>3d</fix>
</trkpt>
<trkpt lat="-27.2744193" lon="151.290071">
  <ele>358.16</ele>
  <time>2026-09-01T19:51:02Z</time>
  <course>186.54</course>
  <speed>0.51</speed>
  <fix>3d</fix>
</trkpt>
<trkpt lat="-27.2744208" lon="151.2900713">
  <ele>357.97</ele>
  <time>2026-09-01T19:51:02Z</time>
  <course>74.26</course>
  <speed>0.5115662224971466</speed>
  <fix>3d</fix>
</trkpt>
<trkpt lat="-27.2744203" lon="151.2900709">
  <ele>358.17</ele>
  <time>2026-09-01T19:51:02Z</time>
  <course>182.27</course>
  <speed>0.53</speed>
  <fix>3d</fix>
</trkpt>
<trkpt lat="-27.2744213" lon="151.2900713">
  <ele>357.97</ele>
  <time>2026-09-01T19:51:02Z</time>
  <course>76.53</course>
  <speed>0.523450093132096</speed>
  <fix>3d</fix>
</trkpt>
<trkpt lat="-27.2744203" lon="151.2900709">
  <ele>358.17</ele>
  <time>2026-09-01T19:51:02Z</time>
  <course>182.27</course>
  <speed>0.53</speed>
  <fix>3d</fix>
</trkpt>
<trkpt lat="-27.2744218" lon="151.2900714">
  <ele>357.97</ele>
  <time>2026-09-01T19:51:02Z</time>
  <course>78.86</course>
  <speed>0.5375872022286245</speed>
  <fix>3d</fix>
</trkpt>
<trkpt lat="-27.2744212" lon="151.2900709">
  <ele>358.16</ele>
  <time>2026-09-01T19:51:02Z</time>
  <course>177.71</course>
  <speed>0.55</speed>
  <fix>3d</fix>
</trkpt>
<trkpt lat="-27.2744223" lon="151.2900714">
  <ele>357.97</ele>
  <time>2026-09-01T19:51:02Z</time>
  <course>81.22</course>
  <speed>0.5608921464952064</speed>
  <fix>3d</fix>
</trkpt>
<trkpt lat="-27.2744212" lon="151.2900709">
  <ele>358.16</ele>
  <time>2026-09-01T19:51:02Z</time>
  <course>177.71</course>
  <speed>0.55</speed>
  <fix>3d</fix>
</trkpt>
<trkpt lat="-27.2744229" lon="151.2900714">
  <ele>357.97</ele>
  <time>2026-09-01T19:51:02Z</time>
  <course>83.59</course>
  <speed>0.5787054518492115</speed>
  <fix>3d</fix>
</trkpt>
<trkpt lat="-27.2744222" lon="151.2900709">
  <ele>358.16</ele>
  <time>2026-09-01T19:51:02Z</time>
  <course>173.28</course>
  <speed>0.58</speed>
  <fix>3d</fix>
</trkpt>
<trkpt lat="-27.2744234" lon="151.2900715">
  <ele>357.97</ele>
  <time>2026-09-01T19:51:02Z</time>
  <course>85.94</course>
  <speed>0.596824932455071</speed>
  <fix>3d</fix>
</trkpt>
<trkpt lat="-27.2744222" lon="151.2900709">
  <ele>358.16</ele>
  <time>2026-09-01T19:51:02Z</time>
  <course>173.28</course>
  <speed>0.58</speed>
  <fix>3d</fix>
</trkpt>
<trkpt lat="-27.274424" lon="151.2900715">
  <ele>357.96</ele>
  <time>2026-09-01T19:51:02Z</time>
  <course>87.77</course>
  <speed>0.6040695324215583</speed>
  <fix>3d</fix>
</trkpt>
<trkpt lat="-27.2744233" lon="151.290071">
  <ele>358.16</ele>
  <time>2026-09-01T19:51:02Z</time>
  <course>172.41</course>
  <speed>0.61</speed>
  <fix>3d</fix>
</trkpt>
<trkpt lat="-27.2744246" lon="151.2900716">
  <ele>357.96</ele>
  <time>2026-09-01T19:51:02Z</time>
  <course>88.76</course>
  <speed>0.6239390995922599</speed>
  <fix>3d</fix>
</trkpt>
<trkpt lat="-27.2744233" lon="151.290071">
  <ele>358.16</ele>
  <time>2026-09-01T19:51:02Z</time>
  <course>172.41</course>
  <speed>0.61</speed>
  <fix>3d</fix>
</trkpt>
<trkpt lat="-27.2744252" lon="151.2900716">
  <ele>357.96</ele>
  <time>2026-09-01T19:51:02Z</time>
  <course>88.92</course>
  <speed>0.6428063471995279</speed>
  <fix>3d</fix>
</trkpt>
<trkpt lat="-27.2744244" lon="151.2900712">
  <ele>358.16</ele>
  <time>2026-09-01T19:51:02Z</time>
  <course>174.45</course>
  <speed>0.64</speed>
  <fix>3d</fix>
</trkpt>
<trkpt lat="-27.2744258" lon="151.2900716">
  <ele>357.96</ele>
  <time>2026-09-01T19:51:02Z</time>
  <course>88.44</course>
  <speed>0.6519202405202649</speed>
  <fix>3d</fix>
</trkpt>
<trkpt lat="-27.2744244" lon="151.2900712">
  <ele>358.16</ele>
  <time>2026-09-01T19:51:02Z</time>
  <course>174.45</course>
  <speed>0.64</speed>
  <fix>3d</fix>
</trkpt>
<trkpt lat="-27.2744264" lon="151.2900716">
  <ele>357.96</ele>
  <time>2026-09-01T19:51:02Z</time>
  <course>87.55</course>
  <speed>0.6612110101926616</speed>
  <fix>3d</fix>
</trkpt>
<trkpt lat="-27.2744256" lon="151.2900713">
  <ele>358.15</ele>
  <time>2026-09-01T19:51:02Z</time>
  <course>176.14</course>
  <speed>0.67</speed>
  <fix>3d</fix>
</trkpt>
<trkpt lat="-27.2744271" lon="151.2900717">
  <ele>357.96</ele>
  <time>2026-09-01T19:51:02Z</time>
  <course>86.44</course>
  <speed>0.671863081289633</speed>
  <fix>3d</fix>
</trkpt>
<trkpt lat="-27.2744256" lon="151.2900713">
  <ele>358.15</ele>
  <time>2026-09-01T19:51:02Z</time>
  <course>176.14</course>
  <speed>0.67</speed>
  <fix>3d</fix>
</trkpt>
<trkpt lat="-27.2744277" lon="151.2900717">
  <ele>357.96</ele>
  <time>2026-09-01T19:51:02Z</time>
  <course>85.3</course>
  <speed>0.6826419266350405</speed>
  <fix>3d</fix>
</trkpt>
<trkpt lat="-27.2744268" lon="151.2900714">
  <ele>358.15</ele>
  <time>2026-09-01T19:51:02Z</time>
  <course>176.9</course>
  <speed>0.7</speed>
  <fix>3d</fix>
</trkpt>
<trkpt lat="-27.2744283" lon="151.2900717">
  <ele>357.96</ele>
  <time>2026-09-01T19:51:02Z</time>
  <course>84.3</course>
  <speed>0.6935416353759881</speed>
  <fix>3d</fix>
</trkpt>
<trkpt lat="-27.2744268" lon="151.2900714">
  <ele>358.15</ele>
  <time>2026-09-01T19:51:02Z</time>
  <course>176.9</course>
  <speed>0.7</speed>
  <fix>3d</fix>
</trkpt>
<trkpt lat="-27.274429" lon="151.2900718">
  <ele>357.96</ele>
  <time>2026-09-01T19:51:02Z</time>
  <course>83.56</course>
  <speed>0.7045565981523414</speed>
  <fix>3d</fix>
</trkpt>
<trkpt lat="-27.2744281" lon="151.2900715">
  <ele>358.15</ele>
  <time>2026-09-01T19:51:02Z</time>
  <course>175.82</course>
  <speed>0.72</speed>
  <fix>3d</fix>
</trkpt>
<trkpt lat="-27.2744297" lon="151.2900719">
  <ele>357.96</ele>
  <time>2026-09-01T19:51:02Z</time>
  <course>82.93</course>
  <speed>0.7057619995437555</speed>
  <fix>3d</fix>
</trkpt>
<trkpt lat="-27.2744281" lon="151.2900715">
  <ele>358.15</ele>
  <time>2026-09-01T19:51:02Z</time>
  <course>175.82</course>
  <speed>0.72</speed>
  <fix>3d</fix>
</trkpt>
<trkpt lat="-27.2744303" lon="151.2900719">
  <ele>357.96</ele>
  <time>2026-09-01T19:51:02Z</time>
  <course>82.01</course>
  <speed>0.717007670809734</speed>
  <fix>3d</fix>
</trkpt>
<trkpt lat="-27.2744294" lon="151.2900717">
  <ele>358.15</ele>
  <time>2026-09-01T19:51:02Z</time>
  <course>174.07</course>
  <speed>0.73</speed>
  <fix>3d</fix>
</trkpt>
<trkpt lat="-27.274431" lon="151.290072">
  <ele>357.96</ele>
  <time>2026-09-01T19:51:02Z</time>
  <course>80.79</course>
  <speed>0.7200694410957876</speed>
  <fix>3d</fix>
</trkpt>
<trkpt lat="-27.2744294" lon="151.2900717">
  <ele>358.15</ele>
  <time>2026-09-01T19:51:02Z</time>
  <course>174.07</course>
  <speed>0.73</speed>
  <fix>3d</fix>
</trkpt>
<trkpt lat="-27.2744317" lon="151.2900722">
  <ele>357.96</ele>
  <time>2026-09-01T19:51:02Z</time>
  <course>79.36</course>
  <speed>0.73348483283569</speed>
  <fix>3d</fix>
</trkpt>
<trkpt lat="-27.2744308" lon="151.2900718">
  <ele>358.15</ele>
  <time>2026-09-01T19:51:02Z</time>
  <course>172.34</course>
  <speed>0.75</speed>
  <fix>3d</fix>
</trkpt>
<trkpt lat="-27.2744324" lon="151.2900723">
  <ele>357.96</ele>
  <time>2026-09-01T19:51:02Z</time>
  <course>77.79</course>
  <speed>0.737563556583431</speed>
  <fix>3d</fix>
</trkpt>
<trkpt lat="-27.2744308" lon="151.2900718">
  <ele>358.15</ele>
  <time>2026-09-01T19:51:02Z</time>
  <course>172.34</course>
  <speed>0.75</speed>
  <fix>3d</fix>
</trkpt>
<trkpt lat="-27.274433" lon="151.2900725">
  <ele>357.96</ele>
  <time>2026-09-01T19:51:02Z</time>
  <course>76.13</course>
  <speed>0.7446475676452586</speed>
  <fix>3d</fix>
</trkpt>
<trkpt lat="-27.2744321" lon="151.290072">
  <ele>358.15</ele>
  <time>2026-09-01T19:51:02Z</time>
  <course>169.78</course>
  <speed>0.76</speed>
  <fix>3d</fix>
</trkpt>
<trkpt lat="-27.2744337" lon="151.2900727">
  <ele>357.96</ele>
  <time>2026-09-01T19:51:02Z</time>
  <course>74.42</course>
  <speed>0.7404052944165107</speed>
  <fix>3d</fix>
</trkpt>
<trkpt lat="-27.2744321" lon="151.290072">
  <ele>358.15</ele>
  <time>2026-09-01T19:51:02Z</time>
  <course>169.78</course>
  <speed>0.76</speed>
  <fix>3d</fix>
</trkpt>
<trkpt lat="-27.2744344" lon="151.2900729">
  <ele>357.95</ele>
  <time>2026-09-01T19:51:02Z</time>
  <course>72.67</course>
  <speed>0.7494664769020694</speed>
  <fix>3d</fix>
</trkpt>
<trkpt lat="-27.2744335" lon="151.2900723">
  <ele>358.14</ele>
  <time>2026-09-01T19:51:02Z</time>
  <course>166.61</course>
  <speed>0.77</speed>
  <fix>3d</fix>
</trkpt>
<trkpt lat="-27.2744351" lon="151.2900731">
  <ele>357.95</ele>
  <time>2026-09-01T19:51:02Z</time>
  <course>70.9</course>
  <speed>0.7539230729988305</speed>
  <fix>3d</fix>
</trkpt>
<trkpt lat="-27.2744335" lon="151.2900723">
  <ele>358.14</ele>
  <time>2026-09-01T19:51:02Z</time>
  <course>166.61</course>
  <speed>0.77</speed>
  <fix>3d</fix>
</trkpt>
<trkpt lat="-27.2744357" lon="151.2900734">
  <ele>357.95</ele>
  <time>2026-09-01T19:51:02Z</time>
  <course>69.12</course>
  <speed>0.7564390259630978</speed>
  <fix>3d</fix>
</trkpt>
<trkpt lat="-27.2744348" lon="151.2900728">
  <ele>358.14</ele>
  <time>2026-09-01T19:51:02Z</time>
  <course>163.18</course>
  <speed>0.78</speed>
  <fix>3d</fix>
</trkpt>
<trkpt lat="-27.2744364" lon="151.2900737">
  <ele>357.95</ele>
  <time>2026-09-01T19:51:02Z</time>
  <course>67.34</course>
  <speed>0.7648529270389177</speed>
  <fix>3d</fix>
</trkpt>
<trkpt lat="-27.2744348" lon="151.2900728">
  <ele>358.14</ele>
  <time>2026-09-01T19:51:02Z</time>
  <course>163.18</course>
  <speed>0.78</speed>
  <fix>3d</fix>
</trkpt>
<trkpt lat="-27.274437" lon="151.290074">
  <ele>357.95</ele>
  <time>2026-09-01T19:51:02Z</time>
  <course>65.55</course>
  <speed>0.7602631123499285</speed>
  <fix>3d</fix>
</trkpt>
<trkpt lat="-27.2744361" lon="151.2900733">
  <ele>358.14</ele>
  <time>2026-09-01T19:51:02Z</time>
  <course>159.64</course>
  <speed>0.78</speed>
  <fix>3d</fix>
</trkpt>
<trkpt lat="-27.2744377" lon="151.2900744">
  <ele>357.95</ele>
  <time>2026-09-01T19:51:02Z</time>
  <course>63.75</course>
  <speed>0.7694153624668537</speed>
  <fix>3d</fix>
</trkpt>
<trkpt lat="-27.2744361" lon="151.2900733">
  <ele>358.14</ele>
  <time>2026-09-01T19:51:02Z</time>
  <course>159.64</course>
  <speed>0.78</speed>
  <fix>3d</fix>
</trkpt>
<trkpt lat="-27.2744383" lon="151.2900747">
  <ele>357.95</ele>
  <time>2026-09-01T19:51:02Z</time>
  <course>61.96</course>
  <speed>0.7702596964660685</speed>
  <fix>3d</fix>
</trkpt>
<trkpt lat="-27.2744375" lon="151.2900739">
  <ele>358.14</ele>
  <time>2026-09-01T19:51:02Z</time>
  <course>156.06</course>
  <speed>0.79</speed>
  <fix>3d</fix>
</trkpt>
<trkpt lat="-27.274439" lon="151.2900751">
  <ele>357.95</ele>
  <time>2026-09-01T19:51:02Z</time>
  <course>60.14</course>
  <speed>0.7717512552629896</speed>
  <fix>3d</fix>
</trkpt>
<trkpt lat="-27.2744375" lon="151.2900739">
  <ele>358.14</ele>
  <time>2026-09-01T19:51:02Z</time>
  <course>156.06</course>
  <speed>0.79</speed>
  <fix>3d</fix>
</trkpt>
<trkpt lat="-27.2744396" lon="151.2900755">
  <ele>357.95</ele>
  <time>2026-09-01T19:51:02Z</time>
  <course>58.35</course>
  <speed>0.7655063683601856</speed>
  <fix>3d</fix>
</trkpt>
<trkpt lat="-27.2744388" lon="151.2900746">
  <ele>358.14</ele>
  <time>2026-09-01T19:51:02Z</time>
  <course>152.47</course>
  <speed>0.79</speed>
  <fix>3d</fix>
</trkpt>
<trkpt lat="-27.2744402" lon="151.2900759">
  <ele>357.94</ele>
  <time>2026-09-01T19:51:02Z</time>
  <course>56.55</course>
  <speed>0.7684399781375251</speed>
  <fix>3d</fix>
</trkpt>
<trkpt lat="-27.2744388" lon="151.2900746">
  <ele>358.14</ele>
  <time>2026-09-01T19:51:02Z</time>
  <course>152.47</course>
  <speed>0.79</speed>
  <fix>3d</fix>
</trkpt>
<trkpt lat="-27.2744408" lon="151.2900764">
  <ele>357.94</ele>
  <time>2026-09-01T19:51:02Z</time>
  <course>54.75</course>
  <speed>0.7720103626247513</speed>
  <fix>3d</fix>
</trkpt>
<trkpt lat="-27.27444" lon="151.2900753">
  <ele>358.14</ele>
  <time>2026-09-01T19:51:02Z</time>
  <course>148.88</course>
  <speed>0.79</speed>
  <fix>3d</fix>
</trkpt>
<trkpt lat="-27.2744414" lon="151.2900768">
  <ele>357.94</ele>
  <time>2026-09-01T19:51:02Z</time>
  <course>52.96</course>
  <speed>0.7683749084919418</speed>
  <fix>3d</fix>
</trkpt>
<trkpt lat="-27.27444" lon="151.2900753">
  <ele>358.14</ele>
  <time>2026-09-01T19:51:02Z</time>
  <course>148.88</course>
  <speed>0.79</speed>
  <fix>3d</fix>
</trkpt>
<trkpt lat="-27.2744419" lon="151.2900773">
  <ele>357.94</ele>
  <time>2026-09-01T19:51:02Z</time>
  <course>51.4</course>
  <speed>0.7592759709091287</speed>
  <fix>3d</fix>
</trkpt>
<trkpt lat="-27.2744412" lon="151.2900762">
  <ele>358.14</ele>
  <time>2026-09-01T19:51:02Z</time>
  <course>145.29</course>
  <speed>0.79</speed>
  <fix>3d</fix>
</trkpt>
<trkpt lat="-27.2744425" lon="151.2900778">
  <ele>357.94</ele>
  <time>2026-09-01T19:51:02Z</time>
  <course>50.46</course>
  <speed>0.7582216034906945</speed>
  <fix>3d</fix>
</trkpt>
<trkpt lat="-27.2744412" lon="151.2900762">
  <ele>358.14</ele>
  <time>2026-09-01T19:51:02Z</time>
  <course>145.29</course>
  <speed>0.79</speed>
  <fix>3d</fix>
</trkpt>
<trkpt lat="-27.274443" lon="151.2900783">
  <ele>357.94</ele>
  <time>2026-09-01T19:51:02Z</time>
  <course>50.22</course>
  <speed>0.7441102068914255</speed>
  <fix>3d</fix>
</trkpt>
<trkpt lat="-27.2744423" lon="151.2900771">
  <ele>358.14</ele>
  <time>2026-09-01T19:51:02Z</time>
  <course>142.22</course>
  <speed>0.78</speed>
  <fix>3d</fix>
</trkpt>
<trkpt lat="-27.2744436" lon="151.2900787">
  <ele>357.94</ele>
  <time>2026-09-01T19:51:02Z</time>
  <course>50.57</course>
  <speed>0.737563556583431</speed>
  <fix>3d</fix>
</trkpt>
<trkpt lat="-27.2744423" lon="151.2900771">
  <ele>358.14</ele>
  <time>2026-09-01T19:51:02Z</time>
  <course>142.22</course>
  <speed>0.78</speed>
  <fix>3d</fix>
</trkpt>
<trkpt lat="-27.2744441" lon="151.2900792">
  <ele>357.94</ele>
  <time>2026-09-01T19:51:02Z</time>
  <course>51.32</course>
  <speed>0.7234638899074369</speed>
  <fix>3d</fix>
</trkpt>
<trkpt lat="-27.2744434" lon="151.2900781">
  <ele>358.14</ele>
  <time>2026-09-01T19:51:02Z</time>
  <course>140.95</course>
  <speed>0.76</speed>
  <fix>3d</fix>
</trkpt>
<trkpt lat="-27.2744446" lon="151.2900796">
  <ele>357.94</ele>
  <time>2026-09-01T19:51:02Z</time>
  <course>52.26</course>
  <speed>0.702922470831599</speed>
  <fix>3d</fix>
</trkpt>
<trkpt lat="-27.2744434" lon="151.2900781">
  <ele>358.14</ele>
  <time>2026-09-01T19:51:02Z</time>
  <course>140.95</course>
  <speed>0.76</speed>
  <fix>3d</fix>
</trkpt>
<trkpt lat="-27.2744451" lon="151.2900801">
  <ele>357.95</ele>
  <time>2026-09-01T19:51:02Z</time>
  <course>53.21</course>
  <speed>0.6902897942168927</speed>
  <fix>3d</fix>
</trkpt>
<trkpt lat="-27.2744445" lon="151.2900791">
  <ele>358.14</ele>
  <time>2026-09-01T19:51:02Z</time>
  <course>141.55</course>
  <speed>0.74</speed>
  <fix>3d</fix>
</trkpt>
<trkpt lat="-27.2744456" lon="151.2900805">
  <ele>357.95</ele>
  <time>2026-09-01T19:51:02Z</time>
  <course>54.03</course>
  <speed>0.6762396025078685</speed>
  <fix>3d</fix>
</trkpt>
<trkpt lat="-27.2744445" lon="151.2900791">
  <ele>358.14</ele>
  <time>2026-09-01T19:51:02Z</time>
  <course>141.55</course>
  <speed>0.74</speed>
  <fix>3d</fix>
</trkpt>
<trkpt lat="-27.2744461" lon="151.2900809">
  <ele>357.96</ele>
  <time>2026-09-01T19:51:02Z</time>
  <course>54.62</course>
  <speed>0.656048778674269</speed>
  <fix>3d</fix>
</trkpt>
<trkpt lat="-27.2744455" lon="151.29008">
  <ele>358.14</ele>
  <time>2026-09-01T19:51:02Z</time>
  <course>142.78</course>
  <speed>0.71</speed>
  <fix>3d</fix>
</trkpt>
<trkpt lat="-27.2744466" lon="151.2900813">
  <ele>357.96</ele>
  <time>2026-09-01T19:51:02Z</time>
  <course>54.94</course>
  <speed>0.6360031446463138</speed>
  <fix>3d</fix>
</trkpt>
<trkpt lat="-27.2744455" lon="151.29008">
  <ele>358.14</ele>
  <time>2026-09-01T19:51:02Z</time>
  <course>142.78</course>
  <speed>0.71</speed>
  <fix>3d</fix>
</trkpt>
<trkpt lat="-27.2744471" lon="151.2900816">
  <ele>357.96</ele>
  <time>2026-09-01T19:51:02Z</time>
  <course>55.01</course>
  <speed>0.6220128616033594</speed>
  <fix>3d</fix>
</trkpt>
<trkpt lat="-27.2744466" lon="151.2900809">
  <ele>358.15</ele>
  <time>2026-09-01T19:51:02Z</time>
  <course>144.12</course>
  <speed>0.68</speed>
  <fix>3d</fix>
</trkpt>
<trkpt lat="-27.2744476" lon="151.290082">
  <ele>357.97</ele>
  <time>2026-09-01T19:51:02Z</time>
  <course>54.87</course>
  <speed>0.6080296045424105</speed>
  <fix>3d</fix>
</trkpt>
<trkpt lat="-27.2744466" lon="151.2900809">
  <ele>358.15</ele>
  <time>2026-09-01T19:51:02Z</time>
  <course>144.12</course>
  <speed>0.68</speed>
  <fix>3d</fix>
</trkpt>
<trkpt lat="-27.2744481" lon="151.2900824">
  <ele>357.97</ele>
  <time>2026-09-01T19:51:02Z</time>
  <course>54.82</course>
  <speed>0.5940538696111658</speed>
  <fix>3d</fix>
</trkpt>
<trkpt lat="-27.2744475" lon="151.2900817">
  <ele>358.15</ele>
  <time>2026-09-01T19:51:02Z</time>
  <course>145.14</course>
  <speed>0.65</speed>
  <fix>3d</fix>
</trkpt>
<trkpt lat="-27.2744485" lon="151.2900827">
  <ele>357.97</ele>
  <time>2026-09-01T19:51:02Z</time>
  <course>55.43</course>
  <speed>0.5800862004909271</speed>
  <fix>3d</fix>
</trkpt>
<trkpt lat="-27.2744475" lon="151.2900817">
  <ele>358.15</ele>
  <time>2026-09-01T19:51:02Z</time>
  <course>145.14</course>
  <speed>0.65</speed>
  <fix>3d</fix>
</trkpt>
<trkpt lat="-27.274449" lon="151.290083">
  <ele>357.97</ele>
  <time>2026-09-01T19:51:02Z</time>
  <course>56.66</course>
  <speed>0.560357029044876</speed>
  <fix>3d</fix>
</trkpt>
<trkpt lat="-27.2744484" lon="151.2900824">
  <ele>358.16</ele>
  <time>2026-09-01T19:51:02Z</time>
  <course>145.64</course>
  <speed>0.61</speed>
  <fix>3d</fix>
</trkpt>
<trkpt lat="-27.2744494" lon="151.2900834">
  <ele>357.97</ele>
  <time>2026-09-01T19:51:02Z</time>
  <course>58.33</course>
  <speed>0.5408326913195984</speed>
  <fix>3d</fix>
</trkpt>
<trkpt lat="-27.2744484" lon="151.2900824">
  <ele>358.16</ele>
  <time>2026-09-01T19:51:02Z</time>
  <course>145.64</course>
  <speed>0.61</speed>
  <fix>3d</fix>
</trkpt>
<trkpt lat="-27.2744499" lon="151.2900837">
  <ele>357.97</ele>
  <time>2026-09-01T19:51:02Z</time>
  <course>60.29</course>
  <speed>0.53</speed>
  <fix>3d</fix>
</trkpt>
<trkpt lat="-27.2744493" lon="151.2900831">
  <ele>358.16</ele>
  <time>2026-09-01T19:51:02Z</time>
  <course>146.88</course>
  <speed>0.58</speed>
  <fix>3d</fix>
</trkpt>
<trkpt lat="-27.2744503" lon="151.2900839">
  <ele>357.97</ele>
  <time>2026-09-01T19:51:02Z</time>
  <course>62.41</course>
  <speed>0.5162363799656123</speed>
  <fix>3d</fix>
</trkpt>
<trkpt lat="-27.2744493" lon="151.2900831">
  <ele>358.16</ele>
  <time>2026-09-01T19:51:02Z</time>
  <course>146.88</course>
  <speed>0.58</speed>
  <fix>3d</fix>
</trkpt>
<trkpt lat="-27.2744507" lon="151.2900842">
  <ele>357.97</ele>
  <time>2026-09-01T19:51:02Z</time>
  <course>64.63</course>
  <speed>0.4973932046178355</speed>
  <fix>3d</fix>
</trkpt>
<trkpt lat="-27.2744502" lon="151.2900837">
  <ele>358.16</ele>
  <time>2026-09-01T19:51:02Z</time>
  <course>149.18</course>
  <speed>0.55</speed>
  <fix>3d</fix>
</trkpt>
<trkpt lat="-27.2744511" lon="151.2900844">
  <ele>357.97</ele>
  <time>2026-09-01T19:51:02Z</time>
  <course>66.92</course>
  <speed>0.4876474136094644</speed>
  <fix>3d</fix>
</trkpt>
<trkpt lat="-27.2744502" lon="151.2900837">
  <ele>358.16</ele>
  <time>2026-09-01T19:51:02Z</time>
  <course>149.18</course>
  <speed>0.55</speed>
  <fix>3d</fix>
</trkpt>
<trkpt lat="-27.2744515" lon="151.2900847">
  <ele>357.97</ele>
  <time>2026-09-01T19:51:02Z</time>
  <course>69.25</course>
  <speed>0.4741307836451879</speed>
  <fix>3d</fix>
</trkpt>
<trkpt lat="-27.2744511" lon="151.2900842">
  <ele>358.16</ele>
  <time>2026-09-01T19:51:02Z</time>
  <course>151.67</course>
  <speed>0.52</speed>
  <fix>3d</fix>
</trkpt>
<trkpt lat="-27.2744519" lon="151.2900849">
  <ele>357.97</ele>
  <time>2026-09-01T19:51:02Z</time>
  <course>71.6</course>
  <speed>0.4561797891182817</speed>
  <fix>3d</fix>
</trkpt>
<trkpt lat="-27.2744511" lon="151.2900842">
  <ele>358.16</ele>
  <time>2026-09-01T19:51:02Z</time>
  <course>151.67</course>
  <speed>0.52</speed>
  <fix>3d</fix>
</trkpt>
<trkpt lat="-27.2744523" lon="151.2900851">
  <ele>357.97</ele>
  <time>2026-09-01T19:51:02Z</time>
  <course>73.96</course>
  <speed>0.4477722635447622</speed>
  <fix>3d</fix>
</trkpt>
<trkpt lat="-27.2744519" lon="151.2900847">
  <ele>358.16</ele>
  <time>2026-09-01T19:51:02Z</time>
  <course>154.35</course>
  <speed>0.49</speed>
  <fix>3d</fix>
</trkpt>
<trkpt lat="-27.2744527" lon="151.2900853">
  <ele>357.97</ele>
  <time>2026-09-01T19:51:02Z</time>
  <course>76.01</course>
  <speed>0.4346262762420146</speed>
  <fix>3d</fix>
</trkpt>
<trkpt lat="-27.2744519" lon="151.2900847">
  <ele>358.16</ele>
  <time>2026-09-01T19:51:02Z</time>
  <course>154.35</course>
  <speed>0.49</speed>
  <fix>3d</fix>
</trkpt>
<trkpt lat="-27.2744531" lon="151.2900854">
  <ele>357.97</ele>
  <time>2026-09-01T19:51:02Z</time>
  <course>77.25</course>
  <speed>0.41785164831552357</speed>
  <fix>3d</fix>
</trkpt>
<trkpt lat="-27.2744527" lon="151.2900851">
  <ele>358.16</ele>
  <time>2026-09-01T19:51:02Z</time>
  <course>157.25</course>
  <speed>0.47</speed>
  <fix>3d</fix>
</trkpt>
<trkpt lat="-27.2744535" lon="151.2900856">
  <ele>357.97</ele>
  <time>2026-09-01T19:51:02Z</time>
  <course>77.63</course>
  <speed>0.4016217125604641</speed>
  <fix>3d</fix>
</trkpt>
<trkpt lat="-27.2744527" lon="151.2900851">
  <ele>358.16</ele>
  <time>2026-09-01T19:51:02Z</time>
  <course>157.25</course>
  <speed>0.47</speed>
  <fix>3d</fix>
</trkpt>
<trkpt lat="-27.2744539" lon="151.2900857">
  <ele>357.97</ele>
  <time>2026-09-01T19:51:02Z</time>
  <course>77.26</course>
  <speed>0.38600518131237566</speed>
  <fix>3d</fix>
</trkpt>
<trkpt lat="-27.2744534" lon="151.2900854">
  <ele>358.16</ele>
  <time>2026-09-01T19:51:02Z</time>
  <course>160.49</course>
  <speed>0.44</speed>
  <fix>3d</fix>
</trkpt>
<trkpt lat="-27.2744542" lon="151.2900858">
  <ele>357.96</ele>
  <time>2026-09-01T19:51:02Z</time>
  <course>76.38</course>
  <speed>0.37107950630558945</speed>
  <fix>3d</fix>
</trkpt>
<trkpt lat="-27.2744534" lon="151.2900854">
  <ele>358.16</ele>
  <time>2026-09-01T19:51:02Z</time>
  <course>160.49</course>
  <speed>0.44</speed>
  <fix>3d</fix>
</trkpt>
<trkpt lat="-27.2744546" lon="151.2900859">
  <ele>357.96</ele>
  <time>2026-09-01T19:51:02Z</time>
  <course>75.2</course>
  <speed>0.3590264614203248</speed>
  <fix>3d</fix>
</trkpt>
<trkpt lat="-27.2744542" lon="151.2900857">
  <ele>358.15</ele>
  <time>2026-09-01T19:51:02Z</time>
  <course>164.45</course>
  <speed>0.41</speed>
  <fix>3d</fix>
</trkpt>
<trkpt lat="-27.2744549" lon="151.290086">
  <ele>357.96</ele>
  <time>2026-09-01T19:51:02Z</time>
  <course>73.93</course>
  <speed>0.33734255586865997</speed>
  <fix>3d</fix>
</trkpt>
<trkpt lat="-27.2744542" lon="151.2900857">
  <ele>358.15</ele>
  <time>2026-09-01T19:51:02Z</time>
  <course>164.45</course>
  <speed>0.41</speed>
  <fix>3d</fix>
</trkpt>
<trkpt lat="-27.2744552" lon="151.290086">
  <ele>357.96</ele>
  <time>2026-09-01T19:51:02Z</time>
  <course>72.75</course>
  <speed>0.3255764119219941</speed>
  <fix>3d</fix>
</trkpt>
<trkpt lat="-27.2744549" lon="151.2900859">
  <ele>358.15</ele>
  <time>2026-09-01T19:51:02Z</time>
  <course>168.08</course>
  <speed>0.38</speed>
  <fix>3d</fix>
</trkpt>
<trkpt lat="-27.2744555" lon="151.2900861">
  <ele>357.96</ele>
  <time>2026-09-01T19:51:02Z</time>
  <course>71.84</course>
  <speed>0.304138126514911</speed>
  <fix>3d</fix>
</trkpt>
<trkpt lat="-27.2744549" lon="151.2900859">
  <ele>358.15</ele>
  <time>2026-09-01T19:51:02Z</time>
  <course>168.08</course>
  <speed>0.38</speed>
  <fix>3d</fix>
</trkpt>
<trkpt lat="-27.2744558" lon="151.2900861">
  <ele>357.96</ele>
  <time>2026-09-01T19:51:02Z</time>
  <course>71.05</course>
  <speed>0.282842712474619</speed>
  <fix>3d</fix>
</trkpt>
<trkpt lat="-27.2744555" lon="151.290086">
  <ele>358.15</ele>
  <time>2026-09-01T19:51:02Z</time>
  <course>170.44</course>
  <speed>0.34</speed>
  <fix>3d</fix>
</trkpt>
<trkpt lat="-27.2744561" lon="151.2900862">
  <ele>357.96</ele>
  <time>2026-09-01T19:51:02Z</time>
  <course>69.94</course>
  <speed>0.27166155414412246</speed>
  <fix>3d</fix>
</trkpt>
<trkpt lat="-27.2744555" lon="151.290086">
  <ele>358.15</ele>
  <time>2026-09-01T19:51:02Z</time>
  <course>170.44</course>
  <speed>0.34</speed>
  <fix>3d</fix>
</trkpt>
<trkpt lat="-27.2744563" lon="151.2900862">
  <ele>357.96</ele>
  <time>2026-09-01T19:51:02Z</time>
  <course>68.53</course>
  <speed>0.25079872407968906</speed>
  <fix>3d</fix>
</trkpt>
<trkpt lat="-27.2744561" lon="151.2900861">
  <ele>358.15</ele>
  <time>2026-09-01T19:51:02Z</time>
  <course>172.95</course>
  <speed>0.31</speed>
  <fix>3d</fix>
</trkpt>
<trkpt lat="-27.2744566" lon="151.2900862">
  <ele>357.96</ele>
  <time>2026-09-01T19:51:02Z</time>
  <course>66.9</course>
  <speed>0.23021728866442676</speed>
  <fix>3d</fix>
</trkpt>
<trkpt lat="-27.2744561" lon="151.2900861">
  <ele>358.15</ele>
  <time>2026-09-01T19:51:02Z</time>
  <course>172.95</course>
  <speed>0.31</speed>
  <fix>3d</fix>
</trkpt>
<trkpt lat="-27.2744568" lon="151.2900862">
  <ele>357.96</ele>
  <time>2026-09-01T19:51:02Z</time>
  <course>65.12</course>
  <speed>0.21</speed>
  <fix>3d</fix>
</trkpt>
<trkpt lat="-27.2744566" lon="151.2900862">
  <ele>358.15</ele>
  <time>2026-09-01T19:51:02Z</time>
  <course>176.83</course>
  <speed>0.27</speed>
  <fix>3d</fix>
</trkpt>
<trkpt lat="-27.274457" lon="151.2900862">
  <ele>357.96</ele>
  <time>2026-09-01T19:51:02Z</time>
  <course>63.22</course>
  <speed>0.2002498439450079</speed>
  <fix>3d</fix>
</trkpt>
<trkpt lat="-27.2744566" lon="151.2900862">
  <ele>358.15</ele>
  <time>2026-09-01T19:51:02Z</time>
  <course>176.83</course>
  <speed>0.27</speed>
  <fix>3d</fix>
</trkpt>
<trkpt lat="-27.2744572" lon="151.2900862">
  <ele>357.96</ele>
  <time>2026-09-01T19:51:02Z</time>
  <course>61.27</course>
  <speed>0.1824828759089466</speed>
  <fix>3d</fix>
</trkpt>
<trkpt lat="-27.2744571" lon="151.2900862">
  <ele>358.15</ele>
  <time>2026-09-01T19:51:02Z</time>
  <course>182.7</course>
  <speed>0.24</speed>
  <fix>3d</fix>
</trkpt>
<trkpt lat="-27.2744574" lon="151.2900862">
  <ele>357.96</ele>
  <time>2026-09-01T19:51:02Z</time>
  <course>59.28</course>
  <speed>0.17464249196572978</speed>
  <fix>3d</fix>
</trkpt>
<trkpt lat="-27.2744571" lon="151.2900862">
  <ele>358.15</ele>
  <time>2026-09-01T19:51:02Z</time>
  <course>182.7</course>
  <speed>0.24</speed>
  <fix>3d</fix>
</trkpt>
<trkpt lat="-27.2744576" lon="151.2900862">
  <ele>357.96</ele>
  <time>2026-09-01T19:51:02Z</time>
  <course>57.25</course>
  <speed>0.1615549442140351</speed>
  <fix>3d</fix>
</trkpt>
<trkpt lat="-27.2744574" lon="151.2900862">
  <ele>358.14</ele>
  <time>2026-09-01T19:51:02Z</time>
  <course>191.13</course>
  <speed>0.21</speed>
  <fix>3d</fix>
</trkpt>
<trkpt lat="-27.2744577" lon="151.2900861">
  <ele>357.96</ele>
  <time>2026-09-01T19:51:02Z</time>
  <course>55.21</course>
  <speed>0.147648230602334</speed>
  <fix>3d</fix>
</trkpt>
<trkpt lat="-27.2744574" lon="151.2900862">
  <ele>358.14</ele>
  <time>2026-09-01T19:51:02Z</time>
  <course>191.13</course>
  <speed>0.21</speed>
  <fix>3d</fix>
</trkpt>
<trkpt lat="-27.2744578" lon="151.290086">
  <ele>357.96</ele>
  <time>2026-09-01T19:51:02Z</time>
  <course>53.15</course>
  <speed>0.15</speed>
  <fix>3d</fix>
</trkpt>
<trkpt lat="-27.2744578" lon="151.2900861">
  <ele>358.14</ele>
  <time>2026-09-01T19:51:02Z</time>
  <course>202.55</course>
  <speed>0.19</speed>
  <fix>3d</fix>
</trkpt>
<trkpt lat="-27.274458" lon="151.2900859">
  <ele>357.96</ele>
  <time>2026-09-01T19:51:02Z</time>
  <course>51.08</course>
  <speed>0.14866068747318506</speed>
  <fix>3d</fix>
</trkpt>
<trkpt lat="-27.2744578" lon="151.2900861">
  <ele>358.14</ele>
  <time>2026-09-01T19:51:02Z</time>
  <course>202.55</course>
  <speed>0.19</speed>
  <fix>3d</fix>
</trkpt>
<trkpt lat="-27.2744581" lon="151.2900858">
  <ele>357.96</ele>
  <time>2026-09-01T19:51:02Z</time>
  <course>49.0</course>
  <speed>0.15264337522473748</speed>
  <fix>3d</fix>
</trkpt>
<trkpt lat="-27.2744581" lon="151.2900859">
  <ele>358.14</ele>
  <time>2026-09-01T19:51:02Z</time>
  <course>216.58</course>
  <speed>0.18</speed>
  <fix>3d</fix>
</trkpt>
<trkpt lat="-27.2744582" lon="151.2900856">
  <ele>357.96</ele>
  <time>2026-09-01T19:51:02Z</time>
  <course>46.91</course>
  <speed>0.15652475842498528</speed>
  <fix>3d</fix>
</trkpt>
<trkpt lat="-27.2744581" lon="151.2900859">
  <ele>358.14</ele>
  <time>2026-09-01T19:51:02Z</time>
  <course>216.58</course>
  <speed>0.18</speed>
  <fix>3d</fix>
</trkpt>
<trkpt lat="-27.2744583" lon="151.2900855">
  <ele>357.96</ele>
  <time>2026-09-01T19:51:02Z</time>
  <course>44.79</course>
  <speed>0.1676305461424021</speed>
  <fix>3d</fix>
</trkpt>
<trkpt lat="-27.2744584" lon="151.2900857">
  <ele>358.14</ele>
  <time>2026-09-01T19:51:02Z</time>
  <course>231.61</course>
  <speed>0.18</speed>
  <fix>3d</fix>
</trkpt>
<trkpt lat="-27.2744583" lon="151.2900853">
  <ele>357.96</ele>
  <time>2026-09-01T19:51:02Z</time>
  <course>42.67</course>
  <speed>0.17262676501632068</speed>
  <fix>3d</fix>
</trkpt>
<trkpt lat="-27.2744584" lon="151.2900857">
  <ele>358.14</ele>
  <time>2026-09-01T19:51:02Z</time>
  <course>231.61</course>
  <speed>0.18</speed>
  <fix>3d</fix>
</trkpt>
<trkpt lat="-27.2744584" lon="151.2900851">
  <ele>357.96</ele>
  <time>2026-09-01T19:51:02Z</time>
  <course>40.57</course>
  <speed>0.191049731745428</speed>
  <fix>3d</fix>
</trkpt>
<trkpt lat="-27.2744585" lon="151.2900854">
  <ele>358.14</ele>
  <time>2026-09-01T19:51:02Z</time>
  <course>245.75</course>
  <speed>0.19</speed>
  <fix>3d</fix>
</trkpt>
<trkpt lat="-27.2744584" lon="151.2900849">
  <ele>357.96</ele>
  <time>2026-09-01T19:51:02Z</time>
  <course>38.82</course>
  <speed>0.21</speed>
  <fix>3d</fix>
</trkpt>
<trkpt lat="-27.2744585" lon="151.2900854">
  <ele>358.14</ele>
  <time>2026-09-01T19:51:02Z</time>
  <course>245.75</course>
  <speed>0.19</speed>
  <fix>3d</fix>
</trkpt>
<trkpt lat="-27.2744584" lon="151.2900846">
  <ele>357.96</ele>
  <time>2026-09-01T19:51:02Z</time>
  <course>37.77</course>
  <speed>0.22022715545545238</speed>
  <fix>3d</fix>
</trkpt>
<trkpt lat="-27.2744586" lon="151.2900849">
  <ele>358.14</ele>
  <time>2026-09-01T19:51:02Z</time>
  <course>258.09</course>
  <speed>0.21</speed>
  <fix>3d</fix>
</trkpt>
<trkpt lat="-27.2744584" lon="151.2900844">
  <ele>357.96</ele>
  <time>2026-09-01T19:51:02Z</time>
  <course>37.45</course>
  <speed>0.23345235059857505</speed>
  <fix>3d</fix>
</trkpt>
<trkpt lat="-27.2744586" lon="151.2900849">
  <ele>358.14</ele>
  <time>2026-09-01T19:51:02Z</time>
  <course>258.09</course>
  <speed>0.21</speed>
  <fix>3d</fix>
</trkpt>
<trkpt lat="-27.2744584" lon="151.2900841">
  <ele>357.96</ele>
  <time>2026-09-01T19:51:02Z</time>
  <course>37.74</course>
  <speed>0.2570992026436488</speed>
  <fix>3d</fix>
</trkpt>
<trkpt lat="-27.2744587" lon="151.2900845">
  <ele>358.13</ele>
  <time>2026-09-01T19:51:02Z</time>
  <course>268.81</course>
  <speed>0.23</speed>
  <fix>3d</fix>
</trkpt>
<trkpt lat="-27.2744583" lon="151.2900839">
  <ele>357.96</ele>
  <time>2026-09-01T19:51:02Z</time>
  <course>38.47</course>
  <speed>0.2720294101747089</speed>
  <fix>3d</fix>
</trkpt>
<trkpt lat="-27.2744587" lon="151.2900845">
  <ele>358.13</ele>
  <time>2026-09-01T19:51:02Z</time>
  <course>268.81</course>
  <speed>0.23</speed>
  <fix>3d</fix>
</trkpt>
<trkpt lat="-27.2744584" lon="151.2900836">
  <ele>357.96</ele>
  <time>2026-09-01T19:51:02Z</time>
  <course>39.44</course>
  <speed>0.291547594742265</speed>
  <fix>3d</fix>
</trkpt>
<trkpt lat="-27.2744587" lon="151.290084">
  <ele>358.13</ele>
  <time>2026-09-01T19:51:02Z</time>
  <course>278.35</course>
  <speed>0.26</speed>
  <fix>3d</fix>
</trkpt>
<trkpt lat="-27.2744583" lon="151.2900833">
  <ele>357.97</ele>
  <time>2026-09-01T19:51:02Z</time>
  <course>40.49</course>
  <speed>0.3087069808086626</speed>
  <fix>3d</fix>
</trkpt>
<trkpt lat="-27.2744587" lon="151.290084">
  <ele>358.13</ele>
  <time>2026-09-01T19:51:02Z</time>
  <course>278.35</course>
  <speed>0.26</speed>
  <fix>3d</fix>
</trkpt>
<trkpt lat="-27.2744582" lon="151.290083">
  <ele>357.96</ele>
  <time>2026-09-01T19:51:02Z</time>
  <course>41.45</course>
  <speed>0.3312099032335839</speed>
  <fix>3d</fix>
</trkpt>
<trkpt lat="-27.2744586" lon="151.2900834">
  <ele>358.13</ele>
  <time>2026-09-01T19:51:02Z</time>
  <course>286.83</course>
  <speed>0.3</speed>
  <fix>3d</fix>
</trkpt>
<trkpt lat="-27.274458" lon="151.2900827">
  <ele>357.96</ele>
  <time>2026-09-01T19:51:02Z</time>
  <course>42.2</course>
  <speed>0.35510561809129404</speed>
  <fix>3d</fix>
</trkpt>
<trkpt lat="-27.2744586" lon="151.2900834">
  <ele>358.13</ele>
  <time>2026-09-01T19:51:02Z</time>
  <course>286.83</course>
  <speed>0.3</speed>
  <fix>3d</fix>
</trkpt>
<trkpt lat="-27.2744579" lon="151.2900824">
  <ele>357.96</ele>
  <time>2026-09-01T19:51:02Z</time>
  <course>42.68</course>
  <speed>0.3661966684720111</speed>
  <fix>3d</fix>
</trkpt>
<trkpt lat="-27.2744585" lon="151.2900828">
  <ele>358.13</ele>
  <time>2026-09-01T19:51:02Z</time>
  <course>294.38</course>
  <speed>0.33</speed>
  <fix>3d</fix>
</trkpt>
<trkpt lat="-27.2744577" lon="151.2900821">
  <ele>357.96</ele>
  <time>2026-09-01T19:51:02Z</time>
  <course>42.87</course>
  <speed>0.3920459156782532</speed>
  <fix>3d</fix>
</trkpt>
<trkpt lat="-27.2744585" lon="151.2900828">
  <ele>358.13</ele>
  <time>2026-09-01T19:51:02Z</time>
  <course>294.38</course>
  <speed>0.33</speed>
  <fix>3d</fix>
</trkpt>
<trkpt lat="-27.2744575" lon="151.2900817">
  <ele>357.96</ele>
  <time>2026-09-01T19:51:02Z</time>
  <course>42.8</course>
  <speed>0.41109609582188933</speed>
  <fix>3d</fix>
</trkpt>
<trkpt lat="-27.2744582" lon="151.2900821">
  <ele>358.13</ele>
  <time>2026-09-01T19:51:02Z</time>
  <course>301.17</course>
  <speed>0.37</speed>
  <fix>3d</fix>
</trkpt>
<trkpt lat="-27.2744573" lon="151.2900814">
  <ele>357.96</ele>
  <time>2026-09-01T19:51:02Z</time>
  <course>42.59</course>
  <speed>0.43139309220245986</speed>
  <fix>3d</fix>
</trkpt>
<trkpt lat="-27.2744582" lon="151.2900821">
  <ele>358.13</ele>
  <time>2026-09-01T19:51:02Z</time>
  <course>301.17</course>
  <speed>0.37</speed>
  <fix>3d</fix>
</trkpt>
<trkpt lat="-27.274457" lon="151.290081">
  <ele>357.95</ele>
  <time>2026-09-01T19:51:02Z</time>
  <course>42.78</course>
  <speed>0.4596737973824482</speed>
  <fix>3d</fix>
</trkpt>
<trkpt lat="-27.2744578" lon="151.2900815">
  <ele>358.13</ele>
  <time>2026-09-01T19:51:02Z</time>
  <course>307.42</course>
  <speed>0.41</speed>
  <fix>3d</fix>
</trkpt>
<trkpt lat="-27.2744568" lon="151.2900807">
  <ele>357.95</ele>
  <time>2026-09-01T19:51:02Z</time>
  <course>43.54</course>
  <speed>0.48104053883222775</speed>
  <fix>3d</fix>
</trkpt>
<trkpt lat="-27.2744578" lon="151.2900815">
  <ele>358.13</ele>
  <time>2026-09-01T19:51:02Z</time>
  <course>307.42</course>
  <speed>0.41</speed>
  <fix>3d</fix>
</trkpt>
<trkpt lat="-27.2744565" lon="151.2900804">
  <ele>357.95</ele>
  <time>2026-09-01T19:51:02Z</time>
  <course>44.71</course>
  <speed>0.4957822102496216</speed>
  <fix>3d</fix>
</trkpt>
<trkpt lat="-27.2744573" lon="151.2900809">
  <ele>358.13</ele>
  <time>2026-09-01T19:51:02Z</time>
  <course>312.21</course>
  <speed>0.45</speed>
  <fix>3d</fix>
</trkpt>
<trkpt lat="-27.2744561" lon="151.29008">
  <ele>357.95</ele>
  <time>2026-09-01T19:51:02Z</time>
  <course>46.15</course>
  <speed>0.5249761899362675</speed>
  <fix>3d</fix>
</trkpt>
<trkpt lat="-27.2744573" lon="151.2900809">
  <ele>358.13</ele>
  <time>2026-09-01T19:51:02Z</time>
  <course>312.21</course>
  <speed>0.45</speed>
  <fix>3d</fix>
</trkpt>
<trkpt lat="-27.2744558" lon="151.2900796">
  <ele>357.95</ele>
  <time>2026-09-01T19:51:02Z</time>
  <course>47.77</course>
  <speed>0.5403702434442519</speed>
  <fix>3d</fix>
</trkpt>
<trkpt lat="-27.2744567" lon="151.2900802">
  <ele>358.12</ele>
  <time>2026-09-01T19:51:02Z</time>
  <course>315.3</course>
  <speed>0.49</speed>
  <fix>3d</fix>
</trkpt>
<trkpt lat="-27.2744554" lon="151.2900793">
  <ele>357.95</ele>
  <time>2026-09-01T19:51:02Z</time>
  <course>49.48</course>
  <speed>0.564003546088143</speed>
  <fix>3d</fix>
</trkpt>
<trkpt lat="-27.2744567" lon="151.2900802">
  <ele>358.12</ele>
  <time>2026-09-01T19:51:02Z</time>
  <course>315.3</course>
  <speed>0.49</speed>
  <fix>3d</fix>
</trkpt>
<trkpt lat="-27.2744551" lon="151.2900789">
  <ele>357.95</ele>
  <time>2026-09-01T19:51:02Z</time>
  <course>51.26</course>
  <speed>0.5800862004909271</speed>
  <fix>3d</fix>
</trkpt>
<trkpt lat="-27.274456" lon="151.2900795">
  <ele>358.12</ele>
  <time>2026-09-01T19:51:02Z</time>
  <course>318.25</course>
  <speed>0.53</speed>
  <fix>3d</fix>
</trkpt>
<trkpt lat="-27.2744546" lon="151.2900786">
  <ele>357.95</ele>
  <time>2026-09-01T19:51:02Z</time>
  <course>53.07</course>
  <speed>0.604648658313239</speed>
  <fix>3d</fix>
</trkpt>
<trkpt lat="-27.274456" lon="151.2900795">
  <ele>358.12</ele>
  <time>2026-09-01T19:51:02Z</time>
  <course>318.25</course>
  <speed>0.53</speed>
  <fix>3d</fix>
</trkpt>
<trkpt lat="-27.2744542" lon="151.2900782">
  <ele>357.95</ele>
  <time>2026-09-01T19:51:02Z</time>
  <course>54.89</course>
  <speed>0.6296824596572467</speed>
  <fix>3d</fix>
</trkpt>
<trkpt lat="-27.2744552" lon="151.2900787">
  <ele>358.12</ele>
  <time>2026-09-01T19:51:02Z</time>
  <course>321.7</course>
  <speed>0.57</speed>
  <fix>3d</fix>
</trkpt>
<trkpt lat="-27.2744537" lon="151.2900779">
  <ele>357.95</ele>
  <time>2026-09-01T19:51:02Z</time>
  <course>56.72</course>
  <speed>0.641404708432983</speed>
  <fix>3d</fix>
</trkpt>
<trkpt lat="-27.2744552" lon="151.2900787">
  <ele>358.12</ele>
  <time>2026-09-01T19:51:02Z</time>
  <course>321.7</course>
  <speed>0.57</speed>
  <fix>3d</fix>
</trkpt>
<trkpt lat="-27.2744533" lon="151.2900775">
  <ele>357.95</ele>
  <time>2026-09-01T19:51:02Z</time>
  <course>58.55</course>
  <speed>0.6624198064671678</speed>
  <fix>3d</fix>
</trkpt>
<trkpt lat="-27.2744543" lon="151.290078">
  <ele>358.12</ele>
  <time>2026-09-01T19:51:02Z</time>
  <course>325.32</course>
  <speed>0.61</speed>
  <fix>3d</fix>
</trkpt>
<trkpt lat="-27.2744527" lon="151.2900772">
  <ele>357.95</ele>
  <time>2026-09-01T19:51:03Z</time>
  <course>60.37</course>
  <speed>0.6842514157822401</speed>
  <fix>3d</fix>
</trkpt>
<trkpt lat="-27.2744543" lon="151.290078">
  <ele>358.12</ele>
  <time>2026-09-01T19:51:03Z</time>
  <course>325.32</course>
  <speed>0.61</speed>
  <fix>3d</fix>
</trkpt>
<trkpt lat="-27.2744522" lon="151.2900769">
  <ele>357.95</ele>
  <time>2026-09-01T19:51:03Z</time>
  <course>61.91</course>
  <speed>0.6977822009767805</speed>
  <fix>3d</fix>
</trkpt>
<trkpt lat="-27.2744534" lon="151.2900773">
  <ele>358.11</ele>
  <time>2026-09-01T19:51:03Z</time>
  <course>328.97</course>
  <speed>0.65</speed>
  <fix>3d</fix>
</trkpt>
<trkpt lat="-27.2744516" lon="151.2900765">
  <ele>357.95</ele>
  <time>2026-09-01T19:51:03Z</time>
  <course>62.76</course>
  <speed>0.7158910531638176</speed>
  <fix>3d</fix>
</trkpt>
<trkpt lat="-27.2744534" lon="151.2900773">
  <ele>358.11</ele>
  <time>2026-09-01T19:51:03Z</time>
  <course>328.97</course>
  <speed>0.65</speed>
  <fix>3d</fix>
</trkpt>
<trkpt lat="-27.2744511" lon="151.2900762">
  <ele>357.95</ele>
  <time>2026-09-01T19:51:03Z</time>
  <course>62.86</course>
  <speed>0.7291776189653656</speed>
  <fix>3d</fix>
</trkpt>
<trkpt lat="-27.2744523" lon="151.2900766">
  <ele>358.11</ele>
  <time>2026-09-01T19:51:03Z</time>
  <course>332.0</course>
  <speed>0.68</speed>
  <fix>3d</fix>
</trkpt>
<trkpt lat="-27.2744505" lon="151.2900759">
  <ele>357.95</ele>
  <time>2026-09-01T19:51:03Z</time>
  <course>62.36</course>
  <speed>0.7424957912338628</speed>
  <fix>3d</fix>
</trkpt>
<trkpt lat="-27.2744523" lon="151.2900766">
  <ele>358.11</ele>
  <time>2026-09-01T19:51:03Z</time>
  <course>332.0</course>
  <speed>0.68</speed>
  <fix>3d</fix>
</trkpt>
<trkpt lat="-27.2744499" lon="151.2900755">
  <ele>357.95</ele>
  <time>2026-09-01T19:51:03Z</time>
  <course>61.46</course>
  <speed>0.7468600939935136</speed>
  <fix>3d</fix>
</trkpt>
<trkpt lat="-27.2744512" lon="151.290076">
  <ele>358.11</ele>
  <time>2026-09-01T19:51:03Z</time>
  <course>333.09</course>
  <speed>0.71</speed>
  <fix>3d</fix>
</trkpt>
<trkpt lat="-27.2744493" lon="151.2900752">
  <ele>357.95</ele>
  <time>2026-09-01T19:51:03Z</time>
  <course>60.38</course>
  <speed>0.7602631123499285</speed>
  <fix>3d</fix>
</trkpt>
<trkpt lat="-27.2744512" lon="151.290076">
  <ele>358.11</ele>
  <time>2026-09-01T19:51:03Z</time>
  <course>333.09</course>
  <speed>0.71</speed>
  <fix>3d</fix>
</trkpt>
<trkpt lat="-27.2744487" lon="151.2900748">
  <ele>357.95</ele>
  <time>2026-09-01T19:51:03Z</time>
  <course>59.32</course>
  <speed>0.773692445355388</speed>
  <fix>3d</fix>
</trkpt>
<trkpt lat="-27.2744501" lon="151.2900753">
  <ele>358.11</ele>
  <time>2026-09-01T19:51:03Z</time>
  <course>332.51</course>
  <speed>0.73</speed>
  <fix>3d</fix>
</trkpt>
<trkpt lat="-27.2744481" lon="151.2900745">
  <ele>357.95</ele>
  <time>2026-09-01T19:51:03Z</time>
  <course>58.43</course>
  <speed>0.773692445355388</speed>
  <fix>3d</fix>
</trkpt>
<trkpt lat="-27.2744501" lon="151.2900753">
  <ele>358.11</ele>
  <time>2026-09-01T19:51:03Z</time>
  <course>332.51</course>
  <speed>0.73</speed>
  <fix>3d</fix>
</trkpt>
<trkpt lat="-27.2744475" lon="151.2900741">
  <ele>357.96</ele>
  <time>2026-09-01T19:51:03Z</time>
  <course>57.57</course>
  <speed>0.7871467461661772</speed>
  <fix>3d</fix>
</trkpt>
<trkpt lat="-27.2744489" lon="151.2900746">
  <ele>358.11</ele>
  <time>2026-09-01T19:51:03Z</time>
  <course>331.65</course>
  <speed>0.75</speed>
  <fix>3d</fix>
</trkpt>
<trkpt lat="-27.2744469" lon="151.2900737">
  <ele>357.96</ele>
  <time>2026-09-01T19:51:03Z</time>
  <course>56.42</course>
  <speed>0.7917701686727027</speed>
  <fix>3d</fix>
</trkpt>
<trkpt lat="-27.2744489" lon="151.2900746">
  <ele>358.11</ele>
  <time>2026-09-01T19:51:03Z</time>
  <course>331.65</course>
  <speed>0.75</speed>
  <fix>3d</fix>
</trkpt>
<trkpt lat="-27.2744463" lon="151.2900733">
  <ele>357.96</ele>
  <time>2026-09-01T19:51:03Z</time>
  <course>55.01</course>
  <speed>0.8052949770115296</speed>
  <fix>3d</fix>
</trkpt>
<trkpt lat="-27.2744477" lon="151.2900738">
  <ele>358.11</ele>
  <time>2026-09-01T19:51:03Z</time>
  <course>330.89</course>
  <speed>0.77</speed>
  <fix>3d</fix>
</trkpt>
<trkpt lat="-27.2744457" lon="151.2900729">
  <ele>357.96</ele>
  <time>2026-09-01T19:51:03Z</time>
  <course>53.42</course>
  <speed>0.8100617260431454</speed>
  <fix>3d</fix>
</trkpt>
<trkpt lat="-27.2744477" lon="151.2900738">
  <ele>358.11</ele>
  <time>2026-09-01T19:51:03Z</time>
  <course>330.89</course>
  <speed>0.77</speed>
  <fix>3d</fix>
</trkpt>
<trkpt lat="-27.2744451" lon="151.2900725">
  <ele>357.96</ele>
  <time>2026-09-01T19:51:03Z</time>
  <course>51.73</course>
  <speed>0.8149233092751734</speed>
  <fix>3d</fix>
</trkpt>
<trkpt lat="-27.2744464" lon="151.2900731">
  <ele>358.11</ele>
  <time>2026-09-01T19:51:03Z</time>
  <course>330.17</course>
  <speed>0.79</speed>
  <fix>3d</fix>
</trkpt>
<trkpt lat="-27.2744445" lon="151.290072">
  <ele>357.96</ele>
  <time>2026-09-01T19:51:03Z</time>
  <course>49.97</course>
  <speed>0.8236504112789601</speed>
  <fix>3d</fix>
</trkpt>
<trkpt lat="-27.2744464" lon="151.2900731">
  <ele>358.11</ele>
  <time>2026-09-01T19:51:03Z</time>
  <course>330.17</course>
  <speed>0.79</speed>
  <fix>3d</fix>
</trkpt>
<trkpt lat="-27.2744438" lon="151.2900716">
  <ele>357.96</ele>
  <time>2026-09-01T19:51:03Z</time>
  <course>48.16</course>
  <speed>0.8285529554590945</speed>
  <fix>3d</fix>
</trkpt>
<trkpt lat="-27.2744452" lon="151.2900723">
  <ele>358.12</ele>
  <time>2026-09-01T19:51:03Z</time>
  <course>329.38</course>
  <speed>0.8</speed>
  <fix>3d</fix>
</trkpt>
<trkpt lat="-27.2744432" lon="151.2900712">
  <ele>357.96</ele>
  <time>2026-09-01T19:51:03Z</time>
  <course>46.32</course>
  <speed>0.8335466393669883</speed>
  <fix>3d</fix>
</trkpt>
<trkpt lat="-27.2744452" lon="151.2900723">
  <ele>358.12</ele>
  <time>2026-09-01T19:51:03Z</time>
  <course>329.38</course>
  <speed>0.8</speed>
  <fix>3d</fix>
</trkpt>
<trkpt lat="-27.2744426" lon="151.2900707">
  <ele>357.96</ele>
  <time>2026-09-01T19:51:03Z</time>
  <course>44.46</course>
  <speed>0.8472307831990054</speed>
  <fix>3d</fix>
</trkpt>
<trkpt lat="-27.2744439" lon="151.2900714">
  <ele>358.12</ele>
  <time>2026-09-01T19:51:03Z</time>
  <course>328.56</course>
  <speed>0.81</speed>
  <fix>3d</fix>
</trkpt>
<trkpt lat="-27.2744419" lon="151.2900703">
  <ele>357.97</ele>
  <time>2026-09-01T19:51:03Z</time>
  <course>42.6</course>
  <speed>0.8523496934944014</speed>
  <fix>3d</fix>
</trkpt>
<trkpt lat="-27.2744439" lon="151.2900714">
  <ele>358.12</ele>
  <time>2026-09-01T19:51:03Z</time>
  <course>328.56</course>
  <speed>0.81</speed>
  <fix>3d</fix>
</trkpt>
<trkpt lat="-27.2744413" lon="151.2900698">
  <ele>357.97</ele>
  <time>2026-09-01T19:51:03Z</time>
  <course>40.73</course>
  <speed>0.8523496934944014</speed>
  <fix>3d</fix>
</trkpt>
<trkpt lat="-27.2744427" lon="151.2900705">
  <ele>358.12</ele>
  <time>2026-09-01T19:51:03Z</time>
  <course>327.77</course>
  <speed>0.83</speed>
  <fix>3d</fix>
</trkpt>
<trkpt lat="-27.2744407" lon="151.2900694">
  <ele>357.97</ele>
  <time>2026-09-01T19:51:03Z</time>
  <course>38.86</course>
  <speed>0.8575546629807339</speed>
  <fix>3d</fix>
</trkpt>
<trkpt lat="-27.2744427" lon="151.2900705">
  <ele>358.12</ele>
  <time>2026-09-01T19:51:03Z</time>
  <course>327.77</course>
  <speed>0.83</speed>
  <fix>3d</fix>
</trkpt>
<trkpt lat="-27.27444" lon="151.2900689">
  <ele>357.97</ele>
  <time>2026-09-01T19:51:03Z</time>
  <course>36.99</course>
  <speed>0.8713208364316786</speed>
  <fix>3d</fix>
</trkpt>
<trkpt lat="-27.2744414" lon="151.2900696">
  <ele>358.12</ele>
  <time>2026-09-01T19:51:03Z</time>
  <course>327.08</course>
  <speed>0.84</speed>
  <fix>3d</fix>
</trkpt>
<trkpt lat="-27.2744394" lon="151.2900684">
  <ele>357.97</ele>
  <time>2026-09-01T19:51:03Z</time>
  <course>35.13</course>
  <speed>0.8766413177577246</speed>
  <fix>3d</fix>
</trkpt>
<trkpt lat="-27.2744414" lon="151.2900696">
  <ele>358.12</ele>
  <time>2026-09-01T19:51:03Z</time>
  <course>327.08</course>
  <speed>0.84</speed>
  <fix>3d</fix>
</trkpt>
<trkpt lat="-27.2744387" lon="151.2900679">
  <ele>357.97</ele>
  <time>2026-09-01T19:51:03Z</time>
  <course>33.27</course>
  <speed>0.8766413177577246</speed>
  <fix>3d</fix>
</trkpt>
<trkpt lat="-27.2744401" lon="151.2900687">
  <ele>358.12</ele>
  <time>2026-09-01T19:51:03Z</time>
  <course>326.48</course>
  <speed>0.85</speed>
  <fix>3d</fix>
</trkpt>
<trkpt lat="-27.2744381" lon="151.2900674">
  <ele>357.97</ele>
  <time>2026-09-01T19:51:03Z</time>
  <course>31.41</course>
  <speed>0.8820430828479978</speed>
  <fix>3d</fix>
</trkpt>
<trkpt lat="-27.2744401" lon="151.2900687">
  <ele>358.12</ele>
  <time>2026-09-01T19:51:03Z</time>
  <course>326.48</course>
  <speed>0.85</speed>
  <fix>3d</fix>
</trkpt>
<trkpt lat="-27.2744375" lon="151.2900669">
  <ele>357.96</ele>
  <time>2026-09-01T19:51:03Z</time>
  <course>29.55</course>
  <speed>0.8904493247793498</speed>
  <fix>3d</fix>
</trkpt>
<trkpt lat="-27.2744388" lon="151.2900678">
  <ele>358.12</ele>
  <time>2026-09-01T19:51:03Z</time>
  <course>325.94</course>
  <speed>0.86</speed>
  <fix>3d</fix>
</trkpt>
<trkpt lat="-27.2744368" lon="151.2900664">
  <ele>357.96</ele>
  <time>2026-09-01T19:51:03Z</time>
  <course>27.72</course>
  <speed>0.8958794561770016</speed>
  <fix>3d</fix>
</trkpt>
<trkpt lat="-27.2744388" lon="151.2900678">
  <ele>358.12</ele>
  <time>2026-09-01T19:51:03Z</time>
  <course>325.94</course>
  <speed>0.86</speed>
  <fix>3d</fix>
</trkpt>
<trkpt lat="-27.2744362" lon="151.2900659">
  <ele>357.96</ele>
  <time>2026-09-01T19:51:03Z</time>
  <course>26.1</course>
  <speed>0.9013878188659973</speed>
  <fix>3d</fix>
</trkpt>
<trkpt lat="-27.2744375" lon="151.2900668">
  <ele>358.11</ele>
  <time>2026-09-01T19:51:03Z</time>
  <course>325.46</course>
  <speed>0.88</speed>
  <fix>3d</fix>
</trkpt>
<trkpt lat="-27.2744355" lon="151.2900654">
  <ele>357.95</ele>
  <time>2026-09-01T19:51:03Z</time>
  <course>25.03</course>
  <speed>0.9013878188659973</speed>
  <fix>3d</fix>
</trkpt>
<trkpt lat="-27.2744375" lon="151.2900668">
  <ele>358.11</ele>
  <time>2026-09-01T19:51:03Z</time>
  <course>325.46</course>
  <speed>0.88</speed>
  <fix>3d</fix>
</trkpt>
<trkpt lat="-27.2744348" lon="151.2900649">
  <ele>357.95</ele>
  <time>2026-09-01T19:51:03Z</time>
  <course>24.58</course>
  <speed>0.9013878188659973</speed>
  <fix>3d</fix>
</trkpt>
<trkpt lat="-27.2744362" lon="151.2900657">
  <ele>358.11</ele>
  <time>2026-09-01T19:51:03Z</time>
  <course>325.01</course>
  <speed>0.88</speed>
  <fix>3d</fix>
</trkpt>
<trkpt lat="-27.2744342" lon="151.2900644">
  <ele>357.95</ele>
  <time>2026-09-01T19:51:03Z</time>
  <course>24.67</course>
  <speed>0.9013878188659973</speed>
  <fix>3d</fix>
</trkpt>
<trkpt lat="-27.2744362" lon="151.2900657">
  <ele>358.11</ele>
  <time>2026-09-01T19:51:03Z</time>
  <course>325.01</course>
  <speed>0.88</speed>
  <fix>3d</fix>
</trkpt>
<trkpt lat="-27.2744335" lon="151.2900639">
  <ele>357.94</ele>
  <time>2026-09-01T19:51:03Z</time>
  <course>25.15</course>
  <speed>0.8930845424706443</speed>
  <fix>3d</fix>
</trkpt>
<trkpt lat="-27.2744349" lon="151.2900646">
  <ele>358.11</ele>
  <time>2026-09-01T19:51:03Z</time>
  <course>324.59</course>
  <speed>0.89</speed>
  <fix>3d</fix>
</trkpt>
<trkpt lat="-27.2744329" lon="151.2900633">
  <ele>357.94</ele>
  <time>2026-09-01T19:51:03Z</time>
  <course>25.87</course>
  <speed>0.8848163651289458</speed>
  <fix>3d</fix>
</trkpt>
<trkpt lat="-27.2744349" lon="151.2900646">
  <ele>358.11</ele>
  <time>2026-09-01T19:51:03Z</time>
  <course>324.59</course>
  <speed>0.89</speed>
  <fix>3d</fix>
</trkpt>
<trkpt lat="-27.2744323" lon="151.2900628">
  <ele>357.94</ele>
  <time>2026-09-01T19:51:03Z</time>
  <course>26.68</course>
  <speed>0.876584280032445</speed>
  <fix>3d</fix>
</trkpt>
<trkpt lat="-27.2744336" lon="151.2900636">
  <ele>358.11</ele>
  <time>2026-09-01T19:51:03Z</time>
  <course>324.16</course>
  <speed>0.88</speed>
  <fix>3d</fix>
</trkpt>
<trkpt lat="-27.2744316" lon="151.2900623">
  <ele>357.94</ele>
  <time>2026-09-01T19:51:03Z</time>
  <course>27.45</course>
  <speed>0.876584280032445</speed>
  <fix>3d</fix>
</trkpt>
<trkpt lat="-27.2744336" lon="151.2900636">
  <ele>358.11</ele>
  <time>2026-09-01T19:51:03Z</time>
  <course>324.16</course>
  <speed>0.88</speed>
  <fix>3d</fix>
</trkpt>
<trkpt lat="-27.274431" lon="151.2900618">
  <ele>357.94</ele>
  <time>2026-09-01T19:51:03Z</time>
  <course>28.08</course>
  <speed>0.8683893136145793</speed>
  <fix>3d</fix>
</trkpt>
<trkpt lat="-27.2744324" lon="151.2900626">
  <ele>358.11</ele>
  <time>2026-09-01T19:51:03Z</time>
  <course>323.71</course>
  <speed>0.86</speed>
  <fix>3d</fix>
</trkpt>
<trkpt lat="-27.2744304" lon="151.2900613">
  <ele>357.94</ele>
  <time>2026-09-01T19:51:03Z</time>
  <course>28.51</course>
  <speed>0.8544588931013593</speed>
  <fix>3d</fix>
</trkpt>
<trkpt lat="-27.2744324" lon="151.2900626">
  <ele>358.11</ele>
  <time>2026-09-01T19:51:03Z</time>
  <course>323.71</course>
  <speed>0.86</speed>
  <fix>3d</fix>
</trkpt>
<trkpt lat="-27.2744298" lon="151.2900608">
  <ele>357.95</ele>
  <time>2026-09-01T19:51:03Z</time>
  <course>28.73</course>
  <speed>0.8462860036654276</speed>
  <fix>3d</fix>
</trkpt>
<trkpt lat="-27.2744311" lon="151.2900616">
  <ele>358.11</ele>
  <time>2026-09-01T19:51:03Z</time>
  <course>323.21</course>
  <speed>0.85</speed>
  <fix>3d</fix>
</trkpt>
<trkpt lat="-27.2744292" lon="151.2900602">
  <ele>357.94</ele>
  <time>2026-09-01T19:51:03Z</time>
  <course>28.77</course>
  <speed>0.8300602387778854</speed>
  <fix>3d</fix>
</trkpt>
<trkpt lat="-27.2744311" lon="151.2900616">
  <ele>358.11</ele>
  <time>2026-09-01T19:51:03Z</time>
  <course>323.21</course>
  <speed>0.85</speed>
  <fix>3d</fix>
</trkpt>
<trkpt lat="-27.2744286" lon="151.2900597">
  <ele>357.94</ele>
  <time>2026-09-01T19:51:03Z</time>
  <course>28.7</course>
  <speed>0.8160882305241266</speed>
  <fix>3d</fix>
</trkpt>
<trkpt lat="-27.2744299" lon="151.2900605">
  <ele>358.11</ele>
  <time>2026-09-01T19:51:03Z</time>
  <course>322.69</course>
  <speed>0.83</speed>
  <fix>3d</fix>
</trkpt>
<trkpt lat="-27.2744281" lon="151.2900592">
  <ele>357.94</ele>
  <time>2026-09-01T19:51:03Z</time>
  <course>29.02</course>
  <speed>0.8080222769206304</speed>
  <fix>3d</fix>
</trkpt>
<trkpt lat="-27.2744299" lon="151.2900605">
  <ele>358.11</ele>
  <time>2026-09-01T19:51:03Z</time>
  <course>322.69</course>
  <speed>0.83</speed>
  <fix>3d</fix>
</trkpt>
<trkpt lat="-27.2744275" lon="151.2900587">
  <ele>357.94</ele>
  <time>2026-09-01T19:51:03Z</time>
  <course>29.81</course>
  <speed>0.8</speed>
  <fix>3d</fix>
</trkpt>
<trkpt lat="-27.2744287" lon="151.2900594">
  <ele>358.11</ele>
  <time>2026-09-01T19:51:03Z</time>
  <course>322.13</course>
  <speed>0.8</speed>
  <fix>3d</fix>
</trkpt>
<trkpt lat="-27.2744269" lon="151.2900582">
  <ele>357.94</ele>
  <time>2026-09-01T19:51:03Z</time>
  <course>30.93</course>
  <speed>0.7860025445251434</speed>
  <fix>3d</fix>
</trkpt>
<trkpt lat="-27.2744287" lon="151.2900594">
  <ele>358.11</ele>
  <time>2026-09-01T19:51:03Z</time>
  <course>322.13</course>
  <speed>0.8</speed>
  <fix>3d</fix>
</trkpt>
<trkpt lat="-27.2744264" lon="151.2900577">
  <ele>357.94</ele>
  <time>2026-09-01T19:51:03Z</time>
  <course>32.27</course>
  <speed>0.7780102827083971</speed>
  <fix>3d</fix>
</trkpt>
<trkpt lat="-27.2744276" lon="151.2900585">
  <ele>358.11</ele>
  <time>2026-09-01T19:51:03Z</time>
  <course>321.53</course>
  <speed>0.78</speed>
  <fix>3d</fix>
</trkpt>
<trkpt lat="-27.2744259" lon="151.2900573">
  <ele>357.94</ele>
  <time>2026-09-01T19:51:03Z</time>
  <course>33.74</course>
  <speed>0.756042326857432</speed>
  <fix>3d</fix>
</trkpt>
<trkpt lat="-27.2744276" lon="151.2900585">
  <ele>358.11</ele>
  <time>2026-09-01T19:51:03Z</time>
  <course>321.53</course>
  <speed>0.78</speed>
  <fix>3d</fix>
</trkpt>
<trkpt lat="-27.2744254" lon="151.2900568">
  <ele>357.95</ele>
  <time>2026-09-01T19:51:03Z</time>
  <course>35.31</course>
  <speed>0.7481310045707236</speed>
  <fix>3d</fix>
</trkpt>
<trkpt lat="-27.2744265" lon="151.2900575">
  <ele>358.11</ele>
  <time>2026-09-01T19:51:03Z</time>
  <course>320.87</course>
  <speed>0.75</speed>
  <fix>3d</fix>
</trkpt>
<trkpt lat="-27.2744249" lon="151.2900563">
  <ele>357.95</ele>
  <time>2026-09-01T19:51:03Z</time>
  <course>36.94</course>
  <speed>0.7402702209328699</speed>
  <fix>3d</fix>
</trkpt>
<trkpt lat="-27.2744265" lon="151.2900575">
  <ele>358.11</ele>
  <time>2026-09-01T19:51:03Z</time>
  <course>320.87</course>
  <speed>0.75</speed>
  <fix>3d</fix>
</trkpt>
<trkpt lat="-27.2744244" lon="151.2900558">
  <ele>357.95</ele>
  <time>2026-09-01T19:51:03Z</time>
  <course>38.59</course>
  <speed>0.7262231062146123</speed>
  <fix>3d</fix>
</trkpt>
<trkpt lat="-27.2744255" lon="151.2900565">
  <ele>358.12</ele>
  <time>2026-09-01T19:51:03Z</time>
  <course>320.14</course>
  <speed>0.73</speed>
  <fix>3d</fix>
</trkpt>
<trkpt lat="-27.2744239" lon="151.2900553">
  <ele>357.95</ele>
  <time>2026-09-01T19:51:03Z</time>
  <course>40.28</course>
  <speed>0.7106335201775947</speed>
  <fix>3d</fix>
</trkpt>
<trkpt lat="-27.2744255" lon="151.2900565">
  <ele>358.12</ele>
  <time>2026-09-01T19:51:03Z</time>
  <course>320.14</course>
  <speed>0.73</speed>
  <fix>3d</fix>
</trkpt>
<trkpt lat="-27.2744234" lon="151.2900549">
  <ele>357.95</ele>
  <time>2026-09-01T19:51:03Z</time>
  <course>41.99</course>
  <speed>0.702922470831599</speed>
  <fix>3d</fix>
</trkpt>
<trkpt lat="-27.2744245" lon="151.2900556">
  <ele>358.12</ele>
  <time>2026-09-01T19:51:03Z</time>
  <course>319.35</course>
  <speed>0.7</speed>
  <fix>3d</fix>
</trkpt>
<trkpt lat="-27.2744229" lon="151.2900544">
  <ele>357.95</ele>
  <time>2026-09-01T19:51:03Z</time>
  <course>43.71</course>
  <speed>0.688839603971781</speed>
  <fix>3d</fix>
</trkpt>
<trkpt lat="-27.2744245" lon="151.2900556">
  <ele>358.12</ele>
  <time>2026-09-01T19:51:03Z</time>
  <course>319.35</course>
  <speed>0.7</speed>
  <fix>3d</fix>
</trkpt>
<trkpt lat="-27.2744225" lon="151.2900539">
  <ele>357.95</ele>
  <time>2026-09-01T19:51:03Z</time>
  <course>45.45</course>
  <speed>0.6811754546370561</speed>
  <fix>3d</fix>
</trkpt>
<trkpt lat="-27.2744236" lon="151.2900547">
  <ele>358.12</ele>
  <time>2026-09-01T19:51:03Z</time>
  <course>318.45</course>
  <speed>0.68</speed>
  <fix>3d</fix>
</trkpt>
<trkpt lat="-27.2744221" lon="151.2900535">
  <ele>357.95</ele>
  <time>2026-09-01T19:51:03Z</time>
  <course>47.19</course>
  <speed>0.6670832032063168</speed>
  <fix>3d</fix>
</trkpt>
<trkpt lat="-27.2744236" lon="151.2900547">
  <ele>358.12</ele>
  <time>2026-09-01T19:51:03Z</time>
  <course>318.45</course>
  <speed>0.68</speed>
  <fix>3d</fix>
</trkpt>
<trkpt lat="-27.2744216" lon="151.2900531">
  <ele>357.95</ele>
  <time>2026-09-01T19:51:03Z</time>
  <course>48.83</course>
  <speed>0.6481512169239521</speed>
  <fix>3d</fix>
</trkpt>
<trkpt lat="-27.2744227" lon="151.2900538">
  <ele>358.12</ele>
  <time>2026-09-01T19:51:03Z</time>
  <course>317.76</course>
  <speed>0.65</speed>
  <fix>3d</fix>
</trkpt>
<trkpt lat="-27.2744212" lon="151.2900527">
  <ele>357.95</ele>
  <time>2026-09-01T19:51:03Z</time>
  <course>49.94</course>
  <speed>0.6360031446463138</speed>
  <fix>3d</fix>
</trkpt>
<trkpt lat="-27.2744227" lon="151.2900538">
  <ele>358.12</ele>
  <time>2026-09-01T19:51:03Z</time>
  <course>317.76</course>
  <speed>0.65</speed>
  <fix>3d</fix>
</trkpt>
<trkpt lat="-27.2744208" lon="151.2900523">
  <ele>357.96</ele>
  <time>2026-09-01T19:51:03Z</time>
  <course>50.35</course>
  <speed>0.6220128616033594</speed>
  <fix>3d</fix>
</trkpt>
<trkpt lat="-27.2744218" lon="151.290053">
  <ele>358.12</ele>
  <time>2026-09-01T19:51:03Z</time>
  <course>318.92</course>
  <speed>0.63</speed>
  <fix>3d</fix>
</trkpt>
<trkpt lat="-27.2744204" lon="151.2900519">
  <ele>357.96</ele>
  <time>2026-09-01T19:51:03Z</time>
  <course>50.14</course>
  <speed>0.6</speed>
  <fix>3d</fix>
</trkpt>
<trkpt lat="-27.2744218" lon="151.290053">
  <ele>358.12</ele>
  <time>2026-09-01T19:51:03Z</time>
  <course>318.92</course>
  <speed>0.63</speed>
  <fix>3d</fix>
</trkpt>
<trkpt lat="-27.27442" lon="151.2900515">
  <ele>357.96</ele>
  <time>2026-09-01T19:51:03Z</time>
  <course>49.47</course>
  <speed>0.578013840664737</speed>
  <fix>3d</fix>
</trkpt>
<trkpt lat="-27.2744209" lon="151.2900522">
  <ele>358.12</ele>
  <time>2026-09-01T19:51:03Z</time>
  <course>320.48</course>
  <speed>0.59</speed>
  <fix>3d</fix>
</trkpt>
<trkpt lat="-27.2744196" lon="151.2900512">
  <ele>357.96</ele>
  <time>2026-09-01T19:51:03Z</time>
  <course>48.54</course>
  <speed>0.5560575509783138</speed>
  <fix>3d</fix>
</trkpt>
<trkpt lat="-27.2744209" lon="151.2900522">
  <ele>358.12</ele>
  <time>2026-09-01T19:51:03Z</time>
  <course>320.48</course>
  <speed>0.59</speed>
  <fix>3d</fix>
</trkpt>
<trkpt lat="-27.2744192" lon="151.2900508">
  <ele>357.97</ele>
  <time>2026-09-01T19:51:03Z</time>
  <course>47.54</course>
  <speed>0.5341348144429456</speed>
  <fix>3d</fix>
</trkpt>
<trkpt lat="-27.2744202" lon="151.2900514">
  <ele>358.13</ele>
  <time>2026-09-01T19:51:03Z</time>
  <course>320.01</course>
  <speed>0.55</speed>
  <fix>3d</fix>
</trkpt>
<trkpt lat="-27.2744189" lon="151.2900505">
  <ele>357.96</ele>
  <time>2026-09-01T19:51:03Z</time>
  <course>46.65</course>
  <speed>0.5122499389946279</speed>
  <fix>3d</fix>
</trkpt>
<trkpt lat="-27.2744202" lon="151.2900514">
  <ele>358.13</ele>
  <time>2026-09-01T19:51:03Z</time>
  <course>320.01</course>
  <speed>0.55</speed>
  <fix>3d</fix>
</trkpt>
<trkpt lat="-27.2744186" lon="151.2900502">
  <ele>357.96</ele>
  <time>2026-09-01T19:51:03Z</time>
  <course>45.93</course>
  <speed>0.49040799340956914</speed>
  <fix>3d</fix>
</trkpt>
<trkpt lat="-27.2744194" lon="151.2900507">
  <ele>358.13</ele>
  <time>2026-09-01T19:51:03Z</time>
  <course>318.68</course>
  <speed>0.51</speed>
  <fix>3d</fix>
</trkpt>
<trkpt lat="-27.2744183" lon="151.2900499">
  <ele>357.96</ele>
  <time>2026-09-01T19:51:03Z</time>
  <course>45.09</course>
  <speed>0.46861498055439926</speed>
  <fix>3d</fix>
</trkpt>
<trkpt lat="-27.2744194" lon="151.2900507">
  <ele>358.13</ele>
  <time>2026-09-01T19:51:03Z</time>
  <course>318.68</course>
  <speed>0.51</speed>
  <fix>3d</fix>
</trkpt>
<trkpt lat="-27.274418" lon="151.2900495">
  <ele>357.96</ele>
  <time>2026-09-01T19:51:03Z</time>
  <course>44.0</course>
  <speed>0.4393176527297759</speed>
  <fix>3d</fix>
</trkpt>
<trkpt lat="-27.2744188" lon="151.29005">
  <ele>358.13</ele>
  <time>2026-09-01T19:51:03Z</time>
  <course>317.1</course>
  <speed>0.46</speed>
  <fix>3d</fix>
</trkpt>
<trkpt lat="-27.2744177" lon="151.2900492">
  <ele>357.95</ele>
  <time>2026-09-01T19:51:03Z</time>
  <course>42.73</course>
  <speed>0.41773197148410846</speed>
  <fix>3d</fix>
</trkpt>
<trkpt lat="-27.2744188" lon="151.29005">
  <ele>358.13</ele>
  <time>2026-09-01T19:51:03Z</time>
  <course>317.1</course>
  <speed>0.46</speed>
  <fix>3d</fix>
</trkpt>
<trkpt lat="-27.2744175" lon="151.290049">
  <ele>357.95</ele>
  <time>2026-09-01T19:51:03Z</time>
  <course>41.33</course>
  <speed>0.396232255123179</speed>
  <fix>3d</fix>
</trkpt>
<trkpt lat="-27.2744182" lon="151.2900493">
  <ele>358.12</ele>
  <time>2026-09-01T19:51:03Z</time>
  <course>315.23</course>
  <speed>0.42</speed>
  <fix>3d</fix>
</trkpt>
<trkpt lat="-27.2744172" lon="151.2900487">
  <ele>357.95</ele>
  <time>2026-09-01T19:51:03Z</time>
  <course>39.86</course>
  <speed>0.37483329627982626</speed>
  <fix>3d</fix>
</trkpt>
<trkpt lat="-27.2744182" lon="151.2900493">
  <ele>358.12</ele>
  <time>2026-09-01T19:51:03Z</time>
  <course>315.23</course>
  <speed>0.42</speed>
  <fix>3d</fix>
</trkpt>
<trkpt lat="-27.274417" lon="151.2900484">
  <ele>357.95</ele>
  <time>2026-09-01T19:51:03Z</time>
  <course>38.34</course>
  <speed>0.3535533905932738</speed>
  <fix>3d</fix>
</trkpt>
<trkpt lat="-27.2744177" lon="151.2900488">
  <ele>358.12</ele>
  <time>2026-09-01T19:51:03Z</time>
  <course>312.96</course>
  <speed>0.37</speed>
  <fix>3d</fix>
</trkpt>
<trkpt lat="-27.2744168" lon="151.2900482">
  <ele>357.94</ele>
  <time>2026-09-01T19:51:03Z</time>
  <course>36.79</course>
  <speed>0.33241540277189324</speed>
  <fix>3d</fix>
</trkpt>
<trkpt lat="-27.2744177" lon="151.2900488">
  <ele>358.12</ele>
  <time>2026-09-01T19:51:03Z</time>
  <course>312.96</course>
  <speed>0.37</speed>
  <fix>3d</fix>
</trkpt>
<trkpt lat="-27.2744167" lon="151.2900479">
  <ele>357.94</ele>
  <time>2026-09-01T19:51:03Z</time>
  <course>35.23</course>
  <speed>0.31144823004794875</speed>
  <fix>3d</fix>
</trkpt>
<trkpt lat="-27.2744172" lon="151.2900483">
  <ele>358.12</ele>
  <time>2026-09-01T19:51:03Z</time>
  <course>310.12</course>
  <speed>0.33</speed>
  <fix>3d</fix>
</trkpt>
<trkpt lat="-27.2744165" lon="151.2900477">
  <ele>357.94</ele>
  <time>2026-09-01T19:51:03Z</time>
  <course>33.65</course>
  <speed>0.2906888370749727</speed>
  <fix>3d</fix>
</trkpt>
<trkpt lat="-27.2744172" lon="151.2900483">
  <ele>358.12</ele>
  <time>2026-09-01T19:51:03Z</time>
  <course>310.12</course>
  <speed>0.33</speed>
  <fix>3d</fix>
</trkpt>
<trkpt lat="-27.2744164" lon="151.2900474">
  <ele>357.94</ele>
  <time>2026-09-01T19:51:03Z</time>
  <course>32.06</course>
  <speed>0.27018512172212594</speed>
  <fix>3d</fix>
</trkpt>
<trkpt lat="-27.2744169" lon="151.2900478">
  <ele>358.12</ele>
  <time>2026-09-01T19:51:03Z</time>
  <course>306.49</course>
  <speed>0.29</speed>
  <fix>3d</fix>
</trkpt>
<trkpt lat="-27.2744163" lon="151.2900472">
  <ele>357.94</ele>
  <time>2026-09-01T19:51:03Z</time>
  <course>30.45</course>
  <speed>0.2420743687382041</speed>
  <fix>3d</fix>
</trkpt>
<trkpt lat="-27.2744169" lon="151.2900478">
  <ele>358.12</ele>
  <time>2026-09-01T19:51:03Z</time>
  <course>306.49</course>
  <speed>0.29</speed>
  <fix>3d</fix>
</trkpt>
<trkpt lat="-27.2744162" lon="151.290047">
  <ele>357.94</ele>
  <time>2026-09-01T19:51:03Z</time>
  <course>28.86</course>
  <speed>0.22803508501982758</speed>
  <fix>3d</fix>
</trkpt>
<trkpt lat="-27.2744166" lon="151.2900473">
  <ele>358.12</ele>
  <time>2026-09-01T19:51:03Z</time>
  <course>302.33</course>
  <speed>0.25</speed>
  <fix>3d</fix>
</trkpt>
<trkpt lat="-27.2744161" lon="151.2900469">
  <ele>357.94</ele>
  <time>2026-09-01T19:51:03Z</time>
  <course>27.26</course>
  <speed>0.20808652046684814</speed>
  <fix>3d</fix>
</trkpt>
<trkpt lat="-27.2744166" lon="151.2900473">
  <ele>358.12</ele>
  <time>2026-09-01T19:51:03Z</time>
  <course>302.33</course>
  <speed>0.25</speed>
  <fix>3d</fix>
</trkpt>
<trkpt lat="-27.274416" lon="151.2900467">
  <ele>357.94</ele>
  <time>2026-09-01T19:51:03Z</time>
  <course>25.67</course>
  <speed>0.18867962264113206</speed>
  <fix>3d</fix>
</trkpt>
<trkpt lat="-27.2744165" lon="151.2900469">
  <ele>358.12</ele>
  <time>2026-09-01T19:51:03Z</time>
  <course>298.23</course>
  <speed>0.21</speed>
  <fix>3d</fix>
</trkpt>
<trkpt lat="-27.274416" lon="151.2900465">
  <ele>357.94</ele>
  <time>2026-09-01T19:51:03Z</time>
  <course>24.08</course>
  <speed>0.1664331697709324</speed>
  <fix>3d</fix>
</trkpt>
<trkpt lat="-27.2744165" lon="151.2900469">
  <ele>358.12</ele>
  <time>2026-09-01T19:51:03Z</time>
  <course>298.23</course>
  <speed>0.21</speed>
  <fix>3d</fix>
</trkpt>
<trkpt lat="-27.2744159" lon="151.2900464">
  <ele>357.94</ele>
  <time>2026-09-01T19:51:03Z</time>
  <course>22.47</course>
  <speed>0.147648230602334</speed>
  <fix>3d</fix>
</trkpt>
<trkpt lat="-27.2744163" lon="151.2900465">
  <ele>358.12</ele>
  <time>2026-09-01T19:51:03Z</time>
  <course>292.85</course>
  <speed>0.17</speed>
  <fix>3d</fix>
</trkpt>
<trkpt lat="-27.2744159" lon="151.2900462">
  <ele>357.94</ele>
  <time>2026-09-01T19:51:03Z</time>
  <course>20.87</course>
  <speed>0.13</speed>
  <fix>3d</fix>
</trkpt>
<trkpt lat="-27.2744163" lon="151.2900465">
  <ele>358.12</ele>
  <time>2026-09-01T19:51:03Z</time>
  <course>292.85</course>
  <speed>0.17</speed>
  <fix>3d</fix>
</trkpt>
<trkpt lat="-27.2744159" lon="151.2900461">
  <ele>357.94</ele>
  <time>2026-09-01T19:51:03Z</time>
  <course>19.27</course>
  <speed>0.11401754250991379</speed>
  <fix>3d</fix>
</trkpt>
<trkpt lat="-27.2744162" lon="151.2900463">
  <ele>358.12</ele>
  <time>2026-09-01T19:51:03Z</time>
  <course>283.56</course>
  <speed>0.14</speed>
  <fix>3d</fix>
</trkpt>
<trkpt lat="-27.2744159" lon="151.290046">
  <ele>357.94</ele>
  <time>2026-09-01T19:51:03Z</time>
  <course>17.66</course>
  <speed>0.1004987562112089</speed>
  <fix>3d</fix>
</trkpt>
<trkpt lat="-27.2744162" lon="151.2900463">
  <ele>358.12</ele>
  <time>2026-09-01T19:51:03Z</time>
  <course>283.56</course>
  <speed>0.14</speed>
  <fix>3d</fix>
</trkpt>
<trkpt lat="-27.2744159" lon="151.2900459">
  <ele>357.94</ele>
  <time>2026-09-01T19:51:03Z</time>
  <course>16.07</course>
  <speed>0.09</speed>
  <fix>3d</fix>
</trkpt>
<trkpt lat="-27.2744162" lon="151.290046">
  <ele>358.12</ele>
  <time>2026-09-01T19:51:03Z</time>
  <course>268.12</course>
  <speed>0.11</speed>
  <fix>3d</fix>
</trkpt>
<trkpt lat="-27.274416" lon="151.2900458">
  <ele>357.94</ele>
  <time>2026-09-01T19:51:03Z</time>
  <course>14.75</course>
  <speed>0.07280109889280519</speed>
  <fix>3d</fix>
</trkpt>
<trkpt lat="-27.2744162" lon="151.290046">
  <ele>358.12</ele>
  <time>2026-09-01T19:51:03Z</time>
  <course>268.12</course>
  <speed>0.11</speed>
  <fix>3d</fix>
</trkpt>
<trkpt lat="-27.274416" lon="151.2900457">
  <ele>357.94</ele>
  <time>2026-09-01T19:51:03Z</time>
  <course>13.96</course>
  <speed>0.07211102550927978</speed>
  <fix>3d</fix>
</trkpt>
<trkpt lat="-27.2744162" lon="151.2900457">
  <ele>358.12</ele>
  <time>2026-09-01T19:51:03Z</time>
  <course>245.17</course>
  <speed>0.09</speed>
  <fix>3d</fix>
</trkpt>
<trkpt lat="-27.274416" lon="151.2900457">
  <ele>357.94</ele>
  <time>2026-09-01T19:51:03Z</time>
  <course>13.74</course>
  <speed>0.07810249675906654</speed>
  <fix>3d</fix>
</trkpt>
<trkpt lat="-27.2744162" lon="151.2900457">
  <ele>358.12</ele>
  <time>2026-09-01T19:51:03Z</time>
  <course>245.17</course>
  <speed>0.09</speed>
  <fix>3d</fix>
</trkpt>
<trkpt lat="-27.2744161" lon="151.2900456">
  <ele>357.94</ele>
  <time>2026-09-01T19:51:03Z</time>
  <course>14.02</course>
  <speed>0.08944271909999159</speed>
  <fix>3d</fix>
</trkpt>
<trkpt lat="-27.2744163" lon="151.2900456">
  <ele>358.12</ele>
  <time>2026-09-01T19:51:03Z</time>
  <course>218.94</course>
  <speed>0.1</speed>
  <fix>3d</fix>
</trkpt>
<trkpt lat="-27.2744163" lon="151.2900456">
  <ele>357.94</ele>
  <time>2026-09-01T19:51:03Z</time>
  <course>14.65</course>
  <speed>0.1044030650891055</speed>
  <fix>3d</fix>
</trkpt>
<trkpt lat="-27.2744163" lon="151.2900456">
  <ele>358.12</ele>
  <time>2026-09-01T19:51:03Z</time>
  <course>218.94</course>
  <speed>0.1</speed>
  <fix>3d</fix>
</trkpt>
<trkpt lat="-27.2744164" lon="151.2900455">
  <ele>357.94</ele>
  <time>2026-09-01T19:51:03Z</time>
  <course>15.48</course>
  <speed>0.130384048104053</speed>
  <fix>3d</fix>
</trkpt>
<trkpt lat="-27.2744164" lon="151.2900455">
  <ele>358.13</ele>
  <time>2026-09-01T19:51:03Z</time>
  <course>197.97</course>
  <speed>0.13</speed>
  <fix>3d</fix>
</trkpt>
<trkpt lat="-27.2744165" lon="151.2900455">
  <ele>357.94</ele>
  <time>2026-09-01T19:51:03Z</time>
  <course>16.36</course>
  <speed>0.15</speed>
  <fix>3d</fix>
</trkpt>
<trkpt lat="-27.2744164" lon="151.2900455">
  <ele>358.13</ele>
  <time>2026-09-01T19:51:03Z</time>
  <course>197.97</course>
  <speed>0.13</speed>
  <fix>3d</fix>
</trkpt>
<trkpt lat="-27.2744167" lon="151.2900455">
  <ele>357.95</ele>
  <time>2026-09-01T19:51:03Z</time>
  <course>17.14</course>
  <speed>0.17</speed>
  <fix>3d</fix>
</trkpt>
<trkpt lat="-27.2744166" lon="151.2900455">
  <ele>358.13</ele>
  <time>2026-09-01T19:51:03Z</time>
  <course>184.68</course>
  <speed>0.16</speed>
  <fix>3d</fix>
</trkpt>
<trkpt lat="-27.2744169" lon="151.2900455">
  <ele>357.95</ele>
  <time>2026-09-01T19:51:03Z</time>
  <course>17.73</course>
  <speed>0.18110770276274835</speed>
  <fix>3d</fix>
</trkpt>
<trkpt lat="-27.2744166" lon="151.2900455">
  <ele>358.13</ele>
  <time>2026-09-01T19:51:03Z</time>
  <course>184.68</course>
  <speed>0.16</speed>
  <fix>3d</fix>
</trkpt>
<trkpt lat="-27.2744171" lon="151.2900456">
  <ele>357.95</ele>
  <time>2026-09-01T19:51:03Z</time>
  <course>18.08</course>
  <speed>0.20223748416156684</speed>
  <fix>3d</fix>
</trkpt>
<trkpt lat="-27.274417" lon="151.2900455">
  <ele>358.13</ele>
  <time>2026-09-01T19:51:03Z</time>
  <course>176.1</course>
  <speed>0.2</speed>
  <fix>3d</fix>
</trkpt>
<trkpt lat="-27.2744173" lon="151.2900456">
  <ele>357.95</ele>
  <time>2026-09-01T19:51:03Z</time>
  <course>18.2</course>
  <speed>0.22561028345356957</speed>
  <fix>3d</fix>
</trkpt>
<trkpt lat="-27.274417" lon="151.2900455">
  <ele>358.13</ele>
  <time>2026-09-01T19:51:03Z</time>
  <course>176.1</course>
  <speed>0.2</speed>
  <fix>3d</fix>
</trkpt>
<trkpt lat="-27.2744175" lon="151.2900456">
  <ele>357.95</ele>
  <time>2026-09-01T19:51:03Z</time>
  <course>18.12</course>
  <speed>0.23769728648009425</speed>
  <fix>3d</fix>
</trkpt>
<trkpt lat="-27.2744174" lon="151.2900455">
  <ele>358.14</ele>
  <time>2026-09-01T19:51:03Z</time>
  <course>169.72</course>
  <speed>0.24</speed>
  <fix>3d</fix>
</trkpt>
<trkpt lat="-27.2744178" lon="151.2900457">
  <ele>357.95</ele>
  <time>2026-09-01T19:51:03Z</time>
  <course>18.07</course>
  <speed>0.2529822128134704</speed>
  <fix>3d</fix>
</trkpt>
<trkpt lat="-27.2744174" lon="151.2900455">
  <ele>358.14</ele>
  <time>2026-09-01T19:51:03Z</time>
  <course>169.72</course>
  <speed>0.24</speed>
  <fix>3d</fix>
</trkpt>
<trkpt lat="-27.274418" lon="151.2900458">
  <ele>357.95</ele>
  <time>2026-09-01T19:51:03Z</time>
  <course>18.62</course>
  <speed>0.2692582403567252</speed>
  <fix>3d</fix>
</trkpt>
<trkpt lat="-27.2744178" lon="151.2900456">
  <ele>358.14</ele>
  <time>2026-09-01T19:51:03Z</time>
  <course>164.5</course>
  <speed>0.28</speed>
  <fix>3d</fix>
</trkpt>
<trkpt lat="-27.2744183" lon="151.2900459">
  <ele>357.95</ele>
  <time>2026-09-01T19:51:03Z</time>
  <course>19.73</course>
  <speed>0.291547594742265</speed>
  <fix>3d</fix>
</trkpt>
<trkpt lat="-27.2744178" lon="151.2900456">
  <ele>358.14</ele>
  <time>2026-09-01T19:51:03Z</time>
  <course>164.5</course>
  <speed>0.28</speed>
  <fix>3d</fix>
</trkpt>
<trkpt lat="-27.2744186" lon="151.290046">
  <ele>357.95</ele>
  <time>2026-09-01T19:51:03Z</time>
  <course>21.19</course>
  <speed>0.3087069808086626</speed>
  <fix>3d</fix>
</trkpt>
<trkpt lat="-27.2744184" lon="151.2900457">
  <ele>358.14</ele>
  <time>2026-09-01T19:51:03Z</time>
  <course>159.98</course>
  <speed>0.31</speed>
  <fix>3d</fix>
</trkpt>
<trkpt lat="-27.2744189" lon="151.2900461">
  <ele>357.95</ele>
  <time>2026-09-01T19:51:03Z</time>
  <course>22.86</course>
  <speed>0.3176476034853718</speed>
  <fix>3d</fix>
</trkpt>
<trkpt lat="-27.2744184" lon="151.2900457">
  <ele>358.14</ele>
  <time>2026-09-01T19:51:03Z</time>
  <course>159.98</course>
  <speed>0.31</speed>
  <fix>3d</fix>
</trkpt>
<trkpt lat="-27.2744192" lon="151.2900463">
  <ele>357.95</ele>
  <time>2026-09-01T19:51:03Z</time>
  <course>24.67</course>
  <speed>0.3361547262794322</speed>
  <fix>3d</fix>
</trkpt>
<trkpt lat="-27.274419" lon="151.290046">
  <ele>358.14</ele>
  <time>2026-09-01T19:51:03Z</time>
  <course>155.83</course>
  <speed>0.34</speed>
  <fix>3d</fix>
</trkpt>
<trkpt lat="-27.2744195" lon="151.2900465">
  <ele>357.95</ele>
  <time>2026-09-01T19:51:03Z</time>
  <course>26.56</course>
  <speed>0.35510561809129404</speed>
  <fix>3d</fix>
</trkpt>
<trkpt lat="-27.274419" lon="151.290046">
  <ele>358.14</ele>
  <time>2026-09-01T19:51:03Z</time>
  <course>155.83</course>
  <speed>0.34</speed>
  <fix>3d</fix>
</trkpt>
<trkpt lat="-27.2744198" lon="151.2900467">
  <ele>357.95</ele>
  <time>2026-09-01T19:51:03Z</time>
  <course>28.51</course>
  <speed>0.3605551275463989</speed>
  <fix>3d</fix>
</trkpt>
<trkpt lat="-27.2744196" lon="151.2900463">
  <ele>358.14</ele>
  <time>2026-09-01T19:51:03Z</time>
  <course>151.76</course>
  <speed>0.38</speed>
  <fix>3d</fix>
</trkpt>
<trkpt lat="-27.2744201" lon="151.2900469">
  <ele>357.95</ele>
  <time>2026-09-01T19:51:03Z</time>
  <course>30.49</course>
  <speed>0.38600518131237566</speed>
  <fix>3d</fix>
</trkpt>
<trkpt lat="-27.2744196" lon="151.2900463">
  <ele>358.14</ele>
  <time>2026-09-01T19:51:03Z</time>
  <course>151.76</course>
  <speed>0.38</speed>
  <fix>3d</fix>
</trkpt>
<trkpt lat="-27.2744204" lon="151.2900471">
  <ele>357.95</ele>
  <time>2026-09-01T19:51:03Z</time>
  <course>32.48</course>
  <speed>0.39824615503479754</speed>
  <fix>3d</fix>
</trkpt>
<trkpt lat="-27.2744202" lon="151.2900467">
  <ele>358.15</ele>
  <time>2026-09-01T19:51:03Z</time>
  <course>147.65</course>
  <speed>0.41</speed>
  <fix>3d</fix>
</trkpt>
<trkpt lat="-27.2744207" lon="151.2900474">
  <ele>357.95</ele>
  <time>2026-09-01T19:51:03Z</time>
  <course>34.25</course>
  <speed>0.4186884283091664</speed>
  <fix>3d</fix>
</trkpt>
<trkpt lat="-27.2744202" lon="151.2900467">
  <ele>358.15</ele>
  <time>2026-09-01T19:51:03Z</time>
  <course>147.65</course>
  <speed>0.41</speed>
  <fix>3d</fix>
</trkpt>
<trkpt lat="-27.2744211" lon="151.2900477">
  <ele>357.95</ele>
  <time>2026-09-01T19:51:03Z</time>
  <course>35.37</course>
  <speed>0.4386342439892262</speed>
  <fix>3d</fix>
</trkpt>
<trkpt lat="-27.2744208" lon="151.2900472">
  <ele>358.15</ele>
  <time>2026-09-01T19:51:03Z</time>
  <course>143.41</course>
  <speed>0.44</speed>
  <fix>3d</fix>
</trkpt>
<trkpt lat="-27.2744214" lon="151.290048">
  <ele>357.96</ele>
  <time>2026-09-01T19:51:03Z</time>
  <course>35.76</course>
  <speed>0.4525483399593904</speed>
  <fix>3d</fix>
</trkpt>
<trkpt lat="-27.2744208" lon="151.2900472">
  <ele>358.15</ele>
  <time>2026-09-01T19:51:03Z</time>
  <course>143.41</course>
  <speed>0.44</speed>
  <fix>3d</fix>
</trkpt>
<trkpt lat="-27.2744217" lon="151.2900484">
  <ele>357.96</ele>
  <time>2026-09-01T19:51:03Z</time>
  <course>35.52</course>
  <speed>0.4675467891024384</speed>
  <fix>3d</fix>
</trkpt>
<trkpt lat="-27.2744214" lon="151.2900478">
  <ele>358.15</ele>
  <time>2026-09-01T19:51:03Z</time>
  <course>138.91</course>
  <speed>0.47</speed>
  <fix>3d</fix>
</trkpt>
<trkpt lat="-27.274422" lon="151.2900487">
  <ele>357.96</ele>
  <time>2026-09-01T19:51:03Z</time>
  <course>34.82</course>
  <speed>0.49040799340956914</speed>
  <fix>3d</fix>
</trkpt>
<trkpt lat="-27.2744214" lon="151.2900478">
  <ele>358.15</ele>
  <time>2026-09-01T19:51:03Z</time>
  <course>138.91</course>
  <speed>0.47</speed>
  <fix>3d</fix>
</trkpt>
<trkpt lat="-27.2744223" lon="151.2900491">
  <ele>357.96</ele>
  <time>2026-09-01T19:51:03Z</time>
  <course>33.87</course>
  <speed>0.5</speed>
  <fix>3d</fix>
</trkpt>
<trkpt lat="-27.2744221" lon="151.2900485">
  <ele>358.15</ele>
  <time>2026-09-01T19:51:03Z</time>
  <course>134.08</course>
  <speed>0.51</speed>
  <fix>3d</fix>
</trkpt>
<trkpt lat="-27.2744226" lon="151.2900496">
  <ele>357.96</ele>
  <time>2026-09-01T19:51:03Z</time>
  <course>32.84</course>
  <speed>0.5186520991955976</speed>
  <fix>3d</fix>
</trkpt>
<trkpt lat="-27.2744221" lon="151.2900485">
  <ele>358.15</ele>
  <time>2026-09-01T19:51:03Z</time>
  <course>134.08</course>
  <speed>0.51</speed>
  <fix>3d</fix>
</trkpt>
<trkpt lat="-27.2744229" lon="151.29005">
  <ele>357.96</ele>
  <time>2026-09-01T19:51:03Z</time>
  <course>31.91</course>
  <speed>0.5385164807134504</speed>
  <fix>3d</fix>
</trkpt>
<trkpt lat="-27.2744227" lon="151.2900493">
  <ele>358.15</ele>
  <time>2026-09-01T19:51:03Z</time>
  <course>128.98</course>
  <speed>0.54</speed>
  <fix>3d</fix>
</trkpt>
<trkpt lat="-27.2744232" lon="151.2900505">
  <ele>357.96</ele>
  <time>2026-09-01T19:51:03Z</time>
  <course>31.18</course>
  <speed>0.5507267925205745</speed>
  <fix>3d</fix>
</trkpt>
<trkpt lat="-27.2744227" lon="151.2900493">
  <ele>358.15</ele>
  <time>2026-09-01T19:51:03Z</time>
  <course>128.98</course>
  <speed>0.54</speed>
  <fix>3d</fix>
</trkpt>
<trkpt lat="-27.2744235" lon="151.290051">
  <ele>357.96</ele>
  <time>2026-09-01T19:51:03Z</time>
  <course>30.55</course>
  <speed>0.5682429058070149</speed>
  <fix>3d</fix>
</trkpt>
<trkpt lat="-27.2744233" lon="151.2900502">
  <ele>358.15</ele>
  <time>2026-09-01T19:51:03Z</time>
  <course>123.94</course>
  <speed>0.57</speed>
  <fix>3d</fix>
</trkpt>
<trkpt lat="-27.2744237" lon="151.2900515">
  <ele>357.96</ele>
  <time>2026-09-01T19:51:03Z</time>
  <course>29.67</course>
  <speed>0.5859180830116101</speed>
  <fix>3d</fix>
</trkpt>
<trkpt lat="-27.2744233" lon="151.2900502">
  <ele>358.15</ele>
  <time>2026-09-01T19:51:03Z</time>
  <course>123.94</course>
  <speed>0.57</speed>
  <fix>3d</fix>
</trkpt>
<trkpt lat="-27.274424" lon="151.2900521">
  <ele>357.95</ele>
  <time>2026-09-01T19:51:03Z</time>
  <course>28.57</course>
  <speed>0.6037383539249432</speed>
  <fix>3d</fix>
</trkpt>
<trkpt lat="-27.2744239" lon="151.2900512">
  <ele>358.14</ele>
  <time>2026-09-01T19:51:03Z</time>
  <course>120.8</course>
  <speed>0.6</speed>
  <fix>3d</fix>
</trkpt>
<trkpt lat="-27.2744243" lon="151.2900527">
  <ele>357.95</ele>
  <time>2026-09-01T19:51:03Z</time>
  <course>27.34</course>
  <speed>0.6174139616173252</speed>
  <fix>3d</fix>
</trkpt>
<trkpt lat="-27.2744239" lon="151.2900512">
  <ele>358.14</ele>
  <time>2026-09-01T19:51:03Z</time>
  <course>120.8</course>
  <speed>0.6</speed>
  <fix>3d</fix>
</trkpt>
<trkpt lat="-27.2744246" lon="151.2900532">
  <ele>357.95</ele>
  <time>2026-09-01T19:51:03Z</time>
  <course>26.02</course>
  <speed>0.6264982043070834</speed>
  <fix>3d</fix>
</trkpt>
<trkpt lat="-27.2744244" lon="151.2900523">
  <ele>358.14</ele>
  <time>2026-09-01T19:51:03Z</time>
  <course>118.89</course>
  <speed>0.63</speed>
  <fix>3d</fix>
</trkpt>
<trkpt lat="-27.2744248" lon="151.2900538">
  <ele>357.95</ele>
  <time>2026-09-01T19:51:03Z</time>
  <course>24.64</course>
  <speed>0.6407807737440318</speed>
  <fix>3d</fix>
</trkpt>
<trkpt lat="-27.2744244" lon="151.2900523">
  <ele>358.14</ele>
  <time>2026-09-01T19:51:03Z</time>
  <course>118.89</course>
  <speed>0.63</speed>
  <fix>3d</fix>
</trkpt>
<trkpt lat="-27.2744251" lon="151.2900545">
  <ele>357.95</ele>
  <time>2026-09-01T19:51:03Z</time>
  <course>23.25</course>
  <speed>0.6555150646628953</speed>
  <fix>3d</fix>
</trkpt>
<trkpt lat="-27.274425" lon="151.2900535">
  <ele>358.14</ele>
  <time>2026-09-01T19:51:03Z</time>
  <course>116.38</course>
  <speed>0.66</speed>
  <fix>3d</fix>
</trkpt>
<trkpt lat="-27.2744253" lon="151.2900551">
  <ele>357.94</ele>
  <time>2026-09-01T19:51:03Z</time>
  <course>21.85</course>
  <speed>0.6706713054842887</speed>
  <fix>3d</fix>
</trkpt>
<trkpt lat="-27.274425" lon="151.2900535">
  <ele>358.14</ele>
  <time>2026-09-01T19:51:03Z</time>
  <course>116.38</course>
  <speed>0.66</speed>
  <fix>3d</fix>
</trkpt>
<trkpt lat="-27.2744256" lon="151.2900558">
  <ele>357.94</ele>
  <time>2026-09-01T19:51:03Z</time>
  <course>20.4</course>
  <speed>0.6862215385719105</speed>
  <fix>3d</fix>
</trkpt>
<trkpt lat="-27.2744255" lon="151.2900547">
  <ele>358.14</ele>
  <time>2026-09-01T19:51:03Z</time>
  <course>113.64</course>
  <speed>0.69</speed>
  <fix>3d</fix>
</trkpt>
<trkpt lat="-27.2744258" lon="151.2900565">
  <ele>357.94</ele>
  <time>2026-09-01T19:51:03Z</time>
  <course>19.01</course>
  <speed>0.6896375859826667</speed>
  <fix>3d</fix>
</trkpt>
<trkpt lat="-27.2744255" lon="151.2900547">
  <ele>358.14</ele>
  <time>2026-09-01T19:51:03Z</time>
  <course>113.64</course>
  <speed>0.69</speed>
  <fix>3d</fix>
</trkpt>
<trkpt lat="-27.274426" lon="151.2900572">
  <ele>357.94</ele>
  <time>2026-09-01T19:51:03Z</time>
  <course>17.63</course>
  <speed>0.7060453243241541</speed>
  <fix>3d</fix>
</trkpt>
<trkpt lat="-27.274426" lon="151.2900561">
  <ele>358.13</ele>
  <time>2026-09-01T19:51:03Z</time>
  <course>110.83</course>
  <speed>0.71</speed>
  <fix>3d</fix>
</trkpt>
<trkpt lat="-27.2744262" lon="151.2900579">
  <ele>357.94</ele>
  <time>2026-09-01T19:51:03Z</time>
  <course>16.24</course>
  <speed>0.7130918594402827</speed>
  <fix>3d</fix>
</trkpt>
<trkpt lat="-27.274426" lon="151.2900561">
  <ele>358.13</ele>
  <time>2026-09-01T19:51:03Z</time>
  <course>110.83</course>
  <speed>0.71</speed>
  <fix>3d</fix>
</trkpt>
<trkpt lat="-27.2744264" lon="151.2900586">
  <ele>357.94</ele>
  <time>2026-09-01T19:51:03Z</time>
  <course>14.84</course>
  <speed>0.7300684899377592</speed>
  <fix>3d</fix>
</trkpt>
<trkpt lat="-27.2744263" lon="151.2900575">
  <ele>358.13</ele>
  <time>2026-09-01T19:51:03Z</time>
  <course>108.05</course>
  <speed>0.73</speed>
  <fix>3d</fix>
</trkpt>
<trkpt lat="-27.2744266" lon="151.2900594">
  <ele>357.94</ele>
  <time>2026-09-01T19:51:03Z</time>
  <course>13.46</course>
  <speed>0.7354590403278758</speed>
  <fix>3d</fix>
</trkpt>
<trkpt lat="-27.2744263" lon="151.2900575">
  <ele>358.13</ele>
  <time>2026-09-01T19:51:03Z</time>
  <course>108.05</course>
  <speed>0.73</speed>
  <fix>3d</fix>
</trkpt>
<trkpt lat="-27.2744268" lon="151.2900601">
  <ele>357.94</ele>
  <time>2026-09-01T19:51:03Z</time>
  <course>12.08</course>
  <speed>0.7433034373659253</speed>
  <fix>3d</fix>
</trkpt>
<trkpt lat="-27.2744268" lon="151.2900589">
  <ele>358.13</ele>
  <time>2026-09-01T19:51:03Z</time>
  <course>105.46</course>
  <speed>0.75</speed>
  <fix>3d</fix>
</trkpt>
<trkpt lat="-27.2744269" lon="151.2900609">
  <ele>357.94</ele>
  <time>2026-09-01T19:51:03Z</time>
  <course>10.7</course>
  <speed>0.7611832893594026</speed>
  <fix>3d</fix>
</trkpt>
<trkpt lat="-27.2744268" lon="151.2900589">
  <ele>358.13</ele>
  <time>2026-09-01T19:51:03Z</time>
  <course>105.46</course>
  <speed>0.75</speed>
  <fix>3d</fix>
</trkpt>
<trkpt lat="-27.2744271" lon="151.2900617">
  <ele>357.94</ele>
  <time>2026-09-01T19:51:03Z</time>
  <course>9.34</course>
  <speed>0.7679192665899195</speed>
  <fix>3d</fix>
</trkpt>
<trkpt lat="-27.2744271" lon="151.2900604">
  <ele>358.13</ele>
  <time>2026-09-01T19:51:03Z</time>
  <course>103.11</course>
  <speed>0.77</speed>
  <fix>3d</fix>
</trkpt>
<trkpt lat="-27.2744272" lon="151.2900625">
  <ele>357.94</ele>
  <time>2026-09-01T19:51:03Z</time>
  <course>7.98</course>
  <speed>0.766550715869472</speed>
  <fix>3d</fix>
</trkpt>
<trkpt lat="-27.2744271" lon="151.2900604">
  <ele>358.13</ele>
  <time>2026-09-01T19:51:03Z</time>
  <course>103.11</course>
  <speed>0.77</speed>
  <fix>3d</fix>
</trkpt>
<trkpt lat="-27.2744273" lon="151.2900632">
  <ele>357.95</ele>
  <time>2026-09-01T19:51:03Z</time>
  <course>6.62</course>
  <speed>0.7741446893184762</speed>
  <fix>3d</fix>
</trkpt>
<trkpt lat="-27.2744274" lon="151.2900619">
  <ele>358.13</ele>
  <time>2026-09-01T19:51:03Z</time>
  <course>100.85</course>
  <speed>0.79</speed>
  <fix>3d</fix>
</trkpt>
<trkpt lat="-27.2744274" lon="151.290064">
  <ele>357.95</ele>
  <time>2026-09-01T19:51:03Z</time>
  <course>5.27</course>
  <speed>0.7831347265956222</speed>
  <fix>3d</fix>
</trkpt>
<trkpt lat="-27.2744274" lon="151.2900619">
  <ele>358.13</ele>
  <time>2026-09-01T19:51:03Z</time>
  <course>100.85</course>
  <speed>0.79</speed>
  <fix>3d</fix>
</trkpt>
<trkpt lat="-27.2744275" lon="151.2900649">
  <ele>357.95</ele>
  <time>2026-09-01T19:51:03Z</time>
  <course>4.04</course>
  <speed>0.791580697086532</speed>
  <fix>3d</fix>
</trkpt>
<trkpt lat="-27.2744276" lon="151.2900636">
  <ele>358.13</ele>
  <time>2026-09-01T19:51:03Z</time>
  <course>98.51</course>
  <speed>0.8</speed>
  <fix>3d</fix>
</trkpt>
<trkpt lat="-27.2744276" lon="151.2900657">
  <ele>357.95</ele>
  <time>2026-09-01T19:51:03Z</time>
  <course>3.25</course>
  <speed>0.7905694150420949</speed>
  <fix>3d</fix>
</trkpt>
<trkpt lat="-27.2744276" lon="151.2900636">
  <ele>358.13</ele>
  <time>2026-09-01T19:51:03Z</time>
  <course>98.51</course>
  <speed>0.8</speed>
  <fix>3d</fix>
</trkpt>
<trkpt lat="-27.2744276" lon="151.2900665">
  <ele>357.95</ele>
  <time>2026-09-01T19:51:03Z</time>
  <course>3.0</course>
  <speed>0.7902531240052139</speed>
  <fix>3d</fix>
</trkpt>
<trkpt lat="-27.2744278" lon="151.2900652">
  <ele>358.13</ele>
  <time>2026-09-01T19:51:03Z</time>
  <course>96.01</course>
  <speed>0.81</speed>
  <fix>3d</fix>
</trkpt>
<trkpt lat="-27.2744277" lon="151.2900673">
  <ele>357.95</ele>
  <time>2026-09-01T19:51:03Z</time>
  <course>3.22</course>
  <speed>0.7902531240052139</speed>
  <fix>3d</fix>
</trkpt>
<trkpt lat="-27.2744278" lon="151.2900652">
  <ele>358.13</ele>
  <time>2026-09-01T19:51:03Z</time>
  <course>96.01</course>
  <speed>0.81</speed>
  <fix>3d</fix>
</trkpt>
<trkpt lat="-27.2744277" lon="151.2900681">
  <ele>357.95</ele>
  <time>2026-09-01T19:51:03Z</time>
  <course>3.77</course>
  <speed>0.7805767098754611</speed>
  <fix>3d</fix>
</trkpt>
<trkpt lat="-27.2744279" lon="151.2900667">
  <ele>358.13</ele>
  <time>2026-09-01T19:51:03Z</time>
  <course>94.25</course>
  <speed>0.81</speed>
  <fix>3d</fix>
</trkpt>
<trkpt lat="-27.2744278" lon="151.2900689">
  <ele>357.95</ele>
  <time>2026-09-01T19:51:03Z</time>
  <course>4.49</course>
  <speed>0.7705841939723393</speed>
  <fix>3d</fix>
</trkpt>
<trkpt lat="-27.2744279" lon="151.2900667">
  <ele>358.13</ele>
  <time>2026-09-01T19:51:03Z</time>
  <course>94.25</course>
  <speed>0.81</speed>
  <fix>3d</fix>
</trkpt>
<trkpt lat="-27.2744278" lon="151.2900697">
  <ele>357.95</ele>
  <time>2026-09-01T19:51:03Z</time>
  <course>5.24</course>
  <speed>0.7610519036176179</speed>
  <fix>3d</fix>
</trkpt>
<trkpt lat="-27.274428" lon="151.2900684">
  <ele>358.14</ele>
  <time>2026-09-01T19:51:03Z</time>
  <course>94.25</course>
  <speed>0.8</speed>
  <fix>3d</fix>
</trkpt>
<trkpt lat="-27.2744279" lon="151.2900705">
  <ele>357.95</ele>
  <time>2026-09-01T19:51:03Z</time>
  <course>5.89</course>
  <speed>0.7516648189186453</speed>
  <fix>3d</fix>
</trkpt>
<trkpt lat="-27.274428" lon="151.2900684">
  <ele>358.14</ele>
  <time>2026-09-01T19:51:03Z</time>
  <course>94.25</course>
  <speed>0.8</speed>
  <fix>3d</fix>
</trkpt>
<trkpt lat="-27.274428" lon="151.2900713">
  <ele>357.95</ele>
  <time>2026-09-01T19:51:03Z</time>
  <course>6.37</course>
  <speed>0.7424284477308234</speed>
  <fix>3d</fix>
</trkpt>
<trkpt lat="-27.2744282" lon="151.29007">
  <ele>358.14</ele>
  <time>2026-09-01T19:51:03Z</time>
  <course>95.39</course>
  <speed>0.78</speed>
  <fix>3d</fix>
</trkpt>
<trkpt lat="-27.2744281" lon="151.2900721">
  <ele>357.95</ele>
  <time>2026-09-01T19:51:03Z</time>
  <course>6.63</course>
  <speed>0.7424284477308234</speed>
  <fix>3d</fix>
</trkpt>
<trkpt lat="-27.2744282" lon="151.29007">
  <ele>358.14</ele>
  <time>2026-09-01T19:51:03Z</time>
  <course>95.39</course>
  <speed>0.78</speed>
  <fix>3d</fix>
</trkpt>
<trkpt lat="-27.2744282" lon="151.2900729">
  <ele>357.95</ele>
  <time>2026-09-01T19:51:03Z</time>
  <course>6.7</course>
  <speed>0.7333484846919641</speed>
  <fix>3d</fix>
</trkpt>
<trkpt lat="-27.2744283" lon="151.2900715">
  <ele>358.14</ele>
  <time>2026-09-01T19:51:03Z</time>
  <course>96.6</course>
  <speed>0.77</speed>
  <fix>3d</fix>
</trkpt>
<trkpt lat="-27.2744283" lon="151.2900736">
  <ele>357.95</ele>
  <time>2026-09-01T19:51:03Z</time>
  <course>6.6</course>
  <speed>0.7224956747275377</speed>
  <fix>3d</fix>
</trkpt>
<trkpt lat="-27.2744283" lon="151.2900715">
  <ele>358.14</ele>
  <time>2026-09-01T19:51:03Z</time>
  <course>96.6</course>
  <speed>0.77</speed>
  <fix>3d</fix>
</trkpt>
<trkpt lat="-27.2744283" lon="151.2900743">
  <ele>357.95</ele>
  <time>2026-09-01T19:51:03Z</time>
  <course>6.83</course>
  <speed>0.7125307010929425</speed>
  <fix>3d</fix>
</trkpt>
<trkpt lat="-27.2744285" lon="151.2900731">
  <ele>358.15</ele>
  <time>2026-09-01T19:51:03Z</time>
  <course>97.2</course>
  <speed>0.75</speed>
  <fix>3d</fix>
</trkpt>
<trkpt lat="-27.2744284" lon="151.2900751">
  <ele>357.95</ele>
  <time>2026-09-01T19:51:03Z</time>
  <course>7.72</course>
  <speed>0.6935416353759881</speed>
  <fix>3d</fix>
</trkpt>
<trkpt lat="-27.2744285" lon="151.2900731">
  <ele>358.15</ele>
  <time>2026-09-01T19:51:03Z</time>
  <course>97.2</course>
  <speed>0.75</speed>
  <fix>3d</fix>
</trkpt>
<trkpt lat="-27.2744285" lon="151.2900758">
  <ele>357.95</ele>
  <time>2026-09-01T19:51:03Z</time>
  <course>9.09</course>
  <speed>0.6846897107449476</speed>
  <fix>3d</fix>
</trkpt>
<trkpt lat="-27.2744287" lon="151.2900746">
  <ele>358.15</ele>
  <time>2026-09-01T19:51:03Z</time>
  <course>97.57</course>
  <speed>0.73</speed>
  <fix>3d</fix>
</trkpt>
<trkpt lat="-27.2744286" lon="151.2900765">
  <ele>357.95</ele>
  <time>2026-09-01T19:51:03Z</time>
  <course>10.74</course>
  <speed>0.6760177512462228</speed>
  <fix>3d</fix>
</trkpt>
<trkpt lat="-27.2744287" lon="151.2900746">
  <ele>358.15</ele>
  <time>2026-09-01T19:51:03Z</time>
  <course>97.57</course>
  <speed>0.73</speed>
  <fix>3d</fix>
</trkpt>
<trkpt lat="-27.2744288" lon="151.2900772">
  <ele>357.95</ele>
  <time>2026-09-01T19:51:03Z</time>
  <course>12.55</course>
  <speed>0.6675327707311455</speed>
  <fix>3d</fix>
</trkpt>
<trkpt lat="-27.2744288" lon="151.2900761">
  <ele>358.15</ele>
  <time>2026-09-01T19:51:03Z</time>
  <course>98.92</course>
  <speed>0.71</speed>
  <fix>3d</fix>
</trkpt>
<trkpt lat="-27.2744289" lon="151.2900779">
  <ele>357.96</ele>
  <time>2026-09-01T19:51:03Z</time>
  <course>14.46</course>
  <speed>0.6592419889539803</speed>
  <fix>3d</fix>
</trkpt>
<trkpt lat="-27.2744288" lon="151.2900761">
  <ele>358.15</ele>
  <time>2026-09-01T19:51:03Z</time>
  <course>98.92</course>
  <speed>0.71</speed>
  <fix>3d</fix>
</trkpt>
<trkpt lat="-27.274429" lon="151.2900785">
  <ele>357.96</ele>
  <time>2026-09-01T19:51:03Z</time>
  <course>16.36</course>
  <speed>0.6530696746902278</speed>
  <fix>3d</fix>
</trkpt>
<trkpt lat="-27.2744291" lon="151.2900775">
  <ele>358.16</ele>
  <time>2026-09-01T19:51:03Z</time>
  <course>101.05</course>
  <speed>0.69</speed>
  <fix>3d</fix>
</trkpt>
<trkpt lat="-27.2744292" lon="151.2900792">
  <ele>357.96</ele>
  <time>2026-09-01T19:51:03Z</time>
  <course>18.35</course>
  <speed>0.6453681120105021</speed>
  <fix>3d</fix>
</trkpt>
<trkpt lat="-27.2744291" lon="151.2900775">
  <ele>358.16</ele>
  <time>2026-09-01T19:51:03Z</time>
  <course>101.05</course>
  <speed>0.69</speed>
  <fix>3d</fix>
</trkpt>
<trkpt lat="-27.2744293" lon="151.2900798">
  <ele>357.96</ele>
  <time>2026-09-01T19:51:03Z</time>
  <course>20.34</course>
  <speed>0.6378871373526824</speed>
  <fix>3d</fix>
</trkpt>
<trkpt lat="-27.2744293" lon="151.2900788">
  <ele>358.16</ele>
  <time>2026-09-01T19:51:03Z</time>
  <course>103.32</course>
  <speed>0.67</speed>
  <fix>3d</fix>
</trkpt>
<trkpt lat="-27.2744295" lon="151.2900805">
  <ele>357.96</ele>
  <time>2026-09-01T19:51:03Z</time>
  <course>22.04</course>
  <speed>0.6306346010171024</speed>
  <fix>3d</fix>
</trkpt>
<trkpt lat="-27.2744293" lon="151.2900788">
  <ele>358.16</ele>
  <time>2026-09-01T19:51:03Z</time>
  <course>103.32</course>
  <speed>0.67</speed>
  <fix>3d</fix>
</trkpt>
<trkpt lat="-27.2744297" lon="151.2900811">
  <ele>357.96</ele>
  <time>2026-09-01T19:51:03Z</time>
  <course>23.05</course>
  <speed>0.6140032573203501</speed>
  <fix>3d</fix>
</trkpt>
<trkpt lat="-27.2744296" lon="151.2900801">
  <ele>358.17</ele>
  <time>2026-09-01T19:51:03Z</time>
  <course>105.69</course>
  <speed>0.65</speed>
  <fix>3d</fix>
</trkpt>
<trkpt lat="-27.2744298" lon="151.2900817">
  <ele>357.96</ele>
  <time>2026-09-01T19:51:03Z</time>
  <course>23.33</course>
  <speed>0.6072890580275591</speed>
  <fix>3d</fix>
</trkpt>
<trkpt lat="-27.2744296" lon="151.2900801">
  <ele>358.17</ele>
  <time>2026-09-01T19:51:03Z</time>
  <course>105.69</course>
  <speed>0.65</speed>
  <fix>3d</fix>
</trkpt>
<trkpt lat="-27.27443" lon="151.2900823">
  <ele>357.97</ele>
  <time>2026-09-01T19:51:03Z</time>
  <course>23.01</course>
  <speed>0.5913543776789008</speed>
  <fix>3d</fix>
</trkpt>
<trkpt lat="-27.27443" lon="151.2900814">
  <ele>358.17</ele>
  <time>2026-09-01T19:51:03Z</time>
  <course>108.21</course>
  <speed>0.64</speed>
  <fix>3d</fix>
</trkpt>
<trkpt lat="-27.2744303" lon="151.2900829">
  <ele>357.97</ele>
  <time>2026-09-01T19:51:03Z</time>
  <course>22.26</course>
  <speed>0.5852349955359812</speed>
  <fix>3d</fix>
</trkpt>
<trkpt lat="-27.27443" lon="151.2900814">
  <ele>358.17</ele>
  <time>2026-09-01T19:51:03Z</time>
  <course>108.21</course>
  <speed>0.64</speed>
  <fix>3d</fix>
</trkpt>
<trkpt lat="-27.2744305" lon="151.2900835">
  <ele>357.97</ele>
  <time>2026-09-01T19:51:03Z</time>
  <course>21.26</course>
  <speed>0.5724508712544685</speed>
  <fix>3d</fix>
</trkpt>
<trkpt lat="-27.2744304" lon="151.2900826">
  <ele>358.17</ele>
  <time>2026-09-01T19:51:03Z</time>
  <course>110.94</course>
  <speed>0.62</speed>
  <fix>3d</fix>
</trkpt>
<trkpt lat="-27.2744307" lon="151.290084">
  <ele>357.97</ele>
  <time>2026-09-01T19:51:03Z</time>
  <course>20.23</course>
  <speed>0.5597320787662612</speed>
  <fix>3d</fix>
</trkpt>
<trkpt lat="-27.2744304" lon="151.2900826">
  <ele>358.17</ele>
  <time>2026-09-01T19:51:03Z</time>
  <course>110.94</course>
  <speed>0.62</speed>
  <fix>3d</fix>
</trkpt>
<trkpt lat="-27.2744308" lon="151.2900846">
  <ele>357.98</ele>
  <time>2026-09-01T19:51:03Z</time>
  <course>19.3</course>
  <speed>0.5440588203494178</speed>
  <fix>3d</fix>
</trkpt>
<trkpt lat="-27.2744308" lon="151.2900837">
  <ele>358.18</ele>
  <time>2026-09-01T19:51:03Z</time>
  <course>111.54</course>
  <speed>0.59</speed>
  <fix>3d</fix>
</trkpt>
<trkpt lat="-27.274431" lon="151.2900851">
  <ele>357.98</ele>
  <time>2026-09-01T19:51:03Z</time>
  <course>18.56</course>
  <speed>0.5316013544000805</speed>
  <fix>3d</fix>
</trkpt>
<trkpt lat="-27.2744308" lon="151.2900837">
  <ele>358.18</ele>
  <time>2026-09-01T19:51:03Z</time>
  <course>111.54</course>
  <speed>0.59</speed>
  <fix>3d</fix>
</trkpt>
<trkpt lat="-27.2744312" lon="151.2900857">
  <ele>357.98</ele>
  <time>2026-09-01T19:51:03Z</time>
  <course>17.82</course>
  <speed>0.5096076922496363</speed>
  <fix>3d</fix>
</trkpt>
<trkpt lat="-27.2744311" lon="151.2900848">
  <ele>358.18</ele>
  <time>2026-09-01T19:51:03Z</time>
  <course>109.84</course>
  <speed>0.56</speed>
  <fix>3d</fix>
</trkpt>
<trkpt lat="-27.2744313" lon="151.2900862">
  <ele>357.99</ele>
  <time>2026-09-01T19:51:03Z</time>
  <course>16.81</course>
  <speed>0.49729267036625424</speed>
  <fix>3d</fix>
</trkpt>
<trkpt lat="-27.2744311" lon="151.2900848">
  <ele>358.18</ele>
  <time>2026-09-01T19:51:03Z</time>
  <course>109.84</course>
  <speed>0.56</speed>
  <fix>3d</fix>
</trkpt>
<trkpt lat="-27.2744315" lon="151.2900867">
  <ele>357.99</ele>
  <time>2026-09-01T19:51:03Z</time>
  <course>15.59</course>
  <speed>0.4850773134253961</speed>
  <fix>3d</fix>
</trkpt>
<trkpt lat="-27.2744314" lon="151.2900859">
  <ele>358.18</ele>
  <time>2026-09-01T19:51:03Z</time>
  <course>108.42</course>
  <speed>0.53</speed>
  <fix>3d</fix>
</trkpt>
<trkpt lat="-27.2744316" lon="151.2900872">
  <ele>357.99</ele>
  <time>2026-09-01T19:51:03Z</time>
  <course>14.24</course>
  <speed>0.4632493928760188</speed>
  <fix>3d</fix>
</trkpt>
<trkpt lat="-27.2744314" lon="151.2900859">
  <ele>358.18</ele>
  <time>2026-09-01T19:51:03Z</time>
  <course>108.42</course>
  <speed>0.53</speed>
  <fix>3d</fix>
</trkpt>
<trkpt lat="-27.2744317" lon="151.2900876">
  <ele>357.99</ele>
  <time>2026-09-01T19:51:03Z</time>
  <course>12.82</course>
  <speed>0.4535416188179427</speed>
  <fix>3d</fix>
</trkpt>
<trkpt lat="-27.2744317" lon="151.2900869">
  <ele>358.18</ele>
  <time>2026-09-01T19:51:03Z</time>
  <course>107.44</course>
  <speed>0.5</speed>
  <fix>3d</fix>
</trkpt>
<trkpt lat="-27.2744318" lon="151.2900881">
  <ele>357.99</ele>
  <time>2026-09-01T19:51:03Z</time>
  <course>11.33</course>
  <speed>0.431740662898458</speed>
  <fix>3d</fix>
</trkpt>
<trkpt lat="-27.2744317" lon="151.2900869">
  <ele>358.18</ele>
  <time>2026-09-01T19:51:03Z</time>
  <course>107.44</course>
  <speed>0.5</speed>
  <fix>3d</fix>
</trkpt>
<trkpt lat="-27.2744319" lon="151.2900885">
  <ele>357.99</ele>
  <time>2026-09-01T19:51:03Z</time>
  <course>9.82</course>
  <speed>0.4220189569201838</speed>
  <fix>3d</fix>
</trkpt>
<trkpt lat="-27.274432" lon="151.2900878">
  <ele>358.18</ele>
  <time>2026-09-01T19:51:03Z</time>
  <course>106.89</course>
  <speed>0.47</speed>
  <fix>3d</fix>
</trkpt>
<trkpt lat="-27.2744321" lon="151.2900889">
  <ele>357.99</ele>
  <time>2026-09-01T19:51:03Z</time>
  <course>8.28</course>
  <speed>0.40024992192379005</speed>
  <fix>3d</fix>
</trkpt>
<trkpt lat="-27.274432" lon="151.2900878">
  <ele>358.18</ele>
  <time>2026-09-01T19:51:03Z</time>
  <course>106.89</course>
  <speed>0.47</speed>
  <fix>3d</fix>
</trkpt>
<trkpt lat="-27.2744322" lon="151.2900893">
  <ele>357.99</ele>
  <time>2026-09-01T19:51:03Z</time>
  <course>6.73</course>
  <speed>0.38078865529319544</speed>
  <fix>3d</fix>
</trkpt>
<trkpt lat="-27.2744322" lon="151.2900887">
  <ele>358.17</ele>
  <time>2026-09-01T19:51:03Z</time>
  <course>106.73</course>
  <speed>0.43</speed>
  <fix>3d</fix>
</trkpt>
<trkpt lat="-27.2744323" lon="151.2900897">
  <ele>357.98</ele>
  <time>2026-09-01T19:51:03Z</time>
  <course>5.16</course>
  <speed>0.3687817782917155</speed>
  <fix>3d</fix>
</trkpt>
<trkpt lat="-27.2744322" lon="151.2900887">
  <ele>358.17</ele>
  <time>2026-09-01T19:51:03Z</time>
  <course>106.73</course>
  <speed>0.43</speed>
  <fix>3d</fix>
</trkpt>
<trkpt lat="-27.2744324" lon="151.2900901">
  <ele>357.98</ele>
  <time>2026-09-01T19:51:03Z</time>
  <course>3.58</course>
  <speed>0.34928498393145957</speed>
  <fix>3d</fix>
</trkpt>
<trkpt lat="-27.2744324" lon="151.2900895">
  <ele>358.16</ele>
  <time>2026-09-01T19:51:03Z</time>
  <course>106.91</course>
  <speed>0.4</speed>
  <fix>3d</fix>
</trkpt>
<trkpt lat="-27.2744325" lon="151.2900904">
  <ele>357.97</ele>
  <time>2026-09-01T19:51:03Z</time>
  <course>1.99</course>
  <speed>0.3298484500494128</speed>
  <fix>3d</fix>
</trkpt>
<trkpt lat="-27.2744324" lon="151.2900895">
  <ele>358.16</ele>
  <time>2026-09-01T19:51:03Z</time>
  <course>106.91</course>
  <speed>0.4</speed>
  <fix>3d</fix>
</trkpt>
<trkpt lat="-27.2744326" lon="151.2900908">
  <ele>357.97</ele>
  <time>2026-09-01T19:51:03Z</time>
  <course>0.4</course>
  <speed>0.3178049716414141</speed>
  <fix>3d</fix>
</trkpt>
<trkpt lat="-27.2744327" lon="151.2900902">
  <ele>358.15</ele>
  <time>2026-09-01T19:51:03Z</time>
  <course>107.39</course>
  <speed>0.37</speed>
  <fix>3d</fix>
</trkpt>
<trkpt lat="-27.2744326" lon="151.2900911">
  <ele>357.96</ele>
  <time>2026-09-01T19:51:03Z</time>
  <course>358.8</course>
  <speed>0.29832867780352595</speed>
  <fix>3d</fix>
</trkpt>
<trkpt lat="-27.2744327" lon="151.2900902">
  <ele>358.15</ele>
  <time>2026-09-01T19:51:03Z</time>
  <course>107.39</course>
  <speed>0.37</speed>
  <fix>3d</fix>
</trkpt>
<trkpt lat="-27.2744327" lon="151.2900914">
  <ele>357.96</ele>
  <time>2026-09-01T19:51:04Z</time>
  <course>357.19</course>
  <speed>0.27892651361962706</speed>
  <fix>3d</fix>
</trkpt>
<trkpt lat="-27.2744329" lon="151.290091">
  <ele>358.14</ele>
  <time>2026-09-01T19:51:04Z</time>
  <course>108.22</course>
  <speed>0.33</speed>
  <fix>3d</fix>
</trkpt>
<trkpt lat="-27.2744328" lon="151.2900917">
  <ele>357.95</ele>
  <time>2026-09-01T19:51:04Z</time>
  <course>355.57</course>
  <speed>0.2596150997149434</speed>
  <fix>3d</fix>
</trkpt>
<trkpt lat="-27.2744329" lon="151.290091">
  <ele>358.14</ele>
  <time>2026-09-01T19:51:04Z</time>
  <course>108.22</course>
  <speed>0.33</speed>
  <fix>3d</fix>
</trkpt>
<trkpt lat="-27.2744329" lon="151.2900919">
  <ele>357.95</ele>
  <time>2026-09-01T19:51:04Z</time>
  <course>354.0</course>
  <speed>0.24041630560342614</speed>
  <fix>3d</fix>
</trkpt>
<trkpt lat="-27.274433" lon="151.2900915">
  <ele>358.13</ele>
  <time>2026-09-01T19:51:04Z</time>
  <course>109.55</course>
  <speed>0.3</speed>
  <fix>3d</fix>
</trkpt>
<trkpt lat="-27.274433" lon="151.2900921">
  <ele>357.95</ele>
  <time>2026-09-01T19:51:04Z</time>
  <course>352.35</course>
  <speed>0.2308679276123039</speed>
  <fix>3d</fix>
</trkpt>
<trkpt lat="-27.274433" lon="151.2900915">
  <ele>358.13</ele>
  <time>2026-09-01T19:51:04Z</time>
  <course>109.55</course>
  <speed>0.3</speed>
  <fix>3d</fix>
</trkpt>
<trkpt lat="-27.2744331" lon="151.2900924">
  <ele>357.95</ele>
  <time>2026-09-01T19:51:04Z</time>
  <course>350.7</course>
  <speed>0.21189620100417092</speed>
  <fix>3d</fix>
</trkpt>
<trkpt lat="-27.2744332" lon="151.2900921">
  <ele>358.13</ele>
  <time>2026-09-01T19:51:04Z</time>
  <course>111.65</course>
  <speed>0.26</speed>
  <fix>3d</fix>
</trkpt>
<trkpt lat="-27.2744332" lon="151.2900926">
  <ele>357.95</ele>
  <time>2026-09-01T19:51:04Z</time>
  <course>349.05</course>
  <speed>0.19313207915827968</speed>
  <fix>3d</fix>
</trkpt>
<trkpt lat="-27.2744332" lon="151.2900921">
  <ele>358.13</ele>
  <time>2026-09-01T19:51:04Z</time>
  <course>111.65</course>
  <speed>0.26</speed>
  <fix>3d</fix>
</trkpt>
<trkpt lat="-27.2744333" lon="151.2900928">
  <ele>357.95</ele>
  <time>2026-09-01T19:51:04Z</time>
  <course>347.52</course>
  <speed>0.17464249196572978</speed>
  <fix>3d</fix>
</trkpt>
<trkpt lat="-27.2744334" lon="151.2900925">
  <ele>358.12</ele>
  <time>2026-09-01T19:51:04Z</time>
  <course>114.84</course>
  <speed>0.23</speed>
  <fix>3d</fix>
</trkpt>
<trkpt lat="-27.2744334" lon="151.2900929">
  <ele>357.95</ele>
  <time>2026-09-01T19:51:04Z</time>
  <course>346.53</course>
  <speed>0.15652475842498528</speed>
  <fix>3d</fix>
</trkpt>
<trkpt lat="-27.2744334" lon="151.2900925">
  <ele>358.12</ele>
  <time>2026-09-01T19:51:04Z</time>
  <course>114.84</course>
  <speed>0.23</speed>
  <fix>3d</fix>
</trkpt>
<trkpt lat="-27.2744335" lon="151.2900931">
  <ele>357.94</ele>
  <time>2026-09-01T19:51:04Z</time>
  <course>346.13</course>
  <speed>0.130384048104053</speed>
  <fix>3d</fix>
</trkpt>
<trkpt lat="-27.2744336" lon="151.290093">
  <ele>358.12</ele>
  <time>2026-09-01T19:51:04Z</time>
  <course>119.9</course>
  <speed>0.2</speed>
  <fix>3d</fix>
</trkpt>
<trkpt lat="-27.2744336" lon="151.2900932">
  <ele>357.94</ele>
  <time>2026-09-01T19:51:04Z</time>
  <course>346.26</course>
  <speed>0.12041594578792296</speed>
  <fix>3d</fix>
</trkpt>
<trkpt lat="-27.2744336" lon="151.290093">
  <ele>358.12</ele>
  <time>2026-09-01T19:51:04Z</time>
  <course>119.9</course>
  <speed>0.2</speed>
  <fix>3d</fix>
</trkpt>
<trkpt lat="-27.2744337" lon="151.2900933">
  <ele>357.94</ele>
  <time>2026-09-01T19:51:04Z</time>
  <course>346.79</course>
  <speed>0.1063014581273465</speed>
  <fix>3d</fix>
</trkpt>
<trkpt lat="-27.2744338" lon="151.2900933">
  <ele>358.12</ele>
  <time>2026-09-01T19:51:04Z</time>
  <course>128.65</course>
  <speed>0.16</speed>
  <fix>3d</fix>
</trkpt>
<trkpt lat="-27.2744338" lon="151.2900934">
  <ele>357.94</ele>
  <time>2026-09-01T19:51:04Z</time>
  <course>347.57</course>
  <speed>0.09848857801796104</speed>
  <fix>3d</fix>
</trkpt>
<trkpt lat="-27.2744338" lon="151.2900933">
  <ele>358.12</ele>
  <time>2026-09-01T19:51:04Z</time>
  <course>128.65</course>
  <speed>0.16</speed>
  <fix>3d</fix>
</trkpt>
<trkpt lat="-27.2744339" lon="151.2900934">
  <ele>357.94</ele>
  <time>2026-09-01T19:51:04Z</time>
  <course>348.44</course>
  <speed>0.09055385138137417</speed>
  <fix>3d</fix>
</trkpt>
<trkpt lat="-27.274434" lon="151.2900935">
  <ele>358.12</ele>
  <time>2026-09-01T19:51:04Z</time>
  <course>143.55</course>
  <speed>0.13</speed>
  <fix>3d</fix>
</trkpt>
<trkpt lat="-27.274434" lon="151.2900934">
  <ele>357.94</ele>
  <time>2026-09-01T19:51:04Z</time>
  <course>349.24</course>
  <speed>0.09</speed>
  <fix>3d</fix>
</trkpt>
<trkpt lat="-27.274434" lon="151.2900935">
  <ele>358.12</ele>
  <time>2026-09-01T19:51:04Z</time>
  <course>143.55</course>
  <speed>0.13</speed>
  <fix>3d</fix>
</trkpt>
<trkpt lat="-27.2744341" lon="151.2900934">
  <ele>357.95</ele>
  <time>2026-09-01T19:51:04Z</time>
  <course>349.87</course>
  <speed>0.1044030650891055</speed>
  <fix>3d</fix>
</trkpt>
<trkpt lat="-27.2744342" lon="151.2900936">
  <ele>358.13</ele>
  <time>2026-09-01T19:51:04Z</time>
  <course>165.45</course>
  <speed>0.12</speed>
  <fix>3d</fix>
</trkpt>
<trkpt lat="-27.2744342" lon="151.2900934">
  <ele>357.95</ele>
  <time>2026-09-01T19:51:04Z</time>
  <course>350.27</course>
  <speed>0.1118033988749895</speed>
  <fix>3d</fix>
</trkpt>
<trkpt lat="-27.2744342" lon="151.2900936">
  <ele>358.13</ele>
  <time>2026-09-01T19:51:04Z</time>
  <course>165.45</course>
  <speed>0.12</speed>
  <fix>3d</fix>
</trkpt>
<trkpt lat="-27.2744343" lon="151.2900935">
  <ele>357.95</ele>
  <time>2026-09-01T19:51:04Z</time>
  <course>350.42</course>
  <speed>0.12806248474865697</speed>
  <fix>3d</fix>
</trkpt>
<trkpt lat="-27.2744343" lon="151.2900936">
  <ele>358.13</ele>
  <time>2026-09-01T19:51:04Z</time>
  <course>189.52</course>
  <speed>0.12</speed>
  <fix>3d</fix>
</trkpt>
<trkpt lat="-27.2744345" lon="151.2900934">
  <ele>357.95</ele>
  <time>2026-09-01T19:51:04Z</time>
  <course>350.36</course>
  <speed>0.15556349186104046</speed>
  <fix>3d</fix>
</trkpt>
<trkpt lat="-27.2744343" lon="151.2900936">
  <ele>358.13</ele>
  <time>2026-09-01T19:51:04Z</time>
  <course>189.52</course>
  <speed>0.12</speed>
  <fix>3d</fix>
</trkpt>
<trkpt lat="-27.2744346" lon="151.2900933">
  <ele>357.96</ele>
  <time>2026-09-01T19:51:04Z</time>
  <course>350.26</course>
  <speed>0.17029386365926402</speed>
  <fix>3d</fix>
</trkpt>
<trkpt lat="-27.2744346" lon="151.2900935">
  <ele>358.13</ele>
  <time>2026-09-01T19:51:04Z</time>
  <course>208.8</course>
  <speed>0.15</speed>
  <fix>3d</fix>
</trkpt>
<trkpt lat="-27.2744347" lon="151.2900931">
  <ele>357.96</ele>
  <time>2026-09-01T19:51:04Z</time>
  <course>350.73</course>
  <speed>0.194164878389476</speed>
  <fix>3d</fix>
</trkpt>
<trkpt lat="-27.2744346" lon="151.2900935">
  <ele>358.13</ele>
  <time>2026-09-01T19:51:04Z</time>
  <course>208.8</course>
  <speed>0.15</speed>
  <fix>3d</fix>
</trkpt>
<trkpt lat="-27.2744348" lon="151.290093">
  <ele>357.96</ele>
  <time>2026-09-01T19:51:04Z</time>
  <course>351.77</course>
  <speed>0.2109502310972899</speed>
  <fix>3d</fix>
</trkpt>
<trkpt lat="-27.2744348" lon="151.2900934">
  <ele>358.13</ele>
  <time>2026-09-01T19:51:04Z</time>
  <course>222.11</course>
  <speed>0.18</speed>
  <fix>3d</fix>
</trkpt>
<trkpt lat="-27.274435" lon="151.2900928">
  <ele>357.96</ele>
  <time>2026-09-01T19:51:04Z</time>
  <course>353.15</course>
  <speed>0.23706539182259395</speed>
  <fix>3d</fix>
</trkpt>
<trkpt lat="-27.2744348" lon="151.2900934">
  <ele>358.13</ele>
  <time>2026-09-01T19:51:04Z</time>
  <course>222.11</course>
  <speed>0.18</speed>
  <fix>3d</fix>
</trkpt>
<trkpt lat="-27.2744351" lon="151.2900926">
  <ele>357.97</ele>
  <time>2026-09-01T19:51:04Z</time>
  <course>354.74</course>
  <speed>0.25495097567963926</speed>
  <fix>3d</fix>
</trkpt>
<trkpt lat="-27.2744351" lon="151.2900931">
  <ele>358.14</ele>
  <time>2026-09-01T19:51:04Z</time>
  <course>231.45</course>
  <speed>0.22</speed>
  <fix>3d</fix>
</trkpt>
<trkpt lat="-27.2744352" lon="151.2900923">
  <ele>357.97</ele>
  <time>2026-09-01T19:51:04Z</time>
  <course>356.45</course>
  <speed>0.2823118842698621</speed>
  <fix>3d</fix>
</trkpt>
<trkpt lat="-27.2744351" lon="151.2900931">
  <ele>358.14</ele>
  <time>2026-09-01T19:51:04Z</time>
  <course>231.45</course>
  <speed>0.22</speed>
  <fix>3d</fix>
</trkpt>
<trkpt lat="-27.2744353" lon="151.2900921">
  <ele>357.97</ele>
  <time>2026-09-01T19:51:04Z</time>
  <course>358.22</course>
  <speed>0.2973213749463701</speed>
  <fix>3d</fix>
</trkpt>
<trkpt lat="-27.2744353" lon="151.2900927">
  <ele>358.14</ele>
  <time>2026-09-01T19:51:04Z</time>
  <course>238.59</course>
  <speed>0.26</speed>
  <fix>3d</fix>
</trkpt>
<trkpt lat="-27.2744354" lon="151.2900918">
  <ele>357.97</ele>
  <time>2026-09-01T19:51:04Z</time>
  <course>0.03</course>
  <speed>0.32572994949804657</speed>
  <fix>3d</fix>
</trkpt>
<trkpt lat="-27.2744353" lon="151.2900927">
  <ele>358.14</ele>
  <time>2026-09-01T19:51:04Z</time>
  <course>238.59</course>
  <speed>0.26</speed>
  <fix>3d</fix>
</trkpt>
<trkpt lat="-27.2744355" lon="151.2900915">
  <ele>357.97</ele>
  <time>2026-09-01T19:51:04Z</time>
  <course>1.86</course>
  <speed>0.3420526275297414</speed>
  <fix>3d</fix>
</trkpt>
<trkpt lat="-27.2744355" lon="151.2900922">
  <ele>358.13</ele>
  <time>2026-09-01T19:51:04Z</time>
  <course>244.72</course>
  <speed>0.3</speed>
  <fix>3d</fix>
</trkpt>
<trkpt lat="-27.2744356" lon="151.2900912">
  <ele>357.97</ele>
  <time>2026-09-01T19:51:04Z</time>
  <course>3.7</course>
  <speed>0.3590264614203248</speed>
  <fix>3d</fix>
</trkpt>
<trkpt lat="-27.2744355" lon="151.2900922">
  <ele>358.13</ele>
  <time>2026-09-01T19:51:04Z</time>
  <course>244.72</course>
  <speed>0.3</speed>
  <fix>3d</fix>
</trkpt>
<trkpt lat="-27.2744357" lon="151.2900908">
  <ele>357.97</ele>
  <time>2026-09-01T19:51:04Z</time>
  <course>5.27</course>
  <speed>0.37656340767525465</speed>
  <fix>3d</fix>
</trkpt>
<trkpt lat="-27.2744358" lon="151.2900915">
  <ele>358.13</ele>
  <time>2026-09-01T19:51:04Z</time>
  <course>250.36</course>
  <speed>0.34</speed>
  <fix>3d</fix>
</trkpt>
<trkpt lat="-27.2744358" lon="151.2900904">
  <ele>357.96</ele>
  <time>2026-09-01T19:51:04Z</time>
  <course>6.19</course>
  <speed>0.40311288741492746</speed>
  <fix>3d</fix>
</trkpt>
<trkpt lat="-27.2744358" lon="151.2900915">
  <ele>358.13</ele>
  <time>2026-09-01T19:51:04Z</time>
  <course>250.36</course>
  <speed>0.34</speed>
  <fix>3d</fix>
</trkpt>
<trkpt lat="-27.2744359" lon="151.29009">
  <ele>357.96</ele>
  <time>2026-09-01T19:51:04Z</time>
  <course>6.38</course>
  <speed>0.4219004621945798</speed>
  <fix>3d</fix>
</trkpt>
<trkpt lat="-27.274436" lon="151.2900909">
  <ele>358.13</ele>
  <time>2026-09-01T19:51:04Z</time>
  <course>255.62</course>
  <speed>0.37</speed>
  <fix>3d</fix>
</trkpt>
<trkpt lat="-27.2744359" lon="151.2900896">
  <ele>357.96</ele>
  <time>2026-09-01T19:51:04Z</time>
  <course>5.96</course>
  <speed>0.4304648650006177</speed>
  <fix>3d</fix>
</trkpt>
<trkpt lat="-27.274436" lon="151.2900909">
  <ele>358.13</ele>
  <time>2026-09-01T19:51:04Z</time>
  <course>255.62</course>
  <speed>0.37</speed>
  <fix>3d</fix>
</trkpt>
<trkpt lat="-27.274436" lon="151.2900892">
  <ele>357.96</ele>
  <time>2026-09-01T19:51:04Z</time>
  <course>5.11</course>
  <speed>0.45</speed>
  <fix>3d</fix>
</trkpt>
<trkpt lat="-27.2744361" lon="151.2900901">
  <ele>358.12</ele>
  <time>2026-09-01T19:51:04Z</time>
  <course>260.69</course>
  <speed>0.41</speed>
  <fix>3d</fix>
</trkpt>
<trkpt lat="-27.274436" lon="151.2900887">
  <ele>357.96</ele>
  <time>2026-09-01T19:51:04Z</time>
  <course>4.06</course>
  <speed>0.47010637094172636</speed>
  <fix>3d</fix>
</trkpt>
<trkpt lat="-27.2744361" lon="151.2900901">
  <ele>358.12</ele>
  <time>2026-09-01T19:51:04Z</time>
  <course>260.69</course>
  <speed>0.41</speed>
  <fix>3d</fix>
</trkpt>
<trkpt lat="-27.274436" lon="151.2900882">
  <ele>357.95</ele>
  <time>2026-09-01T19:51:04Z</time>
  <course>2.99</course>
  <speed>0.4909175083453431</speed>
  <fix>3d</fix>
</trkpt>
<trkpt lat="-27.2744362" lon="151.2900892">
  <ele>358.12</ele>
  <time>2026-09-01T19:51:04Z</time>
  <course>265.83</course>
  <speed>0.44</speed>
  <fix>3d</fix>
</trkpt>
<trkpt lat="-27.274436" lon="151.2900877">
  <ele>357.95</ele>
  <time>2026-09-01T19:51:04Z</time>
  <course>2.07</course>
  <speed>0.5115662224971466</speed>
  <fix>3d</fix>
</trkpt>
<trkpt lat="-27.2744362" lon="151.2900892">
  <ele>358.12</ele>
  <time>2026-09-01T19:51:04Z</time>
  <course>265.83</course>
  <speed>0.44</speed>
  <fix>3d</fix>
</trkpt>
<trkpt lat="-27.274436" lon="151.2900872">
  <ele>357.95</ele>
  <time>2026-09-01T19:51:04Z</time>
  <course>1.04</course>
  <speed>0.5315072906367324</speed>
  <fix>3d</fix>
</trkpt>
<trkpt lat="-27.2744363" lon="151.2900882">
  <ele>358.12</ele>
  <time>2026-09-01T19:51:04Z</time>
  <course>270.56</course>
  <speed>0.48</speed>
  <fix>3d</fix>
</trkpt>
<trkpt lat="-27.274436" lon="151.2900867">
  <ele>357.95</ele>
  <time>2026-09-01T19:51:04Z</time>
  <course>358.82</course>
  <speed>0.5508175741568164</speed>
  <fix>3d</fix>
</trkpt>
<trkpt lat="-27.2744363" lon="151.2900882">
  <ele>358.12</ele>
  <time>2026-09-01T19:51:04Z</time>
  <course>270.56</course>
  <speed>0.48</speed>
  <fix>3d</fix>
</trkpt>
<trkpt lat="-27.274436" lon="151.2900861">
  <ele>357.95</ele>
  <time>2026-09-01T19:51:04Z</time>
  <course>355.59</course>
  <speed>0.5707889277132134</speed>
  <fix>3d</fix>
</trkpt>
<trkpt lat="-27.2744362" lon="151.2900872">
  <ele>358.12</ele>
  <time>2026-09-01T19:51:04Z</time>
  <course>272.01</course>
  <speed>0.52</speed>
  <fix>3d</fix>
</trkpt>
<trkpt lat="-27.274436" lon="151.2900855">
  <ele>357.94</ele>
  <time>2026-09-01T19:51:04Z</time>
  <course>351.74</course>
  <speed>0.5903388857258176</speed>
  <fix>3d</fix>
</trkpt>
<trkpt lat="-27.2744362" lon="151.2900872">
  <ele>358.12</ele>
  <time>2026-09-01T19:51:04Z</time>
  <course>272.01</course>
  <speed>0.52</speed>
  <fix>3d</fix>
</trkpt>
<trkpt lat="-27.274436" lon="151.290085">
  <ele>357.94</ele>
  <time>2026-09-01T19:51:04Z</time>
  <course>347.54</course>
  <speed>0.6103277807866851</speed>
  <fix>3d</fix>
</trkpt>
<trkpt lat="-27.2744362" lon="151.2900862">
  <ele>358.11</ele>
  <time>2026-09-01T19:51:04Z</time>
  <course>270.9</course>
  <speed>0.56</speed>
  <fix>3d</fix>
</trkpt>
<trkpt lat="-27.274436" lon="151.2900843">
  <ele>357.94</ele>
  <time>2026-09-01T19:51:04Z</time>
  <course>343.14</course>
  <speed>0.6200806399170998</speed>
  <fix>3d</fix>
</trkpt>
<trkpt lat="-27.2744362" lon="151.2900862">
  <ele>358.11</ele>
  <time>2026-09-01T19:51:04Z</time>
  <course>270.9</course>
  <speed>0.56</speed>
  <fix>3d</fix>
</trkpt>
<trkpt lat="-27.274436" lon="151.2900837">
  <ele>357.94</ele>
  <time>2026-09-01T19:51:04Z</time>
  <course>338.62</course>
  <speed>0.6400781202322103</speed>
  <fix>3d</fix>
</trkpt>
<trkpt lat="-27.2744362" lon="151.290085">
  <ele>358.11</ele>
  <time>2026-09-01T19:51:04Z</time>
  <course>269.94</course>
  <speed>0.59</speed>
  <fix>3d</fix>
</trkpt>
<trkpt lat="-27.274436" lon="151.2900831">
  <ele>357.94</ele>
  <time>2026-09-01T19:51:04Z</time>
  <course>334.04</course>
  <speed>0.66</speed>
  <fix>3d</fix>
</trkpt>
<trkpt lat="-27.2744362" lon="151.290085">
  <ele>358.11</ele>
  <time>2026-09-01T19:51:04Z</time>
  <course>269.94</course>
  <speed>0.59</speed>
  <fix>3d</fix>
</trkpt>
<trkpt lat="-27.274436" lon="151.2900824">
  <ele>357.94</ele>
  <time>2026-09-01T19:51:04Z</time>
  <course>329.46</course>
  <speed>0.68</speed>
  <fix>3d</fix>
</trkpt>
<trkpt lat="-27.2744362" lon="151.2900838">
  <ele>358.11</ele>
  <time>2026-09-01T19:51:04Z</time>
  <course>269.15</course>
  <speed>0.63</speed>
  <fix>3d</fix>
</trkpt>
<trkpt lat="-27.274436" lon="151.2900817">
  <ele>357.94</ele>
  <time>2026-09-01T19:51:04Z</time>
  <course>325.61</course>
  <speed>0.7</speed>
  <fix>3d</fix>
</trkpt>
<trkpt lat="-27.2744362" lon="151.2900838">
  <ele>358.11</ele>
  <time>2026-09-01T19:51:04Z</time>
  <course>269.15</course>
  <speed>0.63</speed>
  <fix>3d</fix>
</trkpt>
<trkpt lat="-27.274436" lon="151.290081">
  <ele>357.94</ele>
  <time>2026-09-01T19:51:04Z</time>
  <course>323.25</course>
  <speed>0.72</speed>
  <fix>3d</fix>
</trkpt>
<trkpt lat="-27.2744362" lon="151.2900824">
  <ele>358.12</ele>
  <time>2026-09-01T19:51:04Z</time>
  <course>268.54</course>
  <speed>0.67</speed>
  <fix>3d</fix>
</trkpt>
<trkpt lat="-27.274436" lon="151.2900803">
  <ele>357.94</ele>
  <time>2026-09-01T19:51:04Z</time>
  <course>322.36</course>
  <speed>0.73</speed>
  <fix>3d</fix>
</trkpt>
<trkpt lat="-27.2744362" lon="151.2900824">
  <ele>358.12</ele>
  <time>2026-09-01T19:51:04Z</time>
  <course>268.54</course>
  <speed>0.67</speed>
  <fix>3d</fix>
</trkpt>
<trkpt lat="-27.2744361" lon="151.2900796">
  <ele>357.95</ele>
  <time>2026-09-01T19:51:04Z</time>
  <course>322.62</course>
  <speed>0.75</speed>
  <fix>3d</fix>
</trkpt>
<trkpt lat="-27.2744363" lon="151.2900811">
  <ele>358.12</ele>
  <time>2026-09-01T19:51:04Z</time>
  <course>268.1</course>
  <speed>0.7</speed>
  <fix>3d</fix>
</trkpt>
<trkpt lat="-27.2744361" lon="151.2900788">
  <ele>357.95</ele>
  <time>2026-09-01T19:51:04Z</time>
  <course>323.69</course>
  <speed>0.76</speed>
  <fix>3d</fix>
</trkpt>
<trkpt lat="-27.2744363" lon="151.2900811">
  <ele>358.12</ele>
  <time>2026-09-01T19:51:04Z</time>
  <course>268.1</course>
  <speed>0.7</speed>
  <fix>3d</fix>
</trkpt>
<trkpt lat="-27.2744361" lon="151.290078">
  <ele>357.95</ele>
  <time>2026-09-01T19:51:04Z</time>
  <course>325.24</course>
  <speed>0.77</speed>
  <fix>3d</fix>
</trkpt>
<trkpt lat="-27.2744363" lon="151.2900796">
  <ele>358.12</ele>
  <time>2026-09-01T19:51:04Z</time>
  <course>267.88</course>
  <speed>0.73</speed>
  <fix>3d</fix>
</trkpt>
<trkpt lat="-27.2744361" lon="151.2900773">
  <ele>357.95</ele>
  <time>2026-09-01T19:51:04Z</time>
  <course>327.02</course>
  <speed>0.79</speed>
  <fix>3d</fix>
</trkpt>
<trkpt lat="-27.2744363" lon="151.2900796">
  <ele>358.12</ele>
  <time>2026-09-01T19:51:04Z</time>
  <course>267.88</course>
  <speed>0.73</speed>
  <fix>3d</fix>
</trkpt>
<trkpt lat="-27.2744362" lon="151.2900765">
  <ele>357.95</ele>
  <time>2026-09-01T19:51:04Z</time>
  <course>328.83</course>
  <speed>0.8</speed>
  <fix>3d</fix>
</trkpt>
<trkpt lat="-27.2744364" lon="151.2900781">
  <ele>358.13</ele>
  <time>2026-09-01T19:51:04Z</time>
  <course>267.82</course>
  <speed>0.76</speed>
  <fix>3d</fix>
</trkpt>
<trkpt lat="-27.2744362" lon="151.2900757">
  <ele>357.95</ele>
  <time>2026-09-01T19:51:04Z</time>
  <course>330.48</course>
  <speed>0.8100617260431454</speed>
  <fix>3d</fix>
</trkpt>
<trkpt lat="-27.2744364" lon="151.2900781">
  <ele>358.13</ele>
  <time>2026-09-01T19:51:04Z</time>
  <course>267.82</course>
  <speed>0.76</speed>
  <fix>3d</fix>
</trkpt>
<trkpt lat="-27.2744362" lon="151.2900749">
  <ele>357.95</ele>
  <time>2026-09-01T19:51:04Z</time>
  <course>331.85</course>
  <speed>0.8100617260431454</speed>
  <fix>3d</fix>
</trkpt>
<trkpt lat="-27.2744364" lon="151.2900765">
  <ele>358.13</ele>
  <time>2026-09-01T19:51:04Z</time>
  <course>267.79</course>
  <speed>0.78</speed>
  <fix>3d</fix>
</trkpt>
<trkpt lat="-27.2744363" lon="151.2900741">
  <ele>357.95</ele>
  <time>2026-09-01T19:51:04Z</time>
  <course>332.81</course>
  <speed>0.8200609733428362</speed>
  <fix>3d</fix>
</trkpt>
<trkpt lat="-27.2744364" lon="151.2900765">
  <ele>358.13</ele>
  <time>2026-09-01T19:51:04Z</time>
  <course>267.79</course>
  <speed>0.78</speed>
  <fix>3d</fix>
</trkpt>
<trkpt lat="-27.2744363" lon="151.2900732">
  <ele>357.95</ele>
  <time>2026-09-01T19:51:04Z</time>
  <course>333.33</course>
  <speed>0.8300602387778854</speed>
  <fix>3d</fix>
</trkpt>
<trkpt lat="-27.2744365" lon="151.2900748">
  <ele>358.13</ele>
  <time>2026-09-01T19:51:04Z</time>
  <course>267.69</course>
  <speed>0.8</speed>
  <fix>3d</fix>
</trkpt>
<trkpt lat="-27.2744363" lon="151.2900724">
  <ele>357.95</ele>
  <time>2026-09-01T19:51:04Z</time>
  <course>333.42</course>
  <speed>0.8300602387778854</speed>
  <fix>3d</fix>
</trkpt>
<trkpt lat="-27.2744365" lon="151.2900748">
  <ele>358.13</ele>
  <time>2026-09-01T19:51:04Z</time>
  <course>267.69</course>
  <speed>0.8</speed>
  <fix>3d</fix>
</trkpt>
<trkpt lat="-27.2744364" lon="151.2900716">
  <ele>357.95</ele>
  <time>2026-09-01T19:51:04Z</time>
  <course>333.19</course>
  <speed>0.8400595217006948</speed>
  <fix>3d</fix>
</trkpt>
<trkpt lat="-27.2744365" lon="151.2900733">
  <ele>358.14</ele>
  <time>2026-09-01T19:51:04Z</time>
  <course>267.51</course>
  <speed>0.81</speed>
  <fix>3d</fix>
</trkpt>
<trkpt lat="-27.2744364" lon="151.2900707">
  <ele>357.95</ele>
  <time>2026-09-01T19:51:04Z</time>
  <course>333.02</course>
  <speed>0.8402380615040002</speed>
  <fix>3d</fix>
</trkpt>
<trkpt lat="-27.2744365" lon="151.2900733">
  <ele>358.14</ele>
  <time>2026-09-01T19:51:04Z</time>
  <course>267.51</course>
  <speed>0.81</speed>
  <fix>3d</fix>
</trkpt>
<trkpt lat="-27.2744364" lon="151.2900699">
  <ele>357.94</ele>
  <time>2026-09-01T19:51:04Z</time>
  <course>334.31</course>
  <speed>0.8502352615599991</speed>
  <fix>3d</fix>
</trkpt>
<trkpt lat="-27.2744366" lon="151.2900716">
  <ele>358.14</ele>
  <time>2026-09-01T19:51:04Z</time>
  <course>267.27</course>
  <speed>0.83</speed>
  <fix>3d</fix>
</trkpt>
<trkpt lat="-27.2744365" lon="151.290069">
  <ele>357.94</ele>
  <time>2026-09-01T19:51:04Z</time>
  <course>336.93</course>
  <speed>0.8502352615599991</speed>
  <fix>3d</fix>
</trkpt>
<trkpt lat="-27.2744366" lon="151.2900716">
  <ele>358.14</ele>
  <time>2026-09-01T19:51:04Z</time>
  <course>267.27</course>
  <speed>0.83</speed>
  <fix>3d</fix>
</trkpt>
<trkpt lat="-27.2744365" lon="151.2900682">
  <ele>357.94</ele>
  <time>2026-09-01T19:51:04Z</time>
  <course>340.35</course>
  <speed>0.8602325267042628</speed>
  <fix>3d</fix>
</trkpt>
<trkpt lat="-27.2744367" lon="151.2900699">
  <ele>358.14</ele>
  <time>2026-09-01T19:51:04Z</time>
  <course>267.0</course>
  <speed>0.83</speed>
  <fix>3d</fix>
</trkpt>
<trkpt lat="-27.2744366" lon="151.2900673">
  <ele>357.94</ele>
  <time>2026-09-01T19:51:04Z</time>
  <course>344.22</course>
  <speed>0.8605230967266364</speed>
  <fix>3d</fix>
</trkpt>
<trkpt lat="-27.2744367" lon="151.2900699">
  <ele>358.14</ele>
  <time>2026-09-01T19:51:04Z</time>
  <course>267.0</course>
  <speed>0.83</speed>
  <fix>3d</fix>
</trkpt>
<trkpt lat="-27.2744366" lon="151.2900665">
  <ele>357.94</ele>
  <time>2026-09-01T19:51:04Z</time>
  <course>348.35</course>
  <speed>0.8605230967266364</speed>
  <fix>3d</fix>
</trkpt>
<trkpt lat="-27.2744367" lon="151.2900682">
  <ele>358.14</ele>
  <time>2026-09-01T19:51:04Z</time>
  <course>266.7</course>
  <speed>0.84</speed>
  <fix>3d</fix>
</trkpt>
<trkpt lat="-27.2744367" lon="151.2900656">
  <ele>357.95</ele>
  <time>2026-09-01T19:51:04Z</time>
  <course>352.62</course>
  <speed>0.8605230967266364</speed>
  <fix>3d</fix>
</trkpt>
<trkpt lat="-27.2744367" lon="151.2900682">
  <ele>358.14</ele>
  <time>2026-09-01T19:51:04Z</time>
  <course>266.7</course>
  <speed>0.84</speed>
  <fix>3d</fix>
</trkpt>
<trkpt lat="-27.2744367" lon="151.2900648">
  <ele>357.95</ele>
  <time>2026-09-01T19:51:04Z</time>
  <course>356.97</course>
  <speed>0.8602325267042628</speed>
  <fix>3d</fix>
</trkpt>
<trkpt lat="-27.2744368" lon="151.2900665">
  <ele>358.14</ele>
  <time>2026-09-01T19:51:04Z</time>
  <course>266.36</course>
  <speed>0.85</speed>
  <fix>3d</fix>
</trkpt>
<trkpt lat="-27.2744367" lon="151.2900639">
  <ele>357.95</ele>
  <time>2026-09-01T19:51:04Z</time>
  <course>1.34</course>
  <speed>0.8709190547921202</speed>
  <fix>3d</fix>
</trkpt>
<trkpt lat="-27.2744368" lon="151.2900665">
  <ele>358.14</ele>
  <time>2026-09-01T19:51:04Z</time>
  <course>266.36</course>
  <speed>0.85</speed>
  <fix>3d</fix>
</trkpt>
<trkpt lat="-27.2744367" lon="151.290063">
  <ele>357.95</ele>
  <time>2026-09-01T19:51:04Z</time>
  <course>5.69</course>
  <speed>0.8670063436907484</speed>
  <fix>3d</fix>
</trkpt>
<trkpt lat="-27.2744369" lon="151.2900647">
  <ele>358.14</ele>
  <time>2026-09-01T19:51:04Z</time>
  <course>268.6</course>
  <speed>0.85</speed>
  <fix>3d</fix>
</trkpt>
<trkpt lat="-27.2744367" lon="151.2900622">
  <ele>357.95</ele>
  <time>2026-09-01T19:51:04Z</time>
  <course>9.14</course>
  <speed>0.8729833904490967</speed>
  <fix>3d</fix>
</trkpt>
<trkpt lat="-27.2744369" lon="151.2900647">
  <ele>358.14</ele>
  <time>2026-09-01T19:51:04Z</time>
  <course>268.6</course>
  <speed>0.85</speed>
  <fix>3d</fix>
</trkpt>
<trkpt lat="-27.2744365" lon="151.2900613">
  <ele>357.95</ele>
  <time>2026-09-01T19:51:04Z</time>
  <course>10.98</course>
  <speed>0.8688498144098322</speed>
  <fix>3d</fix>
</trkpt>
<trkpt lat="-27.2744369" lon="151.290063">
  <ele>358.14</ele>
  <time>2026-09-01T19:51:04Z</time>
  <course>275.2</course>
  <speed>0.85</speed>
  <fix>3d</fix>
</trkpt>
<trkpt lat="-27.2744364" lon="151.2900605">
  <ele>357.95</ele>
  <time>2026-09-01T19:51:04Z</time>
  <course>11.32</course>
  <speed>0.8590692637965812</speed>
  <fix>3d</fix>
</trkpt>
<trkpt lat="-27.2744369" lon="151.290063">
  <ele>358.14</ele>
  <time>2026-09-01T19:51:04Z</time>
  <course>275.2</course>
  <speed>0.85</speed>
  <fix>3d</fix>
</trkpt>
<trkpt lat="-27.2744362" lon="151.2900596">
  <ele>357.95</ele>
  <time>2026-09-01T19:51:04Z</time>
  <course>10.53</course>
  <speed>0.8570297544426332</speed>
  <fix>3d</fix>
</trkpt>
<trkpt lat="-27.2744367" lon="151.2900613">
  <ele>358.14</ele>
  <time>2026-09-01T19:51:04Z</time>
  <course>280.56</course>
  <speed>0.84</speed>
  <fix>3d</fix>
</trkpt>
<trkpt lat="-27.2744361" lon="151.2900588">
  <ele>357.95</ele>
  <time>2026-09-01T19:51:04Z</time>
  <course>8.99</course>
  <speed>0.8472307831990054</speed>
  <fix>3d</fix>
</trkpt>
<trkpt lat="-27.2744367" lon="151.2900613">
  <ele>358.14</ele>
  <time>2026-09-01T19:51:04Z</time>
  <course>280.56</course>
  <speed>0.84</speed>
  <fix>3d</fix>
</trkpt>
<trkpt lat="-27.274436" lon="151.290058">
  <ele>357.95</ele>
  <time>2026-09-01T19:51:04Z</time>
  <course>7.07</course>
  <speed>0.8374365647617735</speed>
  <fix>3d</fix>
</trkpt>
<trkpt lat="-27.2744364" lon="151.2900596">
  <ele>358.14</ele>
  <time>2026-09-01T19:51:04Z</time>
  <course>281.52</course>
  <speed>0.83</speed>
  <fix>3d</fix>
</trkpt>
<trkpt lat="-27.2744358" lon="151.2900572">
  <ele>357.95</ele>
  <time>2026-09-01T19:51:04Z</time>
  <course>5.01</course>
  <speed>0.8256512580987205</speed>
  <fix>3d</fix>
</trkpt>
<trkpt lat="-27.2744364" lon="151.2900596">
  <ele>358.14</ele>
  <time>2026-09-01T19:51:04Z</time>
  <course>281.52</course>
  <speed>0.83</speed>
  <fix>3d</fix>
</trkpt>
<trkpt lat="-27.2744357" lon="151.2900564">
  <ele>357.96</ele>
  <time>2026-09-01T19:51:04Z</time>
  <course>3.07</course>
  <speed>0.8158431221748456</speed>
  <fix>3d</fix>
</trkpt>
<trkpt lat="-27.2744361" lon="151.2900581">
  <ele>358.14</ele>
  <time>2026-09-01T19:51:04Z</time>
  <course>281.07</course>
  <speed>0.81</speed>
  <fix>3d</fix>
</trkpt>
<trkpt lat="-27.2744356" lon="151.2900556">
  <ele>357.96</ele>
  <time>2026-09-01T19:51:04Z</time>
  <course>1.49</course>
  <speed>0.8139410298049853</speed>
  <fix>3d</fix>
</trkpt>
<trkpt lat="-27.2744361" lon="151.2900581">
  <ele>358.14</ele>
  <time>2026-09-01T19:51:04Z</time>
  <course>281.07</course>
  <speed>0.81</speed>
  <fix>3d</fix>
</trkpt>
<trkpt lat="-27.2744355" lon="151.2900548">
  <ele>357.96</ele>
  <time>2026-09-01T19:51:04Z</time>
  <course>0.33</course>
  <speed>0.7942921376924236</speed>
  <fix>3d</fix>
</trkpt>
<trkpt lat="-27.2744359" lon="151.2900565">
  <ele>358.14</ele>
  <time>2026-09-01T19:51:04Z</time>
  <course>280.64</course>
  <speed>0.8</speed>
  <fix>3d</fix>
</trkpt>
<trkpt lat="-27.2744354" lon="151.290054">
  <ele>357.97</ele>
  <time>2026-09-01T19:51:04Z</time>
  <course>358.62</course>
  <speed>0.7826237921249263</speed>
  <fix>3d</fix>
</trkpt>
<trkpt lat="-27.2744359" lon="151.2900565">
  <ele>358.14</ele>
  <time>2026-09-01T19:51:04Z</time>
  <course>280.64</course>
  <speed>0.8</speed>
  <fix>3d</fix>
</trkpt>
<trkpt lat="-27.2744352" lon="151.2900533">
  <ele>357.97</ele>
  <time>2026-09-01T19:51:04Z</time>
  <course>355.87</course>
  <speed>0.7727871634544663</speed>
  <fix>3d</fix>
</trkpt>
<trkpt lat="-27.2744357" lon="151.2900548">
  <ele>358.14</ele>
  <time>2026-09-01T19:51:04Z</time>
  <course>280.19</course>
  <speed>0.77</speed>
  <fix>3d</fix>
</trkpt>
<trkpt lat="-27.2744351" lon="151.2900525">
  <ele>357.97</ele>
  <time>2026-09-01T19:51:04Z</time>
  <course>352.46</course>
  <speed>0.7710382610480494</speed>
  <fix>3d</fix>
</trkpt>
<trkpt lat="-27.2744357" lon="151.2900548">
  <ele>358.14</ele>
  <time>2026-09-01T19:51:04Z</time>
  <course>280.19</course>
  <speed>0.77</speed>
  <fix>3d</fix>
</trkpt>
<trkpt lat="-27.274435" lon="151.2900518">
  <ele>357.97</ele>
  <time>2026-09-01T19:51:04Z</time>
  <course>348.66</course>
  <speed>0.7611832893594026</speed>
  <fix>3d</fix>
</trkpt>
<trkpt lat="-27.2744354" lon="151.2900533">
  <ele>358.15</ele>
  <time>2026-09-01T19:51:04Z</time>
  <course>279.74</course>
  <speed>0.75</speed>
  <fix>3d</fix>
</trkpt>
<trkpt lat="-27.2744349" lon="151.290051">
  <ele>357.97</ele>
  <time>2026-09-01T19:51:04Z</time>
  <course>344.64</course>
  <speed>0.7513321502504735</speed>
  <fix>3d</fix>
</trkpt>
<trkpt lat="-27.2744354" lon="151.2900533">
  <ele>358.15</ele>
  <time>2026-09-01T19:51:04Z</time>
  <course>279.74</course>
  <speed>0.75</speed>
  <fix>3d</fix>
</trkpt>
<trkpt lat="-27.2744349" lon="151.2900503">
  <ele>357.97</ele>
  <time>2026-09-01T19:51:04Z</time>
  <course>340.5</course>
  <speed>0.7397972695272672</speed>
  <fix>3d</fix>
</trkpt>
<trkpt lat="-27.2744352" lon="151.2900518">
  <ele>358.15</ele>
  <time>2026-09-01T19:51:04Z</time>
  <course>279.3</course>
  <speed>0.73</speed>
  <fix>3d</fix>
</trkpt>
<trkpt lat="-27.2744348" lon="151.2900496">
  <ele>357.97</ele>
  <time>2026-09-01T19:51:04Z</time>
  <course>336.25</course>
  <speed>0.7299315036357864</speed>
  <fix>3d</fix>
</trkpt>
<trkpt lat="-27.2744352" lon="151.2900518">
  <ele>358.15</ele>
  <time>2026-09-01T19:51:04Z</time>
  <course>279.3</course>
  <speed>0.73</speed>
  <fix>3d</fix>
</trkpt>
<trkpt lat="-27.2744347" lon="151.2900489">
  <ele>357.96</ele>
  <time>2026-09-01T19:51:04Z</time>
  <course>332.0</course>
  <speed>0.7184705978674423</speed>
  <fix>3d</fix>
</trkpt>
<trkpt lat="-27.2744349" lon="151.2900503">
  <ele>358.15</ele>
  <time>2026-09-01T19:51:04Z</time>
  <course>278.87</course>
  <speed>0.71</speed>
  <fix>3d</fix>
</trkpt>
<trkpt lat="-27.2744346" lon="151.2900482">
  <ele>357.96</ele>
  <time>2026-09-01T19:51:04Z</time>
  <course>327.8</course>
  <speed>0.708590149522275</speed>
  <fix>3d</fix>
</trkpt>
<trkpt lat="-27.2744349" lon="151.2900503">
  <ele>358.15</ele>
  <time>2026-09-01T19:51:04Z</time>
  <course>278.87</course>
  <speed>0.71</speed>
  <fix>3d</fix>
</trkpt>
<trkpt lat="-27.2744345" lon="151.2900475">
  <ele>357.96</ele>
  <time>2026-09-01T19:51:04Z</time>
  <course>324.45</course>
  <speed>0.6987131027825368</speed>
  <fix>3d</fix>
</trkpt>
<trkpt lat="-27.2744348" lon="151.290049">
  <ele>358.15</ele>
  <time>2026-09-01T19:51:04Z</time>
  <course>278.44</course>
  <speed>0.69</speed>
  <fix>3d</fix>
</trkpt>
<trkpt lat="-27.2744344" lon="151.2900468">
  <ele>357.96</ele>
  <time>2026-09-01T19:51:04Z</time>
  <course>322.53</course>
  <speed>0.6873136110975833</speed>
  <fix>3d</fix>
</trkpt>
<trkpt lat="-27.2744348" lon="151.290049">
  <ele>358.15</ele>
  <time>2026-09-01T19:51:04Z</time>
  <course>278.44</course>
  <speed>0.69</speed>
  <fix>3d</fix>
</trkpt>
<trkpt lat="-27.2744343" lon="151.2900461">
  <ele>357.96</ele>
  <time>2026-09-01T19:51:04Z</time>
  <course>321.96</course>
  <speed>0.677421582177598</speed>
  <fix>3d</fix>
</trkpt>
<trkpt lat="-27.2744346" lon="151.2900475">
  <ele>358.14</ele>
  <time>2026-09-01T19:51:04Z</time>
  <course>277.97</course>
  <speed>0.67</speed>
  <fix>3d</fix>
</trkpt>
<trkpt lat="-27.2744343" lon="151.2900455">
  <ele>357.95</ele>
  <time>2026-09-01T19:51:04Z</time>
  <course>322.43</course>
  <speed>0.6661080993352355</speed>
  <fix>3d</fix>
</trkpt>
<trkpt lat="-27.2744346" lon="151.2900475">
  <ele>358.14</ele>
  <time>2026-09-01T19:51:04Z</time>
  <course>277.97</course>
  <speed>0.67</speed>
  <fix>3d</fix>
</trkpt>
<trkpt lat="-27.2744342" lon="151.2900448">
  <ele>357.95</ele>
  <time>2026-09-01T19:51:04Z</time>
  <course>323.62</course>
  <speed>0.6449806198638839</speed>
  <fix>3d</fix>
</trkpt>
<trkpt lat="-27.2744345" lon="151.2900462">
  <ele>358.14</ele>
  <time>2026-09-01T19:51:04Z</time>
  <course>277.38</course>
  <speed>0.65</speed>
  <fix>3d</fix>
</trkpt>
<trkpt lat="-27.2744341" lon="151.2900442">
  <ele>357.95</ele>
  <time>2026-09-01T19:51:04Z</time>
  <course>325.23</course>
  <speed>0.6350590523722971</speed>
  <fix>3d</fix>
</trkpt>
<trkpt lat="-27.2744345" lon="151.2900462">
  <ele>358.14</ele>
  <time>2026-09-01T19:51:04Z</time>
  <course>277.38</course>
  <speed>0.65</speed>
  <fix>3d</fix>
</trkpt>
<trkpt lat="-27.2744341" lon="151.2900436">
  <ele>357.95</ele>
  <time>2026-09-01T19:51:04Z</time>
  <course>327.02</course>
  <speed>0.6140032573203501</speed>
  <fix>3d</fix>
</trkpt>
<trkpt lat="-27.2744343" lon="151.290045">
  <ele>358.14</ele>
  <time>2026-09-01T19:51:04Z</time>
  <course>276.61</course>
  <speed>0.62</speed>
  <fix>3d</fix>
</trkpt>
<trkpt lat="-27.274434" lon="151.290043">
  <ele>357.95</ele>
  <time>2026-09-01T19:51:04Z</time>
  <course>328.78</course>
  <speed>0.6029925372672534</speed>
  <fix>3d</fix>
</trkpt>
<trkpt lat="-27.2744343" lon="151.290045">
  <ele>358.14</ele>
  <time>2026-09-01T19:51:04Z</time>
  <course>276.61</course>
  <speed>0.62</speed>
  <fix>3d</fix>
</trkpt>
<trkpt lat="-27.274434" lon="151.2900424">
  <ele>357.96</ele>
  <time>2026-09-01T19:51:04Z</time>
  <course>330.36</course>
  <speed>0.58309518948453</speed>
  <fix>3d</fix>
</trkpt>
<trkpt lat="-27.2744342" lon="151.2900437">
  <ele>358.14</ele>
  <time>2026-09-01T19:51:04Z</time>
  <course>275.69</course>
  <speed>0.59</speed>
  <fix>3d</fix>
</trkpt>
<trkpt lat="-27.274434" lon="151.2900419">
  <ele>357.96</ele>
  <time>2026-09-01T19:51:04Z</time>
  <course>331.59</course>
  <speed>0.5622277118748239</speed>
  <fix>3d</fix>
</trkpt>
<trkpt lat="-27.2744342" lon="151.2900437">
  <ele>358.14</ele>
  <time>2026-09-01T19:51:04Z</time>
  <course>275.69</course>
  <speed>0.59</speed>
  <fix>3d</fix>
</trkpt>
<trkpt lat="-27.2744339" lon="151.2900413">
  <ele>357.96</ele>
  <time>2026-09-01T19:51:04Z</time>
  <course>332.37</course>
  <speed>0.5414794548272354</speed>
  <fix>3d</fix>
</trkpt>
<trkpt lat="-27.2744341" lon="151.2900426">
  <ele>358.14</ele>
  <time>2026-09-01T19:51:04Z</time>
  <course>274.67</course>
  <speed>0.56</speed>
  <fix>3d</fix>
</trkpt>
<trkpt lat="-27.2744339" lon="151.2900408">
  <ele>357.96</ele>
  <time>2026-09-01T19:51:04Z</time>
  <course>332.71</course>
  <speed>0.521536192416212</speed>
  <fix>3d</fix>
</trkpt>
<trkpt lat="-27.2744341" lon="151.2900426">
  <ele>358.14</ele>
  <time>2026-09-01T19:51:04Z</time>
  <course>274.67</course>
  <speed>0.56</speed>
  <fix>3d</fix>
</trkpt>
<trkpt lat="-27.2744339" lon="151.2900403">
  <ele>357.96</ele>
  <time>2026-09-01T19:51:04Z</time>
  <course>332.64</course>
  <speed>0.5008991914547277</speed>
  <fix>3d</fix>
</trkpt>
<trkpt lat="-27.274434" lon="151.2900415">
  <ele>358.14</ele>
  <time>2026-09-01T19:51:04Z</time>
  <course>273.62</course>
  <speed>0.52</speed>
  <fix>3d</fix>
</trkpt>
<trkpt lat="-27.2744339" lon="151.2900398">
  <ele>357.96</ele>
  <time>2026-09-01T19:51:04Z</time>
  <course>332.28</course>
  <speed>0.4909175083453431</speed>
  <fix>3d</fix>
</trkpt>
<trkpt lat="-27.274434" lon="151.2900415">
  <ele>358.14</ele>
  <time>2026-09-01T19:51:04Z</time>
  <course>273.62</course>
  <speed>0.52</speed>
  <fix>3d</fix>
</trkpt>
<trkpt lat="-27.2744339" lon="151.2900394">
  <ele>357.96</ele>
  <time>2026-09-01T19:51:04Z</time>
  <course>332.59</course>
  <speed>0.470425339453563</speed>
  <fix>3d</fix>
</trkpt>
<trkpt lat="-27.274434" lon="151.2900405">
  <ele>358.14</ele>
  <time>2026-09-01T19:51:04Z</time>
  <course>272.54</course>
  <speed>0.48</speed>
  <fix>3d</fix>
</trkpt>
<trkpt lat="-27.2744338" lon="151.2900389">
  <ele>357.96</ele>
  <time>2026-09-01T19:51:04Z</time>
  <course>334.55</course>
  <speed>0.45044422518220834</speed>
  <fix>3d</fix>
</trkpt>
<trkpt lat="-27.274434" lon="151.2900405">
  <ele>358.14</ele>
  <time>2026-09-01T19:51:04Z</time>
  <course>272.54</course>
  <speed>0.48</speed>
  <fix>3d</fix>
</trkpt>
<trkpt lat="-27.2744338" lon="151.2900385">
  <ele>357.96</ele>
  <time>2026-09-01T19:51:04Z</time>
  <course>337.67</course>
  <speed>0.4301162633521314</speed>
  <fix>3d</fix>
</trkpt>
<trkpt lat="-27.274434" lon="151.2900395">
  <ele>358.14</ele>
  <time>2026-09-01T19:51:04Z</time>
  <course>271.33</course>
  <speed>0.44</speed>
  <fix>3d</fix>
</trkpt>
<trkpt lat="-27.2744339" lon="151.2900381">
  <ele>357.96</ele>
  <time>2026-09-01T19:51:04Z</time>
  <course>341.5</course>
  <speed>0.4001249804748511</speed>
  <fix>3d</fix>
</trkpt>
<trkpt lat="-27.274434" lon="151.2900395">
  <ele>358.14</ele>
  <time>2026-09-01T19:51:04Z</time>
  <course>271.33</course>
  <speed>0.44</speed>
  <fix>3d</fix>
</trkpt>
<trkpt lat="-27.2744339" lon="151.2900377">
  <ele>357.96</ele>
  <time>2026-09-01T19:51:04Z</time>
  <course>345.75</course>
  <speed>0.38</speed>
  <fix>3d</fix>
</trkpt>
<trkpt lat="-27.274434" lon="151.2900387">
  <ele>358.14</ele>
  <time>2026-09-01T19:51:04Z</time>
  <course>269.87</course>
  <speed>0.4</speed>
  <fix>3d</fix>
</trkpt>
<trkpt lat="-27.2744339" lon="151.2900374">
  <ele>357.96</ele>
  <time>2026-09-01T19:51:04Z</time>
  <course>350.26</course>
  <speed>0.36</speed>
  <fix>3d</fix>
</trkpt>
<trkpt lat="-27.274434" lon="151.2900387">
  <ele>358.14</ele>
  <time>2026-09-01T19:51:04Z</time>
  <course>269.87</course>
  <speed>0.4</speed>
  <fix>3d</fix>
</trkpt>
<trkpt lat="-27.2744339" lon="151.2900371">
  <ele>357.96</ele>
  <time>2026-09-01T19:51:04Z</time>
  <course>354.93</course>
  <speed>0.34</speed>
  <fix>3d</fix>
</trkpt>
<trkpt lat="-27.274434" lon="151.2900379">
  <ele>358.14</ele>
  <time>2026-09-01T19:51:04Z</time>
  <course>268.05</course>
  <speed>0.36</speed>
  <fix>3d</fix>
</trkpt>
<trkpt lat="-27.2744339" lon="151.2900367">
  <ele>357.96</ele>
  <time>2026-09-01T19:51:04Z</time>
  <course>359.69</course>
  <speed>0.32</speed>
  <fix>3d</fix>
</trkpt>
<trkpt lat="-27.274434" lon="151.2900379">
  <ele>358.14</ele>
  <time>2026-09-01T19:51:04Z</time>
  <course>268.05</course>
  <speed>0.36</speed>
  <fix>3d</fix>
</trkpt>
<trkpt lat="-27.2744339" lon="151.2900364">
  <ele>357.96</ele>
  <time>2026-09-01T19:51:04Z</time>
  <course>4.49</course>
  <speed>0.3</speed>
  <fix>3d</fix>
</trkpt>
<trkpt lat="-27.274434" lon="151.2900372">
  <ele>358.14</ele>
  <time>2026-09-01T19:51:04Z</time>
  <course>266.21</course>
  <speed>0.32</speed>
  <fix>3d</fix>
</trkpt>
<trkpt lat="-27.2744339" lon="151.2900362">
  <ele>357.97</ele>
  <time>2026-09-01T19:51:04Z</time>
  <course>8.63</course>
  <speed>0.28</speed>
  <fix>3d</fix>
</trkpt>
<trkpt lat="-27.274434" lon="151.2900372">
  <ele>358.14</ele>
  <time>2026-09-01T19:51:04Z</time>
  <course>266.21</course>
  <speed>0.32</speed>
  <fix>3d</fix>
</trkpt>
<trkpt lat="-27.2744339" lon="151.2900359">
  <ele>357.97</ele>
  <time>2026-09-01T19:51:04Z</time>
  <course>11.23</course>
  <speed>0.26</speed>
  <fix>3d</fix>
</trkpt>
<trkpt lat="-27.274434" lon="151.2900366">
  <ele>358.13</ele>
  <time>2026-09-01T19:51:04Z</time>
  <course>265.55</course>
  <speed>0.28</speed>
  <fix>3d</fix>
</trkpt>
<trkpt lat="-27.2744339" lon="151.2900357">
  <ele>357.97</ele>
  <time>2026-09-01T19:51:04Z</time>
  <course>12.21</course>
  <speed>0.24</speed>
  <fix>3d</fix>
</trkpt>
<trkpt lat="-27.274434" lon="151.2900366">
  <ele>358.13</ele>
  <time>2026-09-01T19:51:04Z</time>
  <course>265.55</course>
  <speed>0.28</speed>
  <fix>3d</fix>
</trkpt>
<trkpt lat="-27.2744339" lon="151.2900355">
  <ele>357.97</ele>
  <time>2026-09-01T19:51:04Z</time>
  <course>11.87</course>
  <speed>0.21</speed>
  <fix>3d</fix>
</trkpt>
<trkpt lat="-27.274434" lon="151.290036">
  <ele>358.13</ele>
  <time>2026-09-01T19:51:04Z</time>
  <course>265.55</course>
  <speed>0.23</speed>
  <fix>3d</fix>
</trkpt>
<trkpt lat="-27.2744339" lon="151.2900353">
  <ele>357.97</ele>
  <time>2026-09-01T19:51:04Z</time>
  <course>10.6</course>
  <speed>0.19</speed>
  <fix>3d</fix>
</trkpt>
<trkpt lat="-27.274434" lon="151.290036">
  <ele>358.13</ele>
  <time>2026-09-01T19:51:04Z</time>
  <course>265.55</course>
  <speed>0.23</speed>
  <fix>3d</fix>
</trkpt>
<trkpt lat="-27.2744339" lon="151.2900351">
  <ele>357.97</ele>
  <time>2026-09-01T19:51:04Z</time>
  <course>8.75</course>
  <speed>0.16</speed>
  <fix>3d</fix>
</trkpt>
<trkpt lat="-27.274434" lon="151.2900356">
  <ele>358.13</ele>
  <time>2026-09-01T19:51:04Z</time>
  <course>264.59</course>
  <speed>0.19</speed>
  <fix>3d</fix>
</trkpt>
<trkpt lat="-27.2744339" lon="151.290035">
  <ele>357.97</ele>
  <time>2026-09-01T19:51:04Z</time>
  <course>6.59</course>
  <speed>0.14</speed>
  <fix>3d</fix>
</trkpt>
<trkpt lat="-27.274434" lon="151.2900356">
  <ele>358.13</ele>
  <time>2026-09-01T19:51:04Z</time>
  <course>264.59</course>
  <speed>0.19</speed>
  <fix>3d</fix>
</trkpt>
<trkpt lat="-27.2744339" lon="151.2900349">
  <ele>357.97</ele>
  <time>2026-09-01T19:51:04Z</time>
  <course>4.37</course>
  <speed>0.12</speed>
  <fix>3d</fix>
</trkpt>
<trkpt lat="-27.274434" lon="151.2900353">
  <ele>358.13</ele>
  <time>2026-09-01T19:51:04Z</time>
  <course>262.08</course>
  <speed>0.14</speed>
  <fix>3d</fix>
</trkpt>
<trkpt lat="-27.2744339" lon="151.2900348">
  <ele>357.97</ele>
  <time>2026-09-01T19:51:04Z</time>
  <course>2.33</course>
  <speed>0.09</speed>
  <fix>3d</fix>
</trkpt>
<trkpt lat="-27.274434" lon="151.2900353">
  <ele>358.13</ele>
  <time>2026-09-01T19:51:04Z</time>
  <course>262.08</course>
  <speed>0.14</speed>
  <fix>3d</fix>
</trkpt>
<trkpt lat="-27.274434" lon="151.2900347">
  <ele>357.97</ele>
  <time>2026-09-01T19:51:04Z</time>
  <course>0.68</course>
  <speed>0.07</speed>
  <fix>3d</fix>
</trkpt>
<trkpt lat="-27.274434" lon="151.2900351">
  <ele>358.12</ele>
  <time>2026-09-01T19:51:04Z</time>
  <course>255.56</course>
  <speed>0.09</speed>
  <fix>3d</fix>
</trkpt>
<trkpt lat="-27.274434" lon="151.2900347">
  <ele>357.97</ele>
  <time>2026-09-01T19:51:04Z</time>
  <course>359.52</course>
  <speed>0.04</speed>
  <fix>3d</fix>
</trkpt>
<trkpt lat="-27.274434" lon="151.2900351">
  <ele>358.12</ele>
  <time>2026-09-01T19:51:04Z</time>
  <course>255.56</course>
  <speed>0.09</speed>
  <fix>3d</fix>
</trkpt>
<trkpt lat="-27.274434" lon="151.2900347">
  <ele>357.97</ele>
  <time>2026-09-01T19:51:04Z</time>
  <course>357.74</course>
  <speed>0.022360679774997897</speed>
  <fix>3d</fix>
</trkpt>
<trkpt lat="-27.2744341" lon="151.2900349">
  <ele>358.12</ele>
  <time>2026-09-01T19:51:04Z</time>
  <course>234.97</course>
  <speed>0.05</speed>
  <fix>3d</fix>
</trkpt>
<trkpt lat="-27.274434" lon="151.2900347">
  <ele>357.96</ele>
  <time>2026-09-01T19:51:04Z</time>
  <course>354.95</course>
  <speed>0.01</speed>
  <fix>3d</fix>
</trkpt>
<trkpt lat="-27.2744341" lon="151.2900349">
  <ele>358.12</ele>
  <time>2026-09-01T19:51:04Z</time>
  <course>234.97</course>
  <speed>0.05</speed>
  <fix>3d</fix>
</trkpt>
<trkpt lat="-27.2744341" lon="151.2900348">
  <ele>357.96</ele>
  <time>2026-09-01T19:51:04Z</time>
  <course>351.49</course>
  <speed>0.0282842712474619</speed>
  <fix>3d</fix>
</trkpt>
<trkpt lat="-27.2744342" lon="151.2900349">
  <ele>358.11</ele>
  <time>2026-09-01T19:51:04Z</time>
  <course>175.24</course>
  <speed>0.04</speed>
  <fix>3d</fix>
</trkpt>
<trkpt lat="-27.2744341" lon="151.2900348">
  <ele>357.96</ele>
  <time>2026-09-01T19:51:04Z</time>
  <course>347.63</course>
  <speed>0.053851648071345036</speed>
  <fix>3d</fix>
</trkpt>
<trkpt lat="-27.2744342" lon="151.2900349">
  <ele>358.11</ele>
  <time>2026-09-01T19:51:04Z</time>
  <course>175.24</course>
  <speed>0.04</speed>
  <fix>3d</fix>
</trkpt>
<trkpt lat="-27.2744341" lon="151.2900349">
  <ele>357.96</ele>
  <time>2026-09-01T19:51:04Z</time>
  <course>343.52</course>
  <speed>0.07615773105863909</speed>
  <fix>3d</fix>
</trkpt>
<trkpt lat="-27.2744342" lon="151.2900349">
  <ele>358.11</ele>
  <time>2026-09-01T19:51:04Z</time>
  <course>134.78</course>
  <speed>0.07</speed>
  <fix>3d</fix>
</trkpt>
<trkpt lat="-27.2744342" lon="151.2900349">
  <ele>357.96</ele>
  <time>2026-09-01T19:51:04Z</time>
  <course>339.29</course>
  <speed>0.09486832980505139</speed>
  <fix>3d</fix>
</trkpt>
<trkpt lat="-27.2744342" lon="151.2900349">
  <ele>358.11</ele>
  <time>2026-09-01T19:51:04Z</time>
  <course>134.78</course>
  <speed>0.07</speed>
  <fix>3d</fix>
</trkpt>
<trkpt lat="-27.2744342" lon="151.2900351">
  <ele>357.96</ele>
  <time>2026-09-01T19:51:04Z</time>
  <course>334.97</course>
  <speed>0.12369316876852982</speed>
  <fix>3d</fix>
</trkpt>
<trkpt lat="-27.2744343" lon="151.2900351">
  <ele>358.1</ele>
  <time>2026-09-01T19:51:04Z</time>
  <course>121.24</course>
  <speed>0.11</speed>
  <fix>3d</fix>
</trkpt>
<trkpt lat="-27.2744343" lon="151.2900352">
  <ele>357.96</ele>
  <time>2026-09-01T19:51:04Z</time>
  <course>330.61</course>
  <speed>0.14560219778561037</speed>
  <fix>3d</fix>
</trkpt>
<trkpt lat="-27.2744343" lon="151.2900351">
  <ele>358.1</ele>
  <time>2026-09-01T19:51:04Z</time>
  <course>121.24</course>
  <speed>0.11</speed>
  <fix>3d</fix>
</trkpt>
<trkpt lat="-27.2744343" lon="151.2900354">
  <ele>357.96</ele>
  <time>2026-09-01T19:51:04Z</time>
  <course>326.37</course>
  <speed>0.1649242250247064</speed>
  <fix>3d</fix>
</trkpt>
<trkpt lat="-27.2744345" lon="151.2900353">
  <ele>358.1</ele>
  <time>2026-09-01T19:51:04Z</time>
  <course>114.9</course>
  <speed>0.16</speed>
  <fix>3d</fix>
</trkpt>
<trkpt lat="-27.2744344" lon="151.2900356">
  <ele>357.96</ele>
  <time>2026-09-01T19:51:04Z</time>
  <course>323.14</course>
  <speed>0.18439088914585774</speed>
  <fix>3d</fix>
</trkpt>
<trkpt lat="-27.2744345" lon="151.2900353">
  <ele>358.1</ele>
  <time>2026-09-01T19:51:04Z</time>
  <course>114.9</course>
  <speed>0.16</speed>
  <fix>3d</fix>
</trkpt>
<trkpt lat="-27.2744345" lon="151.2900358">
  <ele>357.95</ele>
  <time>2026-09-01T19:51:04Z</time>
  <course>321.39</course>
  <speed>0.2039607805437114</speed>
  <fix>3d</fix>
</trkpt>
<trkpt lat="-27.2744346" lon="151.2900356">
  <ele>358.1</ele>
  <time>2026-09-01T19:51:04Z</time>
  <course>111.04</course>
  <speed>0.2</speed>
  <fix>3d</fix>
</trkpt>
<trkpt lat="-27.2744345" lon="151.290036">
  <ele>357.95</ele>
  <time>2026-09-01T19:51:04Z</time>
  <course>321.01</course>
  <speed>0.223606797749979</speed>
  <fix>3d</fix>
</trkpt>
<trkpt lat="-27.2744346" lon="151.2900356">
  <ele>358.1</ele>
  <time>2026-09-01T19:51:04Z</time>
  <course>111.04</course>
  <speed>0.2</speed>
  <fix>3d</fix>
</trkpt>
<trkpt lat="-27.2744346" lon="151.2900363">
  <ele>357.95</ele>
  <time>2026-09-01T19:51:04Z</time>
  <course>321.68</course>
  <speed>0.2353720459187964</speed>
  <fix>3d</fix>
</trkpt>
<trkpt lat="-27.2744347" lon="151.290036">
  <ele>358.1</ele>
  <time>2026-09-01T19:51:04Z</time>
  <course>108.47</course>
  <speed>0.24</speed>
  <fix>3d</fix>
</trkpt>
<trkpt lat="-27.2744347" lon="151.2900365">
  <ele>357.95</ele>
  <time>2026-09-01T19:51:04Z</time>
  <course>323.08</course>
  <speed>0.25495097567963926</speed>
  <fix>3d</fix>
</trkpt>
<trkpt lat="-27.2744347" lon="151.290036">
  <ele>358.1</ele>
  <time>2026-09-01T19:51:04Z</time>
  <course>108.47</course>
  <speed>0.24</speed>
  <fix>3d</fix>
</trkpt>
<trkpt lat="-27.2744347" lon="151.2900368">
  <ele>357.95</ele>
  <time>2026-09-01T19:51:04Z</time>
  <course>324.89</course>
  <speed>0.26476404589747454</speed>
  <fix>3d</fix>
</trkpt>
<trkpt lat="-27.2744349" lon="151.2900365">
  <ele>358.09</ele>
  <time>2026-09-01T19:51:04Z</time>
  <course>106.77</course>
  <speed>0.27</speed>
  <fix>3d</fix>
</trkpt>
<trkpt lat="-27.2744348" lon="151.2900371">
  <ele>357.94</ele>
  <time>2026-09-01T19:51:04Z</time>
  <course>326.87</course>
  <speed>0.28442925306655786</speed>
  <fix>3d</fix>
</trkpt>
<trkpt lat="-27.2744349" lon="151.2900365">
  <ele>358.09</ele>
  <time>2026-09-01T19:51:04Z</time>
  <course>106.77</course>
  <speed>0.27</speed>
  <fix>3d</fix>
</trkpt>
<trkpt lat="-27.2744349" lon="151.2900374">
  <ele>357.94</ele>
  <time>2026-09-01T19:51:04Z</time>
  <course>328.8</course>
  <speed>0.2942787793912432</speed>
  <fix>3d</fix>
</trkpt>
<trkpt lat="-27.274435" lon="151.2900371">
  <ele>358.09</ele>
  <time>2026-09-01T19:51:04Z</time>
  <course>105.39</course>
  <speed>0.3</speed>
  <fix>3d</fix>
</trkpt>
<trkpt lat="-27.2744349" lon="151.2900378">
  <ele>357.94</ele>
  <time>2026-09-01T19:51:04Z</time>
  <course>330.48</course>
  <speed>0.3125699921617557</speed>
  <fix>3d</fix>
</trkpt>
<trkpt lat="-27.274435" lon="151.2900371">
  <ele>358.09</ele>
  <time>2026-09-01T19:51:04Z</time>
  <course>105.39</course>
  <speed>0.3</speed>
  <fix>3d</fix>
</trkpt>
<trkpt lat="-27.274435" lon="151.2900381">
  <ele>357.94</ele>
  <time>2026-09-01T19:51:04Z</time>
  <course>331.73</course>
  <speed>0.32249030993194194</speed>
  <fix>3d</fix>
</trkpt>
<trkpt lat="-27.2744352" lon="151.2900376">
  <ele>358.09</ele>
  <time>2026-09-01T19:51:04Z</time>
  <course>103.69</course>
  <speed>0.33</speed>
  <fix>3d</fix>
</trkpt>
<trkpt lat="-27.2744351" lon="151.2900385">
  <ele>357.94</ele>
  <time>2026-09-01T19:51:04Z</time>
  <course>332.47</course>
  <speed>0.3313608305156178</speed>
  <fix>3d</fix>
</trkpt>
<trkpt lat="-27.2744352" lon="151.2900376">
  <ele>358.09</ele>
  <time>2026-09-01T19:51:04Z</time>
  <course>103.69</course>
  <speed>0.33</speed>
  <fix>3d</fix>
</trkpt>
<trkpt lat="-27.2744351" lon="151.2900388">
  <ele>357.94</ele>
  <time>2026-09-01T19:51:04Z</time>
  <course>332.69</course>
  <speed>0.35128336140500593</speed>
  <fix>3d</fix>
</trkpt>
<trkpt lat="-27.2744353" lon="151.2900383">
  <ele>358.09</ele>
  <time>2026-09-01T19:51:04Z</time>
  <course>101.41</course>
  <speed>0.36</speed>
  <fix>3d</fix>
</trkpt>
<trkpt lat="-27.2744352" lon="151.2900392">
  <ele>357.94</ele>
  <time>2026-09-01T19:51:04Z</time>
  <course>332.49</course>
  <speed>0.3605551275463989</speed>
  <fix>3d</fix>
</trkpt>
<trkpt lat="-27.2744353" lon="151.2900383">
  <ele>358.09</ele>
  <time>2026-09-01T19:51:04Z</time>
  <course>101.41</course>
  <speed>0.36</speed>
  <fix>3d</fix>
</trkpt>
<trkpt lat="-27.2744352" lon="151.2900396">
  <ele>357.95</ele>
  <time>2026-09-01T19:51:04Z</time>
  <course>332.02</course>
  <speed>0.37013511046643494</speed>
  <fix>3d</fix>
</trkpt>
<trkpt lat="-27.2744354" lon="151.2900391">
  <ele>358.1</ele>
  <time>2026-09-01T19:51:04Z</time>
  <course>98.61</course>
  <speed>0.38</speed>
  <fix>3d</fix>
</trkpt>
<trkpt lat="-27.2744352" lon="151.29004">
  <ele>357.95</ele>
  <time>2026-09-01T19:51:04Z</time>
  <course>332.45</course>
  <speed>0.38</speed>
  <fix>3d</fix>
</trkpt>
<trkpt lat="-27.2744354" lon="151.2900391">
  <ele>358.1</ele>
  <time>2026-09-01T19:51:04Z</time>
  <course>98.61</course>
  <speed>0.38</speed>
  <fix>3d</fix>
</trkpt>
<trkpt lat="-27.2744353" lon="151.2900404">
  <ele>357.95</ele>
  <time>2026-09-01T19:51:04Z</time>
  <course>334.44</course>
  <speed>0.39</speed>
  <fix>3d</fix>
</trkpt>
<trkpt lat="-27.2744355" lon="151.2900399">
  <ele>358.1</ele>
  <time>2026-09-01T19:51:04Z</time>
  <course>95.47</course>
  <speed>0.4</speed>
  <fix>3d</fix>
</trkpt>
<trkpt lat="-27.2744353" lon="151.2900408">
  <ele>357.95</ele>
  <time>2026-09-01T19:51:04Z</time>
  <course>337.46</course>
  <speed>0.4004996878900158</speed>
  <fix>3d</fix>
</trkpt>
<trkpt lat="-27.2744355" lon="151.2900399">
  <ele>358.1</ele>
  <time>2026-09-01T19:51:04Z</time>
  <course>95.47</course>
  <speed>0.4</speed>
  <fix>3d</fix>
</trkpt>
<trkpt lat="-27.2744353" lon="151.2900413">
  <ele>357.95</ele>
  <time>2026-09-01T19:51:04Z</time>
  <course>341.11</course>
  <speed>0.41109609582188933</speed>
  <fix>3d</fix>
</trkpt>
<trkpt lat="-27.2744356" lon="151.2900407">
  <ele>358.1</ele>
  <time>2026-09-01T19:51:04Z</time>
  <course>92.11</course>
  <speed>0.42</speed>
  <fix>3d</fix>
</trkpt>
<trkpt lat="-27.2744353" lon="151.2900417">
  <ele>357.96</ele>
  <time>2026-09-01T19:51:04Z</time>
  <course>345.12</course>
  <speed>0.43289721643826723</speed>
  <fix>3d</fix>
</trkpt>
<trkpt lat="-27.2744356" lon="151.2900407">
  <ele>358.1</ele>
  <time>2026-09-01T19:51:04Z</time>
  <course>92.11</course>
  <speed>0.42</speed>
  <fix>3d</fix>
</trkpt>
<trkpt lat="-27.2744353" lon="151.2900422">
  <ele>357.95</ele>
  <time>2026-09-01T19:51:04Z</time>
  <course>349.34</course>
  <speed>0.4440720662234904</speed>
  <fix>3d</fix>
</trkpt>
<trkpt lat="-27.2744356" lon="151.2900416">
  <ele>358.1</ele>
  <time>2026-09-01T19:51:04Z</time>
  <course>88.45</course>
  <speed>0.45</speed>
  <fix>3d</fix>
</trkpt>
<trkpt lat="-27.2744353" lon="151.2900427">
  <ele>357.95</ele>
  <time>2026-09-01T19:51:04Z</time>
  <course>353.68</course>
  <speed>0.46529560496527367</speed>
  <fix>3d</fix>
</trkpt>
<trkpt lat="-27.2744356" lon="151.2900416">
  <ele>358.1</ele>
  <time>2026-09-01T19:51:04Z</time>
  <course>88.45</course>
  <speed>0.45</speed>
  <fix>3d</fix>
</trkpt>
<trkpt lat="-27.2744353" lon="151.2900432">
  <ele>357.95</ele>
  <time>2026-09-01T19:51:04Z</time>
  <course>358.09</course>
  <speed>0.4850773134253961</speed>
  <fix>3d</fix>
</trkpt>
<trkpt lat="-27.2744356" lon="151.2900426">
  <ele>358.1</ele>
  <time>2026-09-01T19:51:04Z</time>
  <course>84.95</course>
  <speed>0.48</speed>
  <fix>3d</fix>
</trkpt>
<trkpt lat="-27.2744352" lon="151.2900437">
  <ele>357.95</ele>
  <time>2026-09-01T19:51:04Z</time>
  <course>2.46</course>
  <speed>0.5035871324805669</speed>
  <fix>3d</fix>
</trkpt>
<trkpt lat="-27.2744356" lon="151.2900426">
  <ele>358.1</ele>
  <time>2026-09-01T19:51:04Z</time>
  <course>84.95</course>
  <speed>0.48</speed>
  <fix>3d</fix>
</trkpt>
<trkpt lat="-27.2744352" lon="151.2900443">
  <ele>357.95</ele>
  <time>2026-09-01T19:51:04Z</time>
  <course>5.92</course>
  <speed>0.5135172830587107</speed>
  <fix>3d</fix>
</trkpt>
<trkpt lat="-27.2744355" lon="151.2900436">
  <ele>358.1</ele>
  <time>2026-09-01T19:51:04Z</time>
  <course>84.2</course>
  <speed>0.51</speed>
  <fix>3d</fix>
</trkpt>
<trkpt lat="-27.2744352" lon="151.2900448">
  <ele>357.94</ele>
  <time>2026-09-01T19:51:04Z</time>
  <course>7.87</course>
  <speed>0.5323532661682466</speed>
  <fix>3d</fix>
</trkpt>
<trkpt lat="-27.2744355" lon="151.2900436">
  <ele>358.1</ele>
  <time>2026-09-01T19:51:04Z</time>
  <course>84.2</course>
  <speed>0.51</speed>
  <fix>3d</fix>
</trkpt>
<trkpt lat="-27.2744351" lon="151.2900454">
  <ele>357.94</ele>
  <time>2026-09-01T19:51:04Z</time>
  <course>8.39</course>
  <speed>0.552268050859363</speed>
  <fix>3d</fix>
</trkpt>
<trkpt lat="-27.2744354" lon="151.2900447">
  <ele>358.1</ele>
  <time>2026-09-01T19:51:04Z</time>
  <course>85.56</course>
  <speed>0.55</speed>
  <fix>3d</fix>
</trkpt>
<trkpt lat="-27.2744351" lon="151.290046">
  <ele>357.94</ele>
  <time>2026-09-01T19:51:04Z</time>
  <course>7.81</course>
  <speed>0.5622277118748239</speed>
  <fix>3d</fix>
</trkpt>
<trkpt lat="-27.2744354" lon="151.2900447">
  <ele>358.1</ele>
  <time>2026-09-01T19:51:04Z</time>
  <course>85.56</course>
  <speed>0.55</speed>
  <fix>3d</fix>
</trkpt>
<trkpt lat="-27.2744351" lon="151.2900466">
  <ele>357.93</ele>
  <time>2026-09-01T19:51:04Z</time>
  <course>6.48</course>
  <speed>0.5813776741499453</speed>
  <fix>3d</fix>
</trkpt>
<trkpt lat="-27.2744354" lon="151.2900458">
  <ele>358.1</ele>
  <time>2026-09-01T19:51:04Z</time>
  <course>86.59</course>
  <speed>0.58</speed>
  <fix>3d</fix>
</trkpt>
<trkpt lat="-27.2744351" lon="151.2900473">
  <ele>357.93</ele>
  <time>2026-09-01T19:51:04Z</time>
  <course>4.73</course>
  <speed>0.5913543776789008</speed>
  <fix>3d</fix>
</trkpt>
<trkpt lat="-27.2744354" lon="151.2900458">
  <ele>358.1</ele>
  <time>2026-09-01T19:51:04Z</time>
  <course>86.59</course>
  <speed>0.58</speed>
  <fix>3d</fix>
</trkpt>
<trkpt lat="-27.2744351" lon="151.2900479">
  <ele>357.93</ele>
  <time>2026-09-01T19:51:04Z</time>
  <course>2.81</course>
  <speed>0.6013318551349163</speed>
  <fix>3d</fix>
</trkpt>
<trkpt lat="-27.2744353" lon="151.290047">
  <ele>358.1</ele>
  <time>2026-09-01T19:51:04Z</time>
  <course>87.33</course>
  <speed>0.61</speed>
  <fix>3d</fix>
</trkpt>
<trkpt lat="-27.2744351" lon="151.2900485">
  <ele>357.93</ele>
  <time>2026-09-01T19:51:04Z</time>
  <course>0.96</course>
  <speed>0.6207253821135398</speed>
  <fix>3d</fix>
</trkpt>
<trkpt lat="-27.2744353" lon="151.290047">
  <ele>358.1</ele>
  <time>2026-09-01T19:51:04Z</time>
  <course>87.33</course>
  <speed>0.61</speed>
  <fix>3d</fix>
</trkpt>
<trkpt lat="-27.2744351" lon="151.2900492">
  <ele>357.93</ele>
  <time>2026-09-01T19:51:04Z</time>
  <course>359.34</course>
  <speed>0.6307138812488592</speed>
  <fix>3d</fix>
</trkpt>
<trkpt lat="-27.2744353" lon="151.2900483">
  <ele>358.1</ele>
  <time>2026-09-01T19:51:04Z</time>
  <course>87.89</course>
  <speed>0.63</speed>
  <fix>3d</fix>
</trkpt>
<trkpt lat="-27.274435" lon="151.2900499">
  <ele>357.93</ele>
  <time>2026-09-01T19:51:04Z</time>
  <course>358.11</course>
  <speed>0.6407027391856539</speed>
  <fix>3d</fix>
</trkpt>
<trkpt lat="-27.2744353" lon="151.2900483">
  <ele>358.1</ele>
  <time>2026-09-01T19:51:04Z</time>
  <course>87.89</course>
  <speed>0.63</speed>
  <fix>3d</fix>
</trkpt>
<trkpt lat="-27.274435" lon="151.2900506">
  <ele>357.93</ele>
  <time>2026-09-01T19:51:04Z</time>
  <course>357.14</course>
  <speed>0.6506919393998976</speed>
  <fix>3d</fix>
</trkpt>
<trkpt lat="-27.2744352" lon="151.2900496">
  <ele>358.11</ele>
  <time>2026-09-01T19:51:04Z</time>
  <course>88.36</course>
  <speed>0.66</speed>
  <fix>3d</fix>
</trkpt>
<trkpt lat="-27.274435" lon="151.2900513">
  <ele>357.93</ele>
  <time>2026-09-01T19:51:04Z</time>
  <course>355.28</course>
  <speed>0.6519202405202649</speed>
  <fix>3d</fix>
</trkpt>
<trkpt lat="-27.2744352" lon="151.2900496">
  <ele>358.11</ele>
  <time>2026-09-01T19:51:04Z</time>
  <course>88.36</course>
  <speed>0.66</speed>
  <fix>3d</fix>
</trkpt>
<trkpt lat="-27.274435" lon="151.290052">
  <ele>357.93</ele>
  <time>2026-09-01T19:51:04Z</time>
  <course>352.53</course>
  <speed>0.6648308055437865</speed>
  <fix>3d</fix>
</trkpt>
<trkpt lat="-27.2744352" lon="151.290051">
  <ele>358.11</ele>
  <time>2026-09-01T19:51:04Z</time>
  <course>87.82</course>
  <speed>0.67</speed>
  <fix>3d</fix>
</trkpt>
<trkpt lat="-27.2744349" lon="151.2900527">
  <ele>357.93</ele>
  <time>2026-09-01T19:51:04Z</time>
  <course>349.27</course>
  <speed>0.669103878332804</speed>
  <fix>3d</fix>
</trkpt>
<trkpt lat="-27.2744352" lon="151.290051">
  <ele>358.11</ele>
  <time>2026-09-01T19:51:04Z</time>
  <course>87.82</course>
  <speed>0.67</speed>
  <fix>3d</fix>
</trkpt>
<trkpt lat="-27.2744348" lon="151.2900534">
  <ele>357.93</ele>
  <time>2026-09-01T19:51:04Z</time>
  <course>345.7</course>
  <speed>0.6746851117373199</speed>
  <fix>3d</fix>
</trkpt>
<trkpt lat="-27.2744351" lon="151.2900523">
  <ele>358.11</ele>
  <time>2026-09-01T19:51:04Z</time>
  <course>84.73</course>
  <speed>0.69</speed>
  <fix>3d</fix>
</trkpt>
<trkpt lat="-27.2744347" lon="151.2900541">
  <ele>357.94</ele>
  <time>2026-09-01T19:51:04Z</time>
  <course>341.93</course>
  <speed>0.6815423684555495</speed>
  <fix>3d</fix>
</trkpt>
<trkpt lat="-27.2744351" lon="151.2900523">
  <ele>358.11</ele>
  <time>2026-09-01T19:51:04Z</time>
  <course>84.73</course>
  <speed>0.69</speed>
  <fix>3d</fix>
</trkpt>
<trkpt lat="-27.2744345" lon="151.2900548">
  <ele>357.94</ele>
  <time>2026-09-01T19:51:05Z</time>
  <course>338.1</course>
  <speed>0.6830812543175226</speed>
  <fix>3d</fix>
</trkpt>
<trkpt lat="-27.2744349" lon="151.2900538">
  <ele>358.11</ele>
  <time>2026-09-01T19:51:05Z</time>
  <course>79.75</course>
  <speed>0.7</speed>
  <fix>3d</fix>
</trkpt>
<trkpt lat="-27.2744343" lon="151.2900555">
  <ele>357.94</ele>
  <time>2026-09-01T19:51:05Z</time>
  <course>334.21</course>
  <speed>0.6835202996254024</speed>
  <fix>3d</fix>
</trkpt>
<trkpt lat="-27.2744349" lon="151.2900538">
  <ele>358.11</ele>
  <time>2026-09-01T19:51:05Z</time>
  <course>79.75</course>
  <speed>0.7</speed>
  <fix>3d</fix>
</trkpt>
<trkpt lat="-27.2744341" lon="151.2900561">
  <ele>357.94</ele>
  <time>2026-09-01T19:51:05Z</time>
  <course>330.29</course>
  <speed>0.6854195795277518</speed>
  <fix>3d</fix>
</trkpt>
<trkpt lat="-27.2744347" lon="151.2900551">
  <ele>358.11</ele>
  <time>2026-09-01T19:51:05Z</time>
  <course>74.28</course>
  <speed>0.71</speed>
  <fix>3d</fix>
</trkpt>
<trkpt lat="-27.2744339" lon="151.2900568">
  <ele>357.94</ele>
  <time>2026-09-01T19:51:05Z</time>
  <course>326.36</course>
  <speed>0.6797793759742936</speed>
  <fix>3d</fix>
</trkpt>
<trkpt lat="-27.2744347" lon="151.2900551">
  <ele>358.11</ele>
  <time>2026-09-01T19:51:05Z</time>
  <course>74.28</course>
  <speed>0.71</speed>
  <fix>3d</fix>
</trkpt>
<trkpt lat="-27.2744336" lon="151.2900574">
  <ele>357.94</ele>
  <time>2026-09-01T19:51:05Z</time>
  <course>322.99</course>
  <speed>0.6760177512462228</speed>
  <fix>3d</fix>
</trkpt>
<trkpt lat="-27.2744342" lon="151.2900565">
  <ele>358.12</ele>
  <time>2026-09-01T19:51:05Z</time>
  <course>68.66</course>
  <speed>0.71</speed>
  <fix>3d</fix>
</trkpt>
<trkpt lat="-27.2744333" lon="151.2900581">
  <ele>357.95</ele>
  <time>2026-09-01T19:51:05Z</time>
  <course>320.93</course>
  <speed>0.674166151627327</speed>
  <fix>3d</fix>
</trkpt>
<trkpt lat="-27.2744342" lon="151.2900565">
  <ele>358.12</ele>
  <time>2026-09-01T19:51:05Z</time>
  <course>68.66</course>
  <speed>0.71</speed>
  <fix>3d</fix>
</trkpt>
<trkpt lat="-27.274433" lon="151.2900587">
  <ele>357.95</ele>
  <time>2026-09-01T19:51:05Z</time>
  <course>320.24</course>
  <speed>0.6685057965343307</speed>
  <fix>3d</fix>
</trkpt>
<trkpt lat="-27.2744338" lon="151.2900578">
  <ele>358.12</ele>
  <time>2026-09-01T19:51:05Z</time>
  <course>62.97</course>
  <speed>0.7</speed>
  <fix>3d</fix>
</trkpt>
<trkpt lat="-27.2744327" lon="151.2900592">
  <ele>357.95</ele>
  <time>2026-09-01T19:51:05Z</time>
  <course>320.63</course>
  <speed>0.656048778674269</speed>
  <fix>3d</fix>
</trkpt>
<trkpt lat="-27.2744338" lon="151.2900578">
  <ele>358.12</ele>
  <time>2026-09-01T19:51:05Z</time>
  <course>62.97</course>
  <speed>0.7</speed>
  <fix>3d</fix>
</trkpt>
<trkpt lat="-27.2744323" lon="151.2900598">
  <ele>357.96</ele>
  <time>2026-09-01T19:51:05Z</time>
  <course>321.78</course>
  <speed>0.6606814663663572</speed>
  <fix>3d</fix>
</trkpt>
<trkpt lat="-27.2744331" lon="151.2900591">
  <ele>358.13</ele>
  <time>2026-09-01T19:51:05Z</time>
  <course>57.43</course>
  <speed>0.69</speed>
  <fix>3d</fix>
</trkpt>
<trkpt lat="-27.274432" lon="151.2900603">
  <ele>357.96</ele>
  <time>2026-09-01T19:51:05Z</time>
  <course>323.36</course>
  <speed>0.6543699259593154</speed>
  <fix>3d</fix>
</trkpt>
<trkpt lat="-27.2744331" lon="151.2900591">
  <ele>358.13</ele>
  <time>2026-09-01T19:51:05Z</time>
  <course>57.43</course>
  <speed>0.69</speed>
  <fix>3d</fix>
</trkpt>
<trkpt lat="-27.2744316" lon="151.2900609">
  <ele>357.96</ele>
  <time>2026-09-01T19:51:05Z</time>
  <course>325.13</course>
  <speed>0.6481512169239521</speed>
  <fix>3d</fix>
</trkpt>
<trkpt lat="-27.2744324" lon="151.2900602">
  <ele>358.13</ele>
  <time>2026-09-01T19:51:05Z</time>
  <course>53.87</course>
  <speed>0.67</speed>
  <fix>3d</fix>
</trkpt>
<trkpt lat="-27.2744313" lon="151.2900614">
  <ele>357.97</ele>
  <time>2026-09-01T19:51:05Z</time>
  <course>326.87</course>
  <speed>0.6420280367709809</speed>
  <fix>3d</fix>
</trkpt>
<trkpt lat="-27.2744324" lon="151.2900602">
  <ele>358.13</ele>
  <time>2026-09-01T19:51:05Z</time>
  <course>53.87</course>
  <speed>0.67</speed>
  <fix>3d</fix>
</trkpt>
<trkpt lat="-27.2744309" lon="151.290062">
  <ele>357.97</ele>
  <time>2026-09-01T19:51:05Z</time>
  <course>328.35</course>
  <speed>0.6360031446463138</speed>
  <fix>3d</fix>
</trkpt>
<trkpt lat="-27.2744317" lon="151.2900613">
  <ele>358.14</ele>
  <time>2026-09-01T19:51:05Z</time>
  <course>53.62</course>
  <speed>0.66</speed>
  <fix>3d</fix>
</trkpt>
<trkpt lat="-27.2744306" lon="151.2900625">
  <ele>357.97</ele>
  <time>2026-09-01T19:51:05Z</time>
  <course>329.46</course>
  <speed>0.6300793600809346</speed>
  <fix>3d</fix>
</trkpt>
<trkpt lat="-27.2744317" lon="151.2900613">
  <ele>358.14</ele>
  <time>2026-09-01T19:51:05Z</time>
  <course>53.62</course>
  <speed>0.66</speed>
  <fix>3d</fix>
</trkpt>
<trkpt lat="-27.2744303" lon="151.2900631">
  <ele>357.97</ele>
  <time>2026-09-01T19:51:05Z</time>
  <course>330.11</course>
  <speed>0.6242595614005443</speed>
  <fix>3d</fix>
</trkpt>
<trkpt lat="-27.274431" lon="151.2900623">
  <ele>358.14</ele>
  <time>2026-09-01T19:51:05Z</time>
  <course>54.88</course>
  <speed>0.65</speed>
  <fix>3d</fix>
</trkpt>
<trkpt lat="-27.27443" lon="151.2900636">
  <ele>357.97</ele>
  <time>2026-09-01T19:51:05Z</time>
  <course>330.32</course>
  <speed>0.6103277807866851</speed>
  <fix>3d</fix>
</trkpt>
<trkpt lat="-27.274431" lon="151.2900623">
  <ele>358.14</ele>
  <time>2026-09-01T19:51:05Z</time>
  <course>54.88</course>
  <speed>0.65</speed>
  <fix>3d</fix>
</trkpt>
<trkpt lat="-27.2744297" lon="151.2900642">
  <ele>357.97</ele>
  <time>2026-09-01T19:51:05Z</time>
  <course>330.14</course>
  <speed>0.604648658313239</speed>
  <fix>3d</fix>
</trkpt>
<trkpt lat="-27.2744303" lon="151.2900634">
  <ele>358.14</ele>
  <time>2026-09-01T19:51:05Z</time>
  <course>56.22</course>
  <speed>0.64</speed>
  <fix>3d</fix>
</trkpt>
<trkpt lat="-27.2744294" lon="151.2900647">
  <ele>357.97</ele>
  <time>2026-09-01T19:51:05Z</time>
  <course>329.74</course>
  <speed>0.5990826320300063</speed>
  <fix>3d</fix>
</trkpt>
<trkpt lat="-27.2744303" lon="151.2900634">
  <ele>358.14</ele>
  <time>2026-09-01T19:51:05Z</time>
  <course>56.22</course>
  <speed>0.64</speed>
  <fix>3d</fix>
</trkpt>
<trkpt lat="-27.2744291" lon="151.2900652">
  <ele>357.97</ele>
  <time>2026-09-01T19:51:05Z</time>
  <course>330.25</course>
  <speed>0.5936328831862332</speed>
  <fix>3d</fix>
</trkpt>
<trkpt lat="-27.2744297" lon="151.2900645">
  <ele>358.14</ele>
  <time>2026-09-01T19:51:05Z</time>
  <course>57.62</course>
  <speed>0.62</speed>
  <fix>3d</fix>
</trkpt>
<trkpt lat="-27.2744288" lon="151.2900658">
  <ele>357.97</ele>
  <time>2026-09-01T19:51:05Z</time>
  <course>332.12</course>
  <speed>0.5883026432033092</speed>
  <fix>3d</fix>
</trkpt>
<trkpt lat="-27.2744297" lon="151.2900645">
  <ele>358.14</ele>
  <time>2026-09-01T19:51:05Z</time>
  <course>57.62</course>
  <speed>0.62</speed>
  <fix>3d</fix>
</trkpt>
<trkpt lat="-27.2744285" lon="151.2900663">
  <ele>357.97</ele>
  <time>2026-09-01T19:51:05Z</time>
  <course>334.88</course>
  <speed>0.574543296888929</speed>
  <fix>3d</fix>
</trkpt>
<trkpt lat="-27.2744291" lon="151.2900656">
  <ele>358.14</ele>
  <time>2026-09-01T19:51:05Z</time>
  <course>59.04</course>
  <speed>0.61</speed>
  <fix>3d</fix>
</trkpt>
<trkpt lat="-27.2744283" lon="151.2900668">
  <ele>357.97</ele>
  <time>2026-09-01T19:51:05Z</time>
  <course>338.17</course>
  <speed>0.5693856338194704</speed>
  <fix>3d</fix>
</trkpt>
<trkpt lat="-27.2744291" lon="151.2900656">
  <ele>358.14</ele>
  <time>2026-09-01T19:51:05Z</time>
  <course>59.04</course>
  <speed>0.61</speed>
  <fix>3d</fix>
</trkpt>
<trkpt lat="-27.274428" lon="151.2900674">
  <ele>357.97</ele>
  <time>2026-09-01T19:51:05Z</time>
  <course>341.76</course>
  <speed>0.5643580423808985</speed>
  <fix>3d</fix>
</trkpt>
<trkpt lat="-27.2744286" lon="151.2900666">
  <ele>358.14</ele>
  <time>2026-09-01T19:51:05Z</time>
  <course>60.46</course>
  <speed>0.6</speed>
  <fix>3d</fix>
</trkpt>
<trkpt lat="-27.2744278" lon="151.2900679">
  <ele>357.97</ele>
  <time>2026-09-01T19:51:05Z</time>
  <course>345.53</course>
  <speed>0.5594640292279746</speed>
  <fix>3d</fix>
</trkpt>
<trkpt lat="-27.2744286" lon="151.2900666">
  <ele>358.14</ele>
  <time>2026-09-01T19:51:05Z</time>
  <course>60.46</course>
  <speed>0.6</speed>
  <fix>3d</fix>
</trkpt>
<trkpt lat="-27.2744276" lon="151.2900684">
  <ele>357.96</ele>
  <time>2026-09-01T19:51:05Z</time>
  <course>349.4</course>
  <speed>0.5547071299343466</speed>
  <fix>3d</fix>
</trkpt>
<trkpt lat="-27.274428" lon="151.2900677">
  <ele>358.14</ele>
  <time>2026-09-01T19:51:05Z</time>
  <course>61.92</course>
  <speed>0.58</speed>
  <fix>3d</fix>
</trkpt>
<trkpt lat="-27.2744273" lon="151.2900689">
  <ele>357.96</ele>
  <time>2026-09-01T19:51:05Z</time>
  <course>353.33</course>
  <speed>0.5500909015790026</speed>
  <fix>3d</fix>
</trkpt>
<trkpt lat="-27.274428" lon="151.2900677">
  <ele>358.14</ele>
  <time>2026-09-01T19:51:05Z</time>
  <course>61.92</course>
  <speed>0.58</speed>
  <fix>3d</fix>
</trkpt>
<trkpt lat="-27.2744271" lon="151.2900695">
  <ele>357.96</ele>
  <time>2026-09-01T19:51:05Z</time>
  <course>357.25</course>
  <speed>0.5456189146281496</speed>
  <fix>3d</fix>
</trkpt>
<trkpt lat="-27.2744276" lon="151.2900688">
  <ele>358.13</ele>
  <time>2026-09-01T19:51:05Z</time>
  <course>63.43</course>
  <speed>0.57</speed>
  <fix>3d</fix>
</trkpt>
<trkpt lat="-27.2744269" lon="151.29007">
  <ele>357.96</ele>
  <time>2026-09-01T19:51:05Z</time>
  <course>0.29</course>
  <speed>0.5322593352868505</speed>
  <fix>3d</fix>
</trkpt>
<trkpt lat="-27.2744276" lon="151.2900688">
  <ele>358.13</ele>
  <time>2026-09-01T19:51:05Z</time>
  <course>63.43</course>
  <speed>0.57</speed>
  <fix>3d</fix>
</trkpt>
<trkpt lat="-27.2744267" lon="151.2900705">
  <ele>357.96</ele>
  <time>2026-09-01T19:51:05Z</time>
  <course>1.96</course>
  <speed>0.5280151512977634</speed>
  <fix>3d</fix>
</trkpt>
<trkpt lat="-27.2744272" lon="151.2900698">
  <ele>358.13</ele>
  <time>2026-09-01T19:51:05Z</time>
  <course>65.01</course>
  <speed>0.56</speed>
  <fix>3d</fix>
</trkpt>
<trkpt lat="-27.2744265" lon="151.290071">
  <ele>357.95</ele>
  <time>2026-09-01T19:51:05Z</time>
  <course>2.33</course>
  <speed>0.5239274758971895</speed>
  <fix>3d</fix>
</trkpt>
<trkpt lat="-27.2744272" lon="151.2900698">
  <ele>358.13</ele>
  <time>2026-09-01T19:51:05Z</time>
  <course>65.01</course>
  <speed>0.56</speed>
  <fix>3d</fix>
</trkpt>
<trkpt lat="-27.2744263" lon="151.2900715">
  <ele>357.95</ele>
  <time>2026-09-01T19:51:05Z</time>
  <course>1.68</course>
  <speed>0.5107837115648853</speed>
  <fix>3d</fix>
</trkpt>
<trkpt lat="-27.2744268" lon="151.2900708">
  <ele>358.13</ele>
  <time>2026-09-01T19:51:05Z</time>
  <course>66.7</course>
  <speed>0.55</speed>
  <fix>3d</fix>
</trkpt>
<trkpt lat="-27.2744262" lon="151.290072">
  <ele>357.95</ele>
  <time>2026-09-01T19:51:05Z</time>
  <course>0.36</course>
  <speed>0.5069516742254631</speed>
  <fix>3d</fix>
</trkpt>
<trkpt lat="-27.2744268" lon="151.2900708">
  <ele>358.13</ele>
  <time>2026-09-01T19:51:05Z</time>
  <course>66.7</course>
  <speed>0.55</speed>
  <fix>3d</fix>
</trkpt>
<trkpt lat="-27.274426" lon="151.2900725">
  <ele>357.95</ele>
  <time>2026-09-01T19:51:05Z</time>
  <course>358.67</course>
  <speed>0.49040799340956914</speed>
  <fix>3d</fix>
</trkpt>
<trkpt lat="-27.2744263" lon="151.2900718">
  <ele>358.12</ele>
  <time>2026-09-01T19:51:05Z</time>
  <course>68.61</course>
  <speed>0.53</speed>
  <fix>3d</fix>
</trkpt>
<trkpt lat="-27.2744259" lon="151.290073">
  <ele>357.95</ele>
  <time>2026-09-01T19:51:05Z</time>
  <course>356.84</course>
  <speed>0.4775981574503821</speed>
  <fix>3d</fix>
</trkpt>
<trkpt lat="-27.2744263" lon="151.2900718">
  <ele>358.12</ele>
  <time>2026-09-01T19:51:05Z</time>
  <course>68.61</course>
  <speed>0.53</speed>
  <fix>3d</fix>
</trkpt>
<trkpt lat="-27.2744257" lon="151.2900735">
  <ele>357.94</ele>
  <time>2026-09-01T19:51:05Z</time>
  <course>355.08</course>
  <speed>0.4743416490252569</speed>
  <fix>3d</fix>
</trkpt>
<trkpt lat="-27.274426" lon="151.2900728">
  <ele>358.12</ele>
  <time>2026-09-01T19:51:05Z</time>
  <course>70.79</course>
  <speed>0.51</speed>
  <fix>3d</fix>
</trkpt>
<trkpt lat="-27.2744256" lon="151.290074">
  <ele>357.94</ele>
  <time>2026-09-01T19:51:05Z</time>
  <course>353.59</course>
  <speed>0.45880278987817846</speed>
  <fix>3d</fix>
</trkpt>
<trkpt lat="-27.274426" lon="151.2900728">
  <ele>358.12</ele>
  <time>2026-09-01T19:51:05Z</time>
  <course>70.79</course>
  <speed>0.51</speed>
  <fix>3d</fix>
</trkpt>
<trkpt lat="-27.2744255" lon="151.2900744">
  <ele>357.94</ele>
  <time>2026-09-01T19:51:05Z</time>
  <course>352.53</course>
  <speed>0.4464302857109943</speed>
  <fix>3d</fix>
</trkpt>
<trkpt lat="-27.2744257" lon="151.2900737">
  <ele>358.12</ele>
  <time>2026-09-01T19:51:05Z</time>
  <course>73.23</course>
  <speed>0.49</speed>
  <fix>3d</fix>
</trkpt>
<trkpt lat="-27.2744254" lon="151.2900749">
  <ele>357.94</ele>
  <time>2026-09-01T19:51:05Z</time>
  <course>351.21</course>
  <speed>0.4341658669218482</speed>
  <fix>3d</fix>
</trkpt>
<trkpt lat="-27.2744257" lon="151.2900737">
  <ele>358.12</ele>
  <time>2026-09-01T19:51:05Z</time>
  <course>73.23</course>
  <speed>0.49</speed>
  <fix>3d</fix>
</trkpt>
<trkpt lat="-27.2744253" lon="151.2900753">
  <ele>357.94</ele>
  <time>2026-09-01T19:51:05Z</time>
  <course>349.04</course>
  <speed>0.4197618372363071</speed>
  <fix>3d</fix>
</trkpt>
<trkpt lat="-27.2744255" lon="151.2900747">
  <ele>358.12</ele>
  <time>2026-09-01T19:51:05Z</time>
  <course>75.89</course>
  <speed>0.46</speed>
  <fix>3d</fix>
</trkpt>
<trkpt lat="-27.2744252" lon="151.2900757">
  <ele>357.94</ele>
  <time>2026-09-01T19:51:05Z</time>
  <course>346.26</course>
  <speed>0.41</speed>
  <fix>3d</fix>
</trkpt>
<trkpt lat="-27.2744255" lon="151.2900747">
  <ele>358.12</ele>
  <time>2026-09-01T19:51:05Z</time>
  <course>75.89</course>
  <speed>0.46</speed>
  <fix>3d</fix>
</trkpt>
<trkpt lat="-27.2744251" lon="151.2900762">
  <ele>357.94</ele>
  <time>2026-09-01T19:51:05Z</time>
  <course>343.11</course>
  <speed>0.3905124837953327</speed>
  <fix>3d</fix>
</trkpt>
<trkpt lat="-27.2744253" lon="151.2900756">
  <ele>358.12</ele>
  <time>2026-09-01T19:51:05Z</time>
  <course>78.14</course>
  <speed>0.44</speed>
  <fix>3d</fix>
</trkpt>
<trkpt lat="-27.2744251" lon="151.2900766">
  <ele>357.94</ele>
  <time>2026-09-01T19:51:05Z</time>
  <course>339.75</course>
  <speed>0.383275357934736</speed>
  <fix>3d</fix>
</trkpt>
<trkpt lat="-27.2744253" lon="151.2900756">
  <ele>358.12</ele>
  <time>2026-09-01T19:51:05Z</time>
  <course>78.14</course>
  <speed>0.44</speed>
  <fix>3d</fix>
</trkpt>
<trkpt lat="-27.274425" lon="151.290077">
  <ele>357.94</ele>
  <time>2026-09-01T19:51:05Z</time>
  <course>336.26</course>
  <speed>0.3640054944640259</speed>
  <fix>3d</fix>
</trkpt>
<trkpt lat="-27.2744251" lon="151.2900765">
  <ele>358.12</ele>
  <time>2026-09-01T19:51:05Z</time>
  <course>78.31</course>
  <speed>0.41</speed>
  <fix>3d</fix>
</trkpt>
<trkpt lat="-27.2744249" lon="151.2900773">
  <ele>357.95</ele>
  <time>2026-09-01T19:51:05Z</time>
  <course>332.69</course>
  <speed>0.354400902933387</speed>
  <fix>3d</fix>
</trkpt>
<trkpt lat="-27.2744251" lon="151.2900765">
  <ele>358.12</ele>
  <time>2026-09-01T19:51:05Z</time>
  <course>78.31</course>
  <speed>0.41</speed>
  <fix>3d</fix>
</trkpt>
<trkpt lat="-27.2744248" lon="151.2900777">
  <ele>357.95</ele>
  <time>2026-09-01T19:51:05Z</time>
  <course>329.07</course>
  <speed>0.3352610922848042</speed>
  <fix>3d</fix>
</trkpt>
<trkpt lat="-27.274425" lon="151.2900773">
  <ele>358.13</ele>
  <time>2026-09-01T19:51:05Z</time>
  <course>77.08</course>
  <speed>0.38</speed>
  <fix>3d</fix>
</trkpt>
<trkpt lat="-27.2744247" lon="151.2900781">
  <ele>357.95</ele>
  <time>2026-09-01T19:51:05Z</time>
  <course>325.41</course>
  <speed>0.32280024783137945</speed>
  <fix>3d</fix>
</trkpt>
<trkpt lat="-27.274425" lon="151.2900773">
  <ele>358.13</ele>
  <time>2026-09-01T19:51:05Z</time>
  <course>77.08</course>
  <speed>0.38</speed>
  <fix>3d</fix>
</trkpt>
<trkpt lat="-27.2744247" lon="151.2900784">
  <ele>357.95</ele>
  <time>2026-09-01T19:51:05Z</time>
  <course>321.73</course>
  <speed>0.30364452901377953</speed>
  <fix>3d</fix>
</trkpt>
<trkpt lat="-27.2744249" lon="151.290078">
  <ele>358.13</ele>
  <time>2026-09-01T19:51:05Z</time>
  <course>76.44</course>
  <speed>0.35</speed>
  <fix>3d</fix>
</trkpt>
<trkpt lat="-27.2744246" lon="151.2900787">
  <ele>357.95</ele>
  <time>2026-09-01T19:51:05Z</time>
  <course>318.4</course>
  <speed>0.2816025568065745</speed>
  <fix>3d</fix>
</trkpt>
<trkpt lat="-27.2744249" lon="151.290078">
  <ele>358.13</ele>
  <time>2026-09-01T19:51:05Z</time>
  <course>76.44</course>
  <speed>0.35</speed>
  <fix>3d</fix>
</trkpt>
<trkpt lat="-27.2744245" lon="151.290079">
  <ele>357.95</ele>
  <time>2026-09-01T19:51:05Z</time>
  <course>316.16</course>
  <speed>0.2692582403567252</speed>
  <fix>3d</fix>
</trkpt>
<trkpt lat="-27.2744247" lon="151.2900786">
  <ele>358.13</ele>
  <time>2026-09-01T19:51:05Z</time>
  <course>76.73</course>
  <speed>0.32</speed>
  <fix>3d</fix>
</trkpt>
<trkpt lat="-27.2744245" lon="151.2900793">
  <ele>357.95</ele>
  <time>2026-09-01T19:51:05Z</time>
  <course>315.17</course>
  <speed>0.24738633753705963</speed>
  <fix>3d</fix>
</trkpt>
<trkpt lat="-27.2744247" lon="151.2900786">
  <ele>358.13</ele>
  <time>2026-09-01T19:51:05Z</time>
  <course>76.73</course>
  <speed>0.32</speed>
  <fix>3d</fix>
</trkpt>
<trkpt lat="-27.2744244" lon="151.2900795">
  <ele>357.96</ele>
  <time>2026-09-01T19:51:05Z</time>
  <course>315.25</course>
  <speed>0.22561028345356957</speed>
  <fix>3d</fix>
</trkpt>
<trkpt lat="-27.2744246" lon="151.2900793">
  <ele>358.14</ele>
  <time>2026-09-01T19:51:05Z</time>
  <course>78.07</course>
  <speed>0.28</speed>
  <fix>3d</fix>
</trkpt>
<trkpt lat="-27.2744244" lon="151.2900798">
  <ele>357.96</ele>
  <time>2026-09-01T19:51:05Z</time>
  <course>316.11</course>
  <speed>0.2039607805437114</speed>
  <fix>3d</fix>
</trkpt>
<trkpt lat="-27.2744246" lon="151.2900793">
  <ele>358.14</ele>
  <time>2026-09-01T19:51:05Z</time>
  <course>78.07</course>
  <speed>0.28</speed>
  <fix>3d</fix>
</trkpt>
<trkpt lat="-27.2744244" lon="151.29008">
  <ele>357.96</ele>
  <time>2026-09-01T19:51:05Z</time>
  <course>317.48</course>
  <speed>0.1824828759089466</speed>
  <fix>3d</fix>
</trkpt>
<trkpt lat="-27.2744245" lon="151.2900798">
  <ele>358.14</ele>
  <time>2026-09-01T19:51:05Z</time>
  <course>80.29</course>
  <speed>0.24</speed>
  <fix>3d</fix>
</trkpt>
<trkpt lat="-27.2744244" lon="151.2900802">
  <ele>357.96</ele>
  <time>2026-09-01T19:51:05Z</time>
  <course>319.12</course>
  <speed>0.16124515496597097</speed>
  <fix>3d</fix>
</trkpt>
<trkpt lat="-27.2744245" lon="151.2900798">
  <ele>358.14</ele>
  <time>2026-09-01T19:51:05Z</time>
  <course>80.29</course>
  <speed>0.24</speed>
  <fix>3d</fix>
</trkpt>
<trkpt lat="-27.2744244" lon="151.2900804">
  <ele>357.96</ele>
  <time>2026-09-01T19:51:05Z</time>
  <course>320.81</course>
  <speed>0.15033296378372907</speed>
  <fix>3d</fix>
</trkpt>
<trkpt lat="-27.2744245" lon="151.2900803">
  <ele>358.14</ele>
  <time>2026-09-01T19:51:05Z</time>
  <course>83.59</course>
  <speed>0.21</speed>
  <fix>3d</fix>
</trkpt>
<trkpt lat="-27.2744244" lon="151.2900806">
  <ele>357.96</ele>
  <time>2026-09-01T19:51:05Z</time>
  <course>322.35</course>
  <speed>0.13</speed>
  <fix>3d</fix>
</trkpt>
<trkpt lat="-27.2744245" lon="151.2900803">
  <ele>358.14</ele>
  <time>2026-09-01T19:51:05Z</time>
  <course>83.59</course>
  <speed>0.21</speed>
  <fix>3d</fix>
</trkpt>
<trkpt lat="-27.2744244" lon="151.2900807">
  <ele>357.96</ele>
  <time>2026-09-01T19:51:05Z</time>
  <course>323.57</course>
  <speed>0.11</speed>
  <fix>3d</fix>
</trkpt>
<trkpt lat="-27.2744245" lon="151.2900806">
  <ele>358.14</ele>
  <time>2026-09-01T19:51:05Z</time>
  <course>88.82</course>
  <speed>0.17</speed>
  <fix>3d</fix>
</trkpt>
<trkpt lat="-27.2744244" lon="151.2900808">
  <ele>357.96</ele>
  <time>2026-09-01T19:51:05Z</time>
  <course>324.38</course>
  <speed>0.1004987562112089</speed>
  <fix>3d</fix>
</trkpt>
<trkpt lat="-27.2744245" lon="151.2900806">
  <ele>358.14</ele>
  <time>2026-09-01T19:51:05Z</time>
  <course>88.82</course>
  <speed>0.17</speed>
  <fix>3d</fix>
</trkpt>
<trkpt lat="-27.2744244" lon="151.290081">
  <ele>357.97</ele>
  <time>2026-09-01T19:51:05Z</time>
  <course>324.72</course>
  <speed>0.0854400374531753</speed>
  <fix>3d</fix>
</trkpt>
<trkpt lat="-27.2744245" lon="151.290081">
  <ele>358.14</ele>
  <time>2026-09-01T19:51:05Z</time>
  <course>97.62</course>
  <speed>0.14</speed>
  <fix>3d</fix>
</trkpt>
<trkpt lat="-27.2744244" lon="151.2900811">
  <ele>357.97</ele>
  <time>2026-09-01T19:51:05Z</time>
  <course>324.66</course>
  <speed>0.08062257748298549</speed>
  <fix>3d</fix>
</trkpt>
<trkpt lat="-27.2744245" lon="151.290081">
  <ele>358.14</ele>
  <time>2026-09-01T19:51:05Z</time>
  <course>97.62</course>
  <speed>0.14</speed>
  <fix>3d</fix>
</trkpt>
<trkpt lat="-27.2744245" lon="151.2900811">
  <ele>357.97</ele>
  <time>2026-09-01T19:51:05Z</time>
  <course>324.28</course>
  <speed>0.07071067811865475</speed>
  <fix>3d</fix>
</trkpt>
<trkpt lat="-27.2744245" lon="151.2900813">
  <ele>358.14</ele>
  <time>2026-09-01T19:51:05Z</time>
  <course>112.06</course>
  <speed>0.11</speed>
  <fix>3d</fix>
</trkpt>
<trkpt lat="-27.2744245" lon="151.2900812">
  <ele>357.96</ele>
  <time>2026-09-01T19:51:05Z</time>
  <course>324.22</course>
  <speed>0.08062257748298549</speed>
  <fix>3d</fix>
</trkpt>
<trkpt lat="-27.2744245" lon="151.2900813">
  <ele>358.14</ele>
  <time>2026-09-01T19:51:05Z</time>
  <course>112.06</course>
  <speed>0.11</speed>
  <fix>3d</fix>
</trkpt>
<trkpt lat="-27.2744246" lon="151.2900813">
  <ele>357.96</ele>
  <time>2026-09-01T19:51:05Z</time>
  <course>325.43</course>
  <speed>0.0824621125123532</speed>
  <fix>3d</fix>
</trkpt>
<trkpt lat="-27.2744245" lon="151.2900814">
  <ele>358.14</ele>
  <time>2026-09-01T19:51:05Z</time>
  <course>132.58</course>
  <speed>0.1</speed>
  <fix>3d</fix>
</trkpt>
<trkpt lat="-27.2744247" lon="151.2900813">
  <ele>357.96</ele>
  <time>2026-09-01T19:51:05Z</time>
  <course>327.58</course>
  <speed>0.09055385138137417</speed>
  <fix>3d</fix>
</trkpt>
<trkpt lat="-27.2744245" lon="151.2900814">
  <ele>358.14</ele>
  <time>2026-09-01T19:51:05Z</time>
  <course>132.58</course>
  <speed>0.1</speed>
  <fix>3d</fix>
</trkpt>
<trkpt lat="-27.2744248" lon="151.2900813">
  <ele>357.95</ele>
  <time>2026-09-01T19:51:05Z</time>
  <course>330.31</course>
  <speed>0.11</speed>
  <fix>3d</fix>
</trkpt>
<trkpt lat="-27.2744247" lon="151.2900815">
  <ele>358.13</ele>
  <time>2026-09-01T19:51:05Z</time>
  <course>154.6</course>
  <speed>0.1</speed>
  <fix>3d</fix>
</trkpt>
<trkpt lat="-27.2744249" lon="151.2900814">
  <ele>357.95</ele>
  <time>2026-09-01T19:51:05Z</time>
  <course>333.4</course>
  <speed>0.12041594578792296</speed>
  <fix>3d</fix>
</trkpt>
<trkpt lat="-27.2744247" lon="151.2900815">
  <ele>358.13</ele>
  <time>2026-09-01T19:51:05Z</time>
  <course>154.6</course>
  <speed>0.1</speed>
  <fix>3d</fix>
</trkpt>
<trkpt lat="-27.274425" lon="151.2900813">
  <ele>357.95</ele>
  <time>2026-09-01T19:51:05Z</time>
  <course>336.69</course>
  <speed>0.13341664064126335</speed>
  <fix>3d</fix>
</trkpt>
<trkpt lat="-27.2744249" lon="151.2900815">
  <ele>358.13</ele>
  <time>2026-09-01T19:51:05Z</time>
  <course>172.47</course>
  <speed>0.12</speed>
  <fix>3d</fix>
</trkpt>
<trkpt lat="-27.2744252" lon="151.2900813">
  <ele>357.95</ele>
  <time>2026-09-01T19:51:05Z</time>
  <course>340.11</course>
  <speed>0.14560219778561037</speed>
  <fix>3d</fix>
</trkpt>
<trkpt lat="-27.2744249" lon="151.2900815">
  <ele>358.13</ele>
  <time>2026-09-01T19:51:05Z</time>
  <course>172.47</course>
  <speed>0.12</speed>
  <fix>3d</fix>
</trkpt>
<trkpt lat="-27.2744253" lon="151.2900813">
  <ele>357.95</ele>
  <time>2026-09-01T19:51:05Z</time>
  <course>343.6</course>
  <speed>0.1615549442140351</speed>
  <fix>3d</fix>
</trkpt>
<trkpt lat="-27.2744251" lon="151.2900815">
  <ele>358.13</ele>
  <time>2026-09-01T19:51:05Z</time>
  <course>185.12</course>
  <speed>0.14</speed>
  <fix>3d</fix>
</trkpt>
<trkpt lat="-27.2744255" lon="151.2900813">
  <ele>357.95</ele>
  <time>2026-09-01T19:51:05Z</time>
  <course>347.12</course>
  <speed>0.17464249196572978</speed>
  <fix>3d</fix>
</trkpt>
<trkpt lat="-27.2744251" lon="151.2900815">
  <ele>358.13</ele>
  <time>2026-09-01T19:51:05Z</time>
  <course>185.12</course>
  <speed>0.14</speed>
  <fix>3d</fix>
</trkpt>
<trkpt lat="-27.2744256" lon="151.2900813">
  <ele>357.95</ele>
  <time>2026-09-01T19:51:05Z</time>
  <course>350.36</course>
  <speed>0.19235384061671343</speed>
  <fix>3d</fix>
</trkpt>
<trkpt lat="-27.2744254" lon="151.2900815">
  <ele>358.13</ele>
  <time>2026-09-01T19:51:05Z</time>
  <course>193.83</course>
  <speed>0.17</speed>
  <fix>3d</fix>
</trkpt>
<trkpt lat="-27.2744258" lon="151.2900812">
  <ele>357.95</ele>
  <time>2026-09-01T19:51:05Z</time>
  <course>352.52</course>
  <speed>0.20591260281974003</speed>
  <fix>3d</fix>
</trkpt>
<trkpt lat="-27.2744254" lon="151.2900815">
  <ele>358.13</ele>
  <time>2026-09-01T19:51:05Z</time>
  <course>193.83</course>
  <speed>0.17</speed>
  <fix>3d</fix>
</trkpt>
<trkpt lat="-27.274426" lon="151.2900811">
  <ele>357.96</ele>
  <time>2026-09-01T19:51:05Z</time>
  <course>353.4</course>
  <speed>0.2195449840010015</speed>
  <fix>3d</fix>
</trkpt>
<trkpt lat="-27.2744257" lon="151.2900815">
  <ele>358.13</ele>
  <time>2026-09-01T19:51:05Z</time>
  <course>200.05</course>
  <speed>0.2</speed>
  <fix>3d</fix>
</trkpt>
<trkpt lat="-27.2744261" lon="151.290081">
  <ele>357.96</ele>
  <time>2026-09-01T19:51:05Z</time>
  <course>353.17</course>
  <speed>0.23853720883753127</speed>
  <fix>3d</fix>
</trkpt>
<trkpt lat="-27.2744257" lon="151.2900815">
  <ele>358.13</ele>
  <time>2026-09-01T19:51:05Z</time>
  <course>200.05</course>
  <speed>0.2</speed>
  <fix>3d</fix>
</trkpt>
<trkpt lat="-27.2744263" lon="151.2900809">
  <ele>357.96</ele>
  <time>2026-09-01T19:51:05Z</time>
  <course>352.12</course>
  <speed>0.25238858928247926</speed>
  <fix>3d</fix>
</trkpt>
<trkpt lat="-27.2744261" lon="151.2900814">
  <ele>358.13</ele>
  <time>2026-09-01T19:51:05Z</time>
  <course>204.83</course>
  <speed>0.23</speed>
  <fix>3d</fix>
</trkpt>
<trkpt lat="-27.2744265" lon="151.2900808">
  <ele>357.96</ele>
  <time>2026-09-01T19:51:05Z</time>
  <course>350.57</course>
  <speed>0.2580697580112788</speed>
  <fix>3d</fix>
</trkpt>
<trkpt lat="-27.2744261" lon="151.2900814">
  <ele>358.13</ele>
  <time>2026-09-01T19:51:05Z</time>
  <course>204.83</course>
  <speed>0.23</speed>
  <fix>3d</fix>
</trkpt>
<trkpt lat="-27.2744268" lon="151.2900806">
  <ele>357.96</ele>
  <time>2026-09-01T19:51:05Z</time>
  <course>348.76</course>
  <speed>0.2780287754891569</speed>
  <fix>3d</fix>
</trkpt>
<trkpt lat="-27.2744265" lon="151.2900811">
  <ele>358.13</ele>
  <time>2026-09-01T19:51:05Z</time>
  <course>208.77</course>
  <speed>0.25</speed>
  <fix>3d</fix>
</trkpt>
<trkpt lat="-27.274427" lon="151.2900805">
  <ele>357.96</ele>
  <time>2026-09-01T19:51:05Z</time>
  <course>346.97</course>
  <speed>0.2842534080710379</speed>
  <fix>3d</fix>
</trkpt>
<trkpt lat="-27.2744265" lon="151.2900811">
  <ele>358.13</ele>
  <time>2026-09-01T19:51:05Z</time>
  <course>208.77</course>
  <speed>0.25</speed>
  <fix>3d</fix>
</trkpt>
<trkpt lat="-27.2744272" lon="151.2900803">
  <ele>357.96</ele>
  <time>2026-09-01T19:51:05Z</time>
  <course>345.41</course>
  <speed>0.3047950130825634</speed>
  <fix>3d</fix>
</trkpt>
<trkpt lat="-27.2744269" lon="151.2900808">
  <ele>358.13</ele>
  <time>2026-09-01T19:51:05Z</time>
  <course>212.38</course>
  <speed>0.28</speed>
  <fix>3d</fix>
</trkpt>
<trkpt lat="-27.2744274" lon="151.2900801">
  <ele>357.96</ele>
  <time>2026-09-01T19:51:05Z</time>
  <course>344.27</course>
  <speed>0.31144823004794875</speed>
  <fix>3d</fix>
</trkpt>
<trkpt lat="-27.2744269" lon="151.2900808">
  <ele>358.13</ele>
  <time>2026-09-01T19:51:05Z</time>
  <course>212.38</course>
  <speed>0.28</speed>
  <fix>3d</fix>
</trkpt>
<trkpt lat="-27.2744276" lon="151.2900799">
  <ele>357.96</ele>
  <time>2026-09-01T19:51:05Z</time>
  <course>342.99</course>
  <speed>0.3252691193458119</speed>
  <fix>3d</fix>
</trkpt>
<trkpt lat="-27.2744273" lon="151.2900805">
  <ele>358.13</ele>
  <time>2026-09-01T19:51:05Z</time>
  <course>216.12</course>
  <speed>0.3</speed>
  <fix>3d</fix>
</trkpt>
<trkpt lat="-27.2744278" lon="151.2900797">
  <ele>357.96</ele>
  <time>2026-09-01T19:51:05Z</time>
  <course>341.0</course>
  <speed>0.33241540277189324</speed>
  <fix>3d</fix>
</trkpt>
<trkpt lat="-27.2744273" lon="151.2900805">
  <ele>358.13</ele>
  <time>2026-09-01T19:51:05Z</time>
  <course>216.12</course>
  <speed>0.3</speed>
  <fix>3d</fix>
</trkpt>
<trkpt lat="-27.2744281" lon="151.2900795">
  <ele>357.96</ele>
  <time>2026-09-01T19:51:05Z</time>
  <course>338.45</course>
  <speed>0.34713109915419565</speed>
  <fix>3d</fix>
</trkpt>
<trkpt lat="-27.2744278" lon="151.2900801">
  <ele>358.13</ele>
  <time>2026-09-01T19:51:05Z</time>
  <course>220.07</course>
  <speed>0.32</speed>
  <fix>3d</fix>
</trkpt>
<trkpt lat="-27.2744283" lon="151.2900792">
  <ele>357.96</ele>
  <time>2026-09-01T19:51:05Z</time>
  <course>335.62</course>
  <speed>0.36235341863986875</speed>
  <fix>3d</fix>
</trkpt>
<trkpt lat="-27.2744278" lon="151.2900801">
  <ele>358.13</ele>
  <time>2026-09-01T19:51:05Z</time>
  <course>220.07</course>
  <speed>0.32</speed>
  <fix>3d</fix>
</trkpt>
<trkpt lat="-27.2744285" lon="151.2900789">
  <ele>357.96</ele>
  <time>2026-09-01T19:51:05Z</time>
  <course>332.6</course>
  <speed>0.37013511046643494</speed>
  <fix>3d</fix>
</trkpt>
<trkpt lat="-27.2744282" lon="151.2900796">
  <ele>358.13</ele>
  <time>2026-09-01T19:51:05Z</time>
  <course>224.17</course>
  <speed>0.34</speed>
  <fix>3d</fix>
</trkpt>
<trkpt lat="-27.2744287" lon="151.2900787">
  <ele>357.95</ele>
  <time>2026-09-01T19:51:05Z</time>
  <course>329.48</course>
  <speed>0.388329756778952</speed>
  <fix>3d</fix>
</trkpt>
<trkpt lat="-27.2744282" lon="151.2900796">
  <ele>358.13</ele>
  <time>2026-09-01T19:51:05Z</time>
  <course>224.17</course>
  <speed>0.34</speed>
  <fix>3d</fix>
</trkpt>
<trkpt lat="-27.2744289" lon="151.2900783">
  <ele>357.95</ele>
  <time>2026-09-01T19:51:05Z</time>
  <course>326.3</course>
  <speed>0.4049691346263317</speed>
  <fix>3d</fix>
</trkpt>
<trkpt lat="-27.2744287" lon="151.2900791">
  <ele>358.13</ele>
  <time>2026-09-01T19:51:05Z</time>
  <course>228.42</course>
  <speed>0.37</speed>
  <fix>3d</fix>
</trkpt>
<trkpt lat="-27.2744291" lon="151.290078">
  <ele>357.95</ele>
  <time>2026-09-01T19:51:05Z</time>
  <course>323.08</course>
  <speed>0.4219004621945798</speed>
  <fix>3d</fix>
</trkpt>
<trkpt lat="-27.2744287" lon="151.2900791">
  <ele>358.13</ele>
  <time>2026-09-01T19:51:05Z</time>
  <course>228.42</course>
  <speed>0.37</speed>
  <fix>3d</fix>
</trkpt>
<trkpt lat="-27.2744294" lon="151.2900777">
  <ele>357.95</ele>
  <time>2026-09-01T19:51:05Z</time>
  <course>319.84</course>
  <speed>0.4410215414239989</speed>
  <fix>3d</fix>
</trkpt>
<trkpt lat="-27.2744291" lon="151.2900785">
  <ele>358.13</ele>
  <time>2026-09-01T19:51:05Z</time>
  <course>232.42</course>
  <speed>0.4</speed>
  <fix>3d</fix>
</trkpt>
<trkpt lat="-27.2744296" lon="151.2900773">
  <ele>357.95</ele>
  <time>2026-09-01T19:51:05Z</time>
  <course>316.59</course>
  <speed>0.45486261662176636</speed>
  <fix>3d</fix>
</trkpt>
<trkpt lat="-27.2744291" lon="151.2900785">
  <ele>358.13</ele>
  <time>2026-09-01T19:51:05Z</time>
  <course>232.42</course>
  <speed>0.4</speed>
  <fix>3d</fix>
</trkpt>
<trkpt lat="-27.2744298" lon="151.2900769">
  <ele>357.95</ele>
  <time>2026-09-01T19:51:05Z</time>
  <course>313.35</course>
  <speed>0.4687216658103186</speed>
  <fix>3d</fix>
</trkpt>
<trkpt lat="-27.2744296" lon="151.2900778">
  <ele>358.13</ele>
  <time>2026-09-01T19:51:05Z</time>
  <course>233.85</course>
  <speed>0.43</speed>
  <fix>3d</fix>
</trkpt>
<trkpt lat="-27.2744301" lon="151.2900766">
  <ele>357.95</ele>
  <time>2026-09-01T19:51:05Z</time>
  <course>310.45</course>
  <speed>0.4909175083453431</speed>
  <fix>3d</fix>
</trkpt>
<trkpt lat="-27.2744296" lon="151.2900778">
  <ele>358.13</ele>
  <time>2026-09-01T19:51:05Z</time>
  <course>233.85</course>
  <speed>0.43</speed>
  <fix>3d</fix>
</trkpt>
<trkpt lat="-27.2744304" lon="151.2900762">
  <ele>357.95</ele>
  <time>2026-09-01T19:51:05Z</time>
  <course>308.53</course>
  <speed>0.5047771785649585</speed>
  <fix>3d</fix>
</trkpt>
<trkpt lat="-27.27443" lon="151.2900771">
  <ele>358.13</ele>
  <time>2026-09-01T19:51:05Z</time>
  <course>233.31</course>
  <speed>0.47</speed>
  <fix>3d</fix>
</trkpt>
<trkpt lat="-27.2744306" lon="151.2900757">
  <ele>357.95</ele>
  <time>2026-09-01T19:51:05Z</time>
  <course>307.71</course>
  <speed>0.5186520991955976</speed>
  <fix>3d</fix>
</trkpt>
<trkpt lat="-27.27443" lon="151.2900771">
  <ele>358.13</ele>
  <time>2026-09-01T19:51:05Z</time>
  <course>233.31</course>
  <speed>0.47</speed>
  <fix>3d</fix>
</trkpt>
<trkpt lat="-27.2744309" lon="151.2900753">
  <ele>357.95</ele>
  <time>2026-09-01T19:51:05Z</time>
  <course>307.8</course>
  <speed>0.532541078227774</speed>
  <fix>3d</fix>
</trkpt>
<trkpt lat="-27.2744306" lon="151.2900763">
  <ele>358.13</ele>
  <time>2026-09-01T19:51:05Z</time>
  <course>232.98</course>
  <speed>0.5</speed>
  <fix>3d</fix>
</trkpt>
<trkpt lat="-27.2744312" lon="151.2900749">
  <ele>357.94</ele>
  <time>2026-09-01T19:51:05Z</time>
  <course>308.56</course>
  <speed>0.54644304369257</speed>
  <fix>3d</fix>
</trkpt>
<trkpt lat="-27.2744306" lon="151.2900763">
  <ele>358.13</ele>
  <time>2026-09-01T19:51:05Z</time>
  <course>232.98</course>
  <speed>0.5</speed>
  <fix>3d</fix>
</trkpt>
<trkpt lat="-27.2744315" lon="151.2900745">
  <ele>357.94</ele>
  <time>2026-09-01T19:51:05Z</time>
  <course>309.74</course>
  <speed>0.5547071299343466</speed>
  <fix>3d</fix>
</trkpt>
<trkpt lat="-27.2744312" lon="151.2900755">
  <ele>358.13</ele>
  <time>2026-09-01T19:51:05Z</time>
  <course>232.92</course>
  <speed>0.53</speed>
  <fix>3d</fix>
</trkpt>
<trkpt lat="-27.2744318" lon="151.290074">
  <ele>357.94</ele>
  <time>2026-09-01T19:51:05Z</time>
  <course>311.12</course>
  <speed>0.56859475903318</speed>
  <fix>3d</fix>
</trkpt>
<trkpt lat="-27.2744312" lon="151.2900755">
  <ele>358.13</ele>
  <time>2026-09-01T19:51:05Z</time>
  <course>232.92</course>
  <speed>0.53</speed>
  <fix>3d</fix>
</trkpt>
<trkpt lat="-27.2744321" lon="151.2900736">
  <ele>357.94</ele>
  <time>2026-09-01T19:51:05Z</time>
  <course>312.52</course>
  <speed>0.5824946351684279</speed>
  <fix>3d</fix>
</trkpt>
<trkpt lat="-27.2744318" lon="151.2900746">
  <ele>358.13</ele>
  <time>2026-09-01T19:51:05Z</time>
  <course>233.04</course>
  <speed>0.55</speed>
  <fix>3d</fix>
</trkpt>
<trkpt lat="-27.2744325" lon="151.2900731">
  <ele>357.94</ele>
  <time>2026-09-01T19:51:05Z</time>
  <course>313.76</course>
  <speed>0.5907622195096772</speed>
  <fix>3d</fix>
</trkpt>
<trkpt lat="-27.2744318" lon="151.2900746">
  <ele>358.13</ele>
  <time>2026-09-01T19:51:05Z</time>
  <course>233.04</course>
  <speed>0.55</speed>
  <fix>3d</fix>
</trkpt>
<trkpt lat="-27.2744328" lon="151.2900726">
  <ele>357.94</ele>
  <time>2026-09-01T19:51:05Z</time>
  <course>314.72</course>
  <speed>0.5964059020499378</speed>
  <fix>3d</fix>
</trkpt>
<trkpt lat="-27.2744324" lon="151.2900737">
  <ele>358.13</ele>
  <time>2026-09-01T19:51:05Z</time>
  <course>233.19</course>
  <speed>0.57</speed>
  <fix>3d</fix>
</trkpt>
<trkpt lat="-27.2744331" lon="151.2900721">
  <ele>357.95</ele>
  <time>2026-09-01T19:51:05Z</time>
  <course>315.33</course>
  <speed>0.604648658313239</speed>
  <fix>3d</fix>
</trkpt>
<trkpt lat="-27.2744324" lon="151.2900737">
  <ele>358.13</ele>
  <time>2026-09-01T19:51:05Z</time>
  <course>233.19</course>
  <speed>0.57</speed>
  <fix>3d</fix>
</trkpt>
<trkpt lat="-27.2744334" lon="151.2900716">
  <ele>357.95</ele>
  <time>2026-09-01T19:51:05Z</time>
  <course>315.58</course>
  <speed>0.6185466837676846</speed>
  <fix>3d</fix>
</trkpt>
<trkpt lat="-27.274433" lon="151.2900728">
  <ele>358.14</ele>
  <time>2026-09-01T19:51:05Z</time>
  <course>233.3</course>
  <speed>0.59</speed>
  <fix>3d</fix>
</trkpt>
<trkpt lat="-27.2744338" lon="151.2900712">
  <ele>357.95</ele>
  <time>2026-09-01T19:51:05Z</time>
  <course>315.5</course>
  <speed>0.6185466837676846</speed>
  <fix>3d</fix>
</trkpt>
<trkpt lat="-27.274433" lon="151.2900728">
  <ele>358.14</ele>
  <time>2026-09-01T19:51:05Z</time>
  <course>233.3</course>
  <speed>0.59</speed>
  <fix>3d</fix>
</trkpt>
<trkpt lat="-27.2744341" lon="151.2900707">
  <ele>357.95</ele>
  <time>2026-09-01T19:51:05Z</time>
  <course>315.22</course>
  <speed>0.6324555320336759</speed>
  <fix>3d</fix>
</trkpt>
<trkpt lat="-27.2744336" lon="151.2900718">
  <ele>358.14</ele>
  <time>2026-09-01T19:51:05Z</time>
  <course>233.34</course>
  <speed>0.61</speed>
  <fix>3d</fix>
</trkpt>
<trkpt lat="-27.2744344" lon="151.2900701">
  <ele>357.95</ele>
  <time>2026-09-01T19:51:05Z</time>
  <course>315.63</course>
  <speed>0.6324555320336759</speed>
  <fix>3d</fix>
</trkpt>
<trkpt lat="-27.2744336" lon="151.2900718">
  <ele>358.14</ele>
  <time>2026-09-01T19:51:05Z</time>
  <course>233.34</course>
  <speed>0.61</speed>
  <fix>3d</fix>
</trkpt>
<trkpt lat="-27.2744348" lon="151.2900696">
  <ele>357.95</ele>
  <time>2026-09-01T19:51:05Z</time>
  <course>317.07</course>
  <speed>0.6407027391856539</speed>
  <fix>3d</fix>
</trkpt>
<trkpt lat="-27.2744343" lon="151.2900708">
  <ele>358.14</ele>
  <time>2026-09-01T19:51:05Z</time>
  <course>233.31</course>
  <speed>0.62</speed>
  <fix>3d</fix>
</trkpt>
<trkpt lat="-27.2744351" lon="151.2900691">
  <ele>357.95</ele>
  <time>2026-09-01T19:51:05Z</time>
  <course>319.26</course>
  <speed>0.6463745044476924</speed>
  <fix>3d</fix>
</trkpt>
<trkpt lat="-27.2744349" lon="151.2900698">
  <ele>358.14</ele>
  <time>2026-09-01T19:51:05Z</time>
  <course>233.23</course>
  <speed>0.63</speed>
  <fix>3d</fix>
</trkpt>
<trkpt lat="-27.2744355" lon="151.2900686">
  <ele>357.95</ele>
  <time>2026-09-01T19:51:05Z</time>
  <course>321.75</course>
  <speed>0.6463745044476924</speed>
  <fix>3d</fix>
</trkpt>
<trkpt lat="-27.2744349" lon="151.2900698">
  <ele>358.14</ele>
  <time>2026-09-01T19:51:05Z</time>
  <course>233.23</course>
  <speed>0.63</speed>
  <fix>3d</fix>
</trkpt>
<trkpt lat="-27.2744358" lon="151.2900681">
  <ele>357.95</ele>
  <time>2026-09-01T19:51:05Z</time>
  <course>324.48</course>
  <speed>0.6573431371817918</speed>
  <fix>3d</fix>
</trkpt>
<trkpt lat="-27.2744356" lon="151.2900687">
  <ele>358.14</ele>
  <time>2026-09-01T19:51:05Z</time>
  <course>233.74</course>
  <speed>0.64</speed>
  <fix>3d</fix>
</trkpt>
<trkpt lat="-27.2744361" lon="151.2900675">
  <ele>357.95</ele>
  <time>2026-09-01T19:51:05Z</time>
  <course>327.3</course>
  <speed>0.6586349520030045</speed>
  <fix>3d</fix>
</trkpt>
<trkpt lat="-27.2744356" lon="151.2900687">
  <ele>358.14</ele>
  <time>2026-09-01T19:51:05Z</time>
  <course>233.74</course>
  <speed>0.64</speed>
  <fix>3d</fix>
</trkpt>
<trkpt lat="-27.2744364" lon="151.290067">
  <ele>357.95</ele>
  <time>2026-09-01T19:51:05Z</time>
  <course>330.24</course>
  <speed>0.6664833081180653</speed>
  <fix>3d</fix>
</trkpt>
<trkpt lat="-27.2744356" lon="151.2900687">
  <ele>358.14</ele>
  <time>2026-09-01T19:51:05Z</time>
  <course>233.74</course>
  <speed>0.64</speed>
  <fix>3d</fix>
</trkpt>
<trkpt lat="-27.2744367" lon="151.2900664">
  <ele>357.94</ele>
  <time>2026-09-01T19:51:05Z</time>
  <course>333.21</course>
  <speed>0.6711929677819934</speed>
  <fix>3d</fix>
</trkpt>
<trkpt lat="-27.2744363" lon="151.2900676">
  <ele>358.14</ele>
  <time>2026-09-01T19:51:05Z</time>
  <course>237.43</course>
  <speed>0.65</speed>
  <fix>3d</fix>
</trkpt>
<trkpt lat="-27.274437" lon="151.2900658">
  <ele>357.94</ele>
  <time>2026-09-01T19:51:05Z</time>
  <course>336.21</course>
  <speed>0.6777905281132217</speed>
  <fix>3d</fix>
</trkpt>
<trkpt lat="-27.2744363" lon="151.2900676">
  <ele>358.14</ele>
  <time>2026-09-01T19:51:05Z</time>
  <course>237.43</course>
  <speed>0.65</speed>
  <fix>3d</fix>
</trkpt>
<trkpt lat="-27.2744372" lon="151.2900651">
  <ele>357.94</ele>
  <time>2026-09-01T19:51:05Z</time>
  <course>339.11</course>
  <speed>0.6862215385719105</speed>
  <fix>3d</fix>
</trkpt>
<trkpt lat="-27.2744369" lon="151.2900665">
  <ele>358.14</ele>
  <time>2026-09-01T19:51:05Z</time>
  <course>243.54</course>
  <speed>0.66</speed>
  <fix>3d</fix>
</trkpt>
<trkpt lat="-27.2744374" lon="151.2900645">
  <ele>357.94</ele>
  <time>2026-09-01T19:51:05Z</time>
  <course>341.21</course>
  <speed>0.6896375859826667</speed>
  <fix>3d</fix>
</trkpt>
<trkpt lat="-27.2744369" lon="151.2900665">
  <ele>358.14</ele>
  <time>2026-09-01T19:51:05Z</time>
  <course>243.54</course>
  <speed>0.66</speed>
  <fix>3d</fix>
</trkpt>
<trkpt lat="-27.2744376" lon="151.2900638">
  <ele>357.94</ele>
  <time>2026-09-01T19:51:05Z</time>
  <course>342.14</course>
  <speed>0.686804193347711</speed>
  <fix>3d</fix>
</trkpt>
<trkpt lat="-27.2744373" lon="151.2900652">
  <ele>358.14</ele>
  <time>2026-09-01T19:51:05Z</time>
  <course>249.04</course>
  <speed>0.67</speed>
  <fix>3d</fix>
</trkpt>
<trkpt lat="-27.2744378" lon="151.2900632">
  <ele>357.94</ele>
  <time>2026-09-01T19:51:05Z</time>
  <course>342.03</course>
  <speed>0.686804193347711</speed>
  <fix>3d</fix>
</trkpt>
<trkpt lat="-27.2744373" lon="151.2900652">
  <ele>358.14</ele>
  <time>2026-09-01T19:51:05Z</time>
  <course>249.04</course>
  <speed>0.67</speed>
  <fix>3d</fix>
</trkpt>
<trkpt lat="-27.274438" lon="151.2900626">
  <ele>357.94</ele>
  <time>2026-09-01T19:51:05Z</time>
  <course>341.14</course>
  <speed>0.686804193347711</speed>
  <fix>3d</fix>
</trkpt>
<trkpt lat="-27.2744378" lon="151.2900639">
  <ele>358.14</ele>
  <time>2026-09-01T19:51:05Z</time>
  <course>252.08</course>
  <speed>0.67</speed>
  <fix>3d</fix>
</trkpt>
<trkpt lat="-27.2744381" lon="151.2900619">
  <ele>357.95</ele>
  <time>2026-09-01T19:51:05Z</time>
  <course>339.76</course>
  <speed>0.686804193347711</speed>
  <fix>3d</fix>
</trkpt>
<trkpt lat="-27.2744378" lon="151.2900639">
  <ele>358.14</ele>
  <time>2026-09-01T19:51:05Z</time>
  <course>252.08</course>
  <speed>0.67</speed>
  <fix>3d</fix>
</trkpt>
<trkpt lat="-27.2744383" lon="151.2900613">
  <ele>357.95</ele>
  <time>2026-09-01T19:51:05Z</time>
  <course>338.18</course>
  <speed>0.6772001181334805</speed>
  <fix>3d</fix>
</trkpt>
<trkpt lat="-27.2744381" lon="151.2900626">
  <ele>358.14</ele>
  <time>2026-09-01T19:51:05Z</time>
  <course>252.47</course>
  <speed>0.67</speed>
  <fix>3d</fix>
</trkpt>
<trkpt lat="-27.2744385" lon="151.2900606">
  <ele>357.95</ele>
  <time>2026-09-01T19:51:05Z</time>
  <course>336.65</course>
  <speed>0.6772001181334805</speed>
  <fix>3d</fix>
</trkpt>
<trkpt lat="-27.2744381" lon="151.2900626">
  <ele>358.14</ele>
  <time>2026-09-01T19:51:05Z</time>
  <course>252.47</course>
  <speed>0.67</speed>
  <fix>3d</fix>
</trkpt>
<trkpt lat="-27.2744387" lon="151.29006">
  <ele>357.95</ele>
  <time>2026-09-01T19:51:05Z</time>
  <course>335.35</course>
  <speed>0.6676076692189806</speed>
  <fix>3d</fix>
</trkpt>
<trkpt lat="-27.2744385" lon="151.2900613">
  <ele>358.14</ele>
  <time>2026-09-01T19:51:05Z</time>
  <course>252.24</course>
  <speed>0.66</speed>
  <fix>3d</fix>
</trkpt>
<trkpt lat="-27.2744389" lon="151.2900594">
  <ele>357.95</ele>
  <time>2026-09-01T19:51:05Z</time>
  <course>334.32</course>
  <speed>0.6676076692189806</speed>
  <fix>3d</fix>
</trkpt>
<trkpt lat="-27.2744385" lon="151.2900613">
  <ele>358.14</ele>
  <time>2026-09-01T19:51:05Z</time>
  <course>252.24</course>
  <speed>0.66</speed>
  <fix>3d</fix>
</trkpt>
<trkpt lat="-27.2744391" lon="151.2900587">
  <ele>357.95</ele>
  <time>2026-09-01T19:51:05Z</time>
  <course>332.46</course>
  <speed>0.6676076692189806</speed>
  <fix>3d</fix>
</trkpt>
<trkpt lat="-27.2744389" lon="151.2900601">
  <ele>358.15</ele>
  <time>2026-09-01T19:51:05Z</time>
  <course>252.07</course>
  <speed>0.65</speed>
  <fix>3d</fix>
</trkpt>
<trkpt lat="-27.2744393" lon="151.2900581">
  <ele>357.96</ele>
  <time>2026-09-01T19:51:05Z</time>
  <course>329.52</course>
  <speed>0.6580273550544841</speed>
  <fix>3d</fix>
</trkpt>
<trkpt lat="-27.2744389" lon="151.2900601">
  <ele>358.15</ele>
  <time>2026-09-01T19:51:05Z</time>
  <course>252.07</course>
  <speed>0.65</speed>
  <fix>3d</fix>
</trkpt>
<trkpt lat="-27.2744394" lon="151.2900575">
  <ele>357.96</ele>
  <time>2026-09-01T19:51:05Z</time>
  <course>325.94</course>
  <speed>0.6580273550544841</speed>
  <fix>3d</fix>
</trkpt>
<trkpt lat="-27.2744392" lon="151.2900588">
  <ele>358.15</ele>
  <time>2026-09-01T19:51:05Z</time>
  <course>251.88</course>
  <speed>0.64</speed>
  <fix>3d</fix>
</trkpt>
<trkpt lat="-27.2744396" lon="151.2900569">
  <ele>357.96</ele>
  <time>2026-09-01T19:51:05Z</time>
  <course>321.98</course>
  <speed>0.648459713474939</speed>
  <fix>3d</fix>
</trkpt>
<trkpt lat="-27.2744392" lon="151.2900588">
  <ele>358.15</ele>
  <time>2026-09-01T19:51:05Z</time>
  <course>251.88</course>
  <speed>0.64</speed>
  <fix>3d</fix>
</trkpt>
<trkpt lat="-27.2744398" lon="151.2900562">
  <ele>357.97</ele>
  <time>2026-09-01T19:51:05Z</time>
  <course>317.65</course>
  <speed>0.648459713474939</speed>
  <fix>3d</fix>
</trkpt>
<trkpt lat="-27.2744396" lon="151.2900576">
  <ele>358.16</ele>
  <time>2026-09-01T19:51:05Z</time>
  <course>251.63</course>
  <speed>0.63</speed>
  <fix>3d</fix>
</trkpt>
<trkpt lat="-27.27444" lon="151.2900556">
  <ele>357.97</ele>
  <time>2026-09-01T19:51:05Z</time>
  <course>313.37</course>
  <speed>0.6389053137985315</speed>
  <fix>3d</fix>
</trkpt>
<trkpt lat="-27.27444" lon="151.2900564">
  <ele>358.16</ele>
  <time>2026-09-01T19:51:05Z</time>
  <course>251.36</course>
  <speed>0.62</speed>
  <fix>3d</fix>
</trkpt>
<trkpt lat="-27.2744402" lon="151.290055">
  <ele>357.97</ele>
  <time>2026-09-01T19:51:05Z</time>
  <course>308.99</course>
  <speed>0.6389053137985315</speed>
  <fix>3d</fix>
</trkpt>
<trkpt lat="-27.27444" lon="151.2900564">
  <ele>358.16</ele>
  <time>2026-09-01T19:51:05Z</time>
  <course>251.36</course>
  <speed>0.62</speed>
  <fix>3d</fix>
</trkpt>
<trkpt lat="-27.2744404" lon="151.2900544">
  <ele>357.97</ele>
  <time>2026-09-01T19:51:05Z</time>
  <course>304.57</course>
  <speed>0.6293647591023825</speed>
  <fix>3d</fix>
</trkpt>
<trkpt lat="-27.2744403" lon="151.2900551">
  <ele>358.17</ele>
  <time>2026-09-01T19:51:05Z</time>
  <course>251.12</course>
  <speed>0.62</speed>
  <fix>3d</fix>
</trkpt>
<trkpt lat="-27.2744405" lon="151.2900539">
  <ele>357.97</ele>
  <time>2026-09-01T19:51:05Z</time>
  <course>300.39</course>
  <speed>0.6293647591023825</speed>
  <fix>3d</fix>
</trkpt>
<trkpt lat="-27.2744403" lon="151.2900551">
  <ele>358.17</ele>
  <time>2026-09-01T19:51:05Z</time>
  <course>251.12</course>
  <speed>0.62</speed>
  <fix>3d</fix>
</trkpt>
<trkpt lat="-27.2744407" lon="151.2900533">
  <ele>357.97</ele>
  <time>2026-09-01T19:51:05Z</time>
  <course>297.39</course>
  <speed>0.6293647591023825</speed>
  <fix>3d</fix>
</trkpt>
<trkpt lat="-27.2744407" lon="151.290054">
  <ele>358.17</ele>
  <time>2026-09-01T19:51:05Z</time>
  <course>250.93</course>
  <speed>0.61</speed>
  <fix>3d</fix>
</trkpt>
<trkpt lat="-27.2744409" lon="151.2900527">
  <ele>357.97</ele>
  <time>2026-09-01T19:51:05Z</time>
  <course>295.89</course>
  <speed>0.6198386886924694</speed>
  <fix>3d</fix>
</trkpt>
<trkpt lat="-27.2744407" lon="151.290054">
  <ele>358.17</ele>
  <time>2026-09-01T19:51:05Z</time>
  <course>250.93</course>
  <speed>0.61</speed>
  <fix>3d</fix>
</trkpt>
<trkpt lat="-27.2744411" lon="151.2900521">
  <ele>357.96</ele>
  <time>2026-09-01T19:51:05Z</time>
  <course>295.69</course>
  <speed>0.6103277807866851</speed>
  <fix>3d</fix>
</trkpt>
<trkpt lat="-27.274441" lon="151.2900528">
  <ele>358.17</ele>
  <time>2026-09-01T19:51:05Z</time>
  <course>250.71</course>
  <speed>0.6</speed>
  <fix>3d</fix>
</trkpt>
<trkpt lat="-27.2744413" lon="151.2900516">
  <ele>357.96</ele>
  <time>2026-09-01T19:51:05Z</time>
  <course>296.44</course>
  <speed>0.5977457653551382</speed>
  <fix>3d</fix>
</trkpt>
<trkpt lat="-27.274441" lon="151.2900528">
  <ele>358.17</ele>
  <time>2026-09-01T19:51:05Z</time>
  <course>250.71</course>
  <speed>0.6</speed>
  <fix>3d</fix>
</trkpt>
<trkpt lat="-27.2744414" lon="151.290051">
  <ele>357.96</ele>
  <time>2026-09-01T19:51:05Z</time>
  <course>297.77</course>
  <speed>0.5882176467941097</speed>
  <fix>3d</fix>
</trkpt>
<trkpt lat="-27.274441" lon="151.2900528">
  <ele>358.17</ele>
  <time>2026-09-01T19:51:05Z</time>
  <course>250.71</course>
  <speed>0.6</speed>
  <fix>3d</fix>
</trkpt>
<trkpt lat="-27.2744416" lon="151.2900505">
  <ele>357.95</ele>
  <time>2026-09-01T19:51:05Z</time>
  <course>299.49</course>
  <speed>0.5787054518492115</speed>
  <fix>3d</fix>
</trkpt>
<trkpt lat="-27.2744414" lon="151.2900517">
  <ele>358.16</ele>
  <time>2026-09-01T19:51:05Z</time>
  <course>250.4</course>
  <speed>0.58</speed>
  <fix>3d</fix>
</trkpt>
<trkpt lat="-27.2744418" lon="151.2900499">
  <ele>357.95</ele>
  <time>2026-09-01T19:51:05Z</time>
  <course>301.34</course>
  <speed>0.5692099788303083</speed>
  <fix>3d</fix>
</trkpt>
<trkpt lat="-27.2744414" lon="151.2900517">
  <ele>358.16</ele>
  <time>2026-09-01T19:51:05Z</time>
  <course>250.4</course>
  <speed>0.58</speed>
  <fix>3d</fix>
</trkpt>
<trkpt lat="-27.2744419" lon="151.2900494">
  <ele>357.95</ele>
  <time>2026-09-01T19:51:05Z</time>
  <course>303.13</course>
  <speed>0.5597320787662612</speed>
  <fix>3d</fix>
</trkpt>
<trkpt lat="-27.2744417" lon="151.2900506">
  <ele>358.16</ele>
  <time>2026-09-01T19:51:05Z</time>
  <course>249.98</course>
  <speed>0.56</speed>
  <fix>3d</fix>
</trkpt>
<trkpt lat="-27.2744421" lon="151.2900489">
  <ele>357.95</ele>
  <time>2026-09-01T19:51:05Z</time>
  <course>304.67</course>
  <speed>0.5502726596879042</speed>
  <fix>3d</fix>
</trkpt>
<trkpt lat="-27.2744417" lon="151.2900506">
  <ele>358.16</ele>
  <time>2026-09-01T19:51:05Z</time>
  <course>249.98</course>
  <speed>0.56</speed>
  <fix>3d</fix>
</trkpt>
<trkpt lat="-27.2744423" lon="151.2900484">
  <ele>357.95</ele>
  <time>2026-09-01T19:51:05Z</time>
  <course>305.84</course>
  <speed>0.5375872022286245</speed>
  <fix>3d</fix>
</trkpt>
<trkpt lat="-27.2744421" lon="151.2900496">
  <ele>358.16</ele>
  <time>2026-09-01T19:51:05Z</time>
  <course>249.5</course>
  <speed>0.54</speed>
  <fix>3d</fix>
</trkpt>
<trkpt lat="-27.2744424" lon="151.2900479">
  <ele>357.95</ele>
  <time>2026-09-01T19:51:05Z</time>
  <course>306.55</course>
  <speed>0.5186520991955976</speed>
  <fix>3d</fix>
</trkpt>
<trkpt lat="-27.2744421" lon="151.2900496">
  <ele>358.16</ele>
  <time>2026-09-01T19:51:05Z</time>
  <course>249.5</course>
  <speed>0.54</speed>
  <fix>3d</fix>
</trkpt>
<trkpt lat="-27.2744426" lon="151.2900475">
  <ele>357.95</ele>
  <time>2026-09-01T19:51:05Z</time>
  <course>306.8</course>
  <speed>0.5092150822589606</speed>
  <fix>3d</fix>
</trkpt>
<trkpt lat="-27.2744424" lon="151.2900486">
  <ele>358.16</ele>
  <time>2026-09-01T19:51:05Z</time>
  <course>249.02</course>
  <speed>0.51</speed>
  <fix>3d</fix>
</trkpt>
<trkpt lat="-27.2744428" lon="151.290047">
  <ele>357.95</ele>
  <time>2026-09-01T19:51:05Z</time>
  <course>306.66</course>
  <speed>0.48703182647543686</speed>
  <fix>3d</fix>
</trkpt>
<trkpt lat="-27.2744424" lon="151.2900486">
  <ele>358.16</ele>
  <time>2026-09-01T19:51:05Z</time>
  <course>249.02</course>
  <speed>0.51</speed>
  <fix>3d</fix>
</trkpt>
<trkpt lat="-27.2744429" lon="151.2900466">
  <ele>357.96</ele>
  <time>2026-09-01T19:51:05Z</time>
  <course>306.27</course>
  <speed>0.4775981574503821</speed>
  <fix>3d</fix>
</trkpt>
<trkpt lat="-27.2744427" lon="151.2900476">
  <ele>358.16</ele>
  <time>2026-09-01T19:51:05Z</time>
  <course>248.57</course>
  <speed>0.48</speed>
  <fix>3d</fix>
</trkpt>
<trkpt lat="-27.2744431" lon="151.2900462">
  <ele>357.96</ele>
  <time>2026-09-01T19:51:05Z</time>
  <course>306.83</course>
  <speed>0.468187996428785</speed>
  <fix>3d</fix>
</trkpt>
<trkpt lat="-27.2744427" lon="151.2900476">
  <ele>358.16</ele>
  <time>2026-09-01T19:51:05Z</time>
  <course>248.57</course>
  <speed>0.48</speed>
  <fix>3d</fix>
</trkpt>
<trkpt lat="-27.2744432" lon="151.2900457">
  <ele>357.96</ele>
  <time>2026-09-01T19:51:05Z</time>
  <course>309.08</course>
  <speed>0.4459820624195552</speed>
  <fix>3d</fix>
</trkpt>
<trkpt lat="-27.274443" lon="151.2900467">
  <ele>358.16</ele>
  <time>2026-09-01T19:51:05Z</time>
  <course>248.15</course>
  <speed>0.46</speed>
  <fix>3d</fix>
</trkpt>
<trkpt lat="-27.2744434" lon="151.2900453">
  <ele>357.96</ele>
  <time>2026-09-01T19:51:05Z</time>
  <course>312.33</course>
  <speed>0.43657759905886145</speed>
  <fix>3d</fix>
</trkpt>
<trkpt lat="-27.2744433" lon="151.2900459">
  <ele>358.17</ele>
  <time>2026-09-01T19:51:05Z</time>
  <course>247.69</course>
  <speed>0.43</speed>
  <fix>3d</fix>
</trkpt>
<trkpt lat="-27.2744435" lon="151.290045">
  <ele>357.97</ele>
  <time>2026-09-01T19:51:05Z</time>
  <course>316.18</course>
  <speed>0.4143669871020132</speed>
  <fix>3d</fix>
</trkpt>
<trkpt lat="-27.2744433" lon="151.2900459">
  <ele>358.17</ele>
  <time>2026-09-01T19:51:05Z</time>
  <course>247.69</course>
  <speed>0.43</speed>
  <fix>3d</fix>
</trkpt>
<trkpt lat="-27.2744436" lon="151.2900446">
  <ele>357.97</ele>
  <time>2026-09-01T19:51:05Z</time>
  <course>320.44</course>
  <speed>0.4049691346263317</speed>
  <fix>3d</fix>
</trkpt>
<trkpt lat="-27.2744436" lon="151.2900451">
  <ele>358.17</ele>
  <time>2026-09-01T19:51:05Z</time>
  <course>247.14</course>
  <speed>0.4</speed>
  <fix>3d</fix>
</trkpt>
<trkpt lat="-27.2744438" lon="151.2900442">
  <ele>357.97</ele>
  <time>2026-09-01T19:51:05Z</time>
  <course>324.93</course>
  <speed>0.38626415831655936</speed>
  <fix>3d</fix>
</trkpt>
<trkpt lat="-27.2744436" lon="151.2900451">
  <ele>358.17</ele>
  <time>2026-09-01T19:51:05Z</time>
  <course>247.14</course>
  <speed>0.4</speed>
  <fix>3d</fix>
</trkpt>
<trkpt lat="-27.2744439" lon="151.2900439">
  <ele>357.97</ele>
  <time>2026-09-01T19:51:05Z</time>
  <course>329.55</course>
  <speed>0.37336309405188944</speed>
  <fix>3d</fix>
</trkpt>
<trkpt lat="-27.2744439" lon="151.2900444">
  <ele>358.17</ele>
  <time>2026-09-01T19:51:05Z</time>
  <course>246.48</course>
  <speed>0.37</speed>
  <fix>3d</fix>
</trkpt>
<trkpt lat="-27.274444" lon="151.2900436">
  <ele>357.97</ele>
  <time>2026-09-01T19:51:05Z</time>
  <course>334.3</course>
  <speed>0.354682957019364</speed>
  <fix>3d</fix>
</trkpt>
<trkpt lat="-27.2744439" lon="151.2900444">
  <ele>358.17</ele>
  <time>2026-09-01T19:51:05Z</time>
  <course>246.48</course>
  <speed>0.37</speed>
  <fix>3d</fix>
</trkpt>
<trkpt lat="-27.2744442" lon="151.2900433">
  <ele>357.97</ele>
  <time>2026-09-01T19:51:05Z</time>
  <course>339.02</course>
  <speed>0.3417601498127012</speed>
  <fix>3d</fix>
</trkpt>
<trkpt lat="-27.2744442" lon="151.2900437">
  <ele>358.17</ele>
  <time>2026-09-01T19:51:05Z</time>
  <course>245.99</course>
  <speed>0.34</speed>
  <fix>3d</fix>
</trkpt>
<trkpt lat="-27.2744443" lon="151.290043">
  <ele>357.97</ele>
  <time>2026-09-01T19:51:05Z</time>
  <course>342.97</course>
  <speed>0.3289376840679705</speed>
  <fix>3d</fix>
</trkpt>
<trkpt lat="-27.2744442" lon="151.2900437">
  <ele>358.17</ele>
  <time>2026-09-01T19:51:05Z</time>
  <course>245.99</course>
  <speed>0.34</speed>
  <fix>3d</fix>
</trkpt>
<trkpt lat="-27.2744444" lon="151.2900427">
  <ele>357.97</ele>
  <time>2026-09-01T19:51:06Z</time>
  <course>345.33</course>
  <speed>0.30364452901377953</speed>
  <fix>3d</fix>
</trkpt>
<trkpt lat="-27.2744444" lon="151.2900431">
  <ele>358.16</ele>
  <time>2026-09-01T19:51:06Z</time>
  <course>247.03</course>
  <speed>0.3</speed>
  <fix>3d</fix>
</trkpt>
<trkpt lat="-27.2744445" lon="151.2900424">
  <ele>357.97</ele>
  <time>2026-09-01T19:51:06Z</time>
  <course>346.11</course>
  <speed>0.29120439557122074</speed>
  <fix>3d</fix>
</trkpt>
<trkpt lat="-27.2744444" lon="151.2900431">
  <ele>358.16</ele>
  <time>2026-09-01T19:51:06Z</time>
  <course>247.03</course>
  <speed>0.3</speed>
  <fix>3d</fix>
</trkpt>
<trkpt lat="-27.2744445" lon="151.2900422">
  <ele>357.97</ele>
  <time>2026-09-01T19:51:06Z</time>
  <course>345.63</course>
  <speed>0.2692582403567252</speed>
  <fix>3d</fix>
</trkpt>
<trkpt lat="-27.2744446" lon="151.2900426">
  <ele>358.16</ele>
  <time>2026-09-01T19:51:06Z</time>
  <course>249.45</course>
  <speed>0.27</speed>
  <fix>3d</fix>
</trkpt>
<trkpt lat="-27.2744446" lon="151.2900419">
  <ele>357.97</ele>
  <time>2026-09-01T19:51:06Z</time>
  <course>344.26</course>
  <speed>0.2570992026436488</speed>
  <fix>3d</fix>
</trkpt>
<trkpt lat="-27.2744446" lon="151.2900426">
  <ele>358.16</ele>
  <time>2026-09-01T19:51:06Z</time>
  <course>249.45</course>
  <speed>0.27</speed>
  <fix>3d</fix>
</trkpt>
<trkpt lat="-27.2744447" lon="151.2900417">
  <ele>357.97</ele>
  <time>2026-09-01T19:51:06Z</time>
  <course>342.34</course>
  <speed>0.2353720459187964</speed>
  <fix>3d</fix>
</trkpt>
<trkpt lat="-27.2744447" lon="151.2900421">
  <ele>358.16</ele>
  <time>2026-09-01T19:51:06Z</time>
  <course>251.42</course>
  <speed>0.23</speed>
  <fix>3d</fix>
</trkpt>
<trkpt lat="-27.2744447" lon="151.2900415">
  <ele>357.97</ele>
  <time>2026-09-01T19:51:06Z</time>
  <course>340.16</course>
  <speed>0.215870331449229</speed>
  <fix>3d</fix>
</trkpt>
<trkpt lat="-27.2744447" lon="151.2900421">
  <ele>358.16</ele>
  <time>2026-09-01T19:51:06Z</time>
  <course>251.42</course>
  <speed>0.23</speed>
  <fix>3d</fix>
</trkpt>
<trkpt lat="-27.2744448" lon="151.2900413">
  <ele>357.97</ele>
  <time>2026-09-01T19:51:06Z</time>
  <course>337.97</course>
  <speed>0.2039607805437114</speed>
  <fix>3d</fix>
</trkpt>
<trkpt lat="-27.2744449" lon="151.2900417">
  <ele>358.16</ele>
  <time>2026-09-01T19:51:06Z</time>
  <course>252.55</course>
  <speed>0.19</speed>
  <fix>3d</fix>
</trkpt>
<trkpt lat="-27.2744448" lon="151.2900412">
  <ele>357.97</ele>
  <time>2026-09-01T19:51:06Z</time>
  <course>336.01</course>
  <speed>0.1824828759089466</speed>
  <fix>3d</fix>
</trkpt>
<trkpt lat="-27.2744449" lon="151.2900417">
  <ele>358.16</ele>
  <time>2026-09-01T19:51:06Z</time>
  <course>252.55</course>
  <speed>0.19</speed>
  <fix>3d</fix>
</trkpt>
<trkpt lat="-27.2744449" lon="151.290041">
  <ele>357.96</ele>
  <time>2026-09-01T19:51:06Z</time>
  <course>334.52</course>
  <speed>0.16278820596099705</speed>
  <fix>3d</fix>
</trkpt>
<trkpt lat="-27.2744449" lon="151.2900417">
  <ele>358.16</ele>
  <time>2026-09-01T19:51:06Z</time>
  <course>252.55</course>
  <speed>0.19</speed>
  <fix>3d</fix>
</trkpt>
<trkpt lat="-27.2744449" lon="151.2900409">
  <ele>357.96</ele>
  <time>2026-09-01T19:51:06Z</time>
  <course>333.31</course>
  <speed>0.1414213562373095</speed>
  <fix>3d</fix>
</trkpt>
<trkpt lat="-27.274445" lon="151.2900413">
  <ele>358.15</ele>
  <time>2026-09-01T19:51:06Z</time>
  <course>253.12</course>
  <speed>0.15</speed>
  <fix>3d</fix>
</trkpt>
<trkpt lat="-27.2744449" lon="151.2900408">
  <ele>357.96</ele>
  <time>2026-09-01T19:51:06Z</time>
  <course>331.25</course>
  <speed>0.12041594578792296</speed>
  <fix>3d</fix>
</trkpt>
<trkpt lat="-27.274445" lon="151.2900413">
  <ele>358.15</ele>
  <time>2026-09-01T19:51:06Z</time>
  <course>253.12</course>
  <speed>0.15</speed>
  <fix>3d</fix>
</trkpt>
<trkpt lat="-27.274445" lon="151.2900407">
  <ele>357.96</ele>
  <time>2026-09-01T19:51:06Z</time>
  <course>328.26</course>
  <speed>0.1004987562112089</speed>
  <fix>3d</fix>
</trkpt>
<trkpt lat="-27.274445" lon="151.2900411">
  <ele>358.15</ele>
  <time>2026-09-01T19:51:06Z</time>
  <course>253.32</course>
  <speed>0.11</speed>
  <fix>3d</fix>
</trkpt>
<trkpt lat="-27.274445" lon="151.2900406">
  <ele>357.96</ele>
  <time>2026-09-01T19:51:06Z</time>
  <course>324.56</course>
  <speed>0.08</speed>
  <fix>3d</fix>
</trkpt>
<trkpt lat="-27.2744451" lon="151.2900409">
  <ele>358.14</ele>
  <time>2026-09-01T19:51:06Z</time>
  <course>253.17</course>
  <speed>0.07</speed>
  <fix>3d</fix>
</trkpt>
<trkpt lat="-27.274445" lon="151.2900406">
  <ele>357.96</ele>
  <time>2026-09-01T19:51:06Z</time>
  <course>320.65</course>
  <speed>0.06</speed>
  <fix>3d</fix>
</trkpt>
<trkpt lat="-27.2744451" lon="151.2900409">
  <ele>358.14</ele>
  <time>2026-09-01T19:51:06Z</time>
  <course>253.17</course>
  <speed>0.07</speed>
  <fix>3d</fix>
</trkpt>
<trkpt lat="-27.274445" lon="151.2900405">
  <ele>357.95</ele>
  <time>2026-09-01T19:51:06Z</time>
  <course>316.48</course>
  <speed>0.04</speed>
  <fix>3d</fix>
</trkpt>
<trkpt lat="-27.2744451" lon="151.2900407">
  <ele>358.14</ele>
  <time>2026-09-01T19:51:06Z</time>
  <course>252.64</course>
  <speed>0.03</speed>
  <fix>3d</fix>
</trkpt>
<trkpt lat="-27.274445" lon="151.2900405">
  <ele>357.95</ele>
  <time>2026-09-01T19:51:06Z</time>
  <course>312.18</course>
  <speed>0.03</speed>
  <fix>3d</fix>
</trkpt>
<trkpt lat="-27.2744451" lon="151.2900407">
  <ele>358.14</ele>
  <time>2026-09-01T19:51:06Z</time>
  <course>252.64</course>
  <speed>0.03</speed>
  <fix>3d</fix>
</trkpt>
<trkpt lat="-27.274445" lon="151.2900405">
  <ele>357.95</ele>
  <time>2026-09-01T19:51:06Z</time>
  <course>307.8</course>
  <speed>0.01414213562373095</speed>
  <fix>3d</fix>
</trkpt>
<trkpt lat="-27.2744452" lon="151.2900407">
  <ele>358.14</ele>
  <time>2026-09-01T19:51:06Z</time>
  <course>181.27</course>
  <speed>0.0</speed>
  <fix>3d</fix>
</trkpt>
<trkpt lat="-27.274445" lon="151.2900405">
  <ele>357.95</ele>
  <time>2026-09-01T19:51:06Z</time>
  <course>303.36</course>
  <speed>0.01</speed>
  <fix>3d</fix>
</trkpt>
<trkpt lat="-27.2744452" lon="151.2900407">
  <ele>358.14</ele>
  <time>2026-09-01T19:51:06Z</time>
  <course>181.27</course>
  <speed>0.0</speed>
  <fix>3d</fix>
</trkpt>
<trkpt lat="-27.274445" lon="151.2900406">
  <ele>357.95</ele>
  <time>2026-09-01T19:51:06Z</time>
  <course>299.2</course>
  <speed>0.0282842712474619</speed>
  <fix>3d</fix>
</trkpt>
<trkpt lat="-27.2744451" lon="151.2900407">
  <ele>358.14</ele>
  <time>2026-09-01T19:51:06Z</time>
  <course>74.2</course>
  <speed>0.03</speed>
  <fix>3d</fix>
</trkpt>
<trkpt lat="-27.274445" lon="151.2900407">
  <ele>357.95</ele>
  <time>2026-09-01T19:51:06Z</time>
  <course>296.31</course>
  <speed>0.044721359549995794</speed>
  <fix>3d</fix>
</trkpt>
<trkpt lat="-27.2744451" lon="151.2900407">
  <ele>358.14</ele>
  <time>2026-09-01T19:51:06Z</time>
  <course>74.2</course>
  <speed>0.03</speed>
  <fix>3d</fix>
</trkpt>
<trkpt lat="-27.2744449" lon="151.2900407">
  <ele>357.95</ele>
  <time>2026-09-01T19:51:06Z</time>
  <course>294.9</course>
  <speed>0.0670820393249937</speed>
  <fix>3d</fix>
</trkpt>
<trkpt lat="-27.2744451" lon="151.2900409">
  <ele>358.14</ele>
  <time>2026-09-01T19:51:06Z</time>
  <course>73.87</course>
  <speed>0.07</speed>
  <fix>3d</fix>
</trkpt>
<trkpt lat="-27.274445" lon="151.2900408">
  <ele>357.95</ele>
  <time>2026-09-01T19:51:06Z</time>
  <course>294.79</course>
  <speed>0.0854400374531753</speed>
  <fix>3d</fix>
</trkpt>
<trkpt lat="-27.2744451" lon="151.2900409">
  <ele>358.14</ele>
  <time>2026-09-01T19:51:06Z</time>
  <course>73.87</course>
  <speed>0.07</speed>
  <fix>3d</fix>
</trkpt>
<trkpt lat="-27.274445" lon="151.2900408">
  <ele>357.96</ele>
  <time>2026-09-01T19:51:06Z</time>
  <course>295.66</course>
  <speed>0.09848857801796104</speed>
  <fix>3d</fix>
</trkpt>
<trkpt lat="-27.2744451" lon="151.290041">
  <ele>358.14</ele>
  <time>2026-09-01T19:51:06Z</time>
  <course>74.47</course>
  <speed>0.11</speed>
  <fix>3d</fix>
</trkpt>
<trkpt lat="-27.274445" lon="151.290041">
  <ele>357.96</ele>
  <time>2026-09-01T19:51:06Z</time>
  <course>297.17</course>
  <speed>0.11704699910719625</speed>
  <fix>3d</fix>
</trkpt>
<trkpt lat="-27.2744451" lon="151.290041">
  <ele>358.14</ele>
  <time>2026-09-01T19:51:06Z</time>
  <course>74.47</course>
  <speed>0.11</speed>
  <fix>3d</fix>
</trkpt>
<trkpt lat="-27.2744449" lon="151.2900411">
  <ele>357.96</ele>
  <time>2026-09-01T19:51:06Z</time>
  <course>299.06</course>
  <speed>0.13601470508735444</speed>
  <fix>3d</fix>
</trkpt>
<trkpt lat="-27.2744451" lon="151.2900412">
  <ele>358.14</ele>
  <time>2026-09-01T19:51:06Z</time>
  <course>75.2</course>
  <speed>0.15</speed>
  <fix>3d</fix>
</trkpt>
<trkpt lat="-27.2744449" lon="151.2900413">
  <ele>357.96</ele>
  <time>2026-09-01T19:51:06Z</time>
  <course>301.06</course>
  <speed>0.15811388300841897</speed>
  <fix>3d</fix>
</trkpt>
<trkpt lat="-27.2744451" lon="151.2900412">
  <ele>358.14</ele>
  <time>2026-09-01T19:51:06Z</time>
  <course>75.2</course>
  <speed>0.15</speed>
  <fix>3d</fix>
</trkpt>
<trkpt lat="-27.2744449" lon="151.2900415">
  <ele>357.96</ele>
  <time>2026-09-01T19:51:06Z</time>
  <course>302.99</course>
  <speed>0.1676305461424021</speed>
  <fix>3d</fix>
</trkpt>
<trkpt lat="-27.274445" lon="151.2900416">
  <ele>358.14</ele>
  <time>2026-09-01T19:51:06Z</time>
  <course>75.38</course>
  <speed>0.18</speed>
  <fix>3d</fix>
</trkpt>
<trkpt lat="-27.2744448" lon="151.2900417">
  <ele>357.97</ele>
  <time>2026-09-01T19:51:06Z</time>
  <course>304.63</course>
  <speed>0.18973665961010278</speed>
  <fix>3d</fix>
</trkpt>
<trkpt lat="-27.274445" lon="151.2900416">
  <ele>358.14</ele>
  <time>2026-09-01T19:51:06Z</time>
  <course>75.38</course>
  <speed>0.18</speed>
  <fix>3d</fix>
</trkpt>
<trkpt lat="-27.2744448" lon="151.2900419">
  <ele>357.97</ele>
  <time>2026-09-01T19:51:06Z</time>
  <course>305.81</course>
  <speed>0.19924858845171275</speed>
  <fix>3d</fix>
</trkpt>
<trkpt lat="-27.2744449" lon="151.2900419">
  <ele>358.14</ele>
  <time>2026-09-01T19:51:06Z</time>
  <course>74.62</course>
  <speed>0.22</speed>
  <fix>3d</fix>
</trkpt>
<trkpt lat="-27.2744447" lon="151.2900421">
  <ele>357.97</ele>
  <time>2026-09-01T19:51:06Z</time>
  <course>306.48</course>
  <speed>0.21189620100417092</speed>
  <fix>3d</fix>
</trkpt>
<trkpt lat="-27.2744449" lon="151.2900419">
  <ele>358.14</ele>
  <time>2026-09-01T19:51:06Z</time>
  <course>74.62</course>
  <speed>0.22</speed>
  <fix>3d</fix>
</trkpt>
<trkpt lat="-27.2744447" lon="151.2900424">
  <ele>357.96</ele>
  <time>2026-09-01T19:51:06Z</time>
  <course>306.64</course>
  <speed>0.22472205054244232</speed>
  <fix>3d</fix>
</trkpt>
<trkpt lat="-27.2744448" lon="151.2900424">
  <ele>358.14</ele>
  <time>2026-09-01T19:51:06Z</time>
  <course>72.89</course>
  <speed>0.25</speed>
  <fix>3d</fix>
</trkpt>
<trkpt lat="-27.2744446" lon="151.2900426">
  <ele>357.96</ele>
  <time>2026-09-01T19:51:06Z</time>
  <course>306.38</course>
  <speed>0.23769728648009425</speed>
  <fix>3d</fix>
</trkpt>
<trkpt lat="-27.2744448" lon="151.2900424">
  <ele>358.14</ele>
  <time>2026-09-01T19:51:06Z</time>
  <course>72.89</course>
  <speed>0.25</speed>
  <fix>3d</fix>
</trkpt>
<trkpt lat="-27.2744445" lon="151.2900429">
  <ele>357.96</ele>
  <time>2026-09-01T19:51:06Z</time>
  <course>305.9</course>
  <speed>0.25079872407968906</speed>
  <fix>3d</fix>
</trkpt>
<trkpt lat="-27.2744446" lon="151.2900429">
  <ele>358.13</ele>
  <time>2026-09-01T19:51:06Z</time>
  <course>70.53</course>
  <speed>0.27</speed>
  <fix>3d</fix>
</trkpt>
<trkpt lat="-27.2744444" lon="151.2900432">
  <ele>357.96</ele>
  <time>2026-09-01T19:51:06Z</time>
  <course>306.59</course>
  <speed>0.2640075756488817</speed>
  <fix>3d</fix>
</trkpt>
<trkpt lat="-27.2744446" lon="151.2900429">
  <ele>358.13</ele>
  <time>2026-09-01T19:51:06Z</time>
  <course>70.53</course>
  <speed>0.27</speed>
  <fix>3d</fix>
</trkpt>
<trkpt lat="-27.2744443" lon="151.2900434">
  <ele>357.95</ele>
  <time>2026-09-01T19:51:06Z</time>
  <course>308.85</course>
  <speed>0.27730849247724093</speed>
  <fix>3d</fix>
</trkpt>
<trkpt lat="-27.2744445" lon="151.2900435">
  <ele>358.13</ele>
  <time>2026-09-01T19:51:06Z</time>
  <course>67.84</course>
  <speed>0.3</speed>
  <fix>3d</fix>
</trkpt>
<trkpt lat="-27.2744442" lon="151.2900437">
  <ele>357.95</ele>
  <time>2026-09-01T19:51:06Z</time>
  <course>312.15</course>
  <speed>0.2906888370749727</speed>
  <fix>3d</fix>
</trkpt>
<trkpt lat="-27.2744445" lon="151.2900435">
  <ele>358.13</ele>
  <time>2026-09-01T19:51:06Z</time>
  <course>67.84</course>
  <speed>0.3</speed>
  <fix>3d</fix>
</trkpt>
<trkpt lat="-27.2744441" lon="151.290044">
  <ele>357.95</ele>
  <time>2026-09-01T19:51:06Z</time>
  <course>316.06</course>
  <speed>0.30886890422961</speed>
  <fix>3d</fix>
</trkpt>
<trkpt lat="-27.2744442" lon="151.2900441">
  <ele>358.13</ele>
  <time>2026-09-01T19:51:06Z</time>
  <course>64.83</course>
  <speed>0.32</speed>
  <fix>3d</fix>
</trkpt>
<trkpt lat="-27.2744439" lon="151.2900443">
  <ele>357.95</ele>
  <time>2026-09-01T19:51:06Z</time>
  <course>320.34</course>
  <speed>0.31906112267087633</speed>
  <fix>3d</fix>
</trkpt>
<trkpt lat="-27.2744442" lon="151.2900441">
  <ele>358.13</ele>
  <time>2026-09-01T19:51:06Z</time>
  <course>64.83</course>
  <speed>0.32</speed>
  <fix>3d</fix>
</trkpt>
<trkpt lat="-27.2744438" lon="151.2900447">
  <ele>357.95</ele>
  <time>2026-09-01T19:51:06Z</time>
  <course>324.87</course>
  <speed>0.3328663395418648</speed>
  <fix>3d</fix>
</trkpt>
<trkpt lat="-27.2744439" lon="151.2900447">
  <ele>358.13</ele>
  <time>2026-09-01T19:51:06Z</time>
  <course>61.41</course>
  <speed>0.35</speed>
  <fix>3d</fix>
</trkpt>
<trkpt lat="-27.2744436" lon="151.290045">
  <ele>357.95</ele>
  <time>2026-09-01T19:51:06Z</time>
  <course>329.49</course>
  <speed>0.3522782990761707</speed>
  <fix>3d</fix>
</trkpt>
<trkpt lat="-27.2744439" lon="151.2900447">
  <ele>358.13</ele>
  <time>2026-09-01T19:51:06Z</time>
  <course>61.41</course>
  <speed>0.35</speed>
  <fix>3d</fix>
</trkpt>
<trkpt lat="-27.2744434" lon="151.2900453">
  <ele>357.95</ele>
  <time>2026-09-01T19:51:06Z</time>
  <course>334.17</course>
  <speed>0.3689173349139343</speed>
  <fix>3d</fix>
</trkpt>
<trkpt lat="-27.2744436" lon="151.2900453">
  <ele>358.13</ele>
  <time>2026-09-01T19:51:06Z</time>
  <course>59.56</course>
  <speed>0.38</speed>
  <fix>3d</fix>
</trkpt>
<trkpt lat="-27.2744433" lon="151.2900457">
  <ele>357.95</ele>
  <time>2026-09-01T19:51:06Z</time>
  <course>338.85</course>
  <speed>0.3911521443121589</speed>
  <fix>3d</fix>
</trkpt>
<trkpt lat="-27.2744436" lon="151.2900453">
  <ele>358.13</ele>
  <time>2026-09-01T19:51:06Z</time>
  <course>59.56</course>
  <speed>0.38</speed>
  <fix>3d</fix>
</trkpt>
<trkpt lat="-27.2744431" lon="151.290046">
  <ele>357.95</ele>
  <time>2026-09-01T19:51:06Z</time>
  <course>342.72</course>
  <speed>0.3996248240537617</speed>
  <fix>3d</fix>
</trkpt>
<trkpt lat="-27.2744433" lon="151.290046">
  <ele>358.13</ele>
  <time>2026-09-01T19:51:06Z</time>
  <course>60.04</course>
  <speed>0.42</speed>
  <fix>3d</fix>
</trkpt>
<trkpt lat="-27.2744429" lon="151.2900464">
  <ele>357.95</ele>
  <time>2026-09-01T19:51:06Z</time>
  <course>345.0</course>
  <speed>0.4167733196834941</speed>
  <fix>3d</fix>
</trkpt>
<trkpt lat="-27.2744433" lon="151.290046">
  <ele>358.13</ele>
  <time>2026-09-01T19:51:06Z</time>
  <course>60.04</course>
  <speed>0.42</speed>
  <fix>3d</fix>
</trkpt>
<trkpt lat="-27.2744427" lon="151.2900468">
  <ele>357.95</ele>
  <time>2026-09-01T19:51:06Z</time>
  <course>345.73</course>
  <speed>0.4304648650006177</speed>
  <fix>3d</fix>
</trkpt>
<trkpt lat="-27.2744428" lon="151.2900469">
  <ele>358.13</ele>
  <time>2026-09-01T19:51:06Z</time>
  <course>61.01</course>
  <speed>0.45</speed>
  <fix>3d</fix>
</trkpt>
<trkpt lat="-27.2744425" lon="151.2900473">
  <ele>357.95</ele>
  <time>2026-09-01T19:51:06Z</time>
  <course>345.24</course>
  <speed>0.4477722635447622</speed>
  <fix>3d</fix>
</trkpt>
<trkpt lat="-27.2744428" lon="151.2900469">
  <ele>358.13</ele>
  <time>2026-09-01T19:51:06Z</time>
  <course>61.01</course>
  <speed>0.45</speed>
  <fix>3d</fix>
</trkpt>
<trkpt lat="-27.2744423" lon="151.2900477">
  <ele>357.95</ele>
  <time>2026-09-01T19:51:06Z</time>
  <course>343.91</course>
  <speed>0.4614108798023731</speed>
  <fix>3d</fix>
</trkpt>
<trkpt lat="-27.2744425" lon="151.2900477">
  <ele>358.13</ele>
  <time>2026-09-01T19:51:06Z</time>
  <course>61.69</course>
  <speed>0.48</speed>
  <fix>3d</fix>
</trkpt>
<trkpt lat="-27.2744421" lon="151.2900482">
  <ele>357.95</ele>
  <time>2026-09-01T19:51:06Z</time>
  <course>342.08</course>
  <speed>0.47010637094172636</speed>
  <fix>3d</fix>
</trkpt>
<trkpt lat="-27.2744425" lon="151.2900477">
  <ele>358.13</ele>
  <time>2026-09-01T19:51:06Z</time>
  <course>61.69</course>
  <speed>0.48</speed>
  <fix>3d</fix>
</trkpt>
<trkpt lat="-27.2744419" lon="151.2900486">
  <ele>357.95</ele>
  <time>2026-09-01T19:51:06Z</time>
  <course>340.02</course>
  <speed>0.49244289008980524</speed>
  <fix>3d</fix>
</trkpt>
<trkpt lat="-27.274442" lon="151.2900485">
  <ele>358.13</ele>
  <time>2026-09-01T19:51:06Z</time>
  <course>62.17</course>
  <speed>0.51</speed>
  <fix>3d</fix>
</trkpt>
<trkpt lat="-27.2744416" lon="151.2900491">
  <ele>357.96</ele>
  <time>2026-09-01T19:51:06Z</time>
  <course>337.98</course>
  <speed>0.5011985634456667</speed>
  <fix>3d</fix>
</trkpt>
<trkpt lat="-27.274442" lon="151.2900485">
  <ele>358.13</ele>
  <time>2026-09-01T19:51:06Z</time>
  <course>62.17</course>
  <speed>0.51</speed>
  <fix>3d</fix>
</trkpt>
<trkpt lat="-27.2744414" lon="151.2900496">
  <ele>357.96</ele>
  <time>2026-09-01T19:51:06Z</time>
  <course>336.15</course>
  <speed>0.51</speed>
  <fix>3d</fix>
</trkpt>
<trkpt lat="-27.2744415" lon="151.2900494">
  <ele>358.13</ele>
  <time>2026-09-01T19:51:06Z</time>
  <course>62.61</course>
  <speed>0.53</speed>
  <fix>3d</fix>
</trkpt>
<trkpt lat="-27.2744412" lon="151.2900501">
  <ele>357.96</ele>
  <time>2026-09-01T19:51:06Z</time>
  <course>334.74</course>
  <speed>0.523545604508337</speed>
  <fix>3d</fix>
</trkpt>
<trkpt lat="-27.2744415" lon="151.2900494">
  <ele>358.13</ele>
  <time>2026-09-01T19:51:06Z</time>
  <course>62.61</course>
  <speed>0.53</speed>
  <fix>3d</fix>
</trkpt>
<trkpt lat="-27.274441" lon="151.2900506">
  <ele>357.97</ele>
  <time>2026-09-01T19:51:06Z</time>
  <course>333.69</course>
  <speed>0.5323532661682466</speed>
  <fix>3d</fix>
</trkpt>
<trkpt lat="-27.2744412" lon="151.2900505">
  <ele>358.13</ele>
  <time>2026-09-01T19:51:06Z</time>
  <course>63.09</course>
  <speed>0.55</speed>
  <fix>3d</fix>
</trkpt>
<trkpt lat="-27.2744407" lon="151.2900511">
  <ele>357.97</ele>
  <time>2026-09-01T19:51:06Z</time>
  <course>331.83</course>
  <speed>0.5371219600798314</speed>
  <fix>3d</fix>
</trkpt>
<trkpt lat="-27.2744412" lon="151.2900505">
  <ele>358.13</ele>
  <time>2026-09-01T19:51:06Z</time>
  <course>63.09</course>
  <speed>0.55</speed>
  <fix>3d</fix>
</trkpt>
<trkpt lat="-27.2744405" lon="151.2900516">
  <ele>357.97</ele>
  <time>2026-09-01T19:51:06Z</time>
  <course>329.01</course>
  <speed>0.552268050859363</speed>
  <fix>3d</fix>
</trkpt>
<trkpt lat="-27.2744407" lon="151.2900515">
  <ele>358.13</ele>
  <time>2026-09-01T19:51:06Z</time>
  <course>61.45</course>
  <speed>0.57</speed>
  <fix>3d</fix>
</trkpt>
<trkpt lat="-27.2744402" lon="151.2900521">
  <ele>357.97</ele>
  <time>2026-09-01T19:51:06Z</time>
  <course>325.58</course>
  <speed>0.5661271941887265</speed>
  <fix>3d</fix>
</trkpt>
<trkpt lat="-27.2744407" lon="151.2900515">
  <ele>358.13</ele>
  <time>2026-09-01T19:51:06Z</time>
  <course>61.45</course>
  <speed>0.57</speed>
  <fix>3d</fix>
</trkpt>
<trkpt lat="-27.2744399" lon="151.2900526">
  <ele>357.97</ele>
  <time>2026-09-01T19:51:06Z</time>
  <course>321.8</course>
  <speed>0.5685068161420758</speed>
  <fix>3d</fix>
</trkpt>
<trkpt lat="-27.2744402" lon="151.2900525">
  <ele>358.13</ele>
  <time>2026-09-01T19:51:06Z</time>
  <course>56.13</course>
  <speed>0.59</speed>
  <fix>3d</fix>
</trkpt>
<trkpt lat="-27.2744395" lon="151.2900531">
  <ele>357.97</ele>
  <time>2026-09-01T19:51:06Z</time>
  <course>317.82</course>
  <speed>0.5731491952362839</speed>
  <fix>3d</fix>
</trkpt>
<trkpt lat="-27.2744402" lon="151.2900525">
  <ele>358.13</ele>
  <time>2026-09-01T19:51:06Z</time>
  <course>56.13</course>
  <speed>0.59</speed>
  <fix>3d</fix>
</trkpt>
<trkpt lat="-27.2744392" lon="151.2900535">
  <ele>357.97</ele>
  <time>2026-09-01T19:51:06Z</time>
  <course>313.72</course>
  <speed>0.587281874401041</speed>
  <fix>3d</fix>
</trkpt>
<trkpt lat="-27.2744395" lon="151.2900535">
  <ele>358.13</ele>
  <time>2026-09-01T19:51:06Z</time>
  <course>49.3</course>
  <speed>0.6</speed>
  <fix>3d</fix>
</trkpt>
<trkpt lat="-27.2744388" lon="151.290054">
  <ele>357.97</ele>
  <time>2026-09-01T19:51:06Z</time>
  <course>309.59</course>
  <speed>0.5889821729050889</speed>
  <fix>3d</fix>
</trkpt>
<trkpt lat="-27.2744395" lon="151.2900535">
  <ele>358.13</ele>
  <time>2026-09-01T19:51:06Z</time>
  <course>49.3</course>
  <speed>0.6</speed>
  <fix>3d</fix>
</trkpt>
<trkpt lat="-27.2744384" lon="151.2900544">
  <ele>357.97</ele>
  <time>2026-09-01T19:51:06Z</time>
  <course>305.39</course>
  <speed>0.6</speed>
  <fix>3d</fix>
</trkpt>
<trkpt lat="-27.2744387" lon="151.2900544">
  <ele>358.13</ele>
  <time>2026-09-01T19:51:06Z</time>
  <course>42.48</course>
  <speed>0.61</speed>
  <fix>3d</fix>
</trkpt>
<trkpt lat="-27.2744379" lon="151.2900548">
  <ele>357.97</ele>
  <time>2026-09-01T19:51:06Z</time>
  <course>301.27</course>
  <speed>0.6074537019394977</speed>
  <fix>3d</fix>
</trkpt>
<trkpt lat="-27.2744387" lon="151.2900544">
  <ele>358.13</ele>
  <time>2026-09-01T19:51:06Z</time>
  <course>42.48</course>
  <speed>0.61</speed>
  <fix>3d</fix>
</trkpt>
<trkpt lat="-27.2744375" lon="151.2900551">
  <ele>357.97</ele>
  <time>2026-09-01T19:51:06Z</time>
  <course>298.08</course>
  <speed>0.6090155991434045</speed>
  <fix>3d</fix>
</trkpt>
<trkpt lat="-27.2744378" lon="151.2900551">
  <ele>358.12</ele>
  <time>2026-09-01T19:51:06Z</time>
  <course>35.73</course>
  <speed>0.62</speed>
  <fix>3d</fix>
</trkpt>
<trkpt lat="-27.274437" lon="151.2900555">
  <ele>357.97</ele>
  <time>2026-09-01T19:51:06Z</time>
  <course>296.33</course>
  <speed>0.6037383539249432</speed>
  <fix>3d</fix>
</trkpt>
<trkpt lat="-27.2744378" lon="151.2900551">
  <ele>358.12</ele>
  <time>2026-09-01T19:51:06Z</time>
  <course>35.73</course>
  <speed>0.62</speed>
  <fix>3d</fix>
</trkpt>
<trkpt lat="-27.2744365" lon="151.2900557">
  <ele>357.97</ele>
  <time>2026-09-01T19:51:06Z</time>
  <course>295.95</course>
  <speed>0.6041522986797286</speed>
  <fix>3d</fix>
</trkpt>
<trkpt lat="-27.2744369" lon="151.2900558">
  <ele>358.12</ele>
  <time>2026-09-01T19:51:06Z</time>
  <course>29.71</course>
  <speed>0.62</speed>
  <fix>3d</fix>
</trkpt>
<trkpt lat="-27.274436" lon="151.290056">
  <ele>357.97</ele>
  <time>2026-09-01T19:51:06Z</time>
  <course>296.59</course>
  <speed>0.6041522986797286</speed>
  <fix>3d</fix>
</trkpt>
<trkpt lat="-27.2744369" lon="151.2900558">
  <ele>358.12</ele>
  <time>2026-09-01T19:51:06Z</time>
  <course>29.71</course>
  <speed>0.62</speed>
  <fix>3d</fix>
</trkpt>
<trkpt lat="-27.2744355" lon="151.2900563">
  <ele>357.97</ele>
  <time>2026-09-01T19:51:06Z</time>
  <course>297.91</course>
  <speed>0.6083584469702052</speed>
  <fix>3d</fix>
</trkpt>
<trkpt lat="-27.2744359" lon="151.2900565">
  <ele>358.12</ele>
  <time>2026-09-01T19:51:06Z</time>
  <course>27.35</course>
  <speed>0.62</speed>
  <fix>3d</fix>
</trkpt>
<trkpt lat="-27.274435" lon="151.2900566">
  <ele>357.97</ele>
  <time>2026-09-01T19:51:06Z</time>
  <course>299.63</course>
  <speed>0.5993329625508679</speed>
  <fix>3d</fix>
</trkpt>
<trkpt lat="-27.2744359" lon="151.2900565">
  <ele>358.12</ele>
  <time>2026-09-01T19:51:06Z</time>
  <course>27.35</course>
  <speed>0.62</speed>
  <fix>3d</fix>
</trkpt>
<trkpt lat="-27.2744345" lon="151.2900569">
  <ele>357.96</ele>
  <time>2026-09-01T19:51:06Z</time>
  <course>301.49</course>
  <speed>0.5948108943185221</speed>
  <fix>3d</fix>
</trkpt>
<trkpt lat="-27.2744349" lon="151.2900571">
  <ele>358.12</ele>
  <time>2026-09-01T19:51:06Z</time>
  <course>28.42</course>
  <speed>0.62</speed>
  <fix>3d</fix>
</trkpt>
<trkpt lat="-27.274434" lon="151.2900573">
  <ele>357.96</ele>
  <time>2026-09-01T19:51:06Z</time>
  <course>303.29</course>
  <speed>0.5859180830116101</speed>
  <fix>3d</fix>
</trkpt>
<trkpt lat="-27.2744349" lon="151.2900571">
  <ele>358.12</ele>
  <time>2026-09-01T19:51:06Z</time>
  <course>28.42</course>
  <speed>0.62</speed>
  <fix>3d</fix>
</trkpt>
<trkpt lat="-27.2744336" lon="151.2900576">
  <ele>357.95</ele>
  <time>2026-09-01T19:51:06Z</time>
  <course>304.83</course>
  <speed>0.590592922409336</speed>
  <fix>3d</fix>
</trkpt>
<trkpt lat="-27.274434" lon="151.2900576">
  <ele>358.11</ele>
  <time>2026-09-01T19:51:06Z</time>
  <course>29.96</course>
  <speed>0.61</speed>
  <fix>3d</fix>
</trkpt>
<trkpt lat="-27.2744331" lon="151.2900579">
  <ele>357.95</ele>
  <time>2026-09-01T19:51:06Z</time>
  <course>305.95</course>
  <speed>0.5866856057549051</speed>
  <fix>3d</fix>
</trkpt>
<trkpt lat="-27.274434" lon="151.2900576">
  <ele>358.11</ele>
  <time>2026-09-01T19:51:06Z</time>
  <course>29.96</course>
  <speed>0.61</speed>
  <fix>3d</fix>
</trkpt>
<trkpt lat="-27.2744326" lon="151.2900582">
  <ele>357.94</ele>
  <time>2026-09-01T19:51:06Z</time>
  <course>306.6</course>
  <speed>0.578013840664737</speed>
  <fix>3d</fix>
</trkpt>
<trkpt lat="-27.274433" lon="151.2900583">
  <ele>358.1</ele>
  <time>2026-09-01T19:51:06Z</time>
  <course>31.48</course>
  <speed>0.6</speed>
  <fix>3d</fix>
</trkpt>
<trkpt lat="-27.2744322" lon="151.2900586">
  <ele>357.94</ele>
  <time>2026-09-01T19:51:06Z</time>
  <course>306.79</course>
  <speed>0.5693856338194704</speed>
  <fix>3d</fix>
</trkpt>
<trkpt lat="-27.274433" lon="151.2900583">
  <ele>358.1</ele>
  <time>2026-09-01T19:51:06Z</time>
  <course>31.48</course>
  <speed>0.6</speed>
  <fix>3d</fix>
</trkpt>
<trkpt lat="-27.2744317" lon="151.2900589">
  <ele>357.94</ele>
  <time>2026-09-01T19:51:06Z</time>
  <course>306.58</course>
  <speed>0.5660388679233962</speed>
  <fix>3d</fix>
</trkpt>
<trkpt lat="-27.2744321" lon="151.2900589">
  <ele>358.1</ele>
  <time>2026-09-01T19:51:06Z</time>
  <course>33.04</course>
  <speed>0.59</speed>
  <fix>3d</fix>
</trkpt>
<trkpt lat="-27.2744313" lon="151.2900592">
  <ele>357.93</ele>
  <time>2026-09-01T19:51:06Z</time>
  <course>306.17</course>
  <speed>0.5575840743780259</speed>
  <fix>3d</fix>
</trkpt>
<trkpt lat="-27.2744321" lon="151.2900589">
  <ele>358.1</ele>
  <time>2026-09-01T19:51:06Z</time>
  <course>33.04</course>
  <speed>0.59</speed>
  <fix>3d</fix>
</trkpt>
<trkpt lat="-27.2744309" lon="151.2900596">
  <ele>357.93</ele>
  <time>2026-09-01T19:51:06Z</time>
  <course>306.82</course>
  <speed>0.5630275304103699</speed>
  <fix>3d</fix>
</trkpt>
<trkpt lat="-27.2744312" lon="151.2900596">
  <ele>358.1</ele>
  <time>2026-09-01T19:51:06Z</time>
  <course>34.62</course>
  <speed>0.58</speed>
  <fix>3d</fix>
</trkpt>
<trkpt lat="-27.2744305" lon="151.2900599">
  <ele>357.94</ele>
  <time>2026-09-01T19:51:06Z</time>
  <course>308.97</course>
  <speed>0.5547071299343466</speed>
  <fix>3d</fix>
</trkpt>
<trkpt lat="-27.2744312" lon="151.2900596">
  <ele>358.1</ele>
  <time>2026-09-01T19:51:06Z</time>
  <course>34.62</course>
  <speed>0.58</speed>
  <fix>3d</fix>
</trkpt>
<trkpt lat="-27.27443" lon="151.2900603">
  <ele>357.94</ele>
  <time>2026-09-01T19:51:06Z</time>
  <course>312.09</course>
  <speed>0.54644304369257</speed>
  <fix>3d</fix>
</trkpt>
<trkpt lat="-27.2744304" lon="151.2900602">
  <ele>358.1</ele>
  <time>2026-09-01T19:51:06Z</time>
  <course>36.17</course>
  <speed>0.57</speed>
  <fix>3d</fix>
</trkpt>
<trkpt lat="-27.2744296" lon="151.2900606">
  <ele>357.94</ele>
  <time>2026-09-01T19:51:06Z</time>
  <course>315.78</course>
  <speed>0.5440588203494178</speed>
  <fix>3d</fix>
</trkpt>
<trkpt lat="-27.2744304" lon="151.2900602">
  <ele>358.1</ele>
  <time>2026-09-01T19:51:06Z</time>
  <course>36.17</course>
  <speed>0.57</speed>
  <fix>3d</fix>
</trkpt>
<trkpt lat="-27.2744292" lon="151.290061">
  <ele>357.94</ele>
  <time>2026-09-01T19:51:06Z</time>
  <course>319.77</course>
  <speed>0.5360037313302959</speed>
  <fix>3d</fix>
</trkpt>
<trkpt lat="-27.2744296" lon="151.2900609">
  <ele>358.1</ele>
  <time>2026-09-01T19:51:06Z</time>
  <course>37.73</course>
  <speed>0.56</speed>
  <fix>3d</fix>
</trkpt>
<trkpt lat="-27.2744289" lon="151.2900613">
  <ele>357.94</ele>
  <time>2026-09-01T19:51:06Z</time>
  <course>323.98</course>
  <speed>0.5280151512977634</speed>
  <fix>3d</fix>
</trkpt>
<trkpt lat="-27.2744296" lon="151.2900609">
  <ele>358.1</ele>
  <time>2026-09-01T19:51:06Z</time>
  <course>37.73</course>
  <speed>0.56</speed>
  <fix>3d</fix>
</trkpt>
<trkpt lat="-27.2744285" lon="151.2900617">
  <ele>357.95</ele>
  <time>2026-09-01T19:51:06Z</time>
  <course>328.3</course>
  <speed>0.5341348144429456</speed>
  <fix>3d</fix>
</trkpt>
<trkpt lat="-27.2744288" lon="151.2900616">
  <ele>358.1</ele>
  <time>2026-09-01T19:51:06Z</time>
  <course>39.3</course>
  <speed>0.55</speed>
  <fix>3d</fix>
</trkpt>
<trkpt lat="-27.2744281" lon="151.2900621">
  <ele>357.95</ele>
  <time>2026-09-01T19:51:06Z</time>
  <course>332.69</course>
  <speed>0.5263078946776306</speed>
  <fix>3d</fix>
</trkpt>
<trkpt lat="-27.2744288" lon="151.2900616">
  <ele>358.1</ele>
  <time>2026-09-01T19:51:06Z</time>
  <course>39.3</course>
  <speed>0.55</speed>
  <fix>3d</fix>
</trkpt>
<trkpt lat="-27.2744277" lon="151.2900624">
  <ele>357.95</ele>
  <time>2026-09-01T19:51:06Z</time>
  <course>337.15</course>
  <speed>0.518555686498567</speed>
  <fix>3d</fix>
</trkpt>
<trkpt lat="-27.274428" lon="151.2900624">
  <ele>358.1</ele>
  <time>2026-09-01T19:51:06Z</time>
  <course>40.9</course>
  <speed>0.55</speed>
  <fix>3d</fix>
</trkpt>
<trkpt lat="-27.2744274" lon="151.2900628">
  <ele>357.96</ele>
  <time>2026-09-01T19:51:06Z</time>
  <course>341.22</course>
  <speed>0.5173973328110612</speed>
  <fix>3d</fix>
</trkpt>
<trkpt lat="-27.274428" lon="151.2900624">
  <ele>358.1</ele>
  <time>2026-09-01T19:51:06Z</time>
  <course>40.9</course>
  <speed>0.55</speed>
  <fix>3d</fix>
</trkpt>
<trkpt lat="-27.274427" lon="151.2900632">
  <ele>357.96</ele>
  <time>2026-09-01T19:51:06Z</time>
  <course>343.95</course>
  <speed>0.5173973328110612</speed>
  <fix>3d</fix>
</trkpt>
<trkpt lat="-27.2744272" lon="151.2900631">
  <ele>358.1</ele>
  <time>2026-09-01T19:51:06Z</time>
  <course>42.51</course>
  <speed>0.54</speed>
  <fix>3d</fix>
</trkpt>
<trkpt lat="-27.2744267" lon="151.2900635">
  <ele>357.96</ele>
  <time>2026-09-01T19:51:06Z</time>
  <course>345.15</course>
  <speed>0.5099019513592785</speed>
  <fix>3d</fix>
</trkpt>
<trkpt lat="-27.2744272" lon="151.2900631">
  <ele>358.1</ele>
  <time>2026-09-01T19:51:06Z</time>
  <course>42.51</course>
  <speed>0.54</speed>
  <fix>3d</fix>
</trkpt>
<trkpt lat="-27.2744263" lon="151.2900639">
  <ele>357.96</ele>
  <time>2026-09-01T19:51:06Z</time>
  <course>345.05</course>
  <speed>0.5024937810560445</speed>
  <fix>3d</fix>
</trkpt>
<trkpt lat="-27.2744265" lon="151.2900639">
  <ele>358.11</ele>
  <time>2026-09-01T19:51:06Z</time>
  <course>44.19</course>
  <speed>0.53</speed>
  <fix>3d</fix>
</trkpt>
<trkpt lat="-27.274426" lon="151.2900643">
  <ele>357.96</ele>
  <time>2026-09-01T19:51:06Z</time>
  <course>344.0</course>
  <speed>0.5020956084253276</speed>
  <fix>3d</fix>
</trkpt>
<trkpt lat="-27.2744265" lon="151.2900639">
  <ele>358.11</ele>
  <time>2026-09-01T19:51:06Z</time>
  <course>44.19</course>
  <speed>0.53</speed>
  <fix>3d</fix>
</trkpt>
<trkpt lat="-27.2744257" lon="151.2900647">
  <ele>357.96</ele>
  <time>2026-09-01T19:51:06Z</time>
  <course>342.36</course>
  <speed>0.48795491595023405</speed>
  <fix>3d</fix>
</trkpt>
<trkpt lat="-27.2744259" lon="151.2900646">
  <ele>358.11</ele>
  <time>2026-09-01T19:51:06Z</time>
  <course>46.05</course>
  <speed>0.51</speed>
  <fix>3d</fix>
</trkpt>
<trkpt lat="-27.2744253" lon="151.2900651">
  <ele>357.96</ele>
  <time>2026-09-01T19:51:06Z</time>
  <course>340.4</course>
  <speed>0.48104053883222775</speed>
  <fix>3d</fix>
</trkpt>
<trkpt lat="-27.2744259" lon="151.2900646">
  <ele>358.11</ele>
  <time>2026-09-01T19:51:06Z</time>
  <course>46.05</course>
  <speed>0.51</speed>
  <fix>3d</fix>
</trkpt>
<trkpt lat="-27.274425" lon="151.2900654">
  <ele>357.96</ele>
  <time>2026-09-01T19:51:06Z</time>
  <course>338.38</course>
  <speed>0.474236228055175</speed>
  <fix>3d</fix>
</trkpt>
<trkpt lat="-27.2744253" lon="151.2900654">
  <ele>358.1</ele>
  <time>2026-09-01T19:51:06Z</time>
  <course>48.11</course>
  <speed>0.5</speed>
  <fix>3d</fix>
</trkpt>
<trkpt lat="-27.2744248" lon="151.2900658">
  <ele>357.96</ele>
  <time>2026-09-01T19:51:06Z</time>
  <course>336.53</course>
  <speed>0.46010868281309364</speed>
  <fix>3d</fix>
</trkpt>
<trkpt lat="-27.2744253" lon="151.2900654">
  <ele>358.1</ele>
  <time>2026-09-01T19:51:06Z</time>
  <course>48.11</course>
  <speed>0.5</speed>
  <fix>3d</fix>
</trkpt>
<trkpt lat="-27.2744245" lon="151.2900662">
  <ele>357.96</ele>
  <time>2026-09-01T19:51:06Z</time>
  <course>335.03</course>
  <speed>0.4468780594300866</speed>
  <fix>3d</fix>
</trkpt>
<trkpt lat="-27.2744247" lon="151.2900661">
  <ele>358.1</ele>
  <time>2026-09-01T19:51:06Z</time>
  <course>50.35</course>
  <speed>0.48</speed>
  <fix>3d</fix>
</trkpt>
<trkpt lat="-27.2744242" lon="151.2900666">
  <ele>357.96</ele>
  <time>2026-09-01T19:51:06Z</time>
  <course>333.97</course>
  <speed>0.44045431091090476</speed>
  <fix>3d</fix>
</trkpt>
<trkpt lat="-27.2744247" lon="151.2900661">
  <ele>358.1</ele>
  <time>2026-09-01T19:51:06Z</time>
  <course>50.35</course>
  <speed>0.48</speed>
  <fix>3d</fix>
</trkpt>
<trkpt lat="-27.274424" lon="151.2900669">
  <ele>357.96</ele>
  <time>2026-09-01T19:51:06Z</time>
  <course>332.46</course>
  <speed>0.4280186911806539</speed>
  <fix>3d</fix>
</trkpt>
<trkpt lat="-27.2744241" lon="151.2900669">
  <ele>358.1</ele>
  <time>2026-09-01T19:51:06Z</time>
  <course>52.74</course>
  <speed>0.46</speed>
  <fix>3d</fix>
</trkpt>
<trkpt lat="-27.2744237" lon="151.2900673">
  <ele>357.95</ele>
  <time>2026-09-01T19:51:06Z</time>
  <course>330.15</course>
  <speed>0.4220189569201838</speed>
  <fix>3d</fix>
</trkpt>
<trkpt lat="-27.2744241" lon="151.2900669">
  <ele>358.1</ele>
  <time>2026-09-01T19:51:06Z</time>
  <course>52.74</course>
  <speed>0.46</speed>
  <fix>3d</fix>
</trkpt>
<trkpt lat="-27.2744235" lon="151.2900677">
  <ele>357.95</ele>
  <time>2026-09-01T19:51:06Z</time>
  <course>327.3</course>
  <speed>0.4080441152620633</speed>
  <fix>3d</fix>
</trkpt>
<trkpt lat="-27.2744237" lon="151.2900676">
  <ele>358.1</ele>
  <time>2026-09-01T19:51:06Z</time>
  <course>55.32</course>
  <speed>0.44</speed>
  <fix>3d</fix>
</trkpt>
<trkpt lat="-27.2744233" lon="151.290068">
  <ele>357.95</ele>
  <time>2026-09-01T19:51:06Z</time>
  <course>324.13</course>
  <speed>0.4022437072223753</speed>
  <fix>3d</fix>
</trkpt>
<trkpt lat="-27.2744237" lon="151.2900676">
  <ele>358.1</ele>
  <time>2026-09-01T19:51:06Z</time>
  <course>55.32</course>
  <speed>0.44</speed>
  <fix>3d</fix>
</trkpt>
<trkpt lat="-27.2744231" lon="151.2900684">
  <ele>357.95</ele>
  <time>2026-09-01T19:51:06Z</time>
  <course>320.77</course>
  <speed>0.38600518131237566</speed>
  <fix>3d</fix>
</trkpt>
<trkpt lat="-27.2744233" lon="151.2900683">
  <ele>358.1</ele>
  <time>2026-09-01T19:51:06Z</time>
  <course>56.49</course>
  <speed>0.42</speed>
  <fix>3d</fix>
</trkpt>
<trkpt lat="-27.2744229" lon="151.2900687">
  <ele>357.95</ele>
  <time>2026-09-01T19:51:06Z</time>
  <course>317.32</course>
  <speed>0.378021163428716</speed>
  <fix>3d</fix>
</trkpt>
<trkpt lat="-27.2744233" lon="151.2900683">
  <ele>358.1</ele>
  <time>2026-09-01T19:51:06Z</time>
  <course>56.49</course>
  <speed>0.42</speed>
  <fix>3d</fix>
</trkpt>
<trkpt lat="-27.2744227" lon="151.290069">
  <ele>357.94</ele>
  <time>2026-09-01T19:51:06Z</time>
  <course>313.78</course>
  <speed>0.36235341863986875</speed>
  <fix>3d</fix>
</trkpt>
<trkpt lat="-27.2744229" lon="151.290069">
  <ele>358.1</ele>
  <time>2026-09-01T19:51:06Z</time>
  <course>55.14</course>
  <speed>0.39</speed>
  <fix>3d</fix>
</trkpt>
<trkpt lat="-27.2744225" lon="151.2900694">
  <ele>357.94</ele>
  <time>2026-09-01T19:51:06Z</time>
  <course>310.19</course>
  <speed>0.34828149534535996</speed>
  <fix>3d</fix>
</trkpt>
<trkpt lat="-27.2744229" lon="151.290069">
  <ele>358.1</ele>
  <time>2026-09-01T19:51:06Z</time>
  <course>55.14</course>
  <speed>0.39</speed>
  <fix>3d</fix>
</trkpt>
<trkpt lat="-27.2744223" lon="151.2900696">
  <ele>357.94</ele>
  <time>2026-09-01T19:51:06Z</time>
  <course>306.56</course>
  <speed>0.3330165161069343</speed>
  <fix>3d</fix>
</trkpt>
<trkpt lat="-27.2744225" lon="151.2900697">
  <ele>358.1</ele>
  <time>2026-09-01T19:51:06Z</time>
  <course>53.02</course>
  <speed>0.37</speed>
  <fix>3d</fix>
</trkpt>
<trkpt lat="-27.2744221" lon="151.2900699">
  <ele>357.94</ele>
  <time>2026-09-01T19:51:06Z</time>
  <course>302.9</course>
  <speed>0.3189043743820395</speed>
  <fix>3d</fix>
</trkpt>
<trkpt lat="-27.2744225" lon="151.2900697">
  <ele>358.1</ele>
  <time>2026-09-01T19:51:06Z</time>
  <course>53.02</course>
  <speed>0.37</speed>
  <fix>3d</fix>
</trkpt>
<trkpt lat="-27.2744219" lon="151.2900702">
  <ele>357.94</ele>
  <time>2026-09-01T19:51:06Z</time>
  <course>299.72</course>
  <speed>0.304138126514911</speed>
  <fix>3d</fix>
</trkpt>
<trkpt lat="-27.2744221" lon="151.2900702">
  <ele>358.1</ele>
  <time>2026-09-01T19:51:06Z</time>
  <course>51.37</course>
  <speed>0.34</speed>
  <fix>3d</fix>
</trkpt>
<trkpt lat="-27.2744217" lon="151.2900704">
  <ele>357.94</ele>
  <time>2026-09-01T19:51:06Z</time>
  <course>297.67</course>
  <speed>0.29</speed>
  <fix>3d</fix>
</trkpt>
<trkpt lat="-27.2744221" lon="151.2900702">
  <ele>358.1</ele>
  <time>2026-09-01T19:51:06Z</time>
  <course>51.37</course>
  <speed>0.34</speed>
  <fix>3d</fix>
</trkpt>
<trkpt lat="-27.2744216" lon="151.2900707">
  <ele>357.94</ele>
  <time>2026-09-01T19:51:06Z</time>
  <course>296.86</course>
  <speed>0.26870057685088805</speed>
  <fix>3d</fix>
</trkpt>
<trkpt lat="-27.2744217" lon="151.2900707">
  <ele>358.1</ele>
  <time>2026-09-01T19:51:06Z</time>
  <course>50.45</course>
  <speed>0.3</speed>
  <fix>3d</fix>
</trkpt>
<trkpt lat="-27.2744214" lon="151.2900709">
  <ele>357.94</ele>
  <time>2026-09-01T19:51:06Z</time>
  <course>297.06</course>
  <speed>0.24758836806279894</speed>
  <fix>3d</fix>
</trkpt>
<trkpt lat="-27.2744217" lon="151.2900707">
  <ele>358.1</ele>
  <time>2026-09-01T19:51:06Z</time>
  <course>50.45</course>
  <speed>0.3</speed>
  <fix>3d</fix>
</trkpt>
<trkpt lat="-27.2744213" lon="151.2900711">
  <ele>357.94</ele>
  <time>2026-09-01T19:51:06Z</time>
  <course>298.0</course>
  <speed>0.23345235059857505</speed>
  <fix>3d</fix>
</trkpt>
<trkpt lat="-27.2744213" lon="151.2900712">
  <ele>358.1</ele>
  <time>2026-09-01T19:51:06Z</time>
  <course>50.32</course>
  <speed>0.27</speed>
  <fix>3d</fix>
</trkpt>
<trkpt lat="-27.2744211" lon="151.2900713">
  <ele>357.94</ele>
  <time>2026-09-01T19:51:06Z</time>
  <course>299.4</course>
  <speed>0.21213203435596426</speed>
  <fix>3d</fix>
</trkpt>
<trkpt lat="-27.2744213" lon="151.2900712">
  <ele>358.1</ele>
  <time>2026-09-01T19:51:06Z</time>
  <course>50.32</course>
  <speed>0.27</speed>
  <fix>3d</fix>
</trkpt>
<trkpt lat="-27.274421" lon="151.2900715">
  <ele>357.93</ele>
  <time>2026-09-01T19:51:06Z</time>
  <course>301.03</course>
  <speed>0.191049731745428</speed>
  <fix>3d</fix>
</trkpt>
<trkpt lat="-27.274421" lon="151.2900715">
  <ele>358.1</ele>
  <time>2026-09-01T19:51:06Z</time>
  <course>50.96</course>
  <speed>0.23</speed>
  <fix>3d</fix>
</trkpt>
<trkpt lat="-27.2744209" lon="151.2900716">
  <ele>357.93</ele>
  <time>2026-09-01T19:51:06Z</time>
  <course>302.68</course>
  <speed>0.1769180601295413</speed>
  <fix>3d</fix>
</trkpt>
<trkpt lat="-27.274421" lon="151.2900715">
  <ele>358.1</ele>
  <time>2026-09-01T19:51:06Z</time>
  <course>50.96</course>
  <speed>0.23</speed>
  <fix>3d</fix>
</trkpt>
<trkpt lat="-27.2744208" lon="151.2900718">
  <ele>357.93</ele>
  <time>2026-09-01T19:51:06Z</time>
  <course>304.17</course>
  <speed>0.15620499351813308</speed>
  <fix>3d</fix>
</trkpt>
<trkpt lat="-27.2744208" lon="151.2900719">
  <ele>358.1</ele>
  <time>2026-09-01T19:51:06Z</time>
  <course>52.78</course>
  <speed>0.19</speed>
  <fix>3d</fix>
</trkpt>
<trkpt lat="-27.2744207" lon="151.2900719">
  <ele>357.93</ele>
  <time>2026-09-01T19:51:06Z</time>
  <course>305.31</course>
  <speed>0.14212670403551894</speed>
  <fix>3d</fix>
</trkpt>
<trkpt lat="-27.2744208" lon="151.2900719">
  <ele>358.1</ele>
  <time>2026-09-01T19:51:06Z</time>
  <course>52.78</course>
  <speed>0.19</speed>
  <fix>3d</fix>
</trkpt>
<trkpt lat="-27.2744206" lon="151.2900721">
  <ele>357.93</ele>
  <time>2026-09-01T19:51:06Z</time>
  <course>306.03</course>
  <speed>0.12206555615733702</speed>
  <fix>3d</fix>
</trkpt>
<trkpt lat="-27.2744206" lon="151.2900722">
  <ele>358.1</ele>
  <time>2026-09-01T19:51:06Z</time>
  <course>56.72</course>
  <speed>0.16</speed>
  <fix>3d</fix>
</trkpt>
<trkpt lat="-27.2744205" lon="151.2900722">
  <ele>357.93</ele>
  <time>2026-09-01T19:51:06Z</time>
  <course>306.31</course>
  <speed>0.10816653826391968</speed>
  <fix>3d</fix>
</trkpt>
<trkpt lat="-27.2744206" lon="151.2900722">
  <ele>358.1</ele>
  <time>2026-09-01T19:51:06Z</time>
  <course>56.72</course>
  <speed>0.16</speed>
  <fix>3d</fix>
</trkpt>
<trkpt lat="-27.2744205" lon="151.2900723">
  <ele>357.93</ele>
  <time>2026-09-01T19:51:06Z</time>
  <course>306.19</course>
  <speed>0.08944271909999159</speed>
  <fix>3d</fix>
</trkpt>
<trkpt lat="-27.2744205" lon="151.2900725">
  <ele>358.11</ele>
  <time>2026-09-01T19:51:06Z</time>
  <course>64.16</course>
  <speed>0.13</speed>
  <fix>3d</fix>
</trkpt>
<trkpt lat="-27.2744204" lon="151.2900724">
  <ele>357.94</ele>
  <time>2026-09-01T19:51:06Z</time>
  <course>305.79</course>
  <speed>0.07280109889280519</speed>
  <fix>3d</fix>
</trkpt>
<trkpt lat="-27.2744205" lon="151.2900725">
  <ele>358.11</ele>
  <time>2026-09-01T19:51:06Z</time>
  <course>64.16</course>
  <speed>0.13</speed>
  <fix>3d</fix>
</trkpt>
<trkpt lat="-27.2744204" lon="151.2900725">
  <ele>357.94</ele>
  <time>2026-09-01T19:51:06Z</time>
  <course>305.99</course>
  <speed>0.07</speed>
  <fix>3d</fix>
</trkpt>
<trkpt lat="-27.2744204" lon="151.2900727">
  <ele>358.11</ele>
  <time>2026-09-01T19:51:06Z</time>
  <course>77.09</course>
  <speed>0.1</speed>
  <fix>3d</fix>
</trkpt>
<trkpt lat="-27.2744204" lon="151.2900726">
  <ele>357.94</ele>
  <time>2026-09-01T19:51:06Z</time>
  <course>307.44</course>
  <speed>0.06</speed>
  <fix>3d</fix>
</trkpt>
<trkpt lat="-27.2744204" lon="151.2900727">
  <ele>358.11</ele>
  <time>2026-09-01T19:51:06Z</time>
  <course>77.09</course>
  <speed>0.1</speed>
  <fix>3d</fix>
</trkpt>
<trkpt lat="-27.2744204" lon="151.2900727">
  <ele>357.95</ele>
  <time>2026-09-01T19:51:06Z</time>
  <course>309.73</course>
  <speed>0.053851648071345036</speed>
  <fix>3d</fix>
</trkpt>
<trkpt lat="-27.2744204" lon="151.2900728">
  <ele>358.12</ele>
  <time>2026-09-01T19:51:06Z</time>
  <course>97.29</course>
  <speed>0.08</speed>
  <fix>3d</fix>
</trkpt>
<trkpt lat="-27.2744204" lon="151.2900728">
  <ele>357.95</ele>
  <time>2026-09-01T19:51:06Z</time>
  <course>312.57</course>
  <speed>0.06403124237432849</speed>
  <fix>3d</fix>
</trkpt>
<trkpt lat="-27.2744204" lon="151.2900728">
  <ele>358.12</ele>
  <time>2026-09-01T19:51:06Z</time>
  <course>97.29</course>
  <speed>0.08</speed>
  <fix>3d</fix>
</trkpt>
<trkpt lat="-27.2744204" lon="151.2900728">
  <ele>357.95</ele>
  <time>2026-09-01T19:51:06Z</time>
  <course>315.73</course>
  <speed>0.07211102550927978</speed>
  <fix>3d</fix>
</trkpt>
<trkpt lat="-27.2744204" lon="151.2900731">
  <ele>358.12</ele>
  <time>2026-09-01T19:51:06Z</time>
  <course>122.05</course>
  <speed>0.08</speed>
  <fix>3d</fix>
</trkpt>
<trkpt lat="-27.2744205" lon="151.2900729">
  <ele>357.96</ele>
  <time>2026-09-01T19:51:06Z</time>
  <course>319.08</course>
  <speed>0.07615773105863909</speed>
  <fix>3d</fix>
</trkpt>
<trkpt lat="-27.2744204" lon="151.2900731">
  <ele>358.12</ele>
  <time>2026-09-01T19:51:06Z</time>
  <course>122.05</course>
  <speed>0.08</speed>
  <fix>3d</fix>
</trkpt>
<trkpt lat="-27.2744206" lon="151.290073">
  <ele>357.96</ele>
  <time>2026-09-01T19:51:06Z</time>
  <course>322.57</course>
  <speed>0.09219544457292887</speed>
  <fix>3d</fix>
</trkpt>
<trkpt lat="-27.2744205" lon="151.2900732">
  <ele>358.13</ele>
  <time>2026-09-01T19:51:06Z</time>
  <course>143.37</course>
  <speed>0.1</speed>
  <fix>3d</fix>
</trkpt>
<trkpt lat="-27.2744207" lon="151.290073">
  <ele>357.96</ele>
  <time>2026-09-01T19:51:06Z</time>
  <course>326.1</course>
  <speed>0.1019803902718557</speed>
  <fix>3d</fix>
</trkpt>
<trkpt lat="-27.2744205" lon="151.2900732">
  <ele>358.13</ele>
  <time>2026-09-01T19:51:06Z</time>
  <course>143.37</course>
  <speed>0.1</speed>
  <fix>3d</fix>
</trkpt>
<trkpt lat="-27.2744208" lon="151.2900731">
  <ele>357.96</ele>
  <time>2026-09-01T19:51:06Z</time>
  <course>329.67</course>
  <speed>0.12041594578792296</speed>
  <fix>3d</fix>
</trkpt>
<trkpt lat="-27.2744207" lon="151.2900733">
  <ele>358.13</ele>
  <time>2026-09-01T19:51:06Z</time>
  <course>157.95</course>
  <speed>0.12</speed>
  <fix>3d</fix>
</trkpt>
<trkpt lat="-27.2744209" lon="151.2900731">
  <ele>357.96</ele>
  <time>2026-09-01T19:51:06Z</time>
  <course>333.18</course>
  <speed>0.14</speed>
  <fix>3d</fix>
</trkpt>
<trkpt lat="-27.2744207" lon="151.2900733">
  <ele>358.13</ele>
  <time>2026-09-01T19:51:06Z</time>
  <course>157.95</course>
  <speed>0.12</speed>
  <fix>3d</fix>
</trkpt>
<trkpt lat="-27.274421" lon="151.2900731">
  <ele>357.96</ele>
  <time>2026-09-01T19:51:06Z</time>
  <course>335.91</course>
  <speed>0.15</speed>
  <fix>3d</fix>
</trkpt>
<trkpt lat="-27.2744209" lon="151.2900733">
  <ele>358.13</ele>
  <time>2026-09-01T19:51:06Z</time>
  <course>167.63</course>
  <speed>0.14</speed>
  <fix>3d</fix>
</trkpt>
<trkpt lat="-27.2744212" lon="151.2900731">
  <ele>357.96</ele>
  <time>2026-09-01T19:51:06Z</time>
  <course>337.36</course>
  <speed>0.16</speed>
  <fix>3d</fix>
</trkpt>
<trkpt lat="-27.2744209" lon="151.2900733">
  <ele>358.13</ele>
  <time>2026-09-01T19:51:06Z</time>
  <course>167.63</course>
  <speed>0.14</speed>
  <fix>3d</fix>
</trkpt>
<trkpt lat="-27.2744213" lon="151.2900732">
  <ele>357.96</ele>
  <time>2026-09-01T19:51:06Z</time>
  <course>337.59</course>
  <speed>0.18027756377319945</speed>
  <fix>3d</fix>
</trkpt>
<trkpt lat="-27.2744212" lon="151.2900734">
  <ele>358.13</ele>
  <time>2026-09-01T19:51:06Z</time>
  <course>174.42</course>
  <speed>0.17</speed>
  <fix>3d</fix>
</trkpt>
<trkpt lat="-27.2744215" lon="151.2900732">
  <ele>357.96</ele>
  <time>2026-09-01T19:51:06Z</time>
  <course>336.86</course>
  <speed>0.191049731745428</speed>
  <fix>3d</fix>
</trkpt>
<trkpt lat="-27.2744212" lon="151.2900734">
  <ele>358.13</ele>
  <time>2026-09-01T19:51:06Z</time>
  <course>174.42</course>
  <speed>0.17</speed>
  <fix>3d</fix>
</trkpt>
<trkpt lat="-27.2744217" lon="151.2900732">
  <ele>357.96</ele>
  <time>2026-09-01T19:51:06Z</time>
  <course>335.47</course>
  <speed>0.2009975124224178</speed>
  <fix>3d</fix>
</trkpt>
<trkpt lat="-27.2744215" lon="151.2900735">
  <ele>358.13</ele>
  <time>2026-09-01T19:51:06Z</time>
  <course>179.46</course>
  <speed>0.2</speed>
  <fix>3d</fix>
</trkpt>
<trkpt lat="-27.2744219" lon="151.2900732">
  <ele>357.96</ele>
  <time>2026-09-01T19:51:06Z</time>
  <course>333.72</course>
  <speed>0.21213203435596426</speed>
  <fix>3d</fix>
</trkpt>
<trkpt lat="-27.2744215" lon="151.2900735">
  <ele>358.13</ele>
  <time>2026-09-01T19:51:06Z</time>
  <course>179.46</course>
  <speed>0.2</speed>
  <fix>3d</fix>
</trkpt>
<trkpt lat="-27.2744221" lon="151.2900731">
  <ele>357.96</ele>
  <time>2026-09-01T19:51:06Z</time>
  <course>331.86</course>
  <speed>0.23345235059857505</speed>
  <fix>3d</fix>
</trkpt>
<trkpt lat="-27.2744219" lon="151.2900734">
  <ele>358.12</ele>
  <time>2026-09-01T19:51:06Z</time>
  <course>183.52</course>
  <speed>0.22</speed>
  <fix>3d</fix>
</trkpt>
<trkpt lat="-27.2744223" lon="151.2900731">
  <ele>357.96</ele>
  <time>2026-09-01T19:51:06Z</time>
  <course>330.14</course>
  <speed>0.24515301344262524</speed>
  <fix>3d</fix>
</trkpt>
<trkpt lat="-27.2744219" lon="151.2900734">
  <ele>358.12</ele>
  <time>2026-09-01T19:51:06Z</time>
  <course>183.52</course>
  <speed>0.22</speed>
  <fix>3d</fix>
</trkpt>
<trkpt lat="-27.2744225" lon="151.2900731">
  <ele>357.96</ele>
  <time>2026-09-01T19:51:06Z</time>
  <course>328.77</course>
  <speed>0.2570992026436488</speed>
  <fix>3d</fix>
</trkpt>
<trkpt lat="-27.2744223" lon="151.2900733">
  <ele>358.12</ele>
  <time>2026-09-01T19:51:06Z</time>
  <course>187.34</course>
  <speed>0.25</speed>
  <fix>3d</fix>
</trkpt>
<trkpt lat="-27.2744227" lon="151.2900731">
  <ele>357.96</ele>
  <time>2026-09-01T19:51:06Z</time>
  <course>327.68</course>
  <speed>0.2596150997149434</speed>
  <fix>3d</fix>
</trkpt>
<trkpt lat="-27.2744223" lon="151.2900733">
  <ele>358.12</ele>
  <time>2026-09-01T19:51:06Z</time>
  <course>187.34</course>
  <speed>0.25</speed>
  <fix>3d</fix>
</trkpt>
<trkpt lat="-27.274423" lon="151.2900731">
  <ele>357.95</ele>
  <time>2026-09-01T19:51:06Z</time>
  <course>325.99</course>
  <speed>0.2720294101747089</speed>
  <fix>3d</fix>
</trkpt>
<trkpt lat="-27.2744227" lon="151.2900733">
  <ele>358.12</ele>
  <time>2026-09-01T19:51:06Z</time>
  <course>191.23</course>
  <speed>0.27</speed>
  <fix>3d</fix>
</trkpt>
<trkpt lat="-27.2744232" lon="151.290073">
  <ele>357.95</ele>
  <time>2026-09-01T19:51:06Z</time>
  <course>323.64</course>
  <speed>0.2879236009777594</speed>
  <fix>3d</fix>
</trkpt>
<trkpt lat="-27.2744227" lon="151.2900733">
  <ele>358.12</ele>
  <time>2026-09-01T19:51:06Z</time>
  <course>191.23</course>
  <speed>0.27</speed>
  <fix>3d</fix>
</trkpt>
<trkpt lat="-27.2744234" lon="151.2900729">
  <ele>357.95</ele>
  <time>2026-09-01T19:51:06Z</time>
  <course>320.89</course>
  <speed>0.30083217912982646</speed>
  <fix>3d</fix>
</trkpt>
<trkpt lat="-27.2744233" lon="151.2900733">
  <ele>358.12</ele>
  <time>2026-09-01T19:51:06Z</time>
  <course>195.18</course>
  <speed>0.29</speed>
  <fix>3d</fix>
</trkpt>
<trkpt lat="-27.2744237" lon="151.2900728">
  <ele>357.95</ele>
  <time>2026-09-01T19:51:06Z</time>
  <course>317.91</course>
  <speed>0.30463092423455634</speed>
  <fix>3d</fix>
</trkpt>
<trkpt lat="-27.2744233" lon="151.2900733">
  <ele>358.12</ele>
  <time>2026-09-01T19:51:06Z</time>
  <course>195.18</course>
  <speed>0.29</speed>
  <fix>3d</fix>
</trkpt>
<trkpt lat="-27.274424" lon="151.2900727">
  <ele>357.95</ele>
  <time>2026-09-01T19:51:06Z</time>
  <course>314.8</course>
  <speed>0.32202484376209234</speed>
  <fix>3d</fix>
</trkpt>
<trkpt lat="-27.2744238" lon="151.2900731">
  <ele>358.12</ele>
  <time>2026-09-01T19:51:06Z</time>
  <course>199.08</course>
  <speed>0.31</speed>
  <fix>3d</fix>
</trkpt>
<trkpt lat="-27.2744242" lon="151.2900726">
  <ele>357.96</ele>
  <time>2026-09-01T19:51:06Z</time>
  <course>311.61</course>
  <speed>0.33541019662496846</speed>
  <fix>3d</fix>
</trkpt>
<trkpt lat="-27.2744238" lon="151.2900731">
  <ele>358.12</ele>
  <time>2026-09-01T19:51:06Z</time>
  <course>199.08</course>
  <speed>0.31</speed>
  <fix>3d</fix>
</trkpt>
<trkpt lat="-27.2744245" lon="151.2900725">
  <ele>357.96</ele>
  <time>2026-09-01T19:51:06Z</time>
  <course>308.38</course>
  <speed>0.3535533905932738</speed>
  <fix>3d</fix>
</trkpt>
<trkpt lat="-27.2744243" lon="151.2900728">
  <ele>358.12</ele>
  <time>2026-09-01T19:51:06Z</time>
  <course>202.89</course>
  <speed>0.33</speed>
  <fix>3d</fix>
</trkpt>
<trkpt lat="-27.2744248" lon="151.2900723">
  <ele>357.96</ele>
  <time>2026-09-01T19:51:06Z</time>
  <course>305.1</course>
  <speed>0.3584689665786984</speed>
  <fix>3d</fix>
</trkpt>
<trkpt lat="-27.2744243" lon="151.2900728">
  <ele>358.12</ele>
  <time>2026-09-01T19:51:06Z</time>
  <course>202.89</course>
  <speed>0.33</speed>
  <fix>3d</fix>
</trkpt>
<trkpt lat="-27.2744251" lon="151.2900721">
  <ele>357.95</ele>
  <time>2026-09-01T19:51:06Z</time>
  <course>301.85</course>
  <speed>0.3773592452822641</speed>
  <fix>3d</fix>
</trkpt>
<trkpt lat="-27.2744249" lon="151.2900725">
  <ele>358.12</ele>
  <time>2026-09-01T19:51:06Z</time>
  <course>206.66</course>
  <speed>0.36</speed>
  <fix>3d</fix>
</trkpt>
<trkpt lat="-27.2744254" lon="151.2900719">
  <ele>357.95</ele>
  <time>2026-09-01T19:51:06Z</time>
  <course>298.58</course>
  <speed>0.3911521443121589</speed>
  <fix>3d</fix>
</trkpt>
<trkpt lat="-27.2744249" lon="151.2900725">
  <ele>358.12</ele>
  <time>2026-09-01T19:51:06Z</time>
  <course>206.66</course>
  <speed>0.36</speed>
  <fix>3d</fix>
</trkpt>
<trkpt lat="-27.2744257" lon="151.2900717">
  <ele>357.95</ele>
  <time>2026-09-01T19:51:06Z</time>
  <course>295.45</course>
  <speed>0.41340053217188777</speed>
  <fix>3d</fix>
</trkpt>
<trkpt lat="-27.2744255" lon="151.2900722">
  <ele>358.12</ele>
  <time>2026-09-01T19:51:06Z</time>
  <course>208.82</course>
  <speed>0.39</speed>
  <fix>3d</fix>
</trkpt>
<trkpt lat="-27.274426" lon="151.2900715">
  <ele>357.94</ele>
  <time>2026-09-01T19:51:06Z</time>
  <course>293.12</course>
  <speed>0.42720018726587655</speed>
  <fix>3d</fix>
</trkpt>
<trkpt lat="-27.2744255" lon="151.2900722">
  <ele>358.12</ele>
  <time>2026-09-01T19:51:06Z</time>
  <course>208.82</course>
  <speed>0.39</speed>
  <fix>3d</fix>
</trkpt>
<trkpt lat="-27.2744264" lon="151.2900713">
  <ele>357.94</ele>
  <time>2026-09-01T19:51:06Z</time>
  <course>291.89</course>
  <speed>0.4441846462902562</speed>
  <fix>3d</fix>
</trkpt>
<trkpt lat="-27.2744262" lon="151.2900718">
  <ele>358.12</ele>
  <time>2026-09-01T19:51:06Z</time>
  <course>208.95</course>
  <speed>0.42</speed>
  <fix>3d</fix>
</trkpt>
<trkpt lat="-27.2744267" lon="151.2900711">
  <ele>357.94</ele>
  <time>2026-09-01T19:51:06Z</time>
  <course>291.66</course>
  <speed>0.45793012567421243</speed>
  <fix>3d</fix>
</trkpt>
<trkpt lat="-27.2744262" lon="151.2900718">
  <ele>358.12</ele>
  <time>2026-09-01T19:51:06Z</time>
  <course>208.95</course>
  <speed>0.42</speed>
  <fix>3d</fix>
</trkpt>
<trkpt lat="-27.2744271" lon="151.2900709">
  <ele>357.94</ele>
  <time>2026-09-01T19:51:06Z</time>
  <course>292.2</course>
  <speed>0.46647615158762407</speed>
  <fix>3d</fix>
</trkpt>
<trkpt lat="-27.2744268" lon="151.2900713">
  <ele>358.12</ele>
  <time>2026-09-01T19:51:06Z</time>
  <course>208.78</course>
  <speed>0.45</speed>
  <fix>3d</fix>
</trkpt>
<trkpt lat="-27.2744275" lon="151.2900707">
  <ele>357.94</ele>
  <time>2026-09-01T19:51:06Z</time>
  <course>293.26</course>
  <speed>0.4802082881417188</speed>
  <fix>3d</fix>
</trkpt>
<trkpt lat="-27.2744268" lon="151.2900713">
  <ele>358.12</ele>
  <time>2026-09-01T19:51:06Z</time>
  <course>208.78</course>
  <speed>0.45</speed>
  <fix>3d</fix>
</trkpt>
<trkpt lat="-27.2744279" lon="151.2900704">
  <ele>357.94</ele>
  <time>2026-09-01T19:51:06Z</time>
  <course>294.61</course>
  <speed>0.4939635614091387</speed>
  <fix>3d</fix>
</trkpt>
<trkpt lat="-27.2744276" lon="151.2900709">
  <ele>358.12</ele>
  <time>2026-09-01T19:51:06Z</time>
  <course>208.96</course>
  <speed>0.48</speed>
  <fix>3d</fix>
</trkpt>
<trkpt lat="-27.2744282" lon="151.2900702">
  <ele>357.94</ele>
  <time>2026-09-01T19:51:06Z</time>
  <course>296.04</course>
  <speed>0.5024937810560445</speed>
  <fix>3d</fix>
</trkpt>
<trkpt lat="-27.2744276" lon="151.2900709">
  <ele>358.12</ele>
  <time>2026-09-01T19:51:06Z</time>
  <course>208.96</course>
  <speed>0.48</speed>
  <fix>3d</fix>
</trkpt>
<trkpt lat="-27.2744286" lon="151.29007">
  <ele>357.94</ele>
  <time>2026-09-01T19:51:06Z</time>
  <course>297.38</course>
  <speed>0.5162363799656123</speed>
  <fix>3d</fix>
</trkpt>
<trkpt lat="-27.2744284" lon="151.2900704">
  <ele>358.12</ele>
  <time>2026-09-01T19:51:06Z</time>
  <course>209.27</course>
  <speed>0.5</speed>
  <fix>3d</fix>
</trkpt>
<trkpt lat="-27.2744291" lon="151.2900697">
  <ele>357.94</ele>
  <time>2026-09-01T19:51:06Z</time>
  <course>298.48</course>
  <speed>0.53</speed>
  <fix>3d</fix>
</trkpt>
<trkpt lat="-27.2744284" lon="151.2900704">
  <ele>358.12</ele>
  <time>2026-09-01T19:51:06Z</time>
  <course>209.27</course>
  <speed>0.5</speed>
  <fix>3d</fix>
</trkpt>
<trkpt lat="-27.2744295" lon="151.2900694">
  <ele>357.94</ele>
  <time>2026-09-01T19:51:06Z</time>
  <course>299.24</course>
  <speed>0.53</speed>
  <fix>3d</fix>
</trkpt>
<trkpt lat="-27.2744292" lon="151.2900699">
  <ele>358.12</ele>
  <time>2026-09-01T19:51:06Z</time>
  <course>209.57</course>
  <speed>0.52</speed>
  <fix>3d</fix>
</trkpt>
<trkpt lat="-27.2744299" lon="151.2900692">
  <ele>357.94</ele>
  <time>2026-09-01T19:51:06Z</time>
  <course>299.62</course>
  <speed>0.543783044972901</speed>
  <fix>3d</fix>
</trkpt>
<trkpt lat="-27.2744292" lon="151.2900699">
  <ele>358.12</ele>
  <time>2026-09-01T19:51:06Z</time>
  <course>209.57</course>
  <speed>0.52</speed>
  <fix>3d</fix>
</trkpt>
<trkpt lat="-27.2744303" lon="151.2900689">
  <ele>357.94</ele>
  <time>2026-09-01T19:51:06Z</time>
  <course>299.65</course>
  <speed>0.5575840743780259</speed>
  <fix>3d</fix>
</trkpt>
<trkpt lat="-27.27443" lon="151.2900694">
  <ele>358.12</ele>
  <time>2026-09-01T19:51:06Z</time>
  <course>209.98</course>
  <speed>0.54</speed>
  <fix>3d</fix>
</trkpt>
<trkpt lat="-27.2744307" lon="151.2900686">
  <ele>357.94</ele>
  <time>2026-09-01T19:51:06Z</time>
  <course>299.41</course>
  <speed>0.5575840743780259</speed>
  <fix>3d</fix>
</trkpt>
<trkpt lat="-27.27443" lon="151.2900694">
  <ele>358.12</ele>
  <time>2026-09-01T19:51:06Z</time>
  <course>209.98</course>
  <speed>0.54</speed>
  <fix>3d</fix>
</trkpt>
<trkpt lat="-27.2744312" lon="151.2900683">
  <ele>357.94</ele>
  <time>2026-09-01T19:51:06Z</time>
  <course>299.41</course>
  <speed>0.5660388679233962</speed>
  <fix>3d</fix>
</trkpt>
<trkpt lat="-27.2744309" lon="151.2900687">
  <ele>358.13</ele>
  <time>2026-09-01T19:51:06Z</time>
  <course>210.27</course>
  <speed>0.55</speed>
  <fix>3d</fix>
</trkpt>
<trkpt lat="-27.2744316" lon="151.2900681">
  <ele>357.95</ele>
  <time>2026-09-01T19:51:06Z</time>
  <course>300.53</course>
  <speed>0.5714017850864661</speed>
  <fix>3d</fix>
</trkpt>
<trkpt lat="-27.2744309" lon="151.2900687">
  <ele>358.13</ele>
  <time>2026-09-01T19:51:06Z</time>
  <course>210.27</course>
  <speed>0.55</speed>
  <fix>3d</fix>
</trkpt>
<trkpt lat="-27.2744321" lon="151.2900677">
  <ele>357.95</ele>
  <time>2026-09-01T19:51:06Z</time>
  <course>302.49</course>
  <speed>0.5768882040742382</speed>
  <fix>3d</fix>
</trkpt>
<trkpt lat="-27.2744317" lon="151.2900682">
  <ele>358.13</ele>
  <time>2026-09-01T19:51:06Z</time>
  <course>211.09</course>
  <speed>0.57</speed>
  <fix>3d</fix>
</trkpt>
<trkpt lat="-27.2744325" lon="151.2900674">
  <ele>357.94</ele>
  <time>2026-09-01T19:51:06Z</time>
  <course>304.95</course>
  <speed>0.5940538696111658</speed>
  <fix>3d</fix>
</trkpt>
<trkpt lat="-27.2744317" lon="151.2900682">
  <ele>358.13</ele>
  <time>2026-09-01T19:51:06Z</time>
  <course>211.09</course>
  <speed>0.57</speed>
  <fix>3d</fix>
</trkpt>
<trkpt lat="-27.2744329" lon="151.2900671">
  <ele>357.95</ele>
  <time>2026-09-01T19:51:06Z</time>
  <course>307.65</course>
  <speed>0.5981638571495272</speed>
  <fix>3d</fix>
</trkpt>
<trkpt lat="-27.2744326" lon="151.2900676">
  <ele>358.13</ele>
  <time>2026-09-01T19:51:06Z</time>
  <course>214.17</course>
  <speed>0.58</speed>
  <fix>3d</fix>
</trkpt>
<trkpt lat="-27.2744334" lon="151.2900667">
  <ele>357.95</ele>
  <time>2026-09-01T19:51:06Z</time>
  <course>310.53</course>
  <speed>0.6030754513325841</speed>
  <fix>3d</fix>
</trkpt>
<trkpt lat="-27.2744326" lon="151.2900676">
  <ele>358.13</ele>
  <time>2026-09-01T19:51:06Z</time>
  <course>214.17</course>
  <speed>0.58</speed>
  <fix>3d</fix>
</trkpt>
<trkpt lat="-27.2744338" lon="151.2900663">
  <ele>357.95</ele>
  <time>2026-09-01T19:51:06Z</time>
  <course>313.5</course>
  <speed>0.608276253029822</speed>
  <fix>3d</fix>
</trkpt>
<trkpt lat="-27.2744335" lon="151.2900669">
  <ele>358.13</ele>
  <time>2026-09-01T19:51:06Z</time>
  <course>219.0</course>
  <speed>0.59</speed>
  <fix>3d</fix>
</trkpt>
<trkpt lat="-27.2744342" lon="151.2900659">
  <ele>357.95</ele>
  <time>2026-09-01T19:51:06Z</time>
  <course>316.51</course>
  <speed>0.6152235366108809</speed>
  <fix>3d</fix>
</trkpt>
<trkpt lat="-27.2744335" lon="151.2900669">
  <ele>358.13</ele>
  <time>2026-09-01T19:51:06Z</time>
  <course>219.0</course>
  <speed>0.59</speed>
  <fix>3d</fix>
</trkpt>
<trkpt lat="-27.2744346" lon="151.2900655">
  <ele>357.95</ele>
  <time>2026-09-01T19:51:06Z</time>
  <course>319.57</course>
  <speed>0.6161980201201558</speed>
  <fix>3d</fix>
</trkpt>
<trkpt lat="-27.2744343" lon="151.2900661">
  <ele>358.13</ele>
  <time>2026-09-01T19:51:06Z</time>
  <course>224.05</course>
  <speed>0.6</speed>
  <fix>3d</fix>
</trkpt>
<trkpt lat="-27.2744349" lon="151.290065">
  <ele>357.95</ele>
  <time>2026-09-01T19:51:06Z</time>
  <course>322.61</course>
  <speed>0.6184658438426491</speed>
  <fix>3d</fix>
</trkpt>
<trkpt lat="-27.2744343" lon="151.2900661">
  <ele>358.13</ele>
  <time>2026-09-01T19:51:06Z</time>
  <course>224.05</course>
  <speed>0.6</speed>
  <fix>3d</fix>
</trkpt>
<trkpt lat="-27.2744353" lon="151.2900645">
  <ele>357.95</ele>
  <time>2026-09-01T19:51:06Z</time>
  <course>325.27</course>
  <speed>0.6220128616033594</speed>
  <fix>3d</fix>
</trkpt>
<trkpt lat="-27.274435" lon="151.2900652">
  <ele>358.13</ele>
  <time>2026-09-01T19:51:06Z</time>
  <course>229.17</course>
  <speed>0.6</speed>
  <fix>3d</fix>
</trkpt>
<trkpt lat="-27.2744356" lon="151.290064">
  <ele>357.95</ele>
  <time>2026-09-01T19:51:06Z</time>
  <course>326.87</course>
  <speed>0.6268173577685928</speed>
  <fix>3d</fix>
</trkpt>
<trkpt lat="-27.274435" lon="151.2900652">
  <ele>358.13</ele>
  <time>2026-09-01T19:51:06Z</time>
  <course>229.17</course>
  <speed>0.6</speed>
  <fix>3d</fix>
</trkpt>
<trkpt lat="-27.2744359" lon="151.2900635">
  <ele>357.96</ele>
  <time>2026-09-01T19:51:06Z</time>
  <course>327.31</course>
  <speed>0.6243396511515187</speed>
  <fix>3d</fix>
</trkpt>
<trkpt lat="-27.2744357" lon="151.2900642">
  <ele>358.13</ele>
  <time>2026-09-01T19:51:06Z</time>
  <course>234.14</course>
  <speed>0.61</speed>
  <fix>3d</fix>
</trkpt>
<trkpt lat="-27.2744362" lon="151.290063">
  <ele>357.96</ele>
  <time>2026-09-01T19:51:06Z</time>
  <course>326.82</course>
  <speed>0.6276941930590086</speed>
  <fix>3d</fix>
</trkpt>
<trkpt lat="-27.2744357" lon="151.2900642">
  <ele>358.13</ele>
  <time>2026-09-01T19:51:06Z</time>
  <course>234.14</course>
  <speed>0.61</speed>
  <fix>3d</fix>
</trkpt>
<trkpt lat="-27.2744365" lon="151.2900625">
  <ele>357.96</ele>
  <time>2026-09-01T19:51:06Z</time>
  <course>325.67</course>
  <speed>0.6243396511515187</speed>
  <fix>3d</fix>
</trkpt>
<trkpt lat="-27.2744363" lon="151.2900632">
  <ele>358.13</ele>
  <time>2026-09-01T19:51:06Z</time>
  <course>236.83</course>
  <speed>0.61</speed>
  <fix>3d</fix>
</trkpt>
<trkpt lat="-27.2744368" lon="151.290062">
  <ele>357.96</ele>
  <time>2026-09-01T19:51:06Z</time>
  <course>324.17</course>
  <speed>0.6243396511515187</speed>
  <fix>3d</fix>
</trkpt>
<trkpt lat="-27.2744363" lon="151.2900632">
  <ele>358.13</ele>
  <time>2026-09-01T19:51:06Z</time>
  <course>236.83</course>
  <speed>0.61</speed>
  <fix>3d</fix>
</trkpt>
<trkpt lat="-27.2744371" lon="151.2900615">
  <ele>357.96</ele>
  <time>2026-09-01T19:51:06Z</time>
  <course>322.55</course>
  <speed>0.6243396511515187</speed>
  <fix>3d</fix>
</trkpt>
<trkpt lat="-27.2744369" lon="151.2900622">
  <ele>358.14</ele>
  <time>2026-09-01T19:51:06Z</time>
  <course>236.88</course>
  <speed>0.6</speed>
  <fix>3d</fix>
</trkpt>
<trkpt lat="-27.2744374" lon="151.290061">
  <ele>357.97</ele>
  <time>2026-09-01T19:51:06Z</time>
  <course>321.08</course>
  <speed>0.6158733636065129</speed>
  <fix>3d</fix>
</trkpt>
<trkpt lat="-27.2744369" lon="151.2900622">
  <ele>358.14</ele>
  <time>2026-09-01T19:51:06Z</time>
  <course>236.88</course>
  <speed>0.6</speed>
  <fix>3d</fix>
</trkpt>
<trkpt lat="-27.2744377" lon="151.2900605">
  <ele>357.97</ele>
  <time>2026-09-01T19:51:07Z</time>
  <course>319.91</course>
  <speed>0.6158733636065129</speed>
  <fix>3d</fix>
</trkpt>
<trkpt lat="-27.2744375" lon="151.2900612">
  <ele>358.14</ele>
  <time>2026-09-01T19:51:07Z</time>
  <course>236.38</course>
  <speed>0.6</speed>
  <fix>3d</fix>
</trkpt>
<trkpt lat="-27.274438" lon="151.29006">
  <ele>357.97</ele>
  <time>2026-09-01T19:51:07Z</time>
  <course>318.86</course>
  <speed>0.6074537019394977</speed>
  <fix>3d</fix>
</trkpt>
<trkpt lat="-27.2744375" lon="151.2900612">
  <ele>358.14</ele>
  <time>2026-09-01T19:51:07Z</time>
  <course>236.38</course>
  <speed>0.6</speed>
  <fix>3d</fix>
</trkpt>
<trkpt lat="-27.2744383" lon="151.2900595">
  <ele>357.97</ele>
  <time>2026-09-01T19:51:07Z</time>
  <course>317.16</course>
  <speed>0.6074537019394977</speed>
  <fix>3d</fix>
</trkpt>
<trkpt lat="-27.2744381" lon="151.2900602">
  <ele>358.14</ele>
  <time>2026-09-01T19:51:07Z</time>
  <course>235.85</course>
  <speed>0.59</speed>
  <fix>3d</fix>
</trkpt>
<trkpt lat="-27.2744386" lon="151.290059">
  <ele>357.97</ele>
  <time>2026-09-01T19:51:07Z</time>
  <course>314.92</course>
  <speed>0.6074537019394977</speed>
  <fix>3d</fix>
</trkpt>
<trkpt lat="-27.2744381" lon="151.2900602">
  <ele>358.14</ele>
  <time>2026-09-01T19:51:07Z</time>
  <course>235.85</course>
  <speed>0.59</speed>
  <fix>3d</fix>
</trkpt>
<trkpt lat="-27.2744389" lon="151.2900585">
  <ele>357.98</ele>
  <time>2026-09-01T19:51:07Z</time>
  <course>312.38</course>
  <speed>0.5990826320300063</speed>
  <fix>3d</fix>
</trkpt>
<trkpt lat="-27.2744387" lon="151.2900592">
  <ele>358.14</ele>
  <time>2026-09-01T19:51:07Z</time>
  <course>235.31</course>
  <speed>0.59</speed>
  <fix>3d</fix>
</trkpt>
<trkpt lat="-27.2744392" lon="151.290058">
  <ele>357.98</ele>
  <time>2026-09-01T19:51:07Z</time>
  <course>309.68</course>
  <speed>0.5990826320300063</speed>
  <fix>3d</fix>
</trkpt>
<trkpt lat="-27.2744387" lon="151.2900592">
  <ele>358.14</ele>
  <time>2026-09-01T19:51:07Z</time>
  <course>235.31</course>
  <speed>0.59</speed>
  <fix>3d</fix>
</trkpt>
<trkpt lat="-27.2744395" lon="151.2900575">
  <ele>357.98</ele>
  <time>2026-09-01T19:51:07Z</time>
  <course>306.91</course>
  <speed>0.5907622195096772</speed>
  <fix>3d</fix>
</trkpt>
<trkpt lat="-27.2744393" lon="151.2900582">
  <ele>358.14</ele>
  <time>2026-09-01T19:51:07Z</time>
  <course>234.8</course>
  <speed>0.58</speed>
  <fix>3d</fix>
</trkpt>
<trkpt lat="-27.2744398" lon="151.2900571">
  <ele>357.97</ele>
  <time>2026-09-01T19:51:07Z</time>
  <course>304.08</course>
  <speed>0.5907622195096772</speed>
  <fix>3d</fix>
</trkpt>
<trkpt lat="-27.2744393" lon="151.2900582">
  <ele>358.14</ele>
  <time>2026-09-01T19:51:07Z</time>
  <course>234.8</course>
  <speed>0.58</speed>
  <fix>3d</fix>
</trkpt>
<trkpt lat="-27.2744401" lon="151.2900566">
  <ele>357.97</ele>
  <time>2026-09-01T19:51:07Z</time>
  <course>301.21</course>
  <speed>0.5907622195096772</speed>
  <fix>3d</fix>
</trkpt>
<trkpt lat="-27.27444" lon="151.2900572">
  <ele>358.14</ele>
  <time>2026-09-01T19:51:07Z</time>
  <course>234.31</course>
  <speed>0.57</speed>
  <fix>3d</fix>
</trkpt>
<trkpt lat="-27.2744405" lon="151.2900561">
  <ele>357.97</ele>
  <time>2026-09-01T19:51:07Z</time>
  <course>298.34</course>
  <speed>0.5824946351684279</speed>
  <fix>3d</fix>
</trkpt>
<trkpt lat="-27.27444" lon="151.2900572">
  <ele>358.14</ele>
  <time>2026-09-01T19:51:07Z</time>
  <course>234.31</course>
  <speed>0.57</speed>
  <fix>3d</fix>
</trkpt>
<trkpt lat="-27.2744408" lon="151.2900557">
  <ele>357.97</ele>
  <time>2026-09-01T19:51:07Z</time>
  <course>295.46</course>
  <speed>0.5824946351684279</speed>
  <fix>3d</fix>
</trkpt>
<trkpt lat="-27.2744406" lon="151.2900563">
  <ele>358.13</ele>
  <time>2026-09-01T19:51:07Z</time>
  <course>233.84</course>
  <speed>0.57</speed>
  <fix>3d</fix>
</trkpt>
<trkpt lat="-27.2744411" lon="151.2900552">
  <ele>357.96</ele>
  <time>2026-09-01T19:51:07Z</time>
  <course>292.55</course>
  <speed>0.5824946351684279</speed>
  <fix>3d</fix>
</trkpt>
<trkpt lat="-27.2744406" lon="151.2900563">
  <ele>358.13</ele>
  <time>2026-09-01T19:51:07Z</time>
  <course>233.84</course>
  <speed>0.57</speed>
  <fix>3d</fix>
</trkpt>
<trkpt lat="-27.2744414" lon="151.2900548">
  <ele>357.96</ele>
  <time>2026-09-01T19:51:07Z</time>
  <course>289.67</course>
  <speed>0.5800862004909271</speed>
  <fix>3d</fix>
</trkpt>
<trkpt lat="-27.2744412" lon="151.2900553">
  <ele>358.13</ele>
  <time>2026-09-01T19:51:07Z</time>
  <course>233.37</course>
  <speed>0.56</speed>
  <fix>3d</fix>
</trkpt>
<trkpt lat="-27.2744417" lon="151.2900543">
  <ele>357.96</ele>
  <time>2026-09-01T19:51:07Z</time>
  <course>286.96</course>
  <speed>0.5800862004909271</speed>
  <fix>3d</fix>
</trkpt>
<trkpt lat="-27.2744412" lon="151.2900553">
  <ele>358.13</ele>
  <time>2026-09-01T19:51:07Z</time>
  <course>233.37</course>
  <speed>0.56</speed>
  <fix>3d</fix>
</trkpt>
<trkpt lat="-27.274442" lon="151.2900538">
  <ele>357.96</ele>
  <time>2026-09-01T19:51:07Z</time>
  <course>285.01</course>
  <speed>0.5800862004909271</speed>
  <fix>3d</fix>
</trkpt>
<trkpt lat="-27.2744418" lon="151.2900544">
  <ele>358.12</ele>
  <time>2026-09-01T19:51:07Z</time>
  <course>232.93</course>
  <speed>0.56</speed>
  <fix>3d</fix>
</trkpt>
<trkpt lat="-27.2744423" lon="151.2900534">
  <ele>357.96</ele>
  <time>2026-09-01T19:51:07Z</time>
  <course>284.05</course>
  <speed>0.5720139858430037</speed>
  <fix>3d</fix>
</trkpt>
<trkpt lat="-27.2744418" lon="151.2900544">
  <ele>358.12</ele>
  <time>2026-09-01T19:51:07Z</time>
  <course>232.93</course>
  <speed>0.56</speed>
  <fix>3d</fix>
</trkpt>
<trkpt lat="-27.2744426" lon="151.2900529">
  <ele>357.96</ele>
  <time>2026-09-01T19:51:07Z</time>
  <course>283.98</course>
  <speed>0.5580322571321482</speed>
  <fix>3d</fix>
</trkpt>
<trkpt lat="-27.2744424" lon="151.2900535">
  <ele>358.12</ele>
  <time>2026-09-01T19:51:07Z</time>
  <course>232.47</course>
  <speed>0.55</speed>
  <fix>3d</fix>
</trkpt>
<trkpt lat="-27.2744429" lon="151.2900525">
  <ele>357.95</ele>
  <time>2026-09-01T19:51:07Z</time>
  <course>284.58</course>
  <speed>0.5580322571321482</speed>
  <fix>3d</fix>
</trkpt>
<trkpt lat="-27.2744424" lon="151.2900535">
  <ele>358.12</ele>
  <time>2026-09-01T19:51:07Z</time>
  <course>232.47</course>
  <speed>0.55</speed>
  <fix>3d</fix>
</trkpt>
<trkpt lat="-27.2744432" lon="151.2900521">
  <ele>357.95</ele>
  <time>2026-09-01T19:51:07Z</time>
  <course>285.61</course>
  <speed>0.55</speed>
  <fix>3d</fix>
</trkpt>
<trkpt lat="-27.274443" lon="151.2900527">
  <ele>358.12</ele>
  <time>2026-09-01T19:51:07Z</time>
  <course>231.94</course>
  <speed>0.54</speed>
  <fix>3d</fix>
</trkpt>
<trkpt lat="-27.2744435" lon="151.2900517">
  <ele>357.95</ele>
  <time>2026-09-01T19:51:07Z</time>
  <course>286.87</course>
  <speed>0.5360037313302959</speed>
  <fix>3d</fix>
</trkpt>
<trkpt lat="-27.274443" lon="151.2900527">
  <ele>358.12</ele>
  <time>2026-09-01T19:51:07Z</time>
  <course>231.94</course>
  <speed>0.54</speed>
  <fix>3d</fix>
</trkpt>
<trkpt lat="-27.2744438" lon="151.2900513">
  <ele>357.95</ele>
  <time>2026-09-01T19:51:07Z</time>
  <course>288.18</course>
  <speed>0.5280151512977634</speed>
  <fix>3d</fix>
</trkpt>
<trkpt lat="-27.2744436" lon="151.2900518">
  <ele>358.12</ele>
  <time>2026-09-01T19:51:07Z</time>
  <course>231.32</course>
  <speed>0.52</speed>
  <fix>3d</fix>
</trkpt>
<trkpt lat="-27.2744441" lon="151.2900509">
  <ele>357.95</ele>
  <time>2026-09-01T19:51:07Z</time>
  <course>289.36</course>
  <speed>0.5200961449578337</speed>
  <fix>3d</fix>
</trkpt>
<trkpt lat="-27.2744436" lon="151.2900518">
  <ele>358.12</ele>
  <time>2026-09-01T19:51:07Z</time>
  <course>231.32</course>
  <speed>0.52</speed>
  <fix>3d</fix>
</trkpt>
<trkpt lat="-27.2744444" lon="151.2900505">
  <ele>357.95</ele>
  <time>2026-09-01T19:51:07Z</time>
  <course>290.28</course>
  <speed>0.5060632371551997</speed>
  <fix>3d</fix>
</trkpt>
<trkpt lat="-27.2744441" lon="151.290051">
  <ele>358.12</ele>
  <time>2026-09-01T19:51:07Z</time>
  <course>230.63</course>
  <speed>0.5</speed>
  <fix>3d</fix>
</trkpt>
<trkpt lat="-27.2744447" lon="151.2900501">
  <ele>357.95</ele>
  <time>2026-09-01T19:51:07Z</time>
  <course>290.87</course>
  <speed>0.498196748283246</speed>
  <fix>3d</fix>
</trkpt>
<trkpt lat="-27.2744441" lon="151.290051">
  <ele>358.12</ele>
  <time>2026-09-01T19:51:07Z</time>
  <course>230.63</course>
  <speed>0.5</speed>
  <fix>3d</fix>
</trkpt>
<trkpt lat="-27.2744449" lon="151.2900497">
  <ele>357.95</ele>
  <time>2026-09-01T19:51:07Z</time>
  <course>291.12</course>
  <speed>0.47634021455258213</speed>
  <fix>3d</fix>
</trkpt>
<trkpt lat="-27.2744447" lon="151.2900502">
  <ele>358.12</ele>
  <time>2026-09-01T19:51:07Z</time>
  <course>229.9</course>
  <speed>0.47</speed>
  <fix>3d</fix>
</trkpt>
<trkpt lat="-27.2744452" lon="151.2900494">
  <ele>357.96</ele>
  <time>2026-09-01T19:51:07Z</time>
  <course>291.07</course>
  <speed>0.4622769732530488</speed>
  <fix>3d</fix>
</trkpt>
<trkpt lat="-27.2744447" lon="151.2900502">
  <ele>358.12</ele>
  <time>2026-09-01T19:51:07Z</time>
  <course>229.9</course>
  <speed>0.47</speed>
  <fix>3d</fix>
</trkpt>
<trkpt lat="-27.2744455" lon="151.2900491">
  <ele>357.96</ele>
  <time>2026-09-01T19:51:07Z</time>
  <course>290.82</course>
  <speed>0.45453272709454046</speed>
  <fix>3d</fix>
</trkpt>
<trkpt lat="-27.2744452" lon="151.2900495">
  <ele>358.12</ele>
  <time>2026-09-01T19:51:07Z</time>
  <course>229.13</course>
  <speed>0.45</speed>
  <fix>3d</fix>
</trkpt>
<trkpt lat="-27.2744457" lon="151.2900487">
  <ele>357.96</ele>
  <time>2026-09-01T19:51:07Z</time>
  <course>291.26</course>
  <speed>0.44045431091090476</speed>
  <fix>3d</fix>
</trkpt>
<trkpt lat="-27.2744452" lon="151.2900495">
  <ele>358.12</ele>
  <time>2026-09-01T19:51:07Z</time>
  <course>229.13</course>
  <speed>0.45</speed>
  <fix>3d</fix>
</trkpt>
<trkpt lat="-27.274446" lon="151.2900484">
  <ele>357.96</ele>
  <time>2026-09-01T19:51:07Z</time>
  <course>292.72</course>
  <speed>0.42638011210655685</speed>
  <fix>3d</fix>
</trkpt>
<trkpt lat="-27.2744457" lon="151.2900488">
  <ele>358.12</ele>
  <time>2026-09-01T19:51:07Z</time>
  <course>228.29</course>
  <speed>0.42</speed>
  <fix>3d</fix>
</trkpt>
<trkpt lat="-27.2744462" lon="151.2900481">
  <ele>357.96</ele>
  <time>2026-09-01T19:51:07Z</time>
  <course>294.83</course>
  <speed>0.41109609582188933</speed>
  <fix>3d</fix>
</trkpt>
<trkpt lat="-27.2744457" lon="151.2900488">
  <ele>358.12</ele>
  <time>2026-09-01T19:51:07Z</time>
  <course>228.29</course>
  <speed>0.42</speed>
  <fix>3d</fix>
</trkpt>
<trkpt lat="-27.2744464" lon="151.2900478">
  <ele>357.96</ele>
  <time>2026-09-01T19:51:07Z</time>
  <course>297.31</course>
  <speed>0.39698866482558415</speed>
  <fix>3d</fix>
</trkpt>
<trkpt lat="-27.2744462" lon="151.2900483">
  <ele>358.12</ele>
  <time>2026-09-01T19:51:07Z</time>
  <course>227.34</course>
  <speed>0.39</speed>
  <fix>3d</fix>
</trkpt>
<trkpt lat="-27.2744467" lon="151.2900475">
  <ele>357.96</ele>
  <time>2026-09-01T19:51:07Z</time>
  <course>300.02</course>
  <speed>0.38948684188300897</speed>
  <fix>3d</fix>
</trkpt>
<trkpt lat="-27.2744462" lon="151.2900483">
  <ele>358.12</ele>
  <time>2026-09-01T19:51:07Z</time>
  <course>227.34</course>
  <speed>0.39</speed>
  <fix>3d</fix>
</trkpt>
<trkpt lat="-27.2744469" lon="151.2900473">
  <ele>357.96</ele>
  <time>2026-09-01T19:51:07Z</time>
  <course>302.82</course>
  <speed>0.3753664875824692</speed>
  <fix>3d</fix>
</trkpt>
<trkpt lat="-27.2744467" lon="151.2900477">
  <ele>358.12</ele>
  <time>2026-09-01T19:51:07Z</time>
  <course>226.22</course>
  <speed>0.37</speed>
  <fix>3d</fix>
</trkpt>
<trkpt lat="-27.2744471" lon="151.290047">
  <ele>357.95</ele>
  <time>2026-09-01T19:51:07Z</time>
  <course>305.68</course>
  <speed>0.36124783736376886</speed>
  <fix>3d</fix>
</trkpt>
<trkpt lat="-27.2744467" lon="151.2900477">
  <ele>358.12</ele>
  <time>2026-09-01T19:51:07Z</time>
  <course>226.22</course>
  <speed>0.37</speed>
  <fix>3d</fix>
</trkpt>
<trkpt lat="-27.2744473" lon="151.2900468">
  <ele>357.95</ele>
  <time>2026-09-01T19:51:07Z</time>
  <course>308.58</course>
  <speed>0.34655446902326914</speed>
  <fix>3d</fix>
</trkpt>
<trkpt lat="-27.2744472" lon="151.2900472">
  <ele>358.12</ele>
  <time>2026-09-01T19:51:07Z</time>
  <course>224.89</course>
  <speed>0.34</speed>
  <fix>3d</fix>
</trkpt>
<trkpt lat="-27.2744475" lon="151.2900465">
  <ele>357.95</ele>
  <time>2026-09-01T19:51:07Z</time>
  <course>311.48</course>
  <speed>0.33241540277189324</speed>
  <fix>3d</fix>
</trkpt>
<trkpt lat="-27.2744472" lon="151.2900472">
  <ele>358.12</ele>
  <time>2026-09-01T19:51:07Z</time>
  <course>224.89</course>
  <speed>0.34</speed>
  <fix>3d</fix>
</trkpt>
<trkpt lat="-27.2744478" lon="151.2900463">
  <ele>357.95</ele>
  <time>2026-09-01T19:51:07Z</time>
  <course>313.9</course>
  <speed>0.31827660925679097</speed>
  <fix>3d</fix>
</trkpt>
<trkpt lat="-27.2744476" lon="151.2900467">
  <ele>358.12</ele>
  <time>2026-09-01T19:51:07Z</time>
  <course>223.5</course>
  <speed>0.31</speed>
  <fix>3d</fix>
</trkpt>
<trkpt lat="-27.274448" lon="151.2900461">
  <ele>357.94</ele>
  <time>2026-09-01T19:51:07Z</time>
  <course>315.3</course>
  <speed>0.304138126514911</speed>
  <fix>3d</fix>
</trkpt>
<trkpt lat="-27.2744476" lon="151.2900467">
  <ele>358.12</ele>
  <time>2026-09-01T19:51:07Z</time>
  <course>223.5</course>
  <speed>0.31</speed>
  <fix>3d</fix>
</trkpt>
<trkpt lat="-27.2744481" lon="151.2900459">
  <ele>357.94</ele>
  <time>2026-09-01T19:51:07Z</time>
  <course>315.64</course>
  <speed>0.2906888370749727</speed>
  <fix>3d</fix>
</trkpt>
<trkpt lat="-27.274448" lon="151.2900462">
  <ele>358.12</ele>
  <time>2026-09-01T19:51:07Z</time>
  <course>223.71</course>
  <speed>0.28</speed>
  <fix>3d</fix>
</trkpt>
<trkpt lat="-27.2744483" lon="151.2900457">
  <ele>357.94</ele>
  <time>2026-09-01T19:51:07Z</time>
  <course>315.13</course>
  <speed>0.2765863337187866</speed>
  <fix>3d</fix>
</trkpt>
<trkpt lat="-27.274448" lon="151.2900462">
  <ele>358.12</ele>
  <time>2026-09-01T19:51:07Z</time>
  <course>223.71</course>
  <speed>0.28</speed>
  <fix>3d</fix>
</trkpt>
<trkpt lat="-27.2744485" lon="151.2900455">
  <ele>357.95</ele>
  <time>2026-09-01T19:51:07Z</time>
  <course>314.02</course>
  <speed>0.25495097567963926</speed>
  <fix>3d</fix>
</trkpt>
<trkpt lat="-27.2744483" lon="151.2900459">
  <ele>358.12</ele>
  <time>2026-09-01T19:51:07Z</time>
  <course>224.76</course>
  <speed>0.25</speed>
  <fix>3d</fix>
</trkpt>
<trkpt lat="-27.2744486" lon="151.2900454">
  <ele>357.95</ele>
  <time>2026-09-01T19:51:07Z</time>
  <course>312.56</course>
  <speed>0.24083189157584592</speed>
  <fix>3d</fix>
</trkpt>
<trkpt lat="-27.2744483" lon="151.2900459">
  <ele>358.12</ele>
  <time>2026-09-01T19:51:07Z</time>
  <course>224.76</course>
  <speed>0.25</speed>
  <fix>3d</fix>
</trkpt>
<trkpt lat="-27.2744488" lon="151.2900452">
  <ele>357.95</ele>
  <time>2026-09-01T19:51:07Z</time>
  <course>311.01</course>
  <speed>0.2193171219946131</speed>
  <fix>3d</fix>
</trkpt>
<trkpt lat="-27.2744486" lon="151.2900455">
  <ele>358.12</ele>
  <time>2026-09-01T19:51:07Z</time>
  <course>223.93</course>
  <speed>0.22</speed>
  <fix>3d</fix>
</trkpt>
<trkpt lat="-27.2744489" lon="151.2900451">
  <ele>357.95</ele>
  <time>2026-09-01T19:51:07Z</time>
  <course>309.58</course>
  <speed>0.20518284528683192</speed>
  <fix>3d</fix>
</trkpt>
<trkpt lat="-27.2744486" lon="151.2900455">
  <ele>358.12</ele>
  <time>2026-09-01T19:51:07Z</time>
  <course>223.93</course>
  <speed>0.22</speed>
  <fix>3d</fix>
</trkpt>
<trkpt lat="-27.274449" lon="151.290045">
  <ele>357.95</ele>
  <time>2026-09-01T19:51:07Z</time>
  <course>308.46</course>
  <speed>0.18384776310850234</speed>
  <fix>3d</fix>
</trkpt>
<trkpt lat="-27.2744489" lon="151.2900452">
  <ele>358.12</ele>
  <time>2026-09-01T19:51:07Z</time>
  <course>221.59</course>
  <speed>0.18</speed>
  <fix>3d</fix>
</trkpt>
<trkpt lat="-27.2744491" lon="151.2900448">
  <ele>357.95</ele>
  <time>2026-09-01T19:51:07Z</time>
  <course>307.5</course>
  <speed>0.1697056274847714</speed>
  <fix>3d</fix>
</trkpt>
<trkpt lat="-27.2744489" lon="151.2900452">
  <ele>358.12</ele>
  <time>2026-09-01T19:51:07Z</time>
  <course>221.59</course>
  <speed>0.18</speed>
  <fix>3d</fix>
</trkpt>
<trkpt lat="-27.2744492" lon="151.2900448">
  <ele>357.96</ele>
  <time>2026-09-01T19:51:07Z</time>
  <course>305.98</course>
  <speed>0.14866068747318506</speed>
  <fix>3d</fix>
</trkpt>
<trkpt lat="-27.2744492" lon="151.290045">
  <ele>358.12</ele>
  <time>2026-09-01T19:51:07Z</time>
  <course>217.97</course>
  <speed>0.15</speed>
  <fix>3d</fix>
</trkpt>
<trkpt lat="-27.2744493" lon="151.2900447">
  <ele>357.96</ele>
  <time>2026-09-01T19:51:07Z</time>
  <course>303.97</course>
  <speed>0.1345362404707371</speed>
  <fix>3d</fix>
</trkpt>
<trkpt lat="-27.2744492" lon="151.290045">
  <ele>358.12</ele>
  <time>2026-09-01T19:51:07Z</time>
  <course>217.97</course>
  <speed>0.15</speed>
  <fix>3d</fix>
</trkpt>
<trkpt lat="-27.2744494" lon="151.2900446">
  <ele>357.96</ele>
  <time>2026-09-01T19:51:07Z</time>
  <course>301.69</course>
  <speed>0.11401754250991379</speed>
  <fix>3d</fix>
</trkpt>
<trkpt lat="-27.2744494" lon="151.2900449">
  <ele>358.12</ele>
  <time>2026-09-01T19:51:07Z</time>
  <course>212.47</course>
  <speed>0.11</speed>
  <fix>3d</fix>
</trkpt>
<trkpt lat="-27.2744495" lon="151.2900446">
  <ele>357.96</ele>
  <time>2026-09-01T19:51:07Z</time>
  <course>299.26</course>
  <speed>0.1</speed>
  <fix>3d</fix>
</trkpt>
<trkpt lat="-27.2744494" lon="151.2900449">
  <ele>358.12</ele>
  <time>2026-09-01T19:51:07Z</time>
  <course>212.47</course>
  <speed>0.11</speed>
  <fix>3d</fix>
</trkpt>
<trkpt lat="-27.2744496" lon="151.2900445">
  <ele>357.96</ele>
  <time>2026-09-01T19:51:07Z</time>
  <course>296.75</course>
  <speed>0.08062257748298549</speed>
  <fix>3d</fix>
</trkpt>
<trkpt lat="-27.2744495" lon="151.2900448">
  <ele>358.12</ele>
  <time>2026-09-01T19:51:07Z</time>
  <course>203.15</course>
  <speed>0.08</speed>
  <fix>3d</fix>
</trkpt>
<trkpt lat="-27.2744496" lon="151.2900445">
  <ele>357.96</ele>
  <time>2026-09-01T19:51:07Z</time>
  <course>294.19</course>
  <speed>0.0670820393249937</speed>
  <fix>3d</fix>
</trkpt>
<trkpt lat="-27.2744495" lon="151.2900448">
  <ele>358.12</ele>
  <time>2026-09-01T19:51:07Z</time>
  <course>203.15</course>
  <speed>0.08</speed>
  <fix>3d</fix>
</trkpt>
<trkpt lat="-27.2744497" lon="151.2900445">
  <ele>357.96</ele>
  <time>2026-09-01T19:51:07Z</time>
  <course>291.58</course>
  <speed>0.05099019513592785</speed>
  <fix>3d</fix>
</trkpt>
<trkpt lat="-27.2744496" lon="151.2900448">
  <ele>358.12</ele>
  <time>2026-09-01T19:51:07Z</time>
  <course>183.82</course>
  <speed>0.06</speed>
  <fix>3d</fix>
</trkpt>
<trkpt lat="-27.2744497" lon="151.2900446">
  <ele>357.96</ele>
  <time>2026-09-01T19:51:07Z</time>
  <course>288.98</course>
  <speed>0.04</speed>
  <fix>3d</fix>
</trkpt>
<trkpt lat="-27.2744496" lon="151.2900448">
  <ele>358.12</ele>
  <time>2026-09-01T19:51:07Z</time>
  <course>183.82</course>
  <speed>0.06</speed>
  <fix>3d</fix>
</trkpt>
<trkpt lat="-27.2744497" lon="151.2900446">
  <ele>357.96</ele>
  <time>2026-09-01T19:51:07Z</time>
  <course>286.36</course>
  <speed>0.0316227766016838</speed>
  <fix>3d</fix>
</trkpt>
<trkpt lat="-27.2744497" lon="151.2900448">
  <ele>358.12</ele>
  <time>2026-09-01T19:51:07Z</time>
  <course>146.43</course>
  <speed>0.04</speed>
  <fix>3d</fix>
</trkpt>
<trkpt lat="-27.2744498" lon="151.2900446">
  <ele>357.95</ele>
  <time>2026-09-01T19:51:07Z</time>
  <course>283.74</course>
  <speed>0.0282842712474619</speed>
  <fix>3d</fix>
</trkpt>
<trkpt lat="-27.2744497" lon="151.2900448">
  <ele>358.12</ele>
  <time>2026-09-01T19:51:07Z</time>
  <course>146.43</course>
  <speed>0.04</speed>
  <fix>3d</fix>
</trkpt>
<trkpt lat="-27.2744498" lon="151.2900446">
  <ele>357.95</ele>
  <time>2026-09-01T19:51:07Z</time>
  <course>281.11</course>
  <speed>0.0412310562561766</speed>
  <fix>3d</fix>
</trkpt>
<trkpt lat="-27.2744498" lon="151.2900448">
  <ele>358.12</ele>
  <time>2026-09-01T19:51:07Z</time>
  <course>109.71</course>
  <speed>0.06</speed>
  <fix>3d</fix>
</trkpt>
<trkpt lat="-27.2744498" lon="151.2900447">
  <ele>357.95</ele>
  <time>2026-09-01T19:51:07Z</time>
  <course>278.49</course>
  <speed>0.05</speed>
  <fix>3d</fix>
</trkpt>
<trkpt lat="-27.2744498" lon="151.2900448">
  <ele>358.12</ele>
  <time>2026-09-01T19:51:07Z</time>
  <course>109.71</course>
  <speed>0.06</speed>
  <fix>3d</fix>
</trkpt>
<trkpt lat="-27.2744498" lon="151.2900448">
  <ele>357.95</ele>
  <time>2026-09-01T19:51:07Z</time>
  <course>275.99</course>
  <speed>0.07</speed>
  <fix>3d</fix>
</trkpt>
<trkpt lat="-27.2744498" lon="151.2900449">
  <ele>358.12</ele>
  <time>2026-09-01T19:51:07Z</time>
  <course>90.39</course>
  <speed>0.08</speed>
  <fix>3d</fix>
</trkpt>
<trkpt lat="-27.2744498" lon="151.2900449">
  <ele>357.96</ele>
  <time>2026-09-01T19:51:07Z</time>
  <course>274.13</course>
  <speed>0.08062257748298549</speed>
  <fix>3d</fix>
</trkpt>
<trkpt lat="-27.2744498" lon="151.2900449">
  <ele>358.12</ele>
  <time>2026-09-01T19:51:07Z</time>
  <course>90.39</course>
  <speed>0.08</speed>
  <fix>3d</fix>
</trkpt>
<trkpt lat="-27.2744497" lon="151.290045">
  <ele>357.96</ele>
  <time>2026-09-01T19:51:07Z</time>
  <course>273.17</course>
  <speed>0.09219544457292887</speed>
  <fix>3d</fix>
</trkpt>
<trkpt lat="-27.2744498" lon="151.2900451">
  <ele>358.12</ele>
  <time>2026-09-01T19:51:07Z</time>
  <course>80.61</course>
  <speed>0.11</speed>
  <fix>3d</fix>
</trkpt>
<trkpt lat="-27.2744498" lon="151.2900451">
  <ele>357.96</ele>
  <time>2026-09-01T19:51:07Z</time>
  <course>273.07</course>
  <speed>0.11401754250991379</speed>
  <fix>3d</fix>
</trkpt>
<trkpt lat="-27.2744498" lon="151.2900451">
  <ele>358.12</ele>
  <time>2026-09-01T19:51:07Z</time>
  <course>80.61</course>
  <speed>0.11</speed>
  <fix>3d</fix>
</trkpt>
<trkpt lat="-27.2744498" lon="151.2900453">
  <ele>357.96</ele>
  <time>2026-09-01T19:51:07Z</time>
  <course>273.64</course>
  <speed>0.1264911064067352</speed>
  <fix>3d</fix>
</trkpt>
<trkpt lat="-27.2744498" lon="151.2900454">
  <ele>358.12</ele>
  <time>2026-09-01T19:51:07Z</time>
  <course>75.05</course>
  <speed>0.14</speed>
  <fix>3d</fix>
</trkpt>
<trkpt lat="-27.2744497" lon="151.2900454">
  <ele>357.96</ele>
  <time>2026-09-01T19:51:07Z</time>
  <course>274.66</course>
  <speed>0.13601470508735444</speed>
  <fix>3d</fix>
</trkpt>
<trkpt lat="-27.2744498" lon="151.2900454">
  <ele>358.12</ele>
  <time>2026-09-01T19:51:07Z</time>
  <course>75.05</course>
  <speed>0.14</speed>
  <fix>3d</fix>
</trkpt>
<trkpt lat="-27.2744497" lon="151.2900456">
  <ele>357.95</ele>
  <time>2026-09-01T19:51:07Z</time>
  <course>275.93</course>
  <speed>0.15811388300841897</speed>
  <fix>3d</fix>
</trkpt>
<trkpt lat="-27.2744497" lon="151.2900457">
  <ele>358.12</ele>
  <time>2026-09-01T19:51:07Z</time>
  <course>71.51</course>
  <speed>0.17</speed>
  <fix>3d</fix>
</trkpt>
<trkpt lat="-27.2744496" lon="151.2900458">
  <ele>357.95</ele>
  <time>2026-09-01T19:51:07Z</time>
  <course>277.24</course>
  <speed>0.1708800749063506</speed>
  <fix>3d</fix>
</trkpt>
<trkpt lat="-27.2744497" lon="151.2900457">
  <ele>358.12</ele>
  <time>2026-09-01T19:51:07Z</time>
  <course>71.51</course>
  <speed>0.17</speed>
  <fix>3d</fix>
</trkpt>
<trkpt lat="-27.2744496" lon="151.290046">
  <ele>357.95</ele>
  <time>2026-09-01T19:51:07Z</time>
  <course>278.41</course>
  <speed>0.18384776310850234</speed>
  <fix>3d</fix>
</trkpt>
<trkpt lat="-27.2744496" lon="151.290046">
  <ele>358.12</ele>
  <time>2026-09-01T19:51:07Z</time>
  <course>68.78</course>
  <speed>0.2</speed>
  <fix>3d</fix>
</trkpt>
<trkpt lat="-27.2744495" lon="151.2900462">
  <ele>357.95</ele>
  <time>2026-09-01T19:51:07Z</time>
  <course>279.31</course>
  <speed>0.19697715603592209</speed>
  <fix>3d</fix>
</trkpt>
<trkpt lat="-27.2744496" lon="151.290046">
  <ele>358.12</ele>
  <time>2026-09-01T19:51:07Z</time>
  <course>68.78</course>
  <speed>0.2</speed>
  <fix>3d</fix>
</trkpt>
<trkpt lat="-27.2744494" lon="151.2900464">
  <ele>357.95</ele>
  <time>2026-09-01T19:51:07Z</time>
  <course>279.87</course>
  <speed>0.2102379604162864</speed>
  <fix>3d</fix>
</trkpt>
<trkpt lat="-27.2744495" lon="151.2900465">
  <ele>358.12</ele>
  <time>2026-09-01T19:51:07Z</time>
  <course>66.16</course>
  <speed>0.23</speed>
  <fix>3d</fix>
</trkpt>
<trkpt lat="-27.2744493" lon="151.2900466">
  <ele>357.95</ele>
  <time>2026-09-01T19:51:07Z</time>
  <course>280.07</course>
  <speed>0.223606797749979</speed>
  <fix>3d</fix>
</trkpt>
<trkpt lat="-27.2744495" lon="151.2900465">
  <ele>358.12</ele>
  <time>2026-09-01T19:51:07Z</time>
  <course>66.16</course>
  <speed>0.23</speed>
  <fix>3d</fix>
</trkpt>
<trkpt lat="-27.2744492" lon="151.2900469">
  <ele>357.95</ele>
  <time>2026-09-01T19:51:07Z</time>
  <course>279.96</course>
  <speed>0.22825424421026652</speed>
  <fix>3d</fix>
</trkpt>
<trkpt lat="-27.2744493" lon="151.2900469">
  <ele>358.12</ele>
  <time>2026-09-01T19:51:07Z</time>
  <course>63.45</course>
  <speed>0.25</speed>
  <fix>3d</fix>
</trkpt>
<trkpt lat="-27.2744491" lon="151.2900471">
  <ele>357.95</ele>
  <time>2026-09-01T19:51:07Z</time>
  <course>279.68</course>
  <speed>0.24186773244895649</speed>
  <fix>3d</fix>
</trkpt>
<trkpt lat="-27.2744493" lon="151.2900469">
  <ele>358.12</ele>
  <time>2026-09-01T19:51:07Z</time>
  <course>63.45</course>
  <speed>0.25</speed>
  <fix>3d</fix>
</trkpt>
<trkpt lat="-27.274449" lon="151.2900473">
  <ele>357.95</ele>
  <time>2026-09-01T19:51:07Z</time>
  <course>280.12</course>
  <speed>0.25553864678361277</speed>
  <fix>3d</fix>
</trkpt>
<trkpt lat="-27.2744491" lon="151.2900474">
  <ele>358.12</ele>
  <time>2026-09-01T19:51:07Z</time>
  <course>60.71</course>
  <speed>0.28</speed>
  <fix>3d</fix>
</trkpt>
<trkpt lat="-27.2744489" lon="151.2900476">
  <ele>357.95</ele>
  <time>2026-09-01T19:51:07Z</time>
  <course>281.51</course>
  <speed>0.260768096208106</speed>
  <fix>3d</fix>
</trkpt>
<trkpt lat="-27.2744491" lon="151.2900474">
  <ele>358.12</ele>
  <time>2026-09-01T19:51:07Z</time>
  <course>60.71</course>
  <speed>0.28</speed>
  <fix>3d</fix>
</trkpt>
<trkpt lat="-27.2744487" lon="151.2900479">
  <ele>357.95</ele>
  <time>2026-09-01T19:51:07Z</time>
  <course>283.5</course>
  <speed>0.266270539113887</speed>
  <fix>3d</fix>
</trkpt>
<trkpt lat="-27.2744488" lon="151.2900479">
  <ele>358.12</ele>
  <time>2026-09-01T19:51:07Z</time>
  <course>57.99</course>
  <speed>0.3</speed>
  <fix>3d</fix>
</trkpt>
<trkpt lat="-27.2744486" lon="151.2900481">
  <ele>357.96</ele>
  <time>2026-09-01T19:51:07Z</time>
  <course>285.81</course>
  <speed>0.280178514522438</speed>
  <fix>3d</fix>
</trkpt>
<trkpt lat="-27.2744488" lon="151.2900479">
  <ele>358.12</ele>
  <time>2026-09-01T19:51:07Z</time>
  <course>57.99</course>
  <speed>0.3</speed>
  <fix>3d</fix>
</trkpt>
<trkpt lat="-27.2744484" lon="151.2900484">
  <ele>357.96</ele>
  <time>2026-09-01T19:51:07Z</time>
  <course>288.33</course>
  <speed>0.2920616373302047</speed>
  <fix>3d</fix>
</trkpt>
<trkpt lat="-27.2744485" lon="151.2900484">
  <ele>358.12</ele>
  <time>2026-09-01T19:51:07Z</time>
  <course>55.16</course>
  <speed>0.32</speed>
  <fix>3d</fix>
</trkpt>
<trkpt lat="-27.2744483" lon="151.2900487">
  <ele>357.96</ele>
  <time>2026-09-01T19:51:07Z</time>
  <course>290.89</course>
  <speed>0.29832867780352595</speed>
  <fix>3d</fix>
</trkpt>
<trkpt lat="-27.2744485" lon="151.2900484">
  <ele>358.12</ele>
  <time>2026-09-01T19:51:07Z</time>
  <course>55.16</course>
  <speed>0.32</speed>
  <fix>3d</fix>
</trkpt>
<trkpt lat="-27.2744481" lon="151.2900489">
  <ele>357.96</ele>
  <time>2026-09-01T19:51:07Z</time>
  <course>293.5</course>
  <speed>0.31240998703626616</speed>
  <fix>3d</fix>
</trkpt>
<trkpt lat="-27.2744482" lon="151.290049">
  <ele>358.12</ele>
  <time>2026-09-01T19:51:07Z</time>
  <course>52.09</course>
  <speed>0.34</speed>
  <fix>3d</fix>
</trkpt>
<trkpt lat="-27.2744479" lon="151.2900492">
  <ele>357.95</ele>
  <time>2026-09-01T19:51:07Z</time>
  <course>296.13</course>
  <speed>0.3255764119219941</speed>
  <fix>3d</fix>
</trkpt>
<trkpt lat="-27.2744482" lon="151.290049">
  <ele>358.12</ele>
  <time>2026-09-01T19:51:07Z</time>
  <course>52.09</course>
  <speed>0.34</speed>
  <fix>3d</fix>
</trkpt>
<trkpt lat="-27.2744477" lon="151.2900495">
  <ele>357.95</ele>
  <time>2026-09-01T19:51:07Z</time>
  <course>298.49</course>
  <speed>0.33241540277189324</speed>
  <fix>3d</fix>
</trkpt>
<trkpt lat="-27.2744477" lon="151.2900495">
  <ele>358.12</ele>
  <time>2026-09-01T19:51:07Z</time>
  <course>48.68</course>
  <speed>0.36</speed>
  <fix>3d</fix>
</trkpt>
<trkpt lat="-27.2744474" lon="151.2900497">
  <ele>357.95</ele>
  <time>2026-09-01T19:51:07Z</time>
  <course>300.01</course>
  <speed>0.34655446902326914</speed>
  <fix>3d</fix>
</trkpt>
<trkpt lat="-27.2744477" lon="151.2900495">
  <ele>358.12</ele>
  <time>2026-09-01T19:51:07Z</time>
  <course>48.68</course>
  <speed>0.36</speed>
  <fix>3d</fix>
</trkpt>
<trkpt lat="-27.2744472" lon="151.29005">
  <ele>357.95</ele>
  <time>2026-09-01T19:51:07Z</time>
  <course>300.56</course>
  <speed>0.354682957019364</speed>
  <fix>3d</fix>
</trkpt>
<trkpt lat="-27.2744473" lon="151.29005">
  <ele>358.12</ele>
  <time>2026-09-01T19:51:07Z</time>
  <course>44.91</course>
  <speed>0.38</speed>
  <fix>3d</fix>
</trkpt>
<trkpt lat="-27.2744469" lon="151.2900503">
  <ele>357.95</ele>
  <time>2026-09-01T19:51:07Z</time>
  <course>300.27</course>
  <speed>0.36235341863986875</speed>
  <fix>3d</fix>
</trkpt>
<trkpt lat="-27.2744473" lon="151.29005">
  <ele>358.12</ele>
  <time>2026-09-01T19:51:07Z</time>
  <course>44.91</course>
  <speed>0.38</speed>
  <fix>3d</fix>
</trkpt>
<trkpt lat="-27.2744466" lon="151.2900505">
  <ele>357.95</ele>
  <time>2026-09-01T19:51:07Z</time>
  <course>299.4</course>
  <speed>0.3720215047547655</speed>
  <fix>3d</fix>
</trkpt>
<trkpt lat="-27.2744468" lon="151.2900506">
  <ele>358.12</ele>
  <time>2026-09-01T19:51:07Z</time>
  <course>40.88</course>
  <speed>0.4</speed>
  <fix>3d</fix>
</trkpt>
<trkpt lat="-27.2744464" lon="151.2900508">
  <ele>357.95</ele>
  <time>2026-09-01T19:51:07Z</time>
  <course>298.16</course>
  <speed>0.388329756778952</speed>
  <fix>3d</fix>
</trkpt>
<trkpt lat="-27.2744468" lon="151.2900506">
  <ele>358.12</ele>
  <time>2026-09-01T19:51:07Z</time>
  <course>40.88</course>
  <speed>0.4</speed>
  <fix>3d</fix>
</trkpt>
<trkpt lat="-27.274446" lon="151.290051">
  <ele>357.95</ele>
  <time>2026-09-01T19:51:07Z</time>
  <course>296.79</course>
  <speed>0.3911521443121589</speed>
  <fix>3d</fix>
</trkpt>
<trkpt lat="-27.2744462" lon="151.2900511">
  <ele>358.12</ele>
  <time>2026-09-01T19:51:07Z</time>
  <course>36.71</course>
  <speed>0.42</speed>
  <fix>3d</fix>
</trkpt>
<trkpt lat="-27.2744457" lon="151.2900513">
  <ele>357.95</ele>
  <time>2026-09-01T19:51:07Z</time>
  <course>295.5</course>
  <speed>0.40311288741492746</speed>
  <fix>3d</fix>
</trkpt>
<trkpt lat="-27.2744462" lon="151.2900511">
  <ele>358.12</ele>
  <time>2026-09-01T19:51:07Z</time>
  <course>36.71</course>
  <speed>0.42</speed>
  <fix>3d</fix>
</trkpt>
<trkpt lat="-27.2744454" lon="151.2900515">
  <ele>357.95</ele>
  <time>2026-09-01T19:51:07Z</time>
  <course>294.45</course>
  <speed>0.4070626487409524</speed>
  <fix>3d</fix>
</trkpt>
<trkpt lat="-27.2744455" lon="151.2900516">
  <ele>358.12</ele>
  <time>2026-09-01T19:51:07Z</time>
  <course>32.57</course>
  <speed>0.44</speed>
  <fix>3d</fix>
</trkpt>
<trkpt lat="-27.274445" lon="151.2900517">
  <ele>357.95</ele>
  <time>2026-09-01T19:51:07Z</time>
  <course>293.65</course>
  <speed>0.4204759208325728</speed>
  <fix>3d</fix>
</trkpt>
<trkpt lat="-27.2744455" lon="151.2900516">
  <ele>358.12</ele>
  <time>2026-09-01T19:51:07Z</time>
  <course>32.57</course>
  <speed>0.44</speed>
  <fix>3d</fix>
</trkpt>
<trkpt lat="-27.2744447" lon="151.290052">
  <ele>357.95</ele>
  <time>2026-09-01T19:51:07Z</time>
  <course>292.42</course>
  <speed>0.425440947723653</speed>
  <fix>3d</fix>
</trkpt>
<trkpt lat="-27.2744448" lon="151.2900521">
  <ele>358.12</ele>
  <time>2026-09-01T19:51:07Z</time>
  <course>28.56</course>
  <speed>0.45</speed>
  <fix>3d</fix>
</trkpt>
<trkpt lat="-27.2744443" lon="151.2900522">
  <ele>357.95</ele>
  <time>2026-09-01T19:51:07Z</time>
  <course>290.72</course>
  <speed>0.44011362169330775</speed>
  <fix>3d</fix>
</trkpt>
<trkpt lat="-27.2744448" lon="151.2900521">
  <ele>358.12</ele>
  <time>2026-09-01T19:51:07Z</time>
  <course>28.56</course>
  <speed>0.45</speed>
  <fix>3d</fix>
</trkpt>
<trkpt lat="-27.2744439" lon="151.2900523">
  <ele>357.95</ele>
  <time>2026-09-01T19:51:07Z</time>
  <course>288.75</course>
  <speed>0.4459820624195552</speed>
  <fix>3d</fix>
</trkpt>
<trkpt lat="-27.274444" lon="151.2900525">
  <ele>358.12</ele>
  <time>2026-09-01T19:51:07Z</time>
  <course>24.65</course>
  <speed>0.47</speed>
  <fix>3d</fix>
</trkpt>
<trkpt lat="-27.2744435" lon="151.2900525">
  <ele>357.95</ele>
  <time>2026-09-01T19:51:07Z</time>
  <course>286.64</course>
  <speed>0.4522167621838005</speed>
  <fix>3d</fix>
</trkpt>
<trkpt lat="-27.274444" lon="151.2900525">
  <ele>358.12</ele>
  <time>2026-09-01T19:51:07Z</time>
  <course>24.65</course>
  <speed>0.47</speed>
  <fix>3d</fix>
</trkpt>
<trkpt lat="-27.2744431" lon="151.2900527">
  <ele>357.95</ele>
  <time>2026-09-01T19:51:07Z</time>
  <course>284.49</course>
  <speed>0.4657252408878007</speed>
  <fix>3d</fix>
</trkpt>
<trkpt lat="-27.2744433" lon="151.2900528">
  <ele>358.12</ele>
  <time>2026-09-01T19:51:07Z</time>
  <course>20.72</course>
  <speed>0.48</speed>
  <fix>3d</fix>
</trkpt>
<trkpt lat="-27.2744427" lon="151.2900529">
  <ele>357.95</ele>
  <time>2026-09-01T19:51:07Z</time>
  <course>282.28</course>
  <speed>0.4729693436154187</speed>
  <fix>3d</fix>
</trkpt>
<trkpt lat="-27.2744433" lon="151.2900528">
  <ele>358.12</ele>
  <time>2026-09-01T19:51:07Z</time>
  <course>20.72</course>
  <speed>0.48</speed>
  <fix>3d</fix>
</trkpt>
<trkpt lat="-27.2744422" lon="151.290053">
  <ele>357.95</ele>
  <time>2026-09-01T19:51:07Z</time>
  <course>280.07</course>
  <speed>0.48052055106935854</speed>
  <fix>3d</fix>
</trkpt>
<trkpt lat="-27.2744425" lon="151.2900532">
  <ele>358.12</ele>
  <time>2026-09-01T19:51:07Z</time>
  <course>16.79</course>
  <speed>0.49</speed>
  <fix>3d</fix>
</trkpt>
<trkpt lat="-27.2744418" lon="151.2900531">
  <ele>357.95</ele>
  <time>2026-09-01T19:51:07Z</time>
  <course>277.85</course>
  <speed>0.48662100242385753</speed>
  <fix>3d</fix>
</trkpt>
<trkpt lat="-27.2744425" lon="151.2900532">
  <ele>358.12</ele>
  <time>2026-09-01T19:51:07Z</time>
  <course>16.79</course>
  <speed>0.49</speed>
  <fix>3d</fix>
</trkpt>
<trkpt lat="-27.2744413" lon="151.2900532">
  <ele>357.94</ele>
  <time>2026-09-01T19:51:07Z</time>
  <course>275.6</course>
  <speed>0.48373546489791297</speed>
  <fix>3d</fix>
</trkpt>
<trkpt lat="-27.2744416" lon="151.2900535">
  <ele>358.12</ele>
  <time>2026-09-01T19:51:07Z</time>
  <course>12.86</course>
  <speed>0.5</speed>
  <fix>3d</fix>
</trkpt>
<trkpt lat="-27.2744409" lon="151.2900533">
  <ele>357.94</ele>
  <time>2026-09-01T19:51:07Z</time>
  <course>273.38</course>
  <speed>0.49254441424099005</speed>
  <fix>3d</fix>
</trkpt>
<trkpt lat="-27.2744416" lon="151.2900535">
  <ele>358.12</ele>
  <time>2026-09-01T19:51:07Z</time>
  <course>12.86</course>
  <speed>0.5</speed>
  <fix>3d</fix>
</trkpt>
<trkpt lat="-27.2744404" lon="151.2900534">
  <ele>357.94</ele>
  <time>2026-09-01T19:51:07Z</time>
  <course>271.16</course>
  <speed>0.4909175083453431</speed>
  <fix>3d</fix>
</trkpt>
<trkpt lat="-27.2744407" lon="151.2900536">
  <ele>358.12</ele>
  <time>2026-09-01T19:51:07Z</time>
  <course>8.95</course>
  <speed>0.51</speed>
  <fix>3d</fix>
</trkpt>
<trkpt lat="-27.2744399" lon="151.2900534">
  <ele>357.94</ele>
  <time>2026-09-01T19:51:07Z</time>
  <course>268.86</course>
  <speed>0.5000999900019995</speed>
  <fix>3d</fix>
</trkpt>
<trkpt lat="-27.2744407" lon="151.2900536">
  <ele>358.12</ele>
  <time>2026-09-01T19:51:07Z</time>
  <course>8.95</course>
  <speed>0.51</speed>
  <fix>3d</fix>
</trkpt>
<trkpt lat="-27.2744395" lon="151.2900535">
  <ele>357.94</ele>
  <time>2026-09-01T19:51:07Z</time>
  <course>266.66</course>
  <speed>0.5</speed>
  <fix>3d</fix>
</trkpt>
<trkpt lat="-27.2744397" lon="151.2900538">
  <ele>358.12</ele>
  <time>2026-09-01T19:51:07Z</time>
  <course>5.16</course>
  <speed>0.52</speed>
  <fix>3d</fix>
</trkpt>
<trkpt lat="-27.274439" lon="151.2900535">
  <ele>357.94</ele>
  <time>2026-09-01T19:51:07Z</time>
  <course>264.45</course>
  <speed>0.5000999900019995</speed>
  <fix>3d</fix>
</trkpt>
<trkpt lat="-27.2744397" lon="151.2900538">
  <ele>358.12</ele>
  <time>2026-09-01T19:51:07Z</time>
  <course>5.16</course>
  <speed>0.52</speed>
  <fix>3d</fix>
</trkpt>
<trkpt lat="-27.2744386" lon="151.2900535">
  <ele>357.94</ele>
  <time>2026-09-01T19:51:07Z</time>
  <course>262.35</course>
  <speed>0.5003998401278722</speed>
  <fix>3d</fix>
</trkpt>
<trkpt lat="-27.2744388" lon="151.2900539">
  <ele>358.12</ele>
  <time>2026-09-01T19:51:07Z</time>
  <course>1.56</course>
  <speed>0.52</speed>
  <fix>3d</fix>
</trkpt>
<trkpt lat="-27.2744381" lon="151.2900535">
  <ele>357.94</ele>
  <time>2026-09-01T19:51:07Z</time>
  <course>260.76</course>
  <speed>0.5015974481593781</speed>
  <fix>3d</fix>
</trkpt>
<trkpt lat="-27.2744388" lon="151.2900539">
  <ele>358.12</ele>
  <time>2026-09-01T19:51:07Z</time>
  <course>1.56</course>
  <speed>0.52</speed>
  <fix>3d</fix>
</trkpt>
<trkpt lat="-27.2744376" lon="151.2900535">
  <ele>357.94</ele>
  <time>2026-09-01T19:51:07Z</time>
  <course>259.96</course>
  <speed>0.5024937810560445</speed>
  <fix>3d</fix>
</trkpt>
<trkpt lat="-27.2744379" lon="151.2900539">
  <ele>358.13</ele>
  <time>2026-09-01T19:51:07Z</time>
  <course>358.06</course>
  <speed>0.52</speed>
  <fix>3d</fix>
</trkpt>
<trkpt lat="-27.2744372" lon="151.2900535">
  <ele>357.95</ele>
  <time>2026-09-01T19:51:07Z</time>
  <course>259.93</course>
  <speed>0.4949747468305833</speed>
  <fix>3d</fix>
</trkpt>
<trkpt lat="-27.2744379" lon="151.2900539">
  <ele>358.13</ele>
  <time>2026-09-01T19:51:07Z</time>
  <course>358.06</course>
  <speed>0.52</speed>
  <fix>3d</fix>
</trkpt>
<trkpt lat="-27.2744367" lon="151.2900534">
  <ele>357.95</ele>
  <time>2026-09-01T19:51:07Z</time>
  <course>260.47</course>
  <speed>0.48662100242385753</speed>
  <fix>3d</fix>
</trkpt>
<trkpt lat="-27.2744369" lon="151.2900538">
  <ele>358.13</ele>
  <time>2026-09-01T19:51:07Z</time>
  <course>354.73</course>
  <speed>0.51</speed>
  <fix>3d</fix>
</trkpt>
<trkpt lat="-27.2744363" lon="151.2900534">
  <ele>357.95</ele>
  <time>2026-09-01T19:51:07Z</time>
  <course>261.39</course>
  <speed>0.48662100242385753</speed>
  <fix>3d</fix>
</trkpt>
<trkpt lat="-27.2744369" lon="151.2900538">
  <ele>358.13</ele>
  <time>2026-09-01T19:51:07Z</time>
  <course>354.73</course>
  <speed>0.51</speed>
  <fix>3d</fix>
</trkpt>
<trkpt lat="-27.2744358" lon="151.2900534">
  <ele>357.95</ele>
  <time>2026-09-01T19:51:07Z</time>
  <course>262.5</course>
  <speed>0.47675989764240867</speed>
  <fix>3d</fix>
</trkpt>
<trkpt lat="-27.274436" lon="151.2900537">
  <ele>358.13</ele>
  <time>2026-09-01T19:51:07Z</time>
  <course>352.94</course>
  <speed>0.5</speed>
  <fix>3d</fix>
</trkpt>
<trkpt lat="-27.2744354" lon="151.2900534">
  <ele>357.95</ele>
  <time>2026-09-01T19:51:07Z</time>
  <course>263.59</course>
  <speed>0.4751841748206689</speed>
  <fix>3d</fix>
</trkpt>
<trkpt lat="-27.274436" lon="151.2900537">
  <ele>358.13</ele>
  <time>2026-09-01T19:51:07Z</time>
  <course>352.94</course>
  <speed>0.5</speed>
  <fix>3d</fix>
</trkpt>
<trkpt lat="-27.2744349" lon="151.2900533">
  <ele>357.95</ele>
  <time>2026-09-01T19:51:07Z</time>
  <course>264.52</course>
  <speed>0.4738143096192854</speed>
  <fix>3d</fix>
</trkpt>
<trkpt lat="-27.2744351" lon="151.2900536">
  <ele>358.13</ele>
  <time>2026-09-01T19:51:07Z</time>
  <course>353.61</course>
  <speed>0.49</speed>
  <fix>3d</fix>
</trkpt>
<trkpt lat="-27.2744345" lon="151.2900533">
  <ele>357.95</ele>
  <time>2026-09-01T19:51:07Z</time>
  <course>265.18</course>
  <speed>0.46270941205037097</speed>
  <fix>3d</fix>
</trkpt>
<trkpt lat="-27.2744351" lon="151.2900536">
  <ele>358.13</ele>
  <time>2026-09-01T19:51:07Z</time>
  <course>353.61</course>
  <speed>0.49</speed>
  <fix>3d</fix>
</trkpt>
<trkpt lat="-27.274434" lon="151.2900533">
  <ele>357.95</ele>
  <time>2026-09-01T19:51:07Z</time>
  <course>265.55</course>
  <speed>0.46270941205037097</speed>
  <fix>3d</fix>
</trkpt>
<trkpt lat="-27.2744343" lon="151.2900535">
  <ele>358.13</ele>
  <time>2026-09-01T19:51:07Z</time>
  <course>355.3</course>
  <speed>0.48</speed>
  <fix>3d</fix>
</trkpt>
<trkpt lat="-27.2744336" lon="151.2900532">
  <ele>357.96</ele>
  <time>2026-09-01T19:51:07Z</time>
  <course>265.62</course>
  <speed>0.45177427992306074</speed>
  <fix>3d</fix>
</trkpt>
<trkpt lat="-27.2744343" lon="151.2900535">
  <ele>358.13</ele>
  <time>2026-09-01T19:51:07Z</time>
  <course>355.3</course>
  <speed>0.48</speed>
  <fix>3d</fix>
</trkpt>
<trkpt lat="-27.2744332" lon="151.2900532">
  <ele>357.96</ele>
  <time>2026-09-01T19:51:07Z</time>
  <course>265.46</course>
  <speed>0.4428317965096906</speed>
  <fix>3d</fix>
</trkpt>
<trkpt lat="-27.2744334" lon="151.2900535">
  <ele>358.14</ele>
  <time>2026-09-01T19:51:07Z</time>
  <course>356.0</course>
  <speed>0.47</speed>
  <fix>3d</fix>
</trkpt>
<trkpt lat="-27.2744328" lon="151.2900532">
  <ele>357.96</ele>
  <time>2026-09-01T19:51:07Z</time>
  <course>265.45</course>
  <speed>0.4428317965096906</speed>
  <fix>3d</fix>
</trkpt>
<trkpt lat="-27.2744334" lon="151.2900535">
  <ele>358.14</ele>
  <time>2026-09-01T19:51:07Z</time>
  <course>356.0</course>
  <speed>0.47</speed>
  <fix>3d</fix>
</trkpt>
<trkpt lat="-27.2744324" lon="151.2900532">
  <ele>357.96</ele>
  <time>2026-09-01T19:51:07Z</time>
  <course>266.41</course>
  <speed>0.43185645763378366</speed>
  <fix>3d</fix>
</trkpt>
<trkpt lat="-27.2744326" lon="151.2900534">
  <ele>358.14</ele>
  <time>2026-09-01T19:51:07Z</time>
  <course>356.29</course>
  <speed>0.46</speed>
  <fix>3d</fix>
</trkpt>
<trkpt lat="-27.274432" lon="151.2900532">
  <ele>357.96</ele>
  <time>2026-09-01T19:51:07Z</time>
  <course>268.09</course>
  <speed>0.4310452412450461</speed>
  <fix>3d</fix>
</trkpt>
<trkpt lat="-27.2744326" lon="151.2900534">
  <ele>358.14</ele>
  <time>2026-09-01T19:51:07Z</time>
  <course>356.29</course>
  <speed>0.46</speed>
  <fix>3d</fix>
</trkpt>
<trkpt lat="-27.2744316" lon="151.2900532">
  <ele>357.96</ele>
  <time>2026-09-01T19:51:07Z</time>
  <course>270.12</course>
  <speed>0.4204759208325728</speed>
  <fix>3d</fix>
</trkpt>
<trkpt lat="-27.2744318" lon="151.2900534">
  <ele>358.14</ele>
  <time>2026-09-01T19:51:07Z</time>
  <course>357.78</course>
  <speed>0.45</speed>
  <fix>3d</fix>
</trkpt>
<trkpt lat="-27.2744312" lon="151.2900532">
  <ele>357.96</ele>
  <time>2026-09-01T19:51:07Z</time>
  <course>272.35</course>
  <speed>0.4201190307520001</speed>
  <fix>3d</fix>
</trkpt>
<trkpt lat="-27.2744318" lon="151.2900534">
  <ele>358.14</ele>
  <time>2026-09-01T19:51:07Z</time>
  <course>357.78</course>
  <speed>0.45</speed>
  <fix>3d</fix>
</trkpt>
<trkpt lat="-27.2744308" lon="151.2900532">
  <ele>357.96</ele>
  <time>2026-09-01T19:51:07Z</time>
  <course>274.74</course>
  <speed>0.41</speed>
  <fix>3d</fix>
</trkpt>
<trkpt lat="-27.274431" lon="151.2900534">
  <ele>358.14</ele>
  <time>2026-09-01T19:51:07Z</time>
  <course>0.03</course>
  <speed>0.43</speed>
  <fix>3d</fix>
</trkpt>
<trkpt lat="-27.2744304" lon="151.2900532">
  <ele>357.96</ele>
  <time>2026-09-01T19:51:07Z</time>
  <course>277.08</course>
  <speed>0.4</speed>
  <fix>3d</fix>
</trkpt>
<trkpt lat="-27.274431" lon="151.2900534">
  <ele>358.14</ele>
  <time>2026-09-01T19:51:07Z</time>
  <course>0.03</course>
  <speed>0.43</speed>
  <fix>3d</fix>
</trkpt>
<trkpt lat="-27.27443" lon="151.2900532">
  <ele>357.96</ele>
  <time>2026-09-01T19:51:07Z</time>
  <course>279.46</course>
  <speed>0.4001249804748511</speed>
  <fix>3d</fix>
</trkpt>
<trkpt lat="-27.2744302" lon="151.2900534">
  <ele>358.14</ele>
  <time>2026-09-01T19:51:07Z</time>
  <course>2.43</course>
  <speed>0.42</speed>
  <fix>3d</fix>
</trkpt>
<trkpt lat="-27.2744296" lon="151.2900532">
  <ele>357.96</ele>
  <time>2026-09-01T19:51:07Z</time>
  <course>281.69</course>
  <speed>0.3905124837953327</speed>
  <fix>3d</fix>
</trkpt>
<trkpt lat="-27.2744302" lon="151.2900534">
  <ele>358.14</ele>
  <time>2026-09-01T19:51:07Z</time>
  <course>2.43</course>
  <speed>0.42</speed>
  <fix>3d</fix>
</trkpt>
<trkpt lat="-27.2744293" lon="151.2900532">
  <ele>357.96</ele>
  <time>2026-09-01T19:51:07Z</time>
  <course>283.19</course>
  <speed>0.3911521443121589</speed>
  <fix>3d</fix>
</trkpt>
<trkpt lat="-27.2744294" lon="151.2900534">
  <ele>358.14</ele>
  <time>2026-09-01T19:51:07Z</time>
  <course>4.96</course>
  <speed>0.41</speed>
  <fix>3d</fix>
</trkpt>
<trkpt lat="-27.2744289" lon="151.2900533">
  <ele>357.97</ele>
  <time>2026-09-01T19:51:07Z</time>
  <course>283.81</course>
  <speed>0.382099463490856</speed>
  <fix>3d</fix>
</trkpt>
<trkpt lat="-27.2744294" lon="151.2900534">
  <ele>358.14</ele>
  <time>2026-09-01T19:51:07Z</time>
  <course>4.96</course>
  <speed>0.41</speed>
  <fix>3d</fix>
</trkpt>
<trkpt lat="-27.2744285" lon="151.2900534">
  <ele>357.96</ele>
  <time>2026-09-01T19:51:07Z</time>
  <course>283.62</course>
  <speed>0.37336309405188944</speed>
  <fix>3d</fix>
</trkpt>
<trkpt lat="-27.2744287" lon="151.2900534">
  <ele>358.14</ele>
  <time>2026-09-01T19:51:07Z</time>
  <course>7.64</course>
  <speed>0.4</speed>
  <fix>3d</fix>
</trkpt>
<trkpt lat="-27.2744282" lon="151.2900534">
  <ele>357.96</ele>
  <time>2026-09-01T19:51:07Z</time>
  <course>282.84</course>
  <speed>0.37336309405188944</speed>
  <fix>3d</fix>
</trkpt>
<trkpt lat="-27.2744287" lon="151.2900534">
  <ele>358.14</ele>
  <time>2026-09-01T19:51:07Z</time>
  <course>7.64</course>
  <speed>0.4</speed>
  <fix>3d</fix>
</trkpt>
<trkpt lat="-27.2744278" lon="151.2900535">
  <ele>357.96</ele>
  <time>2026-09-01T19:51:07Z</time>
  <course>281.7</course>
  <speed>0.3649657518178932</speed>
  <fix>3d</fix>
</trkpt>
<trkpt lat="-27.2744279" lon="151.2900535">
  <ele>358.14</ele>
  <time>2026-09-01T19:51:07Z</time>
  <course>10.53</course>
  <speed>0.39</speed>
  <fix>3d</fix>
</trkpt>
<trkpt lat="-27.2744275" lon="151.2900536">
  <ele>357.96</ele>
  <time>2026-09-01T19:51:07Z</time>
  <course>280.42</course>
  <speed>0.35510561809129404</speed>
  <fix>3d</fix>
</trkpt>
<trkpt lat="-27.2744279" lon="151.2900535">
  <ele>358.14</ele>
  <time>2026-09-01T19:51:07Z</time>
  <course>10.53</course>
  <speed>0.39</speed>
  <fix>3d</fix>
</trkpt>
<trkpt lat="-27.2744272" lon="151.2900537">
  <ele>357.97</ele>
  <time>2026-09-01T19:51:07Z</time>
  <course>279.23</course>
  <speed>0.34525353003264136</speed>
  <fix>3d</fix>
</trkpt>
<trkpt lat="-27.2744273" lon="151.2900536">
  <ele>358.14</ele>
  <time>2026-09-01T19:51:07Z</time>
  <course>12.03</course>
  <speed>0.37</speed>
  <fix>3d</fix>
</trkpt>
<trkpt lat="-27.2744269" lon="151.2900537">
  <ele>357.97</ele>
  <time>2026-09-01T19:51:07Z</time>
  <course>278.23</course>
  <speed>0.33376638536557274</speed>
  <fix>3d</fix>
</trkpt>
<trkpt lat="-27.2744273" lon="151.2900536">
  <ele>358.14</ele>
  <time>2026-09-01T19:51:07Z</time>
  <course>12.03</course>
  <speed>0.37</speed>
  <fix>3d</fix>
</trkpt>
<trkpt lat="-27.2744265" lon="151.2900538">
  <ele>357.97</ele>
  <time>2026-09-01T19:51:07Z</time>
  <course>277.41</course>
  <speed>0.3238826948140329</speed>
  <fix>3d</fix>
</trkpt>
<trkpt lat="-27.2744266" lon="151.2900538">
  <ele>358.14</ele>
  <time>2026-09-01T19:51:07Z</time>
  <course>11.63</course>
  <speed>0.36</speed>
  <fix>3d</fix>
</trkpt>
<trkpt lat="-27.2744262" lon="151.2900538">
  <ele>357.96</ele>
  <time>2026-09-01T19:51:07Z</time>
  <course>276.19</course>
  <speed>0.3125699921617557</speed>
  <fix>3d</fix>
</trkpt>
<trkpt lat="-27.2744266" lon="151.2900538">
  <ele>358.14</ele>
  <time>2026-09-01T19:51:07Z</time>
  <course>11.63</course>
  <speed>0.36</speed>
  <fix>3d</fix>
</trkpt>
<trkpt lat="-27.2744259" lon="151.2900539">
  <ele>357.96</ele>
  <time>2026-09-01T19:51:07Z</time>
  <course>274.6</course>
  <speed>0.3026549190084311</speed>
  <fix>3d</fix>
</trkpt>
<trkpt lat="-27.274426" lon="151.290054">
  <ele>358.14</ele>
  <time>2026-09-01T19:51:07Z</time>
  <course>11.09</course>
  <speed>0.34</speed>
  <fix>3d</fix>
</trkpt>
<trkpt lat="-27.2744256" lon="151.290054">
  <ele>357.96</ele>
  <time>2026-09-01T19:51:07Z</time>
  <course>272.79</course>
  <speed>0.29274562336608895</speed>
  <fix>3d</fix>
</trkpt>
<trkpt lat="-27.274426" lon="151.290054">
  <ele>358.14</ele>
  <time>2026-09-01T19:51:07Z</time>
  <course>11.09</course>
  <speed>0.34</speed>
  <fix>3d</fix>
</trkpt>
<trkpt lat="-27.2744254" lon="151.290054">
  <ele>357.96</ele>
  <time>2026-09-01T19:51:07Z</time>
  <course>270.88</course>
  <speed>0.282842712474619</speed>
  <fix>3d</fix>
</trkpt>
<trkpt lat="-27.2744254" lon="151.2900541">
  <ele>358.14</ele>
  <time>2026-09-01T19:51:07Z</time>
  <course>10.86</course>
  <speed>0.31</speed>
  <fix>3d</fix>
</trkpt>
<trkpt lat="-27.2744251" lon="151.2900541">
  <ele>357.97</ele>
  <time>2026-09-01T19:51:07Z</time>
  <course>268.93</course>
  <speed>0.27166155414412246</speed>
  <fix>3d</fix>
</trkpt>
<trkpt lat="-27.2744254" lon="151.2900541">
  <ele>358.14</ele>
  <time>2026-09-01T19:51:07Z</time>
  <course>10.86</course>
  <speed>0.31</speed>
  <fix>3d</fix>
</trkpt>
<trkpt lat="-27.2744248" lon="151.2900541">
  <ele>357.97</ele>
  <time>2026-09-01T19:51:07Z</time>
  <course>266.92</course>
  <speed>0.261725046566048</speed>
  <fix>3d</fix>
</trkpt>
<trkpt lat="-27.2744249" lon="151.2900542">
  <ele>358.13</ele>
  <time>2026-09-01T19:51:07Z</time>
  <course>10.98</course>
  <speed>0.29</speed>
  <fix>3d</fix>
</trkpt>
<trkpt lat="-27.2744246" lon="151.2900542">
  <ele>357.97</ele>
  <time>2026-09-01T19:51:07Z</time>
  <course>264.92</course>
  <speed>0.25179356624028343</speed>
  <fix>3d</fix>
</trkpt>
<trkpt lat="-27.2744249" lon="151.2900542">
  <ele>358.13</ele>
  <time>2026-09-01T19:51:07Z</time>
  <course>10.98</course>
  <speed>0.29</speed>
  <fix>3d</fix>
</trkpt>
<trkpt lat="-27.2744244" lon="151.2900542">
  <ele>357.96</ele>
  <time>2026-09-01T19:51:07Z</time>
  <course>262.91</course>
  <speed>0.24186773244895649</speed>
  <fix>3d</fix>
</trkpt>
<trkpt lat="-27.2744244" lon="151.2900543">
  <ele>358.13</ele>
  <time>2026-09-01T19:51:07Z</time>
  <course>11.59</course>
  <speed>0.27</speed>
  <fix>3d</fix>
</trkpt>
<trkpt lat="-27.2744241" lon="151.2900543">
  <ele>357.96</ele>
  <time>2026-09-01T19:51:07Z</time>
  <course>260.83</course>
  <speed>0.2220360331117452</speed>
  <fix>3d</fix>
</trkpt>
<trkpt lat="-27.2744244" lon="151.2900543">
  <ele>358.13</ele>
  <time>2026-09-01T19:51:07Z</time>
  <course>11.59</course>
  <speed>0.27</speed>
  <fix>3d</fix>
</trkpt>
<trkpt lat="-27.2744239" lon="151.2900543">
  <ele>357.96</ele>
  <time>2026-09-01T19:51:07Z</time>
  <course>258.83</course>
  <speed>0.21213203435596426</speed>
  <fix>3d</fix>
</trkpt>
<trkpt lat="-27.2744239" lon="151.2900544">
  <ele>358.13</ele>
  <time>2026-09-01T19:51:07Z</time>
  <course>12.88</course>
  <speed>0.25</speed>
  <fix>3d</fix>
</trkpt>
<trkpt lat="-27.2744237" lon="151.2900544">
  <ele>357.95</ele>
  <time>2026-09-01T19:51:07Z</time>
  <course>256.8</course>
  <speed>0.2039607805437114</speed>
  <fix>3d</fix>
</trkpt>
<trkpt lat="-27.2744239" lon="151.2900544">
  <ele>358.13</ele>
  <time>2026-09-01T19:51:07Z</time>
  <course>12.88</course>
  <speed>0.25</speed>
  <fix>3d</fix>
</trkpt>
<trkpt lat="-27.2744235" lon="151.2900544">
  <ele>357.95</ele>
  <time>2026-09-01T19:51:07Z</time>
  <course>254.78</course>
  <speed>0.18439088914585774</speed>
  <fix>3d</fix>
</trkpt>
<trkpt lat="-27.2744235" lon="151.2900546">
  <ele>358.12</ele>
  <time>2026-09-01T19:51:07Z</time>
  <course>15.03</course>
  <speed>0.22</speed>
  <fix>3d</fix>
</trkpt>
<trkpt lat="-27.2744233" lon="151.2900545">
  <ele>357.95</ele>
  <time>2026-09-01T19:51:07Z</time>
  <course>252.75</course>
  <speed>0.17464249196572978</speed>
  <fix>3d</fix>
</trkpt>
<trkpt lat="-27.2744235" lon="151.2900546">
  <ele>358.12</ele>
  <time>2026-09-01T19:51:07Z</time>
  <course>15.03</course>
  <speed>0.22</speed>
  <fix>3d</fix>
</trkpt>
<trkpt lat="-27.2744232" lon="151.2900545">
  <ele>357.95</ele>
  <time>2026-09-01T19:51:07Z</time>
  <course>250.7</course>
  <speed>0.1649242250247064</speed>
  <fix>3d</fix>
</trkpt>
<trkpt lat="-27.2744231" lon="151.2900547">
  <ele>358.12</ele>
  <time>2026-09-01T19:51:07Z</time>
  <course>18.21</course>
  <speed>0.2</speed>
  <fix>3d</fix>
</trkpt>
<trkpt lat="-27.274423" lon="151.2900546">
  <ele>357.95</ele>
  <time>2026-09-01T19:51:07Z</time>
  <course>248.65</course>
  <speed>0.14866068747318506</speed>
  <fix>3d</fix>
</trkpt>
<trkpt lat="-27.2744231" lon="151.2900547">
  <ele>358.12</ele>
  <time>2026-09-01T19:51:07Z</time>
  <course>18.21</course>
  <speed>0.2</speed>
  <fix>3d</fix>
</trkpt>
<trkpt lat="-27.2744229" lon="151.2900547">
  <ele>357.94</ele>
  <time>2026-09-01T19:51:07Z</time>
  <course>246.64</course>
  <speed>0.1392838827718412</speed>
  <fix>3d</fix>
</trkpt>
<trkpt lat="-27.2744228" lon="151.2900548">
  <ele>358.12</ele>
  <time>2026-09-01T19:51:07Z</time>
  <course>22.67</course>
  <speed>0.17</speed>
  <fix>3d</fix>
</trkpt>
<trkpt lat="-27.2744227" lon="151.2900548">
  <ele>357.94</ele>
  <time>2026-09-01T19:51:07Z</time>
  <course>245.01</course>
  <speed>0.13</speed>
  <fix>3d</fix>
</trkpt>
<trkpt lat="-27.2744228" lon="151.2900548">
  <ele>358.12</ele>
  <time>2026-09-01T19:51:07Z</time>
  <course>22.67</course>
  <speed>0.17</speed>
  <fix>3d</fix>
</trkpt>
<trkpt lat="-27.2744226" lon="151.2900548">
  <ele>357.94</ele>
  <time>2026-09-01T19:51:07Z</time>
  <course>244.08</course>
  <speed>0.11661903789690602</speed>
  <fix>3d</fix>
</trkpt>
<trkpt lat="-27.2744225" lon="151.290055">
  <ele>358.12</ele>
  <time>2026-09-01T19:51:07Z</time>
  <course>29.0</course>
  <speed>0.15</speed>
  <fix>3d</fix>
</trkpt>
<trkpt lat="-27.2744225" lon="151.2900549">
  <ele>357.94</ele>
  <time>2026-09-01T19:51:07Z</time>
  <course>243.84</course>
  <speed>0.10816653826391968</speed>
  <fix>3d</fix>
</trkpt>
<trkpt lat="-27.2744225" lon="151.290055">
  <ele>358.12</ele>
  <time>2026-09-01T19:51:07Z</time>
  <course>29.0</course>
  <speed>0.15</speed>
  <fix>3d</fix>
</trkpt>
<trkpt lat="-27.2744224" lon="151.290055">
  <ele>357.95</ele>
  <time>2026-09-01T19:51:07Z</time>
  <course>244.2</course>
  <speed>0.09899494936611665</speed>
  <fix>3d</fix>
</trkpt>
<trkpt lat="-27.2744223" lon="151.2900551">
  <ele>358.12</ele>
  <time>2026-09-01T19:51:07Z</time>
  <course>38.16</course>
  <speed>0.13</speed>
  <fix>3d</fix>
</trkpt>
<trkpt lat="-27.2744223" lon="151.2900551">
  <ele>357.95</ele>
  <time>2026-09-01T19:51:07Z</time>
  <course>244.96</course>
  <speed>0.09219544457292887</speed>
  <fix>3d</fix>
</trkpt>
<trkpt lat="-27.2744223" lon="151.2900551">
  <ele>358.12</ele>
  <time>2026-09-01T19:51:07Z</time>
  <course>38.16</course>
  <speed>0.13</speed>
  <fix>3d</fix>
</trkpt>
<trkpt lat="-27.2744223" lon="151.2900552">
  <ele>357.95</ele>
  <time>2026-09-01T19:51:07Z</time>
  <course>245.96</course>
  <speed>0.08944271909999159</speed>
  <fix>3d</fix>
</trkpt>
<trkpt lat="-27.2744221" lon="151.2900554">
  <ele>358.12</ele>
  <time>2026-09-01T19:51:07Z</time>
  <course>50.74</course>
  <speed>0.12</speed>
  <fix>3d</fix>
</trkpt>
<trkpt lat="-27.2744222" lon="151.2900553">
  <ele>357.95</ele>
  <time>2026-09-01T19:51:07Z</time>
  <course>247.01</course>
  <speed>0.0824621125123532</speed>
  <fix>3d</fix>
</trkpt>
<trkpt lat="-27.2744221" lon="151.2900554">
  <ele>358.12</ele>
  <time>2026-09-01T19:51:07Z</time>
  <course>50.74</course>
  <speed>0.12</speed>
  <fix>3d</fix>
</trkpt>
<trkpt lat="-27.2744222" lon="151.2900554">
  <ele>357.95</ele>
  <time>2026-09-01T19:51:07Z</time>
  <course>247.95</course>
  <speed>0.09055385138137417</speed>
  <fix>3d</fix>
</trkpt>
<trkpt lat="-27.274422" lon="151.2900556">
  <ele>358.13</ele>
  <time>2026-09-01T19:51:07Z</time>
  <course>66.38</course>
  <speed>0.11</speed>
  <fix>3d</fix>
</trkpt>
<trkpt lat="-27.2744222" lon="151.2900555">
  <ele>357.95</ele>
  <time>2026-09-01T19:51:07Z</time>
  <course>248.64</course>
  <speed>0.09</speed>
  <fix>3d</fix>
</trkpt>
<trkpt lat="-27.274422" lon="151.2900556">
  <ele>358.13</ele>
  <time>2026-09-01T19:51:07Z</time>
  <course>66.38</course>
  <speed>0.11</speed>
  <fix>3d</fix>
</trkpt>
<trkpt lat="-27.2744222" lon="151.2900557">
  <ele>357.95</ele>
  <time>2026-09-01T19:51:07Z</time>
  <course>249.08</course>
  <speed>0.1004987562112089</speed>
  <fix>3d</fix>
</trkpt>
<trkpt lat="-27.274422" lon="151.2900558">
  <ele>358.13</ele>
  <time>2026-09-01T19:51:07Z</time>
  <course>82.95</course>
  <speed>0.11</speed>
  <fix>3d</fix>
</trkpt>
<trkpt lat="-27.2744222" lon="151.2900558">
  <ele>357.95</ele>
  <time>2026-09-01T19:51:07Z</time>
  <course>249.23</course>
  <speed>0.1044030650891055</speed>
  <fix>3d</fix>
</trkpt>
<trkpt lat="-27.274422" lon="151.2900558">
  <ele>358.13</ele>
  <time>2026-09-01T19:51:07Z</time>
  <course>82.95</course>
  <speed>0.11</speed>
  <fix>3d</fix>
</trkpt>
<trkpt lat="-27.2744222" lon="151.2900559">
  <ele>357.95</ele>
  <time>2026-09-01T19:51:07Z</time>
  <course>249.13</course>
  <speed>0.11704699910719625</speed>
  <fix>3d</fix>
</trkpt>
<trkpt lat="-27.274422" lon="151.290056">
  <ele>358.13</ele>
  <time>2026-09-01T19:51:07Z</time>
  <course>97.88</course>
  <speed>0.12</speed>
  <fix>3d</fix>
</trkpt>
<trkpt lat="-27.2744222" lon="151.2900561">
  <ele>357.94</ele>
  <time>2026-09-01T19:51:07Z</time>
  <course>248.99</course>
  <speed>0.12529964086141668</speed>
  <fix>3d</fix>
</trkpt>
<trkpt lat="-27.274422" lon="151.290056">
  <ele>358.13</ele>
  <time>2026-09-01T19:51:07Z</time>
  <course>97.88</course>
  <speed>0.12</speed>
  <fix>3d</fix>
</trkpt>
<trkpt lat="-27.2744222" lon="151.2900562">
  <ele>357.94</ele>
  <time>2026-09-01T19:51:07Z</time>
  <course>249.68</course>
  <speed>0.14422205101855956</speed>
  <fix>3d</fix>
</trkpt>
<trkpt lat="-27.274422" lon="151.2900563">
  <ele>358.13</ele>
  <time>2026-09-01T19:51:07Z</time>
  <course>110.06</course>
  <speed>0.14</speed>
  <fix>3d</fix>
</trkpt>
<trkpt lat="-27.2744222" lon="151.2900564">
  <ele>357.94</ele>
  <time>2026-09-01T19:51:07Z</time>
  <course>251.06</course>
  <speed>0.15</speed>
  <fix>3d</fix>
</trkpt>
<trkpt lat="-27.274422" lon="151.2900563">
  <ele>358.13</ele>
  <time>2026-09-01T19:51:07Z</time>
  <course>110.06</course>
  <speed>0.14</speed>
  <fix>3d</fix>
</trkpt>
<trkpt lat="-27.2744223" lon="151.2900565">
  <ele>357.94</ele>
  <time>2026-09-01T19:51:07Z</time>
  <course>252.84</course>
  <speed>0.17029386365926402</speed>
  <fix>3d</fix>
</trkpt>
<trkpt lat="-27.2744221" lon="151.2900565">
  <ele>358.14</ele>
  <time>2026-09-01T19:51:07Z</time>
  <course>119.55</course>
  <speed>0.16</speed>
  <fix>3d</fix>
</trkpt>
<trkpt lat="-27.2744224" lon="151.2900567">
  <ele>357.94</ele>
  <time>2026-09-01T19:51:07Z</time>
  <course>254.8</course>
  <speed>0.18384776310850234</speed>
  <fix>3d</fix>
</trkpt>
<trkpt lat="-27.2744221" lon="151.2900565">
  <ele>358.14</ele>
  <time>2026-09-01T19:51:07Z</time>
  <course>119.55</course>
  <speed>0.16</speed>
  <fix>3d</fix>
</trkpt>
<trkpt lat="-27.2744225" lon="151.2900568">
  <ele>357.95</ele>
  <time>2026-09-01T19:51:07Z</time>
  <course>256.85</course>
  <speed>0.191049731745428</speed>
  <fix>3d</fix>
</trkpt>
<trkpt lat="-27.2744223" lon="151.2900568">
  <ele>358.14</ele>
  <time>2026-09-01T19:51:07Z</time>
  <course>126.92</course>
  <speed>0.18</speed>
  <fix>3d</fix>
</trkpt>
<trkpt lat="-27.2744226" lon="151.290057">
  <ele>357.95</ele>
  <time>2026-09-01T19:51:07Z</time>
  <course>258.95</course>
  <speed>0.212602916254693</speed>
  <fix>3d</fix>
</trkpt>
<trkpt lat="-27.2744223" lon="151.2900568">
  <ele>358.14</ele>
  <time>2026-09-01T19:51:07Z</time>
  <course>126.92</course>
  <speed>0.18</speed>
  <fix>3d</fix>
</trkpt>
<trkpt lat="-27.2744228" lon="151.2900571">
  <ele>357.95</ele>
  <time>2026-09-01T19:51:07Z</time>
  <course>261.06</course>
  <speed>0.22022715545545238</speed>
  <fix>3d</fix>
</trkpt>
<trkpt lat="-27.2744225" lon="151.2900571">
  <ele>358.14</ele>
  <time>2026-09-01T19:51:07Z</time>
  <course>132.83</course>
  <speed>0.21</speed>
  <fix>3d</fix>
</trkpt>
<trkpt lat="-27.2744229" lon="151.2900573">
  <ele>357.96</ele>
  <time>2026-09-01T19:51:07Z</time>
  <course>263.07</course>
  <speed>0.23600847442411893</speed>
  <fix>3d</fix>
</trkpt>
<trkpt lat="-27.2744225" lon="151.2900571">
  <ele>358.14</ele>
  <time>2026-09-01T19:51:08Z</time>
  <course>132.83</course>
  <speed>0.21</speed>
  <fix>3d</fix>
</trkpt>
<trkpt lat="-27.2744231" lon="151.2900574">
  <ele>357.96</ele>
  <time>2026-09-01T19:51:08Z</time>
  <course>264.47</course>
  <speed>0.24413111231467405</speed>
  <fix>3d</fix>
</trkpt>
<trkpt lat="-27.2744227" lon="151.2900575">
  <ele>358.14</ele>
  <time>2026-09-01T19:51:08Z</time>
  <course>137.76</course>
  <speed>0.23</speed>
  <fix>3d</fix>
</trkpt>
<trkpt lat="-27.2744233" lon="151.2900576">
  <ele>357.96</ele>
  <time>2026-09-01T19:51:08Z</time>
  <course>265.07</course>
  <speed>0.260768096208106</speed>
  <fix>3d</fix>
</trkpt>
<trkpt lat="-27.2744227" lon="151.2900575">
  <ele>358.14</ele>
  <time>2026-09-01T19:51:08Z</time>
  <course>137.76</course>
  <speed>0.23</speed>
  <fix>3d</fix>
</trkpt>
<trkpt lat="-27.2744234" lon="151.2900578">
  <ele>357.96</ele>
  <time>2026-09-01T19:51:08Z</time>
  <course>264.9</course>
  <speed>0.2692582403567252</speed>
  <fix>3d</fix>
</trkpt>
<trkpt lat="-27.2744231" lon="151.2900578">
  <ele>358.15</ele>
  <time>2026-09-01T19:51:08Z</time>
  <course>142.18</course>
  <speed>0.25</speed>
  <fix>3d</fix>
</trkpt>
<trkpt lat="-27.2744236" lon="151.2900579">
  <ele>357.96</ele>
  <time>2026-09-01T19:51:08Z</time>
  <course>264.17</course>
  <speed>0.27294688127912364</speed>
  <fix>3d</fix>
</trkpt>
<trkpt lat="-27.2744231" lon="151.2900578">
  <ele>358.15</ele>
  <time>2026-09-01T19:51:08Z</time>
  <course>142.18</course>
  <speed>0.25</speed>
  <fix>3d</fix>
</trkpt>
<trkpt lat="-27.2744238" lon="151.2900581">
  <ele>357.96</ele>
  <time>2026-09-01T19:51:08Z</time>
  <course>263.08</course>
  <speed>0.2906888370749727</speed>
  <fix>3d</fix>
</trkpt>
<trkpt lat="-27.2744235" lon="151.2900581">
  <ele>358.15</ele>
  <time>2026-09-01T19:51:08Z</time>
  <course>146.39</course>
  <speed>0.27</speed>
  <fix>3d</fix>
</trkpt>
<trkpt lat="-27.2744241" lon="151.2900582">
  <ele>357.97</ele>
  <time>2026-09-01T19:51:08Z</time>
  <course>261.86</course>
  <speed>0.29966648127543394</speed>
  <fix>3d</fix>
</trkpt>
<trkpt lat="-27.2744235" lon="151.2900581">
  <ele>358.15</ele>
  <time>2026-09-01T19:51:08Z</time>
  <course>146.39</course>
  <speed>0.27</speed>
  <fix>3d</fix>
</trkpt>
<trkpt lat="-27.2744243" lon="151.2900584">
  <ele>357.97</ele>
  <time>2026-09-01T19:51:08Z</time>
  <course>260.71</course>
  <speed>0.3138470965295043</speed>
  <fix>3d</fix>
</trkpt>
<trkpt lat="-27.2744239" lon="151.2900584">
  <ele>358.15</ele>
  <time>2026-09-01T19:51:08Z</time>
  <course>150.62</course>
  <speed>0.29</speed>
  <fix>3d</fix>
</trkpt>
<trkpt lat="-27.2744246" lon="151.2900585">
  <ele>357.97</ele>
  <time>2026-09-01T19:51:08Z</time>
  <course>259.79</course>
  <speed>0.3195309061734092</speed>
  <fix>3d</fix>
</trkpt>
<trkpt lat="-27.2744239" lon="151.2900584">
  <ele>358.15</ele>
  <time>2026-09-01T19:51:08Z</time>
  <course>150.62</course>
  <speed>0.29</speed>
  <fix>3d</fix>
</trkpt>
<trkpt lat="-27.2744248" lon="151.2900586">
  <ele>357.96</ele>
  <time>2026-09-01T19:51:08Z</time>
  <course>258.92</course>
  <speed>0.33837848631377265</speed>
  <fix>3d</fix>
</trkpt>
<trkpt lat="-27.2744244" lon="151.2900586">
  <ele>358.15</ele>
  <time>2026-09-01T19:51:08Z</time>
  <course>155.14</course>
  <speed>0.31</speed>
  <fix>3d</fix>
</trkpt>
<trkpt lat="-27.2744251" lon="151.2900588">
  <ele>357.96</ele>
  <time>2026-09-01T19:51:08Z</time>
  <course>257.67</course>
  <speed>0.34481879299133333</speed>
  <fix>3d</fix>
</trkpt>
<trkpt lat="-27.2744244" lon="151.2900586">
  <ele>358.15</ele>
  <time>2026-09-01T19:51:08Z</time>
  <course>155.14</course>
  <speed>0.31</speed>
  <fix>3d</fix>
</trkpt>
<trkpt lat="-27.2744254" lon="151.2900589">
  <ele>357.96</ele>
  <time>2026-09-01T19:51:08Z</time>
  <course>256.14</course>
  <speed>0.36138621999185305</speed>
  <fix>3d</fix>
</trkpt>
<trkpt lat="-27.274425" lon="151.2900589">
  <ele>358.14</ele>
  <time>2026-09-01T19:51:08Z</time>
  <course>159.81</course>
  <speed>0.33</speed>
  <fix>3d</fix>
</trkpt>
<trkpt lat="-27.2744257" lon="151.290059">
  <ele>357.96</ele>
  <time>2026-09-01T19:51:08Z</time>
  <course>254.49</course>
  <speed>0.3687817782917155</speed>
  <fix>3d</fix>
</trkpt>
<trkpt lat="-27.274425" lon="151.2900589">
  <ele>358.14</ele>
  <time>2026-09-01T19:51:08Z</time>
  <course>159.81</course>
  <speed>0.33</speed>
  <fix>3d</fix>
</trkpt>
<trkpt lat="-27.274426" lon="151.2900591">
  <ele>357.96</ele>
  <time>2026-09-01T19:51:08Z</time>
  <course>252.77</course>
  <speed>0.378549864614954</speed>
  <fix>3d</fix>
</trkpt>
<trkpt lat="-27.2744256" lon="151.2900591">
  <ele>358.14</ele>
  <time>2026-09-01T19:51:08Z</time>
  <course>163.17</course>
  <speed>0.36</speed>
  <fix>3d</fix>
</trkpt>
<trkpt lat="-27.2744263" lon="151.2900592">
  <ele>357.96</ele>
  <time>2026-09-01T19:51:08Z</time>
  <course>251.02</course>
  <speed>0.40024992192379005</speed>
  <fix>3d</fix>
</trkpt>
<trkpt lat="-27.2744256" lon="151.2900591">
  <ele>358.14</ele>
  <time>2026-09-01T19:51:08Z</time>
  <course>163.17</course>
  <speed>0.36</speed>
  <fix>3d</fix>
</trkpt>
<trkpt lat="-27.2744267" lon="151.2900593">
  <ele>357.96</ele>
  <time>2026-09-01T19:51:08Z</time>
  <course>249.26</course>
  <speed>0.41</speed>
  <fix>3d</fix>
</trkpt>
<trkpt lat="-27.2744262" lon="151.2900594">
  <ele>358.14</ele>
  <time>2026-09-01T19:51:08Z</time>
  <course>164.13</course>
  <speed>0.38</speed>
  <fix>3d</fix>
</trkpt>
<trkpt lat="-27.274427" lon="151.2900594">
  <ele>357.96</ele>
  <time>2026-09-01T19:51:08Z</time>
  <course>247.5</course>
  <speed>0.4220189569201838</speed>
  <fix>3d</fix>
</trkpt>
<trkpt lat="-27.2744262" lon="151.2900594">
  <ele>358.14</ele>
  <time>2026-09-01T19:51:08Z</time>
  <course>164.13</course>
  <speed>0.38</speed>
  <fix>3d</fix>
</trkpt>
<trkpt lat="-27.2744274" lon="151.2900595">
  <ele>357.96</ele>
  <time>2026-09-01T19:51:08Z</time>
  <course>245.74</course>
  <speed>0.431740662898458</speed>
  <fix>3d</fix>
</trkpt>
<trkpt lat="-27.2744269" lon="151.2900596">
  <ele>358.14</ele>
  <time>2026-09-01T19:51:08Z</time>
  <course>163.87</course>
  <speed>0.41</speed>
  <fix>3d</fix>
</trkpt>
<trkpt lat="-27.2744278" lon="151.2900596">
  <ele>357.96</ele>
  <time>2026-09-01T19:51:08Z</time>
  <course>243.98</course>
  <speed>0.44147480109288234</speed>
  <fix>3d</fix>
</trkpt>
<trkpt lat="-27.2744269" lon="151.2900596">
  <ele>358.14</ele>
  <time>2026-09-01T19:51:08Z</time>
  <course>163.87</course>
  <speed>0.41</speed>
  <fix>3d</fix>
</trkpt>
<trkpt lat="-27.2744281" lon="151.2900598">
  <ele>357.96</ele>
  <time>2026-09-01T19:51:08Z</time>
  <course>242.2</course>
  <speed>0.4632493928760188</speed>
  <fix>3d</fix>
</trkpt>
<trkpt lat="-27.2744276" lon="151.2900598">
  <ele>358.14</ele>
  <time>2026-09-01T19:51:08Z</time>
  <course>163.6</course>
  <speed>0.43</speed>
  <fix>3d</fix>
</trkpt>
<trkpt lat="-27.2744285" lon="151.2900599">
  <ele>357.96</ele>
  <time>2026-09-01T19:51:08Z</time>
  <course>240.43</course>
  <speed>0.4729693436154187</speed>
  <fix>3d</fix>
</trkpt>
<trkpt lat="-27.2744276" lon="151.2900598">
  <ele>358.14</ele>
  <time>2026-09-01T19:51:08Z</time>
  <course>163.6</course>
  <speed>0.43</speed>
  <fix>3d</fix>
</trkpt>
<trkpt lat="-27.2744289" lon="151.29006">
  <ele>357.96</ele>
  <time>2026-09-01T19:51:08Z</time>
  <course>238.66</course>
  <speed>0.4850773134253961</speed>
  <fix>3d</fix>
</trkpt>
<trkpt lat="-27.2744284" lon="151.2900601">
  <ele>358.14</ele>
  <time>2026-09-01T19:51:08Z</time>
  <course>163.35</course>
  <speed>0.46</speed>
  <fix>3d</fix>
</trkpt>
<trkpt lat="-27.2744293" lon="151.2900602">
  <ele>357.96</ele>
  <time>2026-09-01T19:51:08Z</time>
  <course>236.9</course>
  <speed>0.49477267507411926</speed>
  <fix>3d</fix>
</trkpt>
<trkpt lat="-27.2744284" lon="151.2900601">
  <ele>358.14</ele>
  <time>2026-09-01T19:51:08Z</time>
  <course>163.35</course>
  <speed>0.46</speed>
  <fix>3d</fix>
</trkpt>
<trkpt lat="-27.2744298" lon="151.2900603">
  <ele>357.96</ele>
  <time>2026-09-01T19:51:08Z</time>
  <course>235.14</course>
  <speed>0.5069516742254631</speed>
  <fix>3d</fix>
</trkpt>
<trkpt lat="-27.2744292" lon="151.2900603">
  <ele>358.13</ele>
  <time>2026-09-01T19:51:08Z</time>
  <course>163.1</course>
  <speed>0.48</speed>
  <fix>3d</fix>
</trkpt>
<trkpt lat="-27.2744302" lon="151.2900605">
  <ele>357.96</ele>
  <time>2026-09-01T19:51:08Z</time>
  <course>233.39</course>
  <speed>0.5166236541235796</speed>
  <fix>3d</fix>
</trkpt>
<trkpt lat="-27.2744292" lon="151.2900603">
  <ele>358.13</ele>
  <time>2026-09-01T19:51:08Z</time>
  <course>163.1</course>
  <speed>0.48</speed>
  <fix>3d</fix>
</trkpt>
<trkpt lat="-27.2744306" lon="151.2900606">
  <ele>357.95</ele>
  <time>2026-09-01T19:51:08Z</time>
  <course>231.63</course>
  <speed>0.5288667128870941</speed>
  <fix>3d</fix>
</trkpt>
<trkpt lat="-27.27443" lon="151.2900606">
  <ele>358.13</ele>
  <time>2026-09-01T19:51:08Z</time>
  <course>162.82</course>
  <speed>0.5</speed>
  <fix>3d</fix>
</trkpt>
<trkpt lat="-27.2744311" lon="151.2900608">
  <ele>357.96</ele>
  <time>2026-09-01T19:51:08Z</time>
  <course>229.87</course>
  <speed>0.5385164807134504</speed>
  <fix>3d</fix>
</trkpt>
<trkpt lat="-27.27443" lon="151.2900606">
  <ele>358.13</ele>
  <time>2026-09-01T19:51:08Z</time>
  <course>162.82</course>
  <speed>0.5</speed>
  <fix>3d</fix>
</trkpt>
<trkpt lat="-27.2744315" lon="151.2900609">
  <ele>357.96</ele>
  <time>2026-09-01T19:51:08Z</time>
  <course>228.19</course>
  <speed>0.5481788029466298</speed>
  <fix>3d</fix>
</trkpt>
<trkpt lat="-27.2744309" lon="151.2900609">
  <ele>358.13</ele>
  <time>2026-09-01T19:51:08Z</time>
  <course>162.54</course>
  <speed>0.52</speed>
  <fix>3d</fix>
</trkpt>
<trkpt lat="-27.274432" lon="151.2900611">
  <ele>357.96</ele>
  <time>2026-09-01T19:51:08Z</time>
  <course>226.92</course>
  <speed>0.5604462507680822</speed>
  <fix>3d</fix>
</trkpt>
<trkpt lat="-27.2744309" lon="151.2900609">
  <ele>358.13</ele>
  <time>2026-09-01T19:51:08Z</time>
  <course>162.54</course>
  <speed>0.52</speed>
  <fix>3d</fix>
</trkpt>
<trkpt lat="-27.2744325" lon="151.2900613">
  <ele>357.96</ele>
  <time>2026-09-01T19:51:08Z</time>
  <course>226.25</course>
  <speed>0.5604462507680822</speed>
  <fix>3d</fix>
</trkpt>
<trkpt lat="-27.2744318" lon="151.2900613">
  <ele>358.13</ele>
  <time>2026-09-01T19:51:08Z</time>
  <course>162.36</course>
  <speed>0.54</speed>
  <fix>3d</fix>
</trkpt>
<trkpt lat="-27.2744329" lon="151.2900614">
  <ele>357.96</ele>
  <time>2026-09-01T19:51:08Z</time>
  <course>226.15</course>
  <speed>0.570087712549569</speed>
  <fix>3d</fix>
</trkpt>
<trkpt lat="-27.2744318" lon="151.2900613">
  <ele>358.13</ele>
  <time>2026-09-01T19:51:08Z</time>
  <course>162.36</course>
  <speed>0.54</speed>
  <fix>3d</fix>
</trkpt>
<trkpt lat="-27.2744334" lon="151.2900616">
  <ele>357.97</ele>
  <time>2026-09-01T19:51:08Z</time>
  <course>226.51</course>
  <speed>0.570087712549569</speed>
  <fix>3d</fix>
</trkpt>
<trkpt lat="-27.2744328" lon="151.2900616">
  <ele>358.13</ele>
  <time>2026-09-01T19:51:08Z</time>
  <course>162.37</course>
  <speed>0.56</speed>
  <fix>3d</fix>
</trkpt>
<trkpt lat="-27.2744339" lon="151.2900618">
  <ele>357.97</ele>
  <time>2026-09-01T19:51:08Z</time>
  <course>227.18</course>
  <speed>0.5797413216254298</speed>
  <fix>3d</fix>
</trkpt>
<trkpt lat="-27.2744328" lon="151.2900616">
  <ele>358.13</ele>
  <time>2026-09-01T19:51:08Z</time>
  <course>162.37</course>
  <speed>0.56</speed>
  <fix>3d</fix>
</trkpt>
<trkpt lat="-27.2744344" lon="151.290062">
  <ele>357.97</ele>
  <time>2026-09-01T19:51:08Z</time>
  <course>227.99</course>
  <speed>0.5797413216254298</speed>
  <fix>3d</fix>
</trkpt>
<trkpt lat="-27.2744338" lon="151.2900619">
  <ele>358.13</ele>
  <time>2026-09-01T19:51:08Z</time>
  <course>162.52</course>
  <speed>0.57</speed>
  <fix>3d</fix>
</trkpt>
<trkpt lat="-27.2744349" lon="151.2900621">
  <ele>357.97</ele>
  <time>2026-09-01T19:51:08Z</time>
  <course>228.81</course>
  <speed>0.5797413216254298</speed>
  <fix>3d</fix>
</trkpt>
<trkpt lat="-27.2744338" lon="151.2900619">
  <ele>358.13</ele>
  <time>2026-09-01T19:51:08Z</time>
  <course>162.52</course>
  <speed>0.57</speed>
  <fix>3d</fix>
</trkpt>
<trkpt lat="-27.2744354" lon="151.2900623">
  <ele>357.97</ele>
  <time>2026-09-01T19:51:08Z</time>
  <course>229.51</course>
  <speed>0.5894064811316551</speed>
  <fix>3d</fix>
</trkpt>
<trkpt lat="-27.2744348" lon="151.2900623">
  <ele>358.13</ele>
  <time>2026-09-01T19:51:08Z</time>
  <course>162.7</course>
  <speed>0.57</speed>
  <fix>3d</fix>
</trkpt>
<trkpt lat="-27.2744359" lon="151.2900625">
  <ele>357.97</ele>
  <time>2026-09-01T19:51:08Z</time>
  <course>230.02</course>
  <speed>0.5894064811316551</speed>
  <fix>3d</fix>
</trkpt>
<trkpt lat="-27.2744348" lon="151.2900623">
  <ele>358.13</ele>
  <time>2026-09-01T19:51:08Z</time>
  <course>162.7</course>
  <speed>0.57</speed>
  <fix>3d</fix>
</trkpt>
<trkpt lat="-27.2744364" lon="151.2900626">
  <ele>357.96</ele>
  <time>2026-09-01T19:51:08Z</time>
  <course>230.3</course>
  <speed>0.5894064811316551</speed>
  <fix>3d</fix>
</trkpt>
<trkpt lat="-27.2744358" lon="151.2900627">
  <ele>358.13</ele>
  <time>2026-09-01T19:51:08Z</time>
  <course>162.9</course>
  <speed>0.58</speed>
  <fix>3d</fix>
</trkpt>
<trkpt lat="-27.2744369" lon="151.2900628">
  <ele>357.96</ele>
  <time>2026-09-01T19:51:08Z</time>
  <course>230.37</course>
  <speed>0.5894064811316551</speed>
  <fix>3d</fix>
</trkpt>
<trkpt lat="-27.2744358" lon="151.2900627">
  <ele>358.13</ele>
  <time>2026-09-01T19:51:08Z</time>
  <course>162.9</course>
  <speed>0.58</speed>
  <fix>3d</fix>
</trkpt>
<trkpt lat="-27.2744374" lon="151.290063">
  <ele>357.95</ele>
  <time>2026-09-01T19:51:08Z</time>
  <course>230.28</course>
  <speed>0.5894064811316551</speed>
  <fix>3d</fix>
</trkpt>
<trkpt lat="-27.2744367" lon="151.290063">
  <ele>358.12</ele>
  <time>2026-09-01T19:51:08Z</time>
  <course>163.07</course>
  <speed>0.58</speed>
  <fix>3d</fix>
</trkpt>
<trkpt lat="-27.2744379" lon="151.2900632">
  <ele>357.95</ele>
  <time>2026-09-01T19:51:08Z</time>
  <course>230.7</course>
  <speed>0.5894064811316551</speed>
  <fix>3d</fix>
</trkpt>
<trkpt lat="-27.2744367" lon="151.290063">
  <ele>358.12</ele>
  <time>2026-09-01T19:51:08Z</time>
  <course>163.07</course>
  <speed>0.58</speed>
  <fix>3d</fix>
</trkpt>
<trkpt lat="-27.2744384" lon="151.2900633">
  <ele>357.95</ele>
  <time>2026-09-01T19:51:08Z</time>
  <course>232.01</course>
  <speed>0.5894064811316551</speed>
  <fix>3d</fix>
</trkpt>
<trkpt lat="-27.2744378" lon="151.2900634">
  <ele>358.12</ele>
  <time>2026-09-01T19:51:08Z</time>
  <course>163.22</course>
  <speed>0.58</speed>
  <fix>3d</fix>
</trkpt>
<trkpt lat="-27.2744389" lon="151.2900635">
  <ele>357.95</ele>
  <time>2026-09-01T19:51:08Z</time>
  <course>233.8</course>
  <speed>0.5894064811316551</speed>
  <fix>3d</fix>
</trkpt>
<trkpt lat="-27.2744378" lon="151.2900634">
  <ele>358.12</ele>
  <time>2026-09-01T19:51:08Z</time>
  <course>163.22</course>
  <speed>0.58</speed>
  <fix>3d</fix>
</trkpt>
<trkpt lat="-27.2744394" lon="151.2900637">
  <ele>357.95</ele>
  <time>2026-09-01T19:51:08Z</time>
  <course>235.8</course>
  <speed>0.5990826320300063</speed>
  <fix>3d</fix>
</trkpt>
<trkpt lat="-27.2744388" lon="151.2900637">
  <ele>358.12</ele>
  <time>2026-09-01T19:51:08Z</time>
  <course>163.37</course>
  <speed>0.58</speed>
  <fix>3d</fix>
</trkpt>
<trkpt lat="-27.2744399" lon="151.2900639">
  <ele>357.95</ele>
  <time>2026-09-01T19:51:08Z</time>
  <course>237.93</course>
  <speed>0.5990826320300063</speed>
  <fix>3d</fix>
</trkpt>
<trkpt lat="-27.2744388" lon="151.2900637">
  <ele>358.12</ele>
  <time>2026-09-01T19:51:08Z</time>
  <course>163.37</course>
  <speed>0.58</speed>
  <fix>3d</fix>
</trkpt>
<trkpt lat="-27.2744404" lon="151.290064">
  <ele>357.95</ele>
  <time>2026-09-01T19:51:08Z</time>
  <course>240.05</course>
  <speed>0.5990826320300063</speed>
  <fix>3d</fix>
</trkpt>
<trkpt lat="-27.2744397" lon="151.290064">
  <ele>358.12</ele>
  <time>2026-09-01T19:51:08Z</time>
  <course>163.48</course>
  <speed>0.58</speed>
  <fix>3d</fix>
</trkpt>
<trkpt lat="-27.2744409" lon="151.2900642">
  <ele>357.95</ele>
  <time>2026-09-01T19:51:08Z</time>
  <course>242.19</course>
  <speed>0.5894064811316551</speed>
  <fix>3d</fix>
</trkpt>
<trkpt lat="-27.2744397" lon="151.290064">
  <ele>358.12</ele>
  <time>2026-09-01T19:51:08Z</time>
  <course>163.48</course>
  <speed>0.58</speed>
  <fix>3d</fix>
</trkpt>
<trkpt lat="-27.2744414" lon="151.2900644">
  <ele>357.95</ele>
  <time>2026-09-01T19:51:08Z</time>
  <course>244.23</course>
  <speed>0.5894064811316551</speed>
  <fix>3d</fix>
</trkpt>
<trkpt lat="-27.2744408" lon="151.2900644">
  <ele>358.12</ele>
  <time>2026-09-01T19:51:08Z</time>
  <course>163.54</course>
  <speed>0.58</speed>
  <fix>3d</fix>
</trkpt>
<trkpt lat="-27.2744419" lon="151.2900645">
  <ele>357.95</ele>
  <time>2026-09-01T19:51:08Z</time>
  <course>245.65</course>
  <speed>0.5894064811316551</speed>
  <fix>3d</fix>
</trkpt>
<trkpt lat="-27.2744408" lon="151.2900644">
  <ele>358.12</ele>
  <time>2026-09-01T19:51:08Z</time>
  <course>163.54</course>
  <speed>0.58</speed>
  <fix>3d</fix>
</trkpt>
<trkpt lat="-27.2744424" lon="151.2900647">
  <ele>357.95</ele>
  <time>2026-09-01T19:51:08Z</time>
  <course>246.23</course>
  <speed>0.5894064811316551</speed>
  <fix>3d</fix>
</trkpt>
<trkpt lat="-27.2744418" lon="151.2900647">
  <ele>358.12</ele>
  <time>2026-09-01T19:51:08Z</time>
  <course>163.55</course>
  <speed>0.57</speed>
  <fix>3d</fix>
</trkpt>
<trkpt lat="-27.2744429" lon="151.2900649">
  <ele>357.95</ele>
  <time>2026-09-01T19:51:08Z</time>
  <course>246.05</course>
  <speed>0.5797413216254298</speed>
  <fix>3d</fix>
</trkpt>
<trkpt lat="-27.2744418" lon="151.2900647">
  <ele>358.12</ele>
  <time>2026-09-01T19:51:08Z</time>
  <course>163.55</course>
  <speed>0.57</speed>
  <fix>3d</fix>
</trkpt>
<trkpt lat="-27.2744434" lon="151.290065">
  <ele>357.95</ele>
  <time>2026-09-01T19:51:08Z</time>
  <course>245.3</course>
  <speed>0.5797413216254298</speed>
  <fix>3d</fix>
</trkpt>
<trkpt lat="-27.2744428" lon="151.290065">
  <ele>358.12</ele>
  <time>2026-09-01T19:51:08Z</time>
  <course>163.57</course>
  <speed>0.57</speed>
  <fix>3d</fix>
</trkpt>
<trkpt lat="-27.2744439" lon="151.2900652">
  <ele>357.95</ele>
  <time>2026-09-01T19:51:08Z</time>
  <course>244.21</course>
  <speed>0.5675385449465085</speed>
  <fix>3d</fix>
</trkpt>
<trkpt lat="-27.2744428" lon="151.290065">
  <ele>358.12</ele>
  <time>2026-09-01T19:51:08Z</time>
  <course>163.57</course>
  <speed>0.57</speed>
  <fix>3d</fix>
</trkpt>
<trkpt lat="-27.2744444" lon="151.2900654">
  <ele>357.95</ele>
  <time>2026-09-01T19:51:08Z</time>
  <course>243.0</course>
  <speed>0.5675385449465085</speed>
  <fix>3d</fix>
</trkpt>
<trkpt lat="-27.2744438" lon="151.2900654">
  <ele>358.12</ele>
  <time>2026-09-01T19:51:08Z</time>
  <course>163.61</course>
  <speed>0.55</speed>
  <fix>3d</fix>
</trkpt>
<trkpt lat="-27.2744448" lon="151.2900655">
  <ele>357.95</ele>
  <time>2026-09-01T19:51:08Z</time>
  <course>241.88</course>
  <speed>0.5578530272392541</speed>
  <fix>3d</fix>
</trkpt>
<trkpt lat="-27.2744438" lon="151.2900654">
  <ele>358.12</ele>
  <time>2026-09-01T19:51:08Z</time>
  <course>163.61</course>
  <speed>0.55</speed>
  <fix>3d</fix>
</trkpt>
<trkpt lat="-27.2744453" lon="151.2900657">
  <ele>357.95</ele>
  <time>2026-09-01T19:51:08Z</time>
  <course>241.0</course>
  <speed>0.5481788029466298</speed>
  <fix>3d</fix>
</trkpt>
<trkpt lat="-27.2744447" lon="151.2900657">
  <ele>358.12</ele>
  <time>2026-09-01T19:51:08Z</time>
  <course>163.69</course>
  <speed>0.54</speed>
  <fix>3d</fix>
</trkpt>
<trkpt lat="-27.2744458" lon="151.2900658">
  <ele>357.95</ele>
  <time>2026-09-01T19:51:08Z</time>
  <course>240.1</course>
  <speed>0.5457105459856901</speed>
  <fix>3d</fix>
</trkpt>
<trkpt lat="-27.2744447" lon="151.2900657">
  <ele>358.12</ele>
  <time>2026-09-01T19:51:08Z</time>
  <course>163.69</course>
  <speed>0.54</speed>
  <fix>3d</fix>
</trkpt>
<trkpt lat="-27.2744462" lon="151.290066">
  <ele>357.95</ele>
  <time>2026-09-01T19:51:08Z</time>
  <course>238.77</course>
  <speed>0.5360037313302959</speed>
  <fix>3d</fix>
</trkpt>
<trkpt lat="-27.2744456" lon="151.290066">
  <ele>358.13</ele>
  <time>2026-09-01T19:51:08Z</time>
  <course>163.77</course>
  <speed>0.52</speed>
  <fix>3d</fix>
</trkpt>
<trkpt lat="-27.2744467" lon="151.2900661">
  <ele>357.95</ele>
  <time>2026-09-01T19:51:08Z</time>
  <course>237.2</course>
  <speed>0.5263078946776306</speed>
  <fix>3d</fix>
</trkpt>
<trkpt lat="-27.2744456" lon="151.290066">
  <ele>358.13</ele>
  <time>2026-09-01T19:51:08Z</time>
  <course>163.77</course>
  <speed>0.52</speed>
  <fix>3d</fix>
</trkpt>
<trkpt lat="-27.2744471" lon="151.2900663">
  <ele>357.94</ele>
  <time>2026-09-01T19:51:08Z</time>
  <course>235.51</course>
  <speed>0.5263078946776306</speed>
  <fix>3d</fix>
</trkpt>
<trkpt lat="-27.2744465" lon="151.2900663">
  <ele>358.13</ele>
  <time>2026-09-01T19:51:08Z</time>
  <course>163.86</course>
  <speed>0.51</speed>
  <fix>3d</fix>
</trkpt>
<trkpt lat="-27.2744475" lon="151.2900664">
  <ele>357.94</ele>
  <time>2026-09-01T19:51:08Z</time>
  <course>233.8</course>
  <speed>0.5141984052872977</speed>
  <fix>3d</fix>
</trkpt>
<trkpt lat="-27.2744465" lon="151.2900663">
  <ele>358.13</ele>
  <time>2026-09-01T19:51:08Z</time>
  <course>163.86</course>
  <speed>0.51</speed>
  <fix>3d</fix>
</trkpt>
<trkpt lat="-27.274448" lon="151.2900666">
  <ele>357.94</ele>
  <time>2026-09-01T19:51:08Z</time>
  <course>232.05</course>
  <speed>0.5044799302251776</speed>
  <fix>3d</fix>
</trkpt>
<trkpt lat="-27.2744474" lon="151.2900666">
  <ele>358.13</ele>
  <time>2026-09-01T19:51:08Z</time>
  <course>163.95</course>
  <speed>0.49</speed>
  <fix>3d</fix>
</trkpt>
<trkpt lat="-27.2744484" lon="151.2900667">
  <ele>357.94</ele>
  <time>2026-09-01T19:51:08Z</time>
  <course>230.31</course>
  <speed>0.49477267507411926</speed>
  <fix>3d</fix>
</trkpt>
<trkpt lat="-27.2744474" lon="151.2900666">
  <ele>358.13</ele>
  <time>2026-09-01T19:51:08Z</time>
  <course>163.95</course>
  <speed>0.49</speed>
  <fix>3d</fix>
</trkpt>
<trkpt lat="-27.2744488" lon="151.2900668">
  <ele>357.94</ele>
  <time>2026-09-01T19:51:08Z</time>
  <course>228.56</course>
  <speed>0.49477267507411926</speed>
  <fix>3d</fix>
</trkpt>
<trkpt lat="-27.2744482" lon="151.2900668">
  <ele>358.13</ele>
  <time>2026-09-01T19:51:08Z</time>
  <course>164.07</course>
  <speed>0.48</speed>
  <fix>3d</fix>
</trkpt>
<trkpt lat="-27.2744492" lon="151.290067">
  <ele>357.94</ele>
  <time>2026-09-01T19:51:08Z</time>
  <course>226.81</course>
  <speed>0.4827007354458868</speed>
  <fix>3d</fix>
</trkpt>
<trkpt lat="-27.2744482" lon="151.2900668">
  <ele>358.13</ele>
  <time>2026-09-01T19:51:08Z</time>
  <course>164.07</course>
  <speed>0.48</speed>
  <fix>3d</fix>
</trkpt>
<trkpt lat="-27.2744496" lon="151.2900671">
  <ele>357.94</ele>
  <time>2026-09-01T19:51:08Z</time>
  <course>225.04</course>
  <speed>0.4729693436154187</speed>
  <fix>3d</fix>
</trkpt>
<trkpt lat="-27.2744491" lon="151.2900671">
  <ele>358.13</ele>
  <time>2026-09-01T19:51:08Z</time>
  <course>164.26</course>
  <speed>0.46</speed>
  <fix>3d</fix>
</trkpt>
<trkpt lat="-27.27445" lon="151.2900672">
  <ele>357.94</ele>
  <time>2026-09-01T19:51:08Z</time>
  <course>223.29</course>
  <speed>0.4632493928760188</speed>
  <fix>3d</fix>
</trkpt>
<trkpt lat="-27.2744491" lon="151.2900671">
  <ele>358.13</ele>
  <time>2026-09-01T19:51:08Z</time>
  <course>164.26</course>
  <speed>0.46</speed>
  <fix>3d</fix>
</trkpt>
<trkpt lat="-27.2744504" lon="151.2900673">
  <ele>357.95</ele>
  <time>2026-09-01T19:51:08Z</time>
  <course>221.55</course>
  <speed>0.4609772228646444</speed>
  <fix>3d</fix>
</trkpt>
<trkpt lat="-27.2744499" lon="151.2900674">
  <ele>358.13</ele>
  <time>2026-09-01T19:51:08Z</time>
  <course>164.48</course>
  <speed>0.44</speed>
  <fix>3d</fix>
</trkpt>
<trkpt lat="-27.2744507" lon="151.2900675">
  <ele>357.95</ele>
  <time>2026-09-01T19:51:08Z</time>
  <course>219.81</course>
  <speed>0.45122056690713913</speed>
  <fix>3d</fix>
</trkpt>
<trkpt lat="-27.2744499" lon="151.2900674">
  <ele>358.13</ele>
  <time>2026-09-01T19:51:08Z</time>
  <course>164.48</course>
  <speed>0.44</speed>
  <fix>3d</fix>
</trkpt>
<trkpt lat="-27.2744511" lon="151.2900676">
  <ele>357.95</ele>
  <time>2026-09-01T19:51:08Z</time>
  <course>218.07</course>
  <speed>0.44147480109288234</speed>
  <fix>3d</fix>
</trkpt>
<trkpt lat="-27.2744506" lon="151.2900675">
  <ele>358.13</ele>
  <time>2026-09-01T19:51:08Z</time>
  <course>164.73</course>
  <speed>0.43</speed>
  <fix>3d</fix>
</trkpt>
<trkpt lat="-27.2744515" lon="151.2900677">
  <ele>357.95</ele>
  <time>2026-09-01T19:51:08Z</time>
  <course>216.33</course>
  <speed>0.431740662898458</speed>
  <fix>3d</fix>
</trkpt>
<trkpt lat="-27.2744506" lon="151.2900675">
  <ele>358.13</ele>
  <time>2026-09-01T19:51:08Z</time>
  <course>164.73</course>
  <speed>0.43</speed>
  <fix>3d</fix>
</trkpt>
<trkpt lat="-27.2744519" lon="151.2900678">
  <ele>357.95</ele>
  <time>2026-09-01T19:51:08Z</time>
  <course>214.59</course>
  <speed>0.4295346318982906</speed>
  <fix>3d</fix>
</trkpt>
<trkpt lat="-27.2744513" lon="151.2900677">
  <ele>358.14</ele>
  <time>2026-09-01T19:51:08Z</time>
  <course>165.03</course>
  <speed>0.41</speed>
  <fix>3d</fix>
</trkpt>
<trkpt lat="-27.2744522" lon="151.2900679">
  <ele>357.96</ele>
  <time>2026-09-01T19:51:08Z</time>
  <course>212.84</course>
  <speed>0.4197618372363071</speed>
  <fix>3d</fix>
</trkpt>
<trkpt lat="-27.2744513" lon="151.2900677">
  <ele>358.14</ele>
  <time>2026-09-01T19:51:08Z</time>
  <course>165.03</course>
  <speed>0.41</speed>
  <fix>3d</fix>
</trkpt>
<trkpt lat="-27.2744526" lon="151.290068">
  <ele>357.96</ele>
  <time>2026-09-01T19:51:08Z</time>
  <course>211.1</course>
  <speed>0.4197618372363071</speed>
  <fix>3d</fix>
</trkpt>
<trkpt lat="-27.2744521" lon="151.290068">
  <ele>358.14</ele>
  <time>2026-09-01T19:51:08Z</time>
  <course>165.36</course>
  <speed>0.4</speed>
  <fix>3d</fix>
</trkpt>
<trkpt lat="-27.2744529" lon="151.2900681">
  <ele>357.96</ele>
  <time>2026-09-01T19:51:08Z</time>
  <course>209.44</course>
  <speed>0.41</speed>
  <fix>3d</fix>
</trkpt>
<trkpt lat="-27.2744521" lon="151.290068">
  <ele>358.14</ele>
  <time>2026-09-01T19:51:08Z</time>
  <course>165.36</course>
  <speed>0.4</speed>
  <fix>3d</fix>
</trkpt>
<trkpt lat="-27.2744532" lon="151.2900682">
  <ele>357.96</ele>
  <time>2026-09-01T19:51:08Z</time>
  <course>208.23</course>
  <speed>0.39812058474788764</speed>
  <fix>3d</fix>
</trkpt>
<trkpt lat="-27.2744528" lon="151.2900682">
  <ele>358.14</ele>
  <time>2026-09-01T19:51:08Z</time>
  <course>165.66</course>
  <speed>0.38</speed>
  <fix>3d</fix>
</trkpt>
<trkpt lat="-27.2744536" lon="151.2900683">
  <ele>357.96</ele>
  <time>2026-09-01T19:51:08Z</time>
  <course>207.62</course>
  <speed>0.388329756778952</speed>
  <fix>3d</fix>
</trkpt>
<trkpt lat="-27.2744528" lon="151.2900682">
  <ele>358.14</ele>
  <time>2026-09-01T19:51:08Z</time>
  <course>165.66</course>
  <speed>0.38</speed>
  <fix>3d</fix>
</trkpt>
<trkpt lat="-27.2744539" lon="151.2900684">
  <ele>357.96</ele>
  <time>2026-09-01T19:51:08Z</time>
  <course>207.59</course>
  <speed>0.378549864614954</speed>
  <fix>3d</fix>
</trkpt>
<trkpt lat="-27.2744535" lon="151.2900684">
  <ele>358.14</ele>
  <time>2026-09-01T19:51:08Z</time>
  <course>165.89</course>
  <speed>0.36</speed>
  <fix>3d</fix>
</trkpt>
<trkpt lat="-27.2744542" lon="151.2900685">
  <ele>357.96</ele>
  <time>2026-09-01T19:51:08Z</time>
  <course>208.02</course>
  <speed>0.356931365951495</speed>
  <fix>3d</fix>
</trkpt>
<trkpt lat="-27.2744535" lon="151.2900684">
  <ele>358.14</ele>
  <time>2026-09-01T19:51:08Z</time>
  <course>165.89</course>
  <speed>0.36</speed>
  <fix>3d</fix>
</trkpt>
<trkpt lat="-27.2744545" lon="151.2900685">
  <ele>357.96</ele>
  <time>2026-09-01T19:51:08Z</time>
  <course>208.75</course>
  <speed>0.34713109915419565</speed>
  <fix>3d</fix>
</trkpt>
<trkpt lat="-27.2744541" lon="151.2900685">
  <ele>358.14</ele>
  <time>2026-09-01T19:51:08Z</time>
  <course>166.04</course>
  <speed>0.34</speed>
  <fix>3d</fix>
</trkpt>
<trkpt lat="-27.2744548" lon="151.2900686">
  <ele>357.96</ele>
  <time>2026-09-01T19:51:08Z</time>
  <course>209.63</course>
  <speed>0.3255764119219941</speed>
  <fix>3d</fix>
</trkpt>
<trkpt lat="-27.2744541" lon="151.2900685">
  <ele>358.14</ele>
  <time>2026-09-01T19:51:08Z</time>
  <course>166.04</course>
  <speed>0.34</speed>
  <fix>3d</fix>
</trkpt>
<trkpt lat="-27.274455" lon="151.2900687">
  <ele>357.96</ele>
  <time>2026-09-01T19:51:08Z</time>
  <course>210.48</course>
  <speed>0.31575306807693887</speed>
  <fix>3d</fix>
</trkpt>
<trkpt lat="-27.2744546" lon="151.2900687">
  <ele>358.14</ele>
  <time>2026-09-01T19:51:08Z</time>
  <course>166.15</course>
  <speed>0.31</speed>
  <fix>3d</fix>
</trkpt>
<trkpt lat="-27.2744553" lon="151.2900688">
  <ele>357.96</ele>
  <time>2026-09-01T19:51:08Z</time>
  <course>211.21</course>
  <speed>0.29614185789921693</speed>
  <fix>3d</fix>
</trkpt>
<trkpt lat="-27.2744546" lon="151.2900687">
  <ele>358.14</ele>
  <time>2026-09-01T19:51:08Z</time>
  <course>166.15</course>
  <speed>0.31</speed>
  <fix>3d</fix>
</trkpt>
<trkpt lat="-27.2744555" lon="151.2900688">
  <ele>357.96</ele>
  <time>2026-09-01T19:51:08Z</time>
  <course>211.73</course>
  <speed>0.28442925306655786</speed>
  <fix>3d</fix>
</trkpt>
<trkpt lat="-27.2744551" lon="151.2900689">
  <ele>358.14</ele>
  <time>2026-09-01T19:51:08Z</time>
  <course>166.31</course>
  <speed>0.27</speed>
  <fix>3d</fix>
</trkpt>
<trkpt lat="-27.2744558" lon="151.2900689">
  <ele>357.95</ele>
  <time>2026-09-01T19:51:08Z</time>
  <course>212.02</course>
  <speed>0.26476404589747454</speed>
  <fix>3d</fix>
</trkpt>
<trkpt lat="-27.2744551" lon="151.2900689">
  <ele>358.14</ele>
  <time>2026-09-01T19:51:08Z</time>
  <course>166.31</course>
  <speed>0.27</speed>
  <fix>3d</fix>
</trkpt>
<trkpt lat="-27.274456" lon="151.2900689">
  <ele>357.95</ele>
  <time>2026-09-01T19:51:08Z</time>
  <course>212.07</course>
  <speed>0.24331050121192876</speed>
  <fix>3d</fix>
</trkpt>
<trkpt lat="-27.2744555" lon="151.290069">
  <ele>358.14</ele>
  <time>2026-09-01T19:51:08Z</time>
  <course>166.67</course>
  <speed>0.24</speed>
  <fix>3d</fix>
</trkpt>
<trkpt lat="-27.2744562" lon="151.290069">
  <ele>357.95</ele>
  <time>2026-09-01T19:51:08Z</time>
  <course>211.94</course>
  <speed>0.23345235059857505</speed>
  <fix>3d</fix>
</trkpt>
<trkpt lat="-27.2744555" lon="151.290069">
  <ele>358.14</ele>
  <time>2026-09-01T19:51:08Z</time>
  <course>166.67</course>
  <speed>0.24</speed>
  <fix>3d</fix>
</trkpt>
<trkpt lat="-27.2744563" lon="151.290069">
  <ele>357.95</ele>
  <time>2026-09-01T19:51:08Z</time>
  <course>212.4</course>
  <speed>0.21213203435596426</speed>
  <fix>3d</fix>
</trkpt>
<trkpt lat="-27.274456" lon="151.2900691">
  <ele>358.14</ele>
  <time>2026-09-01T19:51:08Z</time>
  <course>167.3</course>
  <speed>0.2</speed>
  <fix>3d</fix>
</trkpt>
<trkpt lat="-27.2744565" lon="151.2900691">
  <ele>357.95</ele>
  <time>2026-09-01T19:51:08Z</time>
  <course>213.85</course>
  <speed>0.19235384061671343</speed>
  <fix>3d</fix>
</trkpt>
<trkpt lat="-27.274456" lon="151.2900691">
  <ele>358.14</ele>
  <time>2026-09-01T19:51:08Z</time>
  <course>167.3</course>
  <speed>0.2</speed>
  <fix>3d</fix>
</trkpt>
<trkpt lat="-27.2744566" lon="151.2900691">
  <ele>357.95</ele>
  <time>2026-09-01T19:51:08Z</time>
  <course>215.81</course>
  <speed>0.18110770276274835</speed>
  <fix>3d</fix>
</trkpt>
<trkpt lat="-27.2744563" lon="151.2900692">
  <ele>358.14</ele>
  <time>2026-09-01T19:51:08Z</time>
  <course>168.19</course>
  <speed>0.17</speed>
  <fix>3d</fix>
</trkpt>
<trkpt lat="-27.2744568" lon="151.2900691">
  <ele>357.95</ele>
  <time>2026-09-01T19:51:08Z</time>
  <course>217.97</course>
  <speed>0.16124515496597097</speed>
  <fix>3d</fix>
</trkpt>
<trkpt lat="-27.2744563" lon="151.2900692">
  <ele>358.14</ele>
  <time>2026-09-01T19:51:08Z</time>
  <course>168.19</course>
  <speed>0.17</speed>
  <fix>3d</fix>
</trkpt>
<trkpt lat="-27.2744569" lon="151.2900692">
  <ele>357.95</ele>
  <time>2026-09-01T19:51:08Z</time>
  <course>220.21</course>
  <speed>0.140356688476182</speed>
  <fix>3d</fix>
</trkpt>
<trkpt lat="-27.2744566" lon="151.2900693">
  <ele>358.14</ele>
  <time>2026-09-01T19:51:08Z</time>
  <course>169.51</course>
  <speed>0.13</speed>
  <fix>3d</fix>
</trkpt>
<trkpt lat="-27.274457" lon="151.2900692">
  <ele>357.95</ele>
  <time>2026-09-01T19:51:08Z</time>
  <course>222.48</course>
  <speed>0.12041594578792296</speed>
  <fix>3d</fix>
</trkpt>
<trkpt lat="-27.2744566" lon="151.2900693">
  <ele>358.14</ele>
  <time>2026-09-01T19:51:08Z</time>
  <course>169.51</course>
  <speed>0.13</speed>
  <fix>3d</fix>
</trkpt>
<trkpt lat="-27.2744571" lon="151.2900692">
  <ele>357.96</ele>
  <time>2026-09-01T19:51:08Z</time>
  <course>224.69</course>
  <speed>0.11</speed>
  <fix>3d</fix>
</trkpt>
<trkpt lat="-27.2744568" lon="151.2900693">
  <ele>358.14</ele>
  <time>2026-09-01T19:51:08Z</time>
  <course>171.49</course>
  <speed>0.1</speed>
  <fix>3d</fix>
</trkpt>
<trkpt lat="-27.2744571" lon="151.2900692">
  <ele>357.96</ele>
  <time>2026-09-01T19:51:08Z</time>
  <course>226.37</course>
  <speed>0.09</speed>
  <fix>3d</fix>
</trkpt>
<trkpt lat="-27.2744568" lon="151.2900693">
  <ele>358.14</ele>
  <time>2026-09-01T19:51:08Z</time>
  <course>171.49</course>
  <speed>0.1</speed>
  <fix>3d</fix>
</trkpt>
<trkpt lat="-27.2744572" lon="151.2900692">
  <ele>357.96</ele>
  <time>2026-09-01T19:51:08Z</time>
  <course>227.21</course>
  <speed>0.07</speed>
  <fix>3d</fix>
</trkpt>
<trkpt lat="-27.274457" lon="151.2900693">
  <ele>358.14</ele>
  <time>2026-09-01T19:51:08Z</time>
  <course>175.51</course>
  <speed>0.06</speed>
  <fix>3d</fix>
</trkpt>
<trkpt lat="-27.2744572" lon="151.2900692">
  <ele>357.96</ele>
  <time>2026-09-01T19:51:08Z</time>
  <course>227.23</course>
  <speed>0.05</speed>
  <fix>3d</fix>
</trkpt>
<trkpt lat="-27.274457" lon="151.2900693">
  <ele>358.14</ele>
  <time>2026-09-01T19:51:08Z</time>
  <course>175.51</course>
  <speed>0.06</speed>
  <fix>3d</fix>
</trkpt>
<trkpt lat="-27.2744572" lon="151.2900692">
  <ele>357.96</ele>
  <time>2026-09-01T19:51:08Z</time>
  <course>226.6</course>
  <speed>0.0412310562561766</speed>
  <fix>3d</fix>
</trkpt>
<trkpt lat="-27.2744571" lon="151.2900693">
  <ele>358.14</ele>
  <time>2026-09-01T19:51:08Z</time>
  <course>190.34</course>
  <speed>0.03</speed>
  <fix>3d</fix>
</trkpt>
<trkpt lat="-27.2744573" lon="151.2900692">
  <ele>357.96</ele>
  <time>2026-09-01T19:51:08Z</time>
  <course>225.53</course>
  <speed>0.022360679774997897</speed>
  <fix>3d</fix>
</trkpt>
<trkpt lat="-27.2744571" lon="151.2900693">
  <ele>358.14</ele>
  <time>2026-09-01T19:51:08Z</time>
  <course>190.34</course>
  <speed>0.03</speed>
  <fix>3d</fix>
</trkpt>
<trkpt lat="-27.2744572" lon="151.2900692">
  <ele>357.96</ele>
  <time>2026-09-01T19:51:08Z</time>
  <course>224.25</course>
  <speed>0.02</speed>
  <fix>3d</fix>
</trkpt>
<trkpt lat="-27.2744571" lon="151.2900693">
  <ele>358.14</ele>
  <time>2026-09-01T19:51:08Z</time>
  <course>282.88</course>
  <speed>0.01</speed>
  <fix>3d</fix>
</trkpt>
<trkpt lat="-27.2744572" lon="151.2900692">
  <ele>357.96</ele>
  <time>2026-09-01T19:51:08Z</time>
  <course>222.98</course>
  <speed>0.0316227766016838</speed>
  <fix>3d</fix>
</trkpt>
<trkpt lat="-27.2744571" lon="151.2900693">
  <ele>358.14</ele>
  <time>2026-09-01T19:51:08Z</time>
  <course>282.88</course>
  <speed>0.01</speed>
  <fix>3d</fix>
</trkpt>
<trkpt lat="-27.2744572" lon="151.2900692">
  <ele>357.97</ele>
  <time>2026-09-01T19:51:08Z</time>
  <course>221.91</course>
  <speed>0.03605551275463989</speed>
  <fix>3d</fix>
</trkpt>
<trkpt lat="-27.2744571" lon="151.2900693">
  <ele>358.14</ele>
  <time>2026-09-01T19:51:08Z</time>
  <course>322.41</course>
  <speed>0.05</speed>
  <fix>3d</fix>
</trkpt>
<trkpt lat="-27.2744572" lon="151.2900692">
  <ele>357.97</ele>
  <time>2026-09-01T19:51:08Z</time>
  <course>221.12</course>
  <speed>0.0565685424949238</speed>
  <fix>3d</fix>
</trkpt>
<trkpt lat="-27.2744571" lon="151.2900693">
  <ele>358.14</ele>
  <time>2026-09-01T19:51:08Z</time>
  <course>322.41</course>
  <speed>0.05</speed>
  <fix>3d</fix>
</trkpt>
<trkpt lat="-27.2744572" lon="151.2900692">
  <ele>357.97</ele>
  <time>2026-09-01T19:51:08Z</time>
  <course>220.04</course>
  <speed>0.07211102550927978</speed>
  <fix>3d</fix>
</trkpt>
<trkpt lat="-27.274457" lon="151.2900692">
  <ele>358.14</ele>
  <time>2026-09-01T19:51:08Z</time>
  <course>329.94</course>
  <speed>0.08</speed>
  <fix>3d</fix>
</trkpt>
<trkpt lat="-27.2744571" lon="151.2900691">
  <ele>357.97</ele>
  <time>2026-09-01T19:51:08Z</time>
  <course>218.57</course>
  <speed>0.09433981132056603</speed>
  <fix>3d</fix>
</trkpt>
<trkpt lat="-27.274457" lon="151.2900692">
  <ele>358.14</ele>
  <time>2026-09-01T19:51:08Z</time>
  <course>329.94</course>
  <speed>0.08</speed>
  <fix>3d</fix>
</trkpt>
<trkpt lat="-27.274457" lon="151.2900691">
  <ele>357.96</ele>
  <time>2026-09-01T19:51:08Z</time>
  <course>216.93</course>
  <speed>0.10816653826391968</speed>
  <fix>3d</fix>
</trkpt>
<trkpt lat="-27.2744568" lon="151.2900691">
  <ele>358.13</ele>
  <time>2026-09-01T19:51:08Z</time>
  <course>332.51</course>
  <speed>0.12</speed>
  <fix>3d</fix>
</trkpt>
<trkpt lat="-27.2744568" lon="151.290069">
  <ele>357.96</ele>
  <time>2026-09-01T19:51:08Z</time>
  <course>215.21</course>
  <speed>0.12529964086141668</speed>
  <fix>3d</fix>
</trkpt>
<trkpt lat="-27.2744568" lon="151.2900691">
  <ele>358.13</ele>
  <time>2026-09-01T19:51:08Z</time>
  <course>332.51</course>
  <speed>0.12</speed>
  <fix>3d</fix>
</trkpt>
<trkpt lat="-27.2744567" lon="151.2900689">
  <ele>357.96</ele>
  <time>2026-09-01T19:51:08Z</time>
  <course>213.49</course>
  <speed>0.13892443989449804</speed>
  <fix>3d</fix>
</trkpt>
<trkpt lat="-27.2744567" lon="151.290069">
  <ele>358.13</ele>
  <time>2026-09-01T19:51:08Z</time>
  <course>333.28</course>
  <speed>0.16</speed>
  <fix>3d</fix>
</trkpt>
<trkpt lat="-27.2744566" lon="151.2900689">
  <ele>357.96</ele>
  <time>2026-09-01T19:51:08Z</time>
  <course>211.77</course>
  <speed>0.16124515496597097</speed>
  <fix>3d</fix>
</trkpt>
<trkpt lat="-27.2744567" lon="151.290069">
  <ele>358.13</ele>
  <time>2026-09-01T19:51:08Z</time>
  <course>333.28</course>
  <speed>0.16</speed>
  <fix>3d</fix>
</trkpt>
<trkpt lat="-27.2744564" lon="151.2900688">
  <ele>357.96</ele>
  <time>2026-09-01T19:51:08Z</time>
  <course>210.06</course>
  <speed>0.17492855684535902</speed>
  <fix>3d</fix>
</trkpt>
<trkpt lat="-27.2744564" lon="151.2900689">
  <ele>358.13</ele>
  <time>2026-09-01T19:51:08Z</time>
  <course>333.11</course>
  <speed>0.19</speed>
  <fix>3d</fix>
</trkpt>
<trkpt lat="-27.2744563" lon="151.2900687">
  <ele>357.96</ele>
  <time>2026-09-01T19:51:08Z</time>
  <course>208.34</course>
  <speed>0.18867962264113206</speed>
  <fix>3d</fix>
</trkpt>
<trkpt lat="-27.2744564" lon="151.2900689">
  <ele>358.13</ele>
  <time>2026-09-01T19:51:08Z</time>
  <course>333.11</course>
  <speed>0.19</speed>
  <fix>3d</fix>
</trkpt>
<trkpt lat="-27.2744561" lon="151.2900686">
  <ele>357.96</ele>
  <time>2026-09-01T19:51:08Z</time>
  <course>206.63</course>
  <speed>0.1972308292331602</speed>
  <fix>3d</fix>
</trkpt>
<trkpt lat="-27.274456" lon="151.2900687">
  <ele>358.12</ele>
  <time>2026-09-01T19:51:08Z</time>
  <course>332.37</course>
  <speed>0.22</speed>
  <fix>3d</fix>
</trkpt>
<trkpt lat="-27.2744559" lon="151.2900685">
  <ele>357.96</ele>
  <time>2026-09-01T19:51:08Z</time>
  <course>204.92</course>
  <speed>0.2109502310972899</speed>
  <fix>3d</fix>
</trkpt>
<trkpt lat="-27.274456" lon="151.2900687">
  <ele>358.12</ele>
  <time>2026-09-01T19:51:08Z</time>
  <course>332.37</course>
  <speed>0.22</speed>
  <fix>3d</fix>
</trkpt>
<trkpt lat="-27.2744557" lon="151.2900684">
  <ele>357.96</ele>
  <time>2026-09-01T19:51:08Z</time>
  <course>203.21</course>
  <speed>0.22472205054244232</speed>
  <fix>3d</fix>
</trkpt>
<trkpt lat="-27.2744557" lon="151.2900685">
  <ele>358.12</ele>
  <time>2026-09-01T19:51:08Z</time>
  <course>331.28</course>
  <speed>0.25</speed>
  <fix>3d</fix>
</trkpt>
<trkpt lat="-27.2744555" lon="151.2900682">
  <ele>357.96</ele>
  <time>2026-09-01T19:51:08Z</time>
  <course>201.5</course>
  <speed>0.23853720883753127</speed>
  <fix>3d</fix>
</trkpt>
<trkpt lat="-27.2744557" lon="151.2900685">
  <ele>358.12</ele>
  <time>2026-09-01T19:51:08Z</time>
  <course>331.28</course>
  <speed>0.25</speed>
  <fix>3d</fix>
</trkpt>
<trkpt lat="-27.2744553" lon="151.2900681">
  <ele>357.96</ele>
  <time>2026-09-01T19:51:08Z</time>
  <course>199.8</course>
  <speed>0.25238858928247926</speed>
  <fix>3d</fix>
</trkpt>
<trkpt lat="-27.2744553" lon="151.2900682">
  <ele>358.12</ele>
  <time>2026-09-01T19:51:08Z</time>
  <course>329.97</course>
  <speed>0.27</speed>
  <fix>3d</fix>
</trkpt>
<trkpt lat="-27.2744551" lon="151.290068">
  <ele>357.96</ele>
  <time>2026-09-01T19:51:08Z</time>
  <course>198.1</course>
  <speed>0.25238858928247926</speed>
  <fix>3d</fix>
</trkpt>
<trkpt lat="-27.2744553" lon="151.2900682">
  <ele>358.12</ele>
  <time>2026-09-01T19:51:08Z</time>
  <course>329.97</course>
  <speed>0.27</speed>
  <fix>3d</fix>
</trkpt>
<trkpt lat="-27.2744549" lon="151.2900678">
  <ele>357.96</ele>
  <time>2026-09-01T19:51:08Z</time>
  <course>196.4</course>
  <speed>0.266270539113887</speed>
  <fix>3d</fix>
</trkpt>
<trkpt lat="-27.2744548" lon="151.2900679">
  <ele>358.12</ele>
  <time>2026-09-01T19:51:08Z</time>
  <course>328.55</course>
  <speed>0.29</speed>
  <fix>3d</fix>
</trkpt>
<trkpt lat="-27.2744546" lon="151.2900676">
  <ele>357.96</ele>
  <time>2026-09-01T19:51:08Z</time>
  <course>194.71</course>
  <speed>0.2720294101747089</speed>
  <fix>3d</fix>
</trkpt>
<trkpt lat="-27.2744548" lon="151.2900679">
  <ele>358.12</ele>
  <time>2026-09-01T19:51:08Z</time>
  <course>328.55</course>
  <speed>0.29</speed>
  <fix>3d</fix>
</trkpt>
<trkpt lat="-27.2744544" lon="151.2900675">
  <ele>357.96</ele>
  <time>2026-09-01T19:51:08Z</time>
  <course>193.03</course>
  <speed>0.280178514522438</speed>
  <fix>3d</fix>
</trkpt>
<trkpt lat="-27.2744543" lon="151.2900675">
  <ele>358.12</ele>
  <time>2026-09-01T19:51:08Z</time>
  <course>327.01</course>
  <speed>0.31</speed>
  <fix>3d</fix>
</trkpt>
<trkpt lat="-27.2744542" lon="151.2900673">
  <ele>357.96</ele>
  <time>2026-09-01T19:51:08Z</time>
  <course>191.36</course>
  <speed>0.28600699292150183</speed>
  <fix>3d</fix>
</trkpt>
<trkpt lat="-27.2744543" lon="151.2900675">
  <ele>358.12</ele>
  <time>2026-09-01T19:51:08Z</time>
  <course>327.01</course>
  <speed>0.31</speed>
  <fix>3d</fix>
</trkpt>
<trkpt lat="-27.2744539" lon="151.2900671">
  <ele>357.96</ele>
  <time>2026-09-01T19:51:08Z</time>
  <course>189.81</course>
  <speed>0.2920616373302047</speed>
  <fix>3d</fix>
</trkpt>
<trkpt lat="-27.2744538" lon="151.2900672">
  <ele>358.12</ele>
  <time>2026-09-01T19:51:08Z</time>
  <course>325.47</course>
  <speed>0.32</speed>
  <fix>3d</fix>
</trkpt>
<trkpt lat="-27.2744537" lon="151.2900669">
  <ele>357.96</ele>
  <time>2026-09-01T19:51:08Z</time>
  <course>188.74</course>
  <speed>0.2920616373302047</speed>
  <fix>3d</fix>
</trkpt>
<trkpt lat="-27.2744538" lon="151.2900672">
  <ele>358.12</ele>
  <time>2026-09-01T19:51:08Z</time>
  <course>325.47</course>
  <speed>0.32</speed>
  <fix>3d</fix>
</trkpt>
<trkpt lat="-27.2744534" lon="151.2900667">
  <ele>357.96</ele>
  <time>2026-09-01T19:51:08Z</time>
  <course>188.27</course>
  <speed>0.30610455730027936</speed>
  <fix>3d</fix>
</trkpt>
<trkpt lat="-27.2744534" lon="151.2900668">
  <ele>358.12</ele>
  <time>2026-09-01T19:51:08Z</time>
  <course>324.25</course>
  <speed>0.33</speed>
  <fix>3d</fix>
</trkpt>
<trkpt lat="-27.2744532" lon="151.2900665">
  <ele>357.96</ele>
  <time>2026-09-01T19:51:08Z</time>
  <course>188.37</course>
  <speed>0.30610455730027936</speed>
  <fix>3d</fix>
</trkpt>
<trkpt lat="-27.2744534" lon="151.2900668">
  <ele>358.12</ele>
  <time>2026-09-01T19:51:08Z</time>
  <course>324.25</course>
  <speed>0.33</speed>
  <fix>3d</fix>
</trkpt>
<trkpt lat="-27.274453" lon="151.2900663">
  <ele>357.96</ele>
  <time>2026-09-01T19:51:08Z</time>
  <course>188.89</course>
  <speed>0.30610455730027936</speed>
  <fix>3d</fix>
</trkpt>
<trkpt lat="-27.2744529" lon="151.2900664">
  <ele>358.12</ele>
  <time>2026-09-01T19:51:08Z</time>
  <course>323.34</course>
  <speed>0.34</speed>
  <fix>3d</fix>
</trkpt>
<trkpt lat="-27.2744527" lon="151.2900661">
  <ele>357.96</ele>
  <time>2026-09-01T19:51:08Z</time>
  <course>189.67</course>
  <speed>0.31240998703626616</speed>
  <fix>3d</fix>
</trkpt>
<trkpt lat="-27.2744529" lon="151.2900664">
  <ele>358.12</ele>
  <time>2026-09-01T19:51:08Z</time>
  <course>323.34</course>
  <speed>0.34</speed>
  <fix>3d</fix>
</trkpt>
<trkpt lat="-27.2744525" lon="151.2900659">
  <ele>357.96</ele>
  <time>2026-09-01T19:51:08Z</time>
  <course>190.56</course>
  <speed>0.31240998703626616</speed>
  <fix>3d</fix>
</trkpt>
<trkpt lat="-27.2744524" lon="151.2900659">
  <ele>358.11</ele>
  <time>2026-09-01T19:51:08Z</time>
  <course>322.32</course>
  <speed>0.35</speed>
  <fix>3d</fix>
</trkpt>
<trkpt lat="-27.2744522" lon="151.2900657">
  <ele>357.97</ele>
  <time>2026-09-01T19:51:08Z</time>
  <course>191.39</course>
  <speed>0.3189043743820395</speed>
  <fix>3d</fix>
</trkpt>
<trkpt lat="-27.2744524" lon="151.2900659">
  <ele>358.11</ele>
  <time>2026-09-01T19:51:08Z</time>
  <course>322.32</course>
  <speed>0.35</speed>
  <fix>3d</fix>
</trkpt>
<trkpt lat="-27.274452" lon="151.2900654">
  <ele>357.96</ele>
  <time>2026-09-01T19:51:08Z</time>
  <course>192.06</course>
  <speed>0.3189043743820395</speed>
  <fix>3d</fix>
</trkpt>
<trkpt lat="-27.2744519" lon="151.2900655">
  <ele>358.11</ele>
  <time>2026-09-01T19:51:08Z</time>
  <course>321.0</course>
  <speed>0.35</speed>
  <fix>3d</fix>
</trkpt>
<trkpt lat="-27.2744517" lon="151.2900652">
  <ele>357.96</ele>
  <time>2026-09-01T19:51:08Z</time>
  <course>192.49</course>
  <speed>0.3255764119219941</speed>
  <fix>3d</fix>
</trkpt>
<trkpt lat="-27.2744519" lon="151.2900655">
  <ele>358.11</ele>
  <time>2026-09-01T19:51:08Z</time>
  <course>321.0</course>
  <speed>0.35</speed>
  <fix>3d</fix>
</trkpt>
<trkpt lat="-27.2744515" lon="151.290065">
  <ele>357.96</ele>
  <time>2026-09-01T19:51:08Z</time>
  <course>192.69</course>
  <speed>0.31827660925679097</speed>
  <fix>3d</fix>
</trkpt>
<trkpt lat="-27.2744514" lon="151.2900651">
  <ele>358.11</ele>
  <time>2026-09-01T19:51:08Z</time>
  <course>319.49</course>
  <speed>0.35</speed>
  <fix>3d</fix>
</trkpt>
<trkpt lat="-27.2744512" lon="151.2900647">
  <ele>357.96</ele>
  <time>2026-09-01T19:51:08Z</time>
  <course>192.67</course>
  <speed>0.3252691193458119</speed>
  <fix>3d</fix>
</trkpt>
<trkpt lat="-27.2744514" lon="151.2900651">
  <ele>358.11</ele>
  <time>2026-09-01T19:51:08Z</time>
  <course>319.49</course>
  <speed>0.35</speed>
  <fix>3d</fix>
</trkpt>
<trkpt lat="-27.274451" lon="151.2900645">
  <ele>357.96</ele>
  <time>2026-09-01T19:51:08Z</time>
  <course>192.58</course>
  <speed>0.3252691193458119</speed>
  <fix>3d</fix>
</trkpt>
<trkpt lat="-27.2744509" lon="151.2900646">
  <ele>358.11</ele>
  <time>2026-09-01T19:51:08Z</time>
  <course>317.83</course>
  <speed>0.36</speed>
  <fix>3d</fix>
</trkpt>
<trkpt lat="-27.2744508" lon="151.2900642">
  <ele>357.96</ele>
  <time>2026-09-01T19:51:08Z</time>
  <course>193.36</course>
  <speed>0.3252691193458119</speed>
  <fix>3d</fix>
</trkpt>
<trkpt lat="-27.2744509" lon="151.2900646">
  <ele>358.11</ele>
  <time>2026-09-01T19:51:08Z</time>
  <course>317.83</course>
  <speed>0.36</speed>
  <fix>3d</fix>
</trkpt>
<trkpt lat="-27.2744505" lon="151.290064">
  <ele>357.96</ele>
  <time>2026-09-01T19:51:08Z</time>
  <course>194.9</course>
  <speed>0.3255764119219941</speed>
  <fix>3d</fix>
</trkpt>
<trkpt lat="-27.2744504" lon="151.2900641">
  <ele>358.1</ele>
  <time>2026-09-01T19:51:08Z</time>
  <course>316.08</course>
  <speed>0.36</speed>
  <fix>3d</fix>
</trkpt>
<trkpt lat="-27.2744503" lon="151.2900637">
  <ele>357.96</ele>
  <time>2026-09-01T19:51:08Z</time>
  <course>196.77</course>
  <speed>0.3255764119219941</speed>
  <fix>3d</fix>
</trkpt>
<trkpt lat="-27.2744504" lon="151.2900641">
  <ele>358.1</ele>
  <time>2026-09-01T19:51:08Z</time>
  <course>316.08</course>
  <speed>0.36</speed>
  <fix>3d</fix>
</trkpt>
<trkpt lat="-27.2744501" lon="151.2900635">
  <ele>357.95</ele>
  <time>2026-09-01T19:51:08Z</time>
  <course>198.75</course>
  <speed>0.3330165161069343</speed>
  <fix>3d</fix>
</trkpt>
<trkpt lat="-27.27445" lon="151.2900636">
  <ele>358.1</ele>
  <time>2026-09-01T19:51:08Z</time>
  <course>314.15</course>
  <speed>0.36</speed>
  <fix>3d</fix>
</trkpt>
<trkpt lat="-27.2744498" lon="151.2900632">
  <ele>357.95</ele>
  <time>2026-09-01T19:51:08Z</time>
  <course>200.76</course>
  <speed>0.33421549934136807</speed>
  <fix>3d</fix>
</trkpt>
<trkpt lat="-27.27445" lon="151.2900636">
  <ele>358.1</ele>
  <time>2026-09-01T19:51:08Z</time>
  <course>314.15</course>
  <speed>0.36</speed>
  <fix>3d</fix>
</trkpt>
<trkpt lat="-27.2744496" lon="151.2900629">
  <ele>357.95</ele>
  <time>2026-09-01T19:51:08Z</time>
  <course>202.78</course>
  <speed>0.3420526275297414</speed>
  <fix>3d</fix>
</trkpt>
<trkpt lat="-27.2744495" lon="151.2900631">
  <ele>358.1</ele>
  <time>2026-09-01T19:51:08Z</time>
  <course>311.94</course>
  <speed>0.37</speed>
  <fix>3d</fix>
</trkpt>
<trkpt lat="-27.2744494" lon="151.2900626">
  <ele>357.95</ele>
  <time>2026-09-01T19:51:08Z</time>
  <course>204.51</course>
  <speed>0.3420526275297414</speed>
  <fix>3d</fix>
</trkpt>
<trkpt lat="-27.2744495" lon="151.2900631">
  <ele>358.1</ele>
  <time>2026-09-01T19:51:08Z</time>
  <course>311.94</course>
  <speed>0.37</speed>
  <fix>3d</fix>
</trkpt>
<trkpt lat="-27.2744492" lon="151.2900623">
  <ele>357.95</ele>
  <time>2026-09-01T19:51:08Z</time>
  <course>205.55</course>
  <speed>0.34409301068170506</speed>
  <fix>3d</fix>
</trkpt>
<trkpt lat="-27.2744491" lon="151.2900624">
  <ele>358.1</ele>
  <time>2026-09-01T19:51:08Z</time>
  <course>309.41</course>
  <speed>0.37</speed>
  <fix>3d</fix>
</trkpt>
<trkpt lat="-27.274449" lon="151.290062">
  <ele>357.95</ele>
  <time>2026-09-01T19:51:08Z</time>
  <course>205.84</course>
  <speed>0.3522782990761707</speed>
  <fix>3d</fix>
</trkpt>
<trkpt lat="-27.2744491" lon="151.2900624">
  <ele>358.1</ele>
  <time>2026-09-01T19:51:08Z</time>
  <course>309.41</course>
  <speed>0.37</speed>
  <fix>3d</fix>
</trkpt>
<trkpt lat="-27.2744488" lon="151.2900617">
  <ele>357.95</ele>
  <time>2026-09-01T19:51:08Z</time>
  <course>205.48</course>
  <speed>0.35510561809129404</speed>
  <fix>3d</fix>
</trkpt>
<trkpt lat="-27.2744487" lon="151.2900619">
  <ele>358.1</ele>
  <time>2026-09-01T19:51:08Z</time>
  <course>306.9</course>
  <speed>0.38</speed>
  <fix>3d</fix>
</trkpt>
<trkpt lat="-27.2744486" lon="151.2900614">
  <ele>357.94</ele>
  <time>2026-09-01T19:51:08Z</time>
  <course>204.67</course>
  <speed>0.35510561809129404</speed>
  <fix>3d</fix>
</trkpt>
<trkpt lat="-27.2744487" lon="151.2900619">
  <ele>358.1</ele>
  <time>2026-09-01T19:51:08Z</time>
  <course>306.9</course>
  <speed>0.38</speed>
  <fix>3d</fix>
</trkpt>
<trkpt lat="-27.2744484" lon="151.2900611">
  <ele>357.94</ele>
  <time>2026-09-01T19:51:08Z</time>
  <course>203.62</course>
  <speed>0.36359317925395684</speed>
  <fix>3d</fix>
</trkpt>
<trkpt lat="-27.2744482" lon="151.2900612">
  <ele>358.1</ele>
  <time>2026-09-01T19:51:08Z</time>
  <course>304.63</course>
  <speed>0.39</speed>
  <fix>3d</fix>
</trkpt>
<trkpt lat="-27.2744482" lon="151.2900607">
  <ele>357.95</ele>
  <time>2026-09-01T19:51:08Z</time>
  <course>202.52</course>
  <speed>0.3671511950137164</speed>
  <fix>3d</fix>
</trkpt>
<trkpt lat="-27.2744482" lon="151.2900612">
  <ele>358.1</ele>
  <time>2026-09-01T19:51:08Z</time>
  <course>304.63</course>
  <speed>0.39</speed>
  <fix>3d</fix>
</trkpt>
<trkpt lat="-27.274448" lon="151.2900604">
  <ele>357.94</ele>
  <time>2026-09-01T19:51:08Z</time>
  <course>201.55</course>
  <speed>0.36235341863986875</speed>
  <fix>3d</fix>
</trkpt>
<trkpt lat="-27.2744479" lon="151.2900605">
  <ele>358.1</ele>
  <time>2026-09-01T19:51:08Z</time>
  <course>302.46</course>
  <speed>0.39</speed>
  <fix>3d</fix>
</trkpt>
<trkpt lat="-27.2744478" lon="151.2900601">
  <ele>357.94</ele>
  <time>2026-09-01T19:51:08Z</time>
  <course>200.82</course>
  <speed>0.36235341863986875</speed>
  <fix>3d</fix>
</trkpt>
<trkpt lat="-27.2744479" lon="151.2900605">
  <ele>358.1</ele>
  <time>2026-09-01T19:51:08Z</time>
  <course>302.46</course>
  <speed>0.39</speed>
  <fix>3d</fix>
</trkpt>
<trkpt lat="-27.2744476" lon="151.2900597">
  <ele>357.94</ele>
  <time>2026-09-01T19:51:08Z</time>
  <course>199.96</course>
  <speed>0.366742416417845</speed>
  <fix>3d</fix>
</trkpt>
<trkpt lat="-27.2744475" lon="151.2900598">
  <ele>358.1</ele>
  <time>2026-09-01T19:51:08Z</time>
  <course>300.37</course>
  <speed>0.39</speed>
  <fix>3d</fix>
</trkpt>
<trkpt lat="-27.2744474" lon="151.2900594">
  <ele>357.94</ele>
  <time>2026-09-01T19:51:08Z</time>
  <course>198.7</course>
  <speed>0.366742416417845</speed>
  <fix>3d</fix>
</trkpt>
<trkpt lat="-27.2744475" lon="151.2900598">
  <ele>358.1</ele>
  <time>2026-09-01T19:51:08Z</time>
  <course>300.37</course>
  <speed>0.39</speed>
  <fix>3d</fix>
</trkpt>
<trkpt lat="-27.2744473" lon="151.290059">
  <ele>357.94</ele>
  <time>2026-09-01T19:51:08Z</time>
  <course>197.24</course>
  <speed>0.3624913792078372</speed>
  <fix>3d</fix>
</trkpt>
<trkpt lat="-27.2744471" lon="151.2900591">
  <ele>358.1</ele>
  <time>2026-09-01T19:51:08Z</time>
  <course>298.39</course>
  <speed>0.4</speed>
  <fix>3d</fix>
</trkpt>
<trkpt lat="-27.2744471" lon="151.2900586">
  <ele>357.94</ele>
  <time>2026-09-01T19:51:08Z</time>
  <course>195.71</course>
  <speed>0.3716180835212409</speed>
  <fix>3d</fix>
</trkpt>
<trkpt lat="-27.2744471" lon="151.2900591">
  <ele>358.1</ele>
  <time>2026-09-01T19:51:08Z</time>
  <course>298.39</course>
  <speed>0.4</speed>
  <fix>3d</fix>
</trkpt>
<trkpt lat="-27.2744469" lon="151.2900583">
  <ele>357.94</ele>
  <time>2026-09-01T19:51:08Z</time>
  <course>194.18</course>
  <speed>0.3676955262170047</speed>
  <fix>3d</fix>
</trkpt>
<trkpt lat="-27.2744468" lon="151.2900584">
  <ele>358.1</ele>
  <time>2026-09-01T19:51:08Z</time>
  <course>296.52</course>
  <speed>0.39</speed>
  <fix>3d</fix>
</trkpt>
<trkpt lat="-27.2744468" lon="151.2900579">
  <ele>357.94</ele>
  <time>2026-09-01T19:51:08Z</time>
  <course>192.64</course>
  <speed>0.3676955262170047</speed>
  <fix>3d</fix>
</trkpt>
<trkpt lat="-27.2744468" lon="151.2900584">
  <ele>358.1</ele>
  <time>2026-09-01T19:51:08Z</time>
  <course>296.52</course>
  <speed>0.39</speed>
  <fix>3d</fix>
</trkpt>
<trkpt lat="-27.2744466" lon="151.2900575">
  <ele>357.94</ele>
  <time>2026-09-01T19:51:08Z</time>
  <course>191.09</course>
  <speed>0.3640054944640259</speed>
  <fix>3d</fix>
</trkpt>
<trkpt lat="-27.2744465" lon="151.2900577">
  <ele>358.11</ele>
  <time>2026-09-01T19:51:08Z</time>
  <course>294.78</course>
  <speed>0.39</speed>
  <fix>3d</fix>
</trkpt>
<trkpt lat="-27.2744465" lon="151.2900572">
  <ele>357.95</ele>
  <time>2026-09-01T19:51:08Z</time>
  <course>189.56</course>
  <speed>0.3605551275463989</speed>
  <fix>3d</fix>
</trkpt>
<trkpt lat="-27.2744465" lon="151.2900577">
  <ele>358.11</ele>
  <time>2026-09-01T19:51:08Z</time>
  <course>294.78</course>
  <speed>0.39</speed>
  <fix>3d</fix>
</trkpt>
<trkpt lat="-27.2744464" lon="151.2900568">
  <ele>357.95</ele>
  <time>2026-09-01T19:51:08Z</time>
  <course>188.01</course>
  <speed>0.3605551275463989</speed>
  <fix>3d</fix>
</trkpt>
<trkpt lat="-27.2744462" lon="151.290057">
  <ele>358.11</ele>
  <time>2026-09-01T19:51:08Z</time>
  <course>293.14</course>
  <speed>0.39</speed>
  <fix>3d</fix>
</trkpt>
<trkpt lat="-27.2744462" lon="151.2900564">
  <ele>357.95</ele>
  <time>2026-09-01T19:51:08Z</time>
  <course>186.47</course>
  <speed>0.35735136770411274</speed>
  <fix>3d</fix>
</trkpt>
<trkpt lat="-27.2744462" lon="151.290057">
  <ele>358.11</ele>
  <time>2026-09-01T19:51:08Z</time>
  <course>293.14</course>
  <speed>0.39</speed>
  <fix>3d</fix>
</trkpt>
<trkpt lat="-27.2744461" lon="151.2900561">
  <ele>357.95</ele>
  <time>2026-09-01T19:51:08Z</time>
  <course>184.93</course>
  <speed>0.35735136770411274</speed>
  <fix>3d</fix>
</trkpt>
<trkpt lat="-27.2744459" lon="151.2900562">
  <ele>358.11</ele>
  <time>2026-09-01T19:51:08Z</time>
  <course>291.58</course>
  <speed>0.38</speed>
  <fix>3d</fix>
</trkpt>
<trkpt lat="-27.274446" lon="151.2900557">
  <ele>357.95</ele>
  <time>2026-09-01T19:51:08Z</time>
  <course>183.38</course>
  <speed>0.354400902933387</speed>
  <fix>3d</fix>
</trkpt>
<trkpt lat="-27.2744459" lon="151.2900562">
  <ele>358.11</ele>
  <time>2026-09-01T19:51:08Z</time>
  <course>291.58</course>
  <speed>0.38</speed>
  <fix>3d</fix>
</trkpt>
<trkpt lat="-27.2744459" lon="151.2900554">
  <ele>357.94</ele>
  <time>2026-09-01T19:51:08Z</time>
  <course>181.84</course>
  <speed>0.354400902933387</speed>
  <fix>3d</fix>
</trkpt>
<trkpt lat="-27.2744457" lon="151.2900555">
  <ele>358.11</ele>
  <time>2026-09-01T19:51:08Z</time>
  <course>290.08</course>
  <speed>0.38</speed>
  <fix>3d</fix>
</trkpt>
<trkpt lat="-27.2744457" lon="151.290055">
  <ele>357.94</ele>
  <time>2026-09-01T19:51:08Z</time>
  <course>180.29</course>
  <speed>0.3420526275297414</speed>
  <fix>3d</fix>
</trkpt>
<trkpt lat="-27.2744457" lon="151.2900555">
  <ele>358.11</ele>
  <time>2026-09-01T19:51:08Z</time>
  <course>290.08</course>
  <speed>0.38</speed>
  <fix>3d</fix>
</trkpt>
<trkpt lat="-27.2744456" lon="151.2900546">
  <ele>357.94</ele>
  <time>2026-09-01T19:51:08Z</time>
  <course>178.74</course>
  <speed>0.3420526275297414</speed>
  <fix>3d</fix>
</trkpt>
<trkpt lat="-27.2744455" lon="151.2900548">
  <ele>358.11</ele>
  <time>2026-09-01T19:51:08Z</time>
  <course>288.66</course>
  <speed>0.37</speed>
  <fix>3d</fix>
</trkpt>
<trkpt lat="-27.2744455" lon="151.2900543">
  <ele>357.94</ele>
  <time>2026-09-01T19:51:08Z</time>
  <course>177.19</course>
  <speed>0.33955853692699295</speed>
  <fix>3d</fix>
</trkpt>
<trkpt lat="-27.2744455" lon="151.2900548">
  <ele>358.11</ele>
  <time>2026-09-01T19:51:08Z</time>
  <course>288.66</course>
  <speed>0.37</speed>
  <fix>3d</fix>
</trkpt>
<trkpt lat="-27.2744454" lon="151.2900539">
  <ele>357.94</ele>
  <time>2026-09-01T19:51:08Z</time>
  <course>175.65</course>
  <speed>0.3298484500494128</speed>
  <fix>3d</fix>
</trkpt>
<trkpt lat="-27.2744452" lon="151.2900541">
  <ele>358.12</ele>
  <time>2026-09-01T19:51:08Z</time>
  <course>287.46</course>
  <speed>0.36</speed>
  <fix>3d</fix>
</trkpt>
<trkpt lat="-27.2744453" lon="151.2900536">
  <ele>357.94</ele>
  <time>2026-09-01T19:51:08Z</time>
  <course>174.1</course>
  <speed>0.327566787083184</speed>
  <fix>3d</fix>
</trkpt>
<trkpt lat="-27.2744452" lon="151.2900541">
  <ele>358.12</ele>
  <time>2026-09-01T19:51:08Z</time>
  <course>287.46</course>
  <speed>0.36</speed>
  <fix>3d</fix>
</trkpt>
<trkpt lat="-27.2744452" lon="151.2900533">
  <ele>357.94</ele>
  <time>2026-09-01T19:51:08Z</time>
  <course>172.55</course>
  <speed>0.3178049716414141</speed>
  <fix>3d</fix>
</trkpt>
<trkpt lat="-27.2744451" lon="151.2900534">
  <ele>358.12</ele>
  <time>2026-09-01T19:51:08Z</time>
  <course>286.57</course>
  <speed>0.35</speed>
  <fix>3d</fix>
</trkpt>
<trkpt lat="-27.2744452" lon="151.2900529">
  <ele>357.94</ele>
  <time>2026-09-01T19:51:08Z</time>
  <course>171.01</course>
  <speed>0.3178049716414141</speed>
  <fix>3d</fix>
</trkpt>
<trkpt lat="-27.2744451" lon="151.2900534">
  <ele>358.12</ele>
  <time>2026-09-01T19:51:08Z</time>
  <course>286.57</course>
  <speed>0.35</speed>
  <fix>3d</fix>
</trkpt>
<trkpt lat="-27.2744451" lon="151.2900526">
  <ele>357.94</ele>
  <time>2026-09-01T19:51:08Z</time>
  <course>169.67</course>
  <speed>0.3080584360149873</speed>
  <fix>3d</fix>
</trkpt>
<trkpt lat="-27.2744449" lon="151.2900527">
  <ele>358.12</ele>
  <time>2026-09-01T19:51:08Z</time>
  <course>286.02</course>
  <speed>0.34</speed>
  <fix>3d</fix>
</trkpt>
<trkpt lat="-27.274445" lon="151.2900523">
  <ele>357.94</ele>
  <time>2026-09-01T19:51:08Z</time>
  <course>168.81</course>
  <speed>0.29614185789921693</speed>
  <fix>3d</fix>
</trkpt>
<trkpt lat="-27.2744449" lon="151.2900527">
  <ele>358.12</ele>
  <time>2026-09-01T19:51:08Z</time>
  <course>286.02</course>
  <speed>0.34</speed>
  <fix>3d</fix>
</trkpt>
<trkpt lat="-27.2744449" lon="151.290052">
  <ele>357.94</ele>
  <time>2026-09-01T19:51:08Z</time>
  <course>168.51</course>
  <speed>0.29614185789921693</speed>
  <fix>3d</fix>
</trkpt>
<trkpt lat="-27.2744447" lon="151.290052">
  <ele>358.12</ele>
  <time>2026-09-01T19:51:08Z</time>
  <course>285.71</course>
  <speed>0.32</speed>
  <fix>3d</fix>
</trkpt>
<trkpt lat="-27.2744448" lon="151.2900517">
  <ele>357.95</ele>
  <time>2026-09-01T19:51:08Z</time>
  <course>168.69</course>
  <speed>0.2863564212655271</speed>
  <fix>3d</fix>
</trkpt>
<trkpt lat="-27.2744447" lon="151.290052">
  <ele>358.12</ele>
  <time>2026-09-01T19:51:08Z</time>
  <course>285.71</course>
  <speed>0.32</speed>
  <fix>3d</fix>
</trkpt>
<trkpt lat="-27.2744448" lon="151.2900514">
  <ele>357.95</ele>
  <time>2026-09-01T19:51:08Z</time>
  <course>169.24</course>
  <speed>0.2765863337187866</speed>
  <fix>3d</fix>
</trkpt>
<trkpt lat="-27.2744446" lon="151.2900515">
  <ele>358.13</ele>
  <time>2026-09-01T19:51:08Z</time>
  <course>285.57</course>
  <speed>0.3</speed>
  <fix>3d</fix>
</trkpt>
<trkpt lat="-27.2744447" lon="151.2900511">
  <ele>357.95</ele>
  <time>2026-09-01T19:51:08Z</time>
  <course>169.99</course>
  <speed>0.26476404589747454</speed>
  <fix>3d</fix>
</trkpt>
<trkpt lat="-27.2744446" lon="151.2900515">
  <ele>358.13</ele>
  <time>2026-09-01T19:51:08Z</time>
  <course>285.57</course>
  <speed>0.3</speed>
  <fix>3d</fix>
</trkpt>
<trkpt lat="-27.2744446" lon="151.2900508">
  <ele>357.95</ele>
  <time>2026-09-01T19:51:08Z</time>
  <course>170.79</course>
  <speed>0.24515301344262524</speed>
  <fix>3d</fix>
</trkpt>
<trkpt lat="-27.2744444" lon="151.2900508">
  <ele>358.13</ele>
  <time>2026-09-01T19:51:08Z</time>
  <course>285.69</course>
  <speed>0.28</speed>
  <fix>3d</fix>
</trkpt>
<trkpt lat="-27.2744445" lon="151.2900505">
  <ele>357.95</ele>
  <time>2026-09-01T19:51:08Z</time>
  <course>171.52</course>
  <speed>0.2353720459187964</speed>
  <fix>3d</fix>
</trkpt>
<trkpt lat="-27.2744444" lon="151.2900508">
  <ele>358.13</ele>
  <time>2026-09-01T19:51:08Z</time>
  <course>285.69</course>
  <speed>0.28</speed>
  <fix>3d</fix>
</trkpt>
<trkpt lat="-27.2744445" lon="151.2900503">
  <ele>357.96</ele>
  <time>2026-09-01T19:51:08Z</time>
  <course>172.07</course>
  <speed>0.22561028345356957</speed>
  <fix>3d</fix>
</trkpt>
<trkpt lat="-27.2744443" lon="151.2900503">
  <ele>358.13</ele>
  <time>2026-09-01T19:51:08Z</time>
  <course>286.17</course>
  <speed>0.26</speed>
  <fix>3d</fix>
</trkpt>
<trkpt lat="-27.2744444" lon="151.29005">
  <ele>357.96</ele>
  <time>2026-09-01T19:51:08Z</time>
  <course>172.41</course>
  <speed>0.215870331449229</speed>
  <fix>3d</fix>
</trkpt>
<trkpt lat="-27.2744443" lon="151.2900503">
  <ele>358.13</ele>
  <time>2026-09-01T19:51:08Z</time>
  <course>286.17</course>
  <speed>0.26</speed>
  <fix>3d</fix>
</trkpt>
<trkpt lat="-27.2744443" lon="151.2900498">
  <ele>357.96</ele>
  <time>2026-09-01T19:51:08Z</time>
  <course>172.53</course>
  <speed>0.20615528128088303</speed>
  <fix>3d</fix>
</trkpt>
<trkpt lat="-27.2744441" lon="151.2900498">
  <ele>358.14</ele>
  <time>2026-09-01T19:51:08Z</time>
  <course>287.18</course>
  <speed>0.24</speed>
  <fix>3d</fix>
</trkpt>
<trkpt lat="-27.2744443" lon="151.2900496">
  <ele>357.96</ele>
  <time>2026-09-01T19:51:08Z</time>
  <course>172.46</course>
  <speed>0.196468827043885</speed>
  <fix>3d</fix>
</trkpt>
<trkpt lat="-27.2744441" lon="151.2900498">
  <ele>358.14</ele>
  <time>2026-09-01T19:51:08Z</time>
  <course>287.18</course>
  <speed>0.24</speed>
  <fix>3d</fix>
</trkpt>
<trkpt lat="-27.2744442" lon="151.2900494">
  <ele>357.96</ele>
  <time>2026-09-01T19:51:09Z</time>
  <course>172.68</course>
  <speed>0.18681541692269404</speed>
  <fix>3d</fix>
</trkpt>
<trkpt lat="-27.274444" lon="151.2900493">
  <ele>358.14</ele>
  <time>2026-09-01T19:51:09Z</time>
  <course>288.8</course>
  <speed>0.22</speed>
  <fix>3d</fix>
</trkpt>
<trkpt lat="-27.2744441" lon="151.2900492">
  <ele>357.96</ele>
  <time>2026-09-01T19:51:09Z</time>
  <course>173.94</course>
  <speed>0.1772004514666935</speed>
  <fix>3d</fix>
</trkpt>
<trkpt lat="-27.274444" lon="151.2900493">
  <ele>358.14</ele>
  <time>2026-09-01T19:51:09Z</time>
  <course>288.8</course>
  <speed>0.22</speed>
  <fix>3d</fix>
</trkpt>
<trkpt lat="-27.274444" lon="151.290049">
  <ele>357.96</ele>
  <time>2026-09-01T19:51:09Z</time>
  <course>175.78</course>
  <speed>0.1676305461424021</speed>
  <fix>3d</fix>
</trkpt>
<trkpt lat="-27.2744439" lon="151.290049">
  <ele>358.14</ele>
  <time>2026-09-01T19:51:09Z</time>
  <course>291.12</course>
  <speed>0.2</speed>
  <fix>3d</fix>
</trkpt>
<trkpt lat="-27.274444" lon="151.2900488">
  <ele>357.96</ele>
  <time>2026-09-01T19:51:09Z</time>
  <course>177.78</course>
  <speed>0.1615549442140351</speed>
  <fix>3d</fix>
</trkpt>
<trkpt lat="-27.2744439" lon="151.290049">
  <ele>358.14</ele>
  <time>2026-09-01T19:51:09Z</time>
  <course>291.12</course>
  <speed>0.2</speed>
  <fix>3d</fix>
</trkpt>
<trkpt lat="-27.2744439" lon="151.2900486">
  <ele>357.96</ele>
  <time>2026-09-01T19:51:09Z</time>
  <course>179.83</course>
  <speed>0.15231546211727817</speed>
  <fix>3d</fix>
</trkpt>
<trkpt lat="-27.2744438" lon="151.2900486">
  <ele>358.14</ele>
  <time>2026-09-01T19:51:09Z</time>
  <course>294.3</course>
  <speed>0.18</speed>
  <fix>3d</fix>
</trkpt>
<trkpt lat="-27.2744438" lon="151.2900485">
  <ele>357.96</ele>
  <time>2026-09-01T19:51:09Z</time>
  <course>181.89</course>
  <speed>0.14317821063276354</speed>
  <fix>3d</fix>
</trkpt>
<trkpt lat="-27.2744438" lon="151.2900486">
  <ele>358.14</ele>
  <time>2026-09-01T19:51:09Z</time>
  <course>294.3</course>
  <speed>0.18</speed>
  <fix>3d</fix>
</trkpt>
<trkpt lat="-27.2744437" lon="151.2900483">
  <ele>357.96</ele>
  <time>2026-09-01T19:51:09Z</time>
  <course>183.73</course>
  <speed>0.1341640786499874</speed>
  <fix>3d</fix>
</trkpt>
<trkpt lat="-27.2744436" lon="151.2900483">
  <ele>358.13</ele>
  <time>2026-09-01T19:51:09Z</time>
  <course>298.39</course>
  <speed>0.17</speed>
  <fix>3d</fix>
</trkpt>
<trkpt lat="-27.2744437" lon="151.2900482">
  <ele>357.95</ele>
  <time>2026-09-01T19:51:09Z</time>
  <course>184.91</course>
  <speed>0.130384048104053</speed>
  <fix>3d</fix>
</trkpt>
<trkpt lat="-27.2744436" lon="151.2900483">
  <ele>358.13</ele>
  <time>2026-09-01T19:51:09Z</time>
  <course>298.39</course>
  <speed>0.17</speed>
  <fix>3d</fix>
</trkpt>
<trkpt lat="-27.2744436" lon="151.2900481">
  <ele>357.95</ele>
  <time>2026-09-01T19:51:09Z</time>
  <course>185.3</course>
  <speed>0.12206555615733702</speed>
  <fix>3d</fix>
</trkpt>
<trkpt lat="-27.2744434" lon="151.290048">
  <ele>358.13</ele>
  <time>2026-09-01T19:51:09Z</time>
  <course>303.5</course>
  <speed>0.15</speed>
  <fix>3d</fix>
</trkpt>
<trkpt lat="-27.2744435" lon="151.290048">
  <ele>357.95</ele>
  <time>2026-09-01T19:51:09Z</time>
  <course>185.0</course>
  <speed>0.11401754250991379</speed>
  <fix>3d</fix>
</trkpt>
<trkpt lat="-27.2744434" lon="151.290048">
  <ele>358.13</ele>
  <time>2026-09-01T19:51:09Z</time>
  <course>303.5</course>
  <speed>0.15</speed>
  <fix>3d</fix>
</trkpt>
<trkpt lat="-27.2744434" lon="151.2900479">
  <ele>357.95</ele>
  <time>2026-09-01T19:51:09Z</time>
  <course>184.2</course>
  <speed>0.1131370849898476</speed>
  <fix>3d</fix>
</trkpt>
<trkpt lat="-27.2744433" lon="151.2900478">
  <ele>358.13</ele>
  <time>2026-09-01T19:51:09Z</time>
  <course>310.05</course>
  <speed>0.14</speed>
  <fix>3d</fix>
</trkpt>
<trkpt lat="-27.2744433" lon="151.2900478">
  <ele>357.95</ele>
  <time>2026-09-01T19:51:09Z</time>
  <course>183.11</course>
  <speed>0.1063014581273465</speed>
  <fix>3d</fix>
</trkpt>
<trkpt lat="-27.2744433" lon="151.2900478">
  <ele>358.13</ele>
  <time>2026-09-01T19:51:09Z</time>
  <course>310.05</course>
  <speed>0.14</speed>
  <fix>3d</fix>
</trkpt>
<trkpt lat="-27.2744432" lon="151.2900477">
  <ele>357.94</ele>
  <time>2026-09-01T19:51:09Z</time>
  <course>181.93</course>
  <speed>0.10295630140987001</speed>
  <fix>3d</fix>
</trkpt>
<trkpt lat="-27.2744431" lon="151.2900475">
  <ele>358.13</ele>
  <time>2026-09-01T19:51:09Z</time>
  <course>318.32</course>
  <speed>0.13</speed>
  <fix>3d</fix>
</trkpt>
<trkpt lat="-27.2744431" lon="151.2900476">
  <ele>357.94</ele>
  <time>2026-09-01T19:51:09Z</time>
  <course>180.84</course>
  <speed>0.09848857801796104</speed>
  <fix>3d</fix>
</trkpt>
<trkpt lat="-27.2744431" lon="151.2900475">
  <ele>358.13</ele>
  <time>2026-09-01T19:51:09Z</time>
  <course>318.32</course>
  <speed>0.13</speed>
  <fix>3d</fix>
</trkpt>
<trkpt lat="-27.274443" lon="151.2900475">
  <ele>357.94</ele>
  <time>2026-09-01T19:51:09Z</time>
  <course>180.03</course>
  <speed>0.09486832980505139</speed>
  <fix>3d</fix>
</trkpt>
<trkpt lat="-27.274443" lon="151.2900474">
  <ele>358.13</ele>
  <time>2026-09-01T19:51:09Z</time>
  <course>328.21</course>
  <speed>0.12</speed>
  <fix>3d</fix>
</trkpt>
<trkpt lat="-27.2744429" lon="151.2900475">
  <ele>357.94</ele>
  <time>2026-09-01T19:51:09Z</time>
  <course>179.14</course>
  <speed>0.1019803902718557</speed>
  <fix>3d</fix>
</trkpt>
<trkpt lat="-27.274443" lon="151.2900474">
  <ele>358.13</ele>
  <time>2026-09-01T19:51:09Z</time>
  <course>328.21</course>
  <speed>0.12</speed>
  <fix>3d</fix>
</trkpt>
<trkpt lat="-27.2744428" lon="151.2900475">
  <ele>357.94</ele>
  <time>2026-09-01T19:51:09Z</time>
  <course>177.87</course>
  <speed>0.1004987562112089</speed>
  <fix>3d</fix>
</trkpt>
<trkpt lat="-27.2744427" lon="151.2900472">
  <ele>358.13</ele>
  <time>2026-09-01T19:51:09Z</time>
  <course>339.21</course>
  <speed>0.12</speed>
  <fix>3d</fix>
</trkpt>
<trkpt lat="-27.2744427" lon="151.2900474">
  <ele>357.94</ele>
  <time>2026-09-01T19:51:09Z</time>
  <course>176.41</course>
  <speed>0.11</speed>
  <fix>3d</fix>
</trkpt>
<trkpt lat="-27.2744427" lon="151.2900472">
  <ele>358.13</ele>
  <time>2026-09-01T19:51:09Z</time>
  <course>339.21</course>
  <speed>0.12</speed>
  <fix>3d</fix>
</trkpt>
<trkpt lat="-27.2744426" lon="151.2900474">
  <ele>357.95</ele>
  <time>2026-09-01T19:51:09Z</time>
  <course>174.91</course>
  <speed>0.11045361017187261</speed>
  <fix>3d</fix>
</trkpt>
<trkpt lat="-27.2744425" lon="151.2900472">
  <ele>358.14</ele>
  <time>2026-09-01T19:51:09Z</time>
  <course>350.42</course>
  <speed>0.12</speed>
  <fix>3d</fix>
</trkpt>
<trkpt lat="-27.2744425" lon="151.2900474">
  <ele>357.95</ele>
  <time>2026-09-01T19:51:09Z</time>
  <course>173.39</course>
  <speed>0.1118033988749895</speed>
  <fix>3d</fix>
</trkpt>
<trkpt lat="-27.2744425" lon="151.2900472">
  <ele>358.14</ele>
  <time>2026-09-01T19:51:09Z</time>
  <course>350.42</course>
  <speed>0.12</speed>
  <fix>3d</fix>
</trkpt>
<trkpt lat="-27.2744423" lon="151.2900474">
  <ele>357.95</ele>
  <time>2026-09-01T19:51:09Z</time>
  <course>171.86</course>
  <speed>0.12369316876852982</speed>
  <fix>3d</fix>
</trkpt>
<trkpt lat="-27.2744422" lon="151.2900472">
  <ele>358.14</ele>
  <time>2026-09-01T19:51:09Z</time>
  <course>0.64</course>
  <speed>0.13</speed>
  <fix>3d</fix>
</trkpt>
<trkpt lat="-27.2744422" lon="151.2900474">
  <ele>357.95</ele>
  <time>2026-09-01T19:51:09Z</time>
  <course>170.34</course>
  <speed>0.1264911064067352</speed>
  <fix>3d</fix>
</trkpt>
<trkpt lat="-27.2744422" lon="151.2900472">
  <ele>358.14</ele>
  <time>2026-09-01T19:51:09Z</time>
  <course>0.64</course>
  <speed>0.13</speed>
  <fix>3d</fix>
</trkpt>
<trkpt lat="-27.2744421" lon="151.2900474">
  <ele>357.96</ele>
  <time>2026-09-01T19:51:09Z</time>
  <course>168.82</course>
  <speed>0.13</speed>
  <fix>3d</fix>
</trkpt>
<trkpt lat="-27.274442" lon="151.2900472">
  <ele>358.14</ele>
  <time>2026-09-01T19:51:09Z</time>
  <course>9.48</course>
  <speed>0.14</speed>
  <fix>3d</fix>
</trkpt>
<trkpt lat="-27.2744419" lon="151.2900474">
  <ele>357.96</ele>
  <time>2026-09-01T19:51:09Z</time>
  <course>167.29</course>
  <speed>0.14317821063276354</speed>
  <fix>3d</fix>
</trkpt>
<trkpt lat="-27.274442" lon="151.2900472">
  <ele>358.14</ele>
  <time>2026-09-01T19:51:09Z</time>
  <course>9.48</course>
  <speed>0.14</speed>
  <fix>3d</fix>
</trkpt>
<trkpt lat="-27.2744418" lon="151.2900475">
  <ele>357.96</ele>
  <time>2026-09-01T19:51:09Z</time>
  <course>165.77</course>
  <speed>0.147648230602334</speed>
  <fix>3d</fix>
</trkpt>
<trkpt lat="-27.2744418" lon="151.2900472">
  <ele>358.15</ele>
  <time>2026-09-01T19:51:09Z</time>
  <course>17.22</course>
  <speed>0.15</speed>
  <fix>3d</fix>
</trkpt>
<trkpt lat="-27.2744417" lon="151.2900475">
  <ele>357.96</ele>
  <time>2026-09-01T19:51:09Z</time>
  <course>164.25</course>
  <speed>0.15264337522473748</speed>
  <fix>3d</fix>
</trkpt>
<trkpt lat="-27.2744418" lon="151.2900472">
  <ele>358.15</ele>
  <time>2026-09-01T19:51:09Z</time>
  <course>17.22</course>
  <speed>0.15</speed>
  <fix>3d</fix>
</trkpt>
<trkpt lat="-27.2744415" lon="151.2900476">
  <ele>357.96</ele>
  <time>2026-09-01T19:51:09Z</time>
  <course>162.73</course>
  <speed>0.15811388300841897</speed>
  <fix>3d</fix>
</trkpt>
<trkpt lat="-27.2744415" lon="151.2900473">
  <ele>358.15</ele>
  <time>2026-09-01T19:51:09Z</time>
  <course>23.97</course>
  <speed>0.16</speed>
  <fix>3d</fix>
</trkpt>
<trkpt lat="-27.2744414" lon="151.2900477">
  <ele>357.96</ele>
  <time>2026-09-01T19:51:09Z</time>
  <course>161.21</course>
  <speed>0.17804493814764857</speed>
  <fix>3d</fix>
</trkpt>
<trkpt lat="-27.2744415" lon="151.2900473">
  <ele>358.15</ele>
  <time>2026-09-01T19:51:09Z</time>
  <course>23.97</course>
  <speed>0.16</speed>
  <fix>3d</fix>
</trkpt>
<trkpt lat="-27.2744413" lon="151.2900478">
  <ele>357.96</ele>
  <time>2026-09-01T19:51:09Z</time>
  <course>159.69</course>
  <speed>0.18439088914585774</speed>
  <fix>3d</fix>
</trkpt>
<trkpt lat="-27.2744412" lon="151.2900474">
  <ele>358.15</ele>
  <time>2026-09-01T19:51:09Z</time>
  <course>29.88</course>
  <speed>0.18</speed>
  <fix>3d</fix>
</trkpt>
<trkpt lat="-27.2744411" lon="151.2900479">
  <ele>357.96</ele>
  <time>2026-09-01T19:51:09Z</time>
  <course>158.16</course>
  <speed>0.191049731745428</speed>
  <fix>3d</fix>
</trkpt>
<trkpt lat="-27.2744412" lon="151.2900474">
  <ele>358.15</ele>
  <time>2026-09-01T19:51:09Z</time>
  <course>29.88</course>
  <speed>0.18</speed>
  <fix>3d</fix>
</trkpt>
<trkpt lat="-27.274441" lon="151.290048">
  <ele>357.96</ele>
  <time>2026-09-01T19:51:09Z</time>
  <course>156.64</course>
  <speed>0.1979898987322333</speed>
  <fix>3d</fix>
</trkpt>
<trkpt lat="-27.2744409" lon="151.2900477">
  <ele>358.15</ele>
  <time>2026-09-01T19:51:09Z</time>
  <course>35.12</course>
  <speed>0.19</speed>
  <fix>3d</fix>
</trkpt>
<trkpt lat="-27.2744408" lon="151.2900481">
  <ele>357.96</ele>
  <time>2026-09-01T19:51:09Z</time>
  <course>155.12</course>
  <speed>0.20518284528683192</speed>
  <fix>3d</fix>
</trkpt>
<trkpt lat="-27.2744409" lon="151.2900477">
  <ele>358.15</ele>
  <time>2026-09-01T19:51:09Z</time>
  <course>35.12</course>
  <speed>0.19</speed>
  <fix>3d</fix>
</trkpt>
<trkpt lat="-27.2744407" lon="151.2900483">
  <ele>357.96</ele>
  <time>2026-09-01T19:51:09Z</time>
  <course>153.6</course>
  <speed>0.212602916254693</speed>
  <fix>3d</fix>
</trkpt>
<trkpt lat="-27.2744406" lon="151.2900479">
  <ele>358.15</ele>
  <time>2026-09-01T19:51:09Z</time>
  <course>39.83</course>
  <speed>0.21</speed>
  <fix>3d</fix>
</trkpt>
<trkpt lat="-27.2744405" lon="151.2900484">
  <ele>357.96</ele>
  <time>2026-09-01T19:51:09Z</time>
  <course>152.07</course>
  <speed>0.22022715545545238</speed>
  <fix>3d</fix>
</trkpt>
<trkpt lat="-27.2744406" lon="151.2900479">
  <ele>358.15</ele>
  <time>2026-09-01T19:51:09Z</time>
  <course>39.83</course>
  <speed>0.21</speed>
  <fix>3d</fix>
</trkpt>
<trkpt lat="-27.2744404" lon="151.2900486">
  <ele>357.97</ele>
  <time>2026-09-01T19:51:09Z</time>
  <course>150.55</course>
  <speed>0.23600847442411893</speed>
  <fix>3d</fix>
</trkpt>
<trkpt lat="-27.2744403" lon="151.2900482">
  <ele>358.15</ele>
  <time>2026-09-01T19:51:09Z</time>
  <course>44.18</course>
  <speed>0.22</speed>
  <fix>3d</fix>
</trkpt>
<trkpt lat="-27.2744402" lon="151.2900487">
  <ele>357.97</ele>
  <time>2026-09-01T19:51:09Z</time>
  <course>149.2</course>
  <speed>0.24413111231467405</speed>
  <fix>3d</fix>
</trkpt>
<trkpt lat="-27.2744403" lon="151.2900482">
  <ele>358.15</ele>
  <time>2026-09-01T19:51:09Z</time>
  <course>44.18</course>
  <speed>0.22</speed>
  <fix>3d</fix>
</trkpt>
<trkpt lat="-27.2744401" lon="151.2900489">
  <ele>357.97</ele>
  <time>2026-09-01T19:51:09Z</time>
  <course>148.29</course>
  <speed>0.25238858928247926</speed>
  <fix>3d</fix>
</trkpt>
<trkpt lat="-27.27444" lon="151.2900485">
  <ele>358.14</ele>
  <time>2026-09-01T19:51:09Z</time>
  <course>48.45</course>
  <speed>0.24</speed>
  <fix>3d</fix>
</trkpt>
<trkpt lat="-27.2744399" lon="151.2900491">
  <ele>357.97</ele>
  <time>2026-09-01T19:51:09Z</time>
  <course>147.91</course>
  <speed>0.2692582403567252</speed>
  <fix>3d</fix>
</trkpt>
<trkpt lat="-27.27444" lon="151.2900485">
  <ele>358.14</ele>
  <time>2026-09-01T19:51:09Z</time>
  <course>48.45</course>
  <speed>0.24</speed>
  <fix>3d</fix>
</trkpt>
<trkpt lat="-27.2744398" lon="151.2900494">
  <ele>357.96</ele>
  <time>2026-09-01T19:51:09Z</time>
  <course>148.01</course>
  <speed>0.2778488797889961</speed>
  <fix>3d</fix>
</trkpt>
<trkpt lat="-27.2744397" lon="151.290049">
  <ele>358.14</ele>
  <time>2026-09-01T19:51:09Z</time>
  <course>52.97</course>
  <speed>0.26</speed>
  <fix>3d</fix>
</trkpt>
<trkpt lat="-27.2744396" lon="151.2900496">
  <ele>357.96</ele>
  <time>2026-09-01T19:51:09Z</time>
  <course>148.48</course>
  <speed>0.28178005607210743</speed>
  <fix>3d</fix>
</trkpt>
<trkpt lat="-27.2744397" lon="151.290049">
  <ele>358.14</ele>
  <time>2026-09-01T19:51:09Z</time>
  <course>52.97</course>
  <speed>0.26</speed>
  <fix>3d</fix>
</trkpt>
<trkpt lat="-27.2744395" lon="151.2900498">
  <ele>357.96</ele>
  <time>2026-09-01T19:51:09Z</time>
  <course>149.18</course>
  <speed>0.29966648127543394</speed>
  <fix>3d</fix>
</trkpt>
<trkpt lat="-27.2744395" lon="151.2900494">
  <ele>358.14</ele>
  <time>2026-09-01T19:51:09Z</time>
  <course>57.22</course>
  <speed>0.28</speed>
  <fix>3d</fix>
</trkpt>
<trkpt lat="-27.2744394" lon="151.2900501">
  <ele>357.96</ele>
  <time>2026-09-01T19:51:09Z</time>
  <course>149.95</course>
  <speed>0.3087069808086626</speed>
  <fix>3d</fix>
</trkpt>
<trkpt lat="-27.2744395" lon="151.2900494">
  <ele>358.14</ele>
  <time>2026-09-01T19:51:09Z</time>
  <course>57.22</course>
  <speed>0.28</speed>
  <fix>3d</fix>
</trkpt>
<trkpt lat="-27.2744392" lon="151.2900504">
  <ele>357.96</ele>
  <time>2026-09-01T19:51:09Z</time>
  <course>150.67</course>
  <speed>0.3178049716414141</speed>
  <fix>3d</fix>
</trkpt>
<trkpt lat="-27.2744392" lon="151.2900499">
  <ele>358.14</ele>
  <time>2026-09-01T19:51:09Z</time>
  <course>60.11</course>
  <speed>0.3</speed>
  <fix>3d</fix>
</trkpt>
<trkpt lat="-27.2744391" lon="151.2900506">
  <ele>357.96</ele>
  <time>2026-09-01T19:51:09Z</time>
  <course>151.24</course>
  <speed>0.3178049716414141</speed>
  <fix>3d</fix>
</trkpt>
<trkpt lat="-27.2744392" lon="151.2900499">
  <ele>358.14</ele>
  <time>2026-09-01T19:51:09Z</time>
  <course>60.11</course>
  <speed>0.3</speed>
  <fix>3d</fix>
</trkpt>
<trkpt lat="-27.274439" lon="151.2900509">
  <ele>357.96</ele>
  <time>2026-09-01T19:51:09Z</time>
  <course>151.61</course>
  <speed>0.32695565448543634</speed>
  <fix>3d</fix>
</trkpt>
<trkpt lat="-27.2744389" lon="151.2900505">
  <ele>358.14</ele>
  <time>2026-09-01T19:51:09Z</time>
  <course>61.73</course>
  <speed>0.31</speed>
  <fix>3d</fix>
</trkpt>
<trkpt lat="-27.2744388" lon="151.2900512">
  <ele>357.96</ele>
  <time>2026-09-01T19:51:09Z</time>
  <course>151.77</course>
  <speed>0.3361547262794322</speed>
  <fix>3d</fix>
</trkpt>
<trkpt lat="-27.2744389" lon="151.2900505">
  <ele>358.14</ele>
  <time>2026-09-01T19:51:09Z</time>
  <course>61.73</course>
  <speed>0.31</speed>
  <fix>3d</fix>
</trkpt>
<trkpt lat="-27.2744387" lon="151.2900515">
  <ele>357.96</ele>
  <time>2026-09-01T19:51:09Z</time>
  <course>151.74</course>
  <speed>0.3453983207834109</speed>
  <fix>3d</fix>
</trkpt>
<trkpt lat="-27.2744387" lon="151.290051">
  <ele>358.14</ele>
  <time>2026-09-01T19:51:09Z</time>
  <course>62.89</course>
  <speed>0.33</speed>
  <fix>3d</fix>
</trkpt>
<trkpt lat="-27.2744385" lon="151.2900518">
  <ele>357.96</ele>
  <time>2026-09-01T19:51:09Z</time>
  <course>151.9</course>
  <speed>0.3584689665786984</speed>
  <fix>3d</fix>
</trkpt>
<trkpt lat="-27.2744387" lon="151.290051">
  <ele>358.14</ele>
  <time>2026-09-01T19:51:09Z</time>
  <course>62.89</course>
  <speed>0.33</speed>
  <fix>3d</fix>
</trkpt>
<trkpt lat="-27.2744384" lon="151.2900521">
  <ele>357.96</ele>
  <time>2026-09-01T19:51:09Z</time>
  <course>153.15</course>
  <speed>0.3676955262170047</speed>
  <fix>3d</fix>
</trkpt>
<trkpt lat="-27.2744384" lon="151.2900517">
  <ele>358.13</ele>
  <time>2026-09-01T19:51:09Z</time>
  <course>63.88</course>
  <speed>0.34</speed>
  <fix>3d</fix>
</trkpt>
<trkpt lat="-27.2744383" lon="151.2900525">
  <ele>357.96</ele>
  <time>2026-09-01T19:51:09Z</time>
  <course>155.01</course>
  <speed>0.3640054944640259</speed>
  <fix>3d</fix>
</trkpt>
<trkpt lat="-27.2744384" lon="151.2900517">
  <ele>358.13</ele>
  <time>2026-09-01T19:51:09Z</time>
  <course>63.88</course>
  <speed>0.34</speed>
  <fix>3d</fix>
</trkpt>
<trkpt lat="-27.2744381" lon="151.2900528">
  <ele>357.96</ele>
  <time>2026-09-01T19:51:09Z</time>
  <course>157.03</course>
  <speed>0.37947331922020555</speed>
  <fix>3d</fix>
</trkpt>
<trkpt lat="-27.2744381" lon="151.2900523">
  <ele>358.13</ele>
  <time>2026-09-01T19:51:09Z</time>
  <course>65.89</course>
  <speed>0.36</speed>
  <fix>3d</fix>
</trkpt>
<trkpt lat="-27.274438" lon="151.2900532">
  <ele>357.96</ele>
  <time>2026-09-01T19:51:09Z</time>
  <course>159.06</course>
  <speed>0.38600518131237566</speed>
  <fix>3d</fix>
</trkpt>
<trkpt lat="-27.2744381" lon="151.2900523">
  <ele>358.13</ele>
  <time>2026-09-01T19:51:09Z</time>
  <course>65.89</course>
  <speed>0.36</speed>
  <fix>3d</fix>
</trkpt>
<trkpt lat="-27.2744379" lon="151.2900535">
  <ele>357.96</ele>
  <time>2026-09-01T19:51:09Z</time>
  <course>161.07</course>
  <speed>0.39293765408777</speed>
  <fix>3d</fix>
</trkpt>
<trkpt lat="-27.2744379" lon="151.290053">
  <ele>358.13</ele>
  <time>2026-09-01T19:51:09Z</time>
  <course>69.44</course>
  <speed>0.37</speed>
  <fix>3d</fix>
</trkpt>
<trkpt lat="-27.2744378" lon="151.2900539">
  <ele>357.96</ele>
  <time>2026-09-01T19:51:09Z</time>
  <course>162.71</course>
  <speed>0.4026164427839479</speed>
  <fix>3d</fix>
</trkpt>
<trkpt lat="-27.2744379" lon="151.290053">
  <ele>358.13</ele>
  <time>2026-09-01T19:51:09Z</time>
  <course>69.44</course>
  <speed>0.37</speed>
  <fix>3d</fix>
</trkpt>
<trkpt lat="-27.2744377" lon="151.2900543">
  <ele>357.96</ele>
  <time>2026-09-01T19:51:09Z</time>
  <course>163.6</course>
  <speed>0.41</speed>
  <fix>3d</fix>
</trkpt>
<trkpt lat="-27.2744377" lon="151.2900537">
  <ele>358.13</ele>
  <time>2026-09-01T19:51:09Z</time>
  <course>72.74</course>
  <speed>0.38</speed>
  <fix>3d</fix>
</trkpt>
<trkpt lat="-27.2744376" lon="151.2900546">
  <ele>357.96</ele>
  <time>2026-09-01T19:51:09Z</time>
  <course>163.73</course>
  <speed>0.41</speed>
  <fix>3d</fix>
</trkpt>
<trkpt lat="-27.2744377" lon="151.2900537">
  <ele>358.13</ele>
  <time>2026-09-01T19:51:09Z</time>
  <course>72.74</course>
  <speed>0.38</speed>
  <fix>3d</fix>
</trkpt>
<trkpt lat="-27.2744375" lon="151.290055">
  <ele>357.96</ele>
  <time>2026-09-01T19:51:09Z</time>
  <course>163.22</course>
  <speed>0.4197618372363071</speed>
  <fix>3d</fix>
</trkpt>
<trkpt lat="-27.2744375" lon="151.2900545">
  <ele>358.13</ele>
  <time>2026-09-01T19:51:09Z</time>
  <course>74.27</course>
  <speed>0.4</speed>
  <fix>3d</fix>
</trkpt>
<trkpt lat="-27.2744374" lon="151.2900554">
  <ele>357.96</ele>
  <time>2026-09-01T19:51:09Z</time>
  <course>162.28</course>
  <speed>0.4197618372363071</speed>
  <fix>3d</fix>
</trkpt>
<trkpt lat="-27.2744375" lon="151.2900545">
  <ele>358.13</ele>
  <time>2026-09-01T19:51:09Z</time>
  <course>74.27</course>
  <speed>0.4</speed>
  <fix>3d</fix>
</trkpt>
<trkpt lat="-27.2744373" lon="151.2900559">
  <ele>357.96</ele>
  <time>2026-09-01T19:51:09Z</time>
  <course>161.14</course>
  <speed>0.4295346318982906</speed>
  <fix>3d</fix>
</trkpt>
<trkpt lat="-27.2744373" lon="151.2900553">
  <ele>358.13</ele>
  <time>2026-09-01T19:51:09Z</time>
  <course>74.72</course>
  <speed>0.4</speed>
  <fix>3d</fix>
</trkpt>
<trkpt lat="-27.2744372" lon="151.2900563">
  <ele>357.96</ele>
  <time>2026-09-01T19:51:09Z</time>
  <course>160.01</course>
  <speed>0.4295346318982906</speed>
  <fix>3d</fix>
</trkpt>
<trkpt lat="-27.2744373" lon="151.2900553">
  <ele>358.13</ele>
  <time>2026-09-01T19:51:09Z</time>
  <course>74.72</course>
  <speed>0.4</speed>
  <fix>3d</fix>
</trkpt>
<trkpt lat="-27.2744371" lon="151.2900567">
  <ele>357.96</ele>
  <time>2026-09-01T19:51:09Z</time>
  <course>159.05</course>
  <speed>0.4295346318982906</speed>
  <fix>3d</fix>
</trkpt>
<trkpt lat="-27.2744371" lon="151.290056">
  <ele>358.13</ele>
  <time>2026-09-01T19:51:09Z</time>
  <course>75.13</course>
  <speed>0.41</speed>
  <fix>3d</fix>
</trkpt>
<trkpt lat="-27.274437" lon="151.2900571">
  <ele>357.96</ele>
  <time>2026-09-01T19:51:09Z</time>
  <course>158.31</course>
  <speed>0.4393176527297759</speed>
  <fix>3d</fix>
</trkpt>
<trkpt lat="-27.2744371" lon="151.290056">
  <ele>358.13</ele>
  <time>2026-09-01T19:51:09Z</time>
  <course>75.13</course>
  <speed>0.41</speed>
  <fix>3d</fix>
</trkpt>
<trkpt lat="-27.274437" lon="151.2900575">
  <ele>357.96</ele>
  <time>2026-09-01T19:51:09Z</time>
  <course>157.19</course>
  <speed>0.4393176527297759</speed>
  <fix>3d</fix>
</trkpt>
<trkpt lat="-27.2744369" lon="151.2900569">
  <ele>358.13</ele>
  <time>2026-09-01T19:51:09Z</time>
  <course>75.56</course>
  <speed>0.42</speed>
  <fix>3d</fix>
</trkpt>
<trkpt lat="-27.2744369" lon="151.2900579">
  <ele>357.96</ele>
  <time>2026-09-01T19:51:09Z</time>
  <course>155.77</course>
  <speed>0.4393176527297759</speed>
  <fix>3d</fix>
</trkpt>
<trkpt lat="-27.2744369" lon="151.2900569">
  <ele>358.13</ele>
  <time>2026-09-01T19:51:09Z</time>
  <course>75.56</course>
  <speed>0.42</speed>
  <fix>3d</fix>
</trkpt>
<trkpt lat="-27.2744368" lon="151.2900583">
  <ele>357.96</ele>
  <time>2026-09-01T19:51:09Z</time>
  <course>154.26</course>
  <speed>0.447213595499958</speed>
  <fix>3d</fix>
</trkpt>
<trkpt lat="-27.2744367" lon="151.2900577">
  <ele>358.13</ele>
  <time>2026-09-01T19:51:09Z</time>
  <course>75.98</course>
  <speed>0.42</speed>
  <fix>3d</fix>
</trkpt>
<trkpt lat="-27.2744367" lon="151.2900588">
  <ele>357.95</ele>
  <time>2026-09-01T19:51:09Z</time>
  <course>152.74</course>
  <speed>0.447213595499958</speed>
  <fix>3d</fix>
</trkpt>
<trkpt lat="-27.2744367" lon="151.2900577">
  <ele>358.13</ele>
  <time>2026-09-01T19:51:09Z</time>
  <course>75.98</course>
  <speed>0.42</speed>
  <fix>3d</fix>
</trkpt>
<trkpt lat="-27.2744366" lon="151.2900592">
  <ele>357.95</ele>
  <time>2026-09-01T19:51:09Z</time>
  <course>151.23</course>
  <speed>0.447213595499958</speed>
  <fix>3d</fix>
</trkpt>
<trkpt lat="-27.2744365" lon="151.2900586">
  <ele>358.12</ele>
  <time>2026-09-01T19:51:09Z</time>
  <course>76.37</course>
  <speed>0.43</speed>
  <fix>3d</fix>
</trkpt>
<trkpt lat="-27.2744365" lon="151.2900596">
  <ele>357.95</ele>
  <time>2026-09-01T19:51:09Z</time>
  <course>149.72</course>
  <speed>0.4570557952810576</speed>
  <fix>3d</fix>
</trkpt>
<trkpt lat="-27.2744365" lon="151.2900586">
  <ele>358.12</ele>
  <time>2026-09-01T19:51:09Z</time>
  <course>76.37</course>
  <speed>0.43</speed>
  <fix>3d</fix>
</trkpt>
<trkpt lat="-27.2744364" lon="151.29006">
  <ele>357.95</ele>
  <time>2026-09-01T19:51:09Z</time>
  <course>148.21</course>
  <speed>0.4570557952810576</speed>
  <fix>3d</fix>
</trkpt>
<trkpt lat="-27.2744363" lon="151.2900594">
  <ele>358.12</ele>
  <time>2026-09-01T19:51:09Z</time>
  <course>76.75</course>
  <speed>0.43</speed>
  <fix>3d</fix>
</trkpt>
<trkpt lat="-27.2744363" lon="151.2900605">
  <ele>357.96</ele>
  <time>2026-09-01T19:51:09Z</time>
  <course>146.7</course>
  <speed>0.4570557952810576</speed>
  <fix>3d</fix>
</trkpt>
<trkpt lat="-27.2744363" lon="151.2900594">
  <ele>358.12</ele>
  <time>2026-09-01T19:51:09Z</time>
  <course>76.75</course>
  <speed>0.43</speed>
  <fix>3d</fix>
</trkpt>
<trkpt lat="-27.2744362" lon="151.2900609">
  <ele>357.96</ele>
  <time>2026-09-01T19:51:09Z</time>
  <course>145.19</course>
  <speed>0.4570557952810576</speed>
  <fix>3d</fix>
</trkpt>
<trkpt lat="-27.2744361" lon="151.2900603">
  <ele>358.12</ele>
  <time>2026-09-01T19:51:09Z</time>
  <course>77.17</course>
  <speed>0.44</speed>
  <fix>3d</fix>
</trkpt>
<trkpt lat="-27.2744361" lon="151.2900614">
  <ele>357.96</ele>
  <time>2026-09-01T19:51:09Z</time>
  <course>143.68</course>
  <speed>0.4669047011971501</speed>
  <fix>3d</fix>
</trkpt>
<trkpt lat="-27.2744361" lon="151.2900603">
  <ele>358.12</ele>
  <time>2026-09-01T19:51:09Z</time>
  <course>77.17</course>
  <speed>0.44</speed>
  <fix>3d</fix>
</trkpt>
<trkpt lat="-27.2744361" lon="151.2900618">
  <ele>357.96</ele>
  <time>2026-09-01T19:51:09Z</time>
  <course>142.17</course>
  <speed>0.4669047011971501</speed>
  <fix>3d</fix>
</trkpt>
<trkpt lat="-27.274436" lon="151.2900612">
  <ele>358.12</ele>
  <time>2026-09-01T19:51:09Z</time>
  <course>77.61</course>
  <speed>0.44</speed>
  <fix>3d</fix>
</trkpt>
<trkpt lat="-27.274436" lon="151.2900622">
  <ele>357.96</ele>
  <time>2026-09-01T19:51:09Z</time>
  <course>140.66</course>
  <speed>0.4669047011971501</speed>
  <fix>3d</fix>
</trkpt>
<trkpt lat="-27.274436" lon="151.2900612">
  <ele>358.12</ele>
  <time>2026-09-01T19:51:09Z</time>
  <course>77.61</course>
  <speed>0.44</speed>
  <fix>3d</fix>
</trkpt>
<trkpt lat="-27.2744359" lon="151.2900627">
  <ele>357.95</ele>
  <time>2026-09-01T19:51:09Z</time>
  <course>139.15</course>
  <speed>0.4669047011971501</speed>
  <fix>3d</fix>
</trkpt>
<trkpt lat="-27.2744358" lon="151.290062">
  <ele>358.12</ele>
  <time>2026-09-01T19:51:09Z</time>
  <course>78.01</course>
  <speed>0.44</speed>
  <fix>3d</fix>
</trkpt>
<trkpt lat="-27.2744358" lon="151.2900631">
  <ele>357.95</ele>
  <time>2026-09-01T19:51:09Z</time>
  <course>137.65</course>
  <speed>0.4669047011971501</speed>
  <fix>3d</fix>
</trkpt>
<trkpt lat="-27.2744358" lon="151.290062">
  <ele>358.12</ele>
  <time>2026-09-01T19:51:09Z</time>
  <course>78.01</course>
  <speed>0.44</speed>
  <fix>3d</fix>
</trkpt>
<trkpt lat="-27.2744357" lon="151.2900636">
  <ele>357.95</ele>
  <time>2026-09-01T19:51:09Z</time>
  <course>136.15</course>
  <speed>0.4751841748206689</speed>
  <fix>3d</fix>
</trkpt>
<trkpt lat="-27.2744356" lon="151.2900629">
  <ele>358.12</ele>
  <time>2026-09-01T19:51:09Z</time>
  <course>78.37</course>
  <speed>0.45</speed>
  <fix>3d</fix>
</trkpt>
<trkpt lat="-27.2744356" lon="151.290064">
  <ele>357.95</ele>
  <time>2026-09-01T19:51:09Z</time>
  <course>134.64</course>
  <speed>0.4751841748206689</speed>
  <fix>3d</fix>
</trkpt>
<trkpt lat="-27.2744356" lon="151.2900629">
  <ele>358.12</ele>
  <time>2026-09-01T19:51:09Z</time>
  <course>78.37</course>
  <speed>0.45</speed>
  <fix>3d</fix>
</trkpt>
<trkpt lat="-27.2744355" lon="151.2900645">
  <ele>357.95</ele>
  <time>2026-09-01T19:51:09Z</time>
  <course>133.13</course>
  <speed>0.4751841748206689</speed>
  <fix>3d</fix>
</trkpt>
<trkpt lat="-27.2744355" lon="151.2900638">
  <ele>358.12</ele>
  <time>2026-09-01T19:51:09Z</time>
  <course>78.69</course>
  <speed>0.45</speed>
  <fix>3d</fix>
</trkpt>
<trkpt lat="-27.2744355" lon="151.2900649">
  <ele>357.96</ele>
  <time>2026-09-01T19:51:09Z</time>
  <course>131.61</course>
  <speed>0.4751841748206689</speed>
  <fix>3d</fix>
</trkpt>
<trkpt lat="-27.2744355" lon="151.2900638">
  <ele>358.12</ele>
  <time>2026-09-01T19:51:09Z</time>
  <course>78.69</course>
  <speed>0.45</speed>
  <fix>3d</fix>
</trkpt>
<trkpt lat="-27.2744354" lon="151.2900654">
  <ele>357.96</ele>
  <time>2026-09-01T19:51:09Z</time>
  <course>130.1</course>
  <speed>0.4751841748206689</speed>
  <fix>3d</fix>
</trkpt>
<trkpt lat="-27.2744353" lon="151.2900647">
  <ele>358.12</ele>
  <time>2026-09-01T19:51:09Z</time>
  <course>79.0</course>
  <speed>0.45</speed>
  <fix>3d</fix>
</trkpt>
<trkpt lat="-27.2744353" lon="151.2900659">
  <ele>357.96</ele>
  <time>2026-09-01T19:51:09Z</time>
  <course>128.63</course>
  <speed>0.4850773134253961</speed>
  <fix>3d</fix>
</trkpt>
<trkpt lat="-27.2744353" lon="151.2900647">
  <ele>358.12</ele>
  <time>2026-09-01T19:51:09Z</time>
  <course>79.0</course>
  <speed>0.45</speed>
  <fix>3d</fix>
</trkpt>
<trkpt lat="-27.2744352" lon="151.2900663">
  <ele>357.96</ele>
  <time>2026-09-01T19:51:09Z</time>
  <course>127.43</course>
  <speed>0.4850773134253961</speed>
  <fix>3d</fix>
</trkpt>
<trkpt lat="-27.2744352" lon="151.2900656">
  <ele>358.12</ele>
  <time>2026-09-01T19:51:09Z</time>
  <course>79.34</course>
  <speed>0.46</speed>
  <fix>3d</fix>
</trkpt>
<trkpt lat="-27.2744352" lon="151.2900668">
  <ele>357.96</ele>
  <time>2026-09-01T19:51:09Z</time>
  <course>126.78</course>
  <speed>0.4751841748206689</speed>
  <fix>3d</fix>
</trkpt>
<trkpt lat="-27.2744352" lon="151.2900656">
  <ele>358.12</ele>
  <time>2026-09-01T19:51:09Z</time>
  <course>79.34</course>
  <speed>0.46</speed>
  <fix>3d</fix>
</trkpt>
<trkpt lat="-27.2744351" lon="151.2900672">
  <ele>357.96</ele>
  <time>2026-09-01T19:51:09Z</time>
  <course>126.64</course>
  <speed>0.4738143096192854</speed>
  <fix>3d</fix>
</trkpt>
<trkpt lat="-27.274435" lon="151.2900666">
  <ele>358.12</ele>
  <time>2026-09-01T19:51:09Z</time>
  <course>79.76</course>
  <speed>0.45</speed>
  <fix>3d</fix>
</trkpt>
<trkpt lat="-27.274435" lon="151.2900677">
  <ele>357.96</ele>
  <time>2026-09-01T19:51:09Z</time>
  <course>126.92</course>
  <speed>0.4738143096192854</speed>
  <fix>3d</fix>
</trkpt>
<trkpt lat="-27.274435" lon="151.2900666">
  <ele>358.12</ele>
  <time>2026-09-01T19:51:09Z</time>
  <course>79.76</course>
  <speed>0.45</speed>
  <fix>3d</fix>
</trkpt>
<trkpt lat="-27.2744349" lon="151.2900681">
  <ele>357.96</ele>
  <time>2026-09-01T19:51:09Z</time>
  <course>127.49</course>
  <speed>0.46389654018972803</speed>
  <fix>3d</fix>
</trkpt>
<trkpt lat="-27.2744349" lon="151.2900675">
  <ele>358.12</ele>
  <time>2026-09-01T19:51:09Z</time>
  <course>80.28</course>
  <speed>0.45</speed>
  <fix>3d</fix>
</trkpt>
<trkpt lat="-27.2744349" lon="151.2900686">
  <ele>357.96</ele>
  <time>2026-09-01T19:51:09Z</time>
  <course>128.22</course>
  <speed>0.46389654018972803</speed>
  <fix>3d</fix>
</trkpt>
<trkpt lat="-27.2744349" lon="151.2900675">
  <ele>358.12</ele>
  <time>2026-09-01T19:51:09Z</time>
  <course>80.28</course>
  <speed>0.45</speed>
  <fix>3d</fix>
</trkpt>
<trkpt lat="-27.2744348" lon="151.290069">
  <ele>357.96</ele>
  <time>2026-09-01T19:51:09Z</time>
  <course>128.96</course>
  <speed>0.45276925690687087</speed>
  <fix>3d</fix>
</trkpt>
<trkpt lat="-27.2744347" lon="151.2900684">
  <ele>358.12</ele>
  <time>2026-09-01T19:51:09Z</time>
  <course>80.88</course>
  <speed>0.43</speed>
  <fix>3d</fix>
</trkpt>
<trkpt lat="-27.2744348" lon="151.2900694">
  <ele>357.95</ele>
  <time>2026-09-01T19:51:09Z</time>
  <course>129.6</course>
  <speed>0.4428317965096906</speed>
  <fix>3d</fix>
</trkpt>
<trkpt lat="-27.2744347" lon="151.2900684">
  <ele>358.12</ele>
  <time>2026-09-01T19:51:09Z</time>
  <course>80.88</course>
  <speed>0.43</speed>
  <fix>3d</fix>
</trkpt>
<trkpt lat="-27.2744347" lon="151.2900699">
  <ele>357.95</ele>
  <time>2026-09-01T19:51:09Z</time>
  <course>130.08</course>
  <speed>0.4428317965096906</speed>
  <fix>3d</fix>
</trkpt>
<trkpt lat="-27.2744346" lon="151.2900693">
  <ele>358.11</ele>
  <time>2026-09-01T19:51:09Z</time>
  <course>81.54</course>
  <speed>0.42</speed>
  <fix>3d</fix>
</trkpt>
<trkpt lat="-27.2744346" lon="151.2900703">
  <ele>357.95</ele>
  <time>2026-09-01T19:51:09Z</time>
  <course>130.36</course>
  <speed>0.43185645763378366</speed>
  <fix>3d</fix>
</trkpt>
<trkpt lat="-27.2744346" lon="151.2900693">
  <ele>358.11</ele>
  <time>2026-09-01T19:51:09Z</time>
  <course>81.54</course>
  <speed>0.42</speed>
  <fix>3d</fix>
</trkpt>
<trkpt lat="-27.2744346" lon="151.2900707">
  <ele>357.95</ele>
  <time>2026-09-01T19:51:09Z</time>
  <course>130.44</course>
  <speed>0.4219004621945798</speed>
  <fix>3d</fix>
</trkpt>
<trkpt lat="-27.2744345" lon="151.29007">
  <ele>358.11</ele>
  <time>2026-09-01T19:51:09Z</time>
  <course>82.29</course>
  <speed>0.4</speed>
  <fix>3d</fix>
</trkpt>
<trkpt lat="-27.2744345" lon="151.2900711">
  <ele>357.94</ele>
  <time>2026-09-01T19:51:09Z</time>
  <course>130.38</course>
  <speed>0.41109609582188933</speed>
  <fix>3d</fix>
</trkpt>
<trkpt lat="-27.2744345" lon="151.29007">
  <ele>358.11</ele>
  <time>2026-09-01T19:51:09Z</time>
  <course>82.29</course>
  <speed>0.4</speed>
  <fix>3d</fix>
</trkpt>
<trkpt lat="-27.2744345" lon="151.2900715">
  <ele>357.94</ele>
  <time>2026-09-01T19:51:09Z</time>
  <course>131.15</course>
  <speed>0.4011234224026316</speed>
  <fix>3d</fix>
</trkpt>
<trkpt lat="-27.2744344" lon="151.2900709">
  <ele>358.11</ele>
  <time>2026-09-01T19:51:09Z</time>
  <course>83.13</course>
  <speed>0.39</speed>
  <fix>3d</fix>
</trkpt>
<trkpt lat="-27.2744345" lon="151.2900718">
  <ele>357.94</ele>
  <time>2026-09-01T19:51:09Z</time>
  <course>132.92</course>
  <speed>0.3911521443121589</speed>
  <fix>3d</fix>
</trkpt>
<trkpt lat="-27.2744344" lon="151.2900709">
  <ele>358.11</ele>
  <time>2026-09-01T19:51:09Z</time>
  <course>83.13</course>
  <speed>0.39</speed>
  <fix>3d</fix>
</trkpt>
<trkpt lat="-27.2744344" lon="151.2900722">
  <ele>357.94</ele>
  <time>2026-09-01T19:51:09Z</time>
  <course>134.97</course>
  <speed>0.3905124837953327</speed>
  <fix>3d</fix>
</trkpt>
<trkpt lat="-27.2744343" lon="151.2900717">
  <ele>358.11</ele>
  <time>2026-09-01T19:51:09Z</time>
  <course>84.03</course>
  <speed>0.37</speed>
  <fix>3d</fix>
</trkpt>
<trkpt lat="-27.2744344" lon="151.2900726">
  <ele>357.94</ele>
  <time>2026-09-01T19:51:09Z</time>
  <course>137.07</course>
  <speed>0.38052595180880894</speed>
  <fix>3d</fix>
</trkpt>
<trkpt lat="-27.2744343" lon="151.2900717">
  <ele>358.11</ele>
  <time>2026-09-01T19:51:09Z</time>
  <course>84.03</course>
  <speed>0.37</speed>
  <fix>3d</fix>
</trkpt>
<trkpt lat="-27.2744344" lon="151.2900729">
  <ele>357.94</ele>
  <time>2026-09-01T19:51:09Z</time>
  <course>139.15</course>
  <speed>0.3705401462729781</speed>
  <fix>3d</fix>
</trkpt>
<trkpt lat="-27.2744343" lon="151.2900724">
  <ele>358.11</ele>
  <time>2026-09-01T19:51:09Z</time>
  <course>84.98</course>
  <speed>0.35</speed>
  <fix>3d</fix>
</trkpt>
<trkpt lat="-27.2744343" lon="151.2900733">
  <ele>357.94</ele>
  <time>2026-09-01T19:51:09Z</time>
  <course>140.95</course>
  <speed>0.36013886210738216</speed>
  <fix>3d</fix>
</trkpt>
<trkpt lat="-27.2744343" lon="151.2900724">
  <ele>358.11</ele>
  <time>2026-09-01T19:51:09Z</time>
  <course>84.98</course>
  <speed>0.35</speed>
  <fix>3d</fix>
</trkpt>
<trkpt lat="-27.2744343" lon="151.2900736">
  <ele>357.94</ele>
  <time>2026-09-01T19:51:09Z</time>
  <course>142.04</course>
  <speed>0.35014282800023194</speed>
  <fix>3d</fix>
</trkpt>
<trkpt lat="-27.2744342" lon="151.2900731">
  <ele>358.11</ele>
  <time>2026-09-01T19:51:09Z</time>
  <course>85.97</course>
  <speed>0.33</speed>
  <fix>3d</fix>
</trkpt>
<trkpt lat="-27.2744343" lon="151.2900739">
  <ele>357.95</ele>
  <time>2026-09-01T19:51:09Z</time>
  <course>142.33</course>
  <speed>0.340147027033899</speed>
  <fix>3d</fix>
</trkpt>
<trkpt lat="-27.2744342" lon="151.2900731">
  <ele>358.11</ele>
  <time>2026-09-01T19:51:09Z</time>
  <course>85.97</course>
  <speed>0.33</speed>
  <fix>3d</fix>
</trkpt>
<trkpt lat="-27.2744343" lon="151.2900743">
  <ele>357.95</ele>
  <time>2026-09-01T19:51:09Z</time>
  <course>141.94</course>
  <speed>0.33</speed>
  <fix>3d</fix>
</trkpt>
<trkpt lat="-27.2744342" lon="151.2900738">
  <ele>358.12</ele>
  <time>2026-09-01T19:51:09Z</time>
  <course>87.14</course>
  <speed>0.31</speed>
  <fix>3d</fix>
</trkpt>
<trkpt lat="-27.2744343" lon="151.2900746">
  <ele>357.95</ele>
  <time>2026-09-01T19:51:09Z</time>
  <course>141.05</course>
  <speed>0.32</speed>
  <fix>3d</fix>
</trkpt>
<trkpt lat="-27.2744342" lon="151.2900738">
  <ele>358.12</ele>
  <time>2026-09-01T19:51:09Z</time>
  <course>87.14</course>
  <speed>0.31</speed>
  <fix>3d</fix>
</trkpt>
<trkpt lat="-27.2744343" lon="151.2900749">
  <ele>357.96</ele>
  <time>2026-09-01T19:51:09Z</time>
  <course>139.94</course>
  <speed>0.31</speed>
  <fix>3d</fix>
</trkpt>
<trkpt lat="-27.2744342" lon="151.2900743">
  <ele>358.12</ele>
  <time>2026-09-01T19:51:09Z</time>
  <course>88.62</course>
  <speed>0.29</speed>
  <fix>3d</fix>
</trkpt>
<trkpt lat="-27.2744343" lon="151.2900751">
  <ele>357.96</ele>
  <time>2026-09-01T19:51:09Z</time>
  <course>138.78</course>
  <speed>0.3</speed>
  <fix>3d</fix>
</trkpt>
<trkpt lat="-27.2744342" lon="151.2900743">
  <ele>358.12</ele>
  <time>2026-09-01T19:51:09Z</time>
  <course>88.62</course>
  <speed>0.29</speed>
  <fix>3d</fix>
</trkpt>
<trkpt lat="-27.2744343" lon="151.2900754">
  <ele>357.96</ele>
  <time>2026-09-01T19:51:09Z</time>
  <course>137.75</course>
  <speed>0.280178514522438</speed>
  <fix>3d</fix>
</trkpt>
<trkpt lat="-27.2744342" lon="151.2900749">
  <ele>358.12</ele>
  <time>2026-09-01T19:51:09Z</time>
  <course>90.42</course>
  <speed>0.27</speed>
  <fix>3d</fix>
</trkpt>
<trkpt lat="-27.2744343" lon="151.2900757">
  <ele>357.96</ele>
  <time>2026-09-01T19:51:09Z</time>
  <course>137.0</course>
  <speed>0.27018512172212594</speed>
  <fix>3d</fix>
</trkpt>
<trkpt lat="-27.2744342" lon="151.2900749">
  <ele>358.12</ele>
  <time>2026-09-01T19:51:09Z</time>
  <course>90.42</course>
  <speed>0.27</speed>
  <fix>3d</fix>
</trkpt>
<trkpt lat="-27.2744343" lon="151.2900759">
  <ele>357.96</ele>
  <time>2026-09-01T19:51:09Z</time>
  <course>136.02</course>
  <speed>0.2601922366251538</speed>
  <fix>3d</fix>
</trkpt>
<trkpt lat="-27.2744342" lon="151.2900754">
  <ele>358.12</ele>
  <time>2026-09-01T19:51:09Z</time>
  <course>92.5</course>
  <speed>0.24</speed>
  <fix>3d</fix>
</trkpt>
<trkpt lat="-27.2744343" lon="151.2900761">
  <ele>357.95</ele>
  <time>2026-09-01T19:51:09Z</time>
  <course>134.62</course>
  <speed>0.25079872407968906</speed>
  <fix>3d</fix>
</trkpt>
<trkpt lat="-27.2744342" lon="151.2900754">
  <ele>358.12</ele>
  <time>2026-09-01T19:51:09Z</time>
  <course>92.5</course>
  <speed>0.24</speed>
  <fix>3d</fix>
</trkpt>
<trkpt lat="-27.2744343" lon="151.2900764">
  <ele>357.95</ele>
  <time>2026-09-01T19:51:09Z</time>
  <course>133.11</course>
  <speed>0.2308679276123039</speed>
  <fix>3d</fix>
</trkpt>
<trkpt lat="-27.2744342" lon="151.2900759">
  <ele>358.12</ele>
  <time>2026-09-01T19:51:09Z</time>
  <course>94.95</course>
  <speed>0.22</speed>
  <fix>3d</fix>
</trkpt>
<trkpt lat="-27.2744343" lon="151.2900766">
  <ele>357.95</ele>
  <time>2026-09-01T19:51:09Z</time>
  <course>131.59</course>
  <speed>0.2220360331117452</speed>
  <fix>3d</fix>
</trkpt>
<trkpt lat="-27.2744342" lon="151.2900759">
  <ele>358.12</ele>
  <time>2026-09-01T19:51:09Z</time>
  <course>94.95</course>
  <speed>0.22</speed>
  <fix>3d</fix>
</trkpt>
<trkpt lat="-27.2744343" lon="151.2900768">
  <ele>357.95</ele>
  <time>2026-09-01T19:51:09Z</time>
  <course>130.08</course>
  <speed>0.21213203435596426</speed>
  <fix>3d</fix>
</trkpt>
<trkpt lat="-27.2744342" lon="151.2900763">
  <ele>358.12</ele>
  <time>2026-09-01T19:51:09Z</time>
  <course>97.9</course>
  <speed>0.19</speed>
  <fix>3d</fix>
</trkpt>
<trkpt lat="-27.2744343" lon="151.2900769">
  <ele>357.95</ele>
  <time>2026-09-01T19:51:09Z</time>
  <course>128.6</course>
  <speed>0.20223748416156684</speed>
  <fix>3d</fix>
</trkpt>
<trkpt lat="-27.2744342" lon="151.2900763">
  <ele>358.12</ele>
  <time>2026-09-01T19:51:09Z</time>
  <course>97.9</course>
  <speed>0.19</speed>
  <fix>3d</fix>
</trkpt>
<trkpt lat="-27.2744343" lon="151.2900771">
  <ele>357.95</ele>
  <time>2026-09-01T19:51:09Z</time>
  <course>127.09</course>
  <speed>0.18439088914585774</speed>
  <fix>3d</fix>
</trkpt>
<trkpt lat="-27.2744342" lon="151.2900767">
  <ele>358.12</ele>
  <time>2026-09-01T19:51:09Z</time>
  <course>101.59</course>
  <speed>0.17</speed>
  <fix>3d</fix>
</trkpt>
<trkpt lat="-27.2744344" lon="151.2900773">
  <ele>357.95</ele>
  <time>2026-09-01T19:51:09Z</time>
  <course>125.58</course>
  <speed>0.17464249196572978</speed>
  <fix>3d</fix>
</trkpt>
<trkpt lat="-27.2744342" lon="151.2900767">
  <ele>358.12</ele>
  <time>2026-09-01T19:51:09Z</time>
  <course>101.59</course>
  <speed>0.17</speed>
  <fix>3d</fix>
</trkpt>
<trkpt lat="-27.2744344" lon="151.2900774">
  <ele>357.95</ele>
  <time>2026-09-01T19:51:09Z</time>
  <course>124.07</course>
  <speed>0.1649242250247064</speed>
  <fix>3d</fix>
</trkpt>
<trkpt lat="-27.2744343" lon="151.290077">
  <ele>358.12</ele>
  <time>2026-09-01T19:51:09Z</time>
  <course>106.44</course>
  <speed>0.15</speed>
  <fix>3d</fix>
</trkpt>
<trkpt lat="-27.2744344" lon="151.2900775">
  <ele>357.95</ele>
  <time>2026-09-01T19:51:09Z</time>
  <course>122.57</course>
  <speed>0.14866068747318506</speed>
  <fix>3d</fix>
</trkpt>
<trkpt lat="-27.2744343" lon="151.290077">
  <ele>358.12</ele>
  <time>2026-09-01T19:51:09Z</time>
  <course>106.44</course>
  <speed>0.15</speed>
  <fix>3d</fix>
</trkpt>
<trkpt lat="-27.2744345" lon="151.2900776">
  <ele>357.95</ele>
  <time>2026-09-01T19:51:09Z</time>
  <course>121.05</course>
  <speed>0.1392838827718412</speed>
  <fix>3d</fix>
</trkpt>
<trkpt lat="-27.2744343" lon="151.2900773">
  <ele>358.12</ele>
  <time>2026-09-01T19:51:09Z</time>
  <course>113.06</course>
  <speed>0.12</speed>
  <fix>3d</fix>
</trkpt>
<trkpt lat="-27.2744345" lon="151.2900777">
  <ele>357.95</ele>
  <time>2026-09-01T19:51:09Z</time>
  <course>119.53</course>
  <speed>0.13</speed>
  <fix>3d</fix>
</trkpt>
<trkpt lat="-27.2744343" lon="151.2900773">
  <ele>358.12</ele>
  <time>2026-09-01T19:51:09Z</time>
  <course>113.06</course>
  <speed>0.12</speed>
  <fix>3d</fix>
</trkpt>
<trkpt lat="-27.2744345" lon="151.2900778">
  <ele>357.95</ele>
  <time>2026-09-01T19:51:09Z</time>
  <course>118.02</course>
  <speed>0.11661903789690602</speed>
  <fix>3d</fix>
</trkpt>
<trkpt lat="-27.2744344" lon="151.2900776">
  <ele>358.12</ele>
  <time>2026-09-01T19:51:09Z</time>
  <course>122.34</course>
  <speed>0.1</speed>
  <fix>3d</fix>
</trkpt>
<trkpt lat="-27.2744346" lon="151.2900779">
  <ele>357.95</ele>
  <time>2026-09-01T19:51:09Z</time>
  <course>116.49</course>
  <speed>0.10816653826391968</speed>
  <fix>3d</fix>
</trkpt>
<trkpt lat="-27.2744344" lon="151.2900776">
  <ele>358.12</ele>
  <time>2026-09-01T19:51:09Z</time>
  <course>122.34</course>
  <speed>0.1</speed>
  <fix>3d</fix>
</trkpt>
<trkpt lat="-27.2744346" lon="151.290078">
  <ele>357.95</ele>
  <time>2026-09-01T19:51:09Z</time>
  <course>114.97</course>
  <speed>0.1</speed>
  <fix>3d</fix>
</trkpt>
<trkpt lat="-27.2744345" lon="151.2900777">
  <ele>358.12</ele>
  <time>2026-09-01T19:51:09Z</time>
  <course>135.51</course>
  <speed>0.09</speed>
  <fix>3d</fix>
</trkpt>
<trkpt lat="-27.2744347" lon="151.290078">
  <ele>357.94</ele>
  <time>2026-09-01T19:51:09Z</time>
  <course>113.45</course>
  <speed>0.0848528137423857</speed>
  <fix>3d</fix>
</trkpt>
<trkpt lat="-27.2744345" lon="151.2900777">
  <ele>358.12</ele>
  <time>2026-09-01T19:51:09Z</time>
  <course>135.51</course>
  <speed>0.09</speed>
  <fix>3d</fix>
</trkpt>
<trkpt lat="-27.2744347" lon="151.2900781">
  <ele>357.94</ele>
  <time>2026-09-01T19:51:09Z</time>
  <course>111.88</course>
  <speed>0.08602325267042626</speed>
  <fix>3d</fix>
</trkpt>
<trkpt lat="-27.2744347" lon="151.2900778">
  <ele>358.12</ele>
  <time>2026-09-01T19:51:09Z</time>
  <course>153.44</course>
  <speed>0.08</speed>
  <fix>3d</fix>
</trkpt>
<trkpt lat="-27.2744348" lon="151.2900781">
  <ele>357.94</ele>
  <time>2026-09-01T19:51:09Z</time>
  <course>110.38</course>
  <speed>0.07615773105863909</speed>
  <fix>3d</fix>
</trkpt>
<trkpt lat="-27.2744347" lon="151.2900778">
  <ele>358.12</ele>
  <time>2026-09-01T19:51:09Z</time>
  <course>153.44</course>
  <speed>0.08</speed>
  <fix>3d</fix>
</trkpt>
<trkpt lat="-27.2744349" lon="151.2900781">
  <ele>357.94</ele>
  <time>2026-09-01T19:51:09Z</time>
  <course>108.86</course>
  <speed>0.07280109889280519</speed>
  <fix>3d</fix>
</trkpt>
<trkpt lat="-27.2744348" lon="151.2900779">
  <ele>358.13</ele>
  <time>2026-09-01T19:51:09Z</time>
  <course>174.21</course>
  <speed>0.08</speed>
  <fix>3d</fix>
</trkpt>
<trkpt lat="-27.2744349" lon="151.2900781">
  <ele>357.94</ele>
  <time>2026-09-01T19:51:09Z</time>
  <course>107.35</course>
  <speed>0.08062257748298549</speed>
  <fix>3d</fix>
</trkpt>
<trkpt lat="-27.2744348" lon="151.2900779">
  <ele>358.13</ele>
  <time>2026-09-01T19:51:09Z</time>
  <course>174.21</course>
  <speed>0.08</speed>
  <fix>3d</fix>
</trkpt>
<trkpt lat="-27.274435" lon="151.2900781">
  <ele>357.94</ele>
  <time>2026-09-01T19:51:09Z</time>
  <course>106.06</course>
  <speed>0.08</speed>
  <fix>3d</fix>
</trkpt>
<trkpt lat="-27.2744349" lon="151.2900779">
  <ele>358.13</ele>
  <time>2026-09-01T19:51:09Z</time>
  <course>193.1</course>
  <speed>0.08</speed>
  <fix>3d</fix>
</trkpt>
<trkpt lat="-27.2744351" lon="151.290078">
  <ele>357.94</ele>
  <time>2026-09-01T19:51:09Z</time>
  <course>105.24</course>
  <speed>0.08062257748298549</speed>
  <fix>3d</fix>
</trkpt>
<trkpt lat="-27.2744349" lon="151.2900779">
  <ele>358.13</ele>
  <time>2026-09-01T19:51:09Z</time>
  <course>193.1</course>
  <speed>0.08</speed>
  <fix>3d</fix>
</trkpt>
<trkpt lat="-27.2744352" lon="151.290078">
  <ele>357.94</ele>
  <time>2026-09-01T19:51:09Z</time>
  <course>104.96</course>
  <speed>0.09486832980505139</speed>
  <fix>3d</fix>
</trkpt>
<trkpt lat="-27.2744351" lon="151.2900778">
  <ele>358.13</ele>
  <time>2026-09-01T19:51:09Z</time>
  <course>207.17</course>
  <speed>0.1</speed>
  <fix>3d</fix>
</trkpt>
<trkpt lat="-27.2744352" lon="151.2900779">
  <ele>357.95</ele>
  <time>2026-09-01T19:51:09Z</time>
  <course>105.17</course>
  <speed>0.09848857801796104</speed>
  <fix>3d</fix>
</trkpt>
<trkpt lat="-27.2744351" lon="151.2900778">
  <ele>358.13</ele>
  <time>2026-09-01T19:51:09Z</time>
  <course>207.17</course>
  <speed>0.1</speed>
  <fix>3d</fix>
</trkpt>
<trkpt lat="-27.2744353" lon="151.2900779">
  <ele>357.95</ele>
  <time>2026-09-01T19:51:09Z</time>
  <course>105.73</course>
  <speed>0.10295630140987001</speed>
  <fix>3d</fix>
</trkpt>
<trkpt lat="-27.2744353" lon="151.2900777">
  <ele>358.13</ele>
  <time>2026-09-01T19:51:09Z</time>
  <course>216.82</course>
  <speed>0.12</speed>
  <fix>3d</fix>
</trkpt>
<trkpt lat="-27.2744354" lon="151.2900778">
  <ele>357.95</ele>
  <time>2026-09-01T19:51:09Z</time>
  <course>106.48</course>
  <speed>0.12206555615733702</speed>
  <fix>3d</fix>
</trkpt>
<trkpt lat="-27.2744353" lon="151.2900777">
  <ele>358.13</ele>
  <time>2026-09-01T19:51:09Z</time>
  <course>216.82</course>
  <speed>0.12</speed>
  <fix>3d</fix>
</trkpt>
<trkpt lat="-27.2744355" lon="151.2900777">
  <ele>357.95</ele>
  <time>2026-09-01T19:51:09Z</time>
  <course>107.29</course>
  <speed>0.12806248474865697</speed>
  <fix>3d</fix>
</trkpt>
<trkpt lat="-27.2744355" lon="151.2900776">
  <ele>358.13</ele>
  <time>2026-09-01T19:51:09Z</time>
  <course>223.38</course>
  <speed>0.14</speed>
  <fix>3d</fix>
</trkpt>
<trkpt lat="-27.2744356" lon="151.2900776">
  <ele>357.95</ele>
  <time>2026-09-01T19:51:09Z</time>
  <course>108.03</course>
  <speed>0.1345362404707371</speed>
  <fix>3d</fix>
</trkpt>
<trkpt lat="-27.2744355" lon="151.2900776">
  <ele>358.13</ele>
  <time>2026-09-01T19:51:09Z</time>
  <course>223.38</course>
  <speed>0.14</speed>
  <fix>3d</fix>
</trkpt>
<trkpt lat="-27.2744357" lon="151.2900775">
  <ele>357.96</ele>
  <time>2026-09-01T19:51:09Z</time>
  <course>108.59</course>
  <speed>0.14866068747318506</speed>
  <fix>3d</fix>
</trkpt>
<trkpt lat="-27.2744357" lon="151.2900773">
  <ele>358.14</ele>
  <time>2026-09-01T19:51:09Z</time>
  <course>227.79</course>
  <speed>0.17</speed>
  <fix>3d</fix>
</trkpt>
<trkpt lat="-27.2744358" lon="151.2900773">
  <ele>357.96</ele>
  <time>2026-09-01T19:51:09Z</time>
  <course>108.93</course>
  <speed>0.15556349186104046</speed>
  <fix>3d</fix>
</trkpt>
<trkpt lat="-27.2744357" lon="151.2900773">
  <ele>358.14</ele>
  <time>2026-09-01T19:51:09Z</time>
  <course>227.79</course>
  <speed>0.17</speed>
  <fix>3d</fix>
</trkpt>
<trkpt lat="-27.2744359" lon="151.2900772">
  <ele>357.96</ele>
  <time>2026-09-01T19:51:09Z</time>
  <course>109.06</course>
  <speed>0.16278820596099705</speed>
  <fix>3d</fix>
</trkpt>
<trkpt lat="-27.2744359" lon="151.290077">
  <ele>358.14</ele>
  <time>2026-09-01T19:51:09Z</time>
  <course>230.54</course>
  <speed>0.19</speed>
  <fix>3d</fix>
</trkpt>
<trkpt lat="-27.274436" lon="151.290077">
  <ele>357.96</ele>
  <time>2026-09-01T19:51:09Z</time>
  <course>108.99</course>
  <speed>0.1769180601295413</speed>
  <fix>3d</fix>
</trkpt>
<trkpt lat="-27.2744359" lon="151.290077">
  <ele>358.14</ele>
  <time>2026-09-01T19:51:09Z</time>
  <course>230.54</course>
  <speed>0.19</speed>
  <fix>3d</fix>
</trkpt>
<trkpt lat="-27.2744362" lon="151.2900769">
  <ele>357.96</ele>
  <time>2026-09-01T19:51:09Z</time>
  <course>109.35</course>
  <speed>0.18439088914585774</speed>
  <fix>3d</fix>
</trkpt>
<trkpt lat="-27.2744361" lon="151.2900767">
  <ele>358.14</ele>
  <time>2026-09-01T19:51:09Z</time>
  <course>232.05</course>
  <speed>0.21</speed>
  <fix>3d</fix>
</trkpt>
<trkpt lat="-27.2744363" lon="151.2900767">
  <ele>357.96</ele>
  <time>2026-09-01T19:51:09Z</time>
  <course>110.89</course>
  <speed>0.19849433241279207</speed>
  <fix>3d</fix>
</trkpt>
<trkpt lat="-27.2744361" lon="151.2900767">
  <ele>358.14</ele>
  <time>2026-09-01T19:51:09Z</time>
  <course>232.05</course>
  <speed>0.21</speed>
  <fix>3d</fix>
</trkpt>
<trkpt lat="-27.2744364" lon="151.2900765">
  <ele>357.96</ele>
  <time>2026-09-01T19:51:09Z</time>
  <course>112.99</course>
  <speed>0.20615528128088303</speed>
  <fix>3d</fix>
</trkpt>
<trkpt lat="-27.2744364" lon="151.2900763">
  <ele>358.14</ele>
  <time>2026-09-01T19:51:09Z</time>
  <course>232.68</course>
  <speed>0.23</speed>
  <fix>3d</fix>
</trkpt>
<trkpt lat="-27.2744365" lon="151.2900763">
  <ele>357.96</ele>
  <time>2026-09-01T19:51:09Z</time>
  <course>115.11</course>
  <speed>0.212602916254693</speed>
  <fix>3d</fix>
</trkpt>
<trkpt lat="-27.2744364" lon="151.2900763">
  <ele>358.14</ele>
  <time>2026-09-01T19:51:09Z</time>
  <course>232.68</course>
  <speed>0.23</speed>
  <fix>3d</fix>
</trkpt>
<trkpt lat="-27.2744367" lon="151.2900761">
  <ele>357.96</ele>
  <time>2026-09-01T19:51:09Z</time>
  <course>117.21</course>
  <speed>0.22022715545545238</speed>
  <fix>3d</fix>
</trkpt>
<trkpt lat="-27.2744366" lon="151.290076">
  <ele>358.14</ele>
  <time>2026-09-01T19:51:09Z</time>
  <course>232.6</course>
  <speed>0.25</speed>
  <fix>3d</fix>
</trkpt>
<trkpt lat="-27.2744368" lon="151.2900759">
  <ele>357.97</ele>
  <time>2026-09-01T19:51:09Z</time>
  <course>119.06</course>
  <speed>0.23430749027719963</speed>
  <fix>3d</fix>
</trkpt>
<trkpt lat="-27.2744366" lon="151.290076">
  <ele>358.14</ele>
  <time>2026-09-01T19:51:09Z</time>
  <course>232.6</course>
  <speed>0.25</speed>
  <fix>3d</fix>
</trkpt>
<trkpt lat="-27.274437" lon="151.2900757">
  <ele>357.96</ele>
  <time>2026-09-01T19:51:09Z</time>
  <course>120.12</course>
  <speed>0.24083189157584592</speed>
  <fix>3d</fix>
</trkpt>
<trkpt lat="-27.2744369" lon="151.2900756">
  <ele>358.14</ele>
  <time>2026-09-01T19:51:09Z</time>
  <course>231.98</course>
  <speed>0.27</speed>
  <fix>3d</fix>
</trkpt>
<trkpt lat="-27.2744371" lon="151.2900754">
  <ele>357.96</ele>
  <time>2026-09-01T19:51:09Z</time>
  <course>120.41</course>
  <speed>0.24839484696748443</speed>
  <fix>3d</fix>
</trkpt>
<trkpt lat="-27.2744369" lon="151.2900756">
  <ele>358.14</ele>
  <time>2026-09-01T19:51:09Z</time>
  <course>231.98</course>
  <speed>0.27</speed>
  <fix>3d</fix>
</trkpt>
<trkpt lat="-27.2744373" lon="151.2900752">
  <ele>357.96</ele>
  <time>2026-09-01T19:51:09Z</time>
  <course>120.03</course>
  <speed>0.25495097567963926</speed>
  <fix>3d</fix>
</trkpt>
<trkpt lat="-27.2744372" lon="151.2900751">
  <ele>358.13</ele>
  <time>2026-09-01T19:51:09Z</time>
  <course>230.98</course>
  <speed>0.28</speed>
  <fix>3d</fix>
</trkpt>
<trkpt lat="-27.2744374" lon="151.290075">
  <ele>357.96</ele>
  <time>2026-09-01T19:51:09Z</time>
  <course>119.19</course>
  <speed>0.261725046566048</speed>
  <fix>3d</fix>
</trkpt>
<trkpt lat="-27.2744372" lon="151.2900751">
  <ele>358.13</ele>
  <time>2026-09-01T19:51:09Z</time>
  <course>230.98</course>
  <speed>0.28</speed>
  <fix>3d</fix>
</trkpt>
<trkpt lat="-27.2744376" lon="151.2900748">
  <ele>357.96</ele>
  <time>2026-09-01T19:51:09Z</time>
  <course>118.09</course>
  <speed>0.26870057685088805</speed>
  <fix>3d</fix>
</trkpt>
<trkpt lat="-27.2744376" lon="151.2900746">
  <ele>358.13</ele>
  <time>2026-09-01T19:51:09Z</time>
  <course>229.69</course>
  <speed>0.3</speed>
  <fix>3d</fix>
</trkpt>
<trkpt lat="-27.2744378" lon="151.2900745">
  <ele>357.96</ele>
  <time>2026-09-01T19:51:09Z</time>
  <course>116.94</course>
  <speed>0.27586228448267447</speed>
  <fix>3d</fix>
</trkpt>
<trkpt lat="-27.2744376" lon="151.2900746">
  <ele>358.13</ele>
  <time>2026-09-01T19:51:09Z</time>
  <course>229.69</course>
  <speed>0.3</speed>
  <fix>3d</fix>
</trkpt>
<trkpt lat="-27.274438" lon="151.2900743">
  <ele>357.96</ele>
  <time>2026-09-01T19:51:09Z</time>
  <course>115.92</course>
  <speed>0.282842712474619</speed>
  <fix>3d</fix>
</trkpt>
<trkpt lat="-27.2744379" lon="151.2900742">
  <ele>358.13</ele>
  <time>2026-09-01T19:51:09Z</time>
  <course>228.19</course>
  <speed>0.31</speed>
  <fix>3d</fix>
</trkpt>
<trkpt lat="-27.2744382" lon="151.2900741">
  <ele>357.96</ele>
  <time>2026-09-01T19:51:09Z</time>
  <course>115.18</course>
  <speed>0.29</speed>
  <fix>3d</fix>
</trkpt>
<trkpt lat="-27.2744379" lon="151.2900742">
  <ele>358.13</ele>
  <time>2026-09-01T19:51:09Z</time>
  <course>228.19</course>
  <speed>0.31</speed>
  <fix>3d</fix>
</trkpt>
<trkpt lat="-27.2744384" lon="151.2900738">
  <ele>357.96</ele>
  <time>2026-09-01T19:51:09Z</time>
  <course>114.26</course>
  <speed>0.29</speed>
  <fix>3d</fix>
</trkpt>
<trkpt lat="-27.2744384" lon="151.2900737">
  <ele>358.13</ele>
  <time>2026-09-01T19:51:09Z</time>
  <course>226.6</course>
  <speed>0.32</speed>
  <fix>3d</fix>
</trkpt>
<trkpt lat="-27.2744386" lon="151.2900736">
  <ele>357.96</ele>
  <time>2026-09-01T19:51:09Z</time>
  <course>112.84</course>
  <speed>0.2973213749463701</speed>
  <fix>3d</fix>
</trkpt>
<trkpt lat="-27.2744384" lon="151.2900737">
  <ele>358.13</ele>
  <time>2026-09-01T19:51:09Z</time>
  <course>226.6</course>
  <speed>0.32</speed>
  <fix>3d</fix>
</trkpt>
<trkpt lat="-27.2744388" lon="151.2900734">
  <ele>357.95</ele>
  <time>2026-09-01T19:51:09Z</time>
  <course>111.31</course>
  <speed>0.2906888370749727</speed>
  <fix>3d</fix>
</trkpt>
<trkpt lat="-27.2744388" lon="151.2900732">
  <ele>358.13</ele>
  <time>2026-09-01T19:51:09Z</time>
  <course>224.93</course>
  <speed>0.33</speed>
  <fix>3d</fix>
</trkpt>
<trkpt lat="-27.274439" lon="151.2900731">
  <ele>357.95</ele>
  <time>2026-09-01T19:51:09Z</time>
  <course>109.78</course>
  <speed>0.29832867780352595</speed>
  <fix>3d</fix>
</trkpt>
<trkpt lat="-27.2744388" lon="151.2900732">
  <ele>358.13</ele>
  <time>2026-09-01T19:51:09Z</time>
  <course>224.93</course>
  <speed>0.33</speed>
  <fix>3d</fix>
</trkpt>
<trkpt lat="-27.2744393" lon="151.2900729">
  <ele>357.95</ele>
  <time>2026-09-01T19:51:09Z</time>
  <course>108.26</course>
  <speed>0.29832867780352595</speed>
  <fix>3d</fix>
</trkpt>
<trkpt lat="-27.2744391" lon="151.2900728">
  <ele>358.12</ele>
  <time>2026-09-01T19:51:09Z</time>
  <course>223.19</course>
  <speed>0.33</speed>
  <fix>3d</fix>
</trkpt>
<trkpt lat="-27.2744395" lon="151.2900727">
  <ele>357.95</ele>
  <time>2026-09-01T19:51:09Z</time>
  <course>106.75</course>
  <speed>0.30610455730027936</speed>
  <fix>3d</fix>
</trkpt>
<trkpt lat="-27.2744391" lon="151.2900728">
  <ele>358.12</ele>
  <time>2026-09-01T19:51:09Z</time>
  <course>223.19</course>
  <speed>0.33</speed>
  <fix>3d</fix>
</trkpt>
<trkpt lat="-27.2744397" lon="151.2900724">
  <ele>357.95</ele>
  <time>2026-09-01T19:51:09Z</time>
  <course>105.23</course>
  <speed>0.30610455730027936</speed>
  <fix>3d</fix>
</trkpt>
<trkpt lat="-27.2744396" lon="151.2900723">
  <ele>358.12</ele>
  <time>2026-09-01T19:51:09Z</time>
  <course>221.61</course>
  <speed>0.34</speed>
  <fix>3d</fix>
</trkpt>
<trkpt lat="-27.2744399" lon="151.2900722">
  <ele>357.95</ele>
  <time>2026-09-01T19:51:09Z</time>
  <course>103.71</course>
  <speed>0.31400636936215165</speed>
  <fix>3d</fix>
</trkpt>
<trkpt lat="-27.2744396" lon="151.2900723">
  <ele>358.12</ele>
  <time>2026-09-01T19:51:09Z</time>
  <course>221.61</course>
  <speed>0.34</speed>
  <fix>3d</fix>
</trkpt>
<trkpt lat="-27.2744402" lon="151.290072">
  <ele>357.95</ele>
  <time>2026-09-01T19:51:09Z</time>
  <course>102.2</course>
  <speed>0.3080584360149873</speed>
  <fix>3d</fix>
</trkpt>
<trkpt lat="-27.2744401" lon="151.2900718">
  <ele>358.12</ele>
  <time>2026-09-01T19:51:10Z</time>
  <course>220.34</course>
  <speed>0.34</speed>
  <fix>3d</fix>
</trkpt>
<trkpt lat="-27.2744404" lon="151.2900718">
  <ele>357.95</ele>
  <time>2026-09-01T19:51:10Z</time>
  <course>100.68</course>
  <speed>0.3080584360149873</speed>
  <fix>3d</fix>
</trkpt>
<trkpt lat="-27.2744401" lon="151.2900718">
  <ele>358.12</ele>
  <time>2026-09-01T19:51:10Z</time>
  <course>220.34</course>
  <speed>0.34</speed>
  <fix>3d</fix>
</trkpt>
<trkpt lat="-27.2744406" lon="151.2900715">
  <ele>357.95</ele>
  <time>2026-09-01T19:51:10Z</time>
  <course>99.17</course>
  <speed>0.3080584360149873</speed>
  <fix>3d</fix>
</trkpt>
<trkpt lat="-27.2744406" lon="151.2900713">
  <ele>358.12</ele>
  <time>2026-09-01T19:51:10Z</time>
  <course>219.33</course>
  <speed>0.34</speed>
  <fix>3d</fix>
</trkpt>
<trkpt lat="-27.2744409" lon="151.2900713">
  <ele>357.95</ele>
  <time>2026-09-01T19:51:10Z</time>
  <course>97.66</course>
  <speed>0.3080584360149873</speed>
  <fix>3d</fix>
</trkpt>
<trkpt lat="-27.2744406" lon="151.2900713">
  <ele>358.12</ele>
  <time>2026-09-01T19:51:10Z</time>
  <course>219.33</course>
  <speed>0.34</speed>
  <fix>3d</fix>
</trkpt>
<trkpt lat="-27.2744411" lon="151.2900711">
  <ele>357.95</ele>
  <time>2026-09-01T19:51:10Z</time>
  <course>96.15</course>
  <speed>0.3080584360149873</speed>
  <fix>3d</fix>
</trkpt>
<trkpt lat="-27.2744406" lon="151.2900713">
  <ele>358.12</ele>
  <time>2026-09-01T19:51:10Z</time>
  <course>219.33</course>
  <speed>0.34</speed>
  <fix>3d</fix>
</trkpt>
<trkpt lat="-27.2744414" lon="151.2900709">
  <ele>357.95</ele>
  <time>2026-09-01T19:51:10Z</time>
  <course>94.64</course>
  <speed>0.31622776601683794</speed>
  <fix>3d</fix>
</trkpt>
<trkpt lat="-27.274441" lon="151.290071">
  <ele>358.13</ele>
  <time>2026-09-01T19:51:10Z</time>
  <course>218.6</course>
  <speed>0.34</speed>
  <fix>3d</fix>
</trkpt>
<trkpt lat="-27.2744416" lon="151.2900707">
  <ele>357.94</ele>
  <time>2026-09-01T19:51:10Z</time>
  <course>93.13</course>
  <speed>0.31622776601683794</speed>
  <fix>3d</fix>
</trkpt>
<trkpt lat="-27.2744415" lon="151.2900705">
  <ele>358.13</ele>
  <time>2026-09-01T19:51:10Z</time>
  <course>218.09</course>
  <speed>0.34</speed>
  <fix>3d</fix>
</trkpt>
<trkpt lat="-27.2744419" lon="151.2900704">
  <ele>357.94</ele>
  <time>2026-09-01T19:51:10Z</time>
  <course>91.62</course>
  <speed>0.3080584360149873</speed>
  <fix>3d</fix>
</trkpt>
<trkpt lat="-27.2744415" lon="151.2900705">
  <ele>358.13</ele>
  <time>2026-09-01T19:51:10Z</time>
  <course>218.09</course>
  <speed>0.34</speed>
  <fix>3d</fix>
</trkpt>
<trkpt lat="-27.2744421" lon="151.2900702">
  <ele>357.94</ele>
  <time>2026-09-01T19:51:10Z</time>
  <course>90.11</course>
  <speed>0.3080584360149873</speed>
  <fix>3d</fix>
</trkpt>
<trkpt lat="-27.274442" lon="151.29007">
  <ele>358.13</ele>
  <time>2026-09-01T19:51:10Z</time>
  <course>217.68</course>
  <speed>0.34</speed>
  <fix>3d</fix>
</trkpt>
<trkpt lat="-27.2744423" lon="151.29007">
  <ele>357.95</ele>
  <time>2026-09-01T19:51:10Z</time>
  <course>88.58</course>
  <speed>0.3080584360149873</speed>
  <fix>3d</fix>
</trkpt>
<trkpt lat="-27.274442" lon="151.29007">
  <ele>358.13</ele>
  <time>2026-09-01T19:51:10Z</time>
  <course>217.68</course>
  <speed>0.34</speed>
  <fix>3d</fix>
</trkpt>
<trkpt lat="-27.2744426" lon="151.2900698">
  <ele>357.95</ele>
  <time>2026-09-01T19:51:10Z</time>
  <course>87.07</course>
  <speed>0.3023243291566195</speed>
  <fix>3d</fix>
</trkpt>
<trkpt lat="-27.2744425" lon="151.2900697">
  <ele>358.13</ele>
  <time>2026-09-01T19:51:10Z</time>
  <course>217.43</course>
  <speed>0.34</speed>
  <fix>3d</fix>
</trkpt>
<trkpt lat="-27.2744428" lon="151.2900696">
  <ele>357.95</ele>
  <time>2026-09-01T19:51:10Z</time>
  <course>85.56</course>
  <speed>0.3023243291566195</speed>
  <fix>3d</fix>
</trkpt>
<trkpt lat="-27.2744425" lon="151.2900697">
  <ele>358.13</ele>
  <time>2026-09-01T19:51:10Z</time>
  <course>217.43</course>
  <speed>0.34</speed>
  <fix>3d</fix>
</trkpt>
<trkpt lat="-27.2744431" lon="151.2900694">
  <ele>357.95</ele>
  <time>2026-09-01T19:51:10Z</time>
  <course>84.24</course>
  <speed>0.29410882339705485</speed>
  <fix>3d</fix>
</trkpt>
<trkpt lat="-27.274443" lon="151.2900692">
  <ele>358.14</ele>
  <time>2026-09-01T19:51:10Z</time>
  <course>217.39</course>
  <speed>0.33</speed>
  <fix>3d</fix>
</trkpt>
<trkpt lat="-27.2744433" lon="151.2900692">
  <ele>357.95</ele>
  <time>2026-09-01T19:51:10Z</time>
  <course>83.4</course>
  <speed>0.29410882339705485</speed>
  <fix>3d</fix>
</trkpt>
<trkpt lat="-27.274443" lon="151.2900692">
  <ele>358.14</ele>
  <time>2026-09-01T19:51:10Z</time>
  <course>217.39</course>
  <speed>0.33</speed>
  <fix>3d</fix>
</trkpt>
<trkpt lat="-27.2744435" lon="151.290069">
  <ele>357.95</ele>
  <time>2026-09-01T19:51:10Z</time>
  <course>83.11</course>
  <speed>0.28600699292150183</speed>
  <fix>3d</fix>
</trkpt>
<trkpt lat="-27.2744435" lon="151.2900689">
  <ele>358.14</ele>
  <time>2026-09-01T19:51:10Z</time>
  <course>217.56</course>
  <speed>0.32</speed>
  <fix>3d</fix>
</trkpt>
<trkpt lat="-27.2744437" lon="151.2900688">
  <ele>357.95</ele>
  <time>2026-09-01T19:51:10Z</time>
  <course>83.3</course>
  <speed>0.280178514522438</speed>
  <fix>3d</fix>
</trkpt>
<trkpt lat="-27.2744435" lon="151.2900689">
  <ele>358.14</ele>
  <time>2026-09-01T19:51:10Z</time>
  <course>217.56</course>
  <speed>0.32</speed>
  <fix>3d</fix>
</trkpt>
<trkpt lat="-27.274444" lon="151.2900686">
  <ele>357.95</ele>
  <time>2026-09-01T19:51:10Z</time>
  <course>83.84</course>
  <speed>0.2720294101747089</speed>
  <fix>3d</fix>
</trkpt>
<trkpt lat="-27.274444" lon="151.2900685">
  <ele>358.14</ele>
  <time>2026-09-01T19:51:10Z</time>
  <course>217.86</course>
  <speed>0.31</speed>
  <fix>3d</fix>
</trkpt>
<trkpt lat="-27.2744442" lon="151.2900684">
  <ele>357.95</ele>
  <time>2026-09-01T19:51:10Z</time>
  <course>84.58</course>
  <speed>0.2720294101747089</speed>
  <fix>3d</fix>
</trkpt>
<trkpt lat="-27.274444" lon="151.2900685">
  <ele>358.14</ele>
  <time>2026-09-01T19:51:10Z</time>
  <course>217.86</course>
  <speed>0.31</speed>
  <fix>3d</fix>
</trkpt>
<trkpt lat="-27.2744444" lon="151.2900682">
  <ele>357.95</ele>
  <time>2026-09-01T19:51:10Z</time>
  <course>85.38</course>
  <speed>0.2640075756488817</speed>
  <fix>3d</fix>
</trkpt>
<trkpt lat="-27.2744444" lon="151.290068">
  <ele>358.14</ele>
  <time>2026-09-01T19:51:10Z</time>
  <course>218.28</course>
  <speed>0.3</speed>
  <fix>3d</fix>
</trkpt>
<trkpt lat="-27.2744446" lon="151.290068">
  <ele>357.95</ele>
  <time>2026-09-01T19:51:10Z</time>
  <course>86.09</course>
  <speed>0.2580697580112788</speed>
  <fix>3d</fix>
</trkpt>
<trkpt lat="-27.2744444" lon="151.290068">
  <ele>358.14</ele>
  <time>2026-09-01T19:51:10Z</time>
  <course>218.28</course>
  <speed>0.3</speed>
  <fix>3d</fix>
</trkpt>
<trkpt lat="-27.2744448" lon="151.2900678">
  <ele>357.95</ele>
  <time>2026-09-01T19:51:10Z</time>
  <course>86.63</course>
  <speed>0.25</speed>
  <fix>3d</fix>
</trkpt>
<trkpt lat="-27.2744448" lon="151.2900677">
  <ele>358.14</ele>
  <time>2026-09-01T19:51:10Z</time>
  <course>218.86</course>
  <speed>0.28</speed>
  <fix>3d</fix>
</trkpt>
<trkpt lat="-27.274445" lon="151.2900676">
  <ele>357.95</ele>
  <time>2026-09-01T19:51:10Z</time>
  <course>86.96</course>
  <speed>0.2420743687382041</speed>
  <fix>3d</fix>
</trkpt>
<trkpt lat="-27.2744448" lon="151.2900677">
  <ele>358.14</ele>
  <time>2026-09-01T19:51:10Z</time>
  <course>218.86</course>
  <speed>0.28</speed>
  <fix>3d</fix>
</trkpt>
<trkpt lat="-27.2744452" lon="151.2900675">
  <ele>357.95</ele>
  <time>2026-09-01T19:51:10Z</time>
  <course>87.07</course>
  <speed>0.2420743687382041</speed>
  <fix>3d</fix>
</trkpt>
<trkpt lat="-27.2744452" lon="151.2900673">
  <ele>358.15</ele>
  <time>2026-09-01T19:51:10Z</time>
  <course>219.64</course>
  <speed>0.27</speed>
  <fix>3d</fix>
</trkpt>
<trkpt lat="-27.2744454" lon="151.2900673">
  <ele>357.95</ele>
  <time>2026-09-01T19:51:10Z</time>
  <course>87.0</course>
  <speed>0.23430749027719963</speed>
  <fix>3d</fix>
</trkpt>
<trkpt lat="-27.2744452" lon="151.2900673">
  <ele>358.15</ele>
  <time>2026-09-01T19:51:10Z</time>
  <course>219.64</course>
  <speed>0.27</speed>
  <fix>3d</fix>
</trkpt>
<trkpt lat="-27.2744456" lon="151.2900671">
  <ele>357.96</ele>
  <time>2026-09-01T19:51:10Z</time>
  <course>87.44</course>
  <speed>0.22671568097509268</speed>
  <fix>3d</fix>
</trkpt>
<trkpt lat="-27.2744452" lon="151.2900673">
  <ele>358.15</ele>
  <time>2026-09-01T19:51:10Z</time>
  <course>219.64</course>
  <speed>0.27</speed>
  <fix>3d</fix>
</trkpt>
<trkpt lat="-27.2744457" lon="151.2900669">
  <ele>357.96</ele>
  <time>2026-09-01T19:51:10Z</time>
  <course>89.21</course>
  <speed>0.22022715545545238</speed>
  <fix>3d</fix>
</trkpt>
<trkpt lat="-27.2744456" lon="151.290067">
  <ele>358.15</ele>
  <time>2026-09-01T19:51:10Z</time>
  <course>220.66</course>
  <speed>0.26</speed>
  <fix>3d</fix>
</trkpt>
<trkpt lat="-27.2744459" lon="151.2900668">
  <ele>357.96</ele>
  <time>2026-09-01T19:51:10Z</time>
  <course>91.35</course>
  <speed>0.212602916254693</speed>
  <fix>3d</fix>
</trkpt>
<trkpt lat="-27.2744456" lon="151.290067">
  <ele>358.15</ele>
  <time>2026-09-01T19:51:10Z</time>
  <course>220.66</course>
  <speed>0.26</speed>
  <fix>3d</fix>
</trkpt>
<trkpt lat="-27.2744461" lon="151.2900666">
  <ele>357.96</ele>
  <time>2026-09-01T19:51:10Z</time>
  <course>93.48</course>
  <speed>0.212602916254693</speed>
  <fix>3d</fix>
</trkpt>
<trkpt lat="-27.2744459" lon="151.2900666">
  <ele>358.15</ele>
  <time>2026-09-01T19:51:10Z</time>
  <course>221.92</course>
  <speed>0.25</speed>
  <fix>3d</fix>
</trkpt>
<trkpt lat="-27.2744462" lon="151.2900664">
  <ele>357.96</ele>
  <time>2026-09-01T19:51:10Z</time>
  <course>95.52</course>
  <speed>0.20518284528683192</speed>
  <fix>3d</fix>
</trkpt>
<trkpt lat="-27.2744459" lon="151.2900666">
  <ele>358.15</ele>
  <time>2026-09-01T19:51:10Z</time>
  <course>221.92</course>
  <speed>0.25</speed>
  <fix>3d</fix>
</trkpt>
<trkpt lat="-27.2744464" lon="151.2900662">
  <ele>357.96</ele>
  <time>2026-09-01T19:51:10Z</time>
  <course>97.09</course>
  <speed>0.20518284528683192</speed>
  <fix>3d</fix>
</trkpt>
<trkpt lat="-27.2744462" lon="151.2900663">
  <ele>358.15</ele>
  <time>2026-09-01T19:51:10Z</time>
  <course>223.29</course>
  <speed>0.23</speed>
  <fix>3d</fix>
</trkpt>
<trkpt lat="-27.2744465" lon="151.2900661">
  <ele>357.96</ele>
  <time>2026-09-01T19:51:10Z</time>
  <course>97.88</course>
  <speed>0.1979898987322333</speed>
  <fix>3d</fix>
</trkpt>
<trkpt lat="-27.2744462" lon="151.2900663">
  <ele>358.15</ele>
  <time>2026-09-01T19:51:10Z</time>
  <course>223.29</course>
  <speed>0.23</speed>
  <fix>3d</fix>
</trkpt>
<trkpt lat="-27.2744466" lon="151.2900659">
  <ele>357.96</ele>
  <time>2026-09-01T19:51:10Z</time>
  <course>97.92</course>
  <speed>0.191049731745428</speed>
  <fix>3d</fix>
</trkpt>
<trkpt lat="-27.2744465" lon="151.2900659">
  <ele>358.15</ele>
  <time>2026-09-01T19:51:10Z</time>
  <course>224.67</course>
  <speed>0.23</speed>
  <fix>3d</fix>
</trkpt>
<trkpt lat="-27.2744468" lon="151.2900657">
  <ele>357.95</ele>
  <time>2026-09-01T19:51:10Z</time>
  <course>97.35</course>
  <speed>0.191049731745428</speed>
  <fix>3d</fix>
</trkpt>
<trkpt lat="-27.2744465" lon="151.2900659">
  <ele>358.15</ele>
  <time>2026-09-01T19:51:10Z</time>
  <course>224.67</course>
  <speed>0.23</speed>
  <fix>3d</fix>
</trkpt>
<trkpt lat="-27.2744469" lon="151.2900656">
  <ele>357.96</ele>
  <time>2026-09-01T19:51:10Z</time>
  <course>96.37</course>
  <speed>0.18439088914585774</speed>
  <fix>3d</fix>
</trkpt>
<trkpt lat="-27.2744468" lon="151.2900656">
  <ele>358.15</ele>
  <time>2026-09-01T19:51:10Z</time>
  <course>226.26</course>
  <speed>0.22</speed>
  <fix>3d</fix>
</trkpt>
<trkpt lat="-27.274447" lon="151.2900654">
  <ele>357.96</ele>
  <time>2026-09-01T19:51:10Z</time>
  <course>95.19</course>
  <speed>0.18439088914585774</speed>
  <fix>3d</fix>
</trkpt>
<trkpt lat="-27.274447" lon="151.2900653">
  <ele>358.15</ele>
  <time>2026-09-01T19:51:10Z</time>
  <course>228.3</course>
  <speed>0.21</speed>
  <fix>3d</fix>
</trkpt>
<trkpt lat="-27.2744471" lon="151.2900652">
  <ele>357.95</ele>
  <time>2026-09-01T19:51:10Z</time>
  <course>94.05</course>
  <speed>0.17804493814764857</speed>
  <fix>3d</fix>
</trkpt>
<trkpt lat="-27.274447" lon="151.2900653">
  <ele>358.15</ele>
  <time>2026-09-01T19:51:10Z</time>
  <course>228.3</course>
  <speed>0.21</speed>
  <fix>3d</fix>
</trkpt>
<trkpt lat="-27.2744472" lon="151.2900651">
  <ele>357.95</ele>
  <time>2026-09-01T19:51:10Z</time>
  <course>93.08</course>
  <speed>0.17204650534085253</speed>
  <fix>3d</fix>
</trkpt>
<trkpt lat="-27.2744473" lon="151.290065">
  <ele>358.15</ele>
  <time>2026-09-01T19:51:10Z</time>
  <course>230.87</course>
  <speed>0.2</speed>
  <fix>3d</fix>
</trkpt>
<trkpt lat="-27.2744473" lon="151.2900649">
  <ele>357.95</ele>
  <time>2026-09-01T19:51:10Z</time>
  <course>92.37</course>
  <speed>0.1664331697709324</speed>
  <fix>3d</fix>
</trkpt>
<trkpt lat="-27.2744473" lon="151.290065">
  <ele>358.15</ele>
  <time>2026-09-01T19:51:10Z</time>
  <course>230.87</course>
  <speed>0.2</speed>
  <fix>3d</fix>
</trkpt>
<trkpt lat="-27.2744474" lon="151.2900648">
  <ele>357.95</ele>
  <time>2026-09-01T19:51:10Z</time>
  <course>91.19</course>
  <speed>0.1664331697709324</speed>
  <fix>3d</fix>
</trkpt>
<trkpt lat="-27.2744476" lon="151.2900647">
  <ele>358.15</ele>
  <time>2026-09-01T19:51:10Z</time>
  <course>233.97</course>
  <speed>0.19</speed>
  <fix>3d</fix>
</trkpt>
<trkpt lat="-27.2744475" lon="151.2900646">
  <ele>357.95</ele>
  <time>2026-09-01T19:51:10Z</time>
  <course>89.68</course>
  <speed>0.16124515496597097</speed>
  <fix>3d</fix>
</trkpt>
<trkpt lat="-27.2744476" lon="151.2900647">
  <ele>358.15</ele>
  <time>2026-09-01T19:51:10Z</time>
  <course>233.97</course>
  <speed>0.19</speed>
  <fix>3d</fix>
</trkpt>
<trkpt lat="-27.2744476" lon="151.2900644">
  <ele>357.95</ele>
  <time>2026-09-01T19:51:10Z</time>
  <course>88.15</course>
  <speed>0.15652475842498528</speed>
  <fix>3d</fix>
</trkpt>
<trkpt lat="-27.2744477" lon="151.2900644">
  <ele>358.15</ele>
  <time>2026-09-01T19:51:10Z</time>
  <course>237.7</course>
  <speed>0.18</speed>
  <fix>3d</fix>
</trkpt>
<trkpt lat="-27.2744477" lon="151.2900643">
  <ele>357.95</ele>
  <time>2026-09-01T19:51:10Z</time>
  <course>86.65</course>
  <speed>0.15231546211727817</speed>
  <fix>3d</fix>
</trkpt>
<trkpt lat="-27.2744477" lon="151.2900644">
  <ele>358.15</ele>
  <time>2026-09-01T19:51:10Z</time>
  <course>237.7</course>
  <speed>0.18</speed>
  <fix>3d</fix>
</trkpt>
<trkpt lat="-27.2744478" lon="151.2900641">
  <ele>357.95</ele>
  <time>2026-09-01T19:51:10Z</time>
  <course>85.15</course>
  <speed>0.15231546211727817</speed>
  <fix>3d</fix>
</trkpt>
<trkpt lat="-27.2744479" lon="151.2900641">
  <ele>358.15</ele>
  <time>2026-09-01T19:51:10Z</time>
  <course>242.05</course>
  <speed>0.17</speed>
  <fix>3d</fix>
</trkpt>
<trkpt lat="-27.2744478" lon="151.290064">
  <ele>357.95</ele>
  <time>2026-09-01T19:51:10Z</time>
  <course>83.64</course>
  <speed>0.14866068747318506</speed>
  <fix>3d</fix>
</trkpt>
<trkpt lat="-27.2744479" lon="151.2900641">
  <ele>358.15</ele>
  <time>2026-09-01T19:51:10Z</time>
  <course>242.05</course>
  <speed>0.17</speed>
  <fix>3d</fix>
</trkpt>
<trkpt lat="-27.2744479" lon="151.2900638">
  <ele>357.95</ele>
  <time>2026-09-01T19:51:10Z</time>
  <course>82.14</course>
  <speed>0.14560219778561037</speed>
  <fix>3d</fix>
</trkpt>
<trkpt lat="-27.274448" lon="151.2900637">
  <ele>358.15</ele>
  <time>2026-09-01T19:51:10Z</time>
  <course>246.88</course>
  <speed>0.16</speed>
  <fix>3d</fix>
</trkpt>
<trkpt lat="-27.274448" lon="151.2900636">
  <ele>357.95</ele>
  <time>2026-09-01T19:51:10Z</time>
  <course>80.64</course>
  <speed>0.14317821063276354</speed>
  <fix>3d</fix>
</trkpt>
<trkpt lat="-27.274448" lon="151.2900637">
  <ele>358.15</ele>
  <time>2026-09-01T19:51:10Z</time>
  <course>246.88</course>
  <speed>0.16</speed>
  <fix>3d</fix>
</trkpt>
<trkpt lat="-27.274448" lon="151.2900635">
  <ele>357.95</ele>
  <time>2026-09-01T19:51:10Z</time>
  <course>79.13</course>
  <speed>0.14317821063276354</speed>
  <fix>3d</fix>
</trkpt>
<trkpt lat="-27.274448" lon="151.2900637">
  <ele>358.15</ele>
  <time>2026-09-01T19:51:10Z</time>
  <course>246.88</course>
  <speed>0.16</speed>
  <fix>3d</fix>
</trkpt>
<trkpt lat="-27.274448" lon="151.2900633">
  <ele>357.95</ele>
  <time>2026-09-01T19:51:10Z</time>
  <course>77.63</course>
  <speed>0.15132745950421556</speed>
  <fix>3d</fix>
</trkpt>
<trkpt lat="-27.2744481" lon="151.2900634">
  <ele>358.15</ele>
  <time>2026-09-01T19:51:10Z</time>
  <course>252.11</course>
  <speed>0.16</speed>
  <fix>3d</fix>
</trkpt>
<trkpt lat="-27.2744481" lon="151.2900631">
  <ele>357.95</ele>
  <time>2026-09-01T19:51:10Z</time>
  <course>76.12</course>
  <speed>0.15033296378372907</speed>
  <fix>3d</fix>
</trkpt>
<trkpt lat="-27.2744481" lon="151.2900634">
  <ele>358.15</ele>
  <time>2026-09-01T19:51:10Z</time>
  <course>252.11</course>
  <speed>0.16</speed>
  <fix>3d</fix>
</trkpt>
<trkpt lat="-27.2744481" lon="151.290063">
  <ele>357.95</ele>
  <time>2026-09-01T19:51:10Z</time>
  <course>74.6</course>
  <speed>0.15033296378372907</speed>
  <fix>3d</fix>
</trkpt>
<trkpt lat="-27.2744482" lon="151.2900631">
  <ele>358.15</ele>
  <time>2026-09-01T19:51:10Z</time>
  <course>257.44</course>
  <speed>0.16</speed>
  <fix>3d</fix>
</trkpt>
<trkpt lat="-27.2744481" lon="151.2900628">
  <ele>357.96</ele>
  <time>2026-09-01T19:51:10Z</time>
  <course>73.08</course>
  <speed>0.15</speed>
  <fix>3d</fix>
</trkpt>
<trkpt lat="-27.2744482" lon="151.2900631">
  <ele>358.15</ele>
  <time>2026-09-01T19:51:10Z</time>
  <course>257.44</course>
  <speed>0.16</speed>
  <fix>3d</fix>
</trkpt>
<trkpt lat="-27.2744481" lon="151.2900626">
  <ele>357.96</ele>
  <time>2026-09-01T19:51:10Z</time>
  <course>71.58</course>
  <speed>0.15</speed>
  <fix>3d</fix>
</trkpt>
<trkpt lat="-27.2744483" lon="151.2900628">
  <ele>358.15</ele>
  <time>2026-09-01T19:51:10Z</time>
  <course>262.52</course>
  <speed>0.16</speed>
  <fix>3d</fix>
</trkpt>
<trkpt lat="-27.2744481" lon="151.2900625">
  <ele>357.96</ele>
  <time>2026-09-01T19:51:10Z</time>
  <course>70.07</course>
  <speed>0.16</speed>
  <fix>3d</fix>
</trkpt>
<trkpt lat="-27.2744483" lon="151.2900628">
  <ele>358.15</ele>
  <time>2026-09-01T19:51:10Z</time>
  <course>262.52</course>
  <speed>0.16</speed>
  <fix>3d</fix>
</trkpt>
<trkpt lat="-27.2744481" lon="151.2900623">
  <ele>357.96</ele>
  <time>2026-09-01T19:51:10Z</time>
  <course>68.55</course>
  <speed>0.16031219541881397</speed>
  <fix>3d</fix>
</trkpt>
<trkpt lat="-27.2744483" lon="151.2900624">
  <ele>358.15</ele>
  <time>2026-09-01T19:51:10Z</time>
  <course>267.31</course>
  <speed>0.16</speed>
  <fix>3d</fix>
</trkpt>
<trkpt lat="-27.2744481" lon="151.2900621">
  <ele>357.96</ele>
  <time>2026-09-01T19:51:10Z</time>
  <course>67.03</course>
  <speed>0.16124515496597097</speed>
  <fix>3d</fix>
</trkpt>
<trkpt lat="-27.2744483" lon="151.2900624">
  <ele>358.15</ele>
  <time>2026-09-01T19:51:10Z</time>
  <course>267.31</course>
  <speed>0.16</speed>
  <fix>3d</fix>
</trkpt>
<trkpt lat="-27.2744481" lon="151.2900619">
  <ele>357.96</ele>
  <time>2026-09-01T19:51:10Z</time>
  <course>65.5</course>
  <speed>0.16124515496597097</speed>
  <fix>3d</fix>
</trkpt>
<trkpt lat="-27.2744483" lon="151.2900621">
  <ele>358.15</ele>
  <time>2026-09-01T19:51:10Z</time>
  <course>271.87</course>
  <speed>0.17</speed>
  <fix>3d</fix>
</trkpt>
<trkpt lat="-27.2744481" lon="151.2900617">
  <ele>357.96</ele>
  <time>2026-09-01T19:51:10Z</time>
  <course>63.99</course>
  <speed>0.17262676501632068</speed>
  <fix>3d</fix>
</trkpt>
<trkpt lat="-27.2744483" lon="151.2900621">
  <ele>358.15</ele>
  <time>2026-09-01T19:51:10Z</time>
  <course>271.87</course>
  <speed>0.17</speed>
  <fix>3d</fix>
</trkpt>
<trkpt lat="-27.2744481" lon="151.2900616">
  <ele>357.96</ele>
  <time>2026-09-01T19:51:10Z</time>
  <course>62.5</course>
  <speed>0.17464249196572978</speed>
  <fix>3d</fix>
</trkpt>
<trkpt lat="-27.2744483" lon="151.2900618">
  <ele>358.15</ele>
  <time>2026-09-01T19:51:10Z</time>
  <course>276.19</course>
  <speed>0.17</speed>
  <fix>3d</fix>
</trkpt>
<trkpt lat="-27.2744481" lon="151.2900614">
  <ele>357.96</ele>
  <time>2026-09-01T19:51:10Z</time>
  <course>61.29</course>
  <speed>0.17464249196572978</speed>
  <fix>3d</fix>
</trkpt>
<trkpt lat="-27.2744483" lon="151.2900618">
  <ele>358.15</ele>
  <time>2026-09-01T19:51:10Z</time>
  <course>276.19</course>
  <speed>0.17</speed>
  <fix>3d</fix>
</trkpt>
<trkpt lat="-27.2744481" lon="151.2900612">
  <ele>357.96</ele>
  <time>2026-09-01T19:51:10Z</time>
  <course>60.58</course>
  <speed>0.1772004514666935</speed>
  <fix>3d</fix>
</trkpt>
<trkpt lat="-27.2744483" lon="151.2900614">
  <ele>358.15</ele>
  <time>2026-09-01T19:51:10Z</time>
  <course>280.46</course>
  <speed>0.18</speed>
  <fix>3d</fix>
</trkpt>
<trkpt lat="-27.2744481" lon="151.290061">
  <ele>357.96</ele>
  <time>2026-09-01T19:51:10Z</time>
  <course>60.4</course>
  <speed>0.18027756377319945</speed>
  <fix>3d</fix>
</trkpt>
<trkpt lat="-27.2744483" lon="151.2900614">
  <ele>358.15</ele>
  <time>2026-09-01T19:51:10Z</time>
  <course>280.46</course>
  <speed>0.18</speed>
  <fix>3d</fix>
</trkpt>
<trkpt lat="-27.274448" lon="151.2900608">
  <ele>357.96</ele>
  <time>2026-09-01T19:51:10Z</time>
  <course>60.67</course>
  <speed>0.17464249196572978</speed>
  <fix>3d</fix>
</trkpt>
<trkpt lat="-27.2744482" lon="151.2900611">
  <ele>358.15</ele>
  <time>2026-09-01T19:51:10Z</time>
  <course>285.3</course>
  <speed>0.18</speed>
  <fix>3d</fix>
</trkpt>
<trkpt lat="-27.274448" lon="151.2900607">
  <ele>357.96</ele>
  <time>2026-09-01T19:51:10Z</time>
  <course>61.27</course>
  <speed>0.17888543819998318</speed>
  <fix>3d</fix>
</trkpt>
<trkpt lat="-27.2744481" lon="151.2900606">
  <ele>358.15</ele>
  <time>2026-09-01T19:51:10Z</time>
  <course>291.06</course>
  <speed>0.18</speed>
  <fix>3d</fix>
</trkpt>
<trkpt lat="-27.2744479" lon="151.2900605">
  <ele>357.96</ele>
  <time>2026-09-01T19:51:10Z</time>
  <course>62.02</course>
  <speed>0.1835755975068582</speed>
  <fix>3d</fix>
</trkpt>
<trkpt lat="-27.2744481" lon="151.2900606">
  <ele>358.15</ele>
  <time>2026-09-01T19:51:10Z</time>
  <course>291.06</course>
  <speed>0.18</speed>
  <fix>3d</fix>
</trkpt>
<trkpt lat="-27.2744478" lon="151.2900603">
  <ele>357.96</ele>
  <time>2026-09-01T19:51:10Z</time>
  <course>62.81</course>
  <speed>0.18027756377319945</speed>
  <fix>3d</fix>
</trkpt>
<trkpt lat="-27.274448" lon="151.2900603">
  <ele>358.15</ele>
  <time>2026-09-01T19:51:10Z</time>
  <course>297.38</course>
  <speed>0.18</speed>
  <fix>3d</fix>
</trkpt>
<trkpt lat="-27.2744477" lon="151.2900601">
  <ele>357.96</ele>
  <time>2026-09-01T19:51:10Z</time>
  <course>63.49</course>
  <speed>0.18601075237738274</speed>
  <fix>3d</fix>
</trkpt>
<trkpt lat="-27.274448" lon="151.2900603">
  <ele>358.15</ele>
  <time>2026-09-01T19:51:10Z</time>
  <course>297.38</course>
  <speed>0.18</speed>
  <fix>3d</fix>
</trkpt>
<trkpt lat="-27.2744477" lon="151.29006">
  <ele>357.96</ele>
  <time>2026-09-01T19:51:10Z</time>
  <course>64.0</course>
  <speed>0.17804493814764857</speed>
  <fix>3d</fix>
</trkpt>
<trkpt lat="-27.274448" lon="151.2900603">
  <ele>358.15</ele>
  <time>2026-09-01T19:51:10Z</time>
  <course>297.38</course>
  <speed>0.18</speed>
  <fix>3d</fix>
</trkpt>
<trkpt lat="-27.2744476" lon="151.2900598">
  <ele>357.96</ele>
  <time>2026-09-01T19:51:10Z</time>
  <course>64.29</course>
  <speed>0.18439088914585774</speed>
  <fix>3d</fix>
</trkpt>
<trkpt lat="-27.2744478" lon="151.29006">
  <ele>358.15</ele>
  <time>2026-09-01T19:51:10Z</time>
  <course>303.92</course>
  <speed>0.18</speed>
  <fix>3d</fix>
</trkpt>
<trkpt lat="-27.2744474" lon="151.2900597">
  <ele>357.96</ele>
  <time>2026-09-01T19:51:10Z</time>
  <course>64.38</course>
  <speed>0.18384776310850234</speed>
  <fix>3d</fix>
</trkpt>
<trkpt lat="-27.2744478" lon="151.29006">
  <ele>358.15</ele>
  <time>2026-09-01T19:51:10Z</time>
  <course>303.92</course>
  <speed>0.18</speed>
  <fix>3d</fix>
</trkpt>
<trkpt lat="-27.2744473" lon="151.2900595">
  <ele>357.96</ele>
  <time>2026-09-01T19:51:10Z</time>
  <course>64.28</course>
  <speed>0.191049731745428</speed>
  <fix>3d</fix>
</trkpt>
<trkpt lat="-27.2744476" lon="151.2900597">
  <ele>358.15</ele>
  <time>2026-09-01T19:51:10Z</time>
  <course>310.44</course>
  <speed>0.19</speed>
  <fix>3d</fix>
</trkpt>
<trkpt lat="-27.2744472" lon="151.2900594">
  <ele>357.96</ele>
  <time>2026-09-01T19:51:10Z</time>
  <course>65.06</course>
  <speed>0.19209372712298545</speed>
  <fix>3d</fix>
</trkpt>
<trkpt lat="-27.2744476" lon="151.2900597">
  <ele>358.15</ele>
  <time>2026-09-01T19:51:10Z</time>
  <course>310.44</course>
  <speed>0.19</speed>
  <fix>3d</fix>
</trkpt>
<trkpt lat="-27.2744471" lon="151.2900593">
  <ele>357.96</ele>
  <time>2026-09-01T19:51:10Z</time>
  <course>67.04</course>
  <speed>0.2</speed>
  <fix>3d</fix>
</trkpt>
<trkpt lat="-27.2744474" lon="151.2900594">
  <ele>358.15</ele>
  <time>2026-09-01T19:51:10Z</time>
  <course>316.76</course>
  <speed>0.19</speed>
  <fix>3d</fix>
</trkpt>
<trkpt lat="-27.2744469" lon="151.2900591">
  <ele>357.96</ele>
  <time>2026-09-01T19:51:10Z</time>
  <course>69.22</course>
  <speed>0.20248456731316586</speed>
  <fix>3d</fix>
</trkpt>
<trkpt lat="-27.2744474" lon="151.2900594">
  <ele>358.15</ele>
  <time>2026-09-01T19:51:10Z</time>
  <course>316.76</course>
  <speed>0.19</speed>
  <fix>3d</fix>
</trkpt>
<trkpt lat="-27.2744468" lon="151.290059">
  <ele>357.97</ele>
  <time>2026-09-01T19:51:10Z</time>
  <course>71.33</course>
  <speed>0.2109502310972899</speed>
  <fix>3d</fix>
</trkpt>
<trkpt lat="-27.2744471" lon="151.2900591">
  <ele>358.14</ele>
  <time>2026-09-01T19:51:10Z</time>
  <course>322.75</course>
  <speed>0.2</speed>
  <fix>3d</fix>
</trkpt>
<trkpt lat="-27.2744466" lon="151.2900589">
  <ele>357.97</ele>
  <time>2026-09-01T19:51:10Z</time>
  <course>73.23</course>
  <speed>0.21470910553583888</speed>
  <fix>3d</fix>
</trkpt>
<trkpt lat="-27.2744471" lon="151.2900591">
  <ele>358.14</ele>
  <time>2026-09-01T19:51:10Z</time>
  <course>322.75</course>
  <speed>0.2</speed>
  <fix>3d</fix>
</trkpt>
<trkpt lat="-27.2744464" lon="151.2900588">
  <ele>357.97</ele>
  <time>2026-09-01T19:51:10Z</time>
  <course>74.48</course>
  <speed>0.2193171219946131</speed>
  <fix>3d</fix>
</trkpt>
<trkpt lat="-27.2744468" lon="151.2900589">
  <ele>358.14</ele>
  <time>2026-09-01T19:51:10Z</time>
  <course>328.37</course>
  <speed>0.21</speed>
  <fix>3d</fix>
</trkpt>
<trkpt lat="-27.2744463" lon="151.2900587">
  <ele>357.96</ele>
  <time>2026-09-01T19:51:10Z</time>
  <course>74.93</course>
  <speed>0.22847319317591727</speed>
  <fix>3d</fix>
</trkpt>
<trkpt lat="-27.2744468" lon="151.2900589">
  <ele>358.14</ele>
  <time>2026-09-01T19:51:10Z</time>
  <course>328.37</course>
  <speed>0.21</speed>
  <fix>3d</fix>
</trkpt>
<trkpt lat="-27.2744461" lon="151.2900586">
  <ele>357.96</ele>
  <time>2026-09-01T19:51:10Z</time>
  <course>74.66</course>
  <speed>0.22472205054244232</speed>
  <fix>3d</fix>
</trkpt>
<trkpt lat="-27.2744464" lon="151.2900586">
  <ele>358.14</ele>
  <time>2026-09-01T19:51:10Z</time>
  <course>333.64</course>
  <speed>0.22</speed>
  <fix>3d</fix>
</trkpt>
<trkpt lat="-27.2744459" lon="151.2900585">
  <ele>357.96</ele>
  <time>2026-09-01T19:51:10Z</time>
  <course>73.87</course>
  <speed>0.2308679276123039</speed>
  <fix>3d</fix>
</trkpt>
<trkpt lat="-27.2744464" lon="151.2900586">
  <ele>358.14</ele>
  <time>2026-09-01T19:51:10Z</time>
  <course>333.64</course>
  <speed>0.22</speed>
  <fix>3d</fix>
</trkpt>
<trkpt lat="-27.2744457" lon="151.2900584">
  <ele>357.96</ele>
  <time>2026-09-01T19:51:10Z</time>
  <course>72.77</course>
  <speed>0.24041630560342614</speed>
  <fix>3d</fix>
</trkpt>
<trkpt lat="-27.2744461" lon="151.2900585">
  <ele>358.14</ele>
  <time>2026-09-01T19:51:10Z</time>
  <course>338.51</course>
  <speed>0.23</speed>
  <fix>3d</fix>
</trkpt>
<trkpt lat="-27.2744455" lon="151.2900584">
  <ele>357.96</ele>
  <time>2026-09-01T19:51:10Z</time>
  <course>71.58</course>
  <speed>0.25</speed>
  <fix>3d</fix>
</trkpt>
<trkpt lat="-27.2744461" lon="151.2900585">
  <ele>358.14</ele>
  <time>2026-09-01T19:51:10Z</time>
  <course>338.51</course>
  <speed>0.23</speed>
  <fix>3d</fix>
</trkpt>
<trkpt lat="-27.2744453" lon="151.2900583">
  <ele>357.96</ele>
  <time>2026-09-01T19:51:10Z</time>
  <course>70.49</course>
  <speed>0.24738633753705963</speed>
  <fix>3d</fix>
</trkpt>
<trkpt lat="-27.2744457" lon="151.2900584">
  <ele>358.14</ele>
  <time>2026-09-01T19:51:10Z</time>
  <course>342.14</course>
  <speed>0.24</speed>
  <fix>3d</fix>
</trkpt>
<trkpt lat="-27.2744451" lon="151.2900582">
  <ele>357.96</ele>
  <time>2026-09-01T19:51:10Z</time>
  <course>69.68</course>
  <speed>0.2570992026436488</speed>
  <fix>3d</fix>
</trkpt>
<trkpt lat="-27.2744457" lon="151.2900584">
  <ele>358.14</ele>
  <time>2026-09-01T19:51:10Z</time>
  <course>342.14</course>
  <speed>0.24</speed>
  <fix>3d</fix>
</trkpt>
<trkpt lat="-27.2744448" lon="151.2900582">
  <ele>357.96</ele>
  <time>2026-09-01T19:51:10Z</time>
  <course>68.78</course>
  <speed>0.2570992026436488</speed>
  <fix>3d</fix>
</trkpt>
<trkpt lat="-27.2744452" lon="151.2900582">
  <ele>358.13</ele>
  <time>2026-09-01T19:51:10Z</time>
  <course>344.38</course>
  <speed>0.25</speed>
  <fix>3d</fix>
</trkpt>
<trkpt lat="-27.2744446" lon="151.2900581">
  <ele>357.96</ele>
  <time>2026-09-01T19:51:10Z</time>
  <course>67.34</course>
  <speed>0.26476404589747454</speed>
  <fix>3d</fix>
</trkpt>
<trkpt lat="-27.2744452" lon="151.2900582">
  <ele>358.13</ele>
  <time>2026-09-01T19:51:10Z</time>
  <course>344.38</course>
  <speed>0.25</speed>
  <fix>3d</fix>
</trkpt>
<trkpt lat="-27.2744444" lon="151.290058">
  <ele>357.96</ele>
  <time>2026-09-01T19:51:10Z</time>
  <course>65.82</course>
  <speed>0.26476404589747454</speed>
  <fix>3d</fix>
</trkpt>
<trkpt lat="-27.2744448" lon="151.2900581">
  <ele>358.13</ele>
  <time>2026-09-01T19:51:10Z</time>
  <course>346.16</course>
  <speed>0.26</speed>
  <fix>3d</fix>
</trkpt>
<trkpt lat="-27.2744441" lon="151.290058">
  <ele>357.96</ele>
  <time>2026-09-01T19:51:10Z</time>
  <course>64.34</course>
  <speed>0.2745906043549196</speed>
  <fix>3d</fix>
</trkpt>
<trkpt lat="-27.2744448" lon="151.2900581">
  <ele>358.13</ele>
  <time>2026-09-01T19:51:10Z</time>
  <course>346.16</course>
  <speed>0.26</speed>
  <fix>3d</fix>
</trkpt>
<trkpt lat="-27.2744439" lon="151.2900579">
  <ele>357.96</ele>
  <time>2026-09-01T19:51:10Z</time>
  <course>62.86</course>
  <speed>0.28442925306655786</speed>
  <fix>3d</fix>
</trkpt>
<trkpt lat="-27.2744443" lon="151.2900579">
  <ele>358.13</ele>
  <time>2026-09-01T19:51:10Z</time>
  <course>347.8</course>
  <speed>0.27</speed>
  <fix>3d</fix>
</trkpt>
<trkpt lat="-27.2744436" lon="151.2900579">
  <ele>357.96</ele>
  <time>2026-09-01T19:51:10Z</time>
  <course>61.38</course>
  <speed>0.282842712474619</speed>
  <fix>3d</fix>
</trkpt>
<trkpt lat="-27.2744443" lon="151.2900579">
  <ele>358.13</ele>
  <time>2026-09-01T19:51:10Z</time>
  <course>347.8</course>
  <speed>0.27</speed>
  <fix>3d</fix>
</trkpt>
<trkpt lat="-27.2744434" lon="151.2900578">
  <ele>357.96</ele>
  <time>2026-09-01T19:51:10Z</time>
  <course>59.9</course>
  <speed>0.29274562336608895</speed>
  <fix>3d</fix>
</trkpt>
<trkpt lat="-27.2744438" lon="151.2900578">
  <ele>358.13</ele>
  <time>2026-09-01T19:51:10Z</time>
  <course>349.28</course>
  <speed>0.28</speed>
  <fix>3d</fix>
</trkpt>
<trkpt lat="-27.2744431" lon="151.2900578">
  <ele>357.96</ele>
  <time>2026-09-01T19:51:10Z</time>
  <course>58.41</course>
  <speed>0.29274562336608895</speed>
  <fix>3d</fix>
</trkpt>
<trkpt lat="-27.2744438" lon="151.2900578">
  <ele>358.13</ele>
  <time>2026-09-01T19:51:10Z</time>
  <course>349.28</course>
  <speed>0.28</speed>
  <fix>3d</fix>
</trkpt>
<trkpt lat="-27.2744428" lon="151.2900577">
  <ele>357.96</ele>
  <time>2026-09-01T19:51:10Z</time>
  <course>56.93</course>
  <speed>0.3026549190084311</speed>
  <fix>3d</fix>
</trkpt>
<trkpt lat="-27.2744433" lon="151.2900577">
  <ele>358.13</ele>
  <time>2026-09-01T19:51:10Z</time>
  <course>350.6</course>
  <speed>0.29</speed>
  <fix>3d</fix>
</trkpt>
<trkpt lat="-27.2744426" lon="151.2900577">
  <ele>357.96</ele>
  <time>2026-09-01T19:51:10Z</time>
  <course>55.46</course>
  <speed>0.3026549190084311</speed>
  <fix>3d</fix>
</trkpt>
<trkpt lat="-27.2744433" lon="151.2900577">
  <ele>358.13</ele>
  <time>2026-09-01T19:51:10Z</time>
  <course>350.6</course>
  <speed>0.29</speed>
  <fix>3d</fix>
</trkpt>
<trkpt lat="-27.2744423" lon="151.2900576">
  <ele>357.96</ele>
  <time>2026-09-01T19:51:10Z</time>
  <course>53.98</course>
  <speed>0.31144823004794875</speed>
  <fix>3d</fix>
</trkpt>
<trkpt lat="-27.2744428" lon="151.2900576">
  <ele>358.13</ele>
  <time>2026-09-01T19:51:10Z</time>
  <course>351.75</course>
  <speed>0.3</speed>
  <fix>3d</fix>
</trkpt>
<trkpt lat="-27.274442" lon="151.2900576">
  <ele>357.96</ele>
  <time>2026-09-01T19:51:10Z</time>
  <course>52.51</course>
  <speed>0.31144823004794875</speed>
  <fix>3d</fix>
</trkpt>
<trkpt lat="-27.2744428" lon="151.2900576">
  <ele>358.13</ele>
  <time>2026-09-01T19:51:10Z</time>
  <course>351.75</course>
  <speed>0.3</speed>
  <fix>3d</fix>
</trkpt>
<trkpt lat="-27.2744417" lon="151.2900575">
  <ele>357.96</ele>
  <time>2026-09-01T19:51:10Z</time>
  <course>51.03</course>
  <speed>0.32140317359976395</speed>
  <fix>3d</fix>
</trkpt>
<trkpt lat="-27.2744422" lon="151.2900575">
  <ele>358.12</ele>
  <time>2026-09-01T19:51:10Z</time>
  <course>352.75</course>
  <speed>0.31</speed>
  <fix>3d</fix>
</trkpt>
<trkpt lat="-27.2744414" lon="151.2900575">
  <ele>357.96</ele>
  <time>2026-09-01T19:51:10Z</time>
  <course>49.55</course>
  <speed>0.32140317359976395</speed>
  <fix>3d</fix>
</trkpt>
<trkpt lat="-27.2744422" lon="151.2900575">
  <ele>358.12</ele>
  <time>2026-09-01T19:51:10Z</time>
  <course>352.75</course>
  <speed>0.31</speed>
  <fix>3d</fix>
</trkpt>
<trkpt lat="-27.2744411" lon="151.2900575">
  <ele>357.96</ele>
  <time>2026-09-01T19:51:10Z</time>
  <course>48.07</course>
  <speed>0.3313608305156178</speed>
  <fix>3d</fix>
</trkpt>
<trkpt lat="-27.2744416" lon="151.2900575">
  <ele>358.12</ele>
  <time>2026-09-01T19:51:10Z</time>
  <course>353.62</course>
  <speed>0.32</speed>
  <fix>3d</fix>
</trkpt>
<trkpt lat="-27.2744408" lon="151.2900574">
  <ele>357.96</ele>
  <time>2026-09-01T19:51:10Z</time>
  <course>46.59</course>
  <speed>0.3313608305156178</speed>
  <fix>3d</fix>
</trkpt>
<trkpt lat="-27.2744416" lon="151.2900575">
  <ele>358.12</ele>
  <time>2026-09-01T19:51:10Z</time>
  <course>353.62</course>
  <speed>0.32</speed>
  <fix>3d</fix>
</trkpt>
<trkpt lat="-27.2744405" lon="151.2900574">
  <ele>357.96</ele>
  <time>2026-09-01T19:51:10Z</time>
  <course>45.11</course>
  <speed>0.34058772731852804</speed>
  <fix>3d</fix>
</trkpt>
<trkpt lat="-27.2744411" lon="151.2900574">
  <ele>358.12</ele>
  <time>2026-09-01T19:51:10Z</time>
  <course>354.42</course>
  <speed>0.33</speed>
  <fix>3d</fix>
</trkpt>
<trkpt lat="-27.2744402" lon="151.2900574">
  <ele>357.96</ele>
  <time>2026-09-01T19:51:10Z</time>
  <course>43.63</course>
  <speed>0.34058772731852804</speed>
  <fix>3d</fix>
</trkpt>
<trkpt lat="-27.2744411" lon="151.2900574">
  <ele>358.12</ele>
  <time>2026-09-01T19:51:10Z</time>
  <course>354.42</course>
  <speed>0.33</speed>
  <fix>3d</fix>
</trkpt>
<trkpt lat="-27.2744399" lon="151.2900573">
  <ele>357.96</ele>
  <time>2026-09-01T19:51:10Z</time>
  <course>42.16</course>
  <speed>0.3505709628591621</speed>
  <fix>3d</fix>
</trkpt>
<trkpt lat="-27.2744405" lon="151.2900574">
  <ele>358.12</ele>
  <time>2026-09-01T19:51:10Z</time>
  <course>355.2</course>
  <speed>0.34</speed>
  <fix>3d</fix>
</trkpt>
<trkpt lat="-27.2744396" lon="151.2900573">
  <ele>357.96</ele>
  <time>2026-09-01T19:51:10Z</time>
  <course>40.68</course>
  <speed>0.3505709628591621</speed>
  <fix>3d</fix>
</trkpt>
<trkpt lat="-27.2744405" lon="151.2900574">
  <ele>358.12</ele>
  <time>2026-09-01T19:51:10Z</time>
  <course>355.2</course>
  <speed>0.34</speed>
  <fix>3d</fix>
</trkpt>
<trkpt lat="-27.2744393" lon="151.2900573">
  <ele>357.96</ele>
  <time>2026-09-01T19:51:10Z</time>
  <course>39.36</course>
  <speed>0.3605551275463989</speed>
  <fix>3d</fix>
</trkpt>
<trkpt lat="-27.2744399" lon="151.2900573">
  <ele>358.12</ele>
  <time>2026-09-01T19:51:10Z</time>
  <course>355.96</course>
  <speed>0.35</speed>
  <fix>3d</fix>
</trkpt>
<trkpt lat="-27.274439" lon="151.2900573">
  <ele>357.96</ele>
  <time>2026-09-01T19:51:10Z</time>
  <course>38.46</course>
  <speed>0.36013886210738216</speed>
  <fix>3d</fix>
</trkpt>
<trkpt lat="-27.2744399" lon="151.2900573">
  <ele>358.12</ele>
  <time>2026-09-01T19:51:10Z</time>
  <course>355.96</course>
  <speed>0.35</speed>
  <fix>3d</fix>
</trkpt>
<trkpt lat="-27.2744386" lon="151.2900573">
  <ele>357.95</ele>
  <time>2026-09-01T19:51:10Z</time>
  <course>38.08</course>
  <speed>0.36013886210738216</speed>
  <fix>3d</fix>
</trkpt>
<trkpt lat="-27.2744392" lon="151.2900573">
  <ele>358.11</ele>
  <time>2026-09-01T19:51:10Z</time>
  <course>356.75</course>
  <speed>0.36</speed>
  <fix>3d</fix>
</trkpt>
<trkpt lat="-27.2744383" lon="151.2900573">
  <ele>357.95</ele>
  <time>2026-09-01T19:51:10Z</time>
  <course>38.18</course>
  <speed>0.36013886210738216</speed>
  <fix>3d</fix>
</trkpt>
<trkpt lat="-27.2744392" lon="151.2900573">
  <ele>358.11</ele>
  <time>2026-09-01T19:51:10Z</time>
  <course>356.75</course>
  <speed>0.36</speed>
  <fix>3d</fix>
</trkpt>
<trkpt lat="-27.274438" lon="151.2900573">
  <ele>357.96</ele>
  <time>2026-09-01T19:51:10Z</time>
  <course>38.63</course>
  <speed>0.36</speed>
  <fix>3d</fix>
</trkpt>
<trkpt lat="-27.2744386" lon="151.2900572">
  <ele>358.11</ele>
  <time>2026-09-01T19:51:10Z</time>
  <course>357.71</course>
  <speed>0.36</speed>
  <fix>3d</fix>
</trkpt>
<trkpt lat="-27.2744377" lon="151.2900572">
  <ele>357.96</ele>
  <time>2026-09-01T19:51:10Z</time>
  <course>39.3</course>
  <speed>0.36</speed>
  <fix>3d</fix>
</trkpt>
<trkpt lat="-27.2744386" lon="151.2900572">
  <ele>358.11</ele>
  <time>2026-09-01T19:51:10Z</time>
  <course>357.71</course>
  <speed>0.36</speed>
  <fix>3d</fix>
</trkpt>
<trkpt lat="-27.2744373" lon="151.2900572">
  <ele>357.96</ele>
  <time>2026-09-01T19:51:10Z</time>
  <course>40.05</course>
  <speed>0.36</speed>
  <fix>3d</fix>
</trkpt>
<trkpt lat="-27.2744379" lon="151.2900572">
  <ele>358.11</ele>
  <time>2026-09-01T19:51:10Z</time>
  <course>358.86</course>
  <speed>0.36</speed>
  <fix>3d</fix>
</trkpt>
<trkpt lat="-27.274437" lon="151.2900572">
  <ele>357.96</ele>
  <time>2026-09-01T19:51:10Z</time>
  <course>40.75</course>
  <speed>0.36</speed>
  <fix>3d</fix>
</trkpt>
<trkpt lat="-27.2744379" lon="151.2900572">
  <ele>358.11</ele>
  <time>2026-09-01T19:51:10Z</time>
  <course>358.86</course>
  <speed>0.36</speed>
  <fix>3d</fix>
</trkpt>
<trkpt lat="-27.2744367" lon="151.2900573">
  <ele>357.96</ele>
  <time>2026-09-01T19:51:10Z</time>
  <course>41.3</course>
  <speed>0.36</speed>
  <fix>3d</fix>
</trkpt>
<trkpt lat="-27.2744372" lon="151.2900572">
  <ele>358.11</ele>
  <time>2026-09-01T19:51:10Z</time>
  <course>0.08</course>
  <speed>0.36</speed>
  <fix>3d</fix>
</trkpt>
<trkpt lat="-27.2744364" lon="151.2900573">
  <ele>357.96</ele>
  <time>2026-09-01T19:51:10Z</time>
  <course>41.67</course>
  <speed>0.35014282800023194</speed>
  <fix>3d</fix>
</trkpt>
<trkpt lat="-27.2744372" lon="151.2900572">
  <ele>358.11</ele>
  <time>2026-09-01T19:51:10Z</time>
  <course>0.08</course>
  <speed>0.36</speed>
  <fix>3d</fix>
</trkpt>
<trkpt lat="-27.274436" lon="151.2900573">
  <ele>357.95</ele>
  <time>2026-09-01T19:51:10Z</time>
  <course>41.83</course>
  <speed>0.35014282800023194</speed>
  <fix>3d</fix>
</trkpt>
<trkpt lat="-27.2744366" lon="151.2900572">
  <ele>358.11</ele>
  <time>2026-09-01T19:51:10Z</time>
  <course>1.33</course>
  <speed>0.36</speed>
  <fix>3d</fix>
</trkpt>
<trkpt lat="-27.2744357" lon="151.2900573">
  <ele>357.95</ele>
  <time>2026-09-01T19:51:10Z</time>
  <course>41.8</course>
  <speed>0.35014282800023194</speed>
  <fix>3d</fix>
</trkpt>
<trkpt lat="-27.2744366" lon="151.2900572">
  <ele>358.11</ele>
  <time>2026-09-01T19:51:10Z</time>
  <course>1.33</course>
  <speed>0.36</speed>
  <fix>3d</fix>
</trkpt>
<trkpt lat="-27.2744354" lon="151.2900573">
  <ele>357.95</ele>
  <time>2026-09-01T19:51:10Z</time>
  <course>42.15</course>
  <speed>0.3505709628591621</speed>
  <fix>3d</fix>
</trkpt>
<trkpt lat="-27.274436" lon="151.2900572">
  <ele>358.11</ele>
  <time>2026-09-01T19:51:10Z</time>
  <course>2.59</course>
  <speed>0.35</speed>
  <fix>3d</fix>
</trkpt>
<trkpt lat="-27.2744351" lon="151.2900573">
  <ele>357.95</ele>
  <time>2026-09-01T19:51:10Z</time>
  <course>44.03</course>
  <speed>0.34058772731852804</speed>
  <fix>3d</fix>
</trkpt>
<trkpt lat="-27.274436" lon="151.2900572">
  <ele>358.11</ele>
  <time>2026-09-01T19:51:10Z</time>
  <course>2.59</course>
  <speed>0.35</speed>
  <fix>3d</fix>
</trkpt>
<trkpt lat="-27.2744348" lon="151.2900573">
  <ele>357.95</ele>
  <time>2026-09-01T19:51:10Z</time>
  <course>46.27</course>
  <speed>0.34132096331752027</speed>
  <fix>3d</fix>
</trkpt>
<trkpt lat="-27.2744353" lon="151.2900573">
  <ele>358.11</ele>
  <time>2026-09-01T19:51:10Z</time>
  <course>3.87</course>
  <speed>0.35</speed>
  <fix>3d</fix>
</trkpt>
<trkpt lat="-27.2744345" lon="151.2900573">
  <ele>357.95</ele>
  <time>2026-09-01T19:51:10Z</time>
  <course>48.4</course>
  <speed>0.34132096331752027</speed>
  <fix>3d</fix>
</trkpt>
<trkpt lat="-27.2744353" lon="151.2900573">
  <ele>358.11</ele>
  <time>2026-09-01T19:51:10Z</time>
  <course>3.87</course>
  <speed>0.35</speed>
  <fix>3d</fix>
</trkpt>
<trkpt lat="-27.2744342" lon="151.2900573">
  <ele>357.95</ele>
  <time>2026-09-01T19:51:10Z</time>
  <course>50.32</course>
  <speed>0.3313608305156178</speed>
  <fix>3d</fix>
</trkpt>
<trkpt lat="-27.2744347" lon="151.2900573">
  <ele>358.11</ele>
  <time>2026-09-01T19:51:10Z</time>
  <course>5.14</course>
  <speed>0.34</speed>
  <fix>3d</fix>
</trkpt>
<trkpt lat="-27.2744339" lon="151.2900574">
  <ele>357.95</ele>
  <time>2026-09-01T19:51:10Z</time>
  <course>51.58</course>
  <speed>0.33241540277189324</speed>
  <fix>3d</fix>
</trkpt>
<trkpt lat="-27.2744347" lon="151.2900573">
  <ele>358.11</ele>
  <time>2026-09-01T19:51:10Z</time>
  <course>5.14</course>
  <speed>0.34</speed>
  <fix>3d</fix>
</trkpt>
<trkpt lat="-27.2744336" lon="151.2900574">
  <ele>357.95</ele>
  <time>2026-09-01T19:51:10Z</time>
  <course>52.04</course>
  <speed>0.33241540277189324</speed>
  <fix>3d</fix>
</trkpt>
<trkpt lat="-27.2744341" lon="151.2900573">
  <ele>358.11</ele>
  <time>2026-09-01T19:51:10Z</time>
  <course>6.45</course>
  <speed>0.34</speed>
  <fix>3d</fix>
</trkpt>
<trkpt lat="-27.2744333" lon="151.2900575">
  <ele>357.96</ele>
  <time>2026-09-01T19:51:10Z</time>
  <course>51.79</course>
  <speed>0.32249030993194194</speed>
  <fix>3d</fix>
</trkpt>
<trkpt lat="-27.2744341" lon="151.2900573">
  <ele>358.11</ele>
  <time>2026-09-01T19:51:10Z</time>
  <course>6.45</course>
  <speed>0.34</speed>
  <fix>3d</fix>
</trkpt>
<trkpt lat="-27.274433" lon="151.2900575">
  <ele>357.96</ele>
  <time>2026-09-01T19:51:10Z</time>
  <course>51.01</course>
  <speed>0.3238826948140329</speed>
  <fix>3d</fix>
</trkpt>
<trkpt lat="-27.2744335" lon="151.2900574">
  <ele>358.11</ele>
  <time>2026-09-01T19:51:10Z</time>
  <course>7.86</course>
  <speed>0.33</speed>
  <fix>3d</fix>
</trkpt>
<trkpt lat="-27.2744327" lon="151.2900576">
  <ele>357.95</ele>
  <time>2026-09-01T19:51:10Z</time>
  <course>49.93</course>
  <speed>0.31400636936215165</speed>
  <fix>3d</fix>
</trkpt>
<trkpt lat="-27.2744335" lon="151.2900574">
  <ele>358.11</ele>
  <time>2026-09-01T19:51:10Z</time>
  <course>7.86</course>
  <speed>0.33</speed>
  <fix>3d</fix>
</trkpt>
<trkpt lat="-27.2744324" lon="151.2900576">
  <ele>357.95</ele>
  <time>2026-09-01T19:51:10Z</time>
  <course>48.76</course>
  <speed>0.31400636936215165</speed>
  <fix>3d</fix>
</trkpt>
<trkpt lat="-27.2744329" lon="151.2900575">
  <ele>358.11</ele>
  <time>2026-09-01T19:51:10Z</time>
  <course>9.43</course>
  <speed>0.32</speed>
  <fix>3d</fix>
</trkpt>
<trkpt lat="-27.2744321" lon="151.2900577">
  <ele>357.95</ele>
  <time>2026-09-01T19:51:10Z</time>
  <course>47.68</course>
  <speed>0.3059411708155671</speed>
  <fix>3d</fix>
</trkpt>
<trkpt lat="-27.2744329" lon="151.2900575">
  <ele>358.11</ele>
  <time>2026-09-01T19:51:10Z</time>
  <course>9.43</course>
  <speed>0.32</speed>
  <fix>3d</fix>
</trkpt>
<trkpt lat="-27.2744319" lon="151.2900577">
  <ele>357.95</ele>
  <time>2026-09-01T19:51:10Z</time>
  <course>46.88</course>
  <speed>0.29614185789921693</speed>
  <fix>3d</fix>
</trkpt>
<trkpt lat="-27.2744323" lon="151.2900576">
  <ele>358.11</ele>
  <time>2026-09-01T19:51:10Z</time>
  <course>11.12</course>
  <speed>0.31</speed>
  <fix>3d</fix>
</trkpt>
<trkpt lat="-27.2744316" lon="151.2900578">
  <ele>357.95</ele>
  <time>2026-09-01T19:51:10Z</time>
  <course>45.98</course>
  <speed>0.29832867780352595</speed>
  <fix>3d</fix>
</trkpt>
<trkpt lat="-27.2744323" lon="151.2900576">
  <ele>358.11</ele>
  <time>2026-09-01T19:51:10Z</time>
  <course>11.12</course>
  <speed>0.31</speed>
  <fix>3d</fix>
</trkpt>
<trkpt lat="-27.2744313" lon="151.2900579">
  <ele>357.95</ele>
  <time>2026-09-01T19:51:10Z</time>
  <course>44.5</course>
  <speed>0.28861739379323625</speed>
  <fix>3d</fix>
</trkpt>
<trkpt lat="-27.2744318" lon="151.2900577">
  <ele>358.11</ele>
  <time>2026-09-01T19:51:10Z</time>
  <course>12.93</course>
  <speed>0.3</speed>
  <fix>3d</fix>
</trkpt>
<trkpt lat="-27.2744311" lon="151.2900579">
  <ele>357.95</ele>
  <time>2026-09-01T19:51:10Z</time>
  <course>42.96</course>
  <speed>0.28861739379323625</speed>
  <fix>3d</fix>
</trkpt>
<trkpt lat="-27.2744318" lon="151.2900577">
  <ele>358.11</ele>
  <time>2026-09-01T19:51:10Z</time>
  <course>12.93</course>
  <speed>0.3</speed>
  <fix>3d</fix>
</trkpt>
<trkpt lat="-27.2744308" lon="151.290058">
  <ele>357.95</ele>
  <time>2026-09-01T19:51:10Z</time>
  <course>41.47</course>
  <speed>0.2816025568065745</speed>
  <fix>3d</fix>
</trkpt>
<trkpt lat="-27.2744312" lon="151.2900579">
  <ele>358.11</ele>
  <time>2026-09-01T19:51:10Z</time>
  <course>14.86</course>
  <speed>0.29</speed>
  <fix>3d</fix>
</trkpt>
<trkpt lat="-27.2744306" lon="151.2900581">
  <ele>357.95</ele>
  <time>2026-09-01T19:51:10Z</time>
  <course>40.02</course>
  <speed>0.2720294101747089</speed>
  <fix>3d</fix>
</trkpt>
<trkpt lat="-27.2744312" lon="151.2900579">
  <ele>358.11</ele>
  <time>2026-09-01T19:51:10Z</time>
  <course>14.86</course>
  <speed>0.29</speed>
  <fix>3d</fix>
</trkpt>
<trkpt lat="-27.2744303" lon="151.2900582">
  <ele>357.95</ele>
  <time>2026-09-01T19:51:10Z</time>
  <course>38.85</course>
  <speed>0.2720294101747089</speed>
  <fix>3d</fix>
</trkpt>
<trkpt lat="-27.2744307" lon="151.2900581">
  <ele>358.11</ele>
  <time>2026-09-01T19:51:10Z</time>
  <course>16.91</course>
  <speed>0.28</speed>
  <fix>3d</fix>
</trkpt>
<trkpt lat="-27.2744301" lon="151.2900583">
  <ele>357.95</ele>
  <time>2026-09-01T19:51:10Z</time>
  <course>38.17</course>
  <speed>0.26570660511172844</speed>
  <fix>3d</fix>
</trkpt>
<trkpt lat="-27.2744307" lon="151.2900581">
  <ele>358.11</ele>
  <time>2026-09-01T19:51:10Z</time>
  <course>16.91</course>
  <speed>0.28</speed>
  <fix>3d</fix>
</trkpt>
<trkpt lat="-27.2744299" lon="151.2900584">
  <ele>357.95</ele>
  <time>2026-09-01T19:51:10Z</time>
  <course>38.02</course>
  <speed>0.25632011235952595</speed>
  <fix>3d</fix>
</trkpt>
<trkpt lat="-27.2744302" lon="151.2900582">
  <ele>358.11</ele>
  <time>2026-09-01T19:51:10Z</time>
  <course>19.08</course>
  <speed>0.27</speed>
  <fix>3d</fix>
</trkpt>
<trkpt lat="-27.2744297" lon="151.2900585">
  <ele>357.95</ele>
  <time>2026-09-01T19:51:10Z</time>
  <course>38.29</course>
  <speed>0.24698178070456936</speed>
  <fix>3d</fix>
</trkpt>
<trkpt lat="-27.2744302" lon="151.2900582">
  <ele>358.11</ele>
  <time>2026-09-01T19:51:10Z</time>
  <course>19.08</course>
  <speed>0.27</speed>
  <fix>3d</fix>
</trkpt>
<trkpt lat="-27.2744294" lon="151.2900586">
  <ele>357.95</ele>
  <time>2026-09-01T19:51:10Z</time>
  <course>38.87</course>
  <speed>0.23769728648009425</speed>
  <fix>3d</fix>
</trkpt>
<trkpt lat="-27.2744298" lon="151.2900584">
  <ele>358.11</ele>
  <time>2026-09-01T19:51:10Z</time>
  <course>21.35</course>
  <speed>0.26</speed>
  <fix>3d</fix>
</trkpt>
<trkpt lat="-27.2744292" lon="151.2900587">
  <ele>357.95</ele>
  <time>2026-09-01T19:51:10Z</time>
  <course>39.61</course>
  <speed>0.24166091947189144</speed>
  <fix>3d</fix>
</trkpt>
<trkpt lat="-27.2744298" lon="151.2900584">
  <ele>358.11</ele>
  <time>2026-09-01T19:51:10Z</time>
  <course>21.35</course>
  <speed>0.26</speed>
  <fix>3d</fix>
</trkpt>
<trkpt lat="-27.274429" lon="151.2900588">
  <ele>357.96</ele>
  <time>2026-09-01T19:51:10Z</time>
  <course>40.37</course>
  <speed>0.23259406699226015</speed>
  <fix>3d</fix>
</trkpt>
<trkpt lat="-27.2744294" lon="151.2900586">
  <ele>358.11</ele>
  <time>2026-09-01T19:51:10Z</time>
  <course>23.79</course>
  <speed>0.25</speed>
  <fix>3d</fix>
</trkpt>
<trkpt lat="-27.2744289" lon="151.2900589">
  <ele>357.96</ele>
  <time>2026-09-01T19:51:10Z</time>
  <course>41.03</course>
  <speed>0.223606797749979</speed>
  <fix>3d</fix>
</trkpt>
<trkpt lat="-27.2744294" lon="151.2900586">
  <ele>358.11</ele>
  <time>2026-09-01T19:51:10Z</time>
  <course>23.79</course>
  <speed>0.25</speed>
  <fix>3d</fix>
</trkpt>
<trkpt lat="-27.2744287" lon="151.290059">
  <ele>357.96</ele>
  <time>2026-09-01T19:51:10Z</time>
  <course>41.52</course>
  <speed>0.21470910553583888</speed>
  <fix>3d</fix>
</trkpt>
<trkpt lat="-27.274429" lon="151.2900588">
  <ele>358.11</ele>
  <time>2026-09-01T19:51:10Z</time>
  <course>26.52</course>
  <speed>0.23</speed>
  <fix>3d</fix>
</trkpt>
<trkpt lat="-27.2744285" lon="151.2900591">
  <ele>357.96</ele>
  <time>2026-09-01T19:51:10Z</time>
  <course>41.81</course>
  <speed>0.20591260281974003</speed>
  <fix>3d</fix>
</trkpt>
<trkpt lat="-27.274429" lon="151.2900588">
  <ele>358.11</ele>
  <time>2026-09-01T19:51:10Z</time>
  <course>26.52</course>
  <speed>0.23</speed>
  <fix>3d</fix>
</trkpt>
<trkpt lat="-27.2744284" lon="151.2900592">
  <ele>357.96</ele>
  <time>2026-09-01T19:51:10Z</time>
  <course>41.88</course>
  <speed>0.20248456731316586</speed>
  <fix>3d</fix>
</trkpt>
<trkpt lat="-27.2744286" lon="151.2900591">
  <ele>358.11</ele>
  <time>2026-09-01T19:51:10Z</time>
  <course>29.66</course>
  <speed>0.22</speed>
  <fix>3d</fix>
</trkpt>
<trkpt lat="-27.2744282" lon="151.2900593">
  <ele>357.96</ele>
  <time>2026-09-01T19:51:10Z</time>
  <course>41.8</course>
  <speed>0.194164878389476</speed>
  <fix>3d</fix>
</trkpt>
<trkpt lat="-27.2744286" lon="151.2900591">
  <ele>358.11</ele>
  <time>2026-09-01T19:51:10Z</time>
  <course>29.66</course>
  <speed>0.22</speed>
  <fix>3d</fix>
</trkpt>
<trkpt lat="-27.2744281" lon="151.2900594">
  <ele>357.96</ele>
  <time>2026-09-01T19:51:10Z</time>
  <course>42.91</course>
  <speed>0.18601075237738274</speed>
  <fix>3d</fix>
</trkpt>
<trkpt lat="-27.2744282" lon="151.2900593">
  <ele>358.11</ele>
  <time>2026-09-01T19:51:10Z</time>
  <course>33.26</course>
  <speed>0.2</speed>
  <fix>3d</fix>
</trkpt>
<trkpt lat="-27.2744279" lon="151.2900596">
  <ele>357.96</ele>
  <time>2026-09-01T19:51:10Z</time>
  <course>45.15</course>
  <speed>0.17804493814764857</speed>
  <fix>3d</fix>
</trkpt>
<trkpt lat="-27.2744282" lon="151.2900593">
  <ele>358.11</ele>
  <time>2026-09-01T19:51:10Z</time>
  <course>33.26</course>
  <speed>0.2</speed>
  <fix>3d</fix>
</trkpt>
<trkpt lat="-27.2744278" lon="151.2900597">
  <ele>357.96</ele>
  <time>2026-09-01T19:51:10Z</time>
  <course>47.23</course>
  <speed>0.17029386365926402</speed>
  <fix>3d</fix>
</trkpt>
<trkpt lat="-27.274428" lon="151.2900595">
  <ele>358.11</ele>
  <time>2026-09-01T19:51:10Z</time>
  <course>37.38</course>
  <speed>0.19</speed>
  <fix>3d</fix>
</trkpt>
<trkpt lat="-27.2744277" lon="151.2900598">
  <ele>357.96</ele>
  <time>2026-09-01T19:51:10Z</time>
  <course>48.58</course>
  <speed>0.1697056274847714</speed>
  <fix>3d</fix>
</trkpt>
<trkpt lat="-27.274428" lon="151.2900595">
  <ele>358.11</ele>
  <time>2026-09-01T19:51:10Z</time>
  <course>37.38</course>
  <speed>0.19</speed>
  <fix>3d</fix>
</trkpt>
<trkpt lat="-27.2744276" lon="151.2900599">
  <ele>357.96</ele>
  <time>2026-09-01T19:51:10Z</time>
  <course>49.06</course>
  <speed>0.16278820596099705</speed>
  <fix>3d</fix>
</trkpt>
<trkpt lat="-27.2744277" lon="151.2900598">
  <ele>358.11</ele>
  <time>2026-09-01T19:51:10Z</time>
  <course>42.1</course>
  <speed>0.18</speed>
  <fix>3d</fix>
</trkpt>
<trkpt lat="-27.2744275" lon="151.2900601">
  <ele>357.96</ele>
  <time>2026-09-01T19:51:10Z</time>
  <course>48.77</course>
  <speed>0.15620499351813308</speed>
  <fix>3d</fix>
</trkpt>
<trkpt lat="-27.2744277" lon="151.2900598">
  <ele>358.11</ele>
  <time>2026-09-01T19:51:10Z</time>
  <course>42.1</course>
  <speed>0.18</speed>
  <fix>3d</fix>
</trkpt>
<trkpt lat="-27.2744274" lon="151.2900602">
  <ele>357.95</ele>
  <time>2026-09-01T19:51:10Z</time>
  <course>47.93</course>
  <speed>0.15</speed>
  <fix>3d</fix>
</trkpt>
<trkpt lat="-27.2744275" lon="151.29006">
  <ele>358.1</ele>
  <time>2026-09-01T19:51:10Z</time>
  <course>47.65</course>
  <speed>0.17</speed>
  <fix>3d</fix>
</trkpt>
<trkpt lat="-27.2744273" lon="151.2900603">
  <ele>357.95</ele>
  <time>2026-09-01T19:51:10Z</time>
  <course>46.75</course>
  <speed>0.15264337522473748</speed>
  <fix>3d</fix>
</trkpt>
<trkpt lat="-27.2744275" lon="151.29006">
  <ele>358.1</ele>
  <time>2026-09-01T19:51:10Z</time>
  <course>47.65</course>
  <speed>0.17</speed>
  <fix>3d</fix>
</trkpt>
<trkpt lat="-27.2744272" lon="151.2900605">
  <ele>357.95</ele>
  <time>2026-09-01T19:51:10Z</time>
  <course>45.46</course>
  <speed>0.147648230602334</speed>
  <fix>3d</fix>
</trkpt>
<trkpt lat="-27.2744273" lon="151.2900603">
  <ele>358.1</ele>
  <time>2026-09-01T19:51:10Z</time>
  <course>54.14</course>
  <speed>0.16</speed>
  <fix>3d</fix>
</trkpt>
<trkpt lat="-27.2744272" lon="151.2900606">
  <ele>357.95</ele>
  <time>2026-09-01T19:51:10Z</time>
  <course>44.27</course>
  <speed>0.14317821063276354</speed>
  <fix>3d</fix>
</trkpt>
<trkpt lat="-27.2744273" lon="151.2900603">
  <ele>358.1</ele>
  <time>2026-09-01T19:51:10Z</time>
  <course>54.14</course>
  <speed>0.16</speed>
  <fix>3d</fix>
</trkpt>
<trkpt lat="-27.2744271" lon="151.2900607">
  <ele>357.95</ele>
  <time>2026-09-01T19:51:10Z</time>
  <course>43.34</course>
  <speed>0.1392838827718412</speed>
  <fix>3d</fix>
</trkpt>
<trkpt lat="-27.2744271" lon="151.2900605">
  <ele>358.1</ele>
  <time>2026-09-01T19:51:10Z</time>
  <course>61.52</course>
  <speed>0.15</speed>
  <fix>3d</fix>
</trkpt>
<trkpt lat="-27.2744271" lon="151.2900609">
  <ele>357.95</ele>
  <time>2026-09-01T19:51:10Z</time>
  <course>42.59</course>
  <speed>0.13341664064126335</speed>
  <fix>3d</fix>
</trkpt>
<trkpt lat="-27.2744271" lon="151.2900605">
  <ele>358.1</ele>
  <time>2026-09-01T19:51:10Z</time>
  <course>61.52</course>
  <speed>0.15</speed>
  <fix>3d</fix>
</trkpt>
<trkpt lat="-27.274427" lon="151.290061">
  <ele>357.94</ele>
  <time>2026-09-01T19:51:10Z</time>
  <course>41.2</course>
  <speed>0.13152946437965907</speed>
  <fix>3d</fix>
</trkpt>
<trkpt lat="-27.274427" lon="151.2900608">
  <ele>358.1</ele>
  <time>2026-09-01T19:51:10Z</time>
  <course>69.67</course>
  <speed>0.14</speed>
  <fix>3d</fix>
</trkpt>
<trkpt lat="-27.274427" lon="151.2900611">
  <ele>357.94</ele>
  <time>2026-09-01T19:51:10Z</time>
  <course>39.7</course>
  <speed>0.130384048104053</speed>
  <fix>3d</fix>
</trkpt>
<trkpt lat="-27.274427" lon="151.2900608">
  <ele>358.1</ele>
  <time>2026-09-01T19:51:10Z</time>
  <course>69.67</course>
  <speed>0.14</speed>
  <fix>3d</fix>
</trkpt>
<trkpt lat="-27.274427" lon="151.2900613">
  <ele>357.94</ele>
  <time>2026-09-01T19:51:10Z</time>
  <course>38.26</course>
  <speed>0.14</speed>
  <fix>3d</fix>
</trkpt>
<trkpt lat="-27.274427" lon="151.2900611">
  <ele>358.1</ele>
  <time>2026-09-01T19:51:10Z</time>
  <course>78.47</course>
  <speed>0.14</speed>
  <fix>3d</fix>
</trkpt>
<trkpt lat="-27.274427" lon="151.2900614">
  <ele>357.94</ele>
  <time>2026-09-01T19:51:10Z</time>
  <course>36.97</course>
  <speed>0.14</speed>
  <fix>3d</fix>
</trkpt>
<trkpt lat="-27.274427" lon="151.2900611">
  <ele>358.1</ele>
  <time>2026-09-01T19:51:10Z</time>
  <course>78.47</course>
  <speed>0.14</speed>
  <fix>3d</fix>
</trkpt>
<trkpt lat="-27.274427" lon="151.2900616">
  <ele>357.94</ele>
  <time>2026-09-01T19:51:10Z</time>
  <course>36.12</course>
  <speed>0.140356688476182</speed>
  <fix>3d</fix>
</trkpt>
<trkpt lat="-27.2744269" lon="151.2900613">
  <ele>358.1</ele>
  <time>2026-09-01T19:51:10Z</time>
  <course>87.54</course>
  <speed>0.14</speed>
  <fix>3d</fix>
</trkpt>
<trkpt lat="-27.274427" lon="151.2900617">
  <ele>357.94</ele>
  <time>2026-09-01T19:51:10Z</time>
  <course>35.77</course>
  <speed>0.1414213562373095</speed>
  <fix>3d</fix>
</trkpt>
<trkpt lat="-27.2744269" lon="151.2900613">
  <ele>358.1</ele>
  <time>2026-09-01T19:51:10Z</time>
  <course>87.54</course>
  <speed>0.14</speed>
  <fix>3d</fix>
</trkpt>
<trkpt lat="-27.274427" lon="151.2900619">
  <ele>357.94</ele>
  <time>2026-09-01T19:51:10Z</time>
  <course>35.89</course>
  <speed>0.14317821063276354</speed>
  <fix>3d</fix>
</trkpt>
<trkpt lat="-27.2744269" lon="151.2900616">
  <ele>358.1</ele>
  <time>2026-09-01T19:51:10Z</time>
  <course>96.47</course>
  <speed>0.14</speed>
  <fix>3d</fix>
</trkpt>
<trkpt lat="-27.274427" lon="151.290062">
  <ele>357.94</ele>
  <time>2026-09-01T19:51:10Z</time>
  <course>36.37</course>
  <speed>0.14866068747318506</speed>
  <fix>3d</fix>
</trkpt>
<trkpt lat="-27.2744269" lon="151.2900616">
  <ele>358.1</ele>
  <time>2026-09-01T19:51:10Z</time>
  <course>96.47</course>
  <speed>0.14</speed>
  <fix>3d</fix>
</trkpt>
<trkpt lat="-27.274427" lon="151.2900621">
  <ele>357.94</ele>
  <time>2026-09-01T19:51:10Z</time>
  <course>37.06</course>
  <speed>0.15231546211727817</speed>
  <fix>3d</fix>
</trkpt>
<trkpt lat="-27.274427" lon="151.2900619">
  <ele>358.1</ele>
  <time>2026-09-01T19:51:10Z</time>
  <course>105.06</course>
  <speed>0.14</speed>
  <fix>3d</fix>
</trkpt>
<trkpt lat="-27.2744271" lon="151.2900623">
  <ele>357.94</ele>
  <time>2026-09-01T19:51:10Z</time>
  <course>37.82</course>
  <speed>0.15652475842498528</speed>
  <fix>3d</fix>
</trkpt>
<trkpt lat="-27.274427" lon="151.2900619">
  <ele>358.1</ele>
  <time>2026-09-01T19:51:10Z</time>
  <course>105.06</course>
  <speed>0.14</speed>
  <fix>3d</fix>
</trkpt>
<trkpt lat="-27.2744272" lon="151.2900624">
  <ele>357.94</ele>
  <time>2026-09-01T19:51:10Z</time>
  <course>38.52</course>
  <speed>0.15264337522473748</speed>
  <fix>3d</fix>
</trkpt>
<trkpt lat="-27.274427" lon="151.2900622">
  <ele>358.1</ele>
  <time>2026-09-01T19:51:10Z</time>
  <course>113.15</course>
  <speed>0.15</speed>
  <fix>3d</fix>
</trkpt>
<trkpt lat="-27.2744272" lon="151.2900626">
  <ele>357.94</ele>
  <time>2026-09-01T19:51:10Z</time>
  <course>39.08</course>
  <speed>0.15811388300841897</speed>
  <fix>3d</fix>
</trkpt>
<trkpt lat="-27.274427" lon="151.2900622">
  <ele>358.1</ele>
  <time>2026-09-01T19:51:10Z</time>
  <course>113.15</course>
  <speed>0.15</speed>
  <fix>3d</fix>
</trkpt>
<trkpt lat="-27.2744273" lon="151.2900627">
  <ele>357.94</ele>
  <time>2026-09-01T19:51:10Z</time>
  <course>39.43</course>
  <speed>0.16401219466856726</speed>
  <fix>3d</fix>
</trkpt>
<trkpt lat="-27.2744271" lon="151.2900625">
  <ele>358.11</ele>
  <time>2026-09-01T19:51:10Z</time>
  <course>120.56</course>
  <speed>0.16</speed>
  <fix>3d</fix>
</trkpt>
<trkpt lat="-27.2744274" lon="151.2900628">
  <ele>357.94</ele>
  <time>2026-09-01T19:51:10Z</time>
  <course>39.58</course>
  <speed>0.17029386365926402</speed>
  <fix>3d</fix>
</trkpt>
<trkpt lat="-27.2744271" lon="151.2900625">
  <ele>358.11</ele>
  <time>2026-09-01T19:51:10Z</time>
  <course>120.56</course>
  <speed>0.16</speed>
  <fix>3d</fix>
</trkpt>
<trkpt lat="-27.2744275" lon="151.290063">
  <ele>357.94</ele>
  <time>2026-09-01T19:51:10Z</time>
  <course>39.54</course>
  <speed>0.1769180601295413</speed>
  <fix>3d</fix>
</trkpt>
<trkpt lat="-27.2744273" lon="151.2900628">
  <ele>358.11</ele>
  <time>2026-09-01T19:51:10Z</time>
  <course>127.11</course>
  <speed>0.17</speed>
  <fix>3d</fix>
</trkpt>
<trkpt lat="-27.2744276" lon="151.2900631">
  <ele>357.94</ele>
  <time>2026-09-01T19:51:10Z</time>
  <course>39.96</course>
  <speed>0.18384776310850234</speed>
  <fix>3d</fix>
</trkpt>
<trkpt lat="-27.2744273" lon="151.2900628">
  <ele>358.11</ele>
  <time>2026-09-01T19:51:10Z</time>
  <course>127.11</course>
  <speed>0.17</speed>
  <fix>3d</fix>
</trkpt>
<trkpt lat="-27.2744277" lon="151.2900633">
  <ele>357.94</ele>
  <time>2026-09-01T19:51:10Z</time>
  <course>42.01</course>
  <speed>0.191049731745428</speed>
  <fix>3d</fix>
</trkpt>
<trkpt lat="-27.2744275" lon="151.2900631">
  <ele>358.11</ele>
  <time>2026-09-01T19:51:10Z</time>
  <course>132.38</course>
  <speed>0.18</speed>
  <fix>3d</fix>
</trkpt>
<trkpt lat="-27.2744279" lon="151.2900634">
  <ele>357.94</ele>
  <time>2026-09-01T19:51:10Z</time>
  <course>44.23</course>
  <speed>0.19849433241279207</speed>
  <fix>3d</fix>
</trkpt>
<trkpt lat="-27.2744275" lon="151.2900631">
  <ele>358.11</ele>
  <time>2026-09-01T19:51:10Z</time>
  <course>132.38</course>
  <speed>0.18</speed>
  <fix>3d</fix>
</trkpt>
<trkpt lat="-27.274428" lon="151.2900635">
  <ele>357.94</ele>
  <time>2026-09-01T19:51:10Z</time>
  <course>45.89</course>
  <speed>0.20615528128088303</speed>
  <fix>3d</fix>
</trkpt>
<trkpt lat="-27.2744277" lon="151.2900634">
  <ele>358.12</ele>
  <time>2026-09-01T19:51:10Z</time>
  <course>136.31</course>
  <speed>0.19</speed>
  <fix>3d</fix>
</trkpt>
<trkpt lat="-27.2744281" lon="151.2900637">
  <ele>357.94</ele>
  <time>2026-09-01T19:51:10Z</time>
  <course>46.68</course>
  <speed>0.20615528128088303</speed>
  <fix>3d</fix>
</trkpt>
<trkpt lat="-27.2744277" lon="151.2900634">
  <ele>358.12</ele>
  <time>2026-09-01T19:51:10Z</time>
  <course>136.31</course>
  <speed>0.19</speed>
  <fix>3d</fix>
</trkpt>
<trkpt lat="-27.2744283" lon="151.2900638">
  <ele>357.95</ele>
  <time>2026-09-01T19:51:10Z</time>
  <course>46.66</course>
  <speed>0.21400934559032694</speed>
  <fix>3d</fix>
</trkpt>
<trkpt lat="-27.274428" lon="151.2900636">
  <ele>358.12</ele>
  <time>2026-09-01T19:51:10Z</time>
  <course>139.4</course>
  <speed>0.21</speed>
  <fix>3d</fix>
</trkpt>
<trkpt lat="-27.2744284" lon="151.290064">
  <ele>357.95</ele>
  <time>2026-09-01T19:51:10Z</time>
  <course>46.01</course>
  <speed>0.22803508501982758</speed>
  <fix>3d</fix>
</trkpt>
<trkpt lat="-27.274428" lon="151.2900636">
  <ele>358.12</ele>
  <time>2026-09-01T19:51:10Z</time>
  <course>139.4</course>
  <speed>0.21</speed>
  <fix>3d</fix>
</trkpt>
<trkpt lat="-27.2744286" lon="151.2900641">
  <ele>357.95</ele>
  <time>2026-09-01T19:51:10Z</time>
  <course>44.94</course>
  <speed>0.23600847442411893</speed>
  <fix>3d</fix>
</trkpt>
<trkpt lat="-27.2744283" lon="151.2900639">
  <ele>358.12</ele>
  <time>2026-09-01T19:51:10Z</time>
  <course>141.75</course>
  <speed>0.22</speed>
  <fix>3d</fix>
</trkpt>
<trkpt lat="-27.2744288" lon="151.2900643">
  <ele>357.95</ele>
  <time>2026-09-01T19:51:10Z</time>
  <course>43.7</course>
  <speed>0.23600847442411893</speed>
  <fix>3d</fix>
</trkpt>
<trkpt lat="-27.2744283" lon="151.2900639">
  <ele>358.12</ele>
  <time>2026-09-01T19:51:10Z</time>
  <course>141.75</course>
  <speed>0.22</speed>
  <fix>3d</fix>
</trkpt>
<trkpt lat="-27.2744289" lon="151.2900644">
  <ele>357.95</ele>
  <time>2026-09-01T19:51:10Z</time>
  <course>42.47</course>
  <speed>0.24413111231467405</speed>
  <fix>3d</fix>
</trkpt>
<trkpt lat="-27.2744286" lon="151.2900642">
  <ele>358.12</ele>
  <time>2026-09-01T19:51:10Z</time>
  <course>143.2</course>
  <speed>0.23</speed>
  <fix>3d</fix>
</trkpt>
<trkpt lat="-27.2744291" lon="151.2900646">
  <ele>357.95</ele>
  <time>2026-09-01T19:51:10Z</time>
  <course>41.44</course>
  <speed>0.24413111231467405</speed>
  <fix>3d</fix>
</trkpt>
<trkpt lat="-27.2744286" lon="151.2900642">
  <ele>358.12</ele>
  <time>2026-09-01T19:51:10Z</time>
  <course>143.2</course>
  <speed>0.23</speed>
  <fix>3d</fix>
</trkpt>
<trkpt lat="-27.2744293" lon="151.2900647">
  <ele>357.95</ele>
  <time>2026-09-01T19:51:10Z</time>
  <course>40.76</course>
  <speed>0.25</speed>
  <fix>3d</fix>
</trkpt>
<trkpt lat="-27.274429" lon="151.2900645">
  <ele>358.12</ele>
  <time>2026-09-01T19:51:10Z</time>
  <course>143.98</course>
  <speed>0.25</speed>
  <fix>3d</fix>
</trkpt>
<trkpt lat="-27.2744295" lon="151.2900649">
  <ele>357.94</ele>
  <time>2026-09-01T19:51:10Z</time>
  <course>39.54</course>
  <speed>0.2580697580112788</speed>
  <fix>3d</fix>
</trkpt>
<trkpt lat="-27.274429" lon="151.2900645">
  <ele>358.12</ele>
  <time>2026-09-01T19:51:10Z</time>
  <course>143.98</course>
  <speed>0.25</speed>
  <fix>3d</fix>
</trkpt>
<trkpt lat="-27.2744297" lon="151.290065">
  <ele>357.94</ele>
  <time>2026-09-01T19:51:10Z</time>
  <course>38.01</course>
  <speed>0.2580697580112788</speed>
  <fix>3d</fix>
</trkpt>
<trkpt lat="-27.2744294" lon="151.2900648">
  <ele>358.13</ele>
  <time>2026-09-01T19:51:10Z</time>
  <course>144.41</course>
  <speed>0.25</speed>
  <fix>3d</fix>
</trkpt>
<trkpt lat="-27.2744299" lon="151.2900652">
  <ele>357.94</ele>
  <time>2026-09-01T19:51:10Z</time>
  <course>36.54</course>
  <speed>0.266270539113887</speed>
  <fix>3d</fix>
</trkpt>
<trkpt lat="-27.2744294" lon="151.2900648">
  <ele>358.13</ele>
  <time>2026-09-01T19:51:10Z</time>
  <course>144.41</course>
  <speed>0.25</speed>
  <fix>3d</fix>
</trkpt>
<trkpt lat="-27.2744301" lon="151.2900653">
  <ele>357.94</ele>
  <time>2026-09-01T19:51:10Z</time>
  <course>35.17</course>
  <speed>0.266270539113887</speed>
  <fix>3d</fix>
</trkpt>
<trkpt lat="-27.2744298" lon="151.2900651">
  <ele>358.13</ele>
  <time>2026-09-01T19:51:10Z</time>
  <course>144.64</course>
  <speed>0.26</speed>
  <fix>3d</fix>
</trkpt>
<trkpt lat="-27.2744303" lon="151.2900655">
  <ele>357.95</ele>
  <time>2026-09-01T19:51:10Z</time>
  <course>34.17</course>
  <speed>0.266270539113887</speed>
  <fix>3d</fix>
</trkpt>
<trkpt lat="-27.2744298" lon="151.2900651">
  <ele>358.13</ele>
  <time>2026-09-01T19:51:10Z</time>
  <course>144.64</course>
  <speed>0.26</speed>
  <fix>3d</fix>
</trkpt>
<trkpt lat="-27.2744305" lon="151.2900657">
  <ele>357.95</ele>
  <time>2026-09-01T19:51:11Z</time>
  <course>33.68</course>
  <speed>0.2720294101747089</speed>
  <fix>3d</fix>
</trkpt>
<trkpt lat="-27.2744302" lon="151.2900654">
  <ele>358.13</ele>
  <time>2026-09-01T19:51:11Z</time>
  <course>144.76</course>
  <speed>0.27</speed>
  <fix>3d</fix>
</trkpt>
<trkpt lat="-27.2744307" lon="151.2900658">
  <ele>357.95</ele>
  <time>2026-09-01T19:51:11Z</time>
  <course>33.68</course>
  <speed>0.2720294101747089</speed>
  <fix>3d</fix>
</trkpt>
<trkpt lat="-27.2744302" lon="151.2900654">
  <ele>358.13</ele>
  <time>2026-09-01T19:51:11Z</time>
  <course>144.76</course>
  <speed>0.27</speed>
  <fix>3d</fix>
</trkpt>
<trkpt lat="-27.2744309" lon="151.290066">
  <ele>357.95</ele>
  <time>2026-09-01T19:51:11Z</time>
  <course>34.07</course>
  <speed>0.280178514522438</speed>
  <fix>3d</fix>
</trkpt>
<trkpt lat="-27.2744306" lon="151.2900657">
  <ele>358.13</ele>
  <time>2026-09-01T19:51:11Z</time>
  <course>144.85</course>
  <speed>0.27</speed>
  <fix>3d</fix>
</trkpt>
<trkpt lat="-27.2744311" lon="151.2900661">
  <ele>357.95</ele>
  <time>2026-09-01T19:51:11Z</time>
  <course>34.72</course>
  <speed>0.280178514522438</speed>
  <fix>3d</fix>
</trkpt>
<trkpt lat="-27.2744306" lon="151.2900657">
  <ele>358.13</ele>
  <time>2026-09-01T19:51:11Z</time>
  <course>144.85</course>
  <speed>0.27</speed>
  <fix>3d</fix>
</trkpt>
<trkpt lat="-27.2744313" lon="151.2900663">
  <ele>357.95</ele>
  <time>2026-09-01T19:51:11Z</time>
  <course>35.46</course>
  <speed>0.280178514522438</speed>
  <fix>3d</fix>
</trkpt>
<trkpt lat="-27.274431" lon="151.2900661">
  <ele>358.13</ele>
  <time>2026-09-01T19:51:11Z</time>
  <course>144.94</course>
  <speed>0.28</speed>
  <fix>3d</fix>
</trkpt>
<trkpt lat="-27.2744315" lon="151.2900665">
  <ele>357.95</ele>
  <time>2026-09-01T19:51:11Z</time>
  <course>36.19</course>
  <speed>0.280178514522438</speed>
  <fix>3d</fix>
</trkpt>
<trkpt lat="-27.274431" lon="151.2900661">
  <ele>358.13</ele>
  <time>2026-09-01T19:51:11Z</time>
  <course>144.94</course>
  <speed>0.28</speed>
  <fix>3d</fix>
</trkpt>
<trkpt lat="-27.2744317" lon="151.2900666">
  <ele>357.95</ele>
  <time>2026-09-01T19:51:11Z</time>
  <course>36.78</course>
  <speed>0.280178514522438</speed>
  <fix>3d</fix>
</trkpt>
<trkpt lat="-27.2744314" lon="151.2900664">
  <ele>358.14</ele>
  <time>2026-09-01T19:51:11Z</time>
  <course>144.95</course>
  <speed>0.28</speed>
  <fix>3d</fix>
</trkpt>
<trkpt lat="-27.2744319" lon="151.2900668">
  <ele>357.95</ele>
  <time>2026-09-01T19:51:11Z</time>
  <course>37.19</course>
  <speed>0.280178514522438</speed>
  <fix>3d</fix>
</trkpt>
<trkpt lat="-27.2744314" lon="151.2900664">
  <ele>358.14</ele>
  <time>2026-09-01T19:51:11Z</time>
  <course>144.95</course>
  <speed>0.28</speed>
  <fix>3d</fix>
</trkpt>
<trkpt lat="-27.2744322" lon="151.290067">
  <ele>357.95</ele>
  <time>2026-09-01T19:51:11Z</time>
  <course>37.38</course>
  <speed>0.280178514522438</speed>
  <fix>3d</fix>
</trkpt>
<trkpt lat="-27.2744318" lon="151.2900667">
  <ele>358.14</ele>
  <time>2026-09-01T19:51:11Z</time>
  <course>144.84</course>
  <speed>0.28</speed>
  <fix>3d</fix>
</trkpt>
<trkpt lat="-27.2744324" lon="151.2900671">
  <ele>357.95</ele>
  <time>2026-09-01T19:51:11Z</time>
  <course>37.39</course>
  <speed>0.280178514522438</speed>
  <fix>3d</fix>
</trkpt>
<trkpt lat="-27.2744318" lon="151.2900667">
  <ele>358.14</ele>
  <time>2026-09-01T19:51:11Z</time>
  <course>144.84</course>
  <speed>0.28</speed>
  <fix>3d</fix>
</trkpt>
<trkpt lat="-27.2744326" lon="151.2900673">
  <ele>357.94</ele>
  <time>2026-09-01T19:51:11Z</time>
  <course>37.53</course>
  <speed>0.280178514522438</speed>
  <fix>3d</fix>
</trkpt>
<trkpt lat="-27.2744322" lon="151.290067">
  <ele>358.14</ele>
  <time>2026-09-01T19:51:11Z</time>
  <course>144.61</course>
  <speed>0.28</speed>
  <fix>3d</fix>
</trkpt>
<trkpt lat="-27.2744328" lon="151.2900675">
  <ele>357.94</ele>
  <time>2026-09-01T19:51:11Z</time>
  <course>39.3</course>
  <speed>0.280178514522438</speed>
  <fix>3d</fix>
</trkpt>
<trkpt lat="-27.2744322" lon="151.290067">
  <ele>358.14</ele>
  <time>2026-09-01T19:51:11Z</time>
  <course>144.61</course>
  <speed>0.28</speed>
  <fix>3d</fix>
</trkpt>
<trkpt lat="-27.274433" lon="151.2900676">
  <ele>357.94</ele>
  <time>2026-09-01T19:51:11Z</time>
  <course>41.58</course>
  <speed>0.2720294101747089</speed>
  <fix>3d</fix>
</trkpt>
<trkpt lat="-27.2744326" lon="151.2900674">
  <ele>358.14</ele>
  <time>2026-09-01T19:51:11Z</time>
  <course>144.36</course>
  <speed>0.27</speed>
  <fix>3d</fix>
</trkpt>
<trkpt lat="-27.2744332" lon="151.2900678">
  <ele>357.94</ele>
  <time>2026-09-01T19:51:11Z</time>
  <course>43.42</course>
  <speed>0.2720294101747089</speed>
  <fix>3d</fix>
</trkpt>
<trkpt lat="-27.2744326" lon="151.2900674">
  <ele>358.14</ele>
  <time>2026-09-01T19:51:11Z</time>
  <course>144.36</course>
  <speed>0.27</speed>
  <fix>3d</fix>
</trkpt>
<trkpt lat="-27.2744334" lon="151.2900679">
  <ele>357.94</ele>
  <time>2026-09-01T19:51:11Z</time>
  <course>44.42</course>
  <speed>0.2720294101747089</speed>
  <fix>3d</fix>
</trkpt>
<trkpt lat="-27.274433" lon="151.2900677">
  <ele>358.14</ele>
  <time>2026-09-01T19:51:11Z</time>
  <course>144.19</course>
  <speed>0.27</speed>
  <fix>3d</fix>
</trkpt>
<trkpt lat="-27.2744336" lon="151.2900681">
  <ele>357.95</ele>
  <time>2026-09-01T19:51:11Z</time>
  <course>44.59</course>
  <speed>0.2720294101747089</speed>
  <fix>3d</fix>
</trkpt>
<trkpt lat="-27.274433" lon="151.2900677">
  <ele>358.14</ele>
  <time>2026-09-01T19:51:11Z</time>
  <course>144.19</course>
  <speed>0.27</speed>
  <fix>3d</fix>
</trkpt>
<trkpt lat="-27.2744338" lon="151.2900683">
  <ele>357.95</ele>
  <time>2026-09-01T19:51:11Z</time>
  <course>44.06</course>
  <speed>0.2720294101747089</speed>
  <fix>3d</fix>
</trkpt>
<trkpt lat="-27.2744335" lon="151.290068">
  <ele>358.15</ele>
  <time>2026-09-01T19:51:11Z</time>
  <course>144.14</course>
  <speed>0.27</speed>
  <fix>3d</fix>
</trkpt>
<trkpt lat="-27.274434" lon="151.2900684">
  <ele>357.95</ele>
  <time>2026-09-01T19:51:11Z</time>
  <course>43.07</course>
  <speed>0.2720294101747089</speed>
  <fix>3d</fix>
</trkpt>
<trkpt lat="-27.2744335" lon="151.290068">
  <ele>358.15</ele>
  <time>2026-09-01T19:51:11Z</time>
  <course>144.14</course>
  <speed>0.27</speed>
  <fix>3d</fix>
</trkpt>
<trkpt lat="-27.2744342" lon="151.2900686">
  <ele>357.95</ele>
  <time>2026-09-01T19:51:11Z</time>
  <course>41.84</course>
  <speed>0.2720294101747089</speed>
  <fix>3d</fix>
</trkpt>
<trkpt lat="-27.2744339" lon="151.2900684">
  <ele>358.15</ele>
  <time>2026-09-01T19:51:11Z</time>
  <course>144.17</course>
  <speed>0.27</speed>
  <fix>3d</fix>
</trkpt>
<trkpt lat="-27.2744344" lon="151.2900688">
  <ele>357.95</ele>
  <time>2026-09-01T19:51:11Z</time>
  <course>40.59</course>
  <speed>0.2720294101747089</speed>
  <fix>3d</fix>
</trkpt>
<trkpt lat="-27.2744339" lon="151.2900684">
  <ele>358.15</ele>
  <time>2026-09-01T19:51:11Z</time>
  <course>144.17</course>
  <speed>0.27</speed>
  <fix>3d</fix>
</trkpt>
<trkpt lat="-27.2744346" lon="151.2900689">
  <ele>357.96</ele>
  <time>2026-09-01T19:51:11Z</time>
  <course>39.5</course>
  <speed>0.266270539113887</speed>
  <fix>3d</fix>
</trkpt>
<trkpt lat="-27.2744342" lon="151.2900687">
  <ele>358.15</ele>
  <time>2026-09-01T19:51:11Z</time>
  <course>144.19</course>
  <speed>0.27</speed>
  <fix>3d</fix>
</trkpt>
<trkpt lat="-27.2744348" lon="151.2900691">
  <ele>357.96</ele>
  <time>2026-09-01T19:51:11Z</time>
  <course>38.76</course>
  <speed>0.266270539113887</speed>
  <fix>3d</fix>
</trkpt>
<trkpt lat="-27.2744342" lon="151.2900687">
  <ele>358.15</ele>
  <time>2026-09-01T19:51:11Z</time>
  <course>144.19</course>
  <speed>0.27</speed>
  <fix>3d</fix>
</trkpt>
<trkpt lat="-27.274435" lon="151.2900692">
  <ele>357.96</ele>
  <time>2026-09-01T19:51:11Z</time>
  <course>37.72</course>
  <speed>0.266270539113887</speed>
  <fix>3d</fix>
</trkpt>
<trkpt lat="-27.2744347" lon="151.290069">
  <ele>358.15</ele>
  <time>2026-09-01T19:51:11Z</time>
  <course>144.2</course>
  <speed>0.27</speed>
  <fix>3d</fix>
</trkpt>
<trkpt lat="-27.2744352" lon="151.2900694">
  <ele>357.96</ele>
  <time>2026-09-01T19:51:11Z</time>
  <course>36.21</course>
  <speed>0.266270539113887</speed>
  <fix>3d</fix>
</trkpt>
<trkpt lat="-27.2744347" lon="151.290069">
  <ele>358.15</ele>
  <time>2026-09-01T19:51:11Z</time>
  <course>144.2</course>
  <speed>0.27</speed>
  <fix>3d</fix>
</trkpt>
<trkpt lat="-27.2744354" lon="151.2900696">
  <ele>357.96</ele>
  <time>2026-09-01T19:51:11Z</time>
  <course>34.72</course>
  <speed>0.2580697580112788</speed>
  <fix>3d</fix>
</trkpt>
<trkpt lat="-27.2744351" lon="151.2900693">
  <ele>358.16</ele>
  <time>2026-09-01T19:51:11Z</time>
  <course>144.23</course>
  <speed>0.26</speed>
  <fix>3d</fix>
</trkpt>
<trkpt lat="-27.2744356" lon="151.2900697">
  <ele>357.97</ele>
  <time>2026-09-01T19:51:11Z</time>
  <course>33.29</course>
  <speed>0.25238858928247926</speed>
  <fix>3d</fix>
</trkpt>
<trkpt lat="-27.2744351" lon="151.2900693">
  <ele>358.16</ele>
  <time>2026-09-01T19:51:11Z</time>
  <course>144.23</course>
  <speed>0.26</speed>
  <fix>3d</fix>
</trkpt>
<trkpt lat="-27.2744358" lon="151.2900699">
  <ele>357.97</ele>
  <time>2026-09-01T19:51:11Z</time>
  <course>32.13</course>
  <speed>0.25238858928247926</speed>
  <fix>3d</fix>
</trkpt>
<trkpt lat="-27.2744354" lon="151.2900696">
  <ele>358.16</ele>
  <time>2026-09-01T19:51:11Z</time>
  <course>144.29</course>
  <speed>0.26</speed>
  <fix>3d</fix>
</trkpt>
<trkpt lat="-27.274436" lon="151.29007">
  <ele>357.96</ele>
  <time>2026-09-01T19:51:11Z</time>
  <course>31.45</course>
  <speed>0.25238858928247926</speed>
  <fix>3d</fix>
</trkpt>
<trkpt lat="-27.2744354" lon="151.2900696">
  <ele>358.16</ele>
  <time>2026-09-01T19:51:11Z</time>
  <course>144.29</course>
  <speed>0.26</speed>
  <fix>3d</fix>
</trkpt>
<trkpt lat="-27.2744361" lon="151.2900701">
  <ele>357.96</ele>
  <time>2026-09-01T19:51:11Z</time>
  <course>31.28</course>
  <speed>0.24413111231467405</speed>
  <fix>3d</fix>
</trkpt>
<trkpt lat="-27.2744358" lon="151.2900699">
  <ele>358.16</ele>
  <time>2026-09-01T19:51:11Z</time>
  <course>144.35</course>
  <speed>0.25</speed>
  <fix>3d</fix>
</trkpt>
<trkpt lat="-27.2744363" lon="151.2900703">
  <ele>357.96</ele>
  <time>2026-09-01T19:51:11Z</time>
  <course>31.53</course>
  <speed>0.23853720883753127</speed>
  <fix>3d</fix>
</trkpt>
<trkpt lat="-27.2744358" lon="151.2900699">
  <ele>358.16</ele>
  <time>2026-09-01T19:51:11Z</time>
  <course>144.35</course>
  <speed>0.25</speed>
  <fix>3d</fix>
</trkpt>
<trkpt lat="-27.2744365" lon="151.2900704">
  <ele>357.95</ele>
  <time>2026-09-01T19:51:11Z</time>
  <course>32.09</course>
  <speed>0.23021728866442676</speed>
  <fix>3d</fix>
</trkpt>
<trkpt lat="-27.2744361" lon="151.2900702">
  <ele>358.16</ele>
  <time>2026-09-01T19:51:11Z</time>
  <course>144.59</course>
  <speed>0.24</speed>
  <fix>3d</fix>
</trkpt>
<trkpt lat="-27.2744367" lon="151.2900705">
  <ele>357.95</ele>
  <time>2026-09-01T19:51:11Z</time>
  <course>32.82</course>
  <speed>0.22472205054244232</speed>
  <fix>3d</fix>
</trkpt>
<trkpt lat="-27.2744361" lon="151.2900702">
  <ele>358.16</ele>
  <time>2026-09-01T19:51:11Z</time>
  <course>144.59</course>
  <speed>0.24</speed>
  <fix>3d</fix>
</trkpt>
<trkpt lat="-27.2744368" lon="151.2900707">
  <ele>357.95</ele>
  <time>2026-09-01T19:51:11Z</time>
  <course>33.56</course>
  <speed>0.22472205054244232</speed>
  <fix>3d</fix>
</trkpt>
<trkpt lat="-27.2744365" lon="151.2900705">
  <ele>358.15</ele>
  <time>2026-09-01T19:51:11Z</time>
  <course>145.19</course>
  <speed>0.23</speed>
  <fix>3d</fix>
</trkpt>
<trkpt lat="-27.274437" lon="151.2900708">
  <ele>357.95</ele>
  <time>2026-09-01T19:51:11Z</time>
  <course>34.21</course>
  <speed>0.2109502310972899</speed>
  <fix>3d</fix>
</trkpt>
<trkpt lat="-27.2744365" lon="151.2900705">
  <ele>358.15</ele>
  <time>2026-09-01T19:51:11Z</time>
  <course>145.19</course>
  <speed>0.23</speed>
  <fix>3d</fix>
</trkpt>
<trkpt lat="-27.2744371" lon="151.2900709">
  <ele>357.95</ele>
  <time>2026-09-01T19:51:11Z</time>
  <course>34.69</course>
  <speed>0.2109502310972899</speed>
  <fix>3d</fix>
</trkpt>
<trkpt lat="-27.2744368" lon="151.2900708">
  <ele>358.15</ele>
  <time>2026-09-01T19:51:11Z</time>
  <course>146.09</course>
  <speed>0.22</speed>
  <fix>3d</fix>
</trkpt>
<trkpt lat="-27.2744373" lon="151.290071">
  <ele>357.95</ele>
  <time>2026-09-01T19:51:11Z</time>
  <course>34.97</course>
  <speed>0.20591260281974003</speed>
  <fix>3d</fix>
</trkpt>
<trkpt lat="-27.2744368" lon="151.2900708">
  <ele>358.15</ele>
  <time>2026-09-01T19:51:11Z</time>
  <course>146.09</course>
  <speed>0.22</speed>
  <fix>3d</fix>
</trkpt>
<trkpt lat="-27.2744375" lon="151.2900711">
  <ele>357.95</ele>
  <time>2026-09-01T19:51:11Z</time>
  <course>35.04</course>
  <speed>0.20591260281974003</speed>
  <fix>3d</fix>
</trkpt>
<trkpt lat="-27.2744371" lon="151.290071">
  <ele>358.15</ele>
  <time>2026-09-01T19:51:11Z</time>
  <course>147.29</course>
  <speed>0.2</speed>
  <fix>3d</fix>
</trkpt>
<trkpt lat="-27.2744376" lon="151.2900712">
  <ele>357.95</ele>
  <time>2026-09-01T19:51:11Z</time>
  <course>34.98</course>
  <speed>0.19235384061671343</speed>
  <fix>3d</fix>
</trkpt>
<trkpt lat="-27.2744371" lon="151.290071">
  <ele>358.15</ele>
  <time>2026-09-01T19:51:11Z</time>
  <course>147.29</course>
  <speed>0.2</speed>
  <fix>3d</fix>
</trkpt>
<trkpt lat="-27.2744377" lon="151.2900713">
  <ele>357.95</ele>
  <time>2026-09-01T19:51:11Z</time>
  <course>36.12</course>
  <speed>0.18788294228055935</speed>
  <fix>3d</fix>
</trkpt>
<trkpt lat="-27.2744374" lon="151.2900713">
  <ele>358.15</ele>
  <time>2026-09-01T19:51:11Z</time>
  <course>149.05</course>
  <speed>0.19</speed>
  <fix>3d</fix>
</trkpt>
<trkpt lat="-27.2744379" lon="151.2900714">
  <ele>357.95</ele>
  <time>2026-09-01T19:51:11Z</time>
  <course>38.42</course>
  <speed>0.18788294228055935</speed>
  <fix>3d</fix>
</trkpt>
<trkpt lat="-27.2744374" lon="151.2900713">
  <ele>358.15</ele>
  <time>2026-09-01T19:51:11Z</time>
  <course>149.05</course>
  <speed>0.19</speed>
  <fix>3d</fix>
</trkpt>
<trkpt lat="-27.274438" lon="151.2900715">
  <ele>357.95</ele>
  <time>2026-09-01T19:51:11Z</time>
  <course>40.48</course>
  <speed>0.18384776310850234</speed>
  <fix>3d</fix>
</trkpt>
<trkpt lat="-27.2744377" lon="151.2900715">
  <ele>358.15</ele>
  <time>2026-09-01T19:51:11Z</time>
  <course>151.55</course>
  <speed>0.18</speed>
  <fix>3d</fix>
</trkpt>
<trkpt lat="-27.2744382" lon="151.2900716">
  <ele>357.95</ele>
  <time>2026-09-01T19:51:11Z</time>
  <course>41.79</course>
  <speed>0.18384776310850234</speed>
  <fix>3d</fix>
</trkpt>
<trkpt lat="-27.2744377" lon="151.2900715">
  <ele>358.15</ele>
  <time>2026-09-01T19:51:11Z</time>
  <course>151.55</course>
  <speed>0.18</speed>
  <fix>3d</fix>
</trkpt>
<trkpt lat="-27.2744383" lon="151.2900717">
  <ele>357.95</ele>
  <time>2026-09-01T19:51:11Z</time>
  <course>42.22</course>
  <speed>0.1708800749063506</speed>
  <fix>3d</fix>
</trkpt>
<trkpt lat="-27.274438" lon="151.2900716">
  <ele>358.16</ele>
  <time>2026-09-01T19:51:11Z</time>
  <course>154.59</course>
  <speed>0.17</speed>
  <fix>3d</fix>
</trkpt>
<trkpt lat="-27.2744385" lon="151.2900717">
  <ele>357.95</ele>
  <time>2026-09-01T19:51:11Z</time>
  <course>41.89</course>
  <speed>0.1676305461424021</speed>
  <fix>3d</fix>
</trkpt>
<trkpt lat="-27.274438" lon="151.2900716">
  <ele>358.16</ele>
  <time>2026-09-01T19:51:11Z</time>
  <course>154.59</course>
  <speed>0.17</speed>
  <fix>3d</fix>
</trkpt>
<trkpt lat="-27.2744386" lon="151.2900718">
  <ele>357.95</ele>
  <time>2026-09-01T19:51:11Z</time>
  <course>41.01</course>
  <speed>0.1676305461424021</speed>
  <fix>3d</fix>
</trkpt>
<trkpt lat="-27.2744383" lon="151.2900717">
  <ele>358.16</ele>
  <time>2026-09-01T19:51:11Z</time>
  <course>158.11</course>
  <speed>0.17</speed>
  <fix>3d</fix>
</trkpt>
<trkpt lat="-27.2744387" lon="151.2900718">
  <ele>357.96</ele>
  <time>2026-09-01T19:51:11Z</time>
  <course>39.81</course>
  <speed>0.1649242250247064</speed>
  <fix>3d</fix>
</trkpt>
<trkpt lat="-27.2744383" lon="151.2900717">
  <ele>358.16</ele>
  <time>2026-09-01T19:51:11Z</time>
  <course>158.11</course>
  <speed>0.17</speed>
  <fix>3d</fix>
</trkpt>
<trkpt lat="-27.2744389" lon="151.2900719">
  <ele>357.96</ele>
  <time>2026-09-01T19:51:11Z</time>
  <course>38.51</course>
  <speed>0.16278820596099705</speed>
  <fix>3d</fix>
</trkpt>
<trkpt lat="-27.2744386" lon="151.2900718">
  <ele>358.16</ele>
  <time>2026-09-01T19:51:11Z</time>
  <course>162.2</course>
  <speed>0.16</speed>
  <fix>3d</fix>
</trkpt>
<trkpt lat="-27.274439" lon="151.2900719">
  <ele>357.96</ele>
  <time>2026-09-01T19:51:11Z</time>
  <course>37.32</course>
  <speed>0.16124515496597097</speed>
  <fix>3d</fix>
</trkpt>
<trkpt lat="-27.2744386" lon="151.2900718">
  <ele>358.16</ele>
  <time>2026-09-01T19:51:11Z</time>
  <course>162.2</course>
  <speed>0.16</speed>
  <fix>3d</fix>
</trkpt>
<trkpt lat="-27.2744391" lon="151.2900719">
  <ele>357.96</ele>
  <time>2026-09-01T19:51:11Z</time>
  <course>36.39</course>
  <speed>0.15132745950421556</speed>
  <fix>3d</fix>
</trkpt>
<trkpt lat="-27.2744389" lon="151.2900719">
  <ele>358.16</ele>
  <time>2026-09-01T19:51:11Z</time>
  <course>166.89</course>
  <speed>0.15</speed>
  <fix>3d</fix>
</trkpt>
<trkpt lat="-27.2744393" lon="151.2900719">
  <ele>357.96</ele>
  <time>2026-09-01T19:51:11Z</time>
  <course>34.1</course>
  <speed>0.15033296378372907</speed>
  <fix>3d</fix>
</trkpt>
<trkpt lat="-27.2744389" lon="151.2900719">
  <ele>358.16</ele>
  <time>2026-09-01T19:51:11Z</time>
  <course>166.89</course>
  <speed>0.15</speed>
  <fix>3d</fix>
</trkpt>
<trkpt lat="-27.2744394" lon="151.290072">
  <ele>357.96</ele>
  <time>2026-09-01T19:51:11Z</time>
  <course>30.18</course>
  <speed>0.15</speed>
  <fix>3d</fix>
</trkpt>
<trkpt lat="-27.2744391" lon="151.2900719">
  <ele>358.17</ele>
  <time>2026-09-01T19:51:11Z</time>
  <course>172.19</course>
  <speed>0.14</speed>
  <fix>3d</fix>
</trkpt>
<trkpt lat="-27.2744395" lon="151.290072">
  <ele>357.96</ele>
  <time>2026-09-01T19:51:11Z</time>
  <course>27.22</course>
  <speed>0.15</speed>
  <fix>3d</fix>
</trkpt>
<trkpt lat="-27.2744391" lon="151.2900719">
  <ele>358.17</ele>
  <time>2026-09-01T19:51:11Z</time>
  <course>172.19</course>
  <speed>0.14</speed>
  <fix>3d</fix>
</trkpt>
<trkpt lat="-27.2744397" lon="151.2900719">
  <ele>357.96</ele>
  <time>2026-09-01T19:51:11Z</time>
  <course>25.82</course>
  <speed>0.140356688476182</speed>
  <fix>3d</fix>
</trkpt>
<trkpt lat="-27.2744394" lon="151.290072">
  <ele>358.17</ele>
  <time>2026-09-01T19:51:11Z</time>
  <course>178.18</course>
  <speed>0.14</speed>
  <fix>3d</fix>
</trkpt>
<trkpt lat="-27.2744398" lon="151.2900719">
  <ele>357.96</ele>
  <time>2026-09-01T19:51:11Z</time>
  <course>25.38</course>
  <speed>0.140356688476182</speed>
  <fix>3d</fix>
</trkpt>
<trkpt lat="-27.2744394" lon="151.290072">
  <ele>358.17</ele>
  <time>2026-09-01T19:51:11Z</time>
  <course>178.18</course>
  <speed>0.14</speed>
  <fix>3d</fix>
</trkpt>
<trkpt lat="-27.2744399" lon="151.2900719">
  <ele>357.96</ele>
  <time>2026-09-01T19:51:11Z</time>
  <course>25.3</course>
  <speed>0.1414213562373095</speed>
  <fix>3d</fix>
</trkpt>
<trkpt lat="-27.2744397" lon="151.290072">
  <ele>358.17</ele>
  <time>2026-09-01T19:51:11Z</time>
  <course>184.87</course>
  <speed>0.13</speed>
  <fix>3d</fix>
</trkpt>
<trkpt lat="-27.27444" lon="151.2900719">
  <ele>357.96</ele>
  <time>2026-09-01T19:51:11Z</time>
  <course>25.28</course>
  <speed>0.14317821063276354</speed>
  <fix>3d</fix>
</trkpt>
<trkpt lat="-27.2744397" lon="151.290072">
  <ele>358.17</ele>
  <time>2026-09-01T19:51:11Z</time>
  <course>184.87</course>
  <speed>0.13</speed>
  <fix>3d</fix>
</trkpt>
<trkpt lat="-27.2744401" lon="151.2900719">
  <ele>357.96</ele>
  <time>2026-09-01T19:51:11Z</time>
  <course>25.27</course>
  <speed>0.14560219778561037</speed>
  <fix>3d</fix>
</trkpt>
<trkpt lat="-27.2744399" lon="151.2900719">
  <ele>358.17</ele>
  <time>2026-09-01T19:51:11Z</time>
  <course>192.04</course>
  <speed>0.13</speed>
  <fix>3d</fix>
</trkpt>
<trkpt lat="-27.2744403" lon="151.2900719">
  <ele>357.96</ele>
  <time>2026-09-01T19:51:11Z</time>
  <course>25.25</course>
  <speed>0.1392838827718412</speed>
  <fix>3d</fix>
</trkpt>
<trkpt lat="-27.2744399" lon="151.2900719">
  <ele>358.17</ele>
  <time>2026-09-01T19:51:11Z</time>
  <course>192.04</course>
  <speed>0.13</speed>
  <fix>3d</fix>
</trkpt>
<trkpt lat="-27.2744404" lon="151.2900718">
  <ele>357.96</ele>
  <time>2026-09-01T19:51:11Z</time>
  <course>25.17</course>
  <speed>0.1392838827718412</speed>
  <fix>3d</fix>
</trkpt>
<trkpt lat="-27.2744402" lon="151.2900719">
  <ele>358.16</ele>
  <time>2026-09-01T19:51:11Z</time>
  <course>199.45</course>
  <speed>0.13</speed>
  <fix>3d</fix>
</trkpt>
<trkpt lat="-27.2744405" lon="151.2900718">
  <ele>357.96</ele>
  <time>2026-09-01T19:51:11Z</time>
  <course>25.05</course>
  <speed>0.14317821063276354</speed>
  <fix>3d</fix>
</trkpt>
<trkpt lat="-27.2744402" lon="151.2900719">
  <ele>358.16</ele>
  <time>2026-09-01T19:51:11Z</time>
  <course>199.45</course>
  <speed>0.13</speed>
  <fix>3d</fix>
</trkpt>
<trkpt lat="-27.2744406" lon="151.2900717">
  <ele>357.96</ele>
  <time>2026-09-01T19:51:11Z</time>
  <course>25.75</course>
  <speed>0.147648230602334</speed>
  <fix>3d</fix>
</trkpt>
<trkpt lat="-27.2744403" lon="151.2900719">
  <ele>358.16</ele>
  <time>2026-09-01T19:51:11Z</time>
  <course>206.7</course>
  <speed>0.13</speed>
  <fix>3d</fix>
</trkpt>
<trkpt lat="-27.2744407" lon="151.2900716">
  <ele>357.96</ele>
  <time>2026-09-01T19:51:11Z</time>
  <course>29.79</course>
  <speed>0.14422205101855956</speed>
  <fix>3d</fix>
</trkpt>
<trkpt lat="-27.2744403" lon="151.2900719">
  <ele>358.16</ele>
  <time>2026-09-01T19:51:11Z</time>
  <course>206.7</course>
  <speed>0.13</speed>
  <fix>3d</fix>
</trkpt>
<trkpt lat="-27.2744408" lon="151.2900715">
  <ele>357.96</ele>
  <time>2026-09-01T19:51:11Z</time>
  <course>34.03</course>
  <speed>0.14422205101855956</speed>
  <fix>3d</fix>
</trkpt>
<trkpt lat="-27.2744406" lon="151.2900718">
  <ele>358.16</ele>
  <time>2026-09-01T19:51:11Z</time>
  <course>213.6</course>
  <speed>0.13</speed>
  <fix>3d</fix>
</trkpt>
<trkpt lat="-27.2744409" lon="151.2900715">
  <ele>357.96</ele>
  <time>2026-09-01T19:51:11Z</time>
  <course>36.46</course>
  <speed>0.15</speed>
  <fix>3d</fix>
</trkpt>
<trkpt lat="-27.2744406" lon="151.2900718">
  <ele>358.16</ele>
  <time>2026-09-01T19:51:11Z</time>
  <course>213.6</course>
  <speed>0.13</speed>
  <fix>3d</fix>
</trkpt>
<trkpt lat="-27.274441" lon="151.2900714">
  <ele>357.96</ele>
  <time>2026-09-01T19:51:11Z</time>
  <course>37.38</course>
  <speed>0.14866068747318506</speed>
  <fix>3d</fix>
</trkpt>
<trkpt lat="-27.2744408" lon="151.2900715">
  <ele>358.16</ele>
  <time>2026-09-01T19:51:11Z</time>
  <course>220.08</course>
  <speed>0.14</speed>
  <fix>3d</fix>
</trkpt>
<trkpt lat="-27.2744411" lon="151.2900713">
  <ele>357.96</ele>
  <time>2026-09-01T19:51:11Z</time>
  <course>37.59</course>
  <speed>0.14866068747318506</speed>
  <fix>3d</fix>
</trkpt>
<trkpt lat="-27.2744408" lon="151.2900715">
  <ele>358.16</ele>
  <time>2026-09-01T19:51:11Z</time>
  <course>220.08</course>
  <speed>0.14</speed>
  <fix>3d</fix>
</trkpt>
<trkpt lat="-27.2744412" lon="151.2900712">
  <ele>357.96</ele>
  <time>2026-09-01T19:51:11Z</time>
  <course>37.61</course>
  <speed>0.15556349186104046</speed>
  <fix>3d</fix>
</trkpt>
<trkpt lat="-27.2744409" lon="151.2900713">
  <ele>358.16</ele>
  <time>2026-09-01T19:51:11Z</time>
  <course>226.01</course>
  <speed>0.14</speed>
  <fix>3d</fix>
</trkpt>
<trkpt lat="-27.2744413" lon="151.290071">
  <ele>357.96</ele>
  <time>2026-09-01T19:51:11Z</time>
  <course>37.62</course>
  <speed>0.15620499351813308</speed>
  <fix>3d</fix>
</trkpt>
<trkpt lat="-27.2744409" lon="151.2900713">
  <ele>358.16</ele>
  <time>2026-09-01T19:51:11Z</time>
  <course>226.01</course>
  <speed>0.14</speed>
  <fix>3d</fix>
</trkpt>
<trkpt lat="-27.2744414" lon="151.2900709">
  <ele>357.96</ele>
  <time>2026-09-01T19:51:11Z</time>
  <course>37.61</course>
  <speed>0.15620499351813308</speed>
  <fix>3d</fix>
</trkpt>
<trkpt lat="-27.2744412" lon="151.2900712">
  <ele>358.16</ele>
  <time>2026-09-01T19:51:11Z</time>
  <course>231.46</course>
  <speed>0.15</speed>
  <fix>3d</fix>
</trkpt>
<trkpt lat="-27.2744414" lon="151.2900708">
  <ele>357.96</ele>
  <time>2026-09-01T19:51:11Z</time>
  <course>37.54</course>
  <speed>0.16401219466856726</speed>
  <fix>3d</fix>
</trkpt>
<trkpt lat="-27.2744412" lon="151.2900712">
  <ele>358.16</ele>
  <time>2026-09-01T19:51:11Z</time>
  <course>231.46</course>
  <speed>0.15</speed>
  <fix>3d</fix>
</trkpt>
<trkpt lat="-27.2744415" lon="151.2900706">
  <ele>357.96</ele>
  <time>2026-09-01T19:51:11Z</time>
  <course>37.43</course>
  <speed>0.1664331697709324</speed>
  <fix>3d</fix>
</trkpt>
<trkpt lat="-27.2744413" lon="151.2900709">
  <ele>358.16</ele>
  <time>2026-09-01T19:51:11Z</time>
  <course>236.58</course>
  <speed>0.15</speed>
  <fix>3d</fix>
</trkpt>
<trkpt lat="-27.2744416" lon="151.2900705">
  <ele>357.96</ele>
  <time>2026-09-01T19:51:11Z</time>
  <course>35.72</course>
  <speed>0.1664331697709324</speed>
  <fix>3d</fix>
</trkpt>
<trkpt lat="-27.2744413" lon="151.2900709">
  <ele>358.16</ele>
  <time>2026-09-01T19:51:11Z</time>
  <course>236.58</course>
  <speed>0.15</speed>
  <fix>3d</fix>
</trkpt>
<trkpt lat="-27.2744417" lon="151.2900704">
  <ele>357.96</ele>
  <time>2026-09-01T19:51:11Z</time>
  <course>31.4</course>
  <speed>0.17</speed>
  <fix>3d</fix>
</trkpt>
<trkpt lat="-27.2744415" lon="151.2900706">
  <ele>358.16</ele>
  <time>2026-09-01T19:51:11Z</time>
  <course>241.62</course>
  <speed>0.16</speed>
  <fix>3d</fix>
</trkpt>
<trkpt lat="-27.2744417" lon="151.2900702">
  <ele>357.96</ele>
  <time>2026-09-01T19:51:11Z</time>
  <course>27.71</course>
  <speed>0.17</speed>
  <fix>3d</fix>
</trkpt>
<trkpt lat="-27.2744415" lon="151.2900706">
  <ele>358.16</ele>
  <time>2026-09-01T19:51:11Z</time>
  <course>241.62</course>
  <speed>0.16</speed>
  <fix>3d</fix>
</trkpt>
<trkpt lat="-27.2744418" lon="151.29007">
  <ele>357.96</ele>
  <time>2026-09-01T19:51:11Z</time>
  <course>25.85</course>
  <speed>0.17464249196572978</speed>
  <fix>3d</fix>
</trkpt>
<trkpt lat="-27.2744416" lon="151.2900703">
  <ele>358.16</ele>
  <time>2026-09-01T19:51:11Z</time>
  <course>246.64</course>
  <speed>0.17</speed>
  <fix>3d</fix>
</trkpt>
<trkpt lat="-27.2744418" lon="151.2900699">
  <ele>357.96</ele>
  <time>2026-09-01T19:51:11Z</time>
  <course>25.22</course>
  <speed>0.18027756377319945</speed>
  <fix>3d</fix>
</trkpt>
<trkpt lat="-27.2744416" lon="151.2900703">
  <ele>358.16</ele>
  <time>2026-09-01T19:51:11Z</time>
  <course>246.64</course>
  <speed>0.17</speed>
  <fix>3d</fix>
</trkpt>
<trkpt lat="-27.2744419" lon="151.2900697">
  <ele>357.96</ele>
  <time>2026-09-01T19:51:11Z</time>
  <course>25.09</course>
  <speed>0.18027756377319945</speed>
  <fix>3d</fix>
</trkpt>
<trkpt lat="-27.2744417" lon="151.29007">
  <ele>358.16</ele>
  <time>2026-09-01T19:51:11Z</time>
  <course>251.55</course>
  <speed>0.18</speed>
  <fix>3d</fix>
</trkpt>
<trkpt lat="-27.2744419" lon="151.2900695">
  <ele>357.96</ele>
  <time>2026-09-01T19:51:11Z</time>
  <course>25.07</course>
  <speed>0.18681541692269404</speed>
  <fix>3d</fix>
</trkpt>
<trkpt lat="-27.2744417" lon="151.29007">
  <ele>358.16</ele>
  <time>2026-09-01T19:51:11Z</time>
  <course>251.55</course>
  <speed>0.18</speed>
  <fix>3d</fix>
</trkpt>
<trkpt lat="-27.274442" lon="151.2900693">
  <ele>357.96</ele>
  <time>2026-09-01T19:51:11Z</time>
  <course>25.06</course>
  <speed>0.18681541692269404</speed>
  <fix>3d</fix>
</trkpt>
<trkpt lat="-27.2744418" lon="151.2900696">
  <ele>358.16</ele>
  <time>2026-09-01T19:51:11Z</time>
  <course>256.28</course>
  <speed>0.19</speed>
  <fix>3d</fix>
</trkpt>
<trkpt lat="-27.274442" lon="151.2900691">
  <ele>357.97</ele>
  <time>2026-09-01T19:51:11Z</time>
  <course>25.0</course>
  <speed>0.194164878389476</speed>
  <fix>3d</fix>
</trkpt>
<trkpt lat="-27.2744418" lon="151.2900696">
  <ele>358.16</ele>
  <time>2026-09-01T19:51:11Z</time>
  <course>256.28</course>
  <speed>0.19</speed>
  <fix>3d</fix>
</trkpt>
<trkpt lat="-27.274442" lon="151.2900689">
  <ele>357.97</ele>
  <time>2026-09-01T19:51:11Z</time>
  <course>24.89</course>
  <speed>0.20223748416156684</speed>
  <fix>3d</fix>
</trkpt>
<trkpt lat="-27.2744419" lon="151.2900692">
  <ele>358.16</ele>
  <time>2026-09-01T19:51:11Z</time>
  <course>260.83</course>
  <speed>0.19</speed>
  <fix>3d</fix>
</trkpt>
<trkpt lat="-27.274442" lon="151.2900687">
  <ele>357.97</ele>
  <time>2026-09-01T19:51:11Z</time>
  <course>24.83</course>
  <speed>0.2009975124224178</speed>
  <fix>3d</fix>
</trkpt>
<trkpt lat="-27.2744419" lon="151.2900692">
  <ele>358.16</ele>
  <time>2026-09-01T19:51:11Z</time>
  <course>260.83</course>
  <speed>0.19</speed>
  <fix>3d</fix>
</trkpt>
<trkpt lat="-27.274442" lon="151.2900685">
  <ele>357.97</ele>
  <time>2026-09-01T19:51:11Z</time>
  <course>27.43</course>
  <speed>0.2109502310972899</speed>
  <fix>3d</fix>
</trkpt>
<trkpt lat="-27.2744419" lon="151.2900688">
  <ele>358.16</ele>
  <time>2026-09-01T19:51:11Z</time>
  <course>265.27</course>
  <speed>0.2</speed>
  <fix>3d</fix>
</trkpt>
<trkpt lat="-27.274442" lon="151.2900683">
  <ele>357.97</ele>
  <time>2026-09-01T19:51:11Z</time>
  <course>32.0</course>
  <speed>0.2102379604162864</speed>
  <fix>3d</fix>
</trkpt>
<trkpt lat="-27.2744419" lon="151.2900688">
  <ele>358.16</ele>
  <time>2026-09-01T19:51:11Z</time>
  <course>265.27</course>
  <speed>0.2</speed>
  <fix>3d</fix>
</trkpt>
<trkpt lat="-27.274442" lon="151.2900681">
  <ele>357.97</ele>
  <time>2026-09-01T19:51:11Z</time>
  <course>35.33</course>
  <speed>0.21</speed>
  <fix>3d</fix>
</trkpt>
<trkpt lat="-27.274442" lon="151.2900684">
  <ele>358.15</ele>
  <time>2026-09-01T19:51:11Z</time>
  <course>269.58</course>
  <speed>0.21</speed>
  <fix>3d</fix>
</trkpt>
<trkpt lat="-27.274442" lon="151.2900678">
  <ele>357.96</ele>
  <time>2026-09-01T19:51:11Z</time>
  <course>36.87</course>
  <speed>0.22</speed>
  <fix>3d</fix>
</trkpt>
<trkpt lat="-27.274442" lon="151.2900684">
  <ele>358.15</ele>
  <time>2026-09-01T19:51:11Z</time>
  <course>269.58</course>
  <speed>0.21</speed>
  <fix>3d</fix>
</trkpt>
<trkpt lat="-27.274442" lon="151.2900676">
  <ele>357.96</ele>
  <time>2026-09-01T19:51:11Z</time>
  <course>37.3</course>
  <speed>0.22022715545545238</speed>
  <fix>3d</fix>
</trkpt>
<trkpt lat="-27.2744419" lon="151.2900679">
  <ele>358.15</ele>
  <time>2026-09-01T19:51:11Z</time>
  <course>273.63</course>
  <speed>0.22</speed>
  <fix>3d</fix>
</trkpt>
<trkpt lat="-27.274442" lon="151.2900674">
  <ele>357.96</ele>
  <time>2026-09-01T19:51:11Z</time>
  <course>37.39</course>
  <speed>0.22022715545545238</speed>
  <fix>3d</fix>
</trkpt>
<trkpt lat="-27.2744419" lon="151.2900679">
  <ele>358.15</ele>
  <time>2026-09-01T19:51:11Z</time>
  <course>273.63</course>
  <speed>0.22</speed>
  <fix>3d</fix>
</trkpt>
<trkpt lat="-27.274442" lon="151.2900671">
  <ele>357.96</ele>
  <time>2026-09-01T19:51:11Z</time>
  <course>37.4</course>
  <speed>0.2308679276123039</speed>
  <fix>3d</fix>
</trkpt>
<trkpt lat="-27.2744419" lon="151.2900675">
  <ele>358.15</ele>
  <time>2026-09-01T19:51:11Z</time>
  <course>277.41</course>
  <speed>0.23</speed>
  <fix>3d</fix>
</trkpt>
<trkpt lat="-27.274442" lon="151.2900669">
  <ele>357.96</ele>
  <time>2026-09-01T19:51:11Z</time>
  <course>37.41</course>
  <speed>0.23194827009486402</speed>
  <fix>3d</fix>
</trkpt>
<trkpt lat="-27.2744419" lon="151.2900675">
  <ele>358.15</ele>
  <time>2026-09-01T19:51:11Z</time>
  <course>277.41</course>
  <speed>0.23</speed>
  <fix>3d</fix>
</trkpt>
<trkpt lat="-27.2744419" lon="151.2900666">
  <ele>357.96</ele>
  <time>2026-09-01T19:51:11Z</time>
  <course>37.36</course>
  <speed>0.23345235059857505</speed>
  <fix>3d</fix>
</trkpt>
<trkpt lat="-27.2744419" lon="151.290067">
  <ele>358.15</ele>
  <time>2026-09-01T19:51:11Z</time>
  <course>281.06</course>
  <speed>0.24</speed>
  <fix>3d</fix>
</trkpt>
<trkpt lat="-27.2744419" lon="151.2900664">
  <ele>357.96</ele>
  <time>2026-09-01T19:51:11Z</time>
  <course>37.26</course>
  <speed>0.2353720459187964</speed>
  <fix>3d</fix>
</trkpt>
<trkpt lat="-27.2744419" lon="151.290067">
  <ele>358.15</ele>
  <time>2026-09-01T19:51:11Z</time>
  <course>281.06</course>
  <speed>0.24</speed>
  <fix>3d</fix>
</trkpt>
<trkpt lat="-27.2744418" lon="151.2900662">
  <ele>357.95</ele>
  <time>2026-09-01T19:51:11Z</time>
  <course>36.76</course>
  <speed>0.23769728648009425</speed>
  <fix>3d</fix>
</trkpt>
<trkpt lat="-27.2744418" lon="151.2900665">
  <ele>358.14</ele>
  <time>2026-09-01T19:51:11Z</time>
  <course>284.77</course>
  <speed>0.25</speed>
  <fix>3d</fix>
</trkpt>
<trkpt lat="-27.2744417" lon="151.2900659">
  <ele>357.95</ele>
  <time>2026-09-01T19:51:11Z</time>
  <course>33.31</course>
  <speed>0.24041630560342614</speed>
  <fix>3d</fix>
</trkpt>
<trkpt lat="-27.2744418" lon="151.2900665">
  <ele>358.14</ele>
  <time>2026-09-01T19:51:11Z</time>
  <course>284.77</course>
  <speed>0.25</speed>
  <fix>3d</fix>
</trkpt>
<trkpt lat="-27.2744416" lon="151.2900657">
  <ele>357.95</ele>
  <time>2026-09-01T19:51:11Z</time>
  <course>29.02</course>
  <speed>0.24351591323771843</speed>
  <fix>3d</fix>
</trkpt>
<trkpt lat="-27.2744416" lon="151.290066">
  <ele>358.14</ele>
  <time>2026-09-01T19:51:11Z</time>
  <course>288.71</course>
  <speed>0.25</speed>
  <fix>3d</fix>
</trkpt>
<trkpt lat="-27.2744416" lon="151.2900654">
  <ele>357.95</ele>
  <time>2026-09-01T19:51:11Z</time>
  <course>26.38</course>
  <speed>0.24698178070456936</speed>
  <fix>3d</fix>
</trkpt>
<trkpt lat="-27.2744416" lon="151.290066">
  <ele>358.14</ele>
  <time>2026-09-01T19:51:11Z</time>
  <course>288.71</course>
  <speed>0.25</speed>
  <fix>3d</fix>
</trkpt>
<trkpt lat="-27.2744415" lon="151.2900652">
  <ele>357.95</ele>
  <time>2026-09-01T19:51:11Z</time>
  <course>25.25</course>
  <speed>0.26</speed>
  <fix>3d</fix>
</trkpt>
<trkpt lat="-27.2744415" lon="151.2900655">
  <ele>358.14</ele>
  <time>2026-09-01T19:51:11Z</time>
  <course>292.83</course>
  <speed>0.26</speed>
  <fix>3d</fix>
</trkpt>
<trkpt lat="-27.2744414" lon="151.2900649">
  <ele>357.95</ele>
  <time>2026-09-01T19:51:11Z</time>
  <course>24.93</course>
  <speed>0.26</speed>
  <fix>3d</fix>
</trkpt>
<trkpt lat="-27.2744415" lon="151.2900655">
  <ele>358.14</ele>
  <time>2026-09-01T19:51:11Z</time>
  <course>292.83</course>
  <speed>0.26</speed>
  <fix>3d</fix>
</trkpt>
<trkpt lat="-27.2744412" lon="151.2900646">
  <ele>357.95</ele>
  <time>2026-09-01T19:51:11Z</time>
  <course>24.87</course>
  <speed>0.2692582403567252</speed>
  <fix>3d</fix>
</trkpt>
<trkpt lat="-27.2744413" lon="151.290065">
  <ele>358.14</ele>
  <time>2026-09-01T19:51:11Z</time>
  <course>295.45</course>
  <speed>0.27</speed>
  <fix>3d</fix>
</trkpt>
<trkpt lat="-27.2744411" lon="151.2900644">
  <ele>357.95</ele>
  <time>2026-09-01T19:51:11Z</time>
  <course>24.85</course>
  <speed>0.2692582403567252</speed>
  <fix>3d</fix>
</trkpt>
<trkpt lat="-27.2744413" lon="151.290065">
  <ele>358.14</ele>
  <time>2026-09-01T19:51:11Z</time>
  <course>295.45</course>
  <speed>0.27</speed>
  <fix>3d</fix>
</trkpt>
<trkpt lat="-27.274441" lon="151.2900641">
  <ele>357.95</ele>
  <time>2026-09-01T19:51:11Z</time>
  <course>24.82</course>
  <speed>0.2823118842698621</speed>
  <fix>3d</fix>
</trkpt>
<trkpt lat="-27.2744411" lon="151.2900645">
  <ele>358.14</ele>
  <time>2026-09-01T19:51:11Z</time>
  <course>296.15</course>
  <speed>0.28</speed>
  <fix>3d</fix>
</trkpt>
<trkpt lat="-27.2744409" lon="151.2900638">
  <ele>357.95</ele>
  <time>2026-09-01T19:51:11Z</time>
  <course>24.73</course>
  <speed>0.2823118842698621</speed>
  <fix>3d</fix>
</trkpt>
<trkpt lat="-27.2744411" lon="151.2900645">
  <ele>358.14</ele>
  <time>2026-09-01T19:51:11Z</time>
  <course>296.15</course>
  <speed>0.28</speed>
  <fix>3d</fix>
</trkpt>
<trkpt lat="-27.2744408" lon="151.2900636">
  <ele>357.95</ele>
  <time>2026-09-01T19:51:11Z</time>
  <course>24.59</course>
  <speed>0.291547594742265</speed>
  <fix>3d</fix>
</trkpt>
<trkpt lat="-27.2744409" lon="151.2900639">
  <ele>358.14</ele>
  <time>2026-09-01T19:51:11Z</time>
  <course>296.4</course>
  <speed>0.3</speed>
  <fix>3d</fix>
</trkpt>
<trkpt lat="-27.2744407" lon="151.2900633">
  <ele>357.95</ele>
  <time>2026-09-01T19:51:11Z</time>
  <course>24.45</course>
  <speed>0.29546573405388316</speed>
  <fix>3d</fix>
</trkpt>
<trkpt lat="-27.2744409" lon="151.2900639">
  <ele>358.14</ele>
  <time>2026-09-01T19:51:11Z</time>
  <course>296.4</course>
  <speed>0.3</speed>
  <fix>3d</fix>
</trkpt>
<trkpt lat="-27.2744406" lon="151.290063">
  <ele>357.95</ele>
  <time>2026-09-01T19:51:11Z</time>
  <course>26.57</course>
  <speed>0.29546573405388316</speed>
  <fix>3d</fix>
</trkpt>
<trkpt lat="-27.2744406" lon="151.2900634">
  <ele>358.14</ele>
  <time>2026-09-01T19:51:11Z</time>
  <course>296.74</course>
  <speed>0.31</speed>
  <fix>3d</fix>
</trkpt>
<trkpt lat="-27.2744404" lon="151.2900627">
  <ele>357.95</ele>
  <time>2026-09-01T19:51:11Z</time>
  <course>31.13</course>
  <speed>0.29966648127543394</speed>
  <fix>3d</fix>
</trkpt>
<trkpt lat="-27.2744406" lon="151.2900634">
  <ele>358.14</ele>
  <time>2026-09-01T19:51:11Z</time>
  <course>296.74</course>
  <speed>0.31</speed>
  <fix>3d</fix>
</trkpt>
<trkpt lat="-27.2744403" lon="151.2900624">
  <ele>357.96</ele>
  <time>2026-09-01T19:51:11Z</time>
  <course>34.8</course>
  <speed>0.304138126514911</speed>
  <fix>3d</fix>
</trkpt>
<trkpt lat="-27.2744403" lon="151.2900629">
  <ele>358.14</ele>
  <time>2026-09-01T19:51:11Z</time>
  <course>297.75</course>
  <speed>0.31</speed>
  <fix>3d</fix>
</trkpt>
<trkpt lat="-27.2744401" lon="151.2900621">
  <ele>357.96</ele>
  <time>2026-09-01T19:51:11Z</time>
  <course>36.47</course>
  <speed>0.30016662039607267</speed>
  <fix>3d</fix>
</trkpt>
<trkpt lat="-27.2744403" lon="151.2900629">
  <ele>358.14</ele>
  <time>2026-09-01T19:51:11Z</time>
  <course>297.75</course>
  <speed>0.31</speed>
  <fix>3d</fix>
</trkpt>
<trkpt lat="-27.27444" lon="151.2900619">
  <ele>357.96</ele>
  <time>2026-09-01T19:51:11Z</time>
  <course>37.02</course>
  <speed>0.30528675044947495</speed>
  <fix>3d</fix>
</trkpt>
<trkpt lat="-27.27444" lon="151.2900623">
  <ele>358.14</ele>
  <time>2026-09-01T19:51:11Z</time>
  <course>300.65</course>
  <speed>0.32</speed>
  <fix>3d</fix>
</trkpt>
<trkpt lat="-27.2744398" lon="151.2900616">
  <ele>357.97</ele>
  <time>2026-09-01T19:51:11Z</time>
  <course>37.14</course>
  <speed>0.3023243291566195</speed>
  <fix>3d</fix>
</trkpt>
<trkpt lat="-27.27444" lon="151.2900623">
  <ele>358.14</ele>
  <time>2026-09-01T19:51:11Z</time>
  <course>300.65</course>
  <speed>0.32</speed>
  <fix>3d</fix>
</trkpt>
<trkpt lat="-27.2744396" lon="151.2900613">
  <ele>357.97</ele>
  <time>2026-09-01T19:51:11Z</time>
  <course>37.17</course>
  <speed>0.31622776601683794</speed>
  <fix>3d</fix>
</trkpt>
<trkpt lat="-27.2744397" lon="151.2900617">
  <ele>358.14</ele>
  <time>2026-09-01T19:51:11Z</time>
  <course>304.84</course>
  <speed>0.32</speed>
  <fix>3d</fix>
</trkpt>
<trkpt lat="-27.2744394" lon="151.2900611">
  <ele>357.97</ele>
  <time>2026-09-01T19:51:11Z</time>
  <course>37.18</course>
  <speed>0.31622776601683794</speed>
  <fix>3d</fix>
</trkpt>
<trkpt lat="-27.2744397" lon="151.2900617">
  <ele>358.14</ele>
  <time>2026-09-01T19:51:11Z</time>
  <course>304.84</course>
  <speed>0.32</speed>
  <fix>3d</fix>
</trkpt>
<trkpt lat="-27.2744392" lon="151.2900608">
  <ele>357.97</ele>
  <time>2026-09-01T19:51:11Z</time>
  <course>37.13</course>
  <speed>0.31622776601683794</speed>
  <fix>3d</fix>
</trkpt>
<trkpt lat="-27.2744394" lon="151.2900612">
  <ele>358.14</ele>
  <time>2026-09-01T19:51:11Z</time>
  <course>307.09</course>
  <speed>0.33</speed>
  <fix>3d</fix>
</trkpt>
<trkpt lat="-27.2744391" lon="151.2900605">
  <ele>357.97</ele>
  <time>2026-09-01T19:51:11Z</time>
  <course>37.02</course>
  <speed>0.31622776601683794</speed>
  <fix>3d</fix>
</trkpt>
<trkpt lat="-27.2744394" lon="151.2900612">
  <ele>358.14</ele>
  <time>2026-09-01T19:51:11Z</time>
  <course>307.09</course>
  <speed>0.33</speed>
  <fix>3d</fix>
</trkpt>
<trkpt lat="-27.2744389" lon="151.2900602">
  <ele>357.97</ele>
  <time>2026-09-01T19:51:11Z</time>
  <course>36.87</course>
  <speed>0.31622776601683794</speed>
  <fix>3d</fix>
</trkpt>
<trkpt lat="-27.274439" lon="151.2900606">
  <ele>358.14</ele>
  <time>2026-09-01T19:51:11Z</time>
  <course>307.34</course>
  <speed>0.34</speed>
  <fix>3d</fix>
</trkpt>
<trkpt lat="-27.2744387" lon="151.29006">
  <ele>357.97</ele>
  <time>2026-09-01T19:51:11Z</time>
  <course>35.97</course>
  <speed>0.31622776601683794</speed>
  <fix>3d</fix>
</trkpt>
<trkpt lat="-27.274439" lon="151.2900606">
  <ele>358.14</ele>
  <time>2026-09-01T19:51:11Z</time>
  <course>307.34</course>
  <speed>0.34</speed>
  <fix>3d</fix>
</trkpt>
<trkpt lat="-27.2744385" lon="151.2900597">
  <ele>357.96</ele>
  <time>2026-09-01T19:51:11Z</time>
  <course>32.12</course>
  <speed>0.32202484376209234</speed>
  <fix>3d</fix>
</trkpt>
<trkpt lat="-27.2744387" lon="151.2900601">
  <ele>358.14</ele>
  <time>2026-09-01T19:51:11Z</time>
  <course>307.51</course>
  <speed>0.34</speed>
  <fix>3d</fix>
</trkpt>
<trkpt lat="-27.2744383" lon="151.2900594">
  <ele>357.96</ele>
  <time>2026-09-01T19:51:11Z</time>
  <course>28.17</course>
  <speed>0.32202484376209234</speed>
  <fix>3d</fix>
</trkpt>
<trkpt lat="-27.2744387" lon="151.2900601">
  <ele>358.14</ele>
  <time>2026-09-01T19:51:11Z</time>
  <course>307.51</course>
  <speed>0.34</speed>
  <fix>3d</fix>
</trkpt>
<trkpt lat="-27.2744381" lon="151.2900591">
  <ele>357.96</ele>
  <time>2026-09-01T19:51:11Z</time>
  <course>26.0</course>
  <speed>0.32202484376209234</speed>
  <fix>3d</fix>
</trkpt>
<trkpt lat="-27.2744383" lon="151.2900596">
  <ele>358.13</ele>
  <time>2026-09-01T19:51:11Z</time>
  <course>307.76</course>
  <speed>0.34</speed>
  <fix>3d</fix>
</trkpt>
<trkpt lat="-27.2744379" lon="151.2900589">
  <ele>357.96</ele>
  <time>2026-09-01T19:51:11Z</time>
  <course>25.27</course>
  <speed>0.32202484376209234</speed>
  <fix>3d</fix>
</trkpt>
<trkpt lat="-27.2744383" lon="151.2900596">
  <ele>358.13</ele>
  <time>2026-09-01T19:51:11Z</time>
  <course>307.76</course>
  <speed>0.34</speed>
  <fix>3d</fix>
</trkpt>
<trkpt lat="-27.2744377" lon="151.2900586">
  <ele>357.96</ele>
  <time>2026-09-01T19:51:11Z</time>
  <course>25.15</course>
  <speed>0.32202484376209234</speed>
  <fix>3d</fix>
</trkpt>
<trkpt lat="-27.2744379" lon="151.290059">
  <ele>358.13</ele>
  <time>2026-09-01T19:51:11Z</time>
  <course>308.14</course>
  <speed>0.34</speed>
  <fix>3d</fix>
</trkpt>
<trkpt lat="-27.2744376" lon="151.2900583">
  <ele>357.96</ele>
  <time>2026-09-01T19:51:11Z</time>
  <course>25.17</course>
  <speed>0.32202484376209234</speed>
  <fix>3d</fix>
</trkpt>
<trkpt lat="-27.2744379" lon="151.290059">
  <ele>358.13</ele>
  <time>2026-09-01T19:51:11Z</time>
  <course>308.14</course>
  <speed>0.34</speed>
  <fix>3d</fix>
</trkpt>
<trkpt lat="-27.2744374" lon="151.290058">
  <ele>357.96</ele>
  <time>2026-09-01T19:51:11Z</time>
  <course>25.18</course>
  <speed>0.32202484376209234</speed>
  <fix>3d</fix>
</trkpt>
<trkpt lat="-27.2744375" lon="151.2900584">
  <ele>358.13</ele>
  <time>2026-09-01T19:51:11Z</time>
  <course>308.55</course>
  <speed>0.34</speed>
  <fix>3d</fix>
</trkpt>
<trkpt lat="-27.2744372" lon="151.2900578">
  <ele>357.95</ele>
  <time>2026-09-01T19:51:11Z</time>
  <course>25.15</course>
  <speed>0.32202484376209234</speed>
  <fix>3d</fix>
</trkpt>
<trkpt lat="-27.2744375" lon="151.2900584">
  <ele>358.13</ele>
  <time>2026-09-01T19:51:11Z</time>
  <course>308.55</course>
  <speed>0.34</speed>
  <fix>3d</fix>
</trkpt>
<trkpt lat="-27.274437" lon="151.2900575">
  <ele>357.95</ele>
  <time>2026-09-01T19:51:11Z</time>
  <course>25.06</course>
  <speed>0.32202484376209234</speed>
  <fix>3d</fix>
</trkpt>
<trkpt lat="-27.2744371" lon="151.2900579">
  <ele>358.12</ele>
  <time>2026-09-01T19:51:11Z</time>
  <course>308.93</course>
  <speed>0.34</speed>
  <fix>3d</fix>
</trkpt>
<trkpt lat="-27.2744368" lon="151.2900572">
  <ele>357.95</ele>
  <time>2026-09-01T19:51:11Z</time>
  <course>24.92</course>
  <speed>0.32202484376209234</speed>
  <fix>3d</fix>
</trkpt>
<trkpt lat="-27.2744371" lon="151.2900579">
  <ele>358.12</ele>
  <time>2026-09-01T19:51:11Z</time>
  <course>308.93</course>
  <speed>0.34</speed>
  <fix>3d</fix>
</trkpt>
<trkpt lat="-27.2744366" lon="151.2900569">
  <ele>357.95</ele>
  <time>2026-09-01T19:51:11Z</time>
  <course>25.08</course>
  <speed>0.32202484376209234</speed>
  <fix>3d</fix>
</trkpt>
<trkpt lat="-27.2744367" lon="151.2900574">
  <ele>358.12</ele>
  <time>2026-09-01T19:51:11Z</time>
  <course>309.29</course>
  <speed>0.34</speed>
  <fix>3d</fix>
</trkpt>
<trkpt lat="-27.2744364" lon="151.2900567">
  <ele>357.95</ele>
  <time>2026-09-01T19:51:11Z</time>
  <course>28.54</course>
  <speed>0.31400636936215165</speed>
  <fix>3d</fix>
</trkpt>
<trkpt lat="-27.2744367" lon="151.2900574">
  <ele>358.12</ele>
  <time>2026-09-01T19:51:11Z</time>
  <course>309.29</course>
  <speed>0.34</speed>
  <fix>3d</fix>
</trkpt>
<trkpt lat="-27.2744362" lon="151.2900564">
  <ele>357.95</ele>
  <time>2026-09-01T19:51:11Z</time>
  <course>32.89</course>
  <speed>0.31400636936215165</speed>
  <fix>3d</fix>
</trkpt>
<trkpt lat="-27.2744364" lon="151.2900568">
  <ele>358.12</ele>
  <time>2026-09-01T19:51:11Z</time>
  <course>309.65</course>
  <speed>0.34</speed>
  <fix>3d</fix>
</trkpt>
<trkpt lat="-27.274436" lon="151.2900561">
  <ele>357.95</ele>
  <time>2026-09-01T19:51:11Z</time>
  <course>35.53</course>
  <speed>0.31400636936215165</speed>
  <fix>3d</fix>
</trkpt>
<trkpt lat="-27.2744364" lon="151.2900568">
  <ele>358.12</ele>
  <time>2026-09-01T19:51:11Z</time>
  <course>309.65</course>
  <speed>0.34</speed>
  <fix>3d</fix>
</trkpt>
<trkpt lat="-27.2744358" lon="151.2900559">
  <ele>357.95</ele>
  <time>2026-09-01T19:51:11Z</time>
  <course>36.43</course>
  <speed>0.31400636936215165</speed>
  <fix>3d</fix>
</trkpt>
<trkpt lat="-27.274436" lon="151.2900563">
  <ele>358.12</ele>
  <time>2026-09-01T19:51:11Z</time>
  <course>310.02</course>
  <speed>0.34</speed>
  <fix>3d</fix>
</trkpt>
<trkpt lat="-27.2744356" lon="151.2900556">
  <ele>357.95</ele>
  <time>2026-09-01T19:51:11Z</time>
  <course>36.51</course>
  <speed>0.31400636936215165</speed>
  <fix>3d</fix>
</trkpt>
<trkpt lat="-27.274436" lon="151.2900563">
  <ele>358.12</ele>
  <time>2026-09-01T19:51:11Z</time>
  <course>310.02</course>
  <speed>0.34</speed>
  <fix>3d</fix>
</trkpt>
<trkpt lat="-27.2744354" lon="151.2900554">
  <ele>357.95</ele>
  <time>2026-09-01T19:51:11Z</time>
  <course>36.43</course>
  <speed>0.30610455730027936</speed>
  <fix>3d</fix>
</trkpt>
<trkpt lat="-27.2744355" lon="151.2900557">
  <ele>358.12</ele>
  <time>2026-09-01T19:51:11Z</time>
  <course>310.37</course>
  <speed>0.33</speed>
  <fix>3d</fix>
</trkpt>
<trkpt lat="-27.2744352" lon="151.2900551">
  <ele>357.95</ele>
  <time>2026-09-01T19:51:11Z</time>
  <course>36.39</course>
  <speed>0.30610455730027936</speed>
  <fix>3d</fix>
</trkpt>
<trkpt lat="-27.2744355" lon="151.2900557">
  <ele>358.12</ele>
  <time>2026-09-01T19:51:11Z</time>
  <course>310.37</course>
  <speed>0.33</speed>
  <fix>3d</fix>
</trkpt>
<trkpt lat="-27.274435" lon="151.2900549">
  <ele>357.95</ele>
  <time>2026-09-01T19:51:11Z</time>
  <course>36.33</course>
  <speed>0.30610455730027936</speed>
  <fix>3d</fix>
</trkpt>
<trkpt lat="-27.2744352" lon="151.2900552">
  <ele>358.12</ele>
  <time>2026-09-01T19:51:11Z</time>
  <course>310.69</course>
  <speed>0.33</speed>
  <fix>3d</fix>
</trkpt>
<trkpt lat="-27.2744348" lon="151.2900546">
  <ele>357.95</ele>
  <time>2026-09-01T19:51:11Z</time>
  <course>36.22</course>
  <speed>0.29832867780352595</speed>
  <fix>3d</fix>
</trkpt>
<trkpt lat="-27.2744352" lon="151.2900552">
  <ele>358.12</ele>
  <time>2026-09-01T19:51:11Z</time>
  <course>310.69</course>
  <speed>0.33</speed>
  <fix>3d</fix>
</trkpt>
<trkpt lat="-27.2744346" lon="151.2900544">
  <ele>357.94</ele>
  <time>2026-09-01T19:51:11Z</time>
  <course>36.08</course>
  <speed>0.29832867780352595</speed>
  <fix>3d</fix>
</trkpt>
<trkpt lat="-27.2744348" lon="151.2900547">
  <ele>358.12</ele>
  <time>2026-09-01T19:51:11Z</time>
  <course>311.04</course>
  <speed>0.32</speed>
  <fix>3d</fix>
</trkpt>
<trkpt lat="-27.2744345" lon="151.2900541">
  <ele>357.94</ele>
  <time>2026-09-01T19:51:11Z</time>
  <course>35.9</course>
  <speed>0.2920616373302047</speed>
  <fix>3d</fix>
</trkpt>
<trkpt lat="-27.2744348" lon="151.2900547">
  <ele>358.12</ele>
  <time>2026-09-01T19:51:11Z</time>
  <course>311.04</course>
  <speed>0.32</speed>
  <fix>3d</fix>
</trkpt>
<trkpt lat="-27.2744343" lon="151.2900539">
  <ele>357.94</ele>
  <time>2026-09-01T19:51:11Z</time>
  <course>33.48</course>
  <speed>0.2842534080710379</speed>
  <fix>3d</fix>
</trkpt>
<trkpt lat="-27.2744343" lon="151.2900542">
  <ele>358.12</ele>
  <time>2026-09-01T19:51:11Z</time>
  <course>311.44</course>
  <speed>0.31</speed>
  <fix>3d</fix>
</trkpt>
<trkpt lat="-27.2744341" lon="151.2900536">
  <ele>357.94</ele>
  <time>2026-09-01T19:51:11Z</time>
  <course>29.27</course>
  <speed>0.2842534080710379</speed>
  <fix>3d</fix>
</trkpt>
<trkpt lat="-27.2744343" lon="151.2900542">
  <ele>358.12</ele>
  <time>2026-09-01T19:51:11Z</time>
  <course>311.44</course>
  <speed>0.31</speed>
  <fix>3d</fix>
</trkpt>
<trkpt lat="-27.2744339" lon="151.2900534">
  <ele>357.94</ele>
  <time>2026-09-01T19:51:11Z</time>
  <course>26.39</course>
  <speed>0.27018512172212594</speed>
  <fix>3d</fix>
</trkpt>
<trkpt lat="-27.274434" lon="151.2900538">
  <ele>358.12</ele>
  <time>2026-09-01T19:51:11Z</time>
  <course>311.88</course>
  <speed>0.3</speed>
  <fix>3d</fix>
</trkpt>
<trkpt lat="-27.2744337" lon="151.2900532">
  <ele>357.94</ele>
  <time>2026-09-01T19:51:11Z</time>
  <course>25.37</course>
  <speed>0.27018512172212594</speed>
  <fix>3d</fix>
</trkpt>
<trkpt lat="-27.274434" lon="151.2900538">
  <ele>358.12</ele>
  <time>2026-09-01T19:51:11Z</time>
  <course>311.88</course>
  <speed>0.3</speed>
  <fix>3d</fix>
</trkpt>
<trkpt lat="-27.2744335" lon="151.290053">
  <ele>357.94</ele>
  <time>2026-09-01T19:51:11Z</time>
  <course>25.31</course>
  <speed>0.26248809496813374</speed>
  <fix>3d</fix>
</trkpt>
<trkpt lat="-27.2744336" lon="151.2900533">
  <ele>358.12</ele>
  <time>2026-09-01T19:51:11Z</time>
  <course>312.34</course>
  <speed>0.29</speed>
  <fix>3d</fix>
</trkpt>
<trkpt lat="-27.2744334" lon="151.2900528">
  <ele>357.94</ele>
  <time>2026-09-01T19:51:11Z</time>
  <course>25.45</course>
  <speed>0.26248809496813374</speed>
  <fix>3d</fix>
</trkpt>
<trkpt lat="-27.2744336" lon="151.2900533">
  <ele>358.12</ele>
  <time>2026-09-01T19:51:11Z</time>
  <course>312.34</course>
  <speed>0.29</speed>
  <fix>3d</fix>
</trkpt>
<trkpt lat="-27.2744332" lon="151.2900526">
  <ele>357.94</ele>
  <time>2026-09-01T19:51:11Z</time>
  <course>25.53</course>
  <speed>0.24839484696748443</speed>
  <fix>3d</fix>
</trkpt>
<trkpt lat="-27.2744333" lon="151.2900528">
  <ele>358.13</ele>
  <time>2026-09-01T19:51:11Z</time>
  <course>312.88</course>
  <speed>0.28</speed>
  <fix>3d</fix>
</trkpt>
<trkpt lat="-27.274433" lon="151.2900524">
  <ele>357.95</ele>
  <time>2026-09-01T19:51:11Z</time>
  <course>25.52</course>
  <speed>0.24839484696748443</speed>
  <fix>3d</fix>
</trkpt>
<trkpt lat="-27.2744333" lon="151.2900528">
  <ele>358.13</ele>
  <time>2026-09-01T19:51:11Z</time>
  <course>312.88</course>
  <speed>0.28</speed>
  <fix>3d</fix>
</trkpt>
<trkpt lat="-27.2744328" lon="151.2900522">
  <ele>357.95</ele>
  <time>2026-09-01T19:51:11Z</time>
  <course>25.45</course>
  <speed>0.24083189157584592</speed>
  <fix>3d</fix>
</trkpt>
<trkpt lat="-27.2744329" lon="151.2900525">
  <ele>358.13</ele>
  <time>2026-09-01T19:51:11Z</time>
  <course>313.5</course>
  <speed>0.27</speed>
  <fix>3d</fix>
</trkpt>
<trkpt lat="-27.2744327" lon="151.290052">
  <ele>357.95</ele>
  <time>2026-09-01T19:51:11Z</time>
  <course>25.33</course>
  <speed>0.22671568097509268</speed>
  <fix>3d</fix>
</trkpt>
<trkpt lat="-27.2744329" lon="151.2900525">
  <ele>358.13</ele>
  <time>2026-09-01T19:51:11Z</time>
  <course>313.5</course>
  <speed>0.27</speed>
  <fix>3d</fix>
</trkpt>
<trkpt lat="-27.2744325" lon="151.2900518">
  <ele>357.96</ele>
  <time>2026-09-01T19:51:11Z</time>
  <course>25.33</course>
  <speed>0.22671568097509268</speed>
  <fix>3d</fix>
</trkpt>
<trkpt lat="-27.2744326" lon="151.290052">
  <ele>358.13</ele>
  <time>2026-09-01T19:51:11Z</time>
  <course>314.15</course>
  <speed>0.26</speed>
  <fix>3d</fix>
</trkpt>
<trkpt lat="-27.2744324" lon="151.2900516">
  <ele>357.96</ele>
  <time>2026-09-01T19:51:11Z</time>
  <course>28.18</course>
  <speed>0.212602916254693</speed>
  <fix>3d</fix>
</trkpt>
<trkpt lat="-27.2744326" lon="151.290052">
  <ele>358.13</ele>
  <time>2026-09-01T19:51:11Z</time>
  <course>314.15</course>
  <speed>0.26</speed>
  <fix>3d</fix>
</trkpt>
<trkpt lat="-27.2744322" lon="151.2900515">
  <ele>357.96</ele>
  <time>2026-09-01T19:51:11Z</time>
  <course>32.59</course>
  <speed>0.20518284528683192</speed>
  <fix>3d</fix>
</trkpt>
<trkpt lat="-27.2744323" lon="151.2900517">
  <ele>358.13</ele>
  <time>2026-09-01T19:51:11Z</time>
  <course>314.85</course>
  <speed>0.24</speed>
  <fix>3d</fix>
</trkpt>
<trkpt lat="-27.2744321" lon="151.2900513">
  <ele>357.96</ele>
  <time>2026-09-01T19:51:11Z</time>
  <course>35.32</course>
  <speed>0.20518284528683192</speed>
  <fix>3d</fix>
</trkpt>
<trkpt lat="-27.2744323" lon="151.2900517">
  <ele>358.13</ele>
  <time>2026-09-01T19:51:11Z</time>
  <course>314.85</course>
  <speed>0.24</speed>
  <fix>3d</fix>
</trkpt>
<trkpt lat="-27.2744319" lon="151.2900511">
  <ele>357.96</ele>
  <time>2026-09-01T19:51:11Z</time>
  <course>36.11</course>
  <speed>0.191049731745428</speed>
  <fix>3d</fix>
</trkpt>
<trkpt lat="-27.274432" lon="151.2900514">
  <ele>358.14</ele>
  <time>2026-09-01T19:51:11Z</time>
  <course>315.67</course>
  <speed>0.22</speed>
  <fix>3d</fix>
</trkpt>
<trkpt lat="-27.2744318" lon="151.290051">
  <ele>357.96</ele>
  <time>2026-09-01T19:51:11Z</time>
  <course>36.25</course>
  <speed>0.18384776310850234</speed>
  <fix>3d</fix>
</trkpt>
<trkpt lat="-27.274432" lon="151.2900514">
  <ele>358.14</ele>
  <time>2026-09-01T19:51:11Z</time>
  <course>315.67</course>
  <speed>0.22</speed>
  <fix>3d</fix>
</trkpt>
<trkpt lat="-27.2744317" lon="151.2900509">
  <ele>357.96</ele>
  <time>2026-09-01T19:51:11Z</time>
  <course>36.19</course>
  <speed>0.1769180601295413</speed>
  <fix>3d</fix>
</trkpt>
<trkpt lat="-27.2744317" lon="151.2900511">
  <ele>358.14</ele>
  <time>2026-09-01T19:51:11Z</time>
  <course>316.63</course>
  <speed>0.21</speed>
  <fix>3d</fix>
</trkpt>
<trkpt lat="-27.2744315" lon="151.2900507">
  <ele>357.96</ele>
  <time>2026-09-01T19:51:11Z</time>
  <course>36.03</course>
  <speed>0.1697056274847714</speed>
  <fix>3d</fix>
</trkpt>
<trkpt lat="-27.2744317" lon="151.2900511">
  <ele>358.14</ele>
  <time>2026-09-01T19:51:11Z</time>
  <course>316.63</course>
  <speed>0.21</speed>
  <fix>3d</fix>
</trkpt>
<trkpt lat="-27.2744314" lon="151.2900506">
  <ele>357.96</ele>
  <time>2026-09-01T19:51:11Z</time>
  <course>35.61</course>
  <speed>0.15556349186104046</speed>
  <fix>3d</fix>
</trkpt>
<trkpt lat="-27.2744314" lon="151.2900508">
  <ele>358.13</ele>
  <time>2026-09-01T19:51:11Z</time>
  <course>317.79</course>
  <speed>0.19</speed>
  <fix>3d</fix>
</trkpt>
<trkpt lat="-27.2744313" lon="151.2900505">
  <ele>357.96</ele>
  <time>2026-09-01T19:51:11Z</time>
  <course>32.4</course>
  <speed>0.14866068747318506</speed>
  <fix>3d</fix>
</trkpt>
<trkpt lat="-27.2744314" lon="151.2900508">
  <ele>358.13</ele>
  <time>2026-09-01T19:51:11Z</time>
  <course>317.79</course>
  <speed>0.19</speed>
  <fix>3d</fix>
</trkpt>
<trkpt lat="-27.2744312" lon="151.2900504">
  <ele>357.96</ele>
  <time>2026-09-01T19:51:11Z</time>
  <course>28.19</course>
  <speed>0.1345362404707371</speed>
  <fix>3d</fix>
</trkpt>
<trkpt lat="-27.2744312" lon="151.2900506">
  <ele>358.13</ele>
  <time>2026-09-01T19:51:11Z</time>
  <course>319.28</course>
  <speed>0.17</speed>
  <fix>3d</fix>
</trkpt>
<trkpt lat="-27.2744311" lon="151.2900503">
  <ele>357.96</ele>
  <time>2026-09-01T19:51:11Z</time>
  <course>25.79</course>
  <speed>0.12806248474865697</speed>
  <fix>3d</fix>
</trkpt>
<trkpt lat="-27.2744312" lon="151.2900506">
  <ele>358.13</ele>
  <time>2026-09-01T19:51:11Z</time>
  <course>319.28</course>
  <speed>0.17</speed>
  <fix>3d</fix>
</trkpt>
<trkpt lat="-27.274431" lon="151.2900502">
  <ele>357.96</ele>
  <time>2026-09-01T19:51:11Z</time>
  <course>25.19</course>
  <speed>0.12041594578792296</speed>
  <fix>3d</fix>
</trkpt>
<trkpt lat="-27.274431" lon="151.2900503">
  <ele>358.13</ele>
  <time>2026-09-01T19:51:11Z</time>
  <course>321.17</course>
  <speed>0.15</speed>
  <fix>3d</fix>
</trkpt>
<trkpt lat="-27.2744309" lon="151.2900501">
  <ele>357.96</ele>
  <time>2026-09-01T19:51:11Z</time>
  <course>25.35</course>
  <speed>0.1063014581273465</speed>
  <fix>3d</fix>
</trkpt>
<trkpt lat="-27.274431" lon="151.2900503">
  <ele>358.13</ele>
  <time>2026-09-01T19:51:11Z</time>
  <course>321.17</course>
  <speed>0.15</speed>
  <fix>3d</fix>
</trkpt>
<trkpt lat="-27.2744308" lon="151.2900501">
  <ele>357.96</ele>
  <time>2026-09-01T19:51:11Z</time>
  <course>25.55</course>
  <speed>0.1</speed>
  <fix>3d</fix>
</trkpt>
<trkpt lat="-27.2744308" lon="151.2900502">
  <ele>358.13</ele>
  <time>2026-09-01T19:51:11Z</time>
  <course>323.55</course>
  <speed>0.14</speed>
  <fix>3d</fix>
</trkpt>
<trkpt lat="-27.2744307" lon="151.29005">
  <ele>357.96</ele>
  <time>2026-09-01T19:51:11Z</time>
  <course>25.64</course>
  <speed>0.08602325267042626</speed>
  <fix>3d</fix>
</trkpt>
<trkpt lat="-27.2744308" lon="151.2900502">
  <ele>358.13</ele>
  <time>2026-09-01T19:51:11Z</time>
  <course>323.55</course>
  <speed>0.14</speed>
  <fix>3d</fix>
</trkpt>
<trkpt lat="-27.2744306" lon="151.29005">
  <ele>357.96</ele>
  <time>2026-09-01T19:51:11Z</time>
  <course>25.64</course>
  <speed>0.08062257748298549</speed>
  <fix>3d</fix>
</trkpt>
<trkpt lat="-27.2744306" lon="151.29005">
  <ele>358.13</ele>
  <time>2026-09-01T19:51:11Z</time>
  <course>326.65</course>
  <speed>0.12</speed>
  <fix>3d</fix>
</trkpt>
<trkpt lat="-27.2744305" lon="151.2900499">
  <ele>357.96</ele>
  <time>2026-09-01T19:51:11Z</time>
  <course>25.56</course>
  <speed>0.0670820393249937</speed>
  <fix>3d</fix>
</trkpt>
<trkpt lat="-27.2744306" lon="151.29005">
  <ele>358.13</ele>
  <time>2026-09-01T19:51:11Z</time>
  <course>326.65</course>
  <speed>0.12</speed>
  <fix>3d</fix>
</trkpt>
<trkpt lat="-27.2744305" lon="151.2900499">
  <ele>357.95</ele>
  <time>2026-09-01T19:51:11Z</time>
  <course>25.5</course>
  <speed>0.053851648071345036</speed>
  <fix>3d</fix>
</trkpt>
<trkpt lat="-27.2744304" lon="151.2900499">
  <ele>358.12</ele>
  <time>2026-09-01T19:51:11Z</time>
  <course>330.9</course>
  <speed>0.1</speed>
  <fix>3d</fix>
</trkpt>
<trkpt lat="-27.2744304" lon="151.2900498">
  <ele>357.95</ele>
  <time>2026-09-01T19:51:11Z</time>
  <course>27.93</course>
  <speed>0.053851648071345036</speed>
  <fix>3d</fix>
</trkpt>
<trkpt lat="-27.2744304" lon="151.2900499">
  <ele>358.12</ele>
  <time>2026-09-01T19:51:11Z</time>
  <course>330.9</course>
  <speed>0.1</speed>
  <fix>3d</fix>
</trkpt>
<trkpt lat="-27.2744303" lon="151.2900498">
  <ele>357.95</ele>
  <time>2026-09-01T19:51:11Z</time>
  <course>32.34</course>
  <speed>0.0412310562561766</speed>
  <fix>3d</fix>
</trkpt>
<trkpt lat="-27.2744302" lon="151.2900498">
  <ele>358.12</ele>
  <time>2026-09-01T19:51:11Z</time>
  <course>337.18</course>
  <speed>0.08</speed>
  <fix>3d</fix>
</trkpt>
<trkpt lat="-27.2744303" lon="151.2900498">
  <ele>357.95</ele>
  <time>2026-09-01T19:51:11Z</time>
  <course>35.27</course>
  <speed>0.04</speed>
  <fix>3d</fix>
</trkpt>
<trkpt lat="-27.2744302" lon="151.2900498">
  <ele>358.12</ele>
  <time>2026-09-01T19:51:11Z</time>
  <course>337.18</course>
  <speed>0.08</speed>
  <fix>3d</fix>
</trkpt>
<trkpt lat="-27.2744302" lon="151.2900498">
  <ele>357.95</ele>
  <time>2026-09-01T19:51:11Z</time>
  <course>36.18</course>
  <speed>0.03</speed>
  <fix>3d</fix>
</trkpt>
<trkpt lat="-27.2744301" lon="151.2900498">
  <ele>358.12</ele>
  <time>2026-09-01T19:51:11Z</time>
  <course>346.93</course>
  <speed>0.06</speed>
  <fix>3d</fix>
</trkpt>
<trkpt lat="-27.2744302" lon="151.2900498">
  <ele>357.95</ele>
  <time>2026-09-01T19:51:11Z</time>
  <course>36.09</course>
  <speed>0.022360679774997897</speed>
  <fix>3d</fix>
</trkpt>
<trkpt lat="-27.2744301" lon="151.2900498">
  <ele>358.12</ele>
  <time>2026-09-01T19:51:11Z</time>
  <course>346.93</course>
  <speed>0.06</speed>
  <fix>3d</fix>
</trkpt>
<trkpt lat="-27.2744301" lon="151.2900498">
  <ele>357.95</ele>
  <time>2026-09-01T19:51:11Z</time>
  <course>35.85</course>
  <speed>0.0282842712474619</speed>
  <fix>3d</fix>
</trkpt>
<trkpt lat="-27.27443" lon="151.2900498">
  <ele>358.12</ele>
  <time>2026-09-01T19:51:11Z</time>
  <course>2.58</course>
  <speed>0.05</speed>
  <fix>3d</fix>
</trkpt>
<trkpt lat="-27.2744301" lon="151.2900499">
  <ele>357.95</ele>
  <time>2026-09-01T19:51:11Z</time>
  <course>35.73</course>
  <speed>0.0316227766016838</speed>
  <fix>3d</fix>
</trkpt>
<trkpt lat="-27.27443" lon="151.2900498">
  <ele>358.12</ele>
  <time>2026-09-01T19:51:11Z</time>
  <course>2.58</course>
  <speed>0.05</speed>
  <fix>3d</fix>
</trkpt>
<trkpt lat="-27.2744301" lon="151.2900499">
  <ele>357.95</ele>
  <time>2026-09-01T19:51:11Z</time>
  <course>35.63</course>
  <speed>0.04</speed>
  <fix>3d</fix>
</trkpt>
<trkpt lat="-27.2744299" lon="151.2900498">
  <ele>358.12</ele>
  <time>2026-09-01T19:51:11Z</time>
  <course>26.65</course>
  <speed>0.04</speed>
  <fix>3d</fix>
</trkpt>
<trkpt lat="-27.2744301" lon="151.2900499">
  <ele>357.95</ele>
  <time>2026-09-01T19:51:11Z</time>
  <course>35.52</course>
  <speed>0.05</speed>
  <fix>3d</fix>
</trkpt>
<trkpt lat="-27.2744299" lon="151.2900498">
  <ele>358.12</ele>
  <time>2026-09-01T19:51:11Z</time>
  <course>26.65</course>
  <speed>0.04</speed>
  <fix>3d</fix>
</trkpt>
<trkpt lat="-27.27443" lon="151.2900499">
  <ele>357.95</ele>
  <time>2026-09-01T19:51:11Z</time>
  <course>35.01</course>
  <speed>0.05</speed>
  <fix>3d</fix>
</trkpt>
<trkpt lat="-27.2744299" lon="151.2900498">
  <ele>358.12</ele>
  <time>2026-09-01T19:51:11Z</time>
  <course>54.9</course>
  <speed>0.04</speed>
  <fix>3d</fix>
</trkpt>
<trkpt lat="-27.27443" lon="151.29005">
  <ele>357.95</ele>
  <time>2026-09-01T19:51:11Z</time>
  <course>31.59</course>
  <speed>0.06082762530298219</speed>
  <fix>3d</fix>
</trkpt>
<trkpt lat="-27.2744299" lon="151.2900498">
  <ele>358.12</ele>
  <time>2026-09-01T19:51:11Z</time>
  <course>54.9</course>
  <speed>0.04</speed>
  <fix>3d</fix>
</trkpt>
<trkpt lat="-27.27443" lon="151.29005">
  <ele>357.95</ele>
  <time>2026-09-01T19:51:11Z</time>
  <course>27.62</course>
  <speed>0.07071067811865475</speed>
  <fix>3d</fix>
</trkpt>
<trkpt lat="-27.2744298" lon="151.2900498">
  <ele>358.12</ele>
  <time>2026-09-01T19:51:11Z</time>
  <course>77.11</course>
  <speed>0.05</speed>
  <fix>3d</fix>
</trkpt>
<trkpt lat="-27.27443" lon="151.2900501">
  <ele>357.95</ele>
  <time>2026-09-01T19:51:11Z</time>
  <course>25.69</course>
  <speed>0.0824621125123532</speed>
  <fix>3d</fix>
</trkpt>
<trkpt lat="-27.2744298" lon="151.2900498">
  <ele>358.12</ele>
  <time>2026-09-01T19:51:11Z</time>
  <course>77.11</course>
  <speed>0.05</speed>
  <fix>3d</fix>
</trkpt>
<trkpt lat="-27.27443" lon="151.2900502">
  <ele>357.95</ele>
  <time>2026-09-01T19:51:11Z</time>
  <course>25.44</course>
  <speed>0.09486832980505139</speed>
  <fix>3d</fix>
</trkpt>
<trkpt lat="-27.2744298" lon="151.2900499">
  <ele>358.12</ele>
  <time>2026-09-01T19:51:11Z</time>
  <course>91.01</course>
  <speed>0.07</speed>
  <fix>3d</fix>
</trkpt>
<trkpt lat="-27.2744301" lon="151.2900503">
  <ele>357.95</ele>
  <time>2026-09-01T19:51:11Z</time>
  <course>25.74</course>
  <speed>0.10770329614269007</speed>
  <fix>3d</fix>
</trkpt>
<trkpt lat="-27.2744298" lon="151.2900499">
  <ele>358.12</ele>
  <time>2026-09-01T19:51:11Z</time>
  <course>91.01</course>
  <speed>0.07</speed>
  <fix>3d</fix>
</trkpt>
<trkpt lat="-27.2744301" lon="151.2900504">
  <ele>357.95</ele>
  <time>2026-09-01T19:51:12Z</time>
  <course>25.96</course>
  <speed>0.11704699910719625</speed>
  <fix>3d</fix>
</trkpt>
<trkpt lat="-27.2744298" lon="151.29005">
  <ele>358.13</ele>
  <time>2026-09-01T19:51:12Z</time>
  <course>99.53</course>
  <speed>0.09</speed>
  <fix>3d</fix>
</trkpt>
<trkpt lat="-27.2744301" lon="151.2900505">
  <ele>357.95</ele>
  <time>2026-09-01T19:51:12Z</time>
  <course>26.02</course>
  <speed>0.13</speed>
  <fix>3d</fix>
</trkpt>
<trkpt lat="-27.2744298" lon="151.29005">
  <ele>358.13</ele>
  <time>2026-09-01T19:51:12Z</time>
  <course>99.53</course>
  <speed>0.09</speed>
  <fix>3d</fix>
</trkpt>
<trkpt lat="-27.2744301" lon="151.2900506">
  <ele>357.95</ele>
  <time>2026-09-01T19:51:12Z</time>
  <course>26.0</course>
  <speed>0.14317821063276354</speed>
  <fix>3d</fix>
</trkpt>
<trkpt lat="-27.2744299" lon="151.2900503">
  <ele>358.13</ele>
  <time>2026-09-01T19:51:12Z</time>
  <course>105.04</course>
  <speed>0.11</speed>
  <fix>3d</fix>
</trkpt>
<trkpt lat="-27.2744301" lon="151.2900507">
  <ele>357.94</ele>
  <time>2026-09-01T19:51:12Z</time>
  <course>25.91</course>
  <speed>0.147648230602334</speed>
  <fix>3d</fix>
</trkpt>
<trkpt lat="-27.2744299" lon="151.2900503">
  <ele>358.13</ele>
  <time>2026-09-01T19:51:12Z</time>
  <course>105.04</course>
  <speed>0.11</speed>
  <fix>3d</fix>
</trkpt>
<trkpt lat="-27.2744301" lon="151.2900508">
  <ele>357.94</ele>
  <time>2026-09-01T19:51:12Z</time>
  <course>26.09</course>
  <speed>0.15652475842498528</speed>
  <fix>3d</fix>
</trkpt>
<trkpt lat="-27.2744299" lon="151.2900506">
  <ele>358.13</ele>
  <time>2026-09-01T19:51:12Z</time>
  <course>108.92</course>
  <speed>0.13</speed>
  <fix>3d</fix>
</trkpt>
<trkpt lat="-27.2744302" lon="151.290051">
  <ele>357.94</ele>
  <time>2026-09-01T19:51:12Z</time>
  <course>29.32</course>
  <speed>0.17</speed>
  <fix>3d</fix>
</trkpt>
<trkpt lat="-27.2744299" lon="151.2900506">
  <ele>358.13</ele>
  <time>2026-09-01T19:51:12Z</time>
  <course>108.92</course>
  <speed>0.13</speed>
  <fix>3d</fix>
</trkpt>
<trkpt lat="-27.2744302" lon="151.2900511">
  <ele>357.94</ele>
  <time>2026-09-01T19:51:12Z</time>
  <course>33.47</course>
  <speed>0.1835755975068582</speed>
  <fix>3d</fix>
</trkpt>
<trkpt lat="-27.2744299" lon="151.2900508">
  <ele>358.13</ele>
  <time>2026-09-01T19:51:12Z</time>
  <course>111.86</course>
  <speed>0.15</speed>
  <fix>3d</fix>
</trkpt>
<trkpt lat="-27.2744303" lon="151.2900513">
  <ele>357.94</ele>
  <time>2026-09-01T19:51:12Z</time>
  <course>35.59</course>
  <speed>0.19235384061671343</speed>
  <fix>3d</fix>
</trkpt>
<trkpt lat="-27.2744299" lon="151.2900508">
  <ele>358.13</ele>
  <time>2026-09-01T19:51:12Z</time>
  <course>111.86</course>
  <speed>0.15</speed>
  <fix>3d</fix>
</trkpt>
<trkpt lat="-27.2744304" lon="151.2900515">
  <ele>357.94</ele>
  <time>2026-09-01T19:51:12Z</time>
  <course>36.16</course>
  <speed>0.20591260281974003</speed>
  <fix>3d</fix>
</trkpt>
<trkpt lat="-27.27443" lon="151.2900511">
  <ele>358.13</ele>
  <time>2026-09-01T19:51:12Z</time>
  <course>114.13</course>
  <speed>0.17</speed>
  <fix>3d</fix>
</trkpt>
<trkpt lat="-27.2744304" lon="151.2900516">
  <ele>357.94</ele>
  <time>2026-09-01T19:51:12Z</time>
  <course>36.34</course>
  <speed>0.2109502310972899</speed>
  <fix>3d</fix>
</trkpt>
<trkpt lat="-27.27443" lon="151.2900511">
  <ele>358.13</ele>
  <time>2026-09-01T19:51:12Z</time>
  <course>114.13</course>
  <speed>0.17</speed>
  <fix>3d</fix>
</trkpt>
<trkpt lat="-27.2744305" lon="151.2900518">
  <ele>357.94</ele>
  <time>2026-09-01T19:51:12Z</time>
  <course>36.27</course>
  <speed>0.2195449840010015</speed>
  <fix>3d</fix>
</trkpt>
<trkpt lat="-27.2744302" lon="151.2900515">
  <ele>358.13</ele>
  <time>2026-09-01T19:51:12Z</time>
  <course>115.86</course>
  <speed>0.2</speed>
  <fix>3d</fix>
</trkpt>
<trkpt lat="-27.2744306" lon="151.290052">
  <ele>357.94</ele>
  <time>2026-09-01T19:51:12Z</time>
  <course>36.05</course>
  <speed>0.23323807579381203</speed>
  <fix>3d</fix>
</trkpt>
<trkpt lat="-27.2744302" lon="151.2900515">
  <ele>358.13</ele>
  <time>2026-09-01T19:51:12Z</time>
  <course>115.86</course>
  <speed>0.2</speed>
  <fix>3d</fix>
</trkpt>
<trkpt lat="-27.2744307" lon="151.2900522">
  <ele>357.94</ele>
  <time>2026-09-01T19:51:12Z</time>
  <course>35.75</course>
  <speed>0.24698178070456936</speed>
  <fix>3d</fix>
</trkpt>
<trkpt lat="-27.2744304" lon="151.2900518">
  <ele>358.13</ele>
  <time>2026-09-01T19:51:12Z</time>
  <course>117.23</course>
  <speed>0.22</speed>
  <fix>3d</fix>
</trkpt>
<trkpt lat="-27.2744308" lon="151.2900524">
  <ele>357.95</ele>
  <time>2026-09-01T19:51:12Z</time>
  <course>34.62</course>
  <speed>0.24698178070456936</speed>
  <fix>3d</fix>
</trkpt>
<trkpt lat="-27.2744304" lon="151.2900518">
  <ele>358.13</ele>
  <time>2026-09-01T19:51:12Z</time>
  <course>117.23</course>
  <speed>0.22</speed>
  <fix>3d</fix>
</trkpt>
<trkpt lat="-27.2744309" lon="151.2900527">
  <ele>357.95</ele>
  <time>2026-09-01T19:51:12Z</time>
  <course>30.64</course>
  <speed>0.260768096208106</speed>
  <fix>3d</fix>
</trkpt>
<trkpt lat="-27.2744306" lon="151.2900523">
  <ele>358.14</ele>
  <time>2026-09-01T19:51:12Z</time>
  <course>118.38</course>
  <speed>0.24</speed>
  <fix>3d</fix>
</trkpt>
<trkpt lat="-27.274431" lon="151.2900529">
  <ele>357.95</ele>
  <time>2026-09-01T19:51:12Z</time>
  <course>27.04</course>
  <speed>0.2745906043549196</speed>
  <fix>3d</fix>
</trkpt>
<trkpt lat="-27.2744306" lon="151.2900523">
  <ele>358.14</ele>
  <time>2026-09-01T19:51:12Z</time>
  <course>118.38</course>
  <speed>0.24</speed>
  <fix>3d</fix>
</trkpt>
<trkpt lat="-27.2744311" lon="151.2900531">
  <ele>357.95</ele>
  <time>2026-09-01T19:51:12Z</time>
  <course>25.6</course>
  <speed>0.2830194339616981</speed>
  <fix>3d</fix>
</trkpt>
<trkpt lat="-27.2744308" lon="151.2900527">
  <ele>358.14</ele>
  <time>2026-09-01T19:51:12Z</time>
  <course>119.24</course>
  <speed>0.26</speed>
  <fix>3d</fix>
</trkpt>
<trkpt lat="-27.2744313" lon="151.2900534">
  <ele>357.95</ele>
  <time>2026-09-01T19:51:12Z</time>
  <course>24.99</course>
  <speed>0.291547594742265</speed>
  <fix>3d</fix>
</trkpt>
<trkpt lat="-27.2744308" lon="151.2900527">
  <ele>358.14</ele>
  <time>2026-09-01T19:51:12Z</time>
  <course>119.24</course>
  <speed>0.26</speed>
  <fix>3d</fix>
</trkpt>
<trkpt lat="-27.2744314" lon="151.2900536">
  <ele>357.95</ele>
  <time>2026-09-01T19:51:12Z</time>
  <course>24.69</course>
  <speed>0.30016662039607267</speed>
  <fix>3d</fix>
</trkpt>
<trkpt lat="-27.274431" lon="151.2900532">
  <ele>358.14</ele>
  <time>2026-09-01T19:51:12Z</time>
  <course>119.16</course>
  <speed>0.28</speed>
  <fix>3d</fix>
</trkpt>
<trkpt lat="-27.2744315" lon="151.2900539">
  <ele>357.95</ele>
  <time>2026-09-01T19:51:12Z</time>
  <course>24.61</course>
  <speed>0.30886890422961</speed>
  <fix>3d</fix>
</trkpt>
<trkpt lat="-27.274431" lon="151.2900532">
  <ele>358.14</ele>
  <time>2026-09-01T19:51:12Z</time>
  <course>119.16</course>
  <speed>0.28</speed>
  <fix>3d</fix>
</trkpt>
<trkpt lat="-27.2744316" lon="151.2900542">
  <ele>357.95</ele>
  <time>2026-09-01T19:51:12Z</time>
  <course>24.7</course>
  <speed>0.30886890422961</speed>
  <fix>3d</fix>
</trkpt>
<trkpt lat="-27.2744312" lon="151.2900537">
  <ele>358.15</ele>
  <time>2026-09-01T19:51:12Z</time>
  <course>118.06</course>
  <speed>0.29</speed>
  <fix>3d</fix>
</trkpt>
<trkpt lat="-27.2744317" lon="151.2900545">
  <ele>357.95</ele>
  <time>2026-09-01T19:51:12Z</time>
  <course>24.9</course>
  <speed>0.3176476034853718</speed>
  <fix>3d</fix>
</trkpt>
<trkpt lat="-27.2744312" lon="151.2900537">
  <ele>358.15</ele>
  <time>2026-09-01T19:51:12Z</time>
  <course>118.06</course>
  <speed>0.29</speed>
  <fix>3d</fix>
</trkpt>
<trkpt lat="-27.2744319" lon="151.2900548">
  <ele>357.95</ele>
  <time>2026-09-01T19:51:12Z</time>
  <course>25.15</course>
  <speed>0.32649655434629016</speed>
  <fix>3d</fix>
</trkpt>
<trkpt lat="-27.2744315" lon="151.2900543">
  <ele>358.15</ele>
  <time>2026-09-01T19:51:12Z</time>
  <course>116.61</course>
  <speed>0.31</speed>
  <fix>3d</fix>
</trkpt>
<trkpt lat="-27.274432" lon="151.2900551">
  <ele>357.95</ele>
  <time>2026-09-01T19:51:12Z</time>
  <course>25.41</course>
  <speed>0.33541019662496846</speed>
  <fix>3d</fix>
</trkpt>
<trkpt lat="-27.2744315" lon="151.2900543">
  <ele>358.15</ele>
  <time>2026-09-01T19:51:12Z</time>
  <course>116.61</course>
  <speed>0.31</speed>
  <fix>3d</fix>
</trkpt>
<trkpt lat="-27.2744321" lon="151.2900554">
  <ele>357.95</ele>
  <time>2026-09-01T19:51:12Z</time>
  <course>25.64</course>
  <speed>0.34</speed>
  <fix>3d</fix>
</trkpt>
<trkpt lat="-27.2744318" lon="151.2900548">
  <ele>358.15</ele>
  <time>2026-09-01T19:51:12Z</time>
  <course>115.62</course>
  <speed>0.32</speed>
  <fix>3d</fix>
</trkpt>
<trkpt lat="-27.2744323" lon="151.2900557">
  <ele>357.94</ele>
  <time>2026-09-01T19:51:12Z</time>
  <course>25.81</course>
  <speed>0.3488552708502482</speed>
  <fix>3d</fix>
</trkpt>
<trkpt lat="-27.2744318" lon="151.2900548">
  <ele>358.15</ele>
  <time>2026-09-01T19:51:12Z</time>
  <course>115.62</course>
  <speed>0.32</speed>
  <fix>3d</fix>
</trkpt>
<trkpt lat="-27.2744324" lon="151.290056">
  <ele>357.94</ele>
  <time>2026-09-01T19:51:12Z</time>
  <course>26.79</course>
  <speed>0.3535533905932738</speed>
  <fix>3d</fix>
</trkpt>
<trkpt lat="-27.274432" lon="151.2900555">
  <ele>358.15</ele>
  <time>2026-09-01T19:51:12Z</time>
  <course>115.6</course>
  <speed>0.34</speed>
  <fix>3d</fix>
</trkpt>
<trkpt lat="-27.2744325" lon="151.2900563">
  <ele>357.94</ele>
  <time>2026-09-01T19:51:12Z</time>
  <course>30.71</course>
  <speed>0.36235341863986875</speed>
  <fix>3d</fix>
</trkpt>
<trkpt lat="-27.274432" lon="151.2900555">
  <ele>358.15</ele>
  <time>2026-09-01T19:51:12Z</time>
  <course>115.6</course>
  <speed>0.34</speed>
  <fix>3d</fix>
</trkpt>
<trkpt lat="-27.2744327" lon="151.2900566">
  <ele>357.94</ele>
  <time>2026-09-01T19:51:12Z</time>
  <course>34.28</course>
  <speed>0.3671511950137164</speed>
  <fix>3d</fix>
</trkpt>
<trkpt lat="-27.2744323" lon="151.2900561">
  <ele>358.15</ele>
  <time>2026-09-01T19:51:12Z</time>
  <course>116.19</course>
  <speed>0.35</speed>
  <fix>3d</fix>
</trkpt>
<trkpt lat="-27.2744328" lon="151.290057">
  <ele>357.94</ele>
  <time>2026-09-01T19:51:12Z</time>
  <course>35.67</course>
  <speed>0.3671511950137164</speed>
  <fix>3d</fix>
</trkpt>
<trkpt lat="-27.2744323" lon="151.2900561">
  <ele>358.15</ele>
  <time>2026-09-01T19:51:12Z</time>
  <course>116.19</course>
  <speed>0.35</speed>
  <fix>3d</fix>
</trkpt>
<trkpt lat="-27.274433" lon="151.2900573">
  <ele>357.94</ele>
  <time>2026-09-01T19:51:12Z</time>
  <course>35.96</course>
  <speed>0.38078865529319544</speed>
  <fix>3d</fix>
</trkpt>
<trkpt lat="-27.2744326" lon="151.2900568">
  <ele>358.15</ele>
  <time>2026-09-01T19:51:12Z</time>
  <course>116.98</course>
  <speed>0.36</speed>
  <fix>3d</fix>
</trkpt>
<trkpt lat="-27.2744331" lon="151.2900577">
  <ele>357.94</ele>
  <time>2026-09-01T19:51:12Z</time>
  <course>36.0</course>
  <speed>0.38078865529319544</speed>
  <fix>3d</fix>
</trkpt>
<trkpt lat="-27.2744326" lon="151.2900568">
  <ele>358.15</ele>
  <time>2026-09-01T19:51:12Z</time>
  <course>116.98</course>
  <speed>0.36</speed>
  <fix>3d</fix>
</trkpt>
<trkpt lat="-27.2744333" lon="151.290058">
  <ele>357.94</ele>
  <time>2026-09-01T19:51:12Z</time>
  <course>35.89</course>
  <speed>0.3944616584663204</speed>
  <fix>3d</fix>
</trkpt>
<trkpt lat="-27.2744329" lon="151.2900574">
  <ele>358.15</ele>
  <time>2026-09-01T19:51:12Z</time>
  <course>117.75</course>
  <speed>0.37</speed>
  <fix>3d</fix>
</trkpt>
<trkpt lat="-27.2744335" lon="151.2900583">
  <ele>357.94</ele>
  <time>2026-09-01T19:51:12Z</time>
  <course>35.71</course>
  <speed>0.3944616584663204</speed>
  <fix>3d</fix>
</trkpt>
<trkpt lat="-27.2744329" lon="151.2900574">
  <ele>358.15</ele>
  <time>2026-09-01T19:51:12Z</time>
  <course>117.75</course>
  <speed>0.37</speed>
  <fix>3d</fix>
</trkpt>
<trkpt lat="-27.2744336" lon="151.2900587">
  <ele>357.94</ele>
  <time>2026-09-01T19:51:12Z</time>
  <course>34.17</course>
  <speed>0.3944616584663204</speed>
  <fix>3d</fix>
</trkpt>
<trkpt lat="-27.2744332" lon="151.2900581">
  <ele>358.15</ele>
  <time>2026-09-01T19:51:12Z</time>
  <course>118.44</course>
  <speed>0.38</speed>
  <fix>3d</fix>
</trkpt>
<trkpt lat="-27.2744338" lon="151.290059">
  <ele>357.95</ele>
  <time>2026-09-01T19:51:12Z</time>
  <course>29.95</course>
  <speed>0.3996248240537617</speed>
  <fix>3d</fix>
</trkpt>
<trkpt lat="-27.2744332" lon="151.2900581">
  <ele>358.15</ele>
  <time>2026-09-01T19:51:12Z</time>
  <course>118.44</course>
  <speed>0.38</speed>
  <fix>3d</fix>
</trkpt>
<trkpt lat="-27.274434" lon="151.2900594">
  <ele>357.95</ele>
  <time>2026-09-01T19:51:12Z</time>
  <course>26.65</course>
  <speed>0.408166632639171</speed>
  <fix>3d</fix>
</trkpt>
<trkpt lat="-27.2744336" lon="151.2900588">
  <ele>358.16</ele>
  <time>2026-09-01T19:51:12Z</time>
  <course>119.1</course>
  <speed>0.39</speed>
  <fix>3d</fix>
</trkpt>
<trkpt lat="-27.2744342" lon="151.2900598">
  <ele>357.95</ele>
  <time>2026-09-01T19:51:12Z</time>
  <course>25.41</course>
  <speed>0.408166632639171</speed>
  <fix>3d</fix>
</trkpt>
<trkpt lat="-27.2744336" lon="151.2900588">
  <ele>358.16</ele>
  <time>2026-09-01T19:51:12Z</time>
  <course>119.1</course>
  <speed>0.39</speed>
  <fix>3d</fix>
</trkpt>
<trkpt lat="-27.2744343" lon="151.2900601">
  <ele>357.96</ele>
  <time>2026-09-01T19:51:12Z</time>
  <course>24.83</course>
  <speed>0.41182520563948005</speed>
  <fix>3d</fix>
</trkpt>
<trkpt lat="-27.2744339" lon="151.2900595">
  <ele>358.16</ele>
  <time>2026-09-01T19:51:12Z</time>
  <course>118.88</course>
  <speed>0.4</speed>
  <fix>3d</fix>
</trkpt>
<trkpt lat="-27.2744345" lon="151.2900605">
  <ele>357.96</ele>
  <time>2026-09-01T19:51:12Z</time>
  <course>24.59</course>
  <speed>0.4159326868617084</speed>
  <fix>3d</fix>
</trkpt>
<trkpt lat="-27.2744339" lon="151.2900595">
  <ele>358.16</ele>
  <time>2026-09-01T19:51:12Z</time>
  <course>118.88</course>
  <speed>0.4</speed>
  <fix>3d</fix>
</trkpt>
<trkpt lat="-27.2744346" lon="151.2900609">
  <ele>357.96</ele>
  <time>2026-09-01T19:51:12Z</time>
  <course>24.63</course>
  <speed>0.4159326868617084</speed>
  <fix>3d</fix>
</trkpt>
<trkpt lat="-27.2744342" lon="151.2900602">
  <ele>358.17</ele>
  <time>2026-09-01T19:51:12Z</time>
  <course>117.17</course>
  <speed>0.4</speed>
  <fix>3d</fix>
</trkpt>
<trkpt lat="-27.2744348" lon="151.2900612">
  <ele>357.96</ele>
  <time>2026-09-01T19:51:12Z</time>
  <course>24.86</course>
  <speed>0.4159326868617084</speed>
  <fix>3d</fix>
</trkpt>
<trkpt lat="-27.2744342" lon="151.2900602">
  <ele>358.17</ele>
  <time>2026-09-01T19:51:12Z</time>
  <course>117.17</course>
  <speed>0.4</speed>
  <fix>3d</fix>
</trkpt>
<trkpt lat="-27.274435" lon="151.2900616">
  <ele>357.95</ele>
  <time>2026-09-01T19:51:12Z</time>
  <course>25.21</course>
  <speed>0.4159326868617084</speed>
  <fix>3d</fix>
</trkpt>
<trkpt lat="-27.2744346" lon="151.2900609">
  <ele>358.17</ele>
  <time>2026-09-01T19:51:12Z</time>
  <course>115.61</course>
  <speed>0.41</speed>
  <fix>3d</fix>
</trkpt>
<trkpt lat="-27.2744351" lon="151.290062">
  <ele>357.92</ele>
  <time>2026-09-01T19:51:12Z</time>
  <course>25.6</course>
  <speed>0.4159326868617084</speed>
  <fix>3d</fix>
</trkpt>
<trkpt lat="-27.2744346" lon="151.2900609">
  <ele>358.17</ele>
  <time>2026-09-01T19:51:12Z</time>
  <course>115.61</course>
  <speed>0.41</speed>
  <fix>3d</fix>
</trkpt>
<trkpt lat="-27.2744353" lon="151.2900624">
  <ele>357.88</ele>
  <time>2026-09-01T19:51:12Z</time>
  <course>25.99</course>
  <speed>0.4070626487409524</speed>
  <fix>3d</fix>
</trkpt>
<trkpt lat="-27.2744349" lon="151.2900617">
  <ele>358.15</ele>
  <time>2026-09-01T19:51:12Z</time>
  <course>115.46</course>
  <speed>0.41</speed>
  <fix>3d</fix>
</trkpt>
<trkpt lat="-27.2744355" lon="151.2900627">
  <ele>357.83</ele>
  <time>2026-09-01T19:51:12Z</time>
  <course>26.33</course>
  <speed>0.4070626487409524</speed>
  <fix>3d</fix>
</trkpt>
<trkpt lat="-27.2744349" lon="151.2900617">
  <ele>358.15</ele>
  <time>2026-09-01T19:51:12Z</time>
  <course>115.46</course>
  <speed>0.41</speed>
  <fix>3d</fix>
</trkpt>
<trkpt lat="-27.2744356" lon="151.2900631">
  <ele>357.76</ele>
  <time>2026-09-01T19:51:12Z</time>
  <course>26.61</course>
  <speed>0.4070626487409524</speed>
  <fix>3d</fix>
</trkpt>
<trkpt lat="-27.2744352" lon="151.2900624">
  <ele>358.08</ele>
  <time>2026-09-01T19:51:12Z</time>
  <course>115.84</course>
  <speed>0.4</speed>
  <fix>3d</fix>
</trkpt>
<trkpt lat="-27.2744358" lon="151.2900635">
  <ele>357.68</ele>
  <time>2026-09-01T19:51:12Z</time>
  <course>26.83</course>
  <speed>0.39824615503479754</speed>
  <fix>3d</fix>
</trkpt>
<trkpt lat="-27.2744352" lon="151.2900624">
  <ele>358.08</ele>
  <time>2026-09-01T19:51:12Z</time>
  <course>115.84</course>
  <speed>0.4</speed>
  <fix>3d</fix>
</trkpt>
<trkpt lat="-27.2744359" lon="151.2900638">
  <ele>357.59</ele>
  <time>2026-09-01T19:51:12Z</time>
  <course>27.01</course>
  <speed>0.38470768123342686</speed>
  <fix>3d</fix>
</trkpt>
<trkpt lat="-27.2744355" lon="151.2900632">
  <ele>357.96</ele>
  <time>2026-09-01T19:51:12Z</time>
  <course>115.97</course>
  <speed>0.4</speed>
  <fix>3d</fix>
</trkpt>
<trkpt lat="-27.2744361" lon="151.2900642">
  <ele>357.48</ele>
  <time>2026-09-01T19:51:12Z</time>
  <course>27.15</course>
  <speed>0.3712142238654117</speed>
  <fix>3d</fix>
</trkpt>
<trkpt lat="-27.2744355" lon="151.2900632">
  <ele>357.96</ele>
  <time>2026-09-01T19:51:12Z</time>
  <course>115.97</course>
  <speed>0.4</speed>
  <fix>3d</fix>
</trkpt>
<trkpt lat="-27.2744362" lon="151.2900645">
  <ele>357.37</ele>
  <time>2026-09-01T19:51:12Z</time>
  <course>27.27</course>
  <speed>0.36235341863986875</speed>
  <fix>3d</fix>
</trkpt>
<trkpt lat="-27.2744358" lon="151.2900639">
  <ele>357.79</ele>
  <time>2026-09-01T19:51:12Z</time>
  <course>115.74</course>
  <speed>0.38</speed>
  <fix>3d</fix>
</trkpt>
<trkpt lat="-27.2744363" lon="151.2900648">
  <ele>357.25</ele>
  <time>2026-09-01T19:51:12Z</time>
  <course>27.38</course>
  <speed>0.3488552708502482</speed>
  <fix>3d</fix>
</trkpt>
<trkpt lat="-27.2744358" lon="151.2900639">
  <ele>357.79</ele>
  <time>2026-09-01T19:51:12Z</time>
  <course>115.74</course>
  <speed>0.38</speed>
  <fix>3d</fix>
</trkpt>
<trkpt lat="-27.2744365" lon="151.2900651">
  <ele>357.13</ele>
  <time>2026-09-01T19:51:12Z</time>
  <course>27.48</course>
  <speed>0.33541019662496846</speed>
  <fix>3d</fix>
</trkpt>
<trkpt lat="-27.2744361" lon="151.2900646">
  <ele>357.57</ele>
  <time>2026-09-01T19:51:12Z</time>
  <course>115.11</course>
  <speed>0.35</speed>
  <fix>3d</fix>
</trkpt>
<trkpt lat="-27.2744366" lon="151.2900654">
  <ele>357.0</ele>
  <time>2026-09-01T19:51:12Z</time>
  <course>27.57</course>
  <speed>0.31304951684997057</speed>
  <fix>3d</fix>
</trkpt>
<trkpt lat="-27.2744361" lon="151.2900646">
  <ele>357.57</ele>
  <time>2026-09-01T19:51:12Z</time>
  <course>115.11</course>
  <speed>0.35</speed>
  <fix>3d</fix>
</trkpt>
<trkpt lat="-27.2744367" lon="151.2900657">
  <ele>356.87</ele>
  <time>2026-09-01T19:51:12Z</time>
  <course>27.63</course>
  <speed>0.29966648127543394</speed>
  <fix>3d</fix>
</trkpt>
<trkpt lat="-27.2744364" lon="151.2900652">
  <ele>357.33</ele>
  <time>2026-09-01T19:51:12Z</time>
  <course>114.09</course>
  <speed>0.32</speed>
  <fix>3d</fix>
</trkpt>
<trkpt lat="-27.2744368" lon="151.290066">
  <ele>356.75</ele>
  <time>2026-09-01T19:51:12Z</time>
  <course>27.66</course>
  <speed>0.2863564212655271</speed>
  <fix>3d</fix>
</trkpt>
<trkpt lat="-27.2744364" lon="151.2900652">
  <ele>357.33</ele>
  <time>2026-09-01T19:51:12Z</time>
  <course>114.09</course>
  <speed>0.32</speed>
  <fix>3d</fix>
</trkpt>
<trkpt lat="-27.2744369" lon="151.2900662">
  <ele>356.62</ele>
  <time>2026-09-01T19:51:12Z</time>
  <course>27.66</course>
  <speed>0.2640075756488817</speed>
  <fix>3d</fix>
</trkpt>
<trkpt lat="-27.2744366" lon="151.2900658">
  <ele>357.08</ele>
  <time>2026-09-01T19:51:12Z</time>
  <course>112.78</course>
  <speed>0.29</speed>
  <fix>3d</fix>
</trkpt>
<trkpt lat="-27.274437" lon="151.2900665">
  <ele>356.49</ele>
  <time>2026-09-01T19:51:12Z</time>
  <course>27.62</course>
  <speed>0.25079872407968906</speed>
  <fix>3d</fix>
</trkpt>
<trkpt lat="-27.2744366" lon="151.2900658">
  <ele>357.08</ele>
  <time>2026-09-01T19:51:12Z</time>
  <course>112.78</course>
  <speed>0.29</speed>
  <fix>3d</fix>
</trkpt>
<trkpt lat="-27.274437" lon="151.2900667">
  <ele>356.36</ele>
  <time>2026-09-01T19:51:12Z</time>
  <course>27.55</course>
  <speed>0.22847319317591727</speed>
  <fix>3d</fix>
</trkpt>
<trkpt lat="-27.2744367" lon="151.2900663">
  <ele>356.82</ele>
  <time>2026-09-01T19:51:12Z</time>
  <course>111.27</course>
  <speed>0.26</speed>
  <fix>3d</fix>
</trkpt>
<trkpt lat="-27.2744371" lon="151.2900669">
  <ele>356.24</ele>
  <time>2026-09-01T19:51:12Z</time>
  <course>27.44</course>
  <speed>0.21540659228538014</speed>
  <fix>3d</fix>
</trkpt>
<trkpt lat="-27.2744367" lon="151.2900663">
  <ele>356.82</ele>
  <time>2026-09-01T19:51:12Z</time>
  <course>111.27</course>
  <speed>0.26</speed>
  <fix>3d</fix>
</trkpt>
<trkpt lat="-27.2744372" lon="151.2900671">
  <ele>356.11</ele>
  <time>2026-09-01T19:51:12Z</time>
  <course>27.33</course>
  <speed>0.20615528128088303</speed>
  <fix>3d</fix>
</trkpt>
<trkpt lat="-27.2744369" lon="151.2900667">
  <ele>356.57</ele>
  <time>2026-09-01T19:51:12Z</time>
  <course>109.65</course>
  <speed>0.22</speed>
  <fix>3d</fix>
</trkpt>
<trkpt lat="-27.2744372" lon="151.2900673">
  <ele>356.0</ele>
  <time>2026-09-01T19:51:12Z</time>
  <course>27.2</course>
  <speed>0.18384776310850234</speed>
  <fix>3d</fix>
</trkpt>
<trkpt lat="-27.2744369" lon="151.2900667">
  <ele>356.57</ele>
  <time>2026-09-01T19:51:12Z</time>
  <course>109.65</course>
  <speed>0.22</speed>
  <fix>3d</fix>
</trkpt>
<trkpt lat="-27.2744373" lon="151.2900675">
  <ele>355.88</ele>
  <time>2026-09-01T19:51:12Z</time>
  <course>27.07</course>
  <speed>0.1708800749063506</speed>
  <fix>3d</fix>
</trkpt>
<trkpt lat="-27.274437" lon="151.2900672">
  <ele>356.33</ele>
  <time>2026-09-01T19:51:12Z</time>
  <course>107.98</course>
  <speed>0.19</speed>
  <fix>3d</fix>
</trkpt>
<trkpt lat="-27.2744373" lon="151.2900676">
  <ele>355.77</ele>
  <time>2026-09-01T19:51:12Z</time>
  <course>26.94</course>
  <speed>0.1615549442140351</speed>
  <fix>3d</fix>
</trkpt>
<trkpt lat="-27.274437" lon="151.2900672">
  <ele>356.33</ele>
  <time>2026-09-01T19:51:12Z</time>
  <course>107.98</course>
  <speed>0.19</speed>
  <fix>3d</fix>
</trkpt>
<trkpt lat="-27.2744373" lon="151.2900678">
  <ele>355.65</ele>
  <time>2026-09-01T19:51:12Z</time>
  <course>26.84</course>
  <speed>0.1392838827718412</speed>
  <fix>3d</fix>
</trkpt>
<trkpt lat="-27.2744371" lon="151.2900675">
  <ele>356.1</ele>
  <time>2026-09-01T19:51:12Z</time>
  <course>106.22</course>
  <speed>0.16</speed>
  <fix>3d</fix>
</trkpt>
<trkpt lat="-27.2744374" lon="151.2900679">
  <ele>355.54</ele>
  <time>2026-09-01T19:51:12Z</time>
  <course>26.75</course>
  <speed>0.13</speed>
  <fix>3d</fix>
</trkpt>
<trkpt lat="-27.2744371" lon="151.2900675">
  <ele>356.1</ele>
  <time>2026-09-01T19:51:12Z</time>
  <course>106.22</course>
  <speed>0.16</speed>
  <fix>3d</fix>
</trkpt>
<trkpt lat="-27.2744374" lon="151.290068">
  <ele>355.43</ele>
  <time>2026-09-01T19:51:12Z</time>
  <course>26.67</course>
  <speed>0.11704699910719625</speed>
  <fix>3d</fix>
</trkpt>
<trkpt lat="-27.2744372" lon="151.2900678">
  <ele>355.88</ele>
  <time>2026-09-01T19:51:12Z</time>
  <course>104.21</course>
  <speed>0.13</speed>
  <fix>3d</fix>
</trkpt>
<trkpt lat="-27.2744374" lon="151.2900681">
  <ele>355.33</ele>
  <time>2026-09-01T19:51:12Z</time>
  <course>26.62</course>
  <speed>0.1044030650891055</speed>
  <fix>3d</fix>
</trkpt>
<trkpt lat="-27.2744372" lon="151.2900678">
  <ele>355.88</ele>
  <time>2026-09-01T19:51:12Z</time>
  <course>104.21</course>
  <speed>0.13</speed>
  <fix>3d</fix>
</trkpt>
<trkpt lat="-27.2744374" lon="151.2900682">
  <ele>355.22</ele>
  <time>2026-09-01T19:51:12Z</time>
  <course>26.59</course>
  <speed>0.0854400374531753</speed>
  <fix>3d</fix>
</trkpt>
<trkpt lat="-27.2744373" lon="151.290068">
  <ele>355.65</ele>
  <time>2026-09-01T19:51:12Z</time>
  <course>101.55</course>
  <speed>0.11</speed>
  <fix>3d</fix>
</trkpt>
<trkpt lat="-27.2744374" lon="151.2900683">
  <ele>355.11</ele>
  <time>2026-09-01T19:51:12Z</time>
  <course>26.56</course>
  <speed>0.07280109889280519</speed>
  <fix>3d</fix>
</trkpt>
<trkpt lat="-27.2744373" lon="151.290068">
  <ele>355.65</ele>
  <time>2026-09-01T19:51:12Z</time>
  <course>101.55</course>
  <speed>0.11</speed>
  <fix>3d</fix>
</trkpt>
<trkpt lat="-27.2744374" lon="151.2900684">
  <ele>355.0</ele>
  <time>2026-09-01T19:51:12Z</time>
  <course>26.54</course>
  <speed>0.0632455532033676</speed>
  <fix>3d</fix>
</trkpt>
<trkpt lat="-27.2744373" lon="151.2900682">
  <ele>355.44</ele>
  <time>2026-09-01T19:51:12Z</time>
  <course>97.38</course>
  <speed>0.08</speed>
  <fix>3d</fix>
</trkpt>
<trkpt lat="-27.2744374" lon="151.2900684">
  <ele>354.89</ele>
  <time>2026-09-01T19:51:12Z</time>
  <course>26.52</course>
  <speed>0.05099019513592785</speed>
  <fix>3d</fix>
</trkpt>
<trkpt lat="-27.2744373" lon="151.2900682">
  <ele>355.44</ele>
  <time>2026-09-01T19:51:12Z</time>
  <course>97.38</course>
  <speed>0.08</speed>
  <fix>3d</fix>
</trkpt>
<trkpt lat="-27.2744374" lon="151.2900685">
  <ele>354.78</ele>
  <time>2026-09-01T19:51:12Z</time>
  <course>26.48</course>
  <speed>0.0412310562561766</speed>
  <fix>3d</fix>
</trkpt>
<trkpt lat="-27.2744374" lon="151.2900684">
  <ele>355.23</ele>
  <time>2026-09-01T19:51:12Z</time>
  <course>89.98</course>
  <speed>0.05</speed>
  <fix>3d</fix>
</trkpt>
<trkpt lat="-27.2744374" lon="151.2900685">
  <ele>354.67</ele>
  <time>2026-09-01T19:51:12Z</time>
  <course>26.43</course>
  <speed>0.0316227766016838</speed>
  <fix>3d</fix>
</trkpt>
<trkpt lat="-27.2744374" lon="151.2900684">
  <ele>355.23</ele>
  <time>2026-09-01T19:51:12Z</time>
  <course>89.98</course>
  <speed>0.05</speed>
  <fix>3d</fix>
</trkpt>
<trkpt lat="-27.2744374" lon="151.2900685">
  <ele>354.56</ele>
  <time>2026-09-01T19:51:12Z</time>
  <course>26.33</course>
  <speed>0.02</speed>
  <fix>3d</fix>
</trkpt>
<trkpt lat="-27.2744373" lon="151.2900685">
  <ele>355.02</ele>
  <time>2026-09-01T19:51:12Z</time>
  <course>75.83</course>
  <speed>0.03</speed>
  <fix>3d</fix>
</trkpt>
<trkpt lat="-27.2744374" lon="151.2900685">
  <ele>354.46</ele>
  <time>2026-09-01T19:51:12Z</time>
  <course>26.19</course>
  <speed>0.02</speed>
  <fix>3d</fix>
</trkpt>
<trkpt lat="-27.2744373" lon="151.2900685">
  <ele>355.02</ele>
  <time>2026-09-01T19:51:12Z</time>
  <course>75.83</course>
  <speed>0.03</speed>
  <fix>3d</fix>
</trkpt>
<trkpt lat="-27.2744374" lon="151.2900686">
  <ele>354.35</ele>
  <time>2026-09-01T19:51:12Z</time>
  <course>26.0</course>
  <speed>0.01</speed>
  <fix>3d</fix>
</trkpt>
<trkpt lat="-27.2744373" lon="151.2900685">
  <ele>354.8</ele>
  <time>2026-09-01T19:51:12Z</time>
  <course>52.15</course>
  <speed>0.02</speed>
  <fix>3d</fix>
</trkpt>
<trkpt lat="-27.2744374" lon="151.2900686">
  <ele>354.24</ele>
  <time>2026-09-01T19:51:12Z</time>
  <course>25.77</course>
  <speed>0.01</speed>
  <fix>3d</fix>
</trkpt>
<trkpt lat="-27.2744373" lon="151.2900685">
  <ele>354.8</ele>
  <time>2026-09-01T19:51:12Z</time>
  <course>52.15</course>
  <speed>0.02</speed>
  <fix>3d</fix>
</trkpt>
<trkpt lat="-27.2744374" lon="151.2900686">
  <ele>354.12</ele>
  <time>2026-09-01T19:51:12Z</time>
  <course>25.54</course>
  <speed>0.01</speed>
  <fix>3d</fix>
</trkpt>
<trkpt lat="-27.2744373" lon="151.2900686">
  <ele>354.57</ele>
  <time>2026-09-01T19:51:12Z</time>
  <course>28.97</course>
  <speed>0.02</speed>
  <fix>3d</fix>
</trkpt>
<trkpt lat="-27.2744374" lon="151.2900686">
  <ele>354.01</ele>
  <time>2026-09-01T19:51:12Z</time>
  <course>25.32</course>
  <speed>0.01</speed>
  <fix>3d</fix>
</trkpt>
<trkpt lat="-27.2744373" lon="151.2900686">
  <ele>354.57</ele>
  <time>2026-09-01T19:51:12Z</time>
  <course>28.97</course>
  <speed>0.02</speed>
  <fix>3d</fix>
</trkpt>
<trkpt lat="-27.2744374" lon="151.2900686">
  <ele>353.9</ele>
  <time>2026-09-01T19:51:12Z</time>
  <course>25.13</course>
  <speed>0.01</speed>
  <fix>3d</fix>
</trkpt>
<trkpt lat="-27.2744373" lon="151.2900687">
  <ele>354.34</ele>
  <time>2026-09-01T19:51:12Z</time>
  <course>15.17</course>
  <speed>0.02</speed>
  <fix>3d</fix>
</trkpt>
<trkpt lat="-27.2744374" lon="151.2900686">
  <ele>353.78</ele>
  <time>2026-09-01T19:51:12Z</time>
  <course>24.99</course>
  <speed>0.01</speed>
  <fix>3d</fix>
</trkpt>
<trkpt lat="-27.2744373" lon="151.2900687">
  <ele>354.34</ele>
  <time>2026-09-01T19:51:12Z</time>
  <course>15.17</course>
  <speed>0.02</speed>
  <fix>3d</fix>
</trkpt>
<trkpt lat="-27.2744374" lon="151.2900686">
  <ele>353.67</ele>
  <time>2026-09-01T19:51:12Z</time>
  <course>24.9</course>
  <speed>0.01</speed>
  <fix>3d</fix>
</trkpt>
<trkpt lat="-27.2744373" lon="151.2900687">
  <ele>354.12</ele>
  <time>2026-09-01T19:51:12Z</time>
  <course>7.78</course>
  <speed>0.02</speed>
  <fix>3d</fix>
</trkpt>
<trkpt lat="-27.2744374" lon="151.2900686">
  <ele>353.55</ele>
  <time>2026-09-01T19:51:12Z</time>
  <course>24.85</course>
  <speed>0.01</speed>
  <fix>3d</fix>
</trkpt>
<trkpt lat="-27.2744373" lon="151.2900687">
  <ele>354.12</ele>
  <time>2026-09-01T19:51:12Z</time>
  <course>7.78</course>
  <speed>0.02</speed>
  <fix>3d</fix>
</trkpt>
<trkpt lat="-27.2744374" lon="151.2900686">
  <ele>353.44</ele>
  <time>2026-09-01T19:51:12Z</time>
  <course>24.85</course>
  <speed>0.01</speed>
  <fix>3d</fix>
</trkpt>
<trkpt lat="-27.2744372" lon="151.2900687">
  <ele>353.89</ele>
  <time>2026-09-01T19:51:12Z</time>
  <course>3.56</course>
  <speed>0.02</speed>
  <fix>3d</fix>
</trkpt>
<trkpt lat="-27.2744374" lon="151.2900686">
  <ele>353.32</ele>
  <time>2026-09-01T19:51:12Z</time>
  <course>24.88</course>
  <speed>0.01</speed>
  <fix>3d</fix>
</trkpt>
<trkpt lat="-27.2744372" lon="151.2900687">
  <ele>353.89</ele>
  <time>2026-09-01T19:51:12Z</time>
  <course>3.56</course>
  <speed>0.02</speed>
  <fix>3d</fix>
</trkpt>
<trkpt lat="-27.2744373" lon="151.2900687">
  <ele>353.2</ele>
  <time>2026-09-01T19:51:12Z</time>
  <course>24.93</course>
  <speed>0.0</speed>
  <fix>3d</fix>
</trkpt>
<trkpt lat="-27.2744372" lon="151.2900687">
  <ele>353.66</ele>
  <time>2026-09-01T19:51:12Z</time>
  <course>0.94</course>
  <speed>0.02</speed>
  <fix>3d</fix>
</trkpt>
<trkpt lat="-27.2744373" lon="151.2900687">
  <ele>353.09</ele>
  <time>2026-09-01T19:51:12Z</time>
  <course>24.98</course>
  <speed>0.0</speed>
  <fix>3d</fix>
</trkpt>
<trkpt lat="-27.2744372" lon="151.2900687">
  <ele>353.66</ele>
  <time>2026-09-01T19:51:12Z</time>
  <course>0.94</course>
  <speed>0.02</speed>
  <fix>3d</fix>
</trkpt>
<trkpt lat="-27.2744373" lon="151.2900687">
  <ele>352.97</ele>
  <time>2026-09-01T19:51:12Z</time>
  <course>25.03</course>
  <speed>0.0</speed>
  <fix>3d</fix>
</trkpt>
<trkpt lat="-27.2744371" lon="151.2900687">
  <ele>353.42</ele>
  <time>2026-09-01T19:51:12Z</time>
  <course>358.95</course>
  <speed>0.02</speed>
  <fix>3d</fix>
</trkpt>
<trkpt lat="-27.2744373" lon="151.2900687">
  <ele>352.86</ele>
  <time>2026-09-01T19:51:12Z</time>
  <course>25.07</course>
  <speed>0.0</speed>
  <fix>3d</fix>
</trkpt>
<trkpt lat="-27.2744371" lon="151.2900687">
  <ele>353.42</ele>
  <time>2026-09-01T19:51:12Z</time>
  <course>358.95</course>
  <speed>0.02</speed>
  <fix>3d</fix>
</trkpt>
<trkpt lat="-27.2744373" lon="151.2900687">
  <ele>352.74</ele>
  <time>2026-09-01T19:51:12Z</time>
  <course>25.1</course>
  <speed>0.0</speed>
  <fix>3d</fix>
</trkpt>
<trkpt lat="-27.2744371" lon="151.2900687">
  <ele>353.19</ele>
  <time>2026-09-01T19:51:12Z</time>
  <course>357.5</course>
  <speed>0.02</speed>
  <fix>3d</fix>
</trkpt>
<trkpt lat="-27.2744372" lon="151.2900687">
  <ele>352.62</ele>
  <time>2026-09-01T19:51:12Z</time>
  <course>25.12</course>
  <speed>0.0</speed>
  <fix>3d</fix>
</trkpt>
<trkpt lat="-27.2744371" lon="151.2900687">
  <ele>353.19</ele>
  <time>2026-09-01T19:51:12Z</time>
  <course>357.5</course>
  <speed>0.02</speed>
  <fix>3d</fix>
</trkpt>
<trkpt lat="-27.2744372" lon="151.2900687">
  <ele>352.5</ele>
  <time>2026-09-01T19:51:12Z</time>
  <course>25.13</course>
  <speed>0.0</speed>
  <fix>3d</fix>
</trkpt>
<trkpt lat="-27.274437" lon="151.2900687">
  <ele>352.96</ele>
  <time>2026-09-01T19:51:12Z</time>
  <course>356.52</course>
  <speed>0.03</speed>
  <fix>3d</fix>
</trkpt>
<trkpt lat="-27.2744372" lon="151.2900687">
  <ele>352.39</ele>
  <time>2026-09-01T19:51:12Z</time>
  <course>25.13</course>
  <speed>0.0</speed>
  <fix>3d</fix>
</trkpt>
<trkpt lat="-27.274437" lon="151.2900687">
  <ele>352.96</ele>
  <time>2026-09-01T19:51:12Z</time>
  <course>356.52</course>
  <speed>0.03</speed>
  <fix>3d</fix>
</trkpt>
<trkpt lat="-27.2744372" lon="151.2900687">
  <ele>352.27</ele>
  <time>2026-09-01T19:51:12Z</time>
  <course>25.13</course>
  <speed>0.0</speed>
  <fix>3d</fix>
</trkpt>
<trkpt lat="-27.274437" lon="151.2900687">
  <ele>352.72</ele>
  <time>2026-09-01T19:51:12Z</time>
  <course>355.48</course>
  <speed>0.03</speed>
  <fix>3d</fix>
</trkpt>
<trkpt lat="-27.2744372" lon="151.2900687">
  <ele>352.15</ele>
  <time>2026-09-01T19:51:12Z</time>
  <course>25.12</course>
  <speed>0.0</speed>
  <fix>3d</fix>
</trkpt>
<trkpt lat="-27.274437" lon="151.2900687">
  <ele>352.72</ele>
  <time>2026-09-01T19:51:12Z</time>
  <course>355.48</course>
  <speed>0.03</speed>
  <fix>3d</fix>
</trkpt>
<trkpt lat="-27.2744371" lon="151.2900687">
  <ele>352.04</ele>
  <time>2026-09-01T19:51:12Z</time>
  <course>25.11</course>
  <speed>0.0</speed>
  <fix>3d</fix>
</trkpt>
<trkpt lat="-27.2744369" lon="151.2900687">
  <ele>352.49</ele>
  <time>2026-09-01T19:51:12Z</time>
  <course>354.43</course>
  <speed>0.03</speed>
  <fix>3d</fix>
</trkpt>
<trkpt lat="-27.2744371" lon="151.2900687">
  <ele>351.92</ele>
  <time>2026-09-01T19:51:12Z</time>
  <course>25.11</course>
  <speed>0.0</speed>
  <fix>3d</fix>
</trkpt>
<trkpt lat="-27.2744369" lon="151.2900687">
  <ele>352.49</ele>
  <time>2026-09-01T19:51:12Z</time>
  <course>354.43</course>
  <speed>0.03</speed>
  <fix>3d</fix>
</trkpt>
<trkpt lat="-27.2744371" lon="151.2900687">
  <ele>351.81</ele>
  <time>2026-09-01T19:51:12Z</time>
  <course>25.12</course>
  <speed>0.0</speed>
  <fix>3d</fix>
</trkpt>
<trkpt lat="-27.2744369" lon="151.2900687">
  <ele>352.26</ele>
  <time>2026-09-01T19:51:12Z</time>
  <course>353.68</course>
  <speed>0.03</speed>
  <fix>3d</fix>
</trkpt>
<trkpt lat="-27.2744371" lon="151.2900687">
  <ele>351.69</ele>
  <time>2026-09-01T19:51:12Z</time>
  <course>25.13</course>
  <speed>0.0</speed>
  <fix>3d</fix>
</trkpt>
<trkpt lat="-27.2744369" lon="151.2900687">
  <ele>352.26</ele>
  <time>2026-09-01T19:51:12Z</time>
  <course>353.68</course>
  <speed>0.03</speed>
  <fix>3d</fix>
</trkpt>
<trkpt lat="-27.274437" lon="151.2900687">
  <ele>351.58</ele>
  <time>2026-09-01T19:51:12Z</time>
  <course>25.14</course>
  <speed>0.0</speed>
  <fix>3d</fix>
</trkpt>
<trkpt lat="-27.2744368" lon="151.2900687">
  <ele>352.03</ele>
  <time>2026-09-01T19:51:12Z</time>
  <course>353.15</course>
  <speed>0.03</speed>
  <fix>3d</fix>
</trkpt>
<trkpt lat="-27.274437" lon="151.2900687">
  <ele>351.46</ele>
  <time>2026-09-01T19:51:12Z</time>
  <course>25.16</course>
  <speed>0.0</speed>
  <fix>3d</fix>
</trkpt>
<trkpt lat="-27.2744368" lon="151.2900687">
  <ele>352.03</ele>
  <time>2026-09-01T19:51:12Z</time>
  <course>353.15</course>
  <speed>0.03</speed>
  <fix>3d</fix>
</trkpt>
<trkpt lat="-27.274437" lon="151.2900687">
  <ele>351.35</ele>
  <time>2026-09-01T19:51:12Z</time>
  <course>25.17</course>
  <speed>0.0</speed>
  <fix>3d</fix>
</trkpt>
<trkpt lat="-27.2744367" lon="151.2900687">
  <ele>351.8</ele>
  <time>2026-09-01T19:51:12Z</time>
  <course>352.63</course>
  <speed>0.02</speed>
  <fix>3d</fix>
</trkpt>
<trkpt lat="-27.274437" lon="151.2900687">
  <ele>351.23</ele>
  <time>2026-09-01T19:51:12Z</time>
  <course>25.17</course>
  <speed>0.0</speed>
  <fix>3d</fix>
</trkpt>
<trkpt lat="-27.2744367" lon="151.2900687">
  <ele>351.8</ele>
  <time>2026-09-01T19:51:12Z</time>
  <course>352.63</course>
  <speed>0.02</speed>
  <fix>3d</fix>
</trkpt>
<trkpt lat="-27.2744369" lon="151.2900687">
  <ele>351.12</ele>
  <time>2026-09-01T19:51:12Z</time>
  <course>25.18</course>
  <speed>0.0</speed>
  <fix>3d</fix>
</trkpt>
<trkpt lat="-27.2744367" lon="151.2900687">
  <ele>351.58</ele>
  <time>2026-09-01T19:51:12Z</time>
  <course>352.14</course>
  <speed>0.02</speed>
  <fix>3d</fix>
</trkpt>
<trkpt lat="-27.2744369" lon="151.2900687">
  <ele>351.01</ele>
  <time>2026-09-01T19:51:12Z</time>
  <course>25.18</course>
  <speed>0.0</speed>
  <fix>3d</fix>
</trkpt>
<trkpt lat="-27.2744367" lon="151.2900687">
  <ele>351.58</ele>
  <time>2026-09-01T19:51:12Z</time>
  <course>352.14</course>
  <speed>0.02</speed>
  <fix>3d</fix>
</trkpt>
<trkpt lat="-27.2744369" lon="151.2900687">
  <ele>350.89</ele>
  <time>2026-09-01T19:51:12Z</time>
  <course>25.18</course>
  <speed>0.0</speed>
  <fix>3d</fix>
</trkpt>
<trkpt lat="-27.2744366" lon="151.2900687">
  <ele>351.35</ele>
  <time>2026-09-01T19:51:12Z</time>
  <course>351.62</course>
  <speed>0.02</speed>
  <fix>3d</fix>
</trkpt>
<trkpt lat="-27.2744369" lon="151.2900687">
  <ele>350.78</ele>
  <time>2026-09-01T19:51:12Z</time>
  <course>25.19</course>
  <speed>0.0</speed>
  <fix>3d</fix>
</trkpt>
<trkpt lat="-27.2744366" lon="151.2900687">
  <ele>351.35</ele>
  <time>2026-09-01T19:51:12Z</time>
  <course>351.62</course>
  <speed>0.02</speed>
  <fix>3d</fix>
</trkpt>
<trkpt lat="-27.2744368" lon="151.2900687">
  <ele>350.66</ele>
  <time>2026-09-01T19:51:12Z</time>
  <course>25.19</course>
  <speed>0.0</speed>
  <fix>3d</fix>
</trkpt>
<trkpt lat="-27.2744366" lon="151.2900687">
  <ele>351.12</ele>
  <time>2026-09-01T19:51:12Z</time>
  <course>351.07</course>
  <speed>0.02</speed>
  <fix>3d</fix>
</trkpt>
<trkpt lat="-27.2744368" lon="151.2900687">
  <ele>350.55</ele>
  <time>2026-09-01T19:51:12Z</time>
  <course>25.19</course>
  <speed>0.0</speed>
  <fix>3d</fix>
</trkpt>
<trkpt lat="-27.2744366" lon="151.2900687">
  <ele>351.12</ele>
  <time>2026-09-01T19:51:12Z</time>
  <course>351.07</course>
  <speed>0.02</speed>
  <fix>3d</fix>
</trkpt>
<trkpt lat="-27.2744368" lon="151.2900687">
  <ele>350.44</ele>
  <time>2026-09-01T19:51:12Z</time>
  <course>25.2</course>
  <speed>0.0</speed>
  <fix>3d</fix>
</trkpt>
<trkpt lat="-27.2744365" lon="151.2900687">
  <ele>350.89</ele>
  <time>2026-09-01T19:51:12Z</time>
  <course>350.96</course>
  <speed>0.02</speed>
  <fix>3d</fix>
</trkpt>
<trkpt lat="-27.2744368" lon="151.2900687">
  <ele>350.32</ele>
  <time>2026-09-01T19:51:12Z</time>
  <course>25.2</course>
  <speed>0.0</speed>
  <fix>3d</fix>
</trkpt>
<trkpt lat="-27.2744365" lon="151.2900687">
  <ele>350.89</ele>
  <time>2026-09-01T19:51:12Z</time>
  <course>350.96</course>
  <speed>0.02</speed>
  <fix>3d</fix>
</trkpt>
<trkpt lat="-27.2744367" lon="151.2900687">
  <ele>350.21</ele>
  <time>2026-09-01T19:51:12Z</time>
  <course>25.21</course>
  <speed>0.0</speed>
  <fix>3d</fix>
</trkpt>
<trkpt lat="-27.2744365" lon="151.2900687">
  <ele>350.66</ele>
  <time>2026-09-01T19:51:12Z</time>
  <course>351.39</course>
  <speed>0.02</speed>
  <fix>3d</fix>
</trkpt>
<trkpt lat="-27.2744367" lon="151.2900687">
  <ele>350.09</ele>
  <time>2026-09-01T19:51:12Z</time>
  <course>25.22</course>
  <speed>0.0</speed>
  <fix>3d</fix>
</trkpt>
<trkpt lat="-27.2744365" lon="151.2900687">
  <ele>350.66</ele>
  <time>2026-09-01T19:51:12Z</time>
  <course>351.39</course>
  <speed>0.02</speed>
  <fix>3d</fix>
</trkpt>
<trkpt lat="-27.2744367" lon="151.2900687">
  <ele>349.98</ele>
  <time>2026-09-01T19:51:12Z</time>
  <course>25.23</course>
  <speed>0.0</speed>
  <fix>3d</fix>
</trkpt>
<trkpt lat="-27.2744364" lon="151.2900687">
  <ele>350.44</ele>
  <time>2026-09-01T19:51:12Z</time>
  <course>352.08</course>
  <speed>0.02</speed>
  <fix>3d</fix>
</trkpt>
<trkpt lat="-27.2744367" lon="151.2900687">
  <ele>349.86</ele>
  <time>2026-09-01T19:51:12Z</time>
  <course>25.24</course>
  <speed>0.0</speed>
  <fix>3d</fix>
</trkpt>
<trkpt lat="-27.2744364" lon="151.2900687">
  <ele>350.44</ele>
  <time>2026-09-01T19:51:12Z</time>
  <course>352.08</course>
  <speed>0.02</speed>
  <fix>3d</fix>
</trkpt>
<trkpt lat="-27.2744366" lon="151.2900687">
  <ele>349.75</ele>
  <time>2026-09-01T19:51:12Z</time>
  <course>25.25</course>
  <speed>0.0</speed>
  <fix>3d</fix>
</trkpt>
<trkpt lat="-27.2744364" lon="151.2900687">
  <ele>350.21</ele>
  <time>2026-09-01T19:51:12Z</time>
  <course>352.91</course>
  <speed>0.02</speed>
  <fix>3d</fix>
</trkpt>
<trkpt lat="-27.2744366" lon="151.2900687">
  <ele>349.63</ele>
  <time>2026-09-01T19:51:12Z</time>
  <course>25.26</course>
  <speed>0.0</speed>
  <fix>3d</fix>
</trkpt>
<trkpt lat="-27.2744364" lon="151.2900687">
  <ele>350.21</ele>
  <time>2026-09-01T19:51:12Z</time>
  <course>352.91</course>
  <speed>0.02</speed>
  <fix>3d</fix>
</trkpt>
<trkpt lat="-27.2744366" lon="151.2900687">
  <ele>349.52</ele>
  <time>2026-09-01T19:51:12Z</time>
  <course>25.27</course>
  <speed>0.0</speed>
  <fix>3d</fix>
</trkpt>
<trkpt lat="-27.2744364" lon="151.2900687">
  <ele>349.98</ele>
  <time>2026-09-01T19:51:12Z</time>
  <course>353.91</course>
  <speed>0.02</speed>
  <fix>3d</fix>
</trkpt>
<trkpt lat="-27.2744366" lon="151.2900687">
  <ele>349.4</ele>
  <time>2026-09-01T19:51:12Z</time>
  <course>25.27</course>
  <speed>0.01</speed>
  <fix>3d</fix>
</trkpt>
<trkpt lat="-27.2744364" lon="151.2900687">
  <ele>349.98</ele>
  <time>2026-09-01T19:51:12Z</time>
  <course>353.91</course>
  <speed>0.02</speed>
  <fix>3d</fix>
</trkpt>
<trkpt lat="-27.2744366" lon="151.2900687">
  <ele>349.29</ele>
  <time>2026-09-01T19:51:12Z</time>
  <course>25.28</course>
  <speed>0.01</speed>
  <fix>3d</fix>
</trkpt>
<trkpt lat="-27.2744363" lon="151.2900687">
  <ele>349.75</ele>
  <time>2026-09-01T19:51:12Z</time>
  <course>355.19</course>
  <speed>0.02</speed>
  <fix>3d</fix>
</trkpt>
<trkpt lat="-27.2744365" lon="151.2900687">
  <ele>349.18</ele>
  <time>2026-09-01T19:51:12Z</time>
  <course>25.3</course>
  <speed>0.01</speed>
  <fix>3d</fix>
</trkpt>
<trkpt lat="-27.2744363" lon="151.2900687">
  <ele>349.75</ele>
  <time>2026-09-01T19:51:12Z</time>
  <course>355.19</course>
  <speed>0.02</speed>
  <fix>3d</fix>
</trkpt>
<trkpt lat="-27.2744365" lon="151.2900687">
  <ele>349.06</ele>
  <time>2026-09-01T19:51:12Z</time>
  <course>25.31</course>
  <speed>0.01</speed>
  <fix>3d</fix>
</trkpt>
<trkpt lat="-27.2744363" lon="151.2900687">
  <ele>349.52</ele>
  <time>2026-09-01T19:51:12Z</time>
  <course>356.77</course>
  <speed>0.02</speed>
  <fix>3d</fix>
</trkpt>
<trkpt lat="-27.2744365" lon="151.2900687">
  <ele>348.95</ele>
  <time>2026-09-01T19:51:12Z</time>
  <course>25.32</course>
  <speed>0.01</speed>
  <fix>3d</fix>
</trkpt>
<trkpt lat="-27.2744363" lon="151.2900687">
  <ele>349.52</ele>
  <time>2026-09-01T19:51:12Z</time>
  <course>356.77</course>
  <speed>0.02</speed>
  <fix>3d</fix>
</trkpt>
<trkpt lat="-27.2744365" lon="151.2900687">
  <ele>348.84</ele>
  <time>2026-09-01T19:51:12Z</time>
  <course>25.33</course>
  <speed>0.01</speed>
  <fix>3d</fix>
</trkpt>
<trkpt lat="-27.2744362" lon="151.2900687">
  <ele>349.29</ele>
  <time>2026-09-01T19:51:12Z</time>
  <course>358.51</course>
  <speed>0.02</speed>
  <fix>3d</fix>
</trkpt>
<trkpt lat="-27.2744365" lon="151.2900687">
  <ele>348.72</ele>
  <time>2026-09-01T19:51:12Z</time>
  <course>25.34</course>
  <speed>0.01</speed>
  <fix>3d</fix>
</trkpt>
<trkpt lat="-27.2744362" lon="151.2900687">
  <ele>349.29</ele>
  <time>2026-09-01T19:51:12Z</time>
  <course>358.51</course>
  <speed>0.02</speed>
  <fix>3d</fix>
</trkpt>
<trkpt lat="-27.2744365" lon="151.2900687">
  <ele>348.61</ele>
  <time>2026-09-01T19:51:12Z</time>
  <course>25.34</course>
  <speed>0.01</speed>
  <fix>3d</fix>
</trkpt>
<trkpt lat="-27.2744362" lon="151.2900687">
  <ele>349.06</ele>
  <time>2026-09-01T19:51:12Z</time>
  <course>0.43</course>
  <speed>0.01</speed>
  <fix>3d</fix>
</trkpt>
<trkpt lat="-27.2744364" lon="151.2900687">
  <ele>348.5</ele>
  <time>2026-09-01T19:51:12Z</time>
  <course>25.35</course>
  <speed>0.01</speed>
  <fix>3d</fix>
</trkpt>
<trkpt lat="-27.2744362" lon="151.2900687">
  <ele>349.06</ele>
  <time>2026-09-01T19:51:12Z</time>
  <course>0.43</course>
  <speed>0.01</speed>
  <fix>3d</fix>
</trkpt>
<trkpt lat="-27.2744364" lon="151.2900687">
  <ele>348.38</ele>
  <time>2026-09-01T19:51:12Z</time>
  <course>25.36</course>
  <speed>0.01</speed>
  <fix>3d</fix>
</trkpt>
<trkpt lat="-27.2744362" lon="151.2900687">
  <ele>348.83</ele>
  <time>2026-09-01T19:51:12Z</time>
  <course>2.83</course>
  <speed>0.01</speed>
  <fix>3d</fix>
</trkpt>
<trkpt lat="-27.2744364" lon="151.2900687">
  <ele>348.27</ele>
  <time>2026-09-01T19:51:12Z</time>
  <course>25.37</course>
  <speed>0.01</speed>
  <fix>3d</fix>
</trkpt>
<trkpt lat="-27.2744362" lon="151.2900687">
  <ele>348.83</ele>
  <time>2026-09-01T19:51:12Z</time>
  <course>2.83</course>
  <speed>0.01</speed>
  <fix>3d</fix>
</trkpt>
<trkpt lat="-27.2744364" lon="151.2900687">
  <ele>348.15</ele>
  <time>2026-09-01T19:51:12Z</time>
  <course>25.38</course>
  <speed>0.01414213562373095</speed>
  <fix>3d</fix>
</trkpt>
<trkpt lat="-27.2744362" lon="151.2900687">
  <ele>348.6</ele>
  <time>2026-09-01T19:51:12Z</time>
  <course>5.61</course>
  <speed>0.01</speed>
  <fix>3d</fix>
</trkpt>
<trkpt lat="-27.2744364" lon="151.2900687">
  <ele>348.04</ele>
  <time>2026-09-01T19:51:12Z</time>
  <course>25.39</course>
  <speed>0.01414213562373095</speed>
  <fix>3d</fix>
</trkpt>
<trkpt lat="-27.2744362" lon="151.2900687">
  <ele>348.6</ele>
  <time>2026-09-01T19:51:12Z</time>
  <course>5.61</course>
  <speed>0.01</speed>
  <fix>3d</fix>
</trkpt>
<trkpt lat="-27.2744364" lon="151.2900687">
  <ele>347.92</ele>
  <time>2026-09-01T19:51:12Z</time>
  <course>25.4</course>
  <speed>0.01414213562373095</speed>
  <fix>3d</fix>
</trkpt>
<trkpt lat="-27.2744361" lon="151.2900687">
  <ele>348.37</ele>
  <time>2026-09-01T19:51:12Z</time>
  <course>8.5</course>
  <speed>0.01</speed>
  <fix>3d</fix>
</trkpt>
<trkpt lat="-27.2744364" lon="151.2900688">
  <ele>347.81</ele>
  <time>2026-09-01T19:51:12Z</time>
  <course>25.41</course>
  <speed>0.01414213562373095</speed>
  <fix>3d</fix>
</trkpt>
<trkpt lat="-27.2744361" lon="151.2900687">
  <ele>348.37</ele>
  <time>2026-09-01T19:51:12Z</time>
  <course>8.5</course>
  <speed>0.01</speed>
  <fix>3d</fix>
</trkpt>
<trkpt lat="-27.2744363" lon="151.2900688">
  <ele>347.69</ele>
  <time>2026-09-01T19:51:12Z</time>
  <course>25.43</course>
  <speed>0.01414213562373095</speed>
  <fix>3d</fix>
</trkpt>
<trkpt lat="-27.2744361" lon="151.2900687">
  <ele>348.14</ele>
  <time>2026-09-01T19:51:12Z</time>
  <course>11.53</course>
  <speed>0.01</speed>
  <fix>3d</fix>
</trkpt>
<trkpt lat="-27.2744363" lon="151.2900688">
  <ele>347.57</ele>
  <time>2026-09-01T19:51:12Z</time>
  <course>25.45</course>
  <speed>0.01414213562373095</speed>
  <fix>3d</fix>
</trkpt>
<trkpt lat="-27.2744361" lon="151.2900687">
  <ele>348.14</ele>
  <time>2026-09-01T19:51:12Z</time>
  <course>11.53</course>
  <speed>0.01</speed>
  <fix>3d</fix>
</trkpt>
<trkpt lat="-27.2744363" lon="151.2900688">
  <ele>347.46</ele>
  <time>2026-09-01T19:51:12Z</time>
  <course>25.47</course>
  <speed>0.01414213562373095</speed>
  <fix>3d</fix>
</trkpt>
<trkpt lat="-27.2744361" lon="151.2900687">
  <ele>347.9</ele>
  <time>2026-09-01T19:51:12Z</time>
  <course>14.91</course>
  <speed>0.01</speed>
  <fix>3d</fix>
</trkpt>
<trkpt lat="-27.2744363" lon="151.2900688">
  <ele>347.34</ele>
  <time>2026-09-01T19:51:12Z</time>
  <course>25.48</course>
  <speed>0.01414213562373095</speed>
  <fix>3d</fix>
</trkpt>
<trkpt lat="-27.2744361" lon="151.2900687">
  <ele>347.9</ele>
  <time>2026-09-01T19:51:12Z</time>
  <course>14.91</course>
  <speed>0.01</speed>
  <fix>3d</fix>
</trkpt>
<trkpt lat="-27.2744363" lon="151.2900688">
  <ele>347.22</ele>
  <time>2026-09-01T19:51:12Z</time>
  <course>25.5</course>
  <speed>0.01414213562373095</speed>
  <fix>3d</fix>
</trkpt>
<trkpt lat="-27.2744361" lon="151.2900687">
  <ele>347.67</ele>
  <time>2026-09-01T19:51:12Z</time>
  <course>18.76</course>
  <speed>0.01</speed>
  <fix>3d</fix>
</trkpt>
<trkpt lat="-27.2744363" lon="151.2900688">
  <ele>347.11</ele>
  <time>2026-09-01T19:51:12Z</time>
  <course>25.5</course>
  <speed>0.01414213562373095</speed>
  <fix>3d</fix>
</trkpt>
<trkpt lat="-27.2744361" lon="151.2900687">
  <ele>347.67</ele>
  <time>2026-09-01T19:51:12Z</time>
  <course>18.76</course>
  <speed>0.01</speed>
  <fix>3d</fix>
</trkpt>
<trkpt lat="-27.2744363" lon="151.2900688">
  <ele>346.99</ele>
  <time>2026-09-01T19:51:12Z</time>
  <course>25.5</course>
  <speed>0.01414213562373095</speed>
  <fix>3d</fix>
</trkpt>
<trkpt lat="-27.274436" lon="151.2900687">
  <ele>347.44</ele>
  <time>2026-09-01T19:51:12Z</time>
  <course>22.74</course>
  <speed>0.01</speed>
  <fix>3d</fix>
</trkpt>
<trkpt lat="-27.2744363" lon="151.2900688">
  <ele>346.87</ele>
  <time>2026-09-01T19:51:12Z</time>
  <course>25.49</course>
  <speed>0.01414213562373095</speed>
  <fix>3d</fix>
</trkpt>
<trkpt lat="-27.274436" lon="151.2900687">
  <ele>347.44</ele>
  <time>2026-09-01T19:51:12Z</time>
  <course>22.74</course>
  <speed>0.01</speed>
  <fix>3d</fix>
</trkpt>
<trkpt lat="-27.2744363" lon="151.2900688">
  <ele>346.75</ele>
  <time>2026-09-01T19:51:12Z</time>
  <course>25.49</course>
  <speed>0.01414213562373095</speed>
  <fix>3d</fix>
</trkpt>
<trkpt lat="-27.274436" lon="151.2900687">
  <ele>347.21</ele>
  <time>2026-09-01T19:51:12Z</time>
  <course>27.42</course>
  <speed>0.01</speed>
  <fix>3d</fix>
</trkpt>
<trkpt lat="-27.2744363" lon="151.2900688">
  <ele>346.63</ele>
  <time>2026-09-01T19:51:12Z</time>
  <course>25.49</course>
  <speed>0.01414213562373095</speed>
  <fix>3d</fix>
</trkpt>
<trkpt lat="-27.274436" lon="151.2900687">
  <ele>347.21</ele>
  <time>2026-09-01T19:51:12Z</time>
  <course>27.42</course>
  <speed>0.01</speed>
  <fix>3d</fix>
</trkpt>
<trkpt lat="-27.2744363" lon="151.2900688">
  <ele>346.52</ele>
  <time>2026-09-01T19:51:12Z</time>
  <course>25.49</course>
  <speed>0.01414213562373095</speed>
  <fix>3d</fix>
</trkpt>
<trkpt lat="-27.274436" lon="151.2900687">
  <ele>346.97</ele>
  <time>2026-09-01T19:51:12Z</time>
  <course>33.48</course>
  <speed>0.01</speed>
  <fix>3d</fix>
</trkpt>
<trkpt lat="-27.2744362" lon="151.2900688">
  <ele>346.4</ele>
  <time>2026-09-01T19:51:12Z</time>
  <course>25.5</course>
  <speed>0.01414213562373095</speed>
  <fix>3d</fix>
</trkpt>
<trkpt lat="-27.274436" lon="151.2900687">
  <ele>346.97</ele>
  <time>2026-09-01T19:51:12Z</time>
  <course>33.48</course>
  <speed>0.01</speed>
  <fix>3d</fix>
</trkpt>
<trkpt lat="-27.2744362" lon="151.2900688">
  <ele>346.29</ele>
  <time>2026-09-01T19:51:12Z</time>
  <course>25.51</course>
  <speed>0.01414213562373095</speed>
  <fix>3d</fix>
</trkpt>
<trkpt lat="-27.274436" lon="151.2900687">
  <ele>346.74</ele>
  <time>2026-09-01T19:51:12Z</time>
  <course>39.86</course>
  <speed>0.0</speed>
  <fix>3d</fix>
</trkpt>
<trkpt lat="-27.2744362" lon="151.2900688">
  <ele>346.17</ele>
  <time>2026-09-01T19:51:12Z</time>
  <course>25.53</course>
  <speed>0.01414213562373095</speed>
  <fix>3d</fix>
</trkpt>
<trkpt lat="-27.274436" lon="151.2900687">
  <ele>346.74</ele>
  <time>2026-09-01T19:51:12Z</time>
  <course>39.86</course>
  <speed>0.0</speed>
  <fix>3d</fix>
</trkpt>
<trkpt lat="-27.2744362" lon="151.2900688">
  <ele>346.06</ele>
  <time>2026-09-01T19:51:12Z</time>
  <course>25.54</course>
  <speed>0.01414213562373095</speed>
  <fix>3d</fix>
</trkpt>
<trkpt lat="-27.274436" lon="151.2900687">
  <ele>346.52</ele>
  <time>2026-09-01T19:51:12Z</time>
  <course>46.37</course>
  <speed>0.0</speed>
  <fix>3d</fix>
</trkpt>
<trkpt lat="-27.2744362" lon="151.2900688">
  <ele>345.95</ele>
  <time>2026-09-01T19:51:12Z</time>
  <course>25.56</course>
  <speed>0.022360679774997897</speed>
  <fix>3d</fix>
</trkpt>
<trkpt lat="-27.274436" lon="151.2900687">
  <ele>346.52</ele>
  <time>2026-09-01T19:51:12Z</time>
  <course>46.37</course>
  <speed>0.0</speed>
  <fix>3d</fix>
</trkpt>
<trkpt lat="-27.2744362" lon="151.2900688">
  <ele>345.83</ele>
  <time>2026-09-01T19:51:12Z</time>
  <course>25.56</course>
  <speed>0.022360679774997897</speed>
  <fix>3d</fix>
</trkpt>
<trkpt lat="-27.274436" lon="151.2900687">
  <ele>346.29</ele>
  <time>2026-09-01T19:51:12Z</time>
  <course>54.36</course>
  <speed>0.0</speed>
  <fix>3d</fix>
</trkpt>
<trkpt lat="-27.2744362" lon="151.2900688">
  <ele>345.72</ele>
  <time>2026-09-01T19:51:12Z</time>
  <course>25.56</course>
  <speed>0.022360679774997897</speed>
  <fix>3d</fix>
</trkpt>
<trkpt lat="-27.274436" lon="151.2900687">
  <ele>346.29</ele>
  <time>2026-09-01T19:51:12Z</time>
  <course>54.36</course>
  <speed>0.0</speed>
  <fix>3d</fix>
</trkpt>
<trkpt lat="-27.2744362" lon="151.2900688">
  <ele>345.6</ele>
  <time>2026-09-01T19:51:12Z</time>
  <course>25.57</course>
  <speed>0.022360679774997897</speed>
  <fix>3d</fix>
</trkpt>
<trkpt lat="-27.274436" lon="151.2900687">
  <ele>346.06</ele>
  <time>2026-09-01T19:51:12Z</time>
  <course>64.19</course>
  <speed>0.0</speed>
  <fix>3d</fix>
</trkpt>
<trkpt lat="-27.2744362" lon="151.2900688">
  <ele>345.49</ele>
  <time>2026-09-01T19:51:12Z</time>
  <course>25.57</course>
  <speed>0.022360679774997897</speed>
  <fix>3d</fix>
</trkpt>
<trkpt lat="-27.274436" lon="151.2900687">
  <ele>346.06</ele>
  <time>2026-09-01T19:51:12Z</time>
  <course>64.19</course>
  <speed>0.0</speed>
  <fix>3d</fix>
</trkpt>
<trkpt lat="-27.2744362" lon="151.2900688">
  <ele>345.37</ele>
  <time>2026-09-01T19:51:12Z</time>
  <course>25.58</course>
  <speed>0.022360679774997897</speed>
  <fix>3d</fix>
</trkpt>
<trkpt lat="-27.274436" lon="151.2900687">
  <ele>345.84</ele>
  <time>2026-09-01T19:51:12Z</time>
  <course>73.5</course>
  <speed>0.0</speed>
  <fix>3d</fix>
</trkpt>
<trkpt lat="-27.2744362" lon="151.2900688">
  <ele>345.26</ele>
  <time>2026-09-01T19:51:12Z</time>
  <course>25.59</course>
  <speed>0.022360679774997897</speed>
  <fix>3d</fix>
</trkpt>
<trkpt lat="-27.274436" lon="151.2900687">
  <ele>345.84</ele>
  <time>2026-09-01T19:51:12Z</time>
  <course>73.5</course>
  <speed>0.0</speed>
  <fix>3d</fix>
</trkpt>
<trkpt lat="-27.2744362" lon="151.2900688">
  <ele>345.14</ele>
  <time>2026-09-01T19:51:12Z</time>
  <course>25.61</course>
  <speed>0.022360679774997897</speed>
  <fix>3d</fix>
</trkpt>
<trkpt lat="-27.274436" lon="151.2900687">
  <ele>345.61</ele>
  <time>2026-09-01T19:51:12Z</time>
  <course>79.27</course>
  <speed>0.0</speed>
  <fix>3d</fix>
</trkpt>
<trkpt lat="-27.2744362" lon="151.2900688">
  <ele>345.03</ele>
  <time>2026-09-01T19:51:12Z</time>
  <course>25.63</course>
  <speed>0.022360679774997897</speed>
  <fix>3d</fix>
</trkpt>
<trkpt lat="-27.274436" lon="151.2900687">
  <ele>345.61</ele>
  <time>2026-09-01T19:51:12Z</time>
  <course>79.27</course>
  <speed>0.0</speed>
  <fix>3d</fix>
</trkpt>
<trkpt lat="-27.2744362" lon="151.2900688">
  <ele>344.91</ele>
  <time>2026-09-01T19:51:12Z</time>
  <course>25.65</course>
  <speed>0.022360679774997897</speed>
  <fix>3d</fix>
</trkpt>
<trkpt lat="-27.274436" lon="151.2900687">
  <ele>345.38</ele>
  <time>2026-09-01T19:51:12Z</time>
  <course>83.56</course>
  <speed>0.0</speed>
  <fix>3d</fix>
</trkpt>
<trkpt lat="-27.2744362" lon="151.2900688">
  <ele>344.8</ele>
  <time>2026-09-01T19:51:12Z</time>
  <course>25.67</course>
  <speed>0.022360679774997897</speed>
  <fix>3d</fix>
</trkpt>
<trkpt lat="-27.274436" lon="151.2900687">
  <ele>345.38</ele>
  <time>2026-09-01T19:51:12Z</time>
  <course>83.56</course>
  <speed>0.0</speed>
  <fix>3d</fix>
</trkpt>
<trkpt lat="-27.2744362" lon="151.2900688">
  <ele>344.69</ele>
  <time>2026-09-01T19:51:12Z</time>
  <course>25.69</course>
  <speed>0.02</speed>
  <fix>3d</fix>
</trkpt>
<trkpt lat="-27.274436" lon="151.2900687">
  <ele>345.15</ele>
  <time>2026-09-01T19:51:12Z</time>
  <course>89.69</course>
  <speed>0.0</speed>
  <fix>3d</fix>
</trkpt>
<trkpt lat="-27.2744362" lon="151.2900688">
  <ele>344.57</ele>
  <time>2026-09-01T19:51:12Z</time>
  <course>25.7</course>
  <speed>0.02</speed>
  <fix>3d</fix>
</trkpt>
<trkpt lat="-27.274436" lon="151.2900687">
  <ele>345.15</ele>
  <time>2026-09-01T19:51:12Z</time>
  <course>89.69</course>
  <speed>0.0</speed>
  <fix>3d</fix>
</trkpt>
<trkpt lat="-27.2744362" lon="151.2900688">
  <ele>344.46</ele>
  <time>2026-09-01T19:51:12Z</time>
  <course>25.71</course>
  <speed>0.02</speed>
  <fix>3d</fix>
</trkpt>
<trkpt lat="-27.274436" lon="151.2900688">
  <ele>344.93</ele>
  <time>2026-09-01T19:51:12Z</time>
  <course>98.07</course>
  <speed>0.0</speed>
  <fix>3d</fix>
</trkpt>
<trkpt lat="-27.2744362" lon="151.2900688">
  <ele>344.35</ele>
  <time>2026-09-01T19:51:12Z</time>
  <course>25.71</course>
  <speed>0.02</speed>
  <fix>3d</fix>
</trkpt>
<trkpt lat="-27.274436" lon="151.2900688">
  <ele>344.93</ele>
  <time>2026-09-01T19:51:12Z</time>
  <course>98.07</course>
  <speed>0.0</speed>
  <fix>3d</fix>
</trkpt>
<trkpt lat="-27.2744362" lon="151.2900688">
  <ele>344.23</ele>
  <time>2026-09-01T19:51:12Z</time>
  <course>25.71</course>
  <speed>0.02</speed>
  <fix>3d</fix>
</trkpt>
<trkpt lat="-27.274436" lon="151.2900688">
  <ele>344.7</ele>
  <time>2026-09-01T19:51:12Z</time>
  <course>105.12</course>
  <speed>0.0</speed>
  <fix>3d</fix>
</trkpt>
<trkpt lat="-27.2744362" lon="151.2900688">
  <ele>344.12</ele>
  <time>2026-09-01T19:51:12Z</time>
  <course>25.71</course>
  <speed>0.02</speed>
  <fix>3d</fix>
</trkpt>
<trkpt lat="-27.274436" lon="151.2900688">
  <ele>344.7</ele>
  <time>2026-09-01T19:51:12Z</time>
  <course>105.12</course>
  <speed>0.0</speed>
  <fix>3d</fix>
</trkpt>
<trkpt lat="-27.2744362" lon="151.2900688">
  <ele>344.0</ele>
  <time>2026-09-01T19:51:12Z</time>
  <course>25.71</course>
  <speed>0.02</speed>
  <fix>3d</fix>
</trkpt>
<trkpt lat="-27.274436" lon="151.2900688">
  <ele>344.47</ele>
  <time>2026-09-01T19:51:12Z</time>
  <course>108.97</course>
  <speed>0.0</speed>
  <fix>3d</fix>
</trkpt>
<trkpt lat="-27.2744362" lon="151.2900688">
  <ele>343.89</ele>
  <time>2026-09-01T19:51:12Z</time>
  <course>25.71</course>
  <speed>0.02</speed>
  <fix>3d</fix>
</trkpt>
<trkpt lat="-27.274436" lon="151.2900688">
  <ele>344.47</ele>
  <time>2026-09-01T19:51:12Z</time>
  <course>108.97</course>
  <speed>0.0</speed>
  <fix>3d</fix>
</trkpt>
<trkpt lat="-27.2744362" lon="151.2900688">
  <ele>343.77</ele>
  <time>2026-09-01T19:51:12Z</time>
  <course>25.71</course>
  <speed>0.02</speed>
  <fix>3d</fix>
</trkpt>
<trkpt lat="-27.274436" lon="151.2900688">
  <ele>344.24</ele>
  <time>2026-09-01T19:51:12Z</time>
  <course>111.92</course>
  <speed>0.0</speed>
  <fix>3d</fix>
</trkpt>
<trkpt lat="-27.2744362" lon="151.2900688">
  <ele>343.66</ele>
  <time>2026-09-01T19:51:12Z</time>
  <course>25.72</course>
  <speed>0.02</speed>
  <fix>3d</fix>
</trkpt>
<trkpt lat="-27.274436" lon="151.2900688">
  <ele>344.24</ele>
  <time>2026-09-01T19:51:12Z</time>
  <course>111.92</course>
  <speed>0.0</speed>
  <fix>3d</fix>
</trkpt>
<trkpt lat="-27.2744362" lon="151.2900688">
  <ele>343.55</ele>
  <time>2026-09-01T19:51:12Z</time>
  <course>25.72</course>
  <speed>0.02</speed>
  <fix>3d</fix>
</trkpt>
<trkpt lat="-27.274436" lon="151.2900688">
  <ele>344.02</ele>
  <time>2026-09-01T19:51:12Z</time>
  <course>114.02</course>
  <speed>0.0</speed>
  <fix>3d</fix>
</trkpt>
<trkpt lat="-27.2744362" lon="151.2900688">
  <ele>343.44</ele>
  <time>2026-09-01T19:51:12Z</time>
  <course>25.73</course>
  <speed>0.022360679774997897</speed>
  <fix>3d</fix>
</trkpt>
<trkpt lat="-27.274436" lon="151.2900688">
  <ele>344.02</ele>
  <time>2026-09-01T19:51:12Z</time>
  <course>114.02</course>
  <speed>0.0</speed>
  <fix>3d</fix>
</trkpt>
<trkpt lat="-27.2744362" lon="151.2900688">
  <ele>343.32</ele>
  <time>2026-09-01T19:51:12Z</time>
  <course>25.73</course>
  <speed>0.022360679774997897</speed>
  <fix>3d</fix>
</trkpt>
<trkpt lat="-27.274436" lon="151.2900688">
  <ele>343.79</ele>
  <time>2026-09-01T19:51:12Z</time>
  <course>115.57</course>
  <speed>0.0</speed>
  <fix>3d</fix>
</trkpt>
<trkpt lat="-27.2744362" lon="151.2900688">
  <ele>343.21</ele>
  <time>2026-09-01T19:51:12Z</time>
  <course>25.72</course>
  <speed>0.022360679774997897</speed>
  <fix>3d</fix>
</trkpt>
<trkpt lat="-27.274436" lon="151.2900688">
  <ele>343.79</ele>
  <time>2026-09-01T19:51:12Z</time>
  <course>115.57</course>
  <speed>0.0</speed>
  <fix>3d</fix>
</trkpt>
<trkpt lat="-27.2744362" lon="151.2900688">
  <ele>343.1</ele>
  <time>2026-09-01T19:51:12Z</time>
  <course>25.72</course>
  <speed>0.02</speed>
  <fix>3d</fix>
</trkpt>
<trkpt lat="-27.274436" lon="151.2900688">
  <ele>343.56</ele>
  <time>2026-09-01T19:51:12Z</time>
  <course>117.68</course>
  <speed>0.0</speed>
  <fix>3d</fix>
</trkpt>
<trkpt lat="-27.2744362" lon="151.2900688">
  <ele>342.98</ele>
  <time>2026-09-01T19:51:12Z</time>
  <course>25.72</course>
  <speed>0.02</speed>
  <fix>3d</fix>
</trkpt>
<trkpt lat="-27.274436" lon="151.2900688">
  <ele>343.56</ele>
  <time>2026-09-01T19:51:12Z</time>
  <course>117.68</course>
  <speed>0.0</speed>
  <fix>3d</fix>
</trkpt>
<trkpt lat="-27.2744362" lon="151.2900688">
  <ele>342.87</ele>
  <time>2026-09-01T19:51:12Z</time>
  <course>25.73</course>
  <speed>0.02</speed>
  <fix>3d</fix>
</trkpt>
<trkpt lat="-27.274436" lon="151.2900688">
  <ele>343.33</ele>
  <time>2026-09-01T19:51:12Z</time>
  <course>118.8</course>
  <speed>0.0</speed>
  <fix>3d</fix>
</trkpt>
<trkpt lat="-27.2744362" lon="151.2900688">
  <ele>342.81</ele>
  <time>2026-09-01T19:51:13Z</time>
  <course>25.73</course>
  <speed>0.02</speed>
  <fix>3d</fix>
</trkpt>
<trkpt lat="-27.274436" lon="151.2900688">
  <ele>343.33</ele>
  <time>2026-09-01T19:51:13Z</time>
  <course>118.8</course>
  <speed>0.0</speed>
  <fix>3d</fix>
</trkpt>
<trkpt lat="-27.2744362" lon="151.2900688">
  <ele>342.83</ele>
  <time>2026-09-01T19:51:13Z</time>
  <course>25.73</course>
  <speed>0.02</speed>
  <fix>3d</fix>
</trkpt>
<trkpt lat="-27.274436" lon="151.2900689">
  <ele>343.13</ele>
  <time>2026-09-01T19:51:13Z</time>
  <course>118.59</course>
  <speed>0.0</speed>
  <fix>3d</fix>
</trkpt>
<trkpt lat="-27.2744362" lon="151.2900688">
  <ele>342.88</ele>
  <time>2026-09-01T19:51:13Z</time>
  <course>25.74</course>
  <speed>0.02</speed>
  <fix>3d</fix>
</trkpt>
<trkpt lat="-27.274436" lon="151.2900689">
  <ele>343.13</ele>
  <time>2026-09-01T19:51:13Z</time>
  <course>118.59</course>
  <speed>0.0</speed>
  <fix>3d</fix>
</trkpt>
<trkpt lat="-27.2744362" lon="151.2900688">
  <ele>342.9</ele>
  <time>2026-09-01T19:51:13Z</time>
  <course>25.74</course>
  <speed>0.02</speed>
  <fix>3d</fix>
</trkpt>
<trkpt lat="-27.274436" lon="151.2900689">
  <ele>343.06</ele>
  <time>2026-09-01T19:51:13Z</time>
  <course>297.84</course>
  <speed>0.0</speed>
  <fix>3d</fix>
</trkpt>
<trkpt lat="-27.2744362" lon="151.2900688">
  <ele>342.91</ele>
  <time>2026-09-01T19:51:13Z</time>
  <course>25.74</course>
  <speed>0.02</speed>
  <fix>3d</fix>
</trkpt>
<trkpt lat="-27.274436" lon="151.2900689">
  <ele>343.06</ele>
  <time>2026-09-01T19:51:13Z</time>
  <course>297.84</course>
  <speed>0.0</speed>
  <fix>3d</fix>
</trkpt>
<trkpt lat="-27.2744362" lon="151.2900688">
  <ele>342.91</ele>
  <time>2026-09-01T19:51:13Z</time>
  <course>25.74</course>
  <speed>0.02</speed>
  <fix>3d</fix>
</trkpt>
<trkpt lat="-27.274436" lon="151.2900689">
  <ele>343.09</ele>
  <time>2026-09-01T19:51:13Z</time>
  <course>297.76</course>
  <speed>0.0</speed>
  <fix>3d</fix>
</trkpt>
<trkpt lat="-27.2744362" lon="151.2900689">
  <ele>342.9</ele>
  <time>2026-09-01T19:51:13Z</time>
  <course>25.74</course>
  <speed>0.02</speed>
  <fix>3d</fix>
</trkpt>
<trkpt lat="-27.274436" lon="151.2900689">
  <ele>343.09</ele>
  <time>2026-09-01T19:51:13Z</time>
  <course>297.76</course>
  <speed>0.0</speed>
  <fix>3d</fix>
</trkpt>
<trkpt lat="-27.2744362" lon="151.2900689">
  <ele>342.9</ele>
  <time>2026-09-01T19:51:13Z</time>
  <course>25.74</course>
  <speed>0.02</speed>
  <fix>3d</fix>
</trkpt>
<trkpt lat="-27.274436" lon="151.2900689">
  <ele>343.1</ele>
  <time>2026-09-01T19:51:13Z</time>
  <course>117.67</course>
  <speed>0.0</speed>
  <fix>3d</fix>
</trkpt>
<trkpt lat="-27.2744362" lon="151.2900689">
  <ele>342.91</ele>
  <time>2026-09-01T19:51:13Z</time>
  <course>25.74</course>
  <speed>0.02</speed>
  <fix>3d</fix>
</trkpt>
<trkpt lat="-27.274436" lon="151.2900689">
  <ele>343.1</ele>
  <time>2026-09-01T19:51:13Z</time>
  <course>117.67</course>
  <speed>0.0</speed>
  <fix>3d</fix>
</trkpt>
<trkpt lat="-27.2744362" lon="151.2900689">
  <ele>342.91</ele>
  <time>2026-09-01T19:51:13Z</time>
  <course>25.74</course>
  <speed>0.02</speed>
  <fix>3d</fix>
</trkpt>
<trkpt lat="-27.274436" lon="151.2900689">
  <ele>343.09</ele>
  <time>2026-09-01T19:51:13Z</time>
  <course>117.65</course>
  <speed>0.0</speed>
  <fix>3d</fix>
</trkpt>
<trkpt lat="-27.2744362" lon="151.2900689">
  <ele>342.91</ele>
  <time>2026-09-01T19:51:13Z</time>
  <course>25.74</course>
  <speed>0.02</speed>
  <fix>3d</fix>
</trkpt>
<trkpt lat="-27.274436" lon="151.2900689">
  <ele>343.09</ele>
  <time>2026-09-01T19:51:13Z</time>
  <course>117.65</course>
  <speed>0.0</speed>
  <fix>3d</fix>
</trkpt>
<trkpt lat="-27.2744362" lon="151.2900689">
  <ele>342.91</ele>
  <time>2026-09-01T19:51:13Z</time>
  <course>25.74</course>
  <speed>0.02</speed>
  <fix>3d</fix>
</trkpt>
<trkpt lat="-27.274436" lon="151.2900689">
  <ele>343.09</ele>
  <time>2026-09-01T19:51:13Z</time>
  <course>298.01</course>
  <speed>0.0</speed>
  <fix>3d</fix>
</trkpt>
<trkpt lat="-27.2744362" lon="151.2900689">
  <ele>342.91</ele>
  <time>2026-09-01T19:51:13Z</time>
  <course>25.74</course>
  <speed>0.02</speed>
  <fix>3d</fix>
</trkpt>
<trkpt lat="-27.274436" lon="151.2900689">
  <ele>343.09</ele>
  <time>2026-09-01T19:51:13Z</time>
  <course>298.01</course>
  <speed>0.0</speed>
  <fix>3d</fix>
</trkpt>
<trkpt lat="-27.2744362" lon="151.2900689">
  <ele>342.91</ele>
  <time>2026-09-01T19:51:13Z</time>
  <course>25.75</course>
  <speed>0.02</speed>
  <fix>3d</fix>
</trkpt>
<trkpt lat="-27.274436" lon="151.2900689">
  <ele>343.1</ele>
  <time>2026-09-01T19:51:13Z</time>
  <course>298.61</course>
  <speed>0.0</speed>
  <fix>3d</fix>
</trkpt>
<trkpt lat="-27.2744362" lon="151.2900689">
  <ele>342.91</ele>
  <time>2026-09-01T19:51:13Z</time>
  <course>25.75</course>
  <speed>0.02</speed>
  <fix>3d</fix>
</trkpt>
<trkpt lat="-27.274436" lon="151.2900689">
  <ele>343.1</ele>
  <time>2026-09-01T19:51:13Z</time>
  <course>298.61</course>
  <speed>0.0</speed>
  <fix>3d</fix>
</trkpt>
<trkpt lat="-27.2744362" lon="151.2900689">
  <ele>342.91</ele>
  <time>2026-09-01T19:51:13Z</time>
  <course>25.75</course>
  <speed>0.02</speed>
  <fix>3d</fix>
</trkpt>
<trkpt lat="-27.274436" lon="151.2900689">
  <ele>343.1</ele>
  <time>2026-09-01T19:51:13Z</time>
  <course>116.32</course>
  <speed>0.0</speed>
  <fix>3d</fix>
</trkpt>
<trkpt lat="-27.2744362" lon="151.2900689">
  <ele>342.91</ele>
  <time>2026-09-01T19:51:13Z</time>
  <course>25.75</course>
  <speed>0.02</speed>
  <fix>3d</fix>
</trkpt>
<trkpt lat="-27.274436" lon="151.2900689">
  <ele>343.1</ele>
  <time>2026-09-01T19:51:13Z</time>
  <course>116.32</course>
  <speed>0.0</speed>
  <fix>3d</fix>
</trkpt>
<trkpt lat="-27.2744362" lon="151.2900689">
  <ele>342.9</ele>
  <time>2026-09-01T19:51:13Z</time>
  <course>25.75</course>
  <speed>0.02</speed>
  <fix>3d</fix>
</trkpt>
<trkpt lat="-27.274436" lon="151.2900689">
  <ele>343.1</ele>
  <time>2026-09-01T19:51:13Z</time>
  <course>106.27</course>
  <speed>0.0</speed>
  <fix>3d</fix>
</trkpt>
<trkpt lat="-27.2744362" lon="151.2900689">
  <ele>342.9</ele>
  <time>2026-09-01T19:51:13Z</time>
  <course>25.75</course>
  <speed>0.02</speed>
  <fix>3d</fix>
</trkpt>
<trkpt lat="-27.274436" lon="151.2900689">
  <ele>343.1</ele>
  <time>2026-09-01T19:51:13Z</time>
  <course>106.27</course>
  <speed>0.0</speed>
  <fix>3d</fix>
</trkpt>
<trkpt lat="-27.2744362" lon="151.2900689">
  <ele>342.9</ele>
  <time>2026-09-01T19:51:13Z</time>
  <course>25.75</course>
  <speed>0.02</speed>
  <fix>3d</fix>
</trkpt>
<trkpt lat="-27.274436" lon="151.2900689">
  <ele>343.1</ele>
  <time>2026-09-01T19:51:13Z</time>
  <course>312.35</course>
  <speed>0.0</speed>
  <fix>3d</fix>
</trkpt>
<trkpt lat="-27.2744362" lon="151.2900689">
  <ele>342.9</ele>
  <time>2026-09-01T19:51:13Z</time>
  <course>25.75</course>
  <speed>0.02</speed>
  <fix>3d</fix>
</trkpt>
<trkpt lat="-27.274436" lon="151.2900689">
  <ele>343.1</ele>
  <time>2026-09-01T19:51:13Z</time>
  <course>312.35</course>
  <speed>0.0</speed>
  <fix>3d</fix>
</trkpt>
<trkpt lat="-27.2744362" lon="151.2900689">
  <ele>342.9</ele>
  <time>2026-09-01T19:51:13Z</time>
  <course>25.75</course>
  <speed>0.02</speed>
  <fix>3d</fix>
</trkpt>
<trkpt lat="-27.274436" lon="151.2900689">
  <ele>343.1</ele>
  <time>2026-09-01T19:51:13Z</time>
  <course>79.87</course>
  <speed>0.0</speed>
  <fix>3d</fix>
</trkpt>
<trkpt lat="-27.2744362" lon="151.2900689">
  <ele>342.9</ele>
  <time>2026-09-01T19:51:13Z</time>
  <course>25.75</course>
  <speed>0.02</speed>
  <fix>3d</fix>
</trkpt>
<trkpt lat="-27.274436" lon="151.2900689">
  <ele>343.1</ele>
  <time>2026-09-01T19:51:13Z</time>
  <course>79.87</course>
  <speed>0.0</speed>
  <fix>3d</fix>
</trkpt>
<trkpt lat="-27.2744362" lon="151.2900689">
  <ele>342.9</ele>
  <time>2026-09-01T19:51:13Z</time>
  <course>25.75</course>
  <speed>0.02</speed>
  <fix>3d</fix>
</trkpt>
<trkpt lat="-27.274436" lon="151.2900689">
  <ele>343.1</ele>
  <time>2026-09-01T19:51:13Z</time>
  <course>89.32</course>
  <speed>0.0</speed>
  <fix>3d</fix>
</trkpt>
<trkpt lat="-27.2744362" lon="151.2900689">
  <ele>342.91</ele>
  <time>2026-09-01T19:51:13Z</time>
  <course>25.75</course>
  <speed>0.02</speed>
  <fix>3d</fix>
</trkpt>
<trkpt lat="-27.274436" lon="151.2900689">
  <ele>343.1</ele>
  <time>2026-09-01T19:51:13Z</time>
  <course>89.32</course>
  <speed>0.0</speed>
  <fix>3d</fix>
</trkpt>
<trkpt lat="-27.2744362" lon="151.2900689">
  <ele>342.91</ele>
  <time>2026-09-01T19:51:13Z</time>
  <course>25.75</course>
  <speed>0.02</speed>
  <fix>3d</fix>
</trkpt>
<trkpt lat="-27.274436" lon="151.2900689">
  <ele>343.1</ele>
  <time>2026-09-01T19:51:13Z</time>
  <course>75.24</course>
  <speed>0.0</speed>
  <fix>3d</fix>
</trkpt>
<trkpt lat="-27.2744362" lon="151.2900689">
  <ele>342.91</ele>
  <time>2026-09-01T19:51:13Z</time>
  <course>25.75</course>
  <speed>0.02</speed>
  <fix>3d</fix>
</trkpt>
<trkpt lat="-27.274436" lon="151.2900689">
  <ele>343.1</ele>
  <time>2026-09-01T19:51:13Z</time>
  <course>75.24</course>
  <speed>0.0</speed>
  <fix>3d</fix>
</trkpt>
<trkpt lat="-27.2744362" lon="151.2900689">
  <ele>342.9</ele>
  <time>2026-09-01T19:51:13Z</time>
  <course>25.75</course>
  <speed>0.02</speed>
  <fix>3d</fix>
</trkpt>
<trkpt lat="-27.274436" lon="151.2900689">
  <ele>343.1</ele>
  <time>2026-09-01T19:51:13Z</time>
  <course>256.8</course>
  <speed>0.0</speed>
  <fix>3d</fix>
</trkpt>
<trkpt lat="-27.2744362" lon="151.2900689">
  <ele>342.9</ele>
  <time>2026-09-01T19:51:13Z</time>
  <course>25.76</course>
  <speed>0.02</speed>
  <fix>3d</fix>
</trkpt>
<trkpt lat="-27.274436" lon="151.2900689">
  <ele>343.1</ele>
  <time>2026-09-01T19:51:13Z</time>
  <course>256.8</course>
  <speed>0.0</speed>
  <fix>3d</fix>
</trkpt>
<trkpt lat="-27.2744362" lon="151.2900689">
  <ele>342.9</ele>
  <time>2026-09-01T19:51:13Z</time>
  <course>25.76</course>
  <speed>0.02</speed>
  <fix>3d</fix>
</trkpt>
<trkpt lat="-27.274436" lon="151.2900689">
  <ele>343.1</ele>
  <time>2026-09-01T19:51:13Z</time>
  <course>256.47</course>
  <speed>0.0</speed>
  <fix>3d</fix>
</trkpt>
<trkpt lat="-27.2744362" lon="151.2900689">
  <ele>342.9</ele>
  <time>2026-09-01T19:51:13Z</time>
  <course>25.76</course>
  <speed>0.02</speed>
  <fix>3d</fix>
</trkpt>
<trkpt lat="-27.274436" lon="151.2900689">
  <ele>343.1</ele>
  <time>2026-09-01T19:51:13Z</time>
  <course>256.47</course>
  <speed>0.0</speed>
  <fix>3d</fix>
</trkpt>
<trkpt lat="-27.2744362" lon="151.2900689">
  <ele>342.9</ele>
  <time>2026-09-01T19:51:13Z</time>
  <course>25.76</course>
  <speed>0.02</speed>
  <fix>3d</fix>
</trkpt>
<trkpt lat="-27.274436" lon="151.2900689">
  <ele>343.1</ele>
  <time>2026-09-01T19:51:13Z</time>
  <course>256.55</course>
  <speed>0.0</speed>
  <fix>3d</fix>
</trkpt>
<trkpt lat="-27.2744362" lon="151.2900689">
  <ele>342.9</ele>
  <time>2026-09-01T19:51:13Z</time>
  <course>25.76</course>
  <speed>0.02</speed>
  <fix>3d</fix>
</trkpt>
<trkpt lat="-27.274436" lon="151.2900689">
  <ele>343.1</ele>
  <time>2026-09-01T19:51:13Z</time>
  <course>256.55</course>
  <speed>0.0</speed>
  <fix>3d</fix>
</trkpt>
<trkpt lat="-27.2744362" lon="151.2900689">
  <ele>342.9</ele>
  <time>2026-09-01T19:51:13Z</time>
  <course>25.76</course>
  <speed>0.02</speed>
  <fix>3d</fix>
</trkpt>
<trkpt lat="-27.274436" lon="151.2900689">
  <ele>343.1</ele>
  <time>2026-09-01T19:51:13Z</time>
  <course>76.49</course>
  <speed>0.0</speed>
  <fix>3d</fix>
</trkpt>
<trkpt lat="-27.2744362" lon="151.2900689">
  <ele>342.91</ele>
  <time>2026-09-01T19:51:13Z</time>
  <course>25.76</course>
  <speed>0.02</speed>
  <fix>3d</fix>
</trkpt>
<trkpt lat="-27.274436" lon="151.2900689">
  <ele>343.1</ele>
  <time>2026-09-01T19:51:13Z</time>
  <course>76.49</course>
  <speed>0.0</speed>
  <fix>3d</fix>
</trkpt>
<trkpt lat="-27.2744362" lon="151.2900689">
  <ele>342.91</ele>
  <time>2026-09-01T19:51:13Z</time>
  <course>25.76</course>
  <speed>0.02</speed>
  <fix>3d</fix>
</trkpt>
<trkpt lat="-27.274436" lon="151.2900689">
  <ele>343.1</ele>
  <time>2026-09-01T19:51:13Z</time>
  <course>76.58</course>
  <speed>0.0</speed>
  <fix>3d</fix>
</trkpt>
<trkpt lat="-27.2744362" lon="151.2900689">
  <ele>342.91</ele>
  <time>2026-09-01T19:51:13Z</time>
  <course>25.76</course>
  <speed>0.02</speed>
  <fix>3d</fix>
</trkpt>
<trkpt lat="-27.274436" lon="151.2900689">
  <ele>343.1</ele>
  <time>2026-09-01T19:51:13Z</time>
  <course>76.58</course>
  <speed>0.0</speed>
  <fix>3d</fix>
</trkpt>
<trkpt lat="-27.2744362" lon="151.2900689">
  <ele>342.91</ele>
  <time>2026-09-01T19:51:13Z</time>
  <course>25.76</course>
  <speed>0.02</speed>
  <fix>3d</fix>
</trkpt>
<trkpt lat="-27.274436" lon="151.2900689">
  <ele>343.1</ele>
  <time>2026-09-01T19:51:13Z</time>
  <course>256.51</course>
  <speed>0.0</speed>
  <fix>3d</fix>
</trkpt>
<trkpt lat="-27.2744362" lon="151.2900689">
  <ele>342.91</ele>
  <time>2026-09-01T19:51:13Z</time>
  <course>25.76</course>
  <speed>0.02</speed>
  <fix>3d</fix>
</trkpt>
<trkpt lat="-27.274436" lon="151.2900689">
  <ele>343.1</ele>
  <time>2026-09-01T19:51:13Z</time>
  <course>256.51</course>
  <speed>0.0</speed>
  <fix>3d</fix>
</trkpt>
<trkpt lat="-27.2744362" lon="151.2900689">
  <ele>342.91</ele>
  <time>2026-09-01T19:51:13Z</time>
  <course>25.76</course>
  <speed>0.02</speed>
  <fix>3d</fix>
</trkpt>
<trkpt lat="-27.274436" lon="151.2900689">
  <ele>343.1</ele>
  <time>2026-09-01T19:51:13Z</time>
  <course>256.73</course>
  <speed>0.0</speed>
  <fix>3d</fix>
</trkpt>
<trkpt lat="-27.2744362" lon="151.2900689">
  <ele>342.92</ele>
  <time>2026-09-01T19:51:13Z</time>
  <course>25.76</course>
  <speed>0.02</speed>
  <fix>3d</fix>
</trkpt>
<trkpt lat="-27.274436" lon="151.2900689">
  <ele>343.1</ele>
  <time>2026-09-01T19:51:13Z</time>
  <course>256.73</course>
  <speed>0.0</speed>
  <fix>3d</fix>
</trkpt>
<trkpt lat="-27.2744362" lon="151.2900689">
  <ele>342.92</ele>
  <time>2026-09-01T19:51:13Z</time>
  <course>25.76</course>
  <speed>0.02</speed>
  <fix>3d</fix>
</trkpt>
<trkpt lat="-27.274436" lon="151.2900689">
  <ele>343.1</ele>
  <time>2026-09-01T19:51:13Z</time>
  <course>76.52</course>
  <speed>0.0</speed>
  <fix>3d</fix>
</trkpt>
<trkpt lat="-27.2744362" lon="151.2900689">
  <ele>342.92</ele>
  <time>2026-09-01T19:51:13Z</time>
  <course>25.77</course>
  <speed>0.02</speed>
  <fix>3d</fix>
</trkpt>
<trkpt lat="-27.274436" lon="151.2900689">
  <ele>343.1</ele>
  <time>2026-09-01T19:51:13Z</time>
  <course>76.52</course>
  <speed>0.0</speed>
  <fix>3d</fix>
</trkpt>
<trkpt lat="-27.2744362" lon="151.2900689">
  <ele>342.92</ele>
  <time>2026-09-01T19:51:13Z</time>
  <course>25.77</course>
  <speed>0.02</speed>
  <fix>3d</fix>
</trkpt>
<trkpt lat="-27.274436" lon="151.2900689">
  <ele>343.1</ele>
  <time>2026-09-01T19:51:13Z</time>
  <course>256.32</course>
  <speed>0.0</speed>
  <fix>3d</fix>
</trkpt>
<trkpt lat="-27.2744362" lon="151.2900689">
  <ele>342.93</ele>
  <time>2026-09-01T19:51:13Z</time>
  <course>25.77</course>
  <speed>0.02</speed>
  <fix>3d</fix>
</trkpt>
<trkpt lat="-27.274436" lon="151.2900689">
  <ele>343.1</ele>
  <time>2026-09-01T19:51:13Z</time>
  <course>256.32</course>
  <speed>0.0</speed>
  <fix>3d</fix>
</trkpt>
<trkpt lat="-27.2744362" lon="151.2900689">
  <ele>342.93</ele>
  <time>2026-09-01T19:51:13Z</time>
  <course>25.77</course>
  <speed>0.02</speed>
  <fix>3d</fix>
</trkpt>
<trkpt lat="-27.274436" lon="151.2900689">
  <ele>343.1</ele>
  <time>2026-09-01T19:51:13Z</time>
  <course>256.53</course>
  <speed>0.0</speed>
  <fix>3d</fix>
</trkpt>
<trkpt lat="-27.2744362" lon="151.2900689">
  <ele>342.92</ele>
  <time>2026-09-01T19:51:13Z</time>
  <course>25.78</course>
  <speed>0.02</speed>
  <fix>3d</fix>
</trkpt>
<trkpt lat="-27.274436" lon="151.2900689">
  <ele>343.1</ele>
  <time>2026-09-01T19:51:13Z</time>
  <course>256.53</course>
  <speed>0.0</speed>
  <fix>3d</fix>
</trkpt>
<trkpt lat="-27.2744362" lon="151.2900689">
  <ele>342.92</ele>
  <time>2026-09-01T19:51:13Z</time>
  <course>25.78</course>
  <speed>0.02</speed>
  <fix>3d</fix>
</trkpt>
<trkpt lat="-27.274436" lon="151.2900689">
  <ele>343.1</ele>
  <time>2026-09-01T19:51:13Z</time>
  <course>76.45</course>
  <speed>0.0</speed>
  <fix>3d</fix>
</trkpt>
<trkpt lat="-27.2744362" lon="151.2900689">
  <ele>342.92</ele>
  <time>2026-09-01T19:51:13Z</time>
  <course>25.79</course>
  <speed>0.02</speed>
  <fix>3d</fix>
</trkpt>
<trkpt lat="-27.274436" lon="151.2900689">
  <ele>343.1</ele>
  <time>2026-09-01T19:51:13Z</time>
  <course>76.45</course>
  <speed>0.0</speed>
  <fix>3d</fix>
</trkpt>
<trkpt lat="-27.2744362" lon="151.2900689">
  <ele>342.92</ele>
  <time>2026-09-01T19:51:13Z</time>
  <course>25.8</course>
  <speed>0.02</speed>
  <fix>3d</fix>
</trkpt>
<trkpt lat="-27.274436" lon="151.2900689">
  <ele>343.1</ele>
  <time>2026-09-01T19:51:13Z</time>
  <course>76.55</course>
  <speed>0.0</speed>
  <fix>3d</fix>
</trkpt>
<trkpt lat="-27.2744362" lon="151.2900689">
  <ele>342.92</ele>
  <time>2026-09-01T19:51:13Z</time>
  <course>25.8</course>
  <speed>0.02</speed>
  <fix>3d</fix>
</trkpt>
<trkpt lat="-27.274436" lon="151.2900689">
  <ele>343.1</ele>
  <time>2026-09-01T19:51:13Z</time>
  <course>76.55</course>
  <speed>0.0</speed>
  <fix>3d</fix>
</trkpt>
<trkpt lat="-27.2744362" lon="151.2900689">
  <ele>342.92</ele>
  <time>2026-09-01T19:51:13Z</time>
  <course>25.81</course>
  <speed>0.02</speed>
  <fix>3d</fix>
</trkpt>
<trkpt lat="-27.274436" lon="151.2900689">
  <ele>343.1</ele>
  <time>2026-09-01T19:51:13Z</time>
  <course>256.49</course>
  <speed>0.0</speed>
  <fix>3d</fix>
</trkpt>
<trkpt lat="-27.2744362" lon="151.2900689">
  <ele>342.93</ele>
  <time>2026-09-01T19:51:13Z</time>
  <course>25.82</course>
  <speed>0.02</speed>
  <fix>3d</fix>
</trkpt>
<trkpt lat="-27.274436" lon="151.2900689">
  <ele>343.1</ele>
  <time>2026-09-01T19:51:13Z</time>
  <course>256.49</course>
  <speed>0.0</speed>
  <fix>3d</fix>
</trkpt>
<trkpt lat="-27.2744362" lon="151.2900689">
  <ele>343.09</ele>
  <time>2026-09-01T19:51:13Z</time>
  <course>25.82</course>
  <speed>0.02</speed>
  <fix>3d</fix>
</trkpt>
<trkpt lat="-27.274436" lon="151.2900689">
  <ele>343.1</ele>
  <time>2026-09-01T19:51:13Z</time>
  <course>256.57</course>
  <speed>0.0</speed>
  <fix>3d</fix>
</trkpt>
<trkpt lat="-27.2744362" lon="151.2900689">
  <ele>343.09</ele>
  <time>2026-09-01T19:51:13Z</time>
  <course>25.83</course>
  <speed>0.02</speed>
  <fix>3d</fix>
</trkpt>
<trkpt lat="-27.274436" lon="151.2900689">
  <ele>343.1</ele>
  <time>2026-09-01T19:51:13Z</time>
  <course>256.57</course>
  <speed>0.0</speed>
  <fix>3d</fix>
</trkpt>
<trkpt lat="-27.2744362" lon="151.2900689">
  <ele>343.09</ele>
  <time>2026-09-01T19:51:13Z</time>
  <course>25.84</course>
  <speed>0.02</speed>
  <fix>3d</fix>
</trkpt>
<trkpt lat="-27.274436" lon="151.2900689">
  <ele>343.1</ele>
  <time>2026-09-01T19:51:13Z</time>
  <course>76.5</course>
  <speed>0.0</speed>
  <fix>3d</fix>
</trkpt>
<trkpt lat="-27.2744362" lon="151.2900689">
  <ele>343.09</ele>
  <time>2026-09-01T19:51:13Z</time>
  <course>25.84</course>
  <speed>0.02</speed>
  <fix>3d</fix>
</trkpt>
<trkpt lat="-27.274436" lon="151.2900689">
  <ele>343.1</ele>
  <time>2026-09-01T19:51:13Z</time>
  <course>76.5</course>
  <speed>0.0</speed>
  <fix>3d</fix>
</trkpt>
<trkpt lat="-27.2744362" lon="151.2900689">
  <ele>343.1</ele>
  <time>2026-09-01T19:51:13Z</time>
  <course>25.85</course>
  <speed>0.02</speed>
  <fix>3d</fix>
</trkpt>
<trkpt lat="-27.274436" lon="151.2900689">
  <ele>343.1</ele>
  <time>2026-09-01T19:51:13Z</time>
  <course>76.65</course>
  <speed>0.0</speed>
  <fix>3d</fix>
</trkpt>
<trkpt lat="-27.2744362" lon="151.2900689">
  <ele>343.11</ele>
  <time>2026-09-01T19:51:13Z</time>
  <course>25.86</course>
  <speed>0.02</speed>
  <fix>3d</fix>
</trkpt>
<trkpt lat="-27.274436" lon="151.2900689">
  <ele>343.1</ele>
  <time>2026-09-01T19:51:13Z</time>
  <course>76.65</course>
  <speed>0.0</speed>
  <fix>3d</fix>
</trkpt>
<trkpt lat="-27.2744362" lon="151.2900689">
  <ele>343.11</ele>
  <time>2026-09-01T19:51:13Z</time>
  <course>25.86</course>
  <speed>0.02</speed>
  <fix>3d</fix>
</trkpt>
<trkpt lat="-27.274436" lon="151.2900689">
  <ele>343.1</ele>
  <time>2026-09-01T19:51:13Z</time>
  <course>256.52</course>
  <speed>0.0</speed>
  <fix>3d</fix>
</trkpt>
<trkpt lat="-26.9720619" lon="149.6127921">
  <ele>339.29</ele>
  <time>2026-09-01T19:51:14Z</time>
  <course>310.27</course>
  <speed>0.0</speed>
  <fix>3d</fix>
</trkpt>
<trkpt lat="-26.9720619" lon="149.6127921">
  <ele>339.29</ele>
  <time>2026-09-01T19:51:14Z</time>
  <course>310.27</course>
  <speed>0.0</speed>
  <fix>3d</fix>
</trkpt>
<trkpt lat="-27.274439" lon="151.290064">
  <ele>-0.01</ele>
  <time>2026-09-01T19:51:14Z</time>
  <course>0.22</course>
  <speed>0.0</speed>
  <fix>3d</fix>
</trkpt>
<trkpt lat="-27.274439" lon="151.290064">
  <ele>343.1</ele>
  <time>2026-09-01T19:51:14Z</time>
  <course>294.58</course>
  <speed>0.0</speed>
  <fix>3d</fix>
</trkpt>
<trkpt lat="-27.274439" lon="151.290064">
  <ele>0.02</ele>
  <time>2026-09-01T19:51:14Z</time>
  <course>1.2</course>
  <speed>0.0</speed>
  <fix>3d</fix>
</trkpt>
<trkpt lat="-27.274439" lon="151.290064">
  <ele>343.1</ele>
  <time>2026-09-01T19:51:14Z</time>
  <course>294.58</course>
  <speed>0.0</speed>
  <fix>3d</fix>
</trkpt>
<trkpt lat="-27.274439" lon="151.290064">
  <ele>-0.08</ele>
  <time>2026-09-01T19:51:14Z</time>
  <course>2.1</course>
  <speed>0.0</speed>
  <fix>3d</fix>
</trkpt>
<trkpt lat="-27.274439" lon="151.290064">
  <ele>343.1</ele>
  <time>2026-09-01T19:51:14Z</time>
  <course>273.33</course>
  <speed>0.0</speed>
  <fix>3d</fix>
</trkpt>
<trkpt lat="-27.274439" lon="151.290064">
  <ele>0.22</ele>
  <time>2026-09-01T19:51:14Z</time>
  <course>2.92</course>
  <speed>0.0</speed>
  <fix>3d</fix>
</trkpt>
<trkpt lat="-27.274439" lon="151.290064">
  <ele>343.1</ele>
  <time>2026-09-01T19:51:14Z</time>
  <course>273.33</course>
  <speed>0.0</speed>
  <fix>3d</fix>
</trkpt>
<trkpt lat="-27.274439" lon="151.290064">
  <ele>0.09</ele>
  <time>2026-09-01T19:51:14Z</time>
  <course>3.66</course>
  <speed>0.0</speed>
  <fix>3d</fix>
</trkpt>
<trkpt lat="-27.274439" lon="151.290064">
  <ele>343.1</ele>
  <time>2026-09-01T19:51:14Z</time>
  <course>270.44</course>
  <speed>0.0</speed>
  <fix>3d</fix>
</trkpt>
<trkpt lat="-27.274439" lon="151.290064">
  <ele>0.08</ele>
  <time>2026-09-01T19:51:14Z</time>
  <course>4.34</course>
  <speed>0.0</speed>
  <fix>3d</fix>
</trkpt>
<trkpt lat="-27.274439" lon="151.290064">
  <ele>343.1</ele>
  <time>2026-09-01T19:51:14Z</time>
  <course>270.44</course>
  <speed>0.0</speed>
  <fix>3d</fix>
</trkpt>
<trkpt lat="-27.274439" lon="151.290064">
  <ele>0.09</ele>
  <time>2026-09-01T19:51:14Z</time>
  <course>4.95</course>
  <speed>0.0</speed>
  <fix>3d</fix>
</trkpt>
<trkpt lat="-27.274439" lon="151.290064">
  <ele>343.1</ele>
  <time>2026-09-01T19:51:14Z</time>
  <course>270.05</course>
  <speed>0.0</speed>
  <fix>3d</fix>
</trkpt>
<trkpt lat="-27.274439" lon="151.290064">
  <ele>-0.05</ele>
  <time>2026-09-01T19:51:14Z</time>
  <course>5.5</course>
  <speed>0.0</speed>
  <fix>3d</fix>
</trkpt>
<trkpt lat="-27.274439" lon="151.290064">
  <ele>343.1</ele>
  <time>2026-09-01T19:51:14Z</time>
  <course>270.05</course>
  <speed>0.0</speed>
  <fix>3d</fix>
</trkpt>
<trkpt lat="-27.274439" lon="151.290064">
  <ele>343.06</ele>
  <time>2026-09-01T19:51:14Z</time>
  <course>5.98</course>
  <speed>0.0</speed>
  <fix>3d</fix>
</trkpt>
<trkpt lat="-27.274439" lon="151.290064">
  <ele>343.1</ele>
  <time>2026-09-01T19:51:14Z</time>
  <course>270.0</course>
  <speed>0.0</speed>
  <fix>3d</fix>
</trkpt>
<trkpt lat="-27.274439" lon="151.290064">
  <ele>343.18</ele>
  <time>2026-09-01T19:51:14Z</time>
  <course>6.44</course>
  <speed>0.0</speed>
  <fix>3d</fix>
</trkpt>
<trkpt lat="-27.274439" lon="151.290064">
  <ele>343.1</ele>
  <time>2026-09-01T19:51:14Z</time>
  <course>270.0</course>
  <speed>0.0</speed>
  <fix>3d</fix>
</trkpt>
<trkpt lat="-27.274439" lon="151.290064">
  <ele>342.91</ele>
  <time>2026-09-01T19:51:14Z</time>
  <course>6.85</course>
  <speed>0.0</speed>
  <fix>3d</fix>
</trkpt>
<trkpt lat="-27.274439" lon="151.290064">
  <ele>343.1</ele>
  <time>2026-09-01T19:51:14Z</time>
  <course>270.0</course>
  <speed>0.0</speed>
  <fix>3d</fix>
</trkpt>
<trkpt lat="-27.274439" lon="151.290064">
  <ele>343.06</ele>
  <time>2026-09-01T19:51:14Z</time>
  <course>7.22</course>
  <speed>0.0</speed>
  <fix>3d</fix>
</trkpt>
<trkpt lat="-27.274439" lon="151.290064">
  <ele>343.1</ele>
  <time>2026-09-01T19:51:14Z</time>
  <course>270.0</course>
  <speed>0.0</speed>
  <fix>3d</fix>
</trkpt>
<trkpt lat="-27.274439" lon="151.290064">
  <ele>343.13</ele>
  <time>2026-09-01T19:51:14Z</time>
  <course>7.56</course>
  <speed>0.0</speed>
  <fix>3d</fix>
</trkpt>
<trkpt lat="-27.274439" lon="151.290064">
  <ele>343.1</ele>
  <time>2026-09-01T19:51:14Z</time>
  <course>270.0</course>
  <speed>0.0</speed>
  <fix>3d</fix>
</trkpt>
<trkpt lat="-27.274439" lon="151.290064">
  <ele>343.04</ele>
  <time>2026-09-01T19:51:14Z</time>
  <course>7.87</course>
  <speed>0.0</speed>
  <fix>3d</fix>
</trkpt>
<trkpt lat="-27.274439" lon="151.290064">
  <ele>343.1</ele>
  <time>2026-09-01T19:51:14Z</time>
  <course>270.0</course>
  <speed>0.0</speed>
  <fix>3d</fix>
</trkpt>
<trkpt lat="-27.274439" lon="151.290064">
  <ele>342.88</ele>
  <time>2026-09-01T19:51:14Z</time>
  <course>8.14</course>
  <speed>0.0</speed>
  <fix>3d</fix>
</trkpt>
<trkpt lat="-27.274439" lon="151.290064">
  <ele>343.1</ele>
  <time>2026-09-01T19:51:14Z</time>
  <course>270.0</course>
  <speed>0.0</speed>
  <fix>3d</fix>
</trkpt>
<trkpt lat="-27.274439" lon="151.290064">
  <ele>343.02</ele>
  <time>2026-09-01T19:51:14Z</time>
  <course>8.39</course>
  <speed>0.0</speed>
  <fix>3d</fix>
</trkpt>
<trkpt lat="-27.274439" lon="151.290064">
  <ele>343.1</ele>
  <time>2026-09-01T19:51:14Z</time>
  <course>270.0</course>
  <speed>0.0</speed>
  <fix>3d</fix>
</trkpt>
<trkpt lat="-27.274439" lon="151.290064">
  <ele>343.23</ele>
  <time>2026-09-01T19:51:14Z</time>
  <course>8.63</course>
  <speed>0.0</speed>
  <fix>3d</fix>
</trkpt>
<trkpt lat="-27.274439" lon="151.290064">
  <ele>343.1</ele>
  <time>2026-09-01T19:51:14Z</time>
  <course>270.0</course>
  <speed>0.0</speed>
  <fix>3d</fix>
</trkpt>
<trkpt lat="-27.274439" lon="151.290064">
  <ele>343.17</ele>
  <time>2026-09-01T19:51:14Z</time>
  <course>8.83</course>
  <speed>0.0</speed>
  <fix>3d</fix>
</trkpt>
<trkpt lat="-27.274439" lon="151.290064">
  <ele>343.1</ele>
  <time>2026-09-01T19:51:14Z</time>
  <course>270.0</course>
  <speed>0.0</speed>
  <fix>3d</fix>
</trkpt>
<trkpt lat="-27.274439" lon="151.290064">
  <ele>343.04</ele>
  <time>2026-09-01T19:51:14Z</time>
  <course>9.01</course>
  <speed>0.0</speed>
  <fix>3d</fix>
</trkpt>
<trkpt lat="-27.274439" lon="151.290064">
  <ele>343.1</ele>
  <time>2026-09-01T19:51:14Z</time>
  <course>270.0</course>
  <speed>0.0</speed>
  <fix>3d</fix>
</trkpt>
<trkpt lat="-27.274439" lon="151.290064">
  <ele>342.89</ele>
  <time>2026-09-01T19:51:14Z</time>
  <course>9.18</course>
  <speed>0.0</speed>
  <fix>3d</fix>
</trkpt>
<trkpt lat="-27.274439" lon="151.290064">
  <ele>343.1</ele>
  <time>2026-09-01T19:51:14Z</time>
  <course>270.0</course>
  <speed>0.0</speed>
  <fix>3d</fix>
</trkpt>
<trkpt lat="-27.274439" lon="151.290064">
  <ele>343.08</ele>
  <time>2026-09-01T19:51:14Z</time>
  <course>9.33</course>
  <speed>0.0</speed>
  <fix>3d</fix>
</trkpt>
<trkpt lat="-27.274439" lon="151.290064">
  <ele>343.1</ele>
  <time>2026-09-01T19:51:14Z</time>
  <course>270.0</course>
  <speed>0.0</speed>
  <fix>3d</fix>
</trkpt>
<trkpt lat="-27.274439" lon="151.290064">
  <ele>343.19</ele>
  <time>2026-09-01T19:51:14Z</time>
  <course>9.47</course>
  <speed>0.0</speed>
  <fix>3d</fix>
</trkpt>
<trkpt lat="-27.274439" lon="151.290064">
  <ele>343.1</ele>
  <time>2026-09-01T19:51:14Z</time>
  <course>270.0</course>
  <speed>0.0</speed>
  <fix>3d</fix>
</trkpt>
<trkpt lat="-27.274439" lon="151.290064">
  <ele>342.88</ele>
  <time>2026-09-01T19:51:14Z</time>
  <course>9.59</course>
  <speed>0.0</speed>
  <fix>3d</fix>
</trkpt>
<trkpt lat="-27.274439" lon="151.290064">
  <ele>343.1</ele>
  <time>2026-09-01T19:51:14Z</time>
  <course>270.0</course>
  <speed>0.0</speed>
  <fix>3d</fix>
</trkpt>
<trkpt lat="-27.274439" lon="151.290064">
  <ele>343.17</ele>
  <time>2026-09-01T19:51:14Z</time>
  <course>9.7</course>
  <speed>0.0</speed>
  <fix>3d</fix>
</trkpt>
<trkpt lat="-27.274439" lon="151.290064">
  <ele>343.1</ele>
  <time>2026-09-01T19:51:14Z</time>
  <course>270.0</course>
  <speed>0.0</speed>
  <fix>3d</fix>
</trkpt>
<trkpt lat="-27.274439" lon="151.290064">
  <ele>342.89</ele>
  <time>2026-09-01T19:51:14Z</time>
  <course>9.8</course>
  <speed>0.0</speed>
  <fix>3d</fix>
</trkpt>
<trkpt lat="-27.274439" lon="151.290064">
  <ele>343.1</ele>
  <time>2026-09-01T19:51:14Z</time>
  <course>270.0</course>
  <speed>0.0</speed>
  <fix>3d</fix>
</trkpt>
<trkpt lat="-27.274439" lon="151.290064">
  <ele>342.99</ele>
  <time>2026-09-01T19:51:14Z</time>
  <course>9.9</course>
  <speed>0.0</speed>
  <fix>3d</fix>
</trkpt>
<trkpt lat="-27.274439" lon="151.290064">
  <ele>343.1</ele>
  <time>2026-09-01T19:51:14Z</time>
  <course>270.0</course>
  <speed>0.0</speed>
  <fix>3d</fix>
</trkpt>
<trkpt lat="-27.274439" lon="151.290064">
  <ele>342.87</ele>
  <time>2026-09-01T19:51:14Z</time>
  <course>9.98</course>
  <speed>0.0</speed>
  <fix>3d</fix>
</trkpt>
<trkpt lat="-27.274439" lon="151.290064">
  <ele>343.1</ele>
  <time>2026-09-01T19:51:14Z</time>
  <course>270.0</course>
  <speed>0.0</speed>
  <fix>3d</fix>
</trkpt>
<trkpt lat="-27.274439" lon="151.290064">
  <ele>343.09</ele>
  <time>2026-09-01T19:51:14Z</time>
  <course>10.06</course>
  <speed>0.0</speed>
  <fix>3d</fix>
</trkpt>
<trkpt lat="-27.274439" lon="151.290064">
  <ele>343.1</ele>
  <time>2026-09-01T19:51:14Z</time>
  <course>270.0</course>
  <speed>0.0</speed>
  <fix>3d</fix>
</trkpt>
<trkpt lat="-27.274439" lon="151.290064">
  <ele>343.18</ele>
  <time>2026-09-01T19:51:14Z</time>
  <course>10.13</course>
  <speed>0.0</speed>
  <fix>3d</fix>
</trkpt>
<trkpt lat="-27.274439" lon="151.290064">
  <ele>343.1</ele>
  <time>2026-09-01T19:51:14Z</time>
  <course>270.0</course>
  <speed>0.0</speed>
  <fix>3d</fix>
</trkpt>
<trkpt lat="-27.274439" lon="151.290064">
  <ele>343.05</ele>
  <time>2026-09-01T19:51:14Z</time>
  <course>10.2</course>
  <speed>0.0</speed>
  <fix>3d</fix>
</trkpt>
<trkpt lat="-27.274439" lon="151.290064">
  <ele>343.1</ele>
  <time>2026-09-01T19:51:14Z</time>
  <course>270.0</course>
  <speed>0.0</speed>
  <fix>3d</fix>
</trkpt>
<trkpt lat="-27.274439" lon="151.290064">
  <ele>342.96</ele>
  <time>2026-09-01T19:51:14Z</time>
  <course>10.25</course>
  <speed>0.0</speed>
  <fix>3d</fix>
</trkpt>
<trkpt lat="-27.274439" lon="151.290064">
  <ele>343.1</ele>
  <time>2026-09-01T19:51:14Z</time>
  <course>270.0</course>
  <speed>0.0</speed>
  <fix>3d</fix>
</trkpt>
<trkpt lat="-27.274439" lon="151.290064">
  <ele>343.1</ele>
  <time>2026-09-01T19:51:14Z</time>
  <course>10.31</course>
  <speed>0.0</speed>
  <fix>3d</fix>
</trkpt>
<trkpt lat="-27.274439" lon="151.290064">
  <ele>343.1</ele>
  <time>2026-09-01T19:51:14Z</time>
  <course>270.0</course>
  <speed>0.0</speed>
  <fix>3d</fix>
</trkpt>
<trkpt lat="-27.274439" lon="151.290064">
  <ele>343.22</ele>
  <time>2026-09-01T19:51:14Z</time>
  <course>10.35</course>
  <speed>0.0</speed>
  <fix>3d</fix>
</trkpt>
<trkpt lat="-27.274439" lon="151.290064">
  <ele>343.1</ele>
  <time>2026-09-01T19:51:14Z</time>
  <course>270.0</course>
  <speed>0.0</speed>
  <fix>3d</fix>
</trkpt>
<trkpt lat="-27.274439" lon="151.290064">
  <ele>343.17</ele>
  <time>2026-09-01T19:51:14Z</time>
  <course>10.4</course>
  <speed>0.0</speed>
  <fix>3d</fix>
</trkpt>
<trkpt lat="-27.274439" lon="151.290064">
  <ele>343.1</ele>
  <time>2026-09-01T19:51:14Z</time>
  <course>270.0</course>
  <speed>0.0</speed>
  <fix>3d</fix>
</trkpt>
<trkpt lat="-27.274439" lon="151.290064">
  <ele>343.08</ele>
  <time>2026-09-01T19:51:14Z</time>
  <course>10.44</course>
  <speed>0.0</speed>
  <fix>3d</fix>
</trkpt>
<trkpt lat="-27.274439" lon="151.290064">
  <ele>343.1</ele>
  <time>2026-09-01T19:51:14Z</time>
  <course>270.0</course>
  <speed>0.0</speed>
  <fix>3d</fix>
</trkpt>
<trkpt lat="-27.274439" lon="151.290064">
  <ele>343.04</ele>
  <time>2026-09-01T19:51:14Z</time>
  <course>10.47</course>
  <speed>0.0</speed>
  <fix>3d</fix>
</trkpt>
<trkpt lat="-27.274439" lon="151.290064">
  <ele>343.1</ele>
  <time>2026-09-01T19:51:14Z</time>
  <course>270.0</course>
  <speed>0.0</speed>
  <fix>3d</fix>
</trkpt>
<trkpt lat="-27.274439" lon="151.290064">
  <ele>343.18</ele>
  <time>2026-09-01T19:51:14Z</time>
  <course>10.5</course>
  <speed>0.0</speed>
  <fix>3d</fix>
</trkpt>
<trkpt lat="-27.274439" lon="151.290064">
  <ele>343.1</ele>
  <time>2026-09-01T19:51:14Z</time>
  <course>270.0</course>
  <speed>0.0</speed>
  <fix>3d</fix>
</trkpt>
<trkpt lat="-27.274439" lon="151.290064">
  <ele>343.12</ele>
  <time>2026-09-01T19:51:14Z</time>
  <course>10.53</course>
  <speed>0.0</speed>
  <fix>3d</fix>
</trkpt>
<trkpt lat="-27.274439" lon="151.290064">
  <ele>343.1</ele>
  <time>2026-09-01T19:51:14Z</time>
  <course>270.0</course>
  <speed>0.0</speed>
  <fix>3d</fix>
</trkpt>
<trkpt lat="-27.274439" lon="151.290064">
  <ele>343.04</ele>
  <time>2026-09-01T19:51:14Z</time>
  <course>10.56</course>
  <speed>0.0</speed>
  <fix>3d</fix>
</trkpt>
<trkpt lat="-27.274439" lon="151.290064">
  <ele>343.1</ele>
  <time>2026-09-01T19:51:14Z</time>
  <course>270.0</course>
  <speed>0.0</speed>
  <fix>3d</fix>
</trkpt>
<trkpt lat="-27.274439" lon="151.290064">
  <ele>343.07</ele>
  <time>2026-09-01T19:51:14Z</time>
  <course>10.58</course>
  <speed>0.0</speed>
  <fix>3d</fix>
</trkpt>
<trkpt lat="-27.274439" lon="151.290064">
  <ele>343.1</ele>
  <time>2026-09-01T19:51:14Z</time>
  <course>270.0</course>
  <speed>0.0</speed>
  <fix>3d</fix>
</trkpt>
<trkpt lat="-27.274439" lon="151.290064">
  <ele>343.04</ele>
  <time>2026-09-01T19:51:14Z</time>
  <course>10.6</course>
  <speed>0.0</speed>
  <fix>3d</fix>
</trkpt>
<trkpt lat="-27.274439" lon="151.290064">
  <ele>343.1</ele>
  <time>2026-09-01T19:51:14Z</time>
  <course>270.0</course>
  <speed>0.0</speed>
  <fix>3d</fix>
</trkpt>
<trkpt lat="-27.274439" lon="151.290064">
  <ele>343.01</ele>
  <time>2026-09-01T19:51:14Z</time>
  <course>10.62</course>
  <speed>0.0</speed>
  <fix>3d</fix>
</trkpt>
<trkpt lat="-27.274439" lon="151.290064">
  <ele>343.1</ele>
  <time>2026-09-01T19:51:14Z</time>
  <course>270.0</course>
  <speed>0.0</speed>
  <fix>3d</fix>
</trkpt>
<trkpt lat="-27.274439" lon="151.290064">
  <ele>343.2</ele>
  <time>2026-09-01T19:51:14Z</time>
  <course>10.64</course>
  <speed>0.0</speed>
  <fix>3d</fix>
</trkpt>
<trkpt lat="-27.274439" lon="151.290064">
  <ele>343.1</ele>
  <time>2026-09-01T19:51:14Z</time>
  <course>270.0</course>
  <speed>0.0</speed>
  <fix>3d</fix>
</trkpt>
<trkpt lat="-27.274439" lon="151.290064">
  <ele>343.24</ele>
  <time>2026-09-01T19:51:14Z</time>
  <course>10.65</course>
  <speed>0.0</speed>
  <fix>3d</fix>
</trkpt>
<trkpt lat="-27.274439" lon="151.290064">
  <ele>343.1</ele>
  <time>2026-09-01T19:51:14Z</time>
  <course>270.0</course>
  <speed>0.0</speed>
  <fix>3d</fix>
</trkpt>
<trkpt lat="-27.274439" lon="151.290064">
  <ele>342.88</ele>
  <time>2026-09-01T19:51:14Z</time>
  <course>10.67</course>
  <speed>0.0</speed>
  <fix>3d</fix>
</trkpt>
<trkpt lat="-27.274439" lon="151.290064">
  <ele>343.1</ele>
  <time>2026-09-01T19:51:14Z</time>
  <course>270.0</course>
  <speed>0.0</speed>
  <fix>3d</fix>
</trkpt>
<trkpt lat="-27.274439" lon="151.290064">
  <ele>343.21</ele>
  <time>2026-09-01T19:51:14Z</time>
  <course>10.68</course>
  <speed>0.0</speed>
  <fix>3d</fix>
</trkpt>
<trkpt lat="-27.274439" lon="151.290064">
  <ele>343.1</ele>
  <time>2026-09-01T19:51:14Z</time>
  <course>270.0</course>
  <speed>0.0</speed>
  <fix>3d</fix>
</trkpt>
<trkpt lat="-27.274439" lon="151.290064">
  <ele>343.02</ele>
  <time>2026-09-01T19:51:14Z</time>
  <course>10.69</course>
  <speed>0.0</speed>
  <fix>3d</fix>
</trkpt>
<trkpt lat="-27.274439" lon="151.290064">
  <ele>343.1</ele>
  <time>2026-09-01T19:51:14Z</time>
  <course>270.0</course>
  <speed>0.0</speed>
  <fix>3d</fix>
</trkpt>
<trkpt lat="-27.274439" lon="151.290064">
  <ele>342.93</ele>
  <time>2026-09-01T19:51:14Z</time>
  <course>10.7</course>
  <speed>0.0</speed>
  <fix>3d</fix>
</trkpt>
<trkpt lat="-27.274439" lon="151.290064">
  <ele>343.1</ele>
  <time>2026-09-01T19:51:14Z</time>
  <course>270.0</course>
  <speed>0.0</speed>
  <fix>3d</fix>
</trkpt>
<trkpt lat="-27.274439" lon="151.290064">
  <ele>343.07</ele>
  <time>2026-09-01T19:51:14Z</time>
  <course>10.71</course>
  <speed>0.0</speed>
  <fix>3d</fix>
</trkpt>
<trkpt lat="-27.274439" lon="151.290064">
  <ele>343.1</ele>
  <time>2026-09-01T19:51:14Z</time>
  <course>270.0</course>
  <speed>0.0</speed>
  <fix>3d</fix>
</trkpt>
<trkpt lat="-27.274439" lon="151.290064">
  <ele>342.94</ele>
  <time>2026-09-01T19:51:14Z</time>
  <course>10.72</course>
  <speed>0.0</speed>
  <fix>3d</fix>
</trkpt>
<trkpt lat="-27.274439" lon="151.290064">
  <ele>343.1</ele>
  <time>2026-09-01T19:51:14Z</time>
  <course>270.0</course>
  <speed>0.0</speed>
  <fix>3d</fix>
</trkpt>
<trkpt lat="-27.274439" lon="151.290064">
  <ele>343.11</ele>
  <time>2026-09-01T19:51:14Z</time>
  <course>10.73</course>
  <speed>0.0</speed>
  <fix>3d</fix>
</trkpt>
<trkpt lat="-27.274439" lon="151.290064">
  <ele>343.1</ele>
  <time>2026-09-01T19:51:14Z</time>
  <course>270.0</course>
  <speed>0.0</speed>
  <fix>3d</fix>
</trkpt>
<trkpt lat="-27.274439" lon="151.290064">
  <ele>343.24</ele>
  <time>2026-09-01T19:51:14Z</time>
  <course>10.73</course>
  <speed>0.0</speed>
  <fix>3d</fix>
</trkpt>
<trkpt lat="-27.274439" lon="151.290064">
  <ele>343.1</ele>
  <time>2026-09-01T19:51:14Z</time>
  <course>270.0</course>
  <speed>0.0</speed>
  <fix>3d</fix>
</trkpt>
<trkpt lat="-27.274439" lon="151.290064">
  <ele>343.18</ele>
  <time>2026-09-01T19:51:14Z</time>
  <course>10.74</course>
  <speed>0.0</speed>
  <fix>3d</fix>
</trkpt>
<trkpt lat="-27.274439" lon="151.290064">
  <ele>343.1</ele>
  <time>2026-09-01T19:51:14Z</time>
  <course>270.0</course>
  <speed>0.0</speed>
  <fix>3d</fix>
</trkpt>
<trkpt lat="-27.274439" lon="151.290064">
  <ele>342.89</ele>
  <time>2026-09-01T19:51:14Z</time>
  <course>10.75</course>
  <speed>0.0</speed>
  <fix>3d</fix>
</trkpt>
<trkpt lat="-27.274439" lon="151.290064">
  <ele>343.1</ele>
  <time>2026-09-01T19:51:14Z</time>
  <course>270.0</course>
  <speed>0.0</speed>
  <fix>3d</fix>
</trkpt>
<trkpt lat="-27.274439" lon="151.290064">
  <ele>343.23</ele>
  <time>2026-09-01T19:51:14Z</time>
  <course>10.75</course>
  <speed>0.0</speed>
  <fix>3d</fix>
</trkpt>
<trkpt lat="-27.274439" lon="151.290064">
  <ele>343.1</ele>
  <time>2026-09-01T19:51:14Z</time>
  <course>270.0</course>
  <speed>0.0</speed>
  <fix>3d</fix>
</trkpt>
<trkpt lat="-27.274439" lon="151.290064">
  <ele>343.23</ele>
  <time>2026-09-01T19:51:14Z</time>
  <course>10.76</course>
  <speed>0.0</speed>
  <fix>3d</fix>
</trkpt>
<trkpt lat="-27.274439" lon="151.290064">
  <ele>343.1</ele>
  <time>2026-09-01T19:51:14Z</time>
  <course>270.0</course>
  <speed>0.0</speed>
  <fix>3d</fix>
</trkpt>
<trkpt lat="-27.274439" lon="151.290064">
  <ele>342.99</ele>
  <time>2026-09-01T19:51:14Z</time>
  <course>10.76</course>
  <speed>0.0</speed>
  <fix>3d</fix>
</trkpt>
<trkpt lat="-27.274439" lon="151.290064">
  <ele>343.1</ele>
  <time>2026-09-01T19:51:14Z</time>
  <course>270.0</course>
  <speed>0.0</speed>
  <fix>3d</fix>
</trkpt>
<trkpt lat="-27.274439" lon="151.290064">
  <ele>343.13</ele>
  <time>2026-09-01T19:51:14Z</time>
  <course>10.76</course>
  <speed>0.0</speed>
  <fix>3d</fix>
</trkpt>
<trkpt lat="-27.274439" lon="151.290064">
  <ele>343.1</ele>
  <time>2026-09-01T19:51:14Z</time>
  <course>270.0</course>
  <speed>0.0</speed>
  <fix>3d</fix>
</trkpt>
<trkpt lat="-27.274439" lon="151.290064">
  <ele>343.07</ele>
  <time>2026-09-01T19:51:14Z</time>
  <course>10.77</course>
  <speed>0.0</speed>
  <fix>3d</fix>
</trkpt>
<trkpt lat="-27.274439" lon="151.290064">
  <ele>343.1</ele>
  <time>2026-09-01T19:51:14Z</time>
  <course>270.0</course>
  <speed>0.0</speed>
  <fix>3d</fix>
</trkpt>
<trkpt lat="-27.274439" lon="151.290064">
  <ele>343.19</ele>
  <time>2026-09-01T19:51:14Z</time>
  <course>10.77</course>
  <speed>0.0</speed>
  <fix>3d</fix>
</trkpt>
<trkpt lat="-27.274439" lon="151.290064">
  <ele>343.1</ele>
  <time>2026-09-01T19:51:14Z</time>
  <course>270.0</course>
  <speed>0.0</speed>
  <fix>3d</fix>
</trkpt>
<trkpt lat="-27.274439" lon="151.290064">
  <ele>342.93</ele>
  <time>2026-09-01T19:51:14Z</time>
  <course>10.77</course>
  <speed>0.0</speed>
  <fix>3d</fix>
</trkpt>
<trkpt lat="-27.274439" lon="151.290064">
  <ele>343.1</ele>
  <time>2026-09-01T19:51:14Z</time>
  <course>270.0</course>
  <speed>0.0</speed>
  <fix>3d</fix>
</trkpt>
<trkpt lat="-27.274439" lon="151.290064">
  <ele>343.19</ele>
  <time>2026-09-01T19:51:14Z</time>
  <course>10.78</course>
  <speed>0.0</speed>
  <fix>3d</fix>
</trkpt>
<trkpt lat="-27.274439" lon="151.290064">
  <ele>343.1</ele>
  <time>2026-09-01T19:51:14Z</time>
  <course>270.0</course>
  <speed>0.0</speed>
  <fix>3d</fix>
</trkpt>
<trkpt lat="-27.274439" lon="151.290064">
  <ele>343.1</ele>
  <time>2026-09-01T19:51:14Z</time>
  <course>10.78</course>
  <speed>0.0</speed>
  <fix>3d</fix>
</trkpt>
<trkpt lat="-27.274439" lon="151.290064">
  <ele>343.1</ele>
  <time>2026-09-01T19:51:14Z</time>
  <course>270.0</course>
  <speed>0.0</speed>
  <fix>3d</fix>
</trkpt>
<trkpt lat="-27.274439" lon="151.290064">
  <ele>343.01</ele>
  <time>2026-09-01T19:51:14Z</time>
  <course>10.78</course>
  <speed>0.0</speed>
  <fix>3d</fix>
</trkpt>
<trkpt lat="-27.274439" lon="151.290064">
  <ele>343.1</ele>
  <time>2026-09-01T19:51:14Z</time>
  <course>270.0</course>
  <speed>0.0</speed>
  <fix>3d</fix>
</trkpt>
<trkpt lat="-27.274439" lon="151.290064">
  <ele>343.11</ele>
  <time>2026-09-01T19:51:14Z</time>
  <course>10.78</course>
  <speed>0.0</speed>
  <fix>3d</fix>
</trkpt>
<trkpt lat="-27.274439" lon="151.290064">
  <ele>343.1</ele>
  <time>2026-09-01T19:51:14Z</time>
  <course>270.0</course>
  <speed>0.0</speed>
  <fix>3d</fix>
</trkpt>
<trkpt lat="-27.274439" lon="151.290064">
  <ele>342.96</ele>
  <time>2026-09-01T19:51:14Z</time>
  <course>10.78</course>
  <speed>0.0</speed>
  <fix>3d</fix>
</trkpt>
<trkpt lat="-27.274439" lon="151.290064">
  <ele>343.1</ele>
  <time>2026-09-01T19:51:14Z</time>
  <course>270.0</course>
  <speed>0.0</speed>
  <fix>3d</fix>
</trkpt>
<trkpt lat="-27.274439" lon="151.290064">
  <ele>343.19</ele>
  <time>2026-09-01T19:51:14Z</time>
  <course>10.79</course>
  <speed>0.0</speed>
  <fix>3d</fix>
</trkpt>
<trkpt lat="-27.274439" lon="151.290064">
  <ele>343.1</ele>
  <time>2026-09-01T19:51:14Z</time>
  <course>270.0</course>
  <speed>0.0</speed>
  <fix>3d</fix>
</trkpt>
<trkpt lat="-27.274439" lon="151.290064">
  <ele>343.0</ele>
  <time>2026-09-01T19:51:14Z</time>
  <course>10.79</course>
  <speed>0.0</speed>
  <fix>3d</fix>
</trkpt>
<trkpt lat="-27.274439" lon="151.290064">
  <ele>343.1</ele>
  <time>2026-09-01T19:51:14Z</time>
  <course>270.0</course>
  <speed>0.0</speed>
  <fix>3d</fix>
</trkpt>
<trkpt lat="-27.274439" lon="151.290064">
  <ele>343.2</ele>
  <time>2026-09-01T19:51:14Z</time>
  <course>10.79</course>
  <speed>0.0</speed>
  <fix>3d</fix>
</trkpt>
<trkpt lat="-27.274439" lon="151.290064">
  <ele>343.1</ele>
  <time>2026-09-01T19:51:14Z</time>
  <course>270.0</course>
  <speed>0.0</speed>
  <fix>3d</fix>
</trkpt>
<trkpt lat="-27.274439" lon="151.290064">
  <ele>343.2</ele>
  <time>2026-09-01T19:51:14Z</time>
  <course>10.79</course>
  <speed>0.0</speed>
  <fix>3d</fix>
</trkpt>
<trkpt lat="-27.274439" lon="151.290064">
  <ele>343.1</ele>
  <time>2026-09-01T19:51:14Z</time>
  <course>270.0</course>
  <speed>0.0</speed>
  <fix>3d</fix>
</trkpt>
<trkpt lat="-27.274439" lon="151.290064">
  <ele>343.13</ele>
  <time>2026-09-01T19:51:14Z</time>
  <course>10.79</course>
  <speed>0.0</speed>
  <fix>3d</fix>
</trkpt>
<trkpt lat="-27.274439" lon="151.290064">
  <ele>343.1</ele>
  <time>2026-09-01T19:51:14Z</time>
  <course>270.0</course>
  <speed>0.0</speed>
  <fix>3d</fix>
</trkpt>
<trkpt lat="-27.274439" lon="151.290064">
  <ele>343.1</ele>
  <time>2026-09-01T19:51:14Z</time>
  <course>10.79</course>
  <speed>0.0</speed>
  <fix>3d</fix>
</trkpt>
<trkpt lat="-27.274439" lon="151.290064">
  <ele>343.1</ele>
  <time>2026-09-01T19:51:14Z</time>
  <course>270.0</course>
  <speed>0.0</speed>
  <fix>3d</fix>
</trkpt>
<trkpt lat="-27.274439" lon="151.290064">
  <ele>343.12</ele>
  <time>2026-09-01T19:51:14Z</time>
  <course>10.79</course>
  <speed>0.0</speed>
  <fix>3d</fix>
</trkpt>
<trkpt lat="-27.274439" lon="151.290064">
  <ele>343.1</ele>
  <time>2026-09-01T19:51:14Z</time>
  <course>270.0</course>
  <speed>0.0</speed>
  <fix>3d</fix>
</trkpt>
<trkpt lat="-27.274439" lon="151.290064">
  <ele>342.94</ele>
  <time>2026-09-01T19:51:14Z</time>
  <course>10.79</course>
  <speed>0.0</speed>
  <fix>3d</fix>
</trkpt>
<trkpt lat="-27.274439" lon="151.290064">
  <ele>343.1</ele>
  <time>2026-09-01T19:51:14Z</time>
  <course>270.0</course>
  <speed>0.0</speed>
  <fix>3d</fix>
</trkpt>
<trkpt lat="-27.274439" lon="151.290064">
  <ele>343.25</ele>
  <time>2026-09-01T19:51:14Z</time>
  <course>10.79</course>
  <speed>0.0</speed>
  <fix>3d</fix>
</trkpt>
<trkpt lat="-27.274439" lon="151.290064">
  <ele>343.1</ele>
  <time>2026-09-01T19:51:14Z</time>
  <course>270.0</course>
  <speed>0.0</speed>
  <fix>3d</fix>
</trkpt>
<trkpt lat="-27.274439" lon="151.290064">
  <ele>342.93</ele>
  <time>2026-09-01T19:51:14Z</time>
  <course>10.79</course>
  <speed>0.0</speed>
  <fix>3d</fix>
</trkpt>
<trkpt lat="-27.274439" lon="151.290064">
  <ele>343.1</ele>
  <time>2026-09-01T19:51:14Z</time>
  <course>270.0</course>
  <speed>0.0</speed>
  <fix>3d</fix>
</trkpt>
<trkpt lat="-27.274439" lon="151.290064">
  <ele>343.08</ele>
  <time>2026-09-01T19:51:14Z</time>
  <course>10.79</course>
  <speed>0.0</speed>
  <fix>3d</fix>
</trkpt>
<trkpt lat="-27.274439" lon="151.290064">
  <ele>343.1</ele>
  <time>2026-09-01T19:51:14Z</time>
  <course>270.0</course>
  <speed>0.0</speed>
  <fix>3d</fix>
</trkpt>
<trkpt lat="-27.274439" lon="151.290064">
  <ele>343.23</ele>
  <time>2026-09-01T19:51:14Z</time>
  <course>10.8</course>
  <speed>0.0</speed>
  <fix>3d</fix>
</trkpt>
<trkpt lat="-27.274439" lon="151.290064">
  <ele>343.1</ele>
  <time>2026-09-01T19:51:14Z</time>
  <course>270.0</course>
  <speed>0.0</speed>
  <fix>3d</fix>
</trkpt>
<trkpt lat="-27.274439" lon="151.290064">
  <ele>343.01</ele>
  <time>2026-09-01T19:51:14Z</time>
  <course>10.8</course>
  <speed>0.0</speed>
  <fix>3d</fix>
</trkpt>
<trkpt lat="-27.274439" lon="151.290064">
  <ele>343.1</ele>
  <time>2026-09-01T19:51:14Z</time>
  <course>270.0</course>
  <speed>0.0</speed>
  <fix>3d</fix>
</trkpt>
<trkpt lat="-27.274439" lon="151.290064">
  <ele>343.1</ele>
  <time>2026-09-01T19:51:14Z</time>
  <course>10.8</course>
  <speed>0.0</speed>
  <fix>3d</fix>
</trkpt>
<trkpt lat="-27.274439" lon="151.290064">
  <ele>343.1</ele>
  <time>2026-09-01T19:51:14Z</time>
  <course>270.0</course>
  <speed>0.0</speed>
  <fix>3d</fix>
</trkpt>
<trkpt lat="-27.274439" lon="151.290064">
  <ele>342.99</ele>
  <time>2026-09-01T19:51:14Z</time>
  <course>10.8</course>
  <speed>0.0</speed>
  <fix>3d</fix>
</trkpt>
<trkpt lat="-27.274439" lon="151.290064">
  <ele>343.1</ele>
  <time>2026-09-01T19:51:14Z</time>
  <course>270.0</course>
  <speed>0.0</speed>
  <fix>3d</fix>
</trkpt>
<trkpt lat="-27.274439" lon="151.290064">
  <ele>342.87</ele>
  <time>2026-09-01T19:51:14Z</time>
  <course>10.8</course>
  <speed>0.0</speed>
  <fix>3d</fix>
</trkpt>
<trkpt lat="-27.274439" lon="151.290064">
  <ele>343.1</ele>
  <time>2026-09-01T19:51:14Z</time>
  <course>270.0</course>
  <speed>0.0</speed>
  <fix>3d</fix>
</trkpt>
<trkpt lat="-27.274439" lon="151.290064">
  <ele>343.1</ele>
  <time>2026-09-01T19:51:14Z</time>
  <course>10.8</course>
  <speed>0.0</speed>
  <fix>3d</fix>
</trkpt>
<trkpt lat="-27.274439" lon="151.290064">
  <ele>343.1</ele>
  <time>2026-09-01T19:51:14Z</time>
  <course>270.0</course>
  <speed>0.0</speed>
  <fix>3d</fix>
</trkpt>
<trkpt lat="-27.274439" lon="151.290064">
  <ele>342.99</ele>
  <time>2026-09-01T19:51:14Z</time>
  <course>10.8</course>
  <speed>0.0</speed>
  <fix>3d</fix>
</trkpt>
<trkpt lat="-27.274439" lon="151.290064">
  <ele>343.1</ele>
  <time>2026-09-01T19:51:14Z</time>
  <course>270.0</course>
  <speed>0.0</speed>
  <fix>3d</fix>
</trkpt>
<trkpt lat="-27.274439" lon="151.290064">
  <ele>342.91</ele>
  <time>2026-09-01T19:51:14Z</time>
  <course>10.8</course>
  <speed>0.0</speed>
  <fix>3d</fix>
</trkpt>
<trkpt lat="-27.274439" lon="151.290064">
  <ele>343.1</ele>
  <time>2026-09-01T19:51:14Z</time>
  <course>270.0</course>
  <speed>0.0</speed>
  <fix>3d</fix>
</trkpt>
<trkpt lat="-27.274439" lon="151.290064">
  <ele>342.9</ele>
  <time>2026-09-01T19:51:14Z</time>
  <course>10.8</course>
  <speed>0.0</speed>
  <fix>3d</fix>
</trkpt>
<trkpt lat="-27.274439" lon="151.290064">
  <ele>343.1</ele>
  <time>2026-09-01T19:51:14Z</time>
  <course>270.0</course>
  <speed>0.0</speed>
  <fix>3d</fix>
</trkpt>
<trkpt lat="-27.274439" lon="151.290064">
  <ele>342.87</ele>
  <time>2026-09-01T19:51:14Z</time>
  <course>10.8</course>
  <speed>0.0</speed>
  <fix>3d</fix>
</trkpt>
<trkpt lat="-27.274439" lon="151.290064">
  <ele>343.1</ele>
  <time>2026-09-01T19:51:14Z</time>
  <course>270.0</course>
  <speed>0.0</speed>
  <fix>3d</fix>
</trkpt>
<trkpt lat="-27.274439" lon="151.290064">
  <ele>343.12</ele>
  <time>2026-09-01T19:51:14Z</time>
  <course>10.8</course>
  <speed>0.0</speed>
  <fix>3d</fix>
</trkpt>
<trkpt lat="-27.274439" lon="151.290064">
  <ele>343.1</ele>
  <time>2026-09-01T19:51:14Z</time>
  <course>270.0</course>
  <speed>0.0</speed>
  <fix>3d</fix>
</trkpt>
<trkpt lat="-27.274439" lon="151.290064">
  <ele>342.99</ele>
  <time>2026-09-01T19:51:14Z</time>
  <course>10.8</course>
  <speed>0.0</speed>
  <fix>3d</fix>
</trkpt>
<trkpt lat="-27.274439" lon="151.290064">
  <ele>343.1</ele>
  <time>2026-09-01T19:51:14Z</time>
  <course>270.0</course>
  <speed>0.0</speed>
  <fix>3d</fix>
</trkpt>
<trkpt lat="-27.274439" lon="151.290064">
  <ele>343.13</ele>
  <time>2026-09-01T19:51:14Z</time>
  <course>10.8</course>
  <speed>0.0</speed>
  <fix>3d</fix>
</trkpt>
<trkpt lat="-27.274439" lon="151.290064">
  <ele>343.1</ele>
  <time>2026-09-01T19:51:14Z</time>
  <course>270.0</course>
  <speed>0.0</speed>
  <fix>3d</fix>
</trkpt>
<trkpt lat="-27.274439" lon="151.290064">
  <ele>343.0</ele>
  <time>2026-09-01T19:51:14Z</time>
  <course>10.8</course>
  <speed>0.0</speed>
  <fix>3d</fix>
</trkpt>
<trkpt lat="-27.274439" lon="151.290064">
  <ele>343.1</ele>
  <time>2026-09-01T19:51:14Z</time>
  <course>270.0</course>
  <speed>0.0</speed>
  <fix>3d</fix>
</trkpt>
<trkpt lat="-27.274439" lon="151.290064">
  <ele>343.17</ele>
  <time>2026-09-01T19:51:14Z</time>
  <course>10.8</course>
  <speed>0.0</speed>
  <fix>3d</fix>
</trkpt>
<trkpt lat="-27.274439" lon="151.290064">
  <ele>343.1</ele>
  <time>2026-09-01T19:51:14Z</time>
  <course>270.0</course>
  <speed>0.0</speed>
  <fix>3d</fix>
</trkpt>
<trkpt lat="-27.274439" lon="151.290064">
  <ele>343.0</ele>
  <time>2026-09-01T19:51:14Z</time>
  <course>10.8</course>
  <speed>0.0</speed>
  <fix>3d</fix>
</trkpt>
<trkpt lat="-27.274439" lon="151.290064">
  <ele>343.1</ele>
  <time>2026-09-01T19:51:14Z</time>
  <course>270.0</course>
  <speed>0.0</speed>
  <fix>3d</fix>
</trkpt>
<trkpt lat="-27.274439" lon="151.290064">
  <ele>342.99</ele>
  <time>2026-09-01T19:51:14Z</time>
  <course>10.8</course>
  <speed>0.0</speed>
  <fix>3d</fix>
</trkpt>
<trkpt lat="-27.274439" lon="151.290064">
  <ele>343.1</ele>
  <time>2026-09-01T19:51:14Z</time>
  <course>270.0</course>
  <speed>0.0</speed>
  <fix>3d</fix>
</trkpt>
<trkpt lat="-27.274439" lon="151.290064">
  <ele>343.17</ele>
  <time>2026-09-01T19:51:15Z</time>
  <course>10.8</course>
  <speed>0.0</speed>
  <fix>3d</fix>
</trkpt>
<trkpt lat="-27.274439" lon="151.290064">
  <ele>343.1</ele>
  <time>2026-09-01T19:51:15Z</time>
  <course>270.0</course>
  <speed>0.0</speed>
  <fix>3d</fix>
</trkpt>
<trkpt lat="-27.274439" lon="151.290064">
  <ele>343.16</ele>
  <time>2026-09-01T19:51:15Z</time>
  <course>10.8</course>
  <speed>0.0</speed>
  <fix>3d</fix>
</trkpt>
<trkpt lat="-27.274439" lon="151.290064">
  <ele>343.1</ele>
  <time>2026-09-01T19:51:15Z</time>
  <course>270.0</course>
  <speed>0.0</speed>
  <fix>3d</fix>
</trkpt>
<trkpt lat="-27.274439" lon="151.290064">
  <ele>342.87</ele>
  <time>2026-09-01T19:51:15Z</time>
  <course>10.8</course>
  <speed>0.0</speed>
  <fix>3d</fix>
</trkpt>
<trkpt lat="-27.274439" lon="151.290064">
  <ele>343.1</ele>
  <time>2026-09-01T19:51:15Z</time>
  <course>270.0</course>
  <speed>0.0</speed>
  <fix>3d</fix>
</trkpt>
<trkpt lat="-27.274439" lon="151.290064">
  <ele>343.19</ele>
  <time>2026-09-01T19:51:15Z</time>
  <course>10.8</course>
  <speed>0.0</speed>
  <fix>3d</fix>
</trkpt>
<trkpt lat="-27.274439" lon="151.290064">
  <ele>343.1</ele>
  <time>2026-09-01T19:51:15Z</time>
  <course>270.0</course>
  <speed>0.0</speed>
  <fix>3d</fix>
</trkpt>
<trkpt lat="-27.274439" lon="151.290064">
  <ele>343.16</ele>
  <time>2026-09-01T19:51:15Z</time>
  <course>10.8</course>
  <speed>0.0</speed>
  <fix>3d</fix>
</trkpt>
<trkpt lat="-27.274439" lon="151.290064">
  <ele>343.1</ele>
  <time>2026-09-01T19:51:15Z</time>
  <course>270.0</course>
  <speed>0.0</speed>
  <fix>3d</fix>
</trkpt>
<trkpt lat="-27.274439" lon="151.290064">
  <ele>343.21</ele>
  <time>2026-09-01T19:51:15Z</time>
  <course>10.8</course>
  <speed>0.0</speed>
  <fix>3d</fix>
</trkpt>
<trkpt lat="-27.274439" lon="151.290064">
  <ele>343.1</ele>
  <time>2026-09-01T19:51:15Z</time>
  <course>270.0</course>
  <speed>0.0</speed>
  <fix>3d</fix>
</trkpt>
<trkpt lat="-27.274439" lon="151.290064">
  <ele>343.22</ele>
  <time>2026-09-01T19:51:15Z</time>
  <course>10.8</course>
  <speed>0.0</speed>
  <fix>3d</fix>
</trkpt>
<trkpt lat="-27.274439" lon="151.290064">
  <ele>343.1</ele>
  <time>2026-09-01T19:51:15Z</time>
  <course>270.0</course>
  <speed>0.0</speed>
  <fix>3d</fix>
</trkpt>
<trkpt lat="-27.274439" lon="151.290064">
  <ele>343.24</ele>
  <time>2026-09-01T19:51:15Z</time>
  <course>10.8</course>
  <speed>0.0</speed>
  <fix>3d</fix>
</trkpt>
<trkpt lat="-27.274439" lon="151.290064">
  <ele>343.1</ele>
  <time>2026-09-01T19:51:15Z</time>
  <course>270.0</course>
  <speed>0.0</speed>
  <fix>3d</fix>
</trkpt>
<trkpt lat="-27.274439" lon="151.290064">
  <ele>343.0</ele>
  <time>2026-09-01T19:51:15Z</time>
  <course>10.8</course>
  <speed>0.0</speed>
  <fix>3d</fix>
</trkpt>
<trkpt lat="-27.274439" lon="151.290064">
  <ele>343.1</ele>
  <time>2026-09-01T19:51:15Z</time>
  <course>270.0</course>
  <speed>0.0</speed>
  <fix>3d</fix>
</trkpt>
<trkpt lat="-27.274439" lon="151.290064">
  <ele>343.1</ele>
  <time>2026-09-01T19:51:15Z</time>
  <course>10.8</course>
  <speed>0.0</speed>
  <fix>3d</fix>
</trkpt>
<trkpt lat="-27.274439" lon="151.290064">
  <ele>343.1</ele>
  <time>2026-09-01T19:51:15Z</time>
  <course>270.0</course>
  <speed>0.0</speed>
  <fix>3d</fix>
</trkpt>
<trkpt lat="-27.274439" lon="151.290064">
  <ele>343.05</ele>
  <time>2026-09-01T19:51:15Z</time>
  <course>10.8</course>
  <speed>0.0</speed>
  <fix>3d</fix>
</trkpt>
<trkpt lat="-27.274439" lon="151.290064">
  <ele>343.1</ele>
  <time>2026-09-01T19:51:15Z</time>
  <course>270.0</course>
  <speed>0.0</speed>
  <fix>3d</fix>
</trkpt>
<trkpt lat="-27.274439" lon="151.290064">
  <ele>342.87</ele>
  <time>2026-09-01T19:51:15Z</time>
  <course>10.8</course>
  <speed>0.0</speed>
  <fix>3d</fix>
</trkpt>
<trkpt lat="-27.274439" lon="151.290064">
  <ele>343.1</ele>
  <time>2026-09-01T19:51:15Z</time>
  <course>270.0</course>
  <speed>0.0</speed>
  <fix>3d</fix>
</trkpt>
<trkpt lat="-27.274439" lon="151.290064">
  <ele>342.92</ele>
  <time>2026-09-01T19:51:15Z</time>
  <course>10.8</course>
  <speed>0.0</speed>
  <fix>3d</fix>
</trkpt>
<trkpt lat="-27.274439" lon="151.290064">
  <ele>343.1</ele>
  <time>2026-09-01T19:51:15Z</time>
  <course>270.0</course>
  <speed>0.0</speed>
  <fix>3d</fix>
</trkpt>
<trkpt lat="-27.274439" lon="151.290064">
  <ele>342.96</ele>
  <time>2026-09-01T19:51:15Z</time>
  <course>10.8</course>
  <speed>0.0</speed>
  <fix>3d</fix>
</trkpt>
<trkpt lat="-27.274439" lon="151.290064">
  <ele>343.1</ele>
  <time>2026-09-01T19:51:15Z</time>
  <course>270.0</course>
  <speed>0.0</speed>
  <fix>3d</fix>
</trkpt>
<trkpt lat="-27.274439" lon="151.290064">
  <ele>343.15</ele>
  <time>2026-09-01T19:51:15Z</time>
  <course>10.8</course>
  <speed>0.0</speed>
  <fix>3d</fix>
</trkpt>
<trkpt lat="-27.274439" lon="151.290064">
  <ele>343.1</ele>
  <time>2026-09-01T19:51:15Z</time>
  <course>270.0</course>
  <speed>0.0</speed>
  <fix>3d</fix>
</trkpt>
<trkpt lat="-27.274439" lon="151.290064">
  <ele>343.16</ele>
  <time>2026-09-01T19:51:15Z</time>
  <course>10.8</course>
  <speed>0.0</speed>
  <fix>3d</fix>
</trkpt>
<trkpt lat="-27.274439" lon="151.290064">
  <ele>343.1</ele>
  <time>2026-09-01T19:51:15Z</time>
  <course>270.0</course>
  <speed>0.0</speed>
  <fix>3d</fix>
</trkpt>
<trkpt lat="-27.274439" lon="151.290064">
  <ele>343.2</ele>
  <time>2026-09-01T19:51:15Z</time>
  <course>10.81</course>
  <speed>0.0</speed>
  <fix>3d</fix>
</trkpt>
<trkpt lat="-27.274439" lon="151.290064">
  <ele>343.1</ele>
  <time>2026-09-01T19:51:15Z</time>
  <course>270.0</course>
  <speed>0.0</speed>
  <fix>3d</fix>
</trkpt>
<trkpt lat="-27.274439" lon="151.290064">
  <ele>343.13</ele>
  <time>2026-09-01T19:51:15Z</time>
  <course>10.82</course>
  <speed>0.0</speed>
  <fix>3d</fix>
</trkpt>
<trkpt lat="-27.274439" lon="151.290064">
  <ele>343.1</ele>
  <time>2026-09-01T19:51:15Z</time>
  <course>270.0</course>
  <speed>0.0</speed>
  <fix>3d</fix>
</trkpt>
<trkpt lat="-27.274439" lon="151.290064">
  <ele>343.09</ele>
  <time>2026-09-01T19:51:15Z</time>
  <course>10.71</course>
  <speed>0.0</speed>
  <fix>3d</fix>
</trkpt>
<trkpt lat="-27.274439" lon="151.290064">
  <ele>343.1</ele>
  <time>2026-09-01T19:51:15Z</time>
  <course>270.0</course>
  <speed>0.0</speed>
  <fix>3d</fix>
</trkpt>
<trkpt lat="-27.274439" lon="151.290064">
  <ele>343.09</ele>
  <time>2026-09-01T19:51:15Z</time>
  <course>10.71</course>
  <speed>0.0</speed>
  <fix>3d</fix>
</trkpt>
<trkpt lat="-27.274439" lon="151.290064">
  <ele>343.1</ele>
  <time>2026-09-01T19:51:15Z</time>
  <course>270.0</course>
  <speed>0.0</speed>
  <fix>3d</fix>
</trkpt>
<trkpt lat="-27.274439" lon="151.290064">
  <ele>343.1</ele>
  <time>2026-09-01T19:51:15Z</time>
  <course>10.71</course>
  <speed>0.0</speed>
  <fix>3d</fix>
</trkpt>
<trkpt lat="-27.274439" lon="151.290064">
  <ele>343.1</ele>
  <time>2026-09-01T19:51:15Z</time>
  <course>270.0</course>
  <speed>0.0</speed>
  <fix>3d</fix>
</trkpt>
<trkpt lat="-27.274439" lon="151.290064">
  <ele>343.1</ele>
  <time>2026-09-01T19:51:15Z</time>
  <course>10.71</course>
  <speed>0.0</speed>
  <fix>3d</fix>
</trkpt>
<trkpt lat="-27.274439" lon="151.290064">
  <ele>343.1</ele>
  <time>2026-09-01T19:51:15Z</time>
  <course>270.0</course>
  <speed>0.0</speed>
  <fix>3d</fix>
</trkpt>
<trkpt lat="-27.274439" lon="151.290064">
  <ele>343.1</ele>
  <time>2026-09-01T19:51:15Z</time>
  <course>10.71</course>
  <speed>0.0</speed>
  <fix>3d</fix>
</trkpt>
<trkpt lat="-27.274439" lon="151.290064">
  <ele>343.1</ele>
  <time>2026-09-01T19:51:15Z</time>
  <course>270.0</course>
  <speed>0.0</speed>
  <fix>3d</fix>
</trkpt>
<trkpt lat="-27.274439" lon="151.290064">
  <ele>343.1</ele>
  <time>2026-09-01T19:51:15Z</time>
  <course>10.71</course>
  <speed>0.0</speed>
  <fix>3d</fix>
</trkpt>
<trkpt lat="-27.274439" lon="151.290064">
  <ele>343.1</ele>
  <time>2026-09-01T19:51:15Z</time>
  <course>270.0</course>
  <speed>0.0</speed>
  <fix>3d</fix>
</trkpt>
<trkpt lat="-27.274439" lon="151.290064">
  <ele>343.1</ele>
  <time>2026-09-01T19:51:15Z</time>
  <course>10.71</course>
  <speed>0.0</speed>
  <fix>3d</fix>
</trkpt>
<trkpt lat="-27.274439" lon="151.290064">
  <ele>343.1</ele>
  <time>2026-09-01T19:51:15Z</time>
  <course>270.0</course>
  <speed>0.0</speed>
  <fix>3d</fix>
</trkpt>
<trkpt lat="-27.274439" lon="151.290064">
  <ele>343.11</ele>
  <time>2026-09-01T19:51:15Z</time>
  <course>10.71</course>
  <speed>0.0</speed>
  <fix>3d</fix>
</trkpt>
<trkpt lat="-27.274439" lon="151.290064">
  <ele>343.1</ele>
  <time>2026-09-01T19:51:15Z</time>
  <course>270.0</course>
  <speed>0.0</speed>
  <fix>3d</fix>
</trkpt>
<trkpt lat="-27.274439" lon="151.290064">
  <ele>343.11</ele>
  <time>2026-09-01T19:51:15Z</time>
  <course>10.71</course>
  <speed>0.0</speed>
  <fix>3d</fix>
</trkpt>
<trkpt lat="-27.274439" lon="151.290064">
  <ele>343.1</ele>
  <time>2026-09-01T19:51:15Z</time>
  <course>270.0</course>
  <speed>0.0</speed>
  <fix>3d</fix>
</trkpt>
<trkpt lat="-27.274439" lon="151.290064">
  <ele>343.11</ele>
  <time>2026-09-01T19:51:15Z</time>
  <course>10.71</course>
  <speed>0.0</speed>
  <fix>3d</fix>
</trkpt>
<trkpt lat="-27.274439" lon="151.290064">
  <ele>343.1</ele>
  <time>2026-09-01T19:51:15Z</time>
  <course>270.0</course>
  <speed>0.0</speed>
  <fix>3d</fix>
</trkpt>
<trkpt lat="-27.274439" lon="151.290064">
  <ele>343.1</ele>
  <time>2026-09-01T19:51:15Z</time>
  <course>10.71</course>
  <speed>0.0</speed>
  <fix>3d</fix>
</trkpt>
<trkpt lat="-27.274439" lon="151.290064">
  <ele>343.1</ele>
  <time>2026-09-01T19:51:15Z</time>
  <course>270.0</course>
  <speed>0.0</speed>
  <fix>3d</fix>
</trkpt>
<trkpt lat="-27.274439" lon="151.290064">
  <ele>343.1</ele>
  <time>2026-09-01T19:51:15Z</time>
  <course>10.71</course>
  <speed>0.0</speed>
  <fix>3d</fix>
</trkpt>
<trkpt lat="-27.274439" lon="151.290064">
  <ele>343.1</ele>
  <time>2026-09-01T19:51:15Z</time>
  <course>270.0</course>
  <speed>0.0</speed>
  <fix>3d</fix>
</trkpt>
<trkpt lat="-27.274439" lon="151.290064">
  <ele>343.09</ele>
  <time>2026-09-01T19:51:15Z</time>
  <course>10.71</course>
  <speed>0.0</speed>
  <fix>3d</fix>
</trkpt>
<trkpt lat="-27.274439" lon="151.290064">
  <ele>343.1</ele>
  <time>2026-09-01T19:51:15Z</time>
  <course>270.0</course>
  <speed>0.0</speed>
  <fix>3d</fix>
</trkpt>
<trkpt lat="-27.274439" lon="151.290064">
  <ele>343.09</ele>
  <time>2026-09-01T19:51:15Z</time>
  <course>10.71</course>
  <speed>0.0</speed>
  <fix>3d</fix>
</trkpt>
<trkpt lat="-27.274439" lon="151.290064">
  <ele>343.1</ele>
  <time>2026-09-01T19:51:15Z</time>
  <course>270.0</course>
  <speed>0.0</speed>
  <fix>3d</fix>
</trkpt>
<trkpt lat="-27.274439" lon="151.290064">
  <ele>343.09</ele>
  <time>2026-09-01T19:51:15Z</time>
  <course>10.71</course>
  <speed>0.0</speed>
  <fix>3d</fix>
</trkpt>
<trkpt lat="-27.274439" lon="151.290064">
  <ele>343.1</ele>
  <time>2026-09-01T19:51:15Z</time>
  <course>270.0</course>
  <speed>0.0</speed>
  <fix>3d</fix>
</trkpt>
<trkpt lat="-27.274439" lon="151.290064">
  <ele>343.09</ele>
  <time>2026-09-01T19:51:15Z</time>
  <course>10.71</course>
  <speed>0.0</speed>
  <fix>3d</fix>
</trkpt>
<trkpt lat="-27.274439" lon="151.290064">
  <ele>343.1</ele>
  <time>2026-09-01T19:51:15Z</time>
  <course>270.0</course>
  <speed>0.0</speed>
  <fix>3d</fix>
</trkpt>
<trkpt lat="-27.274439" lon="151.290064">
  <ele>343.09</ele>
  <time>2026-09-01T19:51:15Z</time>
  <course>10.71</course>
  <speed>0.0</speed>
  <fix>3d</fix>
</trkpt>
<trkpt lat="-27.274439" lon="151.290064">
  <ele>343.1</ele>
  <time>2026-09-01T19:51:15Z</time>
  <course>270.0</course>
  <speed>0.0</speed>
  <fix>3d</fix>
</trkpt>
<trkpt lat="-27.274439" lon="151.290064">
  <ele>343.09</ele>
  <time>2026-09-01T19:51:15Z</time>
  <course>10.71</course>
  <speed>0.0</speed>
  <fix>3d</fix>
</trkpt>
<trkpt lat="-27.274439" lon="151.290064">
  <ele>343.1</ele>
  <time>2026-09-01T19:51:15Z</time>
  <course>270.0</course>
  <speed>0.0</speed>
  <fix>3d</fix>
</trkpt>
<trkpt lat="-27.274439" lon="151.290064">
  <ele>343.09</ele>
  <time>2026-09-01T19:51:15Z</time>
  <course>10.71</course>
  <speed>0.0</speed>
  <fix>3d</fix>
</trkpt>
<trkpt lat="-27.274439" lon="151.290064">
  <ele>343.1</ele>
  <time>2026-09-01T19:51:15Z</time>
  <course>270.0</course>
  <speed>0.0</speed>
  <fix>3d</fix>
</trkpt>
<trkpt lat="-27.274439" lon="151.290064">
  <ele>343.09</ele>
  <time>2026-09-01T19:51:15Z</time>
  <course>10.71</course>
  <speed>0.0</speed>
  <fix>3d</fix>
</trkpt>
<trkpt lat="-27.274439" lon="151.290064">
  <ele>343.1</ele>
  <time>2026-09-01T19:51:15Z</time>
  <course>270.0</course>
  <speed>0.0</speed>
  <fix>3d</fix>
</trkpt>
<trkpt lat="-27.274439" lon="151.290064">
  <ele>343.08</ele>
  <time>2026-09-01T19:51:15Z</time>
  <course>10.71</course>
  <speed>0.0</speed>
  <fix>3d</fix>
</trkpt>
<trkpt lat="-27.274439" lon="151.290064">
  <ele>343.1</ele>
  <time>2026-09-01T19:51:15Z</time>
  <course>270.0</course>
  <speed>0.0</speed>
  <fix>3d</fix>
</trkpt>
<trkpt lat="-27.274439" lon="151.290064">
  <ele>343.08</ele>
  <time>2026-09-01T19:51:15Z</time>
  <course>10.71</course>
  <speed>0.0</speed>
  <fix>3d</fix>
</trkpt>
<trkpt lat="-27.274439" lon="151.290064">
  <ele>343.1</ele>
  <time>2026-09-01T19:51:15Z</time>
  <course>270.0</course>
  <speed>0.0</speed>
  <fix>3d</fix>
</trkpt>
<trkpt lat="-27.274439" lon="151.290064">
  <ele>343.08</ele>
  <time>2026-09-01T19:51:15Z</time>
  <course>10.71</course>
  <speed>0.0</speed>
  <fix>3d</fix>
</trkpt>
<trkpt lat="-27.274439" lon="151.290064">
  <ele>343.1</ele>
  <time>2026-09-01T19:51:15Z</time>
  <course>270.0</course>
  <speed>0.0</speed>
  <fix>3d</fix>
</trkpt>
<trkpt lat="-27.274439" lon="151.290064">
  <ele>343.08</ele>
  <time>2026-09-01T19:51:15Z</time>
  <course>10.71</course>
  <speed>0.0</speed>
  <fix>3d</fix>
</trkpt>
<trkpt lat="-27.274439" lon="151.290064">
  <ele>343.1</ele>
  <time>2026-09-01T19:51:15Z</time>
  <course>270.0</course>
  <speed>0.0</speed>
  <fix>3d</fix>
</trkpt>
<trkpt lat="-27.274439" lon="151.290064">
  <ele>343.07</ele>
  <time>2026-09-01T19:51:15Z</time>
  <course>10.71</course>
  <speed>0.0</speed>
  <fix>3d</fix>
</trkpt>
<trkpt lat="-27.274439" lon="151.290064">
  <ele>343.1</ele>
  <time>2026-09-01T19:51:15Z</time>
  <course>270.0</course>
  <speed>0.0</speed>
  <fix>3d</fix>
</trkpt>
<trkpt lat="-27.274439" lon="151.290064">
  <ele>343.07</ele>
  <time>2026-09-01T19:51:15Z</time>
  <course>10.71</course>
  <speed>0.0</speed>
  <fix>3d</fix>
</trkpt>
<trkpt lat="-27.274439" lon="151.290064">
  <ele>343.1</ele>
  <time>2026-09-01T19:51:15Z</time>
  <course>270.0</course>
  <speed>0.0</speed>
  <fix>3d</fix>
</trkpt>
<trkpt lat="-27.274439" lon="151.290064">
  <ele>343.07</ele>
  <time>2026-09-01T19:51:15Z</time>
  <course>10.71</course>
  <speed>0.0</speed>
  <fix>3d</fix>
</trkpt>
<trkpt lat="-27.274439" lon="151.290064">
  <ele>343.1</ele>
  <time>2026-09-01T19:51:15Z</time>
  <course>270.0</course>
  <speed>0.0</speed>
  <fix>3d</fix>
</trkpt>
<trkpt lat="-27.274439" lon="151.290064">
  <ele>343.07</ele>
  <time>2026-09-01T19:51:15Z</time>
  <course>10.71</course>
  <speed>0.0</speed>
  <fix>3d</fix>
</trkpt>
<trkpt lat="-27.274439" lon="151.290064">
  <ele>343.1</ele>
  <time>2026-09-01T19:51:15Z</time>
  <course>270.0</course>
  <speed>0.0</speed>
  <fix>3d</fix>
</trkpt>
<trkpt lat="-27.274439" lon="151.290064">
  <ele>343.07</ele>
  <time>2026-09-01T19:51:15Z</time>
  <course>10.71</course>
  <speed>0.0</speed>
  <fix>3d</fix>
</trkpt>
<trkpt lat="-27.274439" lon="151.290064">
  <ele>343.1</ele>
  <time>2026-09-01T19:51:15Z</time>
  <course>270.0</course>
  <speed>0.0</speed>
  <fix>3d</fix>
</trkpt>
<trkpt lat="-27.274439" lon="151.290064">
  <ele>343.07</ele>
  <time>2026-09-01T19:51:15Z</time>
  <course>10.71</course>
  <speed>0.0</speed>
  <fix>3d</fix>
</trkpt>
<trkpt lat="-27.274439" lon="151.290064">
  <ele>343.1</ele>
  <time>2026-09-01T19:51:15Z</time>
  <course>270.0</course>
  <speed>0.0</speed>
  <fix>3d</fix>
</trkpt>
<trkpt lat="-27.274439" lon="151.290064">
  <ele>343.07</ele>
  <time>2026-09-01T19:51:15Z</time>
  <course>10.71</course>
  <speed>0.0</speed>
  <fix>3d</fix>
</trkpt>
<trkpt lat="-27.274439" lon="151.290064">
  <ele>343.1</ele>
  <time>2026-09-01T19:51:15Z</time>
  <course>270.0</course>
  <speed>0.0</speed>
  <fix>3d</fix>
</trkpt>
<trkpt lat="-27.274439" lon="151.290064">
  <ele>343.07</ele>
  <time>2026-09-01T19:51:15Z</time>
  <course>10.71</course>
  <speed>0.0</speed>
  <fix>3d</fix>
</trkpt>
<trkpt lat="-27.274439" lon="151.290064">
  <ele>343.1</ele>
  <time>2026-09-01T19:51:15Z</time>
  <course>270.0</course>
  <speed>0.0</speed>
  <fix>3d</fix>
</trkpt>
<trkpt lat="-27.274439" lon="151.290064">
  <ele>343.09</ele>
  <time>2026-09-01T19:51:15Z</time>
  <course>10.71</course>
  <speed>0.0</speed>
  <fix>3d</fix>
</trkpt>
<trkpt lat="-27.274439" lon="151.290064">
  <ele>343.1</ele>
  <time>2026-09-01T19:51:15Z</time>
  <course>270.0</course>
  <speed>0.0</speed>
  <fix>3d</fix>
</trkpt>
<trkpt lat="-27.274439" lon="151.290064">
  <ele>343.1</ele>
  <time>2026-09-01T19:51:15Z</time>
  <course>10.71</course>
  <speed>0.0</speed>
  <fix>3d</fix>
</trkpt>
<trkpt lat="-27.274439" lon="151.290064">
  <ele>343.1</ele>
  <time>2026-09-01T19:51:15Z</time>
  <course>270.0</course>
  <speed>0.0</speed>
  <fix>3d</fix>
</trkpt>
<trkpt lat="-27.274439" lon="151.290064">
  <ele>343.1</ele>
  <time>2026-09-01T19:51:15Z</time>
  <course>10.71</course>
  <speed>0.0</speed>
  <fix>3d</fix>
</trkpt>
<trkpt lat="-27.274439" lon="151.290064">
  <ele>343.1</ele>
  <time>2026-09-01T19:51:15Z</time>
  <course>270.0</course>
  <speed>0.0</speed>
  <fix>3d</fix>
</trkpt>
<trkpt lat="-27.274439" lon="151.290064">
  <ele>343.09</ele>
  <time>2026-09-01T19:51:15Z</time>
  <course>10.71</course>
  <speed>0.0</speed>
  <fix>3d</fix>
</trkpt>
<trkpt lat="-27.274439" lon="151.290064">
  <ele>343.1</ele>
  <time>2026-09-01T19:51:15Z</time>
  <course>270.0</course>
  <speed>0.0</speed>
  <fix>3d</fix>
</trkpt>
<trkpt lat="-27.274439" lon="151.290064">
  <ele>343.09</ele>
  <time>2026-09-01T19:51:15Z</time>
  <course>10.71</course>
  <speed>0.0</speed>
  <fix>3d</fix>
</trkpt>
<trkpt lat="-27.274439" lon="151.290064">
  <ele>343.1</ele>
  <time>2026-09-01T19:51:15Z</time>
  <course>270.0</course>
  <speed>0.0</speed>
  <fix>3d</fix>
</trkpt>
<trkpt lat="-27.274439" lon="151.290064">
  <ele>343.08</ele>
  <time>2026-09-01T19:51:15Z</time>
  <course>10.71</course>
  <speed>0.0</speed>
  <fix>3d</fix>
</trkpt>
<trkpt lat="-27.274439" lon="151.290064">
  <ele>343.1</ele>
  <time>2026-09-01T19:51:15Z</time>
  <course>270.0</course>
  <speed>0.0</speed>
  <fix>3d</fix>
</trkpt>
<trkpt lat="-27.274439" lon="151.290064">
  <ele>343.08</ele>
  <time>2026-09-01T19:51:15Z</time>
  <course>10.71</course>
  <speed>0.0</speed>
  <fix>3d</fix>
</trkpt>
<trkpt lat="-27.274439" lon="151.290064">
  <ele>343.1</ele>
  <time>2026-09-01T19:51:15Z</time>
  <course>270.0</course>
  <speed>0.0</speed>
  <fix>3d</fix>
</trkpt>
<trkpt lat="-27.274439" lon="151.290064">
  <ele>343.08</ele>
  <time>2026-09-01T19:51:15Z</time>
  <course>10.71</course>
  <speed>0.0</speed>
  <fix>3d</fix>
</trkpt>
<trkpt lat="-27.274439" lon="151.290064">
  <ele>343.1</ele>
  <time>2026-09-01T19:51:15Z</time>
  <course>270.0</course>
  <speed>0.0</speed>
  <fix>3d</fix>
</trkpt>
<trkpt lat="-27.274439" lon="151.290064">
  <ele>343.07</ele>
  <time>2026-09-01T19:51:15Z</time>
  <course>10.71</course>
  <speed>0.0</speed>
  <fix>3d</fix>
</trkpt>
<trkpt lat="-27.274439" lon="151.290064">
  <ele>343.1</ele>
  <time>2026-09-01T19:51:15Z</time>
  <course>270.0</course>
  <speed>0.0</speed>
  <fix>3d</fix>
</trkpt>
<trkpt lat="-27.274439" lon="151.290064">
  <ele>343.07</ele>
  <time>2026-09-01T19:51:15Z</time>
  <course>10.71</course>
  <speed>0.0</speed>
  <fix>3d</fix>
</trkpt>
<trkpt lat="-27.274439" lon="151.290064">
  <ele>343.1</ele>
  <time>2026-09-01T19:51:15Z</time>
  <course>270.0</course>
  <speed>0.0</speed>
  <fix>3d</fix>
</trkpt>
<trkpt lat="-27.274439" lon="151.290064">
  <ele>343.06</ele>
  <time>2026-09-01T19:51:15Z</time>
  <course>10.71</course>
  <speed>0.0</speed>
  <fix>3d</fix>
</trkpt>
<trkpt lat="-27.274439" lon="151.290064">
  <ele>343.1</ele>
  <time>2026-09-01T19:51:15Z</time>
  <course>270.0</course>
  <speed>0.0</speed>
  <fix>3d</fix>
</trkpt>
<trkpt lat="-27.274439" lon="151.290064">
  <ele>343.06</ele>
  <time>2026-09-01T19:51:15Z</time>
  <course>10.71</course>
  <speed>0.0</speed>
  <fix>3d</fix>
</trkpt>
<trkpt lat="-27.274439" lon="151.290064">
  <ele>343.1</ele>
  <time>2026-09-01T19:51:15Z</time>
  <course>270.0</course>
  <speed>0.0</speed>
  <fix>3d</fix>
</trkpt>
<trkpt lat="-27.274439" lon="151.290064">
  <ele>343.05</ele>
  <time>2026-09-01T19:51:15Z</time>
  <course>10.71</course>
  <speed>0.0</speed>
  <fix>3d</fix>
</trkpt>
<trkpt lat="-27.274439" lon="151.290064">
  <ele>343.1</ele>
  <time>2026-09-01T19:51:15Z</time>
  <course>270.0</course>
  <speed>0.0</speed>
  <fix>3d</fix>
</trkpt>
<trkpt lat="-27.274439" lon="151.290064">
  <ele>343.05</ele>
  <time>2026-09-01T19:51:15Z</time>
  <course>10.71</course>
  <speed>0.0</speed>
  <fix>3d</fix>
</trkpt>
<trkpt lat="-27.274439" lon="151.290064">
  <ele>343.1</ele>
  <time>2026-09-01T19:51:15Z</time>
  <course>270.0</course>
  <speed>0.0</speed>
  <fix>3d</fix>
</trkpt>
<trkpt lat="-27.274439" lon="151.290064">
  <ele>343.04</ele>
  <time>2026-09-01T19:51:15Z</time>
  <course>10.71</course>
  <speed>0.0</speed>
  <fix>3d</fix>
</trkpt>
<trkpt lat="-27.274439" lon="151.290064">
  <ele>343.1</ele>
  <time>2026-09-01T19:51:15Z</time>
  <course>270.0</course>
  <speed>0.0</speed>
  <fix>3d</fix>
</trkpt>
<trkpt lat="-27.274439" lon="151.290064">
  <ele>343.04</ele>
  <time>2026-09-01T19:51:15Z</time>
  <course>10.71</course>
  <speed>0.0</speed>
  <fix>3d</fix>
</trkpt>
<trkpt lat="-27.274439" lon="151.290064">
  <ele>343.1</ele>
  <time>2026-09-01T19:51:15Z</time>
  <course>270.0</course>
  <speed>0.0</speed>
  <fix>3d</fix>
</trkpt>
<trkpt lat="-27.274439" lon="151.290064">
  <ele>343.09</ele>
  <time>2026-09-01T19:51:15Z</time>
  <course>10.71</course>
  <speed>0.0</speed>
  <fix>3d</fix>
</trkpt>
<trkpt lat="-27.274439" lon="151.290064">
  <ele>343.1</ele>
  <time>2026-09-01T19:51:15Z</time>
  <course>270.0</course>
  <speed>0.0</speed>
  <fix>3d</fix>
</trkpt>
<trkpt lat="-27.274439" lon="151.290064">
  <ele>343.09</ele>
  <time>2026-09-01T19:51:15Z</time>
  <course>10.71</course>
  <speed>0.0</speed>
  <fix>3d</fix>
</trkpt>
<trkpt lat="-27.274439" lon="151.290064">
  <ele>343.1</ele>
  <time>2026-09-01T19:51:15Z</time>
  <course>270.0</course>
  <speed>0.0</speed>
  <fix>3d</fix>
</trkpt>
<trkpt lat="-27.274439" lon="151.290064">
  <ele>343.09</ele>
  <time>2026-09-01T19:51:15Z</time>
  <course>10.71</course>
  <speed>0.0</speed>
  <fix>3d</fix>
</trkpt>
<trkpt lat="-27.274439" lon="151.290064">
  <ele>343.1</ele>
  <time>2026-09-01T19:51:15Z</time>
  <course>270.0</course>
  <speed>0.0</speed>
  <fix>3d</fix>
</trkpt>
<trkpt lat="-27.274439" lon="151.290064">
  <ele>343.09</ele>
  <time>2026-09-01T19:51:15Z</time>
  <course>10.71</course>
  <speed>0.0</speed>
  <fix>3d</fix>
</trkpt>
<trkpt lat="-27.274439" lon="151.290064">
  <ele>343.1</ele>
  <time>2026-09-01T19:51:15Z</time>
  <course>270.0</course>
  <speed>0.0</speed>
  <fix>3d</fix>
</trkpt>
<trkpt lat="-27.274439" lon="151.290064">
  <ele>343.09</ele>
  <time>2026-09-01T19:51:15Z</time>
  <course>10.71</course>
  <speed>0.0</speed>
  <fix>3d</fix>
</trkpt>
<trkpt lat="-27.274439" lon="151.290064">
  <ele>343.1</ele>
  <time>2026-09-01T19:51:15Z</time>
  <course>270.0</course>
  <speed>0.0</speed>
  <fix>3d</fix>
</trkpt>
<trkpt lat="-27.274439" lon="151.290064">
  <ele>343.09</ele>
  <time>2026-09-01T19:51:15Z</time>
  <course>10.71</course>
  <speed>0.0</speed>
  <fix>3d</fix>
</trkpt>
<trkpt lat="-27.274439" lon="151.290064">
  <ele>343.1</ele>
  <time>2026-09-01T19:51:15Z</time>
  <course>270.0</course>
  <speed>0.0</speed>
  <fix>3d</fix>
</trkpt>
<trkpt lat="-27.274439" lon="151.290064">
  <ele>343.09</ele>
  <time>2026-09-01T19:51:15Z</time>
  <course>10.71</course>
  <speed>0.0</speed>
  <fix>3d</fix>
</trkpt>
<trkpt lat="-27.274439" lon="151.290064">
  <ele>343.1</ele>
  <time>2026-09-01T19:51:15Z</time>
  <course>270.0</course>
  <speed>0.0</speed>
  <fix>3d</fix>
</trkpt>
<trkpt lat="-27.274439" lon="151.290064">
  <ele>343.09</ele>
  <time>2026-09-01T19:51:15Z</time>
  <course>10.71</course>
  <speed>0.0</speed>
  <fix>3d</fix>
</trkpt>
<trkpt lat="-27.274439" lon="151.290064">
  <ele>343.1</ele>
  <time>2026-09-01T19:51:15Z</time>
  <course>270.0</course>
  <speed>0.0</speed>
  <fix>3d</fix>
</trkpt>
<trkpt lat="-27.274439" lon="151.290064">
  <ele>343.1</ele>
  <time>2026-09-01T19:51:15Z</time>
  <course>10.71</course>
  <speed>0.0</speed>
  <fix>3d</fix>
</trkpt>
<trkpt lat="-27.274439" lon="151.290064">
  <ele>343.1</ele>
  <time>2026-09-01T19:51:15Z</time>
  <course>270.0</course>
  <speed>0.0</speed>
  <fix>3d</fix>
</trkpt>
<trkpt lat="-27.274439" lon="151.290064">
  <ele>343.1</ele>
  <time>2026-09-01T19:51:15Z</time>
  <course>10.71</course>
  <speed>0.0</speed>
  <fix>3d</fix>
</trkpt>
<trkpt lat="-27.274439" lon="151.290064">
  <ele>343.1</ele>
  <time>2026-09-01T19:51:15Z</time>
  <course>270.0</course>
  <speed>0.0</speed>
  <fix>3d</fix>
</trkpt>
<trkpt lat="-27.274439" lon="151.290064">
  <ele>343.1</ele>
  <time>2026-09-01T19:51:15Z</time>
  <course>10.71</course>
  <speed>0.0</speed>
  <fix>3d</fix>
</trkpt>
<trkpt lat="-27.274439" lon="151.290064">
  <ele>343.1</ele>
  <time>2026-09-01T19:51:15Z</time>
  <course>270.0</course>
  <speed>0.0</speed>
  <fix>3d</fix>
</trkpt>
<trkpt lat="-27.274439" lon="151.290064">
  <ele>343.1</ele>
  <time>2026-09-01T19:51:15Z</time>
  <course>10.71</course>
  <speed>0.0</speed>
  <fix>3d</fix>
</trkpt>
<trkpt lat="-27.274439" lon="151.290064">
  <ele>343.1</ele>
  <time>2026-09-01T19:51:15Z</time>
  <course>270.0</course>
  <speed>0.0</speed>
  <fix>3d</fix>
</trkpt>
<trkpt lat="-27.274439" lon="151.290064">
  <ele>343.1</ele>
  <time>2026-09-01T19:51:15Z</time>
  <course>10.71</course>
  <speed>0.0</speed>
  <fix>3d</fix>
</trkpt>
<trkpt lat="-27.274439" lon="151.290064">
  <ele>343.1</ele>
  <time>2026-09-01T19:51:15Z</time>
  <course>270.0</course>
  <speed>0.0</speed>
  <fix>3d</fix>
</trkpt>
<trkpt lat="-27.274439" lon="151.290064">
  <ele>343.11</ele>
  <time>2026-09-01T19:51:15Z</time>
  <course>10.71</course>
  <speed>0.0</speed>
  <fix>3d</fix>
</trkpt>
<trkpt lat="-27.274439" lon="151.290064">
  <ele>343.1</ele>
  <time>2026-09-01T19:51:15Z</time>
  <course>270.0</course>
  <speed>0.0</speed>
  <fix>3d</fix>
</trkpt>
<trkpt lat="-27.274439" lon="151.290064">
  <ele>343.11</ele>
  <time>2026-09-01T19:51:15Z</time>
  <course>10.71</course>
  <speed>0.0</speed>
  <fix>3d</fix>
</trkpt>
<trkpt lat="-27.274439" lon="151.290064">
  <ele>343.1</ele>
  <time>2026-09-01T19:51:15Z</time>
  <course>270.0</course>
  <speed>0.0</speed>
  <fix>3d</fix>
</trkpt>
<trkpt lat="-27.274439" lon="151.290064">
  <ele>343.11</ele>
  <time>2026-09-01T19:51:15Z</time>
  <course>10.71</course>
  <speed>0.0</speed>
  <fix>3d</fix>
</trkpt>
<trkpt lat="-27.274439" lon="151.290064">
  <ele>343.1</ele>
  <time>2026-09-01T19:51:15Z</time>
  <course>270.0</course>
  <speed>0.0</speed>
  <fix>3d</fix>
</trkpt>
<trkpt lat="-27.274439" lon="151.290064">
  <ele>343.11</ele>
  <time>2026-09-01T19:51:15Z</time>
  <course>10.71</course>
  <speed>0.0</speed>
  <fix>3d</fix>
</trkpt>
<trkpt lat="-27.274439" lon="151.290064">
  <ele>343.1</ele>
  <time>2026-09-01T19:51:15Z</time>
  <course>270.0</course>
  <speed>0.0</speed>
  <fix>3d</fix>
</trkpt>
<trkpt lat="-27.274439" lon="151.290064">
  <ele>343.11</ele>
  <time>2026-09-01T19:51:15Z</time>
  <course>10.71</course>
  <speed>0.0</speed>
  <fix>3d</fix>
</trkpt>
<trkpt lat="-27.274439" lon="151.290064">
  <ele>343.1</ele>
  <time>2026-09-01T19:51:15Z</time>
  <course>270.0</course>
  <speed>0.0</speed>
  <fix>3d</fix>
</trkpt>
<trkpt lat="-27.274439" lon="151.290064">
  <ele>343.11</ele>
  <time>2026-09-01T19:51:15Z</time>
  <course>10.71</course>
  <speed>0.0</speed>
  <fix>3d</fix>
</trkpt>
<trkpt lat="-27.274439" lon="151.290064">
  <ele>343.1</ele>
  <time>2026-09-01T19:51:15Z</time>
  <course>270.0</course>
  <speed>0.0</speed>
  <fix>3d</fix>
</trkpt>
<trkpt lat="-27.274439" lon="151.290064">
  <ele>343.12</ele>
  <time>2026-09-01T19:51:15Z</time>
  <course>10.71</course>
  <speed>0.0</speed>
  <fix>3d</fix>
</trkpt>
<trkpt lat="-27.274439" lon="151.290064">
  <ele>343.1</ele>
  <time>2026-09-01T19:51:15Z</time>
  <course>270.0</course>
  <speed>0.0</speed>
  <fix>3d</fix>
</trkpt>
<trkpt lat="-27.274439" lon="151.290064">
  <ele>343.12</ele>
  <time>2026-09-01T19:51:15Z</time>
  <course>10.71</course>
  <speed>0.0</speed>
  <fix>3d</fix>
</trkpt>
<trkpt lat="-27.274439" lon="151.290064">
  <ele>343.1</ele>
  <time>2026-09-01T19:51:15Z</time>
  <course>270.0</course>
  <speed>0.0</speed>
  <fix>3d</fix>
</trkpt>
<trkpt lat="-27.274439" lon="151.290064">
  <ele>343.12</ele>
  <time>2026-09-01T19:51:15Z</time>
  <course>10.71</course>
  <speed>0.0</speed>
  <fix>3d</fix>
</trkpt>
<trkpt lat="-27.274439" lon="151.290064">
  <ele>343.1</ele>
  <time>2026-09-01T19:51:15Z</time>
  <course>270.0</course>
  <speed>0.0</speed>
  <fix>3d</fix>
</trkpt>
<trkpt lat="-27.274439" lon="151.290064">
  <ele>343.12</ele>
  <time>2026-09-01T19:51:15Z</time>
  <course>10.71</course>
  <speed>0.0</speed>
  <fix>3d</fix>
</trkpt>
<trkpt lat="-27.274439" lon="151.290064">
  <ele>343.1</ele>
  <time>2026-09-01T19:51:15Z</time>
  <course>270.0</course>
  <speed>0.0</speed>
  <fix>3d</fix>
</trkpt>
<trkpt lat="-27.274439" lon="151.290064">
  <ele>343.13</ele>
  <time>2026-09-01T19:51:15Z</time>
  <course>10.71</course>
  <speed>0.0</speed>
  <fix>3d</fix>
</trkpt>
<trkpt lat="-27.274439" lon="151.290064">
  <ele>343.1</ele>
  <time>2026-09-01T19:51:15Z</time>
  <course>270.0</course>
  <speed>0.0</speed>
  <fix>3d</fix>
</trkpt>
<trkpt lat="-27.274439" lon="151.290064">
  <ele>343.13</ele>
  <time>2026-09-01T19:51:15Z</time>
  <course>10.71</course>
  <speed>0.0</speed>
  <fix>3d</fix>
</trkpt>
<trkpt lat="-27.274439" lon="151.290064">
  <ele>343.1</ele>
  <time>2026-09-01T19:51:15Z</time>
  <course>270.0</course>
  <speed>0.0</speed>
  <fix>3d</fix>
</trkpt>
<trkpt lat="-27.274439" lon="151.290064">
  <ele>343.13</ele>
  <time>2026-09-01T19:51:15Z</time>
  <course>10.71</course>
  <speed>0.0</speed>
  <fix>3d</fix>
</trkpt>
<trkpt lat="-27.274439" lon="151.290064">
  <ele>343.1</ele>
  <time>2026-09-01T19:51:15Z</time>
  <course>270.0</course>
  <speed>0.0</speed>
  <fix>3d</fix>
</trkpt>
<trkpt lat="-27.274439" lon="151.290064">
  <ele>343.13</ele>
  <time>2026-09-01T19:51:15Z</time>
  <course>10.71</course>
  <speed>0.0</speed>
  <fix>3d</fix>
</trkpt>
<trkpt lat="-27.274439" lon="151.290064">
  <ele>343.1</ele>
  <time>2026-09-01T19:51:15Z</time>
  <course>270.0</course>
  <speed>0.0</speed>
  <fix>3d</fix>
</trkpt>
<trkpt lat="-27.274439" lon="151.290064">
  <ele>343.13</ele>
  <time>2026-09-01T19:51:15Z</time>
  <course>10.71</course>
  <speed>0.0</speed>
  <fix>3d</fix>
</trkpt>
<trkpt lat="-27.274439" lon="151.290064">
  <ele>343.1</ele>
  <time>2026-09-01T19:51:15Z</time>
  <course>270.0</course>
  <speed>0.0</speed>
  <fix>3d</fix>
</trkpt>
<trkpt lat="-27.274439" lon="151.290064">
  <ele>343.13</ele>
  <time>2026-09-01T19:51:15Z</time>
  <course>10.71</course>
  <speed>0.0</speed>
  <fix>3d</fix>
</trkpt>
<trkpt lat="-27.274439" lon="151.290064">
  <ele>343.1</ele>
  <time>2026-09-01T19:51:15Z</time>
  <course>270.0</course>
  <speed>0.0</speed>
  <fix>3d</fix>
</trkpt>
<trkpt lat="-27.274439" lon="151.290064">
  <ele>343.13</ele>
  <time>2026-09-01T19:51:15Z</time>
  <course>10.71</course>
  <speed>0.0</speed>
  <fix>3d</fix>
</trkpt>
<trkpt lat="-27.274439" lon="151.290064">
  <ele>343.1</ele>
  <time>2026-09-01T19:51:15Z</time>
  <course>270.0</course>
  <speed>0.0</speed>
  <fix>3d</fix>
</trkpt>
<trkpt lat="-27.274439" lon="151.290064">
  <ele>343.14</ele>
  <time>2026-09-01T19:51:15Z</time>
  <course>10.71</course>
  <speed>0.0</speed>
  <fix>3d</fix>
</trkpt>
<trkpt lat="-27.274439" lon="151.290064">
  <ele>343.1</ele>
  <time>2026-09-01T19:51:15Z</time>
  <course>270.0</course>
  <speed>0.0</speed>
  <fix>3d</fix>
</trkpt>
<trkpt lat="-27.274439" lon="151.290064">
  <ele>343.14</ele>
  <time>2026-09-01T19:51:15Z</time>
  <course>10.71</course>
  <speed>0.0</speed>
  <fix>3d</fix>
</trkpt>
<trkpt lat="-27.274439" lon="151.290064">
  <ele>343.1</ele>
  <time>2026-09-01T19:51:15Z</time>
  <course>270.0</course>
  <speed>0.0</speed>
  <fix>3d</fix>
</trkpt>
<trkpt lat="-27.274439" lon="151.290064">
  <ele>343.14</ele>
  <time>2026-09-01T19:51:15Z</time>
  <course>10.71</course>
  <speed>0.0</speed>
  <fix>3d</fix>
</trkpt>
<trkpt lat="-27.274439" lon="151.290064">
  <ele>343.1</ele>
  <time>2026-09-01T19:51:15Z</time>
  <course>270.0</course>
  <speed>0.0</speed>
  <fix>3d</fix>
</trkpt>
<trkpt lat="-27.274439" lon="151.290064">
  <ele>343.14</ele>
  <time>2026-09-01T19:51:15Z</time>
  <course>10.7</course>
  <speed>0.0</speed>
  <fix>3d</fix>
</trkpt>
<trkpt lat="-27.274439" lon="151.290064">
  <ele>343.1</ele>
  <time>2026-09-01T19:51:15Z</time>
  <course>270.0</course>
  <speed>0.0</speed>
  <fix>3d</fix>
</trkpt>
<trkpt lat="-27.274439" lon="151.290064">
  <ele>343.14</ele>
  <time>2026-09-01T19:51:15Z</time>
  <course>10.7</course>
  <speed>0.0</speed>
  <fix>3d</fix>
</trkpt>
<trkpt lat="-27.274439" lon="151.290064">
  <ele>343.1</ele>
  <time>2026-09-01T19:51:15Z</time>
  <course>270.0</course>
  <speed>0.0</speed>
  <fix>3d</fix>
</trkpt>
<trkpt lat="-27.274439" lon="151.290064">
  <ele>343.14</ele>
  <time>2026-09-01T19:51:15Z</time>
  <course>10.7</course>
  <speed>0.0</speed>
  <fix>3d</fix>
</trkpt>
<trkpt lat="-27.274439" lon="151.290064">
  <ele>343.1</ele>
  <time>2026-09-01T19:51:15Z</time>
  <course>270.0</course>
  <speed>0.0</speed>
  <fix>3d</fix>
</trkpt>
<trkpt lat="-27.274439" lon="151.290064">
  <ele>343.15</ele>
  <time>2026-09-01T19:51:15Z</time>
  <course>10.7</course>
  <speed>0.0</speed>
  <fix>3d</fix>
</trkpt>
<trkpt lat="-27.274439" lon="151.290064">
  <ele>343.1</ele>
  <time>2026-09-01T19:51:15Z</time>
  <course>270.0</course>
  <speed>0.0</speed>
  <fix>3d</fix>
</trkpt>
<trkpt lat="-27.274439" lon="151.290064">
  <ele>343.15</ele>
  <time>2026-09-01T19:51:15Z</time>
  <course>10.7</course>
  <speed>0.0</speed>
  <fix>3d</fix>
</trkpt>
<trkpt lat="-27.274439" lon="151.290064">
  <ele>343.1</ele>
  <time>2026-09-01T19:51:15Z</time>
  <course>270.0</course>
  <speed>0.0</speed>
  <fix>3d</fix>
</trkpt>
<trkpt lat="-27.274439" lon="151.290064">
  <ele>343.15</ele>
  <time>2026-09-01T19:51:15Z</time>
  <course>10.7</course>
  <speed>0.0</speed>
  <fix>3d</fix>
</trkpt>
<trkpt lat="-27.274439" lon="151.290064">
  <ele>343.1</ele>
  <time>2026-09-01T19:51:15Z</time>
  <course>270.0</course>
  <speed>0.0</speed>
  <fix>3d</fix>
</trkpt>
<trkpt lat="-27.274439" lon="151.290064">
  <ele>343.15</ele>
  <time>2026-09-01T19:51:15Z</time>
  <course>10.7</course>
  <speed>0.0</speed>
  <fix>3d</fix>
</trkpt>
<trkpt lat="-27.274439" lon="151.290064">
  <ele>343.1</ele>
  <time>2026-09-01T19:51:15Z</time>
  <course>270.0</course>
  <speed>0.0</speed>
  <fix>3d</fix>
</trkpt>
<trkpt lat="-27.274439" lon="151.290064">
  <ele>343.09</ele>
  <time>2026-09-01T19:51:15Z</time>
  <course>10.7</course>
  <speed>0.0</speed>
  <fix>3d</fix>
</trkpt>
<trkpt lat="-27.274439" lon="151.290064">
  <ele>343.1</ele>
  <time>2026-09-01T19:51:15Z</time>
  <course>270.0</course>
  <speed>0.0</speed>
  <fix>3d</fix>
</trkpt>
<trkpt lat="-27.274439" lon="151.290064">
  <ele>343.09</ele>
  <time>2026-09-01T19:51:15Z</time>
  <course>10.7</course>
  <speed>0.0</speed>
  <fix>3d</fix>
</trkpt>
<trkpt lat="-27.274439" lon="151.290064">
  <ele>343.1</ele>
  <time>2026-09-01T19:51:15Z</time>
  <course>270.0</course>
  <speed>0.0</speed>
  <fix>3d</fix>
</trkpt>
<trkpt lat="-27.274439" lon="151.290064">
  <ele>343.09</ele>
  <time>2026-09-01T19:51:15Z</time>
  <course>10.7</course>
  <speed>0.0</speed>
  <fix>3d</fix>
</trkpt>
<trkpt lat="-27.274439" lon="151.290064">
  <ele>343.1</ele>
  <time>2026-09-01T19:51:15Z</time>
  <course>270.0</course>
  <speed>0.0</speed>
  <fix>3d</fix>
</trkpt>
<trkpt lat="-27.274439" lon="151.290064">
  <ele>343.09</ele>
  <time>2026-09-01T19:51:15Z</time>
  <course>10.7</course>
  <speed>0.0</speed>
  <fix>3d</fix>
</trkpt>
<trkpt lat="-27.274439" lon="151.290064">
  <ele>343.1</ele>
  <time>2026-09-01T19:51:15Z</time>
  <course>270.0</course>
  <speed>0.0</speed>
  <fix>3d</fix>
</trkpt>
<trkpt lat="-27.274439" lon="151.290064">
  <ele>343.09</ele>
  <time>2026-09-01T19:51:15Z</time>
  <course>10.7</course>
  <speed>0.0</speed>
  <fix>3d</fix>
</trkpt>
<trkpt lat="-27.274439" lon="151.290064">
  <ele>343.1</ele>
  <time>2026-09-01T19:51:15Z</time>
  <course>270.0</course>
  <speed>0.0</speed>
  <fix>3d</fix>
</trkpt>
<trkpt lat="-27.274439" lon="151.290064">
  <ele>343.09</ele>
  <time>2026-09-01T19:51:15Z</time>
  <course>10.7</course>
  <speed>0.0</speed>
  <fix>3d</fix>
</trkpt>
<trkpt lat="-27.274439" lon="151.290064">
  <ele>343.1</ele>
  <time>2026-09-01T19:51:15Z</time>
  <course>270.0</course>
  <speed>0.0</speed>
  <fix>3d</fix>
</trkpt>
<trkpt lat="-27.274439" lon="151.290064">
  <ele>343.09</ele>
  <time>2026-09-01T19:51:15Z</time>
  <course>10.7</course>
  <speed>0.0</speed>
  <fix>3d</fix>
</trkpt>
<trkpt lat="-27.274439" lon="151.290064">
  <ele>343.1</ele>
  <time>2026-09-01T19:51:15Z</time>
  <course>270.0</course>
  <speed>0.0</speed>
  <fix>3d</fix>
</trkpt>
<trkpt lat="-27.274439" lon="151.290064">
  <ele>343.09</ele>
  <time>2026-09-01T19:51:15Z</time>
  <course>10.7</course>
  <speed>0.0</speed>
  <fix>3d</fix>
</trkpt>
<trkpt lat="-27.274439" lon="151.290064">
  <ele>343.1</ele>
  <time>2026-09-01T19:51:15Z</time>
  <course>270.0</course>
  <speed>0.0</speed>
  <fix>3d</fix>
</trkpt>
<trkpt lat="-27.274439" lon="151.290064">
  <ele>343.09</ele>
  <time>2026-09-01T19:51:15Z</time>
  <course>10.7</course>
  <speed>0.0</speed>
  <fix>3d</fix>
</trkpt>
<trkpt lat="-27.274439" lon="151.290064">
  <ele>343.1</ele>
  <time>2026-09-01T19:51:15Z</time>
  <course>270.0</course>
  <speed>0.0</speed>
  <fix>3d</fix>
</trkpt>
<trkpt lat="-27.274439" lon="151.290064">
  <ele>343.09</ele>
  <time>2026-09-01T19:51:15Z</time>
  <course>10.7</course>
  <speed>0.0</speed>
  <fix>3d</fix>
</trkpt>
<trkpt lat="-27.274439" lon="151.290064">
  <ele>343.1</ele>
  <time>2026-09-01T19:51:15Z</time>
  <course>270.0</course>
  <speed>0.0</speed>
  <fix>3d</fix>
</trkpt>
<trkpt lat="-27.274439" lon="151.290064">
  <ele>343.09</ele>
  <time>2026-09-01T19:51:15Z</time>
  <course>10.7</course>
  <speed>0.0</speed>
  <fix>3d</fix>
</trkpt>
<trkpt lat="-27.274439" lon="151.290064">
  <ele>343.1</ele>
  <time>2026-09-01T19:51:15Z</time>
  <course>270.0</course>
  <speed>0.0</speed>
  <fix>3d</fix>
</trkpt>
<trkpt lat="-27.274439" lon="151.290064">
  <ele>343.09</ele>
  <time>2026-09-01T19:51:15Z</time>
  <course>10.7</course>
  <speed>0.0</speed>
  <fix>3d</fix>
</trkpt>
<trkpt lat="-27.274439" lon="151.290064">
  <ele>343.1</ele>
  <time>2026-09-01T19:51:15Z</time>
  <course>270.0</course>
  <speed>0.0</speed>
  <fix>3d</fix>
</trkpt>
<trkpt lat="-27.274439" lon="151.290064">
  <ele>343.09</ele>
  <time>2026-09-01T19:51:15Z</time>
  <course>10.7</course>
  <speed>0.0</speed>
  <fix>3d</fix>
</trkpt>
<trkpt lat="-27.274439" lon="151.290064">
  <ele>343.1</ele>
  <time>2026-09-01T19:51:15Z</time>
  <course>270.0</course>
  <speed>0.0</speed>
  <fix>3d</fix>
</trkpt>
<trkpt lat="-27.274439" lon="151.290064">
  <ele>343.09</ele>
  <time>2026-09-01T19:51:15Z</time>
  <course>10.7</course>
  <speed>0.0</speed>
  <fix>3d</fix>
</trkpt>
<trkpt lat="-27.274439" lon="151.290064">
  <ele>343.1</ele>
  <time>2026-09-01T19:51:15Z</time>
  <course>270.0</course>
  <speed>0.0</speed>
  <fix>3d</fix>
</trkpt>
<trkpt lat="-27.274439" lon="151.290064">
  <ele>343.09</ele>
  <time>2026-09-01T19:51:15Z</time>
  <course>10.7</course>
  <speed>0.0</speed>
  <fix>3d</fix>
</trkpt>
<trkpt lat="-27.274439" lon="151.290064">
  <ele>343.1</ele>
  <time>2026-09-01T19:51:15Z</time>
  <course>270.0</course>
  <speed>0.0</speed>
  <fix>3d</fix>
</trkpt>
<trkpt lat="-27.274439" lon="151.290064">
  <ele>343.09</ele>
  <time>2026-09-01T19:51:15Z</time>
  <course>10.7</course>
  <speed>0.0</speed>
  <fix>3d</fix>
</trkpt>
<trkpt lat="-27.274439" lon="151.290064">
  <ele>343.1</ele>
  <time>2026-09-01T19:51:15Z</time>
  <course>270.0</course>
  <speed>0.0</speed>
  <fix>3d</fix>
</trkpt>
<trkpt lat="-27.274439" lon="151.290064">
  <ele>343.09</ele>
  <time>2026-09-01T19:51:15Z</time>
  <course>10.7</course>
  <speed>0.0</speed>
  <fix>3d</fix>
</trkpt>
<trkpt lat="-27.274439" lon="151.290064">
  <ele>343.1</ele>
  <time>2026-09-01T19:51:15Z</time>
  <course>270.0</course>
  <speed>0.0</speed>
  <fix>3d</fix>
</trkpt>
<trkpt lat="-27.274439" lon="151.290064">
  <ele>343.08</ele>
  <time>2026-09-01T19:51:15Z</time>
  <course>10.7</course>
  <speed>0.0</speed>
  <fix>3d</fix>
</trkpt>
<trkpt lat="-27.274439" lon="151.290064">
  <ele>343.1</ele>
  <time>2026-09-01T19:51:15Z</time>
  <course>270.0</course>
  <speed>0.0</speed>
  <fix>3d</fix>
</trkpt>
<trkpt lat="-27.274439" lon="151.290064">
  <ele>343.08</ele>
  <time>2026-09-01T19:51:15Z</time>
  <course>10.7</course>
  <speed>0.0</speed>
  <fix>3d</fix>
</trkpt>
<trkpt lat="-27.274439" lon="151.290064">
  <ele>343.1</ele>
  <time>2026-09-01T19:51:15Z</time>
  <course>270.0</course>
  <speed>0.0</speed>
  <fix>3d</fix>
</trkpt>
<trkpt lat="-27.274439" lon="151.290064">
  <ele>343.08</ele>
  <time>2026-09-01T19:51:15Z</time>
  <course>10.7</course>
  <speed>0.0</speed>
  <fix>3d</fix>
</trkpt>
<trkpt lat="-27.274439" lon="151.290064">
  <ele>343.1</ele>
  <time>2026-09-01T19:51:15Z</time>
  <course>270.0</course>
  <speed>0.0</speed>
  <fix>3d</fix>
</trkpt>
<trkpt lat="-27.274439" lon="151.290064">
  <ele>343.08</ele>
  <time>2026-09-01T19:51:15Z</time>
  <course>10.7</course>
  <speed>0.0</speed>
  <fix>3d</fix>
</trkpt>
<trkpt lat="-27.274439" lon="151.290064">
  <ele>343.1</ele>
  <time>2026-09-01T19:51:15Z</time>
  <course>270.0</course>
  <speed>0.0</speed>
  <fix>3d</fix>
</trkpt>
<trkpt lat="-27.274439" lon="151.290064">
  <ele>343.08</ele>
  <time>2026-09-01T19:51:15Z</time>
  <course>10.7</course>
  <speed>0.0</speed>
  <fix>3d</fix>
</trkpt>
<trkpt lat="-27.274439" lon="151.290064">
  <ele>343.1</ele>
  <time>2026-09-01T19:51:15Z</time>
  <course>270.0</course>
  <speed>0.0</speed>
  <fix>3d</fix>
</trkpt>
<trkpt lat="-27.274439" lon="151.290064">
  <ele>343.08</ele>
  <time>2026-09-01T19:51:15Z</time>
  <course>10.7</course>
  <speed>0.0</speed>
  <fix>3d</fix>
</trkpt>
<trkpt lat="-27.274439" lon="151.290064">
  <ele>343.1</ele>
  <time>2026-09-01T19:51:15Z</time>
  <course>270.0</course>
  <speed>0.0</speed>
  <fix>3d</fix>
</trkpt>
<trkpt lat="-27.274439" lon="151.290064">
  <ele>343.08</ele>
  <time>2026-09-01T19:51:15Z</time>
  <course>10.7</course>
  <speed>0.0</speed>
  <fix>3d</fix>
</trkpt>
<trkpt lat="-27.274439" lon="151.290064">
  <ele>343.1</ele>
  <time>2026-09-01T19:51:15Z</time>
  <course>270.0</course>
  <speed>0.0</speed>
  <fix>3d</fix>
</trkpt>
<trkpt lat="-27.274439" lon="151.290064">
  <ele>343.08</ele>
  <time>2026-09-01T19:51:15Z</time>
  <course>10.7</course>
  <speed>0.0</speed>
  <fix>3d</fix>
</trkpt>
<trkpt lat="-27.274439" lon="151.290064">
  <ele>343.1</ele>
  <time>2026-09-01T19:51:15Z</time>
  <course>270.0</course>
  <speed>0.0</speed>
  <fix>3d</fix>
</trkpt>
<trkpt lat="-27.274439" lon="151.290064">
  <ele>343.09</ele>
  <time>2026-09-01T19:51:15Z</time>
  <course>10.7</course>
  <speed>0.0</speed>
  <fix>3d</fix>
</trkpt>
<trkpt lat="-27.274439" lon="151.290064">
  <ele>343.1</ele>
  <time>2026-09-01T19:51:15Z</time>
  <course>270.0</course>
  <speed>0.0</speed>
  <fix>3d</fix>
</trkpt>
<trkpt lat="-27.274439" lon="151.290064">
  <ele>343.09</ele>
  <time>2026-09-01T19:51:15Z</time>
  <course>10.7</course>
  <speed>0.0</speed>
  <fix>3d</fix>
</trkpt>
<trkpt lat="-27.274439" lon="151.290064">
  <ele>343.1</ele>
  <time>2026-09-01T19:51:15Z</time>
  <course>270.0</course>
  <speed>0.0</speed>
  <fix>3d</fix>
</trkpt>
<trkpt lat="-27.274439" lon="151.290064">
  <ele>343.09</ele>
  <time>2026-09-01T19:51:15Z</time>
  <course>10.7</course>
  <speed>0.0</speed>
  <fix>3d</fix>
</trkpt>
<trkpt lat="-27.274439" lon="151.290064">
  <ele>343.1</ele>
  <time>2026-09-01T19:51:15Z</time>
  <course>270.0</course>
  <speed>0.0</speed>
  <fix>3d</fix>
</trkpt>
<trkpt lat="-27.274439" lon="151.290064">
  <ele>343.09</ele>
  <time>2026-09-01T19:51:15Z</time>
  <course>10.7</course>
  <speed>0.0</speed>
  <fix>3d</fix>
</trkpt>
<trkpt lat="-27.274439" lon="151.290064">
  <ele>343.1</ele>
  <time>2026-09-01T19:51:15Z</time>
  <course>270.0</course>
  <speed>0.0</speed>
  <fix>3d</fix>
</trkpt>
<trkpt lat="-27.274439" lon="151.290064">
  <ele>343.09</ele>
  <time>2026-09-01T19:51:15Z</time>
  <course>10.7</course>
  <speed>0.0</speed>
  <fix>3d</fix>
</trkpt>
<trkpt lat="-27.274439" lon="151.290064">
  <ele>343.1</ele>
  <time>2026-09-01T19:51:15Z</time>
  <course>270.0</course>
  <speed>0.0</speed>
  <fix>3d</fix>
</trkpt>
<trkpt lat="-27.274439" lon="151.290064">
  <ele>343.09</ele>
  <time>2026-09-01T19:51:15Z</time>
  <course>10.7</course>
  <speed>0.0</speed>
  <fix>3d</fix>
</trkpt>
<trkpt lat="-27.274439" lon="151.290064">
  <ele>343.1</ele>
  <time>2026-09-01T19:51:15Z</time>
  <course>270.0</course>
  <speed>0.0</speed>
  <fix>3d</fix>
</trkpt>
<trkpt lat="-27.274439" lon="151.290064">
  <ele>343.09</ele>
  <time>2026-09-01T19:51:15Z</time>
  <course>10.7</course>
  <speed>0.0</speed>
  <fix>3d</fix>
</trkpt>
<trkpt lat="-27.274439" lon="151.290064">
  <ele>343.1</ele>
  <time>2026-09-01T19:51:15Z</time>
  <course>270.0</course>
  <speed>0.0</speed>
  <fix>3d</fix>
</trkpt>
<trkpt lat="-27.274439" lon="151.290064">
  <ele>343.09</ele>
  <time>2026-09-01T19:51:15Z</time>
  <course>10.7</course>
  <speed>0.0</speed>
  <fix>3d</fix>
</trkpt>
<trkpt lat="-27.274439" lon="151.290064">
  <ele>343.1</ele>
  <time>2026-09-01T19:51:15Z</time>
  <course>270.0</course>
  <speed>0.0</speed>
  <fix>3d</fix>
</trkpt>
<trkpt lat="-27.274439" lon="151.290064">
  <ele>343.09</ele>
  <time>2026-09-01T19:51:15Z</time>
  <course>10.7</course>
  <speed>0.0</speed>
  <fix>3d</fix>
</trkpt>
<trkpt lat="-27.274439" lon="151.290064">
  <ele>343.1</ele>
  <time>2026-09-01T19:51:15Z</time>
  <course>270.0</course>
  <speed>0.0</speed>
  <fix>3d</fix>
</trkpt>
<trkpt lat="-27.274439" lon="151.290064">
  <ele>343.09</ele>
  <time>2026-09-01T19:51:15Z</time>
  <course>10.7</course>
  <speed>0.0</speed>
  <fix>3d</fix>
</trkpt>
<trkpt lat="-27.274439" lon="151.290064">
  <ele>343.1</ele>
  <time>2026-09-01T19:51:15Z</time>
  <course>270.0</course>
  <speed>0.0</speed>
  <fix>3d</fix>
</trkpt>
<trkpt lat="-27.274439" lon="151.290064">
  <ele>343.09</ele>
  <time>2026-09-01T19:51:15Z</time>
  <course>10.7</course>
  <speed>0.0</speed>
  <fix>3d</fix>
</trkpt>
<trkpt lat="-27.274439" lon="151.290064">
  <ele>343.1</ele>
  <time>2026-09-01T19:51:15Z</time>
  <course>270.0</course>
  <speed>0.0</speed>
  <fix>3d</fix>
</trkpt>
<trkpt lat="-27.274439" lon="151.290064">
  <ele>343.09</ele>
  <time>2026-09-01T19:51:15Z</time>
  <course>10.7</course>
  <speed>0.0</speed>
  <fix>3d</fix>
</trkpt>
<trkpt lat="-27.274439" lon="151.290064">
  <ele>343.1</ele>
  <time>2026-09-01T19:51:15Z</time>
  <course>270.0</course>
  <speed>0.0</speed>
  <fix>3d</fix>
</trkpt>
<trkpt lat="-27.274439" lon="151.290064">
  <ele>343.09</ele>
  <time>2026-09-01T19:51:15Z</time>
  <course>10.69</course>
  <speed>0.0</speed>
  <fix>3d</fix>
</trkpt>
<trkpt lat="-27.274439" lon="151.290064">
  <ele>343.1</ele>
  <time>2026-09-01T19:51:15Z</time>
  <course>270.0</course>
  <speed>0.0</speed>
  <fix>3d</fix>
</trkpt>
<trkpt lat="-27.274439" lon="151.290064">
  <ele>343.09</ele>
  <time>2026-09-01T19:51:15Z</time>
  <course>10.69</course>
  <speed>0.0</speed>
  <fix>3d</fix>
</trkpt>
<trkpt lat="-27.274439" lon="151.290064">
  <ele>343.1</ele>
  <time>2026-09-01T19:51:15Z</time>
  <course>270.0</course>
  <speed>0.0</speed>
  <fix>3d</fix>
</trkpt>
<trkpt lat="-27.274439" lon="151.290064">
  <ele>343.09</ele>
  <time>2026-09-01T19:51:15Z</time>
  <course>10.69</course>
  <speed>0.0</speed>
  <fix>3d</fix>
</trkpt>
<trkpt lat="-27.274439" lon="151.290064">
  <ele>343.1</ele>
  <time>2026-09-01T19:51:15Z</time>
  <course>270.0</course>
  <speed>0.0</speed>
  <fix>3d</fix>
</trkpt>
<trkpt lat="-27.274439" lon="151.290064">
  <ele>343.09</ele>
  <time>2026-09-01T19:51:15Z</time>
  <course>10.69</course>
  <speed>0.0</speed>
  <fix>3d</fix>
</trkpt>
<trkpt lat="-27.274439" lon="151.290064">
  <ele>343.1</ele>
  <time>2026-09-01T19:51:15Z</time>
  <course>270.0</course>
  <speed>0.0</speed>
  <fix>3d</fix>
</trkpt>
<trkpt lat="-27.274439" lon="151.290064">
  <ele>343.09</ele>
  <time>2026-09-01T19:51:15Z</time>
  <course>10.69</course>
  <speed>0.0</speed>
  <fix>3d</fix>
</trkpt>
<trkpt lat="-27.274439" lon="151.290064">
  <ele>343.1</ele>
  <time>2026-09-01T19:51:15Z</time>
  <course>270.0</course>
  <speed>0.0</speed>
  <fix>3d</fix>
</trkpt>
<trkpt lat="-27.274439" lon="151.290064">
  <ele>343.09</ele>
  <time>2026-09-01T19:51:15Z</time>
  <course>10.69</course>
  <speed>0.0</speed>
  <fix>3d</fix>
</trkpt>
<trkpt lat="-27.274439" lon="151.290064">
  <ele>343.1</ele>
  <time>2026-09-01T19:51:15Z</time>
  <course>270.0</course>
  <speed>0.0</speed>
  <fix>3d</fix>
</trkpt>
<trkpt lat="-27.274439" lon="151.290064">
  <ele>343.08</ele>
  <time>2026-09-01T19:51:15Z</time>
  <course>10.69</course>
  <speed>0.0</speed>
  <fix>3d</fix>
</trkpt>
<trkpt lat="-27.274439" lon="151.290064">
  <ele>343.1</ele>
  <time>2026-09-01T19:51:15Z</time>
  <course>270.0</course>
  <speed>0.0</speed>
  <fix>3d</fix>
</trkpt>
<trkpt lat="-27.274439" lon="151.290064">
  <ele>343.08</ele>
  <time>2026-09-01T19:51:15Z</time>
  <course>10.69</course>
  <speed>0.0</speed>
  <fix>3d</fix>
</trkpt>
<trkpt lat="-27.274439" lon="151.290064">
  <ele>343.1</ele>
  <time>2026-09-01T19:51:15Z</time>
  <course>270.0</course>
  <speed>0.0</speed>
  <fix>3d</fix>
</trkpt>
<trkpt lat="-27.274439" lon="151.290064">
  <ele>343.07</ele>
  <time>2026-09-01T19:51:15Z</time>
  <course>10.69</course>
  <speed>0.0</speed>
  <fix>3d</fix>
</trkpt>
<trkpt lat="-27.274439" lon="151.290064">
  <ele>343.1</ele>
  <time>2026-09-01T19:51:15Z</time>
  <course>270.0</course>
  <speed>0.0</speed>
  <fix>3d</fix>
</trkpt>
<trkpt lat="-27.274439" lon="151.290064">
  <ele>343.06</ele>
  <time>2026-09-01T19:51:15Z</time>
  <course>10.69</course>
  <speed>0.0</speed>
  <fix>3d</fix>
</trkpt>
<trkpt lat="-27.274439" lon="151.290064">
  <ele>343.1</ele>
  <time>2026-09-01T19:51:15Z</time>
  <course>270.0</course>
  <speed>0.0</speed>
  <fix>3d</fix>
</trkpt>
<trkpt lat="-27.274439" lon="151.290064">
  <ele>343.06</ele>
  <time>2026-09-01T19:51:15Z</time>
  <course>10.69</course>
  <speed>0.0</speed>
  <fix>3d</fix>
</trkpt>
<trkpt lat="-27.274439" lon="151.290064">
  <ele>343.1</ele>
  <time>2026-09-01T19:51:15Z</time>
  <course>270.0</course>
  <speed>0.0</speed>
  <fix>3d</fix>
</trkpt>
<trkpt lat="-27.274439" lon="151.290064">
  <ele>343.05</ele>
  <time>2026-09-01T19:51:15Z</time>
  <course>10.69</course>
  <speed>0.0</speed>
  <fix>3d</fix>
</trkpt>
<trkpt lat="-27.274439" lon="151.290064">
  <ele>343.1</ele>
  <time>2026-09-01T19:51:15Z</time>
  <course>270.0</course>
  <speed>0.0</speed>
  <fix>3d</fix>
</trkpt>
<trkpt lat="-27.274439" lon="151.290064">
  <ele>343.05</ele>
  <time>2026-09-01T19:51:16Z</time>
  <course>10.69</course>
  <speed>0.0</speed>
  <fix>3d</fix>
</trkpt>
<trkpt lat="-27.274439" lon="151.290064">
  <ele>343.1</ele>
  <time>2026-09-01T19:51:16Z</time>
  <course>270.0</course>
  <speed>0.0</speed>
  <fix>3d</fix>
</trkpt>
<trkpt lat="-27.274439" lon="151.290064">
  <ele>343.05</ele>
  <time>2026-09-01T19:51:16Z</time>
  <course>10.69</course>
  <speed>0.0</speed>
  <fix>3d</fix>
</trkpt>
<trkpt lat="-27.274439" lon="151.290064">
  <ele>343.1</ele>
  <time>2026-09-01T19:51:16Z</time>
  <course>270.0</course>
  <speed>0.0</speed>
  <fix>3d</fix>
</trkpt>
<trkpt lat="-27.274439" lon="151.290064">
  <ele>343.04</ele>
  <time>2026-09-01T19:51:16Z</time>
  <course>10.69</course>
  <speed>0.0</speed>
  <fix>3d</fix>
</trkpt>
<trkpt lat="-27.274439" lon="151.290064">
  <ele>343.1</ele>
  <time>2026-09-01T19:51:16Z</time>
  <course>270.0</course>
  <speed>0.0</speed>
  <fix>3d</fix>
</trkpt>
<trkpt lat="-27.274439" lon="151.290064">
  <ele>343.04</ele>
  <time>2026-09-01T19:51:16Z</time>
  <course>10.69</course>
  <speed>0.0</speed>
  <fix>3d</fix>
</trkpt>
<trkpt lat="-27.274439" lon="151.290064">
  <ele>343.1</ele>
  <time>2026-09-01T19:51:16Z</time>
  <course>270.0</course>
  <speed>0.0</speed>
  <fix>3d</fix>
</trkpt>
<trkpt lat="-27.274439" lon="151.290064">
  <ele>343.03</ele>
  <time>2026-09-01T19:51:16Z</time>
  <course>10.69</course>
  <speed>0.0</speed>
  <fix>3d</fix>
</trkpt>
<trkpt lat="-27.274439" lon="151.290064">
  <ele>343.1</ele>
  <time>2026-09-01T19:51:16Z</time>
  <course>270.0</course>
  <speed>0.0</speed>
  <fix>3d</fix>
</trkpt>
<trkpt lat="-27.274439" lon="151.290064">
  <ele>343.03</ele>
  <time>2026-09-01T19:51:16Z</time>
  <course>10.69</course>
  <speed>0.0</speed>
  <fix>3d</fix>
</trkpt>
<trkpt lat="-27.274439" lon="151.290064">
  <ele>343.1</ele>
  <time>2026-09-01T19:51:16Z</time>
  <course>270.0</course>
  <speed>0.0</speed>
  <fix>3d</fix>
</trkpt>
<trkpt lat="-27.274439" lon="151.290064">
  <ele>343.03</ele>
  <time>2026-09-01T19:51:16Z</time>
  <course>10.69</course>
  <speed>0.0</speed>
  <fix>3d</fix>
</trkpt>
<trkpt lat="-27.274439" lon="151.290064">
  <ele>343.1</ele>
  <time>2026-09-01T19:51:16Z</time>
  <course>270.0</course>
  <speed>0.0</speed>
  <fix>3d</fix>
</trkpt>
<trkpt lat="-27.274439" lon="151.290064">
  <ele>343.02</ele>
  <time>2026-09-01T19:51:16Z</time>
  <course>10.69</course>
  <speed>0.0</speed>
  <fix>3d</fix>
</trkpt>
<trkpt lat="-27.274439" lon="151.290064">
  <ele>343.1</ele>
  <time>2026-09-01T19:51:16Z</time>
  <course>270.0</course>
  <speed>0.0</speed>
  <fix>3d</fix>
</trkpt>
<trkpt lat="-27.274439" lon="151.290064">
  <ele>343.02</ele>
  <time>2026-09-01T19:51:16Z</time>
  <course>10.69</course>
  <speed>0.0</speed>
  <fix>3d</fix>
</trkpt>
<trkpt lat="-27.274439" lon="151.290064">
  <ele>343.1</ele>
  <time>2026-09-01T19:51:16Z</time>
  <course>270.0</course>
  <speed>0.0</speed>
  <fix>3d</fix>
</trkpt>
<trkpt lat="-27.274439" lon="151.290064">
  <ele>343.01</ele>
  <time>2026-09-01T19:51:16Z</time>
  <course>10.69</course>
  <speed>0.0</speed>
  <fix>3d</fix>
</trkpt>
<trkpt lat="-27.274439" lon="151.290064">
  <ele>343.1</ele>
  <time>2026-09-01T19:51:16Z</time>
  <course>270.0</course>
  <speed>0.0</speed>
  <fix>3d</fix>
</trkpt>
<trkpt lat="-27.274439" lon="151.290064">
  <ele>343.01</ele>
  <time>2026-09-01T19:51:16Z</time>
  <course>10.69</course>
  <speed>0.0</speed>
  <fix>3d</fix>
</trkpt>
<trkpt lat="-27.274439" lon="151.290064">
  <ele>343.1</ele>
  <time>2026-09-01T19:51:16Z</time>
  <course>270.0</course>
  <speed>0.0</speed>
  <fix>3d</fix>
</trkpt>
<trkpt lat="-27.274439" lon="151.290064">
  <ele>343.01</ele>
  <time>2026-09-01T19:51:16Z</time>
  <course>10.69</course>
  <speed>0.0</speed>
  <fix>3d</fix>
</trkpt>
<trkpt lat="-27.274439" lon="151.290064">
  <ele>343.1</ele>
  <time>2026-09-01T19:51:16Z</time>
  <course>270.0</course>
  <speed>0.0</speed>
  <fix>3d</fix>
</trkpt>
<trkpt lat="-27.274439" lon="151.290064">
  <ele>343.0</ele>
  <time>2026-09-01T19:51:16Z</time>
  <course>10.69</course>
  <speed>0.0</speed>
  <fix>3d</fix>
</trkpt>
<trkpt lat="-27.274439" lon="151.290064">
  <ele>343.1</ele>
  <time>2026-09-01T19:51:16Z</time>
  <course>270.0</course>
  <speed>0.0</speed>
  <fix>3d</fix>
</trkpt>
<trkpt lat="-27.274439" lon="151.290064">
  <ele>343.0</ele>
  <time>2026-09-01T19:51:16Z</time>
  <course>10.69</course>
  <speed>0.0</speed>
  <fix>3d</fix>
</trkpt>
<trkpt lat="-27.274439" lon="151.290064">
  <ele>343.1</ele>
  <time>2026-09-01T19:51:16Z</time>
  <course>270.0</course>
  <speed>0.0</speed>
  <fix>3d</fix>
</trkpt>
<trkpt lat="-27.274439" lon="151.290064">
  <ele>342.99</ele>
  <time>2026-09-01T19:51:16Z</time>
  <course>10.69</course>
  <speed>0.0</speed>
  <fix>3d</fix>
</trkpt>
<trkpt lat="-27.274439" lon="151.290064">
  <ele>343.1</ele>
  <time>2026-09-01T19:51:16Z</time>
  <course>270.0</course>
  <speed>0.0</speed>
  <fix>3d</fix>
</trkpt>
<trkpt lat="-27.274439" lon="151.290064">
  <ele>342.99</ele>
  <time>2026-09-01T19:51:16Z</time>
  <course>10.69</course>
  <speed>0.0</speed>
  <fix>3d</fix>
</trkpt>
<trkpt lat="-27.274439" lon="151.290064">
  <ele>343.1</ele>
  <time>2026-09-01T19:51:16Z</time>
  <course>270.0</course>
  <speed>0.0</speed>
  <fix>3d</fix>
</trkpt>
<trkpt lat="-27.274439" lon="151.290064">
  <ele>342.99</ele>
  <time>2026-09-01T19:51:16Z</time>
  <course>10.69</course>
  <speed>0.0</speed>
  <fix>3d</fix>
</trkpt>
<trkpt lat="-27.274439" lon="151.290064">
  <ele>343.1</ele>
  <time>2026-09-01T19:51:16Z</time>
  <course>270.0</course>
  <speed>0.0</speed>
  <fix>3d</fix>
</trkpt>
<trkpt lat="-27.274439" lon="151.290064">
  <ele>342.98</ele>
  <time>2026-09-01T19:51:16Z</time>
  <course>10.69</course>
  <speed>0.0</speed>
  <fix>3d</fix>
</trkpt>
<trkpt lat="-27.274439" lon="151.290064">
  <ele>343.1</ele>
  <time>2026-09-01T19:51:16Z</time>
  <course>270.0</course>
  <speed>0.0</speed>
  <fix>3d</fix>
</trkpt>
<trkpt lat="-27.274439" lon="151.290064">
  <ele>342.98</ele>
  <time>2026-09-01T19:51:16Z</time>
  <course>10.69</course>
  <speed>0.0</speed>
  <fix>3d</fix>
</trkpt>
<trkpt lat="-27.274439" lon="151.290064">
  <ele>343.1</ele>
  <time>2026-09-01T19:51:16Z</time>
  <course>270.0</course>
  <speed>0.0</speed>
  <fix>3d</fix>
</trkpt>
<trkpt lat="-27.274439" lon="151.290064">
  <ele>342.98</ele>
  <time>2026-09-01T19:51:16Z</time>
  <course>10.69</course>
  <speed>0.0</speed>
  <fix>3d</fix>
</trkpt>
<trkpt lat="-27.274439" lon="151.290064">
  <ele>343.1</ele>
  <time>2026-09-01T19:51:16Z</time>
  <course>270.0</course>
  <speed>0.0</speed>
  <fix>3d</fix>
</trkpt>
<trkpt lat="-27.274439" lon="151.290064">
  <ele>342.98</ele>
  <time>2026-09-01T19:51:16Z</time>
  <course>10.69</course>
  <speed>0.0</speed>
  <fix>3d</fix>
</trkpt>
<trkpt lat="-27.274439" lon="151.290064">
  <ele>343.1</ele>
  <time>2026-09-01T19:51:16Z</time>
  <course>270.0</course>
  <speed>0.0</speed>
  <fix>3d</fix>
</trkpt>
<trkpt lat="-27.274439" lon="151.290064">
  <ele>342.98</ele>
  <time>2026-09-01T19:51:16Z</time>
  <course>10.69</course>
  <speed>0.0</speed>
  <fix>3d</fix>
</trkpt>
<trkpt lat="-27.274439" lon="151.290064">
  <ele>343.1</ele>
  <time>2026-09-01T19:51:16Z</time>
  <course>270.0</course>
  <speed>0.0</speed>
  <fix>3d</fix>
</trkpt>
<trkpt lat="-27.274439" lon="151.290064">
  <ele>342.98</ele>
  <time>2026-09-01T19:51:16Z</time>
  <course>10.69</course>
  <speed>0.0</speed>
  <fix>3d</fix>
</trkpt>
<trkpt lat="-27.274439" lon="151.290064">
  <ele>343.1</ele>
  <time>2026-09-01T19:51:16Z</time>
  <course>270.0</course>
  <speed>0.0</speed>
  <fix>3d</fix>
</trkpt>
<trkpt lat="-27.274439" lon="151.290064">
  <ele>342.98</ele>
  <time>2026-09-01T19:51:16Z</time>
  <course>10.68</course>
  <speed>0.0</speed>
  <fix>3d</fix>
</trkpt>
<trkpt lat="-27.274439" lon="151.290064">
  <ele>343.1</ele>
  <time>2026-09-01T19:51:16Z</time>
  <course>270.0</course>
  <speed>0.0</speed>
  <fix>3d</fix>
</trkpt>
<trkpt lat="-27.274439" lon="151.290064">
  <ele>342.97</ele>
  <time>2026-09-01T19:51:16Z</time>
  <course>10.68</course>
  <speed>0.0</speed>
  <fix>3d</fix>
</trkpt>
<trkpt lat="-27.274439" lon="151.290064">
  <ele>343.1</ele>
  <time>2026-09-01T19:51:16Z</time>
  <course>270.0</course>
  <speed>0.0</speed>
  <fix>3d</fix>
</trkpt>
<trkpt lat="-27.274439" lon="151.290064">
  <ele>342.97</ele>
  <time>2026-09-01T19:51:16Z</time>
  <course>10.68</course>
  <speed>0.0</speed>
  <fix>3d</fix>
</trkpt>
<trkpt lat="-27.274439" lon="151.290064">
  <ele>343.1</ele>
  <time>2026-09-01T19:51:16Z</time>
  <course>270.0</course>
  <speed>0.0</speed>
  <fix>3d</fix>
</trkpt>
<trkpt lat="-27.274439" lon="151.290064">
  <ele>342.97</ele>
  <time>2026-09-01T19:51:16Z</time>
  <course>10.68</course>
  <speed>0.0</speed>
  <fix>3d</fix>
</trkpt>
<trkpt lat="-27.274439" lon="151.290064">
  <ele>343.1</ele>
  <time>2026-09-01T19:51:16Z</time>
  <course>270.0</course>
  <speed>0.0</speed>
  <fix>3d</fix>
</trkpt>
<trkpt lat="-27.274439" lon="151.290064">
  <ele>342.97</ele>
  <time>2026-09-01T19:51:16Z</time>
  <course>10.68</course>
  <speed>0.0</speed>
  <fix>3d</fix>
</trkpt>
<trkpt lat="-27.274439" lon="151.290064">
  <ele>343.1</ele>
  <time>2026-09-01T19:51:16Z</time>
  <course>270.0</course>
  <speed>0.0</speed>
  <fix>3d</fix>
</trkpt>
<trkpt lat="-27.274439" lon="151.290064">
  <ele>342.96</ele>
  <time>2026-09-01T19:51:16Z</time>
  <course>10.68</course>
  <speed>0.0</speed>
  <fix>3d</fix>
</trkpt>
<trkpt lat="-27.274439" lon="151.290064">
  <ele>343.1</ele>
  <time>2026-09-01T19:51:16Z</time>
  <course>270.0</course>
  <speed>0.0</speed>
  <fix>3d</fix>
</trkpt>
<trkpt lat="-27.274439" lon="151.290064">
  <ele>342.96</ele>
  <time>2026-09-01T19:51:16Z</time>
  <course>10.68</course>
  <speed>0.0</speed>
  <fix>3d</fix>
</trkpt>
<trkpt lat="-27.274439" lon="151.290064">
  <ele>343.1</ele>
  <time>2026-09-01T19:51:16Z</time>
  <course>270.0</course>
  <speed>0.0</speed>
  <fix>3d</fix>
</trkpt>
<trkpt lat="-27.274439" lon="151.290064">
  <ele>342.95</ele>
  <time>2026-09-01T19:51:16Z</time>
  <course>10.68</course>
  <speed>0.0</speed>
  <fix>3d</fix>
</trkpt>
<trkpt lat="-27.274439" lon="151.290064">
  <ele>343.1</ele>
  <time>2026-09-01T19:51:16Z</time>
  <course>270.0</course>
  <speed>0.0</speed>
  <fix>3d</fix>
</trkpt>
<trkpt lat="-27.274439" lon="151.290064">
  <ele>343.09</ele>
  <time>2026-09-01T19:51:16Z</time>
  <course>10.68</course>
  <speed>0.0</speed>
  <fix>3d</fix>
</trkpt>
<trkpt lat="-27.274439" lon="151.290064">
  <ele>343.1</ele>
  <time>2026-09-01T19:51:16Z</time>
  <course>270.0</course>
  <speed>0.0</speed>
  <fix>3d</fix>
</trkpt>
<trkpt lat="-27.274439" lon="151.290064">
  <ele>343.1</ele>
  <time>2026-09-01T19:51:16Z</time>
  <course>10.68</course>
  <speed>0.0</speed>
  <fix>3d</fix>
</trkpt>
<trkpt lat="-27.274439" lon="151.290064">
  <ele>343.1</ele>
  <time>2026-09-01T19:51:16Z</time>
  <course>270.0</course>
  <speed>0.0</speed>
  <fix>3d</fix>
</trkpt>
<trkpt lat="-27.274439" lon="151.290064">
  <ele>343.1</ele>
  <time>2026-09-01T19:51:16Z</time>
  <course>10.68</course>
  <speed>0.0</speed>
  <fix>3d</fix>
</trkpt>
<trkpt lat="-27.274439" lon="151.290064">
  <ele>343.1</ele>
  <time>2026-09-01T19:51:16Z</time>
  <course>270.0</course>
  <speed>0.0</speed>
  <fix>3d</fix>
</trkpt>
<trkpt lat="-27.274439" lon="151.290064">
  <ele>343.1</ele>
  <time>2026-09-01T19:51:16Z</time>
  <course>10.68</course>
  <speed>0.0</speed>
  <fix>3d</fix>
</trkpt>
<trkpt lat="-27.274439" lon="151.290064">
  <ele>343.1</ele>
  <time>2026-09-01T19:51:16Z</time>
  <course>270.0</course>
  <speed>0.0</speed>
  <fix>3d</fix>
</trkpt>
<trkpt lat="-27.274439" lon="151.290064">
  <ele>343.11</ele>
  <time>2026-09-01T19:51:16Z</time>
  <course>10.68</course>
  <speed>0.0</speed>
  <fix>3d</fix>
</trkpt>
<trkpt lat="-27.274439" lon="151.290064">
  <ele>343.1</ele>
  <time>2026-09-01T19:51:16Z</time>
  <course>270.0</course>
  <speed>0.0</speed>
  <fix>3d</fix>
</trkpt>
<trkpt lat="-27.274439" lon="151.290064">
  <ele>343.11</ele>
  <time>2026-09-01T19:51:16Z</time>
  <course>10.68</course>
  <speed>0.0</speed>
  <fix>3d</fix>
</trkpt>
<trkpt lat="-27.274439" lon="151.290064">
  <ele>343.1</ele>
  <time>2026-09-01T19:51:16Z</time>
  <course>270.0</course>
  <speed>0.0</speed>
  <fix>3d</fix>
</trkpt>
<trkpt lat="-27.274439" lon="151.290064">
  <ele>343.11</ele>
  <time>2026-09-01T19:51:16Z</time>
  <course>10.68</course>
  <speed>0.0</speed>
  <fix>3d</fix>
</trkpt>
<trkpt lat="-27.274439" lon="151.290064">
  <ele>343.1</ele>
  <time>2026-09-01T19:51:16Z</time>
  <course>270.0</course>
  <speed>0.0</speed>
  <fix>3d</fix>
</trkpt>
<trkpt lat="-27.274439" lon="151.290064">
  <ele>343.12</ele>
  <time>2026-09-01T19:51:16Z</time>
  <course>10.68</course>
  <speed>0.0</speed>
  <fix>3d</fix>
</trkpt>
<trkpt lat="-27.274439" lon="151.290064">
  <ele>343.1</ele>
  <time>2026-09-01T19:51:16Z</time>
  <course>270.0</course>
  <speed>0.0</speed>
  <fix>3d</fix>
</trkpt>
<trkpt lat="-27.274439" lon="151.290064">
  <ele>343.12</ele>
  <time>2026-09-01T19:51:16Z</time>
  <course>10.68</course>
  <speed>0.0</speed>
  <fix>3d</fix>
</trkpt>
<trkpt lat="-27.274439" lon="151.290064">
  <ele>343.1</ele>
  <time>2026-09-01T19:51:16Z</time>
  <course>270.0</course>
  <speed>0.0</speed>
  <fix>3d</fix>
</trkpt>
<trkpt lat="-27.274439" lon="151.290064">
  <ele>343.13</ele>
  <time>2026-09-01T19:51:16Z</time>
  <course>10.68</course>
  <speed>0.0</speed>
  <fix>3d</fix>
</trkpt>
<trkpt lat="-27.274439" lon="151.290064">
  <ele>343.1</ele>
  <time>2026-09-01T19:51:16Z</time>
  <course>270.0</course>
  <speed>0.0</speed>
  <fix>3d</fix>
</trkpt>
<trkpt lat="-27.274439" lon="151.290064">
  <ele>343.13</ele>
  <time>2026-09-01T19:51:16Z</time>
  <course>10.68</course>
  <speed>0.0</speed>
  <fix>3d</fix>
</trkpt>
<trkpt lat="-27.274439" lon="151.290064">
  <ele>343.1</ele>
  <time>2026-09-01T19:51:16Z</time>
  <course>270.0</course>
  <speed>0.0</speed>
  <fix>3d</fix>
</trkpt>
<trkpt lat="-27.274439" lon="151.290064">
  <ele>343.13</ele>
  <time>2026-09-01T19:51:16Z</time>
  <course>10.68</course>
  <speed>0.0</speed>
  <fix>3d</fix>
</trkpt>
<trkpt lat="-27.274439" lon="151.290064">
  <ele>343.1</ele>
  <time>2026-09-01T19:51:16Z</time>
  <course>270.0</course>
  <speed>0.0</speed>
  <fix>3d</fix>
</trkpt>
<trkpt lat="-27.274439" lon="151.290064">
  <ele>343.14</ele>
  <time>2026-09-01T19:51:16Z</time>
  <course>10.68</course>
  <speed>0.0</speed>
  <fix>3d</fix>
</trkpt>
<trkpt lat="-27.274439" lon="151.290064">
  <ele>343.1</ele>
  <time>2026-09-01T19:51:16Z</time>
  <course>270.0</course>
  <speed>0.0</speed>
  <fix>3d</fix>
</trkpt>
<trkpt lat="-27.274439" lon="151.290064">
  <ele>343.14</ele>
  <time>2026-09-01T19:51:16Z</time>
  <course>10.68</course>
  <speed>0.0</speed>
  <fix>3d</fix>
</trkpt>
<trkpt lat="-27.274439" lon="151.290064">
  <ele>343.1</ele>
  <time>2026-09-01T19:51:16Z</time>
  <course>270.0</course>
  <speed>0.0</speed>
  <fix>3d</fix>
</trkpt>
<trkpt lat="-27.274439" lon="151.290064">
  <ele>343.14</ele>
  <time>2026-09-01T19:51:16Z</time>
  <course>10.68</course>
  <speed>0.0</speed>
  <fix>3d</fix>
</trkpt>
<trkpt lat="-27.274439" lon="151.290064">
  <ele>343.1</ele>
  <time>2026-09-01T19:51:16Z</time>
  <course>270.0</course>
  <speed>0.0</speed>
  <fix>3d</fix>
</trkpt>
<trkpt lat="-27.274439" lon="151.290064">
  <ele>343.15</ele>
  <time>2026-09-01T19:51:16Z</time>
  <course>10.68</course>
  <speed>0.0</speed>
  <fix>3d</fix>
</trkpt>
<trkpt lat="-27.274439" lon="151.290064">
  <ele>343.1</ele>
  <time>2026-09-01T19:51:16Z</time>
  <course>270.0</course>
  <speed>0.0</speed>
  <fix>3d</fix>
</trkpt>
<trkpt lat="-27.274439" lon="151.290064">
  <ele>343.15</ele>
  <time>2026-09-01T19:51:16Z</time>
  <course>10.68</course>
  <speed>0.0</speed>
  <fix>3d</fix>
</trkpt>
<trkpt lat="-27.274439" lon="151.290064">
  <ele>343.1</ele>
  <time>2026-09-01T19:51:16Z</time>
  <course>270.0</course>
  <speed>0.0</speed>
  <fix>3d</fix>
</trkpt>
<trkpt lat="-27.274439" lon="151.290064">
  <ele>343.15</ele>
  <time>2026-09-01T19:51:16Z</time>
  <course>10.68</course>
  <speed>0.0</speed>
  <fix>3d</fix>
</trkpt>
<trkpt lat="-27.274439" lon="151.290064">
  <ele>343.1</ele>
  <time>2026-09-01T19:51:16Z</time>
  <course>270.0</course>
  <speed>0.0</speed>
  <fix>3d</fix>
</trkpt>
<trkpt lat="-27.274439" lon="151.290064">
  <ele>343.15</ele>
  <time>2026-09-01T19:51:16Z</time>
  <course>10.68</course>
  <speed>0.0</speed>
  <fix>3d</fix>
</trkpt>
<trkpt lat="-27.274439" lon="151.290064">
  <ele>343.1</ele>
  <time>2026-09-01T19:51:16Z</time>
  <course>270.0</course>
  <speed>0.0</speed>
  <fix>3d</fix>
</trkpt>
<trkpt lat="-27.274439" lon="151.290064">
  <ele>343.16</ele>
  <time>2026-09-01T19:51:16Z</time>
  <course>10.68</course>
  <speed>0.0</speed>
  <fix>3d</fix>
</trkpt>
<trkpt lat="-27.274439" lon="151.290064">
  <ele>343.1</ele>
  <time>2026-09-01T19:51:16Z</time>
  <course>270.0</course>
  <speed>0.0</speed>
  <fix>3d</fix>
</trkpt>
<trkpt lat="-27.274439" lon="151.290064">
  <ele>343.16</ele>
  <time>2026-09-01T19:51:16Z</time>
  <course>10.67</course>
  <speed>0.0</speed>
  <fix>3d</fix>
</trkpt>
<trkpt lat="-27.274439" lon="151.290064">
  <ele>343.1</ele>
  <time>2026-09-01T19:51:16Z</time>
  <course>270.0</course>
  <speed>0.0</speed>
  <fix>3d</fix>
</trkpt>
<trkpt lat="-27.274439" lon="151.290064">
  <ele>343.16</ele>
  <time>2026-09-01T19:51:16Z</time>
  <course>10.67</course>
  <speed>0.0</speed>
  <fix>3d</fix>
</trkpt>
<trkpt lat="-27.274439" lon="151.290064">
  <ele>343.1</ele>
  <time>2026-09-01T19:51:16Z</time>
  <course>270.0</course>
  <speed>0.0</speed>
  <fix>3d</fix>
</trkpt>
<trkpt lat="-27.274439" lon="151.290064">
  <ele>343.17</ele>
  <time>2026-09-01T19:51:16Z</time>
  <course>10.67</course>
  <speed>0.0</speed>
  <fix>3d</fix>
</trkpt>
<trkpt lat="-27.274439" lon="151.290064">
  <ele>343.1</ele>
  <time>2026-09-01T19:51:16Z</time>
  <course>270.0</course>
  <speed>0.0</speed>
  <fix>3d</fix>
</trkpt>
<trkpt lat="-27.274439" lon="151.290064">
  <ele>343.17</ele>
  <time>2026-09-01T19:51:16Z</time>
  <course>10.67</course>
  <speed>0.0</speed>
  <fix>3d</fix>
</trkpt>
<trkpt lat="-27.274439" lon="151.290064">
  <ele>343.1</ele>
  <time>2026-09-01T19:51:16Z</time>
  <course>270.0</course>
  <speed>0.0</speed>
  <fix>3d</fix>
</trkpt>
<trkpt lat="-27.274439" lon="151.290064">
  <ele>343.18</ele>
  <time>2026-09-01T19:51:16Z</time>
  <course>10.67</course>
  <speed>0.0</speed>
  <fix>3d</fix>
</trkpt>
<trkpt lat="-27.274439" lon="151.290064">
  <ele>343.1</ele>
  <time>2026-09-01T19:51:16Z</time>
  <course>270.0</course>
  <speed>0.0</speed>
  <fix>3d</fix>
</trkpt>
<trkpt lat="-27.274439" lon="151.290064">
  <ele>343.1</ele>
  <time>2026-09-01T19:51:16Z</time>
  <course>10.67</course>
  <speed>0.0</speed>
  <fix>3d</fix>
</trkpt>
<trkpt lat="-27.274439" lon="151.290064">
  <ele>343.1</ele>
  <time>2026-09-01T19:51:16Z</time>
  <course>270.0</course>
  <speed>0.0</speed>
  <fix>3d</fix>
</trkpt>
<trkpt lat="-27.274439" lon="151.290064">
  <ele>343.1</ele>
  <time>2026-09-01T19:51:16Z</time>
  <course>10.67</course>
  <speed>0.0</speed>
  <fix>3d</fix>
</trkpt>
<trkpt lat="-27.274439" lon="151.290064">
  <ele>343.1</ele>
  <time>2026-09-01T19:51:16Z</time>
  <course>270.0</course>
  <speed>0.0</speed>
  <fix>3d</fix>
</trkpt>
<trkpt lat="-27.274439" lon="151.290064">
  <ele>343.1</ele>
  <time>2026-09-01T19:51:16Z</time>
  <course>10.67</course>
  <speed>0.0</speed>
  <fix>3d</fix>
</trkpt>
<trkpt lat="-27.274439" lon="151.290064">
  <ele>343.1</ele>
  <time>2026-09-01T19:51:16Z</time>
  <course>270.0</course>
  <speed>0.0</speed>
  <fix>3d</fix>
</trkpt>
<trkpt lat="-27.274439" lon="151.290064">
  <ele>343.1</ele>
  <time>2026-09-01T19:51:16Z</time>
  <course>10.67</course>
  <speed>0.0</speed>
  <fix>3d</fix>
</trkpt>
<trkpt lat="-27.274439" lon="151.290064">
  <ele>343.1</ele>
  <time>2026-09-01T19:51:16Z</time>
  <course>270.0</course>
  <speed>0.0</speed>
  <fix>3d</fix>
</trkpt>
<trkpt lat="-27.274439" lon="151.290064">
  <ele>343.11</ele>
  <time>2026-09-01T19:51:16Z</time>
  <course>10.67</course>
  <speed>0.0</speed>
  <fix>3d</fix>
</trkpt>
<trkpt lat="-27.274439" lon="151.290064">
  <ele>343.1</ele>
  <time>2026-09-01T19:51:16Z</time>
  <course>270.0</course>
  <speed>0.0</speed>
  <fix>3d</fix>
</trkpt>
<trkpt lat="-27.274439" lon="151.290064">
  <ele>343.11</ele>
  <time>2026-09-01T19:51:16Z</time>
  <course>10.67</course>
  <speed>0.0</speed>
  <fix>3d</fix>
</trkpt>
<trkpt lat="-27.274439" lon="151.290064">
  <ele>343.1</ele>
  <time>2026-09-01T19:51:16Z</time>
  <course>270.0</course>
  <speed>0.0</speed>
  <fix>3d</fix>
</trkpt>
<trkpt lat="-27.274439" lon="151.290064">
  <ele>343.11</ele>
  <time>2026-09-01T19:51:16Z</time>
  <course>10.67</course>
  <speed>0.0</speed>
  <fix>3d</fix>
</trkpt>
<trkpt lat="-27.274439" lon="151.290064">
  <ele>343.1</ele>
  <time>2026-09-01T19:51:16Z</time>
  <course>270.0</course>
  <speed>0.0</speed>
  <fix>3d</fix>
</trkpt>
<trkpt lat="-27.274439" lon="151.290064">
  <ele>343.12</ele>
  <time>2026-09-01T19:51:16Z</time>
  <course>10.67</course>
  <speed>0.0</speed>
  <fix>3d</fix>
</trkpt>
<trkpt lat="-27.274439" lon="151.290064">
  <ele>343.1</ele>
  <time>2026-09-01T19:51:16Z</time>
  <course>270.0</course>
  <speed>0.0</speed>
  <fix>3d</fix>
</trkpt>
<trkpt lat="-27.274439" lon="151.290064">
  <ele>343.12</ele>
  <time>2026-09-01T19:51:16Z</time>
  <course>10.67</course>
  <speed>0.0</speed>
  <fix>3d</fix>
</trkpt>
<trkpt lat="-27.274439" lon="151.290064">
  <ele>343.1</ele>
  <time>2026-09-01T19:51:16Z</time>
  <course>270.0</course>
  <speed>0.0</speed>
  <fix>3d</fix>
</trkpt>
<trkpt lat="-27.274439" lon="151.290064">
  <ele>343.12</ele>
  <time>2026-09-01T19:51:16Z</time>
  <course>10.67</course>
  <speed>0.0</speed>
  <fix>3d</fix>
</trkpt>
<trkpt lat="-27.274439" lon="151.290064">
  <ele>343.1</ele>
  <time>2026-09-01T19:51:16Z</time>
  <course>270.0</course>
  <speed>0.0</speed>
  <fix>3d</fix>
</trkpt>
<trkpt lat="-27.274439" lon="151.290064">
  <ele>343.13</ele>
  <time>2026-09-01T19:51:16Z</time>
  <course>10.67</course>
  <speed>0.01</speed>
  <fix>3d</fix>
</trkpt>
<trkpt lat="-27.274439" lon="151.290064">
  <ele>343.1</ele>
  <time>2026-09-01T19:51:16Z</time>
  <course>270.0</course>
  <speed>0.0</speed>
  <fix>3d</fix>
</trkpt>
<trkpt lat="-27.274439" lon="151.290064">
  <ele>343.13</ele>
  <time>2026-09-01T19:51:16Z</time>
  <course>10.67</course>
  <speed>0.01</speed>
  <fix>3d</fix>
</trkpt>
<trkpt lat="-27.274439" lon="151.290064">
  <ele>343.1</ele>
  <time>2026-09-01T19:51:16Z</time>
  <course>270.0</course>
  <speed>0.0</speed>
  <fix>3d</fix>
</trkpt>
<trkpt lat="-27.274439" lon="151.290064">
  <ele>343.14</ele>
  <time>2026-09-01T19:51:16Z</time>
  <course>10.67</course>
  <speed>0.01</speed>
  <fix>3d</fix>
</trkpt>
<trkpt lat="-27.274439" lon="151.290064">
  <ele>343.1</ele>
  <time>2026-09-01T19:51:16Z</time>
  <course>270.0</course>
  <speed>0.0</speed>
  <fix>3d</fix>
</trkpt>
<trkpt lat="-27.274439" lon="151.290064">
  <ele>343.14</ele>
  <time>2026-09-01T19:51:16Z</time>
  <course>10.67</course>
  <speed>0.01</speed>
  <fix>3d</fix>
</trkpt>
<trkpt lat="-27.274439" lon="151.290064">
  <ele>343.1</ele>
  <time>2026-09-01T19:51:16Z</time>
  <course>270.0</course>
  <speed>0.0</speed>
  <fix>3d</fix>
</trkpt>
<trkpt lat="-27.274439" lon="151.290064">
  <ele>343.15</ele>
  <time>2026-09-01T19:51:16Z</time>
  <course>10.67</course>
  <speed>0.01</speed>
  <fix>3d</fix>
</trkpt>
<trkpt lat="-27.274439" lon="151.290064">
  <ele>343.1</ele>
  <time>2026-09-01T19:51:16Z</time>
  <course>270.0</course>
  <speed>0.0</speed>
  <fix>3d</fix>
</trkpt>
<trkpt lat="-27.274439" lon="151.290064">
  <ele>343.1</ele>
  <time>2026-09-01T19:51:16Z</time>
  <course>10.67</course>
  <speed>0.01</speed>
  <fix>3d</fix>
</trkpt>
<trkpt lat="-27.274439" lon="151.290064">
  <ele>343.1</ele>
  <time>2026-09-01T19:51:16Z</time>
  <course>270.0</course>
  <speed>0.0</speed>
  <fix>3d</fix>
</trkpt>
<trkpt lat="-27.274439" lon="151.290064">
  <ele>343.09</ele>
  <time>2026-09-01T19:51:16Z</time>
  <course>10.67</course>
  <speed>0.01</speed>
  <fix>3d</fix>
</trkpt>
<trkpt lat="-27.274439" lon="151.290064">
  <ele>343.1</ele>
  <time>2026-09-01T19:51:16Z</time>
  <course>270.0</course>
  <speed>0.0</speed>
  <fix>3d</fix>
</trkpt>
<trkpt lat="-27.274439" lon="151.290064">
  <ele>343.09</ele>
  <time>2026-09-01T19:51:16Z</time>
  <course>10.67</course>
  <speed>0.01</speed>
  <fix>3d</fix>
</trkpt>
<trkpt lat="-27.274439" lon="151.290064">
  <ele>343.1</ele>
  <time>2026-09-01T19:51:16Z</time>
  <course>270.0</course>
  <speed>0.0</speed>
  <fix>3d</fix>
</trkpt>
<trkpt lat="-27.274439" lon="151.290064">
  <ele>343.09</ele>
  <time>2026-09-01T19:51:16Z</time>
  <course>10.67</course>
  <speed>0.01</speed>
  <fix>3d</fix>
</trkpt>
<trkpt lat="-27.274439" lon="151.290064">
  <ele>343.1</ele>
  <time>2026-09-01T19:51:16Z</time>
  <course>270.0</course>
  <speed>0.0</speed>
  <fix>3d</fix>
</trkpt>
<trkpt lat="-27.274439" lon="151.290064">
  <ele>343.09</ele>
  <time>2026-09-01T19:51:16Z</time>
  <course>10.67</course>
  <speed>0.01</speed>
  <fix>3d</fix>
</trkpt>
<trkpt lat="-27.274439" lon="151.290064">
  <ele>343.1</ele>
  <time>2026-09-01T19:51:16Z</time>
  <course>270.0</course>
  <speed>0.0</speed>
  <fix>3d</fix>
</trkpt>
<trkpt lat="-27.274439" lon="151.290064">
  <ele>343.08</ele>
  <time>2026-09-01T19:51:16Z</time>
  <course>10.66</course>
  <speed>0.01</speed>
  <fix>3d</fix>
</trkpt>
<trkpt lat="-27.274439" lon="151.290064">
  <ele>343.1</ele>
  <time>2026-09-01T19:51:16Z</time>
  <course>270.0</course>
  <speed>0.0</speed>
  <fix>3d</fix>
</trkpt>
<trkpt lat="-27.274439" lon="151.290064">
  <ele>343.08</ele>
  <time>2026-09-01T19:51:16Z</time>
  <course>10.66</course>
  <speed>0.01</speed>
  <fix>3d</fix>
</trkpt>
<trkpt lat="-27.274439" lon="151.290064">
  <ele>343.1</ele>
  <time>2026-09-01T19:51:16Z</time>
  <course>270.0</course>
  <speed>0.0</speed>
  <fix>3d</fix>
</trkpt>
<trkpt lat="-27.274439" lon="151.290064">
  <ele>343.08</ele>
  <time>2026-09-01T19:51:16Z</time>
  <course>10.66</course>
  <speed>0.01</speed>
  <fix>3d</fix>
</trkpt>
<trkpt lat="-27.274439" lon="151.290064">
  <ele>343.1</ele>
  <time>2026-09-01T19:51:16Z</time>
  <course>270.0</course>
  <speed>0.0</speed>
  <fix>3d</fix>
</trkpt>
<trkpt lat="-27.274439" lon="151.290064">
  <ele>343.08</ele>
  <time>2026-09-01T19:51:16Z</time>
  <course>10.66</course>
  <speed>0.01</speed>
  <fix>3d</fix>
</trkpt>
<trkpt lat="-27.274439" lon="151.290064">
  <ele>343.1</ele>
  <time>2026-09-01T19:51:16Z</time>
  <course>270.0</course>
  <speed>0.0</speed>
  <fix>3d</fix>
</trkpt>
<trkpt lat="-27.274439" lon="151.290064">
  <ele>343.08</ele>
  <time>2026-09-01T19:51:16Z</time>
  <course>10.66</course>
  <speed>0.01</speed>
  <fix>3d</fix>
</trkpt>
<trkpt lat="-27.274439" lon="151.290064">
  <ele>343.1</ele>
  <time>2026-09-01T19:51:16Z</time>
  <course>270.0</course>
  <speed>0.0</speed>
  <fix>3d</fix>
</trkpt>
<trkpt lat="-27.274439" lon="151.290064">
  <ele>343.07</ele>
  <time>2026-09-01T19:51:16Z</time>
  <course>10.66</course>
  <speed>0.01</speed>
  <fix>3d</fix>
</trkpt>
<trkpt lat="-27.274439" lon="151.290064">
  <ele>343.1</ele>
  <time>2026-09-01T19:51:16Z</time>
  <course>270.0</course>
  <speed>0.0</speed>
  <fix>3d</fix>
</trkpt>
<trkpt lat="-27.274439" lon="151.290064">
  <ele>343.07</ele>
  <time>2026-09-01T19:51:16Z</time>
  <course>10.66</course>
  <speed>0.01</speed>
  <fix>3d</fix>
</trkpt>
<trkpt lat="-27.274439" lon="151.290064">
  <ele>343.1</ele>
  <time>2026-09-01T19:51:16Z</time>
  <course>270.0</course>
  <speed>0.0</speed>
  <fix>3d</fix>
</trkpt>
<trkpt lat="-27.274439" lon="151.290064">
  <ele>343.06</ele>
  <time>2026-09-01T19:51:16Z</time>
  <course>10.66</course>
  <speed>0.01</speed>
  <fix>3d</fix>
</trkpt>
<trkpt lat="-27.274439" lon="151.290064">
  <ele>343.1</ele>
  <time>2026-09-01T19:51:16Z</time>
  <course>270.0</course>
  <speed>0.0</speed>
  <fix>3d</fix>
</trkpt>
<trkpt lat="-27.274439" lon="151.290064">
  <ele>343.06</ele>
  <time>2026-09-01T19:51:16Z</time>
  <course>10.66</course>
  <speed>0.01</speed>
  <fix>3d</fix>
</trkpt>
<trkpt lat="-27.274439" lon="151.290064">
  <ele>343.1</ele>
  <time>2026-09-01T19:51:16Z</time>
  <course>270.0</course>
  <speed>0.0</speed>
  <fix>3d</fix>
</trkpt>
<trkpt lat="-27.274439" lon="151.290064">
  <ele>343.06</ele>
  <time>2026-09-01T19:51:16Z</time>
  <course>10.66</course>
  <speed>0.01</speed>
  <fix>3d</fix>
</trkpt>
<trkpt lat="-27.274439" lon="151.290064">
  <ele>343.1</ele>
  <time>2026-09-01T19:51:16Z</time>
  <course>270.0</course>
  <speed>0.0</speed>
  <fix>3d</fix>
</trkpt>
<trkpt lat="-27.274439" lon="151.290064">
  <ele>343.05</ele>
  <time>2026-09-01T19:51:16Z</time>
  <course>10.66</course>
  <speed>0.01</speed>
  <fix>3d</fix>
</trkpt>
<trkpt lat="-27.274439" lon="151.290064">
  <ele>343.1</ele>
  <time>2026-09-01T19:51:16Z</time>
  <course>270.0</course>
  <speed>0.0</speed>
  <fix>3d</fix>
</trkpt>
<trkpt lat="-27.274439" lon="151.290064">
  <ele>343.05</ele>
  <time>2026-09-01T19:51:16Z</time>
  <course>10.66</course>
  <speed>0.01</speed>
  <fix>3d</fix>
</trkpt>
<trkpt lat="-27.274439" lon="151.290064">
  <ele>343.1</ele>
  <time>2026-09-01T19:51:16Z</time>
  <course>270.0</course>
  <speed>0.0</speed>
  <fix>3d</fix>
</trkpt>
<trkpt lat="-27.274439" lon="151.290064">
  <ele>343.05</ele>
  <time>2026-09-01T19:51:16Z</time>
  <course>10.66</course>
  <speed>0.01</speed>
  <fix>3d</fix>
</trkpt>
<trkpt lat="-27.274439" lon="151.290064">
  <ele>343.1</ele>
  <time>2026-09-01T19:51:16Z</time>
  <course>270.0</course>
  <speed>0.0</speed>
  <fix>3d</fix>
</trkpt>
<trkpt lat="-27.274439" lon="151.290064">
  <ele>343.05</ele>
  <time>2026-09-01T19:51:16Z</time>
  <course>10.66</course>
  <speed>0.01</speed>
  <fix>3d</fix>
</trkpt>
<trkpt lat="-27.274439" lon="151.290064">
  <ele>343.1</ele>
  <time>2026-09-01T19:51:16Z</time>
  <course>270.0</course>
  <speed>0.0</speed>
  <fix>3d</fix>
</trkpt>
<trkpt lat="-27.274439" lon="151.290064">
  <ele>343.04</ele>
  <time>2026-09-01T19:51:16Z</time>
  <course>10.66</course>
  <speed>0.01</speed>
  <fix>3d</fix>
</trkpt>
<trkpt lat="-27.274439" lon="151.290064">
  <ele>343.1</ele>
  <time>2026-09-01T19:51:16Z</time>
  <course>270.0</course>
  <speed>0.0</speed>
  <fix>3d</fix>
</trkpt>
<trkpt lat="-27.274439" lon="151.290064">
  <ele>343.04</ele>
  <time>2026-09-01T19:51:16Z</time>
  <course>10.66</course>
  <speed>0.01</speed>
  <fix>3d</fix>
</trkpt>
<trkpt lat="-27.274439" lon="151.290064">
  <ele>343.1</ele>
  <time>2026-09-01T19:51:16Z</time>
  <course>270.0</course>
  <speed>0.0</speed>
  <fix>3d</fix>
</trkpt>
<trkpt lat="-27.274439" lon="151.290064">
  <ele>343.03</ele>
  <time>2026-09-01T19:51:16Z</time>
  <course>10.66</course>
  <speed>0.01</speed>
  <fix>3d</fix>
</trkpt>
<trkpt lat="-27.274439" lon="151.290064">
  <ele>343.1</ele>
  <time>2026-09-01T19:51:16Z</time>
  <course>270.0</course>
  <speed>0.0</speed>
  <fix>3d</fix>
</trkpt>
<trkpt lat="-27.274439" lon="151.290064">
  <ele>343.03</ele>
  <time>2026-09-01T19:51:16Z</time>
  <course>10.66</course>
  <speed>0.01</speed>
  <fix>3d</fix>
</trkpt>
<trkpt lat="-27.274439" lon="151.290064">
  <ele>343.1</ele>
  <time>2026-09-01T19:51:16Z</time>
  <course>270.0</course>
  <speed>0.0</speed>
  <fix>3d</fix>
</trkpt>
<trkpt lat="-27.274439" lon="151.290064">
  <ele>343.02</ele>
  <time>2026-09-01T19:51:16Z</time>
  <course>10.66</course>
  <speed>0.01</speed>
  <fix>3d</fix>
</trkpt>
<trkpt lat="-27.274439" lon="151.290064">
  <ele>343.1</ele>
  <time>2026-09-01T19:51:16Z</time>
  <course>270.0</course>
  <speed>0.0</speed>
  <fix>3d</fix>
</trkpt>
<trkpt lat="-27.274439" lon="151.290064">
  <ele>343.02</ele>
  <time>2026-09-01T19:51:16Z</time>
  <course>10.66</course>
  <speed>0.01</speed>
  <fix>3d</fix>
</trkpt>
<trkpt lat="-27.274439" lon="151.290064">
  <ele>343.1</ele>
  <time>2026-09-01T19:51:16Z</time>
  <course>270.0</course>
  <speed>0.0</speed>
  <fix>3d</fix>
</trkpt>
<trkpt lat="-27.274439" lon="151.290064">
  <ele>343.02</ele>
  <time>2026-09-01T19:51:16Z</time>
  <course>10.66</course>
  <speed>0.01</speed>
  <fix>3d</fix>
</trkpt>
<trkpt lat="-27.274439" lon="151.290064">
  <ele>343.1</ele>
  <time>2026-09-01T19:51:16Z</time>
  <course>270.0</course>
  <speed>0.0</speed>
  <fix>3d</fix>
</trkpt>
<trkpt lat="-27.274439" lon="151.290064">
  <ele>343.01</ele>
  <time>2026-09-01T19:51:16Z</time>
  <course>10.66</course>
  <speed>0.01</speed>
  <fix>3d</fix>
</trkpt>
<trkpt lat="-27.274439" lon="151.290064">
  <ele>343.1</ele>
  <time>2026-09-01T19:51:16Z</time>
  <course>270.0</course>
  <speed>0.0</speed>
  <fix>3d</fix>
</trkpt>
<trkpt lat="-27.274439" lon="151.290064">
  <ele>343.01</ele>
  <time>2026-09-01T19:51:16Z</time>
  <course>10.66</course>
  <speed>0.01</speed>
  <fix>3d</fix>
</trkpt>
<trkpt lat="-27.274439" lon="151.290064">
  <ele>343.1</ele>
  <time>2026-09-01T19:51:16Z</time>
  <course>270.0</course>
  <speed>0.0</speed>
  <fix>3d</fix>
</trkpt>
<trkpt lat="-27.274439" lon="151.290064">
  <ele>343.01</ele>
  <time>2026-09-01T19:51:16Z</time>
  <course>10.66</course>
  <speed>0.01</speed>
  <fix>3d</fix>
</trkpt>
<trkpt lat="-27.274439" lon="151.290064">
  <ele>343.1</ele>
  <time>2026-09-01T19:51:16Z</time>
  <course>270.0</course>
  <speed>0.0</speed>
  <fix>3d</fix>
</trkpt>
<trkpt lat="-27.274439" lon="151.290064">
  <ele>343.01</ele>
  <time>2026-09-01T19:51:16Z</time>
  <course>10.66</course>
  <speed>0.01</speed>
  <fix>3d</fix>
</trkpt>
<trkpt lat="-27.274439" lon="151.290064">
  <ele>343.1</ele>
  <time>2026-09-01T19:51:16Z</time>
  <course>270.0</course>
  <speed>0.0</speed>
  <fix>3d</fix>
</trkpt>
<trkpt lat="-27.274439" lon="151.290064">
  <ele>343.01</ele>
  <time>2026-09-01T19:51:16Z</time>
  <course>10.66</course>
  <speed>0.01</speed>
  <fix>3d</fix>
</trkpt>
<trkpt lat="-27.274439" lon="151.290064">
  <ele>343.1</ele>
  <time>2026-09-01T19:51:16Z</time>
  <course>270.0</course>
  <speed>0.0</speed>
  <fix>3d</fix>
</trkpt>
<trkpt lat="-27.274439" lon="151.290064">
  <ele>343.01</ele>
  <time>2026-09-01T19:51:16Z</time>
  <course>10.66</course>
  <speed>0.01</speed>
  <fix>3d</fix>
</trkpt>
<trkpt lat="-27.274439" lon="151.290064">
  <ele>343.1</ele>
  <time>2026-09-01T19:51:16Z</time>
  <course>270.0</course>
  <speed>0.0</speed>
  <fix>3d</fix>
</trkpt>
<trkpt lat="-27.274439" lon="151.290064">
  <ele>343.01</ele>
  <time>2026-09-01T19:51:16Z</time>
  <course>10.66</course>
  <speed>0.01</speed>
  <fix>3d</fix>
</trkpt>
<trkpt lat="-27.274439" lon="151.290064">
  <ele>343.1</ele>
  <time>2026-09-01T19:51:16Z</time>
  <course>270.0</course>
  <speed>0.0</speed>
  <fix>3d</fix>
</trkpt>
<trkpt lat="-27.274439" lon="151.290064">
  <ele>343.0</ele>
  <time>2026-09-01T19:51:16Z</time>
  <course>10.65</course>
  <speed>0.01</speed>
  <fix>3d</fix>
</trkpt>
<trkpt lat="-27.274439" lon="151.290064">
  <ele>343.1</ele>
  <time>2026-09-01T19:51:16Z</time>
  <course>270.0</course>
  <speed>0.0</speed>
  <fix>3d</fix>
</trkpt>
<trkpt lat="-27.274439" lon="151.290064">
  <ele>343.0</ele>
  <time>2026-09-01T19:51:16Z</time>
  <course>10.65</course>
  <speed>0.01</speed>
  <fix>3d</fix>
</trkpt>
<trkpt lat="-27.274439" lon="151.290064">
  <ele>343.1</ele>
  <time>2026-09-01T19:51:16Z</time>
  <course>270.0</course>
  <speed>0.0</speed>
  <fix>3d</fix>
</trkpt>
<trkpt lat="-27.274439" lon="151.290064">
  <ele>343.0</ele>
  <time>2026-09-01T19:51:16Z</time>
  <course>10.65</course>
  <speed>0.01</speed>
  <fix>3d</fix>
</trkpt>
<trkpt lat="-27.274439" lon="151.290064">
  <ele>343.1</ele>
  <time>2026-09-01T19:51:16Z</time>
  <course>270.0</course>
  <speed>0.0</speed>
  <fix>3d</fix>
</trkpt>
<trkpt lat="-27.274439" lon="151.290064">
  <ele>343.0</ele>
  <time>2026-09-01T19:51:16Z</time>
  <course>10.65</course>
  <speed>0.01</speed>
  <fix>3d</fix>
</trkpt>
<trkpt lat="-27.274439" lon="151.290064">
  <ele>343.1</ele>
  <time>2026-09-01T19:51:16Z</time>
  <course>270.0</course>
  <speed>0.0</speed>
  <fix>3d</fix>
</trkpt>
<trkpt lat="-27.274439" lon="151.290064">
  <ele>342.99</ele>
  <time>2026-09-01T19:51:16Z</time>
  <course>10.65</course>
  <speed>0.01</speed>
  <fix>3d</fix>
</trkpt>
<trkpt lat="-27.274439" lon="151.290064">
  <ele>343.1</ele>
  <time>2026-09-01T19:51:16Z</time>
  <course>270.0</course>
  <speed>0.0</speed>
  <fix>3d</fix>
</trkpt>
<trkpt lat="-27.274439" lon="151.290064">
  <ele>342.99</ele>
  <time>2026-09-01T19:51:16Z</time>
  <course>10.65</course>
  <speed>0.01</speed>
  <fix>3d</fix>
</trkpt>
<trkpt lat="-27.274439" lon="151.290064">
  <ele>343.1</ele>
  <time>2026-09-01T19:51:16Z</time>
  <course>270.0</course>
  <speed>0.0</speed>
  <fix>3d</fix>
</trkpt>
<trkpt lat="-27.274439" lon="151.290064">
  <ele>342.99</ele>
  <time>2026-09-01T19:51:16Z</time>
  <course>10.65</course>
  <speed>0.01</speed>
  <fix>3d</fix>
</trkpt>
<trkpt lat="-27.274439" lon="151.290064">
  <ele>343.1</ele>
  <time>2026-09-01T19:51:16Z</time>
  <course>270.0</course>
  <speed>0.0</speed>
  <fix>3d</fix>
</trkpt>
<trkpt lat="-27.274439" lon="151.290064">
  <ele>343.09</ele>
  <time>2026-09-01T19:51:16Z</time>
  <course>10.65</course>
  <speed>0.01</speed>
  <fix>3d</fix>
</trkpt>
<trkpt lat="-27.274439" lon="151.290064">
  <ele>343.1</ele>
  <time>2026-09-01T19:51:16Z</time>
  <course>270.0</course>
  <speed>0.0</speed>
  <fix>3d</fix>
</trkpt>
<trkpt lat="-27.274439" lon="151.290064">
  <ele>343.09</ele>
  <time>2026-09-01T19:51:16Z</time>
  <course>10.65</course>
  <speed>0.01</speed>
  <fix>3d</fix>
</trkpt>
<trkpt lat="-27.274439" lon="151.290064">
  <ele>343.1</ele>
  <time>2026-09-01T19:51:16Z</time>
  <course>270.0</course>
  <speed>0.0</speed>
  <fix>3d</fix>
</trkpt>
<trkpt lat="-27.274439" lon="151.290064">
  <ele>343.09</ele>
  <time>2026-09-01T19:51:16Z</time>
  <course>10.65</course>
  <speed>0.01</speed>
  <fix>3d</fix>
</trkpt>
<trkpt lat="-27.274439" lon="151.290064">
  <ele>343.1</ele>
  <time>2026-09-01T19:51:16Z</time>
  <course>270.0</course>
  <speed>0.0</speed>
  <fix>3d</fix>
</trkpt>
<trkpt lat="-27.274439" lon="151.290064">
  <ele>343.09</ele>
  <time>2026-09-01T19:51:16Z</time>
  <course>10.65</course>
  <speed>0.01414213562373095</speed>
  <fix>3d</fix>
</trkpt>
<trkpt lat="-27.274439" lon="151.290064">
  <ele>343.1</ele>
  <time>2026-09-01T19:51:16Z</time>
  <course>270.0</course>
  <speed>0.0</speed>
  <fix>3d</fix>
</trkpt>
<trkpt lat="-27.274439" lon="151.290064">
  <ele>343.09</ele>
  <time>2026-09-01T19:51:16Z</time>
  <course>10.65</course>
  <speed>0.01414213562373095</speed>
  <fix>3d</fix>
</trkpt>
<trkpt lat="-27.274439" lon="151.290064">
  <ele>343.1</ele>
  <time>2026-09-01T19:51:16Z</time>
  <course>270.0</course>
  <speed>0.0</speed>
  <fix>3d</fix>
</trkpt>
<trkpt lat="-27.274439" lon="151.290064">
  <ele>343.08</ele>
  <time>2026-09-01T19:51:16Z</time>
  <course>10.65</course>
  <speed>0.01414213562373095</speed>
  <fix>3d</fix>
</trkpt>
<trkpt lat="-27.274439" lon="151.290064">
  <ele>343.1</ele>
  <time>2026-09-01T19:51:16Z</time>
  <course>270.0</course>
  <speed>0.0</speed>
  <fix>3d</fix>
</trkpt>
<trkpt lat="-27.274439" lon="151.290064">
  <ele>343.08</ele>
  <time>2026-09-01T19:51:16Z</time>
  <course>10.65</course>
  <speed>0.01414213562373095</speed>
  <fix>3d</fix>
</trkpt>
<trkpt lat="-27.274439" lon="151.290064">
  <ele>343.1</ele>
  <time>2026-09-01T19:51:16Z</time>
  <course>270.0</course>
  <speed>0.0</speed>
  <fix>3d</fix>
</trkpt>
<trkpt lat="-27.2744391" lon="151.290064">
  <ele>343.08</ele>
  <time>2026-09-01T19:51:16Z</time>
  <course>10.65</course>
  <speed>0.01414213562373095</speed>
  <fix>3d</fix>
</trkpt>
<trkpt lat="-27.274439" lon="151.290064">
  <ele>343.1</ele>
  <time>2026-09-01T19:51:16Z</time>
  <course>270.0</course>
  <speed>0.0</speed>
  <fix>3d</fix>
</trkpt>
<trkpt lat="-27.2744391" lon="151.290064">
  <ele>343.08</ele>
  <time>2026-09-01T19:51:16Z</time>
  <course>10.65</course>
  <speed>0.01414213562373095</speed>
  <fix>3d</fix>
</trkpt>
<trkpt lat="-27.274439" lon="151.290064">
  <ele>343.1</ele>
  <time>2026-09-01T19:51:16Z</time>
  <course>270.0</course>
  <speed>0.0</speed>
  <fix>3d</fix>
</trkpt>
<trkpt lat="-27.2744391" lon="151.290064">
  <ele>343.08</ele>
  <time>2026-09-01T19:51:16Z</time>
  <course>10.65</course>
  <speed>0.01414213562373095</speed>
  <fix>3d</fix>
</trkpt>
<trkpt lat="-27.274439" lon="151.290064">
  <ele>343.1</ele>
  <time>2026-09-01T19:51:16Z</time>
  <course>270.0</course>
  <speed>0.0</speed>
  <fix>3d</fix>
</trkpt>
<trkpt lat="-27.2744391" lon="151.290064">
  <ele>343.07</ele>
  <time>2026-09-01T19:51:16Z</time>
  <course>10.65</course>
  <speed>0.01414213562373095</speed>
  <fix>3d</fix>
</trkpt>
<trkpt lat="-27.274439" lon="151.290064">
  <ele>343.1</ele>
  <time>2026-09-01T19:51:16Z</time>
  <course>270.0</course>
  <speed>0.0</speed>
  <fix>3d</fix>
</trkpt>
<trkpt lat="-27.2744391" lon="151.290064">
  <ele>343.07</ele>
  <time>2026-09-01T19:51:16Z</time>
  <course>10.65</course>
  <speed>0.01414213562373095</speed>
  <fix>3d</fix>
</trkpt>
<trkpt lat="-27.274439" lon="151.290064">
  <ele>343.1</ele>
  <time>2026-09-01T19:51:16Z</time>
  <course>270.0</course>
  <speed>0.0</speed>
  <fix>3d</fix>
</trkpt>
<trkpt lat="-27.2744391" lon="151.290064">
  <ele>343.07</ele>
  <time>2026-09-01T19:51:16Z</time>
  <course>10.65</course>
  <speed>0.01414213562373095</speed>
  <fix>3d</fix>
</trkpt>
<trkpt lat="-27.274439" lon="151.290064">
  <ele>343.1</ele>
  <time>2026-09-01T19:51:16Z</time>
  <course>270.0</course>
  <speed>0.0</speed>
  <fix>3d</fix>
</trkpt>
<trkpt lat="-27.2744391" lon="151.290064">
  <ele>343.07</ele>
  <time>2026-09-01T19:51:16Z</time>
  <course>10.65</course>
  <speed>0.01414213562373095</speed>
  <fix>3d</fix>
</trkpt>
<trkpt lat="-27.274439" lon="151.290064">
  <ele>343.1</ele>
  <time>2026-09-01T19:51:16Z</time>
  <course>270.0</course>
  <speed>0.0</speed>
  <fix>3d</fix>
</trkpt>
<trkpt lat="-27.2744391" lon="151.290064">
  <ele>343.07</ele>
  <time>2026-09-01T19:51:16Z</time>
  <course>10.65</course>
  <speed>0.01414213562373095</speed>
  <fix>3d</fix>
</trkpt>
<trkpt lat="-27.274439" lon="151.290064">
  <ele>343.1</ele>
  <time>2026-09-01T19:51:16Z</time>
  <course>270.0</course>
  <speed>0.0</speed>
  <fix>3d</fix>
</trkpt>
<trkpt lat="-27.2744391" lon="151.290064">
  <ele>343.08</ele>
  <time>2026-09-01T19:51:16Z</time>
  <course>10.65</course>
  <speed>0.01414213562373095</speed>
  <fix>3d</fix>
</trkpt>
<trkpt lat="-27.274439" lon="151.290064">
  <ele>343.1</ele>
  <time>2026-09-01T19:51:16Z</time>
  <course>270.0</course>
  <speed>0.0</speed>
  <fix>3d</fix>
</trkpt>
<trkpt lat="-27.2744391" lon="151.290064">
  <ele>343.08</ele>
  <time>2026-09-01T19:51:16Z</time>
  <course>10.65</course>
  <speed>0.01414213562373095</speed>
  <fix>3d</fix>
</trkpt>
<trkpt lat="-27.274439" lon="151.290064">
  <ele>343.1</ele>
  <time>2026-09-01T19:51:16Z</time>
  <course>270.0</course>
  <speed>0.0</speed>
  <fix>3d</fix>
</trkpt>
<trkpt lat="-27.2744391" lon="151.290064">
  <ele>343.07</ele>
  <time>2026-09-01T19:51:16Z</time>
  <course>10.65</course>
  <speed>0.01414213562373095</speed>
  <fix>3d</fix>
</trkpt>
<trkpt lat="-27.274439" lon="151.290064">
  <ele>343.1</ele>
  <time>2026-09-01T19:51:16Z</time>
  <course>270.0</course>
  <speed>0.0</speed>
  <fix>3d</fix>
</trkpt>
<trkpt lat="-27.2744391" lon="151.290064">
  <ele>343.07</ele>
  <time>2026-09-01T19:51:16Z</time>
  <course>10.65</course>
  <speed>0.01</speed>
  <fix>3d</fix>
</trkpt>
<trkpt lat="-27.274439" lon="151.290064">
  <ele>343.1</ele>
  <time>2026-09-01T19:51:16Z</time>
  <course>270.0</course>
  <speed>0.0</speed>
  <fix>3d</fix>
</trkpt>
<trkpt lat="-27.2744391" lon="151.290064">
  <ele>343.07</ele>
  <time>2026-09-01T19:51:16Z</time>
  <course>10.65</course>
  <speed>0.01</speed>
  <fix>3d</fix>
</trkpt>
<trkpt lat="-27.274439" lon="151.290064">
  <ele>343.1</ele>
  <time>2026-09-01T19:51:16Z</time>
  <course>270.0</course>
  <speed>0.0</speed>
  <fix>3d</fix>
</trkpt>
<trkpt lat="-27.2744391" lon="151.290064">
  <ele>343.07</ele>
  <time>2026-09-01T19:51:16Z</time>
  <course>10.64</course>
  <speed>0.01</speed>
  <fix>3d</fix>
</trkpt>
<trkpt lat="-27.274439" lon="151.290064">
  <ele>343.1</ele>
  <time>2026-09-01T19:51:16Z</time>
  <course>270.0</course>
  <speed>0.0</speed>
  <fix>3d</fix>
</trkpt>
<trkpt lat="-27.2744391" lon="151.290064">
  <ele>343.07</ele>
  <time>2026-09-01T19:51:16Z</time>
  <course>10.64</course>
  <speed>0.01</speed>
  <fix>3d</fix>
</trkpt>
<trkpt lat="-27.274439" lon="151.290064">
  <ele>343.1</ele>
  <time>2026-09-01T19:51:16Z</time>
  <course>270.0</course>
  <speed>0.0</speed>
  <fix>3d</fix>
</trkpt>
<trkpt lat="-27.274439" lon="151.290064">
  <ele>343.07</ele>
  <time>2026-09-01T19:51:16Z</time>
  <course>10.64</course>
  <speed>0.01</speed>
  <fix>3d</fix>
</trkpt>
<trkpt lat="-27.274439" lon="151.290064">
  <ele>343.1</ele>
  <time>2026-09-01T19:51:16Z</time>
  <course>270.0</course>
  <speed>0.0</speed>
  <fix>3d</fix>
</trkpt>
<trkpt lat="-27.274439" lon="151.290064">
  <ele>343.07</ele>
  <time>2026-09-01T19:51:16Z</time>
  <course>10.64</course>
  <speed>0.01</speed>
  <fix>3d</fix>
</trkpt>
<trkpt lat="-27.274439" lon="151.290064">
  <ele>343.1</ele>
  <time>2026-09-01T19:51:16Z</time>
  <course>270.0</course>
  <speed>0.0</speed>
  <fix>3d</fix>
</trkpt>
<trkpt lat="-27.274439" lon="151.290064">
  <ele>343.07</ele>
  <time>2026-09-01T19:51:16Z</time>
  <course>10.64</course>
  <speed>0.01</speed>
  <fix>3d</fix>
</trkpt>
<trkpt lat="-27.274439" lon="151.290064">
  <ele>343.1</ele>
  <time>2026-09-01T19:51:16Z</time>
  <course>270.0</course>
  <speed>0.0</speed>
  <fix>3d</fix>
</trkpt>
<trkpt lat="-27.274439" lon="151.290064">
  <ele>343.09</ele>
  <time>2026-09-01T19:51:16Z</time>
  <course>10.64</course>
  <speed>0.01</speed>
  <fix>3d</fix>
</trkpt>
<trkpt lat="-27.274439" lon="151.290064">
  <ele>343.1</ele>
  <time>2026-09-01T19:51:16Z</time>
  <course>270.0</course>
  <speed>0.0</speed>
  <fix>3d</fix>
</trkpt>
<trkpt lat="-27.274439" lon="151.290064">
  <ele>343.09</ele>
  <time>2026-09-01T19:51:16Z</time>
  <course>10.64</course>
  <speed>0.01</speed>
  <fix>3d</fix>
</trkpt>
<trkpt lat="-27.274439" lon="151.290064">
  <ele>343.1</ele>
  <time>2026-09-01T19:51:16Z</time>
  <course>270.0</course>
  <speed>0.0</speed>
  <fix>3d</fix>
</trkpt>
<trkpt lat="-27.274439" lon="151.290064">
  <ele>343.09</ele>
  <time>2026-09-01T19:51:16Z</time>
  <course>10.64</course>
  <speed>0.01</speed>
  <fix>3d</fix>
</trkpt>
<trkpt lat="-27.274439" lon="151.290064">
  <ele>343.1</ele>
  <time>2026-09-01T19:51:16Z</time>
  <course>270.0</course>
  <speed>0.0</speed>
  <fix>3d</fix>
</trkpt>
<trkpt lat="-27.274439" lon="151.290064">
  <ele>343.09</ele>
  <time>2026-09-01T19:51:16Z</time>
  <course>10.64</course>
  <speed>0.01</speed>
  <fix>3d</fix>
</trkpt>
<trkpt lat="-27.274439" lon="151.290064">
  <ele>343.1</ele>
  <time>2026-09-01T19:51:16Z</time>
  <course>270.0</course>
  <speed>0.0</speed>
  <fix>3d</fix>
</trkpt>
<trkpt lat="-27.274439" lon="151.290064">
  <ele>343.09</ele>
  <time>2026-09-01T19:51:16Z</time>
  <course>10.64</course>
  <speed>0.01</speed>
  <fix>3d</fix>
</trkpt>
<trkpt lat="-27.274439" lon="151.290064">
  <ele>343.1</ele>
  <time>2026-09-01T19:51:16Z</time>
  <course>270.0</course>
  <speed>0.0</speed>
  <fix>3d</fix>
</trkpt>
<trkpt lat="-27.274439" lon="151.290064">
  <ele>343.1</ele>
  <time>2026-09-01T19:51:16Z</time>
  <course>10.64</course>
  <speed>0.01</speed>
  <fix>3d</fix>
</trkpt>
<trkpt lat="-27.274439" lon="151.290064">
  <ele>343.1</ele>
  <time>2026-09-01T19:51:16Z</time>
  <course>270.0</course>
  <speed>0.0</speed>
  <fix>3d</fix>
</trkpt>
<trkpt lat="-27.274439" lon="151.290064">
  <ele>343.1</ele>
  <time>2026-09-01T19:51:16Z</time>
  <course>10.64</course>
  <speed>0.01</speed>
  <fix>3d</fix>
</trkpt>
<trkpt lat="-27.274439" lon="151.290064">
  <ele>343.1</ele>
  <time>2026-09-01T19:51:16Z</time>
  <course>270.0</course>
  <speed>0.0</speed>
  <fix>3d</fix>
</trkpt>
<trkpt lat="-27.274439" lon="151.290064">
  <ele>343.1</ele>
  <time>2026-09-01T19:51:16Z</time>
  <course>10.64</course>
  <speed>0.01</speed>
  <fix>3d</fix>
</trkpt>
<trkpt lat="-27.274439" lon="151.290064">
  <ele>343.1</ele>
  <time>2026-09-01T19:51:16Z</time>
  <course>270.0</course>
  <speed>0.0</speed>
  <fix>3d</fix>
</trkpt>
<trkpt lat="-27.274439" lon="151.290064">
  <ele>343.1</ele>
  <time>2026-09-01T19:51:16Z</time>
  <course>10.64</course>
  <speed>0.01</speed>
  <fix>3d</fix>
</trkpt>
<trkpt lat="-27.274439" lon="151.290064">
  <ele>343.1</ele>
  <time>2026-09-01T19:51:16Z</time>
  <course>270.0</course>
  <speed>0.0</speed>
  <fix>3d</fix>
</trkpt>
<trkpt lat="-27.274439" lon="151.290064">
  <ele>343.09</ele>
  <time>2026-09-01T19:51:16Z</time>
  <course>10.64</course>
  <speed>0.01</speed>
  <fix>3d</fix>
</trkpt>
<trkpt lat="-27.274439" lon="151.290064">
  <ele>343.1</ele>
  <time>2026-09-01T19:51:16Z</time>
  <course>270.0</course>
  <speed>0.0</speed>
  <fix>3d</fix>
</trkpt>
<trkpt lat="-27.274439" lon="151.290064">
  <ele>343.09</ele>
  <time>2026-09-01T19:51:16Z</time>
  <course>10.64</course>
  <speed>0.01</speed>
  <fix>3d</fix>
</trkpt>
<trkpt lat="-27.274439" lon="151.290064">
  <ele>343.1</ele>
  <time>2026-09-01T19:51:16Z</time>
  <course>270.0</course>
  <speed>0.0</speed>
  <fix>3d</fix>
</trkpt>
<trkpt lat="-27.274439" lon="151.290064">
  <ele>343.1</ele>
  <time>2026-09-01T19:51:16Z</time>
  <course>10.64</course>
  <speed>0.01</speed>
  <fix>3d</fix>
</trkpt>
<trkpt lat="-27.274439" lon="151.290064">
  <ele>343.1</ele>
  <time>2026-09-01T19:51:16Z</time>
  <course>270.0</course>
  <speed>0.0</speed>
  <fix>3d</fix>
</trkpt>
<trkpt lat="-27.274439" lon="151.290064">
  <ele>343.1</ele>
  <time>2026-09-01T19:51:16Z</time>
  <course>10.64</course>
  <speed>0.01</speed>
  <fix>3d</fix>
</trkpt>
<trkpt lat="-27.274439" lon="151.290064">
  <ele>343.1</ele>
  <time>2026-09-01T19:51:16Z</time>
  <course>270.0</course>
  <speed>0.0</speed>
  <fix>3d</fix>
</trkpt>
<trkpt lat="-27.2744391" lon="151.290064">
  <ele>343.1</ele>
  <time>2026-09-01T19:51:16Z</time>
  <course>10.64</course>
  <speed>0.01414213562373095</speed>
  <fix>3d</fix>
</trkpt>
<trkpt lat="-27.274439" lon="151.290064">
  <ele>343.1</ele>
  <time>2026-09-01T19:51:16Z</time>
  <course>270.0</course>
  <speed>0.0</speed>
  <fix>3d</fix>
</trkpt>
<trkpt lat="-27.2744391" lon="151.290064">
  <ele>343.1</ele>
  <time>2026-09-01T19:51:16Z</time>
  <course>10.64</course>
  <speed>0.01414213562373095</speed>
  <fix>3d</fix>
</trkpt>
<trkpt lat="-27.274439" lon="151.290064">
  <ele>343.1</ele>
  <time>2026-09-01T19:51:16Z</time>
  <course>270.0</course>
  <speed>0.0</speed>
  <fix>3d</fix>
</trkpt>
<trkpt lat="-27.2744391" lon="151.290064">
  <ele>343.09</ele>
  <time>2026-09-01T19:51:16Z</time>
  <course>10.64</course>
  <speed>0.01414213562373095</speed>
  <fix>3d</fix>
</trkpt>
<trkpt lat="-27.274439" lon="151.290064">
  <ele>343.1</ele>
  <time>2026-09-01T19:51:16Z</time>
  <course>270.0</course>
  <speed>0.0</speed>
  <fix>3d</fix>
</trkpt>
<trkpt lat="-27.2744391" lon="151.290064">
  <ele>343.09</ele>
  <time>2026-09-01T19:51:16Z</time>
  <course>10.64</course>
  <speed>0.01414213562373095</speed>
  <fix>3d</fix>
</trkpt>
<trkpt lat="-27.274439" lon="151.290064">
  <ele>343.1</ele>
  <time>2026-09-01T19:51:16Z</time>
  <course>270.0</course>
  <speed>0.0</speed>
  <fix>3d</fix>
</trkpt>
<trkpt lat="-27.2744391" lon="151.290064">
  <ele>343.09</ele>
  <time>2026-09-01T19:51:16Z</time>
  <course>10.64</course>
  <speed>0.01414213562373095</speed>
  <fix>3d</fix>
</trkpt>
<trkpt lat="-27.274439" lon="151.290064">
  <ele>343.1</ele>
  <time>2026-09-01T19:51:16Z</time>
  <course>270.0</course>
  <speed>0.0</speed>
  <fix>3d</fix>
</trkpt>
<trkpt lat="-27.2744391" lon="151.290064">
  <ele>343.09</ele>
  <time>2026-09-01T19:51:16Z</time>
  <course>10.64</course>
  <speed>0.01414213562373095</speed>
  <fix>3d</fix>
</trkpt>
<trkpt lat="-27.274439" lon="151.290064">
  <ele>343.1</ele>
  <time>2026-09-01T19:51:16Z</time>
  <course>270.0</course>
  <speed>0.0</speed>
  <fix>3d</fix>
</trkpt>
<trkpt lat="-27.2744391" lon="151.290064">
  <ele>343.08</ele>
  <time>2026-09-01T19:51:16Z</time>
  <course>10.64</course>
  <speed>0.01414213562373095</speed>
  <fix>3d</fix>
</trkpt>
<trkpt lat="-27.274439" lon="151.290064">
  <ele>343.1</ele>
  <time>2026-09-01T19:51:16Z</time>
  <course>270.0</course>
  <speed>0.0</speed>
  <fix>3d</fix>
</trkpt>
<trkpt lat="-27.2744391" lon="151.290064">
  <ele>343.08</ele>
  <time>2026-09-01T19:51:16Z</time>
  <course>10.64</course>
  <speed>0.01414213562373095</speed>
  <fix>3d</fix>
</trkpt>
<trkpt lat="-27.274439" lon="151.290064">
  <ele>343.1</ele>
  <time>2026-09-01T19:51:16Z</time>
  <course>270.0</course>
  <speed>0.0</speed>
  <fix>3d</fix>
</trkpt>
<trkpt lat="-27.2744391" lon="151.290064">
  <ele>343.08</ele>
  <time>2026-09-01T19:51:16Z</time>
  <course>10.63</course>
  <speed>0.01414213562373095</speed>
  <fix>3d</fix>
</trkpt>
<trkpt lat="-27.274439" lon="151.290064">
  <ele>343.1</ele>
  <time>2026-09-01T19:51:16Z</time>
  <course>270.0</course>
  <speed>0.0</speed>
  <fix>3d</fix>
</trkpt>
<trkpt lat="-27.2744391" lon="151.290064">
  <ele>343.07</ele>
  <time>2026-09-01T19:51:16Z</time>
  <course>10.63</course>
  <speed>0.01414213562373095</speed>
  <fix>3d</fix>
</trkpt>
<trkpt lat="-27.274439" lon="151.290064">
  <ele>343.1</ele>
  <time>2026-09-01T19:51:16Z</time>
  <course>270.0</course>
  <speed>0.0</speed>
  <fix>3d</fix>
</trkpt>
<trkpt lat="-27.2744391" lon="151.290064">
  <ele>343.07</ele>
  <time>2026-09-01T19:51:16Z</time>
  <course>10.63</course>
  <speed>0.01414213562373095</speed>
  <fix>3d</fix>
</trkpt>
<trkpt lat="-27.274439" lon="151.290064">
  <ele>343.1</ele>
  <time>2026-09-01T19:51:16Z</time>
  <course>270.0</course>
  <speed>0.0</speed>
  <fix>3d</fix>
</trkpt>
<trkpt lat="-27.2744391" lon="151.290064">
  <ele>343.06</ele>
  <time>2026-09-01T19:51:16Z</time>
  <course>10.63</course>
  <speed>0.01414213562373095</speed>
  <fix>3d</fix>
</trkpt>
<trkpt lat="-27.274439" lon="151.290064">
  <ele>343.1</ele>
  <time>2026-09-01T19:51:16Z</time>
  <course>270.0</course>
  <speed>0.0</speed>
  <fix>3d</fix>
</trkpt>
<trkpt lat="-27.2744391" lon="151.290064">
  <ele>343.06</ele>
  <time>2026-09-01T19:51:16Z</time>
  <course>10.63</course>
  <speed>0.01414213562373095</speed>
  <fix>3d</fix>
</trkpt>
<trkpt lat="-27.274439" lon="151.290064">
  <ele>343.1</ele>
  <time>2026-09-01T19:51:16Z</time>
  <course>270.0</course>
  <speed>0.0</speed>
  <fix>3d</fix>
</trkpt>
<trkpt lat="-27.2744391" lon="151.290064">
  <ele>343.05</ele>
  <time>2026-09-01T19:51:16Z</time>
  <course>10.63</course>
  <speed>0.01414213562373095</speed>
  <fix>3d</fix>
</trkpt>
<trkpt lat="-27.274439" lon="151.290064">
  <ele>343.1</ele>
  <time>2026-09-01T19:51:16Z</time>
  <course>270.0</course>
  <speed>0.0</speed>
  <fix>3d</fix>
</trkpt>
<trkpt lat="-27.2744391" lon="151.290064">
  <ele>343.05</ele>
  <time>2026-09-01T19:51:16Z</time>
  <course>10.63</course>
  <speed>0.01414213562373095</speed>
  <fix>3d</fix>
</trkpt>
<trkpt lat="-27.274439" lon="151.290064">
  <ele>343.1</ele>
  <time>2026-09-01T19:51:16Z</time>
  <course>270.0</course>
  <speed>0.0</speed>
  <fix>3d</fix>
</trkpt>
<trkpt lat="-27.2744391" lon="151.290064">
  <ele>343.05</ele>
  <time>2026-09-01T19:51:16Z</time>
  <course>10.63</course>
  <speed>0.01414213562373095</speed>
  <fix>3d</fix>
</trkpt>
<trkpt lat="-27.274439" lon="151.290064">
  <ele>343.1</ele>
  <time>2026-09-01T19:51:16Z</time>
  <course>270.0</course>
  <speed>0.0</speed>
  <fix>3d</fix>
</trkpt>
<trkpt lat="-27.2744391" lon="151.290064">
  <ele>343.04</ele>
  <time>2026-09-01T19:51:16Z</time>
  <course>10.63</course>
  <speed>0.01414213562373095</speed>
  <fix>3d</fix>
</trkpt>
<trkpt lat="-27.274439" lon="151.290064">
  <ele>343.1</ele>
  <time>2026-09-01T19:51:16Z</time>
  <course>270.0</course>
  <speed>0.0</speed>
  <fix>3d</fix>
</trkpt>
<trkpt lat="-27.2744391" lon="151.290064">
  <ele>343.04</ele>
  <time>2026-09-01T19:51:17Z</time>
  <course>10.63</course>
  <speed>0.01414213562373095</speed>
  <fix>3d</fix>
</trkpt>
<trkpt lat="-27.274439" lon="151.290064">
  <ele>343.1</ele>
  <time>2026-09-01T19:51:17Z</time>
  <course>270.0</course>
  <speed>0.0</speed>
  <fix>3d</fix>
</trkpt>
<trkpt lat="-27.2744391" lon="151.290064">
  <ele>343.03</ele>
  <time>2026-09-01T19:51:17Z</time>
  <course>10.63</course>
  <speed>0.01414213562373095</speed>
  <fix>3d</fix>
</trkpt>
<trkpt lat="-27.274439" lon="151.290064">
  <ele>343.1</ele>
  <time>2026-09-01T19:51:17Z</time>
  <course>270.0</course>
  <speed>0.0</speed>
  <fix>3d</fix>
</trkpt>
<trkpt lat="-27.2744391" lon="151.290064">
  <ele>343.03</ele>
  <time>2026-09-01T19:51:17Z</time>
  <course>10.63</course>
  <speed>0.01414213562373095</speed>
  <fix>3d</fix>
</trkpt>
<trkpt lat="-27.274439" lon="151.290064">
  <ele>343.1</ele>
  <time>2026-09-01T19:51:17Z</time>
  <course>270.0</course>
  <speed>0.0</speed>
  <fix>3d</fix>
</trkpt>
<trkpt lat="-27.2744391" lon="151.290064">
  <ele>343.02</ele>
  <time>2026-09-01T19:51:17Z</time>
  <course>10.63</course>
  <speed>0.01414213562373095</speed>
  <fix>3d</fix>
</trkpt>
<trkpt lat="-27.274439" lon="151.290064">
  <ele>343.1</ele>
  <time>2026-09-01T19:51:17Z</time>
  <course>270.0</course>
  <speed>0.0</speed>
  <fix>3d</fix>
</trkpt>
<trkpt lat="-27.2744391" lon="151.290064">
  <ele>343.02</ele>
  <time>2026-09-01T19:51:17Z</time>
  <course>10.63</course>
  <speed>0.01414213562373095</speed>
  <fix>3d</fix>
</trkpt>
<trkpt lat="-27.274439" lon="151.290064">
  <ele>343.1</ele>
  <time>2026-09-01T19:51:17Z</time>
  <course>270.0</course>
  <speed>0.0</speed>
  <fix>3d</fix>
</trkpt>
<trkpt lat="-27.2744391" lon="151.290064">
  <ele>343.02</ele>
  <time>2026-09-01T19:51:17Z</time>
  <course>10.63</course>
  <speed>0.01414213562373095</speed>
  <fix>3d</fix>
</trkpt>
<trkpt lat="-27.274439" lon="151.290064">
  <ele>343.1</ele>
  <time>2026-09-01T19:51:17Z</time>
  <course>270.0</course>
  <speed>0.0</speed>
  <fix>3d</fix>
</trkpt>
<trkpt lat="-27.2744391" lon="151.290064">
  <ele>343.01</ele>
  <time>2026-09-01T19:51:17Z</time>
  <course>10.63</course>
  <speed>0.01414213562373095</speed>
  <fix>3d</fix>
</trkpt>
<trkpt lat="-27.274439" lon="151.290064">
  <ele>343.1</ele>
  <time>2026-09-01T19:51:17Z</time>
  <course>270.0</course>
  <speed>0.0</speed>
  <fix>3d</fix>
</trkpt>
<trkpt lat="-27.2744391" lon="151.290064">
  <ele>343.01</ele>
  <time>2026-09-01T19:51:17Z</time>
  <course>10.63</course>
  <speed>0.01414213562373095</speed>
  <fix>3d</fix>
</trkpt>
<trkpt lat="-27.274439" lon="151.290064">
  <ele>343.1</ele>
  <time>2026-09-01T19:51:17Z</time>
  <course>270.0</course>
  <speed>0.0</speed>
  <fix>3d</fix>
</trkpt>
<trkpt lat="-27.2744391" lon="151.290064">
  <ele>343.01</ele>
  <time>2026-09-01T19:51:17Z</time>
  <course>10.63</course>
  <speed>0.01414213562373095</speed>
  <fix>3d</fix>
</trkpt>
<trkpt lat="-27.274439" lon="151.290064">
  <ele>343.1</ele>
  <time>2026-09-01T19:51:17Z</time>
  <course>270.0</course>
  <speed>0.0</speed>
  <fix>3d</fix>
</trkpt>
<trkpt lat="-27.2744391" lon="151.290064">
  <ele>343.0</ele>
  <time>2026-09-01T19:51:17Z</time>
  <course>10.63</course>
  <speed>0.01414213562373095</speed>
  <fix>3d</fix>
</trkpt>
<trkpt lat="-27.274439" lon="151.290064">
  <ele>343.1</ele>
  <time>2026-09-01T19:51:17Z</time>
  <course>270.0</course>
  <speed>0.0</speed>
  <fix>3d</fix>
</trkpt>
<trkpt lat="-27.2744391" lon="151.290064">
  <ele>343.0</ele>
  <time>2026-09-01T19:51:17Z</time>
  <course>10.63</course>
  <speed>0.01414213562373095</speed>
  <fix>3d</fix>
</trkpt>
<trkpt lat="-27.274439" lon="151.290064">
  <ele>343.1</ele>
  <time>2026-09-01T19:51:17Z</time>
  <course>270.0</course>
  <speed>0.0</speed>
  <fix>3d</fix>
</trkpt>
<trkpt lat="-27.2744391" lon="151.290064">
  <ele>343.0</ele>
  <time>2026-09-01T19:51:17Z</time>
  <course>10.63</course>
  <speed>0.01414213562373095</speed>
  <fix>3d</fix>
</trkpt>
<trkpt lat="-27.274439" lon="151.290064">
  <ele>343.1</ele>
  <time>2026-09-01T19:51:17Z</time>
  <course>270.0</course>
  <speed>0.0</speed>
  <fix>3d</fix>
</trkpt>
<trkpt lat="-27.2744391" lon="151.290064">
  <ele>342.99</ele>
  <time>2026-09-01T19:51:17Z</time>
  <course>10.63</course>
  <speed>0.01414213562373095</speed>
  <fix>3d</fix>
</trkpt>
<trkpt lat="-27.274439" lon="151.290064">
  <ele>343.1</ele>
  <time>2026-09-01T19:51:17Z</time>
  <course>270.0</course>
  <speed>0.0</speed>
  <fix>3d</fix>
</trkpt>
<trkpt lat="-27.2744391" lon="151.290064">
  <ele>342.99</ele>
  <time>2026-09-01T19:51:17Z</time>
  <course>10.63</course>
  <speed>0.01414213562373095</speed>
  <fix>3d</fix>
</trkpt>
<trkpt lat="-27.274439" lon="151.290064">
  <ele>343.1</ele>
  <time>2026-09-01T19:51:17Z</time>
  <course>270.0</course>
  <speed>0.0</speed>
  <fix>3d</fix>
</trkpt>
<trkpt lat="-27.2744391" lon="151.290064">
  <ele>342.98</ele>
  <time>2026-09-01T19:51:17Z</time>
  <course>10.63</course>
  <speed>0.01414213562373095</speed>
  <fix>3d</fix>
</trkpt>
<trkpt lat="-27.274439" lon="151.290064">
  <ele>343.1</ele>
  <time>2026-09-01T19:51:17Z</time>
  <course>270.0</course>
  <speed>0.0</speed>
  <fix>3d</fix>
</trkpt>
<trkpt lat="-27.2744391" lon="151.290064">
  <ele>342.98</ele>
  <time>2026-09-01T19:51:17Z</time>
  <course>10.63</course>
  <speed>0.01414213562373095</speed>
  <fix>3d</fix>
</trkpt>
<trkpt lat="-27.274439" lon="151.290064">
  <ele>343.1</ele>
  <time>2026-09-01T19:51:17Z</time>
  <course>270.0</course>
  <speed>0.0</speed>
  <fix>3d</fix>
</trkpt>
<trkpt lat="-27.2744391" lon="151.290064">
  <ele>342.98</ele>
  <time>2026-09-01T19:51:17Z</time>
  <course>10.63</course>
  <speed>0.01414213562373095</speed>
  <fix>3d</fix>
</trkpt>
<trkpt lat="-27.274439" lon="151.290064">
  <ele>343.1</ele>
  <time>2026-09-01T19:51:17Z</time>
  <course>270.0</course>
  <speed>0.0</speed>
  <fix>3d</fix>
</trkpt>
<trkpt lat="-27.2744391" lon="151.290064">
  <ele>342.98</ele>
  <time>2026-09-01T19:51:17Z</time>
  <course>10.63</course>
  <speed>0.01414213562373095</speed>
  <fix>3d</fix>
</trkpt>
<trkpt lat="-27.274439" lon="151.290064">
  <ele>343.1</ele>
  <time>2026-09-01T19:51:17Z</time>
  <course>270.0</course>
  <speed>0.0</speed>
  <fix>3d</fix>
</trkpt>
<trkpt lat="-27.2744391" lon="151.290064">
  <ele>342.98</ele>
  <time>2026-09-01T19:51:17Z</time>
  <course>10.63</course>
  <speed>0.01414213562373095</speed>
  <fix>3d</fix>
</trkpt>
<trkpt lat="-27.274439" lon="151.290064">
  <ele>343.1</ele>
  <time>2026-09-01T19:51:17Z</time>
  <course>270.0</course>
  <speed>0.0</speed>
  <fix>3d</fix>
</trkpt>
<trkpt lat="-27.2744391" lon="151.290064">
  <ele>342.98</ele>
  <time>2026-09-01T19:51:17Z</time>
  <course>10.62</course>
  <speed>0.01414213562373095</speed>
  <fix>3d</fix>
</trkpt>
<trkpt lat="-27.274439" lon="151.290064">
  <ele>343.1</ele>
  <time>2026-09-01T19:51:17Z</time>
  <course>270.0</course>
  <speed>0.0</speed>
  <fix>3d</fix>
</trkpt>
<trkpt lat="-27.2744391" lon="151.290064">
  <ele>342.97</ele>
  <time>2026-09-01T19:51:17Z</time>
  <course>10.62</course>
  <speed>0.01414213562373095</speed>
  <fix>3d</fix>
</trkpt>
<trkpt lat="-27.274439" lon="151.290064">
  <ele>343.1</ele>
  <time>2026-09-01T19:51:17Z</time>
  <course>270.0</course>
  <speed>0.0</speed>
  <fix>3d</fix>
</trkpt>
<trkpt lat="-27.2744391" lon="151.290064">
  <ele>342.97</ele>
  <time>2026-09-01T19:51:17Z</time>
  <course>10.62</course>
  <speed>0.01414213562373095</speed>
  <fix>3d</fix>
</trkpt>
<trkpt lat="-27.274439" lon="151.290064">
  <ele>343.1</ele>
  <time>2026-09-01T19:51:17Z</time>
  <course>270.0</course>
  <speed>0.0</speed>
  <fix>3d</fix>
</trkpt>
<trkpt lat="-27.2744391" lon="151.290064">
  <ele>342.97</ele>
  <time>2026-09-01T19:51:17Z</time>
  <course>10.62</course>
  <speed>0.01414213562373095</speed>
  <fix>3d</fix>
</trkpt>
<trkpt lat="-27.274439" lon="151.290064">
  <ele>343.1</ele>
  <time>2026-09-01T19:51:17Z</time>
  <course>270.0</course>
  <speed>0.0</speed>
  <fix>3d</fix>
</trkpt>
<trkpt lat="-27.2744391" lon="151.290064">
  <ele>342.97</ele>
  <time>2026-09-01T19:51:17Z</time>
  <course>10.62</course>
  <speed>0.01414213562373095</speed>
  <fix>3d</fix>
</trkpt>
<trkpt lat="-27.274439" lon="151.290064">
  <ele>343.1</ele>
  <time>2026-09-01T19:51:17Z</time>
  <course>270.0</course>
  <speed>0.0</speed>
  <fix>3d</fix>
</trkpt>
<trkpt lat="-27.2744391" lon="151.290064">
  <ele>342.96</ele>
  <time>2026-09-01T19:51:17Z</time>
  <course>10.62</course>
  <speed>0.01414213562373095</speed>
  <fix>3d</fix>
</trkpt>
<trkpt lat="-27.274439" lon="151.290064">
  <ele>343.1</ele>
  <time>2026-09-01T19:51:17Z</time>
  <course>270.0</course>
  <speed>0.0</speed>
  <fix>3d</fix>
</trkpt>
<trkpt lat="-27.2744391" lon="151.290064">
  <ele>343.09</ele>
  <time>2026-09-01T19:51:17Z</time>
  <course>10.62</course>
  <speed>0.01414213562373095</speed>
  <fix>3d</fix>
</trkpt>
<trkpt lat="-27.274439" lon="151.290064">
  <ele>343.1</ele>
  <time>2026-09-01T19:51:17Z</time>
  <course>270.0</course>
  <speed>0.0</speed>
  <fix>3d</fix>
</trkpt>
<trkpt lat="-27.2744391" lon="151.2900641">
  <ele>343.09</ele>
  <time>2026-09-01T19:51:17Z</time>
  <course>10.62</course>
  <speed>0.01414213562373095</speed>
  <fix>3d</fix>
</trkpt>
<trkpt lat="-27.274439" lon="151.290064">
  <ele>343.1</ele>
  <time>2026-09-01T19:51:17Z</time>
  <course>270.0</course>
  <speed>0.0</speed>
  <fix>3d</fix>
</trkpt>
<trkpt lat="-27.2744391" lon="151.2900641">
  <ele>343.09</ele>
  <time>2026-09-01T19:51:17Z</time>
  <course>10.62</course>
  <speed>0.01414213562373095</speed>
  <fix>3d</fix>
</trkpt>
<trkpt lat="-27.274439" lon="151.290064">
  <ele>343.1</ele>
  <time>2026-09-01T19:51:17Z</time>
  <course>270.0</course>
  <speed>0.0</speed>
  <fix>3d</fix>
</trkpt>
<trkpt lat="-27.2744391" lon="151.2900641">
  <ele>343.09</ele>
  <time>2026-09-01T19:51:17Z</time>
  <course>10.62</course>
  <speed>0.022360679774997897</speed>
  <fix>3d</fix>
</trkpt>
<trkpt lat="-27.274439" lon="151.290064">
  <ele>343.1</ele>
  <time>2026-09-01T19:51:17Z</time>
  <course>270.0</course>
  <speed>0.0</speed>
  <fix>3d</fix>
</trkpt>
<trkpt lat="-27.2744391" lon="151.2900641">
  <ele>343.09</ele>
  <time>2026-09-01T19:51:17Z</time>
  <course>10.62</course>
  <speed>0.022360679774997897</speed>
  <fix>3d</fix>
</trkpt>
<trkpt lat="-27.274439" lon="151.290064">
  <ele>343.1</ele>
  <time>2026-09-01T19:51:17Z</time>
  <course>270.0</course>
  <speed>0.0</speed>
  <fix>3d</fix>
</trkpt>
<trkpt lat="-27.2744391" lon="151.2900641">
  <ele>343.09</ele>
  <time>2026-09-01T19:51:17Z</time>
  <course>10.62</course>
  <speed>0.022360679774997897</speed>
  <fix>3d</fix>
</trkpt>
<trkpt lat="-27.274439" lon="151.290064">
  <ele>343.1</ele>
  <time>2026-09-01T19:51:17Z</time>
  <course>270.0</course>
  <speed>0.0</speed>
  <fix>3d</fix>
</trkpt>
<trkpt lat="-27.2744391" lon="151.2900641">
  <ele>343.1</ele>
  <time>2026-09-01T19:51:17Z</time>
  <course>10.62</course>
  <speed>0.022360679774997897</speed>
  <fix>3d</fix>
</trkpt>
<trkpt lat="-27.274439" lon="151.290064">
  <ele>343.1</ele>
  <time>2026-09-01T19:51:17Z</time>
  <course>270.0</course>
  <speed>0.0</speed>
  <fix>3d</fix>
</trkpt>
<trkpt lat="-27.2744391" lon="151.2900641">
  <ele>343.1</ele>
  <time>2026-09-01T19:51:17Z</time>
  <course>10.62</course>
  <speed>0.022360679774997897</speed>
  <fix>3d</fix>
</trkpt>
<trkpt lat="-27.274439" lon="151.290064">
  <ele>343.1</ele>
  <time>2026-09-01T19:51:17Z</time>
  <course>270.0</course>
  <speed>0.0</speed>
  <fix>3d</fix>
</trkpt>
<trkpt lat="-27.2744391" lon="151.2900641">
  <ele>343.1</ele>
  <time>2026-09-01T19:51:17Z</time>
  <course>10.62</course>
  <speed>0.022360679774997897</speed>
  <fix>3d</fix>
</trkpt>
<trkpt lat="-27.274439" lon="151.290064">
  <ele>343.1</ele>
  <time>2026-09-01T19:51:17Z</time>
  <course>270.0</course>
  <speed>0.0</speed>
  <fix>3d</fix>
</trkpt>
<trkpt lat="-27.2744391" lon="151.2900641">
  <ele>343.1</ele>
  <time>2026-09-01T19:51:17Z</time>
  <course>10.62</course>
  <speed>0.022360679774997897</speed>
  <fix>3d</fix>
</trkpt>
<trkpt lat="-27.274439" lon="151.290064">
  <ele>343.1</ele>
  <time>2026-09-01T19:51:17Z</time>
  <course>270.0</course>
  <speed>0.0</speed>
  <fix>3d</fix>
</trkpt>
<trkpt lat="-27.2744391" lon="151.2900641">
  <ele>343.11</ele>
  <time>2026-09-01T19:51:17Z</time>
  <course>10.62</course>
  <speed>0.022360679774997897</speed>
  <fix>3d</fix>
</trkpt>
<trkpt lat="-27.274439" lon="151.290064">
  <ele>343.1</ele>
  <time>2026-09-01T19:51:17Z</time>
  <course>270.0</course>
  <speed>0.0</speed>
  <fix>3d</fix>
</trkpt>
<trkpt lat="-27.2744391" lon="151.2900641">
  <ele>343.11</ele>
  <time>2026-09-01T19:51:17Z</time>
  <course>10.62</course>
  <speed>0.022360679774997897</speed>
  <fix>3d</fix>
</trkpt>
<trkpt lat="-27.274439" lon="151.290064">
  <ele>343.1</ele>
  <time>2026-09-01T19:51:17Z</time>
  <course>270.0</course>
  <speed>0.0</speed>
  <fix>3d</fix>
</trkpt>
<trkpt lat="-27.2744391" lon="151.2900641">
  <ele>343.11</ele>
  <time>2026-09-01T19:51:17Z</time>
  <course>10.62</course>
  <speed>0.022360679774997897</speed>
  <fix>3d</fix>
</trkpt>
<trkpt lat="-27.274439" lon="151.290064">
  <ele>343.1</ele>
  <time>2026-09-01T19:51:17Z</time>
  <course>270.0</course>
  <speed>0.0</speed>
  <fix>3d</fix>
</trkpt>
<trkpt lat="-27.2744391" lon="151.2900641">
  <ele>343.11</ele>
  <time>2026-09-01T19:51:17Z</time>
  <course>10.62</course>
  <speed>0.022360679774997897</speed>
  <fix>3d</fix>
</trkpt>
<trkpt lat="-27.274439" lon="151.290064">
  <ele>343.1</ele>
  <time>2026-09-01T19:51:17Z</time>
  <course>270.0</course>
  <speed>0.0</speed>
  <fix>3d</fix>
</trkpt>
<trkpt lat="-27.2744391" lon="151.2900641">
  <ele>343.11</ele>
  <time>2026-09-01T19:51:17Z</time>
  <course>10.62</course>
  <speed>0.022360679774997897</speed>
  <fix>3d</fix>
</trkpt>
<trkpt lat="-27.274439" lon="151.290064">
  <ele>343.1</ele>
  <time>2026-09-01T19:51:17Z</time>
  <course>270.0</course>
  <speed>0.0</speed>
  <fix>3d</fix>
</trkpt>
<trkpt lat="-27.2744391" lon="151.2900641">
  <ele>343.1</ele>
  <time>2026-09-01T19:51:17Z</time>
  <course>10.62</course>
  <speed>0.022360679774997897</speed>
  <fix>3d</fix>
</trkpt>
<trkpt lat="-27.274439" lon="151.290064">
  <ele>343.1</ele>
  <time>2026-09-01T19:51:17Z</time>
  <course>270.0</course>
  <speed>0.0</speed>
  <fix>3d</fix>
</trkpt>
<trkpt lat="-27.2744391" lon="151.2900641">
  <ele>343.1</ele>
  <time>2026-09-01T19:51:17Z</time>
  <course>10.62</course>
  <speed>0.022360679774997897</speed>
  <fix>3d</fix>
</trkpt>
<trkpt lat="-27.274439" lon="151.290064">
  <ele>343.1</ele>
  <time>2026-09-01T19:51:17Z</time>
  <course>270.0</course>
  <speed>0.0</speed>
  <fix>3d</fix>
</trkpt>
<trkpt lat="-27.2744391" lon="151.2900641">
  <ele>343.1</ele>
  <time>2026-09-01T19:51:17Z</time>
  <course>10.62</course>
  <speed>0.022360679774997897</speed>
  <fix>3d</fix>
</trkpt>
<trkpt lat="-27.274439" lon="151.290064">
  <ele>343.1</ele>
  <time>2026-09-01T19:51:17Z</time>
  <course>270.0</course>
  <speed>0.0</speed>
  <fix>3d</fix>
</trkpt>
<trkpt lat="-27.2744391" lon="151.2900641">
  <ele>343.1</ele>
  <time>2026-09-01T19:51:17Z</time>
  <course>10.62</course>
  <speed>0.01414213562373095</speed>
  <fix>3d</fix>
</trkpt>
<trkpt lat="-27.274439" lon="151.290064">
  <ele>343.1</ele>
  <time>2026-09-01T19:51:17Z</time>
  <course>270.0</course>
  <speed>0.0</speed>
  <fix>3d</fix>
</trkpt>
<trkpt lat="-27.2744391" lon="151.2900641">
  <ele>343.1</ele>
  <time>2026-09-01T19:51:17Z</time>
  <course>10.62</course>
  <speed>0.01414213562373095</speed>
  <fix>3d</fix>
</trkpt>
<trkpt lat="-27.274439" lon="151.290064">
  <ele>343.1</ele>
  <time>2026-09-01T19:51:17Z</time>
  <course>270.0</course>
  <speed>0.0</speed>
  <fix>3d</fix>
</trkpt>
<trkpt lat="-27.2744391" lon="151.2900641">
  <ele>343.1</ele>
  <time>2026-09-01T19:51:17Z</time>
  <course>10.62</course>
  <speed>0.01414213562373095</speed>
  <fix>3d</fix>
</trkpt>
<trkpt lat="-27.274439" lon="151.290064">
  <ele>343.1</ele>
  <time>2026-09-01T19:51:17Z</time>
  <course>270.0</course>
  <speed>0.0</speed>
  <fix>3d</fix>
</trkpt>
<trkpt lat="-27.2744391" lon="151.2900641">
  <ele>343.1</ele>
  <time>2026-09-01T19:51:17Z</time>
  <course>10.62</course>
  <speed>0.01414213562373095</speed>
  <fix>3d</fix>
</trkpt>
<trkpt lat="-27.274439" lon="151.290064">
  <ele>343.1</ele>
  <time>2026-09-01T19:51:17Z</time>
  <course>270.0</course>
  <speed>0.0</speed>
  <fix>3d</fix>
</trkpt>
<trkpt lat="-27.2744391" lon="151.2900641">
  <ele>343.1</ele>
  <time>2026-09-01T19:51:17Z</time>
  <course>10.62</course>
  <speed>0.01414213562373095</speed>
  <fix>3d</fix>
</trkpt>
<trkpt lat="-27.274439" lon="151.290064">
  <ele>343.1</ele>
  <time>2026-09-01T19:51:17Z</time>
  <course>270.0</course>
  <speed>0.0</speed>
  <fix>3d</fix>
</trkpt>
<trkpt lat="-27.2744391" lon="151.2900641">
  <ele>343.1</ele>
  <time>2026-09-01T19:51:17Z</time>
  <course>10.62</course>
  <speed>0.01414213562373095</speed>
  <fix>3d</fix>
</trkpt>
<trkpt lat="-27.274439" lon="151.290064">
  <ele>343.1</ele>
  <time>2026-09-01T19:51:17Z</time>
  <course>270.0</course>
  <speed>0.0</speed>
  <fix>3d</fix>
</trkpt>
<trkpt lat="-27.2744391" lon="151.2900641">
  <ele>343.11</ele>
  <time>2026-09-01T19:51:17Z</time>
  <course>10.62</course>
  <speed>0.01414213562373095</speed>
  <fix>3d</fix>
</trkpt>
<trkpt lat="-27.274439" lon="151.290064">
  <ele>343.1</ele>
  <time>2026-09-01T19:51:17Z</time>
  <course>270.0</course>
  <speed>0.0</speed>
  <fix>3d</fix>
</trkpt>
<trkpt lat="-27.2744391" lon="151.2900641">
  <ele>343.09</ele>
  <time>2026-09-01T19:51:17Z</time>
  <course>10.62</course>
  <speed>0.01414213562373095</speed>
  <fix>3d</fix>
</trkpt>
<trkpt lat="-27.274439" lon="151.290064">
  <ele>343.1</ele>
  <time>2026-09-01T19:51:17Z</time>
  <course>270.0</course>
  <speed>0.0</speed>
  <fix>3d</fix>
</trkpt>
<trkpt lat="-27.2744391" lon="151.2900641">
  <ele>343.09</ele>
  <time>2026-09-01T19:51:17Z</time>
  <course>10.61</course>
  <speed>0.01414213562373095</speed>
  <fix>3d</fix>
</trkpt>
<trkpt lat="-27.274439" lon="151.290064">
  <ele>343.1</ele>
  <time>2026-09-01T19:51:17Z</time>
  <course>270.0</course>
  <speed>0.0</speed>
  <fix>3d</fix>
</trkpt>
<trkpt lat="-27.2744391" lon="151.2900641">
  <ele>343.09</ele>
  <time>2026-09-01T19:51:17Z</time>
  <course>10.61</course>
  <speed>0.01414213562373095</speed>
  <fix>3d</fix>
</trkpt>
<trkpt lat="-27.274439" lon="151.290064">
  <ele>343.1</ele>
  <time>2026-09-01T19:51:17Z</time>
  <course>270.0</course>
  <speed>0.0</speed>
  <fix>3d</fix>
</trkpt>
<trkpt lat="-27.2744391" lon="151.2900641">
  <ele>343.09</ele>
  <time>2026-09-01T19:51:17Z</time>
  <course>10.61</course>
  <speed>0.01414213562373095</speed>
  <fix>3d</fix>
</trkpt>
<trkpt lat="-27.274439" lon="151.290064">
  <ele>343.1</ele>
  <time>2026-09-01T19:51:17Z</time>
  <course>270.0</course>
  <speed>0.0</speed>
  <fix>3d</fix>
</trkpt>
<trkpt lat="-27.2744391" lon="151.2900641">
  <ele>343.09</ele>
  <time>2026-09-01T19:51:17Z</time>
  <course>10.61</course>
  <speed>0.01414213562373095</speed>
  <fix>3d</fix>
</trkpt>
<trkpt lat="-27.274439" lon="151.290064">
  <ele>343.1</ele>
  <time>2026-09-01T19:51:17Z</time>
  <course>270.0</course>
  <speed>0.0</speed>
  <fix>3d</fix>
</trkpt>
<trkpt lat="-27.2744391" lon="151.2900641">
  <ele>343.09</ele>
  <time>2026-09-01T19:51:17Z</time>
  <course>10.61</course>
  <speed>0.01414213562373095</speed>
  <fix>3d</fix>
</trkpt>
<trkpt lat="-27.274439" lon="151.290064">
  <ele>343.1</ele>
  <time>2026-09-01T19:51:17Z</time>
  <course>270.0</course>
  <speed>0.0</speed>
  <fix>3d</fix>
</trkpt>
<trkpt lat="-27.2744391" lon="151.2900641">
  <ele>343.09</ele>
  <time>2026-09-01T19:51:17Z</time>
  <course>10.61</course>
  <speed>0.01414213562373095</speed>
  <fix>3d</fix>
</trkpt>
<trkpt lat="-27.274439" lon="151.290064">
  <ele>343.1</ele>
  <time>2026-09-01T19:51:17Z</time>
  <course>270.0</course>
  <speed>0.0</speed>
  <fix>3d</fix>
</trkpt>
<trkpt lat="-27.2744391" lon="151.2900641">
  <ele>343.09</ele>
  <time>2026-09-01T19:51:17Z</time>
  <course>10.61</course>
  <speed>0.01414213562373095</speed>
  <fix>3d</fix>
</trkpt>
<trkpt lat="-27.274439" lon="151.290064">
  <ele>343.1</ele>
  <time>2026-09-01T19:51:17Z</time>
  <course>270.0</course>
  <speed>0.0</speed>
  <fix>3d</fix>
</trkpt>
<trkpt lat="-27.2744391" lon="151.2900641">
  <ele>343.09</ele>
  <time>2026-09-01T19:51:17Z</time>
  <course>10.61</course>
  <speed>0.01414213562373095</speed>
  <fix>3d</fix>
</trkpt>
<trkpt lat="-27.274439" lon="151.290064">
  <ele>343.1</ele>
  <time>2026-09-01T19:51:17Z</time>
  <course>270.0</course>
  <speed>0.0</speed>
  <fix>3d</fix>
</trkpt>
<trkpt lat="-27.2744391" lon="151.2900641">
  <ele>343.09</ele>
  <time>2026-09-01T19:51:17Z</time>
  <course>10.61</course>
  <speed>0.01414213562373095</speed>
  <fix>3d</fix>
</trkpt>
<trkpt lat="-27.274439" lon="151.290064">
  <ele>343.1</ele>
  <time>2026-09-01T19:51:17Z</time>
  <course>270.0</course>
  <speed>0.0</speed>
  <fix>3d</fix>
</trkpt>
<trkpt lat="-27.2744391" lon="151.2900641">
  <ele>343.09</ele>
  <time>2026-09-01T19:51:17Z</time>
  <course>10.61</course>
  <speed>0.022360679774997897</speed>
  <fix>3d</fix>
</trkpt>
<trkpt lat="-27.274439" lon="151.290064">
  <ele>343.1</ele>
  <time>2026-09-01T19:51:17Z</time>
  <course>270.0</course>
  <speed>0.0</speed>
  <fix>3d</fix>
</trkpt>
<trkpt lat="-27.2744391" lon="151.2900641">
  <ele>343.09</ele>
  <time>2026-09-01T19:51:17Z</time>
  <course>10.61</course>
  <speed>0.022360679774997897</speed>
  <fix>3d</fix>
</trkpt>
<trkpt lat="-27.274439" lon="151.290064">
  <ele>343.1</ele>
  <time>2026-09-01T19:51:17Z</time>
  <course>270.0</course>
  <speed>0.0</speed>
  <fix>3d</fix>
</trkpt>
<trkpt lat="-27.2744391" lon="151.2900641">
  <ele>343.09</ele>
  <time>2026-09-01T19:51:17Z</time>
  <course>10.61</course>
  <speed>0.022360679774997897</speed>
  <fix>3d</fix>
</trkpt>
<trkpt lat="-27.274439" lon="151.290064">
  <ele>343.1</ele>
  <time>2026-09-01T19:51:17Z</time>
  <course>270.0</course>
  <speed>0.0</speed>
  <fix>3d</fix>
</trkpt>
<trkpt lat="-27.2744391" lon="151.2900641">
  <ele>343.09</ele>
  <time>2026-09-01T19:51:17Z</time>
  <course>10.61</course>
  <speed>0.022360679774997897</speed>
  <fix>3d</fix>
</trkpt>
<trkpt lat="-27.274439" lon="151.290064">
  <ele>343.1</ele>
  <time>2026-09-01T19:51:17Z</time>
  <course>270.0</course>
  <speed>0.0</speed>
  <fix>3d</fix>
</trkpt>
<trkpt lat="-27.2744391" lon="151.2900641">
  <ele>343.09</ele>
  <time>2026-09-01T19:51:17Z</time>
  <course>10.61</course>
  <speed>0.022360679774997897</speed>
  <fix>3d</fix>
</trkpt>
<trkpt lat="-27.274439" lon="151.290064">
  <ele>343.1</ele>
  <time>2026-09-01T19:51:17Z</time>
  <course>270.0</course>
  <speed>0.0</speed>
  <fix>3d</fix>
</trkpt>
<trkpt lat="-27.2744391" lon="151.2900641">
  <ele>343.09</ele>
  <time>2026-09-01T19:51:17Z</time>
  <course>10.61</course>
  <speed>0.022360679774997897</speed>
  <fix>3d</fix>
</trkpt>
<trkpt lat="-27.274439" lon="151.290064">
  <ele>343.1</ele>
  <time>2026-09-01T19:51:17Z</time>
  <course>270.0</course>
  <speed>0.0</speed>
  <fix>3d</fix>
</trkpt>
<trkpt lat="-27.2744391" lon="151.2900641">
  <ele>343.09</ele>
  <time>2026-09-01T19:51:17Z</time>
  <course>10.61</course>
  <speed>0.022360679774997897</speed>
  <fix>3d</fix>
</trkpt>
<trkpt lat="-27.274439" lon="151.290064">
  <ele>343.1</ele>
  <time>2026-09-01T19:51:17Z</time>
  <course>270.0</course>
  <speed>0.0</speed>
  <fix>3d</fix>
</trkpt>
<trkpt lat="-27.2744391" lon="151.2900641">
  <ele>343.09</ele>
  <time>2026-09-01T19:51:17Z</time>
  <course>10.61</course>
  <speed>0.022360679774997897</speed>
  <fix>3d</fix>
</trkpt>
<trkpt lat="-27.274439" lon="151.290064">
  <ele>343.1</ele>
  <time>2026-09-01T19:51:17Z</time>
  <course>270.0</course>
  <speed>0.0</speed>
  <fix>3d</fix>
</trkpt>
<trkpt lat="-27.2744391" lon="151.2900641">
  <ele>343.09</ele>
  <time>2026-09-01T19:51:17Z</time>
  <course>10.61</course>
  <speed>0.022360679774997897</speed>
  <fix>3d</fix>
</trkpt>
<trkpt lat="-27.274439" lon="151.290064">
  <ele>343.1</ele>
  <time>2026-09-01T19:51:17Z</time>
  <course>270.0</course>
  <speed>0.0</speed>
  <fix>3d</fix>
</trkpt>
<trkpt lat="-27.2744391" lon="151.2900641">
  <ele>343.09</ele>
  <time>2026-09-01T19:51:17Z</time>
  <course>10.61</course>
  <speed>0.022360679774997897</speed>
  <fix>3d</fix>
</trkpt>
<trkpt lat="-27.274439" lon="151.290064">
  <ele>343.1</ele>
  <time>2026-09-01T19:51:17Z</time>
  <course>270.0</course>
  <speed>0.0</speed>
  <fix>3d</fix>
</trkpt>
<trkpt lat="-27.2744391" lon="151.2900641">
  <ele>343.09</ele>
  <time>2026-09-01T19:51:17Z</time>
  <course>10.61</course>
  <speed>0.022360679774997897</speed>
  <fix>3d</fix>
</trkpt>
<trkpt lat="-27.274439" lon="151.290064">
  <ele>343.1</ele>
  <time>2026-09-01T19:51:17Z</time>
  <course>270.0</course>
  <speed>0.0</speed>
  <fix>3d</fix>
</trkpt>
<trkpt lat="-27.2744391" lon="151.2900641">
  <ele>343.09</ele>
  <time>2026-09-01T19:51:17Z</time>
  <course>10.61</course>
  <speed>0.022360679774997897</speed>
  <fix>3d</fix>
</trkpt>
<trkpt lat="-27.274439" lon="151.290064">
  <ele>343.1</ele>
  <time>2026-09-01T19:51:17Z</time>
  <course>270.0</course>
  <speed>0.0</speed>
  <fix>3d</fix>
</trkpt>
<trkpt lat="-27.2744391" lon="151.2900641">
  <ele>343.09</ele>
  <time>2026-09-01T19:51:17Z</time>
  <course>10.61</course>
  <speed>0.022360679774997897</speed>
  <fix>3d</fix>
</trkpt>
<trkpt lat="-27.274439" lon="151.290064">
  <ele>343.1</ele>
  <time>2026-09-01T19:51:17Z</time>
  <course>270.0</course>
  <speed>0.0</speed>
  <fix>3d</fix>
</trkpt>
<trkpt lat="-27.2744391" lon="151.2900641">
  <ele>343.09</ele>
  <time>2026-09-01T19:51:17Z</time>
  <course>10.61</course>
  <speed>0.022360679774997897</speed>
  <fix>3d</fix>
</trkpt>
<trkpt lat="-27.274439" lon="151.290064">
  <ele>343.1</ele>
  <time>2026-09-01T19:51:17Z</time>
  <course>270.0</course>
  <speed>0.0</speed>
  <fix>3d</fix>
</trkpt>
<trkpt lat="-27.2744391" lon="151.2900641">
  <ele>343.09</ele>
  <time>2026-09-01T19:51:17Z</time>
  <course>10.61</course>
  <speed>0.022360679774997897</speed>
  <fix>3d</fix>
</trkpt>
<trkpt lat="-27.274439" lon="151.290064">
  <ele>343.1</ele>
  <time>2026-09-01T19:51:17Z</time>
  <course>270.0</course>
  <speed>0.0</speed>
  <fix>3d</fix>
</trkpt>
<trkpt lat="-27.2744391" lon="151.2900641">
  <ele>343.09</ele>
  <time>2026-09-01T19:51:17Z</time>
  <course>10.61</course>
  <speed>0.022360679774997897</speed>
  <fix>3d</fix>
</trkpt>
<trkpt lat="-27.274439" lon="151.290064">
  <ele>343.1</ele>
  <time>2026-09-01T19:51:17Z</time>
  <course>270.0</course>
  <speed>0.0</speed>
  <fix>3d</fix>
</trkpt>
<trkpt lat="-27.2744391" lon="151.2900641">
  <ele>343.09</ele>
  <time>2026-09-01T19:51:17Z</time>
  <course>10.61</course>
  <speed>0.022360679774997897</speed>
  <fix>3d</fix>
</trkpt>
<trkpt lat="-27.274439" lon="151.290064">
  <ele>343.1</ele>
  <time>2026-09-01T19:51:17Z</time>
  <course>270.0</course>
  <speed>0.0</speed>
  <fix>3d</fix>
</trkpt>
<trkpt lat="-27.2744391" lon="151.2900641">
  <ele>343.08</ele>
  <time>2026-09-01T19:51:17Z</time>
  <course>10.61</course>
  <speed>0.022360679774997897</speed>
  <fix>3d</fix>
</trkpt>
<trkpt lat="-27.274439" lon="151.290064">
  <ele>343.1</ele>
  <time>2026-09-01T19:51:17Z</time>
  <course>270.0</course>
  <speed>0.0</speed>
  <fix>3d</fix>
</trkpt>
<trkpt lat="-27.2744391" lon="151.2900641">
  <ele>343.08</ele>
  <time>2026-09-01T19:51:17Z</time>
  <course>10.61</course>
  <speed>0.022360679774997897</speed>
  <fix>3d</fix>
</trkpt>
<trkpt lat="-27.274439" lon="151.290064">
  <ele>343.1</ele>
  <time>2026-09-01T19:51:17Z</time>
  <course>270.0</course>
  <speed>0.0</speed>
  <fix>3d</fix>
</trkpt>
<trkpt lat="-27.2744391" lon="151.2900641">
  <ele>343.08</ele>
  <time>2026-09-01T19:51:17Z</time>
  <course>10.61</course>
  <speed>0.022360679774997897</speed>
  <fix>3d</fix>
</trkpt>
<trkpt lat="-27.274439" lon="151.290064">
  <ele>343.1</ele>
  <time>2026-09-01T19:51:17Z</time>
  <course>270.0</course>
  <speed>0.0</speed>
  <fix>3d</fix>
</trkpt>
<trkpt lat="-27.2744391" lon="151.2900641">
  <ele>343.08</ele>
  <time>2026-09-01T19:51:17Z</time>
  <course>10.61</course>
  <speed>0.022360679774997897</speed>
  <fix>3d</fix>
</trkpt>
<trkpt lat="-27.274439" lon="151.290064">
  <ele>343.1</ele>
  <time>2026-09-01T19:51:17Z</time>
  <course>270.0</course>
  <speed>0.0</speed>
  <fix>3d</fix>
</trkpt>
<trkpt lat="-27.2744391" lon="151.2900641">
  <ele>343.08</ele>
  <time>2026-09-01T19:51:17Z</time>
  <course>10.61</course>
  <speed>0.022360679774997897</speed>
  <fix>3d</fix>
</trkpt>
<trkpt lat="-27.274439" lon="151.290064">
  <ele>343.1</ele>
  <time>2026-09-01T19:51:17Z</time>
  <course>270.0</course>
  <speed>0.0</speed>
  <fix>3d</fix>
</trkpt>
<trkpt lat="-27.2744391" lon="151.2900641">
  <ele>343.08</ele>
  <time>2026-09-01T19:51:17Z</time>
  <course>10.61</course>
  <speed>0.022360679774997897</speed>
  <fix>3d</fix>
</trkpt>
<trkpt lat="-27.274439" lon="151.290064">
  <ele>343.1</ele>
  <time>2026-09-01T19:51:17Z</time>
  <course>270.0</course>
  <speed>0.0</speed>
  <fix>3d</fix>
</trkpt>
<trkpt lat="-27.2744391" lon="151.2900641">
  <ele>343.08</ele>
  <time>2026-09-01T19:51:17Z</time>
  <course>10.61</course>
  <speed>0.022360679774997897</speed>
  <fix>3d</fix>
</trkpt>
<trkpt lat="-27.274439" lon="151.290064">
  <ele>343.1</ele>
  <time>2026-09-01T19:51:17Z</time>
  <course>270.0</course>
  <speed>0.0</speed>
  <fix>3d</fix>
</trkpt>
<trkpt lat="-27.2744391" lon="151.2900641">
  <ele>343.07</ele>
  <time>2026-09-01T19:51:17Z</time>
  <course>10.61</course>
  <speed>0.022360679774997897</speed>
  <fix>3d</fix>
</trkpt>
<trkpt lat="-27.274439" lon="151.290064">
  <ele>343.1</ele>
  <time>2026-09-01T19:51:17Z</time>
  <course>270.0</course>
  <speed>0.0</speed>
  <fix>3d</fix>
</trkpt>
<trkpt lat="-27.2744391" lon="151.2900641">
  <ele>343.07</ele>
  <time>2026-09-01T19:51:17Z</time>
  <course>10.61</course>
  <speed>0.022360679774997897</speed>
  <fix>3d</fix>
</trkpt>
<trkpt lat="-27.274439" lon="151.290064">
  <ele>343.1</ele>
  <time>2026-09-01T19:51:17Z</time>
  <course>270.0</course>
  <speed>0.0</speed>
  <fix>3d</fix>
</trkpt>
<trkpt lat="-27.2744391" lon="151.2900641">
  <ele>343.07</ele>
  <time>2026-09-01T19:51:17Z</time>
  <course>10.61</course>
  <speed>0.022360679774997897</speed>
  <fix>3d</fix>
</trkpt>
<trkpt lat="-27.274439" lon="151.290064">
  <ele>343.1</ele>
  <time>2026-09-01T19:51:17Z</time>
  <course>270.0</course>
  <speed>0.0</speed>
  <fix>3d</fix>
</trkpt>
<trkpt lat="-27.2744391" lon="151.2900641">
  <ele>343.07</ele>
  <time>2026-09-01T19:51:17Z</time>
  <course>10.61</course>
  <speed>0.022360679774997897</speed>
  <fix>3d</fix>
</trkpt>
<trkpt lat="-27.274439" lon="151.290064">
  <ele>343.1</ele>
  <time>2026-09-01T19:51:17Z</time>
  <course>270.0</course>
  <speed>0.0</speed>
  <fix>3d</fix>
</trkpt>
<trkpt lat="-27.2744391" lon="151.2900641">
  <ele>343.07</ele>
  <time>2026-09-01T19:51:17Z</time>
  <course>10.61</course>
  <speed>0.022360679774997897</speed>
  <fix>3d</fix>
</trkpt>
<trkpt lat="-27.274439" lon="151.290064">
  <ele>343.1</ele>
  <time>2026-09-01T19:51:17Z</time>
  <course>270.0</course>
  <speed>0.0</speed>
  <fix>3d</fix>
</trkpt>
<trkpt lat="-27.2744391" lon="151.2900641">
  <ele>343.07</ele>
  <time>2026-09-01T19:51:17Z</time>
  <course>10.61</course>
  <speed>0.022360679774997897</speed>
  <fix>3d</fix>
</trkpt>
<trkpt lat="-27.274439" lon="151.290064">
  <ele>343.1</ele>
  <time>2026-09-01T19:51:17Z</time>
  <course>270.0</course>
  <speed>0.0</speed>
  <fix>3d</fix>
</trkpt>
<trkpt lat="-27.2744391" lon="151.2900641">
  <ele>343.07</ele>
  <time>2026-09-01T19:51:17Z</time>
  <course>10.6</course>
  <speed>0.022360679774997897</speed>
  <fix>3d</fix>
</trkpt>
<trkpt lat="-27.274439" lon="151.290064">
  <ele>343.1</ele>
  <time>2026-09-01T19:51:17Z</time>
  <course>270.0</course>
  <speed>0.0</speed>
  <fix>3d</fix>
</trkpt>
<trkpt lat="-27.2744391" lon="151.2900641">
  <ele>343.07</ele>
  <time>2026-09-01T19:51:17Z</time>
  <course>10.6</course>
  <speed>0.022360679774997897</speed>
  <fix>3d</fix>
</trkpt>
<trkpt lat="-27.274439" lon="151.290064">
  <ele>343.1</ele>
  <time>2026-09-01T19:51:17Z</time>
  <course>270.0</course>
  <speed>0.0</speed>
  <fix>3d</fix>
</trkpt>
<trkpt lat="-27.2744391" lon="151.2900641">
  <ele>343.06</ele>
  <time>2026-09-01T19:51:17Z</time>
  <course>10.6</course>
  <speed>0.022360679774997897</speed>
  <fix>3d</fix>
</trkpt>
<trkpt lat="-27.274439" lon="151.290064">
  <ele>343.1</ele>
  <time>2026-09-01T19:51:17Z</time>
  <course>270.0</course>
  <speed>0.0</speed>
  <fix>3d</fix>
</trkpt>
<trkpt lat="-27.2744391" lon="151.2900641">
  <ele>343.06</ele>
  <time>2026-09-01T19:51:17Z</time>
  <course>10.6</course>
  <speed>0.022360679774997897</speed>
  <fix>3d</fix>
</trkpt>
<trkpt lat="-27.274439" lon="151.290064">
  <ele>343.1</ele>
  <time>2026-09-01T19:51:17Z</time>
  <course>270.0</course>
  <speed>0.0</speed>
  <fix>3d</fix>
</trkpt>
<trkpt lat="-27.2744391" lon="151.2900641">
  <ele>343.06</ele>
  <time>2026-09-01T19:51:17Z</time>
  <course>10.6</course>
  <speed>0.022360679774997897</speed>
  <fix>3d</fix>
</trkpt>
<trkpt lat="-27.274439" lon="151.290064">
  <ele>343.1</ele>
  <time>2026-09-01T19:51:17Z</time>
  <course>270.0</course>
  <speed>0.0</speed>
  <fix>3d</fix>
</trkpt>
<trkpt lat="-27.2744391" lon="151.2900641">
  <ele>343.06</ele>
  <time>2026-09-01T19:51:17Z</time>
  <course>10.6</course>
  <speed>0.022360679774997897</speed>
  <fix>3d</fix>
</trkpt>
<trkpt lat="-27.274439" lon="151.290064">
  <ele>343.1</ele>
  <time>2026-09-01T19:51:17Z</time>
  <course>270.0</course>
  <speed>0.0</speed>
  <fix>3d</fix>
</trkpt>
<trkpt lat="-27.2744391" lon="151.2900641">
  <ele>343.06</ele>
  <time>2026-09-01T19:51:17Z</time>
  <course>10.6</course>
  <speed>0.022360679774997897</speed>
  <fix>3d</fix>
</trkpt>
<trkpt lat="-27.274439" lon="151.290064">
  <ele>343.1</ele>
  <time>2026-09-01T19:51:17Z</time>
  <course>270.0</course>
  <speed>0.0</speed>
  <fix>3d</fix>
</trkpt>
<trkpt lat="-27.2744391" lon="151.2900641">
  <ele>343.06</ele>
  <time>2026-09-01T19:51:17Z</time>
  <course>10.6</course>
  <speed>0.022360679774997897</speed>
  <fix>3d</fix>
</trkpt>
<trkpt lat="-27.274439" lon="151.290064">
  <ele>343.1</ele>
  <time>2026-09-01T19:51:17Z</time>
  <course>270.0</course>
  <speed>0.0</speed>
  <fix>3d</fix>
</trkpt>
<trkpt lat="-27.2744391" lon="151.2900641">
  <ele>343.06</ele>
  <time>2026-09-01T19:51:17Z</time>
  <course>10.6</course>
  <speed>0.022360679774997897</speed>
  <fix>3d</fix>
</trkpt>
<trkpt lat="-27.274439" lon="151.290064">
  <ele>343.1</ele>
  <time>2026-09-01T19:51:17Z</time>
  <course>270.0</course>
  <speed>0.0</speed>
  <fix>3d</fix>
</trkpt>
<trkpt lat="-27.2744391" lon="151.2900641">
  <ele>343.06</ele>
  <time>2026-09-01T19:51:17Z</time>
  <course>10.6</course>
  <speed>0.022360679774997897</speed>
  <fix>3d</fix>
</trkpt>
<trkpt lat="-27.274439" lon="151.290064">
  <ele>343.1</ele>
  <time>2026-09-01T19:51:17Z</time>
  <course>270.0</course>
  <speed>0.0</speed>
  <fix>3d</fix>
</trkpt>
<trkpt lat="-27.2744391" lon="151.2900641">
  <ele>343.06</ele>
  <time>2026-09-01T19:51:17Z</time>
  <course>10.6</course>
  <speed>0.022360679774997897</speed>
  <fix>3d</fix>
</trkpt>
<trkpt lat="-27.274439" lon="151.290064">
  <ele>343.1</ele>
  <time>2026-09-01T19:51:17Z</time>
  <course>270.0</course>
  <speed>0.0</speed>
  <fix>3d</fix>
</trkpt>
<trkpt lat="-27.2744391" lon="151.2900641">
  <ele>343.06</ele>
  <time>2026-09-01T19:51:17Z</time>
  <course>10.6</course>
  <speed>0.022360679774997897</speed>
  <fix>3d</fix>
</trkpt>
<trkpt lat="-27.274439" lon="151.290064">
  <ele>343.1</ele>
  <time>2026-09-01T19:51:17Z</time>
  <course>270.0</course>
  <speed>0.0</speed>
  <fix>3d</fix>
</trkpt>
<trkpt lat="-27.2744391" lon="151.2900641">
  <ele>343.06</ele>
  <time>2026-09-01T19:51:17Z</time>
  <course>10.6</course>
  <speed>0.022360679774997897</speed>
  <fix>3d</fix>
</trkpt>
<trkpt lat="-27.274439" lon="151.290064">
  <ele>343.1</ele>
  <time>2026-09-01T19:51:17Z</time>
  <course>270.0</course>
  <speed>0.0</speed>
  <fix>3d</fix>
</trkpt>
<trkpt lat="-27.2744391" lon="151.2900641">
  <ele>343.06</ele>
  <time>2026-09-01T19:51:17Z</time>
  <course>10.6</course>
  <speed>0.022360679774997897</speed>
  <fix>3d</fix>
</trkpt>
<trkpt lat="-27.274439" lon="151.290064">
  <ele>343.1</ele>
  <time>2026-09-01T19:51:17Z</time>
  <course>270.0</course>
  <speed>0.0</speed>
  <fix>3d</fix>
</trkpt>
<trkpt lat="-27.2744391" lon="151.2900641">
  <ele>343.05</ele>
  <time>2026-09-01T19:51:17Z</time>
  <course>10.6</course>
  <speed>0.022360679774997897</speed>
  <fix>3d</fix>
</trkpt>
<trkpt lat="-27.274439" lon="151.290064">
  <ele>343.1</ele>
  <time>2026-09-01T19:51:17Z</time>
  <course>270.0</course>
  <speed>0.0</speed>
  <fix>3d</fix>
</trkpt>
<trkpt lat="-27.2744391" lon="151.2900641">
  <ele>343.05</ele>
  <time>2026-09-01T19:51:17Z</time>
  <course>10.6</course>
  <speed>0.022360679774997897</speed>
  <fix>3d</fix>
</trkpt>
<trkpt lat="-27.274439" lon="151.290064">
  <ele>343.1</ele>
  <time>2026-09-01T19:51:17Z</time>
  <course>270.0</course>
  <speed>0.0</speed>
  <fix>3d</fix>
</trkpt>
<trkpt lat="-27.2744391" lon="151.2900641">
  <ele>343.05</ele>
  <time>2026-09-01T19:51:17Z</time>
  <course>10.6</course>
  <speed>0.022360679774997897</speed>
  <fix>3d</fix>
</trkpt>
<trkpt lat="-27.274439" lon="151.290064">
  <ele>343.1</ele>
  <time>2026-09-01T19:51:17Z</time>
  <course>270.0</course>
  <speed>0.0</speed>
  <fix>3d</fix>
</trkpt>
<trkpt lat="-27.2744391" lon="151.2900641">
  <ele>343.05</ele>
  <time>2026-09-01T19:51:17Z</time>
  <course>10.6</course>
  <speed>0.022360679774997897</speed>
  <fix>3d</fix>
</trkpt>
<trkpt lat="-27.274439" lon="151.290064">
  <ele>343.1</ele>
  <time>2026-09-01T19:51:17Z</time>
  <course>270.0</course>
  <speed>0.0</speed>
  <fix>3d</fix>
</trkpt>
<trkpt lat="-27.2744391" lon="151.2900641">
  <ele>343.05</ele>
  <time>2026-09-01T19:51:17Z</time>
  <course>10.6</course>
  <speed>0.022360679774997897</speed>
  <fix>3d</fix>
</trkpt>
<trkpt lat="-27.274439" lon="151.290064">
  <ele>343.1</ele>
  <time>2026-09-01T19:51:17Z</time>
  <course>270.0</course>
  <speed>0.0</speed>
  <fix>3d</fix>
</trkpt>
<trkpt lat="-27.2744391" lon="151.2900641">
  <ele>343.05</ele>
  <time>2026-09-01T19:51:17Z</time>
  <course>10.6</course>
  <speed>0.022360679774997897</speed>
  <fix>3d</fix>
</trkpt>
<trkpt lat="-27.274439" lon="151.290064">
  <ele>343.1</ele>
  <time>2026-09-01T19:51:17Z</time>
  <course>270.0</course>
  <speed>0.0</speed>
  <fix>3d</fix>
</trkpt>
<trkpt lat="-27.2744391" lon="151.2900641">
  <ele>343.09</ele>
  <time>2026-09-01T19:51:17Z</time>
  <course>10.6</course>
  <speed>0.022360679774997897</speed>
  <fix>3d</fix>
</trkpt>
<trkpt lat="-27.274439" lon="151.290064">
  <ele>343.1</ele>
  <time>2026-09-01T19:51:17Z</time>
  <course>270.0</course>
  <speed>0.0</speed>
  <fix>3d</fix>
</trkpt>
<trkpt lat="-27.2744391" lon="151.2900641">
  <ele>343.09</ele>
  <time>2026-09-01T19:51:17Z</time>
  <course>10.6</course>
  <speed>0.022360679774997897</speed>
  <fix>3d</fix>
</trkpt>
<trkpt lat="-27.274439" lon="151.290064">
  <ele>343.1</ele>
  <time>2026-09-01T19:51:17Z</time>
  <course>270.0</course>
  <speed>0.0</speed>
  <fix>3d</fix>
</trkpt>
<trkpt lat="-27.2744391" lon="151.2900641">
  <ele>343.09</ele>
  <time>2026-09-01T19:51:17Z</time>
  <course>10.6</course>
  <speed>0.022360679774997897</speed>
  <fix>3d</fix>
</trkpt>
<trkpt lat="-27.274439" lon="151.290064">
  <ele>343.1</ele>
  <time>2026-09-01T19:51:17Z</time>
  <course>270.0</course>
  <speed>0.0</speed>
  <fix>3d</fix>
</trkpt>
<trkpt lat="-27.2744391" lon="151.2900641">
  <ele>343.1</ele>
  <time>2026-09-01T19:51:17Z</time>
  <course>10.6</course>
  <speed>0.022360679774997897</speed>
  <fix>3d</fix>
</trkpt>
<trkpt lat="-27.274439" lon="151.290064">
  <ele>343.1</ele>
  <time>2026-09-01T19:51:17Z</time>
  <course>270.0</course>
  <speed>0.0</speed>
  <fix>3d</fix>
</trkpt>
<trkpt lat="-27.2744391" lon="151.2900641">
  <ele>343.1</ele>
  <time>2026-09-01T19:51:17Z</time>
  <course>10.6</course>
  <speed>0.022360679774997897</speed>
  <fix>3d</fix>
</trkpt>
<trkpt lat="-27.274439" lon="151.290064">
  <ele>343.1</ele>
  <time>2026-09-01T19:51:17Z</time>
  <course>270.0</course>
  <speed>0.0</speed>
  <fix>3d</fix>
</trkpt>
<trkpt lat="-27.2744391" lon="151.2900641">
  <ele>343.1</ele>
  <time>2026-09-01T19:51:17Z</time>
  <course>10.6</course>
  <speed>0.022360679774997897</speed>
  <fix>3d</fix>
</trkpt>
<trkpt lat="-27.274439" lon="151.290064">
  <ele>343.1</ele>
  <time>2026-09-01T19:51:17Z</time>
  <course>270.0</course>
  <speed>0.0</speed>
  <fix>3d</fix>
</trkpt>
<trkpt lat="-27.2744391" lon="151.2900641">
  <ele>343.1</ele>
  <time>2026-09-01T19:51:17Z</time>
  <course>10.6</course>
  <speed>0.022360679774997897</speed>
  <fix>3d</fix>
</trkpt>
<trkpt lat="-27.274439" lon="151.290064">
  <ele>343.1</ele>
  <time>2026-09-01T19:51:17Z</time>
  <course>270.0</course>
  <speed>0.0</speed>
  <fix>3d</fix>
</trkpt>
<trkpt lat="-27.2744391" lon="151.2900641">
  <ele>343.11</ele>
  <time>2026-09-01T19:51:17Z</time>
  <course>10.6</course>
  <speed>0.022360679774997897</speed>
  <fix>3d</fix>
</trkpt>
<trkpt lat="-27.274439" lon="151.290064">
  <ele>343.1</ele>
  <time>2026-09-01T19:51:17Z</time>
  <course>270.0</course>
  <speed>0.0</speed>
  <fix>3d</fix>
</trkpt>
<trkpt lat="-27.2744391" lon="151.2900641">
  <ele>343.11</ele>
  <time>2026-09-01T19:51:17Z</time>
  <course>10.6</course>
  <speed>0.022360679774997897</speed>
  <fix>3d</fix>
</trkpt>
<trkpt lat="-27.274439" lon="151.290064">
  <ele>343.1</ele>
  <time>2026-09-01T19:51:17Z</time>
  <course>270.0</course>
  <speed>0.0</speed>
  <fix>3d</fix>
</trkpt>
<trkpt lat="-27.2744391" lon="151.2900641">
  <ele>343.11</ele>
  <time>2026-09-01T19:51:17Z</time>
  <course>10.6</course>
  <speed>0.022360679774997897</speed>
  <fix>3d</fix>
</trkpt>
<trkpt lat="-27.274439" lon="151.290064">
  <ele>343.1</ele>
  <time>2026-09-01T19:51:17Z</time>
  <course>270.0</course>
  <speed>0.0</speed>
  <fix>3d</fix>
</trkpt>
<trkpt lat="-27.2744392" lon="151.2900641">
  <ele>343.12</ele>
  <time>2026-09-01T19:51:17Z</time>
  <course>10.6</course>
  <speed>0.022360679774997897</speed>
  <fix>3d</fix>
</trkpt>
<trkpt lat="-27.274439" lon="151.290064">
  <ele>343.1</ele>
  <time>2026-09-01T19:51:17Z</time>
  <course>270.0</course>
  <speed>0.0</speed>
  <fix>3d</fix>
</trkpt>
<trkpt lat="-27.2744391" lon="151.2900641">
  <ele>343.12</ele>
  <time>2026-09-01T19:51:17Z</time>
  <course>10.6</course>
  <speed>0.022360679774997897</speed>
  <fix>3d</fix>
</trkpt>
<trkpt lat="-27.274439" lon="151.290064">
  <ele>343.1</ele>
  <time>2026-09-01T19:51:17Z</time>
  <course>270.0</course>
  <speed>0.0</speed>
  <fix>3d</fix>
</trkpt>
<trkpt lat="-27.2744392" lon="151.2900641">
  <ele>343.12</ele>
  <time>2026-09-01T19:51:17Z</time>
  <course>10.6</course>
  <speed>0.022360679774997897</speed>
  <fix>3d</fix>
</trkpt>
<trkpt lat="-27.274439" lon="151.290064">
  <ele>343.1</ele>
  <time>2026-09-01T19:51:17Z</time>
  <course>270.0</course>
  <speed>0.0</speed>
  <fix>3d</fix>
</trkpt>
<trkpt lat="-27.2744392" lon="151.2900641">
  <ele>343.13</ele>
  <time>2026-09-01T19:51:17Z</time>
  <course>10.6</course>
  <speed>0.022360679774997897</speed>
  <fix>3d</fix>
</trkpt>
<trkpt lat="-27.274439" lon="151.290064">
  <ele>343.1</ele>
  <time>2026-09-01T19:51:17Z</time>
  <course>270.0</course>
  <speed>0.0</speed>
  <fix>3d</fix>
</trkpt>
<trkpt lat="-27.2744392" lon="151.2900641">
  <ele>343.13</ele>
  <time>2026-09-01T19:51:17Z</time>
  <course>10.6</course>
  <speed>0.022360679774997897</speed>
  <fix>3d</fix>
</trkpt>
<trkpt lat="-27.274439" lon="151.290064">
  <ele>343.1</ele>
  <time>2026-09-01T19:51:17Z</time>
  <course>270.0</course>
  <speed>0.0</speed>
  <fix>3d</fix>
</trkpt>
<trkpt lat="-27.2744392" lon="151.2900641">
  <ele>343.13</ele>
  <time>2026-09-01T19:51:17Z</time>
  <course>10.6</course>
  <speed>0.022360679774997897</speed>
  <fix>3d</fix>
</trkpt>
<trkpt lat="-27.274439" lon="151.290064">
  <ele>343.1</ele>
  <time>2026-09-01T19:51:17Z</time>
  <course>270.0</course>
  <speed>0.0</speed>
  <fix>3d</fix>
</trkpt>
<trkpt lat="-27.2744392" lon="151.2900641">
  <ele>343.13</ele>
  <time>2026-09-01T19:51:17Z</time>
  <course>10.6</course>
  <speed>0.022360679774997897</speed>
  <fix>3d</fix>
</trkpt>
<trkpt lat="-27.274439" lon="151.290064">
  <ele>343.1</ele>
  <time>2026-09-01T19:51:17Z</time>
  <course>270.0</course>
  <speed>0.0</speed>
  <fix>3d</fix>
</trkpt>
<trkpt lat="-27.2744392" lon="151.2900641">
  <ele>343.14</ele>
  <time>2026-09-01T19:51:17Z</time>
  <course>10.6</course>
  <speed>0.022360679774997897</speed>
  <fix>3d</fix>
</trkpt>
<trkpt lat="-27.274439" lon="151.290064">
  <ele>343.1</ele>
  <time>2026-09-01T19:51:17Z</time>
  <course>270.0</course>
  <speed>0.0</speed>
  <fix>3d</fix>
</trkpt>
<trkpt lat="-27.2744392" lon="151.2900641">
  <ele>343.14</ele>
  <time>2026-09-01T19:51:17Z</time>
  <course>10.6</course>
  <speed>0.022360679774997897</speed>
  <fix>3d</fix>
</trkpt>
<trkpt lat="-27.274439" lon="151.290064">
  <ele>343.1</ele>
  <time>2026-09-01T19:51:17Z</time>
  <course>270.0</course>
  <speed>0.0</speed>
  <fix>3d</fix>
</trkpt>
<trkpt lat="-27.2744392" lon="151.2900641">
  <ele>343.14</ele>
  <time>2026-09-01T19:51:17Z</time>
  <course>10.6</course>
  <speed>0.022360679774997897</speed>
  <fix>3d</fix>
</trkpt>
<trkpt lat="-27.274439" lon="151.290064">
  <ele>343.1</ele>
  <time>2026-09-01T19:51:17Z</time>
  <course>270.0</course>
  <speed>0.0</speed>
  <fix>3d</fix>
</trkpt>
<trkpt lat="-27.2744392" lon="151.2900641">
  <ele>343.15</ele>
  <time>2026-09-01T19:51:17Z</time>
  <course>10.6</course>
  <speed>0.022360679774997897</speed>
  <fix>3d</fix>
</trkpt>
<trkpt lat="-27.274439" lon="151.290064">
  <ele>343.1</ele>
  <time>2026-09-01T19:51:17Z</time>
  <course>270.0</course>
  <speed>0.0</speed>
  <fix>3d</fix>
</trkpt>
<trkpt lat="-27.2744392" lon="151.2900641">
  <ele>343.15</ele>
  <time>2026-09-01T19:51:17Z</time>
  <course>10.6</course>
  <speed>0.022360679774997897</speed>
  <fix>3d</fix>
</trkpt>
<trkpt lat="-27.274439" lon="151.290064">
  <ele>343.1</ele>
  <time>2026-09-01T19:51:17Z</time>
  <course>270.0</course>
  <speed>0.0</speed>
  <fix>3d</fix>
</trkpt>
<trkpt lat="-27.2744392" lon="151.2900641">
  <ele>343.15</ele>
  <time>2026-09-01T19:51:17Z</time>
  <course>10.6</course>
  <speed>0.022360679774997897</speed>
  <fix>3d</fix>
</trkpt>
<trkpt lat="-27.274439" lon="151.290064">
  <ele>343.1</ele>
  <time>2026-09-01T19:51:17Z</time>
  <course>270.0</course>
  <speed>0.0</speed>
  <fix>3d</fix>
</trkpt>
<trkpt lat="-27.2744392" lon="151.2900641">
  <ele>343.15</ele>
  <time>2026-09-01T19:51:17Z</time>
  <course>10.6</course>
  <speed>0.022360679774997897</speed>
  <fix>3d</fix>
</trkpt>
<trkpt lat="-27.274439" lon="151.290064">
  <ele>343.1</ele>
  <time>2026-09-01T19:51:17Z</time>
  <course>270.0</course>
  <speed>0.0</speed>
  <fix>3d</fix>
</trkpt>
<trkpt lat="-27.2744392" lon="151.2900641">
  <ele>343.15</ele>
  <time>2026-09-01T19:51:17Z</time>
  <course>10.6</course>
  <speed>0.022360679774997897</speed>
  <fix>3d</fix>
</trkpt>
<trkpt lat="-27.274439" lon="151.290064">
  <ele>343.1</ele>
  <time>2026-09-01T19:51:17Z</time>
  <course>270.0</course>
  <speed>0.0</speed>
  <fix>3d</fix>
</trkpt>
<trkpt lat="-27.2744392" lon="151.2900641">
  <ele>343.16</ele>
  <time>2026-09-01T19:51:17Z</time>
  <course>10.6</course>
  <speed>0.022360679774997897</speed>
  <fix>3d</fix>
</trkpt>
<trkpt lat="-27.274439" lon="151.290064">
  <ele>343.1</ele>
  <time>2026-09-01T19:51:17Z</time>
  <course>270.0</course>
  <speed>0.0</speed>
  <fix>3d</fix>
</trkpt>
<trkpt lat="-27.2744392" lon="151.2900641">
  <ele>343.16</ele>
  <time>2026-09-01T19:51:17Z</time>
  <course>10.6</course>
  <speed>0.022360679774997897</speed>
  <fix>3d</fix>
</trkpt>
<trkpt lat="-27.274439" lon="151.290064">
  <ele>343.1</ele>
  <time>2026-09-01T19:51:17Z</time>
  <course>270.0</course>
  <speed>0.0</speed>
  <fix>3d</fix>
</trkpt>
<trkpt lat="-27.2744392" lon="151.2900641">
  <ele>343.16</ele>
  <time>2026-09-01T19:51:17Z</time>
  <course>10.6</course>
  <speed>0.022360679774997897</speed>
  <fix>3d</fix>
</trkpt>
<trkpt lat="-27.274439" lon="151.290064">
  <ele>343.1</ele>
  <time>2026-09-01T19:51:17Z</time>
  <course>270.0</course>
  <speed>0.0</speed>
  <fix>3d</fix>
</trkpt>
<trkpt lat="-27.2744392" lon="151.2900641">
  <ele>343.16</ele>
  <time>2026-09-01T19:51:17Z</time>
  <course>10.6</course>
  <speed>0.022360679774997897</speed>
  <fix>3d</fix>
</trkpt>
<trkpt lat="-27.274439" lon="151.290064">
  <ele>343.1</ele>
  <time>2026-09-01T19:51:17Z</time>
  <course>270.0</course>
  <speed>0.0</speed>
  <fix>3d</fix>
</trkpt>
<trkpt lat="-27.2744392" lon="151.2900641">
  <ele>343.16</ele>
  <time>2026-09-01T19:51:17Z</time>
  <course>10.6</course>
  <speed>0.022360679774997897</speed>
  <fix>3d</fix>
</trkpt>
<trkpt lat="-27.274439" lon="151.290064">
  <ele>343.1</ele>
  <time>2026-09-01T19:51:17Z</time>
  <course>270.0</course>
  <speed>0.0</speed>
  <fix>3d</fix>
</trkpt>
<trkpt lat="-27.2744392" lon="151.2900641">
  <ele>343.17</ele>
  <time>2026-09-01T19:51:17Z</time>
  <course>10.6</course>
  <speed>0.022360679774997897</speed>
  <fix>3d</fix>
</trkpt>
<trkpt lat="-27.274439" lon="151.290064">
  <ele>343.1</ele>
  <time>2026-09-01T19:51:17Z</time>
  <course>270.0</course>
  <speed>0.0</speed>
  <fix>3d</fix>
</trkpt>
<trkpt lat="-27.2744392" lon="151.2900641">
  <ele>343.17</ele>
  <time>2026-09-01T19:51:17Z</time>
  <course>10.6</course>
  <speed>0.022360679774997897</speed>
  <fix>3d</fix>
</trkpt>
<trkpt lat="-27.274439" lon="151.290064">
  <ele>343.1</ele>
  <time>2026-09-01T19:51:17Z</time>
  <course>270.0</course>
  <speed>0.0</speed>
  <fix>3d</fix>
</trkpt>
<trkpt lat="-27.2744392" lon="151.2900641">
  <ele>343.17</ele>
  <time>2026-09-01T19:51:17Z</time>
  <course>10.6</course>
  <speed>0.022360679774997897</speed>
  <fix>3d</fix>
</trkpt>
<trkpt lat="-27.274439" lon="151.290064">
  <ele>343.1</ele>
  <time>2026-09-01T19:51:17Z</time>
  <course>270.0</course>
  <speed>0.0</speed>
  <fix>3d</fix>
</trkpt>
<trkpt lat="-27.2744392" lon="151.2900641">
  <ele>343.17</ele>
  <time>2026-09-01T19:51:17Z</time>
  <course>10.6</course>
  <speed>0.022360679774997897</speed>
  <fix>3d</fix>
</trkpt>
<trkpt lat="-27.274439" lon="151.290064">
  <ele>343.1</ele>
  <time>2026-09-01T19:51:17Z</time>
  <course>270.0</course>
  <speed>0.0</speed>
  <fix>3d</fix>
</trkpt>
<trkpt lat="-27.2744392" lon="151.2900641">
  <ele>343.17</ele>
  <time>2026-09-01T19:51:17Z</time>
  <course>10.6</course>
  <speed>0.022360679774997897</speed>
  <fix>3d</fix>
</trkpt>
<trkpt lat="-27.274439" lon="151.290064">
  <ele>343.1</ele>
  <time>2026-09-01T19:51:17Z</time>
  <course>270.0</course>
  <speed>0.0</speed>
  <fix>3d</fix>
</trkpt>
<trkpt lat="-27.2744392" lon="151.2900641">
  <ele>343.18</ele>
  <time>2026-09-01T19:51:17Z</time>
  <course>10.6</course>
  <speed>0.022360679774997897</speed>
  <fix>3d</fix>
</trkpt>
<trkpt lat="-27.274439" lon="151.290064">
  <ele>343.1</ele>
  <time>2026-09-01T19:51:17Z</time>
  <course>270.0</course>
  <speed>0.0</speed>
  <fix>3d</fix>
</trkpt>
<trkpt lat="-27.2744392" lon="151.2900641">
  <ele>343.18</ele>
  <time>2026-09-01T19:51:17Z</time>
  <course>10.6</course>
  <speed>0.022360679774997897</speed>
  <fix>3d</fix>
</trkpt>
<trkpt lat="-27.274439" lon="151.290064">
  <ele>343.1</ele>
  <time>2026-09-01T19:51:17Z</time>
  <course>270.0</course>
  <speed>0.0</speed>
  <fix>3d</fix>
</trkpt>
<trkpt lat="-27.2744392" lon="151.2900641">
  <ele>343.18</ele>
  <time>2026-09-01T19:51:17Z</time>
  <course>10.6</course>
  <speed>0.022360679774997897</speed>
  <fix>3d</fix>
</trkpt>
<trkpt lat="-27.274439" lon="151.290064">
  <ele>343.1</ele>
  <time>2026-09-01T19:51:17Z</time>
  <course>270.0</course>
  <speed>0.0</speed>
  <fix>3d</fix>
</trkpt>
<trkpt lat="-27.2744392" lon="151.2900641">
  <ele>343.19</ele>
  <time>2026-09-01T19:51:17Z</time>
  <course>10.6</course>
  <speed>0.022360679774997897</speed>
  <fix>3d</fix>
</trkpt>
<trkpt lat="-27.274439" lon="151.290064">
  <ele>343.1</ele>
  <time>2026-09-01T19:51:17Z</time>
  <course>270.0</course>
  <speed>0.0</speed>
  <fix>3d</fix>
</trkpt>
<trkpt lat="-27.2744392" lon="151.2900641">
  <ele>343.19</ele>
  <time>2026-09-01T19:51:17Z</time>
  <course>10.6</course>
  <speed>0.022360679774997897</speed>
  <fix>3d</fix>
</trkpt>
<trkpt lat="-27.274439" lon="151.290064">
  <ele>343.1</ele>
  <time>2026-09-01T19:51:17Z</time>
  <course>270.0</course>
  <speed>0.0</speed>
  <fix>3d</fix>
</trkpt>
<trkpt lat="-27.2744392" lon="151.2900641">
  <ele>343.19</ele>
  <time>2026-09-01T19:51:17Z</time>
  <course>10.6</course>
  <speed>0.022360679774997897</speed>
  <fix>3d</fix>
</trkpt>
<trkpt lat="-27.274439" lon="151.290064">
  <ele>343.1</ele>
  <time>2026-09-01T19:51:17Z</time>
  <course>270.0</course>
  <speed>0.0</speed>
  <fix>3d</fix>
</trkpt>
<trkpt lat="-27.2744392" lon="151.2900641">
  <ele>343.19</ele>
  <time>2026-09-01T19:51:17Z</time>
  <course>10.6</course>
  <speed>0.022360679774997897</speed>
  <fix>3d</fix>
</trkpt>
<trkpt lat="-27.274439" lon="151.290064">
  <ele>343.1</ele>
  <time>2026-09-01T19:51:17Z</time>
  <course>270.0</course>
  <speed>0.0</speed>
  <fix>3d</fix>
</trkpt>
<trkpt lat="-27.2744392" lon="151.2900641">
  <ele>343.19</ele>
  <time>2026-09-01T19:51:17Z</time>
  <course>10.6</course>
  <speed>0.022360679774997897</speed>
  <fix>3d</fix>
</trkpt>
<trkpt lat="-27.274439" lon="151.290064">
  <ele>343.1</ele>
  <time>2026-09-01T19:51:17Z</time>
  <course>270.0</course>
  <speed>0.0</speed>
  <fix>3d</fix>
</trkpt>
<trkpt lat="-27.2744392" lon="151.2900641">
  <ele>343.19</ele>
  <time>2026-09-01T19:51:17Z</time>
  <course>10.6</course>
  <speed>0.022360679774997897</speed>
  <fix>3d</fix>
</trkpt>
<trkpt lat="-27.274439" lon="151.290064">
  <ele>343.1</ele>
  <time>2026-09-01T19:51:17Z</time>
  <course>270.0</course>
  <speed>0.0</speed>
  <fix>3d</fix>
</trkpt>
<trkpt lat="-27.2744392" lon="151.2900641">
  <ele>343.19</ele>
  <time>2026-09-01T19:51:17Z</time>
  <course>10.6</course>
  <speed>0.022360679774997897</speed>
  <fix>3d</fix>
</trkpt>
<trkpt lat="-27.274439" lon="151.290064">
  <ele>343.1</ele>
  <time>2026-09-01T19:51:17Z</time>
  <course>270.0</course>
  <speed>0.0</speed>
  <fix>3d</fix>
</trkpt>
<trkpt lat="-27.2744392" lon="151.2900641">
  <ele>343.19</ele>
  <time>2026-09-01T19:51:17Z</time>
  <course>10.6</course>
  <speed>0.022360679774997897</speed>
  <fix>3d</fix>
</trkpt>
<trkpt lat="-27.274439" lon="151.290064">
  <ele>343.1</ele>
  <time>2026-09-01T19:51:17Z</time>
  <course>270.0</course>
  <speed>0.0</speed>
  <fix>3d</fix>
</trkpt>
<trkpt lat="-27.2744392" lon="151.2900641">
  <ele>343.19</ele>
  <time>2026-09-01T19:51:17Z</time>
  <course>10.6</course>
  <speed>0.022360679774997897</speed>
  <fix>3d</fix>
</trkpt>
<trkpt lat="-27.274439" lon="151.290064">
  <ele>343.1</ele>
  <time>2026-09-01T19:51:17Z</time>
  <course>270.0</course>
  <speed>0.0</speed>
  <fix>3d</fix>
</trkpt>
<trkpt lat="-27.2744392" lon="151.2900641">
  <ele>343.19</ele>
  <time>2026-09-01T19:51:17Z</time>
  <course>10.6</course>
  <speed>0.022360679774997897</speed>
  <fix>3d</fix>
</trkpt>
<trkpt lat="-27.274439" lon="151.290064">
  <ele>343.1</ele>
  <time>2026-09-01T19:51:17Z</time>
  <course>270.0</course>
  <speed>0.0</speed>
  <fix>3d</fix>
</trkpt>
<trkpt lat="-27.2744392" lon="151.2900641">
  <ele>343.2</ele>
  <time>2026-09-01T19:51:17Z</time>
  <course>10.6</course>
  <speed>0.022360679774997897</speed>
  <fix>3d</fix>
</trkpt>
<trkpt lat="-27.274439" lon="151.290064">
  <ele>343.1</ele>
  <time>2026-09-01T19:51:17Z</time>
  <course>270.0</course>
  <speed>0.0</speed>
  <fix>3d</fix>
</trkpt>
<trkpt lat="-27.2744392" lon="151.2900641">
  <ele>343.2</ele>
  <time>2026-09-01T19:51:17Z</time>
  <course>10.6</course>
  <speed>0.022360679774997897</speed>
  <fix>3d</fix>
</trkpt>
<trkpt lat="-27.274439" lon="151.290064">
  <ele>343.1</ele>
  <time>2026-09-01T19:51:17Z</time>
  <course>270.0</course>
  <speed>0.0</speed>
  <fix>3d</fix>
</trkpt>
<trkpt lat="-27.2744392" lon="151.2900641">
  <ele>343.2</ele>
  <time>2026-09-01T19:51:17Z</time>
  <course>10.6</course>
  <speed>0.022360679774997897</speed>
  <fix>3d</fix>
</trkpt>
<trkpt lat="-27.274439" lon="151.290064">
  <ele>343.1</ele>
  <time>2026-09-01T19:51:17Z</time>
  <course>270.0</course>
  <speed>0.0</speed>
  <fix>3d</fix>
</trkpt>
<trkpt lat="-27.2744392" lon="151.2900641">
  <ele>343.21</ele>
  <time>2026-09-01T19:51:18Z</time>
  <course>10.6</course>
  <speed>0.022360679774997897</speed>
  <fix>3d</fix>
</trkpt>
<trkpt lat="-27.274439" lon="151.290064">
  <ele>343.1</ele>
  <time>2026-09-01T19:51:18Z</time>
  <course>270.0</course>
  <speed>0.0</speed>
  <fix>3d</fix>
</trkpt>
<trkpt lat="-27.2744392" lon="151.2900641">
  <ele>343.21</ele>
  <time>2026-09-01T19:51:18Z</time>
  <course>10.6</course>
  <speed>0.022360679774997897</speed>
  <fix>3d</fix>
</trkpt>
<trkpt lat="-27.274439" lon="151.290064">
  <ele>343.1</ele>
  <time>2026-09-01T19:51:18Z</time>
  <course>270.0</course>
  <speed>0.0</speed>
  <fix>3d</fix>
</trkpt>
<trkpt lat="-27.2744392" lon="151.2900641">
  <ele>343.21</ele>
  <time>2026-09-01T19:51:18Z</time>
  <course>10.6</course>
  <speed>0.022360679774997897</speed>
  <fix>3d</fix>
</trkpt>
<trkpt lat="-27.274439" lon="151.290064">
  <ele>343.1</ele>
  <time>2026-09-01T19:51:18Z</time>
  <course>270.0</course>
  <speed>0.0</speed>
  <fix>3d</fix>
</trkpt>
<trkpt lat="-27.2744392" lon="151.2900641">
  <ele>343.21</ele>
  <time>2026-09-01T19:51:18Z</time>
  <course>10.6</course>
  <speed>0.022360679774997897</speed>
  <fix>3d</fix>
</trkpt>
<trkpt lat="-27.274439" lon="151.290064">
  <ele>343.1</ele>
  <time>2026-09-01T19:51:18Z</time>
  <course>270.0</course>
  <speed>0.0</speed>
  <fix>3d</fix>
</trkpt>
<trkpt lat="-27.2744392" lon="151.2900641">
  <ele>343.22</ele>
  <time>2026-09-01T19:51:18Z</time>
  <course>10.6</course>
  <speed>0.022360679774997897</speed>
  <fix>3d</fix>
</trkpt>
<trkpt lat="-27.274439" lon="151.290064">
  <ele>343.1</ele>
  <time>2026-09-01T19:51:18Z</time>
  <course>270.0</course>
  <speed>0.0</speed>
  <fix>3d</fix>
</trkpt>
<trkpt lat="-27.2744392" lon="151.2900641">
  <ele>343.22</ele>
  <time>2026-09-01T19:51:18Z</time>
  <course>10.6</course>
  <speed>0.022360679774997897</speed>
  <fix>3d</fix>
</trkpt>
<trkpt lat="-27.274439" lon="151.290064">
  <ele>343.1</ele>
  <time>2026-09-01T19:51:18Z</time>
  <course>270.0</course>
  <speed>0.0</speed>
  <fix>3d</fix>
</trkpt>
<trkpt lat="-27.2744392" lon="151.2900641">
  <ele>343.22</ele>
  <time>2026-09-01T19:51:18Z</time>
  <course>10.6</course>
  <speed>0.022360679774997897</speed>
  <fix>3d</fix>
</trkpt>
<trkpt lat="-27.274439" lon="151.290064">
  <ele>343.1</ele>
  <time>2026-09-01T19:51:18Z</time>
  <course>270.0</course>
  <speed>0.0</speed>
  <fix>3d</fix>
</trkpt>
<trkpt lat="-27.2744392" lon="151.2900641">
  <ele>343.22</ele>
  <time>2026-09-01T19:51:18Z</time>
  <course>10.6</course>
  <speed>0.022360679774997897</speed>
  <fix>3d</fix>
</trkpt>
<trkpt lat="-27.274439" lon="151.290064">
  <ele>343.1</ele>
  <time>2026-09-01T19:51:18Z</time>
  <course>270.0</course>
  <speed>0.0</speed>
  <fix>3d</fix>
</trkpt>
<trkpt lat="-27.2744392" lon="151.2900641">
  <ele>343.22</ele>
  <time>2026-09-01T19:51:18Z</time>
  <course>10.6</course>
  <speed>0.022360679774997897</speed>
  <fix>3d</fix>
</trkpt>
<trkpt lat="-27.274439" lon="151.290064">
  <ele>343.1</ele>
  <time>2026-09-01T19:51:18Z</time>
  <course>270.0</course>
  <speed>0.0</speed>
  <fix>3d</fix>
</trkpt>
<trkpt lat="-27.2744392" lon="151.2900641">
  <ele>343.1</ele>
  <time>2026-09-01T19:51:18Z</time>
  <course>10.6</course>
  <speed>0.022360679774997897</speed>
  <fix>3d</fix>
</trkpt>
<trkpt lat="-27.274439" lon="151.290064">
  <ele>343.1</ele>
  <time>2026-09-01T19:51:18Z</time>
  <course>270.0</course>
  <speed>0.0</speed>
  <fix>3d</fix>
</trkpt>
<trkpt lat="-27.2744392" lon="151.2900641">
  <ele>343.1</ele>
  <time>2026-09-01T19:51:18Z</time>
  <course>10.6</course>
  <speed>0.022360679774997897</speed>
  <fix>3d</fix>
</trkpt>
<trkpt lat="-27.274439" lon="151.290064">
  <ele>343.1</ele>
  <time>2026-09-01T19:51:18Z</time>
  <course>270.0</course>
  <speed>0.0</speed>
  <fix>3d</fix>
</trkpt>
<trkpt lat="-27.2744392" lon="151.2900641">
  <ele>343.1</ele>
  <time>2026-09-01T19:51:18Z</time>
  <course>10.6</course>
  <speed>0.022360679774997897</speed>
  <fix>3d</fix>
</trkpt>
<trkpt lat="-27.274439" lon="151.290064">
  <ele>343.1</ele>
  <time>2026-09-01T19:51:18Z</time>
  <course>270.0</course>
  <speed>0.0</speed>
  <fix>3d</fix>
</trkpt>
<trkpt lat="-27.2744392" lon="151.2900641">
  <ele>343.09</ele>
  <time>2026-09-01T19:51:18Z</time>
  <course>10.6</course>
  <speed>0.022360679774997897</speed>
  <fix>3d</fix>
</trkpt>
<trkpt lat="-27.274439" lon="151.290064">
  <ele>343.1</ele>
  <time>2026-09-01T19:51:18Z</time>
  <course>270.0</course>
  <speed>0.0</speed>
  <fix>3d</fix>
</trkpt>
<trkpt lat="-27.2744392" lon="151.2900641">
  <ele>343.09</ele>
  <time>2026-09-01T19:51:18Z</time>
  <course>10.6</course>
  <speed>0.022360679774997897</speed>
  <fix>3d</fix>
</trkpt>
<trkpt lat="-27.274439" lon="151.290064">
  <ele>343.1</ele>
  <time>2026-09-01T19:51:18Z</time>
  <course>270.0</course>
  <speed>0.0</speed>
  <fix>3d</fix>
</trkpt>
<trkpt lat="-27.2744392" lon="151.2900641">
  <ele>343.09</ele>
  <time>2026-09-01T19:51:18Z</time>
  <course>10.6</course>
  <speed>0.022360679774997897</speed>
  <fix>3d</fix>
</trkpt>
<trkpt lat="-27.274439" lon="151.290064">
  <ele>343.1</ele>
  <time>2026-09-01T19:51:18Z</time>
  <course>270.0</course>
  <speed>0.0</speed>
  <fix>3d</fix>
</trkpt>
<trkpt lat="-27.2744392" lon="151.2900641">
  <ele>343.09</ele>
  <time>2026-09-01T19:51:18Z</time>
  <course>10.6</course>
  <speed>0.022360679774997897</speed>
  <fix>3d</fix>
</trkpt>
<trkpt lat="-27.274439" lon="151.290064">
  <ele>343.1</ele>
  <time>2026-09-01T19:51:18Z</time>
  <course>270.0</course>
  <speed>0.0</speed>
  <fix>3d</fix>
</trkpt>
<trkpt lat="-27.2744392" lon="151.2900641">
  <ele>343.09</ele>
  <time>2026-09-01T19:51:18Z</time>
  <course>10.6</course>
  <speed>0.022360679774997897</speed>
  <fix>3d</fix>
</trkpt>
<trkpt lat="-27.274439" lon="151.290064">
  <ele>343.1</ele>
  <time>2026-09-01T19:51:18Z</time>
  <course>270.0</course>
  <speed>0.0</speed>
  <fix>3d</fix>
</trkpt>
<trkpt lat="-27.2744392" lon="151.2900641">
  <ele>343.09</ele>
  <time>2026-09-01T19:51:18Z</time>
  <course>10.6</course>
  <speed>0.022360679774997897</speed>
  <fix>3d</fix>
</trkpt>
<trkpt lat="-27.274439" lon="151.290064">
  <ele>343.1</ele>
  <time>2026-09-01T19:51:18Z</time>
  <course>270.0</course>
  <speed>0.0</speed>
  <fix>3d</fix>
</trkpt>
<trkpt lat="-27.2744392" lon="151.2900641">
  <ele>343.09</ele>
  <time>2026-09-01T19:51:18Z</time>
  <course>10.61</course>
  <speed>0.022360679774997897</speed>
  <fix>3d</fix>
</trkpt>
<trkpt lat="-27.274439" lon="151.290064">
  <ele>343.1</ele>
  <time>2026-09-01T19:51:18Z</time>
  <course>270.0</course>
  <speed>0.0</speed>
  <fix>3d</fix>
</trkpt>
<trkpt lat="-27.2744392" lon="151.2900641">
  <ele>343.09</ele>
  <time>2026-09-01T19:51:18Z</time>
  <course>10.61</course>
  <speed>0.022360679774997897</speed>
  <fix>3d</fix>
</trkpt>
<trkpt lat="-27.274439" lon="151.290064">
  <ele>343.1</ele>
  <time>2026-09-01T19:51:18Z</time>
  <course>270.0</course>
  <speed>0.0</speed>
  <fix>3d</fix>
</trkpt>
<trkpt lat="-27.2744392" lon="151.2900641">
  <ele>343.09</ele>
  <time>2026-09-01T19:51:18Z</time>
  <course>10.61</course>
  <speed>0.022360679774997897</speed>
  <fix>3d</fix>
</trkpt>
<trkpt lat="-27.274439" lon="151.290064">
  <ele>343.1</ele>
  <time>2026-09-01T19:51:18Z</time>
  <course>270.0</course>
  <speed>0.0</speed>
  <fix>3d</fix>
</trkpt>
<trkpt lat="-27.2744392" lon="151.2900641">
  <ele>343.09</ele>
  <time>2026-09-01T19:51:18Z</time>
  <course>10.61</course>
  <speed>0.022360679774997897</speed>
  <fix>3d</fix>
</trkpt>
<trkpt lat="-27.274439" lon="151.290064">
  <ele>343.1</ele>
  <time>2026-09-01T19:51:18Z</time>
  <course>270.0</course>
  <speed>0.0</speed>
  <fix>3d</fix>
</trkpt>
<trkpt lat="-27.2744392" lon="151.2900641">
  <ele>343.09</ele>
  <time>2026-09-01T19:51:18Z</time>
  <course>10.61</course>
  <speed>0.022360679774997897</speed>
  <fix>3d</fix>
</trkpt>
<trkpt lat="-27.274439" lon="151.290064">
  <ele>343.1</ele>
  <time>2026-09-01T19:51:18Z</time>
  <course>270.0</course>
  <speed>0.0</speed>
  <fix>3d</fix>
</trkpt>
<trkpt lat="-27.2744392" lon="151.2900641">
  <ele>343.1</ele>
  <time>2026-09-01T19:51:18Z</time>
  <course>10.61</course>
  <speed>0.0282842712474619</speed>
  <fix>3d</fix>
</trkpt>
<trkpt lat="-27.274439" lon="151.290064">
  <ele>343.1</ele>
  <time>2026-09-01T19:51:18Z</time>
  <course>270.0</course>
  <speed>0.0</speed>
  <fix>3d</fix>
</trkpt>
<trkpt lat="-27.2744392" lon="151.2900641">
  <ele>343.1</ele>
  <time>2026-09-01T19:51:18Z</time>
  <course>10.61</course>
  <speed>0.022360679774997897</speed>
  <fix>3d</fix>
</trkpt>
<trkpt lat="-27.274439" lon="151.290064">
  <ele>343.1</ele>
  <time>2026-09-01T19:51:18Z</time>
  <course>270.0</course>
  <speed>0.0</speed>
  <fix>3d</fix>
</trkpt>
<trkpt lat="-27.2744392" lon="151.2900641">
  <ele>343.1</ele>
  <time>2026-09-01T19:51:18Z</time>
  <course>10.61</course>
  <speed>0.022360679774997897</speed>
  <fix>3d</fix>
</trkpt>
<trkpt lat="-27.274439" lon="151.290064">
  <ele>343.1</ele>
  <time>2026-09-01T19:51:18Z</time>
  <course>270.0</course>
  <speed>0.0</speed>
  <fix>3d</fix>
</trkpt>
<trkpt lat="-27.2744392" lon="151.2900641">
  <ele>343.1</ele>
  <time>2026-09-01T19:51:18Z</time>
  <course>10.61</course>
  <speed>0.022360679774997897</speed>
  <fix>3d</fix>
</trkpt>
<trkpt lat="-27.274439" lon="151.290064">
  <ele>343.1</ele>
  <time>2026-09-01T19:51:18Z</time>
  <course>270.0</course>
  <speed>0.0</speed>
  <fix>3d</fix>
</trkpt>
<trkpt lat="-27.2744392" lon="151.2900641">
  <ele>343.1</ele>
  <time>2026-09-01T19:51:18Z</time>
  <course>10.61</course>
  <speed>0.0282842712474619</speed>
  <fix>3d</fix>
</trkpt>
<trkpt lat="-27.274439" lon="151.290064">
  <ele>343.1</ele>
  <time>2026-09-01T19:51:18Z</time>
  <course>270.0</course>
  <speed>0.0</speed>
  <fix>3d</fix>
</trkpt>
<trkpt lat="-27.2744392" lon="151.2900641">
  <ele>343.1</ele>
  <time>2026-09-01T19:51:18Z</time>
  <course>10.61</course>
  <speed>0.0282842712474619</speed>
  <fix>3d</fix>
</trkpt>
<trkpt lat="-27.274439" lon="151.290064">
  <ele>343.1</ele>
  <time>2026-09-01T19:51:18Z</time>
  <course>270.0</course>
  <speed>0.0</speed>
  <fix>3d</fix>
</trkpt>
<trkpt lat="-27.2744392" lon="151.2900641">
  <ele>343.1</ele>
  <time>2026-09-01T19:51:18Z</time>
  <course>10.61</course>
  <speed>0.0282842712474619</speed>
  <fix>3d</fix>
</trkpt>
<trkpt lat="-27.274439" lon="151.290064">
  <ele>343.1</ele>
  <time>2026-09-01T19:51:18Z</time>
  <course>270.0</course>
  <speed>0.0</speed>
  <fix>3d</fix>
</trkpt>
<trkpt lat="-27.2744392" lon="151.2900641">
  <ele>343.1</ele>
  <time>2026-09-01T19:51:18Z</time>
  <course>10.61</course>
  <speed>0.0282842712474619</speed>
  <fix>3d</fix>
</trkpt>
<trkpt lat="-27.274439" lon="151.290064">
  <ele>343.1</ele>
  <time>2026-09-01T19:51:18Z</time>
  <course>270.0</course>
  <speed>0.0</speed>
  <fix>3d</fix>
</trkpt>
<trkpt lat="-27.2744392" lon="151.2900641">
  <ele>343.09</ele>
  <time>2026-09-01T19:51:18Z</time>
  <course>10.61</course>
  <speed>0.0282842712474619</speed>
  <fix>3d</fix>
</trkpt>
<trkpt lat="-27.274439" lon="151.290064">
  <ele>343.1</ele>
  <time>2026-09-01T19:51:18Z</time>
  <course>270.0</course>
  <speed>0.0</speed>
  <fix>3d</fix>
</trkpt>
<trkpt lat="-27.2744392" lon="151.2900641">
  <ele>343.09</ele>
  <time>2026-09-01T19:51:18Z</time>
  <course>10.61</course>
  <speed>0.0282842712474619</speed>
  <fix>3d</fix>
</trkpt>
<trkpt lat="-27.274439" lon="151.290064">
  <ele>343.1</ele>
  <time>2026-09-01T19:51:18Z</time>
  <course>270.0</course>
  <speed>0.0</speed>
  <fix>3d</fix>
</trkpt>
<trkpt lat="-27.2744392" lon="151.2900641">
  <ele>343.09</ele>
  <time>2026-09-01T19:51:18Z</time>
  <course>10.61</course>
  <speed>0.0282842712474619</speed>
  <fix>3d</fix>
</trkpt>
<trkpt lat="-27.274439" lon="151.290064">
  <ele>343.1</ele>
  <time>2026-09-01T19:51:18Z</time>
  <course>270.0</course>
  <speed>0.0</speed>
  <fix>3d</fix>
</trkpt>
<trkpt lat="-27.2744392" lon="151.2900641">
  <ele>343.09</ele>
  <time>2026-09-01T19:51:18Z</time>
  <course>10.61</course>
  <speed>0.0282842712474619</speed>
  <fix>3d</fix>
</trkpt>
<trkpt lat="-27.274439" lon="151.290064">
  <ele>343.1</ele>
  <time>2026-09-01T19:51:18Z</time>
  <course>270.0</course>
  <speed>0.0</speed>
  <fix>3d</fix>
</trkpt>
<trkpt lat="-27.2744392" lon="151.2900641">
  <ele>343.09</ele>
  <time>2026-09-01T19:51:18Z</time>
  <course>10.61</course>
  <speed>0.0282842712474619</speed>
  <fix>3d</fix>
</trkpt>
<trkpt lat="-27.274439" lon="151.290064">
  <ele>343.1</ele>
  <time>2026-09-01T19:51:18Z</time>
  <course>270.0</course>
  <speed>0.0</speed>
  <fix>3d</fix>
</trkpt>
<trkpt lat="-27.2744392" lon="151.2900641">
  <ele>343.09</ele>
  <time>2026-09-01T19:51:18Z</time>
  <course>10.61</course>
  <speed>0.0282842712474619</speed>
  <fix>3d</fix>
</trkpt>
<trkpt lat="-27.274439" lon="151.290064">
  <ele>343.1</ele>
  <time>2026-09-01T19:51:18Z</time>
  <course>270.0</course>
  <speed>0.0</speed>
  <fix>3d</fix>
</trkpt>
<trkpt lat="-27.2744392" lon="151.2900641">
  <ele>343.08</ele>
  <time>2026-09-01T19:51:18Z</time>
  <course>10.61</course>
  <speed>0.0282842712474619</speed>
  <fix>3d</fix>
</trkpt>
<trkpt lat="-27.274439" lon="151.290064">
  <ele>343.1</ele>
  <time>2026-09-01T19:51:18Z</time>
  <course>270.0</course>
  <speed>0.0</speed>
  <fix>3d</fix>
</trkpt>
<trkpt lat="-27.2744392" lon="151.2900641">
  <ele>343.08</ele>
  <time>2026-09-01T19:51:18Z</time>
  <course>10.61</course>
  <speed>0.0282842712474619</speed>
  <fix>3d</fix>
</trkpt>
<trkpt lat="-27.274439" lon="151.290064">
  <ele>343.1</ele>
  <time>2026-09-01T19:51:18Z</time>
  <course>270.0</course>
  <speed>0.0</speed>
  <fix>3d</fix>
</trkpt>
<trkpt lat="-27.2744392" lon="151.2900641">
  <ele>343.08</ele>
  <time>2026-09-01T19:51:18Z</time>
  <course>10.61</course>
  <speed>0.0282842712474619</speed>
  <fix>3d</fix>
</trkpt>
<trkpt lat="-27.274439" lon="151.290064">
  <ele>343.1</ele>
  <time>2026-09-01T19:51:18Z</time>
  <course>270.0</course>
  <speed>0.0</speed>
  <fix>3d</fix>
</trkpt>
<trkpt lat="-27.2744392" lon="151.2900641">
  <ele>343.08</ele>
  <time>2026-09-01T19:51:18Z</time>
  <course>10.61</course>
  <speed>0.0282842712474619</speed>
  <fix>3d</fix>
</trkpt>
<trkpt lat="-27.274439" lon="151.290064">
  <ele>343.1</ele>
  <time>2026-09-01T19:51:18Z</time>
  <course>270.0</course>
  <speed>0.0</speed>
  <fix>3d</fix>
</trkpt>
<trkpt lat="-27.2744392" lon="151.2900641">
  <ele>343.07</ele>
  <time>2026-09-01T19:51:18Z</time>
  <course>10.61</course>
  <speed>0.0282842712474619</speed>
  <fix>3d</fix>
</trkpt>
<trkpt lat="-27.274439" lon="151.290064">
  <ele>343.1</ele>
  <time>2026-09-01T19:51:18Z</time>
  <course>270.0</course>
  <speed>0.0</speed>
  <fix>3d</fix>
</trkpt>
<trkpt lat="-27.2744392" lon="151.2900641">
  <ele>343.07</ele>
  <time>2026-09-01T19:51:18Z</time>
  <course>10.61</course>
  <speed>0.0282842712474619</speed>
  <fix>3d</fix>
</trkpt>
<trkpt lat="-27.274439" lon="151.290064">
  <ele>343.1</ele>
  <time>2026-09-01T19:51:18Z</time>
  <course>270.0</course>
  <speed>0.0</speed>
  <fix>3d</fix>
</trkpt>
<trkpt lat="-27.2744392" lon="151.2900641">
  <ele>343.07</ele>
  <time>2026-09-01T19:51:18Z</time>
  <course>10.61</course>
  <speed>0.0282842712474619</speed>
  <fix>3d</fix>
</trkpt>
<trkpt lat="-27.274439" lon="151.290064">
  <ele>343.1</ele>
  <time>2026-09-01T19:51:18Z</time>
  <course>270.0</course>
  <speed>0.0</speed>
  <fix>3d</fix>
</trkpt>
<trkpt lat="-27.2744392" lon="151.2900641">
  <ele>343.07</ele>
  <time>2026-09-01T19:51:18Z</time>
  <course>10.61</course>
  <speed>0.0282842712474619</speed>
  <fix>3d</fix>
</trkpt>
<trkpt lat="-27.274439" lon="151.290064">
  <ele>343.1</ele>
  <time>2026-09-01T19:51:18Z</time>
  <course>270.0</course>
  <speed>0.0</speed>
  <fix>3d</fix>
</trkpt>
<trkpt lat="-27.2744392" lon="151.2900641">
  <ele>343.07</ele>
  <time>2026-09-01T19:51:18Z</time>
  <course>10.61</course>
  <speed>0.0282842712474619</speed>
  <fix>3d</fix>
</trkpt>
<trkpt lat="-27.274439" lon="151.290064">
  <ele>343.1</ele>
  <time>2026-09-01T19:51:18Z</time>
  <course>270.0</course>
  <speed>0.0</speed>
  <fix>3d</fix>
</trkpt>
<trkpt lat="-27.2744392" lon="151.2900641">
  <ele>343.06</ele>
  <time>2026-09-01T19:51:18Z</time>
  <course>10.61</course>
  <speed>0.0282842712474619</speed>
  <fix>3d</fix>
</trkpt>
<trkpt lat="-27.274439" lon="151.290064">
  <ele>343.1</ele>
  <time>2026-09-01T19:51:18Z</time>
  <course>270.0</course>
  <speed>0.0</speed>
  <fix>3d</fix>
</trkpt>
<trkpt lat="-27.2744392" lon="151.2900641">
  <ele>343.06</ele>
  <time>2026-09-01T19:51:18Z</time>
  <course>10.61</course>
  <speed>0.0282842712474619</speed>
  <fix>3d</fix>
</trkpt>
<trkpt lat="-27.274439" lon="151.290064">
  <ele>343.1</ele>
  <time>2026-09-01T19:51:18Z</time>
  <course>270.0</course>
  <speed>0.0</speed>
  <fix>3d</fix>
</trkpt>
<trkpt lat="-27.2744392" lon="151.2900641">
  <ele>343.06</ele>
  <time>2026-09-01T19:51:18Z</time>
  <course>10.61</course>
  <speed>0.0282842712474619</speed>
  <fix>3d</fix>
</trkpt>
<trkpt lat="-27.274439" lon="151.290064">
  <ele>343.1</ele>
  <time>2026-09-01T19:51:18Z</time>
  <course>270.0</course>
  <speed>0.0</speed>
  <fix>3d</fix>
</trkpt>
<trkpt lat="-27.2744392" lon="151.2900641">
  <ele>343.06</ele>
  <time>2026-09-01T19:51:18Z</time>
  <course>10.61</course>
  <speed>0.0282842712474619</speed>
  <fix>3d</fix>
</trkpt>
<trkpt lat="-27.274439" lon="151.290064">
  <ele>343.1</ele>
  <time>2026-09-01T19:51:18Z</time>
  <course>270.0</course>
  <speed>0.0</speed>
  <fix>3d</fix>
</trkpt>
<trkpt lat="-27.2744392" lon="151.2900641">
  <ele>343.06</ele>
  <time>2026-09-01T19:51:18Z</time>
  <course>10.61</course>
  <speed>0.0282842712474619</speed>
  <fix>3d</fix>
</trkpt>
<trkpt lat="-27.274439" lon="151.290064">
  <ele>343.1</ele>
  <time>2026-09-01T19:51:18Z</time>
  <course>270.0</course>
  <speed>0.0</speed>
  <fix>3d</fix>
</trkpt>
<trkpt lat="-27.2744392" lon="151.2900641">
  <ele>343.06</ele>
  <time>2026-09-01T19:51:18Z</time>
  <course>10.61</course>
  <speed>0.0282842712474619</speed>
  <fix>3d</fix>
</trkpt>
<trkpt lat="-27.274439" lon="151.290064">
  <ele>343.1</ele>
  <time>2026-09-01T19:51:18Z</time>
  <course>270.0</course>
  <speed>0.0</speed>
  <fix>3d</fix>
</trkpt>
<trkpt lat="-27.2744392" lon="151.2900641">
  <ele>343.06</ele>
  <time>2026-09-01T19:51:18Z</time>
  <course>10.61</course>
  <speed>0.0282842712474619</speed>
  <fix>3d</fix>
</trkpt>
<trkpt lat="-27.274439" lon="151.290064">
  <ele>343.1</ele>
  <time>2026-09-01T19:51:18Z</time>
  <course>270.0</course>
  <speed>0.0</speed>
  <fix>3d</fix>
</trkpt>
<trkpt lat="-27.2744392" lon="151.2900641">
  <ele>343.06</ele>
  <time>2026-09-01T19:51:18Z</time>
  <course>10.61</course>
  <speed>0.0282842712474619</speed>
  <fix>3d</fix>
</trkpt>
<trkpt lat="-27.274439" lon="151.290064">
  <ele>343.1</ele>
  <time>2026-09-01T19:51:18Z</time>
  <course>270.0</course>
  <speed>0.0</speed>
  <fix>3d</fix>
</trkpt>
<trkpt lat="-27.2744392" lon="151.2900641">
  <ele>343.06</ele>
  <time>2026-09-01T19:51:18Z</time>
  <course>10.62</course>
  <speed>0.0282842712474619</speed>
  <fix>3d</fix>
</trkpt>
<trkpt lat="-27.274439" lon="151.290064">
  <ele>343.1</ele>
  <time>2026-09-01T19:51:18Z</time>
  <course>270.0</course>
  <speed>0.0</speed>
  <fix>3d</fix>
</trkpt>
<trkpt lat="-27.2744392" lon="151.2900641">
  <ele>343.06</ele>
  <time>2026-09-01T19:51:18Z</time>
  <course>10.62</course>
  <speed>0.0282842712474619</speed>
  <fix>3d</fix>
</trkpt>
<trkpt lat="-27.274439" lon="151.290064">
  <ele>343.1</ele>
  <time>2026-09-01T19:51:18Z</time>
  <course>270.0</course>
  <speed>0.0</speed>
  <fix>3d</fix>
</trkpt>
<trkpt lat="-27.2744392" lon="151.2900641">
  <ele>343.06</ele>
  <time>2026-09-01T19:51:18Z</time>
  <course>10.62</course>
  <speed>0.0282842712474619</speed>
  <fix>3d</fix>
</trkpt>
<trkpt lat="-27.274439" lon="151.290064">
  <ele>343.1</ele>
  <time>2026-09-01T19:51:18Z</time>
  <course>270.0</course>
  <speed>0.0</speed>
  <fix>3d</fix>
</trkpt>
<trkpt lat="-27.2744392" lon="151.2900641">
  <ele>343.07</ele>
  <time>2026-09-01T19:51:18Z</time>
  <course>10.62</course>
  <speed>0.0282842712474619</speed>
  <fix>3d</fix>
</trkpt>
<trkpt lat="-27.274439" lon="151.290064">
  <ele>343.1</ele>
  <time>2026-09-01T19:51:18Z</time>
  <course>270.0</course>
  <speed>0.0</speed>
  <fix>3d</fix>
</trkpt>
<trkpt lat="-27.2744392" lon="151.2900641">
  <ele>343.07</ele>
  <time>2026-09-01T19:51:18Z</time>
  <course>10.62</course>
  <speed>0.0282842712474619</speed>
  <fix>3d</fix>
</trkpt>
<trkpt lat="-27.274439" lon="151.290064">
  <ele>343.1</ele>
  <time>2026-09-01T19:51:18Z</time>
  <course>270.0</course>
  <speed>0.0</speed>
  <fix>3d</fix>
</trkpt>
<trkpt lat="-27.2744392" lon="151.2900641">
  <ele>343.07</ele>
  <time>2026-09-01T19:51:18Z</time>
  <course>10.62</course>
  <speed>0.0282842712474619</speed>
  <fix>3d</fix>
</trkpt>
<trkpt lat="-27.274439" lon="151.290064">
  <ele>343.1</ele>
  <time>2026-09-01T19:51:18Z</time>
  <course>270.0</course>
  <speed>0.0</speed>
  <fix>3d</fix>
</trkpt>
<trkpt lat="-27.2744392" lon="151.2900641">
  <ele>343.07</ele>
  <time>2026-09-01T19:51:18Z</time>
  <course>10.62</course>
  <speed>0.0282842712474619</speed>
  <fix>3d</fix>
</trkpt>
<trkpt lat="-27.274439" lon="151.290064">
  <ele>343.1</ele>
  <time>2026-09-01T19:51:18Z</time>
  <course>270.0</course>
  <speed>0.0</speed>
  <fix>3d</fix>
</trkpt>
<trkpt lat="-27.2744392" lon="151.2900641">
  <ele>343.08</ele>
  <time>2026-09-01T19:51:18Z</time>
  <course>10.62</course>
  <speed>0.0282842712474619</speed>
  <fix>3d</fix>
</trkpt>
<trkpt lat="-27.274439" lon="151.290064">
  <ele>343.1</ele>
  <time>2026-09-01T19:51:18Z</time>
  <course>270.0</course>
  <speed>0.0</speed>
  <fix>3d</fix>
</trkpt>
<trkpt lat="-27.2744392" lon="151.2900641">
  <ele>343.08</ele>
  <time>2026-09-01T19:51:18Z</time>
  <course>10.62</course>
  <speed>0.022360679774997897</speed>
  <fix>3d</fix>
</trkpt>
<trkpt lat="-27.274439" lon="151.290064">
  <ele>343.1</ele>
  <time>2026-09-01T19:51:18Z</time>
  <course>270.0</course>
  <speed>0.0</speed>
  <fix>3d</fix>
</trkpt>
<trkpt lat="-27.2744392" lon="151.2900641">
  <ele>343.08</ele>
  <time>2026-09-01T19:51:18Z</time>
  <course>10.62</course>
  <speed>0.0282842712474619</speed>
  <fix>3d</fix>
</trkpt>
<trkpt lat="-27.274439" lon="151.290064">
  <ele>343.1</ele>
  <time>2026-09-01T19:51:18Z</time>
  <course>270.0</course>
  <speed>0.0</speed>
  <fix>3d</fix>
</trkpt>
<trkpt lat="-27.2744392" lon="151.2900641">
  <ele>343.08</ele>
  <time>2026-09-01T19:51:18Z</time>
  <course>10.62</course>
  <speed>0.022360679774997897</speed>
  <fix>3d</fix>
</trkpt>
<trkpt lat="-27.274439" lon="151.290064">
  <ele>343.1</ele>
  <time>2026-09-01T19:51:18Z</time>
  <course>270.0</course>
  <speed>0.0</speed>
  <fix>3d</fix>
</trkpt>
<trkpt lat="-27.2744392" lon="151.2900641">
  <ele>343.08</ele>
  <time>2026-09-01T19:51:18Z</time>
  <course>10.62</course>
  <speed>0.022360679774997897</speed>
  <fix>3d</fix>
</trkpt>
<trkpt lat="-27.274439" lon="151.290064">
  <ele>343.1</ele>
  <time>2026-09-01T19:51:18Z</time>
  <course>270.0</course>
  <speed>0.0</speed>
  <fix>3d</fix>
</trkpt>
<trkpt lat="-27.2744392" lon="151.2900641">
  <ele>343.08</ele>
  <time>2026-09-01T19:51:18Z</time>
  <course>10.62</course>
  <speed>0.022360679774997897</speed>
  <fix>3d</fix>
</trkpt>
<trkpt lat="-27.274439" lon="151.290064">
  <ele>343.1</ele>
  <time>2026-09-01T19:51:18Z</time>
  <course>270.0</course>
  <speed>0.0</speed>
  <fix>3d</fix>
</trkpt>
<trkpt lat="-27.2744392" lon="151.2900641">
  <ele>343.08</ele>
  <time>2026-09-01T19:51:18Z</time>
  <course>10.62</course>
  <speed>0.0282842712474619</speed>
  <fix>3d</fix>
</trkpt>
<trkpt lat="-27.274439" lon="151.290064">
  <ele>343.1</ele>
  <time>2026-09-01T19:51:18Z</time>
  <course>270.0</course>
  <speed>0.0</speed>
  <fix>3d</fix>
</trkpt>
<trkpt lat="-27.2744392" lon="151.2900641">
  <ele>343.08</ele>
  <time>2026-09-01T19:51:18Z</time>
  <course>10.62</course>
  <speed>0.022360679774997897</speed>
  <fix>3d</fix>
</trkpt>
<trkpt lat="-27.274439" lon="151.290064">
  <ele>343.1</ele>
  <time>2026-09-01T19:51:18Z</time>
  <course>270.0</course>
  <speed>0.0</speed>
  <fix>3d</fix>
</trkpt>
<trkpt lat="-27.2744392" lon="151.2900641">
  <ele>343.1</ele>
  <time>2026-09-01T19:51:18Z</time>
  <course>10.62</course>
  <speed>0.022360679774997897</speed>
  <fix>3d</fix>
</trkpt>
<trkpt lat="-27.274439" lon="151.290064">
  <ele>343.1</ele>
  <time>2026-09-01T19:51:18Z</time>
  <course>270.0</course>
  <speed>0.0</speed>
  <fix>3d</fix>
</trkpt>
<trkpt lat="-27.2744392" lon="151.2900641">
  <ele>343.1</ele>
  <time>2026-09-01T19:51:18Z</time>
  <course>10.62</course>
  <speed>0.022360679774997897</speed>
  <fix>3d</fix>
</trkpt>
<trkpt lat="-27.274439" lon="151.290064">
  <ele>343.1</ele>
  <time>2026-09-01T19:51:18Z</time>
  <course>270.0</course>
  <speed>0.0</speed>
  <fix>3d</fix>
</trkpt>
<trkpt lat="-27.2744392" lon="151.2900641">
  <ele>343.1</ele>
  <time>2026-09-01T19:51:18Z</time>
  <course>10.62</course>
  <speed>0.022360679774997897</speed>
  <fix>3d</fix>
</trkpt>
<trkpt lat="-27.274439" lon="151.290064">
  <ele>343.1</ele>
  <time>2026-09-01T19:51:18Z</time>
  <course>270.0</course>
  <speed>0.0</speed>
  <fix>3d</fix>
</trkpt>
<trkpt lat="-27.2744392" lon="151.2900641">
  <ele>343.1</ele>
  <time>2026-09-01T19:51:18Z</time>
  <course>10.62</course>
  <speed>0.022360679774997897</speed>
  <fix>3d</fix>
</trkpt>
<trkpt lat="-27.274439" lon="151.290064">
  <ele>343.1</ele>
  <time>2026-09-01T19:51:18Z</time>
  <course>270.0</course>
  <speed>0.0</speed>
  <fix>3d</fix>
</trkpt>
<trkpt lat="-27.2744392" lon="151.2900641">
  <ele>343.1</ele>
  <time>2026-09-01T19:51:18Z</time>
  <course>10.62</course>
  <speed>0.022360679774997897</speed>
  <fix>3d</fix>
</trkpt>
<trkpt lat="-27.274439" lon="151.290064">
  <ele>343.1</ele>
  <time>2026-09-01T19:51:18Z</time>
  <course>270.0</course>
  <speed>0.0</speed>
  <fix>3d</fix>
</trkpt>
<trkpt lat="-27.2744392" lon="151.2900641">
  <ele>343.1</ele>
  <time>2026-09-01T19:51:18Z</time>
  <course>10.62</course>
  <speed>0.022360679774997897</speed>
  <fix>3d</fix>
</trkpt>
<trkpt lat="-27.274439" lon="151.290064">
  <ele>343.1</ele>
  <time>2026-09-01T19:51:18Z</time>
  <course>270.0</course>
  <speed>0.0</speed>
  <fix>3d</fix>
</trkpt>
<trkpt lat="-27.2744392" lon="151.2900641">
  <ele>343.1</ele>
  <time>2026-09-01T19:51:18Z</time>
  <course>10.63</course>
  <speed>0.022360679774997897</speed>
  <fix>3d</fix>
</trkpt>
<trkpt lat="-27.274439" lon="151.290064">
  <ele>343.1</ele>
  <time>2026-09-01T19:51:18Z</time>
  <course>270.0</course>
  <speed>0.0</speed>
  <fix>3d</fix>
</trkpt>
<trkpt lat="-27.2744392" lon="151.2900641">
  <ele>343.1</ele>
  <time>2026-09-01T19:51:18Z</time>
  <course>10.63</course>
  <speed>0.022360679774997897</speed>
  <fix>3d</fix>
</trkpt>
<trkpt lat="-27.274439" lon="151.290064">
  <ele>343.1</ele>
  <time>2026-09-01T19:51:18Z</time>
  <course>270.0</course>
  <speed>0.0</speed>
  <fix>3d</fix>
</trkpt>
<trkpt lat="-27.2744392" lon="151.2900641">
  <ele>343.1</ele>
  <time>2026-09-01T19:51:18Z</time>
  <course>10.63</course>
  <speed>0.022360679774997897</speed>
  <fix>3d</fix>
</trkpt>
<trkpt lat="-27.274439" lon="151.290064">
  <ele>343.1</ele>
  <time>2026-09-01T19:51:18Z</time>
  <course>270.0</course>
  <speed>0.0</speed>
  <fix>3d</fix>
</trkpt>
<trkpt lat="-27.2744392" lon="151.2900641">
  <ele>343.1</ele>
  <time>2026-09-01T19:51:18Z</time>
  <course>10.63</course>
  <speed>0.022360679774997897</speed>
  <fix>3d</fix>
</trkpt>
<trkpt lat="-27.274439" lon="151.290064">
  <ele>343.1</ele>
  <time>2026-09-01T19:51:18Z</time>
  <course>270.0</course>
  <speed>0.0</speed>
  <fix>3d</fix>
</trkpt>
<trkpt lat="-27.2744392" lon="151.2900641">
  <ele>343.1</ele>
  <time>2026-09-01T19:51:18Z</time>
  <course>10.63</course>
  <speed>0.022360679774997897</speed>
  <fix>3d</fix>
</trkpt>
<trkpt lat="-27.274439" lon="151.290064">
  <ele>343.1</ele>
  <time>2026-09-01T19:51:18Z</time>
  <course>270.0</course>
  <speed>0.0</speed>
  <fix>3d</fix>
</trkpt>
<trkpt lat="-27.2744392" lon="151.2900641">
  <ele>343.1</ele>
  <time>2026-09-01T19:51:18Z</time>
  <course>10.63</course>
  <speed>0.022360679774997897</speed>
  <fix>3d</fix>
</trkpt>
<trkpt lat="-27.274439" lon="151.290064">
  <ele>343.1</ele>
  <time>2026-09-01T19:51:18Z</time>
  <course>270.0</course>
  <speed>0.0</speed>
  <fix>3d</fix>
</trkpt>
<trkpt lat="-27.2744392" lon="151.2900641">
  <ele>343.1</ele>
  <time>2026-09-01T19:51:18Z</time>
  <course>10.63</course>
  <speed>0.022360679774997897</speed>
  <fix>3d</fix>
</trkpt>
<trkpt lat="-27.274439" lon="151.290064">
  <ele>343.1</ele>
  <time>2026-09-01T19:51:18Z</time>
  <course>270.0</course>
  <speed>0.0</speed>
  <fix>3d</fix>
</trkpt>
<trkpt lat="-27.2744392" lon="151.2900641">
  <ele>343.1</ele>
  <time>2026-09-01T19:51:18Z</time>
  <course>10.63</course>
  <speed>0.022360679774997897</speed>
  <fix>3d</fix>
</trkpt>
<trkpt lat="-27.274439" lon="151.290064">
  <ele>343.1</ele>
  <time>2026-09-01T19:51:18Z</time>
  <course>270.0</course>
  <speed>0.0</speed>
  <fix>3d</fix>
</trkpt>
<trkpt lat="-27.2744392" lon="151.2900641">
  <ele>343.1</ele>
  <time>2026-09-01T19:51:18Z</time>
  <course>10.63</course>
  <speed>0.022360679774997897</speed>
  <fix>3d</fix>
</trkpt>
<trkpt lat="-27.274439" lon="151.290064">
  <ele>343.1</ele>
  <time>2026-09-01T19:51:18Z</time>
  <course>270.0</course>
  <speed>0.0</speed>
  <fix>3d</fix>
</trkpt>
<trkpt lat="-27.2744392" lon="151.2900641">
  <ele>343.1</ele>
  <time>2026-09-01T19:51:18Z</time>
  <course>10.63</course>
  <speed>0.022360679774997897</speed>
  <fix>3d</fix>
</trkpt>
<trkpt lat="-27.274439" lon="151.290064">
  <ele>343.1</ele>
  <time>2026-09-01T19:51:18Z</time>
  <course>270.0</course>
  <speed>0.0</speed>
  <fix>3d</fix>
</trkpt>
<trkpt lat="-27.2744392" lon="151.2900641">
  <ele>343.1</ele>
  <time>2026-09-01T19:51:18Z</time>
  <course>10.63</course>
  <speed>0.022360679774997897</speed>
  <fix>3d</fix>
</trkpt>
<trkpt lat="-27.274439" lon="151.290064">
  <ele>343.1</ele>
  <time>2026-09-01T19:51:18Z</time>
  <course>270.0</course>
  <speed>0.0</speed>
  <fix>3d</fix>
</trkpt>
<trkpt lat="-27.2744392" lon="151.2900641">
  <ele>343.1</ele>
  <time>2026-09-01T19:51:18Z</time>
  <course>10.63</course>
  <speed>0.022360679774997897</speed>
  <fix>3d</fix>
</trkpt>
<trkpt lat="-27.274439" lon="151.290064">
  <ele>343.1</ele>
  <time>2026-09-01T19:51:18Z</time>
  <course>270.0</course>
  <speed>0.0</speed>
  <fix>3d</fix>
</trkpt>
<trkpt lat="-27.2744392" lon="151.2900641">
  <ele>343.1</ele>
  <time>2026-09-01T19:51:18Z</time>
  <course>10.63</course>
  <speed>0.022360679774997897</speed>
  <fix>3d</fix>
</trkpt>
<trkpt lat="-27.274439" lon="151.290064">
  <ele>343.1</ele>
  <time>2026-09-01T19:51:18Z</time>
  <course>270.0</course>
  <speed>0.0</speed>
  <fix>3d</fix>
</trkpt>
<trkpt lat="-27.2744392" lon="151.2900641">
  <ele>343.1</ele>
  <time>2026-09-01T19:51:18Z</time>
  <course>10.63</course>
  <speed>0.022360679774997897</speed>
  <fix>3d</fix>
</trkpt>
<trkpt lat="-27.274439" lon="151.290064">
  <ele>343.1</ele>
  <time>2026-09-01T19:51:18Z</time>
  <course>270.0</course>
  <speed>0.0</speed>
  <fix>3d</fix>
</trkpt>
<trkpt lat="-27.2744392" lon="151.2900641">
  <ele>343.1</ele>
  <time>2026-09-01T19:51:18Z</time>
  <course>10.63</course>
  <speed>0.022360679774997897</speed>
  <fix>3d</fix>
</trkpt>
<trkpt lat="-27.274439" lon="151.290064">
  <ele>343.1</ele>
  <time>2026-09-01T19:51:18Z</time>
  <course>270.0</course>
  <speed>0.0</speed>
  <fix>3d</fix>
</trkpt>
<trkpt lat="-27.2744392" lon="151.2900641">
  <ele>343.09</ele>
  <time>2026-09-01T19:51:18Z</time>
  <course>10.63</course>
  <speed>0.022360679774997897</speed>
  <fix>3d</fix>
</trkpt>
<trkpt lat="-27.274439" lon="151.290064">
  <ele>343.1</ele>
  <time>2026-09-01T19:51:18Z</time>
  <course>270.0</course>
  <speed>0.0</speed>
  <fix>3d</fix>
</trkpt>
<trkpt lat="-27.2744392" lon="151.2900641">
  <ele>343.09</ele>
  <time>2026-09-01T19:51:18Z</time>
  <course>10.63</course>
  <speed>0.022360679774997897</speed>
  <fix>3d</fix>
</trkpt>
<trkpt lat="-27.274439" lon="151.290064">
  <ele>343.1</ele>
  <time>2026-09-01T19:51:18Z</time>
  <course>270.0</course>
  <speed>0.0</speed>
  <fix>3d</fix>
</trkpt>
<trkpt lat="-27.2744392" lon="151.2900641">
  <ele>343.09</ele>
  <time>2026-09-01T19:51:18Z</time>
  <course>10.63</course>
  <speed>0.022360679774997897</speed>
  <fix>3d</fix>
</trkpt>
<trkpt lat="-27.274439" lon="151.290064">
  <ele>343.1</ele>
  <time>2026-09-01T19:51:18Z</time>
  <course>270.0</course>
  <speed>0.0</speed>
  <fix>3d</fix>
</trkpt>
<trkpt lat="-27.2744392" lon="151.2900641">
  <ele>343.09</ele>
  <time>2026-09-01T19:51:18Z</time>
  <course>10.63</course>
  <speed>0.022360679774997897</speed>
  <fix>3d</fix>
</trkpt>
<trkpt lat="-27.274439" lon="151.290064">
  <ele>343.1</ele>
  <time>2026-09-01T19:51:18Z</time>
  <course>270.0</course>
  <speed>0.0</speed>
  <fix>3d</fix>
</trkpt>
<trkpt lat="-27.2744392" lon="151.2900641">
  <ele>343.08</ele>
  <time>2026-09-01T19:51:18Z</time>
  <course>10.64</course>
  <speed>0.022360679774997897</speed>
  <fix>3d</fix>
</trkpt>
<trkpt lat="-27.274439" lon="151.290064">
  <ele>343.1</ele>
  <time>2026-09-01T19:51:18Z</time>
  <course>270.0</course>
  <speed>0.0</speed>
  <fix>3d</fix>
</trkpt>
<trkpt lat="-27.2744392" lon="151.2900641">
  <ele>343.08</ele>
  <time>2026-09-01T19:51:18Z</time>
  <course>10.64</course>
  <speed>0.022360679774997897</speed>
  <fix>3d</fix>
</trkpt>
<trkpt lat="-27.274439" lon="151.290064">
  <ele>343.1</ele>
  <time>2026-09-01T19:51:18Z</time>
  <course>270.0</course>
  <speed>0.0</speed>
  <fix>3d</fix>
</trkpt>
<trkpt lat="-27.2744392" lon="151.2900641">
  <ele>343.08</ele>
  <time>2026-09-01T19:51:18Z</time>
  <course>10.64</course>
  <speed>0.022360679774997897</speed>
  <fix>3d</fix>
</trkpt>
<trkpt lat="-27.274439" lon="151.290064">
  <ele>343.1</ele>
  <time>2026-09-01T19:51:18Z</time>
  <course>270.0</course>
  <speed>0.0</speed>
  <fix>3d</fix>
</trkpt>
<trkpt lat="-27.2744392" lon="151.2900641">
  <ele>343.08</ele>
  <time>2026-09-01T19:51:18Z</time>
  <course>10.64</course>
  <speed>0.022360679774997897</speed>
  <fix>3d</fix>
</trkpt>
<trkpt lat="-27.274439" lon="151.290064">
  <ele>343.1</ele>
  <time>2026-09-01T19:51:18Z</time>
  <course>270.0</course>
  <speed>0.0</speed>
  <fix>3d</fix>
</trkpt>
<trkpt lat="-27.2744392" lon="151.2900641">
  <ele>343.08</ele>
  <time>2026-09-01T19:51:18Z</time>
  <course>10.64</course>
  <speed>0.022360679774997897</speed>
  <fix>3d</fix>
</trkpt>
<trkpt lat="-27.274439" lon="151.290064">
  <ele>343.1</ele>
  <time>2026-09-01T19:51:18Z</time>
  <course>270.0</course>
  <speed>0.0</speed>
  <fix>3d</fix>
</trkpt>
<trkpt lat="-27.2744392" lon="151.2900641">
  <ele>343.08</ele>
  <time>2026-09-01T19:51:18Z</time>
  <course>10.64</course>
  <speed>0.022360679774997897</speed>
  <fix>3d</fix>
</trkpt>
<trkpt lat="-27.274439" lon="151.290064">
  <ele>343.1</ele>
  <time>2026-09-01T19:51:18Z</time>
  <course>270.0</course>
  <speed>0.0</speed>
  <fix>3d</fix>
</trkpt>
<trkpt lat="-27.2744392" lon="151.2900641">
  <ele>343.08</ele>
  <time>2026-09-01T19:51:18Z</time>
  <course>10.64</course>
  <speed>0.022360679774997897</speed>
  <fix>3d</fix>
</trkpt>
<trkpt lat="-27.274439" lon="151.290064">
  <ele>343.1</ele>
  <time>2026-09-01T19:51:18Z</time>
  <course>270.0</course>
  <speed>0.0</speed>
  <fix>3d</fix>
</trkpt>
<trkpt lat="-27.2744392" lon="151.2900641">
  <ele>343.07</ele>
  <time>2026-09-01T19:51:18Z</time>
  <course>10.64</course>
  <speed>0.022360679774997897</speed>
  <fix>3d</fix>
</trkpt>
<trkpt lat="-27.274439" lon="151.290064">
  <ele>343.1</ele>
  <time>2026-09-01T19:51:18Z</time>
  <course>270.0</course>
  <speed>0.0</speed>
  <fix>3d</fix>
</trkpt>
<trkpt lat="-27.2744392" lon="151.2900641">
  <ele>343.07</ele>
  <time>2026-09-01T19:51:18Z</time>
  <course>10.64</course>
  <speed>0.022360679774997897</speed>
  <fix>3d</fix>
</trkpt>
<trkpt lat="-27.274439" lon="151.290064">
  <ele>343.1</ele>
  <time>2026-09-01T19:51:18Z</time>
  <course>270.0</course>
  <speed>0.0</speed>
  <fix>3d</fix>
</trkpt>
<trkpt lat="-27.2744392" lon="151.2900641">
  <ele>343.07</ele>
  <time>2026-09-01T19:51:18Z</time>
  <course>10.64</course>
  <speed>0.022360679774997897</speed>
  <fix>3d</fix>
</trkpt>
<trkpt lat="-27.274439" lon="151.290064">
  <ele>343.1</ele>
  <time>2026-09-01T19:51:18Z</time>
  <course>270.0</course>
  <speed>0.0</speed>
  <fix>3d</fix>
</trkpt>
<trkpt lat="-27.2744392" lon="151.2900641">
  <ele>343.07</ele>
  <time>2026-09-01T19:51:18Z</time>
  <course>10.64</course>
  <speed>0.022360679774997897</speed>
  <fix>3d</fix>
</trkpt>
<trkpt lat="-27.274439" lon="151.290064">
  <ele>343.1</ele>
  <time>2026-09-01T19:51:18Z</time>
  <course>270.0</course>
  <speed>0.0</speed>
  <fix>3d</fix>
</trkpt>
<trkpt lat="-27.2744392" lon="151.2900641">
  <ele>343.07</ele>
  <time>2026-09-01T19:51:18Z</time>
  <course>10.64</course>
  <speed>0.022360679774997897</speed>
  <fix>3d</fix>
</trkpt>
<trkpt lat="-27.274439" lon="151.290064">
  <ele>343.1</ele>
  <time>2026-09-01T19:51:18Z</time>
  <course>270.0</course>
  <speed>0.0</speed>
  <fix>3d</fix>
</trkpt>
<trkpt lat="-27.2744392" lon="151.2900641">
  <ele>343.07</ele>
  <time>2026-09-01T19:51:18Z</time>
  <course>10.64</course>
  <speed>0.022360679774997897</speed>
  <fix>3d</fix>
</trkpt>
<trkpt lat="-27.274439" lon="151.290064">
  <ele>343.1</ele>
  <time>2026-09-01T19:51:18Z</time>
  <course>270.0</course>
  <speed>0.0</speed>
  <fix>3d</fix>
</trkpt>
<trkpt lat="-27.2744392" lon="151.2900641">
  <ele>343.08</ele>
  <time>2026-09-01T19:51:18Z</time>
  <course>10.64</course>
  <speed>0.022360679774997897</speed>
  <fix>3d</fix>
</trkpt>
<trkpt lat="-27.274439" lon="151.290064">
  <ele>343.1</ele>
  <time>2026-09-01T19:51:18Z</time>
  <course>270.0</course>
  <speed>0.0</speed>
  <fix>3d</fix>
</trkpt>
<trkpt lat="-27.2744392" lon="151.2900641">
  <ele>343.08</ele>
  <time>2026-09-01T19:51:18Z</time>
  <course>10.64</course>
  <speed>0.022360679774997897</speed>
  <fix>3d</fix>
</trkpt>
<trkpt lat="-27.274439" lon="151.290064">
  <ele>343.1</ele>
  <time>2026-09-01T19:51:18Z</time>
  <course>270.0</course>
  <speed>0.0</speed>
  <fix>3d</fix>
</trkpt>
<trkpt lat="-27.2744392" lon="151.2900641">
  <ele>343.08</ele>
  <time>2026-09-01T19:51:18Z</time>
  <course>10.64</course>
  <speed>0.022360679774997897</speed>
  <fix>3d</fix>
</trkpt>
<trkpt lat="-27.274439" lon="151.290064">
  <ele>343.1</ele>
  <time>2026-09-01T19:51:18Z</time>
  <course>270.0</course>
  <speed>0.0</speed>
  <fix>3d</fix>
</trkpt>
<trkpt lat="-27.2744392" lon="151.2900641">
  <ele>343.08</ele>
  <time>2026-09-01T19:51:18Z</time>
  <course>10.64</course>
  <speed>0.022360679774997897</speed>
  <fix>3d</fix>
</trkpt>
<trkpt lat="-27.274439" lon="151.290064">
  <ele>343.1</ele>
  <time>2026-09-01T19:51:18Z</time>
  <course>270.0</course>
  <speed>0.0</speed>
  <fix>3d</fix>
</trkpt>
<trkpt lat="-27.2744392" lon="151.2900641">
  <ele>343.08</ele>
  <time>2026-09-01T19:51:18Z</time>
  <course>10.65</course>
  <speed>0.022360679774997897</speed>
  <fix>3d</fix>
</trkpt>
<trkpt lat="-27.274439" lon="151.290064">
  <ele>343.1</ele>
  <time>2026-09-01T19:51:18Z</time>
  <course>270.0</course>
  <speed>0.0</speed>
  <fix>3d</fix>
</trkpt>
<trkpt lat="-27.2744392" lon="151.2900641">
  <ele>343.08</ele>
  <time>2026-09-01T19:51:18Z</time>
  <course>10.65</course>
  <speed>0.022360679774997897</speed>
  <fix>3d</fix>
</trkpt>
<trkpt lat="-27.274439" lon="151.290064">
  <ele>343.1</ele>
  <time>2026-09-01T19:51:18Z</time>
  <course>270.0</course>
  <speed>0.0</speed>
  <fix>3d</fix>
</trkpt>
<trkpt lat="-27.2744392" lon="151.2900641">
  <ele>343.08</ele>
  <time>2026-09-01T19:51:18Z</time>
  <course>10.65</course>
  <speed>0.022360679774997897</speed>
  <fix>3d</fix>
</trkpt>
<trkpt lat="-27.274439" lon="151.290064">
  <ele>343.1</ele>
  <time>2026-09-01T19:51:18Z</time>
  <course>270.0</course>
  <speed>0.0</speed>
  <fix>3d</fix>
</trkpt>
<trkpt lat="-27.2744392" lon="151.2900641">
  <ele>343.08</ele>
  <time>2026-09-01T19:51:18Z</time>
  <course>10.65</course>
  <speed>0.022360679774997897</speed>
  <fix>3d</fix>
</trkpt>
<trkpt lat="-27.274439" lon="151.290064">
  <ele>343.1</ele>
  <time>2026-09-01T19:51:18Z</time>
  <course>270.0</course>
  <speed>0.0</speed>
  <fix>3d</fix>
</trkpt>
<trkpt lat="-27.2744392" lon="151.2900641">
  <ele>343.07</ele>
  <time>2026-09-01T19:51:18Z</time>
  <course>10.65</course>
  <speed>0.022360679774997897</speed>
  <fix>3d</fix>
</trkpt>
<trkpt lat="-27.274439" lon="151.290064">
  <ele>343.1</ele>
  <time>2026-09-01T19:51:18Z</time>
  <course>270.0</course>
  <speed>0.0</speed>
  <fix>3d</fix>
</trkpt>
<trkpt lat="-27.2744392" lon="151.2900641">
  <ele>343.07</ele>
  <time>2026-09-01T19:51:18Z</time>
  <course>10.65</course>
  <speed>0.022360679774997897</speed>
  <fix>3d</fix>
</trkpt>
<trkpt lat="-27.274439" lon="151.290064">
  <ele>343.1</ele>
  <time>2026-09-01T19:51:18Z</time>
  <course>270.0</course>
  <speed>0.0</speed>
  <fix>3d</fix>
</trkpt>
<trkpt lat="-27.2744392" lon="151.2900641">
  <ele>343.08</ele>
  <time>2026-09-01T19:51:18Z</time>
  <course>10.65</course>
  <speed>0.022360679774997897</speed>
  <fix>3d</fix>
</trkpt>
<trkpt lat="-27.274439" lon="151.290064">
  <ele>343.1</ele>
  <time>2026-09-01T19:51:18Z</time>
  <course>270.0</course>
  <speed>0.0</speed>
  <fix>3d</fix>
</trkpt>
<trkpt lat="-27.2744392" lon="151.2900641">
  <ele>343.08</ele>
  <time>2026-09-01T19:51:18Z</time>
  <course>10.65</course>
  <speed>0.022360679774997897</speed>
  <fix>3d</fix>
</trkpt>
<trkpt lat="-27.274439" lon="151.290064">
  <ele>343.1</ele>
  <time>2026-09-01T19:51:18Z</time>
  <course>270.0</course>
  <speed>0.0</speed>
  <fix>3d</fix>
</trkpt>
<trkpt lat="-27.2744392" lon="151.2900641">
  <ele>343.08</ele>
  <time>2026-09-01T19:51:18Z</time>
  <course>10.65</course>
  <speed>0.022360679774997897</speed>
  <fix>3d</fix>
</trkpt>
<trkpt lat="-27.274439" lon="151.290064">
  <ele>343.1</ele>
  <time>2026-09-01T19:51:18Z</time>
  <course>270.0</course>
  <speed>0.0</speed>
  <fix>3d</fix>
</trkpt>
<trkpt lat="-27.2744392" lon="151.2900641">
  <ele>343.08</ele>
  <time>2026-09-01T19:51:18Z</time>
  <course>10.65</course>
  <speed>0.022360679774997897</speed>
  <fix>3d</fix>
</trkpt>
<trkpt lat="-27.274439" lon="151.290064">
  <ele>343.1</ele>
  <time>2026-09-01T19:51:18Z</time>
  <course>270.0</course>
  <speed>0.0</speed>
  <fix>3d</fix>
</trkpt>
<trkpt lat="-27.2744392" lon="151.2900641">
  <ele>343.08</ele>
  <time>2026-09-01T19:51:18Z</time>
  <course>10.65</course>
  <speed>0.022360679774997897</speed>
  <fix>3d</fix>
</trkpt>
<trkpt lat="-27.274439" lon="151.290064">
  <ele>343.1</ele>
  <time>2026-09-01T19:51:18Z</time>
  <course>270.0</course>
  <speed>0.0</speed>
  <fix>3d</fix>
</trkpt>
<trkpt lat="-27.2744392" lon="151.2900641">
  <ele>343.08</ele>
  <time>2026-09-01T19:51:18Z</time>
  <course>10.65</course>
  <speed>0.022360679774997897</speed>
  <fix>3d</fix>
</trkpt>
<trkpt lat="-27.274439" lon="151.290064">
  <ele>343.1</ele>
  <time>2026-09-01T19:51:18Z</time>
  <course>270.0</course>
  <speed>0.0</speed>
  <fix>3d</fix>
</trkpt>
<trkpt lat="-27.2744392" lon="151.2900641">
  <ele>343.08</ele>
  <time>2026-09-01T19:51:18Z</time>
  <course>10.65</course>
  <speed>0.022360679774997897</speed>
  <fix>3d</fix>
</trkpt>
<trkpt lat="-27.274439" lon="151.290064">
  <ele>343.1</ele>
  <time>2026-09-01T19:51:18Z</time>
  <course>270.0</course>
  <speed>0.0</speed>
  <fix>3d</fix>
</trkpt>
<trkpt lat="-27.2744392" lon="151.2900641">
  <ele>343.08</ele>
  <time>2026-09-01T19:51:18Z</time>
  <course>10.65</course>
  <speed>0.022360679774997897</speed>
  <fix>3d</fix>
</trkpt>
<trkpt lat="-27.274439" lon="151.290064">
  <ele>343.1</ele>
  <time>2026-09-01T19:51:18Z</time>
  <course>270.0</course>
  <speed>0.0</speed>
  <fix>3d</fix>
</trkpt>
<trkpt lat="-27.2744392" lon="151.2900641">
  <ele>343.08</ele>
  <time>2026-09-01T19:51:18Z</time>
  <course>10.65</course>
  <speed>0.022360679774997897</speed>
  <fix>3d</fix>
</trkpt>
<trkpt lat="-27.274439" lon="151.290064">
  <ele>343.1</ele>
  <time>2026-09-01T19:51:18Z</time>
  <course>270.0</course>
  <speed>0.0</speed>
  <fix>3d</fix>
</trkpt>
<trkpt lat="-27.2744392" lon="151.2900641">
  <ele>343.07</ele>
  <time>2026-09-01T19:51:18Z</time>
  <course>10.66</course>
  <speed>0.022360679774997897</speed>
  <fix>3d</fix>
</trkpt>
<trkpt lat="-27.274439" lon="151.290064">
  <ele>343.1</ele>
  <time>2026-09-01T19:51:18Z</time>
  <course>270.0</course>
  <speed>0.0</speed>
  <fix>3d</fix>
</trkpt>
<trkpt lat="-27.2744392" lon="151.2900641">
  <ele>343.07</ele>
  <time>2026-09-01T19:51:18Z</time>
  <course>10.66</course>
  <speed>0.022360679774997897</speed>
  <fix>3d</fix>
</trkpt>
<trkpt lat="-27.274439" lon="151.290064">
  <ele>343.1</ele>
  <time>2026-09-01T19:51:18Z</time>
  <course>270.0</course>
  <speed>0.0</speed>
  <fix>3d</fix>
</trkpt>
<trkpt lat="-27.2744392" lon="151.2900641">
  <ele>343.07</ele>
  <time>2026-09-01T19:51:18Z</time>
  <course>10.66</course>
  <speed>0.022360679774997897</speed>
  <fix>3d</fix>
</trkpt>
<trkpt lat="-27.274439" lon="151.290064">
  <ele>343.1</ele>
  <time>2026-09-01T19:51:18Z</time>
  <course>270.0</course>
  <speed>0.0</speed>
  <fix>3d</fix>
</trkpt>
<trkpt lat="-27.2744392" lon="151.2900641">
  <ele>343.09</ele>
  <time>2026-09-01T19:51:18Z</time>
  <course>10.66</course>
  <speed>0.022360679774997897</speed>
  <fix>3d</fix>
</trkpt>
<trkpt lat="-27.274439" lon="151.290064">
  <ele>343.1</ele>
  <time>2026-09-01T19:51:18Z</time>
  <course>270.0</course>
  <speed>0.0</speed>
  <fix>3d</fix>
</trkpt>
<trkpt lat="-27.2744392" lon="151.2900641">
  <ele>343.09</ele>
  <time>2026-09-01T19:51:18Z</time>
  <course>10.66</course>
  <speed>0.022360679774997897</speed>
  <fix>3d</fix>
</trkpt>
<trkpt lat="-27.274439" lon="151.290064">
  <ele>343.1</ele>
  <time>2026-09-01T19:51:18Z</time>
  <course>270.0</course>
  <speed>0.0</speed>
  <fix>3d</fix>
</trkpt>
<trkpt lat="-27.2744392" lon="151.2900641">
  <ele>343.09</ele>
  <time>2026-09-01T19:51:18Z</time>
  <course>10.66</course>
  <speed>0.022360679774997897</speed>
  <fix>3d</fix>
</trkpt>
<trkpt lat="-27.274439" lon="151.290064">
  <ele>343.1</ele>
  <time>2026-09-01T19:51:18Z</time>
  <course>270.0</course>
  <speed>0.0</speed>
  <fix>3d</fix>
</trkpt>
<trkpt lat="-27.2744392" lon="151.2900641">
  <ele>343.1</ele>
  <time>2026-09-01T19:51:18Z</time>
  <course>10.66</course>
  <speed>0.022360679774997897</speed>
  <fix>3d</fix>
</trkpt>
<trkpt lat="-27.274439" lon="151.290064">
  <ele>343.1</ele>
  <time>2026-09-01T19:51:18Z</time>
  <course>270.0</course>
  <speed>0.0</speed>
  <fix>3d</fix>
</trkpt>
<trkpt lat="-27.2744392" lon="151.2900641">
  <ele>343.1</ele>
  <time>2026-09-01T19:51:18Z</time>
  <course>10.66</course>
  <speed>0.022360679774997897</speed>
  <fix>3d</fix>
</trkpt>
<trkpt lat="-27.274439" lon="151.290064">
  <ele>343.1</ele>
  <time>2026-09-01T19:51:18Z</time>
  <course>270.0</course>
  <speed>0.0</speed>
  <fix>3d</fix>
</trkpt>
<trkpt lat="-27.2744392" lon="151.2900641">
  <ele>343.1</ele>
  <time>2026-09-01T19:51:18Z</time>
  <course>10.66</course>
  <speed>0.022360679774997897</speed>
  <fix>3d</fix>
</trkpt>
<trkpt lat="-27.274439" lon="151.290064">
  <ele>343.1</ele>
  <time>2026-09-01T19:51:18Z</time>
  <course>270.0</course>
  <speed>0.0</speed>
  <fix>3d</fix>
</trkpt>
<trkpt lat="-27.2744392" lon="151.2900641">
  <ele>343.11</ele>
  <time>2026-09-01T19:51:18Z</time>
  <course>10.66</course>
  <speed>0.022360679774997897</speed>
  <fix>3d</fix>
</trkpt>
<trkpt lat="-27.274439" lon="151.290064">
  <ele>343.1</ele>
  <time>2026-09-01T19:51:18Z</time>
  <course>270.0</course>
  <speed>0.0</speed>
  <fix>3d</fix>
</trkpt>
<trkpt lat="-27.2744392" lon="151.2900641">
  <ele>343.11</ele>
  <time>2026-09-01T19:51:18Z</time>
  <course>10.66</course>
  <speed>0.022360679774997897</speed>
  <fix>3d</fix>
</trkpt>
<trkpt lat="-27.274439" lon="151.290064">
  <ele>343.1</ele>
  <time>2026-09-01T19:51:18Z</time>
  <course>270.0</course>
  <speed>0.0</speed>
  <fix>3d</fix>
</trkpt>
<trkpt lat="-27.2744392" lon="151.2900641">
  <ele>343.11</ele>
  <time>2026-09-01T19:51:18Z</time>
  <course>10.66</course>
  <speed>0.022360679774997897</speed>
  <fix>3d</fix>
</trkpt>
<trkpt lat="-27.274439" lon="151.290064">
  <ele>343.1</ele>
  <time>2026-09-01T19:51:18Z</time>
  <course>270.0</course>
  <speed>0.0</speed>
  <fix>3d</fix>
</trkpt>
<trkpt lat="-27.2744392" lon="151.2900641">
  <ele>343.12</ele>
  <time>2026-09-01T19:51:18Z</time>
  <course>10.66</course>
  <speed>0.022360679774997897</speed>
  <fix>3d</fix>
</trkpt>
<trkpt lat="-27.274439" lon="151.290064">
  <ele>343.1</ele>
  <time>2026-09-01T19:51:18Z</time>
  <course>270.0</course>
  <speed>0.0</speed>
  <fix>3d</fix>
</trkpt>
<trkpt lat="-27.2744392" lon="151.2900641">
  <ele>343.12</ele>
  <time>2026-09-01T19:51:18Z</time>
  <course>10.66</course>
  <speed>0.022360679774997897</speed>
  <fix>3d</fix>
</trkpt>
<trkpt lat="-27.274439" lon="151.290064">
  <ele>343.1</ele>
  <time>2026-09-01T19:51:18Z</time>
  <course>270.0</course>
  <speed>0.0</speed>
  <fix>3d</fix>
</trkpt>
<trkpt lat="-27.2744392" lon="151.2900641">
  <ele>343.13</ele>
  <time>2026-09-01T19:51:18Z</time>
  <course>10.66</course>
  <speed>0.022360679774997897</speed>
  <fix>3d</fix>
</trkpt>
<trkpt lat="-27.274439" lon="151.290064">
  <ele>343.1</ele>
  <time>2026-09-01T19:51:18Z</time>
  <course>270.0</course>
  <speed>0.0</speed>
  <fix>3d</fix>
</trkpt>
<trkpt lat="-27.2744392" lon="151.2900641">
  <ele>343.13</ele>
  <time>2026-09-01T19:51:18Z</time>
  <course>10.67</course>
  <speed>0.022360679774997897</speed>
  <fix>3d</fix>
</trkpt>
<trkpt lat="-27.274439" lon="151.290064">
  <ele>343.1</ele>
  <time>2026-09-01T19:51:18Z</time>
  <course>270.0</course>
  <speed>0.0</speed>
  <fix>3d</fix>
</trkpt>
<trkpt lat="-27.2744392" lon="151.2900641">
  <ele>343.13</ele>
  <time>2026-09-01T19:51:18Z</time>
  <course>10.67</course>
  <speed>0.022360679774997897</speed>
  <fix>3d</fix>
</trkpt>
<trkpt lat="-27.274439" lon="151.290064">
  <ele>343.1</ele>
  <time>2026-09-01T19:51:18Z</time>
  <course>270.0</course>
  <speed>0.0</speed>
  <fix>3d</fix>
</trkpt>
<trkpt lat="-27.2744392" lon="151.2900641">
  <ele>343.14</ele>
  <time>2026-09-01T19:51:18Z</time>
  <course>10.67</course>
  <speed>0.022360679774997897</speed>
  <fix>3d</fix>
</trkpt>
<trkpt lat="-27.274439" lon="151.290064">
  <ele>343.1</ele>
  <time>2026-09-01T19:51:18Z</time>
  <course>270.0</course>
  <speed>0.0</speed>
  <fix>3d</fix>
</trkpt>
<trkpt lat="-27.2744392" lon="151.2900641">
  <ele>343.14</ele>
  <time>2026-09-01T19:51:18Z</time>
  <course>10.67</course>
  <speed>0.022360679774997897</speed>
  <fix>3d</fix>
</trkpt>
<trkpt lat="-27.274439" lon="151.290064">
  <ele>343.1</ele>
  <time>2026-09-01T19:51:18Z</time>
  <course>270.0</course>
  <speed>0.0</speed>
  <fix>3d</fix>
</trkpt>
<trkpt lat="-27.2744392" lon="151.2900641">
  <ele>343.15</ele>
  <time>2026-09-01T19:51:18Z</time>
  <course>10.67</course>
  <speed>0.022360679774997897</speed>
  <fix>3d</fix>
</trkpt>
<trkpt lat="-27.274439" lon="151.290064">
  <ele>343.1</ele>
  <time>2026-09-01T19:51:18Z</time>
  <course>270.0</course>
  <speed>0.0</speed>
  <fix>3d</fix>
</trkpt>
<trkpt lat="-27.2744392" lon="151.2900641">
  <ele>343.15</ele>
  <time>2026-09-01T19:51:18Z</time>
  <course>10.67</course>
  <speed>0.022360679774997897</speed>
  <fix>3d</fix>
</trkpt>
<trkpt lat="-27.274439" lon="151.290064">
  <ele>343.1</ele>
  <time>2026-09-01T19:51:18Z</time>
  <course>270.0</course>
  <speed>0.0</speed>
  <fix>3d</fix>
</trkpt>
<trkpt lat="-27.2744392" lon="151.2900641">
  <ele>343.16</ele>
  <time>2026-09-01T19:51:18Z</time>
  <course>10.67</course>
  <speed>0.022360679774997897</speed>
  <fix>3d</fix>
</trkpt>
<trkpt lat="-27.274439" lon="151.290064">
  <ele>343.1</ele>
  <time>2026-09-01T19:51:18Z</time>
  <course>270.0</course>
  <speed>0.0</speed>
  <fix>3d</fix>
</trkpt>
<trkpt lat="-27.2744392" lon="151.2900641">
  <ele>343.16</ele>
  <time>2026-09-01T19:51:18Z</time>
  <course>10.67</course>
  <speed>0.022360679774997897</speed>
  <fix>3d</fix>
</trkpt>
<trkpt lat="-27.274439" lon="151.290064">
  <ele>343.1</ele>
  <time>2026-09-01T19:51:18Z</time>
  <course>270.0</course>
  <speed>0.0</speed>
  <fix>3d</fix>
</trkpt>
<trkpt lat="-27.2744392" lon="151.2900641">
  <ele>343.16</ele>
  <time>2026-09-01T19:51:18Z</time>
  <course>10.67</course>
  <speed>0.022360679774997897</speed>
  <fix>3d</fix>
</trkpt>
<trkpt lat="-27.274439" lon="151.290064">
  <ele>343.1</ele>
  <time>2026-09-01T19:51:18Z</time>
  <course>270.0</course>
  <speed>0.0</speed>
  <fix>3d</fix>
</trkpt>
<trkpt lat="-27.2744392" lon="151.2900641">
  <ele>343.16</ele>
  <time>2026-09-01T19:51:18Z</time>
  <course>10.67</course>
  <speed>0.022360679774997897</speed>
  <fix>3d</fix>
</trkpt>
<trkpt lat="-27.274439" lon="151.290064">
  <ele>343.1</ele>
  <time>2026-09-01T19:51:18Z</time>
  <course>270.0</course>
  <speed>0.0</speed>
  <fix>3d</fix>
</trkpt>
<trkpt lat="-27.2744392" lon="151.2900641">
  <ele>343.16</ele>
  <time>2026-09-01T19:51:18Z</time>
  <course>10.67</course>
  <speed>0.022360679774997897</speed>
  <fix>3d</fix>
</trkpt>
<trkpt lat="-27.274439" lon="151.290064">
  <ele>343.1</ele>
  <time>2026-09-01T19:51:18Z</time>
  <course>270.0</course>
  <speed>0.0</speed>
  <fix>3d</fix>
</trkpt>
<trkpt lat="-27.2744392" lon="151.2900641">
  <ele>343.17</ele>
  <time>2026-09-01T19:51:18Z</time>
  <course>10.67</course>
  <speed>0.022360679774997897</speed>
  <fix>3d</fix>
</trkpt>
<trkpt lat="-27.274439" lon="151.290064">
  <ele>343.1</ele>
  <time>2026-09-01T19:51:18Z</time>
  <course>270.0</course>
  <speed>0.0</speed>
  <fix>3d</fix>
</trkpt>
<trkpt lat="-27.2744392" lon="151.2900641">
  <ele>343.17</ele>
  <time>2026-09-01T19:51:18Z</time>
  <course>10.67</course>
  <speed>0.022360679774997897</speed>
  <fix>3d</fix>
</trkpt>
<trkpt lat="-27.274439" lon="151.290064">
  <ele>343.1</ele>
  <time>2026-09-01T19:51:18Z</time>
  <course>270.0</course>
  <speed>0.0</speed>
  <fix>3d</fix>
</trkpt>
<trkpt lat="-27.2744392" lon="151.2900641">
  <ele>343.17</ele>
  <time>2026-09-01T19:51:18Z</time>
  <course>10.68</course>
  <speed>0.022360679774997897</speed>
  <fix>3d</fix>
</trkpt>
<trkpt lat="-27.274439" lon="151.290064">
  <ele>343.1</ele>
  <time>2026-09-01T19:51:18Z</time>
  <course>270.0</course>
  <speed>0.0</speed>
  <fix>3d</fix>
</trkpt>
<trkpt lat="-27.2744392" lon="151.2900641">
  <ele>343.17</ele>
  <time>2026-09-01T19:51:18Z</time>
  <course>10.68</course>
  <speed>0.022360679774997897</speed>
  <fix>3d</fix>
</trkpt>
<trkpt lat="-27.274439" lon="151.290064">
  <ele>343.1</ele>
  <time>2026-09-01T19:51:18Z</time>
  <course>270.0</course>
  <speed>0.0</speed>
  <fix>3d</fix>
</trkpt>
<trkpt lat="-27.2744392" lon="151.2900641">
  <ele>343.17</ele>
  <time>2026-09-01T19:51:18Z</time>
  <course>10.68</course>
  <speed>0.022360679774997897</speed>
  <fix>3d</fix>
</trkpt>
<trkpt lat="-27.274439" lon="151.290064">
  <ele>343.1</ele>
  <time>2026-09-01T19:51:18Z</time>
  <course>270.0</course>
  <speed>0.0</speed>
  <fix>3d</fix>
</trkpt>
<trkpt lat="-27.2744392" lon="151.2900641">
  <ele>343.17</ele>
  <time>2026-09-01T19:51:19Z</time>
  <course>10.68</course>
  <speed>0.022360679774997897</speed>
  <fix>3d</fix>
</trkpt>
<trkpt lat="-27.274439" lon="151.290064">
  <ele>343.1</ele>
  <time>2026-09-01T19:51:19Z</time>
  <course>270.0</course>
  <speed>0.0</speed>
  <fix>3d</fix>
</trkpt>
<trkpt lat="-27.2744392" lon="151.2900641">
  <ele>343.17</ele>
  <time>2026-09-01T19:51:19Z</time>
  <course>10.68</course>
  <speed>0.022360679774997897</speed>
  <fix>3d</fix>
</trkpt>
<trkpt lat="-27.274439" lon="151.290064">
  <ele>343.1</ele>
  <time>2026-09-01T19:51:19Z</time>
  <course>270.0</course>
  <speed>0.0</speed>
  <fix>3d</fix>
</trkpt>
<trkpt lat="-27.2744392" lon="151.2900641">
  <ele>343.17</ele>
  <time>2026-09-01T19:51:19Z</time>
  <course>10.68</course>
  <speed>0.022360679774997897</speed>
  <fix>3d</fix>
</trkpt>
<trkpt lat="-27.274439" lon="151.290064">
  <ele>343.1</ele>
  <time>2026-09-01T19:51:19Z</time>
  <course>270.0</course>
  <speed>0.0</speed>
  <fix>3d</fix>
</trkpt>
<trkpt lat="-27.2744392" lon="151.2900641">
  <ele>343.17</ele>
  <time>2026-09-01T19:51:19Z</time>
  <course>10.68</course>
  <speed>0.022360679774997897</speed>
  <fix>3d</fix>
</trkpt>
<trkpt lat="-27.274439" lon="151.290064">
  <ele>343.1</ele>
  <time>2026-09-01T19:51:19Z</time>
  <course>270.0</course>
  <speed>0.0</speed>
  <fix>3d</fix>
</trkpt>
<trkpt lat="-27.2744392" lon="151.2900641">
  <ele>343.18</ele>
  <time>2026-09-01T19:51:19Z</time>
  <course>10.68</course>
  <speed>0.022360679774997897</speed>
  <fix>3d</fix>
</trkpt>
<trkpt lat="-27.274439" lon="151.290064">
  <ele>343.1</ele>
  <time>2026-09-01T19:51:19Z</time>
  <course>270.0</course>
  <speed>0.0</speed>
  <fix>3d</fix>
</trkpt>
<trkpt lat="-27.2744392" lon="151.2900641">
  <ele>343.17</ele>
  <time>2026-09-01T19:51:19Z</time>
  <course>10.68</course>
  <speed>0.022360679774997897</speed>
  <fix>3d</fix>
</trkpt>
<trkpt lat="-27.274439" lon="151.290064">
  <ele>343.1</ele>
  <time>2026-09-01T19:51:19Z</time>
  <course>270.0</course>
  <speed>0.0</speed>
  <fix>3d</fix>
</trkpt>
<trkpt lat="-27.2744392" lon="151.2900641">
  <ele>343.17</ele>
  <time>2026-09-01T19:51:19Z</time>
  <course>10.68</course>
  <speed>0.022360679774997897</speed>
  <fix>3d</fix>
</trkpt>
<trkpt lat="-27.274439" lon="151.290064">
  <ele>343.1</ele>
  <time>2026-09-01T19:51:19Z</time>
  <course>270.0</course>
  <speed>0.0</speed>
  <fix>3d</fix>
</trkpt>
<trkpt lat="-27.2744392" lon="151.2900641">
  <ele>343.18</ele>
  <time>2026-09-01T19:51:19Z</time>
  <course>10.68</course>
  <speed>0.022360679774997897</speed>
  <fix>3d</fix>
</trkpt>
<trkpt lat="-27.274439" lon="151.290064">
  <ele>343.1</ele>
  <time>2026-09-01T19:51:19Z</time>
  <course>270.0</course>
  <speed>0.0</speed>
  <fix>3d</fix>
</trkpt>
<trkpt lat="-27.2744392" lon="151.2900641">
  <ele>343.18</ele>
  <time>2026-09-01T19:51:19Z</time>
  <course>10.68</course>
  <speed>0.022360679774997897</speed>
  <fix>3d</fix>
</trkpt>
<trkpt lat="-27.274439" lon="151.290064">
  <ele>343.1</ele>
  <time>2026-09-01T19:51:19Z</time>
  <course>270.0</course>
  <speed>0.0</speed>
  <fix>3d</fix>
</trkpt>
<trkpt lat="-27.2744392" lon="151.2900641">
  <ele>343.18</ele>
  <time>2026-09-01T19:51:19Z</time>
  <course>10.68</course>
  <speed>0.022360679774997897</speed>
  <fix>3d</fix>
</trkpt>
<trkpt lat="-27.274439" lon="151.290064">
  <ele>343.1</ele>
  <time>2026-09-01T19:51:19Z</time>
  <course>270.0</course>
  <speed>0.0</speed>
  <fix>3d</fix>
</trkpt>
<trkpt lat="-27.2744392" lon="151.2900641">
  <ele>343.19</ele>
  <time>2026-09-01T19:51:19Z</time>
  <course>10.69</course>
  <speed>0.022360679774997897</speed>
  <fix>3d</fix>
</trkpt>
<trkpt lat="-27.274439" lon="151.290064">
  <ele>343.1</ele>
  <time>2026-09-01T19:51:19Z</time>
  <course>270.0</course>
  <speed>0.0</speed>
  <fix>3d</fix>
</trkpt>
<trkpt lat="-27.2744392" lon="151.2900641">
  <ele>343.19</ele>
  <time>2026-09-01T19:51:19Z</time>
  <course>10.69</course>
  <speed>0.022360679774997897</speed>
  <fix>3d</fix>
</trkpt>
<trkpt lat="-27.274439" lon="151.290064">
  <ele>343.1</ele>
  <time>2026-09-01T19:51:19Z</time>
  <course>270.0</course>
  <speed>0.0</speed>
  <fix>3d</fix>
</trkpt>
<trkpt lat="-27.2744392" lon="151.2900641">
  <ele>343.19</ele>
  <time>2026-09-01T19:51:19Z</time>
  <course>10.69</course>
  <speed>0.022360679774997897</speed>
  <fix>3d</fix>
</trkpt>
<trkpt lat="-27.274439" lon="151.290064">
  <ele>343.1</ele>
  <time>2026-09-01T19:51:19Z</time>
  <course>270.0</course>
  <speed>0.0</speed>
  <fix>3d</fix>
</trkpt>
<trkpt lat="-27.2744392" lon="151.2900641">
  <ele>343.2</ele>
  <time>2026-09-01T19:51:19Z</time>
  <course>10.69</course>
  <speed>0.022360679774997897</speed>
  <fix>3d</fix>
</trkpt>
<trkpt lat="-27.274439" lon="151.290064">
  <ele>343.1</ele>
  <time>2026-09-01T19:51:19Z</time>
  <course>270.0</course>
  <speed>0.0</speed>
  <fix>3d</fix>
</trkpt>
<trkpt lat="-27.2744392" lon="151.2900641">
  <ele>343.2</ele>
  <time>2026-09-01T19:51:19Z</time>
  <course>10.69</course>
  <speed>0.022360679774997897</speed>
  <fix>3d</fix>
</trkpt>
<trkpt lat="-27.274439" lon="151.290064">
  <ele>343.1</ele>
  <time>2026-09-01T19:51:19Z</time>
  <course>270.0</course>
  <speed>0.0</speed>
  <fix>3d</fix>
</trkpt>
<trkpt lat="-27.2744392" lon="151.2900641">
  <ele>343.21</ele>
  <time>2026-09-01T19:51:19Z</time>
  <course>10.69</course>
  <speed>0.022360679774997897</speed>
  <fix>3d</fix>
</trkpt>
<trkpt lat="-27.274439" lon="151.290064">
  <ele>343.1</ele>
  <time>2026-09-01T19:51:19Z</time>
  <course>270.0</course>
  <speed>0.0</speed>
  <fix>3d</fix>
</trkpt>
<trkpt lat="-27.2744392" lon="151.2900641">
  <ele>343.21</ele>
  <time>2026-09-01T19:51:19Z</time>
  <course>10.69</course>
  <speed>0.022360679774997897</speed>
  <fix>3d</fix>
</trkpt>
<trkpt lat="-27.274439" lon="151.290064">
  <ele>343.1</ele>
  <time>2026-09-01T19:51:19Z</time>
  <course>270.0</course>
  <speed>0.0</speed>
  <fix>3d</fix>
</trkpt>
<trkpt lat="-27.2744392" lon="151.2900641">
  <ele>343.21</ele>
  <time>2026-09-01T19:51:19Z</time>
  <course>10.69</course>
  <speed>0.022360679774997897</speed>
  <fix>3d</fix>
</trkpt>
<trkpt lat="-27.274439" lon="151.290064">
  <ele>343.1</ele>
  <time>2026-09-01T19:51:19Z</time>
  <course>270.0</course>
  <speed>0.0</speed>
  <fix>3d</fix>
</trkpt>
<trkpt lat="-27.2744392" lon="151.2900641">
  <ele>343.22</ele>
  <time>2026-09-01T19:51:19Z</time>
  <course>10.69</course>
  <speed>0.022360679774997897</speed>
  <fix>3d</fix>
</trkpt>
<trkpt lat="-27.274439" lon="151.290064">
  <ele>343.1</ele>
  <time>2026-09-01T19:51:19Z</time>
  <course>270.0</course>
  <speed>0.0</speed>
  <fix>3d</fix>
</trkpt>
<trkpt lat="-27.2744392" lon="151.2900641">
  <ele>343.22</ele>
  <time>2026-09-01T19:51:19Z</time>
  <course>10.69</course>
  <speed>0.022360679774997897</speed>
  <fix>3d</fix>
</trkpt>
<trkpt lat="-27.274439" lon="151.290064">
  <ele>343.1</ele>
  <time>2026-09-01T19:51:19Z</time>
  <course>270.0</course>
  <speed>0.0</speed>
  <fix>3d</fix>
</trkpt>
<trkpt lat="-27.2744392" lon="151.2900641">
  <ele>343.22</ele>
  <time>2026-09-01T19:51:19Z</time>
  <course>10.69</course>
  <speed>0.022360679774997897</speed>
  <fix>3d</fix>
</trkpt>
<trkpt lat="-27.274439" lon="151.290064">
  <ele>343.1</ele>
  <time>2026-09-01T19:51:19Z</time>
  <course>270.0</course>
  <speed>0.0</speed>
  <fix>3d</fix>
</trkpt>
<trkpt lat="-27.2744392" lon="151.2900641">
  <ele>343.22</ele>
  <time>2026-09-01T19:51:19Z</time>
  <course>10.69</course>
  <speed>0.022360679774997897</speed>
  <fix>3d</fix>
</trkpt>
<trkpt lat="-27.274439" lon="151.290064">
  <ele>343.1</ele>
  <time>2026-09-01T19:51:19Z</time>
  <course>270.0</course>
  <speed>0.0</speed>
  <fix>3d</fix>
</trkpt>
<trkpt lat="-27.2744392" lon="151.2900641">
  <ele>343.23</ele>
  <time>2026-09-01T19:51:19Z</time>
  <course>10.69</course>
  <speed>0.022360679774997897</speed>
  <fix>3d</fix>
</trkpt>
<trkpt lat="-27.274439" lon="151.290064">
  <ele>343.1</ele>
  <time>2026-09-01T19:51:19Z</time>
  <course>270.0</course>
  <speed>0.0</speed>
  <fix>3d</fix>
</trkpt>
<trkpt lat="-27.2744392" lon="151.2900641">
  <ele>343.23</ele>
  <time>2026-09-01T19:51:19Z</time>
  <course>10.7</course>
  <speed>0.022360679774997897</speed>
  <fix>3d</fix>
</trkpt>
<trkpt lat="-27.274439" lon="151.290064">
  <ele>343.1</ele>
  <time>2026-09-01T19:51:19Z</time>
  <course>270.0</course>
  <speed>0.0</speed>
  <fix>3d</fix>
</trkpt>
<trkpt lat="-27.2744392" lon="151.2900641">
  <ele>343.23</ele>
  <time>2026-09-01T19:51:19Z</time>
  <course>10.7</course>
  <speed>0.022360679774997897</speed>
  <fix>3d</fix>
</trkpt>
<trkpt lat="-27.274439" lon="151.290064">
  <ele>343.1</ele>
  <time>2026-09-01T19:51:19Z</time>
  <course>270.0</course>
  <speed>0.0</speed>
  <fix>3d</fix>
</trkpt>
<trkpt lat="-27.2744392" lon="151.2900641">
  <ele>343.23</ele>
  <time>2026-09-01T19:51:19Z</time>
  <course>10.7</course>
  <speed>0.022360679774997897</speed>
  <fix>3d</fix>
</trkpt>
<trkpt lat="-27.274439" lon="151.290064">
  <ele>343.1</ele>
  <time>2026-09-01T19:51:19Z</time>
  <course>270.0</course>
  <speed>0.0</speed>
  <fix>3d</fix>
</trkpt>
<trkpt lat="-27.2744392" lon="151.2900641">
  <ele>343.24</ele>
  <time>2026-09-01T19:51:19Z</time>
  <course>10.7</course>
  <speed>0.022360679774997897</speed>
  <fix>3d</fix>
</trkpt>
<trkpt lat="-27.274439" lon="151.290064">
  <ele>343.1</ele>
  <time>2026-09-01T19:51:19Z</time>
  <course>270.0</course>
  <speed>0.0</speed>
  <fix>3d</fix>
</trkpt>
<trkpt lat="-27.2744392" lon="151.2900641">
  <ele>343.24</ele>
  <time>2026-09-01T19:51:19Z</time>
  <course>10.7</course>
  <speed>0.022360679774997897</speed>
  <fix>3d</fix>
</trkpt>
<trkpt lat="-27.274439" lon="151.290064">
  <ele>343.1</ele>
  <time>2026-09-01T19:51:19Z</time>
  <course>270.0</course>
  <speed>0.0</speed>
  <fix>3d</fix>
</trkpt>
<trkpt lat="-27.2744392" lon="151.2900641">
  <ele>343.24</ele>
  <time>2026-09-01T19:51:19Z</time>
  <course>10.7</course>
  <speed>0.022360679774997897</speed>
  <fix>3d</fix>
</trkpt>
<trkpt lat="-27.274439" lon="151.290064">
  <ele>343.1</ele>
  <time>2026-09-01T19:51:19Z</time>
  <course>270.0</course>
  <speed>0.0</speed>
  <fix>3d</fix>
</trkpt>
<trkpt lat="-27.2744392" lon="151.2900641">
  <ele>343.24</ele>
  <time>2026-09-01T19:51:19Z</time>
  <course>10.7</course>
  <speed>0.022360679774997897</speed>
  <fix>3d</fix>
</trkpt>
<trkpt lat="-27.274439" lon="151.290064">
  <ele>343.1</ele>
  <time>2026-09-01T19:51:19Z</time>
  <course>270.0</course>
  <speed>0.0</speed>
  <fix>3d</fix>
</trkpt>
<trkpt lat="-27.2744392" lon="151.2900641">
  <ele>343.24</ele>
  <time>2026-09-01T19:51:19Z</time>
  <course>10.7</course>
  <speed>0.022360679774997897</speed>
  <fix>3d</fix>
</trkpt>
<trkpt lat="-27.274439" lon="151.290064">
  <ele>343.1</ele>
  <time>2026-09-01T19:51:19Z</time>
  <course>270.0</course>
  <speed>0.0</speed>
  <fix>3d</fix>
</trkpt>
<trkpt lat="-27.2744392" lon="151.2900641">
  <ele>343.24</ele>
  <time>2026-09-01T19:51:19Z</time>
  <course>10.7</course>
  <speed>0.022360679774997897</speed>
  <fix>3d</fix>
</trkpt>
<trkpt lat="-27.274439" lon="151.290064">
  <ele>343.1</ele>
  <time>2026-09-01T19:51:19Z</time>
  <course>270.0</course>
  <speed>0.0</speed>
  <fix>3d</fix>
</trkpt>
<trkpt lat="-27.2744392" lon="151.2900641">
  <ele>343.1</ele>
  <time>2026-09-01T19:51:19Z</time>
  <course>10.7</course>
  <speed>0.022360679774997897</speed>
  <fix>3d</fix>
</trkpt>
<trkpt lat="-27.274439" lon="151.290064">
  <ele>343.1</ele>
  <time>2026-09-01T19:51:19Z</time>
  <course>270.0</course>
  <speed>0.0</speed>
  <fix>3d</fix>
</trkpt>
<trkpt lat="-27.2744392" lon="151.2900641">
  <ele>343.1</ele>
  <time>2026-09-01T19:51:19Z</time>
  <course>10.7</course>
  <speed>0.022360679774997897</speed>
  <fix>3d</fix>
</trkpt>
<trkpt lat="-27.274439" lon="151.290064">
  <ele>343.1</ele>
  <time>2026-09-01T19:51:19Z</time>
  <course>270.0</course>
  <speed>0.0</speed>
  <fix>3d</fix>
</trkpt>
<trkpt lat="-27.2744392" lon="151.2900641">
  <ele>343.1</ele>
  <time>2026-09-01T19:51:19Z</time>
  <course>10.7</course>
  <speed>0.022360679774997897</speed>
  <fix>3d</fix>
</trkpt>
<trkpt lat="-27.274439" lon="151.290064">
  <ele>343.1</ele>
  <time>2026-09-01T19:51:19Z</time>
  <course>270.0</course>
  <speed>0.0</speed>
  <fix>3d</fix>
</trkpt>
<trkpt lat="-27.2744392" lon="151.2900641">
  <ele>343.1</ele>
  <time>2026-09-01T19:51:19Z</time>
  <course>10.71</course>
  <speed>0.022360679774997897</speed>
  <fix>3d</fix>
</trkpt>
<trkpt lat="-27.274439" lon="151.290064">
  <ele>343.1</ele>
  <time>2026-09-01T19:51:19Z</time>
  <course>270.0</course>
  <speed>0.0</speed>
  <fix>3d</fix>
</trkpt>
<trkpt lat="-27.2744392" lon="151.2900641">
  <ele>343.1</ele>
  <time>2026-09-01T19:51:19Z</time>
  <course>10.71</course>
  <speed>0.022360679774997897</speed>
  <fix>3d</fix>
</trkpt>
<trkpt lat="-27.274439" lon="151.290064">
  <ele>343.1</ele>
  <time>2026-09-01T19:51:19Z</time>
  <course>270.0</course>
  <speed>0.0</speed>
  <fix>3d</fix>
</trkpt>
<trkpt lat="-27.2744392" lon="151.2900641">
  <ele>343.1</ele>
  <time>2026-09-01T19:51:19Z</time>
  <course>10.71</course>
  <speed>0.022360679774997897</speed>
  <fix>3d</fix>
</trkpt>
<trkpt lat="-27.274439" lon="151.290064">
  <ele>343.1</ele>
  <time>2026-09-01T19:51:19Z</time>
  <course>270.0</course>
  <speed>0.0</speed>
  <fix>3d</fix>
</trkpt>
<trkpt lat="-27.2744392" lon="151.2900641">
  <ele>343.1</ele>
  <time>2026-09-01T19:51:19Z</time>
  <course>10.71</course>
  <speed>0.022360679774997897</speed>
  <fix>3d</fix>
</trkpt>
<trkpt lat="-27.274439" lon="151.290064">
  <ele>343.1</ele>
  <time>2026-09-01T19:51:19Z</time>
  <course>270.0</course>
  <speed>0.0</speed>
  <fix>3d</fix>
</trkpt>
<trkpt lat="-27.2744392" lon="151.2900641">
  <ele>343.1</ele>
  <time>2026-09-01T19:51:19Z</time>
  <course>10.71</course>
  <speed>0.022360679774997897</speed>
  <fix>3d</fix>
</trkpt>
<trkpt lat="-27.274439" lon="151.290064">
  <ele>343.1</ele>
  <time>2026-09-01T19:51:19Z</time>
  <course>270.0</course>
  <speed>0.0</speed>
  <fix>3d</fix>
</trkpt>
<trkpt lat="-27.2744392" lon="151.2900641">
  <ele>343.09</ele>
  <time>2026-09-01T19:51:19Z</time>
  <course>10.71</course>
  <speed>0.022360679774997897</speed>
  <fix>3d</fix>
</trkpt>
<trkpt lat="-27.274439" lon="151.290064">
  <ele>343.1</ele>
  <time>2026-09-01T19:51:19Z</time>
  <course>270.0</course>
  <speed>0.0</speed>
  <fix>3d</fix>
</trkpt>
<trkpt lat="-27.2744392" lon="151.2900641">
  <ele>343.09</ele>
  <time>2026-09-01T19:51:19Z</time>
  <course>10.71</course>
  <speed>0.022360679774997897</speed>
  <fix>3d</fix>
</trkpt>
<trkpt lat="-27.274439" lon="151.290064">
  <ele>343.1</ele>
  <time>2026-09-01T19:51:19Z</time>
  <course>270.0</course>
  <speed>0.0</speed>
  <fix>3d</fix>
</trkpt>
<trkpt lat="-27.2744392" lon="151.2900641">
  <ele>343.09</ele>
  <time>2026-09-01T19:51:19Z</time>
  <course>10.71</course>
  <speed>0.022360679774997897</speed>
  <fix>3d</fix>
</trkpt>
<trkpt lat="-27.274439" lon="151.290064">
  <ele>343.1</ele>
  <time>2026-09-01T19:51:19Z</time>
  <course>270.0</course>
  <speed>0.0</speed>
  <fix>3d</fix>
</trkpt>
<trkpt lat="-27.2744392" lon="151.2900641">
  <ele>343.09</ele>
  <time>2026-09-01T19:51:19Z</time>
  <course>10.71</course>
  <speed>0.022360679774997897</speed>
  <fix>3d</fix>
</trkpt>
<trkpt lat="-27.274439" lon="151.290064">
  <ele>343.1</ele>
  <time>2026-09-01T19:51:19Z</time>
  <course>270.0</course>
  <speed>0.0</speed>
  <fix>3d</fix>
</trkpt>
<trkpt lat="-27.2744392" lon="151.2900641">
  <ele>343.09</ele>
  <time>2026-09-01T19:51:19Z</time>
  <course>10.71</course>
  <speed>0.022360679774997897</speed>
  <fix>3d</fix>
</trkpt>
<trkpt lat="-27.274439" lon="151.290064">
  <ele>343.1</ele>
  <time>2026-09-01T19:51:19Z</time>
  <course>270.0</course>
  <speed>0.0</speed>
  <fix>3d</fix>
</trkpt>
<trkpt lat="-27.2744392" lon="151.2900641">
  <ele>343.09</ele>
  <time>2026-09-01T19:51:19Z</time>
  <course>10.71</course>
  <speed>0.022360679774997897</speed>
  <fix>3d</fix>
</trkpt>
<trkpt lat="-27.274439" lon="151.290064">
  <ele>343.1</ele>
  <time>2026-09-01T19:51:19Z</time>
  <course>270.0</course>
  <speed>0.0</speed>
  <fix>3d</fix>
</trkpt>
<trkpt lat="-27.2744392" lon="151.2900641">
  <ele>343.09</ele>
  <time>2026-09-01T19:51:19Z</time>
  <course>10.71</course>
  <speed>0.022360679774997897</speed>
  <fix>3d</fix>
</trkpt>
<trkpt lat="-27.274439" lon="151.290064">
  <ele>343.1</ele>
  <time>2026-09-01T19:51:19Z</time>
  <course>270.0</course>
  <speed>0.0</speed>
  <fix>3d</fix>
</trkpt>
<trkpt lat="-27.2744392" lon="151.2900641">
  <ele>343.09</ele>
  <time>2026-09-01T19:51:19Z</time>
  <course>10.72</course>
  <speed>0.022360679774997897</speed>
  <fix>3d</fix>
</trkpt>
<trkpt lat="-27.274439" lon="151.290064">
  <ele>343.1</ele>
  <time>2026-09-01T19:51:19Z</time>
  <course>270.0</course>
  <speed>0.0</speed>
  <fix>3d</fix>
</trkpt>
<trkpt lat="-27.2744392" lon="151.2900641">
  <ele>343.09</ele>
  <time>2026-09-01T19:51:19Z</time>
  <course>10.72</course>
  <speed>0.022360679774997897</speed>
  <fix>3d</fix>
</trkpt>
<trkpt lat="-27.274439" lon="151.290064">
  <ele>343.1</ele>
  <time>2026-09-01T19:51:19Z</time>
  <course>270.0</course>
  <speed>0.0</speed>
  <fix>3d</fix>
</trkpt>
<trkpt lat="-27.2744392" lon="151.2900641">
  <ele>343.08</ele>
  <time>2026-09-01T19:51:19Z</time>
  <course>10.72</course>
  <speed>0.022360679774997897</speed>
  <fix>3d</fix>
</trkpt>
<trkpt lat="-27.274439" lon="151.290064">
  <ele>343.1</ele>
  <time>2026-09-01T19:51:19Z</time>
  <course>270.0</course>
  <speed>0.0</speed>
  <fix>3d</fix>
</trkpt>
<trkpt lat="-27.2744392" lon="151.2900641">
  <ele>343.08</ele>
  <time>2026-09-01T19:51:19Z</time>
  <course>10.72</course>
  <speed>0.022360679774997897</speed>
  <fix>3d</fix>
</trkpt>
<trkpt lat="-27.274439" lon="151.290064">
  <ele>343.1</ele>
  <time>2026-09-01T19:51:19Z</time>
  <course>270.0</course>
  <speed>0.0</speed>
  <fix>3d</fix>
</trkpt>
<trkpt lat="-27.2744392" lon="151.2900641">
  <ele>343.08</ele>
  <time>2026-09-01T19:51:19Z</time>
  <course>10.72</course>
  <speed>0.022360679774997897</speed>
  <fix>3d</fix>
</trkpt>
<trkpt lat="-27.274439" lon="151.290064">
  <ele>343.1</ele>
  <time>2026-09-01T19:51:19Z</time>
  <course>270.0</course>
  <speed>0.0</speed>
  <fix>3d</fix>
</trkpt>
<trkpt lat="-27.2744392" lon="151.2900641">
  <ele>343.07</ele>
  <time>2026-09-01T19:51:19Z</time>
  <course>10.72</course>
  <speed>0.022360679774997897</speed>
  <fix>3d</fix>
</trkpt>
<trkpt lat="-27.274439" lon="151.290064">
  <ele>343.1</ele>
  <time>2026-09-01T19:51:19Z</time>
  <course>270.0</course>
  <speed>0.0</speed>
  <fix>3d</fix>
</trkpt>
<trkpt lat="-27.2744392" lon="151.2900641">
  <ele>343.07</ele>
  <time>2026-09-01T19:51:19Z</time>
  <course>10.72</course>
  <speed>0.022360679774997897</speed>
  <fix>3d</fix>
</trkpt>
<trkpt lat="-27.274439" lon="151.290064">
  <ele>343.1</ele>
  <time>2026-09-01T19:51:19Z</time>
  <course>270.0</course>
  <speed>0.0</speed>
  <fix>3d</fix>
</trkpt>
<trkpt lat="-27.2744392" lon="151.2900641">
  <ele>343.07</ele>
  <time>2026-09-01T19:51:19Z</time>
  <course>10.72</course>
  <speed>0.022360679774997897</speed>
  <fix>3d</fix>
</trkpt>
<trkpt lat="-27.274439" lon="151.290064">
  <ele>343.1</ele>
  <time>2026-09-01T19:51:19Z</time>
  <course>270.0</course>
  <speed>0.0</speed>
  <fix>3d</fix>
</trkpt>
<trkpt lat="-27.2744392" lon="151.2900641">
  <ele>343.07</ele>
  <time>2026-09-01T19:51:19Z</time>
  <course>10.72</course>
  <speed>0.022360679774997897</speed>
  <fix>3d</fix>
</trkpt>
<trkpt lat="-27.274439" lon="151.290064">
  <ele>343.1</ele>
  <time>2026-09-01T19:51:19Z</time>
  <course>270.0</course>
  <speed>0.0</speed>
  <fix>3d</fix>
</trkpt>
<trkpt lat="-27.2744392" lon="151.2900641">
  <ele>343.07</ele>
  <time>2026-09-01T19:51:19Z</time>
  <course>10.72</course>
  <speed>0.022360679774997897</speed>
  <fix>3d</fix>
</trkpt>
<trkpt lat="-27.274439" lon="151.290064">
  <ele>343.1</ele>
  <time>2026-09-01T19:51:19Z</time>
  <course>270.0</course>
  <speed>0.0</speed>
  <fix>3d</fix>
</trkpt>
<trkpt lat="-27.2744392" lon="151.2900641">
  <ele>343.07</ele>
  <time>2026-09-01T19:51:19Z</time>
  <course>10.72</course>
  <speed>0.022360679774997897</speed>
  <fix>3d</fix>
</trkpt>
<trkpt lat="-27.274439" lon="151.290064">
  <ele>343.1</ele>
  <time>2026-09-01T19:51:19Z</time>
  <course>270.0</course>
  <speed>0.0</speed>
  <fix>3d</fix>
</trkpt>
<trkpt lat="-27.2744392" lon="151.2900641">
  <ele>343.07</ele>
  <time>2026-09-01T19:51:19Z</time>
  <course>10.72</course>
  <speed>0.022360679774997897</speed>
  <fix>3d</fix>
</trkpt>
<trkpt lat="-27.274439" lon="151.290064">
  <ele>343.1</ele>
  <time>2026-09-01T19:51:19Z</time>
  <course>270.0</course>
  <speed>0.0</speed>
  <fix>3d</fix>
</trkpt>
<trkpt lat="-27.2744392" lon="151.2900641">
  <ele>343.07</ele>
  <time>2026-09-01T19:51:19Z</time>
  <course>10.73</course>
  <speed>0.022360679774997897</speed>
  <fix>3d</fix>
</trkpt>
<trkpt lat="-27.274439" lon="151.290064">
  <ele>343.1</ele>
  <time>2026-09-01T19:51:19Z</time>
  <course>270.0</course>
  <speed>0.0</speed>
  <fix>3d</fix>
</trkpt>
<trkpt lat="-27.2744392" lon="151.2900641">
  <ele>343.06</ele>
  <time>2026-09-01T19:51:19Z</time>
  <course>10.73</course>
  <speed>0.022360679774997897</speed>
  <fix>3d</fix>
</trkpt>
<trkpt lat="-27.274439" lon="151.290064">
  <ele>343.1</ele>
  <time>2026-09-01T19:51:19Z</time>
  <course>270.0</course>
  <speed>0.0</speed>
  <fix>3d</fix>
</trkpt>
<trkpt lat="-27.2744392" lon="151.2900641">
  <ele>343.06</ele>
  <time>2026-09-01T19:51:19Z</time>
  <course>10.73</course>
  <speed>0.022360679774997897</speed>
  <fix>3d</fix>
</trkpt>
<trkpt lat="-27.274439" lon="151.290064">
  <ele>343.1</ele>
  <time>2026-09-01T19:51:19Z</time>
  <course>270.0</course>
  <speed>0.0</speed>
  <fix>3d</fix>
</trkpt>
<trkpt lat="-27.2744392" lon="151.2900641">
  <ele>343.06</ele>
  <time>2026-09-01T19:51:19Z</time>
  <course>10.73</course>
  <speed>0.022360679774997897</speed>
  <fix>3d</fix>
</trkpt>
<trkpt lat="-27.274439" lon="151.290064">
  <ele>343.1</ele>
  <time>2026-09-01T19:51:19Z</time>
  <course>270.0</course>
  <speed>0.0</speed>
  <fix>3d</fix>
</trkpt>
<trkpt lat="-27.2744392" lon="151.2900641">
  <ele>343.06</ele>
  <time>2026-09-01T19:51:19Z</time>
  <course>10.73</course>
  <speed>0.022360679774997897</speed>
  <fix>3d</fix>
</trkpt>
<trkpt lat="-27.274439" lon="151.290064">
  <ele>343.1</ele>
  <time>2026-09-01T19:51:19Z</time>
  <course>270.0</course>
  <speed>0.0</speed>
  <fix>3d</fix>
</trkpt>
<trkpt lat="-27.2744392" lon="151.2900641">
  <ele>343.06</ele>
  <time>2026-09-01T19:51:19Z</time>
  <course>10.73</course>
  <speed>0.022360679774997897</speed>
  <fix>3d</fix>
</trkpt>
<trkpt lat="-27.274439" lon="151.290064">
  <ele>343.1</ele>
  <time>2026-09-01T19:51:19Z</time>
  <course>270.0</course>
  <speed>0.0</speed>
  <fix>3d</fix>
</trkpt>
<trkpt lat="-27.2744392" lon="151.2900641">
  <ele>343.06</ele>
  <time>2026-09-01T19:51:19Z</time>
  <course>10.73</course>
  <speed>0.022360679774997897</speed>
  <fix>3d</fix>
</trkpt>
<trkpt lat="-27.274439" lon="151.290064">
  <ele>343.1</ele>
  <time>2026-09-01T19:51:19Z</time>
  <course>270.0</course>
  <speed>0.0</speed>
  <fix>3d</fix>
</trkpt>
<trkpt lat="-27.2744392" lon="151.2900641">
  <ele>343.06</ele>
  <time>2026-09-01T19:51:19Z</time>
  <course>10.73</course>
  <speed>0.022360679774997897</speed>
  <fix>3d</fix>
</trkpt>
<trkpt lat="-27.274439" lon="151.290064">
  <ele>343.1</ele>
  <time>2026-09-01T19:51:19Z</time>
  <course>270.0</course>
  <speed>0.0</speed>
  <fix>3d</fix>
</trkpt>
<trkpt lat="-27.2744392" lon="151.2900641">
  <ele>343.06</ele>
  <time>2026-09-01T19:51:19Z</time>
  <course>10.73</course>
  <speed>0.022360679774997897</speed>
  <fix>3d</fix>
</trkpt>
<trkpt lat="-27.274439" lon="151.290064">
  <ele>343.1</ele>
  <time>2026-09-01T19:51:19Z</time>
  <course>270.0</course>
  <speed>0.0</speed>
  <fix>3d</fix>
</trkpt>
<trkpt lat="-27.2744392" lon="151.2900641">
  <ele>343.05</ele>
  <time>2026-09-01T19:51:19Z</time>
  <course>10.73</course>
  <speed>0.022360679774997897</speed>
  <fix>3d</fix>
</trkpt>
<trkpt lat="-27.274439" lon="151.290064">
  <ele>343.1</ele>
  <time>2026-09-01T19:51:19Z</time>
  <course>270.0</course>
  <speed>0.0</speed>
  <fix>3d</fix>
</trkpt>
<trkpt lat="-27.2744392" lon="151.2900641">
  <ele>343.05</ele>
  <time>2026-09-01T19:51:19Z</time>
  <course>10.73</course>
  <speed>0.022360679774997897</speed>
  <fix>3d</fix>
</trkpt>
<trkpt lat="-27.274439" lon="151.290064">
  <ele>343.1</ele>
  <time>2026-09-01T19:51:19Z</time>
  <course>270.0</course>
  <speed>0.0</speed>
  <fix>3d</fix>
</trkpt>
<trkpt lat="-27.2744392" lon="151.2900641">
  <ele>343.05</ele>
  <time>2026-09-01T19:51:19Z</time>
  <course>10.74</course>
  <speed>0.022360679774997897</speed>
  <fix>3d</fix>
</trkpt>
<trkpt lat="-27.274439" lon="151.290064">
  <ele>343.1</ele>
  <time>2026-09-01T19:51:19Z</time>
  <course>270.0</course>
  <speed>0.0</speed>
  <fix>3d</fix>
</trkpt>
<trkpt lat="-27.2744392" lon="151.2900641">
  <ele>343.05</ele>
  <time>2026-09-01T19:51:19Z</time>
  <course>10.74</course>
  <speed>0.022360679774997897</speed>
  <fix>3d</fix>
</trkpt>
<trkpt lat="-27.274439" lon="151.290064">
  <ele>343.1</ele>
  <time>2026-09-01T19:51:19Z</time>
  <course>270.0</course>
  <speed>0.0</speed>
  <fix>3d</fix>
</trkpt>
<trkpt lat="-27.2744392" lon="151.2900641">
  <ele>343.05</ele>
  <time>2026-09-01T19:51:19Z</time>
  <course>10.74</course>
  <speed>0.022360679774997897</speed>
  <fix>3d</fix>
</trkpt>
<trkpt lat="-27.274439" lon="151.290064">
  <ele>343.1</ele>
  <time>2026-09-01T19:51:19Z</time>
  <course>270.0</course>
  <speed>0.0</speed>
  <fix>3d</fix>
</trkpt>
<trkpt lat="-27.2744392" lon="151.2900641">
  <ele>343.05</ele>
  <time>2026-09-01T19:51:19Z</time>
  <course>10.74</course>
  <speed>0.022360679774997897</speed>
  <fix>3d</fix>
</trkpt>
<trkpt lat="-27.274439" lon="151.290064">
  <ele>343.1</ele>
  <time>2026-09-01T19:51:19Z</time>
  <course>270.0</course>
  <speed>0.0</speed>
  <fix>3d</fix>
</trkpt>
<trkpt lat="-27.2744392" lon="151.2900641">
  <ele>343.05</ele>
  <time>2026-09-01T19:51:19Z</time>
  <course>10.74</course>
  <speed>0.022360679774997897</speed>
  <fix>3d</fix>
</trkpt>
<trkpt lat="-27.274439" lon="151.290064">
  <ele>343.1</ele>
  <time>2026-09-01T19:51:19Z</time>
  <course>270.0</course>
  <speed>0.0</speed>
  <fix>3d</fix>
</trkpt>
<trkpt lat="-27.2744392" lon="151.2900641">
  <ele>343.05</ele>
  <time>2026-09-01T19:51:19Z</time>
  <course>10.74</course>
  <speed>0.022360679774997897</speed>
  <fix>3d</fix>
</trkpt>
<trkpt lat="-27.274439" lon="151.290064">
  <ele>343.1</ele>
  <time>2026-09-01T19:51:19Z</time>
  <course>270.0</course>
  <speed>0.0</speed>
  <fix>3d</fix>
</trkpt>
<trkpt lat="-27.2744392" lon="151.2900641">
  <ele>343.05</ele>
  <time>2026-09-01T19:51:19Z</time>
  <course>10.74</course>
  <speed>0.022360679774997897</speed>
  <fix>3d</fix>
</trkpt>
<trkpt lat="-27.274439" lon="151.290064">
  <ele>343.1</ele>
  <time>2026-09-01T19:51:19Z</time>
  <course>270.0</course>
  <speed>0.0</speed>
  <fix>3d</fix>
</trkpt>
<trkpt lat="-27.2744392" lon="151.2900641">
  <ele>343.04</ele>
  <time>2026-09-01T19:51:19Z</time>
  <course>10.74</course>
  <speed>0.022360679774997897</speed>
  <fix>3d</fix>
</trkpt>
<trkpt lat="-27.274439" lon="151.290064">
  <ele>343.1</ele>
  <time>2026-09-01T19:51:19Z</time>
  <course>270.0</course>
  <speed>0.0</speed>
  <fix>3d</fix>
</trkpt>
<trkpt lat="-27.2744392" lon="151.2900641">
  <ele>343.04</ele>
  <time>2026-09-01T19:51:19Z</time>
  <course>10.74</course>
  <speed>0.022360679774997897</speed>
  <fix>3d</fix>
</trkpt>
<trkpt lat="-27.274439" lon="151.290064">
  <ele>343.1</ele>
  <time>2026-09-01T19:51:19Z</time>
  <course>270.0</course>
  <speed>0.0</speed>
  <fix>3d</fix>
</trkpt>
<trkpt lat="-27.2744392" lon="151.2900641">
  <ele>343.04</ele>
  <time>2026-09-01T19:51:19Z</time>
  <course>10.74</course>
  <speed>0.022360679774997897</speed>
  <fix>3d</fix>
</trkpt>
<trkpt lat="-27.274439" lon="151.290064">
  <ele>343.1</ele>
  <time>2026-09-01T19:51:19Z</time>
  <course>270.0</course>
  <speed>0.0</speed>
  <fix>3d</fix>
</trkpt>
<trkpt lat="-27.2744392" lon="151.2900641">
  <ele>343.04</ele>
  <time>2026-09-01T19:51:19Z</time>
  <course>10.74</course>
  <speed>0.022360679774997897</speed>
  <fix>3d</fix>
</trkpt>
<trkpt lat="-27.274439" lon="151.290064">
  <ele>343.1</ele>
  <time>2026-09-01T19:51:19Z</time>
  <course>270.0</course>
  <speed>0.0</speed>
  <fix>3d</fix>
</trkpt>
<trkpt lat="-27.2744392" lon="151.2900641">
  <ele>343.03</ele>
  <time>2026-09-01T19:51:19Z</time>
  <course>10.74</course>
  <speed>0.022360679774997897</speed>
  <fix>3d</fix>
</trkpt>
<trkpt lat="-27.274439" lon="151.290064">
  <ele>343.1</ele>
  <time>2026-09-01T19:51:19Z</time>
  <course>270.0</course>
  <speed>0.0</speed>
  <fix>3d</fix>
</trkpt>
<trkpt lat="-27.2744392" lon="151.2900641">
  <ele>343.03</ele>
  <time>2026-09-01T19:51:19Z</time>
  <course>10.75</course>
  <speed>0.022360679774997897</speed>
  <fix>3d</fix>
</trkpt>
<trkpt lat="-27.274439" lon="151.290064">
  <ele>343.1</ele>
  <time>2026-09-01T19:51:19Z</time>
  <course>270.0</course>
  <speed>0.0</speed>
  <fix>3d</fix>
</trkpt>
<trkpt lat="-27.2744392" lon="151.2900641">
  <ele>343.03</ele>
  <time>2026-09-01T19:51:19Z</time>
  <course>10.75</course>
  <speed>0.022360679774997897</speed>
  <fix>3d</fix>
</trkpt>
<trkpt lat="-27.274439" lon="151.290064">
  <ele>343.1</ele>
  <time>2026-09-01T19:51:19Z</time>
  <course>270.0</course>
  <speed>0.0</speed>
  <fix>3d</fix>
</trkpt>
<trkpt lat="-27.2744392" lon="151.2900641">
  <ele>343.03</ele>
  <time>2026-09-01T19:51:19Z</time>
  <course>10.75</course>
  <speed>0.022360679774997897</speed>
  <fix>3d</fix>
</trkpt>
<trkpt lat="-27.274439" lon="151.290064">
  <ele>343.1</ele>
  <time>2026-09-01T19:51:19Z</time>
  <course>270.0</course>
  <speed>0.0</speed>
  <fix>3d</fix>
</trkpt>
<trkpt lat="-27.2744392" lon="151.2900641">
  <ele>343.03</ele>
  <time>2026-09-01T19:51:19Z</time>
  <course>10.75</course>
  <speed>0.022360679774997897</speed>
  <fix>3d</fix>
</trkpt>
<trkpt lat="-27.274439" lon="151.290064">
  <ele>343.1</ele>
  <time>2026-09-01T19:51:19Z</time>
  <course>270.0</course>
  <speed>0.0</speed>
  <fix>3d</fix>
</trkpt>
<trkpt lat="-27.2744392" lon="151.2900641">
  <ele>343.03</ele>
  <time>2026-09-01T19:51:19Z</time>
  <course>10.75</course>
  <speed>0.022360679774997897</speed>
  <fix>3d</fix>
</trkpt>
<trkpt lat="-27.274439" lon="151.290064">
  <ele>343.1</ele>
  <time>2026-09-01T19:51:19Z</time>
  <course>270.0</course>
  <speed>0.0</speed>
  <fix>3d</fix>
</trkpt>
<trkpt lat="-27.2744392" lon="151.2900641">
  <ele>343.03</ele>
  <time>2026-09-01T19:51:19Z</time>
  <course>10.75</course>
  <speed>0.022360679774997897</speed>
  <fix>3d</fix>
</trkpt>
<trkpt lat="-27.274439" lon="151.290064">
  <ele>343.1</ele>
  <time>2026-09-01T19:51:19Z</time>
  <course>270.0</course>
  <speed>0.0</speed>
  <fix>3d</fix>
</trkpt>
<trkpt lat="-27.2744392" lon="151.2900641">
  <ele>343.03</ele>
  <time>2026-09-01T19:51:19Z</time>
  <course>10.75</course>
  <speed>0.022360679774997897</speed>
  <fix>3d</fix>
</trkpt>
<trkpt lat="-27.274439" lon="151.290064">
  <ele>343.1</ele>
  <time>2026-09-01T19:51:19Z</time>
  <course>270.0</course>
  <speed>0.0</speed>
  <fix>3d</fix>
</trkpt>
<trkpt lat="-27.2744392" lon="151.2900641">
  <ele>343.03</ele>
  <time>2026-09-01T19:51:19Z</time>
  <course>10.75</course>
  <speed>0.022360679774997897</speed>
  <fix>3d</fix>
</trkpt>
<trkpt lat="-27.274439" lon="151.290064">
  <ele>343.1</ele>
  <time>2026-09-01T19:51:19Z</time>
  <course>270.0</course>
  <speed>0.0</speed>
  <fix>3d</fix>
</trkpt>
<trkpt lat="-27.2744392" lon="151.2900641">
  <ele>343.02</ele>
  <time>2026-09-01T19:51:19Z</time>
  <course>10.75</course>
  <speed>0.022360679774997897</speed>
  <fix>3d</fix>
</trkpt>
<trkpt lat="-27.274439" lon="151.290064">
  <ele>343.1</ele>
  <time>2026-09-01T19:51:19Z</time>
  <course>270.0</course>
  <speed>0.0</speed>
  <fix>3d</fix>
</trkpt>
<trkpt lat="-27.2744392" lon="151.2900641">
  <ele>343.02</ele>
  <time>2026-09-01T19:51:19Z</time>
  <course>10.75</course>
  <speed>0.022360679774997897</speed>
  <fix>3d</fix>
</trkpt>
<trkpt lat="-27.274439" lon="151.290064">
  <ele>343.1</ele>
  <time>2026-09-01T19:51:19Z</time>
  <course>270.0</course>
  <speed>0.0</speed>
  <fix>3d</fix>
</trkpt>
<trkpt lat="-27.2744392" lon="151.2900641">
  <ele>343.09</ele>
  <time>2026-09-01T19:51:19Z</time>
  <course>10.76</course>
  <speed>0.022360679774997897</speed>
  <fix>3d</fix>
</trkpt>
<trkpt lat="-27.274439" lon="151.290064">
  <ele>343.1</ele>
  <time>2026-09-01T19:51:19Z</time>
  <course>270.0</course>
  <speed>0.0</speed>
  <fix>3d</fix>
</trkpt>
<trkpt lat="-27.2744392" lon="151.2900641">
  <ele>343.09</ele>
  <time>2026-09-01T19:51:19Z</time>
  <course>10.76</course>
  <speed>0.022360679774997897</speed>
  <fix>3d</fix>
</trkpt>
<trkpt lat="-27.274439" lon="151.290064">
  <ele>343.1</ele>
  <time>2026-09-01T19:51:19Z</time>
  <course>270.0</course>
  <speed>0.0</speed>
  <fix>3d</fix>
</trkpt>
<trkpt lat="-27.2744392" lon="151.2900641">
  <ele>343.09</ele>
  <time>2026-09-01T19:51:19Z</time>
  <course>10.76</course>
  <speed>0.022360679774997897</speed>
  <fix>3d</fix>
</trkpt>
<trkpt lat="-27.274439" lon="151.290064">
  <ele>343.1</ele>
  <time>2026-09-01T19:51:19Z</time>
  <course>270.0</course>
  <speed>0.0</speed>
  <fix>3d</fix>
</trkpt>
<trkpt lat="-27.2744392" lon="151.2900641">
  <ele>343.09</ele>
  <time>2026-09-01T19:51:19Z</time>
  <course>10.76</course>
  <speed>0.022360679774997897</speed>
  <fix>3d</fix>
</trkpt>
<trkpt lat="-27.274439" lon="151.290064">
  <ele>343.1</ele>
  <time>2026-09-01T19:51:19Z</time>
  <course>270.0</course>
  <speed>0.0</speed>
  <fix>3d</fix>
</trkpt>
<trkpt lat="-27.2744392" lon="151.2900641">
  <ele>343.09</ele>
  <time>2026-09-01T19:51:19Z</time>
  <course>10.76</course>
  <speed>0.022360679774997897</speed>
  <fix>3d</fix>
</trkpt>
<trkpt lat="-27.274439" lon="151.290064">
  <ele>343.1</ele>
  <time>2026-09-01T19:51:19Z</time>
  <course>270.0</course>
  <speed>0.0</speed>
  <fix>3d</fix>
</trkpt>
<trkpt lat="-27.2744392" lon="151.2900641">
  <ele>343.09</ele>
  <time>2026-09-01T19:51:19Z</time>
  <course>10.76</course>
  <speed>0.022360679774997897</speed>
  <fix>3d</fix>
</trkpt>
<trkpt lat="-27.274439" lon="151.290064">
  <ele>343.1</ele>
  <time>2026-09-01T19:51:19Z</time>
  <course>270.0</course>
  <speed>0.0</speed>
  <fix>3d</fix>
</trkpt>
<trkpt lat="-27.2744392" lon="151.2900641">
  <ele>343.09</ele>
  <time>2026-09-01T19:51:19Z</time>
  <course>10.76</course>
  <speed>0.022360679774997897</speed>
  <fix>3d</fix>
</trkpt>
<trkpt lat="-27.274439" lon="151.290064">
  <ele>343.1</ele>
  <time>2026-09-01T19:51:19Z</time>
  <course>270.0</course>
  <speed>0.0</speed>
  <fix>3d</fix>
</trkpt>
<trkpt lat="-27.2744392" lon="151.2900641">
  <ele>343.08</ele>
  <time>2026-09-01T19:51:19Z</time>
  <course>10.76</course>
  <speed>0.022360679774997897</speed>
  <fix>3d</fix>
</trkpt>
<trkpt lat="-27.274439" lon="151.290064">
  <ele>343.1</ele>
  <time>2026-09-01T19:51:19Z</time>
  <course>270.0</course>
  <speed>0.0</speed>
  <fix>3d</fix>
</trkpt>
<trkpt lat="-27.2744392" lon="151.2900641">
  <ele>343.08</ele>
  <time>2026-09-01T19:51:19Z</time>
  <course>10.76</course>
  <speed>0.022360679774997897</speed>
  <fix>3d</fix>
</trkpt>
<trkpt lat="-27.274439" lon="151.290064">
  <ele>343.1</ele>
  <time>2026-09-01T19:51:19Z</time>
  <course>270.0</course>
  <speed>0.0</speed>
  <fix>3d</fix>
</trkpt>
<trkpt lat="-27.2744392" lon="151.2900641">
  <ele>343.07</ele>
  <time>2026-09-01T19:51:19Z</time>
  <course>10.76</course>
  <speed>0.022360679774997897</speed>
  <fix>3d</fix>
</trkpt>
<trkpt lat="-27.274439" lon="151.290064">
  <ele>343.1</ele>
  <time>2026-09-01T19:51:19Z</time>
  <course>270.0</course>
  <speed>0.0</speed>
  <fix>3d</fix>
</trkpt>
<trkpt lat="-27.2744392" lon="151.2900641">
  <ele>343.07</ele>
  <time>2026-09-01T19:51:19Z</time>
  <course>10.77</course>
  <speed>0.022360679774997897</speed>
  <fix>3d</fix>
</trkpt>
<trkpt lat="-27.274439" lon="151.290064">
  <ele>343.1</ele>
  <time>2026-09-01T19:51:19Z</time>
  <course>270.0</course>
  <speed>0.0</speed>
  <fix>3d</fix>
</trkpt>
<trkpt lat="-27.2744392" lon="151.2900641">
  <ele>343.06</ele>
  <time>2026-09-01T19:51:19Z</time>
  <course>10.77</course>
  <speed>0.022360679774997897</speed>
  <fix>3d</fix>
</trkpt>
<trkpt lat="-27.274439" lon="151.290064">
  <ele>343.1</ele>
  <time>2026-09-01T19:51:19Z</time>
  <course>270.0</course>
  <speed>0.0</speed>
  <fix>3d</fix>
</trkpt>
<trkpt lat="-27.2744392" lon="151.2900641">
  <ele>343.06</ele>
  <time>2026-09-01T19:51:19Z</time>
  <course>10.77</course>
  <speed>0.022360679774997897</speed>
  <fix>3d</fix>
</trkpt>
<trkpt lat="-27.274439" lon="151.290064">
  <ele>343.1</ele>
  <time>2026-09-01T19:51:19Z</time>
  <course>270.0</course>
  <speed>0.0</speed>
  <fix>3d</fix>
</trkpt>
<trkpt lat="-27.2744392" lon="151.2900641">
  <ele>343.05</ele>
  <time>2026-09-01T19:51:19Z</time>
  <course>10.77</course>
  <speed>0.022360679774997897</speed>
  <fix>3d</fix>
</trkpt>
<trkpt lat="-27.274439" lon="151.290064">
  <ele>343.1</ele>
  <time>2026-09-01T19:51:19Z</time>
  <course>270.0</course>
  <speed>0.0</speed>
  <fix>3d</fix>
</trkpt>
<trkpt lat="-27.2744392" lon="151.2900641">
  <ele>343.05</ele>
  <time>2026-09-01T19:51:19Z</time>
  <course>10.77</course>
  <speed>0.022360679774997897</speed>
  <fix>3d</fix>
</trkpt>
<trkpt lat="-27.274439" lon="151.290064">
  <ele>343.1</ele>
  <time>2026-09-01T19:51:19Z</time>
  <course>270.0</course>
  <speed>0.0</speed>
  <fix>3d</fix>
</trkpt>
<trkpt lat="-27.2744392" lon="151.2900641">
  <ele>343.05</ele>
  <time>2026-09-01T19:51:19Z</time>
  <course>10.77</course>
  <speed>0.022360679774997897</speed>
  <fix>3d</fix>
</trkpt>
<trkpt lat="-27.274439" lon="151.290064">
  <ele>343.1</ele>
  <time>2026-09-01T19:51:19Z</time>
  <course>270.0</course>
  <speed>0.0</speed>
  <fix>3d</fix>
</trkpt>
<trkpt lat="-27.2744392" lon="151.2900641">
  <ele>343.04</ele>
  <time>2026-09-01T19:51:19Z</time>
  <course>10.77</course>
  <speed>0.022360679774997897</speed>
  <fix>3d</fix>
</trkpt>
<trkpt lat="-27.274439" lon="151.290064">
  <ele>343.1</ele>
  <time>2026-09-01T19:51:19Z</time>
  <course>270.0</course>
  <speed>0.0</speed>
  <fix>3d</fix>
</trkpt>
<trkpt lat="-27.2744392" lon="151.2900641">
  <ele>343.04</ele>
  <time>2026-09-01T19:51:19Z</time>
  <course>10.77</course>
  <speed>0.022360679774997897</speed>
  <fix>3d</fix>
</trkpt>
<trkpt lat="-27.274439" lon="151.290064">
  <ele>343.1</ele>
  <time>2026-09-01T19:51:19Z</time>
  <course>270.0</course>
  <speed>0.0</speed>
  <fix>3d</fix>
</trkpt>
<trkpt lat="-27.2744392" lon="151.2900641">
  <ele>343.04</ele>
  <time>2026-09-01T19:51:19Z</time>
  <course>10.77</course>
  <speed>0.022360679774997897</speed>
  <fix>3d</fix>
</trkpt>
<trkpt lat="-27.274439" lon="151.290064">
  <ele>343.1</ele>
  <time>2026-09-01T19:51:19Z</time>
  <course>270.0</course>
  <speed>0.0</speed>
  <fix>3d</fix>
</trkpt>
<trkpt lat="-27.2744392" lon="151.2900641">
  <ele>343.04</ele>
  <time>2026-09-01T19:51:19Z</time>
  <course>10.77</course>
  <speed>0.022360679774997897</speed>
  <fix>3d</fix>
</trkpt>
<trkpt lat="-27.274439" lon="151.290064">
  <ele>343.1</ele>
  <time>2026-09-01T19:51:19Z</time>
  <course>270.0</course>
  <speed>0.0</speed>
  <fix>3d</fix>
</trkpt>
<trkpt lat="-27.2744392" lon="151.2900641">
  <ele>343.03</ele>
  <time>2026-09-01T19:51:19Z</time>
  <course>10.77</course>
  <speed>0.022360679774997897</speed>
  <fix>3d</fix>
</trkpt>
<trkpt lat="-27.274439" lon="151.290064">
  <ele>343.1</ele>
  <time>2026-09-01T19:51:19Z</time>
  <course>270.0</course>
  <speed>0.0</speed>
  <fix>3d</fix>
</trkpt>
<trkpt lat="-27.2744392" lon="151.2900641">
  <ele>343.03</ele>
  <time>2026-09-01T19:51:19Z</time>
  <course>10.78</course>
  <speed>0.022360679774997897</speed>
  <fix>3d</fix>
</trkpt>
<trkpt lat="-27.274439" lon="151.290064">
  <ele>343.1</ele>
  <time>2026-09-01T19:51:19Z</time>
  <course>270.0</course>
  <speed>0.0</speed>
  <fix>3d</fix>
</trkpt>
<trkpt lat="-27.2744392" lon="151.2900641">
  <ele>343.03</ele>
  <time>2026-09-01T19:51:19Z</time>
  <course>10.78</course>
  <speed>0.022360679774997897</speed>
  <fix>3d</fix>
</trkpt>
<trkpt lat="-27.274439" lon="151.290064">
  <ele>343.1</ele>
  <time>2026-09-01T19:51:19Z</time>
  <course>270.0</course>
  <speed>0.0</speed>
  <fix>3d</fix>
</trkpt>
<trkpt lat="-27.2744392" lon="151.2900641">
  <ele>343.03</ele>
  <time>2026-09-01T19:51:19Z</time>
  <course>10.78</course>
  <speed>0.022360679774997897</speed>
  <fix>3d</fix>
</trkpt>
<trkpt lat="-27.274439" lon="151.290064">
  <ele>343.1</ele>
  <time>2026-09-01T19:51:19Z</time>
  <course>270.0</course>
  <speed>0.0</speed>
  <fix>3d</fix>
</trkpt>
<trkpt lat="-27.2744392" lon="151.2900641">
  <ele>343.03</ele>
  <time>2026-09-01T19:51:19Z</time>
  <course>10.78</course>
  <speed>0.022360679774997897</speed>
  <fix>3d</fix>
</trkpt>
<trkpt lat="-27.274439" lon="151.290064">
  <ele>343.1</ele>
  <time>2026-09-01T19:51:19Z</time>
  <course>270.0</course>
  <speed>0.0</speed>
  <fix>3d</fix>
</trkpt>
<trkpt lat="-27.2744392" lon="151.2900641">
  <ele>343.02</ele>
  <time>2026-09-01T19:51:19Z</time>
  <course>10.78</course>
  <speed>0.022360679774997897</speed>
  <fix>3d</fix>
</trkpt>
<trkpt lat="-27.274439" lon="151.290064">
  <ele>343.1</ele>
  <time>2026-09-01T19:51:19Z</time>
  <course>270.0</course>
  <speed>0.0</speed>
  <fix>3d</fix>
</trkpt>
<trkpt lat="-27.2744392" lon="151.2900641">
  <ele>343.02</ele>
  <time>2026-09-01T19:51:19Z</time>
  <course>10.78</course>
  <speed>0.022360679774997897</speed>
  <fix>3d</fix>
</trkpt>
<trkpt lat="-27.274439" lon="151.290064">
  <ele>343.1</ele>
  <time>2026-09-01T19:51:19Z</time>
  <course>270.0</course>
  <speed>0.0</speed>
  <fix>3d</fix>
</trkpt>
<trkpt lat="-27.2744392" lon="151.2900641">
  <ele>343.02</ele>
  <time>2026-09-01T19:51:19Z</time>
  <course>10.78</course>
  <speed>0.022360679774997897</speed>
  <fix>3d</fix>
</trkpt>
<trkpt lat="-27.274439" lon="151.290064">
  <ele>343.1</ele>
  <time>2026-09-01T19:51:19Z</time>
  <course>270.0</course>
  <speed>0.0</speed>
  <fix>3d</fix>
</trkpt>
<trkpt lat="-27.2744392" lon="151.2900641">
  <ele>343.02</ele>
  <time>2026-09-01T19:51:19Z</time>
  <course>10.78</course>
  <speed>0.022360679774997897</speed>
  <fix>3d</fix>
</trkpt>
<trkpt lat="-27.274439" lon="151.290064">
  <ele>343.1</ele>
  <time>2026-09-01T19:51:19Z</time>
  <course>270.0</course>
  <speed>0.0</speed>
  <fix>3d</fix>
</trkpt>
<trkpt lat="-27.2744392" lon="151.2900641">
  <ele>343.01</ele>
  <time>2026-09-01T19:51:19Z</time>
  <course>10.78</course>
  <speed>0.022360679774997897</speed>
  <fix>3d</fix>
</trkpt>
<trkpt lat="-27.274439" lon="151.290064">
  <ele>343.1</ele>
  <time>2026-09-01T19:51:19Z</time>
  <course>270.0</course>
  <speed>0.0</speed>
  <fix>3d</fix>
</trkpt>
<trkpt lat="-27.2744392" lon="151.2900641">
  <ele>343.01</ele>
  <time>2026-09-01T19:51:19Z</time>
  <course>10.78</course>
  <speed>0.022360679774997897</speed>
  <fix>3d</fix>
</trkpt>
<trkpt lat="-27.274439" lon="151.290064">
  <ele>343.1</ele>
  <time>2026-09-01T19:51:19Z</time>
  <course>270.0</course>
  <speed>0.0</speed>
  <fix>3d</fix>
</trkpt>
<trkpt lat="-27.2744392" lon="151.2900641">
  <ele>343.01</ele>
  <time>2026-09-01T19:51:19Z</time>
  <course>10.78</course>
  <speed>0.022360679774997897</speed>
  <fix>3d</fix>
</trkpt>
<trkpt lat="-27.274439" lon="151.290064">
  <ele>343.1</ele>
  <time>2026-09-01T19:51:19Z</time>
  <course>270.0</course>
  <speed>0.0</speed>
  <fix>3d</fix>
</trkpt>
<trkpt lat="-27.2744392" lon="151.2900641">
  <ele>343.0</ele>
  <time>2026-09-01T19:51:19Z</time>
  <course>10.79</course>
  <speed>0.022360679774997897</speed>
  <fix>3d</fix>
</trkpt>
<trkpt lat="-27.274439" lon="151.290064">
  <ele>343.1</ele>
  <time>2026-09-01T19:51:19Z</time>
  <course>270.0</course>
  <speed>0.0</speed>
  <fix>3d</fix>
</trkpt>
<trkpt lat="-27.2744392" lon="151.2900641">
  <ele>343.0</ele>
  <time>2026-09-01T19:51:19Z</time>
  <course>10.79</course>
  <speed>0.022360679774997897</speed>
  <fix>3d</fix>
</trkpt>
<trkpt lat="-27.274439" lon="151.290064">
  <ele>343.1</ele>
  <time>2026-09-01T19:51:19Z</time>
  <course>270.0</course>
  <speed>0.0</speed>
  <fix>3d</fix>
</trkpt>
<trkpt lat="-27.2744392" lon="151.2900641">
  <ele>343.01</ele>
  <time>2026-09-01T19:51:19Z</time>
  <course>10.79</course>
  <speed>0.022360679774997897</speed>
  <fix>3d</fix>
</trkpt>
<trkpt lat="-27.274439" lon="151.290064">
  <ele>343.1</ele>
  <time>2026-09-01T19:51:19Z</time>
  <course>270.0</course>
  <speed>0.0</speed>
  <fix>3d</fix>
</trkpt>
<trkpt lat="-27.2744392" lon="151.2900641">
  <ele>343.01</ele>
  <time>2026-09-01T19:51:19Z</time>
  <course>10.79</course>
  <speed>0.022360679774997897</speed>
  <fix>3d</fix>
</trkpt>
<trkpt lat="-27.274439" lon="151.290064">
  <ele>343.1</ele>
  <time>2026-09-01T19:51:19Z</time>
  <course>270.0</course>
  <speed>0.0</speed>
  <fix>3d</fix>
</trkpt>
<trkpt lat="-27.2744392" lon="151.2900641">
  <ele>343.01</ele>
  <time>2026-09-01T19:51:19Z</time>
  <course>10.79</course>
  <speed>0.022360679774997897</speed>
  <fix>3d</fix>
</trkpt>
<trkpt lat="-27.274439" lon="151.290064">
  <ele>343.1</ele>
  <time>2026-09-01T19:51:19Z</time>
  <course>270.0</course>
  <speed>0.0</speed>
  <fix>3d</fix>
</trkpt>
<trkpt lat="-27.2744392" lon="151.2900641">
  <ele>343.01</ele>
  <time>2026-09-01T19:51:19Z</time>
  <course>10.79</course>
  <speed>0.022360679774997897</speed>
  <fix>3d</fix>
</trkpt>
<trkpt lat="-27.274439" lon="151.290064">
  <ele>343.1</ele>
  <time>2026-09-01T19:51:19Z</time>
  <course>270.0</course>
  <speed>0.0</speed>
  <fix>3d</fix>
</trkpt>
<trkpt lat="-27.2744392" lon="151.2900641">
  <ele>343.01</ele>
  <time>2026-09-01T19:51:19Z</time>
  <course>10.79</course>
  <speed>0.022360679774997897</speed>
  <fix>3d</fix>
</trkpt>
<trkpt lat="-27.274439" lon="151.290064">
  <ele>343.1</ele>
  <time>2026-09-01T19:51:19Z</time>
  <course>270.0</course>
  <speed>0.0</speed>
  <fix>3d</fix>
</trkpt>
<trkpt lat="-27.2744392" lon="151.2900641">
  <ele>343.0</ele>
  <time>2026-09-01T19:51:19Z</time>
  <course>10.79</course>
  <speed>0.022360679774997897</speed>
  <fix>3d</fix>
</trkpt>
<trkpt lat="-27.274439" lon="151.290064">
  <ele>343.1</ele>
  <time>2026-09-01T19:51:19Z</time>
  <course>270.0</course>
  <speed>0.0</speed>
  <fix>3d</fix>
</trkpt>
<trkpt lat="-27.2744392" lon="151.2900641">
  <ele>343.0</ele>
  <time>2026-09-01T19:51:19Z</time>
  <course>10.79</course>
  <speed>0.022360679774997897</speed>
  <fix>3d</fix>
</trkpt>
<trkpt lat="-27.274439" lon="151.290064">
  <ele>343.1</ele>
  <time>2026-09-01T19:51:19Z</time>
  <course>270.0</course>
  <speed>0.0</speed>
  <fix>3d</fix>
</trkpt>
<trkpt lat="-27.2744392" lon="151.2900641">
  <ele>343.0</ele>
  <time>2026-09-01T19:51:19Z</time>
  <course>10.79</course>
  <speed>0.022360679774997897</speed>
  <fix>3d</fix>
</trkpt>
<trkpt lat="-27.274439" lon="151.290064">
  <ele>343.1</ele>
  <time>2026-09-01T19:51:19Z</time>
  <course>270.0</course>
  <speed>0.0</speed>
  <fix>3d</fix>
</trkpt>
<trkpt lat="-27.2744392" lon="151.2900641">
  <ele>343.0</ele>
  <time>2026-09-01T19:51:19Z</time>
  <course>10.79</course>
  <speed>0.022360679774997897</speed>
  <fix>3d</fix>
</trkpt>
<trkpt lat="-27.274439" lon="151.290064">
  <ele>343.1</ele>
  <time>2026-09-01T19:51:19Z</time>
  <course>270.0</course>
  <speed>0.0</speed>
  <fix>3d</fix>
</trkpt>
<trkpt lat="-27.2744392" lon="151.2900641">
  <ele>342.99</ele>
  <time>2026-09-01T19:51:19Z</time>
  <course>10.8</course>
  <speed>0.022360679774997897</speed>
  <fix>3d</fix>
</trkpt>
<trkpt lat="-27.274439" lon="151.290064">
  <ele>343.1</ele>
  <time>2026-09-01T19:51:19Z</time>
  <course>270.0</course>
  <speed>0.0</speed>
  <fix>3d</fix>
</trkpt>
<trkpt lat="-27.2744392" lon="151.2900641">
  <ele>342.99</ele>
  <time>2026-09-01T19:51:19Z</time>
  <course>10.8</course>
  <speed>0.022360679774997897</speed>
  <fix>3d</fix>
</trkpt>
<trkpt lat="-27.274439" lon="151.290064">
  <ele>343.1</ele>
  <time>2026-09-01T19:51:19Z</time>
  <course>270.0</course>
  <speed>0.0</speed>
  <fix>3d</fix>
</trkpt>
<trkpt lat="-27.2744392" lon="151.2900641">
  <ele>342.99</ele>
  <time>2026-09-01T19:51:19Z</time>
  <course>10.8</course>
  <speed>0.022360679774997897</speed>
  <fix>3d</fix>
</trkpt>
<trkpt lat="-27.274439" lon="151.290064">
  <ele>343.1</ele>
  <time>2026-09-01T19:51:19Z</time>
  <course>270.0</course>
  <speed>0.0</speed>
  <fix>3d</fix>
</trkpt>
<trkpt lat="-27.2744392" lon="151.2900641">
  <ele>342.99</ele>
  <time>2026-09-01T19:51:19Z</time>
  <course>10.8</course>
  <speed>0.022360679774997897</speed>
  <fix>3d</fix>
</trkpt>
<trkpt lat="-27.274439" lon="151.290064">
  <ele>343.1</ele>
  <time>2026-09-01T19:51:19Z</time>
  <course>270.0</course>
  <speed>0.0</speed>
  <fix>3d</fix>
</trkpt>
<trkpt lat="-27.2744392" lon="151.2900641">
  <ele>342.99</ele>
  <time>2026-09-01T19:51:19Z</time>
  <course>10.8</course>
  <speed>0.022360679774997897</speed>
  <fix>3d</fix>
</trkpt>
<trkpt lat="-27.274439" lon="151.290064">
  <ele>343.1</ele>
  <time>2026-09-01T19:51:19Z</time>
  <course>270.0</course>
  <speed>0.0</speed>
  <fix>3d</fix>
</trkpt>
<trkpt lat="-27.2744392" lon="151.2900641">
  <ele>342.99</ele>
  <time>2026-09-01T19:51:19Z</time>
  <course>10.8</course>
  <speed>0.022360679774997897</speed>
  <fix>3d</fix>
</trkpt>
<trkpt lat="-27.274439" lon="151.290064">
  <ele>343.1</ele>
  <time>2026-09-01T19:51:19Z</time>
  <course>270.0</course>
  <speed>0.0</speed>
  <fix>3d</fix>
</trkpt>
<trkpt lat="-27.2744392" lon="151.2900641">
  <ele>342.99</ele>
  <time>2026-09-01T19:51:19Z</time>
  <course>10.8</course>
  <speed>0.022360679774997897</speed>
  <fix>3d</fix>
</trkpt>
<trkpt lat="-27.274439" lon="151.290064">
  <ele>343.1</ele>
  <time>2026-09-01T19:51:19Z</time>
  <course>270.0</course>
  <speed>0.0</speed>
  <fix>3d</fix>
</trkpt>
<trkpt lat="-27.2744392" lon="151.2900641">
  <ele>342.98</ele>
  <time>2026-09-01T19:51:19Z</time>
  <course>10.8</course>
  <speed>0.022360679774997897</speed>
  <fix>3d</fix>
</trkpt>
<trkpt lat="-27.274439" lon="151.290064">
  <ele>343.1</ele>
  <time>2026-09-01T19:51:19Z</time>
  <course>270.0</course>
  <speed>0.0</speed>
  <fix>3d</fix>
</trkpt>
<trkpt lat="-27.2744392" lon="151.2900641">
  <ele>342.98</ele>
  <time>2026-09-01T19:51:19Z</time>
  <course>10.8</course>
  <speed>0.022360679774997897</speed>
  <fix>3d</fix>
</trkpt>
<trkpt lat="-27.274439" lon="151.290064">
  <ele>343.1</ele>
  <time>2026-09-01T19:51:19Z</time>
  <course>270.0</course>
  <speed>0.0</speed>
  <fix>3d</fix>
</trkpt>
<trkpt lat="-27.2744392" lon="151.2900641">
  <ele>342.98</ele>
  <time>2026-09-01T19:51:19Z</time>
  <course>10.8</course>
  <speed>0.022360679774997897</speed>
  <fix>3d</fix>
</trkpt>
<trkpt lat="-27.274439" lon="151.290064">
  <ele>343.1</ele>
  <time>2026-09-01T19:51:19Z</time>
  <course>270.0</course>
  <speed>0.0</speed>
  <fix>3d</fix>
</trkpt>
<trkpt lat="-27.2744392" lon="151.2900641">
  <ele>342.98</ele>
  <time>2026-09-01T19:51:19Z</time>
  <course>10.81</course>
  <speed>0.022360679774997897</speed>
  <fix>3d</fix>
</trkpt>
<trkpt lat="-27.274439" lon="151.290064">
  <ele>343.1</ele>
  <time>2026-09-01T19:51:19Z</time>
  <course>270.0</course>
  <speed>0.0</speed>
  <fix>3d</fix>
</trkpt>
<trkpt lat="-27.2744392" lon="151.2900641">
  <ele>342.98</ele>
  <time>2026-09-01T19:51:19Z</time>
  <course>10.81</course>
  <speed>0.022360679774997897</speed>
  <fix>3d</fix>
</trkpt>
<trkpt lat="-27.274439" lon="151.290064">
  <ele>343.1</ele>
  <time>2026-09-01T19:51:19Z</time>
  <course>270.0</course>
  <speed>0.0</speed>
  <fix>3d</fix>
</trkpt>
<trkpt lat="-27.2744392" lon="151.2900641">
  <ele>342.98</ele>
  <time>2026-09-01T19:51:19Z</time>
  <course>10.81</course>
  <speed>0.022360679774997897</speed>
  <fix>3d</fix>
</trkpt>
<trkpt lat="-27.274439" lon="151.290064">
  <ele>343.1</ele>
  <time>2026-09-01T19:51:19Z</time>
  <course>270.0</course>
  <speed>0.0</speed>
  <fix>3d</fix>
</trkpt>
<trkpt lat="-27.2744392" lon="151.2900641">
  <ele>342.98</ele>
  <time>2026-09-01T19:51:19Z</time>
  <course>10.81</course>
  <speed>0.022360679774997897</speed>
  <fix>3d</fix>
</trkpt>
<trkpt lat="-27.274439" lon="151.290064">
  <ele>343.1</ele>
  <time>2026-09-01T19:51:19Z</time>
  <course>270.0</course>
  <speed>0.0</speed>
  <fix>3d</fix>
</trkpt>
<trkpt lat="-27.2744392" lon="151.2900641">
  <ele>342.98</ele>
  <time>2026-09-01T19:51:19Z</time>
  <course>10.81</course>
  <speed>0.022360679774997897</speed>
  <fix>3d</fix>
</trkpt>
<trkpt lat="-27.274439" lon="151.290064">
  <ele>343.1</ele>
  <time>2026-09-01T19:51:19Z</time>
  <course>270.0</course>
  <speed>0.0</speed>
  <fix>3d</fix>
</trkpt>
<trkpt lat="-27.2744392" lon="151.2900641">
  <ele>342.98</ele>
  <time>2026-09-01T19:51:19Z</time>
  <course>10.81</course>
  <speed>0.022360679774997897</speed>
  <fix>3d</fix>
</trkpt>
<trkpt lat="-27.274439" lon="151.290064">
  <ele>343.1</ele>
  <time>2026-09-01T19:51:19Z</time>
  <course>270.0</course>
  <speed>0.0</speed>
  <fix>3d</fix>
</trkpt>
<trkpt lat="-27.2744392" lon="151.2900641">
  <ele>342.97</ele>
  <time>2026-09-01T19:51:19Z</time>
  <course>10.81</course>
  <speed>0.022360679774997897</speed>
  <fix>3d</fix>
</trkpt>
<trkpt lat="-27.274439" lon="151.290064">
  <ele>343.1</ele>
  <time>2026-09-01T19:51:19Z</time>
  <course>270.0</course>
  <speed>0.0</speed>
  <fix>3d</fix>
</trkpt>
<trkpt lat="-27.2744392" lon="151.2900641">
  <ele>343.09</ele>
  <time>2026-09-01T19:51:19Z</time>
  <course>10.81</course>
  <speed>0.022360679774997897</speed>
  <fix>3d</fix>
</trkpt>
<trkpt lat="-27.274439" lon="151.290064">
  <ele>343.1</ele>
  <time>2026-09-01T19:51:19Z</time>
  <course>270.0</course>
  <speed>0.0</speed>
  <fix>3d</fix>
</trkpt>
<trkpt lat="-27.2744392" lon="151.2900641">
  <ele>343.09</ele>
  <time>2026-09-01T19:51:19Z</time>
  <course>10.81</course>
  <speed>0.022360679774997897</speed>
  <fix>3d</fix>
</trkpt>
<trkpt lat="-27.274439" lon="151.290064">
  <ele>343.1</ele>
  <time>2026-09-01T19:51:19Z</time>
  <course>270.0</course>
  <speed>0.0</speed>
  <fix>3d</fix>
</trkpt>
<trkpt lat="-27.2744392" lon="151.2900641">
  <ele>343.09</ele>
  <time>2026-09-01T19:51:19Z</time>
  <course>10.81</course>
  <speed>0.022360679774997897</speed>
  <fix>3d</fix>
</trkpt>
<trkpt lat="-27.274439" lon="151.290064">
  <ele>343.1</ele>
  <time>2026-09-01T19:51:19Z</time>
  <course>270.0</course>
  <speed>0.0</speed>
  <fix>3d</fix>
</trkpt>
<trkpt lat="-27.2744392" lon="151.2900641">
  <ele>343.09</ele>
  <time>2026-09-01T19:51:20Z</time>
  <course>10.82</course>
  <speed>0.022360679774997897</speed>
  <fix>3d</fix>
</trkpt>
<trkpt lat="-27.274439" lon="151.290064">
  <ele>343.1</ele>
  <time>2026-09-01T19:51:20Z</time>
  <course>270.0</course>
  <speed>0.0</speed>
  <fix>3d</fix>
</trkpt>
<trkpt lat="-27.2744392" lon="151.2900641">
  <ele>343.08</ele>
  <time>2026-09-01T19:51:20Z</time>
  <course>10.82</course>
  <speed>0.022360679774997897</speed>
  <fix>3d</fix>
</trkpt>
<trkpt lat="-27.274439" lon="151.290064">
  <ele>343.1</ele>
  <time>2026-09-01T19:51:20Z</time>
  <course>270.0</course>
  <speed>0.0</speed>
  <fix>3d</fix>
</trkpt>
<trkpt lat="-27.2744392" lon="151.2900641">
  <ele>343.08</ele>
  <time>2026-09-01T19:51:20Z</time>
  <course>10.82</course>
  <speed>0.022360679774997897</speed>
  <fix>3d</fix>
</trkpt>
<trkpt lat="-27.274439" lon="151.290064">
  <ele>343.1</ele>
  <time>2026-09-01T19:51:20Z</time>
  <course>270.0</course>
  <speed>0.0</speed>
  <fix>3d</fix>
</trkpt>
<trkpt lat="-27.2744392" lon="151.2900641">
  <ele>343.07</ele>
  <time>2026-09-01T19:51:20Z</time>
  <course>10.82</course>
  <speed>0.022360679774997897</speed>
  <fix>3d</fix>
</trkpt>
<trkpt lat="-27.274439" lon="151.290064">
  <ele>343.1</ele>
  <time>2026-09-01T19:51:20Z</time>
  <course>270.0</course>
  <speed>0.0</speed>
  <fix>3d</fix>
</trkpt>
<trkpt lat="-27.2744392" lon="151.2900641">
  <ele>343.07</ele>
  <time>2026-09-01T19:51:20Z</time>
  <course>10.82</course>
  <speed>0.022360679774997897</speed>
  <fix>3d</fix>
</trkpt>
<trkpt lat="-27.274439" lon="151.290064">
  <ele>343.1</ele>
  <time>2026-09-01T19:51:20Z</time>
  <course>270.0</course>
  <speed>0.0</speed>
  <fix>3d</fix>
</trkpt>
<trkpt lat="-27.2744392" lon="151.2900641">
  <ele>343.06</ele>
  <time>2026-09-01T19:51:20Z</time>
  <course>10.82</course>
  <speed>0.022360679774997897</speed>
  <fix>3d</fix>
</trkpt>
<trkpt lat="-27.274439" lon="151.290064">
  <ele>343.1</ele>
  <time>2026-09-01T19:51:20Z</time>
  <course>270.0</course>
  <speed>0.0</speed>
  <fix>3d</fix>
</trkpt>
<trkpt lat="-27.2744392" lon="151.2900641">
  <ele>343.06</ele>
  <time>2026-09-01T19:51:20Z</time>
  <course>10.82</course>
  <speed>0.022360679774997897</speed>
  <fix>3d</fix>
</trkpt>
<trkpt lat="-27.274439" lon="151.290064">
  <ele>343.1</ele>
  <time>2026-09-01T19:51:20Z</time>
  <course>270.0</course>
  <speed>0.0</speed>
  <fix>3d</fix>
</trkpt>
<trkpt lat="-27.2744392" lon="151.2900641">
  <ele>343.05</ele>
  <time>2026-09-01T19:51:20Z</time>
  <course>10.82</course>
  <speed>0.022360679774997897</speed>
  <fix>3d</fix>
</trkpt>
<trkpt lat="-27.274439" lon="151.290064">
  <ele>343.1</ele>
  <time>2026-09-01T19:51:20Z</time>
  <course>270.0</course>
  <speed>0.0</speed>
  <fix>3d</fix>
</trkpt>
<trkpt lat="-27.2744392" lon="151.2900641">
  <ele>343.05</ele>
  <time>2026-09-01T19:51:20Z</time>
  <course>10.82</course>
  <speed>0.022360679774997897</speed>
  <fix>3d</fix>
</trkpt>
<trkpt lat="-27.274439" lon="151.290064">
  <ele>343.1</ele>
  <time>2026-09-01T19:51:20Z</time>
  <course>270.0</course>
  <speed>0.0</speed>
  <fix>3d</fix>
</trkpt>
<trkpt lat="-27.2744392" lon="151.2900641">
  <ele>343.05</ele>
  <time>2026-09-01T19:51:20Z</time>
  <course>10.83</course>
  <speed>0.022360679774997897</speed>
  <fix>3d</fix>
</trkpt>
<trkpt lat="-27.274439" lon="151.290064">
  <ele>343.1</ele>
  <time>2026-09-01T19:51:20Z</time>
  <course>270.0</course>
  <speed>0.0</speed>
  <fix>3d</fix>
</trkpt>
<trkpt lat="-27.2744392" lon="151.2900641">
  <ele>343.05</ele>
  <time>2026-09-01T19:51:20Z</time>
  <course>10.83</course>
  <speed>0.022360679774997897</speed>
  <fix>3d</fix>
</trkpt>
<trkpt lat="-27.274439" lon="151.290064">
  <ele>343.1</ele>
  <time>2026-09-01T19:51:20Z</time>
  <course>270.0</course>
  <speed>0.0</speed>
  <fix>3d</fix>
</trkpt>
<trkpt lat="-27.2744392" lon="151.2900641">
  <ele>343.04</ele>
  <time>2026-09-01T19:51:20Z</time>
  <course>10.83</course>
  <speed>0.022360679774997897</speed>
  <fix>3d</fix>
</trkpt>
<trkpt lat="-27.274439" lon="151.290064">
  <ele>343.1</ele>
  <time>2026-09-01T19:51:20Z</time>
  <course>270.0</course>
  <speed>0.0</speed>
  <fix>3d</fix>
</trkpt>
<trkpt lat="-27.2744392" lon="151.2900641">
  <ele>343.04</ele>
  <time>2026-09-01T19:51:20Z</time>
  <course>10.83</course>
  <speed>0.022360679774997897</speed>
  <fix>3d</fix>
</trkpt>
<trkpt lat="-27.274439" lon="151.290064">
  <ele>343.1</ele>
  <time>2026-09-01T19:51:20Z</time>
  <course>270.0</course>
  <speed>0.0</speed>
  <fix>3d</fix>
</trkpt>
<trkpt lat="-27.2744392" lon="151.2900641">
  <ele>343.04</ele>
  <time>2026-09-01T19:51:20Z</time>
  <course>10.83</course>
  <speed>0.022360679774997897</speed>
  <fix>3d</fix>
</trkpt>
<trkpt lat="-27.274439" lon="151.290064">
  <ele>343.1</ele>
  <time>2026-09-01T19:51:20Z</time>
  <course>270.0</course>
  <speed>0.0</speed>
  <fix>3d</fix>
</trkpt>
<trkpt lat="-27.2744392" lon="151.2900641">
  <ele>343.03</ele>
  <time>2026-09-01T19:51:20Z</time>
  <course>10.83</course>
  <speed>0.022360679774997897</speed>
  <fix>3d</fix>
</trkpt>
<trkpt lat="-27.274439" lon="151.290064">
  <ele>343.1</ele>
  <time>2026-09-01T19:51:20Z</time>
  <course>270.0</course>
  <speed>0.0</speed>
  <fix>3d</fix>
</trkpt>
<trkpt lat="-27.2744392" lon="151.2900641">
  <ele>343.03</ele>
  <time>2026-09-01T19:51:20Z</time>
  <course>10.83</course>
  <speed>0.022360679774997897</speed>
  <fix>3d</fix>
</trkpt>
<trkpt lat="-27.274439" lon="151.290064">
  <ele>343.1</ele>
  <time>2026-09-01T19:51:20Z</time>
  <course>270.0</course>
  <speed>0.0</speed>
  <fix>3d</fix>
</trkpt>
<trkpt lat="-27.2744392" lon="151.2900641">
  <ele>343.02</ele>
  <time>2026-09-01T19:51:20Z</time>
  <course>10.83</course>
  <speed>0.022360679774997897</speed>
  <fix>3d</fix>
</trkpt>
<trkpt lat="-27.274439" lon="151.290064">
  <ele>343.1</ele>
  <time>2026-09-01T19:51:20Z</time>
  <course>270.0</course>
  <speed>0.0</speed>
  <fix>3d</fix>
</trkpt>
<trkpt lat="-27.2744392" lon="151.2900641">
  <ele>343.02</ele>
  <time>2026-09-01T19:51:20Z</time>
  <course>10.83</course>
  <speed>0.022360679774997897</speed>
  <fix>3d</fix>
</trkpt>
<trkpt lat="-27.274439" lon="151.290064">
  <ele>343.1</ele>
  <time>2026-09-01T19:51:20Z</time>
  <course>270.0</course>
  <speed>0.0</speed>
  <fix>3d</fix>
</trkpt>
<trkpt lat="-27.2744392" lon="151.2900641">
  <ele>343.02</ele>
  <time>2026-09-01T19:51:20Z</time>
  <course>10.83</course>
  <speed>0.022360679774997897</speed>
  <fix>3d</fix>
</trkpt>
<trkpt lat="-27.274439" lon="151.290064">
  <ele>343.1</ele>
  <time>2026-09-01T19:51:20Z</time>
  <course>270.0</course>
  <speed>0.0</speed>
  <fix>3d</fix>
</trkpt>
<trkpt lat="-27.2744392" lon="151.2900641">
  <ele>343.01</ele>
  <time>2026-09-01T19:51:20Z</time>
  <course>10.84</course>
  <speed>0.022360679774997897</speed>
  <fix>3d</fix>
</trkpt>
<trkpt lat="-27.274439" lon="151.290064">
  <ele>343.1</ele>
  <time>2026-09-01T19:51:20Z</time>
  <course>270.0</course>
  <speed>0.0</speed>
  <fix>3d</fix>
</trkpt>
<trkpt lat="-27.2744392" lon="151.2900641">
  <ele>343.0</ele>
  <time>2026-09-01T19:51:20Z</time>
  <course>10.84</course>
  <speed>0.022360679774997897</speed>
  <fix>3d</fix>
</trkpt>
<trkpt lat="-27.274439" lon="151.290064">
  <ele>343.1</ele>
  <time>2026-09-01T19:51:20Z</time>
  <course>270.0</course>
  <speed>0.0</speed>
  <fix>3d</fix>
</trkpt>
<trkpt lat="-27.2744392" lon="151.2900641">
  <ele>343.0</ele>
  <time>2026-09-01T19:51:20Z</time>
  <course>10.84</course>
  <speed>0.022360679774997897</speed>
  <fix>3d</fix>
</trkpt>
<trkpt lat="-27.274439" lon="151.290064">
  <ele>343.1</ele>
  <time>2026-09-01T19:51:20Z</time>
  <course>270.0</course>
  <speed>0.0</speed>
  <fix>3d</fix>
</trkpt>
<trkpt lat="-27.2744392" lon="151.2900641">
  <ele>343.0</ele>
  <time>2026-09-01T19:51:20Z</time>
  <course>10.84</course>
  <speed>0.022360679774997897</speed>
  <fix>3d</fix>
</trkpt>
<trkpt lat="-27.274439" lon="151.290064">
  <ele>343.1</ele>
  <time>2026-09-01T19:51:20Z</time>
  <course>270.0</course>
  <speed>0.0</speed>
  <fix>3d</fix>
</trkpt>
<trkpt lat="-27.2744392" lon="151.2900641">
  <ele>342.99</ele>
  <time>2026-09-01T19:51:20Z</time>
  <course>10.84</course>
  <speed>0.022360679774997897</speed>
  <fix>3d</fix>
</trkpt>
<trkpt lat="-27.274439" lon="151.290064">
  <ele>343.1</ele>
  <time>2026-09-01T19:51:20Z</time>
  <course>270.0</course>
  <speed>0.0</speed>
  <fix>3d</fix>
</trkpt>
<trkpt lat="-27.2744392" lon="151.2900641">
  <ele>342.99</ele>
  <time>2026-09-01T19:51:20Z</time>
  <course>10.84</course>
  <speed>0.022360679774997897</speed>
  <fix>3d</fix>
</trkpt>
<trkpt lat="-27.274439" lon="151.290064">
  <ele>343.1</ele>
  <time>2026-09-01T19:51:20Z</time>
  <course>270.0</course>
  <speed>0.0</speed>
  <fix>3d</fix>
</trkpt>
<trkpt lat="-27.2744392" lon="151.2900641">
  <ele>342.99</ele>
  <time>2026-09-01T19:51:20Z</time>
  <course>10.84</course>
  <speed>0.022360679774997897</speed>
  <fix>3d</fix>
</trkpt>
<trkpt lat="-27.274439" lon="151.290064">
  <ele>343.1</ele>
  <time>2026-09-01T19:51:20Z</time>
  <course>270.0</course>
  <speed>0.0</speed>
  <fix>3d</fix>
</trkpt>
<trkpt lat="-27.2744392" lon="151.2900641">
  <ele>342.98</ele>
  <time>2026-09-01T19:51:20Z</time>
  <course>10.84</course>
  <speed>0.022360679774997897</speed>
  <fix>3d</fix>
</trkpt>
<trkpt lat="-27.274439" lon="151.290064">
  <ele>343.1</ele>
  <time>2026-09-01T19:51:20Z</time>
  <course>270.0</course>
  <speed>0.0</speed>
  <fix>3d</fix>
</trkpt>
<trkpt lat="-27.2744392" lon="151.2900641">
  <ele>342.98</ele>
  <time>2026-09-01T19:51:20Z</time>
  <course>10.84</course>
  <speed>0.022360679774997897</speed>
  <fix>3d</fix>
</trkpt>
<trkpt lat="-27.274439" lon="151.290064">
  <ele>343.1</ele>
  <time>2026-09-01T19:51:20Z</time>
  <course>270.0</course>
  <speed>0.0</speed>
  <fix>3d</fix>
</trkpt>
<trkpt lat="-27.2744392" lon="151.2900641">
  <ele>342.98</ele>
  <time>2026-09-01T19:51:20Z</time>
  <course>10.84</course>
  <speed>0.022360679774997897</speed>
  <fix>3d</fix>
</trkpt>
<trkpt lat="-27.274439" lon="151.290064">
  <ele>343.1</ele>
  <time>2026-09-01T19:51:20Z</time>
  <course>270.0</course>
  <speed>0.0</speed>
  <fix>3d</fix>
</trkpt>
<trkpt lat="-27.2744392" lon="151.2900641">
  <ele>342.97</ele>
  <time>2026-09-01T19:51:20Z</time>
  <course>10.85</course>
  <speed>0.022360679774997897</speed>
  <fix>3d</fix>
</trkpt>
<trkpt lat="-27.274439" lon="151.290064">
  <ele>343.1</ele>
  <time>2026-09-01T19:51:20Z</time>
  <course>270.0</course>
  <speed>0.0</speed>
  <fix>3d</fix>
</trkpt>
<trkpt lat="-27.2744392" lon="151.2900641">
  <ele>342.97</ele>
  <time>2026-09-01T19:51:20Z</time>
  <course>10.85</course>
  <speed>0.022360679774997897</speed>
  <fix>3d</fix>
</trkpt>
<trkpt lat="-27.274439" lon="151.290064">
  <ele>343.1</ele>
  <time>2026-09-01T19:51:20Z</time>
  <course>270.0</course>
  <speed>0.0</speed>
  <fix>3d</fix>
</trkpt>
<trkpt lat="-27.2744392" lon="151.2900641">
  <ele>342.96</ele>
  <time>2026-09-01T19:51:20Z</time>
  <course>10.85</course>
  <speed>0.022360679774997897</speed>
  <fix>3d</fix>
</trkpt>
<trkpt lat="-27.274439" lon="151.290064">
  <ele>343.1</ele>
  <time>2026-09-01T19:51:20Z</time>
  <course>270.0</course>
  <speed>0.0</speed>
  <fix>3d</fix>
</trkpt>
<trkpt lat="-27.2744392" lon="151.2900641">
  <ele>342.96</ele>
  <time>2026-09-01T19:51:20Z</time>
  <course>10.85</course>
  <speed>0.022360679774997897</speed>
  <fix>3d</fix>
</trkpt>
<trkpt lat="-27.274439" lon="151.290064">
  <ele>343.1</ele>
  <time>2026-09-01T19:51:20Z</time>
  <course>270.0</course>
  <speed>0.0</speed>
  <fix>3d</fix>
</trkpt>
<trkpt lat="-27.2744392" lon="151.2900641">
  <ele>342.95</ele>
  <time>2026-09-01T19:51:20Z</time>
  <course>10.85</course>
  <speed>0.022360679774997897</speed>
  <fix>3d</fix>
</trkpt>
<trkpt lat="-27.274439" lon="151.290064">
  <ele>343.1</ele>
  <time>2026-09-01T19:51:20Z</time>
  <course>270.0</course>
  <speed>0.0</speed>
  <fix>3d</fix>
</trkpt>
<trkpt lat="-27.2744392" lon="151.2900641">
  <ele>342.95</ele>
  <time>2026-09-01T19:51:20Z</time>
  <course>10.85</course>
  <speed>0.022360679774997897</speed>
  <fix>3d</fix>
</trkpt>
<trkpt lat="-27.274439" lon="151.290064">
  <ele>343.1</ele>
  <time>2026-09-01T19:51:20Z</time>
  <course>270.0</course>
  <speed>0.0</speed>
  <fix>3d</fix>
</trkpt>
<trkpt lat="-27.2744392" lon="151.2900641">
  <ele>342.94</ele>
  <time>2026-09-01T19:51:20Z</time>
  <course>10.85</course>
  <speed>0.022360679774997897</speed>
  <fix>3d</fix>
</trkpt>
<trkpt lat="-27.274439" lon="151.290064">
  <ele>343.1</ele>
  <time>2026-09-01T19:51:20Z</time>
  <course>270.0</course>
  <speed>0.0</speed>
  <fix>3d</fix>
</trkpt>
<trkpt lat="-27.2744392" lon="151.2900641">
  <ele>342.94</ele>
  <time>2026-09-01T19:51:20Z</time>
  <course>10.85</course>
  <speed>0.022360679774997897</speed>
  <fix>3d</fix>
</trkpt>
<trkpt lat="-27.274439" lon="151.290064">
  <ele>343.1</ele>
  <time>2026-09-01T19:51:20Z</time>
  <course>270.0</course>
  <speed>0.0</speed>
  <fix>3d</fix>
</trkpt>
<trkpt lat="-27.2744392" lon="151.2900641">
  <ele>342.94</ele>
  <time>2026-09-01T19:51:20Z</time>
  <course>10.85</course>
  <speed>0.022360679774997897</speed>
  <fix>3d</fix>
</trkpt>
<trkpt lat="-27.274439" lon="151.290064">
  <ele>343.1</ele>
  <time>2026-09-01T19:51:20Z</time>
  <course>270.0</course>
  <speed>0.0</speed>
  <fix>3d</fix>
</trkpt>
<trkpt lat="-27.2744392" lon="151.2900641">
  <ele>342.94</ele>
  <time>2026-09-01T19:51:20Z</time>
  <course>10.85</course>
  <speed>0.022360679774997897</speed>
  <fix>3d</fix>
</trkpt>
<trkpt lat="-27.274439" lon="151.290064">
  <ele>343.1</ele>
  <time>2026-09-01T19:51:20Z</time>
  <course>270.0</course>
  <speed>0.0</speed>
  <fix>3d</fix>
</trkpt>
<trkpt lat="-27.2744392" lon="151.2900641">
  <ele>342.94</ele>
  <time>2026-09-01T19:51:20Z</time>
  <course>10.86</course>
  <speed>0.022360679774997897</speed>
  <fix>3d</fix>
</trkpt>
<trkpt lat="-27.274439" lon="151.290064">
  <ele>343.1</ele>
  <time>2026-09-01T19:51:20Z</time>
  <course>270.0</course>
  <speed>0.0</speed>
  <fix>3d</fix>
</trkpt>
<trkpt lat="-27.2744392" lon="151.2900641">
  <ele>342.94</ele>
  <time>2026-09-01T19:51:20Z</time>
  <course>10.86</course>
  <speed>0.022360679774997897</speed>
  <fix>3d</fix>
</trkpt>
<trkpt lat="-27.274439" lon="151.290064">
  <ele>343.1</ele>
  <time>2026-09-01T19:51:20Z</time>
  <course>270.0</course>
  <speed>0.0</speed>
  <fix>3d</fix>
</trkpt>
<trkpt lat="-27.2744392" lon="151.2900641">
  <ele>342.94</ele>
  <time>2026-09-01T19:51:20Z</time>
  <course>10.86</course>
  <speed>0.022360679774997897</speed>
  <fix>3d</fix>
</trkpt>
<trkpt lat="-27.274439" lon="151.290064">
  <ele>343.1</ele>
  <time>2026-09-01T19:51:20Z</time>
  <course>270.0</course>
  <speed>0.0</speed>
  <fix>3d</fix>
</trkpt>
<trkpt lat="-27.2744392" lon="151.2900641">
  <ele>342.94</ele>
  <time>2026-09-01T19:51:20Z</time>
  <course>10.86</course>
  <speed>0.022360679774997897</speed>
  <fix>3d</fix>
</trkpt>
<trkpt lat="-27.274439" lon="151.290064">
  <ele>343.1</ele>
  <time>2026-09-01T19:51:20Z</time>
  <course>270.0</course>
  <speed>0.0</speed>
  <fix>3d</fix>
</trkpt>
<trkpt lat="-27.2744392" lon="151.2900641">
  <ele>342.94</ele>
  <time>2026-09-01T19:51:20Z</time>
  <course>10.86</course>
  <speed>0.022360679774997897</speed>
  <fix>3d</fix>
</trkpt>
<trkpt lat="-27.274439" lon="151.290064">
  <ele>343.1</ele>
  <time>2026-09-01T19:51:20Z</time>
  <course>270.0</course>
  <speed>0.0</speed>
  <fix>3d</fix>
</trkpt>
<trkpt lat="-27.2744392" lon="151.2900641">
  <ele>342.94</ele>
  <time>2026-09-01T19:51:20Z</time>
  <course>10.86</course>
  <speed>0.022360679774997897</speed>
  <fix>3d</fix>
</trkpt>
<trkpt lat="-27.274439" lon="151.290064">
  <ele>343.1</ele>
  <time>2026-09-01T19:51:20Z</time>
  <course>270.0</course>
  <speed>0.0</speed>
  <fix>3d</fix>
</trkpt>
<trkpt lat="-27.2744392" lon="151.2900641">
  <ele>342.93</ele>
  <time>2026-09-01T19:51:20Z</time>
  <course>10.86</course>
  <speed>0.022360679774997897</speed>
  <fix>3d</fix>
</trkpt>
<trkpt lat="-27.274439" lon="151.290064">
  <ele>343.1</ele>
  <time>2026-09-01T19:51:20Z</time>
  <course>270.0</course>
  <speed>0.0</speed>
  <fix>3d</fix>
</trkpt>
<trkpt lat="-27.2744392" lon="151.2900641">
  <ele>342.93</ele>
  <time>2026-09-01T19:51:20Z</time>
  <course>10.86</course>
  <speed>0.022360679774997897</speed>
  <fix>3d</fix>
</trkpt>
<trkpt lat="-27.274439" lon="151.290064">
  <ele>343.1</ele>
  <time>2026-09-01T19:51:20Z</time>
  <course>270.0</course>
  <speed>0.0</speed>
  <fix>3d</fix>
</trkpt>
<trkpt lat="-27.2744392" lon="151.2900641">
  <ele>342.93</ele>
  <time>2026-09-01T19:51:20Z</time>
  <course>10.86</course>
  <speed>0.022360679774997897</speed>
  <fix>3d</fix>
</trkpt>
<trkpt lat="-27.274439" lon="151.290064">
  <ele>343.1</ele>
  <time>2026-09-01T19:51:20Z</time>
  <course>270.0</course>
  <speed>0.0</speed>
  <fix>3d</fix>
</trkpt>
<trkpt lat="-27.2744392" lon="151.2900641">
  <ele>342.93</ele>
  <time>2026-09-01T19:51:20Z</time>
  <course>10.86</course>
  <speed>0.022360679774997897</speed>
  <fix>3d</fix>
</trkpt>
<trkpt lat="-27.274439" lon="151.290064">
  <ele>343.1</ele>
  <time>2026-09-01T19:51:20Z</time>
  <course>270.0</course>
  <speed>0.0</speed>
  <fix>3d</fix>
</trkpt>
<trkpt lat="-27.2744392" lon="151.2900641">
  <ele>342.93</ele>
  <time>2026-09-01T19:51:20Z</time>
  <course>10.87</course>
  <speed>0.022360679774997897</speed>
  <fix>3d</fix>
</trkpt>
<trkpt lat="-27.274439" lon="151.290064">
  <ele>343.1</ele>
  <time>2026-09-01T19:51:20Z</time>
  <course>270.0</course>
  <speed>0.0</speed>
  <fix>3d</fix>
</trkpt>
<trkpt lat="-27.2744392" lon="151.2900641">
  <ele>342.93</ele>
  <time>2026-09-01T19:51:20Z</time>
  <course>10.87</course>
  <speed>0.022360679774997897</speed>
  <fix>3d</fix>
</trkpt>
<trkpt lat="-27.274439" lon="151.290064">
  <ele>343.1</ele>
  <time>2026-09-01T19:51:20Z</time>
  <course>270.0</course>
  <speed>0.0</speed>
  <fix>3d</fix>
</trkpt>
<trkpt lat="-27.2744392" lon="151.2900641">
  <ele>342.93</ele>
  <time>2026-09-01T19:51:20Z</time>
  <course>10.87</course>
  <speed>0.022360679774997897</speed>
  <fix>3d</fix>
</trkpt>
<trkpt lat="-27.274439" lon="151.290064">
  <ele>343.1</ele>
  <time>2026-09-01T19:51:20Z</time>
  <course>270.0</course>
  <speed>0.0</speed>
  <fix>3d</fix>
</trkpt>
<trkpt lat="-27.2744392" lon="151.2900641">
  <ele>342.93</ele>
  <time>2026-09-01T19:51:20Z</time>
  <course>10.87</course>
  <speed>0.022360679774997897</speed>
  <fix>3d</fix>
</trkpt>
<trkpt lat="-27.274439" lon="151.290064">
  <ele>343.1</ele>
  <time>2026-09-01T19:51:20Z</time>
  <course>270.0</course>
  <speed>0.0</speed>
  <fix>3d</fix>
</trkpt>
<trkpt lat="-27.2744392" lon="151.2900641">
  <ele>342.93</ele>
  <time>2026-09-01T19:51:20Z</time>
  <course>10.87</course>
  <speed>0.022360679774997897</speed>
  <fix>3d</fix>
</trkpt>
<trkpt lat="-27.274439" lon="151.290064">
  <ele>343.1</ele>
  <time>2026-09-01T19:51:20Z</time>
  <course>270.0</course>
  <speed>0.0</speed>
  <fix>3d</fix>
</trkpt>
<trkpt lat="-27.2744392" lon="151.2900641">
  <ele>342.93</ele>
  <time>2026-09-01T19:51:20Z</time>
  <course>10.87</course>
  <speed>0.022360679774997897</speed>
  <fix>3d</fix>
</trkpt>
<trkpt lat="-27.274439" lon="151.290064">
  <ele>343.1</ele>
  <time>2026-09-01T19:51:20Z</time>
  <course>270.0</course>
  <speed>0.0</speed>
  <fix>3d</fix>
</trkpt>
<trkpt lat="-27.2744392" lon="151.2900641">
  <ele>342.93</ele>
  <time>2026-09-01T19:51:20Z</time>
  <course>10.87</course>
  <speed>0.022360679774997897</speed>
  <fix>3d</fix>
</trkpt>
<trkpt lat="-27.274439" lon="151.290064">
  <ele>343.1</ele>
  <time>2026-09-01T19:51:20Z</time>
  <course>270.0</course>
  <speed>0.0</speed>
  <fix>3d</fix>
</trkpt>
<trkpt lat="-27.2744392" lon="151.2900641">
  <ele>342.93</ele>
  <time>2026-09-01T19:51:20Z</time>
  <course>10.87</course>
  <speed>0.022360679774997897</speed>
  <fix>3d</fix>
</trkpt>
<trkpt lat="-27.274439" lon="151.290064">
  <ele>343.1</ele>
  <time>2026-09-01T19:51:20Z</time>
  <course>270.0</course>
  <speed>0.0</speed>
  <fix>3d</fix>
</trkpt>
<trkpt lat="-27.2744392" lon="151.2900641">
  <ele>343.09</ele>
  <time>2026-09-01T19:51:20Z</time>
  <course>10.87</course>
  <speed>0.022360679774997897</speed>
  <fix>3d</fix>
</trkpt>
<trkpt lat="-27.274439" lon="151.290064">
  <ele>343.1</ele>
  <time>2026-09-01T19:51:20Z</time>
  <course>270.0</course>
  <speed>0.0</speed>
  <fix>3d</fix>
</trkpt>
<trkpt lat="-27.2744392" lon="151.2900641">
  <ele>343.09</ele>
  <time>2026-09-01T19:51:20Z</time>
  <course>10.87</course>
  <speed>0.022360679774997897</speed>
  <fix>3d</fix>
</trkpt>
<trkpt lat="-27.274439" lon="151.290064">
  <ele>343.1</ele>
  <time>2026-09-01T19:51:20Z</time>
  <course>270.0</course>
  <speed>0.0</speed>
  <fix>3d</fix>
</trkpt>
<trkpt lat="-27.2744392" lon="151.2900641">
  <ele>343.09</ele>
  <time>2026-09-01T19:51:20Z</time>
  <course>10.88</course>
  <speed>0.022360679774997897</speed>
  <fix>3d</fix>
</trkpt>
<trkpt lat="-27.274439" lon="151.290064">
  <ele>343.1</ele>
  <time>2026-09-01T19:51:20Z</time>
  <course>270.0</course>
  <speed>0.0</speed>
  <fix>3d</fix>
</trkpt>
<trkpt lat="-27.2744392" lon="151.2900641">
  <ele>343.09</ele>
  <time>2026-09-01T19:51:20Z</time>
  <course>10.88</course>
  <speed>0.022360679774997897</speed>
  <fix>3d</fix>
</trkpt>
<trkpt lat="-27.274439" lon="151.290064">
  <ele>343.1</ele>
  <time>2026-09-01T19:51:20Z</time>
  <course>270.0</course>
  <speed>0.0</speed>
  <fix>3d</fix>
</trkpt>
<trkpt lat="-27.2744392" lon="151.2900641">
  <ele>343.08</ele>
  <time>2026-09-01T19:51:20Z</time>
  <course>10.88</course>
  <speed>0.022360679774997897</speed>
  <fix>3d</fix>
</trkpt>
<trkpt lat="-27.274439" lon="151.290064">
  <ele>343.1</ele>
  <time>2026-09-01T19:51:20Z</time>
  <course>270.0</course>
  <speed>0.0</speed>
  <fix>3d</fix>
</trkpt>
<trkpt lat="-27.2744392" lon="151.2900641">
  <ele>343.08</ele>
  <time>2026-09-01T19:51:20Z</time>
  <course>10.88</course>
  <speed>0.022360679774997897</speed>
  <fix>3d</fix>
</trkpt>
<trkpt lat="-27.274439" lon="151.290064">
  <ele>343.1</ele>
  <time>2026-09-01T19:51:20Z</time>
  <course>270.0</course>
  <speed>0.0</speed>
  <fix>3d</fix>
</trkpt>
<trkpt lat="-27.2744392" lon="151.2900641">
  <ele>343.08</ele>
  <time>2026-09-01T19:51:20Z</time>
  <course>10.88</course>
  <speed>0.022360679774997897</speed>
  <fix>3d</fix>
</trkpt>
<trkpt lat="-27.274439" lon="151.290064">
  <ele>343.1</ele>
  <time>2026-09-01T19:51:20Z</time>
  <course>270.0</course>
  <speed>0.0</speed>
  <fix>3d</fix>
</trkpt>
<trkpt lat="-27.2744392" lon="151.2900641">
  <ele>343.07</ele>
  <time>2026-09-01T19:51:20Z</time>
  <course>10.88</course>
  <speed>0.022360679774997897</speed>
  <fix>3d</fix>
</trkpt>
<trkpt lat="-27.274439" lon="151.290064">
  <ele>343.1</ele>
  <time>2026-09-01T19:51:20Z</time>
  <course>270.0</course>
  <speed>0.0</speed>
  <fix>3d</fix>
</trkpt>
<trkpt lat="-27.2744392" lon="151.2900641">
  <ele>343.07</ele>
  <time>2026-09-01T19:51:20Z</time>
  <course>10.88</course>
  <speed>0.022360679774997897</speed>
  <fix>3d</fix>
</trkpt>
<trkpt lat="-27.274439" lon="151.290064">
  <ele>343.1</ele>
  <time>2026-09-01T19:51:20Z</time>
  <course>270.0</course>
  <speed>0.0</speed>
  <fix>3d</fix>
</trkpt>
<trkpt lat="-27.2744392" lon="151.2900641">
  <ele>343.07</ele>
  <time>2026-09-01T19:51:20Z</time>
  <course>10.88</course>
  <speed>0.022360679774997897</speed>
  <fix>3d</fix>
</trkpt>
<trkpt lat="-27.274439" lon="151.290064">
  <ele>343.1</ele>
  <time>2026-09-01T19:51:20Z</time>
  <course>270.0</course>
  <speed>0.0</speed>
  <fix>3d</fix>
</trkpt>
<trkpt lat="-27.2744392" lon="151.2900641">
  <ele>343.07</ele>
  <time>2026-09-01T19:51:20Z</time>
  <course>10.88</course>
  <speed>0.022360679774997897</speed>
  <fix>3d</fix>
</trkpt>
<trkpt lat="-27.274439" lon="151.290064">
  <ele>343.1</ele>
  <time>2026-09-01T19:51:20Z</time>
  <course>270.0</course>
  <speed>0.0</speed>
  <fix>3d</fix>
</trkpt>
<trkpt lat="-27.2744392" lon="151.2900641">
  <ele>343.06</ele>
  <time>2026-09-01T19:51:20Z</time>
  <course>10.89</course>
  <speed>0.022360679774997897</speed>
  <fix>3d</fix>
</trkpt>
<trkpt lat="-27.274439" lon="151.290064">
  <ele>343.1</ele>
  <time>2026-09-01T19:51:20Z</time>
  <course>270.0</course>
  <speed>0.0</speed>
  <fix>3d</fix>
</trkpt>
<trkpt lat="-27.2744392" lon="151.2900641">
  <ele>343.06</ele>
  <time>2026-09-01T19:51:20Z</time>
  <course>10.89</course>
  <speed>0.022360679774997897</speed>
  <fix>3d</fix>
</trkpt>
<trkpt lat="-27.274439" lon="151.290064">
  <ele>343.1</ele>
  <time>2026-09-01T19:51:20Z</time>
  <course>270.0</course>
  <speed>0.0</speed>
  <fix>3d</fix>
</trkpt>
<trkpt lat="-27.2744392" lon="151.2900641">
  <ele>343.06</ele>
  <time>2026-09-01T19:51:20Z</time>
  <course>10.89</course>
  <speed>0.022360679774997897</speed>
  <fix>3d</fix>
</trkpt>
<trkpt lat="-27.274439" lon="151.290064">
  <ele>343.1</ele>
  <time>2026-09-01T19:51:20Z</time>
  <course>270.0</course>
  <speed>0.0</speed>
  <fix>3d</fix>
</trkpt>
<trkpt lat="-27.2744392" lon="151.2900641">
  <ele>343.05</ele>
  <time>2026-09-01T19:51:20Z</time>
  <course>10.89</course>
  <speed>0.022360679774997897</speed>
  <fix>3d</fix>
</trkpt>
<trkpt lat="-27.274439" lon="151.290064">
  <ele>343.1</ele>
  <time>2026-09-01T19:51:20Z</time>
  <course>270.0</course>
  <speed>0.0</speed>
  <fix>3d</fix>
</trkpt>
<trkpt lat="-27.2744392" lon="151.2900641">
  <ele>343.05</ele>
  <time>2026-09-01T19:51:20Z</time>
  <course>10.89</course>
  <speed>0.022360679774997897</speed>
  <fix>3d</fix>
</trkpt>
<trkpt lat="-27.274439" lon="151.290064">
  <ele>343.1</ele>
  <time>2026-09-01T19:51:20Z</time>
  <course>270.0</course>
  <speed>0.0</speed>
  <fix>3d</fix>
</trkpt>
<trkpt lat="-27.2744392" lon="151.2900641">
  <ele>343.04</ele>
  <time>2026-09-01T19:51:20Z</time>
  <course>10.89</course>
  <speed>0.022360679774997897</speed>
  <fix>3d</fix>
</trkpt>
<trkpt lat="-27.274439" lon="151.290064">
  <ele>343.1</ele>
  <time>2026-09-01T19:51:20Z</time>
  <course>270.0</course>
  <speed>0.0</speed>
  <fix>3d</fix>
</trkpt>
<trkpt lat="-27.2744392" lon="151.2900641">
  <ele>343.04</ele>
  <time>2026-09-01T19:51:20Z</time>
  <course>10.89</course>
  <speed>0.022360679774997897</speed>
  <fix>3d</fix>
</trkpt>
<trkpt lat="-27.274439" lon="151.290064">
  <ele>343.1</ele>
  <time>2026-09-01T19:51:20Z</time>
  <course>270.0</course>
  <speed>0.0</speed>
  <fix>3d</fix>
</trkpt>
<trkpt lat="-27.2744392" lon="151.2900641">
  <ele>343.04</ele>
  <time>2026-09-01T19:51:20Z</time>
  <course>10.89</course>
  <speed>0.022360679774997897</speed>
  <fix>3d</fix>
</trkpt>
<trkpt lat="-27.274439" lon="151.290064">
  <ele>343.1</ele>
  <time>2026-09-01T19:51:20Z</time>
  <course>270.0</course>
  <speed>0.0</speed>
  <fix>3d</fix>
</trkpt>
<trkpt lat="-27.2744392" lon="151.2900641">
  <ele>343.03</ele>
  <time>2026-09-01T19:51:20Z</time>
  <course>10.89</course>
  <speed>0.022360679774997897</speed>
  <fix>3d</fix>
</trkpt>
<trkpt lat="-27.274439" lon="151.290064">
  <ele>343.1</ele>
  <time>2026-09-01T19:51:20Z</time>
  <course>270.0</course>
  <speed>0.0</speed>
  <fix>3d</fix>
</trkpt>
<trkpt lat="-27.2744392" lon="151.2900641">
  <ele>343.03</ele>
  <time>2026-09-01T19:51:20Z</time>
  <course>10.9</course>
  <speed>0.022360679774997897</speed>
  <fix>3d</fix>
</trkpt>
<trkpt lat="-27.274439" lon="151.290064">
  <ele>343.1</ele>
  <time>2026-09-01T19:51:20Z</time>
  <course>270.0</course>
  <speed>0.0</speed>
  <fix>3d</fix>
</trkpt>
<trkpt lat="-27.2744392" lon="151.2900641">
  <ele>343.03</ele>
  <time>2026-09-01T19:51:20Z</time>
  <course>10.9</course>
  <speed>0.022360679774997897</speed>
  <fix>3d</fix>
</trkpt>
<trkpt lat="-27.274439" lon="151.290064">
  <ele>343.1</ele>
  <time>2026-09-01T19:51:20Z</time>
  <course>270.0</course>
  <speed>0.0</speed>
  <fix>3d</fix>
</trkpt>
<trkpt lat="-27.2744392" lon="151.2900641">
  <ele>343.02</ele>
  <time>2026-09-01T19:51:20Z</time>
  <course>10.9</course>
  <speed>0.022360679774997897</speed>
  <fix>3d</fix>
</trkpt>
<trkpt lat="-27.274439" lon="151.290064">
  <ele>343.1</ele>
  <time>2026-09-01T19:51:20Z</time>
  <course>270.0</course>
  <speed>0.0</speed>
  <fix>3d</fix>
</trkpt>
<trkpt lat="-27.2744392" lon="151.2900641">
  <ele>343.02</ele>
  <time>2026-09-01T19:51:20Z</time>
  <course>10.9</course>
  <speed>0.022360679774997897</speed>
  <fix>3d</fix>
</trkpt>
<trkpt lat="-27.274439" lon="151.290064">
  <ele>343.1</ele>
  <time>2026-09-01T19:51:20Z</time>
  <course>270.0</course>
  <speed>0.0</speed>
  <fix>3d</fix>
</trkpt>
<trkpt lat="-27.2744392" lon="151.2900641">
  <ele>343.01</ele>
  <time>2026-09-01T19:51:20Z</time>
  <course>10.9</course>
  <speed>0.022360679774997897</speed>
  <fix>3d</fix>
</trkpt>
<trkpt lat="-27.274439" lon="151.290064">
  <ele>343.1</ele>
  <time>2026-09-01T19:51:20Z</time>
  <course>270.0</course>
  <speed>0.0</speed>
  <fix>3d</fix>
</trkpt>
<trkpt lat="-27.2744392" lon="151.2900641">
  <ele>343.01</ele>
  <time>2026-09-01T19:51:20Z</time>
  <course>10.9</course>
  <speed>0.022360679774997897</speed>
  <fix>3d</fix>
</trkpt>
<trkpt lat="-27.274439" lon="151.290064">
  <ele>343.1</ele>
  <time>2026-09-01T19:51:20Z</time>
  <course>270.0</course>
  <speed>0.0</speed>
  <fix>3d</fix>
</trkpt>
<trkpt lat="-27.2744392" lon="151.2900641">
  <ele>343.0</ele>
  <time>2026-09-01T19:51:20Z</time>
  <course>10.9</course>
  <speed>0.022360679774997897</speed>
  <fix>3d</fix>
</trkpt>
<trkpt lat="-27.274439" lon="151.290064">
  <ele>343.1</ele>
  <time>2026-09-01T19:51:20Z</time>
  <course>270.0</course>
  <speed>0.0</speed>
  <fix>3d</fix>
</trkpt>
<trkpt lat="-27.2744392" lon="151.2900641">
  <ele>343.0</ele>
  <time>2026-09-01T19:51:20Z</time>
  <course>10.9</course>
  <speed>0.022360679774997897</speed>
  <fix>3d</fix>
</trkpt>
<trkpt lat="-27.274439" lon="151.290064">
  <ele>343.1</ele>
  <time>2026-09-01T19:51:20Z</time>
  <course>270.0</course>
  <speed>0.0</speed>
  <fix>3d</fix>
</trkpt>
<trkpt lat="-27.2744392" lon="151.2900641">
  <ele>343.0</ele>
  <time>2026-09-01T19:51:20Z</time>
  <course>10.9</course>
  <speed>0.022360679774997897</speed>
  <fix>3d</fix>
</trkpt>
<trkpt lat="-27.274439" lon="151.290064">
  <ele>343.1</ele>
  <time>2026-09-01T19:51:20Z</time>
  <course>270.0</course>
  <speed>0.0</speed>
  <fix>3d</fix>
</trkpt>
<trkpt lat="-27.2744392" lon="151.2900641">
  <ele>342.99</ele>
  <time>2026-09-01T19:51:20Z</time>
  <course>10.9</course>
  <speed>0.022360679774997897</speed>
  <fix>3d</fix>
</trkpt>
<trkpt lat="-27.274439" lon="151.290064">
  <ele>343.1</ele>
  <time>2026-09-01T19:51:20Z</time>
  <course>270.0</course>
  <speed>0.0</speed>
  <fix>3d</fix>
</trkpt>
<trkpt lat="-27.2744392" lon="151.2900641">
  <ele>342.99</ele>
  <time>2026-09-01T19:51:20Z</time>
  <course>10.91</course>
  <speed>0.022360679774997897</speed>
  <fix>3d</fix>
</trkpt>
<trkpt lat="-27.274439" lon="151.290064">
  <ele>343.1</ele>
  <time>2026-09-01T19:51:20Z</time>
  <course>270.0</course>
  <speed>0.0</speed>
  <fix>3d</fix>
</trkpt>
<trkpt lat="-27.2744392" lon="151.2900641">
  <ele>342.99</ele>
  <time>2026-09-01T19:51:20Z</time>
  <course>10.91</course>
  <speed>0.022360679774997897</speed>
  <fix>3d</fix>
</trkpt>
<trkpt lat="-27.274439" lon="151.290064">
  <ele>343.1</ele>
  <time>2026-09-01T19:51:20Z</time>
  <course>270.0</course>
  <speed>0.0</speed>
  <fix>3d</fix>
</trkpt>
<trkpt lat="-27.2744392" lon="151.2900641">
  <ele>342.98</ele>
  <time>2026-09-01T19:51:20Z</time>
  <course>10.91</course>
  <speed>0.022360679774997897</speed>
  <fix>3d</fix>
</trkpt>
<trkpt lat="-27.274439" lon="151.290064">
  <ele>343.1</ele>
  <time>2026-09-01T19:51:20Z</time>
  <course>270.0</course>
  <speed>0.0</speed>
  <fix>3d</fix>
</trkpt>
<trkpt lat="-27.2744392" lon="151.2900641">
  <ele>342.98</ele>
  <time>2026-09-01T19:51:20Z</time>
  <course>10.91</course>
  <speed>0.022360679774997897</speed>
  <fix>3d</fix>
</trkpt>
<trkpt lat="-27.274439" lon="151.290064">
  <ele>343.1</ele>
  <time>2026-09-01T19:51:20Z</time>
  <course>270.0</course>
  <speed>0.0</speed>
  <fix>3d</fix>
</trkpt>
<trkpt lat="-27.2744392" lon="151.2900641">
  <ele>342.98</ele>
  <time>2026-09-01T19:51:20Z</time>
  <course>10.91</course>
  <speed>0.022360679774997897</speed>
  <fix>3d</fix>
</trkpt>
<trkpt lat="-27.274439" lon="151.290064">
  <ele>343.1</ele>
  <time>2026-09-01T19:51:20Z</time>
  <course>270.0</course>
  <speed>0.0</speed>
  <fix>3d</fix>
</trkpt>
<trkpt lat="-27.2744392" lon="151.2900641">
  <ele>342.98</ele>
  <time>2026-09-01T19:51:20Z</time>
  <course>10.91</course>
  <speed>0.022360679774997897</speed>
  <fix>3d</fix>
</trkpt>
<trkpt lat="-27.274439" lon="151.290064">
  <ele>343.1</ele>
  <time>2026-09-01T19:51:20Z</time>
  <course>270.0</course>
  <speed>0.0</speed>
  <fix>3d</fix>
</trkpt>
<trkpt lat="-27.2744392" lon="151.2900641">
  <ele>342.97</ele>
  <time>2026-09-01T19:51:20Z</time>
  <course>10.91</course>
  <speed>0.022360679774997897</speed>
  <fix>3d</fix>
</trkpt>
<trkpt lat="-27.274439" lon="151.290064">
  <ele>343.1</ele>
  <time>2026-09-01T19:51:20Z</time>
  <course>270.0</course>
  <speed>0.0</speed>
  <fix>3d</fix>
</trkpt>
<trkpt lat="-27.2744392" lon="151.2900641">
  <ele>342.97</ele>
  <time>2026-09-01T19:51:20Z</time>
  <course>10.91</course>
  <speed>0.022360679774997897</speed>
  <fix>3d</fix>
</trkpt>
<trkpt lat="-27.274439" lon="151.290064">
  <ele>343.1</ele>
  <time>2026-09-01T19:51:20Z</time>
  <course>270.0</course>
  <speed>0.0</speed>
  <fix>3d</fix>
</trkpt>
<trkpt lat="-27.2744392" lon="151.2900641">
  <ele>342.97</ele>
  <time>2026-09-01T19:51:20Z</time>
  <course>10.91</course>
  <speed>0.022360679774997897</speed>
  <fix>3d</fix>
</trkpt>
<trkpt lat="-27.274439" lon="151.290064">
  <ele>343.1</ele>
  <time>2026-09-01T19:51:20Z</time>
  <course>270.0</course>
  <speed>0.0</speed>
  <fix>3d</fix>
</trkpt>
<trkpt lat="-27.2744392" lon="151.2900641">
  <ele>342.96</ele>
  <time>2026-09-01T19:51:20Z</time>
  <course>10.92</course>
  <speed>0.022360679774997897</speed>
  <fix>3d</fix>
</trkpt>
<trkpt lat="-27.274439" lon="151.290064">
  <ele>343.1</ele>
  <time>2026-09-01T19:51:20Z</time>
  <course>270.0</course>
  <speed>0.0</speed>
  <fix>3d</fix>
</trkpt>
<trkpt lat="-27.2744392" lon="151.2900641">
  <ele>342.96</ele>
  <time>2026-09-01T19:51:20Z</time>
  <course>10.92</course>
  <speed>0.022360679774997897</speed>
  <fix>3d</fix>
</trkpt>
<trkpt lat="-27.274439" lon="151.290064">
  <ele>343.1</ele>
  <time>2026-09-01T19:51:20Z</time>
  <course>270.0</course>
  <speed>0.0</speed>
  <fix>3d</fix>
</trkpt>
<trkpt lat="-27.2744392" lon="151.2900641">
  <ele>342.95</ele>
  <time>2026-09-01T19:51:20Z</time>
  <course>10.92</course>
  <speed>0.022360679774997897</speed>
  <fix>3d</fix>
</trkpt>
<trkpt lat="-27.274439" lon="151.290064">
  <ele>343.1</ele>
  <time>2026-09-01T19:51:20Z</time>
  <course>270.0</course>
  <speed>0.0</speed>
  <fix>3d</fix>
</trkpt>
<trkpt lat="-27.2744392" lon="151.2900641">
  <ele>342.95</ele>
  <time>2026-09-01T19:51:20Z</time>
  <course>10.92</course>
  <speed>0.022360679774997897</speed>
  <fix>3d</fix>
</trkpt>
<trkpt lat="-27.274439" lon="151.290064">
  <ele>343.1</ele>
  <time>2026-09-01T19:51:20Z</time>
  <course>270.0</course>
  <speed>0.0</speed>
  <fix>3d</fix>
</trkpt>
<trkpt lat="-27.2744392" lon="151.2900641">
  <ele>342.95</ele>
  <time>2026-09-01T19:51:20Z</time>
  <course>10.92</course>
  <speed>0.022360679774997897</speed>
  <fix>3d</fix>
</trkpt>
<trkpt lat="-27.274439" lon="151.290064">
  <ele>343.1</ele>
  <time>2026-09-01T19:51:20Z</time>
  <course>270.0</course>
  <speed>0.0</speed>
  <fix>3d</fix>
</trkpt>
<trkpt lat="-27.2744392" lon="151.2900641">
  <ele>342.95</ele>
  <time>2026-09-01T19:51:20Z</time>
  <course>10.92</course>
  <speed>0.022360679774997897</speed>
  <fix>3d</fix>
</trkpt>
<trkpt lat="-27.274439" lon="151.290064">
  <ele>343.1</ele>
  <time>2026-09-01T19:51:20Z</time>
  <course>270.0</course>
  <speed>0.0</speed>
  <fix>3d</fix>
</trkpt>
<trkpt lat="-27.2744392" lon="151.2900641">
  <ele>342.95</ele>
  <time>2026-09-01T19:51:20Z</time>
  <course>10.92</course>
  <speed>0.022360679774997897</speed>
  <fix>3d</fix>
</trkpt>
<trkpt lat="-27.274439" lon="151.290064">
  <ele>343.1</ele>
  <time>2026-09-01T19:51:20Z</time>
  <course>270.0</course>
  <speed>0.0</speed>
  <fix>3d</fix>
</trkpt>
<trkpt lat="-27.2744392" lon="151.2900641">
  <ele>342.95</ele>
  <time>2026-09-01T19:51:20Z</time>
  <course>10.92</course>
  <speed>0.022360679774997897</speed>
  <fix>3d</fix>
</trkpt>
<trkpt lat="-27.274439" lon="151.290064">
  <ele>343.1</ele>
  <time>2026-09-01T19:51:20Z</time>
  <course>270.0</course>
  <speed>0.0</speed>
  <fix>3d</fix>
</trkpt>
<trkpt lat="-27.2744392" lon="151.2900641">
  <ele>342.95</ele>
  <time>2026-09-01T19:51:20Z</time>
  <course>10.92</course>
  <speed>0.022360679774997897</speed>
  <fix>3d</fix>
</trkpt>
<trkpt lat="-27.274439" lon="151.290064">
  <ele>343.1</ele>
  <time>2026-09-01T19:51:20Z</time>
  <course>270.0</course>
  <speed>0.0</speed>
  <fix>3d</fix>
</trkpt>
<trkpt lat="-27.2744392" lon="151.2900641">
  <ele>342.94</ele>
  <time>2026-09-01T19:51:20Z</time>
  <course>10.93</course>
  <speed>0.022360679774997897</speed>
  <fix>3d</fix>
</trkpt>
<trkpt lat="-27.274439" lon="151.290064">
  <ele>343.1</ele>
  <time>2026-09-01T19:51:20Z</time>
  <course>270.0</course>
  <speed>0.0</speed>
  <fix>3d</fix>
</trkpt>
<trkpt lat="-27.2744392" lon="151.2900641">
  <ele>342.94</ele>
  <time>2026-09-01T19:51:20Z</time>
  <course>10.93</course>
  <speed>0.022360679774997897</speed>
  <fix>3d</fix>
</trkpt>
<trkpt lat="-27.274439" lon="151.290064">
  <ele>343.1</ele>
  <time>2026-09-01T19:51:20Z</time>
  <course>270.0</course>
  <speed>0.0</speed>
  <fix>3d</fix>
</trkpt>
<trkpt lat="-27.2744392" lon="151.2900641">
  <ele>342.94</ele>
  <time>2026-09-01T19:51:20Z</time>
  <course>10.93</course>
  <speed>0.022360679774997897</speed>
  <fix>3d</fix>
</trkpt>
<trkpt lat="-27.274439" lon="151.290064">
  <ele>343.1</ele>
  <time>2026-09-01T19:51:20Z</time>
  <course>270.0</course>
  <speed>0.0</speed>
  <fix>3d</fix>
</trkpt>
<trkpt lat="-27.2744392" lon="151.2900641">
  <ele>342.93</ele>
  <time>2026-09-01T19:51:20Z</time>
  <course>10.93</course>
  <speed>0.022360679774997897</speed>
  <fix>3d</fix>
</trkpt>
<trkpt lat="-27.274439" lon="151.290064">
  <ele>343.1</ele>
  <time>2026-09-01T19:51:20Z</time>
  <course>270.0</course>
  <speed>0.0</speed>
  <fix>3d</fix>
</trkpt>
<trkpt lat="-27.2744392" lon="151.2900641">
  <ele>342.93</ele>
  <time>2026-09-01T19:51:20Z</time>
  <course>10.93</course>
  <speed>0.022360679774997897</speed>
  <fix>3d</fix>
</trkpt>
<trkpt lat="-27.274439" lon="151.290064">
  <ele>343.1</ele>
  <time>2026-09-01T19:51:20Z</time>
  <course>270.0</course>
  <speed>0.0</speed>
  <fix>3d</fix>
</trkpt>
<trkpt lat="-27.2744392" lon="151.2900641">
  <ele>342.92</ele>
  <time>2026-09-01T19:51:20Z</time>
  <course>10.93</course>
  <speed>0.022360679774997897</speed>
  <fix>3d</fix>
</trkpt>
<trkpt lat="-27.274439" lon="151.290064">
  <ele>343.1</ele>
  <time>2026-09-01T19:51:20Z</time>
  <course>270.0</course>
  <speed>0.0</speed>
  <fix>3d</fix>
</trkpt>
<trkpt lat="-27.2744392" lon="151.2900641">
  <ele>342.92</ele>
  <time>2026-09-01T19:51:20Z</time>
  <course>10.93</course>
  <speed>0.022360679774997897</speed>
  <fix>3d</fix>
</trkpt>
<trkpt lat="-27.274439" lon="151.290064">
  <ele>343.1</ele>
  <time>2026-09-01T19:51:20Z</time>
  <course>270.0</course>
  <speed>0.0</speed>
  <fix>3d</fix>
</trkpt>
<trkpt lat="-27.2744392" lon="151.2900641">
  <ele>342.92</ele>
  <time>2026-09-01T19:51:20Z</time>
  <course>10.93</course>
  <speed>0.022360679774997897</speed>
  <fix>3d</fix>
</trkpt>
<trkpt lat="-27.274439" lon="151.290064">
  <ele>343.1</ele>
  <time>2026-09-01T19:51:20Z</time>
  <course>270.0</course>
  <speed>0.0</speed>
  <fix>3d</fix>
</trkpt>
<trkpt lat="-27.2744392" lon="151.2900641">
  <ele>342.92</ele>
  <time>2026-09-01T19:51:20Z</time>
  <course>10.93</course>
  <speed>0.022360679774997897</speed>
  <fix>3d</fix>
</trkpt>
<trkpt lat="-27.274439" lon="151.290064">
  <ele>343.1</ele>
  <time>2026-09-01T19:51:20Z</time>
  <course>270.0</course>
  <speed>0.0</speed>
  <fix>3d</fix>
</trkpt>
<trkpt lat="-27.2744392" lon="151.2900641">
  <ele>342.91</ele>
  <time>2026-09-01T19:51:20Z</time>
  <course>10.94</course>
  <speed>0.022360679774997897</speed>
  <fix>3d</fix>
</trkpt>
<trkpt lat="-27.274439" lon="151.290064">
  <ele>343.1</ele>
  <time>2026-09-01T19:51:20Z</time>
  <course>270.0</course>
  <speed>0.0</speed>
  <fix>3d</fix>
</trkpt>
<trkpt lat="-27.2744392" lon="151.2900641">
  <ele>342.91</ele>
  <time>2026-09-01T19:51:20Z</time>
  <course>10.94</course>
  <speed>0.022360679774997897</speed>
  <fix>3d</fix>
</trkpt>
<trkpt lat="-27.274439" lon="151.290064">
  <ele>343.1</ele>
  <time>2026-09-01T19:51:20Z</time>
  <course>270.0</course>
  <speed>0.0</speed>
  <fix>3d</fix>
</trkpt>
<trkpt lat="-27.2744392" lon="151.2900641">
  <ele>342.91</ele>
  <time>2026-09-01T19:51:20Z</time>
  <course>10.94</course>
  <speed>0.022360679774997897</speed>
  <fix>3d</fix>
</trkpt>
<trkpt lat="-27.274439" lon="151.290064">
  <ele>343.1</ele>
  <time>2026-09-01T19:51:20Z</time>
  <course>270.0</course>
  <speed>0.0</speed>
  <fix>3d</fix>
</trkpt>
<trkpt lat="-27.2744392" lon="151.2900641">
  <ele>343.09</ele>
  <time>2026-09-01T19:51:20Z</time>
  <course>10.94</course>
  <speed>0.022360679774997897</speed>
  <fix>3d</fix>
</trkpt>
<trkpt lat="-27.274439" lon="151.290064">
  <ele>343.1</ele>
  <time>2026-09-01T19:51:20Z</time>
  <course>270.0</course>
  <speed>0.0</speed>
  <fix>3d</fix>
</trkpt>
<trkpt lat="-27.2744392" lon="151.2900641">
  <ele>343.09</ele>
  <time>2026-09-01T19:51:20Z</time>
  <course>10.94</course>
  <speed>0.022360679774997897</speed>
  <fix>3d</fix>
</trkpt>
<trkpt lat="-27.274439" lon="151.290064">
  <ele>343.1</ele>
  <time>2026-09-01T19:51:20Z</time>
  <course>270.0</course>
  <speed>0.0</speed>
  <fix>3d</fix>
</trkpt>
<trkpt lat="-27.2744392" lon="151.2900641">
  <ele>343.09</ele>
  <time>2026-09-01T19:51:20Z</time>
  <course>10.94</course>
  <speed>0.022360679774997897</speed>
  <fix>3d</fix>
</trkpt>
<trkpt lat="-27.274439" lon="151.290064">
  <ele>343.1</ele>
  <time>2026-09-01T19:51:20Z</time>
  <course>270.0</course>
  <speed>0.0</speed>
  <fix>3d</fix>
</trkpt>
<trkpt lat="-27.2744392" lon="151.2900641">
  <ele>343.08</ele>
  <time>2026-09-01T19:51:20Z</time>
  <course>10.94</course>
  <speed>0.022360679774997897</speed>
  <fix>3d</fix>
</trkpt>
<trkpt lat="-27.274439" lon="151.290064">
  <ele>343.1</ele>
  <time>2026-09-01T19:51:20Z</time>
  <course>270.0</course>
  <speed>0.0</speed>
  <fix>3d</fix>
</trkpt>
<trkpt lat="-27.2744392" lon="151.2900641">
  <ele>343.08</ele>
  <time>2026-09-01T19:51:20Z</time>
  <course>10.94</course>
  <speed>0.022360679774997897</speed>
  <fix>3d</fix>
</trkpt>
<trkpt lat="-27.274439" lon="151.290064">
  <ele>343.1</ele>
  <time>2026-09-01T19:51:20Z</time>
  <course>270.0</course>
  <speed>0.0</speed>
  <fix>3d</fix>
</trkpt>
<trkpt lat="-27.2744392" lon="151.2900641">
  <ele>343.08</ele>
  <time>2026-09-01T19:51:20Z</time>
  <course>10.94</course>
  <speed>0.022360679774997897</speed>
  <fix>3d</fix>
</trkpt>
<trkpt lat="-27.274439" lon="151.290064">
  <ele>343.1</ele>
  <time>2026-09-01T19:51:20Z</time>
  <course>270.0</course>
  <speed>0.0</speed>
  <fix>3d</fix>
</trkpt>
<trkpt lat="-27.2744392" lon="151.2900641">
  <ele>343.07</ele>
  <time>2026-09-01T19:51:20Z</time>
  <course>10.94</course>
  <speed>0.022360679774997897</speed>
  <fix>3d</fix>
</trkpt>
<trkpt lat="-27.274439" lon="151.290064">
  <ele>343.1</ele>
  <time>2026-09-01T19:51:20Z</time>
  <course>270.0</course>
  <speed>0.0</speed>
  <fix>3d</fix>
</trkpt>
<trkpt lat="-27.2744392" lon="151.2900641">
  <ele>343.06</ele>
  <time>2026-09-01T19:51:20Z</time>
  <course>10.95</course>
  <speed>0.022360679774997897</speed>
  <fix>3d</fix>
</trkpt>
<trkpt lat="-27.274439" lon="151.290064">
  <ele>343.1</ele>
  <time>2026-09-01T19:51:20Z</time>
  <course>270.0</course>
  <speed>0.0</speed>
  <fix>3d</fix>
</trkpt>
<trkpt lat="-27.2744392" lon="151.2900641">
  <ele>343.06</ele>
  <time>2026-09-01T19:51:20Z</time>
  <course>10.95</course>
  <speed>0.022360679774997897</speed>
  <fix>3d</fix>
</trkpt>
<trkpt lat="-27.274439" lon="151.290064">
  <ele>343.1</ele>
  <time>2026-09-01T19:51:20Z</time>
  <course>270.0</course>
  <speed>0.0</speed>
  <fix>3d</fix>
</trkpt>
<trkpt lat="-27.2744392" lon="151.2900641">
  <ele>343.05</ele>
  <time>2026-09-01T19:51:20Z</time>
  <course>10.95</course>
  <speed>0.022360679774997897</speed>
  <fix>3d</fix>
</trkpt>
<trkpt lat="-27.274439" lon="151.290064">
  <ele>343.1</ele>
  <time>2026-09-01T19:51:20Z</time>
  <course>270.0</course>
  <speed>0.0</speed>
  <fix>3d</fix>
</trkpt>
<trkpt lat="-27.2744392" lon="151.2900641">
  <ele>343.05</ele>
  <time>2026-09-01T19:51:20Z</time>
  <course>10.95</course>
  <speed>0.022360679774997897</speed>
  <fix>3d</fix>
</trkpt>
<trkpt lat="-27.274439" lon="151.290064">
  <ele>343.1</ele>
  <time>2026-09-01T19:51:20Z</time>
  <course>270.0</course>
  <speed>0.0</speed>
  <fix>3d</fix>
</trkpt>
<trkpt lat="-27.2744392" lon="151.2900641">
  <ele>343.04</ele>
  <time>2026-09-01T19:51:20Z</time>
  <course>10.95</course>
  <speed>0.022360679774997897</speed>
  <fix>3d</fix>
</trkpt>
<trkpt lat="-27.274439" lon="151.290064">
  <ele>343.1</ele>
  <time>2026-09-01T19:51:20Z</time>
  <course>270.0</course>
  <speed>0.0</speed>
  <fix>3d</fix>
</trkpt>
<trkpt lat="-27.2744392" lon="151.2900641">
  <ele>343.04</ele>
  <time>2026-09-01T19:51:20Z</time>
  <course>10.95</course>
  <speed>0.022360679774997897</speed>
  <fix>3d</fix>
</trkpt>
<trkpt lat="-27.274439" lon="151.290064">
  <ele>343.1</ele>
  <time>2026-09-01T19:51:20Z</time>
  <course>270.0</course>
  <speed>0.0</speed>
  <fix>3d</fix>
</trkpt>
<trkpt lat="-27.2744392" lon="151.2900641">
  <ele>343.03</ele>
  <time>2026-09-01T19:51:20Z</time>
  <course>10.95</course>
  <speed>0.022360679774997897</speed>
  <fix>3d</fix>
</trkpt>
<trkpt lat="-27.274439" lon="151.290064">
  <ele>343.1</ele>
  <time>2026-09-01T19:51:20Z</time>
  <course>270.0</course>
  <speed>0.0</speed>
  <fix>3d</fix>
</trkpt>
<trkpt lat="-27.2744392" lon="151.2900641">
  <ele>343.03</ele>
  <time>2026-09-01T19:51:20Z</time>
  <course>10.95</course>
  <speed>0.022360679774997897</speed>
  <fix>3d</fix>
</trkpt>
<trkpt lat="-27.274439" lon="151.290064">
  <ele>343.1</ele>
  <time>2026-09-01T19:51:20Z</time>
  <course>270.0</course>
  <speed>0.0</speed>
  <fix>3d</fix>
</trkpt>
<trkpt lat="-27.2744392" lon="151.2900641">
  <ele>343.02</ele>
  <time>2026-09-01T19:51:20Z</time>
  <course>10.95</course>
  <speed>0.022360679774997897</speed>
  <fix>3d</fix>
</trkpt>
<trkpt lat="-27.274439" lon="151.290064">
  <ele>343.1</ele>
  <time>2026-09-01T19:51:20Z</time>
  <course>270.0</course>
  <speed>0.0</speed>
  <fix>3d</fix>
</trkpt>
<trkpt lat="-26.9720619" lon="149.6127921">
  <ele>339.29</ele>
  <time>2026-09-01T19:51:21Z</time>
  <course>310.27</course>
  <speed>0.0</speed>
  <fix>3d</fix>
</trkpt>
<trkpt lat="-26.9720619" lon="149.6127921">
  <ele>339.29</ele>
  <time>2026-09-01T19:51:21Z</time>
  <course>310.27</course>
  <speed>0.0</speed>
  <fix>3d</fix>
</trkpt>
<trkpt lat="-27.274439" lon="151.290064">
  <ele>-0.01</ele>
  <time>2026-09-01T19:51:21Z</time>
  <course>0.22</course>
  <speed>0.0</speed>
  <fix>3d</fix>
</trkpt>
<trkpt lat="-27.274439" lon="151.290064">
  <ele>343.1</ele>
  <time>2026-09-01T19:51:21Z</time>
  <course>294.58</course>
  <speed>0.0</speed>
  <fix>3d</fix>
</trkpt>
<trkpt lat="-27.274439" lon="151.290064">
  <ele>0.02</ele>
  <time>2026-09-01T19:51:21Z</time>
  <course>1.2</course>
  <speed>0.0</speed>
  <fix>3d</fix>
</trkpt>
<trkpt lat="-27.274439" lon="151.290064">
  <ele>343.1</ele>
  <time>2026-09-01T19:51:21Z</time>
  <course>294.58</course>
  <speed>0.0</speed>
  <fix>3d</fix>
</trkpt>
<trkpt lat="-27.274439" lon="151.290064">
  <ele>-0.08</ele>
  <time>2026-09-01T19:51:21Z</time>
  <course>2.1</course>
  <speed>0.0</speed>
  <fix>3d</fix>
</trkpt>
<trkpt lat="-27.274439" lon="151.290064">
  <ele>343.1</ele>
  <time>2026-09-01T19:51:21Z</time>
  <course>273.33</course>
  <speed>0.0</speed>
  <fix>3d</fix>
</trkpt>
<trkpt lat="-27.274439" lon="151.290064">
  <ele>0.22</ele>
  <time>2026-09-01T19:51:21Z</time>
  <course>2.92</course>
  <speed>0.0</speed>
  <fix>3d</fix>
</trkpt>
<trkpt lat="-27.274439" lon="151.290064">
  <ele>343.1</ele>
  <time>2026-09-01T19:51:21Z</time>
  <course>273.33</course>
  <speed>0.0</speed>
  <fix>3d</fix>
</trkpt>
<trkpt lat="-27.274439" lon="151.290064">
  <ele>0.09</ele>
  <time>2026-09-01T19:51:22Z</time>
  <course>3.66</course>
  <speed>0.0</speed>
  <fix>3d</fix>
</trkpt>
<trkpt lat="-27.274439" lon="151.290064">
  <ele>343.1</ele>
  <time>2026-09-01T19:51:22Z</time>
  <course>270.44</course>
  <speed>0.0</speed>
  <fix>3d</fix>
</trkpt>
<trkpt lat="-27.274439" lon="151.290064">
  <ele>0.08</ele>
  <time>2026-09-01T19:51:22Z</time>
  <course>4.34</course>
  <speed>0.0</speed>
  <fix>3d</fix>
</trkpt>
<trkpt lat="-27.274439" lon="151.290064">
  <ele>343.1</ele>
  <time>2026-09-01T19:51:22Z</time>
  <course>270.44</course>
  <speed>0.0</speed>
  <fix>3d</fix>
</trkpt>
<trkpt lat="-27.274439" lon="151.290064">
  <ele>0.09</ele>
  <time>2026-09-01T19:51:22Z</time>
  <course>4.95</course>
  <speed>0.0</speed>
  <fix>3d</fix>
</trkpt>
<trkpt lat="-27.274439" lon="151.290064">
  <ele>343.1</ele>
  <time>2026-09-01T19:51:22Z</time>
  <course>270.05</course>
  <speed>0.0</speed>
  <fix>3d</fix>
</trkpt>
<trkpt lat="-27.274439" lon="151.290064">
  <ele>-0.05</ele>
  <time>2026-09-01T19:51:22Z</time>
  <course>5.5</course>
  <speed>0.0</speed>
  <fix>3d</fix>
</trkpt>
<trkpt lat="-27.274439" lon="151.290064">
  <ele>343.1</ele>
  <time>2026-09-01T19:51:22Z</time>
  <course>270.05</course>
  <speed>0.0</speed>
  <fix>3d</fix>
</trkpt>
<trkpt lat="-27.274439" lon="151.290064">
  <ele>343.06</ele>
  <time>2026-09-01T19:51:22Z</time>
  <course>5.98</course>
  <speed>0.0</speed>
  <fix>3d</fix>
</trkpt>
<trkpt lat="-27.274439" lon="151.290064">
  <ele>343.1</ele>
  <time>2026-09-01T19:51:22Z</time>
  <course>270.0</course>
  <speed>0.0</speed>
  <fix>3d</fix>
</trkpt>
<trkpt lat="-27.274439" lon="151.290064">
  <ele>343.18</ele>
  <time>2026-09-01T19:51:22Z</time>
  <course>6.44</course>
  <speed>0.0</speed>
  <fix>3d</fix>
</trkpt>
<trkpt lat="-27.274439" lon="151.290064">
  <ele>343.1</ele>
  <time>2026-09-01T19:51:22Z</time>
  <course>270.0</course>
  <speed>0.0</speed>
  <fix>3d</fix>
</trkpt>
<trkpt lat="-27.274439" lon="151.290064">
  <ele>342.91</ele>
  <time>2026-09-01T19:51:22Z</time>
  <course>6.85</course>
  <speed>0.0</speed>
  <fix>3d</fix>
</trkpt>
<trkpt lat="-27.274439" lon="151.290064">
  <ele>343.1</ele>
  <time>2026-09-01T19:51:22Z</time>
  <course>270.0</course>
  <speed>0.0</speed>
  <fix>3d</fix>
</trkpt>
<trkpt lat="-27.274439" lon="151.290064">
  <ele>343.06</ele>
  <time>2026-09-01T19:51:22Z</time>
  <course>7.22</course>
  <speed>0.0</speed>
  <fix>3d</fix>
</trkpt>
<trkpt lat="-27.274439" lon="151.290064">
  <ele>343.1</ele>
  <time>2026-09-01T19:51:22Z</time>
  <course>270.0</course>
  <speed>0.0</speed>
  <fix>3d</fix>
</trkpt>
<trkpt lat="-27.274439" lon="151.290064">
  <ele>343.13</ele>
  <time>2026-09-01T19:51:22Z</time>
  <course>7.56</course>
  <speed>0.0</speed>
  <fix>3d</fix>
</trkpt>
<trkpt lat="-27.274439" lon="151.290064">
  <ele>343.1</ele>
  <time>2026-09-01T19:51:22Z</time>
  <course>270.0</course>
  <speed>0.0</speed>
  <fix>3d</fix>
</trkpt>
<trkpt lat="-27.274439" lon="151.290064">
  <ele>343.04</ele>
  <time>2026-09-01T19:51:22Z</time>
  <course>7.87</course>
  <speed>0.0</speed>
  <fix>3d</fix>
</trkpt>
<trkpt lat="-27.274439" lon="151.290064">
  <ele>343.1</ele>
  <time>2026-09-01T19:51:22Z</time>
  <course>270.0</course>
  <speed>0.0</speed>
  <fix>3d</fix>
</trkpt>
<trkpt lat="-27.274439" lon="151.290064">
  <ele>342.88</ele>
  <time>2026-09-01T19:51:22Z</time>
  <course>8.14</course>
  <speed>0.0</speed>
  <fix>3d</fix>
</trkpt>
<trkpt lat="-27.274439" lon="151.290064">
  <ele>343.1</ele>
  <time>2026-09-01T19:51:22Z</time>
  <course>270.0</course>
  <speed>0.0</speed>
  <fix>3d</fix>
</trkpt>
<trkpt lat="-27.274439" lon="151.290064">
  <ele>343.02</ele>
  <time>2026-09-01T19:51:22Z</time>
  <course>8.39</course>
  <speed>0.0</speed>
  <fix>3d</fix>
</trkpt>
<trkpt lat="-27.274439" lon="151.290064">
  <ele>343.1</ele>
  <time>2026-09-01T19:51:22Z</time>
  <course>270.0</course>
  <speed>0.0</speed>
  <fix>3d</fix>
</trkpt>
<trkpt lat="-27.274439" lon="151.290064">
  <ele>343.23</ele>
  <time>2026-09-01T19:51:22Z</time>
  <course>8.63</course>
  <speed>0.0</speed>
  <fix>3d</fix>
</trkpt>
<trkpt lat="-27.274439" lon="151.290064">
  <ele>343.1</ele>
  <time>2026-09-01T19:51:22Z</time>
  <course>270.0</course>
  <speed>0.0</speed>
  <fix>3d</fix>
</trkpt>
<trkpt lat="-27.274439" lon="151.290064">
  <ele>343.17</ele>
  <time>2026-09-01T19:51:22Z</time>
  <course>8.83</course>
  <speed>0.0</speed>
  <fix>3d</fix>
</trkpt>
<trkpt lat="-27.274439" lon="151.290064">
  <ele>343.1</ele>
  <time>2026-09-01T19:51:22Z</time>
  <course>270.0</course>
  <speed>0.0</speed>
  <fix>3d</fix>
</trkpt>
<trkpt lat="-27.274439" lon="151.290064">
  <ele>343.04</ele>
  <time>2026-09-01T19:51:22Z</time>
  <course>9.01</course>
  <speed>0.0</speed>
  <fix>3d</fix>
</trkpt>
<trkpt lat="-27.274439" lon="151.290064">
  <ele>343.1</ele>
  <time>2026-09-01T19:51:22Z</time>
  <course>270.0</course>
  <speed>0.0</speed>
  <fix>3d</fix>
</trkpt>
<trkpt lat="-27.274439" lon="151.290064">
  <ele>342.89</ele>
  <time>2026-09-01T19:51:22Z</time>
  <course>9.18</course>
  <speed>0.0</speed>
  <fix>3d</fix>
</trkpt>
<trkpt lat="-27.274439" lon="151.290064">
  <ele>343.1</ele>
  <time>2026-09-01T19:51:22Z</time>
  <course>270.0</course>
  <speed>0.0</speed>
  <fix>3d</fix>
</trkpt>
<trkpt lat="-27.274439" lon="151.290064">
  <ele>343.08</ele>
  <time>2026-09-01T19:51:22Z</time>
  <course>9.33</course>
  <speed>0.0</speed>
  <fix>3d</fix>
</trkpt>
<trkpt lat="-27.274439" lon="151.290064">
  <ele>343.1</ele>
  <time>2026-09-01T19:51:22Z</time>
  <course>270.0</course>
  <speed>0.0</speed>
  <fix>3d</fix>
</trkpt>
<trkpt lat="-27.274439" lon="151.290064">
  <ele>343.19</ele>
  <time>2026-09-01T19:51:22Z</time>
  <course>9.47</course>
  <speed>0.0</speed>
  <fix>3d</fix>
</trkpt>
<trkpt lat="-27.274439" lon="151.290064">
  <ele>343.1</ele>
  <time>2026-09-01T19:51:22Z</time>
  <course>270.0</course>
  <speed>0.0</speed>
  <fix>3d</fix>
</trkpt>
<trkpt lat="-27.274439" lon="151.290064">
  <ele>342.88</ele>
  <time>2026-09-01T19:51:22Z</time>
  <course>9.59</course>
  <speed>0.0</speed>
  <fix>3d</fix>
</trkpt>
<trkpt lat="-27.274439" lon="151.290064">
  <ele>343.1</ele>
  <time>2026-09-01T19:51:22Z</time>
  <course>270.0</course>
  <speed>0.0</speed>
  <fix>3d</fix>
</trkpt>
<trkpt lat="-27.274439" lon="151.290064">
  <ele>343.17</ele>
  <time>2026-09-01T19:51:22Z</time>
  <course>9.7</course>
  <speed>0.0</speed>
  <fix>3d</fix>
</trkpt>
<trkpt lat="-27.274439" lon="151.290064">
  <ele>343.1</ele>
  <time>2026-09-01T19:51:22Z</time>
  <course>270.0</course>
  <speed>0.0</speed>
  <fix>3d</fix>
</trkpt>
<trkpt lat="-27.274439" lon="151.290064">
  <ele>342.89</ele>
  <time>2026-09-01T19:51:22Z</time>
  <course>9.8</course>
  <speed>0.0</speed>
  <fix>3d</fix>
</trkpt>
<trkpt lat="-27.274439" lon="151.290064">
  <ele>343.1</ele>
  <time>2026-09-01T19:51:22Z</time>
  <course>270.0</course>
  <speed>0.0</speed>
  <fix>3d</fix>
</trkpt>
<trkpt lat="-27.274439" lon="151.290064">
  <ele>342.99</ele>
  <time>2026-09-01T19:51:22Z</time>
  <course>9.9</course>
  <speed>0.0</speed>
  <fix>3d</fix>
</trkpt>
<trkpt lat="-27.274439" lon="151.290064">
  <ele>343.1</ele>
  <time>2026-09-01T19:51:22Z</time>
  <course>270.0</course>
  <speed>0.0</speed>
  <fix>3d</fix>
</trkpt>
<trkpt lat="-27.274439" lon="151.290064">
  <ele>342.87</ele>
  <time>2026-09-01T19:51:22Z</time>
  <course>9.98</course>
  <speed>0.0</speed>
  <fix>3d</fix>
</trkpt>
<trkpt lat="-27.274439" lon="151.290064">
  <ele>343.1</ele>
  <time>2026-09-01T19:51:22Z</time>
  <course>270.0</course>
  <speed>0.0</speed>
  <fix>3d</fix>
</trkpt>
<trkpt lat="-27.274439" lon="151.290064">
  <ele>343.09</ele>
  <time>2026-09-01T19:51:22Z</time>
  <course>10.06</course>
  <speed>0.0</speed>
  <fix>3d</fix>
</trkpt>
<trkpt lat="-27.274439" lon="151.290064">
  <ele>343.1</ele>
  <time>2026-09-01T19:51:22Z</time>
  <course>270.0</course>
  <speed>0.0</speed>
  <fix>3d</fix>
</trkpt>
<trkpt lat="-27.274439" lon="151.290064">
  <ele>343.18</ele>
  <time>2026-09-01T19:51:22Z</time>
  <course>10.13</course>
  <speed>0.0</speed>
  <fix>3d</fix>
</trkpt>
<trkpt lat="-27.274439" lon="151.290064">
  <ele>343.1</ele>
  <time>2026-09-01T19:51:22Z</time>
  <course>270.0</course>
  <speed>0.0</speed>
  <fix>3d</fix>
</trkpt>
<trkpt lat="-27.274439" lon="151.290064">
  <ele>343.05</ele>
  <time>2026-09-01T19:51:22Z</time>
  <course>10.2</course>
  <speed>0.0</speed>
  <fix>3d</fix>
</trkpt>
<trkpt lat="-27.274439" lon="151.290064">
  <ele>343.1</ele>
  <time>2026-09-01T19:51:22Z</time>
  <course>270.0</course>
  <speed>0.0</speed>
  <fix>3d</fix>
</trkpt>
<trkpt lat="-27.274439" lon="151.290064">
  <ele>342.96</ele>
  <time>2026-09-01T19:51:22Z</time>
  <course>10.25</course>
  <speed>0.0</speed>
  <fix>3d</fix>
</trkpt>
<trkpt lat="-27.274439" lon="151.290064">
  <ele>343.1</ele>
  <time>2026-09-01T19:51:22Z</time>
  <course>270.0</course>
  <speed>0.0</speed>
  <fix>3d</fix>
</trkpt>
<trkpt lat="-27.274439" lon="151.290064">
  <ele>343.1</ele>
  <time>2026-09-01T19:51:22Z</time>
  <course>10.31</course>
  <speed>0.0</speed>
  <fix>3d</fix>
</trkpt>
<trkpt lat="-27.274439" lon="151.290064">
  <ele>343.1</ele>
  <time>2026-09-01T19:51:22Z</time>
  <course>270.0</course>
  <speed>0.0</speed>
  <fix>3d</fix>
</trkpt>
<trkpt lat="-27.274439" lon="151.290064">
  <ele>343.22</ele>
  <time>2026-09-01T19:51:22Z</time>
  <course>10.35</course>
  <speed>0.0</speed>
  <fix>3d</fix>
</trkpt>
<trkpt lat="-27.274439" lon="151.290064">
  <ele>343.1</ele>
  <time>2026-09-01T19:51:22Z</time>
  <course>270.0</course>
  <speed>0.0</speed>
  <fix>3d</fix>
</trkpt>
<trkpt lat="-27.274439" lon="151.290064">
  <ele>343.17</ele>
  <time>2026-09-01T19:51:22Z</time>
  <course>10.4</course>
  <speed>0.0</speed>
  <fix>3d</fix>
</trkpt>
<trkpt lat="-27.274439" lon="151.290064">
  <ele>343.1</ele>
  <time>2026-09-01T19:51:22Z</time>
  <course>270.0</course>
  <speed>0.0</speed>
  <fix>3d</fix>
</trkpt>
<trkpt lat="-27.274439" lon="151.290064">
  <ele>343.08</ele>
  <time>2026-09-01T19:51:22Z</time>
  <course>10.44</course>
  <speed>0.0</speed>
  <fix>3d</fix>
</trkpt>
<trkpt lat="-27.274439" lon="151.290064">
  <ele>343.1</ele>
  <time>2026-09-01T19:51:22Z</time>
  <course>270.0</course>
  <speed>0.0</speed>
  <fix>3d</fix>
</trkpt>
<trkpt lat="-27.274439" lon="151.290064">
  <ele>343.04</ele>
  <time>2026-09-01T19:51:22Z</time>
  <course>10.47</course>
  <speed>0.0</speed>
  <fix>3d</fix>
</trkpt>
<trkpt lat="-27.274439" lon="151.290064">
  <ele>343.1</ele>
  <time>2026-09-01T19:51:22Z</time>
  <course>270.0</course>
  <speed>0.0</speed>
  <fix>3d</fix>
</trkpt>
<trkpt lat="-27.274439" lon="151.290064">
  <ele>343.18</ele>
  <time>2026-09-01T19:51:22Z</time>
  <course>10.5</course>
  <speed>0.0</speed>
  <fix>3d</fix>
</trkpt>
<trkpt lat="-27.274439" lon="151.290064">
  <ele>343.1</ele>
  <time>2026-09-01T19:51:22Z</time>
  <course>270.0</course>
  <speed>0.0</speed>
  <fix>3d</fix>
</trkpt>
<trkpt lat="-27.274439" lon="151.290064">
  <ele>343.12</ele>
  <time>2026-09-01T19:51:22Z</time>
  <course>10.53</course>
  <speed>0.0</speed>
  <fix>3d</fix>
</trkpt>
<trkpt lat="-27.274439" lon="151.290064">
  <ele>343.1</ele>
  <time>2026-09-01T19:51:22Z</time>
  <course>270.0</course>
  <speed>0.0</speed>
  <fix>3d</fix>
</trkpt>
<trkpt lat="-27.274439" lon="151.290064">
  <ele>343.04</ele>
  <time>2026-09-01T19:51:22Z</time>
  <course>10.56</course>
  <speed>0.0</speed>
  <fix>3d</fix>
</trkpt>
<trkpt lat="-27.274439" lon="151.290064">
  <ele>343.1</ele>
  <time>2026-09-01T19:51:22Z</time>
  <course>270.0</course>
  <speed>0.0</speed>
  <fix>3d</fix>
</trkpt>
<trkpt lat="-27.274439" lon="151.290064">
  <ele>343.07</ele>
  <time>2026-09-01T19:51:22Z</time>
  <course>10.58</course>
  <speed>0.0</speed>
  <fix>3d</fix>
</trkpt>
<trkpt lat="-27.274439" lon="151.290064">
  <ele>343.1</ele>
  <time>2026-09-01T19:51:22Z</time>
  <course>270.0</course>
  <speed>0.0</speed>
  <fix>3d</fix>
</trkpt>
<trkpt lat="-27.274439" lon="151.290064">
  <ele>343.04</ele>
  <time>2026-09-01T19:51:22Z</time>
  <course>10.6</course>
  <speed>0.0</speed>
  <fix>3d</fix>
</trkpt>
<trkpt lat="-27.274439" lon="151.290064">
  <ele>343.1</ele>
  <time>2026-09-01T19:51:22Z</time>
  <course>270.0</course>
  <speed>0.0</speed>
  <fix>3d</fix>
</trkpt>
<trkpt lat="-27.274439" lon="151.290064">
  <ele>343.01</ele>
  <time>2026-09-01T19:51:22Z</time>
  <course>10.62</course>
  <speed>0.0</speed>
  <fix>3d</fix>
</trkpt>
<trkpt lat="-27.274439" lon="151.290064">
  <ele>343.1</ele>
  <time>2026-09-01T19:51:22Z</time>
  <course>270.0</course>
  <speed>0.0</speed>
  <fix>3d</fix>
</trkpt>
<trkpt lat="-27.274439" lon="151.290064">
  <ele>343.2</ele>
  <time>2026-09-01T19:51:22Z</time>
  <course>10.64</course>
  <speed>0.0</speed>
  <fix>3d</fix>
</trkpt>
<trkpt lat="-27.274439" lon="151.290064">
  <ele>343.1</ele>
  <time>2026-09-01T19:51:22Z</time>
  <course>270.0</course>
  <speed>0.0</speed>
  <fix>3d</fix>
</trkpt>
<trkpt lat="-27.274439" lon="151.290064">
  <ele>343.24</ele>
  <time>2026-09-01T19:51:22Z</time>
  <course>10.65</course>
  <speed>0.0</speed>
  <fix>3d</fix>
</trkpt>
<trkpt lat="-27.274439" lon="151.290064">
  <ele>343.1</ele>
  <time>2026-09-01T19:51:22Z</time>
  <course>270.0</course>
  <speed>0.0</speed>
  <fix>3d</fix>
</trkpt>
<trkpt lat="-27.274439" lon="151.290064">
  <ele>342.88</ele>
  <time>2026-09-01T19:51:22Z</time>
  <course>10.67</course>
  <speed>0.0</speed>
  <fix>3d</fix>
</trkpt>
<trkpt lat="-27.274439" lon="151.290064">
  <ele>343.1</ele>
  <time>2026-09-01T19:51:22Z</time>
  <course>270.0</course>
  <speed>0.0</speed>
  <fix>3d</fix>
</trkpt>
<trkpt lat="-27.274439" lon="151.290064">
  <ele>343.21</ele>
  <time>2026-09-01T19:51:22Z</time>
  <course>10.68</course>
  <speed>0.0</speed>
  <fix>3d</fix>
</trkpt>
<trkpt lat="-27.274439" lon="151.290064">
  <ele>343.1</ele>
  <time>2026-09-01T19:51:22Z</time>
  <course>270.0</course>
  <speed>0.0</speed>
  <fix>3d</fix>
</trkpt>
<trkpt lat="-27.274439" lon="151.290064">
  <ele>343.02</ele>
  <time>2026-09-01T19:51:22Z</time>
  <course>10.69</course>
  <speed>0.0</speed>
  <fix>3d</fix>
</trkpt>
<trkpt lat="-27.274439" lon="151.290064">
  <ele>343.1</ele>
  <time>2026-09-01T19:51:22Z</time>
  <course>270.0</course>
  <speed>0.0</speed>
  <fix>3d</fix>
</trkpt>
<trkpt lat="-27.274439" lon="151.290064">
  <ele>342.93</ele>
  <time>2026-09-01T19:51:22Z</time>
  <course>10.7</course>
  <speed>0.0</speed>
  <fix>3d</fix>
</trkpt>
<trkpt lat="-27.274439" lon="151.290064">
  <ele>343.1</ele>
  <time>2026-09-01T19:51:22Z</time>
  <course>270.0</course>
  <speed>0.0</speed>
  <fix>3d</fix>
</trkpt>
<trkpt lat="-27.274439" lon="151.290064">
  <ele>343.07</ele>
  <time>2026-09-01T19:51:22Z</time>
  <course>10.71</course>
  <speed>0.0</speed>
  <fix>3d</fix>
</trkpt>
<trkpt lat="-27.274439" lon="151.290064">
  <ele>343.1</ele>
  <time>2026-09-01T19:51:22Z</time>
  <course>270.0</course>
  <speed>0.0</speed>
  <fix>3d</fix>
</trkpt>
<trkpt lat="-27.274439" lon="151.290064">
  <ele>342.94</ele>
  <time>2026-09-01T19:51:22Z</time>
  <course>10.72</course>
  <speed>0.0</speed>
  <fix>3d</fix>
</trkpt>
<trkpt lat="-27.274439" lon="151.290064">
  <ele>343.1</ele>
  <time>2026-09-01T19:51:22Z</time>
  <course>270.0</course>
  <speed>0.0</speed>
  <fix>3d</fix>
</trkpt>
<trkpt lat="-27.274439" lon="151.290064">
  <ele>343.11</ele>
  <time>2026-09-01T19:51:22Z</time>
  <course>10.73</course>
  <speed>0.0</speed>
  <fix>3d</fix>
</trkpt>
<trkpt lat="-27.274439" lon="151.290064">
  <ele>343.1</ele>
  <time>2026-09-01T19:51:22Z</time>
  <course>270.0</course>
  <speed>0.0</speed>
  <fix>3d</fix>
</trkpt>
<trkpt lat="-27.274439" lon="151.290064">
  <ele>343.24</ele>
  <time>2026-09-01T19:51:22Z</time>
  <course>10.73</course>
  <speed>0.0</speed>
  <fix>3d</fix>
</trkpt>
<trkpt lat="-27.274439" lon="151.290064">
  <ele>343.1</ele>
  <time>2026-09-01T19:51:22Z</time>
  <course>270.0</course>
  <speed>0.0</speed>
  <fix>3d</fix>
</trkpt>
<trkpt lat="-27.274439" lon="151.290064">
  <ele>343.18</ele>
  <time>2026-09-01T19:51:22Z</time>
  <course>10.74</course>
  <speed>0.0</speed>
  <fix>3d</fix>
</trkpt>
<trkpt lat="-27.274439" lon="151.290064">
  <ele>343.1</ele>
  <time>2026-09-01T19:51:22Z</time>
  <course>270.0</course>
  <speed>0.0</speed>
  <fix>3d</fix>
</trkpt>
<trkpt lat="-27.274439" lon="151.290064">
  <ele>342.89</ele>
  <time>2026-09-01T19:51:22Z</time>
  <course>10.75</course>
  <speed>0.0</speed>
  <fix>3d</fix>
</trkpt>
<trkpt lat="-27.274439" lon="151.290064">
  <ele>343.1</ele>
  <time>2026-09-01T19:51:22Z</time>
  <course>270.0</course>
  <speed>0.0</speed>
  <fix>3d</fix>
</trkpt>
<trkpt lat="-27.274439" lon="151.290064">
  <ele>343.23</ele>
  <time>2026-09-01T19:51:22Z</time>
  <course>10.75</course>
  <speed>0.0</speed>
  <fix>3d</fix>
</trkpt>
<trkpt lat="-27.274439" lon="151.290064">
  <ele>343.1</ele>
  <time>2026-09-01T19:51:22Z</time>
  <course>270.0</course>
  <speed>0.0</speed>
  <fix>3d</fix>
</trkpt>
<trkpt lat="-27.274439" lon="151.290064">
  <ele>343.23</ele>
  <time>2026-09-01T19:51:22Z</time>
  <course>10.76</course>
  <speed>0.0</speed>
  <fix>3d</fix>
</trkpt>
<trkpt lat="-27.274439" lon="151.290064">
  <ele>343.1</ele>
  <time>2026-09-01T19:51:22Z</time>
  <course>270.0</course>
  <speed>0.0</speed>
  <fix>3d</fix>
</trkpt>
<trkpt lat="-27.274439" lon="151.290064">
  <ele>342.99</ele>
  <time>2026-09-01T19:51:22Z</time>
  <course>10.76</course>
  <speed>0.0</speed>
  <fix>3d</fix>
</trkpt>
<trkpt lat="-27.274439" lon="151.290064">
  <ele>343.1</ele>
  <time>2026-09-01T19:51:22Z</time>
  <course>270.0</course>
  <speed>0.0</speed>
  <fix>3d</fix>
</trkpt>
<trkpt lat="-27.274439" lon="151.290064">
  <ele>343.13</ele>
  <time>2026-09-01T19:51:22Z</time>
  <course>10.76</course>
  <speed>0.0</speed>
  <fix>3d</fix>
</trkpt>
<trkpt lat="-27.274439" lon="151.290064">
  <ele>343.1</ele>
  <time>2026-09-01T19:51:22Z</time>
  <course>270.0</course>
  <speed>0.0</speed>
  <fix>3d</fix>
</trkpt>
<trkpt lat="-27.274439" lon="151.290064">
  <ele>343.07</ele>
  <time>2026-09-01T19:51:22Z</time>
  <course>10.77</course>
  <speed>0.0</speed>
  <fix>3d</fix>
</trkpt>
<trkpt lat="-27.274439" lon="151.290064">
  <ele>343.1</ele>
  <time>2026-09-01T19:51:22Z</time>
  <course>270.0</course>
  <speed>0.0</speed>
  <fix>3d</fix>
</trkpt>
<trkpt lat="-27.274439" lon="151.290064">
  <ele>343.19</ele>
  <time>2026-09-01T19:51:22Z</time>
  <course>10.77</course>
  <speed>0.0</speed>
  <fix>3d</fix>
</trkpt>
<trkpt lat="-27.274439" lon="151.290064">
  <ele>343.1</ele>
  <time>2026-09-01T19:51:22Z</time>
  <course>270.0</course>
  <speed>0.0</speed>
  <fix>3d</fix>
</trkpt>
<trkpt lat="-27.274439" lon="151.290064">
  <ele>342.93</ele>
  <time>2026-09-01T19:51:22Z</time>
  <course>10.77</course>
  <speed>0.0</speed>
  <fix>3d</fix>
</trkpt>
<trkpt lat="-27.274439" lon="151.290064">
  <ele>343.1</ele>
  <time>2026-09-01T19:51:22Z</time>
  <course>270.0</course>
  <speed>0.0</speed>
  <fix>3d</fix>
</trkpt>
<trkpt lat="-27.274439" lon="151.290064">
  <ele>343.19</ele>
  <time>2026-09-01T19:51:22Z</time>
  <course>10.78</course>
  <speed>0.0</speed>
  <fix>3d</fix>
</trkpt>
<trkpt lat="-27.274439" lon="151.290064">
  <ele>343.1</ele>
  <time>2026-09-01T19:51:22Z</time>
  <course>270.0</course>
  <speed>0.0</speed>
  <fix>3d</fix>
</trkpt>
<trkpt lat="-27.274439" lon="151.290064">
  <ele>343.1</ele>
  <time>2026-09-01T19:51:22Z</time>
  <course>10.78</course>
  <speed>0.0</speed>
  <fix>3d</fix>
</trkpt>
<trkpt lat="-27.274439" lon="151.290064">
  <ele>343.1</ele>
  <time>2026-09-01T19:51:22Z</time>
  <course>270.0</course>
  <speed>0.0</speed>
  <fix>3d</fix>
</trkpt>
<trkpt lat="-27.274439" lon="151.290064">
  <ele>343.01</ele>
  <time>2026-09-01T19:51:22Z</time>
  <course>10.78</course>
  <speed>0.0</speed>
  <fix>3d</fix>
</trkpt>
<trkpt lat="-27.274439" lon="151.290064">
  <ele>343.1</ele>
  <time>2026-09-01T19:51:22Z</time>
  <course>270.0</course>
  <speed>0.0</speed>
  <fix>3d</fix>
</trkpt>
<trkpt lat="-27.274439" lon="151.290064">
  <ele>343.11</ele>
  <time>2026-09-01T19:51:22Z</time>
  <course>10.78</course>
  <speed>0.0</speed>
  <fix>3d</fix>
</trkpt>
<trkpt lat="-27.274439" lon="151.290064">
  <ele>343.1</ele>
  <time>2026-09-01T19:51:22Z</time>
  <course>270.0</course>
  <speed>0.0</speed>
  <fix>3d</fix>
</trkpt>
<trkpt lat="-27.274439" lon="151.290064">
  <ele>342.96</ele>
  <time>2026-09-01T19:51:22Z</time>
  <course>10.78</course>
  <speed>0.0</speed>
  <fix>3d</fix>
</trkpt>
<trkpt lat="-27.274439" lon="151.290064">
  <ele>343.1</ele>
  <time>2026-09-01T19:51:22Z</time>
  <course>270.0</course>
  <speed>0.0</speed>
  <fix>3d</fix>
</trkpt>
<trkpt lat="-27.274439" lon="151.290064">
  <ele>343.19</ele>
  <time>2026-09-01T19:51:22Z</time>
  <course>10.79</course>
  <speed>0.0</speed>
  <fix>3d</fix>
</trkpt>
<trkpt lat="-27.274439" lon="151.290064">
  <ele>343.1</ele>
  <time>2026-09-01T19:51:22Z</time>
  <course>270.0</course>
  <speed>0.0</speed>
  <fix>3d</fix>
</trkpt>
<trkpt lat="-27.274439" lon="151.290064">
  <ele>343.0</ele>
  <time>2026-09-01T19:51:22Z</time>
  <course>10.79</course>
  <speed>0.0</speed>
  <fix>3d</fix>
</trkpt>
<trkpt lat="-27.274439" lon="151.290064">
  <ele>343.1</ele>
  <time>2026-09-01T19:51:22Z</time>
  <course>270.0</course>
  <speed>0.0</speed>
  <fix>3d</fix>
</trkpt>
<trkpt lat="-27.274439" lon="151.290064">
  <ele>343.2</ele>
  <time>2026-09-01T19:51:22Z</time>
  <course>10.79</course>
  <speed>0.0</speed>
  <fix>3d</fix>
</trkpt>
<trkpt lat="-27.274439" lon="151.290064">
  <ele>343.1</ele>
  <time>2026-09-01T19:51:22Z</time>
  <course>270.0</course>
  <speed>0.0</speed>
  <fix>3d</fix>
</trkpt>
<trkpt lat="-27.274439" lon="151.290064">
  <ele>343.2</ele>
  <time>2026-09-01T19:51:22Z</time>
  <course>10.79</course>
  <speed>0.0</speed>
  <fix>3d</fix>
</trkpt>
<trkpt lat="-27.274439" lon="151.290064">
  <ele>343.1</ele>
  <time>2026-09-01T19:51:22Z</time>
  <course>270.0</course>
  <speed>0.0</speed>
  <fix>3d</fix>
</trkpt>
<trkpt lat="-27.274439" lon="151.290064">
  <ele>343.13</ele>
  <time>2026-09-01T19:51:22Z</time>
  <course>10.79</course>
  <speed>0.0</speed>
  <fix>3d</fix>
</trkpt>
<trkpt lat="-27.274439" lon="151.290064">
  <ele>343.1</ele>
  <time>2026-09-01T19:51:22Z</time>
  <course>270.0</course>
  <speed>0.0</speed>
  <fix>3d</fix>
</trkpt>
<trkpt lat="-27.274439" lon="151.290064">
  <ele>343.1</ele>
  <time>2026-09-01T19:51:22Z</time>
  <course>10.79</course>
  <speed>0.0</speed>
  <fix>3d</fix>
</trkpt>
<trkpt lat="-27.274439" lon="151.290064">
  <ele>343.1</ele>
  <time>2026-09-01T19:51:22Z</time>
  <course>270.0</course>
  <speed>0.0</speed>
  <fix>3d</fix>
</trkpt>
<trkpt lat="-27.274439" lon="151.290064">
  <ele>343.12</ele>
  <time>2026-09-01T19:51:22Z</time>
  <course>10.79</course>
  <speed>0.0</speed>
  <fix>3d</fix>
</trkpt>
<trkpt lat="-27.274439" lon="151.290064">
  <ele>343.1</ele>
  <time>2026-09-01T19:51:22Z</time>
  <course>270.0</course>
  <speed>0.0</speed>
  <fix>3d</fix>
</trkpt>
<trkpt lat="-27.274439" lon="151.290064">
  <ele>342.94</ele>
  <time>2026-09-01T19:51:22Z</time>
  <course>10.79</course>
  <speed>0.0</speed>
  <fix>3d</fix>
</trkpt>
<trkpt lat="-27.274439" lon="151.290064">
  <ele>343.1</ele>
  <time>2026-09-01T19:51:22Z</time>
  <course>270.0</course>
  <speed>0.0</speed>
  <fix>3d</fix>
</trkpt>
<trkpt lat="-27.274439" lon="151.290064">
  <ele>343.25</ele>
  <time>2026-09-01T19:51:22Z</time>
  <course>10.79</course>
  <speed>0.0</speed>
  <fix>3d</fix>
</trkpt>
<trkpt lat="-27.274439" lon="151.290064">
  <ele>343.1</ele>
  <time>2026-09-01T19:51:22Z</time>
  <course>270.0</course>
  <speed>0.0</speed>
  <fix>3d</fix>
</trkpt>
<trkpt lat="-27.274439" lon="151.290064">
  <ele>342.93</ele>
  <time>2026-09-01T19:51:22Z</time>
  <course>10.79</course>
  <speed>0.0</speed>
  <fix>3d</fix>
</trkpt>
<trkpt lat="-27.274439" lon="151.290064">
  <ele>343.1</ele>
  <time>2026-09-01T19:51:22Z</time>
  <course>270.0</course>
  <speed>0.0</speed>
  <fix>3d</fix>
</trkpt>
<trkpt lat="-27.274439" lon="151.290064">
  <ele>343.08</ele>
  <time>2026-09-01T19:51:22Z</time>
  <course>10.79</course>
  <speed>0.0</speed>
  <fix>3d</fix>
</trkpt>
<trkpt lat="-27.274439" lon="151.290064">
  <ele>343.1</ele>
  <time>2026-09-01T19:51:22Z</time>
  <course>270.0</course>
  <speed>0.0</speed>
  <fix>3d</fix>
</trkpt>
<trkpt lat="-27.274439" lon="151.290064">
  <ele>343.23</ele>
  <time>2026-09-01T19:51:22Z</time>
  <course>10.8</course>
  <speed>0.0</speed>
  <fix>3d</fix>
</trkpt>
<trkpt lat="-27.274439" lon="151.290064">
  <ele>343.1</ele>
  <time>2026-09-01T19:51:22Z</time>
  <course>270.0</course>
  <speed>0.0</speed>
  <fix>3d</fix>
</trkpt>
<trkpt lat="-27.274439" lon="151.290064">
  <ele>343.01</ele>
  <time>2026-09-01T19:51:22Z</time>
  <course>10.8</course>
  <speed>0.0</speed>
  <fix>3d</fix>
</trkpt>
<trkpt lat="-27.274439" lon="151.290064">
  <ele>343.1</ele>
  <time>2026-09-01T19:51:22Z</time>
  <course>270.0</course>
  <speed>0.0</speed>
  <fix>3d</fix>
</trkpt>
<trkpt lat="-27.274439" lon="151.290064">
  <ele>343.1</ele>
  <time>2026-09-01T19:51:22Z</time>
  <course>10.8</course>
  <speed>0.0</speed>
  <fix>3d</fix>
</trkpt>
<trkpt lat="-27.274439" lon="151.290064">
  <ele>343.1</ele>
  <time>2026-09-01T19:51:22Z</time>
  <course>270.0</course>
  <speed>0.0</speed>
  <fix>3d</fix>
</trkpt>
<trkpt lat="-27.274439" lon="151.290064">
  <ele>342.99</ele>
  <time>2026-09-01T19:51:22Z</time>
  <course>10.8</course>
  <speed>0.0</speed>
  <fix>3d</fix>
</trkpt>
<trkpt lat="-27.274439" lon="151.290064">
  <ele>343.1</ele>
  <time>2026-09-01T19:51:22Z</time>
  <course>270.0</course>
  <speed>0.0</speed>
  <fix>3d</fix>
</trkpt>
<trkpt lat="-27.274439" lon="151.290064">
  <ele>342.87</ele>
  <time>2026-09-01T19:51:22Z</time>
  <course>10.8</course>
  <speed>0.0</speed>
  <fix>3d</fix>
</trkpt>
<trkpt lat="-27.274439" lon="151.290064">
  <ele>343.1</ele>
  <time>2026-09-01T19:51:22Z</time>
  <course>270.0</course>
  <speed>0.0</speed>
  <fix>3d</fix>
</trkpt>
<trkpt lat="-27.274439" lon="151.290064">
  <ele>343.1</ele>
  <time>2026-09-01T19:51:22Z</time>
  <course>10.8</course>
  <speed>0.0</speed>
  <fix>3d</fix>
</trkpt>
<trkpt lat="-27.274439" lon="151.290064">
  <ele>343.1</ele>
  <time>2026-09-01T19:51:22Z</time>
  <course>270.0</course>
  <speed>0.0</speed>
  <fix>3d</fix>
</trkpt>
<trkpt lat="-27.274439" lon="151.290064">
  <ele>342.99</ele>
  <time>2026-09-01T19:51:22Z</time>
  <course>10.8</course>
  <speed>0.0</speed>
  <fix>3d</fix>
</trkpt>
<trkpt lat="-27.274439" lon="151.290064">
  <ele>343.1</ele>
  <time>2026-09-01T19:51:22Z</time>
  <course>270.0</course>
  <speed>0.0</speed>
  <fix>3d</fix>
</trkpt>
<trkpt lat="-27.274439" lon="151.290064">
  <ele>342.91</ele>
  <time>2026-09-01T19:51:22Z</time>
  <course>10.8</course>
  <speed>0.0</speed>
  <fix>3d</fix>
</trkpt>
<trkpt lat="-27.274439" lon="151.290064">
  <ele>343.1</ele>
  <time>2026-09-01T19:51:22Z</time>
  <course>270.0</course>
  <speed>0.0</speed>
  <fix>3d</fix>
</trkpt>
<trkpt lat="-27.274439" lon="151.290064">
  <ele>342.9</ele>
  <time>2026-09-01T19:51:22Z</time>
  <course>10.8</course>
  <speed>0.0</speed>
  <fix>3d</fix>
</trkpt>
<trkpt lat="-27.274439" lon="151.290064">
  <ele>343.1</ele>
  <time>2026-09-01T19:51:22Z</time>
  <course>270.0</course>
  <speed>0.0</speed>
  <fix>3d</fix>
</trkpt>
<trkpt lat="-27.274439" lon="151.290064">
  <ele>342.87</ele>
  <time>2026-09-01T19:51:22Z</time>
  <course>10.8</course>
  <speed>0.0</speed>
  <fix>3d</fix>
</trkpt>
<trkpt lat="-27.274439" lon="151.290064">
  <ele>343.1</ele>
  <time>2026-09-01T19:51:22Z</time>
  <course>270.0</course>
  <speed>0.0</speed>
  <fix>3d</fix>
</trkpt>
<trkpt lat="-27.274439" lon="151.290064">
  <ele>343.12</ele>
  <time>2026-09-01T19:51:22Z</time>
  <course>10.8</course>
  <speed>0.0</speed>
  <fix>3d</fix>
</trkpt>
<trkpt lat="-27.274439" lon="151.290064">
  <ele>343.1</ele>
  <time>2026-09-01T19:51:22Z</time>
  <course>270.0</course>
  <speed>0.0</speed>
  <fix>3d</fix>
</trkpt>
<trkpt lat="-27.274439" lon="151.290064">
  <ele>342.99</ele>
  <time>2026-09-01T19:51:22Z</time>
  <course>10.8</course>
  <speed>0.0</speed>
  <fix>3d</fix>
</trkpt>
<trkpt lat="-27.274439" lon="151.290064">
  <ele>343.1</ele>
  <time>2026-09-01T19:51:22Z</time>
  <course>270.0</course>
  <speed>0.0</speed>
  <fix>3d</fix>
</trkpt>
<trkpt lat="-27.274439" lon="151.290064">
  <ele>343.13</ele>
  <time>2026-09-01T19:51:22Z</time>
  <course>10.8</course>
  <speed>0.0</speed>
  <fix>3d</fix>
</trkpt>
<trkpt lat="-27.274439" lon="151.290064">
  <ele>343.1</ele>
  <time>2026-09-01T19:51:22Z</time>
  <course>270.0</course>
  <speed>0.0</speed>
  <fix>3d</fix>
</trkpt>
<trkpt lat="-27.274439" lon="151.290064">
  <ele>343.0</ele>
  <time>2026-09-01T19:51:22Z</time>
  <course>10.8</course>
  <speed>0.0</speed>
  <fix>3d</fix>
</trkpt>
<trkpt lat="-27.274439" lon="151.290064">
  <ele>343.1</ele>
  <time>2026-09-01T19:51:22Z</time>
  <course>270.0</course>
  <speed>0.0</speed>
  <fix>3d</fix>
</trkpt>
<trkpt lat="-27.274439" lon="151.290064">
  <ele>343.17</ele>
  <time>2026-09-01T19:51:22Z</time>
  <course>10.8</course>
  <speed>0.0</speed>
  <fix>3d</fix>
</trkpt>
<trkpt lat="-27.274439" lon="151.290064">
  <ele>343.1</ele>
  <time>2026-09-01T19:51:22Z</time>
  <course>270.0</course>
  <speed>0.0</speed>
  <fix>3d</fix>
</trkpt>
<trkpt lat="-27.274439" lon="151.290064">
  <ele>343.0</ele>
  <time>2026-09-01T19:51:22Z</time>
  <course>10.8</course>
  <speed>0.0</speed>
  <fix>3d</fix>
</trkpt>
<trkpt lat="-27.274439" lon="151.290064">
  <ele>343.1</ele>
  <time>2026-09-01T19:51:22Z</time>
  <course>270.0</course>
  <speed>0.0</speed>
  <fix>3d</fix>
</trkpt>
<trkpt lat="-27.274439" lon="151.290064">
  <ele>342.99</ele>
  <time>2026-09-01T19:51:22Z</time>
  <course>10.8</course>
  <speed>0.0</speed>
  <fix>3d</fix>
</trkpt>
<trkpt lat="-27.274439" lon="151.290064">
  <ele>343.1</ele>
  <time>2026-09-01T19:51:22Z</time>
  <course>270.0</course>
  <speed>0.0</speed>
  <fix>3d</fix>
</trkpt>
<trkpt lat="-27.274439" lon="151.290064">
  <ele>343.17</ele>
  <time>2026-09-01T19:51:22Z</time>
  <course>10.8</course>
  <speed>0.0</speed>
  <fix>3d</fix>
</trkpt>
<trkpt lat="-27.274439" lon="151.290064">
  <ele>343.1</ele>
  <time>2026-09-01T19:51:22Z</time>
  <course>270.0</course>
  <speed>0.0</speed>
  <fix>3d</fix>
</trkpt>
<trkpt lat="-27.274439" lon="151.290064">
  <ele>343.16</ele>
  <time>2026-09-01T19:51:22Z</time>
  <course>10.8</course>
  <speed>0.0</speed>
  <fix>3d</fix>
</trkpt>
<trkpt lat="-27.274439" lon="151.290064">
  <ele>343.1</ele>
  <time>2026-09-01T19:51:22Z</time>
  <course>270.0</course>
  <speed>0.0</speed>
  <fix>3d</fix>
</trkpt>
<trkpt lat="-27.274439" lon="151.290064">
  <ele>342.87</ele>
  <time>2026-09-01T19:51:22Z</time>
  <course>10.8</course>
  <speed>0.0</speed>
  <fix>3d</fix>
</trkpt>
<trkpt lat="-27.274439" lon="151.290064">
  <ele>343.1</ele>
  <time>2026-09-01T19:51:22Z</time>
  <course>270.0</course>
  <speed>0.0</speed>
  <fix>3d</fix>
</trkpt>
<trkpt lat="-27.274439" lon="151.290064">
  <ele>343.19</ele>
  <time>2026-09-01T19:51:22Z</time>
  <course>10.8</course>
  <speed>0.0</speed>
  <fix>3d</fix>
</trkpt>
<trkpt lat="-27.274439" lon="151.290064">
  <ele>343.1</ele>
  <time>2026-09-01T19:51:22Z</time>
  <course>270.0</course>
  <speed>0.0</speed>
  <fix>3d</fix>
</trkpt>
<trkpt lat="-27.274439" lon="151.290064">
  <ele>343.16</ele>
  <time>2026-09-01T19:51:22Z</time>
  <course>10.8</course>
  <speed>0.0</speed>
  <fix>3d</fix>
</trkpt>
<trkpt lat="-27.274439" lon="151.290064">
  <ele>343.1</ele>
  <time>2026-09-01T19:51:22Z</time>
  <course>270.0</course>
  <speed>0.0</speed>
  <fix>3d</fix>
</trkpt>
<trkpt lat="-27.274439" lon="151.290064">
  <ele>343.21</ele>
  <time>2026-09-01T19:51:22Z</time>
  <course>10.8</course>
  <speed>0.0</speed>
  <fix>3d</fix>
</trkpt>
<trkpt lat="-27.274439" lon="151.290064">
  <ele>343.1</ele>
  <time>2026-09-01T19:51:22Z</time>
  <course>270.0</course>
  <speed>0.0</speed>
  <fix>3d</fix>
</trkpt>
<trkpt lat="-27.274439" lon="151.290064">
  <ele>343.22</ele>
  <time>2026-09-01T19:51:22Z</time>
  <course>10.8</course>
  <speed>0.0</speed>
  <fix>3d</fix>
</trkpt>
<trkpt lat="-27.274439" lon="151.290064">
  <ele>343.1</ele>
  <time>2026-09-01T19:51:22Z</time>
  <course>270.0</course>
  <speed>0.0</speed>
  <fix>3d</fix>
</trkpt>
<trkpt lat="-27.274439" lon="151.290064">
  <ele>343.24</ele>
  <time>2026-09-01T19:51:22Z</time>
  <course>10.8</course>
  <speed>0.0</speed>
  <fix>3d</fix>
</trkpt>
<trkpt lat="-27.274439" lon="151.290064">
  <ele>343.1</ele>
  <time>2026-09-01T19:51:22Z</time>
  <course>270.0</course>
  <speed>0.0</speed>
  <fix>3d</fix>
</trkpt>
<trkpt lat="-27.274439" lon="151.290064">
  <ele>343.0</ele>
  <time>2026-09-01T19:51:22Z</time>
  <course>10.8</course>
  <speed>0.0</speed>
  <fix>3d</fix>
</trkpt>
<trkpt lat="-27.274439" lon="151.290064">
  <ele>343.1</ele>
  <time>2026-09-01T19:51:22Z</time>
  <course>270.0</course>
  <speed>0.0</speed>
  <fix>3d</fix>
</trkpt>
<trkpt lat="-27.274439" lon="151.290064">
  <ele>343.1</ele>
  <time>2026-09-01T19:51:22Z</time>
  <course>10.8</course>
  <speed>0.0</speed>
  <fix>3d</fix>
</trkpt>
<trkpt lat="-27.274439" lon="151.290064">
  <ele>343.1</ele>
  <time>2026-09-01T19:51:22Z</time>
  <course>270.0</course>
  <speed>0.0</speed>
  <fix>3d</fix>
</trkpt>
<trkpt lat="-27.274439" lon="151.290064">
  <ele>343.05</ele>
  <time>2026-09-01T19:51:22Z</time>
  <course>10.8</course>
  <speed>0.0</speed>
  <fix>3d</fix>
</trkpt>
<trkpt lat="-27.274439" lon="151.290064">
  <ele>343.1</ele>
  <time>2026-09-01T19:51:22Z</time>
  <course>270.0</course>
  <speed>0.0</speed>
  <fix>3d</fix>
</trkpt>
<trkpt lat="-27.274439" lon="151.290064">
  <ele>342.87</ele>
  <time>2026-09-01T19:51:22Z</time>
  <course>10.8</course>
  <speed>0.0</speed>
  <fix>3d</fix>
</trkpt>
<trkpt lat="-27.274439" lon="151.290064">
  <ele>343.1</ele>
  <time>2026-09-01T19:51:22Z</time>
  <course>270.0</course>
  <speed>0.0</speed>
  <fix>3d</fix>
</trkpt>
<trkpt lat="-27.274439" lon="151.290064">
  <ele>342.92</ele>
  <time>2026-09-01T19:51:22Z</time>
  <course>10.8</course>
  <speed>0.0</speed>
  <fix>3d</fix>
</trkpt>
<trkpt lat="-27.274439" lon="151.290064">
  <ele>343.1</ele>
  <time>2026-09-01T19:51:22Z</time>
  <course>270.0</course>
  <speed>0.0</speed>
  <fix>3d</fix>
</trkpt>
<trkpt lat="-27.274439" lon="151.290064">
  <ele>342.96</ele>
  <time>2026-09-01T19:51:22Z</time>
  <course>10.8</course>
  <speed>0.0</speed>
  <fix>3d</fix>
</trkpt>
<trkpt lat="-27.274439" lon="151.290064">
  <ele>343.1</ele>
  <time>2026-09-01T19:51:22Z</time>
  <course>270.0</course>
  <speed>0.0</speed>
  <fix>3d</fix>
</trkpt>
<trkpt lat="-27.274439" lon="151.290064">
  <ele>343.15</ele>
  <time>2026-09-01T19:51:22Z</time>
  <course>10.8</course>
  <speed>0.0</speed>
  <fix>3d</fix>
</trkpt>
<trkpt lat="-27.274439" lon="151.290064">
  <ele>343.1</ele>
  <time>2026-09-01T19:51:22Z</time>
  <course>270.0</course>
  <speed>0.0</speed>
  <fix>3d</fix>
</trkpt>
<trkpt lat="-27.274439" lon="151.290064">
  <ele>343.16</ele>
  <time>2026-09-01T19:51:22Z</time>
  <course>10.8</course>
  <speed>0.0</speed>
  <fix>3d</fix>
</trkpt>
<trkpt lat="-27.274439" lon="151.290064">
  <ele>343.1</ele>
  <time>2026-09-01T19:51:22Z</time>
  <course>270.0</course>
  <speed>0.0</speed>
  <fix>3d</fix>
</trkpt>
<trkpt lat="-27.274439" lon="151.290064">
  <ele>343.2</ele>
  <time>2026-09-01T19:51:22Z</time>
  <course>10.81</course>
  <speed>0.0</speed>
  <fix>3d</fix>
</trkpt>
<trkpt lat="-27.274439" lon="151.290064">
  <ele>343.1</ele>
  <time>2026-09-01T19:51:22Z</time>
  <course>270.0</course>
  <speed>0.0</speed>
  <fix>3d</fix>
</trkpt>
<trkpt lat="-27.274439" lon="151.290064">
  <ele>343.13</ele>
  <time>2026-09-01T19:51:22Z</time>
  <course>10.82</course>
  <speed>0.0</speed>
  <fix>3d</fix>
</trkpt>
<trkpt lat="-27.274439" lon="151.290064">
  <ele>343.1</ele>
  <time>2026-09-01T19:51:22Z</time>
  <course>270.0</course>
  <speed>0.0</speed>
  <fix>3d</fix>
</trkpt>
<trkpt lat="-27.274439" lon="151.290064">
  <ele>343.09</ele>
  <time>2026-09-01T19:51:22Z</time>
  <course>10.71</course>
  <speed>0.0</speed>
  <fix>3d</fix>
</trkpt>
<trkpt lat="-27.274439" lon="151.290064">
  <ele>343.1</ele>
  <time>2026-09-01T19:51:22Z</time>
  <course>270.0</course>
  <speed>0.0</speed>
  <fix>3d</fix>
</trkpt>
<trkpt lat="-27.274439" lon="151.290064">
  <ele>343.09</ele>
  <time>2026-09-01T19:51:22Z</time>
  <course>10.71</course>
  <speed>0.0</speed>
  <fix>3d</fix>
</trkpt>
<trkpt lat="-27.274439" lon="151.290064">
  <ele>343.1</ele>
  <time>2026-09-01T19:51:22Z</time>
  <course>270.0</course>
  <speed>0.0</speed>
  <fix>3d</fix>
</trkpt>
<trkpt lat="-27.274439" lon="151.290064">
  <ele>343.1</ele>
  <time>2026-09-01T19:51:22Z</time>
  <course>10.71</course>
  <speed>0.0</speed>
  <fix>3d</fix>
</trkpt>
<trkpt lat="-27.274439" lon="151.290064">
  <ele>343.1</ele>
  <time>2026-09-01T19:51:22Z</time>
  <course>270.0</course>
  <speed>0.0</speed>
  <fix>3d</fix>
</trkpt>
<trkpt lat="-27.274439" lon="151.290064">
  <ele>343.1</ele>
  <time>2026-09-01T19:51:22Z</time>
  <course>10.71</course>
  <speed>0.0</speed>
  <fix>3d</fix>
</trkpt>
<trkpt lat="-27.274439" lon="151.290064">
  <ele>343.1</ele>
  <time>2026-09-01T19:51:22Z</time>
  <course>270.0</course>
  <speed>0.0</speed>
  <fix>3d</fix>
</trkpt>
<trkpt lat="-27.274439" lon="151.290064">
  <ele>343.1</ele>
  <time>2026-09-01T19:51:22Z</time>
  <course>10.71</course>
  <speed>0.0</speed>
  <fix>3d</fix>
</trkpt>
<trkpt lat="-27.274439" lon="151.290064">
  <ele>343.1</ele>
  <time>2026-09-01T19:51:22Z</time>
  <course>270.0</course>
  <speed>0.0</speed>
  <fix>3d</fix>
</trkpt>
<trkpt lat="-27.274439" lon="151.290064">
  <ele>343.1</ele>
  <time>2026-09-01T19:51:22Z</time>
  <course>10.71</course>
  <speed>0.0</speed>
  <fix>3d</fix>
</trkpt>
<trkpt lat="-27.274439" lon="151.290064">
  <ele>343.1</ele>
  <time>2026-09-01T19:51:22Z</time>
  <course>270.0</course>
  <speed>0.0</speed>
  <fix>3d</fix>
</trkpt>
<trkpt lat="-27.274439" lon="151.290064">
  <ele>343.1</ele>
  <time>2026-09-01T19:51:22Z</time>
  <course>10.71</course>
  <speed>0.0</speed>
  <fix>3d</fix>
</trkpt>
<trkpt lat="-27.274439" lon="151.290064">
  <ele>343.1</ele>
  <time>2026-09-01T19:51:22Z</time>
  <course>270.0</course>
  <speed>0.0</speed>
  <fix>3d</fix>
</trkpt>
<trkpt lat="-27.274439" lon="151.290064">
  <ele>343.11</ele>
  <time>2026-09-01T19:51:22Z</time>
  <course>10.71</course>
  <speed>0.0</speed>
  <fix>3d</fix>
</trkpt>
<trkpt lat="-27.274439" lon="151.290064">
  <ele>343.1</ele>
  <time>2026-09-01T19:51:22Z</time>
  <course>270.0</course>
  <speed>0.0</speed>
  <fix>3d</fix>
</trkpt>
<trkpt lat="-27.274439" lon="151.290064">
  <ele>343.11</ele>
  <time>2026-09-01T19:51:22Z</time>
  <course>10.71</course>
  <speed>0.0</speed>
  <fix>3d</fix>
</trkpt>
<trkpt lat="-27.274439" lon="151.290064">
  <ele>343.1</ele>
  <time>2026-09-01T19:51:22Z</time>
  <course>270.0</course>
  <speed>0.0</speed>
  <fix>3d</fix>
</trkpt>
<trkpt lat="-27.274439" lon="151.290064">
  <ele>343.11</ele>
  <time>2026-09-01T19:51:22Z</time>
  <course>10.71</course>
  <speed>0.0</speed>
  <fix>3d</fix>
</trkpt>
<trkpt lat="-27.274439" lon="151.290064">
  <ele>343.1</ele>
  <time>2026-09-01T19:51:22Z</time>
  <course>270.0</course>
  <speed>0.0</speed>
  <fix>3d</fix>
</trkpt>
<trkpt lat="-27.274439" lon="151.290064">
  <ele>343.12</ele>
  <time>2026-09-01T19:51:22Z</time>
  <course>10.71</course>
  <speed>0.0</speed>
  <fix>3d</fix>
</trkpt>
<trkpt lat="-27.274439" lon="151.290064">
  <ele>343.1</ele>
  <time>2026-09-01T19:51:22Z</time>
  <course>270.0</course>
  <speed>0.0</speed>
  <fix>3d</fix>
</trkpt>
<trkpt lat="-27.274439" lon="151.290064">
  <ele>343.12</ele>
  <time>2026-09-01T19:51:22Z</time>
  <course>10.71</course>
  <speed>0.0</speed>
  <fix>3d</fix>
</trkpt>
<trkpt lat="-27.274439" lon="151.290064">
  <ele>343.1</ele>
  <time>2026-09-01T19:51:22Z</time>
  <course>270.0</course>
  <speed>0.0</speed>
  <fix>3d</fix>
</trkpt>
<trkpt lat="-27.274439" lon="151.290064">
  <ele>343.1</ele>
  <time>2026-09-01T19:51:22Z</time>
  <course>10.71</course>
  <speed>0.0</speed>
  <fix>3d</fix>
</trkpt>
<trkpt lat="-27.274439" lon="151.290064">
  <ele>343.1</ele>
  <time>2026-09-01T19:51:22Z</time>
  <course>270.0</course>
  <speed>0.0</speed>
  <fix>3d</fix>
</trkpt>
<trkpt lat="-27.274439" lon="151.290064">
  <ele>343.1</ele>
  <time>2026-09-01T19:51:22Z</time>
  <course>10.71</course>
  <speed>0.0</speed>
  <fix>3d</fix>
</trkpt>
<trkpt lat="-27.274439" lon="151.290064">
  <ele>343.1</ele>
  <time>2026-09-01T19:51:22Z</time>
  <course>270.0</course>
  <speed>0.0</speed>
  <fix>3d</fix>
</trkpt>
<trkpt lat="-27.274439" lon="151.290064">
  <ele>343.1</ele>
  <time>2026-09-01T19:51:22Z</time>
  <course>10.71</course>
  <speed>0.0</speed>
  <fix>3d</fix>
</trkpt>
<trkpt lat="-27.274439" lon="151.290064">
  <ele>343.1</ele>
  <time>2026-09-01T19:51:22Z</time>
  <course>270.0</course>
  <speed>0.0</speed>
  <fix>3d</fix>
</trkpt>
<trkpt lat="-27.274439" lon="151.290064">
  <ele>343.09</ele>
  <time>2026-09-01T19:51:22Z</time>
  <course>10.71</course>
  <speed>0.0</speed>
  <fix>3d</fix>
</trkpt>
<trkpt lat="-27.274439" lon="151.290064">
  <ele>343.1</ele>
  <time>2026-09-01T19:51:22Z</time>
  <course>270.0</course>
  <speed>0.0</speed>
  <fix>3d</fix>
</trkpt>
<trkpt lat="-27.274439" lon="151.290064">
  <ele>343.09</ele>
  <time>2026-09-01T19:51:22Z</time>
  <course>10.71</course>
  <speed>0.0</speed>
  <fix>3d</fix>
</trkpt>
<trkpt lat="-27.274439" lon="151.290064">
  <ele>343.1</ele>
  <time>2026-09-01T19:51:22Z</time>
  <course>270.0</course>
  <speed>0.0</speed>
  <fix>3d</fix>
</trkpt>
<trkpt lat="-27.274439" lon="151.290064">
  <ele>343.09</ele>
  <time>2026-09-01T19:51:22Z</time>
  <course>10.71</course>
  <speed>0.0</speed>
  <fix>3d</fix>
</trkpt>
<trkpt lat="-27.274439" lon="151.290064">
  <ele>343.1</ele>
  <time>2026-09-01T19:51:22Z</time>
  <course>270.0</course>
  <speed>0.0</speed>
  <fix>3d</fix>
</trkpt>
<trkpt lat="-27.274439" lon="151.290064">
  <ele>343.1</ele>
  <time>2026-09-01T19:51:22Z</time>
  <course>10.71</course>
  <speed>0.0</speed>
  <fix>3d</fix>
</trkpt>
<trkpt lat="-27.274439" lon="151.290064">
  <ele>343.1</ele>
  <time>2026-09-01T19:51:22Z</time>
  <course>270.0</course>
  <speed>0.0</speed>
  <fix>3d</fix>
</trkpt>
<trkpt lat="-27.274439" lon="151.290064">
  <ele>343.1</ele>
  <time>2026-09-01T19:51:22Z</time>
  <course>10.71</course>
  <speed>0.0</speed>
  <fix>3d</fix>
</trkpt>
<trkpt lat="-27.274439" lon="151.290064">
  <ele>343.1</ele>
  <time>2026-09-01T19:51:22Z</time>
  <course>270.0</course>
  <speed>0.0</speed>
  <fix>3d</fix>
</trkpt>
<trkpt lat="-27.274439" lon="151.290064">
  <ele>343.09</ele>
  <time>2026-09-01T19:51:22Z</time>
  <course>10.71</course>
  <speed>0.0</speed>
  <fix>3d</fix>
</trkpt>
<trkpt lat="-27.274439" lon="151.290064">
  <ele>343.1</ele>
  <time>2026-09-01T19:51:22Z</time>
  <course>270.0</course>
  <speed>0.0</speed>
  <fix>3d</fix>
</trkpt>
<trkpt lat="-27.274439" lon="151.290064">
  <ele>343.09</ele>
  <time>2026-09-01T19:51:22Z</time>
  <course>10.71</course>
  <speed>0.0</speed>
  <fix>3d</fix>
</trkpt>
<trkpt lat="-27.274439" lon="151.290064">
  <ele>343.1</ele>
  <time>2026-09-01T19:51:22Z</time>
  <course>270.0</course>
  <speed>0.0</speed>
  <fix>3d</fix>
</trkpt>
<trkpt lat="-27.274439" lon="151.290064">
  <ele>343.09</ele>
  <time>2026-09-01T19:51:22Z</time>
  <course>10.71</course>
  <speed>0.0</speed>
  <fix>3d</fix>
</trkpt>
<trkpt lat="-27.274439" lon="151.290064">
  <ele>343.1</ele>
  <time>2026-09-01T19:51:22Z</time>
  <course>270.0</course>
  <speed>0.0</speed>
  <fix>3d</fix>
</trkpt>
<trkpt lat="-27.274439" lon="151.290064">
  <ele>343.09</ele>
  <time>2026-09-01T19:51:22Z</time>
  <course>10.71</course>
  <speed>0.0</speed>
  <fix>3d</fix>
</trkpt>
<trkpt lat="-27.274439" lon="151.290064">
  <ele>343.1</ele>
  <time>2026-09-01T19:51:22Z</time>
  <course>270.0</course>
  <speed>0.0</speed>
  <fix>3d</fix>
</trkpt>
<trkpt lat="-27.274439" lon="151.290064">
  <ele>343.09</ele>
  <time>2026-09-01T19:51:22Z</time>
  <course>10.71</course>
  <speed>0.0</speed>
  <fix>3d</fix>
</trkpt>
<trkpt lat="-27.274439" lon="151.290064">
  <ele>343.1</ele>
  <time>2026-09-01T19:51:22Z</time>
  <course>270.0</course>
  <speed>0.0</speed>
  <fix>3d</fix>
</trkpt>
<trkpt lat="-27.274439" lon="151.290064">
  <ele>343.09</ele>
  <time>2026-09-01T19:51:22Z</time>
  <course>10.71</course>
  <speed>0.0</speed>
  <fix>3d</fix>
</trkpt>
<trkpt lat="-27.274439" lon="151.290064">
  <ele>343.1</ele>
  <time>2026-09-01T19:51:22Z</time>
  <course>270.0</course>
  <speed>0.0</speed>
  <fix>3d</fix>
</trkpt>
<trkpt lat="-27.274439" lon="151.290064">
  <ele>343.09</ele>
  <time>2026-09-01T19:51:22Z</time>
  <course>10.71</course>
  <speed>0.0</speed>
  <fix>3d</fix>
</trkpt>
<trkpt lat="-27.274439" lon="151.290064">
  <ele>343.1</ele>
  <time>2026-09-01T19:51:22Z</time>
  <course>270.0</course>
  <speed>0.0</speed>
  <fix>3d</fix>
</trkpt>
<trkpt lat="-27.274439" lon="151.290064">
  <ele>343.09</ele>
  <time>2026-09-01T19:51:22Z</time>
  <course>10.71</course>
  <speed>0.0</speed>
  <fix>3d</fix>
</trkpt>
<trkpt lat="-27.274439" lon="151.290064">
  <ele>343.1</ele>
  <time>2026-09-01T19:51:22Z</time>
  <course>270.0</course>
  <speed>0.0</speed>
  <fix>3d</fix>
</trkpt>
<trkpt lat="-27.274439" lon="151.290064">
  <ele>343.1</ele>
  <time>2026-09-01T19:51:22Z</time>
  <course>10.71</course>
  <speed>0.0</speed>
  <fix>3d</fix>
</trkpt>
<trkpt lat="-27.274439" lon="151.290064">
  <ele>343.1</ele>
  <time>2026-09-01T19:51:22Z</time>
  <course>270.0</course>
  <speed>0.0</speed>
  <fix>3d</fix>
</trkpt>
<trkpt lat="-27.274439" lon="151.290064">
  <ele>343.1</ele>
  <time>2026-09-01T19:51:22Z</time>
  <course>10.71</course>
  <speed>0.0</speed>
  <fix>3d</fix>
</trkpt>
<trkpt lat="-27.274439" lon="151.290064">
  <ele>343.1</ele>
  <time>2026-09-01T19:51:22Z</time>
  <course>270.0</course>
  <speed>0.0</speed>
  <fix>3d</fix>
</trkpt>
<trkpt lat="-27.274439" lon="151.290064">
  <ele>343.1</ele>
  <time>2026-09-01T19:51:22Z</time>
  <course>10.71</course>
  <speed>0.0</speed>
  <fix>3d</fix>
</trkpt>
<trkpt lat="-27.274439" lon="151.290064">
  <ele>343.1</ele>
  <time>2026-09-01T19:51:22Z</time>
  <course>270.0</course>
  <speed>0.0</speed>
  <fix>3d</fix>
</trkpt>
<trkpt lat="-27.274439" lon="151.290064">
  <ele>343.1</ele>
  <time>2026-09-01T19:51:22Z</time>
  <course>10.71</course>
  <speed>0.0</speed>
  <fix>3d</fix>
</trkpt>
<trkpt lat="-27.274439" lon="151.290064">
  <ele>343.1</ele>
  <time>2026-09-01T19:51:22Z</time>
  <course>270.0</course>
  <speed>0.0</speed>
  <fix>3d</fix>
</trkpt>
<trkpt lat="-27.274439" lon="151.290064">
  <ele>343.11</ele>
  <time>2026-09-01T19:51:22Z</time>
  <course>10.71</course>
  <speed>0.0</speed>
  <fix>3d</fix>
</trkpt>
<trkpt lat="-27.274439" lon="151.290064">
  <ele>343.1</ele>
  <time>2026-09-01T19:51:22Z</time>
  <course>270.0</course>
  <speed>0.0</speed>
  <fix>3d</fix>
</trkpt>
<trkpt lat="-27.274439" lon="151.290064">
  <ele>343.11</ele>
  <time>2026-09-01T19:51:22Z</time>
  <course>10.71</course>
  <speed>0.0</speed>
  <fix>3d</fix>
</trkpt>
<trkpt lat="-27.274439" lon="151.290064">
  <ele>343.1</ele>
  <time>2026-09-01T19:51:22Z</time>
  <course>270.0</course>
  <speed>0.0</speed>
  <fix>3d</fix>
</trkpt>
<trkpt lat="-27.274439" lon="151.290064">
  <ele>343.11</ele>
  <time>2026-09-01T19:51:22Z</time>
  <course>10.71</course>
  <speed>0.0</speed>
  <fix>3d</fix>
</trkpt>
<trkpt lat="-27.274439" lon="151.290064">
  <ele>343.1</ele>
  <time>2026-09-01T19:51:22Z</time>
  <course>270.0</course>
  <speed>0.0</speed>
  <fix>3d</fix>
</trkpt>
<trkpt lat="-27.274439" lon="151.290064">
  <ele>343.11</ele>
  <time>2026-09-01T19:51:22Z</time>
  <course>10.71</course>
  <speed>0.0</speed>
  <fix>3d</fix>
</trkpt>
<trkpt lat="-27.274439" lon="151.290064">
  <ele>343.1</ele>
  <time>2026-09-01T19:51:22Z</time>
  <course>270.0</course>
  <speed>0.0</speed>
  <fix>3d</fix>
</trkpt>
<trkpt lat="-27.274439" lon="151.290064">
  <ele>343.12</ele>
  <time>2026-09-01T19:51:22Z</time>
  <course>10.71</course>
  <speed>0.0</speed>
  <fix>3d</fix>
</trkpt>
<trkpt lat="-27.274439" lon="151.290064">
  <ele>343.1</ele>
  <time>2026-09-01T19:51:22Z</time>
  <course>270.0</course>
  <speed>0.0</speed>
  <fix>3d</fix>
</trkpt>
<trkpt lat="-27.274439" lon="151.290064">
  <ele>343.12</ele>
  <time>2026-09-01T19:51:22Z</time>
  <course>10.71</course>
  <speed>0.0</speed>
  <fix>3d</fix>
</trkpt>
<trkpt lat="-27.274439" lon="151.290064">
  <ele>343.1</ele>
  <time>2026-09-01T19:51:22Z</time>
  <course>270.0</course>
  <speed>0.0</speed>
  <fix>3d</fix>
</trkpt>
<trkpt lat="-27.274439" lon="151.290064">
  <ele>343.12</ele>
  <time>2026-09-01T19:51:22Z</time>
  <course>10.71</course>
  <speed>0.0</speed>
  <fix>3d</fix>
</trkpt>
<trkpt lat="-27.274439" lon="151.290064">
  <ele>343.1</ele>
  <time>2026-09-01T19:51:22Z</time>
  <course>270.0</course>
  <speed>0.0</speed>
  <fix>3d</fix>
</trkpt>
<trkpt lat="-27.274439" lon="151.290064">
  <ele>343.12</ele>
  <time>2026-09-01T19:51:22Z</time>
  <course>10.71</course>
  <speed>0.0</speed>
  <fix>3d</fix>
</trkpt>
<trkpt lat="-27.274439" lon="151.290064">
  <ele>343.1</ele>
  <time>2026-09-01T19:51:22Z</time>
  <course>270.0</course>
  <speed>0.0</speed>
  <fix>3d</fix>
</trkpt>
<trkpt lat="-27.274439" lon="151.290064">
  <ele>343.12</ele>
  <time>2026-09-01T19:51:22Z</time>
  <course>10.71</course>
  <speed>0.0</speed>
  <fix>3d</fix>
</trkpt>
<trkpt lat="-27.274439" lon="151.290064">
  <ele>343.1</ele>
  <time>2026-09-01T19:51:22Z</time>
  <course>270.0</course>
  <speed>0.0</speed>
  <fix>3d</fix>
</trkpt>
<trkpt lat="-27.274439" lon="151.290064">
  <ele>343.13</ele>
  <time>2026-09-01T19:51:22Z</time>
  <course>10.71</course>
  <speed>0.0</speed>
  <fix>3d</fix>
</trkpt>
<trkpt lat="-27.274439" lon="151.290064">
  <ele>343.1</ele>
  <time>2026-09-01T19:51:22Z</time>
  <course>270.0</course>
  <speed>0.0</speed>
  <fix>3d</fix>
</trkpt>
<trkpt lat="-27.274439" lon="151.290064">
  <ele>343.13</ele>
  <time>2026-09-01T19:51:22Z</time>
  <course>10.71</course>
  <speed>0.0</speed>
  <fix>3d</fix>
</trkpt>
<trkpt lat="-27.274439" lon="151.290064">
  <ele>343.1</ele>
  <time>2026-09-01T19:51:22Z</time>
  <course>270.0</course>
  <speed>0.0</speed>
  <fix>3d</fix>
</trkpt>
<trkpt lat="-27.274439" lon="151.290064">
  <ele>343.13</ele>
  <time>2026-09-01T19:51:22Z</time>
  <course>10.71</course>
  <speed>0.0</speed>
  <fix>3d</fix>
</trkpt>
<trkpt lat="-27.274439" lon="151.290064">
  <ele>343.1</ele>
  <time>2026-09-01T19:51:22Z</time>
  <course>270.0</course>
  <speed>0.0</speed>
  <fix>3d</fix>
</trkpt>
<trkpt lat="-27.274439" lon="151.290064">
  <ele>343.13</ele>
  <time>2026-09-01T19:51:22Z</time>
  <course>10.71</course>
  <speed>0.0</speed>
  <fix>3d</fix>
</trkpt>
<trkpt lat="-27.274439" lon="151.290064">
  <ele>343.1</ele>
  <time>2026-09-01T19:51:22Z</time>
  <course>270.0</course>
  <speed>0.0</speed>
  <fix>3d</fix>
</trkpt>
<trkpt lat="-27.274439" lon="151.290064">
  <ele>343.14</ele>
  <time>2026-09-01T19:51:22Z</time>
  <course>10.71</course>
  <speed>0.0</speed>
  <fix>3d</fix>
</trkpt>
<trkpt lat="-27.274439" lon="151.290064">
  <ele>343.1</ele>
  <time>2026-09-01T19:51:22Z</time>
  <course>270.0</course>
  <speed>0.0</speed>
  <fix>3d</fix>
</trkpt>
<trkpt lat="-27.274439" lon="151.290064">
  <ele>343.14</ele>
  <time>2026-09-01T19:51:22Z</time>
  <course>10.71</course>
  <speed>0.0</speed>
  <fix>3d</fix>
</trkpt>
<trkpt lat="-27.274439" lon="151.290064">
  <ele>343.1</ele>
  <time>2026-09-01T19:51:22Z</time>
  <course>270.0</course>
  <speed>0.0</speed>
  <fix>3d</fix>
</trkpt>
<trkpt lat="-27.274439" lon="151.290064">
  <ele>343.14</ele>
  <time>2026-09-01T19:51:22Z</time>
  <course>10.71</course>
  <speed>0.0</speed>
  <fix>3d</fix>
</trkpt>
<trkpt lat="-27.274439" lon="151.290064">
  <ele>343.1</ele>
  <time>2026-09-01T19:51:22Z</time>
  <course>270.0</course>
  <speed>0.0</speed>
  <fix>3d</fix>
</trkpt>
<trkpt lat="-27.274439" lon="151.290064">
  <ele>343.14</ele>
  <time>2026-09-01T19:51:22Z</time>
  <course>10.71</course>
  <speed>0.0</speed>
  <fix>3d</fix>
</trkpt>
<trkpt lat="-27.274439" lon="151.290064">
  <ele>343.1</ele>
  <time>2026-09-01T19:51:22Z</time>
  <course>270.0</course>
  <speed>0.0</speed>
  <fix>3d</fix>
</trkpt>
<trkpt lat="-27.274439" lon="151.290064">
  <ele>343.14</ele>
  <time>2026-09-01T19:51:22Z</time>
  <course>10.71</course>
  <speed>0.0</speed>
  <fix>3d</fix>
</trkpt>
<trkpt lat="-27.274439" lon="151.290064">
  <ele>343.1</ele>
  <time>2026-09-01T19:51:22Z</time>
  <course>270.0</course>
  <speed>0.0</speed>
  <fix>3d</fix>
</trkpt>
<trkpt lat="-27.274439" lon="151.290064">
  <ele>343.14</ele>
  <time>2026-09-01T19:51:22Z</time>
  <course>10.71</course>
  <speed>0.0</speed>
  <fix>3d</fix>
</trkpt>
<trkpt lat="-27.274439" lon="151.290064">
  <ele>343.1</ele>
  <time>2026-09-01T19:51:22Z</time>
  <course>270.0</course>
  <speed>0.0</speed>
  <fix>3d</fix>
</trkpt>
<trkpt lat="-27.274439" lon="151.290064">
  <ele>343.14</ele>
  <time>2026-09-01T19:51:22Z</time>
  <course>10.71</course>
  <speed>0.0</speed>
  <fix>3d</fix>
</trkpt>
<trkpt lat="-27.274439" lon="151.290064">
  <ele>343.1</ele>
  <time>2026-09-01T19:51:22Z</time>
  <course>270.0</course>
  <speed>0.0</speed>
  <fix>3d</fix>
</trkpt>
<trkpt lat="-27.274439" lon="151.290064">
  <ele>343.14</ele>
  <time>2026-09-01T19:51:22Z</time>
  <course>10.71</course>
  <speed>0.0</speed>
  <fix>3d</fix>
</trkpt>
<trkpt lat="-27.274439" lon="151.290064">
  <ele>343.1</ele>
  <time>2026-09-01T19:51:22Z</time>
  <course>270.0</course>
  <speed>0.0</speed>
  <fix>3d</fix>
</trkpt>
<trkpt lat="-27.274439" lon="151.290064">
  <ele>343.13</ele>
  <time>2026-09-01T19:51:22Z</time>
  <course>10.71</course>
  <speed>0.0</speed>
  <fix>3d</fix>
</trkpt>
<trkpt lat="-27.274439" lon="151.290064">
  <ele>343.1</ele>
  <time>2026-09-01T19:51:22Z</time>
  <course>270.0</course>
  <speed>0.0</speed>
  <fix>3d</fix>
</trkpt>
<trkpt lat="-27.274439" lon="151.290064">
  <ele>343.13</ele>
  <time>2026-09-01T19:51:22Z</time>
  <course>10.71</course>
  <speed>0.0</speed>
  <fix>3d</fix>
</trkpt>
<trkpt lat="-27.274439" lon="151.290064">
  <ele>343.1</ele>
  <time>2026-09-01T19:51:22Z</time>
  <course>270.0</course>
  <speed>0.0</speed>
  <fix>3d</fix>
</trkpt>
<trkpt lat="-27.274439" lon="151.290064">
  <ele>343.13</ele>
  <time>2026-09-01T19:51:22Z</time>
  <course>10.71</course>
  <speed>0.0</speed>
  <fix>3d</fix>
</trkpt>
<trkpt lat="-27.274439" lon="151.290064">
  <ele>343.1</ele>
  <time>2026-09-01T19:51:22Z</time>
  <course>270.0</course>
  <speed>0.0</speed>
  <fix>3d</fix>
</trkpt>
<trkpt lat="-27.274439" lon="151.290064">
  <ele>343.13</ele>
  <time>2026-09-01T19:51:22Z</time>
  <course>10.71</course>
  <speed>0.0</speed>
  <fix>3d</fix>
</trkpt>
<trkpt lat="-27.274439" lon="151.290064">
  <ele>343.1</ele>
  <time>2026-09-01T19:51:22Z</time>
  <course>270.0</course>
  <speed>0.0</speed>
  <fix>3d</fix>
</trkpt>
<trkpt lat="-27.274439" lon="151.290064">
  <ele>343.13</ele>
  <time>2026-09-01T19:51:22Z</time>
  <course>10.71</course>
  <speed>0.0</speed>
  <fix>3d</fix>
</trkpt>
<trkpt lat="-27.274439" lon="151.290064">
  <ele>343.1</ele>
  <time>2026-09-01T19:51:22Z</time>
  <course>270.0</course>
  <speed>0.0</speed>
  <fix>3d</fix>
</trkpt>
<trkpt lat="-27.274439" lon="151.290064">
  <ele>343.13</ele>
  <time>2026-09-01T19:51:22Z</time>
  <course>10.71</course>
  <speed>0.0</speed>
  <fix>3d</fix>
</trkpt>
<trkpt lat="-27.274439" lon="151.290064">
  <ele>343.1</ele>
  <time>2026-09-01T19:51:22Z</time>
  <course>270.0</course>
  <speed>0.0</speed>
  <fix>3d</fix>
</trkpt>
<trkpt lat="-27.274439" lon="151.290064">
  <ele>343.13</ele>
  <time>2026-09-01T19:51:22Z</time>
  <course>10.71</course>
  <speed>0.0</speed>
  <fix>3d</fix>
</trkpt>
<trkpt lat="-27.274439" lon="151.290064">
  <ele>343.1</ele>
  <time>2026-09-01T19:51:22Z</time>
  <course>270.0</course>
  <speed>0.0</speed>
  <fix>3d</fix>
</trkpt>
<trkpt lat="-27.274439" lon="151.290064">
  <ele>343.13</ele>
  <time>2026-09-01T19:51:22Z</time>
  <course>10.71</course>
  <speed>0.0</speed>
  <fix>3d</fix>
</trkpt>
<trkpt lat="-27.274439" lon="151.290064">
  <ele>343.1</ele>
  <time>2026-09-01T19:51:22Z</time>
  <course>270.0</course>
  <speed>0.0</speed>
  <fix>3d</fix>
</trkpt>
<trkpt lat="-27.274439" lon="151.290064">
  <ele>343.14</ele>
  <time>2026-09-01T19:51:22Z</time>
  <course>10.71</course>
  <speed>0.0</speed>
  <fix>3d</fix>
</trkpt>
<trkpt lat="-27.274439" lon="151.290064">
  <ele>343.1</ele>
  <time>2026-09-01T19:51:22Z</time>
  <course>270.0</course>
  <speed>0.0</speed>
  <fix>3d</fix>
</trkpt>
<trkpt lat="-27.274439" lon="151.290064">
  <ele>343.14</ele>
  <time>2026-09-01T19:51:22Z</time>
  <course>10.71</course>
  <speed>0.0</speed>
  <fix>3d</fix>
</trkpt>
<trkpt lat="-27.274439" lon="151.290064">
  <ele>343.1</ele>
  <time>2026-09-01T19:51:22Z</time>
  <course>270.0</course>
  <speed>0.0</speed>
  <fix>3d</fix>
</trkpt>
<trkpt lat="-27.274439" lon="151.290064">
  <ele>343.14</ele>
  <time>2026-09-01T19:51:22Z</time>
  <course>10.71</course>
  <speed>0.0</speed>
  <fix>3d</fix>
</trkpt>
<trkpt lat="-27.274439" lon="151.290064">
  <ele>343.1</ele>
  <time>2026-09-01T19:51:22Z</time>
  <course>270.0</course>
  <speed>0.0</speed>
  <fix>3d</fix>
</trkpt>
<trkpt lat="-27.274439" lon="151.290064">
  <ele>343.14</ele>
  <time>2026-09-01T19:51:22Z</time>
  <course>10.71</course>
  <speed>0.0</speed>
  <fix>3d</fix>
</trkpt>
<trkpt lat="-27.274439" lon="151.290064">
  <ele>343.1</ele>
  <time>2026-09-01T19:51:22Z</time>
  <course>270.0</course>
  <speed>0.0</speed>
  <fix>3d</fix>
</trkpt>
<trkpt lat="-27.274439" lon="151.290064">
  <ele>343.14</ele>
  <time>2026-09-01T19:51:22Z</time>
  <course>10.71</course>
  <speed>0.0</speed>
  <fix>3d</fix>
</trkpt>
<trkpt lat="-27.274439" lon="151.290064">
  <ele>343.1</ele>
  <time>2026-09-01T19:51:22Z</time>
  <course>270.0</course>
  <speed>0.0</speed>
  <fix>3d</fix>
</trkpt>
<trkpt lat="-27.274439" lon="151.290064">
  <ele>343.14</ele>
  <time>2026-09-01T19:51:22Z</time>
  <course>10.71</course>
  <speed>0.0</speed>
  <fix>3d</fix>
</trkpt>
<trkpt lat="-27.274439" lon="151.290064">
  <ele>343.1</ele>
  <time>2026-09-01T19:51:22Z</time>
  <course>270.0</course>
  <speed>0.0</speed>
  <fix>3d</fix>
</trkpt>
<trkpt lat="-27.274439" lon="151.290064">
  <ele>343.15</ele>
  <time>2026-09-01T19:51:22Z</time>
  <course>10.71</course>
  <speed>0.0</speed>
  <fix>3d</fix>
</trkpt>
<trkpt lat="-27.274439" lon="151.290064">
  <ele>343.1</ele>
  <time>2026-09-01T19:51:22Z</time>
  <course>270.0</course>
  <speed>0.0</speed>
  <fix>3d</fix>
</trkpt>
<trkpt lat="-27.274439" lon="151.290064">
  <ele>343.15</ele>
  <time>2026-09-01T19:51:22Z</time>
  <course>10.71</course>
  <speed>0.0</speed>
  <fix>3d</fix>
</trkpt>
<trkpt lat="-27.274439" lon="151.290064">
  <ele>343.1</ele>
  <time>2026-09-01T19:51:22Z</time>
  <course>270.0</course>
  <speed>0.0</speed>
  <fix>3d</fix>
</trkpt>
<trkpt lat="-27.274439" lon="151.290064">
  <ele>343.15</ele>
  <time>2026-09-01T19:51:22Z</time>
  <course>10.71</course>
  <speed>0.0</speed>
  <fix>3d</fix>
</trkpt>
<trkpt lat="-27.274439" lon="151.290064">
  <ele>343.1</ele>
  <time>2026-09-01T19:51:22Z</time>
  <course>270.0</course>
  <speed>0.0</speed>
  <fix>3d</fix>
</trkpt>
<trkpt lat="-27.274439" lon="151.290064">
  <ele>343.15</ele>
  <time>2026-09-01T19:51:22Z</time>
  <course>10.71</course>
  <speed>0.0</speed>
  <fix>3d</fix>
</trkpt>
<trkpt lat="-27.274439" lon="151.290064">
  <ele>343.1</ele>
  <time>2026-09-01T19:51:22Z</time>
  <course>270.0</course>
  <speed>0.0</speed>
  <fix>3d</fix>
</trkpt>
<trkpt lat="-27.274439" lon="151.290064">
  <ele>343.15</ele>
  <time>2026-09-01T19:51:22Z</time>
  <course>10.71</course>
  <speed>0.0</speed>
  <fix>3d</fix>
</trkpt>
<trkpt lat="-27.274439" lon="151.290064">
  <ele>343.1</ele>
  <time>2026-09-01T19:51:22Z</time>
  <course>270.0</course>
  <speed>0.0</speed>
  <fix>3d</fix>
</trkpt>
<trkpt lat="-27.274439" lon="151.290064">
  <ele>343.1</ele>
  <time>2026-09-01T19:51:22Z</time>
  <course>10.71</course>
  <speed>0.0</speed>
  <fix>3d</fix>
</trkpt>
<trkpt lat="-27.274439" lon="151.290064">
  <ele>343.1</ele>
  <time>2026-09-01T19:51:22Z</time>
  <course>270.0</course>
  <speed>0.0</speed>
  <fix>3d</fix>
</trkpt>
<trkpt lat="-27.274439" lon="151.290064">
  <ele>343.1</ele>
  <time>2026-09-01T19:51:23Z</time>
  <course>10.71</course>
  <speed>0.0</speed>
  <fix>3d</fix>
</trkpt>
<trkpt lat="-27.274439" lon="151.290064">
  <ele>343.1</ele>
  <time>2026-09-01T19:51:23Z</time>
  <course>270.0</course>
  <speed>0.0</speed>
  <fix>3d</fix>
</trkpt>
<trkpt lat="-27.274439" lon="151.290064">
  <ele>343.1</ele>
  <time>2026-09-01T19:51:23Z</time>
  <course>10.71</course>
  <speed>0.0</speed>
  <fix>3d</fix>
</trkpt>
<trkpt lat="-27.274439" lon="151.290064">
  <ele>343.1</ele>
  <time>2026-09-01T19:51:23Z</time>
  <course>270.0</course>
  <speed>0.0</speed>
  <fix>3d</fix>
</trkpt>
<trkpt lat="-27.274439" lon="151.290064">
  <ele>343.1</ele>
  <time>2026-09-01T19:51:23Z</time>
  <course>10.71</course>
  <speed>0.0</speed>
  <fix>3d</fix>
</trkpt>
<trkpt lat="-27.274439" lon="151.290064">
  <ele>343.1</ele>
  <time>2026-09-01T19:51:23Z</time>
  <course>270.0</course>
  <speed>0.0</speed>
  <fix>3d</fix>
</trkpt>
<trkpt lat="-27.274439" lon="151.290064">
  <ele>343.09</ele>
  <time>2026-09-01T19:51:23Z</time>
  <course>10.71</course>
  <speed>0.0</speed>
  <fix>3d</fix>
</trkpt>
<trkpt lat="-27.274439" lon="151.290064">
  <ele>343.1</ele>
  <time>2026-09-01T19:51:23Z</time>
  <course>270.0</course>
  <speed>0.0</speed>
  <fix>3d</fix>
</trkpt>
<trkpt lat="-27.274439" lon="151.290064">
  <ele>343.09</ele>
  <time>2026-09-01T19:51:23Z</time>
  <course>10.71</course>
  <speed>0.0</speed>
  <fix>3d</fix>
</trkpt>
<trkpt lat="-27.274439" lon="151.290064">
  <ele>343.1</ele>
  <time>2026-09-01T19:51:23Z</time>
  <course>270.0</course>
  <speed>0.0</speed>
  <fix>3d</fix>
</trkpt>
<trkpt lat="-27.274439" lon="151.290064">
  <ele>343.08</ele>
  <time>2026-09-01T19:51:23Z</time>
  <course>10.71</course>
  <speed>0.0</speed>
  <fix>3d</fix>
</trkpt>
<trkpt lat="-27.274439" lon="151.290064">
  <ele>343.1</ele>
  <time>2026-09-01T19:51:23Z</time>
  <course>270.0</course>
  <speed>0.0</speed>
  <fix>3d</fix>
</trkpt>
<trkpt lat="-27.274439" lon="151.290064">
  <ele>343.08</ele>
  <time>2026-09-01T19:51:23Z</time>
  <course>10.71</course>
  <speed>0.0</speed>
  <fix>3d</fix>
</trkpt>
<trkpt lat="-27.274439" lon="151.290064">
  <ele>343.1</ele>
  <time>2026-09-01T19:51:23Z</time>
  <course>270.0</course>
  <speed>0.0</speed>
  <fix>3d</fix>
</trkpt>
<trkpt lat="-27.274439" lon="151.290064">
  <ele>343.07</ele>
  <time>2026-09-01T19:51:23Z</time>
  <course>10.71</course>
  <speed>0.0</speed>
  <fix>3d</fix>
</trkpt>
<trkpt lat="-27.274439" lon="151.290064">
  <ele>343.1</ele>
  <time>2026-09-01T19:51:23Z</time>
  <course>270.0</course>
  <speed>0.0</speed>
  <fix>3d</fix>
</trkpt>
<trkpt lat="-27.274439" lon="151.290064">
  <ele>343.07</ele>
  <time>2026-09-01T19:51:23Z</time>
  <course>10.71</course>
  <speed>0.0</speed>
  <fix>3d</fix>
</trkpt>
<trkpt lat="-27.274439" lon="151.290064">
  <ele>343.1</ele>
  <time>2026-09-01T19:51:23Z</time>
  <course>270.0</course>
  <speed>0.0</speed>
  <fix>3d</fix>
</trkpt>
<trkpt lat="-27.274439" lon="151.290064">
  <ele>343.06</ele>
  <time>2026-09-01T19:51:23Z</time>
  <course>10.71</course>
  <speed>0.0</speed>
  <fix>3d</fix>
</trkpt>
<trkpt lat="-27.274439" lon="151.290064">
  <ele>343.1</ele>
  <time>2026-09-01T19:51:23Z</time>
  <course>270.0</course>
  <speed>0.0</speed>
  <fix>3d</fix>
</trkpt>
<trkpt lat="-27.274439" lon="151.290064">
  <ele>343.06</ele>
  <time>2026-09-01T19:51:23Z</time>
  <course>10.71</course>
  <speed>0.0</speed>
  <fix>3d</fix>
</trkpt>
<trkpt lat="-27.274439" lon="151.290064">
  <ele>343.1</ele>
  <time>2026-09-01T19:51:23Z</time>
  <course>270.0</course>
  <speed>0.0</speed>
  <fix>3d</fix>
</trkpt>
<trkpt lat="-27.274439" lon="151.290064">
  <ele>343.05</ele>
  <time>2026-09-01T19:51:23Z</time>
  <course>10.71</course>
  <speed>0.0</speed>
  <fix>3d</fix>
</trkpt>
<trkpt lat="-27.274439" lon="151.290064">
  <ele>343.1</ele>
  <time>2026-09-01T19:51:23Z</time>
  <course>270.0</course>
  <speed>0.0</speed>
  <fix>3d</fix>
</trkpt>
<trkpt lat="-27.274439" lon="151.290064">
  <ele>343.05</ele>
  <time>2026-09-01T19:51:23Z</time>
  <course>10.71</course>
  <speed>0.0</speed>
  <fix>3d</fix>
</trkpt>
<trkpt lat="-27.274439" lon="151.290064">
  <ele>343.1</ele>
  <time>2026-09-01T19:51:23Z</time>
  <course>270.0</course>
  <speed>0.0</speed>
  <fix>3d</fix>
</trkpt>
<trkpt lat="-27.274439" lon="151.290064">
  <ele>343.04</ele>
  <time>2026-09-01T19:51:23Z</time>
  <course>10.71</course>
  <speed>0.0</speed>
  <fix>3d</fix>
</trkpt>
<trkpt lat="-27.274439" lon="151.290064">
  <ele>343.1</ele>
  <time>2026-09-01T19:51:23Z</time>
  <course>270.0</course>
  <speed>0.0</speed>
  <fix>3d</fix>
</trkpt>
<trkpt lat="-27.274439" lon="151.290064">
  <ele>343.03</ele>
  <time>2026-09-01T19:51:23Z</time>
  <course>10.71</course>
  <speed>0.0</speed>
  <fix>3d</fix>
</trkpt>
<trkpt lat="-27.274439" lon="151.290064">
  <ele>343.1</ele>
  <time>2026-09-01T19:51:23Z</time>
  <course>270.0</course>
  <speed>0.0</speed>
  <fix>3d</fix>
</trkpt>
<trkpt lat="-27.274439" lon="151.290064">
  <ele>343.03</ele>
  <time>2026-09-01T19:51:23Z</time>
  <course>10.71</course>
  <speed>0.0</speed>
  <fix>3d</fix>
</trkpt>
<trkpt lat="-27.274439" lon="151.290064">
  <ele>343.1</ele>
  <time>2026-09-01T19:51:23Z</time>
  <course>270.0</course>
  <speed>0.0</speed>
  <fix>3d</fix>
</trkpt>
<trkpt lat="-27.274439" lon="151.290064">
  <ele>343.02</ele>
  <time>2026-09-01T19:51:23Z</time>
  <course>10.71</course>
  <speed>0.0</speed>
  <fix>3d</fix>
</trkpt>
<trkpt lat="-27.274439" lon="151.290064">
  <ele>343.1</ele>
  <time>2026-09-01T19:51:23Z</time>
  <course>270.0</course>
  <speed>0.0</speed>
  <fix>3d</fix>
</trkpt>
<trkpt lat="-27.274439" lon="151.290064">
  <ele>343.02</ele>
  <time>2026-09-01T19:51:23Z</time>
  <course>10.71</course>
  <speed>0.0</speed>
  <fix>3d</fix>
</trkpt>
<trkpt lat="-27.274439" lon="151.290064">
  <ele>343.1</ele>
  <time>2026-09-01T19:51:23Z</time>
  <course>270.0</course>
  <speed>0.0</speed>
  <fix>3d</fix>
</trkpt>
<trkpt lat="-27.274439" lon="151.290064">
  <ele>343.01</ele>
  <time>2026-09-01T19:51:23Z</time>
  <course>10.71</course>
  <speed>0.0</speed>
  <fix>3d</fix>
</trkpt>
<trkpt lat="-27.274439" lon="151.290064">
  <ele>343.1</ele>
  <time>2026-09-01T19:51:23Z</time>
  <course>270.0</course>
  <speed>0.0</speed>
  <fix>3d</fix>
</trkpt>
<trkpt lat="-27.274439" lon="151.290064">
  <ele>343.0</ele>
  <time>2026-09-01T19:51:23Z</time>
  <course>10.71</course>
  <speed>0.0</speed>
  <fix>3d</fix>
</trkpt>
<trkpt lat="-27.274439" lon="151.290064">
  <ele>343.1</ele>
  <time>2026-09-01T19:51:23Z</time>
  <course>270.0</course>
  <speed>0.0</speed>
  <fix>3d</fix>
</trkpt>
<trkpt lat="-27.274439" lon="151.290064">
  <ele>343.0</ele>
  <time>2026-09-01T19:51:23Z</time>
  <course>10.71</course>
  <speed>0.0</speed>
  <fix>3d</fix>
</trkpt>
<trkpt lat="-27.274439" lon="151.290064">
  <ele>343.1</ele>
  <time>2026-09-01T19:51:23Z</time>
  <course>270.0</course>
  <speed>0.0</speed>
  <fix>3d</fix>
</trkpt>
<trkpt lat="-27.274439" lon="151.290064">
  <ele>342.99</ele>
  <time>2026-09-01T19:51:23Z</time>
  <course>10.71</course>
  <speed>0.0</speed>
  <fix>3d</fix>
</trkpt>
<trkpt lat="-27.274439" lon="151.290064">
  <ele>343.1</ele>
  <time>2026-09-01T19:51:23Z</time>
  <course>270.0</course>
  <speed>0.0</speed>
  <fix>3d</fix>
</trkpt>
<trkpt lat="-27.274439" lon="151.290064">
  <ele>342.99</ele>
  <time>2026-09-01T19:51:23Z</time>
  <course>10.71</course>
  <speed>0.0</speed>
  <fix>3d</fix>
</trkpt>
<trkpt lat="-27.274439" lon="151.290064">
  <ele>343.1</ele>
  <time>2026-09-01T19:51:23Z</time>
  <course>270.0</course>
  <speed>0.0</speed>
  <fix>3d</fix>
</trkpt>
<trkpt lat="-27.274439" lon="151.290064">
  <ele>342.99</ele>
  <time>2026-09-01T19:51:23Z</time>
  <course>10.71</course>
  <speed>0.0</speed>
  <fix>3d</fix>
</trkpt>
<trkpt lat="-27.274439" lon="151.290064">
  <ele>343.1</ele>
  <time>2026-09-01T19:51:23Z</time>
  <course>270.0</course>
  <speed>0.0</speed>
  <fix>3d</fix>
</trkpt>
<trkpt lat="-27.274439" lon="151.290064">
  <ele>342.99</ele>
  <time>2026-09-01T19:51:23Z</time>
  <course>10.71</course>
  <speed>0.0</speed>
  <fix>3d</fix>
</trkpt>
<trkpt lat="-27.274439" lon="151.290064">
  <ele>343.1</ele>
  <time>2026-09-01T19:51:23Z</time>
  <course>270.0</course>
  <speed>0.0</speed>
  <fix>3d</fix>
</trkpt>
<trkpt lat="-27.274439" lon="151.290064">
  <ele>342.99</ele>
  <time>2026-09-01T19:51:23Z</time>
  <course>10.71</course>
  <speed>0.0</speed>
  <fix>3d</fix>
</trkpt>
<trkpt lat="-27.274439" lon="151.290064">
  <ele>343.1</ele>
  <time>2026-09-01T19:51:23Z</time>
  <course>270.0</course>
  <speed>0.0</speed>
  <fix>3d</fix>
</trkpt>
<trkpt lat="-27.274439" lon="151.290064">
  <ele>342.98</ele>
  <time>2026-09-01T19:51:23Z</time>
  <course>10.71</course>
  <speed>0.0</speed>
  <fix>3d</fix>
</trkpt>
<trkpt lat="-27.274439" lon="151.290064">
  <ele>343.1</ele>
  <time>2026-09-01T19:51:23Z</time>
  <course>270.0</course>
  <speed>0.0</speed>
  <fix>3d</fix>
</trkpt>
<trkpt lat="-27.274439" lon="151.290064">
  <ele>342.98</ele>
  <time>2026-09-01T19:51:23Z</time>
  <course>10.71</course>
  <speed>0.0</speed>
  <fix>3d</fix>
</trkpt>
<trkpt lat="-27.274439" lon="151.290064">
  <ele>343.1</ele>
  <time>2026-09-01T19:51:23Z</time>
  <course>270.0</course>
  <speed>0.0</speed>
  <fix>3d</fix>
</trkpt>
<trkpt lat="-27.274439" lon="151.290064">
  <ele>342.98</ele>
  <time>2026-09-01T19:51:23Z</time>
  <course>10.71</course>
  <speed>0.0</speed>
  <fix>3d</fix>
</trkpt>
<trkpt lat="-27.274439" lon="151.290064">
  <ele>343.1</ele>
  <time>2026-09-01T19:51:23Z</time>
  <course>270.0</course>
  <speed>0.0</speed>
  <fix>3d</fix>
</trkpt>
<trkpt lat="-27.274439" lon="151.290064">
  <ele>342.98</ele>
  <time>2026-09-01T19:51:23Z</time>
  <course>10.71</course>
  <speed>0.0</speed>
  <fix>3d</fix>
</trkpt>
<trkpt lat="-27.274439" lon="151.290064">
  <ele>343.1</ele>
  <time>2026-09-01T19:51:23Z</time>
  <course>270.0</course>
  <speed>0.0</speed>
  <fix>3d</fix>
</trkpt>
<trkpt lat="-27.274439" lon="151.290064">
  <ele>342.97</ele>
  <time>2026-09-01T19:51:23Z</time>
  <course>10.71</course>
  <speed>0.0</speed>
  <fix>3d</fix>
</trkpt>
<trkpt lat="-27.274439" lon="151.290064">
  <ele>343.1</ele>
  <time>2026-09-01T19:51:23Z</time>
  <course>270.0</course>
  <speed>0.0</speed>
  <fix>3d</fix>
</trkpt>
<trkpt lat="-27.274439" lon="151.290064">
  <ele>342.97</ele>
  <time>2026-09-01T19:51:23Z</time>
  <course>10.71</course>
  <speed>0.0</speed>
  <fix>3d</fix>
</trkpt>
<trkpt lat="-27.274439" lon="151.290064">
  <ele>343.1</ele>
  <time>2026-09-01T19:51:23Z</time>
  <course>270.0</course>
  <speed>0.0</speed>
  <fix>3d</fix>
</trkpt>
<trkpt lat="-27.274439" lon="151.290064">
  <ele>342.97</ele>
  <time>2026-09-01T19:51:23Z</time>
  <course>10.71</course>
  <speed>0.0</speed>
  <fix>3d</fix>
</trkpt>
<trkpt lat="-27.274439" lon="151.290064">
  <ele>343.1</ele>
  <time>2026-09-01T19:51:23Z</time>
  <course>270.0</course>
  <speed>0.0</speed>
  <fix>3d</fix>
</trkpt>
<trkpt lat="-27.274439" lon="151.290064">
  <ele>342.96</ele>
  <time>2026-09-01T19:51:23Z</time>
  <course>10.71</course>
  <speed>0.0</speed>
  <fix>3d</fix>
</trkpt>
<trkpt lat="-27.274439" lon="151.290064">
  <ele>343.1</ele>
  <time>2026-09-01T19:51:23Z</time>
  <course>270.0</course>
  <speed>0.0</speed>
  <fix>3d</fix>
</trkpt>
<trkpt lat="-27.274439" lon="151.290064">
  <ele>342.96</ele>
  <time>2026-09-01T19:51:23Z</time>
  <course>10.71</course>
  <speed>0.0</speed>
  <fix>3d</fix>
</trkpt>
<trkpt lat="-27.274439" lon="151.290064">
  <ele>343.1</ele>
  <time>2026-09-01T19:51:23Z</time>
  <course>270.0</course>
  <speed>0.0</speed>
  <fix>3d</fix>
</trkpt>
<trkpt lat="-27.274439" lon="151.290064">
  <ele>342.96</ele>
  <time>2026-09-01T19:51:23Z</time>
  <course>10.71</course>
  <speed>0.0</speed>
  <fix>3d</fix>
</trkpt>
<trkpt lat="-27.274439" lon="151.290064">
  <ele>343.1</ele>
  <time>2026-09-01T19:51:23Z</time>
  <course>270.0</course>
  <speed>0.0</speed>
  <fix>3d</fix>
</trkpt>
<trkpt lat="-27.274439" lon="151.290064">
  <ele>342.96</ele>
  <time>2026-09-01T19:51:23Z</time>
  <course>10.71</course>
  <speed>0.0</speed>
  <fix>3d</fix>
</trkpt>
<trkpt lat="-27.274439" lon="151.290064">
  <ele>343.1</ele>
  <time>2026-09-01T19:51:23Z</time>
  <course>270.0</course>
  <speed>0.0</speed>
  <fix>3d</fix>
</trkpt>
<trkpt lat="-27.274439" lon="151.290064">
  <ele>342.96</ele>
  <time>2026-09-01T19:51:23Z</time>
  <course>10.71</course>
  <speed>0.0</speed>
  <fix>3d</fix>
</trkpt>
<trkpt lat="-27.274439" lon="151.290064">
  <ele>343.1</ele>
  <time>2026-09-01T19:51:23Z</time>
  <course>270.0</course>
  <speed>0.0</speed>
  <fix>3d</fix>
</trkpt>
<trkpt lat="-27.274439" lon="151.290064">
  <ele>342.96</ele>
  <time>2026-09-01T19:51:23Z</time>
  <course>10.71</course>
  <speed>0.0</speed>
  <fix>3d</fix>
</trkpt>
<trkpt lat="-27.274439" lon="151.290064">
  <ele>343.1</ele>
  <time>2026-09-01T19:51:23Z</time>
  <course>270.0</course>
  <speed>0.0</speed>
  <fix>3d</fix>
</trkpt>
<trkpt lat="-27.274439" lon="151.290064">
  <ele>342.95</ele>
  <time>2026-09-01T19:51:23Z</time>
  <course>10.71</course>
  <speed>0.0</speed>
  <fix>3d</fix>
</trkpt>
<trkpt lat="-27.274439" lon="151.290064">
  <ele>343.1</ele>
  <time>2026-09-01T19:51:23Z</time>
  <course>270.0</course>
  <speed>0.0</speed>
  <fix>3d</fix>
</trkpt>
<trkpt lat="-27.274439" lon="151.290064">
  <ele>342.95</ele>
  <time>2026-09-01T19:51:23Z</time>
  <course>10.7</course>
  <speed>0.0</speed>
  <fix>3d</fix>
</trkpt>
<trkpt lat="-27.274439" lon="151.290064">
  <ele>343.1</ele>
  <time>2026-09-01T19:51:23Z</time>
  <course>270.0</course>
  <speed>0.0</speed>
  <fix>3d</fix>
</trkpt>
<trkpt lat="-27.274439" lon="151.290064">
  <ele>342.95</ele>
  <time>2026-09-01T19:51:23Z</time>
  <course>10.7</course>
  <speed>0.0</speed>
  <fix>3d</fix>
</trkpt>
<trkpt lat="-27.274439" lon="151.290064">
  <ele>343.1</ele>
  <time>2026-09-01T19:51:23Z</time>
  <course>270.0</course>
  <speed>0.0</speed>
  <fix>3d</fix>
</trkpt>
<trkpt lat="-27.274439" lon="151.290064">
  <ele>342.95</ele>
  <time>2026-09-01T19:51:23Z</time>
  <course>10.7</course>
  <speed>0.0</speed>
  <fix>3d</fix>
</trkpt>
<trkpt lat="-27.274439" lon="151.290064">
  <ele>343.1</ele>
  <time>2026-09-01T19:51:23Z</time>
  <course>270.0</course>
  <speed>0.0</speed>
  <fix>3d</fix>
</trkpt>
<trkpt lat="-27.274439" lon="151.290064">
  <ele>342.95</ele>
  <time>2026-09-01T19:51:23Z</time>
  <course>10.7</course>
  <speed>0.0</speed>
  <fix>3d</fix>
</trkpt>
<trkpt lat="-27.274439" lon="151.290064">
  <ele>343.1</ele>
  <time>2026-09-01T19:51:23Z</time>
  <course>270.0</course>
  <speed>0.0</speed>
  <fix>3d</fix>
</trkpt>
<trkpt lat="-27.274439" lon="151.290064">
  <ele>342.95</ele>
  <time>2026-09-01T19:51:23Z</time>
  <course>10.7</course>
  <speed>0.0</speed>
  <fix>3d</fix>
</trkpt>
<trkpt lat="-27.274439" lon="151.290064">
  <ele>343.1</ele>
  <time>2026-09-01T19:51:23Z</time>
  <course>270.0</course>
  <speed>0.0</speed>
  <fix>3d</fix>
</trkpt>
<trkpt lat="-27.274439" lon="151.290064">
  <ele>342.94</ele>
  <time>2026-09-01T19:51:23Z</time>
  <course>10.7</course>
  <speed>0.0</speed>
  <fix>3d</fix>
</trkpt>
<trkpt lat="-27.274439" lon="151.290064">
  <ele>343.1</ele>
  <time>2026-09-01T19:51:23Z</time>
  <course>270.0</course>
  <speed>0.0</speed>
  <fix>3d</fix>
</trkpt>
<trkpt lat="-27.274439" lon="151.290064">
  <ele>342.94</ele>
  <time>2026-09-01T19:51:23Z</time>
  <course>10.7</course>
  <speed>0.0</speed>
  <fix>3d</fix>
</trkpt>
<trkpt lat="-27.274439" lon="151.290064">
  <ele>343.1</ele>
  <time>2026-09-01T19:51:23Z</time>
  <course>270.0</course>
  <speed>0.0</speed>
  <fix>3d</fix>
</trkpt>
<trkpt lat="-27.274439" lon="151.290064">
  <ele>342.94</ele>
  <time>2026-09-01T19:51:23Z</time>
  <course>10.7</course>
  <speed>0.0</speed>
  <fix>3d</fix>
</trkpt>
<trkpt lat="-27.274439" lon="151.290064">
  <ele>343.1</ele>
  <time>2026-09-01T19:51:23Z</time>
  <course>270.0</course>
  <speed>0.0</speed>
  <fix>3d</fix>
</trkpt>
<trkpt lat="-27.274439" lon="151.290064">
  <ele>342.94</ele>
  <time>2026-09-01T19:51:23Z</time>
  <course>10.7</course>
  <speed>0.0</speed>
  <fix>3d</fix>
</trkpt>
<trkpt lat="-27.274439" lon="151.290064">
  <ele>343.1</ele>
  <time>2026-09-01T19:51:23Z</time>
  <course>270.0</course>
  <speed>0.0</speed>
  <fix>3d</fix>
</trkpt>
<trkpt lat="-27.274439" lon="151.290064">
  <ele>342.94</ele>
  <time>2026-09-01T19:51:23Z</time>
  <course>10.7</course>
  <speed>0.0</speed>
  <fix>3d</fix>
</trkpt>
<trkpt lat="-27.274439" lon="151.290064">
  <ele>343.1</ele>
  <time>2026-09-01T19:51:23Z</time>
  <course>270.0</course>
  <speed>0.0</speed>
  <fix>3d</fix>
</trkpt>
<trkpt lat="-27.274439" lon="151.290064">
  <ele>342.93</ele>
  <time>2026-09-01T19:51:23Z</time>
  <course>10.7</course>
  <speed>0.0</speed>
  <fix>3d</fix>
</trkpt>
<trkpt lat="-27.274439" lon="151.290064">
  <ele>343.1</ele>
  <time>2026-09-01T19:51:23Z</time>
  <course>270.0</course>
  <speed>0.0</speed>
  <fix>3d</fix>
</trkpt>
<trkpt lat="-27.274439" lon="151.290064">
  <ele>342.93</ele>
  <time>2026-09-01T19:51:23Z</time>
  <course>10.7</course>
  <speed>0.0</speed>
  <fix>3d</fix>
</trkpt>
<trkpt lat="-27.274439" lon="151.290064">
  <ele>343.1</ele>
  <time>2026-09-01T19:51:23Z</time>
  <course>270.0</course>
  <speed>0.0</speed>
  <fix>3d</fix>
</trkpt>
<trkpt lat="-27.274439" lon="151.290064">
  <ele>342.93</ele>
  <time>2026-09-01T19:51:23Z</time>
  <course>10.7</course>
  <speed>0.0</speed>
  <fix>3d</fix>
</trkpt>
<trkpt lat="-27.274439" lon="151.290064">
  <ele>343.1</ele>
  <time>2026-09-01T19:51:23Z</time>
  <course>270.0</course>
  <speed>0.0</speed>
  <fix>3d</fix>
</trkpt>
<trkpt lat="-27.274439" lon="151.290064">
  <ele>342.93</ele>
  <time>2026-09-01T19:51:23Z</time>
  <course>10.7</course>
  <speed>0.0</speed>
  <fix>3d</fix>
</trkpt>
<trkpt lat="-27.274439" lon="151.290064">
  <ele>343.1</ele>
  <time>2026-09-01T19:51:23Z</time>
  <course>270.0</course>
  <speed>0.0</speed>
  <fix>3d</fix>
</trkpt>
<trkpt lat="-27.274439" lon="151.290064">
  <ele>342.93</ele>
  <time>2026-09-01T19:51:23Z</time>
  <course>10.7</course>
  <speed>0.0</speed>
  <fix>3d</fix>
</trkpt>
<trkpt lat="-27.274439" lon="151.290064">
  <ele>343.1</ele>
  <time>2026-09-01T19:51:23Z</time>
  <course>270.0</course>
  <speed>0.0</speed>
  <fix>3d</fix>
</trkpt>
<trkpt lat="-27.274439" lon="151.290064">
  <ele>342.93</ele>
  <time>2026-09-01T19:51:23Z</time>
  <course>10.7</course>
  <speed>0.0</speed>
  <fix>3d</fix>
</trkpt>
<trkpt lat="-27.274439" lon="151.290064">
  <ele>343.1</ele>
  <time>2026-09-01T19:51:23Z</time>
  <course>270.0</course>
  <speed>0.0</speed>
  <fix>3d</fix>
</trkpt>
<trkpt lat="-27.274439" lon="151.290064">
  <ele>342.93</ele>
  <time>2026-09-01T19:51:23Z</time>
  <course>10.7</course>
  <speed>0.01</speed>
  <fix>3d</fix>
</trkpt>
<trkpt lat="-27.274439" lon="151.290064">
  <ele>343.1</ele>
  <time>2026-09-01T19:51:23Z</time>
  <course>270.0</course>
  <speed>0.0</speed>
  <fix>3d</fix>
</trkpt>
<trkpt lat="-27.274439" lon="151.290064">
  <ele>342.93</ele>
  <time>2026-09-01T19:51:23Z</time>
  <course>10.7</course>
  <speed>0.01</speed>
  <fix>3d</fix>
</trkpt>
<trkpt lat="-27.274439" lon="151.290064">
  <ele>343.1</ele>
  <time>2026-09-01T19:51:23Z</time>
  <course>270.0</course>
  <speed>0.0</speed>
  <fix>3d</fix>
</trkpt>
<trkpt lat="-27.274439" lon="151.290064">
  <ele>342.92</ele>
  <time>2026-09-01T19:51:23Z</time>
  <course>10.7</course>
  <speed>0.01</speed>
  <fix>3d</fix>
</trkpt>
<trkpt lat="-27.274439" lon="151.290064">
  <ele>343.1</ele>
  <time>2026-09-01T19:51:23Z</time>
  <course>270.0</course>
  <speed>0.0</speed>
  <fix>3d</fix>
</trkpt>
<trkpt lat="-27.274439" lon="151.290064">
  <ele>343.09</ele>
  <time>2026-09-01T19:51:23Z</time>
  <course>10.7</course>
  <speed>0.01</speed>
  <fix>3d</fix>
</trkpt>
<trkpt lat="-27.274439" lon="151.290064">
  <ele>343.1</ele>
  <time>2026-09-01T19:51:23Z</time>
  <course>270.0</course>
  <speed>0.0</speed>
  <fix>3d</fix>
</trkpt>
<trkpt lat="-27.274439" lon="151.290064">
  <ele>343.09</ele>
  <time>2026-09-01T19:51:23Z</time>
  <course>10.7</course>
  <speed>0.01</speed>
  <fix>3d</fix>
</trkpt>
<trkpt lat="-27.274439" lon="151.290064">
  <ele>343.1</ele>
  <time>2026-09-01T19:51:23Z</time>
  <course>270.0</course>
  <speed>0.0</speed>
  <fix>3d</fix>
</trkpt>
<trkpt lat="-27.274439" lon="151.290064">
  <ele>343.09</ele>
  <time>2026-09-01T19:51:23Z</time>
  <course>10.7</course>
  <speed>0.01</speed>
  <fix>3d</fix>
</trkpt>
<trkpt lat="-27.274439" lon="151.290064">
  <ele>343.1</ele>
  <time>2026-09-01T19:51:23Z</time>
  <course>270.0</course>
  <speed>0.0</speed>
  <fix>3d</fix>
</trkpt>
<trkpt lat="-27.274439" lon="151.290064">
  <ele>343.09</ele>
  <time>2026-09-01T19:51:23Z</time>
  <course>10.7</course>
  <speed>0.01</speed>
  <fix>3d</fix>
</trkpt>
<trkpt lat="-27.274439" lon="151.290064">
  <ele>343.1</ele>
  <time>2026-09-01T19:51:23Z</time>
  <course>270.0</course>
  <speed>0.0</speed>
  <fix>3d</fix>
</trkpt>
<trkpt lat="-27.274439" lon="151.290064">
  <ele>343.09</ele>
  <time>2026-09-01T19:51:23Z</time>
  <course>10.7</course>
  <speed>0.01</speed>
  <fix>3d</fix>
</trkpt>
<trkpt lat="-27.274439" lon="151.290064">
  <ele>343.1</ele>
  <time>2026-09-01T19:51:23Z</time>
  <course>270.0</course>
  <speed>0.0</speed>
  <fix>3d</fix>
</trkpt>
<trkpt lat="-27.274439" lon="151.290064">
  <ele>343.08</ele>
  <time>2026-09-01T19:51:23Z</time>
  <course>10.7</course>
  <speed>0.01</speed>
  <fix>3d</fix>
</trkpt>
<trkpt lat="-27.274439" lon="151.290064">
  <ele>343.1</ele>
  <time>2026-09-01T19:51:23Z</time>
  <course>270.0</course>
  <speed>0.0</speed>
  <fix>3d</fix>
</trkpt>
<trkpt lat="-27.274439" lon="151.290064">
  <ele>343.08</ele>
  <time>2026-09-01T19:51:23Z</time>
  <course>10.7</course>
  <speed>0.01</speed>
  <fix>3d</fix>
</trkpt>
<trkpt lat="-27.274439" lon="151.290064">
  <ele>343.1</ele>
  <time>2026-09-01T19:51:23Z</time>
  <course>270.0</course>
  <speed>0.0</speed>
  <fix>3d</fix>
</trkpt>
<trkpt lat="-27.274439" lon="151.290064">
  <ele>343.07</ele>
  <time>2026-09-01T19:51:23Z</time>
  <course>10.7</course>
  <speed>0.01</speed>
  <fix>3d</fix>
</trkpt>
<trkpt lat="-27.274439" lon="151.290064">
  <ele>343.1</ele>
  <time>2026-09-01T19:51:23Z</time>
  <course>270.0</course>
  <speed>0.0</speed>
  <fix>3d</fix>
</trkpt>
<trkpt lat="-27.274439" lon="151.290064">
  <ele>343.07</ele>
  <time>2026-09-01T19:51:23Z</time>
  <course>10.7</course>
  <speed>0.01</speed>
  <fix>3d</fix>
</trkpt>
<trkpt lat="-27.274439" lon="151.290064">
  <ele>343.1</ele>
  <time>2026-09-01T19:51:23Z</time>
  <course>270.0</course>
  <speed>0.0</speed>
  <fix>3d</fix>
</trkpt>
<trkpt lat="-27.274439" lon="151.290064">
  <ele>343.07</ele>
  <time>2026-09-01T19:51:23Z</time>
  <course>10.7</course>
  <speed>0.01</speed>
  <fix>3d</fix>
</trkpt>
<trkpt lat="-27.274439" lon="151.290064">
  <ele>343.1</ele>
  <time>2026-09-01T19:51:23Z</time>
  <course>270.0</course>
  <speed>0.0</speed>
  <fix>3d</fix>
</trkpt>
<trkpt lat="-27.274439" lon="151.290064">
  <ele>343.06</ele>
  <time>2026-09-01T19:51:23Z</time>
  <course>10.7</course>
  <speed>0.01</speed>
  <fix>3d</fix>
</trkpt>
<trkpt lat="-27.274439" lon="151.290064">
  <ele>343.1</ele>
  <time>2026-09-01T19:51:23Z</time>
  <course>270.0</course>
  <speed>0.0</speed>
  <fix>3d</fix>
</trkpt>
<trkpt lat="-27.274439" lon="151.290064">
  <ele>343.06</ele>
  <time>2026-09-01T19:51:23Z</time>
  <course>10.7</course>
  <speed>0.01</speed>
  <fix>3d</fix>
</trkpt>
<trkpt lat="-27.274439" lon="151.290064">
  <ele>343.1</ele>
  <time>2026-09-01T19:51:23Z</time>
  <course>270.0</course>
  <speed>0.0</speed>
  <fix>3d</fix>
</trkpt>
<trkpt lat="-27.274439" lon="151.290064">
  <ele>343.05</ele>
  <time>2026-09-01T19:51:23Z</time>
  <course>10.7</course>
  <speed>0.01</speed>
  <fix>3d</fix>
</trkpt>
<trkpt lat="-27.274439" lon="151.290064">
  <ele>343.1</ele>
  <time>2026-09-01T19:51:23Z</time>
  <course>270.0</course>
  <speed>0.0</speed>
  <fix>3d</fix>
</trkpt>
<trkpt lat="-27.274439" lon="151.290064">
  <ele>343.05</ele>
  <time>2026-09-01T19:51:23Z</time>
  <course>10.7</course>
  <speed>0.01</speed>
  <fix>3d</fix>
</trkpt>
<trkpt lat="-27.274439" lon="151.290064">
  <ele>343.1</ele>
  <time>2026-09-01T19:51:23Z</time>
  <course>270.0</course>
  <speed>0.0</speed>
  <fix>3d</fix>
</trkpt>
<trkpt lat="-27.274439" lon="151.290064">
  <ele>343.04</ele>
  <time>2026-09-01T19:51:23Z</time>
  <course>10.7</course>
  <speed>0.01</speed>
  <fix>3d</fix>
</trkpt>
<trkpt lat="-27.274439" lon="151.290064">
  <ele>343.1</ele>
  <time>2026-09-01T19:51:23Z</time>
  <course>270.0</course>
  <speed>0.0</speed>
  <fix>3d</fix>
</trkpt>
<trkpt lat="-27.274439" lon="151.290064">
  <ele>343.04</ele>
  <time>2026-09-01T19:51:23Z</time>
  <course>10.7</course>
  <speed>0.01</speed>
  <fix>3d</fix>
</trkpt>
<trkpt lat="-27.274439" lon="151.290064">
  <ele>343.1</ele>
  <time>2026-09-01T19:51:23Z</time>
  <course>270.0</course>
  <speed>0.0</speed>
  <fix>3d</fix>
</trkpt>
<trkpt lat="-27.274439" lon="151.290064">
  <ele>343.03</ele>
  <time>2026-09-01T19:51:23Z</time>
  <course>10.7</course>
  <speed>0.01</speed>
  <fix>3d</fix>
</trkpt>
<trkpt lat="-27.274439" lon="151.290064">
  <ele>343.1</ele>
  <time>2026-09-01T19:51:23Z</time>
  <course>270.0</course>
  <speed>0.0</speed>
  <fix>3d</fix>
</trkpt>
<trkpt lat="-27.274439" lon="151.290064">
  <ele>343.03</ele>
  <time>2026-09-01T19:51:23Z</time>
  <course>10.7</course>
  <speed>0.01</speed>
  <fix>3d</fix>
</trkpt>
<trkpt lat="-27.274439" lon="151.290064">
  <ele>343.1</ele>
  <time>2026-09-01T19:51:23Z</time>
  <course>270.0</course>
  <speed>0.0</speed>
  <fix>3d</fix>
</trkpt>
<trkpt lat="-27.274439" lon="151.290064">
  <ele>343.03</ele>
  <time>2026-09-01T19:51:23Z</time>
  <course>10.7</course>
  <speed>0.01</speed>
  <fix>3d</fix>
</trkpt>
<trkpt lat="-27.274439" lon="151.290064">
  <ele>343.1</ele>
  <time>2026-09-01T19:51:23Z</time>
  <course>270.0</course>
  <speed>0.0</speed>
  <fix>3d</fix>
</trkpt>
<trkpt lat="-27.274439" lon="151.290064">
  <ele>343.02</ele>
  <time>2026-09-01T19:51:23Z</time>
  <course>10.7</course>
  <speed>0.01</speed>
  <fix>3d</fix>
</trkpt>
<trkpt lat="-27.274439" lon="151.290064">
  <ele>343.1</ele>
  <time>2026-09-01T19:51:23Z</time>
  <course>270.0</course>
  <speed>0.0</speed>
  <fix>3d</fix>
</trkpt>
<trkpt lat="-27.274439" lon="151.290064">
  <ele>343.02</ele>
  <time>2026-09-01T19:51:23Z</time>
  <course>10.7</course>
  <speed>0.01</speed>
  <fix>3d</fix>
</trkpt>
<trkpt lat="-27.274439" lon="151.290064">
  <ele>343.1</ele>
  <time>2026-09-01T19:51:23Z</time>
  <course>270.0</course>
  <speed>0.0</speed>
  <fix>3d</fix>
</trkpt>
<trkpt lat="-27.274439" lon="151.290064">
  <ele>343.02</ele>
  <time>2026-09-01T19:51:23Z</time>
  <course>10.7</course>
  <speed>0.01</speed>
  <fix>3d</fix>
</trkpt>
<trkpt lat="-27.274439" lon="151.290064">
  <ele>343.1</ele>
  <time>2026-09-01T19:51:23Z</time>
  <course>270.0</course>
  <speed>0.0</speed>
  <fix>3d</fix>
</trkpt>
<trkpt lat="-27.274439" lon="151.290064">
  <ele>343.02</ele>
  <time>2026-09-01T19:51:23Z</time>
  <course>10.7</course>
  <speed>0.01</speed>
  <fix>3d</fix>
</trkpt>
<trkpt lat="-27.274439" lon="151.290064">
  <ele>343.1</ele>
  <time>2026-09-01T19:51:23Z</time>
  <course>270.0</course>
  <speed>0.0</speed>
  <fix>3d</fix>
</trkpt>
<trkpt lat="-27.274439" lon="151.290064">
  <ele>343.02</ele>
  <time>2026-09-01T19:51:23Z</time>
  <course>10.7</course>
  <speed>0.01</speed>
  <fix>3d</fix>
</trkpt>
<trkpt lat="-27.274439" lon="151.290064">
  <ele>343.1</ele>
  <time>2026-09-01T19:51:23Z</time>
  <course>270.0</course>
  <speed>0.0</speed>
  <fix>3d</fix>
</trkpt>
<trkpt lat="-27.274439" lon="151.290064">
  <ele>343.02</ele>
  <time>2026-09-01T19:51:23Z</time>
  <course>10.7</course>
  <speed>0.01</speed>
  <fix>3d</fix>
</trkpt>
<trkpt lat="-27.274439" lon="151.290064">
  <ele>343.1</ele>
  <time>2026-09-01T19:51:23Z</time>
  <course>270.0</course>
  <speed>0.0</speed>
  <fix>3d</fix>
</trkpt>
<trkpt lat="-27.274439" lon="151.290064">
  <ele>343.02</ele>
  <time>2026-09-01T19:51:23Z</time>
  <course>10.7</course>
  <speed>0.01</speed>
  <fix>3d</fix>
</trkpt>
<trkpt lat="-27.274439" lon="151.290064">
  <ele>343.1</ele>
  <time>2026-09-01T19:51:23Z</time>
  <course>270.0</course>
  <speed>0.0</speed>
  <fix>3d</fix>
</trkpt>
<trkpt lat="-27.274439" lon="151.290064">
  <ele>343.01</ele>
  <time>2026-09-01T19:51:23Z</time>
  <course>10.7</course>
  <speed>0.01</speed>
  <fix>3d</fix>
</trkpt>
<trkpt lat="-27.274439" lon="151.290064">
  <ele>343.1</ele>
  <time>2026-09-01T19:51:23Z</time>
  <course>270.0</course>
  <speed>0.0</speed>
  <fix>3d</fix>
</trkpt>
<trkpt lat="-27.274439" lon="151.290064">
  <ele>343.01</ele>
  <time>2026-09-01T19:51:23Z</time>
  <course>10.7</course>
  <speed>0.01</speed>
  <fix>3d</fix>
</trkpt>
<trkpt lat="-27.274439" lon="151.290064">
  <ele>343.1</ele>
  <time>2026-09-01T19:51:23Z</time>
  <course>270.0</course>
  <speed>0.0</speed>
  <fix>3d</fix>
</trkpt>
<trkpt lat="-27.274439" lon="151.290064">
  <ele>343.01</ele>
  <time>2026-09-01T19:51:23Z</time>
  <course>10.7</course>
  <speed>0.01</speed>
  <fix>3d</fix>
</trkpt>
<trkpt lat="-27.274439" lon="151.290064">
  <ele>343.1</ele>
  <time>2026-09-01T19:51:23Z</time>
  <course>270.0</course>
  <speed>0.0</speed>
  <fix>3d</fix>
</trkpt>
<trkpt lat="-27.274439" lon="151.290064">
  <ele>343.01</ele>
  <time>2026-09-01T19:51:23Z</time>
  <course>10.7</course>
  <speed>0.01</speed>
  <fix>3d</fix>
</trkpt>
<trkpt lat="-27.274439" lon="151.290064">
  <ele>343.1</ele>
  <time>2026-09-01T19:51:23Z</time>
  <course>270.0</course>
  <speed>0.0</speed>
  <fix>3d</fix>
</trkpt>
<trkpt lat="-27.274439" lon="151.290064">
  <ele>343.01</ele>
  <time>2026-09-01T19:51:23Z</time>
  <course>10.7</course>
  <speed>0.01</speed>
  <fix>3d</fix>
</trkpt>
<trkpt lat="-27.274439" lon="151.290064">
  <ele>343.1</ele>
  <time>2026-09-01T19:51:23Z</time>
  <course>270.0</course>
  <speed>0.0</speed>
  <fix>3d</fix>
</trkpt>
<trkpt lat="-27.274439" lon="151.290064">
  <ele>343.0</ele>
  <time>2026-09-01T19:51:23Z</time>
  <course>10.7</course>
  <speed>0.01</speed>
  <fix>3d</fix>
</trkpt>
<trkpt lat="-27.274439" lon="151.290064">
  <ele>343.1</ele>
  <time>2026-09-01T19:51:23Z</time>
  <course>270.0</course>
  <speed>0.0</speed>
  <fix>3d</fix>
</trkpt>
<trkpt lat="-27.274439" lon="151.290064">
  <ele>343.0</ele>
  <time>2026-09-01T19:51:23Z</time>
  <course>10.7</course>
  <speed>0.01</speed>
  <fix>3d</fix>
</trkpt>
<trkpt lat="-27.274439" lon="151.290064">
  <ele>343.1</ele>
  <time>2026-09-01T19:51:23Z</time>
  <course>270.0</course>
  <speed>0.0</speed>
  <fix>3d</fix>
</trkpt>
<trkpt lat="-27.274439" lon="151.290064">
  <ele>343.0</ele>
  <time>2026-09-01T19:51:23Z</time>
  <course>10.7</course>
  <speed>0.01</speed>
  <fix>3d</fix>
</trkpt>
<trkpt lat="-27.274439" lon="151.290064">
  <ele>343.1</ele>
  <time>2026-09-01T19:51:23Z</time>
  <course>270.0</course>
  <speed>0.0</speed>
  <fix>3d</fix>
</trkpt>
<trkpt lat="-27.274439" lon="151.290064">
  <ele>342.99</ele>
  <time>2026-09-01T19:51:23Z</time>
  <course>10.7</course>
  <speed>0.01</speed>
  <fix>3d</fix>
</trkpt>
<trkpt lat="-27.274439" lon="151.290064">
  <ele>343.1</ele>
  <time>2026-09-01T19:51:23Z</time>
  <course>270.0</course>
  <speed>0.0</speed>
  <fix>3d</fix>
</trkpt>
<trkpt lat="-27.274439" lon="151.290064">
  <ele>342.99</ele>
  <time>2026-09-01T19:51:23Z</time>
  <course>10.7</course>
  <speed>0.01</speed>
  <fix>3d</fix>
</trkpt>
<trkpt lat="-27.274439" lon="151.290064">
  <ele>343.1</ele>
  <time>2026-09-01T19:51:23Z</time>
  <course>270.0</course>
  <speed>0.0</speed>
  <fix>3d</fix>
</trkpt>
<trkpt lat="-27.274439" lon="151.290064">
  <ele>342.98</ele>
  <time>2026-09-01T19:51:23Z</time>
  <course>10.7</course>
  <speed>0.01</speed>
  <fix>3d</fix>
</trkpt>
<trkpt lat="-27.274439" lon="151.290064">
  <ele>343.1</ele>
  <time>2026-09-01T19:51:23Z</time>
  <course>270.0</course>
  <speed>0.0</speed>
  <fix>3d</fix>
</trkpt>
<trkpt lat="-27.274439" lon="151.290064">
  <ele>342.98</ele>
  <time>2026-09-01T19:51:23Z</time>
  <course>10.7</course>
  <speed>0.01</speed>
  <fix>3d</fix>
</trkpt>
<trkpt lat="-27.274439" lon="151.290064">
  <ele>343.1</ele>
  <time>2026-09-01T19:51:23Z</time>
  <course>270.0</course>
  <speed>0.0</speed>
  <fix>3d</fix>
</trkpt>
<trkpt lat="-27.274439" lon="151.290064">
  <ele>342.97</ele>
  <time>2026-09-01T19:51:23Z</time>
  <course>10.7</course>
  <speed>0.01</speed>
  <fix>3d</fix>
</trkpt>
<trkpt lat="-27.274439" lon="151.290064">
  <ele>343.1</ele>
  <time>2026-09-01T19:51:23Z</time>
  <course>270.0</course>
  <speed>0.0</speed>
  <fix>3d</fix>
</trkpt>
<trkpt lat="-27.274439" lon="151.290064">
  <ele>342.97</ele>
  <time>2026-09-01T19:51:23Z</time>
  <course>10.7</course>
  <speed>0.01</speed>
  <fix>3d</fix>
</trkpt>
<trkpt lat="-27.274439" lon="151.290064">
  <ele>343.1</ele>
  <time>2026-09-01T19:51:23Z</time>
  <course>270.0</course>
  <speed>0.0</speed>
  <fix>3d</fix>
</trkpt>
<trkpt lat="-27.274439" lon="151.290064">
  <ele>342.97</ele>
  <time>2026-09-01T19:51:23Z</time>
  <course>10.7</course>
  <speed>0.01</speed>
  <fix>3d</fix>
</trkpt>
<trkpt lat="-27.274439" lon="151.290064">
  <ele>343.1</ele>
  <time>2026-09-01T19:51:23Z</time>
  <course>270.0</course>
  <speed>0.0</speed>
  <fix>3d</fix>
</trkpt>
<trkpt lat="-27.274439" lon="151.290064">
  <ele>342.96</ele>
  <time>2026-09-01T19:51:23Z</time>
  <course>10.7</course>
  <speed>0.01</speed>
  <fix>3d</fix>
</trkpt>
<trkpt lat="-27.274439" lon="151.290064">
  <ele>343.1</ele>
  <time>2026-09-01T19:51:23Z</time>
  <course>270.0</course>
  <speed>0.0</speed>
  <fix>3d</fix>
</trkpt>
<trkpt lat="-27.274439" lon="151.290064">
  <ele>342.96</ele>
  <time>2026-09-01T19:51:23Z</time>
  <course>10.7</course>
  <speed>0.01</speed>
  <fix>3d</fix>
</trkpt>
<trkpt lat="-27.274439" lon="151.290064">
  <ele>343.1</ele>
  <time>2026-09-01T19:51:23Z</time>
  <course>270.0</course>
  <speed>0.0</speed>
  <fix>3d</fix>
</trkpt>
<trkpt lat="-27.274439" lon="151.290064">
  <ele>342.96</ele>
  <time>2026-09-01T19:51:23Z</time>
  <course>10.7</course>
  <speed>0.01</speed>
  <fix>3d</fix>
</trkpt>
<trkpt lat="-27.274439" lon="151.290064">
  <ele>343.1</ele>
  <time>2026-09-01T19:51:23Z</time>
  <course>270.0</course>
  <speed>0.0</speed>
  <fix>3d</fix>
</trkpt>
<trkpt lat="-27.274439" lon="151.290064">
  <ele>342.96</ele>
  <time>2026-09-01T19:51:23Z</time>
  <course>10.7</course>
  <speed>0.01</speed>
  <fix>3d</fix>
</trkpt>
<trkpt lat="-27.274439" lon="151.290064">
  <ele>343.1</ele>
  <time>2026-09-01T19:51:23Z</time>
  <course>270.0</course>
  <speed>0.0</speed>
  <fix>3d</fix>
</trkpt>
<trkpt lat="-27.274439" lon="151.290064">
  <ele>342.95</ele>
  <time>2026-09-01T19:51:23Z</time>
  <course>10.7</course>
  <speed>0.01</speed>
  <fix>3d</fix>
</trkpt>
<trkpt lat="-27.274439" lon="151.290064">
  <ele>343.1</ele>
  <time>2026-09-01T19:51:23Z</time>
  <course>270.0</course>
  <speed>0.0</speed>
  <fix>3d</fix>
</trkpt>
<trkpt lat="-27.274439" lon="151.290064">
  <ele>342.95</ele>
  <time>2026-09-01T19:51:23Z</time>
  <course>10.7</course>
  <speed>0.01</speed>
  <fix>3d</fix>
</trkpt>
<trkpt lat="-27.274439" lon="151.290064">
  <ele>343.1</ele>
  <time>2026-09-01T19:51:23Z</time>
  <course>270.0</course>
  <speed>0.0</speed>
  <fix>3d</fix>
</trkpt>
<trkpt lat="-27.274439" lon="151.290064">
  <ele>342.95</ele>
  <time>2026-09-01T19:51:23Z</time>
  <course>10.7</course>
  <speed>0.01</speed>
  <fix>3d</fix>
</trkpt>
<trkpt lat="-27.274439" lon="151.290064">
  <ele>343.1</ele>
  <time>2026-09-01T19:51:23Z</time>
  <course>270.0</course>
  <speed>0.0</speed>
  <fix>3d</fix>
</trkpt>
<trkpt lat="-27.274439" lon="151.290064">
  <ele>342.95</ele>
  <time>2026-09-01T19:51:23Z</time>
  <course>10.7</course>
  <speed>0.01</speed>
  <fix>3d</fix>
</trkpt>
<trkpt lat="-27.274439" lon="151.290064">
  <ele>343.1</ele>
  <time>2026-09-01T19:51:23Z</time>
  <course>270.0</course>
  <speed>0.0</speed>
  <fix>3d</fix>
</trkpt>
<trkpt lat="-27.274439" lon="151.290064">
  <ele>342.95</ele>
  <time>2026-09-01T19:51:23Z</time>
  <course>10.7</course>
  <speed>0.01</speed>
  <fix>3d</fix>
</trkpt>
<trkpt lat="-27.274439" lon="151.290064">
  <ele>343.1</ele>
  <time>2026-09-01T19:51:23Z</time>
  <course>270.0</course>
  <speed>0.0</speed>
  <fix>3d</fix>
</trkpt>
<trkpt lat="-27.274439" lon="151.290064">
  <ele>342.95</ele>
  <time>2026-09-01T19:51:23Z</time>
  <course>10.7</course>
  <speed>0.01</speed>
  <fix>3d</fix>
</trkpt>
<trkpt lat="-27.274439" lon="151.290064">
  <ele>343.1</ele>
  <time>2026-09-01T19:51:23Z</time>
  <course>270.0</course>
  <speed>0.0</speed>
  <fix>3d</fix>
</trkpt>
<trkpt lat="-27.2744391" lon="151.290064">
  <ele>342.95</ele>
  <time>2026-09-01T19:51:23Z</time>
  <course>10.7</course>
  <speed>0.01</speed>
  <fix>3d</fix>
</trkpt>
<trkpt lat="-27.274439" lon="151.290064">
  <ele>343.1</ele>
  <time>2026-09-01T19:51:23Z</time>
  <course>270.0</course>
  <speed>0.0</speed>
  <fix>3d</fix>
</trkpt>
<trkpt lat="-27.2744391" lon="151.290064">
  <ele>342.95</ele>
  <time>2026-09-01T19:51:23Z</time>
  <course>10.7</course>
  <speed>0.01</speed>
  <fix>3d</fix>
</trkpt>
<trkpt lat="-27.274439" lon="151.290064">
  <ele>343.1</ele>
  <time>2026-09-01T19:51:23Z</time>
  <course>270.0</course>
  <speed>0.0</speed>
  <fix>3d</fix>
</trkpt>
<trkpt lat="-27.2744391" lon="151.290064">
  <ele>342.95</ele>
  <time>2026-09-01T19:51:23Z</time>
  <course>10.7</course>
  <speed>0.01</speed>
  <fix>3d</fix>
</trkpt>
<trkpt lat="-27.274439" lon="151.290064">
  <ele>343.1</ele>
  <time>2026-09-01T19:51:23Z</time>
  <course>270.0</course>
  <speed>0.0</speed>
  <fix>3d</fix>
</trkpt>
<trkpt lat="-27.2744391" lon="151.290064">
  <ele>342.95</ele>
  <time>2026-09-01T19:51:23Z</time>
  <course>10.7</course>
  <speed>0.01</speed>
  <fix>3d</fix>
</trkpt>
<trkpt lat="-27.274439" lon="151.290064">
  <ele>343.1</ele>
  <time>2026-09-01T19:51:23Z</time>
  <course>270.0</course>
  <speed>0.0</speed>
  <fix>3d</fix>
</trkpt>
<trkpt lat="-27.2744391" lon="151.290064">
  <ele>342.95</ele>
  <time>2026-09-01T19:51:23Z</time>
  <course>10.7</course>
  <speed>0.01</speed>
  <fix>3d</fix>
</trkpt>
<trkpt lat="-27.274439" lon="151.290064">
  <ele>343.1</ele>
  <time>2026-09-01T19:51:23Z</time>
  <course>270.0</course>
  <speed>0.0</speed>
  <fix>3d</fix>
</trkpt>
<trkpt lat="-27.2744391" lon="151.290064">
  <ele>342.95</ele>
  <time>2026-09-01T19:51:23Z</time>
  <course>10.7</course>
  <speed>0.01</speed>
  <fix>3d</fix>
</trkpt>
<trkpt lat="-27.274439" lon="151.290064">
  <ele>343.1</ele>
  <time>2026-09-01T19:51:23Z</time>
  <course>270.0</course>
  <speed>0.0</speed>
  <fix>3d</fix>
</trkpt>
<trkpt lat="-27.2744391" lon="151.290064">
  <ele>342.95</ele>
  <time>2026-09-01T19:51:23Z</time>
  <course>10.7</course>
  <speed>0.01</speed>
  <fix>3d</fix>
</trkpt>
<trkpt lat="-27.274439" lon="151.290064">
  <ele>343.1</ele>
  <time>2026-09-01T19:51:23Z</time>
  <course>270.0</course>
  <speed>0.0</speed>
  <fix>3d</fix>
</trkpt>
<trkpt lat="-27.2744391" lon="151.290064">
  <ele>342.95</ele>
  <time>2026-09-01T19:51:23Z</time>
  <course>10.7</course>
  <speed>0.01</speed>
  <fix>3d</fix>
</trkpt>
<trkpt lat="-27.274439" lon="151.290064">
  <ele>343.1</ele>
  <time>2026-09-01T19:51:23Z</time>
  <course>270.0</course>
  <speed>0.0</speed>
  <fix>3d</fix>
</trkpt>
<trkpt lat="-27.2744391" lon="151.290064">
  <ele>342.95</ele>
  <time>2026-09-01T19:51:23Z</time>
  <course>10.7</course>
  <speed>0.01</speed>
  <fix>3d</fix>
</trkpt>
<trkpt lat="-27.274439" lon="151.290064">
  <ele>343.1</ele>
  <time>2026-09-01T19:51:23Z</time>
  <course>270.0</course>
  <speed>0.0</speed>
  <fix>3d</fix>
</trkpt>
<trkpt lat="-27.2744391" lon="151.290064">
  <ele>343.1</ele>
  <time>2026-09-01T19:51:23Z</time>
  <course>10.7</course>
  <speed>0.01</speed>
  <fix>3d</fix>
</trkpt>
<trkpt lat="-27.274439" lon="151.290064">
  <ele>343.1</ele>
  <time>2026-09-01T19:51:23Z</time>
  <course>270.0</course>
  <speed>0.0</speed>
  <fix>3d</fix>
</trkpt>
<trkpt lat="-27.2744391" lon="151.290064">
  <ele>343.09</ele>
  <time>2026-09-01T19:51:23Z</time>
  <course>10.7</course>
  <speed>0.01</speed>
  <fix>3d</fix>
</trkpt>
<trkpt lat="-27.274439" lon="151.290064">
  <ele>343.1</ele>
  <time>2026-09-01T19:51:23Z</time>
  <course>270.0</course>
  <speed>0.0</speed>
  <fix>3d</fix>
</trkpt>
<trkpt lat="-27.2744391" lon="151.290064">
  <ele>343.09</ele>
  <time>2026-09-01T19:51:23Z</time>
  <course>10.7</course>
  <speed>0.01</speed>
  <fix>3d</fix>
</trkpt>
<trkpt lat="-27.274439" lon="151.290064">
  <ele>343.1</ele>
  <time>2026-09-01T19:51:23Z</time>
  <course>270.0</course>
  <speed>0.0</speed>
  <fix>3d</fix>
</trkpt>
<trkpt lat="-27.2744391" lon="151.290064">
  <ele>343.09</ele>
  <time>2026-09-01T19:51:23Z</time>
  <course>10.71</course>
  <speed>0.01414213562373095</speed>
  <fix>3d</fix>
</trkpt>
<trkpt lat="-27.274439" lon="151.290064">
  <ele>343.1</ele>
  <time>2026-09-01T19:51:23Z</time>
  <course>270.0</course>
  <speed>0.0</speed>
  <fix>3d</fix>
</trkpt>
<trkpt lat="-27.2744391" lon="151.290064">
  <ele>343.09</ele>
  <time>2026-09-01T19:51:23Z</time>
  <course>10.71</course>
  <speed>0.01</speed>
  <fix>3d</fix>
</trkpt>
<trkpt lat="-27.274439" lon="151.290064">
  <ele>343.1</ele>
  <time>2026-09-01T19:51:23Z</time>
  <course>270.0</course>
  <speed>0.0</speed>
  <fix>3d</fix>
</trkpt>
<trkpt lat="-27.2744391" lon="151.290064">
  <ele>343.09</ele>
  <time>2026-09-01T19:51:23Z</time>
  <course>10.71</course>
  <speed>0.01414213562373095</speed>
  <fix>3d</fix>
</trkpt>
<trkpt lat="-27.274439" lon="151.290064">
  <ele>343.1</ele>
  <time>2026-09-01T19:51:23Z</time>
  <course>270.0</course>
  <speed>0.0</speed>
  <fix>3d</fix>
</trkpt>
<trkpt lat="-27.2744391" lon="151.290064">
  <ele>343.09</ele>
  <time>2026-09-01T19:51:23Z</time>
  <course>10.71</course>
  <speed>0.01414213562373095</speed>
  <fix>3d</fix>
</trkpt>
<trkpt lat="-27.274439" lon="151.290064">
  <ele>343.1</ele>
  <time>2026-09-01T19:51:23Z</time>
  <course>270.0</course>
  <speed>0.0</speed>
  <fix>3d</fix>
</trkpt>
<trkpt lat="-27.2744391" lon="151.290064">
  <ele>343.09</ele>
  <time>2026-09-01T19:51:23Z</time>
  <course>10.71</course>
  <speed>0.01414213562373095</speed>
  <fix>3d</fix>
</trkpt>
<trkpt lat="-27.274439" lon="151.290064">
  <ele>343.1</ele>
  <time>2026-09-01T19:51:23Z</time>
  <course>270.0</course>
  <speed>0.0</speed>
  <fix>3d</fix>
</trkpt>
<trkpt lat="-27.2744391" lon="151.290064">
  <ele>343.09</ele>
  <time>2026-09-01T19:51:23Z</time>
  <course>10.71</course>
  <speed>0.01414213562373095</speed>
  <fix>3d</fix>
</trkpt>
<trkpt lat="-27.274439" lon="151.290064">
  <ele>343.1</ele>
  <time>2026-09-01T19:51:23Z</time>
  <course>270.0</course>
  <speed>0.0</speed>
  <fix>3d</fix>
</trkpt>
<trkpt lat="-27.2744391" lon="151.290064">
  <ele>343.09</ele>
  <time>2026-09-01T19:51:23Z</time>
  <course>10.71</course>
  <speed>0.01414213562373095</speed>
  <fix>3d</fix>
</trkpt>
<trkpt lat="-27.274439" lon="151.290064">
  <ele>343.1</ele>
  <time>2026-09-01T19:51:23Z</time>
  <course>270.0</course>
  <speed>0.0</speed>
  <fix>3d</fix>
</trkpt>
<trkpt lat="-27.2744391" lon="151.290064">
  <ele>343.08</ele>
  <time>2026-09-01T19:51:23Z</time>
  <course>10.71</course>
  <speed>0.01414213562373095</speed>
  <fix>3d</fix>
</trkpt>
<trkpt lat="-27.274439" lon="151.290064">
  <ele>343.1</ele>
  <time>2026-09-01T19:51:23Z</time>
  <course>270.0</course>
  <speed>0.0</speed>
  <fix>3d</fix>
</trkpt>
<trkpt lat="-27.2744391" lon="151.290064">
  <ele>343.08</ele>
  <time>2026-09-01T19:51:23Z</time>
  <course>10.71</course>
  <speed>0.01414213562373095</speed>
  <fix>3d</fix>
</trkpt>
<trkpt lat="-27.274439" lon="151.290064">
  <ele>343.1</ele>
  <time>2026-09-01T19:51:23Z</time>
  <course>270.0</course>
  <speed>0.0</speed>
  <fix>3d</fix>
</trkpt>
<trkpt lat="-27.2744391" lon="151.290064">
  <ele>343.08</ele>
  <time>2026-09-01T19:51:23Z</time>
  <course>10.71</course>
  <speed>0.01414213562373095</speed>
  <fix>3d</fix>
</trkpt>
<trkpt lat="-27.274439" lon="151.290064">
  <ele>343.1</ele>
  <time>2026-09-01T19:51:23Z</time>
  <course>270.0</course>
  <speed>0.0</speed>
  <fix>3d</fix>
</trkpt>
<trkpt lat="-27.2744391" lon="151.290064">
  <ele>343.08</ele>
  <time>2026-09-01T19:51:23Z</time>
  <course>10.71</course>
  <speed>0.01414213562373095</speed>
  <fix>3d</fix>
</trkpt>
<trkpt lat="-27.274439" lon="151.290064">
  <ele>343.1</ele>
  <time>2026-09-01T19:51:23Z</time>
  <course>270.0</course>
  <speed>0.0</speed>
  <fix>3d</fix>
</trkpt>
<trkpt lat="-27.2744391" lon="151.290064">
  <ele>343.08</ele>
  <time>2026-09-01T19:51:23Z</time>
  <course>10.71</course>
  <speed>0.01414213562373095</speed>
  <fix>3d</fix>
</trkpt>
<trkpt lat="-27.274439" lon="151.290064">
  <ele>343.1</ele>
  <time>2026-09-01T19:51:23Z</time>
  <course>270.0</course>
  <speed>0.0</speed>
  <fix>3d</fix>
</trkpt>
<trkpt lat="-27.2744391" lon="151.290064">
  <ele>343.07</ele>
  <time>2026-09-01T19:51:23Z</time>
  <course>10.71</course>
  <speed>0.01414213562373095</speed>
  <fix>3d</fix>
</trkpt>
<trkpt lat="-27.274439" lon="151.290064">
  <ele>343.1</ele>
  <time>2026-09-01T19:51:23Z</time>
  <course>270.0</course>
  <speed>0.0</speed>
  <fix>3d</fix>
</trkpt>
<trkpt lat="-27.2744391" lon="151.290064">
  <ele>343.07</ele>
  <time>2026-09-01T19:51:23Z</time>
  <course>10.71</course>
  <speed>0.01414213562373095</speed>
  <fix>3d</fix>
</trkpt>
<trkpt lat="-27.274439" lon="151.290064">
  <ele>343.1</ele>
  <time>2026-09-01T19:51:23Z</time>
  <course>270.0</course>
  <speed>0.0</speed>
  <fix>3d</fix>
</trkpt>
<trkpt lat="-27.2744391" lon="151.290064">
  <ele>343.07</ele>
  <time>2026-09-01T19:51:23Z</time>
  <course>10.71</course>
  <speed>0.01414213562373095</speed>
  <fix>3d</fix>
</trkpt>
<trkpt lat="-27.274439" lon="151.290064">
  <ele>343.1</ele>
  <time>2026-09-01T19:51:23Z</time>
  <course>270.0</course>
  <speed>0.0</speed>
  <fix>3d</fix>
</trkpt>
<trkpt lat="-27.2744391" lon="151.290064">
  <ele>343.07</ele>
  <time>2026-09-01T19:51:23Z</time>
  <course>10.71</course>
  <speed>0.01414213562373095</speed>
  <fix>3d</fix>
</trkpt>
<trkpt lat="-27.274439" lon="151.290064">
  <ele>343.1</ele>
  <time>2026-09-01T19:51:23Z</time>
  <course>270.0</course>
  <speed>0.0</speed>
  <fix>3d</fix>
</trkpt>
<trkpt lat="-27.2744391" lon="151.290064">
  <ele>343.07</ele>
  <time>2026-09-01T19:51:23Z</time>
  <course>10.71</course>
  <speed>0.01414213562373095</speed>
  <fix>3d</fix>
</trkpt>
<trkpt lat="-27.274439" lon="151.290064">
  <ele>343.1</ele>
  <time>2026-09-01T19:51:23Z</time>
  <course>270.0</course>
  <speed>0.0</speed>
  <fix>3d</fix>
</trkpt>
<trkpt lat="-27.2744391" lon="151.290064">
  <ele>343.07</ele>
  <time>2026-09-01T19:51:23Z</time>
  <course>10.71</course>
  <speed>0.01414213562373095</speed>
  <fix>3d</fix>
</trkpt>
<trkpt lat="-27.274439" lon="151.290064">
  <ele>343.1</ele>
  <time>2026-09-01T19:51:23Z</time>
  <course>270.0</course>
  <speed>0.0</speed>
  <fix>3d</fix>
</trkpt>
<trkpt lat="-27.2744391" lon="151.290064">
  <ele>343.07</ele>
  <time>2026-09-01T19:51:23Z</time>
  <course>10.71</course>
  <speed>0.01414213562373095</speed>
  <fix>3d</fix>
</trkpt>
<trkpt lat="-27.274439" lon="151.290064">
  <ele>343.1</ele>
  <time>2026-09-01T19:51:23Z</time>
  <course>270.0</course>
  <speed>0.0</speed>
  <fix>3d</fix>
</trkpt>
<trkpt lat="-27.2744391" lon="151.290064">
  <ele>343.07</ele>
  <time>2026-09-01T19:51:23Z</time>
  <course>10.71</course>
  <speed>0.01414213562373095</speed>
  <fix>3d</fix>
</trkpt>
<trkpt lat="-27.274439" lon="151.290064">
  <ele>343.1</ele>
  <time>2026-09-01T19:51:23Z</time>
  <course>270.0</course>
  <speed>0.0</speed>
  <fix>3d</fix>
</trkpt>
<trkpt lat="-27.2744391" lon="151.290064">
  <ele>343.07</ele>
  <time>2026-09-01T19:51:23Z</time>
  <course>10.71</course>
  <speed>0.01414213562373095</speed>
  <fix>3d</fix>
</trkpt>
<trkpt lat="-27.274439" lon="151.290064">
  <ele>343.1</ele>
  <time>2026-09-01T19:51:23Z</time>
  <course>270.0</course>
  <speed>0.0</speed>
  <fix>3d</fix>
</trkpt>
<trkpt lat="-27.2744391" lon="151.290064">
  <ele>343.07</ele>
  <time>2026-09-01T19:51:23Z</time>
  <course>10.71</course>
  <speed>0.01414213562373095</speed>
  <fix>3d</fix>
</trkpt>
<trkpt lat="-27.274439" lon="151.290064">
  <ele>343.1</ele>
  <time>2026-09-01T19:51:23Z</time>
  <course>270.0</course>
  <speed>0.0</speed>
  <fix>3d</fix>
</trkpt>
<trkpt lat="-27.2744391" lon="151.290064">
  <ele>343.06</ele>
  <time>2026-09-01T19:51:23Z</time>
  <course>10.71</course>
  <speed>0.01414213562373095</speed>
  <fix>3d</fix>
</trkpt>
<trkpt lat="-27.274439" lon="151.290064">
  <ele>343.1</ele>
  <time>2026-09-01T19:51:23Z</time>
  <course>270.0</course>
  <speed>0.0</speed>
  <fix>3d</fix>
</trkpt>
<trkpt lat="-27.2744391" lon="151.290064">
  <ele>343.06</ele>
  <time>2026-09-01T19:51:23Z</time>
  <course>10.71</course>
  <speed>0.01414213562373095</speed>
  <fix>3d</fix>
</trkpt>
<trkpt lat="-27.274439" lon="151.290064">
  <ele>343.1</ele>
  <time>2026-09-01T19:51:23Z</time>
  <course>270.0</course>
  <speed>0.0</speed>
  <fix>3d</fix>
</trkpt>
<trkpt lat="-27.2744391" lon="151.290064">
  <ele>343.06</ele>
  <time>2026-09-01T19:51:23Z</time>
  <course>10.71</course>
  <speed>0.01414213562373095</speed>
  <fix>3d</fix>
</trkpt>
<trkpt lat="-27.274439" lon="151.290064">
  <ele>343.1</ele>
  <time>2026-09-01T19:51:23Z</time>
  <course>270.0</course>
  <speed>0.0</speed>
  <fix>3d</fix>
</trkpt>
<trkpt lat="-27.2744391" lon="151.290064">
  <ele>343.06</ele>
  <time>2026-09-01T19:51:23Z</time>
  <course>10.71</course>
  <speed>0.01414213562373095</speed>
  <fix>3d</fix>
</trkpt>
<trkpt lat="-27.274439" lon="151.290064">
  <ele>343.1</ele>
  <time>2026-09-01T19:51:23Z</time>
  <course>270.0</course>
  <speed>0.0</speed>
  <fix>3d</fix>
</trkpt>
<trkpt lat="-27.2744391" lon="151.290064">
  <ele>343.06</ele>
  <time>2026-09-01T19:51:23Z</time>
  <course>10.71</course>
  <speed>0.01414213562373095</speed>
  <fix>3d</fix>
</trkpt>
<trkpt lat="-27.274439" lon="151.290064">
  <ele>343.1</ele>
  <time>2026-09-01T19:51:23Z</time>
  <course>270.0</course>
  <speed>0.0</speed>
  <fix>3d</fix>
</trkpt>
<trkpt lat="-27.2744391" lon="151.290064">
  <ele>343.06</ele>
  <time>2026-09-01T19:51:23Z</time>
  <course>10.71</course>
  <speed>0.01414213562373095</speed>
  <fix>3d</fix>
</trkpt>
<trkpt lat="-27.274439" lon="151.290064">
  <ele>343.1</ele>
  <time>2026-09-01T19:51:23Z</time>
  <course>270.0</course>
  <speed>0.0</speed>
  <fix>3d</fix>
</trkpt>
<trkpt lat="-27.2744391" lon="151.290064">
  <ele>343.07</ele>
  <time>2026-09-01T19:51:23Z</time>
  <course>10.71</course>
  <speed>0.01414213562373095</speed>
  <fix>3d</fix>
</trkpt>
<trkpt lat="-27.274439" lon="151.290064">
  <ele>343.1</ele>
  <time>2026-09-01T19:51:23Z</time>
  <course>270.0</course>
  <speed>0.0</speed>
  <fix>3d</fix>
</trkpt>
<trkpt lat="-27.2744391" lon="151.290064">
  <ele>343.07</ele>
  <time>2026-09-01T19:51:23Z</time>
  <course>10.71</course>
  <speed>0.01414213562373095</speed>
  <fix>3d</fix>
</trkpt>
<trkpt lat="-27.274439" lon="151.290064">
  <ele>343.1</ele>
  <time>2026-09-01T19:51:23Z</time>
  <course>270.0</course>
  <speed>0.0</speed>
  <fix>3d</fix>
</trkpt>
<trkpt lat="-27.2744391" lon="151.2900641">
  <ele>343.07</ele>
  <time>2026-09-01T19:51:23Z</time>
  <course>10.71</course>
  <speed>0.01414213562373095</speed>
  <fix>3d</fix>
</trkpt>
<trkpt lat="-27.274439" lon="151.290064">
  <ele>343.1</ele>
  <time>2026-09-01T19:51:23Z</time>
  <course>270.0</course>
  <speed>0.0</speed>
  <fix>3d</fix>
</trkpt>
<trkpt lat="-27.2744391" lon="151.290064">
  <ele>343.07</ele>
  <time>2026-09-01T19:51:23Z</time>
  <course>10.71</course>
  <speed>0.01414213562373095</speed>
  <fix>3d</fix>
</trkpt>
<trkpt lat="-27.274439" lon="151.290064">
  <ele>343.1</ele>
  <time>2026-09-01T19:51:23Z</time>
  <course>270.0</course>
  <speed>0.0</speed>
  <fix>3d</fix>
</trkpt>
<trkpt lat="-27.2744391" lon="151.2900641">
  <ele>343.07</ele>
  <time>2026-09-01T19:51:23Z</time>
  <course>10.71</course>
  <speed>0.01414213562373095</speed>
  <fix>3d</fix>
</trkpt>
<trkpt lat="-27.274439" lon="151.290064">
  <ele>343.1</ele>
  <time>2026-09-01T19:51:23Z</time>
  <course>270.0</course>
  <speed>0.0</speed>
  <fix>3d</fix>
</trkpt>
<trkpt lat="-27.2744391" lon="151.290064">
  <ele>343.06</ele>
  <time>2026-09-01T19:51:23Z</time>
  <course>10.71</course>
  <speed>0.01414213562373095</speed>
  <fix>3d</fix>
</trkpt>
<trkpt lat="-27.274439" lon="151.290064">
  <ele>343.1</ele>
  <time>2026-09-01T19:51:23Z</time>
  <course>270.0</course>
  <speed>0.0</speed>
  <fix>3d</fix>
</trkpt>
<trkpt lat="-27.2744391" lon="151.2900641">
  <ele>343.06</ele>
  <time>2026-09-01T19:51:23Z</time>
  <course>10.71</course>
  <speed>0.01414213562373095</speed>
  <fix>3d</fix>
</trkpt>
<trkpt lat="-27.274439" lon="151.290064">
  <ele>343.1</ele>
  <time>2026-09-01T19:51:23Z</time>
  <course>270.0</course>
  <speed>0.0</speed>
  <fix>3d</fix>
</trkpt>
<trkpt lat="-27.2744391" lon="151.290064">
  <ele>343.06</ele>
  <time>2026-09-01T19:51:23Z</time>
  <course>10.71</course>
  <speed>0.01414213562373095</speed>
  <fix>3d</fix>
</trkpt>
<trkpt lat="-27.274439" lon="151.290064">
  <ele>343.1</ele>
  <time>2026-09-01T19:51:23Z</time>
  <course>270.0</course>
  <speed>0.0</speed>
  <fix>3d</fix>
</trkpt>
<trkpt lat="-27.2744391" lon="151.2900641">
  <ele>343.06</ele>
  <time>2026-09-01T19:51:23Z</time>
  <course>10.71</course>
  <speed>0.01414213562373095</speed>
  <fix>3d</fix>
</trkpt>
<trkpt lat="-27.274439" lon="151.290064">
  <ele>343.1</ele>
  <time>2026-09-01T19:51:23Z</time>
  <course>270.0</course>
  <speed>0.0</speed>
  <fix>3d</fix>
</trkpt>
<trkpt lat="-27.2744391" lon="151.2900641">
  <ele>343.09</ele>
  <time>2026-09-01T19:51:23Z</time>
  <course>10.71</course>
  <speed>0.01414213562373095</speed>
  <fix>3d</fix>
</trkpt>
<trkpt lat="-27.274439" lon="151.290064">
  <ele>343.1</ele>
  <time>2026-09-01T19:51:23Z</time>
  <course>270.0</course>
  <speed>0.0</speed>
  <fix>3d</fix>
</trkpt>
<trkpt lat="-27.2744391" lon="151.2900641">
  <ele>343.09</ele>
  <time>2026-09-01T19:51:23Z</time>
  <course>10.71</course>
  <speed>0.01414213562373095</speed>
  <fix>3d</fix>
</trkpt>
<trkpt lat="-27.274439" lon="151.290064">
  <ele>343.1</ele>
  <time>2026-09-01T19:51:23Z</time>
  <course>270.0</course>
  <speed>0.0</speed>
  <fix>3d</fix>
</trkpt>
<trkpt lat="-27.2744391" lon="151.2900641">
  <ele>343.1</ele>
  <time>2026-09-01T19:51:23Z</time>
  <course>10.71</course>
  <speed>0.01414213562373095</speed>
  <fix>3d</fix>
</trkpt>
<trkpt lat="-27.274439" lon="151.290064">
  <ele>343.1</ele>
  <time>2026-09-01T19:51:23Z</time>
  <course>270.0</course>
  <speed>0.0</speed>
  <fix>3d</fix>
</trkpt>
<trkpt lat="-27.2744391" lon="151.2900641">
  <ele>343.1</ele>
  <time>2026-09-01T19:51:23Z</time>
  <course>10.71</course>
  <speed>0.01414213562373095</speed>
  <fix>3d</fix>
</trkpt>
<trkpt lat="-27.274439" lon="151.290064">
  <ele>343.1</ele>
  <time>2026-09-01T19:51:23Z</time>
  <course>270.0</course>
  <speed>0.0</speed>
  <fix>3d</fix>
</trkpt>
<trkpt lat="-27.2744391" lon="151.2900641">
  <ele>343.1</ele>
  <time>2026-09-01T19:51:23Z</time>
  <course>10.71</course>
  <speed>0.01414213562373095</speed>
  <fix>3d</fix>
</trkpt>
<trkpt lat="-27.274439" lon="151.290064">
  <ele>343.1</ele>
  <time>2026-09-01T19:51:23Z</time>
  <course>270.0</course>
  <speed>0.0</speed>
  <fix>3d</fix>
</trkpt>
<trkpt lat="-27.2744391" lon="151.2900641">
  <ele>343.1</ele>
  <time>2026-09-01T19:51:23Z</time>
  <course>10.71</course>
  <speed>0.01414213562373095</speed>
  <fix>3d</fix>
</trkpt>
<trkpt lat="-27.274439" lon="151.290064">
  <ele>343.1</ele>
  <time>2026-09-01T19:51:23Z</time>
  <course>270.0</course>
  <speed>0.0</speed>
  <fix>3d</fix>
</trkpt>
<trkpt lat="-27.2744391" lon="151.2900641">
  <ele>343.1</ele>
  <time>2026-09-01T19:51:23Z</time>
  <course>10.71</course>
  <speed>0.01414213562373095</speed>
  <fix>3d</fix>
</trkpt>
<trkpt lat="-27.274439" lon="151.290064">
  <ele>343.1</ele>
  <time>2026-09-01T19:51:23Z</time>
  <course>270.0</course>
  <speed>0.0</speed>
  <fix>3d</fix>
</trkpt>
<trkpt lat="-27.2744391" lon="151.2900641">
  <ele>343.11</ele>
  <time>2026-09-01T19:51:23Z</time>
  <course>10.71</course>
  <speed>0.01414213562373095</speed>
  <fix>3d</fix>
</trkpt>
<trkpt lat="-27.274439" lon="151.290064">
  <ele>343.1</ele>
  <time>2026-09-01T19:51:23Z</time>
  <course>270.0</course>
  <speed>0.0</speed>
  <fix>3d</fix>
</trkpt>
<trkpt lat="-27.2744391" lon="151.290064">
  <ele>343.11</ele>
  <time>2026-09-01T19:51:23Z</time>
  <course>10.71</course>
  <speed>0.01</speed>
  <fix>3d</fix>
</trkpt>
<trkpt lat="-27.274439" lon="151.290064">
  <ele>343.1</ele>
  <time>2026-09-01T19:51:23Z</time>
  <course>270.0</course>
  <speed>0.0</speed>
  <fix>3d</fix>
</trkpt>
<trkpt lat="-27.2744391" lon="151.290064">
  <ele>343.12</ele>
  <time>2026-09-01T19:51:23Z</time>
  <course>10.71</course>
  <speed>0.01</speed>
  <fix>3d</fix>
</trkpt>
<trkpt lat="-27.274439" lon="151.290064">
  <ele>343.1</ele>
  <time>2026-09-01T19:51:23Z</time>
  <course>270.0</course>
  <speed>0.0</speed>
  <fix>3d</fix>
</trkpt>
<trkpt lat="-27.2744391" lon="151.290064">
  <ele>343.12</ele>
  <time>2026-09-01T19:51:23Z</time>
  <course>10.71</course>
  <speed>0.01</speed>
  <fix>3d</fix>
</trkpt>
<trkpt lat="-27.274439" lon="151.290064">
  <ele>343.1</ele>
  <time>2026-09-01T19:51:23Z</time>
  <course>270.0</course>
  <speed>0.0</speed>
  <fix>3d</fix>
</trkpt>
<trkpt lat="-27.2744391" lon="151.290064">
  <ele>343.13</ele>
  <time>2026-09-01T19:51:23Z</time>
  <course>10.71</course>
  <speed>0.01</speed>
  <fix>3d</fix>
</trkpt>
<trkpt lat="-27.274439" lon="151.290064">
  <ele>343.1</ele>
  <time>2026-09-01T19:51:23Z</time>
  <course>270.0</course>
  <speed>0.0</speed>
  <fix>3d</fix>
</trkpt>
<trkpt lat="-27.2744391" lon="151.290064">
  <ele>343.13</ele>
  <time>2026-09-01T19:51:23Z</time>
  <course>10.71</course>
  <speed>0.0</speed>
  <fix>3d</fix>
</trkpt>
<trkpt lat="-27.274439" lon="151.290064">
  <ele>343.1</ele>
  <time>2026-09-01T19:51:23Z</time>
  <course>270.0</course>
  <speed>0.0</speed>
  <fix>3d</fix>
</trkpt>
<trkpt lat="-27.2744391" lon="151.290064">
  <ele>343.14</ele>
  <time>2026-09-01T19:51:23Z</time>
  <course>10.71</course>
  <speed>0.0</speed>
  <fix>3d</fix>
</trkpt>
<trkpt lat="-27.274439" lon="151.290064">
  <ele>343.1</ele>
  <time>2026-09-01T19:51:23Z</time>
  <course>270.0</course>
  <speed>0.0</speed>
  <fix>3d</fix>
</trkpt>
<trkpt lat="-27.2744391" lon="151.290064">
  <ele>343.14</ele>
  <time>2026-09-01T19:51:23Z</time>
  <course>10.71</course>
  <speed>0.0</speed>
  <fix>3d</fix>
</trkpt>
<trkpt lat="-27.274439" lon="151.290064">
  <ele>343.1</ele>
  <time>2026-09-01T19:51:23Z</time>
  <course>270.0</course>
  <speed>0.0</speed>
  <fix>3d</fix>
</trkpt>
<trkpt lat="-27.2744391" lon="151.290064">
  <ele>343.14</ele>
  <time>2026-09-01T19:51:23Z</time>
  <course>10.71</course>
  <speed>0.0</speed>
  <fix>3d</fix>
</trkpt>
<trkpt lat="-27.274439" lon="151.290064">
  <ele>343.1</ele>
  <time>2026-09-01T19:51:23Z</time>
  <course>270.0</course>
  <speed>0.0</speed>
  <fix>3d</fix>
</trkpt>
<trkpt lat="-27.2744391" lon="151.290064">
  <ele>343.15</ele>
  <time>2026-09-01T19:51:23Z</time>
  <course>10.72</course>
  <speed>0.0</speed>
  <fix>3d</fix>
</trkpt>
<trkpt lat="-27.274439" lon="151.290064">
  <ele>343.1</ele>
  <time>2026-09-01T19:51:23Z</time>
  <course>270.0</course>
  <speed>0.0</speed>
  <fix>3d</fix>
</trkpt>
<trkpt lat="-27.2744391" lon="151.290064">
  <ele>343.15</ele>
  <time>2026-09-01T19:51:23Z</time>
  <course>10.72</course>
  <speed>0.0</speed>
  <fix>3d</fix>
</trkpt>
<trkpt lat="-27.274439" lon="151.290064">
  <ele>343.1</ele>
  <time>2026-09-01T19:51:23Z</time>
  <course>270.0</course>
  <speed>0.0</speed>
  <fix>3d</fix>
</trkpt>
<trkpt lat="-27.2744391" lon="151.290064">
  <ele>343.16</ele>
  <time>2026-09-01T19:51:23Z</time>
  <course>10.72</course>
  <speed>0.0</speed>
  <fix>3d</fix>
</trkpt>
<trkpt lat="-27.274439" lon="151.290064">
  <ele>343.1</ele>
  <time>2026-09-01T19:51:23Z</time>
  <course>270.0</course>
  <speed>0.0</speed>
  <fix>3d</fix>
</trkpt>
<trkpt lat="-27.2744391" lon="151.290064">
  <ele>343.16</ele>
  <time>2026-09-01T19:51:23Z</time>
  <course>10.72</course>
  <speed>0.0</speed>
  <fix>3d</fix>
</trkpt>
<trkpt lat="-27.274439" lon="151.290064">
  <ele>343.1</ele>
  <time>2026-09-01T19:51:23Z</time>
  <course>270.0</course>
  <speed>0.0</speed>
  <fix>3d</fix>
</trkpt>
<trkpt lat="-27.2744391" lon="151.290064">
  <ele>343.1</ele>
  <time>2026-09-01T19:51:23Z</time>
  <course>10.72</course>
  <speed>0.0</speed>
  <fix>3d</fix>
</trkpt>
<trkpt lat="-27.274439" lon="151.290064">
  <ele>343.1</ele>
  <time>2026-09-01T19:51:23Z</time>
  <course>270.0</course>
  <speed>0.0</speed>
  <fix>3d</fix>
</trkpt>
<trkpt lat="-27.2744391" lon="151.290064">
  <ele>343.1</ele>
  <time>2026-09-01T19:51:23Z</time>
  <course>10.72</course>
  <speed>0.0</speed>
  <fix>3d</fix>
</trkpt>
<trkpt lat="-27.274439" lon="151.290064">
  <ele>343.1</ele>
  <time>2026-09-01T19:51:23Z</time>
  <course>270.0</course>
  <speed>0.0</speed>
  <fix>3d</fix>
</trkpt>
<trkpt lat="-27.2744391" lon="151.290064">
  <ele>343.1</ele>
  <time>2026-09-01T19:51:23Z</time>
  <course>10.72</course>
  <speed>0.0</speed>
  <fix>3d</fix>
</trkpt>
<trkpt lat="-27.274439" lon="151.290064">
  <ele>343.1</ele>
  <time>2026-09-01T19:51:23Z</time>
  <course>270.0</course>
  <speed>0.0</speed>
  <fix>3d</fix>
</trkpt>
<trkpt lat="-27.2744391" lon="151.290064">
  <ele>343.1</ele>
  <time>2026-09-01T19:51:23Z</time>
  <course>10.72</course>
  <speed>0.0</speed>
  <fix>3d</fix>
</trkpt>
<trkpt lat="-27.274439" lon="151.290064">
  <ele>343.1</ele>
  <time>2026-09-01T19:51:23Z</time>
  <course>270.0</course>
  <speed>0.0</speed>
  <fix>3d</fix>
</trkpt>
<trkpt lat="-27.2744391" lon="151.290064">
  <ele>343.1</ele>
  <time>2026-09-01T19:51:23Z</time>
  <course>10.72</course>
  <speed>0.0</speed>
  <fix>3d</fix>
</trkpt>
<trkpt lat="-27.274439" lon="151.290064">
  <ele>343.1</ele>
  <time>2026-09-01T19:51:23Z</time>
  <course>270.0</course>
  <speed>0.0</speed>
  <fix>3d</fix>
</trkpt>
<trkpt lat="-27.2744391" lon="151.290064">
  <ele>343.09</ele>
  <time>2026-09-01T19:51:23Z</time>
  <course>10.72</course>
  <speed>0.0</speed>
  <fix>3d</fix>
</trkpt>
<trkpt lat="-27.274439" lon="151.290064">
  <ele>343.1</ele>
  <time>2026-09-01T19:51:23Z</time>
  <course>270.0</course>
  <speed>0.0</speed>
  <fix>3d</fix>
</trkpt>
<trkpt lat="-27.2744391" lon="151.290064">
  <ele>343.09</ele>
  <time>2026-09-01T19:51:23Z</time>
  <course>10.72</course>
  <speed>0.0</speed>
  <fix>3d</fix>
</trkpt>
<trkpt lat="-27.274439" lon="151.290064">
  <ele>343.1</ele>
  <time>2026-09-01T19:51:23Z</time>
  <course>270.0</course>
  <speed>0.0</speed>
  <fix>3d</fix>
</trkpt>
<trkpt lat="-27.2744391" lon="151.290064">
  <ele>343.09</ele>
  <time>2026-09-01T19:51:23Z</time>
  <course>10.72</course>
  <speed>0.0</speed>
  <fix>3d</fix>
</trkpt>
<trkpt lat="-27.274439" lon="151.290064">
  <ele>343.1</ele>
  <time>2026-09-01T19:51:23Z</time>
  <course>270.0</course>
  <speed>0.0</speed>
  <fix>3d</fix>
</trkpt>
<trkpt lat="-27.2744391" lon="151.290064">
  <ele>343.09</ele>
  <time>2026-09-01T19:51:23Z</time>
  <course>10.72</course>
  <speed>0.0</speed>
  <fix>3d</fix>
</trkpt>
<trkpt lat="-27.274439" lon="151.290064">
  <ele>343.1</ele>
  <time>2026-09-01T19:51:23Z</time>
  <course>270.0</course>
  <speed>0.0</speed>
  <fix>3d</fix>
</trkpt>
<trkpt lat="-27.2744391" lon="151.290064">
  <ele>343.08</ele>
  <time>2026-09-01T19:51:24Z</time>
  <course>10.72</course>
  <speed>0.0</speed>
  <fix>3d</fix>
</trkpt>
<trkpt lat="-27.274439" lon="151.290064">
  <ele>343.1</ele>
  <time>2026-09-01T19:51:24Z</time>
  <course>270.0</course>
  <speed>0.0</speed>
  <fix>3d</fix>
</trkpt>
<trkpt lat="-27.2744391" lon="151.290064">
  <ele>343.08</ele>
  <time>2026-09-01T19:51:24Z</time>
  <course>10.72</course>
  <speed>0.0</speed>
  <fix>3d</fix>
</trkpt>
<trkpt lat="-27.274439" lon="151.290064">
  <ele>343.1</ele>
  <time>2026-09-01T19:51:24Z</time>
  <course>270.0</course>
  <speed>0.0</speed>
  <fix>3d</fix>
</trkpt>
<trkpt lat="-27.2744391" lon="151.290064">
  <ele>343.08</ele>
  <time>2026-09-01T19:51:24Z</time>
  <course>10.72</course>
  <speed>0.0</speed>
  <fix>3d</fix>
</trkpt>
<trkpt lat="-27.274439" lon="151.290064">
  <ele>343.1</ele>
  <time>2026-09-01T19:51:24Z</time>
  <course>270.0</course>
  <speed>0.0</speed>
  <fix>3d</fix>
</trkpt>
<trkpt lat="-27.2744391" lon="151.290064">
  <ele>343.07</ele>
  <time>2026-09-01T19:51:24Z</time>
  <course>10.72</course>
  <speed>0.0</speed>
  <fix>3d</fix>
</trkpt>
<trkpt lat="-27.274439" lon="151.290064">
  <ele>343.1</ele>
  <time>2026-09-01T19:51:24Z</time>
  <course>270.0</course>
  <speed>0.0</speed>
  <fix>3d</fix>
</trkpt>
<trkpt lat="-27.2744391" lon="151.290064">
  <ele>343.07</ele>
  <time>2026-09-01T19:51:24Z</time>
  <course>10.72</course>
  <speed>0.0</speed>
  <fix>3d</fix>
</trkpt>
<trkpt lat="-27.274439" lon="151.290064">
  <ele>343.1</ele>
  <time>2026-09-01T19:51:24Z</time>
  <course>270.0</course>
  <speed>0.0</speed>
  <fix>3d</fix>
</trkpt>
<trkpt lat="-27.2744391" lon="151.290064">
  <ele>343.07</ele>
  <time>2026-09-01T19:51:24Z</time>
  <course>10.72</course>
  <speed>0.0</speed>
  <fix>3d</fix>
</trkpt>
<trkpt lat="-27.274439" lon="151.290064">
  <ele>343.1</ele>
  <time>2026-09-01T19:51:24Z</time>
  <course>270.0</course>
  <speed>0.0</speed>
  <fix>3d</fix>
</trkpt>
<trkpt lat="-27.2744391" lon="151.290064">
  <ele>343.07</ele>
  <time>2026-09-01T19:51:24Z</time>
  <course>10.72</course>
  <speed>0.0</speed>
  <fix>3d</fix>
</trkpt>
<trkpt lat="-27.274439" lon="151.290064">
  <ele>343.1</ele>
  <time>2026-09-01T19:51:24Z</time>
  <course>270.0</course>
  <speed>0.0</speed>
  <fix>3d</fix>
</trkpt>
<trkpt lat="-27.2744391" lon="151.290064">
  <ele>343.07</ele>
  <time>2026-09-01T19:51:24Z</time>
  <course>10.72</course>
  <speed>0.0</speed>
  <fix>3d</fix>
</trkpt>
<trkpt lat="-27.274439" lon="151.290064">
  <ele>343.1</ele>
  <time>2026-09-01T19:51:24Z</time>
  <course>270.0</course>
  <speed>0.0</speed>
  <fix>3d</fix>
</trkpt>
<trkpt lat="-27.2744391" lon="151.290064">
  <ele>343.07</ele>
  <time>2026-09-01T19:51:24Z</time>
  <course>10.72</course>
  <speed>0.0</speed>
  <fix>3d</fix>
</trkpt>
<trkpt lat="-27.274439" lon="151.290064">
  <ele>343.1</ele>
  <time>2026-09-01T19:51:24Z</time>
  <course>270.0</course>
  <speed>0.0</speed>
  <fix>3d</fix>
</trkpt>
<trkpt lat="-27.2744391" lon="151.290064">
  <ele>343.07</ele>
  <time>2026-09-01T19:51:24Z</time>
  <course>10.72</course>
  <speed>0.0</speed>
  <fix>3d</fix>
</trkpt>
<trkpt lat="-27.274439" lon="151.290064">
  <ele>343.1</ele>
  <time>2026-09-01T19:51:24Z</time>
  <course>270.0</course>
  <speed>0.0</speed>
  <fix>3d</fix>
</trkpt>
<trkpt lat="-27.2744391" lon="151.290064">
  <ele>343.06</ele>
  <time>2026-09-01T19:51:24Z</time>
  <course>10.72</course>
  <speed>0.0</speed>
  <fix>3d</fix>
</trkpt>
<trkpt lat="-27.274439" lon="151.290064">
  <ele>343.1</ele>
  <time>2026-09-01T19:51:24Z</time>
  <course>270.0</course>
  <speed>0.0</speed>
  <fix>3d</fix>
</trkpt>
<trkpt lat="-27.2744391" lon="151.290064">
  <ele>343.06</ele>
  <time>2026-09-01T19:51:24Z</time>
  <course>10.72</course>
  <speed>0.0</speed>
  <fix>3d</fix>
</trkpt>
<trkpt lat="-27.274439" lon="151.290064">
  <ele>343.1</ele>
  <time>2026-09-01T19:51:24Z</time>
  <course>270.0</course>
  <speed>0.0</speed>
  <fix>3d</fix>
</trkpt>
<trkpt lat="-27.2744391" lon="151.290064">
  <ele>343.06</ele>
  <time>2026-09-01T19:51:24Z</time>
  <course>10.72</course>
  <speed>0.0</speed>
  <fix>3d</fix>
</trkpt>
<trkpt lat="-27.274439" lon="151.290064">
  <ele>343.1</ele>
  <time>2026-09-01T19:51:24Z</time>
  <course>270.0</course>
  <speed>0.0</speed>
  <fix>3d</fix>
</trkpt>
<trkpt lat="-27.2744391" lon="151.290064">
  <ele>343.06</ele>
  <time>2026-09-01T19:51:24Z</time>
  <course>10.72</course>
  <speed>0.0</speed>
  <fix>3d</fix>
</trkpt>
<trkpt lat="-27.274439" lon="151.290064">
  <ele>343.1</ele>
  <time>2026-09-01T19:51:24Z</time>
  <course>270.0</course>
  <speed>0.0</speed>
  <fix>3d</fix>
</trkpt>
<trkpt lat="-27.2744391" lon="151.290064">
  <ele>343.06</ele>
  <time>2026-09-01T19:51:24Z</time>
  <course>10.72</course>
  <speed>0.0</speed>
  <fix>3d</fix>
</trkpt>
<trkpt lat="-27.274439" lon="151.290064">
  <ele>343.1</ele>
  <time>2026-09-01T19:51:24Z</time>
  <course>270.0</course>
  <speed>0.0</speed>
  <fix>3d</fix>
</trkpt>
<trkpt lat="-27.2744391" lon="151.290064">
  <ele>343.05</ele>
  <time>2026-09-01T19:51:24Z</time>
  <course>10.72</course>
  <speed>0.0</speed>
  <fix>3d</fix>
</trkpt>
<trkpt lat="-27.274439" lon="151.290064">
  <ele>343.1</ele>
  <time>2026-09-01T19:51:24Z</time>
  <course>270.0</course>
  <speed>0.0</speed>
  <fix>3d</fix>
</trkpt>
<trkpt lat="-27.2744391" lon="151.290064">
  <ele>343.05</ele>
  <time>2026-09-01T19:51:24Z</time>
  <course>10.71</course>
  <speed>0.0</speed>
  <fix>3d</fix>
</trkpt>
<trkpt lat="-27.274439" lon="151.290064">
  <ele>343.1</ele>
  <time>2026-09-01T19:51:24Z</time>
  <course>270.0</course>
  <speed>0.0</speed>
  <fix>3d</fix>
</trkpt>
<trkpt lat="-27.2744391" lon="151.290064">
  <ele>343.05</ele>
  <time>2026-09-01T19:51:24Z</time>
  <course>10.71</course>
  <speed>0.0</speed>
  <fix>3d</fix>
</trkpt>
<trkpt lat="-27.274439" lon="151.290064">
  <ele>343.1</ele>
  <time>2026-09-01T19:51:24Z</time>
  <course>270.0</course>
  <speed>0.0</speed>
  <fix>3d</fix>
</trkpt>
<trkpt lat="-27.2744391" lon="151.290064">
  <ele>343.05</ele>
  <time>2026-09-01T19:51:24Z</time>
  <course>10.71</course>
  <speed>0.01</speed>
  <fix>3d</fix>
</trkpt>
<trkpt lat="-27.274439" lon="151.290064">
  <ele>343.1</ele>
  <time>2026-09-01T19:51:24Z</time>
  <course>270.0</course>
  <speed>0.0</speed>
  <fix>3d</fix>
</trkpt>
<trkpt lat="-27.2744391" lon="151.290064">
  <ele>343.05</ele>
  <time>2026-09-01T19:51:24Z</time>
  <course>10.71</course>
  <speed>0.01</speed>
  <fix>3d</fix>
</trkpt>
<trkpt lat="-27.274439" lon="151.290064">
  <ele>343.1</ele>
  <time>2026-09-01T19:51:24Z</time>
  <course>270.0</course>
  <speed>0.0</speed>
  <fix>3d</fix>
</trkpt>
<trkpt lat="-27.2744391" lon="151.290064">
  <ele>343.05</ele>
  <time>2026-09-01T19:51:24Z</time>
  <course>10.71</course>
  <speed>0.01</speed>
  <fix>3d</fix>
</trkpt>
<trkpt lat="-27.274439" lon="151.290064">
  <ele>343.1</ele>
  <time>2026-09-01T19:51:24Z</time>
  <course>270.0</course>
  <speed>0.0</speed>
  <fix>3d</fix>
</trkpt>
<trkpt lat="-27.2744391" lon="151.290064">
  <ele>343.05</ele>
  <time>2026-09-01T19:51:24Z</time>
  <course>10.71</course>
  <speed>0.01</speed>
  <fix>3d</fix>
</trkpt>
<trkpt lat="-27.274439" lon="151.290064">
  <ele>343.1</ele>
  <time>2026-09-01T19:51:24Z</time>
  <course>270.0</course>
  <speed>0.0</speed>
  <fix>3d</fix>
</trkpt>
<trkpt lat="-27.2744391" lon="151.290064">
  <ele>343.05</ele>
  <time>2026-09-01T19:51:24Z</time>
  <course>10.71</course>
  <speed>0.01</speed>
  <fix>3d</fix>
</trkpt>
<trkpt lat="-27.274439" lon="151.290064">
  <ele>343.1</ele>
  <time>2026-09-01T19:51:24Z</time>
  <course>270.0</course>
  <speed>0.0</speed>
  <fix>3d</fix>
</trkpt>
<trkpt lat="-27.2744391" lon="151.290064">
  <ele>343.05</ele>
  <time>2026-09-01T19:51:24Z</time>
  <course>10.71</course>
  <speed>0.01</speed>
  <fix>3d</fix>
</trkpt>
<trkpt lat="-27.274439" lon="151.290064">
  <ele>343.1</ele>
  <time>2026-09-01T19:51:24Z</time>
  <course>270.0</course>
  <speed>0.0</speed>
  <fix>3d</fix>
</trkpt>
<trkpt lat="-27.2744391" lon="151.290064">
  <ele>343.05</ele>
  <time>2026-09-01T19:51:24Z</time>
  <course>10.71</course>
  <speed>0.01</speed>
  <fix>3d</fix>
</trkpt>
<trkpt lat="-27.274439" lon="151.290064">
  <ele>343.1</ele>
  <time>2026-09-01T19:51:24Z</time>
  <course>270.0</course>
  <speed>0.0</speed>
  <fix>3d</fix>
</trkpt>
<trkpt lat="-27.2744391" lon="151.290064">
  <ele>343.04</ele>
  <time>2026-09-01T19:51:24Z</time>
  <course>10.71</course>
  <speed>0.01</speed>
  <fix>3d</fix>
</trkpt>
<trkpt lat="-27.274439" lon="151.290064">
  <ele>343.1</ele>
  <time>2026-09-01T19:51:24Z</time>
  <course>270.0</course>
  <speed>0.0</speed>
  <fix>3d</fix>
</trkpt>
<trkpt lat="-27.2744391" lon="151.290064">
  <ele>343.05</ele>
  <time>2026-09-01T19:51:24Z</time>
  <course>10.71</course>
  <speed>0.01</speed>
  <fix>3d</fix>
</trkpt>
<trkpt lat="-27.274439" lon="151.290064">
  <ele>343.1</ele>
  <time>2026-09-01T19:51:24Z</time>
  <course>270.0</course>
  <speed>0.0</speed>
  <fix>3d</fix>
</trkpt>
<trkpt lat="-27.2744391" lon="151.290064">
  <ele>343.05</ele>
  <time>2026-09-01T19:51:24Z</time>
  <course>10.71</course>
  <speed>0.01</speed>
  <fix>3d</fix>
</trkpt>
<trkpt lat="-27.274439" lon="151.290064">
  <ele>343.1</ele>
  <time>2026-09-01T19:51:24Z</time>
  <course>270.0</course>
  <speed>0.0</speed>
  <fix>3d</fix>
</trkpt>
<trkpt lat="-27.2744391" lon="151.290064">
  <ele>343.05</ele>
  <time>2026-09-01T19:51:24Z</time>
  <course>10.71</course>
  <speed>0.01</speed>
  <fix>3d</fix>
</trkpt>
<trkpt lat="-27.274439" lon="151.290064">
  <ele>343.1</ele>
  <time>2026-09-01T19:51:24Z</time>
  <course>270.0</course>
  <speed>0.0</speed>
  <fix>3d</fix>
</trkpt>
<trkpt lat="-27.2744391" lon="151.290064">
  <ele>343.05</ele>
  <time>2026-09-01T19:51:24Z</time>
  <course>10.71</course>
  <speed>0.01</speed>
  <fix>3d</fix>
</trkpt>
<trkpt lat="-27.274439" lon="151.290064">
  <ele>343.1</ele>
  <time>2026-09-01T19:51:24Z</time>
  <course>270.0</course>
  <speed>0.0</speed>
  <fix>3d</fix>
</trkpt>
<trkpt lat="-27.2744391" lon="151.290064">
  <ele>343.05</ele>
  <time>2026-09-01T19:51:24Z</time>
  <course>10.71</course>
  <speed>0.01</speed>
  <fix>3d</fix>
</trkpt>
<trkpt lat="-27.274439" lon="151.290064">
  <ele>343.1</ele>
  <time>2026-09-01T19:51:24Z</time>
  <course>270.0</course>
  <speed>0.0</speed>
  <fix>3d</fix>
</trkpt>
<trkpt lat="-27.2744391" lon="151.290064">
  <ele>343.04</ele>
  <time>2026-09-01T19:51:24Z</time>
  <course>10.71</course>
  <speed>0.01</speed>
  <fix>3d</fix>
</trkpt>
<trkpt lat="-27.274439" lon="151.290064">
  <ele>343.1</ele>
  <time>2026-09-01T19:51:24Z</time>
  <course>270.0</course>
  <speed>0.0</speed>
  <fix>3d</fix>
</trkpt>
<trkpt lat="-27.2744391" lon="151.290064">
  <ele>343.04</ele>
  <time>2026-09-01T19:51:24Z</time>
  <course>10.71</course>
  <speed>0.01</speed>
  <fix>3d</fix>
</trkpt>
<trkpt lat="-27.274439" lon="151.290064">
  <ele>343.1</ele>
  <time>2026-09-01T19:51:24Z</time>
  <course>270.0</course>
  <speed>0.0</speed>
  <fix>3d</fix>
</trkpt>
<trkpt lat="-27.2744391" lon="151.290064">
  <ele>343.04</ele>
  <time>2026-09-01T19:51:24Z</time>
  <course>10.71</course>
  <speed>0.01</speed>
  <fix>3d</fix>
</trkpt>
<trkpt lat="-27.274439" lon="151.290064">
  <ele>343.1</ele>
  <time>2026-09-01T19:51:24Z</time>
  <course>270.0</course>
  <speed>0.0</speed>
  <fix>3d</fix>
</trkpt>
<trkpt lat="-27.2744391" lon="151.290064">
  <ele>343.04</ele>
  <time>2026-09-01T19:51:24Z</time>
  <course>10.71</course>
  <speed>0.01414213562373095</speed>
  <fix>3d</fix>
</trkpt>
<trkpt lat="-27.274439" lon="151.290064">
  <ele>343.1</ele>
  <time>2026-09-01T19:51:24Z</time>
  <course>270.0</course>
  <speed>0.0</speed>
  <fix>3d</fix>
</trkpt>
<trkpt lat="-27.2744391" lon="151.290064">
  <ele>343.04</ele>
  <time>2026-09-01T19:51:24Z</time>
  <course>10.71</course>
  <speed>0.01414213562373095</speed>
  <fix>3d</fix>
</trkpt>
<trkpt lat="-27.274439" lon="151.290064">
  <ele>343.1</ele>
  <time>2026-09-01T19:51:24Z</time>
  <course>270.0</course>
  <speed>0.0</speed>
  <fix>3d</fix>
</trkpt>
<trkpt lat="-27.2744391" lon="151.290064">
  <ele>343.04</ele>
  <time>2026-09-01T19:51:24Z</time>
  <course>10.71</course>
  <speed>0.01414213562373095</speed>
  <fix>3d</fix>
</trkpt>
<trkpt lat="-27.274439" lon="151.290064">
  <ele>343.1</ele>
  <time>2026-09-01T19:51:24Z</time>
  <course>270.0</course>
  <speed>0.0</speed>
  <fix>3d</fix>
</trkpt>
<trkpt lat="-27.2744391" lon="151.290064">
  <ele>343.04</ele>
  <time>2026-09-01T19:51:24Z</time>
  <course>10.71</course>
  <speed>0.01414213562373095</speed>
  <fix>3d</fix>
</trkpt>
<trkpt lat="-27.274439" lon="151.290064">
  <ele>343.1</ele>
  <time>2026-09-01T19:51:24Z</time>
  <course>270.0</course>
  <speed>0.0</speed>
  <fix>3d</fix>
</trkpt>
<trkpt lat="-27.2744391" lon="151.290064">
  <ele>343.04</ele>
  <time>2026-09-01T19:51:24Z</time>
  <course>10.71</course>
  <speed>0.01414213562373095</speed>
  <fix>3d</fix>
</trkpt>
<trkpt lat="-27.274439" lon="151.290064">
  <ele>343.1</ele>
  <time>2026-09-01T19:51:24Z</time>
  <course>270.0</course>
  <speed>0.0</speed>
  <fix>3d</fix>
</trkpt>
<trkpt lat="-27.2744391" lon="151.290064">
  <ele>343.04</ele>
  <time>2026-09-01T19:51:24Z</time>
  <course>10.71</course>
  <speed>0.01414213562373095</speed>
  <fix>3d</fix>
</trkpt>
<trkpt lat="-27.274439" lon="151.290064">
  <ele>343.1</ele>
  <time>2026-09-01T19:51:24Z</time>
  <course>270.0</course>
  <speed>0.0</speed>
  <fix>3d</fix>
</trkpt>
<trkpt lat="-27.2744391" lon="151.290064">
  <ele>343.04</ele>
  <time>2026-09-01T19:51:24Z</time>
  <course>10.71</course>
  <speed>0.01414213562373095</speed>
  <fix>3d</fix>
</trkpt>
<trkpt lat="-27.274439" lon="151.290064">
  <ele>343.1</ele>
  <time>2026-09-01T19:51:24Z</time>
  <course>270.0</course>
  <speed>0.0</speed>
  <fix>3d</fix>
</trkpt>
<trkpt lat="-27.2744391" lon="151.290064">
  <ele>343.04</ele>
  <time>2026-09-01T19:51:24Z</time>
  <course>10.71</course>
  <speed>0.01414213562373095</speed>
  <fix>3d</fix>
</trkpt>
<trkpt lat="-27.274439" lon="151.290064">
  <ele>343.1</ele>
  <time>2026-09-01T19:51:24Z</time>
  <course>270.0</course>
  <speed>0.0</speed>
  <fix>3d</fix>
</trkpt>
<trkpt lat="-27.2744391" lon="151.290064">
  <ele>343.04</ele>
  <time>2026-09-01T19:51:24Z</time>
  <course>10.71</course>
  <speed>0.01414213562373095</speed>
  <fix>3d</fix>
</trkpt>
<trkpt lat="-27.274439" lon="151.290064">
  <ele>343.1</ele>
  <time>2026-09-01T19:51:24Z</time>
  <course>270.0</course>
  <speed>0.0</speed>
  <fix>3d</fix>
</trkpt>
<trkpt lat="-27.2744391" lon="151.290064">
  <ele>343.05</ele>
  <time>2026-09-01T19:51:24Z</time>
  <course>10.71</course>
  <speed>0.01414213562373095</speed>
  <fix>3d</fix>
</trkpt>
<trkpt lat="-27.274439" lon="151.290064">
  <ele>343.1</ele>
  <time>2026-09-01T19:51:24Z</time>
  <course>270.0</course>
  <speed>0.0</speed>
  <fix>3d</fix>
</trkpt>
<trkpt lat="-27.2744391" lon="151.290064">
  <ele>343.05</ele>
  <time>2026-09-01T19:51:24Z</time>
  <course>10.71</course>
  <speed>0.01414213562373095</speed>
  <fix>3d</fix>
</trkpt>
<trkpt lat="-27.274439" lon="151.290064">
  <ele>343.1</ele>
  <time>2026-09-01T19:51:24Z</time>
  <course>270.0</course>
  <speed>0.0</speed>
  <fix>3d</fix>
</trkpt>
<trkpt lat="-27.2744391" lon="151.290064">
  <ele>343.05</ele>
  <time>2026-09-01T19:51:24Z</time>
  <course>10.71</course>
  <speed>0.01414213562373095</speed>
  <fix>3d</fix>
</trkpt>
<trkpt lat="-27.274439" lon="151.290064">
  <ele>343.1</ele>
  <time>2026-09-01T19:51:24Z</time>
  <course>270.0</course>
  <speed>0.0</speed>
  <fix>3d</fix>
</trkpt>
<trkpt lat="-27.2744391" lon="151.290064">
  <ele>343.05</ele>
  <time>2026-09-01T19:51:24Z</time>
  <course>10.71</course>
  <speed>0.01414213562373095</speed>
  <fix>3d</fix>
</trkpt>
<trkpt lat="-27.274439" lon="151.290064">
  <ele>343.1</ele>
  <time>2026-09-01T19:51:24Z</time>
  <course>270.0</course>
  <speed>0.0</speed>
  <fix>3d</fix>
</trkpt>
<trkpt lat="-27.2744391" lon="151.290064">
  <ele>343.05</ele>
  <time>2026-09-01T19:51:24Z</time>
  <course>10.71</course>
  <speed>0.01414213562373095</speed>
  <fix>3d</fix>
</trkpt>
<trkpt lat="-27.274439" lon="151.290064">
  <ele>343.1</ele>
  <time>2026-09-01T19:51:24Z</time>
  <course>270.0</course>
  <speed>0.0</speed>
  <fix>3d</fix>
</trkpt>
<trkpt lat="-27.2744391" lon="151.290064">
  <ele>343.05</ele>
  <time>2026-09-01T19:51:24Z</time>
  <course>10.71</course>
  <speed>0.01414213562373095</speed>
  <fix>3d</fix>
</trkpt>
<trkpt lat="-27.274439" lon="151.290064">
  <ele>343.1</ele>
  <time>2026-09-01T19:51:24Z</time>
  <course>270.0</course>
  <speed>0.0</speed>
  <fix>3d</fix>
</trkpt>
<trkpt lat="-27.2744391" lon="151.290064">
  <ele>343.05</ele>
  <time>2026-09-01T19:51:24Z</time>
  <course>10.71</course>
  <speed>0.01414213562373095</speed>
  <fix>3d</fix>
</trkpt>
<trkpt lat="-27.274439" lon="151.290064">
  <ele>343.1</ele>
  <time>2026-09-01T19:51:24Z</time>
  <course>270.0</course>
  <speed>0.0</speed>
  <fix>3d</fix>
</trkpt>
<trkpt lat="-27.2744391" lon="151.290064">
  <ele>343.04</ele>
  <time>2026-09-01T19:51:24Z</time>
  <course>10.71</course>
  <speed>0.01414213562373095</speed>
  <fix>3d</fix>
</trkpt>
<trkpt lat="-27.274439" lon="151.290064">
  <ele>343.1</ele>
  <time>2026-09-01T19:51:24Z</time>
  <course>270.0</course>
  <speed>0.0</speed>
  <fix>3d</fix>
</trkpt>
<trkpt lat="-27.2744391" lon="151.290064">
  <ele>343.1</ele>
  <time>2026-09-01T19:51:24Z</time>
  <course>10.71</course>
  <speed>0.01414213562373095</speed>
  <fix>3d</fix>
</trkpt>
<trkpt lat="-27.274439" lon="151.290064">
  <ele>343.1</ele>
  <time>2026-09-01T19:51:24Z</time>
  <course>270.0</course>
  <speed>0.0</speed>
  <fix>3d</fix>
</trkpt>
<trkpt lat="-27.2744391" lon="151.290064">
  <ele>343.09</ele>
  <time>2026-09-01T19:51:24Z</time>
  <course>10.71</course>
  <speed>0.01414213562373095</speed>
  <fix>3d</fix>
</trkpt>
<trkpt lat="-27.274439" lon="151.290064">
  <ele>343.1</ele>
  <time>2026-09-01T19:51:24Z</time>
  <course>270.0</course>
  <speed>0.0</speed>
  <fix>3d</fix>
</trkpt>
<trkpt lat="-27.2744391" lon="151.290064">
  <ele>343.09</ele>
  <time>2026-09-01T19:51:24Z</time>
  <course>10.71</course>
  <speed>0.01414213562373095</speed>
  <fix>3d</fix>
</trkpt>
<trkpt lat="-27.274439" lon="151.290064">
  <ele>343.1</ele>
  <time>2026-09-01T19:51:24Z</time>
  <course>270.0</course>
  <speed>0.0</speed>
  <fix>3d</fix>
</trkpt>
<trkpt lat="-27.2744391" lon="151.290064">
  <ele>343.09</ele>
  <time>2026-09-01T19:51:24Z</time>
  <course>10.71</course>
  <speed>0.01414213562373095</speed>
  <fix>3d</fix>
</trkpt>
<trkpt lat="-27.274439" lon="151.290064">
  <ele>343.1</ele>
  <time>2026-09-01T19:51:24Z</time>
  <course>270.0</course>
  <speed>0.0</speed>
  <fix>3d</fix>
</trkpt>
<trkpt lat="-27.2744391" lon="151.290064">
  <ele>343.09</ele>
  <time>2026-09-01T19:51:24Z</time>
  <course>10.71</course>
  <speed>0.01414213562373095</speed>
  <fix>3d</fix>
</trkpt>
<trkpt lat="-27.274439" lon="151.290064">
  <ele>343.1</ele>
  <time>2026-09-01T19:51:24Z</time>
  <course>270.0</course>
  <speed>0.0</speed>
  <fix>3d</fix>
</trkpt>
<trkpt lat="-27.2744391" lon="151.2900641">
  <ele>343.09</ele>
  <time>2026-09-01T19:51:24Z</time>
  <course>10.71</course>
  <speed>0.01414213562373095</speed>
  <fix>3d</fix>
</trkpt>
<trkpt lat="-27.274439" lon="151.290064">
  <ele>343.1</ele>
  <time>2026-09-01T19:51:24Z</time>
  <course>270.0</course>
  <speed>0.0</speed>
  <fix>3d</fix>
</trkpt>
<trkpt lat="-27.2744391" lon="151.2900641">
  <ele>343.1</ele>
  <time>2026-09-01T19:51:24Z</time>
  <course>10.71</course>
  <speed>0.01414213562373095</speed>
  <fix>3d</fix>
</trkpt>
<trkpt lat="-27.274439" lon="151.290064">
  <ele>343.1</ele>
  <time>2026-09-01T19:51:24Z</time>
  <course>270.0</course>
  <speed>0.0</speed>
  <fix>3d</fix>
</trkpt>
<trkpt lat="-27.2744391" lon="151.2900641">
  <ele>343.1</ele>
  <time>2026-09-01T19:51:24Z</time>
  <course>10.71</course>
  <speed>0.01414213562373095</speed>
  <fix>3d</fix>
</trkpt>
<trkpt lat="-27.274439" lon="151.290064">
  <ele>343.1</ele>
  <time>2026-09-01T19:51:24Z</time>
  <course>270.0</course>
  <speed>0.0</speed>
  <fix>3d</fix>
</trkpt>
<trkpt lat="-27.2744391" lon="151.2900641">
  <ele>343.1</ele>
  <time>2026-09-01T19:51:24Z</time>
  <course>10.71</course>
  <speed>0.01414213562373095</speed>
  <fix>3d</fix>
</trkpt>
<trkpt lat="-27.274439" lon="151.290064">
  <ele>343.1</ele>
  <time>2026-09-01T19:51:24Z</time>
  <course>270.0</course>
  <speed>0.0</speed>
  <fix>3d</fix>
</trkpt>
<trkpt lat="-27.2744391" lon="151.2900641">
  <ele>343.1</ele>
  <time>2026-09-01T19:51:24Z</time>
  <course>10.71</course>
  <speed>0.01414213562373095</speed>
  <fix>3d</fix>
</trkpt>
<trkpt lat="-27.274439" lon="151.290064">
  <ele>343.1</ele>
  <time>2026-09-01T19:51:24Z</time>
  <course>270.0</course>
  <speed>0.0</speed>
  <fix>3d</fix>
</trkpt>
<trkpt lat="-27.2744391" lon="151.2900641">
  <ele>343.11</ele>
  <time>2026-09-01T19:51:24Z</time>
  <course>10.71</course>
  <speed>0.01414213562373095</speed>
  <fix>3d</fix>
</trkpt>
<trkpt lat="-27.274439" lon="151.290064">
  <ele>343.1</ele>
  <time>2026-09-01T19:51:24Z</time>
  <course>270.0</course>
  <speed>0.0</speed>
  <fix>3d</fix>
</trkpt>
<trkpt lat="-27.2744391" lon="151.2900641">
  <ele>343.11</ele>
  <time>2026-09-01T19:51:24Z</time>
  <course>10.71</course>
  <speed>0.01414213562373095</speed>
  <fix>3d</fix>
</trkpt>
<trkpt lat="-27.274439" lon="151.290064">
  <ele>343.1</ele>
  <time>2026-09-01T19:51:24Z</time>
  <course>270.0</course>
  <speed>0.0</speed>
  <fix>3d</fix>
</trkpt>
<trkpt lat="-27.2744391" lon="151.2900641">
  <ele>343.12</ele>
  <time>2026-09-01T19:51:24Z</time>
  <course>10.71</course>
  <speed>0.01414213562373095</speed>
  <fix>3d</fix>
</trkpt>
<trkpt lat="-27.274439" lon="151.290064">
  <ele>343.1</ele>
  <time>2026-09-01T19:51:24Z</time>
  <course>270.0</course>
  <speed>0.0</speed>
  <fix>3d</fix>
</trkpt>
<trkpt lat="-27.2744391" lon="151.2900641">
  <ele>343.12</ele>
  <time>2026-09-01T19:51:24Z</time>
  <course>10.71</course>
  <speed>0.022360679774997897</speed>
  <fix>3d</fix>
</trkpt>
<trkpt lat="-27.274439" lon="151.290064">
  <ele>343.1</ele>
  <time>2026-09-01T19:51:24Z</time>
  <course>270.0</course>
  <speed>0.0</speed>
  <fix>3d</fix>
</trkpt>
<trkpt lat="-27.2744391" lon="151.2900641">
  <ele>343.13</ele>
  <time>2026-09-01T19:51:24Z</time>
  <course>10.71</course>
  <speed>0.022360679774997897</speed>
  <fix>3d</fix>
</trkpt>
<trkpt lat="-27.274439" lon="151.290064">
  <ele>343.1</ele>
  <time>2026-09-01T19:51:24Z</time>
  <course>270.0</course>
  <speed>0.0</speed>
  <fix>3d</fix>
</trkpt>
<trkpt lat="-27.2744391" lon="151.2900641">
  <ele>343.13</ele>
  <time>2026-09-01T19:51:24Z</time>
  <course>10.71</course>
  <speed>0.022360679774997897</speed>
  <fix>3d</fix>
</trkpt>
<trkpt lat="-27.274439" lon="151.290064">
  <ele>343.1</ele>
  <time>2026-09-01T19:51:24Z</time>
  <course>270.0</course>
  <speed>0.0</speed>
  <fix>3d</fix>
</trkpt>
<trkpt lat="-27.2744391" lon="151.2900641">
  <ele>343.13</ele>
  <time>2026-09-01T19:51:24Z</time>
  <course>10.71</course>
  <speed>0.022360679774997897</speed>
  <fix>3d</fix>
</trkpt>
<trkpt lat="-27.274439" lon="151.290064">
  <ele>343.1</ele>
  <time>2026-09-01T19:51:24Z</time>
  <course>270.0</course>
  <speed>0.0</speed>
  <fix>3d</fix>
</trkpt>
<trkpt lat="-27.2744391" lon="151.2900641">
  <ele>343.14</ele>
  <time>2026-09-01T19:51:24Z</time>
  <course>10.71</course>
  <speed>0.022360679774997897</speed>
  <fix>3d</fix>
</trkpt>
<trkpt lat="-27.274439" lon="151.290064">
  <ele>343.1</ele>
  <time>2026-09-01T19:51:24Z</time>
  <course>270.0</course>
  <speed>0.0</speed>
  <fix>3d</fix>
</trkpt>
<trkpt lat="-27.2744391" lon="151.2900641">
  <ele>343.14</ele>
  <time>2026-09-01T19:51:24Z</time>
  <course>10.71</course>
  <speed>0.022360679774997897</speed>
  <fix>3d</fix>
</trkpt>
<trkpt lat="-27.274439" lon="151.290064">
  <ele>343.1</ele>
  <time>2026-09-01T19:51:24Z</time>
  <course>270.0</course>
  <speed>0.0</speed>
  <fix>3d</fix>
</trkpt>
<trkpt lat="-27.2744391" lon="151.2900641">
  <ele>343.15</ele>
  <time>2026-09-01T19:51:24Z</time>
  <course>10.7</course>
  <speed>0.022360679774997897</speed>
  <fix>3d</fix>
</trkpt>
<trkpt lat="-27.274439" lon="151.290064">
  <ele>343.1</ele>
  <time>2026-09-01T19:51:24Z</time>
  <course>270.0</course>
  <speed>0.0</speed>
  <fix>3d</fix>
</trkpt>
<trkpt lat="-27.2744391" lon="151.2900641">
  <ele>343.15</ele>
  <time>2026-09-01T19:51:24Z</time>
  <course>10.7</course>
  <speed>0.022360679774997897</speed>
  <fix>3d</fix>
</trkpt>
<trkpt lat="-27.274439" lon="151.290064">
  <ele>343.1</ele>
  <time>2026-09-01T19:51:24Z</time>
  <course>270.0</course>
  <speed>0.0</speed>
  <fix>3d</fix>
</trkpt>
<trkpt lat="-27.2744391" lon="151.2900641">
  <ele>343.16</ele>
  <time>2026-09-01T19:51:24Z</time>
  <course>10.7</course>
  <speed>0.022360679774997897</speed>
  <fix>3d</fix>
</trkpt>
<trkpt lat="-27.274439" lon="151.290064">
  <ele>343.1</ele>
  <time>2026-09-01T19:51:24Z</time>
  <course>270.0</course>
  <speed>0.0</speed>
  <fix>3d</fix>
</trkpt>
<trkpt lat="-27.2744391" lon="151.2900641">
  <ele>343.16</ele>
  <time>2026-09-01T19:51:24Z</time>
  <course>10.7</course>
  <speed>0.022360679774997897</speed>
  <fix>3d</fix>
</trkpt>
<trkpt lat="-27.274439" lon="151.290064">
  <ele>343.1</ele>
  <time>2026-09-01T19:51:24Z</time>
  <course>270.0</course>
  <speed>0.0</speed>
  <fix>3d</fix>
</trkpt>
<trkpt lat="-27.2744391" lon="151.2900641">
  <ele>343.16</ele>
  <time>2026-09-01T19:51:24Z</time>
  <course>10.7</course>
  <speed>0.022360679774997897</speed>
  <fix>3d</fix>
</trkpt>
<trkpt lat="-27.274439" lon="151.290064">
  <ele>343.1</ele>
  <time>2026-09-01T19:51:24Z</time>
  <course>270.0</course>
  <speed>0.0</speed>
  <fix>3d</fix>
</trkpt>
<trkpt lat="-27.2744391" lon="151.2900641">
  <ele>343.17</ele>
  <time>2026-09-01T19:51:24Z</time>
  <course>10.7</course>
  <speed>0.022360679774997897</speed>
  <fix>3d</fix>
</trkpt>
<trkpt lat="-27.274439" lon="151.290064">
  <ele>343.1</ele>
  <time>2026-09-01T19:51:24Z</time>
  <course>270.0</course>
  <speed>0.0</speed>
  <fix>3d</fix>
</trkpt>
<trkpt lat="-27.2744391" lon="151.2900641">
  <ele>343.17</ele>
  <time>2026-09-01T19:51:24Z</time>
  <course>10.7</course>
  <speed>0.022360679774997897</speed>
  <fix>3d</fix>
</trkpt>
<trkpt lat="-27.274439" lon="151.290064">
  <ele>343.1</ele>
  <time>2026-09-01T19:51:24Z</time>
  <course>270.0</course>
  <speed>0.0</speed>
  <fix>3d</fix>
</trkpt>
<trkpt lat="-27.2744391" lon="151.2900641">
  <ele>343.18</ele>
  <time>2026-09-01T19:51:24Z</time>
  <course>10.7</course>
  <speed>0.022360679774997897</speed>
  <fix>3d</fix>
</trkpt>
<trkpt lat="-27.274439" lon="151.290064">
  <ele>343.1</ele>
  <time>2026-09-01T19:51:24Z</time>
  <course>270.0</course>
  <speed>0.0</speed>
  <fix>3d</fix>
</trkpt>
<trkpt lat="-27.2744391" lon="151.2900641">
  <ele>343.18</ele>
  <time>2026-09-01T19:51:24Z</time>
  <course>10.7</course>
  <speed>0.022360679774997897</speed>
  <fix>3d</fix>
</trkpt>
<trkpt lat="-27.274439" lon="151.290064">
  <ele>343.1</ele>
  <time>2026-09-01T19:51:24Z</time>
  <course>270.0</course>
  <speed>0.0</speed>
  <fix>3d</fix>
</trkpt>
<trkpt lat="-27.2744391" lon="151.2900641">
  <ele>343.18</ele>
  <time>2026-09-01T19:51:24Z</time>
  <course>10.7</course>
  <speed>0.022360679774997897</speed>
  <fix>3d</fix>
</trkpt>
<trkpt lat="-27.274439" lon="151.290064">
  <ele>343.1</ele>
  <time>2026-09-01T19:51:24Z</time>
  <course>270.0</course>
  <speed>0.0</speed>
  <fix>3d</fix>
</trkpt>
<trkpt lat="-27.2744391" lon="151.2900641">
  <ele>343.18</ele>
  <time>2026-09-01T19:51:24Z</time>
  <course>10.7</course>
  <speed>0.022360679774997897</speed>
  <fix>3d</fix>
</trkpt>
<trkpt lat="-27.274439" lon="151.290064">
  <ele>343.1</ele>
  <time>2026-09-01T19:51:24Z</time>
  <course>270.0</course>
  <speed>0.0</speed>
  <fix>3d</fix>
</trkpt>
<trkpt lat="-27.2744391" lon="151.2900641">
  <ele>343.18</ele>
  <time>2026-09-01T19:51:24Z</time>
  <course>10.7</course>
  <speed>0.022360679774997897</speed>
  <fix>3d</fix>
</trkpt>
<trkpt lat="-27.274439" lon="151.290064">
  <ele>343.1</ele>
  <time>2026-09-01T19:51:24Z</time>
  <course>270.0</course>
  <speed>0.0</speed>
  <fix>3d</fix>
</trkpt>
<trkpt lat="-27.2744391" lon="151.2900641">
  <ele>343.18</ele>
  <time>2026-09-01T19:51:24Z</time>
  <course>10.7</course>
  <speed>0.022360679774997897</speed>
  <fix>3d</fix>
</trkpt>
<trkpt lat="-27.274439" lon="151.290064">
  <ele>343.1</ele>
  <time>2026-09-01T19:51:24Z</time>
  <course>270.0</course>
  <speed>0.0</speed>
  <fix>3d</fix>
</trkpt>
<trkpt lat="-27.2744391" lon="151.2900641">
  <ele>343.19</ele>
  <time>2026-09-01T19:51:24Z</time>
  <course>10.7</course>
  <speed>0.022360679774997897</speed>
  <fix>3d</fix>
</trkpt>
<trkpt lat="-27.274439" lon="151.290064">
  <ele>343.1</ele>
  <time>2026-09-01T19:51:24Z</time>
  <course>270.0</course>
  <speed>0.0</speed>
  <fix>3d</fix>
</trkpt>
<trkpt lat="-27.2744391" lon="151.2900641">
  <ele>343.19</ele>
  <time>2026-09-01T19:51:24Z</time>
  <course>10.7</course>
  <speed>0.022360679774997897</speed>
  <fix>3d</fix>
</trkpt>
<trkpt lat="-27.274439" lon="151.290064">
  <ele>343.1</ele>
  <time>2026-09-01T19:51:24Z</time>
  <course>270.0</course>
  <speed>0.0</speed>
  <fix>3d</fix>
</trkpt>
<trkpt lat="-27.2744391" lon="151.2900641">
  <ele>343.19</ele>
  <time>2026-09-01T19:51:24Z</time>
  <course>10.7</course>
  <speed>0.022360679774997897</speed>
  <fix>3d</fix>
</trkpt>
<trkpt lat="-27.274439" lon="151.290064">
  <ele>343.1</ele>
  <time>2026-09-01T19:51:24Z</time>
  <course>270.0</course>
  <speed>0.0</speed>
  <fix>3d</fix>
</trkpt>
<trkpt lat="-27.2744391" lon="151.2900641">
  <ele>343.19</ele>
  <time>2026-09-01T19:51:24Z</time>
  <course>10.7</course>
  <speed>0.022360679774997897</speed>
  <fix>3d</fix>
</trkpt>
<trkpt lat="-27.274439" lon="151.290064">
  <ele>343.1</ele>
  <time>2026-09-01T19:51:24Z</time>
  <course>270.0</course>
  <speed>0.0</speed>
  <fix>3d</fix>
</trkpt>
<trkpt lat="-27.2744391" lon="151.2900641">
  <ele>343.19</ele>
  <time>2026-09-01T19:51:24Z</time>
  <course>10.7</course>
  <speed>0.022360679774997897</speed>
  <fix>3d</fix>
</trkpt>
<trkpt lat="-27.274439" lon="151.290064">
  <ele>343.1</ele>
  <time>2026-09-01T19:51:24Z</time>
  <course>270.0</course>
  <speed>0.0</speed>
  <fix>3d</fix>
</trkpt>
<trkpt lat="-27.2744391" lon="151.2900641">
  <ele>343.19</ele>
  <time>2026-09-01T19:51:24Z</time>
  <course>10.7</course>
  <speed>0.022360679774997897</speed>
  <fix>3d</fix>
</trkpt>
<trkpt lat="-27.274439" lon="151.290064">
  <ele>343.1</ele>
  <time>2026-09-01T19:51:24Z</time>
  <course>270.0</course>
  <speed>0.0</speed>
  <fix>3d</fix>
</trkpt>
<trkpt lat="-27.2744391" lon="151.2900641">
  <ele>343.19</ele>
  <time>2026-09-01T19:51:24Z</time>
  <course>10.7</course>
  <speed>0.022360679774997897</speed>
  <fix>3d</fix>
</trkpt>
<trkpt lat="-27.274439" lon="151.290064">
  <ele>343.1</ele>
  <time>2026-09-01T19:51:24Z</time>
  <course>270.0</course>
  <speed>0.0</speed>
  <fix>3d</fix>
</trkpt>
<trkpt lat="-27.2744391" lon="151.2900641">
  <ele>343.19</ele>
  <time>2026-09-01T19:51:24Z</time>
  <course>10.7</course>
  <speed>0.022360679774997897</speed>
  <fix>3d</fix>
</trkpt>
<trkpt lat="-27.274439" lon="151.290064">
  <ele>343.1</ele>
  <time>2026-09-01T19:51:24Z</time>
  <course>270.0</course>
  <speed>0.0</speed>
  <fix>3d</fix>
</trkpt>
<trkpt lat="-27.2744391" lon="151.2900641">
  <ele>343.19</ele>
  <time>2026-09-01T19:51:24Z</time>
  <course>10.7</course>
  <speed>0.022360679774997897</speed>
  <fix>3d</fix>
</trkpt>
<trkpt lat="-27.274439" lon="151.290064">
  <ele>343.1</ele>
  <time>2026-09-01T19:51:24Z</time>
  <course>270.0</course>
  <speed>0.0</speed>
  <fix>3d</fix>
</trkpt>
<trkpt lat="-27.2744391" lon="151.2900641">
  <ele>343.2</ele>
  <time>2026-09-01T19:51:24Z</time>
  <course>10.7</course>
  <speed>0.022360679774997897</speed>
  <fix>3d</fix>
</trkpt>
<trkpt lat="-27.274439" lon="151.290064">
  <ele>343.1</ele>
  <time>2026-09-01T19:51:24Z</time>
  <course>270.0</course>
  <speed>0.0</speed>
  <fix>3d</fix>
</trkpt>
<trkpt lat="-27.2744391" lon="151.2900641">
  <ele>343.2</ele>
  <time>2026-09-01T19:51:24Z</time>
  <course>10.7</course>
  <speed>0.022360679774997897</speed>
  <fix>3d</fix>
</trkpt>
<trkpt lat="-27.274439" lon="151.290064">
  <ele>343.1</ele>
  <time>2026-09-01T19:51:24Z</time>
  <course>270.0</course>
  <speed>0.0</speed>
  <fix>3d</fix>
</trkpt>
<trkpt lat="-27.2744391" lon="151.2900641">
  <ele>343.2</ele>
  <time>2026-09-01T19:51:24Z</time>
  <course>10.7</course>
  <speed>0.022360679774997897</speed>
  <fix>3d</fix>
</trkpt>
<trkpt lat="-27.274439" lon="151.290064">
  <ele>343.1</ele>
  <time>2026-09-01T19:51:24Z</time>
  <course>270.0</course>
  <speed>0.0</speed>
  <fix>3d</fix>
</trkpt>
<trkpt lat="-27.2744391" lon="151.2900641">
  <ele>343.2</ele>
  <time>2026-09-01T19:51:24Z</time>
  <course>10.7</course>
  <speed>0.022360679774997897</speed>
  <fix>3d</fix>
</trkpt>
<trkpt lat="-27.274439" lon="151.290064">
  <ele>343.1</ele>
  <time>2026-09-01T19:51:24Z</time>
  <course>270.0</course>
  <speed>0.0</speed>
  <fix>3d</fix>
</trkpt>
<trkpt lat="-27.2744391" lon="151.2900641">
  <ele>343.21</ele>
  <time>2026-09-01T19:51:24Z</time>
  <course>10.7</course>
  <speed>0.022360679774997897</speed>
  <fix>3d</fix>
</trkpt>
<trkpt lat="-27.274439" lon="151.290064">
  <ele>343.1</ele>
  <time>2026-09-01T19:51:24Z</time>
  <course>270.0</course>
  <speed>0.0</speed>
  <fix>3d</fix>
</trkpt>
<trkpt lat="-27.2744391" lon="151.2900641">
  <ele>343.21</ele>
  <time>2026-09-01T19:51:24Z</time>
  <course>10.7</course>
  <speed>0.022360679774997897</speed>
  <fix>3d</fix>
</trkpt>
<trkpt lat="-27.274439" lon="151.290064">
  <ele>343.1</ele>
  <time>2026-09-01T19:51:24Z</time>
  <course>270.0</course>
  <speed>0.0</speed>
  <fix>3d</fix>
</trkpt>
<trkpt lat="-27.2744392" lon="151.2900641">
  <ele>343.21</ele>
  <time>2026-09-01T19:51:24Z</time>
  <course>10.7</course>
  <speed>0.022360679774997897</speed>
  <fix>3d</fix>
</trkpt>
<trkpt lat="-27.274439" lon="151.290064">
  <ele>343.1</ele>
  <time>2026-09-01T19:51:24Z</time>
  <course>270.0</course>
  <speed>0.0</speed>
  <fix>3d</fix>
</trkpt>
<trkpt lat="-27.2744391" lon="151.2900641">
  <ele>343.21</ele>
  <time>2026-09-01T19:51:24Z</time>
  <course>10.7</course>
  <speed>0.022360679774997897</speed>
  <fix>3d</fix>
</trkpt>
<trkpt lat="-27.274439" lon="151.290064">
  <ele>343.1</ele>
  <time>2026-09-01T19:51:24Z</time>
  <course>270.0</course>
  <speed>0.0</speed>
  <fix>3d</fix>
</trkpt>
<trkpt lat="-27.2744392" lon="151.2900641">
  <ele>343.21</ele>
  <time>2026-09-01T19:51:24Z</time>
  <course>10.7</course>
  <speed>0.022360679774997897</speed>
  <fix>3d</fix>
</trkpt>
<trkpt lat="-27.274439" lon="151.290064">
  <ele>343.1</ele>
  <time>2026-09-01T19:51:24Z</time>
  <course>270.0</course>
  <speed>0.0</speed>
  <fix>3d</fix>
</trkpt>
<trkpt lat="-27.2744391" lon="151.2900641">
  <ele>343.21</ele>
  <time>2026-09-01T19:51:24Z</time>
  <course>10.7</course>
  <speed>0.022360679774997897</speed>
  <fix>3d</fix>
</trkpt>
<trkpt lat="-27.274439" lon="151.290064">
  <ele>343.1</ele>
  <time>2026-09-01T19:51:24Z</time>
  <course>270.0</course>
  <speed>0.0</speed>
  <fix>3d</fix>
</trkpt>
<trkpt lat="-27.2744392" lon="151.2900641">
  <ele>343.21</ele>
  <time>2026-09-01T19:51:24Z</time>
  <course>10.7</course>
  <speed>0.022360679774997897</speed>
  <fix>3d</fix>
</trkpt>
<trkpt lat="-27.274439" lon="151.290064">
  <ele>343.1</ele>
  <time>2026-09-01T19:51:24Z</time>
  <course>270.0</course>
  <speed>0.0</speed>
  <fix>3d</fix>
</trkpt>
<trkpt lat="-27.2744392" lon="151.2900641">
  <ele>343.21</ele>
  <time>2026-09-01T19:51:24Z</time>
  <course>10.7</course>
  <speed>0.022360679774997897</speed>
  <fix>3d</fix>
</trkpt>
<trkpt lat="-27.274439" lon="151.290064">
  <ele>343.1</ele>
  <time>2026-09-01T19:51:24Z</time>
  <course>270.0</course>
  <speed>0.0</speed>
  <fix>3d</fix>
</trkpt>
<trkpt lat="-27.2744392" lon="151.2900641">
  <ele>343.22</ele>
  <time>2026-09-01T19:51:24Z</time>
  <course>10.7</course>
  <speed>0.022360679774997897</speed>
  <fix>3d</fix>
</trkpt>
<trkpt lat="-27.274439" lon="151.290064">
  <ele>343.1</ele>
  <time>2026-09-01T19:51:24Z</time>
  <course>270.0</course>
  <speed>0.0</speed>
  <fix>3d</fix>
</trkpt>
<trkpt lat="-27.2744392" lon="151.2900641">
  <ele>343.22</ele>
  <time>2026-09-01T19:51:24Z</time>
  <course>10.7</course>
  <speed>0.022360679774997897</speed>
  <fix>3d</fix>
</trkpt>
<trkpt lat="-27.274439" lon="151.290064">
  <ele>343.1</ele>
  <time>2026-09-01T19:51:24Z</time>
  <course>270.0</course>
  <speed>0.0</speed>
  <fix>3d</fix>
</trkpt>
<trkpt lat="-27.2744392" lon="151.2900641">
  <ele>343.22</ele>
  <time>2026-09-01T19:51:24Z</time>
  <course>10.7</course>
  <speed>0.022360679774997897</speed>
  <fix>3d</fix>
</trkpt>
<trkpt lat="-27.274439" lon="151.290064">
  <ele>343.1</ele>
  <time>2026-09-01T19:51:24Z</time>
  <course>270.0</course>
  <speed>0.0</speed>
  <fix>3d</fix>
</trkpt>
<trkpt lat="-27.2744392" lon="151.2900641">
  <ele>343.22</ele>
  <time>2026-09-01T19:51:24Z</time>
  <course>10.7</course>
  <speed>0.022360679774997897</speed>
  <fix>3d</fix>
</trkpt>
<trkpt lat="-27.274439" lon="151.290064">
  <ele>343.1</ele>
  <time>2026-09-01T19:51:24Z</time>
  <course>270.0</course>
  <speed>0.0</speed>
  <fix>3d</fix>
</trkpt>
<trkpt lat="-27.2744392" lon="151.2900641">
  <ele>343.22</ele>
  <time>2026-09-01T19:51:24Z</time>
  <course>10.7</course>
  <speed>0.022360679774997897</speed>
  <fix>3d</fix>
</trkpt>
<trkpt lat="-27.274439" lon="151.290064">
  <ele>343.1</ele>
  <time>2026-09-01T19:51:24Z</time>
  <course>270.0</course>
  <speed>0.0</speed>
  <fix>3d</fix>
</trkpt>
<trkpt lat="-27.2744392" lon="151.2900641">
  <ele>343.22</ele>
  <time>2026-09-01T19:51:24Z</time>
  <course>10.7</course>
  <speed>0.022360679774997897</speed>
  <fix>3d</fix>
</trkpt>
<trkpt lat="-27.274439" lon="151.290064">
  <ele>343.1</ele>
  <time>2026-09-01T19:51:24Z</time>
  <course>270.0</course>
  <speed>0.0</speed>
  <fix>3d</fix>
</trkpt>
<trkpt lat="-27.2744392" lon="151.2900641">
  <ele>343.22</ele>
  <time>2026-09-01T19:51:24Z</time>
  <course>10.7</course>
  <speed>0.022360679774997897</speed>
  <fix>3d</fix>
</trkpt>
<trkpt lat="-27.274439" lon="151.290064">
  <ele>343.1</ele>
  <time>2026-09-01T19:51:24Z</time>
  <course>270.0</course>
  <speed>0.0</speed>
  <fix>3d</fix>
</trkpt>
<trkpt lat="-27.2744392" lon="151.2900641">
  <ele>343.1</ele>
  <time>2026-09-01T19:51:24Z</time>
  <course>10.7</course>
  <speed>0.022360679774997897</speed>
  <fix>3d</fix>
</trkpt>
<trkpt lat="-27.274439" lon="151.290064">
  <ele>343.1</ele>
  <time>2026-09-01T19:51:24Z</time>
  <course>270.0</course>
  <speed>0.0</speed>
  <fix>3d</fix>
</trkpt>
<trkpt lat="-27.2744392" lon="151.2900641">
  <ele>343.1</ele>
  <time>2026-09-01T19:51:24Z</time>
  <course>10.7</course>
  <speed>0.022360679774997897</speed>
  <fix>3d</fix>
</trkpt>
<trkpt lat="-27.274439" lon="151.290064">
  <ele>343.1</ele>
  <time>2026-09-01T19:51:24Z</time>
  <course>270.0</course>
  <speed>0.0</speed>
  <fix>3d</fix>
</trkpt>
<trkpt lat="-27.2744392" lon="151.2900641">
  <ele>343.1</ele>
  <time>2026-09-01T19:51:24Z</time>
  <course>10.7</course>
  <speed>0.022360679774997897</speed>
  <fix>3d</fix>
</trkpt>
<trkpt lat="-27.274439" lon="151.290064">
  <ele>343.1</ele>
  <time>2026-09-01T19:51:24Z</time>
  <course>270.0</course>
  <speed>0.0</speed>
  <fix>3d</fix>
</trkpt>
<trkpt lat="-27.2744392" lon="151.2900641">
  <ele>343.1</ele>
  <time>2026-09-01T19:51:24Z</time>
  <course>10.7</course>
  <speed>0.022360679774997897</speed>
  <fix>3d</fix>
</trkpt>
<trkpt lat="-27.274439" lon="151.290064">
  <ele>343.1</ele>
  <time>2026-09-01T19:51:24Z</time>
  <course>270.0</course>
  <speed>0.0</speed>
  <fix>3d</fix>
</trkpt>
<trkpt lat="-27.2744392" lon="151.2900641">
  <ele>343.1</ele>
  <time>2026-09-01T19:51:24Z</time>
  <course>10.7</course>
  <speed>0.022360679774997897</speed>
  <fix>3d</fix>
</trkpt>
<trkpt lat="-27.274439" lon="151.290064">
  <ele>343.1</ele>
  <time>2026-09-01T19:51:24Z</time>
  <course>270.0</course>
  <speed>0.0</speed>
  <fix>3d</fix>
</trkpt>
<trkpt lat="-27.2744392" lon="151.2900641">
  <ele>343.1</ele>
  <time>2026-09-01T19:51:24Z</time>
  <course>10.7</course>
  <speed>0.022360679774997897</speed>
  <fix>3d</fix>
</trkpt>
<trkpt lat="-27.274439" lon="151.290064">
  <ele>343.1</ele>
  <time>2026-09-01T19:51:24Z</time>
  <course>270.0</course>
  <speed>0.0</speed>
  <fix>3d</fix>
</trkpt>
<trkpt lat="-27.2744392" lon="151.2900641">
  <ele>343.09</ele>
  <time>2026-09-01T19:51:24Z</time>
  <course>10.7</course>
  <speed>0.022360679774997897</speed>
  <fix>3d</fix>
</trkpt>
<trkpt lat="-27.274439" lon="151.290064">
  <ele>343.1</ele>
  <time>2026-09-01T19:51:24Z</time>
  <course>270.0</course>
  <speed>0.0</speed>
  <fix>3d</fix>
</trkpt>
<trkpt lat="-27.2744392" lon="151.2900641">
  <ele>343.09</ele>
  <time>2026-09-01T19:51:24Z</time>
  <course>10.7</course>
  <speed>0.022360679774997897</speed>
  <fix>3d</fix>
</trkpt>
<trkpt lat="-27.274439" lon="151.290064">
  <ele>343.1</ele>
  <time>2026-09-01T19:51:24Z</time>
  <course>270.0</course>
  <speed>0.0</speed>
  <fix>3d</fix>
</trkpt>
<trkpt lat="-27.2744392" lon="151.2900641">
  <ele>343.08</ele>
  <time>2026-09-01T19:51:24Z</time>
  <course>10.7</course>
  <speed>0.022360679774997897</speed>
  <fix>3d</fix>
</trkpt>
<trkpt lat="-27.274439" lon="151.290064">
  <ele>343.1</ele>
  <time>2026-09-01T19:51:24Z</time>
  <course>270.0</course>
  <speed>0.0</speed>
  <fix>3d</fix>
</trkpt>
<trkpt lat="-27.2744392" lon="151.2900641">
  <ele>343.08</ele>
  <time>2026-09-01T19:51:24Z</time>
  <course>10.7</course>
  <speed>0.022360679774997897</speed>
  <fix>3d</fix>
</trkpt>
<trkpt lat="-27.274439" lon="151.290064">
  <ele>343.1</ele>
  <time>2026-09-01T19:51:24Z</time>
  <course>270.0</course>
  <speed>0.0</speed>
  <fix>3d</fix>
</trkpt>
<trkpt lat="-27.2744392" lon="151.2900641">
  <ele>343.08</ele>
  <time>2026-09-01T19:51:24Z</time>
  <course>10.71</course>
  <speed>0.022360679774997897</speed>
  <fix>3d</fix>
</trkpt>
<trkpt lat="-27.274439" lon="151.290064">
  <ele>343.1</ele>
  <time>2026-09-01T19:51:24Z</time>
  <course>270.0</course>
  <speed>0.0</speed>
  <fix>3d</fix>
</trkpt>
<trkpt lat="-27.2744392" lon="151.2900641">
  <ele>343.07</ele>
  <time>2026-09-01T19:51:24Z</time>
  <course>10.71</course>
  <speed>0.022360679774997897</speed>
  <fix>3d</fix>
</trkpt>
<trkpt lat="-27.274439" lon="151.290064">
  <ele>343.1</ele>
  <time>2026-09-01T19:51:24Z</time>
  <course>270.0</course>
  <speed>0.0</speed>
  <fix>3d</fix>
</trkpt>
<trkpt lat="-27.2744392" lon="151.2900641">
  <ele>343.07</ele>
  <time>2026-09-01T19:51:24Z</time>
  <course>10.71</course>
  <speed>0.022360679774997897</speed>
  <fix>3d</fix>
</trkpt>
<trkpt lat="-27.274439" lon="151.290064">
  <ele>343.1</ele>
  <time>2026-09-01T19:51:24Z</time>
  <course>270.0</course>
  <speed>0.0</speed>
  <fix>3d</fix>
</trkpt>
<trkpt lat="-27.2744392" lon="151.2900641">
  <ele>343.07</ele>
  <time>2026-09-01T19:51:24Z</time>
  <course>10.71</course>
  <speed>0.022360679774997897</speed>
  <fix>3d</fix>
</trkpt>
<trkpt lat="-27.274439" lon="151.290064">
  <ele>343.1</ele>
  <time>2026-09-01T19:51:24Z</time>
  <course>270.0</course>
  <speed>0.0</speed>
  <fix>3d</fix>
</trkpt>
<trkpt lat="-27.2744392" lon="151.2900641">
  <ele>343.07</ele>
  <time>2026-09-01T19:51:24Z</time>
  <course>10.71</course>
  <speed>0.022360679774997897</speed>
  <fix>3d</fix>
</trkpt>
<trkpt lat="-27.274439" lon="151.290064">
  <ele>343.1</ele>
  <time>2026-09-01T19:51:24Z</time>
  <course>270.0</course>
  <speed>0.0</speed>
  <fix>3d</fix>
</trkpt>
<trkpt lat="-27.2744392" lon="151.2900641">
  <ele>343.06</ele>
  <time>2026-09-01T19:51:24Z</time>
  <course>10.71</course>
  <speed>0.022360679774997897</speed>
  <fix>3d</fix>
</trkpt>
<trkpt lat="-27.274439" lon="151.290064">
  <ele>343.1</ele>
  <time>2026-09-01T19:51:24Z</time>
  <course>270.0</course>
  <speed>0.0</speed>
  <fix>3d</fix>
</trkpt>
<trkpt lat="-27.2744392" lon="151.2900641">
  <ele>343.06</ele>
  <time>2026-09-01T19:51:24Z</time>
  <course>10.71</course>
  <speed>0.022360679774997897</speed>
  <fix>3d</fix>
</trkpt>
<trkpt lat="-27.274439" lon="151.290064">
  <ele>343.1</ele>
  <time>2026-09-01T19:51:24Z</time>
  <course>270.0</course>
  <speed>0.0</speed>
  <fix>3d</fix>
</trkpt>
<trkpt lat="-27.2744392" lon="151.2900641">
  <ele>343.06</ele>
  <time>2026-09-01T19:51:24Z</time>
  <course>10.71</course>
  <speed>0.022360679774997897</speed>
  <fix>3d</fix>
</trkpt>
<trkpt lat="-27.274439" lon="151.290064">
  <ele>343.1</ele>
  <time>2026-09-01T19:51:24Z</time>
  <course>270.0</course>
  <speed>0.0</speed>
  <fix>3d</fix>
</trkpt>
<trkpt lat="-27.2744392" lon="151.2900641">
  <ele>343.06</ele>
  <time>2026-09-01T19:51:24Z</time>
  <course>10.71</course>
  <speed>0.022360679774997897</speed>
  <fix>3d</fix>
</trkpt>
<trkpt lat="-27.274439" lon="151.290064">
  <ele>343.1</ele>
  <time>2026-09-01T19:51:24Z</time>
  <course>270.0</course>
  <speed>0.0</speed>
  <fix>3d</fix>
</trkpt>
<trkpt lat="-27.2744392" lon="151.2900641">
  <ele>343.05</ele>
  <time>2026-09-01T19:51:24Z</time>
  <course>10.71</course>
  <speed>0.022360679774997897</speed>
  <fix>3d</fix>
</trkpt>
<trkpt lat="-27.274439" lon="151.290064">
  <ele>343.1</ele>
  <time>2026-09-01T19:51:24Z</time>
  <course>270.0</course>
  <speed>0.0</speed>
  <fix>3d</fix>
</trkpt>
<trkpt lat="-27.2744392" lon="151.2900641">
  <ele>343.05</ele>
  <time>2026-09-01T19:51:24Z</time>
  <course>10.71</course>
  <speed>0.022360679774997897</speed>
  <fix>3d</fix>
</trkpt>
<trkpt lat="-27.274439" lon="151.290064">
  <ele>343.1</ele>
  <time>2026-09-01T19:51:24Z</time>
  <course>270.0</course>
  <speed>0.0</speed>
  <fix>3d</fix>
</trkpt>
<trkpt lat="-27.2744392" lon="151.2900641">
  <ele>343.05</ele>
  <time>2026-09-01T19:51:24Z</time>
  <course>10.71</course>
  <speed>0.022360679774997897</speed>
  <fix>3d</fix>
</trkpt>
<trkpt lat="-27.274439" lon="151.290064">
  <ele>343.1</ele>
  <time>2026-09-01T19:51:24Z</time>
  <course>270.0</course>
  <speed>0.0</speed>
  <fix>3d</fix>
</trkpt>
<trkpt lat="-27.2744392" lon="151.2900641">
  <ele>343.04</ele>
  <time>2026-09-01T19:51:24Z</time>
  <course>10.71</course>
  <speed>0.022360679774997897</speed>
  <fix>3d</fix>
</trkpt>
<trkpt lat="-27.274439" lon="151.290064">
  <ele>343.1</ele>
  <time>2026-09-01T19:51:24Z</time>
  <course>270.0</course>
  <speed>0.0</speed>
  <fix>3d</fix>
</trkpt>
<trkpt lat="-27.2744392" lon="151.2900641">
  <ele>343.04</ele>
  <time>2026-09-01T19:51:24Z</time>
  <course>10.71</course>
  <speed>0.022360679774997897</speed>
  <fix>3d</fix>
</trkpt>
<trkpt lat="-27.274439" lon="151.290064">
  <ele>343.1</ele>
  <time>2026-09-01T19:51:24Z</time>
  <course>270.0</course>
  <speed>0.0</speed>
  <fix>3d</fix>
</trkpt>
<trkpt lat="-27.2744392" lon="151.2900641">
  <ele>343.04</ele>
  <time>2026-09-01T19:51:24Z</time>
  <course>10.71</course>
  <speed>0.022360679774997897</speed>
  <fix>3d</fix>
</trkpt>
<trkpt lat="-27.274439" lon="151.290064">
  <ele>343.1</ele>
  <time>2026-09-01T19:51:24Z</time>
  <course>270.0</course>
  <speed>0.0</speed>
  <fix>3d</fix>
</trkpt>
<trkpt lat="-27.2744392" lon="151.2900641">
  <ele>343.03</ele>
  <time>2026-09-01T19:51:24Z</time>
  <course>10.71</course>
  <speed>0.022360679774997897</speed>
  <fix>3d</fix>
</trkpt>
<trkpt lat="-27.274439" lon="151.290064">
  <ele>343.1</ele>
  <time>2026-09-01T19:51:24Z</time>
  <course>270.0</course>
  <speed>0.0</speed>
  <fix>3d</fix>
</trkpt>
<trkpt lat="-27.2744392" lon="151.2900641">
  <ele>343.03</ele>
  <time>2026-09-01T19:51:24Z</time>
  <course>10.71</course>
  <speed>0.022360679774997897</speed>
  <fix>3d</fix>
</trkpt>
<trkpt lat="-27.274439" lon="151.290064">
  <ele>343.1</ele>
  <time>2026-09-01T19:51:24Z</time>
  <course>270.0</course>
  <speed>0.0</speed>
  <fix>3d</fix>
</trkpt>
<trkpt lat="-27.2744392" lon="151.2900641">
  <ele>343.02</ele>
  <time>2026-09-01T19:51:24Z</time>
  <course>10.71</course>
  <speed>0.022360679774997897</speed>
  <fix>3d</fix>
</trkpt>
<trkpt lat="-27.274439" lon="151.290064">
  <ele>343.1</ele>
  <time>2026-09-01T19:51:24Z</time>
  <course>270.0</course>
  <speed>0.0</speed>
  <fix>3d</fix>
</trkpt>
<trkpt lat="-27.2744392" lon="151.2900641">
  <ele>343.02</ele>
  <time>2026-09-01T19:51:24Z</time>
  <course>10.71</course>
  <speed>0.022360679774997897</speed>
  <fix>3d</fix>
</trkpt>
<trkpt lat="-27.274439" lon="151.290064">
  <ele>343.1</ele>
  <time>2026-09-01T19:51:24Z</time>
  <course>270.0</course>
  <speed>0.0</speed>
  <fix>3d</fix>
</trkpt>
<trkpt lat="-27.2744392" lon="151.2900641">
  <ele>343.02</ele>
  <time>2026-09-01T19:51:24Z</time>
  <course>10.71</course>
  <speed>0.022360679774997897</speed>
  <fix>3d</fix>
</trkpt>
<trkpt lat="-27.274439" lon="151.290064">
  <ele>343.1</ele>
  <time>2026-09-01T19:51:24Z</time>
  <course>270.0</course>
  <speed>0.0</speed>
  <fix>3d</fix>
</trkpt>
<trkpt lat="-27.2744392" lon="151.2900641">
  <ele>343.01</ele>
  <time>2026-09-01T19:51:24Z</time>
  <course>10.71</course>
  <speed>0.022360679774997897</speed>
  <fix>3d</fix>
</trkpt>
<trkpt lat="-27.274439" lon="151.290064">
  <ele>343.1</ele>
  <time>2026-09-01T19:51:24Z</time>
  <course>270.0</course>
  <speed>0.0</speed>
  <fix>3d</fix>
</trkpt>
<trkpt lat="-27.2744392" lon="151.2900641">
  <ele>343.0</ele>
  <time>2026-09-01T19:51:24Z</time>
  <course>10.71</course>
  <speed>0.022360679774997897</speed>
  <fix>3d</fix>
</trkpt>
<trkpt lat="-27.274439" lon="151.290064">
  <ele>343.1</ele>
  <time>2026-09-01T19:51:24Z</time>
  <course>270.0</course>
  <speed>0.0</speed>
  <fix>3d</fix>
</trkpt>
<trkpt lat="-27.2744392" lon="151.2900641">
  <ele>343.0</ele>
  <time>2026-09-01T19:51:24Z</time>
  <course>10.71</course>
  <speed>0.022360679774997897</speed>
  <fix>3d</fix>
</trkpt>
<trkpt lat="-27.274439" lon="151.290064">
  <ele>343.1</ele>
  <time>2026-09-01T19:51:24Z</time>
  <course>270.0</course>
  <speed>0.0</speed>
  <fix>3d</fix>
</trkpt>
<trkpt lat="-27.2744392" lon="151.2900641">
  <ele>342.99</ele>
  <time>2026-09-01T19:51:24Z</time>
  <course>10.71</course>
  <speed>0.022360679774997897</speed>
  <fix>3d</fix>
</trkpt>
<trkpt lat="-27.274439" lon="151.290064">
  <ele>343.1</ele>
  <time>2026-09-01T19:51:24Z</time>
  <course>270.0</course>
  <speed>0.0</speed>
  <fix>3d</fix>
</trkpt>
<trkpt lat="-27.2744392" lon="151.2900641">
  <ele>342.99</ele>
  <time>2026-09-01T19:51:24Z</time>
  <course>10.71</course>
  <speed>0.022360679774997897</speed>
  <fix>3d</fix>
</trkpt>
<trkpt lat="-27.274439" lon="151.290064">
  <ele>343.1</ele>
  <time>2026-09-01T19:51:24Z</time>
  <course>270.0</course>
  <speed>0.0</speed>
  <fix>3d</fix>
</trkpt>
<trkpt lat="-27.2744392" lon="151.2900641">
  <ele>342.98</ele>
  <time>2026-09-01T19:51:24Z</time>
  <course>10.71</course>
  <speed>0.022360679774997897</speed>
  <fix>3d</fix>
</trkpt>
<trkpt lat="-27.274439" lon="151.290064">
  <ele>343.1</ele>
  <time>2026-09-01T19:51:24Z</time>
  <course>270.0</course>
  <speed>0.0</speed>
  <fix>3d</fix>
</trkpt>
<trkpt lat="-27.2744392" lon="151.2900641">
  <ele>342.98</ele>
  <time>2026-09-01T19:51:24Z</time>
  <course>10.71</course>
  <speed>0.022360679774997897</speed>
  <fix>3d</fix>
</trkpt>
<trkpt lat="-27.274439" lon="151.290064">
  <ele>343.1</ele>
  <time>2026-09-01T19:51:24Z</time>
  <course>270.0</course>
  <speed>0.0</speed>
  <fix>3d</fix>
</trkpt>
<trkpt lat="-27.2744392" lon="151.2900641">
  <ele>342.98</ele>
  <time>2026-09-01T19:51:24Z</time>
  <course>10.71</course>
  <speed>0.022360679774997897</speed>
  <fix>3d</fix>
</trkpt>
<trkpt lat="-27.274439" lon="151.290064">
  <ele>343.1</ele>
  <time>2026-09-01T19:51:24Z</time>
  <course>270.0</course>
  <speed>0.0</speed>
  <fix>3d</fix>
</trkpt>
<trkpt lat="-27.2744392" lon="151.2900641">
  <ele>342.98</ele>
  <time>2026-09-01T19:51:24Z</time>
  <course>10.71</course>
  <speed>0.022360679774997897</speed>
  <fix>3d</fix>
</trkpt>
<trkpt lat="-27.274439" lon="151.290064">
  <ele>343.1</ele>
  <time>2026-09-01T19:51:24Z</time>
  <course>270.0</course>
  <speed>0.0</speed>
  <fix>3d</fix>
</trkpt>
<trkpt lat="-27.2744392" lon="151.2900641">
  <ele>342.98</ele>
  <time>2026-09-01T19:51:24Z</time>
  <course>10.71</course>
  <speed>0.022360679774997897</speed>
  <fix>3d</fix>
</trkpt>
<trkpt lat="-27.274439" lon="151.290064">
  <ele>343.1</ele>
  <time>2026-09-01T19:51:24Z</time>
  <course>270.0</course>
  <speed>0.0</speed>
  <fix>3d</fix>
</trkpt>
<trkpt lat="-27.2744392" lon="151.2900641">
  <ele>342.97</ele>
  <time>2026-09-01T19:51:24Z</time>
  <course>10.71</course>
  <speed>0.022360679774997897</speed>
  <fix>3d</fix>
</trkpt>
<trkpt lat="-27.274439" lon="151.290064">
  <ele>343.1</ele>
  <time>2026-09-01T19:51:24Z</time>
  <course>270.0</course>
  <speed>0.0</speed>
  <fix>3d</fix>
</trkpt>
<trkpt lat="-27.2744392" lon="151.2900641">
  <ele>342.97</ele>
  <time>2026-09-01T19:51:24Z</time>
  <course>10.71</course>
  <speed>0.022360679774997897</speed>
  <fix>3d</fix>
</trkpt>
<trkpt lat="-27.274439" lon="151.290064">
  <ele>343.1</ele>
  <time>2026-09-01T19:51:24Z</time>
  <course>270.0</course>
  <speed>0.0</speed>
  <fix>3d</fix>
</trkpt>
<trkpt lat="-27.2744392" lon="151.2900641">
  <ele>342.97</ele>
  <time>2026-09-01T19:51:24Z</time>
  <course>10.71</course>
  <speed>0.022360679774997897</speed>
  <fix>3d</fix>
</trkpt>
<trkpt lat="-27.274439" lon="151.290064">
  <ele>343.1</ele>
  <time>2026-09-01T19:51:24Z</time>
  <course>270.0</course>
  <speed>0.0</speed>
  <fix>3d</fix>
</trkpt>
<trkpt lat="-27.2744392" lon="151.2900641">
  <ele>342.97</ele>
  <time>2026-09-01T19:51:24Z</time>
  <course>10.71</course>
  <speed>0.022360679774997897</speed>
  <fix>3d</fix>
</trkpt>
<trkpt lat="-27.274439" lon="151.290064">
  <ele>343.1</ele>
  <time>2026-09-01T19:51:24Z</time>
  <course>270.0</course>
  <speed>0.0</speed>
  <fix>3d</fix>
</trkpt>
<trkpt lat="-27.2744392" lon="151.2900641">
  <ele>342.97</ele>
  <time>2026-09-01T19:51:24Z</time>
  <course>10.71</course>
  <speed>0.022360679774997897</speed>
  <fix>3d</fix>
</trkpt>
<trkpt lat="-27.274439" lon="151.290064">
  <ele>343.1</ele>
  <time>2026-09-01T19:51:24Z</time>
  <course>270.0</course>
  <speed>0.0</speed>
  <fix>3d</fix>
</trkpt>
<trkpt lat="-27.2744392" lon="151.2900641">
  <ele>342.97</ele>
  <time>2026-09-01T19:51:24Z</time>
  <course>10.71</course>
  <speed>0.022360679774997897</speed>
  <fix>3d</fix>
</trkpt>
<trkpt lat="-27.274439" lon="151.290064">
  <ele>343.1</ele>
  <time>2026-09-01T19:51:24Z</time>
  <course>270.0</course>
  <speed>0.0</speed>
  <fix>3d</fix>
</trkpt>
<trkpt lat="-27.2744392" lon="151.2900641">
  <ele>342.96</ele>
  <time>2026-09-01T19:51:24Z</time>
  <course>10.71</course>
  <speed>0.022360679774997897</speed>
  <fix>3d</fix>
</trkpt>
<trkpt lat="-27.274439" lon="151.290064">
  <ele>343.1</ele>
  <time>2026-09-01T19:51:24Z</time>
  <course>270.0</course>
  <speed>0.0</speed>
  <fix>3d</fix>
</trkpt>
<trkpt lat="-27.2744392" lon="151.2900641">
  <ele>342.96</ele>
  <time>2026-09-01T19:51:24Z</time>
  <course>10.71</course>
  <speed>0.022360679774997897</speed>
  <fix>3d</fix>
</trkpt>
<trkpt lat="-27.274439" lon="151.290064">
  <ele>343.1</ele>
  <time>2026-09-01T19:51:24Z</time>
  <course>270.0</course>
  <speed>0.0</speed>
  <fix>3d</fix>
</trkpt>
<trkpt lat="-27.2744392" lon="151.2900641">
  <ele>342.96</ele>
  <time>2026-09-01T19:51:24Z</time>
  <course>10.71</course>
  <speed>0.022360679774997897</speed>
  <fix>3d</fix>
</trkpt>
<trkpt lat="-27.274439" lon="151.290064">
  <ele>343.1</ele>
  <time>2026-09-01T19:51:24Z</time>
  <course>270.0</course>
  <speed>0.0</speed>
  <fix>3d</fix>
</trkpt>
<trkpt lat="-27.2744392" lon="151.2900641">
  <ele>342.96</ele>
  <time>2026-09-01T19:51:24Z</time>
  <course>10.71</course>
  <speed>0.022360679774997897</speed>
  <fix>3d</fix>
</trkpt>
<trkpt lat="-27.274439" lon="151.290064">
  <ele>343.1</ele>
  <time>2026-09-01T19:51:24Z</time>
  <course>270.0</course>
  <speed>0.0</speed>
  <fix>3d</fix>
</trkpt>
<trkpt lat="-27.2744392" lon="151.2900641">
  <ele>342.96</ele>
  <time>2026-09-01T19:51:24Z</time>
  <course>10.71</course>
  <speed>0.022360679774997897</speed>
  <fix>3d</fix>
</trkpt>
<trkpt lat="-27.274439" lon="151.290064">
  <ele>343.1</ele>
  <time>2026-09-01T19:51:24Z</time>
  <course>270.0</course>
  <speed>0.0</speed>
  <fix>3d</fix>
</trkpt>
<trkpt lat="-27.2744392" lon="151.2900641">
  <ele>342.96</ele>
  <time>2026-09-01T19:51:24Z</time>
  <course>10.71</course>
  <speed>0.022360679774997897</speed>
  <fix>3d</fix>
</trkpt>
<trkpt lat="-27.274439" lon="151.290064">
  <ele>343.1</ele>
  <time>2026-09-01T19:51:24Z</time>
  <course>270.0</course>
  <speed>0.0</speed>
  <fix>3d</fix>
</trkpt>
<trkpt lat="-27.2744392" lon="151.2900641">
  <ele>342.96</ele>
  <time>2026-09-01T19:51:24Z</time>
  <course>10.71</course>
  <speed>0.022360679774997897</speed>
  <fix>3d</fix>
</trkpt>
<trkpt lat="-27.274439" lon="151.290064">
  <ele>343.1</ele>
  <time>2026-09-01T19:51:24Z</time>
  <course>270.0</course>
  <speed>0.0</speed>
  <fix>3d</fix>
</trkpt>
<trkpt lat="-27.2744392" lon="151.2900641">
  <ele>342.95</ele>
  <time>2026-09-01T19:51:24Z</time>
  <course>10.71</course>
  <speed>0.022360679774997897</speed>
  <fix>3d</fix>
</trkpt>
<trkpt lat="-27.274439" lon="151.290064">
  <ele>343.1</ele>
  <time>2026-09-01T19:51:24Z</time>
  <course>270.0</course>
  <speed>0.0</speed>
  <fix>3d</fix>
</trkpt>
<trkpt lat="-27.2744392" lon="151.2900641">
  <ele>342.95</ele>
  <time>2026-09-01T19:51:24Z</time>
  <course>10.71</course>
  <speed>0.022360679774997897</speed>
  <fix>3d</fix>
</trkpt>
<trkpt lat="-27.274439" lon="151.290064">
  <ele>343.1</ele>
  <time>2026-09-01T19:51:24Z</time>
  <course>270.0</course>
  <speed>0.0</speed>
  <fix>3d</fix>
</trkpt>
<trkpt lat="-27.2744392" lon="151.2900641">
  <ele>342.95</ele>
  <time>2026-09-01T19:51:24Z</time>
  <course>10.72</course>
  <speed>0.022360679774997897</speed>
  <fix>3d</fix>
</trkpt>
<trkpt lat="-27.274439" lon="151.290064">
  <ele>343.1</ele>
  <time>2026-09-01T19:51:24Z</time>
  <course>270.0</course>
  <speed>0.0</speed>
  <fix>3d</fix>
</trkpt>
<trkpt lat="-27.2744392" lon="151.2900641">
  <ele>342.95</ele>
  <time>2026-09-01T19:51:24Z</time>
  <course>10.72</course>
  <speed>0.022360679774997897</speed>
  <fix>3d</fix>
</trkpt>
<trkpt lat="-27.274439" lon="151.290064">
  <ele>343.1</ele>
  <time>2026-09-01T19:51:24Z</time>
  <course>270.0</course>
  <speed>0.0</speed>
  <fix>3d</fix>
</trkpt>
<trkpt lat="-27.2744392" lon="151.2900641">
  <ele>342.95</ele>
  <time>2026-09-01T19:51:24Z</time>
  <course>10.72</course>
  <speed>0.022360679774997897</speed>
  <fix>3d</fix>
</trkpt>
<trkpt lat="-27.274439" lon="151.290064">
  <ele>343.1</ele>
  <time>2026-09-01T19:51:24Z</time>
  <course>270.0</course>
  <speed>0.0</speed>
  <fix>3d</fix>
</trkpt>
<trkpt lat="-27.2744392" lon="151.2900641">
  <ele>342.95</ele>
  <time>2026-09-01T19:51:24Z</time>
  <course>10.72</course>
  <speed>0.022360679774997897</speed>
  <fix>3d</fix>
</trkpt>
<trkpt lat="-27.274439" lon="151.290064">
  <ele>343.1</ele>
  <time>2026-09-01T19:51:24Z</time>
  <course>270.0</course>
  <speed>0.0</speed>
  <fix>3d</fix>
</trkpt>
<trkpt lat="-27.2744392" lon="151.2900641">
  <ele>342.95</ele>
  <time>2026-09-01T19:51:24Z</time>
  <course>10.72</course>
  <speed>0.022360679774997897</speed>
  <fix>3d</fix>
</trkpt>
<trkpt lat="-27.274439" lon="151.290064">
  <ele>343.1</ele>
  <time>2026-09-01T19:51:24Z</time>
  <course>270.0</course>
  <speed>0.0</speed>
  <fix>3d</fix>
</trkpt>
<trkpt lat="-27.2744392" lon="151.2900641">
  <ele>343.09</ele>
  <time>2026-09-01T19:51:24Z</time>
  <course>10.72</course>
  <speed>0.022360679774997897</speed>
  <fix>3d</fix>
</trkpt>
<trkpt lat="-27.274439" lon="151.290064">
  <ele>343.1</ele>
  <time>2026-09-01T19:51:24Z</time>
  <course>270.0</course>
  <speed>0.0</speed>
  <fix>3d</fix>
</trkpt>
<trkpt lat="-27.2744392" lon="151.2900641">
  <ele>343.09</ele>
  <time>2026-09-01T19:51:24Z</time>
  <course>10.72</course>
  <speed>0.022360679774997897</speed>
  <fix>3d</fix>
</trkpt>
<trkpt lat="-27.274439" lon="151.290064">
  <ele>343.1</ele>
  <time>2026-09-01T19:51:24Z</time>
  <course>270.0</course>
  <speed>0.0</speed>
  <fix>3d</fix>
</trkpt>
<trkpt lat="-27.2744392" lon="151.2900641">
  <ele>343.09</ele>
  <time>2026-09-01T19:51:24Z</time>
  <course>10.72</course>
  <speed>0.022360679774997897</speed>
  <fix>3d</fix>
</trkpt>
<trkpt lat="-27.274439" lon="151.290064">
  <ele>343.1</ele>
  <time>2026-09-01T19:51:24Z</time>
  <course>270.0</course>
  <speed>0.0</speed>
  <fix>3d</fix>
</trkpt>
<trkpt lat="-27.2744392" lon="151.2900641">
  <ele>343.09</ele>
  <time>2026-09-01T19:51:24Z</time>
  <course>10.72</course>
  <speed>0.022360679774997897</speed>
  <fix>3d</fix>
</trkpt>
<trkpt lat="-27.274439" lon="151.290064">
  <ele>343.1</ele>
  <time>2026-09-01T19:51:24Z</time>
  <course>270.0</course>
  <speed>0.0</speed>
  <fix>3d</fix>
</trkpt>
<trkpt lat="-27.2744392" lon="151.2900641">
  <ele>343.08</ele>
  <time>2026-09-01T19:51:24Z</time>
  <course>10.72</course>
  <speed>0.022360679774997897</speed>
  <fix>3d</fix>
</trkpt>
<trkpt lat="-27.274439" lon="151.290064">
  <ele>343.1</ele>
  <time>2026-09-01T19:51:24Z</time>
  <course>270.0</course>
  <speed>0.0</speed>
  <fix>3d</fix>
</trkpt>
<trkpt lat="-27.2744392" lon="151.2900641">
  <ele>343.08</ele>
  <time>2026-09-01T19:51:24Z</time>
  <course>10.72</course>
  <speed>0.022360679774997897</speed>
  <fix>3d</fix>
</trkpt>
<trkpt lat="-27.274439" lon="151.290064">
  <ele>343.1</ele>
  <time>2026-09-01T19:51:24Z</time>
  <course>270.0</course>
  <speed>0.0</speed>
  <fix>3d</fix>
</trkpt>
<trkpt lat="-27.2744392" lon="151.2900641">
  <ele>343.08</ele>
  <time>2026-09-01T19:51:24Z</time>
  <course>10.72</course>
  <speed>0.022360679774997897</speed>
  <fix>3d</fix>
</trkpt>
<trkpt lat="-27.274439" lon="151.290064">
  <ele>343.1</ele>
  <time>2026-09-01T19:51:24Z</time>
  <course>270.0</course>
  <speed>0.0</speed>
  <fix>3d</fix>
</trkpt>
<trkpt lat="-27.2744392" lon="151.2900641">
  <ele>343.07</ele>
  <time>2026-09-01T19:51:24Z</time>
  <course>10.72</course>
  <speed>0.022360679774997897</speed>
  <fix>3d</fix>
</trkpt>
<trkpt lat="-27.274439" lon="151.290064">
  <ele>343.1</ele>
  <time>2026-09-01T19:51:24Z</time>
  <course>270.0</course>
  <speed>0.0</speed>
  <fix>3d</fix>
</trkpt>
<trkpt lat="-27.2744392" lon="151.2900641">
  <ele>343.07</ele>
  <time>2026-09-01T19:51:24Z</time>
  <course>10.72</course>
  <speed>0.022360679774997897</speed>
  <fix>3d</fix>
</trkpt>
<trkpt lat="-27.274439" lon="151.290064">
  <ele>343.1</ele>
  <time>2026-09-01T19:51:24Z</time>
  <course>270.0</course>
  <speed>0.0</speed>
  <fix>3d</fix>
</trkpt>
<trkpt lat="-27.2744392" lon="151.2900641">
  <ele>343.07</ele>
  <time>2026-09-01T19:51:24Z</time>
  <course>10.72</course>
  <speed>0.022360679774997897</speed>
  <fix>3d</fix>
</trkpt>
<trkpt lat="-27.274439" lon="151.290064">
  <ele>343.1</ele>
  <time>2026-09-01T19:51:24Z</time>
  <course>270.0</course>
  <speed>0.0</speed>
  <fix>3d</fix>
</trkpt>
<trkpt lat="-27.2744392" lon="151.2900641">
  <ele>343.06</ele>
  <time>2026-09-01T19:51:24Z</time>
  <course>10.72</course>
  <speed>0.022360679774997897</speed>
  <fix>3d</fix>
</trkpt>
<trkpt lat="-27.274439" lon="151.290064">
  <ele>343.1</ele>
  <time>2026-09-01T19:51:24Z</time>
  <course>270.0</course>
  <speed>0.0</speed>
  <fix>3d</fix>
</trkpt>
<trkpt lat="-27.2744392" lon="151.2900641">
  <ele>343.06</ele>
  <time>2026-09-01T19:51:24Z</time>
  <course>10.72</course>
  <speed>0.022360679774997897</speed>
  <fix>3d</fix>
</trkpt>
<trkpt lat="-27.274439" lon="151.290064">
  <ele>343.1</ele>
  <time>2026-09-01T19:51:24Z</time>
  <course>270.0</course>
  <speed>0.0</speed>
  <fix>3d</fix>
</trkpt>
<trkpt lat="-27.2744392" lon="151.2900641">
  <ele>343.06</ele>
  <time>2026-09-01T19:51:25Z</time>
  <course>10.72</course>
  <speed>0.022360679774997897</speed>
  <fix>3d</fix>
</trkpt>
<trkpt lat="-27.274439" lon="151.290064">
  <ele>343.1</ele>
  <time>2026-09-01T19:51:25Z</time>
  <course>270.0</course>
  <speed>0.0</speed>
  <fix>3d</fix>
</trkpt>
<trkpt lat="-27.2744392" lon="151.2900641">
  <ele>343.06</ele>
  <time>2026-09-01T19:51:25Z</time>
  <course>10.72</course>
  <speed>0.022360679774997897</speed>
  <fix>3d</fix>
</trkpt>
<trkpt lat="-27.274439" lon="151.290064">
  <ele>343.1</ele>
  <time>2026-09-01T19:51:25Z</time>
  <course>270.0</course>
  <speed>0.0</speed>
  <fix>3d</fix>
</trkpt>
<trkpt lat="-27.2744392" lon="151.2900641">
  <ele>343.06</ele>
  <time>2026-09-01T19:51:25Z</time>
  <course>10.72</course>
  <speed>0.022360679774997897</speed>
  <fix>3d</fix>
</trkpt>
<trkpt lat="-27.274439" lon="151.290064">
  <ele>343.1</ele>
  <time>2026-09-01T19:51:25Z</time>
  <course>270.0</course>
  <speed>0.0</speed>
  <fix>3d</fix>
</trkpt>
<trkpt lat="-27.2744392" lon="151.2900641">
  <ele>343.06</ele>
  <time>2026-09-01T19:51:25Z</time>
  <course>10.72</course>
  <speed>0.022360679774997897</speed>
  <fix>3d</fix>
</trkpt>
<trkpt lat="-27.274439" lon="151.290064">
  <ele>343.1</ele>
  <time>2026-09-01T19:51:25Z</time>
  <course>270.0</course>
  <speed>0.0</speed>
  <fix>3d</fix>
</trkpt>
<trkpt lat="-27.2744392" lon="151.2900641">
  <ele>343.05</ele>
  <time>2026-09-01T19:51:25Z</time>
  <course>10.72</course>
  <speed>0.022360679774997897</speed>
  <fix>3d</fix>
</trkpt>
<trkpt lat="-27.274439" lon="151.290064">
  <ele>343.1</ele>
  <time>2026-09-01T19:51:25Z</time>
  <course>270.0</course>
  <speed>0.0</speed>
  <fix>3d</fix>
</trkpt>
<trkpt lat="-27.2744392" lon="151.2900641">
  <ele>343.05</ele>
  <time>2026-09-01T19:51:25Z</time>
  <course>10.73</course>
  <speed>0.022360679774997897</speed>
  <fix>3d</fix>
</trkpt>
<trkpt lat="-27.274439" lon="151.290064">
  <ele>343.1</ele>
  <time>2026-09-01T19:51:25Z</time>
  <course>270.0</course>
  <speed>0.0</speed>
  <fix>3d</fix>
</trkpt>
<trkpt lat="-27.2744392" lon="151.2900641">
  <ele>343.04</ele>
  <time>2026-09-01T19:51:25Z</time>
  <course>10.73</course>
  <speed>0.022360679774997897</speed>
  <fix>3d</fix>
</trkpt>
<trkpt lat="-27.274439" lon="151.290064">
  <ele>343.1</ele>
  <time>2026-09-01T19:51:25Z</time>
  <course>270.0</course>
  <speed>0.0</speed>
  <fix>3d</fix>
</trkpt>
<trkpt lat="-27.2744392" lon="151.2900641">
  <ele>343.04</ele>
  <time>2026-09-01T19:51:25Z</time>
  <course>10.73</course>
  <speed>0.022360679774997897</speed>
  <fix>3d</fix>
</trkpt>
<trkpt lat="-27.274439" lon="151.290064">
  <ele>343.1</ele>
  <time>2026-09-01T19:51:25Z</time>
  <course>270.0</course>
  <speed>0.0</speed>
  <fix>3d</fix>
</trkpt>
<trkpt lat="-27.2744392" lon="151.2900641">
  <ele>343.03</ele>
  <time>2026-09-01T19:51:25Z</time>
  <course>10.73</course>
  <speed>0.022360679774997897</speed>
  <fix>3d</fix>
</trkpt>
<trkpt lat="-27.274439" lon="151.290064">
  <ele>343.1</ele>
  <time>2026-09-01T19:51:25Z</time>
  <course>270.0</course>
  <speed>0.0</speed>
  <fix>3d</fix>
</trkpt>
<trkpt lat="-27.2744392" lon="151.2900641">
  <ele>343.03</ele>
  <time>2026-09-01T19:51:25Z</time>
  <course>10.73</course>
  <speed>0.022360679774997897</speed>
  <fix>3d</fix>
</trkpt>
<trkpt lat="-27.274439" lon="151.290064">
  <ele>343.1</ele>
  <time>2026-09-01T19:51:25Z</time>
  <course>270.0</course>
  <speed>0.0</speed>
  <fix>3d</fix>
</trkpt>
<trkpt lat="-27.2744392" lon="151.2900641">
  <ele>343.02</ele>
  <time>2026-09-01T19:51:25Z</time>
  <course>10.73</course>
  <speed>0.022360679774997897</speed>
  <fix>3d</fix>
</trkpt>
<trkpt lat="-27.274439" lon="151.290064">
  <ele>343.1</ele>
  <time>2026-09-01T19:51:25Z</time>
  <course>270.0</course>
  <speed>0.0</speed>
  <fix>3d</fix>
</trkpt>
<trkpt lat="-27.2744392" lon="151.2900641">
  <ele>343.02</ele>
  <time>2026-09-01T19:51:25Z</time>
  <course>10.73</course>
  <speed>0.022360679774997897</speed>
  <fix>3d</fix>
</trkpt>
<trkpt lat="-27.274439" lon="151.290064">
  <ele>343.1</ele>
  <time>2026-09-01T19:51:25Z</time>
  <course>270.0</course>
  <speed>0.0</speed>
  <fix>3d</fix>
</trkpt>
<trkpt lat="-27.2744392" lon="151.2900641">
  <ele>343.02</ele>
  <time>2026-09-01T19:51:25Z</time>
  <course>10.73</course>
  <speed>0.022360679774997897</speed>
  <fix>3d</fix>
</trkpt>
<trkpt lat="-27.274439" lon="151.290064">
  <ele>343.1</ele>
  <time>2026-09-01T19:51:25Z</time>
  <course>270.0</course>
  <speed>0.0</speed>
  <fix>3d</fix>
</trkpt>
<trkpt lat="-27.2744392" lon="151.2900641">
  <ele>343.01</ele>
  <time>2026-09-01T19:51:25Z</time>
  <course>10.73</course>
  <speed>0.022360679774997897</speed>
  <fix>3d</fix>
</trkpt>
<trkpt lat="-27.274439" lon="151.290064">
  <ele>343.1</ele>
  <time>2026-09-01T19:51:25Z</time>
  <course>270.0</course>
  <speed>0.0</speed>
  <fix>3d</fix>
</trkpt>
<trkpt lat="-27.2744392" lon="151.2900641">
  <ele>343.01</ele>
  <time>2026-09-01T19:51:25Z</time>
  <course>10.73</course>
  <speed>0.022360679774997897</speed>
  <fix>3d</fix>
</trkpt>
<trkpt lat="-27.274439" lon="151.290064">
  <ele>343.1</ele>
  <time>2026-09-01T19:51:25Z</time>
  <course>270.0</course>
  <speed>0.0</speed>
  <fix>3d</fix>
</trkpt>
<trkpt lat="-27.2744392" lon="151.2900641">
  <ele>343.01</ele>
  <time>2026-09-01T19:51:25Z</time>
  <course>10.73</course>
  <speed>0.022360679774997897</speed>
  <fix>3d</fix>
</trkpt>
<trkpt lat="-27.274439" lon="151.290064">
  <ele>343.1</ele>
  <time>2026-09-01T19:51:25Z</time>
  <course>270.0</course>
  <speed>0.0</speed>
  <fix>3d</fix>
</trkpt>
<trkpt lat="-27.2744392" lon="151.2900641">
  <ele>343.0</ele>
  <time>2026-09-01T19:51:25Z</time>
  <course>10.73</course>
  <speed>0.022360679774997897</speed>
  <fix>3d</fix>
</trkpt>
<trkpt lat="-27.274439" lon="151.290064">
  <ele>343.1</ele>
  <time>2026-09-01T19:51:25Z</time>
  <course>270.0</course>
  <speed>0.0</speed>
  <fix>3d</fix>
</trkpt>
<trkpt lat="-27.2744392" lon="151.2900641">
  <ele>343.0</ele>
  <time>2026-09-01T19:51:25Z</time>
  <course>10.73</course>
  <speed>0.022360679774997897</speed>
  <fix>3d</fix>
</trkpt>
<trkpt lat="-27.274439" lon="151.290064">
  <ele>343.1</ele>
  <time>2026-09-01T19:51:25Z</time>
  <course>270.0</course>
  <speed>0.0</speed>
  <fix>3d</fix>
</trkpt>
<trkpt lat="-27.2744392" lon="151.2900641">
  <ele>342.99</ele>
  <time>2026-09-01T19:51:25Z</time>
  <course>10.73</course>
  <speed>0.022360679774997897</speed>
  <fix>3d</fix>
</trkpt>
<trkpt lat="-27.274439" lon="151.290064">
  <ele>343.1</ele>
  <time>2026-09-01T19:51:25Z</time>
  <course>270.0</course>
  <speed>0.0</speed>
  <fix>3d</fix>
</trkpt>
<trkpt lat="-27.2744392" lon="151.2900641">
  <ele>342.99</ele>
  <time>2026-09-01T19:51:25Z</time>
  <course>10.73</course>
  <speed>0.022360679774997897</speed>
  <fix>3d</fix>
</trkpt>
<trkpt lat="-27.274439" lon="151.290064">
  <ele>343.1</ele>
  <time>2026-09-01T19:51:25Z</time>
  <course>270.0</course>
  <speed>0.0</speed>
  <fix>3d</fix>
</trkpt>
<trkpt lat="-27.2744392" lon="151.2900641">
  <ele>342.99</ele>
  <time>2026-09-01T19:51:25Z</time>
  <course>10.73</course>
  <speed>0.022360679774997897</speed>
  <fix>3d</fix>
</trkpt>
<trkpt lat="-27.274439" lon="151.290064">
  <ele>343.1</ele>
  <time>2026-09-01T19:51:25Z</time>
  <course>270.0</course>
  <speed>0.0</speed>
  <fix>3d</fix>
</trkpt>
<trkpt lat="-27.2744392" lon="151.2900641">
  <ele>342.98</ele>
  <time>2026-09-01T19:51:25Z</time>
  <course>10.73</course>
  <speed>0.022360679774997897</speed>
  <fix>3d</fix>
</trkpt>
<trkpt lat="-27.274439" lon="151.290064">
  <ele>343.1</ele>
  <time>2026-09-01T19:51:25Z</time>
  <course>270.0</course>
  <speed>0.0</speed>
  <fix>3d</fix>
</trkpt>
<trkpt lat="-27.2744392" lon="151.2900641">
  <ele>342.98</ele>
  <time>2026-09-01T19:51:25Z</time>
  <course>10.73</course>
  <speed>0.022360679774997897</speed>
  <fix>3d</fix>
</trkpt>
<trkpt lat="-27.274439" lon="151.290064">
  <ele>343.1</ele>
  <time>2026-09-01T19:51:25Z</time>
  <course>270.0</course>
  <speed>0.0</speed>
  <fix>3d</fix>
</trkpt>
<trkpt lat="-27.2744392" lon="151.2900641">
  <ele>342.98</ele>
  <time>2026-09-01T19:51:25Z</time>
  <course>10.73</course>
  <speed>0.022360679774997897</speed>
  <fix>3d</fix>
</trkpt>
<trkpt lat="-27.274439" lon="151.290064">
  <ele>343.1</ele>
  <time>2026-09-01T19:51:25Z</time>
  <course>270.0</course>
  <speed>0.0</speed>
  <fix>3d</fix>
</trkpt>
<trkpt lat="-27.2744392" lon="151.2900641">
  <ele>342.97</ele>
  <time>2026-09-01T19:51:25Z</time>
  <course>10.73</course>
  <speed>0.022360679774997897</speed>
  <fix>3d</fix>
</trkpt>
<trkpt lat="-27.274439" lon="151.290064">
  <ele>343.1</ele>
  <time>2026-09-01T19:51:25Z</time>
  <course>270.0</course>
  <speed>0.0</speed>
  <fix>3d</fix>
</trkpt>
<trkpt lat="-27.2744392" lon="151.2900641">
  <ele>342.97</ele>
  <time>2026-09-01T19:51:25Z</time>
  <course>10.73</course>
  <speed>0.022360679774997897</speed>
  <fix>3d</fix>
</trkpt>
<trkpt lat="-27.274439" lon="151.290064">
  <ele>343.1</ele>
  <time>2026-09-01T19:51:25Z</time>
  <course>270.0</course>
  <speed>0.0</speed>
  <fix>3d</fix>
</trkpt>
<trkpt lat="-27.2744392" lon="151.2900641">
  <ele>342.97</ele>
  <time>2026-09-01T19:51:25Z</time>
  <course>10.73</course>
  <speed>0.022360679774997897</speed>
  <fix>3d</fix>
</trkpt>
<trkpt lat="-27.274439" lon="151.290064">
  <ele>343.1</ele>
  <time>2026-09-01T19:51:25Z</time>
  <course>270.0</course>
  <speed>0.0</speed>
  <fix>3d</fix>
</trkpt>
<trkpt lat="-27.2744392" lon="151.2900641">
  <ele>342.97</ele>
  <time>2026-09-01T19:51:25Z</time>
  <course>10.73</course>
  <speed>0.022360679774997897</speed>
  <fix>3d</fix>
</trkpt>
<trkpt lat="-27.274439" lon="151.290064">
  <ele>343.1</ele>
  <time>2026-09-01T19:51:25Z</time>
  <course>270.0</course>
  <speed>0.0</speed>
  <fix>3d</fix>
</trkpt>
<trkpt lat="-27.2744392" lon="151.2900641">
  <ele>342.97</ele>
  <time>2026-09-01T19:51:25Z</time>
  <course>10.73</course>
  <speed>0.022360679774997897</speed>
  <fix>3d</fix>
</trkpt>
<trkpt lat="-27.274439" lon="151.290064">
  <ele>343.1</ele>
  <time>2026-09-01T19:51:25Z</time>
  <course>270.0</course>
  <speed>0.0</speed>
  <fix>3d</fix>
</trkpt>
<trkpt lat="-27.2744392" lon="151.2900641">
  <ele>342.96</ele>
  <time>2026-09-01T19:51:25Z</time>
  <course>10.74</course>
  <speed>0.022360679774997897</speed>
  <fix>3d</fix>
</trkpt>
<trkpt lat="-27.274439" lon="151.290064">
  <ele>343.1</ele>
  <time>2026-09-01T19:51:25Z</time>
  <course>270.0</course>
  <speed>0.0</speed>
  <fix>3d</fix>
</trkpt>
<trkpt lat="-27.2744392" lon="151.2900641">
  <ele>342.96</ele>
  <time>2026-09-01T19:51:25Z</time>
  <course>10.74</course>
  <speed>0.022360679774997897</speed>
  <fix>3d</fix>
</trkpt>
<trkpt lat="-27.274439" lon="151.290064">
  <ele>343.1</ele>
  <time>2026-09-01T19:51:25Z</time>
  <course>270.0</course>
  <speed>0.0</speed>
  <fix>3d</fix>
</trkpt>
<trkpt lat="-27.2744392" lon="151.2900641">
  <ele>342.96</ele>
  <time>2026-09-01T19:51:25Z</time>
  <course>10.74</course>
  <speed>0.022360679774997897</speed>
  <fix>3d</fix>
</trkpt>
<trkpt lat="-27.274439" lon="151.290064">
  <ele>343.1</ele>
  <time>2026-09-01T19:51:25Z</time>
  <course>270.0</course>
  <speed>0.0</speed>
  <fix>3d</fix>
</trkpt>
<trkpt lat="-27.2744392" lon="151.2900641">
  <ele>342.96</ele>
  <time>2026-09-01T19:51:25Z</time>
  <course>10.74</course>
  <speed>0.022360679774997897</speed>
  <fix>3d</fix>
</trkpt>
<trkpt lat="-27.274439" lon="151.290064">
  <ele>343.1</ele>
  <time>2026-09-01T19:51:25Z</time>
  <course>270.0</course>
  <speed>0.0</speed>
  <fix>3d</fix>
</trkpt>
<trkpt lat="-27.2744392" lon="151.2900641">
  <ele>342.95</ele>
  <time>2026-09-01T19:51:25Z</time>
  <course>10.74</course>
  <speed>0.022360679774997897</speed>
  <fix>3d</fix>
</trkpt>
<trkpt lat="-27.274439" lon="151.290064">
  <ele>343.1</ele>
  <time>2026-09-01T19:51:25Z</time>
  <course>270.0</course>
  <speed>0.0</speed>
  <fix>3d</fix>
</trkpt>
<trkpt lat="-27.2744392" lon="151.2900641">
  <ele>342.95</ele>
  <time>2026-09-01T19:51:25Z</time>
  <course>10.74</course>
  <speed>0.022360679774997897</speed>
  <fix>3d</fix>
</trkpt>
<trkpt lat="-27.274439" lon="151.290064">
  <ele>343.1</ele>
  <time>2026-09-01T19:51:25Z</time>
  <course>270.0</course>
  <speed>0.0</speed>
  <fix>3d</fix>
</trkpt>
<trkpt lat="-27.2744392" lon="151.2900641">
  <ele>342.95</ele>
  <time>2026-09-01T19:51:25Z</time>
  <course>10.74</course>
  <speed>0.022360679774997897</speed>
  <fix>3d</fix>
</trkpt>
<trkpt lat="-27.274439" lon="151.290064">
  <ele>343.1</ele>
  <time>2026-09-01T19:51:25Z</time>
  <course>270.0</course>
  <speed>0.0</speed>
  <fix>3d</fix>
</trkpt>
<trkpt lat="-27.2744392" lon="151.2900641">
  <ele>342.95</ele>
  <time>2026-09-01T19:51:25Z</time>
  <course>10.74</course>
  <speed>0.022360679774997897</speed>
  <fix>3d</fix>
</trkpt>
<trkpt lat="-27.274439" lon="151.290064">
  <ele>343.1</ele>
  <time>2026-09-01T19:51:25Z</time>
  <course>270.0</course>
  <speed>0.0</speed>
  <fix>3d</fix>
</trkpt>
<trkpt lat="-27.2744392" lon="151.2900641">
  <ele>342.95</ele>
  <time>2026-09-01T19:51:25Z</time>
  <course>10.74</course>
  <speed>0.022360679774997897</speed>
  <fix>3d</fix>
</trkpt>
<trkpt lat="-27.274439" lon="151.290064">
  <ele>343.1</ele>
  <time>2026-09-01T19:51:25Z</time>
  <course>270.0</course>
  <speed>0.0</speed>
  <fix>3d</fix>
</trkpt>
<trkpt lat="-27.2744392" lon="151.2900641">
  <ele>342.95</ele>
  <time>2026-09-01T19:51:25Z</time>
  <course>10.74</course>
  <speed>0.022360679774997897</speed>
  <fix>3d</fix>
</trkpt>
<trkpt lat="-27.274439" lon="151.290064">
  <ele>343.1</ele>
  <time>2026-09-01T19:51:25Z</time>
  <course>270.0</course>
  <speed>0.0</speed>
  <fix>3d</fix>
</trkpt>
<trkpt lat="-27.2744392" lon="151.2900641">
  <ele>342.94</ele>
  <time>2026-09-01T19:51:25Z</time>
  <course>10.74</course>
  <speed>0.022360679774997897</speed>
  <fix>3d</fix>
</trkpt>
<trkpt lat="-27.274439" lon="151.290064">
  <ele>343.1</ele>
  <time>2026-09-01T19:51:25Z</time>
  <course>270.0</course>
  <speed>0.0</speed>
  <fix>3d</fix>
</trkpt>
<trkpt lat="-27.2744392" lon="151.2900641">
  <ele>342.94</ele>
  <time>2026-09-01T19:51:25Z</time>
  <course>10.74</course>
  <speed>0.022360679774997897</speed>
  <fix>3d</fix>
</trkpt>
<trkpt lat="-27.274439" lon="151.290064">
  <ele>343.1</ele>
  <time>2026-09-01T19:51:25Z</time>
  <course>270.0</course>
  <speed>0.0</speed>
  <fix>3d</fix>
</trkpt>
<trkpt lat="-27.2744392" lon="151.2900641">
  <ele>342.94</ele>
  <time>2026-09-01T19:51:25Z</time>
  <course>10.74</course>
  <speed>0.022360679774997897</speed>
  <fix>3d</fix>
</trkpt>
<trkpt lat="-27.274439" lon="151.290064">
  <ele>343.1</ele>
  <time>2026-09-01T19:51:25Z</time>
  <course>270.0</course>
  <speed>0.0</speed>
  <fix>3d</fix>
</trkpt>
<trkpt lat="-27.2744392" lon="151.2900641">
  <ele>342.93</ele>
  <time>2026-09-01T19:51:25Z</time>
  <course>10.74</course>
  <speed>0.022360679774997897</speed>
  <fix>3d</fix>
</trkpt>
<trkpt lat="-27.274439" lon="151.290064">
  <ele>343.1</ele>
  <time>2026-09-01T19:51:25Z</time>
  <course>270.0</course>
  <speed>0.0</speed>
  <fix>3d</fix>
</trkpt>
<trkpt lat="-27.2744392" lon="151.2900641">
  <ele>342.93</ele>
  <time>2026-09-01T19:51:25Z</time>
  <course>10.74</course>
  <speed>0.022360679774997897</speed>
  <fix>3d</fix>
</trkpt>
<trkpt lat="-27.274439" lon="151.290064">
  <ele>343.1</ele>
  <time>2026-09-01T19:51:25Z</time>
  <course>270.0</course>
  <speed>0.0</speed>
  <fix>3d</fix>
</trkpt>
<trkpt lat="-27.2744392" lon="151.2900641">
  <ele>342.93</ele>
  <time>2026-09-01T19:51:25Z</time>
  <course>10.74</course>
  <speed>0.022360679774997897</speed>
  <fix>3d</fix>
</trkpt>
<trkpt lat="-27.274439" lon="151.290064">
  <ele>343.1</ele>
  <time>2026-09-01T19:51:25Z</time>
  <course>270.0</course>
  <speed>0.0</speed>
  <fix>3d</fix>
</trkpt>
<trkpt lat="-27.2744392" lon="151.2900641">
  <ele>342.92</ele>
  <time>2026-09-01T19:51:25Z</time>
  <course>10.74</course>
  <speed>0.022360679774997897</speed>
  <fix>3d</fix>
</trkpt>
<trkpt lat="-27.274439" lon="151.290064">
  <ele>343.1</ele>
  <time>2026-09-01T19:51:25Z</time>
  <course>270.0</course>
  <speed>0.0</speed>
  <fix>3d</fix>
</trkpt>
<trkpt lat="-27.2744392" lon="151.2900641">
  <ele>342.92</ele>
  <time>2026-09-01T19:51:25Z</time>
  <course>10.75</course>
  <speed>0.022360679774997897</speed>
  <fix>3d</fix>
</trkpt>
<trkpt lat="-27.274439" lon="151.290064">
  <ele>343.1</ele>
  <time>2026-09-01T19:51:25Z</time>
  <course>270.0</course>
  <speed>0.0</speed>
  <fix>3d</fix>
</trkpt>
<trkpt lat="-27.2744392" lon="151.2900641">
  <ele>342.91</ele>
  <time>2026-09-01T19:51:25Z</time>
  <course>10.75</course>
  <speed>0.022360679774997897</speed>
  <fix>3d</fix>
</trkpt>
<trkpt lat="-27.274439" lon="151.290064">
  <ele>343.1</ele>
  <time>2026-09-01T19:51:25Z</time>
  <course>270.0</course>
  <speed>0.0</speed>
  <fix>3d</fix>
</trkpt>
<trkpt lat="-27.2744392" lon="151.2900641">
  <ele>343.09</ele>
  <time>2026-09-01T19:51:25Z</time>
  <course>10.75</course>
  <speed>0.022360679774997897</speed>
  <fix>3d</fix>
</trkpt>
<trkpt lat="-27.274439" lon="151.290064">
  <ele>343.1</ele>
  <time>2026-09-01T19:51:25Z</time>
  <course>270.0</course>
  <speed>0.0</speed>
  <fix>3d</fix>
</trkpt>
<trkpt lat="-27.2744392" lon="151.2900641">
  <ele>343.09</ele>
  <time>2026-09-01T19:51:25Z</time>
  <course>10.75</course>
  <speed>0.022360679774997897</speed>
  <fix>3d</fix>
</trkpt>
<trkpt lat="-27.274439" lon="151.290064">
  <ele>343.1</ele>
  <time>2026-09-01T19:51:25Z</time>
  <course>270.0</course>
  <speed>0.0</speed>
  <fix>3d</fix>
</trkpt>
<trkpt lat="-27.2744392" lon="151.2900641">
  <ele>343.09</ele>
  <time>2026-09-01T19:51:25Z</time>
  <course>10.75</course>
  <speed>0.022360679774997897</speed>
  <fix>3d</fix>
</trkpt>
<trkpt lat="-27.274439" lon="151.290064">
  <ele>343.1</ele>
  <time>2026-09-01T19:51:25Z</time>
  <course>270.0</course>
  <speed>0.0</speed>
  <fix>3d</fix>
</trkpt>
<trkpt lat="-27.2744392" lon="151.2900641">
  <ele>343.09</ele>
  <time>2026-09-01T19:51:25Z</time>
  <course>10.75</course>
  <speed>0.022360679774997897</speed>
  <fix>3d</fix>
</trkpt>
<trkpt lat="-27.274439" lon="151.290064">
  <ele>343.1</ele>
  <time>2026-09-01T19:51:25Z</time>
  <course>270.0</course>
  <speed>0.0</speed>
  <fix>3d</fix>
</trkpt>
<trkpt lat="-27.2744392" lon="151.2900641">
  <ele>343.09</ele>
  <time>2026-09-01T19:51:25Z</time>
  <course>10.75</course>
  <speed>0.022360679774997897</speed>
  <fix>3d</fix>
</trkpt>
<trkpt lat="-27.274439" lon="151.290064">
  <ele>343.1</ele>
  <time>2026-09-01T19:51:25Z</time>
  <course>270.0</course>
  <speed>0.0</speed>
  <fix>3d</fix>
</trkpt>
<trkpt lat="-27.2744392" lon="151.2900641">
  <ele>343.09</ele>
  <time>2026-09-01T19:51:25Z</time>
  <course>10.75</course>
  <speed>0.022360679774997897</speed>
  <fix>3d</fix>
</trkpt>
<trkpt lat="-27.274439" lon="151.290064">
  <ele>343.1</ele>
  <time>2026-09-01T19:51:25Z</time>
  <course>270.0</course>
  <speed>0.0</speed>
  <fix>3d</fix>
</trkpt>
<trkpt lat="-27.2744392" lon="151.2900641">
  <ele>343.09</ele>
  <time>2026-09-01T19:51:25Z</time>
  <course>10.75</course>
  <speed>0.022360679774997897</speed>
  <fix>3d</fix>
</trkpt>
<trkpt lat="-27.274439" lon="151.290064">
  <ele>343.1</ele>
  <time>2026-09-01T19:51:25Z</time>
  <course>270.0</course>
  <speed>0.0</speed>
  <fix>3d</fix>
</trkpt>
<trkpt lat="-27.2744392" lon="151.2900641">
  <ele>343.08</ele>
  <time>2026-09-01T19:51:25Z</time>
  <course>10.75</course>
  <speed>0.022360679774997897</speed>
  <fix>3d</fix>
</trkpt>
<trkpt lat="-27.274439" lon="151.290064">
  <ele>343.1</ele>
  <time>2026-09-01T19:51:25Z</time>
  <course>270.0</course>
  <speed>0.0</speed>
  <fix>3d</fix>
</trkpt>
<trkpt lat="-27.2744392" lon="151.2900641">
  <ele>343.08</ele>
  <time>2026-09-01T19:51:25Z</time>
  <course>10.75</course>
  <speed>0.022360679774997897</speed>
  <fix>3d</fix>
</trkpt>
<trkpt lat="-27.274439" lon="151.290064">
  <ele>343.1</ele>
  <time>2026-09-01T19:51:25Z</time>
  <course>270.0</course>
  <speed>0.0</speed>
  <fix>3d</fix>
</trkpt>
<trkpt lat="-27.2744392" lon="151.2900641">
  <ele>343.08</ele>
  <time>2026-09-01T19:51:25Z</time>
  <course>10.75</course>
  <speed>0.022360679774997897</speed>
  <fix>3d</fix>
</trkpt>
<trkpt lat="-27.274439" lon="151.290064">
  <ele>343.1</ele>
  <time>2026-09-01T19:51:25Z</time>
  <course>270.0</course>
  <speed>0.0</speed>
  <fix>3d</fix>
</trkpt>
<trkpt lat="-27.2744392" lon="151.2900641">
  <ele>343.08</ele>
  <time>2026-09-01T19:51:25Z</time>
  <course>10.75</course>
  <speed>0.022360679774997897</speed>
  <fix>3d</fix>
</trkpt>
<trkpt lat="-27.274439" lon="151.290064">
  <ele>343.1</ele>
  <time>2026-09-01T19:51:25Z</time>
  <course>270.0</course>
  <speed>0.0</speed>
  <fix>3d</fix>
</trkpt>
<trkpt lat="-27.2744392" lon="151.2900641">
  <ele>343.08</ele>
  <time>2026-09-01T19:51:25Z</time>
  <course>10.75</course>
  <speed>0.022360679774997897</speed>
  <fix>3d</fix>
</trkpt>
<trkpt lat="-27.274439" lon="151.290064">
  <ele>343.1</ele>
  <time>2026-09-01T19:51:25Z</time>
  <course>270.0</course>
  <speed>0.0</speed>
  <fix>3d</fix>
</trkpt>
<trkpt lat="-27.2744392" lon="151.2900641">
  <ele>343.08</ele>
  <time>2026-09-01T19:51:25Z</time>
  <course>10.75</course>
  <speed>0.022360679774997897</speed>
  <fix>3d</fix>
</trkpt>
<trkpt lat="-27.274439" lon="151.290064">
  <ele>343.1</ele>
  <time>2026-09-01T19:51:25Z</time>
  <course>270.0</course>
  <speed>0.0</speed>
  <fix>3d</fix>
</trkpt>
<trkpt lat="-27.2744392" lon="151.2900641">
  <ele>343.07</ele>
  <time>2026-09-01T19:51:25Z</time>
  <course>10.75</course>
  <speed>0.022360679774997897</speed>
  <fix>3d</fix>
</trkpt>
<trkpt lat="-27.274439" lon="151.290064">
  <ele>343.1</ele>
  <time>2026-09-01T19:51:25Z</time>
  <course>270.0</course>
  <speed>0.0</speed>
  <fix>3d</fix>
</trkpt>
<trkpt lat="-27.2744392" lon="151.2900641">
  <ele>343.07</ele>
  <time>2026-09-01T19:51:25Z</time>
  <course>10.75</course>
  <speed>0.022360679774997897</speed>
  <fix>3d</fix>
</trkpt>
<trkpt lat="-27.274439" lon="151.290064">
  <ele>343.1</ele>
  <time>2026-09-01T19:51:25Z</time>
  <course>270.0</course>
  <speed>0.0</speed>
  <fix>3d</fix>
</trkpt>
<trkpt lat="-27.2744392" lon="151.2900641">
  <ele>343.07</ele>
  <time>2026-09-01T19:51:25Z</time>
  <course>10.75</course>
  <speed>0.022360679774997897</speed>
  <fix>3d</fix>
</trkpt>
<trkpt lat="-27.274439" lon="151.290064">
  <ele>343.1</ele>
  <time>2026-09-01T19:51:25Z</time>
  <course>270.0</course>
  <speed>0.0</speed>
  <fix>3d</fix>
</trkpt>
<trkpt lat="-27.2744392" lon="151.2900641">
  <ele>343.07</ele>
  <time>2026-09-01T19:51:25Z</time>
  <course>10.76</course>
  <speed>0.022360679774997897</speed>
  <fix>3d</fix>
</trkpt>
<trkpt lat="-27.274439" lon="151.290064">
  <ele>343.1</ele>
  <time>2026-09-01T19:51:25Z</time>
  <course>270.0</course>
  <speed>0.0</speed>
  <fix>3d</fix>
</trkpt>
<trkpt lat="-27.2744392" lon="151.2900641">
  <ele>343.07</ele>
  <time>2026-09-01T19:51:25Z</time>
  <course>10.76</course>
  <speed>0.022360679774997897</speed>
  <fix>3d</fix>
</trkpt>
<trkpt lat="-27.274439" lon="151.290064">
  <ele>343.1</ele>
  <time>2026-09-01T19:51:25Z</time>
  <course>270.0</course>
  <speed>0.0</speed>
  <fix>3d</fix>
</trkpt>
<trkpt lat="-27.2744392" lon="151.2900641">
  <ele>343.07</ele>
  <time>2026-09-01T19:51:25Z</time>
  <course>10.76</course>
  <speed>0.022360679774997897</speed>
  <fix>3d</fix>
</trkpt>
<trkpt lat="-27.274439" lon="151.290064">
  <ele>343.1</ele>
  <time>2026-09-01T19:51:25Z</time>
  <course>270.0</course>
  <speed>0.0</speed>
  <fix>3d</fix>
</trkpt>
<trkpt lat="-27.2744392" lon="151.2900641">
  <ele>343.06</ele>
  <time>2026-09-01T19:51:25Z</time>
  <course>10.76</course>
  <speed>0.022360679774997897</speed>
  <fix>3d</fix>
</trkpt>
<trkpt lat="-27.274439" lon="151.290064">
  <ele>343.1</ele>
  <time>2026-09-01T19:51:25Z</time>
  <course>270.0</course>
  <speed>0.0</speed>
  <fix>3d</fix>
</trkpt>
<trkpt lat="-27.2744392" lon="151.2900641">
  <ele>343.06</ele>
  <time>2026-09-01T19:51:25Z</time>
  <course>10.76</course>
  <speed>0.022360679774997897</speed>
  <fix>3d</fix>
</trkpt>
<trkpt lat="-27.274439" lon="151.290064">
  <ele>343.1</ele>
  <time>2026-09-01T19:51:25Z</time>
  <course>270.0</course>
  <speed>0.0</speed>
  <fix>3d</fix>
</trkpt>
<trkpt lat="-27.2744392" lon="151.2900641">
  <ele>343.06</ele>
  <time>2026-09-01T19:51:25Z</time>
  <course>10.76</course>
  <speed>0.022360679774997897</speed>
  <fix>3d</fix>
</trkpt>
<trkpt lat="-27.274439" lon="151.290064">
  <ele>343.1</ele>
  <time>2026-09-01T19:51:25Z</time>
  <course>270.0</course>
  <speed>0.0</speed>
  <fix>3d</fix>
</trkpt>
<trkpt lat="-27.2744392" lon="151.2900641">
  <ele>343.06</ele>
  <time>2026-09-01T19:51:25Z</time>
  <course>10.76</course>
  <speed>0.022360679774997897</speed>
  <fix>3d</fix>
</trkpt>
<trkpt lat="-27.274439" lon="151.290064">
  <ele>343.1</ele>
  <time>2026-09-01T19:51:25Z</time>
  <course>270.0</course>
  <speed>0.0</speed>
  <fix>3d</fix>
</trkpt>
<trkpt lat="-27.2744392" lon="151.2900641">
  <ele>343.06</ele>
  <time>2026-09-01T19:51:25Z</time>
  <course>10.76</course>
  <speed>0.022360679774997897</speed>
  <fix>3d</fix>
</trkpt>
<trkpt lat="-27.274439" lon="151.290064">
  <ele>343.1</ele>
  <time>2026-09-01T19:51:25Z</time>
  <course>270.0</course>
  <speed>0.0</speed>
  <fix>3d</fix>
</trkpt>
<trkpt lat="-27.2744392" lon="151.2900641">
  <ele>343.06</ele>
  <time>2026-09-01T19:51:25Z</time>
  <course>10.76</course>
  <speed>0.022360679774997897</speed>
  <fix>3d</fix>
</trkpt>
<trkpt lat="-27.274439" lon="151.290064">
  <ele>343.1</ele>
  <time>2026-09-01T19:51:25Z</time>
  <course>270.0</course>
  <speed>0.0</speed>
  <fix>3d</fix>
</trkpt>
<trkpt lat="-27.2744392" lon="151.2900641">
  <ele>343.06</ele>
  <time>2026-09-01T19:51:25Z</time>
  <course>10.76</course>
  <speed>0.022360679774997897</speed>
  <fix>3d</fix>
</trkpt>
<trkpt lat="-27.274439" lon="151.290064">
  <ele>343.1</ele>
  <time>2026-09-01T19:51:25Z</time>
  <course>270.0</course>
  <speed>0.0</speed>
  <fix>3d</fix>
</trkpt>
<trkpt lat="-27.2744392" lon="151.2900641">
  <ele>343.05</ele>
  <time>2026-09-01T19:51:25Z</time>
  <course>10.76</course>
  <speed>0.022360679774997897</speed>
  <fix>3d</fix>
</trkpt>
<trkpt lat="-27.274439" lon="151.290064">
  <ele>343.1</ele>
  <time>2026-09-01T19:51:25Z</time>
  <course>270.0</course>
  <speed>0.0</speed>
  <fix>3d</fix>
</trkpt>
<trkpt lat="-27.2744392" lon="151.2900641">
  <ele>343.05</ele>
  <time>2026-09-01T19:51:25Z</time>
  <course>10.76</course>
  <speed>0.022360679774997897</speed>
  <fix>3d</fix>
</trkpt>
<trkpt lat="-27.274439" lon="151.290064">
  <ele>343.1</ele>
  <time>2026-09-01T19:51:25Z</time>
  <course>270.0</course>
  <speed>0.0</speed>
  <fix>3d</fix>
</trkpt>
<trkpt lat="-27.2744392" lon="151.2900641">
  <ele>343.05</ele>
  <time>2026-09-01T19:51:25Z</time>
  <course>10.76</course>
  <speed>0.022360679774997897</speed>
  <fix>3d</fix>
</trkpt>
<trkpt lat="-27.274439" lon="151.290064">
  <ele>343.1</ele>
  <time>2026-09-01T19:51:25Z</time>
  <course>270.0</course>
  <speed>0.0</speed>
  <fix>3d</fix>
</trkpt>
<trkpt lat="-27.2744392" lon="151.2900641">
  <ele>343.05</ele>
  <time>2026-09-01T19:51:25Z</time>
  <course>10.76</course>
  <speed>0.022360679774997897</speed>
  <fix>3d</fix>
</trkpt>
<trkpt lat="-27.274439" lon="151.290064">
  <ele>343.1</ele>
  <time>2026-09-01T19:51:25Z</time>
  <course>270.0</course>
  <speed>0.0</speed>
  <fix>3d</fix>
</trkpt>
<trkpt lat="-27.2744392" lon="151.2900641">
  <ele>343.04</ele>
  <time>2026-09-01T19:51:25Z</time>
  <course>10.76</course>
  <speed>0.022360679774997897</speed>
  <fix>3d</fix>
</trkpt>
<trkpt lat="-27.274439" lon="151.290064">
  <ele>343.1</ele>
  <time>2026-09-01T19:51:25Z</time>
  <course>270.0</course>
  <speed>0.0</speed>
  <fix>3d</fix>
</trkpt>
<trkpt lat="-27.2744392" lon="151.2900641">
  <ele>343.04</ele>
  <time>2026-09-01T19:51:25Z</time>
  <course>10.76</course>
  <speed>0.022360679774997897</speed>
  <fix>3d</fix>
</trkpt>
<trkpt lat="-27.274439" lon="151.290064">
  <ele>343.1</ele>
  <time>2026-09-01T19:51:25Z</time>
  <course>270.0</course>
  <speed>0.0</speed>
  <fix>3d</fix>
</trkpt>
<trkpt lat="-27.2744392" lon="151.2900641">
  <ele>343.04</ele>
  <time>2026-09-01T19:51:25Z</time>
  <course>10.76</course>
  <speed>0.022360679774997897</speed>
  <fix>3d</fix>
</trkpt>
<trkpt lat="-27.274439" lon="151.290064">
  <ele>343.1</ele>
  <time>2026-09-01T19:51:25Z</time>
  <course>270.0</course>
  <speed>0.0</speed>
  <fix>3d</fix>
</trkpt>
<trkpt lat="-27.2744392" lon="151.2900641">
  <ele>343.04</ele>
  <time>2026-09-01T19:51:25Z</time>
  <course>10.77</course>
  <speed>0.022360679774997897</speed>
  <fix>3d</fix>
</trkpt>
<trkpt lat="-27.274439" lon="151.290064">
  <ele>343.1</ele>
  <time>2026-09-01T19:51:25Z</time>
  <course>270.0</course>
  <speed>0.0</speed>
  <fix>3d</fix>
</trkpt>
<trkpt lat="-27.2744392" lon="151.2900641">
  <ele>343.03</ele>
  <time>2026-09-01T19:51:25Z</time>
  <course>10.77</course>
  <speed>0.022360679774997897</speed>
  <fix>3d</fix>
</trkpt>
<trkpt lat="-27.274439" lon="151.290064">
  <ele>343.1</ele>
  <time>2026-09-01T19:51:25Z</time>
  <course>270.0</course>
  <speed>0.0</speed>
  <fix>3d</fix>
</trkpt>
<trkpt lat="-27.2744392" lon="151.2900641">
  <ele>343.03</ele>
  <time>2026-09-01T19:51:25Z</time>
  <course>10.77</course>
  <speed>0.022360679774997897</speed>
  <fix>3d</fix>
</trkpt>
<trkpt lat="-27.274439" lon="151.290064">
  <ele>343.1</ele>
  <time>2026-09-01T19:51:25Z</time>
  <course>270.0</course>
  <speed>0.0</speed>
  <fix>3d</fix>
</trkpt>
<trkpt lat="-27.2744392" lon="151.2900641">
  <ele>343.03</ele>
  <time>2026-09-01T19:51:25Z</time>
  <course>10.77</course>
  <speed>0.022360679774997897</speed>
  <fix>3d</fix>
</trkpt>
<trkpt lat="-27.274439" lon="151.290064">
  <ele>343.1</ele>
  <time>2026-09-01T19:51:25Z</time>
  <course>270.0</course>
  <speed>0.0</speed>
  <fix>3d</fix>
</trkpt>
<trkpt lat="-27.2744392" lon="151.2900641">
  <ele>343.03</ele>
  <time>2026-09-01T19:51:25Z</time>
  <course>10.77</course>
  <speed>0.022360679774997897</speed>
  <fix>3d</fix>
</trkpt>
<trkpt lat="-27.274439" lon="151.290064">
  <ele>343.1</ele>
  <time>2026-09-01T19:51:25Z</time>
  <course>270.0</course>
  <speed>0.0</speed>
  <fix>3d</fix>
</trkpt>
<trkpt lat="-27.2744392" lon="151.2900641">
  <ele>343.03</ele>
  <time>2026-09-01T19:51:25Z</time>
  <course>10.77</course>
  <speed>0.022360679774997897</speed>
  <fix>3d</fix>
</trkpt>
<trkpt lat="-27.274439" lon="151.290064">
  <ele>343.1</ele>
  <time>2026-09-01T19:51:25Z</time>
  <course>270.0</course>
  <speed>0.0</speed>
  <fix>3d</fix>
</trkpt>
<trkpt lat="-27.2744392" lon="151.2900641">
  <ele>343.03</ele>
  <time>2026-09-01T19:51:25Z</time>
  <course>10.77</course>
  <speed>0.022360679774997897</speed>
  <fix>3d</fix>
</trkpt>
<trkpt lat="-27.274439" lon="151.290064">
  <ele>343.1</ele>
  <time>2026-09-01T19:51:25Z</time>
  <course>270.0</course>
  <speed>0.0</speed>
  <fix>3d</fix>
</trkpt>
<trkpt lat="-27.2744392" lon="151.2900641">
  <ele>343.02</ele>
  <time>2026-09-01T19:51:25Z</time>
  <course>10.77</course>
  <speed>0.022360679774997897</speed>
  <fix>3d</fix>
</trkpt>
<trkpt lat="-27.274439" lon="151.290064">
  <ele>343.1</ele>
  <time>2026-09-01T19:51:25Z</time>
  <course>270.0</course>
  <speed>0.0</speed>
  <fix>3d</fix>
</trkpt>
<trkpt lat="-27.2744392" lon="151.2900641">
  <ele>343.02</ele>
  <time>2026-09-01T19:51:25Z</time>
  <course>10.77</course>
  <speed>0.022360679774997897</speed>
  <fix>3d</fix>
</trkpt>
<trkpt lat="-27.274439" lon="151.290064">
  <ele>343.1</ele>
  <time>2026-09-01T19:51:25Z</time>
  <course>270.0</course>
  <speed>0.0</speed>
  <fix>3d</fix>
</trkpt>
<trkpt lat="-27.2744392" lon="151.2900641">
  <ele>343.02</ele>
  <time>2026-09-01T19:51:25Z</time>
  <course>10.77</course>
  <speed>0.022360679774997897</speed>
  <fix>3d</fix>
</trkpt>
<trkpt lat="-27.274439" lon="151.290064">
  <ele>343.1</ele>
  <time>2026-09-01T19:51:25Z</time>
  <course>270.0</course>
  <speed>0.0</speed>
  <fix>3d</fix>
</trkpt>
<trkpt lat="-27.2744392" lon="151.2900641">
  <ele>343.02</ele>
  <time>2026-09-01T19:51:25Z</time>
  <course>10.77</course>
  <speed>0.022360679774997897</speed>
  <fix>3d</fix>
</trkpt>
<trkpt lat="-27.274439" lon="151.290064">
  <ele>343.1</ele>
  <time>2026-09-01T19:51:25Z</time>
  <course>270.0</course>
  <speed>0.0</speed>
  <fix>3d</fix>
</trkpt>
<trkpt lat="-27.2744392" lon="151.2900641">
  <ele>343.01</ele>
  <time>2026-09-01T19:51:25Z</time>
  <course>10.77</course>
  <speed>0.022360679774997897</speed>
  <fix>3d</fix>
</trkpt>
<trkpt lat="-27.274439" lon="151.290064">
  <ele>343.1</ele>
  <time>2026-09-01T19:51:25Z</time>
  <course>270.0</course>
  <speed>0.0</speed>
  <fix>3d</fix>
</trkpt>
<trkpt lat="-27.2744392" lon="151.2900641">
  <ele>343.01</ele>
  <time>2026-09-01T19:51:25Z</time>
  <course>10.77</course>
  <speed>0.022360679774997897</speed>
  <fix>3d</fix>
</trkpt>
<trkpt lat="-27.274439" lon="151.290064">
  <ele>343.1</ele>
  <time>2026-09-01T19:51:25Z</time>
  <course>270.0</course>
  <speed>0.0</speed>
  <fix>3d</fix>
</trkpt>
<trkpt lat="-27.2744392" lon="151.2900641">
  <ele>343.01</ele>
  <time>2026-09-01T19:51:25Z</time>
  <course>10.77</course>
  <speed>0.022360679774997897</speed>
  <fix>3d</fix>
</trkpt>
<trkpt lat="-27.274439" lon="151.290064">
  <ele>343.1</ele>
  <time>2026-09-01T19:51:25Z</time>
  <course>270.0</course>
  <speed>0.0</speed>
  <fix>3d</fix>
</trkpt>
<trkpt lat="-27.2744392" lon="151.2900641">
  <ele>343.01</ele>
  <time>2026-09-01T19:51:25Z</time>
  <course>10.77</course>
  <speed>0.022360679774997897</speed>
  <fix>3d</fix>
</trkpt>
<trkpt lat="-27.274439" lon="151.290064">
  <ele>343.1</ele>
  <time>2026-09-01T19:51:25Z</time>
  <course>270.0</course>
  <speed>0.0</speed>
  <fix>3d</fix>
</trkpt>
<trkpt lat="-27.2744392" lon="151.2900641">
  <ele>343.01</ele>
  <time>2026-09-01T19:51:25Z</time>
  <course>10.78</course>
  <speed>0.022360679774997897</speed>
  <fix>3d</fix>
</trkpt>
<trkpt lat="-27.274439" lon="151.290064">
  <ele>343.1</ele>
  <time>2026-09-01T19:51:25Z</time>
  <course>270.0</course>
  <speed>0.0</speed>
  <fix>3d</fix>
</trkpt>
<trkpt lat="-27.2744392" lon="151.2900641">
  <ele>343.01</ele>
  <time>2026-09-01T19:51:25Z</time>
  <course>10.78</course>
  <speed>0.022360679774997897</speed>
  <fix>3d</fix>
</trkpt>
<trkpt lat="-27.274439" lon="151.290064">
  <ele>343.1</ele>
  <time>2026-09-01T19:51:25Z</time>
  <course>270.0</course>
  <speed>0.0</speed>
  <fix>3d</fix>
</trkpt>
<trkpt lat="-27.2744392" lon="151.2900641">
  <ele>343.01</ele>
  <time>2026-09-01T19:51:25Z</time>
  <course>10.78</course>
  <speed>0.022360679774997897</speed>
  <fix>3d</fix>
</trkpt>
<trkpt lat="-27.274439" lon="151.290064">
  <ele>343.1</ele>
  <time>2026-09-01T19:51:25Z</time>
  <course>270.0</course>
  <speed>0.0</speed>
  <fix>3d</fix>
</trkpt>
<trkpt lat="-27.2744392" lon="151.2900641">
  <ele>343.01</ele>
  <time>2026-09-01T19:51:25Z</time>
  <course>10.78</course>
  <speed>0.022360679774997897</speed>
  <fix>3d</fix>
</trkpt>
<trkpt lat="-27.274439" lon="151.290064">
  <ele>343.1</ele>
  <time>2026-09-01T19:51:25Z</time>
  <course>270.0</course>
  <speed>0.0</speed>
  <fix>3d</fix>
</trkpt>
<trkpt lat="-27.2744392" lon="151.2900641">
  <ele>343.02</ele>
  <time>2026-09-01T19:51:25Z</time>
  <course>10.78</course>
  <speed>0.022360679774997897</speed>
  <fix>3d</fix>
</trkpt>
<trkpt lat="-27.274439" lon="151.290064">
  <ele>343.1</ele>
  <time>2026-09-01T19:51:25Z</time>
  <course>270.0</course>
  <speed>0.0</speed>
  <fix>3d</fix>
</trkpt>
<trkpt lat="-27.2744392" lon="151.2900641">
  <ele>343.02</ele>
  <time>2026-09-01T19:51:25Z</time>
  <course>10.78</course>
  <speed>0.022360679774997897</speed>
  <fix>3d</fix>
</trkpt>
<trkpt lat="-27.274439" lon="151.290064">
  <ele>343.1</ele>
  <time>2026-09-01T19:51:25Z</time>
  <course>270.0</course>
  <speed>0.0</speed>
  <fix>3d</fix>
</trkpt>
<trkpt lat="-27.2744392" lon="151.2900641">
  <ele>343.01</ele>
  <time>2026-09-01T19:51:25Z</time>
  <course>10.78</course>
  <speed>0.022360679774997897</speed>
  <fix>3d</fix>
</trkpt>
<trkpt lat="-27.274439" lon="151.290064">
  <ele>343.1</ele>
  <time>2026-09-01T19:51:25Z</time>
  <course>270.0</course>
  <speed>0.0</speed>
  <fix>3d</fix>
</trkpt>
<trkpt lat="-27.2744392" lon="151.2900641">
  <ele>343.01</ele>
  <time>2026-09-01T19:51:25Z</time>
  <course>10.78</course>
  <speed>0.022360679774997897</speed>
  <fix>3d</fix>
</trkpt>
<trkpt lat="-27.274439" lon="151.290064">
  <ele>343.1</ele>
  <time>2026-09-01T19:51:25Z</time>
  <course>270.0</course>
  <speed>0.0</speed>
  <fix>3d</fix>
</trkpt>
<trkpt lat="-27.2744392" lon="151.2900641">
  <ele>343.02</ele>
  <time>2026-09-01T19:51:25Z</time>
  <course>10.78</course>
  <speed>0.022360679774997897</speed>
  <fix>3d</fix>
</trkpt>
<trkpt lat="-27.274439" lon="151.290064">
  <ele>343.1</ele>
  <time>2026-09-01T19:51:25Z</time>
  <course>270.0</course>
  <speed>0.0</speed>
  <fix>3d</fix>
</trkpt>
<trkpt lat="-27.2744392" lon="151.2900641">
  <ele>343.02</ele>
  <time>2026-09-01T19:51:25Z</time>
  <course>10.78</course>
  <speed>0.022360679774997897</speed>
  <fix>3d</fix>
</trkpt>
<trkpt lat="-27.274439" lon="151.290064">
  <ele>343.1</ele>
  <time>2026-09-01T19:51:25Z</time>
  <course>270.0</course>
  <speed>0.0</speed>
  <fix>3d</fix>
</trkpt>
<trkpt lat="-27.2744392" lon="151.2900641">
  <ele>343.02</ele>
  <time>2026-09-01T19:51:25Z</time>
  <course>10.78</course>
  <speed>0.022360679774997897</speed>
  <fix>3d</fix>
</trkpt>
<trkpt lat="-27.274439" lon="151.290064">
  <ele>343.1</ele>
  <time>2026-09-01T19:51:25Z</time>
  <course>270.0</course>
  <speed>0.0</speed>
  <fix>3d</fix>
</trkpt>
<trkpt lat="-27.2744392" lon="151.2900641">
  <ele>343.02</ele>
  <time>2026-09-01T19:51:25Z</time>
  <course>10.78</course>
  <speed>0.022360679774997897</speed>
  <fix>3d</fix>
</trkpt>
<trkpt lat="-27.274439" lon="151.290064">
  <ele>343.1</ele>
  <time>2026-09-01T19:51:25Z</time>
  <course>270.0</course>
  <speed>0.0</speed>
  <fix>3d</fix>
</trkpt>
<trkpt lat="-27.2744392" lon="151.2900641">
  <ele>343.09</ele>
  <time>2026-09-01T19:51:25Z</time>
  <course>10.78</course>
  <speed>0.022360679774997897</speed>
  <fix>3d</fix>
</trkpt>
<trkpt lat="-27.274439" lon="151.290064">
  <ele>343.1</ele>
  <time>2026-09-01T19:51:25Z</time>
  <course>270.0</course>
  <speed>0.0</speed>
  <fix>3d</fix>
</trkpt>
<trkpt lat="-27.2744392" lon="151.2900641">
  <ele>343.09</ele>
  <time>2026-09-01T19:51:25Z</time>
  <course>10.78</course>
  <speed>0.022360679774997897</speed>
  <fix>3d</fix>
</trkpt>
<trkpt lat="-27.274439" lon="151.290064">
  <ele>343.1</ele>
  <time>2026-09-01T19:51:25Z</time>
  <course>270.0</course>
  <speed>0.0</speed>
  <fix>3d</fix>
</trkpt>
<trkpt lat="-27.2744392" lon="151.2900641">
  <ele>343.09</ele>
  <time>2026-09-01T19:51:25Z</time>
  <course>10.79</course>
  <speed>0.022360679774997897</speed>
  <fix>3d</fix>
</trkpt>
<trkpt lat="-27.274439" lon="151.290064">
  <ele>343.1</ele>
  <time>2026-09-01T19:51:25Z</time>
  <course>270.0</course>
  <speed>0.0</speed>
  <fix>3d</fix>
</trkpt>
<trkpt lat="-27.2744392" lon="151.2900641">
  <ele>343.09</ele>
  <time>2026-09-01T19:51:25Z</time>
  <course>10.79</course>
  <speed>0.022360679774997897</speed>
  <fix>3d</fix>
</trkpt>
<trkpt lat="-27.274439" lon="151.290064">
  <ele>343.1</ele>
  <time>2026-09-01T19:51:25Z</time>
  <course>270.0</course>
  <speed>0.0</speed>
  <fix>3d</fix>
</trkpt>
<trkpt lat="-27.2744392" lon="151.2900641">
  <ele>343.09</ele>
  <time>2026-09-01T19:51:25Z</time>
  <course>10.79</course>
  <speed>0.022360679774997897</speed>
  <fix>3d</fix>
</trkpt>
<trkpt lat="-27.274439" lon="151.290064">
  <ele>343.1</ele>
  <time>2026-09-01T19:51:25Z</time>
  <course>270.0</course>
  <speed>0.0</speed>
  <fix>3d</fix>
</trkpt>
<trkpt lat="-27.2744392" lon="151.2900641">
  <ele>343.08</ele>
  <time>2026-09-01T19:51:25Z</time>
  <course>10.79</course>
  <speed>0.022360679774997897</speed>
  <fix>3d</fix>
</trkpt>
<trkpt lat="-27.274439" lon="151.290064">
  <ele>343.1</ele>
  <time>2026-09-01T19:51:25Z</time>
  <course>270.0</course>
  <speed>0.0</speed>
  <fix>3d</fix>
</trkpt>
<trkpt lat="-27.2744392" lon="151.2900641">
  <ele>343.08</ele>
  <time>2026-09-01T19:51:25Z</time>
  <course>10.79</course>
  <speed>0.022360679774997897</speed>
  <fix>3d</fix>
</trkpt>
<trkpt lat="-27.274439" lon="151.290064">
  <ele>343.1</ele>
  <time>2026-09-01T19:51:25Z</time>
  <course>270.0</course>
  <speed>0.0</speed>
  <fix>3d</fix>
</trkpt>
<trkpt lat="-27.2744392" lon="151.2900641">
  <ele>343.08</ele>
  <time>2026-09-01T19:51:25Z</time>
  <course>10.79</course>
  <speed>0.022360679774997897</speed>
  <fix>3d</fix>
</trkpt>
<trkpt lat="-27.274439" lon="151.290064">
  <ele>343.1</ele>
  <time>2026-09-01T19:51:25Z</time>
  <course>270.0</course>
  <speed>0.0</speed>
  <fix>3d</fix>
</trkpt>
<trkpt lat="-27.2744392" lon="151.2900641">
  <ele>343.08</ele>
  <time>2026-09-01T19:51:25Z</time>
  <course>10.79</course>
  <speed>0.022360679774997897</speed>
  <fix>3d</fix>
</trkpt>
<trkpt lat="-27.274439" lon="151.290064">
  <ele>343.1</ele>
  <time>2026-09-01T19:51:25Z</time>
  <course>270.0</course>
  <speed>0.0</speed>
  <fix>3d</fix>
</trkpt>
<trkpt lat="-27.2744392" lon="151.2900641">
  <ele>343.08</ele>
  <time>2026-09-01T19:51:25Z</time>
  <course>10.79</course>
  <speed>0.022360679774997897</speed>
  <fix>3d</fix>
</trkpt>
<trkpt lat="-27.274439" lon="151.290064">
  <ele>343.1</ele>
  <time>2026-09-01T19:51:25Z</time>
  <course>270.0</course>
  <speed>0.0</speed>
  <fix>3d</fix>
</trkpt>
<trkpt lat="-27.2744392" lon="151.2900641">
  <ele>343.08</ele>
  <time>2026-09-01T19:51:25Z</time>
  <course>10.79</course>
  <speed>0.022360679774997897</speed>
  <fix>3d</fix>
</trkpt>
<trkpt lat="-27.274439" lon="151.290064">
  <ele>343.1</ele>
  <time>2026-09-01T19:51:25Z</time>
  <course>270.0</course>
  <speed>0.0</speed>
  <fix>3d</fix>
</trkpt>
<trkpt lat="-27.2744392" lon="151.2900641">
  <ele>343.08</ele>
  <time>2026-09-01T19:51:25Z</time>
  <course>10.79</course>
  <speed>0.022360679774997897</speed>
  <fix>3d</fix>
</trkpt>
<trkpt lat="-27.274439" lon="151.290064">
  <ele>343.1</ele>
  <time>2026-09-01T19:51:25Z</time>
  <course>270.0</course>
  <speed>0.0</speed>
  <fix>3d</fix>
</trkpt>
<trkpt lat="-27.2744392" lon="151.2900641">
  <ele>343.08</ele>
  <time>2026-09-01T19:51:25Z</time>
  <course>10.79</course>
  <speed>0.022360679774997897</speed>
  <fix>3d</fix>
</trkpt>
<trkpt lat="-27.274439" lon="151.290064">
  <ele>343.1</ele>
  <time>2026-09-01T19:51:25Z</time>
  <course>270.0</course>
  <speed>0.0</speed>
  <fix>3d</fix>
</trkpt>
<trkpt lat="-27.2744392" lon="151.2900641">
  <ele>343.08</ele>
  <time>2026-09-01T19:51:25Z</time>
  <course>10.79</course>
  <speed>0.022360679774997897</speed>
  <fix>3d</fix>
</trkpt>
<trkpt lat="-27.274439" lon="151.290064">
  <ele>343.1</ele>
  <time>2026-09-01T19:51:25Z</time>
  <course>270.0</course>
  <speed>0.0</speed>
  <fix>3d</fix>
</trkpt>
<trkpt lat="-27.2744392" lon="151.2900641">
  <ele>343.07</ele>
  <time>2026-09-01T19:51:25Z</time>
  <course>10.79</course>
  <speed>0.022360679774997897</speed>
  <fix>3d</fix>
</trkpt>
<trkpt lat="-27.274439" lon="151.290064">
  <ele>343.1</ele>
  <time>2026-09-01T19:51:25Z</time>
  <course>270.0</course>
  <speed>0.0</speed>
  <fix>3d</fix>
</trkpt>
<trkpt lat="-27.2744392" lon="151.2900641">
  <ele>343.07</ele>
  <time>2026-09-01T19:51:25Z</time>
  <course>10.79</course>
  <speed>0.022360679774997897</speed>
  <fix>3d</fix>
</trkpt>
<trkpt lat="-27.274439" lon="151.290064">
  <ele>343.1</ele>
  <time>2026-09-01T19:51:25Z</time>
  <course>270.0</course>
  <speed>0.0</speed>
  <fix>3d</fix>
</trkpt>
<trkpt lat="-27.2744392" lon="151.2900641">
  <ele>343.07</ele>
  <time>2026-09-01T19:51:25Z</time>
  <course>10.79</course>
  <speed>0.022360679774997897</speed>
  <fix>3d</fix>
</trkpt>
<trkpt lat="-27.274439" lon="151.290064">
  <ele>343.1</ele>
  <time>2026-09-01T19:51:25Z</time>
  <course>270.0</course>
  <speed>0.0</speed>
  <fix>3d</fix>
</trkpt>
<trkpt lat="-27.2744392" lon="151.2900641">
  <ele>343.07</ele>
  <time>2026-09-01T19:51:25Z</time>
  <course>10.8</course>
  <speed>0.022360679774997897</speed>
  <fix>3d</fix>
</trkpt>
<trkpt lat="-27.274439" lon="151.290064">
  <ele>343.1</ele>
  <time>2026-09-01T19:51:25Z</time>
  <course>270.0</course>
  <speed>0.0</speed>
  <fix>3d</fix>
</trkpt>
<trkpt lat="-27.2744392" lon="151.2900641">
  <ele>343.07</ele>
  <time>2026-09-01T19:51:25Z</time>
  <course>10.8</course>
  <speed>0.022360679774997897</speed>
  <fix>3d</fix>
</trkpt>
<trkpt lat="-27.274439" lon="151.290064">
  <ele>343.1</ele>
  <time>2026-09-01T19:51:25Z</time>
  <course>270.0</course>
  <speed>0.0</speed>
  <fix>3d</fix>
</trkpt>
<trkpt lat="-27.2744392" lon="151.2900641">
  <ele>343.07</ele>
  <time>2026-09-01T19:51:25Z</time>
  <course>10.8</course>
  <speed>0.022360679774997897</speed>
  <fix>3d</fix>
</trkpt>
<trkpt lat="-27.274439" lon="151.290064">
  <ele>343.1</ele>
  <time>2026-09-01T19:51:25Z</time>
  <course>270.0</course>
  <speed>0.0</speed>
  <fix>3d</fix>
</trkpt>
<trkpt lat="-27.2744392" lon="151.2900641">
  <ele>343.07</ele>
  <time>2026-09-01T19:51:25Z</time>
  <course>10.8</course>
  <speed>0.022360679774997897</speed>
  <fix>3d</fix>
</trkpt>
<trkpt lat="-27.274439" lon="151.290064">
  <ele>343.1</ele>
  <time>2026-09-01T19:51:25Z</time>
  <course>270.0</course>
  <speed>0.0</speed>
  <fix>3d</fix>
</trkpt>
<trkpt lat="-27.2744392" lon="151.2900641">
  <ele>343.07</ele>
  <time>2026-09-01T19:51:25Z</time>
  <course>10.8</course>
  <speed>0.022360679774997897</speed>
  <fix>3d</fix>
</trkpt>
<trkpt lat="-27.274439" lon="151.290064">
  <ele>343.1</ele>
  <time>2026-09-01T19:51:25Z</time>
  <course>270.0</course>
  <speed>0.0</speed>
  <fix>3d</fix>
</trkpt>
<trkpt lat="-27.2744392" lon="151.2900641">
  <ele>343.07</ele>
  <time>2026-09-01T19:51:25Z</time>
  <course>10.8</course>
  <speed>0.022360679774997897</speed>
  <fix>3d</fix>
</trkpt>
<trkpt lat="-27.274439" lon="151.290064">
  <ele>343.1</ele>
  <time>2026-09-01T19:51:25Z</time>
  <course>270.0</course>
  <speed>0.0</speed>
  <fix>3d</fix>
</trkpt>
<trkpt lat="-27.2744392" lon="151.2900641">
  <ele>343.07</ele>
  <time>2026-09-01T19:51:25Z</time>
  <course>10.8</course>
  <speed>0.022360679774997897</speed>
  <fix>3d</fix>
</trkpt>
<trkpt lat="-27.274439" lon="151.290064">
  <ele>343.1</ele>
  <time>2026-09-01T19:51:25Z</time>
  <course>270.0</course>
  <speed>0.0</speed>
  <fix>3d</fix>
</trkpt>
<trkpt lat="-27.2744392" lon="151.2900641">
  <ele>343.07</ele>
  <time>2026-09-01T19:51:25Z</time>
  <course>10.8</course>
  <speed>0.022360679774997897</speed>
  <fix>3d</fix>
</trkpt>
<trkpt lat="-27.274439" lon="151.290064">
  <ele>343.1</ele>
  <time>2026-09-01T19:51:25Z</time>
  <course>270.0</course>
  <speed>0.0</speed>
  <fix>3d</fix>
</trkpt>
<trkpt lat="-27.2744392" lon="151.2900641">
  <ele>343.07</ele>
  <time>2026-09-01T19:51:25Z</time>
  <course>10.8</course>
  <speed>0.022360679774997897</speed>
  <fix>3d</fix>
</trkpt>
<trkpt lat="-27.274439" lon="151.290064">
  <ele>343.1</ele>
  <time>2026-09-01T19:51:25Z</time>
  <course>270.0</course>
  <speed>0.0</speed>
  <fix>3d</fix>
</trkpt>
<trkpt lat="-27.2744392" lon="151.2900641">
  <ele>343.07</ele>
  <time>2026-09-01T19:51:25Z</time>
  <course>10.8</course>
  <speed>0.022360679774997897</speed>
  <fix>3d</fix>
</trkpt>
<trkpt lat="-27.274439" lon="151.290064">
  <ele>343.1</ele>
  <time>2026-09-01T19:51:25Z</time>
  <course>270.0</course>
  <speed>0.0</speed>
  <fix>3d</fix>
</trkpt>
<trkpt lat="-27.2744392" lon="151.2900641">
  <ele>343.06</ele>
  <time>2026-09-01T19:51:25Z</time>
  <course>10.8</course>
  <speed>0.022360679774997897</speed>
  <fix>3d</fix>
</trkpt>
<trkpt lat="-27.274439" lon="151.290064">
  <ele>343.1</ele>
  <time>2026-09-01T19:51:25Z</time>
  <course>270.0</course>
  <speed>0.0</speed>
  <fix>3d</fix>
</trkpt>
<trkpt lat="-27.2744392" lon="151.2900641">
  <ele>343.06</ele>
  <time>2026-09-01T19:51:25Z</time>
  <course>10.8</course>
  <speed>0.022360679774997897</speed>
  <fix>3d</fix>
</trkpt>
<trkpt lat="-27.274439" lon="151.290064">
  <ele>343.1</ele>
  <time>2026-09-01T19:51:25Z</time>
  <course>270.0</course>
  <speed>0.0</speed>
  <fix>3d</fix>
</trkpt>
<trkpt lat="-27.2744392" lon="151.2900641">
  <ele>343.06</ele>
  <time>2026-09-01T19:51:25Z</time>
  <course>10.81</course>
  <speed>0.022360679774997897</speed>
  <fix>3d</fix>
</trkpt>
<trkpt lat="-27.274439" lon="151.290064">
  <ele>343.1</ele>
  <time>2026-09-01T19:51:25Z</time>
  <course>270.0</course>
  <speed>0.0</speed>
  <fix>3d</fix>
</trkpt>
<trkpt lat="-27.2744392" lon="151.2900641">
  <ele>343.06</ele>
  <time>2026-09-01T19:51:25Z</time>
  <course>10.81</course>
  <speed>0.022360679774997897</speed>
  <fix>3d</fix>
</trkpt>
<trkpt lat="-27.274439" lon="151.290064">
  <ele>343.1</ele>
  <time>2026-09-01T19:51:25Z</time>
  <course>270.0</course>
  <speed>0.0</speed>
  <fix>3d</fix>
</trkpt>
<trkpt lat="-27.2744392" lon="151.2900641">
  <ele>343.05</ele>
  <time>2026-09-01T19:51:25Z</time>
  <course>10.81</course>
  <speed>0.022360679774997897</speed>
  <fix>3d</fix>
</trkpt>
<trkpt lat="-27.274439" lon="151.290064">
  <ele>343.1</ele>
  <time>2026-09-01T19:51:25Z</time>
  <course>270.0</course>
  <speed>0.0</speed>
  <fix>3d</fix>
</trkpt>
<trkpt lat="-27.2744392" lon="151.2900641">
  <ele>343.05</ele>
  <time>2026-09-01T19:51:25Z</time>
  <course>10.81</course>
  <speed>0.022360679774997897</speed>
  <fix>3d</fix>
</trkpt>
<trkpt lat="-27.274439" lon="151.290064">
  <ele>343.1</ele>
  <time>2026-09-01T19:51:25Z</time>
  <course>270.0</course>
  <speed>0.0</speed>
  <fix>3d</fix>
</trkpt>
<trkpt lat="-27.2744392" lon="151.2900641">
  <ele>343.05</ele>
  <time>2026-09-01T19:51:25Z</time>
  <course>10.81</course>
  <speed>0.022360679774997897</speed>
  <fix>3d</fix>
</trkpt>
<trkpt lat="-27.274439" lon="151.290064">
  <ele>343.1</ele>
  <time>2026-09-01T19:51:25Z</time>
  <course>270.0</course>
  <speed>0.0</speed>
  <fix>3d</fix>
</trkpt>
<trkpt lat="-27.2744392" lon="151.2900641">
  <ele>343.05</ele>
  <time>2026-09-01T19:51:25Z</time>
  <course>10.81</course>
  <speed>0.022360679774997897</speed>
  <fix>3d</fix>
</trkpt>
<trkpt lat="-27.274439" lon="151.290064">
  <ele>343.1</ele>
  <time>2026-09-01T19:51:25Z</time>
  <course>270.0</course>
  <speed>0.0</speed>
  <fix>3d</fix>
</trkpt>
<trkpt lat="-27.2744392" lon="151.2900641">
  <ele>343.05</ele>
  <time>2026-09-01T19:51:25Z</time>
  <course>10.81</course>
  <speed>0.022360679774997897</speed>
  <fix>3d</fix>
</trkpt>
<trkpt lat="-27.274439" lon="151.290064">
  <ele>343.1</ele>
  <time>2026-09-01T19:51:25Z</time>
  <course>270.0</course>
  <speed>0.0</speed>
  <fix>3d</fix>
</trkpt>
<trkpt lat="-27.2744392" lon="151.2900641">
  <ele>343.05</ele>
  <time>2026-09-01T19:51:25Z</time>
  <course>10.81</course>
  <speed>0.022360679774997897</speed>
  <fix>3d</fix>
</trkpt>
<trkpt lat="-27.274439" lon="151.290064">
  <ele>343.1</ele>
  <time>2026-09-01T19:51:25Z</time>
  <course>270.0</course>
  <speed>0.0</speed>
  <fix>3d</fix>
</trkpt>
<trkpt lat="-27.2744392" lon="151.2900641">
  <ele>343.05</ele>
  <time>2026-09-01T19:51:25Z</time>
  <course>10.81</course>
  <speed>0.022360679774997897</speed>
  <fix>3d</fix>
</trkpt>
<trkpt lat="-27.274439" lon="151.290064">
  <ele>343.1</ele>
  <time>2026-09-01T19:51:25Z</time>
  <course>270.0</course>
  <speed>0.0</speed>
  <fix>3d</fix>
</trkpt>
<trkpt lat="-27.2744392" lon="151.2900641">
  <ele>343.05</ele>
  <time>2026-09-01T19:51:25Z</time>
  <course>10.81</course>
  <speed>0.022360679774997897</speed>
  <fix>3d</fix>
</trkpt>
<trkpt lat="-27.274439" lon="151.290064">
  <ele>343.1</ele>
  <time>2026-09-01T19:51:25Z</time>
  <course>270.0</course>
  <speed>0.0</speed>
  <fix>3d</fix>
</trkpt>
<trkpt lat="-27.2744392" lon="151.2900641">
  <ele>343.05</ele>
  <time>2026-09-01T19:51:25Z</time>
  <course>10.81</course>
  <speed>0.022360679774997897</speed>
  <fix>3d</fix>
</trkpt>
<trkpt lat="-27.274439" lon="151.290064">
  <ele>343.1</ele>
  <time>2026-09-01T19:51:25Z</time>
  <course>270.0</course>
  <speed>0.0</speed>
  <fix>3d</fix>
</trkpt>
<trkpt lat="-27.2744392" lon="151.2900641">
  <ele>343.05</ele>
  <time>2026-09-01T19:51:25Z</time>
  <course>10.81</course>
  <speed>0.022360679774997897</speed>
  <fix>3d</fix>
</trkpt>
<trkpt lat="-27.274439" lon="151.290064">
  <ele>343.1</ele>
  <time>2026-09-01T19:51:25Z</time>
  <course>270.0</course>
  <speed>0.0</speed>
  <fix>3d</fix>
</trkpt>
<trkpt lat="-27.2744392" lon="151.2900641">
  <ele>343.05</ele>
  <time>2026-09-01T19:51:25Z</time>
  <course>10.81</course>
  <speed>0.022360679774997897</speed>
  <fix>3d</fix>
</trkpt>
<trkpt lat="-27.274439" lon="151.290064">
  <ele>343.1</ele>
  <time>2026-09-01T19:51:25Z</time>
  <course>270.0</course>
  <speed>0.0</speed>
  <fix>3d</fix>
</trkpt>
<trkpt lat="-27.2744392" lon="151.2900641">
  <ele>343.04</ele>
  <time>2026-09-01T19:51:25Z</time>
  <course>10.81</course>
  <speed>0.022360679774997897</speed>
  <fix>3d</fix>
</trkpt>
<trkpt lat="-27.274439" lon="151.290064">
  <ele>343.1</ele>
  <time>2026-09-01T19:51:25Z</time>
  <course>270.0</course>
  <speed>0.0</speed>
  <fix>3d</fix>
</trkpt>
<trkpt lat="-27.2744392" lon="151.2900641">
  <ele>343.04</ele>
  <time>2026-09-01T19:51:25Z</time>
  <course>10.82</course>
  <speed>0.022360679774997897</speed>
  <fix>3d</fix>
</trkpt>
<trkpt lat="-27.274439" lon="151.290064">
  <ele>343.1</ele>
  <time>2026-09-01T19:51:25Z</time>
  <course>270.0</course>
  <speed>0.0</speed>
  <fix>3d</fix>
</trkpt>
<trkpt lat="-27.2744392" lon="151.2900641">
  <ele>343.04</ele>
  <time>2026-09-01T19:51:25Z</time>
  <course>10.82</course>
  <speed>0.022360679774997897</speed>
  <fix>3d</fix>
</trkpt>
<trkpt lat="-27.274439" lon="151.290064">
  <ele>343.1</ele>
  <time>2026-09-01T19:51:25Z</time>
  <course>270.0</course>
  <speed>0.0</speed>
  <fix>3d</fix>
</trkpt>
<trkpt lat="-27.2744392" lon="151.2900641">
  <ele>343.04</ele>
  <time>2026-09-01T19:51:25Z</time>
  <course>10.82</course>
  <speed>0.022360679774997897</speed>
  <fix>3d</fix>
</trkpt>
<trkpt lat="-27.274439" lon="151.290064">
  <ele>343.1</ele>
  <time>2026-09-01T19:51:25Z</time>
  <course>270.0</course>
  <speed>0.0</speed>
  <fix>3d</fix>
</trkpt>
<trkpt lat="-27.2744392" lon="151.2900641">
  <ele>343.04</ele>
  <time>2026-09-01T19:51:25Z</time>
  <course>10.82</course>
  <speed>0.022360679774997897</speed>
  <fix>3d</fix>
</trkpt>
<trkpt lat="-27.274439" lon="151.290064">
  <ele>343.1</ele>
  <time>2026-09-01T19:51:25Z</time>
  <course>270.0</course>
  <speed>0.0</speed>
  <fix>3d</fix>
</trkpt>
<trkpt lat="-27.2744392" lon="151.2900641">
  <ele>343.04</ele>
  <time>2026-09-01T19:51:25Z</time>
  <course>10.82</course>
  <speed>0.022360679774997897</speed>
  <fix>3d</fix>
</trkpt>
<trkpt lat="-27.274439" lon="151.290064">
  <ele>343.1</ele>
  <time>2026-09-01T19:51:25Z</time>
  <course>270.0</course>
  <speed>0.0</speed>
  <fix>3d</fix>
</trkpt>
<trkpt lat="-27.2744392" lon="151.2900641">
  <ele>343.04</ele>
  <time>2026-09-01T19:51:25Z</time>
  <course>10.82</course>
  <speed>0.022360679774997897</speed>
  <fix>3d</fix>
</trkpt>
<trkpt lat="-27.274439" lon="151.290064">
  <ele>343.1</ele>
  <time>2026-09-01T19:51:25Z</time>
  <course>270.0</course>
  <speed>0.0</speed>
  <fix>3d</fix>
</trkpt>
<trkpt lat="-27.2744392" lon="151.2900641">
  <ele>343.04</ele>
  <time>2026-09-01T19:51:25Z</time>
  <course>10.82</course>
  <speed>0.022360679774997897</speed>
  <fix>3d</fix>
</trkpt>
<trkpt lat="-27.274439" lon="151.290064">
  <ele>343.1</ele>
  <time>2026-09-01T19:51:25Z</time>
  <course>270.0</course>
  <speed>0.0</speed>
  <fix>3d</fix>
</trkpt>
<trkpt lat="-27.2744392" lon="151.2900641">
  <ele>343.04</ele>
  <time>2026-09-01T19:51:25Z</time>
  <course>10.82</course>
  <speed>0.022360679774997897</speed>
  <fix>3d</fix>
</trkpt>
<trkpt lat="-27.274439" lon="151.290064">
  <ele>343.1</ele>
  <time>2026-09-01T19:51:25Z</time>
  <course>270.0</course>
  <speed>0.0</speed>
  <fix>3d</fix>
</trkpt>
<trkpt lat="-27.2744392" lon="151.2900641">
  <ele>343.04</ele>
  <time>2026-09-01T19:51:25Z</time>
  <course>10.82</course>
  <speed>0.022360679774997897</speed>
  <fix>3d</fix>
</trkpt>
<trkpt lat="-27.274439" lon="151.290064">
  <ele>343.1</ele>
  <time>2026-09-01T19:51:25Z</time>
  <course>270.0</course>
  <speed>0.0</speed>
  <fix>3d</fix>
</trkpt>
<trkpt lat="-27.2744392" lon="151.2900641">
  <ele>343.04</ele>
  <time>2026-09-01T19:51:25Z</time>
  <course>10.82</course>
  <speed>0.022360679774997897</speed>
  <fix>3d</fix>
</trkpt>
<trkpt lat="-27.274439" lon="151.290064">
  <ele>343.1</ele>
  <time>2026-09-01T19:51:25Z</time>
  <course>270.0</course>
  <speed>0.0</speed>
  <fix>3d</fix>
</trkpt>
<trkpt lat="-27.2744392" lon="151.2900641">
  <ele>343.04</ele>
  <time>2026-09-01T19:51:25Z</time>
  <course>10.82</course>
  <speed>0.022360679774997897</speed>
  <fix>3d</fix>
</trkpt>
<trkpt lat="-27.274439" lon="151.290064">
  <ele>343.1</ele>
  <time>2026-09-01T19:51:25Z</time>
  <course>270.0</course>
  <speed>0.0</speed>
  <fix>3d</fix>
</trkpt>
<trkpt lat="-27.2744392" lon="151.2900641">
  <ele>343.04</ele>
  <time>2026-09-01T19:51:25Z</time>
  <course>10.82</course>
  <speed>0.022360679774997897</speed>
  <fix>3d</fix>
</trkpt>
<trkpt lat="-27.274439" lon="151.290064">
  <ele>343.1</ele>
  <time>2026-09-01T19:51:25Z</time>
  <course>270.0</course>
  <speed>0.0</speed>
  <fix>3d</fix>
</trkpt>
<trkpt lat="-27.2744392" lon="151.2900641">
  <ele>343.04</ele>
  <time>2026-09-01T19:51:25Z</time>
  <course>10.83</course>
  <speed>0.022360679774997897</speed>
  <fix>3d</fix>
</trkpt>
<trkpt lat="-27.274439" lon="151.290064">
  <ele>343.1</ele>
  <time>2026-09-01T19:51:25Z</time>
  <course>270.0</course>
  <speed>0.0</speed>
  <fix>3d</fix>
</trkpt>
<trkpt lat="-27.2744392" lon="151.2900641">
  <ele>343.04</ele>
  <time>2026-09-01T19:51:25Z</time>
  <course>10.83</course>
  <speed>0.022360679774997897</speed>
  <fix>3d</fix>
</trkpt>
<trkpt lat="-27.274439" lon="151.290064">
  <ele>343.1</ele>
  <time>2026-09-01T19:51:25Z</time>
  <course>270.0</course>
  <speed>0.0</speed>
  <fix>3d</fix>
</trkpt>
<trkpt lat="-27.2744392" lon="151.2900641">
  <ele>343.04</ele>
  <time>2026-09-01T19:51:25Z</time>
  <course>10.83</course>
  <speed>0.022360679774997897</speed>
  <fix>3d</fix>
</trkpt>
<trkpt lat="-27.274439" lon="151.290064">
  <ele>343.1</ele>
  <time>2026-09-01T19:51:25Z</time>
  <course>270.0</course>
  <speed>0.0</speed>
  <fix>3d</fix>
</trkpt>
<trkpt lat="-27.2744392" lon="151.2900641">
  <ele>343.04</ele>
  <time>2026-09-01T19:51:25Z</time>
  <course>10.83</course>
  <speed>0.022360679774997897</speed>
  <fix>3d</fix>
</trkpt>
<trkpt lat="-27.274439" lon="151.290064">
  <ele>343.1</ele>
  <time>2026-09-01T19:51:25Z</time>
  <course>270.0</course>
  <speed>0.0</speed>
  <fix>3d</fix>
</trkpt>
<trkpt lat="-27.2744392" lon="151.2900641">
  <ele>343.04</ele>
  <time>2026-09-01T19:51:25Z</time>
  <course>10.83</course>
  <speed>0.022360679774997897</speed>
  <fix>3d</fix>
</trkpt>
<trkpt lat="-27.274439" lon="151.290064">
  <ele>343.1</ele>
  <time>2026-09-01T19:51:25Z</time>
  <course>270.0</course>
  <speed>0.0</speed>
  <fix>3d</fix>
</trkpt>
<trkpt lat="-27.2744392" lon="151.2900641">
  <ele>343.09</ele>
  <time>2026-09-01T19:51:25Z</time>
  <course>10.83</course>
  <speed>0.022360679774997897</speed>
  <fix>3d</fix>
</trkpt>
<trkpt lat="-27.274439" lon="151.290064">
  <ele>343.1</ele>
  <time>2026-09-01T19:51:25Z</time>
  <course>270.0</course>
  <speed>0.0</speed>
  <fix>3d</fix>
</trkpt>
<trkpt lat="-27.2744392" lon="151.2900641">
  <ele>343.09</ele>
  <time>2026-09-01T19:51:25Z</time>
  <course>10.83</course>
  <speed>0.022360679774997897</speed>
  <fix>3d</fix>
</trkpt>
<trkpt lat="-27.274439" lon="151.290064">
  <ele>343.1</ele>
  <time>2026-09-01T19:51:25Z</time>
  <course>270.0</course>
  <speed>0.0</speed>
  <fix>3d</fix>
</trkpt>
<trkpt lat="-27.2744392" lon="151.2900641">
  <ele>343.09</ele>
  <time>2026-09-01T19:51:25Z</time>
  <course>10.83</course>
  <speed>0.022360679774997897</speed>
  <fix>3d</fix>
</trkpt>
<trkpt lat="-27.274439" lon="151.290064">
  <ele>343.1</ele>
  <time>2026-09-01T19:51:25Z</time>
  <course>270.0</course>
  <speed>0.0</speed>
  <fix>3d</fix>
</trkpt>
<trkpt lat="-27.2744392" lon="151.2900641">
  <ele>343.09</ele>
  <time>2026-09-01T19:51:25Z</time>
  <course>10.83</course>
  <speed>0.022360679774997897</speed>
  <fix>3d</fix>
</trkpt>
<trkpt lat="-27.274439" lon="151.290064">
  <ele>343.1</ele>
  <time>2026-09-01T19:51:25Z</time>
  <course>270.0</course>
  <speed>0.0</speed>
  <fix>3d</fix>
</trkpt>
<trkpt lat="-27.2744392" lon="151.2900641">
  <ele>343.09</ele>
  <time>2026-09-01T19:51:25Z</time>
  <course>10.83</course>
  <speed>0.022360679774997897</speed>
  <fix>3d</fix>
</trkpt>
<trkpt lat="-27.274439" lon="151.290064">
  <ele>343.1</ele>
  <time>2026-09-01T19:51:25Z</time>
  <course>270.0</course>
  <speed>0.0</speed>
  <fix>3d</fix>
</trkpt>
<trkpt lat="-27.2744392" lon="151.2900641">
  <ele>343.1</ele>
  <time>2026-09-01T19:51:25Z</time>
  <course>10.83</course>
  <speed>0.022360679774997897</speed>
  <fix>3d</fix>
</trkpt>
<trkpt lat="-27.274439" lon="151.290064">
  <ele>343.1</ele>
  <time>2026-09-01T19:51:25Z</time>
  <course>270.0</course>
  <speed>0.0</speed>
  <fix>3d</fix>
</trkpt>
<trkpt lat="-27.2744392" lon="151.2900641">
  <ele>343.1</ele>
  <time>2026-09-01T19:51:25Z</time>
  <course>10.83</course>
  <speed>0.022360679774997897</speed>
  <fix>3d</fix>
</trkpt>
<trkpt lat="-27.274439" lon="151.290064">
  <ele>343.1</ele>
  <time>2026-09-01T19:51:25Z</time>
  <course>270.0</course>
  <speed>0.0</speed>
  <fix>3d</fix>
</trkpt>
<trkpt lat="-27.2744392" lon="151.2900641">
  <ele>343.1</ele>
  <time>2026-09-01T19:51:25Z</time>
  <course>10.84</course>
  <speed>0.022360679774997897</speed>
  <fix>3d</fix>
</trkpt>
<trkpt lat="-27.274439" lon="151.290064">
  <ele>343.1</ele>
  <time>2026-09-01T19:51:25Z</time>
  <course>270.0</course>
  <speed>0.0</speed>
  <fix>3d</fix>
</trkpt>
<trkpt lat="-27.2744392" lon="151.2900641">
  <ele>343.1</ele>
  <time>2026-09-01T19:51:25Z</time>
  <course>10.84</course>
  <speed>0.022360679774997897</speed>
  <fix>3d</fix>
</trkpt>
<trkpt lat="-27.274439" lon="151.290064">
  <ele>343.1</ele>
  <time>2026-09-01T19:51:25Z</time>
  <course>270.0</course>
  <speed>0.0</speed>
  <fix>3d</fix>
</trkpt>
<trkpt lat="-27.2744392" lon="151.2900641">
  <ele>343.1</ele>
  <time>2026-09-01T19:51:25Z</time>
  <course>10.84</course>
  <speed>0.022360679774997897</speed>
  <fix>3d</fix>
</trkpt>
<trkpt lat="-27.274439" lon="151.290064">
  <ele>343.1</ele>
  <time>2026-09-01T19:51:25Z</time>
  <course>270.0</course>
  <speed>0.0</speed>
  <fix>3d</fix>
</trkpt>
<trkpt lat="-27.2744392" lon="151.2900641">
  <ele>343.1</ele>
  <time>2026-09-01T19:51:25Z</time>
  <course>10.84</course>
  <speed>0.022360679774997897</speed>
  <fix>3d</fix>
</trkpt>
<trkpt lat="-27.274439" lon="151.290064">
  <ele>343.1</ele>
  <time>2026-09-01T19:51:25Z</time>
  <course>270.0</course>
  <speed>0.0</speed>
  <fix>3d</fix>
</trkpt>
<trkpt lat="-27.2744392" lon="151.2900641">
  <ele>343.1</ele>
  <time>2026-09-01T19:51:25Z</time>
  <course>10.84</course>
  <speed>0.022360679774997897</speed>
  <fix>3d</fix>
</trkpt>
<trkpt lat="-27.274439" lon="151.290064">
  <ele>343.1</ele>
  <time>2026-09-01T19:51:25Z</time>
  <course>270.0</course>
  <speed>0.0</speed>
  <fix>3d</fix>
</trkpt>
<trkpt lat="-27.2744392" lon="151.2900641">
  <ele>343.1</ele>
  <time>2026-09-01T19:51:26Z</time>
  <course>10.84</course>
  <speed>0.022360679774997897</speed>
  <fix>3d</fix>
</trkpt>
<trkpt lat="-27.274439" lon="151.290064">
  <ele>343.1</ele>
  <time>2026-09-01T19:51:26Z</time>
  <course>270.0</course>
  <speed>0.0</speed>
  <fix>3d</fix>
</trkpt>
<trkpt lat="-27.2744392" lon="151.2900641">
  <ele>343.1</ele>
  <time>2026-09-01T19:51:26Z</time>
  <course>10.84</course>
  <speed>0.022360679774997897</speed>
  <fix>3d</fix>
</trkpt>
<trkpt lat="-27.274439" lon="151.290064">
  <ele>343.1</ele>
  <time>2026-09-01T19:51:26Z</time>
  <course>270.0</course>
  <speed>0.0</speed>
  <fix>3d</fix>
</trkpt>
<trkpt lat="-27.2744392" lon="151.2900641">
  <ele>343.1</ele>
  <time>2026-09-01T19:51:26Z</time>
  <course>10.84</course>
  <speed>0.022360679774997897</speed>
  <fix>3d</fix>
</trkpt>
<trkpt lat="-27.274439" lon="151.290064">
  <ele>343.1</ele>
  <time>2026-09-01T19:51:26Z</time>
  <course>270.0</course>
  <speed>0.0</speed>
  <fix>3d</fix>
</trkpt>
<trkpt lat="-27.2744392" lon="151.2900641">
  <ele>343.1</ele>
  <time>2026-09-01T19:51:26Z</time>
  <course>10.84</course>
  <speed>0.022360679774997897</speed>
  <fix>3d</fix>
</trkpt>
<trkpt lat="-27.274439" lon="151.290064">
  <ele>343.1</ele>
  <time>2026-09-01T19:51:26Z</time>
  <course>270.0</course>
  <speed>0.0</speed>
  <fix>3d</fix>
</trkpt>
<trkpt lat="-27.2744392" lon="151.2900641">
  <ele>343.09</ele>
  <time>2026-09-01T19:51:26Z</time>
  <course>10.84</course>
  <speed>0.022360679774997897</speed>
  <fix>3d</fix>
</trkpt>
<trkpt lat="-27.274439" lon="151.290064">
  <ele>343.1</ele>
  <time>2026-09-01T19:51:26Z</time>
  <course>270.0</course>
  <speed>0.0</speed>
  <fix>3d</fix>
</trkpt>
<trkpt lat="-27.2744392" lon="151.2900641">
  <ele>343.09</ele>
  <time>2026-09-01T19:51:26Z</time>
  <course>10.84</course>
  <speed>0.022360679774997897</speed>
  <fix>3d</fix>
</trkpt>
<trkpt lat="-27.274439" lon="151.290064">
  <ele>343.1</ele>
  <time>2026-09-01T19:51:26Z</time>
  <course>270.0</course>
  <speed>0.0</speed>
  <fix>3d</fix>
</trkpt>
<trkpt lat="-27.2744392" lon="151.2900641">
  <ele>343.1</ele>
  <time>2026-09-01T19:51:26Z</time>
  <course>10.84</course>
  <speed>0.022360679774997897</speed>
  <fix>3d</fix>
</trkpt>
<trkpt lat="-27.274439" lon="151.290064">
  <ele>343.1</ele>
  <time>2026-09-01T19:51:26Z</time>
  <course>270.0</course>
  <speed>0.0</speed>
  <fix>3d</fix>
</trkpt>
<trkpt lat="-27.2744392" lon="151.2900641">
  <ele>343.1</ele>
  <time>2026-09-01T19:51:26Z</time>
  <course>10.85</course>
  <speed>0.022360679774997897</speed>
  <fix>3d</fix>
</trkpt>
<trkpt lat="-27.274439" lon="151.290064">
  <ele>343.1</ele>
  <time>2026-09-01T19:51:26Z</time>
  <course>270.0</course>
  <speed>0.0</speed>
  <fix>3d</fix>
</trkpt>
<trkpt lat="-27.2744392" lon="151.2900641">
  <ele>343.09</ele>
  <time>2026-09-01T19:51:26Z</time>
  <course>10.85</course>
  <speed>0.022360679774997897</speed>
  <fix>3d</fix>
</trkpt>
<trkpt lat="-27.274439" lon="151.290064">
  <ele>343.1</ele>
  <time>2026-09-01T19:51:26Z</time>
  <course>270.0</course>
  <speed>0.0</speed>
  <fix>3d</fix>
</trkpt>
<trkpt lat="-27.2744392" lon="151.2900641">
  <ele>343.09</ele>
  <time>2026-09-01T19:51:26Z</time>
  <course>10.85</course>
  <speed>0.022360679774997897</speed>
  <fix>3d</fix>
</trkpt>
<trkpt lat="-27.274439" lon="151.290064">
  <ele>343.1</ele>
  <time>2026-09-01T19:51:26Z</time>
  <course>270.0</course>
  <speed>0.0</speed>
  <fix>3d</fix>
</trkpt>
<trkpt lat="-27.2744392" lon="151.2900641">
  <ele>343.09</ele>
  <time>2026-09-01T19:51:26Z</time>
  <course>10.85</course>
  <speed>0.022360679774997897</speed>
  <fix>3d</fix>
</trkpt>
<trkpt lat="-27.274439" lon="151.290064">
  <ele>343.1</ele>
  <time>2026-09-01T19:51:26Z</time>
  <course>270.0</course>
  <speed>0.0</speed>
  <fix>3d</fix>
</trkpt>
<trkpt lat="-27.2744392" lon="151.2900641">
  <ele>343.09</ele>
  <time>2026-09-01T19:51:26Z</time>
  <course>10.85</course>
  <speed>0.022360679774997897</speed>
  <fix>3d</fix>
</trkpt>
<trkpt lat="-27.274439" lon="151.290064">
  <ele>343.1</ele>
  <time>2026-09-01T19:51:26Z</time>
  <course>270.0</course>
  <speed>0.0</speed>
  <fix>3d</fix>
</trkpt>
<trkpt lat="-27.2744392" lon="151.2900641">
  <ele>343.09</ele>
  <time>2026-09-01T19:51:26Z</time>
  <course>10.85</course>
  <speed>0.022360679774997897</speed>
  <fix>3d</fix>
</trkpt>
<trkpt lat="-27.274439" lon="151.290064">
  <ele>343.1</ele>
  <time>2026-09-01T19:51:26Z</time>
  <course>270.0</course>
  <speed>0.0</speed>
  <fix>3d</fix>
</trkpt>
<trkpt lat="-27.2744392" lon="151.2900641">
  <ele>343.09</ele>
  <time>2026-09-01T19:51:26Z</time>
  <course>10.85</course>
  <speed>0.022360679774997897</speed>
  <fix>3d</fix>
</trkpt>
<trkpt lat="-27.274439" lon="151.290064">
  <ele>343.1</ele>
  <time>2026-09-01T19:51:26Z</time>
  <course>270.0</course>
  <speed>0.0</speed>
  <fix>3d</fix>
</trkpt>
<trkpt lat="-27.2744392" lon="151.2900641">
  <ele>343.09</ele>
  <time>2026-09-01T19:51:26Z</time>
  <course>10.85</course>
  <speed>0.022360679774997897</speed>
  <fix>3d</fix>
</trkpt>
<trkpt lat="-27.274439" lon="151.290064">
  <ele>343.1</ele>
  <time>2026-09-01T19:51:26Z</time>
  <course>270.0</course>
  <speed>0.0</speed>
  <fix>3d</fix>
</trkpt>
<trkpt lat="-27.2744392" lon="151.2900641">
  <ele>343.08</ele>
  <time>2026-09-01T19:51:26Z</time>
  <course>10.85</course>
  <speed>0.022360679774997897</speed>
  <fix>3d</fix>
</trkpt>
<trkpt lat="-27.274439" lon="151.290064">
  <ele>343.1</ele>
  <time>2026-09-01T19:51:26Z</time>
  <course>270.0</course>
  <speed>0.0</speed>
  <fix>3d</fix>
</trkpt>
<trkpt lat="-27.2744392" lon="151.2900641">
  <ele>343.08</ele>
  <time>2026-09-01T19:51:26Z</time>
  <course>10.85</course>
  <speed>0.022360679774997897</speed>
  <fix>3d</fix>
</trkpt>
<trkpt lat="-27.274439" lon="151.290064">
  <ele>343.1</ele>
  <time>2026-09-01T19:51:26Z</time>
  <course>270.0</course>
  <speed>0.0</speed>
  <fix>3d</fix>
</trkpt>
<trkpt lat="-27.2744392" lon="151.2900641">
  <ele>343.08</ele>
  <time>2026-09-01T19:51:26Z</time>
  <course>10.85</course>
  <speed>0.022360679774997897</speed>
  <fix>3d</fix>
</trkpt>
<trkpt lat="-27.274439" lon="151.290064">
  <ele>343.1</ele>
  <time>2026-09-01T19:51:26Z</time>
  <course>270.0</course>
  <speed>0.0</speed>
  <fix>3d</fix>
</trkpt>
<trkpt lat="-27.2744392" lon="151.2900641">
  <ele>343.08</ele>
  <time>2026-09-01T19:51:26Z</time>
  <course>10.85</course>
  <speed>0.022360679774997897</speed>
  <fix>3d</fix>
</trkpt>
<trkpt lat="-27.274439" lon="151.290064">
  <ele>343.1</ele>
  <time>2026-09-01T19:51:26Z</time>
  <course>270.0</course>
  <speed>0.0</speed>
  <fix>3d</fix>
</trkpt>
<trkpt lat="-27.2744392" lon="151.2900641">
  <ele>343.08</ele>
  <time>2026-09-01T19:51:26Z</time>
  <course>10.86</course>
  <speed>0.022360679774997897</speed>
  <fix>3d</fix>
</trkpt>
<trkpt lat="-27.274439" lon="151.290064">
  <ele>343.1</ele>
  <time>2026-09-01T19:51:26Z</time>
  <course>270.0</course>
  <speed>0.0</speed>
  <fix>3d</fix>
</trkpt>
<trkpt lat="-27.2744392" lon="151.2900641">
  <ele>343.08</ele>
  <time>2026-09-01T19:51:26Z</time>
  <course>10.86</course>
  <speed>0.022360679774997897</speed>
  <fix>3d</fix>
</trkpt>
<trkpt lat="-27.274439" lon="151.290064">
  <ele>343.1</ele>
  <time>2026-09-01T19:51:26Z</time>
  <course>270.0</course>
  <speed>0.0</speed>
  <fix>3d</fix>
</trkpt>
<trkpt lat="-27.2744392" lon="151.2900641">
  <ele>343.08</ele>
  <time>2026-09-01T19:51:26Z</time>
  <course>10.86</course>
  <speed>0.022360679774997897</speed>
  <fix>3d</fix>
</trkpt>
<trkpt lat="-27.274439" lon="151.290064">
  <ele>343.1</ele>
  <time>2026-09-01T19:51:26Z</time>
  <course>270.0</course>
  <speed>0.0</speed>
  <fix>3d</fix>
</trkpt>
<trkpt lat="-27.2744392" lon="151.2900641">
  <ele>343.08</ele>
  <time>2026-09-01T19:51:26Z</time>
  <course>10.86</course>
  <speed>0.022360679774997897</speed>
  <fix>3d</fix>
</trkpt>
<trkpt lat="-27.274439" lon="151.290064">
  <ele>343.1</ele>
  <time>2026-09-01T19:51:26Z</time>
  <course>270.0</course>
  <speed>0.0</speed>
  <fix>3d</fix>
</trkpt>
<trkpt lat="-27.2744392" lon="151.2900641">
  <ele>343.07</ele>
  <time>2026-09-01T19:51:26Z</time>
  <course>10.86</course>
  <speed>0.022360679774997897</speed>
  <fix>3d</fix>
</trkpt>
<trkpt lat="-27.274439" lon="151.290064">
  <ele>343.1</ele>
  <time>2026-09-01T19:51:26Z</time>
  <course>270.0</course>
  <speed>0.0</speed>
  <fix>3d</fix>
</trkpt>
<trkpt lat="-27.2744392" lon="151.2900641">
  <ele>343.07</ele>
  <time>2026-09-01T19:51:26Z</time>
  <course>10.86</course>
  <speed>0.022360679774997897</speed>
  <fix>3d</fix>
</trkpt>
<trkpt lat="-27.274439" lon="151.290064">
  <ele>343.1</ele>
  <time>2026-09-01T19:51:26Z</time>
  <course>270.0</course>
  <speed>0.0</speed>
  <fix>3d</fix>
</trkpt>
<trkpt lat="-27.2744392" lon="151.2900641">
  <ele>343.07</ele>
  <time>2026-09-01T19:51:26Z</time>
  <course>10.86</course>
  <speed>0.022360679774997897</speed>
  <fix>3d</fix>
</trkpt>
<trkpt lat="-27.274439" lon="151.290064">
  <ele>343.1</ele>
  <time>2026-09-01T19:51:26Z</time>
  <course>270.0</course>
  <speed>0.0</speed>
  <fix>3d</fix>
</trkpt>
<trkpt lat="-27.2744392" lon="151.2900641">
  <ele>343.07</ele>
  <time>2026-09-01T19:51:26Z</time>
  <course>10.86</course>
  <speed>0.022360679774997897</speed>
  <fix>3d</fix>
</trkpt>
<trkpt lat="-27.274439" lon="151.290064">
  <ele>343.1</ele>
  <time>2026-09-01T19:51:26Z</time>
  <course>270.0</course>
  <speed>0.0</speed>
  <fix>3d</fix>
</trkpt>
<trkpt lat="-27.2744392" lon="151.2900641">
  <ele>343.07</ele>
  <time>2026-09-01T19:51:26Z</time>
  <course>10.86</course>
  <speed>0.022360679774997897</speed>
  <fix>3d</fix>
</trkpt>
<trkpt lat="-27.274439" lon="151.290064">
  <ele>343.1</ele>
  <time>2026-09-01T19:51:26Z</time>
  <course>270.0</course>
  <speed>0.0</speed>
  <fix>3d</fix>
</trkpt>
<trkpt lat="-27.2744392" lon="151.2900641">
  <ele>343.07</ele>
  <time>2026-09-01T19:51:26Z</time>
  <course>10.86</course>
  <speed>0.022360679774997897</speed>
  <fix>3d</fix>
</trkpt>
<trkpt lat="-27.274439" lon="151.290064">
  <ele>343.1</ele>
  <time>2026-09-01T19:51:26Z</time>
  <course>270.0</course>
  <speed>0.0</speed>
  <fix>3d</fix>
</trkpt>
<trkpt lat="-27.2744392" lon="151.2900641">
  <ele>343.07</ele>
  <time>2026-09-01T19:51:26Z</time>
  <course>10.86</course>
  <speed>0.022360679774997897</speed>
  <fix>3d</fix>
</trkpt>
<trkpt lat="-27.274439" lon="151.290064">
  <ele>343.1</ele>
  <time>2026-09-01T19:51:26Z</time>
  <course>270.0</course>
  <speed>0.0</speed>
  <fix>3d</fix>
</trkpt>
<trkpt lat="-27.2744392" lon="151.2900641">
  <ele>343.07</ele>
  <time>2026-09-01T19:51:26Z</time>
  <course>10.87</course>
  <speed>0.022360679774997897</speed>
  <fix>3d</fix>
</trkpt>
<trkpt lat="-27.274439" lon="151.290064">
  <ele>343.1</ele>
  <time>2026-09-01T19:51:26Z</time>
  <course>270.0</course>
  <speed>0.0</speed>
  <fix>3d</fix>
</trkpt>
<trkpt lat="-27.2744392" lon="151.2900641">
  <ele>343.07</ele>
  <time>2026-09-01T19:51:26Z</time>
  <course>10.87</course>
  <speed>0.022360679774997897</speed>
  <fix>3d</fix>
</trkpt>
<trkpt lat="-27.274439" lon="151.290064">
  <ele>343.1</ele>
  <time>2026-09-01T19:51:26Z</time>
  <course>270.0</course>
  <speed>0.0</speed>
  <fix>3d</fix>
</trkpt>
<trkpt lat="-27.2744392" lon="151.2900641">
  <ele>343.07</ele>
  <time>2026-09-01T19:51:26Z</time>
  <course>10.87</course>
  <speed>0.022360679774997897</speed>
  <fix>3d</fix>
</trkpt>
<trkpt lat="-27.274439" lon="151.290064">
  <ele>343.1</ele>
  <time>2026-09-01T19:51:26Z</time>
  <course>270.0</course>
  <speed>0.0</speed>
  <fix>3d</fix>
</trkpt>
<trkpt lat="-27.2744392" lon="151.2900641">
  <ele>343.07</ele>
  <time>2026-09-01T19:51:26Z</time>
  <course>10.87</course>
  <speed>0.022360679774997897</speed>
  <fix>3d</fix>
</trkpt>
<trkpt lat="-27.274439" lon="151.290064">
  <ele>343.1</ele>
  <time>2026-09-01T19:51:26Z</time>
  <course>270.0</course>
  <speed>0.0</speed>
  <fix>3d</fix>
</trkpt>
<trkpt lat="-27.2744392" lon="151.2900641">
  <ele>343.07</ele>
  <time>2026-09-01T19:51:26Z</time>
  <course>10.87</course>
  <speed>0.022360679774997897</speed>
  <fix>3d</fix>
</trkpt>
<trkpt lat="-27.274439" lon="151.290064">
  <ele>343.1</ele>
  <time>2026-09-01T19:51:26Z</time>
  <course>270.0</course>
  <speed>0.0</speed>
  <fix>3d</fix>
</trkpt>
<trkpt lat="-27.2744392" lon="151.2900641">
  <ele>343.07</ele>
  <time>2026-09-01T19:51:26Z</time>
  <course>10.87</course>
  <speed>0.022360679774997897</speed>
  <fix>3d</fix>
</trkpt>
<trkpt lat="-27.274439" lon="151.290064">
  <ele>343.1</ele>
  <time>2026-09-01T19:51:26Z</time>
  <course>270.0</course>
  <speed>0.0</speed>
  <fix>3d</fix>
</trkpt>
<trkpt lat="-27.2744392" lon="151.2900641">
  <ele>343.07</ele>
  <time>2026-09-01T19:51:26Z</time>
  <course>10.87</course>
  <speed>0.022360679774997897</speed>
  <fix>3d</fix>
</trkpt>
<trkpt lat="-27.274439" lon="151.290064">
  <ele>343.1</ele>
  <time>2026-09-01T19:51:26Z</time>
  <course>270.0</course>
  <speed>0.0</speed>
  <fix>3d</fix>
</trkpt>
<trkpt lat="-27.2744392" lon="151.2900641">
  <ele>343.07</ele>
  <time>2026-09-01T19:51:26Z</time>
  <course>10.87</course>
  <speed>0.022360679774997897</speed>
  <fix>3d</fix>
</trkpt>
<trkpt lat="-27.274439" lon="151.290064">
  <ele>343.1</ele>
  <time>2026-09-01T19:51:26Z</time>
  <course>270.0</course>
  <speed>0.0</speed>
  <fix>3d</fix>
</trkpt>
<trkpt lat="-27.2744392" lon="151.2900641">
  <ele>343.07</ele>
  <time>2026-09-01T19:51:26Z</time>
  <course>10.87</course>
  <speed>0.022360679774997897</speed>
  <fix>3d</fix>
</trkpt>
<trkpt lat="-27.274439" lon="151.290064">
  <ele>343.1</ele>
  <time>2026-09-01T19:51:26Z</time>
  <course>270.0</course>
  <speed>0.0</speed>
  <fix>3d</fix>
</trkpt>
<trkpt lat="-27.2744392" lon="151.2900641">
  <ele>343.08</ele>
  <time>2026-09-01T19:51:26Z</time>
  <course>10.87</course>
  <speed>0.022360679774997897</speed>
  <fix>3d</fix>
</trkpt>
<trkpt lat="-27.274439" lon="151.290064">
  <ele>343.1</ele>
  <time>2026-09-01T19:51:26Z</time>
  <course>270.0</course>
  <speed>0.0</speed>
  <fix>3d</fix>
</trkpt>
<trkpt lat="-27.2744392" lon="151.2900641">
  <ele>343.08</ele>
  <time>2026-09-01T19:51:26Z</time>
  <course>10.87</course>
  <speed>0.022360679774997897</speed>
  <fix>3d</fix>
</trkpt>
<trkpt lat="-27.274439" lon="151.290064">
  <ele>343.1</ele>
  <time>2026-09-01T19:51:26Z</time>
  <course>270.0</course>
  <speed>0.0</speed>
  <fix>3d</fix>
</trkpt>
<trkpt lat="-27.2744392" lon="151.2900641">
  <ele>343.08</ele>
  <time>2026-09-01T19:51:26Z</time>
  <course>10.87</course>
  <speed>0.022360679774997897</speed>
  <fix>3d</fix>
</trkpt>
<trkpt lat="-27.274439" lon="151.290064">
  <ele>343.1</ele>
  <time>2026-09-01T19:51:26Z</time>
  <course>270.0</course>
  <speed>0.0</speed>
  <fix>3d</fix>
</trkpt>
<trkpt lat="-27.2744392" lon="151.2900641">
  <ele>343.08</ele>
  <time>2026-09-01T19:51:26Z</time>
  <course>10.88</course>
  <speed>0.022360679774997897</speed>
  <fix>3d</fix>
</trkpt>
<trkpt lat="-27.274439" lon="151.290064">
  <ele>343.1</ele>
  <time>2026-09-01T19:51:26Z</time>
  <course>270.0</course>
  <speed>0.0</speed>
  <fix>3d</fix>
</trkpt>
<trkpt lat="-27.2744392" lon="151.2900641">
  <ele>343.08</ele>
  <time>2026-09-01T19:51:26Z</time>
  <course>10.88</course>
  <speed>0.022360679774997897</speed>
  <fix>3d</fix>
</trkpt>
<trkpt lat="-27.274439" lon="151.290064">
  <ele>343.1</ele>
  <time>2026-09-01T19:51:26Z</time>
  <course>270.0</course>
  <speed>0.0</speed>
  <fix>3d</fix>
</trkpt>
<trkpt lat="-27.2744392" lon="151.2900641">
  <ele>343.08</ele>
  <time>2026-09-01T19:51:26Z</time>
  <course>10.88</course>
  <speed>0.022360679774997897</speed>
  <fix>3d</fix>
</trkpt>
<trkpt lat="-27.274439" lon="151.290064">
  <ele>343.1</ele>
  <time>2026-09-01T19:51:26Z</time>
  <course>270.0</course>
  <speed>0.0</speed>
  <fix>3d</fix>
</trkpt>
<trkpt lat="-27.2744392" lon="151.2900641">
  <ele>343.08</ele>
  <time>2026-09-01T19:51:26Z</time>
  <course>10.88</course>
  <speed>0.022360679774997897</speed>
  <fix>3d</fix>
</trkpt>
<trkpt lat="-27.274439" lon="151.290064">
  <ele>343.1</ele>
  <time>2026-09-01T19:51:26Z</time>
  <course>270.0</course>
  <speed>0.0</speed>
  <fix>3d</fix>
</trkpt>
<trkpt lat="-27.2744392" lon="151.2900641">
  <ele>343.07</ele>
  <time>2026-09-01T19:51:26Z</time>
  <course>10.88</course>
  <speed>0.022360679774997897</speed>
  <fix>3d</fix>
</trkpt>
<trkpt lat="-27.274439" lon="151.290064">
  <ele>343.1</ele>
  <time>2026-09-01T19:51:26Z</time>
  <course>270.0</course>
  <speed>0.0</speed>
  <fix>3d</fix>
</trkpt>
<trkpt lat="-27.2744392" lon="151.2900641">
  <ele>343.07</ele>
  <time>2026-09-01T19:51:26Z</time>
  <course>10.88</course>
  <speed>0.022360679774997897</speed>
  <fix>3d</fix>
</trkpt>
<trkpt lat="-27.274439" lon="151.290064">
  <ele>343.1</ele>
  <time>2026-09-01T19:51:26Z</time>
  <course>270.0</course>
  <speed>0.0</speed>
  <fix>3d</fix>
</trkpt>
<trkpt lat="-27.2744392" lon="151.2900641">
  <ele>343.1</ele>
  <time>2026-09-01T19:51:26Z</time>
  <course>10.88</course>
  <speed>0.022360679774997897</speed>
  <fix>3d</fix>
</trkpt>
<trkpt lat="-27.274439" lon="151.290064">
  <ele>343.1</ele>
  <time>2026-09-01T19:51:26Z</time>
  <course>270.0</course>
  <speed>0.0</speed>
  <fix>3d</fix>
</trkpt>
<trkpt lat="-27.2744392" lon="151.2900641">
  <ele>343.1</ele>
  <time>2026-09-01T19:51:26Z</time>
  <course>10.88</course>
  <speed>0.022360679774997897</speed>
  <fix>3d</fix>
</trkpt>
<trkpt lat="-27.274439" lon="151.290064">
  <ele>343.1</ele>
  <time>2026-09-01T19:51:26Z</time>
  <course>270.0</course>
  <speed>0.0</speed>
  <fix>3d</fix>
</trkpt>
<trkpt lat="-27.2744392" lon="151.2900641">
  <ele>343.09</ele>
  <time>2026-09-01T19:51:26Z</time>
  <course>10.88</course>
  <speed>0.022360679774997897</speed>
  <fix>3d</fix>
</trkpt>
<trkpt lat="-27.274439" lon="151.290064">
  <ele>343.1</ele>
  <time>2026-09-01T19:51:26Z</time>
  <course>270.0</course>
  <speed>0.0</speed>
  <fix>3d</fix>
</trkpt>
<trkpt lat="-27.2744392" lon="151.2900641">
  <ele>343.09</ele>
  <time>2026-09-01T19:51:26Z</time>
  <course>10.88</course>
  <speed>0.022360679774997897</speed>
  <fix>3d</fix>
</trkpt>
<trkpt lat="-27.274439" lon="151.290064">
  <ele>343.1</ele>
  <time>2026-09-01T19:51:26Z</time>
  <course>270.0</course>
  <speed>0.0</speed>
  <fix>3d</fix>
</trkpt>
<trkpt lat="-27.2744392" lon="151.2900641">
  <ele>343.09</ele>
  <time>2026-09-01T19:51:26Z</time>
  <course>10.88</course>
  <speed>0.022360679774997897</speed>
  <fix>3d</fix>
</trkpt>
<trkpt lat="-27.274439" lon="151.290064">
  <ele>343.1</ele>
  <time>2026-09-01T19:51:26Z</time>
  <course>270.0</course>
  <speed>0.0</speed>
  <fix>3d</fix>
</trkpt>
<trkpt lat="-27.2744392" lon="151.2900641">
  <ele>343.09</ele>
  <time>2026-09-01T19:51:26Z</time>
  <course>10.88</course>
  <speed>0.022360679774997897</speed>
  <fix>3d</fix>
</trkpt>
<trkpt lat="-27.274439" lon="151.290064">
  <ele>343.1</ele>
  <time>2026-09-01T19:51:26Z</time>
  <course>270.0</course>
  <speed>0.0</speed>
  <fix>3d</fix>
</trkpt>
<trkpt lat="-27.2744392" lon="151.2900641">
  <ele>343.09</ele>
  <time>2026-09-01T19:51:26Z</time>
  <course>10.89</course>
  <speed>0.022360679774997897</speed>
  <fix>3d</fix>
</trkpt>
<trkpt lat="-27.274439" lon="151.290064">
  <ele>343.1</ele>
  <time>2026-09-01T19:51:26Z</time>
  <course>270.0</course>
  <speed>0.0</speed>
  <fix>3d</fix>
</trkpt>
<trkpt lat="-27.2744392" lon="151.2900641">
  <ele>343.09</ele>
  <time>2026-09-01T19:51:26Z</time>
  <course>10.89</course>
  <speed>0.022360679774997897</speed>
  <fix>3d</fix>
</trkpt>
<trkpt lat="-27.274439" lon="151.290064">
  <ele>343.1</ele>
  <time>2026-09-01T19:51:26Z</time>
  <course>270.0</course>
  <speed>0.0</speed>
  <fix>3d</fix>
</trkpt>
<trkpt lat="-27.2744392" lon="151.2900641">
  <ele>343.09</ele>
  <time>2026-09-01T19:51:26Z</time>
  <course>10.89</course>
  <speed>0.022360679774997897</speed>
  <fix>3d</fix>
</trkpt>
<trkpt lat="-27.274439" lon="151.290064">
  <ele>343.1</ele>
  <time>2026-09-01T19:51:26Z</time>
  <course>270.0</course>
  <speed>0.0</speed>
  <fix>3d</fix>
</trkpt>
<trkpt lat="-27.2744392" lon="151.2900641">
  <ele>343.09</ele>
  <time>2026-09-01T19:51:26Z</time>
  <course>10.89</course>
  <speed>0.022360679774997897</speed>
  <fix>3d</fix>
</trkpt>
<trkpt lat="-27.274439" lon="151.290064">
  <ele>343.1</ele>
  <time>2026-09-01T19:51:26Z</time>
  <course>270.0</course>
  <speed>0.0</speed>
  <fix>3d</fix>
</trkpt>
<trkpt lat="-27.2744392" lon="151.2900641">
  <ele>343.08</ele>
  <time>2026-09-01T19:51:26Z</time>
  <course>10.89</course>
  <speed>0.022360679774997897</speed>
  <fix>3d</fix>
</trkpt>
<trkpt lat="-27.274439" lon="151.290064">
  <ele>343.1</ele>
  <time>2026-09-01T19:51:26Z</time>
  <course>270.0</course>
  <speed>0.0</speed>
  <fix>3d</fix>
</trkpt>
<trkpt lat="-27.2744392" lon="151.2900641">
  <ele>343.08</ele>
  <time>2026-09-01T19:51:26Z</time>
  <course>10.89</course>
  <speed>0.022360679774997897</speed>
  <fix>3d</fix>
</trkpt>
<trkpt lat="-27.274439" lon="151.290064">
  <ele>343.1</ele>
  <time>2026-09-01T19:51:26Z</time>
  <course>270.0</course>
  <speed>0.0</speed>
  <fix>3d</fix>
</trkpt>
<trkpt lat="-27.2744392" lon="151.2900641">
  <ele>343.08</ele>
  <time>2026-09-01T19:51:26Z</time>
  <course>10.89</course>
  <speed>0.022360679774997897</speed>
  <fix>3d</fix>
</trkpt>
<trkpt lat="-27.274439" lon="151.290064">
  <ele>343.1</ele>
  <time>2026-09-01T19:51:26Z</time>
  <course>270.0</course>
  <speed>0.0</speed>
  <fix>3d</fix>
</trkpt>
<trkpt lat="-27.2744392" lon="151.2900641">
  <ele>343.08</ele>
  <time>2026-09-01T19:51:26Z</time>
  <course>10.89</course>
  <speed>0.022360679774997897</speed>
  <fix>3d</fix>
</trkpt>
<trkpt lat="-27.274439" lon="151.290064">
  <ele>343.1</ele>
  <time>2026-09-01T19:51:26Z</time>
  <course>270.0</course>
  <speed>0.0</speed>
  <fix>3d</fix>
</trkpt>
<trkpt lat="-27.2744392" lon="151.2900641">
  <ele>343.08</ele>
  <time>2026-09-01T19:51:26Z</time>
  <course>10.89</course>
  <speed>0.022360679774997897</speed>
  <fix>3d</fix>
</trkpt>
<trkpt lat="-27.274439" lon="151.290064">
  <ele>343.1</ele>
  <time>2026-09-01T19:51:26Z</time>
  <course>270.0</course>
  <speed>0.0</speed>
  <fix>3d</fix>
</trkpt>
<trkpt lat="-27.2744392" lon="151.2900641">
  <ele>343.08</ele>
  <time>2026-09-01T19:51:26Z</time>
  <course>10.89</course>
  <speed>0.022360679774997897</speed>
  <fix>3d</fix>
</trkpt>
<trkpt lat="-27.274439" lon="151.290064">
  <ele>343.1</ele>
  <time>2026-09-01T19:51:26Z</time>
  <course>270.0</course>
  <speed>0.0</speed>
  <fix>3d</fix>
</trkpt>
<trkpt lat="-27.2744392" lon="151.2900641">
  <ele>343.07</ele>
  <time>2026-09-01T19:51:26Z</time>
  <course>10.89</course>
  <speed>0.022360679774997897</speed>
  <fix>3d</fix>
</trkpt>
<trkpt lat="-27.274439" lon="151.290064">
  <ele>343.1</ele>
  <time>2026-09-01T19:51:26Z</time>
  <course>270.0</course>
  <speed>0.0</speed>
  <fix>3d</fix>
</trkpt>
<trkpt lat="-27.2744392" lon="151.2900641">
  <ele>343.07</ele>
  <time>2026-09-01T19:51:26Z</time>
  <course>10.9</course>
  <speed>0.022360679774997897</speed>
  <fix>3d</fix>
</trkpt>
<trkpt lat="-27.274439" lon="151.290064">
  <ele>343.1</ele>
  <time>2026-09-01T19:51:26Z</time>
  <course>270.0</course>
  <speed>0.0</speed>
  <fix>3d</fix>
</trkpt>
<trkpt lat="-27.2744392" lon="151.2900641">
  <ele>343.07</ele>
  <time>2026-09-01T19:51:26Z</time>
  <course>10.9</course>
  <speed>0.022360679774997897</speed>
  <fix>3d</fix>
</trkpt>
<trkpt lat="-27.274439" lon="151.290064">
  <ele>343.1</ele>
  <time>2026-09-01T19:51:26Z</time>
  <course>270.0</course>
  <speed>0.0</speed>
  <fix>3d</fix>
</trkpt>
<trkpt lat="-27.2744392" lon="151.2900641">
  <ele>343.07</ele>
  <time>2026-09-01T19:51:26Z</time>
  <course>10.9</course>
  <speed>0.022360679774997897</speed>
  <fix>3d</fix>
</trkpt>
<trkpt lat="-27.274439" lon="151.290064">
  <ele>343.1</ele>
  <time>2026-09-01T19:51:26Z</time>
  <course>270.0</course>
  <speed>0.0</speed>
  <fix>3d</fix>
</trkpt>
<trkpt lat="-27.2744392" lon="151.2900641">
  <ele>343.07</ele>
  <time>2026-09-01T19:51:26Z</time>
  <course>10.9</course>
  <speed>0.022360679774997897</speed>
  <fix>3d</fix>
</trkpt>
<trkpt lat="-27.274439" lon="151.290064">
  <ele>343.1</ele>
  <time>2026-09-01T19:51:26Z</time>
  <course>270.0</course>
  <speed>0.0</speed>
  <fix>3d</fix>
</trkpt>
<trkpt lat="-27.2744392" lon="151.2900641">
  <ele>343.07</ele>
  <time>2026-09-01T19:51:26Z</time>
  <course>10.9</course>
  <speed>0.022360679774997897</speed>
  <fix>3d</fix>
</trkpt>
<trkpt lat="-27.274439" lon="151.290064">
  <ele>343.1</ele>
  <time>2026-09-01T19:51:26Z</time>
  <course>270.0</course>
  <speed>0.0</speed>
  <fix>3d</fix>
</trkpt>
<trkpt lat="-27.2744392" lon="151.2900641">
  <ele>343.07</ele>
  <time>2026-09-01T19:51:26Z</time>
  <course>10.9</course>
  <speed>0.022360679774997897</speed>
  <fix>3d</fix>
</trkpt>
<trkpt lat="-27.274439" lon="151.290064">
  <ele>343.1</ele>
  <time>2026-09-01T19:51:26Z</time>
  <course>270.0</course>
  <speed>0.0</speed>
  <fix>3d</fix>
</trkpt>
<trkpt lat="-27.2744392" lon="151.2900641">
  <ele>343.07</ele>
  <time>2026-09-01T19:51:26Z</time>
  <course>10.9</course>
  <speed>0.022360679774997897</speed>
  <fix>3d</fix>
</trkpt>
<trkpt lat="-27.274439" lon="151.290064">
  <ele>343.1</ele>
  <time>2026-09-01T19:51:26Z</time>
  <course>270.0</course>
  <speed>0.0</speed>
  <fix>3d</fix>
</trkpt>
<trkpt lat="-27.2744392" lon="151.2900641">
  <ele>343.07</ele>
  <time>2026-09-01T19:51:26Z</time>
  <course>10.9</course>
  <speed>0.022360679774997897</speed>
  <fix>3d</fix>
</trkpt>
<trkpt lat="-27.274439" lon="151.290064">
  <ele>343.1</ele>
  <time>2026-09-01T19:51:26Z</time>
  <course>270.0</course>
  <speed>0.0</speed>
  <fix>3d</fix>
</trkpt>
<trkpt lat="-27.2744392" lon="151.2900641">
  <ele>343.07</ele>
  <time>2026-09-01T19:51:26Z</time>
  <course>10.9</course>
  <speed>0.022360679774997897</speed>
  <fix>3d</fix>
</trkpt>
<trkpt lat="-27.274439" lon="151.290064">
  <ele>343.1</ele>
  <time>2026-09-01T19:51:26Z</time>
  <course>270.0</course>
  <speed>0.0</speed>
  <fix>3d</fix>
</trkpt>
<trkpt lat="-27.2744392" lon="151.2900641">
  <ele>343.06</ele>
  <time>2026-09-01T19:51:26Z</time>
  <course>10.9</course>
  <speed>0.022360679774997897</speed>
  <fix>3d</fix>
</trkpt>
<trkpt lat="-27.274439" lon="151.290064">
  <ele>343.1</ele>
  <time>2026-09-01T19:51:26Z</time>
  <course>270.0</course>
  <speed>0.0</speed>
  <fix>3d</fix>
</trkpt>
<trkpt lat="-27.2744392" lon="151.2900641">
  <ele>343.06</ele>
  <time>2026-09-01T19:51:26Z</time>
  <course>10.9</course>
  <speed>0.022360679774997897</speed>
  <fix>3d</fix>
</trkpt>
<trkpt lat="-27.274439" lon="151.290064">
  <ele>343.1</ele>
  <time>2026-09-01T19:51:26Z</time>
  <course>270.0</course>
  <speed>0.0</speed>
  <fix>3d</fix>
</trkpt>
<trkpt lat="-27.2744392" lon="151.2900641">
  <ele>343.06</ele>
  <time>2026-09-01T19:51:26Z</time>
  <course>10.91</course>
  <speed>0.022360679774997897</speed>
  <fix>3d</fix>
</trkpt>
<trkpt lat="-27.274439" lon="151.290064">
  <ele>343.1</ele>
  <time>2026-09-01T19:51:26Z</time>
  <course>270.0</course>
  <speed>0.0</speed>
  <fix>3d</fix>
</trkpt>
<trkpt lat="-27.2744392" lon="151.2900641">
  <ele>343.06</ele>
  <time>2026-09-01T19:51:26Z</time>
  <course>10.91</course>
  <speed>0.022360679774997897</speed>
  <fix>3d</fix>
</trkpt>
<trkpt lat="-27.274439" lon="151.290064">
  <ele>343.1</ele>
  <time>2026-09-01T19:51:26Z</time>
  <course>270.0</course>
  <speed>0.0</speed>
  <fix>3d</fix>
</trkpt>
<trkpt lat="-27.2744392" lon="151.2900641">
  <ele>343.06</ele>
  <time>2026-09-01T19:51:26Z</time>
  <course>10.91</course>
  <speed>0.022360679774997897</speed>
  <fix>3d</fix>
</trkpt>
<trkpt lat="-27.274439" lon="151.290064">
  <ele>343.1</ele>
  <time>2026-09-01T19:51:26Z</time>
  <course>270.0</course>
  <speed>0.0</speed>
  <fix>3d</fix>
</trkpt>
<trkpt lat="-27.2744392" lon="151.2900641">
  <ele>343.06</ele>
  <time>2026-09-01T19:51:26Z</time>
  <course>10.91</course>
  <speed>0.022360679774997897</speed>
  <fix>3d</fix>
</trkpt>
<trkpt lat="-27.274439" lon="151.290064">
  <ele>343.1</ele>
  <time>2026-09-01T19:51:26Z</time>
  <course>270.0</course>
  <speed>0.0</speed>
  <fix>3d</fix>
</trkpt>
<trkpt lat="-27.2744392" lon="151.2900641">
  <ele>343.06</ele>
  <time>2026-09-01T19:51:26Z</time>
  <course>10.91</course>
  <speed>0.022360679774997897</speed>
  <fix>3d</fix>
</trkpt>
<trkpt lat="-27.274439" lon="151.290064">
  <ele>343.1</ele>
  <time>2026-09-01T19:51:26Z</time>
  <course>270.0</course>
  <speed>0.0</speed>
  <fix>3d</fix>
</trkpt>
<trkpt lat="-27.2744392" lon="151.2900641">
  <ele>343.05</ele>
  <time>2026-09-01T19:51:26Z</time>
  <course>10.91</course>
  <speed>0.022360679774997897</speed>
  <fix>3d</fix>
</trkpt>
<trkpt lat="-27.274439" lon="151.290064">
  <ele>343.1</ele>
  <time>2026-09-01T19:51:26Z</time>
  <course>270.0</course>
  <speed>0.0</speed>
  <fix>3d</fix>
</trkpt>
<trkpt lat="-27.2744392" lon="151.2900641">
  <ele>343.05</ele>
  <time>2026-09-01T19:51:26Z</time>
  <course>10.91</course>
  <speed>0.022360679774997897</speed>
  <fix>3d</fix>
</trkpt>
<trkpt lat="-27.274439" lon="151.290064">
  <ele>343.1</ele>
  <time>2026-09-01T19:51:26Z</time>
  <course>270.0</course>
  <speed>0.0</speed>
  <fix>3d</fix>
</trkpt>
<trkpt lat="-27.2744392" lon="151.2900641">
  <ele>343.05</ele>
  <time>2026-09-01T19:51:26Z</time>
  <course>10.91</course>
  <speed>0.022360679774997897</speed>
  <fix>3d</fix>
</trkpt>
<trkpt lat="-27.274439" lon="151.290064">
  <ele>343.1</ele>
  <time>2026-09-01T19:51:26Z</time>
  <course>270.0</course>
  <speed>0.0</speed>
  <fix>3d</fix>
</trkpt>
<trkpt lat="-27.2744392" lon="151.2900641">
  <ele>343.05</ele>
  <time>2026-09-01T19:51:26Z</time>
  <course>10.91</course>
  <speed>0.022360679774997897</speed>
  <fix>3d</fix>
</trkpt>
<trkpt lat="-27.274439" lon="151.290064">
  <ele>343.1</ele>
  <time>2026-09-01T19:51:26Z</time>
  <course>270.0</course>
  <speed>0.0</speed>
  <fix>3d</fix>
</trkpt>
<trkpt lat="-27.2744392" lon="151.2900641">
  <ele>343.05</ele>
  <time>2026-09-01T19:51:26Z</time>
  <course>10.91</course>
  <speed>0.022360679774997897</speed>
  <fix>3d</fix>
</trkpt>
<trkpt lat="-27.274439" lon="151.290064">
  <ele>343.1</ele>
  <time>2026-09-01T19:51:26Z</time>
  <course>270.0</course>
  <speed>0.0</speed>
  <fix>3d</fix>
</trkpt>
<trkpt lat="-27.2744392" lon="151.2900641">
  <ele>343.05</ele>
  <time>2026-09-01T19:51:26Z</time>
  <course>10.92</course>
  <speed>0.022360679774997897</speed>
  <fix>3d</fix>
</trkpt>
<trkpt lat="-27.274439" lon="151.290064">
  <ele>343.1</ele>
  <time>2026-09-01T19:51:26Z</time>
  <course>270.0</course>
  <speed>0.0</speed>
  <fix>3d</fix>
</trkpt>
<trkpt lat="-27.2744392" lon="151.2900641">
  <ele>343.05</ele>
  <time>2026-09-01T19:51:26Z</time>
  <course>10.92</course>
  <speed>0.022360679774997897</speed>
  <fix>3d</fix>
</trkpt>
<trkpt lat="-27.274439" lon="151.290064">
  <ele>343.1</ele>
  <time>2026-09-01T19:51:26Z</time>
  <course>270.0</course>
  <speed>0.0</speed>
  <fix>3d</fix>
</trkpt>
<trkpt lat="-27.2744392" lon="151.2900641">
  <ele>343.05</ele>
  <time>2026-09-01T19:51:26Z</time>
  <course>10.92</course>
  <speed>0.022360679774997897</speed>
  <fix>3d</fix>
</trkpt>
<trkpt lat="-27.274439" lon="151.290064">
  <ele>343.1</ele>
  <time>2026-09-01T19:51:26Z</time>
  <course>270.0</course>
  <speed>0.0</speed>
  <fix>3d</fix>
</trkpt>
<trkpt lat="-27.2744392" lon="151.2900641">
  <ele>343.04</ele>
  <time>2026-09-01T19:51:26Z</time>
  <course>10.92</course>
  <speed>0.022360679774997897</speed>
  <fix>3d</fix>
</trkpt>
<trkpt lat="-27.274439" lon="151.290064">
  <ele>343.1</ele>
  <time>2026-09-01T19:51:26Z</time>
  <course>270.0</course>
  <speed>0.0</speed>
  <fix>3d</fix>
</trkpt>
<trkpt lat="-27.2744392" lon="151.2900641">
  <ele>343.04</ele>
  <time>2026-09-01T19:51:26Z</time>
  <course>10.92</course>
  <speed>0.022360679774997897</speed>
  <fix>3d</fix>
</trkpt>
<trkpt lat="-27.274439" lon="151.290064">
  <ele>343.1</ele>
  <time>2026-09-01T19:51:26Z</time>
  <course>270.0</course>
  <speed>0.0</speed>
  <fix>3d</fix>
</trkpt>
<trkpt lat="-27.2744392" lon="151.2900641">
  <ele>343.04</ele>
  <time>2026-09-01T19:51:26Z</time>
  <course>10.92</course>
  <speed>0.022360679774997897</speed>
  <fix>3d</fix>
</trkpt>
<trkpt lat="-27.274439" lon="151.290064">
  <ele>343.1</ele>
  <time>2026-09-01T19:51:26Z</time>
  <course>270.0</course>
  <speed>0.0</speed>
  <fix>3d</fix>
</trkpt>
<trkpt lat="-27.2744392" lon="151.2900641">
  <ele>343.04</ele>
  <time>2026-09-01T19:51:26Z</time>
  <course>10.92</course>
  <speed>0.022360679774997897</speed>
  <fix>3d</fix>
</trkpt>
<trkpt lat="-27.274439" lon="151.290064">
  <ele>343.1</ele>
  <time>2026-09-01T19:51:26Z</time>
  <course>270.0</course>
  <speed>0.0</speed>
  <fix>3d</fix>
</trkpt>
<trkpt lat="-27.2744392" lon="151.2900641">
  <ele>343.04</ele>
  <time>2026-09-01T19:51:26Z</time>
  <course>10.92</course>
  <speed>0.022360679774997897</speed>
  <fix>3d</fix>
</trkpt>
<trkpt lat="-27.274439" lon="151.290064">
  <ele>343.1</ele>
  <time>2026-09-01T19:51:26Z</time>
  <course>270.0</course>
  <speed>0.0</speed>
  <fix>3d</fix>
</trkpt>
<trkpt lat="-27.2744392" lon="151.2900641">
  <ele>343.04</ele>
  <time>2026-09-01T19:51:26Z</time>
  <course>10.92</course>
  <speed>0.022360679774997897</speed>
  <fix>3d</fix>
</trkpt>
<trkpt lat="-27.274439" lon="151.290064">
  <ele>343.1</ele>
  <time>2026-09-01T19:51:26Z</time>
  <course>270.0</course>
  <speed>0.0</speed>
  <fix>3d</fix>
</trkpt>
<trkpt lat="-27.2744392" lon="151.2900641">
  <ele>343.04</ele>
  <time>2026-09-01T19:51:26Z</time>
  <course>10.92</course>
  <speed>0.022360679774997897</speed>
  <fix>3d</fix>
</trkpt>
<trkpt lat="-27.274439" lon="151.290064">
  <ele>343.1</ele>
  <time>2026-09-01T19:51:26Z</time>
  <course>270.0</course>
  <speed>0.0</speed>
  <fix>3d</fix>
</trkpt>
<trkpt lat="-27.2744392" lon="151.2900641">
  <ele>343.04</ele>
  <time>2026-09-01T19:51:26Z</time>
  <course>10.93</course>
  <speed>0.022360679774997897</speed>
  <fix>3d</fix>
</trkpt>
<trkpt lat="-27.274439" lon="151.290064">
  <ele>343.1</ele>
  <time>2026-09-01T19:51:26Z</time>
  <course>270.0</course>
  <speed>0.0</speed>
  <fix>3d</fix>
</trkpt>
<trkpt lat="-27.2744392" lon="151.2900641">
  <ele>343.04</ele>
  <time>2026-09-01T19:51:26Z</time>
  <course>10.93</course>
  <speed>0.022360679774997897</speed>
  <fix>3d</fix>
</trkpt>
<trkpt lat="-27.274439" lon="151.290064">
  <ele>343.1</ele>
  <time>2026-09-01T19:51:26Z</time>
  <course>270.0</course>
  <speed>0.0</speed>
  <fix>3d</fix>
</trkpt>
<trkpt lat="-27.2744392" lon="151.2900641">
  <ele>343.04</ele>
  <time>2026-09-01T19:51:26Z</time>
  <course>10.93</course>
  <speed>0.022360679774997897</speed>
  <fix>3d</fix>
</trkpt>
<trkpt lat="-27.274439" lon="151.290064">
  <ele>343.1</ele>
  <time>2026-09-01T19:51:26Z</time>
  <course>270.0</course>
  <speed>0.0</speed>
  <fix>3d</fix>
</trkpt>
<trkpt lat="-27.2744392" lon="151.2900641">
  <ele>343.04</ele>
  <time>2026-09-01T19:51:26Z</time>
  <course>10.93</course>
  <speed>0.022360679774997897</speed>
  <fix>3d</fix>
</trkpt>
<trkpt lat="-27.274439" lon="151.290064">
  <ele>343.1</ele>
  <time>2026-09-01T19:51:26Z</time>
  <course>270.0</course>
  <speed>0.0</speed>
  <fix>3d</fix>
</trkpt>
<trkpt lat="-27.2744392" lon="151.2900641">
  <ele>343.04</ele>
  <time>2026-09-01T19:51:26Z</time>
  <course>10.93</course>
  <speed>0.022360679774997897</speed>
  <fix>3d</fix>
</trkpt>
<trkpt lat="-27.274439" lon="151.290064">
  <ele>343.1</ele>
  <time>2026-09-01T19:51:26Z</time>
  <course>270.0</course>
  <speed>0.0</speed>
  <fix>3d</fix>
</trkpt>
<trkpt lat="-27.2744392" lon="151.2900641">
  <ele>343.04</ele>
  <time>2026-09-01T19:51:26Z</time>
  <course>10.93</course>
  <speed>0.022360679774997897</speed>
  <fix>3d</fix>
</trkpt>
<trkpt lat="-27.274439" lon="151.290064">
  <ele>343.1</ele>
  <time>2026-09-01T19:51:26Z</time>
  <course>270.0</course>
  <speed>0.0</speed>
  <fix>3d</fix>
</trkpt>
<trkpt lat="-27.2744392" lon="151.2900641">
  <ele>343.04</ele>
  <time>2026-09-01T19:51:26Z</time>
  <course>10.93</course>
  <speed>0.022360679774997897</speed>
  <fix>3d</fix>
</trkpt>
<trkpt lat="-27.274439" lon="151.290064">
  <ele>343.1</ele>
  <time>2026-09-01T19:51:26Z</time>
  <course>270.0</course>
  <speed>0.0</speed>
  <fix>3d</fix>
</trkpt>
<trkpt lat="-27.2744392" lon="151.2900641">
  <ele>343.04</ele>
  <time>2026-09-01T19:51:26Z</time>
  <course>10.93</course>
  <speed>0.022360679774997897</speed>
  <fix>3d</fix>
</trkpt>
<trkpt lat="-27.274439" lon="151.290064">
  <ele>343.1</ele>
  <time>2026-09-01T19:51:26Z</time>
  <course>270.0</course>
  <speed>0.0</speed>
  <fix>3d</fix>
</trkpt>
<trkpt lat="-27.2744392" lon="151.2900641">
  <ele>343.04</ele>
  <time>2026-09-01T19:51:26Z</time>
  <course>10.93</course>
  <speed>0.022360679774997897</speed>
  <fix>3d</fix>
</trkpt>
<trkpt lat="-27.274439" lon="151.290064">
  <ele>343.1</ele>
  <time>2026-09-01T19:51:26Z</time>
  <course>270.0</course>
  <speed>0.0</speed>
  <fix>3d</fix>
</trkpt>
<trkpt lat="-26.9720619" lon="149.6127921">
  <ele>339.29</ele>
  <time>2026-09-01T19:51:27Z</time>
  <course>310.27</course>
  <speed>0.0</speed>
  <fix>3d</fix>
</trkpt>
<trkpt lat="-26.9720619" lon="149.6127921">
  <ele>339.29</ele>
  <time>2026-09-01T19:51:27Z</time>
  <course>310.27</course>
  <speed>0.0</speed>
  <fix>3d</fix>
</trkpt>
<trkpt lat="-27.274439" lon="151.290064">
  <ele>-0.01</ele>
  <time>2026-09-01T19:51:27Z</time>
  <course>0.22</course>
  <speed>0.0</speed>
  <fix>3d</fix>
</trkpt>
<trkpt lat="-27.274439" lon="151.290064">
  <ele>343.1</ele>
  <time>2026-09-01T19:51:27Z</time>
  <course>294.58</course>
  <speed>0.0</speed>
  <fix>3d</fix>
</trkpt>
<trkpt lat="-27.274439" lon="151.290064">
  <ele>0.02</ele>
  <time>2026-09-01T19:51:27Z</time>
  <course>1.2</course>
  <speed>0.0</speed>
  <fix>3d</fix>
</trkpt>
<trkpt lat="-27.274439" lon="151.290064">
  <ele>343.1</ele>
  <time>2026-09-01T19:51:27Z</time>
  <course>294.58</course>
  <speed>0.0</speed>
  <fix>3d</fix>
</trkpt>
<trkpt lat="-27.274439" lon="151.290064">
  <ele>-0.08</ele>
  <time>2026-09-01T19:51:27Z</time>
  <course>2.1</course>
  <speed>0.0</speed>
  <fix>3d</fix>
</trkpt>
<trkpt lat="-27.274439" lon="151.290064">
  <ele>343.1</ele>
  <time>2026-09-01T19:51:27Z</time>
  <course>273.33</course>
  <speed>0.0</speed>
  <fix>3d</fix>
</trkpt>
<trkpt lat="-27.274439" lon="151.290064">
  <ele>0.22</ele>
  <time>2026-09-01T19:51:27Z</time>
  <course>2.92</course>
  <speed>0.0</speed>
  <fix>3d</fix>
</trkpt>
<trkpt lat="-27.274439" lon="151.290064">
  <ele>343.1</ele>
  <time>2026-09-01T19:51:27Z</time>
  <course>273.33</course>
  <speed>0.0</speed>
  <fix>3d</fix>
</trkpt>
<trkpt lat="-27.274439" lon="151.290064">
  <ele>0.09</ele>
  <time>2026-09-01T19:51:27Z</time>
  <course>3.66</course>
  <speed>0.0</speed>
  <fix>3d</fix>
</trkpt>
<trkpt lat="-27.274439" lon="151.290064">
  <ele>343.1</ele>
  <time>2026-09-01T19:51:27Z</time>
  <course>270.44</course>
  <speed>0.0</speed>
  <fix>3d</fix>
</trkpt>
<trkpt lat="-27.274439" lon="151.290064">
  <ele>0.08</ele>
  <time>2026-09-01T19:51:27Z</time>
  <course>4.34</course>
  <speed>0.0</speed>
  <fix>3d</fix>
</trkpt>
<trkpt lat="-27.274439" lon="151.290064">
  <ele>343.1</ele>
  <time>2026-09-01T19:51:27Z</time>
  <course>270.44</course>
  <speed>0.0</speed>
  <fix>3d</fix>
</trkpt>
<trkpt lat="-27.274439" lon="151.290064">
  <ele>0.09</ele>
  <time>2026-09-01T19:51:27Z</time>
  <course>4.95</course>
  <speed>0.0</speed>
  <fix>3d</fix>
</trkpt>
<trkpt lat="-27.274439" lon="151.290064">
  <ele>343.1</ele>
  <time>2026-09-01T19:51:27Z</time>
  <course>270.05</course>
  <speed>0.0</speed>
  <fix>3d</fix>
</trkpt>
<trkpt lat="-27.274439" lon="151.290064">
  <ele>-0.05</ele>
  <time>2026-09-01T19:51:27Z</time>
  <course>5.5</course>
  <speed>0.0</speed>
  <fix>3d</fix>
</trkpt>
<trkpt lat="-27.274439" lon="151.290064">
  <ele>343.1</ele>
  <time>2026-09-01T19:51:27Z</time>
  <course>270.05</course>
  <speed>0.0</speed>
  <fix>3d</fix>
</trkpt>
<trkpt lat="-27.274439" lon="151.290064">
  <ele>343.06</ele>
  <time>2026-09-01T19:51:27Z</time>
  <course>5.98</course>
  <speed>0.0</speed>
  <fix>3d</fix>
</trkpt>
<trkpt lat="-27.274439" lon="151.290064">
  <ele>343.1</ele>
  <time>2026-09-01T19:51:27Z</time>
  <course>270.0</course>
  <speed>0.0</speed>
  <fix>3d</fix>
</trkpt>
<trkpt lat="-27.274439" lon="151.290064">
  <ele>343.18</ele>
  <time>2026-09-01T19:51:27Z</time>
  <course>6.44</course>
  <speed>0.0</speed>
  <fix>3d</fix>
</trkpt>
<trkpt lat="-27.274439" lon="151.290064">
  <ele>343.1</ele>
  <time>2026-09-01T19:51:27Z</time>
  <course>270.0</course>
  <speed>0.0</speed>
  <fix>3d</fix>
</trkpt>
<trkpt lat="-27.274439" lon="151.290064">
  <ele>342.91</ele>
  <time>2026-09-01T19:51:27Z</time>
  <course>6.85</course>
  <speed>0.0</speed>
  <fix>3d</fix>
</trkpt>
<trkpt lat="-27.274439" lon="151.290064">
  <ele>343.1</ele>
  <time>2026-09-01T19:51:27Z</time>
  <course>270.0</course>
  <speed>0.0</speed>
  <fix>3d</fix>
</trkpt>
<trkpt lat="-27.274439" lon="151.290064">
  <ele>343.06</ele>
  <time>2026-09-01T19:51:27Z</time>
  <course>7.22</course>
  <speed>0.0</speed>
  <fix>3d</fix>
</trkpt>
<trkpt lat="-27.274439" lon="151.290064">
  <ele>343.1</ele>
  <time>2026-09-01T19:51:27Z</time>
  <course>270.0</course>
  <speed>0.0</speed>
  <fix>3d</fix>
</trkpt>
<trkpt lat="-27.274439" lon="151.290064">
  <ele>343.13</ele>
  <time>2026-09-01T19:51:27Z</time>
  <course>7.56</course>
  <speed>0.0</speed>
  <fix>3d</fix>
</trkpt>
<trkpt lat="-27.274439" lon="151.290064">
  <ele>343.1</ele>
  <time>2026-09-01T19:51:27Z</time>
  <course>270.0</course>
  <speed>0.0</speed>
  <fix>3d</fix>
</trkpt>
<trkpt lat="-27.274439" lon="151.290064">
  <ele>343.04</ele>
  <time>2026-09-01T19:51:27Z</time>
  <course>7.87</course>
  <speed>0.0</speed>
  <fix>3d</fix>
</trkpt>
<trkpt lat="-27.274439" lon="151.290064">
  <ele>343.1</ele>
  <time>2026-09-01T19:51:27Z</time>
  <course>270.0</course>
  <speed>0.0</speed>
  <fix>3d</fix>
</trkpt>
<trkpt lat="-27.274439" lon="151.290064">
  <ele>342.88</ele>
  <time>2026-09-01T19:51:27Z</time>
  <course>8.14</course>
  <speed>0.0</speed>
  <fix>3d</fix>
</trkpt>
<trkpt lat="-27.274439" lon="151.290064">
  <ele>343.1</ele>
  <time>2026-09-01T19:51:27Z</time>
  <course>270.0</course>
  <speed>0.0</speed>
  <fix>3d</fix>
</trkpt>
<trkpt lat="-27.274439" lon="151.290064">
  <ele>343.02</ele>
  <time>2026-09-01T19:51:27Z</time>
  <course>8.39</course>
  <speed>0.0</speed>
  <fix>3d</fix>
</trkpt>
<trkpt lat="-27.274439" lon="151.290064">
  <ele>343.1</ele>
  <time>2026-09-01T19:51:27Z</time>
  <course>270.0</course>
  <speed>0.0</speed>
  <fix>3d</fix>
</trkpt>
<trkpt lat="-27.274439" lon="151.290064">
  <ele>343.23</ele>
  <time>2026-09-01T19:51:27Z</time>
  <course>8.63</course>
  <speed>0.0</speed>
  <fix>3d</fix>
</trkpt>
<trkpt lat="-27.274439" lon="151.290064">
  <ele>343.1</ele>
  <time>2026-09-01T19:51:27Z</time>
  <course>270.0</course>
  <speed>0.0</speed>
  <fix>3d</fix>
</trkpt>
<trkpt lat="-27.274439" lon="151.290064">
  <ele>343.17</ele>
  <time>2026-09-01T19:51:27Z</time>
  <course>8.83</course>
  <speed>0.0</speed>
  <fix>3d</fix>
</trkpt>
<trkpt lat="-27.274439" lon="151.290064">
  <ele>343.1</ele>
  <time>2026-09-01T19:51:27Z</time>
  <course>270.0</course>
  <speed>0.0</speed>
  <fix>3d</fix>
</trkpt>
<trkpt lat="-27.274439" lon="151.290064">
  <ele>343.04</ele>
  <time>2026-09-01T19:51:27Z</time>
  <course>9.01</course>
  <speed>0.0</speed>
  <fix>3d</fix>
</trkpt>
<trkpt lat="-27.274439" lon="151.290064">
  <ele>343.1</ele>
  <time>2026-09-01T19:51:27Z</time>
  <course>270.0</course>
  <speed>0.0</speed>
  <fix>3d</fix>
</trkpt>
<trkpt lat="-27.274439" lon="151.290064">
  <ele>342.89</ele>
  <time>2026-09-01T19:51:27Z</time>
  <course>9.18</course>
  <speed>0.0</speed>
  <fix>3d</fix>
</trkpt>
<trkpt lat="-27.274439" lon="151.290064">
  <ele>343.1</ele>
  <time>2026-09-01T19:51:27Z</time>
  <course>270.0</course>
  <speed>0.0</speed>
  <fix>3d</fix>
</trkpt>
<trkpt lat="-27.274439" lon="151.290064">
  <ele>343.08</ele>
  <time>2026-09-01T19:51:27Z</time>
  <course>9.33</course>
  <speed>0.0</speed>
  <fix>3d</fix>
</trkpt>
<trkpt lat="-27.274439" lon="151.290064">
  <ele>343.1</ele>
  <time>2026-09-01T19:51:27Z</time>
  <course>270.0</course>
  <speed>0.0</speed>
  <fix>3d</fix>
</trkpt>
<trkpt lat="-27.274439" lon="151.290064">
  <ele>343.19</ele>
  <time>2026-09-01T19:51:27Z</time>
  <course>9.47</course>
  <speed>0.0</speed>
  <fix>3d</fix>
</trkpt>
<trkpt lat="-27.274439" lon="151.290064">
  <ele>343.1</ele>
  <time>2026-09-01T19:51:27Z</time>
  <course>270.0</course>
  <speed>0.0</speed>
  <fix>3d</fix>
</trkpt>
<trkpt lat="-27.274439" lon="151.290064">
  <ele>342.88</ele>
  <time>2026-09-01T19:51:27Z</time>
  <course>9.59</course>
  <speed>0.0</speed>
  <fix>3d</fix>
</trkpt>
<trkpt lat="-27.274439" lon="151.290064">
  <ele>343.1</ele>
  <time>2026-09-01T19:51:27Z</time>
  <course>270.0</course>
  <speed>0.0</speed>
  <fix>3d</fix>
</trkpt>
<trkpt lat="-27.274439" lon="151.290064">
  <ele>343.17</ele>
  <time>2026-09-01T19:51:27Z</time>
  <course>9.7</course>
  <speed>0.0</speed>
  <fix>3d</fix>
</trkpt>
<trkpt lat="-27.274439" lon="151.290064">
  <ele>343.1</ele>
  <time>2026-09-01T19:51:27Z</time>
  <course>270.0</course>
  <speed>0.0</speed>
  <fix>3d</fix>
</trkpt>
<trkpt lat="-27.274439" lon="151.290064">
  <ele>342.89</ele>
  <time>2026-09-01T19:51:27Z</time>
  <course>9.8</course>
  <speed>0.0</speed>
  <fix>3d</fix>
</trkpt>
<trkpt lat="-27.274439" lon="151.290064">
  <ele>343.1</ele>
  <time>2026-09-01T19:51:27Z</time>
  <course>270.0</course>
  <speed>0.0</speed>
  <fix>3d</fix>
</trkpt>
<trkpt lat="-27.274439" lon="151.290064">
  <ele>342.99</ele>
  <time>2026-09-01T19:51:27Z</time>
  <course>9.9</course>
  <speed>0.0</speed>
  <fix>3d</fix>
</trkpt>
<trkpt lat="-27.274439" lon="151.290064">
  <ele>343.1</ele>
  <time>2026-09-01T19:51:27Z</time>
  <course>270.0</course>
  <speed>0.0</speed>
  <fix>3d</fix>
</trkpt>
<trkpt lat="-27.274439" lon="151.290064">
  <ele>342.87</ele>
  <time>2026-09-01T19:51:27Z</time>
  <course>9.98</course>
  <speed>0.0</speed>
  <fix>3d</fix>
</trkpt>
<trkpt lat="-27.274439" lon="151.290064">
  <ele>343.1</ele>
  <time>2026-09-01T19:51:27Z</time>
  <course>270.0</course>
  <speed>0.0</speed>
  <fix>3d</fix>
</trkpt>
<trkpt lat="-27.274439" lon="151.290064">
  <ele>343.09</ele>
  <time>2026-09-01T19:51:27Z</time>
  <course>10.06</course>
  <speed>0.0</speed>
  <fix>3d</fix>
</trkpt>
<trkpt lat="-27.274439" lon="151.290064">
  <ele>343.1</ele>
  <time>2026-09-01T19:51:27Z</time>
  <course>270.0</course>
  <speed>0.0</speed>
  <fix>3d</fix>
</trkpt>
<trkpt lat="-27.274439" lon="151.290064">
  <ele>343.18</ele>
  <time>2026-09-01T19:51:27Z</time>
  <course>10.13</course>
  <speed>0.0</speed>
  <fix>3d</fix>
</trkpt>
<trkpt lat="-27.274439" lon="151.290064">
  <ele>343.1</ele>
  <time>2026-09-01T19:51:27Z</time>
  <course>270.0</course>
  <speed>0.0</speed>
  <fix>3d</fix>
</trkpt>
<trkpt lat="-27.274439" lon="151.290064">
  <ele>343.05</ele>
  <time>2026-09-01T19:51:27Z</time>
  <course>10.2</course>
  <speed>0.0</speed>
  <fix>3d</fix>
</trkpt>
<trkpt lat="-27.274439" lon="151.290064">
  <ele>343.1</ele>
  <time>2026-09-01T19:51:27Z</time>
  <course>270.0</course>
  <speed>0.0</speed>
  <fix>3d</fix>
</trkpt>
<trkpt lat="-27.274439" lon="151.290064">
  <ele>342.96</ele>
  <time>2026-09-01T19:51:27Z</time>
  <course>10.25</course>
  <speed>0.0</speed>
  <fix>3d</fix>
</trkpt>
<trkpt lat="-27.274439" lon="151.290064">
  <ele>343.1</ele>
  <time>2026-09-01T19:51:27Z</time>
  <course>270.0</course>
  <speed>0.0</speed>
  <fix>3d</fix>
</trkpt>
<trkpt lat="-27.274439" lon="151.290064">
  <ele>343.1</ele>
  <time>2026-09-01T19:51:27Z</time>
  <course>10.31</course>
  <speed>0.0</speed>
  <fix>3d</fix>
</trkpt>
<trkpt lat="-27.274439" lon="151.290064">
  <ele>343.1</ele>
  <time>2026-09-01T19:51:27Z</time>
  <course>270.0</course>
  <speed>0.0</speed>
  <fix>3d</fix>
</trkpt>
<trkpt lat="-27.274439" lon="151.290064">
  <ele>343.22</ele>
  <time>2026-09-01T19:51:27Z</time>
  <course>10.35</course>
  <speed>0.0</speed>
  <fix>3d</fix>
</trkpt>
<trkpt lat="-27.274439" lon="151.290064">
  <ele>343.1</ele>
  <time>2026-09-01T19:51:27Z</time>
  <course>270.0</course>
  <speed>0.0</speed>
  <fix>3d</fix>
</trkpt>
<trkpt lat="-27.274439" lon="151.290064">
  <ele>343.17</ele>
  <time>2026-09-01T19:51:27Z</time>
  <course>10.4</course>
  <speed>0.0</speed>
  <fix>3d</fix>
</trkpt>
<trkpt lat="-27.274439" lon="151.290064">
  <ele>343.1</ele>
  <time>2026-09-01T19:51:27Z</time>
  <course>270.0</course>
  <speed>0.0</speed>
  <fix>3d</fix>
</trkpt>
<trkpt lat="-27.274439" lon="151.290064">
  <ele>343.08</ele>
  <time>2026-09-01T19:51:27Z</time>
  <course>10.44</course>
  <speed>0.0</speed>
  <fix>3d</fix>
</trkpt>
<trkpt lat="-27.274439" lon="151.290064">
  <ele>343.1</ele>
  <time>2026-09-01T19:51:27Z</time>
  <course>270.0</course>
  <speed>0.0</speed>
  <fix>3d</fix>
</trkpt>
<trkpt lat="-27.274439" lon="151.290064">
  <ele>343.04</ele>
  <time>2026-09-01T19:51:27Z</time>
  <course>10.47</course>
  <speed>0.0</speed>
  <fix>3d</fix>
</trkpt>
<trkpt lat="-27.274439" lon="151.290064">
  <ele>343.1</ele>
  <time>2026-09-01T19:51:27Z</time>
  <course>270.0</course>
  <speed>0.0</speed>
  <fix>3d</fix>
</trkpt>
<trkpt lat="-27.274439" lon="151.290064">
  <ele>343.18</ele>
  <time>2026-09-01T19:51:27Z</time>
  <course>10.5</course>
  <speed>0.0</speed>
  <fix>3d</fix>
</trkpt>
<trkpt lat="-27.274439" lon="151.290064">
  <ele>343.1</ele>
  <time>2026-09-01T19:51:27Z</time>
  <course>270.0</course>
  <speed>0.0</speed>
  <fix>3d</fix>
</trkpt>
<trkpt lat="-27.274439" lon="151.290064">
  <ele>343.12</ele>
  <time>2026-09-01T19:51:27Z</time>
  <course>10.53</course>
  <speed>0.0</speed>
  <fix>3d</fix>
</trkpt>
<trkpt lat="-27.274439" lon="151.290064">
  <ele>343.1</ele>
  <time>2026-09-01T19:51:27Z</time>
  <course>270.0</course>
  <speed>0.0</speed>
  <fix>3d</fix>
</trkpt>
<trkpt lat="-27.274439" lon="151.290064">
  <ele>343.04</ele>
  <time>2026-09-01T19:51:27Z</time>
  <course>10.56</course>
  <speed>0.0</speed>
  <fix>3d</fix>
</trkpt>
<trkpt lat="-27.274439" lon="151.290064">
  <ele>343.1</ele>
  <time>2026-09-01T19:51:27Z</time>
  <course>270.0</course>
  <speed>0.0</speed>
  <fix>3d</fix>
</trkpt>
<trkpt lat="-27.274439" lon="151.290064">
  <ele>343.07</ele>
  <time>2026-09-01T19:51:27Z</time>
  <course>10.58</course>
  <speed>0.0</speed>
  <fix>3d</fix>
</trkpt>
<trkpt lat="-27.274439" lon="151.290064">
  <ele>343.1</ele>
  <time>2026-09-01T19:51:27Z</time>
  <course>270.0</course>
  <speed>0.0</speed>
  <fix>3d</fix>
</trkpt>
<trkpt lat="-27.274439" lon="151.290064">
  <ele>343.04</ele>
  <time>2026-09-01T19:51:27Z</time>
  <course>10.6</course>
  <speed>0.0</speed>
  <fix>3d</fix>
</trkpt>
<trkpt lat="-27.274439" lon="151.290064">
  <ele>343.1</ele>
  <time>2026-09-01T19:51:27Z</time>
  <course>270.0</course>
  <speed>0.0</speed>
  <fix>3d</fix>
</trkpt>
<trkpt lat="-27.274439" lon="151.290064">
  <ele>343.01</ele>
  <time>2026-09-01T19:51:27Z</time>
  <course>10.62</course>
  <speed>0.0</speed>
  <fix>3d</fix>
</trkpt>
<trkpt lat="-27.274439" lon="151.290064">
  <ele>343.1</ele>
  <time>2026-09-01T19:51:27Z</time>
  <course>270.0</course>
  <speed>0.0</speed>
  <fix>3d</fix>
</trkpt>
<trkpt lat="-27.274439" lon="151.290064">
  <ele>343.2</ele>
  <time>2026-09-01T19:51:27Z</time>
  <course>10.64</course>
  <speed>0.0</speed>
  <fix>3d</fix>
</trkpt>
<trkpt lat="-27.274439" lon="151.290064">
  <ele>343.1</ele>
  <time>2026-09-01T19:51:27Z</time>
  <course>270.0</course>
  <speed>0.0</speed>
  <fix>3d</fix>
</trkpt>
<trkpt lat="-27.274439" lon="151.290064">
  <ele>343.24</ele>
  <time>2026-09-01T19:51:27Z</time>
  <course>10.65</course>
  <speed>0.0</speed>
  <fix>3d</fix>
</trkpt>
<trkpt lat="-27.274439" lon="151.290064">
  <ele>343.1</ele>
  <time>2026-09-01T19:51:27Z</time>
  <course>270.0</course>
  <speed>0.0</speed>
  <fix>3d</fix>
</trkpt>
<trkpt lat="-27.274439" lon="151.290064">
  <ele>342.88</ele>
  <time>2026-09-01T19:51:27Z</time>
  <course>10.67</course>
  <speed>0.0</speed>
  <fix>3d</fix>
</trkpt>
<trkpt lat="-27.274439" lon="151.290064">
  <ele>343.1</ele>
  <time>2026-09-01T19:51:27Z</time>
  <course>270.0</course>
  <speed>0.0</speed>
  <fix>3d</fix>
</trkpt>
<trkpt lat="-27.274439" lon="151.290064">
  <ele>343.21</ele>
  <time>2026-09-01T19:51:27Z</time>
  <course>10.68</course>
  <speed>0.0</speed>
  <fix>3d</fix>
</trkpt>
<trkpt lat="-27.274439" lon="151.290064">
  <ele>343.1</ele>
  <time>2026-09-01T19:51:27Z</time>
  <course>270.0</course>
  <speed>0.0</speed>
  <fix>3d</fix>
</trkpt>
<trkpt lat="-27.274439" lon="151.290064">
  <ele>343.02</ele>
  <time>2026-09-01T19:51:27Z</time>
  <course>10.69</course>
  <speed>0.0</speed>
  <fix>3d</fix>
</trkpt>
<trkpt lat="-27.274439" lon="151.290064">
  <ele>343.1</ele>
  <time>2026-09-01T19:51:27Z</time>
  <course>270.0</course>
  <speed>0.0</speed>
  <fix>3d</fix>
</trkpt>
<trkpt lat="-27.274439" lon="151.290064">
  <ele>342.93</ele>
  <time>2026-09-01T19:51:27Z</time>
  <course>10.7</course>
  <speed>0.0</speed>
  <fix>3d</fix>
</trkpt>
<trkpt lat="-27.274439" lon="151.290064">
  <ele>343.1</ele>
  <time>2026-09-01T19:51:27Z</time>
  <course>270.0</course>
  <speed>0.0</speed>
  <fix>3d</fix>
</trkpt>
<trkpt lat="-27.274439" lon="151.290064">
  <ele>343.07</ele>
  <time>2026-09-01T19:51:27Z</time>
  <course>10.71</course>
  <speed>0.0</speed>
  <fix>3d</fix>
</trkpt>
<trkpt lat="-27.274439" lon="151.290064">
  <ele>343.1</ele>
  <time>2026-09-01T19:51:27Z</time>
  <course>270.0</course>
  <speed>0.0</speed>
  <fix>3d</fix>
</trkpt>
<trkpt lat="-27.274439" lon="151.290064">
  <ele>342.94</ele>
  <time>2026-09-01T19:51:27Z</time>
  <course>10.72</course>
  <speed>0.0</speed>
  <fix>3d</fix>
</trkpt>
<trkpt lat="-27.274439" lon="151.290064">
  <ele>343.1</ele>
  <time>2026-09-01T19:51:27Z</time>
  <course>270.0</course>
  <speed>0.0</speed>
  <fix>3d</fix>
</trkpt>
<trkpt lat="-27.274439" lon="151.290064">
  <ele>343.11</ele>
  <time>2026-09-01T19:51:27Z</time>
  <course>10.73</course>
  <speed>0.0</speed>
  <fix>3d</fix>
</trkpt>
<trkpt lat="-27.274439" lon="151.290064">
  <ele>343.1</ele>
  <time>2026-09-01T19:51:27Z</time>
  <course>270.0</course>
  <speed>0.0</speed>
  <fix>3d</fix>
</trkpt>
<trkpt lat="-27.274439" lon="151.290064">
  <ele>343.24</ele>
  <time>2026-09-01T19:51:27Z</time>
  <course>10.73</course>
  <speed>0.0</speed>
  <fix>3d</fix>
</trkpt>
<trkpt lat="-27.274439" lon="151.290064">
  <ele>343.1</ele>
  <time>2026-09-01T19:51:27Z</time>
  <course>270.0</course>
  <speed>0.0</speed>
  <fix>3d</fix>
</trkpt>
<trkpt lat="-27.274439" lon="151.290064">
  <ele>343.18</ele>
  <time>2026-09-01T19:51:27Z</time>
  <course>10.74</course>
  <speed>0.0</speed>
  <fix>3d</fix>
</trkpt>
<trkpt lat="-27.274439" lon="151.290064">
  <ele>343.1</ele>
  <time>2026-09-01T19:51:27Z</time>
  <course>270.0</course>
  <speed>0.0</speed>
  <fix>3d</fix>
</trkpt>
<trkpt lat="-27.274439" lon="151.290064">
  <ele>342.89</ele>
  <time>2026-09-01T19:51:27Z</time>
  <course>10.75</course>
  <speed>0.0</speed>
  <fix>3d</fix>
</trkpt>
<trkpt lat="-27.274439" lon="151.290064">
  <ele>343.1</ele>
  <time>2026-09-01T19:51:27Z</time>
  <course>270.0</course>
  <speed>0.0</speed>
  <fix>3d</fix>
</trkpt>
<trkpt lat="-27.274439" lon="151.290064">
  <ele>343.23</ele>
  <time>2026-09-01T19:51:27Z</time>
  <course>10.75</course>
  <speed>0.0</speed>
  <fix>3d</fix>
</trkpt>
<trkpt lat="-27.274439" lon="151.290064">
  <ele>343.1</ele>
  <time>2026-09-01T19:51:27Z</time>
  <course>270.0</course>
  <speed>0.0</speed>
  <fix>3d</fix>
</trkpt>
<trkpt lat="-27.274439" lon="151.290064">
  <ele>343.23</ele>
  <time>2026-09-01T19:51:27Z</time>
  <course>10.76</course>
  <speed>0.0</speed>
  <fix>3d</fix>
</trkpt>
<trkpt lat="-27.274439" lon="151.290064">
  <ele>343.1</ele>
  <time>2026-09-01T19:51:27Z</time>
  <course>270.0</course>
  <speed>0.0</speed>
  <fix>3d</fix>
</trkpt>
<trkpt lat="-27.274439" lon="151.290064">
  <ele>342.99</ele>
  <time>2026-09-01T19:51:27Z</time>
  <course>10.76</course>
  <speed>0.0</speed>
  <fix>3d</fix>
</trkpt>
<trkpt lat="-27.274439" lon="151.290064">
  <ele>343.1</ele>
  <time>2026-09-01T19:51:27Z</time>
  <course>270.0</course>
  <speed>0.0</speed>
  <fix>3d</fix>
</trkpt>
<trkpt lat="-27.274439" lon="151.290064">
  <ele>343.13</ele>
  <time>2026-09-01T19:51:27Z</time>
  <course>10.76</course>
  <speed>0.0</speed>
  <fix>3d</fix>
</trkpt>
<trkpt lat="-27.274439" lon="151.290064">
  <ele>343.1</ele>
  <time>2026-09-01T19:51:27Z</time>
  <course>270.0</course>
  <speed>0.0</speed>
  <fix>3d</fix>
</trkpt>
<trkpt lat="-27.274439" lon="151.290064">
  <ele>343.07</ele>
  <time>2026-09-01T19:51:27Z</time>
  <course>10.77</course>
  <speed>0.0</speed>
  <fix>3d</fix>
</trkpt>
<trkpt lat="-27.274439" lon="151.290064">
  <ele>343.1</ele>
  <time>2026-09-01T19:51:27Z</time>
  <course>270.0</course>
  <speed>0.0</speed>
  <fix>3d</fix>
</trkpt>
<trkpt lat="-27.274439" lon="151.290064">
  <ele>343.19</ele>
  <time>2026-09-01T19:51:27Z</time>
  <course>10.77</course>
  <speed>0.0</speed>
  <fix>3d</fix>
</trkpt>
<trkpt lat="-27.274439" lon="151.290064">
  <ele>343.1</ele>
  <time>2026-09-01T19:51:27Z</time>
  <course>270.0</course>
  <speed>0.0</speed>
  <fix>3d</fix>
</trkpt>
<trkpt lat="-27.274439" lon="151.290064">
  <ele>342.93</ele>
  <time>2026-09-01T19:51:27Z</time>
  <course>10.77</course>
  <speed>0.0</speed>
  <fix>3d</fix>
</trkpt>
<trkpt lat="-27.274439" lon="151.290064">
  <ele>343.1</ele>
  <time>2026-09-01T19:51:27Z</time>
  <course>270.0</course>
  <speed>0.0</speed>
  <fix>3d</fix>
</trkpt>
<trkpt lat="-27.274439" lon="151.290064">
  <ele>343.19</ele>
  <time>2026-09-01T19:51:27Z</time>
  <course>10.78</course>
  <speed>0.0</speed>
  <fix>3d</fix>
</trkpt>
<trkpt lat="-27.274439" lon="151.290064">
  <ele>343.1</ele>
  <time>2026-09-01T19:51:27Z</time>
  <course>270.0</course>
  <speed>0.0</speed>
  <fix>3d</fix>
</trkpt>
<trkpt lat="-27.274439" lon="151.290064">
  <ele>343.1</ele>
  <time>2026-09-01T19:51:27Z</time>
  <course>10.78</course>
  <speed>0.0</speed>
  <fix>3d</fix>
</trkpt>
<trkpt lat="-27.274439" lon="151.290064">
  <ele>343.1</ele>
  <time>2026-09-01T19:51:27Z</time>
  <course>270.0</course>
  <speed>0.0</speed>
  <fix>3d</fix>
</trkpt>
<trkpt lat="-27.274439" lon="151.290064">
  <ele>343.01</ele>
  <time>2026-09-01T19:51:27Z</time>
  <course>10.78</course>
  <speed>0.0</speed>
  <fix>3d</fix>
</trkpt>
<trkpt lat="-27.274439" lon="151.290064">
  <ele>343.1</ele>
  <time>2026-09-01T19:51:27Z</time>
  <course>270.0</course>
  <speed>0.0</speed>
  <fix>3d</fix>
</trkpt>
<trkpt lat="-27.274439" lon="151.290064">
  <ele>343.11</ele>
  <time>2026-09-01T19:51:27Z</time>
  <course>10.78</course>
  <speed>0.0</speed>
  <fix>3d</fix>
</trkpt>
<trkpt lat="-27.274439" lon="151.290064">
  <ele>343.1</ele>
  <time>2026-09-01T19:51:27Z</time>
  <course>270.0</course>
  <speed>0.0</speed>
  <fix>3d</fix>
</trkpt>
<trkpt lat="-27.274439" lon="151.290064">
  <ele>342.96</ele>
  <time>2026-09-01T19:51:27Z</time>
  <course>10.78</course>
  <speed>0.0</speed>
  <fix>3d</fix>
</trkpt>
<trkpt lat="-27.274439" lon="151.290064">
  <ele>343.1</ele>
  <time>2026-09-01T19:51:27Z</time>
  <course>270.0</course>
  <speed>0.0</speed>
  <fix>3d</fix>
</trkpt>
<trkpt lat="-27.274439" lon="151.290064">
  <ele>343.19</ele>
  <time>2026-09-01T19:51:27Z</time>
  <course>10.79</course>
  <speed>0.0</speed>
  <fix>3d</fix>
</trkpt>
<trkpt lat="-27.274439" lon="151.290064">
  <ele>343.1</ele>
  <time>2026-09-01T19:51:27Z</time>
  <course>270.0</course>
  <speed>0.0</speed>
  <fix>3d</fix>
</trkpt>
<trkpt lat="-27.274439" lon="151.290064">
  <ele>343.0</ele>
  <time>2026-09-01T19:51:27Z</time>
  <course>10.79</course>
  <speed>0.0</speed>
  <fix>3d</fix>
</trkpt>
<trkpt lat="-27.274439" lon="151.290064">
  <ele>343.1</ele>
  <time>2026-09-01T19:51:27Z</time>
  <course>270.0</course>
  <speed>0.0</speed>
  <fix>3d</fix>
</trkpt>
<trkpt lat="-27.274439" lon="151.290064">
  <ele>343.2</ele>
  <time>2026-09-01T19:51:27Z</time>
  <course>10.79</course>
  <speed>0.0</speed>
  <fix>3d</fix>
</trkpt>
<trkpt lat="-27.274439" lon="151.290064">
  <ele>343.1</ele>
  <time>2026-09-01T19:51:27Z</time>
  <course>270.0</course>
  <speed>0.0</speed>
  <fix>3d</fix>
</trkpt>
<trkpt lat="-27.274439" lon="151.290064">
  <ele>343.2</ele>
  <time>2026-09-01T19:51:27Z</time>
  <course>10.79</course>
  <speed>0.0</speed>
  <fix>3d</fix>
</trkpt>
<trkpt lat="-27.274439" lon="151.290064">
  <ele>343.1</ele>
  <time>2026-09-01T19:51:27Z</time>
  <course>270.0</course>
  <speed>0.0</speed>
  <fix>3d</fix>
</trkpt>
<trkpt lat="-27.274439" lon="151.290064">
  <ele>343.13</ele>
  <time>2026-09-01T19:51:27Z</time>
  <course>10.79</course>
  <speed>0.0</speed>
  <fix>3d</fix>
</trkpt>
<trkpt lat="-27.274439" lon="151.290064">
  <ele>343.1</ele>
  <time>2026-09-01T19:51:27Z</time>
  <course>270.0</course>
  <speed>0.0</speed>
  <fix>3d</fix>
</trkpt>
<trkpt lat="-27.274439" lon="151.290064">
  <ele>343.1</ele>
  <time>2026-09-01T19:51:27Z</time>
  <course>10.79</course>
  <speed>0.0</speed>
  <fix>3d</fix>
</trkpt>
<trkpt lat="-27.274439" lon="151.290064">
  <ele>343.1</ele>
  <time>2026-09-01T19:51:27Z</time>
  <course>270.0</course>
  <speed>0.0</speed>
  <fix>3d</fix>
</trkpt>
<trkpt lat="-27.274439" lon="151.290064">
  <ele>343.12</ele>
  <time>2026-09-01T19:51:27Z</time>
  <course>10.79</course>
  <speed>0.0</speed>
  <fix>3d</fix>
</trkpt>
<trkpt lat="-27.274439" lon="151.290064">
  <ele>343.1</ele>
  <time>2026-09-01T19:51:27Z</time>
  <course>270.0</course>
  <speed>0.0</speed>
  <fix>3d</fix>
</trkpt>
<trkpt lat="-27.274439" lon="151.290064">
  <ele>342.94</ele>
  <time>2026-09-01T19:51:27Z</time>
  <course>10.79</course>
  <speed>0.0</speed>
  <fix>3d</fix>
</trkpt>
<trkpt lat="-27.274439" lon="151.290064">
  <ele>343.1</ele>
  <time>2026-09-01T19:51:27Z</time>
  <course>270.0</course>
  <speed>0.0</speed>
  <fix>3d</fix>
</trkpt>
<trkpt lat="-27.274439" lon="151.290064">
  <ele>343.25</ele>
  <time>2026-09-01T19:51:27Z</time>
  <course>10.79</course>
  <speed>0.0</speed>
  <fix>3d</fix>
</trkpt>
<trkpt lat="-27.274439" lon="151.290064">
  <ele>343.1</ele>
  <time>2026-09-01T19:51:27Z</time>
  <course>270.0</course>
  <speed>0.0</speed>
  <fix>3d</fix>
</trkpt>
<trkpt lat="-27.274439" lon="151.290064">
  <ele>342.93</ele>
  <time>2026-09-01T19:51:27Z</time>
  <course>10.79</course>
  <speed>0.0</speed>
  <fix>3d</fix>
</trkpt>
<trkpt lat="-27.274439" lon="151.290064">
  <ele>343.1</ele>
  <time>2026-09-01T19:51:27Z</time>
  <course>270.0</course>
  <speed>0.0</speed>
  <fix>3d</fix>
</trkpt>
<trkpt lat="-27.274439" lon="151.290064">
  <ele>343.08</ele>
  <time>2026-09-01T19:51:27Z</time>
  <course>10.79</course>
  <speed>0.0</speed>
  <fix>3d</fix>
</trkpt>
<trkpt lat="-27.274439" lon="151.290064">
  <ele>343.1</ele>
  <time>2026-09-01T19:51:27Z</time>
  <course>270.0</course>
  <speed>0.0</speed>
  <fix>3d</fix>
</trkpt>
<trkpt lat="-27.274439" lon="151.290064">
  <ele>343.23</ele>
  <time>2026-09-01T19:51:27Z</time>
  <course>10.8</course>
  <speed>0.0</speed>
  <fix>3d</fix>
</trkpt>
<trkpt lat="-27.274439" lon="151.290064">
  <ele>343.1</ele>
  <time>2026-09-01T19:51:27Z</time>
  <course>270.0</course>
  <speed>0.0</speed>
  <fix>3d</fix>
</trkpt>
<trkpt lat="-27.274439" lon="151.290064">
  <ele>343.01</ele>
  <time>2026-09-01T19:51:27Z</time>
  <course>10.8</course>
  <speed>0.0</speed>
  <fix>3d</fix>
</trkpt>
<trkpt lat="-27.274439" lon="151.290064">
  <ele>343.1</ele>
  <time>2026-09-01T19:51:27Z</time>
  <course>270.0</course>
  <speed>0.0</speed>
  <fix>3d</fix>
</trkpt>
<trkpt lat="-27.274439" lon="151.290064">
  <ele>343.1</ele>
  <time>2026-09-01T19:51:27Z</time>
  <course>10.8</course>
  <speed>0.0</speed>
  <fix>3d</fix>
</trkpt>
<trkpt lat="-27.274439" lon="151.290064">
  <ele>343.1</ele>
  <time>2026-09-01T19:51:27Z</time>
  <course>270.0</course>
  <speed>0.0</speed>
  <fix>3d</fix>
</trkpt>
<trkpt lat="-27.274439" lon="151.290064">
  <ele>342.99</ele>
  <time>2026-09-01T19:51:27Z</time>
  <course>10.8</course>
  <speed>0.0</speed>
  <fix>3d</fix>
</trkpt>
<trkpt lat="-27.274439" lon="151.290064">
  <ele>343.1</ele>
  <time>2026-09-01T19:51:27Z</time>
  <course>270.0</course>
  <speed>0.0</speed>
  <fix>3d</fix>
</trkpt>
<trkpt lat="-27.274439" lon="151.290064">
  <ele>342.87</ele>
  <time>2026-09-01T19:51:27Z</time>
  <course>10.8</course>
  <speed>0.0</speed>
  <fix>3d</fix>
</trkpt>
<trkpt lat="-27.274439" lon="151.290064">
  <ele>343.1</ele>
  <time>2026-09-01T19:51:27Z</time>
  <course>270.0</course>
  <speed>0.0</speed>
  <fix>3d</fix>
</trkpt>
<trkpt lat="-27.274439" lon="151.290064">
  <ele>343.1</ele>
  <time>2026-09-01T19:51:27Z</time>
  <course>10.8</course>
  <speed>0.0</speed>
  <fix>3d</fix>
</trkpt>
<trkpt lat="-27.274439" lon="151.290064">
  <ele>343.1</ele>
  <time>2026-09-01T19:51:27Z</time>
  <course>270.0</course>
  <speed>0.0</speed>
  <fix>3d</fix>
</trkpt>
<trkpt lat="-27.274439" lon="151.290064">
  <ele>342.99</ele>
  <time>2026-09-01T19:51:27Z</time>
  <course>10.8</course>
  <speed>0.0</speed>
  <fix>3d</fix>
</trkpt>
<trkpt lat="-27.274439" lon="151.290064">
  <ele>343.1</ele>
  <time>2026-09-01T19:51:27Z</time>
  <course>270.0</course>
  <speed>0.0</speed>
  <fix>3d</fix>
</trkpt>
<trkpt lat="-27.274439" lon="151.290064">
  <ele>342.91</ele>
  <time>2026-09-01T19:51:27Z</time>
  <course>10.8</course>
  <speed>0.0</speed>
  <fix>3d</fix>
</trkpt>
<trkpt lat="-27.274439" lon="151.290064">
  <ele>343.1</ele>
  <time>2026-09-01T19:51:27Z</time>
  <course>270.0</course>
  <speed>0.0</speed>
  <fix>3d</fix>
</trkpt>
<trkpt lat="-27.274439" lon="151.290064">
  <ele>342.9</ele>
  <time>2026-09-01T19:51:27Z</time>
  <course>10.8</course>
  <speed>0.0</speed>
  <fix>3d</fix>
</trkpt>
<trkpt lat="-27.274439" lon="151.290064">
  <ele>343.1</ele>
  <time>2026-09-01T19:51:27Z</time>
  <course>270.0</course>
  <speed>0.0</speed>
  <fix>3d</fix>
</trkpt>
<trkpt lat="-27.274439" lon="151.290064">
  <ele>342.87</ele>
  <time>2026-09-01T19:51:27Z</time>
  <course>10.8</course>
  <speed>0.0</speed>
  <fix>3d</fix>
</trkpt>
<trkpt lat="-27.274439" lon="151.290064">
  <ele>343.1</ele>
  <time>2026-09-01T19:51:27Z</time>
  <course>270.0</course>
  <speed>0.0</speed>
  <fix>3d</fix>
</trkpt>
<trkpt lat="-27.274439" lon="151.290064">
  <ele>343.12</ele>
  <time>2026-09-01T19:51:27Z</time>
  <course>10.8</course>
  <speed>0.0</speed>
  <fix>3d</fix>
</trkpt>
<trkpt lat="-27.274439" lon="151.290064">
  <ele>343.1</ele>
  <time>2026-09-01T19:51:27Z</time>
  <course>270.0</course>
  <speed>0.0</speed>
  <fix>3d</fix>
</trkpt>
<trkpt lat="-27.274439" lon="151.290064">
  <ele>342.99</ele>
  <time>2026-09-01T19:51:27Z</time>
  <course>10.8</course>
  <speed>0.0</speed>
  <fix>3d</fix>
</trkpt>
<trkpt lat="-27.274439" lon="151.290064">
  <ele>343.1</ele>
  <time>2026-09-01T19:51:27Z</time>
  <course>270.0</course>
  <speed>0.0</speed>
  <fix>3d</fix>
</trkpt>
<trkpt lat="-27.274439" lon="151.290064">
  <ele>343.13</ele>
  <time>2026-09-01T19:51:27Z</time>
  <course>10.8</course>
  <speed>0.0</speed>
  <fix>3d</fix>
</trkpt>
<trkpt lat="-27.274439" lon="151.290064">
  <ele>343.1</ele>
  <time>2026-09-01T19:51:27Z</time>
  <course>270.0</course>
  <speed>0.0</speed>
  <fix>3d</fix>
</trkpt>
<trkpt lat="-27.274439" lon="151.290064">
  <ele>343.0</ele>
  <time>2026-09-01T19:51:27Z</time>
  <course>10.8</course>
  <speed>0.0</speed>
  <fix>3d</fix>
</trkpt>
<trkpt lat="-27.274439" lon="151.290064">
  <ele>343.1</ele>
  <time>2026-09-01T19:51:27Z</time>
  <course>270.0</course>
  <speed>0.0</speed>
  <fix>3d</fix>
</trkpt>
<trkpt lat="-27.274439" lon="151.290064">
  <ele>343.17</ele>
  <time>2026-09-01T19:51:27Z</time>
  <course>10.8</course>
  <speed>0.0</speed>
  <fix>3d</fix>
</trkpt>
<trkpt lat="-27.274439" lon="151.290064">
  <ele>343.1</ele>
  <time>2026-09-01T19:51:27Z</time>
  <course>270.0</course>
  <speed>0.0</speed>
  <fix>3d</fix>
</trkpt>
<trkpt lat="-27.274439" lon="151.290064">
  <ele>343.0</ele>
  <time>2026-09-01T19:51:27Z</time>
  <course>10.8</course>
  <speed>0.0</speed>
  <fix>3d</fix>
</trkpt>
<trkpt lat="-27.274439" lon="151.290064">
  <ele>343.1</ele>
  <time>2026-09-01T19:51:27Z</time>
  <course>270.0</course>
  <speed>0.0</speed>
  <fix>3d</fix>
</trkpt>
<trkpt lat="-27.274439" lon="151.290064">
  <ele>342.99</ele>
  <time>2026-09-01T19:51:27Z</time>
  <course>10.8</course>
  <speed>0.0</speed>
  <fix>3d</fix>
</trkpt>
<trkpt lat="-27.274439" lon="151.290064">
  <ele>343.1</ele>
  <time>2026-09-01T19:51:27Z</time>
  <course>270.0</course>
  <speed>0.0</speed>
  <fix>3d</fix>
</trkpt>
<trkpt lat="-27.274439" lon="151.290064">
  <ele>343.17</ele>
  <time>2026-09-01T19:51:27Z</time>
  <course>10.8</course>
  <speed>0.0</speed>
  <fix>3d</fix>
</trkpt>
<trkpt lat="-27.274439" lon="151.290064">
  <ele>343.1</ele>
  <time>2026-09-01T19:51:27Z</time>
  <course>270.0</course>
  <speed>0.0</speed>
  <fix>3d</fix>
</trkpt>
<trkpt lat="-27.274439" lon="151.290064">
  <ele>343.16</ele>
  <time>2026-09-01T19:51:27Z</time>
  <course>10.8</course>
  <speed>0.0</speed>
  <fix>3d</fix>
</trkpt>
<trkpt lat="-27.274439" lon="151.290064">
  <ele>343.1</ele>
  <time>2026-09-01T19:51:27Z</time>
  <course>270.0</course>
  <speed>0.0</speed>
  <fix>3d</fix>
</trkpt>
<trkpt lat="-27.274439" lon="151.290064">
  <ele>342.87</ele>
  <time>2026-09-01T19:51:27Z</time>
  <course>10.8</course>
  <speed>0.0</speed>
  <fix>3d</fix>
</trkpt>
<trkpt lat="-27.274439" lon="151.290064">
  <ele>343.1</ele>
  <time>2026-09-01T19:51:27Z</time>
  <course>270.0</course>
  <speed>0.0</speed>
  <fix>3d</fix>
</trkpt>
<trkpt lat="-27.274439" lon="151.290064">
  <ele>343.19</ele>
  <time>2026-09-01T19:51:27Z</time>
  <course>10.8</course>
  <speed>0.0</speed>
  <fix>3d</fix>
</trkpt>
<trkpt lat="-27.274439" lon="151.290064">
  <ele>343.1</ele>
  <time>2026-09-01T19:51:27Z</time>
  <course>270.0</course>
  <speed>0.0</speed>
  <fix>3d</fix>
</trkpt>
<trkpt lat="-27.274439" lon="151.290064">
  <ele>343.16</ele>
  <time>2026-09-01T19:51:27Z</time>
  <course>10.8</course>
  <speed>0.0</speed>
  <fix>3d</fix>
</trkpt>
<trkpt lat="-27.274439" lon="151.290064">
  <ele>343.1</ele>
  <time>2026-09-01T19:51:27Z</time>
  <course>270.0</course>
  <speed>0.0</speed>
  <fix>3d</fix>
</trkpt>
<trkpt lat="-27.274439" lon="151.290064">
  <ele>343.21</ele>
  <time>2026-09-01T19:51:27Z</time>
  <course>10.8</course>
  <speed>0.0</speed>
  <fix>3d</fix>
</trkpt>
<trkpt lat="-27.274439" lon="151.290064">
  <ele>343.1</ele>
  <time>2026-09-01T19:51:27Z</time>
  <course>270.0</course>
  <speed>0.0</speed>
  <fix>3d</fix>
</trkpt>
<trkpt lat="-27.274439" lon="151.290064">
  <ele>343.22</ele>
  <time>2026-09-01T19:51:27Z</time>
  <course>10.8</course>
  <speed>0.0</speed>
  <fix>3d</fix>
</trkpt>
<trkpt lat="-27.274439" lon="151.290064">
  <ele>343.1</ele>
  <time>2026-09-01T19:51:27Z</time>
  <course>270.0</course>
  <speed>0.0</speed>
  <fix>3d</fix>
</trkpt>
<trkpt lat="-27.274439" lon="151.290064">
  <ele>343.24</ele>
  <time>2026-09-01T19:51:27Z</time>
  <course>10.8</course>
  <speed>0.0</speed>
  <fix>3d</fix>
</trkpt>
<trkpt lat="-27.274439" lon="151.290064">
  <ele>343.1</ele>
  <time>2026-09-01T19:51:27Z</time>
  <course>270.0</course>
  <speed>0.0</speed>
  <fix>3d</fix>
</trkpt>
<trkpt lat="-27.274439" lon="151.290064">
  <ele>343.0</ele>
  <time>2026-09-01T19:51:27Z</time>
  <course>10.8</course>
  <speed>0.0</speed>
  <fix>3d</fix>
</trkpt>
<trkpt lat="-27.274439" lon="151.290064">
  <ele>343.1</ele>
  <time>2026-09-01T19:51:27Z</time>
  <course>270.0</course>
  <speed>0.0</speed>
  <fix>3d</fix>
</trkpt>
<trkpt lat="-27.274439" lon="151.290064">
  <ele>343.1</ele>
  <time>2026-09-01T19:51:27Z</time>
  <course>10.8</course>
  <speed>0.0</speed>
  <fix>3d</fix>
</trkpt>
<trkpt lat="-27.274439" lon="151.290064">
  <ele>343.1</ele>
  <time>2026-09-01T19:51:27Z</time>
  <course>270.0</course>
  <speed>0.0</speed>
  <fix>3d</fix>
</trkpt>
<trkpt lat="-27.274439" lon="151.290064">
  <ele>343.05</ele>
  <time>2026-09-01T19:51:27Z</time>
  <course>10.8</course>
  <speed>0.0</speed>
  <fix>3d</fix>
</trkpt>
<trkpt lat="-27.274439" lon="151.290064">
  <ele>343.1</ele>
  <time>2026-09-01T19:51:27Z</time>
  <course>270.0</course>
  <speed>0.0</speed>
  <fix>3d</fix>
</trkpt>
<trkpt lat="-27.274439" lon="151.290064">
  <ele>342.87</ele>
  <time>2026-09-01T19:51:27Z</time>
  <course>10.8</course>
  <speed>0.0</speed>
  <fix>3d</fix>
</trkpt>
<trkpt lat="-27.274439" lon="151.290064">
  <ele>343.1</ele>
  <time>2026-09-01T19:51:27Z</time>
  <course>270.0</course>
  <speed>0.0</speed>
  <fix>3d</fix>
</trkpt>
<trkpt lat="-27.274439" lon="151.290064">
  <ele>342.92</ele>
  <time>2026-09-01T19:51:27Z</time>
  <course>10.8</course>
  <speed>0.0</speed>
  <fix>3d</fix>
</trkpt>
<trkpt lat="-27.274439" lon="151.290064">
  <ele>343.1</ele>
  <time>2026-09-01T19:51:27Z</time>
  <course>270.0</course>
  <speed>0.0</speed>
  <fix>3d</fix>
</trkpt>
<trkpt lat="-27.274439" lon="151.290064">
  <ele>342.96</ele>
  <time>2026-09-01T19:51:27Z</time>
  <course>10.8</course>
  <speed>0.0</speed>
  <fix>3d</fix>
</trkpt>
<trkpt lat="-27.274439" lon="151.290064">
  <ele>343.1</ele>
  <time>2026-09-01T19:51:27Z</time>
  <course>270.0</course>
  <speed>0.0</speed>
  <fix>3d</fix>
</trkpt>
<trkpt lat="-27.274439" lon="151.290064">
  <ele>343.15</ele>
  <time>2026-09-01T19:51:27Z</time>
  <course>10.8</course>
  <speed>0.0</speed>
  <fix>3d</fix>
</trkpt>
<trkpt lat="-27.274439" lon="151.290064">
  <ele>343.1</ele>
  <time>2026-09-01T19:51:27Z</time>
  <course>270.0</course>
  <speed>0.0</speed>
  <fix>3d</fix>
</trkpt>
<trkpt lat="-27.274439" lon="151.290064">
  <ele>343.16</ele>
  <time>2026-09-01T19:51:27Z</time>
  <course>10.8</course>
  <speed>0.0</speed>
  <fix>3d</fix>
</trkpt>
<trkpt lat="-27.274439" lon="151.290064">
  <ele>343.1</ele>
  <time>2026-09-01T19:51:27Z</time>
  <course>270.0</course>
  <speed>0.0</speed>
  <fix>3d</fix>
</trkpt>
<trkpt lat="-27.274439" lon="151.290064">
  <ele>343.2</ele>
  <time>2026-09-01T19:51:27Z</time>
  <course>10.81</course>
  <speed>0.0</speed>
  <fix>3d</fix>
</trkpt>
<trkpt lat="-27.274439" lon="151.290064">
  <ele>343.1</ele>
  <time>2026-09-01T19:51:27Z</time>
  <course>270.0</course>
  <speed>0.0</speed>
  <fix>3d</fix>
</trkpt>
<trkpt lat="-27.274439" lon="151.290064">
  <ele>343.13</ele>
  <time>2026-09-01T19:51:27Z</time>
  <course>10.82</course>
  <speed>0.0</speed>
  <fix>3d</fix>
</trkpt>
<trkpt lat="-27.274439" lon="151.290064">
  <ele>343.1</ele>
  <time>2026-09-01T19:51:27Z</time>
  <course>270.0</course>
  <speed>0.0</speed>
  <fix>3d</fix>
</trkpt>
<trkpt lat="-27.274439" lon="151.290064">
  <ele>343.09</ele>
  <time>2026-09-01T19:51:27Z</time>
  <course>10.71</course>
  <speed>0.0</speed>
  <fix>3d</fix>
</trkpt>
<trkpt lat="-27.274439" lon="151.290064">
  <ele>343.1</ele>
  <time>2026-09-01T19:51:27Z</time>
  <course>270.0</course>
  <speed>0.0</speed>
  <fix>3d</fix>
</trkpt>
<trkpt lat="-27.274439" lon="151.290064">
  <ele>343.09</ele>
  <time>2026-09-01T19:51:27Z</time>
  <course>10.71</course>
  <speed>0.0</speed>
  <fix>3d</fix>
</trkpt>
<trkpt lat="-27.274439" lon="151.290064">
  <ele>343.1</ele>
  <time>2026-09-01T19:51:27Z</time>
  <course>270.0</course>
  <speed>0.0</speed>
  <fix>3d</fix>
</trkpt>
<trkpt lat="-27.274439" lon="151.290064">
  <ele>343.1</ele>
  <time>2026-09-01T19:51:27Z</time>
  <course>10.71</course>
  <speed>0.0</speed>
  <fix>3d</fix>
</trkpt>
<trkpt lat="-27.274439" lon="151.290064">
  <ele>343.1</ele>
  <time>2026-09-01T19:51:27Z</time>
  <course>270.0</course>
  <speed>0.0</speed>
  <fix>3d</fix>
</trkpt>
<trkpt lat="-27.274439" lon="151.290064">
  <ele>343.1</ele>
  <time>2026-09-01T19:51:27Z</time>
  <course>10.71</course>
  <speed>0.0</speed>
  <fix>3d</fix>
</trkpt>
<trkpt lat="-27.274439" lon="151.290064">
  <ele>343.1</ele>
  <time>2026-09-01T19:51:27Z</time>
  <course>270.0</course>
  <speed>0.0</speed>
  <fix>3d</fix>
</trkpt>
<trkpt lat="-27.274439" lon="151.290064">
  <ele>343.1</ele>
  <time>2026-09-01T19:51:27Z</time>
  <course>10.71</course>
  <speed>0.0</speed>
  <fix>3d</fix>
</trkpt>
<trkpt lat="-27.274439" lon="151.290064">
  <ele>343.1</ele>
  <time>2026-09-01T19:51:27Z</time>
  <course>270.0</course>
  <speed>0.0</speed>
  <fix>3d</fix>
</trkpt>
<trkpt lat="-27.274439" lon="151.290064">
  <ele>343.1</ele>
  <time>2026-09-01T19:51:27Z</time>
  <course>10.71</course>
  <speed>0.0</speed>
  <fix>3d</fix>
</trkpt>
<trkpt lat="-27.274439" lon="151.290064">
  <ele>343.1</ele>
  <time>2026-09-01T19:51:27Z</time>
  <course>270.0</course>
  <speed>0.0</speed>
  <fix>3d</fix>
</trkpt>
<trkpt lat="-27.274439" lon="151.290064">
  <ele>343.1</ele>
  <time>2026-09-01T19:51:27Z</time>
  <course>10.71</course>
  <speed>0.0</speed>
  <fix>3d</fix>
</trkpt>
<trkpt lat="-27.274439" lon="151.290064">
  <ele>343.1</ele>
  <time>2026-09-01T19:51:27Z</time>
  <course>270.0</course>
  <speed>0.0</speed>
  <fix>3d</fix>
</trkpt>
<trkpt lat="-27.274439" lon="151.290064">
  <ele>343.11</ele>
  <time>2026-09-01T19:51:27Z</time>
  <course>10.71</course>
  <speed>0.0</speed>
  <fix>3d</fix>
</trkpt>
<trkpt lat="-27.274439" lon="151.290064">
  <ele>343.1</ele>
  <time>2026-09-01T19:51:27Z</time>
  <course>270.0</course>
  <speed>0.0</speed>
  <fix>3d</fix>
</trkpt>
<trkpt lat="-27.274439" lon="151.290064">
  <ele>343.11</ele>
  <time>2026-09-01T19:51:27Z</time>
  <course>10.71</course>
  <speed>0.0</speed>
  <fix>3d</fix>
</trkpt>
<trkpt lat="-27.274439" lon="151.290064">
  <ele>343.1</ele>
  <time>2026-09-01T19:51:27Z</time>
  <course>270.0</course>
  <speed>0.0</speed>
  <fix>3d</fix>
</trkpt>
<trkpt lat="-27.274439" lon="151.290064">
  <ele>343.11</ele>
  <time>2026-09-01T19:51:27Z</time>
  <course>10.71</course>
  <speed>0.0</speed>
  <fix>3d</fix>
</trkpt>
<trkpt lat="-27.274439" lon="151.290064">
  <ele>343.1</ele>
  <time>2026-09-01T19:51:27Z</time>
  <course>270.0</course>
  <speed>0.0</speed>
  <fix>3d</fix>
</trkpt>
<trkpt lat="-27.274439" lon="151.290064">
  <ele>343.12</ele>
  <time>2026-09-01T19:51:27Z</time>
  <course>10.71</course>
  <speed>0.0</speed>
  <fix>3d</fix>
</trkpt>
<trkpt lat="-27.274439" lon="151.290064">
  <ele>343.1</ele>
  <time>2026-09-01T19:51:27Z</time>
  <course>270.0</course>
  <speed>0.0</speed>
  <fix>3d</fix>
</trkpt>
<trkpt lat="-27.274439" lon="151.290064">
  <ele>343.12</ele>
  <time>2026-09-01T19:51:27Z</time>
  <course>10.71</course>
  <speed>0.0</speed>
  <fix>3d</fix>
</trkpt>
<trkpt lat="-27.274439" lon="151.290064">
  <ele>343.1</ele>
  <time>2026-09-01T19:51:27Z</time>
  <course>270.0</course>
  <speed>0.0</speed>
  <fix>3d</fix>
</trkpt>
<trkpt lat="-27.274439" lon="151.290064">
  <ele>343.1</ele>
  <time>2026-09-01T19:51:27Z</time>
  <course>10.71</course>
  <speed>0.0</speed>
  <fix>3d</fix>
</trkpt>
<trkpt lat="-27.274439" lon="151.290064">
  <ele>343.1</ele>
  <time>2026-09-01T19:51:27Z</time>
  <course>270.0</course>
  <speed>0.0</speed>
  <fix>3d</fix>
</trkpt>
<trkpt lat="-27.274439" lon="151.290064">
  <ele>343.1</ele>
  <time>2026-09-01T19:51:27Z</time>
  <course>10.71</course>
  <speed>0.0</speed>
  <fix>3d</fix>
</trkpt>
<trkpt lat="-27.274439" lon="151.290064">
  <ele>343.1</ele>
  <time>2026-09-01T19:51:27Z</time>
  <course>270.0</course>
  <speed>0.0</speed>
  <fix>3d</fix>
</trkpt>
<trkpt lat="-27.274439" lon="151.290064">
  <ele>343.1</ele>
  <time>2026-09-01T19:51:27Z</time>
  <course>10.71</course>
  <speed>0.0</speed>
  <fix>3d</fix>
</trkpt>
<trkpt lat="-27.274439" lon="151.290064">
  <ele>343.1</ele>
  <time>2026-09-01T19:51:27Z</time>
  <course>270.0</course>
  <speed>0.0</speed>
  <fix>3d</fix>
</trkpt>
<trkpt lat="-27.274439" lon="151.290064">
  <ele>343.09</ele>
  <time>2026-09-01T19:51:27Z</time>
  <course>10.71</course>
  <speed>0.0</speed>
  <fix>3d</fix>
</trkpt>
<trkpt lat="-27.274439" lon="151.290064">
  <ele>343.1</ele>
  <time>2026-09-01T19:51:27Z</time>
  <course>270.0</course>
  <speed>0.0</speed>
  <fix>3d</fix>
</trkpt>
<trkpt lat="-27.274439" lon="151.290064">
  <ele>343.09</ele>
  <time>2026-09-01T19:51:27Z</time>
  <course>10.71</course>
  <speed>0.0</speed>
  <fix>3d</fix>
</trkpt>
<trkpt lat="-27.274439" lon="151.290064">
  <ele>343.1</ele>
  <time>2026-09-01T19:51:27Z</time>
  <course>270.0</course>
  <speed>0.0</speed>
  <fix>3d</fix>
</trkpt>
<trkpt lat="-27.274439" lon="151.290064">
  <ele>343.09</ele>
  <time>2026-09-01T19:51:27Z</time>
  <course>10.71</course>
  <speed>0.0</speed>
  <fix>3d</fix>
</trkpt>
<trkpt lat="-27.274439" lon="151.290064">
  <ele>343.1</ele>
  <time>2026-09-01T19:51:27Z</time>
  <course>270.0</course>
  <speed>0.0</speed>
  <fix>3d</fix>
</trkpt>
<trkpt lat="-27.274439" lon="151.290064">
  <ele>343.1</ele>
  <time>2026-09-01T19:51:27Z</time>
  <course>10.71</course>
  <speed>0.0</speed>
  <fix>3d</fix>
</trkpt>
<trkpt lat="-27.274439" lon="151.290064">
  <ele>343.1</ele>
  <time>2026-09-01T19:51:27Z</time>
  <course>270.0</course>
  <speed>0.0</speed>
  <fix>3d</fix>
</trkpt>
<trkpt lat="-27.274439" lon="151.290064">
  <ele>343.1</ele>
  <time>2026-09-01T19:51:27Z</time>
  <course>10.71</course>
  <speed>0.0</speed>
  <fix>3d</fix>
</trkpt>
<trkpt lat="-27.274439" lon="151.290064">
  <ele>343.1</ele>
  <time>2026-09-01T19:51:27Z</time>
  <course>270.0</course>
  <speed>0.0</speed>
  <fix>3d</fix>
</trkpt>
<trkpt lat="-27.274439" lon="151.290064">
  <ele>343.09</ele>
  <time>2026-09-01T19:51:27Z</time>
  <course>10.71</course>
  <speed>0.0</speed>
  <fix>3d</fix>
</trkpt>
<trkpt lat="-27.274439" lon="151.290064">
  <ele>343.1</ele>
  <time>2026-09-01T19:51:27Z</time>
  <course>270.0</course>
  <speed>0.0</speed>
  <fix>3d</fix>
</trkpt>
<trkpt lat="-27.274439" lon="151.290064">
  <ele>343.09</ele>
  <time>2026-09-01T19:51:27Z</time>
  <course>10.71</course>
  <speed>0.0</speed>
  <fix>3d</fix>
</trkpt>
<trkpt lat="-27.274439" lon="151.290064">
  <ele>343.1</ele>
  <time>2026-09-01T19:51:27Z</time>
  <course>270.0</course>
  <speed>0.0</speed>
  <fix>3d</fix>
</trkpt>
<trkpt lat="-27.274439" lon="151.290064">
  <ele>343.09</ele>
  <time>2026-09-01T19:51:27Z</time>
  <course>10.71</course>
  <speed>0.0</speed>
  <fix>3d</fix>
</trkpt>
<trkpt lat="-27.274439" lon="151.290064">
  <ele>343.1</ele>
  <time>2026-09-01T19:51:27Z</time>
  <course>270.0</course>
  <speed>0.0</speed>
  <fix>3d</fix>
</trkpt>
<trkpt lat="-27.274439" lon="151.290064">
  <ele>343.09</ele>
  <time>2026-09-01T19:51:27Z</time>
  <course>10.71</course>
  <speed>0.0</speed>
  <fix>3d</fix>
</trkpt>
<trkpt lat="-27.274439" lon="151.290064">
  <ele>343.1</ele>
  <time>2026-09-01T19:51:27Z</time>
  <course>270.0</course>
  <speed>0.0</speed>
  <fix>3d</fix>
</trkpt>
<trkpt lat="-27.274439" lon="151.290064">
  <ele>343.09</ele>
  <time>2026-09-01T19:51:27Z</time>
  <course>10.71</course>
  <speed>0.0</speed>
  <fix>3d</fix>
</trkpt>
<trkpt lat="-27.274439" lon="151.290064">
  <ele>343.1</ele>
  <time>2026-09-01T19:51:27Z</time>
  <course>270.0</course>
  <speed>0.0</speed>
  <fix>3d</fix>
</trkpt>
<trkpt lat="-27.274439" lon="151.290064">
  <ele>343.09</ele>
  <time>2026-09-01T19:51:27Z</time>
  <course>10.71</course>
  <speed>0.0</speed>
  <fix>3d</fix>
</trkpt>
<trkpt lat="-27.274439" lon="151.290064">
  <ele>343.1</ele>
  <time>2026-09-01T19:51:27Z</time>
  <course>270.0</course>
  <speed>0.0</speed>
  <fix>3d</fix>
</trkpt>
<trkpt lat="-27.274439" lon="151.290064">
  <ele>343.09</ele>
  <time>2026-09-01T19:51:27Z</time>
  <course>10.71</course>
  <speed>0.0</speed>
  <fix>3d</fix>
</trkpt>
<trkpt lat="-27.274439" lon="151.290064">
  <ele>343.1</ele>
  <time>2026-09-01T19:51:27Z</time>
  <course>270.0</course>
  <speed>0.0</speed>
  <fix>3d</fix>
</trkpt>
<trkpt lat="-27.274439" lon="151.290064">
  <ele>343.09</ele>
  <time>2026-09-01T19:51:27Z</time>
  <course>10.71</course>
  <speed>0.0</speed>
  <fix>3d</fix>
</trkpt>
<trkpt lat="-27.274439" lon="151.290064">
  <ele>343.1</ele>
  <time>2026-09-01T19:51:27Z</time>
  <course>270.0</course>
  <speed>0.0</speed>
  <fix>3d</fix>
</trkpt>
<trkpt lat="-27.274439" lon="151.290064">
  <ele>343.1</ele>
  <time>2026-09-01T19:51:27Z</time>
  <course>10.71</course>
  <speed>0.0</speed>
  <fix>3d</fix>
</trkpt>
<trkpt lat="-27.274439" lon="151.290064">
  <ele>343.1</ele>
  <time>2026-09-01T19:51:27Z</time>
  <course>270.0</course>
  <speed>0.0</speed>
  <fix>3d</fix>
</trkpt>
<trkpt lat="-27.274439" lon="151.290064">
  <ele>343.1</ele>
  <time>2026-09-01T19:51:27Z</time>
  <course>10.71</course>
  <speed>0.0</speed>
  <fix>3d</fix>
</trkpt>
<trkpt lat="-27.274439" lon="151.290064">
  <ele>343.1</ele>
  <time>2026-09-01T19:51:27Z</time>
  <course>270.0</course>
  <speed>0.0</speed>
  <fix>3d</fix>
</trkpt>
<trkpt lat="-27.274439" lon="151.290064">
  <ele>343.1</ele>
  <time>2026-09-01T19:51:27Z</time>
  <course>10.71</course>
  <speed>0.0</speed>
  <fix>3d</fix>
</trkpt>
<trkpt lat="-27.274439" lon="151.290064">
  <ele>343.1</ele>
  <time>2026-09-01T19:51:27Z</time>
  <course>270.0</course>
  <speed>0.0</speed>
  <fix>3d</fix>
</trkpt>
<trkpt lat="-27.274439" lon="151.290064">
  <ele>343.1</ele>
  <time>2026-09-01T19:51:27Z</time>
  <course>10.71</course>
  <speed>0.0</speed>
  <fix>3d</fix>
</trkpt>
<trkpt lat="-27.274439" lon="151.290064">
  <ele>343.1</ele>
  <time>2026-09-01T19:51:27Z</time>
  <course>270.0</course>
  <speed>0.0</speed>
  <fix>3d</fix>
</trkpt>
<trkpt lat="-27.274439" lon="151.290064">
  <ele>343.11</ele>
  <time>2026-09-01T19:51:27Z</time>
  <course>10.71</course>
  <speed>0.0</speed>
  <fix>3d</fix>
</trkpt>
<trkpt lat="-27.274439" lon="151.290064">
  <ele>343.1</ele>
  <time>2026-09-01T19:51:27Z</time>
  <course>270.0</course>
  <speed>0.0</speed>
  <fix>3d</fix>
</trkpt>
<trkpt lat="-27.274439" lon="151.290064">
  <ele>343.11</ele>
  <time>2026-09-01T19:51:27Z</time>
  <course>10.71</course>
  <speed>0.0</speed>
  <fix>3d</fix>
</trkpt>
<trkpt lat="-27.274439" lon="151.290064">
  <ele>343.1</ele>
  <time>2026-09-01T19:51:27Z</time>
  <course>270.0</course>
  <speed>0.0</speed>
  <fix>3d</fix>
</trkpt>
<trkpt lat="-27.274439" lon="151.290064">
  <ele>343.11</ele>
  <time>2026-09-01T19:51:27Z</time>
  <course>10.71</course>
  <speed>0.0</speed>
  <fix>3d</fix>
</trkpt>
<trkpt lat="-27.274439" lon="151.290064">
  <ele>343.1</ele>
  <time>2026-09-01T19:51:27Z</time>
  <course>270.0</course>
  <speed>0.0</speed>
  <fix>3d</fix>
</trkpt>
<trkpt lat="-27.274439" lon="151.290064">
  <ele>343.11</ele>
  <time>2026-09-01T19:51:27Z</time>
  <course>10.71</course>
  <speed>0.0</speed>
  <fix>3d</fix>
</trkpt>
<trkpt lat="-27.274439" lon="151.290064">
  <ele>343.1</ele>
  <time>2026-09-01T19:51:27Z</time>
  <course>270.0</course>
  <speed>0.0</speed>
  <fix>3d</fix>
</trkpt>
<trkpt lat="-27.274439" lon="151.290064">
  <ele>343.12</ele>
  <time>2026-09-01T19:51:27Z</time>
  <course>10.71</course>
  <speed>0.0</speed>
  <fix>3d</fix>
</trkpt>
<trkpt lat="-27.274439" lon="151.290064">
  <ele>343.1</ele>
  <time>2026-09-01T19:51:27Z</time>
  <course>270.0</course>
  <speed>0.0</speed>
  <fix>3d</fix>
</trkpt>
<trkpt lat="-27.274439" lon="151.290064">
  <ele>343.12</ele>
  <time>2026-09-01T19:51:27Z</time>
  <course>10.71</course>
  <speed>0.0</speed>
  <fix>3d</fix>
</trkpt>
<trkpt lat="-27.274439" lon="151.290064">
  <ele>343.1</ele>
  <time>2026-09-01T19:51:27Z</time>
  <course>270.0</course>
  <speed>0.0</speed>
  <fix>3d</fix>
</trkpt>
<trkpt lat="-27.274439" lon="151.290064">
  <ele>343.12</ele>
  <time>2026-09-01T19:51:27Z</time>
  <course>10.71</course>
  <speed>0.0</speed>
  <fix>3d</fix>
</trkpt>
<trkpt lat="-27.274439" lon="151.290064">
  <ele>343.1</ele>
  <time>2026-09-01T19:51:27Z</time>
  <course>270.0</course>
  <speed>0.0</speed>
  <fix>3d</fix>
</trkpt>
<trkpt lat="-27.274439" lon="151.290064">
  <ele>343.12</ele>
  <time>2026-09-01T19:51:27Z</time>
  <course>10.71</course>
  <speed>0.0</speed>
  <fix>3d</fix>
</trkpt>
<trkpt lat="-27.274439" lon="151.290064">
  <ele>343.1</ele>
  <time>2026-09-01T19:51:27Z</time>
  <course>270.0</course>
  <speed>0.0</speed>
  <fix>3d</fix>
</trkpt>
<trkpt lat="-27.274439" lon="151.290064">
  <ele>343.12</ele>
  <time>2026-09-01T19:51:27Z</time>
  <course>10.71</course>
  <speed>0.0</speed>
  <fix>3d</fix>
</trkpt>
<trkpt lat="-27.274439" lon="151.290064">
  <ele>343.1</ele>
  <time>2026-09-01T19:51:27Z</time>
  <course>270.0</course>
  <speed>0.0</speed>
  <fix>3d</fix>
</trkpt>
<trkpt lat="-27.274439" lon="151.290064">
  <ele>343.13</ele>
  <time>2026-09-01T19:51:27Z</time>
  <course>10.71</course>
  <speed>0.0</speed>
  <fix>3d</fix>
</trkpt>
<trkpt lat="-27.274439" lon="151.290064">
  <ele>343.1</ele>
  <time>2026-09-01T19:51:27Z</time>
  <course>270.0</course>
  <speed>0.0</speed>
  <fix>3d</fix>
</trkpt>
<trkpt lat="-27.274439" lon="151.290064">
  <ele>343.13</ele>
  <time>2026-09-01T19:51:27Z</time>
  <course>10.71</course>
  <speed>0.0</speed>
  <fix>3d</fix>
</trkpt>
<trkpt lat="-27.274439" lon="151.290064">
  <ele>343.1</ele>
  <time>2026-09-01T19:51:27Z</time>
  <course>270.0</course>
  <speed>0.0</speed>
  <fix>3d</fix>
</trkpt>
<trkpt lat="-27.274439" lon="151.290064">
  <ele>343.13</ele>
  <time>2026-09-01T19:51:27Z</time>
  <course>10.71</course>
  <speed>0.0</speed>
  <fix>3d</fix>
</trkpt>
<trkpt lat="-27.274439" lon="151.290064">
  <ele>343.1</ele>
  <time>2026-09-01T19:51:27Z</time>
  <course>270.0</course>
  <speed>0.0</speed>
  <fix>3d</fix>
</trkpt>
<trkpt lat="-27.274439" lon="151.290064">
  <ele>343.13</ele>
  <time>2026-09-01T19:51:27Z</time>
  <course>10.71</course>
  <speed>0.0</speed>
  <fix>3d</fix>
</trkpt>
<trkpt lat="-27.274439" lon="151.290064">
  <ele>343.1</ele>
  <time>2026-09-01T19:51:27Z</time>
  <course>270.0</course>
  <speed>0.0</speed>
  <fix>3d</fix>
</trkpt>
<trkpt lat="-27.274439" lon="151.290064">
  <ele>343.14</ele>
  <time>2026-09-01T19:51:27Z</time>
  <course>10.71</course>
  <speed>0.0</speed>
  <fix>3d</fix>
</trkpt>
<trkpt lat="-27.274439" lon="151.290064">
  <ele>343.1</ele>
  <time>2026-09-01T19:51:27Z</time>
  <course>270.0</course>
  <speed>0.0</speed>
  <fix>3d</fix>
</trkpt>
<trkpt lat="-27.274439" lon="151.290064">
  <ele>343.14</ele>
  <time>2026-09-01T19:51:27Z</time>
  <course>10.71</course>
  <speed>0.0</speed>
  <fix>3d</fix>
</trkpt>
<trkpt lat="-27.274439" lon="151.290064">
  <ele>343.1</ele>
  <time>2026-09-01T19:51:27Z</time>
  <course>270.0</course>
  <speed>0.0</speed>
  <fix>3d</fix>
</trkpt>
<trkpt lat="-27.274439" lon="151.290064">
  <ele>343.14</ele>
  <time>2026-09-01T19:51:27Z</time>
  <course>10.71</course>
  <speed>0.0</speed>
  <fix>3d</fix>
</trkpt>
<trkpt lat="-27.274439" lon="151.290064">
  <ele>343.1</ele>
  <time>2026-09-01T19:51:27Z</time>
  <course>270.0</course>
  <speed>0.0</speed>
  <fix>3d</fix>
</trkpt>
<trkpt lat="-27.274439" lon="151.290064">
  <ele>343.14</ele>
  <time>2026-09-01T19:51:27Z</time>
  <course>10.71</course>
  <speed>0.0</speed>
  <fix>3d</fix>
</trkpt>
<trkpt lat="-27.274439" lon="151.290064">
  <ele>343.1</ele>
  <time>2026-09-01T19:51:27Z</time>
  <course>270.0</course>
  <speed>0.0</speed>
  <fix>3d</fix>
</trkpt>
<trkpt lat="-27.274439" lon="151.290064">
  <ele>343.14</ele>
  <time>2026-09-01T19:51:27Z</time>
  <course>10.71</course>
  <speed>0.0</speed>
  <fix>3d</fix>
</trkpt>
<trkpt lat="-27.274439" lon="151.290064">
  <ele>343.1</ele>
  <time>2026-09-01T19:51:27Z</time>
  <course>270.0</course>
  <speed>0.0</speed>
  <fix>3d</fix>
</trkpt>
<trkpt lat="-27.274439" lon="151.290064">
  <ele>343.14</ele>
  <time>2026-09-01T19:51:27Z</time>
  <course>10.71</course>
  <speed>0.0</speed>
  <fix>3d</fix>
</trkpt>
<trkpt lat="-27.274439" lon="151.290064">
  <ele>343.1</ele>
  <time>2026-09-01T19:51:27Z</time>
  <course>270.0</course>
  <speed>0.0</speed>
  <fix>3d</fix>
</trkpt>
<trkpt lat="-27.274439" lon="151.290064">
  <ele>343.14</ele>
  <time>2026-09-01T19:51:27Z</time>
  <course>10.71</course>
  <speed>0.0</speed>
  <fix>3d</fix>
</trkpt>
<trkpt lat="-27.274439" lon="151.290064">
  <ele>343.1</ele>
  <time>2026-09-01T19:51:27Z</time>
  <course>270.0</course>
  <speed>0.0</speed>
  <fix>3d</fix>
</trkpt>
<trkpt lat="-27.274439" lon="151.290064">
  <ele>343.14</ele>
  <time>2026-09-01T19:51:27Z</time>
  <course>10.71</course>
  <speed>0.0</speed>
  <fix>3d</fix>
</trkpt>
<trkpt lat="-27.274439" lon="151.290064">
  <ele>343.1</ele>
  <time>2026-09-01T19:51:27Z</time>
  <course>270.0</course>
  <speed>0.0</speed>
  <fix>3d</fix>
</trkpt>
<trkpt lat="-27.274439" lon="151.290064">
  <ele>343.13</ele>
  <time>2026-09-01T19:51:27Z</time>
  <course>10.71</course>
  <speed>0.0</speed>
  <fix>3d</fix>
</trkpt>
<trkpt lat="-27.274439" lon="151.290064">
  <ele>343.1</ele>
  <time>2026-09-01T19:51:27Z</time>
  <course>270.0</course>
  <speed>0.0</speed>
  <fix>3d</fix>
</trkpt>
<trkpt lat="-27.274439" lon="151.290064">
  <ele>343.13</ele>
  <time>2026-09-01T19:51:27Z</time>
  <course>10.71</course>
  <speed>0.0</speed>
  <fix>3d</fix>
</trkpt>
<trkpt lat="-27.274439" lon="151.290064">
  <ele>343.1</ele>
  <time>2026-09-01T19:51:27Z</time>
  <course>270.0</course>
  <speed>0.0</speed>
  <fix>3d</fix>
</trkpt>
<trkpt lat="-27.274439" lon="151.290064">
  <ele>343.13</ele>
  <time>2026-09-01T19:51:27Z</time>
  <course>10.71</course>
  <speed>0.0</speed>
  <fix>3d</fix>
</trkpt>
<trkpt lat="-27.274439" lon="151.290064">
  <ele>343.1</ele>
  <time>2026-09-01T19:51:27Z</time>
  <course>270.0</course>
  <speed>0.0</speed>
  <fix>3d</fix>
</trkpt>
<trkpt lat="-27.274439" lon="151.290064">
  <ele>343.13</ele>
  <time>2026-09-01T19:51:27Z</time>
  <course>10.71</course>
  <speed>0.0</speed>
  <fix>3d</fix>
</trkpt>
<trkpt lat="-27.274439" lon="151.290064">
  <ele>343.1</ele>
  <time>2026-09-01T19:51:27Z</time>
  <course>270.0</course>
  <speed>0.0</speed>
  <fix>3d</fix>
</trkpt>
<trkpt lat="-27.274439" lon="151.290064">
  <ele>343.13</ele>
  <time>2026-09-01T19:51:27Z</time>
  <course>10.71</course>
  <speed>0.0</speed>
  <fix>3d</fix>
</trkpt>
<trkpt lat="-27.274439" lon="151.290064">
  <ele>343.1</ele>
  <time>2026-09-01T19:51:27Z</time>
  <course>270.0</course>
  <speed>0.0</speed>
  <fix>3d</fix>
</trkpt>
<trkpt lat="-27.274439" lon="151.290064">
  <ele>343.13</ele>
  <time>2026-09-01T19:51:27Z</time>
  <course>10.71</course>
  <speed>0.0</speed>
  <fix>3d</fix>
</trkpt>
<trkpt lat="-27.274439" lon="151.290064">
  <ele>343.1</ele>
  <time>2026-09-01T19:51:27Z</time>
  <course>270.0</course>
  <speed>0.0</speed>
  <fix>3d</fix>
</trkpt>
<trkpt lat="-27.274439" lon="151.290064">
  <ele>343.13</ele>
  <time>2026-09-01T19:51:27Z</time>
  <course>10.71</course>
  <speed>0.0</speed>
  <fix>3d</fix>
</trkpt>
<trkpt lat="-27.274439" lon="151.290064">
  <ele>343.1</ele>
  <time>2026-09-01T19:51:27Z</time>
  <course>270.0</course>
  <speed>0.0</speed>
  <fix>3d</fix>
</trkpt>
<trkpt lat="-27.274439" lon="151.290064">
  <ele>343.13</ele>
  <time>2026-09-01T19:51:27Z</time>
  <course>10.71</course>
  <speed>0.0</speed>
  <fix>3d</fix>
</trkpt>
<trkpt lat="-27.274439" lon="151.290064">
  <ele>343.1</ele>
  <time>2026-09-01T19:51:27Z</time>
  <course>270.0</course>
  <speed>0.0</speed>
  <fix>3d</fix>
</trkpt>
<trkpt lat="-27.274439" lon="151.290064">
  <ele>343.14</ele>
  <time>2026-09-01T19:51:27Z</time>
  <course>10.71</course>
  <speed>0.0</speed>
  <fix>3d</fix>
</trkpt>
<trkpt lat="-27.274439" lon="151.290064">
  <ele>343.1</ele>
  <time>2026-09-01T19:51:27Z</time>
  <course>270.0</course>
  <speed>0.0</speed>
  <fix>3d</fix>
</trkpt>
<trkpt lat="-27.274439" lon="151.290064">
  <ele>343.14</ele>
  <time>2026-09-01T19:51:27Z</time>
  <course>10.71</course>
  <speed>0.0</speed>
  <fix>3d</fix>
</trkpt>
<trkpt lat="-27.274439" lon="151.290064">
  <ele>343.1</ele>
  <time>2026-09-01T19:51:27Z</time>
  <course>270.0</course>
  <speed>0.0</speed>
  <fix>3d</fix>
</trkpt>
<trkpt lat="-27.274439" lon="151.290064">
  <ele>343.14</ele>
  <time>2026-09-01T19:51:27Z</time>
  <course>10.71</course>
  <speed>0.0</speed>
  <fix>3d</fix>
</trkpt>
<trkpt lat="-27.274439" lon="151.290064">
  <ele>343.1</ele>
  <time>2026-09-01T19:51:27Z</time>
  <course>270.0</course>
  <speed>0.0</speed>
  <fix>3d</fix>
</trkpt>
<trkpt lat="-27.274439" lon="151.290064">
  <ele>343.14</ele>
  <time>2026-09-01T19:51:27Z</time>
  <course>10.71</course>
  <speed>0.0</speed>
  <fix>3d</fix>
</trkpt>
<trkpt lat="-27.274439" lon="151.290064">
  <ele>343.1</ele>
  <time>2026-09-01T19:51:27Z</time>
  <course>270.0</course>
  <speed>0.0</speed>
  <fix>3d</fix>
</trkpt>
<trkpt lat="-27.274439" lon="151.290064">
  <ele>343.14</ele>
  <time>2026-09-01T19:51:27Z</time>
  <course>10.71</course>
  <speed>0.0</speed>
  <fix>3d</fix>
</trkpt>
<trkpt lat="-27.274439" lon="151.290064">
  <ele>343.1</ele>
  <time>2026-09-01T19:51:27Z</time>
  <course>270.0</course>
  <speed>0.0</speed>
  <fix>3d</fix>
</trkpt>
<trkpt lat="-27.274439" lon="151.290064">
  <ele>343.14</ele>
  <time>2026-09-01T19:51:27Z</time>
  <course>10.71</course>
  <speed>0.0</speed>
  <fix>3d</fix>
</trkpt>
<trkpt lat="-27.274439" lon="151.290064">
  <ele>343.1</ele>
  <time>2026-09-01T19:51:27Z</time>
  <course>270.0</course>
  <speed>0.0</speed>
  <fix>3d</fix>
</trkpt>
<trkpt lat="-27.274439" lon="151.290064">
  <ele>343.15</ele>
  <time>2026-09-01T19:51:27Z</time>
  <course>10.71</course>
  <speed>0.0</speed>
  <fix>3d</fix>
</trkpt>
<trkpt lat="-27.274439" lon="151.290064">
  <ele>343.1</ele>
  <time>2026-09-01T19:51:27Z</time>
  <course>270.0</course>
  <speed>0.0</speed>
  <fix>3d</fix>
</trkpt>
<trkpt lat="-27.274439" lon="151.290064">
  <ele>343.15</ele>
  <time>2026-09-01T19:51:27Z</time>
  <course>10.71</course>
  <speed>0.0</speed>
  <fix>3d</fix>
</trkpt>
<trkpt lat="-27.274439" lon="151.290064">
  <ele>343.1</ele>
  <time>2026-09-01T19:51:27Z</time>
  <course>270.0</course>
  <speed>0.0</speed>
  <fix>3d</fix>
</trkpt>
<trkpt lat="-27.274439" lon="151.290064">
  <ele>343.15</ele>
  <time>2026-09-01T19:51:27Z</time>
  <course>10.71</course>
  <speed>0.0</speed>
  <fix>3d</fix>
</trkpt>
<trkpt lat="-27.274439" lon="151.290064">
  <ele>343.1</ele>
  <time>2026-09-01T19:51:27Z</time>
  <course>270.0</course>
  <speed>0.0</speed>
  <fix>3d</fix>
</trkpt>
<trkpt lat="-27.274439" lon="151.290064">
  <ele>343.15</ele>
  <time>2026-09-01T19:51:28Z</time>
  <course>10.71</course>
  <speed>0.0</speed>
  <fix>3d</fix>
</trkpt>
<trkpt lat="-27.274439" lon="151.290064">
  <ele>343.1</ele>
  <time>2026-09-01T19:51:28Z</time>
  <course>270.0</course>
  <speed>0.0</speed>
  <fix>3d</fix>
</trkpt>
<trkpt lat="-27.274439" lon="151.290064">
  <ele>343.15</ele>
  <time>2026-09-01T19:51:28Z</time>
  <course>10.71</course>
  <speed>0.0</speed>
  <fix>3d</fix>
</trkpt>
<trkpt lat="-27.274439" lon="151.290064">
  <ele>343.1</ele>
  <time>2026-09-01T19:51:28Z</time>
  <course>270.0</course>
  <speed>0.0</speed>
  <fix>3d</fix>
</trkpt>
<trkpt lat="-27.274439" lon="151.290064">
  <ele>343.1</ele>
  <time>2026-09-01T19:51:28Z</time>
  <course>10.71</course>
  <speed>0.0</speed>
  <fix>3d</fix>
</trkpt>
<trkpt lat="-27.274439" lon="151.290064">
  <ele>343.1</ele>
  <time>2026-09-01T19:51:28Z</time>
  <course>270.0</course>
  <speed>0.0</speed>
  <fix>3d</fix>
</trkpt>
<trkpt lat="-27.274439" lon="151.290064">
  <ele>343.1</ele>
  <time>2026-09-01T19:51:28Z</time>
  <course>10.71</course>
  <speed>0.0</speed>
  <fix>3d</fix>
</trkpt>
<trkpt lat="-27.274439" lon="151.290064">
  <ele>343.1</ele>
  <time>2026-09-01T19:51:28Z</time>
  <course>270.0</course>
  <speed>0.0</speed>
  <fix>3d</fix>
</trkpt>
<trkpt lat="-27.274439" lon="151.290064">
  <ele>343.1</ele>
  <time>2026-09-01T19:51:28Z</time>
  <course>10.71</course>
  <speed>0.0</speed>
  <fix>3d</fix>
</trkpt>
<trkpt lat="-27.274439" lon="151.290064">
  <ele>343.1</ele>
  <time>2026-09-01T19:51:28Z</time>
  <course>270.0</course>
  <speed>0.0</speed>
  <fix>3d</fix>
</trkpt>
<trkpt lat="-27.274439" lon="151.290064">
  <ele>343.1</ele>
  <time>2026-09-01T19:51:28Z</time>
  <course>10.71</course>
  <speed>0.0</speed>
  <fix>3d</fix>
</trkpt>
<trkpt lat="-27.274439" lon="151.290064">
  <ele>343.1</ele>
  <time>2026-09-01T19:51:28Z</time>
  <course>270.0</course>
  <speed>0.0</speed>
  <fix>3d</fix>
</trkpt>
<trkpt lat="-27.274439" lon="151.290064">
  <ele>343.09</ele>
  <time>2026-09-01T19:51:28Z</time>
  <course>10.71</course>
  <speed>0.0</speed>
  <fix>3d</fix>
</trkpt>
<trkpt lat="-27.274439" lon="151.290064">
  <ele>343.1</ele>
  <time>2026-09-01T19:51:28Z</time>
  <course>270.0</course>
  <speed>0.0</speed>
  <fix>3d</fix>
</trkpt>
<trkpt lat="-27.274439" lon="151.290064">
  <ele>343.09</ele>
  <time>2026-09-01T19:51:28Z</time>
  <course>10.71</course>
  <speed>0.0</speed>
  <fix>3d</fix>
</trkpt>
<trkpt lat="-27.274439" lon="151.290064">
  <ele>343.1</ele>
  <time>2026-09-01T19:51:28Z</time>
  <course>270.0</course>
  <speed>0.0</speed>
  <fix>3d</fix>
</trkpt>
<trkpt lat="-27.274439" lon="151.290064">
  <ele>343.08</ele>
  <time>2026-09-01T19:51:28Z</time>
  <course>10.71</course>
  <speed>0.0</speed>
  <fix>3d</fix>
</trkpt>
<trkpt lat="-27.274439" lon="151.290064">
  <ele>343.1</ele>
  <time>2026-09-01T19:51:28Z</time>
  <course>270.0</course>
  <speed>0.0</speed>
  <fix>3d</fix>
</trkpt>
<trkpt lat="-27.274439" lon="151.290064">
  <ele>343.08</ele>
  <time>2026-09-01T19:51:28Z</time>
  <course>10.71</course>
  <speed>0.0</speed>
  <fix>3d</fix>
</trkpt>
<trkpt lat="-27.274439" lon="151.290064">
  <ele>343.1</ele>
  <time>2026-09-01T19:51:28Z</time>
  <course>270.0</course>
  <speed>0.0</speed>
  <fix>3d</fix>
</trkpt>
<trkpt lat="-27.274439" lon="151.290064">
  <ele>343.07</ele>
  <time>2026-09-01T19:51:28Z</time>
  <course>10.71</course>
  <speed>0.0</speed>
  <fix>3d</fix>
</trkpt>
<trkpt lat="-27.274439" lon="151.290064">
  <ele>343.1</ele>
  <time>2026-09-01T19:51:28Z</time>
  <course>270.0</course>
  <speed>0.0</speed>
  <fix>3d</fix>
</trkpt>
<trkpt lat="-27.274439" lon="151.290064">
  <ele>343.07</ele>
  <time>2026-09-01T19:51:28Z</time>
  <course>10.71</course>
  <speed>0.0</speed>
  <fix>3d</fix>
</trkpt>
<trkpt lat="-27.274439" lon="151.290064">
  <ele>343.1</ele>
  <time>2026-09-01T19:51:28Z</time>
  <course>270.0</course>
  <speed>0.0</speed>
  <fix>3d</fix>
</trkpt>
<trkpt lat="-27.274439" lon="151.290064">
  <ele>343.06</ele>
  <time>2026-09-01T19:51:28Z</time>
  <course>10.71</course>
  <speed>0.0</speed>
  <fix>3d</fix>
</trkpt>
<trkpt lat="-27.274439" lon="151.290064">
  <ele>343.1</ele>
  <time>2026-09-01T19:51:28Z</time>
  <course>270.0</course>
  <speed>0.0</speed>
  <fix>3d</fix>
</trkpt>
<trkpt lat="-27.274439" lon="151.290064">
  <ele>343.06</ele>
  <time>2026-09-01T19:51:28Z</time>
  <course>10.71</course>
  <speed>0.0</speed>
  <fix>3d</fix>
</trkpt>
<trkpt lat="-27.274439" lon="151.290064">
  <ele>343.1</ele>
  <time>2026-09-01T19:51:28Z</time>
  <course>270.0</course>
  <speed>0.0</speed>
  <fix>3d</fix>
</trkpt>
<trkpt lat="-27.274439" lon="151.290064">
  <ele>343.05</ele>
  <time>2026-09-01T19:51:28Z</time>
  <course>10.71</course>
  <speed>0.0</speed>
  <fix>3d</fix>
</trkpt>
<trkpt lat="-27.274439" lon="151.290064">
  <ele>343.1</ele>
  <time>2026-09-01T19:51:28Z</time>
  <course>270.0</course>
  <speed>0.0</speed>
  <fix>3d</fix>
</trkpt>
<trkpt lat="-27.274439" lon="151.290064">
  <ele>343.05</ele>
  <time>2026-09-01T19:51:28Z</time>
  <course>10.71</course>
  <speed>0.0</speed>
  <fix>3d</fix>
</trkpt>
<trkpt lat="-27.274439" lon="151.290064">
  <ele>343.1</ele>
  <time>2026-09-01T19:51:28Z</time>
  <course>270.0</course>
  <speed>0.0</speed>
  <fix>3d</fix>
</trkpt>
<trkpt lat="-27.274439" lon="151.290064">
  <ele>343.04</ele>
  <time>2026-09-01T19:51:28Z</time>
  <course>10.71</course>
  <speed>0.0</speed>
  <fix>3d</fix>
</trkpt>
<trkpt lat="-27.274439" lon="151.290064">
  <ele>343.1</ele>
  <time>2026-09-01T19:51:28Z</time>
  <course>270.0</course>
  <speed>0.0</speed>
  <fix>3d</fix>
</trkpt>
<trkpt lat="-27.274439" lon="151.290064">
  <ele>343.03</ele>
  <time>2026-09-01T19:51:28Z</time>
  <course>10.71</course>
  <speed>0.0</speed>
  <fix>3d</fix>
</trkpt>
<trkpt lat="-27.274439" lon="151.290064">
  <ele>343.1</ele>
  <time>2026-09-01T19:51:28Z</time>
  <course>270.0</course>
  <speed>0.0</speed>
  <fix>3d</fix>
</trkpt>
<trkpt lat="-27.274439" lon="151.290064">
  <ele>343.03</ele>
  <time>2026-09-01T19:51:28Z</time>
  <course>10.71</course>
  <speed>0.0</speed>
  <fix>3d</fix>
</trkpt>
<trkpt lat="-27.274439" lon="151.290064">
  <ele>343.1</ele>
  <time>2026-09-01T19:51:28Z</time>
  <course>270.0</course>
  <speed>0.0</speed>
  <fix>3d</fix>
</trkpt>
<trkpt lat="-27.274439" lon="151.290064">
  <ele>343.02</ele>
  <time>2026-09-01T19:51:28Z</time>
  <course>10.71</course>
  <speed>0.0</speed>
  <fix>3d</fix>
</trkpt>
<trkpt lat="-27.274439" lon="151.290064">
  <ele>343.1</ele>
  <time>2026-09-01T19:51:28Z</time>
  <course>270.0</course>
  <speed>0.0</speed>
  <fix>3d</fix>
</trkpt>
<trkpt lat="-27.274439" lon="151.290064">
  <ele>343.02</ele>
  <time>2026-09-01T19:51:28Z</time>
  <course>10.71</course>
  <speed>0.0</speed>
  <fix>3d</fix>
</trkpt>
<trkpt lat="-27.274439" lon="151.290064">
  <ele>343.1</ele>
  <time>2026-09-01T19:51:28Z</time>
  <course>270.0</course>
  <speed>0.0</speed>
  <fix>3d</fix>
</trkpt>
<trkpt lat="-27.274439" lon="151.290064">
  <ele>343.01</ele>
  <time>2026-09-01T19:51:28Z</time>
  <course>10.71</course>
  <speed>0.0</speed>
  <fix>3d</fix>
</trkpt>
<trkpt lat="-27.274439" lon="151.290064">
  <ele>343.1</ele>
  <time>2026-09-01T19:51:28Z</time>
  <course>270.0</course>
  <speed>0.0</speed>
  <fix>3d</fix>
</trkpt>
<trkpt lat="-27.274439" lon="151.290064">
  <ele>343.0</ele>
  <time>2026-09-01T19:51:28Z</time>
  <course>10.71</course>
  <speed>0.0</speed>
  <fix>3d</fix>
</trkpt>
<trkpt lat="-27.274439" lon="151.290064">
  <ele>343.1</ele>
  <time>2026-09-01T19:51:28Z</time>
  <course>270.0</course>
  <speed>0.0</speed>
  <fix>3d</fix>
</trkpt>
<trkpt lat="-27.274439" lon="151.290064">
  <ele>343.0</ele>
  <time>2026-09-01T19:51:28Z</time>
  <course>10.71</course>
  <speed>0.0</speed>
  <fix>3d</fix>
</trkpt>
<trkpt lat="-27.274439" lon="151.290064">
  <ele>343.1</ele>
  <time>2026-09-01T19:51:28Z</time>
  <course>270.0</course>
  <speed>0.0</speed>
  <fix>3d</fix>
</trkpt>
<trkpt lat="-27.274439" lon="151.290064">
  <ele>342.99</ele>
  <time>2026-09-01T19:51:28Z</time>
  <course>10.71</course>
  <speed>0.0</speed>
  <fix>3d</fix>
</trkpt>
<trkpt lat="-27.274439" lon="151.290064">
  <ele>343.1</ele>
  <time>2026-09-01T19:51:28Z</time>
  <course>270.0</course>
  <speed>0.0</speed>
  <fix>3d</fix>
</trkpt>
<trkpt lat="-27.274439" lon="151.290064">
  <ele>342.99</ele>
  <time>2026-09-01T19:51:28Z</time>
  <course>10.71</course>
  <speed>0.0</speed>
  <fix>3d</fix>
</trkpt>
<trkpt lat="-27.274439" lon="151.290064">
  <ele>343.1</ele>
  <time>2026-09-01T19:51:28Z</time>
  <course>270.0</course>
  <speed>0.0</speed>
  <fix>3d</fix>
</trkpt>
<trkpt lat="-27.274439" lon="151.290064">
  <ele>342.99</ele>
  <time>2026-09-01T19:51:28Z</time>
  <course>10.71</course>
  <speed>0.0</speed>
  <fix>3d</fix>
</trkpt>
<trkpt lat="-27.274439" lon="151.290064">
  <ele>343.1</ele>
  <time>2026-09-01T19:51:28Z</time>
  <course>270.0</course>
  <speed>0.0</speed>
  <fix>3d</fix>
</trkpt>
<trkpt lat="-27.274439" lon="151.290064">
  <ele>342.99</ele>
  <time>2026-09-01T19:51:28Z</time>
  <course>10.71</course>
  <speed>0.0</speed>
  <fix>3d</fix>
</trkpt>
<trkpt lat="-27.274439" lon="151.290064">
  <ele>343.1</ele>
  <time>2026-09-01T19:51:28Z</time>
  <course>270.0</course>
  <speed>0.0</speed>
  <fix>3d</fix>
</trkpt>
<trkpt lat="-27.274439" lon="151.290064">
  <ele>342.99</ele>
  <time>2026-09-01T19:51:28Z</time>
  <course>10.71</course>
  <speed>0.0</speed>
  <fix>3d</fix>
</trkpt>
<trkpt lat="-27.274439" lon="151.290064">
  <ele>343.1</ele>
  <time>2026-09-01T19:51:28Z</time>
  <course>270.0</course>
  <speed>0.0</speed>
  <fix>3d</fix>
</trkpt>
<trkpt lat="-27.274439" lon="151.290064">
  <ele>342.98</ele>
  <time>2026-09-01T19:51:28Z</time>
  <course>10.71</course>
  <speed>0.0</speed>
  <fix>3d</fix>
</trkpt>
<trkpt lat="-27.274439" lon="151.290064">
  <ele>343.1</ele>
  <time>2026-09-01T19:51:28Z</time>
  <course>270.0</course>
  <speed>0.0</speed>
  <fix>3d</fix>
</trkpt>
<trkpt lat="-27.274439" lon="151.290064">
  <ele>342.98</ele>
  <time>2026-09-01T19:51:28Z</time>
  <course>10.71</course>
  <speed>0.0</speed>
  <fix>3d</fix>
</trkpt>
<trkpt lat="-27.274439" lon="151.290064">
  <ele>343.1</ele>
  <time>2026-09-01T19:51:28Z</time>
  <course>270.0</course>
  <speed>0.0</speed>
  <fix>3d</fix>
</trkpt>
<trkpt lat="-27.274439" lon="151.290064">
  <ele>342.98</ele>
  <time>2026-09-01T19:51:28Z</time>
  <course>10.71</course>
  <speed>0.0</speed>
  <fix>3d</fix>
</trkpt>
<trkpt lat="-27.274439" lon="151.290064">
  <ele>343.1</ele>
  <time>2026-09-01T19:51:28Z</time>
  <course>270.0</course>
  <speed>0.0</speed>
  <fix>3d</fix>
</trkpt>
<trkpt lat="-27.274439" lon="151.290064">
  <ele>342.98</ele>
  <time>2026-09-01T19:51:28Z</time>
  <course>10.71</course>
  <speed>0.0</speed>
  <fix>3d</fix>
</trkpt>
<trkpt lat="-27.274439" lon="151.290064">
  <ele>343.1</ele>
  <time>2026-09-01T19:51:28Z</time>
  <course>270.0</course>
  <speed>0.0</speed>
  <fix>3d</fix>
</trkpt>
<trkpt lat="-27.274439" lon="151.290064">
  <ele>342.97</ele>
  <time>2026-09-01T19:51:28Z</time>
  <course>10.71</course>
  <speed>0.0</speed>
  <fix>3d</fix>
</trkpt>
<trkpt lat="-27.274439" lon="151.290064">
  <ele>343.1</ele>
  <time>2026-09-01T19:51:28Z</time>
  <course>270.0</course>
  <speed>0.0</speed>
  <fix>3d</fix>
</trkpt>
<trkpt lat="-27.274439" lon="151.290064">
  <ele>342.97</ele>
  <time>2026-09-01T19:51:28Z</time>
  <course>10.71</course>
  <speed>0.0</speed>
  <fix>3d</fix>
</trkpt>
<trkpt lat="-27.274439" lon="151.290064">
  <ele>343.1</ele>
  <time>2026-09-01T19:51:28Z</time>
  <course>270.0</course>
  <speed>0.0</speed>
  <fix>3d</fix>
</trkpt>
<trkpt lat="-27.274439" lon="151.290064">
  <ele>342.97</ele>
  <time>2026-09-01T19:51:28Z</time>
  <course>10.71</course>
  <speed>0.0</speed>
  <fix>3d</fix>
</trkpt>
<trkpt lat="-27.274439" lon="151.290064">
  <ele>343.1</ele>
  <time>2026-09-01T19:51:28Z</time>
  <course>270.0</course>
  <speed>0.0</speed>
  <fix>3d</fix>
</trkpt>
<trkpt lat="-27.274439" lon="151.290064">
  <ele>342.96</ele>
  <time>2026-09-01T19:51:28Z</time>
  <course>10.71</course>
  <speed>0.0</speed>
  <fix>3d</fix>
</trkpt>
<trkpt lat="-27.274439" lon="151.290064">
  <ele>343.1</ele>
  <time>2026-09-01T19:51:28Z</time>
  <course>270.0</course>
  <speed>0.0</speed>
  <fix>3d</fix>
</trkpt>
<trkpt lat="-27.274439" lon="151.290064">
  <ele>342.96</ele>
  <time>2026-09-01T19:51:28Z</time>
  <course>10.71</course>
  <speed>0.0</speed>
  <fix>3d</fix>
</trkpt>
<trkpt lat="-27.274439" lon="151.290064">
  <ele>343.1</ele>
  <time>2026-09-01T19:51:28Z</time>
  <course>270.0</course>
  <speed>0.0</speed>
  <fix>3d</fix>
</trkpt>
<trkpt lat="-27.274439" lon="151.290064">
  <ele>342.96</ele>
  <time>2026-09-01T19:51:28Z</time>
  <course>10.71</course>
  <speed>0.0</speed>
  <fix>3d</fix>
</trkpt>
<trkpt lat="-27.274439" lon="151.290064">
  <ele>343.1</ele>
  <time>2026-09-01T19:51:28Z</time>
  <course>270.0</course>
  <speed>0.0</speed>
  <fix>3d</fix>
</trkpt>
<trkpt lat="-27.274439" lon="151.290064">
  <ele>342.96</ele>
  <time>2026-09-01T19:51:28Z</time>
  <course>10.71</course>
  <speed>0.0</speed>
  <fix>3d</fix>
</trkpt>
<trkpt lat="-27.274439" lon="151.290064">
  <ele>343.1</ele>
  <time>2026-09-01T19:51:28Z</time>
  <course>270.0</course>
  <speed>0.0</speed>
  <fix>3d</fix>
</trkpt>
<trkpt lat="-27.274439" lon="151.290064">
  <ele>342.96</ele>
  <time>2026-09-01T19:51:28Z</time>
  <course>10.71</course>
  <speed>0.0</speed>
  <fix>3d</fix>
</trkpt>
<trkpt lat="-27.274439" lon="151.290064">
  <ele>343.1</ele>
  <time>2026-09-01T19:51:28Z</time>
  <course>270.0</course>
  <speed>0.0</speed>
  <fix>3d</fix>
</trkpt>
<trkpt lat="-27.274439" lon="151.290064">
  <ele>342.96</ele>
  <time>2026-09-01T19:51:28Z</time>
  <course>10.71</course>
  <speed>0.0</speed>
  <fix>3d</fix>
</trkpt>
<trkpt lat="-27.274439" lon="151.290064">
  <ele>343.1</ele>
  <time>2026-09-01T19:51:28Z</time>
  <course>270.0</course>
  <speed>0.0</speed>
  <fix>3d</fix>
</trkpt>
<trkpt lat="-27.274439" lon="151.290064">
  <ele>342.95</ele>
  <time>2026-09-01T19:51:28Z</time>
  <course>10.71</course>
  <speed>0.0</speed>
  <fix>3d</fix>
</trkpt>
<trkpt lat="-27.274439" lon="151.290064">
  <ele>343.1</ele>
  <time>2026-09-01T19:51:28Z</time>
  <course>270.0</course>
  <speed>0.0</speed>
  <fix>3d</fix>
</trkpt>
<trkpt lat="-27.274439" lon="151.290064">
  <ele>342.95</ele>
  <time>2026-09-01T19:51:28Z</time>
  <course>10.7</course>
  <speed>0.0</speed>
  <fix>3d</fix>
</trkpt>
<trkpt lat="-27.274439" lon="151.290064">
  <ele>343.1</ele>
  <time>2026-09-01T19:51:28Z</time>
  <course>270.0</course>
  <speed>0.0</speed>
  <fix>3d</fix>
</trkpt>
<trkpt lat="-27.274439" lon="151.290064">
  <ele>342.95</ele>
  <time>2026-09-01T19:51:28Z</time>
  <course>10.7</course>
  <speed>0.0</speed>
  <fix>3d</fix>
</trkpt>
<trkpt lat="-27.274439" lon="151.290064">
  <ele>343.1</ele>
  <time>2026-09-01T19:51:28Z</time>
  <course>270.0</course>
  <speed>0.0</speed>
  <fix>3d</fix>
</trkpt>
<trkpt lat="-27.274439" lon="151.290064">
  <ele>342.95</ele>
  <time>2026-09-01T19:51:28Z</time>
  <course>10.7</course>
  <speed>0.0</speed>
  <fix>3d</fix>
</trkpt>
<trkpt lat="-27.274439" lon="151.290064">
  <ele>343.1</ele>
  <time>2026-09-01T19:51:28Z</time>
  <course>270.0</course>
  <speed>0.0</speed>
  <fix>3d</fix>
</trkpt>
<trkpt lat="-27.274439" lon="151.290064">
  <ele>342.95</ele>
  <time>2026-09-01T19:51:28Z</time>
  <course>10.7</course>
  <speed>0.0</speed>
  <fix>3d</fix>
</trkpt>
<trkpt lat="-27.274439" lon="151.290064">
  <ele>343.1</ele>
  <time>2026-09-01T19:51:28Z</time>
  <course>270.0</course>
  <speed>0.0</speed>
  <fix>3d</fix>
</trkpt>
<trkpt lat="-27.274439" lon="151.290064">
  <ele>342.95</ele>
  <time>2026-09-01T19:51:28Z</time>
  <course>10.7</course>
  <speed>0.0</speed>
  <fix>3d</fix>
</trkpt>
<trkpt lat="-27.274439" lon="151.290064">
  <ele>343.1</ele>
  <time>2026-09-01T19:51:28Z</time>
  <course>270.0</course>
  <speed>0.0</speed>
  <fix>3d</fix>
</trkpt>
<trkpt lat="-27.274439" lon="151.290064">
  <ele>342.94</ele>
  <time>2026-09-01T19:51:28Z</time>
  <course>10.7</course>
  <speed>0.0</speed>
  <fix>3d</fix>
</trkpt>
<trkpt lat="-27.274439" lon="151.290064">
  <ele>343.1</ele>
  <time>2026-09-01T19:51:28Z</time>
  <course>270.0</course>
  <speed>0.0</speed>
  <fix>3d</fix>
</trkpt>
<trkpt lat="-27.274439" lon="151.290064">
  <ele>342.94</ele>
  <time>2026-09-01T19:51:28Z</time>
  <course>10.7</course>
  <speed>0.0</speed>
  <fix>3d</fix>
</trkpt>
<trkpt lat="-27.274439" lon="151.290064">
  <ele>343.1</ele>
  <time>2026-09-01T19:51:28Z</time>
  <course>270.0</course>
  <speed>0.0</speed>
  <fix>3d</fix>
</trkpt>
<trkpt lat="-27.274439" lon="151.290064">
  <ele>342.94</ele>
  <time>2026-09-01T19:51:28Z</time>
  <course>10.7</course>
  <speed>0.0</speed>
  <fix>3d</fix>
</trkpt>
<trkpt lat="-27.274439" lon="151.290064">
  <ele>343.1</ele>
  <time>2026-09-01T19:51:28Z</time>
  <course>270.0</course>
  <speed>0.0</speed>
  <fix>3d</fix>
</trkpt>
<trkpt lat="-27.274439" lon="151.290064">
  <ele>342.94</ele>
  <time>2026-09-01T19:51:28Z</time>
  <course>10.7</course>
  <speed>0.0</speed>
  <fix>3d</fix>
</trkpt>
<trkpt lat="-27.274439" lon="151.290064">
  <ele>343.1</ele>
  <time>2026-09-01T19:51:28Z</time>
  <course>270.0</course>
  <speed>0.0</speed>
  <fix>3d</fix>
</trkpt>
<trkpt lat="-27.274439" lon="151.290064">
  <ele>342.94</ele>
  <time>2026-09-01T19:51:28Z</time>
  <course>10.7</course>
  <speed>0.0</speed>
  <fix>3d</fix>
</trkpt>
<trkpt lat="-27.274439" lon="151.290064">
  <ele>343.1</ele>
  <time>2026-09-01T19:51:28Z</time>
  <course>270.0</course>
  <speed>0.0</speed>
  <fix>3d</fix>
</trkpt>
<trkpt lat="-27.274439" lon="151.290064">
  <ele>342.93</ele>
  <time>2026-09-01T19:51:28Z</time>
  <course>10.7</course>
  <speed>0.0</speed>
  <fix>3d</fix>
</trkpt>
<trkpt lat="-27.274439" lon="151.290064">
  <ele>343.1</ele>
  <time>2026-09-01T19:51:28Z</time>
  <course>270.0</course>
  <speed>0.0</speed>
  <fix>3d</fix>
</trkpt>
<trkpt lat="-27.274439" lon="151.290064">
  <ele>342.93</ele>
  <time>2026-09-01T19:51:28Z</time>
  <course>10.7</course>
  <speed>0.0</speed>
  <fix>3d</fix>
</trkpt>
<trkpt lat="-27.274439" lon="151.290064">
  <ele>343.1</ele>
  <time>2026-09-01T19:51:28Z</time>
  <course>270.0</course>
  <speed>0.0</speed>
  <fix>3d</fix>
</trkpt>
<trkpt lat="-27.274439" lon="151.290064">
  <ele>342.93</ele>
  <time>2026-09-01T19:51:28Z</time>
  <course>10.7</course>
  <speed>0.0</speed>
  <fix>3d</fix>
</trkpt>
<trkpt lat="-27.274439" lon="151.290064">
  <ele>343.1</ele>
  <time>2026-09-01T19:51:28Z</time>
  <course>270.0</course>
  <speed>0.0</speed>
  <fix>3d</fix>
</trkpt>
<trkpt lat="-27.274439" lon="151.290064">
  <ele>342.93</ele>
  <time>2026-09-01T19:51:28Z</time>
  <course>10.7</course>
  <speed>0.0</speed>
  <fix>3d</fix>
</trkpt>
<trkpt lat="-27.274439" lon="151.290064">
  <ele>343.1</ele>
  <time>2026-09-01T19:51:28Z</time>
  <course>270.0</course>
  <speed>0.0</speed>
  <fix>3d</fix>
</trkpt>
<trkpt lat="-27.274439" lon="151.290064">
  <ele>342.93</ele>
  <time>2026-09-01T19:51:28Z</time>
  <course>10.7</course>
  <speed>0.0</speed>
  <fix>3d</fix>
</trkpt>
<trkpt lat="-27.274439" lon="151.290064">
  <ele>343.1</ele>
  <time>2026-09-01T19:51:28Z</time>
  <course>270.0</course>
  <speed>0.0</speed>
  <fix>3d</fix>
</trkpt>
<trkpt lat="-27.274439" lon="151.290064">
  <ele>342.93</ele>
  <time>2026-09-01T19:51:28Z</time>
  <course>10.7</course>
  <speed>0.0</speed>
  <fix>3d</fix>
</trkpt>
<trkpt lat="-27.274439" lon="151.290064">
  <ele>343.1</ele>
  <time>2026-09-01T19:51:28Z</time>
  <course>270.0</course>
  <speed>0.0</speed>
  <fix>3d</fix>
</trkpt>
<trkpt lat="-27.274439" lon="151.290064">
  <ele>342.93</ele>
  <time>2026-09-01T19:51:28Z</time>
  <course>10.7</course>
  <speed>0.01</speed>
  <fix>3d</fix>
</trkpt>
<trkpt lat="-27.274439" lon="151.290064">
  <ele>343.1</ele>
  <time>2026-09-01T19:51:28Z</time>
  <course>270.0</course>
  <speed>0.0</speed>
  <fix>3d</fix>
</trkpt>
<trkpt lat="-27.274439" lon="151.290064">
  <ele>342.93</ele>
  <time>2026-09-01T19:51:28Z</time>
  <course>10.7</course>
  <speed>0.01</speed>
  <fix>3d</fix>
</trkpt>
<trkpt lat="-27.274439" lon="151.290064">
  <ele>343.1</ele>
  <time>2026-09-01T19:51:28Z</time>
  <course>270.0</course>
  <speed>0.0</speed>
  <fix>3d</fix>
</trkpt>
<trkpt lat="-27.274439" lon="151.290064">
  <ele>342.92</ele>
  <time>2026-09-01T19:51:28Z</time>
  <course>10.7</course>
  <speed>0.01</speed>
  <fix>3d</fix>
</trkpt>
<trkpt lat="-27.274439" lon="151.290064">
  <ele>343.1</ele>
  <time>2026-09-01T19:51:28Z</time>
  <course>270.0</course>
  <speed>0.0</speed>
  <fix>3d</fix>
</trkpt>
<trkpt lat="-27.274439" lon="151.290064">
  <ele>343.09</ele>
  <time>2026-09-01T19:51:28Z</time>
  <course>10.7</course>
  <speed>0.01</speed>
  <fix>3d</fix>
</trkpt>
<trkpt lat="-27.274439" lon="151.290064">
  <ele>343.1</ele>
  <time>2026-09-01T19:51:28Z</time>
  <course>270.0</course>
  <speed>0.0</speed>
  <fix>3d</fix>
</trkpt>
<trkpt lat="-27.274439" lon="151.290064">
  <ele>343.09</ele>
  <time>2026-09-01T19:51:28Z</time>
  <course>10.7</course>
  <speed>0.01</speed>
  <fix>3d</fix>
</trkpt>
<trkpt lat="-27.274439" lon="151.290064">
  <ele>343.1</ele>
  <time>2026-09-01T19:51:28Z</time>
  <course>270.0</course>
  <speed>0.0</speed>
  <fix>3d</fix>
</trkpt>
<trkpt lat="-27.274439" lon="151.290064">
  <ele>343.09</ele>
  <time>2026-09-01T19:51:28Z</time>
  <course>10.7</course>
  <speed>0.01</speed>
  <fix>3d</fix>
</trkpt>
<trkpt lat="-27.274439" lon="151.290064">
  <ele>343.1</ele>
  <time>2026-09-01T19:51:28Z</time>
  <course>270.0</course>
  <speed>0.0</speed>
  <fix>3d</fix>
</trkpt>
<trkpt lat="-27.274439" lon="151.290064">
  <ele>343.09</ele>
  <time>2026-09-01T19:51:28Z</time>
  <course>10.7</course>
  <speed>0.01</speed>
  <fix>3d</fix>
</trkpt>
<trkpt lat="-27.274439" lon="151.290064">
  <ele>343.1</ele>
  <time>2026-09-01T19:51:28Z</time>
  <course>270.0</course>
  <speed>0.0</speed>
  <fix>3d</fix>
</trkpt>
<trkpt lat="-27.274439" lon="151.290064">
  <ele>343.09</ele>
  <time>2026-09-01T19:51:28Z</time>
  <course>10.7</course>
  <speed>0.01</speed>
  <fix>3d</fix>
</trkpt>
<trkpt lat="-27.274439" lon="151.290064">
  <ele>343.1</ele>
  <time>2026-09-01T19:51:28Z</time>
  <course>270.0</course>
  <speed>0.0</speed>
  <fix>3d</fix>
</trkpt>
<trkpt lat="-27.274439" lon="151.290064">
  <ele>343.08</ele>
  <time>2026-09-01T19:51:28Z</time>
  <course>10.7</course>
  <speed>0.01</speed>
  <fix>3d</fix>
</trkpt>
<trkpt lat="-27.274439" lon="151.290064">
  <ele>343.1</ele>
  <time>2026-09-01T19:51:28Z</time>
  <course>270.0</course>
  <speed>0.0</speed>
  <fix>3d</fix>
</trkpt>
<trkpt lat="-27.274439" lon="151.290064">
  <ele>343.08</ele>
  <time>2026-09-01T19:51:28Z</time>
  <course>10.7</course>
  <speed>0.01</speed>
  <fix>3d</fix>
</trkpt>
<trkpt lat="-27.274439" lon="151.290064">
  <ele>343.1</ele>
  <time>2026-09-01T19:51:28Z</time>
  <course>270.0</course>
  <speed>0.0</speed>
  <fix>3d</fix>
</trkpt>
<trkpt lat="-27.274439" lon="151.290064">
  <ele>343.07</ele>
  <time>2026-09-01T19:51:28Z</time>
  <course>10.7</course>
  <speed>0.01</speed>
  <fix>3d</fix>
</trkpt>
<trkpt lat="-27.274439" lon="151.290064">
  <ele>343.1</ele>
  <time>2026-09-01T19:51:28Z</time>
  <course>270.0</course>
  <speed>0.0</speed>
  <fix>3d</fix>
</trkpt>
<trkpt lat="-27.274439" lon="151.290064">
  <ele>343.07</ele>
  <time>2026-09-01T19:51:28Z</time>
  <course>10.7</course>
  <speed>0.01</speed>
  <fix>3d</fix>
</trkpt>
<trkpt lat="-27.274439" lon="151.290064">
  <ele>343.1</ele>
  <time>2026-09-01T19:51:28Z</time>
  <course>270.0</course>
  <speed>0.0</speed>
  <fix>3d</fix>
</trkpt>
<trkpt lat="-27.274439" lon="151.290064">
  <ele>343.07</ele>
  <time>2026-09-01T19:51:28Z</time>
  <course>10.7</course>
  <speed>0.01</speed>
  <fix>3d</fix>
</trkpt>
<trkpt lat="-27.274439" lon="151.290064">
  <ele>343.1</ele>
  <time>2026-09-01T19:51:28Z</time>
  <course>270.0</course>
  <speed>0.0</speed>
  <fix>3d</fix>
</trkpt>
<trkpt lat="-27.274439" lon="151.290064">
  <ele>343.06</ele>
  <time>2026-09-01T19:51:28Z</time>
  <course>10.7</course>
  <speed>0.01</speed>
  <fix>3d</fix>
</trkpt>
<trkpt lat="-27.274439" lon="151.290064">
  <ele>343.1</ele>
  <time>2026-09-01T19:51:28Z</time>
  <course>270.0</course>
  <speed>0.0</speed>
  <fix>3d</fix>
</trkpt>
<trkpt lat="-27.274439" lon="151.290064">
  <ele>343.06</ele>
  <time>2026-09-01T19:51:28Z</time>
  <course>10.7</course>
  <speed>0.01</speed>
  <fix>3d</fix>
</trkpt>
<trkpt lat="-27.274439" lon="151.290064">
  <ele>343.1</ele>
  <time>2026-09-01T19:51:28Z</time>
  <course>270.0</course>
  <speed>0.0</speed>
  <fix>3d</fix>
</trkpt>
<trkpt lat="-27.274439" lon="151.290064">
  <ele>343.05</ele>
  <time>2026-09-01T19:51:28Z</time>
  <course>10.7</course>
  <speed>0.01</speed>
  <fix>3d</fix>
</trkpt>
<trkpt lat="-27.274439" lon="151.290064">
  <ele>343.1</ele>
  <time>2026-09-01T19:51:28Z</time>
  <course>270.0</course>
  <speed>0.0</speed>
  <fix>3d</fix>
</trkpt>
<trkpt lat="-27.274439" lon="151.290064">
  <ele>343.05</ele>
  <time>2026-09-01T19:51:28Z</time>
  <course>10.7</course>
  <speed>0.01</speed>
  <fix>3d</fix>
</trkpt>
<trkpt lat="-27.274439" lon="151.290064">
  <ele>343.1</ele>
  <time>2026-09-01T19:51:28Z</time>
  <course>270.0</course>
  <speed>0.0</speed>
  <fix>3d</fix>
</trkpt>
<trkpt lat="-27.274439" lon="151.290064">
  <ele>343.04</ele>
  <time>2026-09-01T19:51:28Z</time>
  <course>10.7</course>
  <speed>0.01</speed>
  <fix>3d</fix>
</trkpt>
<trkpt lat="-27.274439" lon="151.290064">
  <ele>343.1</ele>
  <time>2026-09-01T19:51:28Z</time>
  <course>270.0</course>
  <speed>0.0</speed>
  <fix>3d</fix>
</trkpt>
<trkpt lat="-27.274439" lon="151.290064">
  <ele>343.04</ele>
  <time>2026-09-01T19:51:28Z</time>
  <course>10.7</course>
  <speed>0.01</speed>
  <fix>3d</fix>
</trkpt>
<trkpt lat="-27.274439" lon="151.290064">
  <ele>343.1</ele>
  <time>2026-09-01T19:51:28Z</time>
  <course>270.0</course>
  <speed>0.0</speed>
  <fix>3d</fix>
</trkpt>
<trkpt lat="-27.274439" lon="151.290064">
  <ele>343.03</ele>
  <time>2026-09-01T19:51:28Z</time>
  <course>10.7</course>
  <speed>0.01</speed>
  <fix>3d</fix>
</trkpt>
<trkpt lat="-27.274439" lon="151.290064">
  <ele>343.1</ele>
  <time>2026-09-01T19:51:28Z</time>
  <course>270.0</course>
  <speed>0.0</speed>
  <fix>3d</fix>
</trkpt>
<trkpt lat="-27.274439" lon="151.290064">
  <ele>343.03</ele>
  <time>2026-09-01T19:51:28Z</time>
  <course>10.7</course>
  <speed>0.01</speed>
  <fix>3d</fix>
</trkpt>
<trkpt lat="-27.274439" lon="151.290064">
  <ele>343.1</ele>
  <time>2026-09-01T19:51:28Z</time>
  <course>270.0</course>
  <speed>0.0</speed>
  <fix>3d</fix>
</trkpt>
<trkpt lat="-27.274439" lon="151.290064">
  <ele>343.03</ele>
  <time>2026-09-01T19:51:28Z</time>
  <course>10.7</course>
  <speed>0.01</speed>
  <fix>3d</fix>
</trkpt>
<trkpt lat="-27.274439" lon="151.290064">
  <ele>343.1</ele>
  <time>2026-09-01T19:51:28Z</time>
  <course>270.0</course>
  <speed>0.0</speed>
  <fix>3d</fix>
</trkpt>
<trkpt lat="-27.274439" lon="151.290064">
  <ele>343.02</ele>
  <time>2026-09-01T19:51:28Z</time>
  <course>10.7</course>
  <speed>0.01</speed>
  <fix>3d</fix>
</trkpt>
<trkpt lat="-27.274439" lon="151.290064">
  <ele>343.1</ele>
  <time>2026-09-01T19:51:28Z</time>
  <course>270.0</course>
  <speed>0.0</speed>
  <fix>3d</fix>
</trkpt>
<trkpt lat="-27.274439" lon="151.290064">
  <ele>343.02</ele>
  <time>2026-09-01T19:51:28Z</time>
  <course>10.7</course>
  <speed>0.01</speed>
  <fix>3d</fix>
</trkpt>
<trkpt lat="-27.274439" lon="151.290064">
  <ele>343.1</ele>
  <time>2026-09-01T19:51:28Z</time>
  <course>270.0</course>
  <speed>0.0</speed>
  <fix>3d</fix>
</trkpt>
<trkpt lat="-27.274439" lon="151.290064">
  <ele>343.02</ele>
  <time>2026-09-01T19:51:28Z</time>
  <course>10.7</course>
  <speed>0.01</speed>
  <fix>3d</fix>
</trkpt>
<trkpt lat="-27.274439" lon="151.290064">
  <ele>343.1</ele>
  <time>2026-09-01T19:51:28Z</time>
  <course>270.0</course>
  <speed>0.0</speed>
  <fix>3d</fix>
</trkpt>
<trkpt lat="-27.274439" lon="151.290064">
  <ele>343.02</ele>
  <time>2026-09-01T19:51:28Z</time>
  <course>10.7</course>
  <speed>0.01</speed>
  <fix>3d</fix>
</trkpt>
<trkpt lat="-27.274439" lon="151.290064">
  <ele>343.1</ele>
  <time>2026-09-01T19:51:28Z</time>
  <course>270.0</course>
  <speed>0.0</speed>
  <fix>3d</fix>
</trkpt>
<trkpt lat="-27.274439" lon="151.290064">
  <ele>343.02</ele>
  <time>2026-09-01T19:51:28Z</time>
  <course>10.7</course>
  <speed>0.01</speed>
  <fix>3d</fix>
</trkpt>
<trkpt lat="-27.274439" lon="151.290064">
  <ele>343.1</ele>
  <time>2026-09-01T19:51:28Z</time>
  <course>270.0</course>
  <speed>0.0</speed>
  <fix>3d</fix>
</trkpt>
<trkpt lat="-27.274439" lon="151.290064">
  <ele>343.02</ele>
  <time>2026-09-01T19:51:28Z</time>
  <course>10.7</course>
  <speed>0.01</speed>
  <fix>3d</fix>
</trkpt>
<trkpt lat="-27.274439" lon="151.290064">
  <ele>343.1</ele>
  <time>2026-09-01T19:51:28Z</time>
  <course>270.0</course>
  <speed>0.0</speed>
  <fix>3d</fix>
</trkpt>
<trkpt lat="-27.274439" lon="151.290064">
  <ele>343.02</ele>
  <time>2026-09-01T19:51:28Z</time>
  <course>10.7</course>
  <speed>0.01</speed>
  <fix>3d</fix>
</trkpt>
<trkpt lat="-27.274439" lon="151.290064">
  <ele>343.1</ele>
  <time>2026-09-01T19:51:28Z</time>
  <course>270.0</course>
  <speed>0.0</speed>
  <fix>3d</fix>
</trkpt>
<trkpt lat="-27.274439" lon="151.290064">
  <ele>343.01</ele>
  <time>2026-09-01T19:51:28Z</time>
  <course>10.7</course>
  <speed>0.01</speed>
  <fix>3d</fix>
</trkpt>
<trkpt lat="-27.274439" lon="151.290064">
  <ele>343.1</ele>
  <time>2026-09-01T19:51:28Z</time>
  <course>270.0</course>
  <speed>0.0</speed>
  <fix>3d</fix>
</trkpt>
<trkpt lat="-27.274439" lon="151.290064">
  <ele>343.01</ele>
  <time>2026-09-01T19:51:28Z</time>
  <course>10.7</course>
  <speed>0.01</speed>
  <fix>3d</fix>
</trkpt>
<trkpt lat="-27.274439" lon="151.290064">
  <ele>343.1</ele>
  <time>2026-09-01T19:51:28Z</time>
  <course>270.0</course>
  <speed>0.0</speed>
  <fix>3d</fix>
</trkpt>
<trkpt lat="-27.274439" lon="151.290064">
  <ele>343.01</ele>
  <time>2026-09-01T19:51:28Z</time>
  <course>10.7</course>
  <speed>0.01</speed>
  <fix>3d</fix>
</trkpt>
<trkpt lat="-27.274439" lon="151.290064">
  <ele>343.1</ele>
  <time>2026-09-01T19:51:28Z</time>
  <course>270.0</course>
  <speed>0.0</speed>
  <fix>3d</fix>
</trkpt>
<trkpt lat="-27.274439" lon="151.290064">
  <ele>343.01</ele>
  <time>2026-09-01T19:51:28Z</time>
  <course>10.7</course>
  <speed>0.01</speed>
  <fix>3d</fix>
</trkpt>
<trkpt lat="-27.274439" lon="151.290064">
  <ele>343.1</ele>
  <time>2026-09-01T19:51:28Z</time>
  <course>270.0</course>
  <speed>0.0</speed>
  <fix>3d</fix>
</trkpt>
<trkpt lat="-27.274439" lon="151.290064">
  <ele>343.01</ele>
  <time>2026-09-01T19:51:28Z</time>
  <course>10.7</course>
  <speed>0.01</speed>
  <fix>3d</fix>
</trkpt>
<trkpt lat="-27.274439" lon="151.290064">
  <ele>343.1</ele>
  <time>2026-09-01T19:51:28Z</time>
  <course>270.0</course>
  <speed>0.0</speed>
  <fix>3d</fix>
</trkpt>
<trkpt lat="-27.274439" lon="151.290064">
  <ele>343.0</ele>
  <time>2026-09-01T19:51:28Z</time>
  <course>10.7</course>
  <speed>0.01</speed>
  <fix>3d</fix>
</trkpt>
<trkpt lat="-27.274439" lon="151.290064">
  <ele>343.1</ele>
  <time>2026-09-01T19:51:28Z</time>
  <course>270.0</course>
  <speed>0.0</speed>
  <fix>3d</fix>
</trkpt>
<trkpt lat="-27.274439" lon="151.290064">
  <ele>343.0</ele>
  <time>2026-09-01T19:51:28Z</time>
  <course>10.7</course>
  <speed>0.01</speed>
  <fix>3d</fix>
</trkpt>
<trkpt lat="-27.274439" lon="151.290064">
  <ele>343.1</ele>
  <time>2026-09-01T19:51:28Z</time>
  <course>270.0</course>
  <speed>0.0</speed>
  <fix>3d</fix>
</trkpt>
<trkpt lat="-27.274439" lon="151.290064">
  <ele>343.0</ele>
  <time>2026-09-01T19:51:28Z</time>
  <course>10.7</course>
  <speed>0.01</speed>
  <fix>3d</fix>
</trkpt>
<trkpt lat="-27.274439" lon="151.290064">
  <ele>343.1</ele>
  <time>2026-09-01T19:51:28Z</time>
  <course>270.0</course>
  <speed>0.0</speed>
  <fix>3d</fix>
</trkpt>
<trkpt lat="-27.274439" lon="151.290064">
  <ele>342.99</ele>
  <time>2026-09-01T19:51:28Z</time>
  <course>10.7</course>
  <speed>0.01</speed>
  <fix>3d</fix>
</trkpt>
<trkpt lat="-27.274439" lon="151.290064">
  <ele>343.1</ele>
  <time>2026-09-01T19:51:28Z</time>
  <course>270.0</course>
  <speed>0.0</speed>
  <fix>3d</fix>
</trkpt>
<trkpt lat="-27.274439" lon="151.290064">
  <ele>342.99</ele>
  <time>2026-09-01T19:51:28Z</time>
  <course>10.7</course>
  <speed>0.01</speed>
  <fix>3d</fix>
</trkpt>
<trkpt lat="-27.274439" lon="151.290064">
  <ele>343.1</ele>
  <time>2026-09-01T19:51:28Z</time>
  <course>270.0</course>
  <speed>0.0</speed>
  <fix>3d</fix>
</trkpt>
<trkpt lat="-27.274439" lon="151.290064">
  <ele>342.98</ele>
  <time>2026-09-01T19:51:28Z</time>
  <course>10.7</course>
  <speed>0.01</speed>
  <fix>3d</fix>
</trkpt>
<trkpt lat="-27.274439" lon="151.290064">
  <ele>343.1</ele>
  <time>2026-09-01T19:51:28Z</time>
  <course>270.0</course>
  <speed>0.0</speed>
  <fix>3d</fix>
</trkpt>
<trkpt lat="-27.274439" lon="151.290064">
  <ele>342.98</ele>
  <time>2026-09-01T19:51:28Z</time>
  <course>10.7</course>
  <speed>0.01</speed>
  <fix>3d</fix>
</trkpt>
<trkpt lat="-27.274439" lon="151.290064">
  <ele>343.1</ele>
  <time>2026-09-01T19:51:28Z</time>
  <course>270.0</course>
  <speed>0.0</speed>
  <fix>3d</fix>
</trkpt>
<trkpt lat="-27.274439" lon="151.290064">
  <ele>342.97</ele>
  <time>2026-09-01T19:51:28Z</time>
  <course>10.7</course>
  <speed>0.01</speed>
  <fix>3d</fix>
</trkpt>
<trkpt lat="-27.274439" lon="151.290064">
  <ele>343.1</ele>
  <time>2026-09-01T19:51:28Z</time>
  <course>270.0</course>
  <speed>0.0</speed>
  <fix>3d</fix>
</trkpt>
<trkpt lat="-27.274439" lon="151.290064">
  <ele>342.97</ele>
  <time>2026-09-01T19:51:28Z</time>
  <course>10.7</course>
  <speed>0.01</speed>
  <fix>3d</fix>
</trkpt>
<trkpt lat="-27.274439" lon="151.290064">
  <ele>343.1</ele>
  <time>2026-09-01T19:51:28Z</time>
  <course>270.0</course>
  <speed>0.0</speed>
  <fix>3d</fix>
</trkpt>
<trkpt lat="-27.274439" lon="151.290064">
  <ele>342.97</ele>
  <time>2026-09-01T19:51:28Z</time>
  <course>10.7</course>
  <speed>0.01</speed>
  <fix>3d</fix>
</trkpt>
<trkpt lat="-27.274439" lon="151.290064">
  <ele>343.1</ele>
  <time>2026-09-01T19:51:28Z</time>
  <course>270.0</course>
  <speed>0.0</speed>
  <fix>3d</fix>
</trkpt>
<trkpt lat="-27.274439" lon="151.290064">
  <ele>342.96</ele>
  <time>2026-09-01T19:51:28Z</time>
  <course>10.7</course>
  <speed>0.01</speed>
  <fix>3d</fix>
</trkpt>
<trkpt lat="-27.274439" lon="151.290064">
  <ele>343.1</ele>
  <time>2026-09-01T19:51:28Z</time>
  <course>270.0</course>
  <speed>0.0</speed>
  <fix>3d</fix>
</trkpt>
<trkpt lat="-27.274439" lon="151.290064">
  <ele>342.96</ele>
  <time>2026-09-01T19:51:28Z</time>
  <course>10.7</course>
  <speed>0.01</speed>
  <fix>3d</fix>
</trkpt>
<trkpt lat="-27.274439" lon="151.290064">
  <ele>343.1</ele>
  <time>2026-09-01T19:51:28Z</time>
  <course>270.0</course>
  <speed>0.0</speed>
  <fix>3d</fix>
</trkpt>
<trkpt lat="-27.274439" lon="151.290064">
  <ele>342.96</ele>
  <time>2026-09-01T19:51:28Z</time>
  <course>10.7</course>
  <speed>0.01</speed>
  <fix>3d</fix>
</trkpt>
<trkpt lat="-27.274439" lon="151.290064">
  <ele>343.1</ele>
  <time>2026-09-01T19:51:28Z</time>
  <course>270.0</course>
  <speed>0.0</speed>
  <fix>3d</fix>
</trkpt>
<trkpt lat="-27.274439" lon="151.290064">
  <ele>342.96</ele>
  <time>2026-09-01T19:51:28Z</time>
  <course>10.7</course>
  <speed>0.01</speed>
  <fix>3d</fix>
</trkpt>
<trkpt lat="-27.274439" lon="151.290064">
  <ele>343.1</ele>
  <time>2026-09-01T19:51:28Z</time>
  <course>270.0</course>
  <speed>0.0</speed>
  <fix>3d</fix>
</trkpt>
<trkpt lat="-27.274439" lon="151.290064">
  <ele>342.95</ele>
  <time>2026-09-01T19:51:28Z</time>
  <course>10.7</course>
  <speed>0.01</speed>
  <fix>3d</fix>
</trkpt>
<trkpt lat="-27.274439" lon="151.290064">
  <ele>343.1</ele>
  <time>2026-09-01T19:51:28Z</time>
  <course>270.0</course>
  <speed>0.0</speed>
  <fix>3d</fix>
</trkpt>
<trkpt lat="-27.274439" lon="151.290064">
  <ele>342.95</ele>
  <time>2026-09-01T19:51:28Z</time>
  <course>10.7</course>
  <speed>0.01</speed>
  <fix>3d</fix>
</trkpt>
<trkpt lat="-27.274439" lon="151.290064">
  <ele>343.1</ele>
  <time>2026-09-01T19:51:28Z</time>
  <course>270.0</course>
  <speed>0.0</speed>
  <fix>3d</fix>
</trkpt>
<trkpt lat="-27.274439" lon="151.290064">
  <ele>342.95</ele>
  <time>2026-09-01T19:51:28Z</time>
  <course>10.7</course>
  <speed>0.01</speed>
  <fix>3d</fix>
</trkpt>
<trkpt lat="-27.274439" lon="151.290064">
  <ele>343.1</ele>
  <time>2026-09-01T19:51:28Z</time>
  <course>270.0</course>
  <speed>0.0</speed>
  <fix>3d</fix>
</trkpt>
<trkpt lat="-27.274439" lon="151.290064">
  <ele>342.95</ele>
  <time>2026-09-01T19:51:28Z</time>
  <course>10.7</course>
  <speed>0.01</speed>
  <fix>3d</fix>
</trkpt>
<trkpt lat="-27.274439" lon="151.290064">
  <ele>343.1</ele>
  <time>2026-09-01T19:51:28Z</time>
  <course>270.0</course>
  <speed>0.0</speed>
  <fix>3d</fix>
</trkpt>
<trkpt lat="-27.274439" lon="151.290064">
  <ele>342.95</ele>
  <time>2026-09-01T19:51:28Z</time>
  <course>10.7</course>
  <speed>0.01</speed>
  <fix>3d</fix>
</trkpt>
<trkpt lat="-27.274439" lon="151.290064">
  <ele>343.1</ele>
  <time>2026-09-01T19:51:28Z</time>
  <course>270.0</course>
  <speed>0.0</speed>
  <fix>3d</fix>
</trkpt>
<trkpt lat="-27.274439" lon="151.290064">
  <ele>342.95</ele>
  <time>2026-09-01T19:51:28Z</time>
  <course>10.7</course>
  <speed>0.01</speed>
  <fix>3d</fix>
</trkpt>
<trkpt lat="-27.274439" lon="151.290064">
  <ele>343.1</ele>
  <time>2026-09-01T19:51:28Z</time>
  <course>270.0</course>
  <speed>0.0</speed>
  <fix>3d</fix>
</trkpt>
<trkpt lat="-27.2744391" lon="151.290064">
  <ele>342.95</ele>
  <time>2026-09-01T19:51:28Z</time>
  <course>10.7</course>
  <speed>0.01</speed>
  <fix>3d</fix>
</trkpt>
<trkpt lat="-27.274439" lon="151.290064">
  <ele>343.1</ele>
  <time>2026-09-01T19:51:28Z</time>
  <course>270.0</course>
  <speed>0.0</speed>
  <fix>3d</fix>
</trkpt>
<trkpt lat="-27.2744391" lon="151.290064">
  <ele>342.95</ele>
  <time>2026-09-01T19:51:28Z</time>
  <course>10.7</course>
  <speed>0.01</speed>
  <fix>3d</fix>
</trkpt>
<trkpt lat="-27.274439" lon="151.290064">
  <ele>343.1</ele>
  <time>2026-09-01T19:51:28Z</time>
  <course>270.0</course>
  <speed>0.0</speed>
  <fix>3d</fix>
</trkpt>
<trkpt lat="-27.2744391" lon="151.290064">
  <ele>342.95</ele>
  <time>2026-09-01T19:51:28Z</time>
  <course>10.7</course>
  <speed>0.01</speed>
  <fix>3d</fix>
</trkpt>
<trkpt lat="-27.274439" lon="151.290064">
  <ele>343.1</ele>
  <time>2026-09-01T19:51:28Z</time>
  <course>270.0</course>
  <speed>0.0</speed>
  <fix>3d</fix>
</trkpt>
<trkpt lat="-27.2744391" lon="151.290064">
  <ele>342.95</ele>
  <time>2026-09-01T19:51:28Z</time>
  <course>10.7</course>
  <speed>0.01</speed>
  <fix>3d</fix>
</trkpt>
<trkpt lat="-27.274439" lon="151.290064">
  <ele>343.1</ele>
  <time>2026-09-01T19:51:28Z</time>
  <course>270.0</course>
  <speed>0.0</speed>
  <fix>3d</fix>
</trkpt>
<trkpt lat="-27.2744391" lon="151.290064">
  <ele>342.95</ele>
  <time>2026-09-01T19:51:28Z</time>
  <course>10.7</course>
  <speed>0.01</speed>
  <fix>3d</fix>
</trkpt>
<trkpt lat="-27.274439" lon="151.290064">
  <ele>343.1</ele>
  <time>2026-09-01T19:51:28Z</time>
  <course>270.0</course>
  <speed>0.0</speed>
  <fix>3d</fix>
</trkpt>
<trkpt lat="-27.2744391" lon="151.290064">
  <ele>342.95</ele>
  <time>2026-09-01T19:51:28Z</time>
  <course>10.7</course>
  <speed>0.01</speed>
  <fix>3d</fix>
</trkpt>
<trkpt lat="-27.274439" lon="151.290064">
  <ele>343.1</ele>
  <time>2026-09-01T19:51:28Z</time>
  <course>270.0</course>
  <speed>0.0</speed>
  <fix>3d</fix>
</trkpt>
<trkpt lat="-27.2744391" lon="151.290064">
  <ele>342.95</ele>
  <time>2026-09-01T19:51:28Z</time>
  <course>10.7</course>
  <speed>0.01</speed>
  <fix>3d</fix>
</trkpt>
<trkpt lat="-27.274439" lon="151.290064">
  <ele>343.1</ele>
  <time>2026-09-01T19:51:28Z</time>
  <course>270.0</course>
  <speed>0.0</speed>
  <fix>3d</fix>
</trkpt>
<trkpt lat="-27.2744391" lon="151.290064">
  <ele>342.95</ele>
  <time>2026-09-01T19:51:28Z</time>
  <course>10.7</course>
  <speed>0.01</speed>
  <fix>3d</fix>
</trkpt>
<trkpt lat="-27.274439" lon="151.290064">
  <ele>343.1</ele>
  <time>2026-09-01T19:51:28Z</time>
  <course>270.0</course>
  <speed>0.0</speed>
  <fix>3d</fix>
</trkpt>
<trkpt lat="-27.2744391" lon="151.290064">
  <ele>342.95</ele>
  <time>2026-09-01T19:51:28Z</time>
  <course>10.7</course>
  <speed>0.01</speed>
  <fix>3d</fix>
</trkpt>
<trkpt lat="-27.274439" lon="151.290064">
  <ele>343.1</ele>
  <time>2026-09-01T19:51:28Z</time>
  <course>270.0</course>
  <speed>0.0</speed>
  <fix>3d</fix>
</trkpt>
<trkpt lat="-27.2744391" lon="151.290064">
  <ele>343.1</ele>
  <time>2026-09-01T19:51:28Z</time>
  <course>10.7</course>
  <speed>0.01</speed>
  <fix>3d</fix>
</trkpt>
<trkpt lat="-27.274439" lon="151.290064">
  <ele>343.1</ele>
  <time>2026-09-01T19:51:28Z</time>
  <course>270.0</course>
  <speed>0.0</speed>
  <fix>3d</fix>
</trkpt>
<trkpt lat="-27.2744391" lon="151.290064">
  <ele>343.09</ele>
  <time>2026-09-01T19:51:28Z</time>
  <course>10.7</course>
  <speed>0.01</speed>
  <fix>3d</fix>
</trkpt>
<trkpt lat="-27.274439" lon="151.290064">
  <ele>343.1</ele>
  <time>2026-09-01T19:51:28Z</time>
  <course>270.0</course>
  <speed>0.0</speed>
  <fix>3d</fix>
</trkpt>
<trkpt lat="-27.2744391" lon="151.290064">
  <ele>343.09</ele>
  <time>2026-09-01T19:51:28Z</time>
  <course>10.7</course>
  <speed>0.01</speed>
  <fix>3d</fix>
</trkpt>
<trkpt lat="-27.274439" lon="151.290064">
  <ele>343.1</ele>
  <time>2026-09-01T19:51:28Z</time>
  <course>270.0</course>
  <speed>0.0</speed>
  <fix>3d</fix>
</trkpt>
<trkpt lat="-27.2744391" lon="151.290064">
  <ele>343.09</ele>
  <time>2026-09-01T19:51:28Z</time>
  <course>10.71</course>
  <speed>0.01414213562373095</speed>
  <fix>3d</fix>
</trkpt>
<trkpt lat="-27.274439" lon="151.290064">
  <ele>343.1</ele>
  <time>2026-09-01T19:51:28Z</time>
  <course>270.0</course>
  <speed>0.0</speed>
  <fix>3d</fix>
</trkpt>
<trkpt lat="-27.2744391" lon="151.290064">
  <ele>343.09</ele>
  <time>2026-09-01T19:51:28Z</time>
  <course>10.71</course>
  <speed>0.01</speed>
  <fix>3d</fix>
</trkpt>
<trkpt lat="-27.274439" lon="151.290064">
  <ele>343.1</ele>
  <time>2026-09-01T19:51:28Z</time>
  <course>270.0</course>
  <speed>0.0</speed>
  <fix>3d</fix>
</trkpt>
<trkpt lat="-27.2744391" lon="151.290064">
  <ele>343.09</ele>
  <time>2026-09-01T19:51:28Z</time>
  <course>10.71</course>
  <speed>0.01414213562373095</speed>
  <fix>3d</fix>
</trkpt>
<trkpt lat="-27.274439" lon="151.290064">
  <ele>343.1</ele>
  <time>2026-09-01T19:51:28Z</time>
  <course>270.0</course>
  <speed>0.0</speed>
  <fix>3d</fix>
</trkpt>
<trkpt lat="-27.2744391" lon="151.290064">
  <ele>343.09</ele>
  <time>2026-09-01T19:51:28Z</time>
  <course>10.71</course>
  <speed>0.01414213562373095</speed>
  <fix>3d</fix>
</trkpt>
<trkpt lat="-27.274439" lon="151.290064">
  <ele>343.1</ele>
  <time>2026-09-01T19:51:28Z</time>
  <course>270.0</course>
  <speed>0.0</speed>
  <fix>3d</fix>
</trkpt>
<trkpt lat="-27.2744391" lon="151.290064">
  <ele>343.09</ele>
  <time>2026-09-01T19:51:28Z</time>
  <course>10.71</course>
  <speed>0.01414213562373095</speed>
  <fix>3d</fix>
</trkpt>
<trkpt lat="-27.274439" lon="151.290064">
  <ele>343.1</ele>
  <time>2026-09-01T19:51:28Z</time>
  <course>270.0</course>
  <speed>0.0</speed>
  <fix>3d</fix>
</trkpt>
<trkpt lat="-27.2744391" lon="151.290064">
  <ele>343.09</ele>
  <time>2026-09-01T19:51:28Z</time>
  <course>10.71</course>
  <speed>0.01414213562373095</speed>
  <fix>3d</fix>
</trkpt>
<trkpt lat="-27.274439" lon="151.290064">
  <ele>343.1</ele>
  <time>2026-09-01T19:51:28Z</time>
  <course>270.0</course>
  <speed>0.0</speed>
  <fix>3d</fix>
</trkpt>
<trkpt lat="-27.2744391" lon="151.290064">
  <ele>343.09</ele>
  <time>2026-09-01T19:51:28Z</time>
  <course>10.71</course>
  <speed>0.01414213562373095</speed>
  <fix>3d</fix>
</trkpt>
<trkpt lat="-27.274439" lon="151.290064">
  <ele>343.1</ele>
  <time>2026-09-01T19:51:28Z</time>
  <course>270.0</course>
  <speed>0.0</speed>
  <fix>3d</fix>
</trkpt>
<trkpt lat="-27.2744391" lon="151.290064">
  <ele>343.08</ele>
  <time>2026-09-01T19:51:28Z</time>
  <course>10.71</course>
  <speed>0.01414213562373095</speed>
  <fix>3d</fix>
</trkpt>
<trkpt lat="-27.274439" lon="151.290064">
  <ele>343.1</ele>
  <time>2026-09-01T19:51:28Z</time>
  <course>270.0</course>
  <speed>0.0</speed>
  <fix>3d</fix>
</trkpt>
<trkpt lat="-27.2744391" lon="151.290064">
  <ele>343.08</ele>
  <time>2026-09-01T19:51:28Z</time>
  <course>10.71</course>
  <speed>0.01414213562373095</speed>
  <fix>3d</fix>
</trkpt>
<trkpt lat="-27.274439" lon="151.290064">
  <ele>343.1</ele>
  <time>2026-09-01T19:51:28Z</time>
  <course>270.0</course>
  <speed>0.0</speed>
  <fix>3d</fix>
</trkpt>
<trkpt lat="-27.2744391" lon="151.290064">
  <ele>343.08</ele>
  <time>2026-09-01T19:51:28Z</time>
  <course>10.71</course>
  <speed>0.01414213562373095</speed>
  <fix>3d</fix>
</trkpt>
<trkpt lat="-27.274439" lon="151.290064">
  <ele>343.1</ele>
  <time>2026-09-01T19:51:28Z</time>
  <course>270.0</course>
  <speed>0.0</speed>
  <fix>3d</fix>
</trkpt>
<trkpt lat="-27.2744391" lon="151.290064">
  <ele>343.08</ele>
  <time>2026-09-01T19:51:28Z</time>
  <course>10.71</course>
  <speed>0.01414213562373095</speed>
  <fix>3d</fix>
</trkpt>
<trkpt lat="-27.274439" lon="151.290064">
  <ele>343.1</ele>
  <time>2026-09-01T19:51:28Z</time>
  <course>270.0</course>
  <speed>0.0</speed>
  <fix>3d</fix>
</trkpt>
<trkpt lat="-27.2744391" lon="151.290064">
  <ele>343.08</ele>
  <time>2026-09-01T19:51:28Z</time>
  <course>10.71</course>
  <speed>0.01414213562373095</speed>
  <fix>3d</fix>
</trkpt>
<trkpt lat="-27.274439" lon="151.290064">
  <ele>343.1</ele>
  <time>2026-09-01T19:51:28Z</time>
  <course>270.0</course>
  <speed>0.0</speed>
  <fix>3d</fix>
</trkpt>
<trkpt lat="-27.2744391" lon="151.290064">
  <ele>343.07</ele>
  <time>2026-09-01T19:51:28Z</time>
  <course>10.71</course>
  <speed>0.01414213562373095</speed>
  <fix>3d</fix>
</trkpt>
<trkpt lat="-27.274439" lon="151.290064">
  <ele>343.1</ele>
  <time>2026-09-01T19:51:28Z</time>
  <course>270.0</course>
  <speed>0.0</speed>
  <fix>3d</fix>
</trkpt>
<trkpt lat="-27.2744391" lon="151.290064">
  <ele>343.07</ele>
  <time>2026-09-01T19:51:28Z</time>
  <course>10.71</course>
  <speed>0.01414213562373095</speed>
  <fix>3d</fix>
</trkpt>
<trkpt lat="-27.274439" lon="151.290064">
  <ele>343.1</ele>
  <time>2026-09-01T19:51:28Z</time>
  <course>270.0</course>
  <speed>0.0</speed>
  <fix>3d</fix>
</trkpt>
<trkpt lat="-27.2744391" lon="151.290064">
  <ele>343.07</ele>
  <time>2026-09-01T19:51:28Z</time>
  <course>10.71</course>
  <speed>0.01414213562373095</speed>
  <fix>3d</fix>
</trkpt>
<trkpt lat="-27.274439" lon="151.290064">
  <ele>343.1</ele>
  <time>2026-09-01T19:51:28Z</time>
  <course>270.0</course>
  <speed>0.0</speed>
  <fix>3d</fix>
</trkpt>
<trkpt lat="-27.2744391" lon="151.290064">
  <ele>343.07</ele>
  <time>2026-09-01T19:51:28Z</time>
  <course>10.71</course>
  <speed>0.01414213562373095</speed>
  <fix>3d</fix>
</trkpt>
<trkpt lat="-27.274439" lon="151.290064">
  <ele>343.1</ele>
  <time>2026-09-01T19:51:28Z</time>
  <course>270.0</course>
  <speed>0.0</speed>
  <fix>3d</fix>
</trkpt>
<trkpt lat="-27.2744391" lon="151.290064">
  <ele>343.07</ele>
  <time>2026-09-01T19:51:28Z</time>
  <course>10.71</course>
  <speed>0.01414213562373095</speed>
  <fix>3d</fix>
</trkpt>
<trkpt lat="-27.274439" lon="151.290064">
  <ele>343.1</ele>
  <time>2026-09-01T19:51:28Z</time>
  <course>270.0</course>
  <speed>0.0</speed>
  <fix>3d</fix>
</trkpt>
<trkpt lat="-27.2744391" lon="151.290064">
  <ele>343.07</ele>
  <time>2026-09-01T19:51:28Z</time>
  <course>10.71</course>
  <speed>0.01414213562373095</speed>
  <fix>3d</fix>
</trkpt>
<trkpt lat="-27.274439" lon="151.290064">
  <ele>343.1</ele>
  <time>2026-09-01T19:51:28Z</time>
  <course>270.0</course>
  <speed>0.0</speed>
  <fix>3d</fix>
</trkpt>
<trkpt lat="-27.2744391" lon="151.290064">
  <ele>343.07</ele>
  <time>2026-09-01T19:51:28Z</time>
  <course>10.71</course>
  <speed>0.01414213562373095</speed>
  <fix>3d</fix>
</trkpt>
<trkpt lat="-27.274439" lon="151.290064">
  <ele>343.1</ele>
  <time>2026-09-01T19:51:28Z</time>
  <course>270.0</course>
  <speed>0.0</speed>
  <fix>3d</fix>
</trkpt>
<trkpt lat="-27.2744391" lon="151.290064">
  <ele>343.07</ele>
  <time>2026-09-01T19:51:28Z</time>
  <course>10.71</course>
  <speed>0.01414213562373095</speed>
  <fix>3d</fix>
</trkpt>
<trkpt lat="-27.274439" lon="151.290064">
  <ele>343.1</ele>
  <time>2026-09-01T19:51:28Z</time>
  <course>270.0</course>
  <speed>0.0</speed>
  <fix>3d</fix>
</trkpt>
<trkpt lat="-27.2744391" lon="151.290064">
  <ele>343.07</ele>
  <time>2026-09-01T19:51:28Z</time>
  <course>10.71</course>
  <speed>0.01414213562373095</speed>
  <fix>3d</fix>
</trkpt>
<trkpt lat="-27.274439" lon="151.290064">
  <ele>343.1</ele>
  <time>2026-09-01T19:51:28Z</time>
  <course>270.0</course>
  <speed>0.0</speed>
  <fix>3d</fix>
</trkpt>
<trkpt lat="-27.2744391" lon="151.290064">
  <ele>343.07</ele>
  <time>2026-09-01T19:51:28Z</time>
  <course>10.71</course>
  <speed>0.01414213562373095</speed>
  <fix>3d</fix>
</trkpt>
<trkpt lat="-27.274439" lon="151.290064">
  <ele>343.1</ele>
  <time>2026-09-01T19:51:28Z</time>
  <course>270.0</course>
  <speed>0.0</speed>
  <fix>3d</fix>
</trkpt>
<trkpt lat="-27.2744391" lon="151.290064">
  <ele>343.06</ele>
  <time>2026-09-01T19:51:28Z</time>
  <course>10.71</course>
  <speed>0.01414213562373095</speed>
  <fix>3d</fix>
</trkpt>
<trkpt lat="-27.274439" lon="151.290064">
  <ele>343.1</ele>
  <time>2026-09-01T19:51:28Z</time>
  <course>270.0</course>
  <speed>0.0</speed>
  <fix>3d</fix>
</trkpt>
<trkpt lat="-27.2744391" lon="151.290064">
  <ele>343.06</ele>
  <time>2026-09-01T19:51:28Z</time>
  <course>10.71</course>
  <speed>0.01414213562373095</speed>
  <fix>3d</fix>
</trkpt>
<trkpt lat="-27.274439" lon="151.290064">
  <ele>343.1</ele>
  <time>2026-09-01T19:51:28Z</time>
  <course>270.0</course>
  <speed>0.0</speed>
  <fix>3d</fix>
</trkpt>
<trkpt lat="-27.2744391" lon="151.290064">
  <ele>343.06</ele>
  <time>2026-09-01T19:51:28Z</time>
  <course>10.71</course>
  <speed>0.01414213562373095</speed>
  <fix>3d</fix>
</trkpt>
<trkpt lat="-27.274439" lon="151.290064">
  <ele>343.1</ele>
  <time>2026-09-01T19:51:28Z</time>
  <course>270.0</course>
  <speed>0.0</speed>
  <fix>3d</fix>
</trkpt>
<trkpt lat="-27.2744391" lon="151.290064">
  <ele>343.06</ele>
  <time>2026-09-01T19:51:28Z</time>
  <course>10.71</course>
  <speed>0.01414213562373095</speed>
  <fix>3d</fix>
</trkpt>
<trkpt lat="-27.274439" lon="151.290064">
  <ele>343.1</ele>
  <time>2026-09-01T19:51:28Z</time>
  <course>270.0</course>
  <speed>0.0</speed>
  <fix>3d</fix>
</trkpt>
<trkpt lat="-27.2744391" lon="151.290064">
  <ele>343.06</ele>
  <time>2026-09-01T19:51:28Z</time>
  <course>10.71</course>
  <speed>0.01414213562373095</speed>
  <fix>3d</fix>
</trkpt>
<trkpt lat="-27.274439" lon="151.290064">
  <ele>343.1</ele>
  <time>2026-09-01T19:51:28Z</time>
  <course>270.0</course>
  <speed>0.0</speed>
  <fix>3d</fix>
</trkpt>
<trkpt lat="-27.2744391" lon="151.290064">
  <ele>343.06</ele>
  <time>2026-09-01T19:51:28Z</time>
  <course>10.71</course>
  <speed>0.01414213562373095</speed>
  <fix>3d</fix>
</trkpt>
<trkpt lat="-27.274439" lon="151.290064">
  <ele>343.1</ele>
  <time>2026-09-01T19:51:28Z</time>
  <course>270.0</course>
  <speed>0.0</speed>
  <fix>3d</fix>
</trkpt>
<trkpt lat="-27.2744391" lon="151.290064">
  <ele>343.07</ele>
  <time>2026-09-01T19:51:28Z</time>
  <course>10.71</course>
  <speed>0.01414213562373095</speed>
  <fix>3d</fix>
</trkpt>
<trkpt lat="-27.274439" lon="151.290064">
  <ele>343.1</ele>
  <time>2026-09-01T19:51:28Z</time>
  <course>270.0</course>
  <speed>0.0</speed>
  <fix>3d</fix>
</trkpt>
<trkpt lat="-27.2744391" lon="151.290064">
  <ele>343.07</ele>
  <time>2026-09-01T19:51:28Z</time>
  <course>10.71</course>
  <speed>0.01414213562373095</speed>
  <fix>3d</fix>
</trkpt>
<trkpt lat="-27.274439" lon="151.290064">
  <ele>343.1</ele>
  <time>2026-09-01T19:51:28Z</time>
  <course>270.0</course>
  <speed>0.0</speed>
  <fix>3d</fix>
</trkpt>
<trkpt lat="-27.2744391" lon="151.2900641">
  <ele>343.07</ele>
  <time>2026-09-01T19:51:28Z</time>
  <course>10.71</course>
  <speed>0.01414213562373095</speed>
  <fix>3d</fix>
</trkpt>
<trkpt lat="-27.274439" lon="151.290064">
  <ele>343.1</ele>
  <time>2026-09-01T19:51:28Z</time>
  <course>270.0</course>
  <speed>0.0</speed>
  <fix>3d</fix>
</trkpt>
<trkpt lat="-27.2744391" lon="151.290064">
  <ele>343.07</ele>
  <time>2026-09-01T19:51:28Z</time>
  <course>10.71</course>
  <speed>0.01414213562373095</speed>
  <fix>3d</fix>
</trkpt>
<trkpt lat="-27.274439" lon="151.290064">
  <ele>343.1</ele>
  <time>2026-09-01T19:51:28Z</time>
  <course>270.0</course>
  <speed>0.0</speed>
  <fix>3d</fix>
</trkpt>
<trkpt lat="-27.2744391" lon="151.2900641">
  <ele>343.07</ele>
  <time>2026-09-01T19:51:28Z</time>
  <course>10.71</course>
  <speed>0.01414213562373095</speed>
  <fix>3d</fix>
</trkpt>
<trkpt lat="-27.274439" lon="151.290064">
  <ele>343.1</ele>
  <time>2026-09-01T19:51:28Z</time>
  <course>270.0</course>
  <speed>0.0</speed>
  <fix>3d</fix>
</trkpt>
<trkpt lat="-27.2744391" lon="151.290064">
  <ele>343.06</ele>
  <time>2026-09-01T19:51:28Z</time>
  <course>10.71</course>
  <speed>0.01414213562373095</speed>
  <fix>3d</fix>
</trkpt>
<trkpt lat="-27.274439" lon="151.290064">
  <ele>343.1</ele>
  <time>2026-09-01T19:51:28Z</time>
  <course>270.0</course>
  <speed>0.0</speed>
  <fix>3d</fix>
</trkpt>
<trkpt lat="-27.2744391" lon="151.2900641">
  <ele>343.06</ele>
  <time>2026-09-01T19:51:28Z</time>
  <course>10.71</course>
  <speed>0.01414213562373095</speed>
  <fix>3d</fix>
</trkpt>
<trkpt lat="-27.274439" lon="151.290064">
  <ele>343.1</ele>
  <time>2026-09-01T19:51:28Z</time>
  <course>270.0</course>
  <speed>0.0</speed>
  <fix>3d</fix>
</trkpt>
<trkpt lat="-27.2744391" lon="151.290064">
  <ele>343.06</ele>
  <time>2026-09-01T19:51:28Z</time>
  <course>10.71</course>
  <speed>0.01414213562373095</speed>
  <fix>3d</fix>
</trkpt>
<trkpt lat="-27.274439" lon="151.290064">
  <ele>343.1</ele>
  <time>2026-09-01T19:51:28Z</time>
  <course>270.0</course>
  <speed>0.0</speed>
  <fix>3d</fix>
</trkpt>
<trkpt lat="-27.2744391" lon="151.2900641">
  <ele>343.09</ele>
  <time>2026-09-01T19:51:28Z</time>
  <course>10.71</course>
  <speed>0.01414213562373095</speed>
  <fix>3d</fix>
</trkpt>
<trkpt lat="-27.274439" lon="151.290064">
  <ele>343.1</ele>
  <time>2026-09-01T19:51:28Z</time>
  <course>270.0</course>
  <speed>0.0</speed>
  <fix>3d</fix>
</trkpt>
<trkpt lat="-27.2744391" lon="151.290064">
  <ele>343.09</ele>
  <time>2026-09-01T19:51:28Z</time>
  <course>10.71</course>
  <speed>0.01414213562373095</speed>
  <fix>3d</fix>
</trkpt>
<trkpt lat="-27.274439" lon="151.290064">
  <ele>343.1</ele>
  <time>2026-09-01T19:51:28Z</time>
  <course>270.0</course>
  <speed>0.0</speed>
  <fix>3d</fix>
</trkpt>
<trkpt lat="-27.2744391" lon="151.2900641">
  <ele>343.09</ele>
  <time>2026-09-01T19:51:28Z</time>
  <course>10.71</course>
  <speed>0.01414213562373095</speed>
  <fix>3d</fix>
</trkpt>
<trkpt lat="-27.274439" lon="151.290064">
  <ele>343.1</ele>
  <time>2026-09-01T19:51:28Z</time>
  <course>270.0</course>
  <speed>0.0</speed>
  <fix>3d</fix>
</trkpt>
<trkpt lat="-27.2744391" lon="151.290064">
  <ele>343.09</ele>
  <time>2026-09-01T19:51:28Z</time>
  <course>10.71</course>
  <speed>0.01414213562373095</speed>
  <fix>3d</fix>
</trkpt>
<trkpt lat="-27.274439" lon="151.290064">
  <ele>343.1</ele>
  <time>2026-09-01T19:51:28Z</time>
  <course>270.0</course>
  <speed>0.0</speed>
  <fix>3d</fix>
</trkpt>
<trkpt lat="-27.2744391" lon="151.2900641">
  <ele>343.1</ele>
  <time>2026-09-01T19:51:28Z</time>
  <course>10.71</course>
  <speed>0.01414213562373095</speed>
  <fix>3d</fix>
</trkpt>
<trkpt lat="-27.274439" lon="151.290064">
  <ele>343.1</ele>
  <time>2026-09-01T19:51:28Z</time>
  <course>270.0</course>
  <speed>0.0</speed>
  <fix>3d</fix>
</trkpt>
<trkpt lat="-27.2744391" lon="151.2900641">
  <ele>343.1</ele>
  <time>2026-09-01T19:51:28Z</time>
  <course>10.71</course>
  <speed>0.01414213562373095</speed>
  <fix>3d</fix>
</trkpt>
<trkpt lat="-27.274439" lon="151.290064">
  <ele>343.1</ele>
  <time>2026-09-01T19:51:28Z</time>
  <course>270.0</course>
  <speed>0.0</speed>
  <fix>3d</fix>
</trkpt>
<trkpt lat="-27.2744391" lon="151.2900641">
  <ele>343.1</ele>
  <time>2026-09-01T19:51:28Z</time>
  <course>10.71</course>
  <speed>0.01414213562373095</speed>
  <fix>3d</fix>
</trkpt>
<trkpt lat="-27.274439" lon="151.290064">
  <ele>343.1</ele>
  <time>2026-09-01T19:51:28Z</time>
  <course>270.0</course>
  <speed>0.0</speed>
  <fix>3d</fix>
</trkpt>
<trkpt lat="-27.2744391" lon="151.290064">
  <ele>343.1</ele>
  <time>2026-09-01T19:51:28Z</time>
  <course>10.71</course>
  <speed>0.01414213562373095</speed>
  <fix>3d</fix>
</trkpt>
<trkpt lat="-27.274439" lon="151.290064">
  <ele>343.1</ele>
  <time>2026-09-01T19:51:28Z</time>
  <course>270.0</course>
  <speed>0.0</speed>
  <fix>3d</fix>
</trkpt>
<trkpt lat="-27.2744391" lon="151.290064">
  <ele>343.11</ele>
  <time>2026-09-01T19:51:28Z</time>
  <course>10.71</course>
  <speed>0.01</speed>
  <fix>3d</fix>
</trkpt>
<trkpt lat="-27.274439" lon="151.290064">
  <ele>343.1</ele>
  <time>2026-09-01T19:51:28Z</time>
  <course>270.0</course>
  <speed>0.0</speed>
  <fix>3d</fix>
</trkpt>
<trkpt lat="-27.2744391" lon="151.290064">
  <ele>343.11</ele>
  <time>2026-09-01T19:51:28Z</time>
  <course>10.71</course>
  <speed>0.01</speed>
  <fix>3d</fix>
</trkpt>
<trkpt lat="-27.274439" lon="151.290064">
  <ele>343.1</ele>
  <time>2026-09-01T19:51:28Z</time>
  <course>270.0</course>
  <speed>0.0</speed>
  <fix>3d</fix>
</trkpt>
<trkpt lat="-27.2744391" lon="151.290064">
  <ele>343.12</ele>
  <time>2026-09-01T19:51:28Z</time>
  <course>10.71</course>
  <speed>0.01</speed>
  <fix>3d</fix>
</trkpt>
<trkpt lat="-27.274439" lon="151.290064">
  <ele>343.1</ele>
  <time>2026-09-01T19:51:28Z</time>
  <course>270.0</course>
  <speed>0.0</speed>
  <fix>3d</fix>
</trkpt>
<trkpt lat="-27.2744391" lon="151.290064">
  <ele>343.12</ele>
  <time>2026-09-01T19:51:28Z</time>
  <course>10.71</course>
  <speed>0.01</speed>
  <fix>3d</fix>
</trkpt>
<trkpt lat="-27.274439" lon="151.290064">
  <ele>343.1</ele>
  <time>2026-09-01T19:51:28Z</time>
  <course>270.0</course>
  <speed>0.0</speed>
  <fix>3d</fix>
</trkpt>
<trkpt lat="-27.2744391" lon="151.290064">
  <ele>343.13</ele>
  <time>2026-09-01T19:51:28Z</time>
  <course>10.71</course>
  <speed>0.0</speed>
  <fix>3d</fix>
</trkpt>
<trkpt lat="-27.274439" lon="151.290064">
  <ele>343.1</ele>
  <time>2026-09-01T19:51:28Z</time>
  <course>270.0</course>
  <speed>0.0</speed>
  <fix>3d</fix>
</trkpt>
<trkpt lat="-27.2744391" lon="151.290064">
  <ele>343.14</ele>
  <time>2026-09-01T19:51:28Z</time>
  <course>10.71</course>
  <speed>0.0</speed>
  <fix>3d</fix>
</trkpt>
<trkpt lat="-27.274439" lon="151.290064">
  <ele>343.1</ele>
  <time>2026-09-01T19:51:28Z</time>
  <course>270.0</course>
  <speed>0.0</speed>
  <fix>3d</fix>
</trkpt>
<trkpt lat="-27.2744391" lon="151.290064">
  <ele>343.14</ele>
  <time>2026-09-01T19:51:28Z</time>
  <course>10.71</course>
  <speed>0.0</speed>
  <fix>3d</fix>
</trkpt>
<trkpt lat="-27.274439" lon="151.290064">
  <ele>343.1</ele>
  <time>2026-09-01T19:51:28Z</time>
  <course>270.0</course>
  <speed>0.0</speed>
  <fix>3d</fix>
</trkpt>
<trkpt lat="-27.2744391" lon="151.290064">
  <ele>343.14</ele>
  <time>2026-09-01T19:51:28Z</time>
  <course>10.71</course>
  <speed>0.0</speed>
  <fix>3d</fix>
</trkpt>
<trkpt lat="-27.274439" lon="151.290064">
  <ele>343.1</ele>
  <time>2026-09-01T19:51:28Z</time>
  <course>270.0</course>
  <speed>0.0</speed>
  <fix>3d</fix>
</trkpt>
<trkpt lat="-27.2744391" lon="151.290064">
  <ele>343.15</ele>
  <time>2026-09-01T19:51:28Z</time>
  <course>10.71</course>
  <speed>0.0</speed>
  <fix>3d</fix>
</trkpt>
<trkpt lat="-27.274439" lon="151.290064">
  <ele>343.1</ele>
  <time>2026-09-01T19:51:28Z</time>
  <course>270.0</course>
  <speed>0.0</speed>
  <fix>3d</fix>
</trkpt>
<trkpt lat="-27.2744391" lon="151.290064">
  <ele>343.15</ele>
  <time>2026-09-01T19:51:28Z</time>
  <course>10.72</course>
  <speed>0.0</speed>
  <fix>3d</fix>
</trkpt>
<trkpt lat="-27.274439" lon="151.290064">
  <ele>343.1</ele>
  <time>2026-09-01T19:51:28Z</time>
  <course>270.0</course>
  <speed>0.0</speed>
  <fix>3d</fix>
</trkpt>
<trkpt lat="-27.2744391" lon="151.290064">
  <ele>343.16</ele>
  <time>2026-09-01T19:51:28Z</time>
  <course>10.72</course>
  <speed>0.0</speed>
  <fix>3d</fix>
</trkpt>
<trkpt lat="-27.274439" lon="151.290064">
  <ele>343.1</ele>
  <time>2026-09-01T19:51:28Z</time>
  <course>270.0</course>
  <speed>0.0</speed>
  <fix>3d</fix>
</trkpt>
<trkpt lat="-27.2744391" lon="151.290064">
  <ele>343.17</ele>
  <time>2026-09-01T19:51:28Z</time>
  <course>10.72</course>
  <speed>0.0</speed>
  <fix>3d</fix>
</trkpt>
<trkpt lat="-27.274439" lon="151.290064">
  <ele>343.1</ele>
  <time>2026-09-01T19:51:28Z</time>
  <course>270.0</course>
  <speed>0.0</speed>
  <fix>3d</fix>
</trkpt>
<trkpt lat="-27.2744391" lon="151.290064">
  <ele>343.17</ele>
  <time>2026-09-01T19:51:28Z</time>
  <course>10.72</course>
  <speed>0.0</speed>
  <fix>3d</fix>
</trkpt>
<trkpt lat="-27.274439" lon="151.290064">
  <ele>343.1</ele>
  <time>2026-09-01T19:51:28Z</time>
  <course>270.0</course>
  <speed>0.0</speed>
  <fix>3d</fix>
</trkpt>
<trkpt lat="-27.2744391" lon="151.290064">
  <ele>343.1</ele>
  <time>2026-09-01T19:51:28Z</time>
  <course>10.72</course>
  <speed>0.0</speed>
  <fix>3d</fix>
</trkpt>
<trkpt lat="-27.274439" lon="151.290064">
  <ele>343.1</ele>
  <time>2026-09-01T19:51:28Z</time>
  <course>270.0</course>
  <speed>0.0</speed>
  <fix>3d</fix>
</trkpt>
<trkpt lat="-27.2744391" lon="151.290064">
  <ele>343.1</ele>
  <time>2026-09-01T19:51:28Z</time>
  <course>10.72</course>
  <speed>0.0</speed>
  <fix>3d</fix>
</trkpt>
<trkpt lat="-27.274439" lon="151.290064">
  <ele>343.1</ele>
  <time>2026-09-01T19:51:28Z</time>
  <course>270.0</course>
  <speed>0.0</speed>
  <fix>3d</fix>
</trkpt>
<trkpt lat="-27.2744391" lon="151.290064">
  <ele>343.1</ele>
  <time>2026-09-01T19:51:28Z</time>
  <course>10.72</course>
  <speed>0.0</speed>
  <fix>3d</fix>
</trkpt>
<trkpt lat="-27.274439" lon="151.290064">
  <ele>343.1</ele>
  <time>2026-09-01T19:51:29Z</time>
  <course>270.0</course>
  <speed>0.0</speed>
  <fix>3d</fix>
</trkpt>
<trkpt lat="-27.2744391" lon="151.290064">
  <ele>343.1</ele>
  <time>2026-09-01T19:51:29Z</time>
  <course>10.72</course>
  <speed>0.0</speed>
  <fix>3d</fix>
</trkpt>
<trkpt lat="-27.274439" lon="151.290064">
  <ele>343.1</ele>
  <time>2026-09-01T19:51:29Z</time>
  <course>270.0</course>
  <speed>0.0</speed>
  <fix>3d</fix>
</trkpt>
<trkpt lat="-27.2744391" lon="151.290064">
  <ele>343.1</ele>
  <time>2026-09-01T19:51:29Z</time>
  <course>10.72</course>
  <speed>0.0</speed>
  <fix>3d</fix>
</trkpt>
<trkpt lat="-27.274439" lon="151.290064">
  <ele>343.1</ele>
  <time>2026-09-01T19:51:29Z</time>
  <course>270.0</course>
  <speed>0.0</speed>
  <fix>3d</fix>
</trkpt>
<trkpt lat="-27.2744391" lon="151.290064">
  <ele>343.1</ele>
  <time>2026-09-01T19:51:29Z</time>
  <course>10.72</course>
  <speed>0.0</speed>
  <fix>3d</fix>
</trkpt>
<trkpt lat="-27.274439" lon="151.290064">
  <ele>343.1</ele>
  <time>2026-09-01T19:51:29Z</time>
  <course>270.0</course>
  <speed>0.0</speed>
  <fix>3d</fix>
</trkpt>
<trkpt lat="-27.2744391" lon="151.290064">
  <ele>343.09</ele>
  <time>2026-09-01T19:51:29Z</time>
  <course>10.72</course>
  <speed>0.0</speed>
  <fix>3d</fix>
</trkpt>
<trkpt lat="-27.274439" lon="151.290064">
  <ele>343.1</ele>
  <time>2026-09-01T19:51:29Z</time>
  <course>270.0</course>
  <speed>0.0</speed>
  <fix>3d</fix>
</trkpt>
<trkpt lat="-27.2744391" lon="151.290064">
  <ele>343.09</ele>
  <time>2026-09-01T19:51:29Z</time>
  <course>10.72</course>
  <speed>0.0</speed>
  <fix>3d</fix>
</trkpt>
<trkpt lat="-27.274439" lon="151.290064">
  <ele>343.1</ele>
  <time>2026-09-01T19:51:29Z</time>
  <course>270.0</course>
  <speed>0.0</speed>
  <fix>3d</fix>
</trkpt>
<trkpt lat="-27.2744391" lon="151.290064">
  <ele>343.09</ele>
  <time>2026-09-01T19:51:29Z</time>
  <course>10.72</course>
  <speed>0.0</speed>
  <fix>3d</fix>
</trkpt>
<trkpt lat="-27.274439" lon="151.290064">
  <ele>343.1</ele>
  <time>2026-09-01T19:51:29Z</time>
  <course>270.0</course>
  <speed>0.0</speed>
  <fix>3d</fix>
</trkpt>
<trkpt lat="-27.2744391" lon="151.290064">
  <ele>343.09</ele>
  <time>2026-09-01T19:51:29Z</time>
  <course>10.72</course>
  <speed>0.0</speed>
  <fix>3d</fix>
</trkpt>
<trkpt lat="-27.274439" lon="151.290064">
  <ele>343.1</ele>
  <time>2026-09-01T19:51:29Z</time>
  <course>270.0</course>
  <speed>0.0</speed>
  <fix>3d</fix>
</trkpt>
<trkpt lat="-27.2744391" lon="151.290064">
  <ele>343.08</ele>
  <time>2026-09-01T19:51:29Z</time>
  <course>10.72</course>
  <speed>0.0</speed>
  <fix>3d</fix>
</trkpt>
<trkpt lat="-27.274439" lon="151.290064">
  <ele>343.1</ele>
  <time>2026-09-01T19:51:29Z</time>
  <course>270.0</course>
  <speed>0.0</speed>
  <fix>3d</fix>
</trkpt>
<trkpt lat="-27.2744391" lon="151.290064">
  <ele>343.08</ele>
  <time>2026-09-01T19:51:29Z</time>
  <course>10.72</course>
  <speed>0.0</speed>
  <fix>3d</fix>
</trkpt>
<trkpt lat="-27.274439" lon="151.290064">
  <ele>343.1</ele>
  <time>2026-09-01T19:51:29Z</time>
  <course>270.0</course>
  <speed>0.0</speed>
  <fix>3d</fix>
</trkpt>
<trkpt lat="-27.2744391" lon="151.290064">
  <ele>343.08</ele>
  <time>2026-09-01T19:51:29Z</time>
  <course>10.72</course>
  <speed>0.0</speed>
  <fix>3d</fix>
</trkpt>
<trkpt lat="-27.274439" lon="151.290064">
  <ele>343.1</ele>
  <time>2026-09-01T19:51:29Z</time>
  <course>270.0</course>
  <speed>0.0</speed>
  <fix>3d</fix>
</trkpt>
<trkpt lat="-27.2744391" lon="151.290064">
  <ele>343.07</ele>
  <time>2026-09-01T19:51:29Z</time>
  <course>10.72</course>
  <speed>0.0</speed>
  <fix>3d</fix>
</trkpt>
<trkpt lat="-27.274439" lon="151.290064">
  <ele>343.1</ele>
  <time>2026-09-01T19:51:29Z</time>
  <course>270.0</course>
  <speed>0.0</speed>
  <fix>3d</fix>
</trkpt>
<trkpt lat="-27.2744391" lon="151.290064">
  <ele>343.07</ele>
  <time>2026-09-01T19:51:29Z</time>
  <course>10.72</course>
  <speed>0.0</speed>
  <fix>3d</fix>
</trkpt>
<trkpt lat="-27.274439" lon="151.290064">
  <ele>343.1</ele>
  <time>2026-09-01T19:51:29Z</time>
  <course>270.0</course>
  <speed>0.0</speed>
  <fix>3d</fix>
</trkpt>
<trkpt lat="-27.2744391" lon="151.290064">
  <ele>343.07</ele>
  <time>2026-09-01T19:51:29Z</time>
  <course>10.72</course>
  <speed>0.0</speed>
  <fix>3d</fix>
</trkpt>
<trkpt lat="-27.274439" lon="151.290064">
  <ele>343.1</ele>
  <time>2026-09-01T19:51:29Z</time>
  <course>270.0</course>
  <speed>0.0</speed>
  <fix>3d</fix>
</trkpt>
<trkpt lat="-27.2744391" lon="151.290064">
  <ele>343.07</ele>
  <time>2026-09-01T19:51:29Z</time>
  <course>10.72</course>
  <speed>0.0</speed>
  <fix>3d</fix>
</trkpt>
<trkpt lat="-27.274439" lon="151.290064">
  <ele>343.1</ele>
  <time>2026-09-01T19:51:29Z</time>
  <course>270.0</course>
  <speed>0.0</speed>
  <fix>3d</fix>
</trkpt>
<trkpt lat="-27.2744391" lon="151.290064">
  <ele>343.07</ele>
  <time>2026-09-01T19:51:29Z</time>
  <course>10.72</course>
  <speed>0.0</speed>
  <fix>3d</fix>
</trkpt>
<trkpt lat="-27.274439" lon="151.290064">
  <ele>343.1</ele>
  <time>2026-09-01T19:51:29Z</time>
  <course>270.0</course>
  <speed>0.0</speed>
  <fix>3d</fix>
</trkpt>
<trkpt lat="-27.2744391" lon="151.290064">
  <ele>343.07</ele>
  <time>2026-09-01T19:51:29Z</time>
  <course>10.72</course>
  <speed>0.0</speed>
  <fix>3d</fix>
</trkpt>
<trkpt lat="-27.274439" lon="151.290064">
  <ele>343.1</ele>
  <time>2026-09-01T19:51:29Z</time>
  <course>270.0</course>
  <speed>0.0</speed>
  <fix>3d</fix>
</trkpt>
<trkpt lat="-27.2744391" lon="151.290064">
  <ele>343.06</ele>
  <time>2026-09-01T19:51:29Z</time>
  <course>10.72</course>
  <speed>0.0</speed>
  <fix>3d</fix>
</trkpt>
<trkpt lat="-27.274439" lon="151.290064">
  <ele>343.1</ele>
  <time>2026-09-01T19:51:29Z</time>
  <course>270.0</course>
  <speed>0.0</speed>
  <fix>3d</fix>
</trkpt>
<trkpt lat="-27.2744391" lon="151.290064">
  <ele>343.06</ele>
  <time>2026-09-01T19:51:29Z</time>
  <course>10.72</course>
  <speed>0.0</speed>
  <fix>3d</fix>
</trkpt>
<trkpt lat="-27.274439" lon="151.290064">
  <ele>343.1</ele>
  <time>2026-09-01T19:51:29Z</time>
  <course>270.0</course>
  <speed>0.0</speed>
  <fix>3d</fix>
</trkpt>
<trkpt lat="-27.2744391" lon="151.290064">
  <ele>343.06</ele>
  <time>2026-09-01T19:51:29Z</time>
  <course>10.72</course>
  <speed>0.0</speed>
  <fix>3d</fix>
</trkpt>
<trkpt lat="-27.274439" lon="151.290064">
  <ele>343.1</ele>
  <time>2026-09-01T19:51:29Z</time>
  <course>270.0</course>
  <speed>0.0</speed>
  <fix>3d</fix>
</trkpt>
<trkpt lat="-27.2744391" lon="151.290064">
  <ele>343.06</ele>
  <time>2026-09-01T19:51:29Z</time>
  <course>10.71</course>
  <speed>0.0</speed>
  <fix>3d</fix>
</trkpt>
<trkpt lat="-27.274439" lon="151.290064">
  <ele>343.1</ele>
  <time>2026-09-01T19:51:29Z</time>
  <course>270.0</course>
  <speed>0.0</speed>
  <fix>3d</fix>
</trkpt>
<trkpt lat="-27.2744391" lon="151.290064">
  <ele>343.06</ele>
  <time>2026-09-01T19:51:29Z</time>
  <course>10.71</course>
  <speed>0.0</speed>
  <fix>3d</fix>
</trkpt>
<trkpt lat="-27.274439" lon="151.290064">
  <ele>343.1</ele>
  <time>2026-09-01T19:51:29Z</time>
  <course>270.0</course>
  <speed>0.0</speed>
  <fix>3d</fix>
</trkpt>
<trkpt lat="-27.2744391" lon="151.290064">
  <ele>343.06</ele>
  <time>2026-09-01T19:51:29Z</time>
  <course>10.71</course>
  <speed>0.0</speed>
  <fix>3d</fix>
</trkpt>
<trkpt lat="-27.274439" lon="151.290064">
  <ele>343.1</ele>
  <time>2026-09-01T19:51:29Z</time>
  <course>270.0</course>
  <speed>0.0</speed>
  <fix>3d</fix>
</trkpt>
<trkpt lat="-27.2744391" lon="151.290064">
  <ele>343.06</ele>
  <time>2026-09-01T19:51:29Z</time>
  <course>10.71</course>
  <speed>0.0</speed>
  <fix>3d</fix>
</trkpt>
<trkpt lat="-27.274439" lon="151.290064">
  <ele>343.1</ele>
  <time>2026-09-01T19:51:29Z</time>
  <course>270.0</course>
  <speed>0.0</speed>
  <fix>3d</fix>
</trkpt>
<trkpt lat="-27.2744391" lon="151.290064">
  <ele>343.05</ele>
  <time>2026-09-01T19:51:29Z</time>
  <course>10.71</course>
  <speed>0.0</speed>
  <fix>3d</fix>
</trkpt>
<trkpt lat="-27.274439" lon="151.290064">
  <ele>343.1</ele>
  <time>2026-09-01T19:51:29Z</time>
  <course>270.0</course>
  <speed>0.0</speed>
  <fix>3d</fix>
</trkpt>
<trkpt lat="-27.2744391" lon="151.290064">
  <ele>343.05</ele>
  <time>2026-09-01T19:51:29Z</time>
  <course>10.71</course>
  <speed>0.0</speed>
  <fix>3d</fix>
</trkpt>
<trkpt lat="-27.274439" lon="151.290064">
  <ele>343.1</ele>
  <time>2026-09-01T19:51:29Z</time>
  <course>270.0</course>
  <speed>0.0</speed>
  <fix>3d</fix>
</trkpt>
<trkpt lat="-27.2744391" lon="151.290064">
  <ele>343.05</ele>
  <time>2026-09-01T19:51:29Z</time>
  <course>10.71</course>
  <speed>0.01</speed>
  <fix>3d</fix>
</trkpt>
<trkpt lat="-27.274439" lon="151.290064">
  <ele>343.1</ele>
  <time>2026-09-01T19:51:29Z</time>
  <course>270.0</course>
  <speed>0.0</speed>
  <fix>3d</fix>
</trkpt>
<trkpt lat="-27.2744391" lon="151.290064">
  <ele>343.05</ele>
  <time>2026-09-01T19:51:29Z</time>
  <course>10.71</course>
  <speed>0.01</speed>
  <fix>3d</fix>
</trkpt>
<trkpt lat="-27.274439" lon="151.290064">
  <ele>343.1</ele>
  <time>2026-09-01T19:51:29Z</time>
  <course>270.0</course>
  <speed>0.0</speed>
  <fix>3d</fix>
</trkpt>
<trkpt lat="-27.2744391" lon="151.290064">
  <ele>343.05</ele>
  <time>2026-09-01T19:51:29Z</time>
  <course>10.71</course>
  <speed>0.01</speed>
  <fix>3d</fix>
</trkpt>
<trkpt lat="-27.274439" lon="151.290064">
  <ele>343.1</ele>
  <time>2026-09-01T19:51:29Z</time>
  <course>270.0</course>
  <speed>0.0</speed>
  <fix>3d</fix>
</trkpt>
<trkpt lat="-27.2744391" lon="151.290064">
  <ele>343.05</ele>
  <time>2026-09-01T19:51:29Z</time>
  <course>10.71</course>
  <speed>0.01</speed>
  <fix>3d</fix>
</trkpt>
<trkpt lat="-27.274439" lon="151.290064">
  <ele>343.1</ele>
  <time>2026-09-01T19:51:29Z</time>
  <course>270.0</course>
  <speed>0.0</speed>
  <fix>3d</fix>
</trkpt>
<trkpt lat="-27.2744391" lon="151.290064">
  <ele>343.05</ele>
  <time>2026-09-01T19:51:29Z</time>
  <course>10.71</course>
  <speed>0.01</speed>
  <fix>3d</fix>
</trkpt>
<trkpt lat="-27.274439" lon="151.290064">
  <ele>343.1</ele>
  <time>2026-09-01T19:51:29Z</time>
  <course>270.0</course>
  <speed>0.0</speed>
  <fix>3d</fix>
</trkpt>
<trkpt lat="-27.2744391" lon="151.290064">
  <ele>343.05</ele>
  <time>2026-09-01T19:51:29Z</time>
  <course>10.71</course>
  <speed>0.01</speed>
  <fix>3d</fix>
</trkpt>
<trkpt lat="-27.274439" lon="151.290064">
  <ele>343.1</ele>
  <time>2026-09-01T19:51:29Z</time>
  <course>270.0</course>
  <speed>0.0</speed>
  <fix>3d</fix>
</trkpt>
<trkpt lat="-27.2744391" lon="151.290064">
  <ele>343.05</ele>
  <time>2026-09-01T19:51:29Z</time>
  <course>10.71</course>
  <speed>0.01</speed>
  <fix>3d</fix>
</trkpt>
<trkpt lat="-27.274439" lon="151.290064">
  <ele>343.1</ele>
  <time>2026-09-01T19:51:29Z</time>
  <course>270.0</course>
  <speed>0.0</speed>
  <fix>3d</fix>
</trkpt>
<trkpt lat="-27.2744391" lon="151.290064">
  <ele>343.05</ele>
  <time>2026-09-01T19:51:29Z</time>
  <course>10.71</course>
  <speed>0.01</speed>
  <fix>3d</fix>
</trkpt>
<trkpt lat="-27.274439" lon="151.290064">
  <ele>343.1</ele>
  <time>2026-09-01T19:51:29Z</time>
  <course>270.0</course>
  <speed>0.0</speed>
  <fix>3d</fix>
</trkpt>
<trkpt lat="-27.2744391" lon="151.290064">
  <ele>343.05</ele>
  <time>2026-09-01T19:51:29Z</time>
  <course>10.71</course>
  <speed>0.01</speed>
  <fix>3d</fix>
</trkpt>
<trkpt lat="-27.274439" lon="151.290064">
  <ele>343.1</ele>
  <time>2026-09-01T19:51:29Z</time>
  <course>270.0</course>
  <speed>0.0</speed>
  <fix>3d</fix>
</trkpt>
<trkpt lat="-27.2744391" lon="151.290064">
  <ele>343.05</ele>
  <time>2026-09-01T19:51:29Z</time>
  <course>10.71</course>
  <speed>0.01</speed>
  <fix>3d</fix>
</trkpt>
<trkpt lat="-27.274439" lon="151.290064">
  <ele>343.1</ele>
  <time>2026-09-01T19:51:29Z</time>
  <course>270.0</course>
  <speed>0.0</speed>
  <fix>3d</fix>
</trkpt>
<trkpt lat="-27.2744391" lon="151.290064">
  <ele>343.05</ele>
  <time>2026-09-01T19:51:29Z</time>
  <course>10.71</course>
  <speed>0.01</speed>
  <fix>3d</fix>
</trkpt>
<trkpt lat="-27.274439" lon="151.290064">
  <ele>343.1</ele>
  <time>2026-09-01T19:51:29Z</time>
  <course>270.0</course>
  <speed>0.0</speed>
  <fix>3d</fix>
</trkpt>
<trkpt lat="-27.2744391" lon="151.290064">
  <ele>343.05</ele>
  <time>2026-09-01T19:51:29Z</time>
  <course>10.71</course>
  <speed>0.01</speed>
  <fix>3d</fix>
</trkpt>
<trkpt lat="-27.274439" lon="151.290064">
  <ele>343.1</ele>
  <time>2026-09-01T19:51:29Z</time>
  <course>270.0</course>
  <speed>0.0</speed>
  <fix>3d</fix>
</trkpt>
<trkpt lat="-27.2744391" lon="151.290064">
  <ele>343.05</ele>
  <time>2026-09-01T19:51:29Z</time>
  <course>10.71</course>
  <speed>0.01</speed>
  <fix>3d</fix>
</trkpt>
<trkpt lat="-27.274439" lon="151.290064">
  <ele>343.1</ele>
  <time>2026-09-01T19:51:29Z</time>
  <course>270.0</course>
  <speed>0.0</speed>
  <fix>3d</fix>
</trkpt>
<trkpt lat="-27.2744391" lon="151.290064">
  <ele>343.05</ele>
  <time>2026-09-01T19:51:29Z</time>
  <course>10.71</course>
  <speed>0.01</speed>
  <fix>3d</fix>
</trkpt>
<trkpt lat="-27.274439" lon="151.290064">
  <ele>343.1</ele>
  <time>2026-09-01T19:51:29Z</time>
  <course>270.0</course>
  <speed>0.0</speed>
  <fix>3d</fix>
</trkpt>
<trkpt lat="-27.2744391" lon="151.290064">
  <ele>343.05</ele>
  <time>2026-09-01T19:51:29Z</time>
  <course>10.71</course>
  <speed>0.01</speed>
  <fix>3d</fix>
</trkpt>
<trkpt lat="-27.274439" lon="151.290064">
  <ele>343.1</ele>
  <time>2026-09-01T19:51:29Z</time>
  <course>270.0</course>
  <speed>0.0</speed>
  <fix>3d</fix>
</trkpt>
<trkpt lat="-27.2744391" lon="151.290064">
  <ele>343.04</ele>
  <time>2026-09-01T19:51:29Z</time>
  <course>10.71</course>
  <speed>0.01414213562373095</speed>
  <fix>3d</fix>
</trkpt>
<trkpt lat="-27.274439" lon="151.290064">
  <ele>343.1</ele>
  <time>2026-09-01T19:51:29Z</time>
  <course>270.0</course>
  <speed>0.0</speed>
  <fix>3d</fix>
</trkpt>
<trkpt lat="-27.2744391" lon="151.290064">
  <ele>343.04</ele>
  <time>2026-09-01T19:51:29Z</time>
  <course>10.71</course>
  <speed>0.01414213562373095</speed>
  <fix>3d</fix>
</trkpt>
<trkpt lat="-27.274439" lon="151.290064">
  <ele>343.1</ele>
  <time>2026-09-01T19:51:29Z</time>
  <course>270.0</course>
  <speed>0.0</speed>
  <fix>3d</fix>
</trkpt>
<trkpt lat="-27.2744391" lon="151.290064">
  <ele>343.04</ele>
  <time>2026-09-01T19:51:29Z</time>
  <course>10.71</course>
  <speed>0.01414213562373095</speed>
  <fix>3d</fix>
</trkpt>
<trkpt lat="-27.274439" lon="151.290064">
  <ele>343.1</ele>
  <time>2026-09-01T19:51:29Z</time>
  <course>270.0</course>
  <speed>0.0</speed>
  <fix>3d</fix>
</trkpt>
<trkpt lat="-27.2744391" lon="151.290064">
  <ele>343.04</ele>
  <time>2026-09-01T19:51:29Z</time>
  <course>10.71</course>
  <speed>0.01414213562373095</speed>
  <fix>3d</fix>
</trkpt>
<trkpt lat="-27.274439" lon="151.290064">
  <ele>343.1</ele>
  <time>2026-09-01T19:51:29Z</time>
  <course>270.0</course>
  <speed>0.0</speed>
  <fix>3d</fix>
</trkpt>
<trkpt lat="-27.2744391" lon="151.290064">
  <ele>343.04</ele>
  <time>2026-09-01T19:51:29Z</time>
  <course>10.71</course>
  <speed>0.01414213562373095</speed>
  <fix>3d</fix>
</trkpt>
<trkpt lat="-27.274439" lon="151.290064">
  <ele>343.1</ele>
  <time>2026-09-01T19:51:29Z</time>
  <course>270.0</course>
  <speed>0.0</speed>
  <fix>3d</fix>
</trkpt>
<trkpt lat="-27.2744391" lon="151.290064">
  <ele>343.04</ele>
  <time>2026-09-01T19:51:29Z</time>
  <course>10.71</course>
  <speed>0.01414213562373095</speed>
  <fix>3d</fix>
</trkpt>
<trkpt lat="-27.274439" lon="151.290064">
  <ele>343.1</ele>
  <time>2026-09-01T19:51:29Z</time>
  <course>270.0</course>
  <speed>0.0</speed>
  <fix>3d</fix>
</trkpt>
<trkpt lat="-27.2744391" lon="151.290064">
  <ele>343.04</ele>
  <time>2026-09-01T19:51:29Z</time>
  <course>10.71</course>
  <speed>0.01414213562373095</speed>
  <fix>3d</fix>
</trkpt>
<trkpt lat="-27.274439" lon="151.290064">
  <ele>343.1</ele>
  <time>2026-09-01T19:51:29Z</time>
  <course>270.0</course>
  <speed>0.0</speed>
  <fix>3d</fix>
</trkpt>
<trkpt lat="-27.2744391" lon="151.290064">
  <ele>343.04</ele>
  <time>2026-09-01T19:51:29Z</time>
  <course>10.71</course>
  <speed>0.01414213562373095</speed>
  <fix>3d</fix>
</trkpt>
<trkpt lat="-27.274439" lon="151.290064">
  <ele>343.1</ele>
  <time>2026-09-01T19:51:29Z</time>
  <course>270.0</course>
  <speed>0.0</speed>
  <fix>3d</fix>
</trkpt>
<trkpt lat="-27.2744391" lon="151.290064">
  <ele>343.04</ele>
  <time>2026-09-01T19:51:29Z</time>
  <course>10.71</course>
  <speed>0.01414213562373095</speed>
  <fix>3d</fix>
</trkpt>
<trkpt lat="-27.274439" lon="151.290064">
  <ele>343.1</ele>
  <time>2026-09-01T19:51:29Z</time>
  <course>270.0</course>
  <speed>0.0</speed>
  <fix>3d</fix>
</trkpt>
<trkpt lat="-27.2744391" lon="151.290064">
  <ele>343.05</ele>
  <time>2026-09-01T19:51:29Z</time>
  <course>10.71</course>
  <speed>0.01414213562373095</speed>
  <fix>3d</fix>
</trkpt>
<trkpt lat="-27.274439" lon="151.290064">
  <ele>343.1</ele>
  <time>2026-09-01T19:51:29Z</time>
  <course>270.0</course>
  <speed>0.0</speed>
  <fix>3d</fix>
</trkpt>
<trkpt lat="-27.2744391" lon="151.290064">
  <ele>343.05</ele>
  <time>2026-09-01T19:51:29Z</time>
  <course>10.71</course>
  <speed>0.01414213562373095</speed>
  <fix>3d</fix>
</trkpt>
<trkpt lat="-27.274439" lon="151.290064">
  <ele>343.1</ele>
  <time>2026-09-01T19:51:29Z</time>
  <course>270.0</course>
  <speed>0.0</speed>
  <fix>3d</fix>
</trkpt>
<trkpt lat="-27.2744391" lon="151.290064">
  <ele>343.05</ele>
  <time>2026-09-01T19:51:29Z</time>
  <course>10.71</course>
  <speed>0.01414213562373095</speed>
  <fix>3d</fix>
</trkpt>
<trkpt lat="-27.274439" lon="151.290064">
  <ele>343.1</ele>
  <time>2026-09-01T19:51:29Z</time>
  <course>270.0</course>
  <speed>0.0</speed>
  <fix>3d</fix>
</trkpt>
<trkpt lat="-27.2744391" lon="151.290064">
  <ele>343.05</ele>
  <time>2026-09-01T19:51:29Z</time>
  <course>10.71</course>
  <speed>0.01414213562373095</speed>
  <fix>3d</fix>
</trkpt>
<trkpt lat="-27.274439" lon="151.290064">
  <ele>343.1</ele>
  <time>2026-09-01T19:51:29Z</time>
  <course>270.0</course>
  <speed>0.0</speed>
  <fix>3d</fix>
</trkpt>
<trkpt lat="-27.2744391" lon="151.290064">
  <ele>343.05</ele>
  <time>2026-09-01T19:51:29Z</time>
  <course>10.71</course>
  <speed>0.01414213562373095</speed>
  <fix>3d</fix>
</trkpt>
<trkpt lat="-27.274439" lon="151.290064">
  <ele>343.1</ele>
  <time>2026-09-01T19:51:29Z</time>
  <course>270.0</course>
  <speed>0.0</speed>
  <fix>3d</fix>
</trkpt>
<trkpt lat="-27.2744391" lon="151.290064">
  <ele>343.05</ele>
  <time>2026-09-01T19:51:29Z</time>
  <course>10.71</course>
  <speed>0.01414213562373095</speed>
  <fix>3d</fix>
</trkpt>
<trkpt lat="-27.274439" lon="151.290064">
  <ele>343.1</ele>
  <time>2026-09-01T19:51:29Z</time>
  <course>270.0</course>
  <speed>0.0</speed>
  <fix>3d</fix>
</trkpt>
<trkpt lat="-27.2744391" lon="151.290064">
  <ele>343.05</ele>
  <time>2026-09-01T19:51:29Z</time>
  <course>10.71</course>
  <speed>0.01414213562373095</speed>
  <fix>3d</fix>
</trkpt>
<trkpt lat="-27.274439" lon="151.290064">
  <ele>343.1</ele>
  <time>2026-09-01T19:51:29Z</time>
  <course>270.0</course>
  <speed>0.0</speed>
  <fix>3d</fix>
</trkpt>
<trkpt lat="-27.2744391" lon="151.290064">
  <ele>343.04</ele>
  <time>2026-09-01T19:51:29Z</time>
  <course>10.71</course>
  <speed>0.01414213562373095</speed>
  <fix>3d</fix>
</trkpt>
<trkpt lat="-27.274439" lon="151.290064">
  <ele>343.1</ele>
  <time>2026-09-01T19:51:29Z</time>
  <course>270.0</course>
  <speed>0.0</speed>
  <fix>3d</fix>
</trkpt>
<trkpt lat="-27.2744391" lon="151.290064">
  <ele>343.1</ele>
  <time>2026-09-01T19:51:29Z</time>
  <course>10.71</course>
  <speed>0.01414213562373095</speed>
  <fix>3d</fix>
</trkpt>
<trkpt lat="-27.274439" lon="151.290064">
  <ele>343.1</ele>
  <time>2026-09-01T19:51:29Z</time>
  <course>270.0</course>
  <speed>0.0</speed>
  <fix>3d</fix>
</trkpt>
<trkpt lat="-27.2744391" lon="151.290064">
  <ele>343.09</ele>
  <time>2026-09-01T19:51:29Z</time>
  <course>10.71</course>
  <speed>0.01414213562373095</speed>
  <fix>3d</fix>
</trkpt>
<trkpt lat="-27.274439" lon="151.290064">
  <ele>343.1</ele>
  <time>2026-09-01T19:51:29Z</time>
  <course>270.0</course>
  <speed>0.0</speed>
  <fix>3d</fix>
</trkpt>
<trkpt lat="-27.2744391" lon="151.290064">
  <ele>343.09</ele>
  <time>2026-09-01T19:51:29Z</time>
  <course>10.71</course>
  <speed>0.01414213562373095</speed>
  <fix>3d</fix>
</trkpt>
<trkpt lat="-27.274439" lon="151.290064">
  <ele>343.1</ele>
  <time>2026-09-01T19:51:29Z</time>
  <course>270.0</course>
  <speed>0.0</speed>
  <fix>3d</fix>
</trkpt>
<trkpt lat="-27.2744391" lon="151.290064">
  <ele>343.09</ele>
  <time>2026-09-01T19:51:29Z</time>
  <course>10.71</course>
  <speed>0.01414213562373095</speed>
  <fix>3d</fix>
</trkpt>
<trkpt lat="-27.274439" lon="151.290064">
  <ele>343.1</ele>
  <time>2026-09-01T19:51:29Z</time>
  <course>270.0</course>
  <speed>0.0</speed>
  <fix>3d</fix>
</trkpt>
<trkpt lat="-27.2744391" lon="151.290064">
  <ele>343.09</ele>
  <time>2026-09-01T19:51:29Z</time>
  <course>10.71</course>
  <speed>0.01414213562373095</speed>
  <fix>3d</fix>
</trkpt>
<trkpt lat="-27.274439" lon="151.290064">
  <ele>343.1</ele>
  <time>2026-09-01T19:51:29Z</time>
  <course>270.0</course>
  <speed>0.0</speed>
  <fix>3d</fix>
</trkpt>
<trkpt lat="-27.2744391" lon="151.2900641">
  <ele>343.09</ele>
  <time>2026-09-01T19:51:29Z</time>
  <course>10.7</course>
  <speed>0.01414213562373095</speed>
  <fix>3d</fix>
</trkpt>
<trkpt lat="-27.274439" lon="151.290064">
  <ele>343.1</ele>
  <time>2026-09-01T19:51:29Z</time>
  <course>270.0</course>
  <speed>0.0</speed>
  <fix>3d</fix>
</trkpt>
<trkpt lat="-27.2744391" lon="151.290064">
  <ele>343.1</ele>
  <time>2026-09-01T19:51:29Z</time>
  <course>10.7</course>
  <speed>0.01414213562373095</speed>
  <fix>3d</fix>
</trkpt>
<trkpt lat="-27.274439" lon="151.290064">
  <ele>343.1</ele>
  <time>2026-09-01T19:51:29Z</time>
  <course>270.0</course>
  <speed>0.0</speed>
  <fix>3d</fix>
</trkpt>
<trkpt lat="-27.2744391" lon="151.2900641">
  <ele>343.1</ele>
  <time>2026-09-01T19:51:29Z</time>
  <course>10.7</course>
  <speed>0.01414213562373095</speed>
  <fix>3d</fix>
</trkpt>
<trkpt lat="-27.274439" lon="151.290064">
  <ele>343.1</ele>
  <time>2026-09-01T19:51:29Z</time>
  <course>270.0</course>
  <speed>0.0</speed>
  <fix>3d</fix>
</trkpt>
<trkpt lat="-27.2744391" lon="151.2900641">
  <ele>343.1</ele>
  <time>2026-09-01T19:51:29Z</time>
  <course>10.7</course>
  <speed>0.01414213562373095</speed>
  <fix>3d</fix>
</trkpt>
<trkpt lat="-27.274439" lon="151.290064">
  <ele>343.1</ele>
  <time>2026-09-01T19:51:29Z</time>
  <course>270.0</course>
  <speed>0.0</speed>
  <fix>3d</fix>
</trkpt>
<trkpt lat="-27.2744391" lon="151.2900641">
  <ele>343.1</ele>
  <time>2026-09-01T19:51:29Z</time>
  <course>10.7</course>
  <speed>0.01414213562373095</speed>
  <fix>3d</fix>
</trkpt>
<trkpt lat="-27.274439" lon="151.290064">
  <ele>343.1</ele>
  <time>2026-09-01T19:51:29Z</time>
  <course>270.0</course>
  <speed>0.0</speed>
  <fix>3d</fix>
</trkpt>
<trkpt lat="-27.2744391" lon="151.2900641">
  <ele>343.11</ele>
  <time>2026-09-01T19:51:29Z</time>
  <course>10.7</course>
  <speed>0.01414213562373095</speed>
  <fix>3d</fix>
</trkpt>
<trkpt lat="-27.274439" lon="151.290064">
  <ele>343.1</ele>
  <time>2026-09-01T19:51:29Z</time>
  <course>270.0</course>
  <speed>0.0</speed>
  <fix>3d</fix>
</trkpt>
<trkpt lat="-27.2744391" lon="151.2900641">
  <ele>343.11</ele>
  <time>2026-09-01T19:51:29Z</time>
  <course>10.7</course>
  <speed>0.01414213562373095</speed>
  <fix>3d</fix>
</trkpt>
<trkpt lat="-27.274439" lon="151.290064">
  <ele>343.1</ele>
  <time>2026-09-01T19:51:29Z</time>
  <course>270.0</course>
  <speed>0.0</speed>
  <fix>3d</fix>
</trkpt>
<trkpt lat="-27.2744391" lon="151.2900641">
  <ele>343.12</ele>
  <time>2026-09-01T19:51:29Z</time>
  <course>10.7</course>
  <speed>0.01414213562373095</speed>
  <fix>3d</fix>
</trkpt>
<trkpt lat="-27.274439" lon="151.290064">
  <ele>343.1</ele>
  <time>2026-09-01T19:51:29Z</time>
  <course>270.0</course>
  <speed>0.0</speed>
  <fix>3d</fix>
</trkpt>
<trkpt lat="-27.2744391" lon="151.2900641">
  <ele>343.12</ele>
  <time>2026-09-01T19:51:29Z</time>
  <course>10.7</course>
  <speed>0.022360679774997897</speed>
  <fix>3d</fix>
</trkpt>
<trkpt lat="-27.274439" lon="151.290064">
  <ele>343.1</ele>
  <time>2026-09-01T19:51:29Z</time>
  <course>270.0</course>
  <speed>0.0</speed>
  <fix>3d</fix>
</trkpt>
<trkpt lat="-27.2744391" lon="151.2900641">
  <ele>343.13</ele>
  <time>2026-09-01T19:51:29Z</time>
  <course>10.7</course>
  <speed>0.022360679774997897</speed>
  <fix>3d</fix>
</trkpt>
<trkpt lat="-27.274439" lon="151.290064">
  <ele>343.1</ele>
  <time>2026-09-01T19:51:29Z</time>
  <course>270.0</course>
  <speed>0.0</speed>
  <fix>3d</fix>
</trkpt>
<trkpt lat="-27.2744391" lon="151.2900641">
  <ele>343.13</ele>
  <time>2026-09-01T19:51:29Z</time>
  <course>10.7</course>
  <speed>0.022360679774997897</speed>
  <fix>3d</fix>
</trkpt>
<trkpt lat="-27.274439" lon="151.290064">
  <ele>343.1</ele>
  <time>2026-09-01T19:51:29Z</time>
  <course>270.0</course>
  <speed>0.0</speed>
  <fix>3d</fix>
</trkpt>
<trkpt lat="-27.2744391" lon="151.2900641">
  <ele>343.13</ele>
  <time>2026-09-01T19:51:29Z</time>
  <course>10.7</course>
  <speed>0.022360679774997897</speed>
  <fix>3d</fix>
</trkpt>
<trkpt lat="-27.274439" lon="151.290064">
  <ele>343.1</ele>
  <time>2026-09-01T19:51:29Z</time>
  <course>270.0</course>
  <speed>0.0</speed>
  <fix>3d</fix>
</trkpt>
<trkpt lat="-27.2744391" lon="151.2900641">
  <ele>343.14</ele>
  <time>2026-09-01T19:51:29Z</time>
  <course>10.7</course>
  <speed>0.022360679774997897</speed>
  <fix>3d</fix>
</trkpt>
<trkpt lat="-27.274439" lon="151.290064">
  <ele>343.1</ele>
  <time>2026-09-01T19:51:29Z</time>
  <course>270.0</course>
  <speed>0.0</speed>
  <fix>3d</fix>
</trkpt>
<trkpt lat="-27.2744391" lon="151.2900641">
  <ele>343.14</ele>
  <time>2026-09-01T19:51:29Z</time>
  <course>10.7</course>
  <speed>0.022360679774997897</speed>
  <fix>3d</fix>
</trkpt>
<trkpt lat="-27.274439" lon="151.290064">
  <ele>343.1</ele>
  <time>2026-09-01T19:51:29Z</time>
  <course>270.0</course>
  <speed>0.0</speed>
  <fix>3d</fix>
</trkpt>
<trkpt lat="-27.2744391" lon="151.2900641">
  <ele>343.15</ele>
  <time>2026-09-01T19:51:29Z</time>
  <course>10.7</course>
  <speed>0.022360679774997897</speed>
  <fix>3d</fix>
</trkpt>
<trkpt lat="-27.274439" lon="151.290064">
  <ele>343.1</ele>
  <time>2026-09-01T19:51:29Z</time>
  <course>270.0</course>
  <speed>0.0</speed>
  <fix>3d</fix>
</trkpt>
<trkpt lat="-27.2744391" lon="151.2900641">
  <ele>343.15</ele>
  <time>2026-09-01T19:51:29Z</time>
  <course>10.7</course>
  <speed>0.022360679774997897</speed>
  <fix>3d</fix>
</trkpt>
<trkpt lat="-27.274439" lon="151.290064">
  <ele>343.1</ele>
  <time>2026-09-01T19:51:29Z</time>
  <course>270.0</course>
  <speed>0.0</speed>
  <fix>3d</fix>
</trkpt>
<trkpt lat="-27.2744391" lon="151.2900641">
  <ele>343.16</ele>
  <time>2026-09-01T19:51:29Z</time>
  <course>10.7</course>
  <speed>0.022360679774997897</speed>
  <fix>3d</fix>
</trkpt>
<trkpt lat="-27.274439" lon="151.290064">
  <ele>343.1</ele>
  <time>2026-09-01T19:51:29Z</time>
  <course>270.0</course>
  <speed>0.0</speed>
  <fix>3d</fix>
</trkpt>
<trkpt lat="-27.2744391" lon="151.2900641">
  <ele>343.16</ele>
  <time>2026-09-01T19:51:29Z</time>
  <course>10.7</course>
  <speed>0.022360679774997897</speed>
  <fix>3d</fix>
</trkpt>
<trkpt lat="-27.274439" lon="151.290064">
  <ele>343.1</ele>
  <time>2026-09-01T19:51:29Z</time>
  <course>270.0</course>
  <speed>0.0</speed>
  <fix>3d</fix>
</trkpt>
<trkpt lat="-27.2744391" lon="151.2900641">
  <ele>343.16</ele>
  <time>2026-09-01T19:51:29Z</time>
  <course>10.7</course>
  <speed>0.022360679774997897</speed>
  <fix>3d</fix>
</trkpt>
<trkpt lat="-27.274439" lon="151.290064">
  <ele>343.1</ele>
  <time>2026-09-01T19:51:29Z</time>
  <course>270.0</course>
  <speed>0.0</speed>
  <fix>3d</fix>
</trkpt>
<trkpt lat="-27.2744391" lon="151.2900641">
  <ele>343.17</ele>
  <time>2026-09-01T19:51:29Z</time>
  <course>10.7</course>
  <speed>0.022360679774997897</speed>
  <fix>3d</fix>
</trkpt>
<trkpt lat="-27.274439" lon="151.290064">
  <ele>343.1</ele>
  <time>2026-09-01T19:51:29Z</time>
  <course>270.0</course>
  <speed>0.0</speed>
  <fix>3d</fix>
</trkpt>
<trkpt lat="-27.2744391" lon="151.2900641">
  <ele>343.17</ele>
  <time>2026-09-01T19:51:29Z</time>
  <course>10.7</course>
  <speed>0.022360679774997897</speed>
  <fix>3d</fix>
</trkpt>
<trkpt lat="-27.274439" lon="151.290064">
  <ele>343.1</ele>
  <time>2026-09-01T19:51:29Z</time>
  <course>270.0</course>
  <speed>0.0</speed>
  <fix>3d</fix>
</trkpt>
<trkpt lat="-27.2744391" lon="151.2900641">
  <ele>343.18</ele>
  <time>2026-09-01T19:51:29Z</time>
  <course>10.7</course>
  <speed>0.022360679774997897</speed>
  <fix>3d</fix>
</trkpt>
<trkpt lat="-27.274439" lon="151.290064">
  <ele>343.1</ele>
  <time>2026-09-01T19:51:29Z</time>
  <course>270.0</course>
  <speed>0.0</speed>
  <fix>3d</fix>
</trkpt>
<trkpt lat="-27.2744391" lon="151.2900641">
  <ele>343.18</ele>
  <time>2026-09-01T19:51:29Z</time>
  <course>10.7</course>
  <speed>0.022360679774997897</speed>
  <fix>3d</fix>
</trkpt>
<trkpt lat="-27.274439" lon="151.290064">
  <ele>343.1</ele>
  <time>2026-09-01T19:51:29Z</time>
  <course>270.0</course>
  <speed>0.0</speed>
  <fix>3d</fix>
</trkpt>
<trkpt lat="-27.2744391" lon="151.2900641">
  <ele>343.18</ele>
  <time>2026-09-01T19:51:29Z</time>
  <course>10.7</course>
  <speed>0.022360679774997897</speed>
  <fix>3d</fix>
</trkpt>
<trkpt lat="-27.274439" lon="151.290064">
  <ele>343.1</ele>
  <time>2026-09-01T19:51:29Z</time>
  <course>270.0</course>
  <speed>0.0</speed>
  <fix>3d</fix>
</trkpt>
<trkpt lat="-27.2744391" lon="151.2900641">
  <ele>343.18</ele>
  <time>2026-09-01T19:51:29Z</time>
  <course>10.7</course>
  <speed>0.022360679774997897</speed>
  <fix>3d</fix>
</trkpt>
<trkpt lat="-27.274439" lon="151.290064">
  <ele>343.1</ele>
  <time>2026-09-01T19:51:29Z</time>
  <course>270.0</course>
  <speed>0.0</speed>
  <fix>3d</fix>
</trkpt>
<trkpt lat="-27.2744391" lon="151.2900641">
  <ele>343.18</ele>
  <time>2026-09-01T19:51:29Z</time>
  <course>10.7</course>
  <speed>0.022360679774997897</speed>
  <fix>3d</fix>
</trkpt>
<trkpt lat="-27.274439" lon="151.290064">
  <ele>343.1</ele>
  <time>2026-09-01T19:51:29Z</time>
  <course>270.0</course>
  <speed>0.0</speed>
  <fix>3d</fix>
</trkpt>
<trkpt lat="-27.2744391" lon="151.2900641">
  <ele>343.18</ele>
  <time>2026-09-01T19:51:29Z</time>
  <course>10.7</course>
  <speed>0.022360679774997897</speed>
  <fix>3d</fix>
</trkpt>
<trkpt lat="-27.274439" lon="151.290064">
  <ele>343.1</ele>
  <time>2026-09-01T19:51:29Z</time>
  <course>270.0</course>
  <speed>0.0</speed>
  <fix>3d</fix>
</trkpt>
<trkpt lat="-27.2744391" lon="151.2900641">
  <ele>343.19</ele>
  <time>2026-09-01T19:51:29Z</time>
  <course>10.7</course>
  <speed>0.022360679774997897</speed>
  <fix>3d</fix>
</trkpt>
<trkpt lat="-27.274439" lon="151.290064">
  <ele>343.1</ele>
  <time>2026-09-01T19:51:29Z</time>
  <course>270.0</course>
  <speed>0.0</speed>
  <fix>3d</fix>
</trkpt>
<trkpt lat="-27.2744391" lon="151.2900641">
  <ele>343.19</ele>
  <time>2026-09-01T19:51:29Z</time>
  <course>10.7</course>
  <speed>0.022360679774997897</speed>
  <fix>3d</fix>
</trkpt>
<trkpt lat="-27.274439" lon="151.290064">
  <ele>343.1</ele>
  <time>2026-09-01T19:51:29Z</time>
  <course>270.0</course>
  <speed>0.0</speed>
  <fix>3d</fix>
</trkpt>
<trkpt lat="-27.2744391" lon="151.2900641">
  <ele>343.19</ele>
  <time>2026-09-01T19:51:29Z</time>
  <course>10.7</course>
  <speed>0.022360679774997897</speed>
  <fix>3d</fix>
</trkpt>
<trkpt lat="-27.274439" lon="151.290064">
  <ele>343.1</ele>
  <time>2026-09-01T19:51:29Z</time>
  <course>270.0</course>
  <speed>0.0</speed>
  <fix>3d</fix>
</trkpt>
<trkpt lat="-27.2744391" lon="151.2900641">
  <ele>343.19</ele>
  <time>2026-09-01T19:51:29Z</time>
  <course>10.7</course>
  <speed>0.022360679774997897</speed>
  <fix>3d</fix>
</trkpt>
<trkpt lat="-27.274439" lon="151.290064">
  <ele>343.1</ele>
  <time>2026-09-01T19:51:29Z</time>
  <course>270.0</course>
  <speed>0.0</speed>
  <fix>3d</fix>
</trkpt>
<trkpt lat="-27.2744391" lon="151.2900641">
  <ele>343.19</ele>
  <time>2026-09-01T19:51:29Z</time>
  <course>10.7</course>
  <speed>0.022360679774997897</speed>
  <fix>3d</fix>
</trkpt>
<trkpt lat="-27.274439" lon="151.290064">
  <ele>343.1</ele>
  <time>2026-09-01T19:51:29Z</time>
  <course>270.0</course>
  <speed>0.0</speed>
  <fix>3d</fix>
</trkpt>
<trkpt lat="-27.2744391" lon="151.2900641">
  <ele>343.19</ele>
  <time>2026-09-01T19:51:29Z</time>
  <course>10.7</course>
  <speed>0.022360679774997897</speed>
  <fix>3d</fix>
</trkpt>
<trkpt lat="-27.274439" lon="151.290064">
  <ele>343.1</ele>
  <time>2026-09-01T19:51:29Z</time>
  <course>270.0</course>
  <speed>0.0</speed>
  <fix>3d</fix>
</trkpt>
<trkpt lat="-27.2744391" lon="151.2900641">
  <ele>343.19</ele>
  <time>2026-09-01T19:51:29Z</time>
  <course>10.7</course>
  <speed>0.022360679774997897</speed>
  <fix>3d</fix>
</trkpt>
<trkpt lat="-27.274439" lon="151.290064">
  <ele>343.1</ele>
  <time>2026-09-01T19:51:29Z</time>
  <course>270.0</course>
  <speed>0.0</speed>
  <fix>3d</fix>
</trkpt>
<trkpt lat="-27.2744391" lon="151.2900641">
  <ele>343.19</ele>
  <time>2026-09-01T19:51:29Z</time>
  <course>10.7</course>
  <speed>0.022360679774997897</speed>
  <fix>3d</fix>
</trkpt>
<trkpt lat="-27.274439" lon="151.290064">
  <ele>343.1</ele>
  <time>2026-09-01T19:51:29Z</time>
  <course>270.0</course>
  <speed>0.0</speed>
  <fix>3d</fix>
</trkpt>
<trkpt lat="-27.2744391" lon="151.2900641">
  <ele>343.19</ele>
  <time>2026-09-01T19:51:29Z</time>
  <course>10.7</course>
  <speed>0.022360679774997897</speed>
  <fix>3d</fix>
</trkpt>
<trkpt lat="-27.274439" lon="151.290064">
  <ele>343.1</ele>
  <time>2026-09-01T19:51:29Z</time>
  <course>270.0</course>
  <speed>0.0</speed>
  <fix>3d</fix>
</trkpt>
<trkpt lat="-27.2744391" lon="151.2900641">
  <ele>343.2</ele>
  <time>2026-09-01T19:51:29Z</time>
  <course>10.7</course>
  <speed>0.022360679774997897</speed>
  <fix>3d</fix>
</trkpt>
<trkpt lat="-27.274439" lon="151.290064">
  <ele>343.1</ele>
  <time>2026-09-01T19:51:29Z</time>
  <course>270.0</course>
  <speed>0.0</speed>
  <fix>3d</fix>
</trkpt>
<trkpt lat="-27.2744391" lon="151.2900641">
  <ele>343.2</ele>
  <time>2026-09-01T19:51:29Z</time>
  <course>10.7</course>
  <speed>0.022360679774997897</speed>
  <fix>3d</fix>
</trkpt>
<trkpt lat="-27.274439" lon="151.290064">
  <ele>343.1</ele>
  <time>2026-09-01T19:51:29Z</time>
  <course>270.0</course>
  <speed>0.0</speed>
  <fix>3d</fix>
</trkpt>
<trkpt lat="-27.2744391" lon="151.2900641">
  <ele>343.2</ele>
  <time>2026-09-01T19:51:29Z</time>
  <course>10.7</course>
  <speed>0.022360679774997897</speed>
  <fix>3d</fix>
</trkpt>
<trkpt lat="-27.274439" lon="151.290064">
  <ele>343.1</ele>
  <time>2026-09-01T19:51:29Z</time>
  <course>270.0</course>
  <speed>0.0</speed>
  <fix>3d</fix>
</trkpt>
<trkpt lat="-27.2744391" lon="151.2900641">
  <ele>343.2</ele>
  <time>2026-09-01T19:51:29Z</time>
  <course>10.7</course>
  <speed>0.022360679774997897</speed>
  <fix>3d</fix>
</trkpt>
<trkpt lat="-27.274439" lon="151.290064">
  <ele>343.1</ele>
  <time>2026-09-01T19:51:29Z</time>
  <course>270.0</course>
  <speed>0.0</speed>
  <fix>3d</fix>
</trkpt>
<trkpt lat="-27.2744392" lon="151.2900641">
  <ele>343.21</ele>
  <time>2026-09-01T19:51:29Z</time>
  <course>10.7</course>
  <speed>0.022360679774997897</speed>
  <fix>3d</fix>
</trkpt>
<trkpt lat="-27.274439" lon="151.290064">
  <ele>343.1</ele>
  <time>2026-09-01T19:51:29Z</time>
  <course>270.0</course>
  <speed>0.0</speed>
  <fix>3d</fix>
</trkpt>
<trkpt lat="-27.2744391" lon="151.2900641">
  <ele>343.21</ele>
  <time>2026-09-01T19:51:29Z</time>
  <course>10.7</course>
  <speed>0.022360679774997897</speed>
  <fix>3d</fix>
</trkpt>
<trkpt lat="-27.274439" lon="151.290064">
  <ele>343.1</ele>
  <time>2026-09-01T19:51:29Z</time>
  <course>270.0</course>
  <speed>0.0</speed>
  <fix>3d</fix>
</trkpt>
<trkpt lat="-27.2744392" lon="151.2900641">
  <ele>343.21</ele>
  <time>2026-09-01T19:51:29Z</time>
  <course>10.7</course>
  <speed>0.022360679774997897</speed>
  <fix>3d</fix>
</trkpt>
<trkpt lat="-27.274439" lon="151.290064">
  <ele>343.1</ele>
  <time>2026-09-01T19:51:29Z</time>
  <course>270.0</course>
  <speed>0.0</speed>
  <fix>3d</fix>
</trkpt>
<trkpt lat="-27.2744391" lon="151.2900641">
  <ele>343.21</ele>
  <time>2026-09-01T19:51:29Z</time>
  <course>10.7</course>
  <speed>0.022360679774997897</speed>
  <fix>3d</fix>
</trkpt>
<trkpt lat="-27.274439" lon="151.290064">
  <ele>343.1</ele>
  <time>2026-09-01T19:51:29Z</time>
  <course>270.0</course>
  <speed>0.0</speed>
  <fix>3d</fix>
</trkpt>
<trkpt lat="-27.2744392" lon="151.2900641">
  <ele>343.21</ele>
  <time>2026-09-01T19:51:29Z</time>
  <course>10.7</course>
  <speed>0.022360679774997897</speed>
  <fix>3d</fix>
</trkpt>
<trkpt lat="-27.274439" lon="151.290064">
  <ele>343.1</ele>
  <time>2026-09-01T19:51:29Z</time>
  <course>270.0</course>
  <speed>0.0</speed>
  <fix>3d</fix>
</trkpt>
<trkpt lat="-27.2744392" lon="151.2900641">
  <ele>343.21</ele>
  <time>2026-09-01T19:51:29Z</time>
  <course>10.7</course>
  <speed>0.022360679774997897</speed>
  <fix>3d</fix>
</trkpt>
<trkpt lat="-27.274439" lon="151.290064">
  <ele>343.1</ele>
  <time>2026-09-01T19:51:29Z</time>
  <course>270.0</course>
  <speed>0.0</speed>
  <fix>3d</fix>
</trkpt>
<trkpt lat="-27.2744392" lon="151.2900641">
  <ele>343.21</ele>
  <time>2026-09-01T19:51:29Z</time>
  <course>10.7</course>
  <speed>0.022360679774997897</speed>
  <fix>3d</fix>
</trkpt>
<trkpt lat="-27.274439" lon="151.290064">
  <ele>343.1</ele>
  <time>2026-09-01T19:51:29Z</time>
  <course>270.0</course>
  <speed>0.0</speed>
  <fix>3d</fix>
</trkpt>
<trkpt lat="-27.2744392" lon="151.2900641">
  <ele>343.21</ele>
  <time>2026-09-01T19:51:29Z</time>
  <course>10.7</course>
  <speed>0.022360679774997897</speed>
  <fix>3d</fix>
</trkpt>
<trkpt lat="-27.274439" lon="151.290064">
  <ele>343.1</ele>
  <time>2026-09-01T19:51:29Z</time>
  <course>270.0</course>
  <speed>0.0</speed>
  <fix>3d</fix>
</trkpt>
<trkpt lat="-27.2744392" lon="151.2900641">
  <ele>343.22</ele>
  <time>2026-09-01T19:51:29Z</time>
  <course>10.7</course>
  <speed>0.022360679774997897</speed>
  <fix>3d</fix>
</trkpt>
<trkpt lat="-27.274439" lon="151.290064">
  <ele>343.1</ele>
  <time>2026-09-01T19:51:29Z</time>
  <course>270.0</course>
  <speed>0.0</speed>
  <fix>3d</fix>
</trkpt>
<trkpt lat="-27.2744392" lon="151.2900641">
  <ele>343.22</ele>
  <time>2026-09-01T19:51:29Z</time>
  <course>10.7</course>
  <speed>0.022360679774997897</speed>
  <fix>3d</fix>
</trkpt>
<trkpt lat="-27.274439" lon="151.290064">
  <ele>343.1</ele>
  <time>2026-09-01T19:51:29Z</time>
  <course>270.0</course>
  <speed>0.0</speed>
  <fix>3d</fix>
</trkpt>
<trkpt lat="-27.2744392" lon="151.2900641">
  <ele>343.22</ele>
  <time>2026-09-01T19:51:29Z</time>
  <course>10.7</course>
  <speed>0.022360679774997897</speed>
  <fix>3d</fix>
</trkpt>
<trkpt lat="-27.274439" lon="151.290064">
  <ele>343.1</ele>
  <time>2026-09-01T19:51:29Z</time>
  <course>270.0</course>
  <speed>0.0</speed>
  <fix>3d</fix>
</trkpt>
<trkpt lat="-27.2744392" lon="151.2900641">
  <ele>343.22</ele>
  <time>2026-09-01T19:51:29Z</time>
  <course>10.7</course>
  <speed>0.022360679774997897</speed>
  <fix>3d</fix>
</trkpt>
<trkpt lat="-27.274439" lon="151.290064">
  <ele>343.1</ele>
  <time>2026-09-01T19:51:29Z</time>
  <course>270.0</course>
  <speed>0.0</speed>
  <fix>3d</fix>
</trkpt>
<trkpt lat="-27.2744392" lon="151.2900641">
  <ele>343.22</ele>
  <time>2026-09-01T19:51:29Z</time>
  <course>10.7</course>
  <speed>0.022360679774997897</speed>
  <fix>3d</fix>
</trkpt>
<trkpt lat="-27.274439" lon="151.290064">
  <ele>343.1</ele>
  <time>2026-09-01T19:51:29Z</time>
  <course>270.0</course>
  <speed>0.0</speed>
  <fix>3d</fix>
</trkpt>
<trkpt lat="-27.2744392" lon="151.2900641">
  <ele>343.22</ele>
  <time>2026-09-01T19:51:29Z</time>
  <course>10.7</course>
  <speed>0.022360679774997897</speed>
  <fix>3d</fix>
</trkpt>
<trkpt lat="-27.274439" lon="151.290064">
  <ele>343.1</ele>
  <time>2026-09-01T19:51:29Z</time>
  <course>270.0</course>
  <speed>0.0</speed>
  <fix>3d</fix>
</trkpt>
<trkpt lat="-27.2744392" lon="151.2900641">
  <ele>343.22</ele>
  <time>2026-09-01T19:51:29Z</time>
  <course>10.7</course>
  <speed>0.022360679774997897</speed>
  <fix>3d</fix>
</trkpt>
<trkpt lat="-27.274439" lon="151.290064">
  <ele>343.1</ele>
  <time>2026-09-01T19:51:29Z</time>
  <course>270.0</course>
  <speed>0.0</speed>
  <fix>3d</fix>
</trkpt>
<trkpt lat="-27.2744392" lon="151.2900641">
  <ele>343.1</ele>
  <time>2026-09-01T19:51:29Z</time>
  <course>10.7</course>
  <speed>0.022360679774997897</speed>
  <fix>3d</fix>
</trkpt>
<trkpt lat="-27.274439" lon="151.290064">
  <ele>343.1</ele>
  <time>2026-09-01T19:51:29Z</time>
  <course>270.0</course>
  <speed>0.0</speed>
  <fix>3d</fix>
</trkpt>
<trkpt lat="-27.2744392" lon="151.2900641">
  <ele>343.1</ele>
  <time>2026-09-01T19:51:29Z</time>
  <course>10.7</course>
  <speed>0.022360679774997897</speed>
  <fix>3d</fix>
</trkpt>
<trkpt lat="-27.274439" lon="151.290064">
  <ele>343.1</ele>
  <time>2026-09-01T19:51:29Z</time>
  <course>270.0</course>
  <speed>0.0</speed>
  <fix>3d</fix>
</trkpt>
<trkpt lat="-27.2744392" lon="151.2900641">
  <ele>343.1</ele>
  <time>2026-09-01T19:51:29Z</time>
  <course>10.7</course>
  <speed>0.022360679774997897</speed>
  <fix>3d</fix>
</trkpt>
<trkpt lat="-27.274439" lon="151.290064">
  <ele>343.1</ele>
  <time>2026-09-01T19:51:29Z</time>
  <course>270.0</course>
  <speed>0.0</speed>
  <fix>3d</fix>
</trkpt>
<trkpt lat="-27.2744392" lon="151.2900641">
  <ele>343.1</ele>
  <time>2026-09-01T19:51:29Z</time>
  <course>10.7</course>
  <speed>0.022360679774997897</speed>
  <fix>3d</fix>
</trkpt>
<trkpt lat="-27.274439" lon="151.290064">
  <ele>343.1</ele>
  <time>2026-09-01T19:51:29Z</time>
  <course>270.0</course>
  <speed>0.0</speed>
  <fix>3d</fix>
</trkpt>
<trkpt lat="-27.2744392" lon="151.2900641">
  <ele>343.1</ele>
  <time>2026-09-01T19:51:29Z</time>
  <course>10.7</course>
  <speed>0.022360679774997897</speed>
  <fix>3d</fix>
</trkpt>
<trkpt lat="-27.274439" lon="151.290064">
  <ele>343.1</ele>
  <time>2026-09-01T19:51:29Z</time>
  <course>270.0</course>
  <speed>0.0</speed>
  <fix>3d</fix>
</trkpt>
<trkpt lat="-27.2744392" lon="151.2900641">
  <ele>343.1</ele>
  <time>2026-09-01T19:51:29Z</time>
  <course>10.7</course>
  <speed>0.022360679774997897</speed>
  <fix>3d</fix>
</trkpt>
<trkpt lat="-27.274439" lon="151.290064">
  <ele>343.1</ele>
  <time>2026-09-01T19:51:29Z</time>
  <course>270.0</course>
  <speed>0.0</speed>
  <fix>3d</fix>
</trkpt>
<trkpt lat="-27.2744392" lon="151.2900641">
  <ele>343.09</ele>
  <time>2026-09-01T19:51:29Z</time>
  <course>10.7</course>
  <speed>0.022360679774997897</speed>
  <fix>3d</fix>
</trkpt>
<trkpt lat="-27.274439" lon="151.290064">
  <ele>343.1</ele>
  <time>2026-09-01T19:51:29Z</time>
  <course>270.0</course>
  <speed>0.0</speed>
  <fix>3d</fix>
</trkpt>
<trkpt lat="-27.2744392" lon="151.2900641">
  <ele>343.09</ele>
  <time>2026-09-01T19:51:29Z</time>
  <course>10.7</course>
  <speed>0.022360679774997897</speed>
  <fix>3d</fix>
</trkpt>
<trkpt lat="-27.274439" lon="151.290064">
  <ele>343.1</ele>
  <time>2026-09-01T19:51:29Z</time>
  <course>270.0</course>
  <speed>0.0</speed>
  <fix>3d</fix>
</trkpt>
<trkpt lat="-27.2744392" lon="151.2900641">
  <ele>343.08</ele>
  <time>2026-09-01T19:51:29Z</time>
  <course>10.7</course>
  <speed>0.022360679774997897</speed>
  <fix>3d</fix>
</trkpt>
<trkpt lat="-27.274439" lon="151.290064">
  <ele>343.1</ele>
  <time>2026-09-01T19:51:29Z</time>
  <course>270.0</course>
  <speed>0.0</speed>
  <fix>3d</fix>
</trkpt>
<trkpt lat="-27.2744392" lon="151.2900641">
  <ele>343.08</ele>
  <time>2026-09-01T19:51:29Z</time>
  <course>10.7</course>
  <speed>0.022360679774997897</speed>
  <fix>3d</fix>
</trkpt>
<trkpt lat="-27.274439" lon="151.290064">
  <ele>343.1</ele>
  <time>2026-09-01T19:51:29Z</time>
  <course>270.0</course>
  <speed>0.0</speed>
  <fix>3d</fix>
</trkpt>
<trkpt lat="-27.2744392" lon="151.2900641">
  <ele>343.08</ele>
  <time>2026-09-01T19:51:29Z</time>
  <course>10.7</course>
  <speed>0.022360679774997897</speed>
  <fix>3d</fix>
</trkpt>
<trkpt lat="-27.274439" lon="151.290064">
  <ele>343.1</ele>
  <time>2026-09-01T19:51:29Z</time>
  <course>270.0</course>
  <speed>0.0</speed>
  <fix>3d</fix>
</trkpt>
<trkpt lat="-27.2744392" lon="151.2900641">
  <ele>343.07</ele>
  <time>2026-09-01T19:51:29Z</time>
  <course>10.7</course>
  <speed>0.022360679774997897</speed>
  <fix>3d</fix>
</trkpt>
<trkpt lat="-27.274439" lon="151.290064">
  <ele>343.1</ele>
  <time>2026-09-01T19:51:29Z</time>
  <course>270.0</course>
  <speed>0.0</speed>
  <fix>3d</fix>
</trkpt>
<trkpt lat="-27.2744392" lon="151.2900641">
  <ele>343.07</ele>
  <time>2026-09-01T19:51:29Z</time>
  <course>10.7</course>
  <speed>0.022360679774997897</speed>
  <fix>3d</fix>
</trkpt>
<trkpt lat="-27.274439" lon="151.290064">
  <ele>343.1</ele>
  <time>2026-09-01T19:51:29Z</time>
  <course>270.0</course>
  <speed>0.0</speed>
  <fix>3d</fix>
</trkpt>
<trkpt lat="-27.2744392" lon="151.2900641">
  <ele>343.07</ele>
  <time>2026-09-01T19:51:29Z</time>
  <course>10.7</course>
  <speed>0.022360679774997897</speed>
  <fix>3d</fix>
</trkpt>
<trkpt lat="-27.274439" lon="151.290064">
  <ele>343.1</ele>
  <time>2026-09-01T19:51:29Z</time>
  <course>270.0</course>
  <speed>0.0</speed>
  <fix>3d</fix>
</trkpt>
<trkpt lat="-27.2744392" lon="151.2900641">
  <ele>343.07</ele>
  <time>2026-09-01T19:51:29Z</time>
  <course>10.7</course>
  <speed>0.022360679774997897</speed>
  <fix>3d</fix>
</trkpt>
<trkpt lat="-27.274439" lon="151.290064">
  <ele>343.1</ele>
  <time>2026-09-01T19:51:29Z</time>
  <course>270.0</course>
  <speed>0.0</speed>
  <fix>3d</fix>
</trkpt>
<trkpt lat="-27.2744392" lon="151.2900641">
  <ele>343.06</ele>
  <time>2026-09-01T19:51:29Z</time>
  <course>10.7</course>
  <speed>0.022360679774997897</speed>
  <fix>3d</fix>
</trkpt>
<trkpt lat="-27.274439" lon="151.290064">
  <ele>343.1</ele>
  <time>2026-09-01T19:51:29Z</time>
  <course>270.0</course>
  <speed>0.0</speed>
  <fix>3d</fix>
</trkpt>
<trkpt lat="-27.2744392" lon="151.2900641">
  <ele>343.06</ele>
  <time>2026-09-01T19:51:29Z</time>
  <course>10.7</course>
  <speed>0.022360679774997897</speed>
  <fix>3d</fix>
</trkpt>
<trkpt lat="-27.274439" lon="151.290064">
  <ele>343.1</ele>
  <time>2026-09-01T19:51:29Z</time>
  <course>270.0</course>
  <speed>0.0</speed>
  <fix>3d</fix>
</trkpt>
<trkpt lat="-27.2744392" lon="151.2900641">
  <ele>343.06</ele>
  <time>2026-09-01T19:51:29Z</time>
  <course>10.7</course>
  <speed>0.022360679774997897</speed>
  <fix>3d</fix>
</trkpt>
<trkpt lat="-27.274439" lon="151.290064">
  <ele>343.1</ele>
  <time>2026-09-01T19:51:29Z</time>
  <course>270.0</course>
  <speed>0.0</speed>
  <fix>3d</fix>
</trkpt>
<trkpt lat="-27.2744392" lon="151.2900641">
  <ele>343.06</ele>
  <time>2026-09-01T19:51:29Z</time>
  <course>10.7</course>
  <speed>0.022360679774997897</speed>
  <fix>3d</fix>
</trkpt>
<trkpt lat="-27.274439" lon="151.290064">
  <ele>343.1</ele>
  <time>2026-09-01T19:51:29Z</time>
  <course>270.0</course>
  <speed>0.0</speed>
  <fix>3d</fix>
</trkpt>
<trkpt lat="-27.2744392" lon="151.2900641">
  <ele>343.05</ele>
  <time>2026-09-01T19:51:29Z</time>
  <course>10.7</course>
  <speed>0.022360679774997897</speed>
  <fix>3d</fix>
</trkpt>
<trkpt lat="-27.274439" lon="151.290064">
  <ele>343.1</ele>
  <time>2026-09-01T19:51:29Z</time>
  <course>270.0</course>
  <speed>0.0</speed>
  <fix>3d</fix>
</trkpt>
<trkpt lat="-27.2744392" lon="151.2900641">
  <ele>343.05</ele>
  <time>2026-09-01T19:51:29Z</time>
  <course>10.7</course>
  <speed>0.022360679774997897</speed>
  <fix>3d</fix>
</trkpt>
<trkpt lat="-27.274439" lon="151.290064">
  <ele>343.1</ele>
  <time>2026-09-01T19:51:29Z</time>
  <course>270.0</course>
  <speed>0.0</speed>
  <fix>3d</fix>
</trkpt>
<trkpt lat="-27.2744392" lon="151.2900641">
  <ele>343.05</ele>
  <time>2026-09-01T19:51:29Z</time>
  <course>10.7</course>
  <speed>0.022360679774997897</speed>
  <fix>3d</fix>
</trkpt>
<trkpt lat="-27.274439" lon="151.290064">
  <ele>343.1</ele>
  <time>2026-09-01T19:51:29Z</time>
  <course>270.0</course>
  <speed>0.0</speed>
  <fix>3d</fix>
</trkpt>
<trkpt lat="-27.2744392" lon="151.2900641">
  <ele>343.04</ele>
  <time>2026-09-01T19:51:29Z</time>
  <course>10.7</course>
  <speed>0.022360679774997897</speed>
  <fix>3d</fix>
</trkpt>
<trkpt lat="-27.274439" lon="151.290064">
  <ele>343.1</ele>
  <time>2026-09-01T19:51:29Z</time>
  <course>270.0</course>
  <speed>0.0</speed>
  <fix>3d</fix>
</trkpt>
<trkpt lat="-27.2744392" lon="151.2900641">
  <ele>343.04</ele>
  <time>2026-09-01T19:51:29Z</time>
  <course>10.7</course>
  <speed>0.022360679774997897</speed>
  <fix>3d</fix>
</trkpt>
<trkpt lat="-27.274439" lon="151.290064">
  <ele>343.1</ele>
  <time>2026-09-01T19:51:29Z</time>
  <course>270.0</course>
  <speed>0.0</speed>
  <fix>3d</fix>
</trkpt>
<trkpt lat="-27.2744392" lon="151.2900641">
  <ele>343.04</ele>
  <time>2026-09-01T19:51:29Z</time>
  <course>10.7</course>
  <speed>0.022360679774997897</speed>
  <fix>3d</fix>
</trkpt>
<trkpt lat="-27.274439" lon="151.290064">
  <ele>343.1</ele>
  <time>2026-09-01T19:51:29Z</time>
  <course>270.0</course>
  <speed>0.0</speed>
  <fix>3d</fix>
</trkpt>
<trkpt lat="-27.2744392" lon="151.2900641">
  <ele>343.03</ele>
  <time>2026-09-01T19:51:29Z</time>
  <course>10.7</course>
  <speed>0.022360679774997897</speed>
  <fix>3d</fix>
</trkpt>
<trkpt lat="-27.274439" lon="151.290064">
  <ele>343.1</ele>
  <time>2026-09-01T19:51:29Z</time>
  <course>270.0</course>
  <speed>0.0</speed>
  <fix>3d</fix>
</trkpt>
<trkpt lat="-27.2744392" lon="151.2900641">
  <ele>343.03</ele>
  <time>2026-09-01T19:51:29Z</time>
  <course>10.7</course>
  <speed>0.022360679774997897</speed>
  <fix>3d</fix>
</trkpt>
<trkpt lat="-27.274439" lon="151.290064">
  <ele>343.1</ele>
  <time>2026-09-01T19:51:29Z</time>
  <course>270.0</course>
  <speed>0.0</speed>
  <fix>3d</fix>
</trkpt>
<trkpt lat="-27.2744392" lon="151.2900641">
  <ele>343.02</ele>
  <time>2026-09-01T19:51:29Z</time>
  <course>10.7</course>
  <speed>0.022360679774997897</speed>
  <fix>3d</fix>
</trkpt>
<trkpt lat="-27.274439" lon="151.290064">
  <ele>343.1</ele>
  <time>2026-09-01T19:51:29Z</time>
  <course>270.0</course>
  <speed>0.0</speed>
  <fix>3d</fix>
</trkpt>
<trkpt lat="-27.2744392" lon="151.2900641">
  <ele>343.02</ele>
  <time>2026-09-01T19:51:29Z</time>
  <course>10.7</course>
  <speed>0.022360679774997897</speed>
  <fix>3d</fix>
</trkpt>
<trkpt lat="-27.274439" lon="151.290064">
  <ele>343.1</ele>
  <time>2026-09-01T19:51:29Z</time>
  <course>270.0</course>
  <speed>0.0</speed>
  <fix>3d</fix>
</trkpt>
<trkpt lat="-27.2744392" lon="151.2900641">
  <ele>343.02</ele>
  <time>2026-09-01T19:51:29Z</time>
  <course>10.7</course>
  <speed>0.022360679774997897</speed>
  <fix>3d</fix>
</trkpt>
<trkpt lat="-27.274439" lon="151.290064">
  <ele>343.1</ele>
  <time>2026-09-01T19:51:29Z</time>
  <course>270.0</course>
  <speed>0.0</speed>
  <fix>3d</fix>
</trkpt>
<trkpt lat="-27.2744392" lon="151.2900641">
  <ele>343.01</ele>
  <time>2026-09-01T19:51:29Z</time>
  <course>10.7</course>
  <speed>0.022360679774997897</speed>
  <fix>3d</fix>
</trkpt>
<trkpt lat="-27.274439" lon="151.290064">
  <ele>343.1</ele>
  <time>2026-09-01T19:51:29Z</time>
  <course>270.0</course>
  <speed>0.0</speed>
  <fix>3d</fix>
</trkpt>
<trkpt lat="-27.2744392" lon="151.2900641">
  <ele>343.0</ele>
  <time>2026-09-01T19:51:29Z</time>
  <course>10.7</course>
  <speed>0.022360679774997897</speed>
  <fix>3d</fix>
</trkpt>
<trkpt lat="-27.274439" lon="151.290064">
  <ele>343.1</ele>
  <time>2026-09-01T19:51:29Z</time>
  <course>270.0</course>
  <speed>0.0</speed>
  <fix>3d</fix>
</trkpt>
<trkpt lat="-27.2744392" lon="151.2900641">
  <ele>343.0</ele>
  <time>2026-09-01T19:51:29Z</time>
  <course>10.7</course>
  <speed>0.022360679774997897</speed>
  <fix>3d</fix>
</trkpt>
<trkpt lat="-27.274439" lon="151.290064">
  <ele>343.1</ele>
  <time>2026-09-01T19:51:29Z</time>
  <course>270.0</course>
  <speed>0.0</speed>
  <fix>3d</fix>
</trkpt>
<trkpt lat="-27.2744392" lon="151.2900641">
  <ele>342.99</ele>
  <time>2026-09-01T19:51:29Z</time>
  <course>10.7</course>
  <speed>0.022360679774997897</speed>
  <fix>3d</fix>
</trkpt>
<trkpt lat="-27.274439" lon="151.290064">
  <ele>343.1</ele>
  <time>2026-09-01T19:51:29Z</time>
  <course>270.0</course>
  <speed>0.0</speed>
  <fix>3d</fix>
</trkpt>
<trkpt lat="-27.2744392" lon="151.2900641">
  <ele>342.99</ele>
  <time>2026-09-01T19:51:29Z</time>
  <course>10.71</course>
  <speed>0.022360679774997897</speed>
  <fix>3d</fix>
</trkpt>
<trkpt lat="-27.274439" lon="151.290064">
  <ele>343.1</ele>
  <time>2026-09-01T19:51:29Z</time>
  <course>270.0</course>
  <speed>0.0</speed>
  <fix>3d</fix>
</trkpt>
<trkpt lat="-27.2744392" lon="151.2900641">
  <ele>342.98</ele>
  <time>2026-09-01T19:51:29Z</time>
  <course>10.71</course>
  <speed>0.022360679774997897</speed>
  <fix>3d</fix>
</trkpt>
<trkpt lat="-27.274439" lon="151.290064">
  <ele>343.1</ele>
  <time>2026-09-01T19:51:29Z</time>
  <course>270.0</course>
  <speed>0.0</speed>
  <fix>3d</fix>
</trkpt>
<trkpt lat="-27.2744392" lon="151.2900641">
  <ele>342.98</ele>
  <time>2026-09-01T19:51:29Z</time>
  <course>10.71</course>
  <speed>0.022360679774997897</speed>
  <fix>3d</fix>
</trkpt>
<trkpt lat="-27.274439" lon="151.290064">
  <ele>343.1</ele>
  <time>2026-09-01T19:51:29Z</time>
  <course>270.0</course>
  <speed>0.0</speed>
  <fix>3d</fix>
</trkpt>
<trkpt lat="-27.2744392" lon="151.2900641">
  <ele>342.98</ele>
  <time>2026-09-01T19:51:29Z</time>
  <course>10.71</course>
  <speed>0.022360679774997897</speed>
  <fix>3d</fix>
</trkpt>
<trkpt lat="-27.274439" lon="151.290064">
  <ele>343.1</ele>
  <time>2026-09-01T19:51:29Z</time>
  <course>270.0</course>
  <speed>0.0</speed>
  <fix>3d</fix>
</trkpt>
<trkpt lat="-27.2744392" lon="151.2900641">
  <ele>342.98</ele>
  <time>2026-09-01T19:51:29Z</time>
  <course>10.71</course>
  <speed>0.022360679774997897</speed>
  <fix>3d</fix>
</trkpt>
<trkpt lat="-27.274439" lon="151.290064">
  <ele>343.1</ele>
  <time>2026-09-01T19:51:29Z</time>
  <course>270.0</course>
  <speed>0.0</speed>
  <fix>3d</fix>
</trkpt>
<trkpt lat="-27.2744392" lon="151.2900641">
  <ele>342.98</ele>
  <time>2026-09-01T19:51:29Z</time>
  <course>10.71</course>
  <speed>0.022360679774997897</speed>
  <fix>3d</fix>
</trkpt>
<trkpt lat="-27.274439" lon="151.290064">
  <ele>343.1</ele>
  <time>2026-09-01T19:51:29Z</time>
  <course>270.0</course>
  <speed>0.0</speed>
  <fix>3d</fix>
</trkpt>
<trkpt lat="-27.2744392" lon="151.2900641">
  <ele>342.98</ele>
  <time>2026-09-01T19:51:29Z</time>
  <course>10.71</course>
  <speed>0.022360679774997897</speed>
  <fix>3d</fix>
</trkpt>
<trkpt lat="-27.274439" lon="151.290064">
  <ele>343.1</ele>
  <time>2026-09-01T19:51:29Z</time>
  <course>270.0</course>
  <speed>0.0</speed>
  <fix>3d</fix>
</trkpt>
<trkpt lat="-27.2744392" lon="151.2900641">
  <ele>342.98</ele>
  <time>2026-09-01T19:51:29Z</time>
  <course>10.71</course>
  <speed>0.022360679774997897</speed>
  <fix>3d</fix>
</trkpt>
<trkpt lat="-27.274439" lon="151.290064">
  <ele>343.1</ele>
  <time>2026-09-01T19:51:29Z</time>
  <course>270.0</course>
  <speed>0.0</speed>
  <fix>3d</fix>
</trkpt>
<trkpt lat="-27.2744392" lon="151.2900641">
  <ele>342.97</ele>
  <time>2026-09-01T19:51:29Z</time>
  <course>10.71</course>
  <speed>0.022360679774997897</speed>
  <fix>3d</fix>
</trkpt>
<trkpt lat="-27.274439" lon="151.290064">
  <ele>343.1</ele>
  <time>2026-09-01T19:51:29Z</time>
  <course>270.0</course>
  <speed>0.0</speed>
  <fix>3d</fix>
</trkpt>
<trkpt lat="-27.2744392" lon="151.2900641">
  <ele>342.97</ele>
  <time>2026-09-01T19:51:29Z</time>
  <course>10.71</course>
  <speed>0.022360679774997897</speed>
  <fix>3d</fix>
</trkpt>
<trkpt lat="-27.274439" lon="151.290064">
  <ele>343.1</ele>
  <time>2026-09-01T19:51:29Z</time>
  <course>270.0</course>
  <speed>0.0</speed>
  <fix>3d</fix>
</trkpt>
<trkpt lat="-27.2744392" lon="151.2900641">
  <ele>342.97</ele>
  <time>2026-09-01T19:51:29Z</time>
  <course>10.71</course>
  <speed>0.022360679774997897</speed>
  <fix>3d</fix>
</trkpt>
<trkpt lat="-27.274439" lon="151.290064">
  <ele>343.1</ele>
  <time>2026-09-01T19:51:29Z</time>
  <course>270.0</course>
  <speed>0.0</speed>
  <fix>3d</fix>
</trkpt>
<trkpt lat="-27.2744392" lon="151.2900641">
  <ele>342.97</ele>
  <time>2026-09-01T19:51:29Z</time>
  <course>10.71</course>
  <speed>0.022360679774997897</speed>
  <fix>3d</fix>
</trkpt>
<trkpt lat="-27.274439" lon="151.290064">
  <ele>343.1</ele>
  <time>2026-09-01T19:51:29Z</time>
  <course>270.0</course>
  <speed>0.0</speed>
  <fix>3d</fix>
</trkpt>
<trkpt lat="-27.2744392" lon="151.2900641">
  <ele>342.97</ele>
  <time>2026-09-01T19:51:29Z</time>
  <course>10.71</course>
  <speed>0.022360679774997897</speed>
  <fix>3d</fix>
</trkpt>
<trkpt lat="-27.274439" lon="151.290064">
  <ele>343.1</ele>
  <time>2026-09-01T19:51:29Z</time>
  <course>270.0</course>
  <speed>0.0</speed>
  <fix>3d</fix>
</trkpt>
<trkpt lat="-27.2744392" lon="151.2900641">
  <ele>342.96</ele>
  <time>2026-09-01T19:51:29Z</time>
  <course>10.71</course>
  <speed>0.022360679774997897</speed>
  <fix>3d</fix>
</trkpt>
<trkpt lat="-27.274439" lon="151.290064">
  <ele>343.1</ele>
  <time>2026-09-01T19:51:29Z</time>
  <course>270.0</course>
  <speed>0.0</speed>
  <fix>3d</fix>
</trkpt>
<trkpt lat="-27.2744392" lon="151.2900641">
  <ele>342.96</ele>
  <time>2026-09-01T19:51:29Z</time>
  <course>10.71</course>
  <speed>0.022360679774997897</speed>
  <fix>3d</fix>
</trkpt>
<trkpt lat="-27.274439" lon="151.290064">
  <ele>343.1</ele>
  <time>2026-09-01T19:51:29Z</time>
  <course>270.0</course>
  <speed>0.0</speed>
  <fix>3d</fix>
</trkpt>
<trkpt lat="-27.2744392" lon="151.2900641">
  <ele>342.96</ele>
  <time>2026-09-01T19:51:29Z</time>
  <course>10.71</course>
  <speed>0.022360679774997897</speed>
  <fix>3d</fix>
</trkpt>
<trkpt lat="-27.274439" lon="151.290064">
  <ele>343.1</ele>
  <time>2026-09-01T19:51:29Z</time>
  <course>270.0</course>
  <speed>0.0</speed>
  <fix>3d</fix>
</trkpt>
<trkpt lat="-27.2744392" lon="151.2900641">
  <ele>342.96</ele>
  <time>2026-09-01T19:51:29Z</time>
  <course>10.71</course>
  <speed>0.022360679774997897</speed>
  <fix>3d</fix>
</trkpt>
<trkpt lat="-27.274439" lon="151.290064">
  <ele>343.1</ele>
  <time>2026-09-01T19:51:29Z</time>
  <course>270.0</course>
  <speed>0.0</speed>
  <fix>3d</fix>
</trkpt>
<trkpt lat="-27.2744392" lon="151.2900641">
  <ele>342.96</ele>
  <time>2026-09-01T19:51:29Z</time>
  <course>10.71</course>
  <speed>0.022360679774997897</speed>
  <fix>3d</fix>
</trkpt>
<trkpt lat="-27.274439" lon="151.290064">
  <ele>343.1</ele>
  <time>2026-09-01T19:51:29Z</time>
  <course>270.0</course>
  <speed>0.0</speed>
  <fix>3d</fix>
</trkpt>
<trkpt lat="-27.2744392" lon="151.2900641">
  <ele>342.96</ele>
  <time>2026-09-01T19:51:29Z</time>
  <course>10.71</course>
  <speed>0.022360679774997897</speed>
  <fix>3d</fix>
</trkpt>
<trkpt lat="-27.274439" lon="151.290064">
  <ele>343.1</ele>
  <time>2026-09-01T19:51:29Z</time>
  <course>270.0</course>
  <speed>0.0</speed>
  <fix>3d</fix>
</trkpt>
<trkpt lat="-27.2744392" lon="151.2900641">
  <ele>342.96</ele>
  <time>2026-09-01T19:51:30Z</time>
  <course>10.71</course>
  <speed>0.022360679774997897</speed>
  <fix>3d</fix>
</trkpt>
<trkpt lat="-27.274439" lon="151.290064">
  <ele>343.1</ele>
  <time>2026-09-01T19:51:30Z</time>
  <course>270.0</course>
  <speed>0.0</speed>
  <fix>3d</fix>
</trkpt>
<trkpt lat="-27.2744392" lon="151.2900641">
  <ele>342.95</ele>
  <time>2026-09-01T19:51:30Z</time>
  <course>10.71</course>
  <speed>0.022360679774997897</speed>
  <fix>3d</fix>
</trkpt>
<trkpt lat="-27.274439" lon="151.290064">
  <ele>343.1</ele>
  <time>2026-09-01T19:51:30Z</time>
  <course>270.0</course>
  <speed>0.0</speed>
  <fix>3d</fix>
</trkpt>
<trkpt lat="-27.2744392" lon="151.2900641">
  <ele>342.95</ele>
  <time>2026-09-01T19:51:30Z</time>
  <course>10.71</course>
  <speed>0.022360679774997897</speed>
  <fix>3d</fix>
</trkpt>
<trkpt lat="-27.274439" lon="151.290064">
  <ele>343.1</ele>
  <time>2026-09-01T19:51:30Z</time>
  <course>270.0</course>
  <speed>0.0</speed>
  <fix>3d</fix>
</trkpt>
<trkpt lat="-27.2744392" lon="151.2900641">
  <ele>342.95</ele>
  <time>2026-09-01T19:51:30Z</time>
  <course>10.71</course>
  <speed>0.022360679774997897</speed>
  <fix>3d</fix>
</trkpt>
<trkpt lat="-27.274439" lon="151.290064">
  <ele>343.1</ele>
  <time>2026-09-01T19:51:30Z</time>
  <course>270.0</course>
  <speed>0.0</speed>
  <fix>3d</fix>
</trkpt>
<trkpt lat="-27.2744392" lon="151.2900641">
  <ele>342.95</ele>
  <time>2026-09-01T19:51:30Z</time>
  <course>10.71</course>
  <speed>0.022360679774997897</speed>
  <fix>3d</fix>
</trkpt>
<trkpt lat="-27.274439" lon="151.290064">
  <ele>343.1</ele>
  <time>2026-09-01T19:51:30Z</time>
  <course>270.0</course>
  <speed>0.0</speed>
  <fix>3d</fix>
</trkpt>
<trkpt lat="-27.2744392" lon="151.2900641">
  <ele>342.95</ele>
  <time>2026-09-01T19:51:30Z</time>
  <course>10.71</course>
  <speed>0.022360679774997897</speed>
  <fix>3d</fix>
</trkpt>
<trkpt lat="-27.274439" lon="151.290064">
  <ele>343.1</ele>
  <time>2026-09-01T19:51:30Z</time>
  <course>270.0</course>
  <speed>0.0</speed>
  <fix>3d</fix>
</trkpt>
<trkpt lat="-27.2744392" lon="151.2900641">
  <ele>342.95</ele>
  <time>2026-09-01T19:51:30Z</time>
  <course>10.71</course>
  <speed>0.022360679774997897</speed>
  <fix>3d</fix>
</trkpt>
<trkpt lat="-27.274439" lon="151.290064">
  <ele>343.1</ele>
  <time>2026-09-01T19:51:30Z</time>
  <course>270.0</course>
  <speed>0.0</speed>
  <fix>3d</fix>
</trkpt>
<trkpt lat="-27.2744392" lon="151.2900641">
  <ele>343.09</ele>
  <time>2026-09-01T19:51:30Z</time>
  <course>10.71</course>
  <speed>0.022360679774997897</speed>
  <fix>3d</fix>
</trkpt>
<trkpt lat="-27.274439" lon="151.290064">
  <ele>343.1</ele>
  <time>2026-09-01T19:51:30Z</time>
  <course>270.0</course>
  <speed>0.0</speed>
  <fix>3d</fix>
</trkpt>
<trkpt lat="-27.2744392" lon="151.2900641">
  <ele>343.09</ele>
  <time>2026-09-01T19:51:30Z</time>
  <course>10.71</course>
  <speed>0.022360679774997897</speed>
  <fix>3d</fix>
</trkpt>
<trkpt lat="-27.274439" lon="151.290064">
  <ele>343.1</ele>
  <time>2026-09-01T19:51:30Z</time>
  <course>270.0</course>
  <speed>0.0</speed>
  <fix>3d</fix>
</trkpt>
<trkpt lat="-27.2744392" lon="151.2900641">
  <ele>343.09</ele>
  <time>2026-09-01T19:51:30Z</time>
  <course>10.72</course>
  <speed>0.022360679774997897</speed>
  <fix>3d</fix>
</trkpt>
<trkpt lat="-27.274439" lon="151.290064">
  <ele>343.1</ele>
  <time>2026-09-01T19:51:30Z</time>
  <course>270.0</course>
  <speed>0.0</speed>
  <fix>3d</fix>
</trkpt>
<trkpt lat="-27.2744392" lon="151.2900641">
  <ele>343.09</ele>
  <time>2026-09-01T19:51:30Z</time>
  <course>10.72</course>
  <speed>0.022360679774997897</speed>
  <fix>3d</fix>
</trkpt>
<trkpt lat="-27.274439" lon="151.290064">
  <ele>343.1</ele>
  <time>2026-09-01T19:51:30Z</time>
  <course>270.0</course>
  <speed>0.0</speed>
  <fix>3d</fix>
</trkpt>
<trkpt lat="-27.2744392" lon="151.2900641">
  <ele>343.08</ele>
  <time>2026-09-01T19:51:30Z</time>
  <course>10.72</course>
  <speed>0.022360679774997897</speed>
  <fix>3d</fix>
</trkpt>
<trkpt lat="-27.274439" lon="151.290064">
  <ele>343.1</ele>
  <time>2026-09-01T19:51:30Z</time>
  <course>270.0</course>
  <speed>0.0</speed>
  <fix>3d</fix>
</trkpt>
<trkpt lat="-27.2744392" lon="151.2900641">
  <ele>343.08</ele>
  <time>2026-09-01T19:51:30Z</time>
  <course>10.72</course>
  <speed>0.022360679774997897</speed>
  <fix>3d</fix>
</trkpt>
<trkpt lat="-27.274439" lon="151.290064">
  <ele>343.1</ele>
  <time>2026-09-01T19:51:30Z</time>
  <course>270.0</course>
  <speed>0.0</speed>
  <fix>3d</fix>
</trkpt>
<trkpt lat="-27.2744392" lon="151.2900641">
  <ele>343.08</ele>
  <time>2026-09-01T19:51:30Z</time>
  <course>10.72</course>
  <speed>0.022360679774997897</speed>
  <fix>3d</fix>
</trkpt>
<trkpt lat="-27.274439" lon="151.290064">
  <ele>343.1</ele>
  <time>2026-09-01T19:51:30Z</time>
  <course>270.0</course>
  <speed>0.0</speed>
  <fix>3d</fix>
</trkpt>
<trkpt lat="-27.2744392" lon="151.2900641">
  <ele>343.07</ele>
  <time>2026-09-01T19:51:30Z</time>
  <course>10.72</course>
  <speed>0.022360679774997897</speed>
  <fix>3d</fix>
</trkpt>
<trkpt lat="-27.274439" lon="151.290064">
  <ele>343.1</ele>
  <time>2026-09-01T19:51:30Z</time>
  <course>270.0</course>
  <speed>0.0</speed>
  <fix>3d</fix>
</trkpt>
<trkpt lat="-27.2744392" lon="151.2900641">
  <ele>343.07</ele>
  <time>2026-09-01T19:51:30Z</time>
  <course>10.72</course>
  <speed>0.022360679774997897</speed>
  <fix>3d</fix>
</trkpt>
<trkpt lat="-27.274439" lon="151.290064">
  <ele>343.1</ele>
  <time>2026-09-01T19:51:30Z</time>
  <course>270.0</course>
  <speed>0.0</speed>
  <fix>3d</fix>
</trkpt>
<trkpt lat="-27.2744392" lon="151.2900641">
  <ele>343.07</ele>
  <time>2026-09-01T19:51:30Z</time>
  <course>10.72</course>
  <speed>0.022360679774997897</speed>
  <fix>3d</fix>
</trkpt>
<trkpt lat="-27.274439" lon="151.290064">
  <ele>343.1</ele>
  <time>2026-09-01T19:51:30Z</time>
  <course>270.0</course>
  <speed>0.0</speed>
  <fix>3d</fix>
</trkpt>
<trkpt lat="-27.2744392" lon="151.2900641">
  <ele>343.06</ele>
  <time>2026-09-01T19:51:30Z</time>
  <course>10.72</course>
  <speed>0.022360679774997897</speed>
  <fix>3d</fix>
</trkpt>
<trkpt lat="-27.274439" lon="151.290064">
  <ele>343.1</ele>
  <time>2026-09-01T19:51:30Z</time>
  <course>270.0</course>
  <speed>0.0</speed>
  <fix>3d</fix>
</trkpt>
<trkpt lat="-27.2744392" lon="151.2900641">
  <ele>343.06</ele>
  <time>2026-09-01T19:51:30Z</time>
  <course>10.72</course>
  <speed>0.022360679774997897</speed>
  <fix>3d</fix>
</trkpt>
<trkpt lat="-27.274439" lon="151.290064">
  <ele>343.1</ele>
  <time>2026-09-01T19:51:30Z</time>
  <course>270.0</course>
  <speed>0.0</speed>
  <fix>3d</fix>
</trkpt>
<trkpt lat="-27.2744392" lon="151.2900641">
  <ele>343.06</ele>
  <time>2026-09-01T19:51:30Z</time>
  <course>10.72</course>
  <speed>0.022360679774997897</speed>
  <fix>3d</fix>
</trkpt>
<trkpt lat="-27.274439" lon="151.290064">
  <ele>343.1</ele>
  <time>2026-09-01T19:51:30Z</time>
  <course>270.0</course>
  <speed>0.0</speed>
  <fix>3d</fix>
</trkpt>
<trkpt lat="-27.2744392" lon="151.2900641">
  <ele>343.06</ele>
  <time>2026-09-01T19:51:30Z</time>
  <course>10.72</course>
  <speed>0.022360679774997897</speed>
  <fix>3d</fix>
</trkpt>
<trkpt lat="-27.274439" lon="151.290064">
  <ele>343.1</ele>
  <time>2026-09-01T19:51:30Z</time>
  <course>270.0</course>
  <speed>0.0</speed>
  <fix>3d</fix>
</trkpt>
<trkpt lat="-27.2744392" lon="151.2900641">
  <ele>343.06</ele>
  <time>2026-09-01T19:51:30Z</time>
  <course>10.72</course>
  <speed>0.022360679774997897</speed>
  <fix>3d</fix>
</trkpt>
<trkpt lat="-27.274439" lon="151.290064">
  <ele>343.1</ele>
  <time>2026-09-01T19:51:30Z</time>
  <course>270.0</course>
  <speed>0.0</speed>
  <fix>3d</fix>
</trkpt>
<trkpt lat="-27.2744392" lon="151.2900641">
  <ele>343.06</ele>
  <time>2026-09-01T19:51:30Z</time>
  <course>10.72</course>
  <speed>0.022360679774997897</speed>
  <fix>3d</fix>
</trkpt>
<trkpt lat="-27.274439" lon="151.290064">
  <ele>343.1</ele>
  <time>2026-09-01T19:51:30Z</time>
  <course>270.0</course>
  <speed>0.0</speed>
  <fix>3d</fix>
</trkpt>
<trkpt lat="-27.2744392" lon="151.2900641">
  <ele>343.05</ele>
  <time>2026-09-01T19:51:30Z</time>
  <course>10.72</course>
  <speed>0.022360679774997897</speed>
  <fix>3d</fix>
</trkpt>
<trkpt lat="-27.274439" lon="151.290064">
  <ele>343.1</ele>
  <time>2026-09-01T19:51:30Z</time>
  <course>270.0</course>
  <speed>0.0</speed>
  <fix>3d</fix>
</trkpt>
<trkpt lat="-27.2744392" lon="151.2900641">
  <ele>343.05</ele>
  <time>2026-09-01T19:51:30Z</time>
  <course>10.72</course>
  <speed>0.022360679774997897</speed>
  <fix>3d</fix>
</trkpt>
<trkpt lat="-27.274439" lon="151.290064">
  <ele>343.1</ele>
  <time>2026-09-01T19:51:30Z</time>
  <course>270.0</course>
  <speed>0.0</speed>
  <fix>3d</fix>
</trkpt>
<trkpt lat="-27.2744392" lon="151.2900641">
  <ele>343.04</ele>
  <time>2026-09-01T19:51:30Z</time>
  <course>10.72</course>
  <speed>0.022360679774997897</speed>
  <fix>3d</fix>
</trkpt>
<trkpt lat="-27.274439" lon="151.290064">
  <ele>343.1</ele>
  <time>2026-09-01T19:51:30Z</time>
  <course>270.0</course>
  <speed>0.0</speed>
  <fix>3d</fix>
</trkpt>
<trkpt lat="-27.2744392" lon="151.2900641">
  <ele>343.04</ele>
  <time>2026-09-01T19:51:30Z</time>
  <course>10.72</course>
  <speed>0.022360679774997897</speed>
  <fix>3d</fix>
</trkpt>
<trkpt lat="-27.274439" lon="151.290064">
  <ele>343.1</ele>
  <time>2026-09-01T19:51:30Z</time>
  <course>270.0</course>
  <speed>0.0</speed>
  <fix>3d</fix>
</trkpt>
<trkpt lat="-27.2744392" lon="151.2900641">
  <ele>343.03</ele>
  <time>2026-09-01T19:51:30Z</time>
  <course>10.72</course>
  <speed>0.022360679774997897</speed>
  <fix>3d</fix>
</trkpt>
<trkpt lat="-27.274439" lon="151.290064">
  <ele>343.1</ele>
  <time>2026-09-01T19:51:30Z</time>
  <course>270.0</course>
  <speed>0.0</speed>
  <fix>3d</fix>
</trkpt>
<trkpt lat="-27.2744392" lon="151.2900641">
  <ele>343.03</ele>
  <time>2026-09-01T19:51:30Z</time>
  <course>10.72</course>
  <speed>0.022360679774997897</speed>
  <fix>3d</fix>
</trkpt>
<trkpt lat="-27.274439" lon="151.290064">
  <ele>343.1</ele>
  <time>2026-09-01T19:51:30Z</time>
  <course>270.0</course>
  <speed>0.0</speed>
  <fix>3d</fix>
</trkpt>
<trkpt lat="-27.2744392" lon="151.2900641">
  <ele>343.02</ele>
  <time>2026-09-01T19:51:30Z</time>
  <course>10.72</course>
  <speed>0.022360679774997897</speed>
  <fix>3d</fix>
</trkpt>
<trkpt lat="-27.274439" lon="151.290064">
  <ele>343.1</ele>
  <time>2026-09-01T19:51:30Z</time>
  <course>270.0</course>
  <speed>0.0</speed>
  <fix>3d</fix>
</trkpt>
<trkpt lat="-27.2744392" lon="151.2900641">
  <ele>343.02</ele>
  <time>2026-09-01T19:51:30Z</time>
  <course>10.72</course>
  <speed>0.022360679774997897</speed>
  <fix>3d</fix>
</trkpt>
<trkpt lat="-27.274439" lon="151.290064">
  <ele>343.1</ele>
  <time>2026-09-01T19:51:30Z</time>
  <course>270.0</course>
  <speed>0.0</speed>
  <fix>3d</fix>
</trkpt>
<trkpt lat="-27.2744392" lon="151.2900641">
  <ele>343.02</ele>
  <time>2026-09-01T19:51:30Z</time>
  <course>10.72</course>
  <speed>0.022360679774997897</speed>
  <fix>3d</fix>
</trkpt>
<trkpt lat="-27.274439" lon="151.290064">
  <ele>343.1</ele>
  <time>2026-09-01T19:51:30Z</time>
  <course>270.0</course>
  <speed>0.0</speed>
  <fix>3d</fix>
</trkpt>
<trkpt lat="-27.2744392" lon="151.2900641">
  <ele>343.01</ele>
  <time>2026-09-01T19:51:30Z</time>
  <course>10.72</course>
  <speed>0.022360679774997897</speed>
  <fix>3d</fix>
</trkpt>
<trkpt lat="-27.274439" lon="151.290064">
  <ele>343.1</ele>
  <time>2026-09-01T19:51:30Z</time>
  <course>270.0</course>
  <speed>0.0</speed>
  <fix>3d</fix>
</trkpt>
<trkpt lat="-27.2744392" lon="151.2900641">
  <ele>343.01</ele>
  <time>2026-09-01T19:51:30Z</time>
  <course>10.72</course>
  <speed>0.022360679774997897</speed>
  <fix>3d</fix>
</trkpt>
<trkpt lat="-27.274439" lon="151.290064">
  <ele>343.1</ele>
  <time>2026-09-01T19:51:30Z</time>
  <course>270.0</course>
  <speed>0.0</speed>
  <fix>3d</fix>
</trkpt>
<trkpt lat="-27.2744392" lon="151.2900641">
  <ele>343.01</ele>
  <time>2026-09-01T19:51:30Z</time>
  <course>10.73</course>
  <speed>0.022360679774997897</speed>
  <fix>3d</fix>
</trkpt>
<trkpt lat="-27.274439" lon="151.290064">
  <ele>343.1</ele>
  <time>2026-09-01T19:51:30Z</time>
  <course>270.0</course>
  <speed>0.0</speed>
  <fix>3d</fix>
</trkpt>
<trkpt lat="-27.2744392" lon="151.2900641">
  <ele>343.0</ele>
  <time>2026-09-01T19:51:30Z</time>
  <course>10.73</course>
  <speed>0.022360679774997897</speed>
  <fix>3d</fix>
</trkpt>
<trkpt lat="-27.274439" lon="151.290064">
  <ele>343.1</ele>
  <time>2026-09-01T19:51:30Z</time>
  <course>270.0</course>
  <speed>0.0</speed>
  <fix>3d</fix>
</trkpt>
<trkpt lat="-27.2744392" lon="151.2900641">
  <ele>343.0</ele>
  <time>2026-09-01T19:51:30Z</time>
  <course>10.73</course>
  <speed>0.022360679774997897</speed>
  <fix>3d</fix>
</trkpt>
<trkpt lat="-27.274439" lon="151.290064">
  <ele>343.1</ele>
  <time>2026-09-01T19:51:30Z</time>
  <course>270.0</course>
  <speed>0.0</speed>
  <fix>3d</fix>
</trkpt>
<trkpt lat="-27.2744392" lon="151.2900641">
  <ele>342.99</ele>
  <time>2026-09-01T19:51:30Z</time>
  <course>10.73</course>
  <speed>0.022360679774997897</speed>
  <fix>3d</fix>
</trkpt>
<trkpt lat="-27.274439" lon="151.290064">
  <ele>343.1</ele>
  <time>2026-09-01T19:51:30Z</time>
  <course>270.0</course>
  <speed>0.0</speed>
  <fix>3d</fix>
</trkpt>
<trkpt lat="-27.2744392" lon="151.2900641">
  <ele>342.99</ele>
  <time>2026-09-01T19:51:30Z</time>
  <course>10.73</course>
  <speed>0.022360679774997897</speed>
  <fix>3d</fix>
</trkpt>
<trkpt lat="-27.274439" lon="151.290064">
  <ele>343.1</ele>
  <time>2026-09-01T19:51:30Z</time>
  <course>270.0</course>
  <speed>0.0</speed>
  <fix>3d</fix>
</trkpt>
<trkpt lat="-27.2744392" lon="151.2900641">
  <ele>342.99</ele>
  <time>2026-09-01T19:51:30Z</time>
  <course>10.73</course>
  <speed>0.022360679774997897</speed>
  <fix>3d</fix>
</trkpt>
<trkpt lat="-27.274439" lon="151.290064">
  <ele>343.1</ele>
  <time>2026-09-01T19:51:30Z</time>
  <course>270.0</course>
  <speed>0.0</speed>
  <fix>3d</fix>
</trkpt>
<trkpt lat="-27.2744392" lon="151.2900641">
  <ele>342.99</ele>
  <time>2026-09-01T19:51:30Z</time>
  <course>10.73</course>
  <speed>0.022360679774997897</speed>
  <fix>3d</fix>
</trkpt>
<trkpt lat="-27.274439" lon="151.290064">
  <ele>343.1</ele>
  <time>2026-09-01T19:51:30Z</time>
  <course>270.0</course>
  <speed>0.0</speed>
  <fix>3d</fix>
</trkpt>
<trkpt lat="-27.2744392" lon="151.2900641">
  <ele>342.98</ele>
  <time>2026-09-01T19:51:30Z</time>
  <course>10.73</course>
  <speed>0.022360679774997897</speed>
  <fix>3d</fix>
</trkpt>
<trkpt lat="-27.274439" lon="151.290064">
  <ele>343.1</ele>
  <time>2026-09-01T19:51:30Z</time>
  <course>270.0</course>
  <speed>0.0</speed>
  <fix>3d</fix>
</trkpt>
<trkpt lat="-27.2744392" lon="151.2900641">
  <ele>342.98</ele>
  <time>2026-09-01T19:51:30Z</time>
  <course>10.73</course>
  <speed>0.022360679774997897</speed>
  <fix>3d</fix>
</trkpt>
<trkpt lat="-27.274439" lon="151.290064">
  <ele>343.1</ele>
  <time>2026-09-01T19:51:30Z</time>
  <course>270.0</course>
  <speed>0.0</speed>
  <fix>3d</fix>
</trkpt>
<trkpt lat="-27.2744392" lon="151.2900641">
  <ele>342.98</ele>
  <time>2026-09-01T19:51:30Z</time>
  <course>10.73</course>
  <speed>0.022360679774997897</speed>
  <fix>3d</fix>
</trkpt>
<trkpt lat="-27.274439" lon="151.290064">
  <ele>343.1</ele>
  <time>2026-09-01T19:51:30Z</time>
  <course>270.0</course>
  <speed>0.0</speed>
  <fix>3d</fix>
</trkpt>
<trkpt lat="-27.2744392" lon="151.2900641">
  <ele>342.97</ele>
  <time>2026-09-01T19:51:30Z</time>
  <course>10.73</course>
  <speed>0.022360679774997897</speed>
  <fix>3d</fix>
</trkpt>
<trkpt lat="-27.274439" lon="151.290064">
  <ele>343.1</ele>
  <time>2026-09-01T19:51:30Z</time>
  <course>270.0</course>
  <speed>0.0</speed>
  <fix>3d</fix>
</trkpt>
<trkpt lat="-27.2744392" lon="151.2900641">
  <ele>342.97</ele>
  <time>2026-09-01T19:51:30Z</time>
  <course>10.73</course>
  <speed>0.022360679774997897</speed>
  <fix>3d</fix>
</trkpt>
<trkpt lat="-27.274439" lon="151.290064">
  <ele>343.1</ele>
  <time>2026-09-01T19:51:30Z</time>
  <course>270.0</course>
  <speed>0.0</speed>
  <fix>3d</fix>
</trkpt>
<trkpt lat="-27.2744392" lon="151.2900641">
  <ele>342.97</ele>
  <time>2026-09-01T19:51:30Z</time>
  <course>10.73</course>
  <speed>0.022360679774997897</speed>
  <fix>3d</fix>
</trkpt>
<trkpt lat="-27.274439" lon="151.290064">
  <ele>343.1</ele>
  <time>2026-09-01T19:51:30Z</time>
  <course>270.0</course>
  <speed>0.0</speed>
  <fix>3d</fix>
</trkpt>
<trkpt lat="-27.2744392" lon="151.2900641">
  <ele>342.97</ele>
  <time>2026-09-01T19:51:30Z</time>
  <course>10.73</course>
  <speed>0.022360679774997897</speed>
  <fix>3d</fix>
</trkpt>
<trkpt lat="-27.274439" lon="151.290064">
  <ele>343.1</ele>
  <time>2026-09-01T19:51:30Z</time>
  <course>270.0</course>
  <speed>0.0</speed>
  <fix>3d</fix>
</trkpt>
<trkpt lat="-27.2744392" lon="151.2900641">
  <ele>342.96</ele>
  <time>2026-09-01T19:51:30Z</time>
  <course>10.73</course>
  <speed>0.022360679774997897</speed>
  <fix>3d</fix>
</trkpt>
<trkpt lat="-27.274439" lon="151.290064">
  <ele>343.1</ele>
  <time>2026-09-01T19:51:30Z</time>
  <course>270.0</course>
  <speed>0.0</speed>
  <fix>3d</fix>
</trkpt>
<trkpt lat="-27.2744392" lon="151.2900641">
  <ele>342.96</ele>
  <time>2026-09-01T19:51:30Z</time>
  <course>10.73</course>
  <speed>0.022360679774997897</speed>
  <fix>3d</fix>
</trkpt>
<trkpt lat="-27.274439" lon="151.290064">
  <ele>343.1</ele>
  <time>2026-09-01T19:51:30Z</time>
  <course>270.0</course>
  <speed>0.0</speed>
  <fix>3d</fix>
</trkpt>
<trkpt lat="-27.2744392" lon="151.2900641">
  <ele>342.96</ele>
  <time>2026-09-01T19:51:30Z</time>
  <course>10.73</course>
  <speed>0.022360679774997897</speed>
  <fix>3d</fix>
</trkpt>
<trkpt lat="-27.274439" lon="151.290064">
  <ele>343.1</ele>
  <time>2026-09-01T19:51:30Z</time>
  <course>270.0</course>
  <speed>0.0</speed>
  <fix>3d</fix>
</trkpt>
<trkpt lat="-27.2744392" lon="151.2900641">
  <ele>342.96</ele>
  <time>2026-09-01T19:51:30Z</time>
  <course>10.73</course>
  <speed>0.022360679774997897</speed>
  <fix>3d</fix>
</trkpt>
<trkpt lat="-27.274439" lon="151.290064">
  <ele>343.1</ele>
  <time>2026-09-01T19:51:30Z</time>
  <course>270.0</course>
  <speed>0.0</speed>
  <fix>3d</fix>
</trkpt>
<trkpt lat="-27.2744392" lon="151.2900641">
  <ele>342.96</ele>
  <time>2026-09-01T19:51:30Z</time>
  <course>10.73</course>
  <speed>0.022360679774997897</speed>
  <fix>3d</fix>
</trkpt>
<trkpt lat="-27.274439" lon="151.290064">
  <ele>343.1</ele>
  <time>2026-09-01T19:51:30Z</time>
  <course>270.0</course>
  <speed>0.0</speed>
  <fix>3d</fix>
</trkpt>
<trkpt lat="-27.2744392" lon="151.2900641">
  <ele>342.96</ele>
  <time>2026-09-01T19:51:30Z</time>
  <course>10.73</course>
  <speed>0.022360679774997897</speed>
  <fix>3d</fix>
</trkpt>
<trkpt lat="-27.274439" lon="151.290064">
  <ele>343.1</ele>
  <time>2026-09-01T19:51:30Z</time>
  <course>270.0</course>
  <speed>0.0</speed>
  <fix>3d</fix>
</trkpt>
<trkpt lat="-27.2744392" lon="151.2900641">
  <ele>342.95</ele>
  <time>2026-09-01T19:51:30Z</time>
  <course>10.74</course>
  <speed>0.022360679774997897</speed>
  <fix>3d</fix>
</trkpt>
<trkpt lat="-27.274439" lon="151.290064">
  <ele>343.1</ele>
  <time>2026-09-01T19:51:30Z</time>
  <course>270.0</course>
  <speed>0.0</speed>
  <fix>3d</fix>
</trkpt>
<trkpt lat="-27.2744392" lon="151.2900641">
  <ele>342.95</ele>
  <time>2026-09-01T19:51:30Z</time>
  <course>10.74</course>
  <speed>0.022360679774997897</speed>
  <fix>3d</fix>
</trkpt>
<trkpt lat="-27.274439" lon="151.290064">
  <ele>343.1</ele>
  <time>2026-09-01T19:51:30Z</time>
  <course>270.0</course>
  <speed>0.0</speed>
  <fix>3d</fix>
</trkpt>
<trkpt lat="-27.2744392" lon="151.2900641">
  <ele>342.95</ele>
  <time>2026-09-01T19:51:30Z</time>
  <course>10.74</course>
  <speed>0.022360679774997897</speed>
  <fix>3d</fix>
</trkpt>
<trkpt lat="-27.274439" lon="151.290064">
  <ele>343.1</ele>
  <time>2026-09-01T19:51:30Z</time>
  <course>270.0</course>
  <speed>0.0</speed>
  <fix>3d</fix>
</trkpt>
<trkpt lat="-27.2744392" lon="151.2900641">
  <ele>342.95</ele>
  <time>2026-09-01T19:51:30Z</time>
  <course>10.74</course>
  <speed>0.022360679774997897</speed>
  <fix>3d</fix>
</trkpt>
<trkpt lat="-27.274439" lon="151.290064">
  <ele>343.1</ele>
  <time>2026-09-01T19:51:30Z</time>
  <course>270.0</course>
  <speed>0.0</speed>
  <fix>3d</fix>
</trkpt>
<trkpt lat="-27.2744392" lon="151.2900641">
  <ele>342.95</ele>
  <time>2026-09-01T19:51:30Z</time>
  <course>10.74</course>
  <speed>0.022360679774997897</speed>
  <fix>3d</fix>
</trkpt>
<trkpt lat="-27.274439" lon="151.290064">
  <ele>343.1</ele>
  <time>2026-09-01T19:51:30Z</time>
  <course>270.0</course>
  <speed>0.0</speed>
  <fix>3d</fix>
</trkpt>
<trkpt lat="-27.2744392" lon="151.2900641">
  <ele>342.94</ele>
  <time>2026-09-01T19:51:30Z</time>
  <course>10.74</course>
  <speed>0.022360679774997897</speed>
  <fix>3d</fix>
</trkpt>
<trkpt lat="-27.274439" lon="151.290064">
  <ele>343.1</ele>
  <time>2026-09-01T19:51:30Z</time>
  <course>270.0</course>
  <speed>0.0</speed>
  <fix>3d</fix>
</trkpt>
<trkpt lat="-27.2744392" lon="151.2900641">
  <ele>342.94</ele>
  <time>2026-09-01T19:51:30Z</time>
  <course>10.74</course>
  <speed>0.022360679774997897</speed>
  <fix>3d</fix>
</trkpt>
<trkpt lat="-27.274439" lon="151.290064">
  <ele>343.1</ele>
  <time>2026-09-01T19:51:30Z</time>
  <course>270.0</course>
  <speed>0.0</speed>
  <fix>3d</fix>
</trkpt>
<trkpt lat="-27.2744392" lon="151.2900641">
  <ele>342.93</ele>
  <time>2026-09-01T19:51:30Z</time>
  <course>10.74</course>
  <speed>0.022360679774997897</speed>
  <fix>3d</fix>
</trkpt>
<trkpt lat="-27.274439" lon="151.290064">
  <ele>343.1</ele>
  <time>2026-09-01T19:51:30Z</time>
  <course>270.0</course>
  <speed>0.0</speed>
  <fix>3d</fix>
</trkpt>
<trkpt lat="-27.2744392" lon="151.2900641">
  <ele>342.93</ele>
  <time>2026-09-01T19:51:30Z</time>
  <course>10.74</course>
  <speed>0.022360679774997897</speed>
  <fix>3d</fix>
</trkpt>
<trkpt lat="-27.274439" lon="151.290064">
  <ele>343.1</ele>
  <time>2026-09-01T19:51:30Z</time>
  <course>270.0</course>
  <speed>0.0</speed>
  <fix>3d</fix>
</trkpt>
<trkpt lat="-27.2744392" lon="151.2900641">
  <ele>342.93</ele>
  <time>2026-09-01T19:51:30Z</time>
  <course>10.74</course>
  <speed>0.022360679774997897</speed>
  <fix>3d</fix>
</trkpt>
<trkpt lat="-27.274439" lon="151.290064">
  <ele>343.1</ele>
  <time>2026-09-01T19:51:30Z</time>
  <course>270.0</course>
  <speed>0.0</speed>
  <fix>3d</fix>
</trkpt>
<trkpt lat="-27.2744392" lon="151.2900641">
  <ele>342.92</ele>
  <time>2026-09-01T19:51:30Z</time>
  <course>10.74</course>
  <speed>0.022360679774997897</speed>
  <fix>3d</fix>
</trkpt>
<trkpt lat="-27.274439" lon="151.290064">
  <ele>343.1</ele>
  <time>2026-09-01T19:51:30Z</time>
  <course>270.0</course>
  <speed>0.0</speed>
  <fix>3d</fix>
</trkpt>
<trkpt lat="-27.2744392" lon="151.2900641">
  <ele>342.92</ele>
  <time>2026-09-01T19:51:30Z</time>
  <course>10.74</course>
  <speed>0.022360679774997897</speed>
  <fix>3d</fix>
</trkpt>
<trkpt lat="-27.274439" lon="151.290064">
  <ele>343.1</ele>
  <time>2026-09-01T19:51:30Z</time>
  <course>270.0</course>
  <speed>0.0</speed>
  <fix>3d</fix>
</trkpt>
<trkpt lat="-27.2744392" lon="151.2900641">
  <ele>342.92</ele>
  <time>2026-09-01T19:51:30Z</time>
  <course>10.74</course>
  <speed>0.022360679774997897</speed>
  <fix>3d</fix>
</trkpt>
<trkpt lat="-27.274439" lon="151.290064">
  <ele>343.1</ele>
  <time>2026-09-01T19:51:30Z</time>
  <course>270.0</course>
  <speed>0.0</speed>
  <fix>3d</fix>
</trkpt>
<trkpt lat="-27.2744392" lon="151.2900641">
  <ele>343.09</ele>
  <time>2026-09-01T19:51:30Z</time>
  <course>10.74</course>
  <speed>0.022360679774997897</speed>
  <fix>3d</fix>
</trkpt>
<trkpt lat="-27.274439" lon="151.290064">
  <ele>343.1</ele>
  <time>2026-09-01T19:51:30Z</time>
  <course>270.0</course>
  <speed>0.0</speed>
  <fix>3d</fix>
</trkpt>
<trkpt lat="-27.2744392" lon="151.2900641">
  <ele>343.09</ele>
  <time>2026-09-01T19:51:30Z</time>
  <course>10.74</course>
  <speed>0.022360679774997897</speed>
  <fix>3d</fix>
</trkpt>
<trkpt lat="-27.274439" lon="151.290064">
  <ele>343.1</ele>
  <time>2026-09-01T19:51:30Z</time>
  <course>270.0</course>
  <speed>0.0</speed>
  <fix>3d</fix>
</trkpt>
<trkpt lat="-27.2744392" lon="151.2900641">
  <ele>343.09</ele>
  <time>2026-09-01T19:51:30Z</time>
  <course>10.74</course>
  <speed>0.022360679774997897</speed>
  <fix>3d</fix>
</trkpt>
<trkpt lat="-27.274439" lon="151.290064">
  <ele>343.1</ele>
  <time>2026-09-01T19:51:30Z</time>
  <course>270.0</course>
  <speed>0.0</speed>
  <fix>3d</fix>
</trkpt>
<trkpt lat="-27.2744392" lon="151.2900641">
  <ele>343.09</ele>
  <time>2026-09-01T19:51:30Z</time>
  <course>10.74</course>
  <speed>0.022360679774997897</speed>
  <fix>3d</fix>
</trkpt>
<trkpt lat="-27.274439" lon="151.290064">
  <ele>343.1</ele>
  <time>2026-09-01T19:51:30Z</time>
  <course>270.0</course>
  <speed>0.0</speed>
  <fix>3d</fix>
</trkpt>
<trkpt lat="-27.2744392" lon="151.2900641">
  <ele>343.09</ele>
  <time>2026-09-01T19:51:30Z</time>
  <course>10.74</course>
  <speed>0.022360679774997897</speed>
  <fix>3d</fix>
</trkpt>
<trkpt lat="-27.274439" lon="151.290064">
  <ele>343.1</ele>
  <time>2026-09-01T19:51:30Z</time>
  <course>270.0</course>
  <speed>0.0</speed>
  <fix>3d</fix>
</trkpt>
<trkpt lat="-27.2744392" lon="151.2900641">
  <ele>343.09</ele>
  <time>2026-09-01T19:51:30Z</time>
  <course>10.74</course>
  <speed>0.022360679774997897</speed>
  <fix>3d</fix>
</trkpt>
<trkpt lat="-27.274439" lon="151.290064">
  <ele>343.1</ele>
  <time>2026-09-01T19:51:30Z</time>
  <course>270.0</course>
  <speed>0.0</speed>
  <fix>3d</fix>
</trkpt>
<trkpt lat="-27.2744392" lon="151.2900641">
  <ele>343.09</ele>
  <time>2026-09-01T19:51:30Z</time>
  <course>10.75</course>
  <speed>0.022360679774997897</speed>
  <fix>3d</fix>
</trkpt>
<trkpt lat="-27.274439" lon="151.290064">
  <ele>343.1</ele>
  <time>2026-09-01T19:51:30Z</time>
  <course>270.0</course>
  <speed>0.0</speed>
  <fix>3d</fix>
</trkpt>
<trkpt lat="-27.2744392" lon="151.2900641">
  <ele>343.08</ele>
  <time>2026-09-01T19:51:30Z</time>
  <course>10.75</course>
  <speed>0.022360679774997897</speed>
  <fix>3d</fix>
</trkpt>
<trkpt lat="-27.274439" lon="151.290064">
  <ele>343.1</ele>
  <time>2026-09-01T19:51:30Z</time>
  <course>270.0</course>
  <speed>0.0</speed>
  <fix>3d</fix>
</trkpt>
<trkpt lat="-27.2744392" lon="151.2900641">
  <ele>343.08</ele>
  <time>2026-09-01T19:51:30Z</time>
  <course>10.75</course>
  <speed>0.022360679774997897</speed>
  <fix>3d</fix>
</trkpt>
<trkpt lat="-27.274439" lon="151.290064">
  <ele>343.1</ele>
  <time>2026-09-01T19:51:30Z</time>
  <course>270.0</course>
  <speed>0.0</speed>
  <fix>3d</fix>
</trkpt>
<trkpt lat="-27.2744392" lon="151.2900641">
  <ele>343.08</ele>
  <time>2026-09-01T19:51:30Z</time>
  <course>10.75</course>
  <speed>0.022360679774997897</speed>
  <fix>3d</fix>
</trkpt>
<trkpt lat="-27.274439" lon="151.290064">
  <ele>343.1</ele>
  <time>2026-09-01T19:51:30Z</time>
  <course>270.0</course>
  <speed>0.0</speed>
  <fix>3d</fix>
</trkpt>
<trkpt lat="-27.2744392" lon="151.2900641">
  <ele>343.08</ele>
  <time>2026-09-01T19:51:30Z</time>
  <course>10.75</course>
  <speed>0.022360679774997897</speed>
  <fix>3d</fix>
</trkpt>
<trkpt lat="-27.274439" lon="151.290064">
  <ele>343.1</ele>
  <time>2026-09-01T19:51:30Z</time>
  <course>270.0</course>
  <speed>0.0</speed>
  <fix>3d</fix>
</trkpt>
<trkpt lat="-27.2744392" lon="151.2900641">
  <ele>343.08</ele>
  <time>2026-09-01T19:51:30Z</time>
  <course>10.75</course>
  <speed>0.022360679774997897</speed>
  <fix>3d</fix>
</trkpt>
<trkpt lat="-27.274439" lon="151.290064">
  <ele>343.1</ele>
  <time>2026-09-01T19:51:30Z</time>
  <course>270.0</course>
  <speed>0.0</speed>
  <fix>3d</fix>
</trkpt>
<trkpt lat="-27.2744392" lon="151.2900641">
  <ele>343.08</ele>
  <time>2026-09-01T19:51:30Z</time>
  <course>10.75</course>
  <speed>0.022360679774997897</speed>
  <fix>3d</fix>
</trkpt>
<trkpt lat="-27.274439" lon="151.290064">
  <ele>343.1</ele>
  <time>2026-09-01T19:51:30Z</time>
  <course>270.0</course>
  <speed>0.0</speed>
  <fix>3d</fix>
</trkpt>
<trkpt lat="-27.2744392" lon="151.2900641">
  <ele>343.07</ele>
  <time>2026-09-01T19:51:30Z</time>
  <course>10.75</course>
  <speed>0.022360679774997897</speed>
  <fix>3d</fix>
</trkpt>
<trkpt lat="-27.274439" lon="151.290064">
  <ele>343.1</ele>
  <time>2026-09-01T19:51:30Z</time>
  <course>270.0</course>
  <speed>0.0</speed>
  <fix>3d</fix>
</trkpt>
<trkpt lat="-27.2744392" lon="151.2900641">
  <ele>343.07</ele>
  <time>2026-09-01T19:51:30Z</time>
  <course>10.75</course>
  <speed>0.022360679774997897</speed>
  <fix>3d</fix>
</trkpt>
<trkpt lat="-27.274439" lon="151.290064">
  <ele>343.1</ele>
  <time>2026-09-01T19:51:30Z</time>
  <course>270.0</course>
  <speed>0.0</speed>
  <fix>3d</fix>
</trkpt>
<trkpt lat="-27.2744392" lon="151.2900641">
  <ele>343.07</ele>
  <time>2026-09-01T19:51:30Z</time>
  <course>10.75</course>
  <speed>0.022360679774997897</speed>
  <fix>3d</fix>
</trkpt>
<trkpt lat="-27.274439" lon="151.290064">
  <ele>343.1</ele>
  <time>2026-09-01T19:51:30Z</time>
  <course>270.0</course>
  <speed>0.0</speed>
  <fix>3d</fix>
</trkpt>
<trkpt lat="-27.2744392" lon="151.2900641">
  <ele>343.07</ele>
  <time>2026-09-01T19:51:30Z</time>
  <course>10.75</course>
  <speed>0.022360679774997897</speed>
  <fix>3d</fix>
</trkpt>
<trkpt lat="-27.274439" lon="151.290064">
  <ele>343.1</ele>
  <time>2026-09-01T19:51:30Z</time>
  <course>270.0</course>
  <speed>0.0</speed>
  <fix>3d</fix>
</trkpt>
<trkpt lat="-27.2744392" lon="151.2900641">
  <ele>343.07</ele>
  <time>2026-09-01T19:51:30Z</time>
  <course>10.75</course>
  <speed>0.022360679774997897</speed>
  <fix>3d</fix>
</trkpt>
<trkpt lat="-27.274439" lon="151.290064">
  <ele>343.1</ele>
  <time>2026-09-01T19:51:30Z</time>
  <course>270.0</course>
  <speed>0.0</speed>
  <fix>3d</fix>
</trkpt>
<trkpt lat="-27.2744392" lon="151.2900641">
  <ele>343.07</ele>
  <time>2026-09-01T19:51:30Z</time>
  <course>10.75</course>
  <speed>0.022360679774997897</speed>
  <fix>3d</fix>
</trkpt>
<trkpt lat="-27.274439" lon="151.290064">
  <ele>343.1</ele>
  <time>2026-09-01T19:51:30Z</time>
  <course>270.0</course>
  <speed>0.0</speed>
  <fix>3d</fix>
</trkpt>
<trkpt lat="-27.2744392" lon="151.2900641">
  <ele>343.06</ele>
  <time>2026-09-01T19:51:30Z</time>
  <course>10.75</course>
  <speed>0.022360679774997897</speed>
  <fix>3d</fix>
</trkpt>
<trkpt lat="-27.274439" lon="151.290064">
  <ele>343.1</ele>
  <time>2026-09-01T19:51:30Z</time>
  <course>270.0</course>
  <speed>0.0</speed>
  <fix>3d</fix>
</trkpt>
<trkpt lat="-27.2744392" lon="151.2900641">
  <ele>343.06</ele>
  <time>2026-09-01T19:51:30Z</time>
  <course>10.75</course>
  <speed>0.022360679774997897</speed>
  <fix>3d</fix>
</trkpt>
<trkpt lat="-27.274439" lon="151.290064">
  <ele>343.1</ele>
  <time>2026-09-01T19:51:30Z</time>
  <course>270.0</course>
  <speed>0.0</speed>
  <fix>3d</fix>
</trkpt>
<trkpt lat="-27.2744392" lon="151.2900641">
  <ele>343.06</ele>
  <time>2026-09-01T19:51:30Z</time>
  <course>10.75</course>
  <speed>0.022360679774997897</speed>
  <fix>3d</fix>
</trkpt>
<trkpt lat="-27.274439" lon="151.290064">
  <ele>343.1</ele>
  <time>2026-09-01T19:51:30Z</time>
  <course>270.0</course>
  <speed>0.0</speed>
  <fix>3d</fix>
</trkpt>
<trkpt lat="-27.2744392" lon="151.2900641">
  <ele>343.06</ele>
  <time>2026-09-01T19:51:30Z</time>
  <course>10.75</course>
  <speed>0.022360679774997897</speed>
  <fix>3d</fix>
</trkpt>
<trkpt lat="-27.274439" lon="151.290064">
  <ele>343.1</ele>
  <time>2026-09-01T19:51:30Z</time>
  <course>270.0</course>
  <speed>0.0</speed>
  <fix>3d</fix>
</trkpt>
<trkpt lat="-27.2744392" lon="151.2900641">
  <ele>343.06</ele>
  <time>2026-09-01T19:51:30Z</time>
  <course>10.75</course>
  <speed>0.022360679774997897</speed>
  <fix>3d</fix>
</trkpt>
<trkpt lat="-27.274439" lon="151.290064">
  <ele>343.1</ele>
  <time>2026-09-01T19:51:30Z</time>
  <course>270.0</course>
  <speed>0.0</speed>
  <fix>3d</fix>
</trkpt>
<trkpt lat="-27.2744392" lon="151.2900641">
  <ele>343.06</ele>
  <time>2026-09-01T19:51:30Z</time>
  <course>10.76</course>
  <speed>0.022360679774997897</speed>
  <fix>3d</fix>
</trkpt>
<trkpt lat="-27.274439" lon="151.290064">
  <ele>343.1</ele>
  <time>2026-09-01T19:51:30Z</time>
  <course>270.0</course>
  <speed>0.0</speed>
  <fix>3d</fix>
</trkpt>
<trkpt lat="-27.2744392" lon="151.2900641">
  <ele>343.06</ele>
  <time>2026-09-01T19:51:30Z</time>
  <course>10.76</course>
  <speed>0.022360679774997897</speed>
  <fix>3d</fix>
</trkpt>
<trkpt lat="-27.274439" lon="151.290064">
  <ele>343.1</ele>
  <time>2026-09-01T19:51:30Z</time>
  <course>270.0</course>
  <speed>0.0</speed>
  <fix>3d</fix>
</trkpt>
<trkpt lat="-27.2744392" lon="151.2900641">
  <ele>343.05</ele>
  <time>2026-09-01T19:51:30Z</time>
  <course>10.76</course>
  <speed>0.022360679774997897</speed>
  <fix>3d</fix>
</trkpt>
<trkpt lat="-27.274439" lon="151.290064">
  <ele>343.1</ele>
  <time>2026-09-01T19:51:30Z</time>
  <course>270.0</course>
  <speed>0.0</speed>
  <fix>3d</fix>
</trkpt>
<trkpt lat="-27.2744392" lon="151.2900641">
  <ele>343.05</ele>
  <time>2026-09-01T19:51:30Z</time>
  <course>10.76</course>
  <speed>0.022360679774997897</speed>
  <fix>3d</fix>
</trkpt>
<trkpt lat="-27.274439" lon="151.290064">
  <ele>343.1</ele>
  <time>2026-09-01T19:51:30Z</time>
  <course>270.0</course>
  <speed>0.0</speed>
  <fix>3d</fix>
</trkpt>
<trkpt lat="-27.2744392" lon="151.2900641">
  <ele>343.05</ele>
  <time>2026-09-01T19:51:30Z</time>
  <course>10.76</course>
  <speed>0.022360679774997897</speed>
  <fix>3d</fix>
</trkpt>
<trkpt lat="-27.274439" lon="151.290064">
  <ele>343.1</ele>
  <time>2026-09-01T19:51:30Z</time>
  <course>270.0</course>
  <speed>0.0</speed>
  <fix>3d</fix>
</trkpt>
<trkpt lat="-27.2744392" lon="151.2900641">
  <ele>343.05</ele>
  <time>2026-09-01T19:51:30Z</time>
  <course>10.76</course>
  <speed>0.022360679774997897</speed>
  <fix>3d</fix>
</trkpt>
<trkpt lat="-27.274439" lon="151.290064">
  <ele>343.1</ele>
  <time>2026-09-01T19:51:30Z</time>
  <course>270.0</course>
  <speed>0.0</speed>
  <fix>3d</fix>
</trkpt>
<trkpt lat="-27.2744392" lon="151.2900641">
  <ele>343.04</ele>
  <time>2026-09-01T19:51:30Z</time>
  <course>10.76</course>
  <speed>0.022360679774997897</speed>
  <fix>3d</fix>
</trkpt>
<trkpt lat="-27.274439" lon="151.290064">
  <ele>343.1</ele>
  <time>2026-09-01T19:51:30Z</time>
  <course>270.0</course>
  <speed>0.0</speed>
  <fix>3d</fix>
</trkpt>
<trkpt lat="-27.2744392" lon="151.2900641">
  <ele>343.04</ele>
  <time>2026-09-01T19:51:30Z</time>
  <course>10.76</course>
  <speed>0.022360679774997897</speed>
  <fix>3d</fix>
</trkpt>
<trkpt lat="-27.274439" lon="151.290064">
  <ele>343.1</ele>
  <time>2026-09-01T19:51:30Z</time>
  <course>270.0</course>
  <speed>0.0</speed>
  <fix>3d</fix>
</trkpt>
<trkpt lat="-27.2744392" lon="151.2900641">
  <ele>343.04</ele>
  <time>2026-09-01T19:51:30Z</time>
  <course>10.76</course>
  <speed>0.022360679774997897</speed>
  <fix>3d</fix>
</trkpt>
<trkpt lat="-27.274439" lon="151.290064">
  <ele>343.1</ele>
  <time>2026-09-01T19:51:30Z</time>
  <course>270.0</course>
  <speed>0.0</speed>
  <fix>3d</fix>
</trkpt>
<trkpt lat="-27.2744392" lon="151.2900641">
  <ele>343.04</ele>
  <time>2026-09-01T19:51:30Z</time>
  <course>10.76</course>
  <speed>0.022360679774997897</speed>
  <fix>3d</fix>
</trkpt>
<trkpt lat="-27.274439" lon="151.290064">
  <ele>343.1</ele>
  <time>2026-09-01T19:51:30Z</time>
  <course>270.0</course>
  <speed>0.0</speed>
  <fix>3d</fix>
</trkpt>
<trkpt lat="-27.2744392" lon="151.2900641">
  <ele>343.04</ele>
  <time>2026-09-01T19:51:30Z</time>
  <course>10.76</course>
  <speed>0.022360679774997897</speed>
  <fix>3d</fix>
</trkpt>
<trkpt lat="-27.274439" lon="151.290064">
  <ele>343.1</ele>
  <time>2026-09-01T19:51:30Z</time>
  <course>270.0</course>
  <speed>0.0</speed>
  <fix>3d</fix>
</trkpt>
<trkpt lat="-27.2744392" lon="151.2900641">
  <ele>343.03</ele>
  <time>2026-09-01T19:51:30Z</time>
  <course>10.76</course>
  <speed>0.022360679774997897</speed>
  <fix>3d</fix>
</trkpt>
<trkpt lat="-27.274439" lon="151.290064">
  <ele>343.1</ele>
  <time>2026-09-01T19:51:30Z</time>
  <course>270.0</course>
  <speed>0.0</speed>
  <fix>3d</fix>
</trkpt>
<trkpt lat="-27.2744392" lon="151.2900641">
  <ele>343.03</ele>
  <time>2026-09-01T19:51:30Z</time>
  <course>10.76</course>
  <speed>0.022360679774997897</speed>
  <fix>3d</fix>
</trkpt>
<trkpt lat="-27.274439" lon="151.290064">
  <ele>343.1</ele>
  <time>2026-09-01T19:51:30Z</time>
  <course>270.0</course>
  <speed>0.0</speed>
  <fix>3d</fix>
</trkpt>
<trkpt lat="-27.2744392" lon="151.2900641">
  <ele>343.03</ele>
  <time>2026-09-01T19:51:30Z</time>
  <course>10.76</course>
  <speed>0.022360679774997897</speed>
  <fix>3d</fix>
</trkpt>
<trkpt lat="-27.274439" lon="151.290064">
  <ele>343.1</ele>
  <time>2026-09-01T19:51:30Z</time>
  <course>270.0</course>
  <speed>0.0</speed>
  <fix>3d</fix>
</trkpt>
<trkpt lat="-27.2744392" lon="151.2900641">
  <ele>343.03</ele>
  <time>2026-09-01T19:51:30Z</time>
  <course>10.76</course>
  <speed>0.022360679774997897</speed>
  <fix>3d</fix>
</trkpt>
<trkpt lat="-27.274439" lon="151.290064">
  <ele>343.1</ele>
  <time>2026-09-01T19:51:30Z</time>
  <course>270.0</course>
  <speed>0.0</speed>
  <fix>3d</fix>
</trkpt>
<trkpt lat="-27.2744392" lon="151.2900641">
  <ele>343.03</ele>
  <time>2026-09-01T19:51:30Z</time>
  <course>10.77</course>
  <speed>0.022360679774997897</speed>
  <fix>3d</fix>
</trkpt>
<trkpt lat="-27.274439" lon="151.290064">
  <ele>343.1</ele>
  <time>2026-09-01T19:51:30Z</time>
  <course>270.0</course>
  <speed>0.0</speed>
  <fix>3d</fix>
</trkpt>
<trkpt lat="-27.2744392" lon="151.2900641">
  <ele>343.02</ele>
  <time>2026-09-01T19:51:30Z</time>
  <course>10.77</course>
  <speed>0.022360679774997897</speed>
  <fix>3d</fix>
</trkpt>
<trkpt lat="-27.274439" lon="151.290064">
  <ele>343.1</ele>
  <time>2026-09-01T19:51:30Z</time>
  <course>270.0</course>
  <speed>0.0</speed>
  <fix>3d</fix>
</trkpt>
<trkpt lat="-27.2744392" lon="151.2900641">
  <ele>343.02</ele>
  <time>2026-09-01T19:51:30Z</time>
  <course>10.77</course>
  <speed>0.022360679774997897</speed>
  <fix>3d</fix>
</trkpt>
<trkpt lat="-27.274439" lon="151.290064">
  <ele>343.1</ele>
  <time>2026-09-01T19:51:30Z</time>
  <course>270.0</course>
  <speed>0.0</speed>
  <fix>3d</fix>
</trkpt>
<trkpt lat="-27.2744392" lon="151.2900641">
  <ele>343.02</ele>
  <time>2026-09-01T19:51:30Z</time>
  <course>10.77</course>
  <speed>0.022360679774997897</speed>
  <fix>3d</fix>
</trkpt>
<trkpt lat="-27.274439" lon="151.290064">
  <ele>343.1</ele>
  <time>2026-09-01T19:51:30Z</time>
  <course>270.0</course>
  <speed>0.0</speed>
  <fix>3d</fix>
</trkpt>
<trkpt lat="-27.2744392" lon="151.2900641">
  <ele>343.02</ele>
  <time>2026-09-01T19:51:30Z</time>
  <course>10.77</course>
  <speed>0.022360679774997897</speed>
  <fix>3d</fix>
</trkpt>
<trkpt lat="-27.274439" lon="151.290064">
  <ele>343.1</ele>
  <time>2026-09-01T19:51:30Z</time>
  <course>270.0</course>
  <speed>0.0</speed>
  <fix>3d</fix>
</trkpt>
<trkpt lat="-27.2744392" lon="151.2900641">
  <ele>343.01</ele>
  <time>2026-09-01T19:51:30Z</time>
  <course>10.77</course>
  <speed>0.022360679774997897</speed>
  <fix>3d</fix>
</trkpt>
<trkpt lat="-27.274439" lon="151.290064">
  <ele>343.1</ele>
  <time>2026-09-01T19:51:30Z</time>
  <course>270.0</course>
  <speed>0.0</speed>
  <fix>3d</fix>
</trkpt>
<trkpt lat="-27.2744392" lon="151.2900641">
  <ele>343.01</ele>
  <time>2026-09-01T19:51:30Z</time>
  <course>10.77</course>
  <speed>0.022360679774997897</speed>
  <fix>3d</fix>
</trkpt>
<trkpt lat="-27.274439" lon="151.290064">
  <ele>343.1</ele>
  <time>2026-09-01T19:51:30Z</time>
  <course>270.0</course>
  <speed>0.0</speed>
  <fix>3d</fix>
</trkpt>
<trkpt lat="-27.2744392" lon="151.2900641">
  <ele>343.01</ele>
  <time>2026-09-01T19:51:30Z</time>
  <course>10.77</course>
  <speed>0.022360679774997897</speed>
  <fix>3d</fix>
</trkpt>
<trkpt lat="-27.274439" lon="151.290064">
  <ele>343.1</ele>
  <time>2026-09-01T19:51:30Z</time>
  <course>270.0</course>
  <speed>0.0</speed>
  <fix>3d</fix>
</trkpt>
<trkpt lat="-27.2744392" lon="151.2900641">
  <ele>343.01</ele>
  <time>2026-09-01T19:51:30Z</time>
  <course>10.77</course>
  <speed>0.022360679774997897</speed>
  <fix>3d</fix>
</trkpt>
<trkpt lat="-27.274439" lon="151.290064">
  <ele>343.1</ele>
  <time>2026-09-01T19:51:30Z</time>
  <course>270.0</course>
  <speed>0.0</speed>
  <fix>3d</fix>
</trkpt>
<trkpt lat="-27.2744392" lon="151.2900641">
  <ele>343.01</ele>
  <time>2026-09-01T19:51:30Z</time>
  <course>10.77</course>
  <speed>0.022360679774997897</speed>
  <fix>3d</fix>
</trkpt>
<trkpt lat="-27.274439" lon="151.290064">
  <ele>343.1</ele>
  <time>2026-09-01T19:51:30Z</time>
  <course>270.0</course>
  <speed>0.0</speed>
  <fix>3d</fix>
</trkpt>
<trkpt lat="-27.2744392" lon="151.2900641">
  <ele>343.01</ele>
  <time>2026-09-01T19:51:30Z</time>
  <course>10.77</course>
  <speed>0.022360679774997897</speed>
  <fix>3d</fix>
</trkpt>
<trkpt lat="-27.274439" lon="151.290064">
  <ele>343.1</ele>
  <time>2026-09-01T19:51:30Z</time>
  <course>270.0</course>
  <speed>0.0</speed>
  <fix>3d</fix>
</trkpt>
<trkpt lat="-27.2744392" lon="151.2900641">
  <ele>343.01</ele>
  <time>2026-09-01T19:51:30Z</time>
  <course>10.77</course>
  <speed>0.022360679774997897</speed>
  <fix>3d</fix>
</trkpt>
<trkpt lat="-27.274439" lon="151.290064">
  <ele>343.1</ele>
  <time>2026-09-01T19:51:30Z</time>
  <course>270.0</course>
  <speed>0.0</speed>
  <fix>3d</fix>
</trkpt>
<trkpt lat="-27.2744392" lon="151.2900641">
  <ele>343.02</ele>
  <time>2026-09-01T19:51:30Z</time>
  <course>10.77</course>
  <speed>0.022360679774997897</speed>
  <fix>3d</fix>
</trkpt>
<trkpt lat="-27.274439" lon="151.290064">
  <ele>343.1</ele>
  <time>2026-09-01T19:51:30Z</time>
  <course>270.0</course>
  <speed>0.0</speed>
  <fix>3d</fix>
</trkpt>
<trkpt lat="-27.2744392" lon="151.2900641">
  <ele>343.02</ele>
  <time>2026-09-01T19:51:30Z</time>
  <course>10.77</course>
  <speed>0.022360679774997897</speed>
  <fix>3d</fix>
</trkpt>
<trkpt lat="-27.274439" lon="151.290064">
  <ele>343.1</ele>
  <time>2026-09-01T19:51:30Z</time>
  <course>270.0</course>
  <speed>0.0</speed>
  <fix>3d</fix>
</trkpt>
<trkpt lat="-27.2744392" lon="151.2900641">
  <ele>343.02</ele>
  <time>2026-09-01T19:51:30Z</time>
  <course>10.77</course>
  <speed>0.022360679774997897</speed>
  <fix>3d</fix>
</trkpt>
<trkpt lat="-27.274439" lon="151.290064">
  <ele>343.1</ele>
  <time>2026-09-01T19:51:30Z</time>
  <course>270.0</course>
  <speed>0.0</speed>
  <fix>3d</fix>
</trkpt>
<trkpt lat="-27.2744392" lon="151.2900641">
  <ele>343.02</ele>
  <time>2026-09-01T19:51:30Z</time>
  <course>10.77</course>
  <speed>0.022360679774997897</speed>
  <fix>3d</fix>
</trkpt>
<trkpt lat="-27.274439" lon="151.290064">
  <ele>343.1</ele>
  <time>2026-09-01T19:51:30Z</time>
  <course>270.0</course>
  <speed>0.0</speed>
  <fix>3d</fix>
</trkpt>
<trkpt lat="-27.2744392" lon="151.2900641">
  <ele>343.02</ele>
  <time>2026-09-01T19:51:30Z</time>
  <course>10.78</course>
  <speed>0.022360679774997897</speed>
  <fix>3d</fix>
</trkpt>
<trkpt lat="-27.274439" lon="151.290064">
  <ele>343.1</ele>
  <time>2026-09-01T19:51:30Z</time>
  <course>270.0</course>
  <speed>0.0</speed>
  <fix>3d</fix>
</trkpt>
<trkpt lat="-27.2744392" lon="151.2900641">
  <ele>343.02</ele>
  <time>2026-09-01T19:51:30Z</time>
  <course>10.78</course>
  <speed>0.022360679774997897</speed>
  <fix>3d</fix>
</trkpt>
<trkpt lat="-27.274439" lon="151.290064">
  <ele>343.1</ele>
  <time>2026-09-01T19:51:30Z</time>
  <course>270.0</course>
  <speed>0.0</speed>
  <fix>3d</fix>
</trkpt>
<trkpt lat="-27.2744392" lon="151.2900641">
  <ele>343.02</ele>
  <time>2026-09-01T19:51:30Z</time>
  <course>10.78</course>
  <speed>0.022360679774997897</speed>
  <fix>3d</fix>
</trkpt>
<trkpt lat="-27.274439" lon="151.290064">
  <ele>343.1</ele>
  <time>2026-09-01T19:51:30Z</time>
  <course>270.0</course>
  <speed>0.0</speed>
  <fix>3d</fix>
</trkpt>
<trkpt lat="-27.2744392" lon="151.2900641">
  <ele>343.02</ele>
  <time>2026-09-01T19:51:30Z</time>
  <course>10.78</course>
  <speed>0.022360679774997897</speed>
  <fix>3d</fix>
</trkpt>
<trkpt lat="-27.274439" lon="151.290064">
  <ele>343.1</ele>
  <time>2026-09-01T19:51:30Z</time>
  <course>270.0</course>
  <speed>0.0</speed>
  <fix>3d</fix>
</trkpt>
<trkpt lat="-27.2744392" lon="151.2900641">
  <ele>343.02</ele>
  <time>2026-09-01T19:51:30Z</time>
  <course>10.78</course>
  <speed>0.022360679774997897</speed>
  <fix>3d</fix>
</trkpt>
<trkpt lat="-27.274439" lon="151.290064">
  <ele>343.1</ele>
  <time>2026-09-01T19:51:30Z</time>
  <course>270.0</course>
  <speed>0.0</speed>
  <fix>3d</fix>
</trkpt>
<trkpt lat="-27.2744392" lon="151.2900641">
  <ele>343.09</ele>
  <time>2026-09-01T19:51:30Z</time>
  <course>10.78</course>
  <speed>0.022360679774997897</speed>
  <fix>3d</fix>
</trkpt>
<trkpt lat="-27.274439" lon="151.290064">
  <ele>343.1</ele>
  <time>2026-09-01T19:51:30Z</time>
  <course>270.0</course>
  <speed>0.0</speed>
  <fix>3d</fix>
</trkpt>
<trkpt lat="-27.2744392" lon="151.2900641">
  <ele>343.09</ele>
  <time>2026-09-01T19:51:30Z</time>
  <course>10.78</course>
  <speed>0.022360679774997897</speed>
  <fix>3d</fix>
</trkpt>
<trkpt lat="-27.274439" lon="151.290064">
  <ele>343.1</ele>
  <time>2026-09-01T19:51:30Z</time>
  <course>270.0</course>
  <speed>0.0</speed>
  <fix>3d</fix>
</trkpt>
<trkpt lat="-27.2744392" lon="151.2900641">
  <ele>343.09</ele>
  <time>2026-09-01T19:51:30Z</time>
  <course>10.78</course>
  <speed>0.022360679774997897</speed>
  <fix>3d</fix>
</trkpt>
<trkpt lat="-27.274439" lon="151.290064">
  <ele>343.1</ele>
  <time>2026-09-01T19:51:30Z</time>
  <course>270.0</course>
  <speed>0.0</speed>
  <fix>3d</fix>
</trkpt>
<trkpt lat="-27.2744392" lon="151.2900641">
  <ele>343.09</ele>
  <time>2026-09-01T19:51:30Z</time>
  <course>10.78</course>
  <speed>0.022360679774997897</speed>
  <fix>3d</fix>
</trkpt>
<trkpt lat="-27.274439" lon="151.290064">
  <ele>343.1</ele>
  <time>2026-09-01T19:51:30Z</time>
  <course>270.0</course>
  <speed>0.0</speed>
  <fix>3d</fix>
</trkpt>
<trkpt lat="-27.2744392" lon="151.2900641">
  <ele>343.09</ele>
  <time>2026-09-01T19:51:30Z</time>
  <course>10.78</course>
  <speed>0.022360679774997897</speed>
  <fix>3d</fix>
</trkpt>
<trkpt lat="-27.274439" lon="151.290064">
  <ele>343.1</ele>
  <time>2026-09-01T19:51:30Z</time>
  <course>270.0</course>
  <speed>0.0</speed>
  <fix>3d</fix>
</trkpt>
<trkpt lat="-27.2744392" lon="151.2900641">
  <ele>343.08</ele>
  <time>2026-09-01T19:51:30Z</time>
  <course>10.78</course>
  <speed>0.022360679774997897</speed>
  <fix>3d</fix>
</trkpt>
<trkpt lat="-27.274439" lon="151.290064">
  <ele>343.1</ele>
  <time>2026-09-01T19:51:30Z</time>
  <course>270.0</course>
  <speed>0.0</speed>
  <fix>3d</fix>
</trkpt>
<trkpt lat="-27.2744392" lon="151.2900641">
  <ele>343.08</ele>
  <time>2026-09-01T19:51:30Z</time>
  <course>10.78</course>
  <speed>0.022360679774997897</speed>
  <fix>3d</fix>
</trkpt>
<trkpt lat="-27.274439" lon="151.290064">
  <ele>343.1</ele>
  <time>2026-09-01T19:51:30Z</time>
  <course>270.0</course>
  <speed>0.0</speed>
  <fix>3d</fix>
</trkpt>
<trkpt lat="-27.2744392" lon="151.2900641">
  <ele>343.08</ele>
  <time>2026-09-01T19:51:30Z</time>
  <course>10.78</course>
  <speed>0.022360679774997897</speed>
  <fix>3d</fix>
</trkpt>
<trkpt lat="-27.274439" lon="151.290064">
  <ele>343.1</ele>
  <time>2026-09-01T19:51:30Z</time>
  <course>270.0</course>
  <speed>0.0</speed>
  <fix>3d</fix>
</trkpt>
<trkpt lat="-27.2744392" lon="151.2900641">
  <ele>343.08</ele>
  <time>2026-09-01T19:51:30Z</time>
  <course>10.79</course>
  <speed>0.022360679774997897</speed>
  <fix>3d</fix>
</trkpt>
<trkpt lat="-27.274439" lon="151.290064">
  <ele>343.1</ele>
  <time>2026-09-01T19:51:30Z</time>
  <course>270.0</course>
  <speed>0.0</speed>
  <fix>3d</fix>
</trkpt>
<trkpt lat="-27.2744392" lon="151.2900641">
  <ele>343.08</ele>
  <time>2026-09-01T19:51:30Z</time>
  <course>10.79</course>
  <speed>0.022360679774997897</speed>
  <fix>3d</fix>
</trkpt>
<trkpt lat="-27.274439" lon="151.290064">
  <ele>343.1</ele>
  <time>2026-09-01T19:51:30Z</time>
  <course>270.0</course>
  <speed>0.0</speed>
  <fix>3d</fix>
</trkpt>
<trkpt lat="-27.2744392" lon="151.2900641">
  <ele>343.08</ele>
  <time>2026-09-01T19:51:30Z</time>
  <course>10.79</course>
  <speed>0.022360679774997897</speed>
  <fix>3d</fix>
</trkpt>
<trkpt lat="-27.274439" lon="151.290064">
  <ele>343.1</ele>
  <time>2026-09-01T19:51:30Z</time>
  <course>270.0</course>
  <speed>0.0</speed>
  <fix>3d</fix>
</trkpt>
<trkpt lat="-27.2744392" lon="151.2900641">
  <ele>343.08</ele>
  <time>2026-09-01T19:51:30Z</time>
  <course>10.79</course>
  <speed>0.022360679774997897</speed>
  <fix>3d</fix>
</trkpt>
<trkpt lat="-27.274439" lon="151.290064">
  <ele>343.1</ele>
  <time>2026-09-01T19:51:30Z</time>
  <course>270.0</course>
  <speed>0.0</speed>
  <fix>3d</fix>
</trkpt>
<trkpt lat="-27.2744392" lon="151.2900641">
  <ele>343.08</ele>
  <time>2026-09-01T19:51:30Z</time>
  <course>10.79</course>
  <speed>0.022360679774997897</speed>
  <fix>3d</fix>
</trkpt>
<trkpt lat="-27.274439" lon="151.290064">
  <ele>343.1</ele>
  <time>2026-09-01T19:51:30Z</time>
  <course>270.0</course>
  <speed>0.0</speed>
  <fix>3d</fix>
</trkpt>
<trkpt lat="-27.2744392" lon="151.2900641">
  <ele>343.08</ele>
  <time>2026-09-01T19:51:30Z</time>
  <course>10.79</course>
  <speed>0.022360679774997897</speed>
  <fix>3d</fix>
</trkpt>
<trkpt lat="-27.274439" lon="151.290064">
  <ele>343.1</ele>
  <time>2026-09-01T19:51:30Z</time>
  <course>270.0</course>
  <speed>0.0</speed>
  <fix>3d</fix>
</trkpt>
<trkpt lat="-27.2744392" lon="151.2900641">
  <ele>343.07</ele>
  <time>2026-09-01T19:51:30Z</time>
  <course>10.79</course>
  <speed>0.022360679774997897</speed>
  <fix>3d</fix>
</trkpt>
<trkpt lat="-27.274439" lon="151.290064">
  <ele>343.1</ele>
  <time>2026-09-01T19:51:30Z</time>
  <course>270.0</course>
  <speed>0.0</speed>
  <fix>3d</fix>
</trkpt>
<trkpt lat="-27.2744392" lon="151.2900641">
  <ele>343.07</ele>
  <time>2026-09-01T19:51:30Z</time>
  <course>10.79</course>
  <speed>0.022360679774997897</speed>
  <fix>3d</fix>
</trkpt>
<trkpt lat="-27.274439" lon="151.290064">
  <ele>343.1</ele>
  <time>2026-09-01T19:51:30Z</time>
  <course>270.0</course>
  <speed>0.0</speed>
  <fix>3d</fix>
</trkpt>
<trkpt lat="-27.2744392" lon="151.2900641">
  <ele>343.07</ele>
  <time>2026-09-01T19:51:30Z</time>
  <course>10.79</course>
  <speed>0.022360679774997897</speed>
  <fix>3d</fix>
</trkpt>
<trkpt lat="-27.274439" lon="151.290064">
  <ele>343.1</ele>
  <time>2026-09-01T19:51:30Z</time>
  <course>270.0</course>
  <speed>0.0</speed>
  <fix>3d</fix>
</trkpt>
<trkpt lat="-27.2744392" lon="151.2900641">
  <ele>343.07</ele>
  <time>2026-09-01T19:51:30Z</time>
  <course>10.79</course>
  <speed>0.022360679774997897</speed>
  <fix>3d</fix>
</trkpt>
<trkpt lat="-27.274439" lon="151.290064">
  <ele>343.1</ele>
  <time>2026-09-01T19:51:30Z</time>
  <course>270.0</course>
  <speed>0.0</speed>
  <fix>3d</fix>
</trkpt>
<trkpt lat="-27.2744392" lon="151.2900641">
  <ele>343.07</ele>
  <time>2026-09-01T19:51:30Z</time>
  <course>10.79</course>
  <speed>0.022360679774997897</speed>
  <fix>3d</fix>
</trkpt>
<trkpt lat="-27.274439" lon="151.290064">
  <ele>343.1</ele>
  <time>2026-09-01T19:51:30Z</time>
  <course>270.0</course>
  <speed>0.0</speed>
  <fix>3d</fix>
</trkpt>
<trkpt lat="-27.2744392" lon="151.2900641">
  <ele>343.07</ele>
  <time>2026-09-01T19:51:30Z</time>
  <course>10.79</course>
  <speed>0.022360679774997897</speed>
  <fix>3d</fix>
</trkpt>
<trkpt lat="-27.274439" lon="151.290064">
  <ele>343.1</ele>
  <time>2026-09-01T19:51:30Z</time>
  <course>270.0</course>
  <speed>0.0</speed>
  <fix>3d</fix>
</trkpt>
<trkpt lat="-27.2744392" lon="151.2900641">
  <ele>343.07</ele>
  <time>2026-09-01T19:51:30Z</time>
  <course>10.79</course>
  <speed>0.022360679774997897</speed>
  <fix>3d</fix>
</trkpt>
<trkpt lat="-27.274439" lon="151.290064">
  <ele>343.1</ele>
  <time>2026-09-01T19:51:30Z</time>
  <course>270.0</course>
  <speed>0.0</speed>
  <fix>3d</fix>
</trkpt>
<trkpt lat="-27.2744392" lon="151.2900641">
  <ele>343.07</ele>
  <time>2026-09-01T19:51:30Z</time>
  <course>10.79</course>
  <speed>0.022360679774997897</speed>
  <fix>3d</fix>
</trkpt>
<trkpt lat="-27.274439" lon="151.290064">
  <ele>343.1</ele>
  <time>2026-09-01T19:51:30Z</time>
  <course>270.0</course>
  <speed>0.0</speed>
  <fix>3d</fix>
</trkpt>
<trkpt lat="-27.2744392" lon="151.2900641">
  <ele>343.07</ele>
  <time>2026-09-01T19:51:30Z</time>
  <course>10.8</course>
  <speed>0.022360679774997897</speed>
  <fix>3d</fix>
</trkpt>
<trkpt lat="-27.274439" lon="151.290064">
  <ele>343.1</ele>
  <time>2026-09-01T19:51:30Z</time>
  <course>270.0</course>
  <speed>0.0</speed>
  <fix>3d</fix>
</trkpt>
<trkpt lat="-27.2744392" lon="151.2900641">
  <ele>343.07</ele>
  <time>2026-09-01T19:51:30Z</time>
  <course>10.8</course>
  <speed>0.022360679774997897</speed>
  <fix>3d</fix>
</trkpt>
<trkpt lat="-27.274439" lon="151.290064">
  <ele>343.1</ele>
  <time>2026-09-01T19:51:30Z</time>
  <course>270.0</course>
  <speed>0.0</speed>
  <fix>3d</fix>
</trkpt>
<trkpt lat="-27.2744392" lon="151.2900641">
  <ele>343.07</ele>
  <time>2026-09-01T19:51:30Z</time>
  <course>10.8</course>
  <speed>0.022360679774997897</speed>
  <fix>3d</fix>
</trkpt>
<trkpt lat="-27.274439" lon="151.290064">
  <ele>343.1</ele>
  <time>2026-09-01T19:51:30Z</time>
  <course>270.0</course>
  <speed>0.0</speed>
  <fix>3d</fix>
</trkpt>
<trkpt lat="-27.2744392" lon="151.2900641">
  <ele>343.07</ele>
  <time>2026-09-01T19:51:30Z</time>
  <course>10.8</course>
  <speed>0.022360679774997897</speed>
  <fix>3d</fix>
</trkpt>
<trkpt lat="-27.274439" lon="151.290064">
  <ele>343.1</ele>
  <time>2026-09-01T19:51:30Z</time>
  <course>270.0</course>
  <speed>0.0</speed>
  <fix>3d</fix>
</trkpt>
<trkpt lat="-27.2744392" lon="151.2900641">
  <ele>343.07</ele>
  <time>2026-09-01T19:51:30Z</time>
  <course>10.8</course>
  <speed>0.022360679774997897</speed>
  <fix>3d</fix>
</trkpt>
<trkpt lat="-27.274439" lon="151.290064">
  <ele>343.1</ele>
  <time>2026-09-01T19:51:30Z</time>
  <course>270.0</course>
  <speed>0.0</speed>
  <fix>3d</fix>
</trkpt>
<trkpt lat="-27.2744392" lon="151.2900641">
  <ele>343.06</ele>
  <time>2026-09-01T19:51:30Z</time>
  <course>10.8</course>
  <speed>0.022360679774997897</speed>
  <fix>3d</fix>
</trkpt>
<trkpt lat="-27.274439" lon="151.290064">
  <ele>343.1</ele>
  <time>2026-09-01T19:51:30Z</time>
  <course>270.0</course>
  <speed>0.0</speed>
  <fix>3d</fix>
</trkpt>
<trkpt lat="-27.2744392" lon="151.2900641">
  <ele>343.06</ele>
  <time>2026-09-01T19:51:30Z</time>
  <course>10.8</course>
  <speed>0.022360679774997897</speed>
  <fix>3d</fix>
</trkpt>
<trkpt lat="-27.274439" lon="151.290064">
  <ele>343.1</ele>
  <time>2026-09-01T19:51:30Z</time>
  <course>270.0</course>
  <speed>0.0</speed>
  <fix>3d</fix>
</trkpt>
<trkpt lat="-27.2744392" lon="151.2900641">
  <ele>343.06</ele>
  <time>2026-09-01T19:51:30Z</time>
  <course>10.8</course>
  <speed>0.022360679774997897</speed>
  <fix>3d</fix>
</trkpt>
<trkpt lat="-27.274439" lon="151.290064">
  <ele>343.1</ele>
  <time>2026-09-01T19:51:30Z</time>
  <course>270.0</course>
  <speed>0.0</speed>
  <fix>3d</fix>
</trkpt>
<trkpt lat="-27.2744392" lon="151.2900641">
  <ele>343.06</ele>
  <time>2026-09-01T19:51:30Z</time>
  <course>10.8</course>
  <speed>0.022360679774997897</speed>
  <fix>3d</fix>
</trkpt>
<trkpt lat="-27.274439" lon="151.290064">
  <ele>343.1</ele>
  <time>2026-09-01T19:51:30Z</time>
  <course>270.0</course>
  <speed>0.0</speed>
  <fix>3d</fix>
</trkpt>
<trkpt lat="-27.2744392" lon="151.2900641">
  <ele>343.05</ele>
  <time>2026-09-01T19:51:30Z</time>
  <course>10.8</course>
  <speed>0.022360679774997897</speed>
  <fix>3d</fix>
</trkpt>
<trkpt lat="-27.274439" lon="151.290064">
  <ele>343.1</ele>
  <time>2026-09-01T19:51:30Z</time>
  <course>270.0</course>
  <speed>0.0</speed>
  <fix>3d</fix>
</trkpt>
<trkpt lat="-27.2744392" lon="151.2900641">
  <ele>343.05</ele>
  <time>2026-09-01T19:51:30Z</time>
  <course>10.8</course>
  <speed>0.022360679774997897</speed>
  <fix>3d</fix>
</trkpt>
<trkpt lat="-27.274439" lon="151.290064">
  <ele>343.1</ele>
  <time>2026-09-01T19:51:30Z</time>
  <course>270.0</course>
  <speed>0.0</speed>
  <fix>3d</fix>
</trkpt>
<trkpt lat="-27.2744392" lon="151.2900641">
  <ele>343.05</ele>
  <time>2026-09-01T19:51:30Z</time>
  <course>10.8</course>
  <speed>0.022360679774997897</speed>
  <fix>3d</fix>
</trkpt>
<trkpt lat="-27.274439" lon="151.290064">
  <ele>343.1</ele>
  <time>2026-09-01T19:51:30Z</time>
  <course>270.0</course>
  <speed>0.0</speed>
  <fix>3d</fix>
</trkpt>
<trkpt lat="-27.2744392" lon="151.2900641">
  <ele>343.05</ele>
  <time>2026-09-01T19:51:30Z</time>
  <course>10.8</course>
  <speed>0.022360679774997897</speed>
  <fix>3d</fix>
</trkpt>
<trkpt lat="-27.274439" lon="151.290064">
  <ele>343.1</ele>
  <time>2026-09-01T19:51:30Z</time>
  <course>270.0</course>
  <speed>0.0</speed>
  <fix>3d</fix>
</trkpt>
<trkpt lat="-27.2744392" lon="151.2900641">
  <ele>343.05</ele>
  <time>2026-09-01T19:51:30Z</time>
  <course>10.81</course>
  <speed>0.022360679774997897</speed>
  <fix>3d</fix>
</trkpt>
<trkpt lat="-27.274439" lon="151.290064">
  <ele>343.1</ele>
  <time>2026-09-01T19:51:30Z</time>
  <course>270.0</course>
  <speed>0.0</speed>
  <fix>3d</fix>
</trkpt>
<trkpt lat="-27.2744392" lon="151.2900641">
  <ele>343.05</ele>
  <time>2026-09-01T19:51:30Z</time>
  <course>10.81</course>
  <speed>0.022360679774997897</speed>
  <fix>3d</fix>
</trkpt>
<trkpt lat="-27.274439" lon="151.290064">
  <ele>343.1</ele>
  <time>2026-09-01T19:51:30Z</time>
  <course>270.0</course>
  <speed>0.0</speed>
  <fix>3d</fix>
</trkpt>
<trkpt lat="-27.2744392" lon="151.2900641">
  <ele>343.05</ele>
  <time>2026-09-01T19:51:30Z</time>
  <course>10.81</course>
  <speed>0.022360679774997897</speed>
  <fix>3d</fix>
</trkpt>
<trkpt lat="-27.274439" lon="151.290064">
  <ele>343.1</ele>
  <time>2026-09-01T19:51:30Z</time>
  <course>270.0</course>
  <speed>0.0</speed>
  <fix>3d</fix>
</trkpt>
<trkpt lat="-27.2744392" lon="151.2900641">
  <ele>343.05</ele>
  <time>2026-09-01T19:51:30Z</time>
  <course>10.81</course>
  <speed>0.022360679774997897</speed>
  <fix>3d</fix>
</trkpt>
<trkpt lat="-27.274439" lon="151.290064">
  <ele>343.1</ele>
  <time>2026-09-01T19:51:30Z</time>
  <course>270.0</course>
  <speed>0.0</speed>
  <fix>3d</fix>
</trkpt>
<trkpt lat="-27.2744392" lon="151.2900641">
  <ele>343.05</ele>
  <time>2026-09-01T19:51:30Z</time>
  <course>10.81</course>
  <speed>0.022360679774997897</speed>
  <fix>3d</fix>
</trkpt>
<trkpt lat="-27.274439" lon="151.290064">
  <ele>343.1</ele>
  <time>2026-09-01T19:51:30Z</time>
  <course>270.0</course>
  <speed>0.0</speed>
  <fix>3d</fix>
</trkpt>
<trkpt lat="-27.2744392" lon="151.2900641">
  <ele>343.05</ele>
  <time>2026-09-01T19:51:30Z</time>
  <course>10.81</course>
  <speed>0.022360679774997897</speed>
  <fix>3d</fix>
</trkpt>
<trkpt lat="-27.274439" lon="151.290064">
  <ele>343.1</ele>
  <time>2026-09-01T19:51:30Z</time>
  <course>270.0</course>
  <speed>0.0</speed>
  <fix>3d</fix>
</trkpt>
<trkpt lat="-27.2744392" lon="151.2900641">
  <ele>343.05</ele>
  <time>2026-09-01T19:51:30Z</time>
  <course>10.81</course>
  <speed>0.022360679774997897</speed>
  <fix>3d</fix>
</trkpt>
<trkpt lat="-27.274439" lon="151.290064">
  <ele>343.1</ele>
  <time>2026-09-01T19:51:30Z</time>
  <course>270.0</course>
  <speed>0.0</speed>
  <fix>3d</fix>
</trkpt>
<trkpt lat="-27.2744392" lon="151.2900641">
  <ele>343.05</ele>
  <time>2026-09-01T19:51:30Z</time>
  <course>10.81</course>
  <speed>0.022360679774997897</speed>
  <fix>3d</fix>
</trkpt>
<trkpt lat="-27.274439" lon="151.290064">
  <ele>343.1</ele>
  <time>2026-09-01T19:51:30Z</time>
  <course>270.0</course>
  <speed>0.0</speed>
  <fix>3d</fix>
</trkpt>
<trkpt lat="-27.2744392" lon="151.2900641">
  <ele>343.04</ele>
  <time>2026-09-01T19:51:30Z</time>
  <course>10.81</course>
  <speed>0.022360679774997897</speed>
  <fix>3d</fix>
</trkpt>
<trkpt lat="-27.274439" lon="151.290064">
  <ele>343.1</ele>
  <time>2026-09-01T19:51:30Z</time>
  <course>270.0</course>
  <speed>0.0</speed>
  <fix>3d</fix>
</trkpt>
<trkpt lat="-27.2744392" lon="151.2900641">
  <ele>343.04</ele>
  <time>2026-09-01T19:51:30Z</time>
  <course>10.81</course>
  <speed>0.022360679774997897</speed>
  <fix>3d</fix>
</trkpt>
<trkpt lat="-27.274439" lon="151.290064">
  <ele>343.1</ele>
  <time>2026-09-01T19:51:30Z</time>
  <course>270.0</course>
  <speed>0.0</speed>
  <fix>3d</fix>
</trkpt>
<trkpt lat="-27.2744392" lon="151.2900641">
  <ele>343.04</ele>
  <time>2026-09-01T19:51:30Z</time>
  <course>10.81</course>
  <speed>0.022360679774997897</speed>
  <fix>3d</fix>
</trkpt>
<trkpt lat="-27.274439" lon="151.290064">
  <ele>343.1</ele>
  <time>2026-09-01T19:51:30Z</time>
  <course>270.0</course>
  <speed>0.0</speed>
  <fix>3d</fix>
</trkpt>
<trkpt lat="-27.2744392" lon="151.2900641">
  <ele>343.04</ele>
  <time>2026-09-01T19:51:30Z</time>
  <course>10.81</course>
  <speed>0.022360679774997897</speed>
  <fix>3d</fix>
</trkpt>
<trkpt lat="-27.274439" lon="151.290064">
  <ele>343.1</ele>
  <time>2026-09-01T19:51:30Z</time>
  <course>270.0</course>
  <speed>0.0</speed>
  <fix>3d</fix>
</trkpt>
<trkpt lat="-27.2744392" lon="151.2900641">
  <ele>343.04</ele>
  <time>2026-09-01T19:51:30Z</time>
  <course>10.81</course>
  <speed>0.022360679774997897</speed>
  <fix>3d</fix>
</trkpt>
<trkpt lat="-27.274439" lon="151.290064">
  <ele>343.1</ele>
  <time>2026-09-01T19:51:30Z</time>
  <course>270.0</course>
  <speed>0.0</speed>
  <fix>3d</fix>
</trkpt>
<trkpt lat="-27.2744392" lon="151.2900641">
  <ele>343.04</ele>
  <time>2026-09-01T19:51:30Z</time>
  <course>10.82</course>
  <speed>0.022360679774997897</speed>
  <fix>3d</fix>
</trkpt>
<trkpt lat="-27.274439" lon="151.290064">
  <ele>343.1</ele>
  <time>2026-09-01T19:51:30Z</time>
  <course>270.0</course>
  <speed>0.0</speed>
  <fix>3d</fix>
</trkpt>
<trkpt lat="-27.2744392" lon="151.2900641">
  <ele>343.04</ele>
  <time>2026-09-01T19:51:30Z</time>
  <course>10.82</course>
  <speed>0.022360679774997897</speed>
  <fix>3d</fix>
</trkpt>
<trkpt lat="-27.274439" lon="151.290064">
  <ele>343.1</ele>
  <time>2026-09-01T19:51:30Z</time>
  <course>270.0</course>
  <speed>0.0</speed>
  <fix>3d</fix>
</trkpt>
<trkpt lat="-27.2744392" lon="151.2900641">
  <ele>343.04</ele>
  <time>2026-09-01T19:51:30Z</time>
  <course>10.82</course>
  <speed>0.022360679774997897</speed>
  <fix>3d</fix>
</trkpt>
<trkpt lat="-27.274439" lon="151.290064">
  <ele>343.1</ele>
  <time>2026-09-01T19:51:30Z</time>
  <course>270.0</course>
  <speed>0.0</speed>
  <fix>3d</fix>
</trkpt>
<trkpt lat="-27.2744392" lon="151.2900641">
  <ele>343.04</ele>
  <time>2026-09-01T19:51:30Z</time>
  <course>10.82</course>
  <speed>0.022360679774997897</speed>
  <fix>3d</fix>
</trkpt>
<trkpt lat="-27.274439" lon="151.290064">
  <ele>343.1</ele>
  <time>2026-09-01T19:51:30Z</time>
  <course>270.0</course>
  <speed>0.0</speed>
  <fix>3d</fix>
</trkpt>
<trkpt lat="-27.2744392" lon="151.2900641">
  <ele>343.04</ele>
  <time>2026-09-01T19:51:30Z</time>
  <course>10.82</course>
  <speed>0.022360679774997897</speed>
  <fix>3d</fix>
</trkpt>
<trkpt lat="-27.274439" lon="151.290064">
  <ele>343.1</ele>
  <time>2026-09-01T19:51:30Z</time>
  <course>270.0</course>
  <speed>0.0</speed>
  <fix>3d</fix>
</trkpt>
<trkpt lat="-27.2744392" lon="151.2900641">
  <ele>343.04</ele>
  <time>2026-09-01T19:51:30Z</time>
  <course>10.82</course>
  <speed>0.022360679774997897</speed>
  <fix>3d</fix>
</trkpt>
<trkpt lat="-27.274439" lon="151.290064">
  <ele>343.1</ele>
  <time>2026-09-01T19:51:30Z</time>
  <course>270.0</course>
  <speed>0.0</speed>
  <fix>3d</fix>
</trkpt>
<trkpt lat="-27.2744392" lon="151.2900641">
  <ele>343.04</ele>
  <time>2026-09-01T19:51:30Z</time>
  <course>10.82</course>
  <speed>0.022360679774997897</speed>
  <fix>3d</fix>
</trkpt>
<trkpt lat="-27.274439" lon="151.290064">
  <ele>343.1</ele>
  <time>2026-09-01T19:51:30Z</time>
  <course>270.0</course>
  <speed>0.0</speed>
  <fix>3d</fix>
</trkpt>
<trkpt lat="-27.2744392" lon="151.2900641">
  <ele>343.04</ele>
  <time>2026-09-01T19:51:30Z</time>
  <course>10.82</course>
  <speed>0.022360679774997897</speed>
  <fix>3d</fix>
</trkpt>
<trkpt lat="-27.274439" lon="151.290064">
  <ele>343.1</ele>
  <time>2026-09-01T19:51:30Z</time>
  <course>270.0</course>
  <speed>0.0</speed>
  <fix>3d</fix>
</trkpt>
<trkpt lat="-27.2744392" lon="151.2900641">
  <ele>343.04</ele>
  <time>2026-09-01T19:51:30Z</time>
  <course>10.82</course>
  <speed>0.022360679774997897</speed>
  <fix>3d</fix>
</trkpt>
<trkpt lat="-27.274439" lon="151.290064">
  <ele>343.1</ele>
  <time>2026-09-01T19:51:30Z</time>
  <course>270.0</course>
  <speed>0.0</speed>
  <fix>3d</fix>
</trkpt>
<trkpt lat="-27.2744392" lon="151.2900641">
  <ele>343.04</ele>
  <time>2026-09-01T19:51:30Z</time>
  <course>10.82</course>
  <speed>0.022360679774997897</speed>
  <fix>3d</fix>
</trkpt>
<trkpt lat="-27.274439" lon="151.290064">
  <ele>343.1</ele>
  <time>2026-09-01T19:51:30Z</time>
  <course>270.0</course>
  <speed>0.0</speed>
  <fix>3d</fix>
</trkpt>
<trkpt lat="-27.2744392" lon="151.2900641">
  <ele>343.04</ele>
  <time>2026-09-01T19:51:30Z</time>
  <course>10.82</course>
  <speed>0.022360679774997897</speed>
  <fix>3d</fix>
</trkpt>
<trkpt lat="-27.274439" lon="151.290064">
  <ele>343.1</ele>
  <time>2026-09-01T19:51:30Z</time>
  <course>270.0</course>
  <speed>0.0</speed>
  <fix>3d</fix>
</trkpt>
<trkpt lat="-27.2744392" lon="151.2900641">
  <ele>343.04</ele>
  <time>2026-09-01T19:51:30Z</time>
  <course>10.82</course>
  <speed>0.022360679774997897</speed>
  <fix>3d</fix>
</trkpt>
<trkpt lat="-27.274439" lon="151.290064">
  <ele>343.1</ele>
  <time>2026-09-01T19:51:30Z</time>
  <course>270.0</course>
  <speed>0.0</speed>
  <fix>3d</fix>
</trkpt>
<trkpt lat="-27.2744392" lon="151.2900641">
  <ele>343.09</ele>
  <time>2026-09-01T19:51:30Z</time>
  <course>10.82</course>
  <speed>0.022360679774997897</speed>
  <fix>3d</fix>
</trkpt>
<trkpt lat="-27.274439" lon="151.290064">
  <ele>343.1</ele>
  <time>2026-09-01T19:51:31Z</time>
  <course>270.0</course>
  <speed>0.0</speed>
  <fix>3d</fix>
</trkpt>
<trkpt lat="-27.2744392" lon="151.2900641">
  <ele>343.09</ele>
  <time>2026-09-01T19:51:31Z</time>
  <course>10.83</course>
  <speed>0.022360679774997897</speed>
  <fix>3d</fix>
</trkpt>
<trkpt lat="-27.274439" lon="151.290064">
  <ele>343.1</ele>
  <time>2026-09-01T19:51:31Z</time>
  <course>270.0</course>
  <speed>0.0</speed>
  <fix>3d</fix>
</trkpt>
<trkpt lat="-27.2744392" lon="151.2900641">
  <ele>343.09</ele>
  <time>2026-09-01T19:51:31Z</time>
  <course>10.83</course>
  <speed>0.022360679774997897</speed>
  <fix>3d</fix>
</trkpt>
<trkpt lat="-27.274439" lon="151.290064">
  <ele>343.1</ele>
  <time>2026-09-01T19:51:31Z</time>
  <course>270.0</course>
  <speed>0.0</speed>
  <fix>3d</fix>
</trkpt>
<trkpt lat="-27.2744392" lon="151.2900641">
  <ele>343.09</ele>
  <time>2026-09-01T19:51:31Z</time>
  <course>10.83</course>
  <speed>0.022360679774997897</speed>
  <fix>3d</fix>
</trkpt>
<trkpt lat="-27.274439" lon="151.290064">
  <ele>343.1</ele>
  <time>2026-09-01T19:51:31Z</time>
  <course>270.0</course>
  <speed>0.0</speed>
  <fix>3d</fix>
</trkpt>
<trkpt lat="-27.2744392" lon="151.2900641">
  <ele>343.09</ele>
  <time>2026-09-01T19:51:31Z</time>
  <course>10.83</course>
  <speed>0.022360679774997897</speed>
  <fix>3d</fix>
</trkpt>
<trkpt lat="-27.274439" lon="151.290064">
  <ele>343.1</ele>
  <time>2026-09-01T19:51:31Z</time>
  <course>270.0</course>
  <speed>0.0</speed>
  <fix>3d</fix>
</trkpt>
<trkpt lat="-27.2744392" lon="151.2900641">
  <ele>343.1</ele>
  <time>2026-09-01T19:51:31Z</time>
  <course>10.83</course>
  <speed>0.022360679774997897</speed>
  <fix>3d</fix>
</trkpt>
<trkpt lat="-27.274439" lon="151.290064">
  <ele>343.1</ele>
  <time>2026-09-01T19:51:31Z</time>
  <course>270.0</course>
  <speed>0.0</speed>
  <fix>3d</fix>
</trkpt>
<trkpt lat="-27.2744392" lon="151.2900641">
  <ele>343.1</ele>
  <time>2026-09-01T19:51:31Z</time>
  <course>10.83</course>
  <speed>0.022360679774997897</speed>
  <fix>3d</fix>
</trkpt>
<trkpt lat="-27.274439" lon="151.290064">
  <ele>343.1</ele>
  <time>2026-09-01T19:51:31Z</time>
  <course>270.0</course>
  <speed>0.0</speed>
  <fix>3d</fix>
</trkpt>
<trkpt lat="-27.2744392" lon="151.2900641">
  <ele>343.1</ele>
  <time>2026-09-01T19:51:31Z</time>
  <course>10.83</course>
  <speed>0.022360679774997897</speed>
  <fix>3d</fix>
</trkpt>
<trkpt lat="-27.274439" lon="151.290064">
  <ele>343.1</ele>
  <time>2026-09-01T19:51:31Z</time>
  <course>270.0</course>
  <speed>0.0</speed>
  <fix>3d</fix>
</trkpt>
<trkpt lat="-27.2744392" lon="151.2900641">
  <ele>343.1</ele>
  <time>2026-09-01T19:51:31Z</time>
  <course>10.83</course>
  <speed>0.022360679774997897</speed>
  <fix>3d</fix>
</trkpt>
<trkpt lat="-27.274439" lon="151.290064">
  <ele>343.1</ele>
  <time>2026-09-01T19:51:31Z</time>
  <course>270.0</course>
  <speed>0.0</speed>
  <fix>3d</fix>
</trkpt>
<trkpt lat="-27.2744392" lon="151.2900641">
  <ele>343.1</ele>
  <time>2026-09-01T19:51:31Z</time>
  <course>10.83</course>
  <speed>0.022360679774997897</speed>
  <fix>3d</fix>
</trkpt>
<trkpt lat="-27.274439" lon="151.290064">
  <ele>343.1</ele>
  <time>2026-09-01T19:51:31Z</time>
  <course>270.0</course>
  <speed>0.0</speed>
  <fix>3d</fix>
</trkpt>
<trkpt lat="-27.2744392" lon="151.2900641">
  <ele>343.1</ele>
  <time>2026-09-01T19:51:31Z</time>
  <course>10.83</course>
  <speed>0.022360679774997897</speed>
  <fix>3d</fix>
</trkpt>
<trkpt lat="-27.274439" lon="151.290064">
  <ele>343.1</ele>
  <time>2026-09-01T19:51:31Z</time>
  <course>270.0</course>
  <speed>0.0</speed>
  <fix>3d</fix>
</trkpt>
<trkpt lat="-27.2744392" lon="151.2900641">
  <ele>343.1</ele>
  <time>2026-09-01T19:51:31Z</time>
  <course>10.83</course>
  <speed>0.022360679774997897</speed>
  <fix>3d</fix>
</trkpt>
<trkpt lat="-27.274439" lon="151.290064">
  <ele>343.1</ele>
  <time>2026-09-01T19:51:31Z</time>
  <course>270.0</course>
  <speed>0.0</speed>
  <fix>3d</fix>
</trkpt>
<trkpt lat="-27.2744392" lon="151.2900641">
  <ele>343.1</ele>
  <time>2026-09-01T19:51:31Z</time>
  <course>10.84</course>
  <speed>0.022360679774997897</speed>
  <fix>3d</fix>
</trkpt>
<trkpt lat="-27.274439" lon="151.290064">
  <ele>343.1</ele>
  <time>2026-09-01T19:51:31Z</time>
  <course>270.0</course>
  <speed>0.0</speed>
  <fix>3d</fix>
</trkpt>
<trkpt lat="-27.2744392" lon="151.2900641">
  <ele>343.1</ele>
  <time>2026-09-01T19:51:31Z</time>
  <course>10.84</course>
  <speed>0.022360679774997897</speed>
  <fix>3d</fix>
</trkpt>
<trkpt lat="-27.274439" lon="151.290064">
  <ele>343.1</ele>
  <time>2026-09-01T19:51:31Z</time>
  <course>270.0</course>
  <speed>0.0</speed>
  <fix>3d</fix>
</trkpt>
<trkpt lat="-27.2744392" lon="151.2900641">
  <ele>343.1</ele>
  <time>2026-09-01T19:51:31Z</time>
  <course>10.84</course>
  <speed>0.022360679774997897</speed>
  <fix>3d</fix>
</trkpt>
<trkpt lat="-27.274439" lon="151.290064">
  <ele>343.1</ele>
  <time>2026-09-01T19:51:31Z</time>
  <course>270.0</course>
  <speed>0.0</speed>
  <fix>3d</fix>
</trkpt>
<trkpt lat="-27.2744392" lon="151.2900641">
  <ele>343.1</ele>
  <time>2026-09-01T19:51:31Z</time>
  <course>10.84</course>
  <speed>0.022360679774997897</speed>
  <fix>3d</fix>
</trkpt>
<trkpt lat="-27.274439" lon="151.290064">
  <ele>343.1</ele>
  <time>2026-09-01T19:51:31Z</time>
  <course>270.0</course>
  <speed>0.0</speed>
  <fix>3d</fix>
</trkpt>
<trkpt lat="-27.2744392" lon="151.2900641">
  <ele>343.09</ele>
  <time>2026-09-01T19:51:31Z</time>
  <course>10.84</course>
  <speed>0.022360679774997897</speed>
  <fix>3d</fix>
</trkpt>
<trkpt lat="-27.274439" lon="151.290064">
  <ele>343.1</ele>
  <time>2026-09-01T19:51:31Z</time>
  <course>270.0</course>
  <speed>0.0</speed>
  <fix>3d</fix>
</trkpt>
<trkpt lat="-27.2744392" lon="151.2900641">
  <ele>343.09</ele>
  <time>2026-09-01T19:51:31Z</time>
  <course>10.84</course>
  <speed>0.022360679774997897</speed>
  <fix>3d</fix>
</trkpt>
<trkpt lat="-27.274439" lon="151.290064">
  <ele>343.1</ele>
  <time>2026-09-01T19:51:31Z</time>
  <course>270.0</course>
  <speed>0.0</speed>
  <fix>3d</fix>
</trkpt>
<trkpt lat="-27.2744392" lon="151.2900641">
  <ele>343.1</ele>
  <time>2026-09-01T19:51:31Z</time>
  <course>10.84</course>
  <speed>0.022360679774997897</speed>
  <fix>3d</fix>
</trkpt>
<trkpt lat="-27.274439" lon="151.290064">
  <ele>343.1</ele>
  <time>2026-09-01T19:51:31Z</time>
  <course>270.0</course>
  <speed>0.0</speed>
  <fix>3d</fix>
</trkpt>
<trkpt lat="-27.2744392" lon="151.2900641">
  <ele>343.1</ele>
  <time>2026-09-01T19:51:31Z</time>
  <course>10.84</course>
  <speed>0.022360679774997897</speed>
  <fix>3d</fix>
</trkpt>
<trkpt lat="-27.274439" lon="151.290064">
  <ele>343.1</ele>
  <time>2026-09-01T19:51:31Z</time>
  <course>270.0</course>
  <speed>0.0</speed>
  <fix>3d</fix>
</trkpt>
<trkpt lat="-27.2744392" lon="151.2900641">
  <ele>343.09</ele>
  <time>2026-09-01T19:51:31Z</time>
  <course>10.84</course>
  <speed>0.022360679774997897</speed>
  <fix>3d</fix>
</trkpt>
<trkpt lat="-27.274439" lon="151.290064">
  <ele>343.1</ele>
  <time>2026-09-01T19:51:31Z</time>
  <course>270.0</course>
  <speed>0.0</speed>
  <fix>3d</fix>
</trkpt>
<trkpt lat="-27.2744392" lon="151.2900641">
  <ele>343.09</ele>
  <time>2026-09-01T19:51:31Z</time>
  <course>10.84</course>
  <speed>0.022360679774997897</speed>
  <fix>3d</fix>
</trkpt>
<trkpt lat="-27.274439" lon="151.290064">
  <ele>343.1</ele>
  <time>2026-09-01T19:51:31Z</time>
  <course>270.0</course>
  <speed>0.0</speed>
  <fix>3d</fix>
</trkpt>
<trkpt lat="-27.2744392" lon="151.2900641">
  <ele>343.09</ele>
  <time>2026-09-01T19:51:31Z</time>
  <course>10.84</course>
  <speed>0.022360679774997897</speed>
  <fix>3d</fix>
</trkpt>
<trkpt lat="-27.274439" lon="151.290064">
  <ele>343.1</ele>
  <time>2026-09-01T19:51:31Z</time>
  <course>270.0</course>
  <speed>0.0</speed>
  <fix>3d</fix>
</trkpt>
<trkpt lat="-27.2744392" lon="151.2900641">
  <ele>343.09</ele>
  <time>2026-09-01T19:51:31Z</time>
  <course>10.84</course>
  <speed>0.022360679774997897</speed>
  <fix>3d</fix>
</trkpt>
<trkpt lat="-27.274439" lon="151.290064">
  <ele>343.1</ele>
  <time>2026-09-01T19:51:31Z</time>
  <course>270.0</course>
  <speed>0.0</speed>
  <fix>3d</fix>
</trkpt>
<trkpt lat="-27.2744392" lon="151.2900641">
  <ele>343.09</ele>
  <time>2026-09-01T19:51:31Z</time>
  <course>10.84</course>
  <speed>0.022360679774997897</speed>
  <fix>3d</fix>
</trkpt>
<trkpt lat="-27.274439" lon="151.290064">
  <ele>343.1</ele>
  <time>2026-09-01T19:51:31Z</time>
  <course>270.0</course>
  <speed>0.0</speed>
  <fix>3d</fix>
</trkpt>
<trkpt lat="-27.2744392" lon="151.2900641">
  <ele>343.09</ele>
  <time>2026-09-01T19:51:31Z</time>
  <course>10.85</course>
  <speed>0.022360679774997897</speed>
  <fix>3d</fix>
</trkpt>
<trkpt lat="-27.274439" lon="151.290064">
  <ele>343.1</ele>
  <time>2026-09-01T19:51:31Z</time>
  <course>270.0</course>
  <speed>0.0</speed>
  <fix>3d</fix>
</trkpt>
<trkpt lat="-27.2744392" lon="151.2900641">
  <ele>343.09</ele>
  <time>2026-09-01T19:51:31Z</time>
  <course>10.85</course>
  <speed>0.022360679774997897</speed>
  <fix>3d</fix>
</trkpt>
<trkpt lat="-27.274439" lon="151.290064">
  <ele>343.1</ele>
  <time>2026-09-01T19:51:31Z</time>
  <course>270.0</course>
  <speed>0.0</speed>
  <fix>3d</fix>
</trkpt>
<trkpt lat="-27.2744392" lon="151.2900641">
  <ele>343.08</ele>
  <time>2026-09-01T19:51:31Z</time>
  <course>10.85</course>
  <speed>0.022360679774997897</speed>
  <fix>3d</fix>
</trkpt>
<trkpt lat="-27.274439" lon="151.290064">
  <ele>343.1</ele>
  <time>2026-09-01T19:51:31Z</time>
  <course>270.0</course>
  <speed>0.0</speed>
  <fix>3d</fix>
</trkpt>
<trkpt lat="-27.2744392" lon="151.2900641">
  <ele>343.08</ele>
  <time>2026-09-01T19:51:31Z</time>
  <course>10.85</course>
  <speed>0.022360679774997897</speed>
  <fix>3d</fix>
</trkpt>
<trkpt lat="-27.274439" lon="151.290064">
  <ele>343.1</ele>
  <time>2026-09-01T19:51:31Z</time>
  <course>270.0</course>
  <speed>0.0</speed>
  <fix>3d</fix>
</trkpt>
<trkpt lat="-27.2744392" lon="151.2900641">
  <ele>343.08</ele>
  <time>2026-09-01T19:51:31Z</time>
  <course>10.85</course>
  <speed>0.022360679774997897</speed>
  <fix>3d</fix>
</trkpt>
<trkpt lat="-27.274439" lon="151.290064">
  <ele>343.1</ele>
  <time>2026-09-01T19:51:31Z</time>
  <course>270.0</course>
  <speed>0.0</speed>
  <fix>3d</fix>
</trkpt>
<trkpt lat="-27.2744392" lon="151.2900641">
  <ele>343.08</ele>
  <time>2026-09-01T19:51:31Z</time>
  <course>10.85</course>
  <speed>0.022360679774997897</speed>
  <fix>3d</fix>
</trkpt>
<trkpt lat="-27.274439" lon="151.290064">
  <ele>343.1</ele>
  <time>2026-09-01T19:51:31Z</time>
  <course>270.0</course>
  <speed>0.0</speed>
  <fix>3d</fix>
</trkpt>
<trkpt lat="-27.2744392" lon="151.2900641">
  <ele>343.08</ele>
  <time>2026-09-01T19:51:31Z</time>
  <course>10.85</course>
  <speed>0.022360679774997897</speed>
  <fix>3d</fix>
</trkpt>
<trkpt lat="-27.274439" lon="151.290064">
  <ele>343.1</ele>
  <time>2026-09-01T19:51:31Z</time>
  <course>270.0</course>
  <speed>0.0</speed>
  <fix>3d</fix>
</trkpt>
<trkpt lat="-27.2744392" lon="151.2900641">
  <ele>343.08</ele>
  <time>2026-09-01T19:51:31Z</time>
  <course>10.85</course>
  <speed>0.022360679774997897</speed>
  <fix>3d</fix>
</trkpt>
<trkpt lat="-27.274439" lon="151.290064">
  <ele>343.1</ele>
  <time>2026-09-01T19:51:31Z</time>
  <course>270.0</course>
  <speed>0.0</speed>
  <fix>3d</fix>
</trkpt>
<trkpt lat="-27.2744392" lon="151.2900641">
  <ele>343.08</ele>
  <time>2026-09-01T19:51:31Z</time>
  <course>10.85</course>
  <speed>0.022360679774997897</speed>
  <fix>3d</fix>
</trkpt>
<trkpt lat="-27.274439" lon="151.290064">
  <ele>343.1</ele>
  <time>2026-09-01T19:51:31Z</time>
  <course>270.0</course>
  <speed>0.0</speed>
  <fix>3d</fix>
</trkpt>
<trkpt lat="-27.2744392" lon="151.2900641">
  <ele>343.08</ele>
  <time>2026-09-01T19:51:31Z</time>
  <course>10.85</course>
  <speed>0.022360679774997897</speed>
  <fix>3d</fix>
</trkpt>
<trkpt lat="-27.274439" lon="151.290064">
  <ele>343.1</ele>
  <time>2026-09-01T19:51:31Z</time>
  <course>270.0</course>
  <speed>0.0</speed>
  <fix>3d</fix>
</trkpt>
<trkpt lat="-27.2744392" lon="151.2900641">
  <ele>343.07</ele>
  <time>2026-09-01T19:51:31Z</time>
  <course>10.85</course>
  <speed>0.022360679774997897</speed>
  <fix>3d</fix>
</trkpt>
<trkpt lat="-27.274439" lon="151.290064">
  <ele>343.1</ele>
  <time>2026-09-01T19:51:31Z</time>
  <course>270.0</course>
  <speed>0.0</speed>
  <fix>3d</fix>
</trkpt>
<trkpt lat="-27.2744392" lon="151.2900641">
  <ele>343.07</ele>
  <time>2026-09-01T19:51:31Z</time>
  <course>10.86</course>
  <speed>0.022360679774997897</speed>
  <fix>3d</fix>
</trkpt>
<trkpt lat="-27.274439" lon="151.290064">
  <ele>343.1</ele>
  <time>2026-09-01T19:51:31Z</time>
  <course>270.0</course>
  <speed>0.0</speed>
  <fix>3d</fix>
</trkpt>
<trkpt lat="-27.2744392" lon="151.2900641">
  <ele>343.07</ele>
  <time>2026-09-01T19:51:31Z</time>
  <course>10.86</course>
  <speed>0.022360679774997897</speed>
  <fix>3d</fix>
</trkpt>
<trkpt lat="-27.274439" lon="151.290064">
  <ele>343.1</ele>
  <time>2026-09-01T19:51:31Z</time>
  <course>270.0</course>
  <speed>0.0</speed>
  <fix>3d</fix>
</trkpt>
<trkpt lat="-27.2744392" lon="151.2900641">
  <ele>343.07</ele>
  <time>2026-09-01T19:51:31Z</time>
  <course>10.86</course>
  <speed>0.022360679774997897</speed>
  <fix>3d</fix>
</trkpt>
<trkpt lat="-27.274439" lon="151.290064">
  <ele>343.1</ele>
  <time>2026-09-01T19:51:31Z</time>
  <course>270.0</course>
  <speed>0.0</speed>
  <fix>3d</fix>
</trkpt>
<trkpt lat="-27.2744392" lon="151.2900641">
  <ele>343.07</ele>
  <time>2026-09-01T19:51:31Z</time>
  <course>10.86</course>
  <speed>0.022360679774997897</speed>
  <fix>3d</fix>
</trkpt>
<trkpt lat="-27.274439" lon="151.290064">
  <ele>343.1</ele>
  <time>2026-09-01T19:51:31Z</time>
  <course>270.0</course>
  <speed>0.0</speed>
  <fix>3d</fix>
</trkpt>
<trkpt lat="-27.2744392" lon="151.2900641">
  <ele>343.07</ele>
  <time>2026-09-01T19:51:31Z</time>
  <course>10.86</course>
  <speed>0.022360679774997897</speed>
  <fix>3d</fix>
</trkpt>
<trkpt lat="-27.274439" lon="151.290064">
  <ele>343.1</ele>
  <time>2026-09-01T19:51:31Z</time>
  <course>270.0</course>
  <speed>0.0</speed>
  <fix>3d</fix>
</trkpt>
<trkpt lat="-27.2744392" lon="151.2900641">
  <ele>343.07</ele>
  <time>2026-09-01T19:51:31Z</time>
  <course>10.86</course>
  <speed>0.022360679774997897</speed>
  <fix>3d</fix>
</trkpt>
<trkpt lat="-27.274439" lon="151.290064">
  <ele>343.1</ele>
  <time>2026-09-01T19:51:31Z</time>
  <course>270.0</course>
  <speed>0.0</speed>
  <fix>3d</fix>
</trkpt>
<trkpt lat="-27.2744392" lon="151.2900641">
  <ele>343.07</ele>
  <time>2026-09-01T19:51:31Z</time>
  <course>10.86</course>
  <speed>0.022360679774997897</speed>
  <fix>3d</fix>
</trkpt>
<trkpt lat="-27.274439" lon="151.290064">
  <ele>343.1</ele>
  <time>2026-09-01T19:51:31Z</time>
  <course>270.0</course>
  <speed>0.0</speed>
  <fix>3d</fix>
</trkpt>
<trkpt lat="-27.2744392" lon="151.2900641">
  <ele>343.07</ele>
  <time>2026-09-01T19:51:31Z</time>
  <course>10.86</course>
  <speed>0.022360679774997897</speed>
  <fix>3d</fix>
</trkpt>
<trkpt lat="-27.274439" lon="151.290064">
  <ele>343.1</ele>
  <time>2026-09-01T19:51:31Z</time>
  <course>270.0</course>
  <speed>0.0</speed>
  <fix>3d</fix>
</trkpt>
<trkpt lat="-27.2744392" lon="151.2900641">
  <ele>343.07</ele>
  <time>2026-09-01T19:51:31Z</time>
  <course>10.86</course>
  <speed>0.022360679774997897</speed>
  <fix>3d</fix>
</trkpt>
<trkpt lat="-27.274439" lon="151.290064">
  <ele>343.1</ele>
  <time>2026-09-01T19:51:31Z</time>
  <course>270.0</course>
  <speed>0.0</speed>
  <fix>3d</fix>
</trkpt>
<trkpt lat="-27.2744392" lon="151.2900641">
  <ele>343.07</ele>
  <time>2026-09-01T19:51:31Z</time>
  <course>10.86</course>
  <speed>0.022360679774997897</speed>
  <fix>3d</fix>
</trkpt>
<trkpt lat="-27.274439" lon="151.290064">
  <ele>343.1</ele>
  <time>2026-09-01T19:51:31Z</time>
  <course>270.0</course>
  <speed>0.0</speed>
  <fix>3d</fix>
</trkpt>
<trkpt lat="-27.2744392" lon="151.2900641">
  <ele>343.07</ele>
  <time>2026-09-01T19:51:31Z</time>
  <course>10.86</course>
  <speed>0.022360679774997897</speed>
  <fix>3d</fix>
</trkpt>
<trkpt lat="-27.274439" lon="151.290064">
  <ele>343.1</ele>
  <time>2026-09-01T19:51:31Z</time>
  <course>270.0</course>
  <speed>0.0</speed>
  <fix>3d</fix>
</trkpt>
<trkpt lat="-27.2744392" lon="151.2900641">
  <ele>343.07</ele>
  <time>2026-09-01T19:51:31Z</time>
  <course>10.86</course>
  <speed>0.022360679774997897</speed>
  <fix>3d</fix>
</trkpt>
<trkpt lat="-27.274439" lon="151.290064">
  <ele>343.1</ele>
  <time>2026-09-01T19:51:31Z</time>
  <course>270.0</course>
  <speed>0.0</speed>
  <fix>3d</fix>
</trkpt>
<trkpt lat="-27.2744392" lon="151.2900641">
  <ele>343.07</ele>
  <time>2026-09-01T19:51:31Z</time>
  <course>10.87</course>
  <speed>0.022360679774997897</speed>
  <fix>3d</fix>
</trkpt>
<trkpt lat="-27.274439" lon="151.290064">
  <ele>343.1</ele>
  <time>2026-09-01T19:51:31Z</time>
  <course>270.0</course>
  <speed>0.0</speed>
  <fix>3d</fix>
</trkpt>
<trkpt lat="-27.2744392" lon="151.2900641">
  <ele>343.07</ele>
  <time>2026-09-01T19:51:31Z</time>
  <course>10.87</course>
  <speed>0.022360679774997897</speed>
  <fix>3d</fix>
</trkpt>
<trkpt lat="-27.274439" lon="151.290064">
  <ele>343.1</ele>
  <time>2026-09-01T19:51:31Z</time>
  <course>270.0</course>
  <speed>0.0</speed>
  <fix>3d</fix>
</trkpt>
<trkpt lat="-27.2744392" lon="151.2900641">
  <ele>343.07</ele>
  <time>2026-09-01T19:51:31Z</time>
  <course>10.87</course>
  <speed>0.022360679774997897</speed>
  <fix>3d</fix>
</trkpt>
<trkpt lat="-27.274439" lon="151.290064">
  <ele>343.1</ele>
  <time>2026-09-01T19:51:31Z</time>
  <course>270.0</course>
  <speed>0.0</speed>
  <fix>3d</fix>
</trkpt>
<trkpt lat="-27.2744392" lon="151.2900641">
  <ele>343.08</ele>
  <time>2026-09-01T19:51:31Z</time>
  <course>10.87</course>
  <speed>0.022360679774997897</speed>
  <fix>3d</fix>
</trkpt>
<trkpt lat="-27.274439" lon="151.290064">
  <ele>343.1</ele>
  <time>2026-09-01T19:51:31Z</time>
  <course>270.0</course>
  <speed>0.0</speed>
  <fix>3d</fix>
</trkpt>
<trkpt lat="-27.2744392" lon="151.2900641">
  <ele>343.08</ele>
  <time>2026-09-01T19:51:31Z</time>
  <course>10.87</course>
  <speed>0.022360679774997897</speed>
  <fix>3d</fix>
</trkpt>
<trkpt lat="-27.274439" lon="151.290064">
  <ele>343.1</ele>
  <time>2026-09-01T19:51:31Z</time>
  <course>270.0</course>
  <speed>0.0</speed>
  <fix>3d</fix>
</trkpt>
<trkpt lat="-27.2744392" lon="151.2900641">
  <ele>343.08</ele>
  <time>2026-09-01T19:51:31Z</time>
  <course>10.87</course>
  <speed>0.022360679774997897</speed>
  <fix>3d</fix>
</trkpt>
<trkpt lat="-27.274439" lon="151.290064">
  <ele>343.1</ele>
  <time>2026-09-01T19:51:31Z</time>
  <course>270.0</course>
  <speed>0.0</speed>
  <fix>3d</fix>
</trkpt>
<trkpt lat="-27.2744392" lon="151.2900641">
  <ele>343.08</ele>
  <time>2026-09-01T19:51:31Z</time>
  <course>10.87</course>
  <speed>0.022360679774997897</speed>
  <fix>3d</fix>
</trkpt>
<trkpt lat="-27.274439" lon="151.290064">
  <ele>343.1</ele>
  <time>2026-09-01T19:51:31Z</time>
  <course>270.0</course>
  <speed>0.0</speed>
  <fix>3d</fix>
</trkpt>
<trkpt lat="-27.2744392" lon="151.2900641">
  <ele>343.08</ele>
  <time>2026-09-01T19:51:31Z</time>
  <course>10.87</course>
  <speed>0.022360679774997897</speed>
  <fix>3d</fix>
</trkpt>
<trkpt lat="-27.274439" lon="151.290064">
  <ele>343.1</ele>
  <time>2026-09-01T19:51:31Z</time>
  <course>270.0</course>
  <speed>0.0</speed>
  <fix>3d</fix>
</trkpt>
<trkpt lat="-27.2744392" lon="151.2900641">
  <ele>343.08</ele>
  <time>2026-09-01T19:51:31Z</time>
  <course>10.87</course>
  <speed>0.022360679774997897</speed>
  <fix>3d</fix>
</trkpt>
<trkpt lat="-27.274439" lon="151.290064">
  <ele>343.1</ele>
  <time>2026-09-01T19:51:31Z</time>
  <course>270.0</course>
  <speed>0.0</speed>
  <fix>3d</fix>
</trkpt>
<trkpt lat="-27.2744392" lon="151.2900641">
  <ele>343.08</ele>
  <time>2026-09-01T19:51:31Z</time>
  <course>10.87</course>
  <speed>0.022360679774997897</speed>
  <fix>3d</fix>
</trkpt>
<trkpt lat="-27.274439" lon="151.290064">
  <ele>343.1</ele>
  <time>2026-09-01T19:51:31Z</time>
  <course>270.0</course>
  <speed>0.0</speed>
  <fix>3d</fix>
</trkpt>
<trkpt lat="-27.2744392" lon="151.2900641">
  <ele>343.07</ele>
  <time>2026-09-01T19:51:31Z</time>
  <course>10.87</course>
  <speed>0.022360679774997897</speed>
  <fix>3d</fix>
</trkpt>
<trkpt lat="-27.274439" lon="151.290064">
  <ele>343.1</ele>
  <time>2026-09-01T19:51:31Z</time>
  <course>270.0</course>
  <speed>0.0</speed>
  <fix>3d</fix>
</trkpt>
<trkpt lat="-27.2744392" lon="151.2900641">
  <ele>343.07</ele>
  <time>2026-09-01T19:51:31Z</time>
  <course>10.87</course>
  <speed>0.022360679774997897</speed>
  <fix>3d</fix>
</trkpt>
<trkpt lat="-27.274439" lon="151.290064">
  <ele>343.1</ele>
  <time>2026-09-01T19:51:31Z</time>
  <course>270.0</course>
  <speed>0.0</speed>
  <fix>3d</fix>
</trkpt>
<trkpt lat="-27.2744392" lon="151.2900641">
  <ele>343.1</ele>
  <time>2026-09-01T19:51:31Z</time>
  <course>10.88</course>
  <speed>0.022360679774997897</speed>
  <fix>3d</fix>
</trkpt>
<trkpt lat="-27.274439" lon="151.290064">
  <ele>343.1</ele>
  <time>2026-09-01T19:51:31Z</time>
  <course>270.0</course>
  <speed>0.0</speed>
  <fix>3d</fix>
</trkpt>
<trkpt lat="-27.2744392" lon="151.2900641">
  <ele>343.1</ele>
  <time>2026-09-01T19:51:31Z</time>
  <course>10.88</course>
  <speed>0.022360679774997897</speed>
  <fix>3d</fix>
</trkpt>
<trkpt lat="-27.274439" lon="151.290064">
  <ele>343.1</ele>
  <time>2026-09-01T19:51:31Z</time>
  <course>270.0</course>
  <speed>0.0</speed>
  <fix>3d</fix>
</trkpt>
<trkpt lat="-27.2744392" lon="151.2900641">
  <ele>343.09</ele>
  <time>2026-09-01T19:51:31Z</time>
  <course>10.88</course>
  <speed>0.022360679774997897</speed>
  <fix>3d</fix>
</trkpt>
<trkpt lat="-27.274439" lon="151.290064">
  <ele>343.1</ele>
  <time>2026-09-01T19:51:31Z</time>
  <course>270.0</course>
  <speed>0.0</speed>
  <fix>3d</fix>
</trkpt>
<trkpt lat="-27.2744392" lon="151.2900641">
  <ele>343.09</ele>
  <time>2026-09-01T19:51:31Z</time>
  <course>10.88</course>
  <speed>0.022360679774997897</speed>
  <fix>3d</fix>
</trkpt>
<trkpt lat="-27.274439" lon="151.290064">
  <ele>343.1</ele>
  <time>2026-09-01T19:51:31Z</time>
  <course>270.0</course>
  <speed>0.0</speed>
  <fix>3d</fix>
</trkpt>
<trkpt lat="-27.2744392" lon="151.2900641">
  <ele>343.09</ele>
  <time>2026-09-01T19:51:31Z</time>
  <course>10.88</course>
  <speed>0.022360679774997897</speed>
  <fix>3d</fix>
</trkpt>
<trkpt lat="-27.274439" lon="151.290064">
  <ele>343.1</ele>
  <time>2026-09-01T19:51:31Z</time>
  <course>270.0</course>
  <speed>0.0</speed>
  <fix>3d</fix>
</trkpt>
<trkpt lat="-27.2744392" lon="151.2900641">
  <ele>343.09</ele>
  <time>2026-09-01T19:51:31Z</time>
  <course>10.88</course>
  <speed>0.022360679774997897</speed>
  <fix>3d</fix>
</trkpt>
<trkpt lat="-27.274439" lon="151.290064">
  <ele>343.1</ele>
  <time>2026-09-01T19:51:31Z</time>
  <course>270.0</course>
  <speed>0.0</speed>
  <fix>3d</fix>
</trkpt>
<trkpt lat="-27.2744392" lon="151.2900641">
  <ele>343.09</ele>
  <time>2026-09-01T19:51:31Z</time>
  <course>10.88</course>
  <speed>0.022360679774997897</speed>
  <fix>3d</fix>
</trkpt>
<trkpt lat="-27.274439" lon="151.290064">
  <ele>343.1</ele>
  <time>2026-09-01T19:51:31Z</time>
  <course>270.0</course>
  <speed>0.0</speed>
  <fix>3d</fix>
</trkpt>
<trkpt lat="-27.2744392" lon="151.2900641">
  <ele>343.09</ele>
  <time>2026-09-01T19:51:31Z</time>
  <course>10.88</course>
  <speed>0.022360679774997897</speed>
  <fix>3d</fix>
</trkpt>
<trkpt lat="-27.274439" lon="151.290064">
  <ele>343.1</ele>
  <time>2026-09-01T19:51:31Z</time>
  <course>270.0</course>
  <speed>0.0</speed>
  <fix>3d</fix>
</trkpt>
<trkpt lat="-27.2744392" lon="151.2900641">
  <ele>343.09</ele>
  <time>2026-09-01T19:51:31Z</time>
  <course>10.88</course>
  <speed>0.022360679774997897</speed>
  <fix>3d</fix>
</trkpt>
<trkpt lat="-27.274439" lon="151.290064">
  <ele>343.1</ele>
  <time>2026-09-01T19:51:31Z</time>
  <course>270.0</course>
  <speed>0.0</speed>
  <fix>3d</fix>
</trkpt>
<trkpt lat="-27.2744392" lon="151.2900641">
  <ele>343.09</ele>
  <time>2026-09-01T19:51:31Z</time>
  <course>10.88</course>
  <speed>0.022360679774997897</speed>
  <fix>3d</fix>
</trkpt>
<trkpt lat="-27.274439" lon="151.290064">
  <ele>343.1</ele>
  <time>2026-09-01T19:51:31Z</time>
  <course>270.0</course>
  <speed>0.0</speed>
  <fix>3d</fix>
</trkpt>
<trkpt lat="-27.2744392" lon="151.2900641">
  <ele>343.08</ele>
  <time>2026-09-01T19:51:31Z</time>
  <course>10.88</course>
  <speed>0.022360679774997897</speed>
  <fix>3d</fix>
</trkpt>
<trkpt lat="-27.274439" lon="151.290064">
  <ele>343.1</ele>
  <time>2026-09-01T19:51:31Z</time>
  <course>270.0</course>
  <speed>0.0</speed>
  <fix>3d</fix>
</trkpt>
<trkpt lat="-27.2744392" lon="151.2900641">
  <ele>343.08</ele>
  <time>2026-09-01T19:51:31Z</time>
  <course>10.89</course>
  <speed>0.022360679774997897</speed>
  <fix>3d</fix>
</trkpt>
<trkpt lat="-27.274439" lon="151.290064">
  <ele>343.1</ele>
  <time>2026-09-01T19:51:31Z</time>
  <course>270.0</course>
  <speed>0.0</speed>
  <fix>3d</fix>
</trkpt>
<trkpt lat="-27.2744392" lon="151.2900641">
  <ele>343.08</ele>
  <time>2026-09-01T19:51:31Z</time>
  <course>10.89</course>
  <speed>0.022360679774997897</speed>
  <fix>3d</fix>
</trkpt>
<trkpt lat="-27.274439" lon="151.290064">
  <ele>343.1</ele>
  <time>2026-09-01T19:51:31Z</time>
  <course>270.0</course>
  <speed>0.0</speed>
  <fix>3d</fix>
</trkpt>
<trkpt lat="-27.2744392" lon="151.2900641">
  <ele>343.08</ele>
  <time>2026-09-01T19:51:31Z</time>
  <course>10.89</course>
  <speed>0.022360679774997897</speed>
  <fix>3d</fix>
</trkpt>
<trkpt lat="-27.274439" lon="151.290064">
  <ele>343.1</ele>
  <time>2026-09-01T19:51:31Z</time>
  <course>270.0</course>
  <speed>0.0</speed>
  <fix>3d</fix>
</trkpt>
<trkpt lat="-27.2744392" lon="151.2900641">
  <ele>343.08</ele>
  <time>2026-09-01T19:51:31Z</time>
  <course>10.89</course>
  <speed>0.022360679774997897</speed>
  <fix>3d</fix>
</trkpt>
<trkpt lat="-27.274439" lon="151.290064">
  <ele>343.1</ele>
  <time>2026-09-01T19:51:31Z</time>
  <course>270.0</course>
  <speed>0.0</speed>
  <fix>3d</fix>
</trkpt>
<trkpt lat="-27.2744392" lon="151.2900641">
  <ele>343.08</ele>
  <time>2026-09-01T19:51:31Z</time>
  <course>10.89</course>
  <speed>0.022360679774997897</speed>
  <fix>3d</fix>
</trkpt>
<trkpt lat="-27.274439" lon="151.290064">
  <ele>343.1</ele>
  <time>2026-09-01T19:51:31Z</time>
  <course>270.0</course>
  <speed>0.0</speed>
  <fix>3d</fix>
</trkpt>
<trkpt lat="-27.2744392" lon="151.2900641">
  <ele>343.07</ele>
  <time>2026-09-01T19:51:31Z</time>
  <course>10.89</course>
  <speed>0.022360679774997897</speed>
  <fix>3d</fix>
</trkpt>
<trkpt lat="-27.274439" lon="151.290064">
  <ele>343.1</ele>
  <time>2026-09-01T19:51:31Z</time>
  <course>270.0</course>
  <speed>0.0</speed>
  <fix>3d</fix>
</trkpt>
<trkpt lat="-27.2744392" lon="151.2900641">
  <ele>343.07</ele>
  <time>2026-09-01T19:51:31Z</time>
  <course>10.89</course>
  <speed>0.022360679774997897</speed>
  <fix>3d</fix>
</trkpt>
<trkpt lat="-27.274439" lon="151.290064">
  <ele>343.1</ele>
  <time>2026-09-01T19:51:31Z</time>
  <course>270.0</course>
  <speed>0.0</speed>
  <fix>3d</fix>
</trkpt>
<trkpt lat="-27.2744392" lon="151.2900641">
  <ele>343.07</ele>
  <time>2026-09-01T19:51:31Z</time>
  <course>10.89</course>
  <speed>0.022360679774997897</speed>
  <fix>3d</fix>
</trkpt>
<trkpt lat="-27.274439" lon="151.290064">
  <ele>343.1</ele>
  <time>2026-09-01T19:51:31Z</time>
  <course>270.0</course>
  <speed>0.0</speed>
  <fix>3d</fix>
</trkpt>
<trkpt lat="-27.2744392" lon="151.2900641">
  <ele>343.07</ele>
  <time>2026-09-01T19:51:31Z</time>
  <course>10.89</course>
  <speed>0.022360679774997897</speed>
  <fix>3d</fix>
</trkpt>
<trkpt lat="-27.274439" lon="151.290064">
  <ele>343.1</ele>
  <time>2026-09-01T19:51:31Z</time>
  <course>270.0</course>
  <speed>0.0</speed>
  <fix>3d</fix>
</trkpt>
<trkpt lat="-27.2744392" lon="151.2900641">
  <ele>343.07</ele>
  <time>2026-09-01T19:51:31Z</time>
  <course>10.89</course>
  <speed>0.022360679774997897</speed>
  <fix>3d</fix>
</trkpt>
<trkpt lat="-27.274439" lon="151.290064">
  <ele>343.1</ele>
  <time>2026-09-01T19:51:31Z</time>
  <course>270.0</course>
  <speed>0.0</speed>
  <fix>3d</fix>
</trkpt>
<trkpt lat="-27.2744392" lon="151.2900641">
  <ele>343.07</ele>
  <time>2026-09-01T19:51:31Z</time>
  <course>10.89</course>
  <speed>0.022360679774997897</speed>
  <fix>3d</fix>
</trkpt>
<trkpt lat="-27.274439" lon="151.290064">
  <ele>343.1</ele>
  <time>2026-09-01T19:51:31Z</time>
  <course>270.0</course>
  <speed>0.0</speed>
  <fix>3d</fix>
</trkpt>
<trkpt lat="-27.2744392" lon="151.2900641">
  <ele>343.07</ele>
  <time>2026-09-01T19:51:31Z</time>
  <course>10.9</course>
  <speed>0.022360679774997897</speed>
  <fix>3d</fix>
</trkpt>
<trkpt lat="-27.274439" lon="151.290064">
  <ele>343.1</ele>
  <time>2026-09-01T19:51:31Z</time>
  <course>270.0</course>
  <speed>0.0</speed>
  <fix>3d</fix>
</trkpt>
<trkpt lat="-27.2744392" lon="151.2900641">
  <ele>343.07</ele>
  <time>2026-09-01T19:51:31Z</time>
  <course>10.9</course>
  <speed>0.022360679774997897</speed>
  <fix>3d</fix>
</trkpt>
<trkpt lat="-27.274439" lon="151.290064">
  <ele>343.1</ele>
  <time>2026-09-01T19:51:31Z</time>
  <course>270.0</course>
  <speed>0.0</speed>
  <fix>3d</fix>
</trkpt>
<trkpt lat="-27.2744392" lon="151.2900641">
  <ele>343.07</ele>
  <time>2026-09-01T19:51:31Z</time>
  <course>10.9</course>
  <speed>0.022360679774997897</speed>
  <fix>3d</fix>
</trkpt>
<trkpt lat="-27.274439" lon="151.290064">
  <ele>343.1</ele>
  <time>2026-09-01T19:51:31Z</time>
  <course>270.0</course>
  <speed>0.0</speed>
  <fix>3d</fix>
</trkpt>
<trkpt lat="-27.2744392" lon="151.2900641">
  <ele>343.07</ele>
  <time>2026-09-01T19:51:31Z</time>
  <course>10.9</course>
  <speed>0.022360679774997897</speed>
  <fix>3d</fix>
</trkpt>
<trkpt lat="-27.274439" lon="151.290064">
  <ele>343.1</ele>
  <time>2026-09-01T19:51:31Z</time>
  <course>270.0</course>
  <speed>0.0</speed>
  <fix>3d</fix>
</trkpt>
<trkpt lat="-27.2744392" lon="151.2900641">
  <ele>343.06</ele>
  <time>2026-09-01T19:51:31Z</time>
  <course>10.9</course>
  <speed>0.022360679774997897</speed>
  <fix>3d</fix>
</trkpt>
<trkpt lat="-27.274439" lon="151.290064">
  <ele>343.1</ele>
  <time>2026-09-01T19:51:31Z</time>
  <course>270.0</course>
  <speed>0.0</speed>
  <fix>3d</fix>
</trkpt>
<trkpt lat="-27.2744392" lon="151.2900641">
  <ele>343.06</ele>
  <time>2026-09-01T19:51:31Z</time>
  <course>10.9</course>
  <speed>0.022360679774997897</speed>
  <fix>3d</fix>
</trkpt>
<trkpt lat="-27.274439" lon="151.290064">
  <ele>343.1</ele>
  <time>2026-09-01T19:51:31Z</time>
  <course>270.0</course>
  <speed>0.0</speed>
  <fix>3d</fix>
</trkpt>
<trkpt lat="-27.2744392" lon="151.2900641">
  <ele>343.06</ele>
  <time>2026-09-01T19:51:31Z</time>
  <course>10.9</course>
  <speed>0.022360679774997897</speed>
  <fix>3d</fix>
</trkpt>
<trkpt lat="-27.274439" lon="151.290064">
  <ele>343.1</ele>
  <time>2026-09-01T19:51:31Z</time>
  <course>270.0</course>
  <speed>0.0</speed>
  <fix>3d</fix>
</trkpt>
<trkpt lat="-27.2744392" lon="151.2900641">
  <ele>343.06</ele>
  <time>2026-09-01T19:51:31Z</time>
  <course>10.9</course>
  <speed>0.022360679774997897</speed>
  <fix>3d</fix>
</trkpt>
<trkpt lat="-27.274439" lon="151.290064">
  <ele>343.1</ele>
  <time>2026-09-01T19:51:31Z</time>
  <course>270.0</course>
  <speed>0.0</speed>
  <fix>3d</fix>
</trkpt>
<trkpt lat="-27.2744392" lon="151.2900641">
  <ele>343.06</ele>
  <time>2026-09-01T19:51:31Z</time>
  <course>10.9</course>
  <speed>0.022360679774997897</speed>
  <fix>3d</fix>
</trkpt>
<trkpt lat="-27.274439" lon="151.290064">
  <ele>343.1</ele>
  <time>2026-09-01T19:51:31Z</time>
  <course>270.0</course>
  <speed>0.0</speed>
  <fix>3d</fix>
</trkpt>
<trkpt lat="-27.2744392" lon="151.2900641">
  <ele>343.06</ele>
  <time>2026-09-01T19:51:31Z</time>
  <course>10.9</course>
  <speed>0.022360679774997897</speed>
  <fix>3d</fix>
</trkpt>
<trkpt lat="-27.274439" lon="151.290064">
  <ele>343.1</ele>
  <time>2026-09-01T19:51:31Z</time>
  <course>270.0</course>
  <speed>0.0</speed>
  <fix>3d</fix>
</trkpt>
<trkpt lat="-27.2744392" lon="151.2900641">
  <ele>343.06</ele>
  <time>2026-09-01T19:51:31Z</time>
  <course>10.9</course>
  <speed>0.022360679774997897</speed>
  <fix>3d</fix>
</trkpt>
<trkpt lat="-27.274439" lon="151.290064">
  <ele>343.1</ele>
  <time>2026-09-01T19:51:31Z</time>
  <course>270.0</course>
  <speed>0.0</speed>
  <fix>3d</fix>
</trkpt>
<trkpt lat="-27.2744392" lon="151.2900641">
  <ele>343.05</ele>
  <time>2026-09-01T19:51:31Z</time>
  <course>10.91</course>
  <speed>0.022360679774997897</speed>
  <fix>3d</fix>
</trkpt>
<trkpt lat="-27.274439" lon="151.290064">
  <ele>343.1</ele>
  <time>2026-09-01T19:51:31Z</time>
  <course>270.0</course>
  <speed>0.0</speed>
  <fix>3d</fix>
</trkpt>
<trkpt lat="-27.2744392" lon="151.2900641">
  <ele>343.05</ele>
  <time>2026-09-01T19:51:31Z</time>
  <course>10.91</course>
  <speed>0.022360679774997897</speed>
  <fix>3d</fix>
</trkpt>
<trkpt lat="-27.274439" lon="151.290064">
  <ele>343.1</ele>
  <time>2026-09-01T19:51:31Z</time>
  <course>270.0</course>
  <speed>0.0</speed>
  <fix>3d</fix>
</trkpt>
<trkpt lat="-27.2744392" lon="151.2900641">
  <ele>343.05</ele>
  <time>2026-09-01T19:51:31Z</time>
  <course>10.91</course>
  <speed>0.022360679774997897</speed>
  <fix>3d</fix>
</trkpt>
<trkpt lat="-27.274439" lon="151.290064">
  <ele>343.1</ele>
  <time>2026-09-01T19:51:31Z</time>
  <course>270.0</course>
  <speed>0.0</speed>
  <fix>3d</fix>
</trkpt>
<trkpt lat="-27.2744392" lon="151.2900641">
  <ele>343.05</ele>
  <time>2026-09-01T19:51:31Z</time>
  <course>10.91</course>
  <speed>0.022360679774997897</speed>
  <fix>3d</fix>
</trkpt>
<trkpt lat="-27.274439" lon="151.290064">
  <ele>343.1</ele>
  <time>2026-09-01T19:51:31Z</time>
  <course>270.0</course>
  <speed>0.0</speed>
  <fix>3d</fix>
</trkpt>
<trkpt lat="-27.2744392" lon="151.2900641">
  <ele>343.05</ele>
  <time>2026-09-01T19:51:31Z</time>
  <course>10.91</course>
  <speed>0.022360679774997897</speed>
  <fix>3d</fix>
</trkpt>
<trkpt lat="-27.274439" lon="151.290064">
  <ele>343.1</ele>
  <time>2026-09-01T19:51:31Z</time>
  <course>270.0</course>
  <speed>0.0</speed>
  <fix>3d</fix>
</trkpt>
<trkpt lat="-27.2744392" lon="151.2900641">
  <ele>343.05</ele>
  <time>2026-09-01T19:51:31Z</time>
  <course>10.91</course>
  <speed>0.022360679774997897</speed>
  <fix>3d</fix>
</trkpt>
<trkpt lat="-27.274439" lon="151.290064">
  <ele>343.1</ele>
  <time>2026-09-01T19:51:31Z</time>
  <course>270.0</course>
  <speed>0.0</speed>
  <fix>3d</fix>
</trkpt>
<trkpt lat="-27.2744392" lon="151.2900641">
  <ele>343.05</ele>
  <time>2026-09-01T19:51:31Z</time>
  <course>10.91</course>
  <speed>0.022360679774997897</speed>
  <fix>3d</fix>
</trkpt>
<trkpt lat="-27.274439" lon="151.290064">
  <ele>343.1</ele>
  <time>2026-09-01T19:51:31Z</time>
  <course>270.0</course>
  <speed>0.0</speed>
  <fix>3d</fix>
</trkpt>
<trkpt lat="-27.2744392" lon="151.2900641">
  <ele>343.05</ele>
  <time>2026-09-01T19:51:31Z</time>
  <course>10.91</course>
  <speed>0.022360679774997897</speed>
  <fix>3d</fix>
</trkpt>
<trkpt lat="-27.274439" lon="151.290064">
  <ele>343.1</ele>
  <time>2026-09-01T19:51:31Z</time>
  <course>270.0</course>
  <speed>0.0</speed>
  <fix>3d</fix>
</trkpt>
<trkpt lat="-27.2744392" lon="151.2900641">
  <ele>343.04</ele>
  <time>2026-09-01T19:51:31Z</time>
  <course>10.91</course>
  <speed>0.022360679774997897</speed>
  <fix>3d</fix>
</trkpt>
<trkpt lat="-27.274439" lon="151.290064">
  <ele>343.1</ele>
  <time>2026-09-01T19:51:31Z</time>
  <course>270.0</course>
  <speed>0.0</speed>
  <fix>3d</fix>
</trkpt>
<trkpt lat="-27.2744392" lon="151.2900641">
  <ele>343.04</ele>
  <time>2026-09-01T19:51:31Z</time>
  <course>10.91</course>
  <speed>0.022360679774997897</speed>
  <fix>3d</fix>
</trkpt>
<trkpt lat="-27.274439" lon="151.290064">
  <ele>343.1</ele>
  <time>2026-09-01T19:51:31Z</time>
  <course>270.0</course>
  <speed>0.0</speed>
  <fix>3d</fix>
</trkpt>
<trkpt lat="-27.2744392" lon="151.2900641">
  <ele>343.04</ele>
  <time>2026-09-01T19:51:31Z</time>
  <course>10.92</course>
  <speed>0.022360679774997897</speed>
  <fix>3d</fix>
</trkpt>
<trkpt lat="-27.274439" lon="151.290064">
  <ele>343.1</ele>
  <time>2026-09-01T19:51:31Z</time>
  <course>270.0</course>
  <speed>0.0</speed>
  <fix>3d</fix>
</trkpt>
<trkpt lat="-27.2744392" lon="151.2900641">
  <ele>343.04</ele>
  <time>2026-09-01T19:51:31Z</time>
  <course>10.92</course>
  <speed>0.022360679774997897</speed>
  <fix>3d</fix>
</trkpt>
<trkpt lat="-27.274439" lon="151.290064">
  <ele>343.1</ele>
  <time>2026-09-01T19:51:31Z</time>
  <course>270.0</course>
  <speed>0.0</speed>
  <fix>3d</fix>
</trkpt>
<trkpt lat="-27.2744392" lon="151.2900641">
  <ele>343.04</ele>
  <time>2026-09-01T19:51:31Z</time>
  <course>10.92</course>
  <speed>0.022360679774997897</speed>
  <fix>3d</fix>
</trkpt>
<trkpt lat="-27.274439" lon="151.290064">
  <ele>343.1</ele>
  <time>2026-09-01T19:51:31Z</time>
  <course>270.0</course>
  <speed>0.0</speed>
  <fix>3d</fix>
</trkpt>
<trkpt lat="-27.2744392" lon="151.2900641">
  <ele>343.04</ele>
  <time>2026-09-01T19:51:31Z</time>
  <course>10.92</course>
  <speed>0.022360679774997897</speed>
  <fix>3d</fix>
</trkpt>
<trkpt lat="-27.274439" lon="151.290064">
  <ele>343.1</ele>
  <time>2026-09-01T19:51:31Z</time>
  <course>270.0</course>
  <speed>0.0</speed>
  <fix>3d</fix>
</trkpt>
<trkpt lat="-27.2744392" lon="151.2900641">
  <ele>343.04</ele>
  <time>2026-09-01T19:51:31Z</time>
  <course>10.92</course>
  <speed>0.022360679774997897</speed>
  <fix>3d</fix>
</trkpt>
<trkpt lat="-27.274439" lon="151.290064">
  <ele>343.1</ele>
  <time>2026-09-01T19:51:31Z</time>
  <course>270.0</course>
  <speed>0.0</speed>
  <fix>3d</fix>
</trkpt>
<trkpt lat="-27.2744392" lon="151.2900641">
  <ele>343.04</ele>
  <time>2026-09-01T19:51:31Z</time>
  <course>10.92</course>
  <speed>0.022360679774997897</speed>
  <fix>3d</fix>
</trkpt>
<trkpt lat="-27.274439" lon="151.290064">
  <ele>343.1</ele>
  <time>2026-09-01T19:51:31Z</time>
  <course>270.0</course>
  <speed>0.0</speed>
  <fix>3d</fix>
</trkpt>
<trkpt lat="-27.2744392" lon="151.2900641">
  <ele>343.04</ele>
  <time>2026-09-01T19:51:31Z</time>
  <course>10.92</course>
  <speed>0.022360679774997897</speed>
  <fix>3d</fix>
</trkpt>
<trkpt lat="-27.274439" lon="151.290064">
  <ele>343.1</ele>
  <time>2026-09-01T19:51:31Z</time>
  <course>270.0</course>
  <speed>0.0</speed>
  <fix>3d</fix>
</trkpt>
<trkpt lat="-27.2744392" lon="151.2900641">
  <ele>343.04</ele>
  <time>2026-09-01T19:51:31Z</time>
  <course>10.92</course>
  <speed>0.022360679774997897</speed>
  <fix>3d</fix>
</trkpt>
<trkpt lat="-27.274439" lon="151.290064">
  <ele>343.1</ele>
  <time>2026-09-01T19:51:31Z</time>
  <course>270.0</course>
  <speed>0.0</speed>
  <fix>3d</fix>
</trkpt>
<trkpt lat="-27.2744392" lon="151.2900641">
  <ele>343.04</ele>
  <time>2026-09-01T19:51:31Z</time>
  <course>10.92</course>
  <speed>0.022360679774997897</speed>
  <fix>3d</fix>
</trkpt>
<trkpt lat="-27.274439" lon="151.290064">
  <ele>343.1</ele>
  <time>2026-09-01T19:51:31Z</time>
  <course>270.0</course>
  <speed>0.0</speed>
  <fix>3d</fix>
</trkpt>
<trkpt lat="-27.2744392" lon="151.2900641">
  <ele>343.04</ele>
  <time>2026-09-01T19:51:31Z</time>
  <course>10.92</course>
  <speed>0.022360679774997897</speed>
  <fix>3d</fix>
</trkpt>
<trkpt lat="-27.274439" lon="151.290064">
  <ele>343.1</ele>
  <time>2026-09-01T19:51:31Z</time>
  <course>270.0</course>
  <speed>0.0</speed>
  <fix>3d</fix>
</trkpt>
<trkpt lat="-27.2744392" lon="151.2900641">
  <ele>343.04</ele>
  <time>2026-09-01T19:51:31Z</time>
  <course>10.93</course>
  <speed>0.022360679774997897</speed>
  <fix>3d</fix>
</trkpt>
<trkpt lat="-27.274439" lon="151.290064">
  <ele>343.1</ele>
  <time>2026-09-01T19:51:31Z</time>
  <course>270.0</course>
  <speed>0.0</speed>
  <fix>3d</fix>
</trkpt>
<trkpt lat="-27.2744392" lon="151.2900641">
  <ele>343.04</ele>
  <time>2026-09-01T19:51:31Z</time>
  <course>10.93</course>
  <speed>0.022360679774997897</speed>
  <fix>3d</fix>
</trkpt>
<trkpt lat="-27.274439" lon="151.290064">
  <ele>343.1</ele>
  <time>2026-09-01T19:51:31Z</time>
  <course>270.0</course>
  <speed>0.0</speed>
  <fix>3d</fix>
</trkpt>
<trkpt lat="-27.2744392" lon="151.2900641">
  <ele>343.04</ele>
  <time>2026-09-01T19:51:31Z</time>
  <course>10.93</course>
  <speed>0.022360679774997897</speed>
  <fix>3d</fix>
</trkpt>
<trkpt lat="-27.274439" lon="151.290064">
  <ele>343.1</ele>
  <time>2026-09-01T19:51:31Z</time>
  <course>270.0</course>
  <speed>0.0</speed>
  <fix>3d</fix>
</trkpt>
<trkpt lat="-27.2744392" lon="151.2900641">
  <ele>343.04</ele>
  <time>2026-09-01T19:51:31Z</time>
  <course>10.93</course>
  <speed>0.022360679774997897</speed>
  <fix>3d</fix>
</trkpt>
<trkpt lat="-27.274439" lon="151.290064">
  <ele>343.1</ele>
  <time>2026-09-01T19:51:31Z</time>
  <course>270.0</course>
  <speed>0.0</speed>
  <fix>3d</fix>
</trkpt>
<trkpt lat="-27.2744392" lon="151.2900641">
  <ele>343.04</ele>
  <time>2026-09-01T19:51:31Z</time>
  <course>10.93</course>
  <speed>0.022360679774997897</speed>
  <fix>3d</fix>
</trkpt>
<trkpt lat="-27.274439" lon="151.290064">
  <ele>343.1</ele>
  <time>2026-09-01T19:51:31Z</time>
  <course>270.0</course>
  <speed>0.0</speed>
  <fix>3d</fix>
</trkpt>
<trkpt lat="-27.2744392" lon="151.2900641">
  <ele>343.04</ele>
  <time>2026-09-01T19:51:31Z</time>
  <course>10.93</course>
  <speed>0.022360679774997897</speed>
  <fix>3d</fix>
</trkpt>
<trkpt lat="-27.274439" lon="151.290064">
  <ele>343.1</ele>
  <time>2026-09-01T19:51:31Z</time>
  <course>270.0</course>
  <speed>0.0</speed>
  <fix>3d</fix>
</trkpt>
<trkpt lat="-27.2744392" lon="151.2900641">
  <ele>343.04</ele>
  <time>2026-09-01T19:51:31Z</time>
  <course>10.93</course>
  <speed>0.022360679774997897</speed>
  <fix>3d</fix>
</trkpt>
<trkpt lat="-27.274439" lon="151.290064">
  <ele>343.1</ele>
  <time>2026-09-01T19:51:31Z</time>
  <course>270.0</course>
  <speed>0.0</speed>
  <fix>3d</fix>
</trkpt>
<trkpt lat="-27.2744392" lon="151.2900641">
  <ele>343.1</ele>
  <time>2026-09-01T19:51:31Z</time>
  <course>10.93</course>
  <speed>0.022360679774997897</speed>
  <fix>3d</fix>
</trkpt>
<trkpt lat="-27.274439" lon="151.290064">
  <ele>343.1</ele>
  <time>2026-09-01T19:51:31Z</time>
  <course>270.0</course>
  <speed>0.0</speed>
  <fix>3d</fix>
</trkpt>
<trkpt lat="-27.2744392" lon="151.2900641">
  <ele>343.1</ele>
  <time>2026-09-01T19:51:31Z</time>
  <course>10.93</course>
  <speed>0.022360679774997897</speed>
  <fix>3d</fix>
</trkpt>
<trkpt lat="-27.274439" lon="151.290064">
  <ele>343.1</ele>
  <time>2026-09-01T19:51:31Z</time>
  <course>270.0</course>
  <speed>0.0</speed>
  <fix>3d</fix>
</trkpt>
<trkpt lat="-27.2744392" lon="151.2900641">
  <ele>343.09</ele>
  <time>2026-09-01T19:51:31Z</time>
  <course>10.93</course>
  <speed>0.022360679774997897</speed>
  <fix>3d</fix>
</trkpt>
<trkpt lat="-27.274439" lon="151.290064">
  <ele>343.1</ele>
  <time>2026-09-01T19:51:31Z</time>
  <course>270.0</course>
  <speed>0.0</speed>
  <fix>3d</fix>
</trkpt>
<trkpt lat="-27.2744392" lon="151.2900641">
  <ele>343.09</ele>
  <time>2026-09-01T19:51:31Z</time>
  <course>10.93</course>
  <speed>0.022360679774997897</speed>
  <fix>3d</fix>
</trkpt>
<trkpt lat="-27.274439" lon="151.290064">
  <ele>343.1</ele>
  <time>2026-09-01T19:51:31Z</time>
  <course>270.0</course>
  <speed>0.0</speed>
  <fix>3d</fix>
</trkpt>
<trkpt lat="-27.2744392" lon="151.2900641">
  <ele>343.09</ele>
  <time>2026-09-01T19:51:31Z</time>
  <course>10.94</course>
  <speed>0.022360679774997897</speed>
  <fix>3d</fix>
</trkpt>
<trkpt lat="-27.274439" lon="151.290064">
  <ele>343.1</ele>
  <time>2026-09-01T19:51:31Z</time>
  <course>270.0</course>
  <speed>0.0</speed>
  <fix>3d</fix>
</trkpt>
<trkpt lat="-27.2744392" lon="151.2900641">
  <ele>343.09</ele>
  <time>2026-09-01T19:51:31Z</time>
  <course>10.94</course>
  <speed>0.022360679774997897</speed>
  <fix>3d</fix>
</trkpt>
<trkpt lat="-27.274439" lon="151.290064">
  <ele>343.1</ele>
  <time>2026-09-01T19:51:31Z</time>
  <course>270.0</course>
  <speed>0.0</speed>
  <fix>3d</fix>
</trkpt>
<trkpt lat="-27.2744392" lon="151.2900641">
  <ele>343.09</ele>
  <time>2026-09-01T19:51:31Z</time>
  <course>10.94</course>
  <speed>0.022360679774997897</speed>
  <fix>3d</fix>
</trkpt>
<trkpt lat="-27.274439" lon="151.290064">
  <ele>343.1</ele>
  <time>2026-09-01T19:51:31Z</time>
  <course>270.0</course>
  <speed>0.0</speed>
  <fix>3d</fix>
</trkpt>
<trkpt lat="-27.2744392" lon="151.2900641">
  <ele>343.09</ele>
  <time>2026-09-01T19:51:31Z</time>
  <course>10.94</course>
  <speed>0.022360679774997897</speed>
  <fix>3d</fix>
</trkpt>
<trkpt lat="-27.274439" lon="151.290064">
  <ele>343.1</ele>
  <time>2026-09-01T19:51:31Z</time>
  <course>270.0</course>
  <speed>0.0</speed>
  <fix>3d</fix>
</trkpt>
<trkpt lat="-27.2744392" lon="151.2900641">
  <ele>343.09</ele>
  <time>2026-09-01T19:51:31Z</time>
  <course>10.94</course>
  <speed>0.022360679774997897</speed>
  <fix>3d</fix>
</trkpt>
<trkpt lat="-27.274439" lon="151.290064">
  <ele>343.1</ele>
  <time>2026-09-01T19:51:31Z</time>
  <course>270.0</course>
  <speed>0.0</speed>
  <fix>3d</fix>
</trkpt>
<trkpt lat="-27.2744392" lon="151.2900641">
  <ele>343.08</ele>
  <time>2026-09-01T19:51:31Z</time>
  <course>10.94</course>
  <speed>0.022360679774997897</speed>
  <fix>3d</fix>
</trkpt>
<trkpt lat="-27.274439" lon="151.290064">
  <ele>343.1</ele>
  <time>2026-09-01T19:51:31Z</time>
  <course>270.0</course>
  <speed>0.0</speed>
  <fix>3d</fix>
</trkpt>
<trkpt lat="-27.2744392" lon="151.2900641">
  <ele>343.08</ele>
  <time>2026-09-01T19:51:31Z</time>
  <course>10.94</course>
  <speed>0.022360679774997897</speed>
  <fix>3d</fix>
</trkpt>
<trkpt lat="-27.274439" lon="151.290064">
  <ele>343.1</ele>
  <time>2026-09-01T19:51:31Z</time>
  <course>270.0</course>
  <speed>0.0</speed>
  <fix>3d</fix>
</trkpt>
<trkpt lat="-27.2744392" lon="151.2900641">
  <ele>343.07</ele>
  <time>2026-09-01T19:51:31Z</time>
  <course>10.94</course>
  <speed>0.022360679774997897</speed>
  <fix>3d</fix>
</trkpt>
<trkpt lat="-27.274439" lon="151.290064">
  <ele>343.1</ele>
  <time>2026-09-01T19:51:31Z</time>
  <course>270.0</course>
  <speed>0.0</speed>
  <fix>3d</fix>
</trkpt>
<trkpt lat="-27.2744392" lon="151.2900641">
  <ele>343.07</ele>
  <time>2026-09-01T19:51:31Z</time>
  <course>10.94</course>
  <speed>0.022360679774997897</speed>
  <fix>3d</fix>
</trkpt>
<trkpt lat="-27.274439" lon="151.290064">
  <ele>343.1</ele>
  <time>2026-09-01T19:51:31Z</time>
  <course>270.0</course>
  <speed>0.0</speed>
  <fix>3d</fix>
</trkpt>
<trkpt lat="-27.2744392" lon="151.2900641">
  <ele>343.07</ele>
  <time>2026-09-01T19:51:31Z</time>
  <course>10.94</course>
  <speed>0.022360679774997897</speed>
  <fix>3d</fix>
</trkpt>
<trkpt lat="-27.274439" lon="151.290064">
  <ele>343.1</ele>
  <time>2026-09-01T19:51:31Z</time>
  <course>270.0</course>
  <speed>0.0</speed>
  <fix>3d</fix>
</trkpt>
<trkpt lat="-27.2744392" lon="151.2900641">
  <ele>343.06</ele>
  <time>2026-09-01T19:51:31Z</time>
  <course>10.94</course>
  <speed>0.022360679774997897</speed>
  <fix>3d</fix>
</trkpt>
<trkpt lat="-27.274439" lon="151.290064">
  <ele>343.1</ele>
  <time>2026-09-01T19:51:31Z</time>
  <course>270.0</course>
  <speed>0.0</speed>
  <fix>3d</fix>
</trkpt>
<trkpt lat="-27.2744392" lon="151.2900641">
  <ele>343.06</ele>
  <time>2026-09-01T19:51:31Z</time>
  <course>10.95</course>
  <speed>0.022360679774997897</speed>
  <fix>3d</fix>
</trkpt>
<trkpt lat="-27.274439" lon="151.290064">
  <ele>343.1</ele>
  <time>2026-09-01T19:51:31Z</time>
  <course>270.0</course>
  <speed>0.0</speed>
  <fix>3d</fix>
</trkpt>
<trkpt lat="-27.2744392" lon="151.2900641">
  <ele>343.05</ele>
  <time>2026-09-01T19:51:31Z</time>
  <course>10.95</course>
  <speed>0.022360679774997897</speed>
  <fix>3d</fix>
</trkpt>
<trkpt lat="-27.274439" lon="151.290064">
  <ele>343.1</ele>
  <time>2026-09-01T19:51:31Z</time>
  <course>270.0</course>
  <speed>0.0</speed>
  <fix>3d</fix>
</trkpt>
<trkpt lat="-27.2744392" lon="151.2900641">
  <ele>343.05</ele>
  <time>2026-09-01T19:51:31Z</time>
  <course>10.95</course>
  <speed>0.022360679774997897</speed>
  <fix>3d</fix>
</trkpt>
<trkpt lat="-27.274439" lon="151.290064">
  <ele>343.1</ele>
  <time>2026-09-01T19:51:31Z</time>
  <course>270.0</course>
  <speed>0.0</speed>
  <fix>3d</fix>
</trkpt>
<trkpt lat="-27.2744392" lon="151.2900641">
  <ele>343.05</ele>
  <time>2026-09-01T19:51:31Z</time>
  <course>10.95</course>
  <speed>0.022360679774997897</speed>
  <fix>3d</fix>
</trkpt>
<trkpt lat="-27.274439" lon="151.290064">
  <ele>343.1</ele>
  <time>2026-09-01T19:51:31Z</time>
  <course>270.0</course>
  <speed>0.0</speed>
  <fix>3d</fix>
</trkpt>
<trkpt lat="-27.2744392" lon="151.2900641">
  <ele>343.05</ele>
  <time>2026-09-01T19:51:31Z</time>
  <course>10.95</course>
  <speed>0.022360679774997897</speed>
  <fix>3d</fix>
</trkpt>
<trkpt lat="-27.274439" lon="151.290064">
  <ele>343.1</ele>
  <time>2026-09-01T19:51:31Z</time>
  <course>270.0</course>
  <speed>0.0</speed>
  <fix>3d</fix>
</trkpt>
<trkpt lat="-27.2744392" lon="151.2900641">
  <ele>343.05</ele>
  <time>2026-09-01T19:51:31Z</time>
  <course>10.95</course>
  <speed>0.022360679774997897</speed>
  <fix>3d</fix>
</trkpt>
<trkpt lat="-27.274439" lon="151.290064">
  <ele>343.1</ele>
  <time>2026-09-01T19:51:31Z</time>
  <course>270.0</course>
  <speed>0.0</speed>
  <fix>3d</fix>
</trkpt>
<trkpt lat="-27.2744392" lon="151.2900641">
  <ele>343.05</ele>
  <time>2026-09-01T19:51:31Z</time>
  <course>10.95</course>
  <speed>0.022360679774997897</speed>
  <fix>3d</fix>
</trkpt>
<trkpt lat="-27.274439" lon="151.290064">
  <ele>343.1</ele>
  <time>2026-09-01T19:51:31Z</time>
  <course>270.0</course>
  <speed>0.0</speed>
  <fix>3d</fix>
</trkpt>
<trkpt lat="-27.2744392" lon="151.2900641">
  <ele>343.04</ele>
  <time>2026-09-01T19:51:31Z</time>
  <course>10.95</course>
  <speed>0.022360679774997897</speed>
  <fix>3d</fix>
</trkpt>
<trkpt lat="-27.274439" lon="151.290064">
  <ele>343.1</ele>
  <time>2026-09-01T19:51:31Z</time>
  <course>270.0</course>
  <speed>0.0</speed>
  <fix>3d</fix>
</trkpt>
<trkpt lat="-27.2744392" lon="151.2900641">
  <ele>343.04</ele>
  <time>2026-09-01T19:51:31Z</time>
  <course>10.95</course>
  <speed>0.022360679774997897</speed>
  <fix>3d</fix>
</trkpt>
<trkpt lat="-27.274439" lon="151.290064">
  <ele>343.1</ele>
  <time>2026-09-01T19:51:31Z</time>
  <course>270.0</course>
  <speed>0.0</speed>
  <fix>3d</fix>
</trkpt>
<trkpt lat="-27.2744392" lon="151.2900641">
  <ele>343.04</ele>
  <time>2026-09-01T19:51:31Z</time>
  <course>10.95</course>
  <speed>0.022360679774997897</speed>
  <fix>3d</fix>
</trkpt>
<trkpt lat="-27.274439" lon="151.290064">
  <ele>343.1</ele>
  <time>2026-09-01T19:51:31Z</time>
  <course>270.0</course>
  <speed>0.0</speed>
  <fix>3d</fix>
</trkpt>
<trkpt lat="-27.2744392" lon="151.2900641">
  <ele>343.04</ele>
  <time>2026-09-01T19:51:31Z</time>
  <course>10.96</course>
  <speed>0.022360679774997897</speed>
  <fix>3d</fix>
</trkpt>
<trkpt lat="-27.274439" lon="151.290064">
  <ele>343.1</ele>
  <time>2026-09-01T19:51:31Z</time>
  <course>270.0</course>
  <speed>0.0</speed>
  <fix>3d</fix>
</trkpt>
<trkpt lat="-27.2744392" lon="151.2900641">
  <ele>343.04</ele>
  <time>2026-09-01T19:51:31Z</time>
  <course>10.96</course>
  <speed>0.022360679774997897</speed>
  <fix>3d</fix>
</trkpt>
<trkpt lat="-27.274439" lon="151.290064">
  <ele>343.1</ele>
  <time>2026-09-01T19:51:31Z</time>
  <course>270.0</course>
  <speed>0.0</speed>
  <fix>3d</fix>
</trkpt>
<trkpt lat="-27.2744392" lon="151.2900641">
  <ele>343.04</ele>
  <time>2026-09-01T19:51:31Z</time>
  <course>10.96</course>
  <speed>0.022360679774997897</speed>
  <fix>3d</fix>
</trkpt>
<trkpt lat="-27.274439" lon="151.290064">
  <ele>343.1</ele>
  <time>2026-09-01T19:51:31Z</time>
  <course>270.0</course>
  <speed>0.0</speed>
  <fix>3d</fix>
</trkpt>
<trkpt lat="-27.2744392" lon="151.2900641">
  <ele>343.03</ele>
  <time>2026-09-01T19:51:31Z</time>
  <course>10.96</course>
  <speed>0.022360679774997897</speed>
  <fix>3d</fix>
</trkpt>
<trkpt lat="-27.274439" lon="151.290064">
  <ele>343.1</ele>
  <time>2026-09-01T19:51:31Z</time>
  <course>270.0</course>
  <speed>0.0</speed>
  <fix>3d</fix>
</trkpt>
<trkpt lat="-27.2744392" lon="151.2900641">
  <ele>343.03</ele>
  <time>2026-09-01T19:51:31Z</time>
  <course>10.96</course>
  <speed>0.022360679774997897</speed>
  <fix>3d</fix>
</trkpt>
<trkpt lat="-27.274439" lon="151.290064">
  <ele>343.1</ele>
  <time>2026-09-01T19:51:31Z</time>
  <course>270.0</course>
  <speed>0.0</speed>
  <fix>3d</fix>
</trkpt>
<trkpt lat="-27.2744392" lon="151.2900641">
  <ele>343.03</ele>
  <time>2026-09-01T19:51:31Z</time>
  <course>10.96</course>
  <speed>0.022360679774997897</speed>
  <fix>3d</fix>
</trkpt>
<trkpt lat="-27.274439" lon="151.290064">
  <ele>343.1</ele>
  <time>2026-09-01T19:51:31Z</time>
  <course>270.0</course>
  <speed>0.0</speed>
  <fix>3d</fix>
</trkpt>
<trkpt lat="-27.2744392" lon="151.2900641">
  <ele>343.03</ele>
  <time>2026-09-01T19:51:31Z</time>
  <course>10.96</course>
  <speed>0.022360679774997897</speed>
  <fix>3d</fix>
</trkpt>
<trkpt lat="-27.274439" lon="151.290064">
  <ele>343.1</ele>
  <time>2026-09-01T19:51:31Z</time>
  <course>270.0</course>
  <speed>0.0</speed>
  <fix>3d</fix>
</trkpt>
<trkpt lat="-27.2744392" lon="151.2900641">
  <ele>343.03</ele>
  <time>2026-09-01T19:51:31Z</time>
  <course>10.96</course>
  <speed>0.022360679774997897</speed>
  <fix>3d</fix>
</trkpt>
<trkpt lat="-27.274439" lon="151.290064">
  <ele>343.1</ele>
  <time>2026-09-01T19:51:31Z</time>
  <course>270.0</course>
  <speed>0.0</speed>
  <fix>3d</fix>
</trkpt>
<trkpt lat="-27.2744392" lon="151.2900641">
  <ele>343.03</ele>
  <time>2026-09-01T19:51:31Z</time>
  <course>10.96</course>
  <speed>0.022360679774997897</speed>
  <fix>3d</fix>
</trkpt>
<trkpt lat="-27.274439" lon="151.290064">
  <ele>343.1</ele>
  <time>2026-09-01T19:51:31Z</time>
  <course>270.0</course>
  <speed>0.0</speed>
  <fix>3d</fix>
</trkpt>
<trkpt lat="-27.2744392" lon="151.2900641">
  <ele>343.03</ele>
  <time>2026-09-01T19:51:31Z</time>
  <course>10.96</course>
  <speed>0.022360679774997897</speed>
  <fix>3d</fix>
</trkpt>
<trkpt lat="-27.274439" lon="151.290064">
  <ele>343.1</ele>
  <time>2026-09-01T19:51:31Z</time>
  <course>270.0</course>
  <speed>0.0</speed>
  <fix>3d</fix>
</trkpt>
<trkpt lat="-27.2744392" lon="151.2900641">
  <ele>343.03</ele>
  <time>2026-09-01T19:51:31Z</time>
  <course>10.97</course>
  <speed>0.022360679774997897</speed>
  <fix>3d</fix>
</trkpt>
<trkpt lat="-27.274439" lon="151.290064">
  <ele>343.1</ele>
  <time>2026-09-01T19:51:31Z</time>
  <course>270.0</course>
  <speed>0.0</speed>
  <fix>3d</fix>
</trkpt>
<trkpt lat="-27.2744392" lon="151.2900641">
  <ele>343.03</ele>
  <time>2026-09-01T19:51:31Z</time>
  <course>10.97</course>
  <speed>0.022360679774997897</speed>
  <fix>3d</fix>
</trkpt>
<trkpt lat="-27.274439" lon="151.290064">
  <ele>343.1</ele>
  <time>2026-09-01T19:51:31Z</time>
  <course>270.0</course>
  <speed>0.0</speed>
  <fix>3d</fix>
</trkpt>
<trkpt lat="-27.2744392" lon="151.2900641">
  <ele>343.03</ele>
  <time>2026-09-01T19:51:31Z</time>
  <course>10.97</course>
  <speed>0.022360679774997897</speed>
  <fix>3d</fix>
</trkpt>
<trkpt lat="-27.274439" lon="151.290064">
  <ele>343.1</ele>
  <time>2026-09-01T19:51:31Z</time>
  <course>270.0</course>
  <speed>0.0</speed>
  <fix>3d</fix>
</trkpt>
<trkpt lat="-27.2744392" lon="151.2900641">
  <ele>343.03</ele>
  <time>2026-09-01T19:51:31Z</time>
  <course>10.97</course>
  <speed>0.022360679774997897</speed>
  <fix>3d</fix>
</trkpt>
<trkpt lat="-27.274439" lon="151.290064">
  <ele>343.1</ele>
  <time>2026-09-01T19:51:31Z</time>
  <course>270.0</course>
  <speed>0.0</speed>
  <fix>3d</fix>
</trkpt>
<trkpt lat="-27.2744392" lon="151.2900641">
  <ele>343.03</ele>
  <time>2026-09-01T19:51:31Z</time>
  <course>10.97</course>
  <speed>0.022360679774997897</speed>
  <fix>3d</fix>
</trkpt>
<trkpt lat="-27.274439" lon="151.290064">
  <ele>343.1</ele>
  <time>2026-09-01T19:51:31Z</time>
  <course>270.0</course>
  <speed>0.0</speed>
  <fix>3d</fix>
</trkpt>
<trkpt lat="-27.2744392" lon="151.2900641">
  <ele>343.03</ele>
  <time>2026-09-01T19:51:31Z</time>
  <course>10.97</course>
  <speed>0.022360679774997897</speed>
  <fix>3d</fix>
</trkpt>
<trkpt lat="-27.274439" lon="151.290064">
  <ele>343.1</ele>
  <time>2026-09-01T19:51:31Z</time>
  <course>270.0</course>
  <speed>0.0</speed>
  <fix>3d</fix>
</trkpt>
<trkpt lat="-27.2744392" lon="151.2900641">
  <ele>343.03</ele>
  <time>2026-09-01T19:51:31Z</time>
  <course>10.97</course>
  <speed>0.022360679774997897</speed>
  <fix>3d</fix>
</trkpt>
<trkpt lat="-27.274439" lon="151.290064">
  <ele>343.1</ele>
  <time>2026-09-01T19:51:31Z</time>
  <course>270.0</course>
  <speed>0.0</speed>
  <fix>3d</fix>
</trkpt>
<trkpt lat="-27.2744392" lon="151.2900641">
  <ele>343.03</ele>
  <time>2026-09-01T19:51:31Z</time>
  <course>10.97</course>
  <speed>0.022360679774997897</speed>
  <fix>3d</fix>
</trkpt>
<trkpt lat="-27.274439" lon="151.290064">
  <ele>343.1</ele>
  <time>2026-09-01T19:51:31Z</time>
  <course>270.0</course>
  <speed>0.0</speed>
  <fix>3d</fix>
</trkpt>
<trkpt lat="-27.2744392" lon="151.2900641">
  <ele>343.03</ele>
  <time>2026-09-01T19:51:31Z</time>
  <course>10.97</course>
  <speed>0.022360679774997897</speed>
  <fix>3d</fix>
</trkpt>
<trkpt lat="-27.274439" lon="151.290064">
  <ele>343.1</ele>
  <time>2026-09-01T19:51:31Z</time>
  <course>270.0</course>
  <speed>0.0</speed>
  <fix>3d</fix>
</trkpt>
<trkpt lat="-27.2744392" lon="151.2900641">
  <ele>343.03</ele>
  <time>2026-09-01T19:51:31Z</time>
  <course>10.97</course>
  <speed>0.022360679774997897</speed>
  <fix>3d</fix>
</trkpt>
<trkpt lat="-27.274439" lon="151.290064">
  <ele>343.1</ele>
  <time>2026-09-01T19:51:31Z</time>
  <course>270.0</course>
  <speed>0.0</speed>
  <fix>3d</fix>
</trkpt>
<trkpt lat="-27.2744392" lon="151.2900641">
  <ele>343.03</ele>
  <time>2026-09-01T19:51:31Z</time>
  <course>10.97</course>
  <speed>0.022360679774997897</speed>
  <fix>3d</fix>
</trkpt>
<trkpt lat="-27.274439" lon="151.290064">
  <ele>343.1</ele>
  <time>2026-09-01T19:51:31Z</time>
  <course>270.0</course>
  <speed>0.0</speed>
  <fix>3d</fix>
</trkpt>
<trkpt lat="-27.2744392" lon="151.2900641">
  <ele>343.02</ele>
  <time>2026-09-01T19:51:31Z</time>
  <course>10.98</course>
  <speed>0.022360679774997897</speed>
  <fix>3d</fix>
</trkpt>
<trkpt lat="-27.274439" lon="151.290064">
  <ele>343.1</ele>
  <time>2026-09-01T19:51:31Z</time>
  <course>270.0</course>
  <speed>0.0</speed>
  <fix>3d</fix>
</trkpt>
<trkpt lat="-27.2744392" lon="151.2900641">
  <ele>343.02</ele>
  <time>2026-09-01T19:51:31Z</time>
  <course>10.98</course>
  <speed>0.022360679774997897</speed>
  <fix>3d</fix>
</trkpt>
<trkpt lat="-27.274439" lon="151.290064">
  <ele>343.1</ele>
  <time>2026-09-01T19:51:31Z</time>
  <course>270.0</course>
  <speed>0.0</speed>
  <fix>3d</fix>
</trkpt>
<trkpt lat="-27.2744392" lon="151.2900641">
  <ele>343.02</ele>
  <time>2026-09-01T19:51:31Z</time>
  <course>10.98</course>
  <speed>0.022360679774997897</speed>
  <fix>3d</fix>
</trkpt>
<trkpt lat="-27.274439" lon="151.290064">
  <ele>343.1</ele>
  <time>2026-09-01T19:51:31Z</time>
  <course>270.0</course>
  <speed>0.0</speed>
  <fix>3d</fix>
</trkpt>
<trkpt lat="-27.2744392" lon="151.2900641">
  <ele>343.01</ele>
  <time>2026-09-01T19:51:31Z</time>
  <course>10.98</course>
  <speed>0.022360679774997897</speed>
  <fix>3d</fix>
</trkpt>
<trkpt lat="-27.274439" lon="151.290064">
  <ele>343.1</ele>
  <time>2026-09-01T19:51:31Z</time>
  <course>270.0</course>
  <speed>0.0</speed>
  <fix>3d</fix>
</trkpt>
<trkpt lat="-27.2744392" lon="151.2900641">
  <ele>343.01</ele>
  <time>2026-09-01T19:51:31Z</time>
  <course>10.98</course>
  <speed>0.022360679774997897</speed>
  <fix>3d</fix>
</trkpt>
<trkpt lat="-27.274439" lon="151.290064">
  <ele>343.1</ele>
  <time>2026-09-01T19:51:31Z</time>
  <course>270.0</course>
  <speed>0.0</speed>
  <fix>3d</fix>
</trkpt>
<trkpt lat="-27.2744392" lon="151.2900641">
  <ele>343.01</ele>
  <time>2026-09-01T19:51:31Z</time>
  <course>10.98</course>
  <speed>0.022360679774997897</speed>
  <fix>3d</fix>
</trkpt>
<trkpt lat="-27.274439" lon="151.290064">
  <ele>343.1</ele>
  <time>2026-09-01T19:51:31Z</time>
  <course>270.0</course>
  <speed>0.0</speed>
  <fix>3d</fix>
</trkpt>
<trkpt lat="-27.2744392" lon="151.2900641">
  <ele>343.01</ele>
  <time>2026-09-01T19:51:31Z</time>
  <course>10.98</course>
  <speed>0.022360679774997897</speed>
  <fix>3d</fix>
</trkpt>
<trkpt lat="-27.274439" lon="151.290064">
  <ele>343.1</ele>
  <time>2026-09-01T19:51:31Z</time>
  <course>270.0</course>
  <speed>0.0</speed>
  <fix>3d</fix>
</trkpt>
<trkpt lat="-27.2744392" lon="151.2900641">
  <ele>343.0</ele>
  <time>2026-09-01T19:51:31Z</time>
  <course>10.98</course>
  <speed>0.022360679774997897</speed>
  <fix>3d</fix>
</trkpt>
<trkpt lat="-27.274439" lon="151.290064">
  <ele>343.1</ele>
  <time>2026-09-01T19:51:31Z</time>
  <course>270.0</course>
  <speed>0.0</speed>
  <fix>3d</fix>
</trkpt>
<trkpt lat="-27.2744392" lon="151.2900641">
  <ele>343.0</ele>
  <time>2026-09-01T19:51:31Z</time>
  <course>10.98</course>
  <speed>0.022360679774997897</speed>
  <fix>3d</fix>
</trkpt>
<trkpt lat="-27.274439" lon="151.290064">
  <ele>343.1</ele>
  <time>2026-09-01T19:51:31Z</time>
  <course>270.0</course>
  <speed>0.0</speed>
  <fix>3d</fix>
</trkpt>
<trkpt lat="-27.2744392" lon="151.2900641">
  <ele>343.0</ele>
  <time>2026-09-01T19:51:31Z</time>
  <course>10.99</course>
  <speed>0.022360679774997897</speed>
  <fix>3d</fix>
</trkpt>
<trkpt lat="-27.274439" lon="151.290064">
  <ele>343.1</ele>
  <time>2026-09-01T19:51:31Z</time>
  <course>270.0</course>
  <speed>0.0</speed>
  <fix>3d</fix>
</trkpt>
<trkpt lat="-27.2744392" lon="151.2900641">
  <ele>342.99</ele>
  <time>2026-09-01T19:51:31Z</time>
  <course>10.99</course>
  <speed>0.022360679774997897</speed>
  <fix>3d</fix>
</trkpt>
<trkpt lat="-27.274439" lon="151.290064">
  <ele>343.1</ele>
  <time>2026-09-01T19:51:31Z</time>
  <course>270.0</course>
  <speed>0.0</speed>
  <fix>3d</fix>
</trkpt>
<trkpt lat="-27.2744392" lon="151.2900641">
  <ele>342.99</ele>
  <time>2026-09-01T19:51:32Z</time>
  <course>10.99</course>
  <speed>0.022360679774997897</speed>
  <fix>3d</fix>
</trkpt>
<trkpt lat="-27.274439" lon="151.290064">
  <ele>343.1</ele>
  <time>2026-09-01T19:51:32Z</time>
  <course>270.0</course>
  <speed>0.0</speed>
  <fix>3d</fix>
</trkpt>
<trkpt lat="-27.2744392" lon="151.2900641">
  <ele>342.99</ele>
  <time>2026-09-01T19:51:32Z</time>
  <course>10.99</course>
  <speed>0.022360679774997897</speed>
  <fix>3d</fix>
</trkpt>
<trkpt lat="-27.274439" lon="151.290064">
  <ele>343.1</ele>
  <time>2026-09-01T19:51:32Z</time>
  <course>270.0</course>
  <speed>0.0</speed>
  <fix>3d</fix>
</trkpt>
<trkpt lat="-27.2744392" lon="151.2900641">
  <ele>342.99</ele>
  <time>2026-09-01T19:51:32Z</time>
  <course>10.99</course>
  <speed>0.022360679774997897</speed>
  <fix>3d</fix>
</trkpt>
<trkpt lat="-27.274439" lon="151.290064">
  <ele>343.1</ele>
  <time>2026-09-01T19:51:32Z</time>
  <course>270.0</course>
  <speed>0.0</speed>
  <fix>3d</fix>
</trkpt>
<trkpt lat="-27.2744392" lon="151.2900641">
  <ele>343.09</ele>
  <time>2026-09-01T19:51:32Z</time>
  <course>10.99</course>
  <speed>0.022360679774997897</speed>
  <fix>3d</fix>
</trkpt>
<trkpt lat="-27.274439" lon="151.290064">
  <ele>343.1</ele>
  <time>2026-09-01T19:51:32Z</time>
  <course>270.0</course>
  <speed>0.0</speed>
  <fix>3d</fix>
</trkpt>
<trkpt lat="-27.2744392" lon="151.2900641">
  <ele>343.09</ele>
  <time>2026-09-01T19:51:32Z</time>
  <course>10.99</course>
  <speed>0.022360679774997897</speed>
  <fix>3d</fix>
</trkpt>
<trkpt lat="-27.274439" lon="151.290064">
  <ele>343.1</ele>
  <time>2026-09-01T19:51:32Z</time>
  <course>270.0</course>
  <speed>0.0</speed>
  <fix>3d</fix>
</trkpt>
<trkpt lat="-27.2744392" lon="151.2900641">
  <ele>343.09</ele>
  <time>2026-09-01T19:51:32Z</time>
  <course>10.99</course>
  <speed>0.022360679774997897</speed>
  <fix>3d</fix>
</trkpt>
<trkpt lat="-27.274439" lon="151.290064">
  <ele>343.1</ele>
  <time>2026-09-01T19:51:32Z</time>
  <course>270.0</course>
  <speed>0.0</speed>
  <fix>3d</fix>
</trkpt>
<trkpt lat="-27.2744392" lon="151.2900641">
  <ele>343.09</ele>
  <time>2026-09-01T19:51:32Z</time>
  <course>10.99</course>
  <speed>0.022360679774997897</speed>
  <fix>3d</fix>
</trkpt>
<trkpt lat="-27.274439" lon="151.290064">
  <ele>343.1</ele>
  <time>2026-09-01T19:51:32Z</time>
  <course>270.0</course>
  <speed>0.0</speed>
  <fix>3d</fix>
</trkpt>
<trkpt lat="-27.2744392" lon="151.2900641">
  <ele>343.09</ele>
  <time>2026-09-01T19:51:32Z</time>
  <course>10.99</course>
  <speed>0.022360679774997897</speed>
  <fix>3d</fix>
</trkpt>
<trkpt lat="-27.274439" lon="151.290064">
  <ele>343.1</ele>
  <time>2026-09-01T19:51:32Z</time>
  <course>270.0</course>
  <speed>0.0</speed>
  <fix>3d</fix>
</trkpt>
<trkpt lat="-27.2744392" lon="151.2900641">
  <ele>343.08</ele>
  <time>2026-09-01T19:51:32Z</time>
  <course>11.0</course>
  <speed>0.022360679774997897</speed>
  <fix>3d</fix>
</trkpt>
<trkpt lat="-27.274439" lon="151.290064">
  <ele>343.1</ele>
  <time>2026-09-01T19:51:32Z</time>
  <course>270.0</course>
  <speed>0.0</speed>
  <fix>3d</fix>
</trkpt>
<trkpt lat="-27.2744392" lon="151.2900641">
  <ele>343.08</ele>
  <time>2026-09-01T19:51:32Z</time>
  <course>11.0</course>
  <speed>0.022360679774997897</speed>
  <fix>3d</fix>
</trkpt>
<trkpt lat="-27.274439" lon="151.290064">
  <ele>343.1</ele>
  <time>2026-09-01T19:51:32Z</time>
  <course>270.0</course>
  <speed>0.0</speed>
  <fix>3d</fix>
</trkpt>
<trkpt lat="-27.2744392" lon="151.2900641">
  <ele>343.08</ele>
  <time>2026-09-01T19:51:32Z</time>
  <course>11.0</course>
  <speed>0.022360679774997897</speed>
  <fix>3d</fix>
</trkpt>
<trkpt lat="-27.274439" lon="151.290064">
  <ele>343.1</ele>
  <time>2026-09-01T19:51:32Z</time>
  <course>270.0</course>
  <speed>0.0</speed>
  <fix>3d</fix>
</trkpt>
<trkpt lat="-27.2744392" lon="151.2900641">
  <ele>343.08</ele>
  <time>2026-09-01T19:51:32Z</time>
  <course>11.0</course>
  <speed>0.022360679774997897</speed>
  <fix>3d</fix>
</trkpt>
<trkpt lat="-27.274439" lon="151.290064">
  <ele>343.1</ele>
  <time>2026-09-01T19:51:32Z</time>
  <course>270.0</course>
  <speed>0.0</speed>
  <fix>3d</fix>
</trkpt>
<trkpt lat="-27.2744392" lon="151.2900641">
  <ele>343.08</ele>
  <time>2026-09-01T19:51:32Z</time>
  <course>11.0</course>
  <speed>0.022360679774997897</speed>
  <fix>3d</fix>
</trkpt>
<trkpt lat="-27.274439" lon="151.290064">
  <ele>343.1</ele>
  <time>2026-09-01T19:51:32Z</time>
  <course>270.0</course>
  <speed>0.0</speed>
  <fix>3d</fix>
</trkpt>
<trkpt lat="-27.2744392" lon="151.2900641">
  <ele>343.08</ele>
  <time>2026-09-01T19:51:32Z</time>
  <course>11.0</course>
  <speed>0.022360679774997897</speed>
  <fix>3d</fix>
</trkpt>
<trkpt lat="-27.274439" lon="151.290064">
  <ele>343.1</ele>
  <time>2026-09-01T19:51:32Z</time>
  <course>270.0</course>
  <speed>0.0</speed>
  <fix>3d</fix>
</trkpt>
<trkpt lat="-27.2744392" lon="151.2900641">
  <ele>343.08</ele>
  <time>2026-09-01T19:51:32Z</time>
  <course>11.0</course>
  <speed>0.022360679774997897</speed>
  <fix>3d</fix>
</trkpt>
<trkpt lat="-27.274439" lon="151.290064">
  <ele>343.1</ele>
  <time>2026-09-01T19:51:32Z</time>
  <course>270.0</course>
  <speed>0.0</speed>
  <fix>3d</fix>
</trkpt>
<trkpt lat="-27.2744392" lon="151.2900641">
  <ele>343.08</ele>
  <time>2026-09-01T19:51:32Z</time>
  <course>11.0</course>
  <speed>0.022360679774997897</speed>
  <fix>3d</fix>
</trkpt>
<trkpt lat="-27.274439" lon="151.290064">
  <ele>343.1</ele>
  <time>2026-09-01T19:51:32Z</time>
  <course>270.0</course>
  <speed>0.0</speed>
  <fix>3d</fix>
</trkpt>
<trkpt lat="-27.2744392" lon="151.2900641">
  <ele>343.08</ele>
  <time>2026-09-01T19:51:32Z</time>
  <course>11.0</course>
  <speed>0.022360679774997897</speed>
  <fix>3d</fix>
</trkpt>
<trkpt lat="-27.274439" lon="151.290064">
  <ele>343.1</ele>
  <time>2026-09-01T19:51:32Z</time>
  <course>270.0</course>
  <speed>0.0</speed>
  <fix>3d</fix>
</trkpt>
<trkpt lat="-27.2744392" lon="151.2900641">
  <ele>343.08</ele>
  <time>2026-09-01T19:51:32Z</time>
  <course>11.0</course>
  <speed>0.022360679774997897</speed>
  <fix>3d</fix>
</trkpt>
<trkpt lat="-27.274439" lon="151.290064">
  <ele>343.1</ele>
  <time>2026-09-01T19:51:32Z</time>
  <course>270.0</course>
  <speed>0.0</speed>
  <fix>3d</fix>
</trkpt>
<trkpt lat="-27.2744392" lon="151.2900641">
  <ele>343.08</ele>
  <time>2026-09-01T19:51:32Z</time>
  <course>11.01</course>
  <speed>0.022360679774997897</speed>
  <fix>3d</fix>
</trkpt>
<trkpt lat="-27.274439" lon="151.290064">
  <ele>343.1</ele>
  <time>2026-09-01T19:51:32Z</time>
  <course>270.0</course>
  <speed>0.0</speed>
  <fix>3d</fix>
</trkpt>
<trkpt lat="-27.2744392" lon="151.2900641">
  <ele>343.08</ele>
  <time>2026-09-01T19:51:32Z</time>
  <course>11.01</course>
  <speed>0.022360679774997897</speed>
  <fix>3d</fix>
</trkpt>
<trkpt lat="-27.274439" lon="151.290064">
  <ele>343.1</ele>
  <time>2026-09-01T19:51:32Z</time>
  <course>270.0</course>
  <speed>0.0</speed>
  <fix>3d</fix>
</trkpt>
<trkpt lat="-27.2744392" lon="151.2900641">
  <ele>343.08</ele>
  <time>2026-09-01T19:51:32Z</time>
  <course>11.01</course>
  <speed>0.022360679774997897</speed>
  <fix>3d</fix>
</trkpt>
<trkpt lat="-27.274439" lon="151.290064">
  <ele>343.1</ele>
  <time>2026-09-01T19:51:32Z</time>
  <course>270.0</course>
  <speed>0.0</speed>
  <fix>3d</fix>
</trkpt>
<trkpt lat="-27.2744392" lon="151.2900641">
  <ele>343.07</ele>
  <time>2026-09-01T19:51:32Z</time>
  <course>11.01</course>
  <speed>0.022360679774997897</speed>
  <fix>3d</fix>
</trkpt>
<trkpt lat="-27.274439" lon="151.290064">
  <ele>343.1</ele>
  <time>2026-09-01T19:51:32Z</time>
  <course>270.0</course>
  <speed>0.0</speed>
  <fix>3d</fix>
</trkpt>
<trkpt lat="-27.2744392" lon="151.2900641">
  <ele>343.07</ele>
  <time>2026-09-01T19:51:32Z</time>
  <course>11.01</course>
  <speed>0.022360679774997897</speed>
  <fix>3d</fix>
</trkpt>
<trkpt lat="-27.274439" lon="151.290064">
  <ele>343.1</ele>
  <time>2026-09-01T19:51:32Z</time>
  <course>270.0</course>
  <speed>0.0</speed>
  <fix>3d</fix>
</trkpt>
<trkpt lat="-27.2744392" lon="151.2900641">
  <ele>343.07</ele>
  <time>2026-09-01T19:51:32Z</time>
  <course>11.01</course>
  <speed>0.022360679774997897</speed>
  <fix>3d</fix>
</trkpt>
<trkpt lat="-27.274439" lon="151.290064">
  <ele>343.1</ele>
  <time>2026-09-01T19:51:32Z</time>
  <course>270.0</course>
  <speed>0.0</speed>
  <fix>3d</fix>
</trkpt>
<trkpt lat="-27.2744392" lon="151.2900641">
  <ele>343.07</ele>
  <time>2026-09-01T19:51:32Z</time>
  <course>11.01</course>
  <speed>0.022360679774997897</speed>
  <fix>3d</fix>
</trkpt>
<trkpt lat="-27.274439" lon="151.290064">
  <ele>343.1</ele>
  <time>2026-09-01T19:51:32Z</time>
  <course>270.0</course>
  <speed>0.0</speed>
  <fix>3d</fix>
</trkpt>
<trkpt lat="-27.2744392" lon="151.2900641">
  <ele>343.07</ele>
  <time>2026-09-01T19:51:32Z</time>
  <course>11.01</course>
  <speed>0.022360679774997897</speed>
  <fix>3d</fix>
</trkpt>
<trkpt lat="-27.274439" lon="151.290064">
  <ele>343.1</ele>
  <time>2026-09-01T19:51:32Z</time>
  <course>270.0</course>
  <speed>0.0</speed>
  <fix>3d</fix>
</trkpt>
<trkpt lat="-27.2744392" lon="151.2900641">
  <ele>343.07</ele>
  <time>2026-09-01T19:51:32Z</time>
  <course>11.01</course>
  <speed>0.022360679774997897</speed>
  <fix>3d</fix>
</trkpt>
<trkpt lat="-27.274439" lon="151.290064">
  <ele>343.1</ele>
  <time>2026-09-01T19:51:32Z</time>
  <course>270.0</course>
  <speed>0.0</speed>
  <fix>3d</fix>
</trkpt>
<trkpt lat="-27.2744392" lon="151.2900641">
  <ele>343.07</ele>
  <time>2026-09-01T19:51:32Z</time>
  <course>11.01</course>
  <speed>0.022360679774997897</speed>
  <fix>3d</fix>
</trkpt>
<trkpt lat="-27.274439" lon="151.290064">
  <ele>343.1</ele>
  <time>2026-09-01T19:51:32Z</time>
  <course>270.0</course>
  <speed>0.0</speed>
  <fix>3d</fix>
</trkpt>
<trkpt lat="-27.2744392" lon="151.2900641">
  <ele>343.07</ele>
  <time>2026-09-01T19:51:32Z</time>
  <course>11.01</course>
  <speed>0.022360679774997897</speed>
  <fix>3d</fix>
</trkpt>
<trkpt lat="-27.274439" lon="151.290064">
  <ele>343.1</ele>
  <time>2026-09-01T19:51:32Z</time>
  <course>270.0</course>
  <speed>0.0</speed>
  <fix>3d</fix>
</trkpt>
<trkpt lat="-27.2744392" lon="151.2900641">
  <ele>343.07</ele>
  <time>2026-09-01T19:51:32Z</time>
  <course>11.02</course>
  <speed>0.022360679774997897</speed>
  <fix>3d</fix>
</trkpt>
<trkpt lat="-27.274439" lon="151.290064">
  <ele>343.1</ele>
  <time>2026-09-01T19:51:32Z</time>
  <course>270.0</course>
  <speed>0.0</speed>
  <fix>3d</fix>
</trkpt>
<trkpt lat="-27.2744392" lon="151.2900641">
  <ele>343.07</ele>
  <time>2026-09-01T19:51:32Z</time>
  <course>11.02</course>
  <speed>0.022360679774997897</speed>
  <fix>3d</fix>
</trkpt>
<trkpt lat="-27.274439" lon="151.290064">
  <ele>343.1</ele>
  <time>2026-09-01T19:51:32Z</time>
  <course>270.0</course>
  <speed>0.0</speed>
  <fix>3d</fix>
</trkpt>
<trkpt lat="-27.2744392" lon="151.2900641">
  <ele>343.08</ele>
  <time>2026-09-01T19:51:32Z</time>
  <course>11.02</course>
  <speed>0.022360679774997897</speed>
  <fix>3d</fix>
</trkpt>
<trkpt lat="-27.274439" lon="151.290064">
  <ele>343.1</ele>
  <time>2026-09-01T19:51:32Z</time>
  <course>270.0</course>
  <speed>0.0</speed>
  <fix>3d</fix>
</trkpt>
<trkpt lat="-27.2744392" lon="151.2900641">
  <ele>343.08</ele>
  <time>2026-09-01T19:51:32Z</time>
  <course>11.02</course>
  <speed>0.022360679774997897</speed>
  <fix>3d</fix>
</trkpt>
<trkpt lat="-27.274439" lon="151.290064">
  <ele>343.1</ele>
  <time>2026-09-01T19:51:32Z</time>
  <course>270.0</course>
  <speed>0.0</speed>
  <fix>3d</fix>
</trkpt>
<trkpt lat="-27.2744392" lon="151.2900641">
  <ele>343.08</ele>
  <time>2026-09-01T19:51:32Z</time>
  <course>11.02</course>
  <speed>0.022360679774997897</speed>
  <fix>3d</fix>
</trkpt>
<trkpt lat="-27.274439" lon="151.290064">
  <ele>343.1</ele>
  <time>2026-09-01T19:51:32Z</time>
  <course>270.0</course>
  <speed>0.0</speed>
  <fix>3d</fix>
</trkpt>
<trkpt lat="-27.2744392" lon="151.2900641">
  <ele>343.08</ele>
  <time>2026-09-01T19:51:32Z</time>
  <course>11.02</course>
  <speed>0.022360679774997897</speed>
  <fix>3d</fix>
</trkpt>
<trkpt lat="-27.274439" lon="151.290064">
  <ele>343.1</ele>
  <time>2026-09-01T19:51:32Z</time>
  <course>270.0</course>
  <speed>0.0</speed>
  <fix>3d</fix>
</trkpt>
<trkpt lat="-27.2744392" lon="151.2900641">
  <ele>343.08</ele>
  <time>2026-09-01T19:51:32Z</time>
  <course>11.02</course>
  <speed>0.022360679774997897</speed>
  <fix>3d</fix>
</trkpt>
<trkpt lat="-27.274439" lon="151.290064">
  <ele>343.1</ele>
  <time>2026-09-01T19:51:32Z</time>
  <course>270.0</course>
  <speed>0.0</speed>
  <fix>3d</fix>
</trkpt>
<trkpt lat="-27.2744392" lon="151.2900641">
  <ele>343.08</ele>
  <time>2026-09-01T19:51:32Z</time>
  <course>11.02</course>
  <speed>0.022360679774997897</speed>
  <fix>3d</fix>
</trkpt>
<trkpt lat="-27.274439" lon="151.290064">
  <ele>343.1</ele>
  <time>2026-09-01T19:51:32Z</time>
  <course>270.0</course>
  <speed>0.0</speed>
  <fix>3d</fix>
</trkpt>
<trkpt lat="-27.2744392" lon="151.2900641">
  <ele>343.08</ele>
  <time>2026-09-01T19:51:32Z</time>
  <course>11.02</course>
  <speed>0.022360679774997897</speed>
  <fix>3d</fix>
</trkpt>
<trkpt lat="-27.274439" lon="151.290064">
  <ele>343.1</ele>
  <time>2026-09-01T19:51:32Z</time>
  <course>270.0</course>
  <speed>0.0</speed>
  <fix>3d</fix>
</trkpt>
<trkpt lat="-27.2744392" lon="151.2900641">
  <ele>343.08</ele>
  <time>2026-09-01T19:51:32Z</time>
  <course>11.02</course>
  <speed>0.022360679774997897</speed>
  <fix>3d</fix>
</trkpt>
<trkpt lat="-27.274439" lon="151.290064">
  <ele>343.1</ele>
  <time>2026-09-01T19:51:32Z</time>
  <course>270.0</course>
  <speed>0.0</speed>
  <fix>3d</fix>
</trkpt>
<trkpt lat="-27.2744392" lon="151.2900641">
  <ele>343.08</ele>
  <time>2026-09-01T19:51:32Z</time>
  <course>11.03</course>
  <speed>0.022360679774997897</speed>
  <fix>3d</fix>
</trkpt>
<trkpt lat="-27.274439" lon="151.290064">
  <ele>343.1</ele>
  <time>2026-09-01T19:51:32Z</time>
  <course>270.0</course>
  <speed>0.0</speed>
  <fix>3d</fix>
</trkpt>
<trkpt lat="-27.2744392" lon="151.2900641">
  <ele>343.08</ele>
  <time>2026-09-01T19:51:32Z</time>
  <course>11.03</course>
  <speed>0.022360679774997897</speed>
  <fix>3d</fix>
</trkpt>
<trkpt lat="-27.274439" lon="151.290064">
  <ele>343.1</ele>
  <time>2026-09-01T19:51:32Z</time>
  <course>270.0</course>
  <speed>0.0</speed>
  <fix>3d</fix>
</trkpt>
<trkpt lat="-27.2744392" lon="151.2900641">
  <ele>343.08</ele>
  <time>2026-09-01T19:51:32Z</time>
  <course>11.03</course>
  <speed>0.022360679774997897</speed>
  <fix>3d</fix>
</trkpt>
<trkpt lat="-27.274439" lon="151.290064">
  <ele>343.1</ele>
  <time>2026-09-01T19:51:32Z</time>
  <course>270.0</course>
  <speed>0.0</speed>
  <fix>3d</fix>
</trkpt>
<trkpt lat="-27.2744392" lon="151.2900641">
  <ele>343.08</ele>
  <time>2026-09-01T19:51:32Z</time>
  <course>11.03</course>
  <speed>0.022360679774997897</speed>
  <fix>3d</fix>
</trkpt>
<trkpt lat="-27.274439" lon="151.290064">
  <ele>343.1</ele>
  <time>2026-09-01T19:51:32Z</time>
  <course>270.0</course>
  <speed>0.0</speed>
  <fix>3d</fix>
</trkpt>
<trkpt lat="-27.2744392" lon="151.2900641">
  <ele>343.08</ele>
  <time>2026-09-01T19:51:32Z</time>
  <course>11.03</course>
  <speed>0.022360679774997897</speed>
  <fix>3d</fix>
</trkpt>
<trkpt lat="-27.274439" lon="151.290064">
  <ele>343.1</ele>
  <time>2026-09-01T19:51:32Z</time>
  <course>270.0</course>
  <speed>0.0</speed>
  <fix>3d</fix>
</trkpt>
<trkpt lat="-27.2744392" lon="151.2900641">
  <ele>343.08</ele>
  <time>2026-09-01T19:51:32Z</time>
  <course>11.03</course>
  <speed>0.022360679774997897</speed>
  <fix>3d</fix>
</trkpt>
<trkpt lat="-27.274439" lon="151.290064">
  <ele>343.1</ele>
  <time>2026-09-01T19:51:32Z</time>
  <course>270.0</course>
  <speed>0.0</speed>
  <fix>3d</fix>
</trkpt>
<trkpt lat="-27.2744392" lon="151.2900641">
  <ele>343.08</ele>
  <time>2026-09-01T19:51:32Z</time>
  <course>11.03</course>
  <speed>0.022360679774997897</speed>
  <fix>3d</fix>
</trkpt>
<trkpt lat="-27.274439" lon="151.290064">
  <ele>343.1</ele>
  <time>2026-09-01T19:51:32Z</time>
  <course>270.0</course>
  <speed>0.0</speed>
  <fix>3d</fix>
</trkpt>
<trkpt lat="-27.2744392" lon="151.2900641">
  <ele>343.08</ele>
  <time>2026-09-01T19:51:32Z</time>
  <course>11.03</course>
  <speed>0.022360679774997897</speed>
  <fix>3d</fix>
</trkpt>
<trkpt lat="-27.274439" lon="151.290064">
  <ele>343.1</ele>
  <time>2026-09-01T19:51:32Z</time>
  <course>270.0</course>
  <speed>0.0</speed>
  <fix>3d</fix>
</trkpt>
<trkpt lat="-27.2744392" lon="151.2900641">
  <ele>343.08</ele>
  <time>2026-09-01T19:51:32Z</time>
  <course>11.03</course>
  <speed>0.022360679774997897</speed>
  <fix>3d</fix>
</trkpt>
<trkpt lat="-27.274439" lon="151.290064">
  <ele>343.1</ele>
  <time>2026-09-01T19:51:32Z</time>
  <course>270.0</course>
  <speed>0.0</speed>
  <fix>3d</fix>
</trkpt>
<trkpt lat="-27.2744392" lon="151.2900641">
  <ele>343.08</ele>
  <time>2026-09-01T19:51:32Z</time>
  <course>11.04</course>
  <speed>0.022360679774997897</speed>
  <fix>3d</fix>
</trkpt>
<trkpt lat="-27.274439" lon="151.290064">
  <ele>343.1</ele>
  <time>2026-09-01T19:51:32Z</time>
  <course>270.0</course>
  <speed>0.0</speed>
  <fix>3d</fix>
</trkpt>
<trkpt lat="-27.2744392" lon="151.2900641">
  <ele>343.08</ele>
  <time>2026-09-01T19:51:32Z</time>
  <course>11.04</course>
  <speed>0.022360679774997897</speed>
  <fix>3d</fix>
</trkpt>
<trkpt lat="-27.274439" lon="151.290064">
  <ele>343.1</ele>
  <time>2026-09-01T19:51:32Z</time>
  <course>270.0</course>
  <speed>0.0</speed>
  <fix>3d</fix>
</trkpt>
<trkpt lat="-27.2744392" lon="151.2900641">
  <ele>343.08</ele>
  <time>2026-09-01T19:51:32Z</time>
  <course>11.04</course>
  <speed>0.022360679774997897</speed>
  <fix>3d</fix>
</trkpt>
<trkpt lat="-27.274439" lon="151.290064">
  <ele>343.1</ele>
  <time>2026-09-01T19:51:32Z</time>
  <course>270.0</course>
  <speed>0.0</speed>
  <fix>3d</fix>
</trkpt>
<trkpt lat="-27.2744392" lon="151.2900641">
  <ele>343.08</ele>
  <time>2026-09-01T19:51:32Z</time>
  <course>11.04</course>
  <speed>0.022360679774997897</speed>
  <fix>3d</fix>
</trkpt>
<trkpt lat="-27.274439" lon="151.290064">
  <ele>343.1</ele>
  <time>2026-09-01T19:51:32Z</time>
  <course>270.0</course>
  <speed>0.0</speed>
  <fix>3d</fix>
</trkpt>
<trkpt lat="-27.2744392" lon="151.2900641">
  <ele>343.08</ele>
  <time>2026-09-01T19:51:32Z</time>
  <course>11.04</course>
  <speed>0.022360679774997897</speed>
  <fix>3d</fix>
</trkpt>
<trkpt lat="-27.274439" lon="151.290064">
  <ele>343.1</ele>
  <time>2026-09-01T19:51:32Z</time>
  <course>270.0</course>
  <speed>0.0</speed>
  <fix>3d</fix>
</trkpt>
<trkpt lat="-27.2744392" lon="151.2900641">
  <ele>343.08</ele>
  <time>2026-09-01T19:51:32Z</time>
  <course>11.04</course>
  <speed>0.022360679774997897</speed>
  <fix>3d</fix>
</trkpt>
<trkpt lat="-27.274439" lon="151.290064">
  <ele>343.1</ele>
  <time>2026-09-01T19:51:32Z</time>
  <course>270.0</course>
  <speed>0.0</speed>
  <fix>3d</fix>
</trkpt>
<trkpt lat="-27.2744392" lon="151.2900641">
  <ele>343.08</ele>
  <time>2026-09-01T19:51:32Z</time>
  <course>11.04</course>
  <speed>0.022360679774997897</speed>
  <fix>3d</fix>
</trkpt>
<trkpt lat="-27.274439" lon="151.290064">
  <ele>343.1</ele>
  <time>2026-09-01T19:51:32Z</time>
  <course>270.0</course>
  <speed>0.0</speed>
  <fix>3d</fix>
</trkpt>
<trkpt lat="-27.2744392" lon="151.2900641">
  <ele>343.08</ele>
  <time>2026-09-01T19:51:32Z</time>
  <course>11.04</course>
  <speed>0.022360679774997897</speed>
  <fix>3d</fix>
</trkpt>
<trkpt lat="-27.274439" lon="151.290064">
  <ele>343.1</ele>
  <time>2026-09-01T19:51:32Z</time>
  <course>270.0</course>
  <speed>0.0</speed>
  <fix>3d</fix>
</trkpt>
<trkpt lat="-27.2744392" lon="151.2900641">
  <ele>343.08</ele>
  <time>2026-09-01T19:51:32Z</time>
  <course>11.04</course>
  <speed>0.022360679774997897</speed>
  <fix>3d</fix>
</trkpt>
<trkpt lat="-27.274439" lon="151.290064">
  <ele>343.1</ele>
  <time>2026-09-01T19:51:32Z</time>
  <course>270.0</course>
  <speed>0.0</speed>
  <fix>3d</fix>
</trkpt>
<trkpt lat="-27.2744392" lon="151.2900641">
  <ele>343.08</ele>
  <time>2026-09-01T19:51:32Z</time>
  <course>11.04</course>
  <speed>0.022360679774997897</speed>
  <fix>3d</fix>
</trkpt>
<trkpt lat="-27.274439" lon="151.290064">
  <ele>343.1</ele>
  <time>2026-09-01T19:51:32Z</time>
  <course>270.0</course>
  <speed>0.0</speed>
  <fix>3d</fix>
</trkpt>
<trkpt lat="-27.2744392" lon="151.2900641">
  <ele>343.08</ele>
  <time>2026-09-01T19:51:32Z</time>
  <course>11.05</course>
  <speed>0.022360679774997897</speed>
  <fix>3d</fix>
</trkpt>
<trkpt lat="-27.274439" lon="151.290064">
  <ele>343.1</ele>
  <time>2026-09-01T19:51:32Z</time>
  <course>270.0</course>
  <speed>0.0</speed>
  <fix>3d</fix>
</trkpt>
<trkpt lat="-27.2744392" lon="151.2900641">
  <ele>343.08</ele>
  <time>2026-09-01T19:51:32Z</time>
  <course>11.05</course>
  <speed>0.022360679774997897</speed>
  <fix>3d</fix>
</trkpt>
<trkpt lat="-27.274439" lon="151.290064">
  <ele>343.1</ele>
  <time>2026-09-01T19:51:32Z</time>
  <course>270.0</course>
  <speed>0.0</speed>
  <fix>3d</fix>
</trkpt>
<trkpt lat="-27.2744392" lon="151.2900641">
  <ele>343.08</ele>
  <time>2026-09-01T19:51:32Z</time>
  <course>11.05</course>
  <speed>0.022360679774997897</speed>
  <fix>3d</fix>
</trkpt>
<trkpt lat="-27.274439" lon="151.290064">
  <ele>343.1</ele>
  <time>2026-09-01T19:51:32Z</time>
  <course>270.0</course>
  <speed>0.0</speed>
  <fix>3d</fix>
</trkpt>
<trkpt lat="-27.2744392" lon="151.2900641">
  <ele>343.08</ele>
  <time>2026-09-01T19:51:32Z</time>
  <course>11.05</course>
  <speed>0.022360679774997897</speed>
  <fix>3d</fix>
</trkpt>
<trkpt lat="-27.274439" lon="151.290064">
  <ele>343.1</ele>
  <time>2026-09-01T19:51:32Z</time>
  <course>270.0</course>
  <speed>0.0</speed>
  <fix>3d</fix>
</trkpt>
<trkpt lat="-27.2744392" lon="151.2900641">
  <ele>343.08</ele>
  <time>2026-09-01T19:51:32Z</time>
  <course>11.05</course>
  <speed>0.022360679774997897</speed>
  <fix>3d</fix>
</trkpt>
<trkpt lat="-27.274439" lon="151.290064">
  <ele>343.1</ele>
  <time>2026-09-01T19:51:32Z</time>
  <course>270.0</course>
  <speed>0.0</speed>
  <fix>3d</fix>
</trkpt>
<trkpt lat="-27.2744392" lon="151.2900641">
  <ele>343.09</ele>
  <time>2026-09-01T19:51:32Z</time>
  <course>11.05</course>
  <speed>0.022360679774997897</speed>
  <fix>3d</fix>
</trkpt>
<trkpt lat="-27.274439" lon="151.290064">
  <ele>343.1</ele>
  <time>2026-09-01T19:51:32Z</time>
  <course>270.0</course>
  <speed>0.0</speed>
  <fix>3d</fix>
</trkpt>
<trkpt lat="-27.2744392" lon="151.2900641">
  <ele>343.09</ele>
  <time>2026-09-01T19:51:32Z</time>
  <course>11.05</course>
  <speed>0.022360679774997897</speed>
  <fix>3d</fix>
</trkpt>
<trkpt lat="-27.274439" lon="151.290064">
  <ele>343.1</ele>
  <time>2026-09-01T19:51:32Z</time>
  <course>270.0</course>
  <speed>0.0</speed>
  <fix>3d</fix>
</trkpt>
<trkpt lat="-27.2744392" lon="151.2900641">
  <ele>343.09</ele>
  <time>2026-09-01T19:51:32Z</time>
  <course>11.05</course>
  <speed>0.022360679774997897</speed>
  <fix>3d</fix>
</trkpt>
<trkpt lat="-27.274439" lon="151.290064">
  <ele>343.1</ele>
  <time>2026-09-01T19:51:32Z</time>
  <course>270.0</course>
  <speed>0.0</speed>
  <fix>3d</fix>
</trkpt>
<trkpt lat="-27.2744392" lon="151.2900641">
  <ele>343.1</ele>
  <time>2026-09-01T19:51:32Z</time>
  <course>11.05</course>
  <speed>0.022360679774997897</speed>
  <fix>3d</fix>
</trkpt>
<trkpt lat="-27.274439" lon="151.290064">
  <ele>343.1</ele>
  <time>2026-09-01T19:51:32Z</time>
  <course>270.0</course>
  <speed>0.0</speed>
  <fix>3d</fix>
</trkpt>
<trkpt lat="-27.2744392" lon="151.2900641">
  <ele>343.1</ele>
  <time>2026-09-01T19:51:32Z</time>
  <course>11.05</course>
  <speed>0.022360679774997897</speed>
  <fix>3d</fix>
</trkpt>
<trkpt lat="-27.274439" lon="151.290064">
  <ele>343.1</ele>
  <time>2026-09-01T19:51:32Z</time>
  <course>270.0</course>
  <speed>0.0</speed>
  <fix>3d</fix>
</trkpt>
<trkpt lat="-27.2744392" lon="151.2900641">
  <ele>343.1</ele>
  <time>2026-09-01T19:51:32Z</time>
  <course>11.06</course>
  <speed>0.022360679774997897</speed>
  <fix>3d</fix>
</trkpt>
<trkpt lat="-27.274439" lon="151.290064">
  <ele>343.1</ele>
  <time>2026-09-01T19:51:32Z</time>
  <course>270.0</course>
  <speed>0.0</speed>
  <fix>3d</fix>
</trkpt>
<trkpt lat="-27.2744392" lon="151.2900641">
  <ele>343.11</ele>
  <time>2026-09-01T19:51:32Z</time>
  <course>11.06</course>
  <speed>0.022360679774997897</speed>
  <fix>3d</fix>
</trkpt>
<trkpt lat="-27.274439" lon="151.290064">
  <ele>343.1</ele>
  <time>2026-09-01T19:51:32Z</time>
  <course>270.0</course>
  <speed>0.0</speed>
  <fix>3d</fix>
</trkpt>
<trkpt lat="-27.2744392" lon="151.2900641">
  <ele>343.11</ele>
  <time>2026-09-01T19:51:32Z</time>
  <course>11.06</course>
  <speed>0.022360679774997897</speed>
  <fix>3d</fix>
</trkpt>
<trkpt lat="-27.274439" lon="151.290064">
  <ele>343.1</ele>
  <time>2026-09-01T19:51:32Z</time>
  <course>270.0</course>
  <speed>0.0</speed>
  <fix>3d</fix>
</trkpt>
<trkpt lat="-27.2744392" lon="151.2900641">
  <ele>343.11</ele>
  <time>2026-09-01T19:51:32Z</time>
  <course>11.06</course>
  <speed>0.022360679774997897</speed>
  <fix>3d</fix>
</trkpt>
<trkpt lat="-27.274439" lon="151.290064">
  <ele>343.1</ele>
  <time>2026-09-01T19:51:32Z</time>
  <course>270.0</course>
  <speed>0.0</speed>
  <fix>3d</fix>
</trkpt>
<trkpt lat="-27.2744392" lon="151.2900641">
  <ele>343.12</ele>
  <time>2026-09-01T19:51:32Z</time>
  <course>11.06</course>
  <speed>0.022360679774997897</speed>
  <fix>3d</fix>
</trkpt>
<trkpt lat="-27.274439" lon="151.290064">
  <ele>343.1</ele>
  <time>2026-09-01T19:51:32Z</time>
  <course>270.0</course>
  <speed>0.0</speed>
  <fix>3d</fix>
</trkpt>
<trkpt lat="-27.2744392" lon="151.2900641">
  <ele>343.12</ele>
  <time>2026-09-01T19:51:32Z</time>
  <course>11.06</course>
  <speed>0.022360679774997897</speed>
  <fix>3d</fix>
</trkpt>
<trkpt lat="-27.274439" lon="151.290064">
  <ele>343.1</ele>
  <time>2026-09-01T19:51:32Z</time>
  <course>270.0</course>
  <speed>0.0</speed>
  <fix>3d</fix>
</trkpt>
<trkpt lat="-27.2744392" lon="151.2900641">
  <ele>343.13</ele>
  <time>2026-09-01T19:51:32Z</time>
  <course>11.06</course>
  <speed>0.022360679774997897</speed>
  <fix>3d</fix>
</trkpt>
<trkpt lat="-27.274439" lon="151.290064">
  <ele>343.1</ele>
  <time>2026-09-01T19:51:32Z</time>
  <course>270.0</course>
  <speed>0.0</speed>
  <fix>3d</fix>
</trkpt>
<trkpt lat="-27.2744392" lon="151.2900641">
  <ele>343.13</ele>
  <time>2026-09-01T19:51:32Z</time>
  <course>11.06</course>
  <speed>0.022360679774997897</speed>
  <fix>3d</fix>
</trkpt>
<trkpt lat="-27.274439" lon="151.290064">
  <ele>343.1</ele>
  <time>2026-09-01T19:51:32Z</time>
  <course>270.0</course>
  <speed>0.0</speed>
  <fix>3d</fix>
</trkpt>
<trkpt lat="-27.2744392" lon="151.2900641">
  <ele>343.13</ele>
  <time>2026-09-01T19:51:32Z</time>
  <course>11.06</course>
  <speed>0.022360679774997897</speed>
  <fix>3d</fix>
</trkpt>
<trkpt lat="-27.274439" lon="151.290064">
  <ele>343.1</ele>
  <time>2026-09-01T19:51:32Z</time>
  <course>270.0</course>
  <speed>0.0</speed>
  <fix>3d</fix>
</trkpt>
<trkpt lat="-27.2744392" lon="151.2900641">
  <ele>343.13</ele>
  <time>2026-09-01T19:51:32Z</time>
  <course>11.07</course>
  <speed>0.022360679774997897</speed>
  <fix>3d</fix>
</trkpt>
<trkpt lat="-27.274439" lon="151.290064">
  <ele>343.1</ele>
  <time>2026-09-01T19:51:32Z</time>
  <course>270.0</course>
  <speed>0.0</speed>
  <fix>3d</fix>
</trkpt>
<trkpt lat="-27.2744392" lon="151.2900641">
  <ele>343.14</ele>
  <time>2026-09-01T19:51:32Z</time>
  <course>11.07</course>
  <speed>0.022360679774997897</speed>
  <fix>3d</fix>
</trkpt>
<trkpt lat="-27.274439" lon="151.290064">
  <ele>343.1</ele>
  <time>2026-09-01T19:51:32Z</time>
  <course>270.0</course>
  <speed>0.0</speed>
  <fix>3d</fix>
</trkpt>
<trkpt lat="-27.2744392" lon="151.2900641">
  <ele>343.14</ele>
  <time>2026-09-01T19:51:32Z</time>
  <course>11.07</course>
  <speed>0.022360679774997897</speed>
  <fix>3d</fix>
</trkpt>
<trkpt lat="-27.274439" lon="151.290064">
  <ele>343.1</ele>
  <time>2026-09-01T19:51:32Z</time>
  <course>270.0</course>
  <speed>0.0</speed>
  <fix>3d</fix>
</trkpt>
<trkpt lat="-27.2744392" lon="151.2900641">
  <ele>343.15</ele>
  <time>2026-09-01T19:51:32Z</time>
  <course>11.07</course>
  <speed>0.022360679774997897</speed>
  <fix>3d</fix>
</trkpt>
<trkpt lat="-27.274439" lon="151.290064">
  <ele>343.1</ele>
  <time>2026-09-01T19:51:32Z</time>
  <course>270.0</course>
  <speed>0.0</speed>
  <fix>3d</fix>
</trkpt>
<trkpt lat="-27.2744392" lon="151.2900641">
  <ele>343.15</ele>
  <time>2026-09-01T19:51:32Z</time>
  <course>11.07</course>
  <speed>0.022360679774997897</speed>
  <fix>3d</fix>
</trkpt>
<trkpt lat="-27.274439" lon="151.290064">
  <ele>343.1</ele>
  <time>2026-09-01T19:51:32Z</time>
  <course>270.0</course>
  <speed>0.0</speed>
  <fix>3d</fix>
</trkpt>
<trkpt lat="-27.2744392" lon="151.2900641">
  <ele>343.15</ele>
  <time>2026-09-01T19:51:32Z</time>
  <course>11.07</course>
  <speed>0.022360679774997897</speed>
  <fix>3d</fix>
</trkpt>
<trkpt lat="-27.274439" lon="151.290064">
  <ele>343.1</ele>
  <time>2026-09-01T19:51:32Z</time>
  <course>270.0</course>
  <speed>0.0</speed>
  <fix>3d</fix>
</trkpt>
<trkpt lat="-27.2744392" lon="151.2900641">
  <ele>343.16</ele>
  <time>2026-09-01T19:51:32Z</time>
  <course>11.07</course>
  <speed>0.022360679774997897</speed>
  <fix>3d</fix>
</trkpt>
<trkpt lat="-27.274439" lon="151.290064">
  <ele>343.1</ele>
  <time>2026-09-01T19:51:32Z</time>
  <course>270.0</course>
  <speed>0.0</speed>
  <fix>3d</fix>
</trkpt>
<trkpt lat="-27.2744392" lon="151.2900641">
  <ele>343.16</ele>
  <time>2026-09-01T19:51:32Z</time>
  <course>11.07</course>
  <speed>0.022360679774997897</speed>
  <fix>3d</fix>
</trkpt>
<trkpt lat="-27.274439" lon="151.290064">
  <ele>343.1</ele>
  <time>2026-09-01T19:51:32Z</time>
  <course>270.0</course>
  <speed>0.0</speed>
  <fix>3d</fix>
</trkpt>
<trkpt lat="-27.2744392" lon="151.2900641">
  <ele>343.16</ele>
  <time>2026-09-01T19:51:32Z</time>
  <course>11.07</course>
  <speed>0.022360679774997897</speed>
  <fix>3d</fix>
</trkpt>
<trkpt lat="-27.274439" lon="151.290064">
  <ele>343.1</ele>
  <time>2026-09-01T19:51:32Z</time>
  <course>270.0</course>
  <speed>0.0</speed>
  <fix>3d</fix>
</trkpt>
<trkpt lat="-27.2744392" lon="151.2900641">
  <ele>343.17</ele>
  <time>2026-09-01T19:51:32Z</time>
  <course>11.08</course>
  <speed>0.022360679774997897</speed>
  <fix>3d</fix>
</trkpt>
<trkpt lat="-27.274439" lon="151.290064">
  <ele>343.1</ele>
  <time>2026-09-01T19:51:32Z</time>
  <course>270.0</course>
  <speed>0.0</speed>
  <fix>3d</fix>
</trkpt>
<trkpt lat="-27.2744392" lon="151.2900641">
  <ele>343.17</ele>
  <time>2026-09-01T19:51:32Z</time>
  <course>11.08</course>
  <speed>0.022360679774997897</speed>
  <fix>3d</fix>
</trkpt>
<trkpt lat="-27.274439" lon="151.290064">
  <ele>343.1</ele>
  <time>2026-09-01T19:51:32Z</time>
  <course>270.0</course>
  <speed>0.0</speed>
  <fix>3d</fix>
</trkpt>
<trkpt lat="-27.2744392" lon="151.2900641">
  <ele>343.17</ele>
  <time>2026-09-01T19:51:32Z</time>
  <course>11.08</course>
  <speed>0.022360679774997897</speed>
  <fix>3d</fix>
</trkpt>
<trkpt lat="-27.274439" lon="151.290064">
  <ele>343.1</ele>
  <time>2026-09-01T19:51:32Z</time>
  <course>270.0</course>
  <speed>0.0</speed>
  <fix>3d</fix>
</trkpt>
<trkpt lat="-27.2744392" lon="151.2900641">
  <ele>343.18</ele>
  <time>2026-09-01T19:51:32Z</time>
  <course>11.08</course>
  <speed>0.022360679774997897</speed>
  <fix>3d</fix>
</trkpt>
<trkpt lat="-27.274439" lon="151.290064">
  <ele>343.1</ele>
  <time>2026-09-01T19:51:32Z</time>
  <course>270.0</course>
  <speed>0.0</speed>
  <fix>3d</fix>
</trkpt>
<trkpt lat="-27.2744392" lon="151.2900641">
  <ele>343.18</ele>
  <time>2026-09-01T19:51:32Z</time>
  <course>11.08</course>
  <speed>0.022360679774997897</speed>
  <fix>3d</fix>
</trkpt>
<trkpt lat="-27.274439" lon="151.290064">
  <ele>343.1</ele>
  <time>2026-09-01T19:51:32Z</time>
  <course>270.0</course>
  <speed>0.0</speed>
  <fix>3d</fix>
</trkpt>
<trkpt lat="-27.2744392" lon="151.2900641">
  <ele>343.18</ele>
  <time>2026-09-01T19:51:32Z</time>
  <course>11.08</course>
  <speed>0.022360679774997897</speed>
  <fix>3d</fix>
</trkpt>
<trkpt lat="-27.274439" lon="151.290064">
  <ele>343.1</ele>
  <time>2026-09-01T19:51:32Z</time>
  <course>270.0</course>
  <speed>0.0</speed>
  <fix>3d</fix>
</trkpt>
<trkpt lat="-27.2744392" lon="151.2900641">
  <ele>343.19</ele>
  <time>2026-09-01T19:51:32Z</time>
  <course>11.08</course>
  <speed>0.022360679774997897</speed>
  <fix>3d</fix>
</trkpt>
<trkpt lat="-27.274439" lon="151.290064">
  <ele>343.1</ele>
  <time>2026-09-01T19:51:32Z</time>
  <course>270.0</course>
  <speed>0.0</speed>
  <fix>3d</fix>
</trkpt>
<trkpt lat="-27.2744392" lon="151.2900641">
  <ele>343.19</ele>
  <time>2026-09-01T19:51:32Z</time>
  <course>11.08</course>
  <speed>0.022360679774997897</speed>
  <fix>3d</fix>
</trkpt>
<trkpt lat="-27.274439" lon="151.290064">
  <ele>343.1</ele>
  <time>2026-09-01T19:51:32Z</time>
  <course>270.0</course>
  <speed>0.0</speed>
  <fix>3d</fix>
</trkpt>
<trkpt lat="-27.2744392" lon="151.2900641">
  <ele>343.19</ele>
  <time>2026-09-01T19:51:32Z</time>
  <course>11.08</course>
  <speed>0.022360679774997897</speed>
  <fix>3d</fix>
</trkpt>
<trkpt lat="-27.274439" lon="151.290064">
  <ele>343.1</ele>
  <time>2026-09-01T19:51:32Z</time>
  <course>270.0</course>
  <speed>0.0</speed>
  <fix>3d</fix>
</trkpt>
<trkpt lat="-27.2744392" lon="151.2900641">
  <ele>343.19</ele>
  <time>2026-09-01T19:51:32Z</time>
  <course>11.08</course>
  <speed>0.022360679774997897</speed>
  <fix>3d</fix>
</trkpt>
<trkpt lat="-27.274439" lon="151.290064">
  <ele>343.1</ele>
  <time>2026-09-01T19:51:32Z</time>
  <course>270.0</course>
  <speed>0.0</speed>
  <fix>3d</fix>
</trkpt>
<trkpt lat="-27.2744392" lon="151.2900641">
  <ele>343.2</ele>
  <time>2026-09-01T19:51:32Z</time>
  <course>11.09</course>
  <speed>0.022360679774997897</speed>
  <fix>3d</fix>
</trkpt>
<trkpt lat="-27.274439" lon="151.290064">
  <ele>343.1</ele>
  <time>2026-09-01T19:51:32Z</time>
  <course>270.0</course>
  <speed>0.0</speed>
  <fix>3d</fix>
</trkpt>
<trkpt lat="-27.2744392" lon="151.2900641">
  <ele>343.2</ele>
  <time>2026-09-01T19:51:32Z</time>
  <course>11.09</course>
  <speed>0.022360679774997897</speed>
  <fix>3d</fix>
</trkpt>
<trkpt lat="-27.274439" lon="151.290064">
  <ele>343.1</ele>
  <time>2026-09-01T19:51:32Z</time>
  <course>270.0</course>
  <speed>0.0</speed>
  <fix>3d</fix>
</trkpt>
<trkpt lat="-27.2744392" lon="151.2900641">
  <ele>343.2</ele>
  <time>2026-09-01T19:51:32Z</time>
  <course>11.09</course>
  <speed>0.022360679774997897</speed>
  <fix>3d</fix>
</trkpt>
<trkpt lat="-27.274439" lon="151.290064">
  <ele>343.1</ele>
  <time>2026-09-01T19:51:32Z</time>
  <course>270.0</course>
  <speed>0.0</speed>
  <fix>3d</fix>
</trkpt>
<trkpt lat="-27.2744392" lon="151.2900641">
  <ele>343.21</ele>
  <time>2026-09-01T19:51:32Z</time>
  <course>11.09</course>
  <speed>0.022360679774997897</speed>
  <fix>3d</fix>
</trkpt>
<trkpt lat="-27.274439" lon="151.290064">
  <ele>343.1</ele>
  <time>2026-09-01T19:51:32Z</time>
  <course>270.0</course>
  <speed>0.0</speed>
  <fix>3d</fix>
</trkpt>
<trkpt lat="-27.2744392" lon="151.2900641">
  <ele>343.21</ele>
  <time>2026-09-01T19:51:32Z</time>
  <course>11.09</course>
  <speed>0.022360679774997897</speed>
  <fix>3d</fix>
</trkpt>
<trkpt lat="-27.274439" lon="151.290064">
  <ele>343.1</ele>
  <time>2026-09-01T19:51:32Z</time>
  <course>270.0</course>
  <speed>0.0</speed>
  <fix>3d</fix>
</trkpt>
<trkpt lat="-27.2744392" lon="151.2900641">
  <ele>343.21</ele>
  <time>2026-09-01T19:51:32Z</time>
  <course>11.09</course>
  <speed>0.022360679774997897</speed>
  <fix>3d</fix>
</trkpt>
<trkpt lat="-27.274439" lon="151.290064">
  <ele>343.1</ele>
  <time>2026-09-01T19:51:32Z</time>
  <course>270.0</course>
  <speed>0.0</speed>
  <fix>3d</fix>
</trkpt>
<trkpt lat="-27.2744392" lon="151.2900641">
  <ele>343.22</ele>
  <time>2026-09-01T19:51:32Z</time>
  <course>11.09</course>
  <speed>0.022360679774997897</speed>
  <fix>3d</fix>
</trkpt>
<trkpt lat="-27.274439" lon="151.290064">
  <ele>343.1</ele>
  <time>2026-09-01T19:51:32Z</time>
  <course>270.0</course>
  <speed>0.0</speed>
  <fix>3d</fix>
</trkpt>
<trkpt lat="-27.2744392" lon="151.2900641">
  <ele>343.22</ele>
  <time>2026-09-01T19:51:32Z</time>
  <course>11.09</course>
  <speed>0.022360679774997897</speed>
  <fix>3d</fix>
</trkpt>
<trkpt lat="-27.274439" lon="151.290064">
  <ele>343.1</ele>
  <time>2026-09-01T19:51:32Z</time>
  <course>270.0</course>
  <speed>0.0</speed>
  <fix>3d</fix>
</trkpt>
<trkpt lat="-27.2744392" lon="151.2900641">
  <ele>343.22</ele>
  <time>2026-09-01T19:51:32Z</time>
  <course>11.09</course>
  <speed>0.022360679774997897</speed>
  <fix>3d</fix>
</trkpt>
<trkpt lat="-27.274439" lon="151.290064">
  <ele>343.1</ele>
  <time>2026-09-01T19:51:32Z</time>
  <course>270.0</course>
  <speed>0.0</speed>
  <fix>3d</fix>
</trkpt>
<trkpt lat="-27.2744392" lon="151.2900641">
  <ele>343.23</ele>
  <time>2026-09-01T19:51:32Z</time>
  <course>11.1</course>
  <speed>0.022360679774997897</speed>
  <fix>3d</fix>
</trkpt>
<trkpt lat="-27.274439" lon="151.290064">
  <ele>343.1</ele>
  <time>2026-09-01T19:51:32Z</time>
  <course>270.0</course>
  <speed>0.0</speed>
  <fix>3d</fix>
</trkpt>
<trkpt lat="-27.2744392" lon="151.2900641">
  <ele>343.23</ele>
  <time>2026-09-01T19:51:32Z</time>
  <course>11.1</course>
  <speed>0.022360679774997897</speed>
  <fix>3d</fix>
</trkpt>
<trkpt lat="-27.274439" lon="151.290064">
  <ele>343.1</ele>
  <time>2026-09-01T19:51:32Z</time>
  <course>270.0</course>
  <speed>0.0</speed>
  <fix>3d</fix>
</trkpt>
<trkpt lat="-27.2744392" lon="151.2900641">
  <ele>343.23</ele>
  <time>2026-09-01T19:51:32Z</time>
  <course>11.1</course>
  <speed>0.022360679774997897</speed>
  <fix>3d</fix>
</trkpt>
<trkpt lat="-27.274439" lon="151.290064">
  <ele>343.1</ele>
  <time>2026-09-01T19:51:32Z</time>
  <course>270.0</course>
  <speed>0.0</speed>
  <fix>3d</fix>
</trkpt>
<trkpt lat="-27.2744392" lon="151.2900641">
  <ele>343.23</ele>
  <time>2026-09-01T19:51:32Z</time>
  <course>11.1</course>
  <speed>0.022360679774997897</speed>
  <fix>3d</fix>
</trkpt>
<trkpt lat="-27.274439" lon="151.290064">
  <ele>343.1</ele>
  <time>2026-09-01T19:51:32Z</time>
  <course>270.0</course>
  <speed>0.0</speed>
  <fix>3d</fix>
</trkpt>
<trkpt lat="-27.2744392" lon="151.2900641">
  <ele>343.24</ele>
  <time>2026-09-01T19:51:32Z</time>
  <course>11.1</course>
  <speed>0.022360679774997897</speed>
  <fix>3d</fix>
</trkpt>
<trkpt lat="-27.274439" lon="151.290064">
  <ele>343.1</ele>
  <time>2026-09-01T19:51:32Z</time>
  <course>270.0</course>
  <speed>0.0</speed>
  <fix>3d</fix>
</trkpt>
<trkpt lat="-27.2744392" lon="151.2900641">
  <ele>343.24</ele>
  <time>2026-09-01T19:51:32Z</time>
  <course>11.1</course>
  <speed>0.022360679774997897</speed>
  <fix>3d</fix>
</trkpt>
<trkpt lat="-27.274439" lon="151.290064">
  <ele>343.1</ele>
  <time>2026-09-01T19:51:32Z</time>
  <course>270.0</course>
  <speed>0.0</speed>
  <fix>3d</fix>
</trkpt>
<trkpt lat="-27.2744392" lon="151.2900641">
  <ele>343.24</ele>
  <time>2026-09-01T19:51:32Z</time>
  <course>11.1</course>
  <speed>0.022360679774997897</speed>
  <fix>3d</fix>
</trkpt>
<trkpt lat="-27.274439" lon="151.290064">
  <ele>343.1</ele>
  <time>2026-09-01T19:51:32Z</time>
  <course>270.0</course>
  <speed>0.0</speed>
  <fix>3d</fix>
</trkpt>
<trkpt lat="-27.2744392" lon="151.2900641">
  <ele>343.24</ele>
  <time>2026-09-01T19:51:32Z</time>
  <course>11.1</course>
  <speed>0.022360679774997897</speed>
  <fix>3d</fix>
</trkpt>
<trkpt lat="-27.274439" lon="151.290064">
  <ele>343.1</ele>
  <time>2026-09-01T19:51:32Z</time>
  <course>270.0</course>
  <speed>0.0</speed>
  <fix>3d</fix>
</trkpt>
<trkpt lat="-27.2744392" lon="151.2900641">
  <ele>343.24</ele>
  <time>2026-09-01T19:51:32Z</time>
  <course>11.1</course>
  <speed>0.022360679774997897</speed>
  <fix>3d</fix>
</trkpt>
<trkpt lat="-27.274439" lon="151.290064">
  <ele>343.1</ele>
  <time>2026-09-01T19:51:32Z</time>
  <course>270.0</course>
  <speed>0.0</speed>
  <fix>3d</fix>
</trkpt>
<trkpt lat="-27.2744392" lon="151.2900641">
  <ele>343.24</ele>
  <time>2026-09-01T19:51:32Z</time>
  <course>11.1</course>
  <speed>0.022360679774997897</speed>
  <fix>3d</fix>
</trkpt>
<trkpt lat="-27.274439" lon="151.290064">
  <ele>343.1</ele>
  <time>2026-09-01T19:51:32Z</time>
  <course>270.0</course>
  <speed>0.0</speed>
  <fix>3d</fix>
</trkpt>
<trkpt lat="-27.2744392" lon="151.2900641">
  <ele>343.24</ele>
  <time>2026-09-01T19:51:32Z</time>
  <course>11.11</course>
  <speed>0.022360679774997897</speed>
  <fix>3d</fix>
</trkpt>
<trkpt lat="-27.274439" lon="151.290064">
  <ele>343.1</ele>
  <time>2026-09-01T19:51:32Z</time>
  <course>270.0</course>
  <speed>0.0</speed>
  <fix>3d</fix>
</trkpt>
<trkpt lat="-27.2744392" lon="151.2900641">
  <ele>343.24</ele>
  <time>2026-09-01T19:51:32Z</time>
  <course>11.11</course>
  <speed>0.022360679774997897</speed>
  <fix>3d</fix>
</trkpt>
<trkpt lat="-27.274439" lon="151.290064">
  <ele>343.1</ele>
  <time>2026-09-01T19:51:32Z</time>
  <course>270.0</course>
  <speed>0.0</speed>
  <fix>3d</fix>
</trkpt>
<trkpt lat="-27.2744392" lon="151.2900641">
  <ele>343.24</ele>
  <time>2026-09-01T19:51:32Z</time>
  <course>11.11</course>
  <speed>0.022360679774997897</speed>
  <fix>3d</fix>
</trkpt>
<trkpt lat="-27.274439" lon="151.290064">
  <ele>343.1</ele>
  <time>2026-09-01T19:51:32Z</time>
  <course>270.0</course>
  <speed>0.0</speed>
  <fix>3d</fix>
</trkpt>
<trkpt lat="-27.2744392" lon="151.2900641">
  <ele>343.24</ele>
  <time>2026-09-01T19:51:32Z</time>
  <course>11.11</course>
  <speed>0.022360679774997897</speed>
  <fix>3d</fix>
</trkpt>
<trkpt lat="-27.274439" lon="151.290064">
  <ele>343.1</ele>
  <time>2026-09-01T19:51:32Z</time>
  <course>270.0</course>
  <speed>0.0</speed>
  <fix>3d</fix>
</trkpt>
<trkpt lat="-27.2744392" lon="151.2900641">
  <ele>343.24</ele>
  <time>2026-09-01T19:51:32Z</time>
  <course>11.11</course>
  <speed>0.022360679774997897</speed>
  <fix>3d</fix>
</trkpt>
<trkpt lat="-27.274439" lon="151.290064">
  <ele>343.1</ele>
  <time>2026-09-01T19:51:32Z</time>
  <course>270.0</course>
  <speed>0.0</speed>
  <fix>3d</fix>
</trkpt>
<trkpt lat="-27.2744392" lon="151.2900641">
  <ele>343.24</ele>
  <time>2026-09-01T19:51:32Z</time>
  <course>11.11</course>
  <speed>0.022360679774997897</speed>
  <fix>3d</fix>
</trkpt>
<trkpt lat="-27.274439" lon="151.290064">
  <ele>343.1</ele>
  <time>2026-09-01T19:51:32Z</time>
  <course>270.0</course>
  <speed>0.0</speed>
  <fix>3d</fix>
</trkpt>
<trkpt lat="-27.2744392" lon="151.2900641">
  <ele>343.24</ele>
  <time>2026-09-01T19:51:32Z</time>
  <course>11.11</course>
  <speed>0.022360679774997897</speed>
  <fix>3d</fix>
</trkpt>
<trkpt lat="-27.274439" lon="151.290064">
  <ele>343.1</ele>
  <time>2026-09-01T19:51:32Z</time>
  <course>270.0</course>
  <speed>0.0</speed>
  <fix>3d</fix>
</trkpt>
<trkpt lat="-27.2744392" lon="151.2900641">
  <ele>343.24</ele>
  <time>2026-09-01T19:51:32Z</time>
  <course>11.11</course>
  <speed>0.022360679774997897</speed>
  <fix>3d</fix>
</trkpt>
<trkpt lat="-27.274439" lon="151.290064">
  <ele>343.1</ele>
  <time>2026-09-01T19:51:32Z</time>
  <course>270.0</course>
  <speed>0.0</speed>
  <fix>3d</fix>
</trkpt>
<trkpt lat="-27.2744392" lon="151.2900641">
  <ele>343.1</ele>
  <time>2026-09-01T19:51:32Z</time>
  <course>11.11</course>
  <speed>0.022360679774997897</speed>
  <fix>3d</fix>
</trkpt>
<trkpt lat="-27.274439" lon="151.290064">
  <ele>343.1</ele>
  <time>2026-09-01T19:51:32Z</time>
  <course>270.0</course>
  <speed>0.0</speed>
  <fix>3d</fix>
</trkpt>
<trkpt lat="-27.2744392" lon="151.2900641">
  <ele>343.1</ele>
  <time>2026-09-01T19:51:32Z</time>
  <course>11.12</course>
  <speed>0.022360679774997897</speed>
  <fix>3d</fix>
</trkpt>
<trkpt lat="-27.274439" lon="151.290064">
  <ele>343.1</ele>
  <time>2026-09-01T19:51:32Z</time>
  <course>270.0</course>
  <speed>0.0</speed>
  <fix>3d</fix>
</trkpt>
<trkpt lat="-27.2744392" lon="151.2900641">
  <ele>343.1</ele>
  <time>2026-09-01T19:51:32Z</time>
  <course>11.12</course>
  <speed>0.022360679774997897</speed>
  <fix>3d</fix>
</trkpt>
<trkpt lat="-27.274439" lon="151.290064">
  <ele>343.1</ele>
  <time>2026-09-01T19:51:32Z</time>
  <course>270.0</course>
  <speed>0.0</speed>
  <fix>3d</fix>
</trkpt>
<trkpt lat="-27.2744392" lon="151.2900641">
  <ele>343.1</ele>
  <time>2026-09-01T19:51:32Z</time>
  <course>11.12</course>
  <speed>0.022360679774997897</speed>
  <fix>3d</fix>
</trkpt>
<trkpt lat="-27.274439" lon="151.290064">
  <ele>343.1</ele>
  <time>2026-09-01T19:51:32Z</time>
  <course>270.0</course>
  <speed>0.0</speed>
  <fix>3d</fix>
</trkpt>
<trkpt lat="-27.2744392" lon="151.2900641">
  <ele>343.1</ele>
  <time>2026-09-01T19:51:32Z</time>
  <course>11.12</course>
  <speed>0.022360679774997897</speed>
  <fix>3d</fix>
</trkpt>
<trkpt lat="-27.274439" lon="151.290064">
  <ele>343.1</ele>
  <time>2026-09-01T19:51:32Z</time>
  <course>270.0</course>
  <speed>0.0</speed>
  <fix>3d</fix>
</trkpt>
<trkpt lat="-27.2744392" lon="151.2900641">
  <ele>343.1</ele>
  <time>2026-09-01T19:51:32Z</time>
  <course>11.12</course>
  <speed>0.022360679774997897</speed>
  <fix>3d</fix>
</trkpt>
<trkpt lat="-27.274439" lon="151.290064">
  <ele>343.1</ele>
  <time>2026-09-01T19:51:32Z</time>
  <course>270.0</course>
  <speed>0.0</speed>
  <fix>3d</fix>
</trkpt>
<trkpt lat="-27.2744392" lon="151.2900641">
  <ele>343.1</ele>
  <time>2026-09-01T19:51:32Z</time>
  <course>11.12</course>
  <speed>0.022360679774997897</speed>
  <fix>3d</fix>
</trkpt>
<trkpt lat="-27.274439" lon="151.290064">
  <ele>343.1</ele>
  <time>2026-09-01T19:51:32Z</time>
  <course>270.0</course>
  <speed>0.0</speed>
  <fix>3d</fix>
</trkpt>
<trkpt lat="-27.2744392" lon="151.2900641">
  <ele>343.09</ele>
  <time>2026-09-01T19:51:32Z</time>
  <course>11.12</course>
  <speed>0.022360679774997897</speed>
  <fix>3d</fix>
</trkpt>
<trkpt lat="-27.274439" lon="151.290064">
  <ele>343.1</ele>
  <time>2026-09-01T19:51:32Z</time>
  <course>270.0</course>
  <speed>0.0</speed>
  <fix>3d</fix>
</trkpt>
<trkpt lat="-27.2744392" lon="151.2900641">
  <ele>343.09</ele>
  <time>2026-09-01T19:51:32Z</time>
  <course>11.12</course>
  <speed>0.022360679774997897</speed>
  <fix>3d</fix>
</trkpt>
<trkpt lat="-27.274439" lon="151.290064">
  <ele>343.1</ele>
  <time>2026-09-01T19:51:32Z</time>
  <course>270.0</course>
  <speed>0.0</speed>
  <fix>3d</fix>
</trkpt>
<trkpt lat="-27.2744392" lon="151.2900641">
  <ele>343.09</ele>
  <time>2026-09-01T19:51:32Z</time>
  <course>11.12</course>
  <speed>0.022360679774997897</speed>
  <fix>3d</fix>
</trkpt>
<trkpt lat="-27.274439" lon="151.290064">
  <ele>343.1</ele>
  <time>2026-09-01T19:51:32Z</time>
  <course>270.0</course>
  <speed>0.0</speed>
  <fix>3d</fix>
</trkpt>
<trkpt lat="-27.2744392" lon="151.2900641">
  <ele>343.09</ele>
  <time>2026-09-01T19:51:32Z</time>
  <course>11.13</course>
  <speed>0.022360679774997897</speed>
  <fix>3d</fix>
</trkpt>
<trkpt lat="-27.274439" lon="151.290064">
  <ele>343.1</ele>
  <time>2026-09-01T19:51:32Z</time>
  <course>270.0</course>
  <speed>0.0</speed>
  <fix>3d</fix>
</trkpt>
<trkpt lat="-27.2744392" lon="151.2900641">
  <ele>343.09</ele>
  <time>2026-09-01T19:51:32Z</time>
  <course>11.13</course>
  <speed>0.022360679774997897</speed>
  <fix>3d</fix>
</trkpt>
<trkpt lat="-27.274439" lon="151.290064">
  <ele>343.1</ele>
  <time>2026-09-01T19:51:32Z</time>
  <course>270.0</course>
  <speed>0.0</speed>
  <fix>3d</fix>
</trkpt>
<trkpt lat="-27.2744392" lon="151.2900641">
  <ele>343.08</ele>
  <time>2026-09-01T19:51:32Z</time>
  <course>11.13</course>
  <speed>0.022360679774997897</speed>
  <fix>3d</fix>
</trkpt>
<trkpt lat="-27.274439" lon="151.290064">
  <ele>343.1</ele>
  <time>2026-09-01T19:51:32Z</time>
  <course>270.0</course>
  <speed>0.0</speed>
  <fix>3d</fix>
</trkpt>
<trkpt lat="-27.2744392" lon="151.2900641">
  <ele>343.08</ele>
  <time>2026-09-01T19:51:32Z</time>
  <course>11.13</course>
  <speed>0.022360679774997897</speed>
  <fix>3d</fix>
</trkpt>
<trkpt lat="-27.274439" lon="151.290064">
  <ele>343.1</ele>
  <time>2026-09-01T19:51:32Z</time>
  <course>270.0</course>
  <speed>0.0</speed>
  <fix>3d</fix>
</trkpt>
<trkpt lat="-27.2744392" lon="151.2900641">
  <ele>343.08</ele>
  <time>2026-09-01T19:51:32Z</time>
  <course>11.13</course>
  <speed>0.022360679774997897</speed>
  <fix>3d</fix>
</trkpt>
<trkpt lat="-27.274439" lon="151.290064">
  <ele>343.1</ele>
  <time>2026-09-01T19:51:32Z</time>
  <course>270.0</course>
  <speed>0.0</speed>
  <fix>3d</fix>
</trkpt>
<trkpt lat="-27.2744392" lon="151.2900641">
  <ele>343.09</ele>
  <time>2026-09-01T19:51:32Z</time>
  <course>11.13</course>
  <speed>0.022360679774997897</speed>
  <fix>3d</fix>
</trkpt>
<trkpt lat="-27.274439" lon="151.290064">
  <ele>343.1</ele>
  <time>2026-09-01T19:51:32Z</time>
  <course>270.0</course>
  <speed>0.0</speed>
  <fix>3d</fix>
</trkpt>
<trkpt lat="-27.2744392" lon="151.2900641">
  <ele>343.09</ele>
  <time>2026-09-01T19:51:32Z</time>
  <course>11.13</course>
  <speed>0.022360679774997897</speed>
  <fix>3d</fix>
</trkpt>
<trkpt lat="-27.274439" lon="151.290064">
  <ele>343.1</ele>
  <time>2026-09-01T19:51:32Z</time>
  <course>270.0</course>
  <speed>0.0</speed>
  <fix>3d</fix>
</trkpt>
<trkpt lat="-27.2744392" lon="151.2900641">
  <ele>343.09</ele>
  <time>2026-09-01T19:51:32Z</time>
  <course>11.13</course>
  <speed>0.022360679774997897</speed>
  <fix>3d</fix>
</trkpt>
<trkpt lat="-27.274439" lon="151.290064">
  <ele>343.1</ele>
  <time>2026-09-01T19:51:32Z</time>
  <course>270.0</course>
  <speed>0.0</speed>
  <fix>3d</fix>
</trkpt>
<trkpt lat="-27.2744392" lon="151.2900641">
  <ele>343.09</ele>
  <time>2026-09-01T19:51:32Z</time>
  <course>11.13</course>
  <speed>0.022360679774997897</speed>
  <fix>3d</fix>
</trkpt>
<trkpt lat="-27.274439" lon="151.290064">
  <ele>343.1</ele>
  <time>2026-09-01T19:51:32Z</time>
  <course>270.0</course>
  <speed>0.0</speed>
  <fix>3d</fix>
</trkpt>
<trkpt lat="-27.2744392" lon="151.2900641">
  <ele>343.09</ele>
  <time>2026-09-01T19:51:32Z</time>
  <course>11.13</course>
  <speed>0.022360679774997897</speed>
  <fix>3d</fix>
</trkpt>
<trkpt lat="-27.274439" lon="151.290064">
  <ele>343.1</ele>
  <time>2026-09-01T19:51:32Z</time>
  <course>270.0</course>
  <speed>0.0</speed>
  <fix>3d</fix>
</trkpt>
<trkpt lat="-27.2744392" lon="151.2900641">
  <ele>343.09</ele>
  <time>2026-09-01T19:51:32Z</time>
  <course>11.14</course>
  <speed>0.022360679774997897</speed>
  <fix>3d</fix>
</trkpt>
<trkpt lat="-27.274439" lon="151.290064">
  <ele>343.1</ele>
  <time>2026-09-01T19:51:32Z</time>
  <course>270.0</course>
  <speed>0.0</speed>
  <fix>3d</fix>
</trkpt>
<trkpt lat="-27.2744392" lon="151.2900641">
  <ele>343.09</ele>
  <time>2026-09-01T19:51:32Z</time>
  <course>11.14</course>
  <speed>0.022360679774997897</speed>
  <fix>3d</fix>
</trkpt>
<trkpt lat="-27.274439" lon="151.290064">
  <ele>343.1</ele>
  <time>2026-09-01T19:51:32Z</time>
  <course>270.0</course>
  <speed>0.0</speed>
  <fix>3d</fix>
</trkpt>
<trkpt lat="-27.2744392" lon="151.2900641">
  <ele>343.09</ele>
  <time>2026-09-01T19:51:32Z</time>
  <course>11.14</course>
  <speed>0.022360679774997897</speed>
  <fix>3d</fix>
</trkpt>
<trkpt lat="-27.274439" lon="151.290064">
  <ele>343.1</ele>
  <time>2026-09-01T19:51:32Z</time>
  <course>270.0</course>
  <speed>0.0</speed>
  <fix>3d</fix>
</trkpt>
<trkpt lat="-27.2744392" lon="151.2900641">
  <ele>343.09</ele>
  <time>2026-09-01T19:51:32Z</time>
  <course>11.14</course>
  <speed>0.022360679774997897</speed>
  <fix>3d</fix>
</trkpt>
<trkpt lat="-27.274439" lon="151.290064">
  <ele>343.1</ele>
  <time>2026-09-01T19:51:32Z</time>
  <course>270.0</course>
  <speed>0.0</speed>
  <fix>3d</fix>
</trkpt>
<trkpt lat="-27.2744392" lon="151.2900641">
  <ele>343.09</ele>
  <time>2026-09-01T19:51:32Z</time>
  <course>11.14</course>
  <speed>0.022360679774997897</speed>
  <fix>3d</fix>
</trkpt>
<trkpt lat="-27.274439" lon="151.290064">
  <ele>343.1</ele>
  <time>2026-09-01T19:51:32Z</time>
  <course>270.0</course>
  <speed>0.0</speed>
  <fix>3d</fix>
</trkpt>
<trkpt lat="-27.2744392" lon="151.2900641">
  <ele>343.09</ele>
  <time>2026-09-01T19:51:32Z</time>
  <course>11.14</course>
  <speed>0.022360679774997897</speed>
  <fix>3d</fix>
</trkpt>
<trkpt lat="-27.274439" lon="151.290064">
  <ele>343.1</ele>
  <time>2026-09-01T19:51:32Z</time>
  <course>270.0</course>
  <speed>0.0</speed>
  <fix>3d</fix>
</trkpt>
<trkpt lat="-27.2744392" lon="151.2900641">
  <ele>343.09</ele>
  <time>2026-09-01T19:51:32Z</time>
  <course>11.14</course>
  <speed>0.022360679774997897</speed>
  <fix>3d</fix>
</trkpt>
<trkpt lat="-27.274439" lon="151.290064">
  <ele>343.1</ele>
  <time>2026-09-01T19:51:32Z</time>
  <course>270.0</course>
  <speed>0.0</speed>
  <fix>3d</fix>
</trkpt>
<trkpt lat="-27.2744392" lon="151.2900641">
  <ele>343.08</ele>
  <time>2026-09-01T19:51:32Z</time>
  <course>11.14</course>
  <speed>0.022360679774997897</speed>
  <fix>3d</fix>
</trkpt>
<trkpt lat="-27.274439" lon="151.290064">
  <ele>343.1</ele>
  <time>2026-09-01T19:51:32Z</time>
  <course>270.0</course>
  <speed>0.0</speed>
  <fix>3d</fix>
</trkpt>
<trkpt lat="-27.2744392" lon="151.2900641">
  <ele>343.08</ele>
  <time>2026-09-01T19:51:32Z</time>
  <course>11.14</course>
  <speed>0.022360679774997897</speed>
  <fix>3d</fix>
</trkpt>
<trkpt lat="-27.274439" lon="151.290064">
  <ele>343.1</ele>
  <time>2026-09-01T19:51:32Z</time>
  <course>270.0</course>
  <speed>0.0</speed>
  <fix>3d</fix>
</trkpt>
<trkpt lat="-27.2744392" lon="151.2900641">
  <ele>343.08</ele>
  <time>2026-09-01T19:51:32Z</time>
  <course>11.15</course>
  <speed>0.022360679774997897</speed>
  <fix>3d</fix>
</trkpt>
<trkpt lat="-27.274439" lon="151.290064">
  <ele>343.1</ele>
  <time>2026-09-01T19:51:32Z</time>
  <course>270.0</course>
  <speed>0.0</speed>
  <fix>3d</fix>
</trkpt>
<trkpt lat="-27.2744392" lon="151.2900641">
  <ele>343.08</ele>
  <time>2026-09-01T19:51:32Z</time>
  <course>11.15</course>
  <speed>0.022360679774997897</speed>
  <fix>3d</fix>
</trkpt>
<trkpt lat="-27.274439" lon="151.290064">
  <ele>343.1</ele>
  <time>2026-09-01T19:51:32Z</time>
  <course>270.0</course>
  <speed>0.0</speed>
  <fix>3d</fix>
</trkpt>
<trkpt lat="-27.2744392" lon="151.2900641">
  <ele>343.08</ele>
  <time>2026-09-01T19:51:32Z</time>
  <course>11.15</course>
  <speed>0.022360679774997897</speed>
  <fix>3d</fix>
</trkpt>
<trkpt lat="-27.274439" lon="151.290064">
  <ele>343.1</ele>
  <time>2026-09-01T19:51:32Z</time>
  <course>270.0</course>
  <speed>0.0</speed>
  <fix>3d</fix>
</trkpt>
<trkpt lat="-27.2744392" lon="151.2900641">
  <ele>343.08</ele>
  <time>2026-09-01T19:51:32Z</time>
  <course>11.15</course>
  <speed>0.022360679774997897</speed>
  <fix>3d</fix>
</trkpt>
<trkpt lat="-27.274439" lon="151.290064">
  <ele>343.1</ele>
  <time>2026-09-01T19:51:32Z</time>
  <course>270.0</course>
  <speed>0.0</speed>
  <fix>3d</fix>
</trkpt>
<trkpt lat="-27.2744392" lon="151.2900641">
  <ele>343.08</ele>
  <time>2026-09-01T19:51:32Z</time>
  <course>11.15</course>
  <speed>0.022360679774997897</speed>
  <fix>3d</fix>
</trkpt>
<trkpt lat="-27.274439" lon="151.290064">
  <ele>343.1</ele>
  <time>2026-09-01T19:51:32Z</time>
  <course>270.0</course>
  <speed>0.0</speed>
  <fix>3d</fix>
</trkpt>
<trkpt lat="-27.2744392" lon="151.2900641">
  <ele>343.08</ele>
  <time>2026-09-01T19:51:32Z</time>
  <course>11.15</course>
  <speed>0.022360679774997897</speed>
  <fix>3d</fix>
</trkpt>
<trkpt lat="-27.274439" lon="151.290064">
  <ele>343.1</ele>
  <time>2026-09-01T19:51:32Z</time>
  <course>270.0</course>
  <speed>0.0</speed>
  <fix>3d</fix>
</trkpt>
<trkpt lat="-27.2744392" lon="151.2900641">
  <ele>343.08</ele>
  <time>2026-09-01T19:51:32Z</time>
  <course>11.15</course>
  <speed>0.022360679774997897</speed>
  <fix>3d</fix>
</trkpt>
<trkpt lat="-27.274439" lon="151.290064">
  <ele>343.1</ele>
  <time>2026-09-01T19:51:32Z</time>
  <course>270.0</course>
  <speed>0.0</speed>
  <fix>3d</fix>
</trkpt>
<trkpt lat="-27.2744392" lon="151.2900641">
  <ele>343.08</ele>
  <time>2026-09-01T19:51:32Z</time>
  <course>11.15</course>
  <speed>0.022360679774997897</speed>
  <fix>3d</fix>
</trkpt>
<trkpt lat="-27.274439" lon="151.290064">
  <ele>343.1</ele>
  <time>2026-09-01T19:51:32Z</time>
  <course>270.0</course>
  <speed>0.0</speed>
  <fix>3d</fix>
</trkpt>
<trkpt lat="-27.2744392" lon="151.2900641">
  <ele>343.08</ele>
  <time>2026-09-01T19:51:33Z</time>
  <course>11.15</course>
  <speed>0.022360679774997897</speed>
  <fix>3d</fix>
</trkpt>
<trkpt lat="-27.274439" lon="151.290064">
  <ele>343.1</ele>
  <time>2026-09-01T19:51:33Z</time>
  <course>270.0</course>
  <speed>0.0</speed>
  <fix>3d</fix>
</trkpt>
<trkpt lat="-27.2744392" lon="151.2900641">
  <ele>343.08</ele>
  <time>2026-09-01T19:51:33Z</time>
  <course>11.15</course>
  <speed>0.022360679774997897</speed>
  <fix>3d</fix>
</trkpt>
<trkpt lat="-27.274439" lon="151.290064">
  <ele>343.1</ele>
  <time>2026-09-01T19:51:33Z</time>
  <course>270.0</course>
  <speed>0.0</speed>
  <fix>3d</fix>
</trkpt>
<trkpt lat="-27.2744392" lon="151.2900641">
  <ele>343.08</ele>
  <time>2026-09-01T19:51:33Z</time>
  <course>11.16</course>
  <speed>0.022360679774997897</speed>
  <fix>3d</fix>
</trkpt>
<trkpt lat="-27.274439" lon="151.290064">
  <ele>343.1</ele>
  <time>2026-09-01T19:51:33Z</time>
  <course>270.0</course>
  <speed>0.0</speed>
  <fix>3d</fix>
</trkpt>
<trkpt lat="-27.2744392" lon="151.2900641">
  <ele>343.08</ele>
  <time>2026-09-01T19:51:33Z</time>
  <course>11.16</course>
  <speed>0.022360679774997897</speed>
  <fix>3d</fix>
</trkpt>
<trkpt lat="-27.274439" lon="151.290064">
  <ele>343.1</ele>
  <time>2026-09-01T19:51:33Z</time>
  <course>270.0</course>
  <speed>0.0</speed>
  <fix>3d</fix>
</trkpt>
<trkpt lat="-27.2744392" lon="151.2900641">
  <ele>343.08</ele>
  <time>2026-09-01T19:51:33Z</time>
  <course>11.16</course>
  <speed>0.022360679774997897</speed>
  <fix>3d</fix>
</trkpt>
<trkpt lat="-27.274439" lon="151.290064">
  <ele>343.1</ele>
  <time>2026-09-01T19:51:33Z</time>
  <course>270.0</course>
  <speed>0.0</speed>
  <fix>3d</fix>
</trkpt>
<trkpt lat="-27.2744392" lon="151.2900641">
  <ele>343.08</ele>
  <time>2026-09-01T19:51:33Z</time>
  <course>11.16</course>
  <speed>0.022360679774997897</speed>
  <fix>3d</fix>
</trkpt>
<trkpt lat="-27.274439" lon="151.290064">
  <ele>343.1</ele>
  <time>2026-09-01T19:51:33Z</time>
  <course>270.0</course>
  <speed>0.0</speed>
  <fix>3d</fix>
</trkpt>
<trkpt lat="-27.2744392" lon="151.2900641">
  <ele>343.08</ele>
  <time>2026-09-01T19:51:33Z</time>
  <course>11.16</course>
  <speed>0.022360679774997897</speed>
  <fix>3d</fix>
</trkpt>
<trkpt lat="-27.274439" lon="151.290064">
  <ele>343.1</ele>
  <time>2026-09-01T19:51:33Z</time>
  <course>270.0</course>
  <speed>0.0</speed>
  <fix>3d</fix>
</trkpt>
<trkpt lat="-27.2744392" lon="151.2900641">
  <ele>343.08</ele>
  <time>2026-09-01T19:51:33Z</time>
  <course>11.16</course>
  <speed>0.022360679774997897</speed>
  <fix>3d</fix>
</trkpt>
<trkpt lat="-27.274439" lon="151.290064">
  <ele>343.1</ele>
  <time>2026-09-01T19:51:33Z</time>
  <course>270.0</course>
  <speed>0.0</speed>
  <fix>3d</fix>
</trkpt>
<trkpt lat="-27.2744392" lon="151.2900641">
  <ele>343.08</ele>
  <time>2026-09-01T19:51:33Z</time>
  <course>11.16</course>
  <speed>0.022360679774997897</speed>
  <fix>3d</fix>
</trkpt>
<trkpt lat="-27.274439" lon="151.290064">
  <ele>343.1</ele>
  <time>2026-09-01T19:51:33Z</time>
  <course>270.0</course>
  <speed>0.0</speed>
  <fix>3d</fix>
</trkpt>
<trkpt lat="-27.2744392" lon="151.2900641">
  <ele>343.07</ele>
  <time>2026-09-01T19:51:33Z</time>
  <course>11.16</course>
  <speed>0.022360679774997897</speed>
  <fix>3d</fix>
</trkpt>
<trkpt lat="-27.274439" lon="151.290064">
  <ele>343.1</ele>
  <time>2026-09-01T19:51:33Z</time>
  <course>270.0</course>
  <speed>0.0</speed>
  <fix>3d</fix>
</trkpt>
<trkpt lat="-27.2744392" lon="151.2900641">
  <ele>343.07</ele>
  <time>2026-09-01T19:51:33Z</time>
  <course>11.16</course>
  <speed>0.022360679774997897</speed>
  <fix>3d</fix>
</trkpt>
<trkpt lat="-27.274439" lon="151.290064">
  <ele>343.1</ele>
  <time>2026-09-01T19:51:33Z</time>
  <course>270.0</course>
  <speed>0.0</speed>
  <fix>3d</fix>
</trkpt>
<trkpt lat="-27.2744392" lon="151.2900641">
  <ele>343.07</ele>
  <time>2026-09-01T19:51:33Z</time>
  <course>11.17</course>
  <speed>0.022360679774997897</speed>
  <fix>3d</fix>
</trkpt>
<trkpt lat="-27.274439" lon="151.290064">
  <ele>343.1</ele>
  <time>2026-09-01T19:51:33Z</time>
  <course>270.0</course>
  <speed>0.0</speed>
  <fix>3d</fix>
</trkpt>
<trkpt lat="-27.2744392" lon="151.2900641">
  <ele>343.07</ele>
  <time>2026-09-01T19:51:33Z</time>
  <course>11.17</course>
  <speed>0.022360679774997897</speed>
  <fix>3d</fix>
</trkpt>
<trkpt lat="-27.274439" lon="151.290064">
  <ele>343.1</ele>
  <time>2026-09-01T19:51:33Z</time>
  <course>270.0</course>
  <speed>0.0</speed>
  <fix>3d</fix>
</trkpt>
<trkpt lat="-27.2744392" lon="151.2900641">
  <ele>343.07</ele>
  <time>2026-09-01T19:51:33Z</time>
  <course>11.17</course>
  <speed>0.022360679774997897</speed>
  <fix>3d</fix>
</trkpt>
<trkpt lat="-27.274439" lon="151.290064">
  <ele>343.1</ele>
  <time>2026-09-01T19:51:33Z</time>
  <course>270.0</course>
  <speed>0.0</speed>
  <fix>3d</fix>
</trkpt>
<trkpt lat="-27.2744392" lon="151.2900641">
  <ele>343.07</ele>
  <time>2026-09-01T19:51:33Z</time>
  <course>11.17</course>
  <speed>0.022360679774997897</speed>
  <fix>3d</fix>
</trkpt>
<trkpt lat="-27.274439" lon="151.290064">
  <ele>343.1</ele>
  <time>2026-09-01T19:51:33Z</time>
  <course>270.0</course>
  <speed>0.0</speed>
  <fix>3d</fix>
</trkpt>
<trkpt lat="-27.2744392" lon="151.2900641">
  <ele>343.07</ele>
  <time>2026-09-01T19:51:33Z</time>
  <course>11.17</course>
  <speed>0.022360679774997897</speed>
  <fix>3d</fix>
</trkpt>
<trkpt lat="-27.274439" lon="151.290064">
  <ele>343.1</ele>
  <time>2026-09-01T19:51:33Z</time>
  <course>270.0</course>
  <speed>0.0</speed>
  <fix>3d</fix>
</trkpt>
<trkpt lat="-27.2744392" lon="151.2900641">
  <ele>343.07</ele>
  <time>2026-09-01T19:51:33Z</time>
  <course>11.17</course>
  <speed>0.022360679774997897</speed>
  <fix>3d</fix>
</trkpt>
<trkpt lat="-27.274439" lon="151.290064">
  <ele>343.1</ele>
  <time>2026-09-01T19:51:33Z</time>
  <course>270.0</course>
  <speed>0.0</speed>
  <fix>3d</fix>
</trkpt>
<trkpt lat="-27.2744392" lon="151.2900641">
  <ele>343.07</ele>
  <time>2026-09-01T19:51:33Z</time>
  <course>11.17</course>
  <speed>0.022360679774997897</speed>
  <fix>3d</fix>
</trkpt>
<trkpt lat="-27.274439" lon="151.290064">
  <ele>343.1</ele>
  <time>2026-09-01T19:51:33Z</time>
  <course>270.0</course>
  <speed>0.0</speed>
  <fix>3d</fix>
</trkpt>
<trkpt lat="-27.2744392" lon="151.2900641">
  <ele>343.07</ele>
  <time>2026-09-01T19:51:33Z</time>
  <course>11.17</course>
  <speed>0.022360679774997897</speed>
  <fix>3d</fix>
</trkpt>
<trkpt lat="-27.274439" lon="151.290064">
  <ele>343.1</ele>
  <time>2026-09-01T19:51:33Z</time>
  <course>270.0</course>
  <speed>0.0</speed>
  <fix>3d</fix>
</trkpt>
<trkpt lat="-27.2744392" lon="151.2900641">
  <ele>343.07</ele>
  <time>2026-09-01T19:51:33Z</time>
  <course>11.17</course>
  <speed>0.022360679774997897</speed>
  <fix>3d</fix>
</trkpt>
<trkpt lat="-27.274439" lon="151.290064">
  <ele>343.1</ele>
  <time>2026-09-01T19:51:33Z</time>
  <course>270.0</course>
  <speed>0.0</speed>
  <fix>3d</fix>
</trkpt>
<trkpt lat="-27.2744392" lon="151.2900641">
  <ele>343.07</ele>
  <time>2026-09-01T19:51:33Z</time>
  <course>11.18</course>
  <speed>0.022360679774997897</speed>
  <fix>3d</fix>
</trkpt>
<trkpt lat="-27.274439" lon="151.290064">
  <ele>343.1</ele>
  <time>2026-09-01T19:51:33Z</time>
  <course>270.0</course>
  <speed>0.0</speed>
  <fix>3d</fix>
</trkpt>
<trkpt lat="-27.2744392" lon="151.2900641">
  <ele>343.07</ele>
  <time>2026-09-01T19:51:33Z</time>
  <course>11.18</course>
  <speed>0.022360679774997897</speed>
  <fix>3d</fix>
</trkpt>
<trkpt lat="-27.274439" lon="151.290064">
  <ele>343.1</ele>
  <time>2026-09-01T19:51:33Z</time>
  <course>270.0</course>
  <speed>0.0</speed>
  <fix>3d</fix>
</trkpt>
<trkpt lat="-27.2744392" lon="151.2900641">
  <ele>343.07</ele>
  <time>2026-09-01T19:51:33Z</time>
  <course>11.18</course>
  <speed>0.022360679774997897</speed>
  <fix>3d</fix>
</trkpt>
<trkpt lat="-27.274439" lon="151.290064">
  <ele>343.1</ele>
  <time>2026-09-01T19:51:33Z</time>
  <course>270.0</course>
  <speed>0.0</speed>
  <fix>3d</fix>
</trkpt>
<trkpt lat="-27.2744392" lon="151.2900641">
  <ele>343.09</ele>
  <time>2026-09-01T19:51:33Z</time>
  <course>11.18</course>
  <speed>0.022360679774997897</speed>
  <fix>3d</fix>
</trkpt>
<trkpt lat="-27.274439" lon="151.290064">
  <ele>343.1</ele>
  <time>2026-09-01T19:51:33Z</time>
  <course>270.0</course>
  <speed>0.0</speed>
  <fix>3d</fix>
</trkpt>
<trkpt lat="-27.2744392" lon="151.2900641">
  <ele>343.1</ele>
  <time>2026-09-01T19:51:33Z</time>
  <course>11.18</course>
  <speed>0.022360679774997897</speed>
  <fix>3d</fix>
</trkpt>
<trkpt lat="-27.274439" lon="151.290064">
  <ele>343.1</ele>
  <time>2026-09-01T19:51:33Z</time>
  <course>270.0</course>
  <speed>0.0</speed>
  <fix>3d</fix>
</trkpt>
<trkpt lat="-27.2744392" lon="151.2900641">
  <ele>343.1</ele>
  <time>2026-09-01T19:51:33Z</time>
  <course>11.18</course>
  <speed>0.022360679774997897</speed>
  <fix>3d</fix>
</trkpt>
<trkpt lat="-27.274439" lon="151.290064">
  <ele>343.1</ele>
  <time>2026-09-01T19:51:33Z</time>
  <course>270.0</course>
  <speed>0.0</speed>
  <fix>3d</fix>
</trkpt>
<trkpt lat="-27.2744392" lon="151.2900641">
  <ele>343.09</ele>
  <time>2026-09-01T19:51:33Z</time>
  <course>11.18</course>
  <speed>0.022360679774997897</speed>
  <fix>3d</fix>
</trkpt>
<trkpt lat="-27.274439" lon="151.290064">
  <ele>343.1</ele>
  <time>2026-09-01T19:51:33Z</time>
  <course>270.0</course>
  <speed>0.0</speed>
  <fix>3d</fix>
</trkpt>
<trkpt lat="-27.2744392" lon="151.2900641">
  <ele>343.09</ele>
  <time>2026-09-01T19:51:33Z</time>
  <course>11.18</course>
  <speed>0.022360679774997897</speed>
  <fix>3d</fix>
</trkpt>
<trkpt lat="-27.274439" lon="151.290064">
  <ele>343.1</ele>
  <time>2026-09-01T19:51:33Z</time>
  <course>270.0</course>
  <speed>0.0</speed>
  <fix>3d</fix>
</trkpt>
<trkpt lat="-27.2744392" lon="151.2900641">
  <ele>343.09</ele>
  <time>2026-09-01T19:51:33Z</time>
  <course>11.18</course>
  <speed>0.022360679774997897</speed>
  <fix>3d</fix>
</trkpt>
<trkpt lat="-27.274439" lon="151.290064">
  <ele>343.1</ele>
  <time>2026-09-01T19:51:33Z</time>
  <course>270.0</course>
  <speed>0.0</speed>
  <fix>3d</fix>
</trkpt>
<trkpt lat="-27.2744392" lon="151.2900641">
  <ele>343.09</ele>
  <time>2026-09-01T19:51:33Z</time>
  <course>11.19</course>
  <speed>0.022360679774997897</speed>
  <fix>3d</fix>
</trkpt>
<trkpt lat="-27.274439" lon="151.290064">
  <ele>343.1</ele>
  <time>2026-09-01T19:51:33Z</time>
  <course>270.0</course>
  <speed>0.0</speed>
  <fix>3d</fix>
</trkpt>
<trkpt lat="-27.2744392" lon="151.2900641">
  <ele>343.08</ele>
  <time>2026-09-01T19:51:33Z</time>
  <course>11.19</course>
  <speed>0.022360679774997897</speed>
  <fix>3d</fix>
</trkpt>
<trkpt lat="-27.274439" lon="151.290064">
  <ele>343.1</ele>
  <time>2026-09-01T19:51:33Z</time>
  <course>270.0</course>
  <speed>0.0</speed>
  <fix>3d</fix>
</trkpt>
<trkpt lat="-27.2744392" lon="151.2900641">
  <ele>343.08</ele>
  <time>2026-09-01T19:51:33Z</time>
  <course>11.19</course>
  <speed>0.022360679774997897</speed>
  <fix>3d</fix>
</trkpt>
<trkpt lat="-27.274439" lon="151.290064">
  <ele>343.1</ele>
  <time>2026-09-01T19:51:33Z</time>
  <course>270.0</course>
  <speed>0.0</speed>
  <fix>3d</fix>
</trkpt>
<trkpt lat="-27.2744392" lon="151.2900641">
  <ele>343.08</ele>
  <time>2026-09-01T19:51:33Z</time>
  <course>11.19</course>
  <speed>0.022360679774997897</speed>
  <fix>3d</fix>
</trkpt>
<trkpt lat="-27.274439" lon="151.290064">
  <ele>343.1</ele>
  <time>2026-09-01T19:51:33Z</time>
  <course>270.0</course>
  <speed>0.0</speed>
  <fix>3d</fix>
</trkpt>
<trkpt lat="-27.2744392" lon="151.2900641">
  <ele>343.07</ele>
  <time>2026-09-01T19:51:33Z</time>
  <course>11.19</course>
  <speed>0.022360679774997897</speed>
  <fix>3d</fix>
</trkpt>
<trkpt lat="-27.274439" lon="151.290064">
  <ele>343.1</ele>
  <time>2026-09-01T19:51:33Z</time>
  <course>270.0</course>
  <speed>0.0</speed>
  <fix>3d</fix>
</trkpt>
<trkpt lat="-27.2744392" lon="151.2900641">
  <ele>343.07</ele>
  <time>2026-09-01T19:51:33Z</time>
  <course>11.19</course>
  <speed>0.022360679774997897</speed>
  <fix>3d</fix>
</trkpt>
<trkpt lat="-27.274439" lon="151.290064">
  <ele>343.1</ele>
  <time>2026-09-01T19:51:33Z</time>
  <course>270.0</course>
  <speed>0.0</speed>
  <fix>3d</fix>
</trkpt>
<trkpt lat="-27.2744392" lon="151.2900641">
  <ele>343.06</ele>
  <time>2026-09-01T19:51:33Z</time>
  <course>11.19</course>
  <speed>0.022360679774997897</speed>
  <fix>3d</fix>
</trkpt>
<trkpt lat="-27.274439" lon="151.290064">
  <ele>343.1</ele>
  <time>2026-09-01T19:51:33Z</time>
  <course>270.0</course>
  <speed>0.0</speed>
  <fix>3d</fix>
</trkpt>
<trkpt lat="-27.2744392" lon="151.2900641">
  <ele>343.06</ele>
  <time>2026-09-01T19:51:33Z</time>
  <course>11.19</course>
  <speed>0.022360679774997897</speed>
  <fix>3d</fix>
</trkpt>
<trkpt lat="-27.274439" lon="151.290064">
  <ele>343.1</ele>
  <time>2026-09-01T19:51:33Z</time>
  <course>270.0</course>
  <speed>0.0</speed>
  <fix>3d</fix>
</trkpt>
<trkpt lat="-27.2744392" lon="151.2900641">
  <ele>343.06</ele>
  <time>2026-09-01T19:51:33Z</time>
  <course>11.19</course>
  <speed>0.022360679774997897</speed>
  <fix>3d</fix>
</trkpt>
<trkpt lat="-27.274439" lon="151.290064">
  <ele>343.1</ele>
  <time>2026-09-01T19:51:33Z</time>
  <course>270.0</course>
  <speed>0.0</speed>
  <fix>3d</fix>
</trkpt>
<trkpt lat="-27.2744392" lon="151.2900641">
  <ele>343.05</ele>
  <time>2026-09-01T19:51:33Z</time>
  <course>11.19</course>
  <speed>0.022360679774997897</speed>
  <fix>3d</fix>
</trkpt>
<trkpt lat="-27.274439" lon="151.290064">
  <ele>343.1</ele>
  <time>2026-09-01T19:51:33Z</time>
  <course>270.0</course>
  <speed>0.0</speed>
  <fix>3d</fix>
</trkpt>
<trkpt lat="-27.2744392" lon="151.2900641">
  <ele>343.05</ele>
  <time>2026-09-01T19:51:33Z</time>
  <course>11.2</course>
  <speed>0.022360679774997897</speed>
  <fix>3d</fix>
</trkpt>
<trkpt lat="-27.274439" lon="151.290064">
  <ele>343.1</ele>
  <time>2026-09-01T19:51:33Z</time>
  <course>270.0</course>
  <speed>0.0</speed>
  <fix>3d</fix>
</trkpt>
<trkpt lat="-27.2744392" lon="151.2900641">
  <ele>343.05</ele>
  <time>2026-09-01T19:51:33Z</time>
  <course>11.2</course>
  <speed>0.022360679774997897</speed>
  <fix>3d</fix>
</trkpt>
<trkpt lat="-27.274439" lon="151.290064">
  <ele>343.1</ele>
  <time>2026-09-01T19:51:33Z</time>
  <course>270.0</course>
  <speed>0.0</speed>
  <fix>3d</fix>
</trkpt>
<trkpt lat="-27.2744392" lon="151.2900641">
  <ele>343.05</ele>
  <time>2026-09-01T19:51:33Z</time>
  <course>11.2</course>
  <speed>0.022360679774997897</speed>
  <fix>3d</fix>
</trkpt>
<trkpt lat="-27.274439" lon="151.290064">
  <ele>343.1</ele>
  <time>2026-09-01T19:51:33Z</time>
  <course>270.0</course>
  <speed>0.0</speed>
  <fix>3d</fix>
</trkpt>
<trkpt lat="-27.2744392" lon="151.2900641">
  <ele>343.05</ele>
  <time>2026-09-01T19:51:33Z</time>
  <course>11.2</course>
  <speed>0.022360679774997897</speed>
  <fix>3d</fix>
</trkpt>
<trkpt lat="-27.274439" lon="151.290064">
  <ele>343.1</ele>
  <time>2026-09-01T19:51:33Z</time>
  <course>270.0</course>
  <speed>0.0</speed>
  <fix>3d</fix>
</trkpt>
<trkpt lat="-27.2744392" lon="151.2900641">
  <ele>343.05</ele>
  <time>2026-09-01T19:51:33Z</time>
  <course>11.2</course>
  <speed>0.022360679774997897</speed>
  <fix>3d</fix>
</trkpt>
<trkpt lat="-27.274439" lon="151.290064">
  <ele>343.1</ele>
  <time>2026-09-01T19:51:33Z</time>
  <course>270.0</course>
  <speed>0.0</speed>
  <fix>3d</fix>
</trkpt>
<trkpt lat="-27.2744392" lon="151.2900641">
  <ele>343.05</ele>
  <time>2026-09-01T19:51:33Z</time>
  <course>11.2</course>
  <speed>0.022360679774997897</speed>
  <fix>3d</fix>
</trkpt>
<trkpt lat="-27.274439" lon="151.290064">
  <ele>343.1</ele>
  <time>2026-09-01T19:51:33Z</time>
  <course>270.0</course>
  <speed>0.0</speed>
  <fix>3d</fix>
</trkpt>
<trkpt lat="-27.2744392" lon="151.2900641">
  <ele>343.04</ele>
  <time>2026-09-01T19:51:33Z</time>
  <course>11.2</course>
  <speed>0.022360679774997897</speed>
  <fix>3d</fix>
</trkpt>
<trkpt lat="-27.274439" lon="151.290064">
  <ele>343.1</ele>
  <time>2026-09-01T19:51:33Z</time>
  <course>270.0</course>
  <speed>0.0</speed>
  <fix>3d</fix>
</trkpt>
<trkpt lat="-27.2744392" lon="151.2900641">
  <ele>343.04</ele>
  <time>2026-09-01T19:51:33Z</time>
  <course>11.2</course>
  <speed>0.022360679774997897</speed>
  <fix>3d</fix>
</trkpt>
<trkpt lat="-27.274439" lon="151.290064">
  <ele>343.1</ele>
  <time>2026-09-01T19:51:33Z</time>
  <course>270.0</course>
  <speed>0.0</speed>
  <fix>3d</fix>
</trkpt>
<trkpt lat="-27.2744392" lon="151.2900641">
  <ele>343.04</ele>
  <time>2026-09-01T19:51:33Z</time>
  <course>11.2</course>
  <speed>0.022360679774997897</speed>
  <fix>3d</fix>
</trkpt>
<trkpt lat="-27.274439" lon="151.290064">
  <ele>343.1</ele>
  <time>2026-09-01T19:51:33Z</time>
  <course>270.0</course>
  <speed>0.0</speed>
  <fix>3d</fix>
</trkpt>
<trkpt lat="-27.2744392" lon="151.2900641">
  <ele>343.03</ele>
  <time>2026-09-01T19:51:33Z</time>
  <course>11.21</course>
  <speed>0.022360679774997897</speed>
  <fix>3d</fix>
</trkpt>
<trkpt lat="-27.274439" lon="151.290064">
  <ele>343.1</ele>
  <time>2026-09-01T19:51:33Z</time>
  <course>270.0</course>
  <speed>0.0</speed>
  <fix>3d</fix>
</trkpt>
<trkpt lat="-27.2744392" lon="151.2900641">
  <ele>343.03</ele>
  <time>2026-09-01T19:51:33Z</time>
  <course>11.21</course>
  <speed>0.022360679774997897</speed>
  <fix>3d</fix>
</trkpt>
<trkpt lat="-27.274439" lon="151.290064">
  <ele>343.1</ele>
  <time>2026-09-01T19:51:33Z</time>
  <course>270.0</course>
  <speed>0.0</speed>
  <fix>3d</fix>
</trkpt>
<trkpt lat="-27.2744392" lon="151.2900641">
  <ele>343.03</ele>
  <time>2026-09-01T19:51:33Z</time>
  <course>11.21</course>
  <speed>0.022360679774997897</speed>
  <fix>3d</fix>
</trkpt>
<trkpt lat="-27.274439" lon="151.290064">
  <ele>343.1</ele>
  <time>2026-09-01T19:51:33Z</time>
  <course>270.0</course>
  <speed>0.0</speed>
  <fix>3d</fix>
</trkpt>
<trkpt lat="-27.2744392" lon="151.2900641">
  <ele>343.03</ele>
  <time>2026-09-01T19:51:33Z</time>
  <course>11.21</course>
  <speed>0.022360679774997897</speed>
  <fix>3d</fix>
</trkpt>
<trkpt lat="-27.274439" lon="151.290064">
  <ele>343.1</ele>
  <time>2026-09-01T19:51:33Z</time>
  <course>270.0</course>
  <speed>0.0</speed>
  <fix>3d</fix>
</trkpt>
<trkpt lat="-27.2744392" lon="151.2900641">
  <ele>343.02</ele>
  <time>2026-09-01T19:51:33Z</time>
  <course>11.21</course>
  <speed>0.022360679774997897</speed>
  <fix>3d</fix>
</trkpt>
<trkpt lat="-27.274439" lon="151.290064">
  <ele>343.1</ele>
  <time>2026-09-01T19:51:33Z</time>
  <course>270.0</course>
  <speed>0.0</speed>
  <fix>3d</fix>
</trkpt>
<trkpt lat="-27.2744392" lon="151.2900641">
  <ele>343.02</ele>
  <time>2026-09-01T19:51:33Z</time>
  <course>11.21</course>
  <speed>0.022360679774997897</speed>
  <fix>3d</fix>
</trkpt>
<trkpt lat="-27.274439" lon="151.290064">
  <ele>343.1</ele>
  <time>2026-09-01T19:51:33Z</time>
  <course>270.0</course>
  <speed>0.0</speed>
  <fix>3d</fix>
</trkpt>
<trkpt lat="-27.2744392" lon="151.2900641">
  <ele>343.02</ele>
  <time>2026-09-01T19:51:33Z</time>
  <course>11.21</course>
  <speed>0.022360679774997897</speed>
  <fix>3d</fix>
</trkpt>
<trkpt lat="-27.274439" lon="151.290064">
  <ele>343.1</ele>
  <time>2026-09-01T19:51:33Z</time>
  <course>270.0</course>
  <speed>0.0</speed>
  <fix>3d</fix>
</trkpt>
<trkpt lat="-27.2744392" lon="151.2900641">
  <ele>343.02</ele>
  <time>2026-09-01T19:51:33Z</time>
  <course>11.21</course>
  <speed>0.022360679774997897</speed>
  <fix>3d</fix>
</trkpt>
<trkpt lat="-27.274439" lon="151.290064">
  <ele>343.1</ele>
  <time>2026-09-01T19:51:33Z</time>
  <course>270.0</course>
  <speed>0.0</speed>
  <fix>3d</fix>
</trkpt>
<trkpt lat="-27.2744392" lon="151.2900641">
  <ele>343.02</ele>
  <time>2026-09-01T19:51:33Z</time>
  <course>11.21</course>
  <speed>0.022360679774997897</speed>
  <fix>3d</fix>
</trkpt>
<trkpt lat="-27.274439" lon="151.290064">
  <ele>343.1</ele>
  <time>2026-09-01T19:51:33Z</time>
  <course>270.0</course>
  <speed>0.0</speed>
  <fix>3d</fix>
</trkpt>
<trkpt lat="-27.2744392" lon="151.2900641">
  <ele>343.02</ele>
  <time>2026-09-01T19:51:33Z</time>
  <course>11.21</course>
  <speed>0.022360679774997897</speed>
  <fix>3d</fix>
</trkpt>
<trkpt lat="-27.274439" lon="151.290064">
  <ele>343.1</ele>
  <time>2026-09-01T19:51:33Z</time>
  <course>270.0</course>
  <speed>0.0</speed>
  <fix>3d</fix>
</trkpt>
<trkpt lat="-27.2744392" lon="151.2900641">
  <ele>343.02</ele>
  <time>2026-09-01T19:51:33Z</time>
  <course>11.22</course>
  <speed>0.022360679774997897</speed>
  <fix>3d</fix>
</trkpt>
<trkpt lat="-27.274439" lon="151.290064">
  <ele>343.1</ele>
  <time>2026-09-01T19:51:33Z</time>
  <course>270.0</course>
  <speed>0.0</speed>
  <fix>3d</fix>
</trkpt>
<trkpt lat="-27.2744392" lon="151.2900641">
  <ele>343.01</ele>
  <time>2026-09-01T19:51:33Z</time>
  <course>11.22</course>
  <speed>0.022360679774997897</speed>
  <fix>3d</fix>
</trkpt>
<trkpt lat="-27.274439" lon="151.290064">
  <ele>343.1</ele>
  <time>2026-09-01T19:51:33Z</time>
  <course>270.0</course>
  <speed>0.0</speed>
  <fix>3d</fix>
</trkpt>
<trkpt lat="-27.2744392" lon="151.2900641">
  <ele>343.01</ele>
  <time>2026-09-01T19:51:33Z</time>
  <course>11.22</course>
  <speed>0.022360679774997897</speed>
  <fix>3d</fix>
</trkpt>
<trkpt lat="-27.274439" lon="151.290064">
  <ele>343.1</ele>
  <time>2026-09-01T19:51:33Z</time>
  <course>270.0</course>
  <speed>0.0</speed>
  <fix>3d</fix>
</trkpt>
<trkpt lat="-27.2744392" lon="151.2900641">
  <ele>343.01</ele>
  <time>2026-09-01T19:51:33Z</time>
  <course>11.22</course>
  <speed>0.022360679774997897</speed>
  <fix>3d</fix>
</trkpt>
<trkpt lat="-27.274439" lon="151.290064">
  <ele>343.1</ele>
  <time>2026-09-01T19:51:33Z</time>
  <course>270.0</course>
  <speed>0.0</speed>
  <fix>3d</fix>
</trkpt>
<trkpt lat="-27.2744392" lon="151.2900641">
  <ele>343.01</ele>
  <time>2026-09-01T19:51:33Z</time>
  <course>11.22</course>
  <speed>0.022360679774997897</speed>
  <fix>3d</fix>
</trkpt>
<trkpt lat="-27.274439" lon="151.290064">
  <ele>343.1</ele>
  <time>2026-09-01T19:51:33Z</time>
  <course>270.0</course>
  <speed>0.0</speed>
  <fix>3d</fix>
</trkpt>
<trkpt lat="-27.2744392" lon="151.2900641">
  <ele>343.01</ele>
  <time>2026-09-01T19:51:33Z</time>
  <course>11.22</course>
  <speed>0.022360679774997897</speed>
  <fix>3d</fix>
</trkpt>
<trkpt lat="-27.274439" lon="151.290064">
  <ele>343.1</ele>
  <time>2026-09-01T19:51:33Z</time>
  <course>270.0</course>
  <speed>0.0</speed>
  <fix>3d</fix>
</trkpt>
<trkpt lat="-27.2744392" lon="151.2900641">
  <ele>343.01</ele>
  <time>2026-09-01T19:51:33Z</time>
  <course>11.22</course>
  <speed>0.022360679774997897</speed>
  <fix>3d</fix>
</trkpt>
<trkpt lat="-27.274439" lon="151.290064">
  <ele>343.1</ele>
  <time>2026-09-01T19:51:33Z</time>
  <course>270.0</course>
  <speed>0.0</speed>
  <fix>3d</fix>
</trkpt>
<trkpt lat="-27.2744392" lon="151.2900641">
  <ele>343.01</ele>
  <time>2026-09-01T19:51:33Z</time>
  <course>11.22</course>
  <speed>0.022360679774997897</speed>
  <fix>3d</fix>
</trkpt>
<trkpt lat="-27.274439" lon="151.290064">
  <ele>343.1</ele>
  <time>2026-09-01T19:51:33Z</time>
  <course>270.0</course>
  <speed>0.0</speed>
  <fix>3d</fix>
</trkpt>
<trkpt lat="-27.2744392" lon="151.2900641">
  <ele>343.01</ele>
  <time>2026-09-01T19:51:33Z</time>
  <course>11.22</course>
  <speed>0.022360679774997897</speed>
  <fix>3d</fix>
</trkpt>
<trkpt lat="-27.274439" lon="151.290064">
  <ele>343.1</ele>
  <time>2026-09-01T19:51:33Z</time>
  <course>270.0</course>
  <speed>0.0</speed>
  <fix>3d</fix>
</trkpt>
<trkpt lat="-27.2744392" lon="151.2900641">
  <ele>343.01</ele>
  <time>2026-09-01T19:51:33Z</time>
  <course>11.22</course>
  <speed>0.022360679774997897</speed>
  <fix>3d</fix>
</trkpt>
<trkpt lat="-27.274439" lon="151.290064">
  <ele>343.1</ele>
  <time>2026-09-01T19:51:33Z</time>
  <course>270.0</course>
  <speed>0.0</speed>
  <fix>3d</fix>
</trkpt>
<trkpt lat="-27.2744392" lon="151.2900641">
  <ele>343.01</ele>
  <time>2026-09-01T19:51:33Z</time>
  <course>11.23</course>
  <speed>0.022360679774997897</speed>
  <fix>3d</fix>
</trkpt>
<trkpt lat="-27.274439" lon="151.290064">
  <ele>343.1</ele>
  <time>2026-09-01T19:51:33Z</time>
  <course>270.0</course>
  <speed>0.0</speed>
  <fix>3d</fix>
</trkpt>
<trkpt lat="-27.2744392" lon="151.2900641">
  <ele>343.01</ele>
  <time>2026-09-01T19:51:33Z</time>
  <course>11.23</course>
  <speed>0.022360679774997897</speed>
  <fix>3d</fix>
</trkpt>
<trkpt lat="-27.274439" lon="151.290064">
  <ele>343.1</ele>
  <time>2026-09-01T19:51:33Z</time>
  <course>270.0</course>
  <speed>0.0</speed>
  <fix>3d</fix>
</trkpt>
<trkpt lat="-27.2744392" lon="151.2900641">
  <ele>343.01</ele>
  <time>2026-09-01T19:51:33Z</time>
  <course>11.23</course>
  <speed>0.022360679774997897</speed>
  <fix>3d</fix>
</trkpt>
<trkpt lat="-27.274439" lon="151.290064">
  <ele>343.1</ele>
  <time>2026-09-01T19:51:33Z</time>
  <course>270.0</course>
  <speed>0.0</speed>
  <fix>3d</fix>
</trkpt>
<trkpt lat="-27.2744392" lon="151.2900641">
  <ele>343.01</ele>
  <time>2026-09-01T19:51:33Z</time>
  <course>11.23</course>
  <speed>0.022360679774997897</speed>
  <fix>3d</fix>
</trkpt>
<trkpt lat="-27.274439" lon="151.290064">
  <ele>343.1</ele>
  <time>2026-09-01T19:51:33Z</time>
  <course>270.0</course>
  <speed>0.0</speed>
  <fix>3d</fix>
</trkpt>
<trkpt lat="-27.2744392" lon="151.2900641">
  <ele>343.01</ele>
  <time>2026-09-01T19:51:33Z</time>
  <course>11.23</course>
  <speed>0.022360679774997897</speed>
  <fix>3d</fix>
</trkpt>
<trkpt lat="-27.274439" lon="151.290064">
  <ele>343.1</ele>
  <time>2026-09-01T19:51:33Z</time>
  <course>270.0</course>
  <speed>0.0</speed>
  <fix>3d</fix>
</trkpt>
<trkpt lat="-27.2744392" lon="151.2900641">
  <ele>343.01</ele>
  <time>2026-09-01T19:51:33Z</time>
  <course>11.23</course>
  <speed>0.022360679774997897</speed>
  <fix>3d</fix>
</trkpt>
<trkpt lat="-27.274439" lon="151.290064">
  <ele>343.1</ele>
  <time>2026-09-01T19:51:33Z</time>
  <course>270.0</course>
  <speed>0.0</speed>
  <fix>3d</fix>
</trkpt>
<trkpt lat="-27.2744392" lon="151.2900641">
  <ele>343.01</ele>
  <time>2026-09-01T19:51:33Z</time>
  <course>11.23</course>
  <speed>0.022360679774997897</speed>
  <fix>3d</fix>
</trkpt>
<trkpt lat="-27.274439" lon="151.290064">
  <ele>343.1</ele>
  <time>2026-09-01T19:51:33Z</time>
  <course>270.0</course>
  <speed>0.0</speed>
  <fix>3d</fix>
</trkpt>
<trkpt lat="-27.2744392" lon="151.2900641">
  <ele>343.02</ele>
  <time>2026-09-01T19:51:33Z</time>
  <course>11.23</course>
  <speed>0.022360679774997897</speed>
  <fix>3d</fix>
</trkpt>
<trkpt lat="-27.274439" lon="151.290064">
  <ele>343.1</ele>
  <time>2026-09-01T19:51:33Z</time>
  <course>270.0</course>
  <speed>0.0</speed>
  <fix>3d</fix>
</trkpt>
<trkpt lat="-27.2744392" lon="151.2900641">
  <ele>343.02</ele>
  <time>2026-09-01T19:51:33Z</time>
  <course>11.23</course>
  <speed>0.022360679774997897</speed>
  <fix>3d</fix>
</trkpt>
<trkpt lat="-27.274439" lon="151.290064">
  <ele>343.1</ele>
  <time>2026-09-01T19:51:33Z</time>
  <course>270.0</course>
  <speed>0.0</speed>
  <fix>3d</fix>
</trkpt>
<trkpt lat="-27.2744392" lon="151.2900641">
  <ele>343.02</ele>
  <time>2026-09-01T19:51:33Z</time>
  <course>11.23</course>
  <speed>0.022360679774997897</speed>
  <fix>3d</fix>
</trkpt>
<trkpt lat="-27.274439" lon="151.290064">
  <ele>343.1</ele>
  <time>2026-09-01T19:51:33Z</time>
  <course>270.0</course>
  <speed>0.0</speed>
  <fix>3d</fix>
</trkpt>
<trkpt lat="-27.2744392" lon="151.2900641">
  <ele>343.02</ele>
  <time>2026-09-01T19:51:33Z</time>
  <course>11.24</course>
  <speed>0.022360679774997897</speed>
  <fix>3d</fix>
</trkpt>
<trkpt lat="-27.274439" lon="151.290064">
  <ele>343.1</ele>
  <time>2026-09-01T19:51:33Z</time>
  <course>270.0</course>
  <speed>0.0</speed>
  <fix>3d</fix>
</trkpt>
<trkpt lat="-27.2744392" lon="151.2900641">
  <ele>343.03</ele>
  <time>2026-09-01T19:51:33Z</time>
  <course>11.24</course>
  <speed>0.022360679774997897</speed>
  <fix>3d</fix>
</trkpt>
<trkpt lat="-27.274439" lon="151.290064">
  <ele>343.1</ele>
  <time>2026-09-01T19:51:33Z</time>
  <course>270.0</course>
  <speed>0.0</speed>
  <fix>3d</fix>
</trkpt>
<trkpt lat="-27.2744392" lon="151.2900641">
  <ele>343.03</ele>
  <time>2026-09-01T19:51:33Z</time>
  <course>11.24</course>
  <speed>0.022360679774997897</speed>
  <fix>3d</fix>
</trkpt>
<trkpt lat="-27.274439" lon="151.290064">
  <ele>343.1</ele>
  <time>2026-09-01T19:51:33Z</time>
  <course>270.0</course>
  <speed>0.0</speed>
  <fix>3d</fix>
</trkpt>
<trkpt lat="-27.2744392" lon="151.2900641">
  <ele>343.03</ele>
  <time>2026-09-01T19:51:33Z</time>
  <course>11.24</course>
  <speed>0.022360679774997897</speed>
  <fix>3d</fix>
</trkpt>
<trkpt lat="-27.274439" lon="151.290064">
  <ele>343.1</ele>
  <time>2026-09-01T19:51:33Z</time>
  <course>270.0</course>
  <speed>0.0</speed>
  <fix>3d</fix>
</trkpt>
<trkpt lat="-27.2744392" lon="151.2900641">
  <ele>343.03</ele>
  <time>2026-09-01T19:51:33Z</time>
  <course>11.24</course>
  <speed>0.022360679774997897</speed>
  <fix>3d</fix>
</trkpt>
<trkpt lat="-27.274439" lon="151.290064">
  <ele>343.1</ele>
  <time>2026-09-01T19:51:33Z</time>
  <course>270.0</course>
  <speed>0.0</speed>
  <fix>3d</fix>
</trkpt>
<trkpt lat="-27.2744392" lon="151.2900641">
  <ele>343.1</ele>
  <time>2026-09-01T19:51:33Z</time>
  <course>11.24</course>
  <speed>0.022360679774997897</speed>
  <fix>3d</fix>
</trkpt>
<trkpt lat="-27.274439" lon="151.290064">
  <ele>343.1</ele>
  <time>2026-09-01T19:51:33Z</time>
  <course>270.0</course>
  <speed>0.0</speed>
  <fix>3d</fix>
</trkpt>
<trkpt lat="-27.2744392" lon="151.2900641">
  <ele>343.09</ele>
  <time>2026-09-01T19:51:33Z</time>
  <course>11.24</course>
  <speed>0.022360679774997897</speed>
  <fix>3d</fix>
</trkpt>
<trkpt lat="-27.274439" lon="151.290064">
  <ele>343.1</ele>
  <time>2026-09-01T19:51:33Z</time>
  <course>270.0</course>
  <speed>0.0</speed>
  <fix>3d</fix>
</trkpt>
<trkpt lat="-27.2744392" lon="151.2900641">
  <ele>343.1</ele>
  <time>2026-09-01T19:51:33Z</time>
  <course>11.24</course>
  <speed>0.022360679774997897</speed>
  <fix>3d</fix>
</trkpt>
<trkpt lat="-27.274439" lon="151.290064">
  <ele>343.1</ele>
  <time>2026-09-01T19:51:33Z</time>
  <course>270.0</course>
  <speed>0.0</speed>
  <fix>3d</fix>
</trkpt>
<trkpt lat="-27.2744392" lon="151.2900641">
  <ele>343.09</ele>
  <time>2026-09-01T19:51:33Z</time>
  <course>11.24</course>
  <speed>0.022360679774997897</speed>
  <fix>3d</fix>
</trkpt>
<trkpt lat="-27.274439" lon="151.290064">
  <ele>343.1</ele>
  <time>2026-09-01T19:51:33Z</time>
  <course>270.0</course>
  <speed>0.0</speed>
  <fix>3d</fix>
</trkpt>
<trkpt lat="-27.2744392" lon="151.2900641">
  <ele>343.09</ele>
  <time>2026-09-01T19:51:33Z</time>
  <course>11.25</course>
  <speed>0.022360679774997897</speed>
  <fix>3d</fix>
</trkpt>
<trkpt lat="-27.274439" lon="151.290064">
  <ele>343.1</ele>
  <time>2026-09-01T19:51:33Z</time>
  <course>270.0</course>
  <speed>0.0</speed>
  <fix>3d</fix>
</trkpt>
<trkpt lat="-27.2744392" lon="151.2900641">
  <ele>343.09</ele>
  <time>2026-09-01T19:51:33Z</time>
  <course>11.25</course>
  <speed>0.022360679774997897</speed>
  <fix>3d</fix>
</trkpt>
<trkpt lat="-27.274439" lon="151.290064">
  <ele>343.1</ele>
  <time>2026-09-01T19:51:33Z</time>
  <course>270.0</course>
  <speed>0.0</speed>
  <fix>3d</fix>
</trkpt>
<trkpt lat="-27.2744392" lon="151.2900641">
  <ele>343.09</ele>
  <time>2026-09-01T19:51:33Z</time>
  <course>11.25</course>
  <speed>0.022360679774997897</speed>
  <fix>3d</fix>
</trkpt>
<trkpt lat="-27.274439" lon="151.290064">
  <ele>343.1</ele>
  <time>2026-09-01T19:51:33Z</time>
  <course>270.0</course>
  <speed>0.0</speed>
  <fix>3d</fix>
</trkpt>
<trkpt lat="-27.2744392" lon="151.2900641">
  <ele>343.09</ele>
  <time>2026-09-01T19:51:33Z</time>
  <course>11.25</course>
  <speed>0.022360679774997897</speed>
  <fix>3d</fix>
</trkpt>
<trkpt lat="-27.274439" lon="151.290064">
  <ele>343.1</ele>
  <time>2026-09-01T19:51:33Z</time>
  <course>270.0</course>
  <speed>0.0</speed>
  <fix>3d</fix>
</trkpt>
<trkpt lat="-27.2744392" lon="151.2900641">
  <ele>343.08</ele>
  <time>2026-09-01T19:51:33Z</time>
  <course>11.25</course>
  <speed>0.022360679774997897</speed>
  <fix>3d</fix>
</trkpt>
<trkpt lat="-27.274439" lon="151.290064">
  <ele>343.1</ele>
  <time>2026-09-01T19:51:33Z</time>
  <course>270.0</course>
  <speed>0.0</speed>
  <fix>3d</fix>
</trkpt>
<trkpt lat="-27.2744392" lon="151.2900641">
  <ele>343.08</ele>
  <time>2026-09-01T19:51:33Z</time>
  <course>11.25</course>
  <speed>0.022360679774997897</speed>
  <fix>3d</fix>
</trkpt>
<trkpt lat="-27.274439" lon="151.290064">
  <ele>343.1</ele>
  <time>2026-09-01T19:51:33Z</time>
  <course>270.0</course>
  <speed>0.0</speed>
  <fix>3d</fix>
</trkpt>
<trkpt lat="-27.2744392" lon="151.2900641">
  <ele>343.08</ele>
  <time>2026-09-01T19:51:33Z</time>
  <course>11.25</course>
  <speed>0.022360679774997897</speed>
  <fix>3d</fix>
</trkpt>
<trkpt lat="-27.274439" lon="151.290064">
  <ele>343.1</ele>
  <time>2026-09-01T19:51:33Z</time>
  <course>270.0</course>
  <speed>0.0</speed>
  <fix>3d</fix>
</trkpt>
<trkpt lat="-27.2744392" lon="151.2900641">
  <ele>343.08</ele>
  <time>2026-09-01T19:51:33Z</time>
  <course>11.25</course>
  <speed>0.022360679774997897</speed>
  <fix>3d</fix>
</trkpt>
<trkpt lat="-27.274439" lon="151.290064">
  <ele>343.1</ele>
  <time>2026-09-01T19:51:33Z</time>
  <course>270.0</course>
  <speed>0.0</speed>
  <fix>3d</fix>
</trkpt>
<trkpt lat="-27.2744392" lon="151.2900641">
  <ele>343.08</ele>
  <time>2026-09-01T19:51:33Z</time>
  <course>11.25</course>
  <speed>0.022360679774997897</speed>
  <fix>3d</fix>
</trkpt>
<trkpt lat="-27.274439" lon="151.290064">
  <ele>343.1</ele>
  <time>2026-09-01T19:51:33Z</time>
  <course>270.0</course>
  <speed>0.0</speed>
  <fix>3d</fix>
</trkpt>
<trkpt lat="-27.2744392" lon="151.2900641">
  <ele>343.08</ele>
  <time>2026-09-01T19:51:33Z</time>
  <course>11.25</course>
  <speed>0.022360679774997897</speed>
  <fix>3d</fix>
</trkpt>
<trkpt lat="-27.274439" lon="151.290064">
  <ele>343.1</ele>
  <time>2026-09-01T19:51:33Z</time>
  <course>270.0</course>
  <speed>0.0</speed>
  <fix>3d</fix>
</trkpt>
<trkpt lat="-27.2744392" lon="151.2900641">
  <ele>343.08</ele>
  <time>2026-09-01T19:51:33Z</time>
  <course>11.26</course>
  <speed>0.022360679774997897</speed>
  <fix>3d</fix>
</trkpt>
<trkpt lat="-27.274439" lon="151.290064">
  <ele>343.1</ele>
  <time>2026-09-01T19:51:33Z</time>
  <course>270.0</course>
  <speed>0.0</speed>
  <fix>3d</fix>
</trkpt>
<trkpt lat="-27.2744392" lon="151.2900641">
  <ele>343.08</ele>
  <time>2026-09-01T19:51:33Z</time>
  <course>11.26</course>
  <speed>0.022360679774997897</speed>
  <fix>3d</fix>
</trkpt>
<trkpt lat="-27.274439" lon="151.290064">
  <ele>343.1</ele>
  <time>2026-09-01T19:51:33Z</time>
  <course>270.0</course>
  <speed>0.0</speed>
  <fix>3d</fix>
</trkpt>
<trkpt lat="-27.2744392" lon="151.2900641">
  <ele>343.08</ele>
  <time>2026-09-01T19:51:33Z</time>
  <course>11.26</course>
  <speed>0.022360679774997897</speed>
  <fix>3d</fix>
</trkpt>
<trkpt lat="-27.274439" lon="151.290064">
  <ele>343.1</ele>
  <time>2026-09-01T19:51:33Z</time>
  <course>270.0</course>
  <speed>0.0</speed>
  <fix>3d</fix>
</trkpt>
<trkpt lat="-27.2744392" lon="151.2900641">
  <ele>343.07</ele>
  <time>2026-09-01T19:51:33Z</time>
  <course>11.26</course>
  <speed>0.022360679774997897</speed>
  <fix>3d</fix>
</trkpt>
<trkpt lat="-27.274439" lon="151.290064">
  <ele>343.1</ele>
  <time>2026-09-01T19:51:33Z</time>
  <course>270.0</course>
  <speed>0.0</speed>
  <fix>3d</fix>
</trkpt>
<trkpt lat="-27.2744392" lon="151.2900641">
  <ele>343.07</ele>
  <time>2026-09-01T19:51:33Z</time>
  <course>11.26</course>
  <speed>0.022360679774997897</speed>
  <fix>3d</fix>
</trkpt>
<trkpt lat="-27.274439" lon="151.290064">
  <ele>343.1</ele>
  <time>2026-09-01T19:51:33Z</time>
  <course>270.0</course>
  <speed>0.0</speed>
  <fix>3d</fix>
</trkpt>
<trkpt lat="-27.2744392" lon="151.2900641">
  <ele>343.07</ele>
  <time>2026-09-01T19:51:33Z</time>
  <course>11.26</course>
  <speed>0.022360679774997897</speed>
  <fix>3d</fix>
</trkpt>
<trkpt lat="-27.274439" lon="151.290064">
  <ele>343.1</ele>
  <time>2026-09-01T19:51:33Z</time>
  <course>270.0</course>
  <speed>0.0</speed>
  <fix>3d</fix>
</trkpt>
<trkpt lat="-27.2744392" lon="151.2900641">
  <ele>343.07</ele>
  <time>2026-09-01T19:51:33Z</time>
  <course>11.26</course>
  <speed>0.022360679774997897</speed>
  <fix>3d</fix>
</trkpt>
<trkpt lat="-27.274439" lon="151.290064">
  <ele>343.1</ele>
  <time>2026-09-01T19:51:33Z</time>
  <course>270.0</course>
  <speed>0.0</speed>
  <fix>3d</fix>
</trkpt>
<trkpt lat="-27.2744392" lon="151.2900641">
  <ele>343.07</ele>
  <time>2026-09-01T19:51:33Z</time>
  <course>11.26</course>
  <speed>0.022360679774997897</speed>
  <fix>3d</fix>
</trkpt>
<trkpt lat="-27.274439" lon="151.290064">
  <ele>343.1</ele>
  <time>2026-09-01T19:51:33Z</time>
  <course>270.0</course>
  <speed>0.0</speed>
  <fix>3d</fix>
</trkpt>
<trkpt lat="-27.2744392" lon="151.2900641">
  <ele>343.07</ele>
  <time>2026-09-01T19:51:33Z</time>
  <course>11.26</course>
  <speed>0.022360679774997897</speed>
  <fix>3d</fix>
</trkpt>
<trkpt lat="-27.274439" lon="151.290064">
  <ele>343.1</ele>
  <time>2026-09-01T19:51:33Z</time>
  <course>270.0</course>
  <speed>0.0</speed>
  <fix>3d</fix>
</trkpt>
<trkpt lat="-27.2744392" lon="151.2900641">
  <ele>343.07</ele>
  <time>2026-09-01T19:51:33Z</time>
  <course>11.26</course>
  <speed>0.022360679774997897</speed>
  <fix>3d</fix>
</trkpt>
<trkpt lat="-27.274439" lon="151.290064">
  <ele>343.1</ele>
  <time>2026-09-01T19:51:33Z</time>
  <course>270.0</course>
  <speed>0.0</speed>
  <fix>3d</fix>
</trkpt>
<trkpt lat="-27.2744392" lon="151.2900641">
  <ele>343.07</ele>
  <time>2026-09-01T19:51:33Z</time>
  <course>11.26</course>
  <speed>0.022360679774997897</speed>
  <fix>3d</fix>
</trkpt>
<trkpt lat="-27.274439" lon="151.290064">
  <ele>343.1</ele>
  <time>2026-09-01T19:51:33Z</time>
  <course>270.0</course>
  <speed>0.0</speed>
  <fix>3d</fix>
</trkpt>
<trkpt lat="-27.2744392" lon="151.2900641">
  <ele>343.07</ele>
  <time>2026-09-01T19:51:33Z</time>
  <course>11.27</course>
  <speed>0.022360679774997897</speed>
  <fix>3d</fix>
</trkpt>
<trkpt lat="-27.274439" lon="151.290064">
  <ele>343.1</ele>
  <time>2026-09-01T19:51:33Z</time>
  <course>270.0</course>
  <speed>0.0</speed>
  <fix>3d</fix>
</trkpt>
<trkpt lat="-27.2744392" lon="151.2900641">
  <ele>343.07</ele>
  <time>2026-09-01T19:51:33Z</time>
  <course>11.27</course>
  <speed>0.022360679774997897</speed>
  <fix>3d</fix>
</trkpt>
<trkpt lat="-27.274439" lon="151.290064">
  <ele>343.1</ele>
  <time>2026-09-01T19:51:33Z</time>
  <course>270.0</course>
  <speed>0.0</speed>
  <fix>3d</fix>
</trkpt>
<trkpt lat="-27.2744392" lon="151.2900641">
  <ele>343.08</ele>
  <time>2026-09-01T19:51:33Z</time>
  <course>11.27</course>
  <speed>0.022360679774997897</speed>
  <fix>3d</fix>
</trkpt>
<trkpt lat="-27.274439" lon="151.290064">
  <ele>343.1</ele>
  <time>2026-09-01T19:51:33Z</time>
  <course>270.0</course>
  <speed>0.0</speed>
  <fix>3d</fix>
</trkpt>
<trkpt lat="-27.2744392" lon="151.2900641">
  <ele>343.08</ele>
  <time>2026-09-01T19:51:33Z</time>
  <course>11.27</course>
  <speed>0.022360679774997897</speed>
  <fix>3d</fix>
</trkpt>
<trkpt lat="-27.274439" lon="151.290064">
  <ele>343.1</ele>
  <time>2026-09-01T19:51:33Z</time>
  <course>270.0</course>
  <speed>0.0</speed>
  <fix>3d</fix>
</trkpt>
<trkpt lat="-27.2744392" lon="151.2900641">
  <ele>343.08</ele>
  <time>2026-09-01T19:51:33Z</time>
  <course>11.27</course>
  <speed>0.022360679774997897</speed>
  <fix>3d</fix>
</trkpt>
<trkpt lat="-27.274439" lon="151.290064">
  <ele>343.1</ele>
  <time>2026-09-01T19:51:33Z</time>
  <course>270.0</course>
  <speed>0.0</speed>
  <fix>3d</fix>
</trkpt>
<trkpt lat="-27.2744392" lon="151.2900641">
  <ele>343.08</ele>
  <time>2026-09-01T19:51:33Z</time>
  <course>11.27</course>
  <speed>0.022360679774997897</speed>
  <fix>3d</fix>
</trkpt>
<trkpt lat="-27.274439" lon="151.290064">
  <ele>343.1</ele>
  <time>2026-09-01T19:51:33Z</time>
  <course>270.0</course>
  <speed>0.0</speed>
  <fix>3d</fix>
</trkpt>
<trkpt lat="-27.2744392" lon="151.2900641">
  <ele>343.08</ele>
  <time>2026-09-01T19:51:33Z</time>
  <course>11.27</course>
  <speed>0.022360679774997897</speed>
  <fix>3d</fix>
</trkpt>
<trkpt lat="-27.274439" lon="151.290064">
  <ele>343.1</ele>
  <time>2026-09-01T19:51:33Z</time>
  <course>270.0</course>
  <speed>0.0</speed>
  <fix>3d</fix>
</trkpt>
<trkpt lat="-27.2744392" lon="151.2900641">
  <ele>343.09</ele>
  <time>2026-09-01T19:51:33Z</time>
  <course>11.27</course>
  <speed>0.022360679774997897</speed>
  <fix>3d</fix>
</trkpt>
<trkpt lat="-27.274439" lon="151.290064">
  <ele>343.1</ele>
  <time>2026-09-01T19:51:33Z</time>
  <course>270.0</course>
  <speed>0.0</speed>
  <fix>3d</fix>
</trkpt>
<trkpt lat="-27.2744392" lon="151.2900641">
  <ele>343.09</ele>
  <time>2026-09-01T19:51:33Z</time>
  <course>11.27</course>
  <speed>0.022360679774997897</speed>
  <fix>3d</fix>
</trkpt>
<trkpt lat="-27.274439" lon="151.290064">
  <ele>343.1</ele>
  <time>2026-09-01T19:51:33Z</time>
  <course>270.0</course>
  <speed>0.0</speed>
  <fix>3d</fix>
</trkpt>
<trkpt lat="-27.2744392" lon="151.2900641">
  <ele>343.09</ele>
  <time>2026-09-01T19:51:33Z</time>
  <course>11.28</course>
  <speed>0.022360679774997897</speed>
  <fix>3d</fix>
</trkpt>
<trkpt lat="-27.274439" lon="151.290064">
  <ele>343.1</ele>
  <time>2026-09-01T19:51:33Z</time>
  <course>270.0</course>
  <speed>0.0</speed>
  <fix>3d</fix>
</trkpt>
<trkpt lat="-27.2744392" lon="151.2900641">
  <ele>343.08</ele>
  <time>2026-09-01T19:51:33Z</time>
  <course>11.28</course>
  <speed>0.022360679774997897</speed>
  <fix>3d</fix>
</trkpt>
<trkpt lat="-27.274439" lon="151.290064">
  <ele>343.1</ele>
  <time>2026-09-01T19:51:33Z</time>
  <course>270.0</course>
  <speed>0.0</speed>
  <fix>3d</fix>
</trkpt>
<trkpt lat="-27.2744392" lon="151.2900641">
  <ele>343.08</ele>
  <time>2026-09-01T19:51:33Z</time>
  <course>11.28</course>
  <speed>0.022360679774997897</speed>
  <fix>3d</fix>
</trkpt>
<trkpt lat="-27.274439" lon="151.290064">
  <ele>343.1</ele>
  <time>2026-09-01T19:51:33Z</time>
  <course>270.0</course>
  <speed>0.0</speed>
  <fix>3d</fix>
</trkpt>
<trkpt lat="-27.2744392" lon="151.2900641">
  <ele>343.08</ele>
  <time>2026-09-01T19:51:33Z</time>
  <course>11.28</course>
  <speed>0.022360679774997897</speed>
  <fix>3d</fix>
</trkpt>
<trkpt lat="-27.274439" lon="151.290064">
  <ele>343.1</ele>
  <time>2026-09-01T19:51:33Z</time>
  <course>270.0</course>
  <speed>0.0</speed>
  <fix>3d</fix>
</trkpt>
<trkpt lat="-27.2744392" lon="151.2900641">
  <ele>343.08</ele>
  <time>2026-09-01T19:51:33Z</time>
  <course>11.28</course>
  <speed>0.022360679774997897</speed>
  <fix>3d</fix>
</trkpt>
<trkpt lat="-27.274439" lon="151.290064">
  <ele>343.1</ele>
  <time>2026-09-01T19:51:33Z</time>
  <course>270.0</course>
  <speed>0.0</speed>
  <fix>3d</fix>
</trkpt>
<trkpt lat="-27.2744392" lon="151.2900641">
  <ele>343.08</ele>
  <time>2026-09-01T19:51:33Z</time>
  <course>11.28</course>
  <speed>0.022360679774997897</speed>
  <fix>3d</fix>
</trkpt>
<trkpt lat="-27.274439" lon="151.290064">
  <ele>343.1</ele>
  <time>2026-09-01T19:51:33Z</time>
  <course>270.0</course>
  <speed>0.0</speed>
  <fix>3d</fix>
</trkpt>
<trkpt lat="-27.2744392" lon="151.2900641">
  <ele>343.08</ele>
  <time>2026-09-01T19:51:33Z</time>
  <course>11.28</course>
  <speed>0.022360679774997897</speed>
  <fix>3d</fix>
</trkpt>
<trkpt lat="-27.274439" lon="151.290064">
  <ele>343.1</ele>
  <time>2026-09-01T19:51:33Z</time>
  <course>270.0</course>
  <speed>0.0</speed>
  <fix>3d</fix>
</trkpt>
<trkpt lat="-27.2744392" lon="151.2900641">
  <ele>343.08</ele>
  <time>2026-09-01T19:51:33Z</time>
  <course>11.28</course>
  <speed>0.022360679774997897</speed>
  <fix>3d</fix>
</trkpt>
<trkpt lat="-27.274439" lon="151.290064">
  <ele>343.1</ele>
  <time>2026-09-01T19:51:33Z</time>
  <course>270.0</course>
  <speed>0.0</speed>
  <fix>3d</fix>
</trkpt>
<trkpt lat="-27.2744392" lon="151.2900641">
  <ele>343.08</ele>
  <time>2026-09-01T19:51:33Z</time>
  <course>11.28</course>
  <speed>0.022360679774997897</speed>
  <fix>3d</fix>
</trkpt>
<trkpt lat="-27.274439" lon="151.290064">
  <ele>343.1</ele>
  <time>2026-09-01T19:51:33Z</time>
  <course>270.0</course>
  <speed>0.0</speed>
  <fix>3d</fix>
</trkpt>
<trkpt lat="-27.2744392" lon="151.2900641">
  <ele>343.08</ele>
  <time>2026-09-01T19:51:33Z</time>
  <course>11.28</course>
  <speed>0.022360679774997897</speed>
  <fix>3d</fix>
</trkpt>
<trkpt lat="-27.274439" lon="151.290064">
  <ele>343.1</ele>
  <time>2026-09-01T19:51:33Z</time>
  <course>270.0</course>
  <speed>0.0</speed>
  <fix>3d</fix>
</trkpt>
<trkpt lat="-27.2744392" lon="151.2900641">
  <ele>343.08</ele>
  <time>2026-09-01T19:51:33Z</time>
  <course>11.29</course>
  <speed>0.022360679774997897</speed>
  <fix>3d</fix>
</trkpt>
<trkpt lat="-27.274439" lon="151.290064">
  <ele>343.1</ele>
  <time>2026-09-01T19:51:33Z</time>
  <course>270.0</course>
  <speed>0.0</speed>
  <fix>3d</fix>
</trkpt>
<trkpt lat="-27.2744392" lon="151.2900641">
  <ele>343.08</ele>
  <time>2026-09-01T19:51:33Z</time>
  <course>11.29</course>
  <speed>0.022360679774997897</speed>
  <fix>3d</fix>
</trkpt>
<trkpt lat="-27.274439" lon="151.290064">
  <ele>343.1</ele>
  <time>2026-09-01T19:51:33Z</time>
  <course>270.0</course>
  <speed>0.0</speed>
  <fix>3d</fix>
</trkpt>
<trkpt lat="-27.2744392" lon="151.2900641">
  <ele>343.09</ele>
  <time>2026-09-01T19:51:33Z</time>
  <course>11.29</course>
  <speed>0.022360679774997897</speed>
  <fix>3d</fix>
</trkpt>
<trkpt lat="-27.274439" lon="151.290064">
  <ele>343.1</ele>
  <time>2026-09-01T19:51:33Z</time>
  <course>270.0</course>
  <speed>0.0</speed>
  <fix>3d</fix>
</trkpt>
<trkpt lat="-26.9720619" lon="149.6127921">
  <ele>339.29</ele>
  <time>2026-09-01T19:51:34Z</time>
  <course>310.27</course>
  <speed>0.0</speed>
  <fix>3d</fix>
</trkpt>
<trkpt lat="-26.9720619" lon="149.6127921">
  <ele>339.29</ele>
  <time>2026-09-01T19:51:34Z</time>
  <course>310.27</course>
  <speed>0.0</speed>
  <fix>3d</fix>
</trkpt>
<trkpt lat="-27.274439" lon="151.290064">
  <ele>-0.01</ele>
  <time>2026-09-01T19:51:34Z</time>
  <course>0.22</course>
  <speed>0.0</speed>
  <fix>3d</fix>
</trkpt>
<trkpt lat="-27.274439" lon="151.290064">
  <ele>343.1</ele>
  <time>2026-09-01T19:51:34Z</time>
  <course>294.58</course>
  <speed>0.0</speed>
  <fix>3d</fix>
</trkpt>
<trkpt lat="-27.274439" lon="151.290064">
  <ele>0.02</ele>
  <time>2026-09-01T19:51:34Z</time>
  <course>1.2</course>
  <speed>0.0</speed>
  <fix>3d</fix>
</trkpt>
<trkpt lat="-27.274439" lon="151.290064">
  <ele>343.1</ele>
  <time>2026-09-01T19:51:34Z</time>
  <course>294.58</course>
  <speed>0.0</speed>
  <fix>3d</fix>
</trkpt>
<trkpt lat="-27.274439" lon="151.290064">
  <ele>-0.08</ele>
  <time>2026-09-01T19:51:34Z</time>
  <course>2.1</course>
  <speed>0.0</speed>
  <fix>3d</fix>
</trkpt>
<trkpt lat="-27.274439" lon="151.290064">
  <ele>343.1</ele>
  <time>2026-09-01T19:51:34Z</time>
  <course>273.33</course>
  <speed>0.0</speed>
  <fix>3d</fix>
</trkpt>
<trkpt lat="-27.274439" lon="151.290064">
  <ele>0.22</ele>
  <time>2026-09-01T19:51:34Z</time>
  <course>2.92</course>
  <speed>0.0</speed>
  <fix>3d</fix>
</trkpt>
<trkpt lat="-27.274439" lon="151.290064">
  <ele>343.1</ele>
  <time>2026-09-01T19:51:34Z</time>
  <course>273.33</course>
  <speed>0.0</speed>
  <fix>3d</fix>
</trkpt>
<trkpt lat="-27.274439" lon="151.290064">
  <ele>0.09</ele>
  <time>2026-09-01T19:51:34Z</time>
  <course>3.66</course>
  <speed>0.0</speed>
  <fix>3d</fix>
</trkpt>
<trkpt lat="-27.274439" lon="151.290064">
  <ele>343.1</ele>
  <time>2026-09-01T19:51:34Z</time>
  <course>270.44</course>
  <speed>0.0</speed>
  <fix>3d</fix>
</trkpt>
<trkpt lat="-27.274439" lon="151.290064">
  <ele>0.08</ele>
  <time>2026-09-01T19:51:34Z</time>
  <course>4.34</course>
  <speed>0.0</speed>
  <fix>3d</fix>
</trkpt>
<trkpt lat="-27.274439" lon="151.290064">
  <ele>343.1</ele>
  <time>2026-09-01T19:51:34Z</time>
  <course>270.44</course>
  <speed>0.0</speed>
  <fix>3d</fix>
</trkpt>
<trkpt lat="-27.274439" lon="151.290064">
  <ele>0.09</ele>
  <time>2026-09-01T19:51:34Z</time>
  <course>4.95</course>
  <speed>0.0</speed>
  <fix>3d</fix>
</trkpt>
<trkpt lat="-27.274439" lon="151.290064">
  <ele>343.1</ele>
  <time>2026-09-01T19:51:34Z</time>
  <course>270.05</course>
  <speed>0.0</speed>
  <fix>3d</fix>
</trkpt>
<trkpt lat="-27.274439" lon="151.290064">
  <ele>-0.05</ele>
  <time>2026-09-01T19:51:34Z</time>
  <course>5.5</course>
  <speed>0.0</speed>
  <fix>3d</fix>
</trkpt>
<trkpt lat="-27.274439" lon="151.290064">
  <ele>343.1</ele>
  <time>2026-09-01T19:51:34Z</time>
  <course>270.05</course>
  <speed>0.0</speed>
  <fix>3d</fix>
</trkpt>
<trkpt lat="-27.274439" lon="151.290064">
  <ele>343.06</ele>
  <time>2026-09-01T19:51:34Z</time>
  <course>5.98</course>
  <speed>0.0</speed>
  <fix>3d</fix>
</trkpt>
<trkpt lat="-27.274439" lon="151.290064">
  <ele>343.1</ele>
  <time>2026-09-01T19:51:34Z</time>
  <course>270.0</course>
  <speed>0.0</speed>
  <fix>3d</fix>
</trkpt>
<trkpt lat="-27.274439" lon="151.290064">
  <ele>343.18</ele>
  <time>2026-09-01T19:51:34Z</time>
  <course>6.44</course>
  <speed>0.0</speed>
  <fix>3d</fix>
</trkpt>
<trkpt lat="-27.274439" lon="151.290064">
  <ele>343.1</ele>
  <time>2026-09-01T19:51:34Z</time>
  <course>270.0</course>
  <speed>0.0</speed>
  <fix>3d</fix>
</trkpt>
<trkpt lat="-27.274439" lon="151.290064">
  <ele>342.91</ele>
  <time>2026-09-01T19:51:34Z</time>
  <course>6.85</course>
  <speed>0.0</speed>
  <fix>3d</fix>
</trkpt>
<trkpt lat="-27.274439" lon="151.290064">
  <ele>343.1</ele>
  <time>2026-09-01T19:51:34Z</time>
  <course>270.0</course>
  <speed>0.0</speed>
  <fix>3d</fix>
</trkpt>
<trkpt lat="-27.274439" lon="151.290064">
  <ele>343.06</ele>
  <time>2026-09-01T19:51:34Z</time>
  <course>7.22</course>
  <speed>0.0</speed>
  <fix>3d</fix>
</trkpt>
<trkpt lat="-27.274439" lon="151.290064">
  <ele>343.1</ele>
  <time>2026-09-01T19:51:34Z</time>
  <course>270.0</course>
  <speed>0.0</speed>
  <fix>3d</fix>
</trkpt>
<trkpt lat="-27.274439" lon="151.290064">
  <ele>343.13</ele>
  <time>2026-09-01T19:51:34Z</time>
  <course>7.56</course>
  <speed>0.0</speed>
  <fix>3d</fix>
</trkpt>
<trkpt lat="-27.274439" lon="151.290064">
  <ele>343.1</ele>
  <time>2026-09-01T19:51:34Z</time>
  <course>270.0</course>
  <speed>0.0</speed>
  <fix>3d</fix>
</trkpt>
<trkpt lat="-27.274439" lon="151.290064">
  <ele>343.04</ele>
  <time>2026-09-01T19:51:34Z</time>
  <course>7.87</course>
  <speed>0.0</speed>
  <fix>3d</fix>
</trkpt>
<trkpt lat="-27.274439" lon="151.290064">
  <ele>343.1</ele>
  <time>2026-09-01T19:51:34Z</time>
  <course>270.0</course>
  <speed>0.0</speed>
  <fix>3d</fix>
</trkpt>
<trkpt lat="-27.274439" lon="151.290064">
  <ele>342.88</ele>
  <time>2026-09-01T19:51:34Z</time>
  <course>8.14</course>
  <speed>0.0</speed>
  <fix>3d</fix>
</trkpt>
<trkpt lat="-27.274439" lon="151.290064">
  <ele>343.1</ele>
  <time>2026-09-01T19:51:34Z</time>
  <course>270.0</course>
  <speed>0.0</speed>
  <fix>3d</fix>
</trkpt>
<trkpt lat="-27.274439" lon="151.290064">
  <ele>343.02</ele>
  <time>2026-09-01T19:51:34Z</time>
  <course>8.39</course>
  <speed>0.0</speed>
  <fix>3d</fix>
</trkpt>
<trkpt lat="-27.274439" lon="151.290064">
  <ele>343.1</ele>
  <time>2026-09-01T19:51:34Z</time>
  <course>270.0</course>
  <speed>0.0</speed>
  <fix>3d</fix>
</trkpt>
<trkpt lat="-27.274439" lon="151.290064">
  <ele>343.23</ele>
  <time>2026-09-01T19:51:34Z</time>
  <course>8.63</course>
  <speed>0.0</speed>
  <fix>3d</fix>
</trkpt>
<trkpt lat="-27.274439" lon="151.290064">
  <ele>343.1</ele>
  <time>2026-09-01T19:51:34Z</time>
  <course>270.0</course>
  <speed>0.0</speed>
  <fix>3d</fix>
</trkpt>
<trkpt lat="-27.274439" lon="151.290064">
  <ele>343.17</ele>
  <time>2026-09-01T19:51:34Z</time>
  <course>8.83</course>
  <speed>0.0</speed>
  <fix>3d</fix>
</trkpt>
<trkpt lat="-27.274439" lon="151.290064">
  <ele>343.1</ele>
  <time>2026-09-01T19:51:34Z</time>
  <course>270.0</course>
  <speed>0.0</speed>
  <fix>3d</fix>
</trkpt>
<trkpt lat="-27.274439" lon="151.290064">
  <ele>343.04</ele>
  <time>2026-09-01T19:51:34Z</time>
  <course>9.01</course>
  <speed>0.0</speed>
  <fix>3d</fix>
</trkpt>
<trkpt lat="-27.274439" lon="151.290064">
  <ele>343.1</ele>
  <time>2026-09-01T19:51:34Z</time>
  <course>270.0</course>
  <speed>0.0</speed>
  <fix>3d</fix>
</trkpt>
<trkpt lat="-27.274439" lon="151.290064">
  <ele>342.89</ele>
  <time>2026-09-01T19:51:34Z</time>
  <course>9.18</course>
  <speed>0.0</speed>
  <fix>3d</fix>
</trkpt>
<trkpt lat="-27.274439" lon="151.290064">
  <ele>343.1</ele>
  <time>2026-09-01T19:51:34Z</time>
  <course>270.0</course>
  <speed>0.0</speed>
  <fix>3d</fix>
</trkpt>
<trkpt lat="-27.274439" lon="151.290064">
  <ele>343.08</ele>
  <time>2026-09-01T19:51:34Z</time>
  <course>9.33</course>
  <speed>0.0</speed>
  <fix>3d</fix>
</trkpt>
<trkpt lat="-27.274439" lon="151.290064">
  <ele>343.1</ele>
  <time>2026-09-01T19:51:34Z</time>
  <course>270.0</course>
  <speed>0.0</speed>
  <fix>3d</fix>
</trkpt>
<trkpt lat="-27.274439" lon="151.290064">
  <ele>343.19</ele>
  <time>2026-09-01T19:51:34Z</time>
  <course>9.47</course>
  <speed>0.0</speed>
  <fix>3d</fix>
</trkpt>
<trkpt lat="-27.274439" lon="151.290064">
  <ele>343.1</ele>
  <time>2026-09-01T19:51:34Z</time>
  <course>270.0</course>
  <speed>0.0</speed>
  <fix>3d</fix>
</trkpt>
<trkpt lat="-27.274439" lon="151.290064">
  <ele>342.88</ele>
  <time>2026-09-01T19:51:34Z</time>
  <course>9.59</course>
  <speed>0.0</speed>
  <fix>3d</fix>
</trkpt>
<trkpt lat="-27.274439" lon="151.290064">
  <ele>343.1</ele>
  <time>2026-09-01T19:51:34Z</time>
  <course>270.0</course>
  <speed>0.0</speed>
  <fix>3d</fix>
</trkpt>
<trkpt lat="-27.274439" lon="151.290064">
  <ele>343.17</ele>
  <time>2026-09-01T19:51:34Z</time>
  <course>9.7</course>
  <speed>0.0</speed>
  <fix>3d</fix>
</trkpt>
<trkpt lat="-27.274439" lon="151.290064">
  <ele>343.1</ele>
  <time>2026-09-01T19:51:34Z</time>
  <course>270.0</course>
  <speed>0.0</speed>
  <fix>3d</fix>
</trkpt>
<trkpt lat="-27.274439" lon="151.290064">
  <ele>342.89</ele>
  <time>2026-09-01T19:51:34Z</time>
  <course>9.8</course>
  <speed>0.0</speed>
  <fix>3d</fix>
</trkpt>
<trkpt lat="-27.274439" lon="151.290064">
  <ele>343.1</ele>
  <time>2026-09-01T19:51:34Z</time>
  <course>270.0</course>
  <speed>0.0</speed>
  <fix>3d</fix>
</trkpt>
<trkpt lat="-27.274439" lon="151.290064">
  <ele>342.99</ele>
  <time>2026-09-01T19:51:34Z</time>
  <course>9.9</course>
  <speed>0.0</speed>
  <fix>3d</fix>
</trkpt>
<trkpt lat="-27.274439" lon="151.290064">
  <ele>343.1</ele>
  <time>2026-09-01T19:51:34Z</time>
  <course>270.0</course>
  <speed>0.0</speed>
  <fix>3d</fix>
</trkpt>
<trkpt lat="-27.274439" lon="151.290064">
  <ele>342.87</ele>
  <time>2026-09-01T19:51:34Z</time>
  <course>9.98</course>
  <speed>0.0</speed>
  <fix>3d</fix>
</trkpt>
<trkpt lat="-27.274439" lon="151.290064">
  <ele>343.1</ele>
  <time>2026-09-01T19:51:34Z</time>
  <course>270.0</course>
  <speed>0.0</speed>
  <fix>3d</fix>
</trkpt>
<trkpt lat="-27.274439" lon="151.290064">
  <ele>343.09</ele>
  <time>2026-09-01T19:51:34Z</time>
  <course>10.06</course>
  <speed>0.0</speed>
  <fix>3d</fix>
</trkpt>
<trkpt lat="-27.274439" lon="151.290064">
  <ele>343.1</ele>
  <time>2026-09-01T19:51:34Z</time>
  <course>270.0</course>
  <speed>0.0</speed>
  <fix>3d</fix>
</trkpt>
<trkpt lat="-27.274439" lon="151.290064">
  <ele>343.18</ele>
  <time>2026-09-01T19:51:34Z</time>
  <course>10.13</course>
  <speed>0.0</speed>
  <fix>3d</fix>
</trkpt>
<trkpt lat="-27.274439" lon="151.290064">
  <ele>343.1</ele>
  <time>2026-09-01T19:51:34Z</time>
  <course>270.0</course>
  <speed>0.0</speed>
  <fix>3d</fix>
</trkpt>
<trkpt lat="-27.274439" lon="151.290064">
  <ele>343.05</ele>
  <time>2026-09-01T19:51:34Z</time>
  <course>10.2</course>
  <speed>0.0</speed>
  <fix>3d</fix>
</trkpt>
<trkpt lat="-27.274439" lon="151.290064">
  <ele>343.1</ele>
  <time>2026-09-01T19:51:34Z</time>
  <course>270.0</course>
  <speed>0.0</speed>
  <fix>3d</fix>
</trkpt>
<trkpt lat="-27.274439" lon="151.290064">
  <ele>342.96</ele>
  <time>2026-09-01T19:51:34Z</time>
  <course>10.25</course>
  <speed>0.0</speed>
  <fix>3d</fix>
</trkpt>
<trkpt lat="-27.274439" lon="151.290064">
  <ele>343.1</ele>
  <time>2026-09-01T19:51:34Z</time>
  <course>270.0</course>
  <speed>0.0</speed>
  <fix>3d</fix>
</trkpt>
<trkpt lat="-27.274439" lon="151.290064">
  <ele>343.1</ele>
  <time>2026-09-01T19:51:34Z</time>
  <course>10.31</course>
  <speed>0.0</speed>
  <fix>3d</fix>
</trkpt>
<trkpt lat="-27.274439" lon="151.290064">
  <ele>343.1</ele>
  <time>2026-09-01T19:51:34Z</time>
  <course>270.0</course>
  <speed>0.0</speed>
  <fix>3d</fix>
</trkpt>
<trkpt lat="-27.274439" lon="151.290064">
  <ele>343.22</ele>
  <time>2026-09-01T19:51:34Z</time>
  <course>10.35</course>
  <speed>0.0</speed>
  <fix>3d</fix>
</trkpt>
<trkpt lat="-27.274439" lon="151.290064">
  <ele>343.1</ele>
  <time>2026-09-01T19:51:34Z</time>
  <course>270.0</course>
  <speed>0.0</speed>
  <fix>3d</fix>
</trkpt>
<trkpt lat="-27.274439" lon="151.290064">
  <ele>343.17</ele>
  <time>2026-09-01T19:51:34Z</time>
  <course>10.4</course>
  <speed>0.0</speed>
  <fix>3d</fix>
</trkpt>
<trkpt lat="-27.274439" lon="151.290064">
  <ele>343.1</ele>
  <time>2026-09-01T19:51:34Z</time>
  <course>270.0</course>
  <speed>0.0</speed>
  <fix>3d</fix>
</trkpt>
<trkpt lat="-27.274439" lon="151.290064">
  <ele>343.08</ele>
  <time>2026-09-01T19:51:34Z</time>
  <course>10.44</course>
  <speed>0.0</speed>
  <fix>3d</fix>
</trkpt>
<trkpt lat="-27.274439" lon="151.290064">
  <ele>343.1</ele>
  <time>2026-09-01T19:51:34Z</time>
  <course>270.0</course>
  <speed>0.0</speed>
  <fix>3d</fix>
</trkpt>
<trkpt lat="-27.274439" lon="151.290064">
  <ele>343.04</ele>
  <time>2026-09-01T19:51:34Z</time>
  <course>10.47</course>
  <speed>0.0</speed>
  <fix>3d</fix>
</trkpt>
<trkpt lat="-27.274439" lon="151.290064">
  <ele>343.1</ele>
  <time>2026-09-01T19:51:34Z</time>
  <course>270.0</course>
  <speed>0.0</speed>
  <fix>3d</fix>
</trkpt>
<trkpt lat="-27.274439" lon="151.290064">
  <ele>343.18</ele>
  <time>2026-09-01T19:51:34Z</time>
  <course>10.5</course>
  <speed>0.0</speed>
  <fix>3d</fix>
</trkpt>
<trkpt lat="-27.274439" lon="151.290064">
  <ele>343.1</ele>
  <time>2026-09-01T19:51:34Z</time>
  <course>270.0</course>
  <speed>0.0</speed>
  <fix>3d</fix>
</trkpt>
<trkpt lat="-27.274439" lon="151.290064">
  <ele>343.12</ele>
  <time>2026-09-01T19:51:34Z</time>
  <course>10.53</course>
  <speed>0.0</speed>
  <fix>3d</fix>
</trkpt>
<trkpt lat="-27.274439" lon="151.290064">
  <ele>343.1</ele>
  <time>2026-09-01T19:51:34Z</time>
  <course>270.0</course>
  <speed>0.0</speed>
  <fix>3d</fix>
</trkpt>
<trkpt lat="-27.274439" lon="151.290064">
  <ele>343.04</ele>
  <time>2026-09-01T19:51:34Z</time>
  <course>10.56</course>
  <speed>0.0</speed>
  <fix>3d</fix>
</trkpt>
<trkpt lat="-27.274439" lon="151.290064">
  <ele>343.1</ele>
  <time>2026-09-01T19:51:34Z</time>
  <course>270.0</course>
  <speed>0.0</speed>
  <fix>3d</fix>
</trkpt>
<trkpt lat="-27.274439" lon="151.290064">
  <ele>343.07</ele>
  <time>2026-09-01T19:51:34Z</time>
  <course>10.58</course>
  <speed>0.0</speed>
  <fix>3d</fix>
</trkpt>
<trkpt lat="-27.274439" lon="151.290064">
  <ele>343.1</ele>
  <time>2026-09-01T19:51:34Z</time>
  <course>270.0</course>
  <speed>0.0</speed>
  <fix>3d</fix>
</trkpt>
<trkpt lat="-27.274439" lon="151.290064">
  <ele>343.04</ele>
  <time>2026-09-01T19:51:34Z</time>
  <course>10.6</course>
  <speed>0.0</speed>
  <fix>3d</fix>
</trkpt>
<trkpt lat="-27.274439" lon="151.290064">
  <ele>343.1</ele>
  <time>2026-09-01T19:51:34Z</time>
  <course>270.0</course>
  <speed>0.0</speed>
  <fix>3d</fix>
</trkpt>
<trkpt lat="-27.274439" lon="151.290064">
  <ele>343.01</ele>
  <time>2026-09-01T19:51:34Z</time>
  <course>10.62</course>
  <speed>0.0</speed>
  <fix>3d</fix>
</trkpt>
<trkpt lat="-27.274439" lon="151.290064">
  <ele>343.1</ele>
  <time>2026-09-01T19:51:34Z</time>
  <course>270.0</course>
  <speed>0.0</speed>
  <fix>3d</fix>
</trkpt>
<trkpt lat="-27.274439" lon="151.290064">
  <ele>343.2</ele>
  <time>2026-09-01T19:51:34Z</time>
  <course>10.64</course>
  <speed>0.0</speed>
  <fix>3d</fix>
</trkpt>
<trkpt lat="-27.274439" lon="151.290064">
  <ele>343.1</ele>
  <time>2026-09-01T19:51:34Z</time>
  <course>270.0</course>
  <speed>0.0</speed>
  <fix>3d</fix>
</trkpt>
<trkpt lat="-27.274439" lon="151.290064">
  <ele>343.24</ele>
  <time>2026-09-01T19:51:34Z</time>
  <course>10.65</course>
  <speed>0.0</speed>
  <fix>3d</fix>
</trkpt>
<trkpt lat="-27.274439" lon="151.290064">
  <ele>343.1</ele>
  <time>2026-09-01T19:51:34Z</time>
  <course>270.0</course>
  <speed>0.0</speed>
  <fix>3d</fix>
</trkpt>
<trkpt lat="-27.274439" lon="151.290064">
  <ele>342.88</ele>
  <time>2026-09-01T19:51:34Z</time>
  <course>10.67</course>
  <speed>0.0</speed>
  <fix>3d</fix>
</trkpt>
<trkpt lat="-27.274439" lon="151.290064">
  <ele>343.1</ele>
  <time>2026-09-01T19:51:34Z</time>
  <course>270.0</course>
  <speed>0.0</speed>
  <fix>3d</fix>
</trkpt>
<trkpt lat="-27.274439" lon="151.290064">
  <ele>343.21</ele>
  <time>2026-09-01T19:51:34Z</time>
  <course>10.68</course>
  <speed>0.0</speed>
  <fix>3d</fix>
</trkpt>
<trkpt lat="-27.274439" lon="151.290064">
  <ele>343.1</ele>
  <time>2026-09-01T19:51:34Z</time>
  <course>270.0</course>
  <speed>0.0</speed>
  <fix>3d</fix>
</trkpt>
<trkpt lat="-27.274439" lon="151.290064">
  <ele>343.02</ele>
  <time>2026-09-01T19:51:34Z</time>
  <course>10.69</course>
  <speed>0.0</speed>
  <fix>3d</fix>
</trkpt>
<trkpt lat="-27.274439" lon="151.290064">
  <ele>343.1</ele>
  <time>2026-09-01T19:51:34Z</time>
  <course>270.0</course>
  <speed>0.0</speed>
  <fix>3d</fix>
</trkpt>
<trkpt lat="-27.274439" lon="151.290064">
  <ele>342.93</ele>
  <time>2026-09-01T19:51:34Z</time>
  <course>10.7</course>
  <speed>0.0</speed>
  <fix>3d</fix>
</trkpt>
<trkpt lat="-27.274439" lon="151.290064">
  <ele>343.1</ele>
  <time>2026-09-01T19:51:34Z</time>
  <course>270.0</course>
  <speed>0.0</speed>
  <fix>3d</fix>
</trkpt>
<trkpt lat="-27.274439" lon="151.290064">
  <ele>343.07</ele>
  <time>2026-09-01T19:51:34Z</time>
  <course>10.71</course>
  <speed>0.0</speed>
  <fix>3d</fix>
</trkpt>
<trkpt lat="-27.274439" lon="151.290064">
  <ele>343.1</ele>
  <time>2026-09-01T19:51:34Z</time>
  <course>270.0</course>
  <speed>0.0</speed>
  <fix>3d</fix>
</trkpt>
<trkpt lat="-27.274439" lon="151.290064">
  <ele>342.94</ele>
  <time>2026-09-01T19:51:34Z</time>
  <course>10.72</course>
  <speed>0.0</speed>
  <fix>3d</fix>
</trkpt>
<trkpt lat="-27.274439" lon="151.290064">
  <ele>343.1</ele>
  <time>2026-09-01T19:51:34Z</time>
  <course>270.0</course>
  <speed>0.0</speed>
  <fix>3d</fix>
</trkpt>
<trkpt lat="-27.274439" lon="151.290064">
  <ele>343.11</ele>
  <time>2026-09-01T19:51:34Z</time>
  <course>10.73</course>
  <speed>0.0</speed>
  <fix>3d</fix>
</trkpt>
<trkpt lat="-27.274439" lon="151.290064">
  <ele>343.1</ele>
  <time>2026-09-01T19:51:34Z</time>
  <course>270.0</course>
  <speed>0.0</speed>
  <fix>3d</fix>
</trkpt>
<trkpt lat="-27.274439" lon="151.290064">
  <ele>343.24</ele>
  <time>2026-09-01T19:51:34Z</time>
  <course>10.73</course>
  <speed>0.0</speed>
  <fix>3d</fix>
</trkpt>
<trkpt lat="-27.274439" lon="151.290064">
  <ele>343.1</ele>
  <time>2026-09-01T19:51:34Z</time>
  <course>270.0</course>
  <speed>0.0</speed>
  <fix>3d</fix>
</trkpt>
<trkpt lat="-27.274439" lon="151.290064">
  <ele>343.18</ele>
  <time>2026-09-01T19:51:34Z</time>
  <course>10.74</course>
  <speed>0.0</speed>
  <fix>3d</fix>
</trkpt>
<trkpt lat="-27.274439" lon="151.290064">
  <ele>343.1</ele>
  <time>2026-09-01T19:51:34Z</time>
  <course>270.0</course>
  <speed>0.0</speed>
  <fix>3d</fix>
</trkpt>
<trkpt lat="-27.274439" lon="151.290064">
  <ele>342.89</ele>
  <time>2026-09-01T19:51:34Z</time>
  <course>10.75</course>
  <speed>0.0</speed>
  <fix>3d</fix>
</trkpt>
<trkpt lat="-27.274439" lon="151.290064">
  <ele>343.1</ele>
  <time>2026-09-01T19:51:34Z</time>
  <course>270.0</course>
  <speed>0.0</speed>
  <fix>3d</fix>
</trkpt>
<trkpt lat="-27.274439" lon="151.290064">
  <ele>343.23</ele>
  <time>2026-09-01T19:51:34Z</time>
  <course>10.75</course>
  <speed>0.0</speed>
  <fix>3d</fix>
</trkpt>
<trkpt lat="-27.274439" lon="151.290064">
  <ele>343.1</ele>
  <time>2026-09-01T19:51:34Z</time>
  <course>270.0</course>
  <speed>0.0</speed>
  <fix>3d</fix>
</trkpt>
<trkpt lat="-27.274439" lon="151.290064">
  <ele>343.23</ele>
  <time>2026-09-01T19:51:34Z</time>
  <course>10.76</course>
  <speed>0.0</speed>
  <fix>3d</fix>
</trkpt>
<trkpt lat="-27.274439" lon="151.290064">
  <ele>343.1</ele>
  <time>2026-09-01T19:51:34Z</time>
  <course>270.0</course>
  <speed>0.0</speed>
  <fix>3d</fix>
</trkpt>
<trkpt lat="-27.274439" lon="151.290064">
  <ele>342.99</ele>
  <time>2026-09-01T19:51:34Z</time>
  <course>10.76</course>
  <speed>0.0</speed>
  <fix>3d</fix>
</trkpt>
<trkpt lat="-27.274439" lon="151.290064">
  <ele>343.1</ele>
  <time>2026-09-01T19:51:34Z</time>
  <course>270.0</course>
  <speed>0.0</speed>
  <fix>3d</fix>
</trkpt>
<trkpt lat="-27.274439" lon="151.290064">
  <ele>343.13</ele>
  <time>2026-09-01T19:51:34Z</time>
  <course>10.76</course>
  <speed>0.0</speed>
  <fix>3d</fix>
</trkpt>
<trkpt lat="-27.274439" lon="151.290064">
  <ele>343.1</ele>
  <time>2026-09-01T19:51:34Z</time>
  <course>270.0</course>
  <speed>0.0</speed>
  <fix>3d</fix>
</trkpt>
<trkpt lat="-27.274439" lon="151.290064">
  <ele>343.07</ele>
  <time>2026-09-01T19:51:34Z</time>
  <course>10.77</course>
  <speed>0.0</speed>
  <fix>3d</fix>
</trkpt>
<trkpt lat="-27.274439" lon="151.290064">
  <ele>343.1</ele>
  <time>2026-09-01T19:51:34Z</time>
  <course>270.0</course>
  <speed>0.0</speed>
  <fix>3d</fix>
</trkpt>
<trkpt lat="-27.274439" lon="151.290064">
  <ele>343.19</ele>
  <time>2026-09-01T19:51:34Z</time>
  <course>10.77</course>
  <speed>0.0</speed>
  <fix>3d</fix>
</trkpt>
<trkpt lat="-27.274439" lon="151.290064">
  <ele>343.1</ele>
  <time>2026-09-01T19:51:34Z</time>
  <course>270.0</course>
  <speed>0.0</speed>
  <fix>3d</fix>
</trkpt>
<trkpt lat="-27.274439" lon="151.290064">
  <ele>342.93</ele>
  <time>2026-09-01T19:51:34Z</time>
  <course>10.77</course>
  <speed>0.0</speed>
  <fix>3d</fix>
</trkpt>
<trkpt lat="-27.274439" lon="151.290064">
  <ele>343.1</ele>
  <time>2026-09-01T19:51:34Z</time>
  <course>270.0</course>
  <speed>0.0</speed>
  <fix>3d</fix>
</trkpt>
<trkpt lat="-27.274439" lon="151.290064">
  <ele>343.19</ele>
  <time>2026-09-01T19:51:34Z</time>
  <course>10.78</course>
  <speed>0.0</speed>
  <fix>3d</fix>
</trkpt>
<trkpt lat="-27.274439" lon="151.290064">
  <ele>343.1</ele>
  <time>2026-09-01T19:51:34Z</time>
  <course>270.0</course>
  <speed>0.0</speed>
  <fix>3d</fix>
</trkpt>
<trkpt lat="-27.274439" lon="151.290064">
  <ele>343.1</ele>
  <time>2026-09-01T19:51:34Z</time>
  <course>10.78</course>
  <speed>0.0</speed>
  <fix>3d</fix>
</trkpt>
<trkpt lat="-27.274439" lon="151.290064">
  <ele>343.1</ele>
  <time>2026-09-01T19:51:34Z</time>
  <course>270.0</course>
  <speed>0.0</speed>
  <fix>3d</fix>
</trkpt>
<trkpt lat="-27.274439" lon="151.290064">
  <ele>343.01</ele>
  <time>2026-09-01T19:51:34Z</time>
  <course>10.78</course>
  <speed>0.0</speed>
  <fix>3d</fix>
</trkpt>
<trkpt lat="-27.274439" lon="151.290064">
  <ele>343.1</ele>
  <time>2026-09-01T19:51:34Z</time>
  <course>270.0</course>
  <speed>0.0</speed>
  <fix>3d</fix>
</trkpt>
<trkpt lat="-27.274439" lon="151.290064">
  <ele>343.11</ele>
  <time>2026-09-01T19:51:34Z</time>
  <course>10.78</course>
  <speed>0.0</speed>
  <fix>3d</fix>
</trkpt>
<trkpt lat="-27.274439" lon="151.290064">
  <ele>343.1</ele>
  <time>2026-09-01T19:51:34Z</time>
  <course>270.0</course>
  <speed>0.0</speed>
  <fix>3d</fix>
</trkpt>
<trkpt lat="-27.274439" lon="151.290064">
  <ele>342.96</ele>
  <time>2026-09-01T19:51:34Z</time>
  <course>10.78</course>
  <speed>0.0</speed>
  <fix>3d</fix>
</trkpt>
<trkpt lat="-27.274439" lon="151.290064">
  <ele>343.1</ele>
  <time>2026-09-01T19:51:34Z</time>
  <course>270.0</course>
  <speed>0.0</speed>
  <fix>3d</fix>
</trkpt>
<trkpt lat="-27.274439" lon="151.290064">
  <ele>343.19</ele>
  <time>2026-09-01T19:51:34Z</time>
  <course>10.79</course>
  <speed>0.0</speed>
  <fix>3d</fix>
</trkpt>
<trkpt lat="-27.274439" lon="151.290064">
  <ele>343.1</ele>
  <time>2026-09-01T19:51:34Z</time>
  <course>270.0</course>
  <speed>0.0</speed>
  <fix>3d</fix>
</trkpt>
<trkpt lat="-27.274439" lon="151.290064">
  <ele>343.0</ele>
  <time>2026-09-01T19:51:34Z</time>
  <course>10.79</course>
  <speed>0.0</speed>
  <fix>3d</fix>
</trkpt>
<trkpt lat="-27.274439" lon="151.290064">
  <ele>343.1</ele>
  <time>2026-09-01T19:51:34Z</time>
  <course>270.0</course>
  <speed>0.0</speed>
  <fix>3d</fix>
</trkpt>
<trkpt lat="-27.274439" lon="151.290064">
  <ele>343.2</ele>
  <time>2026-09-01T19:51:34Z</time>
  <course>10.79</course>
  <speed>0.0</speed>
  <fix>3d</fix>
</trkpt>
<trkpt lat="-27.274439" lon="151.290064">
  <ele>343.1</ele>
  <time>2026-09-01T19:51:34Z</time>
  <course>270.0</course>
  <speed>0.0</speed>
  <fix>3d</fix>
</trkpt>
<trkpt lat="-27.274439" lon="151.290064">
  <ele>343.2</ele>
  <time>2026-09-01T19:51:34Z</time>
  <course>10.79</course>
  <speed>0.0</speed>
  <fix>3d</fix>
</trkpt>
<trkpt lat="-27.274439" lon="151.290064">
  <ele>343.1</ele>
  <time>2026-09-01T19:51:34Z</time>
  <course>270.0</course>
  <speed>0.0</speed>
  <fix>3d</fix>
</trkpt>
<trkpt lat="-27.274439" lon="151.290064">
  <ele>343.13</ele>
  <time>2026-09-01T19:51:34Z</time>
  <course>10.79</course>
  <speed>0.0</speed>
  <fix>3d</fix>
</trkpt>
<trkpt lat="-27.274439" lon="151.290064">
  <ele>343.1</ele>
  <time>2026-09-01T19:51:34Z</time>
  <course>270.0</course>
  <speed>0.0</speed>
  <fix>3d</fix>
</trkpt>
<trkpt lat="-27.274439" lon="151.290064">
  <ele>343.1</ele>
  <time>2026-09-01T19:51:34Z</time>
  <course>10.79</course>
  <speed>0.0</speed>
  <fix>3d</fix>
</trkpt>
<trkpt lat="-27.274439" lon="151.290064">
  <ele>343.1</ele>
  <time>2026-09-01T19:51:34Z</time>
  <course>270.0</course>
  <speed>0.0</speed>
  <fix>3d</fix>
</trkpt>
<trkpt lat="-27.274439" lon="151.290064">
  <ele>343.12</ele>
  <time>2026-09-01T19:51:34Z</time>
  <course>10.79</course>
  <speed>0.0</speed>
  <fix>3d</fix>
</trkpt>
<trkpt lat="-27.274439" lon="151.290064">
  <ele>343.1</ele>
  <time>2026-09-01T19:51:34Z</time>
  <course>270.0</course>
  <speed>0.0</speed>
  <fix>3d</fix>
</trkpt>
<trkpt lat="-27.274439" lon="151.290064">
  <ele>342.94</ele>
  <time>2026-09-01T19:51:34Z</time>
  <course>10.79</course>
  <speed>0.0</speed>
  <fix>3d</fix>
</trkpt>
<trkpt lat="-27.274439" lon="151.290064">
  <ele>343.1</ele>
  <time>2026-09-01T19:51:34Z</time>
  <course>270.0</course>
  <speed>0.0</speed>
  <fix>3d</fix>
</trkpt>
<trkpt lat="-27.274439" lon="151.290064">
  <ele>343.25</ele>
  <time>2026-09-01T19:51:34Z</time>
  <course>10.79</course>
  <speed>0.0</speed>
  <fix>3d</fix>
</trkpt>
<trkpt lat="-27.274439" lon="151.290064">
  <ele>343.1</ele>
  <time>2026-09-01T19:51:34Z</time>
  <course>270.0</course>
  <speed>0.0</speed>
  <fix>3d</fix>
</trkpt>
<trkpt lat="-27.274439" lon="151.290064">
  <ele>342.93</ele>
  <time>2026-09-01T19:51:34Z</time>
  <course>10.79</course>
  <speed>0.0</speed>
  <fix>3d</fix>
</trkpt>
<trkpt lat="-27.274439" lon="151.290064">
  <ele>343.1</ele>
  <time>2026-09-01T19:51:34Z</time>
  <course>270.0</course>
  <speed>0.0</speed>
  <fix>3d</fix>
</trkpt>
<trkpt lat="-27.274439" lon="151.290064">
  <ele>343.08</ele>
  <time>2026-09-01T19:51:34Z</time>
  <course>10.79</course>
  <speed>0.0</speed>
  <fix>3d</fix>
</trkpt>
<trkpt lat="-27.274439" lon="151.290064">
  <ele>343.1</ele>
  <time>2026-09-01T19:51:34Z</time>
  <course>270.0</course>
  <speed>0.0</speed>
  <fix>3d</fix>
</trkpt>
<trkpt lat="-27.274439" lon="151.290064">
  <ele>343.23</ele>
  <time>2026-09-01T19:51:34Z</time>
  <course>10.8</course>
  <speed>0.0</speed>
  <fix>3d</fix>
</trkpt>
<trkpt lat="-27.274439" lon="151.290064">
  <ele>343.1</ele>
  <time>2026-09-01T19:51:34Z</time>
  <course>270.0</course>
  <speed>0.0</speed>
  <fix>3d</fix>
</trkpt>
<trkpt lat="-27.274439" lon="151.290064">
  <ele>343.01</ele>
  <time>2026-09-01T19:51:34Z</time>
  <course>10.8</course>
  <speed>0.0</speed>
  <fix>3d</fix>
</trkpt>
<trkpt lat="-27.274439" lon="151.290064">
  <ele>343.1</ele>
  <time>2026-09-01T19:51:34Z</time>
  <course>270.0</course>
  <speed>0.0</speed>
  <fix>3d</fix>
</trkpt>
<trkpt lat="-27.274439" lon="151.290064">
  <ele>343.1</ele>
  <time>2026-09-01T19:51:34Z</time>
  <course>10.8</course>
  <speed>0.0</speed>
  <fix>3d</fix>
</trkpt>
<trkpt lat="-27.274439" lon="151.290064">
  <ele>343.1</ele>
  <time>2026-09-01T19:51:34Z</time>
  <course>270.0</course>
  <speed>0.0</speed>
  <fix>3d</fix>
</trkpt>
<trkpt lat="-27.274439" lon="151.290064">
  <ele>342.99</ele>
  <time>2026-09-01T19:51:34Z</time>
  <course>10.8</course>
  <speed>0.0</speed>
  <fix>3d</fix>
</trkpt>
<trkpt lat="-27.274439" lon="151.290064">
  <ele>343.1</ele>
  <time>2026-09-01T19:51:34Z</time>
  <course>270.0</course>
  <speed>0.0</speed>
  <fix>3d</fix>
</trkpt>
<trkpt lat="-27.274439" lon="151.290064">
  <ele>342.87</ele>
  <time>2026-09-01T19:51:34Z</time>
  <course>10.8</course>
  <speed>0.0</speed>
  <fix>3d</fix>
</trkpt>
<trkpt lat="-27.274439" lon="151.290064">
  <ele>343.1</ele>
  <time>2026-09-01T19:51:34Z</time>
  <course>270.0</course>
  <speed>0.0</speed>
  <fix>3d</fix>
</trkpt>
<trkpt lat="-27.274439" lon="151.290064">
  <ele>343.1</ele>
  <time>2026-09-01T19:51:34Z</time>
  <course>10.8</course>
  <speed>0.0</speed>
  <fix>3d</fix>
</trkpt>
<trkpt lat="-27.274439" lon="151.290064">
  <ele>343.1</ele>
  <time>2026-09-01T19:51:34Z</time>
  <course>270.0</course>
  <speed>0.0</speed>
  <fix>3d</fix>
</trkpt>
<trkpt lat="-27.274439" lon="151.290064">
  <ele>342.99</ele>
  <time>2026-09-01T19:51:34Z</time>
  <course>10.8</course>
  <speed>0.0</speed>
  <fix>3d</fix>
</trkpt>
<trkpt lat="-27.274439" lon="151.290064">
  <ele>343.1</ele>
  <time>2026-09-01T19:51:34Z</time>
  <course>270.0</course>
  <speed>0.0</speed>
  <fix>3d</fix>
</trkpt>
<trkpt lat="-27.274439" lon="151.290064">
  <ele>342.91</ele>
  <time>2026-09-01T19:51:34Z</time>
  <course>10.8</course>
  <speed>0.0</speed>
  <fix>3d</fix>
</trkpt>
<trkpt lat="-27.274439" lon="151.290064">
  <ele>343.1</ele>
  <time>2026-09-01T19:51:34Z</time>
  <course>270.0</course>
  <speed>0.0</speed>
  <fix>3d</fix>
</trkpt>
<trkpt lat="-27.274439" lon="151.290064">
  <ele>342.9</ele>
  <time>2026-09-01T19:51:34Z</time>
  <course>10.8</course>
  <speed>0.0</speed>
  <fix>3d</fix>
</trkpt>
<trkpt lat="-27.274439" lon="151.290064">
  <ele>343.1</ele>
  <time>2026-09-01T19:51:34Z</time>
  <course>270.0</course>
  <speed>0.0</speed>
  <fix>3d</fix>
</trkpt>
<trkpt lat="-27.274439" lon="151.290064">
  <ele>342.87</ele>
  <time>2026-09-01T19:51:34Z</time>
  <course>10.8</course>
  <speed>0.0</speed>
  <fix>3d</fix>
</trkpt>
<trkpt lat="-27.274439" lon="151.290064">
  <ele>343.1</ele>
  <time>2026-09-01T19:51:34Z</time>
  <course>270.0</course>
  <speed>0.0</speed>
  <fix>3d</fix>
</trkpt>
<trkpt lat="-27.274439" lon="151.290064">
  <ele>343.12</ele>
  <time>2026-09-01T19:51:34Z</time>
  <course>10.8</course>
  <speed>0.0</speed>
  <fix>3d</fix>
</trkpt>
<trkpt lat="-27.274439" lon="151.290064">
  <ele>343.1</ele>
  <time>2026-09-01T19:51:34Z</time>
  <course>270.0</course>
  <speed>0.0</speed>
  <fix>3d</fix>
</trkpt>
<trkpt lat="-27.274439" lon="151.290064">
  <ele>342.99</ele>
  <time>2026-09-01T19:51:34Z</time>
  <course>10.8</course>
  <speed>0.0</speed>
  <fix>3d</fix>
</trkpt>
<trkpt lat="-27.274439" lon="151.290064">
  <ele>343.1</ele>
  <time>2026-09-01T19:51:34Z</time>
  <course>270.0</course>
  <speed>0.0</speed>
  <fix>3d</fix>
</trkpt>
<trkpt lat="-27.274439" lon="151.290064">
  <ele>343.13</ele>
  <time>2026-09-01T19:51:34Z</time>
  <course>10.8</course>
  <speed>0.0</speed>
  <fix>3d</fix>
</trkpt>
<trkpt lat="-27.274439" lon="151.290064">
  <ele>343.1</ele>
  <time>2026-09-01T19:51:34Z</time>
  <course>270.0</course>
  <speed>0.0</speed>
  <fix>3d</fix>
</trkpt>
<trkpt lat="-27.274439" lon="151.290064">
  <ele>343.0</ele>
  <time>2026-09-01T19:51:34Z</time>
  <course>10.8</course>
  <speed>0.0</speed>
  <fix>3d</fix>
</trkpt>
<trkpt lat="-27.274439" lon="151.290064">
  <ele>343.1</ele>
  <time>2026-09-01T19:51:34Z</time>
  <course>270.0</course>
  <speed>0.0</speed>
  <fix>3d</fix>
</trkpt>
<trkpt lat="-27.274439" lon="151.290064">
  <ele>343.17</ele>
  <time>2026-09-01T19:51:34Z</time>
  <course>10.8</course>
  <speed>0.0</speed>
  <fix>3d</fix>
</trkpt>
<trkpt lat="-27.274439" lon="151.290064">
  <ele>343.1</ele>
  <time>2026-09-01T19:51:34Z</time>
  <course>270.0</course>
  <speed>0.0</speed>
  <fix>3d</fix>
</trkpt>
<trkpt lat="-27.274439" lon="151.290064">
  <ele>343.0</ele>
  <time>2026-09-01T19:51:34Z</time>
  <course>10.8</course>
  <speed>0.0</speed>
  <fix>3d</fix>
</trkpt>
<trkpt lat="-27.274439" lon="151.290064">
  <ele>343.1</ele>
  <time>2026-09-01T19:51:34Z</time>
  <course>270.0</course>
  <speed>0.0</speed>
  <fix>3d</fix>
</trkpt>
<trkpt lat="-27.274439" lon="151.290064">
  <ele>342.99</ele>
  <time>2026-09-01T19:51:34Z</time>
  <course>10.8</course>
  <speed>0.0</speed>
  <fix>3d</fix>
</trkpt>
<trkpt lat="-27.274439" lon="151.290064">
  <ele>343.1</ele>
  <time>2026-09-01T19:51:34Z</time>
  <course>270.0</course>
  <speed>0.0</speed>
  <fix>3d</fix>
</trkpt>
<trkpt lat="-27.274439" lon="151.290064">
  <ele>343.17</ele>
  <time>2026-09-01T19:51:34Z</time>
  <course>10.8</course>
  <speed>0.0</speed>
  <fix>3d</fix>
</trkpt>
<trkpt lat="-27.274439" lon="151.290064">
  <ele>343.1</ele>
  <time>2026-09-01T19:51:34Z</time>
  <course>270.0</course>
  <speed>0.0</speed>
  <fix>3d</fix>
</trkpt>
<trkpt lat="-27.274439" lon="151.290064">
  <ele>343.16</ele>
  <time>2026-09-01T19:51:34Z</time>
  <course>10.8</course>
  <speed>0.0</speed>
  <fix>3d</fix>
</trkpt>
<trkpt lat="-27.274439" lon="151.290064">
  <ele>343.1</ele>
  <time>2026-09-01T19:51:34Z</time>
  <course>270.0</course>
  <speed>0.0</speed>
  <fix>3d</fix>
</trkpt>
<trkpt lat="-27.274439" lon="151.290064">
  <ele>342.87</ele>
  <time>2026-09-01T19:51:34Z</time>
  <course>10.8</course>
  <speed>0.0</speed>
  <fix>3d</fix>
</trkpt>
<trkpt lat="-27.274439" lon="151.290064">
  <ele>343.1</ele>
  <time>2026-09-01T19:51:34Z</time>
  <course>270.0</course>
  <speed>0.0</speed>
  <fix>3d</fix>
</trkpt>
<trkpt lat="-27.274439" lon="151.290064">
  <ele>343.19</ele>
  <time>2026-09-01T19:51:34Z</time>
  <course>10.8</course>
  <speed>0.0</speed>
  <fix>3d</fix>
</trkpt>
<trkpt lat="-27.274439" lon="151.290064">
  <ele>343.1</ele>
  <time>2026-09-01T19:51:34Z</time>
  <course>270.0</course>
  <speed>0.0</speed>
  <fix>3d</fix>
</trkpt>
<trkpt lat="-27.274439" lon="151.290064">
  <ele>343.16</ele>
  <time>2026-09-01T19:51:34Z</time>
  <course>10.8</course>
  <speed>0.0</speed>
  <fix>3d</fix>
</trkpt>
<trkpt lat="-27.274439" lon="151.290064">
  <ele>343.1</ele>
  <time>2026-09-01T19:51:34Z</time>
  <course>270.0</course>
  <speed>0.0</speed>
  <fix>3d</fix>
</trkpt>
<trkpt lat="-27.274439" lon="151.290064">
  <ele>343.21</ele>
  <time>2026-09-01T19:51:34Z</time>
  <course>10.8</course>
  <speed>0.0</speed>
  <fix>3d</fix>
</trkpt>
<trkpt lat="-27.274439" lon="151.290064">
  <ele>343.1</ele>
  <time>2026-09-01T19:51:34Z</time>
  <course>270.0</course>
  <speed>0.0</speed>
  <fix>3d</fix>
</trkpt>
<trkpt lat="-27.274439" lon="151.290064">
  <ele>343.22</ele>
  <time>2026-09-01T19:51:34Z</time>
  <course>10.8</course>
  <speed>0.0</speed>
  <fix>3d</fix>
</trkpt>
<trkpt lat="-27.274439" lon="151.290064">
  <ele>343.1</ele>
  <time>2026-09-01T19:51:34Z</time>
  <course>270.0</course>
  <speed>0.0</speed>
  <fix>3d</fix>
</trkpt>
<trkpt lat="-27.274439" lon="151.290064">
  <ele>343.24</ele>
  <time>2026-09-01T19:51:34Z</time>
  <course>10.8</course>
  <speed>0.0</speed>
  <fix>3d</fix>
</trkpt>
<trkpt lat="-27.274439" lon="151.290064">
  <ele>343.1</ele>
  <time>2026-09-01T19:51:34Z</time>
  <course>270.0</course>
  <speed>0.0</speed>
  <fix>3d</fix>
</trkpt>
<trkpt lat="-27.274439" lon="151.290064">
  <ele>343.0</ele>
  <time>2026-09-01T19:51:34Z</time>
  <course>10.8</course>
  <speed>0.0</speed>
  <fix>3d</fix>
</trkpt>
<trkpt lat="-27.274439" lon="151.290064">
  <ele>343.1</ele>
  <time>2026-09-01T19:51:34Z</time>
  <course>270.0</course>
  <speed>0.0</speed>
  <fix>3d</fix>
</trkpt>
<trkpt lat="-27.274439" lon="151.290064">
  <ele>343.1</ele>
  <time>2026-09-01T19:51:34Z</time>
  <course>10.8</course>
  <speed>0.0</speed>
  <fix>3d</fix>
</trkpt>
<trkpt lat="-27.274439" lon="151.290064">
  <ele>343.1</ele>
  <time>2026-09-01T19:51:34Z</time>
  <course>270.0</course>
  <speed>0.0</speed>
  <fix>3d</fix>
</trkpt>
<trkpt lat="-27.274439" lon="151.290064">
  <ele>343.05</ele>
  <time>2026-09-01T19:51:34Z</time>
  <course>10.8</course>
  <speed>0.0</speed>
  <fix>3d</fix>
</trkpt>
<trkpt lat="-27.274439" lon="151.290064">
  <ele>343.1</ele>
  <time>2026-09-01T19:51:34Z</time>
  <course>270.0</course>
  <speed>0.0</speed>
  <fix>3d</fix>
</trkpt>
<trkpt lat="-27.274439" lon="151.290064">
  <ele>342.87</ele>
  <time>2026-09-01T19:51:34Z</time>
  <course>10.8</course>
  <speed>0.0</speed>
  <fix>3d</fix>
</trkpt>
<trkpt lat="-27.274439" lon="151.290064">
  <ele>343.1</ele>
  <time>2026-09-01T19:51:34Z</time>
  <course>270.0</course>
  <speed>0.0</speed>
  <fix>3d</fix>
</trkpt>
<trkpt lat="-27.274439" lon="151.290064">
  <ele>342.92</ele>
  <time>2026-09-01T19:51:34Z</time>
  <course>10.8</course>
  <speed>0.0</speed>
  <fix>3d</fix>
</trkpt>
<trkpt lat="-27.274439" lon="151.290064">
  <ele>343.1</ele>
  <time>2026-09-01T19:51:34Z</time>
  <course>270.0</course>
  <speed>0.0</speed>
  <fix>3d</fix>
</trkpt>
<trkpt lat="-27.274439" lon="151.290064">
  <ele>342.96</ele>
  <time>2026-09-01T19:51:34Z</time>
  <course>10.8</course>
  <speed>0.0</speed>
  <fix>3d</fix>
</trkpt>
<trkpt lat="-27.274439" lon="151.290064">
  <ele>343.1</ele>
  <time>2026-09-01T19:51:34Z</time>
  <course>270.0</course>
  <speed>0.0</speed>
  <fix>3d</fix>
</trkpt>
<trkpt lat="-27.274439" lon="151.290064">
  <ele>343.15</ele>
  <time>2026-09-01T19:51:34Z</time>
  <course>10.8</course>
  <speed>0.0</speed>
  <fix>3d</fix>
</trkpt>
<trkpt lat="-27.274439" lon="151.290064">
  <ele>343.1</ele>
  <time>2026-09-01T19:51:34Z</time>
  <course>270.0</course>
  <speed>0.0</speed>
  <fix>3d</fix>
</trkpt>
<trkpt lat="-27.274439" lon="151.290064">
  <ele>343.16</ele>
  <time>2026-09-01T19:51:34Z</time>
  <course>10.8</course>
  <speed>0.0</speed>
  <fix>3d</fix>
</trkpt>
<trkpt lat="-27.274439" lon="151.290064">
  <ele>343.1</ele>
  <time>2026-09-01T19:51:34Z</time>
  <course>270.0</course>
  <speed>0.0</speed>
  <fix>3d</fix>
</trkpt>
<trkpt lat="-27.274439" lon="151.290064">
  <ele>343.2</ele>
  <time>2026-09-01T19:51:34Z</time>
  <course>10.81</course>
  <speed>0.0</speed>
  <fix>3d</fix>
</trkpt>
<trkpt lat="-27.274439" lon="151.290064">
  <ele>343.1</ele>
  <time>2026-09-01T19:51:34Z</time>
  <course>270.0</course>
  <speed>0.0</speed>
  <fix>3d</fix>
</trkpt>
<trkpt lat="-27.274439" lon="151.290064">
  <ele>343.13</ele>
  <time>2026-09-01T19:51:34Z</time>
  <course>10.82</course>
  <speed>0.0</speed>
  <fix>3d</fix>
</trkpt>
<trkpt lat="-27.274439" lon="151.290064">
  <ele>343.1</ele>
  <time>2026-09-01T19:51:34Z</time>
  <course>270.0</course>
  <speed>0.0</speed>
  <fix>3d</fix>
</trkpt>
<trkpt lat="-27.274439" lon="151.290064">
  <ele>343.09</ele>
  <time>2026-09-01T19:51:34Z</time>
  <course>10.71</course>
  <speed>0.0</speed>
  <fix>3d</fix>
</trkpt>
<trkpt lat="-27.274439" lon="151.290064">
  <ele>343.1</ele>
  <time>2026-09-01T19:51:34Z</time>
  <course>270.0</course>
  <speed>0.0</speed>
  <fix>3d</fix>
</trkpt>
<trkpt lat="-27.274439" lon="151.290064">
  <ele>343.09</ele>
  <time>2026-09-01T19:51:34Z</time>
  <course>10.71</course>
  <speed>0.0</speed>
  <fix>3d</fix>
</trkpt>
<trkpt lat="-27.274439" lon="151.290064">
  <ele>343.1</ele>
  <time>2026-09-01T19:51:34Z</time>
  <course>270.0</course>
  <speed>0.0</speed>
  <fix>3d</fix>
</trkpt>
<trkpt lat="-27.274439" lon="151.290064">
  <ele>343.1</ele>
  <time>2026-09-01T19:51:34Z</time>
  <course>10.71</course>
  <speed>0.0</speed>
  <fix>3d</fix>
</trkpt>
<trkpt lat="-27.274439" lon="151.290064">
  <ele>343.1</ele>
  <time>2026-09-01T19:51:34Z</time>
  <course>270.0</course>
  <speed>0.0</speed>
  <fix>3d</fix>
</trkpt>
<trkpt lat="-27.274439" lon="151.290064">
  <ele>343.1</ele>
  <time>2026-09-01T19:51:34Z</time>
  <course>10.71</course>
  <speed>0.0</speed>
  <fix>3d</fix>
</trkpt>
<trkpt lat="-27.274439" lon="151.290064">
  <ele>343.1</ele>
  <time>2026-09-01T19:51:34Z</time>
  <course>270.0</course>
  <speed>0.0</speed>
  <fix>3d</fix>
</trkpt>
<trkpt lat="-27.274439" lon="151.290064">
  <ele>343.1</ele>
  <time>2026-09-01T19:51:34Z</time>
  <course>10.71</course>
  <speed>0.0</speed>
  <fix>3d</fix>
</trkpt>
<trkpt lat="-27.274439" lon="151.290064">
  <ele>343.1</ele>
  <time>2026-09-01T19:51:34Z</time>
  <course>270.0</course>
  <speed>0.0</speed>
  <fix>3d</fix>
</trkpt>
<trkpt lat="-27.274439" lon="151.290064">
  <ele>343.1</ele>
  <time>2026-09-01T19:51:34Z</time>
  <course>10.71</course>
  <speed>0.0</speed>
  <fix>3d</fix>
</trkpt>
<trkpt lat="-27.274439" lon="151.290064">
  <ele>343.1</ele>
  <time>2026-09-01T19:51:34Z</time>
  <course>270.0</course>
  <speed>0.0</speed>
  <fix>3d</fix>
</trkpt>
<trkpt lat="-27.274439" lon="151.290064">
  <ele>343.1</ele>
  <time>2026-09-01T19:51:34Z</time>
  <course>10.71</course>
  <speed>0.0</speed>
  <fix>3d</fix>
</trkpt>
<trkpt lat="-27.274439" lon="151.290064">
  <ele>343.1</ele>
  <time>2026-09-01T19:51:34Z</time>
  <course>270.0</course>
  <speed>0.0</speed>
  <fix>3d</fix>
</trkpt>
<trkpt lat="-27.274439" lon="151.290064">
  <ele>343.11</ele>
  <time>2026-09-01T19:51:34Z</time>
  <course>10.71</course>
  <speed>0.0</speed>
  <fix>3d</fix>
</trkpt>
<trkpt lat="-27.274439" lon="151.290064">
  <ele>343.1</ele>
  <time>2026-09-01T19:51:34Z</time>
  <course>270.0</course>
  <speed>0.0</speed>
  <fix>3d</fix>
</trkpt>
<trkpt lat="-27.274439" lon="151.290064">
  <ele>343.11</ele>
  <time>2026-09-01T19:51:34Z</time>
  <course>10.71</course>
  <speed>0.0</speed>
  <fix>3d</fix>
</trkpt>
<trkpt lat="-27.274439" lon="151.290064">
  <ele>343.1</ele>
  <time>2026-09-01T19:51:34Z</time>
  <course>270.0</course>
  <speed>0.0</speed>
  <fix>3d</fix>
</trkpt>
<trkpt lat="-27.274439" lon="151.290064">
  <ele>343.11</ele>
  <time>2026-09-01T19:51:34Z</time>
  <course>10.71</course>
  <speed>0.0</speed>
  <fix>3d</fix>
</trkpt>
<trkpt lat="-27.274439" lon="151.290064">
  <ele>343.1</ele>
  <time>2026-09-01T19:51:34Z</time>
  <course>270.0</course>
  <speed>0.0</speed>
  <fix>3d</fix>
</trkpt>
<trkpt lat="-27.274439" lon="151.290064">
  <ele>343.12</ele>
  <time>2026-09-01T19:51:34Z</time>
  <course>10.71</course>
  <speed>0.0</speed>
  <fix>3d</fix>
</trkpt>
<trkpt lat="-27.274439" lon="151.290064">
  <ele>343.1</ele>
  <time>2026-09-01T19:51:34Z</time>
  <course>270.0</course>
  <speed>0.0</speed>
  <fix>3d</fix>
</trkpt>
<trkpt lat="-27.274439" lon="151.290064">
  <ele>343.12</ele>
  <time>2026-09-01T19:51:34Z</time>
  <course>10.71</course>
  <speed>0.0</speed>
  <fix>3d</fix>
</trkpt>
<trkpt lat="-27.274439" lon="151.290064">
  <ele>343.1</ele>
  <time>2026-09-01T19:51:34Z</time>
  <course>270.0</course>
  <speed>0.0</speed>
  <fix>3d</fix>
</trkpt>
<trkpt lat="-27.274439" lon="151.290064">
  <ele>343.1</ele>
  <time>2026-09-01T19:51:34Z</time>
  <course>10.71</course>
  <speed>0.0</speed>
  <fix>3d</fix>
</trkpt>
<trkpt lat="-27.274439" lon="151.290064">
  <ele>343.1</ele>
  <time>2026-09-01T19:51:34Z</time>
  <course>270.0</course>
  <speed>0.0</speed>
  <fix>3d</fix>
</trkpt>
<trkpt lat="-27.274439" lon="151.290064">
  <ele>343.1</ele>
  <time>2026-09-01T19:51:34Z</time>
  <course>10.71</course>
  <speed>0.0</speed>
  <fix>3d</fix>
</trkpt>
<trkpt lat="-27.274439" lon="151.290064">
  <ele>343.1</ele>
  <time>2026-09-01T19:51:34Z</time>
  <course>270.0</course>
  <speed>0.0</speed>
  <fix>3d</fix>
</trkpt>
<trkpt lat="-27.274439" lon="151.290064">
  <ele>343.1</ele>
  <time>2026-09-01T19:51:34Z</time>
  <course>10.71</course>
  <speed>0.0</speed>
  <fix>3d</fix>
</trkpt>
<trkpt lat="-27.274439" lon="151.290064">
  <ele>343.1</ele>
  <time>2026-09-01T19:51:34Z</time>
  <course>270.0</course>
  <speed>0.0</speed>
  <fix>3d</fix>
</trkpt>
<trkpt lat="-27.274439" lon="151.290064">
  <ele>343.09</ele>
  <time>2026-09-01T19:51:34Z</time>
  <course>10.71</course>
  <speed>0.0</speed>
  <fix>3d</fix>
</trkpt>
<trkpt lat="-27.274439" lon="151.290064">
  <ele>343.1</ele>
  <time>2026-09-01T19:51:34Z</time>
  <course>270.0</course>
  <speed>0.0</speed>
  <fix>3d</fix>
</trkpt>
<trkpt lat="-27.274439" lon="151.290064">
  <ele>343.09</ele>
  <time>2026-09-01T19:51:34Z</time>
  <course>10.71</course>
  <speed>0.0</speed>
  <fix>3d</fix>
</trkpt>
<trkpt lat="-27.274439" lon="151.290064">
  <ele>343.1</ele>
  <time>2026-09-01T19:51:34Z</time>
  <course>270.0</course>
  <speed>0.0</speed>
  <fix>3d</fix>
</trkpt>
<trkpt lat="-27.274439" lon="151.290064">
  <ele>343.09</ele>
  <time>2026-09-01T19:51:34Z</time>
  <course>10.71</course>
  <speed>0.0</speed>
  <fix>3d</fix>
</trkpt>
<trkpt lat="-27.274439" lon="151.290064">
  <ele>343.1</ele>
  <time>2026-09-01T19:51:34Z</time>
  <course>270.0</course>
  <speed>0.0</speed>
  <fix>3d</fix>
</trkpt>
<trkpt lat="-27.274439" lon="151.290064">
  <ele>343.1</ele>
  <time>2026-09-01T19:51:34Z</time>
  <course>10.71</course>
  <speed>0.0</speed>
  <fix>3d</fix>
</trkpt>
<trkpt lat="-27.274439" lon="151.290064">
  <ele>343.1</ele>
  <time>2026-09-01T19:51:34Z</time>
  <course>270.0</course>
  <speed>0.0</speed>
  <fix>3d</fix>
</trkpt>
<trkpt lat="-27.274439" lon="151.290064">
  <ele>343.1</ele>
  <time>2026-09-01T19:51:34Z</time>
  <course>10.71</course>
  <speed>0.0</speed>
  <fix>3d</fix>
</trkpt>
<trkpt lat="-27.274439" lon="151.290064">
  <ele>343.1</ele>
  <time>2026-09-01T19:51:34Z</time>
  <course>270.0</course>
  <speed>0.0</speed>
  <fix>3d</fix>
</trkpt>
<trkpt lat="-27.274439" lon="151.290064">
  <ele>343.09</ele>
  <time>2026-09-01T19:51:34Z</time>
  <course>10.71</course>
  <speed>0.0</speed>
  <fix>3d</fix>
</trkpt>
<trkpt lat="-27.274439" lon="151.290064">
  <ele>343.1</ele>
  <time>2026-09-01T19:51:34Z</time>
  <course>270.0</course>
  <speed>0.0</speed>
  <fix>3d</fix>
</trkpt>
<trkpt lat="-27.274439" lon="151.290064">
  <ele>343.09</ele>
  <time>2026-09-01T19:51:34Z</time>
  <course>10.71</course>
  <speed>0.0</speed>
  <fix>3d</fix>
</trkpt>
<trkpt lat="-27.274439" lon="151.290064">
  <ele>343.1</ele>
  <time>2026-09-01T19:51:34Z</time>
  <course>270.0</course>
  <speed>0.0</speed>
  <fix>3d</fix>
</trkpt>
<trkpt lat="-27.274439" lon="151.290064">
  <ele>343.09</ele>
  <time>2026-09-01T19:51:34Z</time>
  <course>10.71</course>
  <speed>0.0</speed>
  <fix>3d</fix>
</trkpt>
<trkpt lat="-27.274439" lon="151.290064">
  <ele>343.1</ele>
  <time>2026-09-01T19:51:34Z</time>
  <course>270.0</course>
  <speed>0.0</speed>
  <fix>3d</fix>
</trkpt>
<trkpt lat="-27.274439" lon="151.290064">
  <ele>343.09</ele>
  <time>2026-09-01T19:51:34Z</time>
  <course>10.71</course>
  <speed>0.0</speed>
  <fix>3d</fix>
</trkpt>
<trkpt lat="-27.274439" lon="151.290064">
  <ele>343.1</ele>
  <time>2026-09-01T19:51:34Z</time>
  <course>270.0</course>
  <speed>0.0</speed>
  <fix>3d</fix>
</trkpt>
<trkpt lat="-27.274439" lon="151.290064">
  <ele>343.09</ele>
  <time>2026-09-01T19:51:34Z</time>
  <course>10.71</course>
  <speed>0.0</speed>
  <fix>3d</fix>
</trkpt>
<trkpt lat="-27.274439" lon="151.290064">
  <ele>343.1</ele>
  <time>2026-09-01T19:51:34Z</time>
  <course>270.0</course>
  <speed>0.0</speed>
  <fix>3d</fix>
</trkpt>
<trkpt lat="-27.274439" lon="151.290064">
  <ele>343.09</ele>
  <time>2026-09-01T19:51:34Z</time>
  <course>10.71</course>
  <speed>0.0</speed>
  <fix>3d</fix>
</trkpt>
<trkpt lat="-27.274439" lon="151.290064">
  <ele>343.1</ele>
  <time>2026-09-01T19:51:34Z</time>
  <course>270.0</course>
  <speed>0.0</speed>
  <fix>3d</fix>
</trkpt>
<trkpt lat="-27.274439" lon="151.290064">
  <ele>343.09</ele>
  <time>2026-09-01T19:51:34Z</time>
  <course>10.71</course>
  <speed>0.0</speed>
  <fix>3d</fix>
</trkpt>
<trkpt lat="-27.274439" lon="151.290064">
  <ele>343.1</ele>
  <time>2026-09-01T19:51:34Z</time>
  <course>270.0</course>
  <speed>0.0</speed>
  <fix>3d</fix>
</trkpt>
<trkpt lat="-27.274439" lon="151.290064">
  <ele>343.09</ele>
  <time>2026-09-01T19:51:34Z</time>
  <course>10.71</course>
  <speed>0.0</speed>
  <fix>3d</fix>
</trkpt>
<trkpt lat="-27.274439" lon="151.290064">
  <ele>343.1</ele>
  <time>2026-09-01T19:51:34Z</time>
  <course>270.0</course>
  <speed>0.0</speed>
  <fix>3d</fix>
</trkpt>
<trkpt lat="-27.274439" lon="151.290064">
  <ele>343.1</ele>
  <time>2026-09-01T19:51:34Z</time>
  <course>10.71</course>
  <speed>0.0</speed>
  <fix>3d</fix>
</trkpt>
<trkpt lat="-27.274439" lon="151.290064">
  <ele>343.1</ele>
  <time>2026-09-01T19:51:34Z</time>
  <course>270.0</course>
  <speed>0.0</speed>
  <fix>3d</fix>
</trkpt>
<trkpt lat="-27.274439" lon="151.290064">
  <ele>343.1</ele>
  <time>2026-09-01T19:51:34Z</time>
  <course>10.71</course>
  <speed>0.0</speed>
  <fix>3d</fix>
</trkpt>
<trkpt lat="-27.274439" lon="151.290064">
  <ele>343.1</ele>
  <time>2026-09-01T19:51:34Z</time>
  <course>270.0</course>
  <speed>0.0</speed>
  <fix>3d</fix>
</trkpt>
<trkpt lat="-27.274439" lon="151.290064">
  <ele>343.1</ele>
  <time>2026-09-01T19:51:34Z</time>
  <course>10.71</course>
  <speed>0.0</speed>
  <fix>3d</fix>
</trkpt>
<trkpt lat="-27.274439" lon="151.290064">
  <ele>343.1</ele>
  <time>2026-09-01T19:51:34Z</time>
  <course>270.0</course>
  <speed>0.0</speed>
  <fix>3d</fix>
</trkpt>
<trkpt lat="-27.274439" lon="151.290064">
  <ele>343.1</ele>
  <time>2026-09-01T19:51:34Z</time>
  <course>10.71</course>
  <speed>0.0</speed>
  <fix>3d</fix>
</trkpt>
<trkpt lat="-27.274439" lon="151.290064">
  <ele>343.1</ele>
  <time>2026-09-01T19:51:34Z</time>
  <course>270.0</course>
  <speed>0.0</speed>
  <fix>3d</fix>
</trkpt>
<trkpt lat="-27.274439" lon="151.290064">
  <ele>343.11</ele>
  <time>2026-09-01T19:51:34Z</time>
  <course>10.71</course>
  <speed>0.0</speed>
  <fix>3d</fix>
</trkpt>
<trkpt lat="-27.274439" lon="151.290064">
  <ele>343.1</ele>
  <time>2026-09-01T19:51:34Z</time>
  <course>270.0</course>
  <speed>0.0</speed>
  <fix>3d</fix>
</trkpt>
<trkpt lat="-27.274439" lon="151.290064">
  <ele>343.11</ele>
  <time>2026-09-01T19:51:34Z</time>
  <course>10.71</course>
  <speed>0.0</speed>
  <fix>3d</fix>
</trkpt>
<trkpt lat="-27.274439" lon="151.290064">
  <ele>343.1</ele>
  <time>2026-09-01T19:51:34Z</time>
  <course>270.0</course>
  <speed>0.0</speed>
  <fix>3d</fix>
</trkpt>
<trkpt lat="-27.274439" lon="151.290064">
  <ele>343.11</ele>
  <time>2026-09-01T19:51:34Z</time>
  <course>10.71</course>
  <speed>0.0</speed>
  <fix>3d</fix>
</trkpt>
<trkpt lat="-27.274439" lon="151.290064">
  <ele>343.1</ele>
  <time>2026-09-01T19:51:34Z</time>
  <course>270.0</course>
  <speed>0.0</speed>
  <fix>3d</fix>
</trkpt>
<trkpt lat="-27.274439" lon="151.290064">
  <ele>343.11</ele>
  <time>2026-09-01T19:51:34Z</time>
  <course>10.71</course>
  <speed>0.0</speed>
  <fix>3d</fix>
</trkpt>
<trkpt lat="-27.274439" lon="151.290064">
  <ele>343.1</ele>
  <time>2026-09-01T19:51:34Z</time>
  <course>270.0</course>
  <speed>0.0</speed>
  <fix>3d</fix>
</trkpt>
<trkpt lat="-27.274439" lon="151.290064">
  <ele>343.12</ele>
  <time>2026-09-01T19:51:34Z</time>
  <course>10.71</course>
  <speed>0.0</speed>
  <fix>3d</fix>
</trkpt>
<trkpt lat="-27.274439" lon="151.290064">
  <ele>343.1</ele>
  <time>2026-09-01T19:51:34Z</time>
  <course>270.0</course>
  <speed>0.0</speed>
  <fix>3d</fix>
</trkpt>
<trkpt lat="-27.274439" lon="151.290064">
  <ele>343.12</ele>
  <time>2026-09-01T19:51:35Z</time>
  <course>10.71</course>
  <speed>0.0</speed>
  <fix>3d</fix>
</trkpt>
<trkpt lat="-27.274439" lon="151.290064">
  <ele>343.1</ele>
  <time>2026-09-01T19:51:35Z</time>
  <course>270.0</course>
  <speed>0.0</speed>
  <fix>3d</fix>
</trkpt>
<trkpt lat="-27.274439" lon="151.290064">
  <ele>343.12</ele>
  <time>2026-09-01T19:51:35Z</time>
  <course>10.71</course>
  <speed>0.0</speed>
  <fix>3d</fix>
</trkpt>
<trkpt lat="-27.274439" lon="151.290064">
  <ele>343.1</ele>
  <time>2026-09-01T19:51:35Z</time>
  <course>270.0</course>
  <speed>0.0</speed>
  <fix>3d</fix>
</trkpt>
<trkpt lat="-27.274439" lon="151.290064">
  <ele>343.12</ele>
  <time>2026-09-01T19:51:35Z</time>
  <course>10.71</course>
  <speed>0.0</speed>
  <fix>3d</fix>
</trkpt>
<trkpt lat="-27.274439" lon="151.290064">
  <ele>343.1</ele>
  <time>2026-09-01T19:51:35Z</time>
  <course>270.0</course>
  <speed>0.0</speed>
  <fix>3d</fix>
</trkpt>
<trkpt lat="-27.274439" lon="151.290064">
  <ele>343.12</ele>
  <time>2026-09-01T19:51:35Z</time>
  <course>10.71</course>
  <speed>0.0</speed>
  <fix>3d</fix>
</trkpt>
<trkpt lat="-27.274439" lon="151.290064">
  <ele>343.1</ele>
  <time>2026-09-01T19:51:35Z</time>
  <course>270.0</course>
  <speed>0.0</speed>
  <fix>3d</fix>
</trkpt>
<trkpt lat="-27.274439" lon="151.290064">
  <ele>343.13</ele>
  <time>2026-09-01T19:51:35Z</time>
  <course>10.71</course>
  <speed>0.0</speed>
  <fix>3d</fix>
</trkpt>
<trkpt lat="-27.274439" lon="151.290064">
  <ele>343.1</ele>
  <time>2026-09-01T19:51:35Z</time>
  <course>270.0</course>
  <speed>0.0</speed>
  <fix>3d</fix>
</trkpt>
<trkpt lat="-27.274439" lon="151.290064">
  <ele>343.13</ele>
  <time>2026-09-01T19:51:35Z</time>
  <course>10.71</course>
  <speed>0.0</speed>
  <fix>3d</fix>
</trkpt>
<trkpt lat="-27.274439" lon="151.290064">
  <ele>343.1</ele>
  <time>2026-09-01T19:51:35Z</time>
  <course>270.0</course>
  <speed>0.0</speed>
  <fix>3d</fix>
</trkpt>
<trkpt lat="-27.274439" lon="151.290064">
  <ele>343.13</ele>
  <time>2026-09-01T19:51:35Z</time>
  <course>10.71</course>
  <speed>0.0</speed>
  <fix>3d</fix>
</trkpt>
<trkpt lat="-27.274439" lon="151.290064">
  <ele>343.1</ele>
  <time>2026-09-01T19:51:35Z</time>
  <course>270.0</course>
  <speed>0.0</speed>
  <fix>3d</fix>
</trkpt>
<trkpt lat="-27.274439" lon="151.290064">
  <ele>343.13</ele>
  <time>2026-09-01T19:51:35Z</time>
  <course>10.71</course>
  <speed>0.0</speed>
  <fix>3d</fix>
</trkpt>
<trkpt lat="-27.274439" lon="151.290064">
  <ele>343.1</ele>
  <time>2026-09-01T19:51:35Z</time>
  <course>270.0</course>
  <speed>0.0</speed>
  <fix>3d</fix>
</trkpt>
<trkpt lat="-27.274439" lon="151.290064">
  <ele>343.14</ele>
  <time>2026-09-01T19:51:35Z</time>
  <course>10.71</course>
  <speed>0.0</speed>
  <fix>3d</fix>
</trkpt>
<trkpt lat="-27.274439" lon="151.290064">
  <ele>343.1</ele>
  <time>2026-09-01T19:51:35Z</time>
  <course>270.0</course>
  <speed>0.0</speed>
  <fix>3d</fix>
</trkpt>
<trkpt lat="-27.274439" lon="151.290064">
  <ele>343.14</ele>
  <time>2026-09-01T19:51:35Z</time>
  <course>10.71</course>
  <speed>0.0</speed>
  <fix>3d</fix>
</trkpt>
<trkpt lat="-27.274439" lon="151.290064">
  <ele>343.1</ele>
  <time>2026-09-01T19:51:35Z</time>
  <course>270.0</course>
  <speed>0.0</speed>
  <fix>3d</fix>
</trkpt>
<trkpt lat="-27.274439" lon="151.290064">
  <ele>343.14</ele>
  <time>2026-09-01T19:51:35Z</time>
  <course>10.71</course>
  <speed>0.0</speed>
  <fix>3d</fix>
</trkpt>
<trkpt lat="-27.274439" lon="151.290064">
  <ele>343.1</ele>
  <time>2026-09-01T19:51:35Z</time>
  <course>270.0</course>
  <speed>0.0</speed>
  <fix>3d</fix>
</trkpt>
<trkpt lat="-27.274439" lon="151.290064">
  <ele>343.14</ele>
  <time>2026-09-01T19:51:35Z</time>
  <course>10.71</course>
  <speed>0.0</speed>
  <fix>3d</fix>
</trkpt>
<trkpt lat="-27.274439" lon="151.290064">
  <ele>343.1</ele>
  <time>2026-09-01T19:51:35Z</time>
  <course>270.0</course>
  <speed>0.0</speed>
  <fix>3d</fix>
</trkpt>
<trkpt lat="-27.274439" lon="151.290064">
  <ele>343.14</ele>
  <time>2026-09-01T19:51:35Z</time>
  <course>10.71</course>
  <speed>0.0</speed>
  <fix>3d</fix>
</trkpt>
<trkpt lat="-27.274439" lon="151.290064">
  <ele>343.1</ele>
  <time>2026-09-01T19:51:35Z</time>
  <course>270.0</course>
  <speed>0.0</speed>
  <fix>3d</fix>
</trkpt>
<trkpt lat="-27.274439" lon="151.290064">
  <ele>343.14</ele>
  <time>2026-09-01T19:51:35Z</time>
  <course>10.71</course>
  <speed>0.0</speed>
  <fix>3d</fix>
</trkpt>
<trkpt lat="-27.274439" lon="151.290064">
  <ele>343.1</ele>
  <time>2026-09-01T19:51:35Z</time>
  <course>270.0</course>
  <speed>0.0</speed>
  <fix>3d</fix>
</trkpt>
<trkpt lat="-27.274439" lon="151.290064">
  <ele>343.14</ele>
  <time>2026-09-01T19:51:35Z</time>
  <course>10.71</course>
  <speed>0.0</speed>
  <fix>3d</fix>
</trkpt>
<trkpt lat="-27.274439" lon="151.290064">
  <ele>343.1</ele>
  <time>2026-09-01T19:51:35Z</time>
  <course>270.0</course>
  <speed>0.0</speed>
  <fix>3d</fix>
</trkpt>
<trkpt lat="-27.274439" lon="151.290064">
  <ele>343.14</ele>
  <time>2026-09-01T19:51:35Z</time>
  <course>10.71</course>
  <speed>0.0</speed>
  <fix>3d</fix>
</trkpt>
<trkpt lat="-27.274439" lon="151.290064">
  <ele>343.1</ele>
  <time>2026-09-01T19:51:35Z</time>
  <course>270.0</course>
  <speed>0.0</speed>
  <fix>3d</fix>
</trkpt>
<trkpt lat="-27.274439" lon="151.290064">
  <ele>343.13</ele>
  <time>2026-09-01T19:51:35Z</time>
  <course>10.71</course>
  <speed>0.0</speed>
  <fix>3d</fix>
</trkpt>
<trkpt lat="-27.274439" lon="151.290064">
  <ele>343.1</ele>
  <time>2026-09-01T19:51:35Z</time>
  <course>270.0</course>
  <speed>0.0</speed>
  <fix>3d</fix>
</trkpt>
<trkpt lat="-27.274439" lon="151.290064">
  <ele>343.13</ele>
  <time>2026-09-01T19:51:35Z</time>
  <course>10.71</course>
  <speed>0.0</speed>
  <fix>3d</fix>
</trkpt>
<trkpt lat="-27.274439" lon="151.290064">
  <ele>343.1</ele>
  <time>2026-09-01T19:51:35Z</time>
  <course>270.0</course>
  <speed>0.0</speed>
  <fix>3d</fix>
</trkpt>
<trkpt lat="-27.274439" lon="151.290064">
  <ele>343.13</ele>
  <time>2026-09-01T19:51:35Z</time>
  <course>10.71</course>
  <speed>0.0</speed>
  <fix>3d</fix>
</trkpt>
<trkpt lat="-27.274439" lon="151.290064">
  <ele>343.1</ele>
  <time>2026-09-01T19:51:35Z</time>
  <course>270.0</course>
  <speed>0.0</speed>
  <fix>3d</fix>
</trkpt>
<trkpt lat="-27.274439" lon="151.290064">
  <ele>343.13</ele>
  <time>2026-09-01T19:51:35Z</time>
  <course>10.71</course>
  <speed>0.0</speed>
  <fix>3d</fix>
</trkpt>
<trkpt lat="-27.274439" lon="151.290064">
  <ele>343.1</ele>
  <time>2026-09-01T19:51:35Z</time>
  <course>270.0</course>
  <speed>0.0</speed>
  <fix>3d</fix>
</trkpt>
<trkpt lat="-27.274439" lon="151.290064">
  <ele>343.13</ele>
  <time>2026-09-01T19:51:35Z</time>
  <course>10.71</course>
  <speed>0.0</speed>
  <fix>3d</fix>
</trkpt>
<trkpt lat="-27.274439" lon="151.290064">
  <ele>343.1</ele>
  <time>2026-09-01T19:51:35Z</time>
  <course>270.0</course>
  <speed>0.0</speed>
  <fix>3d</fix>
</trkpt>
<trkpt lat="-27.274439" lon="151.290064">
  <ele>343.13</ele>
  <time>2026-09-01T19:51:35Z</time>
  <course>10.71</course>
  <speed>0.0</speed>
  <fix>3d</fix>
</trkpt>
<trkpt lat="-27.274439" lon="151.290064">
  <ele>343.1</ele>
  <time>2026-09-01T19:51:35Z</time>
  <course>270.0</course>
  <speed>0.0</speed>
  <fix>3d</fix>
</trkpt>
<trkpt lat="-27.274439" lon="151.290064">
  <ele>343.13</ele>
  <time>2026-09-01T19:51:35Z</time>
  <course>10.71</course>
  <speed>0.0</speed>
  <fix>3d</fix>
</trkpt>
<trkpt lat="-27.274439" lon="151.290064">
  <ele>343.1</ele>
  <time>2026-09-01T19:51:35Z</time>
  <course>270.0</course>
  <speed>0.0</speed>
  <fix>3d</fix>
</trkpt>
<trkpt lat="-27.274439" lon="151.290064">
  <ele>343.13</ele>
  <time>2026-09-01T19:51:35Z</time>
  <course>10.71</course>
  <speed>0.0</speed>
  <fix>3d</fix>
</trkpt>
<trkpt lat="-27.274439" lon="151.290064">
  <ele>343.1</ele>
  <time>2026-09-01T19:51:35Z</time>
  <course>270.0</course>
  <speed>0.0</speed>
  <fix>3d</fix>
</trkpt>
<trkpt lat="-27.274439" lon="151.290064">
  <ele>343.14</ele>
  <time>2026-09-01T19:51:35Z</time>
  <course>10.71</course>
  <speed>0.0</speed>
  <fix>3d</fix>
</trkpt>
<trkpt lat="-27.274439" lon="151.290064">
  <ele>343.1</ele>
  <time>2026-09-01T19:51:35Z</time>
  <course>270.0</course>
  <speed>0.0</speed>
  <fix>3d</fix>
</trkpt>
<trkpt lat="-27.274439" lon="151.290064">
  <ele>343.14</ele>
  <time>2026-09-01T19:51:35Z</time>
  <course>10.71</course>
  <speed>0.0</speed>
  <fix>3d</fix>
</trkpt>
<trkpt lat="-27.274439" lon="151.290064">
  <ele>343.1</ele>
  <time>2026-09-01T19:51:35Z</time>
  <course>270.0</course>
  <speed>0.0</speed>
  <fix>3d</fix>
</trkpt>
<trkpt lat="-27.274439" lon="151.290064">
  <ele>343.14</ele>
  <time>2026-09-01T19:51:35Z</time>
  <course>10.71</course>
  <speed>0.0</speed>
  <fix>3d</fix>
</trkpt>
<trkpt lat="-27.274439" lon="151.290064">
  <ele>343.1</ele>
  <time>2026-09-01T19:51:35Z</time>
  <course>270.0</course>
  <speed>0.0</speed>
  <fix>3d</fix>
</trkpt>
<trkpt lat="-27.274439" lon="151.290064">
  <ele>343.14</ele>
  <time>2026-09-01T19:51:35Z</time>
  <course>10.71</course>
  <speed>0.0</speed>
  <fix>3d</fix>
</trkpt>
<trkpt lat="-27.274439" lon="151.290064">
  <ele>343.1</ele>
  <time>2026-09-01T19:51:35Z</time>
  <course>270.0</course>
  <speed>0.0</speed>
  <fix>3d</fix>
</trkpt>
<trkpt lat="-27.274439" lon="151.290064">
  <ele>343.14</ele>
  <time>2026-09-01T19:51:35Z</time>
  <course>10.71</course>
  <speed>0.0</speed>
  <fix>3d</fix>
</trkpt>
<trkpt lat="-27.274439" lon="151.290064">
  <ele>343.1</ele>
  <time>2026-09-01T19:51:35Z</time>
  <course>270.0</course>
  <speed>0.0</speed>
  <fix>3d</fix>
</trkpt>
<trkpt lat="-27.274439" lon="151.290064">
  <ele>343.14</ele>
  <time>2026-09-01T19:51:35Z</time>
  <course>10.71</course>
  <speed>0.0</speed>
  <fix>3d</fix>
</trkpt>
<trkpt lat="-27.274439" lon="151.290064">
  <ele>343.1</ele>
  <time>2026-09-01T19:51:35Z</time>
  <course>270.0</course>
  <speed>0.0</speed>
  <fix>3d</fix>
</trkpt>
<trkpt lat="-27.274439" lon="151.290064">
  <ele>343.15</ele>
  <time>2026-09-01T19:51:35Z</time>
  <course>10.71</course>
  <speed>0.0</speed>
  <fix>3d</fix>
</trkpt>
<trkpt lat="-27.274439" lon="151.290064">
  <ele>343.1</ele>
  <time>2026-09-01T19:51:35Z</time>
  <course>270.0</course>
  <speed>0.0</speed>
  <fix>3d</fix>
</trkpt>
<trkpt lat="-27.274439" lon="151.290064">
  <ele>343.15</ele>
  <time>2026-09-01T19:51:35Z</time>
  <course>10.71</course>
  <speed>0.0</speed>
  <fix>3d</fix>
</trkpt>
<trkpt lat="-27.274439" lon="151.290064">
  <ele>343.1</ele>
  <time>2026-09-01T19:51:35Z</time>
  <course>270.0</course>
  <speed>0.0</speed>
  <fix>3d</fix>
</trkpt>
<trkpt lat="-27.274439" lon="151.290064">
  <ele>343.15</ele>
  <time>2026-09-01T19:51:35Z</time>
  <course>10.71</course>
  <speed>0.0</speed>
  <fix>3d</fix>
</trkpt>
<trkpt lat="-27.274439" lon="151.290064">
  <ele>343.1</ele>
  <time>2026-09-01T19:51:35Z</time>
  <course>270.0</course>
  <speed>0.0</speed>
  <fix>3d</fix>
</trkpt>
<trkpt lat="-27.274439" lon="151.290064">
  <ele>343.15</ele>
  <time>2026-09-01T19:51:35Z</time>
  <course>10.71</course>
  <speed>0.0</speed>
  <fix>3d</fix>
</trkpt>
<trkpt lat="-27.274439" lon="151.290064">
  <ele>343.1</ele>
  <time>2026-09-01T19:51:35Z</time>
  <course>270.0</course>
  <speed>0.0</speed>
  <fix>3d</fix>
</trkpt>
<trkpt lat="-27.274439" lon="151.290064">
  <ele>343.15</ele>
  <time>2026-09-01T19:51:35Z</time>
  <course>10.71</course>
  <speed>0.0</speed>
  <fix>3d</fix>
</trkpt>
<trkpt lat="-27.274439" lon="151.290064">
  <ele>343.1</ele>
  <time>2026-09-01T19:51:35Z</time>
  <course>270.0</course>
  <speed>0.0</speed>
  <fix>3d</fix>
</trkpt>
<trkpt lat="-27.274439" lon="151.290064">
  <ele>343.1</ele>
  <time>2026-09-01T19:51:35Z</time>
  <course>10.71</course>
  <speed>0.0</speed>
  <fix>3d</fix>
</trkpt>
<trkpt lat="-27.274439" lon="151.290064">
  <ele>343.1</ele>
  <time>2026-09-01T19:51:35Z</time>
  <course>270.0</course>
  <speed>0.0</speed>
  <fix>3d</fix>
</trkpt>
<trkpt lat="-27.274439" lon="151.290064">
  <ele>343.1</ele>
  <time>2026-09-01T19:51:35Z</time>
  <course>10.71</course>
  <speed>0.0</speed>
  <fix>3d</fix>
</trkpt>
<trkpt lat="-27.274439" lon="151.290064">
  <ele>343.1</ele>
  <time>2026-09-01T19:51:35Z</time>
  <course>270.0</course>
  <speed>0.0</speed>
  <fix>3d</fix>
</trkpt>
<trkpt lat="-27.274439" lon="151.290064">
  <ele>343.1</ele>
  <time>2026-09-01T19:51:35Z</time>
  <course>10.71</course>
  <speed>0.0</speed>
  <fix>3d</fix>
</trkpt>
<trkpt lat="-27.274439" lon="151.290064">
  <ele>343.1</ele>
  <time>2026-09-01T19:51:35Z</time>
  <course>270.0</course>
  <speed>0.0</speed>
  <fix>3d</fix>
</trkpt>
<trkpt lat="-27.274439" lon="151.290064">
  <ele>343.1</ele>
  <time>2026-09-01T19:51:35Z</time>
  <course>10.71</course>
  <speed>0.0</speed>
  <fix>3d</fix>
</trkpt>
<trkpt lat="-27.274439" lon="151.290064">
  <ele>343.1</ele>
  <time>2026-09-01T19:51:35Z</time>
  <course>270.0</course>
  <speed>0.0</speed>
  <fix>3d</fix>
</trkpt>
<trkpt lat="-27.274439" lon="151.290064">
  <ele>343.09</ele>
  <time>2026-09-01T19:51:35Z</time>
  <course>10.71</course>
  <speed>0.0</speed>
  <fix>3d</fix>
</trkpt>
<trkpt lat="-27.274439" lon="151.290064">
  <ele>343.1</ele>
  <time>2026-09-01T19:51:35Z</time>
  <course>270.0</course>
  <speed>0.0</speed>
  <fix>3d</fix>
</trkpt>
<trkpt lat="-27.274439" lon="151.290064">
  <ele>343.09</ele>
  <time>2026-09-01T19:51:35Z</time>
  <course>10.71</course>
  <speed>0.0</speed>
  <fix>3d</fix>
</trkpt>
<trkpt lat="-27.274439" lon="151.290064">
  <ele>343.1</ele>
  <time>2026-09-01T19:51:35Z</time>
  <course>270.0</course>
  <speed>0.0</speed>
  <fix>3d</fix>
</trkpt>
<trkpt lat="-27.274439" lon="151.290064">
  <ele>343.08</ele>
  <time>2026-09-01T19:51:35Z</time>
  <course>10.71</course>
  <speed>0.0</speed>
  <fix>3d</fix>
</trkpt>
<trkpt lat="-27.274439" lon="151.290064">
  <ele>343.1</ele>
  <time>2026-09-01T19:51:35Z</time>
  <course>270.0</course>
  <speed>0.0</speed>
  <fix>3d</fix>
</trkpt>
<trkpt lat="-27.274439" lon="151.290064">
  <ele>343.08</ele>
  <time>2026-09-01T19:51:35Z</time>
  <course>10.71</course>
  <speed>0.0</speed>
  <fix>3d</fix>
</trkpt>
<trkpt lat="-27.274439" lon="151.290064">
  <ele>343.1</ele>
  <time>2026-09-01T19:51:35Z</time>
  <course>270.0</course>
  <speed>0.0</speed>
  <fix>3d</fix>
</trkpt>
<trkpt lat="-27.274439" lon="151.290064">
  <ele>343.07</ele>
  <time>2026-09-01T19:51:35Z</time>
  <course>10.71</course>
  <speed>0.0</speed>
  <fix>3d</fix>
</trkpt>
<trkpt lat="-27.274439" lon="151.290064">
  <ele>343.1</ele>
  <time>2026-09-01T19:51:35Z</time>
  <course>270.0</course>
  <speed>0.0</speed>
  <fix>3d</fix>
</trkpt>
<trkpt lat="-27.274439" lon="151.290064">
  <ele>343.07</ele>
  <time>2026-09-01T19:51:35Z</time>
  <course>10.71</course>
  <speed>0.0</speed>
  <fix>3d</fix>
</trkpt>
<trkpt lat="-27.274439" lon="151.290064">
  <ele>343.1</ele>
  <time>2026-09-01T19:51:35Z</time>
  <course>270.0</course>
  <speed>0.0</speed>
  <fix>3d</fix>
</trkpt>
<trkpt lat="-27.274439" lon="151.290064">
  <ele>343.06</ele>
  <time>2026-09-01T19:51:35Z</time>
  <course>10.71</course>
  <speed>0.0</speed>
  <fix>3d</fix>
</trkpt>
<trkpt lat="-27.274439" lon="151.290064">
  <ele>343.1</ele>
  <time>2026-09-01T19:51:35Z</time>
  <course>270.0</course>
  <speed>0.0</speed>
  <fix>3d</fix>
</trkpt>
<trkpt lat="-27.274439" lon="151.290064">
  <ele>343.06</ele>
  <time>2026-09-01T19:51:35Z</time>
  <course>10.71</course>
  <speed>0.0</speed>
  <fix>3d</fix>
</trkpt>
<trkpt lat="-27.274439" lon="151.290064">
  <ele>343.1</ele>
  <time>2026-09-01T19:51:35Z</time>
  <course>270.0</course>
  <speed>0.0</speed>
  <fix>3d</fix>
</trkpt>
<trkpt lat="-27.274439" lon="151.290064">
  <ele>343.05</ele>
  <time>2026-09-01T19:51:35Z</time>
  <course>10.71</course>
  <speed>0.0</speed>
  <fix>3d</fix>
</trkpt>
<trkpt lat="-27.274439" lon="151.290064">
  <ele>343.1</ele>
  <time>2026-09-01T19:51:35Z</time>
  <course>270.0</course>
  <speed>0.0</speed>
  <fix>3d</fix>
</trkpt>
<trkpt lat="-27.274439" lon="151.290064">
  <ele>343.05</ele>
  <time>2026-09-01T19:51:35Z</time>
  <course>10.71</course>
  <speed>0.0</speed>
  <fix>3d</fix>
</trkpt>
<trkpt lat="-27.274439" lon="151.290064">
  <ele>343.1</ele>
  <time>2026-09-01T19:51:35Z</time>
  <course>270.0</course>
  <speed>0.0</speed>
  <fix>3d</fix>
</trkpt>
<trkpt lat="-27.274439" lon="151.290064">
  <ele>343.04</ele>
  <time>2026-09-01T19:51:35Z</time>
  <course>10.71</course>
  <speed>0.0</speed>
  <fix>3d</fix>
</trkpt>
<trkpt lat="-27.274439" lon="151.290064">
  <ele>343.1</ele>
  <time>2026-09-01T19:51:35Z</time>
  <course>270.0</course>
  <speed>0.0</speed>
  <fix>3d</fix>
</trkpt>
<trkpt lat="-27.274439" lon="151.290064">
  <ele>343.03</ele>
  <time>2026-09-01T19:51:35Z</time>
  <course>10.71</course>
  <speed>0.0</speed>
  <fix>3d</fix>
</trkpt>
<trkpt lat="-27.274439" lon="151.290064">
  <ele>343.1</ele>
  <time>2026-09-01T19:51:35Z</time>
  <course>270.0</course>
  <speed>0.0</speed>
  <fix>3d</fix>
</trkpt>
<trkpt lat="-27.274439" lon="151.290064">
  <ele>343.03</ele>
  <time>2026-09-01T19:51:35Z</time>
  <course>10.71</course>
  <speed>0.0</speed>
  <fix>3d</fix>
</trkpt>
<trkpt lat="-27.274439" lon="151.290064">
  <ele>343.1</ele>
  <time>2026-09-01T19:51:35Z</time>
  <course>270.0</course>
  <speed>0.0</speed>
  <fix>3d</fix>
</trkpt>
<trkpt lat="-27.274439" lon="151.290064">
  <ele>343.02</ele>
  <time>2026-09-01T19:51:35Z</time>
  <course>10.71</course>
  <speed>0.0</speed>
  <fix>3d</fix>
</trkpt>
<trkpt lat="-27.274439" lon="151.290064">
  <ele>343.1</ele>
  <time>2026-09-01T19:51:35Z</time>
  <course>270.0</course>
  <speed>0.0</speed>
  <fix>3d</fix>
</trkpt>
<trkpt lat="-27.274439" lon="151.290064">
  <ele>343.02</ele>
  <time>2026-09-01T19:51:35Z</time>
  <course>10.71</course>
  <speed>0.0</speed>
  <fix>3d</fix>
</trkpt>
<trkpt lat="-27.274439" lon="151.290064">
  <ele>343.1</ele>
  <time>2026-09-01T19:51:35Z</time>
  <course>270.0</course>
  <speed>0.0</speed>
  <fix>3d</fix>
</trkpt>
<trkpt lat="-27.274439" lon="151.290064">
  <ele>343.01</ele>
  <time>2026-09-01T19:51:35Z</time>
  <course>10.71</course>
  <speed>0.0</speed>
  <fix>3d</fix>
</trkpt>
<trkpt lat="-27.274439" lon="151.290064">
  <ele>343.1</ele>
  <time>2026-09-01T19:51:35Z</time>
  <course>270.0</course>
  <speed>0.0</speed>
  <fix>3d</fix>
</trkpt>
<trkpt lat="-27.274439" lon="151.290064">
  <ele>343.0</ele>
  <time>2026-09-01T19:51:35Z</time>
  <course>10.71</course>
  <speed>0.0</speed>
  <fix>3d</fix>
</trkpt>
<trkpt lat="-27.274439" lon="151.290064">
  <ele>343.1</ele>
  <time>2026-09-01T19:51:35Z</time>
  <course>270.0</course>
  <speed>0.0</speed>
  <fix>3d</fix>
</trkpt>
<trkpt lat="-27.274439" lon="151.290064">
  <ele>343.0</ele>
  <time>2026-09-01T19:51:35Z</time>
  <course>10.71</course>
  <speed>0.0</speed>
  <fix>3d</fix>
</trkpt>
<trkpt lat="-27.274439" lon="151.290064">
  <ele>343.1</ele>
  <time>2026-09-01T19:51:35Z</time>
  <course>270.0</course>
  <speed>0.0</speed>
  <fix>3d</fix>
</trkpt>
<trkpt lat="-27.274439" lon="151.290064">
  <ele>342.99</ele>
  <time>2026-09-01T19:51:35Z</time>
  <course>10.71</course>
  <speed>0.0</speed>
  <fix>3d</fix>
</trkpt>
<trkpt lat="-27.274439" lon="151.290064">
  <ele>343.1</ele>
  <time>2026-09-01T19:51:35Z</time>
  <course>270.0</course>
  <speed>0.0</speed>
  <fix>3d</fix>
</trkpt>
<trkpt lat="-27.274439" lon="151.290064">
  <ele>342.99</ele>
  <time>2026-09-01T19:51:35Z</time>
  <course>10.71</course>
  <speed>0.0</speed>
  <fix>3d</fix>
</trkpt>
<trkpt lat="-27.274439" lon="151.290064">
  <ele>343.1</ele>
  <time>2026-09-01T19:51:35Z</time>
  <course>270.0</course>
  <speed>0.0</speed>
  <fix>3d</fix>
</trkpt>
<trkpt lat="-27.274439" lon="151.290064">
  <ele>342.99</ele>
  <time>2026-09-01T19:51:35Z</time>
  <course>10.71</course>
  <speed>0.0</speed>
  <fix>3d</fix>
</trkpt>
<trkpt lat="-27.274439" lon="151.290064">
  <ele>343.1</ele>
  <time>2026-09-01T19:51:35Z</time>
  <course>270.0</course>
  <speed>0.0</speed>
  <fix>3d</fix>
</trkpt>
<trkpt lat="-27.274439" lon="151.290064">
  <ele>342.99</ele>
  <time>2026-09-01T19:51:35Z</time>
  <course>10.71</course>
  <speed>0.0</speed>
  <fix>3d</fix>
</trkpt>
<trkpt lat="-27.274439" lon="151.290064">
  <ele>343.1</ele>
  <time>2026-09-01T19:51:35Z</time>
  <course>270.0</course>
  <speed>0.0</speed>
  <fix>3d</fix>
</trkpt>
<trkpt lat="-27.274439" lon="151.290064">
  <ele>342.99</ele>
  <time>2026-09-01T19:51:35Z</time>
  <course>10.71</course>
  <speed>0.0</speed>
  <fix>3d</fix>
</trkpt>
<trkpt lat="-27.274439" lon="151.290064">
  <ele>343.1</ele>
  <time>2026-09-01T19:51:35Z</time>
  <course>270.0</course>
  <speed>0.0</speed>
  <fix>3d</fix>
</trkpt>
<trkpt lat="-27.274439" lon="151.290064">
  <ele>342.98</ele>
  <time>2026-09-01T19:51:35Z</time>
  <course>10.71</course>
  <speed>0.0</speed>
  <fix>3d</fix>
</trkpt>
<trkpt lat="-27.274439" lon="151.290064">
  <ele>343.1</ele>
  <time>2026-09-01T19:51:35Z</time>
  <course>270.0</course>
  <speed>0.0</speed>
  <fix>3d</fix>
</trkpt>
<trkpt lat="-27.274439" lon="151.290064">
  <ele>342.98</ele>
  <time>2026-09-01T19:51:35Z</time>
  <course>10.71</course>
  <speed>0.0</speed>
  <fix>3d</fix>
</trkpt>
<trkpt lat="-27.274439" lon="151.290064">
  <ele>343.1</ele>
  <time>2026-09-01T19:51:35Z</time>
  <course>270.0</course>
  <speed>0.0</speed>
  <fix>3d</fix>
</trkpt>
<trkpt lat="-27.274439" lon="151.290064">
  <ele>342.98</ele>
  <time>2026-09-01T19:51:35Z</time>
  <course>10.71</course>
  <speed>0.0</speed>
  <fix>3d</fix>
</trkpt>
<trkpt lat="-27.274439" lon="151.290064">
  <ele>343.1</ele>
  <time>2026-09-01T19:51:35Z</time>
  <course>270.0</course>
  <speed>0.0</speed>
  <fix>3d</fix>
</trkpt>
<trkpt lat="-27.274439" lon="151.290064">
  <ele>342.98</ele>
  <time>2026-09-01T19:51:35Z</time>
  <course>10.71</course>
  <speed>0.0</speed>
  <fix>3d</fix>
</trkpt>
<trkpt lat="-27.274439" lon="151.290064">
  <ele>343.1</ele>
  <time>2026-09-01T19:51:35Z</time>
  <course>270.0</course>
  <speed>0.0</speed>
  <fix>3d</fix>
</trkpt>
<trkpt lat="-27.274439" lon="151.290064">
  <ele>342.97</ele>
  <time>2026-09-01T19:51:35Z</time>
  <course>10.71</course>
  <speed>0.0</speed>
  <fix>3d</fix>
</trkpt>
<trkpt lat="-27.274439" lon="151.290064">
  <ele>343.1</ele>
  <time>2026-09-01T19:51:35Z</time>
  <course>270.0</course>
  <speed>0.0</speed>
  <fix>3d</fix>
</trkpt>
<trkpt lat="-27.274439" lon="151.290064">
  <ele>342.97</ele>
  <time>2026-09-01T19:51:35Z</time>
  <course>10.71</course>
  <speed>0.0</speed>
  <fix>3d</fix>
</trkpt>
<trkpt lat="-27.274439" lon="151.290064">
  <ele>343.1</ele>
  <time>2026-09-01T19:51:35Z</time>
  <course>270.0</course>
  <speed>0.0</speed>
  <fix>3d</fix>
</trkpt>
<trkpt lat="-27.274439" lon="151.290064">
  <ele>342.97</ele>
  <time>2026-09-01T19:51:35Z</time>
  <course>10.71</course>
  <speed>0.0</speed>
  <fix>3d</fix>
</trkpt>
<trkpt lat="-27.274439" lon="151.290064">
  <ele>343.1</ele>
  <time>2026-09-01T19:51:35Z</time>
  <course>270.0</course>
  <speed>0.0</speed>
  <fix>3d</fix>
</trkpt>
<trkpt lat="-27.274439" lon="151.290064">
  <ele>342.96</ele>
  <time>2026-09-01T19:51:35Z</time>
  <course>10.71</course>
  <speed>0.0</speed>
  <fix>3d</fix>
</trkpt>
<trkpt lat="-27.274439" lon="151.290064">
  <ele>343.1</ele>
  <time>2026-09-01T19:51:35Z</time>
  <course>270.0</course>
  <speed>0.0</speed>
  <fix>3d</fix>
</trkpt>
<trkpt lat="-27.274439" lon="151.290064">
  <ele>342.96</ele>
  <time>2026-09-01T19:51:35Z</time>
  <course>10.71</course>
  <speed>0.0</speed>
  <fix>3d</fix>
</trkpt>
<trkpt lat="-27.274439" lon="151.290064">
  <ele>343.1</ele>
  <time>2026-09-01T19:51:35Z</time>
  <course>270.0</course>
  <speed>0.0</speed>
  <fix>3d</fix>
</trkpt>
<trkpt lat="-27.274439" lon="151.290064">
  <ele>342.96</ele>
  <time>2026-09-01T19:51:35Z</time>
  <course>10.71</course>
  <speed>0.0</speed>
  <fix>3d</fix>
</trkpt>
<trkpt lat="-27.274439" lon="151.290064">
  <ele>343.1</ele>
  <time>2026-09-01T19:51:35Z</time>
  <course>270.0</course>
  <speed>0.0</speed>
  <fix>3d</fix>
</trkpt>
<trkpt lat="-27.274439" lon="151.290064">
  <ele>342.96</ele>
  <time>2026-09-01T19:51:35Z</time>
  <course>10.71</course>
  <speed>0.0</speed>
  <fix>3d</fix>
</trkpt>
<trkpt lat="-27.274439" lon="151.290064">
  <ele>343.1</ele>
  <time>2026-09-01T19:51:35Z</time>
  <course>270.0</course>
  <speed>0.0</speed>
  <fix>3d</fix>
</trkpt>
<trkpt lat="-27.274439" lon="151.290064">
  <ele>342.96</ele>
  <time>2026-09-01T19:51:35Z</time>
  <course>10.71</course>
  <speed>0.0</speed>
  <fix>3d</fix>
</trkpt>
<trkpt lat="-27.274439" lon="151.290064">
  <ele>343.1</ele>
  <time>2026-09-01T19:51:35Z</time>
  <course>270.0</course>
  <speed>0.0</speed>
  <fix>3d</fix>
</trkpt>
<trkpt lat="-27.274439" lon="151.290064">
  <ele>342.96</ele>
  <time>2026-09-01T19:51:35Z</time>
  <course>10.71</course>
  <speed>0.0</speed>
  <fix>3d</fix>
</trkpt>
<trkpt lat="-27.274439" lon="151.290064">
  <ele>343.1</ele>
  <time>2026-09-01T19:51:35Z</time>
  <course>270.0</course>
  <speed>0.0</speed>
  <fix>3d</fix>
</trkpt>
<trkpt lat="-27.274439" lon="151.290064">
  <ele>342.95</ele>
  <time>2026-09-01T19:51:35Z</time>
  <course>10.71</course>
  <speed>0.0</speed>
  <fix>3d</fix>
</trkpt>
<trkpt lat="-27.274439" lon="151.290064">
  <ele>343.1</ele>
  <time>2026-09-01T19:51:35Z</time>
  <course>270.0</course>
  <speed>0.0</speed>
  <fix>3d</fix>
</trkpt>
<trkpt lat="-27.274439" lon="151.290064">
  <ele>342.95</ele>
  <time>2026-09-01T19:51:35Z</time>
  <course>10.7</course>
  <speed>0.0</speed>
  <fix>3d</fix>
</trkpt>
<trkpt lat="-27.274439" lon="151.290064">
  <ele>343.1</ele>
  <time>2026-09-01T19:51:35Z</time>
  <course>270.0</course>
  <speed>0.0</speed>
  <fix>3d</fix>
</trkpt>
<trkpt lat="-27.274439" lon="151.290064">
  <ele>342.95</ele>
  <time>2026-09-01T19:51:35Z</time>
  <course>10.7</course>
  <speed>0.0</speed>
  <fix>3d</fix>
</trkpt>
<trkpt lat="-27.274439" lon="151.290064">
  <ele>343.1</ele>
  <time>2026-09-01T19:51:35Z</time>
  <course>270.0</course>
  <speed>0.0</speed>
  <fix>3d</fix>
</trkpt>
<trkpt lat="-27.274439" lon="151.290064">
  <ele>342.95</ele>
  <time>2026-09-01T19:51:35Z</time>
  <course>10.7</course>
  <speed>0.0</speed>
  <fix>3d</fix>
</trkpt>
<trkpt lat="-27.274439" lon="151.290064">
  <ele>343.1</ele>
  <time>2026-09-01T19:51:35Z</time>
  <course>270.0</course>
  <speed>0.0</speed>
  <fix>3d</fix>
</trkpt>
<trkpt lat="-27.274439" lon="151.290064">
  <ele>342.95</ele>
  <time>2026-09-01T19:51:35Z</time>
  <course>10.7</course>
  <speed>0.0</speed>
  <fix>3d</fix>
</trkpt>
<trkpt lat="-27.274439" lon="151.290064">
  <ele>343.1</ele>
  <time>2026-09-01T19:51:35Z</time>
  <course>270.0</course>
  <speed>0.0</speed>
  <fix>3d</fix>
</trkpt>
<trkpt lat="-27.274439" lon="151.290064">
  <ele>342.95</ele>
  <time>2026-09-01T19:51:35Z</time>
  <course>10.7</course>
  <speed>0.0</speed>
  <fix>3d</fix>
</trkpt>
<trkpt lat="-27.274439" lon="151.290064">
  <ele>343.1</ele>
  <time>2026-09-01T19:51:35Z</time>
  <course>270.0</course>
  <speed>0.0</speed>
  <fix>3d</fix>
</trkpt>
<trkpt lat="-27.274439" lon="151.290064">
  <ele>342.94</ele>
  <time>2026-09-01T19:51:35Z</time>
  <course>10.7</course>
  <speed>0.0</speed>
  <fix>3d</fix>
</trkpt>
<trkpt lat="-27.274439" lon="151.290064">
  <ele>343.1</ele>
  <time>2026-09-01T19:51:35Z</time>
  <course>270.0</course>
  <speed>0.0</speed>
  <fix>3d</fix>
</trkpt>
<trkpt lat="-27.274439" lon="151.290064">
  <ele>342.94</ele>
  <time>2026-09-01T19:51:35Z</time>
  <course>10.7</course>
  <speed>0.0</speed>
  <fix>3d</fix>
</trkpt>
<trkpt lat="-27.274439" lon="151.290064">
  <ele>343.1</ele>
  <time>2026-09-01T19:51:35Z</time>
  <course>270.0</course>
  <speed>0.0</speed>
  <fix>3d</fix>
</trkpt>
<trkpt lat="-27.274439" lon="151.290064">
  <ele>342.94</ele>
  <time>2026-09-01T19:51:35Z</time>
  <course>10.7</course>
  <speed>0.0</speed>
  <fix>3d</fix>
</trkpt>
<trkpt lat="-27.274439" lon="151.290064">
  <ele>343.1</ele>
  <time>2026-09-01T19:51:35Z</time>
  <course>270.0</course>
  <speed>0.0</speed>
  <fix>3d</fix>
</trkpt>
<trkpt lat="-27.274439" lon="151.290064">
  <ele>342.94</ele>
  <time>2026-09-01T19:51:35Z</time>
  <course>10.7</course>
  <speed>0.0</speed>
  <fix>3d</fix>
</trkpt>
<trkpt lat="-27.274439" lon="151.290064">
  <ele>343.1</ele>
  <time>2026-09-01T19:51:35Z</time>
  <course>270.0</course>
  <speed>0.0</speed>
  <fix>3d</fix>
</trkpt>
<trkpt lat="-27.274439" lon="151.290064">
  <ele>342.94</ele>
  <time>2026-09-01T19:51:35Z</time>
  <course>10.7</course>
  <speed>0.0</speed>
  <fix>3d</fix>
</trkpt>
<trkpt lat="-27.274439" lon="151.290064">
  <ele>343.1</ele>
  <time>2026-09-01T19:51:35Z</time>
  <course>270.0</course>
  <speed>0.0</speed>
  <fix>3d</fix>
</trkpt>
<trkpt lat="-27.274439" lon="151.290064">
  <ele>342.93</ele>
  <time>2026-09-01T19:51:35Z</time>
  <course>10.7</course>
  <speed>0.0</speed>
  <fix>3d</fix>
</trkpt>
<trkpt lat="-27.274439" lon="151.290064">
  <ele>343.1</ele>
  <time>2026-09-01T19:51:35Z</time>
  <course>270.0</course>
  <speed>0.0</speed>
  <fix>3d</fix>
</trkpt>
<trkpt lat="-27.274439" lon="151.290064">
  <ele>342.93</ele>
  <time>2026-09-01T19:51:35Z</time>
  <course>10.7</course>
  <speed>0.0</speed>
  <fix>3d</fix>
</trkpt>
<trkpt lat="-27.274439" lon="151.290064">
  <ele>343.1</ele>
  <time>2026-09-01T19:51:35Z</time>
  <course>270.0</course>
  <speed>0.0</speed>
  <fix>3d</fix>
</trkpt>
<trkpt lat="-27.274439" lon="151.290064">
  <ele>342.93</ele>
  <time>2026-09-01T19:51:35Z</time>
  <course>10.7</course>
  <speed>0.0</speed>
  <fix>3d</fix>
</trkpt>
<trkpt lat="-27.274439" lon="151.290064">
  <ele>343.1</ele>
  <time>2026-09-01T19:51:35Z</time>
  <course>270.0</course>
  <speed>0.0</speed>
  <fix>3d</fix>
</trkpt>
<trkpt lat="-27.274439" lon="151.290064">
  <ele>342.93</ele>
  <time>2026-09-01T19:51:35Z</time>
  <course>10.7</course>
  <speed>0.0</speed>
  <fix>3d</fix>
</trkpt>
<trkpt lat="-27.274439" lon="151.290064">
  <ele>343.1</ele>
  <time>2026-09-01T19:51:35Z</time>
  <course>270.0</course>
  <speed>0.0</speed>
  <fix>3d</fix>
</trkpt>
<trkpt lat="-27.274439" lon="151.290064">
  <ele>342.93</ele>
  <time>2026-09-01T19:51:35Z</time>
  <course>10.7</course>
  <speed>0.0</speed>
  <fix>3d</fix>
</trkpt>
<trkpt lat="-27.274439" lon="151.290064">
  <ele>343.1</ele>
  <time>2026-09-01T19:51:35Z</time>
  <course>270.0</course>
  <speed>0.0</speed>
  <fix>3d</fix>
</trkpt>
<trkpt lat="-27.274439" lon="151.290064">
  <ele>342.93</ele>
  <time>2026-09-01T19:51:35Z</time>
  <course>10.7</course>
  <speed>0.0</speed>
  <fix>3d</fix>
</trkpt>
<trkpt lat="-27.274439" lon="151.290064">
  <ele>343.1</ele>
  <time>2026-09-01T19:51:35Z</time>
  <course>270.0</course>
  <speed>0.0</speed>
  <fix>3d</fix>
</trkpt>
<trkpt lat="-27.274439" lon="151.290064">
  <ele>342.93</ele>
  <time>2026-09-01T19:51:35Z</time>
  <course>10.7</course>
  <speed>0.01</speed>
  <fix>3d</fix>
</trkpt>
<trkpt lat="-27.274439" lon="151.290064">
  <ele>343.1</ele>
  <time>2026-09-01T19:51:35Z</time>
  <course>270.0</course>
  <speed>0.0</speed>
  <fix>3d</fix>
</trkpt>
<trkpt lat="-27.274439" lon="151.290064">
  <ele>342.93</ele>
  <time>2026-09-01T19:51:35Z</time>
  <course>10.7</course>
  <speed>0.01</speed>
  <fix>3d</fix>
</trkpt>
<trkpt lat="-27.274439" lon="151.290064">
  <ele>343.1</ele>
  <time>2026-09-01T19:51:35Z</time>
  <course>270.0</course>
  <speed>0.0</speed>
  <fix>3d</fix>
</trkpt>
<trkpt lat="-27.274439" lon="151.290064">
  <ele>342.92</ele>
  <time>2026-09-01T19:51:35Z</time>
  <course>10.7</course>
  <speed>0.01</speed>
  <fix>3d</fix>
</trkpt>
<trkpt lat="-27.274439" lon="151.290064">
  <ele>343.1</ele>
  <time>2026-09-01T19:51:35Z</time>
  <course>270.0</course>
  <speed>0.0</speed>
  <fix>3d</fix>
</trkpt>
<trkpt lat="-27.274439" lon="151.290064">
  <ele>343.09</ele>
  <time>2026-09-01T19:51:35Z</time>
  <course>10.7</course>
  <speed>0.01</speed>
  <fix>3d</fix>
</trkpt>
<trkpt lat="-27.274439" lon="151.290064">
  <ele>343.1</ele>
  <time>2026-09-01T19:51:35Z</time>
  <course>270.0</course>
  <speed>0.0</speed>
  <fix>3d</fix>
</trkpt>
<trkpt lat="-27.274439" lon="151.290064">
  <ele>343.09</ele>
  <time>2026-09-01T19:51:35Z</time>
  <course>10.7</course>
  <speed>0.01</speed>
  <fix>3d</fix>
</trkpt>
<trkpt lat="-27.274439" lon="151.290064">
  <ele>343.1</ele>
  <time>2026-09-01T19:51:35Z</time>
  <course>270.0</course>
  <speed>0.0</speed>
  <fix>3d</fix>
</trkpt>
<trkpt lat="-27.274439" lon="151.290064">
  <ele>343.09</ele>
  <time>2026-09-01T19:51:35Z</time>
  <course>10.7</course>
  <speed>0.01</speed>
  <fix>3d</fix>
</trkpt>
<trkpt lat="-27.274439" lon="151.290064">
  <ele>343.1</ele>
  <time>2026-09-01T19:51:35Z</time>
  <course>270.0</course>
  <speed>0.0</speed>
  <fix>3d</fix>
</trkpt>
<trkpt lat="-27.274439" lon="151.290064">
  <ele>343.09</ele>
  <time>2026-09-01T19:51:35Z</time>
  <course>10.7</course>
  <speed>0.01</speed>
  <fix>3d</fix>
</trkpt>
<trkpt lat="-27.274439" lon="151.290064">
  <ele>343.1</ele>
  <time>2026-09-01T19:51:35Z</time>
  <course>270.0</course>
  <speed>0.0</speed>
  <fix>3d</fix>
</trkpt>
<trkpt lat="-27.274439" lon="151.290064">
  <ele>343.09</ele>
  <time>2026-09-01T19:51:35Z</time>
  <course>10.7</course>
  <speed>0.01</speed>
  <fix>3d</fix>
</trkpt>
<trkpt lat="-27.274439" lon="151.290064">
  <ele>343.1</ele>
  <time>2026-09-01T19:51:35Z</time>
  <course>270.0</course>
  <speed>0.0</speed>
  <fix>3d</fix>
</trkpt>
<trkpt lat="-27.274439" lon="151.290064">
  <ele>343.08</ele>
  <time>2026-09-01T19:51:35Z</time>
  <course>10.7</course>
  <speed>0.01</speed>
  <fix>3d</fix>
</trkpt>
<trkpt lat="-27.274439" lon="151.290064">
  <ele>343.1</ele>
  <time>2026-09-01T19:51:35Z</time>
  <course>270.0</course>
  <speed>0.0</speed>
  <fix>3d</fix>
</trkpt>
<trkpt lat="-27.274439" lon="151.290064">
  <ele>343.08</ele>
  <time>2026-09-01T19:51:35Z</time>
  <course>10.7</course>
  <speed>0.01</speed>
  <fix>3d</fix>
</trkpt>
<trkpt lat="-27.274439" lon="151.290064">
  <ele>343.1</ele>
  <time>2026-09-01T19:51:35Z</time>
  <course>270.0</course>
  <speed>0.0</speed>
  <fix>3d</fix>
</trkpt>
<trkpt lat="-27.274439" lon="151.290064">
  <ele>343.07</ele>
  <time>2026-09-01T19:51:35Z</time>
  <course>10.7</course>
  <speed>0.01</speed>
  <fix>3d</fix>
</trkpt>
<trkpt lat="-27.274439" lon="151.290064">
  <ele>343.1</ele>
  <time>2026-09-01T19:51:35Z</time>
  <course>270.0</course>
  <speed>0.0</speed>
  <fix>3d</fix>
</trkpt>
<trkpt lat="-27.274439" lon="151.290064">
  <ele>343.07</ele>
  <time>2026-09-01T19:51:35Z</time>
  <course>10.7</course>
  <speed>0.01</speed>
  <fix>3d</fix>
</trkpt>
<trkpt lat="-27.274439" lon="151.290064">
  <ele>343.1</ele>
  <time>2026-09-01T19:51:35Z</time>
  <course>270.0</course>
  <speed>0.0</speed>
  <fix>3d</fix>
</trkpt>
<trkpt lat="-27.274439" lon="151.290064">
  <ele>343.07</ele>
  <time>2026-09-01T19:51:35Z</time>
  <course>10.7</course>
  <speed>0.01</speed>
  <fix>3d</fix>
</trkpt>
<trkpt lat="-27.274439" lon="151.290064">
  <ele>343.1</ele>
  <time>2026-09-01T19:51:35Z</time>
  <course>270.0</course>
  <speed>0.0</speed>
  <fix>3d</fix>
</trkpt>
<trkpt lat="-27.274439" lon="151.290064">
  <ele>343.06</ele>
  <time>2026-09-01T19:51:35Z</time>
  <course>10.7</course>
  <speed>0.01</speed>
  <fix>3d</fix>
</trkpt>
<trkpt lat="-27.274439" lon="151.290064">
  <ele>343.1</ele>
  <time>2026-09-01T19:51:35Z</time>
  <course>270.0</course>
  <speed>0.0</speed>
  <fix>3d</fix>
</trkpt>
<trkpt lat="-27.274439" lon="151.290064">
  <ele>343.06</ele>
  <time>2026-09-01T19:51:35Z</time>
  <course>10.7</course>
  <speed>0.01</speed>
  <fix>3d</fix>
</trkpt>
<trkpt lat="-27.274439" lon="151.290064">
  <ele>343.1</ele>
  <time>2026-09-01T19:51:35Z</time>
  <course>270.0</course>
  <speed>0.0</speed>
  <fix>3d</fix>
</trkpt>
<trkpt lat="-27.274439" lon="151.290064">
  <ele>343.05</ele>
  <time>2026-09-01T19:51:35Z</time>
  <course>10.7</course>
  <speed>0.01</speed>
  <fix>3d</fix>
</trkpt>
<trkpt lat="-27.274439" lon="151.290064">
  <ele>343.1</ele>
  <time>2026-09-01T19:51:35Z</time>
  <course>270.0</course>
  <speed>0.0</speed>
  <fix>3d</fix>
</trkpt>
<trkpt lat="-27.274439" lon="151.290064">
  <ele>343.05</ele>
  <time>2026-09-01T19:51:35Z</time>
  <course>10.7</course>
  <speed>0.01</speed>
  <fix>3d</fix>
</trkpt>
<trkpt lat="-27.274439" lon="151.290064">
  <ele>343.1</ele>
  <time>2026-09-01T19:51:35Z</time>
  <course>270.0</course>
  <speed>0.0</speed>
  <fix>3d</fix>
</trkpt>
<trkpt lat="-27.274439" lon="151.290064">
  <ele>343.04</ele>
  <time>2026-09-01T19:51:35Z</time>
  <course>10.7</course>
  <speed>0.01</speed>
  <fix>3d</fix>
</trkpt>
<trkpt lat="-27.274439" lon="151.290064">
  <ele>343.1</ele>
  <time>2026-09-01T19:51:35Z</time>
  <course>270.0</course>
  <speed>0.0</speed>
  <fix>3d</fix>
</trkpt>
<trkpt lat="-27.274439" lon="151.290064">
  <ele>343.04</ele>
  <time>2026-09-01T19:51:35Z</time>
  <course>10.7</course>
  <speed>0.01</speed>
  <fix>3d</fix>
</trkpt>
<trkpt lat="-27.274439" lon="151.290064">
  <ele>343.1</ele>
  <time>2026-09-01T19:51:35Z</time>
  <course>270.0</course>
  <speed>0.0</speed>
  <fix>3d</fix>
</trkpt>
<trkpt lat="-27.274439" lon="151.290064">
  <ele>343.03</ele>
  <time>2026-09-01T19:51:35Z</time>
  <course>10.7</course>
  <speed>0.01</speed>
  <fix>3d</fix>
</trkpt>
<trkpt lat="-27.274439" lon="151.290064">
  <ele>343.1</ele>
  <time>2026-09-01T19:51:35Z</time>
  <course>270.0</course>
  <speed>0.0</speed>
  <fix>3d</fix>
</trkpt>
<trkpt lat="-27.274439" lon="151.290064">
  <ele>343.03</ele>
  <time>2026-09-01T19:51:35Z</time>
  <course>10.7</course>
  <speed>0.01</speed>
  <fix>3d</fix>
</trkpt>
<trkpt lat="-27.274439" lon="151.290064">
  <ele>343.1</ele>
  <time>2026-09-01T19:51:35Z</time>
  <course>270.0</course>
  <speed>0.0</speed>
  <fix>3d</fix>
</trkpt>
<trkpt lat="-27.274439" lon="151.290064">
  <ele>343.03</ele>
  <time>2026-09-01T19:51:35Z</time>
  <course>10.7</course>
  <speed>0.01</speed>
  <fix>3d</fix>
</trkpt>
<trkpt lat="-27.274439" lon="151.290064">
  <ele>343.1</ele>
  <time>2026-09-01T19:51:35Z</time>
  <course>270.0</course>
  <speed>0.0</speed>
  <fix>3d</fix>
</trkpt>
<trkpt lat="-27.274439" lon="151.290064">
  <ele>343.02</ele>
  <time>2026-09-01T19:51:35Z</time>
  <course>10.7</course>
  <speed>0.01</speed>
  <fix>3d</fix>
</trkpt>
<trkpt lat="-27.274439" lon="151.290064">
  <ele>343.1</ele>
  <time>2026-09-01T19:51:35Z</time>
  <course>270.0</course>
  <speed>0.0</speed>
  <fix>3d</fix>
</trkpt>
<trkpt lat="-27.274439" lon="151.290064">
  <ele>343.02</ele>
  <time>2026-09-01T19:51:35Z</time>
  <course>10.7</course>
  <speed>0.01</speed>
  <fix>3d</fix>
</trkpt>
<trkpt lat="-27.274439" lon="151.290064">
  <ele>343.1</ele>
  <time>2026-09-01T19:51:35Z</time>
  <course>270.0</course>
  <speed>0.0</speed>
  <fix>3d</fix>
</trkpt>
<trkpt lat="-27.274439" lon="151.290064">
  <ele>343.02</ele>
  <time>2026-09-01T19:51:35Z</time>
  <course>10.7</course>
  <speed>0.01</speed>
  <fix>3d</fix>
</trkpt>
<trkpt lat="-27.274439" lon="151.290064">
  <ele>343.1</ele>
  <time>2026-09-01T19:51:35Z</time>
  <course>270.0</course>
  <speed>0.0</speed>
  <fix>3d</fix>
</trkpt>
<trkpt lat="-27.274439" lon="151.290064">
  <ele>343.02</ele>
  <time>2026-09-01T19:51:35Z</time>
  <course>10.7</course>
  <speed>0.01</speed>
  <fix>3d</fix>
</trkpt>
<trkpt lat="-27.274439" lon="151.290064">
  <ele>343.1</ele>
  <time>2026-09-01T19:51:35Z</time>
  <course>270.0</course>
  <speed>0.0</speed>
  <fix>3d</fix>
</trkpt>
<trkpt lat="-27.274439" lon="151.290064">
  <ele>343.02</ele>
  <time>2026-09-01T19:51:35Z</time>
  <course>10.7</course>
  <speed>0.01</speed>
  <fix>3d</fix>
</trkpt>
<trkpt lat="-27.274439" lon="151.290064">
  <ele>343.1</ele>
  <time>2026-09-01T19:51:35Z</time>
  <course>270.0</course>
  <speed>0.0</speed>
  <fix>3d</fix>
</trkpt>
<trkpt lat="-27.274439" lon="151.290064">
  <ele>343.02</ele>
  <time>2026-09-01T19:51:35Z</time>
  <course>10.7</course>
  <speed>0.01</speed>
  <fix>3d</fix>
</trkpt>
<trkpt lat="-27.274439" lon="151.290064">
  <ele>343.1</ele>
  <time>2026-09-01T19:51:35Z</time>
  <course>270.0</course>
  <speed>0.0</speed>
  <fix>3d</fix>
</trkpt>
<trkpt lat="-27.274439" lon="151.290064">
  <ele>343.02</ele>
  <time>2026-09-01T19:51:35Z</time>
  <course>10.7</course>
  <speed>0.01</speed>
  <fix>3d</fix>
</trkpt>
<trkpt lat="-27.274439" lon="151.290064">
  <ele>343.1</ele>
  <time>2026-09-01T19:51:35Z</time>
  <course>270.0</course>
  <speed>0.0</speed>
  <fix>3d</fix>
</trkpt>
<trkpt lat="-27.274439" lon="151.290064">
  <ele>343.01</ele>
  <time>2026-09-01T19:51:35Z</time>
  <course>10.7</course>
  <speed>0.01</speed>
  <fix>3d</fix>
</trkpt>
<trkpt lat="-27.274439" lon="151.290064">
  <ele>343.1</ele>
  <time>2026-09-01T19:51:35Z</time>
  <course>270.0</course>
  <speed>0.0</speed>
  <fix>3d</fix>
</trkpt>
<trkpt lat="-27.274439" lon="151.290064">
  <ele>343.01</ele>
  <time>2026-09-01T19:51:35Z</time>
  <course>10.7</course>
  <speed>0.01</speed>
  <fix>3d</fix>
</trkpt>
<trkpt lat="-27.274439" lon="151.290064">
  <ele>343.1</ele>
  <time>2026-09-01T19:51:35Z</time>
  <course>270.0</course>
  <speed>0.0</speed>
  <fix>3d</fix>
</trkpt>
<trkpt lat="-27.274439" lon="151.290064">
  <ele>343.01</ele>
  <time>2026-09-01T19:51:35Z</time>
  <course>10.7</course>
  <speed>0.01</speed>
  <fix>3d</fix>
</trkpt>
<trkpt lat="-27.274439" lon="151.290064">
  <ele>343.1</ele>
  <time>2026-09-01T19:51:35Z</time>
  <course>270.0</course>
  <speed>0.0</speed>
  <fix>3d</fix>
</trkpt>
<trkpt lat="-27.274439" lon="151.290064">
  <ele>343.01</ele>
  <time>2026-09-01T19:51:35Z</time>
  <course>10.7</course>
  <speed>0.01</speed>
  <fix>3d</fix>
</trkpt>
<trkpt lat="-27.274439" lon="151.290064">
  <ele>343.1</ele>
  <time>2026-09-01T19:51:35Z</time>
  <course>270.0</course>
  <speed>0.0</speed>
  <fix>3d</fix>
</trkpt>
<trkpt lat="-27.274439" lon="151.290064">
  <ele>343.01</ele>
  <time>2026-09-01T19:51:35Z</time>
  <course>10.7</course>
  <speed>0.01</speed>
  <fix>3d</fix>
</trkpt>
<trkpt lat="-27.274439" lon="151.290064">
  <ele>343.1</ele>
  <time>2026-09-01T19:51:35Z</time>
  <course>270.0</course>
  <speed>0.0</speed>
  <fix>3d</fix>
</trkpt>
<trkpt lat="-27.274439" lon="151.290064">
  <ele>343.0</ele>
  <time>2026-09-01T19:51:35Z</time>
  <course>10.7</course>
  <speed>0.01</speed>
  <fix>3d</fix>
</trkpt>
<trkpt lat="-27.274439" lon="151.290064">
  <ele>343.1</ele>
  <time>2026-09-01T19:51:35Z</time>
  <course>270.0</course>
  <speed>0.0</speed>
  <fix>3d</fix>
</trkpt>
<trkpt lat="-27.274439" lon="151.290064">
  <ele>343.0</ele>
  <time>2026-09-01T19:51:35Z</time>
  <course>10.7</course>
  <speed>0.01</speed>
  <fix>3d</fix>
</trkpt>
<trkpt lat="-27.274439" lon="151.290064">
  <ele>343.1</ele>
  <time>2026-09-01T19:51:35Z</time>
  <course>270.0</course>
  <speed>0.0</speed>
  <fix>3d</fix>
</trkpt>
<trkpt lat="-27.274439" lon="151.290064">
  <ele>343.0</ele>
  <time>2026-09-01T19:51:35Z</time>
  <course>10.7</course>
  <speed>0.01</speed>
  <fix>3d</fix>
</trkpt>
<trkpt lat="-27.274439" lon="151.290064">
  <ele>343.1</ele>
  <time>2026-09-01T19:51:35Z</time>
  <course>270.0</course>
  <speed>0.0</speed>
  <fix>3d</fix>
</trkpt>
<trkpt lat="-27.274439" lon="151.290064">
  <ele>342.99</ele>
  <time>2026-09-01T19:51:35Z</time>
  <course>10.7</course>
  <speed>0.01</speed>
  <fix>3d</fix>
</trkpt>
<trkpt lat="-27.274439" lon="151.290064">
  <ele>343.1</ele>
  <time>2026-09-01T19:51:35Z</time>
  <course>270.0</course>
  <speed>0.0</speed>
  <fix>3d</fix>
</trkpt>
<trkpt lat="-27.274439" lon="151.290064">
  <ele>342.99</ele>
  <time>2026-09-01T19:51:35Z</time>
  <course>10.7</course>
  <speed>0.01</speed>
  <fix>3d</fix>
</trkpt>
<trkpt lat="-27.274439" lon="151.290064">
  <ele>343.1</ele>
  <time>2026-09-01T19:51:35Z</time>
  <course>270.0</course>
  <speed>0.0</speed>
  <fix>3d</fix>
</trkpt>
<trkpt lat="-27.274439" lon="151.290064">
  <ele>342.98</ele>
  <time>2026-09-01T19:51:35Z</time>
  <course>10.7</course>
  <speed>0.01</speed>
  <fix>3d</fix>
</trkpt>
<trkpt lat="-27.274439" lon="151.290064">
  <ele>343.1</ele>
  <time>2026-09-01T19:51:35Z</time>
  <course>270.0</course>
  <speed>0.0</speed>
  <fix>3d</fix>
</trkpt>
<trkpt lat="-27.274439" lon="151.290064">
  <ele>342.98</ele>
  <time>2026-09-01T19:51:35Z</time>
  <course>10.7</course>
  <speed>0.01</speed>
  <fix>3d</fix>
</trkpt>
<trkpt lat="-27.274439" lon="151.290064">
  <ele>343.1</ele>
  <time>2026-09-01T19:51:35Z</time>
  <course>270.0</course>
  <speed>0.0</speed>
  <fix>3d</fix>
</trkpt>
<trkpt lat="-27.274439" lon="151.290064">
  <ele>342.97</ele>
  <time>2026-09-01T19:51:35Z</time>
  <course>10.7</course>
  <speed>0.01</speed>
  <fix>3d</fix>
</trkpt>
<trkpt lat="-27.274439" lon="151.290064">
  <ele>343.1</ele>
  <time>2026-09-01T19:51:35Z</time>
  <course>270.0</course>
  <speed>0.0</speed>
  <fix>3d</fix>
</trkpt>
<trkpt lat="-27.274439" lon="151.290064">
  <ele>342.97</ele>
  <time>2026-09-01T19:51:35Z</time>
  <course>10.7</course>
  <speed>0.01</speed>
  <fix>3d</fix>
</trkpt>
<trkpt lat="-27.274439" lon="151.290064">
  <ele>343.1</ele>
  <time>2026-09-01T19:51:35Z</time>
  <course>270.0</course>
  <speed>0.0</speed>
  <fix>3d</fix>
</trkpt>
<trkpt lat="-27.274439" lon="151.290064">
  <ele>342.97</ele>
  <time>2026-09-01T19:51:35Z</time>
  <course>10.7</course>
  <speed>0.01</speed>
  <fix>3d</fix>
</trkpt>
<trkpt lat="-27.274439" lon="151.290064">
  <ele>343.1</ele>
  <time>2026-09-01T19:51:35Z</time>
  <course>270.0</course>
  <speed>0.0</speed>
  <fix>3d</fix>
</trkpt>
<trkpt lat="-27.274439" lon="151.290064">
  <ele>342.96</ele>
  <time>2026-09-01T19:51:35Z</time>
  <course>10.7</course>
  <speed>0.01</speed>
  <fix>3d</fix>
</trkpt>
<trkpt lat="-27.274439" lon="151.290064">
  <ele>343.1</ele>
  <time>2026-09-01T19:51:35Z</time>
  <course>270.0</course>
  <speed>0.0</speed>
  <fix>3d</fix>
</trkpt>
<trkpt lat="-27.274439" lon="151.290064">
  <ele>342.96</ele>
  <time>2026-09-01T19:51:35Z</time>
  <course>10.7</course>
  <speed>0.01</speed>
  <fix>3d</fix>
</trkpt>
<trkpt lat="-27.274439" lon="151.290064">
  <ele>343.1</ele>
  <time>2026-09-01T19:51:35Z</time>
  <course>270.0</course>
  <speed>0.0</speed>
  <fix>3d</fix>
</trkpt>
<trkpt lat="-27.274439" lon="151.290064">
  <ele>342.96</ele>
  <time>2026-09-01T19:51:35Z</time>
  <course>10.7</course>
  <speed>0.01</speed>
  <fix>3d</fix>
</trkpt>
<trkpt lat="-27.274439" lon="151.290064">
  <ele>343.1</ele>
  <time>2026-09-01T19:51:35Z</time>
  <course>270.0</course>
  <speed>0.0</speed>
  <fix>3d</fix>
</trkpt>
<trkpt lat="-27.274439" lon="151.290064">
  <ele>342.96</ele>
  <time>2026-09-01T19:51:35Z</time>
  <course>10.7</course>
  <speed>0.01</speed>
  <fix>3d</fix>
</trkpt>
<trkpt lat="-27.274439" lon="151.290064">
  <ele>343.1</ele>
  <time>2026-09-01T19:51:35Z</time>
  <course>270.0</course>
  <speed>0.0</speed>
  <fix>3d</fix>
</trkpt>
<trkpt lat="-27.274439" lon="151.290064">
  <ele>342.95</ele>
  <time>2026-09-01T19:51:35Z</time>
  <course>10.7</course>
  <speed>0.01</speed>
  <fix>3d</fix>
</trkpt>
<trkpt lat="-27.274439" lon="151.290064">
  <ele>343.1</ele>
  <time>2026-09-01T19:51:35Z</time>
  <course>270.0</course>
  <speed>0.0</speed>
  <fix>3d</fix>
</trkpt>
<trkpt lat="-27.274439" lon="151.290064">
  <ele>342.95</ele>
  <time>2026-09-01T19:51:35Z</time>
  <course>10.7</course>
  <speed>0.01</speed>
  <fix>3d</fix>
</trkpt>
<trkpt lat="-27.274439" lon="151.290064">
  <ele>343.1</ele>
  <time>2026-09-01T19:51:35Z</time>
  <course>270.0</course>
  <speed>0.0</speed>
  <fix>3d</fix>
</trkpt>
<trkpt lat="-27.274439" lon="151.290064">
  <ele>342.95</ele>
  <time>2026-09-01T19:51:35Z</time>
  <course>10.7</course>
  <speed>0.01</speed>
  <fix>3d</fix>
</trkpt>
<trkpt lat="-27.274439" lon="151.290064">
  <ele>343.1</ele>
  <time>2026-09-01T19:51:35Z</time>
  <course>270.0</course>
  <speed>0.0</speed>
  <fix>3d</fix>
</trkpt>
<trkpt lat="-27.274439" lon="151.290064">
  <ele>342.95</ele>
  <time>2026-09-01T19:51:35Z</time>
  <course>10.7</course>
  <speed>0.01</speed>
  <fix>3d</fix>
</trkpt>
<trkpt lat="-27.274439" lon="151.290064">
  <ele>343.1</ele>
  <time>2026-09-01T19:51:35Z</time>
  <course>270.0</course>
  <speed>0.0</speed>
  <fix>3d</fix>
</trkpt>
<trkpt lat="-27.274439" lon="151.290064">
  <ele>342.95</ele>
  <time>2026-09-01T19:51:35Z</time>
  <course>10.7</course>
  <speed>0.01</speed>
  <fix>3d</fix>
</trkpt>
<trkpt lat="-27.274439" lon="151.290064">
  <ele>343.1</ele>
  <time>2026-09-01T19:51:35Z</time>
  <course>270.0</course>
  <speed>0.0</speed>
  <fix>3d</fix>
</trkpt>
<trkpt lat="-27.274439" lon="151.290064">
  <ele>342.95</ele>
  <time>2026-09-01T19:51:35Z</time>
  <course>10.7</course>
  <speed>0.01</speed>
  <fix>3d</fix>
</trkpt>
<trkpt lat="-27.274439" lon="151.290064">
  <ele>343.1</ele>
  <time>2026-09-01T19:51:35Z</time>
  <course>270.0</course>
  <speed>0.0</speed>
  <fix>3d</fix>
</trkpt>
<trkpt lat="-27.2744391" lon="151.290064">
  <ele>342.95</ele>
  <time>2026-09-01T19:51:35Z</time>
  <course>10.7</course>
  <speed>0.01</speed>
  <fix>3d</fix>
</trkpt>
<trkpt lat="-27.274439" lon="151.290064">
  <ele>343.1</ele>
  <time>2026-09-01T19:51:35Z</time>
  <course>270.0</course>
  <speed>0.0</speed>
  <fix>3d</fix>
</trkpt>
<trkpt lat="-27.2744391" lon="151.290064">
  <ele>342.95</ele>
  <time>2026-09-01T19:51:35Z</time>
  <course>10.7</course>
  <speed>0.01</speed>
  <fix>3d</fix>
</trkpt>
<trkpt lat="-27.274439" lon="151.290064">
  <ele>343.1</ele>
  <time>2026-09-01T19:51:35Z</time>
  <course>270.0</course>
  <speed>0.0</speed>
  <fix>3d</fix>
</trkpt>
<trkpt lat="-27.2744391" lon="151.290064">
  <ele>342.95</ele>
  <time>2026-09-01T19:51:35Z</time>
  <course>10.7</course>
  <speed>0.01</speed>
  <fix>3d</fix>
</trkpt>
<trkpt lat="-27.274439" lon="151.290064">
  <ele>343.1</ele>
  <time>2026-09-01T19:51:35Z</time>
  <course>270.0</course>
  <speed>0.0</speed>
  <fix>3d</fix>
</trkpt>
<trkpt lat="-27.2744391" lon="151.290064">
  <ele>342.95</ele>
  <time>2026-09-01T19:51:35Z</time>
  <course>10.7</course>
  <speed>0.01</speed>
  <fix>3d</fix>
</trkpt>
<trkpt lat="-27.274439" lon="151.290064">
  <ele>343.1</ele>
  <time>2026-09-01T19:51:35Z</time>
  <course>270.0</course>
  <speed>0.0</speed>
  <fix>3d</fix>
</trkpt>
<trkpt lat="-27.2744391" lon="151.290064">
  <ele>342.95</ele>
  <time>2026-09-01T19:51:35Z</time>
  <course>10.7</course>
  <speed>0.01</speed>
  <fix>3d</fix>
</trkpt>
<trkpt lat="-27.274439" lon="151.290064">
  <ele>343.1</ele>
  <time>2026-09-01T19:51:35Z</time>
  <course>270.0</course>
  <speed>0.0</speed>
  <fix>3d</fix>
</trkpt>
<trkpt lat="-27.2744391" lon="151.290064">
  <ele>342.95</ele>
  <time>2026-09-01T19:51:35Z</time>
  <course>10.7</course>
  <speed>0.01</speed>
  <fix>3d</fix>
</trkpt>
<trkpt lat="-27.274439" lon="151.290064">
  <ele>343.1</ele>
  <time>2026-09-01T19:51:35Z</time>
  <course>270.0</course>
  <speed>0.0</speed>
  <fix>3d</fix>
</trkpt>
<trkpt lat="-27.2744391" lon="151.290064">
  <ele>342.95</ele>
  <time>2026-09-01T19:51:35Z</time>
  <course>10.7</course>
  <speed>0.01</speed>
  <fix>3d</fix>
</trkpt>
<trkpt lat="-27.274439" lon="151.290064">
  <ele>343.1</ele>
  <time>2026-09-01T19:51:35Z</time>
  <course>270.0</course>
  <speed>0.0</speed>
  <fix>3d</fix>
</trkpt>
<trkpt lat="-27.2744391" lon="151.290064">
  <ele>342.95</ele>
  <time>2026-09-01T19:51:35Z</time>
  <course>10.7</course>
  <speed>0.01</speed>
  <fix>3d</fix>
</trkpt>
<trkpt lat="-27.274439" lon="151.290064">
  <ele>343.1</ele>
  <time>2026-09-01T19:51:35Z</time>
  <course>270.0</course>
  <speed>0.0</speed>
  <fix>3d</fix>
</trkpt>
<trkpt lat="-27.2744391" lon="151.290064">
  <ele>343.09</ele>
  <time>2026-09-01T19:51:35Z</time>
  <course>10.7</course>
  <speed>0.01</speed>
  <fix>3d</fix>
</trkpt>
<trkpt lat="-27.274439" lon="151.290064">
  <ele>343.1</ele>
  <time>2026-09-01T19:51:35Z</time>
  <course>270.0</course>
  <speed>0.0</speed>
  <fix>3d</fix>
</trkpt>
<trkpt lat="-27.2744391" lon="151.290064">
  <ele>343.09</ele>
  <time>2026-09-01T19:51:35Z</time>
  <course>10.7</course>
  <speed>0.01</speed>
  <fix>3d</fix>
</trkpt>
<trkpt lat="-27.274439" lon="151.290064">
  <ele>343.1</ele>
  <time>2026-09-01T19:51:35Z</time>
  <course>270.0</course>
  <speed>0.0</speed>
  <fix>3d</fix>
</trkpt>
<trkpt lat="-27.2744391" lon="151.290064">
  <ele>343.1</ele>
  <time>2026-09-01T19:51:35Z</time>
  <course>10.7</course>
  <speed>0.01</speed>
  <fix>3d</fix>
</trkpt>
<trkpt lat="-27.274439" lon="151.290064">
  <ele>343.1</ele>
  <time>2026-09-01T19:51:35Z</time>
  <course>270.0</course>
  <speed>0.0</speed>
  <fix>3d</fix>
</trkpt>
<trkpt lat="-27.2744391" lon="151.290064">
  <ele>343.1</ele>
  <time>2026-09-01T19:51:35Z</time>
  <course>10.71</course>
  <speed>0.01</speed>
  <fix>3d</fix>
</trkpt>
<trkpt lat="-27.274439" lon="151.290064">
  <ele>343.1</ele>
  <time>2026-09-01T19:51:35Z</time>
  <course>270.0</course>
  <speed>0.0</speed>
  <fix>3d</fix>
</trkpt>
<trkpt lat="-27.2744391" lon="151.290064">
  <ele>343.1</ele>
  <time>2026-09-01T19:51:35Z</time>
  <course>10.71</course>
  <speed>0.01</speed>
  <fix>3d</fix>
</trkpt>
<trkpt lat="-27.274439" lon="151.290064">
  <ele>343.1</ele>
  <time>2026-09-01T19:51:35Z</time>
  <course>270.0</course>
  <speed>0.0</speed>
  <fix>3d</fix>
</trkpt>
<trkpt lat="-27.2744391" lon="151.290064">
  <ele>343.11</ele>
  <time>2026-09-01T19:51:35Z</time>
  <course>10.71</course>
  <speed>0.01</speed>
  <fix>3d</fix>
</trkpt>
<trkpt lat="-27.274439" lon="151.290064">
  <ele>343.1</ele>
  <time>2026-09-01T19:51:35Z</time>
  <course>270.0</course>
  <speed>0.0</speed>
  <fix>3d</fix>
</trkpt>
<trkpt lat="-27.2744391" lon="151.290064">
  <ele>343.11</ele>
  <time>2026-09-01T19:51:35Z</time>
  <course>10.71</course>
  <speed>0.01</speed>
  <fix>3d</fix>
</trkpt>
<trkpt lat="-27.274439" lon="151.290064">
  <ele>343.1</ele>
  <time>2026-09-01T19:51:35Z</time>
  <course>270.0</course>
  <speed>0.0</speed>
  <fix>3d</fix>
</trkpt>
<trkpt lat="-27.2744391" lon="151.290064">
  <ele>343.12</ele>
  <time>2026-09-01T19:51:35Z</time>
  <course>10.71</course>
  <speed>0.01</speed>
  <fix>3d</fix>
</trkpt>
<trkpt lat="-27.274439" lon="151.290064">
  <ele>343.1</ele>
  <time>2026-09-01T19:51:35Z</time>
  <course>270.0</course>
  <speed>0.0</speed>
  <fix>3d</fix>
</trkpt>
<trkpt lat="-27.2744391" lon="151.290064">
  <ele>343.12</ele>
  <time>2026-09-01T19:51:35Z</time>
  <course>10.71</course>
  <speed>0.01</speed>
  <fix>3d</fix>
</trkpt>
<trkpt lat="-27.274439" lon="151.290064">
  <ele>343.1</ele>
  <time>2026-09-01T19:51:35Z</time>
  <course>270.0</course>
  <speed>0.0</speed>
  <fix>3d</fix>
</trkpt>
<trkpt lat="-27.274439" lon="151.290064">
  <ele>343.13</ele>
  <time>2026-09-01T19:51:35Z</time>
  <course>10.71</course>
  <speed>0.01</speed>
  <fix>3d</fix>
</trkpt>
<trkpt lat="-27.274439" lon="151.290064">
  <ele>343.1</ele>
  <time>2026-09-01T19:51:35Z</time>
  <course>270.0</course>
  <speed>0.0</speed>
  <fix>3d</fix>
</trkpt>
<trkpt lat="-27.274439" lon="151.290064">
  <ele>343.13</ele>
  <time>2026-09-01T19:51:35Z</time>
  <course>10.71</course>
  <speed>0.01</speed>
  <fix>3d</fix>
</trkpt>
<trkpt lat="-27.274439" lon="151.290064">
  <ele>343.1</ele>
  <time>2026-09-01T19:51:35Z</time>
  <course>270.0</course>
  <speed>0.0</speed>
  <fix>3d</fix>
</trkpt>
<trkpt lat="-27.274439" lon="151.290064">
  <ele>343.14</ele>
  <time>2026-09-01T19:51:35Z</time>
  <course>10.71</course>
  <speed>0.0</speed>
  <fix>3d</fix>
</trkpt>
<trkpt lat="-27.274439" lon="151.290064">
  <ele>343.1</ele>
  <time>2026-09-01T19:51:35Z</time>
  <course>270.0</course>
  <speed>0.0</speed>
  <fix>3d</fix>
</trkpt>
<trkpt lat="-27.274439" lon="151.290064">
  <ele>343.14</ele>
  <time>2026-09-01T19:51:36Z</time>
  <course>10.71</course>
  <speed>0.0</speed>
  <fix>3d</fix>
</trkpt>
<trkpt lat="-27.274439" lon="151.290064">
  <ele>343.1</ele>
  <time>2026-09-01T19:51:36Z</time>
  <course>270.0</course>
  <speed>0.0</speed>
  <fix>3d</fix>
</trkpt>
<trkpt lat="-27.274439" lon="151.290064">
  <ele>343.15</ele>
  <time>2026-09-01T19:51:36Z</time>
  <course>10.71</course>
  <speed>0.0</speed>
  <fix>3d</fix>
</trkpt>
<trkpt lat="-27.274439" lon="151.290064">
  <ele>343.1</ele>
  <time>2026-09-01T19:51:36Z</time>
  <course>270.0</course>
  <speed>0.0</speed>
  <fix>3d</fix>
</trkpt>
<trkpt lat="-27.274439" lon="151.290064">
  <ele>343.15</ele>
  <time>2026-09-01T19:51:36Z</time>
  <course>10.71</course>
  <speed>0.0</speed>
  <fix>3d</fix>
</trkpt>
<trkpt lat="-27.274439" lon="151.290064">
  <ele>343.1</ele>
  <time>2026-09-01T19:51:36Z</time>
  <course>270.0</course>
  <speed>0.0</speed>
  <fix>3d</fix>
</trkpt>
<trkpt lat="-27.274439" lon="151.290064">
  <ele>343.16</ele>
  <time>2026-09-01T19:51:36Z</time>
  <course>10.71</course>
  <speed>0.0</speed>
  <fix>3d</fix>
</trkpt>
<trkpt lat="-27.274439" lon="151.290064">
  <ele>343.1</ele>
  <time>2026-09-01T19:51:36Z</time>
  <course>270.0</course>
  <speed>0.0</speed>
  <fix>3d</fix>
</trkpt>
<trkpt lat="-27.274439" lon="151.290064">
  <ele>343.16</ele>
  <time>2026-09-01T19:51:36Z</time>
  <course>10.71</course>
  <speed>0.0</speed>
  <fix>3d</fix>
</trkpt>
<trkpt lat="-27.274439" lon="151.290064">
  <ele>343.1</ele>
  <time>2026-09-01T19:51:36Z</time>
  <course>270.0</course>
  <speed>0.0</speed>
  <fix>3d</fix>
</trkpt>
<trkpt lat="-27.274439" lon="151.290064">
  <ele>343.17</ele>
  <time>2026-09-01T19:51:36Z</time>
  <course>10.71</course>
  <speed>0.0</speed>
  <fix>3d</fix>
</trkpt>
<trkpt lat="-27.274439" lon="151.290064">
  <ele>343.1</ele>
  <time>2026-09-01T19:51:36Z</time>
  <course>270.0</course>
  <speed>0.0</speed>
  <fix>3d</fix>
</trkpt>
<trkpt lat="-27.274439" lon="151.290064">
  <ele>343.17</ele>
  <time>2026-09-01T19:51:36Z</time>
  <course>10.71</course>
  <speed>0.0</speed>
  <fix>3d</fix>
</trkpt>
<trkpt lat="-27.274439" lon="151.290064">
  <ele>343.1</ele>
  <time>2026-09-01T19:51:36Z</time>
  <course>270.0</course>
  <speed>0.0</speed>
  <fix>3d</fix>
</trkpt>
<trkpt lat="-27.274439" lon="151.290064">
  <ele>343.18</ele>
  <time>2026-09-01T19:51:36Z</time>
  <course>10.71</course>
  <speed>0.0</speed>
  <fix>3d</fix>
</trkpt>
<trkpt lat="-27.274439" lon="151.290064">
  <ele>343.1</ele>
  <time>2026-09-01T19:51:36Z</time>
  <course>270.0</course>
  <speed>0.0</speed>
  <fix>3d</fix>
</trkpt>
<trkpt lat="-27.274439" lon="151.290064">
  <ele>343.18</ele>
  <time>2026-09-01T19:51:36Z</time>
  <course>10.71</course>
  <speed>0.0</speed>
  <fix>3d</fix>
</trkpt>
<trkpt lat="-27.274439" lon="151.290064">
  <ele>343.1</ele>
  <time>2026-09-01T19:51:36Z</time>
  <course>270.0</course>
  <speed>0.0</speed>
  <fix>3d</fix>
</trkpt>
<trkpt lat="-27.274439" lon="151.290064">
  <ele>343.19</ele>
  <time>2026-09-01T19:51:36Z</time>
  <course>10.71</course>
  <speed>0.0</speed>
  <fix>3d</fix>
</trkpt>
<trkpt lat="-27.274439" lon="151.290064">
  <ele>343.1</ele>
  <time>2026-09-01T19:51:36Z</time>
  <course>270.0</course>
  <speed>0.0</speed>
  <fix>3d</fix>
</trkpt>
<trkpt lat="-27.274439" lon="151.290064">
  <ele>343.1</ele>
  <time>2026-09-01T19:51:36Z</time>
  <course>10.71</course>
  <speed>0.0</speed>
  <fix>3d</fix>
</trkpt>
<trkpt lat="-27.274439" lon="151.290064">
  <ele>343.1</ele>
  <time>2026-09-01T19:51:36Z</time>
  <course>270.0</course>
  <speed>0.0</speed>
  <fix>3d</fix>
</trkpt>
<trkpt lat="-27.274439" lon="151.290064">
  <ele>343.1</ele>
  <time>2026-09-01T19:51:36Z</time>
  <course>10.71</course>
  <speed>0.0</speed>
  <fix>3d</fix>
</trkpt>
<trkpt lat="-27.274439" lon="151.290064">
  <ele>343.1</ele>
  <time>2026-09-01T19:51:36Z</time>
  <course>270.0</course>
  <speed>0.0</speed>
  <fix>3d</fix>
</trkpt>
<trkpt lat="-27.274439" lon="151.290064">
  <ele>343.1</ele>
  <time>2026-09-01T19:51:36Z</time>
  <course>10.71</course>
  <speed>0.0</speed>
  <fix>3d</fix>
</trkpt>
<trkpt lat="-27.274439" lon="151.290064">
  <ele>343.1</ele>
  <time>2026-09-01T19:51:36Z</time>
  <course>270.0</course>
  <speed>0.0</speed>
  <fix>3d</fix>
</trkpt>
<trkpt lat="-27.274439" lon="151.290064">
  <ele>343.1</ele>
  <time>2026-09-01T19:51:36Z</time>
  <course>10.71</course>
  <speed>0.0</speed>
  <fix>3d</fix>
</trkpt>
<trkpt lat="-27.274439" lon="151.290064">
  <ele>343.1</ele>
  <time>2026-09-01T19:51:36Z</time>
  <course>270.0</course>
  <speed>0.0</speed>
  <fix>3d</fix>
</trkpt>
<trkpt lat="-27.274439" lon="151.290064">
  <ele>343.11</ele>
  <time>2026-09-01T19:51:36Z</time>
  <course>10.71</course>
  <speed>0.0</speed>
  <fix>3d</fix>
</trkpt>
<trkpt lat="-27.274439" lon="151.290064">
  <ele>343.1</ele>
  <time>2026-09-01T19:51:36Z</time>
  <course>270.0</course>
  <speed>0.0</speed>
  <fix>3d</fix>
</trkpt>
<trkpt lat="-27.274439" lon="151.290064">
  <ele>343.11</ele>
  <time>2026-09-01T19:51:36Z</time>
  <course>10.71</course>
  <speed>0.0</speed>
  <fix>3d</fix>
</trkpt>
<trkpt lat="-27.274439" lon="151.290064">
  <ele>343.1</ele>
  <time>2026-09-01T19:51:36Z</time>
  <course>270.0</course>
  <speed>0.0</speed>
  <fix>3d</fix>
</trkpt>
<trkpt lat="-27.274439" lon="151.290064">
  <ele>343.11</ele>
  <time>2026-09-01T19:51:36Z</time>
  <course>10.71</course>
  <speed>0.0</speed>
  <fix>3d</fix>
</trkpt>
<trkpt lat="-27.274439" lon="151.290064">
  <ele>343.1</ele>
  <time>2026-09-01T19:51:36Z</time>
  <course>270.0</course>
  <speed>0.0</speed>
  <fix>3d</fix>
</trkpt>
<trkpt lat="-27.274439" lon="151.290064">
  <ele>343.11</ele>
  <time>2026-09-01T19:51:36Z</time>
  <course>10.71</course>
  <speed>0.0</speed>
  <fix>3d</fix>
</trkpt>
<trkpt lat="-27.274439" lon="151.290064">
  <ele>343.1</ele>
  <time>2026-09-01T19:51:36Z</time>
  <course>270.0</course>
  <speed>0.0</speed>
  <fix>3d</fix>
</trkpt>
<trkpt lat="-27.274439" lon="151.290064">
  <ele>343.12</ele>
  <time>2026-09-01T19:51:36Z</time>
  <course>10.71</course>
  <speed>0.0</speed>
  <fix>3d</fix>
</trkpt>
<trkpt lat="-27.274439" lon="151.290064">
  <ele>343.1</ele>
  <time>2026-09-01T19:51:36Z</time>
  <course>270.0</course>
  <speed>0.0</speed>
  <fix>3d</fix>
</trkpt>
<trkpt lat="-27.274439" lon="151.290064">
  <ele>343.12</ele>
  <time>2026-09-01T19:51:36Z</time>
  <course>10.71</course>
  <speed>0.0</speed>
  <fix>3d</fix>
</trkpt>
<trkpt lat="-27.274439" lon="151.290064">
  <ele>343.1</ele>
  <time>2026-09-01T19:51:36Z</time>
  <course>270.0</course>
  <speed>0.0</speed>
  <fix>3d</fix>
</trkpt>
<trkpt lat="-27.274439" lon="151.290064">
  <ele>343.12</ele>
  <time>2026-09-01T19:51:36Z</time>
  <course>10.71</course>
  <speed>0.0</speed>
  <fix>3d</fix>
</trkpt>
<trkpt lat="-27.274439" lon="151.290064">
  <ele>343.1</ele>
  <time>2026-09-01T19:51:36Z</time>
  <course>270.0</course>
  <speed>0.0</speed>
  <fix>3d</fix>
</trkpt>
<trkpt lat="-27.274439" lon="151.290064">
  <ele>343.11</ele>
  <time>2026-09-01T19:51:36Z</time>
  <course>10.71</course>
  <speed>0.0</speed>
  <fix>3d</fix>
</trkpt>
<trkpt lat="-27.274439" lon="151.290064">
  <ele>343.1</ele>
  <time>2026-09-01T19:51:36Z</time>
  <course>270.0</course>
  <speed>0.0</speed>
  <fix>3d</fix>
</trkpt>
<trkpt lat="-27.274439" lon="151.290064">
  <ele>343.11</ele>
  <time>2026-09-01T19:51:36Z</time>
  <course>10.71</course>
  <speed>0.0</speed>
  <fix>3d</fix>
</trkpt>
<trkpt lat="-27.274439" lon="151.290064">
  <ele>343.1</ele>
  <time>2026-09-01T19:51:36Z</time>
  <course>270.0</course>
  <speed>0.0</speed>
  <fix>3d</fix>
</trkpt>
<trkpt lat="-27.274439" lon="151.290064">
  <ele>343.11</ele>
  <time>2026-09-01T19:51:36Z</time>
  <course>10.71</course>
  <speed>0.0</speed>
  <fix>3d</fix>
</trkpt>
<trkpt lat="-27.274439" lon="151.290064">
  <ele>343.1</ele>
  <time>2026-09-01T19:51:36Z</time>
  <course>270.0</course>
  <speed>0.0</speed>
  <fix>3d</fix>
</trkpt>
<trkpt lat="-27.274439" lon="151.290064">
  <ele>343.11</ele>
  <time>2026-09-01T19:51:36Z</time>
  <course>10.71</course>
  <speed>0.0</speed>
  <fix>3d</fix>
</trkpt>
<trkpt lat="-27.274439" lon="151.290064">
  <ele>343.1</ele>
  <time>2026-09-01T19:51:36Z</time>
  <course>270.0</course>
  <speed>0.0</speed>
  <fix>3d</fix>
</trkpt>
<trkpt lat="-27.274439" lon="151.290064">
  <ele>343.11</ele>
  <time>2026-09-01T19:51:36Z</time>
  <course>10.71</course>
  <speed>0.0</speed>
  <fix>3d</fix>
</trkpt>
<trkpt lat="-27.274439" lon="151.290064">
  <ele>343.1</ele>
  <time>2026-09-01T19:51:36Z</time>
  <course>270.0</course>
  <speed>0.0</speed>
  <fix>3d</fix>
</trkpt>
<trkpt lat="-27.274439" lon="151.290064">
  <ele>343.11</ele>
  <time>2026-09-01T19:51:36Z</time>
  <course>10.7</course>
  <speed>0.0</speed>
  <fix>3d</fix>
</trkpt>
<trkpt lat="-27.274439" lon="151.290064">
  <ele>343.1</ele>
  <time>2026-09-01T19:51:36Z</time>
  <course>270.0</course>
  <speed>0.0</speed>
  <fix>3d</fix>
</trkpt>
<trkpt lat="-27.274439" lon="151.290064">
  <ele>343.11</ele>
  <time>2026-09-01T19:51:36Z</time>
  <course>10.7</course>
  <speed>0.0</speed>
  <fix>3d</fix>
</trkpt>
<trkpt lat="-27.274439" lon="151.290064">
  <ele>343.1</ele>
  <time>2026-09-01T19:51:36Z</time>
  <course>270.0</course>
  <speed>0.0</speed>
  <fix>3d</fix>
</trkpt>
<trkpt lat="-27.274439" lon="151.290064">
  <ele>343.11</ele>
  <time>2026-09-01T19:51:36Z</time>
  <course>10.7</course>
  <speed>0.0</speed>
  <fix>3d</fix>
</trkpt>
<trkpt lat="-27.274439" lon="151.290064">
  <ele>343.1</ele>
  <time>2026-09-01T19:51:36Z</time>
  <course>270.0</course>
  <speed>0.0</speed>
  <fix>3d</fix>
</trkpt>
<trkpt lat="-27.274439" lon="151.290064">
  <ele>343.11</ele>
  <time>2026-09-01T19:51:36Z</time>
  <course>10.7</course>
  <speed>0.0</speed>
  <fix>3d</fix>
</trkpt>
<trkpt lat="-27.274439" lon="151.290064">
  <ele>343.1</ele>
  <time>2026-09-01T19:51:36Z</time>
  <course>270.0</course>
  <speed>0.0</speed>
  <fix>3d</fix>
</trkpt>
<trkpt lat="-27.274439" lon="151.290064">
  <ele>343.1</ele>
  <time>2026-09-01T19:51:36Z</time>
  <course>10.7</course>
  <speed>0.0</speed>
  <fix>3d</fix>
</trkpt>
<trkpt lat="-27.274439" lon="151.290064">
  <ele>343.1</ele>
  <time>2026-09-01T19:51:36Z</time>
  <course>270.0</course>
  <speed>0.0</speed>
  <fix>3d</fix>
</trkpt>
<trkpt lat="-27.274439" lon="151.290064">
  <ele>343.1</ele>
  <time>2026-09-01T19:51:36Z</time>
  <course>10.7</course>
  <speed>0.0</speed>
  <fix>3d</fix>
</trkpt>
<trkpt lat="-27.274439" lon="151.290064">
  <ele>343.1</ele>
  <time>2026-09-01T19:51:36Z</time>
  <course>270.0</course>
  <speed>0.0</speed>
  <fix>3d</fix>
</trkpt>
<trkpt lat="-27.274439" lon="151.290064">
  <ele>343.1</ele>
  <time>2026-09-01T19:51:36Z</time>
  <course>10.7</course>
  <speed>0.0</speed>
  <fix>3d</fix>
</trkpt>
<trkpt lat="-27.274439" lon="151.290064">
  <ele>343.1</ele>
  <time>2026-09-01T19:51:36Z</time>
  <course>270.0</course>
  <speed>0.0</speed>
  <fix>3d</fix>
</trkpt>
<trkpt lat="-27.274439" lon="151.290064">
  <ele>343.1</ele>
  <time>2026-09-01T19:51:36Z</time>
  <course>10.7</course>
  <speed>0.0</speed>
  <fix>3d</fix>
</trkpt>
<trkpt lat="-27.274439" lon="151.290064">
  <ele>343.1</ele>
  <time>2026-09-01T19:51:36Z</time>
  <course>270.0</course>
  <speed>0.0</speed>
  <fix>3d</fix>
</trkpt>
<trkpt lat="-27.274439" lon="151.290064">
  <ele>343.09</ele>
  <time>2026-09-01T19:51:36Z</time>
  <course>10.7</course>
  <speed>0.0</speed>
  <fix>3d</fix>
</trkpt>
<trkpt lat="-27.274439" lon="151.290064">
  <ele>343.1</ele>
  <time>2026-09-01T19:51:36Z</time>
  <course>270.0</course>
  <speed>0.0</speed>
  <fix>3d</fix>
</trkpt>
<trkpt lat="-27.274439" lon="151.290064">
  <ele>343.09</ele>
  <time>2026-09-01T19:51:36Z</time>
  <course>10.7</course>
  <speed>0.0</speed>
  <fix>3d</fix>
</trkpt>
<trkpt lat="-27.274439" lon="151.290064">
  <ele>343.1</ele>
  <time>2026-09-01T19:51:36Z</time>
  <course>270.0</course>
  <speed>0.0</speed>
  <fix>3d</fix>
</trkpt>
<trkpt lat="-27.274439" lon="151.290064">
  <ele>343.09</ele>
  <time>2026-09-01T19:51:36Z</time>
  <course>10.7</course>
  <speed>0.0</speed>
  <fix>3d</fix>
</trkpt>
<trkpt lat="-27.274439" lon="151.290064">
  <ele>343.1</ele>
  <time>2026-09-01T19:51:36Z</time>
  <course>270.0</course>
  <speed>0.0</speed>
  <fix>3d</fix>
</trkpt>
<trkpt lat="-27.274439" lon="151.290064">
  <ele>343.1</ele>
  <time>2026-09-01T19:51:36Z</time>
  <course>10.7</course>
  <speed>0.0</speed>
  <fix>3d</fix>
</trkpt>
<trkpt lat="-27.274439" lon="151.290064">
  <ele>343.1</ele>
  <time>2026-09-01T19:51:36Z</time>
  <course>270.0</course>
  <speed>0.0</speed>
  <fix>3d</fix>
</trkpt>
<trkpt lat="-27.274439" lon="151.290064">
  <ele>343.1</ele>
  <time>2026-09-01T19:51:36Z</time>
  <course>10.7</course>
  <speed>0.0</speed>
  <fix>3d</fix>
</trkpt>
<trkpt lat="-27.274439" lon="151.290064">
  <ele>343.1</ele>
  <time>2026-09-01T19:51:36Z</time>
  <course>270.0</course>
  <speed>0.0</speed>
  <fix>3d</fix>
</trkpt>
<trkpt lat="-27.274439" lon="151.290064">
  <ele>343.1</ele>
  <time>2026-09-01T19:51:36Z</time>
  <course>10.7</course>
  <speed>0.0</speed>
  <fix>3d</fix>
</trkpt>
<trkpt lat="-27.274439" lon="151.290064">
  <ele>343.1</ele>
  <time>2026-09-01T19:51:36Z</time>
  <course>270.0</course>
  <speed>0.0</speed>
  <fix>3d</fix>
</trkpt>
<trkpt lat="-27.274439" lon="151.290064">
  <ele>343.1</ele>
  <time>2026-09-01T19:51:36Z</time>
  <course>10.7</course>
  <speed>0.01</speed>
  <fix>3d</fix>
</trkpt>
<trkpt lat="-27.274439" lon="151.290064">
  <ele>343.1</ele>
  <time>2026-09-01T19:51:36Z</time>
  <course>270.0</course>
  <speed>0.0</speed>
  <fix>3d</fix>
</trkpt>
<trkpt lat="-27.274439" lon="151.290064">
  <ele>343.1</ele>
  <time>2026-09-01T19:51:36Z</time>
  <course>10.7</course>
  <speed>0.01</speed>
  <fix>3d</fix>
</trkpt>
<trkpt lat="-27.274439" lon="151.290064">
  <ele>343.1</ele>
  <time>2026-09-01T19:51:36Z</time>
  <course>270.0</course>
  <speed>0.0</speed>
  <fix>3d</fix>
</trkpt>
<trkpt lat="-27.274439" lon="151.290064">
  <ele>343.1</ele>
  <time>2026-09-01T19:51:36Z</time>
  <course>10.7</course>
  <speed>0.01</speed>
  <fix>3d</fix>
</trkpt>
<trkpt lat="-27.274439" lon="151.290064">
  <ele>343.1</ele>
  <time>2026-09-01T19:51:36Z</time>
  <course>270.0</course>
  <speed>0.0</speed>
  <fix>3d</fix>
</trkpt>
<trkpt lat="-27.274439" lon="151.290064">
  <ele>343.1</ele>
  <time>2026-09-01T19:51:36Z</time>
  <course>10.7</course>
  <speed>0.01</speed>
  <fix>3d</fix>
</trkpt>
<trkpt lat="-27.274439" lon="151.290064">
  <ele>343.1</ele>
  <time>2026-09-01T19:51:36Z</time>
  <course>270.0</course>
  <speed>0.0</speed>
  <fix>3d</fix>
</trkpt>
<trkpt lat="-27.274439" lon="151.290064">
  <ele>343.1</ele>
  <time>2026-09-01T19:51:36Z</time>
  <course>10.7</course>
  <speed>0.01</speed>
  <fix>3d</fix>
</trkpt>
<trkpt lat="-27.274439" lon="151.290064">
  <ele>343.1</ele>
  <time>2026-09-01T19:51:36Z</time>
  <course>270.0</course>
  <speed>0.0</speed>
  <fix>3d</fix>
</trkpt>
<trkpt lat="-27.274439" lon="151.290064">
  <ele>343.11</ele>
  <time>2026-09-01T19:51:36Z</time>
  <course>10.7</course>
  <speed>0.01</speed>
  <fix>3d</fix>
</trkpt>
<trkpt lat="-27.274439" lon="151.290064">
  <ele>343.1</ele>
  <time>2026-09-01T19:51:36Z</time>
  <course>270.0</course>
  <speed>0.0</speed>
  <fix>3d</fix>
</trkpt>
<trkpt lat="-27.274439" lon="151.290064">
  <ele>343.11</ele>
  <time>2026-09-01T19:51:36Z</time>
  <course>10.7</course>
  <speed>0.01</speed>
  <fix>3d</fix>
</trkpt>
<trkpt lat="-27.274439" lon="151.290064">
  <ele>343.1</ele>
  <time>2026-09-01T19:51:36Z</time>
  <course>270.0</course>
  <speed>0.0</speed>
  <fix>3d</fix>
</trkpt>
<trkpt lat="-27.274439" lon="151.290064">
  <ele>343.11</ele>
  <time>2026-09-01T19:51:36Z</time>
  <course>10.7</course>
  <speed>0.01</speed>
  <fix>3d</fix>
</trkpt>
<trkpt lat="-27.274439" lon="151.290064">
  <ele>343.1</ele>
  <time>2026-09-01T19:51:36Z</time>
  <course>270.0</course>
  <speed>0.0</speed>
  <fix>3d</fix>
</trkpt>
<trkpt lat="-27.274439" lon="151.290064">
  <ele>343.11</ele>
  <time>2026-09-01T19:51:36Z</time>
  <course>10.7</course>
  <speed>0.01</speed>
  <fix>3d</fix>
</trkpt>
<trkpt lat="-27.274439" lon="151.290064">
  <ele>343.1</ele>
  <time>2026-09-01T19:51:36Z</time>
  <course>270.0</course>
  <speed>0.0</speed>
  <fix>3d</fix>
</trkpt>
<trkpt lat="-27.274439" lon="151.290064">
  <ele>343.11</ele>
  <time>2026-09-01T19:51:36Z</time>
  <course>10.7</course>
  <speed>0.01</speed>
  <fix>3d</fix>
</trkpt>
<trkpt lat="-27.274439" lon="151.290064">
  <ele>343.1</ele>
  <time>2026-09-01T19:51:36Z</time>
  <course>270.0</course>
  <speed>0.0</speed>
  <fix>3d</fix>
</trkpt>
<trkpt lat="-27.274439" lon="151.290064">
  <ele>343.11</ele>
  <time>2026-09-01T19:51:36Z</time>
  <course>10.7</course>
  <speed>0.01</speed>
  <fix>3d</fix>
</trkpt>
<trkpt lat="-27.274439" lon="151.290064">
  <ele>343.1</ele>
  <time>2026-09-01T19:51:36Z</time>
  <course>270.0</course>
  <speed>0.0</speed>
  <fix>3d</fix>
</trkpt>
<trkpt lat="-27.274439" lon="151.290064">
  <ele>343.11</ele>
  <time>2026-09-01T19:51:36Z</time>
  <course>10.7</course>
  <speed>0.01</speed>
  <fix>3d</fix>
</trkpt>
<trkpt lat="-27.274439" lon="151.290064">
  <ele>343.1</ele>
  <time>2026-09-01T19:51:36Z</time>
  <course>270.0</course>
  <speed>0.0</speed>
  <fix>3d</fix>
</trkpt>
<trkpt lat="-27.274439" lon="151.290064">
  <ele>343.11</ele>
  <time>2026-09-01T19:51:36Z</time>
  <course>10.7</course>
  <speed>0.01</speed>
  <fix>3d</fix>
</trkpt>
<trkpt lat="-27.274439" lon="151.290064">
  <ele>343.1</ele>
  <time>2026-09-01T19:51:36Z</time>
  <course>270.0</course>
  <speed>0.0</speed>
  <fix>3d</fix>
</trkpt>
<trkpt lat="-27.274439" lon="151.290064">
  <ele>343.11</ele>
  <time>2026-09-01T19:51:36Z</time>
  <course>10.7</course>
  <speed>0.01</speed>
  <fix>3d</fix>
</trkpt>
<trkpt lat="-27.274439" lon="151.290064">
  <ele>343.1</ele>
  <time>2026-09-01T19:51:36Z</time>
  <course>270.0</course>
  <speed>0.0</speed>
  <fix>3d</fix>
</trkpt>
<trkpt lat="-27.274439" lon="151.290064">
  <ele>343.11</ele>
  <time>2026-09-01T19:51:36Z</time>
  <course>10.7</course>
  <speed>0.01</speed>
  <fix>3d</fix>
</trkpt>
<trkpt lat="-27.274439" lon="151.290064">
  <ele>343.1</ele>
  <time>2026-09-01T19:51:36Z</time>
  <course>270.0</course>
  <speed>0.0</speed>
  <fix>3d</fix>
</trkpt>
<trkpt lat="-27.274439" lon="151.290064">
  <ele>343.11</ele>
  <time>2026-09-01T19:51:36Z</time>
  <course>10.7</course>
  <speed>0.01</speed>
  <fix>3d</fix>
</trkpt>
<trkpt lat="-27.274439" lon="151.290064">
  <ele>343.1</ele>
  <time>2026-09-01T19:51:36Z</time>
  <course>270.0</course>
  <speed>0.0</speed>
  <fix>3d</fix>
</trkpt>
<trkpt lat="-27.274439" lon="151.290064">
  <ele>343.11</ele>
  <time>2026-09-01T19:51:36Z</time>
  <course>10.7</course>
  <speed>0.01</speed>
  <fix>3d</fix>
</trkpt>
<trkpt lat="-27.274439" lon="151.290064">
  <ele>343.1</ele>
  <time>2026-09-01T19:51:36Z</time>
  <course>270.0</course>
  <speed>0.0</speed>
  <fix>3d</fix>
</trkpt>
<trkpt lat="-27.274439" lon="151.290064">
  <ele>343.11</ele>
  <time>2026-09-01T19:51:36Z</time>
  <course>10.7</course>
  <speed>0.01</speed>
  <fix>3d</fix>
</trkpt>
<trkpt lat="-27.274439" lon="151.290064">
  <ele>343.1</ele>
  <time>2026-09-01T19:51:36Z</time>
  <course>270.0</course>
  <speed>0.0</speed>
  <fix>3d</fix>
</trkpt>
<trkpt lat="-27.2744391" lon="151.290064">
  <ele>343.1</ele>
  <time>2026-09-01T19:51:36Z</time>
  <course>10.7</course>
  <speed>0.01414213562373095</speed>
  <fix>3d</fix>
</trkpt>
<trkpt lat="-27.274439" lon="151.290064">
  <ele>343.1</ele>
  <time>2026-09-01T19:51:36Z</time>
  <course>270.0</course>
  <speed>0.0</speed>
  <fix>3d</fix>
</trkpt>
<trkpt lat="-27.274439" lon="151.290064">
  <ele>343.1</ele>
  <time>2026-09-01T19:51:36Z</time>
  <course>10.7</course>
  <speed>0.01414213562373095</speed>
  <fix>3d</fix>
</trkpt>
<trkpt lat="-27.274439" lon="151.290064">
  <ele>343.1</ele>
  <time>2026-09-01T19:51:36Z</time>
  <course>270.0</course>
  <speed>0.0</speed>
  <fix>3d</fix>
</trkpt>
<trkpt lat="-27.2744391" lon="151.290064">
  <ele>343.1</ele>
  <time>2026-09-01T19:51:36Z</time>
  <course>10.7</course>
  <speed>0.01414213562373095</speed>
  <fix>3d</fix>
</trkpt>
<trkpt lat="-27.274439" lon="151.290064">
  <ele>343.1</ele>
  <time>2026-09-01T19:51:36Z</time>
  <course>270.0</course>
  <speed>0.0</speed>
  <fix>3d</fix>
</trkpt>
<trkpt lat="-27.2744391" lon="151.290064">
  <ele>343.1</ele>
  <time>2026-09-01T19:51:36Z</time>
  <course>10.69</course>
  <speed>0.01414213562373095</speed>
  <fix>3d</fix>
</trkpt>
<trkpt lat="-27.274439" lon="151.290064">
  <ele>343.1</ele>
  <time>2026-09-01T19:51:36Z</time>
  <course>270.0</course>
  <speed>0.0</speed>
  <fix>3d</fix>
</trkpt>
<trkpt lat="-27.2744391" lon="151.290064">
  <ele>343.09</ele>
  <time>2026-09-01T19:51:36Z</time>
  <course>10.69</course>
  <speed>0.01414213562373095</speed>
  <fix>3d</fix>
</trkpt>
<trkpt lat="-27.274439" lon="151.290064">
  <ele>343.1</ele>
  <time>2026-09-01T19:51:36Z</time>
  <course>270.0</course>
  <speed>0.0</speed>
  <fix>3d</fix>
</trkpt>
<trkpt lat="-27.2744391" lon="151.290064">
  <ele>343.09</ele>
  <time>2026-09-01T19:51:36Z</time>
  <course>10.69</course>
  <speed>0.01414213562373095</speed>
  <fix>3d</fix>
</trkpt>
<trkpt lat="-27.274439" lon="151.290064">
  <ele>343.1</ele>
  <time>2026-09-01T19:51:36Z</time>
  <course>270.0</course>
  <speed>0.0</speed>
  <fix>3d</fix>
</trkpt>
<trkpt lat="-27.2744391" lon="151.290064">
  <ele>343.09</ele>
  <time>2026-09-01T19:51:36Z</time>
  <course>10.69</course>
  <speed>0.01414213562373095</speed>
  <fix>3d</fix>
</trkpt>
<trkpt lat="-27.274439" lon="151.290064">
  <ele>343.1</ele>
  <time>2026-09-01T19:51:36Z</time>
  <course>270.0</course>
  <speed>0.0</speed>
  <fix>3d</fix>
</trkpt>
<trkpt lat="-27.2744391" lon="151.290064">
  <ele>343.09</ele>
  <time>2026-09-01T19:51:36Z</time>
  <course>10.69</course>
  <speed>0.01414213562373095</speed>
  <fix>3d</fix>
</trkpt>
<trkpt lat="-27.274439" lon="151.290064">
  <ele>343.1</ele>
  <time>2026-09-01T19:51:36Z</time>
  <course>270.0</course>
  <speed>0.0</speed>
  <fix>3d</fix>
</trkpt>
<trkpt lat="-27.2744391" lon="151.290064">
  <ele>343.09</ele>
  <time>2026-09-01T19:51:36Z</time>
  <course>10.69</course>
  <speed>0.01414213562373095</speed>
  <fix>3d</fix>
</trkpt>
<trkpt lat="-27.274439" lon="151.290064">
  <ele>343.1</ele>
  <time>2026-09-01T19:51:36Z</time>
  <course>270.0</course>
  <speed>0.0</speed>
  <fix>3d</fix>
</trkpt>
<trkpt lat="-27.2744391" lon="151.290064">
  <ele>343.09</ele>
  <time>2026-09-01T19:51:36Z</time>
  <course>10.69</course>
  <speed>0.01414213562373095</speed>
  <fix>3d</fix>
</trkpt>
<trkpt lat="-27.274439" lon="151.290064">
  <ele>343.1</ele>
  <time>2026-09-01T19:51:36Z</time>
  <course>270.0</course>
  <speed>0.0</speed>
  <fix>3d</fix>
</trkpt>
<trkpt lat="-27.2744391" lon="151.290064">
  <ele>343.09</ele>
  <time>2026-09-01T19:51:36Z</time>
  <course>10.69</course>
  <speed>0.01414213562373095</speed>
  <fix>3d</fix>
</trkpt>
<trkpt lat="-27.274439" lon="151.290064">
  <ele>343.1</ele>
  <time>2026-09-01T19:51:36Z</time>
  <course>270.0</course>
  <speed>0.0</speed>
  <fix>3d</fix>
</trkpt>
<trkpt lat="-27.2744391" lon="151.290064">
  <ele>343.1</ele>
  <time>2026-09-01T19:51:36Z</time>
  <course>10.69</course>
  <speed>0.01414213562373095</speed>
  <fix>3d</fix>
</trkpt>
<trkpt lat="-27.274439" lon="151.290064">
  <ele>343.1</ele>
  <time>2026-09-01T19:51:36Z</time>
  <course>270.0</course>
  <speed>0.0</speed>
  <fix>3d</fix>
</trkpt>
<trkpt lat="-27.2744391" lon="151.290064">
  <ele>343.09</ele>
  <time>2026-09-01T19:51:36Z</time>
  <course>10.69</course>
  <speed>0.01414213562373095</speed>
  <fix>3d</fix>
</trkpt>
<trkpt lat="-27.274439" lon="151.290064">
  <ele>343.1</ele>
  <time>2026-09-01T19:51:36Z</time>
  <course>270.0</course>
  <speed>0.0</speed>
  <fix>3d</fix>
</trkpt>
<trkpt lat="-27.2744391" lon="151.290064">
  <ele>343.09</ele>
  <time>2026-09-01T19:51:36Z</time>
  <course>10.69</course>
  <speed>0.01414213562373095</speed>
  <fix>3d</fix>
</trkpt>
<trkpt lat="-27.274439" lon="151.290064">
  <ele>343.1</ele>
  <time>2026-09-01T19:51:36Z</time>
  <course>270.0</course>
  <speed>0.0</speed>
  <fix>3d</fix>
</trkpt>
<trkpt lat="-27.2744391" lon="151.290064">
  <ele>343.09</ele>
  <time>2026-09-01T19:51:36Z</time>
  <course>10.69</course>
  <speed>0.01414213562373095</speed>
  <fix>3d</fix>
</trkpt>
<trkpt lat="-27.274439" lon="151.290064">
  <ele>343.1</ele>
  <time>2026-09-01T19:51:36Z</time>
  <course>270.0</course>
  <speed>0.0</speed>
  <fix>3d</fix>
</trkpt>
<trkpt lat="-27.2744391" lon="151.290064">
  <ele>343.09</ele>
  <time>2026-09-01T19:51:36Z</time>
  <course>10.69</course>
  <speed>0.01414213562373095</speed>
  <fix>3d</fix>
</trkpt>
<trkpt lat="-27.274439" lon="151.290064">
  <ele>343.1</ele>
  <time>2026-09-01T19:51:36Z</time>
  <course>270.0</course>
  <speed>0.0</speed>
  <fix>3d</fix>
</trkpt>
<trkpt lat="-27.2744391" lon="151.290064">
  <ele>343.09</ele>
  <time>2026-09-01T19:51:36Z</time>
  <course>10.69</course>
  <speed>0.01414213562373095</speed>
  <fix>3d</fix>
</trkpt>
<trkpt lat="-27.274439" lon="151.290064">
  <ele>343.1</ele>
  <time>2026-09-01T19:51:36Z</time>
  <course>270.0</course>
  <speed>0.0</speed>
  <fix>3d</fix>
</trkpt>
<trkpt lat="-27.2744391" lon="151.290064">
  <ele>343.09</ele>
  <time>2026-09-01T19:51:36Z</time>
  <course>10.69</course>
  <speed>0.01414213562373095</speed>
  <fix>3d</fix>
</trkpt>
<trkpt lat="-27.274439" lon="151.290064">
  <ele>343.1</ele>
  <time>2026-09-01T19:51:36Z</time>
  <course>270.0</course>
  <speed>0.0</speed>
  <fix>3d</fix>
</trkpt>
<trkpt lat="-27.2744391" lon="151.290064">
  <ele>343.09</ele>
  <time>2026-09-01T19:51:36Z</time>
  <course>10.69</course>
  <speed>0.01414213562373095</speed>
  <fix>3d</fix>
</trkpt>
<trkpt lat="-27.274439" lon="151.290064">
  <ele>343.1</ele>
  <time>2026-09-01T19:51:36Z</time>
  <course>270.0</course>
  <speed>0.0</speed>
  <fix>3d</fix>
</trkpt>
<trkpt lat="-27.2744391" lon="151.290064">
  <ele>343.09</ele>
  <time>2026-09-01T19:51:36Z</time>
  <course>10.69</course>
  <speed>0.01414213562373095</speed>
  <fix>3d</fix>
</trkpt>
<trkpt lat="-27.274439" lon="151.290064">
  <ele>343.1</ele>
  <time>2026-09-01T19:51:36Z</time>
  <course>270.0</course>
  <speed>0.0</speed>
  <fix>3d</fix>
</trkpt>
<trkpt lat="-27.2744391" lon="151.290064">
  <ele>343.09</ele>
  <time>2026-09-01T19:51:36Z</time>
  <course>10.69</course>
  <speed>0.01414213562373095</speed>
  <fix>3d</fix>
</trkpt>
<trkpt lat="-27.274439" lon="151.290064">
  <ele>343.1</ele>
  <time>2026-09-01T19:51:36Z</time>
  <course>270.0</course>
  <speed>0.0</speed>
  <fix>3d</fix>
</trkpt>
<trkpt lat="-27.2744391" lon="151.290064">
  <ele>343.09</ele>
  <time>2026-09-01T19:51:36Z</time>
  <course>10.69</course>
  <speed>0.01414213562373095</speed>
  <fix>3d</fix>
</trkpt>
<trkpt lat="-27.274439" lon="151.290064">
  <ele>343.1</ele>
  <time>2026-09-01T19:51:36Z</time>
  <course>270.0</course>
  <speed>0.0</speed>
  <fix>3d</fix>
</trkpt>
<trkpt lat="-27.2744391" lon="151.290064">
  <ele>343.08</ele>
  <time>2026-09-01T19:51:36Z</time>
  <course>10.69</course>
  <speed>0.01414213562373095</speed>
  <fix>3d</fix>
</trkpt>
<trkpt lat="-27.274439" lon="151.290064">
  <ele>343.1</ele>
  <time>2026-09-01T19:51:36Z</time>
  <course>270.0</course>
  <speed>0.0</speed>
  <fix>3d</fix>
</trkpt>
<trkpt lat="-27.2744391" lon="151.290064">
  <ele>343.08</ele>
  <time>2026-09-01T19:51:36Z</time>
  <course>10.69</course>
  <speed>0.01414213562373095</speed>
  <fix>3d</fix>
</trkpt>
<trkpt lat="-27.274439" lon="151.290064">
  <ele>343.1</ele>
  <time>2026-09-01T19:51:36Z</time>
  <course>270.0</course>
  <speed>0.0</speed>
  <fix>3d</fix>
</trkpt>
<trkpt lat="-27.2744391" lon="151.290064">
  <ele>343.08</ele>
  <time>2026-09-01T19:51:36Z</time>
  <course>10.69</course>
  <speed>0.01414213562373095</speed>
  <fix>3d</fix>
</trkpt>
<trkpt lat="-27.274439" lon="151.290064">
  <ele>343.1</ele>
  <time>2026-09-01T19:51:36Z</time>
  <course>270.0</course>
  <speed>0.0</speed>
  <fix>3d</fix>
</trkpt>
<trkpt lat="-27.2744391" lon="151.290064">
  <ele>343.07</ele>
  <time>2026-09-01T19:51:36Z</time>
  <course>10.69</course>
  <speed>0.01414213562373095</speed>
  <fix>3d</fix>
</trkpt>
<trkpt lat="-27.274439" lon="151.290064">
  <ele>343.1</ele>
  <time>2026-09-01T19:51:36Z</time>
  <course>270.0</course>
  <speed>0.0</speed>
  <fix>3d</fix>
</trkpt>
<trkpt lat="-27.2744391" lon="151.2900641">
  <ele>343.07</ele>
  <time>2026-09-01T19:51:36Z</time>
  <course>10.69</course>
  <speed>0.01414213562373095</speed>
  <fix>3d</fix>
</trkpt>
<trkpt lat="-27.274439" lon="151.290064">
  <ele>343.1</ele>
  <time>2026-09-01T19:51:36Z</time>
  <course>270.0</course>
  <speed>0.0</speed>
  <fix>3d</fix>
</trkpt>
<trkpt lat="-27.2744391" lon="151.2900641">
  <ele>343.07</ele>
  <time>2026-09-01T19:51:36Z</time>
  <course>10.69</course>
  <speed>0.01414213562373095</speed>
  <fix>3d</fix>
</trkpt>
<trkpt lat="-27.274439" lon="151.290064">
  <ele>343.1</ele>
  <time>2026-09-01T19:51:36Z</time>
  <course>270.0</course>
  <speed>0.0</speed>
  <fix>3d</fix>
</trkpt>
<trkpt lat="-27.2744391" lon="151.2900641">
  <ele>343.07</ele>
  <time>2026-09-01T19:51:36Z</time>
  <course>10.69</course>
  <speed>0.01414213562373095</speed>
  <fix>3d</fix>
</trkpt>
<trkpt lat="-27.274439" lon="151.290064">
  <ele>343.1</ele>
  <time>2026-09-01T19:51:36Z</time>
  <course>270.0</course>
  <speed>0.0</speed>
  <fix>3d</fix>
</trkpt>
<trkpt lat="-27.2744391" lon="151.2900641">
  <ele>343.07</ele>
  <time>2026-09-01T19:51:36Z</time>
  <course>10.69</course>
  <speed>0.01414213562373095</speed>
  <fix>3d</fix>
</trkpt>
<trkpt lat="-27.274439" lon="151.290064">
  <ele>343.1</ele>
  <time>2026-09-01T19:51:36Z</time>
  <course>270.0</course>
  <speed>0.0</speed>
  <fix>3d</fix>
</trkpt>
<trkpt lat="-27.2744391" lon="151.2900641">
  <ele>343.07</ele>
  <time>2026-09-01T19:51:36Z</time>
  <course>10.69</course>
  <speed>0.01414213562373095</speed>
  <fix>3d</fix>
</trkpt>
<trkpt lat="-27.274439" lon="151.290064">
  <ele>343.1</ele>
  <time>2026-09-01T19:51:36Z</time>
  <course>270.0</course>
  <speed>0.0</speed>
  <fix>3d</fix>
</trkpt>
<trkpt lat="-27.2744391" lon="151.2900641">
  <ele>343.07</ele>
  <time>2026-09-01T19:51:36Z</time>
  <course>10.69</course>
  <speed>0.01414213562373095</speed>
  <fix>3d</fix>
</trkpt>
<trkpt lat="-27.274439" lon="151.290064">
  <ele>343.1</ele>
  <time>2026-09-01T19:51:36Z</time>
  <course>270.0</course>
  <speed>0.0</speed>
  <fix>3d</fix>
</trkpt>
<trkpt lat="-27.2744391" lon="151.2900641">
  <ele>343.07</ele>
  <time>2026-09-01T19:51:36Z</time>
  <course>10.69</course>
  <speed>0.022360679774997897</speed>
  <fix>3d</fix>
</trkpt>
<trkpt lat="-27.274439" lon="151.290064">
  <ele>343.1</ele>
  <time>2026-09-01T19:51:36Z</time>
  <course>270.0</course>
  <speed>0.0</speed>
  <fix>3d</fix>
</trkpt>
<trkpt lat="-27.2744391" lon="151.2900641">
  <ele>343.07</ele>
  <time>2026-09-01T19:51:36Z</time>
  <course>10.69</course>
  <speed>0.022360679774997897</speed>
  <fix>3d</fix>
</trkpt>
<trkpt lat="-27.274439" lon="151.290064">
  <ele>343.1</ele>
  <time>2026-09-01T19:51:36Z</time>
  <course>270.0</course>
  <speed>0.0</speed>
  <fix>3d</fix>
</trkpt>
<trkpt lat="-27.2744391" lon="151.2900641">
  <ele>343.06</ele>
  <time>2026-09-01T19:51:36Z</time>
  <course>10.69</course>
  <speed>0.022360679774997897</speed>
  <fix>3d</fix>
</trkpt>
<trkpt lat="-27.274439" lon="151.290064">
  <ele>343.1</ele>
  <time>2026-09-01T19:51:36Z</time>
  <course>270.0</course>
  <speed>0.0</speed>
  <fix>3d</fix>
</trkpt>
<trkpt lat="-27.2744391" lon="151.2900641">
  <ele>343.06</ele>
  <time>2026-09-01T19:51:36Z</time>
  <course>10.69</course>
  <speed>0.022360679774997897</speed>
  <fix>3d</fix>
</trkpt>
<trkpt lat="-27.274439" lon="151.290064">
  <ele>343.1</ele>
  <time>2026-09-01T19:51:36Z</time>
  <course>270.0</course>
  <speed>0.0</speed>
  <fix>3d</fix>
</trkpt>
<trkpt lat="-27.2744391" lon="151.2900641">
  <ele>343.06</ele>
  <time>2026-09-01T19:51:36Z</time>
  <course>10.69</course>
  <speed>0.022360679774997897</speed>
  <fix>3d</fix>
</trkpt>
<trkpt lat="-27.274439" lon="151.290064">
  <ele>343.1</ele>
  <time>2026-09-01T19:51:36Z</time>
  <course>270.0</course>
  <speed>0.0</speed>
  <fix>3d</fix>
</trkpt>
<trkpt lat="-27.2744391" lon="151.2900641">
  <ele>343.06</ele>
  <time>2026-09-01T19:51:36Z</time>
  <course>10.69</course>
  <speed>0.022360679774997897</speed>
  <fix>3d</fix>
</trkpt>
<trkpt lat="-27.274439" lon="151.290064">
  <ele>343.1</ele>
  <time>2026-09-01T19:51:36Z</time>
  <course>270.0</course>
  <speed>0.0</speed>
  <fix>3d</fix>
</trkpt>
<trkpt lat="-27.2744391" lon="151.2900641">
  <ele>343.06</ele>
  <time>2026-09-01T19:51:36Z</time>
  <course>10.69</course>
  <speed>0.022360679774997897</speed>
  <fix>3d</fix>
</trkpt>
<trkpt lat="-27.274439" lon="151.290064">
  <ele>343.1</ele>
  <time>2026-09-01T19:51:36Z</time>
  <course>270.0</course>
  <speed>0.0</speed>
  <fix>3d</fix>
</trkpt>
<trkpt lat="-27.2744391" lon="151.2900641">
  <ele>343.06</ele>
  <time>2026-09-01T19:51:36Z</time>
  <course>10.69</course>
  <speed>0.022360679774997897</speed>
  <fix>3d</fix>
</trkpt>
<trkpt lat="-27.274439" lon="151.290064">
  <ele>343.1</ele>
  <time>2026-09-01T19:51:36Z</time>
  <course>270.0</course>
  <speed>0.0</speed>
  <fix>3d</fix>
</trkpt>
<trkpt lat="-27.2744391" lon="151.2900641">
  <ele>343.06</ele>
  <time>2026-09-01T19:51:36Z</time>
  <course>10.69</course>
  <speed>0.022360679774997897</speed>
  <fix>3d</fix>
</trkpt>
<trkpt lat="-27.274439" lon="151.290064">
  <ele>343.1</ele>
  <time>2026-09-01T19:51:36Z</time>
  <course>270.0</course>
  <speed>0.0</speed>
  <fix>3d</fix>
</trkpt>
<trkpt lat="-27.2744391" lon="151.2900641">
  <ele>343.06</ele>
  <time>2026-09-01T19:51:36Z</time>
  <course>10.69</course>
  <speed>0.022360679774997897</speed>
  <fix>3d</fix>
</trkpt>
<trkpt lat="-27.274439" lon="151.290064">
  <ele>343.1</ele>
  <time>2026-09-01T19:51:36Z</time>
  <course>270.0</course>
  <speed>0.0</speed>
  <fix>3d</fix>
</trkpt>
<trkpt lat="-27.2744391" lon="151.2900641">
  <ele>343.06</ele>
  <time>2026-09-01T19:51:36Z</time>
  <course>10.69</course>
  <speed>0.022360679774997897</speed>
  <fix>3d</fix>
</trkpt>
<trkpt lat="-27.274439" lon="151.290064">
  <ele>343.1</ele>
  <time>2026-09-01T19:51:36Z</time>
  <course>270.0</course>
  <speed>0.0</speed>
  <fix>3d</fix>
</trkpt>
<trkpt lat="-27.2744391" lon="151.2900641">
  <ele>343.06</ele>
  <time>2026-09-01T19:51:36Z</time>
  <course>10.69</course>
  <speed>0.022360679774997897</speed>
  <fix>3d</fix>
</trkpt>
<trkpt lat="-27.274439" lon="151.290064">
  <ele>343.1</ele>
  <time>2026-09-01T19:51:36Z</time>
  <course>270.0</course>
  <speed>0.0</speed>
  <fix>3d</fix>
</trkpt>
<trkpt lat="-27.2744391" lon="151.2900641">
  <ele>343.06</ele>
  <time>2026-09-01T19:51:36Z</time>
  <course>10.69</course>
  <speed>0.022360679774997897</speed>
  <fix>3d</fix>
</trkpt>
<trkpt lat="-27.274439" lon="151.290064">
  <ele>343.1</ele>
  <time>2026-09-01T19:51:36Z</time>
  <course>270.0</course>
  <speed>0.0</speed>
  <fix>3d</fix>
</trkpt>
<trkpt lat="-27.2744391" lon="151.2900641">
  <ele>343.06</ele>
  <time>2026-09-01T19:51:36Z</time>
  <course>10.69</course>
  <speed>0.022360679774997897</speed>
  <fix>3d</fix>
</trkpt>
<trkpt lat="-27.274439" lon="151.290064">
  <ele>343.1</ele>
  <time>2026-09-01T19:51:36Z</time>
  <course>270.0</course>
  <speed>0.0</speed>
  <fix>3d</fix>
</trkpt>
<trkpt lat="-27.2744391" lon="151.2900641">
  <ele>343.06</ele>
  <time>2026-09-01T19:51:36Z</time>
  <course>10.69</course>
  <speed>0.022360679774997897</speed>
  <fix>3d</fix>
</trkpt>
<trkpt lat="-27.274439" lon="151.290064">
  <ele>343.1</ele>
  <time>2026-09-01T19:51:36Z</time>
  <course>270.0</course>
  <speed>0.0</speed>
  <fix>3d</fix>
</trkpt>
<trkpt lat="-27.2744391" lon="151.2900641">
  <ele>343.06</ele>
  <time>2026-09-01T19:51:36Z</time>
  <course>10.68</course>
  <speed>0.022360679774997897</speed>
  <fix>3d</fix>
</trkpt>
<trkpt lat="-27.274439" lon="151.290064">
  <ele>343.1</ele>
  <time>2026-09-01T19:51:36Z</time>
  <course>270.0</course>
  <speed>0.0</speed>
  <fix>3d</fix>
</trkpt>
<trkpt lat="-27.2744391" lon="151.2900641">
  <ele>343.06</ele>
  <time>2026-09-01T19:51:36Z</time>
  <course>10.68</course>
  <speed>0.022360679774997897</speed>
  <fix>3d</fix>
</trkpt>
<trkpt lat="-27.274439" lon="151.290064">
  <ele>343.1</ele>
  <time>2026-09-01T19:51:36Z</time>
  <course>270.0</course>
  <speed>0.0</speed>
  <fix>3d</fix>
</trkpt>
<trkpt lat="-27.2744391" lon="151.2900641">
  <ele>343.06</ele>
  <time>2026-09-01T19:51:36Z</time>
  <course>10.68</course>
  <speed>0.022360679774997897</speed>
  <fix>3d</fix>
</trkpt>
<trkpt lat="-27.274439" lon="151.290064">
  <ele>343.1</ele>
  <time>2026-09-01T19:51:36Z</time>
  <course>270.0</course>
  <speed>0.0</speed>
  <fix>3d</fix>
</trkpt>
<trkpt lat="-27.2744391" lon="151.2900641">
  <ele>343.05</ele>
  <time>2026-09-01T19:51:36Z</time>
  <course>10.68</course>
  <speed>0.022360679774997897</speed>
  <fix>3d</fix>
</trkpt>
<trkpt lat="-27.274439" lon="151.290064">
  <ele>343.1</ele>
  <time>2026-09-01T19:51:36Z</time>
  <course>270.0</course>
  <speed>0.0</speed>
  <fix>3d</fix>
</trkpt>
<trkpt lat="-27.2744391" lon="151.2900641">
  <ele>343.05</ele>
  <time>2026-09-01T19:51:36Z</time>
  <course>10.68</course>
  <speed>0.022360679774997897</speed>
  <fix>3d</fix>
</trkpt>
<trkpt lat="-27.274439" lon="151.290064">
  <ele>343.1</ele>
  <time>2026-09-01T19:51:36Z</time>
  <course>270.0</course>
  <speed>0.0</speed>
  <fix>3d</fix>
</trkpt>
<trkpt lat="-27.2744391" lon="151.2900641">
  <ele>343.05</ele>
  <time>2026-09-01T19:51:36Z</time>
  <course>10.68</course>
  <speed>0.022360679774997897</speed>
  <fix>3d</fix>
</trkpt>
<trkpt lat="-27.274439" lon="151.290064">
  <ele>343.1</ele>
  <time>2026-09-01T19:51:36Z</time>
  <course>270.0</course>
  <speed>0.0</speed>
  <fix>3d</fix>
</trkpt>
<trkpt lat="-27.2744391" lon="151.2900641">
  <ele>343.04</ele>
  <time>2026-09-01T19:51:36Z</time>
  <course>10.68</course>
  <speed>0.022360679774997897</speed>
  <fix>3d</fix>
</trkpt>
<trkpt lat="-27.274439" lon="151.290064">
  <ele>343.1</ele>
  <time>2026-09-01T19:51:36Z</time>
  <course>270.0</course>
  <speed>0.0</speed>
  <fix>3d</fix>
</trkpt>
<trkpt lat="-27.2744391" lon="151.2900641">
  <ele>343.04</ele>
  <time>2026-09-01T19:51:36Z</time>
  <course>10.68</course>
  <speed>0.022360679774997897</speed>
  <fix>3d</fix>
</trkpt>
<trkpt lat="-27.274439" lon="151.290064">
  <ele>343.1</ele>
  <time>2026-09-01T19:51:36Z</time>
  <course>270.0</course>
  <speed>0.0</speed>
  <fix>3d</fix>
</trkpt>
<trkpt lat="-27.2744391" lon="151.2900641">
  <ele>343.04</ele>
  <time>2026-09-01T19:51:36Z</time>
  <course>10.68</course>
  <speed>0.022360679774997897</speed>
  <fix>3d</fix>
</trkpt>
<trkpt lat="-27.274439" lon="151.290064">
  <ele>343.1</ele>
  <time>2026-09-01T19:51:36Z</time>
  <course>270.0</course>
  <speed>0.0</speed>
  <fix>3d</fix>
</trkpt>
<trkpt lat="-27.2744391" lon="151.2900641">
  <ele>343.04</ele>
  <time>2026-09-01T19:51:36Z</time>
  <course>10.68</course>
  <speed>0.022360679774997897</speed>
  <fix>3d</fix>
</trkpt>
<trkpt lat="-27.274439" lon="151.290064">
  <ele>343.1</ele>
  <time>2026-09-01T19:51:36Z</time>
  <course>270.0</course>
  <speed>0.0</speed>
  <fix>3d</fix>
</trkpt>
<trkpt lat="-27.2744391" lon="151.2900641">
  <ele>343.03</ele>
  <time>2026-09-01T19:51:36Z</time>
  <course>10.68</course>
  <speed>0.022360679774997897</speed>
  <fix>3d</fix>
</trkpt>
<trkpt lat="-27.274439" lon="151.290064">
  <ele>343.1</ele>
  <time>2026-09-01T19:51:36Z</time>
  <course>270.0</course>
  <speed>0.0</speed>
  <fix>3d</fix>
</trkpt>
<trkpt lat="-27.2744391" lon="151.2900641">
  <ele>343.03</ele>
  <time>2026-09-01T19:51:36Z</time>
  <course>10.68</course>
  <speed>0.022360679774997897</speed>
  <fix>3d</fix>
</trkpt>
<trkpt lat="-27.274439" lon="151.290064">
  <ele>343.1</ele>
  <time>2026-09-01T19:51:36Z</time>
  <course>270.0</course>
  <speed>0.0</speed>
  <fix>3d</fix>
</trkpt>
<trkpt lat="-27.2744391" lon="151.2900641">
  <ele>343.03</ele>
  <time>2026-09-01T19:51:36Z</time>
  <course>10.68</course>
  <speed>0.022360679774997897</speed>
  <fix>3d</fix>
</trkpt>
<trkpt lat="-27.274439" lon="151.290064">
  <ele>343.1</ele>
  <time>2026-09-01T19:51:36Z</time>
  <course>270.0</course>
  <speed>0.0</speed>
  <fix>3d</fix>
</trkpt>
<trkpt lat="-27.2744391" lon="151.2900641">
  <ele>343.03</ele>
  <time>2026-09-01T19:51:36Z</time>
  <course>10.68</course>
  <speed>0.022360679774997897</speed>
  <fix>3d</fix>
</trkpt>
<trkpt lat="-27.274439" lon="151.290064">
  <ele>343.1</ele>
  <time>2026-09-01T19:51:36Z</time>
  <course>270.0</course>
  <speed>0.0</speed>
  <fix>3d</fix>
</trkpt>
<trkpt lat="-27.2744391" lon="151.2900641">
  <ele>343.03</ele>
  <time>2026-09-01T19:51:36Z</time>
  <course>10.68</course>
  <speed>0.022360679774997897</speed>
  <fix>3d</fix>
</trkpt>
<trkpt lat="-27.274439" lon="151.290064">
  <ele>343.1</ele>
  <time>2026-09-01T19:51:36Z</time>
  <course>270.0</course>
  <speed>0.0</speed>
  <fix>3d</fix>
</trkpt>
<trkpt lat="-27.2744391" lon="151.2900641">
  <ele>343.03</ele>
  <time>2026-09-01T19:51:36Z</time>
  <course>10.68</course>
  <speed>0.022360679774997897</speed>
  <fix>3d</fix>
</trkpt>
<trkpt lat="-27.274439" lon="151.290064">
  <ele>343.1</ele>
  <time>2026-09-01T19:51:36Z</time>
  <course>270.0</course>
  <speed>0.0</speed>
  <fix>3d</fix>
</trkpt>
<trkpt lat="-27.2744391" lon="151.2900641">
  <ele>343.03</ele>
  <time>2026-09-01T19:51:36Z</time>
  <course>10.68</course>
  <speed>0.022360679774997897</speed>
  <fix>3d</fix>
</trkpt>
<trkpt lat="-27.274439" lon="151.290064">
  <ele>343.1</ele>
  <time>2026-09-01T19:51:36Z</time>
  <course>270.0</course>
  <speed>0.0</speed>
  <fix>3d</fix>
</trkpt>
<trkpt lat="-27.2744391" lon="151.2900641">
  <ele>343.03</ele>
  <time>2026-09-01T19:51:36Z</time>
  <course>10.68</course>
  <speed>0.022360679774997897</speed>
  <fix>3d</fix>
</trkpt>
<trkpt lat="-27.274439" lon="151.290064">
  <ele>343.1</ele>
  <time>2026-09-01T19:51:36Z</time>
  <course>270.0</course>
  <speed>0.0</speed>
  <fix>3d</fix>
</trkpt>
<trkpt lat="-27.2744391" lon="151.2900641">
  <ele>343.03</ele>
  <time>2026-09-01T19:51:36Z</time>
  <course>10.68</course>
  <speed>0.022360679774997897</speed>
  <fix>3d</fix>
</trkpt>
<trkpt lat="-27.274439" lon="151.290064">
  <ele>343.1</ele>
  <time>2026-09-01T19:51:36Z</time>
  <course>270.0</course>
  <speed>0.0</speed>
  <fix>3d</fix>
</trkpt>
<trkpt lat="-27.2744391" lon="151.2900641">
  <ele>343.03</ele>
  <time>2026-09-01T19:51:36Z</time>
  <course>10.68</course>
  <speed>0.022360679774997897</speed>
  <fix>3d</fix>
</trkpt>
<trkpt lat="-27.274439" lon="151.290064">
  <ele>343.1</ele>
  <time>2026-09-01T19:51:36Z</time>
  <course>270.0</course>
  <speed>0.0</speed>
  <fix>3d</fix>
</trkpt>
<trkpt lat="-27.2744391" lon="151.2900641">
  <ele>343.03</ele>
  <time>2026-09-01T19:51:36Z</time>
  <course>10.68</course>
  <speed>0.022360679774997897</speed>
  <fix>3d</fix>
</trkpt>
<trkpt lat="-27.274439" lon="151.290064">
  <ele>343.1</ele>
  <time>2026-09-01T19:51:36Z</time>
  <course>270.0</course>
  <speed>0.0</speed>
  <fix>3d</fix>
</trkpt>
<trkpt lat="-27.2744391" lon="151.2900641">
  <ele>343.03</ele>
  <time>2026-09-01T19:51:36Z</time>
  <course>10.68</course>
  <speed>0.022360679774997897</speed>
  <fix>3d</fix>
</trkpt>
<trkpt lat="-27.274439" lon="151.290064">
  <ele>343.1</ele>
  <time>2026-09-01T19:51:36Z</time>
  <course>270.0</course>
  <speed>0.0</speed>
  <fix>3d</fix>
</trkpt>
<trkpt lat="-27.2744391" lon="151.2900641">
  <ele>343.03</ele>
  <time>2026-09-01T19:51:36Z</time>
  <course>10.68</course>
  <speed>0.022360679774997897</speed>
  <fix>3d</fix>
</trkpt>
<trkpt lat="-27.274439" lon="151.290064">
  <ele>343.1</ele>
  <time>2026-09-01T19:51:36Z</time>
  <course>270.0</course>
  <speed>0.0</speed>
  <fix>3d</fix>
</trkpt>
<trkpt lat="-27.2744391" lon="151.2900641">
  <ele>343.03</ele>
  <time>2026-09-01T19:51:36Z</time>
  <course>10.68</course>
  <speed>0.022360679774997897</speed>
  <fix>3d</fix>
</trkpt>
<trkpt lat="-27.274439" lon="151.290064">
  <ele>343.1</ele>
  <time>2026-09-01T19:51:36Z</time>
  <course>270.0</course>
  <speed>0.0</speed>
  <fix>3d</fix>
</trkpt>
<trkpt lat="-27.2744391" lon="151.2900641">
  <ele>343.09</ele>
  <time>2026-09-01T19:51:36Z</time>
  <course>10.68</course>
  <speed>0.022360679774997897</speed>
  <fix>3d</fix>
</trkpt>
<trkpt lat="-27.274439" lon="151.290064">
  <ele>343.1</ele>
  <time>2026-09-01T19:51:36Z</time>
  <course>270.0</course>
  <speed>0.0</speed>
  <fix>3d</fix>
</trkpt>
<trkpt lat="-27.2744392" lon="151.2900641">
  <ele>343.09</ele>
  <time>2026-09-01T19:51:36Z</time>
  <course>10.68</course>
  <speed>0.022360679774997897</speed>
  <fix>3d</fix>
</trkpt>
<trkpt lat="-27.274439" lon="151.290064">
  <ele>343.1</ele>
  <time>2026-09-01T19:51:36Z</time>
  <course>270.0</course>
  <speed>0.0</speed>
  <fix>3d</fix>
</trkpt>
<trkpt lat="-27.2744391" lon="151.2900641">
  <ele>343.09</ele>
  <time>2026-09-01T19:51:36Z</time>
  <course>10.68</course>
  <speed>0.022360679774997897</speed>
  <fix>3d</fix>
</trkpt>
<trkpt lat="-27.274439" lon="151.290064">
  <ele>343.1</ele>
  <time>2026-09-01T19:51:36Z</time>
  <course>270.0</course>
  <speed>0.0</speed>
  <fix>3d</fix>
</trkpt>
<trkpt lat="-27.2744392" lon="151.2900641">
  <ele>343.09</ele>
  <time>2026-09-01T19:51:36Z</time>
  <course>10.68</course>
  <speed>0.022360679774997897</speed>
  <fix>3d</fix>
</trkpt>
<trkpt lat="-27.274439" lon="151.290064">
  <ele>343.1</ele>
  <time>2026-09-01T19:51:36Z</time>
  <course>270.0</course>
  <speed>0.0</speed>
  <fix>3d</fix>
</trkpt>
<trkpt lat="-27.2744391" lon="151.2900641">
  <ele>343.1</ele>
  <time>2026-09-01T19:51:36Z</time>
  <course>10.68</course>
  <speed>0.022360679774997897</speed>
  <fix>3d</fix>
</trkpt>
<trkpt lat="-27.274439" lon="151.290064">
  <ele>343.1</ele>
  <time>2026-09-01T19:51:36Z</time>
  <course>270.0</course>
  <speed>0.0</speed>
  <fix>3d</fix>
</trkpt>
<trkpt lat="-27.2744392" lon="151.2900641">
  <ele>343.1</ele>
  <time>2026-09-01T19:51:36Z</time>
  <course>10.68</course>
  <speed>0.022360679774997897</speed>
  <fix>3d</fix>
</trkpt>
<trkpt lat="-27.274439" lon="151.290064">
  <ele>343.1</ele>
  <time>2026-09-01T19:51:36Z</time>
  <course>270.0</course>
  <speed>0.0</speed>
  <fix>3d</fix>
</trkpt>
<trkpt lat="-27.2744391" lon="151.2900641">
  <ele>343.1</ele>
  <time>2026-09-01T19:51:36Z</time>
  <course>10.68</course>
  <speed>0.022360679774997897</speed>
  <fix>3d</fix>
</trkpt>
<trkpt lat="-27.274439" lon="151.290064">
  <ele>343.1</ele>
  <time>2026-09-01T19:51:36Z</time>
  <course>270.0</course>
  <speed>0.0</speed>
  <fix>3d</fix>
</trkpt>
<trkpt lat="-27.2744392" lon="151.2900641">
  <ele>343.1</ele>
  <time>2026-09-01T19:51:36Z</time>
  <course>10.68</course>
  <speed>0.022360679774997897</speed>
  <fix>3d</fix>
</trkpt>
<trkpt lat="-27.274439" lon="151.290064">
  <ele>343.1</ele>
  <time>2026-09-01T19:51:36Z</time>
  <course>270.0</course>
  <speed>0.0</speed>
  <fix>3d</fix>
</trkpt>
<trkpt lat="-27.2744391" lon="151.2900641">
  <ele>343.1</ele>
  <time>2026-09-01T19:51:36Z</time>
  <course>10.68</course>
  <speed>0.022360679774997897</speed>
  <fix>3d</fix>
</trkpt>
<trkpt lat="-27.274439" lon="151.290064">
  <ele>343.1</ele>
  <time>2026-09-01T19:51:36Z</time>
  <course>270.0</course>
  <speed>0.0</speed>
  <fix>3d</fix>
</trkpt>
<trkpt lat="-27.2744392" lon="151.2900641">
  <ele>343.1</ele>
  <time>2026-09-01T19:51:36Z</time>
  <course>10.68</course>
  <speed>0.022360679774997897</speed>
  <fix>3d</fix>
</trkpt>
<trkpt lat="-27.274439" lon="151.290064">
  <ele>343.1</ele>
  <time>2026-09-01T19:51:36Z</time>
  <course>270.0</course>
  <speed>0.0</speed>
  <fix>3d</fix>
</trkpt>
<trkpt lat="-27.2744392" lon="151.2900641">
  <ele>343.1</ele>
  <time>2026-09-01T19:51:36Z</time>
  <course>10.68</course>
  <speed>0.022360679774997897</speed>
  <fix>3d</fix>
</trkpt>
<trkpt lat="-27.274439" lon="151.290064">
  <ele>343.1</ele>
  <time>2026-09-01T19:51:36Z</time>
  <course>270.0</course>
  <speed>0.0</speed>
  <fix>3d</fix>
</trkpt>
<trkpt lat="-27.2744392" lon="151.2900641">
  <ele>343.1</ele>
  <time>2026-09-01T19:51:36Z</time>
  <course>10.68</course>
  <speed>0.022360679774997897</speed>
  <fix>3d</fix>
</trkpt>
<trkpt lat="-27.274439" lon="151.290064">
  <ele>343.1</ele>
  <time>2026-09-01T19:51:36Z</time>
  <course>270.0</course>
  <speed>0.0</speed>
  <fix>3d</fix>
</trkpt>
<trkpt lat="-27.2744392" lon="151.2900641">
  <ele>343.1</ele>
  <time>2026-09-01T19:51:36Z</time>
  <course>10.68</course>
  <speed>0.022360679774997897</speed>
  <fix>3d</fix>
</trkpt>
<trkpt lat="-27.274439" lon="151.290064">
  <ele>343.1</ele>
  <time>2026-09-01T19:51:36Z</time>
  <course>270.0</course>
  <speed>0.0</speed>
  <fix>3d</fix>
</trkpt>
<trkpt lat="-27.2744392" lon="151.2900641">
  <ele>343.1</ele>
  <time>2026-09-01T19:51:36Z</time>
  <course>10.68</course>
  <speed>0.022360679774997897</speed>
  <fix>3d</fix>
</trkpt>
<trkpt lat="-27.274439" lon="151.290064">
  <ele>343.1</ele>
  <time>2026-09-01T19:51:36Z</time>
  <course>270.0</course>
  <speed>0.0</speed>
  <fix>3d</fix>
</trkpt>
<trkpt lat="-27.2744392" lon="151.2900641">
  <ele>343.1</ele>
  <time>2026-09-01T19:51:36Z</time>
  <course>10.68</course>
  <speed>0.022360679774997897</speed>
  <fix>3d</fix>
</trkpt>
<trkpt lat="-27.274439" lon="151.290064">
  <ele>343.1</ele>
  <time>2026-09-01T19:51:36Z</time>
  <course>270.0</course>
  <speed>0.0</speed>
  <fix>3d</fix>
</trkpt>
<trkpt lat="-27.2744392" lon="151.2900641">
  <ele>343.1</ele>
  <time>2026-09-01T19:51:36Z</time>
  <course>10.68</course>
  <speed>0.022360679774997897</speed>
  <fix>3d</fix>
</trkpt>
<trkpt lat="-27.274439" lon="151.290064">
  <ele>343.1</ele>
  <time>2026-09-01T19:51:36Z</time>
  <course>270.0</course>
  <speed>0.0</speed>
  <fix>3d</fix>
</trkpt>
<trkpt lat="-27.2744392" lon="151.2900641">
  <ele>343.1</ele>
  <time>2026-09-01T19:51:36Z</time>
  <course>10.68</course>
  <speed>0.022360679774997897</speed>
  <fix>3d</fix>
</trkpt>
<trkpt lat="-27.274439" lon="151.290064">
  <ele>343.1</ele>
  <time>2026-09-01T19:51:36Z</time>
  <course>270.0</course>
  <speed>0.0</speed>
  <fix>3d</fix>
</trkpt>
<trkpt lat="-27.2744392" lon="151.2900641">
  <ele>343.1</ele>
  <time>2026-09-01T19:51:36Z</time>
  <course>10.68</course>
  <speed>0.022360679774997897</speed>
  <fix>3d</fix>
</trkpt>
<trkpt lat="-27.274439" lon="151.290064">
  <ele>343.1</ele>
  <time>2026-09-01T19:51:36Z</time>
  <course>270.0</course>
  <speed>0.0</speed>
  <fix>3d</fix>
</trkpt>
<trkpt lat="-27.2744392" lon="151.2900641">
  <ele>343.1</ele>
  <time>2026-09-01T19:51:36Z</time>
  <course>10.68</course>
  <speed>0.022360679774997897</speed>
  <fix>3d</fix>
</trkpt>
<trkpt lat="-27.274439" lon="151.290064">
  <ele>343.1</ele>
  <time>2026-09-01T19:51:36Z</time>
  <course>270.0</course>
  <speed>0.0</speed>
  <fix>3d</fix>
</trkpt>
<trkpt lat="-27.2744392" lon="151.2900641">
  <ele>343.1</ele>
  <time>2026-09-01T19:51:36Z</time>
  <course>10.68</course>
  <speed>0.022360679774997897</speed>
  <fix>3d</fix>
</trkpt>
<trkpt lat="-27.274439" lon="151.290064">
  <ele>343.1</ele>
  <time>2026-09-01T19:51:36Z</time>
  <course>270.0</course>
  <speed>0.0</speed>
  <fix>3d</fix>
</trkpt>
<trkpt lat="-27.2744392" lon="151.2900641">
  <ele>343.1</ele>
  <time>2026-09-01T19:51:36Z</time>
  <course>10.68</course>
  <speed>0.022360679774997897</speed>
  <fix>3d</fix>
</trkpt>
<trkpt lat="-27.274439" lon="151.290064">
  <ele>343.1</ele>
  <time>2026-09-01T19:51:36Z</time>
  <course>270.0</course>
  <speed>0.0</speed>
  <fix>3d</fix>
</trkpt>
<trkpt lat="-27.2744392" lon="151.2900641">
  <ele>343.11</ele>
  <time>2026-09-01T19:51:36Z</time>
  <course>10.68</course>
  <speed>0.022360679774997897</speed>
  <fix>3d</fix>
</trkpt>
<trkpt lat="-27.274439" lon="151.290064">
  <ele>343.1</ele>
  <time>2026-09-01T19:51:36Z</time>
  <course>270.0</course>
  <speed>0.0</speed>
  <fix>3d</fix>
</trkpt>
<trkpt lat="-27.2744392" lon="151.2900641">
  <ele>343.11</ele>
  <time>2026-09-01T19:51:36Z</time>
  <course>10.68</course>
  <speed>0.022360679774997897</speed>
  <fix>3d</fix>
</trkpt>
<trkpt lat="-27.274439" lon="151.290064">
  <ele>343.1</ele>
  <time>2026-09-01T19:51:36Z</time>
  <course>270.0</course>
  <speed>0.0</speed>
  <fix>3d</fix>
</trkpt>
<trkpt lat="-27.2744392" lon="151.2900641">
  <ele>343.11</ele>
  <time>2026-09-01T19:51:36Z</time>
  <course>10.68</course>
  <speed>0.022360679774997897</speed>
  <fix>3d</fix>
</trkpt>
<trkpt lat="-27.274439" lon="151.290064">
  <ele>343.1</ele>
  <time>2026-09-01T19:51:36Z</time>
  <course>270.0</course>
  <speed>0.0</speed>
  <fix>3d</fix>
</trkpt>
<trkpt lat="-27.2744392" lon="151.2900641">
  <ele>343.11</ele>
  <time>2026-09-01T19:51:36Z</time>
  <course>10.68</course>
  <speed>0.022360679774997897</speed>
  <fix>3d</fix>
</trkpt>
<trkpt lat="-27.274439" lon="151.290064">
  <ele>343.1</ele>
  <time>2026-09-01T19:51:36Z</time>
  <course>270.0</course>
  <speed>0.0</speed>
  <fix>3d</fix>
</trkpt>
<trkpt lat="-27.2744392" lon="151.2900641">
  <ele>343.11</ele>
  <time>2026-09-01T19:51:36Z</time>
  <course>10.68</course>
  <speed>0.022360679774997897</speed>
  <fix>3d</fix>
</trkpt>
<trkpt lat="-27.274439" lon="151.290064">
  <ele>343.1</ele>
  <time>2026-09-01T19:51:36Z</time>
  <course>270.0</course>
  <speed>0.0</speed>
  <fix>3d</fix>
</trkpt>
<trkpt lat="-27.2744392" lon="151.2900641">
  <ele>343.11</ele>
  <time>2026-09-01T19:51:36Z</time>
  <course>10.69</course>
  <speed>0.022360679774997897</speed>
  <fix>3d</fix>
</trkpt>
<trkpt lat="-27.274439" lon="151.290064">
  <ele>343.1</ele>
  <time>2026-09-01T19:51:36Z</time>
  <course>270.0</course>
  <speed>0.0</speed>
  <fix>3d</fix>
</trkpt>
<trkpt lat="-27.2744392" lon="151.2900641">
  <ele>343.12</ele>
  <time>2026-09-01T19:51:36Z</time>
  <course>10.69</course>
  <speed>0.022360679774997897</speed>
  <fix>3d</fix>
</trkpt>
<trkpt lat="-27.274439" lon="151.290064">
  <ele>343.1</ele>
  <time>2026-09-01T19:51:36Z</time>
  <course>270.0</course>
  <speed>0.0</speed>
  <fix>3d</fix>
</trkpt>
<trkpt lat="-27.2744392" lon="151.2900641">
  <ele>343.12</ele>
  <time>2026-09-01T19:51:36Z</time>
  <course>10.69</course>
  <speed>0.022360679774997897</speed>
  <fix>3d</fix>
</trkpt>
<trkpt lat="-27.274439" lon="151.290064">
  <ele>343.1</ele>
  <time>2026-09-01T19:51:36Z</time>
  <course>270.0</course>
  <speed>0.0</speed>
  <fix>3d</fix>
</trkpt>
<trkpt lat="-27.2744392" lon="151.2900641">
  <ele>343.12</ele>
  <time>2026-09-01T19:51:36Z</time>
  <course>10.69</course>
  <speed>0.022360679774997897</speed>
  <fix>3d</fix>
</trkpt>
<trkpt lat="-27.274439" lon="151.290064">
  <ele>343.1</ele>
  <time>2026-09-01T19:51:36Z</time>
  <course>270.0</course>
  <speed>0.0</speed>
  <fix>3d</fix>
</trkpt>
<trkpt lat="-27.2744392" lon="151.2900641">
  <ele>343.12</ele>
  <time>2026-09-01T19:51:36Z</time>
  <course>10.69</course>
  <speed>0.022360679774997897</speed>
  <fix>3d</fix>
</trkpt>
<trkpt lat="-27.274439" lon="151.290064">
  <ele>343.1</ele>
  <time>2026-09-01T19:51:36Z</time>
  <course>270.0</course>
  <speed>0.0</speed>
  <fix>3d</fix>
</trkpt>
<trkpt lat="-27.2744392" lon="151.2900641">
  <ele>343.12</ele>
  <time>2026-09-01T19:51:36Z</time>
  <course>10.69</course>
  <speed>0.022360679774997897</speed>
  <fix>3d</fix>
</trkpt>
<trkpt lat="-27.274439" lon="151.290064">
  <ele>343.1</ele>
  <time>2026-09-01T19:51:36Z</time>
  <course>270.0</course>
  <speed>0.0</speed>
  <fix>3d</fix>
</trkpt>
<trkpt lat="-27.2744392" lon="151.2900641">
  <ele>343.12</ele>
  <time>2026-09-01T19:51:36Z</time>
  <course>10.69</course>
  <speed>0.022360679774997897</speed>
  <fix>3d</fix>
</trkpt>
<trkpt lat="-27.274439" lon="151.290064">
  <ele>343.1</ele>
  <time>2026-09-01T19:51:36Z</time>
  <course>270.0</course>
  <speed>0.0</speed>
  <fix>3d</fix>
</trkpt>
<trkpt lat="-27.2744392" lon="151.2900641">
  <ele>343.12</ele>
  <time>2026-09-01T19:51:37Z</time>
  <course>10.69</course>
  <speed>0.022360679774997897</speed>
  <fix>3d</fix>
</trkpt>
<trkpt lat="-27.274439" lon="151.290064">
  <ele>343.1</ele>
  <time>2026-09-01T19:51:37Z</time>
  <course>270.0</course>
  <speed>0.0</speed>
  <fix>3d</fix>
</trkpt>
<trkpt lat="-27.2744392" lon="151.2900641">
  <ele>343.12</ele>
  <time>2026-09-01T19:51:37Z</time>
  <course>10.69</course>
  <speed>0.022360679774997897</speed>
  <fix>3d</fix>
</trkpt>
<trkpt lat="-27.274439" lon="151.290064">
  <ele>343.1</ele>
  <time>2026-09-01T19:51:37Z</time>
  <course>270.0</course>
  <speed>0.0</speed>
  <fix>3d</fix>
</trkpt>
<trkpt lat="-27.2744392" lon="151.2900641">
  <ele>343.12</ele>
  <time>2026-09-01T19:51:37Z</time>
  <course>10.69</course>
  <speed>0.022360679774997897</speed>
  <fix>3d</fix>
</trkpt>
<trkpt lat="-27.274439" lon="151.290064">
  <ele>343.1</ele>
  <time>2026-09-01T19:51:37Z</time>
  <course>270.0</course>
  <speed>0.0</speed>
  <fix>3d</fix>
</trkpt>
<trkpt lat="-27.2744392" lon="151.2900641">
  <ele>343.12</ele>
  <time>2026-09-01T19:51:37Z</time>
  <course>10.69</course>
  <speed>0.022360679774997897</speed>
  <fix>3d</fix>
</trkpt>
<trkpt lat="-27.274439" lon="151.290064">
  <ele>343.1</ele>
  <time>2026-09-01T19:51:37Z</time>
  <course>270.0</course>
  <speed>0.0</speed>
  <fix>3d</fix>
</trkpt>
<trkpt lat="-27.2744392" lon="151.2900641">
  <ele>343.12</ele>
  <time>2026-09-01T19:51:37Z</time>
  <course>10.69</course>
  <speed>0.022360679774997897</speed>
  <fix>3d</fix>
</trkpt>
<trkpt lat="-27.274439" lon="151.290064">
  <ele>343.1</ele>
  <time>2026-09-01T19:51:37Z</time>
  <course>270.0</course>
  <speed>0.0</speed>
  <fix>3d</fix>
</trkpt>
<trkpt lat="-27.2744392" lon="151.2900641">
  <ele>343.12</ele>
  <time>2026-09-01T19:51:37Z</time>
  <course>10.69</course>
  <speed>0.022360679774997897</speed>
  <fix>3d</fix>
</trkpt>
<trkpt lat="-27.274439" lon="151.290064">
  <ele>343.1</ele>
  <time>2026-09-01T19:51:37Z</time>
  <course>270.0</course>
  <speed>0.0</speed>
  <fix>3d</fix>
</trkpt>
<trkpt lat="-27.2744392" lon="151.2900641">
  <ele>343.12</ele>
  <time>2026-09-01T19:51:37Z</time>
  <course>10.69</course>
  <speed>0.022360679774997897</speed>
  <fix>3d</fix>
</trkpt>
<trkpt lat="-27.274439" lon="151.290064">
  <ele>343.1</ele>
  <time>2026-09-01T19:51:37Z</time>
  <course>270.0</course>
  <speed>0.0</speed>
  <fix>3d</fix>
</trkpt>
<trkpt lat="-27.2744392" lon="151.2900641">
  <ele>343.12</ele>
  <time>2026-09-01T19:51:37Z</time>
  <course>10.69</course>
  <speed>0.022360679774997897</speed>
  <fix>3d</fix>
</trkpt>
<trkpt lat="-27.274439" lon="151.290064">
  <ele>343.1</ele>
  <time>2026-09-01T19:51:37Z</time>
  <course>270.0</course>
  <speed>0.0</speed>
  <fix>3d</fix>
</trkpt>
<trkpt lat="-27.2744392" lon="151.2900641">
  <ele>343.12</ele>
  <time>2026-09-01T19:51:37Z</time>
  <course>10.69</course>
  <speed>0.022360679774997897</speed>
  <fix>3d</fix>
</trkpt>
<trkpt lat="-27.274439" lon="151.290064">
  <ele>343.1</ele>
  <time>2026-09-01T19:51:37Z</time>
  <course>270.0</course>
  <speed>0.0</speed>
  <fix>3d</fix>
</trkpt>
<trkpt lat="-27.2744392" lon="151.2900641">
  <ele>343.13</ele>
  <time>2026-09-01T19:51:37Z</time>
  <course>10.69</course>
  <speed>0.022360679774997897</speed>
  <fix>3d</fix>
</trkpt>
<trkpt lat="-27.274439" lon="151.290064">
  <ele>343.1</ele>
  <time>2026-09-01T19:51:37Z</time>
  <course>270.0</course>
  <speed>0.0</speed>
  <fix>3d</fix>
</trkpt>
<trkpt lat="-27.2744392" lon="151.2900641">
  <ele>343.13</ele>
  <time>2026-09-01T19:51:37Z</time>
  <course>10.69</course>
  <speed>0.022360679774997897</speed>
  <fix>3d</fix>
</trkpt>
<trkpt lat="-27.274439" lon="151.290064">
  <ele>343.1</ele>
  <time>2026-09-01T19:51:37Z</time>
  <course>270.0</course>
  <speed>0.0</speed>
  <fix>3d</fix>
</trkpt>
<trkpt lat="-27.2744392" lon="151.2900641">
  <ele>343.13</ele>
  <time>2026-09-01T19:51:37Z</time>
  <course>10.69</course>
  <speed>0.022360679774997897</speed>
  <fix>3d</fix>
</trkpt>
<trkpt lat="-27.274439" lon="151.290064">
  <ele>343.1</ele>
  <time>2026-09-01T19:51:37Z</time>
  <course>270.0</course>
  <speed>0.0</speed>
  <fix>3d</fix>
</trkpt>
<trkpt lat="-27.2744392" lon="151.2900641">
  <ele>343.13</ele>
  <time>2026-09-01T19:51:37Z</time>
  <course>10.69</course>
  <speed>0.022360679774997897</speed>
  <fix>3d</fix>
</trkpt>
<trkpt lat="-27.274439" lon="151.290064">
  <ele>343.1</ele>
  <time>2026-09-01T19:51:37Z</time>
  <course>270.0</course>
  <speed>0.0</speed>
  <fix>3d</fix>
</trkpt>
<trkpt lat="-27.2744392" lon="151.2900641">
  <ele>343.13</ele>
  <time>2026-09-01T19:51:37Z</time>
  <course>10.69</course>
  <speed>0.022360679774997897</speed>
  <fix>3d</fix>
</trkpt>
<trkpt lat="-27.274439" lon="151.290064">
  <ele>343.1</ele>
  <time>2026-09-01T19:51:37Z</time>
  <course>270.0</course>
  <speed>0.0</speed>
  <fix>3d</fix>
</trkpt>
<trkpt lat="-27.2744392" lon="151.2900641">
  <ele>343.13</ele>
  <time>2026-09-01T19:51:37Z</time>
  <course>10.69</course>
  <speed>0.022360679774997897</speed>
  <fix>3d</fix>
</trkpt>
<trkpt lat="-27.274439" lon="151.290064">
  <ele>343.1</ele>
  <time>2026-09-01T19:51:37Z</time>
  <course>270.0</course>
  <speed>0.0</speed>
  <fix>3d</fix>
</trkpt>
<trkpt lat="-27.2744392" lon="151.2900641">
  <ele>343.13</ele>
  <time>2026-09-01T19:51:37Z</time>
  <course>10.69</course>
  <speed>0.022360679774997897</speed>
  <fix>3d</fix>
</trkpt>
<trkpt lat="-27.274439" lon="151.290064">
  <ele>343.1</ele>
  <time>2026-09-01T19:51:37Z</time>
  <course>270.0</course>
  <speed>0.0</speed>
  <fix>3d</fix>
</trkpt>
<trkpt lat="-27.2744392" lon="151.2900641">
  <ele>343.13</ele>
  <time>2026-09-01T19:51:37Z</time>
  <course>10.69</course>
  <speed>0.022360679774997897</speed>
  <fix>3d</fix>
</trkpt>
<trkpt lat="-27.274439" lon="151.290064">
  <ele>343.1</ele>
  <time>2026-09-01T19:51:37Z</time>
  <course>270.0</course>
  <speed>0.0</speed>
  <fix>3d</fix>
</trkpt>
<trkpt lat="-27.2744392" lon="151.2900641">
  <ele>343.13</ele>
  <time>2026-09-01T19:51:37Z</time>
  <course>10.69</course>
  <speed>0.022360679774997897</speed>
  <fix>3d</fix>
</trkpt>
<trkpt lat="-27.274439" lon="151.290064">
  <ele>343.1</ele>
  <time>2026-09-01T19:51:37Z</time>
  <course>270.0</course>
  <speed>0.0</speed>
  <fix>3d</fix>
</trkpt>
<trkpt lat="-27.2744392" lon="151.2900641">
  <ele>343.13</ele>
  <time>2026-09-01T19:51:37Z</time>
  <course>10.69</course>
  <speed>0.022360679774997897</speed>
  <fix>3d</fix>
</trkpt>
<trkpt lat="-27.274439" lon="151.290064">
  <ele>343.1</ele>
  <time>2026-09-01T19:51:37Z</time>
  <course>270.0</course>
  <speed>0.0</speed>
  <fix>3d</fix>
</trkpt>
<trkpt lat="-27.2744392" lon="151.2900641">
  <ele>343.13</ele>
  <time>2026-09-01T19:51:37Z</time>
  <course>10.69</course>
  <speed>0.022360679774997897</speed>
  <fix>3d</fix>
</trkpt>
<trkpt lat="-27.274439" lon="151.290064">
  <ele>343.1</ele>
  <time>2026-09-01T19:51:37Z</time>
  <course>270.0</course>
  <speed>0.0</speed>
  <fix>3d</fix>
</trkpt>
<trkpt lat="-27.2744392" lon="151.2900641">
  <ele>343.13</ele>
  <time>2026-09-01T19:51:37Z</time>
  <course>10.69</course>
  <speed>0.022360679774997897</speed>
  <fix>3d</fix>
</trkpt>
<trkpt lat="-27.274439" lon="151.290064">
  <ele>343.1</ele>
  <time>2026-09-01T19:51:37Z</time>
  <course>270.0</course>
  <speed>0.0</speed>
  <fix>3d</fix>
</trkpt>
<trkpt lat="-27.2744392" lon="151.2900641">
  <ele>343.13</ele>
  <time>2026-09-01T19:51:37Z</time>
  <course>10.69</course>
  <speed>0.022360679774997897</speed>
  <fix>3d</fix>
</trkpt>
<trkpt lat="-27.274439" lon="151.290064">
  <ele>343.1</ele>
  <time>2026-09-01T19:51:37Z</time>
  <course>270.0</course>
  <speed>0.0</speed>
  <fix>3d</fix>
</trkpt>
<trkpt lat="-27.2744392" lon="151.2900641">
  <ele>343.13</ele>
  <time>2026-09-01T19:51:37Z</time>
  <course>10.69</course>
  <speed>0.022360679774997897</speed>
  <fix>3d</fix>
</trkpt>
<trkpt lat="-27.274439" lon="151.290064">
  <ele>343.1</ele>
  <time>2026-09-01T19:51:37Z</time>
  <course>270.0</course>
  <speed>0.0</speed>
  <fix>3d</fix>
</trkpt>
<trkpt lat="-27.2744392" lon="151.2900641">
  <ele>343.13</ele>
  <time>2026-09-01T19:51:37Z</time>
  <course>10.69</course>
  <speed>0.022360679774997897</speed>
  <fix>3d</fix>
</trkpt>
<trkpt lat="-27.274439" lon="151.290064">
  <ele>343.1</ele>
  <time>2026-09-01T19:51:37Z</time>
  <course>270.0</course>
  <speed>0.0</speed>
  <fix>3d</fix>
</trkpt>
<trkpt lat="-27.2744392" lon="151.2900641">
  <ele>343.14</ele>
  <time>2026-09-01T19:51:37Z</time>
  <course>10.69</course>
  <speed>0.022360679774997897</speed>
  <fix>3d</fix>
</trkpt>
<trkpt lat="-27.274439" lon="151.290064">
  <ele>343.1</ele>
  <time>2026-09-01T19:51:37Z</time>
  <course>270.0</course>
  <speed>0.0</speed>
  <fix>3d</fix>
</trkpt>
<trkpt lat="-27.2744392" lon="151.2900641">
  <ele>343.14</ele>
  <time>2026-09-01T19:51:37Z</time>
  <course>10.69</course>
  <speed>0.022360679774997897</speed>
  <fix>3d</fix>
</trkpt>
<trkpt lat="-27.274439" lon="151.290064">
  <ele>343.1</ele>
  <time>2026-09-01T19:51:37Z</time>
  <course>270.0</course>
  <speed>0.0</speed>
  <fix>3d</fix>
</trkpt>
<trkpt lat="-27.2744392" lon="151.2900641">
  <ele>343.14</ele>
  <time>2026-09-01T19:51:37Z</time>
  <course>10.69</course>
  <speed>0.022360679774997897</speed>
  <fix>3d</fix>
</trkpt>
<trkpt lat="-27.274439" lon="151.290064">
  <ele>343.1</ele>
  <time>2026-09-01T19:51:37Z</time>
  <course>270.0</course>
  <speed>0.0</speed>
  <fix>3d</fix>
</trkpt>
<trkpt lat="-27.2744392" lon="151.2900641">
  <ele>343.1</ele>
  <time>2026-09-01T19:51:37Z</time>
  <course>10.69</course>
  <speed>0.022360679774997897</speed>
  <fix>3d</fix>
</trkpt>
<trkpt lat="-27.274439" lon="151.290064">
  <ele>343.1</ele>
  <time>2026-09-01T19:51:37Z</time>
  <course>270.0</course>
  <speed>0.0</speed>
  <fix>3d</fix>
</trkpt>
<trkpt lat="-27.2744392" lon="151.2900641">
  <ele>343.1</ele>
  <time>2026-09-01T19:51:37Z</time>
  <course>10.69</course>
  <speed>0.022360679774997897</speed>
  <fix>3d</fix>
</trkpt>
<trkpt lat="-27.274439" lon="151.290064">
  <ele>343.1</ele>
  <time>2026-09-01T19:51:37Z</time>
  <course>270.0</course>
  <speed>0.0</speed>
  <fix>3d</fix>
</trkpt>
<trkpt lat="-27.2744392" lon="151.2900641">
  <ele>343.09</ele>
  <time>2026-09-01T19:51:37Z</time>
  <course>10.69</course>
  <speed>0.022360679774997897</speed>
  <fix>3d</fix>
</trkpt>
<trkpt lat="-27.274439" lon="151.290064">
  <ele>343.1</ele>
  <time>2026-09-01T19:51:37Z</time>
  <course>270.0</course>
  <speed>0.0</speed>
  <fix>3d</fix>
</trkpt>
<trkpt lat="-27.2744392" lon="151.2900641">
  <ele>343.09</ele>
  <time>2026-09-01T19:51:37Z</time>
  <course>10.69</course>
  <speed>0.022360679774997897</speed>
  <fix>3d</fix>
</trkpt>
<trkpt lat="-27.274439" lon="151.290064">
  <ele>343.1</ele>
  <time>2026-09-01T19:51:37Z</time>
  <course>270.0</course>
  <speed>0.0</speed>
  <fix>3d</fix>
</trkpt>
<trkpt lat="-27.2744392" lon="151.2900641">
  <ele>343.09</ele>
  <time>2026-09-01T19:51:37Z</time>
  <course>10.69</course>
  <speed>0.022360679774997897</speed>
  <fix>3d</fix>
</trkpt>
<trkpt lat="-27.274439" lon="151.290064">
  <ele>343.1</ele>
  <time>2026-09-01T19:51:37Z</time>
  <course>270.0</course>
  <speed>0.0</speed>
  <fix>3d</fix>
</trkpt>
<trkpt lat="-27.2744392" lon="151.2900641">
  <ele>343.09</ele>
  <time>2026-09-01T19:51:37Z</time>
  <course>10.69</course>
  <speed>0.022360679774997897</speed>
  <fix>3d</fix>
</trkpt>
<trkpt lat="-27.274439" lon="151.290064">
  <ele>343.1</ele>
  <time>2026-09-01T19:51:37Z</time>
  <course>270.0</course>
  <speed>0.0</speed>
  <fix>3d</fix>
</trkpt>
<trkpt lat="-27.2744392" lon="151.2900641">
  <ele>343.09</ele>
  <time>2026-09-01T19:51:37Z</time>
  <course>10.69</course>
  <speed>0.022360679774997897</speed>
  <fix>3d</fix>
</trkpt>
<trkpt lat="-27.274439" lon="151.290064">
  <ele>343.1</ele>
  <time>2026-09-01T19:51:37Z</time>
  <course>270.0</course>
  <speed>0.0</speed>
  <fix>3d</fix>
</trkpt>
<trkpt lat="-27.2744392" lon="151.2900641">
  <ele>343.09</ele>
  <time>2026-09-01T19:51:37Z</time>
  <course>10.69</course>
  <speed>0.022360679774997897</speed>
  <fix>3d</fix>
</trkpt>
<trkpt lat="-27.274439" lon="151.290064">
  <ele>343.1</ele>
  <time>2026-09-01T19:51:37Z</time>
  <course>270.0</course>
  <speed>0.0</speed>
  <fix>3d</fix>
</trkpt>
<trkpt lat="-27.2744392" lon="151.2900641">
  <ele>343.09</ele>
  <time>2026-09-01T19:51:37Z</time>
  <course>10.69</course>
  <speed>0.022360679774997897</speed>
  <fix>3d</fix>
</trkpt>
<trkpt lat="-27.274439" lon="151.290064">
  <ele>343.1</ele>
  <time>2026-09-01T19:51:37Z</time>
  <course>270.0</course>
  <speed>0.0</speed>
  <fix>3d</fix>
</trkpt>
<trkpt lat="-27.2744392" lon="151.2900641">
  <ele>343.09</ele>
  <time>2026-09-01T19:51:37Z</time>
  <course>10.7</course>
  <speed>0.022360679774997897</speed>
  <fix>3d</fix>
</trkpt>
<trkpt lat="-27.274439" lon="151.290064">
  <ele>343.1</ele>
  <time>2026-09-01T19:51:37Z</time>
  <course>270.0</course>
  <speed>0.0</speed>
  <fix>3d</fix>
</trkpt>
<trkpt lat="-27.2744392" lon="151.2900641">
  <ele>343.09</ele>
  <time>2026-09-01T19:51:37Z</time>
  <course>10.7</course>
  <speed>0.022360679774997897</speed>
  <fix>3d</fix>
</trkpt>
<trkpt lat="-27.274439" lon="151.290064">
  <ele>343.1</ele>
  <time>2026-09-01T19:51:37Z</time>
  <course>270.0</course>
  <speed>0.0</speed>
  <fix>3d</fix>
</trkpt>
<trkpt lat="-27.2744392" lon="151.2900641">
  <ele>343.08</ele>
  <time>2026-09-01T19:51:37Z</time>
  <course>10.7</course>
  <speed>0.022360679774997897</speed>
  <fix>3d</fix>
</trkpt>
<trkpt lat="-27.274439" lon="151.290064">
  <ele>343.1</ele>
  <time>2026-09-01T19:51:37Z</time>
  <course>270.0</course>
  <speed>0.0</speed>
  <fix>3d</fix>
</trkpt>
<trkpt lat="-27.2744392" lon="151.2900641">
  <ele>343.08</ele>
  <time>2026-09-01T19:51:37Z</time>
  <course>10.7</course>
  <speed>0.022360679774997897</speed>
  <fix>3d</fix>
</trkpt>
<trkpt lat="-27.274439" lon="151.290064">
  <ele>343.1</ele>
  <time>2026-09-01T19:51:37Z</time>
  <course>270.0</course>
  <speed>0.0</speed>
  <fix>3d</fix>
</trkpt>
<trkpt lat="-27.2744392" lon="151.2900641">
  <ele>343.08</ele>
  <time>2026-09-01T19:51:37Z</time>
  <course>10.7</course>
  <speed>0.022360679774997897</speed>
  <fix>3d</fix>
</trkpt>
<trkpt lat="-27.274439" lon="151.290064">
  <ele>343.1</ele>
  <time>2026-09-01T19:51:37Z</time>
  <course>270.0</course>
  <speed>0.0</speed>
  <fix>3d</fix>
</trkpt>
<trkpt lat="-27.2744392" lon="151.2900641">
  <ele>343.07</ele>
  <time>2026-09-01T19:51:37Z</time>
  <course>10.7</course>
  <speed>0.022360679774997897</speed>
  <fix>3d</fix>
</trkpt>
<trkpt lat="-27.274439" lon="151.290064">
  <ele>343.1</ele>
  <time>2026-09-01T19:51:37Z</time>
  <course>270.0</course>
  <speed>0.0</speed>
  <fix>3d</fix>
</trkpt>
<trkpt lat="-27.2744392" lon="151.2900641">
  <ele>343.07</ele>
  <time>2026-09-01T19:51:37Z</time>
  <course>10.7</course>
  <speed>0.022360679774997897</speed>
  <fix>3d</fix>
</trkpt>
<trkpt lat="-27.274439" lon="151.290064">
  <ele>343.1</ele>
  <time>2026-09-01T19:51:37Z</time>
  <course>270.0</course>
  <speed>0.0</speed>
  <fix>3d</fix>
</trkpt>
<trkpt lat="-27.2744392" lon="151.2900641">
  <ele>343.07</ele>
  <time>2026-09-01T19:51:37Z</time>
  <course>10.7</course>
  <speed>0.022360679774997897</speed>
  <fix>3d</fix>
</trkpt>
<trkpt lat="-27.274439" lon="151.290064">
  <ele>343.1</ele>
  <time>2026-09-01T19:51:37Z</time>
  <course>270.0</course>
  <speed>0.0</speed>
  <fix>3d</fix>
</trkpt>
<trkpt lat="-27.2744392" lon="151.2900641">
  <ele>343.07</ele>
  <time>2026-09-01T19:51:37Z</time>
  <course>10.7</course>
  <speed>0.022360679774997897</speed>
  <fix>3d</fix>
</trkpt>
<trkpt lat="-27.274439" lon="151.290064">
  <ele>343.1</ele>
  <time>2026-09-01T19:51:37Z</time>
  <course>270.0</course>
  <speed>0.0</speed>
  <fix>3d</fix>
</trkpt>
<trkpt lat="-27.2744392" lon="151.2900641">
  <ele>343.07</ele>
  <time>2026-09-01T19:51:37Z</time>
  <course>10.7</course>
  <speed>0.022360679774997897</speed>
  <fix>3d</fix>
</trkpt>
<trkpt lat="-27.274439" lon="151.290064">
  <ele>343.1</ele>
  <time>2026-09-01T19:51:37Z</time>
  <course>270.0</course>
  <speed>0.0</speed>
  <fix>3d</fix>
</trkpt>
<trkpt lat="-27.2744392" lon="151.2900641">
  <ele>343.07</ele>
  <time>2026-09-01T19:51:37Z</time>
  <course>10.7</course>
  <speed>0.022360679774997897</speed>
  <fix>3d</fix>
</trkpt>
<trkpt lat="-27.274439" lon="151.290064">
  <ele>343.1</ele>
  <time>2026-09-01T19:51:37Z</time>
  <course>270.0</course>
  <speed>0.0</speed>
  <fix>3d</fix>
</trkpt>
<trkpt lat="-27.2744392" lon="151.2900641">
  <ele>343.08</ele>
  <time>2026-09-01T19:51:37Z</time>
  <course>10.7</course>
  <speed>0.022360679774997897</speed>
  <fix>3d</fix>
</trkpt>
<trkpt lat="-27.274439" lon="151.290064">
  <ele>343.1</ele>
  <time>2026-09-01T19:51:37Z</time>
  <course>270.0</course>
  <speed>0.0</speed>
  <fix>3d</fix>
</trkpt>
<trkpt lat="-27.2744392" lon="151.2900641">
  <ele>343.08</ele>
  <time>2026-09-01T19:51:37Z</time>
  <course>10.7</course>
  <speed>0.022360679774997897</speed>
  <fix>3d</fix>
</trkpt>
<trkpt lat="-27.274439" lon="151.290064">
  <ele>343.1</ele>
  <time>2026-09-01T19:51:37Z</time>
  <course>270.0</course>
  <speed>0.0</speed>
  <fix>3d</fix>
</trkpt>
<trkpt lat="-27.2744392" lon="151.2900641">
  <ele>343.08</ele>
  <time>2026-09-01T19:51:37Z</time>
  <course>10.7</course>
  <speed>0.022360679774997897</speed>
  <fix>3d</fix>
</trkpt>
<trkpt lat="-27.274439" lon="151.290064">
  <ele>343.1</ele>
  <time>2026-09-01T19:51:37Z</time>
  <course>270.0</course>
  <speed>0.0</speed>
  <fix>3d</fix>
</trkpt>
<trkpt lat="-27.2744392" lon="151.2900641">
  <ele>343.08</ele>
  <time>2026-09-01T19:51:37Z</time>
  <course>10.7</course>
  <speed>0.022360679774997897</speed>
  <fix>3d</fix>
</trkpt>
<trkpt lat="-27.274439" lon="151.290064">
  <ele>343.1</ele>
  <time>2026-09-01T19:51:37Z</time>
  <course>270.0</course>
  <speed>0.0</speed>
  <fix>3d</fix>
</trkpt>
<trkpt lat="-27.2744392" lon="151.2900641">
  <ele>343.08</ele>
  <time>2026-09-01T19:51:37Z</time>
  <course>10.7</course>
  <speed>0.022360679774997897</speed>
  <fix>3d</fix>
</trkpt>
<trkpt lat="-27.274439" lon="151.290064">
  <ele>343.1</ele>
  <time>2026-09-01T19:51:37Z</time>
  <course>270.0</course>
  <speed>0.0</speed>
  <fix>3d</fix>
</trkpt>
<trkpt lat="-27.2744392" lon="151.2900641">
  <ele>343.08</ele>
  <time>2026-09-01T19:51:37Z</time>
  <course>10.7</course>
  <speed>0.022360679774997897</speed>
  <fix>3d</fix>
</trkpt>
<trkpt lat="-27.274439" lon="151.290064">
  <ele>343.1</ele>
  <time>2026-09-01T19:51:37Z</time>
  <course>270.0</course>
  <speed>0.0</speed>
  <fix>3d</fix>
</trkpt>
<trkpt lat="-27.2744392" lon="151.2900641">
  <ele>343.08</ele>
  <time>2026-09-01T19:51:37Z</time>
  <course>10.7</course>
  <speed>0.022360679774997897</speed>
  <fix>3d</fix>
</trkpt>
<trkpt lat="-27.274439" lon="151.290064">
  <ele>343.1</ele>
  <time>2026-09-01T19:51:37Z</time>
  <course>270.0</course>
  <speed>0.0</speed>
  <fix>3d</fix>
</trkpt>
<trkpt lat="-27.2744392" lon="151.2900641">
  <ele>343.08</ele>
  <time>2026-09-01T19:51:37Z</time>
  <course>10.7</course>
  <speed>0.022360679774997897</speed>
  <fix>3d</fix>
</trkpt>
<trkpt lat="-27.274439" lon="151.290064">
  <ele>343.1</ele>
  <time>2026-09-01T19:51:37Z</time>
  <course>270.0</course>
  <speed>0.0</speed>
  <fix>3d</fix>
</trkpt>
<trkpt lat="-27.2744392" lon="151.2900641">
  <ele>343.08</ele>
  <time>2026-09-01T19:51:37Z</time>
  <course>10.7</course>
  <speed>0.022360679774997897</speed>
  <fix>3d</fix>
</trkpt>
<trkpt lat="-27.274439" lon="151.290064">
  <ele>343.1</ele>
  <time>2026-09-01T19:51:37Z</time>
  <course>270.0</course>
  <speed>0.0</speed>
  <fix>3d</fix>
</trkpt>
<trkpt lat="-27.2744392" lon="151.2900641">
  <ele>343.08</ele>
  <time>2026-09-01T19:51:37Z</time>
  <course>10.7</course>
  <speed>0.022360679774997897</speed>
  <fix>3d</fix>
</trkpt>
<trkpt lat="-27.274439" lon="151.290064">
  <ele>343.1</ele>
  <time>2026-09-01T19:51:37Z</time>
  <course>270.0</course>
  <speed>0.0</speed>
  <fix>3d</fix>
</trkpt>
<trkpt lat="-27.2744392" lon="151.2900641">
  <ele>343.08</ele>
  <time>2026-09-01T19:51:37Z</time>
  <course>10.7</course>
  <speed>0.022360679774997897</speed>
  <fix>3d</fix>
</trkpt>
<trkpt lat="-27.274439" lon="151.290064">
  <ele>343.1</ele>
  <time>2026-09-01T19:51:37Z</time>
  <course>270.0</course>
  <speed>0.0</speed>
  <fix>3d</fix>
</trkpt>
<trkpt lat="-27.2744392" lon="151.2900641">
  <ele>343.08</ele>
  <time>2026-09-01T19:51:37Z</time>
  <course>10.7</course>
  <speed>0.022360679774997897</speed>
  <fix>3d</fix>
</trkpt>
<trkpt lat="-27.274439" lon="151.290064">
  <ele>343.1</ele>
  <time>2026-09-01T19:51:37Z</time>
  <course>270.0</course>
  <speed>0.0</speed>
  <fix>3d</fix>
</trkpt>
<trkpt lat="-27.2744392" lon="151.2900641">
  <ele>343.08</ele>
  <time>2026-09-01T19:51:37Z</time>
  <course>10.7</course>
  <speed>0.022360679774997897</speed>
  <fix>3d</fix>
</trkpt>
<trkpt lat="-27.274439" lon="151.290064">
  <ele>343.1</ele>
  <time>2026-09-01T19:51:37Z</time>
  <course>270.0</course>
  <speed>0.0</speed>
  <fix>3d</fix>
</trkpt>
<trkpt lat="-27.2744392" lon="151.2900641">
  <ele>343.08</ele>
  <time>2026-09-01T19:51:37Z</time>
  <course>10.7</course>
  <speed>0.022360679774997897</speed>
  <fix>3d</fix>
</trkpt>
<trkpt lat="-27.274439" lon="151.290064">
  <ele>343.1</ele>
  <time>2026-09-01T19:51:37Z</time>
  <course>270.0</course>
  <speed>0.0</speed>
  <fix>3d</fix>
</trkpt>
<trkpt lat="-27.2744392" lon="151.2900641">
  <ele>343.08</ele>
  <time>2026-09-01T19:51:37Z</time>
  <course>10.7</course>
  <speed>0.022360679774997897</speed>
  <fix>3d</fix>
</trkpt>
<trkpt lat="-27.274439" lon="151.290064">
  <ele>343.1</ele>
  <time>2026-09-01T19:51:37Z</time>
  <course>270.0</course>
  <speed>0.0</speed>
  <fix>3d</fix>
</trkpt>
<trkpt lat="-27.2744392" lon="151.2900641">
  <ele>343.08</ele>
  <time>2026-09-01T19:51:37Z</time>
  <course>10.71</course>
  <speed>0.022360679774997897</speed>
  <fix>3d</fix>
</trkpt>
<trkpt lat="-27.274439" lon="151.290064">
  <ele>343.1</ele>
  <time>2026-09-01T19:51:37Z</time>
  <course>270.0</course>
  <speed>0.0</speed>
  <fix>3d</fix>
</trkpt>
<trkpt lat="-27.2744392" lon="151.2900641">
  <ele>343.08</ele>
  <time>2026-09-01T19:51:37Z</time>
  <course>10.71</course>
  <speed>0.022360679774997897</speed>
  <fix>3d</fix>
</trkpt>
<trkpt lat="-27.274439" lon="151.290064">
  <ele>343.1</ele>
  <time>2026-09-01T19:51:37Z</time>
  <course>270.0</course>
  <speed>0.0</speed>
  <fix>3d</fix>
</trkpt>
<trkpt lat="-27.2744392" lon="151.2900641">
  <ele>343.08</ele>
  <time>2026-09-01T19:51:37Z</time>
  <course>10.71</course>
  <speed>0.022360679774997897</speed>
  <fix>3d</fix>
</trkpt>
<trkpt lat="-27.274439" lon="151.290064">
  <ele>343.1</ele>
  <time>2026-09-01T19:51:37Z</time>
  <course>270.0</course>
  <speed>0.0</speed>
  <fix>3d</fix>
</trkpt>
<trkpt lat="-27.2744392" lon="151.2900641">
  <ele>343.09</ele>
  <time>2026-09-01T19:51:37Z</time>
  <course>10.71</course>
  <speed>0.022360679774997897</speed>
  <fix>3d</fix>
</trkpt>
<trkpt lat="-27.274439" lon="151.290064">
  <ele>343.1</ele>
  <time>2026-09-01T19:51:37Z</time>
  <course>270.0</course>
  <speed>0.0</speed>
  <fix>3d</fix>
</trkpt>
<trkpt lat="-27.2744392" lon="151.2900641">
  <ele>343.09</ele>
  <time>2026-09-01T19:51:37Z</time>
  <course>10.71</course>
  <speed>0.022360679774997897</speed>
  <fix>3d</fix>
</trkpt>
<trkpt lat="-27.274439" lon="151.290064">
  <ele>343.1</ele>
  <time>2026-09-01T19:51:37Z</time>
  <course>270.0</course>
  <speed>0.0</speed>
  <fix>3d</fix>
</trkpt>
<trkpt lat="-27.2744392" lon="151.2900641">
  <ele>343.09</ele>
  <time>2026-09-01T19:51:37Z</time>
  <course>10.71</course>
  <speed>0.022360679774997897</speed>
  <fix>3d</fix>
</trkpt>
<trkpt lat="-27.274439" lon="151.290064">
  <ele>343.1</ele>
  <time>2026-09-01T19:51:37Z</time>
  <course>270.0</course>
  <speed>0.0</speed>
  <fix>3d</fix>
</trkpt>
<trkpt lat="-27.2744392" lon="151.2900641">
  <ele>343.09</ele>
  <time>2026-09-01T19:51:37Z</time>
  <course>10.71</course>
  <speed>0.022360679774997897</speed>
  <fix>3d</fix>
</trkpt>
<trkpt lat="-27.274439" lon="151.290064">
  <ele>343.1</ele>
  <time>2026-09-01T19:51:37Z</time>
  <course>270.0</course>
  <speed>0.0</speed>
  <fix>3d</fix>
</trkpt>
<trkpt lat="-27.2744392" lon="151.2900641">
  <ele>343.09</ele>
  <time>2026-09-01T19:51:37Z</time>
  <course>10.71</course>
  <speed>0.022360679774997897</speed>
  <fix>3d</fix>
</trkpt>
<trkpt lat="-27.274439" lon="151.290064">
  <ele>343.1</ele>
  <time>2026-09-01T19:51:37Z</time>
  <course>270.0</course>
  <speed>0.0</speed>
  <fix>3d</fix>
</trkpt>
<trkpt lat="-27.2744392" lon="151.2900641">
  <ele>343.09</ele>
  <time>2026-09-01T19:51:37Z</time>
  <course>10.71</course>
  <speed>0.022360679774997897</speed>
  <fix>3d</fix>
</trkpt>
<trkpt lat="-27.274439" lon="151.290064">
  <ele>343.1</ele>
  <time>2026-09-01T19:51:37Z</time>
  <course>270.0</course>
  <speed>0.0</speed>
  <fix>3d</fix>
</trkpt>
<trkpt lat="-27.2744392" lon="151.2900641">
  <ele>343.09</ele>
  <time>2026-09-01T19:51:37Z</time>
  <course>10.71</course>
  <speed>0.022360679774997897</speed>
  <fix>3d</fix>
</trkpt>
<trkpt lat="-27.274439" lon="151.290064">
  <ele>343.1</ele>
  <time>2026-09-01T19:51:37Z</time>
  <course>270.0</course>
  <speed>0.0</speed>
  <fix>3d</fix>
</trkpt>
<trkpt lat="-27.2744392" lon="151.2900641">
  <ele>343.09</ele>
  <time>2026-09-01T19:51:37Z</time>
  <course>10.71</course>
  <speed>0.022360679774997897</speed>
  <fix>3d</fix>
</trkpt>
<trkpt lat="-27.274439" lon="151.290064">
  <ele>343.1</ele>
  <time>2026-09-01T19:51:37Z</time>
  <course>270.0</course>
  <speed>0.0</speed>
  <fix>3d</fix>
</trkpt>
<trkpt lat="-27.2744392" lon="151.2900641">
  <ele>343.1</ele>
  <time>2026-09-01T19:51:37Z</time>
  <course>10.71</course>
  <speed>0.022360679774997897</speed>
  <fix>3d</fix>
</trkpt>
<trkpt lat="-27.274439" lon="151.290064">
  <ele>343.1</ele>
  <time>2026-09-01T19:51:37Z</time>
  <course>270.0</course>
  <speed>0.0</speed>
  <fix>3d</fix>
</trkpt>
<trkpt lat="-27.2744392" lon="151.2900641">
  <ele>343.1</ele>
  <time>2026-09-01T19:51:37Z</time>
  <course>10.71</course>
  <speed>0.022360679774997897</speed>
  <fix>3d</fix>
</trkpt>
<trkpt lat="-27.274439" lon="151.290064">
  <ele>343.1</ele>
  <time>2026-09-01T19:51:37Z</time>
  <course>270.0</course>
  <speed>0.0</speed>
  <fix>3d</fix>
</trkpt>
<trkpt lat="-27.2744392" lon="151.2900641">
  <ele>343.1</ele>
  <time>2026-09-01T19:51:37Z</time>
  <course>10.71</course>
  <speed>0.022360679774997897</speed>
  <fix>3d</fix>
</trkpt>
<trkpt lat="-27.274439" lon="151.290064">
  <ele>343.1</ele>
  <time>2026-09-01T19:51:37Z</time>
  <course>270.0</course>
  <speed>0.0</speed>
  <fix>3d</fix>
</trkpt>
<trkpt lat="-27.2744392" lon="151.2900641">
  <ele>343.1</ele>
  <time>2026-09-01T19:51:37Z</time>
  <course>10.71</course>
  <speed>0.022360679774997897</speed>
  <fix>3d</fix>
</trkpt>
<trkpt lat="-27.274439" lon="151.290064">
  <ele>343.1</ele>
  <time>2026-09-01T19:51:37Z</time>
  <course>270.0</course>
  <speed>0.0</speed>
  <fix>3d</fix>
</trkpt>
<trkpt lat="-27.2744392" lon="151.2900641">
  <ele>343.11</ele>
  <time>2026-09-01T19:51:37Z</time>
  <course>10.71</course>
  <speed>0.022360679774997897</speed>
  <fix>3d</fix>
</trkpt>
<trkpt lat="-27.274439" lon="151.290064">
  <ele>343.1</ele>
  <time>2026-09-01T19:51:37Z</time>
  <course>270.0</course>
  <speed>0.0</speed>
  <fix>3d</fix>
</trkpt>
<trkpt lat="-27.2744392" lon="151.2900641">
  <ele>343.11</ele>
  <time>2026-09-01T19:51:37Z</time>
  <course>10.71</course>
  <speed>0.022360679774997897</speed>
  <fix>3d</fix>
</trkpt>
<trkpt lat="-27.274439" lon="151.290064">
  <ele>343.1</ele>
  <time>2026-09-01T19:51:37Z</time>
  <course>270.0</course>
  <speed>0.0</speed>
  <fix>3d</fix>
</trkpt>
<trkpt lat="-27.2744392" lon="151.2900641">
  <ele>343.11</ele>
  <time>2026-09-01T19:51:37Z</time>
  <course>10.71</course>
  <speed>0.022360679774997897</speed>
  <fix>3d</fix>
</trkpt>
<trkpt lat="-27.274439" lon="151.290064">
  <ele>343.1</ele>
  <time>2026-09-01T19:51:37Z</time>
  <course>270.0</course>
  <speed>0.0</speed>
  <fix>3d</fix>
</trkpt>
<trkpt lat="-27.2744392" lon="151.2900641">
  <ele>343.12</ele>
  <time>2026-09-01T19:51:37Z</time>
  <course>10.71</course>
  <speed>0.022360679774997897</speed>
  <fix>3d</fix>
</trkpt>
<trkpt lat="-27.274439" lon="151.290064">
  <ele>343.1</ele>
  <time>2026-09-01T19:51:37Z</time>
  <course>270.0</course>
  <speed>0.0</speed>
  <fix>3d</fix>
</trkpt>
<trkpt lat="-27.2744392" lon="151.2900641">
  <ele>343.12</ele>
  <time>2026-09-01T19:51:37Z</time>
  <course>10.72</course>
  <speed>0.022360679774997897</speed>
  <fix>3d</fix>
</trkpt>
<trkpt lat="-27.274439" lon="151.290064">
  <ele>343.1</ele>
  <time>2026-09-01T19:51:37Z</time>
  <course>270.0</course>
  <speed>0.0</speed>
  <fix>3d</fix>
</trkpt>
<trkpt lat="-27.2744392" lon="151.2900641">
  <ele>343.12</ele>
  <time>2026-09-01T19:51:37Z</time>
  <course>10.72</course>
  <speed>0.022360679774997897</speed>
  <fix>3d</fix>
</trkpt>
<trkpt lat="-27.274439" lon="151.290064">
  <ele>343.1</ele>
  <time>2026-09-01T19:51:37Z</time>
  <course>270.0</course>
  <speed>0.0</speed>
  <fix>3d</fix>
</trkpt>
<trkpt lat="-27.2744392" lon="151.2900641">
  <ele>343.13</ele>
  <time>2026-09-01T19:51:37Z</time>
  <course>10.72</course>
  <speed>0.022360679774997897</speed>
  <fix>3d</fix>
</trkpt>
<trkpt lat="-27.274439" lon="151.290064">
  <ele>343.1</ele>
  <time>2026-09-01T19:51:37Z</time>
  <course>270.0</course>
  <speed>0.0</speed>
  <fix>3d</fix>
</trkpt>
<trkpt lat="-27.2744392" lon="151.2900641">
  <ele>343.13</ele>
  <time>2026-09-01T19:51:37Z</time>
  <course>10.72</course>
  <speed>0.022360679774997897</speed>
  <fix>3d</fix>
</trkpt>
<trkpt lat="-27.274439" lon="151.290064">
  <ele>343.1</ele>
  <time>2026-09-01T19:51:37Z</time>
  <course>270.0</course>
  <speed>0.0</speed>
  <fix>3d</fix>
</trkpt>
<trkpt lat="-27.2744392" lon="151.2900641">
  <ele>343.13</ele>
  <time>2026-09-01T19:51:37Z</time>
  <course>10.72</course>
  <speed>0.022360679774997897</speed>
  <fix>3d</fix>
</trkpt>
<trkpt lat="-27.274439" lon="151.290064">
  <ele>343.1</ele>
  <time>2026-09-01T19:51:37Z</time>
  <course>270.0</course>
  <speed>0.0</speed>
  <fix>3d</fix>
</trkpt>
<trkpt lat="-27.2744392" lon="151.2900641">
  <ele>343.13</ele>
  <time>2026-09-01T19:51:37Z</time>
  <course>10.72</course>
  <speed>0.022360679774997897</speed>
  <fix>3d</fix>
</trkpt>
<trkpt lat="-27.274439" lon="151.290064">
  <ele>343.1</ele>
  <time>2026-09-01T19:51:37Z</time>
  <course>270.0</course>
  <speed>0.0</speed>
  <fix>3d</fix>
</trkpt>
<trkpt lat="-27.2744392" lon="151.2900641">
  <ele>343.1</ele>
  <time>2026-09-01T19:51:37Z</time>
  <course>10.72</course>
  <speed>0.022360679774997897</speed>
  <fix>3d</fix>
</trkpt>
<trkpt lat="-27.274439" lon="151.290064">
  <ele>343.1</ele>
  <time>2026-09-01T19:51:37Z</time>
  <course>270.0</course>
  <speed>0.0</speed>
  <fix>3d</fix>
</trkpt>
<trkpt lat="-27.2744392" lon="151.2900641">
  <ele>343.1</ele>
  <time>2026-09-01T19:51:37Z</time>
  <course>10.72</course>
  <speed>0.022360679774997897</speed>
  <fix>3d</fix>
</trkpt>
<trkpt lat="-27.274439" lon="151.290064">
  <ele>343.1</ele>
  <time>2026-09-01T19:51:37Z</time>
  <course>270.0</course>
  <speed>0.0</speed>
  <fix>3d</fix>
</trkpt>
<trkpt lat="-27.2744392" lon="151.2900641">
  <ele>343.1</ele>
  <time>2026-09-01T19:51:37Z</time>
  <course>10.72</course>
  <speed>0.022360679774997897</speed>
  <fix>3d</fix>
</trkpt>
<trkpt lat="-27.274439" lon="151.290064">
  <ele>343.1</ele>
  <time>2026-09-01T19:51:37Z</time>
  <course>270.0</course>
  <speed>0.0</speed>
  <fix>3d</fix>
</trkpt>
<trkpt lat="-27.2744392" lon="151.2900641">
  <ele>343.09</ele>
  <time>2026-09-01T19:51:37Z</time>
  <course>10.72</course>
  <speed>0.022360679774997897</speed>
  <fix>3d</fix>
</trkpt>
<trkpt lat="-27.274439" lon="151.290064">
  <ele>343.1</ele>
  <time>2026-09-01T19:51:37Z</time>
  <course>270.0</course>
  <speed>0.0</speed>
  <fix>3d</fix>
</trkpt>
<trkpt lat="-27.2744392" lon="151.2900641">
  <ele>343.09</ele>
  <time>2026-09-01T19:51:37Z</time>
  <course>10.72</course>
  <speed>0.022360679774997897</speed>
  <fix>3d</fix>
</trkpt>
<trkpt lat="-27.274439" lon="151.290064">
  <ele>343.1</ele>
  <time>2026-09-01T19:51:37Z</time>
  <course>270.0</course>
  <speed>0.0</speed>
  <fix>3d</fix>
</trkpt>
<trkpt lat="-27.2744392" lon="151.2900641">
  <ele>343.09</ele>
  <time>2026-09-01T19:51:37Z</time>
  <course>10.72</course>
  <speed>0.022360679774997897</speed>
  <fix>3d</fix>
</trkpt>
<trkpt lat="-27.274439" lon="151.290064">
  <ele>343.1</ele>
  <time>2026-09-01T19:51:37Z</time>
  <course>270.0</course>
  <speed>0.0</speed>
  <fix>3d</fix>
</trkpt>
<trkpt lat="-27.2744392" lon="151.2900641">
  <ele>343.09</ele>
  <time>2026-09-01T19:51:37Z</time>
  <course>10.72</course>
  <speed>0.022360679774997897</speed>
  <fix>3d</fix>
</trkpt>
<trkpt lat="-27.274439" lon="151.290064">
  <ele>343.1</ele>
  <time>2026-09-01T19:51:37Z</time>
  <course>270.0</course>
  <speed>0.0</speed>
  <fix>3d</fix>
</trkpt>
<trkpt lat="-27.2744392" lon="151.2900641">
  <ele>343.09</ele>
  <time>2026-09-01T19:51:37Z</time>
  <course>10.72</course>
  <speed>0.022360679774997897</speed>
  <fix>3d</fix>
</trkpt>
<trkpt lat="-27.274439" lon="151.290064">
  <ele>343.1</ele>
  <time>2026-09-01T19:51:37Z</time>
  <course>270.0</course>
  <speed>0.0</speed>
  <fix>3d</fix>
</trkpt>
<trkpt lat="-27.2744392" lon="151.2900641">
  <ele>343.08</ele>
  <time>2026-09-01T19:51:37Z</time>
  <course>10.72</course>
  <speed>0.022360679774997897</speed>
  <fix>3d</fix>
</trkpt>
<trkpt lat="-27.274439" lon="151.290064">
  <ele>343.1</ele>
  <time>2026-09-01T19:51:37Z</time>
  <course>270.0</course>
  <speed>0.0</speed>
  <fix>3d</fix>
</trkpt>
<trkpt lat="-27.2744392" lon="151.2900641">
  <ele>343.08</ele>
  <time>2026-09-01T19:51:37Z</time>
  <course>10.72</course>
  <speed>0.022360679774997897</speed>
  <fix>3d</fix>
</trkpt>
<trkpt lat="-27.274439" lon="151.290064">
  <ele>343.1</ele>
  <time>2026-09-01T19:51:37Z</time>
  <course>270.0</course>
  <speed>0.0</speed>
  <fix>3d</fix>
</trkpt>
<trkpt lat="-27.2744392" lon="151.2900641">
  <ele>343.08</ele>
  <time>2026-09-01T19:51:37Z</time>
  <course>10.72</course>
  <speed>0.022360679774997897</speed>
  <fix>3d</fix>
</trkpt>
<trkpt lat="-27.274439" lon="151.290064">
  <ele>343.1</ele>
  <time>2026-09-01T19:51:37Z</time>
  <course>270.0</course>
  <speed>0.0</speed>
  <fix>3d</fix>
</trkpt>
<trkpt lat="-27.2744392" lon="151.2900641">
  <ele>343.07</ele>
  <time>2026-09-01T19:51:37Z</time>
  <course>10.72</course>
  <speed>0.022360679774997897</speed>
  <fix>3d</fix>
</trkpt>
<trkpt lat="-27.274439" lon="151.290064">
  <ele>343.1</ele>
  <time>2026-09-01T19:51:37Z</time>
  <course>270.0</course>
  <speed>0.0</speed>
  <fix>3d</fix>
</trkpt>
<trkpt lat="-27.2744392" lon="151.2900641">
  <ele>343.07</ele>
  <time>2026-09-01T19:51:37Z</time>
  <course>10.72</course>
  <speed>0.022360679774997897</speed>
  <fix>3d</fix>
</trkpt>
<trkpt lat="-27.274439" lon="151.290064">
  <ele>343.1</ele>
  <time>2026-09-01T19:51:37Z</time>
  <course>270.0</course>
  <speed>0.0</speed>
  <fix>3d</fix>
</trkpt>
<trkpt lat="-27.2744392" lon="151.2900641">
  <ele>343.07</ele>
  <time>2026-09-01T19:51:37Z</time>
  <course>10.72</course>
  <speed>0.022360679774997897</speed>
  <fix>3d</fix>
</trkpt>
<trkpt lat="-27.274439" lon="151.290064">
  <ele>343.1</ele>
  <time>2026-09-01T19:51:37Z</time>
  <course>270.0</course>
  <speed>0.0</speed>
  <fix>3d</fix>
</trkpt>
<trkpt lat="-27.2744392" lon="151.2900641">
  <ele>343.07</ele>
  <time>2026-09-01T19:51:37Z</time>
  <course>10.72</course>
  <speed>0.022360679774997897</speed>
  <fix>3d</fix>
</trkpt>
<trkpt lat="-27.274439" lon="151.290064">
  <ele>343.1</ele>
  <time>2026-09-01T19:51:37Z</time>
  <course>270.0</course>
  <speed>0.0</speed>
  <fix>3d</fix>
</trkpt>
<trkpt lat="-27.2744392" lon="151.2900641">
  <ele>343.06</ele>
  <time>2026-09-01T19:51:37Z</time>
  <course>10.73</course>
  <speed>0.022360679774997897</speed>
  <fix>3d</fix>
</trkpt>
<trkpt lat="-27.274439" lon="151.290064">
  <ele>343.1</ele>
  <time>2026-09-01T19:51:37Z</time>
  <course>270.0</course>
  <speed>0.0</speed>
  <fix>3d</fix>
</trkpt>
<trkpt lat="-27.2744392" lon="151.2900641">
  <ele>343.06</ele>
  <time>2026-09-01T19:51:37Z</time>
  <course>10.73</course>
  <speed>0.022360679774997897</speed>
  <fix>3d</fix>
</trkpt>
<trkpt lat="-27.274439" lon="151.290064">
  <ele>343.1</ele>
  <time>2026-09-01T19:51:37Z</time>
  <course>270.0</course>
  <speed>0.0</speed>
  <fix>3d</fix>
</trkpt>
<trkpt lat="-27.2744392" lon="151.2900641">
  <ele>343.06</ele>
  <time>2026-09-01T19:51:37Z</time>
  <course>10.73</course>
  <speed>0.022360679774997897</speed>
  <fix>3d</fix>
</trkpt>
<trkpt lat="-27.274439" lon="151.290064">
  <ele>343.1</ele>
  <time>2026-09-01T19:51:37Z</time>
  <course>270.0</course>
  <speed>0.0</speed>
  <fix>3d</fix>
</trkpt>
<trkpt lat="-27.2744392" lon="151.2900641">
  <ele>343.05</ele>
  <time>2026-09-01T19:51:37Z</time>
  <course>10.73</course>
  <speed>0.022360679774997897</speed>
  <fix>3d</fix>
</trkpt>
<trkpt lat="-27.274439" lon="151.290064">
  <ele>343.1</ele>
  <time>2026-09-01T19:51:37Z</time>
  <course>270.0</course>
  <speed>0.0</speed>
  <fix>3d</fix>
</trkpt>
<trkpt lat="-27.2744392" lon="151.2900641">
  <ele>343.05</ele>
  <time>2026-09-01T19:51:37Z</time>
  <course>10.73</course>
  <speed>0.022360679774997897</speed>
  <fix>3d</fix>
</trkpt>
<trkpt lat="-27.274439" lon="151.290064">
  <ele>343.1</ele>
  <time>2026-09-01T19:51:37Z</time>
  <course>270.0</course>
  <speed>0.0</speed>
  <fix>3d</fix>
</trkpt>
<trkpt lat="-27.2744392" lon="151.2900641">
  <ele>343.05</ele>
  <time>2026-09-01T19:51:37Z</time>
  <course>10.73</course>
  <speed>0.022360679774997897</speed>
  <fix>3d</fix>
</trkpt>
<trkpt lat="-27.274439" lon="151.290064">
  <ele>343.1</ele>
  <time>2026-09-01T19:51:37Z</time>
  <course>270.0</course>
  <speed>0.0</speed>
  <fix>3d</fix>
</trkpt>
<trkpt lat="-27.2744392" lon="151.2900641">
  <ele>343.05</ele>
  <time>2026-09-01T19:51:37Z</time>
  <course>10.73</course>
  <speed>0.022360679774997897</speed>
  <fix>3d</fix>
</trkpt>
<trkpt lat="-27.274439" lon="151.290064">
  <ele>343.1</ele>
  <time>2026-09-01T19:51:37Z</time>
  <course>270.0</course>
  <speed>0.0</speed>
  <fix>3d</fix>
</trkpt>
<trkpt lat="-27.2744392" lon="151.2900641">
  <ele>343.05</ele>
  <time>2026-09-01T19:51:37Z</time>
  <course>10.73</course>
  <speed>0.022360679774997897</speed>
  <fix>3d</fix>
</trkpt>
<trkpt lat="-27.274439" lon="151.290064">
  <ele>343.1</ele>
  <time>2026-09-01T19:51:37Z</time>
  <course>270.0</course>
  <speed>0.0</speed>
  <fix>3d</fix>
</trkpt>
<trkpt lat="-27.2744392" lon="151.2900641">
  <ele>343.04</ele>
  <time>2026-09-01T19:51:37Z</time>
  <course>10.73</course>
  <speed>0.022360679774997897</speed>
  <fix>3d</fix>
</trkpt>
<trkpt lat="-27.274439" lon="151.290064">
  <ele>343.1</ele>
  <time>2026-09-01T19:51:37Z</time>
  <course>270.0</course>
  <speed>0.0</speed>
  <fix>3d</fix>
</trkpt>
<trkpt lat="-27.2744392" lon="151.2900641">
  <ele>343.04</ele>
  <time>2026-09-01T19:51:37Z</time>
  <course>10.73</course>
  <speed>0.022360679774997897</speed>
  <fix>3d</fix>
</trkpt>
<trkpt lat="-27.274439" lon="151.290064">
  <ele>343.1</ele>
  <time>2026-09-01T19:51:37Z</time>
  <course>270.0</course>
  <speed>0.0</speed>
  <fix>3d</fix>
</trkpt>
<trkpt lat="-27.2744392" lon="151.2900641">
  <ele>343.04</ele>
  <time>2026-09-01T19:51:37Z</time>
  <course>10.73</course>
  <speed>0.022360679774997897</speed>
  <fix>3d</fix>
</trkpt>
<trkpt lat="-27.274439" lon="151.290064">
  <ele>343.1</ele>
  <time>2026-09-01T19:51:37Z</time>
  <course>270.0</course>
  <speed>0.0</speed>
  <fix>3d</fix>
</trkpt>
<trkpt lat="-27.2744392" lon="151.2900641">
  <ele>343.04</ele>
  <time>2026-09-01T19:51:37Z</time>
  <course>10.73</course>
  <speed>0.022360679774997897</speed>
  <fix>3d</fix>
</trkpt>
<trkpt lat="-27.274439" lon="151.290064">
  <ele>343.1</ele>
  <time>2026-09-01T19:51:37Z</time>
  <course>270.0</course>
  <speed>0.0</speed>
  <fix>3d</fix>
</trkpt>
<trkpt lat="-27.2744392" lon="151.2900641">
  <ele>343.04</ele>
  <time>2026-09-01T19:51:37Z</time>
  <course>10.73</course>
  <speed>0.022360679774997897</speed>
  <fix>3d</fix>
</trkpt>
<trkpt lat="-27.274439" lon="151.290064">
  <ele>343.1</ele>
  <time>2026-09-01T19:51:37Z</time>
  <course>270.0</course>
  <speed>0.0</speed>
  <fix>3d</fix>
</trkpt>
<trkpt lat="-27.2744392" lon="151.2900641">
  <ele>343.04</ele>
  <time>2026-09-01T19:51:37Z</time>
  <course>10.73</course>
  <speed>0.022360679774997897</speed>
  <fix>3d</fix>
</trkpt>
<trkpt lat="-27.274439" lon="151.290064">
  <ele>343.1</ele>
  <time>2026-09-01T19:51:37Z</time>
  <course>270.0</course>
  <speed>0.0</speed>
  <fix>3d</fix>
</trkpt>
<trkpt lat="-27.2744392" lon="151.2900641">
  <ele>343.04</ele>
  <time>2026-09-01T19:51:37Z</time>
  <course>10.73</course>
  <speed>0.022360679774997897</speed>
  <fix>3d</fix>
</trkpt>
<trkpt lat="-27.274439" lon="151.290064">
  <ele>343.1</ele>
  <time>2026-09-01T19:51:37Z</time>
  <course>270.0</course>
  <speed>0.0</speed>
  <fix>3d</fix>
</trkpt>
<trkpt lat="-27.2744392" lon="151.2900641">
  <ele>343.03</ele>
  <time>2026-09-01T19:51:37Z</time>
  <course>10.73</course>
  <speed>0.022360679774997897</speed>
  <fix>3d</fix>
</trkpt>
<trkpt lat="-27.274439" lon="151.290064">
  <ele>343.1</ele>
  <time>2026-09-01T19:51:37Z</time>
  <course>270.0</course>
  <speed>0.0</speed>
  <fix>3d</fix>
</trkpt>
<trkpt lat="-27.2744392" lon="151.2900641">
  <ele>343.03</ele>
  <time>2026-09-01T19:51:37Z</time>
  <course>10.74</course>
  <speed>0.022360679774997897</speed>
  <fix>3d</fix>
</trkpt>
<trkpt lat="-27.274439" lon="151.290064">
  <ele>343.1</ele>
  <time>2026-09-01T19:51:37Z</time>
  <course>270.0</course>
  <speed>0.0</speed>
  <fix>3d</fix>
</trkpt>
<trkpt lat="-27.2744392" lon="151.2900641">
  <ele>343.03</ele>
  <time>2026-09-01T19:51:37Z</time>
  <course>10.74</course>
  <speed>0.022360679774997897</speed>
  <fix>3d</fix>
</trkpt>
<trkpt lat="-27.274439" lon="151.290064">
  <ele>343.1</ele>
  <time>2026-09-01T19:51:37Z</time>
  <course>270.0</course>
  <speed>0.0</speed>
  <fix>3d</fix>
</trkpt>
<trkpt lat="-27.2744392" lon="151.2900641">
  <ele>343.02</ele>
  <time>2026-09-01T19:51:37Z</time>
  <course>10.74</course>
  <speed>0.022360679774997897</speed>
  <fix>3d</fix>
</trkpt>
<trkpt lat="-27.274439" lon="151.290064">
  <ele>343.1</ele>
  <time>2026-09-01T19:51:37Z</time>
  <course>270.0</course>
  <speed>0.0</speed>
  <fix>3d</fix>
</trkpt>
<trkpt lat="-27.2744392" lon="151.2900641">
  <ele>343.02</ele>
  <time>2026-09-01T19:51:37Z</time>
  <course>10.74</course>
  <speed>0.022360679774997897</speed>
  <fix>3d</fix>
</trkpt>
<trkpt lat="-27.274439" lon="151.290064">
  <ele>343.1</ele>
  <time>2026-09-01T19:51:37Z</time>
  <course>270.0</course>
  <speed>0.0</speed>
  <fix>3d</fix>
</trkpt>
<trkpt lat="-27.2744392" lon="151.2900641">
  <ele>343.02</ele>
  <time>2026-09-01T19:51:37Z</time>
  <course>10.74</course>
  <speed>0.022360679774997897</speed>
  <fix>3d</fix>
</trkpt>
<trkpt lat="-27.274439" lon="151.290064">
  <ele>343.1</ele>
  <time>2026-09-01T19:51:37Z</time>
  <course>270.0</course>
  <speed>0.0</speed>
  <fix>3d</fix>
</trkpt>
<trkpt lat="-27.2744392" lon="151.2900641">
  <ele>343.01</ele>
  <time>2026-09-01T19:51:37Z</time>
  <course>10.74</course>
  <speed>0.022360679774997897</speed>
  <fix>3d</fix>
</trkpt>
<trkpt lat="-27.274439" lon="151.290064">
  <ele>343.1</ele>
  <time>2026-09-01T19:51:37Z</time>
  <course>270.0</course>
  <speed>0.0</speed>
  <fix>3d</fix>
</trkpt>
<trkpt lat="-27.2744392" lon="151.2900641">
  <ele>343.01</ele>
  <time>2026-09-01T19:51:37Z</time>
  <course>10.74</course>
  <speed>0.022360679774997897</speed>
  <fix>3d</fix>
</trkpt>
<trkpt lat="-27.274439" lon="151.290064">
  <ele>343.1</ele>
  <time>2026-09-01T19:51:37Z</time>
  <course>270.0</course>
  <speed>0.0</speed>
  <fix>3d</fix>
</trkpt>
<trkpt lat="-27.2744392" lon="151.2900641">
  <ele>343.01</ele>
  <time>2026-09-01T19:51:37Z</time>
  <course>10.74</course>
  <speed>0.022360679774997897</speed>
  <fix>3d</fix>
</trkpt>
<trkpt lat="-27.274439" lon="151.290064">
  <ele>343.1</ele>
  <time>2026-09-01T19:51:37Z</time>
  <course>270.0</course>
  <speed>0.0</speed>
  <fix>3d</fix>
</trkpt>
<trkpt lat="-27.2744392" lon="151.2900641">
  <ele>343.0</ele>
  <time>2026-09-01T19:51:37Z</time>
  <course>10.74</course>
  <speed>0.022360679774997897</speed>
  <fix>3d</fix>
</trkpt>
<trkpt lat="-27.274439" lon="151.290064">
  <ele>343.1</ele>
  <time>2026-09-01T19:51:37Z</time>
  <course>270.0</course>
  <speed>0.0</speed>
  <fix>3d</fix>
</trkpt>
<trkpt lat="-27.2744392" lon="151.2900641">
  <ele>343.0</ele>
  <time>2026-09-01T19:51:37Z</time>
  <course>10.74</course>
  <speed>0.022360679774997897</speed>
  <fix>3d</fix>
</trkpt>
<trkpt lat="-27.274439" lon="151.290064">
  <ele>343.1</ele>
  <time>2026-09-01T19:51:37Z</time>
  <course>270.0</course>
  <speed>0.0</speed>
  <fix>3d</fix>
</trkpt>
<trkpt lat="-27.2744392" lon="151.2900641">
  <ele>343.0</ele>
  <time>2026-09-01T19:51:37Z</time>
  <course>10.74</course>
  <speed>0.022360679774997897</speed>
  <fix>3d</fix>
</trkpt>
<trkpt lat="-27.274439" lon="151.290064">
  <ele>343.1</ele>
  <time>2026-09-01T19:51:37Z</time>
  <course>270.0</course>
  <speed>0.0</speed>
  <fix>3d</fix>
</trkpt>
<trkpt lat="-27.2744392" lon="151.2900641">
  <ele>343.0</ele>
  <time>2026-09-01T19:51:37Z</time>
  <course>10.74</course>
  <speed>0.022360679774997897</speed>
  <fix>3d</fix>
</trkpt>
<trkpt lat="-27.274439" lon="151.290064">
  <ele>343.1</ele>
  <time>2026-09-01T19:51:37Z</time>
  <course>270.0</course>
  <speed>0.0</speed>
  <fix>3d</fix>
</trkpt>
<trkpt lat="-27.2744392" lon="151.2900641">
  <ele>343.0</ele>
  <time>2026-09-01T19:51:37Z</time>
  <course>10.74</course>
  <speed>0.022360679774997897</speed>
  <fix>3d</fix>
</trkpt>
<trkpt lat="-27.274439" lon="151.290064">
  <ele>343.1</ele>
  <time>2026-09-01T19:51:37Z</time>
  <course>270.0</course>
  <speed>0.0</speed>
  <fix>3d</fix>
</trkpt>
<trkpt lat="-27.2744392" lon="151.2900641">
  <ele>343.0</ele>
  <time>2026-09-01T19:51:37Z</time>
  <course>10.74</course>
  <speed>0.022360679774997897</speed>
  <fix>3d</fix>
</trkpt>
<trkpt lat="-27.274439" lon="151.290064">
  <ele>343.1</ele>
  <time>2026-09-01T19:51:37Z</time>
  <course>270.0</course>
  <speed>0.0</speed>
  <fix>3d</fix>
</trkpt>
<trkpt lat="-27.2744392" lon="151.2900641">
  <ele>343.0</ele>
  <time>2026-09-01T19:51:37Z</time>
  <course>10.74</course>
  <speed>0.022360679774997897</speed>
  <fix>3d</fix>
</trkpt>
<trkpt lat="-27.274439" lon="151.290064">
  <ele>343.1</ele>
  <time>2026-09-01T19:51:37Z</time>
  <course>270.0</course>
  <speed>0.0</speed>
  <fix>3d</fix>
</trkpt>
<trkpt lat="-27.2744392" lon="151.2900641">
  <ele>343.0</ele>
  <time>2026-09-01T19:51:37Z</time>
  <course>10.74</course>
  <speed>0.022360679774997897</speed>
  <fix>3d</fix>
</trkpt>
<trkpt lat="-27.274439" lon="151.290064">
  <ele>343.1</ele>
  <time>2026-09-01T19:51:37Z</time>
  <course>270.0</course>
  <speed>0.0</speed>
  <fix>3d</fix>
</trkpt>
<trkpt lat="-27.2744392" lon="151.2900641">
  <ele>343.0</ele>
  <time>2026-09-01T19:51:37Z</time>
  <course>10.74</course>
  <speed>0.022360679774997897</speed>
  <fix>3d</fix>
</trkpt>
<trkpt lat="-27.274439" lon="151.290064">
  <ele>343.1</ele>
  <time>2026-09-01T19:51:37Z</time>
  <course>270.0</course>
  <speed>0.0</speed>
  <fix>3d</fix>
</trkpt>
<trkpt lat="-27.2744392" lon="151.2900641">
  <ele>343.0</ele>
  <time>2026-09-01T19:51:37Z</time>
  <course>10.74</course>
  <speed>0.022360679774997897</speed>
  <fix>3d</fix>
</trkpt>
<trkpt lat="-27.274439" lon="151.290064">
  <ele>343.1</ele>
  <time>2026-09-01T19:51:37Z</time>
  <course>270.0</course>
  <speed>0.0</speed>
  <fix>3d</fix>
</trkpt>
<trkpt lat="-27.2744392" lon="151.2900641">
  <ele>343.0</ele>
  <time>2026-09-01T19:51:37Z</time>
  <course>10.75</course>
  <speed>0.022360679774997897</speed>
  <fix>3d</fix>
</trkpt>
<trkpt lat="-27.274439" lon="151.290064">
  <ele>343.1</ele>
  <time>2026-09-01T19:51:37Z</time>
  <course>270.0</course>
  <speed>0.0</speed>
  <fix>3d</fix>
</trkpt>
<trkpt lat="-27.2744392" lon="151.2900641">
  <ele>343.0</ele>
  <time>2026-09-01T19:51:37Z</time>
  <course>10.75</course>
  <speed>0.022360679774997897</speed>
  <fix>3d</fix>
</trkpt>
<trkpt lat="-27.274439" lon="151.290064">
  <ele>343.1</ele>
  <time>2026-09-01T19:51:37Z</time>
  <course>270.0</course>
  <speed>0.0</speed>
  <fix>3d</fix>
</trkpt>
<trkpt lat="-27.2744392" lon="151.2900641">
  <ele>343.0</ele>
  <time>2026-09-01T19:51:37Z</time>
  <course>10.75</course>
  <speed>0.022360679774997897</speed>
  <fix>3d</fix>
</trkpt>
<trkpt lat="-27.274439" lon="151.290064">
  <ele>343.1</ele>
  <time>2026-09-01T19:51:37Z</time>
  <course>270.0</course>
  <speed>0.0</speed>
  <fix>3d</fix>
</trkpt>
<trkpt lat="-27.2744392" lon="151.2900641">
  <ele>343.0</ele>
  <time>2026-09-01T19:51:37Z</time>
  <course>10.75</course>
  <speed>0.022360679774997897</speed>
  <fix>3d</fix>
</trkpt>
<trkpt lat="-27.274439" lon="151.290064">
  <ele>343.1</ele>
  <time>2026-09-01T19:51:37Z</time>
  <course>270.0</course>
  <speed>0.0</speed>
  <fix>3d</fix>
</trkpt>
<trkpt lat="-27.2744392" lon="151.2900641">
  <ele>343.0</ele>
  <time>2026-09-01T19:51:37Z</time>
  <course>10.75</course>
  <speed>0.022360679774997897</speed>
  <fix>3d</fix>
</trkpt>
<trkpt lat="-27.274439" lon="151.290064">
  <ele>343.1</ele>
  <time>2026-09-01T19:51:37Z</time>
  <course>270.0</course>
  <speed>0.0</speed>
  <fix>3d</fix>
</trkpt>
<trkpt lat="-27.2744392" lon="151.2900641">
  <ele>343.0</ele>
  <time>2026-09-01T19:51:37Z</time>
  <course>10.75</course>
  <speed>0.022360679774997897</speed>
  <fix>3d</fix>
</trkpt>
<trkpt lat="-27.274439" lon="151.290064">
  <ele>343.1</ele>
  <time>2026-09-01T19:51:37Z</time>
  <course>270.0</course>
  <speed>0.0</speed>
  <fix>3d</fix>
</trkpt>
<trkpt lat="-27.2744392" lon="151.2900641">
  <ele>343.0</ele>
  <time>2026-09-01T19:51:37Z</time>
  <course>10.75</course>
  <speed>0.022360679774997897</speed>
  <fix>3d</fix>
</trkpt>
<trkpt lat="-27.274439" lon="151.290064">
  <ele>343.1</ele>
  <time>2026-09-01T19:51:37Z</time>
  <course>270.0</course>
  <speed>0.0</speed>
  <fix>3d</fix>
</trkpt>
<trkpt lat="-27.2744392" lon="151.2900641">
  <ele>343.0</ele>
  <time>2026-09-01T19:51:37Z</time>
  <course>10.75</course>
  <speed>0.022360679774997897</speed>
  <fix>3d</fix>
</trkpt>
<trkpt lat="-27.274439" lon="151.290064">
  <ele>343.1</ele>
  <time>2026-09-01T19:51:37Z</time>
  <course>270.0</course>
  <speed>0.0</speed>
  <fix>3d</fix>
</trkpt>
<trkpt lat="-27.2744392" lon="151.2900641">
  <ele>343.0</ele>
  <time>2026-09-01T19:51:37Z</time>
  <course>10.75</course>
  <speed>0.022360679774997897</speed>
  <fix>3d</fix>
</trkpt>
<trkpt lat="-27.274439" lon="151.290064">
  <ele>343.1</ele>
  <time>2026-09-01T19:51:37Z</time>
  <course>270.0</course>
  <speed>0.0</speed>
  <fix>3d</fix>
</trkpt>
<trkpt lat="-27.2744392" lon="151.2900641">
  <ele>343.0</ele>
  <time>2026-09-01T19:51:37Z</time>
  <course>10.75</course>
  <speed>0.022360679774997897</speed>
  <fix>3d</fix>
</trkpt>
<trkpt lat="-27.274439" lon="151.290064">
  <ele>343.1</ele>
  <time>2026-09-01T19:51:37Z</time>
  <course>270.0</course>
  <speed>0.0</speed>
  <fix>3d</fix>
</trkpt>
<trkpt lat="-27.2744392" lon="151.2900641">
  <ele>343.0</ele>
  <time>2026-09-01T19:51:37Z</time>
  <course>10.75</course>
  <speed>0.022360679774997897</speed>
  <fix>3d</fix>
</trkpt>
<trkpt lat="-27.274439" lon="151.290064">
  <ele>343.1</ele>
  <time>2026-09-01T19:51:37Z</time>
  <course>270.0</course>
  <speed>0.0</speed>
  <fix>3d</fix>
</trkpt>
<trkpt lat="-27.2744392" lon="151.2900641">
  <ele>343.1</ele>
  <time>2026-09-01T19:51:37Z</time>
  <course>10.75</course>
  <speed>0.022360679774997897</speed>
  <fix>3d</fix>
</trkpt>
<trkpt lat="-27.274439" lon="151.290064">
  <ele>343.1</ele>
  <time>2026-09-01T19:51:37Z</time>
  <course>270.0</course>
  <speed>0.0</speed>
  <fix>3d</fix>
</trkpt>
<trkpt lat="-27.2744392" lon="151.2900641">
  <ele>343.09</ele>
  <time>2026-09-01T19:51:37Z</time>
  <course>10.75</course>
  <speed>0.022360679774997897</speed>
  <fix>3d</fix>
</trkpt>
<trkpt lat="-27.274439" lon="151.290064">
  <ele>343.1</ele>
  <time>2026-09-01T19:51:37Z</time>
  <course>270.0</course>
  <speed>0.0</speed>
  <fix>3d</fix>
</trkpt>
<trkpt lat="-27.2744392" lon="151.2900641">
  <ele>343.09</ele>
  <time>2026-09-01T19:51:37Z</time>
  <course>10.75</course>
  <speed>0.022360679774997897</speed>
  <fix>3d</fix>
</trkpt>
<trkpt lat="-27.274439" lon="151.290064">
  <ele>343.1</ele>
  <time>2026-09-01T19:51:37Z</time>
  <course>270.0</course>
  <speed>0.0</speed>
  <fix>3d</fix>
</trkpt>
<trkpt lat="-27.2744392" lon="151.2900641">
  <ele>343.1</ele>
  <time>2026-09-01T19:51:37Z</time>
  <course>10.75</course>
  <speed>0.022360679774997897</speed>
  <fix>3d</fix>
</trkpt>
<trkpt lat="-27.274439" lon="151.290064">
  <ele>343.1</ele>
  <time>2026-09-01T19:51:37Z</time>
  <course>270.0</course>
  <speed>0.0</speed>
  <fix>3d</fix>
</trkpt>
<trkpt lat="-27.2744392" lon="151.2900641">
  <ele>343.1</ele>
  <time>2026-09-01T19:51:37Z</time>
  <course>10.75</course>
  <speed>0.022360679774997897</speed>
  <fix>3d</fix>
</trkpt>
<trkpt lat="-27.274439" lon="151.290064">
  <ele>343.1</ele>
  <time>2026-09-01T19:51:37Z</time>
  <course>270.0</course>
  <speed>0.0</speed>
  <fix>3d</fix>
</trkpt>
<trkpt lat="-27.2744392" lon="151.2900641">
  <ele>343.1</ele>
  <time>2026-09-01T19:51:37Z</time>
  <course>10.76</course>
  <speed>0.022360679774997897</speed>
  <fix>3d</fix>
</trkpt>
<trkpt lat="-27.274439" lon="151.290064">
  <ele>343.1</ele>
  <time>2026-09-01T19:51:37Z</time>
  <course>270.0</course>
  <speed>0.0</speed>
  <fix>3d</fix>
</trkpt>
<trkpt lat="-27.2744392" lon="151.2900641">
  <ele>343.11</ele>
  <time>2026-09-01T19:51:37Z</time>
  <course>10.76</course>
  <speed>0.022360679774997897</speed>
  <fix>3d</fix>
</trkpt>
<trkpt lat="-27.274439" lon="151.290064">
  <ele>343.1</ele>
  <time>2026-09-01T19:51:37Z</time>
  <course>270.0</course>
  <speed>0.0</speed>
  <fix>3d</fix>
</trkpt>
<trkpt lat="-27.2744392" lon="151.2900641">
  <ele>343.11</ele>
  <time>2026-09-01T19:51:37Z</time>
  <course>10.76</course>
  <speed>0.022360679774997897</speed>
  <fix>3d</fix>
</trkpt>
<trkpt lat="-27.274439" lon="151.290064">
  <ele>343.1</ele>
  <time>2026-09-01T19:51:37Z</time>
  <course>270.0</course>
  <speed>0.0</speed>
  <fix>3d</fix>
</trkpt>
<trkpt lat="-27.2744392" lon="151.2900641">
  <ele>343.11</ele>
  <time>2026-09-01T19:51:37Z</time>
  <course>10.76</course>
  <speed>0.022360679774997897</speed>
  <fix>3d</fix>
</trkpt>
<trkpt lat="-27.274439" lon="151.290064">
  <ele>343.1</ele>
  <time>2026-09-01T19:51:37Z</time>
  <course>270.0</course>
  <speed>0.0</speed>
  <fix>3d</fix>
</trkpt>
<trkpt lat="-27.2744392" lon="151.2900641">
  <ele>343.11</ele>
  <time>2026-09-01T19:51:37Z</time>
  <course>10.76</course>
  <speed>0.022360679774997897</speed>
  <fix>3d</fix>
</trkpt>
<trkpt lat="-27.274439" lon="151.290064">
  <ele>343.1</ele>
  <time>2026-09-01T19:51:37Z</time>
  <course>270.0</course>
  <speed>0.0</speed>
  <fix>3d</fix>
</trkpt>
<trkpt lat="-27.2744392" lon="151.2900641">
  <ele>343.11</ele>
  <time>2026-09-01T19:51:37Z</time>
  <course>10.76</course>
  <speed>0.022360679774997897</speed>
  <fix>3d</fix>
</trkpt>
<trkpt lat="-27.274439" lon="151.290064">
  <ele>343.1</ele>
  <time>2026-09-01T19:51:37Z</time>
  <course>270.0</course>
  <speed>0.0</speed>
  <fix>3d</fix>
</trkpt>
<trkpt lat="-27.2744392" lon="151.2900641">
  <ele>343.11</ele>
  <time>2026-09-01T19:51:37Z</time>
  <course>10.76</course>
  <speed>0.022360679774997897</speed>
  <fix>3d</fix>
</trkpt>
<trkpt lat="-27.274439" lon="151.290064">
  <ele>343.1</ele>
  <time>2026-09-01T19:51:37Z</time>
  <course>270.0</course>
  <speed>0.0</speed>
  <fix>3d</fix>
</trkpt>
<trkpt lat="-27.2744392" lon="151.2900641">
  <ele>343.12</ele>
  <time>2026-09-01T19:51:37Z</time>
  <course>10.76</course>
  <speed>0.022360679774997897</speed>
  <fix>3d</fix>
</trkpt>
<trkpt lat="-27.274439" lon="151.290064">
  <ele>343.1</ele>
  <time>2026-09-01T19:51:37Z</time>
  <course>270.0</course>
  <speed>0.0</speed>
  <fix>3d</fix>
</trkpt>
<trkpt lat="-27.2744392" lon="151.2900641">
  <ele>343.12</ele>
  <time>2026-09-01T19:51:37Z</time>
  <course>10.76</course>
  <speed>0.022360679774997897</speed>
  <fix>3d</fix>
</trkpt>
<trkpt lat="-27.274439" lon="151.290064">
  <ele>343.1</ele>
  <time>2026-09-01T19:51:37Z</time>
  <course>270.0</course>
  <speed>0.0</speed>
  <fix>3d</fix>
</trkpt>
<trkpt lat="-27.2744392" lon="151.2900641">
  <ele>343.12</ele>
  <time>2026-09-01T19:51:37Z</time>
  <course>10.76</course>
  <speed>0.022360679774997897</speed>
  <fix>3d</fix>
</trkpt>
<trkpt lat="-27.274439" lon="151.290064">
  <ele>343.1</ele>
  <time>2026-09-01T19:51:37Z</time>
  <course>270.0</course>
  <speed>0.0</speed>
  <fix>3d</fix>
</trkpt>
<trkpt lat="-27.2744392" lon="151.2900641">
  <ele>343.13</ele>
  <time>2026-09-01T19:51:37Z</time>
  <course>10.76</course>
  <speed>0.022360679774997897</speed>
  <fix>3d</fix>
</trkpt>
<trkpt lat="-27.274439" lon="151.290064">
  <ele>343.1</ele>
  <time>2026-09-01T19:51:37Z</time>
  <course>270.0</course>
  <speed>0.0</speed>
  <fix>3d</fix>
</trkpt>
<trkpt lat="-27.2744392" lon="151.2900641">
  <ele>343.13</ele>
  <time>2026-09-01T19:51:37Z</time>
  <course>10.76</course>
  <speed>0.022360679774997897</speed>
  <fix>3d</fix>
</trkpt>
<trkpt lat="-27.274439" lon="151.290064">
  <ele>343.1</ele>
  <time>2026-09-01T19:51:37Z</time>
  <course>270.0</course>
  <speed>0.0</speed>
  <fix>3d</fix>
</trkpt>
<trkpt lat="-27.2744392" lon="151.2900641">
  <ele>343.13</ele>
  <time>2026-09-01T19:51:37Z</time>
  <course>10.76</course>
  <speed>0.022360679774997897</speed>
  <fix>3d</fix>
</trkpt>
<trkpt lat="-27.274439" lon="151.290064">
  <ele>343.1</ele>
  <time>2026-09-01T19:51:37Z</time>
  <course>270.0</course>
  <speed>0.0</speed>
  <fix>3d</fix>
</trkpt>
<trkpt lat="-27.2744392" lon="151.2900641">
  <ele>343.13</ele>
  <time>2026-09-01T19:51:37Z</time>
  <course>10.76</course>
  <speed>0.022360679774997897</speed>
  <fix>3d</fix>
</trkpt>
<trkpt lat="-27.274439" lon="151.290064">
  <ele>343.1</ele>
  <time>2026-09-01T19:51:37Z</time>
  <course>270.0</course>
  <speed>0.0</speed>
  <fix>3d</fix>
</trkpt>
<trkpt lat="-27.2744392" lon="151.2900641">
  <ele>343.14</ele>
  <time>2026-09-01T19:51:37Z</time>
  <course>10.77</course>
  <speed>0.022360679774997897</speed>
  <fix>3d</fix>
</trkpt>
<trkpt lat="-27.274439" lon="151.290064">
  <ele>343.1</ele>
  <time>2026-09-01T19:51:37Z</time>
  <course>270.0</course>
  <speed>0.0</speed>
  <fix>3d</fix>
</trkpt>
<trkpt lat="-27.2744392" lon="151.2900641">
  <ele>343.14</ele>
  <time>2026-09-01T19:51:37Z</time>
  <course>10.77</course>
  <speed>0.022360679774997897</speed>
  <fix>3d</fix>
</trkpt>
<trkpt lat="-27.274439" lon="151.290064">
  <ele>343.1</ele>
  <time>2026-09-01T19:51:37Z</time>
  <course>270.0</course>
  <speed>0.0</speed>
  <fix>3d</fix>
</trkpt>
<trkpt lat="-27.2744392" lon="151.2900641">
  <ele>343.14</ele>
  <time>2026-09-01T19:51:37Z</time>
  <course>10.77</course>
  <speed>0.022360679774997897</speed>
  <fix>3d</fix>
</trkpt>
<trkpt lat="-27.274439" lon="151.290064">
  <ele>343.1</ele>
  <time>2026-09-01T19:51:37Z</time>
  <course>270.0</course>
  <speed>0.0</speed>
  <fix>3d</fix>
</trkpt>
<trkpt lat="-27.2744392" lon="151.2900641">
  <ele>343.14</ele>
  <time>2026-09-01T19:51:37Z</time>
  <course>10.77</course>
  <speed>0.022360679774997897</speed>
  <fix>3d</fix>
</trkpt>
<trkpt lat="-27.274439" lon="151.290064">
  <ele>343.1</ele>
  <time>2026-09-01T19:51:37Z</time>
  <course>270.0</course>
  <speed>0.0</speed>
  <fix>3d</fix>
</trkpt>
<trkpt lat="-27.2744392" lon="151.2900641">
  <ele>343.14</ele>
  <time>2026-09-01T19:51:37Z</time>
  <course>10.77</course>
  <speed>0.022360679774997897</speed>
  <fix>3d</fix>
</trkpt>
<trkpt lat="-27.274439" lon="151.290064">
  <ele>343.1</ele>
  <time>2026-09-01T19:51:37Z</time>
  <course>270.0</course>
  <speed>0.0</speed>
  <fix>3d</fix>
</trkpt>
<trkpt lat="-27.2744392" lon="151.2900641">
  <ele>343.14</ele>
  <time>2026-09-01T19:51:37Z</time>
  <course>10.77</course>
  <speed>0.022360679774997897</speed>
  <fix>3d</fix>
</trkpt>
<trkpt lat="-27.274439" lon="151.290064">
  <ele>343.1</ele>
  <time>2026-09-01T19:51:37Z</time>
  <course>270.0</course>
  <speed>0.0</speed>
  <fix>3d</fix>
</trkpt>
<trkpt lat="-27.2744392" lon="151.2900641">
  <ele>343.14</ele>
  <time>2026-09-01T19:51:37Z</time>
  <course>10.77</course>
  <speed>0.022360679774997897</speed>
  <fix>3d</fix>
</trkpt>
<trkpt lat="-27.274439" lon="151.290064">
  <ele>343.1</ele>
  <time>2026-09-01T19:51:37Z</time>
  <course>270.0</course>
  <speed>0.0</speed>
  <fix>3d</fix>
</trkpt>
<trkpt lat="-27.2744392" lon="151.2900641">
  <ele>343.15</ele>
  <time>2026-09-01T19:51:37Z</time>
  <course>10.77</course>
  <speed>0.022360679774997897</speed>
  <fix>3d</fix>
</trkpt>
<trkpt lat="-27.274439" lon="151.290064">
  <ele>343.1</ele>
  <time>2026-09-01T19:51:37Z</time>
  <course>270.0</course>
  <speed>0.0</speed>
  <fix>3d</fix>
</trkpt>
<trkpt lat="-27.2744392" lon="151.2900641">
  <ele>343.15</ele>
  <time>2026-09-01T19:51:37Z</time>
  <course>10.77</course>
  <speed>0.022360679774997897</speed>
  <fix>3d</fix>
</trkpt>
<trkpt lat="-27.274439" lon="151.290064">
  <ele>343.1</ele>
  <time>2026-09-01T19:51:37Z</time>
  <course>270.0</course>
  <speed>0.0</speed>
  <fix>3d</fix>
</trkpt>
<trkpt lat="-27.2744392" lon="151.2900641">
  <ele>343.15</ele>
  <time>2026-09-01T19:51:37Z</time>
  <course>10.77</course>
  <speed>0.022360679774997897</speed>
  <fix>3d</fix>
</trkpt>
<trkpt lat="-27.274439" lon="151.290064">
  <ele>343.1</ele>
  <time>2026-09-01T19:51:37Z</time>
  <course>270.0</course>
  <speed>0.0</speed>
  <fix>3d</fix>
</trkpt>
<trkpt lat="-27.2744392" lon="151.2900641">
  <ele>343.16</ele>
  <time>2026-09-01T19:51:37Z</time>
  <course>10.77</course>
  <speed>0.022360679774997897</speed>
  <fix>3d</fix>
</trkpt>
<trkpt lat="-27.274439" lon="151.290064">
  <ele>343.1</ele>
  <time>2026-09-01T19:51:37Z</time>
  <course>270.0</course>
  <speed>0.0</speed>
  <fix>3d</fix>
</trkpt>
<trkpt lat="-27.2744392" lon="151.2900641">
  <ele>343.16</ele>
  <time>2026-09-01T19:51:38Z</time>
  <course>10.77</course>
  <speed>0.022360679774997897</speed>
  <fix>3d</fix>
</trkpt>
<trkpt lat="-27.274439" lon="151.290064">
  <ele>343.1</ele>
  <time>2026-09-01T19:51:38Z</time>
  <course>270.0</course>
  <speed>0.0</speed>
  <fix>3d</fix>
</trkpt>
<trkpt lat="-27.2744392" lon="151.2900641">
  <ele>343.17</ele>
  <time>2026-09-01T19:51:38Z</time>
  <course>10.77</course>
  <speed>0.022360679774997897</speed>
  <fix>3d</fix>
</trkpt>
<trkpt lat="-27.274439" lon="151.290064">
  <ele>343.1</ele>
  <time>2026-09-01T19:51:38Z</time>
  <course>270.0</course>
  <speed>0.0</speed>
  <fix>3d</fix>
</trkpt>
<trkpt lat="-27.2744392" lon="151.2900641">
  <ele>343.17</ele>
  <time>2026-09-01T19:51:38Z</time>
  <course>10.77</course>
  <speed>0.022360679774997897</speed>
  <fix>3d</fix>
</trkpt>
<trkpt lat="-27.274439" lon="151.290064">
  <ele>343.1</ele>
  <time>2026-09-01T19:51:38Z</time>
  <course>270.0</course>
  <speed>0.0</speed>
  <fix>3d</fix>
</trkpt>
<trkpt lat="-27.2744392" lon="151.2900641">
  <ele>343.17</ele>
  <time>2026-09-01T19:51:38Z</time>
  <course>10.77</course>
  <speed>0.022360679774997897</speed>
  <fix>3d</fix>
</trkpt>
<trkpt lat="-27.274439" lon="151.290064">
  <ele>343.1</ele>
  <time>2026-09-01T19:51:38Z</time>
  <course>270.0</course>
  <speed>0.0</speed>
  <fix>3d</fix>
</trkpt>
<trkpt lat="-27.2744392" lon="151.2900641">
  <ele>343.17</ele>
  <time>2026-09-01T19:51:38Z</time>
  <course>10.78</course>
  <speed>0.022360679774997897</speed>
  <fix>3d</fix>
</trkpt>
<trkpt lat="-27.274439" lon="151.290064">
  <ele>343.1</ele>
  <time>2026-09-01T19:51:38Z</time>
  <course>270.0</course>
  <speed>0.0</speed>
  <fix>3d</fix>
</trkpt>
<trkpt lat="-27.2744392" lon="151.2900641">
  <ele>343.18</ele>
  <time>2026-09-01T19:51:38Z</time>
  <course>10.78</course>
  <speed>0.022360679774997897</speed>
  <fix>3d</fix>
</trkpt>
<trkpt lat="-27.274439" lon="151.290064">
  <ele>343.1</ele>
  <time>2026-09-01T19:51:38Z</time>
  <course>270.0</course>
  <speed>0.0</speed>
  <fix>3d</fix>
</trkpt>
<trkpt lat="-27.2744392" lon="151.2900641">
  <ele>343.18</ele>
  <time>2026-09-01T19:51:38Z</time>
  <course>10.78</course>
  <speed>0.022360679774997897</speed>
  <fix>3d</fix>
</trkpt>
<trkpt lat="-27.274439" lon="151.290064">
  <ele>343.1</ele>
  <time>2026-09-01T19:51:38Z</time>
  <course>270.0</course>
  <speed>0.0</speed>
  <fix>3d</fix>
</trkpt>
<trkpt lat="-27.2744392" lon="151.2900641">
  <ele>343.18</ele>
  <time>2026-09-01T19:51:38Z</time>
  <course>10.78</course>
  <speed>0.022360679774997897</speed>
  <fix>3d</fix>
</trkpt>
<trkpt lat="-27.274439" lon="151.290064">
  <ele>343.1</ele>
  <time>2026-09-01T19:51:38Z</time>
  <course>270.0</course>
  <speed>0.0</speed>
  <fix>3d</fix>
</trkpt>
<trkpt lat="-27.2744392" lon="151.2900641">
  <ele>343.19</ele>
  <time>2026-09-01T19:51:38Z</time>
  <course>10.78</course>
  <speed>0.022360679774997897</speed>
  <fix>3d</fix>
</trkpt>
<trkpt lat="-27.274439" lon="151.290064">
  <ele>343.1</ele>
  <time>2026-09-01T19:51:38Z</time>
  <course>270.0</course>
  <speed>0.0</speed>
  <fix>3d</fix>
</trkpt>
<trkpt lat="-27.2744392" lon="151.2900641">
  <ele>343.19</ele>
  <time>2026-09-01T19:51:38Z</time>
  <course>10.78</course>
  <speed>0.022360679774997897</speed>
  <fix>3d</fix>
</trkpt>
<trkpt lat="-27.274439" lon="151.290064">
  <ele>343.1</ele>
  <time>2026-09-01T19:51:38Z</time>
  <course>270.0</course>
  <speed>0.0</speed>
  <fix>3d</fix>
</trkpt>
<trkpt lat="-27.2744392" lon="151.2900641">
  <ele>343.19</ele>
  <time>2026-09-01T19:51:38Z</time>
  <course>10.78</course>
  <speed>0.022360679774997897</speed>
  <fix>3d</fix>
</trkpt>
<trkpt lat="-27.274439" lon="151.290064">
  <ele>343.1</ele>
  <time>2026-09-01T19:51:38Z</time>
  <course>270.0</course>
  <speed>0.0</speed>
  <fix>3d</fix>
</trkpt>
<trkpt lat="-27.2744392" lon="151.2900641">
  <ele>343.19</ele>
  <time>2026-09-01T19:51:38Z</time>
  <course>10.78</course>
  <speed>0.022360679774997897</speed>
  <fix>3d</fix>
</trkpt>
<trkpt lat="-27.274439" lon="151.290064">
  <ele>343.1</ele>
  <time>2026-09-01T19:51:38Z</time>
  <course>270.0</course>
  <speed>0.0</speed>
  <fix>3d</fix>
</trkpt>
<trkpt lat="-27.2744392" lon="151.2900641">
  <ele>343.19</ele>
  <time>2026-09-01T19:51:38Z</time>
  <course>10.78</course>
  <speed>0.022360679774997897</speed>
  <fix>3d</fix>
</trkpt>
<trkpt lat="-27.274439" lon="151.290064">
  <ele>343.1</ele>
  <time>2026-09-01T19:51:38Z</time>
  <course>270.0</course>
  <speed>0.0</speed>
  <fix>3d</fix>
</trkpt>
<trkpt lat="-27.2744392" lon="151.2900641">
  <ele>343.19</ele>
  <time>2026-09-01T19:51:38Z</time>
  <course>10.78</course>
  <speed>0.022360679774997897</speed>
  <fix>3d</fix>
</trkpt>
<trkpt lat="-27.274439" lon="151.290064">
  <ele>343.1</ele>
  <time>2026-09-01T19:51:38Z</time>
  <course>270.0</course>
  <speed>0.0</speed>
  <fix>3d</fix>
</trkpt>
<trkpt lat="-27.2744392" lon="151.2900641">
  <ele>343.19</ele>
  <time>2026-09-01T19:51:38Z</time>
  <course>10.78</course>
  <speed>0.022360679774997897</speed>
  <fix>3d</fix>
</trkpt>
<trkpt lat="-27.274439" lon="151.290064">
  <ele>343.1</ele>
  <time>2026-09-01T19:51:38Z</time>
  <course>270.0</course>
  <speed>0.0</speed>
  <fix>3d</fix>
</trkpt>
<trkpt lat="-27.2744392" lon="151.2900641">
  <ele>343.19</ele>
  <time>2026-09-01T19:51:38Z</time>
  <course>10.78</course>
  <speed>0.022360679774997897</speed>
  <fix>3d</fix>
</trkpt>
<trkpt lat="-27.274439" lon="151.290064">
  <ele>343.1</ele>
  <time>2026-09-01T19:51:38Z</time>
  <course>270.0</course>
  <speed>0.0</speed>
  <fix>3d</fix>
</trkpt>
<trkpt lat="-27.2744392" lon="151.2900641">
  <ele>343.19</ele>
  <time>2026-09-01T19:51:38Z</time>
  <course>10.78</course>
  <speed>0.022360679774997897</speed>
  <fix>3d</fix>
</trkpt>
<trkpt lat="-27.274439" lon="151.290064">
  <ele>343.1</ele>
  <time>2026-09-01T19:51:38Z</time>
  <course>270.0</course>
  <speed>0.0</speed>
  <fix>3d</fix>
</trkpt>
<trkpt lat="-27.2744392" lon="151.2900641">
  <ele>343.2</ele>
  <time>2026-09-01T19:51:38Z</time>
  <course>10.79</course>
  <speed>0.022360679774997897</speed>
  <fix>3d</fix>
</trkpt>
<trkpt lat="-27.274439" lon="151.290064">
  <ele>343.1</ele>
  <time>2026-09-01T19:51:38Z</time>
  <course>270.0</course>
  <speed>0.0</speed>
  <fix>3d</fix>
</trkpt>
<trkpt lat="-27.2744392" lon="151.2900641">
  <ele>343.2</ele>
  <time>2026-09-01T19:51:38Z</time>
  <course>10.79</course>
  <speed>0.022360679774997897</speed>
  <fix>3d</fix>
</trkpt>
<trkpt lat="-27.274439" lon="151.290064">
  <ele>343.1</ele>
  <time>2026-09-01T19:51:38Z</time>
  <course>270.0</course>
  <speed>0.0</speed>
  <fix>3d</fix>
</trkpt>
<trkpt lat="-27.2744392" lon="151.2900641">
  <ele>343.2</ele>
  <time>2026-09-01T19:51:38Z</time>
  <course>10.79</course>
  <speed>0.022360679774997897</speed>
  <fix>3d</fix>
</trkpt>
<trkpt lat="-27.274439" lon="151.290064">
  <ele>343.1</ele>
  <time>2026-09-01T19:51:38Z</time>
  <course>270.0</course>
  <speed>0.0</speed>
  <fix>3d</fix>
</trkpt>
<trkpt lat="-27.2744392" lon="151.2900641">
  <ele>343.2</ele>
  <time>2026-09-01T19:51:38Z</time>
  <course>10.79</course>
  <speed>0.022360679774997897</speed>
  <fix>3d</fix>
</trkpt>
<trkpt lat="-27.274439" lon="151.290064">
  <ele>343.1</ele>
  <time>2026-09-01T19:51:38Z</time>
  <course>270.0</course>
  <speed>0.0</speed>
  <fix>3d</fix>
</trkpt>
<trkpt lat="-27.2744392" lon="151.2900641">
  <ele>343.2</ele>
  <time>2026-09-01T19:51:38Z</time>
  <course>10.79</course>
  <speed>0.022360679774997897</speed>
  <fix>3d</fix>
</trkpt>
<trkpt lat="-27.274439" lon="151.290064">
  <ele>343.1</ele>
  <time>2026-09-01T19:51:38Z</time>
  <course>270.0</course>
  <speed>0.0</speed>
  <fix>3d</fix>
</trkpt>
<trkpt lat="-27.2744392" lon="151.2900641">
  <ele>343.2</ele>
  <time>2026-09-01T19:51:38Z</time>
  <course>10.79</course>
  <speed>0.022360679774997897</speed>
  <fix>3d</fix>
</trkpt>
<trkpt lat="-27.274439" lon="151.290064">
  <ele>343.1</ele>
  <time>2026-09-01T19:51:38Z</time>
  <course>270.0</course>
  <speed>0.0</speed>
  <fix>3d</fix>
</trkpt>
<trkpt lat="-27.2744392" lon="151.2900641">
  <ele>343.2</ele>
  <time>2026-09-01T19:51:38Z</time>
  <course>10.79</course>
  <speed>0.022360679774997897</speed>
  <fix>3d</fix>
</trkpt>
<trkpt lat="-27.274439" lon="151.290064">
  <ele>343.1</ele>
  <time>2026-09-01T19:51:38Z</time>
  <course>270.0</course>
  <speed>0.0</speed>
  <fix>3d</fix>
</trkpt>
<trkpt lat="-27.2744392" lon="151.2900641">
  <ele>343.2</ele>
  <time>2026-09-01T19:51:38Z</time>
  <course>10.79</course>
  <speed>0.022360679774997897</speed>
  <fix>3d</fix>
</trkpt>
<trkpt lat="-27.274439" lon="151.290064">
  <ele>343.1</ele>
  <time>2026-09-01T19:51:38Z</time>
  <course>270.0</course>
  <speed>0.0</speed>
  <fix>3d</fix>
</trkpt>
<trkpt lat="-27.2744392" lon="151.2900641">
  <ele>343.2</ele>
  <time>2026-09-01T19:51:38Z</time>
  <course>10.79</course>
  <speed>0.022360679774997897</speed>
  <fix>3d</fix>
</trkpt>
<trkpt lat="-27.274439" lon="151.290064">
  <ele>343.1</ele>
  <time>2026-09-01T19:51:38Z</time>
  <course>270.0</course>
  <speed>0.0</speed>
  <fix>3d</fix>
</trkpt>
<trkpt lat="-27.2744392" lon="151.2900641">
  <ele>343.2</ele>
  <time>2026-09-01T19:51:38Z</time>
  <course>10.79</course>
  <speed>0.022360679774997897</speed>
  <fix>3d</fix>
</trkpt>
<trkpt lat="-27.274439" lon="151.290064">
  <ele>343.1</ele>
  <time>2026-09-01T19:51:38Z</time>
  <course>270.0</course>
  <speed>0.0</speed>
  <fix>3d</fix>
</trkpt>
<trkpt lat="-27.2744392" lon="151.2900641">
  <ele>343.2</ele>
  <time>2026-09-01T19:51:38Z</time>
  <course>10.79</course>
  <speed>0.022360679774997897</speed>
  <fix>3d</fix>
</trkpt>
<trkpt lat="-27.274439" lon="151.290064">
  <ele>343.1</ele>
  <time>2026-09-01T19:51:38Z</time>
  <course>270.0</course>
  <speed>0.0</speed>
  <fix>3d</fix>
</trkpt>
<trkpt lat="-27.2744392" lon="151.2900641">
  <ele>343.21</ele>
  <time>2026-09-01T19:51:38Z</time>
  <course>10.79</course>
  <speed>0.022360679774997897</speed>
  <fix>3d</fix>
</trkpt>
<trkpt lat="-27.274439" lon="151.290064">
  <ele>343.1</ele>
  <time>2026-09-01T19:51:38Z</time>
  <course>270.0</course>
  <speed>0.0</speed>
  <fix>3d</fix>
</trkpt>
<trkpt lat="-27.2744392" lon="151.2900641">
  <ele>343.21</ele>
  <time>2026-09-01T19:51:38Z</time>
  <course>10.79</course>
  <speed>0.022360679774997897</speed>
  <fix>3d</fix>
</trkpt>
<trkpt lat="-27.274439" lon="151.290064">
  <ele>343.1</ele>
  <time>2026-09-01T19:51:38Z</time>
  <course>270.0</course>
  <speed>0.0</speed>
  <fix>3d</fix>
</trkpt>
<trkpt lat="-27.2744392" lon="151.2900641">
  <ele>343.1</ele>
  <time>2026-09-01T19:51:38Z</time>
  <course>10.8</course>
  <speed>0.022360679774997897</speed>
  <fix>3d</fix>
</trkpt>
<trkpt lat="-27.274439" lon="151.290064">
  <ele>343.1</ele>
  <time>2026-09-01T19:51:38Z</time>
  <course>270.0</course>
  <speed>0.0</speed>
  <fix>3d</fix>
</trkpt>
<trkpt lat="-27.2744392" lon="151.2900641">
  <ele>343.1</ele>
  <time>2026-09-01T19:51:38Z</time>
  <course>10.8</course>
  <speed>0.022360679774997897</speed>
  <fix>3d</fix>
</trkpt>
<trkpt lat="-27.274439" lon="151.290064">
  <ele>343.1</ele>
  <time>2026-09-01T19:51:38Z</time>
  <course>270.0</course>
  <speed>0.0</speed>
  <fix>3d</fix>
</trkpt>
<trkpt lat="-27.2744392" lon="151.2900641">
  <ele>343.1</ele>
  <time>2026-09-01T19:51:38Z</time>
  <course>10.8</course>
  <speed>0.022360679774997897</speed>
  <fix>3d</fix>
</trkpt>
<trkpt lat="-27.274439" lon="151.290064">
  <ele>343.1</ele>
  <time>2026-09-01T19:51:38Z</time>
  <course>270.0</course>
  <speed>0.0</speed>
  <fix>3d</fix>
</trkpt>
<trkpt lat="-27.2744392" lon="151.2900641">
  <ele>343.1</ele>
  <time>2026-09-01T19:51:38Z</time>
  <course>10.8</course>
  <speed>0.022360679774997897</speed>
  <fix>3d</fix>
</trkpt>
<trkpt lat="-27.274439" lon="151.290064">
  <ele>343.1</ele>
  <time>2026-09-01T19:51:38Z</time>
  <course>270.0</course>
  <speed>0.0</speed>
  <fix>3d</fix>
</trkpt>
<trkpt lat="-27.2744392" lon="151.2900641">
  <ele>343.1</ele>
  <time>2026-09-01T19:51:38Z</time>
  <course>10.8</course>
  <speed>0.022360679774997897</speed>
  <fix>3d</fix>
</trkpt>
<trkpt lat="-27.274439" lon="151.290064">
  <ele>343.1</ele>
  <time>2026-09-01T19:51:38Z</time>
  <course>270.0</course>
  <speed>0.0</speed>
  <fix>3d</fix>
</trkpt>
<trkpt lat="-27.2744392" lon="151.2900641">
  <ele>343.1</ele>
  <time>2026-09-01T19:51:38Z</time>
  <course>10.8</course>
  <speed>0.022360679774997897</speed>
  <fix>3d</fix>
</trkpt>
<trkpt lat="-27.274439" lon="151.290064">
  <ele>343.1</ele>
  <time>2026-09-01T19:51:38Z</time>
  <course>270.0</course>
  <speed>0.0</speed>
  <fix>3d</fix>
</trkpt>
<trkpt lat="-27.2744392" lon="151.2900641">
  <ele>343.1</ele>
  <time>2026-09-01T19:51:38Z</time>
  <course>10.8</course>
  <speed>0.022360679774997897</speed>
  <fix>3d</fix>
</trkpt>
<trkpt lat="-27.274439" lon="151.290064">
  <ele>343.1</ele>
  <time>2026-09-01T19:51:38Z</time>
  <course>270.0</course>
  <speed>0.0</speed>
  <fix>3d</fix>
</trkpt>
<trkpt lat="-27.2744392" lon="151.2900641">
  <ele>343.1</ele>
  <time>2026-09-01T19:51:38Z</time>
  <course>10.8</course>
  <speed>0.022360679774997897</speed>
  <fix>3d</fix>
</trkpt>
<trkpt lat="-27.274439" lon="151.290064">
  <ele>343.1</ele>
  <time>2026-09-01T19:51:38Z</time>
  <course>270.0</course>
  <speed>0.0</speed>
  <fix>3d</fix>
</trkpt>
<trkpt lat="-27.2744392" lon="151.2900641">
  <ele>343.1</ele>
  <time>2026-09-01T19:51:38Z</time>
  <course>10.8</course>
  <speed>0.022360679774997897</speed>
  <fix>3d</fix>
</trkpt>
<trkpt lat="-27.274439" lon="151.290064">
  <ele>343.1</ele>
  <time>2026-09-01T19:51:38Z</time>
  <course>270.0</course>
  <speed>0.0</speed>
  <fix>3d</fix>
</trkpt>
<trkpt lat="-27.2744392" lon="151.2900641">
  <ele>343.1</ele>
  <time>2026-09-01T19:51:38Z</time>
  <course>10.8</course>
  <speed>0.022360679774997897</speed>
  <fix>3d</fix>
</trkpt>
<trkpt lat="-27.274439" lon="151.290064">
  <ele>343.1</ele>
  <time>2026-09-01T19:51:38Z</time>
  <course>270.0</course>
  <speed>0.0</speed>
  <fix>3d</fix>
</trkpt>
<trkpt lat="-27.2744392" lon="151.2900641">
  <ele>343.1</ele>
  <time>2026-09-01T19:51:38Z</time>
  <course>10.8</course>
  <speed>0.022360679774997897</speed>
  <fix>3d</fix>
</trkpt>
<trkpt lat="-27.274439" lon="151.290064">
  <ele>343.1</ele>
  <time>2026-09-01T19:51:38Z</time>
  <course>270.0</course>
  <speed>0.0</speed>
  <fix>3d</fix>
</trkpt>
<trkpt lat="-27.2744392" lon="151.2900641">
  <ele>343.1</ele>
  <time>2026-09-01T19:51:38Z</time>
  <course>10.8</course>
  <speed>0.022360679774997897</speed>
  <fix>3d</fix>
</trkpt>
<trkpt lat="-27.274439" lon="151.290064">
  <ele>343.1</ele>
  <time>2026-09-01T19:51:38Z</time>
  <course>270.0</course>
  <speed>0.0</speed>
  <fix>3d</fix>
</trkpt>
<trkpt lat="-27.2744392" lon="151.2900641">
  <ele>343.1</ele>
  <time>2026-09-01T19:51:38Z</time>
  <course>10.81</course>
  <speed>0.022360679774997897</speed>
  <fix>3d</fix>
</trkpt>
<trkpt lat="-27.274439" lon="151.290064">
  <ele>343.1</ele>
  <time>2026-09-01T19:51:38Z</time>
  <course>270.0</course>
  <speed>0.0</speed>
  <fix>3d</fix>
</trkpt>
<trkpt lat="-27.2744392" lon="151.2900641">
  <ele>343.1</ele>
  <time>2026-09-01T19:51:38Z</time>
  <course>10.81</course>
  <speed>0.022360679774997897</speed>
  <fix>3d</fix>
</trkpt>
<trkpt lat="-27.274439" lon="151.290064">
  <ele>343.1</ele>
  <time>2026-09-01T19:51:38Z</time>
  <course>270.0</course>
  <speed>0.0</speed>
  <fix>3d</fix>
</trkpt>
<trkpt lat="-27.2744392" lon="151.2900641">
  <ele>343.1</ele>
  <time>2026-09-01T19:51:38Z</time>
  <course>10.81</course>
  <speed>0.022360679774997897</speed>
  <fix>3d</fix>
</trkpt>
<trkpt lat="-27.274439" lon="151.290064">
  <ele>343.1</ele>
  <time>2026-09-01T19:51:38Z</time>
  <course>270.0</course>
  <speed>0.0</speed>
  <fix>3d</fix>
</trkpt>
<trkpt lat="-27.2744392" lon="151.2900641">
  <ele>343.1</ele>
  <time>2026-09-01T19:51:38Z</time>
  <course>10.81</course>
  <speed>0.022360679774997897</speed>
  <fix>3d</fix>
</trkpt>
<trkpt lat="-27.274439" lon="151.290064">
  <ele>343.1</ele>
  <time>2026-09-01T19:51:38Z</time>
  <course>270.0</course>
  <speed>0.0</speed>
  <fix>3d</fix>
</trkpt>
<trkpt lat="-27.2744392" lon="151.2900641">
  <ele>343.1</ele>
  <time>2026-09-01T19:51:38Z</time>
  <course>10.81</course>
  <speed>0.022360679774997897</speed>
  <fix>3d</fix>
</trkpt>
<trkpt lat="-27.274439" lon="151.290064">
  <ele>343.1</ele>
  <time>2026-09-01T19:51:38Z</time>
  <course>270.0</course>
  <speed>0.0</speed>
  <fix>3d</fix>
</trkpt>
<trkpt lat="-27.2744392" lon="151.2900641">
  <ele>343.1</ele>
  <time>2026-09-01T19:51:38Z</time>
  <course>10.81</course>
  <speed>0.022360679774997897</speed>
  <fix>3d</fix>
</trkpt>
<trkpt lat="-27.274439" lon="151.290064">
  <ele>343.1</ele>
  <time>2026-09-01T19:51:38Z</time>
  <course>270.0</course>
  <speed>0.0</speed>
  <fix>3d</fix>
</trkpt>
<trkpt lat="-27.2744392" lon="151.2900641">
  <ele>343.1</ele>
  <time>2026-09-01T19:51:38Z</time>
  <course>10.81</course>
  <speed>0.022360679774997897</speed>
  <fix>3d</fix>
</trkpt>
<trkpt lat="-27.274439" lon="151.290064">
  <ele>343.1</ele>
  <time>2026-09-01T19:51:38Z</time>
  <course>270.0</course>
  <speed>0.0</speed>
  <fix>3d</fix>
</trkpt>
<trkpt lat="-27.2744392" lon="151.2900641">
  <ele>343.1</ele>
  <time>2026-09-01T19:51:38Z</time>
  <course>10.81</course>
  <speed>0.022360679774997897</speed>
  <fix>3d</fix>
</trkpt>
<trkpt lat="-27.274439" lon="151.290064">
  <ele>343.1</ele>
  <time>2026-09-01T19:51:38Z</time>
  <course>270.0</course>
  <speed>0.0</speed>
  <fix>3d</fix>
</trkpt>
<trkpt lat="-27.2744392" lon="151.2900641">
  <ele>343.11</ele>
  <time>2026-09-01T19:51:38Z</time>
  <course>10.81</course>
  <speed>0.022360679774997897</speed>
  <fix>3d</fix>
</trkpt>
<trkpt lat="-27.274439" lon="151.290064">
  <ele>343.1</ele>
  <time>2026-09-01T19:51:38Z</time>
  <course>270.0</course>
  <speed>0.0</speed>
  <fix>3d</fix>
</trkpt>
<trkpt lat="-27.2744392" lon="151.2900641">
  <ele>343.11</ele>
  <time>2026-09-01T19:51:38Z</time>
  <course>10.81</course>
  <speed>0.022360679774997897</speed>
  <fix>3d</fix>
</trkpt>
<trkpt lat="-27.274439" lon="151.290064">
  <ele>343.1</ele>
  <time>2026-09-01T19:51:38Z</time>
  <course>270.0</course>
  <speed>0.0</speed>
  <fix>3d</fix>
</trkpt>
<trkpt lat="-27.2744392" lon="151.2900641">
  <ele>343.11</ele>
  <time>2026-09-01T19:51:38Z</time>
  <course>10.81</course>
  <speed>0.022360679774997897</speed>
  <fix>3d</fix>
</trkpt>
<trkpt lat="-27.274439" lon="151.290064">
  <ele>343.1</ele>
  <time>2026-09-01T19:51:38Z</time>
  <course>270.0</course>
  <speed>0.0</speed>
  <fix>3d</fix>
</trkpt>
<trkpt lat="-27.2744392" lon="151.2900641">
  <ele>343.11</ele>
  <time>2026-09-01T19:51:38Z</time>
  <course>10.81</course>
  <speed>0.022360679774997897</speed>
  <fix>3d</fix>
</trkpt>
<trkpt lat="-27.274439" lon="151.290064">
  <ele>343.1</ele>
  <time>2026-09-01T19:51:38Z</time>
  <course>270.0</course>
  <speed>0.0</speed>
  <fix>3d</fix>
</trkpt>
<trkpt lat="-27.2744392" lon="151.2900641">
  <ele>343.11</ele>
  <time>2026-09-01T19:51:38Z</time>
  <course>10.81</course>
  <speed>0.022360679774997897</speed>
  <fix>3d</fix>
</trkpt>
<trkpt lat="-27.274439" lon="151.290064">
  <ele>343.1</ele>
  <time>2026-09-01T19:51:38Z</time>
  <course>270.0</course>
  <speed>0.0</speed>
  <fix>3d</fix>
</trkpt>
<trkpt lat="-27.2744392" lon="151.2900641">
  <ele>343.11</ele>
  <time>2026-09-01T19:51:38Z</time>
  <course>10.82</course>
  <speed>0.022360679774997897</speed>
  <fix>3d</fix>
</trkpt>
<trkpt lat="-27.274439" lon="151.290064">
  <ele>343.1</ele>
  <time>2026-09-01T19:51:38Z</time>
  <course>270.0</course>
  <speed>0.0</speed>
  <fix>3d</fix>
</trkpt>
<trkpt lat="-27.2744392" lon="151.2900641">
  <ele>343.11</ele>
  <time>2026-09-01T19:51:38Z</time>
  <course>10.82</course>
  <speed>0.022360679774997897</speed>
  <fix>3d</fix>
</trkpt>
<trkpt lat="-27.274439" lon="151.290064">
  <ele>343.1</ele>
  <time>2026-09-01T19:51:38Z</time>
  <course>270.0</course>
  <speed>0.0</speed>
  <fix>3d</fix>
</trkpt>
<trkpt lat="-27.2744392" lon="151.2900641">
  <ele>343.11</ele>
  <time>2026-09-01T19:51:38Z</time>
  <course>10.82</course>
  <speed>0.022360679774997897</speed>
  <fix>3d</fix>
</trkpt>
<trkpt lat="-27.274439" lon="151.290064">
  <ele>343.1</ele>
  <time>2026-09-01T19:51:38Z</time>
  <course>270.0</course>
  <speed>0.0</speed>
  <fix>3d</fix>
</trkpt>
<trkpt lat="-27.2744392" lon="151.2900641">
  <ele>343.11</ele>
  <time>2026-09-01T19:51:38Z</time>
  <course>10.82</course>
  <speed>0.022360679774997897</speed>
  <fix>3d</fix>
</trkpt>
<trkpt lat="-27.274439" lon="151.290064">
  <ele>343.1</ele>
  <time>2026-09-01T19:51:38Z</time>
  <course>270.0</course>
  <speed>0.0</speed>
  <fix>3d</fix>
</trkpt>
<trkpt lat="-27.2744392" lon="151.2900641">
  <ele>343.11</ele>
  <time>2026-09-01T19:51:38Z</time>
  <course>10.82</course>
  <speed>0.022360679774997897</speed>
  <fix>3d</fix>
</trkpt>
<trkpt lat="-27.274439" lon="151.290064">
  <ele>343.1</ele>
  <time>2026-09-01T19:51:38Z</time>
  <course>270.0</course>
  <speed>0.0</speed>
  <fix>3d</fix>
</trkpt>
<trkpt lat="-27.2744392" lon="151.2900641">
  <ele>343.11</ele>
  <time>2026-09-01T19:51:38Z</time>
  <course>10.82</course>
  <speed>0.022360679774997897</speed>
  <fix>3d</fix>
</trkpt>
<trkpt lat="-27.274439" lon="151.290064">
  <ele>343.1</ele>
  <time>2026-09-01T19:51:38Z</time>
  <course>270.0</course>
  <speed>0.0</speed>
  <fix>3d</fix>
</trkpt>
<trkpt lat="-27.2744392" lon="151.2900641">
  <ele>343.12</ele>
  <time>2026-09-01T19:51:38Z</time>
  <course>10.82</course>
  <speed>0.022360679774997897</speed>
  <fix>3d</fix>
</trkpt>
<trkpt lat="-27.274439" lon="151.290064">
  <ele>343.1</ele>
  <time>2026-09-01T19:51:38Z</time>
  <course>270.0</course>
  <speed>0.0</speed>
  <fix>3d</fix>
</trkpt>
<trkpt lat="-27.2744392" lon="151.2900641">
  <ele>343.12</ele>
  <time>2026-09-01T19:51:38Z</time>
  <course>10.82</course>
  <speed>0.022360679774997897</speed>
  <fix>3d</fix>
</trkpt>
<trkpt lat="-27.274439" lon="151.290064">
  <ele>343.1</ele>
  <time>2026-09-01T19:51:38Z</time>
  <course>270.0</course>
  <speed>0.0</speed>
  <fix>3d</fix>
</trkpt>
<trkpt lat="-27.2744392" lon="151.2900641">
  <ele>343.12</ele>
  <time>2026-09-01T19:51:38Z</time>
  <course>10.82</course>
  <speed>0.022360679774997897</speed>
  <fix>3d</fix>
</trkpt>
<trkpt lat="-27.274439" lon="151.290064">
  <ele>343.1</ele>
  <time>2026-09-01T19:51:38Z</time>
  <course>270.0</course>
  <speed>0.0</speed>
  <fix>3d</fix>
</trkpt>
<trkpt lat="-27.2744392" lon="151.2900641">
  <ele>343.12</ele>
  <time>2026-09-01T19:51:38Z</time>
  <course>10.82</course>
  <speed>0.022360679774997897</speed>
  <fix>3d</fix>
</trkpt>
<trkpt lat="-27.274439" lon="151.290064">
  <ele>343.1</ele>
  <time>2026-09-01T19:51:38Z</time>
  <course>270.0</course>
  <speed>0.0</speed>
  <fix>3d</fix>
</trkpt>
<trkpt lat="-27.2744392" lon="151.2900641">
  <ele>343.12</ele>
  <time>2026-09-01T19:51:38Z</time>
  <course>10.82</course>
  <speed>0.022360679774997897</speed>
  <fix>3d</fix>
</trkpt>
<trkpt lat="-27.274439" lon="151.290064">
  <ele>343.1</ele>
  <time>2026-09-01T19:51:38Z</time>
  <course>270.0</course>
  <speed>0.0</speed>
  <fix>3d</fix>
</trkpt>
<trkpt lat="-27.2744392" lon="151.2900641">
  <ele>343.12</ele>
  <time>2026-09-01T19:51:38Z</time>
  <course>10.82</course>
  <speed>0.022360679774997897</speed>
  <fix>3d</fix>
</trkpt>
<trkpt lat="-27.274439" lon="151.290064">
  <ele>343.1</ele>
  <time>2026-09-01T19:51:38Z</time>
  <course>270.0</course>
  <speed>0.0</speed>
  <fix>3d</fix>
</trkpt>
<trkpt lat="-27.2744392" lon="151.2900641">
  <ele>343.12</ele>
  <time>2026-09-01T19:51:38Z</time>
  <course>10.82</course>
  <speed>0.022360679774997897</speed>
  <fix>3d</fix>
</trkpt>
<trkpt lat="-27.274439" lon="151.290064">
  <ele>343.1</ele>
  <time>2026-09-01T19:51:38Z</time>
  <course>270.0</course>
  <speed>0.0</speed>
  <fix>3d</fix>
</trkpt>
<trkpt lat="-27.2744392" lon="151.2900641">
  <ele>343.12</ele>
  <time>2026-09-01T19:51:38Z</time>
  <course>10.83</course>
  <speed>0.022360679774997897</speed>
  <fix>3d</fix>
</trkpt>
<trkpt lat="-27.274439" lon="151.290064">
  <ele>343.1</ele>
  <time>2026-09-01T19:51:38Z</time>
  <course>270.0</course>
  <speed>0.0</speed>
  <fix>3d</fix>
</trkpt>
<trkpt lat="-27.2744392" lon="151.2900641">
  <ele>343.13</ele>
  <time>2026-09-01T19:51:38Z</time>
  <course>10.83</course>
  <speed>0.022360679774997897</speed>
  <fix>3d</fix>
</trkpt>
<trkpt lat="-27.274439" lon="151.290064">
  <ele>343.1</ele>
  <time>2026-09-01T19:51:38Z</time>
  <course>270.0</course>
  <speed>0.0</speed>
  <fix>3d</fix>
</trkpt>
<trkpt lat="-27.2744392" lon="151.2900641">
  <ele>343.13</ele>
  <time>2026-09-01T19:51:38Z</time>
  <course>10.83</course>
  <speed>0.022360679774997897</speed>
  <fix>3d</fix>
</trkpt>
<trkpt lat="-27.274439" lon="151.290064">
  <ele>343.1</ele>
  <time>2026-09-01T19:51:38Z</time>
  <course>270.0</course>
  <speed>0.0</speed>
  <fix>3d</fix>
</trkpt>
<trkpt lat="-27.2744392" lon="151.2900641">
  <ele>343.13</ele>
  <time>2026-09-01T19:51:38Z</time>
  <course>10.83</course>
  <speed>0.022360679774997897</speed>
  <fix>3d</fix>
</trkpt>
<trkpt lat="-27.274439" lon="151.290064">
  <ele>343.1</ele>
  <time>2026-09-01T19:51:38Z</time>
  <course>270.0</course>
  <speed>0.0</speed>
  <fix>3d</fix>
</trkpt>
<trkpt lat="-27.2744392" lon="151.2900641">
  <ele>343.13</ele>
  <time>2026-09-01T19:51:38Z</time>
  <course>10.83</course>
  <speed>0.022360679774997897</speed>
  <fix>3d</fix>
</trkpt>
<trkpt lat="-27.274439" lon="151.290064">
  <ele>343.1</ele>
  <time>2026-09-01T19:51:38Z</time>
  <course>270.0</course>
  <speed>0.0</speed>
  <fix>3d</fix>
</trkpt>
<trkpt lat="-27.2744392" lon="151.2900641">
  <ele>343.13</ele>
  <time>2026-09-01T19:51:38Z</time>
  <course>10.83</course>
  <speed>0.022360679774997897</speed>
  <fix>3d</fix>
</trkpt>
<trkpt lat="-27.274439" lon="151.290064">
  <ele>343.1</ele>
  <time>2026-09-01T19:51:38Z</time>
  <course>270.0</course>
  <speed>0.0</speed>
  <fix>3d</fix>
</trkpt>
<trkpt lat="-27.2744392" lon="151.2900641">
  <ele>343.13</ele>
  <time>2026-09-01T19:51:38Z</time>
  <course>10.83</course>
  <speed>0.022360679774997897</speed>
  <fix>3d</fix>
</trkpt>
<trkpt lat="-27.274439" lon="151.290064">
  <ele>343.1</ele>
  <time>2026-09-01T19:51:38Z</time>
  <course>270.0</course>
  <speed>0.0</speed>
  <fix>3d</fix>
</trkpt>
<trkpt lat="-27.2744392" lon="151.2900641">
  <ele>343.13</ele>
  <time>2026-09-01T19:51:38Z</time>
  <course>10.83</course>
  <speed>0.022360679774997897</speed>
  <fix>3d</fix>
</trkpt>
<trkpt lat="-27.274439" lon="151.290064">
  <ele>343.1</ele>
  <time>2026-09-01T19:51:38Z</time>
  <course>270.0</course>
  <speed>0.0</speed>
  <fix>3d</fix>
</trkpt>
<trkpt lat="-27.2744392" lon="151.2900641">
  <ele>343.13</ele>
  <time>2026-09-01T19:51:38Z</time>
  <course>10.83</course>
  <speed>0.022360679774997897</speed>
  <fix>3d</fix>
</trkpt>
<trkpt lat="-27.274439" lon="151.290064">
  <ele>343.1</ele>
  <time>2026-09-01T19:51:38Z</time>
  <course>270.0</course>
  <speed>0.0</speed>
  <fix>3d</fix>
</trkpt>
<trkpt lat="-27.2744392" lon="151.2900641">
  <ele>343.13</ele>
  <time>2026-09-01T19:51:38Z</time>
  <course>10.83</course>
  <speed>0.022360679774997897</speed>
  <fix>3d</fix>
</trkpt>
<trkpt lat="-27.274439" lon="151.290064">
  <ele>343.1</ele>
  <time>2026-09-01T19:51:38Z</time>
  <course>270.0</course>
  <speed>0.0</speed>
  <fix>3d</fix>
</trkpt>
<trkpt lat="-27.2744392" lon="151.2900641">
  <ele>343.13</ele>
  <time>2026-09-01T19:51:38Z</time>
  <course>10.83</course>
  <speed>0.022360679774997897</speed>
  <fix>3d</fix>
</trkpt>
<trkpt lat="-27.274439" lon="151.290064">
  <ele>343.1</ele>
  <time>2026-09-01T19:51:38Z</time>
  <course>270.0</course>
  <speed>0.0</speed>
  <fix>3d</fix>
</trkpt>
<trkpt lat="-27.2744392" lon="151.2900641">
  <ele>343.14</ele>
  <time>2026-09-01T19:51:38Z</time>
  <course>10.84</course>
  <speed>0.022360679774997897</speed>
  <fix>3d</fix>
</trkpt>
<trkpt lat="-27.274439" lon="151.290064">
  <ele>343.1</ele>
  <time>2026-09-01T19:51:38Z</time>
  <course>270.0</course>
  <speed>0.0</speed>
  <fix>3d</fix>
</trkpt>
<trkpt lat="-27.2744392" lon="151.2900641">
  <ele>343.14</ele>
  <time>2026-09-01T19:51:38Z</time>
  <course>10.84</course>
  <speed>0.022360679774997897</speed>
  <fix>3d</fix>
</trkpt>
<trkpt lat="-27.274439" lon="151.290064">
  <ele>343.1</ele>
  <time>2026-09-01T19:51:38Z</time>
  <course>270.0</course>
  <speed>0.0</speed>
  <fix>3d</fix>
</trkpt>
<trkpt lat="-27.2744392" lon="151.2900641">
  <ele>343.14</ele>
  <time>2026-09-01T19:51:38Z</time>
  <course>10.84</course>
  <speed>0.022360679774997897</speed>
  <fix>3d</fix>
</trkpt>
<trkpt lat="-27.274439" lon="151.290064">
  <ele>343.1</ele>
  <time>2026-09-01T19:51:38Z</time>
  <course>270.0</course>
  <speed>0.0</speed>
  <fix>3d</fix>
</trkpt>
<trkpt lat="-27.2744392" lon="151.2900641">
  <ele>343.14</ele>
  <time>2026-09-01T19:51:38Z</time>
  <course>10.84</course>
  <speed>0.022360679774997897</speed>
  <fix>3d</fix>
</trkpt>
<trkpt lat="-27.274439" lon="151.290064">
  <ele>343.1</ele>
  <time>2026-09-01T19:51:38Z</time>
  <course>270.0</course>
  <speed>0.0</speed>
  <fix>3d</fix>
</trkpt>
<trkpt lat="-27.2744392" lon="151.2900641">
  <ele>343.14</ele>
  <time>2026-09-01T19:51:38Z</time>
  <course>10.84</course>
  <speed>0.022360679774997897</speed>
  <fix>3d</fix>
</trkpt>
<trkpt lat="-27.274439" lon="151.290064">
  <ele>343.1</ele>
  <time>2026-09-01T19:51:38Z</time>
  <course>270.0</course>
  <speed>0.0</speed>
  <fix>3d</fix>
</trkpt>
<trkpt lat="-27.2744392" lon="151.2900641">
  <ele>343.14</ele>
  <time>2026-09-01T19:51:38Z</time>
  <course>10.84</course>
  <speed>0.022360679774997897</speed>
  <fix>3d</fix>
</trkpt>
<trkpt lat="-27.274439" lon="151.290064">
  <ele>343.1</ele>
  <time>2026-09-01T19:51:38Z</time>
  <course>270.0</course>
  <speed>0.0</speed>
  <fix>3d</fix>
</trkpt>
<trkpt lat="-27.2744392" lon="151.2900641">
  <ele>343.14</ele>
  <time>2026-09-01T19:51:38Z</time>
  <course>10.84</course>
  <speed>0.022360679774997897</speed>
  <fix>3d</fix>
</trkpt>
<trkpt lat="-27.274439" lon="151.290064">
  <ele>343.1</ele>
  <time>2026-09-01T19:51:38Z</time>
  <course>270.0</course>
  <speed>0.0</speed>
  <fix>3d</fix>
</trkpt>
<trkpt lat="-27.2744392" lon="151.2900641">
  <ele>343.13</ele>
  <time>2026-09-01T19:51:38Z</time>
  <course>10.84</course>
  <speed>0.022360679774997897</speed>
  <fix>3d</fix>
</trkpt>
<trkpt lat="-27.274439" lon="151.290064">
  <ele>343.1</ele>
  <time>2026-09-01T19:51:38Z</time>
  <course>270.0</course>
  <speed>0.0</speed>
  <fix>3d</fix>
</trkpt>
<trkpt lat="-27.2744392" lon="151.2900641">
  <ele>343.13</ele>
  <time>2026-09-01T19:51:38Z</time>
  <course>10.84</course>
  <speed>0.022360679774997897</speed>
  <fix>3d</fix>
</trkpt>
<trkpt lat="-27.274439" lon="151.290064">
  <ele>343.1</ele>
  <time>2026-09-01T19:51:38Z</time>
  <course>270.0</course>
  <speed>0.0</speed>
  <fix>3d</fix>
</trkpt>
<trkpt lat="-27.2744392" lon="151.2900641">
  <ele>343.14</ele>
  <time>2026-09-01T19:51:38Z</time>
  <course>10.84</course>
  <speed>0.022360679774997897</speed>
  <fix>3d</fix>
</trkpt>
<trkpt lat="-27.274439" lon="151.290064">
  <ele>343.1</ele>
  <time>2026-09-01T19:51:38Z</time>
  <course>270.0</course>
  <speed>0.0</speed>
  <fix>3d</fix>
</trkpt>
<trkpt lat="-27.2744392" lon="151.2900641">
  <ele>343.14</ele>
  <time>2026-09-01T19:51:38Z</time>
  <course>10.84</course>
  <speed>0.022360679774997897</speed>
  <fix>3d</fix>
</trkpt>
<trkpt lat="-27.274439" lon="151.290064">
  <ele>343.1</ele>
  <time>2026-09-01T19:51:38Z</time>
  <course>270.0</course>
  <speed>0.0</speed>
  <fix>3d</fix>
</trkpt>
<trkpt lat="-27.2744392" lon="151.2900641">
  <ele>343.1</ele>
  <time>2026-09-01T19:51:38Z</time>
  <course>10.84</course>
  <speed>0.022360679774997897</speed>
  <fix>3d</fix>
</trkpt>
<trkpt lat="-27.274439" lon="151.290064">
  <ele>343.1</ele>
  <time>2026-09-01T19:51:38Z</time>
  <course>270.0</course>
  <speed>0.0</speed>
  <fix>3d</fix>
</trkpt>
<trkpt lat="-27.2744392" lon="151.2900641">
  <ele>343.1</ele>
  <time>2026-09-01T19:51:38Z</time>
  <course>10.85</course>
  <speed>0.022360679774997897</speed>
  <fix>3d</fix>
</trkpt>
<trkpt lat="-27.274439" lon="151.290064">
  <ele>343.1</ele>
  <time>2026-09-01T19:51:38Z</time>
  <course>270.0</course>
  <speed>0.0</speed>
  <fix>3d</fix>
</trkpt>
<trkpt lat="-27.2744392" lon="151.2900641">
  <ele>343.1</ele>
  <time>2026-09-01T19:51:38Z</time>
  <course>10.85</course>
  <speed>0.022360679774997897</speed>
  <fix>3d</fix>
</trkpt>
<trkpt lat="-27.274439" lon="151.290064">
  <ele>343.1</ele>
  <time>2026-09-01T19:51:38Z</time>
  <course>270.0</course>
  <speed>0.0</speed>
  <fix>3d</fix>
</trkpt>
<trkpt lat="-27.2744392" lon="151.2900641">
  <ele>343.1</ele>
  <time>2026-09-01T19:51:38Z</time>
  <course>10.85</course>
  <speed>0.022360679774997897</speed>
  <fix>3d</fix>
</trkpt>
<trkpt lat="-27.274439" lon="151.290064">
  <ele>343.1</ele>
  <time>2026-09-01T19:51:38Z</time>
  <course>270.0</course>
  <speed>0.0</speed>
  <fix>3d</fix>
</trkpt>
<trkpt lat="-27.2744392" lon="151.2900641">
  <ele>343.09</ele>
  <time>2026-09-01T19:51:38Z</time>
  <course>10.85</course>
  <speed>0.022360679774997897</speed>
  <fix>3d</fix>
</trkpt>
<trkpt lat="-27.274439" lon="151.290064">
  <ele>343.1</ele>
  <time>2026-09-01T19:51:38Z</time>
  <course>270.0</course>
  <speed>0.0</speed>
  <fix>3d</fix>
</trkpt>
<trkpt lat="-27.2744392" lon="151.2900641">
  <ele>343.09</ele>
  <time>2026-09-01T19:51:38Z</time>
  <course>10.85</course>
  <speed>0.022360679774997897</speed>
  <fix>3d</fix>
</trkpt>
<trkpt lat="-27.274439" lon="151.290064">
  <ele>343.1</ele>
  <time>2026-09-01T19:51:38Z</time>
  <course>270.0</course>
  <speed>0.0</speed>
  <fix>3d</fix>
</trkpt>
<trkpt lat="-27.2744392" lon="151.2900641">
  <ele>343.09</ele>
  <time>2026-09-01T19:51:38Z</time>
  <course>10.85</course>
  <speed>0.022360679774997897</speed>
  <fix>3d</fix>
</trkpt>
<trkpt lat="-27.274439" lon="151.290064">
  <ele>343.1</ele>
  <time>2026-09-01T19:51:38Z</time>
  <course>270.0</course>
  <speed>0.0</speed>
  <fix>3d</fix>
</trkpt>
<trkpt lat="-27.2744392" lon="151.2900641">
  <ele>343.08</ele>
  <time>2026-09-01T19:51:38Z</time>
  <course>10.85</course>
  <speed>0.022360679774997897</speed>
  <fix>3d</fix>
</trkpt>
<trkpt lat="-27.274439" lon="151.290064">
  <ele>343.1</ele>
  <time>2026-09-01T19:51:38Z</time>
  <course>270.0</course>
  <speed>0.0</speed>
  <fix>3d</fix>
</trkpt>
<trkpt lat="-27.2744392" lon="151.2900641">
  <ele>343.08</ele>
  <time>2026-09-01T19:51:38Z</time>
  <course>10.85</course>
  <speed>0.022360679774997897</speed>
  <fix>3d</fix>
</trkpt>
<trkpt lat="-27.274439" lon="151.290064">
  <ele>343.1</ele>
  <time>2026-09-01T19:51:38Z</time>
  <course>270.0</course>
  <speed>0.0</speed>
  <fix>3d</fix>
</trkpt>
<trkpt lat="-27.2744392" lon="151.2900641">
  <ele>343.08</ele>
  <time>2026-09-01T19:51:38Z</time>
  <course>10.85</course>
  <speed>0.022360679774997897</speed>
  <fix>3d</fix>
</trkpt>
<trkpt lat="-27.274439" lon="151.290064">
  <ele>343.1</ele>
  <time>2026-09-01T19:51:38Z</time>
  <course>270.0</course>
  <speed>0.0</speed>
  <fix>3d</fix>
</trkpt>
<trkpt lat="-27.2744392" lon="151.2900641">
  <ele>343.08</ele>
  <time>2026-09-01T19:51:38Z</time>
  <course>10.85</course>
  <speed>0.022360679774997897</speed>
  <fix>3d</fix>
</trkpt>
<trkpt lat="-27.274439" lon="151.290064">
  <ele>343.1</ele>
  <time>2026-09-01T19:51:38Z</time>
  <course>270.0</course>
  <speed>0.0</speed>
  <fix>3d</fix>
</trkpt>
<trkpt lat="-27.2744392" lon="151.2900641">
  <ele>343.08</ele>
  <time>2026-09-01T19:51:38Z</time>
  <course>10.85</course>
  <speed>0.022360679774997897</speed>
  <fix>3d</fix>
</trkpt>
<trkpt lat="-27.274439" lon="151.290064">
  <ele>343.1</ele>
  <time>2026-09-01T19:51:38Z</time>
  <course>270.0</course>
  <speed>0.0</speed>
  <fix>3d</fix>
</trkpt>
<trkpt lat="-27.2744392" lon="151.2900641">
  <ele>343.08</ele>
  <time>2026-09-01T19:51:38Z</time>
  <course>10.86</course>
  <speed>0.022360679774997897</speed>
  <fix>3d</fix>
</trkpt>
<trkpt lat="-27.274439" lon="151.290064">
  <ele>343.1</ele>
  <time>2026-09-01T19:51:38Z</time>
  <course>270.0</course>
  <speed>0.0</speed>
  <fix>3d</fix>
</trkpt>
<trkpt lat="-27.2744392" lon="151.2900641">
  <ele>343.07</ele>
  <time>2026-09-01T19:51:38Z</time>
  <course>10.86</course>
  <speed>0.022360679774997897</speed>
  <fix>3d</fix>
</trkpt>
<trkpt lat="-27.274439" lon="151.290064">
  <ele>343.1</ele>
  <time>2026-09-01T19:51:38Z</time>
  <course>270.0</course>
  <speed>0.0</speed>
  <fix>3d</fix>
</trkpt>
<trkpt lat="-27.2744392" lon="151.2900641">
  <ele>343.07</ele>
  <time>2026-09-01T19:51:38Z</time>
  <course>10.86</course>
  <speed>0.022360679774997897</speed>
  <fix>3d</fix>
</trkpt>
<trkpt lat="-27.274439" lon="151.290064">
  <ele>343.1</ele>
  <time>2026-09-01T19:51:38Z</time>
  <course>270.0</course>
  <speed>0.0</speed>
  <fix>3d</fix>
</trkpt>
<trkpt lat="-27.2744392" lon="151.2900641">
  <ele>343.06</ele>
  <time>2026-09-01T19:51:38Z</time>
  <course>10.86</course>
  <speed>0.022360679774997897</speed>
  <fix>3d</fix>
</trkpt>
<trkpt lat="-27.274439" lon="151.290064">
  <ele>343.1</ele>
  <time>2026-09-01T19:51:38Z</time>
  <course>270.0</course>
  <speed>0.0</speed>
  <fix>3d</fix>
</trkpt>
<trkpt lat="-27.2744392" lon="151.2900641">
  <ele>343.06</ele>
  <time>2026-09-01T19:51:38Z</time>
  <course>10.86</course>
  <speed>0.022360679774997897</speed>
  <fix>3d</fix>
</trkpt>
<trkpt lat="-27.274439" lon="151.290064">
  <ele>343.1</ele>
  <time>2026-09-01T19:51:38Z</time>
  <course>270.0</course>
  <speed>0.0</speed>
  <fix>3d</fix>
</trkpt>
<trkpt lat="-27.2744392" lon="151.2900641">
  <ele>343.06</ele>
  <time>2026-09-01T19:51:38Z</time>
  <course>10.86</course>
  <speed>0.022360679774997897</speed>
  <fix>3d</fix>
</trkpt>
<trkpt lat="-27.274439" lon="151.290064">
  <ele>343.1</ele>
  <time>2026-09-01T19:51:38Z</time>
  <course>270.0</course>
  <speed>0.0</speed>
  <fix>3d</fix>
</trkpt>
<trkpt lat="-27.2744392" lon="151.2900641">
  <ele>343.05</ele>
  <time>2026-09-01T19:51:38Z</time>
  <course>10.86</course>
  <speed>0.022360679774997897</speed>
  <fix>3d</fix>
</trkpt>
<trkpt lat="-27.274439" lon="151.290064">
  <ele>343.1</ele>
  <time>2026-09-01T19:51:38Z</time>
  <course>270.0</course>
  <speed>0.0</speed>
  <fix>3d</fix>
</trkpt>
<trkpt lat="-27.2744392" lon="151.2900641">
  <ele>343.05</ele>
  <time>2026-09-01T19:51:38Z</time>
  <course>10.86</course>
  <speed>0.022360679774997897</speed>
  <fix>3d</fix>
</trkpt>
<trkpt lat="-27.274439" lon="151.290064">
  <ele>343.1</ele>
  <time>2026-09-01T19:51:38Z</time>
  <course>270.0</course>
  <speed>0.0</speed>
  <fix>3d</fix>
</trkpt>
<trkpt lat="-27.2744392" lon="151.2900641">
  <ele>343.05</ele>
  <time>2026-09-01T19:51:38Z</time>
  <course>10.86</course>
  <speed>0.022360679774997897</speed>
  <fix>3d</fix>
</trkpt>
<trkpt lat="-27.274439" lon="151.290064">
  <ele>343.1</ele>
  <time>2026-09-01T19:51:38Z</time>
  <course>270.0</course>
  <speed>0.0</speed>
  <fix>3d</fix>
</trkpt>
<trkpt lat="-27.2744392" lon="151.2900641">
  <ele>343.05</ele>
  <time>2026-09-01T19:51:38Z</time>
  <course>10.86</course>
  <speed>0.022360679774997897</speed>
  <fix>3d</fix>
</trkpt>
<trkpt lat="-27.274439" lon="151.290064">
  <ele>343.1</ele>
  <time>2026-09-01T19:51:38Z</time>
  <course>270.0</course>
  <speed>0.0</speed>
  <fix>3d</fix>
</trkpt>
<trkpt lat="-27.2744392" lon="151.2900641">
  <ele>343.05</ele>
  <time>2026-09-01T19:51:38Z</time>
  <course>10.86</course>
  <speed>0.022360679774997897</speed>
  <fix>3d</fix>
</trkpt>
<trkpt lat="-27.274439" lon="151.290064">
  <ele>343.1</ele>
  <time>2026-09-01T19:51:38Z</time>
  <course>270.0</course>
  <speed>0.0</speed>
  <fix>3d</fix>
</trkpt>
<trkpt lat="-27.2744392" lon="151.2900641">
  <ele>343.05</ele>
  <time>2026-09-01T19:51:38Z</time>
  <course>10.86</course>
  <speed>0.022360679774997897</speed>
  <fix>3d</fix>
</trkpt>
<trkpt lat="-27.274439" lon="151.290064">
  <ele>343.1</ele>
  <time>2026-09-01T19:51:38Z</time>
  <course>270.0</course>
  <speed>0.0</speed>
  <fix>3d</fix>
</trkpt>
<trkpt lat="-27.2744392" lon="151.2900641">
  <ele>343.05</ele>
  <time>2026-09-01T19:51:38Z</time>
  <course>10.87</course>
  <speed>0.022360679774997897</speed>
  <fix>3d</fix>
</trkpt>
<trkpt lat="-27.274439" lon="151.290064">
  <ele>343.1</ele>
  <time>2026-09-01T19:51:38Z</time>
  <course>270.0</course>
  <speed>0.0</speed>
  <fix>3d</fix>
</trkpt>
<trkpt lat="-27.2744392" lon="151.2900641">
  <ele>343.05</ele>
  <time>2026-09-01T19:51:38Z</time>
  <course>10.87</course>
  <speed>0.022360679774997897</speed>
  <fix>3d</fix>
</trkpt>
<trkpt lat="-27.274439" lon="151.290064">
  <ele>343.1</ele>
  <time>2026-09-01T19:51:38Z</time>
  <course>270.0</course>
  <speed>0.0</speed>
  <fix>3d</fix>
</trkpt>
<trkpt lat="-27.2744392" lon="151.2900641">
  <ele>343.05</ele>
  <time>2026-09-01T19:51:38Z</time>
  <course>10.87</course>
  <speed>0.022360679774997897</speed>
  <fix>3d</fix>
</trkpt>
<trkpt lat="-27.274439" lon="151.290064">
  <ele>343.1</ele>
  <time>2026-09-01T19:51:38Z</time>
  <course>270.0</course>
  <speed>0.0</speed>
  <fix>3d</fix>
</trkpt>
<trkpt lat="-27.2744392" lon="151.2900641">
  <ele>343.05</ele>
  <time>2026-09-01T19:51:38Z</time>
  <course>10.87</course>
  <speed>0.022360679774997897</speed>
  <fix>3d</fix>
</trkpt>
<trkpt lat="-27.274439" lon="151.290064">
  <ele>343.1</ele>
  <time>2026-09-01T19:51:38Z</time>
  <course>270.0</course>
  <speed>0.0</speed>
  <fix>3d</fix>
</trkpt>
<trkpt lat="-27.2744392" lon="151.2900641">
  <ele>343.05</ele>
  <time>2026-09-01T19:51:38Z</time>
  <course>10.87</course>
  <speed>0.022360679774997897</speed>
  <fix>3d</fix>
</trkpt>
<trkpt lat="-27.274439" lon="151.290064">
  <ele>343.1</ele>
  <time>2026-09-01T19:51:38Z</time>
  <course>270.0</course>
  <speed>0.0</speed>
  <fix>3d</fix>
</trkpt>
<trkpt lat="-27.2744392" lon="151.2900641">
  <ele>343.05</ele>
  <time>2026-09-01T19:51:38Z</time>
  <course>10.87</course>
  <speed>0.022360679774997897</speed>
  <fix>3d</fix>
</trkpt>
<trkpt lat="-27.274439" lon="151.290064">
  <ele>343.1</ele>
  <time>2026-09-01T19:51:38Z</time>
  <course>270.0</course>
  <speed>0.0</speed>
  <fix>3d</fix>
</trkpt>
<trkpt lat="-27.2744392" lon="151.2900641">
  <ele>343.05</ele>
  <time>2026-09-01T19:51:38Z</time>
  <course>10.87</course>
  <speed>0.022360679774997897</speed>
  <fix>3d</fix>
</trkpt>
<trkpt lat="-27.274439" lon="151.290064">
  <ele>343.1</ele>
  <time>2026-09-01T19:51:38Z</time>
  <course>270.0</course>
  <speed>0.0</speed>
  <fix>3d</fix>
</trkpt>
<trkpt lat="-27.2744392" lon="151.2900641">
  <ele>343.05</ele>
  <time>2026-09-01T19:51:38Z</time>
  <course>10.87</course>
  <speed>0.022360679774997897</speed>
  <fix>3d</fix>
</trkpt>
<trkpt lat="-27.274439" lon="151.290064">
  <ele>343.1</ele>
  <time>2026-09-01T19:51:38Z</time>
  <course>270.0</course>
  <speed>0.0</speed>
  <fix>3d</fix>
</trkpt>
<trkpt lat="-27.2744392" lon="151.2900641">
  <ele>343.05</ele>
  <time>2026-09-01T19:51:38Z</time>
  <course>10.87</course>
  <speed>0.022360679774997897</speed>
  <fix>3d</fix>
</trkpt>
<trkpt lat="-27.274439" lon="151.290064">
  <ele>343.1</ele>
  <time>2026-09-01T19:51:38Z</time>
  <course>270.0</course>
  <speed>0.0</speed>
  <fix>3d</fix>
</trkpt>
<trkpt lat="-27.2744392" lon="151.2900641">
  <ele>343.05</ele>
  <time>2026-09-01T19:51:38Z</time>
  <course>10.87</course>
  <speed>0.022360679774997897</speed>
  <fix>3d</fix>
</trkpt>
<trkpt lat="-27.274439" lon="151.290064">
  <ele>343.1</ele>
  <time>2026-09-01T19:51:38Z</time>
  <course>270.0</course>
  <speed>0.0</speed>
  <fix>3d</fix>
</trkpt>
<trkpt lat="-27.2744392" lon="151.2900641">
  <ele>343.05</ele>
  <time>2026-09-01T19:51:38Z</time>
  <course>10.87</course>
  <speed>0.022360679774997897</speed>
  <fix>3d</fix>
</trkpt>
<trkpt lat="-27.274439" lon="151.290064">
  <ele>343.1</ele>
  <time>2026-09-01T19:51:38Z</time>
  <course>270.0</course>
  <speed>0.0</speed>
  <fix>3d</fix>
</trkpt>
<trkpt lat="-27.2744392" lon="151.2900641">
  <ele>343.05</ele>
  <time>2026-09-01T19:51:38Z</time>
  <course>10.88</course>
  <speed>0.022360679774997897</speed>
  <fix>3d</fix>
</trkpt>
<trkpt lat="-27.274439" lon="151.290064">
  <ele>343.1</ele>
  <time>2026-09-01T19:51:38Z</time>
  <course>270.0</course>
  <speed>0.0</speed>
  <fix>3d</fix>
</trkpt>
<trkpt lat="-27.2744392" lon="151.2900641">
  <ele>343.05</ele>
  <time>2026-09-01T19:51:38Z</time>
  <course>10.88</course>
  <speed>0.022360679774997897</speed>
  <fix>3d</fix>
</trkpt>
<trkpt lat="-27.274439" lon="151.290064">
  <ele>343.1</ele>
  <time>2026-09-01T19:51:38Z</time>
  <course>270.0</course>
  <speed>0.0</speed>
  <fix>3d</fix>
</trkpt>
<trkpt lat="-27.2744392" lon="151.2900641">
  <ele>343.05</ele>
  <time>2026-09-01T19:51:38Z</time>
  <course>10.88</course>
  <speed>0.022360679774997897</speed>
  <fix>3d</fix>
</trkpt>
<trkpt lat="-27.274439" lon="151.290064">
  <ele>343.1</ele>
  <time>2026-09-01T19:51:38Z</time>
  <course>270.0</course>
  <speed>0.0</speed>
  <fix>3d</fix>
</trkpt>
<trkpt lat="-27.2744392" lon="151.2900641">
  <ele>343.04</ele>
  <time>2026-09-01T19:51:38Z</time>
  <course>10.88</course>
  <speed>0.022360679774997897</speed>
  <fix>3d</fix>
</trkpt>
<trkpt lat="-27.274439" lon="151.290064">
  <ele>343.1</ele>
  <time>2026-09-01T19:51:38Z</time>
  <course>270.0</course>
  <speed>0.0</speed>
  <fix>3d</fix>
</trkpt>
<trkpt lat="-27.2744392" lon="151.2900641">
  <ele>343.04</ele>
  <time>2026-09-01T19:51:38Z</time>
  <course>10.88</course>
  <speed>0.022360679774997897</speed>
  <fix>3d</fix>
</trkpt>
<trkpt lat="-27.274439" lon="151.290064">
  <ele>343.1</ele>
  <time>2026-09-01T19:51:38Z</time>
  <course>270.0</course>
  <speed>0.0</speed>
  <fix>3d</fix>
</trkpt>
<trkpt lat="-27.2744392" lon="151.2900641">
  <ele>343.04</ele>
  <time>2026-09-01T19:51:38Z</time>
  <course>10.88</course>
  <speed>0.022360679774997897</speed>
  <fix>3d</fix>
</trkpt>
<trkpt lat="-27.274439" lon="151.290064">
  <ele>343.1</ele>
  <time>2026-09-01T19:51:38Z</time>
  <course>270.0</course>
  <speed>0.0</speed>
  <fix>3d</fix>
</trkpt>
<trkpt lat="-27.2744392" lon="151.2900641">
  <ele>343.04</ele>
  <time>2026-09-01T19:51:38Z</time>
  <course>10.88</course>
  <speed>0.022360679774997897</speed>
  <fix>3d</fix>
</trkpt>
<trkpt lat="-27.274439" lon="151.290064">
  <ele>343.1</ele>
  <time>2026-09-01T19:51:38Z</time>
  <course>270.0</course>
  <speed>0.0</speed>
  <fix>3d</fix>
</trkpt>
<trkpt lat="-27.2744392" lon="151.2900641">
  <ele>343.04</ele>
  <time>2026-09-01T19:51:38Z</time>
  <course>10.88</course>
  <speed>0.022360679774997897</speed>
  <fix>3d</fix>
</trkpt>
<trkpt lat="-27.274439" lon="151.290064">
  <ele>343.1</ele>
  <time>2026-09-01T19:51:38Z</time>
  <course>270.0</course>
  <speed>0.0</speed>
  <fix>3d</fix>
</trkpt>
<trkpt lat="-27.2744392" lon="151.2900641">
  <ele>343.04</ele>
  <time>2026-09-01T19:51:38Z</time>
  <course>10.88</course>
  <speed>0.022360679774997897</speed>
  <fix>3d</fix>
</trkpt>
<trkpt lat="-27.274439" lon="151.290064">
  <ele>343.1</ele>
  <time>2026-09-01T19:51:38Z</time>
  <course>270.0</course>
  <speed>0.0</speed>
  <fix>3d</fix>
</trkpt>
<trkpt lat="-27.2744392" lon="151.2900641">
  <ele>343.04</ele>
  <time>2026-09-01T19:51:38Z</time>
  <course>10.88</course>
  <speed>0.022360679774997897</speed>
  <fix>3d</fix>
</trkpt>
<trkpt lat="-27.274439" lon="151.290064">
  <ele>343.1</ele>
  <time>2026-09-01T19:51:38Z</time>
  <course>270.0</course>
  <speed>0.0</speed>
  <fix>3d</fix>
</trkpt>
<trkpt lat="-27.2744392" lon="151.2900641">
  <ele>343.04</ele>
  <time>2026-09-01T19:51:38Z</time>
  <course>10.88</course>
  <speed>0.022360679774997897</speed>
  <fix>3d</fix>
</trkpt>
<trkpt lat="-27.274439" lon="151.290064">
  <ele>343.1</ele>
  <time>2026-09-01T19:51:38Z</time>
  <course>270.0</course>
  <speed>0.0</speed>
  <fix>3d</fix>
</trkpt>
<trkpt lat="-27.2744392" lon="151.2900641">
  <ele>343.04</ele>
  <time>2026-09-01T19:51:38Z</time>
  <course>10.88</course>
  <speed>0.022360679774997897</speed>
  <fix>3d</fix>
</trkpt>
<trkpt lat="-27.274439" lon="151.290064">
  <ele>343.1</ele>
  <time>2026-09-01T19:51:38Z</time>
  <course>270.0</course>
  <speed>0.0</speed>
  <fix>3d</fix>
</trkpt>
<trkpt lat="-27.2744392" lon="151.2900641">
  <ele>343.04</ele>
  <time>2026-09-01T19:51:38Z</time>
  <course>10.89</course>
  <speed>0.022360679774997897</speed>
  <fix>3d</fix>
</trkpt>
<trkpt lat="-27.274439" lon="151.290064">
  <ele>343.1</ele>
  <time>2026-09-01T19:51:38Z</time>
  <course>270.0</course>
  <speed>0.0</speed>
  <fix>3d</fix>
</trkpt>
<trkpt lat="-27.2744392" lon="151.2900641">
  <ele>343.04</ele>
  <time>2026-09-01T19:51:38Z</time>
  <course>10.89</course>
  <speed>0.022360679774997897</speed>
  <fix>3d</fix>
</trkpt>
<trkpt lat="-27.274439" lon="151.290064">
  <ele>343.1</ele>
  <time>2026-09-01T19:51:38Z</time>
  <course>270.0</course>
  <speed>0.0</speed>
  <fix>3d</fix>
</trkpt>
<trkpt lat="-27.2744392" lon="151.2900641">
  <ele>343.04</ele>
  <time>2026-09-01T19:51:38Z</time>
  <course>10.89</course>
  <speed>0.022360679774997897</speed>
  <fix>3d</fix>
</trkpt>
<trkpt lat="-27.274439" lon="151.290064">
  <ele>343.1</ele>
  <time>2026-09-01T19:51:38Z</time>
  <course>270.0</course>
  <speed>0.0</speed>
  <fix>3d</fix>
</trkpt>
<trkpt lat="-27.2744392" lon="151.2900641">
  <ele>343.04</ele>
  <time>2026-09-01T19:51:38Z</time>
  <course>10.89</course>
  <speed>0.022360679774997897</speed>
  <fix>3d</fix>
</trkpt>
<trkpt lat="-27.274439" lon="151.290064">
  <ele>343.1</ele>
  <time>2026-09-01T19:51:38Z</time>
  <course>270.0</course>
  <speed>0.0</speed>
  <fix>3d</fix>
</trkpt>
<trkpt lat="-27.2744392" lon="151.2900641">
  <ele>343.04</ele>
  <time>2026-09-01T19:51:38Z</time>
  <course>10.89</course>
  <speed>0.022360679774997897</speed>
  <fix>3d</fix>
</trkpt>
<trkpt lat="-27.274439" lon="151.290064">
  <ele>343.1</ele>
  <time>2026-09-01T19:51:38Z</time>
  <course>270.0</course>
  <speed>0.0</speed>
  <fix>3d</fix>
</trkpt>
<trkpt lat="-27.2744392" lon="151.2900641">
  <ele>343.04</ele>
  <time>2026-09-01T19:51:38Z</time>
  <course>10.89</course>
  <speed>0.022360679774997897</speed>
  <fix>3d</fix>
</trkpt>
<trkpt lat="-27.274439" lon="151.290064">
  <ele>343.1</ele>
  <time>2026-09-01T19:51:38Z</time>
  <course>270.0</course>
  <speed>0.0</speed>
  <fix>3d</fix>
</trkpt>
<trkpt lat="-27.2744392" lon="151.2900641">
  <ele>343.04</ele>
  <time>2026-09-01T19:51:38Z</time>
  <course>10.89</course>
  <speed>0.022360679774997897</speed>
  <fix>3d</fix>
</trkpt>
<trkpt lat="-27.274439" lon="151.290064">
  <ele>343.1</ele>
  <time>2026-09-01T19:51:38Z</time>
  <course>270.0</course>
  <speed>0.0</speed>
  <fix>3d</fix>
</trkpt>
<trkpt lat="-27.2744392" lon="151.2900641">
  <ele>343.04</ele>
  <time>2026-09-01T19:51:38Z</time>
  <course>10.89</course>
  <speed>0.022360679774997897</speed>
  <fix>3d</fix>
</trkpt>
<trkpt lat="-27.274439" lon="151.290064">
  <ele>343.1</ele>
  <time>2026-09-01T19:51:38Z</time>
  <course>270.0</course>
  <speed>0.0</speed>
  <fix>3d</fix>
</trkpt>
<trkpt lat="-27.2744392" lon="151.2900641">
  <ele>343.04</ele>
  <time>2026-09-01T19:51:38Z</time>
  <course>10.89</course>
  <speed>0.022360679774997897</speed>
  <fix>3d</fix>
</trkpt>
<trkpt lat="-27.274439" lon="151.290064">
  <ele>343.1</ele>
  <time>2026-09-01T19:51:38Z</time>
  <course>270.0</course>
  <speed>0.0</speed>
  <fix>3d</fix>
</trkpt>
<trkpt lat="-27.2744392" lon="151.2900641">
  <ele>343.04</ele>
  <time>2026-09-01T19:51:38Z</time>
  <course>10.89</course>
  <speed>0.022360679774997897</speed>
  <fix>3d</fix>
</trkpt>
<trkpt lat="-27.274439" lon="151.290064">
  <ele>343.1</ele>
  <time>2026-09-01T19:51:38Z</time>
  <course>270.0</course>
  <speed>0.0</speed>
  <fix>3d</fix>
</trkpt>
<trkpt lat="-27.2744392" lon="151.2900641">
  <ele>343.04</ele>
  <time>2026-09-01T19:51:38Z</time>
  <course>10.9</course>
  <speed>0.022360679774997897</speed>
  <fix>3d</fix>
</trkpt>
<trkpt lat="-27.274439" lon="151.290064">
  <ele>343.1</ele>
  <time>2026-09-01T19:51:38Z</time>
  <course>270.0</course>
  <speed>0.0</speed>
  <fix>3d</fix>
</trkpt>
<trkpt lat="-27.2744392" lon="151.2900641">
  <ele>343.04</ele>
  <time>2026-09-01T19:51:38Z</time>
  <course>10.9</course>
  <speed>0.022360679774997897</speed>
  <fix>3d</fix>
</trkpt>
<trkpt lat="-27.274439" lon="151.290064">
  <ele>343.1</ele>
  <time>2026-09-01T19:51:38Z</time>
  <course>270.0</course>
  <speed>0.0</speed>
  <fix>3d</fix>
</trkpt>
<trkpt lat="-27.2744392" lon="151.2900641">
  <ele>343.04</ele>
  <time>2026-09-01T19:51:38Z</time>
  <course>10.9</course>
  <speed>0.022360679774997897</speed>
  <fix>3d</fix>
</trkpt>
<trkpt lat="-27.274439" lon="151.290064">
  <ele>343.1</ele>
  <time>2026-09-01T19:51:38Z</time>
  <course>270.0</course>
  <speed>0.0</speed>
  <fix>3d</fix>
</trkpt>
<trkpt lat="-27.2744392" lon="151.2900641">
  <ele>343.09</ele>
  <time>2026-09-01T19:51:38Z</time>
  <course>10.9</course>
  <speed>0.022360679774997897</speed>
  <fix>3d</fix>
</trkpt>
<trkpt lat="-27.274439" lon="151.290064">
  <ele>343.1</ele>
  <time>2026-09-01T19:51:38Z</time>
  <course>270.0</course>
  <speed>0.0</speed>
  <fix>3d</fix>
</trkpt>
<trkpt lat="-27.2744392" lon="151.2900641">
  <ele>343.1</ele>
  <time>2026-09-01T19:51:38Z</time>
  <course>10.9</course>
  <speed>0.022360679774997897</speed>
  <fix>3d</fix>
</trkpt>
<trkpt lat="-27.274439" lon="151.290064">
  <ele>343.1</ele>
  <time>2026-09-01T19:51:38Z</time>
  <course>270.0</course>
  <speed>0.0</speed>
  <fix>3d</fix>
</trkpt>
<trkpt lat="-27.2744392" lon="151.2900641">
  <ele>343.09</ele>
  <time>2026-09-01T19:51:38Z</time>
  <course>10.9</course>
  <speed>0.022360679774997897</speed>
  <fix>3d</fix>
</trkpt>
<trkpt lat="-27.274439" lon="151.290064">
  <ele>343.1</ele>
  <time>2026-09-01T19:51:38Z</time>
  <course>270.0</course>
  <speed>0.0</speed>
  <fix>3d</fix>
</trkpt>
<trkpt lat="-27.2744392" lon="151.2900641">
  <ele>343.09</ele>
  <time>2026-09-01T19:51:38Z</time>
  <course>10.9</course>
  <speed>0.022360679774997897</speed>
  <fix>3d</fix>
</trkpt>
<trkpt lat="-27.274439" lon="151.290064">
  <ele>343.1</ele>
  <time>2026-09-01T19:51:38Z</time>
  <course>270.0</course>
  <speed>0.0</speed>
  <fix>3d</fix>
</trkpt>
<trkpt lat="-27.2744392" lon="151.2900641">
  <ele>343.09</ele>
  <time>2026-09-01T19:51:38Z</time>
  <course>10.9</course>
  <speed>0.022360679774997897</speed>
  <fix>3d</fix>
</trkpt>
<trkpt lat="-27.274439" lon="151.290064">
  <ele>343.1</ele>
  <time>2026-09-01T19:51:38Z</time>
  <course>270.0</course>
  <speed>0.0</speed>
  <fix>3d</fix>
</trkpt>
<trkpt lat="-27.2744392" lon="151.2900641">
  <ele>343.09</ele>
  <time>2026-09-01T19:51:38Z</time>
  <course>10.9</course>
  <speed>0.022360679774997897</speed>
  <fix>3d</fix>
</trkpt>
<trkpt lat="-27.274439" lon="151.290064">
  <ele>343.1</ele>
  <time>2026-09-01T19:51:38Z</time>
  <course>270.0</course>
  <speed>0.0</speed>
  <fix>3d</fix>
</trkpt>
<trkpt lat="-27.2744392" lon="151.2900641">
  <ele>343.08</ele>
  <time>2026-09-01T19:51:38Z</time>
  <course>10.9</course>
  <speed>0.022360679774997897</speed>
  <fix>3d</fix>
</trkpt>
<trkpt lat="-27.274439" lon="151.290064">
  <ele>343.1</ele>
  <time>2026-09-01T19:51:38Z</time>
  <course>270.0</course>
  <speed>0.0</speed>
  <fix>3d</fix>
</trkpt>
<trkpt lat="-27.2744392" lon="151.2900641">
  <ele>343.08</ele>
  <time>2026-09-01T19:51:38Z</time>
  <course>10.9</course>
  <speed>0.022360679774997897</speed>
  <fix>3d</fix>
</trkpt>
<trkpt lat="-27.274439" lon="151.290064">
  <ele>343.1</ele>
  <time>2026-09-01T19:51:38Z</time>
  <course>270.0</course>
  <speed>0.0</speed>
  <fix>3d</fix>
</trkpt>
<trkpt lat="-27.2744392" lon="151.2900641">
  <ele>343.07</ele>
  <time>2026-09-01T19:51:38Z</time>
  <course>10.91</course>
  <speed>0.022360679774997897</speed>
  <fix>3d</fix>
</trkpt>
<trkpt lat="-27.274439" lon="151.290064">
  <ele>343.1</ele>
  <time>2026-09-01T19:51:38Z</time>
  <course>270.0</course>
  <speed>0.0</speed>
  <fix>3d</fix>
</trkpt>
<trkpt lat="-27.2744392" lon="151.2900641">
  <ele>343.07</ele>
  <time>2026-09-01T19:51:38Z</time>
  <course>10.91</course>
  <speed>0.022360679774997897</speed>
  <fix>3d</fix>
</trkpt>
<trkpt lat="-27.274439" lon="151.290064">
  <ele>343.1</ele>
  <time>2026-09-01T19:51:38Z</time>
  <course>270.0</course>
  <speed>0.0</speed>
  <fix>3d</fix>
</trkpt>
<trkpt lat="-27.2744392" lon="151.2900641">
  <ele>343.07</ele>
  <time>2026-09-01T19:51:38Z</time>
  <course>10.91</course>
  <speed>0.022360679774997897</speed>
  <fix>3d</fix>
</trkpt>
<trkpt lat="-27.274439" lon="151.290064">
  <ele>343.1</ele>
  <time>2026-09-01T19:51:38Z</time>
  <course>270.0</course>
  <speed>0.0</speed>
  <fix>3d</fix>
</trkpt>
<trkpt lat="-27.2744392" lon="151.2900641">
  <ele>343.07</ele>
  <time>2026-09-01T19:51:38Z</time>
  <course>10.91</course>
  <speed>0.022360679774997897</speed>
  <fix>3d</fix>
</trkpt>
<trkpt lat="-27.274439" lon="151.290064">
  <ele>343.1</ele>
  <time>2026-09-01T19:51:38Z</time>
  <course>270.0</course>
  <speed>0.0</speed>
  <fix>3d</fix>
</trkpt>
<trkpt lat="-27.2744392" lon="151.2900641">
  <ele>343.06</ele>
  <time>2026-09-01T19:51:38Z</time>
  <course>10.91</course>
  <speed>0.022360679774997897</speed>
  <fix>3d</fix>
</trkpt>
<trkpt lat="-27.274439" lon="151.290064">
  <ele>343.1</ele>
  <time>2026-09-01T19:51:38Z</time>
  <course>270.0</course>
  <speed>0.0</speed>
  <fix>3d</fix>
</trkpt>
<trkpt lat="-27.2744392" lon="151.2900641">
  <ele>343.06</ele>
  <time>2026-09-01T19:51:38Z</time>
  <course>10.91</course>
  <speed>0.022360679774997897</speed>
  <fix>3d</fix>
</trkpt>
<trkpt lat="-27.274439" lon="151.290064">
  <ele>343.1</ele>
  <time>2026-09-01T19:51:38Z</time>
  <course>270.0</course>
  <speed>0.0</speed>
  <fix>3d</fix>
</trkpt>
<trkpt lat="-27.2744392" lon="151.2900641">
  <ele>343.06</ele>
  <time>2026-09-01T19:51:39Z</time>
  <course>10.91</course>
  <speed>0.022360679774997897</speed>
  <fix>3d</fix>
</trkpt>
<trkpt lat="-27.274439" lon="151.290064">
  <ele>343.1</ele>
  <time>2026-09-01T19:51:39Z</time>
  <course>270.0</course>
  <speed>0.0</speed>
  <fix>3d</fix>
</trkpt>
<trkpt lat="-27.2744392" lon="151.2900641">
  <ele>343.06</ele>
  <time>2026-09-01T19:51:39Z</time>
  <course>10.91</course>
  <speed>0.022360679774997897</speed>
  <fix>3d</fix>
</trkpt>
<trkpt lat="-27.274439" lon="151.290064">
  <ele>343.1</ele>
  <time>2026-09-01T19:51:39Z</time>
  <course>270.0</course>
  <speed>0.0</speed>
  <fix>3d</fix>
</trkpt>
<trkpt lat="-27.2744392" lon="151.2900641">
  <ele>343.05</ele>
  <time>2026-09-01T19:51:39Z</time>
  <course>10.91</course>
  <speed>0.022360679774997897</speed>
  <fix>3d</fix>
</trkpt>
<trkpt lat="-27.274439" lon="151.290064">
  <ele>343.1</ele>
  <time>2026-09-01T19:51:39Z</time>
  <course>270.0</course>
  <speed>0.0</speed>
  <fix>3d</fix>
</trkpt>
<trkpt lat="-27.2744392" lon="151.2900641">
  <ele>343.05</ele>
  <time>2026-09-01T19:51:39Z</time>
  <course>10.91</course>
  <speed>0.022360679774997897</speed>
  <fix>3d</fix>
</trkpt>
<trkpt lat="-27.274439" lon="151.290064">
  <ele>343.1</ele>
  <time>2026-09-01T19:51:39Z</time>
  <course>270.0</course>
  <speed>0.0</speed>
  <fix>3d</fix>
</trkpt>
<trkpt lat="-27.2744392" lon="151.2900641">
  <ele>343.05</ele>
  <time>2026-09-01T19:51:39Z</time>
  <course>10.92</course>
  <speed>0.022360679774997897</speed>
  <fix>3d</fix>
</trkpt>
<trkpt lat="-27.274439" lon="151.290064">
  <ele>343.1</ele>
  <time>2026-09-01T19:51:39Z</time>
  <course>270.0</course>
  <speed>0.0</speed>
  <fix>3d</fix>
</trkpt>
<trkpt lat="-27.2744392" lon="151.2900641">
  <ele>343.04</ele>
  <time>2026-09-01T19:51:39Z</time>
  <course>10.92</course>
  <speed>0.022360679774997897</speed>
  <fix>3d</fix>
</trkpt>
<trkpt lat="-27.274439" lon="151.290064">
  <ele>343.1</ele>
  <time>2026-09-01T19:51:39Z</time>
  <course>270.0</course>
  <speed>0.0</speed>
  <fix>3d</fix>
</trkpt>
<trkpt lat="-27.2744392" lon="151.2900641">
  <ele>343.04</ele>
  <time>2026-09-01T19:51:39Z</time>
  <course>10.92</course>
  <speed>0.022360679774997897</speed>
  <fix>3d</fix>
</trkpt>
<trkpt lat="-27.274439" lon="151.290064">
  <ele>343.1</ele>
  <time>2026-09-01T19:51:39Z</time>
  <course>270.0</course>
  <speed>0.0</speed>
  <fix>3d</fix>
</trkpt>
<trkpt lat="-27.2744392" lon="151.2900641">
  <ele>343.04</ele>
  <time>2026-09-01T19:51:39Z</time>
  <course>10.92</course>
  <speed>0.022360679774997897</speed>
  <fix>3d</fix>
</trkpt>
<trkpt lat="-27.274439" lon="151.290064">
  <ele>343.1</ele>
  <time>2026-09-01T19:51:39Z</time>
  <course>270.0</course>
  <speed>0.0</speed>
  <fix>3d</fix>
</trkpt>
<trkpt lat="-27.2744392" lon="151.2900641">
  <ele>343.04</ele>
  <time>2026-09-01T19:51:39Z</time>
  <course>10.92</course>
  <speed>0.022360679774997897</speed>
  <fix>3d</fix>
</trkpt>
<trkpt lat="-27.274439" lon="151.290064">
  <ele>343.1</ele>
  <time>2026-09-01T19:51:39Z</time>
  <course>270.0</course>
  <speed>0.0</speed>
  <fix>3d</fix>
</trkpt>
<trkpt lat="-27.2744392" lon="151.2900641">
  <ele>343.03</ele>
  <time>2026-09-01T19:51:39Z</time>
  <course>10.92</course>
  <speed>0.022360679774997897</speed>
  <fix>3d</fix>
</trkpt>
<trkpt lat="-27.274439" lon="151.290064">
  <ele>343.1</ele>
  <time>2026-09-01T19:51:39Z</time>
  <course>270.0</course>
  <speed>0.0</speed>
  <fix>3d</fix>
</trkpt>
<trkpt lat="-27.2744392" lon="151.2900641">
  <ele>343.03</ele>
  <time>2026-09-01T19:51:39Z</time>
  <course>10.92</course>
  <speed>0.022360679774997897</speed>
  <fix>3d</fix>
</trkpt>
<trkpt lat="-27.274439" lon="151.290064">
  <ele>343.1</ele>
  <time>2026-09-01T19:51:39Z</time>
  <course>270.0</course>
  <speed>0.0</speed>
  <fix>3d</fix>
</trkpt>
<trkpt lat="-27.2744392" lon="151.2900641">
  <ele>343.03</ele>
  <time>2026-09-01T19:51:39Z</time>
  <course>10.92</course>
  <speed>0.022360679774997897</speed>
  <fix>3d</fix>
</trkpt>
<trkpt lat="-27.274439" lon="151.290064">
  <ele>343.1</ele>
  <time>2026-09-01T19:51:39Z</time>
  <course>270.0</course>
  <speed>0.0</speed>
  <fix>3d</fix>
</trkpt>
<trkpt lat="-27.2744392" lon="151.2900641">
  <ele>343.03</ele>
  <time>2026-09-01T19:51:39Z</time>
  <course>10.92</course>
  <speed>0.022360679774997897</speed>
  <fix>3d</fix>
</trkpt>
<trkpt lat="-27.274439" lon="151.290064">
  <ele>343.1</ele>
  <time>2026-09-01T19:51:39Z</time>
  <course>270.0</course>
  <speed>0.0</speed>
  <fix>3d</fix>
</trkpt>
<trkpt lat="-27.2744392" lon="151.2900641">
  <ele>343.03</ele>
  <time>2026-09-01T19:51:39Z</time>
  <course>10.92</course>
  <speed>0.022360679774997897</speed>
  <fix>3d</fix>
</trkpt>
<trkpt lat="-27.274439" lon="151.290064">
  <ele>343.1</ele>
  <time>2026-09-01T19:51:39Z</time>
  <course>270.0</course>
  <speed>0.0</speed>
  <fix>3d</fix>
</trkpt>
<trkpt lat="-27.2744392" lon="151.2900641">
  <ele>343.03</ele>
  <time>2026-09-01T19:51:39Z</time>
  <course>10.93</course>
  <speed>0.022360679774997897</speed>
  <fix>3d</fix>
</trkpt>
<trkpt lat="-27.274439" lon="151.290064">
  <ele>343.1</ele>
  <time>2026-09-01T19:51:39Z</time>
  <course>270.0</course>
  <speed>0.0</speed>
  <fix>3d</fix>
</trkpt>
<trkpt lat="-27.2744392" lon="151.2900641">
  <ele>343.02</ele>
  <time>2026-09-01T19:51:39Z</time>
  <course>10.93</course>
  <speed>0.022360679774997897</speed>
  <fix>3d</fix>
</trkpt>
<trkpt lat="-27.274439" lon="151.290064">
  <ele>343.1</ele>
  <time>2026-09-01T19:51:39Z</time>
  <course>270.0</course>
  <speed>0.0</speed>
  <fix>3d</fix>
</trkpt>
<trkpt lat="-27.2744392" lon="151.2900641">
  <ele>343.02</ele>
  <time>2026-09-01T19:51:39Z</time>
  <course>10.93</course>
  <speed>0.022360679774997897</speed>
  <fix>3d</fix>
</trkpt>
<trkpt lat="-27.274439" lon="151.290064">
  <ele>343.1</ele>
  <time>2026-09-01T19:51:39Z</time>
  <course>270.0</course>
  <speed>0.0</speed>
  <fix>3d</fix>
</trkpt>
<trkpt lat="-27.2744392" lon="151.2900641">
  <ele>343.02</ele>
  <time>2026-09-01T19:51:39Z</time>
  <course>10.93</course>
  <speed>0.022360679774997897</speed>
  <fix>3d</fix>
</trkpt>
<trkpt lat="-27.274439" lon="151.290064">
  <ele>343.1</ele>
  <time>2026-09-01T19:51:39Z</time>
  <course>270.0</course>
  <speed>0.0</speed>
  <fix>3d</fix>
</trkpt>
<trkpt lat="-27.2744392" lon="151.2900641">
  <ele>343.02</ele>
  <time>2026-09-01T19:51:39Z</time>
  <course>10.93</course>
  <speed>0.022360679774997897</speed>
  <fix>3d</fix>
</trkpt>
<trkpt lat="-27.274439" lon="151.290064">
  <ele>343.1</ele>
  <time>2026-09-01T19:51:39Z</time>
  <course>270.0</course>
  <speed>0.0</speed>
  <fix>3d</fix>
</trkpt>
<trkpt lat="-27.2744392" lon="151.2900641">
  <ele>343.02</ele>
  <time>2026-09-01T19:51:39Z</time>
  <course>10.93</course>
  <speed>0.022360679774997897</speed>
  <fix>3d</fix>
</trkpt>
<trkpt lat="-27.274439" lon="151.290064">
  <ele>343.1</ele>
  <time>2026-09-01T19:51:39Z</time>
  <course>270.0</course>
  <speed>0.0</speed>
  <fix>3d</fix>
</trkpt>
<trkpt lat="-27.2744392" lon="151.2900641">
  <ele>343.02</ele>
  <time>2026-09-01T19:51:39Z</time>
  <course>10.93</course>
  <speed>0.022360679774997897</speed>
  <fix>3d</fix>
</trkpt>
<trkpt lat="-27.274439" lon="151.290064">
  <ele>343.1</ele>
  <time>2026-09-01T19:51:39Z</time>
  <course>270.0</course>
  <speed>0.0</speed>
  <fix>3d</fix>
</trkpt>
<trkpt lat="-27.2744392" lon="151.2900641">
  <ele>343.02</ele>
  <time>2026-09-01T19:51:39Z</time>
  <course>10.93</course>
  <speed>0.022360679774997897</speed>
  <fix>3d</fix>
</trkpt>
<trkpt lat="-27.274439" lon="151.290064">
  <ele>343.1</ele>
  <time>2026-09-01T19:51:39Z</time>
  <course>270.0</course>
  <speed>0.0</speed>
  <fix>3d</fix>
</trkpt>
<trkpt lat="-27.2744392" lon="151.2900641">
  <ele>343.02</ele>
  <time>2026-09-01T19:51:39Z</time>
  <course>10.93</course>
  <speed>0.022360679774997897</speed>
  <fix>3d</fix>
</trkpt>
<trkpt lat="-27.274439" lon="151.290064">
  <ele>343.1</ele>
  <time>2026-09-01T19:51:39Z</time>
  <course>270.0</course>
  <speed>0.0</speed>
  <fix>3d</fix>
</trkpt>
<trkpt lat="-27.2744392" lon="151.2900641">
  <ele>343.02</ele>
  <time>2026-09-01T19:51:39Z</time>
  <course>10.93</course>
  <speed>0.022360679774997897</speed>
  <fix>3d</fix>
</trkpt>
<trkpt lat="-27.274439" lon="151.290064">
  <ele>343.1</ele>
  <time>2026-09-01T19:51:39Z</time>
  <course>270.0</course>
  <speed>0.0</speed>
  <fix>3d</fix>
</trkpt>
<trkpt lat="-27.2744392" lon="151.2900641">
  <ele>343.02</ele>
  <time>2026-09-01T19:51:39Z</time>
  <course>10.93</course>
  <speed>0.022360679774997897</speed>
  <fix>3d</fix>
</trkpt>
<trkpt lat="-27.274439" lon="151.290064">
  <ele>343.1</ele>
  <time>2026-09-01T19:51:39Z</time>
  <course>270.0</course>
  <speed>0.0</speed>
  <fix>3d</fix>
</trkpt>
<trkpt lat="-27.2744392" lon="151.2900641">
  <ele>343.02</ele>
  <time>2026-09-01T19:51:39Z</time>
  <course>10.94</course>
  <speed>0.022360679774997897</speed>
  <fix>3d</fix>
</trkpt>
<trkpt lat="-27.274439" lon="151.290064">
  <ele>343.1</ele>
  <time>2026-09-01T19:51:39Z</time>
  <course>270.0</course>
  <speed>0.0</speed>
  <fix>3d</fix>
</trkpt>
<trkpt lat="-27.2744392" lon="151.2900641">
  <ele>343.02</ele>
  <time>2026-09-01T19:51:39Z</time>
  <course>10.94</course>
  <speed>0.022360679774997897</speed>
  <fix>3d</fix>
</trkpt>
<trkpt lat="-27.274439" lon="151.290064">
  <ele>343.1</ele>
  <time>2026-09-01T19:51:39Z</time>
  <course>270.0</course>
  <speed>0.0</speed>
  <fix>3d</fix>
</trkpt>
<trkpt lat="-27.2744392" lon="151.2900641">
  <ele>343.02</ele>
  <time>2026-09-01T19:51:39Z</time>
  <course>10.94</course>
  <speed>0.022360679774997897</speed>
  <fix>3d</fix>
</trkpt>
<trkpt lat="-27.274439" lon="151.290064">
  <ele>343.1</ele>
  <time>2026-09-01T19:51:39Z</time>
  <course>270.0</course>
  <speed>0.0</speed>
  <fix>3d</fix>
</trkpt>
<trkpt lat="-27.2744392" lon="151.2900641">
  <ele>343.01</ele>
  <time>2026-09-01T19:51:39Z</time>
  <course>10.94</course>
  <speed>0.022360679774997897</speed>
  <fix>3d</fix>
</trkpt>
<trkpt lat="-27.274439" lon="151.290064">
  <ele>343.1</ele>
  <time>2026-09-01T19:51:39Z</time>
  <course>270.0</course>
  <speed>0.0</speed>
  <fix>3d</fix>
</trkpt>
<trkpt lat="-27.2744392" lon="151.2900641">
  <ele>343.01</ele>
  <time>2026-09-01T19:51:39Z</time>
  <course>10.94</course>
  <speed>0.022360679774997897</speed>
  <fix>3d</fix>
</trkpt>
<trkpt lat="-27.274439" lon="151.290064">
  <ele>343.1</ele>
  <time>2026-09-01T19:51:39Z</time>
  <course>270.0</course>
  <speed>0.0</speed>
  <fix>3d</fix>
</trkpt>
<trkpt lat="-27.2744392" lon="151.2900641">
  <ele>343.01</ele>
  <time>2026-09-01T19:51:39Z</time>
  <course>10.94</course>
  <speed>0.022360679774997897</speed>
  <fix>3d</fix>
</trkpt>
<trkpt lat="-27.274439" lon="151.290064">
  <ele>343.1</ele>
  <time>2026-09-01T19:51:39Z</time>
  <course>270.0</course>
  <speed>0.0</speed>
  <fix>3d</fix>
</trkpt>
<trkpt lat="-27.2744392" lon="151.2900641">
  <ele>343.01</ele>
  <time>2026-09-01T19:51:39Z</time>
  <course>10.94</course>
  <speed>0.022360679774997897</speed>
  <fix>3d</fix>
</trkpt>
<trkpt lat="-27.274439" lon="151.290064">
  <ele>343.1</ele>
  <time>2026-09-01T19:51:39Z</time>
  <course>270.0</course>
  <speed>0.0</speed>
  <fix>3d</fix>
</trkpt>
<trkpt lat="-27.2744392" lon="151.2900641">
  <ele>343.01</ele>
  <time>2026-09-01T19:51:39Z</time>
  <course>10.94</course>
  <speed>0.022360679774997897</speed>
  <fix>3d</fix>
</trkpt>
<trkpt lat="-27.274439" lon="151.290064">
  <ele>343.1</ele>
  <time>2026-09-01T19:51:39Z</time>
  <course>270.0</course>
  <speed>0.0</speed>
  <fix>3d</fix>
</trkpt>
<trkpt lat="-27.2744392" lon="151.2900641">
  <ele>343.01</ele>
  <time>2026-09-01T19:51:39Z</time>
  <course>10.94</course>
  <speed>0.022360679774997897</speed>
  <fix>3d</fix>
</trkpt>
<trkpt lat="-27.274439" lon="151.290064">
  <ele>343.1</ele>
  <time>2026-09-01T19:51:39Z</time>
  <course>270.0</course>
  <speed>0.0</speed>
  <fix>3d</fix>
</trkpt>
<trkpt lat="-27.2744392" lon="151.2900641">
  <ele>343.01</ele>
  <time>2026-09-01T19:51:39Z</time>
  <course>10.94</course>
  <speed>0.022360679774997897</speed>
  <fix>3d</fix>
</trkpt>
<trkpt lat="-27.274439" lon="151.290064">
  <ele>343.1</ele>
  <time>2026-09-01T19:51:39Z</time>
  <course>270.0</course>
  <speed>0.0</speed>
  <fix>3d</fix>
</trkpt>
<trkpt lat="-27.2744392" lon="151.2900641">
  <ele>343.01</ele>
  <time>2026-09-01T19:51:39Z</time>
  <course>10.95</course>
  <speed>0.022360679774997897</speed>
  <fix>3d</fix>
</trkpt>
<trkpt lat="-27.274439" lon="151.290064">
  <ele>343.1</ele>
  <time>2026-09-01T19:51:39Z</time>
  <course>270.0</course>
  <speed>0.0</speed>
  <fix>3d</fix>
</trkpt>
<trkpt lat="-27.2744392" lon="151.2900641">
  <ele>343.01</ele>
  <time>2026-09-01T19:51:39Z</time>
  <course>10.95</course>
  <speed>0.022360679774997897</speed>
  <fix>3d</fix>
</trkpt>
<trkpt lat="-27.274439" lon="151.290064">
  <ele>343.1</ele>
  <time>2026-09-01T19:51:39Z</time>
  <course>270.0</course>
  <speed>0.0</speed>
  <fix>3d</fix>
</trkpt>
<trkpt lat="-27.2744392" lon="151.2900641">
  <ele>343.0</ele>
  <time>2026-09-01T19:51:39Z</time>
  <course>10.95</course>
  <speed>0.022360679774997897</speed>
  <fix>3d</fix>
</trkpt>
<trkpt lat="-27.274439" lon="151.290064">
  <ele>343.1</ele>
  <time>2026-09-01T19:51:39Z</time>
  <course>270.0</course>
  <speed>0.0</speed>
  <fix>3d</fix>
</trkpt>
<trkpt lat="-27.2744392" lon="151.2900641">
  <ele>343.0</ele>
  <time>2026-09-01T19:51:39Z</time>
  <course>10.95</course>
  <speed>0.022360679774997897</speed>
  <fix>3d</fix>
</trkpt>
<trkpt lat="-27.274439" lon="151.290064">
  <ele>343.1</ele>
  <time>2026-09-01T19:51:39Z</time>
  <course>270.0</course>
  <speed>0.0</speed>
  <fix>3d</fix>
</trkpt>
<trkpt lat="-27.2744392" lon="151.2900641">
  <ele>343.0</ele>
  <time>2026-09-01T19:51:39Z</time>
  <course>10.95</course>
  <speed>0.022360679774997897</speed>
  <fix>3d</fix>
</trkpt>
<trkpt lat="-27.274439" lon="151.290064">
  <ele>343.1</ele>
  <time>2026-09-01T19:51:39Z</time>
  <course>270.0</course>
  <speed>0.0</speed>
  <fix>3d</fix>
</trkpt>
<trkpt lat="-27.2744392" lon="151.2900641">
  <ele>342.99</ele>
  <time>2026-09-01T19:51:39Z</time>
  <course>10.95</course>
  <speed>0.022360679774997897</speed>
  <fix>3d</fix>
</trkpt>
<trkpt lat="-27.274439" lon="151.290064">
  <ele>343.1</ele>
  <time>2026-09-01T19:51:39Z</time>
  <course>270.0</course>
  <speed>0.0</speed>
  <fix>3d</fix>
</trkpt>
<trkpt lat="-27.2744392" lon="151.2900641">
  <ele>342.99</ele>
  <time>2026-09-01T19:51:39Z</time>
  <course>10.95</course>
  <speed>0.022360679774997897</speed>
  <fix>3d</fix>
</trkpt>
<trkpt lat="-27.274439" lon="151.290064">
  <ele>343.1</ele>
  <time>2026-09-01T19:51:39Z</time>
  <course>270.0</course>
  <speed>0.0</speed>
  <fix>3d</fix>
</trkpt>
<trkpt lat="-27.2744392" lon="151.2900641">
  <ele>342.99</ele>
  <time>2026-09-01T19:51:39Z</time>
  <course>10.95</course>
  <speed>0.022360679774997897</speed>
  <fix>3d</fix>
</trkpt>
<trkpt lat="-27.274439" lon="151.290064">
  <ele>343.1</ele>
  <time>2026-09-01T19:51:39Z</time>
  <course>270.0</course>
  <speed>0.0</speed>
  <fix>3d</fix>
</trkpt>
<trkpt lat="-27.2744392" lon="151.2900641">
  <ele>342.99</ele>
  <time>2026-09-01T19:51:39Z</time>
  <course>10.95</course>
  <speed>0.022360679774997897</speed>
  <fix>3d</fix>
</trkpt>
<trkpt lat="-27.274439" lon="151.290064">
  <ele>343.1</ele>
  <time>2026-09-01T19:51:39Z</time>
  <course>270.0</course>
  <speed>0.0</speed>
  <fix>3d</fix>
</trkpt>
<trkpt lat="-27.2744392" lon="151.2900641">
  <ele>342.99</ele>
  <time>2026-09-01T19:51:39Z</time>
  <course>10.95</course>
  <speed>0.022360679774997897</speed>
  <fix>3d</fix>
</trkpt>
<trkpt lat="-27.274439" lon="151.290064">
  <ele>343.1</ele>
  <time>2026-09-01T19:51:39Z</time>
  <course>270.0</course>
  <speed>0.0</speed>
  <fix>3d</fix>
</trkpt>
<trkpt lat="-27.2744392" lon="151.2900641">
  <ele>342.99</ele>
  <time>2026-09-01T19:51:39Z</time>
  <course>10.95</course>
  <speed>0.022360679774997897</speed>
  <fix>3d</fix>
</trkpt>
<trkpt lat="-27.274439" lon="151.290064">
  <ele>343.1</ele>
  <time>2026-09-01T19:51:39Z</time>
  <course>270.0</course>
  <speed>0.0</speed>
  <fix>3d</fix>
</trkpt>
<trkpt lat="-27.2744392" lon="151.2900641">
  <ele>343.09</ele>
  <time>2026-09-01T19:51:39Z</time>
  <course>10.96</course>
  <speed>0.022360679774997897</speed>
  <fix>3d</fix>
</trkpt>
<trkpt lat="-27.274439" lon="151.290064">
  <ele>343.1</ele>
  <time>2026-09-01T19:51:39Z</time>
  <course>270.0</course>
  <speed>0.0</speed>
  <fix>3d</fix>
</trkpt>
<trkpt lat="-27.2744392" lon="151.2900641">
  <ele>343.09</ele>
  <time>2026-09-01T19:51:39Z</time>
  <course>10.96</course>
  <speed>0.022360679774997897</speed>
  <fix>3d</fix>
</trkpt>
<trkpt lat="-27.274439" lon="151.290064">
  <ele>343.1</ele>
  <time>2026-09-01T19:51:39Z</time>
  <course>270.0</course>
  <speed>0.0</speed>
  <fix>3d</fix>
</trkpt>
<trkpt lat="-27.2744392" lon="151.2900641">
  <ele>343.09</ele>
  <time>2026-09-01T19:51:39Z</time>
  <course>10.96</course>
  <speed>0.022360679774997897</speed>
  <fix>3d</fix>
</trkpt>
<trkpt lat="-27.274439" lon="151.290064">
  <ele>343.1</ele>
  <time>2026-09-01T19:51:39Z</time>
  <course>270.0</course>
  <speed>0.0</speed>
  <fix>3d</fix>
</trkpt>
<trkpt lat="-27.2744392" lon="151.2900641">
  <ele>343.09</ele>
  <time>2026-09-01T19:51:39Z</time>
  <course>10.96</course>
  <speed>0.022360679774997897</speed>
  <fix>3d</fix>
</trkpt>
<trkpt lat="-27.274439" lon="151.290064">
  <ele>343.1</ele>
  <time>2026-09-01T19:51:39Z</time>
  <course>270.0</course>
  <speed>0.0</speed>
  <fix>3d</fix>
</trkpt>
<trkpt lat="-27.2744392" lon="151.2900641">
  <ele>343.09</ele>
  <time>2026-09-01T19:51:39Z</time>
  <course>10.96</course>
  <speed>0.022360679774997897</speed>
  <fix>3d</fix>
</trkpt>
<trkpt lat="-27.274439" lon="151.290064">
  <ele>343.1</ele>
  <time>2026-09-01T19:51:39Z</time>
  <course>270.0</course>
  <speed>0.0</speed>
  <fix>3d</fix>
</trkpt>
<trkpt lat="-27.2744392" lon="151.2900641">
  <ele>343.09</ele>
  <time>2026-09-01T19:51:39Z</time>
  <course>10.96</course>
  <speed>0.022360679774997897</speed>
  <fix>3d</fix>
</trkpt>
<trkpt lat="-27.274439" lon="151.290064">
  <ele>343.1</ele>
  <time>2026-09-01T19:51:39Z</time>
  <course>270.0</course>
  <speed>0.0</speed>
  <fix>3d</fix>
</trkpt>
<trkpt lat="-27.2744392" lon="151.2900641">
  <ele>343.09</ele>
  <time>2026-09-01T19:51:39Z</time>
  <course>10.96</course>
  <speed>0.022360679774997897</speed>
  <fix>3d</fix>
</trkpt>
<trkpt lat="-27.274439" lon="151.290064">
  <ele>343.1</ele>
  <time>2026-09-01T19:51:39Z</time>
  <course>270.0</course>
  <speed>0.0</speed>
  <fix>3d</fix>
</trkpt>
<trkpt lat="-27.2744392" lon="151.2900641">
  <ele>343.09</ele>
  <time>2026-09-01T19:51:39Z</time>
  <course>10.96</course>
  <speed>0.022360679774997897</speed>
  <fix>3d</fix>
</trkpt>
<trkpt lat="-27.274439" lon="151.290064">
  <ele>343.1</ele>
  <time>2026-09-01T19:51:39Z</time>
  <course>270.0</course>
  <speed>0.0</speed>
  <fix>3d</fix>
</trkpt>
<trkpt lat="-27.2744392" lon="151.2900641">
  <ele>343.08</ele>
  <time>2026-09-01T19:51:39Z</time>
  <course>10.96</course>
  <speed>0.022360679774997897</speed>
  <fix>3d</fix>
</trkpt>
<trkpt lat="-27.274439" lon="151.290064">
  <ele>343.1</ele>
  <time>2026-09-01T19:51:39Z</time>
  <course>270.0</course>
  <speed>0.0</speed>
  <fix>3d</fix>
</trkpt>
<trkpt lat="-27.2744392" lon="151.2900641">
  <ele>343.08</ele>
  <time>2026-09-01T19:51:39Z</time>
  <course>10.96</course>
  <speed>0.022360679774997897</speed>
  <fix>3d</fix>
</trkpt>
<trkpt lat="-27.274439" lon="151.290064">
  <ele>343.1</ele>
  <time>2026-09-01T19:51:39Z</time>
  <course>270.0</course>
  <speed>0.0</speed>
  <fix>3d</fix>
</trkpt>
<trkpt lat="-27.2744392" lon="151.2900641">
  <ele>343.08</ele>
  <time>2026-09-01T19:51:39Z</time>
  <course>10.96</course>
  <speed>0.022360679774997897</speed>
  <fix>3d</fix>
</trkpt>
<trkpt lat="-27.274439" lon="151.290064">
  <ele>343.1</ele>
  <time>2026-09-01T19:51:39Z</time>
  <course>270.0</course>
  <speed>0.0</speed>
  <fix>3d</fix>
</trkpt>
<trkpt lat="-27.2744392" lon="151.2900641">
  <ele>343.08</ele>
  <time>2026-09-01T19:51:39Z</time>
  <course>10.97</course>
  <speed>0.022360679774997897</speed>
  <fix>3d</fix>
</trkpt>
<trkpt lat="-27.274439" lon="151.290064">
  <ele>343.1</ele>
  <time>2026-09-01T19:51:39Z</time>
  <course>270.0</course>
  <speed>0.0</speed>
  <fix>3d</fix>
</trkpt>
<trkpt lat="-27.2744392" lon="151.2900641">
  <ele>343.08</ele>
  <time>2026-09-01T19:51:39Z</time>
  <course>10.97</course>
  <speed>0.022360679774997897</speed>
  <fix>3d</fix>
</trkpt>
<trkpt lat="-27.274439" lon="151.290064">
  <ele>343.1</ele>
  <time>2026-09-01T19:51:39Z</time>
  <course>270.0</course>
  <speed>0.0</speed>
  <fix>3d</fix>
</trkpt>
<trkpt lat="-27.2744392" lon="151.2900641">
  <ele>343.08</ele>
  <time>2026-09-01T19:51:39Z</time>
  <course>10.97</course>
  <speed>0.022360679774997897</speed>
  <fix>3d</fix>
</trkpt>
<trkpt lat="-27.274439" lon="151.290064">
  <ele>343.1</ele>
  <time>2026-09-01T19:51:39Z</time>
  <course>270.0</course>
  <speed>0.0</speed>
  <fix>3d</fix>
</trkpt>
<trkpt lat="-27.2744392" lon="151.2900641">
  <ele>343.08</ele>
  <time>2026-09-01T19:51:39Z</time>
  <course>10.97</course>
  <speed>0.022360679774997897</speed>
  <fix>3d</fix>
</trkpt>
<trkpt lat="-27.274439" lon="151.290064">
  <ele>343.1</ele>
  <time>2026-09-01T19:51:39Z</time>
  <course>270.0</course>
  <speed>0.0</speed>
  <fix>3d</fix>
</trkpt>
<trkpt lat="-27.2744392" lon="151.2900641">
  <ele>343.08</ele>
  <time>2026-09-01T19:51:39Z</time>
  <course>10.97</course>
  <speed>0.022360679774997897</speed>
  <fix>3d</fix>
</trkpt>
<trkpt lat="-27.274439" lon="151.290064">
  <ele>343.1</ele>
  <time>2026-09-01T19:51:39Z</time>
  <course>270.0</course>
  <speed>0.0</speed>
  <fix>3d</fix>
</trkpt>
<trkpt lat="-27.2744392" lon="151.2900641">
  <ele>343.09</ele>
  <time>2026-09-01T19:51:39Z</time>
  <course>10.97</course>
  <speed>0.022360679774997897</speed>
  <fix>3d</fix>
</trkpt>
<trkpt lat="-27.274439" lon="151.290064">
  <ele>343.1</ele>
  <time>2026-09-01T19:51:39Z</time>
  <course>270.0</course>
  <speed>0.0</speed>
  <fix>3d</fix>
</trkpt>
<trkpt lat="-27.2744392" lon="151.2900641">
  <ele>343.09</ele>
  <time>2026-09-01T19:51:39Z</time>
  <course>10.97</course>
  <speed>0.022360679774997897</speed>
  <fix>3d</fix>
</trkpt>
<trkpt lat="-27.274439" lon="151.290064">
  <ele>343.1</ele>
  <time>2026-09-01T19:51:39Z</time>
  <course>270.0</course>
  <speed>0.0</speed>
  <fix>3d</fix>
</trkpt>
<trkpt lat="-27.2744392" lon="151.2900641">
  <ele>343.09</ele>
  <time>2026-09-01T19:51:39Z</time>
  <course>10.97</course>
  <speed>0.022360679774997897</speed>
  <fix>3d</fix>
</trkpt>
<trkpt lat="-27.274439" lon="151.290064">
  <ele>343.1</ele>
  <time>2026-09-01T19:51:39Z</time>
  <course>270.0</course>
  <speed>0.0</speed>
  <fix>3d</fix>
</trkpt>
<trkpt lat="-27.2744392" lon="151.2900641">
  <ele>343.09</ele>
  <time>2026-09-01T19:51:39Z</time>
  <course>10.97</course>
  <speed>0.022360679774997897</speed>
  <fix>3d</fix>
</trkpt>
<trkpt lat="-27.274439" lon="151.290064">
  <ele>343.1</ele>
  <time>2026-09-01T19:51:39Z</time>
  <course>270.0</course>
  <speed>0.0</speed>
  <fix>3d</fix>
</trkpt>
<trkpt lat="-27.2744392" lon="151.2900641">
  <ele>343.09</ele>
  <time>2026-09-01T19:51:39Z</time>
  <course>10.97</course>
  <speed>0.022360679774997897</speed>
  <fix>3d</fix>
</trkpt>
<trkpt lat="-27.274439" lon="151.290064">
  <ele>343.1</ele>
  <time>2026-09-01T19:51:39Z</time>
  <course>270.0</course>
  <speed>0.0</speed>
  <fix>3d</fix>
</trkpt>
<trkpt lat="-27.2744392" lon="151.2900641">
  <ele>343.09</ele>
  <time>2026-09-01T19:51:39Z</time>
  <course>10.98</course>
  <speed>0.022360679774997897</speed>
  <fix>3d</fix>
</trkpt>
<trkpt lat="-27.274439" lon="151.290064">
  <ele>343.1</ele>
  <time>2026-09-01T19:51:39Z</time>
  <course>270.0</course>
  <speed>0.0</speed>
  <fix>3d</fix>
</trkpt>
<trkpt lat="-27.2744392" lon="151.2900641">
  <ele>343.09</ele>
  <time>2026-09-01T19:51:39Z</time>
  <course>10.98</course>
  <speed>0.022360679774997897</speed>
  <fix>3d</fix>
</trkpt>
<trkpt lat="-27.274439" lon="151.290064">
  <ele>343.1</ele>
  <time>2026-09-01T19:51:39Z</time>
  <course>270.0</course>
  <speed>0.0</speed>
  <fix>3d</fix>
</trkpt>
<trkpt lat="-27.2744392" lon="151.2900641">
  <ele>343.09</ele>
  <time>2026-09-01T19:51:39Z</time>
  <course>10.98</course>
  <speed>0.022360679774997897</speed>
  <fix>3d</fix>
</trkpt>
<trkpt lat="-27.274439" lon="151.290064">
  <ele>343.1</ele>
  <time>2026-09-01T19:51:39Z</time>
  <course>270.0</course>
  <speed>0.0</speed>
  <fix>3d</fix>
</trkpt>
<trkpt lat="-27.2744392" lon="151.2900641">
  <ele>343.09</ele>
  <time>2026-09-01T19:51:39Z</time>
  <course>10.98</course>
  <speed>0.022360679774997897</speed>
  <fix>3d</fix>
</trkpt>
<trkpt lat="-27.274439" lon="151.290064">
  <ele>343.1</ele>
  <time>2026-09-01T19:51:39Z</time>
  <course>270.0</course>
  <speed>0.0</speed>
  <fix>3d</fix>
</trkpt>
<trkpt lat="-27.2744392" lon="151.2900641">
  <ele>343.09</ele>
  <time>2026-09-01T19:51:39Z</time>
  <course>10.98</course>
  <speed>0.022360679774997897</speed>
  <fix>3d</fix>
</trkpt>
<trkpt lat="-27.274439" lon="151.290064">
  <ele>343.1</ele>
  <time>2026-09-01T19:51:39Z</time>
  <course>270.0</course>
  <speed>0.0</speed>
  <fix>3d</fix>
</trkpt>
<trkpt lat="-27.2744392" lon="151.2900641">
  <ele>343.08</ele>
  <time>2026-09-01T19:51:39Z</time>
  <course>10.98</course>
  <speed>0.022360679774997897</speed>
  <fix>3d</fix>
</trkpt>
<trkpt lat="-27.274439" lon="151.290064">
  <ele>343.1</ele>
  <time>2026-09-01T19:51:39Z</time>
  <course>270.0</course>
  <speed>0.0</speed>
  <fix>3d</fix>
</trkpt>
<trkpt lat="-27.2744392" lon="151.2900641">
  <ele>343.08</ele>
  <time>2026-09-01T19:51:39Z</time>
  <course>10.98</course>
  <speed>0.022360679774997897</speed>
  <fix>3d</fix>
</trkpt>
<trkpt lat="-27.274439" lon="151.290064">
  <ele>343.1</ele>
  <time>2026-09-01T19:51:39Z</time>
  <course>270.0</course>
  <speed>0.0</speed>
  <fix>3d</fix>
</trkpt>
<trkpt lat="-27.2744392" lon="151.2900641">
  <ele>343.08</ele>
  <time>2026-09-01T19:51:39Z</time>
  <course>10.98</course>
  <speed>0.022360679774997897</speed>
  <fix>3d</fix>
</trkpt>
<trkpt lat="-27.274439" lon="151.290064">
  <ele>343.1</ele>
  <time>2026-09-01T19:51:39Z</time>
  <course>270.0</course>
  <speed>0.0</speed>
  <fix>3d</fix>
</trkpt>
<trkpt lat="-27.2744392" lon="151.2900641">
  <ele>343.08</ele>
  <time>2026-09-01T19:51:39Z</time>
  <course>10.98</course>
  <speed>0.022360679774997897</speed>
  <fix>3d</fix>
</trkpt>
<trkpt lat="-27.274439" lon="151.290064">
  <ele>343.1</ele>
  <time>2026-09-01T19:51:39Z</time>
  <course>270.0</course>
  <speed>0.0</speed>
  <fix>3d</fix>
</trkpt>
<trkpt lat="-27.2744392" lon="151.2900641">
  <ele>343.07</ele>
  <time>2026-09-01T19:51:39Z</time>
  <course>10.99</course>
  <speed>0.022360679774997897</speed>
  <fix>3d</fix>
</trkpt>
<trkpt lat="-27.274439" lon="151.290064">
  <ele>343.1</ele>
  <time>2026-09-01T19:51:39Z</time>
  <course>270.0</course>
  <speed>0.0</speed>
  <fix>3d</fix>
</trkpt>
<trkpt lat="-27.2744392" lon="151.2900641">
  <ele>343.07</ele>
  <time>2026-09-01T19:51:39Z</time>
  <course>10.99</course>
  <speed>0.022360679774997897</speed>
  <fix>3d</fix>
</trkpt>
<trkpt lat="-27.274439" lon="151.290064">
  <ele>343.1</ele>
  <time>2026-09-01T19:51:39Z</time>
  <course>270.0</course>
  <speed>0.0</speed>
  <fix>3d</fix>
</trkpt>
<trkpt lat="-27.2744392" lon="151.2900641">
  <ele>343.07</ele>
  <time>2026-09-01T19:51:39Z</time>
  <course>10.99</course>
  <speed>0.022360679774997897</speed>
  <fix>3d</fix>
</trkpt>
<trkpt lat="-27.274439" lon="151.290064">
  <ele>343.1</ele>
  <time>2026-09-01T19:51:39Z</time>
  <course>270.0</course>
  <speed>0.0</speed>
  <fix>3d</fix>
</trkpt>
<trkpt lat="-27.2744392" lon="151.2900641">
  <ele>343.07</ele>
  <time>2026-09-01T19:51:39Z</time>
  <course>10.99</course>
  <speed>0.022360679774997897</speed>
  <fix>3d</fix>
</trkpt>
<trkpt lat="-27.274439" lon="151.290064">
  <ele>343.1</ele>
  <time>2026-09-01T19:51:39Z</time>
  <course>270.0</course>
  <speed>0.0</speed>
  <fix>3d</fix>
</trkpt>
<trkpt lat="-27.2744392" lon="151.2900641">
  <ele>343.06</ele>
  <time>2026-09-01T19:51:39Z</time>
  <course>10.99</course>
  <speed>0.022360679774997897</speed>
  <fix>3d</fix>
</trkpt>
<trkpt lat="-27.274439" lon="151.290064">
  <ele>343.1</ele>
  <time>2026-09-01T19:51:39Z</time>
  <course>270.0</course>
  <speed>0.0</speed>
  <fix>3d</fix>
</trkpt>
<trkpt lat="-27.2744392" lon="151.2900641">
  <ele>343.06</ele>
  <time>2026-09-01T19:51:39Z</time>
  <course>10.99</course>
  <speed>0.022360679774997897</speed>
  <fix>3d</fix>
</trkpt>
<trkpt lat="-27.274439" lon="151.290064">
  <ele>343.1</ele>
  <time>2026-09-01T19:51:39Z</time>
  <course>270.0</course>
  <speed>0.0</speed>
  <fix>3d</fix>
</trkpt>
<trkpt lat="-27.2744392" lon="151.2900641">
  <ele>343.06</ele>
  <time>2026-09-01T19:51:39Z</time>
  <course>10.99</course>
  <speed>0.022360679774997897</speed>
  <fix>3d</fix>
</trkpt>
<trkpt lat="-27.274439" lon="151.290064">
  <ele>343.1</ele>
  <time>2026-09-01T19:51:39Z</time>
  <course>270.0</course>
  <speed>0.0</speed>
  <fix>3d</fix>
</trkpt>
<trkpt lat="-27.2744392" lon="151.2900641">
  <ele>343.06</ele>
  <time>2026-09-01T19:51:39Z</time>
  <course>10.99</course>
  <speed>0.022360679774997897</speed>
  <fix>3d</fix>
</trkpt>
<trkpt lat="-27.274439" lon="151.290064">
  <ele>343.1</ele>
  <time>2026-09-01T19:51:39Z</time>
  <course>270.0</course>
  <speed>0.0</speed>
  <fix>3d</fix>
</trkpt>
<trkpt lat="-27.2744392" lon="151.2900641">
  <ele>343.06</ele>
  <time>2026-09-01T19:51:39Z</time>
  <course>10.99</course>
  <speed>0.022360679774997897</speed>
  <fix>3d</fix>
</trkpt>
<trkpt lat="-27.274439" lon="151.290064">
  <ele>343.1</ele>
  <time>2026-09-01T19:51:39Z</time>
  <course>270.0</course>
  <speed>0.0</speed>
  <fix>3d</fix>
</trkpt>
<trkpt lat="-27.2744392" lon="151.2900641">
  <ele>343.06</ele>
  <time>2026-09-01T19:51:39Z</time>
  <course>10.99</course>
  <speed>0.022360679774997897</speed>
  <fix>3d</fix>
</trkpt>
<trkpt lat="-27.274439" lon="151.290064">
  <ele>343.1</ele>
  <time>2026-09-01T19:51:39Z</time>
  <course>270.0</course>
  <speed>0.0</speed>
  <fix>3d</fix>
</trkpt>
<trkpt lat="-27.2744392" lon="151.2900641">
  <ele>343.06</ele>
  <time>2026-09-01T19:51:39Z</time>
  <course>11.0</course>
  <speed>0.022360679774997897</speed>
  <fix>3d</fix>
</trkpt>
<trkpt lat="-27.274439" lon="151.290064">
  <ele>343.1</ele>
  <time>2026-09-01T19:51:39Z</time>
  <course>270.0</course>
  <speed>0.0</speed>
  <fix>3d</fix>
</trkpt>
<trkpt lat="-27.2744392" lon="151.2900641">
  <ele>343.06</ele>
  <time>2026-09-01T19:51:39Z</time>
  <course>11.0</course>
  <speed>0.022360679774997897</speed>
  <fix>3d</fix>
</trkpt>
<trkpt lat="-27.274439" lon="151.290064">
  <ele>343.1</ele>
  <time>2026-09-01T19:51:39Z</time>
  <course>270.0</course>
  <speed>0.0</speed>
  <fix>3d</fix>
</trkpt>
<trkpt lat="-27.2744392" lon="151.2900641">
  <ele>343.06</ele>
  <time>2026-09-01T19:51:39Z</time>
  <course>11.0</course>
  <speed>0.022360679774997897</speed>
  <fix>3d</fix>
</trkpt>
<trkpt lat="-27.274439" lon="151.290064">
  <ele>343.1</ele>
  <time>2026-09-01T19:51:39Z</time>
  <course>270.0</course>
  <speed>0.0</speed>
  <fix>3d</fix>
</trkpt>
<trkpt lat="-27.2744392" lon="151.2900641">
  <ele>343.05</ele>
  <time>2026-09-01T19:51:39Z</time>
  <course>11.0</course>
  <speed>0.022360679774997897</speed>
  <fix>3d</fix>
</trkpt>
<trkpt lat="-27.274439" lon="151.290064">
  <ele>343.1</ele>
  <time>2026-09-01T19:51:39Z</time>
  <course>270.0</course>
  <speed>0.0</speed>
  <fix>3d</fix>
</trkpt>
<trkpt lat="-27.2744392" lon="151.2900641">
  <ele>343.05</ele>
  <time>2026-09-01T19:51:39Z</time>
  <course>11.0</course>
  <speed>0.022360679774997897</speed>
  <fix>3d</fix>
</trkpt>
<trkpt lat="-27.274439" lon="151.290064">
  <ele>343.1</ele>
  <time>2026-09-01T19:51:39Z</time>
  <course>270.0</course>
  <speed>0.0</speed>
  <fix>3d</fix>
</trkpt>
<trkpt lat="-27.2744392" lon="151.2900641">
  <ele>343.05</ele>
  <time>2026-09-01T19:51:39Z</time>
  <course>11.0</course>
  <speed>0.022360679774997897</speed>
  <fix>3d</fix>
</trkpt>
<trkpt lat="-27.274439" lon="151.290064">
  <ele>343.1</ele>
  <time>2026-09-01T19:51:39Z</time>
  <course>270.0</course>
  <speed>0.0</speed>
  <fix>3d</fix>
</trkpt>
<trkpt lat="-27.2744392" lon="151.2900641">
  <ele>343.05</ele>
  <time>2026-09-01T19:51:39Z</time>
  <course>11.0</course>
  <speed>0.022360679774997897</speed>
  <fix>3d</fix>
</trkpt>
<trkpt lat="-27.274439" lon="151.290064">
  <ele>343.1</ele>
  <time>2026-09-01T19:51:39Z</time>
  <course>270.0</course>
  <speed>0.0</speed>
  <fix>3d</fix>
</trkpt>
<trkpt lat="-27.2744392" lon="151.2900641">
  <ele>343.05</ele>
  <time>2026-09-01T19:51:39Z</time>
  <course>11.0</course>
  <speed>0.022360679774997897</speed>
  <fix>3d</fix>
</trkpt>
<trkpt lat="-27.274439" lon="151.290064">
  <ele>343.1</ele>
  <time>2026-09-01T19:51:39Z</time>
  <course>270.0</course>
  <speed>0.0</speed>
  <fix>3d</fix>
</trkpt>
<trkpt lat="-27.2744392" lon="151.2900641">
  <ele>343.05</ele>
  <time>2026-09-01T19:51:39Z</time>
  <course>11.0</course>
  <speed>0.022360679774997897</speed>
  <fix>3d</fix>
</trkpt>
<trkpt lat="-27.274439" lon="151.290064">
  <ele>343.1</ele>
  <time>2026-09-01T19:51:39Z</time>
  <course>270.0</course>
  <speed>0.0</speed>
  <fix>3d</fix>
</trkpt>
<trkpt lat="-27.2744392" lon="151.2900641">
  <ele>343.05</ele>
  <time>2026-09-01T19:51:39Z</time>
  <course>11.0</course>
  <speed>0.022360679774997897</speed>
  <fix>3d</fix>
</trkpt>
<trkpt lat="-27.274439" lon="151.290064">
  <ele>343.1</ele>
  <time>2026-09-01T19:51:39Z</time>
  <course>270.0</course>
  <speed>0.0</speed>
  <fix>3d</fix>
</trkpt>
<trkpt lat="-27.2744392" lon="151.2900641">
  <ele>343.05</ele>
  <time>2026-09-01T19:51:39Z</time>
  <course>11.01</course>
  <speed>0.022360679774997897</speed>
  <fix>3d</fix>
</trkpt>
<trkpt lat="-27.274439" lon="151.290064">
  <ele>343.1</ele>
  <time>2026-09-01T19:51:39Z</time>
  <course>270.0</course>
  <speed>0.0</speed>
  <fix>3d</fix>
</trkpt>
<trkpt lat="-27.2744392" lon="151.2900641">
  <ele>343.05</ele>
  <time>2026-09-01T19:51:39Z</time>
  <course>11.01</course>
  <speed>0.022360679774997897</speed>
  <fix>3d</fix>
</trkpt>
<trkpt lat="-27.274439" lon="151.290064">
  <ele>343.1</ele>
  <time>2026-09-01T19:51:39Z</time>
  <course>270.0</course>
  <speed>0.0</speed>
  <fix>3d</fix>
</trkpt>
<trkpt lat="-27.2744392" lon="151.2900641">
  <ele>343.06</ele>
  <time>2026-09-01T19:51:39Z</time>
  <course>11.01</course>
  <speed>0.022360679774997897</speed>
  <fix>3d</fix>
</trkpt>
<trkpt lat="-27.274439" lon="151.290064">
  <ele>343.1</ele>
  <time>2026-09-01T19:51:39Z</time>
  <course>270.0</course>
  <speed>0.0</speed>
  <fix>3d</fix>
</trkpt>
<trkpt lat="-27.2744392" lon="151.2900641">
  <ele>343.06</ele>
  <time>2026-09-01T19:51:39Z</time>
  <course>11.01</course>
  <speed>0.022360679774997897</speed>
  <fix>3d</fix>
</trkpt>
<trkpt lat="-27.274439" lon="151.290064">
  <ele>343.1</ele>
  <time>2026-09-01T19:51:39Z</time>
  <course>270.0</course>
  <speed>0.0</speed>
  <fix>3d</fix>
</trkpt>
<trkpt lat="-27.2744392" lon="151.2900641">
  <ele>343.05</ele>
  <time>2026-09-01T19:51:39Z</time>
  <course>11.01</course>
  <speed>0.022360679774997897</speed>
  <fix>3d</fix>
</trkpt>
<trkpt lat="-27.274439" lon="151.290064">
  <ele>343.1</ele>
  <time>2026-09-01T19:51:39Z</time>
  <course>270.0</course>
  <speed>0.0</speed>
  <fix>3d</fix>
</trkpt>
<trkpt lat="-27.2744392" lon="151.2900641">
  <ele>343.05</ele>
  <time>2026-09-01T19:51:39Z</time>
  <course>11.01</course>
  <speed>0.022360679774997897</speed>
  <fix>3d</fix>
</trkpt>
<trkpt lat="-27.274439" lon="151.290064">
  <ele>343.1</ele>
  <time>2026-09-01T19:51:39Z</time>
  <course>270.0</course>
  <speed>0.0</speed>
  <fix>3d</fix>
</trkpt>
<trkpt lat="-27.2744392" lon="151.2900641">
  <ele>343.05</ele>
  <time>2026-09-01T19:51:39Z</time>
  <course>11.01</course>
  <speed>0.022360679774997897</speed>
  <fix>3d</fix>
</trkpt>
<trkpt lat="-27.274439" lon="151.290064">
  <ele>343.1</ele>
  <time>2026-09-01T19:51:39Z</time>
  <course>270.0</course>
  <speed>0.0</speed>
  <fix>3d</fix>
</trkpt>
<trkpt lat="-27.2744392" lon="151.2900641">
  <ele>343.05</ele>
  <time>2026-09-01T19:51:39Z</time>
  <course>11.01</course>
  <speed>0.022360679774997897</speed>
  <fix>3d</fix>
</trkpt>
<trkpt lat="-27.274439" lon="151.290064">
  <ele>343.1</ele>
  <time>2026-09-01T19:51:39Z</time>
  <course>270.0</course>
  <speed>0.0</speed>
  <fix>3d</fix>
</trkpt>
<trkpt lat="-27.2744392" lon="151.2900641">
  <ele>343.05</ele>
  <time>2026-09-01T19:51:39Z</time>
  <course>11.01</course>
  <speed>0.022360679774997897</speed>
  <fix>3d</fix>
</trkpt>
<trkpt lat="-27.274439" lon="151.290064">
  <ele>343.1</ele>
  <time>2026-09-01T19:51:39Z</time>
  <course>270.0</course>
  <speed>0.0</speed>
  <fix>3d</fix>
</trkpt>
<trkpt lat="-27.2744392" lon="151.2900641">
  <ele>343.05</ele>
  <time>2026-09-01T19:51:39Z</time>
  <course>11.01</course>
  <speed>0.022360679774997897</speed>
  <fix>3d</fix>
</trkpt>
<trkpt lat="-27.274439" lon="151.290064">
  <ele>343.1</ele>
  <time>2026-09-01T19:51:39Z</time>
  <course>270.0</course>
  <speed>0.0</speed>
  <fix>3d</fix>
</trkpt>
<trkpt lat="-27.2744392" lon="151.2900641">
  <ele>343.09</ele>
  <time>2026-09-01T19:51:39Z</time>
  <course>11.02</course>
  <speed>0.022360679774997897</speed>
  <fix>3d</fix>
</trkpt>
<trkpt lat="-27.274439" lon="151.290064">
  <ele>343.1</ele>
  <time>2026-09-01T19:51:39Z</time>
  <course>270.0</course>
  <speed>0.0</speed>
  <fix>3d</fix>
</trkpt>
<trkpt lat="-27.2744392" lon="151.2900641">
  <ele>343.1</ele>
  <time>2026-09-01T19:51:39Z</time>
  <course>11.02</course>
  <speed>0.022360679774997897</speed>
  <fix>3d</fix>
</trkpt>
<trkpt lat="-27.274439" lon="151.290064">
  <ele>343.1</ele>
  <time>2026-09-01T19:51:39Z</time>
  <course>270.0</course>
  <speed>0.0</speed>
  <fix>3d</fix>
</trkpt>
<trkpt lat="-27.2744392" lon="151.2900641">
  <ele>343.09</ele>
  <time>2026-09-01T19:51:39Z</time>
  <course>11.02</course>
  <speed>0.022360679774997897</speed>
  <fix>3d</fix>
</trkpt>
<trkpt lat="-27.274439" lon="151.290064">
  <ele>343.1</ele>
  <time>2026-09-01T19:51:39Z</time>
  <course>270.0</course>
  <speed>0.0</speed>
  <fix>3d</fix>
</trkpt>
<trkpt lat="-27.2744392" lon="151.2900641">
  <ele>343.09</ele>
  <time>2026-09-01T19:51:39Z</time>
  <course>11.02</course>
  <speed>0.022360679774997897</speed>
  <fix>3d</fix>
</trkpt>
<trkpt lat="-27.274439" lon="151.290064">
  <ele>343.1</ele>
  <time>2026-09-01T19:51:39Z</time>
  <course>270.0</course>
  <speed>0.0</speed>
  <fix>3d</fix>
</trkpt>
<trkpt lat="-27.2744392" lon="151.2900641">
  <ele>343.09</ele>
  <time>2026-09-01T19:51:39Z</time>
  <course>11.02</course>
  <speed>0.022360679774997897</speed>
  <fix>3d</fix>
</trkpt>
<trkpt lat="-27.274439" lon="151.290064">
  <ele>343.1</ele>
  <time>2026-09-01T19:51:39Z</time>
  <course>270.0</course>
  <speed>0.0</speed>
  <fix>3d</fix>
</trkpt>
<trkpt lat="-27.2744392" lon="151.2900641">
  <ele>343.09</ele>
  <time>2026-09-01T19:51:39Z</time>
  <course>11.02</course>
  <speed>0.022360679774997897</speed>
  <fix>3d</fix>
</trkpt>
<trkpt lat="-27.274439" lon="151.290064">
  <ele>343.1</ele>
  <time>2026-09-01T19:51:39Z</time>
  <course>270.0</course>
  <speed>0.0</speed>
  <fix>3d</fix>
</trkpt>
<trkpt lat="-27.2744392" lon="151.2900641">
  <ele>343.09</ele>
  <time>2026-09-01T19:51:39Z</time>
  <course>11.02</course>
  <speed>0.022360679774997897</speed>
  <fix>3d</fix>
</trkpt>
<trkpt lat="-27.274439" lon="151.290064">
  <ele>343.1</ele>
  <time>2026-09-01T19:51:39Z</time>
  <course>270.0</course>
  <speed>0.0</speed>
  <fix>3d</fix>
</trkpt>
<trkpt lat="-27.2744392" lon="151.2900641">
  <ele>343.08</ele>
  <time>2026-09-01T19:51:39Z</time>
  <course>11.02</course>
  <speed>0.022360679774997897</speed>
  <fix>3d</fix>
</trkpt>
<trkpt lat="-27.274439" lon="151.290064">
  <ele>343.1</ele>
  <time>2026-09-01T19:51:39Z</time>
  <course>270.0</course>
  <speed>0.0</speed>
  <fix>3d</fix>
</trkpt>
<trkpt lat="-27.2744392" lon="151.2900641">
  <ele>343.08</ele>
  <time>2026-09-01T19:51:39Z</time>
  <course>11.02</course>
  <speed>0.022360679774997897</speed>
  <fix>3d</fix>
</trkpt>
<trkpt lat="-27.274439" lon="151.290064">
  <ele>343.1</ele>
  <time>2026-09-01T19:51:39Z</time>
  <course>270.0</course>
  <speed>0.0</speed>
  <fix>3d</fix>
</trkpt>
<trkpt lat="-27.2744392" lon="151.2900641">
  <ele>343.08</ele>
  <time>2026-09-01T19:51:39Z</time>
  <course>11.02</course>
  <speed>0.022360679774997897</speed>
  <fix>3d</fix>
</trkpt>
<trkpt lat="-27.274439" lon="151.290064">
  <ele>343.1</ele>
  <time>2026-09-01T19:51:39Z</time>
  <course>270.0</course>
  <speed>0.0</speed>
  <fix>3d</fix>
</trkpt>
<trkpt lat="-27.2744392" lon="151.2900641">
  <ele>343.08</ele>
  <time>2026-09-01T19:51:39Z</time>
  <course>11.03</course>
  <speed>0.022360679774997897</speed>
  <fix>3d</fix>
</trkpt>
<trkpt lat="-27.274439" lon="151.290064">
  <ele>343.1</ele>
  <time>2026-09-01T19:51:39Z</time>
  <course>270.0</course>
  <speed>0.0</speed>
  <fix>3d</fix>
</trkpt>
<trkpt lat="-27.2744392" lon="151.2900641">
  <ele>343.07</ele>
  <time>2026-09-01T19:51:39Z</time>
  <course>11.03</course>
  <speed>0.022360679774997897</speed>
  <fix>3d</fix>
</trkpt>
<trkpt lat="-27.274439" lon="151.290064">
  <ele>343.1</ele>
  <time>2026-09-01T19:51:39Z</time>
  <course>270.0</course>
  <speed>0.0</speed>
  <fix>3d</fix>
</trkpt>
<trkpt lat="-27.2744392" lon="151.2900641">
  <ele>343.07</ele>
  <time>2026-09-01T19:51:39Z</time>
  <course>11.03</course>
  <speed>0.022360679774997897</speed>
  <fix>3d</fix>
</trkpt>
<trkpt lat="-27.274439" lon="151.290064">
  <ele>343.1</ele>
  <time>2026-09-01T19:51:39Z</time>
  <course>270.0</course>
  <speed>0.0</speed>
  <fix>3d</fix>
</trkpt>
<trkpt lat="-27.2744392" lon="151.2900641">
  <ele>343.07</ele>
  <time>2026-09-01T19:51:39Z</time>
  <course>11.03</course>
  <speed>0.022360679774997897</speed>
  <fix>3d</fix>
</trkpt>
<trkpt lat="-27.274439" lon="151.290064">
  <ele>343.1</ele>
  <time>2026-09-01T19:51:39Z</time>
  <course>270.0</course>
  <speed>0.0</speed>
  <fix>3d</fix>
</trkpt>
<trkpt lat="-27.2744392" lon="151.2900641">
  <ele>343.06</ele>
  <time>2026-09-01T19:51:39Z</time>
  <course>11.03</course>
  <speed>0.022360679774997897</speed>
  <fix>3d</fix>
</trkpt>
<trkpt lat="-27.274439" lon="151.290064">
  <ele>343.1</ele>
  <time>2026-09-01T19:51:39Z</time>
  <course>270.0</course>
  <speed>0.0</speed>
  <fix>3d</fix>
</trkpt>
<trkpt lat="-27.2744392" lon="151.2900641">
  <ele>343.06</ele>
  <time>2026-09-01T19:51:39Z</time>
  <course>11.03</course>
  <speed>0.022360679774997897</speed>
  <fix>3d</fix>
</trkpt>
<trkpt lat="-27.274439" lon="151.290064">
  <ele>343.1</ele>
  <time>2026-09-01T19:51:39Z</time>
  <course>270.0</course>
  <speed>0.0</speed>
  <fix>3d</fix>
</trkpt>
<trkpt lat="-27.2744392" lon="151.2900641">
  <ele>343.05</ele>
  <time>2026-09-01T19:51:39Z</time>
  <course>11.03</course>
  <speed>0.022360679774997897</speed>
  <fix>3d</fix>
</trkpt>
<trkpt lat="-27.274439" lon="151.290064">
  <ele>343.1</ele>
  <time>2026-09-01T19:51:39Z</time>
  <course>270.0</course>
  <speed>0.0</speed>
  <fix>3d</fix>
</trkpt>
<trkpt lat="-27.2744392" lon="151.2900641">
  <ele>343.05</ele>
  <time>2026-09-01T19:51:39Z</time>
  <course>11.03</course>
  <speed>0.022360679774997897</speed>
  <fix>3d</fix>
</trkpt>
<trkpt lat="-27.274439" lon="151.290064">
  <ele>343.1</ele>
  <time>2026-09-01T19:51:39Z</time>
  <course>270.0</course>
  <speed>0.0</speed>
  <fix>3d</fix>
</trkpt>
<trkpt lat="-27.2744392" lon="151.2900641">
  <ele>343.05</ele>
  <time>2026-09-01T19:51:39Z</time>
  <course>11.03</course>
  <speed>0.022360679774997897</speed>
  <fix>3d</fix>
</trkpt>
<trkpt lat="-27.274439" lon="151.290064">
  <ele>343.1</ele>
  <time>2026-09-01T19:51:39Z</time>
  <course>270.0</course>
  <speed>0.0</speed>
  <fix>3d</fix>
</trkpt>
<trkpt lat="-27.2744392" lon="151.2900641">
  <ele>343.04</ele>
  <time>2026-09-01T19:51:39Z</time>
  <course>11.03</course>
  <speed>0.022360679774997897</speed>
  <fix>3d</fix>
</trkpt>
<trkpt lat="-27.274439" lon="151.290064">
  <ele>343.1</ele>
  <time>2026-09-01T19:51:39Z</time>
  <course>270.0</course>
  <speed>0.0</speed>
  <fix>3d</fix>
</trkpt>
<trkpt lat="-27.2744392" lon="151.2900641">
  <ele>343.04</ele>
  <time>2026-09-01T19:51:39Z</time>
  <course>11.04</course>
  <speed>0.022360679774997897</speed>
  <fix>3d</fix>
</trkpt>
<trkpt lat="-27.274439" lon="151.290064">
  <ele>343.1</ele>
  <time>2026-09-01T19:51:39Z</time>
  <course>270.0</course>
  <speed>0.0</speed>
  <fix>3d</fix>
</trkpt>
<trkpt lat="-27.2744392" lon="151.2900641">
  <ele>343.03</ele>
  <time>2026-09-01T19:51:39Z</time>
  <course>11.04</course>
  <speed>0.022360679774997897</speed>
  <fix>3d</fix>
</trkpt>
<trkpt lat="-27.274439" lon="151.290064">
  <ele>343.1</ele>
  <time>2026-09-01T19:51:39Z</time>
  <course>270.0</course>
  <speed>0.0</speed>
  <fix>3d</fix>
</trkpt>
<trkpt lat="-27.2744392" lon="151.2900641">
  <ele>343.03</ele>
  <time>2026-09-01T19:51:39Z</time>
  <course>11.04</course>
  <speed>0.022360679774997897</speed>
  <fix>3d</fix>
</trkpt>
<trkpt lat="-27.274439" lon="151.290064">
  <ele>343.1</ele>
  <time>2026-09-01T19:51:39Z</time>
  <course>270.0</course>
  <speed>0.0</speed>
  <fix>3d</fix>
</trkpt>
<trkpt lat="-27.2744392" lon="151.2900641">
  <ele>343.03</ele>
  <time>2026-09-01T19:51:39Z</time>
  <course>11.04</course>
  <speed>0.022360679774997897</speed>
  <fix>3d</fix>
</trkpt>
<trkpt lat="-27.274439" lon="151.290064">
  <ele>343.1</ele>
  <time>2026-09-01T19:51:39Z</time>
  <course>270.0</course>
  <speed>0.0</speed>
  <fix>3d</fix>
</trkpt>
<trkpt lat="-27.2744392" lon="151.2900641">
  <ele>343.03</ele>
  <time>2026-09-01T19:51:39Z</time>
  <course>11.04</course>
  <speed>0.022360679774997897</speed>
  <fix>3d</fix>
</trkpt>
<trkpt lat="-27.274439" lon="151.290064">
  <ele>343.1</ele>
  <time>2026-09-01T19:51:39Z</time>
  <course>270.0</course>
  <speed>0.0</speed>
  <fix>3d</fix>
</trkpt>
<trkpt lat="-27.2744392" lon="151.2900641">
  <ele>343.03</ele>
  <time>2026-09-01T19:51:39Z</time>
  <course>11.04</course>
  <speed>0.022360679774997897</speed>
  <fix>3d</fix>
</trkpt>
<trkpt lat="-27.274439" lon="151.290064">
  <ele>343.1</ele>
  <time>2026-09-01T19:51:39Z</time>
  <course>270.0</course>
  <speed>0.0</speed>
  <fix>3d</fix>
</trkpt>
<trkpt lat="-27.2744392" lon="151.2900641">
  <ele>343.03</ele>
  <time>2026-09-01T19:51:39Z</time>
  <course>11.04</course>
  <speed>0.022360679774997897</speed>
  <fix>3d</fix>
</trkpt>
<trkpt lat="-27.274439" lon="151.290064">
  <ele>343.1</ele>
  <time>2026-09-01T19:51:39Z</time>
  <course>270.0</course>
  <speed>0.0</speed>
  <fix>3d</fix>
</trkpt>
<trkpt lat="-27.2744392" lon="151.2900641">
  <ele>343.02</ele>
  <time>2026-09-01T19:51:39Z</time>
  <course>11.04</course>
  <speed>0.022360679774997897</speed>
  <fix>3d</fix>
</trkpt>
<trkpt lat="-27.274439" lon="151.290064">
  <ele>343.1</ele>
  <time>2026-09-01T19:51:39Z</time>
  <course>270.0</course>
  <speed>0.0</speed>
  <fix>3d</fix>
</trkpt>
<trkpt lat="-27.2744392" lon="151.2900641">
  <ele>343.02</ele>
  <time>2026-09-01T19:51:39Z</time>
  <course>11.04</course>
  <speed>0.022360679774997897</speed>
  <fix>3d</fix>
</trkpt>
<trkpt lat="-27.274439" lon="151.290064">
  <ele>343.1</ele>
  <time>2026-09-01T19:51:39Z</time>
  <course>270.0</course>
  <speed>0.0</speed>
  <fix>3d</fix>
</trkpt>
<trkpt lat="-27.2744392" lon="151.2900641">
  <ele>343.02</ele>
  <time>2026-09-01T19:51:39Z</time>
  <course>11.05</course>
  <speed>0.022360679774997897</speed>
  <fix>3d</fix>
</trkpt>
<trkpt lat="-27.274439" lon="151.290064">
  <ele>343.1</ele>
  <time>2026-09-01T19:51:39Z</time>
  <course>270.0</course>
  <speed>0.0</speed>
  <fix>3d</fix>
</trkpt>
<trkpt lat="-27.2744392" lon="151.2900641">
  <ele>343.02</ele>
  <time>2026-09-01T19:51:39Z</time>
  <course>11.05</course>
  <speed>0.022360679774997897</speed>
  <fix>3d</fix>
</trkpt>
<trkpt lat="-27.274439" lon="151.290064">
  <ele>343.1</ele>
  <time>2026-09-01T19:51:39Z</time>
  <course>270.0</course>
  <speed>0.0</speed>
  <fix>3d</fix>
</trkpt>
<trkpt lat="-27.2744392" lon="151.2900641">
  <ele>343.01</ele>
  <time>2026-09-01T19:51:39Z</time>
  <course>11.05</course>
  <speed>0.022360679774997897</speed>
  <fix>3d</fix>
</trkpt>
<trkpt lat="-27.274439" lon="151.290064">
  <ele>343.1</ele>
  <time>2026-09-01T19:51:39Z</time>
  <course>270.0</course>
  <speed>0.0</speed>
  <fix>3d</fix>
</trkpt>
<trkpt lat="-27.2744392" lon="151.2900641">
  <ele>343.01</ele>
  <time>2026-09-01T19:51:39Z</time>
  <course>11.05</course>
  <speed>0.022360679774997897</speed>
  <fix>3d</fix>
</trkpt>
<trkpt lat="-27.274439" lon="151.290064">
  <ele>343.1</ele>
  <time>2026-09-01T19:51:39Z</time>
  <course>270.0</course>
  <speed>0.0</speed>
  <fix>3d</fix>
</trkpt>
<trkpt lat="-27.2744392" lon="151.2900641">
  <ele>343.01</ele>
  <time>2026-09-01T19:51:39Z</time>
  <course>11.05</course>
  <speed>0.022360679774997897</speed>
  <fix>3d</fix>
</trkpt>
<trkpt lat="-27.274439" lon="151.290064">
  <ele>343.1</ele>
  <time>2026-09-01T19:51:39Z</time>
  <course>270.0</course>
  <speed>0.0</speed>
  <fix>3d</fix>
</trkpt>
<trkpt lat="-27.2744392" lon="151.2900641">
  <ele>343.0</ele>
  <time>2026-09-01T19:51:39Z</time>
  <course>11.05</course>
  <speed>0.022360679774997897</speed>
  <fix>3d</fix>
</trkpt>
<trkpt lat="-27.274439" lon="151.290064">
  <ele>343.1</ele>
  <time>2026-09-01T19:51:39Z</time>
  <course>270.0</course>
  <speed>0.0</speed>
  <fix>3d</fix>
</trkpt>
<trkpt lat="-27.2744392" lon="151.2900641">
  <ele>343.0</ele>
  <time>2026-09-01T19:51:39Z</time>
  <course>11.05</course>
  <speed>0.022360679774997897</speed>
  <fix>3d</fix>
</trkpt>
<trkpt lat="-27.274439" lon="151.290064">
  <ele>343.1</ele>
  <time>2026-09-01T19:51:39Z</time>
  <course>270.0</course>
  <speed>0.0</speed>
  <fix>3d</fix>
</trkpt>
<trkpt lat="-27.2744392" lon="151.2900641">
  <ele>343.0</ele>
  <time>2026-09-01T19:51:39Z</time>
  <course>11.05</course>
  <speed>0.022360679774997897</speed>
  <fix>3d</fix>
</trkpt>
<trkpt lat="-27.274439" lon="151.290064">
  <ele>343.1</ele>
  <time>2026-09-01T19:51:39Z</time>
  <course>270.0</course>
  <speed>0.0</speed>
  <fix>3d</fix>
</trkpt>
<trkpt lat="-27.2744392" lon="151.2900641">
  <ele>343.0</ele>
  <time>2026-09-01T19:51:39Z</time>
  <course>11.05</course>
  <speed>0.022360679774997897</speed>
  <fix>3d</fix>
</trkpt>
<trkpt lat="-27.274439" lon="151.290064">
  <ele>343.1</ele>
  <time>2026-09-01T19:51:39Z</time>
  <course>270.0</course>
  <speed>0.0</speed>
  <fix>3d</fix>
</trkpt>
<trkpt lat="-27.2744392" lon="151.2900641">
  <ele>342.99</ele>
  <time>2026-09-01T19:51:39Z</time>
  <course>11.05</course>
  <speed>0.022360679774997897</speed>
  <fix>3d</fix>
</trkpt>
<trkpt lat="-27.274439" lon="151.290064">
  <ele>343.1</ele>
  <time>2026-09-01T19:51:39Z</time>
  <course>270.0</course>
  <speed>0.0</speed>
  <fix>3d</fix>
</trkpt>
<trkpt lat="-27.2744392" lon="151.2900641">
  <ele>342.99</ele>
  <time>2026-09-01T19:51:39Z</time>
  <course>11.06</course>
  <speed>0.022360679774997897</speed>
  <fix>3d</fix>
</trkpt>
<trkpt lat="-27.274439" lon="151.290064">
  <ele>343.1</ele>
  <time>2026-09-01T19:51:39Z</time>
  <course>270.0</course>
  <speed>0.0</speed>
  <fix>3d</fix>
</trkpt>
<trkpt lat="-27.2744392" lon="151.2900641">
  <ele>342.99</ele>
  <time>2026-09-01T19:51:39Z</time>
  <course>11.06</course>
  <speed>0.022360679774997897</speed>
  <fix>3d</fix>
</trkpt>
<trkpt lat="-27.274439" lon="151.290064">
  <ele>343.1</ele>
  <time>2026-09-01T19:51:39Z</time>
  <course>270.0</course>
  <speed>0.0</speed>
  <fix>3d</fix>
</trkpt>
<trkpt lat="-27.2744392" lon="151.2900641">
  <ele>342.99</ele>
  <time>2026-09-01T19:51:39Z</time>
  <course>11.06</course>
  <speed>0.022360679774997897</speed>
  <fix>3d</fix>
</trkpt>
<trkpt lat="-27.274439" lon="151.290064">
  <ele>343.1</ele>
  <time>2026-09-01T19:51:39Z</time>
  <course>270.0</course>
  <speed>0.0</speed>
  <fix>3d</fix>
</trkpt>
<trkpt lat="-27.2744392" lon="151.2900641">
  <ele>342.99</ele>
  <time>2026-09-01T19:51:39Z</time>
  <course>11.06</course>
  <speed>0.022360679774997897</speed>
  <fix>3d</fix>
</trkpt>
<trkpt lat="-27.274439" lon="151.290064">
  <ele>343.1</ele>
  <time>2026-09-01T19:51:39Z</time>
  <course>270.0</course>
  <speed>0.0</speed>
  <fix>3d</fix>
</trkpt>
<trkpt lat="-27.2744392" lon="151.2900641">
  <ele>342.98</ele>
  <time>2026-09-01T19:51:39Z</time>
  <course>11.06</course>
  <speed>0.022360679774997897</speed>
  <fix>3d</fix>
</trkpt>
<trkpt lat="-27.274439" lon="151.290064">
  <ele>343.1</ele>
  <time>2026-09-01T19:51:39Z</time>
  <course>270.0</course>
  <speed>0.0</speed>
  <fix>3d</fix>
</trkpt>
<trkpt lat="-27.2744392" lon="151.2900641">
  <ele>342.98</ele>
  <time>2026-09-01T19:51:39Z</time>
  <course>11.06</course>
  <speed>0.022360679774997897</speed>
  <fix>3d</fix>
</trkpt>
<trkpt lat="-27.274439" lon="151.290064">
  <ele>343.1</ele>
  <time>2026-09-01T19:51:39Z</time>
  <course>270.0</course>
  <speed>0.0</speed>
  <fix>3d</fix>
</trkpt>
<trkpt lat="-27.2744392" lon="151.2900641">
  <ele>342.98</ele>
  <time>2026-09-01T19:51:39Z</time>
  <course>11.06</course>
  <speed>0.022360679774997897</speed>
  <fix>3d</fix>
</trkpt>
<trkpt lat="-27.274439" lon="151.290064">
  <ele>343.1</ele>
  <time>2026-09-01T19:51:39Z</time>
  <course>270.0</course>
  <speed>0.0</speed>
  <fix>3d</fix>
</trkpt>
<trkpt lat="-27.2744392" lon="151.2900641">
  <ele>342.98</ele>
  <time>2026-09-01T19:51:39Z</time>
  <course>11.06</course>
  <speed>0.022360679774997897</speed>
  <fix>3d</fix>
</trkpt>
<trkpt lat="-27.274439" lon="151.290064">
  <ele>343.1</ele>
  <time>2026-09-01T19:51:39Z</time>
  <course>270.0</course>
  <speed>0.0</speed>
  <fix>3d</fix>
</trkpt>
<trkpt lat="-27.2744392" lon="151.2900641">
  <ele>342.98</ele>
  <time>2026-09-01T19:51:39Z</time>
  <course>11.06</course>
  <speed>0.022360679774997897</speed>
  <fix>3d</fix>
</trkpt>
<trkpt lat="-27.274439" lon="151.290064">
  <ele>343.1</ele>
  <time>2026-09-01T19:51:39Z</time>
  <course>270.0</course>
  <speed>0.0</speed>
  <fix>3d</fix>
</trkpt>
<trkpt lat="-27.2744392" lon="151.2900641">
  <ele>342.97</ele>
  <time>2026-09-01T19:51:39Z</time>
  <course>11.06</course>
  <speed>0.022360679774997897</speed>
  <fix>3d</fix>
</trkpt>
<trkpt lat="-27.274439" lon="151.290064">
  <ele>343.1</ele>
  <time>2026-09-01T19:51:39Z</time>
  <course>270.0</course>
  <speed>0.0</speed>
  <fix>3d</fix>
</trkpt>
<trkpt lat="-27.2744392" lon="151.2900641">
  <ele>342.97</ele>
  <time>2026-09-01T19:51:39Z</time>
  <course>11.07</course>
  <speed>0.022360679774997897</speed>
  <fix>3d</fix>
</trkpt>
<trkpt lat="-27.274439" lon="151.290064">
  <ele>343.1</ele>
  <time>2026-09-01T19:51:39Z</time>
  <course>270.0</course>
  <speed>0.0</speed>
  <fix>3d</fix>
</trkpt>
<trkpt lat="-27.2744392" lon="151.2900641">
  <ele>342.97</ele>
  <time>2026-09-01T19:51:39Z</time>
  <course>11.07</course>
  <speed>0.022360679774997897</speed>
  <fix>3d</fix>
</trkpt>
<trkpt lat="-27.274439" lon="151.290064">
  <ele>343.1</ele>
  <time>2026-09-01T19:51:39Z</time>
  <course>270.0</course>
  <speed>0.0</speed>
  <fix>3d</fix>
</trkpt>
<trkpt lat="-27.2744392" lon="151.2900641">
  <ele>342.97</ele>
  <time>2026-09-01T19:51:39Z</time>
  <course>11.07</course>
  <speed>0.022360679774997897</speed>
  <fix>3d</fix>
</trkpt>
<trkpt lat="-27.274439" lon="151.290064">
  <ele>343.1</ele>
  <time>2026-09-01T19:51:39Z</time>
  <course>270.0</course>
  <speed>0.0</speed>
  <fix>3d</fix>
</trkpt>
<trkpt lat="-27.2744392" lon="151.2900641">
  <ele>342.97</ele>
  <time>2026-09-01T19:51:39Z</time>
  <course>11.07</course>
  <speed>0.022360679774997897</speed>
  <fix>3d</fix>
</trkpt>
<trkpt lat="-27.274439" lon="151.290064">
  <ele>343.1</ele>
  <time>2026-09-01T19:51:39Z</time>
  <course>270.0</course>
  <speed>0.0</speed>
  <fix>3d</fix>
</trkpt>
<trkpt lat="-27.2744392" lon="151.2900641">
  <ele>342.96</ele>
  <time>2026-09-01T19:51:39Z</time>
  <course>11.07</course>
  <speed>0.022360679774997897</speed>
  <fix>3d</fix>
</trkpt>
<trkpt lat="-27.274439" lon="151.290064">
  <ele>343.1</ele>
  <time>2026-09-01T19:51:39Z</time>
  <course>270.0</course>
  <speed>0.0</speed>
  <fix>3d</fix>
</trkpt>
<trkpt lat="-27.2744392" lon="151.2900641">
  <ele>342.96</ele>
  <time>2026-09-01T19:51:39Z</time>
  <course>11.07</course>
  <speed>0.022360679774997897</speed>
  <fix>3d</fix>
</trkpt>
<trkpt lat="-27.274439" lon="151.290064">
  <ele>343.1</ele>
  <time>2026-09-01T19:51:39Z</time>
  <course>270.0</course>
  <speed>0.0</speed>
  <fix>3d</fix>
</trkpt>
<trkpt lat="-27.2744392" lon="151.2900641">
  <ele>342.96</ele>
  <time>2026-09-01T19:51:39Z</time>
  <course>11.07</course>
  <speed>0.022360679774997897</speed>
  <fix>3d</fix>
</trkpt>
<trkpt lat="-27.274439" lon="151.290064">
  <ele>343.1</ele>
  <time>2026-09-01T19:51:39Z</time>
  <course>270.0</course>
  <speed>0.0</speed>
  <fix>3d</fix>
</trkpt>
<trkpt lat="-27.2744392" lon="151.2900641">
  <ele>342.96</ele>
  <time>2026-09-01T19:51:39Z</time>
  <course>11.07</course>
  <speed>0.022360679774997897</speed>
  <fix>3d</fix>
</trkpt>
<trkpt lat="-27.274439" lon="151.290064">
  <ele>343.1</ele>
  <time>2026-09-01T19:51:39Z</time>
  <course>270.0</course>
  <speed>0.0</speed>
  <fix>3d</fix>
</trkpt>
<trkpt lat="-27.2744392" lon="151.2900641">
  <ele>342.96</ele>
  <time>2026-09-01T19:51:39Z</time>
  <course>11.07</course>
  <speed>0.022360679774997897</speed>
  <fix>3d</fix>
</trkpt>
<trkpt lat="-27.274439" lon="151.290064">
  <ele>343.1</ele>
  <time>2026-09-01T19:51:39Z</time>
  <course>270.0</course>
  <speed>0.0</speed>
  <fix>3d</fix>
</trkpt>
<trkpt lat="-27.2744392" lon="151.2900641">
  <ele>342.96</ele>
  <time>2026-09-01T19:51:39Z</time>
  <course>11.08</course>
  <speed>0.022360679774997897</speed>
  <fix>3d</fix>
</trkpt>
<trkpt lat="-27.274439" lon="151.290064">
  <ele>343.1</ele>
  <time>2026-09-01T19:51:39Z</time>
  <course>270.0</course>
  <speed>0.0</speed>
  <fix>3d</fix>
</trkpt>
<trkpt lat="-27.2744392" lon="151.2900641">
  <ele>342.96</ele>
  <time>2026-09-01T19:51:39Z</time>
  <course>11.08</course>
  <speed>0.022360679774997897</speed>
  <fix>3d</fix>
</trkpt>
<trkpt lat="-27.274439" lon="151.290064">
  <ele>343.1</ele>
  <time>2026-09-01T19:51:39Z</time>
  <course>270.0</course>
  <speed>0.0</speed>
  <fix>3d</fix>
</trkpt>
<trkpt lat="-27.2744392" lon="151.2900641">
  <ele>343.09</ele>
  <time>2026-09-01T19:51:39Z</time>
  <course>11.08</course>
  <speed>0.022360679774997897</speed>
  <fix>3d</fix>
</trkpt>
<trkpt lat="-27.274439" lon="151.290064">
  <ele>343.1</ele>
  <time>2026-09-01T19:51:39Z</time>
  <course>270.0</course>
  <speed>0.0</speed>
  <fix>3d</fix>
</trkpt>
<trkpt lat="-27.2744392" lon="151.2900641">
  <ele>343.09</ele>
  <time>2026-09-01T19:51:39Z</time>
  <course>11.08</course>
  <speed>0.022360679774997897</speed>
  <fix>3d</fix>
</trkpt>
<trkpt lat="-27.274439" lon="151.290064">
  <ele>343.1</ele>
  <time>2026-09-01T19:51:39Z</time>
  <course>270.0</course>
  <speed>0.0</speed>
  <fix>3d</fix>
</trkpt>
<trkpt lat="-27.2744392" lon="151.2900641">
  <ele>343.09</ele>
  <time>2026-09-01T19:51:39Z</time>
  <course>11.08</course>
  <speed>0.022360679774997897</speed>
  <fix>3d</fix>
</trkpt>
<trkpt lat="-27.274439" lon="151.290064">
  <ele>343.1</ele>
  <time>2026-09-01T19:51:39Z</time>
  <course>270.0</course>
  <speed>0.0</speed>
  <fix>3d</fix>
</trkpt>
<trkpt lat="-27.2744392" lon="151.2900641">
  <ele>343.09</ele>
  <time>2026-09-01T19:51:39Z</time>
  <course>11.08</course>
  <speed>0.022360679774997897</speed>
  <fix>3d</fix>
</trkpt>
<trkpt lat="-27.274439" lon="151.290064">
  <ele>343.1</ele>
  <time>2026-09-01T19:51:39Z</time>
  <course>270.0</course>
  <speed>0.0</speed>
  <fix>3d</fix>
</trkpt>
<trkpt lat="-27.2744392" lon="151.2900641">
  <ele>343.09</ele>
  <time>2026-09-01T19:51:39Z</time>
  <course>11.08</course>
  <speed>0.022360679774997897</speed>
  <fix>3d</fix>
</trkpt>
<trkpt lat="-27.274439" lon="151.290064">
  <ele>343.1</ele>
  <time>2026-09-01T19:51:39Z</time>
  <course>270.0</course>
  <speed>0.0</speed>
  <fix>3d</fix>
</trkpt>
<trkpt lat="-27.2744392" lon="151.2900641">
  <ele>343.09</ele>
  <time>2026-09-01T19:51:39Z</time>
  <course>11.08</course>
  <speed>0.022360679774997897</speed>
  <fix>3d</fix>
</trkpt>
<trkpt lat="-27.274439" lon="151.290064">
  <ele>343.1</ele>
  <time>2026-09-01T19:51:39Z</time>
  <course>270.0</course>
  <speed>0.0</speed>
  <fix>3d</fix>
</trkpt>
<trkpt lat="-27.2744392" lon="151.2900641">
  <ele>343.09</ele>
  <time>2026-09-01T19:51:39Z</time>
  <course>11.08</course>
  <speed>0.022360679774997897</speed>
  <fix>3d</fix>
</trkpt>
<trkpt lat="-27.274439" lon="151.290064">
  <ele>343.1</ele>
  <time>2026-09-01T19:51:39Z</time>
  <course>270.0</course>
  <speed>0.0</speed>
  <fix>3d</fix>
</trkpt>
<trkpt lat="-27.2744392" lon="151.2900641">
  <ele>343.1</ele>
  <time>2026-09-01T19:51:39Z</time>
  <course>11.09</course>
  <speed>0.022360679774997897</speed>
  <fix>3d</fix>
</trkpt>
<trkpt lat="-27.274439" lon="151.290064">
  <ele>343.1</ele>
  <time>2026-09-01T19:51:39Z</time>
  <course>270.0</course>
  <speed>0.0</speed>
  <fix>3d</fix>
</trkpt>
<trkpt lat="-27.2744392" lon="151.2900641">
  <ele>343.1</ele>
  <time>2026-09-01T19:51:39Z</time>
  <course>11.09</course>
  <speed>0.022360679774997897</speed>
  <fix>3d</fix>
</trkpt>
<trkpt lat="-27.274439" lon="151.290064">
  <ele>343.1</ele>
  <time>2026-09-01T19:51:39Z</time>
  <course>270.0</course>
  <speed>0.0</speed>
  <fix>3d</fix>
</trkpt>
<trkpt lat="-27.2744392" lon="151.2900641">
  <ele>343.1</ele>
  <time>2026-09-01T19:51:39Z</time>
  <course>11.09</course>
  <speed>0.022360679774997897</speed>
  <fix>3d</fix>
</trkpt>
<trkpt lat="-27.274439" lon="151.290064">
  <ele>343.1</ele>
  <time>2026-09-01T19:51:39Z</time>
  <course>270.0</course>
  <speed>0.0</speed>
  <fix>3d</fix>
</trkpt>
<trkpt lat="-27.2744392" lon="151.2900641">
  <ele>343.1</ele>
  <time>2026-09-01T19:51:40Z</time>
  <course>11.09</course>
  <speed>0.022360679774997897</speed>
  <fix>3d</fix>
</trkpt>
<trkpt lat="-27.274439" lon="151.290064">
  <ele>343.1</ele>
  <time>2026-09-01T19:51:40Z</time>
  <course>270.0</course>
  <speed>0.0</speed>
  <fix>3d</fix>
</trkpt>
<trkpt lat="-27.2744392" lon="151.2900641">
  <ele>343.11</ele>
  <time>2026-09-01T19:51:40Z</time>
  <course>11.09</course>
  <speed>0.022360679774997897</speed>
  <fix>3d</fix>
</trkpt>
<trkpt lat="-27.274439" lon="151.290064">
  <ele>343.1</ele>
  <time>2026-09-01T19:51:40Z</time>
  <course>270.0</course>
  <speed>0.0</speed>
  <fix>3d</fix>
</trkpt>
<trkpt lat="-27.2744392" lon="151.2900641">
  <ele>343.11</ele>
  <time>2026-09-01T19:51:40Z</time>
  <course>11.09</course>
  <speed>0.022360679774997897</speed>
  <fix>3d</fix>
</trkpt>
<trkpt lat="-27.274439" lon="151.290064">
  <ele>343.1</ele>
  <time>2026-09-01T19:51:40Z</time>
  <course>270.0</course>
  <speed>0.0</speed>
  <fix>3d</fix>
</trkpt>
<trkpt lat="-27.2744392" lon="151.2900641">
  <ele>343.11</ele>
  <time>2026-09-01T19:51:40Z</time>
  <course>11.09</course>
  <speed>0.022360679774997897</speed>
  <fix>3d</fix>
</trkpt>
<trkpt lat="-27.274439" lon="151.290064">
  <ele>343.1</ele>
  <time>2026-09-01T19:51:40Z</time>
  <course>270.0</course>
  <speed>0.0</speed>
  <fix>3d</fix>
</trkpt>
<trkpt lat="-27.2744392" lon="151.2900641">
  <ele>343.11</ele>
  <time>2026-09-01T19:51:40Z</time>
  <course>11.09</course>
  <speed>0.022360679774997897</speed>
  <fix>3d</fix>
</trkpt>
<trkpt lat="-27.274439" lon="151.290064">
  <ele>343.1</ele>
  <time>2026-09-01T19:51:40Z</time>
  <course>270.0</course>
  <speed>0.0</speed>
  <fix>3d</fix>
</trkpt>
<trkpt lat="-27.2744392" lon="151.2900641">
  <ele>343.12</ele>
  <time>2026-09-01T19:51:40Z</time>
  <course>11.09</course>
  <speed>0.022360679774997897</speed>
  <fix>3d</fix>
</trkpt>
<trkpt lat="-27.274439" lon="151.290064">
  <ele>343.1</ele>
  <time>2026-09-01T19:51:40Z</time>
  <course>270.0</course>
  <speed>0.0</speed>
  <fix>3d</fix>
</trkpt>
<trkpt lat="-27.2744392" lon="151.2900641">
  <ele>343.12</ele>
  <time>2026-09-01T19:51:40Z</time>
  <course>11.09</course>
  <speed>0.022360679774997897</speed>
  <fix>3d</fix>
</trkpt>
<trkpt lat="-27.274439" lon="151.290064">
  <ele>343.1</ele>
  <time>2026-09-01T19:51:40Z</time>
  <course>270.0</course>
  <speed>0.0</speed>
  <fix>3d</fix>
</trkpt>
<trkpt lat="-27.2744392" lon="151.2900641">
  <ele>343.12</ele>
  <time>2026-09-01T19:51:40Z</time>
  <course>11.1</course>
  <speed>0.022360679774997897</speed>
  <fix>3d</fix>
</trkpt>
<trkpt lat="-27.274439" lon="151.290064">
  <ele>343.1</ele>
  <time>2026-09-01T19:51:40Z</time>
  <course>270.0</course>
  <speed>0.0</speed>
  <fix>3d</fix>
</trkpt>
<trkpt lat="-27.2744392" lon="151.2900641">
  <ele>343.12</ele>
  <time>2026-09-01T19:51:40Z</time>
  <course>11.1</course>
  <speed>0.022360679774997897</speed>
  <fix>3d</fix>
</trkpt>
<trkpt lat="-27.274439" lon="151.290064">
  <ele>343.1</ele>
  <time>2026-09-01T19:51:40Z</time>
  <course>270.0</course>
  <speed>0.0</speed>
  <fix>3d</fix>
</trkpt>
<trkpt lat="-27.2744392" lon="151.2900641">
  <ele>343.13</ele>
  <time>2026-09-01T19:51:40Z</time>
  <course>11.1</course>
  <speed>0.022360679774997897</speed>
  <fix>3d</fix>
</trkpt>
<trkpt lat="-27.274439" lon="151.290064">
  <ele>343.1</ele>
  <time>2026-09-01T19:51:40Z</time>
  <course>270.0</course>
  <speed>0.0</speed>
  <fix>3d</fix>
</trkpt>
<trkpt lat="-27.2744392" lon="151.2900641">
  <ele>343.13</ele>
  <time>2026-09-01T19:51:40Z</time>
  <course>11.1</course>
  <speed>0.022360679774997897</speed>
  <fix>3d</fix>
</trkpt>
<trkpt lat="-27.274439" lon="151.290064">
  <ele>343.1</ele>
  <time>2026-09-01T19:51:40Z</time>
  <course>270.0</course>
  <speed>0.0</speed>
  <fix>3d</fix>
</trkpt>
<trkpt lat="-27.2744392" lon="151.2900641">
  <ele>343.13</ele>
  <time>2026-09-01T19:51:40Z</time>
  <course>11.1</course>
  <speed>0.022360679774997897</speed>
  <fix>3d</fix>
</trkpt>
<trkpt lat="-27.274439" lon="151.290064">
  <ele>343.1</ele>
  <time>2026-09-01T19:51:40Z</time>
  <course>270.0</course>
  <speed>0.0</speed>
  <fix>3d</fix>
</trkpt>
<trkpt lat="-27.2744392" lon="151.2900641">
  <ele>343.14</ele>
  <time>2026-09-01T19:51:40Z</time>
  <course>11.1</course>
  <speed>0.022360679774997897</speed>
  <fix>3d</fix>
</trkpt>
<trkpt lat="-27.274439" lon="151.290064">
  <ele>343.1</ele>
  <time>2026-09-01T19:51:40Z</time>
  <course>270.0</course>
  <speed>0.0</speed>
  <fix>3d</fix>
</trkpt>
<trkpt lat="-27.2744392" lon="151.2900641">
  <ele>343.14</ele>
  <time>2026-09-01T19:51:40Z</time>
  <course>11.1</course>
  <speed>0.022360679774997897</speed>
  <fix>3d</fix>
</trkpt>
<trkpt lat="-27.274439" lon="151.290064">
  <ele>343.1</ele>
  <time>2026-09-01T19:51:40Z</time>
  <course>270.0</course>
  <speed>0.0</speed>
  <fix>3d</fix>
</trkpt>
<trkpt lat="-27.2744392" lon="151.2900641">
  <ele>343.14</ele>
  <time>2026-09-01T19:51:40Z</time>
  <course>11.1</course>
  <speed>0.022360679774997897</speed>
  <fix>3d</fix>
</trkpt>
<trkpt lat="-27.274439" lon="151.290064">
  <ele>343.1</ele>
  <time>2026-09-01T19:51:40Z</time>
  <course>270.0</course>
  <speed>0.0</speed>
  <fix>3d</fix>
</trkpt>
<trkpt lat="-27.2744392" lon="151.2900641">
  <ele>343.14</ele>
  <time>2026-09-01T19:51:40Z</time>
  <course>11.1</course>
  <speed>0.022360679774997897</speed>
  <fix>3d</fix>
</trkpt>
<trkpt lat="-27.274439" lon="151.290064">
  <ele>343.1</ele>
  <time>2026-09-01T19:51:40Z</time>
  <course>270.0</course>
  <speed>0.0</speed>
  <fix>3d</fix>
</trkpt>
<trkpt lat="-27.2744392" lon="151.2900641">
  <ele>343.14</ele>
  <time>2026-09-01T19:51:40Z</time>
  <course>11.1</course>
  <speed>0.022360679774997897</speed>
  <fix>3d</fix>
</trkpt>
<trkpt lat="-27.274439" lon="151.290064">
  <ele>343.1</ele>
  <time>2026-09-01T19:51:40Z</time>
  <course>270.0</course>
  <speed>0.0</speed>
  <fix>3d</fix>
</trkpt>
<trkpt lat="-27.2744392" lon="151.2900641">
  <ele>343.15</ele>
  <time>2026-09-01T19:51:40Z</time>
  <course>11.11</course>
  <speed>0.022360679774997897</speed>
  <fix>3d</fix>
</trkpt>
<trkpt lat="-27.274439" lon="151.290064">
  <ele>343.1</ele>
  <time>2026-09-01T19:51:40Z</time>
  <course>270.0</course>
  <speed>0.0</speed>
  <fix>3d</fix>
</trkpt>
<trkpt lat="-27.2744392" lon="151.2900641">
  <ele>343.15</ele>
  <time>2026-09-01T19:51:40Z</time>
  <course>11.11</course>
  <speed>0.022360679774997897</speed>
  <fix>3d</fix>
</trkpt>
<trkpt lat="-27.274439" lon="151.290064">
  <ele>343.1</ele>
  <time>2026-09-01T19:51:40Z</time>
  <course>270.0</course>
  <speed>0.0</speed>
  <fix>3d</fix>
</trkpt>
<trkpt lat="-27.2744392" lon="151.2900641">
  <ele>343.14</ele>
  <time>2026-09-01T19:51:40Z</time>
  <course>11.11</course>
  <speed>0.022360679774997897</speed>
  <fix>3d</fix>
</trkpt>
<trkpt lat="-27.274439" lon="151.290064">
  <ele>343.1</ele>
  <time>2026-09-01T19:51:40Z</time>
  <course>270.0</course>
  <speed>0.0</speed>
  <fix>3d</fix>
</trkpt>
<trkpt lat="-27.2744392" lon="151.2900641">
  <ele>343.14</ele>
  <time>2026-09-01T19:51:40Z</time>
  <course>11.11</course>
  <speed>0.022360679774997897</speed>
  <fix>3d</fix>
</trkpt>
<trkpt lat="-27.274439" lon="151.290064">
  <ele>343.1</ele>
  <time>2026-09-01T19:51:40Z</time>
  <course>270.0</course>
  <speed>0.0</speed>
  <fix>3d</fix>
</trkpt>
<trkpt lat="-27.2744392" lon="151.2900641">
  <ele>343.15</ele>
  <time>2026-09-01T19:51:40Z</time>
  <course>11.11</course>
  <speed>0.022360679774997897</speed>
  <fix>3d</fix>
</trkpt>
<trkpt lat="-27.274439" lon="151.290064">
  <ele>343.1</ele>
  <time>2026-09-01T19:51:40Z</time>
  <course>270.0</course>
  <speed>0.0</speed>
  <fix>3d</fix>
</trkpt>
<trkpt lat="-27.2744392" lon="151.2900641">
  <ele>343.15</ele>
  <time>2026-09-01T19:51:40Z</time>
  <course>11.11</course>
  <speed>0.022360679774997897</speed>
  <fix>3d</fix>
</trkpt>
<trkpt lat="-27.274439" lon="151.290064">
  <ele>343.1</ele>
  <time>2026-09-01T19:51:40Z</time>
  <course>270.0</course>
  <speed>0.0</speed>
  <fix>3d</fix>
</trkpt>
<trkpt lat="-27.2744392" lon="151.2900641">
  <ele>343.15</ele>
  <time>2026-09-01T19:51:40Z</time>
  <course>11.11</course>
  <speed>0.022360679774997897</speed>
  <fix>3d</fix>
</trkpt>
<trkpt lat="-27.274439" lon="151.290064">
  <ele>343.1</ele>
  <time>2026-09-01T19:51:40Z</time>
  <course>270.0</course>
  <speed>0.0</speed>
  <fix>3d</fix>
</trkpt>
<trkpt lat="-27.2744392" lon="151.2900641">
  <ele>343.15</ele>
  <time>2026-09-01T19:51:40Z</time>
  <course>11.11</course>
  <speed>0.022360679774997897</speed>
  <fix>3d</fix>
</trkpt>
<trkpt lat="-27.274439" lon="151.290064">
  <ele>343.1</ele>
  <time>2026-09-01T19:51:40Z</time>
  <course>270.0</course>
  <speed>0.0</speed>
  <fix>3d</fix>
</trkpt>
<trkpt lat="-27.2744392" lon="151.2900641">
  <ele>343.15</ele>
  <time>2026-09-01T19:51:40Z</time>
  <course>11.11</course>
  <speed>0.022360679774997897</speed>
  <fix>3d</fix>
</trkpt>
<trkpt lat="-27.274439" lon="151.290064">
  <ele>343.1</ele>
  <time>2026-09-01T19:51:40Z</time>
  <course>270.0</course>
  <speed>0.0</speed>
  <fix>3d</fix>
</trkpt>
<trkpt lat="-27.2744392" lon="151.2900641">
  <ele>343.15</ele>
  <time>2026-09-01T19:51:40Z</time>
  <course>11.12</course>
  <speed>0.022360679774997897</speed>
  <fix>3d</fix>
</trkpt>
<trkpt lat="-27.274439" lon="151.290064">
  <ele>343.1</ele>
  <time>2026-09-01T19:51:40Z</time>
  <course>270.0</course>
  <speed>0.0</speed>
  <fix>3d</fix>
</trkpt>
<trkpt lat="-27.2744392" lon="151.2900641">
  <ele>343.15</ele>
  <time>2026-09-01T19:51:40Z</time>
  <course>11.12</course>
  <speed>0.022360679774997897</speed>
  <fix>3d</fix>
</trkpt>
<trkpt lat="-27.274439" lon="151.290064">
  <ele>343.1</ele>
  <time>2026-09-01T19:51:40Z</time>
  <course>270.0</course>
  <speed>0.0</speed>
  <fix>3d</fix>
</trkpt>
<trkpt lat="-27.2744392" lon="151.2900641">
  <ele>343.15</ele>
  <time>2026-09-01T19:51:40Z</time>
  <course>11.12</course>
  <speed>0.022360679774997897</speed>
  <fix>3d</fix>
</trkpt>
<trkpt lat="-27.274439" lon="151.290064">
  <ele>343.1</ele>
  <time>2026-09-01T19:51:40Z</time>
  <course>270.0</course>
  <speed>0.0</speed>
  <fix>3d</fix>
</trkpt>
<trkpt lat="-27.2744392" lon="151.2900641">
  <ele>343.15</ele>
  <time>2026-09-01T19:51:40Z</time>
  <course>11.12</course>
  <speed>0.022360679774997897</speed>
  <fix>3d</fix>
</trkpt>
<trkpt lat="-27.274439" lon="151.290064">
  <ele>343.1</ele>
  <time>2026-09-01T19:51:40Z</time>
  <course>270.0</course>
  <speed>0.0</speed>
  <fix>3d</fix>
</trkpt>
<trkpt lat="-27.2744392" lon="151.2900641">
  <ele>343.15</ele>
  <time>2026-09-01T19:51:40Z</time>
  <course>11.12</course>
  <speed>0.022360679774997897</speed>
  <fix>3d</fix>
</trkpt>
<trkpt lat="-27.274439" lon="151.290064">
  <ele>343.1</ele>
  <time>2026-09-01T19:51:40Z</time>
  <course>270.0</course>
  <speed>0.0</speed>
  <fix>3d</fix>
</trkpt>
<trkpt lat="-27.2744392" lon="151.2900641">
  <ele>343.15</ele>
  <time>2026-09-01T19:51:40Z</time>
  <course>11.12</course>
  <speed>0.022360679774997897</speed>
  <fix>3d</fix>
</trkpt>
<trkpt lat="-27.274439" lon="151.290064">
  <ele>343.1</ele>
  <time>2026-09-01T19:51:40Z</time>
  <course>270.0</course>
  <speed>0.0</speed>
  <fix>3d</fix>
</trkpt>
<trkpt lat="-27.2744392" lon="151.2900641">
  <ele>343.14</ele>
  <time>2026-09-01T19:51:40Z</time>
  <course>11.12</course>
  <speed>0.022360679774997897</speed>
  <fix>3d</fix>
</trkpt>
<trkpt lat="-27.274439" lon="151.290064">
  <ele>343.1</ele>
  <time>2026-09-01T19:51:40Z</time>
  <course>270.0</course>
  <speed>0.0</speed>
  <fix>3d</fix>
</trkpt>
<trkpt lat="-27.2744392" lon="151.2900641">
  <ele>343.14</ele>
  <time>2026-09-01T19:51:40Z</time>
  <course>11.12</course>
  <speed>0.022360679774997897</speed>
  <fix>3d</fix>
</trkpt>
<trkpt lat="-27.274439" lon="151.290064">
  <ele>343.1</ele>
  <time>2026-09-01T19:51:40Z</time>
  <course>270.0</course>
  <speed>0.0</speed>
  <fix>3d</fix>
</trkpt>
<trkpt lat="-27.2744392" lon="151.2900641">
  <ele>343.14</ele>
  <time>2026-09-01T19:51:40Z</time>
  <course>11.12</course>
  <speed>0.022360679774997897</speed>
  <fix>3d</fix>
</trkpt>
<trkpt lat="-27.274439" lon="151.290064">
  <ele>343.1</ele>
  <time>2026-09-01T19:51:40Z</time>
  <course>270.0</course>
  <speed>0.0</speed>
  <fix>3d</fix>
</trkpt>
<trkpt lat="-27.2744392" lon="151.2900641">
  <ele>343.14</ele>
  <time>2026-09-01T19:51:40Z</time>
  <course>11.13</course>
  <speed>0.022360679774997897</speed>
  <fix>3d</fix>
</trkpt>
<trkpt lat="-27.274439" lon="151.290064">
  <ele>343.1</ele>
  <time>2026-09-01T19:51:40Z</time>
  <course>270.0</course>
  <speed>0.0</speed>
  <fix>3d</fix>
</trkpt>
<trkpt lat="-27.2744392" lon="151.2900641">
  <ele>343.14</ele>
  <time>2026-09-01T19:51:40Z</time>
  <course>11.13</course>
  <speed>0.022360679774997897</speed>
  <fix>3d</fix>
</trkpt>
<trkpt lat="-27.274439" lon="151.290064">
  <ele>343.1</ele>
  <time>2026-09-01T19:51:40Z</time>
  <course>270.0</course>
  <speed>0.0</speed>
  <fix>3d</fix>
</trkpt>
<trkpt lat="-27.2744392" lon="151.2900641">
  <ele>343.14</ele>
  <time>2026-09-01T19:51:40Z</time>
  <course>11.13</course>
  <speed>0.022360679774997897</speed>
  <fix>3d</fix>
</trkpt>
<trkpt lat="-27.274439" lon="151.290064">
  <ele>343.1</ele>
  <time>2026-09-01T19:51:40Z</time>
  <course>270.0</course>
  <speed>0.0</speed>
  <fix>3d</fix>
</trkpt>
<trkpt lat="-27.2744392" lon="151.2900641">
  <ele>343.14</ele>
  <time>2026-09-01T19:51:40Z</time>
  <course>11.13</course>
  <speed>0.022360679774997897</speed>
  <fix>3d</fix>
</trkpt>
<trkpt lat="-27.274439" lon="151.290064">
  <ele>343.1</ele>
  <time>2026-09-01T19:51:40Z</time>
  <course>270.0</course>
  <speed>0.0</speed>
  <fix>3d</fix>
</trkpt>
<trkpt lat="-27.2744392" lon="151.2900641">
  <ele>343.14</ele>
  <time>2026-09-01T19:51:40Z</time>
  <course>11.13</course>
  <speed>0.022360679774997897</speed>
  <fix>3d</fix>
</trkpt>
<trkpt lat="-27.274439" lon="151.290064">
  <ele>343.1</ele>
  <time>2026-09-01T19:51:40Z</time>
  <course>270.0</course>
  <speed>0.0</speed>
  <fix>3d</fix>
</trkpt>
<trkpt lat="-27.2744392" lon="151.2900641">
  <ele>343.14</ele>
  <time>2026-09-01T19:51:40Z</time>
  <course>11.13</course>
  <speed>0.022360679774997897</speed>
  <fix>3d</fix>
</trkpt>
<trkpt lat="-27.274439" lon="151.290064">
  <ele>343.1</ele>
  <time>2026-09-01T19:51:40Z</time>
  <course>270.0</course>
  <speed>0.0</speed>
  <fix>3d</fix>
</trkpt>
<trkpt lat="-27.2744392" lon="151.2900641">
  <ele>343.14</ele>
  <time>2026-09-01T19:51:40Z</time>
  <course>11.13</course>
  <speed>0.022360679774997897</speed>
  <fix>3d</fix>
</trkpt>
<trkpt lat="-27.274439" lon="151.290064">
  <ele>343.1</ele>
  <time>2026-09-01T19:51:40Z</time>
  <course>270.0</course>
  <speed>0.0</speed>
  <fix>3d</fix>
</trkpt>
<trkpt lat="-27.2744392" lon="151.2900641">
  <ele>343.14</ele>
  <time>2026-09-01T19:51:40Z</time>
  <course>11.13</course>
  <speed>0.022360679774997897</speed>
  <fix>3d</fix>
</trkpt>
<trkpt lat="-27.274439" lon="151.290064">
  <ele>343.1</ele>
  <time>2026-09-01T19:51:40Z</time>
  <course>270.0</course>
  <speed>0.0</speed>
  <fix>3d</fix>
</trkpt>
<trkpt lat="-27.2744392" lon="151.2900641">
  <ele>343.14</ele>
  <time>2026-09-01T19:51:40Z</time>
  <course>11.13</course>
  <speed>0.022360679774997897</speed>
  <fix>3d</fix>
</trkpt>
<trkpt lat="-27.274439" lon="151.290064">
  <ele>343.1</ele>
  <time>2026-09-01T19:51:40Z</time>
  <course>270.0</course>
  <speed>0.0</speed>
  <fix>3d</fix>
</trkpt>
<trkpt lat="-27.2744392" lon="151.2900641">
  <ele>343.14</ele>
  <time>2026-09-01T19:51:40Z</time>
  <course>11.14</course>
  <speed>0.022360679774997897</speed>
  <fix>3d</fix>
</trkpt>
<trkpt lat="-27.274439" lon="151.290064">
  <ele>343.1</ele>
  <time>2026-09-01T19:51:40Z</time>
  <course>270.0</course>
  <speed>0.0</speed>
  <fix>3d</fix>
</trkpt>
<trkpt lat="-27.2744392" lon="151.2900641">
  <ele>343.15</ele>
  <time>2026-09-01T19:51:40Z</time>
  <course>11.14</course>
  <speed>0.022360679774997897</speed>
  <fix>3d</fix>
</trkpt>
<trkpt lat="-27.274439" lon="151.290064">
  <ele>343.1</ele>
  <time>2026-09-01T19:51:40Z</time>
  <course>270.0</course>
  <speed>0.0</speed>
  <fix>3d</fix>
</trkpt>
<trkpt lat="-27.2744392" lon="151.2900641">
  <ele>343.15</ele>
  <time>2026-09-01T19:51:40Z</time>
  <course>11.14</course>
  <speed>0.022360679774997897</speed>
  <fix>3d</fix>
</trkpt>
<trkpt lat="-27.274439" lon="151.290064">
  <ele>343.1</ele>
  <time>2026-09-01T19:51:40Z</time>
  <course>270.0</course>
  <speed>0.0</speed>
  <fix>3d</fix>
</trkpt>
<trkpt lat="-27.2744392" lon="151.2900641">
  <ele>343.15</ele>
  <time>2026-09-01T19:51:40Z</time>
  <course>11.14</course>
  <speed>0.022360679774997897</speed>
  <fix>3d</fix>
</trkpt>
<trkpt lat="-27.274439" lon="151.290064">
  <ele>343.1</ele>
  <time>2026-09-01T19:51:40Z</time>
  <course>270.0</course>
  <speed>0.0</speed>
  <fix>3d</fix>
</trkpt>
<trkpt lat="-27.2744392" lon="151.2900641">
  <ele>343.15</ele>
  <time>2026-09-01T19:51:40Z</time>
  <course>11.14</course>
  <speed>0.022360679774997897</speed>
  <fix>3d</fix>
</trkpt>
<trkpt lat="-27.274439" lon="151.290064">
  <ele>343.1</ele>
  <time>2026-09-01T19:51:40Z</time>
  <course>270.0</course>
  <speed>0.0</speed>
  <fix>3d</fix>
</trkpt>
<trkpt lat="-27.2744392" lon="151.2900641">
  <ele>343.16</ele>
  <time>2026-09-01T19:51:40Z</time>
  <course>11.14</course>
  <speed>0.022360679774997897</speed>
  <fix>3d</fix>
</trkpt>
<trkpt lat="-27.274439" lon="151.290064">
  <ele>343.1</ele>
  <time>2026-09-01T19:51:40Z</time>
  <course>270.0</course>
  <speed>0.0</speed>
  <fix>3d</fix>
</trkpt>
<trkpt lat="-27.2744392" lon="151.2900641">
  <ele>343.09</ele>
  <time>2026-09-01T19:51:40Z</time>
  <course>11.14</course>
  <speed>0.022360679774997897</speed>
  <fix>3d</fix>
</trkpt>
<trkpt lat="-27.274439" lon="151.290064">
  <ele>343.1</ele>
  <time>2026-09-01T19:51:40Z</time>
  <course>270.0</course>
  <speed>0.0</speed>
  <fix>3d</fix>
</trkpt>
<trkpt lat="-27.2744392" lon="151.2900641">
  <ele>343.1</ele>
  <time>2026-09-01T19:51:40Z</time>
  <course>11.14</course>
  <speed>0.022360679774997897</speed>
  <fix>3d</fix>
</trkpt>
<trkpt lat="-27.274439" lon="151.290064">
  <ele>343.1</ele>
  <time>2026-09-01T19:51:40Z</time>
  <course>270.0</course>
  <speed>0.0</speed>
  <fix>3d</fix>
</trkpt>
<trkpt lat="-27.2744392" lon="151.2900641">
  <ele>343.1</ele>
  <time>2026-09-01T19:51:40Z</time>
  <course>11.14</course>
  <speed>0.022360679774997897</speed>
  <fix>3d</fix>
</trkpt>
<trkpt lat="-27.274439" lon="151.290064">
  <ele>343.1</ele>
  <time>2026-09-01T19:51:40Z</time>
  <course>270.0</course>
  <speed>0.0</speed>
  <fix>3d</fix>
</trkpt>
<trkpt lat="-27.2744392" lon="151.2900641">
  <ele>343.1</ele>
  <time>2026-09-01T19:51:40Z</time>
  <course>11.14</course>
  <speed>0.022360679774997897</speed>
  <fix>3d</fix>
</trkpt>
<trkpt lat="-27.274439" lon="151.290064">
  <ele>343.1</ele>
  <time>2026-09-01T19:51:40Z</time>
  <course>270.0</course>
  <speed>0.0</speed>
  <fix>3d</fix>
</trkpt>
<trkpt lat="-27.2744392" lon="151.2900641">
  <ele>343.1</ele>
  <time>2026-09-01T19:51:40Z</time>
  <course>11.15</course>
  <speed>0.022360679774997897</speed>
  <fix>3d</fix>
</trkpt>
<trkpt lat="-27.274439" lon="151.290064">
  <ele>343.1</ele>
  <time>2026-09-01T19:51:40Z</time>
  <course>270.0</course>
  <speed>0.0</speed>
  <fix>3d</fix>
</trkpt>
<trkpt lat="-27.2744392" lon="151.2900641">
  <ele>343.09</ele>
  <time>2026-09-01T19:51:40Z</time>
  <course>11.15</course>
  <speed>0.022360679774997897</speed>
  <fix>3d</fix>
</trkpt>
<trkpt lat="-27.274439" lon="151.290064">
  <ele>343.1</ele>
  <time>2026-09-01T19:51:40Z</time>
  <course>270.0</course>
  <speed>0.0</speed>
  <fix>3d</fix>
</trkpt>
<trkpt lat="-27.2744392" lon="151.2900641">
  <ele>343.09</ele>
  <time>2026-09-01T19:51:40Z</time>
  <course>11.15</course>
  <speed>0.022360679774997897</speed>
  <fix>3d</fix>
</trkpt>
<trkpt lat="-27.274439" lon="151.290064">
  <ele>343.1</ele>
  <time>2026-09-01T19:51:40Z</time>
  <course>270.0</course>
  <speed>0.0</speed>
  <fix>3d</fix>
</trkpt>
<trkpt lat="-27.2744392" lon="151.2900641">
  <ele>343.09</ele>
  <time>2026-09-01T19:51:40Z</time>
  <course>11.15</course>
  <speed>0.022360679774997897</speed>
  <fix>3d</fix>
</trkpt>
<trkpt lat="-27.274439" lon="151.290064">
  <ele>343.1</ele>
  <time>2026-09-01T19:51:40Z</time>
  <course>270.0</course>
  <speed>0.0</speed>
  <fix>3d</fix>
</trkpt>
<trkpt lat="-27.2744392" lon="151.2900641">
  <ele>343.09</ele>
  <time>2026-09-01T19:51:40Z</time>
  <course>11.15</course>
  <speed>0.022360679774997897</speed>
  <fix>3d</fix>
</trkpt>
<trkpt lat="-27.274439" lon="151.290064">
  <ele>343.1</ele>
  <time>2026-09-01T19:51:40Z</time>
  <course>270.0</course>
  <speed>0.0</speed>
  <fix>3d</fix>
</trkpt>
<trkpt lat="-27.2744392" lon="151.2900641">
  <ele>343.09</ele>
  <time>2026-09-01T19:51:40Z</time>
  <course>11.15</course>
  <speed>0.022360679774997897</speed>
  <fix>3d</fix>
</trkpt>
<trkpt lat="-27.274439" lon="151.290064">
  <ele>343.1</ele>
  <time>2026-09-01T19:51:40Z</time>
  <course>270.0</course>
  <speed>0.0</speed>
  <fix>3d</fix>
</trkpt>
<trkpt lat="-27.2744392" lon="151.2900641">
  <ele>343.09</ele>
  <time>2026-09-01T19:51:40Z</time>
  <course>11.15</course>
  <speed>0.022360679774997897</speed>
  <fix>3d</fix>
</trkpt>
<trkpt lat="-27.274439" lon="151.290064">
  <ele>343.1</ele>
  <time>2026-09-01T19:51:40Z</time>
  <course>270.0</course>
  <speed>0.0</speed>
  <fix>3d</fix>
</trkpt>
<trkpt lat="-27.2744392" lon="151.2900641">
  <ele>343.09</ele>
  <time>2026-09-01T19:51:40Z</time>
  <course>11.15</course>
  <speed>0.022360679774997897</speed>
  <fix>3d</fix>
</trkpt>
<trkpt lat="-27.274439" lon="151.290064">
  <ele>343.1</ele>
  <time>2026-09-01T19:51:40Z</time>
  <course>270.0</course>
  <speed>0.0</speed>
  <fix>3d</fix>
</trkpt>
<trkpt lat="-27.2744392" lon="151.2900641">
  <ele>343.09</ele>
  <time>2026-09-01T19:51:40Z</time>
  <course>11.15</course>
  <speed>0.022360679774997897</speed>
  <fix>3d</fix>
</trkpt>
<trkpt lat="-27.274439" lon="151.290064">
  <ele>343.1</ele>
  <time>2026-09-01T19:51:40Z</time>
  <course>270.0</course>
  <speed>0.0</speed>
  <fix>3d</fix>
</trkpt>
<trkpt lat="-27.2744392" lon="151.2900641">
  <ele>343.09</ele>
  <time>2026-09-01T19:51:40Z</time>
  <course>11.15</course>
  <speed>0.022360679774997897</speed>
  <fix>3d</fix>
</trkpt>
<trkpt lat="-27.274439" lon="151.290064">
  <ele>343.1</ele>
  <time>2026-09-01T19:51:40Z</time>
  <course>270.0</course>
  <speed>0.0</speed>
  <fix>3d</fix>
</trkpt>
<trkpt lat="-27.2744392" lon="151.2900641">
  <ele>343.08</ele>
  <time>2026-09-01T19:51:40Z</time>
  <course>11.16</course>
  <speed>0.022360679774997897</speed>
  <fix>3d</fix>
</trkpt>
<trkpt lat="-27.274439" lon="151.290064">
  <ele>343.1</ele>
  <time>2026-09-01T19:51:40Z</time>
  <course>270.0</course>
  <speed>0.0</speed>
  <fix>3d</fix>
</trkpt>
<trkpt lat="-27.2744392" lon="151.2900641">
  <ele>343.08</ele>
  <time>2026-09-01T19:51:40Z</time>
  <course>11.16</course>
  <speed>0.022360679774997897</speed>
  <fix>3d</fix>
</trkpt>
<trkpt lat="-27.274439" lon="151.290064">
  <ele>343.1</ele>
  <time>2026-09-01T19:51:40Z</time>
  <course>270.0</course>
  <speed>0.0</speed>
  <fix>3d</fix>
</trkpt>
<trkpt lat="-27.2744392" lon="151.2900641">
  <ele>343.08</ele>
  <time>2026-09-01T19:51:40Z</time>
  <course>11.16</course>
  <speed>0.022360679774997897</speed>
  <fix>3d</fix>
</trkpt>
<trkpt lat="-27.274439" lon="151.290064">
  <ele>343.1</ele>
  <time>2026-09-01T19:51:40Z</time>
  <course>270.0</course>
  <speed>0.0</speed>
  <fix>3d</fix>
</trkpt>
<trkpt lat="-27.2744392" lon="151.2900641">
  <ele>343.08</ele>
  <time>2026-09-01T19:51:40Z</time>
  <course>11.16</course>
  <speed>0.022360679774997897</speed>
  <fix>3d</fix>
</trkpt>
<trkpt lat="-27.274439" lon="151.290064">
  <ele>343.1</ele>
  <time>2026-09-01T19:51:40Z</time>
  <course>270.0</course>
  <speed>0.0</speed>
  <fix>3d</fix>
</trkpt>
<trkpt lat="-27.2744392" lon="151.2900641">
  <ele>343.09</ele>
  <time>2026-09-01T19:51:40Z</time>
  <course>11.16</course>
  <speed>0.022360679774997897</speed>
  <fix>3d</fix>
</trkpt>
<trkpt lat="-27.274439" lon="151.290064">
  <ele>343.1</ele>
  <time>2026-09-01T19:51:40Z</time>
  <course>270.0</course>
  <speed>0.0</speed>
  <fix>3d</fix>
</trkpt>
<trkpt lat="-27.2744392" lon="151.2900641">
  <ele>343.09</ele>
  <time>2026-09-01T19:51:40Z</time>
  <course>11.16</course>
  <speed>0.022360679774997897</speed>
  <fix>3d</fix>
</trkpt>
<trkpt lat="-27.274439" lon="151.290064">
  <ele>343.1</ele>
  <time>2026-09-01T19:51:40Z</time>
  <course>270.0</course>
  <speed>0.0</speed>
  <fix>3d</fix>
</trkpt>
<trkpt lat="-27.2744392" lon="151.2900641">
  <ele>343.09</ele>
  <time>2026-09-01T19:51:40Z</time>
  <course>11.16</course>
  <speed>0.022360679774997897</speed>
  <fix>3d</fix>
</trkpt>
<trkpt lat="-27.274439" lon="151.290064">
  <ele>343.1</ele>
  <time>2026-09-01T19:51:40Z</time>
  <course>270.0</course>
  <speed>0.0</speed>
  <fix>3d</fix>
</trkpt>
<trkpt lat="-27.2744392" lon="151.2900641">
  <ele>343.08</ele>
  <time>2026-09-01T19:51:40Z</time>
  <course>11.16</course>
  <speed>0.022360679774997897</speed>
  <fix>3d</fix>
</trkpt>
<trkpt lat="-27.274439" lon="151.290064">
  <ele>343.1</ele>
  <time>2026-09-01T19:51:40Z</time>
  <course>270.0</course>
  <speed>0.0</speed>
  <fix>3d</fix>
</trkpt>
<trkpt lat="-27.2744392" lon="151.2900641">
  <ele>343.08</ele>
  <time>2026-09-01T19:51:40Z</time>
  <course>11.17</course>
  <speed>0.022360679774997897</speed>
  <fix>3d</fix>
</trkpt>
<trkpt lat="-27.274439" lon="151.290064">
  <ele>343.1</ele>
  <time>2026-09-01T19:51:40Z</time>
  <course>270.0</course>
  <speed>0.0</speed>
  <fix>3d</fix>
</trkpt>
<trkpt lat="-27.2744392" lon="151.2900641">
  <ele>343.08</ele>
  <time>2026-09-01T19:51:40Z</time>
  <course>11.17</course>
  <speed>0.022360679774997897</speed>
  <fix>3d</fix>
</trkpt>
<trkpt lat="-27.274439" lon="151.290064">
  <ele>343.1</ele>
  <time>2026-09-01T19:51:40Z</time>
  <course>270.0</course>
  <speed>0.0</speed>
  <fix>3d</fix>
</trkpt>
<trkpt lat="-27.2744392" lon="151.2900641">
  <ele>343.08</ele>
  <time>2026-09-01T19:51:40Z</time>
  <course>11.17</course>
  <speed>0.022360679774997897</speed>
  <fix>3d</fix>
</trkpt>
<trkpt lat="-27.274439" lon="151.290064">
  <ele>343.1</ele>
  <time>2026-09-01T19:51:40Z</time>
  <course>270.0</course>
  <speed>0.0</speed>
  <fix>3d</fix>
</trkpt>
<trkpt lat="-27.2744392" lon="151.2900641">
  <ele>343.08</ele>
  <time>2026-09-01T19:51:40Z</time>
  <course>11.17</course>
  <speed>0.022360679774997897</speed>
  <fix>3d</fix>
</trkpt>
<trkpt lat="-27.274439" lon="151.290064">
  <ele>343.1</ele>
  <time>2026-09-01T19:51:40Z</time>
  <course>270.0</course>
  <speed>0.0</speed>
  <fix>3d</fix>
</trkpt>
<trkpt lat="-27.2744392" lon="151.2900641">
  <ele>343.08</ele>
  <time>2026-09-01T19:51:40Z</time>
  <course>11.17</course>
  <speed>0.022360679774997897</speed>
  <fix>3d</fix>
</trkpt>
<trkpt lat="-27.274439" lon="151.290064">
  <ele>343.1</ele>
  <time>2026-09-01T19:51:40Z</time>
  <course>270.0</course>
  <speed>0.0</speed>
  <fix>3d</fix>
</trkpt>
<trkpt lat="-27.2744392" lon="151.2900641">
  <ele>343.08</ele>
  <time>2026-09-01T19:51:40Z</time>
  <course>11.17</course>
  <speed>0.022360679774997897</speed>
  <fix>3d</fix>
</trkpt>
<trkpt lat="-27.274439" lon="151.290064">
  <ele>343.1</ele>
  <time>2026-09-01T19:51:40Z</time>
  <course>270.0</course>
  <speed>0.0</speed>
  <fix>3d</fix>
</trkpt>
<trkpt lat="-27.2744392" lon="151.2900641">
  <ele>343.08</ele>
  <time>2026-09-01T19:51:40Z</time>
  <course>11.17</course>
  <speed>0.022360679774997897</speed>
  <fix>3d</fix>
</trkpt>
<trkpt lat="-27.274439" lon="151.290064">
  <ele>343.1</ele>
  <time>2026-09-01T19:51:40Z</time>
  <course>270.0</course>
  <speed>0.0</speed>
  <fix>3d</fix>
</trkpt>
<trkpt lat="-27.2744392" lon="151.2900641">
  <ele>343.08</ele>
  <time>2026-09-01T19:51:40Z</time>
  <course>11.17</course>
  <speed>0.022360679774997897</speed>
  <fix>3d</fix>
</trkpt>
<trkpt lat="-27.274439" lon="151.290064">
  <ele>343.1</ele>
  <time>2026-09-01T19:51:40Z</time>
  <course>270.0</course>
  <speed>0.0</speed>
  <fix>3d</fix>
</trkpt>
<trkpt lat="-27.2744392" lon="151.2900641">
  <ele>343.08</ele>
  <time>2026-09-01T19:51:40Z</time>
  <course>11.17</course>
  <speed>0.022360679774997897</speed>
  <fix>3d</fix>
</trkpt>
<trkpt lat="-27.274439" lon="151.290064">
  <ele>343.1</ele>
  <time>2026-09-01T19:51:40Z</time>
  <course>270.0</course>
  <speed>0.0</speed>
  <fix>3d</fix>
</trkpt>
<trkpt lat="-27.2744392" lon="151.2900641">
  <ele>343.08</ele>
  <time>2026-09-01T19:51:40Z</time>
  <course>11.17</course>
  <speed>0.022360679774997897</speed>
  <fix>3d</fix>
</trkpt>
<trkpt lat="-27.274439" lon="151.290064">
  <ele>343.1</ele>
  <time>2026-09-01T19:51:40Z</time>
  <course>270.0</course>
  <speed>0.0</speed>
  <fix>3d</fix>
</trkpt>
<trkpt lat="-27.2744392" lon="151.2900641">
  <ele>343.08</ele>
  <time>2026-09-01T19:51:40Z</time>
  <course>11.18</course>
  <speed>0.022360679774997897</speed>
  <fix>3d</fix>
</trkpt>
<trkpt lat="-27.274439" lon="151.290064">
  <ele>343.1</ele>
  <time>2026-09-01T19:51:40Z</time>
  <course>270.0</course>
  <speed>0.0</speed>
  <fix>3d</fix>
</trkpt>
<trkpt lat="-27.2744392" lon="151.2900641">
  <ele>343.08</ele>
  <time>2026-09-01T19:51:40Z</time>
  <course>11.18</course>
  <speed>0.022360679774997897</speed>
  <fix>3d</fix>
</trkpt>
<trkpt lat="-27.274439" lon="151.290064">
  <ele>343.1</ele>
  <time>2026-09-01T19:51:40Z</time>
  <course>270.0</course>
  <speed>0.0</speed>
  <fix>3d</fix>
</trkpt>
<trkpt lat="-27.2744392" lon="151.2900641">
  <ele>343.08</ele>
  <time>2026-09-01T19:51:40Z</time>
  <course>11.18</course>
  <speed>0.022360679774997897</speed>
  <fix>3d</fix>
</trkpt>
<trkpt lat="-27.274439" lon="151.290064">
  <ele>343.1</ele>
  <time>2026-09-01T19:51:40Z</time>
  <course>270.0</course>
  <speed>0.0</speed>
  <fix>3d</fix>
</trkpt>
<trkpt lat="-27.2744392" lon="151.2900641">
  <ele>343.08</ele>
  <time>2026-09-01T19:51:40Z</time>
  <course>11.18</course>
  <speed>0.022360679774997897</speed>
  <fix>3d</fix>
</trkpt>
<trkpt lat="-27.274439" lon="151.290064">
  <ele>343.1</ele>
  <time>2026-09-01T19:51:40Z</time>
  <course>270.0</course>
  <speed>0.0</speed>
  <fix>3d</fix>
</trkpt>
<trkpt lat="-27.2744392" lon="151.2900641">
  <ele>343.08</ele>
  <time>2026-09-01T19:51:40Z</time>
  <course>11.18</course>
  <speed>0.022360679774997897</speed>
  <fix>3d</fix>
</trkpt>
<trkpt lat="-27.274439" lon="151.290064">
  <ele>343.1</ele>
  <time>2026-09-01T19:51:40Z</time>
  <course>270.0</course>
  <speed>0.0</speed>
  <fix>3d</fix>
</trkpt>
<trkpt lat="-27.2744392" lon="151.2900641">
  <ele>343.07</ele>
  <time>2026-09-01T19:51:40Z</time>
  <course>11.18</course>
  <speed>0.022360679774997897</speed>
  <fix>3d</fix>
</trkpt>
<trkpt lat="-27.274439" lon="151.290064">
  <ele>343.1</ele>
  <time>2026-09-01T19:51:40Z</time>
  <course>270.0</course>
  <speed>0.0</speed>
  <fix>3d</fix>
</trkpt>
<trkpt lat="-27.2744392" lon="151.2900641">
  <ele>343.07</ele>
  <time>2026-09-01T19:51:40Z</time>
  <course>11.18</course>
  <speed>0.022360679774997897</speed>
  <fix>3d</fix>
</trkpt>
<trkpt lat="-27.274439" lon="151.290064">
  <ele>343.1</ele>
  <time>2026-09-01T19:51:40Z</time>
  <course>270.0</course>
  <speed>0.0</speed>
  <fix>3d</fix>
</trkpt>
<trkpt lat="-27.2744392" lon="151.2900641">
  <ele>343.07</ele>
  <time>2026-09-01T19:51:40Z</time>
  <course>11.18</course>
  <speed>0.022360679774997897</speed>
  <fix>3d</fix>
</trkpt>
<trkpt lat="-27.274439" lon="151.290064">
  <ele>343.1</ele>
  <time>2026-09-01T19:51:40Z</time>
  <course>270.0</course>
  <speed>0.0</speed>
  <fix>3d</fix>
</trkpt>
<trkpt lat="-27.2744392" lon="151.2900641">
  <ele>343.07</ele>
  <time>2026-09-01T19:51:40Z</time>
  <course>11.18</course>
  <speed>0.022360679774997897</speed>
  <fix>3d</fix>
</trkpt>
<trkpt lat="-27.274439" lon="151.290064">
  <ele>343.1</ele>
  <time>2026-09-01T19:51:40Z</time>
  <course>270.0</course>
  <speed>0.0</speed>
  <fix>3d</fix>
</trkpt>
<trkpt lat="-27.2744392" lon="151.2900641">
  <ele>343.07</ele>
  <time>2026-09-01T19:51:40Z</time>
  <course>11.19</course>
  <speed>0.022360679774997897</speed>
  <fix>3d</fix>
</trkpt>
<trkpt lat="-27.274439" lon="151.290064">
  <ele>343.1</ele>
  <time>2026-09-01T19:51:40Z</time>
  <course>270.0</course>
  <speed>0.0</speed>
  <fix>3d</fix>
</trkpt>
<trkpt lat="-27.2744392" lon="151.2900641">
  <ele>343.07</ele>
  <time>2026-09-01T19:51:40Z</time>
  <course>11.19</course>
  <speed>0.022360679774997897</speed>
  <fix>3d</fix>
</trkpt>
<trkpt lat="-27.274439" lon="151.290064">
  <ele>343.1</ele>
  <time>2026-09-01T19:51:40Z</time>
  <course>270.0</course>
  <speed>0.0</speed>
  <fix>3d</fix>
</trkpt>
<trkpt lat="-27.2744392" lon="151.2900641">
  <ele>343.07</ele>
  <time>2026-09-01T19:51:40Z</time>
  <course>11.19</course>
  <speed>0.022360679774997897</speed>
  <fix>3d</fix>
</trkpt>
<trkpt lat="-27.274439" lon="151.290064">
  <ele>343.1</ele>
  <time>2026-09-01T19:51:40Z</time>
  <course>270.0</course>
  <speed>0.0</speed>
  <fix>3d</fix>
</trkpt>
<trkpt lat="-27.2744392" lon="151.2900641">
  <ele>343.07</ele>
  <time>2026-09-01T19:51:40Z</time>
  <course>11.19</course>
  <speed>0.022360679774997897</speed>
  <fix>3d</fix>
</trkpt>
<trkpt lat="-27.274439" lon="151.290064">
  <ele>343.1</ele>
  <time>2026-09-01T19:51:40Z</time>
  <course>270.0</course>
  <speed>0.0</speed>
  <fix>3d</fix>
</trkpt>
<trkpt lat="-27.2744392" lon="151.2900641">
  <ele>343.07</ele>
  <time>2026-09-01T19:51:40Z</time>
  <course>11.19</course>
  <speed>0.022360679774997897</speed>
  <fix>3d</fix>
</trkpt>
<trkpt lat="-27.274439" lon="151.290064">
  <ele>343.1</ele>
  <time>2026-09-01T19:51:40Z</time>
  <course>270.0</course>
  <speed>0.0</speed>
  <fix>3d</fix>
</trkpt>
<trkpt lat="-27.2744392" lon="151.2900641">
  <ele>343.07</ele>
  <time>2026-09-01T19:51:40Z</time>
  <course>11.19</course>
  <speed>0.022360679774997897</speed>
  <fix>3d</fix>
</trkpt>
<trkpt lat="-27.274439" lon="151.290064">
  <ele>343.1</ele>
  <time>2026-09-01T19:51:40Z</time>
  <course>270.0</course>
  <speed>0.0</speed>
  <fix>3d</fix>
</trkpt>
<trkpt lat="-27.2744392" lon="151.2900641">
  <ele>343.07</ele>
  <time>2026-09-01T19:51:40Z</time>
  <course>11.19</course>
  <speed>0.022360679774997897</speed>
  <fix>3d</fix>
</trkpt>
<trkpt lat="-27.274439" lon="151.290064">
  <ele>343.1</ele>
  <time>2026-09-01T19:51:40Z</time>
  <course>270.0</course>
  <speed>0.0</speed>
  <fix>3d</fix>
</trkpt>
<trkpt lat="-27.2744392" lon="151.2900641">
  <ele>343.07</ele>
  <time>2026-09-01T19:51:40Z</time>
  <course>11.19</course>
  <speed>0.022360679774997897</speed>
  <fix>3d</fix>
</trkpt>
<trkpt lat="-27.274439" lon="151.290064">
  <ele>343.1</ele>
  <time>2026-09-01T19:51:40Z</time>
  <course>270.0</course>
  <speed>0.0</speed>
  <fix>3d</fix>
</trkpt>
<trkpt lat="-27.2744392" lon="151.2900641">
  <ele>343.07</ele>
  <time>2026-09-01T19:51:40Z</time>
  <course>11.19</course>
  <speed>0.022360679774997897</speed>
  <fix>3d</fix>
</trkpt>
<trkpt lat="-27.274439" lon="151.290064">
  <ele>343.1</ele>
  <time>2026-09-01T19:51:40Z</time>
  <course>270.0</course>
  <speed>0.0</speed>
  <fix>3d</fix>
</trkpt>
<trkpt lat="-27.2744392" lon="151.2900641">
  <ele>343.07</ele>
  <time>2026-09-01T19:51:40Z</time>
  <course>11.2</course>
  <speed>0.022360679774997897</speed>
  <fix>3d</fix>
</trkpt>
<trkpt lat="-27.274439" lon="151.290064">
  <ele>343.1</ele>
  <time>2026-09-01T19:51:40Z</time>
  <course>270.0</course>
  <speed>0.0</speed>
  <fix>3d</fix>
</trkpt>
<trkpt lat="-27.2744392" lon="151.2900641">
  <ele>343.07</ele>
  <time>2026-09-01T19:51:40Z</time>
  <course>11.2</course>
  <speed>0.022360679774997897</speed>
  <fix>3d</fix>
</trkpt>
<trkpt lat="-27.274439" lon="151.290064">
  <ele>343.1</ele>
  <time>2026-09-01T19:51:40Z</time>
  <course>270.0</course>
  <speed>0.0</speed>
  <fix>3d</fix>
</trkpt>
<trkpt lat="-27.2744392" lon="151.2900641">
  <ele>343.06</ele>
  <time>2026-09-01T19:51:40Z</time>
  <course>11.2</course>
  <speed>0.022360679774997897</speed>
  <fix>3d</fix>
</trkpt>
<trkpt lat="-27.274439" lon="151.290064">
  <ele>343.1</ele>
  <time>2026-09-01T19:51:40Z</time>
  <course>270.0</course>
  <speed>0.0</speed>
  <fix>3d</fix>
</trkpt>
<trkpt lat="-27.2744392" lon="151.2900641">
  <ele>343.06</ele>
  <time>2026-09-01T19:51:40Z</time>
  <course>11.2</course>
  <speed>0.022360679774997897</speed>
  <fix>3d</fix>
</trkpt>
<trkpt lat="-27.274439" lon="151.290064">
  <ele>343.1</ele>
  <time>2026-09-01T19:51:40Z</time>
  <course>270.0</course>
  <speed>0.0</speed>
  <fix>3d</fix>
</trkpt>
<trkpt lat="-27.2744392" lon="151.2900641">
  <ele>343.06</ele>
  <time>2026-09-01T19:51:40Z</time>
  <course>11.2</course>
  <speed>0.022360679774997897</speed>
  <fix>3d</fix>
</trkpt>
<trkpt lat="-27.274439" lon="151.290064">
  <ele>343.1</ele>
  <time>2026-09-01T19:51:40Z</time>
  <course>270.0</course>
  <speed>0.0</speed>
  <fix>3d</fix>
</trkpt>
<trkpt lat="-27.2744392" lon="151.2900641">
  <ele>343.06</ele>
  <time>2026-09-01T19:51:40Z</time>
  <course>11.2</course>
  <speed>0.022360679774997897</speed>
  <fix>3d</fix>
</trkpt>
<trkpt lat="-27.274439" lon="151.290064">
  <ele>343.1</ele>
  <time>2026-09-01T19:51:40Z</time>
  <course>270.0</course>
  <speed>0.0</speed>
  <fix>3d</fix>
</trkpt>
<trkpt lat="-27.2744392" lon="151.2900641">
  <ele>343.06</ele>
  <time>2026-09-01T19:51:40Z</time>
  <course>11.2</course>
  <speed>0.022360679774997897</speed>
  <fix>3d</fix>
</trkpt>
<trkpt lat="-27.274439" lon="151.290064">
  <ele>343.1</ele>
  <time>2026-09-01T19:51:40Z</time>
  <course>270.0</course>
  <speed>0.0</speed>
  <fix>3d</fix>
</trkpt>
<trkpt lat="-27.2744392" lon="151.2900641">
  <ele>343.06</ele>
  <time>2026-09-01T19:51:40Z</time>
  <course>11.2</course>
  <speed>0.022360679774997897</speed>
  <fix>3d</fix>
</trkpt>
<trkpt lat="-27.274439" lon="151.290064">
  <ele>343.1</ele>
  <time>2026-09-01T19:51:40Z</time>
  <course>270.0</course>
  <speed>0.0</speed>
  <fix>3d</fix>
</trkpt>
<trkpt lat="-27.2744392" lon="151.2900641">
  <ele>343.06</ele>
  <time>2026-09-01T19:51:40Z</time>
  <course>11.2</course>
  <speed>0.022360679774997897</speed>
  <fix>3d</fix>
</trkpt>
<trkpt lat="-27.274439" lon="151.290064">
  <ele>343.1</ele>
  <time>2026-09-01T19:51:40Z</time>
  <course>270.0</course>
  <speed>0.0</speed>
  <fix>3d</fix>
</trkpt>
<trkpt lat="-27.2744392" lon="151.2900641">
  <ele>343.06</ele>
  <time>2026-09-01T19:51:40Z</time>
  <course>11.2</course>
  <speed>0.022360679774997897</speed>
  <fix>3d</fix>
</trkpt>
<trkpt lat="-27.274439" lon="151.290064">
  <ele>343.1</ele>
  <time>2026-09-01T19:51:40Z</time>
  <course>270.0</course>
  <speed>0.0</speed>
  <fix>3d</fix>
</trkpt>
<trkpt lat="-27.2744392" lon="151.2900641">
  <ele>343.09</ele>
  <time>2026-09-01T19:51:40Z</time>
  <course>11.21</course>
  <speed>0.022360679774997897</speed>
  <fix>3d</fix>
</trkpt>
<trkpt lat="-27.274439" lon="151.290064">
  <ele>343.1</ele>
  <time>2026-09-01T19:51:40Z</time>
  <course>270.0</course>
  <speed>0.0</speed>
  <fix>3d</fix>
</trkpt>
<trkpt lat="-27.2744392" lon="151.2900641">
  <ele>343.1</ele>
  <time>2026-09-01T19:51:40Z</time>
  <course>11.21</course>
  <speed>0.022360679774997897</speed>
  <fix>3d</fix>
</trkpt>
<trkpt lat="-27.274439" lon="151.290064">
  <ele>343.1</ele>
  <time>2026-09-01T19:51:40Z</time>
  <course>270.0</course>
  <speed>0.0</speed>
  <fix>3d</fix>
</trkpt>
<trkpt lat="-27.2744392" lon="151.2900641">
  <ele>343.09</ele>
  <time>2026-09-01T19:51:40Z</time>
  <course>11.21</course>
  <speed>0.022360679774997897</speed>
  <fix>3d</fix>
</trkpt>
<trkpt lat="-27.274439" lon="151.290064">
  <ele>343.1</ele>
  <time>2026-09-01T19:51:40Z</time>
  <course>270.0</course>
  <speed>0.0</speed>
  <fix>3d</fix>
</trkpt>
<trkpt lat="-27.2744392" lon="151.2900641">
  <ele>343.09</ele>
  <time>2026-09-01T19:51:40Z</time>
  <course>11.21</course>
  <speed>0.022360679774997897</speed>
  <fix>3d</fix>
</trkpt>
<trkpt lat="-27.274439" lon="151.290064">
  <ele>343.1</ele>
  <time>2026-09-01T19:51:40Z</time>
  <course>270.0</course>
  <speed>0.0</speed>
  <fix>3d</fix>
</trkpt>
<trkpt lat="-27.2744392" lon="151.2900641">
  <ele>343.09</ele>
  <time>2026-09-01T19:51:40Z</time>
  <course>11.21</course>
  <speed>0.022360679774997897</speed>
  <fix>3d</fix>
</trkpt>
<trkpt lat="-27.274439" lon="151.290064">
  <ele>343.1</ele>
  <time>2026-09-01T19:51:40Z</time>
  <course>270.0</course>
  <speed>0.0</speed>
  <fix>3d</fix>
</trkpt>
<trkpt lat="-27.2744392" lon="151.2900641">
  <ele>343.08</ele>
  <time>2026-09-01T19:51:40Z</time>
  <course>11.21</course>
  <speed>0.022360679774997897</speed>
  <fix>3d</fix>
</trkpt>
<trkpt lat="-27.274439" lon="151.290064">
  <ele>343.1</ele>
  <time>2026-09-01T19:51:40Z</time>
  <course>270.0</course>
  <speed>0.0</speed>
  <fix>3d</fix>
</trkpt>
<trkpt lat="-27.2744392" lon="151.2900641">
  <ele>343.08</ele>
  <time>2026-09-01T19:51:40Z</time>
  <course>11.21</course>
  <speed>0.022360679774997897</speed>
  <fix>3d</fix>
</trkpt>
<trkpt lat="-27.274439" lon="151.290064">
  <ele>343.1</ele>
  <time>2026-09-01T19:51:40Z</time>
  <course>270.0</course>
  <speed>0.0</speed>
  <fix>3d</fix>
</trkpt>
<trkpt lat="-27.2744392" lon="151.2900641">
  <ele>343.08</ele>
  <time>2026-09-01T19:51:40Z</time>
  <course>11.21</course>
  <speed>0.022360679774997897</speed>
  <fix>3d</fix>
</trkpt>
<trkpt lat="-27.274439" lon="151.290064">
  <ele>343.1</ele>
  <time>2026-09-01T19:51:40Z</time>
  <course>270.0</course>
  <speed>0.0</speed>
  <fix>3d</fix>
</trkpt>
<trkpt lat="-27.2744392" lon="151.2900641">
  <ele>343.08</ele>
  <time>2026-09-01T19:51:40Z</time>
  <course>11.21</course>
  <speed>0.022360679774997897</speed>
  <fix>3d</fix>
</trkpt>
<trkpt lat="-27.274439" lon="151.290064">
  <ele>343.1</ele>
  <time>2026-09-01T19:51:40Z</time>
  <course>270.0</course>
  <speed>0.0</speed>
  <fix>3d</fix>
</trkpt>
<trkpt lat="-27.2744392" lon="151.2900641">
  <ele>343.08</ele>
  <time>2026-09-01T19:51:40Z</time>
  <course>11.21</course>
  <speed>0.022360679774997897</speed>
  <fix>3d</fix>
</trkpt>
<trkpt lat="-27.274439" lon="151.290064">
  <ele>343.1</ele>
  <time>2026-09-01T19:51:40Z</time>
  <course>270.0</course>
  <speed>0.0</speed>
  <fix>3d</fix>
</trkpt>
<trkpt lat="-27.2744392" lon="151.2900641">
  <ele>343.07</ele>
  <time>2026-09-01T19:51:40Z</time>
  <course>11.22</course>
  <speed>0.022360679774997897</speed>
  <fix>3d</fix>
</trkpt>
<trkpt lat="-27.274439" lon="151.290064">
  <ele>343.1</ele>
  <time>2026-09-01T19:51:40Z</time>
  <course>270.0</course>
  <speed>0.0</speed>
  <fix>3d</fix>
</trkpt>
<trkpt lat="-27.2744392" lon="151.2900641">
  <ele>343.07</ele>
  <time>2026-09-01T19:51:40Z</time>
  <course>11.22</course>
  <speed>0.022360679774997897</speed>
  <fix>3d</fix>
</trkpt>
<trkpt lat="-27.274439" lon="151.290064">
  <ele>343.1</ele>
  <time>2026-09-01T19:51:40Z</time>
  <course>270.0</course>
  <speed>0.0</speed>
  <fix>3d</fix>
</trkpt>
<trkpt lat="-27.2744392" lon="151.2900641">
  <ele>343.07</ele>
  <time>2026-09-01T19:51:40Z</time>
  <course>11.22</course>
  <speed>0.022360679774997897</speed>
  <fix>3d</fix>
</trkpt>
<trkpt lat="-27.274439" lon="151.290064">
  <ele>343.1</ele>
  <time>2026-09-01T19:51:40Z</time>
  <course>270.0</course>
  <speed>0.0</speed>
  <fix>3d</fix>
</trkpt>
<trkpt lat="-27.2744392" lon="151.2900641">
  <ele>343.07</ele>
  <time>2026-09-01T19:51:40Z</time>
  <course>11.22</course>
  <speed>0.022360679774997897</speed>
  <fix>3d</fix>
</trkpt>
<trkpt lat="-27.274439" lon="151.290064">
  <ele>343.1</ele>
  <time>2026-09-01T19:51:40Z</time>
  <course>270.0</course>
  <speed>0.0</speed>
  <fix>3d</fix>
</trkpt>
<trkpt lat="-27.2744392" lon="151.2900641">
  <ele>343.07</ele>
  <time>2026-09-01T19:51:40Z</time>
  <course>11.22</course>
  <speed>0.022360679774997897</speed>
  <fix>3d</fix>
</trkpt>
<trkpt lat="-27.274439" lon="151.290064">
  <ele>343.1</ele>
  <time>2026-09-01T19:51:40Z</time>
  <course>270.0</course>
  <speed>0.0</speed>
  <fix>3d</fix>
</trkpt>
<trkpt lat="-27.2744392" lon="151.2900641">
  <ele>343.07</ele>
  <time>2026-09-01T19:51:40Z</time>
  <course>11.22</course>
  <speed>0.022360679774997897</speed>
  <fix>3d</fix>
</trkpt>
<trkpt lat="-27.274439" lon="151.290064">
  <ele>343.1</ele>
  <time>2026-09-01T19:51:40Z</time>
  <course>270.0</course>
  <speed>0.0</speed>
  <fix>3d</fix>
</trkpt>
<trkpt lat="-27.2744392" lon="151.2900641">
  <ele>343.07</ele>
  <time>2026-09-01T19:51:40Z</time>
  <course>11.22</course>
  <speed>0.022360679774997897</speed>
  <fix>3d</fix>
</trkpt>
<trkpt lat="-27.274439" lon="151.290064">
  <ele>343.1</ele>
  <time>2026-09-01T19:51:40Z</time>
  <course>270.0</course>
  <speed>0.0</speed>
  <fix>3d</fix>
</trkpt>
<trkpt lat="-27.2744392" lon="151.2900641">
  <ele>343.06</ele>
  <time>2026-09-01T19:51:40Z</time>
  <course>11.22</course>
  <speed>0.022360679774997897</speed>
  <fix>3d</fix>
</trkpt>
<trkpt lat="-27.274439" lon="151.290064">
  <ele>343.1</ele>
  <time>2026-09-01T19:51:40Z</time>
  <course>270.0</course>
  <speed>0.0</speed>
  <fix>3d</fix>
</trkpt>
<trkpt lat="-27.2744392" lon="151.2900641">
  <ele>343.06</ele>
  <time>2026-09-01T19:51:40Z</time>
  <course>11.22</course>
  <speed>0.022360679774997897</speed>
  <fix>3d</fix>
</trkpt>
<trkpt lat="-27.274439" lon="151.290064">
  <ele>343.1</ele>
  <time>2026-09-01T19:51:40Z</time>
  <course>270.0</course>
  <speed>0.0</speed>
  <fix>3d</fix>
</trkpt>
<trkpt lat="-27.2744392" lon="151.2900641">
  <ele>343.06</ele>
  <time>2026-09-01T19:51:40Z</time>
  <course>11.23</course>
  <speed>0.022360679774997897</speed>
  <fix>3d</fix>
</trkpt>
<trkpt lat="-27.274439" lon="151.290064">
  <ele>343.1</ele>
  <time>2026-09-01T19:51:40Z</time>
  <course>270.0</course>
  <speed>0.0</speed>
  <fix>3d</fix>
</trkpt>
<trkpt lat="-27.2744392" lon="151.2900641">
  <ele>343.06</ele>
  <time>2026-09-01T19:51:40Z</time>
  <course>11.23</course>
  <speed>0.022360679774997897</speed>
  <fix>3d</fix>
</trkpt>
<trkpt lat="-27.274439" lon="151.290064">
  <ele>343.1</ele>
  <time>2026-09-01T19:51:40Z</time>
  <course>270.0</course>
  <speed>0.0</speed>
  <fix>3d</fix>
</trkpt>
<trkpt lat="-27.2744392" lon="151.2900641">
  <ele>343.06</ele>
  <time>2026-09-01T19:51:40Z</time>
  <course>11.23</course>
  <speed>0.022360679774997897</speed>
  <fix>3d</fix>
</trkpt>
<trkpt lat="-27.274439" lon="151.290064">
  <ele>343.1</ele>
  <time>2026-09-01T19:51:40Z</time>
  <course>270.0</course>
  <speed>0.0</speed>
  <fix>3d</fix>
</trkpt>
<trkpt lat="-27.2744392" lon="151.2900641">
  <ele>343.06</ele>
  <time>2026-09-01T19:51:40Z</time>
  <course>11.23</course>
  <speed>0.022360679774997897</speed>
  <fix>3d</fix>
</trkpt>
<trkpt lat="-27.274439" lon="151.290064">
  <ele>343.1</ele>
  <time>2026-09-01T19:51:40Z</time>
  <course>270.0</course>
  <speed>0.0</speed>
  <fix>3d</fix>
</trkpt>
<trkpt lat="-27.2744392" lon="151.2900641">
  <ele>343.06</ele>
  <time>2026-09-01T19:51:40Z</time>
  <course>11.23</course>
  <speed>0.022360679774997897</speed>
  <fix>3d</fix>
</trkpt>
<trkpt lat="-27.274439" lon="151.290064">
  <ele>343.1</ele>
  <time>2026-09-01T19:51:40Z</time>
  <course>270.0</course>
  <speed>0.0</speed>
  <fix>3d</fix>
</trkpt>
<trkpt lat="-27.2744392" lon="151.2900641">
  <ele>343.06</ele>
  <time>2026-09-01T19:51:40Z</time>
  <course>11.23</course>
  <speed>0.022360679774997897</speed>
  <fix>3d</fix>
</trkpt>
<trkpt lat="-27.274439" lon="151.290064">
  <ele>343.1</ele>
  <time>2026-09-01T19:51:40Z</time>
  <course>270.0</course>
  <speed>0.0</speed>
  <fix>3d</fix>
</trkpt>
<trkpt lat="-27.2744392" lon="151.2900641">
  <ele>343.06</ele>
  <time>2026-09-01T19:51:40Z</time>
  <course>11.23</course>
  <speed>0.022360679774997897</speed>
  <fix>3d</fix>
</trkpt>
<trkpt lat="-27.274439" lon="151.290064">
  <ele>343.1</ele>
  <time>2026-09-01T19:51:40Z</time>
  <course>270.0</course>
  <speed>0.0</speed>
  <fix>3d</fix>
</trkpt>
<trkpt lat="-27.2744392" lon="151.2900641">
  <ele>343.06</ele>
  <time>2026-09-01T19:51:40Z</time>
  <course>11.23</course>
  <speed>0.022360679774997897</speed>
  <fix>3d</fix>
</trkpt>
<trkpt lat="-27.274439" lon="151.290064">
  <ele>343.1</ele>
  <time>2026-09-01T19:51:40Z</time>
  <course>270.0</course>
  <speed>0.0</speed>
  <fix>3d</fix>
</trkpt>
<trkpt lat="-27.2744392" lon="151.2900641">
  <ele>343.06</ele>
  <time>2026-09-01T19:51:40Z</time>
  <course>11.23</course>
  <speed>0.022360679774997897</speed>
  <fix>3d</fix>
</trkpt>
<trkpt lat="-27.274439" lon="151.290064">
  <ele>343.1</ele>
  <time>2026-09-01T19:51:40Z</time>
  <course>270.0</course>
  <speed>0.0</speed>
  <fix>3d</fix>
</trkpt>
<trkpt lat="-27.2744392" lon="151.2900641">
  <ele>343.06</ele>
  <time>2026-09-01T19:51:40Z</time>
  <course>11.23</course>
  <speed>0.022360679774997897</speed>
  <fix>3d</fix>
</trkpt>
<trkpt lat="-27.274439" lon="151.290064">
  <ele>343.1</ele>
  <time>2026-09-01T19:51:40Z</time>
  <course>270.0</course>
  <speed>0.0</speed>
  <fix>3d</fix>
</trkpt>
<trkpt lat="-27.2744392" lon="151.2900641">
  <ele>343.06</ele>
  <time>2026-09-01T19:51:40Z</time>
  <course>11.24</course>
  <speed>0.022360679774997897</speed>
  <fix>3d</fix>
</trkpt>
<trkpt lat="-27.274439" lon="151.290064">
  <ele>343.1</ele>
  <time>2026-09-01T19:51:40Z</time>
  <course>270.0</course>
  <speed>0.0</speed>
  <fix>3d</fix>
</trkpt>
<trkpt lat="-27.2744392" lon="151.2900641">
  <ele>343.06</ele>
  <time>2026-09-01T19:51:40Z</time>
  <course>11.24</course>
  <speed>0.022360679774997897</speed>
  <fix>3d</fix>
</trkpt>
<trkpt lat="-27.274439" lon="151.290064">
  <ele>343.1</ele>
  <time>2026-09-01T19:51:40Z</time>
  <course>270.0</course>
  <speed>0.0</speed>
  <fix>3d</fix>
</trkpt>
<trkpt lat="-27.2744392" lon="151.2900641">
  <ele>343.06</ele>
  <time>2026-09-01T19:51:40Z</time>
  <course>11.24</course>
  <speed>0.022360679774997897</speed>
  <fix>3d</fix>
</trkpt>
<trkpt lat="-27.274439" lon="151.290064">
  <ele>343.1</ele>
  <time>2026-09-01T19:51:40Z</time>
  <course>270.0</course>
  <speed>0.0</speed>
  <fix>3d</fix>
</trkpt>
<trkpt lat="-27.2744392" lon="151.2900641">
  <ele>343.07</ele>
  <time>2026-09-01T19:51:40Z</time>
  <course>11.24</course>
  <speed>0.022360679774997897</speed>
  <fix>3d</fix>
</trkpt>
<trkpt lat="-27.274439" lon="151.290064">
  <ele>343.1</ele>
  <time>2026-09-01T19:51:40Z</time>
  <course>270.0</course>
  <speed>0.0</speed>
  <fix>3d</fix>
</trkpt>
<trkpt lat="-27.2744392" lon="151.2900641">
  <ele>343.07</ele>
  <time>2026-09-01T19:51:40Z</time>
  <course>11.24</course>
  <speed>0.022360679774997897</speed>
  <fix>3d</fix>
</trkpt>
<trkpt lat="-27.274439" lon="151.290064">
  <ele>343.1</ele>
  <time>2026-09-01T19:51:40Z</time>
  <course>270.0</course>
  <speed>0.0</speed>
  <fix>3d</fix>
</trkpt>
<trkpt lat="-27.2744392" lon="151.2900641">
  <ele>343.07</ele>
  <time>2026-09-01T19:51:40Z</time>
  <course>11.24</course>
  <speed>0.022360679774997897</speed>
  <fix>3d</fix>
</trkpt>
<trkpt lat="-27.274439" lon="151.290064">
  <ele>343.1</ele>
  <time>2026-09-01T19:51:40Z</time>
  <course>270.0</course>
  <speed>0.0</speed>
  <fix>3d</fix>
</trkpt>
<trkpt lat="-27.2744392" lon="151.2900641">
  <ele>343.08</ele>
  <time>2026-09-01T19:51:40Z</time>
  <course>11.24</course>
  <speed>0.022360679774997897</speed>
  <fix>3d</fix>
</trkpt>
<trkpt lat="-27.274439" lon="151.290064">
  <ele>343.1</ele>
  <time>2026-09-01T19:51:40Z</time>
  <course>270.0</course>
  <speed>0.0</speed>
  <fix>3d</fix>
</trkpt>
<trkpt lat="-27.2744392" lon="151.2900641">
  <ele>343.08</ele>
  <time>2026-09-01T19:51:40Z</time>
  <course>11.24</course>
  <speed>0.022360679774997897</speed>
  <fix>3d</fix>
</trkpt>
<trkpt lat="-27.274439" lon="151.290064">
  <ele>343.1</ele>
  <time>2026-09-01T19:51:40Z</time>
  <course>270.0</course>
  <speed>0.0</speed>
  <fix>3d</fix>
</trkpt>
<trkpt lat="-27.2744392" lon="151.2900641">
  <ele>343.08</ele>
  <time>2026-09-01T19:51:40Z</time>
  <course>11.24</course>
  <speed>0.022360679774997897</speed>
  <fix>3d</fix>
</trkpt>
<trkpt lat="-27.274439" lon="151.290064">
  <ele>343.1</ele>
  <time>2026-09-01T19:51:40Z</time>
  <course>270.0</course>
  <speed>0.0</speed>
  <fix>3d</fix>
</trkpt>
<trkpt lat="-27.2744392" lon="151.2900641">
  <ele>343.08</ele>
  <time>2026-09-01T19:51:40Z</time>
  <course>11.24</course>
  <speed>0.022360679774997897</speed>
  <fix>3d</fix>
</trkpt>
<trkpt lat="-27.274439" lon="151.290064">
  <ele>343.1</ele>
  <time>2026-09-01T19:51:40Z</time>
  <course>270.0</course>
  <speed>0.0</speed>
  <fix>3d</fix>
</trkpt>
<trkpt lat="-27.2744392" lon="151.2900641">
  <ele>343.08</ele>
  <time>2026-09-01T19:51:40Z</time>
  <course>11.25</course>
  <speed>0.022360679774997897</speed>
  <fix>3d</fix>
</trkpt>
<trkpt lat="-27.274439" lon="151.290064">
  <ele>343.1</ele>
  <time>2026-09-01T19:51:40Z</time>
  <course>270.0</course>
  <speed>0.0</speed>
  <fix>3d</fix>
</trkpt>
<trkpt lat="-27.2744392" lon="151.2900641">
  <ele>343.08</ele>
  <time>2026-09-01T19:51:40Z</time>
  <course>11.25</course>
  <speed>0.022360679774997897</speed>
  <fix>3d</fix>
</trkpt>
<trkpt lat="-27.274439" lon="151.290064">
  <ele>343.1</ele>
  <time>2026-09-01T19:51:40Z</time>
  <course>270.0</course>
  <speed>0.0</speed>
  <fix>3d</fix>
</trkpt>
<trkpt lat="-27.2744392" lon="151.2900641">
  <ele>343.07</ele>
  <time>2026-09-01T19:51:40Z</time>
  <course>11.25</course>
  <speed>0.022360679774997897</speed>
  <fix>3d</fix>
</trkpt>
<trkpt lat="-27.274439" lon="151.290064">
  <ele>343.1</ele>
  <time>2026-09-01T19:51:40Z</time>
  <course>270.0</course>
  <speed>0.0</speed>
  <fix>3d</fix>
</trkpt>
<trkpt lat="-27.2744392" lon="151.2900641">
  <ele>343.07</ele>
  <time>2026-09-01T19:51:40Z</time>
  <course>11.25</course>
  <speed>0.022360679774997897</speed>
  <fix>3d</fix>
</trkpt>
<trkpt lat="-27.274439" lon="151.290064">
  <ele>343.1</ele>
  <time>2026-09-01T19:51:40Z</time>
  <course>270.0</course>
  <speed>0.0</speed>
  <fix>3d</fix>
</trkpt>
<trkpt lat="-27.2744392" lon="151.2900641">
  <ele>343.07</ele>
  <time>2026-09-01T19:51:40Z</time>
  <course>11.25</course>
  <speed>0.022360679774997897</speed>
  <fix>3d</fix>
</trkpt>
<trkpt lat="-27.274439" lon="151.290064">
  <ele>343.1</ele>
  <time>2026-09-01T19:51:40Z</time>
  <course>270.0</course>
  <speed>0.0</speed>
  <fix>3d</fix>
</trkpt>
<trkpt lat="-27.2744392" lon="151.2900641">
  <ele>343.07</ele>
  <time>2026-09-01T19:51:40Z</time>
  <course>11.25</course>
  <speed>0.022360679774997897</speed>
  <fix>3d</fix>
</trkpt>
<trkpt lat="-27.274439" lon="151.290064">
  <ele>343.1</ele>
  <time>2026-09-01T19:51:40Z</time>
  <course>270.0</course>
  <speed>0.0</speed>
  <fix>3d</fix>
</trkpt>
<trkpt lat="-27.2744392" lon="151.2900641">
  <ele>343.07</ele>
  <time>2026-09-01T19:51:40Z</time>
  <course>11.25</course>
  <speed>0.022360679774997897</speed>
  <fix>3d</fix>
</trkpt>
<trkpt lat="-27.274439" lon="151.290064">
  <ele>343.1</ele>
  <time>2026-09-01T19:51:40Z</time>
  <course>270.0</course>
  <speed>0.0</speed>
  <fix>3d</fix>
</trkpt>
<trkpt lat="-27.2744392" lon="151.2900641">
  <ele>343.06</ele>
  <time>2026-09-01T19:51:40Z</time>
  <course>11.25</course>
  <speed>0.022360679774997897</speed>
  <fix>3d</fix>
</trkpt>
<trkpt lat="-27.274439" lon="151.290064">
  <ele>343.1</ele>
  <time>2026-09-01T19:51:40Z</time>
  <course>270.0</course>
  <speed>0.0</speed>
  <fix>3d</fix>
</trkpt>
<trkpt lat="-27.2744392" lon="151.2900641">
  <ele>343.06</ele>
  <time>2026-09-01T19:51:40Z</time>
  <course>11.25</course>
  <speed>0.022360679774997897</speed>
  <fix>3d</fix>
</trkpt>
<trkpt lat="-27.274439" lon="151.290064">
  <ele>343.1</ele>
  <time>2026-09-01T19:51:40Z</time>
  <course>270.0</course>
  <speed>0.0</speed>
  <fix>3d</fix>
</trkpt>
<trkpt lat="-27.2744392" lon="151.2900641">
  <ele>343.06</ele>
  <time>2026-09-01T19:51:40Z</time>
  <course>11.26</course>
  <speed>0.022360679774997897</speed>
  <fix>3d</fix>
</trkpt>
<trkpt lat="-27.274439" lon="151.290064">
  <ele>343.1</ele>
  <time>2026-09-01T19:51:40Z</time>
  <course>270.0</course>
  <speed>0.0</speed>
  <fix>3d</fix>
</trkpt>
<trkpt lat="-27.2744392" lon="151.2900641">
  <ele>343.06</ele>
  <time>2026-09-01T19:51:40Z</time>
  <course>11.26</course>
  <speed>0.022360679774997897</speed>
  <fix>3d</fix>
</trkpt>
<trkpt lat="-27.274439" lon="151.290064">
  <ele>343.1</ele>
  <time>2026-09-01T19:51:40Z</time>
  <course>270.0</course>
  <speed>0.0</speed>
  <fix>3d</fix>
</trkpt>
<trkpt lat="-27.2744392" lon="151.2900641">
  <ele>343.05</ele>
  <time>2026-09-01T19:51:40Z</time>
  <course>11.26</course>
  <speed>0.022360679774997897</speed>
  <fix>3d</fix>
</trkpt>
<trkpt lat="-27.274439" lon="151.290064">
  <ele>343.1</ele>
  <time>2026-09-01T19:51:40Z</time>
  <course>270.0</course>
  <speed>0.0</speed>
  <fix>3d</fix>
</trkpt>
<trkpt lat="-27.2744392" lon="151.2900641">
  <ele>343.05</ele>
  <time>2026-09-01T19:51:40Z</time>
  <course>11.26</course>
  <speed>0.022360679774997897</speed>
  <fix>3d</fix>
</trkpt>
<trkpt lat="-27.274439" lon="151.290064">
  <ele>343.1</ele>
  <time>2026-09-01T19:51:40Z</time>
  <course>270.0</course>
  <speed>0.0</speed>
  <fix>3d</fix>
</trkpt>
<trkpt lat="-27.2744392" lon="151.2900641">
  <ele>343.05</ele>
  <time>2026-09-01T19:51:40Z</time>
  <course>11.26</course>
  <speed>0.022360679774997897</speed>
  <fix>3d</fix>
</trkpt>
<trkpt lat="-27.274439" lon="151.290064">
  <ele>343.1</ele>
  <time>2026-09-01T19:51:40Z</time>
  <course>270.0</course>
  <speed>0.0</speed>
  <fix>3d</fix>
</trkpt>
<trkpt lat="-27.2744392" lon="151.2900641">
  <ele>343.05</ele>
  <time>2026-09-01T19:51:40Z</time>
  <course>11.26</course>
  <speed>0.022360679774997897</speed>
  <fix>3d</fix>
</trkpt>
<trkpt lat="-27.274439" lon="151.290064">
  <ele>343.1</ele>
  <time>2026-09-01T19:51:40Z</time>
  <course>270.0</course>
  <speed>0.0</speed>
  <fix>3d</fix>
</trkpt>
<trkpt lat="-27.2744392" lon="151.2900641">
  <ele>343.05</ele>
  <time>2026-09-01T19:51:40Z</time>
  <course>11.26</course>
  <speed>0.022360679774997897</speed>
  <fix>3d</fix>
</trkpt>
<trkpt lat="-27.274439" lon="151.290064">
  <ele>343.1</ele>
  <time>2026-09-01T19:51:40Z</time>
  <course>270.0</course>
  <speed>0.0</speed>
  <fix>3d</fix>
</trkpt>
<trkpt lat="-27.2744392" lon="151.2900641">
  <ele>343.05</ele>
  <time>2026-09-01T19:51:40Z</time>
  <course>11.26</course>
  <speed>0.022360679774997897</speed>
  <fix>3d</fix>
</trkpt>
<trkpt lat="-27.274439" lon="151.290064">
  <ele>343.1</ele>
  <time>2026-09-01T19:51:40Z</time>
  <course>270.0</course>
  <speed>0.0</speed>
  <fix>3d</fix>
</trkpt>
<trkpt lat="-27.2744392" lon="151.2900641">
  <ele>343.05</ele>
  <time>2026-09-01T19:51:40Z</time>
  <course>11.26</course>
  <speed>0.022360679774997897</speed>
  <fix>3d</fix>
</trkpt>
<trkpt lat="-27.274439" lon="151.290064">
  <ele>343.1</ele>
  <time>2026-09-01T19:51:40Z</time>
  <course>270.0</course>
  <speed>0.0</speed>
  <fix>3d</fix>
</trkpt>
<trkpt lat="-26.9720619" lon="149.6127921">
  <ele>339.29</ele>
  <time>2026-09-01T19:51:41Z</time>
  <course>310.27</course>
  <speed>0.0</speed>
  <fix>3d</fix>
</trkpt>
<trkpt lat="-26.9720619" lon="149.6127921">
  <ele>339.29</ele>
  <time>2026-09-01T19:51:41Z</time>
  <course>310.27</course>
  <speed>0.0</speed>
  <fix>3d</fix>
</trkpt>
<trkpt lat="-27.274439" lon="151.290064">
  <ele>-0.01</ele>
  <time>2026-09-01T19:51:41Z</time>
  <course>0.22</course>
  <speed>0.0</speed>
  <fix>3d</fix>
</trkpt>
<trkpt lat="-27.274439" lon="151.290064">
  <ele>343.1</ele>
  <time>2026-09-01T19:51:41Z</time>
  <course>294.58</course>
  <speed>0.0</speed>
  <fix>3d</fix>
</trkpt>
<trkpt lat="-27.274439" lon="151.290064">
  <ele>0.02</ele>
  <time>2026-09-01T19:51:41Z</time>
  <course>1.2</course>
  <speed>0.0</speed>
  <fix>3d</fix>
</trkpt>
<trkpt lat="-27.274439" lon="151.290064">
  <ele>343.1</ele>
  <time>2026-09-01T19:51:41Z</time>
  <course>294.58</course>
  <speed>0.0</speed>
  <fix>3d</fix>
</trkpt>
<trkpt lat="-27.274439" lon="151.290064">
  <ele>-0.08</ele>
  <time>2026-09-01T19:51:41Z</time>
  <course>2.1</course>
  <speed>0.0</speed>
  <fix>3d</fix>
</trkpt>
<trkpt lat="-27.274439" lon="151.290064">
  <ele>343.1</ele>
  <time>2026-09-01T19:51:41Z</time>
  <course>273.33</course>
  <speed>0.0</speed>
  <fix>3d</fix>
</trkpt>
<trkpt lat="-27.274439" lon="151.290064">
  <ele>0.22</ele>
  <time>2026-09-01T19:51:41Z</time>
  <course>2.92</course>
  <speed>0.0</speed>
  <fix>3d</fix>
</trkpt>
<trkpt lat="-27.274439" lon="151.290064">
  <ele>343.1</ele>
  <time>2026-09-01T19:51:41Z</time>
  <course>273.33</course>
  <speed>0.0</speed>
  <fix>3d</fix>
</trkpt>
<trkpt lat="-27.274439" lon="151.290064">
  <ele>0.09</ele>
  <time>2026-09-01T19:51:41Z</time>
  <course>3.66</course>
  <speed>0.0</speed>
  <fix>3d</fix>
</trkpt>
<trkpt lat="-27.274439" lon="151.290064">
  <ele>343.1</ele>
  <time>2026-09-01T19:51:41Z</time>
  <course>270.44</course>
  <speed>0.0</speed>
  <fix>3d</fix>
</trkpt>
<trkpt lat="-27.274439" lon="151.290064">
  <ele>0.08</ele>
  <time>2026-09-01T19:51:41Z</time>
  <course>4.34</course>
  <speed>0.0</speed>
  <fix>3d</fix>
</trkpt>
<trkpt lat="-27.274439" lon="151.290064">
  <ele>343.1</ele>
  <time>2026-09-01T19:51:41Z</time>
  <course>270.44</course>
  <speed>0.0</speed>
  <fix>3d</fix>
</trkpt>
<trkpt lat="-27.274439" lon="151.290064">
  <ele>0.09</ele>
  <time>2026-09-01T19:51:41Z</time>
  <course>4.95</course>
  <speed>0.0</speed>
  <fix>3d</fix>
</trkpt>
<trkpt lat="-27.274439" lon="151.290064">
  <ele>343.1</ele>
  <time>2026-09-01T19:51:41Z</time>
  <course>270.05</course>
  <speed>0.0</speed>
  <fix>3d</fix>
</trkpt>
<trkpt lat="-27.274439" lon="151.290064">
  <ele>-0.05</ele>
  <time>2026-09-01T19:51:41Z</time>
  <course>5.5</course>
  <speed>0.0</speed>
  <fix>3d</fix>
</trkpt>
<trkpt lat="-27.274439" lon="151.290064">
  <ele>343.1</ele>
  <time>2026-09-01T19:51:41Z</time>
  <course>270.05</course>
  <speed>0.0</speed>
  <fix>3d</fix>
</trkpt>
<trkpt lat="-27.274439" lon="151.290064">
  <ele>343.06</ele>
  <time>2026-09-01T19:51:41Z</time>
  <course>5.98</course>
  <speed>0.0</speed>
  <fix>3d</fix>
</trkpt>
<trkpt lat="-27.274439" lon="151.290064">
  <ele>343.1</ele>
  <time>2026-09-01T19:51:41Z</time>
  <course>270.0</course>
  <speed>0.0</speed>
  <fix>3d</fix>
</trkpt>
<trkpt lat="-27.274439" lon="151.290064">
  <ele>343.18</ele>
  <time>2026-09-01T19:51:41Z</time>
  <course>6.44</course>
  <speed>0.0</speed>
  <fix>3d</fix>
</trkpt>
<trkpt lat="-27.274439" lon="151.290064">
  <ele>343.1</ele>
  <time>2026-09-01T19:51:41Z</time>
  <course>270.0</course>
  <speed>0.0</speed>
  <fix>3d</fix>
</trkpt>
<trkpt lat="-27.274439" lon="151.290064">
  <ele>342.91</ele>
  <time>2026-09-01T19:51:41Z</time>
  <course>6.85</course>
  <speed>0.0</speed>
  <fix>3d</fix>
</trkpt>
<trkpt lat="-27.274439" lon="151.290064">
  <ele>343.1</ele>
  <time>2026-09-01T19:51:41Z</time>
  <course>270.0</course>
  <speed>0.0</speed>
  <fix>3d</fix>
</trkpt>
<trkpt lat="-27.274439" lon="151.290064">
  <ele>343.06</ele>
  <time>2026-09-01T19:51:41Z</time>
  <course>7.22</course>
  <speed>0.0</speed>
  <fix>3d</fix>
</trkpt>
<trkpt lat="-27.274439" lon="151.290064">
  <ele>343.1</ele>
  <time>2026-09-01T19:51:41Z</time>
  <course>270.0</course>
  <speed>0.0</speed>
  <fix>3d</fix>
</trkpt>
<trkpt lat="-27.274439" lon="151.290064">
  <ele>343.13</ele>
  <time>2026-09-01T19:51:41Z</time>
  <course>7.56</course>
  <speed>0.0</speed>
  <fix>3d</fix>
</trkpt>
<trkpt lat="-27.274439" lon="151.290064">
  <ele>343.1</ele>
  <time>2026-09-01T19:51:41Z</time>
  <course>270.0</course>
  <speed>0.0</speed>
  <fix>3d</fix>
</trkpt>
<trkpt lat="-27.274439" lon="151.290064">
  <ele>343.04</ele>
  <time>2026-09-01T19:51:41Z</time>
  <course>7.87</course>
  <speed>0.0</speed>
  <fix>3d</fix>
</trkpt>
<trkpt lat="-27.274439" lon="151.290064">
  <ele>343.1</ele>
  <time>2026-09-01T19:51:41Z</time>
  <course>270.0</course>
  <speed>0.0</speed>
  <fix>3d</fix>
</trkpt>
<trkpt lat="-27.274439" lon="151.290064">
  <ele>342.88</ele>
  <time>2026-09-01T19:51:41Z</time>
  <course>8.14</course>
  <speed>0.0</speed>
  <fix>3d</fix>
</trkpt>
<trkpt lat="-27.274439" lon="151.290064">
  <ele>343.1</ele>
  <time>2026-09-01T19:51:41Z</time>
  <course>270.0</course>
  <speed>0.0</speed>
  <fix>3d</fix>
</trkpt>
<trkpt lat="-27.274439" lon="151.290064">
  <ele>343.02</ele>
  <time>2026-09-01T19:51:41Z</time>
  <course>8.39</course>
  <speed>0.0</speed>
  <fix>3d</fix>
</trkpt>
<trkpt lat="-27.274439" lon="151.290064">
  <ele>343.1</ele>
  <time>2026-09-01T19:51:41Z</time>
  <course>270.0</course>
  <speed>0.0</speed>
  <fix>3d</fix>
</trkpt>
<trkpt lat="-27.274439" lon="151.290064">
  <ele>343.23</ele>
  <time>2026-09-01T19:51:41Z</time>
  <course>8.63</course>
  <speed>0.0</speed>
  <fix>3d</fix>
</trkpt>
<trkpt lat="-27.274439" lon="151.290064">
  <ele>343.1</ele>
  <time>2026-09-01T19:51:41Z</time>
  <course>270.0</course>
  <speed>0.0</speed>
  <fix>3d</fix>
</trkpt>
<trkpt lat="-27.274439" lon="151.290064">
  <ele>343.17</ele>
  <time>2026-09-01T19:51:41Z</time>
  <course>8.83</course>
  <speed>0.0</speed>
  <fix>3d</fix>
</trkpt>
<trkpt lat="-27.274439" lon="151.290064">
  <ele>343.1</ele>
  <time>2026-09-01T19:51:41Z</time>
  <course>270.0</course>
  <speed>0.0</speed>
  <fix>3d</fix>
</trkpt>
<trkpt lat="-27.274439" lon="151.290064">
  <ele>343.04</ele>
  <time>2026-09-01T19:51:41Z</time>
  <course>9.01</course>
  <speed>0.0</speed>
  <fix>3d</fix>
</trkpt>
<trkpt lat="-27.274439" lon="151.290064">
  <ele>343.1</ele>
  <time>2026-09-01T19:51:41Z</time>
  <course>270.0</course>
  <speed>0.0</speed>
  <fix>3d</fix>
</trkpt>
<trkpt lat="-27.274439" lon="151.290064">
  <ele>342.89</ele>
  <time>2026-09-01T19:51:41Z</time>
  <course>9.18</course>
  <speed>0.0</speed>
  <fix>3d</fix>
</trkpt>
<trkpt lat="-27.274439" lon="151.290064">
  <ele>343.1</ele>
  <time>2026-09-01T19:51:41Z</time>
  <course>270.0</course>
  <speed>0.0</speed>
  <fix>3d</fix>
</trkpt>
<trkpt lat="-27.274439" lon="151.290064">
  <ele>343.08</ele>
  <time>2026-09-01T19:51:41Z</time>
  <course>9.33</course>
  <speed>0.0</speed>
  <fix>3d</fix>
</trkpt>
<trkpt lat="-27.274439" lon="151.290064">
  <ele>343.1</ele>
  <time>2026-09-01T19:51:41Z</time>
  <course>270.0</course>
  <speed>0.0</speed>
  <fix>3d</fix>
</trkpt>
<trkpt lat="-27.274439" lon="151.290064">
  <ele>343.19</ele>
  <time>2026-09-01T19:51:41Z</time>
  <course>9.47</course>
  <speed>0.0</speed>
  <fix>3d</fix>
</trkpt>
<trkpt lat="-27.274439" lon="151.290064">
  <ele>343.1</ele>
  <time>2026-09-01T19:51:41Z</time>
  <course>270.0</course>
  <speed>0.0</speed>
  <fix>3d</fix>
</trkpt>
<trkpt lat="-27.274439" lon="151.290064">
  <ele>342.88</ele>
  <time>2026-09-01T19:51:41Z</time>
  <course>9.59</course>
  <speed>0.0</speed>
  <fix>3d</fix>
</trkpt>
<trkpt lat="-27.274439" lon="151.290064">
  <ele>343.1</ele>
  <time>2026-09-01T19:51:41Z</time>
  <course>270.0</course>
  <speed>0.0</speed>
  <fix>3d</fix>
</trkpt>
<trkpt lat="-27.274439" lon="151.290064">
  <ele>343.17</ele>
  <time>2026-09-01T19:51:41Z</time>
  <course>9.7</course>
  <speed>0.0</speed>
  <fix>3d</fix>
</trkpt>
<trkpt lat="-27.274439" lon="151.290064">
  <ele>343.1</ele>
  <time>2026-09-01T19:51:41Z</time>
  <course>270.0</course>
  <speed>0.0</speed>
  <fix>3d</fix>
</trkpt>
<trkpt lat="-27.274439" lon="151.290064">
  <ele>342.89</ele>
  <time>2026-09-01T19:51:41Z</time>
  <course>9.8</course>
  <speed>0.0</speed>
  <fix>3d</fix>
</trkpt>
<trkpt lat="-27.274439" lon="151.290064">
  <ele>343.1</ele>
  <time>2026-09-01T19:51:41Z</time>
  <course>270.0</course>
  <speed>0.0</speed>
  <fix>3d</fix>
</trkpt>
<trkpt lat="-27.274439" lon="151.290064">
  <ele>342.99</ele>
  <time>2026-09-01T19:51:41Z</time>
  <course>9.9</course>
  <speed>0.0</speed>
  <fix>3d</fix>
</trkpt>
<trkpt lat="-27.274439" lon="151.290064">
  <ele>343.1</ele>
  <time>2026-09-01T19:51:41Z</time>
  <course>270.0</course>
  <speed>0.0</speed>
  <fix>3d</fix>
</trkpt>
<trkpt lat="-27.274439" lon="151.290064">
  <ele>342.87</ele>
  <time>2026-09-01T19:51:41Z</time>
  <course>9.98</course>
  <speed>0.0</speed>
  <fix>3d</fix>
</trkpt>
<trkpt lat="-27.274439" lon="151.290064">
  <ele>343.1</ele>
  <time>2026-09-01T19:51:41Z</time>
  <course>270.0</course>
  <speed>0.0</speed>
  <fix>3d</fix>
</trkpt>
<trkpt lat="-27.274439" lon="151.290064">
  <ele>343.09</ele>
  <time>2026-09-01T19:51:41Z</time>
  <course>10.06</course>
  <speed>0.0</speed>
  <fix>3d</fix>
</trkpt>
<trkpt lat="-27.274439" lon="151.290064">
  <ele>343.1</ele>
  <time>2026-09-01T19:51:41Z</time>
  <course>270.0</course>
  <speed>0.0</speed>
  <fix>3d</fix>
</trkpt>
<trkpt lat="-27.274439" lon="151.290064">
  <ele>343.18</ele>
  <time>2026-09-01T19:51:41Z</time>
  <course>10.13</course>
  <speed>0.0</speed>
  <fix>3d</fix>
</trkpt>
<trkpt lat="-27.274439" lon="151.290064">
  <ele>343.1</ele>
  <time>2026-09-01T19:51:41Z</time>
  <course>270.0</course>
  <speed>0.0</speed>
  <fix>3d</fix>
</trkpt>
<trkpt lat="-27.274439" lon="151.290064">
  <ele>343.05</ele>
  <time>2026-09-01T19:51:41Z</time>
  <course>10.2</course>
  <speed>0.0</speed>
  <fix>3d</fix>
</trkpt>
<trkpt lat="-27.274439" lon="151.290064">
  <ele>343.1</ele>
  <time>2026-09-01T19:51:41Z</time>
  <course>270.0</course>
  <speed>0.0</speed>
  <fix>3d</fix>
</trkpt>
<trkpt lat="-27.274439" lon="151.290064">
  <ele>342.96</ele>
  <time>2026-09-01T19:51:41Z</time>
  <course>10.25</course>
  <speed>0.0</speed>
  <fix>3d</fix>
</trkpt>
<trkpt lat="-27.274439" lon="151.290064">
  <ele>343.1</ele>
  <time>2026-09-01T19:51:41Z</time>
  <course>270.0</course>
  <speed>0.0</speed>
  <fix>3d</fix>
</trkpt>
<trkpt lat="-27.274439" lon="151.290064">
  <ele>343.1</ele>
  <time>2026-09-01T19:51:41Z</time>
  <course>10.31</course>
  <speed>0.0</speed>
  <fix>3d</fix>
</trkpt>
<trkpt lat="-27.274439" lon="151.290064">
  <ele>343.1</ele>
  <time>2026-09-01T19:51:41Z</time>
  <course>270.0</course>
  <speed>0.0</speed>
  <fix>3d</fix>
</trkpt>
<trkpt lat="-27.274439" lon="151.290064">
  <ele>343.22</ele>
  <time>2026-09-01T19:51:41Z</time>
  <course>10.35</course>
  <speed>0.0</speed>
  <fix>3d</fix>
</trkpt>
<trkpt lat="-27.274439" lon="151.290064">
  <ele>343.1</ele>
  <time>2026-09-01T19:51:41Z</time>
  <course>270.0</course>
  <speed>0.0</speed>
  <fix>3d</fix>
</trkpt>
<trkpt lat="-27.274439" lon="151.290064">
  <ele>343.17</ele>
  <time>2026-09-01T19:51:41Z</time>
  <course>10.4</course>
  <speed>0.0</speed>
  <fix>3d</fix>
</trkpt>
<trkpt lat="-27.274439" lon="151.290064">
  <ele>343.1</ele>
  <time>2026-09-01T19:51:41Z</time>
  <course>270.0</course>
  <speed>0.0</speed>
  <fix>3d</fix>
</trkpt>
<trkpt lat="-27.274439" lon="151.290064">
  <ele>343.08</ele>
  <time>2026-09-01T19:51:41Z</time>
  <course>10.44</course>
  <speed>0.0</speed>
  <fix>3d</fix>
</trkpt>
<trkpt lat="-27.274439" lon="151.290064">
  <ele>343.1</ele>
  <time>2026-09-01T19:51:41Z</time>
  <course>270.0</course>
  <speed>0.0</speed>
  <fix>3d</fix>
</trkpt>
<trkpt lat="-27.274439" lon="151.290064">
  <ele>343.04</ele>
  <time>2026-09-01T19:51:41Z</time>
  <course>10.47</course>
  <speed>0.0</speed>
  <fix>3d</fix>
</trkpt>
<trkpt lat="-27.274439" lon="151.290064">
  <ele>343.1</ele>
  <time>2026-09-01T19:51:41Z</time>
  <course>270.0</course>
  <speed>0.0</speed>
  <fix>3d</fix>
</trkpt>
<trkpt lat="-27.274439" lon="151.290064">
  <ele>343.18</ele>
  <time>2026-09-01T19:51:41Z</time>
  <course>10.5</course>
  <speed>0.0</speed>
  <fix>3d</fix>
</trkpt>
<trkpt lat="-27.274439" lon="151.290064">
  <ele>343.1</ele>
  <time>2026-09-01T19:51:41Z</time>
  <course>270.0</course>
  <speed>0.0</speed>
  <fix>3d</fix>
</trkpt>
<trkpt lat="-27.274439" lon="151.290064">
  <ele>343.12</ele>
  <time>2026-09-01T19:51:41Z</time>
  <course>10.53</course>
  <speed>0.0</speed>
  <fix>3d</fix>
</trkpt>
<trkpt lat="-27.274439" lon="151.290064">
  <ele>343.1</ele>
  <time>2026-09-01T19:51:41Z</time>
  <course>270.0</course>
  <speed>0.0</speed>
  <fix>3d</fix>
</trkpt>
<trkpt lat="-27.274439" lon="151.290064">
  <ele>343.04</ele>
  <time>2026-09-01T19:51:41Z</time>
  <course>10.56</course>
  <speed>0.0</speed>
  <fix>3d</fix>
</trkpt>
<trkpt lat="-27.274439" lon="151.290064">
  <ele>343.1</ele>
  <time>2026-09-01T19:51:41Z</time>
  <course>270.0</course>
  <speed>0.0</speed>
  <fix>3d</fix>
</trkpt>
<trkpt lat="-27.274439" lon="151.290064">
  <ele>343.07</ele>
  <time>2026-09-01T19:51:41Z</time>
  <course>10.58</course>
  <speed>0.0</speed>
  <fix>3d</fix>
</trkpt>
<trkpt lat="-27.274439" lon="151.290064">
  <ele>343.1</ele>
  <time>2026-09-01T19:51:41Z</time>
  <course>270.0</course>
  <speed>0.0</speed>
  <fix>3d</fix>
</trkpt>
<trkpt lat="-27.274439" lon="151.290064">
  <ele>343.04</ele>
  <time>2026-09-01T19:51:41Z</time>
  <course>10.6</course>
  <speed>0.0</speed>
  <fix>3d</fix>
</trkpt>
<trkpt lat="-27.274439" lon="151.290064">
  <ele>343.1</ele>
  <time>2026-09-01T19:51:41Z</time>
  <course>270.0</course>
  <speed>0.0</speed>
  <fix>3d</fix>
</trkpt>
<trkpt lat="-27.274439" lon="151.290064">
  <ele>343.01</ele>
  <time>2026-09-01T19:51:41Z</time>
  <course>10.62</course>
  <speed>0.0</speed>
  <fix>3d</fix>
</trkpt>
<trkpt lat="-27.274439" lon="151.290064">
  <ele>343.1</ele>
  <time>2026-09-01T19:51:41Z</time>
  <course>270.0</course>
  <speed>0.0</speed>
  <fix>3d</fix>
</trkpt>
<trkpt lat="-27.274439" lon="151.290064">
  <ele>343.2</ele>
  <time>2026-09-01T19:51:41Z</time>
  <course>10.64</course>
  <speed>0.0</speed>
  <fix>3d</fix>
</trkpt>
<trkpt lat="-27.274439" lon="151.290064">
  <ele>343.1</ele>
  <time>2026-09-01T19:51:41Z</time>
  <course>270.0</course>
  <speed>0.0</speed>
  <fix>3d</fix>
</trkpt>
<trkpt lat="-27.274439" lon="151.290064">
  <ele>343.24</ele>
  <time>2026-09-01T19:51:41Z</time>
  <course>10.65</course>
  <speed>0.0</speed>
  <fix>3d</fix>
</trkpt>
<trkpt lat="-27.274439" lon="151.290064">
  <ele>343.1</ele>
  <time>2026-09-01T19:51:41Z</time>
  <course>270.0</course>
  <speed>0.0</speed>
  <fix>3d</fix>
</trkpt>
<trkpt lat="-27.274439" lon="151.290064">
  <ele>342.88</ele>
  <time>2026-09-01T19:51:41Z</time>
  <course>10.67</course>
  <speed>0.0</speed>
  <fix>3d</fix>
</trkpt>
<trkpt lat="-27.274439" lon="151.290064">
  <ele>343.1</ele>
  <time>2026-09-01T19:51:41Z</time>
  <course>270.0</course>
  <speed>0.0</speed>
  <fix>3d</fix>
</trkpt>
<trkpt lat="-27.274439" lon="151.290064">
  <ele>343.21</ele>
  <time>2026-09-01T19:51:41Z</time>
  <course>10.68</course>
  <speed>0.0</speed>
  <fix>3d</fix>
</trkpt>
<trkpt lat="-27.274439" lon="151.290064">
  <ele>343.1</ele>
  <time>2026-09-01T19:51:41Z</time>
  <course>270.0</course>
  <speed>0.0</speed>
  <fix>3d</fix>
</trkpt>
<trkpt lat="-27.274439" lon="151.290064">
  <ele>343.02</ele>
  <time>2026-09-01T19:51:41Z</time>
  <course>10.69</course>
  <speed>0.0</speed>
  <fix>3d</fix>
</trkpt>
<trkpt lat="-27.274439" lon="151.290064">
  <ele>343.1</ele>
  <time>2026-09-01T19:51:41Z</time>
  <course>270.0</course>
  <speed>0.0</speed>
  <fix>3d</fix>
</trkpt>
<trkpt lat="-27.274439" lon="151.290064">
  <ele>342.93</ele>
  <time>2026-09-01T19:51:41Z</time>
  <course>10.7</course>
  <speed>0.0</speed>
  <fix>3d</fix>
</trkpt>
<trkpt lat="-27.274439" lon="151.290064">
  <ele>343.1</ele>
  <time>2026-09-01T19:51:41Z</time>
  <course>270.0</course>
  <speed>0.0</speed>
  <fix>3d</fix>
</trkpt>
<trkpt lat="-27.274439" lon="151.290064">
  <ele>343.07</ele>
  <time>2026-09-01T19:51:41Z</time>
  <course>10.71</course>
  <speed>0.0</speed>
  <fix>3d</fix>
</trkpt>
<trkpt lat="-27.274439" lon="151.290064">
  <ele>343.1</ele>
  <time>2026-09-01T19:51:41Z</time>
  <course>270.0</course>
  <speed>0.0</speed>
  <fix>3d</fix>
</trkpt>
<trkpt lat="-27.274439" lon="151.290064">
  <ele>342.94</ele>
  <time>2026-09-01T19:51:41Z</time>
  <course>10.72</course>
  <speed>0.0</speed>
  <fix>3d</fix>
</trkpt>
<trkpt lat="-27.274439" lon="151.290064">
  <ele>343.1</ele>
  <time>2026-09-01T19:51:41Z</time>
  <course>270.0</course>
  <speed>0.0</speed>
  <fix>3d</fix>
</trkpt>
<trkpt lat="-27.274439" lon="151.290064">
  <ele>343.11</ele>
  <time>2026-09-01T19:51:41Z</time>
  <course>10.73</course>
  <speed>0.0</speed>
  <fix>3d</fix>
</trkpt>
<trkpt lat="-27.274439" lon="151.290064">
  <ele>343.1</ele>
  <time>2026-09-01T19:51:41Z</time>
  <course>270.0</course>
  <speed>0.0</speed>
  <fix>3d</fix>
</trkpt>
<trkpt lat="-27.274439" lon="151.290064">
  <ele>343.24</ele>
  <time>2026-09-01T19:51:41Z</time>
  <course>10.73</course>
  <speed>0.0</speed>
  <fix>3d</fix>
</trkpt>
<trkpt lat="-27.274439" lon="151.290064">
  <ele>343.1</ele>
  <time>2026-09-01T19:51:41Z</time>
  <course>270.0</course>
  <speed>0.0</speed>
  <fix>3d</fix>
</trkpt>
<trkpt lat="-27.274439" lon="151.290064">
  <ele>343.18</ele>
  <time>2026-09-01T19:51:41Z</time>
  <course>10.74</course>
  <speed>0.0</speed>
  <fix>3d</fix>
</trkpt>
<trkpt lat="-27.274439" lon="151.290064">
  <ele>343.1</ele>
  <time>2026-09-01T19:51:41Z</time>
  <course>270.0</course>
  <speed>0.0</speed>
  <fix>3d</fix>
</trkpt>
<trkpt lat="-27.274439" lon="151.290064">
  <ele>342.89</ele>
  <time>2026-09-01T19:51:41Z</time>
  <course>10.75</course>
  <speed>0.0</speed>
  <fix>3d</fix>
</trkpt>
<trkpt lat="-27.274439" lon="151.290064">
  <ele>343.1</ele>
  <time>2026-09-01T19:51:41Z</time>
  <course>270.0</course>
  <speed>0.0</speed>
  <fix>3d</fix>
</trkpt>
<trkpt lat="-27.274439" lon="151.290064">
  <ele>343.23</ele>
  <time>2026-09-01T19:51:41Z</time>
  <course>10.75</course>
  <speed>0.0</speed>
  <fix>3d</fix>
</trkpt>
<trkpt lat="-27.274439" lon="151.290064">
  <ele>343.1</ele>
  <time>2026-09-01T19:51:41Z</time>
  <course>270.0</course>
  <speed>0.0</speed>
  <fix>3d</fix>
</trkpt>
<trkpt lat="-27.274439" lon="151.290064">
  <ele>343.23</ele>
  <time>2026-09-01T19:51:41Z</time>
  <course>10.76</course>
  <speed>0.0</speed>
  <fix>3d</fix>
</trkpt>
<trkpt lat="-27.274439" lon="151.290064">
  <ele>343.1</ele>
  <time>2026-09-01T19:51:41Z</time>
  <course>270.0</course>
  <speed>0.0</speed>
  <fix>3d</fix>
</trkpt>
<trkpt lat="-27.274439" lon="151.290064">
  <ele>342.99</ele>
  <time>2026-09-01T19:51:41Z</time>
  <course>10.76</course>
  <speed>0.0</speed>
  <fix>3d</fix>
</trkpt>
<trkpt lat="-27.274439" lon="151.290064">
  <ele>343.1</ele>
  <time>2026-09-01T19:51:41Z</time>
  <course>270.0</course>
  <speed>0.0</speed>
  <fix>3d</fix>
</trkpt>
<trkpt lat="-27.274439" lon="151.290064">
  <ele>343.13</ele>
  <time>2026-09-01T19:51:41Z</time>
  <course>10.76</course>
  <speed>0.0</speed>
  <fix>3d</fix>
</trkpt>
<trkpt lat="-27.274439" lon="151.290064">
  <ele>343.1</ele>
  <time>2026-09-01T19:51:41Z</time>
  <course>270.0</course>
  <speed>0.0</speed>
  <fix>3d</fix>
</trkpt>
<trkpt lat="-27.274439" lon="151.290064">
  <ele>343.07</ele>
  <time>2026-09-01T19:51:41Z</time>
  <course>10.77</course>
  <speed>0.0</speed>
  <fix>3d</fix>
</trkpt>
<trkpt lat="-27.274439" lon="151.290064">
  <ele>343.1</ele>
  <time>2026-09-01T19:51:41Z</time>
  <course>270.0</course>
  <speed>0.0</speed>
  <fix>3d</fix>
</trkpt>
<trkpt lat="-27.274439" lon="151.290064">
  <ele>343.19</ele>
  <time>2026-09-01T19:51:41Z</time>
  <course>10.77</course>
  <speed>0.0</speed>
  <fix>3d</fix>
</trkpt>
<trkpt lat="-27.274439" lon="151.290064">
  <ele>343.1</ele>
  <time>2026-09-01T19:51:41Z</time>
  <course>270.0</course>
  <speed>0.0</speed>
  <fix>3d</fix>
</trkpt>
<trkpt lat="-27.274439" lon="151.290064">
  <ele>342.93</ele>
  <time>2026-09-01T19:51:41Z</time>
  <course>10.77</course>
  <speed>0.0</speed>
  <fix>3d</fix>
</trkpt>
<trkpt lat="-27.274439" lon="151.290064">
  <ele>343.1</ele>
  <time>2026-09-01T19:51:41Z</time>
  <course>270.0</course>
  <speed>0.0</speed>
  <fix>3d</fix>
</trkpt>
<trkpt lat="-27.274439" lon="151.290064">
  <ele>343.19</ele>
  <time>2026-09-01T19:51:41Z</time>
  <course>10.78</course>
  <speed>0.0</speed>
  <fix>3d</fix>
</trkpt>
<trkpt lat="-27.274439" lon="151.290064">
  <ele>343.1</ele>
  <time>2026-09-01T19:51:41Z</time>
  <course>270.0</course>
  <speed>0.0</speed>
  <fix>3d</fix>
</trkpt>
<trkpt lat="-27.274439" lon="151.290064">
  <ele>343.1</ele>
  <time>2026-09-01T19:51:41Z</time>
  <course>10.78</course>
  <speed>0.0</speed>
  <fix>3d</fix>
</trkpt>
<trkpt lat="-27.274439" lon="151.290064">
  <ele>343.1</ele>
  <time>2026-09-01T19:51:41Z</time>
  <course>270.0</course>
  <speed>0.0</speed>
  <fix>3d</fix>
</trkpt>
<trkpt lat="-27.274439" lon="151.290064">
  <ele>343.01</ele>
  <time>2026-09-01T19:51:41Z</time>
  <course>10.78</course>
  <speed>0.0</speed>
  <fix>3d</fix>
</trkpt>
<trkpt lat="-27.274439" lon="151.290064">
  <ele>343.1</ele>
  <time>2026-09-01T19:51:41Z</time>
  <course>270.0</course>
  <speed>0.0</speed>
  <fix>3d</fix>
</trkpt>
<trkpt lat="-27.274439" lon="151.290064">
  <ele>343.11</ele>
  <time>2026-09-01T19:51:41Z</time>
  <course>10.78</course>
  <speed>0.0</speed>
  <fix>3d</fix>
</trkpt>
<trkpt lat="-27.274439" lon="151.290064">
  <ele>343.1</ele>
  <time>2026-09-01T19:51:41Z</time>
  <course>270.0</course>
  <speed>0.0</speed>
  <fix>3d</fix>
</trkpt>
<trkpt lat="-27.274439" lon="151.290064">
  <ele>342.96</ele>
  <time>2026-09-01T19:51:41Z</time>
  <course>10.78</course>
  <speed>0.0</speed>
  <fix>3d</fix>
</trkpt>
<trkpt lat="-27.274439" lon="151.290064">
  <ele>343.1</ele>
  <time>2026-09-01T19:51:41Z</time>
  <course>270.0</course>
  <speed>0.0</speed>
  <fix>3d</fix>
</trkpt>
<trkpt lat="-27.274439" lon="151.290064">
  <ele>343.19</ele>
  <time>2026-09-01T19:51:41Z</time>
  <course>10.79</course>
  <speed>0.0</speed>
  <fix>3d</fix>
</trkpt>
<trkpt lat="-27.274439" lon="151.290064">
  <ele>343.1</ele>
  <time>2026-09-01T19:51:41Z</time>
  <course>270.0</course>
  <speed>0.0</speed>
  <fix>3d</fix>
</trkpt>
<trkpt lat="-27.274439" lon="151.290064">
  <ele>343.0</ele>
  <time>2026-09-01T19:51:41Z</time>
  <course>10.79</course>
  <speed>0.0</speed>
  <fix>3d</fix>
</trkpt>
<trkpt lat="-27.274439" lon="151.290064">
  <ele>343.1</ele>
  <time>2026-09-01T19:51:41Z</time>
  <course>270.0</course>
  <speed>0.0</speed>
  <fix>3d</fix>
</trkpt>
<trkpt lat="-27.274439" lon="151.290064">
  <ele>343.2</ele>
  <time>2026-09-01T19:51:41Z</time>
  <course>10.79</course>
  <speed>0.0</speed>
  <fix>3d</fix>
</trkpt>
<trkpt lat="-27.274439" lon="151.290064">
  <ele>343.1</ele>
  <time>2026-09-01T19:51:41Z</time>
  <course>270.0</course>
  <speed>0.0</speed>
  <fix>3d</fix>
</trkpt>
<trkpt lat="-27.274439" lon="151.290064">
  <ele>343.2</ele>
  <time>2026-09-01T19:51:41Z</time>
  <course>10.79</course>
  <speed>0.0</speed>
  <fix>3d</fix>
</trkpt>
<trkpt lat="-27.274439" lon="151.290064">
  <ele>343.1</ele>
  <time>2026-09-01T19:51:41Z</time>
  <course>270.0</course>
  <speed>0.0</speed>
  <fix>3d</fix>
</trkpt>
<trkpt lat="-27.274439" lon="151.290064">
  <ele>343.13</ele>
  <time>2026-09-01T19:51:41Z</time>
  <course>10.79</course>
  <speed>0.0</speed>
  <fix>3d</fix>
</trkpt>
<trkpt lat="-27.274439" lon="151.290064">
  <ele>343.1</ele>
  <time>2026-09-01T19:51:41Z</time>
  <course>270.0</course>
  <speed>0.0</speed>
  <fix>3d</fix>
</trkpt>
<trkpt lat="-27.274439" lon="151.290064">
  <ele>343.1</ele>
  <time>2026-09-01T19:51:41Z</time>
  <course>10.79</course>
  <speed>0.0</speed>
  <fix>3d</fix>
</trkpt>
<trkpt lat="-27.274439" lon="151.290064">
  <ele>343.1</ele>
  <time>2026-09-01T19:51:41Z</time>
  <course>270.0</course>
  <speed>0.0</speed>
  <fix>3d</fix>
</trkpt>
<trkpt lat="-27.274439" lon="151.290064">
  <ele>343.12</ele>
  <time>2026-09-01T19:51:41Z</time>
  <course>10.79</course>
  <speed>0.0</speed>
  <fix>3d</fix>
</trkpt>
<trkpt lat="-27.274439" lon="151.290064">
  <ele>343.1</ele>
  <time>2026-09-01T19:51:41Z</time>
  <course>270.0</course>
  <speed>0.0</speed>
  <fix>3d</fix>
</trkpt>
<trkpt lat="-27.274439" lon="151.290064">
  <ele>342.94</ele>
  <time>2026-09-01T19:51:41Z</time>
  <course>10.79</course>
  <speed>0.0</speed>
  <fix>3d</fix>
</trkpt>
<trkpt lat="-27.274439" lon="151.290064">
  <ele>343.1</ele>
  <time>2026-09-01T19:51:41Z</time>
  <course>270.0</course>
  <speed>0.0</speed>
  <fix>3d</fix>
</trkpt>
<trkpt lat="-27.274439" lon="151.290064">
  <ele>343.25</ele>
  <time>2026-09-01T19:51:41Z</time>
  <course>10.79</course>
  <speed>0.0</speed>
  <fix>3d</fix>
</trkpt>
<trkpt lat="-27.274439" lon="151.290064">
  <ele>343.1</ele>
  <time>2026-09-01T19:51:41Z</time>
  <course>270.0</course>
  <speed>0.0</speed>
  <fix>3d</fix>
</trkpt>
<trkpt lat="-27.274439" lon="151.290064">
  <ele>342.93</ele>
  <time>2026-09-01T19:51:41Z</time>
  <course>10.79</course>
  <speed>0.0</speed>
  <fix>3d</fix>
</trkpt>
<trkpt lat="-27.274439" lon="151.290064">
  <ele>343.1</ele>
  <time>2026-09-01T19:51:41Z</time>
  <course>270.0</course>
  <speed>0.0</speed>
  <fix>3d</fix>
</trkpt>
<trkpt lat="-27.274439" lon="151.290064">
  <ele>343.08</ele>
  <time>2026-09-01T19:51:41Z</time>
  <course>10.79</course>
  <speed>0.0</speed>
  <fix>3d</fix>
</trkpt>
<trkpt lat="-27.274439" lon="151.290064">
  <ele>343.1</ele>
  <time>2026-09-01T19:51:41Z</time>
  <course>270.0</course>
  <speed>0.0</speed>
  <fix>3d</fix>
</trkpt>
<trkpt lat="-27.274439" lon="151.290064">
  <ele>343.23</ele>
  <time>2026-09-01T19:51:41Z</time>
  <course>10.8</course>
  <speed>0.0</speed>
  <fix>3d</fix>
</trkpt>
<trkpt lat="-27.274439" lon="151.290064">
  <ele>343.1</ele>
  <time>2026-09-01T19:51:41Z</time>
  <course>270.0</course>
  <speed>0.0</speed>
  <fix>3d</fix>
</trkpt>
<trkpt lat="-27.274439" lon="151.290064">
  <ele>343.01</ele>
  <time>2026-09-01T19:51:41Z</time>
  <course>10.8</course>
  <speed>0.0</speed>
  <fix>3d</fix>
</trkpt>
<trkpt lat="-27.274439" lon="151.290064">
  <ele>343.1</ele>
  <time>2026-09-01T19:51:41Z</time>
  <course>270.0</course>
  <speed>0.0</speed>
  <fix>3d</fix>
</trkpt>
<trkpt lat="-27.274439" lon="151.290064">
  <ele>343.1</ele>
  <time>2026-09-01T19:51:41Z</time>
  <course>10.8</course>
  <speed>0.0</speed>
  <fix>3d</fix>
</trkpt>
<trkpt lat="-27.274439" lon="151.290064">
  <ele>343.1</ele>
  <time>2026-09-01T19:51:41Z</time>
  <course>270.0</course>
  <speed>0.0</speed>
  <fix>3d</fix>
</trkpt>
<trkpt lat="-27.274439" lon="151.290064">
  <ele>342.99</ele>
  <time>2026-09-01T19:51:41Z</time>
  <course>10.8</course>
  <speed>0.0</speed>
  <fix>3d</fix>
</trkpt>
<trkpt lat="-27.274439" lon="151.290064">
  <ele>343.1</ele>
  <time>2026-09-01T19:51:41Z</time>
  <course>270.0</course>
  <speed>0.0</speed>
  <fix>3d</fix>
</trkpt>
<trkpt lat="-27.274439" lon="151.290064">
  <ele>342.87</ele>
  <time>2026-09-01T19:51:41Z</time>
  <course>10.8</course>
  <speed>0.0</speed>
  <fix>3d</fix>
</trkpt>
<trkpt lat="-27.274439" lon="151.290064">
  <ele>343.1</ele>
  <time>2026-09-01T19:51:41Z</time>
  <course>270.0</course>
  <speed>0.0</speed>
  <fix>3d</fix>
</trkpt>
<trkpt lat="-27.274439" lon="151.290064">
  <ele>343.1</ele>
  <time>2026-09-01T19:51:41Z</time>
  <course>10.8</course>
  <speed>0.0</speed>
  <fix>3d</fix>
</trkpt>
<trkpt lat="-27.274439" lon="151.290064">
  <ele>343.1</ele>
  <time>2026-09-01T19:51:41Z</time>
  <course>270.0</course>
  <speed>0.0</speed>
  <fix>3d</fix>
</trkpt>
<trkpt lat="-27.274439" lon="151.290064">
  <ele>342.99</ele>
  <time>2026-09-01T19:51:41Z</time>
  <course>10.8</course>
  <speed>0.0</speed>
  <fix>3d</fix>
</trkpt>
<trkpt lat="-27.274439" lon="151.290064">
  <ele>343.1</ele>
  <time>2026-09-01T19:51:41Z</time>
  <course>270.0</course>
  <speed>0.0</speed>
  <fix>3d</fix>
</trkpt>
<trkpt lat="-27.274439" lon="151.290064">
  <ele>342.91</ele>
  <time>2026-09-01T19:51:41Z</time>
  <course>10.8</course>
  <speed>0.0</speed>
  <fix>3d</fix>
</trkpt>
<trkpt lat="-27.274439" lon="151.290064">
  <ele>343.1</ele>
  <time>2026-09-01T19:51:41Z</time>
  <course>270.0</course>
  <speed>0.0</speed>
  <fix>3d</fix>
</trkpt>
<trkpt lat="-27.274439" lon="151.290064">
  <ele>342.9</ele>
  <time>2026-09-01T19:51:41Z</time>
  <course>10.8</course>
  <speed>0.0</speed>
  <fix>3d</fix>
</trkpt>
<trkpt lat="-27.274439" lon="151.290064">
  <ele>343.1</ele>
  <time>2026-09-01T19:51:41Z</time>
  <course>270.0</course>
  <speed>0.0</speed>
  <fix>3d</fix>
</trkpt>
<trkpt lat="-27.274439" lon="151.290064">
  <ele>342.87</ele>
  <time>2026-09-01T19:51:41Z</time>
  <course>10.8</course>
  <speed>0.0</speed>
  <fix>3d</fix>
</trkpt>
<trkpt lat="-27.274439" lon="151.290064">
  <ele>343.1</ele>
  <time>2026-09-01T19:51:41Z</time>
  <course>270.0</course>
  <speed>0.0</speed>
  <fix>3d</fix>
</trkpt>
<trkpt lat="-27.274439" lon="151.290064">
  <ele>343.12</ele>
  <time>2026-09-01T19:51:41Z</time>
  <course>10.8</course>
  <speed>0.0</speed>
  <fix>3d</fix>
</trkpt>
<trkpt lat="-27.274439" lon="151.290064">
  <ele>343.1</ele>
  <time>2026-09-01T19:51:41Z</time>
  <course>270.0</course>
  <speed>0.0</speed>
  <fix>3d</fix>
</trkpt>
<trkpt lat="-27.274439" lon="151.290064">
  <ele>342.99</ele>
  <time>2026-09-01T19:51:41Z</time>
  <course>10.8</course>
  <speed>0.0</speed>
  <fix>3d</fix>
</trkpt>
<trkpt lat="-27.274439" lon="151.290064">
  <ele>343.1</ele>
  <time>2026-09-01T19:51:41Z</time>
  <course>270.0</course>
  <speed>0.0</speed>
  <fix>3d</fix>
</trkpt>
<trkpt lat="-27.274439" lon="151.290064">
  <ele>343.13</ele>
  <time>2026-09-01T19:51:41Z</time>
  <course>10.8</course>
  <speed>0.0</speed>
  <fix>3d</fix>
</trkpt>
<trkpt lat="-27.274439" lon="151.290064">
  <ele>343.1</ele>
  <time>2026-09-01T19:51:41Z</time>
  <course>270.0</course>
  <speed>0.0</speed>
  <fix>3d</fix>
</trkpt>
<trkpt lat="-27.274439" lon="151.290064">
  <ele>343.0</ele>
  <time>2026-09-01T19:51:41Z</time>
  <course>10.8</course>
  <speed>0.0</speed>
  <fix>3d</fix>
</trkpt>
<trkpt lat="-27.274439" lon="151.290064">
  <ele>343.1</ele>
  <time>2026-09-01T19:51:41Z</time>
  <course>270.0</course>
  <speed>0.0</speed>
  <fix>3d</fix>
</trkpt>
<trkpt lat="-27.274439" lon="151.290064">
  <ele>343.17</ele>
  <time>2026-09-01T19:51:41Z</time>
  <course>10.8</course>
  <speed>0.0</speed>
  <fix>3d</fix>
</trkpt>
<trkpt lat="-27.274439" lon="151.290064">
  <ele>343.1</ele>
  <time>2026-09-01T19:51:41Z</time>
  <course>270.0</course>
  <speed>0.0</speed>
  <fix>3d</fix>
</trkpt>
<trkpt lat="-27.274439" lon="151.290064">
  <ele>343.0</ele>
  <time>2026-09-01T19:51:41Z</time>
  <course>10.8</course>
  <speed>0.0</speed>
  <fix>3d</fix>
</trkpt>
<trkpt lat="-27.274439" lon="151.290064">
  <ele>343.1</ele>
  <time>2026-09-01T19:51:41Z</time>
  <course>270.0</course>
  <speed>0.0</speed>
  <fix>3d</fix>
</trkpt>
<trkpt lat="-27.274439" lon="151.290064">
  <ele>342.99</ele>
  <time>2026-09-01T19:51:41Z</time>
  <course>10.8</course>
  <speed>0.0</speed>
  <fix>3d</fix>
</trkpt>
<trkpt lat="-27.274439" lon="151.290064">
  <ele>343.1</ele>
  <time>2026-09-01T19:51:41Z</time>
  <course>270.0</course>
  <speed>0.0</speed>
  <fix>3d</fix>
</trkpt>
<trkpt lat="-27.274439" lon="151.290064">
  <ele>343.17</ele>
  <time>2026-09-01T19:51:41Z</time>
  <course>10.8</course>
  <speed>0.0</speed>
  <fix>3d</fix>
</trkpt>
<trkpt lat="-27.274439" lon="151.290064">
  <ele>343.1</ele>
  <time>2026-09-01T19:51:41Z</time>
  <course>270.0</course>
  <speed>0.0</speed>
  <fix>3d</fix>
</trkpt>
<trkpt lat="-27.274439" lon="151.290064">
  <ele>343.16</ele>
  <time>2026-09-01T19:51:41Z</time>
  <course>10.8</course>
  <speed>0.0</speed>
  <fix>3d</fix>
</trkpt>
<trkpt lat="-27.274439" lon="151.290064">
  <ele>343.1</ele>
  <time>2026-09-01T19:51:41Z</time>
  <course>270.0</course>
  <speed>0.0</speed>
  <fix>3d</fix>
</trkpt>
<trkpt lat="-27.274439" lon="151.290064">
  <ele>342.87</ele>
  <time>2026-09-01T19:51:41Z</time>
  <course>10.8</course>
  <speed>0.0</speed>
  <fix>3d</fix>
</trkpt>
<trkpt lat="-27.274439" lon="151.290064">
  <ele>343.1</ele>
  <time>2026-09-01T19:51:41Z</time>
  <course>270.0</course>
  <speed>0.0</speed>
  <fix>3d</fix>
</trkpt>
<trkpt lat="-27.274439" lon="151.290064">
  <ele>343.19</ele>
  <time>2026-09-01T19:51:41Z</time>
  <course>10.8</course>
  <speed>0.0</speed>
  <fix>3d</fix>
</trkpt>
<trkpt lat="-27.274439" lon="151.290064">
  <ele>343.1</ele>
  <time>2026-09-01T19:51:41Z</time>
  <course>270.0</course>
  <speed>0.0</speed>
  <fix>3d</fix>
</trkpt>
<trkpt lat="-27.274439" lon="151.290064">
  <ele>343.16</ele>
  <time>2026-09-01T19:51:41Z</time>
  <course>10.8</course>
  <speed>0.0</speed>
  <fix>3d</fix>
</trkpt>
<trkpt lat="-27.274439" lon="151.290064">
  <ele>343.1</ele>
  <time>2026-09-01T19:51:41Z</time>
  <course>270.0</course>
  <speed>0.0</speed>
  <fix>3d</fix>
</trkpt>
<trkpt lat="-27.274439" lon="151.290064">
  <ele>343.21</ele>
  <time>2026-09-01T19:51:41Z</time>
  <course>10.8</course>
  <speed>0.0</speed>
  <fix>3d</fix>
</trkpt>
<trkpt lat="-27.274439" lon="151.290064">
  <ele>343.1</ele>
  <time>2026-09-01T19:51:41Z</time>
  <course>270.0</course>
  <speed>0.0</speed>
  <fix>3d</fix>
</trkpt>
<trkpt lat="-27.274439" lon="151.290064">
  <ele>343.22</ele>
  <time>2026-09-01T19:51:41Z</time>
  <course>10.8</course>
  <speed>0.0</speed>
  <fix>3d</fix>
</trkpt>
<trkpt lat="-27.274439" lon="151.290064">
  <ele>343.1</ele>
  <time>2026-09-01T19:51:41Z</time>
  <course>270.0</course>
  <speed>0.0</speed>
  <fix>3d</fix>
</trkpt>
<trkpt lat="-27.274439" lon="151.290064">
  <ele>343.24</ele>
  <time>2026-09-01T19:51:41Z</time>
  <course>10.8</course>
  <speed>0.0</speed>
  <fix>3d</fix>
</trkpt>
<trkpt lat="-27.274439" lon="151.290064">
  <ele>343.1</ele>
  <time>2026-09-01T19:51:41Z</time>
  <course>270.0</course>
  <speed>0.0</speed>
  <fix>3d</fix>
</trkpt>
<trkpt lat="-27.274439" lon="151.290064">
  <ele>343.0</ele>
  <time>2026-09-01T19:51:41Z</time>
  <course>10.8</course>
  <speed>0.0</speed>
  <fix>3d</fix>
</trkpt>
<trkpt lat="-27.274439" lon="151.290064">
  <ele>343.1</ele>
  <time>2026-09-01T19:51:41Z</time>
  <course>270.0</course>
  <speed>0.0</speed>
  <fix>3d</fix>
</trkpt>
<trkpt lat="-27.274439" lon="151.290064">
  <ele>343.1</ele>
  <time>2026-09-01T19:51:41Z</time>
  <course>10.8</course>
  <speed>0.0</speed>
  <fix>3d</fix>
</trkpt>
<trkpt lat="-27.274439" lon="151.290064">
  <ele>343.1</ele>
  <time>2026-09-01T19:51:41Z</time>
  <course>270.0</course>
  <speed>0.0</speed>
  <fix>3d</fix>
</trkpt>
<trkpt lat="-27.274439" lon="151.290064">
  <ele>343.05</ele>
  <time>2026-09-01T19:51:41Z</time>
  <course>10.8</course>
  <speed>0.0</speed>
  <fix>3d</fix>
</trkpt>
<trkpt lat="-27.274439" lon="151.290064">
  <ele>343.1</ele>
  <time>2026-09-01T19:51:41Z</time>
  <course>270.0</course>
  <speed>0.0</speed>
  <fix>3d</fix>
</trkpt>
<trkpt lat="-27.274439" lon="151.290064">
  <ele>342.87</ele>
  <time>2026-09-01T19:51:41Z</time>
  <course>10.8</course>
  <speed>0.0</speed>
  <fix>3d</fix>
</trkpt>
<trkpt lat="-27.274439" lon="151.290064">
  <ele>343.1</ele>
  <time>2026-09-01T19:51:41Z</time>
  <course>270.0</course>
  <speed>0.0</speed>
  <fix>3d</fix>
</trkpt>
<trkpt lat="-27.274439" lon="151.290064">
  <ele>342.92</ele>
  <time>2026-09-01T19:51:41Z</time>
  <course>10.8</course>
  <speed>0.0</speed>
  <fix>3d</fix>
</trkpt>
<trkpt lat="-27.274439" lon="151.290064">
  <ele>343.1</ele>
  <time>2026-09-01T19:51:41Z</time>
  <course>270.0</course>
  <speed>0.0</speed>
  <fix>3d</fix>
</trkpt>
<trkpt lat="-27.274439" lon="151.290064">
  <ele>342.96</ele>
  <time>2026-09-01T19:51:41Z</time>
  <course>10.8</course>
  <speed>0.0</speed>
  <fix>3d</fix>
</trkpt>
<trkpt lat="-27.274439" lon="151.290064">
  <ele>343.1</ele>
  <time>2026-09-01T19:51:41Z</time>
  <course>270.0</course>
  <speed>0.0</speed>
  <fix>3d</fix>
</trkpt>
<trkpt lat="-27.274439" lon="151.290064">
  <ele>343.15</ele>
  <time>2026-09-01T19:51:41Z</time>
  <course>10.8</course>
  <speed>0.0</speed>
  <fix>3d</fix>
</trkpt>
<trkpt lat="-27.274439" lon="151.290064">
  <ele>343.1</ele>
  <time>2026-09-01T19:51:41Z</time>
  <course>270.0</course>
  <speed>0.0</speed>
  <fix>3d</fix>
</trkpt>
<trkpt lat="-27.274439" lon="151.290064">
  <ele>343.16</ele>
  <time>2026-09-01T19:51:41Z</time>
  <course>10.8</course>
  <speed>0.0</speed>
  <fix>3d</fix>
</trkpt>
<trkpt lat="-27.274439" lon="151.290064">
  <ele>343.1</ele>
  <time>2026-09-01T19:51:41Z</time>
  <course>270.0</course>
  <speed>0.0</speed>
  <fix>3d</fix>
</trkpt>
<trkpt lat="-27.274439" lon="151.290064">
  <ele>343.2</ele>
  <time>2026-09-01T19:51:41Z</time>
  <course>10.81</course>
  <speed>0.0</speed>
  <fix>3d</fix>
</trkpt>
<trkpt lat="-27.274439" lon="151.290064">
  <ele>343.1</ele>
  <time>2026-09-01T19:51:41Z</time>
  <course>270.0</course>
  <speed>0.0</speed>
  <fix>3d</fix>
</trkpt>
<trkpt lat="-27.274439" lon="151.290064">
  <ele>343.13</ele>
  <time>2026-09-01T19:51:41Z</time>
  <course>10.82</course>
  <speed>0.0</speed>
  <fix>3d</fix>
</trkpt>
<trkpt lat="-27.274439" lon="151.290064">
  <ele>343.1</ele>
  <time>2026-09-01T19:51:41Z</time>
  <course>270.0</course>
  <speed>0.0</speed>
  <fix>3d</fix>
</trkpt>
<trkpt lat="-27.274439" lon="151.290064">
  <ele>343.09</ele>
  <time>2026-09-01T19:51:41Z</time>
  <course>10.71</course>
  <speed>0.0</speed>
  <fix>3d</fix>
</trkpt>
<trkpt lat="-27.274439" lon="151.290064">
  <ele>343.1</ele>
  <time>2026-09-01T19:51:41Z</time>
  <course>270.0</course>
  <speed>0.0</speed>
  <fix>3d</fix>
</trkpt>
<trkpt lat="-27.274439" lon="151.290064">
  <ele>343.09</ele>
  <time>2026-09-01T19:51:41Z</time>
  <course>10.71</course>
  <speed>0.0</speed>
  <fix>3d</fix>
</trkpt>
<trkpt lat="-27.274439" lon="151.290064">
  <ele>343.1</ele>
  <time>2026-09-01T19:51:41Z</time>
  <course>270.0</course>
  <speed>0.0</speed>
  <fix>3d</fix>
</trkpt>
<trkpt lat="-27.274439" lon="151.290064">
  <ele>343.1</ele>
  <time>2026-09-01T19:51:41Z</time>
  <course>10.71</course>
  <speed>0.0</speed>
  <fix>3d</fix>
</trkpt>
<trkpt lat="-27.274439" lon="151.290064">
  <ele>343.1</ele>
  <time>2026-09-01T19:51:41Z</time>
  <course>270.0</course>
  <speed>0.0</speed>
  <fix>3d</fix>
</trkpt>
<trkpt lat="-27.274439" lon="151.290064">
  <ele>343.1</ele>
  <time>2026-09-01T19:51:41Z</time>
  <course>10.71</course>
  <speed>0.0</speed>
  <fix>3d</fix>
</trkpt>
<trkpt lat="-27.274439" lon="151.290064">
  <ele>343.1</ele>
  <time>2026-09-01T19:51:41Z</time>
  <course>270.0</course>
  <speed>0.0</speed>
  <fix>3d</fix>
</trkpt>
<trkpt lat="-27.274439" lon="151.290064">
  <ele>343.1</ele>
  <time>2026-09-01T19:51:41Z</time>
  <course>10.71</course>
  <speed>0.0</speed>
  <fix>3d</fix>
</trkpt>
<trkpt lat="-27.274439" lon="151.290064">
  <ele>343.1</ele>
  <time>2026-09-01T19:51:41Z</time>
  <course>270.0</course>
  <speed>0.0</speed>
  <fix>3d</fix>
</trkpt>
<trkpt lat="-27.274439" lon="151.290064">
  <ele>343.1</ele>
  <time>2026-09-01T19:51:41Z</time>
  <course>10.71</course>
  <speed>0.0</speed>
  <fix>3d</fix>
</trkpt>
<trkpt lat="-27.274439" lon="151.290064">
  <ele>343.1</ele>
  <time>2026-09-01T19:51:41Z</time>
  <course>270.0</course>
  <speed>0.0</speed>
  <fix>3d</fix>
</trkpt>
<trkpt lat="-27.274439" lon="151.290064">
  <ele>343.1</ele>
  <time>2026-09-01T19:51:41Z</time>
  <course>10.71</course>
  <speed>0.0</speed>
  <fix>3d</fix>
</trkpt>
<trkpt lat="-27.274439" lon="151.290064">
  <ele>343.1</ele>
  <time>2026-09-01T19:51:41Z</time>
  <course>270.0</course>
  <speed>0.0</speed>
  <fix>3d</fix>
</trkpt>
<trkpt lat="-27.274439" lon="151.290064">
  <ele>343.11</ele>
  <time>2026-09-01T19:51:41Z</time>
  <course>10.71</course>
  <speed>0.0</speed>
  <fix>3d</fix>
</trkpt>
<trkpt lat="-27.274439" lon="151.290064">
  <ele>343.1</ele>
  <time>2026-09-01T19:51:41Z</time>
  <course>270.0</course>
  <speed>0.0</speed>
  <fix>3d</fix>
</trkpt>
<trkpt lat="-27.274439" lon="151.290064">
  <ele>343.11</ele>
  <time>2026-09-01T19:51:41Z</time>
  <course>10.71</course>
  <speed>0.0</speed>
  <fix>3d</fix>
</trkpt>
<trkpt lat="-27.274439" lon="151.290064">
  <ele>343.1</ele>
  <time>2026-09-01T19:51:41Z</time>
  <course>270.0</course>
  <speed>0.0</speed>
  <fix>3d</fix>
</trkpt>
<trkpt lat="-27.274439" lon="151.290064">
  <ele>343.11</ele>
  <time>2026-09-01T19:51:41Z</time>
  <course>10.71</course>
  <speed>0.0</speed>
  <fix>3d</fix>
</trkpt>
<trkpt lat="-27.274439" lon="151.290064">
  <ele>343.1</ele>
  <time>2026-09-01T19:51:42Z</time>
  <course>270.0</course>
  <speed>0.0</speed>
  <fix>3d</fix>
</trkpt>
<trkpt lat="-27.274439" lon="151.290064">
  <ele>343.12</ele>
  <time>2026-09-01T19:51:42Z</time>
  <course>10.71</course>
  <speed>0.0</speed>
  <fix>3d</fix>
</trkpt>
<trkpt lat="-27.274439" lon="151.290064">
  <ele>343.1</ele>
  <time>2026-09-01T19:51:42Z</time>
  <course>270.0</course>
  <speed>0.0</speed>
  <fix>3d</fix>
</trkpt>
<trkpt lat="-27.274439" lon="151.290064">
  <ele>343.12</ele>
  <time>2026-09-01T19:51:42Z</time>
  <course>10.71</course>
  <speed>0.0</speed>
  <fix>3d</fix>
</trkpt>
<trkpt lat="-27.274439" lon="151.290064">
  <ele>343.1</ele>
  <time>2026-09-01T19:51:42Z</time>
  <course>270.0</course>
  <speed>0.0</speed>
  <fix>3d</fix>
</trkpt>
<trkpt lat="-27.274439" lon="151.290064">
  <ele>343.1</ele>
  <time>2026-09-01T19:51:42Z</time>
  <course>10.71</course>
  <speed>0.0</speed>
  <fix>3d</fix>
</trkpt>
<trkpt lat="-27.274439" lon="151.290064">
  <ele>343.1</ele>
  <time>2026-09-01T19:51:42Z</time>
  <course>270.0</course>
  <speed>0.0</speed>
  <fix>3d</fix>
</trkpt>
<trkpt lat="-27.274439" lon="151.290064">
  <ele>343.1</ele>
  <time>2026-09-01T19:51:42Z</time>
  <course>10.71</course>
  <speed>0.0</speed>
  <fix>3d</fix>
</trkpt>
<trkpt lat="-27.274439" lon="151.290064">
  <ele>343.1</ele>
  <time>2026-09-01T19:51:42Z</time>
  <course>270.0</course>
  <speed>0.0</speed>
  <fix>3d</fix>
</trkpt>
<trkpt lat="-27.274439" lon="151.290064">
  <ele>343.1</ele>
  <time>2026-09-01T19:51:42Z</time>
  <course>10.71</course>
  <speed>0.0</speed>
  <fix>3d</fix>
</trkpt>
<trkpt lat="-27.274439" lon="151.290064">
  <ele>343.1</ele>
  <time>2026-09-01T19:51:42Z</time>
  <course>270.0</course>
  <speed>0.0</speed>
  <fix>3d</fix>
</trkpt>
<trkpt lat="-27.274439" lon="151.290064">
  <ele>343.09</ele>
  <time>2026-09-01T19:51:42Z</time>
  <course>10.71</course>
  <speed>0.0</speed>
  <fix>3d</fix>
</trkpt>
<trkpt lat="-27.274439" lon="151.290064">
  <ele>343.1</ele>
  <time>2026-09-01T19:51:42Z</time>
  <course>270.0</course>
  <speed>0.0</speed>
  <fix>3d</fix>
</trkpt>
<trkpt lat="-27.274439" lon="151.290064">
  <ele>343.09</ele>
  <time>2026-09-01T19:51:42Z</time>
  <course>10.71</course>
  <speed>0.0</speed>
  <fix>3d</fix>
</trkpt>
<trkpt lat="-27.274439" lon="151.290064">
  <ele>343.1</ele>
  <time>2026-09-01T19:51:42Z</time>
  <course>270.0</course>
  <speed>0.0</speed>
  <fix>3d</fix>
</trkpt>
<trkpt lat="-27.274439" lon="151.290064">
  <ele>343.09</ele>
  <time>2026-09-01T19:51:42Z</time>
  <course>10.71</course>
  <speed>0.0</speed>
  <fix>3d</fix>
</trkpt>
<trkpt lat="-27.274439" lon="151.290064">
  <ele>343.1</ele>
  <time>2026-09-01T19:51:42Z</time>
  <course>270.0</course>
  <speed>0.0</speed>
  <fix>3d</fix>
</trkpt>
<trkpt lat="-27.274439" lon="151.290064">
  <ele>343.1</ele>
  <time>2026-09-01T19:51:42Z</time>
  <course>10.71</course>
  <speed>0.0</speed>
  <fix>3d</fix>
</trkpt>
<trkpt lat="-27.274439" lon="151.290064">
  <ele>343.1</ele>
  <time>2026-09-01T19:51:42Z</time>
  <course>270.0</course>
  <speed>0.0</speed>
  <fix>3d</fix>
</trkpt>
<trkpt lat="-27.274439" lon="151.290064">
  <ele>343.1</ele>
  <time>2026-09-01T19:51:42Z</time>
  <course>10.71</course>
  <speed>0.0</speed>
  <fix>3d</fix>
</trkpt>
<trkpt lat="-27.274439" lon="151.290064">
  <ele>343.1</ele>
  <time>2026-09-01T19:51:42Z</time>
  <course>270.0</course>
  <speed>0.0</speed>
  <fix>3d</fix>
</trkpt>
<trkpt lat="-27.274439" lon="151.290064">
  <ele>343.09</ele>
  <time>2026-09-01T19:51:42Z</time>
  <course>10.71</course>
  <speed>0.0</speed>
  <fix>3d</fix>
</trkpt>
<trkpt lat="-27.274439" lon="151.290064">
  <ele>343.1</ele>
  <time>2026-09-01T19:51:42Z</time>
  <course>270.0</course>
  <speed>0.0</speed>
  <fix>3d</fix>
</trkpt>
<trkpt lat="-27.274439" lon="151.290064">
  <ele>343.09</ele>
  <time>2026-09-01T19:51:42Z</time>
  <course>10.71</course>
  <speed>0.0</speed>
  <fix>3d</fix>
</trkpt>
<trkpt lat="-27.274439" lon="151.290064">
  <ele>343.1</ele>
  <time>2026-09-01T19:51:42Z</time>
  <course>270.0</course>
  <speed>0.0</speed>
  <fix>3d</fix>
</trkpt>
<trkpt lat="-27.274439" lon="151.290064">
  <ele>343.09</ele>
  <time>2026-09-01T19:51:42Z</time>
  <course>10.71</course>
  <speed>0.0</speed>
  <fix>3d</fix>
</trkpt>
<trkpt lat="-27.274439" lon="151.290064">
  <ele>343.1</ele>
  <time>2026-09-01T19:51:42Z</time>
  <course>270.0</course>
  <speed>0.0</speed>
  <fix>3d</fix>
</trkpt>
<trkpt lat="-27.274439" lon="151.290064">
  <ele>343.09</ele>
  <time>2026-09-01T19:51:42Z</time>
  <course>10.71</course>
  <speed>0.0</speed>
  <fix>3d</fix>
</trkpt>
<trkpt lat="-27.274439" lon="151.290064">
  <ele>343.1</ele>
  <time>2026-09-01T19:51:42Z</time>
  <course>270.0</course>
  <speed>0.0</speed>
  <fix>3d</fix>
</trkpt>
<trkpt lat="-27.274439" lon="151.290064">
  <ele>343.09</ele>
  <time>2026-09-01T19:51:42Z</time>
  <course>10.71</course>
  <speed>0.0</speed>
  <fix>3d</fix>
</trkpt>
<trkpt lat="-27.274439" lon="151.290064">
  <ele>343.1</ele>
  <time>2026-09-01T19:51:42Z</time>
  <course>270.0</course>
  <speed>0.0</speed>
  <fix>3d</fix>
</trkpt>
<trkpt lat="-27.274439" lon="151.290064">
  <ele>343.09</ele>
  <time>2026-09-01T19:51:42Z</time>
  <course>10.71</course>
  <speed>0.0</speed>
  <fix>3d</fix>
</trkpt>
<trkpt lat="-27.274439" lon="151.290064">
  <ele>343.1</ele>
  <time>2026-09-01T19:51:42Z</time>
  <course>270.0</course>
  <speed>0.0</speed>
  <fix>3d</fix>
</trkpt>
<trkpt lat="-27.274439" lon="151.290064">
  <ele>343.09</ele>
  <time>2026-09-01T19:51:42Z</time>
  <course>10.71</course>
  <speed>0.0</speed>
  <fix>3d</fix>
</trkpt>
<trkpt lat="-27.274439" lon="151.290064">
  <ele>343.1</ele>
  <time>2026-09-01T19:51:42Z</time>
  <course>270.0</course>
  <speed>0.0</speed>
  <fix>3d</fix>
</trkpt>
<trkpt lat="-27.274439" lon="151.290064">
  <ele>343.09</ele>
  <time>2026-09-01T19:51:42Z</time>
  <course>10.71</course>
  <speed>0.0</speed>
  <fix>3d</fix>
</trkpt>
<trkpt lat="-27.274439" lon="151.290064">
  <ele>343.1</ele>
  <time>2026-09-01T19:51:42Z</time>
  <course>270.0</course>
  <speed>0.0</speed>
  <fix>3d</fix>
</trkpt>
<trkpt lat="-27.274439" lon="151.290064">
  <ele>343.1</ele>
  <time>2026-09-01T19:51:42Z</time>
  <course>10.71</course>
  <speed>0.0</speed>
  <fix>3d</fix>
</trkpt>
<trkpt lat="-27.274439" lon="151.290064">
  <ele>343.1</ele>
  <time>2026-09-01T19:51:42Z</time>
  <course>270.0</course>
  <speed>0.0</speed>
  <fix>3d</fix>
</trkpt>
<trkpt lat="-27.274439" lon="151.290064">
  <ele>343.1</ele>
  <time>2026-09-01T19:51:42Z</time>
  <course>10.71</course>
  <speed>0.0</speed>
  <fix>3d</fix>
</trkpt>
<trkpt lat="-27.274439" lon="151.290064">
  <ele>343.1</ele>
  <time>2026-09-01T19:51:42Z</time>
  <course>270.0</course>
  <speed>0.0</speed>
  <fix>3d</fix>
</trkpt>
<trkpt lat="-27.274439" lon="151.290064">
  <ele>343.1</ele>
  <time>2026-09-01T19:51:42Z</time>
  <course>10.71</course>
  <speed>0.0</speed>
  <fix>3d</fix>
</trkpt>
<trkpt lat="-27.274439" lon="151.290064">
  <ele>343.1</ele>
  <time>2026-09-01T19:51:42Z</time>
  <course>270.0</course>
  <speed>0.0</speed>
  <fix>3d</fix>
</trkpt>
<trkpt lat="-27.274439" lon="151.290064">
  <ele>343.1</ele>
  <time>2026-09-01T19:51:42Z</time>
  <course>10.71</course>
  <speed>0.0</speed>
  <fix>3d</fix>
</trkpt>
<trkpt lat="-27.274439" lon="151.290064">
  <ele>343.1</ele>
  <time>2026-09-01T19:51:42Z</time>
  <course>270.0</course>
  <speed>0.0</speed>
  <fix>3d</fix>
</trkpt>
<trkpt lat="-27.274439" lon="151.290064">
  <ele>343.11</ele>
  <time>2026-09-01T19:51:42Z</time>
  <course>10.71</course>
  <speed>0.0</speed>
  <fix>3d</fix>
</trkpt>
<trkpt lat="-27.274439" lon="151.290064">
  <ele>343.1</ele>
  <time>2026-09-01T19:51:42Z</time>
  <course>270.0</course>
  <speed>0.0</speed>
  <fix>3d</fix>
</trkpt>
<trkpt lat="-27.274439" lon="151.290064">
  <ele>343.11</ele>
  <time>2026-09-01T19:51:42Z</time>
  <course>10.71</course>
  <speed>0.0</speed>
  <fix>3d</fix>
</trkpt>
<trkpt lat="-27.274439" lon="151.290064">
  <ele>343.1</ele>
  <time>2026-09-01T19:51:42Z</time>
  <course>270.0</course>
  <speed>0.0</speed>
  <fix>3d</fix>
</trkpt>
<trkpt lat="-27.274439" lon="151.290064">
  <ele>343.11</ele>
  <time>2026-09-01T19:51:42Z</time>
  <course>10.71</course>
  <speed>0.0</speed>
  <fix>3d</fix>
</trkpt>
<trkpt lat="-27.274439" lon="151.290064">
  <ele>343.1</ele>
  <time>2026-09-01T19:51:42Z</time>
  <course>270.0</course>
  <speed>0.0</speed>
  <fix>3d</fix>
</trkpt>
<trkpt lat="-27.274439" lon="151.290064">
  <ele>343.11</ele>
  <time>2026-09-01T19:51:42Z</time>
  <course>10.71</course>
  <speed>0.0</speed>
  <fix>3d</fix>
</trkpt>
<trkpt lat="-27.274439" lon="151.290064">
  <ele>343.1</ele>
  <time>2026-09-01T19:51:42Z</time>
  <course>270.0</course>
  <speed>0.0</speed>
  <fix>3d</fix>
</trkpt>
<trkpt lat="-27.274439" lon="151.290064">
  <ele>343.12</ele>
  <time>2026-09-01T19:51:42Z</time>
  <course>10.71</course>
  <speed>0.0</speed>
  <fix>3d</fix>
</trkpt>
<trkpt lat="-27.274439" lon="151.290064">
  <ele>343.1</ele>
  <time>2026-09-01T19:51:42Z</time>
  <course>270.0</course>
  <speed>0.0</speed>
  <fix>3d</fix>
</trkpt>
<trkpt lat="-27.274439" lon="151.290064">
  <ele>343.12</ele>
  <time>2026-09-01T19:51:42Z</time>
  <course>10.71</course>
  <speed>0.0</speed>
  <fix>3d</fix>
</trkpt>
<trkpt lat="-27.274439" lon="151.290064">
  <ele>343.1</ele>
  <time>2026-09-01T19:51:42Z</time>
  <course>270.0</course>
  <speed>0.0</speed>
  <fix>3d</fix>
</trkpt>
<trkpt lat="-27.274439" lon="151.290064">
  <ele>343.12</ele>
  <time>2026-09-01T19:51:42Z</time>
  <course>10.71</course>
  <speed>0.0</speed>
  <fix>3d</fix>
</trkpt>
<trkpt lat="-27.274439" lon="151.290064">
  <ele>343.1</ele>
  <time>2026-09-01T19:51:42Z</time>
  <course>270.0</course>
  <speed>0.0</speed>
  <fix>3d</fix>
</trkpt>
<trkpt lat="-27.274439" lon="151.290064">
  <ele>343.12</ele>
  <time>2026-09-01T19:51:42Z</time>
  <course>10.71</course>
  <speed>0.0</speed>
  <fix>3d</fix>
</trkpt>
<trkpt lat="-27.274439" lon="151.290064">
  <ele>343.1</ele>
  <time>2026-09-01T19:51:42Z</time>
  <course>270.0</course>
  <speed>0.0</speed>
  <fix>3d</fix>
</trkpt>
<trkpt lat="-27.274439" lon="151.290064">
  <ele>343.12</ele>
  <time>2026-09-01T19:51:42Z</time>
  <course>10.71</course>
  <speed>0.0</speed>
  <fix>3d</fix>
</trkpt>
<trkpt lat="-27.274439" lon="151.290064">
  <ele>343.1</ele>
  <time>2026-09-01T19:51:42Z</time>
  <course>270.0</course>
  <speed>0.0</speed>
  <fix>3d</fix>
</trkpt>
<trkpt lat="-27.274439" lon="151.290064">
  <ele>343.13</ele>
  <time>2026-09-01T19:51:42Z</time>
  <course>10.71</course>
  <speed>0.0</speed>
  <fix>3d</fix>
</trkpt>
<trkpt lat="-27.274439" lon="151.290064">
  <ele>343.1</ele>
  <time>2026-09-01T19:51:42Z</time>
  <course>270.0</course>
  <speed>0.0</speed>
  <fix>3d</fix>
</trkpt>
<trkpt lat="-27.274439" lon="151.290064">
  <ele>343.13</ele>
  <time>2026-09-01T19:51:42Z</time>
  <course>10.71</course>
  <speed>0.0</speed>
  <fix>3d</fix>
</trkpt>
<trkpt lat="-27.274439" lon="151.290064">
  <ele>343.1</ele>
  <time>2026-09-01T19:51:42Z</time>
  <course>270.0</course>
  <speed>0.0</speed>
  <fix>3d</fix>
</trkpt>
<trkpt lat="-27.274439" lon="151.290064">
  <ele>343.13</ele>
  <time>2026-09-01T19:51:42Z</time>
  <course>10.71</course>
  <speed>0.0</speed>
  <fix>3d</fix>
</trkpt>
<trkpt lat="-27.274439" lon="151.290064">
  <ele>343.1</ele>
  <time>2026-09-01T19:51:42Z</time>
  <course>270.0</course>
  <speed>0.0</speed>
  <fix>3d</fix>
</trkpt>
<trkpt lat="-27.274439" lon="151.290064">
  <ele>343.13</ele>
  <time>2026-09-01T19:51:42Z</time>
  <course>10.71</course>
  <speed>0.0</speed>
  <fix>3d</fix>
</trkpt>
<trkpt lat="-27.274439" lon="151.290064">
  <ele>343.1</ele>
  <time>2026-09-01T19:51:42Z</time>
  <course>270.0</course>
  <speed>0.0</speed>
  <fix>3d</fix>
</trkpt>
<trkpt lat="-27.274439" lon="151.290064">
  <ele>343.14</ele>
  <time>2026-09-01T19:51:42Z</time>
  <course>10.71</course>
  <speed>0.0</speed>
  <fix>3d</fix>
</trkpt>
<trkpt lat="-27.274439" lon="151.290064">
  <ele>343.1</ele>
  <time>2026-09-01T19:51:42Z</time>
  <course>270.0</course>
  <speed>0.0</speed>
  <fix>3d</fix>
</trkpt>
<trkpt lat="-27.274439" lon="151.290064">
  <ele>343.14</ele>
  <time>2026-09-01T19:51:42Z</time>
  <course>10.71</course>
  <speed>0.0</speed>
  <fix>3d</fix>
</trkpt>
<trkpt lat="-27.274439" lon="151.290064">
  <ele>343.1</ele>
  <time>2026-09-01T19:51:42Z</time>
  <course>270.0</course>
  <speed>0.0</speed>
  <fix>3d</fix>
</trkpt>
<trkpt lat="-27.274439" lon="151.290064">
  <ele>343.14</ele>
  <time>2026-09-01T19:51:42Z</time>
  <course>10.71</course>
  <speed>0.0</speed>
  <fix>3d</fix>
</trkpt>
<trkpt lat="-27.274439" lon="151.290064">
  <ele>343.1</ele>
  <time>2026-09-01T19:51:42Z</time>
  <course>270.0</course>
  <speed>0.0</speed>
  <fix>3d</fix>
</trkpt>
<trkpt lat="-27.274439" lon="151.290064">
  <ele>343.14</ele>
  <time>2026-09-01T19:51:42Z</time>
  <course>10.71</course>
  <speed>0.0</speed>
  <fix>3d</fix>
</trkpt>
<trkpt lat="-27.274439" lon="151.290064">
  <ele>343.1</ele>
  <time>2026-09-01T19:51:42Z</time>
  <course>270.0</course>
  <speed>0.0</speed>
  <fix>3d</fix>
</trkpt>
<trkpt lat="-27.274439" lon="151.290064">
  <ele>343.14</ele>
  <time>2026-09-01T19:51:42Z</time>
  <course>10.71</course>
  <speed>0.0</speed>
  <fix>3d</fix>
</trkpt>
<trkpt lat="-27.274439" lon="151.290064">
  <ele>343.1</ele>
  <time>2026-09-01T19:51:42Z</time>
  <course>270.0</course>
  <speed>0.0</speed>
  <fix>3d</fix>
</trkpt>
<trkpt lat="-27.274439" lon="151.290064">
  <ele>343.14</ele>
  <time>2026-09-01T19:51:42Z</time>
  <course>10.71</course>
  <speed>0.0</speed>
  <fix>3d</fix>
</trkpt>
<trkpt lat="-27.274439" lon="151.290064">
  <ele>343.1</ele>
  <time>2026-09-01T19:51:42Z</time>
  <course>270.0</course>
  <speed>0.0</speed>
  <fix>3d</fix>
</trkpt>
<trkpt lat="-27.274439" lon="151.290064">
  <ele>343.14</ele>
  <time>2026-09-01T19:51:42Z</time>
  <course>10.71</course>
  <speed>0.0</speed>
  <fix>3d</fix>
</trkpt>
<trkpt lat="-27.274439" lon="151.290064">
  <ele>343.1</ele>
  <time>2026-09-01T19:51:42Z</time>
  <course>270.0</course>
  <speed>0.0</speed>
  <fix>3d</fix>
</trkpt>
<trkpt lat="-27.274439" lon="151.290064">
  <ele>343.14</ele>
  <time>2026-09-01T19:51:42Z</time>
  <course>10.71</course>
  <speed>0.0</speed>
  <fix>3d</fix>
</trkpt>
<trkpt lat="-27.274439" lon="151.290064">
  <ele>343.1</ele>
  <time>2026-09-01T19:51:42Z</time>
  <course>270.0</course>
  <speed>0.0</speed>
  <fix>3d</fix>
</trkpt>
<trkpt lat="-27.274439" lon="151.290064">
  <ele>343.13</ele>
  <time>2026-09-01T19:51:42Z</time>
  <course>10.71</course>
  <speed>0.0</speed>
  <fix>3d</fix>
</trkpt>
<trkpt lat="-27.274439" lon="151.290064">
  <ele>343.1</ele>
  <time>2026-09-01T19:51:42Z</time>
  <course>270.0</course>
  <speed>0.0</speed>
  <fix>3d</fix>
</trkpt>
<trkpt lat="-27.274439" lon="151.290064">
  <ele>343.13</ele>
  <time>2026-09-01T19:51:42Z</time>
  <course>10.71</course>
  <speed>0.0</speed>
  <fix>3d</fix>
</trkpt>
<trkpt lat="-27.274439" lon="151.290064">
  <ele>343.1</ele>
  <time>2026-09-01T19:51:42Z</time>
  <course>270.0</course>
  <speed>0.0</speed>
  <fix>3d</fix>
</trkpt>
<trkpt lat="-27.274439" lon="151.290064">
  <ele>343.13</ele>
  <time>2026-09-01T19:51:42Z</time>
  <course>10.71</course>
  <speed>0.0</speed>
  <fix>3d</fix>
</trkpt>
<trkpt lat="-27.274439" lon="151.290064">
  <ele>343.1</ele>
  <time>2026-09-01T19:51:42Z</time>
  <course>270.0</course>
  <speed>0.0</speed>
  <fix>3d</fix>
</trkpt>
<trkpt lat="-27.274439" lon="151.290064">
  <ele>343.13</ele>
  <time>2026-09-01T19:51:42Z</time>
  <course>10.71</course>
  <speed>0.0</speed>
  <fix>3d</fix>
</trkpt>
<trkpt lat="-27.274439" lon="151.290064">
  <ele>343.1</ele>
  <time>2026-09-01T19:51:42Z</time>
  <course>270.0</course>
  <speed>0.0</speed>
  <fix>3d</fix>
</trkpt>
<trkpt lat="-27.274439" lon="151.290064">
  <ele>343.13</ele>
  <time>2026-09-01T19:51:42Z</time>
  <course>10.71</course>
  <speed>0.0</speed>
  <fix>3d</fix>
</trkpt>
<trkpt lat="-27.274439" lon="151.290064">
  <ele>343.1</ele>
  <time>2026-09-01T19:51:42Z</time>
  <course>270.0</course>
  <speed>0.0</speed>
  <fix>3d</fix>
</trkpt>
<trkpt lat="-27.274439" lon="151.290064">
  <ele>343.13</ele>
  <time>2026-09-01T19:51:42Z</time>
  <course>10.71</course>
  <speed>0.0</speed>
  <fix>3d</fix>
</trkpt>
<trkpt lat="-27.274439" lon="151.290064">
  <ele>343.1</ele>
  <time>2026-09-01T19:51:42Z</time>
  <course>270.0</course>
  <speed>0.0</speed>
  <fix>3d</fix>
</trkpt>
<trkpt lat="-27.274439" lon="151.290064">
  <ele>343.13</ele>
  <time>2026-09-01T19:51:42Z</time>
  <course>10.71</course>
  <speed>0.0</speed>
  <fix>3d</fix>
</trkpt>
<trkpt lat="-27.274439" lon="151.290064">
  <ele>343.1</ele>
  <time>2026-09-01T19:51:42Z</time>
  <course>270.0</course>
  <speed>0.0</speed>
  <fix>3d</fix>
</trkpt>
<trkpt lat="-27.274439" lon="151.290064">
  <ele>343.13</ele>
  <time>2026-09-01T19:51:42Z</time>
  <course>10.71</course>
  <speed>0.0</speed>
  <fix>3d</fix>
</trkpt>
<trkpt lat="-27.274439" lon="151.290064">
  <ele>343.1</ele>
  <time>2026-09-01T19:51:42Z</time>
  <course>270.0</course>
  <speed>0.0</speed>
  <fix>3d</fix>
</trkpt>
<trkpt lat="-27.274439" lon="151.290064">
  <ele>343.14</ele>
  <time>2026-09-01T19:51:42Z</time>
  <course>10.71</course>
  <speed>0.0</speed>
  <fix>3d</fix>
</trkpt>
<trkpt lat="-27.274439" lon="151.290064">
  <ele>343.1</ele>
  <time>2026-09-01T19:51:42Z</time>
  <course>270.0</course>
  <speed>0.0</speed>
  <fix>3d</fix>
</trkpt>
<trkpt lat="-27.274439" lon="151.290064">
  <ele>343.14</ele>
  <time>2026-09-01T19:51:42Z</time>
  <course>10.71</course>
  <speed>0.0</speed>
  <fix>3d</fix>
</trkpt>
<trkpt lat="-27.274439" lon="151.290064">
  <ele>343.1</ele>
  <time>2026-09-01T19:51:42Z</time>
  <course>270.0</course>
  <speed>0.0</speed>
  <fix>3d</fix>
</trkpt>
<trkpt lat="-27.274439" lon="151.290064">
  <ele>343.14</ele>
  <time>2026-09-01T19:51:42Z</time>
  <course>10.71</course>
  <speed>0.0</speed>
  <fix>3d</fix>
</trkpt>
<trkpt lat="-27.274439" lon="151.290064">
  <ele>343.1</ele>
  <time>2026-09-01T19:51:42Z</time>
  <course>270.0</course>
  <speed>0.0</speed>
  <fix>3d</fix>
</trkpt>
<trkpt lat="-27.274439" lon="151.290064">
  <ele>343.14</ele>
  <time>2026-09-01T19:51:42Z</time>
  <course>10.71</course>
  <speed>0.0</speed>
  <fix>3d</fix>
</trkpt>
<trkpt lat="-27.274439" lon="151.290064">
  <ele>343.1</ele>
  <time>2026-09-01T19:51:42Z</time>
  <course>270.0</course>
  <speed>0.0</speed>
  <fix>3d</fix>
</trkpt>
<trkpt lat="-27.274439" lon="151.290064">
  <ele>343.14</ele>
  <time>2026-09-01T19:51:42Z</time>
  <course>10.71</course>
  <speed>0.0</speed>
  <fix>3d</fix>
</trkpt>
<trkpt lat="-27.274439" lon="151.290064">
  <ele>343.1</ele>
  <time>2026-09-01T19:51:42Z</time>
  <course>270.0</course>
  <speed>0.0</speed>
  <fix>3d</fix>
</trkpt>
<trkpt lat="-27.274439" lon="151.290064">
  <ele>343.14</ele>
  <time>2026-09-01T19:51:42Z</time>
  <course>10.71</course>
  <speed>0.0</speed>
  <fix>3d</fix>
</trkpt>
<trkpt lat="-27.274439" lon="151.290064">
  <ele>343.1</ele>
  <time>2026-09-01T19:51:42Z</time>
  <course>270.0</course>
  <speed>0.0</speed>
  <fix>3d</fix>
</trkpt>
<trkpt lat="-27.274439" lon="151.290064">
  <ele>343.15</ele>
  <time>2026-09-01T19:51:42Z</time>
  <course>10.71</course>
  <speed>0.0</speed>
  <fix>3d</fix>
</trkpt>
<trkpt lat="-27.274439" lon="151.290064">
  <ele>343.1</ele>
  <time>2026-09-01T19:51:42Z</time>
  <course>270.0</course>
  <speed>0.0</speed>
  <fix>3d</fix>
</trkpt>
<trkpt lat="-27.274439" lon="151.290064">
  <ele>343.15</ele>
  <time>2026-09-01T19:51:42Z</time>
  <course>10.71</course>
  <speed>0.0</speed>
  <fix>3d</fix>
</trkpt>
<trkpt lat="-27.274439" lon="151.290064">
  <ele>343.1</ele>
  <time>2026-09-01T19:51:42Z</time>
  <course>270.0</course>
  <speed>0.0</speed>
  <fix>3d</fix>
</trkpt>
<trkpt lat="-27.274439" lon="151.290064">
  <ele>343.15</ele>
  <time>2026-09-01T19:51:42Z</time>
  <course>10.71</course>
  <speed>0.0</speed>
  <fix>3d</fix>
</trkpt>
<trkpt lat="-27.274439" lon="151.290064">
  <ele>343.1</ele>
  <time>2026-09-01T19:51:42Z</time>
  <course>270.0</course>
  <speed>0.0</speed>
  <fix>3d</fix>
</trkpt>
<trkpt lat="-27.274439" lon="151.290064">
  <ele>343.15</ele>
  <time>2026-09-01T19:51:42Z</time>
  <course>10.71</course>
  <speed>0.0</speed>
  <fix>3d</fix>
</trkpt>
<trkpt lat="-27.274439" lon="151.290064">
  <ele>343.1</ele>
  <time>2026-09-01T19:51:42Z</time>
  <course>270.0</course>
  <speed>0.0</speed>
  <fix>3d</fix>
</trkpt>
<trkpt lat="-27.274439" lon="151.290064">
  <ele>343.15</ele>
  <time>2026-09-01T19:51:42Z</time>
  <course>10.71</course>
  <speed>0.0</speed>
  <fix>3d</fix>
</trkpt>
<trkpt lat="-27.274439" lon="151.290064">
  <ele>343.1</ele>
  <time>2026-09-01T19:51:42Z</time>
  <course>270.0</course>
  <speed>0.0</speed>
  <fix>3d</fix>
</trkpt>
<trkpt lat="-27.274439" lon="151.290064">
  <ele>343.1</ele>
  <time>2026-09-01T19:51:42Z</time>
  <course>10.71</course>
  <speed>0.0</speed>
  <fix>3d</fix>
</trkpt>
<trkpt lat="-27.274439" lon="151.290064">
  <ele>343.1</ele>
  <time>2026-09-01T19:51:42Z</time>
  <course>270.0</course>
  <speed>0.0</speed>
  <fix>3d</fix>
</trkpt>
<trkpt lat="-27.274439" lon="151.290064">
  <ele>343.1</ele>
  <time>2026-09-01T19:51:42Z</time>
  <course>10.71</course>
  <speed>0.0</speed>
  <fix>3d</fix>
</trkpt>
<trkpt lat="-27.274439" lon="151.290064">
  <ele>343.1</ele>
  <time>2026-09-01T19:51:42Z</time>
  <course>270.0</course>
  <speed>0.0</speed>
  <fix>3d</fix>
</trkpt>
<trkpt lat="-27.274439" lon="151.290064">
  <ele>343.1</ele>
  <time>2026-09-01T19:51:42Z</time>
  <course>10.71</course>
  <speed>0.0</speed>
  <fix>3d</fix>
</trkpt>
<trkpt lat="-27.274439" lon="151.290064">
  <ele>343.1</ele>
  <time>2026-09-01T19:51:42Z</time>
  <course>270.0</course>
  <speed>0.0</speed>
  <fix>3d</fix>
</trkpt>
<trkpt lat="-27.274439" lon="151.290064">
  <ele>343.1</ele>
  <time>2026-09-01T19:51:42Z</time>
  <course>10.71</course>
  <speed>0.0</speed>
  <fix>3d</fix>
</trkpt>
<trkpt lat="-27.274439" lon="151.290064">
  <ele>343.1</ele>
  <time>2026-09-01T19:51:42Z</time>
  <course>270.0</course>
  <speed>0.0</speed>
  <fix>3d</fix>
</trkpt>
<trkpt lat="-27.274439" lon="151.290064">
  <ele>343.09</ele>
  <time>2026-09-01T19:51:42Z</time>
  <course>10.71</course>
  <speed>0.0</speed>
  <fix>3d</fix>
</trkpt>
<trkpt lat="-27.274439" lon="151.290064">
  <ele>343.1</ele>
  <time>2026-09-01T19:51:42Z</time>
  <course>270.0</course>
  <speed>0.0</speed>
  <fix>3d</fix>
</trkpt>
<trkpt lat="-27.274439" lon="151.290064">
  <ele>343.09</ele>
  <time>2026-09-01T19:51:42Z</time>
  <course>10.71</course>
  <speed>0.0</speed>
  <fix>3d</fix>
</trkpt>
<trkpt lat="-27.274439" lon="151.290064">
  <ele>343.1</ele>
  <time>2026-09-01T19:51:42Z</time>
  <course>270.0</course>
  <speed>0.0</speed>
  <fix>3d</fix>
</trkpt>
<trkpt lat="-27.274439" lon="151.290064">
  <ele>343.08</ele>
  <time>2026-09-01T19:51:42Z</time>
  <course>10.71</course>
  <speed>0.0</speed>
  <fix>3d</fix>
</trkpt>
<trkpt lat="-27.274439" lon="151.290064">
  <ele>343.1</ele>
  <time>2026-09-01T19:51:42Z</time>
  <course>270.0</course>
  <speed>0.0</speed>
  <fix>3d</fix>
</trkpt>
<trkpt lat="-27.274439" lon="151.290064">
  <ele>343.08</ele>
  <time>2026-09-01T19:51:42Z</time>
  <course>10.71</course>
  <speed>0.0</speed>
  <fix>3d</fix>
</trkpt>
<trkpt lat="-27.274439" lon="151.290064">
  <ele>343.1</ele>
  <time>2026-09-01T19:51:42Z</time>
  <course>270.0</course>
  <speed>0.0</speed>
  <fix>3d</fix>
</trkpt>
<trkpt lat="-27.274439" lon="151.290064">
  <ele>343.07</ele>
  <time>2026-09-01T19:51:42Z</time>
  <course>10.71</course>
  <speed>0.0</speed>
  <fix>3d</fix>
</trkpt>
<trkpt lat="-27.274439" lon="151.290064">
  <ele>343.1</ele>
  <time>2026-09-01T19:51:42Z</time>
  <course>270.0</course>
  <speed>0.0</speed>
  <fix>3d</fix>
</trkpt>
<trkpt lat="-27.274439" lon="151.290064">
  <ele>343.07</ele>
  <time>2026-09-01T19:51:42Z</time>
  <course>10.71</course>
  <speed>0.0</speed>
  <fix>3d</fix>
</trkpt>
<trkpt lat="-27.274439" lon="151.290064">
  <ele>343.1</ele>
  <time>2026-09-01T19:51:42Z</time>
  <course>270.0</course>
  <speed>0.0</speed>
  <fix>3d</fix>
</trkpt>
<trkpt lat="-27.274439" lon="151.290064">
  <ele>343.06</ele>
  <time>2026-09-01T19:51:42Z</time>
  <course>10.71</course>
  <speed>0.0</speed>
  <fix>3d</fix>
</trkpt>
<trkpt lat="-27.274439" lon="151.290064">
  <ele>343.1</ele>
  <time>2026-09-01T19:51:42Z</time>
  <course>270.0</course>
  <speed>0.0</speed>
  <fix>3d</fix>
</trkpt>
<trkpt lat="-27.274439" lon="151.290064">
  <ele>343.06</ele>
  <time>2026-09-01T19:51:42Z</time>
  <course>10.71</course>
  <speed>0.0</speed>
  <fix>3d</fix>
</trkpt>
<trkpt lat="-27.274439" lon="151.290064">
  <ele>343.1</ele>
  <time>2026-09-01T19:51:42Z</time>
  <course>270.0</course>
  <speed>0.0</speed>
  <fix>3d</fix>
</trkpt>
<trkpt lat="-27.274439" lon="151.290064">
  <ele>343.05</ele>
  <time>2026-09-01T19:51:42Z</time>
  <course>10.71</course>
  <speed>0.0</speed>
  <fix>3d</fix>
</trkpt>
<trkpt lat="-27.274439" lon="151.290064">
  <ele>343.1</ele>
  <time>2026-09-01T19:51:42Z</time>
  <course>270.0</course>
  <speed>0.0</speed>
  <fix>3d</fix>
</trkpt>
<trkpt lat="-27.274439" lon="151.290064">
  <ele>343.05</ele>
  <time>2026-09-01T19:51:42Z</time>
  <course>10.71</course>
  <speed>0.0</speed>
  <fix>3d</fix>
</trkpt>
<trkpt lat="-27.274439" lon="151.290064">
  <ele>343.1</ele>
  <time>2026-09-01T19:51:42Z</time>
  <course>270.0</course>
  <speed>0.0</speed>
  <fix>3d</fix>
</trkpt>
<trkpt lat="-27.274439" lon="151.290064">
  <ele>343.04</ele>
  <time>2026-09-01T19:51:42Z</time>
  <course>10.71</course>
  <speed>0.0</speed>
  <fix>3d</fix>
</trkpt>
<trkpt lat="-27.274439" lon="151.290064">
  <ele>343.1</ele>
  <time>2026-09-01T19:51:42Z</time>
  <course>270.0</course>
  <speed>0.0</speed>
  <fix>3d</fix>
</trkpt>
<trkpt lat="-27.274439" lon="151.290064">
  <ele>343.03</ele>
  <time>2026-09-01T19:51:42Z</time>
  <course>10.71</course>
  <speed>0.0</speed>
  <fix>3d</fix>
</trkpt>
<trkpt lat="-27.274439" lon="151.290064">
  <ele>343.1</ele>
  <time>2026-09-01T19:51:42Z</time>
  <course>270.0</course>
  <speed>0.0</speed>
  <fix>3d</fix>
</trkpt>
<trkpt lat="-27.274439" lon="151.290064">
  <ele>343.03</ele>
  <time>2026-09-01T19:51:42Z</time>
  <course>10.71</course>
  <speed>0.0</speed>
  <fix>3d</fix>
</trkpt>
<trkpt lat="-27.274439" lon="151.290064">
  <ele>343.1</ele>
  <time>2026-09-01T19:51:42Z</time>
  <course>270.0</course>
  <speed>0.0</speed>
  <fix>3d</fix>
</trkpt>
<trkpt lat="-27.274439" lon="151.290064">
  <ele>343.02</ele>
  <time>2026-09-01T19:51:42Z</time>
  <course>10.71</course>
  <speed>0.0</speed>
  <fix>3d</fix>
</trkpt>
<trkpt lat="-27.274439" lon="151.290064">
  <ele>343.1</ele>
  <time>2026-09-01T19:51:42Z</time>
  <course>270.0</course>
  <speed>0.0</speed>
  <fix>3d</fix>
</trkpt>
<trkpt lat="-27.274439" lon="151.290064">
  <ele>343.02</ele>
  <time>2026-09-01T19:51:42Z</time>
  <course>10.71</course>
  <speed>0.0</speed>
  <fix>3d</fix>
</trkpt>
<trkpt lat="-27.274439" lon="151.290064">
  <ele>343.1</ele>
  <time>2026-09-01T19:51:42Z</time>
  <course>270.0</course>
  <speed>0.0</speed>
  <fix>3d</fix>
</trkpt>
<trkpt lat="-27.274439" lon="151.290064">
  <ele>343.01</ele>
  <time>2026-09-01T19:51:42Z</time>
  <course>10.71</course>
  <speed>0.0</speed>
  <fix>3d</fix>
</trkpt>
<trkpt lat="-27.274439" lon="151.290064">
  <ele>343.1</ele>
  <time>2026-09-01T19:51:42Z</time>
  <course>270.0</course>
  <speed>0.0</speed>
  <fix>3d</fix>
</trkpt>
<trkpt lat="-27.274439" lon="151.290064">
  <ele>343.0</ele>
  <time>2026-09-01T19:51:42Z</time>
  <course>10.71</course>
  <speed>0.0</speed>
  <fix>3d</fix>
</trkpt>
<trkpt lat="-27.274439" lon="151.290064">
  <ele>343.1</ele>
  <time>2026-09-01T19:51:42Z</time>
  <course>270.0</course>
  <speed>0.0</speed>
  <fix>3d</fix>
</trkpt>
<trkpt lat="-27.274439" lon="151.290064">
  <ele>343.0</ele>
  <time>2026-09-01T19:51:42Z</time>
  <course>10.71</course>
  <speed>0.0</speed>
  <fix>3d</fix>
</trkpt>
<trkpt lat="-27.274439" lon="151.290064">
  <ele>343.1</ele>
  <time>2026-09-01T19:51:42Z</time>
  <course>270.0</course>
  <speed>0.0</speed>
  <fix>3d</fix>
</trkpt>
<trkpt lat="-27.274439" lon="151.290064">
  <ele>342.99</ele>
  <time>2026-09-01T19:51:42Z</time>
  <course>10.71</course>
  <speed>0.0</speed>
  <fix>3d</fix>
</trkpt>
<trkpt lat="-27.274439" lon="151.290064">
  <ele>343.1</ele>
  <time>2026-09-01T19:51:42Z</time>
  <course>270.0</course>
  <speed>0.0</speed>
  <fix>3d</fix>
</trkpt>
<trkpt lat="-27.274439" lon="151.290064">
  <ele>342.99</ele>
  <time>2026-09-01T19:51:42Z</time>
  <course>10.71</course>
  <speed>0.0</speed>
  <fix>3d</fix>
</trkpt>
<trkpt lat="-27.274439" lon="151.290064">
  <ele>343.1</ele>
  <time>2026-09-01T19:51:42Z</time>
  <course>270.0</course>
  <speed>0.0</speed>
  <fix>3d</fix>
</trkpt>
<trkpt lat="-27.274439" lon="151.290064">
  <ele>342.99</ele>
  <time>2026-09-01T19:51:42Z</time>
  <course>10.71</course>
  <speed>0.0</speed>
  <fix>3d</fix>
</trkpt>
<trkpt lat="-27.274439" lon="151.290064">
  <ele>343.1</ele>
  <time>2026-09-01T19:51:42Z</time>
  <course>270.0</course>
  <speed>0.0</speed>
  <fix>3d</fix>
</trkpt>
<trkpt lat="-27.274439" lon="151.290064">
  <ele>342.99</ele>
  <time>2026-09-01T19:51:42Z</time>
  <course>10.71</course>
  <speed>0.0</speed>
  <fix>3d</fix>
</trkpt>
<trkpt lat="-27.274439" lon="151.290064">
  <ele>343.1</ele>
  <time>2026-09-01T19:51:42Z</time>
  <course>270.0</course>
  <speed>0.0</speed>
  <fix>3d</fix>
</trkpt>
<trkpt lat="-27.274439" lon="151.290064">
  <ele>342.99</ele>
  <time>2026-09-01T19:51:42Z</time>
  <course>10.71</course>
  <speed>0.0</speed>
  <fix>3d</fix>
</trkpt>
<trkpt lat="-27.274439" lon="151.290064">
  <ele>343.1</ele>
  <time>2026-09-01T19:51:42Z</time>
  <course>270.0</course>
  <speed>0.0</speed>
  <fix>3d</fix>
</trkpt>
<trkpt lat="-27.274439" lon="151.290064">
  <ele>342.98</ele>
  <time>2026-09-01T19:51:42Z</time>
  <course>10.71</course>
  <speed>0.0</speed>
  <fix>3d</fix>
</trkpt>
<trkpt lat="-27.274439" lon="151.290064">
  <ele>343.1</ele>
  <time>2026-09-01T19:51:42Z</time>
  <course>270.0</course>
  <speed>0.0</speed>
  <fix>3d</fix>
</trkpt>
<trkpt lat="-27.274439" lon="151.290064">
  <ele>342.98</ele>
  <time>2026-09-01T19:51:42Z</time>
  <course>10.71</course>
  <speed>0.0</speed>
  <fix>3d</fix>
</trkpt>
<trkpt lat="-27.274439" lon="151.290064">
  <ele>343.1</ele>
  <time>2026-09-01T19:51:42Z</time>
  <course>270.0</course>
  <speed>0.0</speed>
  <fix>3d</fix>
</trkpt>
<trkpt lat="-27.274439" lon="151.290064">
  <ele>342.98</ele>
  <time>2026-09-01T19:51:42Z</time>
  <course>10.71</course>
  <speed>0.0</speed>
  <fix>3d</fix>
</trkpt>
<trkpt lat="-27.274439" lon="151.290064">
  <ele>343.1</ele>
  <time>2026-09-01T19:51:42Z</time>
  <course>270.0</course>
  <speed>0.0</speed>
  <fix>3d</fix>
</trkpt>
<trkpt lat="-27.274439" lon="151.290064">
  <ele>342.98</ele>
  <time>2026-09-01T19:51:42Z</time>
  <course>10.71</course>
  <speed>0.0</speed>
  <fix>3d</fix>
</trkpt>
<trkpt lat="-27.274439" lon="151.290064">
  <ele>343.1</ele>
  <time>2026-09-01T19:51:42Z</time>
  <course>270.0</course>
  <speed>0.0</speed>
  <fix>3d</fix>
</trkpt>
<trkpt lat="-27.274439" lon="151.290064">
  <ele>342.97</ele>
  <time>2026-09-01T19:51:42Z</time>
  <course>10.71</course>
  <speed>0.0</speed>
  <fix>3d</fix>
</trkpt>
<trkpt lat="-27.274439" lon="151.290064">
  <ele>343.1</ele>
  <time>2026-09-01T19:51:42Z</time>
  <course>270.0</course>
  <speed>0.0</speed>
  <fix>3d</fix>
</trkpt>
<trkpt lat="-27.274439" lon="151.290064">
  <ele>342.97</ele>
  <time>2026-09-01T19:51:42Z</time>
  <course>10.71</course>
  <speed>0.0</speed>
  <fix>3d</fix>
</trkpt>
<trkpt lat="-27.274439" lon="151.290064">
  <ele>343.1</ele>
  <time>2026-09-01T19:51:42Z</time>
  <course>270.0</course>
  <speed>0.0</speed>
  <fix>3d</fix>
</trkpt>
<trkpt lat="-27.274439" lon="151.290064">
  <ele>342.97</ele>
  <time>2026-09-01T19:51:42Z</time>
  <course>10.71</course>
  <speed>0.0</speed>
  <fix>3d</fix>
</trkpt>
<trkpt lat="-27.274439" lon="151.290064">
  <ele>343.1</ele>
  <time>2026-09-01T19:51:42Z</time>
  <course>270.0</course>
  <speed>0.0</speed>
  <fix>3d</fix>
</trkpt>
<trkpt lat="-27.274439" lon="151.290064">
  <ele>342.96</ele>
  <time>2026-09-01T19:51:42Z</time>
  <course>10.71</course>
  <speed>0.0</speed>
  <fix>3d</fix>
</trkpt>
<trkpt lat="-27.274439" lon="151.290064">
  <ele>343.1</ele>
  <time>2026-09-01T19:51:42Z</time>
  <course>270.0</course>
  <speed>0.0</speed>
  <fix>3d</fix>
</trkpt>
<trkpt lat="-27.274439" lon="151.290064">
  <ele>342.96</ele>
  <time>2026-09-01T19:51:42Z</time>
  <course>10.71</course>
  <speed>0.0</speed>
  <fix>3d</fix>
</trkpt>
<trkpt lat="-27.274439" lon="151.290064">
  <ele>343.1</ele>
  <time>2026-09-01T19:51:42Z</time>
  <course>270.0</course>
  <speed>0.0</speed>
  <fix>3d</fix>
</trkpt>
<trkpt lat="-27.274439" lon="151.290064">
  <ele>342.96</ele>
  <time>2026-09-01T19:51:42Z</time>
  <course>10.71</course>
  <speed>0.0</speed>
  <fix>3d</fix>
</trkpt>
<trkpt lat="-27.274439" lon="151.290064">
  <ele>343.1</ele>
  <time>2026-09-01T19:51:42Z</time>
  <course>270.0</course>
  <speed>0.0</speed>
  <fix>3d</fix>
</trkpt>
<trkpt lat="-27.274439" lon="151.290064">
  <ele>342.96</ele>
  <time>2026-09-01T19:51:42Z</time>
  <course>10.71</course>
  <speed>0.0</speed>
  <fix>3d</fix>
</trkpt>
<trkpt lat="-27.274439" lon="151.290064">
  <ele>343.1</ele>
  <time>2026-09-01T19:51:42Z</time>
  <course>270.0</course>
  <speed>0.0</speed>
  <fix>3d</fix>
</trkpt>
<trkpt lat="-27.274439" lon="151.290064">
  <ele>342.96</ele>
  <time>2026-09-01T19:51:42Z</time>
  <course>10.71</course>
  <speed>0.0</speed>
  <fix>3d</fix>
</trkpt>
<trkpt lat="-27.274439" lon="151.290064">
  <ele>343.1</ele>
  <time>2026-09-01T19:51:42Z</time>
  <course>270.0</course>
  <speed>0.0</speed>
  <fix>3d</fix>
</trkpt>
<trkpt lat="-27.274439" lon="151.290064">
  <ele>342.96</ele>
  <time>2026-09-01T19:51:42Z</time>
  <course>10.71</course>
  <speed>0.0</speed>
  <fix>3d</fix>
</trkpt>
<trkpt lat="-27.274439" lon="151.290064">
  <ele>343.1</ele>
  <time>2026-09-01T19:51:43Z</time>
  <course>270.0</course>
  <speed>0.0</speed>
  <fix>3d</fix>
</trkpt>
<trkpt lat="-27.274439" lon="151.290064">
  <ele>342.95</ele>
  <time>2026-09-01T19:51:43Z</time>
  <course>10.71</course>
  <speed>0.0</speed>
  <fix>3d</fix>
</trkpt>
<trkpt lat="-27.274439" lon="151.290064">
  <ele>343.1</ele>
  <time>2026-09-01T19:51:43Z</time>
  <course>270.0</course>
  <speed>0.0</speed>
  <fix>3d</fix>
</trkpt>
<trkpt lat="-27.274439" lon="151.290064">
  <ele>342.95</ele>
  <time>2026-09-01T19:51:43Z</time>
  <course>10.7</course>
  <speed>0.0</speed>
  <fix>3d</fix>
</trkpt>
<trkpt lat="-27.274439" lon="151.290064">
  <ele>343.1</ele>
  <time>2026-09-01T19:51:43Z</time>
  <course>270.0</course>
  <speed>0.0</speed>
  <fix>3d</fix>
</trkpt>
<trkpt lat="-27.274439" lon="151.290064">
  <ele>342.95</ele>
  <time>2026-09-01T19:51:43Z</time>
  <course>10.7</course>
  <speed>0.0</speed>
  <fix>3d</fix>
</trkpt>
<trkpt lat="-27.274439" lon="151.290064">
  <ele>343.1</ele>
  <time>2026-09-01T19:51:43Z</time>
  <course>270.0</course>
  <speed>0.0</speed>
  <fix>3d</fix>
</trkpt>
<trkpt lat="-27.274439" lon="151.290064">
  <ele>342.95</ele>
  <time>2026-09-01T19:51:43Z</time>
  <course>10.7</course>
  <speed>0.0</speed>
  <fix>3d</fix>
</trkpt>
<trkpt lat="-27.274439" lon="151.290064">
  <ele>343.1</ele>
  <time>2026-09-01T19:51:43Z</time>
  <course>270.0</course>
  <speed>0.0</speed>
  <fix>3d</fix>
</trkpt>
<trkpt lat="-27.274439" lon="151.290064">
  <ele>342.95</ele>
  <time>2026-09-01T19:51:43Z</time>
  <course>10.7</course>
  <speed>0.0</speed>
  <fix>3d</fix>
</trkpt>
<trkpt lat="-27.274439" lon="151.290064">
  <ele>343.1</ele>
  <time>2026-09-01T19:51:43Z</time>
  <course>270.0</course>
  <speed>0.0</speed>
  <fix>3d</fix>
</trkpt>
<trkpt lat="-27.274439" lon="151.290064">
  <ele>342.95</ele>
  <time>2026-09-01T19:51:43Z</time>
  <course>10.7</course>
  <speed>0.0</speed>
  <fix>3d</fix>
</trkpt>
<trkpt lat="-27.274439" lon="151.290064">
  <ele>343.1</ele>
  <time>2026-09-01T19:51:43Z</time>
  <course>270.0</course>
  <speed>0.0</speed>
  <fix>3d</fix>
</trkpt>
<trkpt lat="-27.274439" lon="151.290064">
  <ele>342.94</ele>
  <time>2026-09-01T19:51:43Z</time>
  <course>10.7</course>
  <speed>0.0</speed>
  <fix>3d</fix>
</trkpt>
<trkpt lat="-27.274439" lon="151.290064">
  <ele>343.1</ele>
  <time>2026-09-01T19:51:43Z</time>
  <course>270.0</course>
  <speed>0.0</speed>
  <fix>3d</fix>
</trkpt>
<trkpt lat="-27.274439" lon="151.290064">
  <ele>342.94</ele>
  <time>2026-09-01T19:51:43Z</time>
  <course>10.7</course>
  <speed>0.0</speed>
  <fix>3d</fix>
</trkpt>
<trkpt lat="-27.274439" lon="151.290064">
  <ele>343.1</ele>
  <time>2026-09-01T19:51:43Z</time>
  <course>270.0</course>
  <speed>0.0</speed>
  <fix>3d</fix>
</trkpt>
<trkpt lat="-27.274439" lon="151.290064">
  <ele>342.94</ele>
  <time>2026-09-01T19:51:43Z</time>
  <course>10.7</course>
  <speed>0.0</speed>
  <fix>3d</fix>
</trkpt>
<trkpt lat="-27.274439" lon="151.290064">
  <ele>343.1</ele>
  <time>2026-09-01T19:51:43Z</time>
  <course>270.0</course>
  <speed>0.0</speed>
  <fix>3d</fix>
</trkpt>
<trkpt lat="-27.274439" lon="151.290064">
  <ele>342.94</ele>
  <time>2026-09-01T19:51:43Z</time>
  <course>10.7</course>
  <speed>0.0</speed>
  <fix>3d</fix>
</trkpt>
<trkpt lat="-27.274439" lon="151.290064">
  <ele>343.1</ele>
  <time>2026-09-01T19:51:43Z</time>
  <course>270.0</course>
  <speed>0.0</speed>
  <fix>3d</fix>
</trkpt>
<trkpt lat="-27.274439" lon="151.290064">
  <ele>342.94</ele>
  <time>2026-09-01T19:51:43Z</time>
  <course>10.7</course>
  <speed>0.0</speed>
  <fix>3d</fix>
</trkpt>
<trkpt lat="-27.274439" lon="151.290064">
  <ele>343.1</ele>
  <time>2026-09-01T19:51:43Z</time>
  <course>270.0</course>
  <speed>0.0</speed>
  <fix>3d</fix>
</trkpt>
<trkpt lat="-27.274439" lon="151.290064">
  <ele>342.93</ele>
  <time>2026-09-01T19:51:43Z</time>
  <course>10.7</course>
  <speed>0.0</speed>
  <fix>3d</fix>
</trkpt>
<trkpt lat="-27.274439" lon="151.290064">
  <ele>343.1</ele>
  <time>2026-09-01T19:51:43Z</time>
  <course>270.0</course>
  <speed>0.0</speed>
  <fix>3d</fix>
</trkpt>
<trkpt lat="-27.274439" lon="151.290064">
  <ele>342.93</ele>
  <time>2026-09-01T19:51:43Z</time>
  <course>10.7</course>
  <speed>0.0</speed>
  <fix>3d</fix>
</trkpt>
<trkpt lat="-27.274439" lon="151.290064">
  <ele>343.1</ele>
  <time>2026-09-01T19:51:43Z</time>
  <course>270.0</course>
  <speed>0.0</speed>
  <fix>3d</fix>
</trkpt>
<trkpt lat="-27.274439" lon="151.290064">
  <ele>342.93</ele>
  <time>2026-09-01T19:51:43Z</time>
  <course>10.7</course>
  <speed>0.0</speed>
  <fix>3d</fix>
</trkpt>
<trkpt lat="-27.274439" lon="151.290064">
  <ele>343.1</ele>
  <time>2026-09-01T19:51:43Z</time>
  <course>270.0</course>
  <speed>0.0</speed>
  <fix>3d</fix>
</trkpt>
<trkpt lat="-27.274439" lon="151.290064">
  <ele>342.93</ele>
  <time>2026-09-01T19:51:43Z</time>
  <course>10.7</course>
  <speed>0.0</speed>
  <fix>3d</fix>
</trkpt>
<trkpt lat="-27.274439" lon="151.290064">
  <ele>343.1</ele>
  <time>2026-09-01T19:51:43Z</time>
  <course>270.0</course>
  <speed>0.0</speed>
  <fix>3d</fix>
</trkpt>
<trkpt lat="-27.274439" lon="151.290064">
  <ele>342.93</ele>
  <time>2026-09-01T19:51:43Z</time>
  <course>10.7</course>
  <speed>0.0</speed>
  <fix>3d</fix>
</trkpt>
<trkpt lat="-27.274439" lon="151.290064">
  <ele>343.1</ele>
  <time>2026-09-01T19:51:43Z</time>
  <course>270.0</course>
  <speed>0.0</speed>
  <fix>3d</fix>
</trkpt>
<trkpt lat="-27.274439" lon="151.290064">
  <ele>342.93</ele>
  <time>2026-09-01T19:51:43Z</time>
  <course>10.7</course>
  <speed>0.0</speed>
  <fix>3d</fix>
</trkpt>
<trkpt lat="-27.274439" lon="151.290064">
  <ele>343.1</ele>
  <time>2026-09-01T19:51:43Z</time>
  <course>270.0</course>
  <speed>0.0</speed>
  <fix>3d</fix>
</trkpt>
<trkpt lat="-27.274439" lon="151.290064">
  <ele>342.93</ele>
  <time>2026-09-01T19:51:43Z</time>
  <course>10.7</course>
  <speed>0.01</speed>
  <fix>3d</fix>
</trkpt>
<trkpt lat="-27.274439" lon="151.290064">
  <ele>343.1</ele>
  <time>2026-09-01T19:51:43Z</time>
  <course>270.0</course>
  <speed>0.0</speed>
  <fix>3d</fix>
</trkpt>
<trkpt lat="-27.274439" lon="151.290064">
  <ele>343.09</ele>
  <time>2026-09-01T19:51:43Z</time>
  <course>10.7</course>
  <speed>0.01</speed>
  <fix>3d</fix>
</trkpt>
<trkpt lat="-27.274439" lon="151.290064">
  <ele>343.1</ele>
  <time>2026-09-01T19:51:43Z</time>
  <course>270.0</course>
  <speed>0.0</speed>
  <fix>3d</fix>
</trkpt>
<trkpt lat="-27.274439" lon="151.290064">
  <ele>343.09</ele>
  <time>2026-09-01T19:51:43Z</time>
  <course>10.7</course>
  <speed>0.01</speed>
  <fix>3d</fix>
</trkpt>
<trkpt lat="-27.274439" lon="151.290064">
  <ele>343.1</ele>
  <time>2026-09-01T19:51:43Z</time>
  <course>270.0</course>
  <speed>0.0</speed>
  <fix>3d</fix>
</trkpt>
<trkpt lat="-27.274439" lon="151.290064">
  <ele>343.09</ele>
  <time>2026-09-01T19:51:43Z</time>
  <course>10.7</course>
  <speed>0.01</speed>
  <fix>3d</fix>
</trkpt>
<trkpt lat="-27.274439" lon="151.290064">
  <ele>343.1</ele>
  <time>2026-09-01T19:51:43Z</time>
  <course>270.0</course>
  <speed>0.0</speed>
  <fix>3d</fix>
</trkpt>
<trkpt lat="-27.274439" lon="151.290064">
  <ele>343.1</ele>
  <time>2026-09-01T19:51:43Z</time>
  <course>10.7</course>
  <speed>0.01</speed>
  <fix>3d</fix>
</trkpt>
<trkpt lat="-27.274439" lon="151.290064">
  <ele>343.1</ele>
  <time>2026-09-01T19:51:43Z</time>
  <course>270.0</course>
  <speed>0.0</speed>
  <fix>3d</fix>
</trkpt>
<trkpt lat="-27.274439" lon="151.290064">
  <ele>343.1</ele>
  <time>2026-09-01T19:51:43Z</time>
  <course>10.7</course>
  <speed>0.01</speed>
  <fix>3d</fix>
</trkpt>
<trkpt lat="-27.274439" lon="151.290064">
  <ele>343.1</ele>
  <time>2026-09-01T19:51:43Z</time>
  <course>270.0</course>
  <speed>0.0</speed>
  <fix>3d</fix>
</trkpt>
<trkpt lat="-27.274439" lon="151.290064">
  <ele>343.1</ele>
  <time>2026-09-01T19:51:43Z</time>
  <course>10.7</course>
  <speed>0.01</speed>
  <fix>3d</fix>
</trkpt>
<trkpt lat="-27.274439" lon="151.290064">
  <ele>343.1</ele>
  <time>2026-09-01T19:51:43Z</time>
  <course>270.0</course>
  <speed>0.0</speed>
  <fix>3d</fix>
</trkpt>
<trkpt lat="-27.274439" lon="151.290064">
  <ele>343.1</ele>
  <time>2026-09-01T19:51:43Z</time>
  <course>10.7</course>
  <speed>0.0</speed>
  <fix>3d</fix>
</trkpt>
<trkpt lat="-27.274439" lon="151.290064">
  <ele>343.1</ele>
  <time>2026-09-01T19:51:43Z</time>
  <course>270.0</course>
  <speed>0.0</speed>
  <fix>3d</fix>
</trkpt>
<trkpt lat="-27.274439" lon="151.290064">
  <ele>343.1</ele>
  <time>2026-09-01T19:51:43Z</time>
  <course>10.7</course>
  <speed>0.0</speed>
  <fix>3d</fix>
</trkpt>
<trkpt lat="-27.274439" lon="151.290064">
  <ele>343.1</ele>
  <time>2026-09-01T19:51:43Z</time>
  <course>270.0</course>
  <speed>0.0</speed>
  <fix>3d</fix>
</trkpt>
<trkpt lat="-27.274439" lon="151.290064">
  <ele>343.1</ele>
  <time>2026-09-01T19:51:43Z</time>
  <course>10.7</course>
  <speed>0.0</speed>
  <fix>3d</fix>
</trkpt>
<trkpt lat="-27.274439" lon="151.290064">
  <ele>343.1</ele>
  <time>2026-09-01T19:51:43Z</time>
  <course>270.0</course>
  <speed>0.0</speed>
  <fix>3d</fix>
</trkpt>
<trkpt lat="-27.274439" lon="151.290064">
  <ele>343.11</ele>
  <time>2026-09-01T19:51:43Z</time>
  <course>10.7</course>
  <speed>0.0</speed>
  <fix>3d</fix>
</trkpt>
<trkpt lat="-27.274439" lon="151.290064">
  <ele>343.1</ele>
  <time>2026-09-01T19:51:43Z</time>
  <course>270.0</course>
  <speed>0.0</speed>
  <fix>3d</fix>
</trkpt>
<trkpt lat="-27.274439" lon="151.290064">
  <ele>343.11</ele>
  <time>2026-09-01T19:51:43Z</time>
  <course>10.7</course>
  <speed>0.0</speed>
  <fix>3d</fix>
</trkpt>
<trkpt lat="-27.274439" lon="151.290064">
  <ele>343.1</ele>
  <time>2026-09-01T19:51:43Z</time>
  <course>270.0</course>
  <speed>0.0</speed>
  <fix>3d</fix>
</trkpt>
<trkpt lat="-27.274439" lon="151.290064">
  <ele>343.11</ele>
  <time>2026-09-01T19:51:43Z</time>
  <course>10.7</course>
  <speed>0.0</speed>
  <fix>3d</fix>
</trkpt>
<trkpt lat="-27.274439" lon="151.290064">
  <ele>343.1</ele>
  <time>2026-09-01T19:51:43Z</time>
  <course>270.0</course>
  <speed>0.0</speed>
  <fix>3d</fix>
</trkpt>
<trkpt lat="-27.274439" lon="151.290064">
  <ele>343.11</ele>
  <time>2026-09-01T19:51:43Z</time>
  <course>10.7</course>
  <speed>0.0</speed>
  <fix>3d</fix>
</trkpt>
<trkpt lat="-27.274439" lon="151.290064">
  <ele>343.1</ele>
  <time>2026-09-01T19:51:43Z</time>
  <course>270.0</course>
  <speed>0.0</speed>
  <fix>3d</fix>
</trkpt>
<trkpt lat="-27.274439" lon="151.290064">
  <ele>343.12</ele>
  <time>2026-09-01T19:51:43Z</time>
  <course>10.7</course>
  <speed>0.0</speed>
  <fix>3d</fix>
</trkpt>
<trkpt lat="-27.274439" lon="151.290064">
  <ele>343.1</ele>
  <time>2026-09-01T19:51:43Z</time>
  <course>270.0</course>
  <speed>0.0</speed>
  <fix>3d</fix>
</trkpt>
<trkpt lat="-27.274439" lon="151.290064">
  <ele>343.12</ele>
  <time>2026-09-01T19:51:43Z</time>
  <course>10.7</course>
  <speed>0.0</speed>
  <fix>3d</fix>
</trkpt>
<trkpt lat="-27.274439" lon="151.290064">
  <ele>343.1</ele>
  <time>2026-09-01T19:51:43Z</time>
  <course>270.0</course>
  <speed>0.0</speed>
  <fix>3d</fix>
</trkpt>
<trkpt lat="-27.274439" lon="151.290064">
  <ele>343.13</ele>
  <time>2026-09-01T19:51:43Z</time>
  <course>10.7</course>
  <speed>0.0</speed>
  <fix>3d</fix>
</trkpt>
<trkpt lat="-27.274439" lon="151.290064">
  <ele>343.1</ele>
  <time>2026-09-01T19:51:43Z</time>
  <course>270.0</course>
  <speed>0.0</speed>
  <fix>3d</fix>
</trkpt>
<trkpt lat="-27.274439" lon="151.290064">
  <ele>343.13</ele>
  <time>2026-09-01T19:51:43Z</time>
  <course>10.7</course>
  <speed>0.0</speed>
  <fix>3d</fix>
</trkpt>
<trkpt lat="-27.274439" lon="151.290064">
  <ele>343.1</ele>
  <time>2026-09-01T19:51:43Z</time>
  <course>270.0</course>
  <speed>0.0</speed>
  <fix>3d</fix>
</trkpt>
<trkpt lat="-27.274439" lon="151.290064">
  <ele>343.13</ele>
  <time>2026-09-01T19:51:43Z</time>
  <course>10.7</course>
  <speed>0.0</speed>
  <fix>3d</fix>
</trkpt>
<trkpt lat="-27.274439" lon="151.290064">
  <ele>343.1</ele>
  <time>2026-09-01T19:51:43Z</time>
  <course>270.0</course>
  <speed>0.0</speed>
  <fix>3d</fix>
</trkpt>
<trkpt lat="-27.274439" lon="151.290064">
  <ele>343.14</ele>
  <time>2026-09-01T19:51:43Z</time>
  <course>10.7</course>
  <speed>0.0</speed>
  <fix>3d</fix>
</trkpt>
<trkpt lat="-27.274439" lon="151.290064">
  <ele>343.1</ele>
  <time>2026-09-01T19:51:43Z</time>
  <course>270.0</course>
  <speed>0.0</speed>
  <fix>3d</fix>
</trkpt>
<trkpt lat="-27.274439" lon="151.290064">
  <ele>343.14</ele>
  <time>2026-09-01T19:51:43Z</time>
  <course>10.7</course>
  <speed>0.0</speed>
  <fix>3d</fix>
</trkpt>
<trkpt lat="-27.274439" lon="151.290064">
  <ele>343.1</ele>
  <time>2026-09-01T19:51:43Z</time>
  <course>270.0</course>
  <speed>0.0</speed>
  <fix>3d</fix>
</trkpt>
<trkpt lat="-27.274439" lon="151.290064">
  <ele>343.14</ele>
  <time>2026-09-01T19:51:43Z</time>
  <course>10.7</course>
  <speed>0.0</speed>
  <fix>3d</fix>
</trkpt>
<trkpt lat="-27.274439" lon="151.290064">
  <ele>343.1</ele>
  <time>2026-09-01T19:51:43Z</time>
  <course>270.0</course>
  <speed>0.0</speed>
  <fix>3d</fix>
</trkpt>
<trkpt lat="-27.274439" lon="151.290064">
  <ele>343.14</ele>
  <time>2026-09-01T19:51:43Z</time>
  <course>10.7</course>
  <speed>0.0</speed>
  <fix>3d</fix>
</trkpt>
<trkpt lat="-27.274439" lon="151.290064">
  <ele>343.1</ele>
  <time>2026-09-01T19:51:43Z</time>
  <course>270.0</course>
  <speed>0.0</speed>
  <fix>3d</fix>
</trkpt>
<trkpt lat="-27.274439" lon="151.290064">
  <ele>343.1</ele>
  <time>2026-09-01T19:51:43Z</time>
  <course>10.7</course>
  <speed>0.0</speed>
  <fix>3d</fix>
</trkpt>
<trkpt lat="-27.274439" lon="151.290064">
  <ele>343.1</ele>
  <time>2026-09-01T19:51:43Z</time>
  <course>270.0</course>
  <speed>0.0</speed>
  <fix>3d</fix>
</trkpt>
<trkpt lat="-27.274439" lon="151.290064">
  <ele>343.1</ele>
  <time>2026-09-01T19:51:43Z</time>
  <course>10.7</course>
  <speed>0.0</speed>
  <fix>3d</fix>
</trkpt>
<trkpt lat="-27.274439" lon="151.290064">
  <ele>343.1</ele>
  <time>2026-09-01T19:51:43Z</time>
  <course>270.0</course>
  <speed>0.0</speed>
  <fix>3d</fix>
</trkpt>
<trkpt lat="-27.274439" lon="151.290064">
  <ele>343.1</ele>
  <time>2026-09-01T19:51:43Z</time>
  <course>10.7</course>
  <speed>0.0</speed>
  <fix>3d</fix>
</trkpt>
<trkpt lat="-27.274439" lon="151.290064">
  <ele>343.1</ele>
  <time>2026-09-01T19:51:43Z</time>
  <course>270.0</course>
  <speed>0.0</speed>
  <fix>3d</fix>
</trkpt>
<trkpt lat="-27.274439" lon="151.290064">
  <ele>343.1</ele>
  <time>2026-09-01T19:51:43Z</time>
  <course>10.7</course>
  <speed>0.0</speed>
  <fix>3d</fix>
</trkpt>
<trkpt lat="-27.274439" lon="151.290064">
  <ele>343.1</ele>
  <time>2026-09-01T19:51:43Z</time>
  <course>270.0</course>
  <speed>0.0</speed>
  <fix>3d</fix>
</trkpt>
<trkpt lat="-27.274439" lon="151.290064">
  <ele>343.1</ele>
  <time>2026-09-01T19:51:43Z</time>
  <course>10.7</course>
  <speed>0.0</speed>
  <fix>3d</fix>
</trkpt>
<trkpt lat="-27.274439" lon="151.290064">
  <ele>343.1</ele>
  <time>2026-09-01T19:51:43Z</time>
  <course>270.0</course>
  <speed>0.0</speed>
  <fix>3d</fix>
</trkpt>
<trkpt lat="-27.274439" lon="151.290064">
  <ele>343.09</ele>
  <time>2026-09-01T19:51:43Z</time>
  <course>10.7</course>
  <speed>0.0</speed>
  <fix>3d</fix>
</trkpt>
<trkpt lat="-27.274439" lon="151.290064">
  <ele>343.1</ele>
  <time>2026-09-01T19:51:43Z</time>
  <course>270.0</course>
  <speed>0.0</speed>
  <fix>3d</fix>
</trkpt>
<trkpt lat="-27.274439" lon="151.290064">
  <ele>343.09</ele>
  <time>2026-09-01T19:51:43Z</time>
  <course>10.7</course>
  <speed>0.0</speed>
  <fix>3d</fix>
</trkpt>
<trkpt lat="-27.274439" lon="151.290064">
  <ele>343.1</ele>
  <time>2026-09-01T19:51:43Z</time>
  <course>270.0</course>
  <speed>0.0</speed>
  <fix>3d</fix>
</trkpt>
<trkpt lat="-27.274439" lon="151.290064">
  <ele>343.08</ele>
  <time>2026-09-01T19:51:43Z</time>
  <course>10.7</course>
  <speed>0.0</speed>
  <fix>3d</fix>
</trkpt>
<trkpt lat="-27.274439" lon="151.290064">
  <ele>343.1</ele>
  <time>2026-09-01T19:51:43Z</time>
  <course>270.0</course>
  <speed>0.0</speed>
  <fix>3d</fix>
</trkpt>
<trkpt lat="-27.274439" lon="151.290064">
  <ele>343.08</ele>
  <time>2026-09-01T19:51:43Z</time>
  <course>10.7</course>
  <speed>0.0</speed>
  <fix>3d</fix>
</trkpt>
<trkpt lat="-27.274439" lon="151.290064">
  <ele>343.1</ele>
  <time>2026-09-01T19:51:43Z</time>
  <course>270.0</course>
  <speed>0.0</speed>
  <fix>3d</fix>
</trkpt>
<trkpt lat="-27.274439" lon="151.290064">
  <ele>343.07</ele>
  <time>2026-09-01T19:51:43Z</time>
  <course>10.7</course>
  <speed>0.0</speed>
  <fix>3d</fix>
</trkpt>
<trkpt lat="-27.274439" lon="151.290064">
  <ele>343.1</ele>
  <time>2026-09-01T19:51:43Z</time>
  <course>270.0</course>
  <speed>0.0</speed>
  <fix>3d</fix>
</trkpt>
<trkpt lat="-27.274439" lon="151.290064">
  <ele>343.06</ele>
  <time>2026-09-01T19:51:43Z</time>
  <course>10.7</course>
  <speed>0.0</speed>
  <fix>3d</fix>
</trkpt>
<trkpt lat="-27.274439" lon="151.290064">
  <ele>343.1</ele>
  <time>2026-09-01T19:51:43Z</time>
  <course>270.0</course>
  <speed>0.0</speed>
  <fix>3d</fix>
</trkpt>
<trkpt lat="-27.274439" lon="151.290064">
  <ele>343.06</ele>
  <time>2026-09-01T19:51:43Z</time>
  <course>10.7</course>
  <speed>0.0</speed>
  <fix>3d</fix>
</trkpt>
<trkpt lat="-27.274439" lon="151.290064">
  <ele>343.1</ele>
  <time>2026-09-01T19:51:43Z</time>
  <course>270.0</course>
  <speed>0.0</speed>
  <fix>3d</fix>
</trkpt>
<trkpt lat="-27.274439" lon="151.290064">
  <ele>343.05</ele>
  <time>2026-09-01T19:51:43Z</time>
  <course>10.7</course>
  <speed>0.0</speed>
  <fix>3d</fix>
</trkpt>
<trkpt lat="-27.274439" lon="151.290064">
  <ele>343.1</ele>
  <time>2026-09-01T19:51:43Z</time>
  <course>270.0</course>
  <speed>0.0</speed>
  <fix>3d</fix>
</trkpt>
<trkpt lat="-27.274439" lon="151.290064">
  <ele>343.04</ele>
  <time>2026-09-01T19:51:43Z</time>
  <course>10.7</course>
  <speed>0.0</speed>
  <fix>3d</fix>
</trkpt>
<trkpt lat="-27.274439" lon="151.290064">
  <ele>343.1</ele>
  <time>2026-09-01T19:51:43Z</time>
  <course>270.0</course>
  <speed>0.0</speed>
  <fix>3d</fix>
</trkpt>
<trkpt lat="-27.274439" lon="151.290064">
  <ele>343.03</ele>
  <time>2026-09-01T19:51:43Z</time>
  <course>10.7</course>
  <speed>0.0</speed>
  <fix>3d</fix>
</trkpt>
<trkpt lat="-27.274439" lon="151.290064">
  <ele>343.1</ele>
  <time>2026-09-01T19:51:43Z</time>
  <course>270.0</course>
  <speed>0.0</speed>
  <fix>3d</fix>
</trkpt>
<trkpt lat="-27.274439" lon="151.290064">
  <ele>343.03</ele>
  <time>2026-09-01T19:51:43Z</time>
  <course>10.7</course>
  <speed>0.0</speed>
  <fix>3d</fix>
</trkpt>
<trkpt lat="-27.274439" lon="151.290064">
  <ele>343.1</ele>
  <time>2026-09-01T19:51:43Z</time>
  <course>270.0</course>
  <speed>0.0</speed>
  <fix>3d</fix>
</trkpt>
<trkpt lat="-27.274439" lon="151.290064">
  <ele>343.02</ele>
  <time>2026-09-01T19:51:43Z</time>
  <course>10.7</course>
  <speed>0.0</speed>
  <fix>3d</fix>
</trkpt>
<trkpt lat="-27.274439" lon="151.290064">
  <ele>343.1</ele>
  <time>2026-09-01T19:51:43Z</time>
  <course>270.0</course>
  <speed>0.0</speed>
  <fix>3d</fix>
</trkpt>
<trkpt lat="-27.274439" lon="151.290064">
  <ele>343.02</ele>
  <time>2026-09-01T19:51:43Z</time>
  <course>10.7</course>
  <speed>0.0</speed>
  <fix>3d</fix>
</trkpt>
<trkpt lat="-27.274439" lon="151.290064">
  <ele>343.1</ele>
  <time>2026-09-01T19:51:43Z</time>
  <course>270.0</course>
  <speed>0.0</speed>
  <fix>3d</fix>
</trkpt>
<trkpt lat="-27.274439" lon="151.290064">
  <ele>343.02</ele>
  <time>2026-09-01T19:51:43Z</time>
  <course>10.7</course>
  <speed>0.0</speed>
  <fix>3d</fix>
</trkpt>
<trkpt lat="-27.274439" lon="151.290064">
  <ele>343.1</ele>
  <time>2026-09-01T19:51:43Z</time>
  <course>270.0</course>
  <speed>0.0</speed>
  <fix>3d</fix>
</trkpt>
<trkpt lat="-27.274439" lon="151.290064">
  <ele>343.01</ele>
  <time>2026-09-01T19:51:43Z</time>
  <course>10.7</course>
  <speed>0.0</speed>
  <fix>3d</fix>
</trkpt>
<trkpt lat="-27.274439" lon="151.290064">
  <ele>343.1</ele>
  <time>2026-09-01T19:51:43Z</time>
  <course>270.0</course>
  <speed>0.0</speed>
  <fix>3d</fix>
</trkpt>
<trkpt lat="-27.274439" lon="151.290064">
  <ele>343.0</ele>
  <time>2026-09-01T19:51:43Z</time>
  <course>10.7</course>
  <speed>0.0</speed>
  <fix>3d</fix>
</trkpt>
<trkpt lat="-27.274439" lon="151.290064">
  <ele>343.1</ele>
  <time>2026-09-01T19:51:43Z</time>
  <course>270.0</course>
  <speed>0.0</speed>
  <fix>3d</fix>
</trkpt>
<trkpt lat="-27.274439" lon="151.290064">
  <ele>343.0</ele>
  <time>2026-09-01T19:51:43Z</time>
  <course>10.7</course>
  <speed>0.0</speed>
  <fix>3d</fix>
</trkpt>
<trkpt lat="-27.274439" lon="151.290064">
  <ele>343.1</ele>
  <time>2026-09-01T19:51:43Z</time>
  <course>270.0</course>
  <speed>0.0</speed>
  <fix>3d</fix>
</trkpt>
<trkpt lat="-27.274439" lon="151.290064">
  <ele>342.99</ele>
  <time>2026-09-01T19:51:43Z</time>
  <course>10.7</course>
  <speed>0.0</speed>
  <fix>3d</fix>
</trkpt>
<trkpt lat="-27.274439" lon="151.290064">
  <ele>343.1</ele>
  <time>2026-09-01T19:51:43Z</time>
  <course>270.0</course>
  <speed>0.0</speed>
  <fix>3d</fix>
</trkpt>
<trkpt lat="-27.274439" lon="151.290064">
  <ele>342.99</ele>
  <time>2026-09-01T19:51:43Z</time>
  <course>10.7</course>
  <speed>0.0</speed>
  <fix>3d</fix>
</trkpt>
<trkpt lat="-27.274439" lon="151.290064">
  <ele>343.1</ele>
  <time>2026-09-01T19:51:43Z</time>
  <course>270.0</course>
  <speed>0.0</speed>
  <fix>3d</fix>
</trkpt>
<trkpt lat="-27.274439" lon="151.290064">
  <ele>342.99</ele>
  <time>2026-09-01T19:51:43Z</time>
  <course>10.69</course>
  <speed>0.0</speed>
  <fix>3d</fix>
</trkpt>
<trkpt lat="-27.274439" lon="151.290064">
  <ele>343.1</ele>
  <time>2026-09-01T19:51:43Z</time>
  <course>270.0</course>
  <speed>0.0</speed>
  <fix>3d</fix>
</trkpt>
<trkpt lat="-27.274439" lon="151.290064">
  <ele>342.99</ele>
  <time>2026-09-01T19:51:43Z</time>
  <course>10.69</course>
  <speed>0.0</speed>
  <fix>3d</fix>
</trkpt>
<trkpt lat="-27.274439" lon="151.290064">
  <ele>343.1</ele>
  <time>2026-09-01T19:51:43Z</time>
  <course>270.0</course>
  <speed>0.0</speed>
  <fix>3d</fix>
</trkpt>
<trkpt lat="-27.274439" lon="151.290064">
  <ele>342.98</ele>
  <time>2026-09-01T19:51:43Z</time>
  <course>10.69</course>
  <speed>0.0</speed>
  <fix>3d</fix>
</trkpt>
<trkpt lat="-27.274439" lon="151.290064">
  <ele>343.1</ele>
  <time>2026-09-01T19:51:43Z</time>
  <course>270.0</course>
  <speed>0.0</speed>
  <fix>3d</fix>
</trkpt>
<trkpt lat="-27.274439" lon="151.290064">
  <ele>342.98</ele>
  <time>2026-09-01T19:51:43Z</time>
  <course>10.69</course>
  <speed>0.0</speed>
  <fix>3d</fix>
</trkpt>
<trkpt lat="-27.274439" lon="151.290064">
  <ele>343.1</ele>
  <time>2026-09-01T19:51:43Z</time>
  <course>270.0</course>
  <speed>0.0</speed>
  <fix>3d</fix>
</trkpt>
<trkpt lat="-27.274439" lon="151.290064">
  <ele>342.97</ele>
  <time>2026-09-01T19:51:43Z</time>
  <course>10.69</course>
  <speed>0.0</speed>
  <fix>3d</fix>
</trkpt>
<trkpt lat="-27.274439" lon="151.290064">
  <ele>343.1</ele>
  <time>2026-09-01T19:51:43Z</time>
  <course>270.0</course>
  <speed>0.0</speed>
  <fix>3d</fix>
</trkpt>
<trkpt lat="-27.274439" lon="151.290064">
  <ele>342.97</ele>
  <time>2026-09-01T19:51:43Z</time>
  <course>10.69</course>
  <speed>0.0</speed>
  <fix>3d</fix>
</trkpt>
<trkpt lat="-27.274439" lon="151.290064">
  <ele>343.1</ele>
  <time>2026-09-01T19:51:43Z</time>
  <course>270.0</course>
  <speed>0.0</speed>
  <fix>3d</fix>
</trkpt>
<trkpt lat="-27.274439" lon="151.290064">
  <ele>342.97</ele>
  <time>2026-09-01T19:51:43Z</time>
  <course>10.69</course>
  <speed>0.0</speed>
  <fix>3d</fix>
</trkpt>
<trkpt lat="-27.274439" lon="151.290064">
  <ele>343.1</ele>
  <time>2026-09-01T19:51:43Z</time>
  <course>270.0</course>
  <speed>0.0</speed>
  <fix>3d</fix>
</trkpt>
<trkpt lat="-27.274439" lon="151.290064">
  <ele>342.97</ele>
  <time>2026-09-01T19:51:43Z</time>
  <course>10.69</course>
  <speed>0.0</speed>
  <fix>3d</fix>
</trkpt>
<trkpt lat="-27.274439" lon="151.290064">
  <ele>343.1</ele>
  <time>2026-09-01T19:51:43Z</time>
  <course>270.0</course>
  <speed>0.0</speed>
  <fix>3d</fix>
</trkpt>
<trkpt lat="-27.274439" lon="151.290064">
  <ele>342.97</ele>
  <time>2026-09-01T19:51:43Z</time>
  <course>10.69</course>
  <speed>0.0</speed>
  <fix>3d</fix>
</trkpt>
<trkpt lat="-27.274439" lon="151.290064">
  <ele>343.1</ele>
  <time>2026-09-01T19:51:43Z</time>
  <course>270.0</course>
  <speed>0.0</speed>
  <fix>3d</fix>
</trkpt>
<trkpt lat="-27.274439" lon="151.290064">
  <ele>342.96</ele>
  <time>2026-09-01T19:51:43Z</time>
  <course>10.69</course>
  <speed>0.0</speed>
  <fix>3d</fix>
</trkpt>
<trkpt lat="-27.274439" lon="151.290064">
  <ele>343.1</ele>
  <time>2026-09-01T19:51:43Z</time>
  <course>270.0</course>
  <speed>0.0</speed>
  <fix>3d</fix>
</trkpt>
<trkpt lat="-27.274439" lon="151.290064">
  <ele>342.96</ele>
  <time>2026-09-01T19:51:43Z</time>
  <course>10.69</course>
  <speed>0.01</speed>
  <fix>3d</fix>
</trkpt>
<trkpt lat="-27.274439" lon="151.290064">
  <ele>343.1</ele>
  <time>2026-09-01T19:51:43Z</time>
  <course>270.0</course>
  <speed>0.0</speed>
  <fix>3d</fix>
</trkpt>
<trkpt lat="-27.274439" lon="151.290064">
  <ele>342.96</ele>
  <time>2026-09-01T19:51:43Z</time>
  <course>10.69</course>
  <speed>0.01</speed>
  <fix>3d</fix>
</trkpt>
<trkpt lat="-27.274439" lon="151.290064">
  <ele>343.1</ele>
  <time>2026-09-01T19:51:43Z</time>
  <course>270.0</course>
  <speed>0.0</speed>
  <fix>3d</fix>
</trkpt>
<trkpt lat="-27.274439" lon="151.290064">
  <ele>342.96</ele>
  <time>2026-09-01T19:51:43Z</time>
  <course>10.69</course>
  <speed>0.01</speed>
  <fix>3d</fix>
</trkpt>
<trkpt lat="-27.274439" lon="151.290064">
  <ele>343.1</ele>
  <time>2026-09-01T19:51:43Z</time>
  <course>270.0</course>
  <speed>0.0</speed>
  <fix>3d</fix>
</trkpt>
<trkpt lat="-27.274439" lon="151.290064">
  <ele>342.95</ele>
  <time>2026-09-01T19:51:43Z</time>
  <course>10.69</course>
  <speed>0.01</speed>
  <fix>3d</fix>
</trkpt>
<trkpt lat="-27.274439" lon="151.290064">
  <ele>343.1</ele>
  <time>2026-09-01T19:51:43Z</time>
  <course>270.0</course>
  <speed>0.0</speed>
  <fix>3d</fix>
</trkpt>
<trkpt lat="-27.274439" lon="151.290064">
  <ele>342.95</ele>
  <time>2026-09-01T19:51:43Z</time>
  <course>10.69</course>
  <speed>0.01</speed>
  <fix>3d</fix>
</trkpt>
<trkpt lat="-27.274439" lon="151.290064">
  <ele>343.1</ele>
  <time>2026-09-01T19:51:43Z</time>
  <course>270.0</course>
  <speed>0.0</speed>
  <fix>3d</fix>
</trkpt>
<trkpt lat="-27.274439" lon="151.290064">
  <ele>342.95</ele>
  <time>2026-09-01T19:51:43Z</time>
  <course>10.69</course>
  <speed>0.01</speed>
  <fix>3d</fix>
</trkpt>
<trkpt lat="-27.274439" lon="151.290064">
  <ele>343.1</ele>
  <time>2026-09-01T19:51:43Z</time>
  <course>270.0</course>
  <speed>0.0</speed>
  <fix>3d</fix>
</trkpt>
<trkpt lat="-27.274439" lon="151.290064">
  <ele>342.95</ele>
  <time>2026-09-01T19:51:43Z</time>
  <course>10.69</course>
  <speed>0.01</speed>
  <fix>3d</fix>
</trkpt>
<trkpt lat="-27.274439" lon="151.290064">
  <ele>343.1</ele>
  <time>2026-09-01T19:51:43Z</time>
  <course>270.0</course>
  <speed>0.0</speed>
  <fix>3d</fix>
</trkpt>
<trkpt lat="-27.274439" lon="151.290064">
  <ele>342.95</ele>
  <time>2026-09-01T19:51:43Z</time>
  <course>10.69</course>
  <speed>0.01</speed>
  <fix>3d</fix>
</trkpt>
<trkpt lat="-27.274439" lon="151.290064">
  <ele>343.1</ele>
  <time>2026-09-01T19:51:43Z</time>
  <course>270.0</course>
  <speed>0.0</speed>
  <fix>3d</fix>
</trkpt>
<trkpt lat="-27.274439" lon="151.290064">
  <ele>342.95</ele>
  <time>2026-09-01T19:51:43Z</time>
  <course>10.69</course>
  <speed>0.01</speed>
  <fix>3d</fix>
</trkpt>
<trkpt lat="-27.274439" lon="151.290064">
  <ele>343.1</ele>
  <time>2026-09-01T19:51:43Z</time>
  <course>270.0</course>
  <speed>0.0</speed>
  <fix>3d</fix>
</trkpt>
<trkpt lat="-27.274439" lon="151.290064">
  <ele>342.94</ele>
  <time>2026-09-01T19:51:43Z</time>
  <course>10.69</course>
  <speed>0.01</speed>
  <fix>3d</fix>
</trkpt>
<trkpt lat="-27.274439" lon="151.290064">
  <ele>343.1</ele>
  <time>2026-09-01T19:51:43Z</time>
  <course>270.0</course>
  <speed>0.0</speed>
  <fix>3d</fix>
</trkpt>
<trkpt lat="-27.274439" lon="151.290064">
  <ele>342.94</ele>
  <time>2026-09-01T19:51:43Z</time>
  <course>10.69</course>
  <speed>0.01</speed>
  <fix>3d</fix>
</trkpt>
<trkpt lat="-27.274439" lon="151.290064">
  <ele>343.1</ele>
  <time>2026-09-01T19:51:43Z</time>
  <course>270.0</course>
  <speed>0.0</speed>
  <fix>3d</fix>
</trkpt>
<trkpt lat="-27.274439" lon="151.290064">
  <ele>342.94</ele>
  <time>2026-09-01T19:51:43Z</time>
  <course>10.69</course>
  <speed>0.01</speed>
  <fix>3d</fix>
</trkpt>
<trkpt lat="-27.274439" lon="151.290064">
  <ele>343.1</ele>
  <time>2026-09-01T19:51:43Z</time>
  <course>270.0</course>
  <speed>0.0</speed>
  <fix>3d</fix>
</trkpt>
<trkpt lat="-27.274439" lon="151.290064">
  <ele>342.94</ele>
  <time>2026-09-01T19:51:43Z</time>
  <course>10.68</course>
  <speed>0.01</speed>
  <fix>3d</fix>
</trkpt>
<trkpt lat="-27.274439" lon="151.290064">
  <ele>343.1</ele>
  <time>2026-09-01T19:51:43Z</time>
  <course>270.0</course>
  <speed>0.0</speed>
  <fix>3d</fix>
</trkpt>
<trkpt lat="-27.274439" lon="151.290064">
  <ele>342.94</ele>
  <time>2026-09-01T19:51:43Z</time>
  <course>10.68</course>
  <speed>0.01</speed>
  <fix>3d</fix>
</trkpt>
<trkpt lat="-27.274439" lon="151.290064">
  <ele>343.1</ele>
  <time>2026-09-01T19:51:43Z</time>
  <course>270.0</course>
  <speed>0.0</speed>
  <fix>3d</fix>
</trkpt>
<trkpt lat="-27.274439" lon="151.290064">
  <ele>342.94</ele>
  <time>2026-09-01T19:51:43Z</time>
  <course>10.68</course>
  <speed>0.01</speed>
  <fix>3d</fix>
</trkpt>
<trkpt lat="-27.274439" lon="151.290064">
  <ele>343.1</ele>
  <time>2026-09-01T19:51:43Z</time>
  <course>270.0</course>
  <speed>0.0</speed>
  <fix>3d</fix>
</trkpt>
<trkpt lat="-27.274439" lon="151.290064">
  <ele>342.94</ele>
  <time>2026-09-01T19:51:43Z</time>
  <course>10.68</course>
  <speed>0.01</speed>
  <fix>3d</fix>
</trkpt>
<trkpt lat="-27.274439" lon="151.290064">
  <ele>343.1</ele>
  <time>2026-09-01T19:51:43Z</time>
  <course>270.0</course>
  <speed>0.0</speed>
  <fix>3d</fix>
</trkpt>
<trkpt lat="-27.274439" lon="151.290064">
  <ele>342.94</ele>
  <time>2026-09-01T19:51:43Z</time>
  <course>10.68</course>
  <speed>0.01</speed>
  <fix>3d</fix>
</trkpt>
<trkpt lat="-27.274439" lon="151.290064">
  <ele>343.1</ele>
  <time>2026-09-01T19:51:43Z</time>
  <course>270.0</course>
  <speed>0.0</speed>
  <fix>3d</fix>
</trkpt>
<trkpt lat="-27.274439" lon="151.290064">
  <ele>342.93</ele>
  <time>2026-09-01T19:51:43Z</time>
  <course>10.68</course>
  <speed>0.01</speed>
  <fix>3d</fix>
</trkpt>
<trkpt lat="-27.274439" lon="151.290064">
  <ele>343.1</ele>
  <time>2026-09-01T19:51:43Z</time>
  <course>270.0</course>
  <speed>0.0</speed>
  <fix>3d</fix>
</trkpt>
<trkpt lat="-27.274439" lon="151.290064">
  <ele>342.93</ele>
  <time>2026-09-01T19:51:43Z</time>
  <course>10.68</course>
  <speed>0.01</speed>
  <fix>3d</fix>
</trkpt>
<trkpt lat="-27.274439" lon="151.290064">
  <ele>343.1</ele>
  <time>2026-09-01T19:51:43Z</time>
  <course>270.0</course>
  <speed>0.0</speed>
  <fix>3d</fix>
</trkpt>
<trkpt lat="-27.274439" lon="151.290064">
  <ele>342.93</ele>
  <time>2026-09-01T19:51:43Z</time>
  <course>10.68</course>
  <speed>0.01</speed>
  <fix>3d</fix>
</trkpt>
<trkpt lat="-27.274439" lon="151.290064">
  <ele>343.1</ele>
  <time>2026-09-01T19:51:43Z</time>
  <course>270.0</course>
  <speed>0.0</speed>
  <fix>3d</fix>
</trkpt>
<trkpt lat="-27.274439" lon="151.290064">
  <ele>342.93</ele>
  <time>2026-09-01T19:51:43Z</time>
  <course>10.68</course>
  <speed>0.01</speed>
  <fix>3d</fix>
</trkpt>
<trkpt lat="-27.274439" lon="151.290064">
  <ele>343.1</ele>
  <time>2026-09-01T19:51:43Z</time>
  <course>270.0</course>
  <speed>0.0</speed>
  <fix>3d</fix>
</trkpt>
<trkpt lat="-27.274439" lon="151.290064">
  <ele>342.93</ele>
  <time>2026-09-01T19:51:43Z</time>
  <course>10.68</course>
  <speed>0.01</speed>
  <fix>3d</fix>
</trkpt>
<trkpt lat="-27.274439" lon="151.290064">
  <ele>343.1</ele>
  <time>2026-09-01T19:51:43Z</time>
  <course>270.0</course>
  <speed>0.0</speed>
  <fix>3d</fix>
</trkpt>
<trkpt lat="-27.274439" lon="151.290064">
  <ele>342.93</ele>
  <time>2026-09-01T19:51:43Z</time>
  <course>10.68</course>
  <speed>0.01</speed>
  <fix>3d</fix>
</trkpt>
<trkpt lat="-27.274439" lon="151.290064">
  <ele>343.1</ele>
  <time>2026-09-01T19:51:43Z</time>
  <course>270.0</course>
  <speed>0.0</speed>
  <fix>3d</fix>
</trkpt>
<trkpt lat="-27.274439" lon="151.290064">
  <ele>342.93</ele>
  <time>2026-09-01T19:51:43Z</time>
  <course>10.68</course>
  <speed>0.01</speed>
  <fix>3d</fix>
</trkpt>
<trkpt lat="-27.274439" lon="151.290064">
  <ele>343.1</ele>
  <time>2026-09-01T19:51:43Z</time>
  <course>270.0</course>
  <speed>0.0</speed>
  <fix>3d</fix>
</trkpt>
<trkpt lat="-27.274439" lon="151.290064">
  <ele>342.93</ele>
  <time>2026-09-01T19:51:43Z</time>
  <course>10.68</course>
  <speed>0.01</speed>
  <fix>3d</fix>
</trkpt>
<trkpt lat="-27.274439" lon="151.290064">
  <ele>343.1</ele>
  <time>2026-09-01T19:51:43Z</time>
  <course>270.0</course>
  <speed>0.0</speed>
  <fix>3d</fix>
</trkpt>
<trkpt lat="-27.274439" lon="151.290064">
  <ele>342.93</ele>
  <time>2026-09-01T19:51:43Z</time>
  <course>10.68</course>
  <speed>0.01</speed>
  <fix>3d</fix>
</trkpt>
<trkpt lat="-27.274439" lon="151.290064">
  <ele>343.1</ele>
  <time>2026-09-01T19:51:43Z</time>
  <course>270.0</course>
  <speed>0.0</speed>
  <fix>3d</fix>
</trkpt>
<trkpt lat="-27.274439" lon="151.290064">
  <ele>343.09</ele>
  <time>2026-09-01T19:51:43Z</time>
  <course>10.68</course>
  <speed>0.01</speed>
  <fix>3d</fix>
</trkpt>
<trkpt lat="-27.274439" lon="151.290064">
  <ele>343.1</ele>
  <time>2026-09-01T19:51:43Z</time>
  <course>270.0</course>
  <speed>0.0</speed>
  <fix>3d</fix>
</trkpt>
<trkpt lat="-27.274439" lon="151.290064">
  <ele>343.09</ele>
  <time>2026-09-01T19:51:43Z</time>
  <course>10.68</course>
  <speed>0.01</speed>
  <fix>3d</fix>
</trkpt>
<trkpt lat="-27.274439" lon="151.290064">
  <ele>343.1</ele>
  <time>2026-09-01T19:51:43Z</time>
  <course>270.0</course>
  <speed>0.0</speed>
  <fix>3d</fix>
</trkpt>
<trkpt lat="-27.274439" lon="151.290064">
  <ele>343.09</ele>
  <time>2026-09-01T19:51:43Z</time>
  <course>10.68</course>
  <speed>0.01</speed>
  <fix>3d</fix>
</trkpt>
<trkpt lat="-27.274439" lon="151.290064">
  <ele>343.1</ele>
  <time>2026-09-01T19:51:43Z</time>
  <course>270.0</course>
  <speed>0.0</speed>
  <fix>3d</fix>
</trkpt>
<trkpt lat="-27.274439" lon="151.290064">
  <ele>343.09</ele>
  <time>2026-09-01T19:51:43Z</time>
  <course>10.68</course>
  <speed>0.01414213562373095</speed>
  <fix>3d</fix>
</trkpt>
<trkpt lat="-27.274439" lon="151.290064">
  <ele>343.1</ele>
  <time>2026-09-01T19:51:43Z</time>
  <course>270.0</course>
  <speed>0.0</speed>
  <fix>3d</fix>
</trkpt>
<trkpt lat="-27.274439" lon="151.290064">
  <ele>343.09</ele>
  <time>2026-09-01T19:51:43Z</time>
  <course>10.68</course>
  <speed>0.01414213562373095</speed>
  <fix>3d</fix>
</trkpt>
<trkpt lat="-27.274439" lon="151.290064">
  <ele>343.1</ele>
  <time>2026-09-01T19:51:43Z</time>
  <course>270.0</course>
  <speed>0.0</speed>
  <fix>3d</fix>
</trkpt>
<trkpt lat="-27.2744391" lon="151.290064">
  <ele>343.09</ele>
  <time>2026-09-01T19:51:43Z</time>
  <course>10.68</course>
  <speed>0.01414213562373095</speed>
  <fix>3d</fix>
</trkpt>
<trkpt lat="-27.274439" lon="151.290064">
  <ele>343.1</ele>
  <time>2026-09-01T19:51:43Z</time>
  <course>270.0</course>
  <speed>0.0</speed>
  <fix>3d</fix>
</trkpt>
<trkpt lat="-27.2744391" lon="151.290064">
  <ele>343.09</ele>
  <time>2026-09-01T19:51:43Z</time>
  <course>10.68</course>
  <speed>0.01414213562373095</speed>
  <fix>3d</fix>
</trkpt>
<trkpt lat="-27.274439" lon="151.290064">
  <ele>343.1</ele>
  <time>2026-09-01T19:51:43Z</time>
  <course>270.0</course>
  <speed>0.0</speed>
  <fix>3d</fix>
</trkpt>
<trkpt lat="-27.2744391" lon="151.290064">
  <ele>343.09</ele>
  <time>2026-09-01T19:51:43Z</time>
  <course>10.68</course>
  <speed>0.01414213562373095</speed>
  <fix>3d</fix>
</trkpt>
<trkpt lat="-27.274439" lon="151.290064">
  <ele>343.1</ele>
  <time>2026-09-01T19:51:43Z</time>
  <course>270.0</course>
  <speed>0.0</speed>
  <fix>3d</fix>
</trkpt>
<trkpt lat="-27.2744391" lon="151.290064">
  <ele>343.1</ele>
  <time>2026-09-01T19:51:43Z</time>
  <course>10.68</course>
  <speed>0.01414213562373095</speed>
  <fix>3d</fix>
</trkpt>
<trkpt lat="-27.274439" lon="151.290064">
  <ele>343.1</ele>
  <time>2026-09-01T19:51:43Z</time>
  <course>270.0</course>
  <speed>0.0</speed>
  <fix>3d</fix>
</trkpt>
<trkpt lat="-27.2744391" lon="151.290064">
  <ele>343.1</ele>
  <time>2026-09-01T19:51:43Z</time>
  <course>10.68</course>
  <speed>0.01414213562373095</speed>
  <fix>3d</fix>
</trkpt>
<trkpt lat="-27.274439" lon="151.290064">
  <ele>343.1</ele>
  <time>2026-09-01T19:51:43Z</time>
  <course>270.0</course>
  <speed>0.0</speed>
  <fix>3d</fix>
</trkpt>
<trkpt lat="-27.2744391" lon="151.290064">
  <ele>343.1</ele>
  <time>2026-09-01T19:51:43Z</time>
  <course>10.68</course>
  <speed>0.01414213562373095</speed>
  <fix>3d</fix>
</trkpt>
<trkpt lat="-27.274439" lon="151.290064">
  <ele>343.1</ele>
  <time>2026-09-01T19:51:43Z</time>
  <course>270.0</course>
  <speed>0.0</speed>
  <fix>3d</fix>
</trkpt>
<trkpt lat="-27.2744391" lon="151.290064">
  <ele>343.1</ele>
  <time>2026-09-01T19:51:43Z</time>
  <course>10.68</course>
  <speed>0.01414213562373095</speed>
  <fix>3d</fix>
</trkpt>
<trkpt lat="-27.274439" lon="151.290064">
  <ele>343.1</ele>
  <time>2026-09-01T19:51:43Z</time>
  <course>270.0</course>
  <speed>0.0</speed>
  <fix>3d</fix>
</trkpt>
<trkpt lat="-27.2744391" lon="151.290064">
  <ele>343.1</ele>
  <time>2026-09-01T19:51:43Z</time>
  <course>10.68</course>
  <speed>0.01414213562373095</speed>
  <fix>3d</fix>
</trkpt>
<trkpt lat="-27.274439" lon="151.290064">
  <ele>343.1</ele>
  <time>2026-09-01T19:51:43Z</time>
  <course>270.0</course>
  <speed>0.0</speed>
  <fix>3d</fix>
</trkpt>
<trkpt lat="-27.2744391" lon="151.290064">
  <ele>343.1</ele>
  <time>2026-09-01T19:51:43Z</time>
  <course>10.68</course>
  <speed>0.01414213562373095</speed>
  <fix>3d</fix>
</trkpt>
<trkpt lat="-27.274439" lon="151.290064">
  <ele>343.1</ele>
  <time>2026-09-01T19:51:43Z</time>
  <course>270.0</course>
  <speed>0.0</speed>
  <fix>3d</fix>
</trkpt>
<trkpt lat="-27.2744391" lon="151.290064">
  <ele>343.1</ele>
  <time>2026-09-01T19:51:43Z</time>
  <course>10.68</course>
  <speed>0.01414213562373095</speed>
  <fix>3d</fix>
</trkpt>
<trkpt lat="-27.274439" lon="151.290064">
  <ele>343.1</ele>
  <time>2026-09-01T19:51:43Z</time>
  <course>270.0</course>
  <speed>0.0</speed>
  <fix>3d</fix>
</trkpt>
<trkpt lat="-27.2744391" lon="151.290064">
  <ele>343.09</ele>
  <time>2026-09-01T19:51:43Z</time>
  <course>10.68</course>
  <speed>0.01414213562373095</speed>
  <fix>3d</fix>
</trkpt>
<trkpt lat="-27.274439" lon="151.290064">
  <ele>343.1</ele>
  <time>2026-09-01T19:51:43Z</time>
  <course>270.0</course>
  <speed>0.0</speed>
  <fix>3d</fix>
</trkpt>
<trkpt lat="-27.2744391" lon="151.290064">
  <ele>343.09</ele>
  <time>2026-09-01T19:51:43Z</time>
  <course>10.68</course>
  <speed>0.01414213562373095</speed>
  <fix>3d</fix>
</trkpt>
<trkpt lat="-27.274439" lon="151.290064">
  <ele>343.1</ele>
  <time>2026-09-01T19:51:43Z</time>
  <course>270.0</course>
  <speed>0.0</speed>
  <fix>3d</fix>
</trkpt>
<trkpt lat="-27.2744391" lon="151.290064">
  <ele>343.09</ele>
  <time>2026-09-01T19:51:43Z</time>
  <course>10.68</course>
  <speed>0.01414213562373095</speed>
  <fix>3d</fix>
</trkpt>
<trkpt lat="-27.274439" lon="151.290064">
  <ele>343.1</ele>
  <time>2026-09-01T19:51:43Z</time>
  <course>270.0</course>
  <speed>0.0</speed>
  <fix>3d</fix>
</trkpt>
<trkpt lat="-27.2744391" lon="151.290064">
  <ele>343.1</ele>
  <time>2026-09-01T19:51:43Z</time>
  <course>10.68</course>
  <speed>0.01414213562373095</speed>
  <fix>3d</fix>
</trkpt>
<trkpt lat="-27.274439" lon="151.290064">
  <ele>343.1</ele>
  <time>2026-09-01T19:51:43Z</time>
  <course>270.0</course>
  <speed>0.0</speed>
  <fix>3d</fix>
</trkpt>
<trkpt lat="-27.2744391" lon="151.290064">
  <ele>343.1</ele>
  <time>2026-09-01T19:51:43Z</time>
  <course>10.68</course>
  <speed>0.01414213562373095</speed>
  <fix>3d</fix>
</trkpt>
<trkpt lat="-27.274439" lon="151.290064">
  <ele>343.1</ele>
  <time>2026-09-01T19:51:43Z</time>
  <course>270.0</course>
  <speed>0.0</speed>
  <fix>3d</fix>
</trkpt>
<trkpt lat="-27.2744391" lon="151.290064">
  <ele>343.09</ele>
  <time>2026-09-01T19:51:43Z</time>
  <course>10.68</course>
  <speed>0.01414213562373095</speed>
  <fix>3d</fix>
</trkpt>
<trkpt lat="-27.274439" lon="151.290064">
  <ele>343.1</ele>
  <time>2026-09-01T19:51:43Z</time>
  <course>270.0</course>
  <speed>0.0</speed>
  <fix>3d</fix>
</trkpt>
<trkpt lat="-27.2744391" lon="151.290064">
  <ele>343.09</ele>
  <time>2026-09-01T19:51:43Z</time>
  <course>10.68</course>
  <speed>0.01414213562373095</speed>
  <fix>3d</fix>
</trkpt>
<trkpt lat="-27.274439" lon="151.290064">
  <ele>343.1</ele>
  <time>2026-09-01T19:51:43Z</time>
  <course>270.0</course>
  <speed>0.0</speed>
  <fix>3d</fix>
</trkpt>
<trkpt lat="-27.2744391" lon="151.290064">
  <ele>343.09</ele>
  <time>2026-09-01T19:51:43Z</time>
  <course>10.68</course>
  <speed>0.01414213562373095</speed>
  <fix>3d</fix>
</trkpt>
<trkpt lat="-27.274439" lon="151.290064">
  <ele>343.1</ele>
  <time>2026-09-01T19:51:43Z</time>
  <course>270.0</course>
  <speed>0.0</speed>
  <fix>3d</fix>
</trkpt>
<trkpt lat="-27.2744391" lon="151.2900641">
  <ele>343.09</ele>
  <time>2026-09-01T19:51:43Z</time>
  <course>10.68</course>
  <speed>0.01414213562373095</speed>
  <fix>3d</fix>
</trkpt>
<trkpt lat="-27.274439" lon="151.290064">
  <ele>343.1</ele>
  <time>2026-09-01T19:51:43Z</time>
  <course>270.0</course>
  <speed>0.0</speed>
  <fix>3d</fix>
</trkpt>
<trkpt lat="-27.2744391" lon="151.2900641">
  <ele>343.08</ele>
  <time>2026-09-01T19:51:43Z</time>
  <course>10.68</course>
  <speed>0.01414213562373095</speed>
  <fix>3d</fix>
</trkpt>
<trkpt lat="-27.274439" lon="151.290064">
  <ele>343.1</ele>
  <time>2026-09-01T19:51:43Z</time>
  <course>270.0</course>
  <speed>0.0</speed>
  <fix>3d</fix>
</trkpt>
<trkpt lat="-27.2744391" lon="151.2900641">
  <ele>343.08</ele>
  <time>2026-09-01T19:51:43Z</time>
  <course>10.68</course>
  <speed>0.01414213562373095</speed>
  <fix>3d</fix>
</trkpt>
<trkpt lat="-27.274439" lon="151.290064">
  <ele>343.1</ele>
  <time>2026-09-01T19:51:43Z</time>
  <course>270.0</course>
  <speed>0.0</speed>
  <fix>3d</fix>
</trkpt>
<trkpt lat="-27.2744391" lon="151.2900641">
  <ele>343.08</ele>
  <time>2026-09-01T19:51:43Z</time>
  <course>10.68</course>
  <speed>0.01414213562373095</speed>
  <fix>3d</fix>
</trkpt>
<trkpt lat="-27.274439" lon="151.290064">
  <ele>343.1</ele>
  <time>2026-09-01T19:51:43Z</time>
  <course>270.0</course>
  <speed>0.0</speed>
  <fix>3d</fix>
</trkpt>
<trkpt lat="-27.2744391" lon="151.2900641">
  <ele>343.08</ele>
  <time>2026-09-01T19:51:43Z</time>
  <course>10.68</course>
  <speed>0.01414213562373095</speed>
  <fix>3d</fix>
</trkpt>
<trkpt lat="-27.274439" lon="151.290064">
  <ele>343.1</ele>
  <time>2026-09-01T19:51:43Z</time>
  <course>270.0</course>
  <speed>0.0</speed>
  <fix>3d</fix>
</trkpt>
<trkpt lat="-27.2744391" lon="151.2900641">
  <ele>343.09</ele>
  <time>2026-09-01T19:51:43Z</time>
  <course>10.67</course>
  <speed>0.01414213562373095</speed>
  <fix>3d</fix>
</trkpt>
<trkpt lat="-27.274439" lon="151.290064">
  <ele>343.1</ele>
  <time>2026-09-01T19:51:43Z</time>
  <course>270.0</course>
  <speed>0.0</speed>
  <fix>3d</fix>
</trkpt>
<trkpt lat="-27.2744391" lon="151.2900641">
  <ele>343.09</ele>
  <time>2026-09-01T19:51:43Z</time>
  <course>10.67</course>
  <speed>0.01414213562373095</speed>
  <fix>3d</fix>
</trkpt>
<trkpt lat="-27.274439" lon="151.290064">
  <ele>343.1</ele>
  <time>2026-09-01T19:51:43Z</time>
  <course>270.0</course>
  <speed>0.0</speed>
  <fix>3d</fix>
</trkpt>
<trkpt lat="-27.2744391" lon="151.2900641">
  <ele>343.09</ele>
  <time>2026-09-01T19:51:43Z</time>
  <course>10.67</course>
  <speed>0.01414213562373095</speed>
  <fix>3d</fix>
</trkpt>
<trkpt lat="-27.274439" lon="151.290064">
  <ele>343.1</ele>
  <time>2026-09-01T19:51:43Z</time>
  <course>270.0</course>
  <speed>0.0</speed>
  <fix>3d</fix>
</trkpt>
<trkpt lat="-27.2744391" lon="151.2900641">
  <ele>343.09</ele>
  <time>2026-09-01T19:51:43Z</time>
  <course>10.67</course>
  <speed>0.01414213562373095</speed>
  <fix>3d</fix>
</trkpt>
<trkpt lat="-27.274439" lon="151.290064">
  <ele>343.1</ele>
  <time>2026-09-01T19:51:43Z</time>
  <course>270.0</course>
  <speed>0.0</speed>
  <fix>3d</fix>
</trkpt>
<trkpt lat="-27.2744391" lon="151.2900641">
  <ele>343.09</ele>
  <time>2026-09-01T19:51:43Z</time>
  <course>10.67</course>
  <speed>0.01414213562373095</speed>
  <fix>3d</fix>
</trkpt>
<trkpt lat="-27.274439" lon="151.290064">
  <ele>343.1</ele>
  <time>2026-09-01T19:51:43Z</time>
  <course>270.0</course>
  <speed>0.0</speed>
  <fix>3d</fix>
</trkpt>
<trkpt lat="-27.2744391" lon="151.2900641">
  <ele>343.09</ele>
  <time>2026-09-01T19:51:43Z</time>
  <course>10.67</course>
  <speed>0.01414213562373095</speed>
  <fix>3d</fix>
</trkpt>
<trkpt lat="-27.274439" lon="151.290064">
  <ele>343.1</ele>
  <time>2026-09-01T19:51:43Z</time>
  <course>270.0</course>
  <speed>0.0</speed>
  <fix>3d</fix>
</trkpt>
<trkpt lat="-27.2744391" lon="151.2900641">
  <ele>343.09</ele>
  <time>2026-09-01T19:51:43Z</time>
  <course>10.67</course>
  <speed>0.01414213562373095</speed>
  <fix>3d</fix>
</trkpt>
<trkpt lat="-27.274439" lon="151.290064">
  <ele>343.1</ele>
  <time>2026-09-01T19:51:43Z</time>
  <course>270.0</course>
  <speed>0.0</speed>
  <fix>3d</fix>
</trkpt>
<trkpt lat="-27.2744391" lon="151.2900641">
  <ele>343.1</ele>
  <time>2026-09-01T19:51:43Z</time>
  <course>10.67</course>
  <speed>0.01414213562373095</speed>
  <fix>3d</fix>
</trkpt>
<trkpt lat="-27.274439" lon="151.290064">
  <ele>343.1</ele>
  <time>2026-09-01T19:51:43Z</time>
  <course>270.0</course>
  <speed>0.0</speed>
  <fix>3d</fix>
</trkpt>
<trkpt lat="-27.2744391" lon="151.2900641">
  <ele>343.1</ele>
  <time>2026-09-01T19:51:43Z</time>
  <course>10.67</course>
  <speed>0.01414213562373095</speed>
  <fix>3d</fix>
</trkpt>
<trkpt lat="-27.274439" lon="151.290064">
  <ele>343.1</ele>
  <time>2026-09-01T19:51:43Z</time>
  <course>270.0</course>
  <speed>0.0</speed>
  <fix>3d</fix>
</trkpt>
<trkpt lat="-27.2744391" lon="151.2900641">
  <ele>343.1</ele>
  <time>2026-09-01T19:51:43Z</time>
  <course>10.67</course>
  <speed>0.01414213562373095</speed>
  <fix>3d</fix>
</trkpt>
<trkpt lat="-27.274439" lon="151.290064">
  <ele>343.1</ele>
  <time>2026-09-01T19:51:43Z</time>
  <course>270.0</course>
  <speed>0.0</speed>
  <fix>3d</fix>
</trkpt>
<trkpt lat="-27.2744391" lon="151.2900641">
  <ele>343.1</ele>
  <time>2026-09-01T19:51:43Z</time>
  <course>10.67</course>
  <speed>0.01414213562373095</speed>
  <fix>3d</fix>
</trkpt>
<trkpt lat="-27.274439" lon="151.290064">
  <ele>343.1</ele>
  <time>2026-09-01T19:51:43Z</time>
  <course>270.0</course>
  <speed>0.0</speed>
  <fix>3d</fix>
</trkpt>
<trkpt lat="-27.2744391" lon="151.2900641">
  <ele>343.1</ele>
  <time>2026-09-01T19:51:43Z</time>
  <course>10.67</course>
  <speed>0.01414213562373095</speed>
  <fix>3d</fix>
</trkpt>
<trkpt lat="-27.274439" lon="151.290064">
  <ele>343.1</ele>
  <time>2026-09-01T19:51:43Z</time>
  <course>270.0</course>
  <speed>0.0</speed>
  <fix>3d</fix>
</trkpt>
<trkpt lat="-27.2744391" lon="151.2900641">
  <ele>343.11</ele>
  <time>2026-09-01T19:51:43Z</time>
  <course>10.67</course>
  <speed>0.01414213562373095</speed>
  <fix>3d</fix>
</trkpt>
<trkpt lat="-27.274439" lon="151.290064">
  <ele>343.1</ele>
  <time>2026-09-01T19:51:43Z</time>
  <course>270.0</course>
  <speed>0.0</speed>
  <fix>3d</fix>
</trkpt>
<trkpt lat="-27.2744391" lon="151.2900641">
  <ele>343.11</ele>
  <time>2026-09-01T19:51:43Z</time>
  <course>10.67</course>
  <speed>0.01414213562373095</speed>
  <fix>3d</fix>
</trkpt>
<trkpt lat="-27.274439" lon="151.290064">
  <ele>343.1</ele>
  <time>2026-09-01T19:51:43Z</time>
  <course>270.0</course>
  <speed>0.0</speed>
  <fix>3d</fix>
</trkpt>
<trkpt lat="-27.2744391" lon="151.2900641">
  <ele>343.11</ele>
  <time>2026-09-01T19:51:43Z</time>
  <course>10.67</course>
  <speed>0.01414213562373095</speed>
  <fix>3d</fix>
</trkpt>
<trkpt lat="-27.274439" lon="151.290064">
  <ele>343.1</ele>
  <time>2026-09-01T19:51:43Z</time>
  <course>270.0</course>
  <speed>0.0</speed>
  <fix>3d</fix>
</trkpt>
<trkpt lat="-27.2744391" lon="151.2900641">
  <ele>343.11</ele>
  <time>2026-09-01T19:51:43Z</time>
  <course>10.67</course>
  <speed>0.01414213562373095</speed>
  <fix>3d</fix>
</trkpt>
<trkpt lat="-27.274439" lon="151.290064">
  <ele>343.1</ele>
  <time>2026-09-01T19:51:43Z</time>
  <course>270.0</course>
  <speed>0.0</speed>
  <fix>3d</fix>
</trkpt>
<trkpt lat="-27.2744391" lon="151.2900641">
  <ele>343.11</ele>
  <time>2026-09-01T19:51:43Z</time>
  <course>10.67</course>
  <speed>0.01414213562373095</speed>
  <fix>3d</fix>
</trkpt>
<trkpt lat="-27.274439" lon="151.290064">
  <ele>343.1</ele>
  <time>2026-09-01T19:51:43Z</time>
  <course>270.0</course>
  <speed>0.0</speed>
  <fix>3d</fix>
</trkpt>
<trkpt lat="-27.2744391" lon="151.2900641">
  <ele>343.1</ele>
  <time>2026-09-01T19:51:43Z</time>
  <course>10.67</course>
  <speed>0.01414213562373095</speed>
  <fix>3d</fix>
</trkpt>
<trkpt lat="-27.274439" lon="151.290064">
  <ele>343.1</ele>
  <time>2026-09-01T19:51:43Z</time>
  <course>270.0</course>
  <speed>0.0</speed>
  <fix>3d</fix>
</trkpt>
<trkpt lat="-27.2744391" lon="151.2900641">
  <ele>343.1</ele>
  <time>2026-09-01T19:51:44Z</time>
  <course>10.67</course>
  <speed>0.01414213562373095</speed>
  <fix>3d</fix>
</trkpt>
<trkpt lat="-27.274439" lon="151.290064">
  <ele>343.1</ele>
  <time>2026-09-01T19:51:44Z</time>
  <course>270.0</course>
  <speed>0.0</speed>
  <fix>3d</fix>
</trkpt>
<trkpt lat="-27.2744391" lon="151.2900641">
  <ele>343.1</ele>
  <time>2026-09-01T19:51:44Z</time>
  <course>10.67</course>
  <speed>0.022360679774997897</speed>
  <fix>3d</fix>
</trkpt>
<trkpt lat="-27.274439" lon="151.290064">
  <ele>343.1</ele>
  <time>2026-09-01T19:51:44Z</time>
  <course>270.0</course>
  <speed>0.0</speed>
  <fix>3d</fix>
</trkpt>
<trkpt lat="-27.2744391" lon="151.2900641">
  <ele>343.1</ele>
  <time>2026-09-01T19:51:44Z</time>
  <course>10.67</course>
  <speed>0.022360679774997897</speed>
  <fix>3d</fix>
</trkpt>
<trkpt lat="-27.274439" lon="151.290064">
  <ele>343.1</ele>
  <time>2026-09-01T19:51:44Z</time>
  <course>270.0</course>
  <speed>0.0</speed>
  <fix>3d</fix>
</trkpt>
<trkpt lat="-27.2744391" lon="151.2900641">
  <ele>343.1</ele>
  <time>2026-09-01T19:51:44Z</time>
  <course>10.67</course>
  <speed>0.022360679774997897</speed>
  <fix>3d</fix>
</trkpt>
<trkpt lat="-27.274439" lon="151.290064">
  <ele>343.1</ele>
  <time>2026-09-01T19:51:44Z</time>
  <course>270.0</course>
  <speed>0.0</speed>
  <fix>3d</fix>
</trkpt>
<trkpt lat="-27.2744391" lon="151.2900641">
  <ele>343.09</ele>
  <time>2026-09-01T19:51:44Z</time>
  <course>10.67</course>
  <speed>0.022360679774997897</speed>
  <fix>3d</fix>
</trkpt>
<trkpt lat="-27.274439" lon="151.290064">
  <ele>343.1</ele>
  <time>2026-09-01T19:51:44Z</time>
  <course>270.0</course>
  <speed>0.0</speed>
  <fix>3d</fix>
</trkpt>
<trkpt lat="-27.2744391" lon="151.2900641">
  <ele>343.09</ele>
  <time>2026-09-01T19:51:44Z</time>
  <course>10.67</course>
  <speed>0.022360679774997897</speed>
  <fix>3d</fix>
</trkpt>
<trkpt lat="-27.274439" lon="151.290064">
  <ele>343.1</ele>
  <time>2026-09-01T19:51:44Z</time>
  <course>270.0</course>
  <speed>0.0</speed>
  <fix>3d</fix>
</trkpt>
<trkpt lat="-27.2744391" lon="151.2900641">
  <ele>343.09</ele>
  <time>2026-09-01T19:51:44Z</time>
  <course>10.67</course>
  <speed>0.022360679774997897</speed>
  <fix>3d</fix>
</trkpt>
<trkpt lat="-27.274439" lon="151.290064">
  <ele>343.1</ele>
  <time>2026-09-01T19:51:44Z</time>
  <course>270.0</course>
  <speed>0.0</speed>
  <fix>3d</fix>
</trkpt>
<trkpt lat="-27.2744391" lon="151.2900641">
  <ele>343.09</ele>
  <time>2026-09-01T19:51:44Z</time>
  <course>10.67</course>
  <speed>0.022360679774997897</speed>
  <fix>3d</fix>
</trkpt>
<trkpt lat="-27.274439" lon="151.290064">
  <ele>343.1</ele>
  <time>2026-09-01T19:51:44Z</time>
  <course>270.0</course>
  <speed>0.0</speed>
  <fix>3d</fix>
</trkpt>
<trkpt lat="-27.2744391" lon="151.2900641">
  <ele>343.09</ele>
  <time>2026-09-01T19:51:44Z</time>
  <course>10.67</course>
  <speed>0.022360679774997897</speed>
  <fix>3d</fix>
</trkpt>
<trkpt lat="-27.274439" lon="151.290064">
  <ele>343.1</ele>
  <time>2026-09-01T19:51:44Z</time>
  <course>270.0</course>
  <speed>0.0</speed>
  <fix>3d</fix>
</trkpt>
<trkpt lat="-27.2744391" lon="151.2900641">
  <ele>343.09</ele>
  <time>2026-09-01T19:51:44Z</time>
  <course>10.67</course>
  <speed>0.022360679774997897</speed>
  <fix>3d</fix>
</trkpt>
<trkpt lat="-27.274439" lon="151.290064">
  <ele>343.1</ele>
  <time>2026-09-01T19:51:44Z</time>
  <course>270.0</course>
  <speed>0.0</speed>
  <fix>3d</fix>
</trkpt>
<trkpt lat="-27.2744391" lon="151.2900641">
  <ele>343.09</ele>
  <time>2026-09-01T19:51:44Z</time>
  <course>10.67</course>
  <speed>0.022360679774997897</speed>
  <fix>3d</fix>
</trkpt>
<trkpt lat="-27.274439" lon="151.290064">
  <ele>343.1</ele>
  <time>2026-09-01T19:51:44Z</time>
  <course>270.0</course>
  <speed>0.0</speed>
  <fix>3d</fix>
</trkpt>
<trkpt lat="-27.2744391" lon="151.2900641">
  <ele>343.09</ele>
  <time>2026-09-01T19:51:44Z</time>
  <course>10.67</course>
  <speed>0.022360679774997897</speed>
  <fix>3d</fix>
</trkpt>
<trkpt lat="-27.274439" lon="151.290064">
  <ele>343.1</ele>
  <time>2026-09-01T19:51:44Z</time>
  <course>270.0</course>
  <speed>0.0</speed>
  <fix>3d</fix>
</trkpt>
<trkpt lat="-27.2744391" lon="151.2900641">
  <ele>343.09</ele>
  <time>2026-09-01T19:51:44Z</time>
  <course>10.67</course>
  <speed>0.022360679774997897</speed>
  <fix>3d</fix>
</trkpt>
<trkpt lat="-27.274439" lon="151.290064">
  <ele>343.1</ele>
  <time>2026-09-01T19:51:44Z</time>
  <course>270.0</course>
  <speed>0.0</speed>
  <fix>3d</fix>
</trkpt>
<trkpt lat="-27.2744391" lon="151.2900641">
  <ele>343.08</ele>
  <time>2026-09-01T19:51:44Z</time>
  <course>10.67</course>
  <speed>0.022360679774997897</speed>
  <fix>3d</fix>
</trkpt>
<trkpt lat="-27.274439" lon="151.290064">
  <ele>343.1</ele>
  <time>2026-09-01T19:51:44Z</time>
  <course>270.0</course>
  <speed>0.0</speed>
  <fix>3d</fix>
</trkpt>
<trkpt lat="-27.2744391" lon="151.2900641">
  <ele>343.09</ele>
  <time>2026-09-01T19:51:44Z</time>
  <course>10.67</course>
  <speed>0.022360679774997897</speed>
  <fix>3d</fix>
</trkpt>
<trkpt lat="-27.274439" lon="151.290064">
  <ele>343.1</ele>
  <time>2026-09-01T19:51:44Z</time>
  <course>270.0</course>
  <speed>0.0</speed>
  <fix>3d</fix>
</trkpt>
<trkpt lat="-27.2744391" lon="151.2900641">
  <ele>343.09</ele>
  <time>2026-09-01T19:51:44Z</time>
  <course>10.67</course>
  <speed>0.022360679774997897</speed>
  <fix>3d</fix>
</trkpt>
<trkpt lat="-27.274439" lon="151.290064">
  <ele>343.1</ele>
  <time>2026-09-01T19:51:44Z</time>
  <course>270.0</course>
  <speed>0.0</speed>
  <fix>3d</fix>
</trkpt>
<trkpt lat="-27.2744391" lon="151.2900641">
  <ele>343.09</ele>
  <time>2026-09-01T19:51:44Z</time>
  <course>10.67</course>
  <speed>0.022360679774997897</speed>
  <fix>3d</fix>
</trkpt>
<trkpt lat="-27.274439" lon="151.290064">
  <ele>343.1</ele>
  <time>2026-09-01T19:51:44Z</time>
  <course>270.0</course>
  <speed>0.0</speed>
  <fix>3d</fix>
</trkpt>
<trkpt lat="-27.2744391" lon="151.2900641">
  <ele>343.09</ele>
  <time>2026-09-01T19:51:44Z</time>
  <course>10.67</course>
  <speed>0.022360679774997897</speed>
  <fix>3d</fix>
</trkpt>
<trkpt lat="-27.274439" lon="151.290064">
  <ele>343.1</ele>
  <time>2026-09-01T19:51:44Z</time>
  <course>270.0</course>
  <speed>0.0</speed>
  <fix>3d</fix>
</trkpt>
<trkpt lat="-27.2744391" lon="151.2900641">
  <ele>343.09</ele>
  <time>2026-09-01T19:51:44Z</time>
  <course>10.67</course>
  <speed>0.022360679774997897</speed>
  <fix>3d</fix>
</trkpt>
<trkpt lat="-27.274439" lon="151.290064">
  <ele>343.1</ele>
  <time>2026-09-01T19:51:44Z</time>
  <course>270.0</course>
  <speed>0.0</speed>
  <fix>3d</fix>
</trkpt>
<trkpt lat="-27.2744391" lon="151.2900641">
  <ele>343.09</ele>
  <time>2026-09-01T19:51:44Z</time>
  <course>10.67</course>
  <speed>0.022360679774997897</speed>
  <fix>3d</fix>
</trkpt>
<trkpt lat="-27.274439" lon="151.290064">
  <ele>343.1</ele>
  <time>2026-09-01T19:51:44Z</time>
  <course>270.0</course>
  <speed>0.0</speed>
  <fix>3d</fix>
</trkpt>
<trkpt lat="-27.2744391" lon="151.2900641">
  <ele>343.09</ele>
  <time>2026-09-01T19:51:44Z</time>
  <course>10.67</course>
  <speed>0.022360679774997897</speed>
  <fix>3d</fix>
</trkpt>
<trkpt lat="-27.274439" lon="151.290064">
  <ele>343.1</ele>
  <time>2026-09-01T19:51:44Z</time>
  <course>270.0</course>
  <speed>0.0</speed>
  <fix>3d</fix>
</trkpt>
<trkpt lat="-27.2744391" lon="151.2900641">
  <ele>343.09</ele>
  <time>2026-09-01T19:51:44Z</time>
  <course>10.67</course>
  <speed>0.022360679774997897</speed>
  <fix>3d</fix>
</trkpt>
<trkpt lat="-27.274439" lon="151.290064">
  <ele>343.1</ele>
  <time>2026-09-01T19:51:44Z</time>
  <course>270.0</course>
  <speed>0.0</speed>
  <fix>3d</fix>
</trkpt>
<trkpt lat="-27.2744391" lon="151.2900641">
  <ele>343.08</ele>
  <time>2026-09-01T19:51:44Z</time>
  <course>10.67</course>
  <speed>0.022360679774997897</speed>
  <fix>3d</fix>
</trkpt>
<trkpt lat="-27.274439" lon="151.290064">
  <ele>343.1</ele>
  <time>2026-09-01T19:51:44Z</time>
  <course>270.0</course>
  <speed>0.0</speed>
  <fix>3d</fix>
</trkpt>
<trkpt lat="-27.2744391" lon="151.2900641">
  <ele>343.08</ele>
  <time>2026-09-01T19:51:44Z</time>
  <course>10.67</course>
  <speed>0.022360679774997897</speed>
  <fix>3d</fix>
</trkpt>
<trkpt lat="-27.274439" lon="151.290064">
  <ele>343.1</ele>
  <time>2026-09-01T19:51:44Z</time>
  <course>270.0</course>
  <speed>0.0</speed>
  <fix>3d</fix>
</trkpt>
<trkpt lat="-27.2744391" lon="151.2900641">
  <ele>343.07</ele>
  <time>2026-09-01T19:51:44Z</time>
  <course>10.67</course>
  <speed>0.022360679774997897</speed>
  <fix>3d</fix>
</trkpt>
<trkpt lat="-27.274439" lon="151.290064">
  <ele>343.1</ele>
  <time>2026-09-01T19:51:44Z</time>
  <course>270.0</course>
  <speed>0.0</speed>
  <fix>3d</fix>
</trkpt>
<trkpt lat="-27.2744391" lon="151.2900641">
  <ele>343.07</ele>
  <time>2026-09-01T19:51:44Z</time>
  <course>10.67</course>
  <speed>0.022360679774997897</speed>
  <fix>3d</fix>
</trkpt>
<trkpt lat="-27.274439" lon="151.290064">
  <ele>343.1</ele>
  <time>2026-09-01T19:51:44Z</time>
  <course>270.0</course>
  <speed>0.0</speed>
  <fix>3d</fix>
</trkpt>
<trkpt lat="-27.2744391" lon="151.2900641">
  <ele>343.06</ele>
  <time>2026-09-01T19:51:44Z</time>
  <course>10.67</course>
  <speed>0.022360679774997897</speed>
  <fix>3d</fix>
</trkpt>
<trkpt lat="-27.274439" lon="151.290064">
  <ele>343.1</ele>
  <time>2026-09-01T19:51:44Z</time>
  <course>270.0</course>
  <speed>0.0</speed>
  <fix>3d</fix>
</trkpt>
<trkpt lat="-27.2744391" lon="151.2900641">
  <ele>343.06</ele>
  <time>2026-09-01T19:51:44Z</time>
  <course>10.67</course>
  <speed>0.022360679774997897</speed>
  <fix>3d</fix>
</trkpt>
<trkpt lat="-27.274439" lon="151.290064">
  <ele>343.1</ele>
  <time>2026-09-01T19:51:44Z</time>
  <course>270.0</course>
  <speed>0.0</speed>
  <fix>3d</fix>
</trkpt>
<trkpt lat="-27.2744391" lon="151.2900641">
  <ele>343.06</ele>
  <time>2026-09-01T19:51:44Z</time>
  <course>10.67</course>
  <speed>0.022360679774997897</speed>
  <fix>3d</fix>
</trkpt>
<trkpt lat="-27.274439" lon="151.290064">
  <ele>343.1</ele>
  <time>2026-09-01T19:51:44Z</time>
  <course>270.0</course>
  <speed>0.0</speed>
  <fix>3d</fix>
</trkpt>
<trkpt lat="-27.2744391" lon="151.2900641">
  <ele>343.06</ele>
  <time>2026-09-01T19:51:44Z</time>
  <course>10.67</course>
  <speed>0.022360679774997897</speed>
  <fix>3d</fix>
</trkpt>
<trkpt lat="-27.274439" lon="151.290064">
  <ele>343.1</ele>
  <time>2026-09-01T19:51:44Z</time>
  <course>270.0</course>
  <speed>0.0</speed>
  <fix>3d</fix>
</trkpt>
<trkpt lat="-27.2744391" lon="151.2900641">
  <ele>343.06</ele>
  <time>2026-09-01T19:51:44Z</time>
  <course>10.67</course>
  <speed>0.022360679774997897</speed>
  <fix>3d</fix>
</trkpt>
<trkpt lat="-27.274439" lon="151.290064">
  <ele>343.1</ele>
  <time>2026-09-01T19:51:44Z</time>
  <course>270.0</course>
  <speed>0.0</speed>
  <fix>3d</fix>
</trkpt>
<trkpt lat="-27.2744391" lon="151.2900641">
  <ele>343.06</ele>
  <time>2026-09-01T19:51:44Z</time>
  <course>10.67</course>
  <speed>0.022360679774997897</speed>
  <fix>3d</fix>
</trkpt>
<trkpt lat="-27.274439" lon="151.290064">
  <ele>343.1</ele>
  <time>2026-09-01T19:51:44Z</time>
  <course>270.0</course>
  <speed>0.0</speed>
  <fix>3d</fix>
</trkpt>
<trkpt lat="-27.2744391" lon="151.2900641">
  <ele>343.06</ele>
  <time>2026-09-01T19:51:44Z</time>
  <course>10.67</course>
  <speed>0.022360679774997897</speed>
  <fix>3d</fix>
</trkpt>
<trkpt lat="-27.274439" lon="151.290064">
  <ele>343.1</ele>
  <time>2026-09-01T19:51:44Z</time>
  <course>270.0</course>
  <speed>0.0</speed>
  <fix>3d</fix>
</trkpt>
<trkpt lat="-27.2744391" lon="151.2900641">
  <ele>343.06</ele>
  <time>2026-09-01T19:51:44Z</time>
  <course>10.67</course>
  <speed>0.022360679774997897</speed>
  <fix>3d</fix>
</trkpt>
<trkpt lat="-27.274439" lon="151.290064">
  <ele>343.1</ele>
  <time>2026-09-01T19:51:44Z</time>
  <course>270.0</course>
  <speed>0.0</speed>
  <fix>3d</fix>
</trkpt>
<trkpt lat="-27.2744391" lon="151.2900641">
  <ele>343.06</ele>
  <time>2026-09-01T19:51:44Z</time>
  <course>10.67</course>
  <speed>0.022360679774997897</speed>
  <fix>3d</fix>
</trkpt>
<trkpt lat="-27.274439" lon="151.290064">
  <ele>343.1</ele>
  <time>2026-09-01T19:51:44Z</time>
  <course>270.0</course>
  <speed>0.0</speed>
  <fix>3d</fix>
</trkpt>
<trkpt lat="-27.2744391" lon="151.2900641">
  <ele>343.06</ele>
  <time>2026-09-01T19:51:44Z</time>
  <course>10.67</course>
  <speed>0.022360679774997897</speed>
  <fix>3d</fix>
</trkpt>
<trkpt lat="-27.274439" lon="151.290064">
  <ele>343.1</ele>
  <time>2026-09-01T19:51:44Z</time>
  <course>270.0</course>
  <speed>0.0</speed>
  <fix>3d</fix>
</trkpt>
<trkpt lat="-27.2744391" lon="151.2900641">
  <ele>343.06</ele>
  <time>2026-09-01T19:51:44Z</time>
  <course>10.67</course>
  <speed>0.022360679774997897</speed>
  <fix>3d</fix>
</trkpt>
<trkpt lat="-27.274439" lon="151.290064">
  <ele>343.1</ele>
  <time>2026-09-01T19:51:44Z</time>
  <course>270.0</course>
  <speed>0.0</speed>
  <fix>3d</fix>
</trkpt>
<trkpt lat="-27.2744391" lon="151.2900641">
  <ele>343.06</ele>
  <time>2026-09-01T19:51:44Z</time>
  <course>10.67</course>
  <speed>0.022360679774997897</speed>
  <fix>3d</fix>
</trkpt>
<trkpt lat="-27.274439" lon="151.290064">
  <ele>343.1</ele>
  <time>2026-09-01T19:51:44Z</time>
  <course>270.0</course>
  <speed>0.0</speed>
  <fix>3d</fix>
</trkpt>
<trkpt lat="-27.2744391" lon="151.2900641">
  <ele>343.05</ele>
  <time>2026-09-01T19:51:44Z</time>
  <course>10.67</course>
  <speed>0.022360679774997897</speed>
  <fix>3d</fix>
</trkpt>
<trkpt lat="-27.274439" lon="151.290064">
  <ele>343.1</ele>
  <time>2026-09-01T19:51:44Z</time>
  <course>270.0</course>
  <speed>0.0</speed>
  <fix>3d</fix>
</trkpt>
<trkpt lat="-27.2744391" lon="151.2900641">
  <ele>343.05</ele>
  <time>2026-09-01T19:51:44Z</time>
  <course>10.68</course>
  <speed>0.022360679774997897</speed>
  <fix>3d</fix>
</trkpt>
<trkpt lat="-27.274439" lon="151.290064">
  <ele>343.1</ele>
  <time>2026-09-01T19:51:44Z</time>
  <course>270.0</course>
  <speed>0.0</speed>
  <fix>3d</fix>
</trkpt>
<trkpt lat="-27.2744391" lon="151.2900641">
  <ele>343.05</ele>
  <time>2026-09-01T19:51:44Z</time>
  <course>10.68</course>
  <speed>0.022360679774997897</speed>
  <fix>3d</fix>
</trkpt>
<trkpt lat="-27.274439" lon="151.290064">
  <ele>343.1</ele>
  <time>2026-09-01T19:51:44Z</time>
  <course>270.0</course>
  <speed>0.0</speed>
  <fix>3d</fix>
</trkpt>
<trkpt lat="-27.2744391" lon="151.2900641">
  <ele>343.04</ele>
  <time>2026-09-01T19:51:44Z</time>
  <course>10.68</course>
  <speed>0.022360679774997897</speed>
  <fix>3d</fix>
</trkpt>
<trkpt lat="-27.274439" lon="151.290064">
  <ele>343.1</ele>
  <time>2026-09-01T19:51:44Z</time>
  <course>270.0</course>
  <speed>0.0</speed>
  <fix>3d</fix>
</trkpt>
<trkpt lat="-27.2744391" lon="151.2900641">
  <ele>343.04</ele>
  <time>2026-09-01T19:51:44Z</time>
  <course>10.68</course>
  <speed>0.022360679774997897</speed>
  <fix>3d</fix>
</trkpt>
<trkpt lat="-27.274439" lon="151.290064">
  <ele>343.1</ele>
  <time>2026-09-01T19:51:44Z</time>
  <course>270.0</course>
  <speed>0.0</speed>
  <fix>3d</fix>
</trkpt>
<trkpt lat="-27.2744391" lon="151.2900641">
  <ele>343.04</ele>
  <time>2026-09-01T19:51:44Z</time>
  <course>10.68</course>
  <speed>0.022360679774997897</speed>
  <fix>3d</fix>
</trkpt>
<trkpt lat="-27.274439" lon="151.290064">
  <ele>343.1</ele>
  <time>2026-09-01T19:51:44Z</time>
  <course>270.0</course>
  <speed>0.0</speed>
  <fix>3d</fix>
</trkpt>
<trkpt lat="-27.2744391" lon="151.2900641">
  <ele>343.03</ele>
  <time>2026-09-01T19:51:44Z</time>
  <course>10.68</course>
  <speed>0.022360679774997897</speed>
  <fix>3d</fix>
</trkpt>
<trkpt lat="-27.274439" lon="151.290064">
  <ele>343.1</ele>
  <time>2026-09-01T19:51:44Z</time>
  <course>270.0</course>
  <speed>0.0</speed>
  <fix>3d</fix>
</trkpt>
<trkpt lat="-27.2744391" lon="151.2900641">
  <ele>343.03</ele>
  <time>2026-09-01T19:51:44Z</time>
  <course>10.68</course>
  <speed>0.022360679774997897</speed>
  <fix>3d</fix>
</trkpt>
<trkpt lat="-27.274439" lon="151.290064">
  <ele>343.1</ele>
  <time>2026-09-01T19:51:44Z</time>
  <course>270.0</course>
  <speed>0.0</speed>
  <fix>3d</fix>
</trkpt>
<trkpt lat="-27.2744391" lon="151.2900641">
  <ele>343.03</ele>
  <time>2026-09-01T19:51:44Z</time>
  <course>10.68</course>
  <speed>0.022360679774997897</speed>
  <fix>3d</fix>
</trkpt>
<trkpt lat="-27.274439" lon="151.290064">
  <ele>343.1</ele>
  <time>2026-09-01T19:51:44Z</time>
  <course>270.0</course>
  <speed>0.0</speed>
  <fix>3d</fix>
</trkpt>
<trkpt lat="-27.2744391" lon="151.2900641">
  <ele>343.02</ele>
  <time>2026-09-01T19:51:44Z</time>
  <course>10.68</course>
  <speed>0.022360679774997897</speed>
  <fix>3d</fix>
</trkpt>
<trkpt lat="-27.274439" lon="151.290064">
  <ele>343.1</ele>
  <time>2026-09-01T19:51:44Z</time>
  <course>270.0</course>
  <speed>0.0</speed>
  <fix>3d</fix>
</trkpt>
<trkpt lat="-27.2744391" lon="151.2900641">
  <ele>343.02</ele>
  <time>2026-09-01T19:51:44Z</time>
  <course>10.68</course>
  <speed>0.022360679774997897</speed>
  <fix>3d</fix>
</trkpt>
<trkpt lat="-27.274439" lon="151.290064">
  <ele>343.1</ele>
  <time>2026-09-01T19:51:44Z</time>
  <course>270.0</course>
  <speed>0.0</speed>
  <fix>3d</fix>
</trkpt>
<trkpt lat="-27.2744391" lon="151.2900641">
  <ele>343.02</ele>
  <time>2026-09-01T19:51:44Z</time>
  <course>10.68</course>
  <speed>0.022360679774997897</speed>
  <fix>3d</fix>
</trkpt>
<trkpt lat="-27.274439" lon="151.290064">
  <ele>343.1</ele>
  <time>2026-09-01T19:51:44Z</time>
  <course>270.0</course>
  <speed>0.0</speed>
  <fix>3d</fix>
</trkpt>
<trkpt lat="-27.2744391" lon="151.2900641">
  <ele>343.02</ele>
  <time>2026-09-01T19:51:44Z</time>
  <course>10.68</course>
  <speed>0.022360679774997897</speed>
  <fix>3d</fix>
</trkpt>
<trkpt lat="-27.274439" lon="151.290064">
  <ele>343.1</ele>
  <time>2026-09-01T19:51:44Z</time>
  <course>270.0</course>
  <speed>0.0</speed>
  <fix>3d</fix>
</trkpt>
<trkpt lat="-27.2744391" lon="151.2900641">
  <ele>343.02</ele>
  <time>2026-09-01T19:51:44Z</time>
  <course>10.68</course>
  <speed>0.022360679774997897</speed>
  <fix>3d</fix>
</trkpt>
<trkpt lat="-27.274439" lon="151.290064">
  <ele>343.1</ele>
  <time>2026-09-01T19:51:44Z</time>
  <course>270.0</course>
  <speed>0.0</speed>
  <fix>3d</fix>
</trkpt>
<trkpt lat="-27.2744391" lon="151.2900641">
  <ele>343.02</ele>
  <time>2026-09-01T19:51:44Z</time>
  <course>10.68</course>
  <speed>0.022360679774997897</speed>
  <fix>3d</fix>
</trkpt>
<trkpt lat="-27.274439" lon="151.290064">
  <ele>343.1</ele>
  <time>2026-09-01T19:51:44Z</time>
  <course>270.0</course>
  <speed>0.0</speed>
  <fix>3d</fix>
</trkpt>
<trkpt lat="-27.2744391" lon="151.2900641">
  <ele>343.02</ele>
  <time>2026-09-01T19:51:44Z</time>
  <course>10.68</course>
  <speed>0.022360679774997897</speed>
  <fix>3d</fix>
</trkpt>
<trkpt lat="-27.274439" lon="151.290064">
  <ele>343.1</ele>
  <time>2026-09-01T19:51:44Z</time>
  <course>270.0</course>
  <speed>0.0</speed>
  <fix>3d</fix>
</trkpt>
<trkpt lat="-27.2744391" lon="151.2900641">
  <ele>343.02</ele>
  <time>2026-09-01T19:51:44Z</time>
  <course>10.68</course>
  <speed>0.022360679774997897</speed>
  <fix>3d</fix>
</trkpt>
<trkpt lat="-27.274439" lon="151.290064">
  <ele>343.1</ele>
  <time>2026-09-01T19:51:44Z</time>
  <course>270.0</course>
  <speed>0.0</speed>
  <fix>3d</fix>
</trkpt>
<trkpt lat="-27.2744391" lon="151.2900641">
  <ele>343.02</ele>
  <time>2026-09-01T19:51:44Z</time>
  <course>10.68</course>
  <speed>0.022360679774997897</speed>
  <fix>3d</fix>
</trkpt>
<trkpt lat="-27.274439" lon="151.290064">
  <ele>343.1</ele>
  <time>2026-09-01T19:51:44Z</time>
  <course>270.0</course>
  <speed>0.0</speed>
  <fix>3d</fix>
</trkpt>
<trkpt lat="-27.2744391" lon="151.2900641">
  <ele>343.02</ele>
  <time>2026-09-01T19:51:44Z</time>
  <course>10.68</course>
  <speed>0.022360679774997897</speed>
  <fix>3d</fix>
</trkpt>
<trkpt lat="-27.274439" lon="151.290064">
  <ele>343.1</ele>
  <time>2026-09-01T19:51:44Z</time>
  <course>270.0</course>
  <speed>0.0</speed>
  <fix>3d</fix>
</trkpt>
<trkpt lat="-27.2744391" lon="151.2900641">
  <ele>343.02</ele>
  <time>2026-09-01T19:51:44Z</time>
  <course>10.68</course>
  <speed>0.022360679774997897</speed>
  <fix>3d</fix>
</trkpt>
<trkpt lat="-27.274439" lon="151.290064">
  <ele>343.1</ele>
  <time>2026-09-01T19:51:44Z</time>
  <course>270.0</course>
  <speed>0.0</speed>
  <fix>3d</fix>
</trkpt>
<trkpt lat="-27.2744391" lon="151.2900641">
  <ele>343.02</ele>
  <time>2026-09-01T19:51:44Z</time>
  <course>10.68</course>
  <speed>0.022360679774997897</speed>
  <fix>3d</fix>
</trkpt>
<trkpt lat="-27.274439" lon="151.290064">
  <ele>343.1</ele>
  <time>2026-09-01T19:51:44Z</time>
  <course>270.0</course>
  <speed>0.0</speed>
  <fix>3d</fix>
</trkpt>
<trkpt lat="-27.2744391" lon="151.2900641">
  <ele>343.02</ele>
  <time>2026-09-01T19:51:44Z</time>
  <course>10.68</course>
  <speed>0.022360679774997897</speed>
  <fix>3d</fix>
</trkpt>
<trkpt lat="-27.274439" lon="151.290064">
  <ele>343.1</ele>
  <time>2026-09-01T19:51:44Z</time>
  <course>270.0</course>
  <speed>0.0</speed>
  <fix>3d</fix>
</trkpt>
<trkpt lat="-27.2744391" lon="151.2900641">
  <ele>343.02</ele>
  <time>2026-09-01T19:51:44Z</time>
  <course>10.68</course>
  <speed>0.022360679774997897</speed>
  <fix>3d</fix>
</trkpt>
<trkpt lat="-27.274439" lon="151.290064">
  <ele>343.1</ele>
  <time>2026-09-01T19:51:44Z</time>
  <course>270.0</course>
  <speed>0.0</speed>
  <fix>3d</fix>
</trkpt>
<trkpt lat="-27.2744391" lon="151.2900641">
  <ele>343.01</ele>
  <time>2026-09-01T19:51:44Z</time>
  <course>10.68</course>
  <speed>0.022360679774997897</speed>
  <fix>3d</fix>
</trkpt>
<trkpt lat="-27.274439" lon="151.290064">
  <ele>343.1</ele>
  <time>2026-09-01T19:51:44Z</time>
  <course>270.0</course>
  <speed>0.0</speed>
  <fix>3d</fix>
</trkpt>
<trkpt lat="-27.2744391" lon="151.2900641">
  <ele>343.01</ele>
  <time>2026-09-01T19:51:44Z</time>
  <course>10.68</course>
  <speed>0.022360679774997897</speed>
  <fix>3d</fix>
</trkpt>
<trkpt lat="-27.274439" lon="151.290064">
  <ele>343.1</ele>
  <time>2026-09-01T19:51:44Z</time>
  <course>270.0</course>
  <speed>0.0</speed>
  <fix>3d</fix>
</trkpt>
<trkpt lat="-27.2744391" lon="151.2900641">
  <ele>343.01</ele>
  <time>2026-09-01T19:51:44Z</time>
  <course>10.68</course>
  <speed>0.022360679774997897</speed>
  <fix>3d</fix>
</trkpt>
<trkpt lat="-27.274439" lon="151.290064">
  <ele>343.1</ele>
  <time>2026-09-01T19:51:44Z</time>
  <course>270.0</course>
  <speed>0.0</speed>
  <fix>3d</fix>
</trkpt>
<trkpt lat="-27.2744391" lon="151.2900641">
  <ele>343.01</ele>
  <time>2026-09-01T19:51:44Z</time>
  <course>10.68</course>
  <speed>0.022360679774997897</speed>
  <fix>3d</fix>
</trkpt>
<trkpt lat="-27.274439" lon="151.290064">
  <ele>343.1</ele>
  <time>2026-09-01T19:51:44Z</time>
  <course>270.0</course>
  <speed>0.0</speed>
  <fix>3d</fix>
</trkpt>
<trkpt lat="-27.2744391" lon="151.2900641">
  <ele>343.01</ele>
  <time>2026-09-01T19:51:44Z</time>
  <course>10.68</course>
  <speed>0.022360679774997897</speed>
  <fix>3d</fix>
</trkpt>
<trkpt lat="-27.274439" lon="151.290064">
  <ele>343.1</ele>
  <time>2026-09-01T19:51:44Z</time>
  <course>270.0</course>
  <speed>0.0</speed>
  <fix>3d</fix>
</trkpt>
<trkpt lat="-27.2744391" lon="151.2900641">
  <ele>343.01</ele>
  <time>2026-09-01T19:51:44Z</time>
  <course>10.68</course>
  <speed>0.022360679774997897</speed>
  <fix>3d</fix>
</trkpt>
<trkpt lat="-27.274439" lon="151.290064">
  <ele>343.1</ele>
  <time>2026-09-01T19:51:44Z</time>
  <course>270.0</course>
  <speed>0.0</speed>
  <fix>3d</fix>
</trkpt>
<trkpt lat="-27.2744391" lon="151.2900641">
  <ele>343.01</ele>
  <time>2026-09-01T19:51:44Z</time>
  <course>10.68</course>
  <speed>0.022360679774997897</speed>
  <fix>3d</fix>
</trkpt>
<trkpt lat="-27.274439" lon="151.290064">
  <ele>343.1</ele>
  <time>2026-09-01T19:51:44Z</time>
  <course>270.0</course>
  <speed>0.0</speed>
  <fix>3d</fix>
</trkpt>
<trkpt lat="-27.2744391" lon="151.2900641">
  <ele>343.01</ele>
  <time>2026-09-01T19:51:44Z</time>
  <course>10.68</course>
  <speed>0.022360679774997897</speed>
  <fix>3d</fix>
</trkpt>
<trkpt lat="-27.274439" lon="151.290064">
  <ele>343.1</ele>
  <time>2026-09-01T19:51:44Z</time>
  <course>270.0</course>
  <speed>0.0</speed>
  <fix>3d</fix>
</trkpt>
<trkpt lat="-27.2744391" lon="151.2900641">
  <ele>343.01</ele>
  <time>2026-09-01T19:51:44Z</time>
  <course>10.68</course>
  <speed>0.022360679774997897</speed>
  <fix>3d</fix>
</trkpt>
<trkpt lat="-27.274439" lon="151.290064">
  <ele>343.1</ele>
  <time>2026-09-01T19:51:44Z</time>
  <course>270.0</course>
  <speed>0.0</speed>
  <fix>3d</fix>
</trkpt>
<trkpt lat="-27.2744391" lon="151.2900641">
  <ele>343.02</ele>
  <time>2026-09-01T19:51:44Z</time>
  <course>10.68</course>
  <speed>0.022360679774997897</speed>
  <fix>3d</fix>
</trkpt>
<trkpt lat="-27.274439" lon="151.290064">
  <ele>343.1</ele>
  <time>2026-09-01T19:51:44Z</time>
  <course>270.0</course>
  <speed>0.0</speed>
  <fix>3d</fix>
</trkpt>
<trkpt lat="-27.2744391" lon="151.2900641">
  <ele>343.02</ele>
  <time>2026-09-01T19:51:44Z</time>
  <course>10.68</course>
  <speed>0.022360679774997897</speed>
  <fix>3d</fix>
</trkpt>
<trkpt lat="-27.274439" lon="151.290064">
  <ele>343.1</ele>
  <time>2026-09-01T19:51:44Z</time>
  <course>270.0</course>
  <speed>0.0</speed>
  <fix>3d</fix>
</trkpt>
<trkpt lat="-27.2744391" lon="151.2900641">
  <ele>343.02</ele>
  <time>2026-09-01T19:51:44Z</time>
  <course>10.68</course>
  <speed>0.022360679774997897</speed>
  <fix>3d</fix>
</trkpt>
<trkpt lat="-27.274439" lon="151.290064">
  <ele>343.1</ele>
  <time>2026-09-01T19:51:44Z</time>
  <course>270.0</course>
  <speed>0.0</speed>
  <fix>3d</fix>
</trkpt>
<trkpt lat="-27.2744391" lon="151.2900641">
  <ele>343.02</ele>
  <time>2026-09-01T19:51:44Z</time>
  <course>10.68</course>
  <speed>0.022360679774997897</speed>
  <fix>3d</fix>
</trkpt>
<trkpt lat="-27.274439" lon="151.290064">
  <ele>343.1</ele>
  <time>2026-09-01T19:51:44Z</time>
  <course>270.0</course>
  <speed>0.0</speed>
  <fix>3d</fix>
</trkpt>
<trkpt lat="-27.2744391" lon="151.2900641">
  <ele>343.09</ele>
  <time>2026-09-01T19:51:44Z</time>
  <course>10.68</course>
  <speed>0.022360679774997897</speed>
  <fix>3d</fix>
</trkpt>
<trkpt lat="-27.274439" lon="151.290064">
  <ele>343.1</ele>
  <time>2026-09-01T19:51:44Z</time>
  <course>270.0</course>
  <speed>0.0</speed>
  <fix>3d</fix>
</trkpt>
<trkpt lat="-27.2744391" lon="151.2900641">
  <ele>343.1</ele>
  <time>2026-09-01T19:51:44Z</time>
  <course>10.68</course>
  <speed>0.022360679774997897</speed>
  <fix>3d</fix>
</trkpt>
<trkpt lat="-27.274439" lon="151.290064">
  <ele>343.1</ele>
  <time>2026-09-01T19:51:44Z</time>
  <course>270.0</course>
  <speed>0.0</speed>
  <fix>3d</fix>
</trkpt>
<trkpt lat="-27.2744391" lon="151.2900641">
  <ele>343.1</ele>
  <time>2026-09-01T19:51:44Z</time>
  <course>10.68</course>
  <speed>0.022360679774997897</speed>
  <fix>3d</fix>
</trkpt>
<trkpt lat="-27.274439" lon="151.290064">
  <ele>343.1</ele>
  <time>2026-09-01T19:51:44Z</time>
  <course>270.0</course>
  <speed>0.0</speed>
  <fix>3d</fix>
</trkpt>
<trkpt lat="-27.2744391" lon="151.2900641">
  <ele>343.1</ele>
  <time>2026-09-01T19:51:44Z</time>
  <course>10.68</course>
  <speed>0.022360679774997897</speed>
  <fix>3d</fix>
</trkpt>
<trkpt lat="-27.274439" lon="151.290064">
  <ele>343.1</ele>
  <time>2026-09-01T19:51:44Z</time>
  <course>270.0</course>
  <speed>0.0</speed>
  <fix>3d</fix>
</trkpt>
<trkpt lat="-27.2744391" lon="151.2900641">
  <ele>343.1</ele>
  <time>2026-09-01T19:51:44Z</time>
  <course>10.68</course>
  <speed>0.022360679774997897</speed>
  <fix>3d</fix>
</trkpt>
<trkpt lat="-27.274439" lon="151.290064">
  <ele>343.1</ele>
  <time>2026-09-01T19:51:44Z</time>
  <course>270.0</course>
  <speed>0.0</speed>
  <fix>3d</fix>
</trkpt>
<trkpt lat="-27.2744391" lon="151.2900641">
  <ele>343.09</ele>
  <time>2026-09-01T19:51:44Z</time>
  <course>10.68</course>
  <speed>0.022360679774997897</speed>
  <fix>3d</fix>
</trkpt>
<trkpt lat="-27.274439" lon="151.290064">
  <ele>343.1</ele>
  <time>2026-09-01T19:51:44Z</time>
  <course>270.0</course>
  <speed>0.0</speed>
  <fix>3d</fix>
</trkpt>
<trkpt lat="-27.2744391" lon="151.2900641">
  <ele>343.09</ele>
  <time>2026-09-01T19:51:44Z</time>
  <course>10.68</course>
  <speed>0.022360679774997897</speed>
  <fix>3d</fix>
</trkpt>
<trkpt lat="-27.274439" lon="151.290064">
  <ele>343.1</ele>
  <time>2026-09-01T19:51:44Z</time>
  <course>270.0</course>
  <speed>0.0</speed>
  <fix>3d</fix>
</trkpt>
<trkpt lat="-27.2744391" lon="151.2900641">
  <ele>343.09</ele>
  <time>2026-09-01T19:51:44Z</time>
  <course>10.68</course>
  <speed>0.022360679774997897</speed>
  <fix>3d</fix>
</trkpt>
<trkpt lat="-27.274439" lon="151.290064">
  <ele>343.1</ele>
  <time>2026-09-01T19:51:44Z</time>
  <course>270.0</course>
  <speed>0.0</speed>
  <fix>3d</fix>
</trkpt>
<trkpt lat="-27.2744391" lon="151.2900641">
  <ele>343.09</ele>
  <time>2026-09-01T19:51:44Z</time>
  <course>10.68</course>
  <speed>0.022360679774997897</speed>
  <fix>3d</fix>
</trkpt>
<trkpt lat="-27.274439" lon="151.290064">
  <ele>343.1</ele>
  <time>2026-09-01T19:51:44Z</time>
  <course>270.0</course>
  <speed>0.0</speed>
  <fix>3d</fix>
</trkpt>
<trkpt lat="-27.2744391" lon="151.2900641">
  <ele>343.08</ele>
  <time>2026-09-01T19:51:44Z</time>
  <course>10.68</course>
  <speed>0.022360679774997897</speed>
  <fix>3d</fix>
</trkpt>
<trkpt lat="-27.274439" lon="151.290064">
  <ele>343.1</ele>
  <time>2026-09-01T19:51:44Z</time>
  <course>270.0</course>
  <speed>0.0</speed>
  <fix>3d</fix>
</trkpt>
<trkpt lat="-27.2744391" lon="151.2900641">
  <ele>343.08</ele>
  <time>2026-09-01T19:51:44Z</time>
  <course>10.68</course>
  <speed>0.022360679774997897</speed>
  <fix>3d</fix>
</trkpt>
<trkpt lat="-27.274439" lon="151.290064">
  <ele>343.1</ele>
  <time>2026-09-01T19:51:44Z</time>
  <course>270.0</course>
  <speed>0.0</speed>
  <fix>3d</fix>
</trkpt>
<trkpt lat="-27.2744391" lon="151.2900641">
  <ele>343.07</ele>
  <time>2026-09-01T19:51:44Z</time>
  <course>10.68</course>
  <speed>0.022360679774997897</speed>
  <fix>3d</fix>
</trkpt>
<trkpt lat="-27.274439" lon="151.290064">
  <ele>343.1</ele>
  <time>2026-09-01T19:51:44Z</time>
  <course>270.0</course>
  <speed>0.0</speed>
  <fix>3d</fix>
</trkpt>
<trkpt lat="-27.2744391" lon="151.2900641">
  <ele>343.07</ele>
  <time>2026-09-01T19:51:44Z</time>
  <course>10.69</course>
  <speed>0.022360679774997897</speed>
  <fix>3d</fix>
</trkpt>
<trkpt lat="-27.274439" lon="151.290064">
  <ele>343.1</ele>
  <time>2026-09-01T19:51:44Z</time>
  <course>270.0</course>
  <speed>0.0</speed>
  <fix>3d</fix>
</trkpt>
<trkpt lat="-27.2744391" lon="151.2900641">
  <ele>343.06</ele>
  <time>2026-09-01T19:51:44Z</time>
  <course>10.69</course>
  <speed>0.022360679774997897</speed>
  <fix>3d</fix>
</trkpt>
<trkpt lat="-27.274439" lon="151.290064">
  <ele>343.1</ele>
  <time>2026-09-01T19:51:44Z</time>
  <course>270.0</course>
  <speed>0.0</speed>
  <fix>3d</fix>
</trkpt>
<trkpt lat="-27.2744391" lon="151.2900641">
  <ele>343.06</ele>
  <time>2026-09-01T19:51:44Z</time>
  <course>10.69</course>
  <speed>0.022360679774997897</speed>
  <fix>3d</fix>
</trkpt>
<trkpt lat="-27.274439" lon="151.290064">
  <ele>343.1</ele>
  <time>2026-09-01T19:51:44Z</time>
  <course>270.0</course>
  <speed>0.0</speed>
  <fix>3d</fix>
</trkpt>
<trkpt lat="-27.2744391" lon="151.2900641">
  <ele>343.06</ele>
  <time>2026-09-01T19:51:44Z</time>
  <course>10.69</course>
  <speed>0.022360679774997897</speed>
  <fix>3d</fix>
</trkpt>
<trkpt lat="-27.274439" lon="151.290064">
  <ele>343.1</ele>
  <time>2026-09-01T19:51:44Z</time>
  <course>270.0</course>
  <speed>0.0</speed>
  <fix>3d</fix>
</trkpt>
<trkpt lat="-27.2744391" lon="151.2900641">
  <ele>343.06</ele>
  <time>2026-09-01T19:51:44Z</time>
  <course>10.69</course>
  <speed>0.022360679774997897</speed>
  <fix>3d</fix>
</trkpt>
<trkpt lat="-27.274439" lon="151.290064">
  <ele>343.1</ele>
  <time>2026-09-01T19:51:44Z</time>
  <course>270.0</course>
  <speed>0.0</speed>
  <fix>3d</fix>
</trkpt>
<trkpt lat="-27.2744391" lon="151.2900641">
  <ele>343.05</ele>
  <time>2026-09-01T19:51:44Z</time>
  <course>10.69</course>
  <speed>0.022360679774997897</speed>
  <fix>3d</fix>
</trkpt>
<trkpt lat="-27.274439" lon="151.290064">
  <ele>343.1</ele>
  <time>2026-09-01T19:51:44Z</time>
  <course>270.0</course>
  <speed>0.0</speed>
  <fix>3d</fix>
</trkpt>
<trkpt lat="-27.2744391" lon="151.2900641">
  <ele>343.05</ele>
  <time>2026-09-01T19:51:44Z</time>
  <course>10.69</course>
  <speed>0.022360679774997897</speed>
  <fix>3d</fix>
</trkpt>
<trkpt lat="-27.274439" lon="151.290064">
  <ele>343.1</ele>
  <time>2026-09-01T19:51:44Z</time>
  <course>270.0</course>
  <speed>0.0</speed>
  <fix>3d</fix>
</trkpt>
<trkpt lat="-27.2744391" lon="151.2900641">
  <ele>343.05</ele>
  <time>2026-09-01T19:51:44Z</time>
  <course>10.69</course>
  <speed>0.022360679774997897</speed>
  <fix>3d</fix>
</trkpt>
<trkpt lat="-27.274439" lon="151.290064">
  <ele>343.1</ele>
  <time>2026-09-01T19:51:44Z</time>
  <course>270.0</course>
  <speed>0.0</speed>
  <fix>3d</fix>
</trkpt>
<trkpt lat="-27.2744391" lon="151.2900641">
  <ele>343.04</ele>
  <time>2026-09-01T19:51:44Z</time>
  <course>10.69</course>
  <speed>0.022360679774997897</speed>
  <fix>3d</fix>
</trkpt>
<trkpt lat="-27.274439" lon="151.290064">
  <ele>343.1</ele>
  <time>2026-09-01T19:51:44Z</time>
  <course>270.0</course>
  <speed>0.0</speed>
  <fix>3d</fix>
</trkpt>
<trkpt lat="-27.2744391" lon="151.2900641">
  <ele>343.04</ele>
  <time>2026-09-01T19:51:44Z</time>
  <course>10.69</course>
  <speed>0.022360679774997897</speed>
  <fix>3d</fix>
</trkpt>
<trkpt lat="-27.274439" lon="151.290064">
  <ele>343.1</ele>
  <time>2026-09-01T19:51:44Z</time>
  <course>270.0</course>
  <speed>0.0</speed>
  <fix>3d</fix>
</trkpt>
<trkpt lat="-27.2744391" lon="151.2900641">
  <ele>343.04</ele>
  <time>2026-09-01T19:51:44Z</time>
  <course>10.69</course>
  <speed>0.022360679774997897</speed>
  <fix>3d</fix>
</trkpt>
<trkpt lat="-27.274439" lon="151.290064">
  <ele>343.1</ele>
  <time>2026-09-01T19:51:44Z</time>
  <course>270.0</course>
  <speed>0.0</speed>
  <fix>3d</fix>
</trkpt>
<trkpt lat="-27.2744391" lon="151.2900641">
  <ele>343.03</ele>
  <time>2026-09-01T19:51:44Z</time>
  <course>10.69</course>
  <speed>0.022360679774997897</speed>
  <fix>3d</fix>
</trkpt>
<trkpt lat="-27.274439" lon="151.290064">
  <ele>343.1</ele>
  <time>2026-09-01T19:51:44Z</time>
  <course>270.0</course>
  <speed>0.0</speed>
  <fix>3d</fix>
</trkpt>
<trkpt lat="-27.2744391" lon="151.2900641">
  <ele>343.03</ele>
  <time>2026-09-01T19:51:44Z</time>
  <course>10.69</course>
  <speed>0.022360679774997897</speed>
  <fix>3d</fix>
</trkpt>
<trkpt lat="-27.274439" lon="151.290064">
  <ele>343.1</ele>
  <time>2026-09-01T19:51:44Z</time>
  <course>270.0</course>
  <speed>0.0</speed>
  <fix>3d</fix>
</trkpt>
<trkpt lat="-27.2744391" lon="151.2900641">
  <ele>343.03</ele>
  <time>2026-09-01T19:51:44Z</time>
  <course>10.69</course>
  <speed>0.022360679774997897</speed>
  <fix>3d</fix>
</trkpt>
<trkpt lat="-27.274439" lon="151.290064">
  <ele>343.1</ele>
  <time>2026-09-01T19:51:44Z</time>
  <course>270.0</course>
  <speed>0.0</speed>
  <fix>3d</fix>
</trkpt>
<trkpt lat="-27.2744391" lon="151.2900641">
  <ele>343.03</ele>
  <time>2026-09-01T19:51:45Z</time>
  <course>10.69</course>
  <speed>0.022360679774997897</speed>
  <fix>3d</fix>
</trkpt>
<trkpt lat="-27.274439" lon="151.290064">
  <ele>343.1</ele>
  <time>2026-09-01T19:51:45Z</time>
  <course>270.0</course>
  <speed>0.0</speed>
  <fix>3d</fix>
</trkpt>
<trkpt lat="-27.2744391" lon="151.2900641">
  <ele>343.03</ele>
  <time>2026-09-01T19:51:45Z</time>
  <course>10.69</course>
  <speed>0.022360679774997897</speed>
  <fix>3d</fix>
</trkpt>
<trkpt lat="-27.274439" lon="151.290064">
  <ele>343.1</ele>
  <time>2026-09-01T19:51:45Z</time>
  <course>270.0</course>
  <speed>0.0</speed>
  <fix>3d</fix>
</trkpt>
<trkpt lat="-27.2744391" lon="151.2900641">
  <ele>343.02</ele>
  <time>2026-09-01T19:51:45Z</time>
  <course>10.69</course>
  <speed>0.022360679774997897</speed>
  <fix>3d</fix>
</trkpt>
<trkpt lat="-27.274439" lon="151.290064">
  <ele>343.1</ele>
  <time>2026-09-01T19:51:45Z</time>
  <course>270.0</course>
  <speed>0.0</speed>
  <fix>3d</fix>
</trkpt>
<trkpt lat="-27.2744391" lon="151.2900641">
  <ele>343.02</ele>
  <time>2026-09-01T19:51:45Z</time>
  <course>10.69</course>
  <speed>0.022360679774997897</speed>
  <fix>3d</fix>
</trkpt>
<trkpt lat="-27.274439" lon="151.290064">
  <ele>343.1</ele>
  <time>2026-09-01T19:51:45Z</time>
  <course>270.0</course>
  <speed>0.0</speed>
  <fix>3d</fix>
</trkpt>
<trkpt lat="-27.2744391" lon="151.2900641">
  <ele>343.02</ele>
  <time>2026-09-01T19:51:45Z</time>
  <course>10.69</course>
  <speed>0.022360679774997897</speed>
  <fix>3d</fix>
</trkpt>
<trkpt lat="-27.274439" lon="151.290064">
  <ele>343.1</ele>
  <time>2026-09-01T19:51:45Z</time>
  <course>270.0</course>
  <speed>0.0</speed>
  <fix>3d</fix>
</trkpt>
<trkpt lat="-27.2744391" lon="151.2900641">
  <ele>343.02</ele>
  <time>2026-09-01T19:51:45Z</time>
  <course>10.69</course>
  <speed>0.022360679774997897</speed>
  <fix>3d</fix>
</trkpt>
<trkpt lat="-27.274439" lon="151.290064">
  <ele>343.1</ele>
  <time>2026-09-01T19:51:45Z</time>
  <course>270.0</course>
  <speed>0.0</speed>
  <fix>3d</fix>
</trkpt>
<trkpt lat="-27.2744391" lon="151.2900641">
  <ele>343.02</ele>
  <time>2026-09-01T19:51:45Z</time>
  <course>10.69</course>
  <speed>0.022360679774997897</speed>
  <fix>3d</fix>
</trkpt>
<trkpt lat="-27.274439" lon="151.290064">
  <ele>343.1</ele>
  <time>2026-09-01T19:51:45Z</time>
  <course>270.0</course>
  <speed>0.0</speed>
  <fix>3d</fix>
</trkpt>
<trkpt lat="-27.2744391" lon="151.2900641">
  <ele>343.02</ele>
  <time>2026-09-01T19:51:45Z</time>
  <course>10.69</course>
  <speed>0.022360679774997897</speed>
  <fix>3d</fix>
</trkpt>
<trkpt lat="-27.274439" lon="151.290064">
  <ele>343.1</ele>
  <time>2026-09-01T19:51:45Z</time>
  <course>270.0</course>
  <speed>0.0</speed>
  <fix>3d</fix>
</trkpt>
<trkpt lat="-27.2744391" lon="151.2900641">
  <ele>343.01</ele>
  <time>2026-09-01T19:51:45Z</time>
  <course>10.69</course>
  <speed>0.022360679774997897</speed>
  <fix>3d</fix>
</trkpt>
<trkpt lat="-27.274439" lon="151.290064">
  <ele>343.1</ele>
  <time>2026-09-01T19:51:45Z</time>
  <course>270.0</course>
  <speed>0.0</speed>
  <fix>3d</fix>
</trkpt>
<trkpt lat="-27.2744391" lon="151.2900641">
  <ele>343.01</ele>
  <time>2026-09-01T19:51:45Z</time>
  <course>10.69</course>
  <speed>0.022360679774997897</speed>
  <fix>3d</fix>
</trkpt>
<trkpt lat="-27.274439" lon="151.290064">
  <ele>343.1</ele>
  <time>2026-09-01T19:51:45Z</time>
  <course>270.0</course>
  <speed>0.0</speed>
  <fix>3d</fix>
</trkpt>
<trkpt lat="-27.2744391" lon="151.2900641">
  <ele>343.01</ele>
  <time>2026-09-01T19:51:45Z</time>
  <course>10.69</course>
  <speed>0.022360679774997897</speed>
  <fix>3d</fix>
</trkpt>
<trkpt lat="-27.274439" lon="151.290064">
  <ele>343.1</ele>
  <time>2026-09-01T19:51:45Z</time>
  <course>270.0</course>
  <speed>0.0</speed>
  <fix>3d</fix>
</trkpt>
<trkpt lat="-27.2744391" lon="151.2900641">
  <ele>343.01</ele>
  <time>2026-09-01T19:51:45Z</time>
  <course>10.69</course>
  <speed>0.022360679774997897</speed>
  <fix>3d</fix>
</trkpt>
<trkpt lat="-27.274439" lon="151.290064">
  <ele>343.1</ele>
  <time>2026-09-01T19:51:45Z</time>
  <course>270.0</course>
  <speed>0.0</speed>
  <fix>3d</fix>
</trkpt>
<trkpt lat="-27.2744391" lon="151.2900641">
  <ele>343.0</ele>
  <time>2026-09-01T19:51:45Z</time>
  <course>10.69</course>
  <speed>0.022360679774997897</speed>
  <fix>3d</fix>
</trkpt>
<trkpt lat="-27.274439" lon="151.290064">
  <ele>343.1</ele>
  <time>2026-09-01T19:51:45Z</time>
  <course>270.0</course>
  <speed>0.0</speed>
  <fix>3d</fix>
</trkpt>
<trkpt lat="-27.2744391" lon="151.2900641">
  <ele>343.0</ele>
  <time>2026-09-01T19:51:45Z</time>
  <course>10.7</course>
  <speed>0.022360679774997897</speed>
  <fix>3d</fix>
</trkpt>
<trkpt lat="-27.274439" lon="151.290064">
  <ele>343.1</ele>
  <time>2026-09-01T19:51:45Z</time>
  <course>270.0</course>
  <speed>0.0</speed>
  <fix>3d</fix>
</trkpt>
<trkpt lat="-27.2744391" lon="151.2900641">
  <ele>343.0</ele>
  <time>2026-09-01T19:51:45Z</time>
  <course>10.7</course>
  <speed>0.022360679774997897</speed>
  <fix>3d</fix>
</trkpt>
<trkpt lat="-27.274439" lon="151.290064">
  <ele>343.1</ele>
  <time>2026-09-01T19:51:45Z</time>
  <course>270.0</course>
  <speed>0.0</speed>
  <fix>3d</fix>
</trkpt>
<trkpt lat="-27.2744391" lon="151.2900641">
  <ele>342.99</ele>
  <time>2026-09-01T19:51:45Z</time>
  <course>10.7</course>
  <speed>0.022360679774997897</speed>
  <fix>3d</fix>
</trkpt>
<trkpt lat="-27.274439" lon="151.290064">
  <ele>343.1</ele>
  <time>2026-09-01T19:51:45Z</time>
  <course>270.0</course>
  <speed>0.0</speed>
  <fix>3d</fix>
</trkpt>
<trkpt lat="-27.2744391" lon="151.2900641">
  <ele>342.99</ele>
  <time>2026-09-01T19:51:45Z</time>
  <course>10.7</course>
  <speed>0.022360679774997897</speed>
  <fix>3d</fix>
</trkpt>
<trkpt lat="-27.274439" lon="151.290064">
  <ele>343.1</ele>
  <time>2026-09-01T19:51:45Z</time>
  <course>270.0</course>
  <speed>0.0</speed>
  <fix>3d</fix>
</trkpt>
<trkpt lat="-27.2744391" lon="151.2900641">
  <ele>342.99</ele>
  <time>2026-09-01T19:51:45Z</time>
  <course>10.7</course>
  <speed>0.022360679774997897</speed>
  <fix>3d</fix>
</trkpt>
<trkpt lat="-27.274439" lon="151.290064">
  <ele>343.1</ele>
  <time>2026-09-01T19:51:45Z</time>
  <course>270.0</course>
  <speed>0.0</speed>
  <fix>3d</fix>
</trkpt>
<trkpt lat="-27.2744391" lon="151.2900641">
  <ele>342.98</ele>
  <time>2026-09-01T19:51:45Z</time>
  <course>10.7</course>
  <speed>0.022360679774997897</speed>
  <fix>3d</fix>
</trkpt>
<trkpt lat="-27.274439" lon="151.290064">
  <ele>343.1</ele>
  <time>2026-09-01T19:51:45Z</time>
  <course>270.0</course>
  <speed>0.0</speed>
  <fix>3d</fix>
</trkpt>
<trkpt lat="-27.2744391" lon="151.2900641">
  <ele>342.98</ele>
  <time>2026-09-01T19:51:45Z</time>
  <course>10.7</course>
  <speed>0.022360679774997897</speed>
  <fix>3d</fix>
</trkpt>
<trkpt lat="-27.274439" lon="151.290064">
  <ele>343.1</ele>
  <time>2026-09-01T19:51:45Z</time>
  <course>270.0</course>
  <speed>0.0</speed>
  <fix>3d</fix>
</trkpt>
<trkpt lat="-27.2744391" lon="151.2900641">
  <ele>342.98</ele>
  <time>2026-09-01T19:51:45Z</time>
  <course>10.7</course>
  <speed>0.022360679774997897</speed>
  <fix>3d</fix>
</trkpt>
<trkpt lat="-27.274439" lon="151.290064">
  <ele>343.1</ele>
  <time>2026-09-01T19:51:45Z</time>
  <course>270.0</course>
  <speed>0.0</speed>
  <fix>3d</fix>
</trkpt>
<trkpt lat="-27.2744391" lon="151.2900641">
  <ele>342.98</ele>
  <time>2026-09-01T19:51:45Z</time>
  <course>10.7</course>
  <speed>0.022360679774997897</speed>
  <fix>3d</fix>
</trkpt>
<trkpt lat="-27.274439" lon="151.290064">
  <ele>343.1</ele>
  <time>2026-09-01T19:51:45Z</time>
  <course>270.0</course>
  <speed>0.0</speed>
  <fix>3d</fix>
</trkpt>
<trkpt lat="-27.2744391" lon="151.2900641">
  <ele>342.98</ele>
  <time>2026-09-01T19:51:45Z</time>
  <course>10.7</course>
  <speed>0.022360679774997897</speed>
  <fix>3d</fix>
</trkpt>
<trkpt lat="-27.274439" lon="151.290064">
  <ele>343.1</ele>
  <time>2026-09-01T19:51:45Z</time>
  <course>270.0</course>
  <speed>0.0</speed>
  <fix>3d</fix>
</trkpt>
<trkpt lat="-27.2744391" lon="151.2900641">
  <ele>342.98</ele>
  <time>2026-09-01T19:51:45Z</time>
  <course>10.7</course>
  <speed>0.022360679774997897</speed>
  <fix>3d</fix>
</trkpt>
<trkpt lat="-27.274439" lon="151.290064">
  <ele>343.1</ele>
  <time>2026-09-01T19:51:45Z</time>
  <course>270.0</course>
  <speed>0.0</speed>
  <fix>3d</fix>
</trkpt>
<trkpt lat="-27.2744391" lon="151.2900641">
  <ele>342.98</ele>
  <time>2026-09-01T19:51:45Z</time>
  <course>10.7</course>
  <speed>0.022360679774997897</speed>
  <fix>3d</fix>
</trkpt>
<trkpt lat="-27.274439" lon="151.290064">
  <ele>343.1</ele>
  <time>2026-09-01T19:51:45Z</time>
  <course>270.0</course>
  <speed>0.0</speed>
  <fix>3d</fix>
</trkpt>
<trkpt lat="-27.2744391" lon="151.2900641">
  <ele>342.98</ele>
  <time>2026-09-01T19:51:45Z</time>
  <course>10.7</course>
  <speed>0.022360679774997897</speed>
  <fix>3d</fix>
</trkpt>
<trkpt lat="-27.274439" lon="151.290064">
  <ele>343.1</ele>
  <time>2026-09-01T19:51:45Z</time>
  <course>270.0</course>
  <speed>0.0</speed>
  <fix>3d</fix>
</trkpt>
<trkpt lat="-27.2744391" lon="151.2900641">
  <ele>342.98</ele>
  <time>2026-09-01T19:51:45Z</time>
  <course>10.7</course>
  <speed>0.022360679774997897</speed>
  <fix>3d</fix>
</trkpt>
<trkpt lat="-27.274439" lon="151.290064">
  <ele>343.1</ele>
  <time>2026-09-01T19:51:45Z</time>
  <course>270.0</course>
  <speed>0.0</speed>
  <fix>3d</fix>
</trkpt>
<trkpt lat="-27.2744391" lon="151.2900641">
  <ele>342.98</ele>
  <time>2026-09-01T19:51:45Z</time>
  <course>10.7</course>
  <speed>0.022360679774997897</speed>
  <fix>3d</fix>
</trkpt>
<trkpt lat="-27.274439" lon="151.290064">
  <ele>343.1</ele>
  <time>2026-09-01T19:51:45Z</time>
  <course>270.0</course>
  <speed>0.0</speed>
  <fix>3d</fix>
</trkpt>
<trkpt lat="-27.2744391" lon="151.2900641">
  <ele>342.98</ele>
  <time>2026-09-01T19:51:45Z</time>
  <course>10.7</course>
  <speed>0.022360679774997897</speed>
  <fix>3d</fix>
</trkpt>
<trkpt lat="-27.274439" lon="151.290064">
  <ele>343.1</ele>
  <time>2026-09-01T19:51:45Z</time>
  <course>270.0</course>
  <speed>0.0</speed>
  <fix>3d</fix>
</trkpt>
<trkpt lat="-27.2744391" lon="151.2900641">
  <ele>342.97</ele>
  <time>2026-09-01T19:51:45Z</time>
  <course>10.7</course>
  <speed>0.022360679774997897</speed>
  <fix>3d</fix>
</trkpt>
<trkpt lat="-27.274439" lon="151.290064">
  <ele>343.1</ele>
  <time>2026-09-01T19:51:45Z</time>
  <course>270.0</course>
  <speed>0.0</speed>
  <fix>3d</fix>
</trkpt>
<trkpt lat="-27.2744391" lon="151.2900641">
  <ele>342.97</ele>
  <time>2026-09-01T19:51:45Z</time>
  <course>10.7</course>
  <speed>0.022360679774997897</speed>
  <fix>3d</fix>
</trkpt>
<trkpt lat="-27.274439" lon="151.290064">
  <ele>343.1</ele>
  <time>2026-09-01T19:51:45Z</time>
  <course>270.0</course>
  <speed>0.0</speed>
  <fix>3d</fix>
</trkpt>
<trkpt lat="-27.2744391" lon="151.2900641">
  <ele>342.97</ele>
  <time>2026-09-01T19:51:45Z</time>
  <course>10.7</course>
  <speed>0.022360679774997897</speed>
  <fix>3d</fix>
</trkpt>
<trkpt lat="-27.274439" lon="151.290064">
  <ele>343.1</ele>
  <time>2026-09-01T19:51:45Z</time>
  <course>270.0</course>
  <speed>0.0</speed>
  <fix>3d</fix>
</trkpt>
<trkpt lat="-27.2744391" lon="151.2900641">
  <ele>342.97</ele>
  <time>2026-09-01T19:51:45Z</time>
  <course>10.7</course>
  <speed>0.022360679774997897</speed>
  <fix>3d</fix>
</trkpt>
<trkpt lat="-27.274439" lon="151.290064">
  <ele>343.1</ele>
  <time>2026-09-01T19:51:45Z</time>
  <course>270.0</course>
  <speed>0.0</speed>
  <fix>3d</fix>
</trkpt>
<trkpt lat="-27.2744391" lon="151.2900641">
  <ele>342.97</ele>
  <time>2026-09-01T19:51:45Z</time>
  <course>10.7</course>
  <speed>0.022360679774997897</speed>
  <fix>3d</fix>
</trkpt>
<trkpt lat="-27.274439" lon="151.290064">
  <ele>343.1</ele>
  <time>2026-09-01T19:51:45Z</time>
  <course>270.0</course>
  <speed>0.0</speed>
  <fix>3d</fix>
</trkpt>
<trkpt lat="-27.2744391" lon="151.2900641">
  <ele>343.09</ele>
  <time>2026-09-01T19:51:45Z</time>
  <course>10.7</course>
  <speed>0.022360679774997897</speed>
  <fix>3d</fix>
</trkpt>
<trkpt lat="-27.274439" lon="151.290064">
  <ele>343.1</ele>
  <time>2026-09-01T19:51:45Z</time>
  <course>270.0</course>
  <speed>0.0</speed>
  <fix>3d</fix>
</trkpt>
<trkpt lat="-27.2744391" lon="151.2900641">
  <ele>343.09</ele>
  <time>2026-09-01T19:51:45Z</time>
  <course>10.7</course>
  <speed>0.022360679774997897</speed>
  <fix>3d</fix>
</trkpt>
<trkpt lat="-27.274439" lon="151.290064">
  <ele>343.1</ele>
  <time>2026-09-01T19:51:45Z</time>
  <course>270.0</course>
  <speed>0.0</speed>
  <fix>3d</fix>
</trkpt>
<trkpt lat="-27.2744391" lon="151.2900641">
  <ele>343.09</ele>
  <time>2026-09-01T19:51:45Z</time>
  <course>10.7</course>
  <speed>0.022360679774997897</speed>
  <fix>3d</fix>
</trkpt>
<trkpt lat="-27.274439" lon="151.290064">
  <ele>343.1</ele>
  <time>2026-09-01T19:51:45Z</time>
  <course>270.0</course>
  <speed>0.0</speed>
  <fix>3d</fix>
</trkpt>
<trkpt lat="-27.2744391" lon="151.2900641">
  <ele>343.09</ele>
  <time>2026-09-01T19:51:45Z</time>
  <course>10.7</course>
  <speed>0.022360679774997897</speed>
  <fix>3d</fix>
</trkpt>
<trkpt lat="-27.274439" lon="151.290064">
  <ele>343.1</ele>
  <time>2026-09-01T19:51:45Z</time>
  <course>270.0</course>
  <speed>0.0</speed>
  <fix>3d</fix>
</trkpt>
<trkpt lat="-27.2744391" lon="151.2900641">
  <ele>343.09</ele>
  <time>2026-09-01T19:51:45Z</time>
  <course>10.71</course>
  <speed>0.022360679774997897</speed>
  <fix>3d</fix>
</trkpt>
<trkpt lat="-27.274439" lon="151.290064">
  <ele>343.1</ele>
  <time>2026-09-01T19:51:45Z</time>
  <course>270.0</course>
  <speed>0.0</speed>
  <fix>3d</fix>
</trkpt>
<trkpt lat="-27.2744391" lon="151.2900641">
  <ele>343.09</ele>
  <time>2026-09-01T19:51:45Z</time>
  <course>10.71</course>
  <speed>0.022360679774997897</speed>
  <fix>3d</fix>
</trkpt>
<trkpt lat="-27.274439" lon="151.290064">
  <ele>343.1</ele>
  <time>2026-09-01T19:51:45Z</time>
  <course>270.0</course>
  <speed>0.0</speed>
  <fix>3d</fix>
</trkpt>
<trkpt lat="-27.2744391" lon="151.2900641">
  <ele>343.09</ele>
  <time>2026-09-01T19:51:45Z</time>
  <course>10.71</course>
  <speed>0.022360679774997897</speed>
  <fix>3d</fix>
</trkpt>
<trkpt lat="-27.274439" lon="151.290064">
  <ele>343.1</ele>
  <time>2026-09-01T19:51:45Z</time>
  <course>270.0</course>
  <speed>0.0</speed>
  <fix>3d</fix>
</trkpt>
<trkpt lat="-27.2744391" lon="151.2900641">
  <ele>343.09</ele>
  <time>2026-09-01T19:51:45Z</time>
  <course>10.71</course>
  <speed>0.022360679774997897</speed>
  <fix>3d</fix>
</trkpt>
<trkpt lat="-27.274439" lon="151.290064">
  <ele>343.1</ele>
  <time>2026-09-01T19:51:45Z</time>
  <course>270.0</course>
  <speed>0.0</speed>
  <fix>3d</fix>
</trkpt>
<trkpt lat="-27.2744391" lon="151.2900641">
  <ele>343.09</ele>
  <time>2026-09-01T19:51:45Z</time>
  <course>10.71</course>
  <speed>0.022360679774997897</speed>
  <fix>3d</fix>
</trkpt>
<trkpt lat="-27.274439" lon="151.290064">
  <ele>343.1</ele>
  <time>2026-09-01T19:51:45Z</time>
  <course>270.0</course>
  <speed>0.0</speed>
  <fix>3d</fix>
</trkpt>
<trkpt lat="-27.2744391" lon="151.2900641">
  <ele>343.09</ele>
  <time>2026-09-01T19:51:45Z</time>
  <course>10.71</course>
  <speed>0.022360679774997897</speed>
  <fix>3d</fix>
</trkpt>
<trkpt lat="-27.274439" lon="151.290064">
  <ele>343.1</ele>
  <time>2026-09-01T19:51:45Z</time>
  <course>270.0</course>
  <speed>0.0</speed>
  <fix>3d</fix>
</trkpt>
<trkpt lat="-27.2744391" lon="151.2900641">
  <ele>343.08</ele>
  <time>2026-09-01T19:51:45Z</time>
  <course>10.71</course>
  <speed>0.022360679774997897</speed>
  <fix>3d</fix>
</trkpt>
<trkpt lat="-27.274439" lon="151.290064">
  <ele>343.1</ele>
  <time>2026-09-01T19:51:45Z</time>
  <course>270.0</course>
  <speed>0.0</speed>
  <fix>3d</fix>
</trkpt>
<trkpt lat="-27.2744391" lon="151.2900641">
  <ele>343.08</ele>
  <time>2026-09-01T19:51:45Z</time>
  <course>10.71</course>
  <speed>0.022360679774997897</speed>
  <fix>3d</fix>
</trkpt>
<trkpt lat="-27.274439" lon="151.290064">
  <ele>343.1</ele>
  <time>2026-09-01T19:51:45Z</time>
  <course>270.0</course>
  <speed>0.0</speed>
  <fix>3d</fix>
</trkpt>
<trkpt lat="-27.2744391" lon="151.2900641">
  <ele>343.08</ele>
  <time>2026-09-01T19:51:45Z</time>
  <course>10.71</course>
  <speed>0.022360679774997897</speed>
  <fix>3d</fix>
</trkpt>
<trkpt lat="-27.274439" lon="151.290064">
  <ele>343.1</ele>
  <time>2026-09-01T19:51:45Z</time>
  <course>270.0</course>
  <speed>0.0</speed>
  <fix>3d</fix>
</trkpt>
<trkpt lat="-27.2744391" lon="151.2900641">
  <ele>343.08</ele>
  <time>2026-09-01T19:51:45Z</time>
  <course>10.71</course>
  <speed>0.022360679774997897</speed>
  <fix>3d</fix>
</trkpt>
<trkpt lat="-27.274439" lon="151.290064">
  <ele>343.1</ele>
  <time>2026-09-01T19:51:45Z</time>
  <course>270.0</course>
  <speed>0.0</speed>
  <fix>3d</fix>
</trkpt>
<trkpt lat="-27.2744391" lon="151.2900641">
  <ele>343.08</ele>
  <time>2026-09-01T19:51:45Z</time>
  <course>10.71</course>
  <speed>0.022360679774997897</speed>
  <fix>3d</fix>
</trkpt>
<trkpt lat="-27.274439" lon="151.290064">
  <ele>343.1</ele>
  <time>2026-09-01T19:51:45Z</time>
  <course>270.0</course>
  <speed>0.0</speed>
  <fix>3d</fix>
</trkpt>
<trkpt lat="-27.2744392" lon="151.2900641">
  <ele>343.08</ele>
  <time>2026-09-01T19:51:45Z</time>
  <course>10.71</course>
  <speed>0.022360679774997897</speed>
  <fix>3d</fix>
</trkpt>
<trkpt lat="-27.274439" lon="151.290064">
  <ele>343.1</ele>
  <time>2026-09-01T19:51:45Z</time>
  <course>270.0</course>
  <speed>0.0</speed>
  <fix>3d</fix>
</trkpt>
<trkpt lat="-27.2744391" lon="151.2900641">
  <ele>343.08</ele>
  <time>2026-09-01T19:51:45Z</time>
  <course>10.71</course>
  <speed>0.022360679774997897</speed>
  <fix>3d</fix>
</trkpt>
<trkpt lat="-27.274439" lon="151.290064">
  <ele>343.1</ele>
  <time>2026-09-01T19:51:45Z</time>
  <course>270.0</course>
  <speed>0.0</speed>
  <fix>3d</fix>
</trkpt>
<trkpt lat="-27.2744392" lon="151.2900641">
  <ele>343.07</ele>
  <time>2026-09-01T19:51:45Z</time>
  <course>10.71</course>
  <speed>0.022360679774997897</speed>
  <fix>3d</fix>
</trkpt>
<trkpt lat="-27.274439" lon="151.290064">
  <ele>343.1</ele>
  <time>2026-09-01T19:51:45Z</time>
  <course>270.0</course>
  <speed>0.0</speed>
  <fix>3d</fix>
</trkpt>
<trkpt lat="-27.2744391" lon="151.2900641">
  <ele>343.07</ele>
  <time>2026-09-01T19:51:45Z</time>
  <course>10.71</course>
  <speed>0.022360679774997897</speed>
  <fix>3d</fix>
</trkpt>
<trkpt lat="-27.274439" lon="151.290064">
  <ele>343.1</ele>
  <time>2026-09-01T19:51:45Z</time>
  <course>270.0</course>
  <speed>0.0</speed>
  <fix>3d</fix>
</trkpt>
<trkpt lat="-27.2744392" lon="151.2900641">
  <ele>343.07</ele>
  <time>2026-09-01T19:51:45Z</time>
  <course>10.71</course>
  <speed>0.022360679774997897</speed>
  <fix>3d</fix>
</trkpt>
<trkpt lat="-27.274439" lon="151.290064">
  <ele>343.1</ele>
  <time>2026-09-01T19:51:45Z</time>
  <course>270.0</course>
  <speed>0.0</speed>
  <fix>3d</fix>
</trkpt>
<trkpt lat="-27.2744391" lon="151.2900641">
  <ele>343.07</ele>
  <time>2026-09-01T19:51:45Z</time>
  <course>10.71</course>
  <speed>0.022360679774997897</speed>
  <fix>3d</fix>
</trkpt>
<trkpt lat="-27.274439" lon="151.290064">
  <ele>343.1</ele>
  <time>2026-09-01T19:51:45Z</time>
  <course>270.0</course>
  <speed>0.0</speed>
  <fix>3d</fix>
</trkpt>
<trkpt lat="-27.2744392" lon="151.2900641">
  <ele>343.07</ele>
  <time>2026-09-01T19:51:45Z</time>
  <course>10.71</course>
  <speed>0.022360679774997897</speed>
  <fix>3d</fix>
</trkpt>
<trkpt lat="-27.274439" lon="151.290064">
  <ele>343.1</ele>
  <time>2026-09-01T19:51:45Z</time>
  <course>270.0</course>
  <speed>0.0</speed>
  <fix>3d</fix>
</trkpt>
<trkpt lat="-27.2744391" lon="151.2900641">
  <ele>343.07</ele>
  <time>2026-09-01T19:51:45Z</time>
  <course>10.71</course>
  <speed>0.022360679774997897</speed>
  <fix>3d</fix>
</trkpt>
<trkpt lat="-27.274439" lon="151.290064">
  <ele>343.1</ele>
  <time>2026-09-01T19:51:45Z</time>
  <course>270.0</course>
  <speed>0.0</speed>
  <fix>3d</fix>
</trkpt>
<trkpt lat="-27.2744392" lon="151.2900641">
  <ele>343.06</ele>
  <time>2026-09-01T19:51:45Z</time>
  <course>10.71</course>
  <speed>0.022360679774997897</speed>
  <fix>3d</fix>
</trkpt>
<trkpt lat="-27.274439" lon="151.290064">
  <ele>343.1</ele>
  <time>2026-09-01T19:51:45Z</time>
  <course>270.0</course>
  <speed>0.0</speed>
  <fix>3d</fix>
</trkpt>
<trkpt lat="-27.2744391" lon="151.2900641">
  <ele>343.06</ele>
  <time>2026-09-01T19:51:45Z</time>
  <course>10.71</course>
  <speed>0.022360679774997897</speed>
  <fix>3d</fix>
</trkpt>
<trkpt lat="-27.274439" lon="151.290064">
  <ele>343.1</ele>
  <time>2026-09-01T19:51:45Z</time>
  <course>270.0</course>
  <speed>0.0</speed>
  <fix>3d</fix>
</trkpt>
<trkpt lat="-27.2744392" lon="151.2900641">
  <ele>343.06</ele>
  <time>2026-09-01T19:51:45Z</time>
  <course>10.71</course>
  <speed>0.022360679774997897</speed>
  <fix>3d</fix>
</trkpt>
<trkpt lat="-27.274439" lon="151.290064">
  <ele>343.1</ele>
  <time>2026-09-01T19:51:45Z</time>
  <course>270.0</course>
  <speed>0.0</speed>
  <fix>3d</fix>
</trkpt>
<trkpt lat="-27.2744391" lon="151.2900641">
  <ele>343.06</ele>
  <time>2026-09-01T19:51:45Z</time>
  <course>10.72</course>
  <speed>0.022360679774997897</speed>
  <fix>3d</fix>
</trkpt>
<trkpt lat="-27.274439" lon="151.290064">
  <ele>343.1</ele>
  <time>2026-09-01T19:51:45Z</time>
  <course>270.0</course>
  <speed>0.0</speed>
  <fix>3d</fix>
</trkpt>
<trkpt lat="-27.2744392" lon="151.2900641">
  <ele>343.06</ele>
  <time>2026-09-01T19:51:45Z</time>
  <course>10.72</course>
  <speed>0.022360679774997897</speed>
  <fix>3d</fix>
</trkpt>
<trkpt lat="-27.274439" lon="151.290064">
  <ele>343.1</ele>
  <time>2026-09-01T19:51:45Z</time>
  <course>270.0</course>
  <speed>0.0</speed>
  <fix>3d</fix>
</trkpt>
<trkpt lat="-27.2744391" lon="151.2900641">
  <ele>343.06</ele>
  <time>2026-09-01T19:51:45Z</time>
  <course>10.72</course>
  <speed>0.022360679774997897</speed>
  <fix>3d</fix>
</trkpt>
<trkpt lat="-27.274439" lon="151.290064">
  <ele>343.1</ele>
  <time>2026-09-01T19:51:45Z</time>
  <course>270.0</course>
  <speed>0.0</speed>
  <fix>3d</fix>
</trkpt>
<trkpt lat="-27.2744392" lon="151.2900641">
  <ele>343.06</ele>
  <time>2026-09-01T19:51:45Z</time>
  <course>10.72</course>
  <speed>0.022360679774997897</speed>
  <fix>3d</fix>
</trkpt>
<trkpt lat="-27.274439" lon="151.290064">
  <ele>343.1</ele>
  <time>2026-09-01T19:51:45Z</time>
  <course>270.0</course>
  <speed>0.0</speed>
  <fix>3d</fix>
</trkpt>
<trkpt lat="-27.2744391" lon="151.2900641">
  <ele>343.06</ele>
  <time>2026-09-01T19:51:45Z</time>
  <course>10.72</course>
  <speed>0.022360679774997897</speed>
  <fix>3d</fix>
</trkpt>
<trkpt lat="-27.274439" lon="151.290064">
  <ele>343.1</ele>
  <time>2026-09-01T19:51:45Z</time>
  <course>270.0</course>
  <speed>0.0</speed>
  <fix>3d</fix>
</trkpt>
<trkpt lat="-27.2744392" lon="151.2900641">
  <ele>343.06</ele>
  <time>2026-09-01T19:51:45Z</time>
  <course>10.72</course>
  <speed>0.022360679774997897</speed>
  <fix>3d</fix>
</trkpt>
<trkpt lat="-27.274439" lon="151.290064">
  <ele>343.1</ele>
  <time>2026-09-01T19:51:45Z</time>
  <course>270.0</course>
  <speed>0.0</speed>
  <fix>3d</fix>
</trkpt>
<trkpt lat="-27.2744391" lon="151.2900641">
  <ele>343.05</ele>
  <time>2026-09-01T19:51:45Z</time>
  <course>10.72</course>
  <speed>0.022360679774997897</speed>
  <fix>3d</fix>
</trkpt>
<trkpt lat="-27.274439" lon="151.290064">
  <ele>343.1</ele>
  <time>2026-09-01T19:51:45Z</time>
  <course>270.0</course>
  <speed>0.0</speed>
  <fix>3d</fix>
</trkpt>
<trkpt lat="-27.2744392" lon="151.2900641">
  <ele>343.05</ele>
  <time>2026-09-01T19:51:45Z</time>
  <course>10.72</course>
  <speed>0.022360679774997897</speed>
  <fix>3d</fix>
</trkpt>
<trkpt lat="-27.274439" lon="151.290064">
  <ele>343.1</ele>
  <time>2026-09-01T19:51:45Z</time>
  <course>270.0</course>
  <speed>0.0</speed>
  <fix>3d</fix>
</trkpt>
<trkpt lat="-27.2744391" lon="151.2900641">
  <ele>343.05</ele>
  <time>2026-09-01T19:51:45Z</time>
  <course>10.72</course>
  <speed>0.022360679774997897</speed>
  <fix>3d</fix>
</trkpt>
<trkpt lat="-27.274439" lon="151.290064">
  <ele>343.1</ele>
  <time>2026-09-01T19:51:45Z</time>
  <course>270.0</course>
  <speed>0.0</speed>
  <fix>3d</fix>
</trkpt>
<trkpt lat="-27.2744392" lon="151.2900641">
  <ele>343.04</ele>
  <time>2026-09-01T19:51:45Z</time>
  <course>10.72</course>
  <speed>0.022360679774997897</speed>
  <fix>3d</fix>
</trkpt>
<trkpt lat="-27.274439" lon="151.290064">
  <ele>343.1</ele>
  <time>2026-09-01T19:51:45Z</time>
  <course>270.0</course>
  <speed>0.0</speed>
  <fix>3d</fix>
</trkpt>
<trkpt lat="-27.2744391" lon="151.2900641">
  <ele>343.04</ele>
  <time>2026-09-01T19:51:45Z</time>
  <course>10.72</course>
  <speed>0.022360679774997897</speed>
  <fix>3d</fix>
</trkpt>
<trkpt lat="-27.274439" lon="151.290064">
  <ele>343.1</ele>
  <time>2026-09-01T19:51:45Z</time>
  <course>270.0</course>
  <speed>0.0</speed>
  <fix>3d</fix>
</trkpt>
<trkpt lat="-27.2744392" lon="151.2900641">
  <ele>343.04</ele>
  <time>2026-09-01T19:51:45Z</time>
  <course>10.72</course>
  <speed>0.022360679774997897</speed>
  <fix>3d</fix>
</trkpt>
<trkpt lat="-27.274439" lon="151.290064">
  <ele>343.1</ele>
  <time>2026-09-01T19:51:45Z</time>
  <course>270.0</course>
  <speed>0.0</speed>
  <fix>3d</fix>
</trkpt>
<trkpt lat="-27.2744391" lon="151.2900641">
  <ele>343.03</ele>
  <time>2026-09-01T19:51:45Z</time>
  <course>10.72</course>
  <speed>0.022360679774997897</speed>
  <fix>3d</fix>
</trkpt>
<trkpt lat="-27.274439" lon="151.290064">
  <ele>343.1</ele>
  <time>2026-09-01T19:51:45Z</time>
  <course>270.0</course>
  <speed>0.0</speed>
  <fix>3d</fix>
</trkpt>
<trkpt lat="-27.2744392" lon="151.2900641">
  <ele>343.03</ele>
  <time>2026-09-01T19:51:45Z</time>
  <course>10.72</course>
  <speed>0.022360679774997897</speed>
  <fix>3d</fix>
</trkpt>
<trkpt lat="-27.274439" lon="151.290064">
  <ele>343.1</ele>
  <time>2026-09-01T19:51:45Z</time>
  <course>270.0</course>
  <speed>0.0</speed>
  <fix>3d</fix>
</trkpt>
<trkpt lat="-27.2744391" lon="151.2900641">
  <ele>343.03</ele>
  <time>2026-09-01T19:51:45Z</time>
  <course>10.72</course>
  <speed>0.022360679774997897</speed>
  <fix>3d</fix>
</trkpt>
<trkpt lat="-27.274439" lon="151.290064">
  <ele>343.1</ele>
  <time>2026-09-01T19:51:45Z</time>
  <course>270.0</course>
  <speed>0.0</speed>
  <fix>3d</fix>
</trkpt>
<trkpt lat="-27.2744392" lon="151.2900641">
  <ele>343.03</ele>
  <time>2026-09-01T19:51:45Z</time>
  <course>10.72</course>
  <speed>0.022360679774997897</speed>
  <fix>3d</fix>
</trkpt>
<trkpt lat="-27.274439" lon="151.290064">
  <ele>343.1</ele>
  <time>2026-09-01T19:51:45Z</time>
  <course>270.0</course>
  <speed>0.0</speed>
  <fix>3d</fix>
</trkpt>
<trkpt lat="-27.2744391" lon="151.2900641">
  <ele>343.04</ele>
  <time>2026-09-01T19:51:45Z</time>
  <course>10.73</course>
  <speed>0.022360679774997897</speed>
  <fix>3d</fix>
</trkpt>
<trkpt lat="-27.274439" lon="151.290064">
  <ele>343.1</ele>
  <time>2026-09-01T19:51:45Z</time>
  <course>270.0</course>
  <speed>0.0</speed>
  <fix>3d</fix>
</trkpt>
<trkpt lat="-27.2744392" lon="151.2900641">
  <ele>343.04</ele>
  <time>2026-09-01T19:51:45Z</time>
  <course>10.73</course>
  <speed>0.022360679774997897</speed>
  <fix>3d</fix>
</trkpt>
<trkpt lat="-27.274439" lon="151.290064">
  <ele>343.1</ele>
  <time>2026-09-01T19:51:45Z</time>
  <course>270.0</course>
  <speed>0.0</speed>
  <fix>3d</fix>
</trkpt>
<trkpt lat="-27.2744391" lon="151.2900641">
  <ele>343.04</ele>
  <time>2026-09-01T19:51:45Z</time>
  <course>10.73</course>
  <speed>0.022360679774997897</speed>
  <fix>3d</fix>
</trkpt>
<trkpt lat="-27.274439" lon="151.290064">
  <ele>343.1</ele>
  <time>2026-09-01T19:51:45Z</time>
  <course>270.0</course>
  <speed>0.0</speed>
  <fix>3d</fix>
</trkpt>
<trkpt lat="-27.2744392" lon="151.2900641">
  <ele>343.04</ele>
  <time>2026-09-01T19:51:46Z</time>
  <course>10.73</course>
  <speed>0.022360679774997897</speed>
  <fix>3d</fix>
</trkpt>
<trkpt lat="-27.274439" lon="151.290064">
  <ele>343.1</ele>
  <time>2026-09-01T19:51:46Z</time>
  <course>270.0</course>
  <speed>0.0</speed>
  <fix>3d</fix>
</trkpt>
<trkpt lat="-27.2744392" lon="151.2900641">
  <ele>343.05</ele>
  <time>2026-09-01T19:51:46Z</time>
  <course>10.73</course>
  <speed>0.022360679774997897</speed>
  <fix>3d</fix>
</trkpt>
<trkpt lat="-27.274439" lon="151.290064">
  <ele>343.1</ele>
  <time>2026-09-01T19:51:46Z</time>
  <course>270.0</course>
  <speed>0.0</speed>
  <fix>3d</fix>
</trkpt>
<trkpt lat="-27.2744392" lon="151.2900641">
  <ele>343.05</ele>
  <time>2026-09-01T19:51:46Z</time>
  <course>10.73</course>
  <speed>0.022360679774997897</speed>
  <fix>3d</fix>
</trkpt>
<trkpt lat="-27.274439" lon="151.290064">
  <ele>343.1</ele>
  <time>2026-09-01T19:51:46Z</time>
  <course>270.0</course>
  <speed>0.0</speed>
  <fix>3d</fix>
</trkpt>
<trkpt lat="-27.2744392" lon="151.2900641">
  <ele>343.05</ele>
  <time>2026-09-01T19:51:46Z</time>
  <course>10.73</course>
  <speed>0.022360679774997897</speed>
  <fix>3d</fix>
</trkpt>
<trkpt lat="-27.274439" lon="151.290064">
  <ele>343.1</ele>
  <time>2026-09-01T19:51:46Z</time>
  <course>270.0</course>
  <speed>0.0</speed>
  <fix>3d</fix>
</trkpt>
<trkpt lat="-27.2744392" lon="151.2900641">
  <ele>343.06</ele>
  <time>2026-09-01T19:51:46Z</time>
  <course>10.73</course>
  <speed>0.022360679774997897</speed>
  <fix>3d</fix>
</trkpt>
<trkpt lat="-27.274439" lon="151.290064">
  <ele>343.1</ele>
  <time>2026-09-01T19:51:46Z</time>
  <course>270.0</course>
  <speed>0.0</speed>
  <fix>3d</fix>
</trkpt>
<trkpt lat="-27.2744392" lon="151.2900641">
  <ele>343.06</ele>
  <time>2026-09-01T19:51:46Z</time>
  <course>10.73</course>
  <speed>0.022360679774997897</speed>
  <fix>3d</fix>
</trkpt>
<trkpt lat="-27.274439" lon="151.290064">
  <ele>343.1</ele>
  <time>2026-09-01T19:51:46Z</time>
  <course>270.0</course>
  <speed>0.0</speed>
  <fix>3d</fix>
</trkpt>
<trkpt lat="-27.2744392" lon="151.2900641">
  <ele>343.06</ele>
  <time>2026-09-01T19:51:46Z</time>
  <course>10.73</course>
  <speed>0.022360679774997897</speed>
  <fix>3d</fix>
</trkpt>
<trkpt lat="-27.274439" lon="151.290064">
  <ele>343.1</ele>
  <time>2026-09-01T19:51:46Z</time>
  <course>270.0</course>
  <speed>0.0</speed>
  <fix>3d</fix>
</trkpt>
<trkpt lat="-27.2744392" lon="151.2900641">
  <ele>343.06</ele>
  <time>2026-09-01T19:51:46Z</time>
  <course>10.73</course>
  <speed>0.022360679774997897</speed>
  <fix>3d</fix>
</trkpt>
<trkpt lat="-27.274439" lon="151.290064">
  <ele>343.1</ele>
  <time>2026-09-01T19:51:46Z</time>
  <course>270.0</course>
  <speed>0.0</speed>
  <fix>3d</fix>
</trkpt>
<trkpt lat="-27.2744392" lon="151.2900641">
  <ele>343.06</ele>
  <time>2026-09-01T19:51:46Z</time>
  <course>10.73</course>
  <speed>0.022360679774997897</speed>
  <fix>3d</fix>
</trkpt>
<trkpt lat="-27.274439" lon="151.290064">
  <ele>343.1</ele>
  <time>2026-09-01T19:51:46Z</time>
  <course>270.0</course>
  <speed>0.0</speed>
  <fix>3d</fix>
</trkpt>
<trkpt lat="-27.2744392" lon="151.2900641">
  <ele>343.06</ele>
  <time>2026-09-01T19:51:46Z</time>
  <course>10.73</course>
  <speed>0.022360679774997897</speed>
  <fix>3d</fix>
</trkpt>
<trkpt lat="-27.274439" lon="151.290064">
  <ele>343.1</ele>
  <time>2026-09-01T19:51:46Z</time>
  <course>270.0</course>
  <speed>0.0</speed>
  <fix>3d</fix>
</trkpt>
<trkpt lat="-27.2744392" lon="151.2900641">
  <ele>343.06</ele>
  <time>2026-09-01T19:51:46Z</time>
  <course>10.73</course>
  <speed>0.022360679774997897</speed>
  <fix>3d</fix>
</trkpt>
<trkpt lat="-27.274439" lon="151.290064">
  <ele>343.1</ele>
  <time>2026-09-01T19:51:46Z</time>
  <course>270.0</course>
  <speed>0.0</speed>
  <fix>3d</fix>
</trkpt>
<trkpt lat="-27.2744392" lon="151.2900641">
  <ele>343.06</ele>
  <time>2026-09-01T19:51:46Z</time>
  <course>10.73</course>
  <speed>0.022360679774997897</speed>
  <fix>3d</fix>
</trkpt>
<trkpt lat="-27.274439" lon="151.290064">
  <ele>343.1</ele>
  <time>2026-09-01T19:51:46Z</time>
  <course>270.0</course>
  <speed>0.0</speed>
  <fix>3d</fix>
</trkpt>
<trkpt lat="-26.9720619" lon="149.6127921">
  <ele>339.29</ele>
  <time>2026-09-01T19:51:46Z</time>
  <course>310.27</course>
  <speed>0.0</speed>
  <fix>3d</fix>
</trkpt>
<trkpt lat="-26.9720619" lon="149.6127921">
  <ele>339.29</ele>
  <time>2026-09-01T19:51:46Z</time>
  <course>310.27</course>
  <speed>0.0</speed>
  <fix>3d</fix>
</trkpt>
<trkpt lat="-27.274439" lon="151.290064">
  <ele>-0.01</ele>
  <time>2026-09-01T19:51:46Z</time>
  <course>0.22</course>
  <speed>0.0</speed>
  <fix>3d</fix>
</trkpt>
<trkpt lat="-27.274439" lon="151.290064">
  <ele>343.1</ele>
  <time>2026-09-01T19:51:46Z</time>
  <course>294.58</course>
  <speed>0.0</speed>
  <fix>3d</fix>
</trkpt>
<trkpt lat="-27.274439" lon="151.290064">
  <ele>0.02</ele>
  <time>2026-09-01T19:51:46Z</time>
  <course>1.2</course>
  <speed>0.0</speed>
  <fix>3d</fix>
</trkpt>
<trkpt lat="-27.274439" lon="151.290064">
  <ele>343.1</ele>
  <time>2026-09-01T19:51:46Z</time>
  <course>294.58</course>
  <speed>0.0</speed>
  <fix>3d</fix>
</trkpt>
<trkpt lat="-27.274439" lon="151.290064">
  <ele>-0.08</ele>
  <time>2026-09-01T19:51:46Z</time>
  <course>2.1</course>
  <speed>0.0</speed>
  <fix>3d</fix>
</trkpt>
<trkpt lat="-27.274439" lon="151.290064">
  <ele>343.1</ele>
  <time>2026-09-01T19:51:46Z</time>
  <course>273.33</course>
  <speed>0.0</speed>
  <fix>3d</fix>
</trkpt>
<trkpt lat="-27.274439" lon="151.290064">
  <ele>0.22</ele>
  <time>2026-09-01T19:51:46Z</time>
  <course>2.92</course>
  <speed>0.0</speed>
  <fix>3d</fix>
</trkpt>
<trkpt lat="-27.274439" lon="151.290064">
  <ele>343.1</ele>
  <time>2026-09-01T19:51:46Z</time>
  <course>273.33</course>
  <speed>0.0</speed>
  <fix>3d</fix>
</trkpt>
<trkpt lat="-27.274439" lon="151.290064">
  <ele>0.09</ele>
  <time>2026-09-01T19:51:46Z</time>
  <course>3.66</course>
  <speed>0.0</speed>
  <fix>3d</fix>
</trkpt>
<trkpt lat="-27.274439" lon="151.290064">
  <ele>343.1</ele>
  <time>2026-09-01T19:51:46Z</time>
  <course>270.44</course>
  <speed>0.0</speed>
  <fix>3d</fix>
</trkpt>
<trkpt lat="-27.274439" lon="151.290064">
  <ele>0.08</ele>
  <time>2026-09-01T19:51:46Z</time>
  <course>4.34</course>
  <speed>0.0</speed>
  <fix>3d</fix>
</trkpt>
<trkpt lat="-27.274439" lon="151.290064">
  <ele>343.1</ele>
  <time>2026-09-01T19:51:46Z</time>
  <course>270.44</course>
  <speed>0.0</speed>
  <fix>3d</fix>
</trkpt>
<trkpt lat="-27.274439" lon="151.290064">
  <ele>0.09</ele>
  <time>2026-09-01T19:51:46Z</time>
  <course>4.95</course>
  <speed>0.0</speed>
  <fix>3d</fix>
</trkpt>
<trkpt lat="-27.274439" lon="151.290064">
  <ele>343.1</ele>
  <time>2026-09-01T19:51:46Z</time>
  <course>270.05</course>
  <speed>0.0</speed>
  <fix>3d</fix>
</trkpt>
<trkpt lat="-27.274439" lon="151.290064">
  <ele>-0.05</ele>
  <time>2026-09-01T19:51:46Z</time>
  <course>5.5</course>
  <speed>0.0</speed>
  <fix>3d</fix>
</trkpt>
<trkpt lat="-27.274439" lon="151.290064">
  <ele>343.1</ele>
  <time>2026-09-01T19:51:46Z</time>
  <course>270.05</course>
  <speed>0.0</speed>
  <fix>3d</fix>
</trkpt>
<trkpt lat="-27.274439" lon="151.290064">
  <ele>343.06</ele>
  <time>2026-09-01T19:51:46Z</time>
  <course>5.98</course>
  <speed>0.0</speed>
  <fix>3d</fix>
</trkpt>
<trkpt lat="-27.274439" lon="151.290064">
  <ele>343.1</ele>
  <time>2026-09-01T19:51:46Z</time>
  <course>270.0</course>
  <speed>0.0</speed>
  <fix>3d</fix>
</trkpt>
<trkpt lat="-27.274439" lon="151.290064">
  <ele>343.18</ele>
  <time>2026-09-01T19:51:46Z</time>
  <course>6.44</course>
  <speed>0.0</speed>
  <fix>3d</fix>
</trkpt>
<trkpt lat="-27.274439" lon="151.290064">
  <ele>343.1</ele>
  <time>2026-09-01T19:51:46Z</time>
  <course>270.0</course>
  <speed>0.0</speed>
  <fix>3d</fix>
</trkpt>
<trkpt lat="-27.274439" lon="151.290064">
  <ele>342.91</ele>
  <time>2026-09-01T19:51:46Z</time>
  <course>6.85</course>
  <speed>0.0</speed>
  <fix>3d</fix>
</trkpt>
<trkpt lat="-27.274439" lon="151.290064">
  <ele>343.1</ele>
  <time>2026-09-01T19:51:46Z</time>
  <course>270.0</course>
  <speed>0.0</speed>
  <fix>3d</fix>
</trkpt>
<trkpt lat="-27.274439" lon="151.290064">
  <ele>343.06</ele>
  <time>2026-09-01T19:51:46Z</time>
  <course>7.22</course>
  <speed>0.0</speed>
  <fix>3d</fix>
</trkpt>
<trkpt lat="-27.274439" lon="151.290064">
  <ele>343.1</ele>
  <time>2026-09-01T19:51:46Z</time>
  <course>270.0</course>
  <speed>0.0</speed>
  <fix>3d</fix>
</trkpt>
<trkpt lat="-27.274439" lon="151.290064">
  <ele>343.13</ele>
  <time>2026-09-01T19:51:46Z</time>
  <course>7.56</course>
  <speed>0.0</speed>
  <fix>3d</fix>
</trkpt>
<trkpt lat="-27.274439" lon="151.290064">
  <ele>343.1</ele>
  <time>2026-09-01T19:51:46Z</time>
  <course>270.0</course>
  <speed>0.0</speed>
  <fix>3d</fix>
</trkpt>
<trkpt lat="-27.274439" lon="151.290064">
  <ele>343.04</ele>
  <time>2026-09-01T19:51:46Z</time>
  <course>7.87</course>
  <speed>0.0</speed>
  <fix>3d</fix>
</trkpt>
<trkpt lat="-27.274439" lon="151.290064">
  <ele>343.1</ele>
  <time>2026-09-01T19:51:46Z</time>
  <course>270.0</course>
  <speed>0.0</speed>
  <fix>3d</fix>
</trkpt>
<trkpt lat="-27.274439" lon="151.290064">
  <ele>342.88</ele>
  <time>2026-09-01T19:51:46Z</time>
  <course>8.14</course>
  <speed>0.0</speed>
  <fix>3d</fix>
</trkpt>
<trkpt lat="-27.274439" lon="151.290064">
  <ele>343.1</ele>
  <time>2026-09-01T19:51:46Z</time>
  <course>270.0</course>
  <speed>0.0</speed>
  <fix>3d</fix>
</trkpt>
<trkpt lat="-27.274439" lon="151.290064">
  <ele>343.02</ele>
  <time>2026-09-01T19:51:46Z</time>
  <course>8.39</course>
  <speed>0.0</speed>
  <fix>3d</fix>
</trkpt>
<trkpt lat="-27.274439" lon="151.290064">
  <ele>343.1</ele>
  <time>2026-09-01T19:51:46Z</time>
  <course>270.0</course>
  <speed>0.0</speed>
  <fix>3d</fix>
</trkpt>
<trkpt lat="-27.274439" lon="151.290064">
  <ele>343.23</ele>
  <time>2026-09-01T19:51:46Z</time>
  <course>8.63</course>
  <speed>0.0</speed>
  <fix>3d</fix>
</trkpt>
<trkpt lat="-27.274439" lon="151.290064">
  <ele>343.1</ele>
  <time>2026-09-01T19:51:46Z</time>
  <course>270.0</course>
  <speed>0.0</speed>
  <fix>3d</fix>
</trkpt>
<trkpt lat="-27.274439" lon="151.290064">
  <ele>343.17</ele>
  <time>2026-09-01T19:51:46Z</time>
  <course>8.83</course>
  <speed>0.0</speed>
  <fix>3d</fix>
</trkpt>
<trkpt lat="-27.274439" lon="151.290064">
  <ele>343.1</ele>
  <time>2026-09-01T19:51:46Z</time>
  <course>270.0</course>
  <speed>0.0</speed>
  <fix>3d</fix>
</trkpt>
<trkpt lat="-27.274439" lon="151.290064">
  <ele>343.04</ele>
  <time>2026-09-01T19:51:46Z</time>
  <course>9.01</course>
  <speed>0.0</speed>
  <fix>3d</fix>
</trkpt>
<trkpt lat="-27.274439" lon="151.290064">
  <ele>343.1</ele>
  <time>2026-09-01T19:51:46Z</time>
  <course>270.0</course>
  <speed>0.0</speed>
  <fix>3d</fix>
</trkpt>
<trkpt lat="-27.274439" lon="151.290064">
  <ele>342.89</ele>
  <time>2026-09-01T19:51:46Z</time>
  <course>9.18</course>
  <speed>0.0</speed>
  <fix>3d</fix>
</trkpt>
<trkpt lat="-27.274439" lon="151.290064">
  <ele>343.1</ele>
  <time>2026-09-01T19:51:46Z</time>
  <course>270.0</course>
  <speed>0.0</speed>
  <fix>3d</fix>
</trkpt>
<trkpt lat="-27.274439" lon="151.290064">
  <ele>343.08</ele>
  <time>2026-09-01T19:51:47Z</time>
  <course>9.33</course>
  <speed>0.0</speed>
  <fix>3d</fix>
</trkpt>
<trkpt lat="-27.274439" lon="151.290064">
  <ele>343.1</ele>
  <time>2026-09-01T19:51:47Z</time>
  <course>270.0</course>
  <speed>0.0</speed>
  <fix>3d</fix>
</trkpt>
<trkpt lat="-27.274439" lon="151.290064">
  <ele>343.19</ele>
  <time>2026-09-01T19:51:47Z</time>
  <course>9.47</course>
  <speed>0.0</speed>
  <fix>3d</fix>
</trkpt>
<trkpt lat="-27.274439" lon="151.290064">
  <ele>343.1</ele>
  <time>2026-09-01T19:51:47Z</time>
  <course>270.0</course>
  <speed>0.0</speed>
  <fix>3d</fix>
</trkpt>
<trkpt lat="-27.274439" lon="151.290064">
  <ele>342.88</ele>
  <time>2026-09-01T19:51:47Z</time>
  <course>9.59</course>
  <speed>0.0</speed>
  <fix>3d</fix>
</trkpt>
<trkpt lat="-27.274439" lon="151.290064">
  <ele>343.1</ele>
  <time>2026-09-01T19:51:47Z</time>
  <course>270.0</course>
  <speed>0.0</speed>
  <fix>3d</fix>
</trkpt>
<trkpt lat="-27.274439" lon="151.290064">
  <ele>343.17</ele>
  <time>2026-09-01T19:51:47Z</time>
  <course>9.7</course>
  <speed>0.0</speed>
  <fix>3d</fix>
</trkpt>
<trkpt lat="-27.274439" lon="151.290064">
  <ele>343.1</ele>
  <time>2026-09-01T19:51:47Z</time>
  <course>270.0</course>
  <speed>0.0</speed>
  <fix>3d</fix>
</trkpt>
<trkpt lat="-27.274439" lon="151.290064">
  <ele>342.89</ele>
  <time>2026-09-01T19:51:47Z</time>
  <course>9.8</course>
  <speed>0.0</speed>
  <fix>3d</fix>
</trkpt>
<trkpt lat="-27.274439" lon="151.290064">
  <ele>343.1</ele>
  <time>2026-09-01T19:51:47Z</time>
  <course>270.0</course>
  <speed>0.0</speed>
  <fix>3d</fix>
</trkpt>
<trkpt lat="-27.274439" lon="151.290064">
  <ele>342.99</ele>
  <time>2026-09-01T19:51:47Z</time>
  <course>9.9</course>
  <speed>0.0</speed>
  <fix>3d</fix>
</trkpt>
<trkpt lat="-27.274439" lon="151.290064">
  <ele>343.1</ele>
  <time>2026-09-01T19:51:47Z</time>
  <course>270.0</course>
  <speed>0.0</speed>
  <fix>3d</fix>
</trkpt>
<trkpt lat="-27.274439" lon="151.290064">
  <ele>342.87</ele>
  <time>2026-09-01T19:51:47Z</time>
  <course>9.98</course>
  <speed>0.0</speed>
  <fix>3d</fix>
</trkpt>
<trkpt lat="-27.274439" lon="151.290064">
  <ele>343.1</ele>
  <time>2026-09-01T19:51:47Z</time>
  <course>270.0</course>
  <speed>0.0</speed>
  <fix>3d</fix>
</trkpt>
<trkpt lat="-27.274439" lon="151.290064">
  <ele>343.09</ele>
  <time>2026-09-01T19:51:47Z</time>
  <course>10.06</course>
  <speed>0.0</speed>
  <fix>3d</fix>
</trkpt>
<trkpt lat="-27.274439" lon="151.290064">
  <ele>343.1</ele>
  <time>2026-09-01T19:51:47Z</time>
  <course>270.0</course>
  <speed>0.0</speed>
  <fix>3d</fix>
</trkpt>
<trkpt lat="-27.274439" lon="151.290064">
  <ele>343.18</ele>
  <time>2026-09-01T19:51:47Z</time>
  <course>10.13</course>
  <speed>0.0</speed>
  <fix>3d</fix>
</trkpt>
<trkpt lat="-27.274439" lon="151.290064">
  <ele>343.1</ele>
  <time>2026-09-01T19:51:47Z</time>
  <course>270.0</course>
  <speed>0.0</speed>
  <fix>3d</fix>
</trkpt>
<trkpt lat="-27.274439" lon="151.290064">
  <ele>343.05</ele>
  <time>2026-09-01T19:51:47Z</time>
  <course>10.2</course>
  <speed>0.0</speed>
  <fix>3d</fix>
</trkpt>
<trkpt lat="-27.274439" lon="151.290064">
  <ele>343.1</ele>
  <time>2026-09-01T19:51:47Z</time>
  <course>270.0</course>
  <speed>0.0</speed>
  <fix>3d</fix>
</trkpt>
<trkpt lat="-27.274439" lon="151.290064">
  <ele>342.96</ele>
  <time>2026-09-01T19:51:47Z</time>
  <course>10.25</course>
  <speed>0.0</speed>
  <fix>3d</fix>
</trkpt>
<trkpt lat="-27.274439" lon="151.290064">
  <ele>343.1</ele>
  <time>2026-09-01T19:51:47Z</time>
  <course>270.0</course>
  <speed>0.0</speed>
  <fix>3d</fix>
</trkpt>
<trkpt lat="-27.274439" lon="151.290064">
  <ele>343.1</ele>
  <time>2026-09-01T19:51:47Z</time>
  <course>10.31</course>
  <speed>0.0</speed>
  <fix>3d</fix>
</trkpt>
<trkpt lat="-27.274439" lon="151.290064">
  <ele>343.1</ele>
  <time>2026-09-01T19:51:47Z</time>
  <course>270.0</course>
  <speed>0.0</speed>
  <fix>3d</fix>
</trkpt>
<trkpt lat="-27.274439" lon="151.290064">
  <ele>343.22</ele>
  <time>2026-09-01T19:51:47Z</time>
  <course>10.35</course>
  <speed>0.0</speed>
  <fix>3d</fix>
</trkpt>
<trkpt lat="-27.274439" lon="151.290064">
  <ele>343.1</ele>
  <time>2026-09-01T19:51:47Z</time>
  <course>270.0</course>
  <speed>0.0</speed>
  <fix>3d</fix>
</trkpt>
<trkpt lat="-27.274439" lon="151.290064">
  <ele>343.17</ele>
  <time>2026-09-01T19:51:47Z</time>
  <course>10.4</course>
  <speed>0.0</speed>
  <fix>3d</fix>
</trkpt>
<trkpt lat="-27.274439" lon="151.290064">
  <ele>343.1</ele>
  <time>2026-09-01T19:51:47Z</time>
  <course>270.0</course>
  <speed>0.0</speed>
  <fix>3d</fix>
</trkpt>
<trkpt lat="-27.274439" lon="151.290064">
  <ele>343.08</ele>
  <time>2026-09-01T19:51:47Z</time>
  <course>10.44</course>
  <speed>0.0</speed>
  <fix>3d</fix>
</trkpt>
<trkpt lat="-27.274439" lon="151.290064">
  <ele>343.1</ele>
  <time>2026-09-01T19:51:47Z</time>
  <course>270.0</course>
  <speed>0.0</speed>
  <fix>3d</fix>
</trkpt>
<trkpt lat="-27.274439" lon="151.290064">
  <ele>343.04</ele>
  <time>2026-09-01T19:51:47Z</time>
  <course>10.47</course>
  <speed>0.0</speed>
  <fix>3d</fix>
</trkpt>
<trkpt lat="-27.274439" lon="151.290064">
  <ele>343.1</ele>
  <time>2026-09-01T19:51:47Z</time>
  <course>270.0</course>
  <speed>0.0</speed>
  <fix>3d</fix>
</trkpt>
<trkpt lat="-27.274439" lon="151.290064">
  <ele>343.18</ele>
  <time>2026-09-01T19:51:47Z</time>
  <course>10.5</course>
  <speed>0.0</speed>
  <fix>3d</fix>
</trkpt>
<trkpt lat="-27.274439" lon="151.290064">
  <ele>343.1</ele>
  <time>2026-09-01T19:51:47Z</time>
  <course>270.0</course>
  <speed>0.0</speed>
  <fix>3d</fix>
</trkpt>
<trkpt lat="-27.274439" lon="151.290064">
  <ele>343.12</ele>
  <time>2026-09-01T19:51:47Z</time>
  <course>10.53</course>
  <speed>0.0</speed>
  <fix>3d</fix>
</trkpt>
<trkpt lat="-27.274439" lon="151.290064">
  <ele>343.1</ele>
  <time>2026-09-01T19:51:47Z</time>
  <course>270.0</course>
  <speed>0.0</speed>
  <fix>3d</fix>
</trkpt>
<trkpt lat="-27.274439" lon="151.290064">
  <ele>343.04</ele>
  <time>2026-09-01T19:51:47Z</time>
  <course>10.56</course>
  <speed>0.0</speed>
  <fix>3d</fix>
</trkpt>
<trkpt lat="-27.274439" lon="151.290064">
  <ele>343.1</ele>
  <time>2026-09-01T19:51:47Z</time>
  <course>270.0</course>
  <speed>0.0</speed>
  <fix>3d</fix>
</trkpt>
<trkpt lat="-27.274439" lon="151.290064">
  <ele>343.07</ele>
  <time>2026-09-01T19:51:47Z</time>
  <course>10.58</course>
  <speed>0.0</speed>
  <fix>3d</fix>
</trkpt>
<trkpt lat="-27.274439" lon="151.290064">
  <ele>343.1</ele>
  <time>2026-09-01T19:51:47Z</time>
  <course>270.0</course>
  <speed>0.0</speed>
  <fix>3d</fix>
</trkpt>
<trkpt lat="-27.274439" lon="151.290064">
  <ele>343.04</ele>
  <time>2026-09-01T19:51:47Z</time>
  <course>10.6</course>
  <speed>0.0</speed>
  <fix>3d</fix>
</trkpt>
<trkpt lat="-27.274439" lon="151.290064">
  <ele>343.1</ele>
  <time>2026-09-01T19:51:47Z</time>
  <course>270.0</course>
  <speed>0.0</speed>
  <fix>3d</fix>
</trkpt>
<trkpt lat="-27.274439" lon="151.290064">
  <ele>343.01</ele>
  <time>2026-09-01T19:51:47Z</time>
  <course>10.62</course>
  <speed>0.0</speed>
  <fix>3d</fix>
</trkpt>
<trkpt lat="-27.274439" lon="151.290064">
  <ele>343.1</ele>
  <time>2026-09-01T19:51:47Z</time>
  <course>270.0</course>
  <speed>0.0</speed>
  <fix>3d</fix>
</trkpt>
<trkpt lat="-27.274439" lon="151.290064">
  <ele>343.2</ele>
  <time>2026-09-01T19:51:47Z</time>
  <course>10.64</course>
  <speed>0.0</speed>
  <fix>3d</fix>
</trkpt>
<trkpt lat="-27.274439" lon="151.290064">
  <ele>343.1</ele>
  <time>2026-09-01T19:51:47Z</time>
  <course>270.0</course>
  <speed>0.0</speed>
  <fix>3d</fix>
</trkpt>
<trkpt lat="-27.274439" lon="151.290064">
  <ele>343.24</ele>
  <time>2026-09-01T19:51:47Z</time>
  <course>10.65</course>
  <speed>0.0</speed>
  <fix>3d</fix>
</trkpt>
<trkpt lat="-27.274439" lon="151.290064">
  <ele>343.1</ele>
  <time>2026-09-01T19:51:47Z</time>
  <course>270.0</course>
  <speed>0.0</speed>
  <fix>3d</fix>
</trkpt>
<trkpt lat="-27.274439" lon="151.290064">
  <ele>342.88</ele>
  <time>2026-09-01T19:51:47Z</time>
  <course>10.67</course>
  <speed>0.0</speed>
  <fix>3d</fix>
</trkpt>
<trkpt lat="-27.274439" lon="151.290064">
  <ele>343.1</ele>
  <time>2026-09-01T19:51:47Z</time>
  <course>270.0</course>
  <speed>0.0</speed>
  <fix>3d</fix>
</trkpt>
<trkpt lat="-27.274439" lon="151.290064">
  <ele>343.21</ele>
  <time>2026-09-01T19:51:47Z</time>
  <course>10.68</course>
  <speed>0.0</speed>
  <fix>3d</fix>
</trkpt>
<trkpt lat="-27.274439" lon="151.290064">
  <ele>343.1</ele>
  <time>2026-09-01T19:51:47Z</time>
  <course>270.0</course>
  <speed>0.0</speed>
  <fix>3d</fix>
</trkpt>
<trkpt lat="-27.274439" lon="151.290064">
  <ele>343.02</ele>
  <time>2026-09-01T19:51:47Z</time>
  <course>10.69</course>
  <speed>0.0</speed>
  <fix>3d</fix>
</trkpt>
<trkpt lat="-27.274439" lon="151.290064">
  <ele>343.1</ele>
  <time>2026-09-01T19:51:47Z</time>
  <course>270.0</course>
  <speed>0.0</speed>
  <fix>3d</fix>
</trkpt>
<trkpt lat="-27.274439" lon="151.290064">
  <ele>342.93</ele>
  <time>2026-09-01T19:51:47Z</time>
  <course>10.7</course>
  <speed>0.0</speed>
  <fix>3d</fix>
</trkpt>
<trkpt lat="-27.274439" lon="151.290064">
  <ele>343.1</ele>
  <time>2026-09-01T19:51:47Z</time>
  <course>270.0</course>
  <speed>0.0</speed>
  <fix>3d</fix>
</trkpt>
<trkpt lat="-27.274439" lon="151.290064">
  <ele>343.07</ele>
  <time>2026-09-01T19:51:47Z</time>
  <course>10.71</course>
  <speed>0.0</speed>
  <fix>3d</fix>
</trkpt>
<trkpt lat="-27.274439" lon="151.290064">
  <ele>343.1</ele>
  <time>2026-09-01T19:51:47Z</time>
  <course>270.0</course>
  <speed>0.0</speed>
  <fix>3d</fix>
</trkpt>
<trkpt lat="-27.274439" lon="151.290064">
  <ele>342.94</ele>
  <time>2026-09-01T19:51:47Z</time>
  <course>10.72</course>
  <speed>0.0</speed>
  <fix>3d</fix>
</trkpt>
<trkpt lat="-27.274439" lon="151.290064">
  <ele>343.1</ele>
  <time>2026-09-01T19:51:47Z</time>
  <course>270.0</course>
  <speed>0.0</speed>
  <fix>3d</fix>
</trkpt>
<trkpt lat="-27.274439" lon="151.290064">
  <ele>343.11</ele>
  <time>2026-09-01T19:51:47Z</time>
  <course>10.73</course>
  <speed>0.0</speed>
  <fix>3d</fix>
</trkpt>
<trkpt lat="-27.274439" lon="151.290064">
  <ele>343.1</ele>
  <time>2026-09-01T19:51:47Z</time>
  <course>270.0</course>
  <speed>0.0</speed>
  <fix>3d</fix>
</trkpt>
<trkpt lat="-27.274439" lon="151.290064">
  <ele>343.24</ele>
  <time>2026-09-01T19:51:47Z</time>
  <course>10.73</course>
  <speed>0.0</speed>
  <fix>3d</fix>
</trkpt>
<trkpt lat="-27.274439" lon="151.290064">
  <ele>343.1</ele>
  <time>2026-09-01T19:51:47Z</time>
  <course>270.0</course>
  <speed>0.0</speed>
  <fix>3d</fix>
</trkpt>
<trkpt lat="-27.274439" lon="151.290064">
  <ele>343.18</ele>
  <time>2026-09-01T19:51:47Z</time>
  <course>10.74</course>
  <speed>0.0</speed>
  <fix>3d</fix>
</trkpt>
<trkpt lat="-27.274439" lon="151.290064">
  <ele>343.1</ele>
  <time>2026-09-01T19:51:47Z</time>
  <course>270.0</course>
  <speed>0.0</speed>
  <fix>3d</fix>
</trkpt>
<trkpt lat="-27.274439" lon="151.290064">
  <ele>342.89</ele>
  <time>2026-09-01T19:51:47Z</time>
  <course>10.75</course>
  <speed>0.0</speed>
  <fix>3d</fix>
</trkpt>
<trkpt lat="-27.274439" lon="151.290064">
  <ele>343.1</ele>
  <time>2026-09-01T19:51:47Z</time>
  <course>270.0</course>
  <speed>0.0</speed>
  <fix>3d</fix>
</trkpt>
<trkpt lat="-27.274439" lon="151.290064">
  <ele>343.23</ele>
  <time>2026-09-01T19:51:47Z</time>
  <course>10.75</course>
  <speed>0.0</speed>
  <fix>3d</fix>
</trkpt>
<trkpt lat="-27.274439" lon="151.290064">
  <ele>343.1</ele>
  <time>2026-09-01T19:51:47Z</time>
  <course>270.0</course>
  <speed>0.0</speed>
  <fix>3d</fix>
</trkpt>
<trkpt lat="-27.274439" lon="151.290064">
  <ele>343.23</ele>
  <time>2026-09-01T19:51:47Z</time>
  <course>10.76</course>
  <speed>0.0</speed>
  <fix>3d</fix>
</trkpt>
<trkpt lat="-27.274439" lon="151.290064">
  <ele>343.1</ele>
  <time>2026-09-01T19:51:47Z</time>
  <course>270.0</course>
  <speed>0.0</speed>
  <fix>3d</fix>
</trkpt>
<trkpt lat="-27.274439" lon="151.290064">
  <ele>342.99</ele>
  <time>2026-09-01T19:51:47Z</time>
  <course>10.76</course>
  <speed>0.0</speed>
  <fix>3d</fix>
</trkpt>
<trkpt lat="-27.274439" lon="151.290064">
  <ele>343.1</ele>
  <time>2026-09-01T19:51:47Z</time>
  <course>270.0</course>
  <speed>0.0</speed>
  <fix>3d</fix>
</trkpt>
<trkpt lat="-27.274439" lon="151.290064">
  <ele>343.13</ele>
  <time>2026-09-01T19:51:47Z</time>
  <course>10.76</course>
  <speed>0.0</speed>
  <fix>3d</fix>
</trkpt>
<trkpt lat="-27.274439" lon="151.290064">
  <ele>343.1</ele>
  <time>2026-09-01T19:51:47Z</time>
  <course>270.0</course>
  <speed>0.0</speed>
  <fix>3d</fix>
</trkpt>
<trkpt lat="-27.274439" lon="151.290064">
  <ele>343.07</ele>
  <time>2026-09-01T19:51:47Z</time>
  <course>10.77</course>
  <speed>0.0</speed>
  <fix>3d</fix>
</trkpt>
<trkpt lat="-27.274439" lon="151.290064">
  <ele>343.1</ele>
  <time>2026-09-01T19:51:47Z</time>
  <course>270.0</course>
  <speed>0.0</speed>
  <fix>3d</fix>
</trkpt>
<trkpt lat="-27.274439" lon="151.290064">
  <ele>343.19</ele>
  <time>2026-09-01T19:51:47Z</time>
  <course>10.77</course>
  <speed>0.0</speed>
  <fix>3d</fix>
</trkpt>
<trkpt lat="-27.274439" lon="151.290064">
  <ele>343.1</ele>
  <time>2026-09-01T19:51:47Z</time>
  <course>270.0</course>
  <speed>0.0</speed>
  <fix>3d</fix>
</trkpt>
<trkpt lat="-27.274439" lon="151.290064">
  <ele>342.93</ele>
  <time>2026-09-01T19:51:47Z</time>
  <course>10.77</course>
  <speed>0.0</speed>
  <fix>3d</fix>
</trkpt>
<trkpt lat="-27.274439" lon="151.290064">
  <ele>343.1</ele>
  <time>2026-09-01T19:51:47Z</time>
  <course>270.0</course>
  <speed>0.0</speed>
  <fix>3d</fix>
</trkpt>
<trkpt lat="-27.274439" lon="151.290064">
  <ele>343.19</ele>
  <time>2026-09-01T19:51:47Z</time>
  <course>10.78</course>
  <speed>0.0</speed>
  <fix>3d</fix>
</trkpt>
<trkpt lat="-27.274439" lon="151.290064">
  <ele>343.1</ele>
  <time>2026-09-01T19:51:47Z</time>
  <course>270.0</course>
  <speed>0.0</speed>
  <fix>3d</fix>
</trkpt>
<trkpt lat="-27.274439" lon="151.290064">
  <ele>343.1</ele>
  <time>2026-09-01T19:51:47Z</time>
  <course>10.78</course>
  <speed>0.0</speed>
  <fix>3d</fix>
</trkpt>
<trkpt lat="-27.274439" lon="151.290064">
  <ele>343.1</ele>
  <time>2026-09-01T19:51:47Z</time>
  <course>270.0</course>
  <speed>0.0</speed>
  <fix>3d</fix>
</trkpt>
<trkpt lat="-27.274439" lon="151.290064">
  <ele>343.01</ele>
  <time>2026-09-01T19:51:47Z</time>
  <course>10.78</course>
  <speed>0.0</speed>
  <fix>3d</fix>
</trkpt>
<trkpt lat="-27.274439" lon="151.290064">
  <ele>343.1</ele>
  <time>2026-09-01T19:51:47Z</time>
  <course>270.0</course>
  <speed>0.0</speed>
  <fix>3d</fix>
</trkpt>
<trkpt lat="-27.274439" lon="151.290064">
  <ele>343.11</ele>
  <time>2026-09-01T19:51:47Z</time>
  <course>10.78</course>
  <speed>0.0</speed>
  <fix>3d</fix>
</trkpt>
<trkpt lat="-27.274439" lon="151.290064">
  <ele>343.1</ele>
  <time>2026-09-01T19:51:47Z</time>
  <course>270.0</course>
  <speed>0.0</speed>
  <fix>3d</fix>
</trkpt>
<trkpt lat="-27.274439" lon="151.290064">
  <ele>342.96</ele>
  <time>2026-09-01T19:51:47Z</time>
  <course>10.78</course>
  <speed>0.0</speed>
  <fix>3d</fix>
</trkpt>
<trkpt lat="-27.274439" lon="151.290064">
  <ele>343.1</ele>
  <time>2026-09-01T19:51:47Z</time>
  <course>270.0</course>
  <speed>0.0</speed>
  <fix>3d</fix>
</trkpt>
<trkpt lat="-27.274439" lon="151.290064">
  <ele>343.19</ele>
  <time>2026-09-01T19:51:47Z</time>
  <course>10.79</course>
  <speed>0.0</speed>
  <fix>3d</fix>
</trkpt>
<trkpt lat="-27.274439" lon="151.290064">
  <ele>343.1</ele>
  <time>2026-09-01T19:51:47Z</time>
  <course>270.0</course>
  <speed>0.0</speed>
  <fix>3d</fix>
</trkpt>
<trkpt lat="-27.274439" lon="151.290064">
  <ele>343.0</ele>
  <time>2026-09-01T19:51:47Z</time>
  <course>10.79</course>
  <speed>0.0</speed>
  <fix>3d</fix>
</trkpt>
<trkpt lat="-27.274439" lon="151.290064">
  <ele>343.1</ele>
  <time>2026-09-01T19:51:47Z</time>
  <course>270.0</course>
  <speed>0.0</speed>
  <fix>3d</fix>
</trkpt>
<trkpt lat="-27.274439" lon="151.290064">
  <ele>343.2</ele>
  <time>2026-09-01T19:51:47Z</time>
  <course>10.79</course>
  <speed>0.0</speed>
  <fix>3d</fix>
</trkpt>
<trkpt lat="-27.274439" lon="151.290064">
  <ele>343.1</ele>
  <time>2026-09-01T19:51:47Z</time>
  <course>270.0</course>
  <speed>0.0</speed>
  <fix>3d</fix>
</trkpt>
<trkpt lat="-27.274439" lon="151.290064">
  <ele>343.2</ele>
  <time>2026-09-01T19:51:47Z</time>
  <course>10.79</course>
  <speed>0.0</speed>
  <fix>3d</fix>
</trkpt>
<trkpt lat="-27.274439" lon="151.290064">
  <ele>343.1</ele>
  <time>2026-09-01T19:51:47Z</time>
  <course>270.0</course>
  <speed>0.0</speed>
  <fix>3d</fix>
</trkpt>
<trkpt lat="-27.274439" lon="151.290064">
  <ele>343.13</ele>
  <time>2026-09-01T19:51:47Z</time>
  <course>10.79</course>
  <speed>0.0</speed>
  <fix>3d</fix>
</trkpt>
<trkpt lat="-27.274439" lon="151.290064">
  <ele>343.1</ele>
  <time>2026-09-01T19:51:47Z</time>
  <course>270.0</course>
  <speed>0.0</speed>
  <fix>3d</fix>
</trkpt>
<trkpt lat="-27.274439" lon="151.290064">
  <ele>343.1</ele>
  <time>2026-09-01T19:51:47Z</time>
  <course>10.79</course>
  <speed>0.0</speed>
  <fix>3d</fix>
</trkpt>
<trkpt lat="-27.274439" lon="151.290064">
  <ele>343.1</ele>
  <time>2026-09-01T19:51:47Z</time>
  <course>270.0</course>
  <speed>0.0</speed>
  <fix>3d</fix>
</trkpt>
<trkpt lat="-27.274439" lon="151.290064">
  <ele>343.12</ele>
  <time>2026-09-01T19:51:47Z</time>
  <course>10.79</course>
  <speed>0.0</speed>
  <fix>3d</fix>
</trkpt>
<trkpt lat="-27.274439" lon="151.290064">
  <ele>343.1</ele>
  <time>2026-09-01T19:51:47Z</time>
  <course>270.0</course>
  <speed>0.0</speed>
  <fix>3d</fix>
</trkpt>
<trkpt lat="-27.274439" lon="151.290064">
  <ele>342.94</ele>
  <time>2026-09-01T19:51:47Z</time>
  <course>10.79</course>
  <speed>0.0</speed>
  <fix>3d</fix>
</trkpt>
<trkpt lat="-27.274439" lon="151.290064">
  <ele>343.1</ele>
  <time>2026-09-01T19:51:47Z</time>
  <course>270.0</course>
  <speed>0.0</speed>
  <fix>3d</fix>
</trkpt>
<trkpt lat="-27.274439" lon="151.290064">
  <ele>343.25</ele>
  <time>2026-09-01T19:51:47Z</time>
  <course>10.79</course>
  <speed>0.0</speed>
  <fix>3d</fix>
</trkpt>
<trkpt lat="-27.274439" lon="151.290064">
  <ele>343.1</ele>
  <time>2026-09-01T19:51:47Z</time>
  <course>270.0</course>
  <speed>0.0</speed>
  <fix>3d</fix>
</trkpt>
<trkpt lat="-27.274439" lon="151.290064">
  <ele>342.93</ele>
  <time>2026-09-01T19:51:47Z</time>
  <course>10.79</course>
  <speed>0.0</speed>
  <fix>3d</fix>
</trkpt>
<trkpt lat="-27.274439" lon="151.290064">
  <ele>343.1</ele>
  <time>2026-09-01T19:51:47Z</time>
  <course>270.0</course>
  <speed>0.0</speed>
  <fix>3d</fix>
</trkpt>
<trkpt lat="-27.274439" lon="151.290064">
  <ele>343.08</ele>
  <time>2026-09-01T19:51:47Z</time>
  <course>10.79</course>
  <speed>0.0</speed>
  <fix>3d</fix>
</trkpt>
<trkpt lat="-27.274439" lon="151.290064">
  <ele>343.1</ele>
  <time>2026-09-01T19:51:47Z</time>
  <course>270.0</course>
  <speed>0.0</speed>
  <fix>3d</fix>
</trkpt>
<trkpt lat="-27.274439" lon="151.290064">
  <ele>343.23</ele>
  <time>2026-09-01T19:51:47Z</time>
  <course>10.8</course>
  <speed>0.0</speed>
  <fix>3d</fix>
</trkpt>
<trkpt lat="-27.274439" lon="151.290064">
  <ele>343.1</ele>
  <time>2026-09-01T19:51:47Z</time>
  <course>270.0</course>
  <speed>0.0</speed>
  <fix>3d</fix>
</trkpt>
<trkpt lat="-27.274439" lon="151.290064">
  <ele>343.01</ele>
  <time>2026-09-01T19:51:47Z</time>
  <course>10.8</course>
  <speed>0.0</speed>
  <fix>3d</fix>
</trkpt>
<trkpt lat="-27.274439" lon="151.290064">
  <ele>343.1</ele>
  <time>2026-09-01T19:51:47Z</time>
  <course>270.0</course>
  <speed>0.0</speed>
  <fix>3d</fix>
</trkpt>
<trkpt lat="-27.274439" lon="151.290064">
  <ele>343.1</ele>
  <time>2026-09-01T19:51:47Z</time>
  <course>10.8</course>
  <speed>0.0</speed>
  <fix>3d</fix>
</trkpt>
<trkpt lat="-27.274439" lon="151.290064">
  <ele>343.1</ele>
  <time>2026-09-01T19:51:47Z</time>
  <course>270.0</course>
  <speed>0.0</speed>
  <fix>3d</fix>
</trkpt>
<trkpt lat="-27.274439" lon="151.290064">
  <ele>342.99</ele>
  <time>2026-09-01T19:51:47Z</time>
  <course>10.8</course>
  <speed>0.0</speed>
  <fix>3d</fix>
</trkpt>
<trkpt lat="-27.274439" lon="151.290064">
  <ele>343.1</ele>
  <time>2026-09-01T19:51:47Z</time>
  <course>270.0</course>
  <speed>0.0</speed>
  <fix>3d</fix>
</trkpt>
<trkpt lat="-27.274439" lon="151.290064">
  <ele>342.87</ele>
  <time>2026-09-01T19:51:47Z</time>
  <course>10.8</course>
  <speed>0.0</speed>
  <fix>3d</fix>
</trkpt>
<trkpt lat="-27.274439" lon="151.290064">
  <ele>343.1</ele>
  <time>2026-09-01T19:51:47Z</time>
  <course>270.0</course>
  <speed>0.0</speed>
  <fix>3d</fix>
</trkpt>
<trkpt lat="-27.274439" lon="151.290064">
  <ele>343.1</ele>
  <time>2026-09-01T19:51:47Z</time>
  <course>10.8</course>
  <speed>0.0</speed>
  <fix>3d</fix>
</trkpt>
<trkpt lat="-27.274439" lon="151.290064">
  <ele>343.1</ele>
  <time>2026-09-01T19:51:47Z</time>
  <course>270.0</course>
  <speed>0.0</speed>
  <fix>3d</fix>
</trkpt>
<trkpt lat="-27.274439" lon="151.290064">
  <ele>342.99</ele>
  <time>2026-09-01T19:51:47Z</time>
  <course>10.8</course>
  <speed>0.0</speed>
  <fix>3d</fix>
</trkpt>
<trkpt lat="-27.274439" lon="151.290064">
  <ele>343.1</ele>
  <time>2026-09-01T19:51:47Z</time>
  <course>270.0</course>
  <speed>0.0</speed>
  <fix>3d</fix>
</trkpt>
<trkpt lat="-27.274439" lon="151.290064">
  <ele>342.91</ele>
  <time>2026-09-01T19:51:47Z</time>
  <course>10.8</course>
  <speed>0.0</speed>
  <fix>3d</fix>
</trkpt>
<trkpt lat="-27.274439" lon="151.290064">
  <ele>343.1</ele>
  <time>2026-09-01T19:51:47Z</time>
  <course>270.0</course>
  <speed>0.0</speed>
  <fix>3d</fix>
</trkpt>
<trkpt lat="-27.274439" lon="151.290064">
  <ele>342.9</ele>
  <time>2026-09-01T19:51:47Z</time>
  <course>10.8</course>
  <speed>0.0</speed>
  <fix>3d</fix>
</trkpt>
<trkpt lat="-27.274439" lon="151.290064">
  <ele>343.1</ele>
  <time>2026-09-01T19:51:47Z</time>
  <course>270.0</course>
  <speed>0.0</speed>
  <fix>3d</fix>
</trkpt>
<trkpt lat="-27.274439" lon="151.290064">
  <ele>342.87</ele>
  <time>2026-09-01T19:51:47Z</time>
  <course>10.8</course>
  <speed>0.0</speed>
  <fix>3d</fix>
</trkpt>
<trkpt lat="-27.274439" lon="151.290064">
  <ele>343.1</ele>
  <time>2026-09-01T19:51:47Z</time>
  <course>270.0</course>
  <speed>0.0</speed>
  <fix>3d</fix>
</trkpt>
<trkpt lat="-27.274439" lon="151.290064">
  <ele>343.12</ele>
  <time>2026-09-01T19:51:47Z</time>
  <course>10.8</course>
  <speed>0.0</speed>
  <fix>3d</fix>
</trkpt>
<trkpt lat="-27.274439" lon="151.290064">
  <ele>343.1</ele>
  <time>2026-09-01T19:51:47Z</time>
  <course>270.0</course>
  <speed>0.0</speed>
  <fix>3d</fix>
</trkpt>
<trkpt lat="-27.274439" lon="151.290064">
  <ele>342.99</ele>
  <time>2026-09-01T19:51:47Z</time>
  <course>10.8</course>
  <speed>0.0</speed>
  <fix>3d</fix>
</trkpt>
<trkpt lat="-27.274439" lon="151.290064">
  <ele>343.1</ele>
  <time>2026-09-01T19:51:47Z</time>
  <course>270.0</course>
  <speed>0.0</speed>
  <fix>3d</fix>
</trkpt>
<trkpt lat="-27.274439" lon="151.290064">
  <ele>343.13</ele>
  <time>2026-09-01T19:51:47Z</time>
  <course>10.8</course>
  <speed>0.0</speed>
  <fix>3d</fix>
</trkpt>
<trkpt lat="-27.274439" lon="151.290064">
  <ele>343.1</ele>
  <time>2026-09-01T19:51:47Z</time>
  <course>270.0</course>
  <speed>0.0</speed>
  <fix>3d</fix>
</trkpt>
<trkpt lat="-27.274439" lon="151.290064">
  <ele>343.0</ele>
  <time>2026-09-01T19:51:47Z</time>
  <course>10.8</course>
  <speed>0.0</speed>
  <fix>3d</fix>
</trkpt>
<trkpt lat="-27.274439" lon="151.290064">
  <ele>343.1</ele>
  <time>2026-09-01T19:51:47Z</time>
  <course>270.0</course>
  <speed>0.0</speed>
  <fix>3d</fix>
</trkpt>
<trkpt lat="-27.274439" lon="151.290064">
  <ele>343.17</ele>
  <time>2026-09-01T19:51:47Z</time>
  <course>10.8</course>
  <speed>0.0</speed>
  <fix>3d</fix>
</trkpt>
<trkpt lat="-27.274439" lon="151.290064">
  <ele>343.1</ele>
  <time>2026-09-01T19:51:47Z</time>
  <course>270.0</course>
  <speed>0.0</speed>
  <fix>3d</fix>
</trkpt>
<trkpt lat="-27.274439" lon="151.290064">
  <ele>343.0</ele>
  <time>2026-09-01T19:51:47Z</time>
  <course>10.8</course>
  <speed>0.0</speed>
  <fix>3d</fix>
</trkpt>
<trkpt lat="-27.274439" lon="151.290064">
  <ele>343.1</ele>
  <time>2026-09-01T19:51:47Z</time>
  <course>270.0</course>
  <speed>0.0</speed>
  <fix>3d</fix>
</trkpt>
<trkpt lat="-27.274439" lon="151.290064">
  <ele>342.99</ele>
  <time>2026-09-01T19:51:47Z</time>
  <course>10.8</course>
  <speed>0.0</speed>
  <fix>3d</fix>
</trkpt>
<trkpt lat="-27.274439" lon="151.290064">
  <ele>343.1</ele>
  <time>2026-09-01T19:51:47Z</time>
  <course>270.0</course>
  <speed>0.0</speed>
  <fix>3d</fix>
</trkpt>
<trkpt lat="-27.274439" lon="151.290064">
  <ele>343.17</ele>
  <time>2026-09-01T19:51:47Z</time>
  <course>10.8</course>
  <speed>0.0</speed>
  <fix>3d</fix>
</trkpt>
<trkpt lat="-27.274439" lon="151.290064">
  <ele>343.1</ele>
  <time>2026-09-01T19:51:47Z</time>
  <course>270.0</course>
  <speed>0.0</speed>
  <fix>3d</fix>
</trkpt>
<trkpt lat="-27.274439" lon="151.290064">
  <ele>343.16</ele>
  <time>2026-09-01T19:51:47Z</time>
  <course>10.8</course>
  <speed>0.0</speed>
  <fix>3d</fix>
</trkpt>
<trkpt lat="-27.274439" lon="151.290064">
  <ele>343.1</ele>
  <time>2026-09-01T19:51:47Z</time>
  <course>270.0</course>
  <speed>0.0</speed>
  <fix>3d</fix>
</trkpt>
<trkpt lat="-27.274439" lon="151.290064">
  <ele>342.87</ele>
  <time>2026-09-01T19:51:47Z</time>
  <course>10.8</course>
  <speed>0.0</speed>
  <fix>3d</fix>
</trkpt>
<trkpt lat="-27.274439" lon="151.290064">
  <ele>343.1</ele>
  <time>2026-09-01T19:51:47Z</time>
  <course>270.0</course>
  <speed>0.0</speed>
  <fix>3d</fix>
</trkpt>
<trkpt lat="-27.274439" lon="151.290064">
  <ele>343.19</ele>
  <time>2026-09-01T19:51:47Z</time>
  <course>10.8</course>
  <speed>0.0</speed>
  <fix>3d</fix>
</trkpt>
<trkpt lat="-27.274439" lon="151.290064">
  <ele>343.1</ele>
  <time>2026-09-01T19:51:47Z</time>
  <course>270.0</course>
  <speed>0.0</speed>
  <fix>3d</fix>
</trkpt>
<trkpt lat="-27.274439" lon="151.290064">
  <ele>343.16</ele>
  <time>2026-09-01T19:51:47Z</time>
  <course>10.8</course>
  <speed>0.0</speed>
  <fix>3d</fix>
</trkpt>
<trkpt lat="-27.274439" lon="151.290064">
  <ele>343.1</ele>
  <time>2026-09-01T19:51:47Z</time>
  <course>270.0</course>
  <speed>0.0</speed>
  <fix>3d</fix>
</trkpt>
<trkpt lat="-27.274439" lon="151.290064">
  <ele>343.21</ele>
  <time>2026-09-01T19:51:47Z</time>
  <course>10.8</course>
  <speed>0.0</speed>
  <fix>3d</fix>
</trkpt>
<trkpt lat="-27.274439" lon="151.290064">
  <ele>343.1</ele>
  <time>2026-09-01T19:51:47Z</time>
  <course>270.0</course>
  <speed>0.0</speed>
  <fix>3d</fix>
</trkpt>
<trkpt lat="-27.274439" lon="151.290064">
  <ele>343.22</ele>
  <time>2026-09-01T19:51:47Z</time>
  <course>10.8</course>
  <speed>0.0</speed>
  <fix>3d</fix>
</trkpt>
<trkpt lat="-27.274439" lon="151.290064">
  <ele>343.1</ele>
  <time>2026-09-01T19:51:47Z</time>
  <course>270.0</course>
  <speed>0.0</speed>
  <fix>3d</fix>
</trkpt>
<trkpt lat="-27.274439" lon="151.290064">
  <ele>343.24</ele>
  <time>2026-09-01T19:51:47Z</time>
  <course>10.8</course>
  <speed>0.0</speed>
  <fix>3d</fix>
</trkpt>
<trkpt lat="-27.274439" lon="151.290064">
  <ele>343.1</ele>
  <time>2026-09-01T19:51:47Z</time>
  <course>270.0</course>
  <speed>0.0</speed>
  <fix>3d</fix>
</trkpt>
<trkpt lat="-27.274439" lon="151.290064">
  <ele>343.0</ele>
  <time>2026-09-01T19:51:47Z</time>
  <course>10.8</course>
  <speed>0.0</speed>
  <fix>3d</fix>
</trkpt>
<trkpt lat="-27.274439" lon="151.290064">
  <ele>343.1</ele>
  <time>2026-09-01T19:51:47Z</time>
  <course>270.0</course>
  <speed>0.0</speed>
  <fix>3d</fix>
</trkpt>
<trkpt lat="-27.274439" lon="151.290064">
  <ele>343.1</ele>
  <time>2026-09-01T19:51:47Z</time>
  <course>10.8</course>
  <speed>0.0</speed>
  <fix>3d</fix>
</trkpt>
<trkpt lat="-27.274439" lon="151.290064">
  <ele>343.1</ele>
  <time>2026-09-01T19:51:47Z</time>
  <course>270.0</course>
  <speed>0.0</speed>
  <fix>3d</fix>
</trkpt>
<trkpt lat="-27.274439" lon="151.290064">
  <ele>343.05</ele>
  <time>2026-09-01T19:51:47Z</time>
  <course>10.8</course>
  <speed>0.0</speed>
  <fix>3d</fix>
</trkpt>
<trkpt lat="-27.274439" lon="151.290064">
  <ele>343.1</ele>
  <time>2026-09-01T19:51:47Z</time>
  <course>270.0</course>
  <speed>0.0</speed>
  <fix>3d</fix>
</trkpt>
<trkpt lat="-27.274439" lon="151.290064">
  <ele>342.87</ele>
  <time>2026-09-01T19:51:47Z</time>
  <course>10.8</course>
  <speed>0.0</speed>
  <fix>3d</fix>
</trkpt>
<trkpt lat="-27.274439" lon="151.290064">
  <ele>343.1</ele>
  <time>2026-09-01T19:51:47Z</time>
  <course>270.0</course>
  <speed>0.0</speed>
  <fix>3d</fix>
</trkpt>
<trkpt lat="-27.274439" lon="151.290064">
  <ele>342.92</ele>
  <time>2026-09-01T19:51:47Z</time>
  <course>10.8</course>
  <speed>0.0</speed>
  <fix>3d</fix>
</trkpt>
<trkpt lat="-27.274439" lon="151.290064">
  <ele>343.1</ele>
  <time>2026-09-01T19:51:47Z</time>
  <course>270.0</course>
  <speed>0.0</speed>
  <fix>3d</fix>
</trkpt>
<trkpt lat="-27.274439" lon="151.290064">
  <ele>342.96</ele>
  <time>2026-09-01T19:51:47Z</time>
  <course>10.8</course>
  <speed>0.0</speed>
  <fix>3d</fix>
</trkpt>
<trkpt lat="-27.274439" lon="151.290064">
  <ele>343.1</ele>
  <time>2026-09-01T19:51:47Z</time>
  <course>270.0</course>
  <speed>0.0</speed>
  <fix>3d</fix>
</trkpt>
<trkpt lat="-27.274439" lon="151.290064">
  <ele>343.15</ele>
  <time>2026-09-01T19:51:47Z</time>
  <course>10.8</course>
  <speed>0.0</speed>
  <fix>3d</fix>
</trkpt>
<trkpt lat="-27.274439" lon="151.290064">
  <ele>343.1</ele>
  <time>2026-09-01T19:51:47Z</time>
  <course>270.0</course>
  <speed>0.0</speed>
  <fix>3d</fix>
</trkpt>
<trkpt lat="-27.274439" lon="151.290064">
  <ele>343.16</ele>
  <time>2026-09-01T19:51:47Z</time>
  <course>10.8</course>
  <speed>0.0</speed>
  <fix>3d</fix>
</trkpt>
<trkpt lat="-27.274439" lon="151.290064">
  <ele>343.1</ele>
  <time>2026-09-01T19:51:47Z</time>
  <course>270.0</course>
  <speed>0.0</speed>
  <fix>3d</fix>
</trkpt>
<trkpt lat="-27.274439" lon="151.290064">
  <ele>343.2</ele>
  <time>2026-09-01T19:51:47Z</time>
  <course>10.81</course>
  <speed>0.0</speed>
  <fix>3d</fix>
</trkpt>
<trkpt lat="-27.274439" lon="151.290064">
  <ele>343.1</ele>
  <time>2026-09-01T19:51:47Z</time>
  <course>270.0</course>
  <speed>0.0</speed>
  <fix>3d</fix>
</trkpt>
<trkpt lat="-27.274439" lon="151.290064">
  <ele>343.13</ele>
  <time>2026-09-01T19:51:47Z</time>
  <course>10.82</course>
  <speed>0.0</speed>
  <fix>3d</fix>
</trkpt>
<trkpt lat="-27.274439" lon="151.290064">
  <ele>343.1</ele>
  <time>2026-09-01T19:51:47Z</time>
  <course>270.0</course>
  <speed>0.0</speed>
  <fix>3d</fix>
</trkpt>
<trkpt lat="-27.274439" lon="151.290064">
  <ele>343.09</ele>
  <time>2026-09-01T19:51:47Z</time>
  <course>10.71</course>
  <speed>0.0</speed>
  <fix>3d</fix>
</trkpt>
<trkpt lat="-27.274439" lon="151.290064">
  <ele>343.1</ele>
  <time>2026-09-01T19:51:47Z</time>
  <course>270.0</course>
  <speed>0.0</speed>
  <fix>3d</fix>
</trkpt>
<trkpt lat="-27.274439" lon="151.290064">
  <ele>343.09</ele>
  <time>2026-09-01T19:51:47Z</time>
  <course>10.71</course>
  <speed>0.0</speed>
  <fix>3d</fix>
</trkpt>
<trkpt lat="-27.274439" lon="151.290064">
  <ele>343.1</ele>
  <time>2026-09-01T19:51:47Z</time>
  <course>270.0</course>
  <speed>0.0</speed>
  <fix>3d</fix>
</trkpt>
<trkpt lat="-27.274439" lon="151.290064">
  <ele>343.1</ele>
  <time>2026-09-01T19:51:47Z</time>
  <course>10.71</course>
  <speed>0.0</speed>
  <fix>3d</fix>
</trkpt>
<trkpt lat="-27.274439" lon="151.290064">
  <ele>343.1</ele>
  <time>2026-09-01T19:51:47Z</time>
  <course>270.0</course>
  <speed>0.0</speed>
  <fix>3d</fix>
</trkpt>
<trkpt lat="-27.274439" lon="151.290064">
  <ele>343.1</ele>
  <time>2026-09-01T19:51:47Z</time>
  <course>10.71</course>
  <speed>0.0</speed>
  <fix>3d</fix>
</trkpt>
<trkpt lat="-27.274439" lon="151.290064">
  <ele>343.1</ele>
  <time>2026-09-01T19:51:48Z</time>
  <course>270.0</course>
  <speed>0.0</speed>
  <fix>3d</fix>
</trkpt>
<trkpt lat="-27.274439" lon="151.290064">
  <ele>343.1</ele>
  <time>2026-09-01T19:51:48Z</time>
  <course>10.71</course>
  <speed>0.0</speed>
  <fix>3d</fix>
</trkpt>
<trkpt lat="-27.274439" lon="151.290064">
  <ele>343.1</ele>
  <time>2026-09-01T19:51:48Z</time>
  <course>270.0</course>
  <speed>0.0</speed>
  <fix>3d</fix>
</trkpt>
<trkpt lat="-27.274439" lon="151.290064">
  <ele>343.1</ele>
  <time>2026-09-01T19:51:48Z</time>
  <course>10.71</course>
  <speed>0.0</speed>
  <fix>3d</fix>
</trkpt>
<trkpt lat="-27.274439" lon="151.290064">
  <ele>343.1</ele>
  <time>2026-09-01T19:51:48Z</time>
  <course>270.0</course>
  <speed>0.0</speed>
  <fix>3d</fix>
</trkpt>
<trkpt lat="-27.274439" lon="151.290064">
  <ele>343.1</ele>
  <time>2026-09-01T19:51:48Z</time>
  <course>10.71</course>
  <speed>0.0</speed>
  <fix>3d</fix>
</trkpt>
<trkpt lat="-27.274439" lon="151.290064">
  <ele>343.1</ele>
  <time>2026-09-01T19:51:48Z</time>
  <course>270.0</course>
  <speed>0.0</speed>
  <fix>3d</fix>
</trkpt>
<trkpt lat="-27.274439" lon="151.290064">
  <ele>343.11</ele>
  <time>2026-09-01T19:51:48Z</time>
  <course>10.71</course>
  <speed>0.0</speed>
  <fix>3d</fix>
</trkpt>
<trkpt lat="-27.274439" lon="151.290064">
  <ele>343.1</ele>
  <time>2026-09-01T19:51:48Z</time>
  <course>270.0</course>
  <speed>0.0</speed>
  <fix>3d</fix>
</trkpt>
<trkpt lat="-27.274439" lon="151.290064">
  <ele>343.11</ele>
  <time>2026-09-01T19:51:48Z</time>
  <course>10.71</course>
  <speed>0.0</speed>
  <fix>3d</fix>
</trkpt>
<trkpt lat="-27.274439" lon="151.290064">
  <ele>343.1</ele>
  <time>2026-09-01T19:51:48Z</time>
  <course>270.0</course>
  <speed>0.0</speed>
  <fix>3d</fix>
</trkpt>
<trkpt lat="-27.274439" lon="151.290064">
  <ele>343.11</ele>
  <time>2026-09-01T19:51:48Z</time>
  <course>10.71</course>
  <speed>0.0</speed>
  <fix>3d</fix>
</trkpt>
<trkpt lat="-27.274439" lon="151.290064">
  <ele>343.1</ele>
  <time>2026-09-01T19:51:48Z</time>
  <course>270.0</course>
  <speed>0.0</speed>
  <fix>3d</fix>
</trkpt>
<trkpt lat="-27.274439" lon="151.290064">
  <ele>343.12</ele>
  <time>2026-09-01T19:51:48Z</time>
  <course>10.71</course>
  <speed>0.0</speed>
  <fix>3d</fix>
</trkpt>
<trkpt lat="-27.274439" lon="151.290064">
  <ele>343.1</ele>
  <time>2026-09-01T19:51:48Z</time>
  <course>270.0</course>
  <speed>0.0</speed>
  <fix>3d</fix>
</trkpt>
<trkpt lat="-27.274439" lon="151.290064">
  <ele>343.12</ele>
  <time>2026-09-01T19:51:48Z</time>
  <course>10.71</course>
  <speed>0.0</speed>
  <fix>3d</fix>
</trkpt>
<trkpt lat="-27.274439" lon="151.290064">
  <ele>343.1</ele>
  <time>2026-09-01T19:51:48Z</time>
  <course>270.0</course>
  <speed>0.0</speed>
  <fix>3d</fix>
</trkpt>
<trkpt lat="-27.274439" lon="151.290064">
  <ele>343.1</ele>
  <time>2026-09-01T19:51:48Z</time>
  <course>10.71</course>
  <speed>0.0</speed>
  <fix>3d</fix>
</trkpt>
<trkpt lat="-27.274439" lon="151.290064">
  <ele>343.1</ele>
  <time>2026-09-01T19:51:48Z</time>
  <course>270.0</course>
  <speed>0.0</speed>
  <fix>3d</fix>
</trkpt>
<trkpt lat="-27.274439" lon="151.290064">
  <ele>343.1</ele>
  <time>2026-09-01T19:51:48Z</time>
  <course>10.71</course>
  <speed>0.0</speed>
  <fix>3d</fix>
</trkpt>
<trkpt lat="-27.274439" lon="151.290064">
  <ele>343.1</ele>
  <time>2026-09-01T19:51:48Z</time>
  <course>270.0</course>
  <speed>0.0</speed>
  <fix>3d</fix>
</trkpt>
<trkpt lat="-27.274439" lon="151.290064">
  <ele>343.1</ele>
  <time>2026-09-01T19:51:48Z</time>
  <course>10.71</course>
  <speed>0.0</speed>
  <fix>3d</fix>
</trkpt>
<trkpt lat="-27.274439" lon="151.290064">
  <ele>343.1</ele>
  <time>2026-09-01T19:51:48Z</time>
  <course>270.0</course>
  <speed>0.0</speed>
  <fix>3d</fix>
</trkpt>
<trkpt lat="-27.274439" lon="151.290064">
  <ele>343.09</ele>
  <time>2026-09-01T19:51:48Z</time>
  <course>10.71</course>
  <speed>0.0</speed>
  <fix>3d</fix>
</trkpt>
<trkpt lat="-27.274439" lon="151.290064">
  <ele>343.1</ele>
  <time>2026-09-01T19:51:48Z</time>
  <course>270.0</course>
  <speed>0.0</speed>
  <fix>3d</fix>
</trkpt>
<trkpt lat="-27.274439" lon="151.290064">
  <ele>343.09</ele>
  <time>2026-09-01T19:51:48Z</time>
  <course>10.71</course>
  <speed>0.0</speed>
  <fix>3d</fix>
</trkpt>
<trkpt lat="-27.274439" lon="151.290064">
  <ele>343.1</ele>
  <time>2026-09-01T19:51:48Z</time>
  <course>270.0</course>
  <speed>0.0</speed>
  <fix>3d</fix>
</trkpt>
<trkpt lat="-27.274439" lon="151.290064">
  <ele>343.09</ele>
  <time>2026-09-01T19:51:48Z</time>
  <course>10.71</course>
  <speed>0.0</speed>
  <fix>3d</fix>
</trkpt>
<trkpt lat="-27.274439" lon="151.290064">
  <ele>343.1</ele>
  <time>2026-09-01T19:51:48Z</time>
  <course>270.0</course>
  <speed>0.0</speed>
  <fix>3d</fix>
</trkpt>
<trkpt lat="-27.274439" lon="151.290064">
  <ele>343.1</ele>
  <time>2026-09-01T19:51:48Z</time>
  <course>10.71</course>
  <speed>0.0</speed>
  <fix>3d</fix>
</trkpt>
<trkpt lat="-27.274439" lon="151.290064">
  <ele>343.1</ele>
  <time>2026-09-01T19:51:48Z</time>
  <course>270.0</course>
  <speed>0.0</speed>
  <fix>3d</fix>
</trkpt>
<trkpt lat="-27.274439" lon="151.290064">
  <ele>343.1</ele>
  <time>2026-09-01T19:51:48Z</time>
  <course>10.71</course>
  <speed>0.0</speed>
  <fix>3d</fix>
</trkpt>
<trkpt lat="-27.274439" lon="151.290064">
  <ele>343.1</ele>
  <time>2026-09-01T19:51:48Z</time>
  <course>270.0</course>
  <speed>0.0</speed>
  <fix>3d</fix>
</trkpt>
<trkpt lat="-27.274439" lon="151.290064">
  <ele>343.09</ele>
  <time>2026-09-01T19:51:48Z</time>
  <course>10.71</course>
  <speed>0.0</speed>
  <fix>3d</fix>
</trkpt>
<trkpt lat="-27.274439" lon="151.290064">
  <ele>343.1</ele>
  <time>2026-09-01T19:51:48Z</time>
  <course>270.0</course>
  <speed>0.0</speed>
  <fix>3d</fix>
</trkpt>
<trkpt lat="-27.274439" lon="151.290064">
  <ele>343.09</ele>
  <time>2026-09-01T19:51:48Z</time>
  <course>10.71</course>
  <speed>0.0</speed>
  <fix>3d</fix>
</trkpt>
<trkpt lat="-27.274439" lon="151.290064">
  <ele>343.1</ele>
  <time>2026-09-01T19:51:48Z</time>
  <course>270.0</course>
  <speed>0.0</speed>
  <fix>3d</fix>
</trkpt>
<trkpt lat="-27.274439" lon="151.290064">
  <ele>343.09</ele>
  <time>2026-09-01T19:51:48Z</time>
  <course>10.71</course>
  <speed>0.0</speed>
  <fix>3d</fix>
</trkpt>
<trkpt lat="-27.274439" lon="151.290064">
  <ele>343.1</ele>
  <time>2026-09-01T19:51:48Z</time>
  <course>270.0</course>
  <speed>0.0</speed>
  <fix>3d</fix>
</trkpt>
<trkpt lat="-27.274439" lon="151.290064">
  <ele>343.09</ele>
  <time>2026-09-01T19:51:48Z</time>
  <course>10.71</course>
  <speed>0.0</speed>
  <fix>3d</fix>
</trkpt>
<trkpt lat="-27.274439" lon="151.290064">
  <ele>343.1</ele>
  <time>2026-09-01T19:51:48Z</time>
  <course>270.0</course>
  <speed>0.0</speed>
  <fix>3d</fix>
</trkpt>
<trkpt lat="-27.274439" lon="151.290064">
  <ele>343.09</ele>
  <time>2026-09-01T19:51:48Z</time>
  <course>10.71</course>
  <speed>0.0</speed>
  <fix>3d</fix>
</trkpt>
<trkpt lat="-27.274439" lon="151.290064">
  <ele>343.1</ele>
  <time>2026-09-01T19:51:48Z</time>
  <course>270.0</course>
  <speed>0.0</speed>
  <fix>3d</fix>
</trkpt>
<trkpt lat="-27.274439" lon="151.290064">
  <ele>343.09</ele>
  <time>2026-09-01T19:51:48Z</time>
  <course>10.71</course>
  <speed>0.0</speed>
  <fix>3d</fix>
</trkpt>
<trkpt lat="-27.274439" lon="151.290064">
  <ele>343.1</ele>
  <time>2026-09-01T19:51:48Z</time>
  <course>270.0</course>
  <speed>0.0</speed>
  <fix>3d</fix>
</trkpt>
<trkpt lat="-27.274439" lon="151.290064">
  <ele>343.09</ele>
  <time>2026-09-01T19:51:48Z</time>
  <course>10.71</course>
  <speed>0.0</speed>
  <fix>3d</fix>
</trkpt>
<trkpt lat="-27.274439" lon="151.290064">
  <ele>343.1</ele>
  <time>2026-09-01T19:51:48Z</time>
  <course>270.0</course>
  <speed>0.0</speed>
  <fix>3d</fix>
</trkpt>
<trkpt lat="-27.274439" lon="151.290064">
  <ele>343.09</ele>
  <time>2026-09-01T19:51:48Z</time>
  <course>10.71</course>
  <speed>0.0</speed>
  <fix>3d</fix>
</trkpt>
<trkpt lat="-27.274439" lon="151.290064">
  <ele>343.1</ele>
  <time>2026-09-01T19:51:48Z</time>
  <course>270.0</course>
  <speed>0.0</speed>
  <fix>3d</fix>
</trkpt>
<trkpt lat="-27.274439" lon="151.290064">
  <ele>343.1</ele>
  <time>2026-09-01T19:51:48Z</time>
  <course>10.71</course>
  <speed>0.0</speed>
  <fix>3d</fix>
</trkpt>
<trkpt lat="-27.274439" lon="151.290064">
  <ele>343.1</ele>
  <time>2026-09-01T19:51:48Z</time>
  <course>270.0</course>
  <speed>0.0</speed>
  <fix>3d</fix>
</trkpt>
<trkpt lat="-27.274439" lon="151.290064">
  <ele>343.1</ele>
  <time>2026-09-01T19:51:48Z</time>
  <course>10.71</course>
  <speed>0.0</speed>
  <fix>3d</fix>
</trkpt>
<trkpt lat="-27.274439" lon="151.290064">
  <ele>343.1</ele>
  <time>2026-09-01T19:51:48Z</time>
  <course>270.0</course>
  <speed>0.0</speed>
  <fix>3d</fix>
</trkpt>
<trkpt lat="-27.274439" lon="151.290064">
  <ele>343.1</ele>
  <time>2026-09-01T19:51:48Z</time>
  <course>10.71</course>
  <speed>0.0</speed>
  <fix>3d</fix>
</trkpt>
<trkpt lat="-27.274439" lon="151.290064">
  <ele>343.1</ele>
  <time>2026-09-01T19:51:48Z</time>
  <course>270.0</course>
  <speed>0.0</speed>
  <fix>3d</fix>
</trkpt>
<trkpt lat="-27.274439" lon="151.290064">
  <ele>343.1</ele>
  <time>2026-09-01T19:51:48Z</time>
  <course>10.71</course>
  <speed>0.0</speed>
  <fix>3d</fix>
</trkpt>
<trkpt lat="-27.274439" lon="151.290064">
  <ele>343.1</ele>
  <time>2026-09-01T19:51:48Z</time>
  <course>270.0</course>
  <speed>0.0</speed>
  <fix>3d</fix>
</trkpt>
<trkpt lat="-27.274439" lon="151.290064">
  <ele>343.11</ele>
  <time>2026-09-01T19:51:48Z</time>
  <course>10.71</course>
  <speed>0.0</speed>
  <fix>3d</fix>
</trkpt>
<trkpt lat="-27.274439" lon="151.290064">
  <ele>343.1</ele>
  <time>2026-09-01T19:51:48Z</time>
  <course>270.0</course>
  <speed>0.0</speed>
  <fix>3d</fix>
</trkpt>
<trkpt lat="-27.274439" lon="151.290064">
  <ele>343.11</ele>
  <time>2026-09-01T19:51:48Z</time>
  <course>10.71</course>
  <speed>0.0</speed>
  <fix>3d</fix>
</trkpt>
<trkpt lat="-27.274439" lon="151.290064">
  <ele>343.1</ele>
  <time>2026-09-01T19:51:48Z</time>
  <course>270.0</course>
  <speed>0.0</speed>
  <fix>3d</fix>
</trkpt>
<trkpt lat="-27.274439" lon="151.290064">
  <ele>343.11</ele>
  <time>2026-09-01T19:51:48Z</time>
  <course>10.71</course>
  <speed>0.0</speed>
  <fix>3d</fix>
</trkpt>
<trkpt lat="-27.274439" lon="151.290064">
  <ele>343.1</ele>
  <time>2026-09-01T19:51:48Z</time>
  <course>270.0</course>
  <speed>0.0</speed>
  <fix>3d</fix>
</trkpt>
<trkpt lat="-27.274439" lon="151.290064">
  <ele>343.11</ele>
  <time>2026-09-01T19:51:48Z</time>
  <course>10.71</course>
  <speed>0.0</speed>
  <fix>3d</fix>
</trkpt>
<trkpt lat="-27.274439" lon="151.290064">
  <ele>343.1</ele>
  <time>2026-09-01T19:51:48Z</time>
  <course>270.0</course>
  <speed>0.0</speed>
  <fix>3d</fix>
</trkpt>
<trkpt lat="-27.274439" lon="151.290064">
  <ele>343.12</ele>
  <time>2026-09-01T19:51:48Z</time>
  <course>10.71</course>
  <speed>0.0</speed>
  <fix>3d</fix>
</trkpt>
<trkpt lat="-27.274439" lon="151.290064">
  <ele>343.1</ele>
  <time>2026-09-01T19:51:48Z</time>
  <course>270.0</course>
  <speed>0.0</speed>
  <fix>3d</fix>
</trkpt>
<trkpt lat="-27.274439" lon="151.290064">
  <ele>343.12</ele>
  <time>2026-09-01T19:51:48Z</time>
  <course>10.71</course>
  <speed>0.0</speed>
  <fix>3d</fix>
</trkpt>
<trkpt lat="-27.274439" lon="151.290064">
  <ele>343.1</ele>
  <time>2026-09-01T19:51:48Z</time>
  <course>270.0</course>
  <speed>0.0</speed>
  <fix>3d</fix>
</trkpt>
<trkpt lat="-27.274439" lon="151.290064">
  <ele>343.12</ele>
  <time>2026-09-01T19:51:48Z</time>
  <course>10.71</course>
  <speed>0.0</speed>
  <fix>3d</fix>
</trkpt>
<trkpt lat="-27.274439" lon="151.290064">
  <ele>343.1</ele>
  <time>2026-09-01T19:51:48Z</time>
  <course>270.0</course>
  <speed>0.0</speed>
  <fix>3d</fix>
</trkpt>
<trkpt lat="-27.274439" lon="151.290064">
  <ele>343.12</ele>
  <time>2026-09-01T19:51:48Z</time>
  <course>10.71</course>
  <speed>0.0</speed>
  <fix>3d</fix>
</trkpt>
<trkpt lat="-27.274439" lon="151.290064">
  <ele>343.1</ele>
  <time>2026-09-01T19:51:48Z</time>
  <course>270.0</course>
  <speed>0.0</speed>
  <fix>3d</fix>
</trkpt>
<trkpt lat="-27.274439" lon="151.290064">
  <ele>343.12</ele>
  <time>2026-09-01T19:51:48Z</time>
  <course>10.71</course>
  <speed>0.0</speed>
  <fix>3d</fix>
</trkpt>
<trkpt lat="-27.274439" lon="151.290064">
  <ele>343.1</ele>
  <time>2026-09-01T19:51:48Z</time>
  <course>270.0</course>
  <speed>0.0</speed>
  <fix>3d</fix>
</trkpt>
<trkpt lat="-27.274439" lon="151.290064">
  <ele>343.13</ele>
  <time>2026-09-01T19:51:48Z</time>
  <course>10.71</course>
  <speed>0.0</speed>
  <fix>3d</fix>
</trkpt>
<trkpt lat="-27.274439" lon="151.290064">
  <ele>343.1</ele>
  <time>2026-09-01T19:51:48Z</time>
  <course>270.0</course>
  <speed>0.0</speed>
  <fix>3d</fix>
</trkpt>
<trkpt lat="-27.274439" lon="151.290064">
  <ele>343.13</ele>
  <time>2026-09-01T19:51:48Z</time>
  <course>10.71</course>
  <speed>0.0</speed>
  <fix>3d</fix>
</trkpt>
<trkpt lat="-27.274439" lon="151.290064">
  <ele>343.1</ele>
  <time>2026-09-01T19:51:48Z</time>
  <course>270.0</course>
  <speed>0.0</speed>
  <fix>3d</fix>
</trkpt>
<trkpt lat="-27.274439" lon="151.290064">
  <ele>343.13</ele>
  <time>2026-09-01T19:51:48Z</time>
  <course>10.71</course>
  <speed>0.0</speed>
  <fix>3d</fix>
</trkpt>
<trkpt lat="-27.274439" lon="151.290064">
  <ele>343.1</ele>
  <time>2026-09-01T19:51:48Z</time>
  <course>270.0</course>
  <speed>0.0</speed>
  <fix>3d</fix>
</trkpt>
<trkpt lat="-27.274439" lon="151.290064">
  <ele>343.13</ele>
  <time>2026-09-01T19:51:48Z</time>
  <course>10.71</course>
  <speed>0.0</speed>
  <fix>3d</fix>
</trkpt>
<trkpt lat="-27.274439" lon="151.290064">
  <ele>343.1</ele>
  <time>2026-09-01T19:51:48Z</time>
  <course>270.0</course>
  <speed>0.0</speed>
  <fix>3d</fix>
</trkpt>
<trkpt lat="-27.274439" lon="151.290064">
  <ele>343.14</ele>
  <time>2026-09-01T19:51:48Z</time>
  <course>10.71</course>
  <speed>0.0</speed>
  <fix>3d</fix>
</trkpt>
<trkpt lat="-27.274439" lon="151.290064">
  <ele>343.1</ele>
  <time>2026-09-01T19:51:48Z</time>
  <course>270.0</course>
  <speed>0.0</speed>
  <fix>3d</fix>
</trkpt>
<trkpt lat="-27.274439" lon="151.290064">
  <ele>343.14</ele>
  <time>2026-09-01T19:51:48Z</time>
  <course>10.71</course>
  <speed>0.0</speed>
  <fix>3d</fix>
</trkpt>
<trkpt lat="-27.274439" lon="151.290064">
  <ele>343.1</ele>
  <time>2026-09-01T19:51:48Z</time>
  <course>270.0</course>
  <speed>0.0</speed>
  <fix>3d</fix>
</trkpt>
<trkpt lat="-27.274439" lon="151.290064">
  <ele>343.14</ele>
  <time>2026-09-01T19:51:48Z</time>
  <course>10.71</course>
  <speed>0.0</speed>
  <fix>3d</fix>
</trkpt>
<trkpt lat="-27.274439" lon="151.290064">
  <ele>343.1</ele>
  <time>2026-09-01T19:51:48Z</time>
  <course>270.0</course>
  <speed>0.0</speed>
  <fix>3d</fix>
</trkpt>
<trkpt lat="-27.274439" lon="151.290064">
  <ele>343.14</ele>
  <time>2026-09-01T19:51:48Z</time>
  <course>10.71</course>
  <speed>0.0</speed>
  <fix>3d</fix>
</trkpt>
<trkpt lat="-27.274439" lon="151.290064">
  <ele>343.1</ele>
  <time>2026-09-01T19:51:48Z</time>
  <course>270.0</course>
  <speed>0.0</speed>
  <fix>3d</fix>
</trkpt>
<trkpt lat="-27.274439" lon="151.290064">
  <ele>343.14</ele>
  <time>2026-09-01T19:51:48Z</time>
  <course>10.71</course>
  <speed>0.0</speed>
  <fix>3d</fix>
</trkpt>
<trkpt lat="-27.274439" lon="151.290064">
  <ele>343.1</ele>
  <time>2026-09-01T19:51:48Z</time>
  <course>270.0</course>
  <speed>0.0</speed>
  <fix>3d</fix>
</trkpt>
<trkpt lat="-27.274439" lon="151.290064">
  <ele>343.1</ele>
  <time>2026-09-01T19:51:48Z</time>
  <course>10.71</course>
  <speed>0.0</speed>
  <fix>3d</fix>
</trkpt>
<trkpt lat="-27.274439" lon="151.290064">
  <ele>343.1</ele>
  <time>2026-09-01T19:51:48Z</time>
  <course>270.0</course>
  <speed>0.0</speed>
  <fix>3d</fix>
</trkpt>
<trkpt lat="-27.274439" lon="151.290064">
  <ele>343.09</ele>
  <time>2026-09-01T19:51:48Z</time>
  <course>10.71</course>
  <speed>0.0</speed>
  <fix>3d</fix>
</trkpt>
<trkpt lat="-27.274439" lon="151.290064">
  <ele>343.1</ele>
  <time>2026-09-01T19:51:48Z</time>
  <course>270.0</course>
  <speed>0.0</speed>
  <fix>3d</fix>
</trkpt>
<trkpt lat="-27.274439" lon="151.290064">
  <ele>343.09</ele>
  <time>2026-09-01T19:51:48Z</time>
  <course>10.71</course>
  <speed>0.0</speed>
  <fix>3d</fix>
</trkpt>
<trkpt lat="-27.274439" lon="151.290064">
  <ele>343.1</ele>
  <time>2026-09-01T19:51:48Z</time>
  <course>270.0</course>
  <speed>0.0</speed>
  <fix>3d</fix>
</trkpt>
<trkpt lat="-27.274439" lon="151.290064">
  <ele>343.09</ele>
  <time>2026-09-01T19:51:48Z</time>
  <course>10.71</course>
  <speed>0.0</speed>
  <fix>3d</fix>
</trkpt>
<trkpt lat="-27.274439" lon="151.290064">
  <ele>343.1</ele>
  <time>2026-09-01T19:51:48Z</time>
  <course>270.0</course>
  <speed>0.0</speed>
  <fix>3d</fix>
</trkpt>
<trkpt lat="-27.274439" lon="151.290064">
  <ele>343.1</ele>
  <time>2026-09-01T19:51:48Z</time>
  <course>10.71</course>
  <speed>0.0</speed>
  <fix>3d</fix>
</trkpt>
<trkpt lat="-27.274439" lon="151.290064">
  <ele>343.1</ele>
  <time>2026-09-01T19:51:48Z</time>
  <course>270.0</course>
  <speed>0.0</speed>
  <fix>3d</fix>
</trkpt>
<trkpt lat="-27.274439" lon="151.290064">
  <ele>343.1</ele>
  <time>2026-09-01T19:51:48Z</time>
  <course>10.71</course>
  <speed>0.0</speed>
  <fix>3d</fix>
</trkpt>
<trkpt lat="-27.274439" lon="151.290064">
  <ele>343.1</ele>
  <time>2026-09-01T19:51:48Z</time>
  <course>270.0</course>
  <speed>0.0</speed>
  <fix>3d</fix>
</trkpt>
<trkpt lat="-27.274439" lon="151.290064">
  <ele>343.1</ele>
  <time>2026-09-01T19:51:48Z</time>
  <course>10.71</course>
  <speed>0.0</speed>
  <fix>3d</fix>
</trkpt>
<trkpt lat="-27.274439" lon="151.290064">
  <ele>343.1</ele>
  <time>2026-09-01T19:51:48Z</time>
  <course>270.0</course>
  <speed>0.0</speed>
  <fix>3d</fix>
</trkpt>
<trkpt lat="-27.274439" lon="151.290064">
  <ele>343.1</ele>
  <time>2026-09-01T19:51:48Z</time>
  <course>10.71</course>
  <speed>0.0</speed>
  <fix>3d</fix>
</trkpt>
<trkpt lat="-27.274439" lon="151.290064">
  <ele>343.1</ele>
  <time>2026-09-01T19:51:48Z</time>
  <course>270.0</course>
  <speed>0.0</speed>
  <fix>3d</fix>
</trkpt>
<trkpt lat="-27.274439" lon="151.290064">
  <ele>343.1</ele>
  <time>2026-09-01T19:51:48Z</time>
  <course>10.71</course>
  <speed>0.0</speed>
  <fix>3d</fix>
</trkpt>
<trkpt lat="-27.274439" lon="151.290064">
  <ele>343.1</ele>
  <time>2026-09-01T19:51:48Z</time>
  <course>270.0</course>
  <speed>0.0</speed>
  <fix>3d</fix>
</trkpt>
<trkpt lat="-27.274439" lon="151.290064">
  <ele>343.1</ele>
  <time>2026-09-01T19:51:48Z</time>
  <course>10.71</course>
  <speed>0.0</speed>
  <fix>3d</fix>
</trkpt>
<trkpt lat="-27.274439" lon="151.290064">
  <ele>343.1</ele>
  <time>2026-09-01T19:51:48Z</time>
  <course>270.0</course>
  <speed>0.0</speed>
  <fix>3d</fix>
</trkpt>
<trkpt lat="-27.274439" lon="151.290064">
  <ele>343.1</ele>
  <time>2026-09-01T19:51:48Z</time>
  <course>10.71</course>
  <speed>0.0</speed>
  <fix>3d</fix>
</trkpt>
<trkpt lat="-27.274439" lon="151.290064">
  <ele>343.1</ele>
  <time>2026-09-01T19:51:48Z</time>
  <course>270.0</course>
  <speed>0.0</speed>
  <fix>3d</fix>
</trkpt>
<trkpt lat="-27.274439" lon="151.290064">
  <ele>343.1</ele>
  <time>2026-09-01T19:51:48Z</time>
  <course>10.71</course>
  <speed>0.0</speed>
  <fix>3d</fix>
</trkpt>
<trkpt lat="-27.274439" lon="151.290064">
  <ele>343.1</ele>
  <time>2026-09-01T19:51:48Z</time>
  <course>270.0</course>
  <speed>0.0</speed>
  <fix>3d</fix>
</trkpt>
<trkpt lat="-27.274439" lon="151.290064">
  <ele>343.1</ele>
  <time>2026-09-01T19:51:48Z</time>
  <course>10.71</course>
  <speed>0.0</speed>
  <fix>3d</fix>
</trkpt>
<trkpt lat="-27.274439" lon="151.290064">
  <ele>343.1</ele>
  <time>2026-09-01T19:51:48Z</time>
  <course>270.0</course>
  <speed>0.0</speed>
  <fix>3d</fix>
</trkpt>
<trkpt lat="-27.274439" lon="151.290064">
  <ele>343.1</ele>
  <time>2026-09-01T19:51:48Z</time>
  <course>10.71</course>
  <speed>0.0</speed>
  <fix>3d</fix>
</trkpt>
<trkpt lat="-27.274439" lon="151.290064">
  <ele>343.1</ele>
  <time>2026-09-01T19:51:48Z</time>
  <course>270.0</course>
  <speed>0.0</speed>
  <fix>3d</fix>
</trkpt>
<trkpt lat="-27.274439" lon="151.290064">
  <ele>343.1</ele>
  <time>2026-09-01T19:51:48Z</time>
  <course>10.71</course>
  <speed>0.0</speed>
  <fix>3d</fix>
</trkpt>
<trkpt lat="-27.274439" lon="151.290064">
  <ele>343.1</ele>
  <time>2026-09-01T19:51:48Z</time>
  <course>270.0</course>
  <speed>0.0</speed>
  <fix>3d</fix>
</trkpt>
<trkpt lat="-27.274439" lon="151.290064">
  <ele>343.1</ele>
  <time>2026-09-01T19:51:48Z</time>
  <course>10.71</course>
  <speed>0.0</speed>
  <fix>3d</fix>
</trkpt>
<trkpt lat="-27.274439" lon="151.290064">
  <ele>343.1</ele>
  <time>2026-09-01T19:51:48Z</time>
  <course>270.0</course>
  <speed>0.0</speed>
  <fix>3d</fix>
</trkpt>
<trkpt lat="-27.274439" lon="151.290064">
  <ele>343.1</ele>
  <time>2026-09-01T19:51:48Z</time>
  <course>10.71</course>
  <speed>0.0</speed>
  <fix>3d</fix>
</trkpt>
<trkpt lat="-27.274439" lon="151.290064">
  <ele>343.1</ele>
  <time>2026-09-01T19:51:48Z</time>
  <course>270.0</course>
  <speed>0.0</speed>
  <fix>3d</fix>
</trkpt>
<trkpt lat="-27.274439" lon="151.290064">
  <ele>343.1</ele>
  <time>2026-09-01T19:51:48Z</time>
  <course>10.71</course>
  <speed>0.0</speed>
  <fix>3d</fix>
</trkpt>
<trkpt lat="-27.274439" lon="151.290064">
  <ele>343.1</ele>
  <time>2026-09-01T19:51:48Z</time>
  <course>270.0</course>
  <speed>0.0</speed>
  <fix>3d</fix>
</trkpt>
<trkpt lat="-27.274439" lon="151.290064">
  <ele>343.1</ele>
  <time>2026-09-01T19:51:48Z</time>
  <course>10.71</course>
  <speed>0.0</speed>
  <fix>3d</fix>
</trkpt>
<trkpt lat="-27.274439" lon="151.290064">
  <ele>343.1</ele>
  <time>2026-09-01T19:51:48Z</time>
  <course>270.0</course>
  <speed>0.0</speed>
  <fix>3d</fix>
</trkpt>
<trkpt lat="-27.274439" lon="151.290064">
  <ele>343.1</ele>
  <time>2026-09-01T19:51:48Z</time>
  <course>10.71</course>
  <speed>0.0</speed>
  <fix>3d</fix>
</trkpt>
<trkpt lat="-27.274439" lon="151.290064">
  <ele>343.1</ele>
  <time>2026-09-01T19:51:48Z</time>
  <course>270.0</course>
  <speed>0.0</speed>
  <fix>3d</fix>
</trkpt>
<trkpt lat="-27.274439" lon="151.290064">
  <ele>343.1</ele>
  <time>2026-09-01T19:51:48Z</time>
  <course>10.71</course>
  <speed>0.0</speed>
  <fix>3d</fix>
</trkpt>
<trkpt lat="-27.274439" lon="151.290064">
  <ele>343.1</ele>
  <time>2026-09-01T19:51:48Z</time>
  <course>270.0</course>
  <speed>0.0</speed>
  <fix>3d</fix>
</trkpt>
<trkpt lat="-27.274439" lon="151.290064">
  <ele>343.1</ele>
  <time>2026-09-01T19:51:48Z</time>
  <course>10.71</course>
  <speed>0.0</speed>
  <fix>3d</fix>
</trkpt>
<trkpt lat="-27.274439" lon="151.290064">
  <ele>343.1</ele>
  <time>2026-09-01T19:51:48Z</time>
  <course>270.0</course>
  <speed>0.0</speed>
  <fix>3d</fix>
</trkpt>
<trkpt lat="-27.274439" lon="151.290064">
  <ele>343.1</ele>
  <time>2026-09-01T19:51:48Z</time>
  <course>10.71</course>
  <speed>0.0</speed>
  <fix>3d</fix>
</trkpt>
<trkpt lat="-27.274439" lon="151.290064">
  <ele>343.1</ele>
  <time>2026-09-01T19:51:48Z</time>
  <course>270.0</course>
  <speed>0.0</speed>
  <fix>3d</fix>
</trkpt>
<trkpt lat="-27.274439" lon="151.290064">
  <ele>343.09</ele>
  <time>2026-09-01T19:51:48Z</time>
  <course>10.71</course>
  <speed>0.0</speed>
  <fix>3d</fix>
</trkpt>
<trkpt lat="-27.274439" lon="151.290064">
  <ele>343.1</ele>
  <time>2026-09-01T19:51:48Z</time>
  <course>270.0</course>
  <speed>0.0</speed>
  <fix>3d</fix>
</trkpt>
<trkpt lat="-27.274439" lon="151.290064">
  <ele>343.09</ele>
  <time>2026-09-01T19:51:48Z</time>
  <course>10.71</course>
  <speed>0.0</speed>
  <fix>3d</fix>
</trkpt>
<trkpt lat="-27.274439" lon="151.290064">
  <ele>343.1</ele>
  <time>2026-09-01T19:51:48Z</time>
  <course>270.0</course>
  <speed>0.0</speed>
  <fix>3d</fix>
</trkpt>
<trkpt lat="-27.274439" lon="151.290064">
  <ele>343.1</ele>
  <time>2026-09-01T19:51:48Z</time>
  <course>10.71</course>
  <speed>0.0</speed>
  <fix>3d</fix>
</trkpt>
<trkpt lat="-27.274439" lon="151.290064">
  <ele>343.1</ele>
  <time>2026-09-01T19:51:48Z</time>
  <course>270.0</course>
  <speed>0.0</speed>
  <fix>3d</fix>
</trkpt>
<trkpt lat="-27.274439" lon="151.290064">
  <ele>343.1</ele>
  <time>2026-09-01T19:51:48Z</time>
  <course>10.71</course>
  <speed>0.0</speed>
  <fix>3d</fix>
</trkpt>
<trkpt lat="-27.274439" lon="151.290064">
  <ele>343.1</ele>
  <time>2026-09-01T19:51:48Z</time>
  <course>270.0</course>
  <speed>0.0</speed>
  <fix>3d</fix>
</trkpt>
<trkpt lat="-27.274439" lon="151.290064">
  <ele>343.1</ele>
  <time>2026-09-01T19:51:48Z</time>
  <course>10.71</course>
  <speed>0.0</speed>
  <fix>3d</fix>
</trkpt>
<trkpt lat="-27.274439" lon="151.290064">
  <ele>343.1</ele>
  <time>2026-09-01T19:51:48Z</time>
  <course>270.0</course>
  <speed>0.0</speed>
  <fix>3d</fix>
</trkpt>
<trkpt lat="-27.274439" lon="151.290064">
  <ele>343.11</ele>
  <time>2026-09-01T19:51:48Z</time>
  <course>10.71</course>
  <speed>0.0</speed>
  <fix>3d</fix>
</trkpt>
<trkpt lat="-27.274439" lon="151.290064">
  <ele>343.1</ele>
  <time>2026-09-01T19:51:48Z</time>
  <course>270.0</course>
  <speed>0.0</speed>
  <fix>3d</fix>
</trkpt>
<trkpt lat="-27.274439" lon="151.290064">
  <ele>343.11</ele>
  <time>2026-09-01T19:51:48Z</time>
  <course>10.71</course>
  <speed>0.0</speed>
  <fix>3d</fix>
</trkpt>
<trkpt lat="-27.274439" lon="151.290064">
  <ele>343.1</ele>
  <time>2026-09-01T19:51:48Z</time>
  <course>270.0</course>
  <speed>0.0</speed>
  <fix>3d</fix>
</trkpt>
<trkpt lat="-27.274439" lon="151.290064">
  <ele>343.11</ele>
  <time>2026-09-01T19:51:48Z</time>
  <course>10.71</course>
  <speed>0.0</speed>
  <fix>3d</fix>
</trkpt>
<trkpt lat="-27.274439" lon="151.290064">
  <ele>343.1</ele>
  <time>2026-09-01T19:51:48Z</time>
  <course>270.0</course>
  <speed>0.0</speed>
  <fix>3d</fix>
</trkpt>
<trkpt lat="-27.274439" lon="151.290064">
  <ele>343.12</ele>
  <time>2026-09-01T19:51:48Z</time>
  <course>10.71</course>
  <speed>0.0</speed>
  <fix>3d</fix>
</trkpt>
<trkpt lat="-27.274439" lon="151.290064">
  <ele>343.1</ele>
  <time>2026-09-01T19:51:48Z</time>
  <course>270.0</course>
  <speed>0.0</speed>
  <fix>3d</fix>
</trkpt>
<trkpt lat="-27.274439" lon="151.290064">
  <ele>343.12</ele>
  <time>2026-09-01T19:51:48Z</time>
  <course>10.71</course>
  <speed>0.0</speed>
  <fix>3d</fix>
</trkpt>
<trkpt lat="-27.274439" lon="151.290064">
  <ele>343.1</ele>
  <time>2026-09-01T19:51:48Z</time>
  <course>270.0</course>
  <speed>0.0</speed>
  <fix>3d</fix>
</trkpt>
<trkpt lat="-27.274439" lon="151.290064">
  <ele>343.12</ele>
  <time>2026-09-01T19:51:48Z</time>
  <course>10.71</course>
  <speed>0.0</speed>
  <fix>3d</fix>
</trkpt>
<trkpt lat="-27.274439" lon="151.290064">
  <ele>343.1</ele>
  <time>2026-09-01T19:51:48Z</time>
  <course>270.0</course>
  <speed>0.0</speed>
  <fix>3d</fix>
</trkpt>
<trkpt lat="-27.274439" lon="151.290064">
  <ele>343.13</ele>
  <time>2026-09-01T19:51:48Z</time>
  <course>10.71</course>
  <speed>0.0</speed>
  <fix>3d</fix>
</trkpt>
<trkpt lat="-27.274439" lon="151.290064">
  <ele>343.1</ele>
  <time>2026-09-01T19:51:48Z</time>
  <course>270.0</course>
  <speed>0.0</speed>
  <fix>3d</fix>
</trkpt>
<trkpt lat="-27.274439" lon="151.290064">
  <ele>343.13</ele>
  <time>2026-09-01T19:51:48Z</time>
  <course>10.71</course>
  <speed>0.0</speed>
  <fix>3d</fix>
</trkpt>
<trkpt lat="-27.274439" lon="151.290064">
  <ele>343.1</ele>
  <time>2026-09-01T19:51:48Z</time>
  <course>270.0</course>
  <speed>0.0</speed>
  <fix>3d</fix>
</trkpt>
<trkpt lat="-27.274439" lon="151.290064">
  <ele>343.13</ele>
  <time>2026-09-01T19:51:48Z</time>
  <course>10.71</course>
  <speed>0.0</speed>
  <fix>3d</fix>
</trkpt>
<trkpt lat="-27.274439" lon="151.290064">
  <ele>343.1</ele>
  <time>2026-09-01T19:51:48Z</time>
  <course>270.0</course>
  <speed>0.0</speed>
  <fix>3d</fix>
</trkpt>
<trkpt lat="-27.274439" lon="151.290064">
  <ele>343.14</ele>
  <time>2026-09-01T19:51:48Z</time>
  <course>10.7</course>
  <speed>0.0</speed>
  <fix>3d</fix>
</trkpt>
<trkpt lat="-27.274439" lon="151.290064">
  <ele>343.1</ele>
  <time>2026-09-01T19:51:48Z</time>
  <course>270.0</course>
  <speed>0.0</speed>
  <fix>3d</fix>
</trkpt>
<trkpt lat="-27.274439" lon="151.290064">
  <ele>343.14</ele>
  <time>2026-09-01T19:51:48Z</time>
  <course>10.7</course>
  <speed>0.0</speed>
  <fix>3d</fix>
</trkpt>
<trkpt lat="-27.274439" lon="151.290064">
  <ele>343.1</ele>
  <time>2026-09-01T19:51:48Z</time>
  <course>270.0</course>
  <speed>0.0</speed>
  <fix>3d</fix>
</trkpt>
<trkpt lat="-27.274439" lon="151.290064">
  <ele>343.14</ele>
  <time>2026-09-01T19:51:48Z</time>
  <course>10.7</course>
  <speed>0.0</speed>
  <fix>3d</fix>
</trkpt>
<trkpt lat="-27.274439" lon="151.290064">
  <ele>343.1</ele>
  <time>2026-09-01T19:51:48Z</time>
  <course>270.0</course>
  <speed>0.0</speed>
  <fix>3d</fix>
</trkpt>
<trkpt lat="-27.274439" lon="151.290064">
  <ele>343.14</ele>
  <time>2026-09-01T19:51:48Z</time>
  <course>10.7</course>
  <speed>0.0</speed>
  <fix>3d</fix>
</trkpt>
<trkpt lat="-27.274439" lon="151.290064">
  <ele>343.1</ele>
  <time>2026-09-01T19:51:48Z</time>
  <course>270.0</course>
  <speed>0.0</speed>
  <fix>3d</fix>
</trkpt>
<trkpt lat="-27.274439" lon="151.290064">
  <ele>343.14</ele>
  <time>2026-09-01T19:51:48Z</time>
  <course>10.7</course>
  <speed>0.0</speed>
  <fix>3d</fix>
</trkpt>
<trkpt lat="-27.274439" lon="151.290064">
  <ele>343.1</ele>
  <time>2026-09-01T19:51:48Z</time>
  <course>270.0</course>
  <speed>0.0</speed>
  <fix>3d</fix>
</trkpt>
<trkpt lat="-27.274439" lon="151.290064">
  <ele>343.14</ele>
  <time>2026-09-01T19:51:48Z</time>
  <course>10.7</course>
  <speed>0.0</speed>
  <fix>3d</fix>
</trkpt>
<trkpt lat="-27.274439" lon="151.290064">
  <ele>343.1</ele>
  <time>2026-09-01T19:51:48Z</time>
  <course>270.0</course>
  <speed>0.0</speed>
  <fix>3d</fix>
</trkpt>
<trkpt lat="-27.274439" lon="151.290064">
  <ele>343.14</ele>
  <time>2026-09-01T19:51:48Z</time>
  <course>10.7</course>
  <speed>0.0</speed>
  <fix>3d</fix>
</trkpt>
<trkpt lat="-27.274439" lon="151.290064">
  <ele>343.1</ele>
  <time>2026-09-01T19:51:48Z</time>
  <course>270.0</course>
  <speed>0.0</speed>
  <fix>3d</fix>
</trkpt>
<trkpt lat="-27.274439" lon="151.290064">
  <ele>343.14</ele>
  <time>2026-09-01T19:51:48Z</time>
  <course>10.7</course>
  <speed>0.0</speed>
  <fix>3d</fix>
</trkpt>
<trkpt lat="-27.274439" lon="151.290064">
  <ele>343.1</ele>
  <time>2026-09-01T19:51:48Z</time>
  <course>270.0</course>
  <speed>0.0</speed>
  <fix>3d</fix>
</trkpt>
<trkpt lat="-27.274439" lon="151.290064">
  <ele>343.14</ele>
  <time>2026-09-01T19:51:48Z</time>
  <course>10.7</course>
  <speed>0.0</speed>
  <fix>3d</fix>
</trkpt>
<trkpt lat="-27.274439" lon="151.290064">
  <ele>343.1</ele>
  <time>2026-09-01T19:51:48Z</time>
  <course>270.0</course>
  <speed>0.0</speed>
  <fix>3d</fix>
</trkpt>
<trkpt lat="-27.274439" lon="151.290064">
  <ele>343.14</ele>
  <time>2026-09-01T19:51:48Z</time>
  <course>10.7</course>
  <speed>0.0</speed>
  <fix>3d</fix>
</trkpt>
<trkpt lat="-27.274439" lon="151.290064">
  <ele>343.1</ele>
  <time>2026-09-01T19:51:48Z</time>
  <course>270.0</course>
  <speed>0.0</speed>
  <fix>3d</fix>
</trkpt>
<trkpt lat="-27.274439" lon="151.290064">
  <ele>343.14</ele>
  <time>2026-09-01T19:51:48Z</time>
  <course>10.7</course>
  <speed>0.0</speed>
  <fix>3d</fix>
</trkpt>
<trkpt lat="-27.274439" lon="151.290064">
  <ele>343.1</ele>
  <time>2026-09-01T19:51:48Z</time>
  <course>270.0</course>
  <speed>0.0</speed>
  <fix>3d</fix>
</trkpt>
<trkpt lat="-27.274439" lon="151.290064">
  <ele>343.14</ele>
  <time>2026-09-01T19:51:48Z</time>
  <course>10.7</course>
  <speed>0.0</speed>
  <fix>3d</fix>
</trkpt>
<trkpt lat="-27.274439" lon="151.290064">
  <ele>343.1</ele>
  <time>2026-09-01T19:51:48Z</time>
  <course>270.0</course>
  <speed>0.0</speed>
  <fix>3d</fix>
</trkpt>
<trkpt lat="-27.274439" lon="151.290064">
  <ele>343.15</ele>
  <time>2026-09-01T19:51:48Z</time>
  <course>10.7</course>
  <speed>0.0</speed>
  <fix>3d</fix>
</trkpt>
<trkpt lat="-27.274439" lon="151.290064">
  <ele>343.1</ele>
  <time>2026-09-01T19:51:48Z</time>
  <course>270.0</course>
  <speed>0.0</speed>
  <fix>3d</fix>
</trkpt>
<trkpt lat="-27.274439" lon="151.290064">
  <ele>343.15</ele>
  <time>2026-09-01T19:51:49Z</time>
  <course>10.7</course>
  <speed>0.0</speed>
  <fix>3d</fix>
</trkpt>
<trkpt lat="-27.274439" lon="151.290064">
  <ele>343.1</ele>
  <time>2026-09-01T19:51:49Z</time>
  <course>270.0</course>
  <speed>0.0</speed>
  <fix>3d</fix>
</trkpt>
<trkpt lat="-27.274439" lon="151.290064">
  <ele>343.15</ele>
  <time>2026-09-01T19:51:49Z</time>
  <course>10.7</course>
  <speed>0.0</speed>
  <fix>3d</fix>
</trkpt>
<trkpt lat="-27.274439" lon="151.290064">
  <ele>343.1</ele>
  <time>2026-09-01T19:51:49Z</time>
  <course>270.0</course>
  <speed>0.0</speed>
  <fix>3d</fix>
</trkpt>
<trkpt lat="-27.274439" lon="151.290064">
  <ele>343.16</ele>
  <time>2026-09-01T19:51:49Z</time>
  <course>10.7</course>
  <speed>0.0</speed>
  <fix>3d</fix>
</trkpt>
<trkpt lat="-27.274439" lon="151.290064">
  <ele>343.1</ele>
  <time>2026-09-01T19:51:49Z</time>
  <course>270.0</course>
  <speed>0.0</speed>
  <fix>3d</fix>
</trkpt>
<trkpt lat="-27.274439" lon="151.290064">
  <ele>343.16</ele>
  <time>2026-09-01T19:51:49Z</time>
  <course>10.7</course>
  <speed>0.0</speed>
  <fix>3d</fix>
</trkpt>
<trkpt lat="-27.274439" lon="151.290064">
  <ele>343.1</ele>
  <time>2026-09-01T19:51:49Z</time>
  <course>270.0</course>
  <speed>0.0</speed>
  <fix>3d</fix>
</trkpt>
<trkpt lat="-27.274439" lon="151.290064">
  <ele>343.16</ele>
  <time>2026-09-01T19:51:49Z</time>
  <course>10.7</course>
  <speed>0.0</speed>
  <fix>3d</fix>
</trkpt>
<trkpt lat="-27.274439" lon="151.290064">
  <ele>343.1</ele>
  <time>2026-09-01T19:51:49Z</time>
  <course>270.0</course>
  <speed>0.0</speed>
  <fix>3d</fix>
</trkpt>
<trkpt lat="-27.274439" lon="151.290064">
  <ele>343.16</ele>
  <time>2026-09-01T19:51:49Z</time>
  <course>10.7</course>
  <speed>0.0</speed>
  <fix>3d</fix>
</trkpt>
<trkpt lat="-27.274439" lon="151.290064">
  <ele>343.1</ele>
  <time>2026-09-01T19:51:49Z</time>
  <course>270.0</course>
  <speed>0.0</speed>
  <fix>3d</fix>
</trkpt>
<trkpt lat="-27.274439" lon="151.290064">
  <ele>343.16</ele>
  <time>2026-09-01T19:51:49Z</time>
  <course>10.7</course>
  <speed>0.0</speed>
  <fix>3d</fix>
</trkpt>
<trkpt lat="-27.274439" lon="151.290064">
  <ele>343.1</ele>
  <time>2026-09-01T19:51:49Z</time>
  <course>270.0</course>
  <speed>0.0</speed>
  <fix>3d</fix>
</trkpt>
<trkpt lat="-27.274439" lon="151.290064">
  <ele>343.16</ele>
  <time>2026-09-01T19:51:49Z</time>
  <course>10.7</course>
  <speed>0.0</speed>
  <fix>3d</fix>
</trkpt>
<trkpt lat="-27.274439" lon="151.290064">
  <ele>343.1</ele>
  <time>2026-09-01T19:51:49Z</time>
  <course>270.0</course>
  <speed>0.0</speed>
  <fix>3d</fix>
</trkpt>
<trkpt lat="-27.274439" lon="151.290064">
  <ele>343.16</ele>
  <time>2026-09-01T19:51:49Z</time>
  <course>10.7</course>
  <speed>0.0</speed>
  <fix>3d</fix>
</trkpt>
<trkpt lat="-27.274439" lon="151.290064">
  <ele>343.1</ele>
  <time>2026-09-01T19:51:49Z</time>
  <course>270.0</course>
  <speed>0.0</speed>
  <fix>3d</fix>
</trkpt>
<trkpt lat="-27.274439" lon="151.290064">
  <ele>343.16</ele>
  <time>2026-09-01T19:51:49Z</time>
  <course>10.7</course>
  <speed>0.0</speed>
  <fix>3d</fix>
</trkpt>
<trkpt lat="-27.274439" lon="151.290064">
  <ele>343.1</ele>
  <time>2026-09-01T19:51:49Z</time>
  <course>270.0</course>
  <speed>0.0</speed>
  <fix>3d</fix>
</trkpt>
<trkpt lat="-27.274439" lon="151.290064">
  <ele>343.16</ele>
  <time>2026-09-01T19:51:49Z</time>
  <course>10.7</course>
  <speed>0.0</speed>
  <fix>3d</fix>
</trkpt>
<trkpt lat="-27.274439" lon="151.290064">
  <ele>343.1</ele>
  <time>2026-09-01T19:51:49Z</time>
  <course>270.0</course>
  <speed>0.0</speed>
  <fix>3d</fix>
</trkpt>
<trkpt lat="-27.274439" lon="151.290064">
  <ele>343.16</ele>
  <time>2026-09-01T19:51:49Z</time>
  <course>10.7</course>
  <speed>0.0</speed>
  <fix>3d</fix>
</trkpt>
<trkpt lat="-27.274439" lon="151.290064">
  <ele>343.1</ele>
  <time>2026-09-01T19:51:49Z</time>
  <course>270.0</course>
  <speed>0.0</speed>
  <fix>3d</fix>
</trkpt>
<trkpt lat="-27.274439" lon="151.290064">
  <ele>343.17</ele>
  <time>2026-09-01T19:51:49Z</time>
  <course>10.7</course>
  <speed>0.0</speed>
  <fix>3d</fix>
</trkpt>
<trkpt lat="-27.274439" lon="151.290064">
  <ele>343.1</ele>
  <time>2026-09-01T19:51:49Z</time>
  <course>270.0</course>
  <speed>0.0</speed>
  <fix>3d</fix>
</trkpt>
<trkpt lat="-27.274439" lon="151.290064">
  <ele>343.17</ele>
  <time>2026-09-01T19:51:49Z</time>
  <course>10.7</course>
  <speed>0.0</speed>
  <fix>3d</fix>
</trkpt>
<trkpt lat="-27.274439" lon="151.290064">
  <ele>343.1</ele>
  <time>2026-09-01T19:51:49Z</time>
  <course>270.0</course>
  <speed>0.0</speed>
  <fix>3d</fix>
</trkpt>
<trkpt lat="-27.274439" lon="151.290064">
  <ele>343.17</ele>
  <time>2026-09-01T19:51:49Z</time>
  <course>10.7</course>
  <speed>0.0</speed>
  <fix>3d</fix>
</trkpt>
<trkpt lat="-27.274439" lon="151.290064">
  <ele>343.1</ele>
  <time>2026-09-01T19:51:49Z</time>
  <course>270.0</course>
  <speed>0.0</speed>
  <fix>3d</fix>
</trkpt>
<trkpt lat="-27.274439" lon="151.290064">
  <ele>343.17</ele>
  <time>2026-09-01T19:51:49Z</time>
  <course>10.7</course>
  <speed>0.0</speed>
  <fix>3d</fix>
</trkpt>
<trkpt lat="-27.274439" lon="151.290064">
  <ele>343.1</ele>
  <time>2026-09-01T19:51:49Z</time>
  <course>270.0</course>
  <speed>0.0</speed>
  <fix>3d</fix>
</trkpt>
<trkpt lat="-27.274439" lon="151.290064">
  <ele>343.18</ele>
  <time>2026-09-01T19:51:49Z</time>
  <course>10.7</course>
  <speed>0.0</speed>
  <fix>3d</fix>
</trkpt>
<trkpt lat="-27.274439" lon="151.290064">
  <ele>343.1</ele>
  <time>2026-09-01T19:51:49Z</time>
  <course>270.0</course>
  <speed>0.0</speed>
  <fix>3d</fix>
</trkpt>
<trkpt lat="-27.274439" lon="151.290064">
  <ele>343.18</ele>
  <time>2026-09-01T19:51:49Z</time>
  <course>10.7</course>
  <speed>0.0</speed>
  <fix>3d</fix>
</trkpt>
<trkpt lat="-27.274439" lon="151.290064">
  <ele>343.1</ele>
  <time>2026-09-01T19:51:49Z</time>
  <course>270.0</course>
  <speed>0.0</speed>
  <fix>3d</fix>
</trkpt>
<trkpt lat="-27.274439" lon="151.290064">
  <ele>343.18</ele>
  <time>2026-09-01T19:51:49Z</time>
  <course>10.7</course>
  <speed>0.0</speed>
  <fix>3d</fix>
</trkpt>
<trkpt lat="-27.274439" lon="151.290064">
  <ele>343.1</ele>
  <time>2026-09-01T19:51:49Z</time>
  <course>270.0</course>
  <speed>0.0</speed>
  <fix>3d</fix>
</trkpt>
<trkpt lat="-27.274439" lon="151.290064">
  <ele>343.18</ele>
  <time>2026-09-01T19:51:49Z</time>
  <course>10.7</course>
  <speed>0.0</speed>
  <fix>3d</fix>
</trkpt>
<trkpt lat="-27.274439" lon="151.290064">
  <ele>343.1</ele>
  <time>2026-09-01T19:51:49Z</time>
  <course>270.0</course>
  <speed>0.0</speed>
  <fix>3d</fix>
</trkpt>
<trkpt lat="-27.274439" lon="151.290064">
  <ele>343.18</ele>
  <time>2026-09-01T19:51:49Z</time>
  <course>10.7</course>
  <speed>0.0</speed>
  <fix>3d</fix>
</trkpt>
<trkpt lat="-27.274439" lon="151.290064">
  <ele>343.1</ele>
  <time>2026-09-01T19:51:49Z</time>
  <course>270.0</course>
  <speed>0.0</speed>
  <fix>3d</fix>
</trkpt>
<trkpt lat="-27.274439" lon="151.290064">
  <ele>343.18</ele>
  <time>2026-09-01T19:51:49Z</time>
  <course>10.7</course>
  <speed>0.0</speed>
  <fix>3d</fix>
</trkpt>
<trkpt lat="-27.274439" lon="151.290064">
  <ele>343.1</ele>
  <time>2026-09-01T19:51:49Z</time>
  <course>270.0</course>
  <speed>0.0</speed>
  <fix>3d</fix>
</trkpt>
<trkpt lat="-27.274439" lon="151.290064">
  <ele>343.18</ele>
  <time>2026-09-01T19:51:49Z</time>
  <course>10.7</course>
  <speed>0.0</speed>
  <fix>3d</fix>
</trkpt>
<trkpt lat="-27.274439" lon="151.290064">
  <ele>343.1</ele>
  <time>2026-09-01T19:51:49Z</time>
  <course>270.0</course>
  <speed>0.0</speed>
  <fix>3d</fix>
</trkpt>
<trkpt lat="-27.274439" lon="151.290064">
  <ele>343.18</ele>
  <time>2026-09-01T19:51:49Z</time>
  <course>10.7</course>
  <speed>0.0</speed>
  <fix>3d</fix>
</trkpt>
<trkpt lat="-27.274439" lon="151.290064">
  <ele>343.1</ele>
  <time>2026-09-01T19:51:49Z</time>
  <course>270.0</course>
  <speed>0.0</speed>
  <fix>3d</fix>
</trkpt>
<trkpt lat="-27.274439" lon="151.290064">
  <ele>343.18</ele>
  <time>2026-09-01T19:51:49Z</time>
  <course>10.7</course>
  <speed>0.0</speed>
  <fix>3d</fix>
</trkpt>
<trkpt lat="-27.274439" lon="151.290064">
  <ele>343.1</ele>
  <time>2026-09-01T19:51:49Z</time>
  <course>270.0</course>
  <speed>0.0</speed>
  <fix>3d</fix>
</trkpt>
<trkpt lat="-27.274439" lon="151.290064">
  <ele>343.18</ele>
  <time>2026-09-01T19:51:49Z</time>
  <course>10.7</course>
  <speed>0.0</speed>
  <fix>3d</fix>
</trkpt>
<trkpt lat="-27.274439" lon="151.290064">
  <ele>343.1</ele>
  <time>2026-09-01T19:51:49Z</time>
  <course>270.0</course>
  <speed>0.0</speed>
  <fix>3d</fix>
</trkpt>
<trkpt lat="-27.274439" lon="151.290064">
  <ele>343.19</ele>
  <time>2026-09-01T19:51:49Z</time>
  <course>10.7</course>
  <speed>0.0</speed>
  <fix>3d</fix>
</trkpt>
<trkpt lat="-27.274439" lon="151.290064">
  <ele>343.1</ele>
  <time>2026-09-01T19:51:49Z</time>
  <course>270.0</course>
  <speed>0.0</speed>
  <fix>3d</fix>
</trkpt>
<trkpt lat="-27.274439" lon="151.290064">
  <ele>343.19</ele>
  <time>2026-09-01T19:51:49Z</time>
  <course>10.7</course>
  <speed>0.0</speed>
  <fix>3d</fix>
</trkpt>
<trkpt lat="-27.274439" lon="151.290064">
  <ele>343.1</ele>
  <time>2026-09-01T19:51:49Z</time>
  <course>270.0</course>
  <speed>0.0</speed>
  <fix>3d</fix>
</trkpt>
<trkpt lat="-27.274439" lon="151.290064">
  <ele>343.19</ele>
  <time>2026-09-01T19:51:49Z</time>
  <course>10.7</course>
  <speed>0.0</speed>
  <fix>3d</fix>
</trkpt>
<trkpt lat="-27.274439" lon="151.290064">
  <ele>343.1</ele>
  <time>2026-09-01T19:51:49Z</time>
  <course>270.0</course>
  <speed>0.0</speed>
  <fix>3d</fix>
</trkpt>
<trkpt lat="-27.274439" lon="151.290064">
  <ele>343.19</ele>
  <time>2026-09-01T19:51:49Z</time>
  <course>10.7</course>
  <speed>0.0</speed>
  <fix>3d</fix>
</trkpt>
<trkpt lat="-27.274439" lon="151.290064">
  <ele>343.1</ele>
  <time>2026-09-01T19:51:49Z</time>
  <course>270.0</course>
  <speed>0.0</speed>
  <fix>3d</fix>
</trkpt>
<trkpt lat="-27.274439" lon="151.290064">
  <ele>343.19</ele>
  <time>2026-09-01T19:51:49Z</time>
  <course>10.7</course>
  <speed>0.0</speed>
  <fix>3d</fix>
</trkpt>
<trkpt lat="-27.274439" lon="151.290064">
  <ele>343.1</ele>
  <time>2026-09-01T19:51:49Z</time>
  <course>270.0</course>
  <speed>0.0</speed>
  <fix>3d</fix>
</trkpt>
<trkpt lat="-27.274439" lon="151.290064">
  <ele>343.19</ele>
  <time>2026-09-01T19:51:49Z</time>
  <course>10.7</course>
  <speed>0.0</speed>
  <fix>3d</fix>
</trkpt>
<trkpt lat="-27.274439" lon="151.290064">
  <ele>343.1</ele>
  <time>2026-09-01T19:51:49Z</time>
  <course>270.0</course>
  <speed>0.0</speed>
  <fix>3d</fix>
</trkpt>
<trkpt lat="-27.274439" lon="151.290064">
  <ele>343.09</ele>
  <time>2026-09-01T19:51:49Z</time>
  <course>10.7</course>
  <speed>0.0</speed>
  <fix>3d</fix>
</trkpt>
<trkpt lat="-27.274439" lon="151.290064">
  <ele>343.1</ele>
  <time>2026-09-01T19:51:49Z</time>
  <course>270.0</course>
  <speed>0.0</speed>
  <fix>3d</fix>
</trkpt>
<trkpt lat="-27.274439" lon="151.290064">
  <ele>343.09</ele>
  <time>2026-09-01T19:51:49Z</time>
  <course>10.7</course>
  <speed>0.0</speed>
  <fix>3d</fix>
</trkpt>
<trkpt lat="-27.274439" lon="151.290064">
  <ele>343.1</ele>
  <time>2026-09-01T19:51:49Z</time>
  <course>270.0</course>
  <speed>0.0</speed>
  <fix>3d</fix>
</trkpt>
<trkpt lat="-27.274439" lon="151.290064">
  <ele>343.09</ele>
  <time>2026-09-01T19:51:49Z</time>
  <course>10.7</course>
  <speed>0.0</speed>
  <fix>3d</fix>
</trkpt>
<trkpt lat="-27.274439" lon="151.290064">
  <ele>343.1</ele>
  <time>2026-09-01T19:51:49Z</time>
  <course>270.0</course>
  <speed>0.0</speed>
  <fix>3d</fix>
</trkpt>
<trkpt lat="-27.274439" lon="151.290064">
  <ele>343.1</ele>
  <time>2026-09-01T19:51:49Z</time>
  <course>10.7</course>
  <speed>0.0</speed>
  <fix>3d</fix>
</trkpt>
<trkpt lat="-27.274439" lon="151.290064">
  <ele>343.1</ele>
  <time>2026-09-01T19:51:49Z</time>
  <course>270.0</course>
  <speed>0.0</speed>
  <fix>3d</fix>
</trkpt>
<trkpt lat="-27.274439" lon="151.290064">
  <ele>343.1</ele>
  <time>2026-09-01T19:51:49Z</time>
  <course>10.7</course>
  <speed>0.0</speed>
  <fix>3d</fix>
</trkpt>
<trkpt lat="-27.274439" lon="151.290064">
  <ele>343.1</ele>
  <time>2026-09-01T19:51:49Z</time>
  <course>270.0</course>
  <speed>0.0</speed>
  <fix>3d</fix>
</trkpt>
<trkpt lat="-27.274439" lon="151.290064">
  <ele>343.1</ele>
  <time>2026-09-01T19:51:49Z</time>
  <course>10.7</course>
  <speed>0.0</speed>
  <fix>3d</fix>
</trkpt>
<trkpt lat="-27.274439" lon="151.290064">
  <ele>343.1</ele>
  <time>2026-09-01T19:51:49Z</time>
  <course>270.0</course>
  <speed>0.0</speed>
  <fix>3d</fix>
</trkpt>
<trkpt lat="-27.274439" lon="151.290064">
  <ele>343.11</ele>
  <time>2026-09-01T19:51:49Z</time>
  <course>10.7</course>
  <speed>0.0</speed>
  <fix>3d</fix>
</trkpt>
<trkpt lat="-27.274439" lon="151.290064">
  <ele>343.1</ele>
  <time>2026-09-01T19:51:49Z</time>
  <course>270.0</course>
  <speed>0.0</speed>
  <fix>3d</fix>
</trkpt>
<trkpt lat="-27.274439" lon="151.290064">
  <ele>343.11</ele>
  <time>2026-09-01T19:51:49Z</time>
  <course>10.7</course>
  <speed>0.0</speed>
  <fix>3d</fix>
</trkpt>
<trkpt lat="-27.274439" lon="151.290064">
  <ele>343.1</ele>
  <time>2026-09-01T19:51:49Z</time>
  <course>270.0</course>
  <speed>0.0</speed>
  <fix>3d</fix>
</trkpt>
<trkpt lat="-27.274439" lon="151.290064">
  <ele>343.12</ele>
  <time>2026-09-01T19:51:49Z</time>
  <course>10.7</course>
  <speed>0.0</speed>
  <fix>3d</fix>
</trkpt>
<trkpt lat="-27.274439" lon="151.290064">
  <ele>343.1</ele>
  <time>2026-09-01T19:51:49Z</time>
  <course>270.0</course>
  <speed>0.0</speed>
  <fix>3d</fix>
</trkpt>
<trkpt lat="-27.274439" lon="151.290064">
  <ele>343.12</ele>
  <time>2026-09-01T19:51:49Z</time>
  <course>10.7</course>
  <speed>0.0</speed>
  <fix>3d</fix>
</trkpt>
<trkpt lat="-27.274439" lon="151.290064">
  <ele>343.1</ele>
  <time>2026-09-01T19:51:49Z</time>
  <course>270.0</course>
  <speed>0.0</speed>
  <fix>3d</fix>
</trkpt>
<trkpt lat="-27.274439" lon="151.290064">
  <ele>343.13</ele>
  <time>2026-09-01T19:51:49Z</time>
  <course>10.7</course>
  <speed>0.0</speed>
  <fix>3d</fix>
</trkpt>
<trkpt lat="-27.274439" lon="151.290064">
  <ele>343.1</ele>
  <time>2026-09-01T19:51:49Z</time>
  <course>270.0</course>
  <speed>0.0</speed>
  <fix>3d</fix>
</trkpt>
<trkpt lat="-27.274439" lon="151.290064">
  <ele>343.14</ele>
  <time>2026-09-01T19:51:49Z</time>
  <course>10.7</course>
  <speed>0.0</speed>
  <fix>3d</fix>
</trkpt>
<trkpt lat="-27.274439" lon="151.290064">
  <ele>343.1</ele>
  <time>2026-09-01T19:51:49Z</time>
  <course>270.0</course>
  <speed>0.0</speed>
  <fix>3d</fix>
</trkpt>
<trkpt lat="-27.274439" lon="151.290064">
  <ele>343.14</ele>
  <time>2026-09-01T19:51:49Z</time>
  <course>10.69</course>
  <speed>0.0</speed>
  <fix>3d</fix>
</trkpt>
<trkpt lat="-27.274439" lon="151.290064">
  <ele>343.1</ele>
  <time>2026-09-01T19:51:49Z</time>
  <course>270.0</course>
  <speed>0.0</speed>
  <fix>3d</fix>
</trkpt>
<trkpt lat="-27.274439" lon="151.290064">
  <ele>343.15</ele>
  <time>2026-09-01T19:51:49Z</time>
  <course>10.69</course>
  <speed>0.0</speed>
  <fix>3d</fix>
</trkpt>
<trkpt lat="-27.274439" lon="151.290064">
  <ele>343.1</ele>
  <time>2026-09-01T19:51:49Z</time>
  <course>270.0</course>
  <speed>0.0</speed>
  <fix>3d</fix>
</trkpt>
<trkpt lat="-27.274439" lon="151.290064">
  <ele>343.16</ele>
  <time>2026-09-01T19:51:49Z</time>
  <course>10.69</course>
  <speed>0.0</speed>
  <fix>3d</fix>
</trkpt>
<trkpt lat="-27.274439" lon="151.290064">
  <ele>343.1</ele>
  <time>2026-09-01T19:51:49Z</time>
  <course>270.0</course>
  <speed>0.0</speed>
  <fix>3d</fix>
</trkpt>
<trkpt lat="-27.274439" lon="151.290064">
  <ele>343.16</ele>
  <time>2026-09-01T19:51:49Z</time>
  <course>10.69</course>
  <speed>0.01</speed>
  <fix>3d</fix>
</trkpt>
<trkpt lat="-27.274439" lon="151.290064">
  <ele>343.1</ele>
  <time>2026-09-01T19:51:49Z</time>
  <course>270.0</course>
  <speed>0.0</speed>
  <fix>3d</fix>
</trkpt>
<trkpt lat="-27.274439" lon="151.290064">
  <ele>343.17</ele>
  <time>2026-09-01T19:51:49Z</time>
  <course>10.69</course>
  <speed>0.01</speed>
  <fix>3d</fix>
</trkpt>
<trkpt lat="-27.274439" lon="151.290064">
  <ele>343.1</ele>
  <time>2026-09-01T19:51:49Z</time>
  <course>270.0</course>
  <speed>0.0</speed>
  <fix>3d</fix>
</trkpt>
<trkpt lat="-27.274439" lon="151.290064">
  <ele>343.18</ele>
  <time>2026-09-01T19:51:49Z</time>
  <course>10.69</course>
  <speed>0.01</speed>
  <fix>3d</fix>
</trkpt>
<trkpt lat="-27.274439" lon="151.290064">
  <ele>343.1</ele>
  <time>2026-09-01T19:51:49Z</time>
  <course>270.0</course>
  <speed>0.0</speed>
  <fix>3d</fix>
</trkpt>
<trkpt lat="-27.274439" lon="151.290064">
  <ele>343.18</ele>
  <time>2026-09-01T19:51:49Z</time>
  <course>10.69</course>
  <speed>0.01</speed>
  <fix>3d</fix>
</trkpt>
<trkpt lat="-27.274439" lon="151.290064">
  <ele>343.1</ele>
  <time>2026-09-01T19:51:49Z</time>
  <course>270.0</course>
  <speed>0.0</speed>
  <fix>3d</fix>
</trkpt>
<trkpt lat="-27.274439" lon="151.290064">
  <ele>343.19</ele>
  <time>2026-09-01T19:51:49Z</time>
  <course>10.69</course>
  <speed>0.01</speed>
  <fix>3d</fix>
</trkpt>
<trkpt lat="-27.274439" lon="151.290064">
  <ele>343.1</ele>
  <time>2026-09-01T19:51:49Z</time>
  <course>270.0</course>
  <speed>0.0</speed>
  <fix>3d</fix>
</trkpt>
<trkpt lat="-27.274439" lon="151.290064">
  <ele>343.19</ele>
  <time>2026-09-01T19:51:49Z</time>
  <course>10.69</course>
  <speed>0.01</speed>
  <fix>3d</fix>
</trkpt>
<trkpt lat="-27.274439" lon="151.290064">
  <ele>343.1</ele>
  <time>2026-09-01T19:51:49Z</time>
  <course>270.0</course>
  <speed>0.0</speed>
  <fix>3d</fix>
</trkpt>
<trkpt lat="-27.274439" lon="151.290064">
  <ele>343.2</ele>
  <time>2026-09-01T19:51:49Z</time>
  <course>10.69</course>
  <speed>0.01</speed>
  <fix>3d</fix>
</trkpt>
<trkpt lat="-27.274439" lon="151.290064">
  <ele>343.1</ele>
  <time>2026-09-01T19:51:49Z</time>
  <course>270.0</course>
  <speed>0.0</speed>
  <fix>3d</fix>
</trkpt>
<trkpt lat="-27.274439" lon="151.290064">
  <ele>343.2</ele>
  <time>2026-09-01T19:51:49Z</time>
  <course>10.69</course>
  <speed>0.01</speed>
  <fix>3d</fix>
</trkpt>
<trkpt lat="-27.274439" lon="151.290064">
  <ele>343.1</ele>
  <time>2026-09-01T19:51:49Z</time>
  <course>270.0</course>
  <speed>0.0</speed>
  <fix>3d</fix>
</trkpt>
<trkpt lat="-27.274439" lon="151.290064">
  <ele>343.21</ele>
  <time>2026-09-01T19:51:49Z</time>
  <course>10.69</course>
  <speed>0.01</speed>
  <fix>3d</fix>
</trkpt>
<trkpt lat="-27.274439" lon="151.290064">
  <ele>343.1</ele>
  <time>2026-09-01T19:51:49Z</time>
  <course>270.0</course>
  <speed>0.0</speed>
  <fix>3d</fix>
</trkpt>
<trkpt lat="-27.274439" lon="151.290064">
  <ele>343.21</ele>
  <time>2026-09-01T19:51:49Z</time>
  <course>10.69</course>
  <speed>0.01</speed>
  <fix>3d</fix>
</trkpt>
<trkpt lat="-27.274439" lon="151.290064">
  <ele>343.1</ele>
  <time>2026-09-01T19:51:49Z</time>
  <course>270.0</course>
  <speed>0.0</speed>
  <fix>3d</fix>
</trkpt>
<trkpt lat="-27.274439" lon="151.290064">
  <ele>343.22</ele>
  <time>2026-09-01T19:51:49Z</time>
  <course>10.69</course>
  <speed>0.01</speed>
  <fix>3d</fix>
</trkpt>
<trkpt lat="-27.274439" lon="151.290064">
  <ele>343.1</ele>
  <time>2026-09-01T19:51:49Z</time>
  <course>270.0</course>
  <speed>0.0</speed>
  <fix>3d</fix>
</trkpt>
<trkpt lat="-27.274439" lon="151.290064">
  <ele>343.22</ele>
  <time>2026-09-01T19:51:49Z</time>
  <course>10.69</course>
  <speed>0.01</speed>
  <fix>3d</fix>
</trkpt>
<trkpt lat="-27.274439" lon="151.290064">
  <ele>343.1</ele>
  <time>2026-09-01T19:51:49Z</time>
  <course>270.0</course>
  <speed>0.0</speed>
  <fix>3d</fix>
</trkpt>
<trkpt lat="-27.274439" lon="151.290064">
  <ele>343.22</ele>
  <time>2026-09-01T19:51:49Z</time>
  <course>10.69</course>
  <speed>0.01</speed>
  <fix>3d</fix>
</trkpt>
<trkpt lat="-27.274439" lon="151.290064">
  <ele>343.1</ele>
  <time>2026-09-01T19:51:49Z</time>
  <course>270.0</course>
  <speed>0.0</speed>
  <fix>3d</fix>
</trkpt>
<trkpt lat="-27.274439" lon="151.290064">
  <ele>343.22</ele>
  <time>2026-09-01T19:51:49Z</time>
  <course>10.69</course>
  <speed>0.01</speed>
  <fix>3d</fix>
</trkpt>
<trkpt lat="-27.274439" lon="151.290064">
  <ele>343.1</ele>
  <time>2026-09-01T19:51:49Z</time>
  <course>270.0</course>
  <speed>0.0</speed>
  <fix>3d</fix>
</trkpt>
<trkpt lat="-27.274439" lon="151.290064">
  <ele>343.23</ele>
  <time>2026-09-01T19:51:49Z</time>
  <course>10.69</course>
  <speed>0.01</speed>
  <fix>3d</fix>
</trkpt>
<trkpt lat="-27.274439" lon="151.290064">
  <ele>343.1</ele>
  <time>2026-09-01T19:51:49Z</time>
  <course>270.0</course>
  <speed>0.0</speed>
  <fix>3d</fix>
</trkpt>
<trkpt lat="-27.274439" lon="151.290064">
  <ele>343.23</ele>
  <time>2026-09-01T19:51:49Z</time>
  <course>10.69</course>
  <speed>0.01</speed>
  <fix>3d</fix>
</trkpt>
<trkpt lat="-27.274439" lon="151.290064">
  <ele>343.1</ele>
  <time>2026-09-01T19:51:49Z</time>
  <course>270.0</course>
  <speed>0.0</speed>
  <fix>3d</fix>
</trkpt>
<trkpt lat="-27.274439" lon="151.290064">
  <ele>343.23</ele>
  <time>2026-09-01T19:51:49Z</time>
  <course>10.69</course>
  <speed>0.01</speed>
  <fix>3d</fix>
</trkpt>
<trkpt lat="-27.274439" lon="151.290064">
  <ele>343.1</ele>
  <time>2026-09-01T19:51:49Z</time>
  <course>270.0</course>
  <speed>0.0</speed>
  <fix>3d</fix>
</trkpt>
<trkpt lat="-27.274439" lon="151.290064">
  <ele>343.23</ele>
  <time>2026-09-01T19:51:49Z</time>
  <course>10.69</course>
  <speed>0.01</speed>
  <fix>3d</fix>
</trkpt>
<trkpt lat="-27.274439" lon="151.290064">
  <ele>343.1</ele>
  <time>2026-09-01T19:51:49Z</time>
  <course>270.0</course>
  <speed>0.0</speed>
  <fix>3d</fix>
</trkpt>
<trkpt lat="-27.274439" lon="151.290064">
  <ele>343.23</ele>
  <time>2026-09-01T19:51:49Z</time>
  <course>10.69</course>
  <speed>0.01</speed>
  <fix>3d</fix>
</trkpt>
<trkpt lat="-27.274439" lon="151.290064">
  <ele>343.1</ele>
  <time>2026-09-01T19:51:49Z</time>
  <course>270.0</course>
  <speed>0.0</speed>
  <fix>3d</fix>
</trkpt>
<trkpt lat="-27.274439" lon="151.290064">
  <ele>343.23</ele>
  <time>2026-09-01T19:51:49Z</time>
  <course>10.69</course>
  <speed>0.01</speed>
  <fix>3d</fix>
</trkpt>
<trkpt lat="-27.274439" lon="151.290064">
  <ele>343.1</ele>
  <time>2026-09-01T19:51:49Z</time>
  <course>270.0</course>
  <speed>0.0</speed>
  <fix>3d</fix>
</trkpt>
<trkpt lat="-27.274439" lon="151.290064">
  <ele>343.23</ele>
  <time>2026-09-01T19:51:49Z</time>
  <course>10.69</course>
  <speed>0.01</speed>
  <fix>3d</fix>
</trkpt>
<trkpt lat="-27.274439" lon="151.290064">
  <ele>343.1</ele>
  <time>2026-09-01T19:51:49Z</time>
  <course>270.0</course>
  <speed>0.0</speed>
  <fix>3d</fix>
</trkpt>
<trkpt lat="-27.274439" lon="151.290064">
  <ele>343.24</ele>
  <time>2026-09-01T19:51:49Z</time>
  <course>10.69</course>
  <speed>0.01</speed>
  <fix>3d</fix>
</trkpt>
<trkpt lat="-27.274439" lon="151.290064">
  <ele>343.1</ele>
  <time>2026-09-01T19:51:49Z</time>
  <course>270.0</course>
  <speed>0.0</speed>
  <fix>3d</fix>
</trkpt>
<trkpt lat="-27.274439" lon="151.290064">
  <ele>343.24</ele>
  <time>2026-09-01T19:51:49Z</time>
  <course>10.69</course>
  <speed>0.01</speed>
  <fix>3d</fix>
</trkpt>
<trkpt lat="-27.274439" lon="151.290064">
  <ele>343.1</ele>
  <time>2026-09-01T19:51:49Z</time>
  <course>270.0</course>
  <speed>0.0</speed>
  <fix>3d</fix>
</trkpt>
<trkpt lat="-27.274439" lon="151.290064">
  <ele>343.24</ele>
  <time>2026-09-01T19:51:49Z</time>
  <course>10.69</course>
  <speed>0.01</speed>
  <fix>3d</fix>
</trkpt>
<trkpt lat="-27.274439" lon="151.290064">
  <ele>343.1</ele>
  <time>2026-09-01T19:51:49Z</time>
  <course>270.0</course>
  <speed>0.0</speed>
  <fix>3d</fix>
</trkpt>
<trkpt lat="-27.274439" lon="151.290064">
  <ele>343.24</ele>
  <time>2026-09-01T19:51:49Z</time>
  <course>10.69</course>
  <speed>0.01</speed>
  <fix>3d</fix>
</trkpt>
<trkpt lat="-27.274439" lon="151.290064">
  <ele>343.1</ele>
  <time>2026-09-01T19:51:49Z</time>
  <course>270.0</course>
  <speed>0.0</speed>
  <fix>3d</fix>
</trkpt>
<trkpt lat="-27.274439" lon="151.290064">
  <ele>343.24</ele>
  <time>2026-09-01T19:51:49Z</time>
  <course>10.69</course>
  <speed>0.01</speed>
  <fix>3d</fix>
</trkpt>
<trkpt lat="-27.274439" lon="151.290064">
  <ele>343.1</ele>
  <time>2026-09-01T19:51:49Z</time>
  <course>270.0</course>
  <speed>0.0</speed>
  <fix>3d</fix>
</trkpt>
<trkpt lat="-27.274439" lon="151.290064">
  <ele>343.24</ele>
  <time>2026-09-01T19:51:49Z</time>
  <course>10.69</course>
  <speed>0.01</speed>
  <fix>3d</fix>
</trkpt>
<trkpt lat="-27.274439" lon="151.290064">
  <ele>343.1</ele>
  <time>2026-09-01T19:51:49Z</time>
  <course>270.0</course>
  <speed>0.0</speed>
  <fix>3d</fix>
</trkpt>
<trkpt lat="-27.274439" lon="151.290064">
  <ele>343.25</ele>
  <time>2026-09-01T19:51:49Z</time>
  <course>10.69</course>
  <speed>0.01</speed>
  <fix>3d</fix>
</trkpt>
<trkpt lat="-27.274439" lon="151.290064">
  <ele>343.1</ele>
  <time>2026-09-01T19:51:49Z</time>
  <course>270.0</course>
  <speed>0.0</speed>
  <fix>3d</fix>
</trkpt>
<trkpt lat="-27.2744391" lon="151.290064">
  <ele>343.25</ele>
  <time>2026-09-01T19:51:49Z</time>
  <course>10.69</course>
  <speed>0.01414213562373095</speed>
  <fix>3d</fix>
</trkpt>
<trkpt lat="-27.274439" lon="151.290064">
  <ele>343.1</ele>
  <time>2026-09-01T19:51:49Z</time>
  <course>270.0</course>
  <speed>0.0</speed>
  <fix>3d</fix>
</trkpt>
<trkpt lat="-27.2744391" lon="151.290064">
  <ele>343.25</ele>
  <time>2026-09-01T19:51:49Z</time>
  <course>10.69</course>
  <speed>0.01</speed>
  <fix>3d</fix>
</trkpt>
<trkpt lat="-27.274439" lon="151.290064">
  <ele>343.1</ele>
  <time>2026-09-01T19:51:49Z</time>
  <course>270.0</course>
  <speed>0.0</speed>
  <fix>3d</fix>
</trkpt>
<trkpt lat="-27.2744391" lon="151.290064">
  <ele>343.26</ele>
  <time>2026-09-01T19:51:49Z</time>
  <course>10.69</course>
  <speed>0.01414213562373095</speed>
  <fix>3d</fix>
</trkpt>
<trkpt lat="-27.274439" lon="151.290064">
  <ele>343.1</ele>
  <time>2026-09-01T19:51:49Z</time>
  <course>270.0</course>
  <speed>0.0</speed>
  <fix>3d</fix>
</trkpt>
<trkpt lat="-27.2744391" lon="151.290064">
  <ele>343.26</ele>
  <time>2026-09-01T19:51:49Z</time>
  <course>10.69</course>
  <speed>0.01414213562373095</speed>
  <fix>3d</fix>
</trkpt>
<trkpt lat="-27.274439" lon="151.290064">
  <ele>343.1</ele>
  <time>2026-09-01T19:51:49Z</time>
  <course>270.0</course>
  <speed>0.0</speed>
  <fix>3d</fix>
</trkpt>
<trkpt lat="-27.2744391" lon="151.290064">
  <ele>343.26</ele>
  <time>2026-09-01T19:51:49Z</time>
  <course>10.69</course>
  <speed>0.01414213562373095</speed>
  <fix>3d</fix>
</trkpt>
<trkpt lat="-27.274439" lon="151.290064">
  <ele>343.1</ele>
  <time>2026-09-01T19:51:49Z</time>
  <course>270.0</course>
  <speed>0.0</speed>
  <fix>3d</fix>
</trkpt>
<trkpt lat="-27.2744391" lon="151.290064">
  <ele>343.26</ele>
  <time>2026-09-01T19:51:49Z</time>
  <course>10.69</course>
  <speed>0.01414213562373095</speed>
  <fix>3d</fix>
</trkpt>
<trkpt lat="-27.274439" lon="151.290064">
  <ele>343.1</ele>
  <time>2026-09-01T19:51:49Z</time>
  <course>270.0</course>
  <speed>0.0</speed>
  <fix>3d</fix>
</trkpt>
<trkpt lat="-27.2744391" lon="151.290064">
  <ele>343.26</ele>
  <time>2026-09-01T19:51:49Z</time>
  <course>10.69</course>
  <speed>0.01414213562373095</speed>
  <fix>3d</fix>
</trkpt>
<trkpt lat="-27.274439" lon="151.290064">
  <ele>343.1</ele>
  <time>2026-09-01T19:51:49Z</time>
  <course>270.0</course>
  <speed>0.0</speed>
  <fix>3d</fix>
</trkpt>
<trkpt lat="-27.2744391" lon="151.290064">
  <ele>343.27</ele>
  <time>2026-09-01T19:51:49Z</time>
  <course>10.69</course>
  <speed>0.01414213562373095</speed>
  <fix>3d</fix>
</trkpt>
<trkpt lat="-27.274439" lon="151.290064">
  <ele>343.1</ele>
  <time>2026-09-01T19:51:49Z</time>
  <course>270.0</course>
  <speed>0.0</speed>
  <fix>3d</fix>
</trkpt>
<trkpt lat="-27.2744391" lon="151.290064">
  <ele>343.27</ele>
  <time>2026-09-01T19:51:49Z</time>
  <course>10.69</course>
  <speed>0.01414213562373095</speed>
  <fix>3d</fix>
</trkpt>
<trkpt lat="-27.274439" lon="151.290064">
  <ele>343.1</ele>
  <time>2026-09-01T19:51:49Z</time>
  <course>270.0</course>
  <speed>0.0</speed>
  <fix>3d</fix>
</trkpt>
<trkpt lat="-27.2744391" lon="151.290064">
  <ele>343.27</ele>
  <time>2026-09-01T19:51:49Z</time>
  <course>10.69</course>
  <speed>0.01414213562373095</speed>
  <fix>3d</fix>
</trkpt>
<trkpt lat="-27.274439" lon="151.290064">
  <ele>343.1</ele>
  <time>2026-09-01T19:51:49Z</time>
  <course>270.0</course>
  <speed>0.0</speed>
  <fix>3d</fix>
</trkpt>
<trkpt lat="-27.2744391" lon="151.290064">
  <ele>343.27</ele>
  <time>2026-09-01T19:51:49Z</time>
  <course>10.69</course>
  <speed>0.01414213562373095</speed>
  <fix>3d</fix>
</trkpt>
<trkpt lat="-27.274439" lon="151.290064">
  <ele>343.1</ele>
  <time>2026-09-01T19:51:49Z</time>
  <course>270.0</course>
  <speed>0.0</speed>
  <fix>3d</fix>
</trkpt>
<trkpt lat="-27.2744391" lon="151.290064">
  <ele>343.28</ele>
  <time>2026-09-01T19:51:49Z</time>
  <course>10.69</course>
  <speed>0.01414213562373095</speed>
  <fix>3d</fix>
</trkpt>
<trkpt lat="-27.274439" lon="151.290064">
  <ele>343.1</ele>
  <time>2026-09-01T19:51:49Z</time>
  <course>270.0</course>
  <speed>0.0</speed>
  <fix>3d</fix>
</trkpt>
<trkpt lat="-27.2744391" lon="151.290064">
  <ele>343.28</ele>
  <time>2026-09-01T19:51:49Z</time>
  <course>10.69</course>
  <speed>0.01414213562373095</speed>
  <fix>3d</fix>
</trkpt>
<trkpt lat="-27.274439" lon="151.290064">
  <ele>343.1</ele>
  <time>2026-09-01T19:51:49Z</time>
  <course>270.0</course>
  <speed>0.0</speed>
  <fix>3d</fix>
</trkpt>
<trkpt lat="-27.2744391" lon="151.290064">
  <ele>343.28</ele>
  <time>2026-09-01T19:51:49Z</time>
  <course>10.69</course>
  <speed>0.01414213562373095</speed>
  <fix>3d</fix>
</trkpt>
<trkpt lat="-27.274439" lon="151.290064">
  <ele>343.1</ele>
  <time>2026-09-01T19:51:49Z</time>
  <course>270.0</course>
  <speed>0.0</speed>
  <fix>3d</fix>
</trkpt>
<trkpt lat="-27.2744391" lon="151.290064">
  <ele>343.28</ele>
  <time>2026-09-01T19:51:49Z</time>
  <course>10.69</course>
  <speed>0.01414213562373095</speed>
  <fix>3d</fix>
</trkpt>
<trkpt lat="-27.274439" lon="151.290064">
  <ele>343.1</ele>
  <time>2026-09-01T19:51:49Z</time>
  <course>270.0</course>
  <speed>0.0</speed>
  <fix>3d</fix>
</trkpt>
<trkpt lat="-27.2744391" lon="151.290064">
  <ele>343.28</ele>
  <time>2026-09-01T19:51:49Z</time>
  <course>10.69</course>
  <speed>0.01414213562373095</speed>
  <fix>3d</fix>
</trkpt>
<trkpt lat="-27.274439" lon="151.290064">
  <ele>343.1</ele>
  <time>2026-09-01T19:51:49Z</time>
  <course>270.0</course>
  <speed>0.0</speed>
  <fix>3d</fix>
</trkpt>
<trkpt lat="-27.2744391" lon="151.290064">
  <ele>343.29</ele>
  <time>2026-09-01T19:51:49Z</time>
  <course>10.69</course>
  <speed>0.01414213562373095</speed>
  <fix>3d</fix>
</trkpt>
<trkpt lat="-27.274439" lon="151.290064">
  <ele>343.1</ele>
  <time>2026-09-01T19:51:49Z</time>
  <course>270.0</course>
  <speed>0.0</speed>
  <fix>3d</fix>
</trkpt>
<trkpt lat="-27.2744391" lon="151.290064">
  <ele>343.1</ele>
  <time>2026-09-01T19:51:49Z</time>
  <course>10.69</course>
  <speed>0.01414213562373095</speed>
  <fix>3d</fix>
</trkpt>
<trkpt lat="-27.274439" lon="151.290064">
  <ele>343.1</ele>
  <time>2026-09-01T19:51:49Z</time>
  <course>270.0</course>
  <speed>0.0</speed>
  <fix>3d</fix>
</trkpt>
<trkpt lat="-27.2744391" lon="151.290064">
  <ele>343.1</ele>
  <time>2026-09-01T19:51:49Z</time>
  <course>10.69</course>
  <speed>0.01414213562373095</speed>
  <fix>3d</fix>
</trkpt>
<trkpt lat="-27.274439" lon="151.290064">
  <ele>343.1</ele>
  <time>2026-09-01T19:51:49Z</time>
  <course>270.0</course>
  <speed>0.0</speed>
  <fix>3d</fix>
</trkpt>
<trkpt lat="-27.2744391" lon="151.290064">
  <ele>343.1</ele>
  <time>2026-09-01T19:51:49Z</time>
  <course>10.69</course>
  <speed>0.01414213562373095</speed>
  <fix>3d</fix>
</trkpt>
<trkpt lat="-27.274439" lon="151.290064">
  <ele>343.1</ele>
  <time>2026-09-01T19:51:49Z</time>
  <course>270.0</course>
  <speed>0.0</speed>
  <fix>3d</fix>
</trkpt>
<trkpt lat="-27.2744391" lon="151.290064">
  <ele>343.1</ele>
  <time>2026-09-01T19:51:49Z</time>
  <course>10.69</course>
  <speed>0.01414213562373095</speed>
  <fix>3d</fix>
</trkpt>
<trkpt lat="-27.274439" lon="151.290064">
  <ele>343.1</ele>
  <time>2026-09-01T19:51:49Z</time>
  <course>270.0</course>
  <speed>0.0</speed>
  <fix>3d</fix>
</trkpt>
<trkpt lat="-27.2744391" lon="151.290064">
  <ele>343.1</ele>
  <time>2026-09-01T19:51:49Z</time>
  <course>10.69</course>
  <speed>0.01414213562373095</speed>
  <fix>3d</fix>
</trkpt>
<trkpt lat="-27.274439" lon="151.290064">
  <ele>343.1</ele>
  <time>2026-09-01T19:51:49Z</time>
  <course>270.0</course>
  <speed>0.0</speed>
  <fix>3d</fix>
</trkpt>
<trkpt lat="-27.2744391" lon="151.2900641">
  <ele>343.1</ele>
  <time>2026-09-01T19:51:50Z</time>
  <course>10.69</course>
  <speed>0.01414213562373095</speed>
  <fix>3d</fix>
</trkpt>
<trkpt lat="-27.274439" lon="151.290064">
  <ele>343.1</ele>
  <time>2026-09-01T19:51:50Z</time>
  <course>270.0</course>
  <speed>0.0</speed>
  <fix>3d</fix>
</trkpt>
<trkpt lat="-27.2744391" lon="151.290064">
  <ele>343.09</ele>
  <time>2026-09-01T19:51:50Z</time>
  <course>10.69</course>
  <speed>0.01414213562373095</speed>
  <fix>3d</fix>
</trkpt>
<trkpt lat="-27.274439" lon="151.290064">
  <ele>343.1</ele>
  <time>2026-09-01T19:51:50Z</time>
  <course>270.0</course>
  <speed>0.0</speed>
  <fix>3d</fix>
</trkpt>
<trkpt lat="-27.2744391" lon="151.2900641">
  <ele>343.09</ele>
  <time>2026-09-01T19:51:50Z</time>
  <course>10.69</course>
  <speed>0.01414213562373095</speed>
  <fix>3d</fix>
</trkpt>
<trkpt lat="-27.274439" lon="151.290064">
  <ele>343.1</ele>
  <time>2026-09-01T19:51:50Z</time>
  <course>270.0</course>
  <speed>0.0</speed>
  <fix>3d</fix>
</trkpt>
<trkpt lat="-27.2744391" lon="151.290064">
  <ele>343.09</ele>
  <time>2026-09-01T19:51:50Z</time>
  <course>10.69</course>
  <speed>0.01414213562373095</speed>
  <fix>3d</fix>
</trkpt>
<trkpt lat="-27.274439" lon="151.290064">
  <ele>343.1</ele>
  <time>2026-09-01T19:51:50Z</time>
  <course>270.0</course>
  <speed>0.0</speed>
  <fix>3d</fix>
</trkpt>
<trkpt lat="-27.2744391" lon="151.2900641">
  <ele>343.09</ele>
  <time>2026-09-01T19:51:50Z</time>
  <course>10.69</course>
  <speed>0.01414213562373095</speed>
  <fix>3d</fix>
</trkpt>
<trkpt lat="-27.274439" lon="151.290064">
  <ele>343.1</ele>
  <time>2026-09-01T19:51:50Z</time>
  <course>270.0</course>
  <speed>0.0</speed>
  <fix>3d</fix>
</trkpt>
<trkpt lat="-27.2744391" lon="151.290064">
  <ele>343.09</ele>
  <time>2026-09-01T19:51:50Z</time>
  <course>10.69</course>
  <speed>0.01414213562373095</speed>
  <fix>3d</fix>
</trkpt>
<trkpt lat="-27.274439" lon="151.290064">
  <ele>343.1</ele>
  <time>2026-09-01T19:51:50Z</time>
  <course>270.0</course>
  <speed>0.0</speed>
  <fix>3d</fix>
</trkpt>
<trkpt lat="-27.2744391" lon="151.2900641">
  <ele>343.09</ele>
  <time>2026-09-01T19:51:50Z</time>
  <course>10.69</course>
  <speed>0.01414213562373095</speed>
  <fix>3d</fix>
</trkpt>
<trkpt lat="-27.274439" lon="151.290064">
  <ele>343.1</ele>
  <time>2026-09-01T19:51:50Z</time>
  <course>270.0</course>
  <speed>0.0</speed>
  <fix>3d</fix>
</trkpt>
<trkpt lat="-27.2744391" lon="151.2900641">
  <ele>343.08</ele>
  <time>2026-09-01T19:51:50Z</time>
  <course>10.69</course>
  <speed>0.01414213562373095</speed>
  <fix>3d</fix>
</trkpt>
<trkpt lat="-27.274439" lon="151.290064">
  <ele>343.1</ele>
  <time>2026-09-01T19:51:50Z</time>
  <course>270.0</course>
  <speed>0.0</speed>
  <fix>3d</fix>
</trkpt>
<trkpt lat="-27.2744391" lon="151.2900641">
  <ele>343.08</ele>
  <time>2026-09-01T19:51:50Z</time>
  <course>10.69</course>
  <speed>0.01414213562373095</speed>
  <fix>3d</fix>
</trkpt>
<trkpt lat="-27.274439" lon="151.290064">
  <ele>343.1</ele>
  <time>2026-09-01T19:51:50Z</time>
  <course>270.0</course>
  <speed>0.0</speed>
  <fix>3d</fix>
</trkpt>
<trkpt lat="-27.2744391" lon="151.2900641">
  <ele>343.08</ele>
  <time>2026-09-01T19:51:50Z</time>
  <course>10.69</course>
  <speed>0.01414213562373095</speed>
  <fix>3d</fix>
</trkpt>
<trkpt lat="-27.274439" lon="151.290064">
  <ele>343.1</ele>
  <time>2026-09-01T19:51:50Z</time>
  <course>270.0</course>
  <speed>0.0</speed>
  <fix>3d</fix>
</trkpt>
<trkpt lat="-27.2744391" lon="151.2900641">
  <ele>343.08</ele>
  <time>2026-09-01T19:51:50Z</time>
  <course>10.69</course>
  <speed>0.01414213562373095</speed>
  <fix>3d</fix>
</trkpt>
<trkpt lat="-27.274439" lon="151.290064">
  <ele>343.1</ele>
  <time>2026-09-01T19:51:50Z</time>
  <course>270.0</course>
  <speed>0.0</speed>
  <fix>3d</fix>
</trkpt>
<trkpt lat="-27.2744391" lon="151.2900641">
  <ele>343.08</ele>
  <time>2026-09-01T19:51:50Z</time>
  <course>10.69</course>
  <speed>0.01414213562373095</speed>
  <fix>3d</fix>
</trkpt>
<trkpt lat="-27.274439" lon="151.290064">
  <ele>343.1</ele>
  <time>2026-09-01T19:51:50Z</time>
  <course>270.0</course>
  <speed>0.0</speed>
  <fix>3d</fix>
</trkpt>
<trkpt lat="-27.2744391" lon="151.2900641">
  <ele>343.08</ele>
  <time>2026-09-01T19:51:50Z</time>
  <course>10.69</course>
  <speed>0.01414213562373095</speed>
  <fix>3d</fix>
</trkpt>
<trkpt lat="-27.274439" lon="151.290064">
  <ele>343.1</ele>
  <time>2026-09-01T19:51:50Z</time>
  <course>270.0</course>
  <speed>0.0</speed>
  <fix>3d</fix>
</trkpt>
<trkpt lat="-27.2744391" lon="151.2900641">
  <ele>343.08</ele>
  <time>2026-09-01T19:51:50Z</time>
  <course>10.69</course>
  <speed>0.01414213562373095</speed>
  <fix>3d</fix>
</trkpt>
<trkpt lat="-27.274439" lon="151.290064">
  <ele>343.1</ele>
  <time>2026-09-01T19:51:50Z</time>
  <course>270.0</course>
  <speed>0.0</speed>
  <fix>3d</fix>
</trkpt>
<trkpt lat="-27.2744391" lon="151.2900641">
  <ele>343.08</ele>
  <time>2026-09-01T19:51:50Z</time>
  <course>10.69</course>
  <speed>0.01414213562373095</speed>
  <fix>3d</fix>
</trkpt>
<trkpt lat="-27.274439" lon="151.290064">
  <ele>343.1</ele>
  <time>2026-09-01T19:51:50Z</time>
  <course>270.0</course>
  <speed>0.0</speed>
  <fix>3d</fix>
</trkpt>
<trkpt lat="-27.2744391" lon="151.2900641">
  <ele>343.08</ele>
  <time>2026-09-01T19:51:50Z</time>
  <course>10.69</course>
  <speed>0.01414213562373095</speed>
  <fix>3d</fix>
</trkpt>
<trkpt lat="-27.274439" lon="151.290064">
  <ele>343.1</ele>
  <time>2026-09-01T19:51:50Z</time>
  <course>270.0</course>
  <speed>0.0</speed>
  <fix>3d</fix>
</trkpt>
<trkpt lat="-27.2744391" lon="151.2900641">
  <ele>343.08</ele>
  <time>2026-09-01T19:51:50Z</time>
  <course>10.69</course>
  <speed>0.01414213562373095</speed>
  <fix>3d</fix>
</trkpt>
<trkpt lat="-27.274439" lon="151.290064">
  <ele>343.1</ele>
  <time>2026-09-01T19:51:50Z</time>
  <course>270.0</course>
  <speed>0.0</speed>
  <fix>3d</fix>
</trkpt>
<trkpt lat="-27.2744391" lon="151.2900641">
  <ele>343.08</ele>
  <time>2026-09-01T19:51:50Z</time>
  <course>10.69</course>
  <speed>0.01414213562373095</speed>
  <fix>3d</fix>
</trkpt>
<trkpt lat="-27.274439" lon="151.290064">
  <ele>343.1</ele>
  <time>2026-09-01T19:51:50Z</time>
  <course>270.0</course>
  <speed>0.0</speed>
  <fix>3d</fix>
</trkpt>
<trkpt lat="-27.2744391" lon="151.2900641">
  <ele>343.08</ele>
  <time>2026-09-01T19:51:50Z</time>
  <course>10.69</course>
  <speed>0.01414213562373095</speed>
  <fix>3d</fix>
</trkpt>
<trkpt lat="-27.274439" lon="151.290064">
  <ele>343.1</ele>
  <time>2026-09-01T19:51:50Z</time>
  <course>270.0</course>
  <speed>0.0</speed>
  <fix>3d</fix>
</trkpt>
<trkpt lat="-27.2744391" lon="151.2900641">
  <ele>343.08</ele>
  <time>2026-09-01T19:51:50Z</time>
  <course>10.69</course>
  <speed>0.01414213562373095</speed>
  <fix>3d</fix>
</trkpt>
<trkpt lat="-27.274439" lon="151.290064">
  <ele>343.1</ele>
  <time>2026-09-01T19:51:50Z</time>
  <course>270.0</course>
  <speed>0.0</speed>
  <fix>3d</fix>
</trkpt>
<trkpt lat="-27.2744391" lon="151.2900641">
  <ele>343.08</ele>
  <time>2026-09-01T19:51:50Z</time>
  <course>10.69</course>
  <speed>0.01414213562373095</speed>
  <fix>3d</fix>
</trkpt>
<trkpt lat="-27.274439" lon="151.290064">
  <ele>343.1</ele>
  <time>2026-09-01T19:51:50Z</time>
  <course>270.0</course>
  <speed>0.0</speed>
  <fix>3d</fix>
</trkpt>
<trkpt lat="-27.2744391" lon="151.2900641">
  <ele>343.08</ele>
  <time>2026-09-01T19:51:50Z</time>
  <course>10.69</course>
  <speed>0.01414213562373095</speed>
  <fix>3d</fix>
</trkpt>
<trkpt lat="-27.274439" lon="151.290064">
  <ele>343.1</ele>
  <time>2026-09-01T19:51:50Z</time>
  <course>270.0</course>
  <speed>0.0</speed>
  <fix>3d</fix>
</trkpt>
<trkpt lat="-27.2744391" lon="151.2900641">
  <ele>343.08</ele>
  <time>2026-09-01T19:51:50Z</time>
  <course>10.69</course>
  <speed>0.01414213562373095</speed>
  <fix>3d</fix>
</trkpt>
<trkpt lat="-27.274439" lon="151.290064">
  <ele>343.1</ele>
  <time>2026-09-01T19:51:50Z</time>
  <course>270.0</course>
  <speed>0.0</speed>
  <fix>3d</fix>
</trkpt>
<trkpt lat="-27.2744391" lon="151.2900641">
  <ele>343.09</ele>
  <time>2026-09-01T19:51:50Z</time>
  <course>10.69</course>
  <speed>0.01414213562373095</speed>
  <fix>3d</fix>
</trkpt>
<trkpt lat="-27.274439" lon="151.290064">
  <ele>343.1</ele>
  <time>2026-09-01T19:51:50Z</time>
  <course>270.0</course>
  <speed>0.0</speed>
  <fix>3d</fix>
</trkpt>
<trkpt lat="-27.2744391" lon="151.2900641">
  <ele>343.09</ele>
  <time>2026-09-01T19:51:50Z</time>
  <course>10.69</course>
  <speed>0.01414213562373095</speed>
  <fix>3d</fix>
</trkpt>
<trkpt lat="-27.274439" lon="151.290064">
  <ele>343.1</ele>
  <time>2026-09-01T19:51:50Z</time>
  <course>270.0</course>
  <speed>0.0</speed>
  <fix>3d</fix>
</trkpt>
<trkpt lat="-27.2744391" lon="151.2900641">
  <ele>343.09</ele>
  <time>2026-09-01T19:51:50Z</time>
  <course>10.69</course>
  <speed>0.01414213562373095</speed>
  <fix>3d</fix>
</trkpt>
<trkpt lat="-27.274439" lon="151.290064">
  <ele>343.1</ele>
  <time>2026-09-01T19:51:50Z</time>
  <course>270.0</course>
  <speed>0.0</speed>
  <fix>3d</fix>
</trkpt>
<trkpt lat="-27.2744391" lon="151.2900641">
  <ele>343.09</ele>
  <time>2026-09-01T19:51:50Z</time>
  <course>10.69</course>
  <speed>0.01414213562373095</speed>
  <fix>3d</fix>
</trkpt>
<trkpt lat="-27.274439" lon="151.290064">
  <ele>343.1</ele>
  <time>2026-09-01T19:51:50Z</time>
  <course>270.0</course>
  <speed>0.0</speed>
  <fix>3d</fix>
</trkpt>
<trkpt lat="-27.2744391" lon="151.2900641">
  <ele>343.08</ele>
  <time>2026-09-01T19:51:50Z</time>
  <course>10.69</course>
  <speed>0.01414213562373095</speed>
  <fix>3d</fix>
</trkpt>
<trkpt lat="-27.274439" lon="151.290064">
  <ele>343.1</ele>
  <time>2026-09-01T19:51:50Z</time>
  <course>270.0</course>
  <speed>0.0</speed>
  <fix>3d</fix>
</trkpt>
<trkpt lat="-27.2744391" lon="151.2900641">
  <ele>343.08</ele>
  <time>2026-09-01T19:51:50Z</time>
  <course>10.69</course>
  <speed>0.01414213562373095</speed>
  <fix>3d</fix>
</trkpt>
<trkpt lat="-27.274439" lon="151.290064">
  <ele>343.1</ele>
  <time>2026-09-01T19:51:50Z</time>
  <course>270.0</course>
  <speed>0.0</speed>
  <fix>3d</fix>
</trkpt>
<trkpt lat="-27.2744391" lon="151.2900641">
  <ele>343.08</ele>
  <time>2026-09-01T19:51:50Z</time>
  <course>10.69</course>
  <speed>0.01414213562373095</speed>
  <fix>3d</fix>
</trkpt>
<trkpt lat="-27.274439" lon="151.290064">
  <ele>343.1</ele>
  <time>2026-09-01T19:51:50Z</time>
  <course>270.0</course>
  <speed>0.0</speed>
  <fix>3d</fix>
</trkpt>
<trkpt lat="-27.2744391" lon="151.2900641">
  <ele>343.08</ele>
  <time>2026-09-01T19:51:50Z</time>
  <course>10.69</course>
  <speed>0.01414213562373095</speed>
  <fix>3d</fix>
</trkpt>
<trkpt lat="-27.274439" lon="151.290064">
  <ele>343.1</ele>
  <time>2026-09-01T19:51:50Z</time>
  <course>270.0</course>
  <speed>0.0</speed>
  <fix>3d</fix>
</trkpt>
<trkpt lat="-27.2744391" lon="151.2900641">
  <ele>343.08</ele>
  <time>2026-09-01T19:51:50Z</time>
  <course>10.69</course>
  <speed>0.01414213562373095</speed>
  <fix>3d</fix>
</trkpt>
<trkpt lat="-27.274439" lon="151.290064">
  <ele>343.1</ele>
  <time>2026-09-01T19:51:50Z</time>
  <course>270.0</course>
  <speed>0.0</speed>
  <fix>3d</fix>
</trkpt>
<trkpt lat="-27.2744391" lon="151.2900641">
  <ele>343.08</ele>
  <time>2026-09-01T19:51:50Z</time>
  <course>10.69</course>
  <speed>0.01414213562373095</speed>
  <fix>3d</fix>
</trkpt>
<trkpt lat="-27.274439" lon="151.290064">
  <ele>343.1</ele>
  <time>2026-09-01T19:51:50Z</time>
  <course>270.0</course>
  <speed>0.0</speed>
  <fix>3d</fix>
</trkpt>
<trkpt lat="-27.2744391" lon="151.2900641">
  <ele>343.08</ele>
  <time>2026-09-01T19:51:50Z</time>
  <course>10.69</course>
  <speed>0.01414213562373095</speed>
  <fix>3d</fix>
</trkpt>
<trkpt lat="-27.274439" lon="151.290064">
  <ele>343.1</ele>
  <time>2026-09-01T19:51:50Z</time>
  <course>270.0</course>
  <speed>0.0</speed>
  <fix>3d</fix>
</trkpt>
<trkpt lat="-27.2744391" lon="151.2900641">
  <ele>343.08</ele>
  <time>2026-09-01T19:51:50Z</time>
  <course>10.69</course>
  <speed>0.01414213562373095</speed>
  <fix>3d</fix>
</trkpt>
<trkpt lat="-27.274439" lon="151.290064">
  <ele>343.1</ele>
  <time>2026-09-01T19:51:50Z</time>
  <course>270.0</course>
  <speed>0.0</speed>
  <fix>3d</fix>
</trkpt>
<trkpt lat="-27.2744391" lon="151.2900641">
  <ele>343.07</ele>
  <time>2026-09-01T19:51:50Z</time>
  <course>10.69</course>
  <speed>0.01414213562373095</speed>
  <fix>3d</fix>
</trkpt>
<trkpt lat="-27.274439" lon="151.290064">
  <ele>343.1</ele>
  <time>2026-09-01T19:51:50Z</time>
  <course>270.0</course>
  <speed>0.0</speed>
  <fix>3d</fix>
</trkpt>
<trkpt lat="-27.2744391" lon="151.2900641">
  <ele>343.07</ele>
  <time>2026-09-01T19:51:50Z</time>
  <course>10.69</course>
  <speed>0.01414213562373095</speed>
  <fix>3d</fix>
</trkpt>
<trkpt lat="-27.274439" lon="151.290064">
  <ele>343.1</ele>
  <time>2026-09-01T19:51:50Z</time>
  <course>270.0</course>
  <speed>0.0</speed>
  <fix>3d</fix>
</trkpt>
<trkpt lat="-27.2744391" lon="151.2900641">
  <ele>343.07</ele>
  <time>2026-09-01T19:51:50Z</time>
  <course>10.69</course>
  <speed>0.01414213562373095</speed>
  <fix>3d</fix>
</trkpt>
<trkpt lat="-27.274439" lon="151.290064">
  <ele>343.1</ele>
  <time>2026-09-01T19:51:50Z</time>
  <course>270.0</course>
  <speed>0.0</speed>
  <fix>3d</fix>
</trkpt>
<trkpt lat="-27.2744391" lon="151.2900641">
  <ele>343.07</ele>
  <time>2026-09-01T19:51:50Z</time>
  <course>10.69</course>
  <speed>0.01414213562373095</speed>
  <fix>3d</fix>
</trkpt>
<trkpt lat="-27.274439" lon="151.290064">
  <ele>343.1</ele>
  <time>2026-09-01T19:51:50Z</time>
  <course>270.0</course>
  <speed>0.0</speed>
  <fix>3d</fix>
</trkpt>
<trkpt lat="-27.2744391" lon="151.2900641">
  <ele>343.06</ele>
  <time>2026-09-01T19:51:50Z</time>
  <course>10.69</course>
  <speed>0.01414213562373095</speed>
  <fix>3d</fix>
</trkpt>
<trkpt lat="-27.274439" lon="151.290064">
  <ele>343.1</ele>
  <time>2026-09-01T19:51:50Z</time>
  <course>270.0</course>
  <speed>0.0</speed>
  <fix>3d</fix>
</trkpt>
<trkpt lat="-27.2744391" lon="151.2900641">
  <ele>343.06</ele>
  <time>2026-09-01T19:51:50Z</time>
  <course>10.69</course>
  <speed>0.01414213562373095</speed>
  <fix>3d</fix>
</trkpt>
<trkpt lat="-27.274439" lon="151.290064">
  <ele>343.1</ele>
  <time>2026-09-01T19:51:50Z</time>
  <course>270.0</course>
  <speed>0.0</speed>
  <fix>3d</fix>
</trkpt>
<trkpt lat="-27.2744391" lon="151.2900641">
  <ele>343.06</ele>
  <time>2026-09-01T19:51:50Z</time>
  <course>10.69</course>
  <speed>0.01414213562373095</speed>
  <fix>3d</fix>
</trkpt>
<trkpt lat="-27.274439" lon="151.290064">
  <ele>343.1</ele>
  <time>2026-09-01T19:51:50Z</time>
  <course>270.0</course>
  <speed>0.0</speed>
  <fix>3d</fix>
</trkpt>
<trkpt lat="-27.2744391" lon="151.2900641">
  <ele>343.06</ele>
  <time>2026-09-01T19:51:50Z</time>
  <course>10.69</course>
  <speed>0.01414213562373095</speed>
  <fix>3d</fix>
</trkpt>
<trkpt lat="-27.274439" lon="151.290064">
  <ele>343.1</ele>
  <time>2026-09-01T19:51:50Z</time>
  <course>270.0</course>
  <speed>0.0</speed>
  <fix>3d</fix>
</trkpt>
<trkpt lat="-27.2744391" lon="151.2900641">
  <ele>343.06</ele>
  <time>2026-09-01T19:51:50Z</time>
  <course>10.7</course>
  <speed>0.01414213562373095</speed>
  <fix>3d</fix>
</trkpt>
<trkpt lat="-27.274439" lon="151.290064">
  <ele>343.1</ele>
  <time>2026-09-01T19:51:50Z</time>
  <course>270.0</course>
  <speed>0.0</speed>
  <fix>3d</fix>
</trkpt>
<trkpt lat="-27.2744391" lon="151.2900641">
  <ele>343.06</ele>
  <time>2026-09-01T19:51:50Z</time>
  <course>10.7</course>
  <speed>0.01414213562373095</speed>
  <fix>3d</fix>
</trkpt>
<trkpt lat="-27.274439" lon="151.290064">
  <ele>343.1</ele>
  <time>2026-09-01T19:51:50Z</time>
  <course>270.0</course>
  <speed>0.0</speed>
  <fix>3d</fix>
</trkpt>
<trkpt lat="-27.2744391" lon="151.2900641">
  <ele>343.07</ele>
  <time>2026-09-01T19:51:50Z</time>
  <course>10.7</course>
  <speed>0.01414213562373095</speed>
  <fix>3d</fix>
</trkpt>
<trkpt lat="-27.274439" lon="151.290064">
  <ele>343.1</ele>
  <time>2026-09-01T19:51:50Z</time>
  <course>270.0</course>
  <speed>0.0</speed>
  <fix>3d</fix>
</trkpt>
<trkpt lat="-27.2744391" lon="151.2900641">
  <ele>343.07</ele>
  <time>2026-09-01T19:51:50Z</time>
  <course>10.7</course>
  <speed>0.01414213562373095</speed>
  <fix>3d</fix>
</trkpt>
<trkpt lat="-27.274439" lon="151.290064">
  <ele>343.1</ele>
  <time>2026-09-01T19:51:50Z</time>
  <course>270.0</course>
  <speed>0.0</speed>
  <fix>3d</fix>
</trkpt>
<trkpt lat="-27.2744391" lon="151.2900641">
  <ele>343.07</ele>
  <time>2026-09-01T19:51:50Z</time>
  <course>10.7</course>
  <speed>0.01414213562373095</speed>
  <fix>3d</fix>
</trkpt>
<trkpt lat="-27.274439" lon="151.290064">
  <ele>343.1</ele>
  <time>2026-09-01T19:51:50Z</time>
  <course>270.0</course>
  <speed>0.0</speed>
  <fix>3d</fix>
</trkpt>
<trkpt lat="-27.2744391" lon="151.2900641">
  <ele>343.07</ele>
  <time>2026-09-01T19:51:50Z</time>
  <course>10.7</course>
  <speed>0.01414213562373095</speed>
  <fix>3d</fix>
</trkpt>
<trkpt lat="-27.274439" lon="151.290064">
  <ele>343.1</ele>
  <time>2026-09-01T19:51:50Z</time>
  <course>270.0</course>
  <speed>0.0</speed>
  <fix>3d</fix>
</trkpt>
<trkpt lat="-27.2744391" lon="151.2900641">
  <ele>343.07</ele>
  <time>2026-09-01T19:51:50Z</time>
  <course>10.7</course>
  <speed>0.01414213562373095</speed>
  <fix>3d</fix>
</trkpt>
<trkpt lat="-27.274439" lon="151.290064">
  <ele>343.1</ele>
  <time>2026-09-01T19:51:50Z</time>
  <course>270.0</course>
  <speed>0.0</speed>
  <fix>3d</fix>
</trkpt>
<trkpt lat="-27.2744391" lon="151.2900641">
  <ele>343.07</ele>
  <time>2026-09-01T19:51:50Z</time>
  <course>10.7</course>
  <speed>0.01414213562373095</speed>
  <fix>3d</fix>
</trkpt>
<trkpt lat="-27.274439" lon="151.290064">
  <ele>343.1</ele>
  <time>2026-09-01T19:51:50Z</time>
  <course>270.0</course>
  <speed>0.0</speed>
  <fix>3d</fix>
</trkpt>
<trkpt lat="-27.2744391" lon="151.2900641">
  <ele>343.07</ele>
  <time>2026-09-01T19:51:50Z</time>
  <course>10.7</course>
  <speed>0.01414213562373095</speed>
  <fix>3d</fix>
</trkpt>
<trkpt lat="-27.274439" lon="151.290064">
  <ele>343.1</ele>
  <time>2026-09-01T19:51:50Z</time>
  <course>270.0</course>
  <speed>0.0</speed>
  <fix>3d</fix>
</trkpt>
<trkpt lat="-27.2744391" lon="151.2900641">
  <ele>343.08</ele>
  <time>2026-09-01T19:51:50Z</time>
  <course>10.7</course>
  <speed>0.01414213562373095</speed>
  <fix>3d</fix>
</trkpt>
<trkpt lat="-27.274439" lon="151.290064">
  <ele>343.1</ele>
  <time>2026-09-01T19:51:50Z</time>
  <course>270.0</course>
  <speed>0.0</speed>
  <fix>3d</fix>
</trkpt>
<trkpt lat="-27.2744391" lon="151.2900641">
  <ele>343.08</ele>
  <time>2026-09-01T19:51:50Z</time>
  <course>10.7</course>
  <speed>0.01414213562373095</speed>
  <fix>3d</fix>
</trkpt>
<trkpt lat="-27.274439" lon="151.290064">
  <ele>343.1</ele>
  <time>2026-09-01T19:51:50Z</time>
  <course>270.0</course>
  <speed>0.0</speed>
  <fix>3d</fix>
</trkpt>
<trkpt lat="-27.2744391" lon="151.2900641">
  <ele>343.08</ele>
  <time>2026-09-01T19:51:50Z</time>
  <course>10.7</course>
  <speed>0.01414213562373095</speed>
  <fix>3d</fix>
</trkpt>
<trkpt lat="-27.274439" lon="151.290064">
  <ele>343.1</ele>
  <time>2026-09-01T19:51:50Z</time>
  <course>270.0</course>
  <speed>0.0</speed>
  <fix>3d</fix>
</trkpt>
<trkpt lat="-27.2744391" lon="151.2900641">
  <ele>343.1</ele>
  <time>2026-09-01T19:51:50Z</time>
  <course>10.7</course>
  <speed>0.01414213562373095</speed>
  <fix>3d</fix>
</trkpt>
<trkpt lat="-27.274439" lon="151.290064">
  <ele>343.1</ele>
  <time>2026-09-01T19:51:50Z</time>
  <course>270.0</course>
  <speed>0.0</speed>
  <fix>3d</fix>
</trkpt>
<trkpt lat="-27.2744391" lon="151.2900641">
  <ele>343.09</ele>
  <time>2026-09-01T19:51:50Z</time>
  <course>10.7</course>
  <speed>0.01414213562373095</speed>
  <fix>3d</fix>
</trkpt>
<trkpt lat="-27.274439" lon="151.290064">
  <ele>343.1</ele>
  <time>2026-09-01T19:51:50Z</time>
  <course>270.0</course>
  <speed>0.0</speed>
  <fix>3d</fix>
</trkpt>
<trkpt lat="-27.2744391" lon="151.2900641">
  <ele>343.09</ele>
  <time>2026-09-01T19:51:50Z</time>
  <course>10.7</course>
  <speed>0.01414213562373095</speed>
  <fix>3d</fix>
</trkpt>
<trkpt lat="-27.274439" lon="151.290064">
  <ele>343.1</ele>
  <time>2026-09-01T19:51:50Z</time>
  <course>270.0</course>
  <speed>0.0</speed>
  <fix>3d</fix>
</trkpt>
<trkpt lat="-27.2744391" lon="151.2900641">
  <ele>343.09</ele>
  <time>2026-09-01T19:51:50Z</time>
  <course>10.7</course>
  <speed>0.01414213562373095</speed>
  <fix>3d</fix>
</trkpt>
<trkpt lat="-27.274439" lon="151.290064">
  <ele>343.1</ele>
  <time>2026-09-01T19:51:50Z</time>
  <course>270.0</course>
  <speed>0.0</speed>
  <fix>3d</fix>
</trkpt>
<trkpt lat="-27.2744391" lon="151.2900641">
  <ele>343.09</ele>
  <time>2026-09-01T19:51:50Z</time>
  <course>10.7</course>
  <speed>0.01414213562373095</speed>
  <fix>3d</fix>
</trkpt>
<trkpt lat="-27.274439" lon="151.290064">
  <ele>343.1</ele>
  <time>2026-09-01T19:51:50Z</time>
  <course>270.0</course>
  <speed>0.0</speed>
  <fix>3d</fix>
</trkpt>
<trkpt lat="-27.2744391" lon="151.2900641">
  <ele>343.09</ele>
  <time>2026-09-01T19:51:50Z</time>
  <course>10.7</course>
  <speed>0.01414213562373095</speed>
  <fix>3d</fix>
</trkpt>
<trkpt lat="-27.274439" lon="151.290064">
  <ele>343.1</ele>
  <time>2026-09-01T19:51:50Z</time>
  <course>270.0</course>
  <speed>0.0</speed>
  <fix>3d</fix>
</trkpt>
<trkpt lat="-27.2744391" lon="151.2900641">
  <ele>343.08</ele>
  <time>2026-09-01T19:51:50Z</time>
  <course>10.7</course>
  <speed>0.01414213562373095</speed>
  <fix>3d</fix>
</trkpt>
<trkpt lat="-27.274439" lon="151.290064">
  <ele>343.1</ele>
  <time>2026-09-01T19:51:50Z</time>
  <course>270.0</course>
  <speed>0.0</speed>
  <fix>3d</fix>
</trkpt>
<trkpt lat="-27.2744391" lon="151.2900641">
  <ele>343.08</ele>
  <time>2026-09-01T19:51:50Z</time>
  <course>10.7</course>
  <speed>0.01414213562373095</speed>
  <fix>3d</fix>
</trkpt>
<trkpt lat="-27.274439" lon="151.290064">
  <ele>343.1</ele>
  <time>2026-09-01T19:51:50Z</time>
  <course>270.0</course>
  <speed>0.0</speed>
  <fix>3d</fix>
</trkpt>
<trkpt lat="-27.2744391" lon="151.2900641">
  <ele>343.08</ele>
  <time>2026-09-01T19:51:50Z</time>
  <course>10.7</course>
  <speed>0.01414213562373095</speed>
  <fix>3d</fix>
</trkpt>
<trkpt lat="-27.274439" lon="151.290064">
  <ele>343.1</ele>
  <time>2026-09-01T19:51:50Z</time>
  <course>270.0</course>
  <speed>0.0</speed>
  <fix>3d</fix>
</trkpt>
<trkpt lat="-27.2744391" lon="151.2900641">
  <ele>343.08</ele>
  <time>2026-09-01T19:51:50Z</time>
  <course>10.7</course>
  <speed>0.01414213562373095</speed>
  <fix>3d</fix>
</trkpt>
<trkpt lat="-27.274439" lon="151.290064">
  <ele>343.1</ele>
  <time>2026-09-01T19:51:50Z</time>
  <course>270.0</course>
  <speed>0.0</speed>
  <fix>3d</fix>
</trkpt>
<trkpt lat="-27.2744391" lon="151.2900641">
  <ele>343.07</ele>
  <time>2026-09-01T19:51:50Z</time>
  <course>10.7</course>
  <speed>0.01414213562373095</speed>
  <fix>3d</fix>
</trkpt>
<trkpt lat="-27.274439" lon="151.290064">
  <ele>343.1</ele>
  <time>2026-09-01T19:51:50Z</time>
  <course>270.0</course>
  <speed>0.0</speed>
  <fix>3d</fix>
</trkpt>
<trkpt lat="-27.2744391" lon="151.2900641">
  <ele>343.07</ele>
  <time>2026-09-01T19:51:50Z</time>
  <course>10.7</course>
  <speed>0.01414213562373095</speed>
  <fix>3d</fix>
</trkpt>
<trkpt lat="-27.274439" lon="151.290064">
  <ele>343.1</ele>
  <time>2026-09-01T19:51:50Z</time>
  <course>270.0</course>
  <speed>0.0</speed>
  <fix>3d</fix>
</trkpt>
<trkpt lat="-27.2744391" lon="151.2900641">
  <ele>343.07</ele>
  <time>2026-09-01T19:51:50Z</time>
  <course>10.7</course>
  <speed>0.01414213562373095</speed>
  <fix>3d</fix>
</trkpt>
<trkpt lat="-27.274439" lon="151.290064">
  <ele>343.1</ele>
  <time>2026-09-01T19:51:50Z</time>
  <course>270.0</course>
  <speed>0.0</speed>
  <fix>3d</fix>
</trkpt>
<trkpt lat="-27.2744391" lon="151.2900641">
  <ele>343.07</ele>
  <time>2026-09-01T19:51:50Z</time>
  <course>10.7</course>
  <speed>0.01414213562373095</speed>
  <fix>3d</fix>
</trkpt>
<trkpt lat="-27.274439" lon="151.290064">
  <ele>343.1</ele>
  <time>2026-09-01T19:51:50Z</time>
  <course>270.0</course>
  <speed>0.0</speed>
  <fix>3d</fix>
</trkpt>
<trkpt lat="-27.2744391" lon="151.2900641">
  <ele>343.06</ele>
  <time>2026-09-01T19:51:50Z</time>
  <course>10.7</course>
  <speed>0.01414213562373095</speed>
  <fix>3d</fix>
</trkpt>
<trkpt lat="-27.274439" lon="151.290064">
  <ele>343.1</ele>
  <time>2026-09-01T19:51:50Z</time>
  <course>270.0</course>
  <speed>0.0</speed>
  <fix>3d</fix>
</trkpt>
<trkpt lat="-27.2744391" lon="151.2900641">
  <ele>343.06</ele>
  <time>2026-09-01T19:51:50Z</time>
  <course>10.7</course>
  <speed>0.01414213562373095</speed>
  <fix>3d</fix>
</trkpt>
<trkpt lat="-27.274439" lon="151.290064">
  <ele>343.1</ele>
  <time>2026-09-01T19:51:50Z</time>
  <course>270.0</course>
  <speed>0.0</speed>
  <fix>3d</fix>
</trkpt>
<trkpt lat="-27.2744391" lon="151.2900641">
  <ele>343.06</ele>
  <time>2026-09-01T19:51:50Z</time>
  <course>10.7</course>
  <speed>0.01414213562373095</speed>
  <fix>3d</fix>
</trkpt>
<trkpt lat="-27.274439" lon="151.290064">
  <ele>343.1</ele>
  <time>2026-09-01T19:51:50Z</time>
  <course>270.0</course>
  <speed>0.0</speed>
  <fix>3d</fix>
</trkpt>
<trkpt lat="-27.2744391" lon="151.2900641">
  <ele>343.06</ele>
  <time>2026-09-01T19:51:50Z</time>
  <course>10.7</course>
  <speed>0.01414213562373095</speed>
  <fix>3d</fix>
</trkpt>
<trkpt lat="-27.274439" lon="151.290064">
  <ele>343.1</ele>
  <time>2026-09-01T19:51:50Z</time>
  <course>270.0</course>
  <speed>0.0</speed>
  <fix>3d</fix>
</trkpt>
<trkpt lat="-27.2744391" lon="151.2900641">
  <ele>343.06</ele>
  <time>2026-09-01T19:51:50Z</time>
  <course>10.7</course>
  <speed>0.01414213562373095</speed>
  <fix>3d</fix>
</trkpt>
<trkpt lat="-27.274439" lon="151.290064">
  <ele>343.1</ele>
  <time>2026-09-01T19:51:50Z</time>
  <course>270.0</course>
  <speed>0.0</speed>
  <fix>3d</fix>
</trkpt>
<trkpt lat="-27.2744391" lon="151.2900641">
  <ele>343.06</ele>
  <time>2026-09-01T19:51:50Z</time>
  <course>10.7</course>
  <speed>0.01414213562373095</speed>
  <fix>3d</fix>
</trkpt>
<trkpt lat="-27.274439" lon="151.290064">
  <ele>343.1</ele>
  <time>2026-09-01T19:51:50Z</time>
  <course>270.0</course>
  <speed>0.0</speed>
  <fix>3d</fix>
</trkpt>
<trkpt lat="-27.2744391" lon="151.2900641">
  <ele>343.06</ele>
  <time>2026-09-01T19:51:50Z</time>
  <course>10.7</course>
  <speed>0.01414213562373095</speed>
  <fix>3d</fix>
</trkpt>
<trkpt lat="-27.274439" lon="151.290064">
  <ele>343.1</ele>
  <time>2026-09-01T19:51:50Z</time>
  <course>270.0</course>
  <speed>0.0</speed>
  <fix>3d</fix>
</trkpt>
<trkpt lat="-27.2744391" lon="151.2900641">
  <ele>343.05</ele>
  <time>2026-09-01T19:51:50Z</time>
  <course>10.7</course>
  <speed>0.01414213562373095</speed>
  <fix>3d</fix>
</trkpt>
<trkpt lat="-27.274439" lon="151.290064">
  <ele>343.1</ele>
  <time>2026-09-01T19:51:50Z</time>
  <course>270.0</course>
  <speed>0.0</speed>
  <fix>3d</fix>
</trkpt>
<trkpt lat="-27.2744391" lon="151.2900641">
  <ele>343.05</ele>
  <time>2026-09-01T19:51:50Z</time>
  <course>10.7</course>
  <speed>0.01414213562373095</speed>
  <fix>3d</fix>
</trkpt>
<trkpt lat="-27.274439" lon="151.290064">
  <ele>343.1</ele>
  <time>2026-09-01T19:51:50Z</time>
  <course>270.0</course>
  <speed>0.0</speed>
  <fix>3d</fix>
</trkpt>
<trkpt lat="-27.2744391" lon="151.2900641">
  <ele>343.05</ele>
  <time>2026-09-01T19:51:50Z</time>
  <course>10.7</course>
  <speed>0.01414213562373095</speed>
  <fix>3d</fix>
</trkpt>
<trkpt lat="-27.274439" lon="151.290064">
  <ele>343.1</ele>
  <time>2026-09-01T19:51:50Z</time>
  <course>270.0</course>
  <speed>0.0</speed>
  <fix>3d</fix>
</trkpt>
<trkpt lat="-27.2744391" lon="151.2900641">
  <ele>343.05</ele>
  <time>2026-09-01T19:51:50Z</time>
  <course>10.7</course>
  <speed>0.01414213562373095</speed>
  <fix>3d</fix>
</trkpt>
<trkpt lat="-27.274439" lon="151.290064">
  <ele>343.1</ele>
  <time>2026-09-01T19:51:50Z</time>
  <course>270.0</course>
  <speed>0.0</speed>
  <fix>3d</fix>
</trkpt>
<trkpt lat="-27.2744391" lon="151.2900641">
  <ele>343.05</ele>
  <time>2026-09-01T19:51:50Z</time>
  <course>10.7</course>
  <speed>0.01414213562373095</speed>
  <fix>3d</fix>
</trkpt>
<trkpt lat="-27.274439" lon="151.290064">
  <ele>343.1</ele>
  <time>2026-09-01T19:51:50Z</time>
  <course>270.0</course>
  <speed>0.0</speed>
  <fix>3d</fix>
</trkpt>
<trkpt lat="-27.2744391" lon="151.2900641">
  <ele>343.05</ele>
  <time>2026-09-01T19:51:50Z</time>
  <course>10.71</course>
  <speed>0.01414213562373095</speed>
  <fix>3d</fix>
</trkpt>
<trkpt lat="-27.274439" lon="151.290064">
  <ele>343.1</ele>
  <time>2026-09-01T19:51:50Z</time>
  <course>270.0</course>
  <speed>0.0</speed>
  <fix>3d</fix>
</trkpt>
<trkpt lat="-27.2744391" lon="151.2900641">
  <ele>343.05</ele>
  <time>2026-09-01T19:51:50Z</time>
  <course>10.71</course>
  <speed>0.01414213562373095</speed>
  <fix>3d</fix>
</trkpt>
<trkpt lat="-27.274439" lon="151.290064">
  <ele>343.1</ele>
  <time>2026-09-01T19:51:50Z</time>
  <course>270.0</course>
  <speed>0.0</speed>
  <fix>3d</fix>
</trkpt>
<trkpt lat="-27.2744391" lon="151.2900641">
  <ele>343.05</ele>
  <time>2026-09-01T19:51:50Z</time>
  <course>10.71</course>
  <speed>0.01414213562373095</speed>
  <fix>3d</fix>
</trkpt>
<trkpt lat="-27.274439" lon="151.290064">
  <ele>343.1</ele>
  <time>2026-09-01T19:51:50Z</time>
  <course>270.0</course>
  <speed>0.0</speed>
  <fix>3d</fix>
</trkpt>
<trkpt lat="-27.2744391" lon="151.2900641">
  <ele>343.04</ele>
  <time>2026-09-01T19:51:50Z</time>
  <course>10.71</course>
  <speed>0.01414213562373095</speed>
  <fix>3d</fix>
</trkpt>
<trkpt lat="-27.274439" lon="151.290064">
  <ele>343.1</ele>
  <time>2026-09-01T19:51:50Z</time>
  <course>270.0</course>
  <speed>0.0</speed>
  <fix>3d</fix>
</trkpt>
<trkpt lat="-27.2744391" lon="151.2900641">
  <ele>343.04</ele>
  <time>2026-09-01T19:51:50Z</time>
  <course>10.71</course>
  <speed>0.01414213562373095</speed>
  <fix>3d</fix>
</trkpt>
<trkpt lat="-27.274439" lon="151.290064">
  <ele>343.1</ele>
  <time>2026-09-01T19:51:50Z</time>
  <course>270.0</course>
  <speed>0.0</speed>
  <fix>3d</fix>
</trkpt>
<trkpt lat="-27.2744391" lon="151.2900641">
  <ele>343.04</ele>
  <time>2026-09-01T19:51:50Z</time>
  <course>10.71</course>
  <speed>0.01414213562373095</speed>
  <fix>3d</fix>
</trkpt>
<trkpt lat="-27.274439" lon="151.290064">
  <ele>343.1</ele>
  <time>2026-09-01T19:51:50Z</time>
  <course>270.0</course>
  <speed>0.0</speed>
  <fix>3d</fix>
</trkpt>
<trkpt lat="-27.2744391" lon="151.2900641">
  <ele>343.03</ele>
  <time>2026-09-01T19:51:50Z</time>
  <course>10.71</course>
  <speed>0.01414213562373095</speed>
  <fix>3d</fix>
</trkpt>
<trkpt lat="-27.274439" lon="151.290064">
  <ele>343.1</ele>
  <time>2026-09-01T19:51:50Z</time>
  <course>270.0</course>
  <speed>0.0</speed>
  <fix>3d</fix>
</trkpt>
<trkpt lat="-27.2744391" lon="151.2900641">
  <ele>343.03</ele>
  <time>2026-09-01T19:51:50Z</time>
  <course>10.71</course>
  <speed>0.01414213562373095</speed>
  <fix>3d</fix>
</trkpt>
<trkpt lat="-27.274439" lon="151.290064">
  <ele>343.1</ele>
  <time>2026-09-01T19:51:50Z</time>
  <course>270.0</course>
  <speed>0.0</speed>
  <fix>3d</fix>
</trkpt>
<trkpt lat="-27.2744391" lon="151.2900641">
  <ele>343.04</ele>
  <time>2026-09-01T19:51:50Z</time>
  <course>10.71</course>
  <speed>0.01414213562373095</speed>
  <fix>3d</fix>
</trkpt>
<trkpt lat="-27.274439" lon="151.290064">
  <ele>343.1</ele>
  <time>2026-09-01T19:51:50Z</time>
  <course>270.0</course>
  <speed>0.0</speed>
  <fix>3d</fix>
</trkpt>
<trkpt lat="-27.2744391" lon="151.2900641">
  <ele>343.04</ele>
  <time>2026-09-01T19:51:50Z</time>
  <course>10.71</course>
  <speed>0.01414213562373095</speed>
  <fix>3d</fix>
</trkpt>
<trkpt lat="-27.274439" lon="151.290064">
  <ele>343.1</ele>
  <time>2026-09-01T19:51:50Z</time>
  <course>270.0</course>
  <speed>0.0</speed>
  <fix>3d</fix>
</trkpt>
<trkpt lat="-27.2744391" lon="151.2900641">
  <ele>343.04</ele>
  <time>2026-09-01T19:51:50Z</time>
  <course>10.71</course>
  <speed>0.01414213562373095</speed>
  <fix>3d</fix>
</trkpt>
<trkpt lat="-27.274439" lon="151.290064">
  <ele>343.1</ele>
  <time>2026-09-01T19:51:50Z</time>
  <course>270.0</course>
  <speed>0.0</speed>
  <fix>3d</fix>
</trkpt>
<trkpt lat="-27.2744391" lon="151.2900641">
  <ele>343.04</ele>
  <time>2026-09-01T19:51:50Z</time>
  <course>10.71</course>
  <speed>0.01414213562373095</speed>
  <fix>3d</fix>
</trkpt>
<trkpt lat="-27.274439" lon="151.290064">
  <ele>343.1</ele>
  <time>2026-09-01T19:51:50Z</time>
  <course>270.0</course>
  <speed>0.0</speed>
  <fix>3d</fix>
</trkpt>
<trkpt lat="-27.2744391" lon="151.2900641">
  <ele>343.04</ele>
  <time>2026-09-01T19:51:50Z</time>
  <course>10.71</course>
  <speed>0.01414213562373095</speed>
  <fix>3d</fix>
</trkpt>
<trkpt lat="-27.274439" lon="151.290064">
  <ele>343.1</ele>
  <time>2026-09-01T19:51:50Z</time>
  <course>270.0</course>
  <speed>0.0</speed>
  <fix>3d</fix>
</trkpt>
<trkpt lat="-27.2744391" lon="151.2900641">
  <ele>343.04</ele>
  <time>2026-09-01T19:51:50Z</time>
  <course>10.71</course>
  <speed>0.01414213562373095</speed>
  <fix>3d</fix>
</trkpt>
<trkpt lat="-27.274439" lon="151.290064">
  <ele>343.1</ele>
  <time>2026-09-01T19:51:50Z</time>
  <course>270.0</course>
  <speed>0.0</speed>
  <fix>3d</fix>
</trkpt>
<trkpt lat="-27.2744391" lon="151.2900641">
  <ele>343.04</ele>
  <time>2026-09-01T19:51:51Z</time>
  <course>10.71</course>
  <speed>0.01414213562373095</speed>
  <fix>3d</fix>
</trkpt>
<trkpt lat="-27.274439" lon="151.290064">
  <ele>343.1</ele>
  <time>2026-09-01T19:51:51Z</time>
  <course>270.0</course>
  <speed>0.0</speed>
  <fix>3d</fix>
</trkpt>
<trkpt lat="-27.2744391" lon="151.2900641">
  <ele>343.04</ele>
  <time>2026-09-01T19:51:51Z</time>
  <course>10.71</course>
  <speed>0.01414213562373095</speed>
  <fix>3d</fix>
</trkpt>
<trkpt lat="-27.274439" lon="151.290064">
  <ele>343.1</ele>
  <time>2026-09-01T19:51:51Z</time>
  <course>270.0</course>
  <speed>0.0</speed>
  <fix>3d</fix>
</trkpt>
<trkpt lat="-27.2744391" lon="151.2900641">
  <ele>343.04</ele>
  <time>2026-09-01T19:51:51Z</time>
  <course>10.71</course>
  <speed>0.01414213562373095</speed>
  <fix>3d</fix>
</trkpt>
<trkpt lat="-27.274439" lon="151.290064">
  <ele>343.1</ele>
  <time>2026-09-01T19:51:51Z</time>
  <course>270.0</course>
  <speed>0.0</speed>
  <fix>3d</fix>
</trkpt>
<trkpt lat="-27.2744391" lon="151.2900641">
  <ele>343.04</ele>
  <time>2026-09-01T19:51:51Z</time>
  <course>10.71</course>
  <speed>0.01414213562373095</speed>
  <fix>3d</fix>
</trkpt>
<trkpt lat="-27.274439" lon="151.290064">
  <ele>343.1</ele>
  <time>2026-09-01T19:51:51Z</time>
  <course>270.0</course>
  <speed>0.0</speed>
  <fix>3d</fix>
</trkpt>
<trkpt lat="-27.2744391" lon="151.2900641">
  <ele>343.04</ele>
  <time>2026-09-01T19:51:51Z</time>
  <course>10.71</course>
  <speed>0.01414213562373095</speed>
  <fix>3d</fix>
</trkpt>
<trkpt lat="-27.274439" lon="151.290064">
  <ele>343.1</ele>
  <time>2026-09-01T19:51:51Z</time>
  <course>270.0</course>
  <speed>0.0</speed>
  <fix>3d</fix>
</trkpt>
<trkpt lat="-27.2744391" lon="151.2900641">
  <ele>343.04</ele>
  <time>2026-09-01T19:51:51Z</time>
  <course>10.71</course>
  <speed>0.01414213562373095</speed>
  <fix>3d</fix>
</trkpt>
<trkpt lat="-27.274439" lon="151.290064">
  <ele>343.1</ele>
  <time>2026-09-01T19:51:51Z</time>
  <course>270.0</course>
  <speed>0.0</speed>
  <fix>3d</fix>
</trkpt>
<trkpt lat="-27.2744391" lon="151.2900641">
  <ele>343.03</ele>
  <time>2026-09-01T19:51:51Z</time>
  <course>10.71</course>
  <speed>0.01414213562373095</speed>
  <fix>3d</fix>
</trkpt>
<trkpt lat="-27.274439" lon="151.290064">
  <ele>343.1</ele>
  <time>2026-09-01T19:51:51Z</time>
  <course>270.0</course>
  <speed>0.0</speed>
  <fix>3d</fix>
</trkpt>
<trkpt lat="-27.2744391" lon="151.2900641">
  <ele>343.03</ele>
  <time>2026-09-01T19:51:51Z</time>
  <course>10.71</course>
  <speed>0.01414213562373095</speed>
  <fix>3d</fix>
</trkpt>
<trkpt lat="-27.274439" lon="151.290064">
  <ele>343.1</ele>
  <time>2026-09-01T19:51:51Z</time>
  <course>270.0</course>
  <speed>0.0</speed>
  <fix>3d</fix>
</trkpt>
<trkpt lat="-27.2744391" lon="151.2900641">
  <ele>343.03</ele>
  <time>2026-09-01T19:51:51Z</time>
  <course>10.71</course>
  <speed>0.01414213562373095</speed>
  <fix>3d</fix>
</trkpt>
<trkpt lat="-27.274439" lon="151.290064">
  <ele>343.1</ele>
  <time>2026-09-01T19:51:51Z</time>
  <course>270.0</course>
  <speed>0.0</speed>
  <fix>3d</fix>
</trkpt>
<trkpt lat="-27.2744391" lon="151.2900641">
  <ele>343.03</ele>
  <time>2026-09-01T19:51:51Z</time>
  <course>10.71</course>
  <speed>0.01414213562373095</speed>
  <fix>3d</fix>
</trkpt>
<trkpt lat="-27.274439" lon="151.290064">
  <ele>343.1</ele>
  <time>2026-09-01T19:51:51Z</time>
  <course>270.0</course>
  <speed>0.0</speed>
  <fix>3d</fix>
</trkpt>
<trkpt lat="-27.2744391" lon="151.2900641">
  <ele>343.03</ele>
  <time>2026-09-01T19:51:51Z</time>
  <course>10.71</course>
  <speed>0.01414213562373095</speed>
  <fix>3d</fix>
</trkpt>
<trkpt lat="-27.274439" lon="151.290064">
  <ele>343.1</ele>
  <time>2026-09-01T19:51:51Z</time>
  <course>270.0</course>
  <speed>0.0</speed>
  <fix>3d</fix>
</trkpt>
<trkpt lat="-27.2744391" lon="151.2900641">
  <ele>343.02</ele>
  <time>2026-09-01T19:51:51Z</time>
  <course>10.71</course>
  <speed>0.01414213562373095</speed>
  <fix>3d</fix>
</trkpt>
<trkpt lat="-27.274439" lon="151.290064">
  <ele>343.1</ele>
  <time>2026-09-01T19:51:51Z</time>
  <course>270.0</course>
  <speed>0.0</speed>
  <fix>3d</fix>
</trkpt>
<trkpt lat="-27.2744391" lon="151.2900641">
  <ele>343.02</ele>
  <time>2026-09-01T19:51:51Z</time>
  <course>10.71</course>
  <speed>0.01414213562373095</speed>
  <fix>3d</fix>
</trkpt>
<trkpt lat="-27.274439" lon="151.290064">
  <ele>343.1</ele>
  <time>2026-09-01T19:51:51Z</time>
  <course>270.0</course>
  <speed>0.0</speed>
  <fix>3d</fix>
</trkpt>
<trkpt lat="-27.2744391" lon="151.2900641">
  <ele>343.02</ele>
  <time>2026-09-01T19:51:51Z</time>
  <course>10.71</course>
  <speed>0.01414213562373095</speed>
  <fix>3d</fix>
</trkpt>
<trkpt lat="-27.274439" lon="151.290064">
  <ele>343.1</ele>
  <time>2026-09-01T19:51:51Z</time>
  <course>270.0</course>
  <speed>0.0</speed>
  <fix>3d</fix>
</trkpt>
<trkpt lat="-27.2744391" lon="151.2900641">
  <ele>343.02</ele>
  <time>2026-09-01T19:51:51Z</time>
  <course>10.71</course>
  <speed>0.01414213562373095</speed>
  <fix>3d</fix>
</trkpt>
<trkpt lat="-27.274439" lon="151.290064">
  <ele>343.1</ele>
  <time>2026-09-01T19:51:51Z</time>
  <course>270.0</course>
  <speed>0.0</speed>
  <fix>3d</fix>
</trkpt>
<trkpt lat="-27.2744391" lon="151.2900641">
  <ele>343.02</ele>
  <time>2026-09-01T19:51:51Z</time>
  <course>10.71</course>
  <speed>0.01414213562373095</speed>
  <fix>3d</fix>
</trkpt>
<trkpt lat="-27.274439" lon="151.290064">
  <ele>343.1</ele>
  <time>2026-09-01T19:51:51Z</time>
  <course>270.0</course>
  <speed>0.0</speed>
  <fix>3d</fix>
</trkpt>
<trkpt lat="-27.2744391" lon="151.2900641">
  <ele>343.02</ele>
  <time>2026-09-01T19:51:51Z</time>
  <course>10.71</course>
  <speed>0.01414213562373095</speed>
  <fix>3d</fix>
</trkpt>
<trkpt lat="-27.274439" lon="151.290064">
  <ele>343.1</ele>
  <time>2026-09-01T19:51:51Z</time>
  <course>270.0</course>
  <speed>0.0</speed>
  <fix>3d</fix>
</trkpt>
<trkpt lat="-27.2744391" lon="151.2900641">
  <ele>343.02</ele>
  <time>2026-09-01T19:51:51Z</time>
  <course>10.71</course>
  <speed>0.01414213562373095</speed>
  <fix>3d</fix>
</trkpt>
<trkpt lat="-27.274439" lon="151.290064">
  <ele>343.1</ele>
  <time>2026-09-01T19:51:51Z</time>
  <course>270.0</course>
  <speed>0.0</speed>
  <fix>3d</fix>
</trkpt>
<trkpt lat="-27.2744391" lon="151.2900641">
  <ele>343.02</ele>
  <time>2026-09-01T19:51:51Z</time>
  <course>10.71</course>
  <speed>0.01414213562373095</speed>
  <fix>3d</fix>
</trkpt>
<trkpt lat="-27.274439" lon="151.290064">
  <ele>343.1</ele>
  <time>2026-09-01T19:51:51Z</time>
  <course>270.0</course>
  <speed>0.0</speed>
  <fix>3d</fix>
</trkpt>
<trkpt lat="-27.2744391" lon="151.2900641">
  <ele>343.02</ele>
  <time>2026-09-01T19:51:51Z</time>
  <course>10.72</course>
  <speed>0.022360679774997897</speed>
  <fix>3d</fix>
</trkpt>
<trkpt lat="-27.274439" lon="151.290064">
  <ele>343.1</ele>
  <time>2026-09-01T19:51:51Z</time>
  <course>270.0</course>
  <speed>0.0</speed>
  <fix>3d</fix>
</trkpt>
<trkpt lat="-27.2744391" lon="151.2900641">
  <ele>343.1</ele>
  <time>2026-09-01T19:51:51Z</time>
  <course>10.72</course>
  <speed>0.01414213562373095</speed>
  <fix>3d</fix>
</trkpt>
<trkpt lat="-27.274439" lon="151.290064">
  <ele>343.1</ele>
  <time>2026-09-01T19:51:51Z</time>
  <course>270.0</course>
  <speed>0.0</speed>
  <fix>3d</fix>
</trkpt>
<trkpt lat="-27.2744391" lon="151.2900641">
  <ele>343.09</ele>
  <time>2026-09-01T19:51:51Z</time>
  <course>10.72</course>
  <speed>0.022360679774997897</speed>
  <fix>3d</fix>
</trkpt>
<trkpt lat="-27.274439" lon="151.290064">
  <ele>343.1</ele>
  <time>2026-09-01T19:51:51Z</time>
  <course>270.0</course>
  <speed>0.0</speed>
  <fix>3d</fix>
</trkpt>
<trkpt lat="-27.2744391" lon="151.2900641">
  <ele>343.09</ele>
  <time>2026-09-01T19:51:51Z</time>
  <course>10.72</course>
  <speed>0.01414213562373095</speed>
  <fix>3d</fix>
</trkpt>
<trkpt lat="-27.274439" lon="151.290064">
  <ele>343.1</ele>
  <time>2026-09-01T19:51:51Z</time>
  <course>270.0</course>
  <speed>0.0</speed>
  <fix>3d</fix>
</trkpt>
<trkpt lat="-27.2744391" lon="151.2900641">
  <ele>343.09</ele>
  <time>2026-09-01T19:51:51Z</time>
  <course>10.72</course>
  <speed>0.022360679774997897</speed>
  <fix>3d</fix>
</trkpt>
<trkpt lat="-27.274439" lon="151.290064">
  <ele>343.1</ele>
  <time>2026-09-01T19:51:51Z</time>
  <course>270.0</course>
  <speed>0.0</speed>
  <fix>3d</fix>
</trkpt>
<trkpt lat="-27.2744391" lon="151.2900641">
  <ele>343.09</ele>
  <time>2026-09-01T19:51:51Z</time>
  <course>10.72</course>
  <speed>0.01414213562373095</speed>
  <fix>3d</fix>
</trkpt>
<trkpt lat="-27.274439" lon="151.290064">
  <ele>343.1</ele>
  <time>2026-09-01T19:51:51Z</time>
  <course>270.0</course>
  <speed>0.0</speed>
  <fix>3d</fix>
</trkpt>
<trkpt lat="-27.2744391" lon="151.2900641">
  <ele>343.09</ele>
  <time>2026-09-01T19:51:51Z</time>
  <course>10.72</course>
  <speed>0.022360679774997897</speed>
  <fix>3d</fix>
</trkpt>
<trkpt lat="-27.274439" lon="151.290064">
  <ele>343.1</ele>
  <time>2026-09-01T19:51:51Z</time>
  <course>270.0</course>
  <speed>0.0</speed>
  <fix>3d</fix>
</trkpt>
<trkpt lat="-27.2744391" lon="151.2900641">
  <ele>343.09</ele>
  <time>2026-09-01T19:51:51Z</time>
  <course>10.72</course>
  <speed>0.01414213562373095</speed>
  <fix>3d</fix>
</trkpt>
<trkpt lat="-27.274439" lon="151.290064">
  <ele>343.1</ele>
  <time>2026-09-01T19:51:51Z</time>
  <course>270.0</course>
  <speed>0.0</speed>
  <fix>3d</fix>
</trkpt>
<trkpt lat="-27.2744391" lon="151.2900641">
  <ele>343.1</ele>
  <time>2026-09-01T19:51:51Z</time>
  <course>10.72</course>
  <speed>0.022360679774997897</speed>
  <fix>3d</fix>
</trkpt>
<trkpt lat="-27.274439" lon="151.290064">
  <ele>343.1</ele>
  <time>2026-09-01T19:51:51Z</time>
  <course>270.0</course>
  <speed>0.0</speed>
  <fix>3d</fix>
</trkpt>
<trkpt lat="-27.2744391" lon="151.2900641">
  <ele>343.1</ele>
  <time>2026-09-01T19:51:51Z</time>
  <course>10.72</course>
  <speed>0.01414213562373095</speed>
  <fix>3d</fix>
</trkpt>
<trkpt lat="-27.274439" lon="151.290064">
  <ele>343.1</ele>
  <time>2026-09-01T19:51:51Z</time>
  <course>270.0</course>
  <speed>0.0</speed>
  <fix>3d</fix>
</trkpt>
<trkpt lat="-27.2744391" lon="151.2900641">
  <ele>343.1</ele>
  <time>2026-09-01T19:51:51Z</time>
  <course>10.72</course>
  <speed>0.022360679774997897</speed>
  <fix>3d</fix>
</trkpt>
<trkpt lat="-27.274439" lon="151.290064">
  <ele>343.1</ele>
  <time>2026-09-01T19:51:51Z</time>
  <course>270.0</course>
  <speed>0.0</speed>
  <fix>3d</fix>
</trkpt>
<trkpt lat="-27.2744391" lon="151.2900641">
  <ele>343.1</ele>
  <time>2026-09-01T19:51:51Z</time>
  <course>10.72</course>
  <speed>0.01414213562373095</speed>
  <fix>3d</fix>
</trkpt>
<trkpt lat="-27.274439" lon="151.290064">
  <ele>343.1</ele>
  <time>2026-09-01T19:51:51Z</time>
  <course>270.0</course>
  <speed>0.0</speed>
  <fix>3d</fix>
</trkpt>
<trkpt lat="-27.2744391" lon="151.2900641">
  <ele>343.11</ele>
  <time>2026-09-01T19:51:51Z</time>
  <course>10.72</course>
  <speed>0.022360679774997897</speed>
  <fix>3d</fix>
</trkpt>
<trkpt lat="-27.274439" lon="151.290064">
  <ele>343.1</ele>
  <time>2026-09-01T19:51:51Z</time>
  <course>270.0</course>
  <speed>0.0</speed>
  <fix>3d</fix>
</trkpt>
<trkpt lat="-27.2744391" lon="151.2900641">
  <ele>343.11</ele>
  <time>2026-09-01T19:51:51Z</time>
  <course>10.72</course>
  <speed>0.022360679774997897</speed>
  <fix>3d</fix>
</trkpt>
<trkpt lat="-27.274439" lon="151.290064">
  <ele>343.1</ele>
  <time>2026-09-01T19:51:51Z</time>
  <course>270.0</course>
  <speed>0.0</speed>
  <fix>3d</fix>
</trkpt>
<trkpt lat="-27.2744391" lon="151.2900641">
  <ele>343.12</ele>
  <time>2026-09-01T19:51:51Z</time>
  <course>10.72</course>
  <speed>0.022360679774997897</speed>
  <fix>3d</fix>
</trkpt>
<trkpt lat="-27.274439" lon="151.290064">
  <ele>343.1</ele>
  <time>2026-09-01T19:51:51Z</time>
  <course>270.0</course>
  <speed>0.0</speed>
  <fix>3d</fix>
</trkpt>
<trkpt lat="-27.2744391" lon="151.2900641">
  <ele>343.12</ele>
  <time>2026-09-01T19:51:51Z</time>
  <course>10.72</course>
  <speed>0.022360679774997897</speed>
  <fix>3d</fix>
</trkpt>
<trkpt lat="-27.274439" lon="151.290064">
  <ele>343.1</ele>
  <time>2026-09-01T19:51:51Z</time>
  <course>270.0</course>
  <speed>0.0</speed>
  <fix>3d</fix>
</trkpt>
<trkpt lat="-27.2744391" lon="151.2900641">
  <ele>343.12</ele>
  <time>2026-09-01T19:51:51Z</time>
  <course>10.72</course>
  <speed>0.022360679774997897</speed>
  <fix>3d</fix>
</trkpt>
<trkpt lat="-27.274439" lon="151.290064">
  <ele>343.1</ele>
  <time>2026-09-01T19:51:51Z</time>
  <course>270.0</course>
  <speed>0.0</speed>
  <fix>3d</fix>
</trkpt>
<trkpt lat="-27.2744391" lon="151.2900641">
  <ele>343.13</ele>
  <time>2026-09-01T19:51:51Z</time>
  <course>10.72</course>
  <speed>0.022360679774997897</speed>
  <fix>3d</fix>
</trkpt>
<trkpt lat="-27.274439" lon="151.290064">
  <ele>343.1</ele>
  <time>2026-09-01T19:51:51Z</time>
  <course>270.0</course>
  <speed>0.0</speed>
  <fix>3d</fix>
</trkpt>
<trkpt lat="-27.2744391" lon="151.2900641">
  <ele>343.14</ele>
  <time>2026-09-01T19:51:51Z</time>
  <course>10.72</course>
  <speed>0.022360679774997897</speed>
  <fix>3d</fix>
</trkpt>
<trkpt lat="-27.274439" lon="151.290064">
  <ele>343.1</ele>
  <time>2026-09-01T19:51:51Z</time>
  <course>270.0</course>
  <speed>0.0</speed>
  <fix>3d</fix>
</trkpt>
<trkpt lat="-27.2744391" lon="151.2900641">
  <ele>343.14</ele>
  <time>2026-09-01T19:51:51Z</time>
  <course>10.72</course>
  <speed>0.022360679774997897</speed>
  <fix>3d</fix>
</trkpt>
<trkpt lat="-27.274439" lon="151.290064">
  <ele>343.1</ele>
  <time>2026-09-01T19:51:51Z</time>
  <course>270.0</course>
  <speed>0.0</speed>
  <fix>3d</fix>
</trkpt>
<trkpt lat="-27.2744391" lon="151.2900641">
  <ele>343.15</ele>
  <time>2026-09-01T19:51:51Z</time>
  <course>10.72</course>
  <speed>0.022360679774997897</speed>
  <fix>3d</fix>
</trkpt>
<trkpt lat="-27.274439" lon="151.290064">
  <ele>343.1</ele>
  <time>2026-09-01T19:51:51Z</time>
  <course>270.0</course>
  <speed>0.0</speed>
  <fix>3d</fix>
</trkpt>
<trkpt lat="-27.2744391" lon="151.2900641">
  <ele>343.15</ele>
  <time>2026-09-01T19:51:51Z</time>
  <course>10.72</course>
  <speed>0.022360679774997897</speed>
  <fix>3d</fix>
</trkpt>
<trkpt lat="-27.274439" lon="151.290064">
  <ele>343.1</ele>
  <time>2026-09-01T19:51:51Z</time>
  <course>270.0</course>
  <speed>0.0</speed>
  <fix>3d</fix>
</trkpt>
<trkpt lat="-27.2744391" lon="151.2900641">
  <ele>343.16</ele>
  <time>2026-09-01T19:51:51Z</time>
  <course>10.72</course>
  <speed>0.022360679774997897</speed>
  <fix>3d</fix>
</trkpt>
<trkpt lat="-27.274439" lon="151.290064">
  <ele>343.1</ele>
  <time>2026-09-01T19:51:51Z</time>
  <course>270.0</course>
  <speed>0.0</speed>
  <fix>3d</fix>
</trkpt>
<trkpt lat="-27.2744391" lon="151.2900641">
  <ele>343.16</ele>
  <time>2026-09-01T19:51:51Z</time>
  <course>10.72</course>
  <speed>0.022360679774997897</speed>
  <fix>3d</fix>
</trkpt>
<trkpt lat="-27.274439" lon="151.290064">
  <ele>343.1</ele>
  <time>2026-09-01T19:51:51Z</time>
  <course>270.0</course>
  <speed>0.0</speed>
  <fix>3d</fix>
</trkpt>
<trkpt lat="-27.2744391" lon="151.2900641">
  <ele>343.17</ele>
  <time>2026-09-01T19:51:51Z</time>
  <course>10.72</course>
  <speed>0.022360679774997897</speed>
  <fix>3d</fix>
</trkpt>
<trkpt lat="-27.274439" lon="151.290064">
  <ele>343.1</ele>
  <time>2026-09-01T19:51:51Z</time>
  <course>270.0</course>
  <speed>0.0</speed>
  <fix>3d</fix>
</trkpt>
<trkpt lat="-27.2744391" lon="151.2900641">
  <ele>343.17</ele>
  <time>2026-09-01T19:51:51Z</time>
  <course>10.73</course>
  <speed>0.022360679774997897</speed>
  <fix>3d</fix>
</trkpt>
<trkpt lat="-27.274439" lon="151.290064">
  <ele>343.1</ele>
  <time>2026-09-01T19:51:51Z</time>
  <course>270.0</course>
  <speed>0.0</speed>
  <fix>3d</fix>
</trkpt>
<trkpt lat="-27.2744391" lon="151.2900641">
  <ele>343.18</ele>
  <time>2026-09-01T19:51:51Z</time>
  <course>10.73</course>
  <speed>0.022360679774997897</speed>
  <fix>3d</fix>
</trkpt>
<trkpt lat="-27.274439" lon="151.290064">
  <ele>343.1</ele>
  <time>2026-09-01T19:51:51Z</time>
  <course>270.0</course>
  <speed>0.0</speed>
  <fix>3d</fix>
</trkpt>
<trkpt lat="-27.2744391" lon="151.2900641">
  <ele>343.18</ele>
  <time>2026-09-01T19:51:51Z</time>
  <course>10.73</course>
  <speed>0.022360679774997897</speed>
  <fix>3d</fix>
</trkpt>
<trkpt lat="-27.274439" lon="151.290064">
  <ele>343.1</ele>
  <time>2026-09-01T19:51:51Z</time>
  <course>270.0</course>
  <speed>0.0</speed>
  <fix>3d</fix>
</trkpt>
<trkpt lat="-27.2744391" lon="151.2900641">
  <ele>343.18</ele>
  <time>2026-09-01T19:51:51Z</time>
  <course>10.73</course>
  <speed>0.022360679774997897</speed>
  <fix>3d</fix>
</trkpt>
<trkpt lat="-27.274439" lon="151.290064">
  <ele>343.1</ele>
  <time>2026-09-01T19:51:51Z</time>
  <course>270.0</course>
  <speed>0.0</speed>
  <fix>3d</fix>
</trkpt>
<trkpt lat="-27.2744391" lon="151.2900641">
  <ele>343.18</ele>
  <time>2026-09-01T19:51:51Z</time>
  <course>10.73</course>
  <speed>0.022360679774997897</speed>
  <fix>3d</fix>
</trkpt>
<trkpt lat="-27.274439" lon="151.290064">
  <ele>343.1</ele>
  <time>2026-09-01T19:51:51Z</time>
  <course>270.0</course>
  <speed>0.0</speed>
  <fix>3d</fix>
</trkpt>
<trkpt lat="-27.2744391" lon="151.2900641">
  <ele>343.18</ele>
  <time>2026-09-01T19:51:51Z</time>
  <course>10.73</course>
  <speed>0.022360679774997897</speed>
  <fix>3d</fix>
</trkpt>
<trkpt lat="-27.274439" lon="151.290064">
  <ele>343.1</ele>
  <time>2026-09-01T19:51:51Z</time>
  <course>270.0</course>
  <speed>0.0</speed>
  <fix>3d</fix>
</trkpt>
<trkpt lat="-27.2744391" lon="151.2900641">
  <ele>343.19</ele>
  <time>2026-09-01T19:51:51Z</time>
  <course>10.73</course>
  <speed>0.022360679774997897</speed>
  <fix>3d</fix>
</trkpt>
<trkpt lat="-27.274439" lon="151.290064">
  <ele>343.1</ele>
  <time>2026-09-01T19:51:51Z</time>
  <course>270.0</course>
  <speed>0.0</speed>
  <fix>3d</fix>
</trkpt>
<trkpt lat="-27.2744391" lon="151.2900641">
  <ele>343.19</ele>
  <time>2026-09-01T19:51:51Z</time>
  <course>10.73</course>
  <speed>0.022360679774997897</speed>
  <fix>3d</fix>
</trkpt>
<trkpt lat="-27.274439" lon="151.290064">
  <ele>343.1</ele>
  <time>2026-09-01T19:51:51Z</time>
  <course>270.0</course>
  <speed>0.0</speed>
  <fix>3d</fix>
</trkpt>
<trkpt lat="-27.2744391" lon="151.2900641">
  <ele>343.19</ele>
  <time>2026-09-01T19:51:51Z</time>
  <course>10.73</course>
  <speed>0.022360679774997897</speed>
  <fix>3d</fix>
</trkpt>
<trkpt lat="-27.274439" lon="151.290064">
  <ele>343.1</ele>
  <time>2026-09-01T19:51:51Z</time>
  <course>270.0</course>
  <speed>0.0</speed>
  <fix>3d</fix>
</trkpt>
<trkpt lat="-27.2744391" lon="151.2900641">
  <ele>343.19</ele>
  <time>2026-09-01T19:51:51Z</time>
  <course>10.73</course>
  <speed>0.022360679774997897</speed>
  <fix>3d</fix>
</trkpt>
<trkpt lat="-27.274439" lon="151.290064">
  <ele>343.1</ele>
  <time>2026-09-01T19:51:51Z</time>
  <course>270.0</course>
  <speed>0.0</speed>
  <fix>3d</fix>
</trkpt>
<trkpt lat="-27.2744391" lon="151.2900641">
  <ele>343.19</ele>
  <time>2026-09-01T19:51:51Z</time>
  <course>10.73</course>
  <speed>0.022360679774997897</speed>
  <fix>3d</fix>
</trkpt>
<trkpt lat="-27.274439" lon="151.290064">
  <ele>343.1</ele>
  <time>2026-09-01T19:51:51Z</time>
  <course>270.0</course>
  <speed>0.0</speed>
  <fix>3d</fix>
</trkpt>
<trkpt lat="-27.2744391" lon="151.2900641">
  <ele>343.19</ele>
  <time>2026-09-01T19:51:51Z</time>
  <course>10.73</course>
  <speed>0.022360679774997897</speed>
  <fix>3d</fix>
</trkpt>
<trkpt lat="-27.274439" lon="151.290064">
  <ele>343.1</ele>
  <time>2026-09-01T19:51:51Z</time>
  <course>270.0</course>
  <speed>0.0</speed>
  <fix>3d</fix>
</trkpt>
<trkpt lat="-27.2744391" lon="151.2900641">
  <ele>343.2</ele>
  <time>2026-09-01T19:51:51Z</time>
  <course>10.73</course>
  <speed>0.022360679774997897</speed>
  <fix>3d</fix>
</trkpt>
<trkpt lat="-27.274439" lon="151.290064">
  <ele>343.1</ele>
  <time>2026-09-01T19:51:51Z</time>
  <course>270.0</course>
  <speed>0.0</speed>
  <fix>3d</fix>
</trkpt>
<trkpt lat="-27.2744391" lon="151.2900641">
  <ele>343.2</ele>
  <time>2026-09-01T19:51:51Z</time>
  <course>10.73</course>
  <speed>0.022360679774997897</speed>
  <fix>3d</fix>
</trkpt>
<trkpt lat="-27.274439" lon="151.290064">
  <ele>343.1</ele>
  <time>2026-09-01T19:51:51Z</time>
  <course>270.0</course>
  <speed>0.0</speed>
  <fix>3d</fix>
</trkpt>
<trkpt lat="-27.2744391" lon="151.2900641">
  <ele>343.2</ele>
  <time>2026-09-01T19:51:51Z</time>
  <course>10.73</course>
  <speed>0.022360679774997897</speed>
  <fix>3d</fix>
</trkpt>
<trkpt lat="-27.274439" lon="151.290064">
  <ele>343.1</ele>
  <time>2026-09-01T19:51:51Z</time>
  <course>270.0</course>
  <speed>0.0</speed>
  <fix>3d</fix>
</trkpt>
<trkpt lat="-27.2744391" lon="151.2900641">
  <ele>343.2</ele>
  <time>2026-09-01T19:51:51Z</time>
  <course>10.73</course>
  <speed>0.022360679774997897</speed>
  <fix>3d</fix>
</trkpt>
<trkpt lat="-27.274439" lon="151.290064">
  <ele>343.1</ele>
  <time>2026-09-01T19:51:51Z</time>
  <course>270.0</course>
  <speed>0.0</speed>
  <fix>3d</fix>
</trkpt>
<trkpt lat="-27.2744391" lon="151.2900641">
  <ele>343.2</ele>
  <time>2026-09-01T19:51:51Z</time>
  <course>10.73</course>
  <speed>0.022360679774997897</speed>
  <fix>3d</fix>
</trkpt>
<trkpt lat="-27.274439" lon="151.290064">
  <ele>343.1</ele>
  <time>2026-09-01T19:51:51Z</time>
  <course>270.0</course>
  <speed>0.0</speed>
  <fix>3d</fix>
</trkpt>
<trkpt lat="-27.2744391" lon="151.2900641">
  <ele>343.2</ele>
  <time>2026-09-01T19:51:51Z</time>
  <course>10.73</course>
  <speed>0.022360679774997897</speed>
  <fix>3d</fix>
</trkpt>
<trkpt lat="-27.274439" lon="151.290064">
  <ele>343.1</ele>
  <time>2026-09-01T19:51:51Z</time>
  <course>270.0</course>
  <speed>0.0</speed>
  <fix>3d</fix>
</trkpt>
<trkpt lat="-27.2744391" lon="151.2900641">
  <ele>343.2</ele>
  <time>2026-09-01T19:51:51Z</time>
  <course>10.73</course>
  <speed>0.022360679774997897</speed>
  <fix>3d</fix>
</trkpt>
<trkpt lat="-27.274439" lon="151.290064">
  <ele>343.1</ele>
  <time>2026-09-01T19:51:51Z</time>
  <course>270.0</course>
  <speed>0.0</speed>
  <fix>3d</fix>
</trkpt>
<trkpt lat="-27.2744391" lon="151.2900641">
  <ele>343.21</ele>
  <time>2026-09-01T19:51:51Z</time>
  <course>10.73</course>
  <speed>0.022360679774997897</speed>
  <fix>3d</fix>
</trkpt>
<trkpt lat="-27.274439" lon="151.290064">
  <ele>343.1</ele>
  <time>2026-09-01T19:51:51Z</time>
  <course>270.0</course>
  <speed>0.0</speed>
  <fix>3d</fix>
</trkpt>
<trkpt lat="-27.2744391" lon="151.2900641">
  <ele>343.21</ele>
  <time>2026-09-01T19:51:51Z</time>
  <course>10.73</course>
  <speed>0.022360679774997897</speed>
  <fix>3d</fix>
</trkpt>
<trkpt lat="-27.274439" lon="151.290064">
  <ele>343.1</ele>
  <time>2026-09-01T19:51:51Z</time>
  <course>270.0</course>
  <speed>0.0</speed>
  <fix>3d</fix>
</trkpt>
<trkpt lat="-27.2744391" lon="151.2900641">
  <ele>343.21</ele>
  <time>2026-09-01T19:51:51Z</time>
  <course>10.73</course>
  <speed>0.022360679774997897</speed>
  <fix>3d</fix>
</trkpt>
<trkpt lat="-27.274439" lon="151.290064">
  <ele>343.1</ele>
  <time>2026-09-01T19:51:51Z</time>
  <course>270.0</course>
  <speed>0.0</speed>
  <fix>3d</fix>
</trkpt>
<trkpt lat="-27.2744391" lon="151.2900641">
  <ele>343.21</ele>
  <time>2026-09-01T19:51:51Z</time>
  <course>10.73</course>
  <speed>0.022360679774997897</speed>
  <fix>3d</fix>
</trkpt>
<trkpt lat="-27.274439" lon="151.290064">
  <ele>343.1</ele>
  <time>2026-09-01T19:51:51Z</time>
  <course>270.0</course>
  <speed>0.0</speed>
  <fix>3d</fix>
</trkpt>
<trkpt lat="-27.2744391" lon="151.2900641">
  <ele>343.21</ele>
  <time>2026-09-01T19:51:51Z</time>
  <course>10.73</course>
  <speed>0.022360679774997897</speed>
  <fix>3d</fix>
</trkpt>
<trkpt lat="-27.274439" lon="151.290064">
  <ele>343.1</ele>
  <time>2026-09-01T19:51:51Z</time>
  <course>270.0</course>
  <speed>0.0</speed>
  <fix>3d</fix>
</trkpt>
<trkpt lat="-27.2744391" lon="151.2900641">
  <ele>343.22</ele>
  <time>2026-09-01T19:51:51Z</time>
  <course>10.74</course>
  <speed>0.022360679774997897</speed>
  <fix>3d</fix>
</trkpt>
<trkpt lat="-27.274439" lon="151.290064">
  <ele>343.1</ele>
  <time>2026-09-01T19:51:51Z</time>
  <course>270.0</course>
  <speed>0.0</speed>
  <fix>3d</fix>
</trkpt>
<trkpt lat="-27.2744391" lon="151.2900641">
  <ele>343.22</ele>
  <time>2026-09-01T19:51:51Z</time>
  <course>10.74</course>
  <speed>0.022360679774997897</speed>
  <fix>3d</fix>
</trkpt>
<trkpt lat="-27.274439" lon="151.290064">
  <ele>343.1</ele>
  <time>2026-09-01T19:51:51Z</time>
  <course>270.0</course>
  <speed>0.0</speed>
  <fix>3d</fix>
</trkpt>
<trkpt lat="-27.2744391" lon="151.2900641">
  <ele>343.22</ele>
  <time>2026-09-01T19:51:51Z</time>
  <course>10.74</course>
  <speed>0.022360679774997897</speed>
  <fix>3d</fix>
</trkpt>
<trkpt lat="-27.274439" lon="151.290064">
  <ele>343.1</ele>
  <time>2026-09-01T19:51:51Z</time>
  <course>270.0</course>
  <speed>0.0</speed>
  <fix>3d</fix>
</trkpt>
<trkpt lat="-27.2744391" lon="151.2900641">
  <ele>343.22</ele>
  <time>2026-09-01T19:51:51Z</time>
  <course>10.74</course>
  <speed>0.022360679774997897</speed>
  <fix>3d</fix>
</trkpt>
<trkpt lat="-27.274439" lon="151.290064">
  <ele>343.1</ele>
  <time>2026-09-01T19:51:51Z</time>
  <course>270.0</course>
  <speed>0.0</speed>
  <fix>3d</fix>
</trkpt>
<trkpt lat="-27.2744391" lon="151.2900641">
  <ele>343.22</ele>
  <time>2026-09-01T19:51:51Z</time>
  <course>10.74</course>
  <speed>0.022360679774997897</speed>
  <fix>3d</fix>
</trkpt>
<trkpt lat="-27.274439" lon="151.290064">
  <ele>343.1</ele>
  <time>2026-09-01T19:51:51Z</time>
  <course>270.0</course>
  <speed>0.0</speed>
  <fix>3d</fix>
</trkpt>
<trkpt lat="-27.2744391" lon="151.2900641">
  <ele>343.22</ele>
  <time>2026-09-01T19:51:51Z</time>
  <course>10.74</course>
  <speed>0.022360679774997897</speed>
  <fix>3d</fix>
</trkpt>
<trkpt lat="-27.274439" lon="151.290064">
  <ele>343.1</ele>
  <time>2026-09-01T19:51:51Z</time>
  <course>270.0</course>
  <speed>0.0</speed>
  <fix>3d</fix>
</trkpt>
<trkpt lat="-27.2744391" lon="151.2900641">
  <ele>343.22</ele>
  <time>2026-09-01T19:51:51Z</time>
  <course>10.74</course>
  <speed>0.022360679774997897</speed>
  <fix>3d</fix>
</trkpt>
<trkpt lat="-27.274439" lon="151.290064">
  <ele>343.1</ele>
  <time>2026-09-01T19:51:51Z</time>
  <course>270.0</course>
  <speed>0.0</speed>
  <fix>3d</fix>
</trkpt>
<trkpt lat="-27.2744391" lon="151.2900641">
  <ele>343.23</ele>
  <time>2026-09-01T19:51:51Z</time>
  <course>10.74</course>
  <speed>0.022360679774997897</speed>
  <fix>3d</fix>
</trkpt>
<trkpt lat="-27.274439" lon="151.290064">
  <ele>343.1</ele>
  <time>2026-09-01T19:51:51Z</time>
  <course>270.0</course>
  <speed>0.0</speed>
  <fix>3d</fix>
</trkpt>
<trkpt lat="-27.2744391" lon="151.2900641">
  <ele>343.23</ele>
  <time>2026-09-01T19:51:51Z</time>
  <course>10.74</course>
  <speed>0.022360679774997897</speed>
  <fix>3d</fix>
</trkpt>
<trkpt lat="-27.274439" lon="151.290064">
  <ele>343.1</ele>
  <time>2026-09-01T19:51:51Z</time>
  <course>270.0</course>
  <speed>0.0</speed>
  <fix>3d</fix>
</trkpt>
<trkpt lat="-27.2744391" lon="151.2900641">
  <ele>343.23</ele>
  <time>2026-09-01T19:51:51Z</time>
  <course>10.74</course>
  <speed>0.022360679774997897</speed>
  <fix>3d</fix>
</trkpt>
<trkpt lat="-27.274439" lon="151.290064">
  <ele>343.1</ele>
  <time>2026-09-01T19:51:51Z</time>
  <course>270.0</course>
  <speed>0.0</speed>
  <fix>3d</fix>
</trkpt>
<trkpt lat="-27.2744391" lon="151.2900641">
  <ele>343.23</ele>
  <time>2026-09-01T19:51:51Z</time>
  <course>10.74</course>
  <speed>0.022360679774997897</speed>
  <fix>3d</fix>
</trkpt>
<trkpt lat="-27.274439" lon="151.290064">
  <ele>343.1</ele>
  <time>2026-09-01T19:51:51Z</time>
  <course>270.0</course>
  <speed>0.0</speed>
  <fix>3d</fix>
</trkpt>
<trkpt lat="-27.2744391" lon="151.2900641">
  <ele>343.23</ele>
  <time>2026-09-01T19:51:51Z</time>
  <course>10.74</course>
  <speed>0.022360679774997897</speed>
  <fix>3d</fix>
</trkpt>
<trkpt lat="-27.274439" lon="151.290064">
  <ele>343.1</ele>
  <time>2026-09-01T19:51:51Z</time>
  <course>270.0</course>
  <speed>0.0</speed>
  <fix>3d</fix>
</trkpt>
<trkpt lat="-27.2744391" lon="151.2900641">
  <ele>343.09</ele>
  <time>2026-09-01T19:51:51Z</time>
  <course>10.74</course>
  <speed>0.022360679774997897</speed>
  <fix>3d</fix>
</trkpt>
<trkpt lat="-27.274439" lon="151.290064">
  <ele>343.1</ele>
  <time>2026-09-01T19:51:51Z</time>
  <course>270.0</course>
  <speed>0.0</speed>
  <fix>3d</fix>
</trkpt>
<trkpt lat="-27.2744391" lon="151.2900641">
  <ele>343.09</ele>
  <time>2026-09-01T19:51:51Z</time>
  <course>10.74</course>
  <speed>0.022360679774997897</speed>
  <fix>3d</fix>
</trkpt>
<trkpt lat="-27.274439" lon="151.290064">
  <ele>343.1</ele>
  <time>2026-09-01T19:51:51Z</time>
  <course>270.0</course>
  <speed>0.0</speed>
  <fix>3d</fix>
</trkpt>
<trkpt lat="-27.2744391" lon="151.2900641">
  <ele>343.09</ele>
  <time>2026-09-01T19:51:51Z</time>
  <course>10.74</course>
  <speed>0.022360679774997897</speed>
  <fix>3d</fix>
</trkpt>
<trkpt lat="-27.274439" lon="151.290064">
  <ele>343.1</ele>
  <time>2026-09-01T19:51:51Z</time>
  <course>270.0</course>
  <speed>0.0</speed>
  <fix>3d</fix>
</trkpt>
<trkpt lat="-27.2744391" lon="151.2900641">
  <ele>343.1</ele>
  <time>2026-09-01T19:51:51Z</time>
  <course>10.74</course>
  <speed>0.022360679774997897</speed>
  <fix>3d</fix>
</trkpt>
<trkpt lat="-27.274439" lon="151.290064">
  <ele>343.1</ele>
  <time>2026-09-01T19:51:51Z</time>
  <course>270.0</course>
  <speed>0.0</speed>
  <fix>3d</fix>
</trkpt>
<trkpt lat="-27.2744391" lon="151.2900641">
  <ele>343.1</ele>
  <time>2026-09-01T19:51:51Z</time>
  <course>10.74</course>
  <speed>0.022360679774997897</speed>
  <fix>3d</fix>
</trkpt>
<trkpt lat="-27.274439" lon="151.290064">
  <ele>343.1</ele>
  <time>2026-09-01T19:51:51Z</time>
  <course>270.0</course>
  <speed>0.0</speed>
  <fix>3d</fix>
</trkpt>
<trkpt lat="-27.2744391" lon="151.2900641">
  <ele>343.1</ele>
  <time>2026-09-01T19:51:51Z</time>
  <course>10.74</course>
  <speed>0.022360679774997897</speed>
  <fix>3d</fix>
</trkpt>
<trkpt lat="-27.274439" lon="151.290064">
  <ele>343.1</ele>
  <time>2026-09-01T19:51:51Z</time>
  <course>270.0</course>
  <speed>0.0</speed>
  <fix>3d</fix>
</trkpt>
<trkpt lat="-27.2744391" lon="151.2900641">
  <ele>343.11</ele>
  <time>2026-09-01T19:51:51Z</time>
  <course>10.74</course>
  <speed>0.022360679774997897</speed>
  <fix>3d</fix>
</trkpt>
<trkpt lat="-27.274439" lon="151.290064">
  <ele>343.1</ele>
  <time>2026-09-01T19:51:51Z</time>
  <course>270.0</course>
  <speed>0.0</speed>
  <fix>3d</fix>
</trkpt>
<trkpt lat="-27.2744391" lon="151.2900641">
  <ele>343.11</ele>
  <time>2026-09-01T19:51:51Z</time>
  <course>10.74</course>
  <speed>0.022360679774997897</speed>
  <fix>3d</fix>
</trkpt>
<trkpt lat="-27.274439" lon="151.290064">
  <ele>343.1</ele>
  <time>2026-09-01T19:51:51Z</time>
  <course>270.0</course>
  <speed>0.0</speed>
  <fix>3d</fix>
</trkpt>
<trkpt lat="-27.2744391" lon="151.2900641">
  <ele>343.12</ele>
  <time>2026-09-01T19:51:51Z</time>
  <course>10.74</course>
  <speed>0.022360679774997897</speed>
  <fix>3d</fix>
</trkpt>
<trkpt lat="-27.274439" lon="151.290064">
  <ele>343.1</ele>
  <time>2026-09-01T19:51:51Z</time>
  <course>270.0</course>
  <speed>0.0</speed>
  <fix>3d</fix>
</trkpt>
<trkpt lat="-27.2744391" lon="151.2900641">
  <ele>343.12</ele>
  <time>2026-09-01T19:51:51Z</time>
  <course>10.75</course>
  <speed>0.022360679774997897</speed>
  <fix>3d</fix>
</trkpt>
<trkpt lat="-27.274439" lon="151.290064">
  <ele>343.1</ele>
  <time>2026-09-01T19:51:51Z</time>
  <course>270.0</course>
  <speed>0.0</speed>
  <fix>3d</fix>
</trkpt>
<trkpt lat="-27.2744391" lon="151.2900641">
  <ele>343.12</ele>
  <time>2026-09-01T19:51:51Z</time>
  <course>10.75</course>
  <speed>0.022360679774997897</speed>
  <fix>3d</fix>
</trkpt>
<trkpt lat="-27.274439" lon="151.290064">
  <ele>343.1</ele>
  <time>2026-09-01T19:51:51Z</time>
  <course>270.0</course>
  <speed>0.0</speed>
  <fix>3d</fix>
</trkpt>
<trkpt lat="-27.2744391" lon="151.2900641">
  <ele>343.13</ele>
  <time>2026-09-01T19:51:51Z</time>
  <course>10.75</course>
  <speed>0.022360679774997897</speed>
  <fix>3d</fix>
</trkpt>
<trkpt lat="-27.274439" lon="151.290064">
  <ele>343.1</ele>
  <time>2026-09-01T19:51:51Z</time>
  <course>270.0</course>
  <speed>0.0</speed>
  <fix>3d</fix>
</trkpt>
<trkpt lat="-27.2744391" lon="151.2900641">
  <ele>343.13</ele>
  <time>2026-09-01T19:51:51Z</time>
  <course>10.75</course>
  <speed>0.022360679774997897</speed>
  <fix>3d</fix>
</trkpt>
<trkpt lat="-27.274439" lon="151.290064">
  <ele>343.1</ele>
  <time>2026-09-01T19:51:51Z</time>
  <course>270.0</course>
  <speed>0.0</speed>
  <fix>3d</fix>
</trkpt>
<trkpt lat="-27.2744391" lon="151.2900641">
  <ele>343.14</ele>
  <time>2026-09-01T19:51:51Z</time>
  <course>10.75</course>
  <speed>0.022360679774997897</speed>
  <fix>3d</fix>
</trkpt>
<trkpt lat="-27.274439" lon="151.290064">
  <ele>343.1</ele>
  <time>2026-09-01T19:51:51Z</time>
  <course>270.0</course>
  <speed>0.0</speed>
  <fix>3d</fix>
</trkpt>
<trkpt lat="-27.2744391" lon="151.2900641">
  <ele>343.14</ele>
  <time>2026-09-01T19:51:52Z</time>
  <course>10.75</course>
  <speed>0.022360679774997897</speed>
  <fix>3d</fix>
</trkpt>
<trkpt lat="-27.274439" lon="151.290064">
  <ele>343.1</ele>
  <time>2026-09-01T19:51:52Z</time>
  <course>270.0</course>
  <speed>0.0</speed>
  <fix>3d</fix>
</trkpt>
<trkpt lat="-27.2744391" lon="151.2900641">
  <ele>343.14</ele>
  <time>2026-09-01T19:51:52Z</time>
  <course>10.75</course>
  <speed>0.022360679774997897</speed>
  <fix>3d</fix>
</trkpt>
<trkpt lat="-27.274439" lon="151.290064">
  <ele>343.1</ele>
  <time>2026-09-01T19:51:52Z</time>
  <course>270.0</course>
  <speed>0.0</speed>
  <fix>3d</fix>
</trkpt>
<trkpt lat="-27.2744391" lon="151.2900641">
  <ele>343.14</ele>
  <time>2026-09-01T19:51:52Z</time>
  <course>10.75</course>
  <speed>0.022360679774997897</speed>
  <fix>3d</fix>
</trkpt>
<trkpt lat="-27.274439" lon="151.290064">
  <ele>343.1</ele>
  <time>2026-09-01T19:51:52Z</time>
  <course>270.0</course>
  <speed>0.0</speed>
  <fix>3d</fix>
</trkpt>
<trkpt lat="-27.2744391" lon="151.2900641">
  <ele>343.15</ele>
  <time>2026-09-01T19:51:52Z</time>
  <course>10.75</course>
  <speed>0.022360679774997897</speed>
  <fix>3d</fix>
</trkpt>
<trkpt lat="-27.274439" lon="151.290064">
  <ele>343.1</ele>
  <time>2026-09-01T19:51:52Z</time>
  <course>270.0</course>
  <speed>0.0</speed>
  <fix>3d</fix>
</trkpt>
<trkpt lat="-27.2744391" lon="151.2900641">
  <ele>343.15</ele>
  <time>2026-09-01T19:51:52Z</time>
  <course>10.75</course>
  <speed>0.022360679774997897</speed>
  <fix>3d</fix>
</trkpt>
<trkpt lat="-27.274439" lon="151.290064">
  <ele>343.1</ele>
  <time>2026-09-01T19:51:52Z</time>
  <course>270.0</course>
  <speed>0.0</speed>
  <fix>3d</fix>
</trkpt>
<trkpt lat="-27.2744391" lon="151.2900641">
  <ele>343.15</ele>
  <time>2026-09-01T19:51:52Z</time>
  <course>10.75</course>
  <speed>0.022360679774997897</speed>
  <fix>3d</fix>
</trkpt>
<trkpt lat="-27.274439" lon="151.290064">
  <ele>343.1</ele>
  <time>2026-09-01T19:51:52Z</time>
  <course>270.0</course>
  <speed>0.0</speed>
  <fix>3d</fix>
</trkpt>
<trkpt lat="-27.2744391" lon="151.2900641">
  <ele>343.16</ele>
  <time>2026-09-01T19:51:52Z</time>
  <course>10.75</course>
  <speed>0.022360679774997897</speed>
  <fix>3d</fix>
</trkpt>
<trkpt lat="-27.274439" lon="151.290064">
  <ele>343.1</ele>
  <time>2026-09-01T19:51:52Z</time>
  <course>270.0</course>
  <speed>0.0</speed>
  <fix>3d</fix>
</trkpt>
<trkpt lat="-27.2744391" lon="151.2900641">
  <ele>343.17</ele>
  <time>2026-09-01T19:51:52Z</time>
  <course>10.75</course>
  <speed>0.022360679774997897</speed>
  <fix>3d</fix>
</trkpt>
<trkpt lat="-27.274439" lon="151.290064">
  <ele>343.1</ele>
  <time>2026-09-01T19:51:52Z</time>
  <course>270.0</course>
  <speed>0.0</speed>
  <fix>3d</fix>
</trkpt>
<trkpt lat="-27.2744391" lon="151.2900641">
  <ele>343.17</ele>
  <time>2026-09-01T19:51:52Z</time>
  <course>10.75</course>
  <speed>0.022360679774997897</speed>
  <fix>3d</fix>
</trkpt>
<trkpt lat="-27.274439" lon="151.290064">
  <ele>343.1</ele>
  <time>2026-09-01T19:51:52Z</time>
  <course>270.0</course>
  <speed>0.0</speed>
  <fix>3d</fix>
</trkpt>
<trkpt lat="-27.2744391" lon="151.2900641">
  <ele>343.17</ele>
  <time>2026-09-01T19:51:52Z</time>
  <course>10.75</course>
  <speed>0.022360679774997897</speed>
  <fix>3d</fix>
</trkpt>
<trkpt lat="-27.274439" lon="151.290064">
  <ele>343.1</ele>
  <time>2026-09-01T19:51:52Z</time>
  <course>270.0</course>
  <speed>0.0</speed>
  <fix>3d</fix>
</trkpt>
<trkpt lat="-27.2744391" lon="151.2900641">
  <ele>343.18</ele>
  <time>2026-09-01T19:51:52Z</time>
  <course>10.75</course>
  <speed>0.022360679774997897</speed>
  <fix>3d</fix>
</trkpt>
<trkpt lat="-27.274439" lon="151.290064">
  <ele>343.1</ele>
  <time>2026-09-01T19:51:52Z</time>
  <course>270.0</course>
  <speed>0.0</speed>
  <fix>3d</fix>
</trkpt>
<trkpt lat="-27.2744391" lon="151.2900641">
  <ele>343.19</ele>
  <time>2026-09-01T19:51:52Z</time>
  <course>10.75</course>
  <speed>0.022360679774997897</speed>
  <fix>3d</fix>
</trkpt>
<trkpt lat="-27.274439" lon="151.290064">
  <ele>343.1</ele>
  <time>2026-09-01T19:51:52Z</time>
  <course>270.0</course>
  <speed>0.0</speed>
  <fix>3d</fix>
</trkpt>
<trkpt lat="-27.2744391" lon="151.2900641">
  <ele>343.19</ele>
  <time>2026-09-01T19:51:52Z</time>
  <course>10.75</course>
  <speed>0.022360679774997897</speed>
  <fix>3d</fix>
</trkpt>
<trkpt lat="-27.274439" lon="151.290064">
  <ele>343.1</ele>
  <time>2026-09-01T19:51:52Z</time>
  <course>270.0</course>
  <speed>0.0</speed>
  <fix>3d</fix>
</trkpt>
<trkpt lat="-27.2744391" lon="151.2900641">
  <ele>343.19</ele>
  <time>2026-09-01T19:51:52Z</time>
  <course>10.75</course>
  <speed>0.022360679774997897</speed>
  <fix>3d</fix>
</trkpt>
<trkpt lat="-27.274439" lon="151.290064">
  <ele>343.1</ele>
  <time>2026-09-01T19:51:52Z</time>
  <course>270.0</course>
  <speed>0.0</speed>
  <fix>3d</fix>
</trkpt>
<trkpt lat="-27.2744391" lon="151.2900641">
  <ele>343.19</ele>
  <time>2026-09-01T19:51:52Z</time>
  <course>10.75</course>
  <speed>0.022360679774997897</speed>
  <fix>3d</fix>
</trkpt>
<trkpt lat="-27.274439" lon="151.290064">
  <ele>343.1</ele>
  <time>2026-09-01T19:51:52Z</time>
  <course>270.0</course>
  <speed>0.0</speed>
  <fix>3d</fix>
</trkpt>
<trkpt lat="-27.2744391" lon="151.2900641">
  <ele>343.2</ele>
  <time>2026-09-01T19:51:52Z</time>
  <course>10.75</course>
  <speed>0.022360679774997897</speed>
  <fix>3d</fix>
</trkpt>
<trkpt lat="-27.274439" lon="151.290064">
  <ele>343.1</ele>
  <time>2026-09-01T19:51:52Z</time>
  <course>270.0</course>
  <speed>0.0</speed>
  <fix>3d</fix>
</trkpt>
<trkpt lat="-27.2744391" lon="151.2900641">
  <ele>343.2</ele>
  <time>2026-09-01T19:51:52Z</time>
  <course>10.76</course>
  <speed>0.022360679774997897</speed>
  <fix>3d</fix>
</trkpt>
<trkpt lat="-27.274439" lon="151.290064">
  <ele>343.1</ele>
  <time>2026-09-01T19:51:52Z</time>
  <course>270.0</course>
  <speed>0.0</speed>
  <fix>3d</fix>
</trkpt>
<trkpt lat="-27.2744391" lon="151.2900641">
  <ele>343.2</ele>
  <time>2026-09-01T19:51:52Z</time>
  <course>10.76</course>
  <speed>0.022360679774997897</speed>
  <fix>3d</fix>
</trkpt>
<trkpt lat="-27.274439" lon="151.290064">
  <ele>343.1</ele>
  <time>2026-09-01T19:51:52Z</time>
  <course>270.0</course>
  <speed>0.0</speed>
  <fix>3d</fix>
</trkpt>
<trkpt lat="-27.2744391" lon="151.2900641">
  <ele>343.2</ele>
  <time>2026-09-01T19:51:52Z</time>
  <course>10.76</course>
  <speed>0.022360679774997897</speed>
  <fix>3d</fix>
</trkpt>
<trkpt lat="-27.274439" lon="151.290064">
  <ele>343.1</ele>
  <time>2026-09-01T19:51:52Z</time>
  <course>270.0</course>
  <speed>0.0</speed>
  <fix>3d</fix>
</trkpt>
<trkpt lat="-27.2744391" lon="151.2900641">
  <ele>343.2</ele>
  <time>2026-09-01T19:51:52Z</time>
  <course>10.76</course>
  <speed>0.022360679774997897</speed>
  <fix>3d</fix>
</trkpt>
<trkpt lat="-27.274439" lon="151.290064">
  <ele>343.1</ele>
  <time>2026-09-01T19:51:52Z</time>
  <course>270.0</course>
  <speed>0.0</speed>
  <fix>3d</fix>
</trkpt>
<trkpt lat="-27.2744391" lon="151.2900641">
  <ele>343.2</ele>
  <time>2026-09-01T19:51:52Z</time>
  <course>10.76</course>
  <speed>0.022360679774997897</speed>
  <fix>3d</fix>
</trkpt>
<trkpt lat="-27.274439" lon="151.290064">
  <ele>343.1</ele>
  <time>2026-09-01T19:51:52Z</time>
  <course>270.0</course>
  <speed>0.0</speed>
  <fix>3d</fix>
</trkpt>
<trkpt lat="-27.2744391" lon="151.2900641">
  <ele>343.2</ele>
  <time>2026-09-01T19:51:52Z</time>
  <course>10.76</course>
  <speed>0.022360679774997897</speed>
  <fix>3d</fix>
</trkpt>
<trkpt lat="-27.274439" lon="151.290064">
  <ele>343.1</ele>
  <time>2026-09-01T19:51:52Z</time>
  <course>270.0</course>
  <speed>0.0</speed>
  <fix>3d</fix>
</trkpt>
<trkpt lat="-27.2744391" lon="151.2900641">
  <ele>343.2</ele>
  <time>2026-09-01T19:51:52Z</time>
  <course>10.76</course>
  <speed>0.022360679774997897</speed>
  <fix>3d</fix>
</trkpt>
<trkpt lat="-27.274439" lon="151.290064">
  <ele>343.1</ele>
  <time>2026-09-01T19:51:52Z</time>
  <course>270.0</course>
  <speed>0.0</speed>
  <fix>3d</fix>
</trkpt>
<trkpt lat="-27.2744391" lon="151.2900641">
  <ele>343.21</ele>
  <time>2026-09-01T19:51:52Z</time>
  <course>10.76</course>
  <speed>0.022360679774997897</speed>
  <fix>3d</fix>
</trkpt>
<trkpt lat="-27.274439" lon="151.290064">
  <ele>343.1</ele>
  <time>2026-09-01T19:51:52Z</time>
  <course>270.0</course>
  <speed>0.0</speed>
  <fix>3d</fix>
</trkpt>
<trkpt lat="-27.2744391" lon="151.2900641">
  <ele>343.21</ele>
  <time>2026-09-01T19:51:52Z</time>
  <course>10.76</course>
  <speed>0.022360679774997897</speed>
  <fix>3d</fix>
</trkpt>
<trkpt lat="-27.274439" lon="151.290064">
  <ele>343.1</ele>
  <time>2026-09-01T19:51:52Z</time>
  <course>270.0</course>
  <speed>0.0</speed>
  <fix>3d</fix>
</trkpt>
<trkpt lat="-27.2744391" lon="151.2900641">
  <ele>343.21</ele>
  <time>2026-09-01T19:51:52Z</time>
  <course>10.76</course>
  <speed>0.022360679774997897</speed>
  <fix>3d</fix>
</trkpt>
<trkpt lat="-27.274439" lon="151.290064">
  <ele>343.1</ele>
  <time>2026-09-01T19:51:52Z</time>
  <course>270.0</course>
  <speed>0.0</speed>
  <fix>3d</fix>
</trkpt>
<trkpt lat="-27.2744391" lon="151.2900641">
  <ele>343.21</ele>
  <time>2026-09-01T19:51:52Z</time>
  <course>10.76</course>
  <speed>0.022360679774997897</speed>
  <fix>3d</fix>
</trkpt>
<trkpt lat="-27.274439" lon="151.290064">
  <ele>343.1</ele>
  <time>2026-09-01T19:51:52Z</time>
  <course>270.0</course>
  <speed>0.0</speed>
  <fix>3d</fix>
</trkpt>
<trkpt lat="-27.2744391" lon="151.2900641">
  <ele>343.21</ele>
  <time>2026-09-01T19:51:52Z</time>
  <course>10.76</course>
  <speed>0.022360679774997897</speed>
  <fix>3d</fix>
</trkpt>
<trkpt lat="-27.274439" lon="151.290064">
  <ele>343.1</ele>
  <time>2026-09-01T19:51:52Z</time>
  <course>270.0</course>
  <speed>0.0</speed>
  <fix>3d</fix>
</trkpt>
<trkpt lat="-27.2744391" lon="151.2900641">
  <ele>343.21</ele>
  <time>2026-09-01T19:51:52Z</time>
  <course>10.76</course>
  <speed>0.022360679774997897</speed>
  <fix>3d</fix>
</trkpt>
<trkpt lat="-27.274439" lon="151.290064">
  <ele>343.1</ele>
  <time>2026-09-01T19:51:52Z</time>
  <course>270.0</course>
  <speed>0.0</speed>
  <fix>3d</fix>
</trkpt>
<trkpt lat="-27.2744391" lon="151.2900641">
  <ele>343.21</ele>
  <time>2026-09-01T19:51:52Z</time>
  <course>10.76</course>
  <speed>0.022360679774997897</speed>
  <fix>3d</fix>
</trkpt>
<trkpt lat="-27.274439" lon="151.290064">
  <ele>343.1</ele>
  <time>2026-09-01T19:51:52Z</time>
  <course>270.0</course>
  <speed>0.0</speed>
  <fix>3d</fix>
</trkpt>
<trkpt lat="-27.2744391" lon="151.2900641">
  <ele>343.21</ele>
  <time>2026-09-01T19:51:52Z</time>
  <course>10.76</course>
  <speed>0.022360679774997897</speed>
  <fix>3d</fix>
</trkpt>
<trkpt lat="-27.274439" lon="151.290064">
  <ele>343.1</ele>
  <time>2026-09-01T19:51:52Z</time>
  <course>270.0</course>
  <speed>0.0</speed>
  <fix>3d</fix>
</trkpt>
<trkpt lat="-27.2744391" lon="151.2900641">
  <ele>343.21</ele>
  <time>2026-09-01T19:51:52Z</time>
  <course>10.76</course>
  <speed>0.022360679774997897</speed>
  <fix>3d</fix>
</trkpt>
<trkpt lat="-27.274439" lon="151.290064">
  <ele>343.1</ele>
  <time>2026-09-01T19:51:52Z</time>
  <course>270.0</course>
  <speed>0.0</speed>
  <fix>3d</fix>
</trkpt>
<trkpt lat="-27.2744391" lon="151.2900641">
  <ele>343.21</ele>
  <time>2026-09-01T19:51:52Z</time>
  <course>10.76</course>
  <speed>0.022360679774997897</speed>
  <fix>3d</fix>
</trkpt>
<trkpt lat="-27.274439" lon="151.290064">
  <ele>343.1</ele>
  <time>2026-09-01T19:51:52Z</time>
  <course>270.0</course>
  <speed>0.0</speed>
  <fix>3d</fix>
</trkpt>
<trkpt lat="-27.2744391" lon="151.2900641">
  <ele>343.21</ele>
  <time>2026-09-01T19:51:52Z</time>
  <course>10.76</course>
  <speed>0.022360679774997897</speed>
  <fix>3d</fix>
</trkpt>
<trkpt lat="-27.274439" lon="151.290064">
  <ele>343.1</ele>
  <time>2026-09-01T19:51:52Z</time>
  <course>270.0</course>
  <speed>0.0</speed>
  <fix>3d</fix>
</trkpt>
<trkpt lat="-27.2744391" lon="151.2900641">
  <ele>343.21</ele>
  <time>2026-09-01T19:51:52Z</time>
  <course>10.76</course>
  <speed>0.022360679774997897</speed>
  <fix>3d</fix>
</trkpt>
<trkpt lat="-27.274439" lon="151.290064">
  <ele>343.1</ele>
  <time>2026-09-01T19:51:52Z</time>
  <course>270.0</course>
  <speed>0.0</speed>
  <fix>3d</fix>
</trkpt>
<trkpt lat="-27.2744391" lon="151.2900641">
  <ele>343.22</ele>
  <time>2026-09-01T19:51:52Z</time>
  <course>10.77</course>
  <speed>0.022360679774997897</speed>
  <fix>3d</fix>
</trkpt>
<trkpt lat="-27.274439" lon="151.290064">
  <ele>343.1</ele>
  <time>2026-09-01T19:51:52Z</time>
  <course>270.0</course>
  <speed>0.0</speed>
  <fix>3d</fix>
</trkpt>
<trkpt lat="-27.2744391" lon="151.2900641">
  <ele>343.22</ele>
  <time>2026-09-01T19:51:52Z</time>
  <course>10.77</course>
  <speed>0.022360679774997897</speed>
  <fix>3d</fix>
</trkpt>
<trkpt lat="-27.274439" lon="151.290064">
  <ele>343.1</ele>
  <time>2026-09-01T19:51:52Z</time>
  <course>270.0</course>
  <speed>0.0</speed>
  <fix>3d</fix>
</trkpt>
<trkpt lat="-27.2744391" lon="151.2900641">
  <ele>343.22</ele>
  <time>2026-09-01T19:51:52Z</time>
  <course>10.77</course>
  <speed>0.022360679774997897</speed>
  <fix>3d</fix>
</trkpt>
<trkpt lat="-27.274439" lon="151.290064">
  <ele>343.1</ele>
  <time>2026-09-01T19:51:52Z</time>
  <course>270.0</course>
  <speed>0.0</speed>
  <fix>3d</fix>
</trkpt>
<trkpt lat="-27.2744391" lon="151.2900641">
  <ele>343.22</ele>
  <time>2026-09-01T19:51:52Z</time>
  <course>10.77</course>
  <speed>0.022360679774997897</speed>
  <fix>3d</fix>
</trkpt>
<trkpt lat="-27.274439" lon="151.290064">
  <ele>343.1</ele>
  <time>2026-09-01T19:51:52Z</time>
  <course>270.0</course>
  <speed>0.0</speed>
  <fix>3d</fix>
</trkpt>
<trkpt lat="-27.2744391" lon="151.2900641">
  <ele>343.21</ele>
  <time>2026-09-01T19:51:52Z</time>
  <course>10.77</course>
  <speed>0.022360679774997897</speed>
  <fix>3d</fix>
</trkpt>
<trkpt lat="-27.274439" lon="151.290064">
  <ele>343.1</ele>
  <time>2026-09-01T19:51:52Z</time>
  <course>270.0</course>
  <speed>0.0</speed>
  <fix>3d</fix>
</trkpt>
<trkpt lat="-27.2744391" lon="151.2900641">
  <ele>343.21</ele>
  <time>2026-09-01T19:51:52Z</time>
  <course>10.77</course>
  <speed>0.022360679774997897</speed>
  <fix>3d</fix>
</trkpt>
<trkpt lat="-27.274439" lon="151.290064">
  <ele>343.1</ele>
  <time>2026-09-01T19:51:52Z</time>
  <course>270.0</course>
  <speed>0.0</speed>
  <fix>3d</fix>
</trkpt>
<trkpt lat="-27.2744391" lon="151.2900641">
  <ele>343.21</ele>
  <time>2026-09-01T19:51:52Z</time>
  <course>10.77</course>
  <speed>0.022360679774997897</speed>
  <fix>3d</fix>
</trkpt>
<trkpt lat="-27.274439" lon="151.290064">
  <ele>343.1</ele>
  <time>2026-09-01T19:51:52Z</time>
  <course>270.0</course>
  <speed>0.0</speed>
  <fix>3d</fix>
</trkpt>
<trkpt lat="-27.2744391" lon="151.2900641">
  <ele>343.21</ele>
  <time>2026-09-01T19:51:52Z</time>
  <course>10.77</course>
  <speed>0.022360679774997897</speed>
  <fix>3d</fix>
</trkpt>
<trkpt lat="-27.274439" lon="151.290064">
  <ele>343.1</ele>
  <time>2026-09-01T19:51:52Z</time>
  <course>270.0</course>
  <speed>0.0</speed>
  <fix>3d</fix>
</trkpt>
<trkpt lat="-27.2744391" lon="151.2900641">
  <ele>343.21</ele>
  <time>2026-09-01T19:51:52Z</time>
  <course>10.77</course>
  <speed>0.022360679774997897</speed>
  <fix>3d</fix>
</trkpt>
<trkpt lat="-27.274439" lon="151.290064">
  <ele>343.1</ele>
  <time>2026-09-01T19:51:52Z</time>
  <course>270.0</course>
  <speed>0.0</speed>
  <fix>3d</fix>
</trkpt>
<trkpt lat="-27.2744391" lon="151.2900641">
  <ele>343.21</ele>
  <time>2026-09-01T19:51:52Z</time>
  <course>10.77</course>
  <speed>0.022360679774997897</speed>
  <fix>3d</fix>
</trkpt>
<trkpt lat="-27.274439" lon="151.290064">
  <ele>343.1</ele>
  <time>2026-09-01T19:51:52Z</time>
  <course>270.0</course>
  <speed>0.0</speed>
  <fix>3d</fix>
</trkpt>
<trkpt lat="-27.2744391" lon="151.2900641">
  <ele>343.21</ele>
  <time>2026-09-01T19:51:52Z</time>
  <course>10.77</course>
  <speed>0.022360679774997897</speed>
  <fix>3d</fix>
</trkpt>
<trkpt lat="-27.274439" lon="151.290064">
  <ele>343.1</ele>
  <time>2026-09-01T19:51:52Z</time>
  <course>270.0</course>
  <speed>0.0</speed>
  <fix>3d</fix>
</trkpt>
<trkpt lat="-27.2744391" lon="151.2900641">
  <ele>343.09</ele>
  <time>2026-09-01T19:51:52Z</time>
  <course>10.77</course>
  <speed>0.022360679774997897</speed>
  <fix>3d</fix>
</trkpt>
<trkpt lat="-27.274439" lon="151.290064">
  <ele>343.1</ele>
  <time>2026-09-01T19:51:52Z</time>
  <course>270.0</course>
  <speed>0.0</speed>
  <fix>3d</fix>
</trkpt>
<trkpt lat="-27.2744391" lon="151.2900641">
  <ele>343.1</ele>
  <time>2026-09-01T19:51:52Z</time>
  <course>10.77</course>
  <speed>0.022360679774997897</speed>
  <fix>3d</fix>
</trkpt>
<trkpt lat="-27.274439" lon="151.290064">
  <ele>343.1</ele>
  <time>2026-09-01T19:51:52Z</time>
  <course>270.0</course>
  <speed>0.0</speed>
  <fix>3d</fix>
</trkpt>
<trkpt lat="-27.2744391" lon="151.2900641">
  <ele>343.1</ele>
  <time>2026-09-01T19:51:52Z</time>
  <course>10.77</course>
  <speed>0.022360679774997897</speed>
  <fix>3d</fix>
</trkpt>
<trkpt lat="-27.274439" lon="151.290064">
  <ele>343.1</ele>
  <time>2026-09-01T19:51:52Z</time>
  <course>270.0</course>
  <speed>0.0</speed>
  <fix>3d</fix>
</trkpt>
<trkpt lat="-27.2744391" lon="151.2900641">
  <ele>343.1</ele>
  <time>2026-09-01T19:51:52Z</time>
  <course>10.77</course>
  <speed>0.022360679774997897</speed>
  <fix>3d</fix>
</trkpt>
<trkpt lat="-27.274439" lon="151.290064">
  <ele>343.1</ele>
  <time>2026-09-01T19:51:52Z</time>
  <course>270.0</course>
  <speed>0.0</speed>
  <fix>3d</fix>
</trkpt>
<trkpt lat="-27.2744391" lon="151.2900641">
  <ele>343.1</ele>
  <time>2026-09-01T19:51:52Z</time>
  <course>10.78</course>
  <speed>0.022360679774997897</speed>
  <fix>3d</fix>
</trkpt>
<trkpt lat="-27.274439" lon="151.290064">
  <ele>343.1</ele>
  <time>2026-09-01T19:51:52Z</time>
  <course>270.0</course>
  <speed>0.0</speed>
  <fix>3d</fix>
</trkpt>
<trkpt lat="-27.2744391" lon="151.2900641">
  <ele>343.1</ele>
  <time>2026-09-01T19:51:52Z</time>
  <course>10.78</course>
  <speed>0.022360679774997897</speed>
  <fix>3d</fix>
</trkpt>
<trkpt lat="-27.274439" lon="151.290064">
  <ele>343.1</ele>
  <time>2026-09-01T19:51:52Z</time>
  <course>270.0</course>
  <speed>0.0</speed>
  <fix>3d</fix>
</trkpt>
<trkpt lat="-27.2744391" lon="151.2900641">
  <ele>343.11</ele>
  <time>2026-09-01T19:51:52Z</time>
  <course>10.78</course>
  <speed>0.022360679774997897</speed>
  <fix>3d</fix>
</trkpt>
<trkpt lat="-27.274439" lon="151.290064">
  <ele>343.1</ele>
  <time>2026-09-01T19:51:52Z</time>
  <course>270.0</course>
  <speed>0.0</speed>
  <fix>3d</fix>
</trkpt>
<trkpt lat="-27.2744391" lon="151.2900641">
  <ele>343.11</ele>
  <time>2026-09-01T19:51:52Z</time>
  <course>10.78</course>
  <speed>0.022360679774997897</speed>
  <fix>3d</fix>
</trkpt>
<trkpt lat="-27.274439" lon="151.290064">
  <ele>343.1</ele>
  <time>2026-09-01T19:51:52Z</time>
  <course>270.0</course>
  <speed>0.0</speed>
  <fix>3d</fix>
</trkpt>
<trkpt lat="-27.2744391" lon="151.2900641">
  <ele>343.11</ele>
  <time>2026-09-01T19:51:52Z</time>
  <course>10.78</course>
  <speed>0.022360679774997897</speed>
  <fix>3d</fix>
</trkpt>
<trkpt lat="-27.274439" lon="151.290064">
  <ele>343.1</ele>
  <time>2026-09-01T19:51:52Z</time>
  <course>270.0</course>
  <speed>0.0</speed>
  <fix>3d</fix>
</trkpt>
<trkpt lat="-27.2744391" lon="151.2900641">
  <ele>343.11</ele>
  <time>2026-09-01T19:51:52Z</time>
  <course>10.78</course>
  <speed>0.022360679774997897</speed>
  <fix>3d</fix>
</trkpt>
<trkpt lat="-27.274439" lon="151.290064">
  <ele>343.1</ele>
  <time>2026-09-01T19:51:52Z</time>
  <course>270.0</course>
  <speed>0.0</speed>
  <fix>3d</fix>
</trkpt>
<trkpt lat="-27.2744391" lon="151.2900641">
  <ele>343.12</ele>
  <time>2026-09-01T19:51:52Z</time>
  <course>10.78</course>
  <speed>0.022360679774997897</speed>
  <fix>3d</fix>
</trkpt>
<trkpt lat="-27.274439" lon="151.290064">
  <ele>343.1</ele>
  <time>2026-09-01T19:51:52Z</time>
  <course>270.0</course>
  <speed>0.0</speed>
  <fix>3d</fix>
</trkpt>
<trkpt lat="-27.2744391" lon="151.2900641">
  <ele>343.12</ele>
  <time>2026-09-01T19:51:52Z</time>
  <course>10.78</course>
  <speed>0.022360679774997897</speed>
  <fix>3d</fix>
</trkpt>
<trkpt lat="-27.274439" lon="151.290064">
  <ele>343.1</ele>
  <time>2026-09-01T19:51:52Z</time>
  <course>270.0</course>
  <speed>0.0</speed>
  <fix>3d</fix>
</trkpt>
<trkpt lat="-27.2744391" lon="151.2900641">
  <ele>343.12</ele>
  <time>2026-09-01T19:51:52Z</time>
  <course>10.78</course>
  <speed>0.022360679774997897</speed>
  <fix>3d</fix>
</trkpt>
<trkpt lat="-27.274439" lon="151.290064">
  <ele>343.1</ele>
  <time>2026-09-01T19:51:52Z</time>
  <course>270.0</course>
  <speed>0.0</speed>
  <fix>3d</fix>
</trkpt>
<trkpt lat="-27.2744392" lon="151.2900641">
  <ele>343.12</ele>
  <time>2026-09-01T19:51:52Z</time>
  <course>10.78</course>
  <speed>0.022360679774997897</speed>
  <fix>3d</fix>
</trkpt>
<trkpt lat="-27.274439" lon="151.290064">
  <ele>343.1</ele>
  <time>2026-09-01T19:51:52Z</time>
  <course>270.0</course>
  <speed>0.0</speed>
  <fix>3d</fix>
</trkpt>
<trkpt lat="-27.2744391" lon="151.2900641">
  <ele>343.12</ele>
  <time>2026-09-01T19:51:52Z</time>
  <course>10.78</course>
  <speed>0.022360679774997897</speed>
  <fix>3d</fix>
</trkpt>
<trkpt lat="-27.274439" lon="151.290064">
  <ele>343.1</ele>
  <time>2026-09-01T19:51:52Z</time>
  <course>270.0</course>
  <speed>0.0</speed>
  <fix>3d</fix>
</trkpt>
<trkpt lat="-27.2744392" lon="151.2900641">
  <ele>343.12</ele>
  <time>2026-09-01T19:51:52Z</time>
  <course>10.78</course>
  <speed>0.022360679774997897</speed>
  <fix>3d</fix>
</trkpt>
<trkpt lat="-27.274439" lon="151.290064">
  <ele>343.1</ele>
  <time>2026-09-01T19:51:52Z</time>
  <course>270.0</course>
  <speed>0.0</speed>
  <fix>3d</fix>
</trkpt>
<trkpt lat="-27.2744391" lon="151.2900641">
  <ele>343.12</ele>
  <time>2026-09-01T19:51:52Z</time>
  <course>10.78</course>
  <speed>0.022360679774997897</speed>
  <fix>3d</fix>
</trkpt>
<trkpt lat="-27.274439" lon="151.290064">
  <ele>343.1</ele>
  <time>2026-09-01T19:51:52Z</time>
  <course>270.0</course>
  <speed>0.0</speed>
  <fix>3d</fix>
</trkpt>
<trkpt lat="-27.2744392" lon="151.2900641">
  <ele>343.12</ele>
  <time>2026-09-01T19:51:52Z</time>
  <course>10.78</course>
  <speed>0.022360679774997897</speed>
  <fix>3d</fix>
</trkpt>
<trkpt lat="-27.274439" lon="151.290064">
  <ele>343.1</ele>
  <time>2026-09-01T19:51:52Z</time>
  <course>270.0</course>
  <speed>0.0</speed>
  <fix>3d</fix>
</trkpt>
<trkpt lat="-27.2744391" lon="151.2900641">
  <ele>343.12</ele>
  <time>2026-09-01T19:51:52Z</time>
  <course>10.78</course>
  <speed>0.022360679774997897</speed>
  <fix>3d</fix>
</trkpt>
<trkpt lat="-27.274439" lon="151.290064">
  <ele>343.1</ele>
  <time>2026-09-01T19:51:52Z</time>
  <course>270.0</course>
  <speed>0.0</speed>
  <fix>3d</fix>
</trkpt>
<trkpt lat="-27.2744391" lon="151.2900641">
  <ele>343.12</ele>
  <time>2026-09-01T19:51:52Z</time>
  <course>10.78</course>
  <speed>0.022360679774997897</speed>
  <fix>3d</fix>
</trkpt>
<trkpt lat="-27.274439" lon="151.290064">
  <ele>343.1</ele>
  <time>2026-09-01T19:51:52Z</time>
  <course>270.0</course>
  <speed>0.0</speed>
  <fix>3d</fix>
</trkpt>
<trkpt lat="-27.2744391" lon="151.2900641">
  <ele>343.11</ele>
  <time>2026-09-01T19:51:52Z</time>
  <course>10.79</course>
  <speed>0.022360679774997897</speed>
  <fix>3d</fix>
</trkpt>
<trkpt lat="-27.274439" lon="151.290064">
  <ele>343.1</ele>
  <time>2026-09-01T19:51:52Z</time>
  <course>270.0</course>
  <speed>0.0</speed>
  <fix>3d</fix>
</trkpt>
<trkpt lat="-27.2744392" lon="151.2900641">
  <ele>343.11</ele>
  <time>2026-09-01T19:51:52Z</time>
  <course>10.79</course>
  <speed>0.022360679774997897</speed>
  <fix>3d</fix>
</trkpt>
<trkpt lat="-27.274439" lon="151.290064">
  <ele>343.1</ele>
  <time>2026-09-01T19:51:52Z</time>
  <course>270.0</course>
  <speed>0.0</speed>
  <fix>3d</fix>
</trkpt>
<trkpt lat="-27.2744391" lon="151.2900641">
  <ele>343.11</ele>
  <time>2026-09-01T19:51:52Z</time>
  <course>10.79</course>
  <speed>0.022360679774997897</speed>
  <fix>3d</fix>
</trkpt>
<trkpt lat="-27.274439" lon="151.290064">
  <ele>343.1</ele>
  <time>2026-09-01T19:51:52Z</time>
  <course>270.0</course>
  <speed>0.0</speed>
  <fix>3d</fix>
</trkpt>
<trkpt lat="-27.2744392" lon="151.2900641">
  <ele>343.11</ele>
  <time>2026-09-01T19:51:52Z</time>
  <course>10.79</course>
  <speed>0.022360679774997897</speed>
  <fix>3d</fix>
</trkpt>
<trkpt lat="-27.274439" lon="151.290064">
  <ele>343.1</ele>
  <time>2026-09-01T19:51:52Z</time>
  <course>270.0</course>
  <speed>0.0</speed>
  <fix>3d</fix>
</trkpt>
<trkpt lat="-27.2744392" lon="151.2900641">
  <ele>343.11</ele>
  <time>2026-09-01T19:51:52Z</time>
  <course>10.79</course>
  <speed>0.022360679774997897</speed>
  <fix>3d</fix>
</trkpt>
<trkpt lat="-27.274439" lon="151.290064">
  <ele>343.1</ele>
  <time>2026-09-01T19:51:52Z</time>
  <course>270.0</course>
  <speed>0.0</speed>
  <fix>3d</fix>
</trkpt>
<trkpt lat="-27.2744392" lon="151.2900641">
  <ele>343.11</ele>
  <time>2026-09-01T19:51:52Z</time>
  <course>10.79</course>
  <speed>0.022360679774997897</speed>
  <fix>3d</fix>
</trkpt>
<trkpt lat="-27.274439" lon="151.290064">
  <ele>343.1</ele>
  <time>2026-09-01T19:51:52Z</time>
  <course>270.0</course>
  <speed>0.0</speed>
  <fix>3d</fix>
</trkpt>
<trkpt lat="-27.2744392" lon="151.2900641">
  <ele>343.1</ele>
  <time>2026-09-01T19:51:52Z</time>
  <course>10.79</course>
  <speed>0.022360679774997897</speed>
  <fix>3d</fix>
</trkpt>
<trkpt lat="-27.274439" lon="151.290064">
  <ele>343.1</ele>
  <time>2026-09-01T19:51:52Z</time>
  <course>270.0</course>
  <speed>0.0</speed>
  <fix>3d</fix>
</trkpt>
<trkpt lat="-27.2744392" lon="151.2900641">
  <ele>343.1</ele>
  <time>2026-09-01T19:51:52Z</time>
  <course>10.79</course>
  <speed>0.022360679774997897</speed>
  <fix>3d</fix>
</trkpt>
<trkpt lat="-27.274439" lon="151.290064">
  <ele>343.1</ele>
  <time>2026-09-01T19:51:52Z</time>
  <course>270.0</course>
  <speed>0.0</speed>
  <fix>3d</fix>
</trkpt>
<trkpt lat="-27.2744392" lon="151.2900641">
  <ele>343.1</ele>
  <time>2026-09-01T19:51:52Z</time>
  <course>10.79</course>
  <speed>0.022360679774997897</speed>
  <fix>3d</fix>
</trkpt>
<trkpt lat="-27.274439" lon="151.290064">
  <ele>343.1</ele>
  <time>2026-09-01T19:51:52Z</time>
  <course>270.0</course>
  <speed>0.0</speed>
  <fix>3d</fix>
</trkpt>
<trkpt lat="-27.2744392" lon="151.2900641">
  <ele>343.1</ele>
  <time>2026-09-01T19:51:52Z</time>
  <course>10.79</course>
  <speed>0.022360679774997897</speed>
  <fix>3d</fix>
</trkpt>
<trkpt lat="-27.274439" lon="151.290064">
  <ele>343.1</ele>
  <time>2026-09-01T19:51:52Z</time>
  <course>270.0</course>
  <speed>0.0</speed>
  <fix>3d</fix>
</trkpt>
<trkpt lat="-27.2744392" lon="151.2900641">
  <ele>343.1</ele>
  <time>2026-09-01T19:51:52Z</time>
  <course>10.79</course>
  <speed>0.022360679774997897</speed>
  <fix>3d</fix>
</trkpt>
<trkpt lat="-27.274439" lon="151.290064">
  <ele>343.1</ele>
  <time>2026-09-01T19:51:52Z</time>
  <course>270.0</course>
  <speed>0.0</speed>
  <fix>3d</fix>
</trkpt>
<trkpt lat="-27.2744392" lon="151.2900641">
  <ele>343.1</ele>
  <time>2026-09-01T19:51:52Z</time>
  <course>10.79</course>
  <speed>0.022360679774997897</speed>
  <fix>3d</fix>
</trkpt>
<trkpt lat="-27.274439" lon="151.290064">
  <ele>343.1</ele>
  <time>2026-09-01T19:51:52Z</time>
  <course>270.0</course>
  <speed>0.0</speed>
  <fix>3d</fix>
</trkpt>
<trkpt lat="-27.2744392" lon="151.2900641">
  <ele>343.1</ele>
  <time>2026-09-01T19:51:52Z</time>
  <course>10.79</course>
  <speed>0.022360679774997897</speed>
  <fix>3d</fix>
</trkpt>
<trkpt lat="-27.274439" lon="151.290064">
  <ele>343.1</ele>
  <time>2026-09-01T19:51:52Z</time>
  <course>270.0</course>
  <speed>0.0</speed>
  <fix>3d</fix>
</trkpt>
<trkpt lat="-27.2744392" lon="151.2900641">
  <ele>343.1</ele>
  <time>2026-09-01T19:51:52Z</time>
  <course>10.79</course>
  <speed>0.022360679774997897</speed>
  <fix>3d</fix>
</trkpt>
<trkpt lat="-27.274439" lon="151.290064">
  <ele>343.1</ele>
  <time>2026-09-01T19:51:52Z</time>
  <course>270.0</course>
  <speed>0.0</speed>
  <fix>3d</fix>
</trkpt>
<trkpt lat="-27.2744392" lon="151.2900641">
  <ele>343.1</ele>
  <time>2026-09-01T19:51:52Z</time>
  <course>10.79</course>
  <speed>0.022360679774997897</speed>
  <fix>3d</fix>
</trkpt>
<trkpt lat="-27.274439" lon="151.290064">
  <ele>343.1</ele>
  <time>2026-09-01T19:51:52Z</time>
  <course>270.0</course>
  <speed>0.0</speed>
  <fix>3d</fix>
</trkpt>
<trkpt lat="-27.2744392" lon="151.2900641">
  <ele>343.1</ele>
  <time>2026-09-01T19:51:52Z</time>
  <course>10.79</course>
  <speed>0.022360679774997897</speed>
  <fix>3d</fix>
</trkpt>
<trkpt lat="-27.274439" lon="151.290064">
  <ele>343.1</ele>
  <time>2026-09-01T19:51:52Z</time>
  <course>270.0</course>
  <speed>0.0</speed>
  <fix>3d</fix>
</trkpt>
<trkpt lat="-27.2744392" lon="151.2900641">
  <ele>343.1</ele>
  <time>2026-09-01T19:51:52Z</time>
  <course>10.79</course>
  <speed>0.022360679774997897</speed>
  <fix>3d</fix>
</trkpt>
<trkpt lat="-27.274439" lon="151.290064">
  <ele>343.1</ele>
  <time>2026-09-01T19:51:52Z</time>
  <course>270.0</course>
  <speed>0.0</speed>
  <fix>3d</fix>
</trkpt>
<trkpt lat="-27.2744392" lon="151.2900641">
  <ele>343.1</ele>
  <time>2026-09-01T19:51:52Z</time>
  <course>10.8</course>
  <speed>0.022360679774997897</speed>
  <fix>3d</fix>
</trkpt>
<trkpt lat="-27.274439" lon="151.290064">
  <ele>343.1</ele>
  <time>2026-09-01T19:51:52Z</time>
  <course>270.0</course>
  <speed>0.0</speed>
  <fix>3d</fix>
</trkpt>
<trkpt lat="-27.2744392" lon="151.2900641">
  <ele>343.1</ele>
  <time>2026-09-01T19:51:52Z</time>
  <course>10.8</course>
  <speed>0.022360679774997897</speed>
  <fix>3d</fix>
</trkpt>
<trkpt lat="-27.274439" lon="151.290064">
  <ele>343.1</ele>
  <time>2026-09-01T19:51:52Z</time>
  <course>270.0</course>
  <speed>0.0</speed>
  <fix>3d</fix>
</trkpt>
<trkpt lat="-27.2744392" lon="151.2900641">
  <ele>343.1</ele>
  <time>2026-09-01T19:51:52Z</time>
  <course>10.8</course>
  <speed>0.022360679774997897</speed>
  <fix>3d</fix>
</trkpt>
<trkpt lat="-27.274439" lon="151.290064">
  <ele>343.1</ele>
  <time>2026-09-01T19:51:52Z</time>
  <course>270.0</course>
  <speed>0.0</speed>
  <fix>3d</fix>
</trkpt>
<trkpt lat="-27.2744392" lon="151.2900641">
  <ele>343.1</ele>
  <time>2026-09-01T19:51:53Z</time>
  <course>10.8</course>
  <speed>0.022360679774997897</speed>
  <fix>3d</fix>
</trkpt>
<trkpt lat="-27.274439" lon="151.290064">
  <ele>343.1</ele>
  <time>2026-09-01T19:51:53Z</time>
  <course>270.0</course>
  <speed>0.0</speed>
  <fix>3d</fix>
</trkpt>
<trkpt lat="-27.2744392" lon="151.2900641">
  <ele>343.09</ele>
  <time>2026-09-01T19:51:53Z</time>
  <course>10.8</course>
  <speed>0.022360679774997897</speed>
  <fix>3d</fix>
</trkpt>
<trkpt lat="-27.274439" lon="151.290064">
  <ele>343.1</ele>
  <time>2026-09-01T19:51:53Z</time>
  <course>270.0</course>
  <speed>0.0</speed>
  <fix>3d</fix>
</trkpt>
<trkpt lat="-27.2744392" lon="151.2900641">
  <ele>343.09</ele>
  <time>2026-09-01T19:51:53Z</time>
  <course>10.8</course>
  <speed>0.022360679774997897</speed>
  <fix>3d</fix>
</trkpt>
<trkpt lat="-27.274439" lon="151.290064">
  <ele>343.1</ele>
  <time>2026-09-01T19:51:53Z</time>
  <course>270.0</course>
  <speed>0.0</speed>
  <fix>3d</fix>
</trkpt>
<trkpt lat="-27.2744392" lon="151.2900641">
  <ele>343.09</ele>
  <time>2026-09-01T19:51:53Z</time>
  <course>10.8</course>
  <speed>0.022360679774997897</speed>
  <fix>3d</fix>
</trkpt>
<trkpt lat="-27.274439" lon="151.290064">
  <ele>343.1</ele>
  <time>2026-09-01T19:51:53Z</time>
  <course>270.0</course>
  <speed>0.0</speed>
  <fix>3d</fix>
</trkpt>
<trkpt lat="-27.2744392" lon="151.2900641">
  <ele>343.09</ele>
  <time>2026-09-01T19:51:53Z</time>
  <course>10.8</course>
  <speed>0.022360679774997897</speed>
  <fix>3d</fix>
</trkpt>
<trkpt lat="-27.274439" lon="151.290064">
  <ele>343.1</ele>
  <time>2026-09-01T19:51:53Z</time>
  <course>270.0</course>
  <speed>0.0</speed>
  <fix>3d</fix>
</trkpt>
<trkpt lat="-27.2744392" lon="151.2900641">
  <ele>343.09</ele>
  <time>2026-09-01T19:51:53Z</time>
  <course>10.8</course>
  <speed>0.022360679774997897</speed>
  <fix>3d</fix>
</trkpt>
<trkpt lat="-27.274439" lon="151.290064">
  <ele>343.1</ele>
  <time>2026-09-01T19:51:53Z</time>
  <course>270.0</course>
  <speed>0.0</speed>
  <fix>3d</fix>
</trkpt>
<trkpt lat="-27.2744392" lon="151.2900641">
  <ele>343.08</ele>
  <time>2026-09-01T19:51:53Z</time>
  <course>10.8</course>
  <speed>0.022360679774997897</speed>
  <fix>3d</fix>
</trkpt>
<trkpt lat="-27.274439" lon="151.290064">
  <ele>343.1</ele>
  <time>2026-09-01T19:51:53Z</time>
  <course>270.0</course>
  <speed>0.0</speed>
  <fix>3d</fix>
</trkpt>
<trkpt lat="-27.2744392" lon="151.2900641">
  <ele>343.08</ele>
  <time>2026-09-01T19:51:53Z</time>
  <course>10.8</course>
  <speed>0.022360679774997897</speed>
  <fix>3d</fix>
</trkpt>
<trkpt lat="-27.274439" lon="151.290064">
  <ele>343.1</ele>
  <time>2026-09-01T19:51:53Z</time>
  <course>270.0</course>
  <speed>0.0</speed>
  <fix>3d</fix>
</trkpt>
<trkpt lat="-27.2744392" lon="151.2900641">
  <ele>343.08</ele>
  <time>2026-09-01T19:51:53Z</time>
  <course>10.8</course>
  <speed>0.022360679774997897</speed>
  <fix>3d</fix>
</trkpt>
<trkpt lat="-27.274439" lon="151.290064">
  <ele>343.1</ele>
  <time>2026-09-01T19:51:53Z</time>
  <course>270.0</course>
  <speed>0.0</speed>
  <fix>3d</fix>
</trkpt>
<trkpt lat="-27.2744392" lon="151.2900641">
  <ele>343.08</ele>
  <time>2026-09-01T19:51:53Z</time>
  <course>10.8</course>
  <speed>0.022360679774997897</speed>
  <fix>3d</fix>
</trkpt>
<trkpt lat="-27.274439" lon="151.290064">
  <ele>343.1</ele>
  <time>2026-09-01T19:51:53Z</time>
  <course>270.0</course>
  <speed>0.0</speed>
  <fix>3d</fix>
</trkpt>
<trkpt lat="-27.2744392" lon="151.2900641">
  <ele>343.08</ele>
  <time>2026-09-01T19:51:53Z</time>
  <course>10.8</course>
  <speed>0.022360679774997897</speed>
  <fix>3d</fix>
</trkpt>
<trkpt lat="-27.274439" lon="151.290064">
  <ele>343.1</ele>
  <time>2026-09-01T19:51:53Z</time>
  <course>270.0</course>
  <speed>0.0</speed>
  <fix>3d</fix>
</trkpt>
<trkpt lat="-27.2744392" lon="151.2900641">
  <ele>343.08</ele>
  <time>2026-09-01T19:51:53Z</time>
  <course>10.8</course>
  <speed>0.022360679774997897</speed>
  <fix>3d</fix>
</trkpt>
<trkpt lat="-27.274439" lon="151.290064">
  <ele>343.1</ele>
  <time>2026-09-01T19:51:53Z</time>
  <course>270.0</course>
  <speed>0.0</speed>
  <fix>3d</fix>
</trkpt>
<trkpt lat="-27.2744392" lon="151.2900641">
  <ele>343.09</ele>
  <time>2026-09-01T19:51:53Z</time>
  <course>10.81</course>
  <speed>0.022360679774997897</speed>
  <fix>3d</fix>
</trkpt>
<trkpt lat="-27.274439" lon="151.290064">
  <ele>343.1</ele>
  <time>2026-09-01T19:51:53Z</time>
  <course>270.0</course>
  <speed>0.0</speed>
  <fix>3d</fix>
</trkpt>
<trkpt lat="-27.2744392" lon="151.2900641">
  <ele>343.09</ele>
  <time>2026-09-01T19:51:53Z</time>
  <course>10.81</course>
  <speed>0.022360679774997897</speed>
  <fix>3d</fix>
</trkpt>
<trkpt lat="-27.274439" lon="151.290064">
  <ele>343.1</ele>
  <time>2026-09-01T19:51:53Z</time>
  <course>270.0</course>
  <speed>0.0</speed>
  <fix>3d</fix>
</trkpt>
<trkpt lat="-27.2744392" lon="151.2900641">
  <ele>343.09</ele>
  <time>2026-09-01T19:51:53Z</time>
  <course>10.81</course>
  <speed>0.022360679774997897</speed>
  <fix>3d</fix>
</trkpt>
<trkpt lat="-27.274439" lon="151.290064">
  <ele>343.1</ele>
  <time>2026-09-01T19:51:53Z</time>
  <course>270.0</course>
  <speed>0.0</speed>
  <fix>3d</fix>
</trkpt>
<trkpt lat="-27.2744392" lon="151.2900641">
  <ele>343.09</ele>
  <time>2026-09-01T19:51:53Z</time>
  <course>10.81</course>
  <speed>0.022360679774997897</speed>
  <fix>3d</fix>
</trkpt>
<trkpt lat="-27.274439" lon="151.290064">
  <ele>343.1</ele>
  <time>2026-09-01T19:51:53Z</time>
  <course>270.0</course>
  <speed>0.0</speed>
  <fix>3d</fix>
</trkpt>
<trkpt lat="-27.2744392" lon="151.2900641">
  <ele>343.09</ele>
  <time>2026-09-01T19:51:53Z</time>
  <course>10.81</course>
  <speed>0.022360679774997897</speed>
  <fix>3d</fix>
</trkpt>
<trkpt lat="-27.274439" lon="151.290064">
  <ele>343.1</ele>
  <time>2026-09-01T19:51:53Z</time>
  <course>270.0</course>
  <speed>0.0</speed>
  <fix>3d</fix>
</trkpt>
<trkpt lat="-27.2744392" lon="151.2900641">
  <ele>343.09</ele>
  <time>2026-09-01T19:51:53Z</time>
  <course>10.81</course>
  <speed>0.022360679774997897</speed>
  <fix>3d</fix>
</trkpt>
<trkpt lat="-27.274439" lon="151.290064">
  <ele>343.1</ele>
  <time>2026-09-01T19:51:53Z</time>
  <course>270.0</course>
  <speed>0.0</speed>
  <fix>3d</fix>
</trkpt>
<trkpt lat="-27.2744392" lon="151.2900641">
  <ele>343.09</ele>
  <time>2026-09-01T19:51:53Z</time>
  <course>10.81</course>
  <speed>0.022360679774997897</speed>
  <fix>3d</fix>
</trkpt>
<trkpt lat="-27.274439" lon="151.290064">
  <ele>343.1</ele>
  <time>2026-09-01T19:51:53Z</time>
  <course>270.0</course>
  <speed>0.0</speed>
  <fix>3d</fix>
</trkpt>
<trkpt lat="-27.2744392" lon="151.2900641">
  <ele>343.09</ele>
  <time>2026-09-01T19:51:53Z</time>
  <course>10.81</course>
  <speed>0.022360679774997897</speed>
  <fix>3d</fix>
</trkpt>
<trkpt lat="-27.274439" lon="151.290064">
  <ele>343.1</ele>
  <time>2026-09-01T19:51:53Z</time>
  <course>270.0</course>
  <speed>0.0</speed>
  <fix>3d</fix>
</trkpt>
<trkpt lat="-27.2744392" lon="151.2900641">
  <ele>343.1</ele>
  <time>2026-09-01T19:51:53Z</time>
  <course>10.81</course>
  <speed>0.022360679774997897</speed>
  <fix>3d</fix>
</trkpt>
<trkpt lat="-27.274439" lon="151.290064">
  <ele>343.1</ele>
  <time>2026-09-01T19:51:53Z</time>
  <course>270.0</course>
  <speed>0.0</speed>
  <fix>3d</fix>
</trkpt>
<trkpt lat="-27.2744392" lon="151.2900641">
  <ele>343.09</ele>
  <time>2026-09-01T19:51:53Z</time>
  <course>10.81</course>
  <speed>0.022360679774997897</speed>
  <fix>3d</fix>
</trkpt>
<trkpt lat="-27.274439" lon="151.290064">
  <ele>343.1</ele>
  <time>2026-09-01T19:51:53Z</time>
  <course>270.0</course>
  <speed>0.0</speed>
  <fix>3d</fix>
</trkpt>
<trkpt lat="-27.2744392" lon="151.2900641">
  <ele>343.09</ele>
  <time>2026-09-01T19:51:53Z</time>
  <course>10.81</course>
  <speed>0.022360679774997897</speed>
  <fix>3d</fix>
</trkpt>
<trkpt lat="-27.274439" lon="151.290064">
  <ele>343.1</ele>
  <time>2026-09-01T19:51:53Z</time>
  <course>270.0</course>
  <speed>0.0</speed>
  <fix>3d</fix>
</trkpt>
<trkpt lat="-27.2744392" lon="151.2900641">
  <ele>343.09</ele>
  <time>2026-09-01T19:51:53Z</time>
  <course>10.81</course>
  <speed>0.022360679774997897</speed>
  <fix>3d</fix>
</trkpt>
<trkpt lat="-27.274439" lon="151.290064">
  <ele>343.1</ele>
  <time>2026-09-01T19:51:53Z</time>
  <course>270.0</course>
  <speed>0.0</speed>
  <fix>3d</fix>
</trkpt>
<trkpt lat="-27.2744392" lon="151.2900641">
  <ele>343.09</ele>
  <time>2026-09-01T19:51:53Z</time>
  <course>10.81</course>
  <speed>0.022360679774997897</speed>
  <fix>3d</fix>
</trkpt>
<trkpt lat="-27.274439" lon="151.290064">
  <ele>343.1</ele>
  <time>2026-09-01T19:51:53Z</time>
  <course>270.0</course>
  <speed>0.0</speed>
  <fix>3d</fix>
</trkpt>
<trkpt lat="-27.2744392" lon="151.2900641">
  <ele>343.1</ele>
  <time>2026-09-01T19:51:53Z</time>
  <course>10.81</course>
  <speed>0.022360679774997897</speed>
  <fix>3d</fix>
</trkpt>
<trkpt lat="-27.274439" lon="151.290064">
  <ele>343.1</ele>
  <time>2026-09-01T19:51:53Z</time>
  <course>270.0</course>
  <speed>0.0</speed>
  <fix>3d</fix>
</trkpt>
<trkpt lat="-27.2744392" lon="151.2900641">
  <ele>343.1</ele>
  <time>2026-09-01T19:51:53Z</time>
  <course>10.81</course>
  <speed>0.022360679774997897</speed>
  <fix>3d</fix>
</trkpt>
<trkpt lat="-27.274439" lon="151.290064">
  <ele>343.1</ele>
  <time>2026-09-01T19:51:53Z</time>
  <course>270.0</course>
  <speed>0.0</speed>
  <fix>3d</fix>
</trkpt>
<trkpt lat="-27.2744392" lon="151.2900641">
  <ele>343.1</ele>
  <time>2026-09-01T19:51:53Z</time>
  <course>10.82</course>
  <speed>0.022360679774997897</speed>
  <fix>3d</fix>
</trkpt>
<trkpt lat="-27.274439" lon="151.290064">
  <ele>343.1</ele>
  <time>2026-09-01T19:51:53Z</time>
  <course>270.0</course>
  <speed>0.0</speed>
  <fix>3d</fix>
</trkpt>
<trkpt lat="-27.2744392" lon="151.2900641">
  <ele>343.1</ele>
  <time>2026-09-01T19:51:53Z</time>
  <course>10.82</course>
  <speed>0.022360679774997897</speed>
  <fix>3d</fix>
</trkpt>
<trkpt lat="-27.274439" lon="151.290064">
  <ele>343.1</ele>
  <time>2026-09-01T19:51:53Z</time>
  <course>270.0</course>
  <speed>0.0</speed>
  <fix>3d</fix>
</trkpt>
<trkpt lat="-27.2744392" lon="151.2900641">
  <ele>343.1</ele>
  <time>2026-09-01T19:51:53Z</time>
  <course>10.82</course>
  <speed>0.022360679774997897</speed>
  <fix>3d</fix>
</trkpt>
<trkpt lat="-27.274439" lon="151.290064">
  <ele>343.1</ele>
  <time>2026-09-01T19:51:53Z</time>
  <course>270.0</course>
  <speed>0.0</speed>
  <fix>3d</fix>
</trkpt>
<trkpt lat="-27.2744392" lon="151.2900641">
  <ele>343.1</ele>
  <time>2026-09-01T19:51:53Z</time>
  <course>10.82</course>
  <speed>0.022360679774997897</speed>
  <fix>3d</fix>
</trkpt>
<trkpt lat="-27.274439" lon="151.290064">
  <ele>343.1</ele>
  <time>2026-09-01T19:51:53Z</time>
  <course>270.0</course>
  <speed>0.0</speed>
  <fix>3d</fix>
</trkpt>
<trkpt lat="-27.2744392" lon="151.2900641">
  <ele>343.1</ele>
  <time>2026-09-01T19:51:53Z</time>
  <course>10.82</course>
  <speed>0.022360679774997897</speed>
  <fix>3d</fix>
</trkpt>
<trkpt lat="-27.274439" lon="151.290064">
  <ele>343.1</ele>
  <time>2026-09-01T19:51:53Z</time>
  <course>270.0</course>
  <speed>0.0</speed>
  <fix>3d</fix>
</trkpt>
<trkpt lat="-27.2744392" lon="151.2900641">
  <ele>343.1</ele>
  <time>2026-09-01T19:51:53Z</time>
  <course>10.82</course>
  <speed>0.022360679774997897</speed>
  <fix>3d</fix>
</trkpt>
<trkpt lat="-27.274439" lon="151.290064">
  <ele>343.1</ele>
  <time>2026-09-01T19:51:53Z</time>
  <course>270.0</course>
  <speed>0.0</speed>
  <fix>3d</fix>
</trkpt>
<trkpt lat="-27.2744392" lon="151.2900641">
  <ele>343.1</ele>
  <time>2026-09-01T19:51:53Z</time>
  <course>10.82</course>
  <speed>0.022360679774997897</speed>
  <fix>3d</fix>
</trkpt>
<trkpt lat="-27.274439" lon="151.290064">
  <ele>343.1</ele>
  <time>2026-09-01T19:51:53Z</time>
  <course>270.0</course>
  <speed>0.0</speed>
  <fix>3d</fix>
</trkpt>
<trkpt lat="-27.2744392" lon="151.2900641">
  <ele>343.1</ele>
  <time>2026-09-01T19:51:53Z</time>
  <course>10.82</course>
  <speed>0.022360679774997897</speed>
  <fix>3d</fix>
</trkpt>
<trkpt lat="-27.274439" lon="151.290064">
  <ele>343.1</ele>
  <time>2026-09-01T19:51:53Z</time>
  <course>270.0</course>
  <speed>0.0</speed>
  <fix>3d</fix>
</trkpt>
<trkpt lat="-27.2744392" lon="151.2900641">
  <ele>343.1</ele>
  <time>2026-09-01T19:51:53Z</time>
  <course>10.82</course>
  <speed>0.022360679774997897</speed>
  <fix>3d</fix>
</trkpt>
<trkpt lat="-27.274439" lon="151.290064">
  <ele>343.1</ele>
  <time>2026-09-01T19:51:53Z</time>
  <course>270.0</course>
  <speed>0.0</speed>
  <fix>3d</fix>
</trkpt>
<trkpt lat="-27.2744392" lon="151.2900641">
  <ele>343.1</ele>
  <time>2026-09-01T19:51:53Z</time>
  <course>10.82</course>
  <speed>0.022360679774997897</speed>
  <fix>3d</fix>
</trkpt>
<trkpt lat="-27.274439" lon="151.290064">
  <ele>343.1</ele>
  <time>2026-09-01T19:51:53Z</time>
  <course>270.0</course>
  <speed>0.0</speed>
  <fix>3d</fix>
</trkpt>
<trkpt lat="-27.2744392" lon="151.2900641">
  <ele>343.1</ele>
  <time>2026-09-01T19:51:53Z</time>
  <course>10.82</course>
  <speed>0.022360679774997897</speed>
  <fix>3d</fix>
</trkpt>
<trkpt lat="-27.274439" lon="151.290064">
  <ele>343.1</ele>
  <time>2026-09-01T19:51:53Z</time>
  <course>270.0</course>
  <speed>0.0</speed>
  <fix>3d</fix>
</trkpt>
<trkpt lat="-27.2744392" lon="151.2900641">
  <ele>343.11</ele>
  <time>2026-09-01T19:51:53Z</time>
  <course>10.82</course>
  <speed>0.022360679774997897</speed>
  <fix>3d</fix>
</trkpt>
<trkpt lat="-27.274439" lon="151.290064">
  <ele>343.1</ele>
  <time>2026-09-01T19:51:53Z</time>
  <course>270.0</course>
  <speed>0.0</speed>
  <fix>3d</fix>
</trkpt>
<trkpt lat="-27.2744392" lon="151.2900641">
  <ele>343.11</ele>
  <time>2026-09-01T19:51:53Z</time>
  <course>10.82</course>
  <speed>0.022360679774997897</speed>
  <fix>3d</fix>
</trkpt>
<trkpt lat="-27.274439" lon="151.290064">
  <ele>343.1</ele>
  <time>2026-09-01T19:51:53Z</time>
  <course>270.0</course>
  <speed>0.0</speed>
  <fix>3d</fix>
</trkpt>
<trkpt lat="-27.2744392" lon="151.2900641">
  <ele>343.11</ele>
  <time>2026-09-01T19:51:53Z</time>
  <course>10.82</course>
  <speed>0.022360679774997897</speed>
  <fix>3d</fix>
</trkpt>
<trkpt lat="-27.274439" lon="151.290064">
  <ele>343.1</ele>
  <time>2026-09-01T19:51:53Z</time>
  <course>270.0</course>
  <speed>0.0</speed>
  <fix>3d</fix>
</trkpt>
<trkpt lat="-27.2744392" lon="151.2900641">
  <ele>343.11</ele>
  <time>2026-09-01T19:51:53Z</time>
  <course>10.82</course>
  <speed>0.022360679774997897</speed>
  <fix>3d</fix>
</trkpt>
<trkpt lat="-27.274439" lon="151.290064">
  <ele>343.1</ele>
  <time>2026-09-01T19:51:53Z</time>
  <course>270.0</course>
  <speed>0.0</speed>
  <fix>3d</fix>
</trkpt>
<trkpt lat="-27.2744392" lon="151.2900641">
  <ele>343.11</ele>
  <time>2026-09-01T19:51:53Z</time>
  <course>10.83</course>
  <speed>0.022360679774997897</speed>
  <fix>3d</fix>
</trkpt>
<trkpt lat="-27.274439" lon="151.290064">
  <ele>343.1</ele>
  <time>2026-09-01T19:51:53Z</time>
  <course>270.0</course>
  <speed>0.0</speed>
  <fix>3d</fix>
</trkpt>
<trkpt lat="-27.2744392" lon="151.2900641">
  <ele>343.12</ele>
  <time>2026-09-01T19:51:53Z</time>
  <course>10.83</course>
  <speed>0.022360679774997897</speed>
  <fix>3d</fix>
</trkpt>
<trkpt lat="-27.274439" lon="151.290064">
  <ele>343.1</ele>
  <time>2026-09-01T19:51:53Z</time>
  <course>270.0</course>
  <speed>0.0</speed>
  <fix>3d</fix>
</trkpt>
<trkpt lat="-27.2744392" lon="151.2900641">
  <ele>343.12</ele>
  <time>2026-09-01T19:51:53Z</time>
  <course>10.83</course>
  <speed>0.022360679774997897</speed>
  <fix>3d</fix>
</trkpt>
<trkpt lat="-27.274439" lon="151.290064">
  <ele>343.1</ele>
  <time>2026-09-01T19:51:53Z</time>
  <course>270.0</course>
  <speed>0.0</speed>
  <fix>3d</fix>
</trkpt>
<trkpt lat="-27.2744392" lon="151.2900641">
  <ele>343.12</ele>
  <time>2026-09-01T19:51:53Z</time>
  <course>10.83</course>
  <speed>0.022360679774997897</speed>
  <fix>3d</fix>
</trkpt>
<trkpt lat="-27.274439" lon="151.290064">
  <ele>343.1</ele>
  <time>2026-09-01T19:51:53Z</time>
  <course>270.0</course>
  <speed>0.0</speed>
  <fix>3d</fix>
</trkpt>
<trkpt lat="-27.2744392" lon="151.2900641">
  <ele>343.12</ele>
  <time>2026-09-01T19:51:53Z</time>
  <course>10.83</course>
  <speed>0.022360679774997897</speed>
  <fix>3d</fix>
</trkpt>
<trkpt lat="-27.274439" lon="151.290064">
  <ele>343.1</ele>
  <time>2026-09-01T19:51:53Z</time>
  <course>270.0</course>
  <speed>0.0</speed>
  <fix>3d</fix>
</trkpt>
<trkpt lat="-27.2744392" lon="151.2900641">
  <ele>343.12</ele>
  <time>2026-09-01T19:51:53Z</time>
  <course>10.83</course>
  <speed>0.022360679774997897</speed>
  <fix>3d</fix>
</trkpt>
<trkpt lat="-27.274439" lon="151.290064">
  <ele>343.1</ele>
  <time>2026-09-01T19:51:53Z</time>
  <course>270.0</course>
  <speed>0.0</speed>
  <fix>3d</fix>
</trkpt>
<trkpt lat="-27.2744392" lon="151.2900641">
  <ele>343.12</ele>
  <time>2026-09-01T19:51:53Z</time>
  <course>10.83</course>
  <speed>0.022360679774997897</speed>
  <fix>3d</fix>
</trkpt>
<trkpt lat="-27.274439" lon="151.290064">
  <ele>343.1</ele>
  <time>2026-09-01T19:51:53Z</time>
  <course>270.0</course>
  <speed>0.0</speed>
  <fix>3d</fix>
</trkpt>
<trkpt lat="-27.2744392" lon="151.2900641">
  <ele>343.12</ele>
  <time>2026-09-01T19:51:53Z</time>
  <course>10.83</course>
  <speed>0.022360679774997897</speed>
  <fix>3d</fix>
</trkpt>
<trkpt lat="-27.274439" lon="151.290064">
  <ele>343.1</ele>
  <time>2026-09-01T19:51:53Z</time>
  <course>270.0</course>
  <speed>0.0</speed>
  <fix>3d</fix>
</trkpt>
<trkpt lat="-27.2744392" lon="151.2900641">
  <ele>343.12</ele>
  <time>2026-09-01T19:51:53Z</time>
  <course>10.83</course>
  <speed>0.022360679774997897</speed>
  <fix>3d</fix>
</trkpt>
<trkpt lat="-27.274439" lon="151.290064">
  <ele>343.1</ele>
  <time>2026-09-01T19:51:53Z</time>
  <course>270.0</course>
  <speed>0.0</speed>
  <fix>3d</fix>
</trkpt>
<trkpt lat="-27.2744392" lon="151.2900641">
  <ele>343.13</ele>
  <time>2026-09-01T19:51:53Z</time>
  <course>10.83</course>
  <speed>0.022360679774997897</speed>
  <fix>3d</fix>
</trkpt>
<trkpt lat="-27.274439" lon="151.290064">
  <ele>343.1</ele>
  <time>2026-09-01T19:51:53Z</time>
  <course>270.0</course>
  <speed>0.0</speed>
  <fix>3d</fix>
</trkpt>
<trkpt lat="-27.2744392" lon="151.2900641">
  <ele>343.13</ele>
  <time>2026-09-01T19:51:53Z</time>
  <course>10.83</course>
  <speed>0.022360679774997897</speed>
  <fix>3d</fix>
</trkpt>
<trkpt lat="-27.274439" lon="151.290064">
  <ele>343.1</ele>
  <time>2026-09-01T19:51:53Z</time>
  <course>270.0</course>
  <speed>0.0</speed>
  <fix>3d</fix>
</trkpt>
<trkpt lat="-27.2744392" lon="151.2900641">
  <ele>343.13</ele>
  <time>2026-09-01T19:51:53Z</time>
  <course>10.83</course>
  <speed>0.022360679774997897</speed>
  <fix>3d</fix>
</trkpt>
<trkpt lat="-27.274439" lon="151.290064">
  <ele>343.1</ele>
  <time>2026-09-01T19:51:53Z</time>
  <course>270.0</course>
  <speed>0.0</speed>
  <fix>3d</fix>
</trkpt>
<trkpt lat="-27.2744392" lon="151.2900641">
  <ele>343.13</ele>
  <time>2026-09-01T19:51:53Z</time>
  <course>10.83</course>
  <speed>0.022360679774997897</speed>
  <fix>3d</fix>
</trkpt>
<trkpt lat="-27.274439" lon="151.290064">
  <ele>343.1</ele>
  <time>2026-09-01T19:51:53Z</time>
  <course>270.0</course>
  <speed>0.0</speed>
  <fix>3d</fix>
</trkpt>
<trkpt lat="-27.2744392" lon="151.2900641">
  <ele>343.13</ele>
  <time>2026-09-01T19:51:53Z</time>
  <course>10.83</course>
  <speed>0.022360679774997897</speed>
  <fix>3d</fix>
</trkpt>
<trkpt lat="-27.274439" lon="151.290064">
  <ele>343.1</ele>
  <time>2026-09-01T19:51:53Z</time>
  <course>270.0</course>
  <speed>0.0</speed>
  <fix>3d</fix>
</trkpt>
<trkpt lat="-27.2744392" lon="151.2900641">
  <ele>343.13</ele>
  <time>2026-09-01T19:51:53Z</time>
  <course>10.84</course>
  <speed>0.022360679774997897</speed>
  <fix>3d</fix>
</trkpt>
<trkpt lat="-27.274439" lon="151.290064">
  <ele>343.1</ele>
  <time>2026-09-01T19:51:53Z</time>
  <course>270.0</course>
  <speed>0.0</speed>
  <fix>3d</fix>
</trkpt>
<trkpt lat="-27.2744392" lon="151.2900641">
  <ele>343.14</ele>
  <time>2026-09-01T19:51:53Z</time>
  <course>10.84</course>
  <speed>0.022360679774997897</speed>
  <fix>3d</fix>
</trkpt>
<trkpt lat="-27.274439" lon="151.290064">
  <ele>343.1</ele>
  <time>2026-09-01T19:51:53Z</time>
  <course>270.0</course>
  <speed>0.0</speed>
  <fix>3d</fix>
</trkpt>
<trkpt lat="-27.2744392" lon="151.2900641">
  <ele>343.14</ele>
  <time>2026-09-01T19:51:53Z</time>
  <course>10.84</course>
  <speed>0.022360679774997897</speed>
  <fix>3d</fix>
</trkpt>
<trkpt lat="-27.274439" lon="151.290064">
  <ele>343.1</ele>
  <time>2026-09-01T19:51:53Z</time>
  <course>270.0</course>
  <speed>0.0</speed>
  <fix>3d</fix>
</trkpt>
<trkpt lat="-27.2744392" lon="151.2900641">
  <ele>343.14</ele>
  <time>2026-09-01T19:51:53Z</time>
  <course>10.84</course>
  <speed>0.022360679774997897</speed>
  <fix>3d</fix>
</trkpt>
<trkpt lat="-27.274439" lon="151.290064">
  <ele>343.1</ele>
  <time>2026-09-01T19:51:53Z</time>
  <course>270.0</course>
  <speed>0.0</speed>
  <fix>3d</fix>
</trkpt>
<trkpt lat="-27.2744392" lon="151.2900641">
  <ele>343.15</ele>
  <time>2026-09-01T19:51:53Z</time>
  <course>10.84</course>
  <speed>0.022360679774997897</speed>
  <fix>3d</fix>
</trkpt>
<trkpt lat="-27.274439" lon="151.290064">
  <ele>343.1</ele>
  <time>2026-09-01T19:51:53Z</time>
  <course>270.0</course>
  <speed>0.0</speed>
  <fix>3d</fix>
</trkpt>
<trkpt lat="-27.2744392" lon="151.2900641">
  <ele>343.15</ele>
  <time>2026-09-01T19:51:53Z</time>
  <course>10.84</course>
  <speed>0.022360679774997897</speed>
  <fix>3d</fix>
</trkpt>
<trkpt lat="-27.274439" lon="151.290064">
  <ele>343.1</ele>
  <time>2026-09-01T19:51:53Z</time>
  <course>270.0</course>
  <speed>0.0</speed>
  <fix>3d</fix>
</trkpt>
<trkpt lat="-27.2744392" lon="151.2900641">
  <ele>343.15</ele>
  <time>2026-09-01T19:51:53Z</time>
  <course>10.84</course>
  <speed>0.022360679774997897</speed>
  <fix>3d</fix>
</trkpt>
<trkpt lat="-27.274439" lon="151.290064">
  <ele>343.1</ele>
  <time>2026-09-01T19:51:53Z</time>
  <course>270.0</course>
  <speed>0.0</speed>
  <fix>3d</fix>
</trkpt>
<trkpt lat="-27.2744392" lon="151.2900641">
  <ele>343.15</ele>
  <time>2026-09-01T19:51:53Z</time>
  <course>10.84</course>
  <speed>0.022360679774997897</speed>
  <fix>3d</fix>
</trkpt>
<trkpt lat="-27.274439" lon="151.290064">
  <ele>343.1</ele>
  <time>2026-09-01T19:51:53Z</time>
  <course>270.0</course>
  <speed>0.0</speed>
  <fix>3d</fix>
</trkpt>
<trkpt lat="-27.2744392" lon="151.2900641">
  <ele>343.15</ele>
  <time>2026-09-01T19:51:53Z</time>
  <course>10.84</course>
  <speed>0.022360679774997897</speed>
  <fix>3d</fix>
</trkpt>
<trkpt lat="-27.274439" lon="151.290064">
  <ele>343.1</ele>
  <time>2026-09-01T19:51:53Z</time>
  <course>270.0</course>
  <speed>0.0</speed>
  <fix>3d</fix>
</trkpt>
<trkpt lat="-27.2744392" lon="151.2900641">
  <ele>343.15</ele>
  <time>2026-09-01T19:51:53Z</time>
  <course>10.84</course>
  <speed>0.022360679774997897</speed>
  <fix>3d</fix>
</trkpt>
<trkpt lat="-27.274439" lon="151.290064">
  <ele>343.1</ele>
  <time>2026-09-01T19:51:53Z</time>
  <course>270.0</course>
  <speed>0.0</speed>
  <fix>3d</fix>
</trkpt>
<trkpt lat="-27.2744392" lon="151.2900641">
  <ele>343.15</ele>
  <time>2026-09-01T19:51:53Z</time>
  <course>10.84</course>
  <speed>0.022360679774997897</speed>
  <fix>3d</fix>
</trkpt>
<trkpt lat="-27.274439" lon="151.290064">
  <ele>343.1</ele>
  <time>2026-09-01T19:51:53Z</time>
  <course>270.0</course>
  <speed>0.0</speed>
  <fix>3d</fix>
</trkpt>
<trkpt lat="-27.2744392" lon="151.2900641">
  <ele>343.16</ele>
  <time>2026-09-01T19:51:53Z</time>
  <course>10.84</course>
  <speed>0.022360679774997897</speed>
  <fix>3d</fix>
</trkpt>
<trkpt lat="-27.274439" lon="151.290064">
  <ele>343.1</ele>
  <time>2026-09-01T19:51:53Z</time>
  <course>270.0</course>
  <speed>0.0</speed>
  <fix>3d</fix>
</trkpt>
<trkpt lat="-27.2744392" lon="151.2900641">
  <ele>343.16</ele>
  <time>2026-09-01T19:51:53Z</time>
  <course>10.84</course>
  <speed>0.022360679774997897</speed>
  <fix>3d</fix>
</trkpt>
<trkpt lat="-27.274439" lon="151.290064">
  <ele>343.1</ele>
  <time>2026-09-01T19:51:53Z</time>
  <course>270.0</course>
  <speed>0.0</speed>
  <fix>3d</fix>
</trkpt>
<trkpt lat="-27.2744392" lon="151.2900641">
  <ele>343.16</ele>
  <time>2026-09-01T19:51:53Z</time>
  <course>10.85</course>
  <speed>0.022360679774997897</speed>
  <fix>3d</fix>
</trkpt>
<trkpt lat="-27.274439" lon="151.290064">
  <ele>343.1</ele>
  <time>2026-09-01T19:51:53Z</time>
  <course>270.0</course>
  <speed>0.0</speed>
  <fix>3d</fix>
</trkpt>
<trkpt lat="-27.2744392" lon="151.2900641">
  <ele>343.16</ele>
  <time>2026-09-01T19:51:53Z</time>
  <course>10.85</course>
  <speed>0.022360679774997897</speed>
  <fix>3d</fix>
</trkpt>
<trkpt lat="-27.274439" lon="151.290064">
  <ele>343.1</ele>
  <time>2026-09-01T19:51:53Z</time>
  <course>270.0</course>
  <speed>0.0</speed>
  <fix>3d</fix>
</trkpt>
<trkpt lat="-27.2744392" lon="151.2900641">
  <ele>343.16</ele>
  <time>2026-09-01T19:51:53Z</time>
  <course>10.85</course>
  <speed>0.022360679774997897</speed>
  <fix>3d</fix>
</trkpt>
<trkpt lat="-27.274439" lon="151.290064">
  <ele>343.1</ele>
  <time>2026-09-01T19:51:53Z</time>
  <course>270.0</course>
  <speed>0.0</speed>
  <fix>3d</fix>
</trkpt>
<trkpt lat="-27.2744392" lon="151.2900641">
  <ele>343.17</ele>
  <time>2026-09-01T19:51:53Z</time>
  <course>10.85</course>
  <speed>0.022360679774997897</speed>
  <fix>3d</fix>
</trkpt>
<trkpt lat="-27.274439" lon="151.290064">
  <ele>343.1</ele>
  <time>2026-09-01T19:51:53Z</time>
  <course>270.0</course>
  <speed>0.0</speed>
  <fix>3d</fix>
</trkpt>
<trkpt lat="-27.2744392" lon="151.2900641">
  <ele>343.17</ele>
  <time>2026-09-01T19:51:53Z</time>
  <course>10.85</course>
  <speed>0.022360679774997897</speed>
  <fix>3d</fix>
</trkpt>
<trkpt lat="-27.274439" lon="151.290064">
  <ele>343.1</ele>
  <time>2026-09-01T19:51:53Z</time>
  <course>270.0</course>
  <speed>0.0</speed>
  <fix>3d</fix>
</trkpt>
<trkpt lat="-27.2744392" lon="151.2900641">
  <ele>343.17</ele>
  <time>2026-09-01T19:51:53Z</time>
  <course>10.85</course>
  <speed>0.022360679774997897</speed>
  <fix>3d</fix>
</trkpt>
<trkpt lat="-27.274439" lon="151.290064">
  <ele>343.1</ele>
  <time>2026-09-01T19:51:53Z</time>
  <course>270.0</course>
  <speed>0.0</speed>
  <fix>3d</fix>
</trkpt>
<trkpt lat="-27.2744392" lon="151.2900641">
  <ele>343.17</ele>
  <time>2026-09-01T19:51:53Z</time>
  <course>10.85</course>
  <speed>0.022360679774997897</speed>
  <fix>3d</fix>
</trkpt>
<trkpt lat="-27.274439" lon="151.290064">
  <ele>343.1</ele>
  <time>2026-09-01T19:51:53Z</time>
  <course>270.0</course>
  <speed>0.0</speed>
  <fix>3d</fix>
</trkpt>
<trkpt lat="-27.2744392" lon="151.2900641">
  <ele>343.16</ele>
  <time>2026-09-01T19:51:53Z</time>
  <course>10.85</course>
  <speed>0.022360679774997897</speed>
  <fix>3d</fix>
</trkpt>
<trkpt lat="-27.274439" lon="151.290064">
  <ele>343.1</ele>
  <time>2026-09-01T19:51:53Z</time>
  <course>270.0</course>
  <speed>0.0</speed>
  <fix>3d</fix>
</trkpt>
<trkpt lat="-27.2744392" lon="151.2900641">
  <ele>343.16</ele>
  <time>2026-09-01T19:51:53Z</time>
  <course>10.85</course>
  <speed>0.022360679774997897</speed>
  <fix>3d</fix>
</trkpt>
<trkpt lat="-27.274439" lon="151.290064">
  <ele>343.1</ele>
  <time>2026-09-01T19:51:53Z</time>
  <course>270.0</course>
  <speed>0.0</speed>
  <fix>3d</fix>
</trkpt>
<trkpt lat="-27.2744392" lon="151.2900641">
  <ele>343.16</ele>
  <time>2026-09-01T19:51:53Z</time>
  <course>10.85</course>
  <speed>0.022360679774997897</speed>
  <fix>3d</fix>
</trkpt>
<trkpt lat="-27.274439" lon="151.290064">
  <ele>343.1</ele>
  <time>2026-09-01T19:51:53Z</time>
  <course>270.0</course>
  <speed>0.0</speed>
  <fix>3d</fix>
</trkpt>
<trkpt lat="-27.2744392" lon="151.2900641">
  <ele>343.16</ele>
  <time>2026-09-01T19:51:53Z</time>
  <course>10.85</course>
  <speed>0.022360679774997897</speed>
  <fix>3d</fix>
</trkpt>
<trkpt lat="-27.274439" lon="151.290064">
  <ele>343.1</ele>
  <time>2026-09-01T19:51:53Z</time>
  <course>270.0</course>
  <speed>0.0</speed>
  <fix>3d</fix>
</trkpt>
<trkpt lat="-27.2744392" lon="151.2900641">
  <ele>343.09</ele>
  <time>2026-09-01T19:51:53Z</time>
  <course>10.85</course>
  <speed>0.022360679774997897</speed>
  <fix>3d</fix>
</trkpt>
<trkpt lat="-27.274439" lon="151.290064">
  <ele>343.1</ele>
  <time>2026-09-01T19:51:53Z</time>
  <course>270.0</course>
  <speed>0.0</speed>
  <fix>3d</fix>
</trkpt>
<trkpt lat="-27.2744392" lon="151.2900641">
  <ele>343.09</ele>
  <time>2026-09-01T19:51:53Z</time>
  <course>10.85</course>
  <speed>0.022360679774997897</speed>
  <fix>3d</fix>
</trkpt>
<trkpt lat="-27.274439" lon="151.290064">
  <ele>343.1</ele>
  <time>2026-09-01T19:51:53Z</time>
  <course>270.0</course>
  <speed>0.0</speed>
  <fix>3d</fix>
</trkpt>
<trkpt lat="-27.2744392" lon="151.2900641">
  <ele>343.09</ele>
  <time>2026-09-01T19:51:53Z</time>
  <course>10.86</course>
  <speed>0.022360679774997897</speed>
  <fix>3d</fix>
</trkpt>
<trkpt lat="-27.274439" lon="151.290064">
  <ele>343.1</ele>
  <time>2026-09-01T19:51:53Z</time>
  <course>270.0</course>
  <speed>0.0</speed>
  <fix>3d</fix>
</trkpt>
<trkpt lat="-27.2744392" lon="151.2900641">
  <ele>343.09</ele>
  <time>2026-09-01T19:51:53Z</time>
  <course>10.86</course>
  <speed>0.022360679774997897</speed>
  <fix>3d</fix>
</trkpt>
<trkpt lat="-27.274439" lon="151.290064">
  <ele>343.1</ele>
  <time>2026-09-01T19:51:53Z</time>
  <course>270.0</course>
  <speed>0.0</speed>
  <fix>3d</fix>
</trkpt>
<trkpt lat="-27.2744392" lon="151.2900641">
  <ele>343.1</ele>
  <time>2026-09-01T19:51:53Z</time>
  <course>10.86</course>
  <speed>0.022360679774997897</speed>
  <fix>3d</fix>
</trkpt>
<trkpt lat="-27.274439" lon="151.290064">
  <ele>343.1</ele>
  <time>2026-09-01T19:51:53Z</time>
  <course>270.0</course>
  <speed>0.0</speed>
  <fix>3d</fix>
</trkpt>
<trkpt lat="-27.2744392" lon="151.2900641">
  <ele>343.1</ele>
  <time>2026-09-01T19:51:53Z</time>
  <course>10.86</course>
  <speed>0.022360679774997897</speed>
  <fix>3d</fix>
</trkpt>
<trkpt lat="-27.274439" lon="151.290064">
  <ele>343.1</ele>
  <time>2026-09-01T19:51:53Z</time>
  <course>270.0</course>
  <speed>0.0</speed>
  <fix>3d</fix>
</trkpt>
<trkpt lat="-27.2744392" lon="151.2900641">
  <ele>343.1</ele>
  <time>2026-09-01T19:51:54Z</time>
  <course>10.86</course>
  <speed>0.022360679774997897</speed>
  <fix>3d</fix>
</trkpt>
<trkpt lat="-27.274439" lon="151.290064">
  <ele>343.1</ele>
  <time>2026-09-01T19:51:54Z</time>
  <course>270.0</course>
  <speed>0.0</speed>
  <fix>3d</fix>
</trkpt>
<trkpt lat="-27.2744392" lon="151.2900641">
  <ele>343.1</ele>
  <time>2026-09-01T19:51:54Z</time>
  <course>10.86</course>
  <speed>0.022360679774997897</speed>
  <fix>3d</fix>
</trkpt>
<trkpt lat="-27.274439" lon="151.290064">
  <ele>343.1</ele>
  <time>2026-09-01T19:51:54Z</time>
  <course>270.0</course>
  <speed>0.0</speed>
  <fix>3d</fix>
</trkpt>
<trkpt lat="-27.2744392" lon="151.2900641">
  <ele>343.1</ele>
  <time>2026-09-01T19:51:54Z</time>
  <course>10.86</course>
  <speed>0.022360679774997897</speed>
  <fix>3d</fix>
</trkpt>
<trkpt lat="-27.274439" lon="151.290064">
  <ele>343.1</ele>
  <time>2026-09-01T19:51:54Z</time>
  <course>270.0</course>
  <speed>0.0</speed>
  <fix>3d</fix>
</trkpt>
<trkpt lat="-27.2744392" lon="151.2900641">
  <ele>343.1</ele>
  <time>2026-09-01T19:51:54Z</time>
  <course>10.86</course>
  <speed>0.022360679774997897</speed>
  <fix>3d</fix>
</trkpt>
<trkpt lat="-27.274439" lon="151.290064">
  <ele>343.1</ele>
  <time>2026-09-01T19:51:54Z</time>
  <course>270.0</course>
  <speed>0.0</speed>
  <fix>3d</fix>
</trkpt>
<trkpt lat="-27.2744392" lon="151.2900641">
  <ele>343.1</ele>
  <time>2026-09-01T19:51:54Z</time>
  <course>10.86</course>
  <speed>0.022360679774997897</speed>
  <fix>3d</fix>
</trkpt>
<trkpt lat="-27.274439" lon="151.290064">
  <ele>343.1</ele>
  <time>2026-09-01T19:51:54Z</time>
  <course>270.0</course>
  <speed>0.0</speed>
  <fix>3d</fix>
</trkpt>
<trkpt lat="-27.2744392" lon="151.2900641">
  <ele>343.11</ele>
  <time>2026-09-01T19:51:54Z</time>
  <course>10.86</course>
  <speed>0.022360679774997897</speed>
  <fix>3d</fix>
</trkpt>
<trkpt lat="-27.274439" lon="151.290064">
  <ele>343.1</ele>
  <time>2026-09-01T19:51:54Z</time>
  <course>270.0</course>
  <speed>0.0</speed>
  <fix>3d</fix>
</trkpt>
<trkpt lat="-27.2744392" lon="151.2900641">
  <ele>343.11</ele>
  <time>2026-09-01T19:51:54Z</time>
  <course>10.86</course>
  <speed>0.022360679774997897</speed>
  <fix>3d</fix>
</trkpt>
<trkpt lat="-27.274439" lon="151.290064">
  <ele>343.1</ele>
  <time>2026-09-01T19:51:54Z</time>
  <course>270.0</course>
  <speed>0.0</speed>
  <fix>3d</fix>
</trkpt>
<trkpt lat="-27.2744392" lon="151.2900641">
  <ele>343.11</ele>
  <time>2026-09-01T19:51:54Z</time>
  <course>10.86</course>
  <speed>0.022360679774997897</speed>
  <fix>3d</fix>
</trkpt>
<trkpt lat="-27.274439" lon="151.290064">
  <ele>343.1</ele>
  <time>2026-09-01T19:51:54Z</time>
  <course>270.0</course>
  <speed>0.0</speed>
  <fix>3d</fix>
</trkpt>
<trkpt lat="-27.2744392" lon="151.2900641">
  <ele>343.11</ele>
  <time>2026-09-01T19:51:54Z</time>
  <course>10.86</course>
  <speed>0.022360679774997897</speed>
  <fix>3d</fix>
</trkpt>
<trkpt lat="-27.274439" lon="151.290064">
  <ele>343.1</ele>
  <time>2026-09-01T19:51:54Z</time>
  <course>270.0</course>
  <speed>0.0</speed>
  <fix>3d</fix>
</trkpt>
<trkpt lat="-27.2744392" lon="151.2900641">
  <ele>343.1</ele>
  <time>2026-09-01T19:51:54Z</time>
  <course>10.87</course>
  <speed>0.022360679774997897</speed>
  <fix>3d</fix>
</trkpt>
<trkpt lat="-27.274439" lon="151.290064">
  <ele>343.1</ele>
  <time>2026-09-01T19:51:54Z</time>
  <course>270.0</course>
  <speed>0.0</speed>
  <fix>3d</fix>
</trkpt>
<trkpt lat="-27.2744392" lon="151.2900641">
  <ele>343.1</ele>
  <time>2026-09-01T19:51:54Z</time>
  <course>10.87</course>
  <speed>0.022360679774997897</speed>
  <fix>3d</fix>
</trkpt>
<trkpt lat="-27.274439" lon="151.290064">
  <ele>343.1</ele>
  <time>2026-09-01T19:51:54Z</time>
  <course>270.0</course>
  <speed>0.0</speed>
  <fix>3d</fix>
</trkpt>
<trkpt lat="-26.9720619" lon="149.6127921">
  <ele>339.29</ele>
  <time>2026-09-01T19:51:54Z</time>
  <course>310.27</course>
  <speed>0.0</speed>
  <fix>3d</fix>
</trkpt>
<trkpt lat="-26.9720619" lon="149.6127921">
  <ele>339.29</ele>
  <time>2026-09-01T19:51:54Z</time>
  <course>310.27</course>
  <speed>0.0</speed>
  <fix>3d</fix>
</trkpt>
<trkpt lat="-27.274439" lon="151.290064">
  <ele>-0.01</ele>
  <time>2026-09-01T19:51:54Z</time>
  <course>0.22</course>
  <speed>0.0</speed>
  <fix>3d</fix>
</trkpt>
<trkpt lat="-27.274439" lon="151.290064">
  <ele>343.1</ele>
  <time>2026-09-01T19:51:54Z</time>
  <course>294.58</course>
  <speed>0.0</speed>
  <fix>3d</fix>
</trkpt>
<trkpt lat="-27.274439" lon="151.290064">
  <ele>0.02</ele>
  <time>2026-09-01T19:51:54Z</time>
  <course>1.2</course>
  <speed>0.0</speed>
  <fix>3d</fix>
</trkpt>
<trkpt lat="-27.274439" lon="151.290064">
  <ele>343.1</ele>
  <time>2026-09-01T19:51:54Z</time>
  <course>294.58</course>
  <speed>0.0</speed>
  <fix>3d</fix>
</trkpt>
<trkpt lat="-27.274439" lon="151.290064">
  <ele>-0.08</ele>
  <time>2026-09-01T19:51:54Z</time>
  <course>2.1</course>
  <speed>0.0</speed>
  <fix>3d</fix>
</trkpt>
<trkpt lat="-27.274439" lon="151.290064">
  <ele>343.1</ele>
  <time>2026-09-01T19:51:54Z</time>
  <course>273.33</course>
  <speed>0.0</speed>
  <fix>3d</fix>
</trkpt>
<trkpt lat="-27.274439" lon="151.290064">
  <ele>0.22</ele>
  <time>2026-09-01T19:51:54Z</time>
  <course>2.92</course>
  <speed>0.0</speed>
  <fix>3d</fix>
</trkpt>
<trkpt lat="-27.274439" lon="151.290064">
  <ele>343.1</ele>
  <time>2026-09-01T19:51:54Z</time>
  <course>273.33</course>
  <speed>0.0</speed>
  <fix>3d</fix>
</trkpt>
<trkpt lat="-27.274439" lon="151.290064">
  <ele>0.09</ele>
  <time>2026-09-01T19:51:54Z</time>
  <course>3.66</course>
  <speed>0.0</speed>
  <fix>3d</fix>
</trkpt>
<trkpt lat="-27.274439" lon="151.290064">
  <ele>343.1</ele>
  <time>2026-09-01T19:51:54Z</time>
  <course>270.44</course>
  <speed>0.0</speed>
  <fix>3d</fix>
</trkpt>
<trkpt lat="-27.274439" lon="151.290064">
  <ele>0.08</ele>
  <time>2026-09-01T19:51:54Z</time>
  <course>4.34</course>
  <speed>0.0</speed>
  <fix>3d</fix>
</trkpt>
<trkpt lat="-27.274439" lon="151.290064">
  <ele>343.1</ele>
  <time>2026-09-01T19:51:54Z</time>
  <course>270.44</course>
  <speed>0.0</speed>
  <fix>3d</fix>
</trkpt>
<trkpt lat="-27.274439" lon="151.290064">
  <ele>0.09</ele>
  <time>2026-09-01T19:51:54Z</time>
  <course>4.95</course>
  <speed>0.0</speed>
  <fix>3d</fix>
</trkpt>
<trkpt lat="-27.274439" lon="151.290064">
  <ele>343.1</ele>
  <time>2026-09-01T19:51:54Z</time>
  <course>270.05</course>
  <speed>0.0</speed>
  <fix>3d</fix>
</trkpt>
<trkpt lat="-27.274439" lon="151.290064">
  <ele>-0.05</ele>
  <time>2026-09-01T19:51:54Z</time>
  <course>5.5</course>
  <speed>0.0</speed>
  <fix>3d</fix>
</trkpt>
<trkpt lat="-27.274439" lon="151.290064">
  <ele>343.1</ele>
  <time>2026-09-01T19:51:54Z</time>
  <course>270.05</course>
  <speed>0.0</speed>
  <fix>3d</fix>
</trkpt>
<trkpt lat="-27.274439" lon="151.290064">
  <ele>343.06</ele>
  <time>2026-09-01T19:51:54Z</time>
  <course>5.98</course>
  <speed>0.0</speed>
  <fix>3d</fix>
</trkpt>
<trkpt lat="-27.274439" lon="151.290064">
  <ele>343.1</ele>
  <time>2026-09-01T19:51:54Z</time>
  <course>270.0</course>
  <speed>0.0</speed>
  <fix>3d</fix>
</trkpt>
<trkpt lat="-27.274439" lon="151.290064">
  <ele>343.18</ele>
  <time>2026-09-01T19:51:54Z</time>
  <course>6.44</course>
  <speed>0.0</speed>
  <fix>3d</fix>
</trkpt>
<trkpt lat="-27.274439" lon="151.290064">
  <ele>343.1</ele>
  <time>2026-09-01T19:51:54Z</time>
  <course>270.0</course>
  <speed>0.0</speed>
  <fix>3d</fix>
</trkpt>
<trkpt lat="-27.274439" lon="151.290064">
  <ele>342.91</ele>
  <time>2026-09-01T19:51:54Z</time>
  <course>6.85</course>
  <speed>0.0</speed>
  <fix>3d</fix>
</trkpt>
<trkpt lat="-27.274439" lon="151.290064">
  <ele>343.1</ele>
  <time>2026-09-01T19:51:54Z</time>
  <course>270.0</course>
  <speed>0.0</speed>
  <fix>3d</fix>
</trkpt>
<trkpt lat="-27.274439" lon="151.290064">
  <ele>343.06</ele>
  <time>2026-09-01T19:51:54Z</time>
  <course>7.22</course>
  <speed>0.0</speed>
  <fix>3d</fix>
</trkpt>
<trkpt lat="-27.274439" lon="151.290064">
  <ele>343.1</ele>
  <time>2026-09-01T19:51:54Z</time>
  <course>270.0</course>
  <speed>0.0</speed>
  <fix>3d</fix>
</trkpt>
<trkpt lat="-27.274439" lon="151.290064">
  <ele>343.13</ele>
  <time>2026-09-01T19:51:54Z</time>
  <course>7.56</course>
  <speed>0.0</speed>
  <fix>3d</fix>
</trkpt>
<trkpt lat="-27.274439" lon="151.290064">
  <ele>343.1</ele>
  <time>2026-09-01T19:51:54Z</time>
  <course>270.0</course>
  <speed>0.0</speed>
  <fix>3d</fix>
</trkpt>
<trkpt lat="-27.274439" lon="151.290064">
  <ele>343.04</ele>
  <time>2026-09-01T19:51:54Z</time>
  <course>7.87</course>
  <speed>0.0</speed>
  <fix>3d</fix>
</trkpt>
<trkpt lat="-27.274439" lon="151.290064">
  <ele>343.1</ele>
  <time>2026-09-01T19:51:54Z</time>
  <course>270.0</course>
  <speed>0.0</speed>
  <fix>3d</fix>
</trkpt>
<trkpt lat="-27.274439" lon="151.290064">
  <ele>342.88</ele>
  <time>2026-09-01T19:51:54Z</time>
  <course>8.14</course>
  <speed>0.0</speed>
  <fix>3d</fix>
</trkpt>
<trkpt lat="-27.274439" lon="151.290064">
  <ele>343.1</ele>
  <time>2026-09-01T19:51:54Z</time>
  <course>270.0</course>
  <speed>0.0</speed>
  <fix>3d</fix>
</trkpt>
<trkpt lat="-27.274439" lon="151.290064">
  <ele>343.02</ele>
  <time>2026-09-01T19:51:54Z</time>
  <course>8.39</course>
  <speed>0.0</speed>
  <fix>3d</fix>
</trkpt>
<trkpt lat="-27.274439" lon="151.290064">
  <ele>343.1</ele>
  <time>2026-09-01T19:51:54Z</time>
  <course>270.0</course>
  <speed>0.0</speed>
  <fix>3d</fix>
</trkpt>
<trkpt lat="-27.274439" lon="151.290064">
  <ele>343.23</ele>
  <time>2026-09-01T19:51:54Z</time>
  <course>8.63</course>
  <speed>0.0</speed>
  <fix>3d</fix>
</trkpt>
<trkpt lat="-27.274439" lon="151.290064">
  <ele>343.1</ele>
  <time>2026-09-01T19:51:54Z</time>
  <course>270.0</course>
  <speed>0.0</speed>
  <fix>3d</fix>
</trkpt>
<trkpt lat="-27.274439" lon="151.290064">
  <ele>343.17</ele>
  <time>2026-09-01T19:51:54Z</time>
  <course>8.83</course>
  <speed>0.0</speed>
  <fix>3d</fix>
</trkpt>
<trkpt lat="-27.274439" lon="151.290064">
  <ele>343.1</ele>
  <time>2026-09-01T19:51:54Z</time>
  <course>270.0</course>
  <speed>0.0</speed>
  <fix>3d</fix>
</trkpt>
<trkpt lat="-27.274439" lon="151.290064">
  <ele>343.04</ele>
  <time>2026-09-01T19:51:54Z</time>
  <course>9.01</course>
  <speed>0.0</speed>
  <fix>3d</fix>
</trkpt>
<trkpt lat="-27.274439" lon="151.290064">
  <ele>343.1</ele>
  <time>2026-09-01T19:51:54Z</time>
  <course>270.0</course>
  <speed>0.0</speed>
  <fix>3d</fix>
</trkpt>
<trkpt lat="-27.274439" lon="151.290064">
  <ele>342.89</ele>
  <time>2026-09-01T19:51:54Z</time>
  <course>9.18</course>
  <speed>0.0</speed>
  <fix>3d</fix>
</trkpt>
<trkpt lat="-27.274439" lon="151.290064">
  <ele>343.1</ele>
  <time>2026-09-01T19:51:54Z</time>
  <course>270.0</course>
  <speed>0.0</speed>
  <fix>3d</fix>
</trkpt>
<trkpt lat="-27.274439" lon="151.290064">
  <ele>343.08</ele>
  <time>2026-09-01T19:51:54Z</time>
  <course>9.33</course>
  <speed>0.0</speed>
  <fix>3d</fix>
</trkpt>
<trkpt lat="-27.274439" lon="151.290064">
  <ele>343.1</ele>
  <time>2026-09-01T19:51:54Z</time>
  <course>270.0</course>
  <speed>0.0</speed>
  <fix>3d</fix>
</trkpt>
<trkpt lat="-27.274439" lon="151.290064">
  <ele>343.19</ele>
  <time>2026-09-01T19:51:54Z</time>
  <course>9.47</course>
  <speed>0.0</speed>
  <fix>3d</fix>
</trkpt>
<trkpt lat="-27.274439" lon="151.290064">
  <ele>343.1</ele>
  <time>2026-09-01T19:51:54Z</time>
  <course>270.0</course>
  <speed>0.0</speed>
  <fix>3d</fix>
</trkpt>
<trkpt lat="-27.274439" lon="151.290064">
  <ele>342.88</ele>
  <time>2026-09-01T19:51:54Z</time>
  <course>9.59</course>
  <speed>0.0</speed>
  <fix>3d</fix>
</trkpt>
<trkpt lat="-27.274439" lon="151.290064">
  <ele>343.1</ele>
  <time>2026-09-01T19:51:54Z</time>
  <course>270.0</course>
  <speed>0.0</speed>
  <fix>3d</fix>
</trkpt>
<trkpt lat="-27.274439" lon="151.290064">
  <ele>343.17</ele>
  <time>2026-09-01T19:51:54Z</time>
  <course>9.7</course>
  <speed>0.0</speed>
  <fix>3d</fix>
</trkpt>
<trkpt lat="-27.274439" lon="151.290064">
  <ele>343.1</ele>
  <time>2026-09-01T19:51:54Z</time>
  <course>270.0</course>
  <speed>0.0</speed>
  <fix>3d</fix>
</trkpt>
<trkpt lat="-27.274439" lon="151.290064">
  <ele>342.89</ele>
  <time>2026-09-01T19:51:54Z</time>
  <course>9.8</course>
  <speed>0.0</speed>
  <fix>3d</fix>
</trkpt>
<trkpt lat="-27.274439" lon="151.290064">
  <ele>343.1</ele>
  <time>2026-09-01T19:51:54Z</time>
  <course>270.0</course>
  <speed>0.0</speed>
  <fix>3d</fix>
</trkpt>
<trkpt lat="-27.274439" lon="151.290064">
  <ele>342.99</ele>
  <time>2026-09-01T19:51:54Z</time>
  <course>9.9</course>
  <speed>0.0</speed>
  <fix>3d</fix>
</trkpt>
<trkpt lat="-27.274439" lon="151.290064">
  <ele>343.1</ele>
  <time>2026-09-01T19:51:54Z</time>
  <course>270.0</course>
  <speed>0.0</speed>
  <fix>3d</fix>
</trkpt>
<trkpt lat="-27.274439" lon="151.290064">
  <ele>342.87</ele>
  <time>2026-09-01T19:51:54Z</time>
  <course>9.98</course>
  <speed>0.0</speed>
  <fix>3d</fix>
</trkpt>
<trkpt lat="-27.274439" lon="151.290064">
  <ele>343.1</ele>
  <time>2026-09-01T19:51:54Z</time>
  <course>270.0</course>
  <speed>0.0</speed>
  <fix>3d</fix>
</trkpt>
<trkpt lat="-27.274439" lon="151.290064">
  <ele>343.09</ele>
  <time>2026-09-01T19:51:54Z</time>
  <course>10.06</course>
  <speed>0.0</speed>
  <fix>3d</fix>
</trkpt>
<trkpt lat="-27.274439" lon="151.290064">
  <ele>343.1</ele>
  <time>2026-09-01T19:51:54Z</time>
  <course>270.0</course>
  <speed>0.0</speed>
  <fix>3d</fix>
</trkpt>
<trkpt lat="-27.274439" lon="151.290064">
  <ele>343.18</ele>
  <time>2026-09-01T19:51:54Z</time>
  <course>10.13</course>
  <speed>0.0</speed>
  <fix>3d</fix>
</trkpt>
<trkpt lat="-27.274439" lon="151.290064">
  <ele>343.1</ele>
  <time>2026-09-01T19:51:54Z</time>
  <course>270.0</course>
  <speed>0.0</speed>
  <fix>3d</fix>
</trkpt>
<trkpt lat="-27.274439" lon="151.290064">
  <ele>343.05</ele>
  <time>2026-09-01T19:51:54Z</time>
  <course>10.2</course>
  <speed>0.0</speed>
  <fix>3d</fix>
</trkpt>
<trkpt lat="-27.274439" lon="151.290064">
  <ele>343.1</ele>
  <time>2026-09-01T19:51:55Z</time>
  <course>270.0</course>
  <speed>0.0</speed>
  <fix>3d</fix>
</trkpt>
<trkpt lat="-27.274439" lon="151.290064">
  <ele>342.96</ele>
  <time>2026-09-01T19:51:55Z</time>
  <course>10.25</course>
  <speed>0.0</speed>
  <fix>3d</fix>
</trkpt>
<trkpt lat="-27.274439" lon="151.290064">
  <ele>343.1</ele>
  <time>2026-09-01T19:51:55Z</time>
  <course>270.0</course>
  <speed>0.0</speed>
  <fix>3d</fix>
</trkpt>
<trkpt lat="-27.274439" lon="151.290064">
  <ele>343.1</ele>
  <time>2026-09-01T19:51:55Z</time>
  <course>10.31</course>
  <speed>0.0</speed>
  <fix>3d</fix>
</trkpt>
<trkpt lat="-27.274439" lon="151.290064">
  <ele>343.1</ele>
  <time>2026-09-01T19:51:55Z</time>
  <course>270.0</course>
  <speed>0.0</speed>
  <fix>3d</fix>
</trkpt>
<trkpt lat="-27.274439" lon="151.290064">
  <ele>343.22</ele>
  <time>2026-09-01T19:51:55Z</time>
  <course>10.35</course>
  <speed>0.0</speed>
  <fix>3d</fix>
</trkpt>
<trkpt lat="-27.274439" lon="151.290064">
  <ele>343.1</ele>
  <time>2026-09-01T19:51:55Z</time>
  <course>270.0</course>
  <speed>0.0</speed>
  <fix>3d</fix>
</trkpt>
<trkpt lat="-27.274439" lon="151.290064">
  <ele>343.17</ele>
  <time>2026-09-01T19:51:55Z</time>
  <course>10.4</course>
  <speed>0.0</speed>
  <fix>3d</fix>
</trkpt>
<trkpt lat="-27.274439" lon="151.290064">
  <ele>343.1</ele>
  <time>2026-09-01T19:51:55Z</time>
  <course>270.0</course>
  <speed>0.0</speed>
  <fix>3d</fix>
</trkpt>
<trkpt lat="-27.274439" lon="151.290064">
  <ele>343.08</ele>
  <time>2026-09-01T19:51:55Z</time>
  <course>10.44</course>
  <speed>0.0</speed>
  <fix>3d</fix>
</trkpt>
<trkpt lat="-27.274439" lon="151.290064">
  <ele>343.1</ele>
  <time>2026-09-01T19:51:55Z</time>
  <course>270.0</course>
  <speed>0.0</speed>
  <fix>3d</fix>
</trkpt>
<trkpt lat="-27.274439" lon="151.290064">
  <ele>343.04</ele>
  <time>2026-09-01T19:51:55Z</time>
  <course>10.47</course>
  <speed>0.0</speed>
  <fix>3d</fix>
</trkpt>
<trkpt lat="-27.274439" lon="151.290064">
  <ele>343.1</ele>
  <time>2026-09-01T19:51:55Z</time>
  <course>270.0</course>
  <speed>0.0</speed>
  <fix>3d</fix>
</trkpt>
<trkpt lat="-27.274439" lon="151.290064">
  <ele>343.18</ele>
  <time>2026-09-01T19:51:55Z</time>
  <course>10.5</course>
  <speed>0.0</speed>
  <fix>3d</fix>
</trkpt>
<trkpt lat="-27.274439" lon="151.290064">
  <ele>343.1</ele>
  <time>2026-09-01T19:51:55Z</time>
  <course>270.0</course>
  <speed>0.0</speed>
  <fix>3d</fix>
</trkpt>
<trkpt lat="-27.274439" lon="151.290064">
  <ele>343.12</ele>
  <time>2026-09-01T19:51:55Z</time>
  <course>10.53</course>
  <speed>0.0</speed>
  <fix>3d</fix>
</trkpt>
<trkpt lat="-27.274439" lon="151.290064">
  <ele>343.1</ele>
  <time>2026-09-01T19:51:55Z</time>
  <course>270.0</course>
  <speed>0.0</speed>
  <fix>3d</fix>
</trkpt>
<trkpt lat="-27.274439" lon="151.290064">
  <ele>343.04</ele>
  <time>2026-09-01T19:51:55Z</time>
  <course>10.56</course>
  <speed>0.0</speed>
  <fix>3d</fix>
</trkpt>
<trkpt lat="-27.274439" lon="151.290064">
  <ele>343.1</ele>
  <time>2026-09-01T19:51:55Z</time>
  <course>270.0</course>
  <speed>0.0</speed>
  <fix>3d</fix>
</trkpt>
<trkpt lat="-27.274439" lon="151.290064">
  <ele>343.07</ele>
  <time>2026-09-01T19:51:55Z</time>
  <course>10.58</course>
  <speed>0.0</speed>
  <fix>3d</fix>
</trkpt>
<trkpt lat="-27.274439" lon="151.290064">
  <ele>343.1</ele>
  <time>2026-09-01T19:51:55Z</time>
  <course>270.0</course>
  <speed>0.0</speed>
  <fix>3d</fix>
</trkpt>
<trkpt lat="-27.274439" lon="151.290064">
  <ele>343.04</ele>
  <time>2026-09-01T19:51:55Z</time>
  <course>10.6</course>
  <speed>0.0</speed>
  <fix>3d</fix>
</trkpt>
<trkpt lat="-27.274439" lon="151.290064">
  <ele>343.1</ele>
  <time>2026-09-01T19:51:55Z</time>
  <course>270.0</course>
  <speed>0.0</speed>
  <fix>3d</fix>
</trkpt>
<trkpt lat="-27.274439" lon="151.290064">
  <ele>343.01</ele>
  <time>2026-09-01T19:51:55Z</time>
  <course>10.62</course>
  <speed>0.0</speed>
  <fix>3d</fix>
</trkpt>
<trkpt lat="-27.274439" lon="151.290064">
  <ele>343.1</ele>
  <time>2026-09-01T19:51:55Z</time>
  <course>270.0</course>
  <speed>0.0</speed>
  <fix>3d</fix>
</trkpt>
<trkpt lat="-27.274439" lon="151.290064">
  <ele>343.2</ele>
  <time>2026-09-01T19:51:55Z</time>
  <course>10.64</course>
  <speed>0.0</speed>
  <fix>3d</fix>
</trkpt>
<trkpt lat="-27.274439" lon="151.290064">
  <ele>343.1</ele>
  <time>2026-09-01T19:51:55Z</time>
  <course>270.0</course>
  <speed>0.0</speed>
  <fix>3d</fix>
</trkpt>
<trkpt lat="-27.274439" lon="151.290064">
  <ele>343.24</ele>
  <time>2026-09-01T19:51:55Z</time>
  <course>10.65</course>
  <speed>0.0</speed>
  <fix>3d</fix>
</trkpt>
<trkpt lat="-27.274439" lon="151.290064">
  <ele>343.1</ele>
  <time>2026-09-01T19:51:55Z</time>
  <course>270.0</course>
  <speed>0.0</speed>
  <fix>3d</fix>
</trkpt>
<trkpt lat="-27.274439" lon="151.290064">
  <ele>342.88</ele>
  <time>2026-09-01T19:51:55Z</time>
  <course>10.67</course>
  <speed>0.0</speed>
  <fix>3d</fix>
</trkpt>
<trkpt lat="-27.274439" lon="151.290064">
  <ele>343.1</ele>
  <time>2026-09-01T19:51:55Z</time>
  <course>270.0</course>
  <speed>0.0</speed>
  <fix>3d</fix>
</trkpt>
<trkpt lat="-27.274439" lon="151.290064">
  <ele>343.21</ele>
  <time>2026-09-01T19:51:55Z</time>
  <course>10.68</course>
  <speed>0.0</speed>
  <fix>3d</fix>
</trkpt>
<trkpt lat="-27.274439" lon="151.290064">
  <ele>343.1</ele>
  <time>2026-09-01T19:51:55Z</time>
  <course>270.0</course>
  <speed>0.0</speed>
  <fix>3d</fix>
</trkpt>
<trkpt lat="-27.274439" lon="151.290064">
  <ele>343.02</ele>
  <time>2026-09-01T19:51:55Z</time>
  <course>10.69</course>
  <speed>0.0</speed>
  <fix>3d</fix>
</trkpt>
<trkpt lat="-27.274439" lon="151.290064">
  <ele>343.1</ele>
  <time>2026-09-01T19:51:55Z</time>
  <course>270.0</course>
  <speed>0.0</speed>
  <fix>3d</fix>
</trkpt>
<trkpt lat="-27.274439" lon="151.290064">
  <ele>342.93</ele>
  <time>2026-09-01T19:51:55Z</time>
  <course>10.7</course>
  <speed>0.0</speed>
  <fix>3d</fix>
</trkpt>
<trkpt lat="-27.274439" lon="151.290064">
  <ele>343.1</ele>
  <time>2026-09-01T19:51:55Z</time>
  <course>270.0</course>
  <speed>0.0</speed>
  <fix>3d</fix>
</trkpt>
<trkpt lat="-27.274439" lon="151.290064">
  <ele>343.07</ele>
  <time>2026-09-01T19:51:55Z</time>
  <course>10.71</course>
  <speed>0.0</speed>
  <fix>3d</fix>
</trkpt>
<trkpt lat="-27.274439" lon="151.290064">
  <ele>343.1</ele>
  <time>2026-09-01T19:51:55Z</time>
  <course>270.0</course>
  <speed>0.0</speed>
  <fix>3d</fix>
</trkpt>
<trkpt lat="-27.274439" lon="151.290064">
  <ele>342.94</ele>
  <time>2026-09-01T19:51:55Z</time>
  <course>10.72</course>
  <speed>0.0</speed>
  <fix>3d</fix>
</trkpt>
<trkpt lat="-27.274439" lon="151.290064">
  <ele>343.1</ele>
  <time>2026-09-01T19:51:55Z</time>
  <course>270.0</course>
  <speed>0.0</speed>
  <fix>3d</fix>
</trkpt>
<trkpt lat="-27.274439" lon="151.290064">
  <ele>343.11</ele>
  <time>2026-09-01T19:51:55Z</time>
  <course>10.73</course>
  <speed>0.0</speed>
  <fix>3d</fix>
</trkpt>
<trkpt lat="-27.274439" lon="151.290064">
  <ele>343.1</ele>
  <time>2026-09-01T19:51:55Z</time>
  <course>270.0</course>
  <speed>0.0</speed>
  <fix>3d</fix>
</trkpt>
<trkpt lat="-27.274439" lon="151.290064">
  <ele>343.24</ele>
  <time>2026-09-01T19:51:55Z</time>
  <course>10.73</course>
  <speed>0.0</speed>
  <fix>3d</fix>
</trkpt>
<trkpt lat="-27.274439" lon="151.290064">
  <ele>343.1</ele>
  <time>2026-09-01T19:51:55Z</time>
  <course>270.0</course>
  <speed>0.0</speed>
  <fix>3d</fix>
</trkpt>
<trkpt lat="-27.274439" lon="151.290064">
  <ele>343.18</ele>
  <time>2026-09-01T19:51:55Z</time>
  <course>10.74</course>
  <speed>0.0</speed>
  <fix>3d</fix>
</trkpt>
<trkpt lat="-27.274439" lon="151.290064">
  <ele>343.1</ele>
  <time>2026-09-01T19:51:55Z</time>
  <course>270.0</course>
  <speed>0.0</speed>
  <fix>3d</fix>
</trkpt>
<trkpt lat="-27.274439" lon="151.290064">
  <ele>342.89</ele>
  <time>2026-09-01T19:51:55Z</time>
  <course>10.75</course>
  <speed>0.0</speed>
  <fix>3d</fix>
</trkpt>
<trkpt lat="-27.274439" lon="151.290064">
  <ele>343.1</ele>
  <time>2026-09-01T19:51:55Z</time>
  <course>270.0</course>
  <speed>0.0</speed>
  <fix>3d</fix>
</trkpt>
<trkpt lat="-27.274439" lon="151.290064">
  <ele>343.23</ele>
  <time>2026-09-01T19:51:55Z</time>
  <course>10.75</course>
  <speed>0.0</speed>
  <fix>3d</fix>
</trkpt>
<trkpt lat="-27.274439" lon="151.290064">
  <ele>343.1</ele>
  <time>2026-09-01T19:51:55Z</time>
  <course>270.0</course>
  <speed>0.0</speed>
  <fix>3d</fix>
</trkpt>
<trkpt lat="-27.274439" lon="151.290064">
  <ele>343.23</ele>
  <time>2026-09-01T19:51:55Z</time>
  <course>10.76</course>
  <speed>0.0</speed>
  <fix>3d</fix>
</trkpt>
<trkpt lat="-27.274439" lon="151.290064">
  <ele>343.1</ele>
  <time>2026-09-01T19:51:55Z</time>
  <course>270.0</course>
  <speed>0.0</speed>
  <fix>3d</fix>
</trkpt>
<trkpt lat="-27.274439" lon="151.290064">
  <ele>342.99</ele>
  <time>2026-09-01T19:51:55Z</time>
  <course>10.76</course>
  <speed>0.0</speed>
  <fix>3d</fix>
</trkpt>
<trkpt lat="-27.274439" lon="151.290064">
  <ele>343.1</ele>
  <time>2026-09-01T19:51:55Z</time>
  <course>270.0</course>
  <speed>0.0</speed>
  <fix>3d</fix>
</trkpt>
<trkpt lat="-27.274439" lon="151.290064">
  <ele>343.13</ele>
  <time>2026-09-01T19:51:55Z</time>
  <course>10.76</course>
  <speed>0.0</speed>
  <fix>3d</fix>
</trkpt>
<trkpt lat="-27.274439" lon="151.290064">
  <ele>343.1</ele>
  <time>2026-09-01T19:51:55Z</time>
  <course>270.0</course>
  <speed>0.0</speed>
  <fix>3d</fix>
</trkpt>
<trkpt lat="-27.274439" lon="151.290064">
  <ele>343.07</ele>
  <time>2026-09-01T19:51:55Z</time>
  <course>10.77</course>
  <speed>0.0</speed>
  <fix>3d</fix>
</trkpt>
<trkpt lat="-27.274439" lon="151.290064">
  <ele>343.1</ele>
  <time>2026-09-01T19:51:55Z</time>
  <course>270.0</course>
  <speed>0.0</speed>
  <fix>3d</fix>
</trkpt>
<trkpt lat="-27.274439" lon="151.290064">
  <ele>343.19</ele>
  <time>2026-09-01T19:51:55Z</time>
  <course>10.77</course>
  <speed>0.0</speed>
  <fix>3d</fix>
</trkpt>
<trkpt lat="-27.274439" lon="151.290064">
  <ele>343.1</ele>
  <time>2026-09-01T19:51:55Z</time>
  <course>270.0</course>
  <speed>0.0</speed>
  <fix>3d</fix>
</trkpt>
<trkpt lat="-27.274439" lon="151.290064">
  <ele>342.93</ele>
  <time>2026-09-01T19:51:55Z</time>
  <course>10.77</course>
  <speed>0.0</speed>
  <fix>3d</fix>
</trkpt>
<trkpt lat="-27.274439" lon="151.290064">
  <ele>343.1</ele>
  <time>2026-09-01T19:51:55Z</time>
  <course>270.0</course>
  <speed>0.0</speed>
  <fix>3d</fix>
</trkpt>
<trkpt lat="-27.274439" lon="151.290064">
  <ele>343.19</ele>
  <time>2026-09-01T19:51:55Z</time>
  <course>10.78</course>
  <speed>0.0</speed>
  <fix>3d</fix>
</trkpt>
<trkpt lat="-27.274439" lon="151.290064">
  <ele>343.1</ele>
  <time>2026-09-01T19:51:55Z</time>
  <course>270.0</course>
  <speed>0.0</speed>
  <fix>3d</fix>
</trkpt>
<trkpt lat="-27.274439" lon="151.290064">
  <ele>343.1</ele>
  <time>2026-09-01T19:51:55Z</time>
  <course>10.78</course>
  <speed>0.0</speed>
  <fix>3d</fix>
</trkpt>
<trkpt lat="-27.274439" lon="151.290064">
  <ele>343.1</ele>
  <time>2026-09-01T19:51:55Z</time>
  <course>270.0</course>
  <speed>0.0</speed>
  <fix>3d</fix>
</trkpt>
<trkpt lat="-27.274439" lon="151.290064">
  <ele>343.01</ele>
  <time>2026-09-01T19:51:55Z</time>
  <course>10.78</course>
  <speed>0.0</speed>
  <fix>3d</fix>
</trkpt>
<trkpt lat="-27.274439" lon="151.290064">
  <ele>343.1</ele>
  <time>2026-09-01T19:51:55Z</time>
  <course>270.0</course>
  <speed>0.0</speed>
  <fix>3d</fix>
</trkpt>
<trkpt lat="-27.274439" lon="151.290064">
  <ele>343.11</ele>
  <time>2026-09-01T19:51:55Z</time>
  <course>10.78</course>
  <speed>0.0</speed>
  <fix>3d</fix>
</trkpt>
<trkpt lat="-27.274439" lon="151.290064">
  <ele>343.1</ele>
  <time>2026-09-01T19:51:55Z</time>
  <course>270.0</course>
  <speed>0.0</speed>
  <fix>3d</fix>
</trkpt>
<trkpt lat="-27.274439" lon="151.290064">
  <ele>342.96</ele>
  <time>2026-09-01T19:51:55Z</time>
  <course>10.78</course>
  <speed>0.0</speed>
  <fix>3d</fix>
</trkpt>
<trkpt lat="-27.274439" lon="151.290064">
  <ele>343.1</ele>
  <time>2026-09-01T19:51:55Z</time>
  <course>270.0</course>
  <speed>0.0</speed>
  <fix>3d</fix>
</trkpt>
<trkpt lat="-27.274439" lon="151.290064">
  <ele>343.19</ele>
  <time>2026-09-01T19:51:55Z</time>
  <course>10.79</course>
  <speed>0.0</speed>
  <fix>3d</fix>
</trkpt>
<trkpt lat="-27.274439" lon="151.290064">
  <ele>343.1</ele>
  <time>2026-09-01T19:51:55Z</time>
  <course>270.0</course>
  <speed>0.0</speed>
  <fix>3d</fix>
</trkpt>
<trkpt lat="-27.274439" lon="151.290064">
  <ele>343.0</ele>
  <time>2026-09-01T19:51:55Z</time>
  <course>10.79</course>
  <speed>0.0</speed>
  <fix>3d</fix>
</trkpt>
<trkpt lat="-27.274439" lon="151.290064">
  <ele>343.1</ele>
  <time>2026-09-01T19:51:55Z</time>
  <course>270.0</course>
  <speed>0.0</speed>
  <fix>3d</fix>
</trkpt>
<trkpt lat="-27.274439" lon="151.290064">
  <ele>343.2</ele>
  <time>2026-09-01T19:51:55Z</time>
  <course>10.79</course>
  <speed>0.0</speed>
  <fix>3d</fix>
</trkpt>
<trkpt lat="-27.274439" lon="151.290064">
  <ele>343.1</ele>
  <time>2026-09-01T19:51:55Z</time>
  <course>270.0</course>
  <speed>0.0</speed>
  <fix>3d</fix>
</trkpt>
<trkpt lat="-27.274439" lon="151.290064">
  <ele>343.2</ele>
  <time>2026-09-01T19:51:55Z</time>
  <course>10.79</course>
  <speed>0.0</speed>
  <fix>3d</fix>
</trkpt>
<trkpt lat="-27.274439" lon="151.290064">
  <ele>343.1</ele>
  <time>2026-09-01T19:51:55Z</time>
  <course>270.0</course>
  <speed>0.0</speed>
  <fix>3d</fix>
</trkpt>
<trkpt lat="-27.274439" lon="151.290064">
  <ele>343.13</ele>
  <time>2026-09-01T19:51:55Z</time>
  <course>10.79</course>
  <speed>0.0</speed>
  <fix>3d</fix>
</trkpt>
<trkpt lat="-27.274439" lon="151.290064">
  <ele>343.1</ele>
  <time>2026-09-01T19:51:55Z</time>
  <course>270.0</course>
  <speed>0.0</speed>
  <fix>3d</fix>
</trkpt>
<trkpt lat="-27.274439" lon="151.290064">
  <ele>343.1</ele>
  <time>2026-09-01T19:51:55Z</time>
  <course>10.79</course>
  <speed>0.0</speed>
  <fix>3d</fix>
</trkpt>
<trkpt lat="-27.274439" lon="151.290064">
  <ele>343.1</ele>
  <time>2026-09-01T19:51:55Z</time>
  <course>270.0</course>
  <speed>0.0</speed>
  <fix>3d</fix>
</trkpt>
<trkpt lat="-27.274439" lon="151.290064">
  <ele>343.12</ele>
  <time>2026-09-01T19:51:55Z</time>
  <course>10.79</course>
  <speed>0.0</speed>
  <fix>3d</fix>
</trkpt>
<trkpt lat="-27.274439" lon="151.290064">
  <ele>343.1</ele>
  <time>2026-09-01T19:51:55Z</time>
  <course>270.0</course>
  <speed>0.0</speed>
  <fix>3d</fix>
</trkpt>
<trkpt lat="-27.274439" lon="151.290064">
  <ele>342.94</ele>
  <time>2026-09-01T19:51:55Z</time>
  <course>10.79</course>
  <speed>0.0</speed>
  <fix>3d</fix>
</trkpt>
<trkpt lat="-27.274439" lon="151.290064">
  <ele>343.1</ele>
  <time>2026-09-01T19:51:55Z</time>
  <course>270.0</course>
  <speed>0.0</speed>
  <fix>3d</fix>
</trkpt>
<trkpt lat="-27.274439" lon="151.290064">
  <ele>343.25</ele>
  <time>2026-09-01T19:51:55Z</time>
  <course>10.79</course>
  <speed>0.0</speed>
  <fix>3d</fix>
</trkpt>
<trkpt lat="-27.274439" lon="151.290064">
  <ele>343.1</ele>
  <time>2026-09-01T19:51:55Z</time>
  <course>270.0</course>
  <speed>0.0</speed>
  <fix>3d</fix>
</trkpt>
<trkpt lat="-27.274439" lon="151.290064">
  <ele>342.93</ele>
  <time>2026-09-01T19:51:55Z</time>
  <course>10.79</course>
  <speed>0.0</speed>
  <fix>3d</fix>
</trkpt>
<trkpt lat="-27.274439" lon="151.290064">
  <ele>343.1</ele>
  <time>2026-09-01T19:51:55Z</time>
  <course>270.0</course>
  <speed>0.0</speed>
  <fix>3d</fix>
</trkpt>
<trkpt lat="-27.274439" lon="151.290064">
  <ele>343.08</ele>
  <time>2026-09-01T19:51:55Z</time>
  <course>10.79</course>
  <speed>0.0</speed>
  <fix>3d</fix>
</trkpt>
<trkpt lat="-27.274439" lon="151.290064">
  <ele>343.1</ele>
  <time>2026-09-01T19:51:55Z</time>
  <course>270.0</course>
  <speed>0.0</speed>
  <fix>3d</fix>
</trkpt>
<trkpt lat="-27.274439" lon="151.290064">
  <ele>343.23</ele>
  <time>2026-09-01T19:51:55Z</time>
  <course>10.8</course>
  <speed>0.0</speed>
  <fix>3d</fix>
</trkpt>
<trkpt lat="-27.274439" lon="151.290064">
  <ele>343.1</ele>
  <time>2026-09-01T19:51:55Z</time>
  <course>270.0</course>
  <speed>0.0</speed>
  <fix>3d</fix>
</trkpt>
<trkpt lat="-27.274439" lon="151.290064">
  <ele>343.01</ele>
  <time>2026-09-01T19:51:55Z</time>
  <course>10.8</course>
  <speed>0.0</speed>
  <fix>3d</fix>
</trkpt>
<trkpt lat="-27.274439" lon="151.290064">
  <ele>343.1</ele>
  <time>2026-09-01T19:51:55Z</time>
  <course>270.0</course>
  <speed>0.0</speed>
  <fix>3d</fix>
</trkpt>
<trkpt lat="-27.274439" lon="151.290064">
  <ele>343.1</ele>
  <time>2026-09-01T19:51:55Z</time>
  <course>10.8</course>
  <speed>0.0</speed>
  <fix>3d</fix>
</trkpt>
<trkpt lat="-27.274439" lon="151.290064">
  <ele>343.1</ele>
  <time>2026-09-01T19:51:55Z</time>
  <course>270.0</course>
  <speed>0.0</speed>
  <fix>3d</fix>
</trkpt>
<trkpt lat="-27.274439" lon="151.290064">
  <ele>342.99</ele>
  <time>2026-09-01T19:51:55Z</time>
  <course>10.8</course>
  <speed>0.0</speed>
  <fix>3d</fix>
</trkpt>
<trkpt lat="-27.274439" lon="151.290064">
  <ele>343.1</ele>
  <time>2026-09-01T19:51:55Z</time>
  <course>270.0</course>
  <speed>0.0</speed>
  <fix>3d</fix>
</trkpt>
<trkpt lat="-27.274439" lon="151.290064">
  <ele>342.87</ele>
  <time>2026-09-01T19:51:55Z</time>
  <course>10.8</course>
  <speed>0.0</speed>
  <fix>3d</fix>
</trkpt>
<trkpt lat="-27.274439" lon="151.290064">
  <ele>343.1</ele>
  <time>2026-09-01T19:51:55Z</time>
  <course>270.0</course>
  <speed>0.0</speed>
  <fix>3d</fix>
</trkpt>
<trkpt lat="-27.274439" lon="151.290064">
  <ele>343.1</ele>
  <time>2026-09-01T19:51:55Z</time>
  <course>10.8</course>
  <speed>0.0</speed>
  <fix>3d</fix>
</trkpt>
<trkpt lat="-27.274439" lon="151.290064">
  <ele>343.1</ele>
  <time>2026-09-01T19:51:55Z</time>
  <course>270.0</course>
  <speed>0.0</speed>
  <fix>3d</fix>
</trkpt>
<trkpt lat="-27.274439" lon="151.290064">
  <ele>342.99</ele>
  <time>2026-09-01T19:51:55Z</time>
  <course>10.8</course>
  <speed>0.0</speed>
  <fix>3d</fix>
</trkpt>
<trkpt lat="-27.274439" lon="151.290064">
  <ele>343.1</ele>
  <time>2026-09-01T19:51:55Z</time>
  <course>270.0</course>
  <speed>0.0</speed>
  <fix>3d</fix>
</trkpt>
<trkpt lat="-27.274439" lon="151.290064">
  <ele>342.91</ele>
  <time>2026-09-01T19:51:55Z</time>
  <course>10.8</course>
  <speed>0.0</speed>
  <fix>3d</fix>
</trkpt>
<trkpt lat="-27.274439" lon="151.290064">
  <ele>343.1</ele>
  <time>2026-09-01T19:51:55Z</time>
  <course>270.0</course>
  <speed>0.0</speed>
  <fix>3d</fix>
</trkpt>
<trkpt lat="-27.274439" lon="151.290064">
  <ele>342.9</ele>
  <time>2026-09-01T19:51:55Z</time>
  <course>10.8</course>
  <speed>0.0</speed>
  <fix>3d</fix>
</trkpt>
<trkpt lat="-27.274439" lon="151.290064">
  <ele>343.1</ele>
  <time>2026-09-01T19:51:55Z</time>
  <course>270.0</course>
  <speed>0.0</speed>
  <fix>3d</fix>
</trkpt>
<trkpt lat="-27.274439" lon="151.290064">
  <ele>342.87</ele>
  <time>2026-09-01T19:51:55Z</time>
  <course>10.8</course>
  <speed>0.0</speed>
  <fix>3d</fix>
</trkpt>
<trkpt lat="-27.274439" lon="151.290064">
  <ele>343.1</ele>
  <time>2026-09-01T19:51:55Z</time>
  <course>270.0</course>
  <speed>0.0</speed>
  <fix>3d</fix>
</trkpt>
<trkpt lat="-27.274439" lon="151.290064">
  <ele>343.12</ele>
  <time>2026-09-01T19:51:55Z</time>
  <course>10.8</course>
  <speed>0.0</speed>
  <fix>3d</fix>
</trkpt>
<trkpt lat="-27.274439" lon="151.290064">
  <ele>343.1</ele>
  <time>2026-09-01T19:51:55Z</time>
  <course>270.0</course>
  <speed>0.0</speed>
  <fix>3d</fix>
</trkpt>
<trkpt lat="-27.274439" lon="151.290064">
  <ele>342.99</ele>
  <time>2026-09-01T19:51:55Z</time>
  <course>10.8</course>
  <speed>0.0</speed>
  <fix>3d</fix>
</trkpt>
<trkpt lat="-27.274439" lon="151.290064">
  <ele>343.1</ele>
  <time>2026-09-01T19:51:55Z</time>
  <course>270.0</course>
  <speed>0.0</speed>
  <fix>3d</fix>
</trkpt>
<trkpt lat="-27.274439" lon="151.290064">
  <ele>343.13</ele>
  <time>2026-09-01T19:51:55Z</time>
  <course>10.8</course>
  <speed>0.0</speed>
  <fix>3d</fix>
</trkpt>
<trkpt lat="-27.274439" lon="151.290064">
  <ele>343.1</ele>
  <time>2026-09-01T19:51:55Z</time>
  <course>270.0</course>
  <speed>0.0</speed>
  <fix>3d</fix>
</trkpt>
<trkpt lat="-27.274439" lon="151.290064">
  <ele>343.0</ele>
  <time>2026-09-01T19:51:55Z</time>
  <course>10.8</course>
  <speed>0.0</speed>
  <fix>3d</fix>
</trkpt>
<trkpt lat="-27.274439" lon="151.290064">
  <ele>343.1</ele>
  <time>2026-09-01T19:51:55Z</time>
  <course>270.0</course>
  <speed>0.0</speed>
  <fix>3d</fix>
</trkpt>
<trkpt lat="-27.274439" lon="151.290064">
  <ele>343.17</ele>
  <time>2026-09-01T19:51:55Z</time>
  <course>10.8</course>
  <speed>0.0</speed>
  <fix>3d</fix>
</trkpt>
<trkpt lat="-27.274439" lon="151.290064">
  <ele>343.1</ele>
  <time>2026-09-01T19:51:55Z</time>
  <course>270.0</course>
  <speed>0.0</speed>
  <fix>3d</fix>
</trkpt>
<trkpt lat="-27.274439" lon="151.290064">
  <ele>343.0</ele>
  <time>2026-09-01T19:51:55Z</time>
  <course>10.8</course>
  <speed>0.0</speed>
  <fix>3d</fix>
</trkpt>
<trkpt lat="-27.274439" lon="151.290064">
  <ele>343.1</ele>
  <time>2026-09-01T19:51:55Z</time>
  <course>270.0</course>
  <speed>0.0</speed>
  <fix>3d</fix>
</trkpt>
<trkpt lat="-27.274439" lon="151.290064">
  <ele>342.99</ele>
  <time>2026-09-01T19:51:55Z</time>
  <course>10.8</course>
  <speed>0.0</speed>
  <fix>3d</fix>
</trkpt>
<trkpt lat="-27.274439" lon="151.290064">
  <ele>343.1</ele>
  <time>2026-09-01T19:51:55Z</time>
  <course>270.0</course>
  <speed>0.0</speed>
  <fix>3d</fix>
</trkpt>
<trkpt lat="-27.274439" lon="151.290064">
  <ele>343.17</ele>
  <time>2026-09-01T19:51:55Z</time>
  <course>10.8</course>
  <speed>0.0</speed>
  <fix>3d</fix>
</trkpt>
<trkpt lat="-27.274439" lon="151.290064">
  <ele>343.1</ele>
  <time>2026-09-01T19:51:55Z</time>
  <course>270.0</course>
  <speed>0.0</speed>
  <fix>3d</fix>
</trkpt>
<trkpt lat="-27.274439" lon="151.290064">
  <ele>343.16</ele>
  <time>2026-09-01T19:51:55Z</time>
  <course>10.8</course>
  <speed>0.0</speed>
  <fix>3d</fix>
</trkpt>
<trkpt lat="-27.274439" lon="151.290064">
  <ele>343.1</ele>
  <time>2026-09-01T19:51:55Z</time>
  <course>270.0</course>
  <speed>0.0</speed>
  <fix>3d</fix>
</trkpt>
<trkpt lat="-27.274439" lon="151.290064">
  <ele>342.87</ele>
  <time>2026-09-01T19:51:55Z</time>
  <course>10.8</course>
  <speed>0.0</speed>
  <fix>3d</fix>
</trkpt>
<trkpt lat="-27.274439" lon="151.290064">
  <ele>343.1</ele>
  <time>2026-09-01T19:51:55Z</time>
  <course>270.0</course>
  <speed>0.0</speed>
  <fix>3d</fix>
</trkpt>
<trkpt lat="-27.274439" lon="151.290064">
  <ele>343.19</ele>
  <time>2026-09-01T19:51:55Z</time>
  <course>10.8</course>
  <speed>0.0</speed>
  <fix>3d</fix>
</trkpt>
<trkpt lat="-27.274439" lon="151.290064">
  <ele>343.1</ele>
  <time>2026-09-01T19:51:55Z</time>
  <course>270.0</course>
  <speed>0.0</speed>
  <fix>3d</fix>
</trkpt>
<trkpt lat="-27.274439" lon="151.290064">
  <ele>343.16</ele>
  <time>2026-09-01T19:51:55Z</time>
  <course>10.8</course>
  <speed>0.0</speed>
  <fix>3d</fix>
</trkpt>
<trkpt lat="-27.274439" lon="151.290064">
  <ele>343.1</ele>
  <time>2026-09-01T19:51:55Z</time>
  <course>270.0</course>
  <speed>0.0</speed>
  <fix>3d</fix>
</trkpt>
<trkpt lat="-27.274439" lon="151.290064">
  <ele>343.21</ele>
  <time>2026-09-01T19:51:55Z</time>
  <course>10.8</course>
  <speed>0.0</speed>
  <fix>3d</fix>
</trkpt>
<trkpt lat="-27.274439" lon="151.290064">
  <ele>343.1</ele>
  <time>2026-09-01T19:51:55Z</time>
  <course>270.0</course>
  <speed>0.0</speed>
  <fix>3d</fix>
</trkpt>
<trkpt lat="-27.274439" lon="151.290064">
  <ele>343.22</ele>
  <time>2026-09-01T19:51:55Z</time>
  <course>10.8</course>
  <speed>0.0</speed>
  <fix>3d</fix>
</trkpt>
<trkpt lat="-27.274439" lon="151.290064">
  <ele>343.1</ele>
  <time>2026-09-01T19:51:55Z</time>
  <course>270.0</course>
  <speed>0.0</speed>
  <fix>3d</fix>
</trkpt>
<trkpt lat="-27.274439" lon="151.290064">
  <ele>343.24</ele>
  <time>2026-09-01T19:51:55Z</time>
  <course>10.8</course>
  <speed>0.0</speed>
  <fix>3d</fix>
</trkpt>
<trkpt lat="-27.274439" lon="151.290064">
  <ele>343.1</ele>
  <time>2026-09-01T19:51:55Z</time>
  <course>270.0</course>
  <speed>0.0</speed>
  <fix>3d</fix>
</trkpt>
<trkpt lat="-27.274439" lon="151.290064">
  <ele>343.0</ele>
  <time>2026-09-01T19:51:55Z</time>
  <course>10.8</course>
  <speed>0.0</speed>
  <fix>3d</fix>
</trkpt>
<trkpt lat="-27.274439" lon="151.290064">
  <ele>343.1</ele>
  <time>2026-09-01T19:51:55Z</time>
  <course>270.0</course>
  <speed>0.0</speed>
  <fix>3d</fix>
</trkpt>
<trkpt lat="-27.274439" lon="151.290064">
  <ele>343.1</ele>
  <time>2026-09-01T19:51:55Z</time>
  <course>10.8</course>
  <speed>0.0</speed>
  <fix>3d</fix>
</trkpt>
<trkpt lat="-27.274439" lon="151.290064">
  <ele>343.1</ele>
  <time>2026-09-01T19:51:55Z</time>
  <course>270.0</course>
  <speed>0.0</speed>
  <fix>3d</fix>
</trkpt>
<trkpt lat="-27.274439" lon="151.290064">
  <ele>343.05</ele>
  <time>2026-09-01T19:51:55Z</time>
  <course>10.8</course>
  <speed>0.0</speed>
  <fix>3d</fix>
</trkpt>
<trkpt lat="-27.274439" lon="151.290064">
  <ele>343.1</ele>
  <time>2026-09-01T19:51:55Z</time>
  <course>270.0</course>
  <speed>0.0</speed>
  <fix>3d</fix>
</trkpt>
<trkpt lat="-27.274439" lon="151.290064">
  <ele>342.87</ele>
  <time>2026-09-01T19:51:55Z</time>
  <course>10.8</course>
  <speed>0.0</speed>
  <fix>3d</fix>
</trkpt>
<trkpt lat="-27.274439" lon="151.290064">
  <ele>343.1</ele>
  <time>2026-09-01T19:51:55Z</time>
  <course>270.0</course>
  <speed>0.0</speed>
  <fix>3d</fix>
</trkpt>
<trkpt lat="-27.274439" lon="151.290064">
  <ele>342.92</ele>
  <time>2026-09-01T19:51:55Z</time>
  <course>10.8</course>
  <speed>0.0</speed>
  <fix>3d</fix>
</trkpt>
<trkpt lat="-27.274439" lon="151.290064">
  <ele>343.1</ele>
  <time>2026-09-01T19:51:55Z</time>
  <course>270.0</course>
  <speed>0.0</speed>
  <fix>3d</fix>
</trkpt>
<trkpt lat="-27.274439" lon="151.290064">
  <ele>342.96</ele>
  <time>2026-09-01T19:51:55Z</time>
  <course>10.8</course>
  <speed>0.0</speed>
  <fix>3d</fix>
</trkpt>
<trkpt lat="-27.274439" lon="151.290064">
  <ele>343.1</ele>
  <time>2026-09-01T19:51:55Z</time>
  <course>270.0</course>
  <speed>0.0</speed>
  <fix>3d</fix>
</trkpt>
<trkpt lat="-27.274439" lon="151.290064">
  <ele>343.15</ele>
  <time>2026-09-01T19:51:55Z</time>
  <course>10.8</course>
  <speed>0.0</speed>
  <fix>3d</fix>
</trkpt>
<trkpt lat="-27.274439" lon="151.290064">
  <ele>343.1</ele>
  <time>2026-09-01T19:51:55Z</time>
  <course>270.0</course>
  <speed>0.0</speed>
  <fix>3d</fix>
</trkpt>
<trkpt lat="-27.274439" lon="151.290064">
  <ele>343.16</ele>
  <time>2026-09-01T19:51:55Z</time>
  <course>10.8</course>
  <speed>0.0</speed>
  <fix>3d</fix>
</trkpt>
<trkpt lat="-27.274439" lon="151.290064">
  <ele>343.1</ele>
  <time>2026-09-01T19:51:55Z</time>
  <course>270.0</course>
  <speed>0.0</speed>
  <fix>3d</fix>
</trkpt>
<trkpt lat="-27.274439" lon="151.290064">
  <ele>343.2</ele>
  <time>2026-09-01T19:51:55Z</time>
  <course>10.81</course>
  <speed>0.0</speed>
  <fix>3d</fix>
</trkpt>
<trkpt lat="-27.274439" lon="151.290064">
  <ele>343.1</ele>
  <time>2026-09-01T19:51:55Z</time>
  <course>270.0</course>
  <speed>0.0</speed>
  <fix>3d</fix>
</trkpt>
<trkpt lat="-27.274439" lon="151.290064">
  <ele>343.13</ele>
  <time>2026-09-01T19:51:55Z</time>
  <course>10.82</course>
  <speed>0.0</speed>
  <fix>3d</fix>
</trkpt>
<trkpt lat="-27.274439" lon="151.290064">
  <ele>343.1</ele>
  <time>2026-09-01T19:51:55Z</time>
  <course>270.0</course>
  <speed>0.0</speed>
  <fix>3d</fix>
</trkpt>
<trkpt lat="-27.274439" lon="151.290064">
  <ele>343.09</ele>
  <time>2026-09-01T19:51:55Z</time>
  <course>10.71</course>
  <speed>0.0</speed>
  <fix>3d</fix>
</trkpt>
<trkpt lat="-27.274439" lon="151.290064">
  <ele>343.1</ele>
  <time>2026-09-01T19:51:55Z</time>
  <course>270.0</course>
  <speed>0.0</speed>
  <fix>3d</fix>
</trkpt>
<trkpt lat="-27.274439" lon="151.290064">
  <ele>343.09</ele>
  <time>2026-09-01T19:51:55Z</time>
  <course>10.71</course>
  <speed>0.0</speed>
  <fix>3d</fix>
</trkpt>
<trkpt lat="-27.274439" lon="151.290064">
  <ele>343.1</ele>
  <time>2026-09-01T19:51:55Z</time>
  <course>270.0</course>
  <speed>0.0</speed>
  <fix>3d</fix>
</trkpt>
<trkpt lat="-27.274439" lon="151.290064">
  <ele>343.1</ele>
  <time>2026-09-01T19:51:55Z</time>
  <course>10.71</course>
  <speed>0.0</speed>
  <fix>3d</fix>
</trkpt>
<trkpt lat="-27.274439" lon="151.290064">
  <ele>343.1</ele>
  <time>2026-09-01T19:51:55Z</time>
  <course>270.0</course>
  <speed>0.0</speed>
  <fix>3d</fix>
</trkpt>
<trkpt lat="-27.274439" lon="151.290064">
  <ele>343.1</ele>
  <time>2026-09-01T19:51:55Z</time>
  <course>10.71</course>
  <speed>0.0</speed>
  <fix>3d</fix>
</trkpt>
<trkpt lat="-27.274439" lon="151.290064">
  <ele>343.1</ele>
  <time>2026-09-01T19:51:55Z</time>
  <course>270.0</course>
  <speed>0.0</speed>
  <fix>3d</fix>
</trkpt>
<trkpt lat="-27.274439" lon="151.290064">
  <ele>343.1</ele>
  <time>2026-09-01T19:51:55Z</time>
  <course>10.71</course>
  <speed>0.0</speed>
  <fix>3d</fix>
</trkpt>
<trkpt lat="-27.274439" lon="151.290064">
  <ele>343.1</ele>
  <time>2026-09-01T19:51:55Z</time>
  <course>270.0</course>
  <speed>0.0</speed>
  <fix>3d</fix>
</trkpt>
<trkpt lat="-27.274439" lon="151.290064">
  <ele>343.1</ele>
  <time>2026-09-01T19:51:55Z</time>
  <course>10.71</course>
  <speed>0.0</speed>
  <fix>3d</fix>
</trkpt>
<trkpt lat="-27.274439" lon="151.290064">
  <ele>343.1</ele>
  <time>2026-09-01T19:51:55Z</time>
  <course>270.0</course>
  <speed>0.0</speed>
  <fix>3d</fix>
</trkpt>
<trkpt lat="-27.274439" lon="151.290064">
  <ele>343.1</ele>
  <time>2026-09-01T19:51:55Z</time>
  <course>10.71</course>
  <speed>0.0</speed>
  <fix>3d</fix>
</trkpt>
<trkpt lat="-27.274439" lon="151.290064">
  <ele>343.1</ele>
  <time>2026-09-01T19:51:55Z</time>
  <course>270.0</course>
  <speed>0.0</speed>
  <fix>3d</fix>
</trkpt>
<trkpt lat="-27.274439" lon="151.290064">
  <ele>343.11</ele>
  <time>2026-09-01T19:51:55Z</time>
  <course>10.71</course>
  <speed>0.0</speed>
  <fix>3d</fix>
</trkpt>
<trkpt lat="-27.274439" lon="151.290064">
  <ele>343.1</ele>
  <time>2026-09-01T19:51:55Z</time>
  <course>270.0</course>
  <speed>0.0</speed>
  <fix>3d</fix>
</trkpt>
<trkpt lat="-27.274439" lon="151.290064">
  <ele>343.11</ele>
  <time>2026-09-01T19:51:55Z</time>
  <course>10.71</course>
  <speed>0.0</speed>
  <fix>3d</fix>
</trkpt>
<trkpt lat="-27.274439" lon="151.290064">
  <ele>343.1</ele>
  <time>2026-09-01T19:51:55Z</time>
  <course>270.0</course>
  <speed>0.0</speed>
  <fix>3d</fix>
</trkpt>
<trkpt lat="-27.274439" lon="151.290064">
  <ele>343.11</ele>
  <time>2026-09-01T19:51:55Z</time>
  <course>10.71</course>
  <speed>0.0</speed>
  <fix>3d</fix>
</trkpt>
<trkpt lat="-27.274439" lon="151.290064">
  <ele>343.1</ele>
  <time>2026-09-01T19:51:55Z</time>
  <course>270.0</course>
  <speed>0.0</speed>
  <fix>3d</fix>
</trkpt>
<trkpt lat="-27.274439" lon="151.290064">
  <ele>343.12</ele>
  <time>2026-09-01T19:51:55Z</time>
  <course>10.71</course>
  <speed>0.0</speed>
  <fix>3d</fix>
</trkpt>
<trkpt lat="-27.274439" lon="151.290064">
  <ele>343.1</ele>
  <time>2026-09-01T19:51:55Z</time>
  <course>270.0</course>
  <speed>0.0</speed>
  <fix>3d</fix>
</trkpt>
<trkpt lat="-27.274439" lon="151.290064">
  <ele>343.12</ele>
  <time>2026-09-01T19:51:55Z</time>
  <course>10.71</course>
  <speed>0.0</speed>
  <fix>3d</fix>
</trkpt>
<trkpt lat="-27.274439" lon="151.290064">
  <ele>343.1</ele>
  <time>2026-09-01T19:51:55Z</time>
  <course>270.0</course>
  <speed>0.0</speed>
  <fix>3d</fix>
</trkpt>
<trkpt lat="-27.274439" lon="151.290064">
  <ele>343.1</ele>
  <time>2026-09-01T19:51:55Z</time>
  <course>10.71</course>
  <speed>0.0</speed>
  <fix>3d</fix>
</trkpt>
<trkpt lat="-27.274439" lon="151.290064">
  <ele>343.1</ele>
  <time>2026-09-01T19:51:55Z</time>
  <course>270.0</course>
  <speed>0.0</speed>
  <fix>3d</fix>
</trkpt>
<trkpt lat="-27.274439" lon="151.290064">
  <ele>343.1</ele>
  <time>2026-09-01T19:51:55Z</time>
  <course>10.71</course>
  <speed>0.0</speed>
  <fix>3d</fix>
</trkpt>
<trkpt lat="-27.274439" lon="151.290064">
  <ele>343.1</ele>
  <time>2026-09-01T19:51:55Z</time>
  <course>270.0</course>
  <speed>0.0</speed>
  <fix>3d</fix>
</trkpt>
<trkpt lat="-27.274439" lon="151.290064">
  <ele>343.1</ele>
  <time>2026-09-01T19:51:55Z</time>
  <course>10.71</course>
  <speed>0.0</speed>
  <fix>3d</fix>
</trkpt>
<trkpt lat="-27.274439" lon="151.290064">
  <ele>343.1</ele>
  <time>2026-09-01T19:51:55Z</time>
  <course>270.0</course>
  <speed>0.0</speed>
  <fix>3d</fix>
</trkpt>
<trkpt lat="-27.274439" lon="151.290064">
  <ele>343.09</ele>
  <time>2026-09-01T19:51:55Z</time>
  <course>10.71</course>
  <speed>0.0</speed>
  <fix>3d</fix>
</trkpt>
<trkpt lat="-27.274439" lon="151.290064">
  <ele>343.1</ele>
  <time>2026-09-01T19:51:55Z</time>
  <course>270.0</course>
  <speed>0.0</speed>
  <fix>3d</fix>
</trkpt>
<trkpt lat="-27.274439" lon="151.290064">
  <ele>343.09</ele>
  <time>2026-09-01T19:51:55Z</time>
  <course>10.71</course>
  <speed>0.0</speed>
  <fix>3d</fix>
</trkpt>
<trkpt lat="-27.274439" lon="151.290064">
  <ele>343.1</ele>
  <time>2026-09-01T19:51:55Z</time>
  <course>270.0</course>
  <speed>0.0</speed>
  <fix>3d</fix>
</trkpt>
<trkpt lat="-27.274439" lon="151.290064">
  <ele>343.09</ele>
  <time>2026-09-01T19:51:55Z</time>
  <course>10.71</course>
  <speed>0.0</speed>
  <fix>3d</fix>
</trkpt>
<trkpt lat="-27.274439" lon="151.290064">
  <ele>343.1</ele>
  <time>2026-09-01T19:51:55Z</time>
  <course>270.0</course>
  <speed>0.0</speed>
  <fix>3d</fix>
</trkpt>
<trkpt lat="-27.274439" lon="151.290064">
  <ele>343.1</ele>
  <time>2026-09-01T19:51:55Z</time>
  <course>10.71</course>
  <speed>0.0</speed>
  <fix>3d</fix>
</trkpt>
<trkpt lat="-27.274439" lon="151.290064">
  <ele>343.1</ele>
  <time>2026-09-01T19:51:55Z</time>
  <course>270.0</course>
  <speed>0.0</speed>
  <fix>3d</fix>
</trkpt>
<trkpt lat="-27.274439" lon="151.290064">
  <ele>343.1</ele>
  <time>2026-09-01T19:51:55Z</time>
  <course>10.71</course>
  <speed>0.0</speed>
  <fix>3d</fix>
</trkpt>
<trkpt lat="-27.274439" lon="151.290064">
  <ele>343.1</ele>
  <time>2026-09-01T19:51:55Z</time>
  <course>270.0</course>
  <speed>0.0</speed>
  <fix>3d</fix>
</trkpt>
<trkpt lat="-27.274439" lon="151.290064">
  <ele>343.09</ele>
  <time>2026-09-01T19:51:56Z</time>
  <course>10.71</course>
  <speed>0.0</speed>
  <fix>3d</fix>
</trkpt>
<trkpt lat="-27.274439" lon="151.290064">
  <ele>343.1</ele>
  <time>2026-09-01T19:51:56Z</time>
  <course>270.0</course>
  <speed>0.0</speed>
  <fix>3d</fix>
</trkpt>
<trkpt lat="-27.274439" lon="151.290064">
  <ele>343.09</ele>
  <time>2026-09-01T19:51:56Z</time>
  <course>10.71</course>
  <speed>0.0</speed>
  <fix>3d</fix>
</trkpt>
<trkpt lat="-27.274439" lon="151.290064">
  <ele>343.1</ele>
  <time>2026-09-01T19:51:56Z</time>
  <course>270.0</course>
  <speed>0.0</speed>
  <fix>3d</fix>
</trkpt>
<trkpt lat="-27.274439" lon="151.290064">
  <ele>343.09</ele>
  <time>2026-09-01T19:51:56Z</time>
  <course>10.71</course>
  <speed>0.0</speed>
  <fix>3d</fix>
</trkpt>
<trkpt lat="-27.274439" lon="151.290064">
  <ele>343.1</ele>
  <time>2026-09-01T19:51:56Z</time>
  <course>270.0</course>
  <speed>0.0</speed>
  <fix>3d</fix>
</trkpt>
<trkpt lat="-27.274439" lon="151.290064">
  <ele>343.09</ele>
  <time>2026-09-01T19:51:56Z</time>
  <course>10.71</course>
  <speed>0.0</speed>
  <fix>3d</fix>
</trkpt>
<trkpt lat="-27.274439" lon="151.290064">
  <ele>343.1</ele>
  <time>2026-09-01T19:51:56Z</time>
  <course>270.0</course>
  <speed>0.0</speed>
  <fix>3d</fix>
</trkpt>
<trkpt lat="-27.274439" lon="151.290064">
  <ele>343.09</ele>
  <time>2026-09-01T19:51:56Z</time>
  <course>10.71</course>
  <speed>0.0</speed>
  <fix>3d</fix>
</trkpt>
<trkpt lat="-27.274439" lon="151.290064">
  <ele>343.1</ele>
  <time>2026-09-01T19:51:56Z</time>
  <course>270.0</course>
  <speed>0.0</speed>
  <fix>3d</fix>
</trkpt>
<trkpt lat="-27.274439" lon="151.290064">
  <ele>343.09</ele>
  <time>2026-09-01T19:51:56Z</time>
  <course>10.71</course>
  <speed>0.0</speed>
  <fix>3d</fix>
</trkpt>
<trkpt lat="-27.274439" lon="151.290064">
  <ele>343.1</ele>
  <time>2026-09-01T19:51:56Z</time>
  <course>270.0</course>
  <speed>0.0</speed>
  <fix>3d</fix>
</trkpt>
<trkpt lat="-27.274439" lon="151.290064">
  <ele>343.09</ele>
  <time>2026-09-01T19:51:56Z</time>
  <course>10.71</course>
  <speed>0.0</speed>
  <fix>3d</fix>
</trkpt>
<trkpt lat="-27.274439" lon="151.290064">
  <ele>343.1</ele>
  <time>2026-09-01T19:51:56Z</time>
  <course>270.0</course>
  <speed>0.0</speed>
  <fix>3d</fix>
</trkpt>
<trkpt lat="-27.274439" lon="151.290064">
  <ele>343.09</ele>
  <time>2026-09-01T19:51:56Z</time>
  <course>10.71</course>
  <speed>0.0</speed>
  <fix>3d</fix>
</trkpt>
<trkpt lat="-27.274439" lon="151.290064">
  <ele>343.1</ele>
  <time>2026-09-01T19:51:56Z</time>
  <course>270.0</course>
  <speed>0.0</speed>
  <fix>3d</fix>
</trkpt>
<trkpt lat="-27.274439" lon="151.290064">
  <ele>343.1</ele>
  <time>2026-09-01T19:51:56Z</time>
  <course>10.71</course>
  <speed>0.0</speed>
  <fix>3d</fix>
</trkpt>
<trkpt lat="-27.274439" lon="151.290064">
  <ele>343.1</ele>
  <time>2026-09-01T19:51:56Z</time>
  <course>270.0</course>
  <speed>0.0</speed>
  <fix>3d</fix>
</trkpt>
<trkpt lat="-27.274439" lon="151.290064">
  <ele>343.1</ele>
  <time>2026-09-01T19:51:56Z</time>
  <course>10.71</course>
  <speed>0.0</speed>
  <fix>3d</fix>
</trkpt>
<trkpt lat="-27.274439" lon="151.290064">
  <ele>343.1</ele>
  <time>2026-09-01T19:51:56Z</time>
  <course>270.0</course>
  <speed>0.0</speed>
  <fix>3d</fix>
</trkpt>
<trkpt lat="-27.274439" lon="151.290064">
  <ele>343.1</ele>
  <time>2026-09-01T19:51:56Z</time>
  <course>10.71</course>
  <speed>0.0</speed>
  <fix>3d</fix>
</trkpt>
<trkpt lat="-27.274439" lon="151.290064">
  <ele>343.1</ele>
  <time>2026-09-01T19:51:56Z</time>
  <course>270.0</course>
  <speed>0.0</speed>
  <fix>3d</fix>
</trkpt>
<trkpt lat="-27.274439" lon="151.290064">
  <ele>343.1</ele>
  <time>2026-09-01T19:51:56Z</time>
  <course>10.71</course>
  <speed>0.0</speed>
  <fix>3d</fix>
</trkpt>
<trkpt lat="-27.274439" lon="151.290064">
  <ele>343.1</ele>
  <time>2026-09-01T19:51:56Z</time>
  <course>270.0</course>
  <speed>0.0</speed>
  <fix>3d</fix>
</trkpt>
<trkpt lat="-27.274439" lon="151.290064">
  <ele>343.11</ele>
  <time>2026-09-01T19:51:56Z</time>
  <course>10.71</course>
  <speed>0.0</speed>
  <fix>3d</fix>
</trkpt>
<trkpt lat="-27.274439" lon="151.290064">
  <ele>343.1</ele>
  <time>2026-09-01T19:51:56Z</time>
  <course>270.0</course>
  <speed>0.0</speed>
  <fix>3d</fix>
</trkpt>
<trkpt lat="-27.274439" lon="151.290064">
  <ele>343.11</ele>
  <time>2026-09-01T19:51:56Z</time>
  <course>10.71</course>
  <speed>0.0</speed>
  <fix>3d</fix>
</trkpt>
<trkpt lat="-27.274439" lon="151.290064">
  <ele>343.1</ele>
  <time>2026-09-01T19:51:56Z</time>
  <course>270.0</course>
  <speed>0.0</speed>
  <fix>3d</fix>
</trkpt>
<trkpt lat="-27.274439" lon="151.290064">
  <ele>343.11</ele>
  <time>2026-09-01T19:51:56Z</time>
  <course>10.71</course>
  <speed>0.0</speed>
  <fix>3d</fix>
</trkpt>
<trkpt lat="-27.274439" lon="151.290064">
  <ele>343.1</ele>
  <time>2026-09-01T19:51:56Z</time>
  <course>270.0</course>
  <speed>0.0</speed>
  <fix>3d</fix>
</trkpt>
<trkpt lat="-27.274439" lon="151.290064">
  <ele>343.11</ele>
  <time>2026-09-01T19:51:56Z</time>
  <course>10.71</course>
  <speed>0.0</speed>
  <fix>3d</fix>
</trkpt>
<trkpt lat="-27.274439" lon="151.290064">
  <ele>343.1</ele>
  <time>2026-09-01T19:51:56Z</time>
  <course>270.0</course>
  <speed>0.0</speed>
  <fix>3d</fix>
</trkpt>
<trkpt lat="-27.274439" lon="151.290064">
  <ele>343.12</ele>
  <time>2026-09-01T19:51:56Z</time>
  <course>10.71</course>
  <speed>0.0</speed>
  <fix>3d</fix>
</trkpt>
<trkpt lat="-27.274439" lon="151.290064">
  <ele>343.1</ele>
  <time>2026-09-01T19:51:56Z</time>
  <course>270.0</course>
  <speed>0.0</speed>
  <fix>3d</fix>
</trkpt>
<trkpt lat="-27.274439" lon="151.290064">
  <ele>343.12</ele>
  <time>2026-09-01T19:51:56Z</time>
  <course>10.71</course>
  <speed>0.0</speed>
  <fix>3d</fix>
</trkpt>
<trkpt lat="-27.274439" lon="151.290064">
  <ele>343.1</ele>
  <time>2026-09-01T19:51:56Z</time>
  <course>270.0</course>
  <speed>0.0</speed>
  <fix>3d</fix>
</trkpt>
<trkpt lat="-27.274439" lon="151.290064">
  <ele>343.12</ele>
  <time>2026-09-01T19:51:56Z</time>
  <course>10.71</course>
  <speed>0.0</speed>
  <fix>3d</fix>
</trkpt>
<trkpt lat="-27.274439" lon="151.290064">
  <ele>343.1</ele>
  <time>2026-09-01T19:51:56Z</time>
  <course>270.0</course>
  <speed>0.0</speed>
  <fix>3d</fix>
</trkpt>
<trkpt lat="-27.274439" lon="151.290064">
  <ele>343.12</ele>
  <time>2026-09-01T19:51:56Z</time>
  <course>10.71</course>
  <speed>0.0</speed>
  <fix>3d</fix>
</trkpt>
<trkpt lat="-27.274439" lon="151.290064">
  <ele>343.1</ele>
  <time>2026-09-01T19:51:56Z</time>
  <course>270.0</course>
  <speed>0.0</speed>
  <fix>3d</fix>
</trkpt>
<trkpt lat="-27.274439" lon="151.290064">
  <ele>343.12</ele>
  <time>2026-09-01T19:51:56Z</time>
  <course>10.71</course>
  <speed>0.0</speed>
  <fix>3d</fix>
</trkpt>
<trkpt lat="-27.274439" lon="151.290064">
  <ele>343.1</ele>
  <time>2026-09-01T19:51:56Z</time>
  <course>270.0</course>
  <speed>0.0</speed>
  <fix>3d</fix>
</trkpt>
<trkpt lat="-27.274439" lon="151.290064">
  <ele>343.13</ele>
  <time>2026-09-01T19:51:56Z</time>
  <course>10.71</course>
  <speed>0.0</speed>
  <fix>3d</fix>
</trkpt>
<trkpt lat="-27.274439" lon="151.290064">
  <ele>343.1</ele>
  <time>2026-09-01T19:51:56Z</time>
  <course>270.0</course>
  <speed>0.0</speed>
  <fix>3d</fix>
</trkpt>
<trkpt lat="-27.274439" lon="151.290064">
  <ele>343.13</ele>
  <time>2026-09-01T19:51:56Z</time>
  <course>10.71</course>
  <speed>0.0</speed>
  <fix>3d</fix>
</trkpt>
<trkpt lat="-27.274439" lon="151.290064">
  <ele>343.1</ele>
  <time>2026-09-01T19:51:56Z</time>
  <course>270.0</course>
  <speed>0.0</speed>
  <fix>3d</fix>
</trkpt>
<trkpt lat="-27.274439" lon="151.290064">
  <ele>343.13</ele>
  <time>2026-09-01T19:51:56Z</time>
  <course>10.71</course>
  <speed>0.0</speed>
  <fix>3d</fix>
</trkpt>
<trkpt lat="-27.274439" lon="151.290064">
  <ele>343.1</ele>
  <time>2026-09-01T19:51:56Z</time>
  <course>270.0</course>
  <speed>0.0</speed>
  <fix>3d</fix>
</trkpt>
<trkpt lat="-27.274439" lon="151.290064">
  <ele>343.13</ele>
  <time>2026-09-01T19:51:56Z</time>
  <course>10.71</course>
  <speed>0.0</speed>
  <fix>3d</fix>
</trkpt>
<trkpt lat="-27.274439" lon="151.290064">
  <ele>343.1</ele>
  <time>2026-09-01T19:51:56Z</time>
  <course>270.0</course>
  <speed>0.0</speed>
  <fix>3d</fix>
</trkpt>
<trkpt lat="-27.274439" lon="151.290064">
  <ele>343.14</ele>
  <time>2026-09-01T19:51:56Z</time>
  <course>10.71</course>
  <speed>0.0</speed>
  <fix>3d</fix>
</trkpt>
<trkpt lat="-27.274439" lon="151.290064">
  <ele>343.1</ele>
  <time>2026-09-01T19:51:56Z</time>
  <course>270.0</course>
  <speed>0.0</speed>
  <fix>3d</fix>
</trkpt>
<trkpt lat="-27.274439" lon="151.290064">
  <ele>343.14</ele>
  <time>2026-09-01T19:51:56Z</time>
  <course>10.71</course>
  <speed>0.0</speed>
  <fix>3d</fix>
</trkpt>
<trkpt lat="-27.274439" lon="151.290064">
  <ele>343.1</ele>
  <time>2026-09-01T19:51:56Z</time>
  <course>270.0</course>
  <speed>0.0</speed>
  <fix>3d</fix>
</trkpt>
<trkpt lat="-27.274439" lon="151.290064">
  <ele>343.14</ele>
  <time>2026-09-01T19:51:56Z</time>
  <course>10.71</course>
  <speed>0.0</speed>
  <fix>3d</fix>
</trkpt>
<trkpt lat="-27.274439" lon="151.290064">
  <ele>343.1</ele>
  <time>2026-09-01T19:51:56Z</time>
  <course>270.0</course>
  <speed>0.0</speed>
  <fix>3d</fix>
</trkpt>
<trkpt lat="-27.274439" lon="151.290064">
  <ele>343.14</ele>
  <time>2026-09-01T19:51:56Z</time>
  <course>10.71</course>
  <speed>0.0</speed>
  <fix>3d</fix>
</trkpt>
<trkpt lat="-27.274439" lon="151.290064">
  <ele>343.1</ele>
  <time>2026-09-01T19:51:56Z</time>
  <course>270.0</course>
  <speed>0.0</speed>
  <fix>3d</fix>
</trkpt>
<trkpt lat="-27.274439" lon="151.290064">
  <ele>343.14</ele>
  <time>2026-09-01T19:51:56Z</time>
  <course>10.71</course>
  <speed>0.0</speed>
  <fix>3d</fix>
</trkpt>
<trkpt lat="-27.274439" lon="151.290064">
  <ele>343.1</ele>
  <time>2026-09-01T19:51:56Z</time>
  <course>270.0</course>
  <speed>0.0</speed>
  <fix>3d</fix>
</trkpt>
<trkpt lat="-27.274439" lon="151.290064">
  <ele>343.14</ele>
  <time>2026-09-01T19:51:56Z</time>
  <course>10.71</course>
  <speed>0.0</speed>
  <fix>3d</fix>
</trkpt>
<trkpt lat="-27.274439" lon="151.290064">
  <ele>343.1</ele>
  <time>2026-09-01T19:51:56Z</time>
  <course>270.0</course>
  <speed>0.0</speed>
  <fix>3d</fix>
</trkpt>
<trkpt lat="-27.274439" lon="151.290064">
  <ele>343.14</ele>
  <time>2026-09-01T19:51:56Z</time>
  <course>10.71</course>
  <speed>0.0</speed>
  <fix>3d</fix>
</trkpt>
<trkpt lat="-27.274439" lon="151.290064">
  <ele>343.1</ele>
  <time>2026-09-01T19:51:56Z</time>
  <course>270.0</course>
  <speed>0.0</speed>
  <fix>3d</fix>
</trkpt>
<trkpt lat="-27.274439" lon="151.290064">
  <ele>343.14</ele>
  <time>2026-09-01T19:51:56Z</time>
  <course>10.71</course>
  <speed>0.0</speed>
  <fix>3d</fix>
</trkpt>
<trkpt lat="-27.274439" lon="151.290064">
  <ele>343.1</ele>
  <time>2026-09-01T19:51:56Z</time>
  <course>270.0</course>
  <speed>0.0</speed>
  <fix>3d</fix>
</trkpt>
<trkpt lat="-27.274439" lon="151.290064">
  <ele>343.13</ele>
  <time>2026-09-01T19:51:56Z</time>
  <course>10.71</course>
  <speed>0.0</speed>
  <fix>3d</fix>
</trkpt>
<trkpt lat="-27.274439" lon="151.290064">
  <ele>343.1</ele>
  <time>2026-09-01T19:51:56Z</time>
  <course>270.0</course>
  <speed>0.0</speed>
  <fix>3d</fix>
</trkpt>
<trkpt lat="-27.274439" lon="151.290064">
  <ele>343.13</ele>
  <time>2026-09-01T19:51:56Z</time>
  <course>10.71</course>
  <speed>0.0</speed>
  <fix>3d</fix>
</trkpt>
<trkpt lat="-27.274439" lon="151.290064">
  <ele>343.1</ele>
  <time>2026-09-01T19:51:56Z</time>
  <course>270.0</course>
  <speed>0.0</speed>
  <fix>3d</fix>
</trkpt>
<trkpt lat="-27.274439" lon="151.290064">
  <ele>343.13</ele>
  <time>2026-09-01T19:51:56Z</time>
  <course>10.71</course>
  <speed>0.0</speed>
  <fix>3d</fix>
</trkpt>
<trkpt lat="-27.274439" lon="151.290064">
  <ele>343.1</ele>
  <time>2026-09-01T19:51:56Z</time>
  <course>270.0</course>
  <speed>0.0</speed>
  <fix>3d</fix>
</trkpt>
<trkpt lat="-27.274439" lon="151.290064">
  <ele>343.13</ele>
  <time>2026-09-01T19:51:56Z</time>
  <course>10.71</course>
  <speed>0.0</speed>
  <fix>3d</fix>
</trkpt>
<trkpt lat="-27.274439" lon="151.290064">
  <ele>343.1</ele>
  <time>2026-09-01T19:51:56Z</time>
  <course>270.0</course>
  <speed>0.0</speed>
  <fix>3d</fix>
</trkpt>
<trkpt lat="-27.274439" lon="151.290064">
  <ele>343.13</ele>
  <time>2026-09-01T19:51:56Z</time>
  <course>10.71</course>
  <speed>0.0</speed>
  <fix>3d</fix>
</trkpt>
<trkpt lat="-27.274439" lon="151.290064">
  <ele>343.1</ele>
  <time>2026-09-01T19:51:56Z</time>
  <course>270.0</course>
  <speed>0.0</speed>
  <fix>3d</fix>
</trkpt>
<trkpt lat="-27.274439" lon="151.290064">
  <ele>343.13</ele>
  <time>2026-09-01T19:51:56Z</time>
  <course>10.71</course>
  <speed>0.0</speed>
  <fix>3d</fix>
</trkpt>
<trkpt lat="-27.274439" lon="151.290064">
  <ele>343.1</ele>
  <time>2026-09-01T19:51:56Z</time>
  <course>270.0</course>
  <speed>0.0</speed>
  <fix>3d</fix>
</trkpt>
<trkpt lat="-27.274439" lon="151.290064">
  <ele>343.13</ele>
  <time>2026-09-01T19:51:56Z</time>
  <course>10.71</course>
  <speed>0.0</speed>
  <fix>3d</fix>
</trkpt>
<trkpt lat="-27.274439" lon="151.290064">
  <ele>343.1</ele>
  <time>2026-09-01T19:51:56Z</time>
  <course>270.0</course>
  <speed>0.0</speed>
  <fix>3d</fix>
</trkpt>
<trkpt lat="-27.274439" lon="151.290064">
  <ele>343.13</ele>
  <time>2026-09-01T19:51:56Z</time>
  <course>10.71</course>
  <speed>0.0</speed>
  <fix>3d</fix>
</trkpt>
<trkpt lat="-27.274439" lon="151.290064">
  <ele>343.1</ele>
  <time>2026-09-01T19:51:56Z</time>
  <course>270.0</course>
  <speed>0.0</speed>
  <fix>3d</fix>
</trkpt>
<trkpt lat="-27.274439" lon="151.290064">
  <ele>343.14</ele>
  <time>2026-09-01T19:51:56Z</time>
  <course>10.71</course>
  <speed>0.0</speed>
  <fix>3d</fix>
</trkpt>
<trkpt lat="-27.274439" lon="151.290064">
  <ele>343.1</ele>
  <time>2026-09-01T19:51:56Z</time>
  <course>270.0</course>
  <speed>0.0</speed>
  <fix>3d</fix>
</trkpt>
<trkpt lat="-27.274439" lon="151.290064">
  <ele>343.14</ele>
  <time>2026-09-01T19:51:56Z</time>
  <course>10.71</course>
  <speed>0.0</speed>
  <fix>3d</fix>
</trkpt>
<trkpt lat="-27.274439" lon="151.290064">
  <ele>343.1</ele>
  <time>2026-09-01T19:51:56Z</time>
  <course>270.0</course>
  <speed>0.0</speed>
  <fix>3d</fix>
</trkpt>
<trkpt lat="-27.274439" lon="151.290064">
  <ele>343.14</ele>
  <time>2026-09-01T19:51:56Z</time>
  <course>10.71</course>
  <speed>0.0</speed>
  <fix>3d</fix>
</trkpt>
<trkpt lat="-27.274439" lon="151.290064">
  <ele>343.1</ele>
  <time>2026-09-01T19:51:56Z</time>
  <course>270.0</course>
  <speed>0.0</speed>
  <fix>3d</fix>
</trkpt>
<trkpt lat="-27.274439" lon="151.290064">
  <ele>343.14</ele>
  <time>2026-09-01T19:51:56Z</time>
  <course>10.71</course>
  <speed>0.0</speed>
  <fix>3d</fix>
</trkpt>
<trkpt lat="-27.274439" lon="151.290064">
  <ele>343.1</ele>
  <time>2026-09-01T19:51:56Z</time>
  <course>270.0</course>
  <speed>0.0</speed>
  <fix>3d</fix>
</trkpt>
<trkpt lat="-27.274439" lon="151.290064">
  <ele>343.14</ele>
  <time>2026-09-01T19:51:56Z</time>
  <course>10.71</course>
  <speed>0.0</speed>
  <fix>3d</fix>
</trkpt>
<trkpt lat="-27.274439" lon="151.290064">
  <ele>343.1</ele>
  <time>2026-09-01T19:51:56Z</time>
  <course>270.0</course>
  <speed>0.0</speed>
  <fix>3d</fix>
</trkpt>
<trkpt lat="-27.274439" lon="151.290064">
  <ele>343.14</ele>
  <time>2026-09-01T19:51:56Z</time>
  <course>10.71</course>
  <speed>0.0</speed>
  <fix>3d</fix>
</trkpt>
<trkpt lat="-27.274439" lon="151.290064">
  <ele>343.1</ele>
  <time>2026-09-01T19:51:56Z</time>
  <course>270.0</course>
  <speed>0.0</speed>
  <fix>3d</fix>
</trkpt>
<trkpt lat="-27.274439" lon="151.290064">
  <ele>343.15</ele>
  <time>2026-09-01T19:51:56Z</time>
  <course>10.71</course>
  <speed>0.0</speed>
  <fix>3d</fix>
</trkpt>
<trkpt lat="-27.274439" lon="151.290064">
  <ele>343.1</ele>
  <time>2026-09-01T19:51:56Z</time>
  <course>270.0</course>
  <speed>0.0</speed>
  <fix>3d</fix>
</trkpt>
<trkpt lat="-27.274439" lon="151.290064">
  <ele>343.15</ele>
  <time>2026-09-01T19:51:56Z</time>
  <course>10.71</course>
  <speed>0.0</speed>
  <fix>3d</fix>
</trkpt>
<trkpt lat="-27.274439" lon="151.290064">
  <ele>343.1</ele>
  <time>2026-09-01T19:51:56Z</time>
  <course>270.0</course>
  <speed>0.0</speed>
  <fix>3d</fix>
</trkpt>
<trkpt lat="-27.274439" lon="151.290064">
  <ele>343.15</ele>
  <time>2026-09-01T19:51:56Z</time>
  <course>10.71</course>
  <speed>0.0</speed>
  <fix>3d</fix>
</trkpt>
<trkpt lat="-27.274439" lon="151.290064">
  <ele>343.1</ele>
  <time>2026-09-01T19:51:56Z</time>
  <course>270.0</course>
  <speed>0.0</speed>
  <fix>3d</fix>
</trkpt>
<trkpt lat="-27.274439" lon="151.290064">
  <ele>343.15</ele>
  <time>2026-09-01T19:51:56Z</time>
  <course>10.71</course>
  <speed>0.0</speed>
  <fix>3d</fix>
</trkpt>
<trkpt lat="-27.274439" lon="151.290064">
  <ele>343.1</ele>
  <time>2026-09-01T19:51:56Z</time>
  <course>270.0</course>
  <speed>0.0</speed>
  <fix>3d</fix>
</trkpt>
<trkpt lat="-27.274439" lon="151.290064">
  <ele>343.15</ele>
  <time>2026-09-01T19:51:56Z</time>
  <course>10.71</course>
  <speed>0.0</speed>
  <fix>3d</fix>
</trkpt>
<trkpt lat="-27.274439" lon="151.290064">
  <ele>343.1</ele>
  <time>2026-09-01T19:51:56Z</time>
  <course>270.0</course>
  <speed>0.0</speed>
  <fix>3d</fix>
</trkpt>
<trkpt lat="-27.274439" lon="151.290064">
  <ele>343.09</ele>
  <time>2026-09-01T19:51:56Z</time>
  <course>10.71</course>
  <speed>0.0</speed>
  <fix>3d</fix>
</trkpt>
<trkpt lat="-27.274439" lon="151.290064">
  <ele>343.1</ele>
  <time>2026-09-01T19:51:56Z</time>
  <course>270.0</course>
  <speed>0.0</speed>
  <fix>3d</fix>
</trkpt>
<trkpt lat="-27.274439" lon="151.290064">
  <ele>343.09</ele>
  <time>2026-09-01T19:51:56Z</time>
  <course>10.71</course>
  <speed>0.0</speed>
  <fix>3d</fix>
</trkpt>
<trkpt lat="-27.274439" lon="151.290064">
  <ele>343.1</ele>
  <time>2026-09-01T19:51:56Z</time>
  <course>270.0</course>
  <speed>0.0</speed>
  <fix>3d</fix>
</trkpt>
<trkpt lat="-27.274439" lon="151.290064">
  <ele>343.09</ele>
  <time>2026-09-01T19:51:56Z</time>
  <course>10.71</course>
  <speed>0.0</speed>
  <fix>3d</fix>
</trkpt>
<trkpt lat="-27.274439" lon="151.290064">
  <ele>343.1</ele>
  <time>2026-09-01T19:51:56Z</time>
  <course>270.0</course>
  <speed>0.0</speed>
  <fix>3d</fix>
</trkpt>
<trkpt lat="-27.274439" lon="151.290064">
  <ele>343.09</ele>
  <time>2026-09-01T19:51:56Z</time>
  <course>10.71</course>
  <speed>0.0</speed>
  <fix>3d</fix>
</trkpt>
<trkpt lat="-27.274439" lon="151.290064">
  <ele>343.1</ele>
  <time>2026-09-01T19:51:56Z</time>
  <course>270.0</course>
  <speed>0.0</speed>
  <fix>3d</fix>
</trkpt>
<trkpt lat="-27.274439" lon="151.290064">
  <ele>343.08</ele>
  <time>2026-09-01T19:51:56Z</time>
  <course>10.71</course>
  <speed>0.0</speed>
  <fix>3d</fix>
</trkpt>
<trkpt lat="-27.274439" lon="151.290064">
  <ele>343.1</ele>
  <time>2026-09-01T19:51:56Z</time>
  <course>270.0</course>
  <speed>0.0</speed>
  <fix>3d</fix>
</trkpt>
<trkpt lat="-27.274439" lon="151.290064">
  <ele>343.08</ele>
  <time>2026-09-01T19:51:56Z</time>
  <course>10.71</course>
  <speed>0.0</speed>
  <fix>3d</fix>
</trkpt>
<trkpt lat="-27.274439" lon="151.290064">
  <ele>343.1</ele>
  <time>2026-09-01T19:51:56Z</time>
  <course>270.0</course>
  <speed>0.0</speed>
  <fix>3d</fix>
</trkpt>
<trkpt lat="-27.274439" lon="151.290064">
  <ele>343.08</ele>
  <time>2026-09-01T19:51:56Z</time>
  <course>10.71</course>
  <speed>0.0</speed>
  <fix>3d</fix>
</trkpt>
<trkpt lat="-27.274439" lon="151.290064">
  <ele>343.1</ele>
  <time>2026-09-01T19:51:56Z</time>
  <course>270.0</course>
  <speed>0.0</speed>
  <fix>3d</fix>
</trkpt>
<trkpt lat="-27.274439" lon="151.290064">
  <ele>343.07</ele>
  <time>2026-09-01T19:51:56Z</time>
  <course>10.71</course>
  <speed>0.0</speed>
  <fix>3d</fix>
</trkpt>
<trkpt lat="-27.274439" lon="151.290064">
  <ele>343.1</ele>
  <time>2026-09-01T19:51:56Z</time>
  <course>270.0</course>
  <speed>0.0</speed>
  <fix>3d</fix>
</trkpt>
<trkpt lat="-27.274439" lon="151.290064">
  <ele>343.07</ele>
  <time>2026-09-01T19:51:56Z</time>
  <course>10.71</course>
  <speed>0.0</speed>
  <fix>3d</fix>
</trkpt>
<trkpt lat="-27.274439" lon="151.290064">
  <ele>343.1</ele>
  <time>2026-09-01T19:51:56Z</time>
  <course>270.0</course>
  <speed>0.0</speed>
  <fix>3d</fix>
</trkpt>
<trkpt lat="-27.274439" lon="151.290064">
  <ele>343.06</ele>
  <time>2026-09-01T19:51:56Z</time>
  <course>10.71</course>
  <speed>0.0</speed>
  <fix>3d</fix>
</trkpt>
<trkpt lat="-27.274439" lon="151.290064">
  <ele>343.1</ele>
  <time>2026-09-01T19:51:56Z</time>
  <course>270.0</course>
  <speed>0.0</speed>
  <fix>3d</fix>
</trkpt>
<trkpt lat="-27.274439" lon="151.290064">
  <ele>343.06</ele>
  <time>2026-09-01T19:51:56Z</time>
  <course>10.71</course>
  <speed>0.0</speed>
  <fix>3d</fix>
</trkpt>
<trkpt lat="-27.274439" lon="151.290064">
  <ele>343.1</ele>
  <time>2026-09-01T19:51:56Z</time>
  <course>270.0</course>
  <speed>0.0</speed>
  <fix>3d</fix>
</trkpt>
<trkpt lat="-27.274439" lon="151.290064">
  <ele>343.06</ele>
  <time>2026-09-01T19:51:56Z</time>
  <course>10.71</course>
  <speed>0.0</speed>
  <fix>3d</fix>
</trkpt>
<trkpt lat="-27.274439" lon="151.290064">
  <ele>343.1</ele>
  <time>2026-09-01T19:51:56Z</time>
  <course>270.0</course>
  <speed>0.0</speed>
  <fix>3d</fix>
</trkpt>
<trkpt lat="-27.274439" lon="151.290064">
  <ele>343.05</ele>
  <time>2026-09-01T19:51:56Z</time>
  <course>10.71</course>
  <speed>0.0</speed>
  <fix>3d</fix>
</trkpt>
<trkpt lat="-27.274439" lon="151.290064">
  <ele>343.1</ele>
  <time>2026-09-01T19:51:56Z</time>
  <course>270.0</course>
  <speed>0.0</speed>
  <fix>3d</fix>
</trkpt>
<trkpt lat="-27.274439" lon="151.290064">
  <ele>343.05</ele>
  <time>2026-09-01T19:51:56Z</time>
  <course>10.71</course>
  <speed>0.0</speed>
  <fix>3d</fix>
</trkpt>
<trkpt lat="-27.274439" lon="151.290064">
  <ele>343.1</ele>
  <time>2026-09-01T19:51:56Z</time>
  <course>270.0</course>
  <speed>0.0</speed>
  <fix>3d</fix>
</trkpt>
<trkpt lat="-27.274439" lon="151.290064">
  <ele>343.04</ele>
  <time>2026-09-01T19:51:56Z</time>
  <course>10.71</course>
  <speed>0.0</speed>
  <fix>3d</fix>
</trkpt>
<trkpt lat="-27.274439" lon="151.290064">
  <ele>343.1</ele>
  <time>2026-09-01T19:51:56Z</time>
  <course>270.0</course>
  <speed>0.0</speed>
  <fix>3d</fix>
</trkpt>
<trkpt lat="-27.274439" lon="151.290064">
  <ele>343.04</ele>
  <time>2026-09-01T19:51:56Z</time>
  <course>10.71</course>
  <speed>0.0</speed>
  <fix>3d</fix>
</trkpt>
<trkpt lat="-27.274439" lon="151.290064">
  <ele>343.1</ele>
  <time>2026-09-01T19:51:56Z</time>
  <course>270.0</course>
  <speed>0.0</speed>
  <fix>3d</fix>
</trkpt>
<trkpt lat="-27.274439" lon="151.290064">
  <ele>343.03</ele>
  <time>2026-09-01T19:51:56Z</time>
  <course>10.71</course>
  <speed>0.0</speed>
  <fix>3d</fix>
</trkpt>
<trkpt lat="-27.274439" lon="151.290064">
  <ele>343.1</ele>
  <time>2026-09-01T19:51:56Z</time>
  <course>270.0</course>
  <speed>0.0</speed>
  <fix>3d</fix>
</trkpt>
<trkpt lat="-27.274439" lon="151.290064">
  <ele>343.03</ele>
  <time>2026-09-01T19:51:56Z</time>
  <course>10.71</course>
  <speed>0.0</speed>
  <fix>3d</fix>
</trkpt>
<trkpt lat="-27.274439" lon="151.290064">
  <ele>343.1</ele>
  <time>2026-09-01T19:51:56Z</time>
  <course>270.0</course>
  <speed>0.0</speed>
  <fix>3d</fix>
</trkpt>
<trkpt lat="-27.274439" lon="151.290064">
  <ele>343.02</ele>
  <time>2026-09-01T19:51:56Z</time>
  <course>10.71</course>
  <speed>0.0</speed>
  <fix>3d</fix>
</trkpt>
<trkpt lat="-27.274439" lon="151.290064">
  <ele>343.1</ele>
  <time>2026-09-01T19:51:56Z</time>
  <course>270.0</course>
  <speed>0.0</speed>
  <fix>3d</fix>
</trkpt>
<trkpt lat="-27.274439" lon="151.290064">
  <ele>343.02</ele>
  <time>2026-09-01T19:51:56Z</time>
  <course>10.71</course>
  <speed>0.0</speed>
  <fix>3d</fix>
</trkpt>
<trkpt lat="-27.274439" lon="151.290064">
  <ele>343.1</ele>
  <time>2026-09-01T19:51:56Z</time>
  <course>270.0</course>
  <speed>0.0</speed>
  <fix>3d</fix>
</trkpt>
<trkpt lat="-27.274439" lon="151.290064">
  <ele>343.01</ele>
  <time>2026-09-01T19:51:56Z</time>
  <course>10.71</course>
  <speed>0.0</speed>
  <fix>3d</fix>
</trkpt>
<trkpt lat="-27.274439" lon="151.290064">
  <ele>343.1</ele>
  <time>2026-09-01T19:51:56Z</time>
  <course>270.0</course>
  <speed>0.0</speed>
  <fix>3d</fix>
</trkpt>
<trkpt lat="-27.274439" lon="151.290064">
  <ele>343.09</ele>
  <time>2026-09-01T19:51:56Z</time>
  <course>10.71</course>
  <speed>0.0</speed>
  <fix>3d</fix>
</trkpt>
<trkpt lat="-27.274439" lon="151.290064">
  <ele>343.1</ele>
  <time>2026-09-01T19:51:56Z</time>
  <course>270.0</course>
  <speed>0.0</speed>
  <fix>3d</fix>
</trkpt>
<trkpt lat="-27.274439" lon="151.290064">
  <ele>343.09</ele>
  <time>2026-09-01T19:51:56Z</time>
  <course>10.71</course>
  <speed>0.0</speed>
  <fix>3d</fix>
</trkpt>
<trkpt lat="-27.274439" lon="151.290064">
  <ele>343.1</ele>
  <time>2026-09-01T19:51:56Z</time>
  <course>270.0</course>
  <speed>0.0</speed>
  <fix>3d</fix>
</trkpt>
<trkpt lat="-27.274439" lon="151.290064">
  <ele>343.08</ele>
  <time>2026-09-01T19:51:56Z</time>
  <course>10.71</course>
  <speed>0.0</speed>
  <fix>3d</fix>
</trkpt>
<trkpt lat="-27.274439" lon="151.290064">
  <ele>343.1</ele>
  <time>2026-09-01T19:51:56Z</time>
  <course>270.0</course>
  <speed>0.0</speed>
  <fix>3d</fix>
</trkpt>
<trkpt lat="-27.274439" lon="151.290064">
  <ele>343.08</ele>
  <time>2026-09-01T19:51:56Z</time>
  <course>10.71</course>
  <speed>0.0</speed>
  <fix>3d</fix>
</trkpt>
<trkpt lat="-27.274439" lon="151.290064">
  <ele>343.1</ele>
  <time>2026-09-01T19:51:56Z</time>
  <course>270.0</course>
  <speed>0.0</speed>
  <fix>3d</fix>
</trkpt>
<trkpt lat="-27.274439" lon="151.290064">
  <ele>343.08</ele>
  <time>2026-09-01T19:51:56Z</time>
  <course>10.71</course>
  <speed>0.0</speed>
  <fix>3d</fix>
</trkpt>
<trkpt lat="-27.274439" lon="151.290064">
  <ele>343.1</ele>
  <time>2026-09-01T19:51:56Z</time>
  <course>270.0</course>
  <speed>0.0</speed>
  <fix>3d</fix>
</trkpt>
<trkpt lat="-27.274439" lon="151.290064">
  <ele>343.08</ele>
  <time>2026-09-01T19:51:56Z</time>
  <course>10.71</course>
  <speed>0.0</speed>
  <fix>3d</fix>
</trkpt>
<trkpt lat="-27.274439" lon="151.290064">
  <ele>343.1</ele>
  <time>2026-09-01T19:51:56Z</time>
  <course>270.0</course>
  <speed>0.0</speed>
  <fix>3d</fix>
</trkpt>
<trkpt lat="-27.274439" lon="151.290064">
  <ele>343.08</ele>
  <time>2026-09-01T19:51:56Z</time>
  <course>10.7</course>
  <speed>0.0</speed>
  <fix>3d</fix>
</trkpt>
<trkpt lat="-27.274439" lon="151.290064">
  <ele>343.1</ele>
  <time>2026-09-01T19:51:56Z</time>
  <course>270.0</course>
  <speed>0.0</speed>
  <fix>3d</fix>
</trkpt>
<trkpt lat="-27.274439" lon="151.290064">
  <ele>343.08</ele>
  <time>2026-09-01T19:51:56Z</time>
  <course>10.7</course>
  <speed>0.0</speed>
  <fix>3d</fix>
</trkpt>
<trkpt lat="-27.274439" lon="151.290064">
  <ele>343.1</ele>
  <time>2026-09-01T19:51:56Z</time>
  <course>270.0</course>
  <speed>0.0</speed>
  <fix>3d</fix>
</trkpt>
<trkpt lat="-27.274439" lon="151.290064">
  <ele>343.08</ele>
  <time>2026-09-01T19:51:56Z</time>
  <course>10.7</course>
  <speed>0.0</speed>
  <fix>3d</fix>
</trkpt>
<trkpt lat="-27.274439" lon="151.290064">
  <ele>343.1</ele>
  <time>2026-09-01T19:51:56Z</time>
  <course>270.0</course>
  <speed>0.0</speed>
  <fix>3d</fix>
</trkpt>
<trkpt lat="-27.274439" lon="151.290064">
  <ele>343.08</ele>
  <time>2026-09-01T19:51:56Z</time>
  <course>10.7</course>
  <speed>0.0</speed>
  <fix>3d</fix>
</trkpt>
<trkpt lat="-27.274439" lon="151.290064">
  <ele>343.1</ele>
  <time>2026-09-01T19:51:56Z</time>
  <course>270.0</course>
  <speed>0.0</speed>
  <fix>3d</fix>
</trkpt>
<trkpt lat="-27.274439" lon="151.290064">
  <ele>343.08</ele>
  <time>2026-09-01T19:51:56Z</time>
  <course>10.7</course>
  <speed>0.0</speed>
  <fix>3d</fix>
</trkpt>
<trkpt lat="-27.274439" lon="151.290064">
  <ele>343.1</ele>
  <time>2026-09-01T19:51:56Z</time>
  <course>270.0</course>
  <speed>0.0</speed>
  <fix>3d</fix>
</trkpt>
<trkpt lat="-27.274439" lon="151.290064">
  <ele>343.08</ele>
  <time>2026-09-01T19:51:56Z</time>
  <course>10.7</course>
  <speed>0.0</speed>
  <fix>3d</fix>
</trkpt>
<trkpt lat="-27.274439" lon="151.290064">
  <ele>343.1</ele>
  <time>2026-09-01T19:51:56Z</time>
  <course>270.0</course>
  <speed>0.0</speed>
  <fix>3d</fix>
</trkpt>
<trkpt lat="-27.274439" lon="151.290064">
  <ele>343.08</ele>
  <time>2026-09-01T19:51:56Z</time>
  <course>10.7</course>
  <speed>0.0</speed>
  <fix>3d</fix>
</trkpt>
<trkpt lat="-27.274439" lon="151.290064">
  <ele>343.1</ele>
  <time>2026-09-01T19:51:56Z</time>
  <course>270.0</course>
  <speed>0.0</speed>
  <fix>3d</fix>
</trkpt>
<trkpt lat="-27.274439" lon="151.290064">
  <ele>343.07</ele>
  <time>2026-09-01T19:51:56Z</time>
  <course>10.7</course>
  <speed>0.0</speed>
  <fix>3d</fix>
</trkpt>
<trkpt lat="-27.274439" lon="151.290064">
  <ele>343.1</ele>
  <time>2026-09-01T19:51:56Z</time>
  <course>270.0</course>
  <speed>0.0</speed>
  <fix>3d</fix>
</trkpt>
<trkpt lat="-27.274439" lon="151.290064">
  <ele>343.07</ele>
  <time>2026-09-01T19:51:56Z</time>
  <course>10.7</course>
  <speed>0.0</speed>
  <fix>3d</fix>
</trkpt>
<trkpt lat="-27.274439" lon="151.290064">
  <ele>343.1</ele>
  <time>2026-09-01T19:51:56Z</time>
  <course>270.0</course>
  <speed>0.0</speed>
  <fix>3d</fix>
</trkpt>
<trkpt lat="-27.274439" lon="151.290064">
  <ele>343.07</ele>
  <time>2026-09-01T19:51:56Z</time>
  <course>10.7</course>
  <speed>0.0</speed>
  <fix>3d</fix>
</trkpt>
<trkpt lat="-27.274439" lon="151.290064">
  <ele>343.1</ele>
  <time>2026-09-01T19:51:56Z</time>
  <course>270.0</course>
  <speed>0.0</speed>
  <fix>3d</fix>
</trkpt>
<trkpt lat="-27.274439" lon="151.290064">
  <ele>343.07</ele>
  <time>2026-09-01T19:51:56Z</time>
  <course>10.7</course>
  <speed>0.0</speed>
  <fix>3d</fix>
</trkpt>
<trkpt lat="-27.274439" lon="151.290064">
  <ele>343.1</ele>
  <time>2026-09-01T19:51:56Z</time>
  <course>270.0</course>
  <speed>0.0</speed>
  <fix>3d</fix>
</trkpt>
<trkpt lat="-27.274439" lon="151.290064">
  <ele>343.07</ele>
  <time>2026-09-01T19:51:56Z</time>
  <course>10.7</course>
  <speed>0.0</speed>
  <fix>3d</fix>
</trkpt>
<trkpt lat="-27.274439" lon="151.290064">
  <ele>343.1</ele>
  <time>2026-09-01T19:51:56Z</time>
  <course>270.0</course>
  <speed>0.0</speed>
  <fix>3d</fix>
</trkpt>
<trkpt lat="-27.274439" lon="151.290064">
  <ele>343.07</ele>
  <time>2026-09-01T19:51:56Z</time>
  <course>10.7</course>
  <speed>0.0</speed>
  <fix>3d</fix>
</trkpt>
<trkpt lat="-27.274439" lon="151.290064">
  <ele>343.1</ele>
  <time>2026-09-01T19:51:56Z</time>
  <course>270.0</course>
  <speed>0.0</speed>
  <fix>3d</fix>
</trkpt>
<trkpt lat="-27.274439" lon="151.290064">
  <ele>343.07</ele>
  <time>2026-09-01T19:51:56Z</time>
  <course>10.7</course>
  <speed>0.0</speed>
  <fix>3d</fix>
</trkpt>
<trkpt lat="-27.274439" lon="151.290064">
  <ele>343.1</ele>
  <time>2026-09-01T19:51:56Z</time>
  <course>270.0</course>
  <speed>0.0</speed>
  <fix>3d</fix>
</trkpt>
<trkpt lat="-27.274439" lon="151.290064">
  <ele>343.07</ele>
  <time>2026-09-01T19:51:56Z</time>
  <course>10.7</course>
  <speed>0.0</speed>
  <fix>3d</fix>
</trkpt>
<trkpt lat="-27.274439" lon="151.290064">
  <ele>343.1</ele>
  <time>2026-09-01T19:51:56Z</time>
  <course>270.0</course>
  <speed>0.0</speed>
  <fix>3d</fix>
</trkpt>
<trkpt lat="-27.274439" lon="151.290064">
  <ele>343.07</ele>
  <time>2026-09-01T19:51:56Z</time>
  <course>10.7</course>
  <speed>0.0</speed>
  <fix>3d</fix>
</trkpt>
<trkpt lat="-27.274439" lon="151.290064">
  <ele>343.1</ele>
  <time>2026-09-01T19:51:56Z</time>
  <course>270.0</course>
  <speed>0.0</speed>
  <fix>3d</fix>
</trkpt>
<trkpt lat="-27.274439" lon="151.290064">
  <ele>343.07</ele>
  <time>2026-09-01T19:51:56Z</time>
  <course>10.7</course>
  <speed>0.0</speed>
  <fix>3d</fix>
</trkpt>
<trkpt lat="-27.274439" lon="151.290064">
  <ele>343.1</ele>
  <time>2026-09-01T19:51:56Z</time>
  <course>270.0</course>
  <speed>0.0</speed>
  <fix>3d</fix>
</trkpt>
<trkpt lat="-27.274439" lon="151.290064">
  <ele>343.07</ele>
  <time>2026-09-01T19:51:56Z</time>
  <course>10.7</course>
  <speed>0.0</speed>
  <fix>3d</fix>
</trkpt>
<trkpt lat="-27.274439" lon="151.290064">
  <ele>343.1</ele>
  <time>2026-09-01T19:51:56Z</time>
  <course>270.0</course>
  <speed>0.0</speed>
  <fix>3d</fix>
</trkpt>
<trkpt lat="-27.274439" lon="151.290064">
  <ele>343.07</ele>
  <time>2026-09-01T19:51:56Z</time>
  <course>10.7</course>
  <speed>0.0</speed>
  <fix>3d</fix>
</trkpt>
<trkpt lat="-27.274439" lon="151.290064">
  <ele>343.1</ele>
  <time>2026-09-01T19:51:56Z</time>
  <course>270.0</course>
  <speed>0.0</speed>
  <fix>3d</fix>
</trkpt>
<trkpt lat="-27.274439" lon="151.290064">
  <ele>343.07</ele>
  <time>2026-09-01T19:51:56Z</time>
  <course>10.7</course>
  <speed>0.0</speed>
  <fix>3d</fix>
</trkpt>
<trkpt lat="-27.274439" lon="151.290064">
  <ele>343.1</ele>
  <time>2026-09-01T19:51:56Z</time>
  <course>270.0</course>
  <speed>0.0</speed>
  <fix>3d</fix>
</trkpt>
<trkpt lat="-27.274439" lon="151.290064">
  <ele>343.07</ele>
  <time>2026-09-01T19:51:56Z</time>
  <course>10.7</course>
  <speed>0.0</speed>
  <fix>3d</fix>
</trkpt>
<trkpt lat="-27.274439" lon="151.290064">
  <ele>343.1</ele>
  <time>2026-09-01T19:51:56Z</time>
  <course>270.0</course>
  <speed>0.0</speed>
  <fix>3d</fix>
</trkpt>
<trkpt lat="-27.274439" lon="151.290064">
  <ele>343.07</ele>
  <time>2026-09-01T19:51:56Z</time>
  <course>10.7</course>
  <speed>0.0</speed>
  <fix>3d</fix>
</trkpt>
<trkpt lat="-27.274439" lon="151.290064">
  <ele>343.1</ele>
  <time>2026-09-01T19:51:56Z</time>
  <course>270.0</course>
  <speed>0.0</speed>
  <fix>3d</fix>
</trkpt>
<trkpt lat="-27.274439" lon="151.290064">
  <ele>343.07</ele>
  <time>2026-09-01T19:51:56Z</time>
  <course>10.7</course>
  <speed>0.0</speed>
  <fix>3d</fix>
</trkpt>
<trkpt lat="-27.274439" lon="151.290064">
  <ele>343.1</ele>
  <time>2026-09-01T19:51:56Z</time>
  <course>270.0</course>
  <speed>0.0</speed>
  <fix>3d</fix>
</trkpt>
<trkpt lat="-27.274439" lon="151.290064">
  <ele>343.07</ele>
  <time>2026-09-01T19:51:56Z</time>
  <course>10.7</course>
  <speed>0.0</speed>
  <fix>3d</fix>
</trkpt>
<trkpt lat="-27.274439" lon="151.290064">
  <ele>343.1</ele>
  <time>2026-09-01T19:51:56Z</time>
  <course>270.0</course>
  <speed>0.0</speed>
  <fix>3d</fix>
</trkpt>
<trkpt lat="-27.274439" lon="151.290064">
  <ele>343.07</ele>
  <time>2026-09-01T19:51:56Z</time>
  <course>10.7</course>
  <speed>0.0</speed>
  <fix>3d</fix>
</trkpt>
<trkpt lat="-27.274439" lon="151.290064">
  <ele>343.1</ele>
  <time>2026-09-01T19:51:56Z</time>
  <course>270.0</course>
  <speed>0.0</speed>
  <fix>3d</fix>
</trkpt>
<trkpt lat="-27.274439" lon="151.290064">
  <ele>343.07</ele>
  <time>2026-09-01T19:51:56Z</time>
  <course>10.7</course>
  <speed>0.0</speed>
  <fix>3d</fix>
</trkpt>
<trkpt lat="-27.274439" lon="151.290064">
  <ele>343.1</ele>
  <time>2026-09-01T19:51:56Z</time>
  <course>270.0</course>
  <speed>0.0</speed>
  <fix>3d</fix>
</trkpt>
<trkpt lat="-27.274439" lon="151.290064">
  <ele>343.07</ele>
  <time>2026-09-01T19:51:57Z</time>
  <course>10.7</course>
  <speed>0.0</speed>
  <fix>3d</fix>
</trkpt>
<trkpt lat="-27.274439" lon="151.290064">
  <ele>343.1</ele>
  <time>2026-09-01T19:51:57Z</time>
  <course>270.0</course>
  <speed>0.0</speed>
  <fix>3d</fix>
</trkpt>
<trkpt lat="-27.274439" lon="151.290064">
  <ele>343.07</ele>
  <time>2026-09-01T19:51:57Z</time>
  <course>10.7</course>
  <speed>0.0</speed>
  <fix>3d</fix>
</trkpt>
<trkpt lat="-27.274439" lon="151.290064">
  <ele>343.1</ele>
  <time>2026-09-01T19:51:57Z</time>
  <course>270.0</course>
  <speed>0.0</speed>
  <fix>3d</fix>
</trkpt>
<trkpt lat="-27.274439" lon="151.290064">
  <ele>343.07</ele>
  <time>2026-09-01T19:51:57Z</time>
  <course>10.69</course>
  <speed>0.0</speed>
  <fix>3d</fix>
</trkpt>
<trkpt lat="-27.274439" lon="151.290064">
  <ele>343.1</ele>
  <time>2026-09-01T19:51:57Z</time>
  <course>270.0</course>
  <speed>0.0</speed>
  <fix>3d</fix>
</trkpt>
<trkpt lat="-27.274439" lon="151.290064">
  <ele>343.07</ele>
  <time>2026-09-01T19:51:57Z</time>
  <course>10.69</course>
  <speed>0.0</speed>
  <fix>3d</fix>
</trkpt>
<trkpt lat="-27.274439" lon="151.290064">
  <ele>343.1</ele>
  <time>2026-09-01T19:51:57Z</time>
  <course>270.0</course>
  <speed>0.0</speed>
  <fix>3d</fix>
</trkpt>
<trkpt lat="-27.274439" lon="151.290064">
  <ele>343.07</ele>
  <time>2026-09-01T19:51:57Z</time>
  <course>10.69</course>
  <speed>0.0</speed>
  <fix>3d</fix>
</trkpt>
<trkpt lat="-27.274439" lon="151.290064">
  <ele>343.1</ele>
  <time>2026-09-01T19:51:57Z</time>
  <course>270.0</course>
  <speed>0.0</speed>
  <fix>3d</fix>
</trkpt>
<trkpt lat="-27.274439" lon="151.290064">
  <ele>343.07</ele>
  <time>2026-09-01T19:51:57Z</time>
  <course>10.69</course>
  <speed>0.0</speed>
  <fix>3d</fix>
</trkpt>
<trkpt lat="-27.274439" lon="151.290064">
  <ele>343.1</ele>
  <time>2026-09-01T19:51:57Z</time>
  <course>270.0</course>
  <speed>0.0</speed>
  <fix>3d</fix>
</trkpt>
<trkpt lat="-27.274439" lon="151.290064">
  <ele>343.07</ele>
  <time>2026-09-01T19:51:57Z</time>
  <course>10.69</course>
  <speed>0.0</speed>
  <fix>3d</fix>
</trkpt>
<trkpt lat="-27.274439" lon="151.290064">
  <ele>343.1</ele>
  <time>2026-09-01T19:51:57Z</time>
  <course>270.0</course>
  <speed>0.0</speed>
  <fix>3d</fix>
</trkpt>
<trkpt lat="-27.274439" lon="151.290064">
  <ele>343.07</ele>
  <time>2026-09-01T19:51:57Z</time>
  <course>10.69</course>
  <speed>0.0</speed>
  <fix>3d</fix>
</trkpt>
<trkpt lat="-27.274439" lon="151.290064">
  <ele>343.1</ele>
  <time>2026-09-01T19:51:57Z</time>
  <course>270.0</course>
  <speed>0.0</speed>
  <fix>3d</fix>
</trkpt>
<trkpt lat="-27.274439" lon="151.290064">
  <ele>343.07</ele>
  <time>2026-09-01T19:51:57Z</time>
  <course>10.69</course>
  <speed>0.0</speed>
  <fix>3d</fix>
</trkpt>
<trkpt lat="-27.274439" lon="151.290064">
  <ele>343.1</ele>
  <time>2026-09-01T19:51:57Z</time>
  <course>270.0</course>
  <speed>0.0</speed>
  <fix>3d</fix>
</trkpt>
<trkpt lat="-27.274439" lon="151.290064">
  <ele>343.07</ele>
  <time>2026-09-01T19:51:57Z</time>
  <course>10.69</course>
  <speed>0.0</speed>
  <fix>3d</fix>
</trkpt>
<trkpt lat="-27.274439" lon="151.290064">
  <ele>343.1</ele>
  <time>2026-09-01T19:51:57Z</time>
  <course>270.0</course>
  <speed>0.0</speed>
  <fix>3d</fix>
</trkpt>
<trkpt lat="-27.274439" lon="151.290064">
  <ele>343.07</ele>
  <time>2026-09-01T19:51:57Z</time>
  <course>10.69</course>
  <speed>0.0</speed>
  <fix>3d</fix>
</trkpt>
<trkpt lat="-27.274439" lon="151.290064">
  <ele>343.1</ele>
  <time>2026-09-01T19:51:57Z</time>
  <course>270.0</course>
  <speed>0.0</speed>
  <fix>3d</fix>
</trkpt>
<trkpt lat="-27.274439" lon="151.290064">
  <ele>343.07</ele>
  <time>2026-09-01T19:51:57Z</time>
  <course>10.69</course>
  <speed>0.0</speed>
  <fix>3d</fix>
</trkpt>
<trkpt lat="-27.274439" lon="151.290064">
  <ele>343.1</ele>
  <time>2026-09-01T19:51:57Z</time>
  <course>270.0</course>
  <speed>0.0</speed>
  <fix>3d</fix>
</trkpt>
<trkpt lat="-27.274439" lon="151.290064">
  <ele>343.07</ele>
  <time>2026-09-01T19:51:57Z</time>
  <course>10.69</course>
  <speed>0.0</speed>
  <fix>3d</fix>
</trkpt>
<trkpt lat="-27.274439" lon="151.290064">
  <ele>343.1</ele>
  <time>2026-09-01T19:51:57Z</time>
  <course>270.0</course>
  <speed>0.0</speed>
  <fix>3d</fix>
</trkpt>
<trkpt lat="-27.274439" lon="151.290064">
  <ele>343.07</ele>
  <time>2026-09-01T19:51:57Z</time>
  <course>10.69</course>
  <speed>0.0</speed>
  <fix>3d</fix>
</trkpt>
<trkpt lat="-27.274439" lon="151.290064">
  <ele>343.1</ele>
  <time>2026-09-01T19:51:57Z</time>
  <course>270.0</course>
  <speed>0.0</speed>
  <fix>3d</fix>
</trkpt>
<trkpt lat="-27.274439" lon="151.290064">
  <ele>343.07</ele>
  <time>2026-09-01T19:51:57Z</time>
  <course>10.69</course>
  <speed>0.0</speed>
  <fix>3d</fix>
</trkpt>
<trkpt lat="-27.274439" lon="151.290064">
  <ele>343.1</ele>
  <time>2026-09-01T19:51:57Z</time>
  <course>270.0</course>
  <speed>0.0</speed>
  <fix>3d</fix>
</trkpt>
<trkpt lat="-27.274439" lon="151.290064">
  <ele>343.07</ele>
  <time>2026-09-01T19:51:57Z</time>
  <course>10.69</course>
  <speed>0.0</speed>
  <fix>3d</fix>
</trkpt>
<trkpt lat="-27.274439" lon="151.290064">
  <ele>343.1</ele>
  <time>2026-09-01T19:51:57Z</time>
  <course>270.0</course>
  <speed>0.0</speed>
  <fix>3d</fix>
</trkpt>
<trkpt lat="-27.274439" lon="151.290064">
  <ele>343.07</ele>
  <time>2026-09-01T19:51:57Z</time>
  <course>10.69</course>
  <speed>0.0</speed>
  <fix>3d</fix>
</trkpt>
<trkpt lat="-27.274439" lon="151.290064">
  <ele>343.1</ele>
  <time>2026-09-01T19:51:57Z</time>
  <course>270.0</course>
  <speed>0.0</speed>
  <fix>3d</fix>
</trkpt>
<trkpt lat="-27.274439" lon="151.290064">
  <ele>343.07</ele>
  <time>2026-09-01T19:51:57Z</time>
  <course>10.69</course>
  <speed>0.0</speed>
  <fix>3d</fix>
</trkpt>
<trkpt lat="-27.274439" lon="151.290064">
  <ele>343.1</ele>
  <time>2026-09-01T19:51:57Z</time>
  <course>270.0</course>
  <speed>0.0</speed>
  <fix>3d</fix>
</trkpt>
<trkpt lat="-27.274439" lon="151.290064">
  <ele>343.07</ele>
  <time>2026-09-01T19:51:57Z</time>
  <course>10.69</course>
  <speed>0.0</speed>
  <fix>3d</fix>
</trkpt>
<trkpt lat="-27.274439" lon="151.290064">
  <ele>343.1</ele>
  <time>2026-09-01T19:51:57Z</time>
  <course>270.0</course>
  <speed>0.0</speed>
  <fix>3d</fix>
</trkpt>
<trkpt lat="-27.274439" lon="151.290064">
  <ele>343.08</ele>
  <time>2026-09-01T19:51:57Z</time>
  <course>10.69</course>
  <speed>0.0</speed>
  <fix>3d</fix>
</trkpt>
<trkpt lat="-27.274439" lon="151.290064">
  <ele>343.1</ele>
  <time>2026-09-01T19:51:57Z</time>
  <course>270.0</course>
  <speed>0.0</speed>
  <fix>3d</fix>
</trkpt>
<trkpt lat="-27.274439" lon="151.290064">
  <ele>343.08</ele>
  <time>2026-09-01T19:51:57Z</time>
  <course>10.69</course>
  <speed>0.0</speed>
  <fix>3d</fix>
</trkpt>
<trkpt lat="-27.274439" lon="151.290064">
  <ele>343.1</ele>
  <time>2026-09-01T19:51:57Z</time>
  <course>270.0</course>
  <speed>0.0</speed>
  <fix>3d</fix>
</trkpt>
<trkpt lat="-27.274439" lon="151.290064">
  <ele>343.08</ele>
  <time>2026-09-01T19:51:57Z</time>
  <course>10.69</course>
  <speed>0.0</speed>
  <fix>3d</fix>
</trkpt>
<trkpt lat="-27.274439" lon="151.290064">
  <ele>343.1</ele>
  <time>2026-09-01T19:51:57Z</time>
  <course>270.0</course>
  <speed>0.0</speed>
  <fix>3d</fix>
</trkpt>
<trkpt lat="-27.274439" lon="151.290064">
  <ele>343.08</ele>
  <time>2026-09-01T19:51:57Z</time>
  <course>10.69</course>
  <speed>0.0</speed>
  <fix>3d</fix>
</trkpt>
<trkpt lat="-27.274439" lon="151.290064">
  <ele>343.1</ele>
  <time>2026-09-01T19:51:57Z</time>
  <course>270.0</course>
  <speed>0.0</speed>
  <fix>3d</fix>
</trkpt>
<trkpt lat="-27.274439" lon="151.290064">
  <ele>343.09</ele>
  <time>2026-09-01T19:51:57Z</time>
  <course>10.69</course>
  <speed>0.0</speed>
  <fix>3d</fix>
</trkpt>
<trkpt lat="-27.274439" lon="151.290064">
  <ele>343.1</ele>
  <time>2026-09-01T19:51:57Z</time>
  <course>270.0</course>
  <speed>0.0</speed>
  <fix>3d</fix>
</trkpt>
<trkpt lat="-27.274439" lon="151.290064">
  <ele>343.09</ele>
  <time>2026-09-01T19:51:57Z</time>
  <course>10.69</course>
  <speed>0.0</speed>
  <fix>3d</fix>
</trkpt>
<trkpt lat="-27.274439" lon="151.290064">
  <ele>343.1</ele>
  <time>2026-09-01T19:51:57Z</time>
  <course>270.0</course>
  <speed>0.0</speed>
  <fix>3d</fix>
</trkpt>
<trkpt lat="-27.274439" lon="151.290064">
  <ele>343.09</ele>
  <time>2026-09-01T19:51:57Z</time>
  <course>10.69</course>
  <speed>0.0</speed>
  <fix>3d</fix>
</trkpt>
<trkpt lat="-27.274439" lon="151.290064">
  <ele>343.1</ele>
  <time>2026-09-01T19:51:57Z</time>
  <course>270.0</course>
  <speed>0.0</speed>
  <fix>3d</fix>
</trkpt>
<trkpt lat="-27.274439" lon="151.290064">
  <ele>343.09</ele>
  <time>2026-09-01T19:51:57Z</time>
  <course>10.69</course>
  <speed>0.01</speed>
  <fix>3d</fix>
</trkpt>
<trkpt lat="-27.274439" lon="151.290064">
  <ele>343.1</ele>
  <time>2026-09-01T19:51:57Z</time>
  <course>270.0</course>
  <speed>0.0</speed>
  <fix>3d</fix>
</trkpt>
<trkpt lat="-27.274439" lon="151.290064">
  <ele>343.09</ele>
  <time>2026-09-01T19:51:57Z</time>
  <course>10.69</course>
  <speed>0.01</speed>
  <fix>3d</fix>
</trkpt>
<trkpt lat="-27.274439" lon="151.290064">
  <ele>343.1</ele>
  <time>2026-09-01T19:51:57Z</time>
  <course>270.0</course>
  <speed>0.0</speed>
  <fix>3d</fix>
</trkpt>
<trkpt lat="-27.274439" lon="151.290064">
  <ele>343.1</ele>
  <time>2026-09-01T19:51:57Z</time>
  <course>10.69</course>
  <speed>0.01</speed>
  <fix>3d</fix>
</trkpt>
<trkpt lat="-27.274439" lon="151.290064">
  <ele>343.1</ele>
  <time>2026-09-01T19:51:57Z</time>
  <course>270.0</course>
  <speed>0.0</speed>
  <fix>3d</fix>
</trkpt>
<trkpt lat="-27.274439" lon="151.290064">
  <ele>343.1</ele>
  <time>2026-09-01T19:51:57Z</time>
  <course>10.69</course>
  <speed>0.01</speed>
  <fix>3d</fix>
</trkpt>
<trkpt lat="-27.274439" lon="151.290064">
  <ele>343.1</ele>
  <time>2026-09-01T19:51:57Z</time>
  <course>270.0</course>
  <speed>0.0</speed>
  <fix>3d</fix>
</trkpt>
<trkpt lat="-27.274439" lon="151.290064">
  <ele>343.1</ele>
  <time>2026-09-01T19:51:57Z</time>
  <course>10.69</course>
  <speed>0.01</speed>
  <fix>3d</fix>
</trkpt>
<trkpt lat="-27.274439" lon="151.290064">
  <ele>343.1</ele>
  <time>2026-09-01T19:51:57Z</time>
  <course>270.0</course>
  <speed>0.0</speed>
  <fix>3d</fix>
</trkpt>
<trkpt lat="-27.274439" lon="151.290064">
  <ele>343.09</ele>
  <time>2026-09-01T19:51:57Z</time>
  <course>10.69</course>
  <speed>0.01</speed>
  <fix>3d</fix>
</trkpt>
<trkpt lat="-27.274439" lon="151.290064">
  <ele>343.1</ele>
  <time>2026-09-01T19:51:57Z</time>
  <course>270.0</course>
  <speed>0.0</speed>
  <fix>3d</fix>
</trkpt>
<trkpt lat="-27.274439" lon="151.290064">
  <ele>343.09</ele>
  <time>2026-09-01T19:51:57Z</time>
  <course>10.69</course>
  <speed>0.01</speed>
  <fix>3d</fix>
</trkpt>
<trkpt lat="-27.274439" lon="151.290064">
  <ele>343.1</ele>
  <time>2026-09-01T19:51:57Z</time>
  <course>270.0</course>
  <speed>0.0</speed>
  <fix>3d</fix>
</trkpt>
<trkpt lat="-27.274439" lon="151.290064">
  <ele>343.08</ele>
  <time>2026-09-01T19:51:57Z</time>
  <course>10.69</course>
  <speed>0.01</speed>
  <fix>3d</fix>
</trkpt>
<trkpt lat="-27.274439" lon="151.290064">
  <ele>343.1</ele>
  <time>2026-09-01T19:51:57Z</time>
  <course>270.0</course>
  <speed>0.0</speed>
  <fix>3d</fix>
</trkpt>
<trkpt lat="-27.274439" lon="151.290064">
  <ele>343.08</ele>
  <time>2026-09-01T19:51:57Z</time>
  <course>10.69</course>
  <speed>0.01</speed>
  <fix>3d</fix>
</trkpt>
<trkpt lat="-27.274439" lon="151.290064">
  <ele>343.1</ele>
  <time>2026-09-01T19:51:57Z</time>
  <course>270.0</course>
  <speed>0.0</speed>
  <fix>3d</fix>
</trkpt>
<trkpt lat="-27.274439" lon="151.290064">
  <ele>343.07</ele>
  <time>2026-09-01T19:51:57Z</time>
  <course>10.69</course>
  <speed>0.01</speed>
  <fix>3d</fix>
</trkpt>
<trkpt lat="-27.274439" lon="151.290064">
  <ele>343.1</ele>
  <time>2026-09-01T19:51:57Z</time>
  <course>270.0</course>
  <speed>0.0</speed>
  <fix>3d</fix>
</trkpt>
<trkpt lat="-27.274439" lon="151.290064">
  <ele>343.07</ele>
  <time>2026-09-01T19:51:57Z</time>
  <course>10.69</course>
  <speed>0.01</speed>
  <fix>3d</fix>
</trkpt>
<trkpt lat="-27.274439" lon="151.290064">
  <ele>343.1</ele>
  <time>2026-09-01T19:51:57Z</time>
  <course>270.0</course>
  <speed>0.0</speed>
  <fix>3d</fix>
</trkpt>
<trkpt lat="-27.274439" lon="151.290064">
  <ele>343.06</ele>
  <time>2026-09-01T19:51:57Z</time>
  <course>10.69</course>
  <speed>0.01</speed>
  <fix>3d</fix>
</trkpt>
<trkpt lat="-27.274439" lon="151.290064">
  <ele>343.1</ele>
  <time>2026-09-01T19:51:57Z</time>
  <course>270.0</course>
  <speed>0.0</speed>
  <fix>3d</fix>
</trkpt>
<trkpt lat="-27.274439" lon="151.290064">
  <ele>343.05</ele>
  <time>2026-09-01T19:51:57Z</time>
  <course>10.69</course>
  <speed>0.01</speed>
  <fix>3d</fix>
</trkpt>
<trkpt lat="-27.274439" lon="151.290064">
  <ele>343.1</ele>
  <time>2026-09-01T19:51:57Z</time>
  <course>270.0</course>
  <speed>0.0</speed>
  <fix>3d</fix>
</trkpt>
<trkpt lat="-27.274439" lon="151.290064">
  <ele>343.05</ele>
  <time>2026-09-01T19:51:57Z</time>
  <course>10.69</course>
  <speed>0.01</speed>
  <fix>3d</fix>
</trkpt>
<trkpt lat="-27.274439" lon="151.290064">
  <ele>343.1</ele>
  <time>2026-09-01T19:51:57Z</time>
  <course>270.0</course>
  <speed>0.0</speed>
  <fix>3d</fix>
</trkpt>
<trkpt lat="-27.274439" lon="151.290064">
  <ele>343.04</ele>
  <time>2026-09-01T19:51:57Z</time>
  <course>10.69</course>
  <speed>0.01</speed>
  <fix>3d</fix>
</trkpt>
<trkpt lat="-27.274439" lon="151.290064">
  <ele>343.1</ele>
  <time>2026-09-01T19:51:57Z</time>
  <course>270.0</course>
  <speed>0.0</speed>
  <fix>3d</fix>
</trkpt>
<trkpt lat="-27.274439" lon="151.290064">
  <ele>343.03</ele>
  <time>2026-09-01T19:51:57Z</time>
  <course>10.69</course>
  <speed>0.01</speed>
  <fix>3d</fix>
</trkpt>
<trkpt lat="-27.274439" lon="151.290064">
  <ele>343.1</ele>
  <time>2026-09-01T19:51:57Z</time>
  <course>270.0</course>
  <speed>0.0</speed>
  <fix>3d</fix>
</trkpt>
<trkpt lat="-27.274439" lon="151.290064">
  <ele>343.03</ele>
  <time>2026-09-01T19:51:57Z</time>
  <course>10.69</course>
  <speed>0.01</speed>
  <fix>3d</fix>
</trkpt>
<trkpt lat="-27.274439" lon="151.290064">
  <ele>343.1</ele>
  <time>2026-09-01T19:51:57Z</time>
  <course>270.0</course>
  <speed>0.0</speed>
  <fix>3d</fix>
</trkpt>
<trkpt lat="-27.274439" lon="151.290064">
  <ele>343.02</ele>
  <time>2026-09-01T19:51:57Z</time>
  <course>10.69</course>
  <speed>0.01</speed>
  <fix>3d</fix>
</trkpt>
<trkpt lat="-27.274439" lon="151.290064">
  <ele>343.1</ele>
  <time>2026-09-01T19:51:57Z</time>
  <course>270.0</course>
  <speed>0.0</speed>
  <fix>3d</fix>
</trkpt>
<trkpt lat="-27.274439" lon="151.290064">
  <ele>343.02</ele>
  <time>2026-09-01T19:51:57Z</time>
  <course>10.69</course>
  <speed>0.01</speed>
  <fix>3d</fix>
</trkpt>
<trkpt lat="-27.274439" lon="151.290064">
  <ele>343.1</ele>
  <time>2026-09-01T19:51:57Z</time>
  <course>270.0</course>
  <speed>0.0</speed>
  <fix>3d</fix>
</trkpt>
<trkpt lat="-27.274439" lon="151.290064">
  <ele>343.01</ele>
  <time>2026-09-01T19:51:57Z</time>
  <course>10.69</course>
  <speed>0.01</speed>
  <fix>3d</fix>
</trkpt>
<trkpt lat="-27.274439" lon="151.290064">
  <ele>343.1</ele>
  <time>2026-09-01T19:51:57Z</time>
  <course>270.0</course>
  <speed>0.0</speed>
  <fix>3d</fix>
</trkpt>
<trkpt lat="-27.274439" lon="151.290064">
  <ele>343.01</ele>
  <time>2026-09-01T19:51:57Z</time>
  <course>10.69</course>
  <speed>0.01</speed>
  <fix>3d</fix>
</trkpt>
<trkpt lat="-27.274439" lon="151.290064">
  <ele>343.1</ele>
  <time>2026-09-01T19:51:57Z</time>
  <course>270.0</course>
  <speed>0.0</speed>
  <fix>3d</fix>
</trkpt>
<trkpt lat="-27.274439" lon="151.290064">
  <ele>343.0</ele>
  <time>2026-09-01T19:51:57Z</time>
  <course>10.69</course>
  <speed>0.01</speed>
  <fix>3d</fix>
</trkpt>
<trkpt lat="-27.274439" lon="151.290064">
  <ele>343.1</ele>
  <time>2026-09-01T19:51:57Z</time>
  <course>270.0</course>
  <speed>0.0</speed>
  <fix>3d</fix>
</trkpt>
<trkpt lat="-27.274439" lon="151.290064">
  <ele>343.0</ele>
  <time>2026-09-01T19:51:57Z</time>
  <course>10.69</course>
  <speed>0.01</speed>
  <fix>3d</fix>
</trkpt>
<trkpt lat="-27.274439" lon="151.290064">
  <ele>343.1</ele>
  <time>2026-09-01T19:51:57Z</time>
  <course>270.0</course>
  <speed>0.0</speed>
  <fix>3d</fix>
</trkpt>
<trkpt lat="-27.274439" lon="151.290064">
  <ele>342.99</ele>
  <time>2026-09-01T19:51:57Z</time>
  <course>10.69</course>
  <speed>0.01</speed>
  <fix>3d</fix>
</trkpt>
<trkpt lat="-27.274439" lon="151.290064">
  <ele>343.1</ele>
  <time>2026-09-01T19:51:57Z</time>
  <course>270.0</course>
  <speed>0.0</speed>
  <fix>3d</fix>
</trkpt>
<trkpt lat="-27.274439" lon="151.290064">
  <ele>342.99</ele>
  <time>2026-09-01T19:51:57Z</time>
  <course>10.69</course>
  <speed>0.01</speed>
  <fix>3d</fix>
</trkpt>
<trkpt lat="-27.274439" lon="151.290064">
  <ele>343.1</ele>
  <time>2026-09-01T19:51:57Z</time>
  <course>270.0</course>
  <speed>0.0</speed>
  <fix>3d</fix>
</trkpt>
<trkpt lat="-27.274439" lon="151.290064">
  <ele>342.99</ele>
  <time>2026-09-01T19:51:57Z</time>
  <course>10.69</course>
  <speed>0.01</speed>
  <fix>3d</fix>
</trkpt>
<trkpt lat="-27.274439" lon="151.290064">
  <ele>343.1</ele>
  <time>2026-09-01T19:51:57Z</time>
  <course>270.0</course>
  <speed>0.0</speed>
  <fix>3d</fix>
</trkpt>
<trkpt lat="-27.274439" lon="151.290064">
  <ele>342.98</ele>
  <time>2026-09-01T19:51:57Z</time>
  <course>10.69</course>
  <speed>0.01</speed>
  <fix>3d</fix>
</trkpt>
<trkpt lat="-27.274439" lon="151.290064">
  <ele>343.1</ele>
  <time>2026-09-01T19:51:57Z</time>
  <course>270.0</course>
  <speed>0.0</speed>
  <fix>3d</fix>
</trkpt>
<trkpt lat="-27.274439" lon="151.290064">
  <ele>342.98</ele>
  <time>2026-09-01T19:51:57Z</time>
  <course>10.69</course>
  <speed>0.01</speed>
  <fix>3d</fix>
</trkpt>
<trkpt lat="-27.274439" lon="151.290064">
  <ele>343.1</ele>
  <time>2026-09-01T19:51:57Z</time>
  <course>270.0</course>
  <speed>0.0</speed>
  <fix>3d</fix>
</trkpt>
<trkpt lat="-27.274439" lon="151.290064">
  <ele>342.98</ele>
  <time>2026-09-01T19:51:57Z</time>
  <course>10.69</course>
  <speed>0.01</speed>
  <fix>3d</fix>
</trkpt>
<trkpt lat="-27.274439" lon="151.290064">
  <ele>343.1</ele>
  <time>2026-09-01T19:51:57Z</time>
  <course>270.0</course>
  <speed>0.0</speed>
  <fix>3d</fix>
</trkpt>
<trkpt lat="-27.274439" lon="151.290064">
  <ele>342.97</ele>
  <time>2026-09-01T19:51:57Z</time>
  <course>10.69</course>
  <speed>0.01</speed>
  <fix>3d</fix>
</trkpt>
<trkpt lat="-27.274439" lon="151.290064">
  <ele>343.1</ele>
  <time>2026-09-01T19:51:57Z</time>
  <course>270.0</course>
  <speed>0.0</speed>
  <fix>3d</fix>
</trkpt>
<trkpt lat="-27.274439" lon="151.290064">
  <ele>342.97</ele>
  <time>2026-09-01T19:51:57Z</time>
  <course>10.69</course>
  <speed>0.01</speed>
  <fix>3d</fix>
</trkpt>
<trkpt lat="-27.274439" lon="151.290064">
  <ele>343.1</ele>
  <time>2026-09-01T19:51:57Z</time>
  <course>270.0</course>
  <speed>0.0</speed>
  <fix>3d</fix>
</trkpt>
<trkpt lat="-27.274439" lon="151.290064">
  <ele>342.97</ele>
  <time>2026-09-01T19:51:57Z</time>
  <course>10.69</course>
  <speed>0.01</speed>
  <fix>3d</fix>
</trkpt>
<trkpt lat="-27.274439" lon="151.290064">
  <ele>343.1</ele>
  <time>2026-09-01T19:51:57Z</time>
  <course>270.0</course>
  <speed>0.0</speed>
  <fix>3d</fix>
</trkpt>
<trkpt lat="-27.274439" lon="151.290064">
  <ele>342.97</ele>
  <time>2026-09-01T19:51:57Z</time>
  <course>10.69</course>
  <speed>0.01</speed>
  <fix>3d</fix>
</trkpt>
<trkpt lat="-27.274439" lon="151.290064">
  <ele>343.1</ele>
  <time>2026-09-01T19:51:57Z</time>
  <course>270.0</course>
  <speed>0.0</speed>
  <fix>3d</fix>
</trkpt>
<trkpt lat="-27.274439" lon="151.290064">
  <ele>342.96</ele>
  <time>2026-09-01T19:51:57Z</time>
  <course>10.69</course>
  <speed>0.01</speed>
  <fix>3d</fix>
</trkpt>
<trkpt lat="-27.274439" lon="151.290064">
  <ele>343.1</ele>
  <time>2026-09-01T19:51:57Z</time>
  <course>270.0</course>
  <speed>0.0</speed>
  <fix>3d</fix>
</trkpt>
<trkpt lat="-27.2744391" lon="151.290064">
  <ele>342.96</ele>
  <time>2026-09-01T19:51:57Z</time>
  <course>10.69</course>
  <speed>0.01414213562373095</speed>
  <fix>3d</fix>
</trkpt>
<trkpt lat="-27.274439" lon="151.290064">
  <ele>343.1</ele>
  <time>2026-09-01T19:51:57Z</time>
  <course>270.0</course>
  <speed>0.0</speed>
  <fix>3d</fix>
</trkpt>
<trkpt lat="-27.2744391" lon="151.290064">
  <ele>342.96</ele>
  <time>2026-09-01T19:51:57Z</time>
  <course>10.69</course>
  <speed>0.01414213562373095</speed>
  <fix>3d</fix>
</trkpt>
<trkpt lat="-27.274439" lon="151.290064">
  <ele>343.1</ele>
  <time>2026-09-01T19:51:57Z</time>
  <course>270.0</course>
  <speed>0.0</speed>
  <fix>3d</fix>
</trkpt>
<trkpt lat="-27.2744391" lon="151.290064">
  <ele>342.96</ele>
  <time>2026-09-01T19:51:57Z</time>
  <course>10.69</course>
  <speed>0.01414213562373095</speed>
  <fix>3d</fix>
</trkpt>
<trkpt lat="-27.274439" lon="151.290064">
  <ele>343.1</ele>
  <time>2026-09-01T19:51:57Z</time>
  <course>270.0</course>
  <speed>0.0</speed>
  <fix>3d</fix>
</trkpt>
<trkpt lat="-27.2744391" lon="151.290064">
  <ele>342.95</ele>
  <time>2026-09-01T19:51:57Z</time>
  <course>10.69</course>
  <speed>0.01414213562373095</speed>
  <fix>3d</fix>
</trkpt>
<trkpt lat="-27.274439" lon="151.290064">
  <ele>343.1</ele>
  <time>2026-09-01T19:51:57Z</time>
  <course>270.0</course>
  <speed>0.0</speed>
  <fix>3d</fix>
</trkpt>
<trkpt lat="-27.2744391" lon="151.290064">
  <ele>342.95</ele>
  <time>2026-09-01T19:51:57Z</time>
  <course>10.69</course>
  <speed>0.01414213562373095</speed>
  <fix>3d</fix>
</trkpt>
<trkpt lat="-27.274439" lon="151.290064">
  <ele>343.1</ele>
  <time>2026-09-01T19:51:57Z</time>
  <course>270.0</course>
  <speed>0.0</speed>
  <fix>3d</fix>
</trkpt>
<trkpt lat="-27.2744391" lon="151.290064">
  <ele>342.95</ele>
  <time>2026-09-01T19:51:57Z</time>
  <course>10.69</course>
  <speed>0.01414213562373095</speed>
  <fix>3d</fix>
</trkpt>
<trkpt lat="-27.274439" lon="151.290064">
  <ele>343.1</ele>
  <time>2026-09-01T19:51:57Z</time>
  <course>270.0</course>
  <speed>0.0</speed>
  <fix>3d</fix>
</trkpt>
<trkpt lat="-27.2744391" lon="151.290064">
  <ele>342.95</ele>
  <time>2026-09-01T19:51:57Z</time>
  <course>10.69</course>
  <speed>0.01414213562373095</speed>
  <fix>3d</fix>
</trkpt>
<trkpt lat="-27.274439" lon="151.290064">
  <ele>343.1</ele>
  <time>2026-09-01T19:51:57Z</time>
  <course>270.0</course>
  <speed>0.0</speed>
  <fix>3d</fix>
</trkpt>
<trkpt lat="-27.2744391" lon="151.290064">
  <ele>342.95</ele>
  <time>2026-09-01T19:51:57Z</time>
  <course>10.69</course>
  <speed>0.01414213562373095</speed>
  <fix>3d</fix>
</trkpt>
<trkpt lat="-27.274439" lon="151.290064">
  <ele>343.1</ele>
  <time>2026-09-01T19:51:57Z</time>
  <course>270.0</course>
  <speed>0.0</speed>
  <fix>3d</fix>
</trkpt>
<trkpt lat="-27.2744391" lon="151.290064">
  <ele>342.95</ele>
  <time>2026-09-01T19:51:57Z</time>
  <course>10.69</course>
  <speed>0.01414213562373095</speed>
  <fix>3d</fix>
</trkpt>
<trkpt lat="-27.274439" lon="151.290064">
  <ele>343.1</ele>
  <time>2026-09-01T19:51:57Z</time>
  <course>270.0</course>
  <speed>0.0</speed>
  <fix>3d</fix>
</trkpt>
<trkpt lat="-27.2744391" lon="151.290064">
  <ele>342.95</ele>
  <time>2026-09-01T19:51:57Z</time>
  <course>10.69</course>
  <speed>0.01414213562373095</speed>
  <fix>3d</fix>
</trkpt>
<trkpt lat="-27.274439" lon="151.290064">
  <ele>343.1</ele>
  <time>2026-09-01T19:51:57Z</time>
  <course>270.0</course>
  <speed>0.0</speed>
  <fix>3d</fix>
</trkpt>
<trkpt lat="-27.2744391" lon="151.290064">
  <ele>342.94</ele>
  <time>2026-09-01T19:51:57Z</time>
  <course>10.69</course>
  <speed>0.01414213562373095</speed>
  <fix>3d</fix>
</trkpt>
<trkpt lat="-27.274439" lon="151.290064">
  <ele>343.1</ele>
  <time>2026-09-01T19:51:57Z</time>
  <course>270.0</course>
  <speed>0.0</speed>
  <fix>3d</fix>
</trkpt>
<trkpt lat="-27.2744391" lon="151.290064">
  <ele>342.94</ele>
  <time>2026-09-01T19:51:57Z</time>
  <course>10.69</course>
  <speed>0.01414213562373095</speed>
  <fix>3d</fix>
</trkpt>
<trkpt lat="-27.274439" lon="151.290064">
  <ele>343.1</ele>
  <time>2026-09-01T19:51:57Z</time>
  <course>270.0</course>
  <speed>0.0</speed>
  <fix>3d</fix>
</trkpt>
<trkpt lat="-27.2744391" lon="151.290064">
  <ele>342.94</ele>
  <time>2026-09-01T19:51:57Z</time>
  <course>10.69</course>
  <speed>0.01414213562373095</speed>
  <fix>3d</fix>
</trkpt>
<trkpt lat="-27.274439" lon="151.290064">
  <ele>343.1</ele>
  <time>2026-09-01T19:51:57Z</time>
  <course>270.0</course>
  <speed>0.0</speed>
  <fix>3d</fix>
</trkpt>
<trkpt lat="-27.2744391" lon="151.290064">
  <ele>342.94</ele>
  <time>2026-09-01T19:51:57Z</time>
  <course>10.69</course>
  <speed>0.01414213562373095</speed>
  <fix>3d</fix>
</trkpt>
<trkpt lat="-27.274439" lon="151.290064">
  <ele>343.1</ele>
  <time>2026-09-01T19:51:57Z</time>
  <course>270.0</course>
  <speed>0.0</speed>
  <fix>3d</fix>
</trkpt>
<trkpt lat="-27.2744391" lon="151.290064">
  <ele>342.94</ele>
  <time>2026-09-01T19:51:57Z</time>
  <course>10.69</course>
  <speed>0.01414213562373095</speed>
  <fix>3d</fix>
</trkpt>
<trkpt lat="-27.274439" lon="151.290064">
  <ele>343.1</ele>
  <time>2026-09-01T19:51:57Z</time>
  <course>270.0</course>
  <speed>0.0</speed>
  <fix>3d</fix>
</trkpt>
<trkpt lat="-27.2744391" lon="151.290064">
  <ele>342.94</ele>
  <time>2026-09-01T19:51:57Z</time>
  <course>10.69</course>
  <speed>0.01414213562373095</speed>
  <fix>3d</fix>
</trkpt>
<trkpt lat="-27.274439" lon="151.290064">
  <ele>343.1</ele>
  <time>2026-09-01T19:51:57Z</time>
  <course>270.0</course>
  <speed>0.0</speed>
  <fix>3d</fix>
</trkpt>
<trkpt lat="-27.2744391" lon="151.290064">
  <ele>342.93</ele>
  <time>2026-09-01T19:51:57Z</time>
  <course>10.69</course>
  <speed>0.01414213562373095</speed>
  <fix>3d</fix>
</trkpt>
<trkpt lat="-27.274439" lon="151.290064">
  <ele>343.1</ele>
  <time>2026-09-01T19:51:57Z</time>
  <course>270.0</course>
  <speed>0.0</speed>
  <fix>3d</fix>
</trkpt>
<trkpt lat="-27.2744391" lon="151.290064">
  <ele>342.93</ele>
  <time>2026-09-01T19:51:57Z</time>
  <course>10.69</course>
  <speed>0.01414213562373095</speed>
  <fix>3d</fix>
</trkpt>
<trkpt lat="-27.274439" lon="151.290064">
  <ele>343.1</ele>
  <time>2026-09-01T19:51:57Z</time>
  <course>270.0</course>
  <speed>0.0</speed>
  <fix>3d</fix>
</trkpt>
<trkpt lat="-27.2744391" lon="151.290064">
  <ele>342.93</ele>
  <time>2026-09-01T19:51:57Z</time>
  <course>10.69</course>
  <speed>0.01414213562373095</speed>
  <fix>3d</fix>
</trkpt>
<trkpt lat="-27.274439" lon="151.290064">
  <ele>343.1</ele>
  <time>2026-09-01T19:51:57Z</time>
  <course>270.0</course>
  <speed>0.0</speed>
  <fix>3d</fix>
</trkpt>
<trkpt lat="-27.2744391" lon="151.290064">
  <ele>342.93</ele>
  <time>2026-09-01T19:51:57Z</time>
  <course>10.69</course>
  <speed>0.01414213562373095</speed>
  <fix>3d</fix>
</trkpt>
<trkpt lat="-27.274439" lon="151.290064">
  <ele>343.1</ele>
  <time>2026-09-01T19:51:57Z</time>
  <course>270.0</course>
  <speed>0.0</speed>
  <fix>3d</fix>
</trkpt>
<trkpt lat="-27.2744391" lon="151.2900641">
  <ele>342.93</ele>
  <time>2026-09-01T19:51:57Z</time>
  <course>10.69</course>
  <speed>0.01414213562373095</speed>
  <fix>3d</fix>
</trkpt>
<trkpt lat="-27.274439" lon="151.290064">
  <ele>343.1</ele>
  <time>2026-09-01T19:51:57Z</time>
  <course>270.0</course>
  <speed>0.0</speed>
  <fix>3d</fix>
</trkpt>
<trkpt lat="-27.2744391" lon="151.290064">
  <ele>342.93</ele>
  <time>2026-09-01T19:51:57Z</time>
  <course>10.69</course>
  <speed>0.01414213562373095</speed>
  <fix>3d</fix>
</trkpt>
<trkpt lat="-27.274439" lon="151.290064">
  <ele>343.1</ele>
  <time>2026-09-01T19:51:57Z</time>
  <course>270.0</course>
  <speed>0.0</speed>
  <fix>3d</fix>
</trkpt>
<trkpt lat="-27.2744391" lon="151.2900641">
  <ele>342.93</ele>
  <time>2026-09-01T19:51:57Z</time>
  <course>10.69</course>
  <speed>0.01414213562373095</speed>
  <fix>3d</fix>
</trkpt>
<trkpt lat="-27.274439" lon="151.290064">
  <ele>343.1</ele>
  <time>2026-09-01T19:51:57Z</time>
  <course>270.0</course>
  <speed>0.0</speed>
  <fix>3d</fix>
</trkpt>
<trkpt lat="-27.2744391" lon="151.2900641">
  <ele>342.93</ele>
  <time>2026-09-01T19:51:57Z</time>
  <course>10.69</course>
  <speed>0.01414213562373095</speed>
  <fix>3d</fix>
</trkpt>
<trkpt lat="-27.274439" lon="151.290064">
  <ele>343.1</ele>
  <time>2026-09-01T19:51:57Z</time>
  <course>270.0</course>
  <speed>0.0</speed>
  <fix>3d</fix>
</trkpt>
<trkpt lat="-27.2744391" lon="151.2900641">
  <ele>342.92</ele>
  <time>2026-09-01T19:51:57Z</time>
  <course>10.69</course>
  <speed>0.01414213562373095</speed>
  <fix>3d</fix>
</trkpt>
<trkpt lat="-27.274439" lon="151.290064">
  <ele>343.1</ele>
  <time>2026-09-01T19:51:57Z</time>
  <course>270.0</course>
  <speed>0.0</speed>
  <fix>3d</fix>
</trkpt>
<trkpt lat="-27.2744391" lon="151.2900641">
  <ele>342.92</ele>
  <time>2026-09-01T19:51:57Z</time>
  <course>10.69</course>
  <speed>0.01414213562373095</speed>
  <fix>3d</fix>
</trkpt>
<trkpt lat="-27.274439" lon="151.290064">
  <ele>343.1</ele>
  <time>2026-09-01T19:51:57Z</time>
  <course>270.0</course>
  <speed>0.0</speed>
  <fix>3d</fix>
</trkpt>
<trkpt lat="-27.2744391" lon="151.2900641">
  <ele>342.93</ele>
  <time>2026-09-01T19:51:57Z</time>
  <course>10.69</course>
  <speed>0.01414213562373095</speed>
  <fix>3d</fix>
</trkpt>
<trkpt lat="-27.274439" lon="151.290064">
  <ele>343.1</ele>
  <time>2026-09-01T19:51:57Z</time>
  <course>270.0</course>
  <speed>0.0</speed>
  <fix>3d</fix>
</trkpt>
<trkpt lat="-27.2744391" lon="151.2900641">
  <ele>342.93</ele>
  <time>2026-09-01T19:51:57Z</time>
  <course>10.69</course>
  <speed>0.01414213562373095</speed>
  <fix>3d</fix>
</trkpt>
<trkpt lat="-27.274439" lon="151.290064">
  <ele>343.1</ele>
  <time>2026-09-01T19:51:57Z</time>
  <course>270.0</course>
  <speed>0.0</speed>
  <fix>3d</fix>
</trkpt>
<trkpt lat="-27.2744391" lon="151.2900641">
  <ele>343.09</ele>
  <time>2026-09-01T19:51:57Z</time>
  <course>10.69</course>
  <speed>0.01414213562373095</speed>
  <fix>3d</fix>
</trkpt>
<trkpt lat="-27.274439" lon="151.290064">
  <ele>343.1</ele>
  <time>2026-09-01T19:51:57Z</time>
  <course>270.0</course>
  <speed>0.0</speed>
  <fix>3d</fix>
</trkpt>
<trkpt lat="-27.2744391" lon="151.2900641">
  <ele>343.09</ele>
  <time>2026-09-01T19:51:57Z</time>
  <course>10.69</course>
  <speed>0.01414213562373095</speed>
  <fix>3d</fix>
</trkpt>
<trkpt lat="-27.274439" lon="151.290064">
  <ele>343.1</ele>
  <time>2026-09-01T19:51:57Z</time>
  <course>270.0</course>
  <speed>0.0</speed>
  <fix>3d</fix>
</trkpt>
<trkpt lat="-27.2744391" lon="151.2900641">
  <ele>343.09</ele>
  <time>2026-09-01T19:51:57Z</time>
  <course>10.69</course>
  <speed>0.01414213562373095</speed>
  <fix>3d</fix>
</trkpt>
<trkpt lat="-27.274439" lon="151.290064">
  <ele>343.1</ele>
  <time>2026-09-01T19:51:57Z</time>
  <course>270.0</course>
  <speed>0.0</speed>
  <fix>3d</fix>
</trkpt>
<trkpt lat="-27.2744391" lon="151.2900641">
  <ele>343.09</ele>
  <time>2026-09-01T19:51:57Z</time>
  <course>10.69</course>
  <speed>0.01414213562373095</speed>
  <fix>3d</fix>
</trkpt>
<trkpt lat="-27.274439" lon="151.290064">
  <ele>343.1</ele>
  <time>2026-09-01T19:51:57Z</time>
  <course>270.0</course>
  <speed>0.0</speed>
  <fix>3d</fix>
</trkpt>
<trkpt lat="-27.2744391" lon="151.2900641">
  <ele>343.09</ele>
  <time>2026-09-01T19:51:57Z</time>
  <course>10.69</course>
  <speed>0.01414213562373095</speed>
  <fix>3d</fix>
</trkpt>
<trkpt lat="-27.274439" lon="151.290064">
  <ele>343.1</ele>
  <time>2026-09-01T19:51:57Z</time>
  <course>270.0</course>
  <speed>0.0</speed>
  <fix>3d</fix>
</trkpt>
<trkpt lat="-27.2744391" lon="151.2900641">
  <ele>343.09</ele>
  <time>2026-09-01T19:51:57Z</time>
  <course>10.69</course>
  <speed>0.01414213562373095</speed>
  <fix>3d</fix>
</trkpt>
<trkpt lat="-27.274439" lon="151.290064">
  <ele>343.1</ele>
  <time>2026-09-01T19:51:57Z</time>
  <course>270.0</course>
  <speed>0.0</speed>
  <fix>3d</fix>
</trkpt>
<trkpt lat="-27.2744391" lon="151.2900641">
  <ele>343.09</ele>
  <time>2026-09-01T19:51:57Z</time>
  <course>10.69</course>
  <speed>0.01414213562373095</speed>
  <fix>3d</fix>
</trkpt>
<trkpt lat="-27.274439" lon="151.290064">
  <ele>343.1</ele>
  <time>2026-09-01T19:51:57Z</time>
  <course>270.0</course>
  <speed>0.0</speed>
  <fix>3d</fix>
</trkpt>
<trkpt lat="-27.2744391" lon="151.2900641">
  <ele>343.1</ele>
  <time>2026-09-01T19:51:57Z</time>
  <course>10.69</course>
  <speed>0.01414213562373095</speed>
  <fix>3d</fix>
</trkpt>
<trkpt lat="-27.274439" lon="151.290064">
  <ele>343.1</ele>
  <time>2026-09-01T19:51:57Z</time>
  <course>270.0</course>
  <speed>0.0</speed>
  <fix>3d</fix>
</trkpt>
<trkpt lat="-27.2744391" lon="151.2900641">
  <ele>343.1</ele>
  <time>2026-09-01T19:51:57Z</time>
  <course>10.69</course>
  <speed>0.01414213562373095</speed>
  <fix>3d</fix>
</trkpt>
<trkpt lat="-27.274439" lon="151.290064">
  <ele>343.1</ele>
  <time>2026-09-01T19:51:57Z</time>
  <course>270.0</course>
  <speed>0.0</speed>
  <fix>3d</fix>
</trkpt>
<trkpt lat="-27.2744391" lon="151.2900641">
  <ele>343.1</ele>
  <time>2026-09-01T19:51:57Z</time>
  <course>10.69</course>
  <speed>0.01414213562373095</speed>
  <fix>3d</fix>
</trkpt>
<trkpt lat="-27.274439" lon="151.290064">
  <ele>343.1</ele>
  <time>2026-09-01T19:51:57Z</time>
  <course>270.0</course>
  <speed>0.0</speed>
  <fix>3d</fix>
</trkpt>
<trkpt lat="-27.2744391" lon="151.2900641">
  <ele>343.1</ele>
  <time>2026-09-01T19:51:57Z</time>
  <course>10.69</course>
  <speed>0.01414213562373095</speed>
  <fix>3d</fix>
</trkpt>
<trkpt lat="-27.274439" lon="151.290064">
  <ele>343.1</ele>
  <time>2026-09-01T19:51:57Z</time>
  <course>270.0</course>
  <speed>0.0</speed>
  <fix>3d</fix>
</trkpt>
<trkpt lat="-27.2744391" lon="151.2900641">
  <ele>343.1</ele>
  <time>2026-09-01T19:51:57Z</time>
  <course>10.69</course>
  <speed>0.01414213562373095</speed>
  <fix>3d</fix>
</trkpt>
<trkpt lat="-27.274439" lon="151.290064">
  <ele>343.1</ele>
  <time>2026-09-01T19:51:57Z</time>
  <course>270.0</course>
  <speed>0.0</speed>
  <fix>3d</fix>
</trkpt>
<trkpt lat="-27.2744391" lon="151.2900641">
  <ele>343.1</ele>
  <time>2026-09-01T19:51:57Z</time>
  <course>10.69</course>
  <speed>0.01414213562373095</speed>
  <fix>3d</fix>
</trkpt>
<trkpt lat="-27.274439" lon="151.290064">
  <ele>343.1</ele>
  <time>2026-09-01T19:51:57Z</time>
  <course>270.0</course>
  <speed>0.0</speed>
  <fix>3d</fix>
</trkpt>
<trkpt lat="-27.2744391" lon="151.2900641">
  <ele>343.1</ele>
  <time>2026-09-01T19:51:57Z</time>
  <course>10.69</course>
  <speed>0.01414213562373095</speed>
  <fix>3d</fix>
</trkpt>
<trkpt lat="-27.274439" lon="151.290064">
  <ele>343.1</ele>
  <time>2026-09-01T19:51:57Z</time>
  <course>270.0</course>
  <speed>0.0</speed>
  <fix>3d</fix>
</trkpt>
<trkpt lat="-27.2744391" lon="151.2900641">
  <ele>343.09</ele>
  <time>2026-09-01T19:51:57Z</time>
  <course>10.69</course>
  <speed>0.01414213562373095</speed>
  <fix>3d</fix>
</trkpt>
<trkpt lat="-27.274439" lon="151.290064">
  <ele>343.1</ele>
  <time>2026-09-01T19:51:57Z</time>
  <course>270.0</course>
  <speed>0.0</speed>
  <fix>3d</fix>
</trkpt>
<trkpt lat="-27.2744391" lon="151.2900641">
  <ele>343.09</ele>
  <time>2026-09-01T19:51:57Z</time>
  <course>10.69</course>
  <speed>0.01414213562373095</speed>
  <fix>3d</fix>
</trkpt>
<trkpt lat="-27.274439" lon="151.290064">
  <ele>343.1</ele>
  <time>2026-09-01T19:51:57Z</time>
  <course>270.0</course>
  <speed>0.0</speed>
  <fix>3d</fix>
</trkpt>
<trkpt lat="-27.2744391" lon="151.2900641">
  <ele>343.09</ele>
  <time>2026-09-01T19:51:57Z</time>
  <course>10.69</course>
  <speed>0.01414213562373095</speed>
  <fix>3d</fix>
</trkpt>
<trkpt lat="-27.274439" lon="151.290064">
  <ele>343.1</ele>
  <time>2026-09-01T19:51:57Z</time>
  <course>270.0</course>
  <speed>0.0</speed>
  <fix>3d</fix>
</trkpt>
<trkpt lat="-27.2744391" lon="151.2900641">
  <ele>343.1</ele>
  <time>2026-09-01T19:51:57Z</time>
  <course>10.69</course>
  <speed>0.01414213562373095</speed>
  <fix>3d</fix>
</trkpt>
<trkpt lat="-27.274439" lon="151.290064">
  <ele>343.1</ele>
  <time>2026-09-01T19:51:57Z</time>
  <course>270.0</course>
  <speed>0.0</speed>
  <fix>3d</fix>
</trkpt>
<trkpt lat="-27.2744391" lon="151.2900641">
  <ele>343.1</ele>
  <time>2026-09-01T19:51:57Z</time>
  <course>10.69</course>
  <speed>0.01414213562373095</speed>
  <fix>3d</fix>
</trkpt>
<trkpt lat="-27.274439" lon="151.290064">
  <ele>343.1</ele>
  <time>2026-09-01T19:51:57Z</time>
  <course>270.0</course>
  <speed>0.0</speed>
  <fix>3d</fix>
</trkpt>
<trkpt lat="-27.2744391" lon="151.2900641">
  <ele>343.09</ele>
  <time>2026-09-01T19:51:57Z</time>
  <course>10.69</course>
  <speed>0.01414213562373095</speed>
  <fix>3d</fix>
</trkpt>
<trkpt lat="-27.274439" lon="151.290064">
  <ele>343.1</ele>
  <time>2026-09-01T19:51:58Z</time>
  <course>270.0</course>
  <speed>0.0</speed>
  <fix>3d</fix>
</trkpt>
<trkpt lat="-27.2744391" lon="151.2900641">
  <ele>343.09</ele>
  <time>2026-09-01T19:51:58Z</time>
  <course>10.69</course>
  <speed>0.01414213562373095</speed>
  <fix>3d</fix>
</trkpt>
<trkpt lat="-27.274439" lon="151.290064">
  <ele>343.1</ele>
  <time>2026-09-01T19:51:58Z</time>
  <course>270.0</course>
  <speed>0.0</speed>
  <fix>3d</fix>
</trkpt>
<trkpt lat="-27.2744391" lon="151.2900641">
  <ele>343.09</ele>
  <time>2026-09-01T19:51:58Z</time>
  <course>10.69</course>
  <speed>0.01414213562373095</speed>
  <fix>3d</fix>
</trkpt>
<trkpt lat="-27.274439" lon="151.290064">
  <ele>343.1</ele>
  <time>2026-09-01T19:51:58Z</time>
  <course>270.0</course>
  <speed>0.0</speed>
  <fix>3d</fix>
</trkpt>
<trkpt lat="-27.2744391" lon="151.2900641">
  <ele>343.09</ele>
  <time>2026-09-01T19:51:58Z</time>
  <course>10.69</course>
  <speed>0.01414213562373095</speed>
  <fix>3d</fix>
</trkpt>
<trkpt lat="-27.274439" lon="151.290064">
  <ele>343.1</ele>
  <time>2026-09-01T19:51:58Z</time>
  <course>270.0</course>
  <speed>0.0</speed>
  <fix>3d</fix>
</trkpt>
<trkpt lat="-27.2744391" lon="151.2900641">
  <ele>343.08</ele>
  <time>2026-09-01T19:51:58Z</time>
  <course>10.69</course>
  <speed>0.01414213562373095</speed>
  <fix>3d</fix>
</trkpt>
<trkpt lat="-27.274439" lon="151.290064">
  <ele>343.1</ele>
  <time>2026-09-01T19:51:58Z</time>
  <course>270.0</course>
  <speed>0.0</speed>
  <fix>3d</fix>
</trkpt>
<trkpt lat="-27.2744391" lon="151.2900641">
  <ele>343.08</ele>
  <time>2026-09-01T19:51:58Z</time>
  <course>10.69</course>
  <speed>0.01414213562373095</speed>
  <fix>3d</fix>
</trkpt>
<trkpt lat="-27.274439" lon="151.290064">
  <ele>343.1</ele>
  <time>2026-09-01T19:51:58Z</time>
  <course>270.0</course>
  <speed>0.0</speed>
  <fix>3d</fix>
</trkpt>
<trkpt lat="-27.2744391" lon="151.2900641">
  <ele>343.08</ele>
  <time>2026-09-01T19:51:58Z</time>
  <course>10.69</course>
  <speed>0.01414213562373095</speed>
  <fix>3d</fix>
</trkpt>
<trkpt lat="-27.274439" lon="151.290064">
  <ele>343.1</ele>
  <time>2026-09-01T19:51:58Z</time>
  <course>270.0</course>
  <speed>0.0</speed>
  <fix>3d</fix>
</trkpt>
<trkpt lat="-27.2744391" lon="151.2900641">
  <ele>343.08</ele>
  <time>2026-09-01T19:51:58Z</time>
  <course>10.69</course>
  <speed>0.01414213562373095</speed>
  <fix>3d</fix>
</trkpt>
<trkpt lat="-27.274439" lon="151.290064">
  <ele>343.1</ele>
  <time>2026-09-01T19:51:58Z</time>
  <course>270.0</course>
  <speed>0.0</speed>
  <fix>3d</fix>
</trkpt>
<trkpt lat="-27.2744391" lon="151.2900641">
  <ele>343.09</ele>
  <time>2026-09-01T19:51:58Z</time>
  <course>10.69</course>
  <speed>0.01414213562373095</speed>
  <fix>3d</fix>
</trkpt>
<trkpt lat="-27.274439" lon="151.290064">
  <ele>343.1</ele>
  <time>2026-09-01T19:51:58Z</time>
  <course>270.0</course>
  <speed>0.0</speed>
  <fix>3d</fix>
</trkpt>
<trkpt lat="-27.2744391" lon="151.2900641">
  <ele>343.09</ele>
  <time>2026-09-01T19:51:58Z</time>
  <course>10.69</course>
  <speed>0.01414213562373095</speed>
  <fix>3d</fix>
</trkpt>
<trkpt lat="-27.274439" lon="151.290064">
  <ele>343.1</ele>
  <time>2026-09-01T19:51:58Z</time>
  <course>270.0</course>
  <speed>0.0</speed>
  <fix>3d</fix>
</trkpt>
<trkpt lat="-27.2744391" lon="151.2900641">
  <ele>343.09</ele>
  <time>2026-09-01T19:51:58Z</time>
  <course>10.69</course>
  <speed>0.01414213562373095</speed>
  <fix>3d</fix>
</trkpt>
<trkpt lat="-27.274439" lon="151.290064">
  <ele>343.1</ele>
  <time>2026-09-01T19:51:58Z</time>
  <course>270.0</course>
  <speed>0.0</speed>
  <fix>3d</fix>
</trkpt>
<trkpt lat="-27.2744391" lon="151.2900641">
  <ele>343.09</ele>
  <time>2026-09-01T19:51:58Z</time>
  <course>10.69</course>
  <speed>0.01414213562373095</speed>
  <fix>3d</fix>
</trkpt>
<trkpt lat="-27.274439" lon="151.290064">
  <ele>343.1</ele>
  <time>2026-09-01T19:51:58Z</time>
  <course>270.0</course>
  <speed>0.0</speed>
  <fix>3d</fix>
</trkpt>
<trkpt lat="-27.2744391" lon="151.2900641">
  <ele>343.09</ele>
  <time>2026-09-01T19:51:58Z</time>
  <course>10.69</course>
  <speed>0.01414213562373095</speed>
  <fix>3d</fix>
</trkpt>
<trkpt lat="-27.274439" lon="151.290064">
  <ele>343.1</ele>
  <time>2026-09-01T19:51:58Z</time>
  <course>270.0</course>
  <speed>0.0</speed>
  <fix>3d</fix>
</trkpt>
<trkpt lat="-27.2744391" lon="151.2900641">
  <ele>343.09</ele>
  <time>2026-09-01T19:51:58Z</time>
  <course>10.69</course>
  <speed>0.01414213562373095</speed>
  <fix>3d</fix>
</trkpt>
<trkpt lat="-27.274439" lon="151.290064">
  <ele>343.1</ele>
  <time>2026-09-01T19:51:58Z</time>
  <course>270.0</course>
  <speed>0.0</speed>
  <fix>3d</fix>
</trkpt>
<trkpt lat="-27.2744391" lon="151.2900641">
  <ele>343.09</ele>
  <time>2026-09-01T19:51:58Z</time>
  <course>10.69</course>
  <speed>0.01414213562373095</speed>
  <fix>3d</fix>
</trkpt>
<trkpt lat="-27.274439" lon="151.290064">
  <ele>343.1</ele>
  <time>2026-09-01T19:51:58Z</time>
  <course>270.0</course>
  <speed>0.0</speed>
  <fix>3d</fix>
</trkpt>
<trkpt lat="-27.2744391" lon="151.2900641">
  <ele>343.1</ele>
  <time>2026-09-01T19:51:58Z</time>
  <course>10.69</course>
  <speed>0.01414213562373095</speed>
  <fix>3d</fix>
</trkpt>
<trkpt lat="-27.274439" lon="151.290064">
  <ele>343.1</ele>
  <time>2026-09-01T19:51:58Z</time>
  <course>270.0</course>
  <speed>0.0</speed>
  <fix>3d</fix>
</trkpt>
<trkpt lat="-27.2744391" lon="151.2900641">
  <ele>343.1</ele>
  <time>2026-09-01T19:51:58Z</time>
  <course>10.69</course>
  <speed>0.01414213562373095</speed>
  <fix>3d</fix>
</trkpt>
<trkpt lat="-27.274439" lon="151.290064">
  <ele>343.1</ele>
  <time>2026-09-01T19:51:58Z</time>
  <course>270.0</course>
  <speed>0.0</speed>
  <fix>3d</fix>
</trkpt>
<trkpt lat="-27.2744391" lon="151.2900641">
  <ele>343.1</ele>
  <time>2026-09-01T19:51:58Z</time>
  <course>10.69</course>
  <speed>0.01414213562373095</speed>
  <fix>3d</fix>
</trkpt>
<trkpt lat="-27.274439" lon="151.290064">
  <ele>343.1</ele>
  <time>2026-09-01T19:51:58Z</time>
  <course>270.0</course>
  <speed>0.0</speed>
  <fix>3d</fix>
</trkpt>
<trkpt lat="-27.2744391" lon="151.2900641">
  <ele>343.1</ele>
  <time>2026-09-01T19:51:58Z</time>
  <course>10.69</course>
  <speed>0.01414213562373095</speed>
  <fix>3d</fix>
</trkpt>
<trkpt lat="-27.274439" lon="151.290064">
  <ele>343.1</ele>
  <time>2026-09-01T19:51:58Z</time>
  <course>270.0</course>
  <speed>0.0</speed>
  <fix>3d</fix>
</trkpt>
<trkpt lat="-27.2744391" lon="151.2900641">
  <ele>343.1</ele>
  <time>2026-09-01T19:51:58Z</time>
  <course>10.69</course>
  <speed>0.01414213562373095</speed>
  <fix>3d</fix>
</trkpt>
<trkpt lat="-27.274439" lon="151.290064">
  <ele>343.1</ele>
  <time>2026-09-01T19:51:58Z</time>
  <course>270.0</course>
  <speed>0.0</speed>
  <fix>3d</fix>
</trkpt>
<trkpt lat="-27.2744391" lon="151.2900641">
  <ele>343.1</ele>
  <time>2026-09-01T19:51:58Z</time>
  <course>10.69</course>
  <speed>0.01414213562373095</speed>
  <fix>3d</fix>
</trkpt>
<trkpt lat="-27.274439" lon="151.290064">
  <ele>343.1</ele>
  <time>2026-09-01T19:51:58Z</time>
  <course>270.0</course>
  <speed>0.0</speed>
  <fix>3d</fix>
</trkpt>
<trkpt lat="-27.2744391" lon="151.2900641">
  <ele>343.11</ele>
  <time>2026-09-01T19:51:58Z</time>
  <course>10.69</course>
  <speed>0.01414213562373095</speed>
  <fix>3d</fix>
</trkpt>
<trkpt lat="-27.274439" lon="151.290064">
  <ele>343.1</ele>
  <time>2026-09-01T19:51:58Z</time>
  <course>270.0</course>
  <speed>0.0</speed>
  <fix>3d</fix>
</trkpt>
<trkpt lat="-27.2744391" lon="151.2900641">
  <ele>343.11</ele>
  <time>2026-09-01T19:51:58Z</time>
  <course>10.69</course>
  <speed>0.01414213562373095</speed>
  <fix>3d</fix>
</trkpt>
<trkpt lat="-27.274439" lon="151.290064">
  <ele>343.1</ele>
  <time>2026-09-01T19:51:58Z</time>
  <course>270.0</course>
  <speed>0.0</speed>
  <fix>3d</fix>
</trkpt>
<trkpt lat="-27.2744391" lon="151.2900641">
  <ele>343.1</ele>
  <time>2026-09-01T19:51:58Z</time>
  <course>10.69</course>
  <speed>0.01414213562373095</speed>
  <fix>3d</fix>
</trkpt>
<trkpt lat="-27.274439" lon="151.290064">
  <ele>343.1</ele>
  <time>2026-09-01T19:51:58Z</time>
  <course>270.0</course>
  <speed>0.0</speed>
  <fix>3d</fix>
</trkpt>
<trkpt lat="-27.2744391" lon="151.2900641">
  <ele>343.1</ele>
  <time>2026-09-01T19:51:58Z</time>
  <course>10.69</course>
  <speed>0.01414213562373095</speed>
  <fix>3d</fix>
</trkpt>
<trkpt lat="-27.274439" lon="151.290064">
  <ele>343.1</ele>
  <time>2026-09-01T19:51:58Z</time>
  <course>270.0</course>
  <speed>0.0</speed>
  <fix>3d</fix>
</trkpt>
<trkpt lat="-27.2744391" lon="151.2900641">
  <ele>343.1</ele>
  <time>2026-09-01T19:51:58Z</time>
  <course>10.69</course>
  <speed>0.01414213562373095</speed>
  <fix>3d</fix>
</trkpt>
<trkpt lat="-27.274439" lon="151.290064">
  <ele>343.1</ele>
  <time>2026-09-01T19:51:58Z</time>
  <course>270.0</course>
  <speed>0.0</speed>
  <fix>3d</fix>
</trkpt>
<trkpt lat="-27.2744391" lon="151.2900641">
  <ele>343.1</ele>
  <time>2026-09-01T19:51:58Z</time>
  <course>10.69</course>
  <speed>0.01414213562373095</speed>
  <fix>3d</fix>
</trkpt>
<trkpt lat="-27.274439" lon="151.290064">
  <ele>343.1</ele>
  <time>2026-09-01T19:51:58Z</time>
  <course>270.0</course>
  <speed>0.0</speed>
  <fix>3d</fix>
</trkpt>
<trkpt lat="-27.2744391" lon="151.2900641">
  <ele>343.1</ele>
  <time>2026-09-01T19:51:58Z</time>
  <course>10.69</course>
  <speed>0.01414213562373095</speed>
  <fix>3d</fix>
</trkpt>
<trkpt lat="-27.274439" lon="151.290064">
  <ele>343.1</ele>
  <time>2026-09-01T19:51:58Z</time>
  <course>270.0</course>
  <speed>0.0</speed>
  <fix>3d</fix>
</trkpt>
<trkpt lat="-27.2744391" lon="151.2900641">
  <ele>343.1</ele>
  <time>2026-09-01T19:51:58Z</time>
  <course>10.69</course>
  <speed>0.01414213562373095</speed>
  <fix>3d</fix>
</trkpt>
<trkpt lat="-27.274439" lon="151.290064">
  <ele>343.1</ele>
  <time>2026-09-01T19:51:58Z</time>
  <course>270.0</course>
  <speed>0.0</speed>
  <fix>3d</fix>
</trkpt>
<trkpt lat="-27.2744391" lon="151.2900641">
  <ele>343.1</ele>
  <time>2026-09-01T19:51:58Z</time>
  <course>10.69</course>
  <speed>0.01414213562373095</speed>
  <fix>3d</fix>
</trkpt>
<trkpt lat="-27.274439" lon="151.290064">
  <ele>343.1</ele>
  <time>2026-09-01T19:51:58Z</time>
  <course>270.0</course>
  <speed>0.0</speed>
  <fix>3d</fix>
</trkpt>
<trkpt lat="-27.2744391" lon="151.2900641">
  <ele>343.09</ele>
  <time>2026-09-01T19:51:58Z</time>
  <course>10.69</course>
  <speed>0.01414213562373095</speed>
  <fix>3d</fix>
</trkpt>
<trkpt lat="-27.274439" lon="151.290064">
  <ele>343.1</ele>
  <time>2026-09-01T19:51:58Z</time>
  <course>270.0</course>
  <speed>0.0</speed>
  <fix>3d</fix>
</trkpt>
<trkpt lat="-27.2744391" lon="151.2900641">
  <ele>343.09</ele>
  <time>2026-09-01T19:51:58Z</time>
  <course>10.69</course>
  <speed>0.01414213562373095</speed>
  <fix>3d</fix>
</trkpt>
<trkpt lat="-27.274439" lon="151.290064">
  <ele>343.1</ele>
  <time>2026-09-01T19:51:58Z</time>
  <course>270.0</course>
  <speed>0.0</speed>
  <fix>3d</fix>
</trkpt>
<trkpt lat="-27.2744391" lon="151.2900641">
  <ele>343.09</ele>
  <time>2026-09-01T19:51:58Z</time>
  <course>10.69</course>
  <speed>0.01414213562373095</speed>
  <fix>3d</fix>
</trkpt>
<trkpt lat="-27.274439" lon="151.290064">
  <ele>343.1</ele>
  <time>2026-09-01T19:51:58Z</time>
  <course>270.0</course>
  <speed>0.0</speed>
  <fix>3d</fix>
</trkpt>
<trkpt lat="-27.2744391" lon="151.2900641">
  <ele>343.09</ele>
  <time>2026-09-01T19:51:58Z</time>
  <course>10.69</course>
  <speed>0.01414213562373095</speed>
  <fix>3d</fix>
</trkpt>
<trkpt lat="-27.274439" lon="151.290064">
  <ele>343.1</ele>
  <time>2026-09-01T19:51:58Z</time>
  <course>270.0</course>
  <speed>0.0</speed>
  <fix>3d</fix>
</trkpt>
<trkpt lat="-27.2744391" lon="151.2900641">
  <ele>343.09</ele>
  <time>2026-09-01T19:51:58Z</time>
  <course>10.69</course>
  <speed>0.01414213562373095</speed>
  <fix>3d</fix>
</trkpt>
<trkpt lat="-27.274439" lon="151.290064">
  <ele>343.1</ele>
  <time>2026-09-01T19:51:58Z</time>
  <course>270.0</course>
  <speed>0.0</speed>
  <fix>3d</fix>
</trkpt>
<trkpt lat="-27.2744391" lon="151.2900641">
  <ele>343.09</ele>
  <time>2026-09-01T19:51:58Z</time>
  <course>10.7</course>
  <speed>0.01414213562373095</speed>
  <fix>3d</fix>
</trkpt>
<trkpt lat="-27.274439" lon="151.290064">
  <ele>343.1</ele>
  <time>2026-09-01T19:51:58Z</time>
  <course>270.0</course>
  <speed>0.0</speed>
  <fix>3d</fix>
</trkpt>
<trkpt lat="-27.2744391" lon="151.2900641">
  <ele>343.09</ele>
  <time>2026-09-01T19:51:58Z</time>
  <course>10.7</course>
  <speed>0.01414213562373095</speed>
  <fix>3d</fix>
</trkpt>
<trkpt lat="-27.274439" lon="151.290064">
  <ele>343.1</ele>
  <time>2026-09-01T19:51:58Z</time>
  <course>270.0</course>
  <speed>0.0</speed>
  <fix>3d</fix>
</trkpt>
<trkpt lat="-27.2744391" lon="151.2900641">
  <ele>343.09</ele>
  <time>2026-09-01T19:51:58Z</time>
  <course>10.7</course>
  <speed>0.01414213562373095</speed>
  <fix>3d</fix>
</trkpt>
<trkpt lat="-27.274439" lon="151.290064">
  <ele>343.1</ele>
  <time>2026-09-01T19:51:58Z</time>
  <course>270.0</course>
  <speed>0.0</speed>
  <fix>3d</fix>
</trkpt>
<trkpt lat="-27.2744391" lon="151.2900641">
  <ele>343.09</ele>
  <time>2026-09-01T19:51:58Z</time>
  <course>10.7</course>
  <speed>0.01414213562373095</speed>
  <fix>3d</fix>
</trkpt>
<trkpt lat="-27.274439" lon="151.290064">
  <ele>343.1</ele>
  <time>2026-09-01T19:51:58Z</time>
  <course>270.0</course>
  <speed>0.0</speed>
  <fix>3d</fix>
</trkpt>
<trkpt lat="-27.2744391" lon="151.2900641">
  <ele>343.08</ele>
  <time>2026-09-01T19:51:58Z</time>
  <course>10.7</course>
  <speed>0.01414213562373095</speed>
  <fix>3d</fix>
</trkpt>
<trkpt lat="-27.274439" lon="151.290064">
  <ele>343.1</ele>
  <time>2026-09-01T19:51:58Z</time>
  <course>270.0</course>
  <speed>0.0</speed>
  <fix>3d</fix>
</trkpt>
<trkpt lat="-27.2744391" lon="151.2900641">
  <ele>343.1</ele>
  <time>2026-09-01T19:51:58Z</time>
  <course>10.7</course>
  <speed>0.01414213562373095</speed>
  <fix>3d</fix>
</trkpt>
<trkpt lat="-27.274439" lon="151.290064">
  <ele>343.1</ele>
  <time>2026-09-01T19:51:58Z</time>
  <course>270.0</course>
  <speed>0.0</speed>
  <fix>3d</fix>
</trkpt>
<trkpt lat="-27.2744391" lon="151.2900641">
  <ele>343.09</ele>
  <time>2026-09-01T19:51:58Z</time>
  <course>10.7</course>
  <speed>0.01414213562373095</speed>
  <fix>3d</fix>
</trkpt>
<trkpt lat="-27.274439" lon="151.290064">
  <ele>343.1</ele>
  <time>2026-09-01T19:51:58Z</time>
  <course>270.0</course>
  <speed>0.0</speed>
  <fix>3d</fix>
</trkpt>
<trkpt lat="-27.2744391" lon="151.2900641">
  <ele>343.09</ele>
  <time>2026-09-01T19:51:58Z</time>
  <course>10.7</course>
  <speed>0.01414213562373095</speed>
  <fix>3d</fix>
</trkpt>
<trkpt lat="-27.274439" lon="151.290064">
  <ele>343.1</ele>
  <time>2026-09-01T19:51:58Z</time>
  <course>270.0</course>
  <speed>0.0</speed>
  <fix>3d</fix>
</trkpt>
<trkpt lat="-27.2744391" lon="151.2900641">
  <ele>343.09</ele>
  <time>2026-09-01T19:51:58Z</time>
  <course>10.7</course>
  <speed>0.01414213562373095</speed>
  <fix>3d</fix>
</trkpt>
<trkpt lat="-27.274439" lon="151.290064">
  <ele>343.1</ele>
  <time>2026-09-01T19:51:58Z</time>
  <course>270.0</course>
  <speed>0.0</speed>
  <fix>3d</fix>
</trkpt>
<trkpt lat="-27.2744391" lon="151.2900641">
  <ele>343.09</ele>
  <time>2026-09-01T19:51:58Z</time>
  <course>10.7</course>
  <speed>0.01414213562373095</speed>
  <fix>3d</fix>
</trkpt>
<trkpt lat="-27.274439" lon="151.290064">
  <ele>343.1</ele>
  <time>2026-09-01T19:51:58Z</time>
  <course>270.0</course>
  <speed>0.0</speed>
  <fix>3d</fix>
</trkpt>
<trkpt lat="-27.2744391" lon="151.2900641">
  <ele>343.09</ele>
  <time>2026-09-01T19:51:58Z</time>
  <course>10.7</course>
  <speed>0.01414213562373095</speed>
  <fix>3d</fix>
</trkpt>
<trkpt lat="-27.274439" lon="151.290064">
  <ele>343.1</ele>
  <time>2026-09-01T19:51:58Z</time>
  <course>270.0</course>
  <speed>0.0</speed>
  <fix>3d</fix>
</trkpt>
<trkpt lat="-27.2744391" lon="151.2900641">
  <ele>343.09</ele>
  <time>2026-09-01T19:51:58Z</time>
  <course>10.7</course>
  <speed>0.01414213562373095</speed>
  <fix>3d</fix>
</trkpt>
<trkpt lat="-27.274439" lon="151.290064">
  <ele>343.1</ele>
  <time>2026-09-01T19:51:58Z</time>
  <course>270.0</course>
  <speed>0.0</speed>
  <fix>3d</fix>
</trkpt>
<trkpt lat="-27.2744391" lon="151.2900641">
  <ele>343.09</ele>
  <time>2026-09-01T19:51:58Z</time>
  <course>10.7</course>
  <speed>0.01414213562373095</speed>
  <fix>3d</fix>
</trkpt>
<trkpt lat="-27.274439" lon="151.290064">
  <ele>343.1</ele>
  <time>2026-09-01T19:51:58Z</time>
  <course>270.0</course>
  <speed>0.0</speed>
  <fix>3d</fix>
</trkpt>
<trkpt lat="-27.2744391" lon="151.2900641">
  <ele>343.09</ele>
  <time>2026-09-01T19:51:58Z</time>
  <course>10.7</course>
  <speed>0.01414213562373095</speed>
  <fix>3d</fix>
</trkpt>
<trkpt lat="-27.274439" lon="151.290064">
  <ele>343.1</ele>
  <time>2026-09-01T19:51:58Z</time>
  <course>270.0</course>
  <speed>0.0</speed>
  <fix>3d</fix>
</trkpt>
<trkpt lat="-27.2744391" lon="151.2900641">
  <ele>343.09</ele>
  <time>2026-09-01T19:51:58Z</time>
  <course>10.7</course>
  <speed>0.01414213562373095</speed>
  <fix>3d</fix>
</trkpt>
<trkpt lat="-27.274439" lon="151.290064">
  <ele>343.1</ele>
  <time>2026-09-01T19:51:58Z</time>
  <course>270.0</course>
  <speed>0.0</speed>
  <fix>3d</fix>
</trkpt>
<trkpt lat="-27.2744391" lon="151.2900641">
  <ele>343.09</ele>
  <time>2026-09-01T19:51:58Z</time>
  <course>10.7</course>
  <speed>0.01414213562373095</speed>
  <fix>3d</fix>
</trkpt>
<trkpt lat="-27.274439" lon="151.290064">
  <ele>343.1</ele>
  <time>2026-09-01T19:51:58Z</time>
  <course>270.0</course>
  <speed>0.0</speed>
  <fix>3d</fix>
</trkpt>
<trkpt lat="-27.2744391" lon="151.2900641">
  <ele>343.08</ele>
  <time>2026-09-01T19:51:58Z</time>
  <course>10.7</course>
  <speed>0.01414213562373095</speed>
  <fix>3d</fix>
</trkpt>
<trkpt lat="-27.274439" lon="151.290064">
  <ele>343.1</ele>
  <time>2026-09-01T19:51:58Z</time>
  <course>270.0</course>
  <speed>0.0</speed>
  <fix>3d</fix>
</trkpt>
<trkpt lat="-27.2744391" lon="151.2900641">
  <ele>343.08</ele>
  <time>2026-09-01T19:51:58Z</time>
  <course>10.7</course>
  <speed>0.01414213562373095</speed>
  <fix>3d</fix>
</trkpt>
<trkpt lat="-27.274439" lon="151.290064">
  <ele>343.1</ele>
  <time>2026-09-01T19:51:58Z</time>
  <course>270.0</course>
  <speed>0.0</speed>
  <fix>3d</fix>
</trkpt>
<trkpt lat="-27.2744391" lon="151.2900641">
  <ele>343.08</ele>
  <time>2026-09-01T19:51:58Z</time>
  <course>10.7</course>
  <speed>0.01414213562373095</speed>
  <fix>3d</fix>
</trkpt>
<trkpt lat="-27.274439" lon="151.290064">
  <ele>343.1</ele>
  <time>2026-09-01T19:51:58Z</time>
  <course>270.0</course>
  <speed>0.0</speed>
  <fix>3d</fix>
</trkpt>
<trkpt lat="-27.2744391" lon="151.2900641">
  <ele>343.07</ele>
  <time>2026-09-01T19:51:58Z</time>
  <course>10.7</course>
  <speed>0.01414213562373095</speed>
  <fix>3d</fix>
</trkpt>
<trkpt lat="-27.274439" lon="151.290064">
  <ele>343.1</ele>
  <time>2026-09-01T19:51:58Z</time>
  <course>270.0</course>
  <speed>0.0</speed>
  <fix>3d</fix>
</trkpt>
<trkpt lat="-27.2744391" lon="151.2900641">
  <ele>343.07</ele>
  <time>2026-09-01T19:51:58Z</time>
  <course>10.7</course>
  <speed>0.01414213562373095</speed>
  <fix>3d</fix>
</trkpt>
<trkpt lat="-27.274439" lon="151.290064">
  <ele>343.1</ele>
  <time>2026-09-01T19:51:58Z</time>
  <course>270.0</course>
  <speed>0.0</speed>
  <fix>3d</fix>
</trkpt>
<trkpt lat="-27.2744391" lon="151.2900641">
  <ele>343.07</ele>
  <time>2026-09-01T19:51:58Z</time>
  <course>10.7</course>
  <speed>0.01414213562373095</speed>
  <fix>3d</fix>
</trkpt>
<trkpt lat="-27.274439" lon="151.290064">
  <ele>343.1</ele>
  <time>2026-09-01T19:51:58Z</time>
  <course>270.0</course>
  <speed>0.0</speed>
  <fix>3d</fix>
</trkpt>
<trkpt lat="-27.2744391" lon="151.2900641">
  <ele>343.07</ele>
  <time>2026-09-01T19:51:58Z</time>
  <course>10.7</course>
  <speed>0.01414213562373095</speed>
  <fix>3d</fix>
</trkpt>
<trkpt lat="-27.274439" lon="151.290064">
  <ele>343.1</ele>
  <time>2026-09-01T19:51:58Z</time>
  <course>270.0</course>
  <speed>0.0</speed>
  <fix>3d</fix>
</trkpt>
<trkpt lat="-27.2744391" lon="151.2900641">
  <ele>343.07</ele>
  <time>2026-09-01T19:51:58Z</time>
  <course>10.7</course>
  <speed>0.01414213562373095</speed>
  <fix>3d</fix>
</trkpt>
<trkpt lat="-27.274439" lon="151.290064">
  <ele>343.1</ele>
  <time>2026-09-01T19:51:58Z</time>
  <course>270.0</course>
  <speed>0.0</speed>
  <fix>3d</fix>
</trkpt>
<trkpt lat="-27.2744391" lon="151.2900641">
  <ele>343.07</ele>
  <time>2026-09-01T19:51:58Z</time>
  <course>10.7</course>
  <speed>0.01414213562373095</speed>
  <fix>3d</fix>
</trkpt>
<trkpt lat="-27.274439" lon="151.290064">
  <ele>343.1</ele>
  <time>2026-09-01T19:51:58Z</time>
  <course>270.0</course>
  <speed>0.0</speed>
  <fix>3d</fix>
</trkpt>
<trkpt lat="-27.2744391" lon="151.2900641">
  <ele>343.07</ele>
  <time>2026-09-01T19:51:58Z</time>
  <course>10.7</course>
  <speed>0.01414213562373095</speed>
  <fix>3d</fix>
</trkpt>
<trkpt lat="-27.274439" lon="151.290064">
  <ele>343.1</ele>
  <time>2026-09-01T19:51:58Z</time>
  <course>270.0</course>
  <speed>0.0</speed>
  <fix>3d</fix>
</trkpt>
<trkpt lat="-27.2744391" lon="151.2900641">
  <ele>343.07</ele>
  <time>2026-09-01T19:51:58Z</time>
  <course>10.7</course>
  <speed>0.01414213562373095</speed>
  <fix>3d</fix>
</trkpt>
<trkpt lat="-27.274439" lon="151.290064">
  <ele>343.1</ele>
  <time>2026-09-01T19:51:58Z</time>
  <course>270.0</course>
  <speed>0.0</speed>
  <fix>3d</fix>
</trkpt>
<trkpt lat="-27.2744391" lon="151.2900641">
  <ele>343.07</ele>
  <time>2026-09-01T19:51:58Z</time>
  <course>10.7</course>
  <speed>0.01414213562373095</speed>
  <fix>3d</fix>
</trkpt>
<trkpt lat="-27.274439" lon="151.290064">
  <ele>343.1</ele>
  <time>2026-09-01T19:51:58Z</time>
  <course>270.0</course>
  <speed>0.0</speed>
  <fix>3d</fix>
</trkpt>
<trkpt lat="-27.2744391" lon="151.2900641">
  <ele>343.06</ele>
  <time>2026-09-01T19:51:58Z</time>
  <course>10.7</course>
  <speed>0.01414213562373095</speed>
  <fix>3d</fix>
</trkpt>
<trkpt lat="-27.274439" lon="151.290064">
  <ele>343.1</ele>
  <time>2026-09-01T19:51:58Z</time>
  <course>270.0</course>
  <speed>0.0</speed>
  <fix>3d</fix>
</trkpt>
<trkpt lat="-27.2744391" lon="151.2900641">
  <ele>343.06</ele>
  <time>2026-09-01T19:51:58Z</time>
  <course>10.7</course>
  <speed>0.01414213562373095</speed>
  <fix>3d</fix>
</trkpt>
<trkpt lat="-27.274439" lon="151.290064">
  <ele>343.1</ele>
  <time>2026-09-01T19:51:58Z</time>
  <course>270.0</course>
  <speed>0.0</speed>
  <fix>3d</fix>
</trkpt>
<trkpt lat="-27.2744391" lon="151.2900641">
  <ele>343.06</ele>
  <time>2026-09-01T19:51:58Z</time>
  <course>10.7</course>
  <speed>0.01414213562373095</speed>
  <fix>3d</fix>
</trkpt>
<trkpt lat="-27.274439" lon="151.290064">
  <ele>343.1</ele>
  <time>2026-09-01T19:51:58Z</time>
  <course>270.0</course>
  <speed>0.0</speed>
  <fix>3d</fix>
</trkpt>
<trkpt lat="-27.2744391" lon="151.2900641">
  <ele>343.06</ele>
  <time>2026-09-01T19:51:58Z</time>
  <course>10.7</course>
  <speed>0.01414213562373095</speed>
  <fix>3d</fix>
</trkpt>
<trkpt lat="-27.274439" lon="151.290064">
  <ele>343.1</ele>
  <time>2026-09-01T19:51:58Z</time>
  <course>270.0</course>
  <speed>0.0</speed>
  <fix>3d</fix>
</trkpt>
<trkpt lat="-27.2744391" lon="151.2900641">
  <ele>343.06</ele>
  <time>2026-09-01T19:51:58Z</time>
  <course>10.7</course>
  <speed>0.01414213562373095</speed>
  <fix>3d</fix>
</trkpt>
<trkpt lat="-27.274439" lon="151.290064">
  <ele>343.1</ele>
  <time>2026-09-01T19:51:58Z</time>
  <course>270.0</course>
  <speed>0.0</speed>
  <fix>3d</fix>
</trkpt>
<trkpt lat="-27.2744391" lon="151.2900641">
  <ele>343.06</ele>
  <time>2026-09-01T19:51:58Z</time>
  <course>10.7</course>
  <speed>0.01414213562373095</speed>
  <fix>3d</fix>
</trkpt>
<trkpt lat="-27.274439" lon="151.290064">
  <ele>343.1</ele>
  <time>2026-09-01T19:51:58Z</time>
  <course>270.0</course>
  <speed>0.0</speed>
  <fix>3d</fix>
</trkpt>
<trkpt lat="-27.2744391" lon="151.2900641">
  <ele>343.06</ele>
  <time>2026-09-01T19:51:58Z</time>
  <course>10.7</course>
  <speed>0.01414213562373095</speed>
  <fix>3d</fix>
</trkpt>
<trkpt lat="-27.274439" lon="151.290064">
  <ele>343.1</ele>
  <time>2026-09-01T19:51:58Z</time>
  <course>270.0</course>
  <speed>0.0</speed>
  <fix>3d</fix>
</trkpt>
<trkpt lat="-27.2744391" lon="151.2900641">
  <ele>343.06</ele>
  <time>2026-09-01T19:51:58Z</time>
  <course>10.71</course>
  <speed>0.01414213562373095</speed>
  <fix>3d</fix>
</trkpt>
<trkpt lat="-27.274439" lon="151.290064">
  <ele>343.1</ele>
  <time>2026-09-01T19:51:58Z</time>
  <course>270.0</course>
  <speed>0.0</speed>
  <fix>3d</fix>
</trkpt>
<trkpt lat="-27.2744391" lon="151.2900641">
  <ele>343.06</ele>
  <time>2026-09-01T19:51:58Z</time>
  <course>10.71</course>
  <speed>0.022360679774997897</speed>
  <fix>3d</fix>
</trkpt>
<trkpt lat="-27.274439" lon="151.290064">
  <ele>343.1</ele>
  <time>2026-09-01T19:51:58Z</time>
  <course>270.0</course>
  <speed>0.0</speed>
  <fix>3d</fix>
</trkpt>
<trkpt lat="-27.2744391" lon="151.2900641">
  <ele>343.06</ele>
  <time>2026-09-01T19:51:58Z</time>
  <course>10.71</course>
  <speed>0.01414213562373095</speed>
  <fix>3d</fix>
</trkpt>
<trkpt lat="-27.274439" lon="151.290064">
  <ele>343.1</ele>
  <time>2026-09-01T19:51:58Z</time>
  <course>270.0</course>
  <speed>0.0</speed>
  <fix>3d</fix>
</trkpt>
<trkpt lat="-27.2744391" lon="151.2900641">
  <ele>343.06</ele>
  <time>2026-09-01T19:51:58Z</time>
  <course>10.71</course>
  <speed>0.022360679774997897</speed>
  <fix>3d</fix>
</trkpt>
<trkpt lat="-27.274439" lon="151.290064">
  <ele>343.1</ele>
  <time>2026-09-01T19:51:58Z</time>
  <course>270.0</course>
  <speed>0.0</speed>
  <fix>3d</fix>
</trkpt>
<trkpt lat="-27.2744391" lon="151.2900641">
  <ele>343.06</ele>
  <time>2026-09-01T19:51:58Z</time>
  <course>10.71</course>
  <speed>0.01414213562373095</speed>
  <fix>3d</fix>
</trkpt>
<trkpt lat="-27.274439" lon="151.290064">
  <ele>343.1</ele>
  <time>2026-09-01T19:51:58Z</time>
  <course>270.0</course>
  <speed>0.0</speed>
  <fix>3d</fix>
</trkpt>
<trkpt lat="-27.2744391" lon="151.2900641">
  <ele>343.06</ele>
  <time>2026-09-01T19:51:58Z</time>
  <course>10.71</course>
  <speed>0.022360679774997897</speed>
  <fix>3d</fix>
</trkpt>
<trkpt lat="-27.274439" lon="151.290064">
  <ele>343.1</ele>
  <time>2026-09-01T19:51:58Z</time>
  <course>270.0</course>
  <speed>0.0</speed>
  <fix>3d</fix>
</trkpt>
<trkpt lat="-27.2744391" lon="151.2900641">
  <ele>343.06</ele>
  <time>2026-09-01T19:51:58Z</time>
  <course>10.71</course>
  <speed>0.022360679774997897</speed>
  <fix>3d</fix>
</trkpt>
<trkpt lat="-27.274439" lon="151.290064">
  <ele>343.1</ele>
  <time>2026-09-01T19:51:58Z</time>
  <course>270.0</course>
  <speed>0.0</speed>
  <fix>3d</fix>
</trkpt>
<trkpt lat="-27.2744391" lon="151.2900641">
  <ele>343.06</ele>
  <time>2026-09-01T19:51:58Z</time>
  <course>10.71</course>
  <speed>0.022360679774997897</speed>
  <fix>3d</fix>
</trkpt>
<trkpt lat="-27.274439" lon="151.290064">
  <ele>343.1</ele>
  <time>2026-09-01T19:51:58Z</time>
  <course>270.0</course>
  <speed>0.0</speed>
  <fix>3d</fix>
</trkpt>
<trkpt lat="-27.2744391" lon="151.2900641">
  <ele>343.05</ele>
  <time>2026-09-01T19:51:58Z</time>
  <course>10.71</course>
  <speed>0.022360679774997897</speed>
  <fix>3d</fix>
</trkpt>
<trkpt lat="-27.274439" lon="151.290064">
  <ele>343.1</ele>
  <time>2026-09-01T19:51:58Z</time>
  <course>270.0</course>
  <speed>0.0</speed>
  <fix>3d</fix>
</trkpt>
<trkpt lat="-27.2744391" lon="151.2900641">
  <ele>343.05</ele>
  <time>2026-09-01T19:51:58Z</time>
  <course>10.71</course>
  <speed>0.022360679774997897</speed>
  <fix>3d</fix>
</trkpt>
<trkpt lat="-27.274439" lon="151.290064">
  <ele>343.1</ele>
  <time>2026-09-01T19:51:58Z</time>
  <course>270.0</course>
  <speed>0.0</speed>
  <fix>3d</fix>
</trkpt>
<trkpt lat="-27.2744391" lon="151.2900641">
  <ele>343.05</ele>
  <time>2026-09-01T19:51:58Z</time>
  <course>10.71</course>
  <speed>0.022360679774997897</speed>
  <fix>3d</fix>
</trkpt>
<trkpt lat="-27.274439" lon="151.290064">
  <ele>343.1</ele>
  <time>2026-09-01T19:51:58Z</time>
  <course>270.0</course>
  <speed>0.0</speed>
  <fix>3d</fix>
</trkpt>
<trkpt lat="-27.2744391" lon="151.2900641">
  <ele>343.04</ele>
  <time>2026-09-01T19:51:58Z</time>
  <course>10.71</course>
  <speed>0.022360679774997897</speed>
  <fix>3d</fix>
</trkpt>
<trkpt lat="-27.274439" lon="151.290064">
  <ele>343.1</ele>
  <time>2026-09-01T19:51:58Z</time>
  <course>270.0</course>
  <speed>0.0</speed>
  <fix>3d</fix>
</trkpt>
<trkpt lat="-27.2744391" lon="151.2900641">
  <ele>343.04</ele>
  <time>2026-09-01T19:51:58Z</time>
  <course>10.71</course>
  <speed>0.022360679774997897</speed>
  <fix>3d</fix>
</trkpt>
<trkpt lat="-27.274439" lon="151.290064">
  <ele>343.1</ele>
  <time>2026-09-01T19:51:58Z</time>
  <course>270.0</course>
  <speed>0.0</speed>
  <fix>3d</fix>
</trkpt>
<trkpt lat="-27.2744391" lon="151.2900641">
  <ele>343.04</ele>
  <time>2026-09-01T19:51:58Z</time>
  <course>10.71</course>
  <speed>0.022360679774997897</speed>
  <fix>3d</fix>
</trkpt>
<trkpt lat="-27.274439" lon="151.290064">
  <ele>343.1</ele>
  <time>2026-09-01T19:51:58Z</time>
  <course>270.0</course>
  <speed>0.0</speed>
  <fix>3d</fix>
</trkpt>
<trkpt lat="-27.2744391" lon="151.2900641">
  <ele>343.04</ele>
  <time>2026-09-01T19:51:58Z</time>
  <course>10.71</course>
  <speed>0.022360679774997897</speed>
  <fix>3d</fix>
</trkpt>
<trkpt lat="-27.274439" lon="151.290064">
  <ele>343.1</ele>
  <time>2026-09-01T19:51:58Z</time>
  <course>270.0</course>
  <speed>0.0</speed>
  <fix>3d</fix>
</trkpt>
<trkpt lat="-27.2744391" lon="151.2900641">
  <ele>343.03</ele>
  <time>2026-09-01T19:51:58Z</time>
  <course>10.71</course>
  <speed>0.022360679774997897</speed>
  <fix>3d</fix>
</trkpt>
<trkpt lat="-27.274439" lon="151.290064">
  <ele>343.1</ele>
  <time>2026-09-01T19:51:58Z</time>
  <course>270.0</course>
  <speed>0.0</speed>
  <fix>3d</fix>
</trkpt>
<trkpt lat="-27.2744391" lon="151.2900641">
  <ele>343.03</ele>
  <time>2026-09-01T19:51:58Z</time>
  <course>10.71</course>
  <speed>0.022360679774997897</speed>
  <fix>3d</fix>
</trkpt>
<trkpt lat="-27.274439" lon="151.290064">
  <ele>343.1</ele>
  <time>2026-09-01T19:51:58Z</time>
  <course>270.0</course>
  <speed>0.0</speed>
  <fix>3d</fix>
</trkpt>
<trkpt lat="-27.2744391" lon="151.2900641">
  <ele>343.03</ele>
  <time>2026-09-01T19:51:58Z</time>
  <course>10.71</course>
  <speed>0.022360679774997897</speed>
  <fix>3d</fix>
</trkpt>
<trkpt lat="-27.274439" lon="151.290064">
  <ele>343.1</ele>
  <time>2026-09-01T19:51:58Z</time>
  <course>270.0</course>
  <speed>0.0</speed>
  <fix>3d</fix>
</trkpt>
<trkpt lat="-27.2744391" lon="151.2900641">
  <ele>343.03</ele>
  <time>2026-09-01T19:51:58Z</time>
  <course>10.71</course>
  <speed>0.022360679774997897</speed>
  <fix>3d</fix>
</trkpt>
<trkpt lat="-27.274439" lon="151.290064">
  <ele>343.1</ele>
  <time>2026-09-01T19:51:58Z</time>
  <course>270.0</course>
  <speed>0.0</speed>
  <fix>3d</fix>
</trkpt>
<trkpt lat="-27.2744391" lon="151.2900641">
  <ele>343.03</ele>
  <time>2026-09-01T19:51:58Z</time>
  <course>10.71</course>
  <speed>0.022360679774997897</speed>
  <fix>3d</fix>
</trkpt>
<trkpt lat="-27.274439" lon="151.290064">
  <ele>343.1</ele>
  <time>2026-09-01T19:51:58Z</time>
  <course>270.0</course>
  <speed>0.0</speed>
  <fix>3d</fix>
</trkpt>
<trkpt lat="-27.2744391" lon="151.2900641">
  <ele>343.03</ele>
  <time>2026-09-01T19:51:58Z</time>
  <course>10.71</course>
  <speed>0.022360679774997897</speed>
  <fix>3d</fix>
</trkpt>
<trkpt lat="-27.274439" lon="151.290064">
  <ele>343.1</ele>
  <time>2026-09-01T19:51:58Z</time>
  <course>270.0</course>
  <speed>0.0</speed>
  <fix>3d</fix>
</trkpt>
<trkpt lat="-27.2744391" lon="151.2900641">
  <ele>343.03</ele>
  <time>2026-09-01T19:51:58Z</time>
  <course>10.71</course>
  <speed>0.022360679774997897</speed>
  <fix>3d</fix>
</trkpt>
<trkpt lat="-27.274439" lon="151.290064">
  <ele>343.1</ele>
  <time>2026-09-01T19:51:58Z</time>
  <course>270.0</course>
  <speed>0.0</speed>
  <fix>3d</fix>
</trkpt>
<trkpt lat="-27.2744391" lon="151.2900641">
  <ele>343.03</ele>
  <time>2026-09-01T19:51:58Z</time>
  <course>10.71</course>
  <speed>0.022360679774997897</speed>
  <fix>3d</fix>
</trkpt>
<trkpt lat="-27.274439" lon="151.290064">
  <ele>343.1</ele>
  <time>2026-09-01T19:51:58Z</time>
  <course>270.0</course>
  <speed>0.0</speed>
  <fix>3d</fix>
</trkpt>
<trkpt lat="-27.2744391" lon="151.2900641">
  <ele>343.03</ele>
  <time>2026-09-01T19:51:58Z</time>
  <course>10.71</course>
  <speed>0.022360679774997897</speed>
  <fix>3d</fix>
</trkpt>
<trkpt lat="-27.274439" lon="151.290064">
  <ele>343.1</ele>
  <time>2026-09-01T19:51:58Z</time>
  <course>270.0</course>
  <speed>0.0</speed>
  <fix>3d</fix>
</trkpt>
<trkpt lat="-27.2744391" lon="151.2900641">
  <ele>343.03</ele>
  <time>2026-09-01T19:51:58Z</time>
  <course>10.71</course>
  <speed>0.022360679774997897</speed>
  <fix>3d</fix>
</trkpt>
<trkpt lat="-27.274439" lon="151.290064">
  <ele>343.1</ele>
  <time>2026-09-01T19:51:58Z</time>
  <course>270.0</course>
  <speed>0.0</speed>
  <fix>3d</fix>
</trkpt>
<trkpt lat="-27.2744391" lon="151.2900641">
  <ele>343.03</ele>
  <time>2026-09-01T19:51:58Z</time>
  <course>10.71</course>
  <speed>0.022360679774997897</speed>
  <fix>3d</fix>
</trkpt>
<trkpt lat="-27.274439" lon="151.290064">
  <ele>343.1</ele>
  <time>2026-09-01T19:51:58Z</time>
  <course>270.0</course>
  <speed>0.0</speed>
  <fix>3d</fix>
</trkpt>
<trkpt lat="-27.2744391" lon="151.2900641">
  <ele>343.03</ele>
  <time>2026-09-01T19:51:58Z</time>
  <course>10.71</course>
  <speed>0.022360679774997897</speed>
  <fix>3d</fix>
</trkpt>
<trkpt lat="-27.274439" lon="151.290064">
  <ele>343.1</ele>
  <time>2026-09-01T19:51:58Z</time>
  <course>270.0</course>
  <speed>0.0</speed>
  <fix>3d</fix>
</trkpt>
<trkpt lat="-27.2744391" lon="151.2900641">
  <ele>343.03</ele>
  <time>2026-09-01T19:51:58Z</time>
  <course>10.71</course>
  <speed>0.022360679774997897</speed>
  <fix>3d</fix>
</trkpt>
<trkpt lat="-27.274439" lon="151.290064">
  <ele>343.1</ele>
  <time>2026-09-01T19:51:58Z</time>
  <course>270.0</course>
  <speed>0.0</speed>
  <fix>3d</fix>
</trkpt>
<trkpt lat="-27.2744391" lon="151.2900641">
  <ele>343.03</ele>
  <time>2026-09-01T19:51:58Z</time>
  <course>10.71</course>
  <speed>0.022360679774997897</speed>
  <fix>3d</fix>
</trkpt>
<trkpt lat="-27.274439" lon="151.290064">
  <ele>343.1</ele>
  <time>2026-09-01T19:51:58Z</time>
  <course>270.0</course>
  <speed>0.0</speed>
  <fix>3d</fix>
</trkpt>
<trkpt lat="-27.2744391" lon="151.2900641">
  <ele>343.03</ele>
  <time>2026-09-01T19:51:58Z</time>
  <course>10.72</course>
  <speed>0.022360679774997897</speed>
  <fix>3d</fix>
</trkpt>
<trkpt lat="-27.274439" lon="151.290064">
  <ele>343.1</ele>
  <time>2026-09-01T19:51:58Z</time>
  <course>270.0</course>
  <speed>0.0</speed>
  <fix>3d</fix>
</trkpt>
<trkpt lat="-27.2744391" lon="151.2900641">
  <ele>343.09</ele>
  <time>2026-09-01T19:51:58Z</time>
  <course>10.72</course>
  <speed>0.022360679774997897</speed>
  <fix>3d</fix>
</trkpt>
<trkpt lat="-27.274439" lon="151.290064">
  <ele>343.1</ele>
  <time>2026-09-01T19:51:58Z</time>
  <course>270.0</course>
  <speed>0.0</speed>
  <fix>3d</fix>
</trkpt>
<trkpt lat="-27.2744391" lon="151.2900641">
  <ele>343.09</ele>
  <time>2026-09-01T19:51:58Z</time>
  <course>10.72</course>
  <speed>0.022360679774997897</speed>
  <fix>3d</fix>
</trkpt>
<trkpt lat="-27.274439" lon="151.290064">
  <ele>343.1</ele>
  <time>2026-09-01T19:51:58Z</time>
  <course>270.0</course>
  <speed>0.0</speed>
  <fix>3d</fix>
</trkpt>
<trkpt lat="-27.2744391" lon="151.2900641">
  <ele>343.09</ele>
  <time>2026-09-01T19:51:58Z</time>
  <course>10.72</course>
  <speed>0.022360679774997897</speed>
  <fix>3d</fix>
</trkpt>
<trkpt lat="-27.274439" lon="151.290064">
  <ele>343.1</ele>
  <time>2026-09-01T19:51:58Z</time>
  <course>270.0</course>
  <speed>0.0</speed>
  <fix>3d</fix>
</trkpt>
<trkpt lat="-27.2744391" lon="151.2900641">
  <ele>343.09</ele>
  <time>2026-09-01T19:51:58Z</time>
  <course>10.72</course>
  <speed>0.022360679774997897</speed>
  <fix>3d</fix>
</trkpt>
<trkpt lat="-27.274439" lon="151.290064">
  <ele>343.1</ele>
  <time>2026-09-01T19:51:58Z</time>
  <course>270.0</course>
  <speed>0.0</speed>
  <fix>3d</fix>
</trkpt>
<trkpt lat="-27.2744391" lon="151.2900641">
  <ele>343.1</ele>
  <time>2026-09-01T19:51:58Z</time>
  <course>10.72</course>
  <speed>0.022360679774997897</speed>
  <fix>3d</fix>
</trkpt>
<trkpt lat="-27.274439" lon="151.290064">
  <ele>343.1</ele>
  <time>2026-09-01T19:51:58Z</time>
  <course>270.0</course>
  <speed>0.0</speed>
  <fix>3d</fix>
</trkpt>
<trkpt lat="-27.2744391" lon="151.2900641">
  <ele>343.1</ele>
  <time>2026-09-01T19:51:59Z</time>
  <course>10.72</course>
  <speed>0.022360679774997897</speed>
  <fix>3d</fix>
</trkpt>
<trkpt lat="-27.274439" lon="151.290064">
  <ele>343.1</ele>
  <time>2026-09-01T19:51:59Z</time>
  <course>270.0</course>
  <speed>0.0</speed>
  <fix>3d</fix>
</trkpt>
<trkpt lat="-27.2744391" lon="151.2900641">
  <ele>343.1</ele>
  <time>2026-09-01T19:51:59Z</time>
  <course>10.72</course>
  <speed>0.022360679774997897</speed>
  <fix>3d</fix>
</trkpt>
<trkpt lat="-27.274439" lon="151.290064">
  <ele>343.1</ele>
  <time>2026-09-01T19:51:59Z</time>
  <course>270.0</course>
  <speed>0.0</speed>
  <fix>3d</fix>
</trkpt>
<trkpt lat="-27.2744391" lon="151.2900641">
  <ele>343.1</ele>
  <time>2026-09-01T19:51:59Z</time>
  <course>10.72</course>
  <speed>0.022360679774997897</speed>
  <fix>3d</fix>
</trkpt>
<trkpt lat="-27.274439" lon="151.290064">
  <ele>343.1</ele>
  <time>2026-09-01T19:51:59Z</time>
  <course>270.0</course>
  <speed>0.0</speed>
  <fix>3d</fix>
</trkpt>
<trkpt lat="-27.2744391" lon="151.2900641">
  <ele>343.1</ele>
  <time>2026-09-01T19:51:59Z</time>
  <course>10.72</course>
  <speed>0.022360679774997897</speed>
  <fix>3d</fix>
</trkpt>
<trkpt lat="-27.274439" lon="151.290064">
  <ele>343.1</ele>
  <time>2026-09-01T19:51:59Z</time>
  <course>270.0</course>
  <speed>0.0</speed>
  <fix>3d</fix>
</trkpt>
<trkpt lat="-27.2744391" lon="151.2900641">
  <ele>343.1</ele>
  <time>2026-09-01T19:51:59Z</time>
  <course>10.72</course>
  <speed>0.022360679774997897</speed>
  <fix>3d</fix>
</trkpt>
<trkpt lat="-27.274439" lon="151.290064">
  <ele>343.1</ele>
  <time>2026-09-01T19:51:59Z</time>
  <course>270.0</course>
  <speed>0.0</speed>
  <fix>3d</fix>
</trkpt>
<trkpt lat="-27.2744391" lon="151.2900641">
  <ele>343.1</ele>
  <time>2026-09-01T19:51:59Z</time>
  <course>10.72</course>
  <speed>0.022360679774997897</speed>
  <fix>3d</fix>
</trkpt>
<trkpt lat="-27.274439" lon="151.290064">
  <ele>343.1</ele>
  <time>2026-09-01T19:51:59Z</time>
  <course>270.0</course>
  <speed>0.0</speed>
  <fix>3d</fix>
</trkpt>
<trkpt lat="-27.2744391" lon="151.2900641">
  <ele>343.1</ele>
  <time>2026-09-01T19:51:59Z</time>
  <course>10.72</course>
  <speed>0.022360679774997897</speed>
  <fix>3d</fix>
</trkpt>
<trkpt lat="-27.274439" lon="151.290064">
  <ele>343.1</ele>
  <time>2026-09-01T19:51:59Z</time>
  <course>270.0</course>
  <speed>0.0</speed>
  <fix>3d</fix>
</trkpt>
<trkpt lat="-27.2744391" lon="151.2900641">
  <ele>343.1</ele>
  <time>2026-09-01T19:51:59Z</time>
  <course>10.72</course>
  <speed>0.022360679774997897</speed>
  <fix>3d</fix>
</trkpt>
<trkpt lat="-27.274439" lon="151.290064">
  <ele>343.1</ele>
  <time>2026-09-01T19:51:59Z</time>
  <course>270.0</course>
  <speed>0.0</speed>
  <fix>3d</fix>
</trkpt>
<trkpt lat="-27.2744391" lon="151.2900641">
  <ele>343.1</ele>
  <time>2026-09-01T19:51:59Z</time>
  <course>10.72</course>
  <speed>0.022360679774997897</speed>
  <fix>3d</fix>
</trkpt>
<trkpt lat="-27.274439" lon="151.290064">
  <ele>343.1</ele>
  <time>2026-09-01T19:51:59Z</time>
  <course>270.0</course>
  <speed>0.0</speed>
  <fix>3d</fix>
</trkpt>
<trkpt lat="-27.2744391" lon="151.2900641">
  <ele>343.1</ele>
  <time>2026-09-01T19:51:59Z</time>
  <course>10.72</course>
  <speed>0.022360679774997897</speed>
  <fix>3d</fix>
</trkpt>
<trkpt lat="-27.274439" lon="151.290064">
  <ele>343.1</ele>
  <time>2026-09-01T19:51:59Z</time>
  <course>270.0</course>
  <speed>0.0</speed>
  <fix>3d</fix>
</trkpt>
<trkpt lat="-27.2744391" lon="151.2900641">
  <ele>343.1</ele>
  <time>2026-09-01T19:51:59Z</time>
  <course>10.72</course>
  <speed>0.022360679774997897</speed>
  <fix>3d</fix>
</trkpt>
<trkpt lat="-27.274439" lon="151.290064">
  <ele>343.1</ele>
  <time>2026-09-01T19:51:59Z</time>
  <course>270.0</course>
  <speed>0.0</speed>
  <fix>3d</fix>
</trkpt>
<trkpt lat="-27.2744391" lon="151.2900641">
  <ele>343.1</ele>
  <time>2026-09-01T19:51:59Z</time>
  <course>10.72</course>
  <speed>0.022360679774997897</speed>
  <fix>3d</fix>
</trkpt>
<trkpt lat="-27.274439" lon="151.290064">
  <ele>343.1</ele>
  <time>2026-09-01T19:51:59Z</time>
  <course>270.0</course>
  <speed>0.0</speed>
  <fix>3d</fix>
</trkpt>
<trkpt lat="-27.2744391" lon="151.2900641">
  <ele>343.1</ele>
  <time>2026-09-01T19:51:59Z</time>
  <course>10.72</course>
  <speed>0.022360679774997897</speed>
  <fix>3d</fix>
</trkpt>
<trkpt lat="-27.274439" lon="151.290064">
  <ele>343.1</ele>
  <time>2026-09-01T19:51:59Z</time>
  <course>270.0</course>
  <speed>0.0</speed>
  <fix>3d</fix>
</trkpt>
<trkpt lat="-27.2744391" lon="151.2900641">
  <ele>343.1</ele>
  <time>2026-09-01T19:51:59Z</time>
  <course>10.72</course>
  <speed>0.022360679774997897</speed>
  <fix>3d</fix>
</trkpt>
<trkpt lat="-27.274439" lon="151.290064">
  <ele>343.1</ele>
  <time>2026-09-01T19:51:59Z</time>
  <course>270.0</course>
  <speed>0.0</speed>
  <fix>3d</fix>
</trkpt>
<trkpt lat="-27.2744391" lon="151.2900641">
  <ele>343.1</ele>
  <time>2026-09-01T19:51:59Z</time>
  <course>10.72</course>
  <speed>0.022360679774997897</speed>
  <fix>3d</fix>
</trkpt>
<trkpt lat="-27.274439" lon="151.290064">
  <ele>343.1</ele>
  <time>2026-09-01T19:51:59Z</time>
  <course>270.0</course>
  <speed>0.0</speed>
  <fix>3d</fix>
</trkpt>
<trkpt lat="-27.2744391" lon="151.2900641">
  <ele>343.1</ele>
  <time>2026-09-01T19:51:59Z</time>
  <course>10.72</course>
  <speed>0.022360679774997897</speed>
  <fix>3d</fix>
</trkpt>
<trkpt lat="-27.274439" lon="151.290064">
  <ele>343.1</ele>
  <time>2026-09-01T19:51:59Z</time>
  <course>270.0</course>
  <speed>0.0</speed>
  <fix>3d</fix>
</trkpt>
<trkpt lat="-27.2744391" lon="151.2900641">
  <ele>343.11</ele>
  <time>2026-09-01T19:51:59Z</time>
  <course>10.72</course>
  <speed>0.022360679774997897</speed>
  <fix>3d</fix>
</trkpt>
<trkpt lat="-27.274439" lon="151.290064">
  <ele>343.1</ele>
  <time>2026-09-01T19:51:59Z</time>
  <course>270.0</course>
  <speed>0.0</speed>
  <fix>3d</fix>
</trkpt>
<trkpt lat="-27.2744391" lon="151.2900641">
  <ele>343.11</ele>
  <time>2026-09-01T19:51:59Z</time>
  <course>10.72</course>
  <speed>0.022360679774997897</speed>
  <fix>3d</fix>
</trkpt>
<trkpt lat="-27.274439" lon="151.290064">
  <ele>343.1</ele>
  <time>2026-09-01T19:51:59Z</time>
  <course>270.0</course>
  <speed>0.0</speed>
  <fix>3d</fix>
</trkpt>
<trkpt lat="-27.2744391" lon="151.2900641">
  <ele>343.11</ele>
  <time>2026-09-01T19:51:59Z</time>
  <course>10.72</course>
  <speed>0.022360679774997897</speed>
  <fix>3d</fix>
</trkpt>
<trkpt lat="-27.274439" lon="151.290064">
  <ele>343.1</ele>
  <time>2026-09-01T19:51:59Z</time>
  <course>270.0</course>
  <speed>0.0</speed>
  <fix>3d</fix>
</trkpt>
<trkpt lat="-27.2744391" lon="151.2900641">
  <ele>343.11</ele>
  <time>2026-09-01T19:51:59Z</time>
  <course>10.73</course>
  <speed>0.022360679774997897</speed>
  <fix>3d</fix>
</trkpt>
<trkpt lat="-27.274439" lon="151.290064">
  <ele>343.1</ele>
  <time>2026-09-01T19:51:59Z</time>
  <course>270.0</course>
  <speed>0.0</speed>
  <fix>3d</fix>
</trkpt>
<trkpt lat="-27.2744391" lon="151.2900641">
  <ele>343.11</ele>
  <time>2026-09-01T19:51:59Z</time>
  <course>10.73</course>
  <speed>0.022360679774997897</speed>
  <fix>3d</fix>
</trkpt>
<trkpt lat="-27.274439" lon="151.290064">
  <ele>343.1</ele>
  <time>2026-09-01T19:51:59Z</time>
  <course>270.0</course>
  <speed>0.0</speed>
  <fix>3d</fix>
</trkpt>
<trkpt lat="-27.2744391" lon="151.2900641">
  <ele>343.11</ele>
  <time>2026-09-01T19:51:59Z</time>
  <course>10.73</course>
  <speed>0.022360679774997897</speed>
  <fix>3d</fix>
</trkpt>
<trkpt lat="-27.274439" lon="151.290064">
  <ele>343.1</ele>
  <time>2026-09-01T19:51:59Z</time>
  <course>270.0</course>
  <speed>0.0</speed>
  <fix>3d</fix>
</trkpt>
<trkpt lat="-27.2744391" lon="151.2900641">
  <ele>343.11</ele>
  <time>2026-09-01T19:51:59Z</time>
  <course>10.73</course>
  <speed>0.022360679774997897</speed>
  <fix>3d</fix>
</trkpt>
<trkpt lat="-27.274439" lon="151.290064">
  <ele>343.1</ele>
  <time>2026-09-01T19:51:59Z</time>
  <course>270.0</course>
  <speed>0.0</speed>
  <fix>3d</fix>
</trkpt>
<trkpt lat="-27.2744391" lon="151.2900641">
  <ele>343.11</ele>
  <time>2026-09-01T19:51:59Z</time>
  <course>10.73</course>
  <speed>0.022360679774997897</speed>
  <fix>3d</fix>
</trkpt>
<trkpt lat="-27.274439" lon="151.290064">
  <ele>343.1</ele>
  <time>2026-09-01T19:51:59Z</time>
  <course>270.0</course>
  <speed>0.0</speed>
  <fix>3d</fix>
</trkpt>
<trkpt lat="-27.2744391" lon="151.2900641">
  <ele>343.11</ele>
  <time>2026-09-01T19:51:59Z</time>
  <course>10.73</course>
  <speed>0.022360679774997897</speed>
  <fix>3d</fix>
</trkpt>
<trkpt lat="-27.274439" lon="151.290064">
  <ele>343.1</ele>
  <time>2026-09-01T19:51:59Z</time>
  <course>270.0</course>
  <speed>0.0</speed>
  <fix>3d</fix>
</trkpt>
<trkpt lat="-27.2744391" lon="151.2900641">
  <ele>343.12</ele>
  <time>2026-09-01T19:51:59Z</time>
  <course>10.73</course>
  <speed>0.022360679774997897</speed>
  <fix>3d</fix>
</trkpt>
<trkpt lat="-27.274439" lon="151.290064">
  <ele>343.1</ele>
  <time>2026-09-01T19:51:59Z</time>
  <course>270.0</course>
  <speed>0.0</speed>
  <fix>3d</fix>
</trkpt>
<trkpt lat="-27.2744391" lon="151.2900641">
  <ele>343.12</ele>
  <time>2026-09-01T19:51:59Z</time>
  <course>10.73</course>
  <speed>0.022360679774997897</speed>
  <fix>3d</fix>
</trkpt>
<trkpt lat="-27.274439" lon="151.290064">
  <ele>343.1</ele>
  <time>2026-09-01T19:51:59Z</time>
  <course>270.0</course>
  <speed>0.0</speed>
  <fix>3d</fix>
</trkpt>
<trkpt lat="-27.2744391" lon="151.2900641">
  <ele>343.12</ele>
  <time>2026-09-01T19:51:59Z</time>
  <course>10.73</course>
  <speed>0.022360679774997897</speed>
  <fix>3d</fix>
</trkpt>
<trkpt lat="-27.274439" lon="151.290064">
  <ele>343.1</ele>
  <time>2026-09-01T19:51:59Z</time>
  <course>270.0</course>
  <speed>0.0</speed>
  <fix>3d</fix>
</trkpt>
<trkpt lat="-27.2744391" lon="151.2900641">
  <ele>343.12</ele>
  <time>2026-09-01T19:51:59Z</time>
  <course>10.73</course>
  <speed>0.022360679774997897</speed>
  <fix>3d</fix>
</trkpt>
<trkpt lat="-27.274439" lon="151.290064">
  <ele>343.1</ele>
  <time>2026-09-01T19:51:59Z</time>
  <course>270.0</course>
  <speed>0.0</speed>
  <fix>3d</fix>
</trkpt>
<trkpt lat="-27.2744391" lon="151.2900641">
  <ele>343.12</ele>
  <time>2026-09-01T19:51:59Z</time>
  <course>10.73</course>
  <speed>0.022360679774997897</speed>
  <fix>3d</fix>
</trkpt>
<trkpt lat="-27.274439" lon="151.290064">
  <ele>343.1</ele>
  <time>2026-09-01T19:51:59Z</time>
  <course>270.0</course>
  <speed>0.0</speed>
  <fix>3d</fix>
</trkpt>
<trkpt lat="-27.2744391" lon="151.2900641">
  <ele>343.12</ele>
  <time>2026-09-01T19:51:59Z</time>
  <course>10.73</course>
  <speed>0.022360679774997897</speed>
  <fix>3d</fix>
</trkpt>
<trkpt lat="-27.274439" lon="151.290064">
  <ele>343.1</ele>
  <time>2026-09-01T19:51:59Z</time>
  <course>270.0</course>
  <speed>0.0</speed>
  <fix>3d</fix>
</trkpt>
<trkpt lat="-27.2744391" lon="151.2900641">
  <ele>343.12</ele>
  <time>2026-09-01T19:51:59Z</time>
  <course>10.73</course>
  <speed>0.022360679774997897</speed>
  <fix>3d</fix>
</trkpt>
<trkpt lat="-27.274439" lon="151.290064">
  <ele>343.1</ele>
  <time>2026-09-01T19:51:59Z</time>
  <course>270.0</course>
  <speed>0.0</speed>
  <fix>3d</fix>
</trkpt>
<trkpt lat="-27.2744391" lon="151.2900641">
  <ele>343.12</ele>
  <time>2026-09-01T19:51:59Z</time>
  <course>10.73</course>
  <speed>0.022360679774997897</speed>
  <fix>3d</fix>
</trkpt>
<trkpt lat="-27.274439" lon="151.290064">
  <ele>343.1</ele>
  <time>2026-09-01T19:51:59Z</time>
  <course>270.0</course>
  <speed>0.0</speed>
  <fix>3d</fix>
</trkpt>
<trkpt lat="-27.2744391" lon="151.2900641">
  <ele>343.12</ele>
  <time>2026-09-01T19:51:59Z</time>
  <course>10.73</course>
  <speed>0.022360679774997897</speed>
  <fix>3d</fix>
</trkpt>
<trkpt lat="-27.274439" lon="151.290064">
  <ele>343.1</ele>
  <time>2026-09-01T19:51:59Z</time>
  <course>270.0</course>
  <speed>0.0</speed>
  <fix>3d</fix>
</trkpt>
<trkpt lat="-27.2744391" lon="151.2900641">
  <ele>343.12</ele>
  <time>2026-09-01T19:51:59Z</time>
  <course>10.73</course>
  <speed>0.022360679774997897</speed>
  <fix>3d</fix>
</trkpt>
<trkpt lat="-27.274439" lon="151.290064">
  <ele>343.1</ele>
  <time>2026-09-01T19:51:59Z</time>
  <course>270.0</course>
  <speed>0.0</speed>
  <fix>3d</fix>
</trkpt>
<trkpt lat="-27.2744391" lon="151.2900641">
  <ele>343.12</ele>
  <time>2026-09-01T19:51:59Z</time>
  <course>10.73</course>
  <speed>0.022360679774997897</speed>
  <fix>3d</fix>
</trkpt>
<trkpt lat="-27.274439" lon="151.290064">
  <ele>343.1</ele>
  <time>2026-09-01T19:51:59Z</time>
  <course>270.0</course>
  <speed>0.0</speed>
  <fix>3d</fix>
</trkpt>
<trkpt lat="-27.2744391" lon="151.2900641">
  <ele>343.12</ele>
  <time>2026-09-01T19:51:59Z</time>
  <course>10.73</course>
  <speed>0.022360679774997897</speed>
  <fix>3d</fix>
</trkpt>
<trkpt lat="-27.274439" lon="151.290064">
  <ele>343.1</ele>
  <time>2026-09-01T19:51:59Z</time>
  <course>270.0</course>
  <speed>0.0</speed>
  <fix>3d</fix>
</trkpt>
<trkpt lat="-27.2744391" lon="151.2900641">
  <ele>343.12</ele>
  <time>2026-09-01T19:51:59Z</time>
  <course>10.73</course>
  <speed>0.022360679774997897</speed>
  <fix>3d</fix>
</trkpt>
<trkpt lat="-27.274439" lon="151.290064">
  <ele>343.1</ele>
  <time>2026-09-01T19:51:59Z</time>
  <course>270.0</course>
  <speed>0.0</speed>
  <fix>3d</fix>
</trkpt>
<trkpt lat="-27.2744391" lon="151.2900641">
  <ele>343.13</ele>
  <time>2026-09-01T19:51:59Z</time>
  <course>10.73</course>
  <speed>0.022360679774997897</speed>
  <fix>3d</fix>
</trkpt>
<trkpt lat="-27.274439" lon="151.290064">
  <ele>343.1</ele>
  <time>2026-09-01T19:51:59Z</time>
  <course>270.0</course>
  <speed>0.0</speed>
  <fix>3d</fix>
</trkpt>
<trkpt lat="-27.2744391" lon="151.2900641">
  <ele>343.13</ele>
  <time>2026-09-01T19:51:59Z</time>
  <course>10.73</course>
  <speed>0.022360679774997897</speed>
  <fix>3d</fix>
</trkpt>
<trkpt lat="-27.274439" lon="151.290064">
  <ele>343.1</ele>
  <time>2026-09-01T19:51:59Z</time>
  <course>270.0</course>
  <speed>0.0</speed>
  <fix>3d</fix>
</trkpt>
<trkpt lat="-27.2744391" lon="151.2900641">
  <ele>343.13</ele>
  <time>2026-09-01T19:51:59Z</time>
  <course>10.73</course>
  <speed>0.022360679774997897</speed>
  <fix>3d</fix>
</trkpt>
<trkpt lat="-27.274439" lon="151.290064">
  <ele>343.1</ele>
  <time>2026-09-01T19:51:59Z</time>
  <course>270.0</course>
  <speed>0.0</speed>
  <fix>3d</fix>
</trkpt>
<trkpt lat="-27.2744391" lon="151.2900641">
  <ele>343.13</ele>
  <time>2026-09-01T19:51:59Z</time>
  <course>10.74</course>
  <speed>0.022360679774997897</speed>
  <fix>3d</fix>
</trkpt>
<trkpt lat="-27.274439" lon="151.290064">
  <ele>343.1</ele>
  <time>2026-09-01T19:51:59Z</time>
  <course>270.0</course>
  <speed>0.0</speed>
  <fix>3d</fix>
</trkpt>
<trkpt lat="-27.2744391" lon="151.2900641">
  <ele>343.13</ele>
  <time>2026-09-01T19:51:59Z</time>
  <course>10.74</course>
  <speed>0.022360679774997897</speed>
  <fix>3d</fix>
</trkpt>
<trkpt lat="-27.274439" lon="151.290064">
  <ele>343.1</ele>
  <time>2026-09-01T19:51:59Z</time>
  <course>270.0</course>
  <speed>0.0</speed>
  <fix>3d</fix>
</trkpt>
<trkpt lat="-27.2744391" lon="151.2900641">
  <ele>343.12</ele>
  <time>2026-09-01T19:51:59Z</time>
  <course>10.74</course>
  <speed>0.022360679774997897</speed>
  <fix>3d</fix>
</trkpt>
<trkpt lat="-27.274439" lon="151.290064">
  <ele>343.1</ele>
  <time>2026-09-01T19:51:59Z</time>
  <course>270.0</course>
  <speed>0.0</speed>
  <fix>3d</fix>
</trkpt>
<trkpt lat="-27.2744391" lon="151.2900641">
  <ele>343.13</ele>
  <time>2026-09-01T19:51:59Z</time>
  <course>10.74</course>
  <speed>0.022360679774997897</speed>
  <fix>3d</fix>
</trkpt>
<trkpt lat="-27.274439" lon="151.290064">
  <ele>343.1</ele>
  <time>2026-09-01T19:51:59Z</time>
  <course>270.0</course>
  <speed>0.0</speed>
  <fix>3d</fix>
</trkpt>
<trkpt lat="-27.2744391" lon="151.2900641">
  <ele>343.13</ele>
  <time>2026-09-01T19:51:59Z</time>
  <course>10.74</course>
  <speed>0.022360679774997897</speed>
  <fix>3d</fix>
</trkpt>
<trkpt lat="-27.274439" lon="151.290064">
  <ele>343.1</ele>
  <time>2026-09-01T19:51:59Z</time>
  <course>270.0</course>
  <speed>0.0</speed>
  <fix>3d</fix>
</trkpt>
<trkpt lat="-27.2744391" lon="151.2900641">
  <ele>343.13</ele>
  <time>2026-09-01T19:51:59Z</time>
  <course>10.74</course>
  <speed>0.022360679774997897</speed>
  <fix>3d</fix>
</trkpt>
<trkpt lat="-27.274439" lon="151.290064">
  <ele>343.1</ele>
  <time>2026-09-01T19:51:59Z</time>
  <course>270.0</course>
  <speed>0.0</speed>
  <fix>3d</fix>
</trkpt>
<trkpt lat="-27.2744391" lon="151.2900641">
  <ele>343.13</ele>
  <time>2026-09-01T19:51:59Z</time>
  <course>10.74</course>
  <speed>0.022360679774997897</speed>
  <fix>3d</fix>
</trkpt>
<trkpt lat="-27.274439" lon="151.290064">
  <ele>343.1</ele>
  <time>2026-09-01T19:51:59Z</time>
  <course>270.0</course>
  <speed>0.0</speed>
  <fix>3d</fix>
</trkpt>
<trkpt lat="-27.2744391" lon="151.2900641">
  <ele>343.13</ele>
  <time>2026-09-01T19:51:59Z</time>
  <course>10.74</course>
  <speed>0.022360679774997897</speed>
  <fix>3d</fix>
</trkpt>
<trkpt lat="-27.274439" lon="151.290064">
  <ele>343.1</ele>
  <time>2026-09-01T19:51:59Z</time>
  <course>270.0</course>
  <speed>0.0</speed>
  <fix>3d</fix>
</trkpt>
<trkpt lat="-27.2744391" lon="151.2900641">
  <ele>343.13</ele>
  <time>2026-09-01T19:51:59Z</time>
  <course>10.74</course>
  <speed>0.022360679774997897</speed>
  <fix>3d</fix>
</trkpt>
<trkpt lat="-27.274439" lon="151.290064">
  <ele>343.1</ele>
  <time>2026-09-01T19:51:59Z</time>
  <course>270.0</course>
  <speed>0.0</speed>
  <fix>3d</fix>
</trkpt>
<trkpt lat="-27.2744391" lon="151.2900641">
  <ele>343.13</ele>
  <time>2026-09-01T19:51:59Z</time>
  <course>10.74</course>
  <speed>0.022360679774997897</speed>
  <fix>3d</fix>
</trkpt>
<trkpt lat="-27.274439" lon="151.290064">
  <ele>343.1</ele>
  <time>2026-09-01T19:51:59Z</time>
  <course>270.0</course>
  <speed>0.0</speed>
  <fix>3d</fix>
</trkpt>
<trkpt lat="-27.2744391" lon="151.2900641">
  <ele>343.13</ele>
  <time>2026-09-01T19:51:59Z</time>
  <course>10.74</course>
  <speed>0.022360679774997897</speed>
  <fix>3d</fix>
</trkpt>
<trkpt lat="-27.274439" lon="151.290064">
  <ele>343.1</ele>
  <time>2026-09-01T19:51:59Z</time>
  <course>270.0</course>
  <speed>0.0</speed>
  <fix>3d</fix>
</trkpt>
<trkpt lat="-27.2744391" lon="151.2900641">
  <ele>343.13</ele>
  <time>2026-09-01T19:51:59Z</time>
  <course>10.74</course>
  <speed>0.022360679774997897</speed>
  <fix>3d</fix>
</trkpt>
<trkpt lat="-27.274439" lon="151.290064">
  <ele>343.1</ele>
  <time>2026-09-01T19:51:59Z</time>
  <course>270.0</course>
  <speed>0.0</speed>
  <fix>3d</fix>
</trkpt>
<trkpt lat="-27.2744391" lon="151.2900641">
  <ele>343.14</ele>
  <time>2026-09-01T19:51:59Z</time>
  <course>10.74</course>
  <speed>0.022360679774997897</speed>
  <fix>3d</fix>
</trkpt>
<trkpt lat="-27.274439" lon="151.290064">
  <ele>343.1</ele>
  <time>2026-09-01T19:51:59Z</time>
  <course>270.0</course>
  <speed>0.0</speed>
  <fix>3d</fix>
</trkpt>
<trkpt lat="-27.2744391" lon="151.2900641">
  <ele>343.14</ele>
  <time>2026-09-01T19:51:59Z</time>
  <course>10.74</course>
  <speed>0.022360679774997897</speed>
  <fix>3d</fix>
</trkpt>
<trkpt lat="-27.274439" lon="151.290064">
  <ele>343.1</ele>
  <time>2026-09-01T19:51:59Z</time>
  <course>270.0</course>
  <speed>0.0</speed>
  <fix>3d</fix>
</trkpt>
<trkpt lat="-27.2744391" lon="151.2900641">
  <ele>343.1</ele>
  <time>2026-09-01T19:51:59Z</time>
  <course>10.74</course>
  <speed>0.022360679774997897</speed>
  <fix>3d</fix>
</trkpt>
<trkpt lat="-27.274439" lon="151.290064">
  <ele>343.1</ele>
  <time>2026-09-01T19:51:59Z</time>
  <course>270.0</course>
  <speed>0.0</speed>
  <fix>3d</fix>
</trkpt>
<trkpt lat="-27.2744391" lon="151.2900641">
  <ele>343.1</ele>
  <time>2026-09-01T19:51:59Z</time>
  <course>10.74</course>
  <speed>0.022360679774997897</speed>
  <fix>3d</fix>
</trkpt>
<trkpt lat="-27.274439" lon="151.290064">
  <ele>343.1</ele>
  <time>2026-09-01T19:51:59Z</time>
  <course>270.0</course>
  <speed>0.0</speed>
  <fix>3d</fix>
</trkpt>
<trkpt lat="-27.2744391" lon="151.2900641">
  <ele>343.09</ele>
  <time>2026-09-01T19:51:59Z</time>
  <course>10.74</course>
  <speed>0.022360679774997897</speed>
  <fix>3d</fix>
</trkpt>
<trkpt lat="-27.274439" lon="151.290064">
  <ele>343.1</ele>
  <time>2026-09-01T19:51:59Z</time>
  <course>270.0</course>
  <speed>0.0</speed>
  <fix>3d</fix>
</trkpt>
<trkpt lat="-27.2744391" lon="151.2900641">
  <ele>343.1</ele>
  <time>2026-09-01T19:51:59Z</time>
  <course>10.74</course>
  <speed>0.022360679774997897</speed>
  <fix>3d</fix>
</trkpt>
<trkpt lat="-27.274439" lon="151.290064">
  <ele>343.1</ele>
  <time>2026-09-01T19:51:59Z</time>
  <course>270.0</course>
  <speed>0.0</speed>
  <fix>3d</fix>
</trkpt>
<trkpt lat="-27.2744391" lon="151.2900641">
  <ele>343.09</ele>
  <time>2026-09-01T19:51:59Z</time>
  <course>10.74</course>
  <speed>0.022360679774997897</speed>
  <fix>3d</fix>
</trkpt>
<trkpt lat="-27.274439" lon="151.290064">
  <ele>343.1</ele>
  <time>2026-09-01T19:51:59Z</time>
  <course>270.0</course>
  <speed>0.0</speed>
  <fix>3d</fix>
</trkpt>
<trkpt lat="-27.2744391" lon="151.2900641">
  <ele>343.09</ele>
  <time>2026-09-01T19:51:59Z</time>
  <course>10.74</course>
  <speed>0.022360679774997897</speed>
  <fix>3d</fix>
</trkpt>
<trkpt lat="-27.274439" lon="151.290064">
  <ele>343.1</ele>
  <time>2026-09-01T19:51:59Z</time>
  <course>270.0</course>
  <speed>0.0</speed>
  <fix>3d</fix>
</trkpt>
<trkpt lat="-27.2744391" lon="151.2900641">
  <ele>343.09</ele>
  <time>2026-09-01T19:51:59Z</time>
  <course>10.74</course>
  <speed>0.022360679774997897</speed>
  <fix>3d</fix>
</trkpt>
<trkpt lat="-27.274439" lon="151.290064">
  <ele>343.1</ele>
  <time>2026-09-01T19:51:59Z</time>
  <course>270.0</course>
  <speed>0.0</speed>
  <fix>3d</fix>
</trkpt>
<trkpt lat="-27.2744391" lon="151.2900641">
  <ele>343.09</ele>
  <time>2026-09-01T19:51:59Z</time>
  <course>10.74</course>
  <speed>0.022360679774997897</speed>
  <fix>3d</fix>
</trkpt>
<trkpt lat="-27.274439" lon="151.290064">
  <ele>343.1</ele>
  <time>2026-09-01T19:51:59Z</time>
  <course>270.0</course>
  <speed>0.0</speed>
  <fix>3d</fix>
</trkpt>
<trkpt lat="-27.2744391" lon="151.2900641">
  <ele>343.09</ele>
  <time>2026-09-01T19:51:59Z</time>
  <course>10.75</course>
  <speed>0.022360679774997897</speed>
  <fix>3d</fix>
</trkpt>
<trkpt lat="-27.274439" lon="151.290064">
  <ele>343.1</ele>
  <time>2026-09-01T19:51:59Z</time>
  <course>270.0</course>
  <speed>0.0</speed>
  <fix>3d</fix>
</trkpt>
<trkpt lat="-27.2744391" lon="151.2900641">
  <ele>343.09</ele>
  <time>2026-09-01T19:51:59Z</time>
  <course>10.75</course>
  <speed>0.022360679774997897</speed>
  <fix>3d</fix>
</trkpt>
<trkpt lat="-27.274439" lon="151.290064">
  <ele>343.1</ele>
  <time>2026-09-01T19:51:59Z</time>
  <course>270.0</course>
  <speed>0.0</speed>
  <fix>3d</fix>
</trkpt>
<trkpt lat="-27.2744391" lon="151.2900641">
  <ele>343.08</ele>
  <time>2026-09-01T19:51:59Z</time>
  <course>10.75</course>
  <speed>0.022360679774997897</speed>
  <fix>3d</fix>
</trkpt>
<trkpt lat="-27.274439" lon="151.290064">
  <ele>343.1</ele>
  <time>2026-09-01T19:51:59Z</time>
  <course>270.0</course>
  <speed>0.0</speed>
  <fix>3d</fix>
</trkpt>
<trkpt lat="-27.2744391" lon="151.2900641">
  <ele>343.08</ele>
  <time>2026-09-01T19:51:59Z</time>
  <course>10.75</course>
  <speed>0.022360679774997897</speed>
  <fix>3d</fix>
</trkpt>
<trkpt lat="-27.274439" lon="151.290064">
  <ele>343.1</ele>
  <time>2026-09-01T19:51:59Z</time>
  <course>270.0</course>
  <speed>0.0</speed>
  <fix>3d</fix>
</trkpt>
<trkpt lat="-27.2744391" lon="151.2900641">
  <ele>343.08</ele>
  <time>2026-09-01T19:51:59Z</time>
  <course>10.75</course>
  <speed>0.022360679774997897</speed>
  <fix>3d</fix>
</trkpt>
<trkpt lat="-27.274439" lon="151.290064">
  <ele>343.1</ele>
  <time>2026-09-01T19:51:59Z</time>
  <course>270.0</course>
  <speed>0.0</speed>
  <fix>3d</fix>
</trkpt>
<trkpt lat="-27.2744391" lon="151.2900641">
  <ele>343.08</ele>
  <time>2026-09-01T19:51:59Z</time>
  <course>10.75</course>
  <speed>0.022360679774997897</speed>
  <fix>3d</fix>
</trkpt>
<trkpt lat="-27.274439" lon="151.290064">
  <ele>343.1</ele>
  <time>2026-09-01T19:51:59Z</time>
  <course>270.0</course>
  <speed>0.0</speed>
  <fix>3d</fix>
</trkpt>
<trkpt lat="-27.2744391" lon="151.2900641">
  <ele>343.07</ele>
  <time>2026-09-01T19:51:59Z</time>
  <course>10.75</course>
  <speed>0.022360679774997897</speed>
  <fix>3d</fix>
</trkpt>
<trkpt lat="-27.274439" lon="151.290064">
  <ele>343.1</ele>
  <time>2026-09-01T19:51:59Z</time>
  <course>270.0</course>
  <speed>0.0</speed>
  <fix>3d</fix>
</trkpt>
<trkpt lat="-27.2744391" lon="151.2900641">
  <ele>343.07</ele>
  <time>2026-09-01T19:51:59Z</time>
  <course>10.75</course>
  <speed>0.022360679774997897</speed>
  <fix>3d</fix>
</trkpt>
<trkpt lat="-27.274439" lon="151.290064">
  <ele>343.1</ele>
  <time>2026-09-01T19:51:59Z</time>
  <course>270.0</course>
  <speed>0.0</speed>
  <fix>3d</fix>
</trkpt>
<trkpt lat="-27.2744391" lon="151.2900641">
  <ele>343.07</ele>
  <time>2026-09-01T19:51:59Z</time>
  <course>10.75</course>
  <speed>0.022360679774997897</speed>
  <fix>3d</fix>
</trkpt>
<trkpt lat="-27.274439" lon="151.290064">
  <ele>343.1</ele>
  <time>2026-09-01T19:51:59Z</time>
  <course>270.0</course>
  <speed>0.0</speed>
  <fix>3d</fix>
</trkpt>
<trkpt lat="-27.2744391" lon="151.2900641">
  <ele>343.07</ele>
  <time>2026-09-01T19:51:59Z</time>
  <course>10.75</course>
  <speed>0.022360679774997897</speed>
  <fix>3d</fix>
</trkpt>
<trkpt lat="-27.274439" lon="151.290064">
  <ele>343.1</ele>
  <time>2026-09-01T19:51:59Z</time>
  <course>270.0</course>
  <speed>0.0</speed>
  <fix>3d</fix>
</trkpt>
<trkpt lat="-27.2744391" lon="151.2900641">
  <ele>343.07</ele>
  <time>2026-09-01T19:51:59Z</time>
  <course>10.75</course>
  <speed>0.022360679774997897</speed>
  <fix>3d</fix>
</trkpt>
<trkpt lat="-27.274439" lon="151.290064">
  <ele>343.1</ele>
  <time>2026-09-01T19:51:59Z</time>
  <course>270.0</course>
  <speed>0.0</speed>
  <fix>3d</fix>
</trkpt>
<trkpt lat="-27.2744391" lon="151.2900641">
  <ele>343.07</ele>
  <time>2026-09-01T19:51:59Z</time>
  <course>10.75</course>
  <speed>0.022360679774997897</speed>
  <fix>3d</fix>
</trkpt>
<trkpt lat="-27.274439" lon="151.290064">
  <ele>343.1</ele>
  <time>2026-09-01T19:51:59Z</time>
  <course>270.0</course>
  <speed>0.0</speed>
  <fix>3d</fix>
</trkpt>
<trkpt lat="-27.2744391" lon="151.2900641">
  <ele>343.08</ele>
  <time>2026-09-01T19:51:59Z</time>
  <course>10.75</course>
  <speed>0.022360679774997897</speed>
  <fix>3d</fix>
</trkpt>
<trkpt lat="-27.274439" lon="151.290064">
  <ele>343.1</ele>
  <time>2026-09-01T19:51:59Z</time>
  <course>270.0</course>
  <speed>0.0</speed>
  <fix>3d</fix>
</trkpt>
<trkpt lat="-27.2744391" lon="151.2900641">
  <ele>343.08</ele>
  <time>2026-09-01T19:51:59Z</time>
  <course>10.75</course>
  <speed>0.022360679774997897</speed>
  <fix>3d</fix>
</trkpt>
<trkpt lat="-27.274439" lon="151.290064">
  <ele>343.1</ele>
  <time>2026-09-01T19:51:59Z</time>
  <course>270.0</course>
  <speed>0.0</speed>
  <fix>3d</fix>
</trkpt>
<trkpt lat="-27.2744391" lon="151.2900641">
  <ele>343.08</ele>
  <time>2026-09-01T19:51:59Z</time>
  <course>10.75</course>
  <speed>0.022360679774997897</speed>
  <fix>3d</fix>
</trkpt>
<trkpt lat="-27.274439" lon="151.290064">
  <ele>343.1</ele>
  <time>2026-09-01T19:51:59Z</time>
  <course>270.0</course>
  <speed>0.0</speed>
  <fix>3d</fix>
</trkpt>
<trkpt lat="-27.2744391" lon="151.2900641">
  <ele>343.08</ele>
  <time>2026-09-01T19:51:59Z</time>
  <course>10.75</course>
  <speed>0.022360679774997897</speed>
  <fix>3d</fix>
</trkpt>
<trkpt lat="-27.274439" lon="151.290064">
  <ele>343.1</ele>
  <time>2026-09-01T19:51:59Z</time>
  <course>270.0</course>
  <speed>0.0</speed>
  <fix>3d</fix>
</trkpt>
<trkpt lat="-27.2744391" lon="151.2900641">
  <ele>343.08</ele>
  <time>2026-09-01T19:51:59Z</time>
  <course>10.75</course>
  <speed>0.022360679774997897</speed>
  <fix>3d</fix>
</trkpt>
<trkpt lat="-27.274439" lon="151.290064">
  <ele>343.1</ele>
  <time>2026-09-01T19:51:59Z</time>
  <course>270.0</course>
  <speed>0.0</speed>
  <fix>3d</fix>
</trkpt>
<trkpt lat="-27.2744391" lon="151.2900641">
  <ele>343.08</ele>
  <time>2026-09-01T19:51:59Z</time>
  <course>10.75</course>
  <speed>0.022360679774997897</speed>
  <fix>3d</fix>
</trkpt>
<trkpt lat="-27.274439" lon="151.290064">
  <ele>343.1</ele>
  <time>2026-09-01T19:51:59Z</time>
  <course>270.0</course>
  <speed>0.0</speed>
  <fix>3d</fix>
</trkpt>
<trkpt lat="-27.2744391" lon="151.2900641">
  <ele>343.08</ele>
  <time>2026-09-01T19:51:59Z</time>
  <course>10.75</course>
  <speed>0.022360679774997897</speed>
  <fix>3d</fix>
</trkpt>
<trkpt lat="-27.274439" lon="151.290064">
  <ele>343.1</ele>
  <time>2026-09-01T19:51:59Z</time>
  <course>270.0</course>
  <speed>0.0</speed>
  <fix>3d</fix>
</trkpt>
<trkpt lat="-27.2744391" lon="151.2900641">
  <ele>343.08</ele>
  <time>2026-09-01T19:51:59Z</time>
  <course>10.76</course>
  <speed>0.022360679774997897</speed>
  <fix>3d</fix>
</trkpt>
<trkpt lat="-27.274439" lon="151.290064">
  <ele>343.1</ele>
  <time>2026-09-01T19:51:59Z</time>
  <course>270.0</course>
  <speed>0.0</speed>
  <fix>3d</fix>
</trkpt>
<trkpt lat="-27.2744391" lon="151.2900641">
  <ele>343.08</ele>
  <time>2026-09-01T19:51:59Z</time>
  <course>10.76</course>
  <speed>0.022360679774997897</speed>
  <fix>3d</fix>
</trkpt>
<trkpt lat="-27.274439" lon="151.290064">
  <ele>343.1</ele>
  <time>2026-09-01T19:51:59Z</time>
  <course>270.0</course>
  <speed>0.0</speed>
  <fix>3d</fix>
</trkpt>
<trkpt lat="-27.2744391" lon="151.2900641">
  <ele>343.08</ele>
  <time>2026-09-01T19:51:59Z</time>
  <course>10.76</course>
  <speed>0.022360679774997897</speed>
  <fix>3d</fix>
</trkpt>
<trkpt lat="-27.274439" lon="151.290064">
  <ele>343.1</ele>
  <time>2026-09-01T19:51:59Z</time>
  <course>270.0</course>
  <speed>0.0</speed>
  <fix>3d</fix>
</trkpt>
<trkpt lat="-27.2744391" lon="151.2900641">
  <ele>343.08</ele>
  <time>2026-09-01T19:51:59Z</time>
  <course>10.76</course>
  <speed>0.022360679774997897</speed>
  <fix>3d</fix>
</trkpt>
<trkpt lat="-27.274439" lon="151.290064">
  <ele>343.1</ele>
  <time>2026-09-01T19:51:59Z</time>
  <course>270.0</course>
  <speed>0.0</speed>
  <fix>3d</fix>
</trkpt>
<trkpt lat="-27.2744391" lon="151.2900641">
  <ele>343.08</ele>
  <time>2026-09-01T19:51:59Z</time>
  <course>10.76</course>
  <speed>0.022360679774997897</speed>
  <fix>3d</fix>
</trkpt>
<trkpt lat="-27.274439" lon="151.290064">
  <ele>343.1</ele>
  <time>2026-09-01T19:51:59Z</time>
  <course>270.0</course>
  <speed>0.0</speed>
  <fix>3d</fix>
</trkpt>
<trkpt lat="-27.2744391" lon="151.2900641">
  <ele>343.08</ele>
  <time>2026-09-01T19:51:59Z</time>
  <course>10.76</course>
  <speed>0.022360679774997897</speed>
  <fix>3d</fix>
</trkpt>
<trkpt lat="-27.274439" lon="151.290064">
  <ele>343.1</ele>
  <time>2026-09-01T19:51:59Z</time>
  <course>270.0</course>
  <speed>0.0</speed>
  <fix>3d</fix>
</trkpt>
<trkpt lat="-27.2744391" lon="151.2900641">
  <ele>343.08</ele>
  <time>2026-09-01T19:51:59Z</time>
  <course>10.76</course>
  <speed>0.022360679774997897</speed>
  <fix>3d</fix>
</trkpt>
<trkpt lat="-27.274439" lon="151.290064">
  <ele>343.1</ele>
  <time>2026-09-01T19:51:59Z</time>
  <course>270.0</course>
  <speed>0.0</speed>
  <fix>3d</fix>
</trkpt>
<trkpt lat="-27.2744391" lon="151.2900641">
  <ele>343.08</ele>
  <time>2026-09-01T19:51:59Z</time>
  <course>10.76</course>
  <speed>0.022360679774997897</speed>
  <fix>3d</fix>
</trkpt>
<trkpt lat="-27.274439" lon="151.290064">
  <ele>343.1</ele>
  <time>2026-09-01T19:51:59Z</time>
  <course>270.0</course>
  <speed>0.0</speed>
  <fix>3d</fix>
</trkpt>
<trkpt lat="-27.2744391" lon="151.2900641">
  <ele>343.08</ele>
  <time>2026-09-01T19:51:59Z</time>
  <course>10.76</course>
  <speed>0.022360679774997897</speed>
  <fix>3d</fix>
</trkpt>
<trkpt lat="-27.274439" lon="151.290064">
  <ele>343.1</ele>
  <time>2026-09-01T19:51:59Z</time>
  <course>270.0</course>
  <speed>0.0</speed>
  <fix>3d</fix>
</trkpt>
<trkpt lat="-27.2744391" lon="151.2900641">
  <ele>343.08</ele>
  <time>2026-09-01T19:51:59Z</time>
  <course>10.76</course>
  <speed>0.022360679774997897</speed>
  <fix>3d</fix>
</trkpt>
<trkpt lat="-27.274439" lon="151.290064">
  <ele>343.1</ele>
  <time>2026-09-01T19:51:59Z</time>
  <course>270.0</course>
  <speed>0.0</speed>
  <fix>3d</fix>
</trkpt>
<trkpt lat="-26.9720619" lon="149.6127921">
  <ele>339.29</ele>
  <time>2026-09-01T19:52:00Z</time>
  <course>310.27</course>
  <speed>0.0</speed>
  <fix>3d</fix>
</trkpt>
<trkpt lat="-26.9720619" lon="149.6127921">
  <ele>339.29</ele>
  <time>2026-09-01T19:52:00Z</time>
  <course>310.27</course>
  <speed>0.0</speed>
  <fix>3d</fix>
</trkpt>
<trkpt lat="-27.274439" lon="151.290064">
  <ele>-0.01</ele>
  <time>2026-09-01T19:52:00Z</time>
  <course>0.22</course>
  <speed>0.0</speed>
  <fix>3d</fix>
</trkpt>
<trkpt lat="-27.274439" lon="151.290064">
  <ele>343.1</ele>
  <time>2026-09-01T19:52:00Z</time>
  <course>294.58</course>
  <speed>0.0</speed>
  <fix>3d</fix>
</trkpt>
<trkpt lat="-27.274439" lon="151.290064">
  <ele>0.02</ele>
  <time>2026-09-01T19:52:00Z</time>
  <course>1.2</course>
  <speed>0.0</speed>
  <fix>3d</fix>
</trkpt>
<trkpt lat="-27.274439" lon="151.290064">
  <ele>343.1</ele>
  <time>2026-09-01T19:52:00Z</time>
  <course>294.58</course>
  <speed>0.0</speed>
  <fix>3d</fix>
</trkpt>
<trkpt lat="-27.274439" lon="151.290064">
  <ele>-0.08</ele>
  <time>2026-09-01T19:52:00Z</time>
  <course>2.1</course>
  <speed>0.0</speed>
  <fix>3d</fix>
</trkpt>
<trkpt lat="-27.274439" lon="151.290064">
  <ele>343.1</ele>
  <time>2026-09-01T19:52:00Z</time>
  <course>273.33</course>
  <speed>0.0</speed>
  <fix>3d</fix>
</trkpt>
<trkpt lat="-27.274439" lon="151.290064">
  <ele>0.22</ele>
  <time>2026-09-01T19:52:00Z</time>
  <course>2.92</course>
  <speed>0.0</speed>
  <fix>3d</fix>
</trkpt>
<trkpt lat="-27.274439" lon="151.290064">
  <ele>343.1</ele>
  <time>2026-09-01T19:52:00Z</time>
  <course>273.33</course>
  <speed>0.0</speed>
  <fix>3d</fix>
</trkpt>
<trkpt lat="-27.274439" lon="151.290064">
  <ele>0.09</ele>
  <time>2026-09-01T19:52:00Z</time>
  <course>3.66</course>
  <speed>0.0</speed>
  <fix>3d</fix>
</trkpt>
<trkpt lat="-27.274439" lon="151.290064">
  <ele>343.1</ele>
  <time>2026-09-01T19:52:00Z</time>
  <course>270.44</course>
  <speed>0.0</speed>
  <fix>3d</fix>
</trkpt>
<trkpt lat="-27.274439" lon="151.290064">
  <ele>0.08</ele>
  <time>2026-09-01T19:52:00Z</time>
  <course>4.34</course>
  <speed>0.0</speed>
  <fix>3d</fix>
</trkpt>
<trkpt lat="-27.274439" lon="151.290064">
  <ele>343.1</ele>
  <time>2026-09-01T19:52:00Z</time>
  <course>270.44</course>
  <speed>0.0</speed>
  <fix>3d</fix>
</trkpt>
<trkpt lat="-27.274439" lon="151.290064">
  <ele>0.09</ele>
  <time>2026-09-01T19:52:00Z</time>
  <course>4.95</course>
  <speed>0.0</speed>
  <fix>3d</fix>
</trkpt>
<trkpt lat="-27.274439" lon="151.290064">
  <ele>343.1</ele>
  <time>2026-09-01T19:52:00Z</time>
  <course>270.05</course>
  <speed>0.0</speed>
  <fix>3d</fix>
</trkpt>
<trkpt lat="-27.274439" lon="151.290064">
  <ele>-0.05</ele>
  <time>2026-09-01T19:52:00Z</time>
  <course>5.5</course>
  <speed>0.0</speed>
  <fix>3d</fix>
</trkpt>
<trkpt lat="-27.274439" lon="151.290064">
  <ele>343.1</ele>
  <time>2026-09-01T19:52:00Z</time>
  <course>270.05</course>
  <speed>0.0</speed>
  <fix>3d</fix>
</trkpt>
<trkpt lat="-27.274439" lon="151.290064">
  <ele>343.06</ele>
  <time>2026-09-01T19:52:00Z</time>
  <course>5.98</course>
  <speed>0.0</speed>
  <fix>3d</fix>
</trkpt>
<trkpt lat="-27.274439" lon="151.290064">
  <ele>343.1</ele>
  <time>2026-09-01T19:52:00Z</time>
  <course>270.0</course>
  <speed>0.0</speed>
  <fix>3d</fix>
</trkpt>
<trkpt lat="-27.274439" lon="151.290064">
  <ele>343.18</ele>
  <time>2026-09-01T19:52:00Z</time>
  <course>6.44</course>
  <speed>0.0</speed>
  <fix>3d</fix>
</trkpt>
<trkpt lat="-27.274439" lon="151.290064">
  <ele>343.1</ele>
  <time>2026-09-01T19:52:00Z</time>
  <course>270.0</course>
  <speed>0.0</speed>
  <fix>3d</fix>
</trkpt>
<trkpt lat="-27.274439" lon="151.290064">
  <ele>342.91</ele>
  <time>2026-09-01T19:52:00Z</time>
  <course>6.85</course>
  <speed>0.0</speed>
  <fix>3d</fix>
</trkpt>
<trkpt lat="-27.274439" lon="151.290064">
  <ele>343.1</ele>
  <time>2026-09-01T19:52:00Z</time>
  <course>270.0</course>
  <speed>0.0</speed>
  <fix>3d</fix>
</trkpt>
<trkpt lat="-27.274439" lon="151.290064">
  <ele>343.06</ele>
  <time>2026-09-01T19:52:00Z</time>
  <course>7.22</course>
  <speed>0.0</speed>
  <fix>3d</fix>
</trkpt>
<trkpt lat="-27.274439" lon="151.290064">
  <ele>343.1</ele>
  <time>2026-09-01T19:52:00Z</time>
  <course>270.0</course>
  <speed>0.0</speed>
  <fix>3d</fix>
</trkpt>
<trkpt lat="-27.274439" lon="151.290064">
  <ele>343.13</ele>
  <time>2026-09-01T19:52:00Z</time>
  <course>7.56</course>
  <speed>0.0</speed>
  <fix>3d</fix>
</trkpt>
<trkpt lat="-27.274439" lon="151.290064">
  <ele>343.1</ele>
  <time>2026-09-01T19:52:00Z</time>
  <course>270.0</course>
  <speed>0.0</speed>
  <fix>3d</fix>
</trkpt>
<trkpt lat="-27.274439" lon="151.290064">
  <ele>343.04</ele>
  <time>2026-09-01T19:52:00Z</time>
  <course>7.87</course>
  <speed>0.0</speed>
  <fix>3d</fix>
</trkpt>
<trkpt lat="-27.274439" lon="151.290064">
  <ele>343.1</ele>
  <time>2026-09-01T19:52:00Z</time>
  <course>270.0</course>
  <speed>0.0</speed>
  <fix>3d</fix>
</trkpt>
<trkpt lat="-27.274439" lon="151.290064">
  <ele>342.88</ele>
  <time>2026-09-01T19:52:00Z</time>
  <course>8.14</course>
  <speed>0.0</speed>
  <fix>3d</fix>
</trkpt>
<trkpt lat="-27.274439" lon="151.290064">
  <ele>343.1</ele>
  <time>2026-09-01T19:52:00Z</time>
  <course>270.0</course>
  <speed>0.0</speed>
  <fix>3d</fix>
</trkpt>
<trkpt lat="-27.274439" lon="151.290064">
  <ele>343.02</ele>
  <time>2026-09-01T19:52:00Z</time>
  <course>8.39</course>
  <speed>0.0</speed>
  <fix>3d</fix>
</trkpt>
<trkpt lat="-27.274439" lon="151.290064">
  <ele>343.1</ele>
  <time>2026-09-01T19:52:00Z</time>
  <course>270.0</course>
  <speed>0.0</speed>
  <fix>3d</fix>
</trkpt>
<trkpt lat="-27.274439" lon="151.290064">
  <ele>343.23</ele>
  <time>2026-09-01T19:52:00Z</time>
  <course>8.63</course>
  <speed>0.0</speed>
  <fix>3d</fix>
</trkpt>
<trkpt lat="-27.274439" lon="151.290064">
  <ele>343.1</ele>
  <time>2026-09-01T19:52:00Z</time>
  <course>270.0</course>
  <speed>0.0</speed>
  <fix>3d</fix>
</trkpt>
<trkpt lat="-27.274439" lon="151.290064">
  <ele>343.17</ele>
  <time>2026-09-01T19:52:00Z</time>
  <course>8.83</course>
  <speed>0.0</speed>
  <fix>3d</fix>
</trkpt>
<trkpt lat="-27.274439" lon="151.290064">
  <ele>343.1</ele>
  <time>2026-09-01T19:52:00Z</time>
  <course>270.0</course>
  <speed>0.0</speed>
  <fix>3d</fix>
</trkpt>
<trkpt lat="-27.274439" lon="151.290064">
  <ele>343.04</ele>
  <time>2026-09-01T19:52:00Z</time>
  <course>9.01</course>
  <speed>0.0</speed>
  <fix>3d</fix>
</trkpt>
<trkpt lat="-27.274439" lon="151.290064">
  <ele>343.1</ele>
  <time>2026-09-01T19:52:00Z</time>
  <course>270.0</course>
  <speed>0.0</speed>
  <fix>3d</fix>
</trkpt>
<trkpt lat="-27.274439" lon="151.290064">
  <ele>342.89</ele>
  <time>2026-09-01T19:52:00Z</time>
  <course>9.18</course>
  <speed>0.0</speed>
  <fix>3d</fix>
</trkpt>
<trkpt lat="-27.274439" lon="151.290064">
  <ele>343.1</ele>
  <time>2026-09-01T19:52:00Z</time>
  <course>270.0</course>
  <speed>0.0</speed>
  <fix>3d</fix>
</trkpt>
<trkpt lat="-27.274439" lon="151.290064">
  <ele>343.08</ele>
  <time>2026-09-01T19:52:00Z</time>
  <course>9.33</course>
  <speed>0.0</speed>
  <fix>3d</fix>
</trkpt>
<trkpt lat="-27.274439" lon="151.290064">
  <ele>343.1</ele>
  <time>2026-09-01T19:52:00Z</time>
  <course>270.0</course>
  <speed>0.0</speed>
  <fix>3d</fix>
</trkpt>
<trkpt lat="-27.274439" lon="151.290064">
  <ele>343.19</ele>
  <time>2026-09-01T19:52:00Z</time>
  <course>9.47</course>
  <speed>0.0</speed>
  <fix>3d</fix>
</trkpt>
<trkpt lat="-27.274439" lon="151.290064">
  <ele>343.1</ele>
  <time>2026-09-01T19:52:00Z</time>
  <course>270.0</course>
  <speed>0.0</speed>
  <fix>3d</fix>
</trkpt>
<trkpt lat="-27.274439" lon="151.290064">
  <ele>342.88</ele>
  <time>2026-09-01T19:52:00Z</time>
  <course>9.59</course>
  <speed>0.0</speed>
  <fix>3d</fix>
</trkpt>
<trkpt lat="-27.274439" lon="151.290064">
  <ele>343.1</ele>
  <time>2026-09-01T19:52:00Z</time>
  <course>270.0</course>
  <speed>0.0</speed>
  <fix>3d</fix>
</trkpt>
<trkpt lat="-27.274439" lon="151.290064">
  <ele>343.17</ele>
  <time>2026-09-01T19:52:00Z</time>
  <course>9.7</course>
  <speed>0.0</speed>
  <fix>3d</fix>
</trkpt>
<trkpt lat="-27.274439" lon="151.290064">
  <ele>343.1</ele>
  <time>2026-09-01T19:52:00Z</time>
  <course>270.0</course>
  <speed>0.0</speed>
  <fix>3d</fix>
</trkpt>
<trkpt lat="-27.274439" lon="151.290064">
  <ele>342.89</ele>
  <time>2026-09-01T19:52:00Z</time>
  <course>9.8</course>
  <speed>0.0</speed>
  <fix>3d</fix>
</trkpt>
<trkpt lat="-27.274439" lon="151.290064">
  <ele>343.1</ele>
  <time>2026-09-01T19:52:00Z</time>
  <course>270.0</course>
  <speed>0.0</speed>
  <fix>3d</fix>
</trkpt>
<trkpt lat="-27.274439" lon="151.290064">
  <ele>342.99</ele>
  <time>2026-09-01T19:52:00Z</time>
  <course>9.9</course>
  <speed>0.0</speed>
  <fix>3d</fix>
</trkpt>
<trkpt lat="-27.274439" lon="151.290064">
  <ele>343.1</ele>
  <time>2026-09-01T19:52:00Z</time>
  <course>270.0</course>
  <speed>0.0</speed>
  <fix>3d</fix>
</trkpt>
<trkpt lat="-27.274439" lon="151.290064">
  <ele>342.87</ele>
  <time>2026-09-01T19:52:00Z</time>
  <course>9.98</course>
  <speed>0.0</speed>
  <fix>3d</fix>
</trkpt>
<trkpt lat="-27.274439" lon="151.290064">
  <ele>343.1</ele>
  <time>2026-09-01T19:52:00Z</time>
  <course>270.0</course>
  <speed>0.0</speed>
  <fix>3d</fix>
</trkpt>
<trkpt lat="-27.274439" lon="151.290064">
  <ele>343.09</ele>
  <time>2026-09-01T19:52:00Z</time>
  <course>10.06</course>
  <speed>0.0</speed>
  <fix>3d</fix>
</trkpt>
<trkpt lat="-27.274439" lon="151.290064">
  <ele>343.1</ele>
  <time>2026-09-01T19:52:00Z</time>
  <course>270.0</course>
  <speed>0.0</speed>
  <fix>3d</fix>
</trkpt>
<trkpt lat="-27.274439" lon="151.290064">
  <ele>343.18</ele>
  <time>2026-09-01T19:52:00Z</time>
  <course>10.13</course>
  <speed>0.0</speed>
  <fix>3d</fix>
</trkpt>
<trkpt lat="-27.274439" lon="151.290064">
  <ele>343.1</ele>
  <time>2026-09-01T19:52:00Z</time>
  <course>270.0</course>
  <speed>0.0</speed>
  <fix>3d</fix>
</trkpt>
<trkpt lat="-27.274439" lon="151.290064">
  <ele>343.05</ele>
  <time>2026-09-01T19:52:00Z</time>
  <course>10.2</course>
  <speed>0.0</speed>
  <fix>3d</fix>
</trkpt>
<trkpt lat="-27.274439" lon="151.290064">
  <ele>343.1</ele>
  <time>2026-09-01T19:52:00Z</time>
  <course>270.0</course>
  <speed>0.0</speed>
  <fix>3d</fix>
</trkpt>
<trkpt lat="-27.274439" lon="151.290064">
  <ele>342.96</ele>
  <time>2026-09-01T19:52:00Z</time>
  <course>10.25</course>
  <speed>0.0</speed>
  <fix>3d</fix>
</trkpt>
<trkpt lat="-27.274439" lon="151.290064">
  <ele>343.1</ele>
  <time>2026-09-01T19:52:00Z</time>
  <course>270.0</course>
  <speed>0.0</speed>
  <fix>3d</fix>
</trkpt>
<trkpt lat="-27.274439" lon="151.290064">
  <ele>343.1</ele>
  <time>2026-09-01T19:52:00Z</time>
  <course>10.31</course>
  <speed>0.0</speed>
  <fix>3d</fix>
</trkpt>
<trkpt lat="-27.274439" lon="151.290064">
  <ele>343.1</ele>
  <time>2026-09-01T19:52:00Z</time>
  <course>270.0</course>
  <speed>0.0</speed>
  <fix>3d</fix>
</trkpt>
<trkpt lat="-27.274439" lon="151.290064">
  <ele>343.22</ele>
  <time>2026-09-01T19:52:00Z</time>
  <course>10.35</course>
  <speed>0.0</speed>
  <fix>3d</fix>
</trkpt>
<trkpt lat="-27.274439" lon="151.290064">
  <ele>343.1</ele>
  <time>2026-09-01T19:52:00Z</time>
  <course>270.0</course>
  <speed>0.0</speed>
  <fix>3d</fix>
</trkpt>
<trkpt lat="-27.274439" lon="151.290064">
  <ele>343.17</ele>
  <time>2026-09-01T19:52:00Z</time>
  <course>10.4</course>
  <speed>0.0</speed>
  <fix>3d</fix>
</trkpt>
<trkpt lat="-27.274439" lon="151.290064">
  <ele>343.1</ele>
  <time>2026-09-01T19:52:00Z</time>
  <course>270.0</course>
  <speed>0.0</speed>
  <fix>3d</fix>
</trkpt>
<trkpt lat="-27.274439" lon="151.290064">
  <ele>343.08</ele>
  <time>2026-09-01T19:52:00Z</time>
  <course>10.44</course>
  <speed>0.0</speed>
  <fix>3d</fix>
</trkpt>
<trkpt lat="-27.274439" lon="151.290064">
  <ele>343.1</ele>
  <time>2026-09-01T19:52:00Z</time>
  <course>270.0</course>
  <speed>0.0</speed>
  <fix>3d</fix>
</trkpt>
<trkpt lat="-27.274439" lon="151.290064">
  <ele>343.04</ele>
  <time>2026-09-01T19:52:00Z</time>
  <course>10.47</course>
  <speed>0.0</speed>
  <fix>3d</fix>
</trkpt>
<trkpt lat="-27.274439" lon="151.290064">
  <ele>343.1</ele>
  <time>2026-09-01T19:52:00Z</time>
  <course>270.0</course>
  <speed>0.0</speed>
  <fix>3d</fix>
</trkpt>
<trkpt lat="-27.274439" lon="151.290064">
  <ele>343.18</ele>
  <time>2026-09-01T19:52:00Z</time>
  <course>10.5</course>
  <speed>0.0</speed>
  <fix>3d</fix>
</trkpt>
<trkpt lat="-27.274439" lon="151.290064">
  <ele>343.1</ele>
  <time>2026-09-01T19:52:00Z</time>
  <course>270.0</course>
  <speed>0.0</speed>
  <fix>3d</fix>
</trkpt>
<trkpt lat="-27.274439" lon="151.290064">
  <ele>343.12</ele>
  <time>2026-09-01T19:52:00Z</time>
  <course>10.53</course>
  <speed>0.0</speed>
  <fix>3d</fix>
</trkpt>
<trkpt lat="-27.274439" lon="151.290064">
  <ele>343.1</ele>
  <time>2026-09-01T19:52:00Z</time>
  <course>270.0</course>
  <speed>0.0</speed>
  <fix>3d</fix>
</trkpt>
<trkpt lat="-27.274439" lon="151.290064">
  <ele>343.04</ele>
  <time>2026-09-01T19:52:00Z</time>
  <course>10.56</course>
  <speed>0.0</speed>
  <fix>3d</fix>
</trkpt>
<trkpt lat="-27.274439" lon="151.290064">
  <ele>343.1</ele>
  <time>2026-09-01T19:52:00Z</time>
  <course>270.0</course>
  <speed>0.0</speed>
  <fix>3d</fix>
</trkpt>
<trkpt lat="-27.274439" lon="151.290064">
  <ele>343.07</ele>
  <time>2026-09-01T19:52:00Z</time>
  <course>10.58</course>
  <speed>0.0</speed>
  <fix>3d</fix>
</trkpt>
<trkpt lat="-27.274439" lon="151.290064">
  <ele>343.1</ele>
  <time>2026-09-01T19:52:00Z</time>
  <course>270.0</course>
  <speed>0.0</speed>
  <fix>3d</fix>
</trkpt>
<trkpt lat="-27.274439" lon="151.290064">
  <ele>343.04</ele>
  <time>2026-09-01T19:52:00Z</time>
  <course>10.6</course>
  <speed>0.0</speed>
  <fix>3d</fix>
</trkpt>
<trkpt lat="-27.274439" lon="151.290064">
  <ele>343.1</ele>
  <time>2026-09-01T19:52:00Z</time>
  <course>270.0</course>
  <speed>0.0</speed>
  <fix>3d</fix>
</trkpt>
<trkpt lat="-27.274439" lon="151.290064">
  <ele>343.01</ele>
  <time>2026-09-01T19:52:00Z</time>
  <course>10.62</course>
  <speed>0.0</speed>
  <fix>3d</fix>
</trkpt>
<trkpt lat="-27.274439" lon="151.290064">
  <ele>343.1</ele>
  <time>2026-09-01T19:52:00Z</time>
  <course>270.0</course>
  <speed>0.0</speed>
  <fix>3d</fix>
</trkpt>
<trkpt lat="-27.274439" lon="151.290064">
  <ele>343.2</ele>
  <time>2026-09-01T19:52:00Z</time>
  <course>10.64</course>
  <speed>0.0</speed>
  <fix>3d</fix>
</trkpt>
<trkpt lat="-27.274439" lon="151.290064">
  <ele>343.1</ele>
  <time>2026-09-01T19:52:00Z</time>
  <course>270.0</course>
  <speed>0.0</speed>
  <fix>3d</fix>
</trkpt>
<trkpt lat="-27.274439" lon="151.290064">
  <ele>343.24</ele>
  <time>2026-09-01T19:52:00Z</time>
  <course>10.65</course>
  <speed>0.0</speed>
  <fix>3d</fix>
</trkpt>
<trkpt lat="-27.274439" lon="151.290064">
  <ele>343.1</ele>
  <time>2026-09-01T19:52:00Z</time>
  <course>270.0</course>
  <speed>0.0</speed>
  <fix>3d</fix>
</trkpt>
<trkpt lat="-27.274439" lon="151.290064">
  <ele>342.88</ele>
  <time>2026-09-01T19:52:00Z</time>
  <course>10.67</course>
  <speed>0.0</speed>
  <fix>3d</fix>
</trkpt>
<trkpt lat="-27.274439" lon="151.290064">
  <ele>343.1</ele>
  <time>2026-09-01T19:52:00Z</time>
  <course>270.0</course>
  <speed>0.0</speed>
  <fix>3d</fix>
</trkpt>
<trkpt lat="-27.274439" lon="151.290064">
  <ele>343.21</ele>
  <time>2026-09-01T19:52:00Z</time>
  <course>10.68</course>
  <speed>0.0</speed>
  <fix>3d</fix>
</trkpt>
<trkpt lat="-27.274439" lon="151.290064">
  <ele>343.1</ele>
  <time>2026-09-01T19:52:00Z</time>
  <course>270.0</course>
  <speed>0.0</speed>
  <fix>3d</fix>
</trkpt>
<trkpt lat="-27.274439" lon="151.290064">
  <ele>343.02</ele>
  <time>2026-09-01T19:52:00Z</time>
  <course>10.69</course>
  <speed>0.0</speed>
  <fix>3d</fix>
</trkpt>
<trkpt lat="-27.274439" lon="151.290064">
  <ele>343.1</ele>
  <time>2026-09-01T19:52:00Z</time>
  <course>270.0</course>
  <speed>0.0</speed>
  <fix>3d</fix>
</trkpt>
<trkpt lat="-27.274439" lon="151.290064">
  <ele>342.93</ele>
  <time>2026-09-01T19:52:00Z</time>
  <course>10.7</course>
  <speed>0.0</speed>
  <fix>3d</fix>
</trkpt>
<trkpt lat="-27.274439" lon="151.290064">
  <ele>343.1</ele>
  <time>2026-09-01T19:52:00Z</time>
  <course>270.0</course>
  <speed>0.0</speed>
  <fix>3d</fix>
</trkpt>
<trkpt lat="-27.274439" lon="151.290064">
  <ele>343.07</ele>
  <time>2026-09-01T19:52:00Z</time>
  <course>10.71</course>
  <speed>0.0</speed>
  <fix>3d</fix>
</trkpt>
<trkpt lat="-27.274439" lon="151.290064">
  <ele>343.1</ele>
  <time>2026-09-01T19:52:00Z</time>
  <course>270.0</course>
  <speed>0.0</speed>
  <fix>3d</fix>
</trkpt>
<trkpt lat="-27.274439" lon="151.290064">
  <ele>342.94</ele>
  <time>2026-09-01T19:52:00Z</time>
  <course>10.72</course>
  <speed>0.0</speed>
  <fix>3d</fix>
</trkpt>
<trkpt lat="-27.274439" lon="151.290064">
  <ele>343.1</ele>
  <time>2026-09-01T19:52:01Z</time>
  <course>270.0</course>
  <speed>0.0</speed>
  <fix>3d</fix>
</trkpt>
<trkpt lat="-27.274439" lon="151.290064">
  <ele>343.11</ele>
  <time>2026-09-01T19:52:01Z</time>
  <course>10.73</course>
  <speed>0.0</speed>
  <fix>3d</fix>
</trkpt>
<trkpt lat="-27.274439" lon="151.290064">
  <ele>343.1</ele>
  <time>2026-09-01T19:52:01Z</time>
  <course>270.0</course>
  <speed>0.0</speed>
  <fix>3d</fix>
</trkpt>
<trkpt lat="-27.274439" lon="151.290064">
  <ele>343.24</ele>
  <time>2026-09-01T19:52:01Z</time>
  <course>10.73</course>
  <speed>0.0</speed>
  <fix>3d</fix>
</trkpt>
<trkpt lat="-27.274439" lon="151.290064">
  <ele>343.1</ele>
  <time>2026-09-01T19:52:01Z</time>
  <course>270.0</course>
  <speed>0.0</speed>
  <fix>3d</fix>
</trkpt>
<trkpt lat="-27.274439" lon="151.290064">
  <ele>343.18</ele>
  <time>2026-09-01T19:52:01Z</time>
  <course>10.74</course>
  <speed>0.0</speed>
  <fix>3d</fix>
</trkpt>
<trkpt lat="-27.274439" lon="151.290064">
  <ele>343.1</ele>
  <time>2026-09-01T19:52:01Z</time>
  <course>270.0</course>
  <speed>0.0</speed>
  <fix>3d</fix>
</trkpt>
<trkpt lat="-27.274439" lon="151.290064">
  <ele>342.89</ele>
  <time>2026-09-01T19:52:01Z</time>
  <course>10.75</course>
  <speed>0.0</speed>
  <fix>3d</fix>
</trkpt>
<trkpt lat="-27.274439" lon="151.290064">
  <ele>343.1</ele>
  <time>2026-09-01T19:52:01Z</time>
  <course>270.0</course>
  <speed>0.0</speed>
  <fix>3d</fix>
</trkpt>
<trkpt lat="-27.274439" lon="151.290064">
  <ele>343.23</ele>
  <time>2026-09-01T19:52:01Z</time>
  <course>10.75</course>
  <speed>0.0</speed>
  <fix>3d</fix>
</trkpt>
<trkpt lat="-27.274439" lon="151.290064">
  <ele>343.1</ele>
  <time>2026-09-01T19:52:01Z</time>
  <course>270.0</course>
  <speed>0.0</speed>
  <fix>3d</fix>
</trkpt>
<trkpt lat="-27.274439" lon="151.290064">
  <ele>343.23</ele>
  <time>2026-09-01T19:52:01Z</time>
  <course>10.76</course>
  <speed>0.0</speed>
  <fix>3d</fix>
</trkpt>
<trkpt lat="-27.274439" lon="151.290064">
  <ele>343.1</ele>
  <time>2026-09-01T19:52:01Z</time>
  <course>270.0</course>
  <speed>0.0</speed>
  <fix>3d</fix>
</trkpt>
<trkpt lat="-27.274439" lon="151.290064">
  <ele>342.99</ele>
  <time>2026-09-01T19:52:01Z</time>
  <course>10.76</course>
  <speed>0.0</speed>
  <fix>3d</fix>
</trkpt>
<trkpt lat="-27.274439" lon="151.290064">
  <ele>343.1</ele>
  <time>2026-09-01T19:52:01Z</time>
  <course>270.0</course>
  <speed>0.0</speed>
  <fix>3d</fix>
</trkpt>
<trkpt lat="-27.274439" lon="151.290064">
  <ele>343.13</ele>
  <time>2026-09-01T19:52:01Z</time>
  <course>10.76</course>
  <speed>0.0</speed>
  <fix>3d</fix>
</trkpt>
<trkpt lat="-27.274439" lon="151.290064">
  <ele>343.1</ele>
  <time>2026-09-01T19:52:01Z</time>
  <course>270.0</course>
  <speed>0.0</speed>
  <fix>3d</fix>
</trkpt>
<trkpt lat="-27.274439" lon="151.290064">
  <ele>343.07</ele>
  <time>2026-09-01T19:52:01Z</time>
  <course>10.77</course>
  <speed>0.0</speed>
  <fix>3d</fix>
</trkpt>
<trkpt lat="-27.274439" lon="151.290064">
  <ele>343.1</ele>
  <time>2026-09-01T19:52:01Z</time>
  <course>270.0</course>
  <speed>0.0</speed>
  <fix>3d</fix>
</trkpt>
<trkpt lat="-27.274439" lon="151.290064">
  <ele>343.19</ele>
  <time>2026-09-01T19:52:01Z</time>
  <course>10.77</course>
  <speed>0.0</speed>
  <fix>3d</fix>
</trkpt>
<trkpt lat="-27.274439" lon="151.290064">
  <ele>343.1</ele>
  <time>2026-09-01T19:52:01Z</time>
  <course>270.0</course>
  <speed>0.0</speed>
  <fix>3d</fix>
</trkpt>
<trkpt lat="-27.274439" lon="151.290064">
  <ele>342.93</ele>
  <time>2026-09-01T19:52:01Z</time>
  <course>10.77</course>
  <speed>0.0</speed>
  <fix>3d</fix>
</trkpt>
<trkpt lat="-27.274439" lon="151.290064">
  <ele>343.1</ele>
  <time>2026-09-01T19:52:01Z</time>
  <course>270.0</course>
  <speed>0.0</speed>
  <fix>3d</fix>
</trkpt>
<trkpt lat="-27.274439" lon="151.290064">
  <ele>343.19</ele>
  <time>2026-09-01T19:52:01Z</time>
  <course>10.78</course>
  <speed>0.0</speed>
  <fix>3d</fix>
</trkpt>
<trkpt lat="-27.274439" lon="151.290064">
  <ele>343.1</ele>
  <time>2026-09-01T19:52:01Z</time>
  <course>270.0</course>
  <speed>0.0</speed>
  <fix>3d</fix>
</trkpt>
<trkpt lat="-27.274439" lon="151.290064">
  <ele>343.1</ele>
  <time>2026-09-01T19:52:01Z</time>
  <course>10.78</course>
  <speed>0.0</speed>
  <fix>3d</fix>
</trkpt>
<trkpt lat="-27.274439" lon="151.290064">
  <ele>343.1</ele>
  <time>2026-09-01T19:52:01Z</time>
  <course>270.0</course>
  <speed>0.0</speed>
  <fix>3d</fix>
</trkpt>
<trkpt lat="-27.274439" lon="151.290064">
  <ele>343.01</ele>
  <time>2026-09-01T19:52:01Z</time>
  <course>10.78</course>
  <speed>0.0</speed>
  <fix>3d</fix>
</trkpt>
<trkpt lat="-27.274439" lon="151.290064">
  <ele>343.1</ele>
  <time>2026-09-01T19:52:01Z</time>
  <course>270.0</course>
  <speed>0.0</speed>
  <fix>3d</fix>
</trkpt>
<trkpt lat="-27.274439" lon="151.290064">
  <ele>343.11</ele>
  <time>2026-09-01T19:52:01Z</time>
  <course>10.78</course>
  <speed>0.0</speed>
  <fix>3d</fix>
</trkpt>
<trkpt lat="-27.274439" lon="151.290064">
  <ele>343.1</ele>
  <time>2026-09-01T19:52:01Z</time>
  <course>270.0</course>
  <speed>0.0</speed>
  <fix>3d</fix>
</trkpt>
<trkpt lat="-27.274439" lon="151.290064">
  <ele>342.96</ele>
  <time>2026-09-01T19:52:01Z</time>
  <course>10.78</course>
  <speed>0.0</speed>
  <fix>3d</fix>
</trkpt>
<trkpt lat="-27.274439" lon="151.290064">
  <ele>343.1</ele>
  <time>2026-09-01T19:52:01Z</time>
  <course>270.0</course>
  <speed>0.0</speed>
  <fix>3d</fix>
</trkpt>
<trkpt lat="-27.274439" lon="151.290064">
  <ele>343.19</ele>
  <time>2026-09-01T19:52:01Z</time>
  <course>10.79</course>
  <speed>0.0</speed>
  <fix>3d</fix>
</trkpt>
<trkpt lat="-27.274439" lon="151.290064">
  <ele>343.1</ele>
  <time>2026-09-01T19:52:01Z</time>
  <course>270.0</course>
  <speed>0.0</speed>
  <fix>3d</fix>
</trkpt>
<trkpt lat="-27.274439" lon="151.290064">
  <ele>343.0</ele>
  <time>2026-09-01T19:52:01Z</time>
  <course>10.79</course>
  <speed>0.0</speed>
  <fix>3d</fix>
</trkpt>
<trkpt lat="-27.274439" lon="151.290064">
  <ele>343.1</ele>
  <time>2026-09-01T19:52:01Z</time>
  <course>270.0</course>
  <speed>0.0</speed>
  <fix>3d</fix>
</trkpt>
<trkpt lat="-27.274439" lon="151.290064">
  <ele>343.2</ele>
  <time>2026-09-01T19:52:01Z</time>
  <course>10.79</course>
  <speed>0.0</speed>
  <fix>3d</fix>
</trkpt>
<trkpt lat="-27.274439" lon="151.290064">
  <ele>343.1</ele>
  <time>2026-09-01T19:52:01Z</time>
  <course>270.0</course>
  <speed>0.0</speed>
  <fix>3d</fix>
</trkpt>
<trkpt lat="-27.274439" lon="151.290064">
  <ele>343.2</ele>
  <time>2026-09-01T19:52:01Z</time>
  <course>10.79</course>
  <speed>0.0</speed>
  <fix>3d</fix>
</trkpt>
<trkpt lat="-27.274439" lon="151.290064">
  <ele>343.1</ele>
  <time>2026-09-01T19:52:01Z</time>
  <course>270.0</course>
  <speed>0.0</speed>
  <fix>3d</fix>
</trkpt>
<trkpt lat="-27.274439" lon="151.290064">
  <ele>343.13</ele>
  <time>2026-09-01T19:52:01Z</time>
  <course>10.79</course>
  <speed>0.0</speed>
  <fix>3d</fix>
</trkpt>
<trkpt lat="-27.274439" lon="151.290064">
  <ele>343.1</ele>
  <time>2026-09-01T19:52:01Z</time>
  <course>270.0</course>
  <speed>0.0</speed>
  <fix>3d</fix>
</trkpt>
<trkpt lat="-27.274439" lon="151.290064">
  <ele>343.1</ele>
  <time>2026-09-01T19:52:01Z</time>
  <course>10.79</course>
  <speed>0.0</speed>
  <fix>3d</fix>
</trkpt>
<trkpt lat="-27.274439" lon="151.290064">
  <ele>343.1</ele>
  <time>2026-09-01T19:52:01Z</time>
  <course>270.0</course>
  <speed>0.0</speed>
  <fix>3d</fix>
</trkpt>
<trkpt lat="-27.274439" lon="151.290064">
  <ele>343.12</ele>
  <time>2026-09-01T19:52:01Z</time>
  <course>10.79</course>
  <speed>0.0</speed>
  <fix>3d</fix>
</trkpt>
<trkpt lat="-27.274439" lon="151.290064">
  <ele>343.1</ele>
  <time>2026-09-01T19:52:01Z</time>
  <course>270.0</course>
  <speed>0.0</speed>
  <fix>3d</fix>
</trkpt>
<trkpt lat="-27.274439" lon="151.290064">
  <ele>342.94</ele>
  <time>2026-09-01T19:52:01Z</time>
  <course>10.79</course>
  <speed>0.0</speed>
  <fix>3d</fix>
</trkpt>
<trkpt lat="-27.274439" lon="151.290064">
  <ele>343.1</ele>
  <time>2026-09-01T19:52:01Z</time>
  <course>270.0</course>
  <speed>0.0</speed>
  <fix>3d</fix>
</trkpt>
<trkpt lat="-27.274439" lon="151.290064">
  <ele>343.25</ele>
  <time>2026-09-01T19:52:01Z</time>
  <course>10.79</course>
  <speed>0.0</speed>
  <fix>3d</fix>
</trkpt>
<trkpt lat="-27.274439" lon="151.290064">
  <ele>343.1</ele>
  <time>2026-09-01T19:52:01Z</time>
  <course>270.0</course>
  <speed>0.0</speed>
  <fix>3d</fix>
</trkpt>
<trkpt lat="-27.274439" lon="151.290064">
  <ele>342.93</ele>
  <time>2026-09-01T19:52:01Z</time>
  <course>10.79</course>
  <speed>0.0</speed>
  <fix>3d</fix>
</trkpt>
<trkpt lat="-27.274439" lon="151.290064">
  <ele>343.1</ele>
  <time>2026-09-01T19:52:01Z</time>
  <course>270.0</course>
  <speed>0.0</speed>
  <fix>3d</fix>
</trkpt>
<trkpt lat="-27.274439" lon="151.290064">
  <ele>343.08</ele>
  <time>2026-09-01T19:52:01Z</time>
  <course>10.79</course>
  <speed>0.0</speed>
  <fix>3d</fix>
</trkpt>
<trkpt lat="-27.274439" lon="151.290064">
  <ele>343.1</ele>
  <time>2026-09-01T19:52:01Z</time>
  <course>270.0</course>
  <speed>0.0</speed>
  <fix>3d</fix>
</trkpt>
<trkpt lat="-27.274439" lon="151.290064">
  <ele>343.23</ele>
  <time>2026-09-01T19:52:01Z</time>
  <course>10.8</course>
  <speed>0.0</speed>
  <fix>3d</fix>
</trkpt>
<trkpt lat="-27.274439" lon="151.290064">
  <ele>343.1</ele>
  <time>2026-09-01T19:52:01Z</time>
  <course>270.0</course>
  <speed>0.0</speed>
  <fix>3d</fix>
</trkpt>
<trkpt lat="-27.274439" lon="151.290064">
  <ele>343.01</ele>
  <time>2026-09-01T19:52:01Z</time>
  <course>10.8</course>
  <speed>0.0</speed>
  <fix>3d</fix>
</trkpt>
<trkpt lat="-27.274439" lon="151.290064">
  <ele>343.1</ele>
  <time>2026-09-01T19:52:01Z</time>
  <course>270.0</course>
  <speed>0.0</speed>
  <fix>3d</fix>
</trkpt>
<trkpt lat="-27.274439" lon="151.290064">
  <ele>343.1</ele>
  <time>2026-09-01T19:52:01Z</time>
  <course>10.8</course>
  <speed>0.0</speed>
  <fix>3d</fix>
</trkpt>
<trkpt lat="-27.274439" lon="151.290064">
  <ele>343.1</ele>
  <time>2026-09-01T19:52:01Z</time>
  <course>270.0</course>
  <speed>0.0</speed>
  <fix>3d</fix>
</trkpt>
<trkpt lat="-27.274439" lon="151.290064">
  <ele>342.99</ele>
  <time>2026-09-01T19:52:01Z</time>
  <course>10.8</course>
  <speed>0.0</speed>
  <fix>3d</fix>
</trkpt>
<trkpt lat="-27.274439" lon="151.290064">
  <ele>343.1</ele>
  <time>2026-09-01T19:52:01Z</time>
  <course>270.0</course>
  <speed>0.0</speed>
  <fix>3d</fix>
</trkpt>
<trkpt lat="-27.274439" lon="151.290064">
  <ele>342.87</ele>
  <time>2026-09-01T19:52:01Z</time>
  <course>10.8</course>
  <speed>0.0</speed>
  <fix>3d</fix>
</trkpt>
<trkpt lat="-27.274439" lon="151.290064">
  <ele>343.1</ele>
  <time>2026-09-01T19:52:01Z</time>
  <course>270.0</course>
  <speed>0.0</speed>
  <fix>3d</fix>
</trkpt>
<trkpt lat="-27.274439" lon="151.290064">
  <ele>343.1</ele>
  <time>2026-09-01T19:52:01Z</time>
  <course>10.8</course>
  <speed>0.0</speed>
  <fix>3d</fix>
</trkpt>
<trkpt lat="-27.274439" lon="151.290064">
  <ele>343.1</ele>
  <time>2026-09-01T19:52:01Z</time>
  <course>270.0</course>
  <speed>0.0</speed>
  <fix>3d</fix>
</trkpt>
<trkpt lat="-27.274439" lon="151.290064">
  <ele>342.99</ele>
  <time>2026-09-01T19:52:01Z</time>
  <course>10.8</course>
  <speed>0.0</speed>
  <fix>3d</fix>
</trkpt>
<trkpt lat="-27.274439" lon="151.290064">
  <ele>343.1</ele>
  <time>2026-09-01T19:52:01Z</time>
  <course>270.0</course>
  <speed>0.0</speed>
  <fix>3d</fix>
</trkpt>
<trkpt lat="-27.274439" lon="151.290064">
  <ele>342.91</ele>
  <time>2026-09-01T19:52:01Z</time>
  <course>10.8</course>
  <speed>0.0</speed>
  <fix>3d</fix>
</trkpt>
<trkpt lat="-27.274439" lon="151.290064">
  <ele>343.1</ele>
  <time>2026-09-01T19:52:01Z</time>
  <course>270.0</course>
  <speed>0.0</speed>
  <fix>3d</fix>
</trkpt>
<trkpt lat="-27.274439" lon="151.290064">
  <ele>342.9</ele>
  <time>2026-09-01T19:52:01Z</time>
  <course>10.8</course>
  <speed>0.0</speed>
  <fix>3d</fix>
</trkpt>
<trkpt lat="-27.274439" lon="151.290064">
  <ele>343.1</ele>
  <time>2026-09-01T19:52:01Z</time>
  <course>270.0</course>
  <speed>0.0</speed>
  <fix>3d</fix>
</trkpt>
<trkpt lat="-27.274439" lon="151.290064">
  <ele>342.87</ele>
  <time>2026-09-01T19:52:01Z</time>
  <course>10.8</course>
  <speed>0.0</speed>
  <fix>3d</fix>
</trkpt>
<trkpt lat="-27.274439" lon="151.290064">
  <ele>343.1</ele>
  <time>2026-09-01T19:52:01Z</time>
  <course>270.0</course>
  <speed>0.0</speed>
  <fix>3d</fix>
</trkpt>
<trkpt lat="-27.274439" lon="151.290064">
  <ele>343.12</ele>
  <time>2026-09-01T19:52:01Z</time>
  <course>10.8</course>
  <speed>0.0</speed>
  <fix>3d</fix>
</trkpt>
<trkpt lat="-27.274439" lon="151.290064">
  <ele>343.1</ele>
  <time>2026-09-01T19:52:01Z</time>
  <course>270.0</course>
  <speed>0.0</speed>
  <fix>3d</fix>
</trkpt>
<trkpt lat="-27.274439" lon="151.290064">
  <ele>342.99</ele>
  <time>2026-09-01T19:52:01Z</time>
  <course>10.8</course>
  <speed>0.0</speed>
  <fix>3d</fix>
</trkpt>
<trkpt lat="-27.274439" lon="151.290064">
  <ele>343.1</ele>
  <time>2026-09-01T19:52:01Z</time>
  <course>270.0</course>
  <speed>0.0</speed>
  <fix>3d</fix>
</trkpt>
<trkpt lat="-27.274439" lon="151.290064">
  <ele>343.13</ele>
  <time>2026-09-01T19:52:01Z</time>
  <course>10.8</course>
  <speed>0.0</speed>
  <fix>3d</fix>
</trkpt>
<trkpt lat="-27.274439" lon="151.290064">
  <ele>343.1</ele>
  <time>2026-09-01T19:52:01Z</time>
  <course>270.0</course>
  <speed>0.0</speed>
  <fix>3d</fix>
</trkpt>
<trkpt lat="-27.274439" lon="151.290064">
  <ele>343.0</ele>
  <time>2026-09-01T19:52:01Z</time>
  <course>10.8</course>
  <speed>0.0</speed>
  <fix>3d</fix>
</trkpt>
<trkpt lat="-27.274439" lon="151.290064">
  <ele>343.1</ele>
  <time>2026-09-01T19:52:01Z</time>
  <course>270.0</course>
  <speed>0.0</speed>
  <fix>3d</fix>
</trkpt>
<trkpt lat="-27.274439" lon="151.290064">
  <ele>343.17</ele>
  <time>2026-09-01T19:52:01Z</time>
  <course>10.8</course>
  <speed>0.0</speed>
  <fix>3d</fix>
</trkpt>
<trkpt lat="-27.274439" lon="151.290064">
  <ele>343.1</ele>
  <time>2026-09-01T19:52:01Z</time>
  <course>270.0</course>
  <speed>0.0</speed>
  <fix>3d</fix>
</trkpt>
<trkpt lat="-27.274439" lon="151.290064">
  <ele>343.0</ele>
  <time>2026-09-01T19:52:01Z</time>
  <course>10.8</course>
  <speed>0.0</speed>
  <fix>3d</fix>
</trkpt>
<trkpt lat="-27.274439" lon="151.290064">
  <ele>343.1</ele>
  <time>2026-09-01T19:52:01Z</time>
  <course>270.0</course>
  <speed>0.0</speed>
  <fix>3d</fix>
</trkpt>
<trkpt lat="-27.274439" lon="151.290064">
  <ele>342.99</ele>
  <time>2026-09-01T19:52:01Z</time>
  <course>10.8</course>
  <speed>0.0</speed>
  <fix>3d</fix>
</trkpt>
<trkpt lat="-27.274439" lon="151.290064">
  <ele>343.1</ele>
  <time>2026-09-01T19:52:01Z</time>
  <course>270.0</course>
  <speed>0.0</speed>
  <fix>3d</fix>
</trkpt>
<trkpt lat="-27.274439" lon="151.290064">
  <ele>343.17</ele>
  <time>2026-09-01T19:52:01Z</time>
  <course>10.8</course>
  <speed>0.0</speed>
  <fix>3d</fix>
</trkpt>
<trkpt lat="-27.274439" lon="151.290064">
  <ele>343.1</ele>
  <time>2026-09-01T19:52:01Z</time>
  <course>270.0</course>
  <speed>0.0</speed>
  <fix>3d</fix>
</trkpt>
<trkpt lat="-27.274439" lon="151.290064">
  <ele>343.16</ele>
  <time>2026-09-01T19:52:01Z</time>
  <course>10.8</course>
  <speed>0.0</speed>
  <fix>3d</fix>
</trkpt>
<trkpt lat="-27.274439" lon="151.290064">
  <ele>343.1</ele>
  <time>2026-09-01T19:52:01Z</time>
  <course>270.0</course>
  <speed>0.0</speed>
  <fix>3d</fix>
</trkpt>
<trkpt lat="-27.274439" lon="151.290064">
  <ele>342.87</ele>
  <time>2026-09-01T19:52:01Z</time>
  <course>10.8</course>
  <speed>0.0</speed>
  <fix>3d</fix>
</trkpt>
<trkpt lat="-27.274439" lon="151.290064">
  <ele>343.1</ele>
  <time>2026-09-01T19:52:01Z</time>
  <course>270.0</course>
  <speed>0.0</speed>
  <fix>3d</fix>
</trkpt>
<trkpt lat="-27.274439" lon="151.290064">
  <ele>343.19</ele>
  <time>2026-09-01T19:52:01Z</time>
  <course>10.8</course>
  <speed>0.0</speed>
  <fix>3d</fix>
</trkpt>
<trkpt lat="-27.274439" lon="151.290064">
  <ele>343.1</ele>
  <time>2026-09-01T19:52:01Z</time>
  <course>270.0</course>
  <speed>0.0</speed>
  <fix>3d</fix>
</trkpt>
<trkpt lat="-27.274439" lon="151.290064">
  <ele>343.16</ele>
  <time>2026-09-01T19:52:01Z</time>
  <course>10.8</course>
  <speed>0.0</speed>
  <fix>3d</fix>
</trkpt>
<trkpt lat="-27.274439" lon="151.290064">
  <ele>343.1</ele>
  <time>2026-09-01T19:52:01Z</time>
  <course>270.0</course>
  <speed>0.0</speed>
  <fix>3d</fix>
</trkpt>
<trkpt lat="-27.274439" lon="151.290064">
  <ele>343.21</ele>
  <time>2026-09-01T19:52:01Z</time>
  <course>10.8</course>
  <speed>0.0</speed>
  <fix>3d</fix>
</trkpt>
<trkpt lat="-27.274439" lon="151.290064">
  <ele>343.1</ele>
  <time>2026-09-01T19:52:01Z</time>
  <course>270.0</course>
  <speed>0.0</speed>
  <fix>3d</fix>
</trkpt>
<trkpt lat="-27.274439" lon="151.290064">
  <ele>343.22</ele>
  <time>2026-09-01T19:52:01Z</time>
  <course>10.8</course>
  <speed>0.0</speed>
  <fix>3d</fix>
</trkpt>
<trkpt lat="-27.274439" lon="151.290064">
  <ele>343.1</ele>
  <time>2026-09-01T19:52:01Z</time>
  <course>270.0</course>
  <speed>0.0</speed>
  <fix>3d</fix>
</trkpt>
<trkpt lat="-27.274439" lon="151.290064">
  <ele>343.24</ele>
  <time>2026-09-01T19:52:01Z</time>
  <course>10.8</course>
  <speed>0.0</speed>
  <fix>3d</fix>
</trkpt>
<trkpt lat="-27.274439" lon="151.290064">
  <ele>343.1</ele>
  <time>2026-09-01T19:52:01Z</time>
  <course>270.0</course>
  <speed>0.0</speed>
  <fix>3d</fix>
</trkpt>
<trkpt lat="-27.274439" lon="151.290064">
  <ele>343.0</ele>
  <time>2026-09-01T19:52:01Z</time>
  <course>10.8</course>
  <speed>0.0</speed>
  <fix>3d</fix>
</trkpt>
<trkpt lat="-27.274439" lon="151.290064">
  <ele>343.1</ele>
  <time>2026-09-01T19:52:01Z</time>
  <course>270.0</course>
  <speed>0.0</speed>
  <fix>3d</fix>
</trkpt>
<trkpt lat="-27.274439" lon="151.290064">
  <ele>343.1</ele>
  <time>2026-09-01T19:52:01Z</time>
  <course>10.8</course>
  <speed>0.0</speed>
  <fix>3d</fix>
</trkpt>
<trkpt lat="-27.274439" lon="151.290064">
  <ele>343.1</ele>
  <time>2026-09-01T19:52:01Z</time>
  <course>270.0</course>
  <speed>0.0</speed>
  <fix>3d</fix>
</trkpt>
<trkpt lat="-27.274439" lon="151.290064">
  <ele>343.05</ele>
  <time>2026-09-01T19:52:01Z</time>
  <course>10.8</course>
  <speed>0.0</speed>
  <fix>3d</fix>
</trkpt>
<trkpt lat="-27.274439" lon="151.290064">
  <ele>343.1</ele>
  <time>2026-09-01T19:52:01Z</time>
  <course>270.0</course>
  <speed>0.0</speed>
  <fix>3d</fix>
</trkpt>
<trkpt lat="-27.274439" lon="151.290064">
  <ele>342.87</ele>
  <time>2026-09-01T19:52:01Z</time>
  <course>10.8</course>
  <speed>0.0</speed>
  <fix>3d</fix>
</trkpt>
<trkpt lat="-27.274439" lon="151.290064">
  <ele>343.1</ele>
  <time>2026-09-01T19:52:01Z</time>
  <course>270.0</course>
  <speed>0.0</speed>
  <fix>3d</fix>
</trkpt>
<trkpt lat="-27.274439" lon="151.290064">
  <ele>342.92</ele>
  <time>2026-09-01T19:52:01Z</time>
  <course>10.8</course>
  <speed>0.0</speed>
  <fix>3d</fix>
</trkpt>
<trkpt lat="-27.274439" lon="151.290064">
  <ele>343.1</ele>
  <time>2026-09-01T19:52:01Z</time>
  <course>270.0</course>
  <speed>0.0</speed>
  <fix>3d</fix>
</trkpt>
<trkpt lat="-27.274439" lon="151.290064">
  <ele>342.96</ele>
  <time>2026-09-01T19:52:01Z</time>
  <course>10.8</course>
  <speed>0.0</speed>
  <fix>3d</fix>
</trkpt>
<trkpt lat="-27.274439" lon="151.290064">
  <ele>343.1</ele>
  <time>2026-09-01T19:52:01Z</time>
  <course>270.0</course>
  <speed>0.0</speed>
  <fix>3d</fix>
</trkpt>
<trkpt lat="-27.274439" lon="151.290064">
  <ele>343.15</ele>
  <time>2026-09-01T19:52:01Z</time>
  <course>10.8</course>
  <speed>0.0</speed>
  <fix>3d</fix>
</trkpt>
<trkpt lat="-27.274439" lon="151.290064">
  <ele>343.1</ele>
  <time>2026-09-01T19:52:01Z</time>
  <course>270.0</course>
  <speed>0.0</speed>
  <fix>3d</fix>
</trkpt>
<trkpt lat="-27.274439" lon="151.290064">
  <ele>343.16</ele>
  <time>2026-09-01T19:52:01Z</time>
  <course>10.8</course>
  <speed>0.0</speed>
  <fix>3d</fix>
</trkpt>
<trkpt lat="-27.274439" lon="151.290064">
  <ele>343.1</ele>
  <time>2026-09-01T19:52:01Z</time>
  <course>270.0</course>
  <speed>0.0</speed>
  <fix>3d</fix>
</trkpt>
<trkpt lat="-27.274439" lon="151.290064">
  <ele>343.2</ele>
  <time>2026-09-01T19:52:01Z</time>
  <course>10.81</course>
  <speed>0.0</speed>
  <fix>3d</fix>
</trkpt>
<trkpt lat="-27.274439" lon="151.290064">
  <ele>343.1</ele>
  <time>2026-09-01T19:52:01Z</time>
  <course>270.0</course>
  <speed>0.0</speed>
  <fix>3d</fix>
</trkpt>
<trkpt lat="-27.274439" lon="151.290064">
  <ele>343.13</ele>
  <time>2026-09-01T19:52:01Z</time>
  <course>10.82</course>
  <speed>0.0</speed>
  <fix>3d</fix>
</trkpt>
<trkpt lat="-27.274439" lon="151.290064">
  <ele>343.1</ele>
  <time>2026-09-01T19:52:01Z</time>
  <course>270.0</course>
  <speed>0.0</speed>
  <fix>3d</fix>
</trkpt>
<trkpt lat="-27.274439" lon="151.290064">
  <ele>343.09</ele>
  <time>2026-09-01T19:52:01Z</time>
  <course>10.71</course>
  <speed>0.0</speed>
  <fix>3d</fix>
</trkpt>
<trkpt lat="-27.274439" lon="151.290064">
  <ele>343.1</ele>
  <time>2026-09-01T19:52:01Z</time>
  <course>270.0</course>
  <speed>0.0</speed>
  <fix>3d</fix>
</trkpt>
<trkpt lat="-27.274439" lon="151.290064">
  <ele>343.09</ele>
  <time>2026-09-01T19:52:01Z</time>
  <course>10.71</course>
  <speed>0.0</speed>
  <fix>3d</fix>
</trkpt>
<trkpt lat="-27.274439" lon="151.290064">
  <ele>343.1</ele>
  <time>2026-09-01T19:52:01Z</time>
  <course>270.0</course>
  <speed>0.0</speed>
  <fix>3d</fix>
</trkpt>
<trkpt lat="-27.274439" lon="151.290064">
  <ele>343.1</ele>
  <time>2026-09-01T19:52:01Z</time>
  <course>10.71</course>
  <speed>0.0</speed>
  <fix>3d</fix>
</trkpt>
<trkpt lat="-27.274439" lon="151.290064">
  <ele>343.1</ele>
  <time>2026-09-01T19:52:01Z</time>
  <course>270.0</course>
  <speed>0.0</speed>
  <fix>3d</fix>
</trkpt>
<trkpt lat="-27.274439" lon="151.290064">
  <ele>343.1</ele>
  <time>2026-09-01T19:52:01Z</time>
  <course>10.71</course>
  <speed>0.0</speed>
  <fix>3d</fix>
</trkpt>
<trkpt lat="-27.274439" lon="151.290064">
  <ele>343.1</ele>
  <time>2026-09-01T19:52:01Z</time>
  <course>270.0</course>
  <speed>0.0</speed>
  <fix>3d</fix>
</trkpt>
<trkpt lat="-27.274439" lon="151.290064">
  <ele>343.1</ele>
  <time>2026-09-01T19:52:01Z</time>
  <course>10.71</course>
  <speed>0.0</speed>
  <fix>3d</fix>
</trkpt>
<trkpt lat="-27.274439" lon="151.290064">
  <ele>343.1</ele>
  <time>2026-09-01T19:52:01Z</time>
  <course>270.0</course>
  <speed>0.0</speed>
  <fix>3d</fix>
</trkpt>
<trkpt lat="-27.274439" lon="151.290064">
  <ele>343.1</ele>
  <time>2026-09-01T19:52:01Z</time>
  <course>10.71</course>
  <speed>0.0</speed>
  <fix>3d</fix>
</trkpt>
<trkpt lat="-27.274439" lon="151.290064">
  <ele>343.1</ele>
  <time>2026-09-01T19:52:01Z</time>
  <course>270.0</course>
  <speed>0.0</speed>
  <fix>3d</fix>
</trkpt>
<trkpt lat="-27.274439" lon="151.290064">
  <ele>343.1</ele>
  <time>2026-09-01T19:52:01Z</time>
  <course>10.71</course>
  <speed>0.0</speed>
  <fix>3d</fix>
</trkpt>
<trkpt lat="-27.274439" lon="151.290064">
  <ele>343.1</ele>
  <time>2026-09-01T19:52:01Z</time>
  <course>270.0</course>
  <speed>0.0</speed>
  <fix>3d</fix>
</trkpt>
<trkpt lat="-27.274439" lon="151.290064">
  <ele>343.11</ele>
  <time>2026-09-01T19:52:01Z</time>
  <course>10.71</course>
  <speed>0.0</speed>
  <fix>3d</fix>
</trkpt>
<trkpt lat="-27.274439" lon="151.290064">
  <ele>343.1</ele>
  <time>2026-09-01T19:52:01Z</time>
  <course>270.0</course>
  <speed>0.0</speed>
  <fix>3d</fix>
</trkpt>
<trkpt lat="-27.274439" lon="151.290064">
  <ele>343.11</ele>
  <time>2026-09-01T19:52:01Z</time>
  <course>10.71</course>
  <speed>0.0</speed>
  <fix>3d</fix>
</trkpt>
<trkpt lat="-27.274439" lon="151.290064">
  <ele>343.1</ele>
  <time>2026-09-01T19:52:01Z</time>
  <course>270.0</course>
  <speed>0.0</speed>
  <fix>3d</fix>
</trkpt>
<trkpt lat="-27.274439" lon="151.290064">
  <ele>343.11</ele>
  <time>2026-09-01T19:52:01Z</time>
  <course>10.71</course>
  <speed>0.0</speed>
  <fix>3d</fix>
</trkpt>
<trkpt lat="-27.274439" lon="151.290064">
  <ele>343.1</ele>
  <time>2026-09-01T19:52:01Z</time>
  <course>270.0</course>
  <speed>0.0</speed>
  <fix>3d</fix>
</trkpt>
<trkpt lat="-27.274439" lon="151.290064">
  <ele>343.12</ele>
  <time>2026-09-01T19:52:01Z</time>
  <course>10.71</course>
  <speed>0.0</speed>
  <fix>3d</fix>
</trkpt>
<trkpt lat="-27.274439" lon="151.290064">
  <ele>343.1</ele>
  <time>2026-09-01T19:52:01Z</time>
  <course>270.0</course>
  <speed>0.0</speed>
  <fix>3d</fix>
</trkpt>
<trkpt lat="-27.274439" lon="151.290064">
  <ele>343.12</ele>
  <time>2026-09-01T19:52:01Z</time>
  <course>10.71</course>
  <speed>0.0</speed>
  <fix>3d</fix>
</trkpt>
<trkpt lat="-27.274439" lon="151.290064">
  <ele>343.1</ele>
  <time>2026-09-01T19:52:01Z</time>
  <course>270.0</course>
  <speed>0.0</speed>
  <fix>3d</fix>
</trkpt>
<trkpt lat="-27.274439" lon="151.290064">
  <ele>343.1</ele>
  <time>2026-09-01T19:52:01Z</time>
  <course>10.71</course>
  <speed>0.0</speed>
  <fix>3d</fix>
</trkpt>
<trkpt lat="-27.274439" lon="151.290064">
  <ele>343.1</ele>
  <time>2026-09-01T19:52:01Z</time>
  <course>270.0</course>
  <speed>0.0</speed>
  <fix>3d</fix>
</trkpt>
<trkpt lat="-27.274439" lon="151.290064">
  <ele>343.1</ele>
  <time>2026-09-01T19:52:01Z</time>
  <course>10.71</course>
  <speed>0.0</speed>
  <fix>3d</fix>
</trkpt>
<trkpt lat="-27.274439" lon="151.290064">
  <ele>343.1</ele>
  <time>2026-09-01T19:52:01Z</time>
  <course>270.0</course>
  <speed>0.0</speed>
  <fix>3d</fix>
</trkpt>
<trkpt lat="-27.274439" lon="151.290064">
  <ele>343.1</ele>
  <time>2026-09-01T19:52:01Z</time>
  <course>10.71</course>
  <speed>0.0</speed>
  <fix>3d</fix>
</trkpt>
<trkpt lat="-27.274439" lon="151.290064">
  <ele>343.1</ele>
  <time>2026-09-01T19:52:01Z</time>
  <course>270.0</course>
  <speed>0.0</speed>
  <fix>3d</fix>
</trkpt>
<trkpt lat="-27.274439" lon="151.290064">
  <ele>343.09</ele>
  <time>2026-09-01T19:52:01Z</time>
  <course>10.71</course>
  <speed>0.0</speed>
  <fix>3d</fix>
</trkpt>
<trkpt lat="-27.274439" lon="151.290064">
  <ele>343.1</ele>
  <time>2026-09-01T19:52:01Z</time>
  <course>270.0</course>
  <speed>0.0</speed>
  <fix>3d</fix>
</trkpt>
<trkpt lat="-27.274439" lon="151.290064">
  <ele>343.09</ele>
  <time>2026-09-01T19:52:01Z</time>
  <course>10.71</course>
  <speed>0.0</speed>
  <fix>3d</fix>
</trkpt>
<trkpt lat="-27.274439" lon="151.290064">
  <ele>343.1</ele>
  <time>2026-09-01T19:52:01Z</time>
  <course>270.0</course>
  <speed>0.0</speed>
  <fix>3d</fix>
</trkpt>
<trkpt lat="-27.274439" lon="151.290064">
  <ele>343.09</ele>
  <time>2026-09-01T19:52:01Z</time>
  <course>10.71</course>
  <speed>0.0</speed>
  <fix>3d</fix>
</trkpt>
<trkpt lat="-27.274439" lon="151.290064">
  <ele>343.1</ele>
  <time>2026-09-01T19:52:01Z</time>
  <course>270.0</course>
  <speed>0.0</speed>
  <fix>3d</fix>
</trkpt>
<trkpt lat="-27.274439" lon="151.290064">
  <ele>343.1</ele>
  <time>2026-09-01T19:52:01Z</time>
  <course>10.71</course>
  <speed>0.0</speed>
  <fix>3d</fix>
</trkpt>
<trkpt lat="-27.274439" lon="151.290064">
  <ele>343.1</ele>
  <time>2026-09-01T19:52:01Z</time>
  <course>270.0</course>
  <speed>0.0</speed>
  <fix>3d</fix>
</trkpt>
<trkpt lat="-27.274439" lon="151.290064">
  <ele>343.1</ele>
  <time>2026-09-01T19:52:01Z</time>
  <course>10.71</course>
  <speed>0.0</speed>
  <fix>3d</fix>
</trkpt>
<trkpt lat="-27.274439" lon="151.290064">
  <ele>343.1</ele>
  <time>2026-09-01T19:52:01Z</time>
  <course>270.0</course>
  <speed>0.0</speed>
  <fix>3d</fix>
</trkpt>
<trkpt lat="-27.274439" lon="151.290064">
  <ele>343.09</ele>
  <time>2026-09-01T19:52:01Z</time>
  <course>10.71</course>
  <speed>0.0</speed>
  <fix>3d</fix>
</trkpt>
<trkpt lat="-27.274439" lon="151.290064">
  <ele>343.1</ele>
  <time>2026-09-01T19:52:01Z</time>
  <course>270.0</course>
  <speed>0.0</speed>
  <fix>3d</fix>
</trkpt>
<trkpt lat="-27.274439" lon="151.290064">
  <ele>343.09</ele>
  <time>2026-09-01T19:52:01Z</time>
  <course>10.71</course>
  <speed>0.0</speed>
  <fix>3d</fix>
</trkpt>
<trkpt lat="-27.274439" lon="151.290064">
  <ele>343.1</ele>
  <time>2026-09-01T19:52:01Z</time>
  <course>270.0</course>
  <speed>0.0</speed>
  <fix>3d</fix>
</trkpt>
<trkpt lat="-27.274439" lon="151.290064">
  <ele>343.09</ele>
  <time>2026-09-01T19:52:01Z</time>
  <course>10.71</course>
  <speed>0.0</speed>
  <fix>3d</fix>
</trkpt>
<trkpt lat="-27.274439" lon="151.290064">
  <ele>343.1</ele>
  <time>2026-09-01T19:52:02Z</time>
  <course>270.0</course>
  <speed>0.0</speed>
  <fix>3d</fix>
</trkpt>
<trkpt lat="-27.274439" lon="151.290064">
  <ele>343.09</ele>
  <time>2026-09-01T19:52:02Z</time>
  <course>10.71</course>
  <speed>0.0</speed>
  <fix>3d</fix>
</trkpt>
<trkpt lat="-27.274439" lon="151.290064">
  <ele>343.1</ele>
  <time>2026-09-01T19:52:02Z</time>
  <course>270.0</course>
  <speed>0.0</speed>
  <fix>3d</fix>
</trkpt>
<trkpt lat="-27.274439" lon="151.290064">
  <ele>343.09</ele>
  <time>2026-09-01T19:52:02Z</time>
  <course>10.71</course>
  <speed>0.0</speed>
  <fix>3d</fix>
</trkpt>
<trkpt lat="-27.274439" lon="151.290064">
  <ele>343.1</ele>
  <time>2026-09-01T19:52:02Z</time>
  <course>270.0</course>
  <speed>0.0</speed>
  <fix>3d</fix>
</trkpt>
<trkpt lat="-27.274439" lon="151.290064">
  <ele>343.09</ele>
  <time>2026-09-01T19:52:02Z</time>
  <course>10.71</course>
  <speed>0.0</speed>
  <fix>3d</fix>
</trkpt>
<trkpt lat="-27.274439" lon="151.290064">
  <ele>343.1</ele>
  <time>2026-09-01T19:52:02Z</time>
  <course>270.0</course>
  <speed>0.0</speed>
  <fix>3d</fix>
</trkpt>
<trkpt lat="-27.274439" lon="151.290064">
  <ele>343.09</ele>
  <time>2026-09-01T19:52:02Z</time>
  <course>10.71</course>
  <speed>0.0</speed>
  <fix>3d</fix>
</trkpt>
<trkpt lat="-27.274439" lon="151.290064">
  <ele>343.1</ele>
  <time>2026-09-01T19:52:02Z</time>
  <course>270.0</course>
  <speed>0.0</speed>
  <fix>3d</fix>
</trkpt>
<trkpt lat="-27.274439" lon="151.290064">
  <ele>343.09</ele>
  <time>2026-09-01T19:52:02Z</time>
  <course>10.71</course>
  <speed>0.0</speed>
  <fix>3d</fix>
</trkpt>
<trkpt lat="-27.274439" lon="151.290064">
  <ele>343.1</ele>
  <time>2026-09-01T19:52:02Z</time>
  <course>270.0</course>
  <speed>0.0</speed>
  <fix>3d</fix>
</trkpt>
<trkpt lat="-27.274439" lon="151.290064">
  <ele>343.1</ele>
  <time>2026-09-01T19:52:02Z</time>
  <course>10.71</course>
  <speed>0.0</speed>
  <fix>3d</fix>
</trkpt>
<trkpt lat="-27.274439" lon="151.290064">
  <ele>343.1</ele>
  <time>2026-09-01T19:52:02Z</time>
  <course>270.0</course>
  <speed>0.0</speed>
  <fix>3d</fix>
</trkpt>
<trkpt lat="-27.274439" lon="151.290064">
  <ele>343.1</ele>
  <time>2026-09-01T19:52:02Z</time>
  <course>10.71</course>
  <speed>0.0</speed>
  <fix>3d</fix>
</trkpt>
<trkpt lat="-27.274439" lon="151.290064">
  <ele>343.1</ele>
  <time>2026-09-01T19:52:02Z</time>
  <course>270.0</course>
  <speed>0.0</speed>
  <fix>3d</fix>
</trkpt>
<trkpt lat="-27.274439" lon="151.290064">
  <ele>343.1</ele>
  <time>2026-09-01T19:52:02Z</time>
  <course>10.71</course>
  <speed>0.0</speed>
  <fix>3d</fix>
</trkpt>
<trkpt lat="-27.274439" lon="151.290064">
  <ele>343.1</ele>
  <time>2026-09-01T19:52:02Z</time>
  <course>270.0</course>
  <speed>0.0</speed>
  <fix>3d</fix>
</trkpt>
<trkpt lat="-27.274439" lon="151.290064">
  <ele>343.1</ele>
  <time>2026-09-01T19:52:02Z</time>
  <course>10.71</course>
  <speed>0.0</speed>
  <fix>3d</fix>
</trkpt>
<trkpt lat="-27.274439" lon="151.290064">
  <ele>343.1</ele>
  <time>2026-09-01T19:52:02Z</time>
  <course>270.0</course>
  <speed>0.0</speed>
  <fix>3d</fix>
</trkpt>
<trkpt lat="-27.274439" lon="151.290064">
  <ele>343.11</ele>
  <time>2026-09-01T19:52:02Z</time>
  <course>10.71</course>
  <speed>0.0</speed>
  <fix>3d</fix>
</trkpt>
<trkpt lat="-27.274439" lon="151.290064">
  <ele>343.1</ele>
  <time>2026-09-01T19:52:02Z</time>
  <course>270.0</course>
  <speed>0.0</speed>
  <fix>3d</fix>
</trkpt>
<trkpt lat="-27.274439" lon="151.290064">
  <ele>343.11</ele>
  <time>2026-09-01T19:52:02Z</time>
  <course>10.71</course>
  <speed>0.0</speed>
  <fix>3d</fix>
</trkpt>
<trkpt lat="-27.274439" lon="151.290064">
  <ele>343.1</ele>
  <time>2026-09-01T19:52:02Z</time>
  <course>270.0</course>
  <speed>0.0</speed>
  <fix>3d</fix>
</trkpt>
<trkpt lat="-27.274439" lon="151.290064">
  <ele>343.11</ele>
  <time>2026-09-01T19:52:02Z</time>
  <course>10.71</course>
  <speed>0.0</speed>
  <fix>3d</fix>
</trkpt>
<trkpt lat="-27.274439" lon="151.290064">
  <ele>343.1</ele>
  <time>2026-09-01T19:52:02Z</time>
  <course>270.0</course>
  <speed>0.0</speed>
  <fix>3d</fix>
</trkpt>
<trkpt lat="-27.274439" lon="151.290064">
  <ele>343.11</ele>
  <time>2026-09-01T19:52:02Z</time>
  <course>10.71</course>
  <speed>0.0</speed>
  <fix>3d</fix>
</trkpt>
<trkpt lat="-27.274439" lon="151.290064">
  <ele>343.1</ele>
  <time>2026-09-01T19:52:02Z</time>
  <course>270.0</course>
  <speed>0.0</speed>
  <fix>3d</fix>
</trkpt>
<trkpt lat="-27.274439" lon="151.290064">
  <ele>343.12</ele>
  <time>2026-09-01T19:52:02Z</time>
  <course>10.71</course>
  <speed>0.0</speed>
  <fix>3d</fix>
</trkpt>
<trkpt lat="-27.274439" lon="151.290064">
  <ele>343.1</ele>
  <time>2026-09-01T19:52:02Z</time>
  <course>270.0</course>
  <speed>0.0</speed>
  <fix>3d</fix>
</trkpt>
<trkpt lat="-27.274439" lon="151.290064">
  <ele>343.12</ele>
  <time>2026-09-01T19:52:02Z</time>
  <course>10.71</course>
  <speed>0.0</speed>
  <fix>3d</fix>
</trkpt>
<trkpt lat="-27.274439" lon="151.290064">
  <ele>343.1</ele>
  <time>2026-09-01T19:52:02Z</time>
  <course>270.0</course>
  <speed>0.0</speed>
  <fix>3d</fix>
</trkpt>
<trkpt lat="-27.274439" lon="151.290064">
  <ele>343.12</ele>
  <time>2026-09-01T19:52:02Z</time>
  <course>10.71</course>
  <speed>0.0</speed>
  <fix>3d</fix>
</trkpt>
<trkpt lat="-27.274439" lon="151.290064">
  <ele>343.1</ele>
  <time>2026-09-01T19:52:02Z</time>
  <course>270.0</course>
  <speed>0.0</speed>
  <fix>3d</fix>
</trkpt>
<trkpt lat="-27.274439" lon="151.290064">
  <ele>343.12</ele>
  <time>2026-09-01T19:52:02Z</time>
  <course>10.71</course>
  <speed>0.0</speed>
  <fix>3d</fix>
</trkpt>
<trkpt lat="-27.274439" lon="151.290064">
  <ele>343.1</ele>
  <time>2026-09-01T19:52:02Z</time>
  <course>270.0</course>
  <speed>0.0</speed>
  <fix>3d</fix>
</trkpt>
<trkpt lat="-27.274439" lon="151.290064">
  <ele>343.12</ele>
  <time>2026-09-01T19:52:02Z</time>
  <course>10.71</course>
  <speed>0.0</speed>
  <fix>3d</fix>
</trkpt>
<trkpt lat="-27.274439" lon="151.290064">
  <ele>343.1</ele>
  <time>2026-09-01T19:52:02Z</time>
  <course>270.0</course>
  <speed>0.0</speed>
  <fix>3d</fix>
</trkpt>
<trkpt lat="-27.274439" lon="151.290064">
  <ele>343.13</ele>
  <time>2026-09-01T19:52:02Z</time>
  <course>10.71</course>
  <speed>0.0</speed>
  <fix>3d</fix>
</trkpt>
<trkpt lat="-27.274439" lon="151.290064">
  <ele>343.1</ele>
  <time>2026-09-01T19:52:02Z</time>
  <course>270.0</course>
  <speed>0.0</speed>
  <fix>3d</fix>
</trkpt>
<trkpt lat="-27.274439" lon="151.290064">
  <ele>343.13</ele>
  <time>2026-09-01T19:52:02Z</time>
  <course>10.71</course>
  <speed>0.0</speed>
  <fix>3d</fix>
</trkpt>
<trkpt lat="-27.274439" lon="151.290064">
  <ele>343.1</ele>
  <time>2026-09-01T19:52:02Z</time>
  <course>270.0</course>
  <speed>0.0</speed>
  <fix>3d</fix>
</trkpt>
<trkpt lat="-27.274439" lon="151.290064">
  <ele>343.13</ele>
  <time>2026-09-01T19:52:02Z</time>
  <course>10.71</course>
  <speed>0.0</speed>
  <fix>3d</fix>
</trkpt>
<trkpt lat="-27.274439" lon="151.290064">
  <ele>343.1</ele>
  <time>2026-09-01T19:52:02Z</time>
  <course>270.0</course>
  <speed>0.0</speed>
  <fix>3d</fix>
</trkpt>
<trkpt lat="-27.274439" lon="151.290064">
  <ele>343.13</ele>
  <time>2026-09-01T19:52:02Z</time>
  <course>10.71</course>
  <speed>0.0</speed>
  <fix>3d</fix>
</trkpt>
<trkpt lat="-27.274439" lon="151.290064">
  <ele>343.1</ele>
  <time>2026-09-01T19:52:02Z</time>
  <course>270.0</course>
  <speed>0.0</speed>
  <fix>3d</fix>
</trkpt>
<trkpt lat="-27.274439" lon="151.290064">
  <ele>343.14</ele>
  <time>2026-09-01T19:52:02Z</time>
  <course>10.71</course>
  <speed>0.0</speed>
  <fix>3d</fix>
</trkpt>
<trkpt lat="-27.274439" lon="151.290064">
  <ele>343.1</ele>
  <time>2026-09-01T19:52:02Z</time>
  <course>270.0</course>
  <speed>0.0</speed>
  <fix>3d</fix>
</trkpt>
<trkpt lat="-27.274439" lon="151.290064">
  <ele>343.14</ele>
  <time>2026-09-01T19:52:02Z</time>
  <course>10.71</course>
  <speed>0.0</speed>
  <fix>3d</fix>
</trkpt>
<trkpt lat="-27.274439" lon="151.290064">
  <ele>343.1</ele>
  <time>2026-09-01T19:52:02Z</time>
  <course>270.0</course>
  <speed>0.0</speed>
  <fix>3d</fix>
</trkpt>
<trkpt lat="-27.274439" lon="151.290064">
  <ele>343.14</ele>
  <time>2026-09-01T19:52:02Z</time>
  <course>10.71</course>
  <speed>0.0</speed>
  <fix>3d</fix>
</trkpt>
<trkpt lat="-27.274439" lon="151.290064">
  <ele>343.1</ele>
  <time>2026-09-01T19:52:02Z</time>
  <course>270.0</course>
  <speed>0.0</speed>
  <fix>3d</fix>
</trkpt>
<trkpt lat="-27.274439" lon="151.290064">
  <ele>343.14</ele>
  <time>2026-09-01T19:52:02Z</time>
  <course>10.71</course>
  <speed>0.0</speed>
  <fix>3d</fix>
</trkpt>
<trkpt lat="-27.274439" lon="151.290064">
  <ele>343.1</ele>
  <time>2026-09-01T19:52:02Z</time>
  <course>270.0</course>
  <speed>0.0</speed>
  <fix>3d</fix>
</trkpt>
<trkpt lat="-27.274439" lon="151.290064">
  <ele>343.14</ele>
  <time>2026-09-01T19:52:02Z</time>
  <course>10.71</course>
  <speed>0.0</speed>
  <fix>3d</fix>
</trkpt>
<trkpt lat="-27.274439" lon="151.290064">
  <ele>343.1</ele>
  <time>2026-09-01T19:52:02Z</time>
  <course>270.0</course>
  <speed>0.0</speed>
  <fix>3d</fix>
</trkpt>
<trkpt lat="-27.274439" lon="151.290064">
  <ele>343.1</ele>
  <time>2026-09-01T19:52:02Z</time>
  <course>10.71</course>
  <speed>0.0</speed>
  <fix>3d</fix>
</trkpt>
<trkpt lat="-27.274439" lon="151.290064">
  <ele>343.1</ele>
  <time>2026-09-01T19:52:02Z</time>
  <course>270.0</course>
  <speed>0.0</speed>
  <fix>3d</fix>
</trkpt>
<trkpt lat="-27.274439" lon="151.290064">
  <ele>343.09</ele>
  <time>2026-09-01T19:52:02Z</time>
  <course>10.71</course>
  <speed>0.0</speed>
  <fix>3d</fix>
</trkpt>
<trkpt lat="-27.274439" lon="151.290064">
  <ele>343.1</ele>
  <time>2026-09-01T19:52:02Z</time>
  <course>270.0</course>
  <speed>0.0</speed>
  <fix>3d</fix>
</trkpt>
<trkpt lat="-27.274439" lon="151.290064">
  <ele>343.09</ele>
  <time>2026-09-01T19:52:02Z</time>
  <course>10.71</course>
  <speed>0.0</speed>
  <fix>3d</fix>
</trkpt>
<trkpt lat="-27.274439" lon="151.290064">
  <ele>343.1</ele>
  <time>2026-09-01T19:52:02Z</time>
  <course>270.0</course>
  <speed>0.0</speed>
  <fix>3d</fix>
</trkpt>
<trkpt lat="-27.274439" lon="151.290064">
  <ele>343.09</ele>
  <time>2026-09-01T19:52:02Z</time>
  <course>10.71</course>
  <speed>0.0</speed>
  <fix>3d</fix>
</trkpt>
<trkpt lat="-27.274439" lon="151.290064">
  <ele>343.1</ele>
  <time>2026-09-01T19:52:02Z</time>
  <course>270.0</course>
  <speed>0.0</speed>
  <fix>3d</fix>
</trkpt>
<trkpt lat="-27.274439" lon="151.290064">
  <ele>343.1</ele>
  <time>2026-09-01T19:52:02Z</time>
  <course>10.71</course>
  <speed>0.0</speed>
  <fix>3d</fix>
</trkpt>
<trkpt lat="-27.274439" lon="151.290064">
  <ele>343.1</ele>
  <time>2026-09-01T19:52:02Z</time>
  <course>270.0</course>
  <speed>0.0</speed>
  <fix>3d</fix>
</trkpt>
<trkpt lat="-27.274439" lon="151.290064">
  <ele>343.1</ele>
  <time>2026-09-01T19:52:02Z</time>
  <course>10.71</course>
  <speed>0.0</speed>
  <fix>3d</fix>
</trkpt>
<trkpt lat="-27.274439" lon="151.290064">
  <ele>343.1</ele>
  <time>2026-09-01T19:52:02Z</time>
  <course>270.0</course>
  <speed>0.0</speed>
  <fix>3d</fix>
</trkpt>
<trkpt lat="-27.274439" lon="151.290064">
  <ele>343.1</ele>
  <time>2026-09-01T19:52:02Z</time>
  <course>10.71</course>
  <speed>0.0</speed>
  <fix>3d</fix>
</trkpt>
<trkpt lat="-27.274439" lon="151.290064">
  <ele>343.1</ele>
  <time>2026-09-01T19:52:02Z</time>
  <course>270.0</course>
  <speed>0.0</speed>
  <fix>3d</fix>
</trkpt>
<trkpt lat="-27.274439" lon="151.290064">
  <ele>343.1</ele>
  <time>2026-09-01T19:52:02Z</time>
  <course>10.71</course>
  <speed>0.0</speed>
  <fix>3d</fix>
</trkpt>
<trkpt lat="-27.274439" lon="151.290064">
  <ele>343.1</ele>
  <time>2026-09-01T19:52:02Z</time>
  <course>270.0</course>
  <speed>0.0</speed>
  <fix>3d</fix>
</trkpt>
<trkpt lat="-27.274439" lon="151.290064">
  <ele>343.1</ele>
  <time>2026-09-01T19:52:02Z</time>
  <course>10.71</course>
  <speed>0.0</speed>
  <fix>3d</fix>
</trkpt>
<trkpt lat="-27.274439" lon="151.290064">
  <ele>343.1</ele>
  <time>2026-09-01T19:52:02Z</time>
  <course>270.0</course>
  <speed>0.0</speed>
  <fix>3d</fix>
</trkpt>
<trkpt lat="-27.274439" lon="151.290064">
  <ele>343.1</ele>
  <time>2026-09-01T19:52:02Z</time>
  <course>10.71</course>
  <speed>0.0</speed>
  <fix>3d</fix>
</trkpt>
<trkpt lat="-27.274439" lon="151.290064">
  <ele>343.1</ele>
  <time>2026-09-01T19:52:02Z</time>
  <course>270.0</course>
  <speed>0.0</speed>
  <fix>3d</fix>
</trkpt>
<trkpt lat="-27.274439" lon="151.290064">
  <ele>343.1</ele>
  <time>2026-09-01T19:52:02Z</time>
  <course>10.71</course>
  <speed>0.0</speed>
  <fix>3d</fix>
</trkpt>
<trkpt lat="-27.274439" lon="151.290064">
  <ele>343.1</ele>
  <time>2026-09-01T19:52:02Z</time>
  <course>270.0</course>
  <speed>0.0</speed>
  <fix>3d</fix>
</trkpt>
<trkpt lat="-27.274439" lon="151.290064">
  <ele>343.1</ele>
  <time>2026-09-01T19:52:02Z</time>
  <course>10.71</course>
  <speed>0.0</speed>
  <fix>3d</fix>
</trkpt>
<trkpt lat="-27.274439" lon="151.290064">
  <ele>343.1</ele>
  <time>2026-09-01T19:52:02Z</time>
  <course>270.0</course>
  <speed>0.0</speed>
  <fix>3d</fix>
</trkpt>
<trkpt lat="-27.274439" lon="151.290064">
  <ele>343.1</ele>
  <time>2026-09-01T19:52:02Z</time>
  <course>10.71</course>
  <speed>0.0</speed>
  <fix>3d</fix>
</trkpt>
<trkpt lat="-27.274439" lon="151.290064">
  <ele>343.1</ele>
  <time>2026-09-01T19:52:02Z</time>
  <course>270.0</course>
  <speed>0.0</speed>
  <fix>3d</fix>
</trkpt>
<trkpt lat="-27.274439" lon="151.290064">
  <ele>343.1</ele>
  <time>2026-09-01T19:52:02Z</time>
  <course>10.71</course>
  <speed>0.0</speed>
  <fix>3d</fix>
</trkpt>
<trkpt lat="-27.274439" lon="151.290064">
  <ele>343.1</ele>
  <time>2026-09-01T19:52:02Z</time>
  <course>270.0</course>
  <speed>0.0</speed>
  <fix>3d</fix>
</trkpt>
<trkpt lat="-27.274439" lon="151.290064">
  <ele>343.1</ele>
  <time>2026-09-01T19:52:02Z</time>
  <course>10.71</course>
  <speed>0.0</speed>
  <fix>3d</fix>
</trkpt>
<trkpt lat="-27.274439" lon="151.290064">
  <ele>343.1</ele>
  <time>2026-09-01T19:52:02Z</time>
  <course>270.0</course>
  <speed>0.0</speed>
  <fix>3d</fix>
</trkpt>
<trkpt lat="-27.274439" lon="151.290064">
  <ele>343.1</ele>
  <time>2026-09-01T19:52:02Z</time>
  <course>10.71</course>
  <speed>0.0</speed>
  <fix>3d</fix>
</trkpt>
<trkpt lat="-27.274439" lon="151.290064">
  <ele>343.1</ele>
  <time>2026-09-01T19:52:02Z</time>
  <course>270.0</course>
  <speed>0.0</speed>
  <fix>3d</fix>
</trkpt>
<trkpt lat="-27.274439" lon="151.290064">
  <ele>343.1</ele>
  <time>2026-09-01T19:52:02Z</time>
  <course>10.71</course>
  <speed>0.0</speed>
  <fix>3d</fix>
</trkpt>
<trkpt lat="-27.274439" lon="151.290064">
  <ele>343.1</ele>
  <time>2026-09-01T19:52:02Z</time>
  <course>270.0</course>
  <speed>0.0</speed>
  <fix>3d</fix>
</trkpt>
<trkpt lat="-27.274439" lon="151.290064">
  <ele>343.1</ele>
  <time>2026-09-01T19:52:02Z</time>
  <course>10.71</course>
  <speed>0.0</speed>
  <fix>3d</fix>
</trkpt>
<trkpt lat="-27.274439" lon="151.290064">
  <ele>343.1</ele>
  <time>2026-09-01T19:52:02Z</time>
  <course>270.0</course>
  <speed>0.0</speed>
  <fix>3d</fix>
</trkpt>
<trkpt lat="-27.274439" lon="151.290064">
  <ele>343.1</ele>
  <time>2026-09-01T19:52:02Z</time>
  <course>10.71</course>
  <speed>0.0</speed>
  <fix>3d</fix>
</trkpt>
<trkpt lat="-27.274439" lon="151.290064">
  <ele>343.1</ele>
  <time>2026-09-01T19:52:02Z</time>
  <course>270.0</course>
  <speed>0.0</speed>
  <fix>3d</fix>
</trkpt>
<trkpt lat="-27.274439" lon="151.290064">
  <ele>343.1</ele>
  <time>2026-09-01T19:52:02Z</time>
  <course>10.71</course>
  <speed>0.0</speed>
  <fix>3d</fix>
</trkpt>
<trkpt lat="-27.274439" lon="151.290064">
  <ele>343.1</ele>
  <time>2026-09-01T19:52:02Z</time>
  <course>270.0</course>
  <speed>0.0</speed>
  <fix>3d</fix>
</trkpt>
<trkpt lat="-27.274439" lon="151.290064">
  <ele>343.1</ele>
  <time>2026-09-01T19:52:02Z</time>
  <course>10.71</course>
  <speed>0.0</speed>
  <fix>3d</fix>
</trkpt>
<trkpt lat="-27.274439" lon="151.290064">
  <ele>343.1</ele>
  <time>2026-09-01T19:52:02Z</time>
  <course>270.0</course>
  <speed>0.0</speed>
  <fix>3d</fix>
</trkpt>
<trkpt lat="-27.274439" lon="151.290064">
  <ele>343.1</ele>
  <time>2026-09-01T19:52:02Z</time>
  <course>10.71</course>
  <speed>0.0</speed>
  <fix>3d</fix>
</trkpt>
<trkpt lat="-27.274439" lon="151.290064">
  <ele>343.1</ele>
  <time>2026-09-01T19:52:02Z</time>
  <course>270.0</course>
  <speed>0.0</speed>
  <fix>3d</fix>
</trkpt>
<trkpt lat="-27.274439" lon="151.290064">
  <ele>343.1</ele>
  <time>2026-09-01T19:52:02Z</time>
  <course>10.71</course>
  <speed>0.0</speed>
  <fix>3d</fix>
</trkpt>
<trkpt lat="-27.274439" lon="151.290064">
  <ele>343.1</ele>
  <time>2026-09-01T19:52:02Z</time>
  <course>270.0</course>
  <speed>0.0</speed>
  <fix>3d</fix>
</trkpt>
<trkpt lat="-27.274439" lon="151.290064">
  <ele>343.09</ele>
  <time>2026-09-01T19:52:02Z</time>
  <course>10.71</course>
  <speed>0.0</speed>
  <fix>3d</fix>
</trkpt>
<trkpt lat="-27.274439" lon="151.290064">
  <ele>343.1</ele>
  <time>2026-09-01T19:52:02Z</time>
  <course>270.0</course>
  <speed>0.0</speed>
  <fix>3d</fix>
</trkpt>
<trkpt lat="-27.274439" lon="151.290064">
  <ele>343.09</ele>
  <time>2026-09-01T19:52:02Z</time>
  <course>10.71</course>
  <speed>0.0</speed>
  <fix>3d</fix>
</trkpt>
<trkpt lat="-27.274439" lon="151.290064">
  <ele>343.1</ele>
  <time>2026-09-01T19:52:02Z</time>
  <course>270.0</course>
  <speed>0.0</speed>
  <fix>3d</fix>
</trkpt>
<trkpt lat="-27.274439" lon="151.290064">
  <ele>343.1</ele>
  <time>2026-09-01T19:52:02Z</time>
  <course>10.71</course>
  <speed>0.0</speed>
  <fix>3d</fix>
</trkpt>
<trkpt lat="-27.274439" lon="151.290064">
  <ele>343.1</ele>
  <time>2026-09-01T19:52:02Z</time>
  <course>270.0</course>
  <speed>0.0</speed>
  <fix>3d</fix>
</trkpt>
<trkpt lat="-27.274439" lon="151.290064">
  <ele>343.1</ele>
  <time>2026-09-01T19:52:02Z</time>
  <course>10.71</course>
  <speed>0.0</speed>
  <fix>3d</fix>
</trkpt>
<trkpt lat="-27.274439" lon="151.290064">
  <ele>343.1</ele>
  <time>2026-09-01T19:52:02Z</time>
  <course>270.0</course>
  <speed>0.0</speed>
  <fix>3d</fix>
</trkpt>
<trkpt lat="-27.274439" lon="151.290064">
  <ele>343.1</ele>
  <time>2026-09-01T19:52:02Z</time>
  <course>10.71</course>
  <speed>0.0</speed>
  <fix>3d</fix>
</trkpt>
<trkpt lat="-27.274439" lon="151.290064">
  <ele>343.1</ele>
  <time>2026-09-01T19:52:02Z</time>
  <course>270.0</course>
  <speed>0.0</speed>
  <fix>3d</fix>
</trkpt>
<trkpt lat="-27.274439" lon="151.290064">
  <ele>343.11</ele>
  <time>2026-09-01T19:52:02Z</time>
  <course>10.71</course>
  <speed>0.0</speed>
  <fix>3d</fix>
</trkpt>
<trkpt lat="-27.274439" lon="151.290064">
  <ele>343.1</ele>
  <time>2026-09-01T19:52:02Z</time>
  <course>270.0</course>
  <speed>0.0</speed>
  <fix>3d</fix>
</trkpt>
<trkpt lat="-27.274439" lon="151.290064">
  <ele>343.11</ele>
  <time>2026-09-01T19:52:02Z</time>
  <course>10.71</course>
  <speed>0.0</speed>
  <fix>3d</fix>
</trkpt>
<trkpt lat="-27.274439" lon="151.290064">
  <ele>343.1</ele>
  <time>2026-09-01T19:52:02Z</time>
  <course>270.0</course>
  <speed>0.0</speed>
  <fix>3d</fix>
</trkpt>
<trkpt lat="-27.274439" lon="151.290064">
  <ele>343.11</ele>
  <time>2026-09-01T19:52:02Z</time>
  <course>10.71</course>
  <speed>0.0</speed>
  <fix>3d</fix>
</trkpt>
<trkpt lat="-27.274439" lon="151.290064">
  <ele>343.1</ele>
  <time>2026-09-01T19:52:02Z</time>
  <course>270.0</course>
  <speed>0.0</speed>
  <fix>3d</fix>
</trkpt>
<trkpt lat="-27.274439" lon="151.290064">
  <ele>343.12</ele>
  <time>2026-09-01T19:52:02Z</time>
  <course>10.71</course>
  <speed>0.0</speed>
  <fix>3d</fix>
</trkpt>
<trkpt lat="-27.274439" lon="151.290064">
  <ele>343.1</ele>
  <time>2026-09-01T19:52:02Z</time>
  <course>270.0</course>
  <speed>0.0</speed>
  <fix>3d</fix>
</trkpt>
<trkpt lat="-27.274439" lon="151.290064">
  <ele>343.12</ele>
  <time>2026-09-01T19:52:02Z</time>
  <course>10.71</course>
  <speed>0.0</speed>
  <fix>3d</fix>
</trkpt>
<trkpt lat="-27.274439" lon="151.290064">
  <ele>343.1</ele>
  <time>2026-09-01T19:52:02Z</time>
  <course>270.0</course>
  <speed>0.0</speed>
  <fix>3d</fix>
</trkpt>
<trkpt lat="-27.274439" lon="151.290064">
  <ele>343.12</ele>
  <time>2026-09-01T19:52:02Z</time>
  <course>10.71</course>
  <speed>0.0</speed>
  <fix>3d</fix>
</trkpt>
<trkpt lat="-27.274439" lon="151.290064">
  <ele>343.1</ele>
  <time>2026-09-01T19:52:02Z</time>
  <course>270.0</course>
  <speed>0.0</speed>
  <fix>3d</fix>
</trkpt>
<trkpt lat="-27.274439" lon="151.290064">
  <ele>343.13</ele>
  <time>2026-09-01T19:52:02Z</time>
  <course>10.71</course>
  <speed>0.0</speed>
  <fix>3d</fix>
</trkpt>
<trkpt lat="-27.274439" lon="151.290064">
  <ele>343.1</ele>
  <time>2026-09-01T19:52:02Z</time>
  <course>270.0</course>
  <speed>0.0</speed>
  <fix>3d</fix>
</trkpt>
<trkpt lat="-27.274439" lon="151.290064">
  <ele>343.13</ele>
  <time>2026-09-01T19:52:02Z</time>
  <course>10.71</course>
  <speed>0.0</speed>
  <fix>3d</fix>
</trkpt>
<trkpt lat="-27.274439" lon="151.290064">
  <ele>343.1</ele>
  <time>2026-09-01T19:52:02Z</time>
  <course>270.0</course>
  <speed>0.0</speed>
  <fix>3d</fix>
</trkpt>
<trkpt lat="-27.274439" lon="151.290064">
  <ele>343.13</ele>
  <time>2026-09-01T19:52:02Z</time>
  <course>10.71</course>
  <speed>0.0</speed>
  <fix>3d</fix>
</trkpt>
<trkpt lat="-27.274439" lon="151.290064">
  <ele>343.1</ele>
  <time>2026-09-01T19:52:02Z</time>
  <course>270.0</course>
  <speed>0.0</speed>
  <fix>3d</fix>
</trkpt>
<trkpt lat="-27.274439" lon="151.290064">
  <ele>343.14</ele>
  <time>2026-09-01T19:52:02Z</time>
  <course>10.7</course>
  <speed>0.0</speed>
  <fix>3d</fix>
</trkpt>
<trkpt lat="-27.274439" lon="151.290064">
  <ele>343.1</ele>
  <time>2026-09-01T19:52:02Z</time>
  <course>270.0</course>
  <speed>0.0</speed>
  <fix>3d</fix>
</trkpt>
<trkpt lat="-27.274439" lon="151.290064">
  <ele>343.14</ele>
  <time>2026-09-01T19:52:02Z</time>
  <course>10.7</course>
  <speed>0.0</speed>
  <fix>3d</fix>
</trkpt>
<trkpt lat="-27.274439" lon="151.290064">
  <ele>343.1</ele>
  <time>2026-09-01T19:52:02Z</time>
  <course>270.0</course>
  <speed>0.0</speed>
  <fix>3d</fix>
</trkpt>
<trkpt lat="-27.274439" lon="151.290064">
  <ele>343.14</ele>
  <time>2026-09-01T19:52:02Z</time>
  <course>10.7</course>
  <speed>0.0</speed>
  <fix>3d</fix>
</trkpt>
<trkpt lat="-27.274439" lon="151.290064">
  <ele>343.1</ele>
  <time>2026-09-01T19:52:02Z</time>
  <course>270.0</course>
  <speed>0.0</speed>
  <fix>3d</fix>
</trkpt>
<trkpt lat="-27.274439" lon="151.290064">
  <ele>343.14</ele>
  <time>2026-09-01T19:52:02Z</time>
  <course>10.7</course>
  <speed>0.0</speed>
  <fix>3d</fix>
</trkpt>
<trkpt lat="-27.274439" lon="151.290064">
  <ele>343.1</ele>
  <time>2026-09-01T19:52:02Z</time>
  <course>270.0</course>
  <speed>0.0</speed>
  <fix>3d</fix>
</trkpt>
<trkpt lat="-27.274439" lon="151.290064">
  <ele>343.14</ele>
  <time>2026-09-01T19:52:02Z</time>
  <course>10.7</course>
  <speed>0.0</speed>
  <fix>3d</fix>
</trkpt>
<trkpt lat="-27.274439" lon="151.290064">
  <ele>343.1</ele>
  <time>2026-09-01T19:52:02Z</time>
  <course>270.0</course>
  <speed>0.0</speed>
  <fix>3d</fix>
</trkpt>
<trkpt lat="-27.274439" lon="151.290064">
  <ele>343.14</ele>
  <time>2026-09-01T19:52:02Z</time>
  <course>10.7</course>
  <speed>0.0</speed>
  <fix>3d</fix>
</trkpt>
<trkpt lat="-27.274439" lon="151.290064">
  <ele>343.1</ele>
  <time>2026-09-01T19:52:02Z</time>
  <course>270.0</course>
  <speed>0.0</speed>
  <fix>3d</fix>
</trkpt>
<trkpt lat="-27.274439" lon="151.290064">
  <ele>343.14</ele>
  <time>2026-09-01T19:52:02Z</time>
  <course>10.7</course>
  <speed>0.0</speed>
  <fix>3d</fix>
</trkpt>
<trkpt lat="-27.274439" lon="151.290064">
  <ele>343.1</ele>
  <time>2026-09-01T19:52:02Z</time>
  <course>270.0</course>
  <speed>0.0</speed>
  <fix>3d</fix>
</trkpt>
<trkpt lat="-27.274439" lon="151.290064">
  <ele>343.14</ele>
  <time>2026-09-01T19:52:02Z</time>
  <course>10.7</course>
  <speed>0.0</speed>
  <fix>3d</fix>
</trkpt>
<trkpt lat="-27.274439" lon="151.290064">
  <ele>343.1</ele>
  <time>2026-09-01T19:52:02Z</time>
  <course>270.0</course>
  <speed>0.0</speed>
  <fix>3d</fix>
</trkpt>
<trkpt lat="-27.274439" lon="151.290064">
  <ele>343.14</ele>
  <time>2026-09-01T19:52:02Z</time>
  <course>10.7</course>
  <speed>0.0</speed>
  <fix>3d</fix>
</trkpt>
<trkpt lat="-27.274439" lon="151.290064">
  <ele>343.1</ele>
  <time>2026-09-01T19:52:02Z</time>
  <course>270.0</course>
  <speed>0.0</speed>
  <fix>3d</fix>
</trkpt>
<trkpt lat="-27.274439" lon="151.290064">
  <ele>343.14</ele>
  <time>2026-09-01T19:52:02Z</time>
  <course>10.7</course>
  <speed>0.0</speed>
  <fix>3d</fix>
</trkpt>
<trkpt lat="-27.274439" lon="151.290064">
  <ele>343.1</ele>
  <time>2026-09-01T19:52:02Z</time>
  <course>270.0</course>
  <speed>0.0</speed>
  <fix>3d</fix>
</trkpt>
<trkpt lat="-27.274439" lon="151.290064">
  <ele>343.14</ele>
  <time>2026-09-01T19:52:02Z</time>
  <course>10.7</course>
  <speed>0.0</speed>
  <fix>3d</fix>
</trkpt>
<trkpt lat="-27.274439" lon="151.290064">
  <ele>343.1</ele>
  <time>2026-09-01T19:52:02Z</time>
  <course>270.0</course>
  <speed>0.0</speed>
  <fix>3d</fix>
</trkpt>
<trkpt lat="-27.274439" lon="151.290064">
  <ele>343.14</ele>
  <time>2026-09-01T19:52:02Z</time>
  <course>10.7</course>
  <speed>0.0</speed>
  <fix>3d</fix>
</trkpt>
<trkpt lat="-27.274439" lon="151.290064">
  <ele>343.1</ele>
  <time>2026-09-01T19:52:02Z</time>
  <course>270.0</course>
  <speed>0.0</speed>
  <fix>3d</fix>
</trkpt>
<trkpt lat="-27.274439" lon="151.290064">
  <ele>343.15</ele>
  <time>2026-09-01T19:52:02Z</time>
  <course>10.7</course>
  <speed>0.0</speed>
  <fix>3d</fix>
</trkpt>
<trkpt lat="-27.274439" lon="151.290064">
  <ele>343.1</ele>
  <time>2026-09-01T19:52:02Z</time>
  <course>270.0</course>
  <speed>0.0</speed>
  <fix>3d</fix>
</trkpt>
<trkpt lat="-27.274439" lon="151.290064">
  <ele>343.15</ele>
  <time>2026-09-01T19:52:02Z</time>
  <course>10.7</course>
  <speed>0.0</speed>
  <fix>3d</fix>
</trkpt>
<trkpt lat="-27.274439" lon="151.290064">
  <ele>343.1</ele>
  <time>2026-09-01T19:52:02Z</time>
  <course>270.0</course>
  <speed>0.0</speed>
  <fix>3d</fix>
</trkpt>
<trkpt lat="-27.274439" lon="151.290064">
  <ele>343.15</ele>
  <time>2026-09-01T19:52:02Z</time>
  <course>10.7</course>
  <speed>0.0</speed>
  <fix>3d</fix>
</trkpt>
<trkpt lat="-27.274439" lon="151.290064">
  <ele>343.1</ele>
  <time>2026-09-01T19:52:02Z</time>
  <course>270.0</course>
  <speed>0.0</speed>
  <fix>3d</fix>
</trkpt>
<trkpt lat="-27.274439" lon="151.290064">
  <ele>343.16</ele>
  <time>2026-09-01T19:52:02Z</time>
  <course>10.7</course>
  <speed>0.0</speed>
  <fix>3d</fix>
</trkpt>
<trkpt lat="-27.274439" lon="151.290064">
  <ele>343.1</ele>
  <time>2026-09-01T19:52:02Z</time>
  <course>270.0</course>
  <speed>0.0</speed>
  <fix>3d</fix>
</trkpt>
<trkpt lat="-27.274439" lon="151.290064">
  <ele>343.16</ele>
  <time>2026-09-01T19:52:02Z</time>
  <course>10.7</course>
  <speed>0.0</speed>
  <fix>3d</fix>
</trkpt>
<trkpt lat="-27.274439" lon="151.290064">
  <ele>343.1</ele>
  <time>2026-09-01T19:52:02Z</time>
  <course>270.0</course>
  <speed>0.0</speed>
  <fix>3d</fix>
</trkpt>
<trkpt lat="-27.274439" lon="151.290064">
  <ele>343.16</ele>
  <time>2026-09-01T19:52:02Z</time>
  <course>10.7</course>
  <speed>0.0</speed>
  <fix>3d</fix>
</trkpt>
<trkpt lat="-27.274439" lon="151.290064">
  <ele>343.1</ele>
  <time>2026-09-01T19:52:02Z</time>
  <course>270.0</course>
  <speed>0.0</speed>
  <fix>3d</fix>
</trkpt>
<trkpt lat="-27.274439" lon="151.290064">
  <ele>343.16</ele>
  <time>2026-09-01T19:52:02Z</time>
  <course>10.7</course>
  <speed>0.0</speed>
  <fix>3d</fix>
</trkpt>
<trkpt lat="-27.274439" lon="151.290064">
  <ele>343.1</ele>
  <time>2026-09-01T19:52:02Z</time>
  <course>270.0</course>
  <speed>0.0</speed>
  <fix>3d</fix>
</trkpt>
<trkpt lat="-27.274439" lon="151.290064">
  <ele>343.16</ele>
  <time>2026-09-01T19:52:02Z</time>
  <course>10.7</course>
  <speed>0.0</speed>
  <fix>3d</fix>
</trkpt>
<trkpt lat="-27.274439" lon="151.290064">
  <ele>343.1</ele>
  <time>2026-09-01T19:52:02Z</time>
  <course>270.0</course>
  <speed>0.0</speed>
  <fix>3d</fix>
</trkpt>
<trkpt lat="-27.274439" lon="151.290064">
  <ele>343.16</ele>
  <time>2026-09-01T19:52:02Z</time>
  <course>10.7</course>
  <speed>0.0</speed>
  <fix>3d</fix>
</trkpt>
<trkpt lat="-27.274439" lon="151.290064">
  <ele>343.1</ele>
  <time>2026-09-01T19:52:02Z</time>
  <course>270.0</course>
  <speed>0.0</speed>
  <fix>3d</fix>
</trkpt>
<trkpt lat="-27.274439" lon="151.290064">
  <ele>343.16</ele>
  <time>2026-09-01T19:52:02Z</time>
  <course>10.7</course>
  <speed>0.0</speed>
  <fix>3d</fix>
</trkpt>
<trkpt lat="-27.274439" lon="151.290064">
  <ele>343.1</ele>
  <time>2026-09-01T19:52:02Z</time>
  <course>270.0</course>
  <speed>0.0</speed>
  <fix>3d</fix>
</trkpt>
<trkpt lat="-27.274439" lon="151.290064">
  <ele>343.16</ele>
  <time>2026-09-01T19:52:02Z</time>
  <course>10.7</course>
  <speed>0.0</speed>
  <fix>3d</fix>
</trkpt>
<trkpt lat="-27.274439" lon="151.290064">
  <ele>343.1</ele>
  <time>2026-09-01T19:52:02Z</time>
  <course>270.0</course>
  <speed>0.0</speed>
  <fix>3d</fix>
</trkpt>
<trkpt lat="-27.274439" lon="151.290064">
  <ele>343.16</ele>
  <time>2026-09-01T19:52:02Z</time>
  <course>10.7</course>
  <speed>0.0</speed>
  <fix>3d</fix>
</trkpt>
<trkpt lat="-27.274439" lon="151.290064">
  <ele>343.1</ele>
  <time>2026-09-01T19:52:02Z</time>
  <course>270.0</course>
  <speed>0.0</speed>
  <fix>3d</fix>
</trkpt>
<trkpt lat="-27.274439" lon="151.290064">
  <ele>343.16</ele>
  <time>2026-09-01T19:52:02Z</time>
  <course>10.7</course>
  <speed>0.0</speed>
  <fix>3d</fix>
</trkpt>
<trkpt lat="-27.274439" lon="151.290064">
  <ele>343.1</ele>
  <time>2026-09-01T19:52:02Z</time>
  <course>270.0</course>
  <speed>0.0</speed>
  <fix>3d</fix>
</trkpt>
<trkpt lat="-27.274439" lon="151.290064">
  <ele>343.17</ele>
  <time>2026-09-01T19:52:02Z</time>
  <course>10.7</course>
  <speed>0.0</speed>
  <fix>3d</fix>
</trkpt>
<trkpt lat="-27.274439" lon="151.290064">
  <ele>343.1</ele>
  <time>2026-09-01T19:52:02Z</time>
  <course>270.0</course>
  <speed>0.0</speed>
  <fix>3d</fix>
</trkpt>
<trkpt lat="-27.274439" lon="151.290064">
  <ele>343.17</ele>
  <time>2026-09-01T19:52:02Z</time>
  <course>10.7</course>
  <speed>0.0</speed>
  <fix>3d</fix>
</trkpt>
<trkpt lat="-27.274439" lon="151.290064">
  <ele>343.1</ele>
  <time>2026-09-01T19:52:02Z</time>
  <course>270.0</course>
  <speed>0.0</speed>
  <fix>3d</fix>
</trkpt>
<trkpt lat="-27.274439" lon="151.290064">
  <ele>343.17</ele>
  <time>2026-09-01T19:52:02Z</time>
  <course>10.7</course>
  <speed>0.0</speed>
  <fix>3d</fix>
</trkpt>
<trkpt lat="-27.274439" lon="151.290064">
  <ele>343.1</ele>
  <time>2026-09-01T19:52:02Z</time>
  <course>270.0</course>
  <speed>0.0</speed>
  <fix>3d</fix>
</trkpt>
<trkpt lat="-27.274439" lon="151.290064">
  <ele>343.17</ele>
  <time>2026-09-01T19:52:02Z</time>
  <course>10.7</course>
  <speed>0.0</speed>
  <fix>3d</fix>
</trkpt>
<trkpt lat="-27.274439" lon="151.290064">
  <ele>343.1</ele>
  <time>2026-09-01T19:52:02Z</time>
  <course>270.0</course>
  <speed>0.0</speed>
  <fix>3d</fix>
</trkpt>
<trkpt lat="-27.274439" lon="151.290064">
  <ele>343.18</ele>
  <time>2026-09-01T19:52:02Z</time>
  <course>10.7</course>
  <speed>0.0</speed>
  <fix>3d</fix>
</trkpt>
<trkpt lat="-27.274439" lon="151.290064">
  <ele>343.1</ele>
  <time>2026-09-01T19:52:02Z</time>
  <course>270.0</course>
  <speed>0.0</speed>
  <fix>3d</fix>
</trkpt>
<trkpt lat="-27.274439" lon="151.290064">
  <ele>343.18</ele>
  <time>2026-09-01T19:52:02Z</time>
  <course>10.7</course>
  <speed>0.0</speed>
  <fix>3d</fix>
</trkpt>
<trkpt lat="-27.274439" lon="151.290064">
  <ele>343.1</ele>
  <time>2026-09-01T19:52:02Z</time>
  <course>270.0</course>
  <speed>0.0</speed>
  <fix>3d</fix>
</trkpt>
<trkpt lat="-27.274439" lon="151.290064">
  <ele>343.18</ele>
  <time>2026-09-01T19:52:02Z</time>
  <course>10.7</course>
  <speed>0.0</speed>
  <fix>3d</fix>
</trkpt>
<trkpt lat="-27.274439" lon="151.290064">
  <ele>343.1</ele>
  <time>2026-09-01T19:52:02Z</time>
  <course>270.0</course>
  <speed>0.0</speed>
  <fix>3d</fix>
</trkpt>
<trkpt lat="-27.274439" lon="151.290064">
  <ele>343.18</ele>
  <time>2026-09-01T19:52:02Z</time>
  <course>10.7</course>
  <speed>0.0</speed>
  <fix>3d</fix>
</trkpt>
<trkpt lat="-27.274439" lon="151.290064">
  <ele>343.1</ele>
  <time>2026-09-01T19:52:02Z</time>
  <course>270.0</course>
  <speed>0.0</speed>
  <fix>3d</fix>
</trkpt>
<trkpt lat="-27.274439" lon="151.290064">
  <ele>343.18</ele>
  <time>2026-09-01T19:52:02Z</time>
  <course>10.7</course>
  <speed>0.0</speed>
  <fix>3d</fix>
</trkpt>
<trkpt lat="-27.274439" lon="151.290064">
  <ele>343.1</ele>
  <time>2026-09-01T19:52:02Z</time>
  <course>270.0</course>
  <speed>0.0</speed>
  <fix>3d</fix>
</trkpt>
<trkpt lat="-27.274439" lon="151.290064">
  <ele>343.18</ele>
  <time>2026-09-01T19:52:02Z</time>
  <course>10.7</course>
  <speed>0.0</speed>
  <fix>3d</fix>
</trkpt>
<trkpt lat="-27.274439" lon="151.290064">
  <ele>343.1</ele>
  <time>2026-09-01T19:52:02Z</time>
  <course>270.0</course>
  <speed>0.0</speed>
  <fix>3d</fix>
</trkpt>
<trkpt lat="-27.274439" lon="151.290064">
  <ele>343.18</ele>
  <time>2026-09-01T19:52:02Z</time>
  <course>10.7</course>
  <speed>0.0</speed>
  <fix>3d</fix>
</trkpt>
<trkpt lat="-27.274439" lon="151.290064">
  <ele>343.1</ele>
  <time>2026-09-01T19:52:02Z</time>
  <course>270.0</course>
  <speed>0.0</speed>
  <fix>3d</fix>
</trkpt>
<trkpt lat="-27.274439" lon="151.290064">
  <ele>343.18</ele>
  <time>2026-09-01T19:52:02Z</time>
  <course>10.7</course>
  <speed>0.0</speed>
  <fix>3d</fix>
</trkpt>
<trkpt lat="-27.274439" lon="151.290064">
  <ele>343.1</ele>
  <time>2026-09-01T19:52:02Z</time>
  <course>270.0</course>
  <speed>0.0</speed>
  <fix>3d</fix>
</trkpt>
<trkpt lat="-27.274439" lon="151.290064">
  <ele>343.18</ele>
  <time>2026-09-01T19:52:02Z</time>
  <course>10.7</course>
  <speed>0.0</speed>
  <fix>3d</fix>
</trkpt>
<trkpt lat="-27.274439" lon="151.290064">
  <ele>343.1</ele>
  <time>2026-09-01T19:52:02Z</time>
  <course>270.0</course>
  <speed>0.0</speed>
  <fix>3d</fix>
</trkpt>
<trkpt lat="-27.274439" lon="151.290064">
  <ele>343.18</ele>
  <time>2026-09-01T19:52:02Z</time>
  <course>10.7</course>
  <speed>0.0</speed>
  <fix>3d</fix>
</trkpt>
<trkpt lat="-27.274439" lon="151.290064">
  <ele>343.1</ele>
  <time>2026-09-01T19:52:02Z</time>
  <course>270.0</course>
  <speed>0.0</speed>
  <fix>3d</fix>
</trkpt>
<trkpt lat="-27.274439" lon="151.290064">
  <ele>343.19</ele>
  <time>2026-09-01T19:52:02Z</time>
  <course>10.7</course>
  <speed>0.0</speed>
  <fix>3d</fix>
</trkpt>
<trkpt lat="-27.274439" lon="151.290064">
  <ele>343.1</ele>
  <time>2026-09-01T19:52:02Z</time>
  <course>270.0</course>
  <speed>0.0</speed>
  <fix>3d</fix>
</trkpt>
<trkpt lat="-27.274439" lon="151.290064">
  <ele>343.19</ele>
  <time>2026-09-01T19:52:02Z</time>
  <course>10.7</course>
  <speed>0.0</speed>
  <fix>3d</fix>
</trkpt>
<trkpt lat="-27.274439" lon="151.290064">
  <ele>343.1</ele>
  <time>2026-09-01T19:52:02Z</time>
  <course>270.0</course>
  <speed>0.0</speed>
  <fix>3d</fix>
</trkpt>
<trkpt lat="-27.274439" lon="151.290064">
  <ele>343.19</ele>
  <time>2026-09-01T19:52:03Z</time>
  <course>10.7</course>
  <speed>0.0</speed>
  <fix>3d</fix>
</trkpt>
<trkpt lat="-27.274439" lon="151.290064">
  <ele>343.1</ele>
  <time>2026-09-01T19:52:03Z</time>
  <course>270.0</course>
  <speed>0.0</speed>
  <fix>3d</fix>
</trkpt>
<trkpt lat="-27.274439" lon="151.290064">
  <ele>343.19</ele>
  <time>2026-09-01T19:52:03Z</time>
  <course>10.7</course>
  <speed>0.0</speed>
  <fix>3d</fix>
</trkpt>
<trkpt lat="-27.274439" lon="151.290064">
  <ele>343.1</ele>
  <time>2026-09-01T19:52:03Z</time>
  <course>270.0</course>
  <speed>0.0</speed>
  <fix>3d</fix>
</trkpt>
<trkpt lat="-27.274439" lon="151.290064">
  <ele>343.19</ele>
  <time>2026-09-01T19:52:03Z</time>
  <course>10.7</course>
  <speed>0.0</speed>
  <fix>3d</fix>
</trkpt>
<trkpt lat="-27.274439" lon="151.290064">
  <ele>343.1</ele>
  <time>2026-09-01T19:52:03Z</time>
  <course>270.0</course>
  <speed>0.0</speed>
  <fix>3d</fix>
</trkpt>
<trkpt lat="-27.274439" lon="151.290064">
  <ele>343.19</ele>
  <time>2026-09-01T19:52:03Z</time>
  <course>10.7</course>
  <speed>0.0</speed>
  <fix>3d</fix>
</trkpt>
<trkpt lat="-27.274439" lon="151.290064">
  <ele>343.1</ele>
  <time>2026-09-01T19:52:03Z</time>
  <course>270.0</course>
  <speed>0.0</speed>
  <fix>3d</fix>
</trkpt>
<trkpt lat="-27.274439" lon="151.290064">
  <ele>343.09</ele>
  <time>2026-09-01T19:52:03Z</time>
  <course>10.7</course>
  <speed>0.0</speed>
  <fix>3d</fix>
</trkpt>
<trkpt lat="-27.274439" lon="151.290064">
  <ele>343.1</ele>
  <time>2026-09-01T19:52:03Z</time>
  <course>270.0</course>
  <speed>0.0</speed>
  <fix>3d</fix>
</trkpt>
<trkpt lat="-27.274439" lon="151.290064">
  <ele>343.09</ele>
  <time>2026-09-01T19:52:03Z</time>
  <course>10.7</course>
  <speed>0.0</speed>
  <fix>3d</fix>
</trkpt>
<trkpt lat="-27.274439" lon="151.290064">
  <ele>343.1</ele>
  <time>2026-09-01T19:52:03Z</time>
  <course>270.0</course>
  <speed>0.0</speed>
  <fix>3d</fix>
</trkpt>
<trkpt lat="-27.274439" lon="151.290064">
  <ele>343.09</ele>
  <time>2026-09-01T19:52:03Z</time>
  <course>10.7</course>
  <speed>0.0</speed>
  <fix>3d</fix>
</trkpt>
<trkpt lat="-27.274439" lon="151.290064">
  <ele>343.1</ele>
  <time>2026-09-01T19:52:03Z</time>
  <course>270.0</course>
  <speed>0.0</speed>
  <fix>3d</fix>
</trkpt>
<trkpt lat="-27.274439" lon="151.290064">
  <ele>343.1</ele>
  <time>2026-09-01T19:52:03Z</time>
  <course>10.7</course>
  <speed>0.0</speed>
  <fix>3d</fix>
</trkpt>
<trkpt lat="-27.274439" lon="151.290064">
  <ele>343.1</ele>
  <time>2026-09-01T19:52:03Z</time>
  <course>270.0</course>
  <speed>0.0</speed>
  <fix>3d</fix>
</trkpt>
<trkpt lat="-27.274439" lon="151.290064">
  <ele>343.1</ele>
  <time>2026-09-01T19:52:03Z</time>
  <course>10.7</course>
  <speed>0.0</speed>
  <fix>3d</fix>
</trkpt>
<trkpt lat="-27.274439" lon="151.290064">
  <ele>343.1</ele>
  <time>2026-09-01T19:52:03Z</time>
  <course>270.0</course>
  <speed>0.0</speed>
  <fix>3d</fix>
</trkpt>
<trkpt lat="-27.274439" lon="151.290064">
  <ele>343.1</ele>
  <time>2026-09-01T19:52:03Z</time>
  <course>10.7</course>
  <speed>0.0</speed>
  <fix>3d</fix>
</trkpt>
<trkpt lat="-27.274439" lon="151.290064">
  <ele>343.1</ele>
  <time>2026-09-01T19:52:03Z</time>
  <course>270.0</course>
  <speed>0.0</speed>
  <fix>3d</fix>
</trkpt>
<trkpt lat="-27.274439" lon="151.290064">
  <ele>343.11</ele>
  <time>2026-09-01T19:52:03Z</time>
  <course>10.7</course>
  <speed>0.0</speed>
  <fix>3d</fix>
</trkpt>
<trkpt lat="-27.274439" lon="151.290064">
  <ele>343.1</ele>
  <time>2026-09-01T19:52:03Z</time>
  <course>270.0</course>
  <speed>0.0</speed>
  <fix>3d</fix>
</trkpt>
<trkpt lat="-27.274439" lon="151.290064">
  <ele>343.11</ele>
  <time>2026-09-01T19:52:03Z</time>
  <course>10.7</course>
  <speed>0.0</speed>
  <fix>3d</fix>
</trkpt>
<trkpt lat="-27.274439" lon="151.290064">
  <ele>343.1</ele>
  <time>2026-09-01T19:52:03Z</time>
  <course>270.0</course>
  <speed>0.0</speed>
  <fix>3d</fix>
</trkpt>
<trkpt lat="-27.274439" lon="151.290064">
  <ele>343.12</ele>
  <time>2026-09-01T19:52:03Z</time>
  <course>10.7</course>
  <speed>0.0</speed>
  <fix>3d</fix>
</trkpt>
<trkpt lat="-27.274439" lon="151.290064">
  <ele>343.1</ele>
  <time>2026-09-01T19:52:03Z</time>
  <course>270.0</course>
  <speed>0.0</speed>
  <fix>3d</fix>
</trkpt>
<trkpt lat="-27.274439" lon="151.290064">
  <ele>343.12</ele>
  <time>2026-09-01T19:52:03Z</time>
  <course>10.7</course>
  <speed>0.0</speed>
  <fix>3d</fix>
</trkpt>
<trkpt lat="-27.274439" lon="151.290064">
  <ele>343.1</ele>
  <time>2026-09-01T19:52:03Z</time>
  <course>270.0</course>
  <speed>0.0</speed>
  <fix>3d</fix>
</trkpt>
<trkpt lat="-27.274439" lon="151.290064">
  <ele>343.13</ele>
  <time>2026-09-01T19:52:03Z</time>
  <course>10.7</course>
  <speed>0.0</speed>
  <fix>3d</fix>
</trkpt>
<trkpt lat="-27.274439" lon="151.290064">
  <ele>343.1</ele>
  <time>2026-09-01T19:52:03Z</time>
  <course>270.0</course>
  <speed>0.0</speed>
  <fix>3d</fix>
</trkpt>
<trkpt lat="-27.274439" lon="151.290064">
  <ele>343.14</ele>
  <time>2026-09-01T19:52:03Z</time>
  <course>10.7</course>
  <speed>0.0</speed>
  <fix>3d</fix>
</trkpt>
<trkpt lat="-27.274439" lon="151.290064">
  <ele>343.1</ele>
  <time>2026-09-01T19:52:03Z</time>
  <course>270.0</course>
  <speed>0.0</speed>
  <fix>3d</fix>
</trkpt>
<trkpt lat="-27.274439" lon="151.290064">
  <ele>343.14</ele>
  <time>2026-09-01T19:52:03Z</time>
  <course>10.7</course>
  <speed>0.0</speed>
  <fix>3d</fix>
</trkpt>
<trkpt lat="-27.274439" lon="151.290064">
  <ele>343.1</ele>
  <time>2026-09-01T19:52:03Z</time>
  <course>270.0</course>
  <speed>0.0</speed>
  <fix>3d</fix>
</trkpt>
<trkpt lat="-27.274439" lon="151.290064">
  <ele>343.15</ele>
  <time>2026-09-01T19:52:03Z</time>
  <course>10.7</course>
  <speed>0.0</speed>
  <fix>3d</fix>
</trkpt>
<trkpt lat="-27.274439" lon="151.290064">
  <ele>343.1</ele>
  <time>2026-09-01T19:52:03Z</time>
  <course>270.0</course>
  <speed>0.0</speed>
  <fix>3d</fix>
</trkpt>
<trkpt lat="-27.274439" lon="151.290064">
  <ele>343.16</ele>
  <time>2026-09-01T19:52:03Z</time>
  <course>10.7</course>
  <speed>0.0</speed>
  <fix>3d</fix>
</trkpt>
<trkpt lat="-27.274439" lon="151.290064">
  <ele>343.1</ele>
  <time>2026-09-01T19:52:03Z</time>
  <course>270.0</course>
  <speed>0.0</speed>
  <fix>3d</fix>
</trkpt>
<trkpt lat="-27.274439" lon="151.290064">
  <ele>343.16</ele>
  <time>2026-09-01T19:52:03Z</time>
  <course>10.7</course>
  <speed>0.01</speed>
  <fix>3d</fix>
</trkpt>
<trkpt lat="-27.274439" lon="151.290064">
  <ele>343.1</ele>
  <time>2026-09-01T19:52:03Z</time>
  <course>270.0</course>
  <speed>0.0</speed>
  <fix>3d</fix>
</trkpt>
<trkpt lat="-27.274439" lon="151.290064">
  <ele>343.17</ele>
  <time>2026-09-01T19:52:03Z</time>
  <course>10.7</course>
  <speed>0.01</speed>
  <fix>3d</fix>
</trkpt>
<trkpt lat="-27.274439" lon="151.290064">
  <ele>343.1</ele>
  <time>2026-09-01T19:52:03Z</time>
  <course>270.0</course>
  <speed>0.0</speed>
  <fix>3d</fix>
</trkpt>
<trkpt lat="-27.274439" lon="151.290064">
  <ele>343.18</ele>
  <time>2026-09-01T19:52:03Z</time>
  <course>10.7</course>
  <speed>0.01</speed>
  <fix>3d</fix>
</trkpt>
<trkpt lat="-27.274439" lon="151.290064">
  <ele>343.1</ele>
  <time>2026-09-01T19:52:03Z</time>
  <course>270.0</course>
  <speed>0.0</speed>
  <fix>3d</fix>
</trkpt>
<trkpt lat="-27.274439" lon="151.290064">
  <ele>343.18</ele>
  <time>2026-09-01T19:52:03Z</time>
  <course>10.7</course>
  <speed>0.01</speed>
  <fix>3d</fix>
</trkpt>
<trkpt lat="-27.274439" lon="151.290064">
  <ele>343.1</ele>
  <time>2026-09-01T19:52:03Z</time>
  <course>270.0</course>
  <speed>0.0</speed>
  <fix>3d</fix>
</trkpt>
<trkpt lat="-27.274439" lon="151.290064">
  <ele>343.19</ele>
  <time>2026-09-01T19:52:03Z</time>
  <course>10.7</course>
  <speed>0.01</speed>
  <fix>3d</fix>
</trkpt>
<trkpt lat="-27.274439" lon="151.290064">
  <ele>343.1</ele>
  <time>2026-09-01T19:52:03Z</time>
  <course>270.0</course>
  <speed>0.0</speed>
  <fix>3d</fix>
</trkpt>
<trkpt lat="-27.274439" lon="151.290064">
  <ele>343.19</ele>
  <time>2026-09-01T19:52:03Z</time>
  <course>10.7</course>
  <speed>0.01</speed>
  <fix>3d</fix>
</trkpt>
<trkpt lat="-27.274439" lon="151.290064">
  <ele>343.1</ele>
  <time>2026-09-01T19:52:03Z</time>
  <course>270.0</course>
  <speed>0.0</speed>
  <fix>3d</fix>
</trkpt>
<trkpt lat="-27.274439" lon="151.290064">
  <ele>343.2</ele>
  <time>2026-09-01T19:52:03Z</time>
  <course>10.7</course>
  <speed>0.01</speed>
  <fix>3d</fix>
</trkpt>
<trkpt lat="-27.274439" lon="151.290064">
  <ele>343.1</ele>
  <time>2026-09-01T19:52:03Z</time>
  <course>270.0</course>
  <speed>0.0</speed>
  <fix>3d</fix>
</trkpt>
<trkpt lat="-27.274439" lon="151.290064">
  <ele>343.2</ele>
  <time>2026-09-01T19:52:03Z</time>
  <course>10.69</course>
  <speed>0.01</speed>
  <fix>3d</fix>
</trkpt>
<trkpt lat="-27.274439" lon="151.290064">
  <ele>343.1</ele>
  <time>2026-09-01T19:52:03Z</time>
  <course>270.0</course>
  <speed>0.0</speed>
  <fix>3d</fix>
</trkpt>
<trkpt lat="-27.274439" lon="151.290064">
  <ele>343.21</ele>
  <time>2026-09-01T19:52:03Z</time>
  <course>10.69</course>
  <speed>0.01</speed>
  <fix>3d</fix>
</trkpt>
<trkpt lat="-27.274439" lon="151.290064">
  <ele>343.1</ele>
  <time>2026-09-01T19:52:03Z</time>
  <course>270.0</course>
  <speed>0.0</speed>
  <fix>3d</fix>
</trkpt>
<trkpt lat="-27.274439" lon="151.290064">
  <ele>343.21</ele>
  <time>2026-09-01T19:52:03Z</time>
  <course>10.69</course>
  <speed>0.01</speed>
  <fix>3d</fix>
</trkpt>
<trkpt lat="-27.274439" lon="151.290064">
  <ele>343.1</ele>
  <time>2026-09-01T19:52:03Z</time>
  <course>270.0</course>
  <speed>0.0</speed>
  <fix>3d</fix>
</trkpt>
<trkpt lat="-27.274439" lon="151.290064">
  <ele>343.22</ele>
  <time>2026-09-01T19:52:03Z</time>
  <course>10.69</course>
  <speed>0.01</speed>
  <fix>3d</fix>
</trkpt>
<trkpt lat="-27.274439" lon="151.290064">
  <ele>343.1</ele>
  <time>2026-09-01T19:52:03Z</time>
  <course>270.0</course>
  <speed>0.0</speed>
  <fix>3d</fix>
</trkpt>
<trkpt lat="-27.274439" lon="151.290064">
  <ele>343.22</ele>
  <time>2026-09-01T19:52:03Z</time>
  <course>10.69</course>
  <speed>0.01</speed>
  <fix>3d</fix>
</trkpt>
<trkpt lat="-27.274439" lon="151.290064">
  <ele>343.1</ele>
  <time>2026-09-01T19:52:03Z</time>
  <course>270.0</course>
  <speed>0.0</speed>
  <fix>3d</fix>
</trkpt>
<trkpt lat="-27.274439" lon="151.290064">
  <ele>343.22</ele>
  <time>2026-09-01T19:52:03Z</time>
  <course>10.69</course>
  <speed>0.01</speed>
  <fix>3d</fix>
</trkpt>
<trkpt lat="-27.274439" lon="151.290064">
  <ele>343.1</ele>
  <time>2026-09-01T19:52:03Z</time>
  <course>270.0</course>
  <speed>0.0</speed>
  <fix>3d</fix>
</trkpt>
<trkpt lat="-27.274439" lon="151.290064">
  <ele>343.22</ele>
  <time>2026-09-01T19:52:03Z</time>
  <course>10.69</course>
  <speed>0.01</speed>
  <fix>3d</fix>
</trkpt>
<trkpt lat="-27.274439" lon="151.290064">
  <ele>343.1</ele>
  <time>2026-09-01T19:52:03Z</time>
  <course>270.0</course>
  <speed>0.0</speed>
  <fix>3d</fix>
</trkpt>
<trkpt lat="-27.274439" lon="151.290064">
  <ele>343.23</ele>
  <time>2026-09-01T19:52:03Z</time>
  <course>10.69</course>
  <speed>0.01</speed>
  <fix>3d</fix>
</trkpt>
<trkpt lat="-27.274439" lon="151.290064">
  <ele>343.1</ele>
  <time>2026-09-01T19:52:03Z</time>
  <course>270.0</course>
  <speed>0.0</speed>
  <fix>3d</fix>
</trkpt>
<trkpt lat="-27.274439" lon="151.290064">
  <ele>343.23</ele>
  <time>2026-09-01T19:52:03Z</time>
  <course>10.69</course>
  <speed>0.01</speed>
  <fix>3d</fix>
</trkpt>
<trkpt lat="-27.274439" lon="151.290064">
  <ele>343.1</ele>
  <time>2026-09-01T19:52:03Z</time>
  <course>270.0</course>
  <speed>0.0</speed>
  <fix>3d</fix>
</trkpt>
<trkpt lat="-27.274439" lon="151.290064">
  <ele>343.23</ele>
  <time>2026-09-01T19:52:03Z</time>
  <course>10.69</course>
  <speed>0.01</speed>
  <fix>3d</fix>
</trkpt>
<trkpt lat="-27.274439" lon="151.290064">
  <ele>343.1</ele>
  <time>2026-09-01T19:52:03Z</time>
  <course>270.0</course>
  <speed>0.0</speed>
  <fix>3d</fix>
</trkpt>
<trkpt lat="-27.274439" lon="151.290064">
  <ele>343.23</ele>
  <time>2026-09-01T19:52:03Z</time>
  <course>10.69</course>
  <speed>0.01</speed>
  <fix>3d</fix>
</trkpt>
<trkpt lat="-27.274439" lon="151.290064">
  <ele>343.1</ele>
  <time>2026-09-01T19:52:03Z</time>
  <course>270.0</course>
  <speed>0.0</speed>
  <fix>3d</fix>
</trkpt>
<trkpt lat="-27.274439" lon="151.290064">
  <ele>343.23</ele>
  <time>2026-09-01T19:52:03Z</time>
  <course>10.69</course>
  <speed>0.01</speed>
  <fix>3d</fix>
</trkpt>
<trkpt lat="-27.274439" lon="151.290064">
  <ele>343.1</ele>
  <time>2026-09-01T19:52:03Z</time>
  <course>270.0</course>
  <speed>0.0</speed>
  <fix>3d</fix>
</trkpt>
<trkpt lat="-27.274439" lon="151.290064">
  <ele>343.23</ele>
  <time>2026-09-01T19:52:03Z</time>
  <course>10.69</course>
  <speed>0.01</speed>
  <fix>3d</fix>
</trkpt>
<trkpt lat="-27.274439" lon="151.290064">
  <ele>343.1</ele>
  <time>2026-09-01T19:52:03Z</time>
  <course>270.0</course>
  <speed>0.0</speed>
  <fix>3d</fix>
</trkpt>
<trkpt lat="-27.274439" lon="151.290064">
  <ele>343.23</ele>
  <time>2026-09-01T19:52:03Z</time>
  <course>10.69</course>
  <speed>0.01</speed>
  <fix>3d</fix>
</trkpt>
<trkpt lat="-27.274439" lon="151.290064">
  <ele>343.1</ele>
  <time>2026-09-01T19:52:03Z</time>
  <course>270.0</course>
  <speed>0.0</speed>
  <fix>3d</fix>
</trkpt>
<trkpt lat="-27.274439" lon="151.290064">
  <ele>343.24</ele>
  <time>2026-09-01T19:52:03Z</time>
  <course>10.69</course>
  <speed>0.01</speed>
  <fix>3d</fix>
</trkpt>
<trkpt lat="-27.274439" lon="151.290064">
  <ele>343.1</ele>
  <time>2026-09-01T19:52:03Z</time>
  <course>270.0</course>
  <speed>0.0</speed>
  <fix>3d</fix>
</trkpt>
<trkpt lat="-27.274439" lon="151.290064">
  <ele>343.24</ele>
  <time>2026-09-01T19:52:03Z</time>
  <course>10.69</course>
  <speed>0.01</speed>
  <fix>3d</fix>
</trkpt>
<trkpt lat="-27.274439" lon="151.290064">
  <ele>343.1</ele>
  <time>2026-09-01T19:52:03Z</time>
  <course>270.0</course>
  <speed>0.0</speed>
  <fix>3d</fix>
</trkpt>
<trkpt lat="-27.274439" lon="151.290064">
  <ele>343.24</ele>
  <time>2026-09-01T19:52:03Z</time>
  <course>10.69</course>
  <speed>0.01</speed>
  <fix>3d</fix>
</trkpt>
<trkpt lat="-27.274439" lon="151.290064">
  <ele>343.1</ele>
  <time>2026-09-01T19:52:03Z</time>
  <course>270.0</course>
  <speed>0.0</speed>
  <fix>3d</fix>
</trkpt>
<trkpt lat="-27.274439" lon="151.290064">
  <ele>343.24</ele>
  <time>2026-09-01T19:52:03Z</time>
  <course>10.69</course>
  <speed>0.01</speed>
  <fix>3d</fix>
</trkpt>
<trkpt lat="-27.274439" lon="151.290064">
  <ele>343.1</ele>
  <time>2026-09-01T19:52:03Z</time>
  <course>270.0</course>
  <speed>0.0</speed>
  <fix>3d</fix>
</trkpt>
<trkpt lat="-27.274439" lon="151.290064">
  <ele>343.24</ele>
  <time>2026-09-01T19:52:03Z</time>
  <course>10.69</course>
  <speed>0.01</speed>
  <fix>3d</fix>
</trkpt>
<trkpt lat="-27.274439" lon="151.290064">
  <ele>343.1</ele>
  <time>2026-09-01T19:52:03Z</time>
  <course>270.0</course>
  <speed>0.0</speed>
  <fix>3d</fix>
</trkpt>
<trkpt lat="-27.274439" lon="151.290064">
  <ele>343.24</ele>
  <time>2026-09-01T19:52:03Z</time>
  <course>10.69</course>
  <speed>0.01</speed>
  <fix>3d</fix>
</trkpt>
<trkpt lat="-27.274439" lon="151.290064">
  <ele>343.1</ele>
  <time>2026-09-01T19:52:03Z</time>
  <course>270.0</course>
  <speed>0.0</speed>
  <fix>3d</fix>
</trkpt>
<trkpt lat="-27.274439" lon="151.290064">
  <ele>343.25</ele>
  <time>2026-09-01T19:52:03Z</time>
  <course>10.69</course>
  <speed>0.01</speed>
  <fix>3d</fix>
</trkpt>
<trkpt lat="-27.274439" lon="151.290064">
  <ele>343.1</ele>
  <time>2026-09-01T19:52:03Z</time>
  <course>270.0</course>
  <speed>0.0</speed>
  <fix>3d</fix>
</trkpt>
<trkpt lat="-27.2744391" lon="151.290064">
  <ele>343.25</ele>
  <time>2026-09-01T19:52:03Z</time>
  <course>10.69</course>
  <speed>0.01</speed>
  <fix>3d</fix>
</trkpt>
<trkpt lat="-27.274439" lon="151.290064">
  <ele>343.1</ele>
  <time>2026-09-01T19:52:03Z</time>
  <course>270.0</course>
  <speed>0.0</speed>
  <fix>3d</fix>
</trkpt>
<trkpt lat="-27.2744391" lon="151.290064">
  <ele>343.25</ele>
  <time>2026-09-01T19:52:03Z</time>
  <course>10.69</course>
  <speed>0.01</speed>
  <fix>3d</fix>
</trkpt>
<trkpt lat="-27.274439" lon="151.290064">
  <ele>343.1</ele>
  <time>2026-09-01T19:52:03Z</time>
  <course>270.0</course>
  <speed>0.0</speed>
  <fix>3d</fix>
</trkpt>
<trkpt lat="-27.2744391" lon="151.290064">
  <ele>343.26</ele>
  <time>2026-09-01T19:52:03Z</time>
  <course>10.69</course>
  <speed>0.01414213562373095</speed>
  <fix>3d</fix>
</trkpt>
<trkpt lat="-27.274439" lon="151.290064">
  <ele>343.1</ele>
  <time>2026-09-01T19:52:03Z</time>
  <course>270.0</course>
  <speed>0.0</speed>
  <fix>3d</fix>
</trkpt>
<trkpt lat="-27.2744391" lon="151.290064">
  <ele>343.26</ele>
  <time>2026-09-01T19:52:03Z</time>
  <course>10.69</course>
  <speed>0.01414213562373095</speed>
  <fix>3d</fix>
</trkpt>
<trkpt lat="-27.274439" lon="151.290064">
  <ele>343.1</ele>
  <time>2026-09-01T19:52:03Z</time>
  <course>270.0</course>
  <speed>0.0</speed>
  <fix>3d</fix>
</trkpt>
<trkpt lat="-27.2744391" lon="151.290064">
  <ele>343.26</ele>
  <time>2026-09-01T19:52:03Z</time>
  <course>10.69</course>
  <speed>0.01414213562373095</speed>
  <fix>3d</fix>
</trkpt>
<trkpt lat="-27.274439" lon="151.290064">
  <ele>343.1</ele>
  <time>2026-09-01T19:52:03Z</time>
  <course>270.0</course>
  <speed>0.0</speed>
  <fix>3d</fix>
</trkpt>
<trkpt lat="-27.2744391" lon="151.290064">
  <ele>343.26</ele>
  <time>2026-09-01T19:52:03Z</time>
  <course>10.69</course>
  <speed>0.01414213562373095</speed>
  <fix>3d</fix>
</trkpt>
<trkpt lat="-27.274439" lon="151.290064">
  <ele>343.1</ele>
  <time>2026-09-01T19:52:03Z</time>
  <course>270.0</course>
  <speed>0.0</speed>
  <fix>3d</fix>
</trkpt>
<trkpt lat="-27.2744391" lon="151.290064">
  <ele>343.26</ele>
  <time>2026-09-01T19:52:03Z</time>
  <course>10.69</course>
  <speed>0.01414213562373095</speed>
  <fix>3d</fix>
</trkpt>
<trkpt lat="-27.274439" lon="151.290064">
  <ele>343.1</ele>
  <time>2026-09-01T19:52:03Z</time>
  <course>270.0</course>
  <speed>0.0</speed>
  <fix>3d</fix>
</trkpt>
<trkpt lat="-27.2744391" lon="151.290064">
  <ele>343.26</ele>
  <time>2026-09-01T19:52:03Z</time>
  <course>10.69</course>
  <speed>0.01414213562373095</speed>
  <fix>3d</fix>
</trkpt>
<trkpt lat="-27.274439" lon="151.290064">
  <ele>343.1</ele>
  <time>2026-09-01T19:52:03Z</time>
  <course>270.0</course>
  <speed>0.0</speed>
  <fix>3d</fix>
</trkpt>
<trkpt lat="-27.2744391" lon="151.290064">
  <ele>343.27</ele>
  <time>2026-09-01T19:52:03Z</time>
  <course>10.69</course>
  <speed>0.01414213562373095</speed>
  <fix>3d</fix>
</trkpt>
<trkpt lat="-27.274439" lon="151.290064">
  <ele>343.1</ele>
  <time>2026-09-01T19:52:03Z</time>
  <course>270.0</course>
  <speed>0.0</speed>
  <fix>3d</fix>
</trkpt>
<trkpt lat="-27.2744391" lon="151.290064">
  <ele>343.27</ele>
  <time>2026-09-01T19:52:03Z</time>
  <course>10.69</course>
  <speed>0.01414213562373095</speed>
  <fix>3d</fix>
</trkpt>
<trkpt lat="-27.274439" lon="151.290064">
  <ele>343.1</ele>
  <time>2026-09-01T19:52:03Z</time>
  <course>270.0</course>
  <speed>0.0</speed>
  <fix>3d</fix>
</trkpt>
<trkpt lat="-27.2744391" lon="151.290064">
  <ele>343.27</ele>
  <time>2026-09-01T19:52:03Z</time>
  <course>10.69</course>
  <speed>0.01414213562373095</speed>
  <fix>3d</fix>
</trkpt>
<trkpt lat="-27.274439" lon="151.290064">
  <ele>343.1</ele>
  <time>2026-09-01T19:52:03Z</time>
  <course>270.0</course>
  <speed>0.0</speed>
  <fix>3d</fix>
</trkpt>
<trkpt lat="-27.2744391" lon="151.290064">
  <ele>343.27</ele>
  <time>2026-09-01T19:52:03Z</time>
  <course>10.69</course>
  <speed>0.01414213562373095</speed>
  <fix>3d</fix>
</trkpt>
<trkpt lat="-27.274439" lon="151.290064">
  <ele>343.1</ele>
  <time>2026-09-01T19:52:03Z</time>
  <course>270.0</course>
  <speed>0.0</speed>
  <fix>3d</fix>
</trkpt>
<trkpt lat="-27.2744391" lon="151.290064">
  <ele>343.28</ele>
  <time>2026-09-01T19:52:03Z</time>
  <course>10.69</course>
  <speed>0.01414213562373095</speed>
  <fix>3d</fix>
</trkpt>
<trkpt lat="-27.274439" lon="151.290064">
  <ele>343.1</ele>
  <time>2026-09-01T19:52:03Z</time>
  <course>270.0</course>
  <speed>0.0</speed>
  <fix>3d</fix>
</trkpt>
<trkpt lat="-27.2744391" lon="151.290064">
  <ele>343.28</ele>
  <time>2026-09-01T19:52:03Z</time>
  <course>10.69</course>
  <speed>0.01414213562373095</speed>
  <fix>3d</fix>
</trkpt>
<trkpt lat="-27.274439" lon="151.290064">
  <ele>343.1</ele>
  <time>2026-09-01T19:52:03Z</time>
  <course>270.0</course>
  <speed>0.0</speed>
  <fix>3d</fix>
</trkpt>
<trkpt lat="-27.2744391" lon="151.290064">
  <ele>343.28</ele>
  <time>2026-09-01T19:52:03Z</time>
  <course>10.69</course>
  <speed>0.01414213562373095</speed>
  <fix>3d</fix>
</trkpt>
<trkpt lat="-27.274439" lon="151.290064">
  <ele>343.1</ele>
  <time>2026-09-01T19:52:03Z</time>
  <course>270.0</course>
  <speed>0.0</speed>
  <fix>3d</fix>
</trkpt>
<trkpt lat="-27.2744391" lon="151.290064">
  <ele>343.28</ele>
  <time>2026-09-01T19:52:03Z</time>
  <course>10.69</course>
  <speed>0.01414213562373095</speed>
  <fix>3d</fix>
</trkpt>
<trkpt lat="-27.274439" lon="151.290064">
  <ele>343.1</ele>
  <time>2026-09-01T19:52:03Z</time>
  <course>270.0</course>
  <speed>0.0</speed>
  <fix>3d</fix>
</trkpt>
<trkpt lat="-27.2744391" lon="151.290064">
  <ele>343.29</ele>
  <time>2026-09-01T19:52:03Z</time>
  <course>10.69</course>
  <speed>0.01414213562373095</speed>
  <fix>3d</fix>
</trkpt>
<trkpt lat="-27.274439" lon="151.290064">
  <ele>343.1</ele>
  <time>2026-09-01T19:52:03Z</time>
  <course>270.0</course>
  <speed>0.0</speed>
  <fix>3d</fix>
</trkpt>
<trkpt lat="-27.2744391" lon="151.290064">
  <ele>343.1</ele>
  <time>2026-09-01T19:52:03Z</time>
  <course>10.69</course>
  <speed>0.01414213562373095</speed>
  <fix>3d</fix>
</trkpt>
<trkpt lat="-27.274439" lon="151.290064">
  <ele>343.1</ele>
  <time>2026-09-01T19:52:03Z</time>
  <course>270.0</course>
  <speed>0.0</speed>
  <fix>3d</fix>
</trkpt>
<trkpt lat="-27.2744391" lon="151.290064">
  <ele>343.1</ele>
  <time>2026-09-01T19:52:03Z</time>
  <course>10.69</course>
  <speed>0.01414213562373095</speed>
  <fix>3d</fix>
</trkpt>
<trkpt lat="-27.274439" lon="151.290064">
  <ele>343.1</ele>
  <time>2026-09-01T19:52:03Z</time>
  <course>270.0</course>
  <speed>0.0</speed>
  <fix>3d</fix>
</trkpt>
<trkpt lat="-27.2744391" lon="151.290064">
  <ele>343.1</ele>
  <time>2026-09-01T19:52:03Z</time>
  <course>10.69</course>
  <speed>0.01414213562373095</speed>
  <fix>3d</fix>
</trkpt>
<trkpt lat="-27.274439" lon="151.290064">
  <ele>343.1</ele>
  <time>2026-09-01T19:52:03Z</time>
  <course>270.0</course>
  <speed>0.0</speed>
  <fix>3d</fix>
</trkpt>
<trkpt lat="-27.2744391" lon="151.290064">
  <ele>343.1</ele>
  <time>2026-09-01T19:52:03Z</time>
  <course>10.69</course>
  <speed>0.01414213562373095</speed>
  <fix>3d</fix>
</trkpt>
<trkpt lat="-27.274439" lon="151.290064">
  <ele>343.1</ele>
  <time>2026-09-01T19:52:03Z</time>
  <course>270.0</course>
  <speed>0.0</speed>
  <fix>3d</fix>
</trkpt>
<trkpt lat="-27.2744391" lon="151.290064">
  <ele>343.1</ele>
  <time>2026-09-01T19:52:03Z</time>
  <course>10.69</course>
  <speed>0.01414213562373095</speed>
  <fix>3d</fix>
</trkpt>
<trkpt lat="-27.274439" lon="151.290064">
  <ele>343.1</ele>
  <time>2026-09-01T19:52:03Z</time>
  <course>270.0</course>
  <speed>0.0</speed>
  <fix>3d</fix>
</trkpt>
<trkpt lat="-27.2744391" lon="151.2900641">
  <ele>343.1</ele>
  <time>2026-09-01T19:52:03Z</time>
  <course>10.69</course>
  <speed>0.01414213562373095</speed>
  <fix>3d</fix>
</trkpt>
<trkpt lat="-27.274439" lon="151.290064">
  <ele>343.1</ele>
  <time>2026-09-01T19:52:03Z</time>
  <course>270.0</course>
  <speed>0.0</speed>
  <fix>3d</fix>
</trkpt>
<trkpt lat="-27.2744391" lon="151.290064">
  <ele>343.09</ele>
  <time>2026-09-01T19:52:03Z</time>
  <course>10.69</course>
  <speed>0.01414213562373095</speed>
  <fix>3d</fix>
</trkpt>
<trkpt lat="-27.274439" lon="151.290064">
  <ele>343.1</ele>
  <time>2026-09-01T19:52:03Z</time>
  <course>270.0</course>
  <speed>0.0</speed>
  <fix>3d</fix>
</trkpt>
<trkpt lat="-27.2744391" lon="151.2900641">
  <ele>343.09</ele>
  <time>2026-09-01T19:52:03Z</time>
  <course>10.69</course>
  <speed>0.01414213562373095</speed>
  <fix>3d</fix>
</trkpt>
<trkpt lat="-27.274439" lon="151.290064">
  <ele>343.1</ele>
  <time>2026-09-01T19:52:03Z</time>
  <course>270.0</course>
  <speed>0.0</speed>
  <fix>3d</fix>
</trkpt>
<trkpt lat="-27.2744391" lon="151.290064">
  <ele>343.09</ele>
  <time>2026-09-01T19:52:03Z</time>
  <course>10.69</course>
  <speed>0.01414213562373095</speed>
  <fix>3d</fix>
</trkpt>
<trkpt lat="-27.274439" lon="151.290064">
  <ele>343.1</ele>
  <time>2026-09-01T19:52:03Z</time>
  <course>270.0</course>
  <speed>0.0</speed>
  <fix>3d</fix>
</trkpt>
<trkpt lat="-27.2744391" lon="151.2900641">
  <ele>343.09</ele>
  <time>2026-09-01T19:52:03Z</time>
  <course>10.69</course>
  <speed>0.01414213562373095</speed>
  <fix>3d</fix>
</trkpt>
<trkpt lat="-27.274439" lon="151.290064">
  <ele>343.1</ele>
  <time>2026-09-01T19:52:03Z</time>
  <course>270.0</course>
  <speed>0.0</speed>
  <fix>3d</fix>
</trkpt>
<trkpt lat="-27.2744391" lon="151.290064">
  <ele>343.09</ele>
  <time>2026-09-01T19:52:03Z</time>
  <course>10.69</course>
  <speed>0.01414213562373095</speed>
  <fix>3d</fix>
</trkpt>
<trkpt lat="-27.274439" lon="151.290064">
  <ele>343.1</ele>
  <time>2026-09-01T19:52:03Z</time>
  <course>270.0</course>
  <speed>0.0</speed>
  <fix>3d</fix>
</trkpt>
<trkpt lat="-27.2744391" lon="151.2900641">
  <ele>343.09</ele>
  <time>2026-09-01T19:52:03Z</time>
  <course>10.69</course>
  <speed>0.01414213562373095</speed>
  <fix>3d</fix>
</trkpt>
<trkpt lat="-27.274439" lon="151.290064">
  <ele>343.1</ele>
  <time>2026-09-01T19:52:03Z</time>
  <course>270.0</course>
  <speed>0.0</speed>
  <fix>3d</fix>
</trkpt>
<trkpt lat="-27.2744391" lon="151.290064">
  <ele>343.08</ele>
  <time>2026-09-01T19:52:03Z</time>
  <course>10.69</course>
  <speed>0.01414213562373095</speed>
  <fix>3d</fix>
</trkpt>
<trkpt lat="-27.274439" lon="151.290064">
  <ele>343.1</ele>
  <time>2026-09-01T19:52:03Z</time>
  <course>270.0</course>
  <speed>0.0</speed>
  <fix>3d</fix>
</trkpt>
<trkpt lat="-27.2744391" lon="151.2900641">
  <ele>343.08</ele>
  <time>2026-09-01T19:52:03Z</time>
  <course>10.69</course>
  <speed>0.01414213562373095</speed>
  <fix>3d</fix>
</trkpt>
<trkpt lat="-27.274439" lon="151.290064">
  <ele>343.1</ele>
  <time>2026-09-01T19:52:03Z</time>
  <course>270.0</course>
  <speed>0.0</speed>
  <fix>3d</fix>
</trkpt>
<trkpt lat="-27.2744391" lon="151.2900641">
  <ele>343.08</ele>
  <time>2026-09-01T19:52:03Z</time>
  <course>10.69</course>
  <speed>0.01414213562373095</speed>
  <fix>3d</fix>
</trkpt>
<trkpt lat="-27.274439" lon="151.290064">
  <ele>343.1</ele>
  <time>2026-09-01T19:52:03Z</time>
  <course>270.0</course>
  <speed>0.0</speed>
  <fix>3d</fix>
</trkpt>
<trkpt lat="-27.2744391" lon="151.2900641">
  <ele>343.08</ele>
  <time>2026-09-01T19:52:03Z</time>
  <course>10.69</course>
  <speed>0.01414213562373095</speed>
  <fix>3d</fix>
</trkpt>
<trkpt lat="-27.274439" lon="151.290064">
  <ele>343.1</ele>
  <time>2026-09-01T19:52:03Z</time>
  <course>270.0</course>
  <speed>0.0</speed>
  <fix>3d</fix>
</trkpt>
<trkpt lat="-27.2744391" lon="151.2900641">
  <ele>343.08</ele>
  <time>2026-09-01T19:52:03Z</time>
  <course>10.69</course>
  <speed>0.01414213562373095</speed>
  <fix>3d</fix>
</trkpt>
<trkpt lat="-27.274439" lon="151.290064">
  <ele>343.1</ele>
  <time>2026-09-01T19:52:03Z</time>
  <course>270.0</course>
  <speed>0.0</speed>
  <fix>3d</fix>
</trkpt>
<trkpt lat="-27.2744391" lon="151.2900641">
  <ele>343.08</ele>
  <time>2026-09-01T19:52:03Z</time>
  <course>10.69</course>
  <speed>0.01414213562373095</speed>
  <fix>3d</fix>
</trkpt>
<trkpt lat="-27.274439" lon="151.290064">
  <ele>343.1</ele>
  <time>2026-09-01T19:52:03Z</time>
  <course>270.0</course>
  <speed>0.0</speed>
  <fix>3d</fix>
</trkpt>
<trkpt lat="-27.2744391" lon="151.2900641">
  <ele>343.08</ele>
  <time>2026-09-01T19:52:03Z</time>
  <course>10.69</course>
  <speed>0.01414213562373095</speed>
  <fix>3d</fix>
</trkpt>
<trkpt lat="-27.274439" lon="151.290064">
  <ele>343.1</ele>
  <time>2026-09-01T19:52:04Z</time>
  <course>270.0</course>
  <speed>0.0</speed>
  <fix>3d</fix>
</trkpt>
<trkpt lat="-27.2744391" lon="151.2900641">
  <ele>343.08</ele>
  <time>2026-09-01T19:52:04Z</time>
  <course>10.69</course>
  <speed>0.01414213562373095</speed>
  <fix>3d</fix>
</trkpt>
<trkpt lat="-27.274439" lon="151.290064">
  <ele>343.1</ele>
  <time>2026-09-01T19:52:04Z</time>
  <course>270.0</course>
  <speed>0.0</speed>
  <fix>3d</fix>
</trkpt>
<trkpt lat="-27.2744391" lon="151.2900641">
  <ele>343.08</ele>
  <time>2026-09-01T19:52:04Z</time>
  <course>10.69</course>
  <speed>0.01414213562373095</speed>
  <fix>3d</fix>
</trkpt>
<trkpt lat="-27.274439" lon="151.290064">
  <ele>343.1</ele>
  <time>2026-09-01T19:52:04Z</time>
  <course>270.0</course>
  <speed>0.0</speed>
  <fix>3d</fix>
</trkpt>
<trkpt lat="-27.2744391" lon="151.2900641">
  <ele>343.08</ele>
  <time>2026-09-01T19:52:04Z</time>
  <course>10.69</course>
  <speed>0.01414213562373095</speed>
  <fix>3d</fix>
</trkpt>
<trkpt lat="-27.274439" lon="151.290064">
  <ele>343.1</ele>
  <time>2026-09-01T19:52:04Z</time>
  <course>270.0</course>
  <speed>0.0</speed>
  <fix>3d</fix>
</trkpt>
<trkpt lat="-27.2744391" lon="151.2900641">
  <ele>343.08</ele>
  <time>2026-09-01T19:52:04Z</time>
  <course>10.69</course>
  <speed>0.01414213562373095</speed>
  <fix>3d</fix>
</trkpt>
<trkpt lat="-27.274439" lon="151.290064">
  <ele>343.1</ele>
  <time>2026-09-01T19:52:04Z</time>
  <course>270.0</course>
  <speed>0.0</speed>
  <fix>3d</fix>
</trkpt>
<trkpt lat="-27.2744391" lon="151.2900641">
  <ele>343.08</ele>
  <time>2026-09-01T19:52:04Z</time>
  <course>10.69</course>
  <speed>0.01414213562373095</speed>
  <fix>3d</fix>
</trkpt>
<trkpt lat="-27.274439" lon="151.290064">
  <ele>343.1</ele>
  <time>2026-09-01T19:52:04Z</time>
  <course>270.0</course>
  <speed>0.0</speed>
  <fix>3d</fix>
</trkpt>
<trkpt lat="-27.2744391" lon="151.2900641">
  <ele>343.08</ele>
  <time>2026-09-01T19:52:04Z</time>
  <course>10.69</course>
  <speed>0.01414213562373095</speed>
  <fix>3d</fix>
</trkpt>
<trkpt lat="-27.274439" lon="151.290064">
  <ele>343.1</ele>
  <time>2026-09-01T19:52:04Z</time>
  <course>270.0</course>
  <speed>0.0</speed>
  <fix>3d</fix>
</trkpt>
<trkpt lat="-27.2744391" lon="151.2900641">
  <ele>343.08</ele>
  <time>2026-09-01T19:52:04Z</time>
  <course>10.69</course>
  <speed>0.01414213562373095</speed>
  <fix>3d</fix>
</trkpt>
<trkpt lat="-27.274439" lon="151.290064">
  <ele>343.1</ele>
  <time>2026-09-01T19:52:04Z</time>
  <course>270.0</course>
  <speed>0.0</speed>
  <fix>3d</fix>
</trkpt>
<trkpt lat="-27.2744391" lon="151.2900641">
  <ele>343.08</ele>
  <time>2026-09-01T19:52:04Z</time>
  <course>10.69</course>
  <speed>0.01414213562373095</speed>
  <fix>3d</fix>
</trkpt>
<trkpt lat="-27.274439" lon="151.290064">
  <ele>343.1</ele>
  <time>2026-09-01T19:52:04Z</time>
  <course>270.0</course>
  <speed>0.0</speed>
  <fix>3d</fix>
</trkpt>
<trkpt lat="-27.2744391" lon="151.2900641">
  <ele>343.08</ele>
  <time>2026-09-01T19:52:04Z</time>
  <course>10.69</course>
  <speed>0.01414213562373095</speed>
  <fix>3d</fix>
</trkpt>
<trkpt lat="-27.274439" lon="151.290064">
  <ele>343.1</ele>
  <time>2026-09-01T19:52:04Z</time>
  <course>270.0</course>
  <speed>0.0</speed>
  <fix>3d</fix>
</trkpt>
<trkpt lat="-27.2744391" lon="151.2900641">
  <ele>343.08</ele>
  <time>2026-09-01T19:52:04Z</time>
  <course>10.69</course>
  <speed>0.01414213562373095</speed>
  <fix>3d</fix>
</trkpt>
<trkpt lat="-27.274439" lon="151.290064">
  <ele>343.1</ele>
  <time>2026-09-01T19:52:04Z</time>
  <course>270.0</course>
  <speed>0.0</speed>
  <fix>3d</fix>
</trkpt>
<trkpt lat="-27.2744391" lon="151.2900641">
  <ele>343.09</ele>
  <time>2026-09-01T19:52:04Z</time>
  <course>10.69</course>
  <speed>0.01414213562373095</speed>
  <fix>3d</fix>
</trkpt>
<trkpt lat="-27.274439" lon="151.290064">
  <ele>343.1</ele>
  <time>2026-09-01T19:52:04Z</time>
  <course>270.0</course>
  <speed>0.0</speed>
  <fix>3d</fix>
</trkpt>
<trkpt lat="-27.2744391" lon="151.2900641">
  <ele>343.09</ele>
  <time>2026-09-01T19:52:04Z</time>
  <course>10.69</course>
  <speed>0.01414213562373095</speed>
  <fix>3d</fix>
</trkpt>
<trkpt lat="-27.274439" lon="151.290064">
  <ele>343.1</ele>
  <time>2026-09-01T19:52:04Z</time>
  <course>270.0</course>
  <speed>0.0</speed>
  <fix>3d</fix>
</trkpt>
<trkpt lat="-27.2744391" lon="151.2900641">
  <ele>343.09</ele>
  <time>2026-09-01T19:52:04Z</time>
  <course>10.69</course>
  <speed>0.01414213562373095</speed>
  <fix>3d</fix>
</trkpt>
<trkpt lat="-27.274439" lon="151.290064">
  <ele>343.1</ele>
  <time>2026-09-01T19:52:04Z</time>
  <course>270.0</course>
  <speed>0.0</speed>
  <fix>3d</fix>
</trkpt>
<trkpt lat="-27.2744391" lon="151.2900641">
  <ele>343.08</ele>
  <time>2026-09-01T19:52:04Z</time>
  <course>10.69</course>
  <speed>0.01414213562373095</speed>
  <fix>3d</fix>
</trkpt>
<trkpt lat="-27.274439" lon="151.290064">
  <ele>343.1</ele>
  <time>2026-09-01T19:52:04Z</time>
  <course>270.0</course>
  <speed>0.0</speed>
  <fix>3d</fix>
</trkpt>
<trkpt lat="-27.2744391" lon="151.2900641">
  <ele>343.08</ele>
  <time>2026-09-01T19:52:04Z</time>
  <course>10.69</course>
  <speed>0.01414213562373095</speed>
  <fix>3d</fix>
</trkpt>
<trkpt lat="-27.274439" lon="151.290064">
  <ele>343.1</ele>
  <time>2026-09-01T19:52:04Z</time>
  <course>270.0</course>
  <speed>0.0</speed>
  <fix>3d</fix>
</trkpt>
<trkpt lat="-27.2744391" lon="151.2900641">
  <ele>343.08</ele>
  <time>2026-09-01T19:52:04Z</time>
  <course>10.69</course>
  <speed>0.01414213562373095</speed>
  <fix>3d</fix>
</trkpt>
<trkpt lat="-27.274439" lon="151.290064">
  <ele>343.1</ele>
  <time>2026-09-01T19:52:04Z</time>
  <course>270.0</course>
  <speed>0.0</speed>
  <fix>3d</fix>
</trkpt>
<trkpt lat="-27.2744391" lon="151.2900641">
  <ele>343.08</ele>
  <time>2026-09-01T19:52:04Z</time>
  <course>10.69</course>
  <speed>0.01414213562373095</speed>
  <fix>3d</fix>
</trkpt>
<trkpt lat="-27.274439" lon="151.290064">
  <ele>343.1</ele>
  <time>2026-09-01T19:52:04Z</time>
  <course>270.0</course>
  <speed>0.0</speed>
  <fix>3d</fix>
</trkpt>
<trkpt lat="-27.2744391" lon="151.2900641">
  <ele>343.08</ele>
  <time>2026-09-01T19:52:04Z</time>
  <course>10.69</course>
  <speed>0.01414213562373095</speed>
  <fix>3d</fix>
</trkpt>
<trkpt lat="-27.274439" lon="151.290064">
  <ele>343.1</ele>
  <time>2026-09-01T19:52:04Z</time>
  <course>270.0</course>
  <speed>0.0</speed>
  <fix>3d</fix>
</trkpt>
<trkpt lat="-27.2744391" lon="151.2900641">
  <ele>343.08</ele>
  <time>2026-09-01T19:52:04Z</time>
  <course>10.7</course>
  <speed>0.01414213562373095</speed>
  <fix>3d</fix>
</trkpt>
<trkpt lat="-27.274439" lon="151.290064">
  <ele>343.1</ele>
  <time>2026-09-01T19:52:04Z</time>
  <course>270.0</course>
  <speed>0.0</speed>
  <fix>3d</fix>
</trkpt>
<trkpt lat="-27.2744391" lon="151.2900641">
  <ele>343.08</ele>
  <time>2026-09-01T19:52:04Z</time>
  <course>10.7</course>
  <speed>0.01414213562373095</speed>
  <fix>3d</fix>
</trkpt>
<trkpt lat="-27.274439" lon="151.290064">
  <ele>343.1</ele>
  <time>2026-09-01T19:52:04Z</time>
  <course>270.0</course>
  <speed>0.0</speed>
  <fix>3d</fix>
</trkpt>
<trkpt lat="-27.2744391" lon="151.2900641">
  <ele>343.08</ele>
  <time>2026-09-01T19:52:04Z</time>
  <course>10.7</course>
  <speed>0.01414213562373095</speed>
  <fix>3d</fix>
</trkpt>
<trkpt lat="-27.274439" lon="151.290064">
  <ele>343.1</ele>
  <time>2026-09-01T19:52:04Z</time>
  <course>270.0</course>
  <speed>0.0</speed>
  <fix>3d</fix>
</trkpt>
<trkpt lat="-27.2744391" lon="151.2900641">
  <ele>343.07</ele>
  <time>2026-09-01T19:52:04Z</time>
  <course>10.7</course>
  <speed>0.01414213562373095</speed>
  <fix>3d</fix>
</trkpt>
<trkpt lat="-27.274439" lon="151.290064">
  <ele>343.1</ele>
  <time>2026-09-01T19:52:04Z</time>
  <course>270.0</course>
  <speed>0.0</speed>
  <fix>3d</fix>
</trkpt>
<trkpt lat="-27.2744391" lon="151.2900641">
  <ele>343.07</ele>
  <time>2026-09-01T19:52:04Z</time>
  <course>10.7</course>
  <speed>0.01414213562373095</speed>
  <fix>3d</fix>
</trkpt>
<trkpt lat="-27.274439" lon="151.290064">
  <ele>343.1</ele>
  <time>2026-09-01T19:52:04Z</time>
  <course>270.0</course>
  <speed>0.0</speed>
  <fix>3d</fix>
</trkpt>
<trkpt lat="-27.2744391" lon="151.2900641">
  <ele>343.07</ele>
  <time>2026-09-01T19:52:04Z</time>
  <course>10.7</course>
  <speed>0.01414213562373095</speed>
  <fix>3d</fix>
</trkpt>
<trkpt lat="-27.274439" lon="151.290064">
  <ele>343.1</ele>
  <time>2026-09-01T19:52:04Z</time>
  <course>270.0</course>
  <speed>0.0</speed>
  <fix>3d</fix>
</trkpt>
<trkpt lat="-27.2744391" lon="151.2900641">
  <ele>343.07</ele>
  <time>2026-09-01T19:52:04Z</time>
  <course>10.7</course>
  <speed>0.01414213562373095</speed>
  <fix>3d</fix>
</trkpt>
<trkpt lat="-27.274439" lon="151.290064">
  <ele>343.1</ele>
  <time>2026-09-01T19:52:04Z</time>
  <course>270.0</course>
  <speed>0.0</speed>
  <fix>3d</fix>
</trkpt>
<trkpt lat="-27.2744391" lon="151.2900641">
  <ele>343.06</ele>
  <time>2026-09-01T19:52:04Z</time>
  <course>10.7</course>
  <speed>0.01414213562373095</speed>
  <fix>3d</fix>
</trkpt>
<trkpt lat="-27.274439" lon="151.290064">
  <ele>343.1</ele>
  <time>2026-09-01T19:52:04Z</time>
  <course>270.0</course>
  <speed>0.0</speed>
  <fix>3d</fix>
</trkpt>
<trkpt lat="-27.2744391" lon="151.2900641">
  <ele>343.06</ele>
  <time>2026-09-01T19:52:04Z</time>
  <course>10.7</course>
  <speed>0.01414213562373095</speed>
  <fix>3d</fix>
</trkpt>
<trkpt lat="-27.274439" lon="151.290064">
  <ele>343.1</ele>
  <time>2026-09-01T19:52:04Z</time>
  <course>270.0</course>
  <speed>0.0</speed>
  <fix>3d</fix>
</trkpt>
<trkpt lat="-27.2744391" lon="151.2900641">
  <ele>343.06</ele>
  <time>2026-09-01T19:52:04Z</time>
  <course>10.7</course>
  <speed>0.01414213562373095</speed>
  <fix>3d</fix>
</trkpt>
<trkpt lat="-27.274439" lon="151.290064">
  <ele>343.1</ele>
  <time>2026-09-01T19:52:04Z</time>
  <course>270.0</course>
  <speed>0.0</speed>
  <fix>3d</fix>
</trkpt>
<trkpt lat="-27.2744391" lon="151.2900641">
  <ele>343.06</ele>
  <time>2026-09-01T19:52:04Z</time>
  <course>10.7</course>
  <speed>0.01414213562373095</speed>
  <fix>3d</fix>
</trkpt>
<trkpt lat="-27.274439" lon="151.290064">
  <ele>343.1</ele>
  <time>2026-09-01T19:52:04Z</time>
  <course>270.0</course>
  <speed>0.0</speed>
  <fix>3d</fix>
</trkpt>
<trkpt lat="-27.2744391" lon="151.2900641">
  <ele>343.06</ele>
  <time>2026-09-01T19:52:04Z</time>
  <course>10.7</course>
  <speed>0.01414213562373095</speed>
  <fix>3d</fix>
</trkpt>
<trkpt lat="-27.274439" lon="151.290064">
  <ele>343.1</ele>
  <time>2026-09-01T19:52:04Z</time>
  <course>270.0</course>
  <speed>0.0</speed>
  <fix>3d</fix>
</trkpt>
<trkpt lat="-27.2744391" lon="151.2900641">
  <ele>343.06</ele>
  <time>2026-09-01T19:52:04Z</time>
  <course>10.7</course>
  <speed>0.01414213562373095</speed>
  <fix>3d</fix>
</trkpt>
<trkpt lat="-27.274439" lon="151.290064">
  <ele>343.1</ele>
  <time>2026-09-01T19:52:04Z</time>
  <course>270.0</course>
  <speed>0.0</speed>
  <fix>3d</fix>
</trkpt>
<trkpt lat="-27.2744391" lon="151.2900641">
  <ele>343.06</ele>
  <time>2026-09-01T19:52:04Z</time>
  <course>10.7</course>
  <speed>0.01414213562373095</speed>
  <fix>3d</fix>
</trkpt>
<trkpt lat="-27.274439" lon="151.290064">
  <ele>343.1</ele>
  <time>2026-09-01T19:52:04Z</time>
  <course>270.0</course>
  <speed>0.0</speed>
  <fix>3d</fix>
</trkpt>
<trkpt lat="-27.2744391" lon="151.2900641">
  <ele>343.07</ele>
  <time>2026-09-01T19:52:04Z</time>
  <course>10.7</course>
  <speed>0.01414213562373095</speed>
  <fix>3d</fix>
</trkpt>
<trkpt lat="-27.274439" lon="151.290064">
  <ele>343.1</ele>
  <time>2026-09-01T19:52:04Z</time>
  <course>270.0</course>
  <speed>0.0</speed>
  <fix>3d</fix>
</trkpt>
<trkpt lat="-27.2744391" lon="151.2900641">
  <ele>343.07</ele>
  <time>2026-09-01T19:52:04Z</time>
  <course>10.7</course>
  <speed>0.01414213562373095</speed>
  <fix>3d</fix>
</trkpt>
<trkpt lat="-27.274439" lon="151.290064">
  <ele>343.1</ele>
  <time>2026-09-01T19:52:04Z</time>
  <course>270.0</course>
  <speed>0.0</speed>
  <fix>3d</fix>
</trkpt>
<trkpt lat="-27.2744391" lon="151.2900641">
  <ele>343.07</ele>
  <time>2026-09-01T19:52:04Z</time>
  <course>10.7</course>
  <speed>0.01414213562373095</speed>
  <fix>3d</fix>
</trkpt>
<trkpt lat="-27.274439" lon="151.290064">
  <ele>343.1</ele>
  <time>2026-09-01T19:52:04Z</time>
  <course>270.0</course>
  <speed>0.0</speed>
  <fix>3d</fix>
</trkpt>
<trkpt lat="-27.2744391" lon="151.2900641">
  <ele>343.07</ele>
  <time>2026-09-01T19:52:04Z</time>
  <course>10.7</course>
  <speed>0.01414213562373095</speed>
  <fix>3d</fix>
</trkpt>
<trkpt lat="-27.274439" lon="151.290064">
  <ele>343.1</ele>
  <time>2026-09-01T19:52:04Z</time>
  <course>270.0</course>
  <speed>0.0</speed>
  <fix>3d</fix>
</trkpt>
<trkpt lat="-27.2744391" lon="151.2900641">
  <ele>343.07</ele>
  <time>2026-09-01T19:52:04Z</time>
  <course>10.7</course>
  <speed>0.01414213562373095</speed>
  <fix>3d</fix>
</trkpt>
<trkpt lat="-27.274439" lon="151.290064">
  <ele>343.1</ele>
  <time>2026-09-01T19:52:04Z</time>
  <course>270.0</course>
  <speed>0.0</speed>
  <fix>3d</fix>
</trkpt>
<trkpt lat="-27.2744391" lon="151.2900641">
  <ele>343.07</ele>
  <time>2026-09-01T19:52:04Z</time>
  <course>10.7</course>
  <speed>0.01414213562373095</speed>
  <fix>3d</fix>
</trkpt>
<trkpt lat="-27.274439" lon="151.290064">
  <ele>343.1</ele>
  <time>2026-09-01T19:52:04Z</time>
  <course>270.0</course>
  <speed>0.0</speed>
  <fix>3d</fix>
</trkpt>
<trkpt lat="-27.2744391" lon="151.2900641">
  <ele>343.07</ele>
  <time>2026-09-01T19:52:04Z</time>
  <course>10.7</course>
  <speed>0.01414213562373095</speed>
  <fix>3d</fix>
</trkpt>
<trkpt lat="-27.274439" lon="151.290064">
  <ele>343.1</ele>
  <time>2026-09-01T19:52:04Z</time>
  <course>270.0</course>
  <speed>0.0</speed>
  <fix>3d</fix>
</trkpt>
<trkpt lat="-27.2744391" lon="151.2900641">
  <ele>343.08</ele>
  <time>2026-09-01T19:52:04Z</time>
  <course>10.7</course>
  <speed>0.01414213562373095</speed>
  <fix>3d</fix>
</trkpt>
<trkpt lat="-27.274439" lon="151.290064">
  <ele>343.1</ele>
  <time>2026-09-01T19:52:04Z</time>
  <course>270.0</course>
  <speed>0.0</speed>
  <fix>3d</fix>
</trkpt>
<trkpt lat="-27.2744391" lon="151.2900641">
  <ele>343.08</ele>
  <time>2026-09-01T19:52:04Z</time>
  <course>10.7</course>
  <speed>0.01414213562373095</speed>
  <fix>3d</fix>
</trkpt>
<trkpt lat="-27.274439" lon="151.290064">
  <ele>343.1</ele>
  <time>2026-09-01T19:52:04Z</time>
  <course>270.0</course>
  <speed>0.0</speed>
  <fix>3d</fix>
</trkpt>
<trkpt lat="-27.2744391" lon="151.2900641">
  <ele>343.1</ele>
  <time>2026-09-01T19:52:04Z</time>
  <course>10.7</course>
  <speed>0.01414213562373095</speed>
  <fix>3d</fix>
</trkpt>
<trkpt lat="-27.274439" lon="151.290064">
  <ele>343.1</ele>
  <time>2026-09-01T19:52:04Z</time>
  <course>270.0</course>
  <speed>0.0</speed>
  <fix>3d</fix>
</trkpt>
<trkpt lat="-27.2744391" lon="151.2900641">
  <ele>343.09</ele>
  <time>2026-09-01T19:52:04Z</time>
  <course>10.7</course>
  <speed>0.01414213562373095</speed>
  <fix>3d</fix>
</trkpt>
<trkpt lat="-27.274439" lon="151.290064">
  <ele>343.1</ele>
  <time>2026-09-01T19:52:04Z</time>
  <course>270.0</course>
  <speed>0.0</speed>
  <fix>3d</fix>
</trkpt>
<trkpt lat="-27.2744391" lon="151.2900641">
  <ele>343.09</ele>
  <time>2026-09-01T19:52:04Z</time>
  <course>10.7</course>
  <speed>0.01414213562373095</speed>
  <fix>3d</fix>
</trkpt>
<trkpt lat="-27.274439" lon="151.290064">
  <ele>343.1</ele>
  <time>2026-09-01T19:52:04Z</time>
  <course>270.0</course>
  <speed>0.0</speed>
  <fix>3d</fix>
</trkpt>
<trkpt lat="-27.2744391" lon="151.2900641">
  <ele>343.09</ele>
  <time>2026-09-01T19:52:04Z</time>
  <course>10.7</course>
  <speed>0.01414213562373095</speed>
  <fix>3d</fix>
</trkpt>
<trkpt lat="-27.274439" lon="151.290064">
  <ele>343.1</ele>
  <time>2026-09-01T19:52:04Z</time>
  <course>270.0</course>
  <speed>0.0</speed>
  <fix>3d</fix>
</trkpt>
<trkpt lat="-27.2744391" lon="151.2900641">
  <ele>343.09</ele>
  <time>2026-09-01T19:52:04Z</time>
  <course>10.7</course>
  <speed>0.01414213562373095</speed>
  <fix>3d</fix>
</trkpt>
<trkpt lat="-27.274439" lon="151.290064">
  <ele>343.1</ele>
  <time>2026-09-01T19:52:04Z</time>
  <course>270.0</course>
  <speed>0.0</speed>
  <fix>3d</fix>
</trkpt>
<trkpt lat="-27.2744391" lon="151.2900641">
  <ele>343.09</ele>
  <time>2026-09-01T19:52:04Z</time>
  <course>10.7</course>
  <speed>0.01414213562373095</speed>
  <fix>3d</fix>
</trkpt>
<trkpt lat="-27.274439" lon="151.290064">
  <ele>343.1</ele>
  <time>2026-09-01T19:52:04Z</time>
  <course>270.0</course>
  <speed>0.0</speed>
  <fix>3d</fix>
</trkpt>
<trkpt lat="-27.2744391" lon="151.2900641">
  <ele>343.08</ele>
  <time>2026-09-01T19:52:04Z</time>
  <course>10.7</course>
  <speed>0.01414213562373095</speed>
  <fix>3d</fix>
</trkpt>
<trkpt lat="-27.274439" lon="151.290064">
  <ele>343.1</ele>
  <time>2026-09-01T19:52:04Z</time>
  <course>270.0</course>
  <speed>0.0</speed>
  <fix>3d</fix>
</trkpt>
<trkpt lat="-27.2744391" lon="151.2900641">
  <ele>343.08</ele>
  <time>2026-09-01T19:52:04Z</time>
  <course>10.7</course>
  <speed>0.01414213562373095</speed>
  <fix>3d</fix>
</trkpt>
<trkpt lat="-27.274439" lon="151.290064">
  <ele>343.1</ele>
  <time>2026-09-01T19:52:04Z</time>
  <course>270.0</course>
  <speed>0.0</speed>
  <fix>3d</fix>
</trkpt>
<trkpt lat="-27.2744391" lon="151.2900641">
  <ele>343.08</ele>
  <time>2026-09-01T19:52:04Z</time>
  <course>10.7</course>
  <speed>0.01414213562373095</speed>
  <fix>3d</fix>
</trkpt>
<trkpt lat="-27.274439" lon="151.290064">
  <ele>343.1</ele>
  <time>2026-09-01T19:52:04Z</time>
  <course>270.0</course>
  <speed>0.0</speed>
  <fix>3d</fix>
</trkpt>
<trkpt lat="-27.2744391" lon="151.2900641">
  <ele>343.08</ele>
  <time>2026-09-01T19:52:04Z</time>
  <course>10.7</course>
  <speed>0.01414213562373095</speed>
  <fix>3d</fix>
</trkpt>
<trkpt lat="-27.274439" lon="151.290064">
  <ele>343.1</ele>
  <time>2026-09-01T19:52:04Z</time>
  <course>270.0</course>
  <speed>0.0</speed>
  <fix>3d</fix>
</trkpt>
<trkpt lat="-27.2744391" lon="151.2900641">
  <ele>343.07</ele>
  <time>2026-09-01T19:52:04Z</time>
  <course>10.7</course>
  <speed>0.01414213562373095</speed>
  <fix>3d</fix>
</trkpt>
<trkpt lat="-27.274439" lon="151.290064">
  <ele>343.1</ele>
  <time>2026-09-01T19:52:04Z</time>
  <course>270.0</course>
  <speed>0.0</speed>
  <fix>3d</fix>
</trkpt>
<trkpt lat="-27.2744391" lon="151.2900641">
  <ele>343.07</ele>
  <time>2026-09-01T19:52:04Z</time>
  <course>10.7</course>
  <speed>0.01414213562373095</speed>
  <fix>3d</fix>
</trkpt>
<trkpt lat="-27.274439" lon="151.290064">
  <ele>343.1</ele>
  <time>2026-09-01T19:52:04Z</time>
  <course>270.0</course>
  <speed>0.0</speed>
  <fix>3d</fix>
</trkpt>
<trkpt lat="-27.2744391" lon="151.2900641">
  <ele>343.07</ele>
  <time>2026-09-01T19:52:04Z</time>
  <course>10.7</course>
  <speed>0.01414213562373095</speed>
  <fix>3d</fix>
</trkpt>
<trkpt lat="-27.274439" lon="151.290064">
  <ele>343.1</ele>
  <time>2026-09-01T19:52:04Z</time>
  <course>270.0</course>
  <speed>0.0</speed>
  <fix>3d</fix>
</trkpt>
<trkpt lat="-27.2744391" lon="151.2900641">
  <ele>343.06</ele>
  <time>2026-09-01T19:52:04Z</time>
  <course>10.7</course>
  <speed>0.01414213562373095</speed>
  <fix>3d</fix>
</trkpt>
<trkpt lat="-27.274439" lon="151.290064">
  <ele>343.1</ele>
  <time>2026-09-01T19:52:04Z</time>
  <course>270.0</course>
  <speed>0.0</speed>
  <fix>3d</fix>
</trkpt>
<trkpt lat="-27.2744391" lon="151.2900641">
  <ele>343.06</ele>
  <time>2026-09-01T19:52:04Z</time>
  <course>10.7</course>
  <speed>0.01414213562373095</speed>
  <fix>3d</fix>
</trkpt>
<trkpt lat="-27.274439" lon="151.290064">
  <ele>343.1</ele>
  <time>2026-09-01T19:52:04Z</time>
  <course>270.0</course>
  <speed>0.0</speed>
  <fix>3d</fix>
</trkpt>
<trkpt lat="-27.2744391" lon="151.2900641">
  <ele>343.06</ele>
  <time>2026-09-01T19:52:04Z</time>
  <course>10.7</course>
  <speed>0.01414213562373095</speed>
  <fix>3d</fix>
</trkpt>
<trkpt lat="-27.274439" lon="151.290064">
  <ele>343.1</ele>
  <time>2026-09-01T19:52:04Z</time>
  <course>270.0</course>
  <speed>0.0</speed>
  <fix>3d</fix>
</trkpt>
<trkpt lat="-27.2744391" lon="151.2900641">
  <ele>343.06</ele>
  <time>2026-09-01T19:52:04Z</time>
  <course>10.7</course>
  <speed>0.01414213562373095</speed>
  <fix>3d</fix>
</trkpt>
<trkpt lat="-27.274439" lon="151.290064">
  <ele>343.1</ele>
  <time>2026-09-01T19:52:04Z</time>
  <course>270.0</course>
  <speed>0.0</speed>
  <fix>3d</fix>
</trkpt>
<trkpt lat="-27.2744391" lon="151.2900641">
  <ele>343.06</ele>
  <time>2026-09-01T19:52:04Z</time>
  <course>10.7</course>
  <speed>0.01414213562373095</speed>
  <fix>3d</fix>
</trkpt>
<trkpt lat="-27.274439" lon="151.290064">
  <ele>343.1</ele>
  <time>2026-09-01T19:52:04Z</time>
  <course>270.0</course>
  <speed>0.0</speed>
  <fix>3d</fix>
</trkpt>
<trkpt lat="-27.2744391" lon="151.2900641">
  <ele>343.06</ele>
  <time>2026-09-01T19:52:04Z</time>
  <course>10.7</course>
  <speed>0.01414213562373095</speed>
  <fix>3d</fix>
</trkpt>
<trkpt lat="-27.274439" lon="151.290064">
  <ele>343.1</ele>
  <time>2026-09-01T19:52:04Z</time>
  <course>270.0</course>
  <speed>0.0</speed>
  <fix>3d</fix>
</trkpt>
<trkpt lat="-27.2744391" lon="151.2900641">
  <ele>343.06</ele>
  <time>2026-09-01T19:52:04Z</time>
  <course>10.7</course>
  <speed>0.01414213562373095</speed>
  <fix>3d</fix>
</trkpt>
<trkpt lat="-27.274439" lon="151.290064">
  <ele>343.1</ele>
  <time>2026-09-01T19:52:04Z</time>
  <course>270.0</course>
  <speed>0.0</speed>
  <fix>3d</fix>
</trkpt>
<trkpt lat="-27.2744391" lon="151.2900641">
  <ele>343.06</ele>
  <time>2026-09-01T19:52:04Z</time>
  <course>10.71</course>
  <speed>0.01414213562373095</speed>
  <fix>3d</fix>
</trkpt>
<trkpt lat="-27.274439" lon="151.290064">
  <ele>343.1</ele>
  <time>2026-09-01T19:52:04Z</time>
  <course>270.0</course>
  <speed>0.0</speed>
  <fix>3d</fix>
</trkpt>
<trkpt lat="-27.2744391" lon="151.2900641">
  <ele>343.05</ele>
  <time>2026-09-01T19:52:04Z</time>
  <course>10.71</course>
  <speed>0.01414213562373095</speed>
  <fix>3d</fix>
</trkpt>
<trkpt lat="-27.274439" lon="151.290064">
  <ele>343.1</ele>
  <time>2026-09-01T19:52:04Z</time>
  <course>270.0</course>
  <speed>0.0</speed>
  <fix>3d</fix>
</trkpt>
<trkpt lat="-27.2744391" lon="151.2900641">
  <ele>343.05</ele>
  <time>2026-09-01T19:52:04Z</time>
  <course>10.71</course>
  <speed>0.01414213562373095</speed>
  <fix>3d</fix>
</trkpt>
<trkpt lat="-27.274439" lon="151.290064">
  <ele>343.1</ele>
  <time>2026-09-01T19:52:04Z</time>
  <course>270.0</course>
  <speed>0.0</speed>
  <fix>3d</fix>
</trkpt>
<trkpt lat="-27.2744391" lon="151.2900641">
  <ele>343.05</ele>
  <time>2026-09-01T19:52:04Z</time>
  <course>10.71</course>
  <speed>0.01414213562373095</speed>
  <fix>3d</fix>
</trkpt>
<trkpt lat="-27.274439" lon="151.290064">
  <ele>343.1</ele>
  <time>2026-09-01T19:52:04Z</time>
  <course>270.0</course>
  <speed>0.0</speed>
  <fix>3d</fix>
</trkpt>
<trkpt lat="-27.2744391" lon="151.2900641">
  <ele>343.05</ele>
  <time>2026-09-01T19:52:04Z</time>
  <course>10.71</course>
  <speed>0.01414213562373095</speed>
  <fix>3d</fix>
</trkpt>
<trkpt lat="-27.274439" lon="151.290064">
  <ele>343.1</ele>
  <time>2026-09-01T19:52:04Z</time>
  <course>270.0</course>
  <speed>0.0</speed>
  <fix>3d</fix>
</trkpt>
<trkpt lat="-27.2744391" lon="151.2900641">
  <ele>343.05</ele>
  <time>2026-09-01T19:52:04Z</time>
  <course>10.71</course>
  <speed>0.01414213562373095</speed>
  <fix>3d</fix>
</trkpt>
<trkpt lat="-27.274439" lon="151.290064">
  <ele>343.1</ele>
  <time>2026-09-01T19:52:04Z</time>
  <course>270.0</course>
  <speed>0.0</speed>
  <fix>3d</fix>
</trkpt>
<trkpt lat="-27.2744391" lon="151.2900641">
  <ele>343.05</ele>
  <time>2026-09-01T19:52:04Z</time>
  <course>10.71</course>
  <speed>0.01414213562373095</speed>
  <fix>3d</fix>
</trkpt>
<trkpt lat="-27.274439" lon="151.290064">
  <ele>343.1</ele>
  <time>2026-09-01T19:52:04Z</time>
  <course>270.0</course>
  <speed>0.0</speed>
  <fix>3d</fix>
</trkpt>
<trkpt lat="-27.2744391" lon="151.2900641">
  <ele>343.05</ele>
  <time>2026-09-01T19:52:04Z</time>
  <course>10.71</course>
  <speed>0.01414213562373095</speed>
  <fix>3d</fix>
</trkpt>
<trkpt lat="-27.274439" lon="151.290064">
  <ele>343.1</ele>
  <time>2026-09-01T19:52:04Z</time>
  <course>270.0</course>
  <speed>0.0</speed>
  <fix>3d</fix>
</trkpt>
<trkpt lat="-27.2744391" lon="151.2900641">
  <ele>343.05</ele>
  <time>2026-09-01T19:52:04Z</time>
  <course>10.71</course>
  <speed>0.01414213562373095</speed>
  <fix>3d</fix>
</trkpt>
<trkpt lat="-27.274439" lon="151.290064">
  <ele>343.1</ele>
  <time>2026-09-01T19:52:04Z</time>
  <course>270.0</course>
  <speed>0.0</speed>
  <fix>3d</fix>
</trkpt>
<trkpt lat="-27.2744391" lon="151.2900641">
  <ele>343.04</ele>
  <time>2026-09-01T19:52:04Z</time>
  <course>10.71</course>
  <speed>0.01414213562373095</speed>
  <fix>3d</fix>
</trkpt>
<trkpt lat="-27.274439" lon="151.290064">
  <ele>343.1</ele>
  <time>2026-09-01T19:52:04Z</time>
  <course>270.0</course>
  <speed>0.0</speed>
  <fix>3d</fix>
</trkpt>
<trkpt lat="-27.2744391" lon="151.2900641">
  <ele>343.04</ele>
  <time>2026-09-01T19:52:04Z</time>
  <course>10.71</course>
  <speed>0.01414213562373095</speed>
  <fix>3d</fix>
</trkpt>
<trkpt lat="-27.274439" lon="151.290064">
  <ele>343.1</ele>
  <time>2026-09-01T19:52:04Z</time>
  <course>270.0</course>
  <speed>0.0</speed>
  <fix>3d</fix>
</trkpt>
<trkpt lat="-27.2744391" lon="151.2900641">
  <ele>343.04</ele>
  <time>2026-09-01T19:52:04Z</time>
  <course>10.71</course>
  <speed>0.01414213562373095</speed>
  <fix>3d</fix>
</trkpt>
<trkpt lat="-27.274439" lon="151.290064">
  <ele>343.1</ele>
  <time>2026-09-01T19:52:04Z</time>
  <course>270.0</course>
  <speed>0.0</speed>
  <fix>3d</fix>
</trkpt>
<trkpt lat="-27.2744391" lon="151.2900641">
  <ele>343.03</ele>
  <time>2026-09-01T19:52:04Z</time>
  <course>10.71</course>
  <speed>0.01414213562373095</speed>
  <fix>3d</fix>
</trkpt>
<trkpt lat="-27.274439" lon="151.290064">
  <ele>343.1</ele>
  <time>2026-09-01T19:52:04Z</time>
  <course>270.0</course>
  <speed>0.0</speed>
  <fix>3d</fix>
</trkpt>
<trkpt lat="-27.2744391" lon="151.2900641">
  <ele>343.03</ele>
  <time>2026-09-01T19:52:04Z</time>
  <course>10.71</course>
  <speed>0.01414213562373095</speed>
  <fix>3d</fix>
</trkpt>
<trkpt lat="-27.274439" lon="151.290064">
  <ele>343.1</ele>
  <time>2026-09-01T19:52:04Z</time>
  <course>270.0</course>
  <speed>0.0</speed>
  <fix>3d</fix>
</trkpt>
<trkpt lat="-27.2744391" lon="151.2900641">
  <ele>343.03</ele>
  <time>2026-09-01T19:52:04Z</time>
  <course>10.71</course>
  <speed>0.01414213562373095</speed>
  <fix>3d</fix>
</trkpt>
<trkpt lat="-27.274439" lon="151.290064">
  <ele>343.1</ele>
  <time>2026-09-01T19:52:04Z</time>
  <course>270.0</course>
  <speed>0.0</speed>
  <fix>3d</fix>
</trkpt>
<trkpt lat="-27.2744391" lon="151.2900641">
  <ele>343.04</ele>
  <time>2026-09-01T19:52:04Z</time>
  <course>10.71</course>
  <speed>0.01414213562373095</speed>
  <fix>3d</fix>
</trkpt>
<trkpt lat="-27.274439" lon="151.290064">
  <ele>343.1</ele>
  <time>2026-09-01T19:52:04Z</time>
  <course>270.0</course>
  <speed>0.0</speed>
  <fix>3d</fix>
</trkpt>
<trkpt lat="-27.2744391" lon="151.2900641">
  <ele>343.04</ele>
  <time>2026-09-01T19:52:04Z</time>
  <course>10.71</course>
  <speed>0.01414213562373095</speed>
  <fix>3d</fix>
</trkpt>
<trkpt lat="-27.274439" lon="151.290064">
  <ele>343.1</ele>
  <time>2026-09-01T19:52:04Z</time>
  <course>270.0</course>
  <speed>0.0</speed>
  <fix>3d</fix>
</trkpt>
<trkpt lat="-27.2744391" lon="151.2900641">
  <ele>343.04</ele>
  <time>2026-09-01T19:52:04Z</time>
  <course>10.71</course>
  <speed>0.01414213562373095</speed>
  <fix>3d</fix>
</trkpt>
<trkpt lat="-27.274439" lon="151.290064">
  <ele>343.1</ele>
  <time>2026-09-01T19:52:04Z</time>
  <course>270.0</course>
  <speed>0.0</speed>
  <fix>3d</fix>
</trkpt>
<trkpt lat="-27.2744391" lon="151.2900641">
  <ele>343.04</ele>
  <time>2026-09-01T19:52:04Z</time>
  <course>10.71</course>
  <speed>0.01414213562373095</speed>
  <fix>3d</fix>
</trkpt>
<trkpt lat="-27.274439" lon="151.290064">
  <ele>343.1</ele>
  <time>2026-09-01T19:52:04Z</time>
  <course>270.0</course>
  <speed>0.0</speed>
  <fix>3d</fix>
</trkpt>
<trkpt lat="-27.2744391" lon="151.2900641">
  <ele>343.04</ele>
  <time>2026-09-01T19:52:04Z</time>
  <course>10.71</course>
  <speed>0.01414213562373095</speed>
  <fix>3d</fix>
</trkpt>
<trkpt lat="-27.274439" lon="151.290064">
  <ele>343.1</ele>
  <time>2026-09-01T19:52:04Z</time>
  <course>270.0</course>
  <speed>0.0</speed>
  <fix>3d</fix>
</trkpt>
<trkpt lat="-27.2744391" lon="151.2900641">
  <ele>343.04</ele>
  <time>2026-09-01T19:52:04Z</time>
  <course>10.71</course>
  <speed>0.01414213562373095</speed>
  <fix>3d</fix>
</trkpt>
<trkpt lat="-27.274439" lon="151.290064">
  <ele>343.1</ele>
  <time>2026-09-01T19:52:04Z</time>
  <course>270.0</course>
  <speed>0.0</speed>
  <fix>3d</fix>
</trkpt>
<trkpt lat="-27.2744391" lon="151.2900641">
  <ele>343.04</ele>
  <time>2026-09-01T19:52:04Z</time>
  <course>10.71</course>
  <speed>0.01414213562373095</speed>
  <fix>3d</fix>
</trkpt>
<trkpt lat="-27.274439" lon="151.290064">
  <ele>343.1</ele>
  <time>2026-09-01T19:52:04Z</time>
  <course>270.0</course>
  <speed>0.0</speed>
  <fix>3d</fix>
</trkpt>
<trkpt lat="-27.2744391" lon="151.2900641">
  <ele>343.04</ele>
  <time>2026-09-01T19:52:04Z</time>
  <course>10.71</course>
  <speed>0.01414213562373095</speed>
  <fix>3d</fix>
</trkpt>
<trkpt lat="-27.274439" lon="151.290064">
  <ele>343.1</ele>
  <time>2026-09-01T19:52:04Z</time>
  <course>270.0</course>
  <speed>0.0</speed>
  <fix>3d</fix>
</trkpt>
<trkpt lat="-27.2744391" lon="151.2900641">
  <ele>343.04</ele>
  <time>2026-09-01T19:52:04Z</time>
  <course>10.71</course>
  <speed>0.01414213562373095</speed>
  <fix>3d</fix>
</trkpt>
<trkpt lat="-27.274439" lon="151.290064">
  <ele>343.1</ele>
  <time>2026-09-01T19:52:04Z</time>
  <course>270.0</course>
  <speed>0.0</speed>
  <fix>3d</fix>
</trkpt>
<trkpt lat="-27.2744391" lon="151.2900641">
  <ele>343.04</ele>
  <time>2026-09-01T19:52:04Z</time>
  <course>10.71</course>
  <speed>0.01414213562373095</speed>
  <fix>3d</fix>
</trkpt>
<trkpt lat="-27.274439" lon="151.290064">
  <ele>343.1</ele>
  <time>2026-09-01T19:52:04Z</time>
  <course>270.0</course>
  <speed>0.0</speed>
  <fix>3d</fix>
</trkpt>
<trkpt lat="-27.2744391" lon="151.2900641">
  <ele>343.03</ele>
  <time>2026-09-01T19:52:04Z</time>
  <course>10.71</course>
  <speed>0.01414213562373095</speed>
  <fix>3d</fix>
</trkpt>
<trkpt lat="-27.274439" lon="151.290064">
  <ele>343.1</ele>
  <time>2026-09-01T19:52:04Z</time>
  <course>270.0</course>
  <speed>0.0</speed>
  <fix>3d</fix>
</trkpt>
<trkpt lat="-27.2744391" lon="151.2900641">
  <ele>343.03</ele>
  <time>2026-09-01T19:52:04Z</time>
  <course>10.71</course>
  <speed>0.01414213562373095</speed>
  <fix>3d</fix>
</trkpt>
<trkpt lat="-27.274439" lon="151.290064">
  <ele>343.1</ele>
  <time>2026-09-01T19:52:04Z</time>
  <course>270.0</course>
  <speed>0.0</speed>
  <fix>3d</fix>
</trkpt>
<trkpt lat="-27.2744391" lon="151.2900641">
  <ele>343.03</ele>
  <time>2026-09-01T19:52:04Z</time>
  <course>10.71</course>
  <speed>0.01414213562373095</speed>
  <fix>3d</fix>
</trkpt>
<trkpt lat="-27.274439" lon="151.290064">
  <ele>343.1</ele>
  <time>2026-09-01T19:52:04Z</time>
  <course>270.0</course>
  <speed>0.0</speed>
  <fix>3d</fix>
</trkpt>
<trkpt lat="-27.2744391" lon="151.2900641">
  <ele>343.03</ele>
  <time>2026-09-01T19:52:04Z</time>
  <course>10.71</course>
  <speed>0.01414213562373095</speed>
  <fix>3d</fix>
</trkpt>
<trkpt lat="-27.274439" lon="151.290064">
  <ele>343.1</ele>
  <time>2026-09-01T19:52:04Z</time>
  <course>270.0</course>
  <speed>0.0</speed>
  <fix>3d</fix>
</trkpt>
<trkpt lat="-27.2744391" lon="151.2900641">
  <ele>343.03</ele>
  <time>2026-09-01T19:52:04Z</time>
  <course>10.71</course>
  <speed>0.01414213562373095</speed>
  <fix>3d</fix>
</trkpt>
<trkpt lat="-27.274439" lon="151.290064">
  <ele>343.1</ele>
  <time>2026-09-01T19:52:04Z</time>
  <course>270.0</course>
  <speed>0.0</speed>
  <fix>3d</fix>
</trkpt>
<trkpt lat="-27.2744391" lon="151.2900641">
  <ele>343.03</ele>
  <time>2026-09-01T19:52:04Z</time>
  <course>10.71</course>
  <speed>0.01414213562373095</speed>
  <fix>3d</fix>
</trkpt>
<trkpt lat="-27.274439" lon="151.290064">
  <ele>343.1</ele>
  <time>2026-09-01T19:52:04Z</time>
  <course>270.0</course>
  <speed>0.0</speed>
  <fix>3d</fix>
</trkpt>
<trkpt lat="-27.2744391" lon="151.2900641">
  <ele>343.02</ele>
  <time>2026-09-01T19:52:04Z</time>
  <course>10.71</course>
  <speed>0.01414213562373095</speed>
  <fix>3d</fix>
</trkpt>
<trkpt lat="-27.274439" lon="151.290064">
  <ele>343.1</ele>
  <time>2026-09-01T19:52:04Z</time>
  <course>270.0</course>
  <speed>0.0</speed>
  <fix>3d</fix>
</trkpt>
<trkpt lat="-27.2744391" lon="151.2900641">
  <ele>343.02</ele>
  <time>2026-09-01T19:52:05Z</time>
  <course>10.71</course>
  <speed>0.01414213562373095</speed>
  <fix>3d</fix>
</trkpt>
<trkpt lat="-27.274439" lon="151.290064">
  <ele>343.1</ele>
  <time>2026-09-01T19:52:05Z</time>
  <course>270.0</course>
  <speed>0.0</speed>
  <fix>3d</fix>
</trkpt>
<trkpt lat="-27.2744391" lon="151.2900641">
  <ele>343.02</ele>
  <time>2026-09-01T19:52:05Z</time>
  <course>10.72</course>
  <speed>0.01414213562373095</speed>
  <fix>3d</fix>
</trkpt>
<trkpt lat="-27.274439" lon="151.290064">
  <ele>343.1</ele>
  <time>2026-09-01T19:52:05Z</time>
  <course>270.0</course>
  <speed>0.0</speed>
  <fix>3d</fix>
</trkpt>
<trkpt lat="-27.2744391" lon="151.2900641">
  <ele>343.02</ele>
  <time>2026-09-01T19:52:05Z</time>
  <course>10.72</course>
  <speed>0.01414213562373095</speed>
  <fix>3d</fix>
</trkpt>
<trkpt lat="-27.274439" lon="151.290064">
  <ele>343.1</ele>
  <time>2026-09-01T19:52:05Z</time>
  <course>270.0</course>
  <speed>0.0</speed>
  <fix>3d</fix>
</trkpt>
<trkpt lat="-27.2744391" lon="151.2900641">
  <ele>343.02</ele>
  <time>2026-09-01T19:52:05Z</time>
  <course>10.72</course>
  <speed>0.01414213562373095</speed>
  <fix>3d</fix>
</trkpt>
<trkpt lat="-27.274439" lon="151.290064">
  <ele>343.1</ele>
  <time>2026-09-01T19:52:05Z</time>
  <course>270.0</course>
  <speed>0.0</speed>
  <fix>3d</fix>
</trkpt>
<trkpt lat="-27.2744391" lon="151.2900641">
  <ele>343.02</ele>
  <time>2026-09-01T19:52:05Z</time>
  <course>10.72</course>
  <speed>0.01414213562373095</speed>
  <fix>3d</fix>
</trkpt>
<trkpt lat="-27.274439" lon="151.290064">
  <ele>343.1</ele>
  <time>2026-09-01T19:52:05Z</time>
  <course>270.0</course>
  <speed>0.0</speed>
  <fix>3d</fix>
</trkpt>
<trkpt lat="-27.2744391" lon="151.2900641">
  <ele>343.02</ele>
  <time>2026-09-01T19:52:05Z</time>
  <course>10.72</course>
  <speed>0.01414213562373095</speed>
  <fix>3d</fix>
</trkpt>
<trkpt lat="-27.274439" lon="151.290064">
  <ele>343.1</ele>
  <time>2026-09-01T19:52:05Z</time>
  <course>270.0</course>
  <speed>0.0</speed>
  <fix>3d</fix>
</trkpt>
<trkpt lat="-27.2744391" lon="151.2900641">
  <ele>343.02</ele>
  <time>2026-09-01T19:52:05Z</time>
  <course>10.72</course>
  <speed>0.01414213562373095</speed>
  <fix>3d</fix>
</trkpt>
<trkpt lat="-27.274439" lon="151.290064">
  <ele>343.1</ele>
  <time>2026-09-01T19:52:05Z</time>
  <course>270.0</course>
  <speed>0.0</speed>
  <fix>3d</fix>
</trkpt>
<trkpt lat="-27.2744391" lon="151.2900641">
  <ele>343.02</ele>
  <time>2026-09-01T19:52:05Z</time>
  <course>10.72</course>
  <speed>0.01414213562373095</speed>
  <fix>3d</fix>
</trkpt>
<trkpt lat="-27.274439" lon="151.290064">
  <ele>343.1</ele>
  <time>2026-09-01T19:52:05Z</time>
  <course>270.0</course>
  <speed>0.0</speed>
  <fix>3d</fix>
</trkpt>
<trkpt lat="-27.2744391" lon="151.2900641">
  <ele>343.1</ele>
  <time>2026-09-01T19:52:05Z</time>
  <course>10.72</course>
  <speed>0.01414213562373095</speed>
  <fix>3d</fix>
</trkpt>
<trkpt lat="-27.274439" lon="151.290064">
  <ele>343.1</ele>
  <time>2026-09-01T19:52:05Z</time>
  <course>270.0</course>
  <speed>0.0</speed>
  <fix>3d</fix>
</trkpt>
<trkpt lat="-27.2744391" lon="151.2900641">
  <ele>343.09</ele>
  <time>2026-09-01T19:52:05Z</time>
  <course>10.72</course>
  <speed>0.022360679774997897</speed>
  <fix>3d</fix>
</trkpt>
<trkpt lat="-27.274439" lon="151.290064">
  <ele>343.1</ele>
  <time>2026-09-01T19:52:05Z</time>
  <course>270.0</course>
  <speed>0.0</speed>
  <fix>3d</fix>
</trkpt>
<trkpt lat="-27.2744391" lon="151.2900641">
  <ele>343.09</ele>
  <time>2026-09-01T19:52:05Z</time>
  <course>10.72</course>
  <speed>0.01414213562373095</speed>
  <fix>3d</fix>
</trkpt>
<trkpt lat="-27.274439" lon="151.290064">
  <ele>343.1</ele>
  <time>2026-09-01T19:52:05Z</time>
  <course>270.0</course>
  <speed>0.0</speed>
  <fix>3d</fix>
</trkpt>
<trkpt lat="-27.2744391" lon="151.2900641">
  <ele>343.09</ele>
  <time>2026-09-01T19:52:05Z</time>
  <course>10.72</course>
  <speed>0.022360679774997897</speed>
  <fix>3d</fix>
</trkpt>
<trkpt lat="-27.274439" lon="151.290064">
  <ele>343.1</ele>
  <time>2026-09-01T19:52:05Z</time>
  <course>270.0</course>
  <speed>0.0</speed>
  <fix>3d</fix>
</trkpt>
<trkpt lat="-27.2744391" lon="151.2900641">
  <ele>343.09</ele>
  <time>2026-09-01T19:52:05Z</time>
  <course>10.72</course>
  <speed>0.01414213562373095</speed>
  <fix>3d</fix>
</trkpt>
<trkpt lat="-27.274439" lon="151.290064">
  <ele>343.1</ele>
  <time>2026-09-01T19:52:05Z</time>
  <course>270.0</course>
  <speed>0.0</speed>
  <fix>3d</fix>
</trkpt>
<trkpt lat="-27.2744391" lon="151.2900641">
  <ele>343.09</ele>
  <time>2026-09-01T19:52:05Z</time>
  <course>10.72</course>
  <speed>0.022360679774997897</speed>
  <fix>3d</fix>
</trkpt>
<trkpt lat="-27.274439" lon="151.290064">
  <ele>343.1</ele>
  <time>2026-09-01T19:52:05Z</time>
  <course>270.0</course>
  <speed>0.0</speed>
  <fix>3d</fix>
</trkpt>
<trkpt lat="-27.2744391" lon="151.2900641">
  <ele>343.09</ele>
  <time>2026-09-01T19:52:05Z</time>
  <course>10.72</course>
  <speed>0.01414213562373095</speed>
  <fix>3d</fix>
</trkpt>
<trkpt lat="-27.274439" lon="151.290064">
  <ele>343.1</ele>
  <time>2026-09-01T19:52:05Z</time>
  <course>270.0</course>
  <speed>0.0</speed>
  <fix>3d</fix>
</trkpt>
<trkpt lat="-27.2744391" lon="151.2900641">
  <ele>343.1</ele>
  <time>2026-09-01T19:52:05Z</time>
  <course>10.72</course>
  <speed>0.022360679774997897</speed>
  <fix>3d</fix>
</trkpt>
<trkpt lat="-27.274439" lon="151.290064">
  <ele>343.1</ele>
  <time>2026-09-01T19:52:05Z</time>
  <course>270.0</course>
  <speed>0.0</speed>
  <fix>3d</fix>
</trkpt>
<trkpt lat="-27.2744391" lon="151.2900641">
  <ele>343.1</ele>
  <time>2026-09-01T19:52:05Z</time>
  <course>10.72</course>
  <speed>0.01414213562373095</speed>
  <fix>3d</fix>
</trkpt>
<trkpt lat="-27.274439" lon="151.290064">
  <ele>343.1</ele>
  <time>2026-09-01T19:52:05Z</time>
  <course>270.0</course>
  <speed>0.0</speed>
  <fix>3d</fix>
</trkpt>
<trkpt lat="-27.2744391" lon="151.2900641">
  <ele>343.1</ele>
  <time>2026-09-01T19:52:05Z</time>
  <course>10.72</course>
  <speed>0.022360679774997897</speed>
  <fix>3d</fix>
</trkpt>
<trkpt lat="-27.274439" lon="151.290064">
  <ele>343.1</ele>
  <time>2026-09-01T19:52:05Z</time>
  <course>270.0</course>
  <speed>0.0</speed>
  <fix>3d</fix>
</trkpt>
<trkpt lat="-27.2744391" lon="151.2900641">
  <ele>343.1</ele>
  <time>2026-09-01T19:52:05Z</time>
  <course>10.72</course>
  <speed>0.01414213562373095</speed>
  <fix>3d</fix>
</trkpt>
<trkpt lat="-27.274439" lon="151.290064">
  <ele>343.1</ele>
  <time>2026-09-01T19:52:05Z</time>
  <course>270.0</course>
  <speed>0.0</speed>
  <fix>3d</fix>
</trkpt>
<trkpt lat="-27.2744391" lon="151.2900641">
  <ele>343.11</ele>
  <time>2026-09-01T19:52:05Z</time>
  <course>10.72</course>
  <speed>0.022360679774997897</speed>
  <fix>3d</fix>
</trkpt>
<trkpt lat="-27.274439" lon="151.290064">
  <ele>343.1</ele>
  <time>2026-09-01T19:52:05Z</time>
  <course>270.0</course>
  <speed>0.0</speed>
  <fix>3d</fix>
</trkpt>
<trkpt lat="-27.2744391" lon="151.2900641">
  <ele>343.11</ele>
  <time>2026-09-01T19:52:05Z</time>
  <course>10.72</course>
  <speed>0.01414213562373095</speed>
  <fix>3d</fix>
</trkpt>
<trkpt lat="-27.274439" lon="151.290064">
  <ele>343.1</ele>
  <time>2026-09-01T19:52:05Z</time>
  <course>270.0</course>
  <speed>0.0</speed>
  <fix>3d</fix>
</trkpt>
<trkpt lat="-27.2744391" lon="151.2900641">
  <ele>343.12</ele>
  <time>2026-09-01T19:52:05Z</time>
  <course>10.72</course>
  <speed>0.022360679774997897</speed>
  <fix>3d</fix>
</trkpt>
<trkpt lat="-27.274439" lon="151.290064">
  <ele>343.1</ele>
  <time>2026-09-01T19:52:05Z</time>
  <course>270.0</course>
  <speed>0.0</speed>
  <fix>3d</fix>
</trkpt>
<trkpt lat="-27.2744391" lon="151.2900641">
  <ele>343.12</ele>
  <time>2026-09-01T19:52:05Z</time>
  <course>10.72</course>
  <speed>0.01414213562373095</speed>
  <fix>3d</fix>
</trkpt>
<trkpt lat="-27.274439" lon="151.290064">
  <ele>343.1</ele>
  <time>2026-09-01T19:52:05Z</time>
  <course>270.0</course>
  <speed>0.0</speed>
  <fix>3d</fix>
</trkpt>
<trkpt lat="-27.2744391" lon="151.2900641">
  <ele>343.13</ele>
  <time>2026-09-01T19:52:05Z</time>
  <course>10.72</course>
  <speed>0.022360679774997897</speed>
  <fix>3d</fix>
</trkpt>
<trkpt lat="-27.274439" lon="151.290064">
  <ele>343.1</ele>
  <time>2026-09-01T19:52:05Z</time>
  <course>270.0</course>
  <speed>0.0</speed>
  <fix>3d</fix>
</trkpt>
<trkpt lat="-27.2744391" lon="151.2900641">
  <ele>343.13</ele>
  <time>2026-09-01T19:52:05Z</time>
  <course>10.72</course>
  <speed>0.022360679774997897</speed>
  <fix>3d</fix>
</trkpt>
<trkpt lat="-27.274439" lon="151.290064">
  <ele>343.1</ele>
  <time>2026-09-01T19:52:05Z</time>
  <course>270.0</course>
  <speed>0.0</speed>
  <fix>3d</fix>
</trkpt>
<trkpt lat="-27.2744391" lon="151.2900641">
  <ele>343.14</ele>
  <time>2026-09-01T19:52:05Z</time>
  <course>10.72</course>
  <speed>0.022360679774997897</speed>
  <fix>3d</fix>
</trkpt>
<trkpt lat="-27.274439" lon="151.290064">
  <ele>343.1</ele>
  <time>2026-09-01T19:52:05Z</time>
  <course>270.0</course>
  <speed>0.0</speed>
  <fix>3d</fix>
</trkpt>
<trkpt lat="-27.2744391" lon="151.2900641">
  <ele>343.14</ele>
  <time>2026-09-01T19:52:05Z</time>
  <course>10.72</course>
  <speed>0.022360679774997897</speed>
  <fix>3d</fix>
</trkpt>
<trkpt lat="-27.274439" lon="151.290064">
  <ele>343.1</ele>
  <time>2026-09-01T19:52:05Z</time>
  <course>270.0</course>
  <speed>0.0</speed>
  <fix>3d</fix>
</trkpt>
<trkpt lat="-27.2744391" lon="151.2900641">
  <ele>343.15</ele>
  <time>2026-09-01T19:52:05Z</time>
  <course>10.72</course>
  <speed>0.022360679774997897</speed>
  <fix>3d</fix>
</trkpt>
<trkpt lat="-27.274439" lon="151.290064">
  <ele>343.1</ele>
  <time>2026-09-01T19:52:05Z</time>
  <course>270.0</course>
  <speed>0.0</speed>
  <fix>3d</fix>
</trkpt>
<trkpt lat="-27.2744391" lon="151.2900641">
  <ele>343.15</ele>
  <time>2026-09-01T19:52:05Z</time>
  <course>10.73</course>
  <speed>0.022360679774997897</speed>
  <fix>3d</fix>
</trkpt>
<trkpt lat="-27.274439" lon="151.290064">
  <ele>343.1</ele>
  <time>2026-09-01T19:52:05Z</time>
  <course>270.0</course>
  <speed>0.0</speed>
  <fix>3d</fix>
</trkpt>
<trkpt lat="-27.2744391" lon="151.2900641">
  <ele>343.16</ele>
  <time>2026-09-01T19:52:05Z</time>
  <course>10.73</course>
  <speed>0.022360679774997897</speed>
  <fix>3d</fix>
</trkpt>
<trkpt lat="-27.274439" lon="151.290064">
  <ele>343.1</ele>
  <time>2026-09-01T19:52:05Z</time>
  <course>270.0</course>
  <speed>0.0</speed>
  <fix>3d</fix>
</trkpt>
<trkpt lat="-27.2744391" lon="151.2900641">
  <ele>343.16</ele>
  <time>2026-09-01T19:52:05Z</time>
  <course>10.73</course>
  <speed>0.022360679774997897</speed>
  <fix>3d</fix>
</trkpt>
<trkpt lat="-27.274439" lon="151.290064">
  <ele>343.1</ele>
  <time>2026-09-01T19:52:05Z</time>
  <course>270.0</course>
  <speed>0.0</speed>
  <fix>3d</fix>
</trkpt>
<trkpt lat="-27.2744391" lon="151.2900641">
  <ele>343.17</ele>
  <time>2026-09-01T19:52:05Z</time>
  <course>10.73</course>
  <speed>0.022360679774997897</speed>
  <fix>3d</fix>
</trkpt>
<trkpt lat="-27.274439" lon="151.290064">
  <ele>343.1</ele>
  <time>2026-09-01T19:52:05Z</time>
  <course>270.0</course>
  <speed>0.0</speed>
  <fix>3d</fix>
</trkpt>
<trkpt lat="-27.2744391" lon="151.2900641">
  <ele>343.17</ele>
  <time>2026-09-01T19:52:05Z</time>
  <course>10.73</course>
  <speed>0.022360679774997897</speed>
  <fix>3d</fix>
</trkpt>
<trkpt lat="-27.274439" lon="151.290064">
  <ele>343.1</ele>
  <time>2026-09-01T19:52:05Z</time>
  <course>270.0</course>
  <speed>0.0</speed>
  <fix>3d</fix>
</trkpt>
<trkpt lat="-27.2744391" lon="151.2900641">
  <ele>343.18</ele>
  <time>2026-09-01T19:52:05Z</time>
  <course>10.73</course>
  <speed>0.022360679774997897</speed>
  <fix>3d</fix>
</trkpt>
<trkpt lat="-27.274439" lon="151.290064">
  <ele>343.1</ele>
  <time>2026-09-01T19:52:05Z</time>
  <course>270.0</course>
  <speed>0.0</speed>
  <fix>3d</fix>
</trkpt>
<trkpt lat="-27.2744391" lon="151.2900641">
  <ele>343.18</ele>
  <time>2026-09-01T19:52:05Z</time>
  <course>10.73</course>
  <speed>0.022360679774997897</speed>
  <fix>3d</fix>
</trkpt>
<trkpt lat="-27.274439" lon="151.290064">
  <ele>343.1</ele>
  <time>2026-09-01T19:52:05Z</time>
  <course>270.0</course>
  <speed>0.0</speed>
  <fix>3d</fix>
</trkpt>
<trkpt lat="-27.2744391" lon="151.2900641">
  <ele>343.18</ele>
  <time>2026-09-01T19:52:05Z</time>
  <course>10.73</course>
  <speed>0.022360679774997897</speed>
  <fix>3d</fix>
</trkpt>
<trkpt lat="-27.274439" lon="151.290064">
  <ele>343.1</ele>
  <time>2026-09-01T19:52:05Z</time>
  <course>270.0</course>
  <speed>0.0</speed>
  <fix>3d</fix>
</trkpt>
<trkpt lat="-27.2744391" lon="151.2900641">
  <ele>343.18</ele>
  <time>2026-09-01T19:52:05Z</time>
  <course>10.73</course>
  <speed>0.022360679774997897</speed>
  <fix>3d</fix>
</trkpt>
<trkpt lat="-27.274439" lon="151.290064">
  <ele>343.1</ele>
  <time>2026-09-01T19:52:05Z</time>
  <course>270.0</course>
  <speed>0.0</speed>
  <fix>3d</fix>
</trkpt>
<trkpt lat="-27.2744391" lon="151.2900641">
  <ele>343.19</ele>
  <time>2026-09-01T19:52:05Z</time>
  <course>10.73</course>
  <speed>0.022360679774997897</speed>
  <fix>3d</fix>
</trkpt>
<trkpt lat="-27.274439" lon="151.290064">
  <ele>343.1</ele>
  <time>2026-09-01T19:52:05Z</time>
  <course>270.0</course>
  <speed>0.0</speed>
  <fix>3d</fix>
</trkpt>
<trkpt lat="-27.2744391" lon="151.2900641">
  <ele>343.19</ele>
  <time>2026-09-01T19:52:05Z</time>
  <course>10.73</course>
  <speed>0.022360679774997897</speed>
  <fix>3d</fix>
</trkpt>
<trkpt lat="-27.274439" lon="151.290064">
  <ele>343.1</ele>
  <time>2026-09-01T19:52:05Z</time>
  <course>270.0</course>
  <speed>0.0</speed>
  <fix>3d</fix>
</trkpt>
<trkpt lat="-27.2744391" lon="151.2900641">
  <ele>343.19</ele>
  <time>2026-09-01T19:52:05Z</time>
  <course>10.73</course>
  <speed>0.022360679774997897</speed>
  <fix>3d</fix>
</trkpt>
<trkpt lat="-27.274439" lon="151.290064">
  <ele>343.1</ele>
  <time>2026-09-01T19:52:05Z</time>
  <course>270.0</course>
  <speed>0.0</speed>
  <fix>3d</fix>
</trkpt>
<trkpt lat="-27.2744391" lon="151.2900641">
  <ele>343.19</ele>
  <time>2026-09-01T19:52:05Z</time>
  <course>10.73</course>
  <speed>0.022360679774997897</speed>
  <fix>3d</fix>
</trkpt>
<trkpt lat="-27.274439" lon="151.290064">
  <ele>343.1</ele>
  <time>2026-09-01T19:52:05Z</time>
  <course>270.0</course>
  <speed>0.0</speed>
  <fix>3d</fix>
</trkpt>
<trkpt lat="-27.2744391" lon="151.2900641">
  <ele>343.19</ele>
  <time>2026-09-01T19:52:05Z</time>
  <course>10.73</course>
  <speed>0.022360679774997897</speed>
  <fix>3d</fix>
</trkpt>
<trkpt lat="-27.274439" lon="151.290064">
  <ele>343.1</ele>
  <time>2026-09-01T19:52:05Z</time>
  <course>270.0</course>
  <speed>0.0</speed>
  <fix>3d</fix>
</trkpt>
<trkpt lat="-27.2744391" lon="151.2900641">
  <ele>343.19</ele>
  <time>2026-09-01T19:52:05Z</time>
  <course>10.73</course>
  <speed>0.022360679774997897</speed>
  <fix>3d</fix>
</trkpt>
<trkpt lat="-27.274439" lon="151.290064">
  <ele>343.1</ele>
  <time>2026-09-01T19:52:05Z</time>
  <course>270.0</course>
  <speed>0.0</speed>
  <fix>3d</fix>
</trkpt>
<trkpt lat="-27.2744391" lon="151.2900641">
  <ele>343.19</ele>
  <time>2026-09-01T19:52:05Z</time>
  <course>10.73</course>
  <speed>0.022360679774997897</speed>
  <fix>3d</fix>
</trkpt>
<trkpt lat="-27.274439" lon="151.290064">
  <ele>343.1</ele>
  <time>2026-09-01T19:52:05Z</time>
  <course>270.0</course>
  <speed>0.0</speed>
  <fix>3d</fix>
</trkpt>
<trkpt lat="-27.2744391" lon="151.2900641">
  <ele>343.2</ele>
  <time>2026-09-01T19:52:05Z</time>
  <course>10.73</course>
  <speed>0.022360679774997897</speed>
  <fix>3d</fix>
</trkpt>
<trkpt lat="-27.274439" lon="151.290064">
  <ele>343.1</ele>
  <time>2026-09-01T19:52:05Z</time>
  <course>270.0</course>
  <speed>0.0</speed>
  <fix>3d</fix>
</trkpt>
<trkpt lat="-27.2744391" lon="151.2900641">
  <ele>343.2</ele>
  <time>2026-09-01T19:52:05Z</time>
  <course>10.73</course>
  <speed>0.022360679774997897</speed>
  <fix>3d</fix>
</trkpt>
<trkpt lat="-27.274439" lon="151.290064">
  <ele>343.1</ele>
  <time>2026-09-01T19:52:05Z</time>
  <course>270.0</course>
  <speed>0.0</speed>
  <fix>3d</fix>
</trkpt>
<trkpt lat="-27.2744391" lon="151.2900641">
  <ele>343.2</ele>
  <time>2026-09-01T19:52:05Z</time>
  <course>10.73</course>
  <speed>0.022360679774997897</speed>
  <fix>3d</fix>
</trkpt>
<trkpt lat="-27.274439" lon="151.290064">
  <ele>343.1</ele>
  <time>2026-09-01T19:52:05Z</time>
  <course>270.0</course>
  <speed>0.0</speed>
  <fix>3d</fix>
</trkpt>
<trkpt lat="-27.2744391" lon="151.2900641">
  <ele>343.2</ele>
  <time>2026-09-01T19:52:05Z</time>
  <course>10.73</course>
  <speed>0.022360679774997897</speed>
  <fix>3d</fix>
</trkpt>
<trkpt lat="-27.274439" lon="151.290064">
  <ele>343.1</ele>
  <time>2026-09-01T19:52:05Z</time>
  <course>270.0</course>
  <speed>0.0</speed>
  <fix>3d</fix>
</trkpt>
<trkpt lat="-27.2744391" lon="151.2900641">
  <ele>343.2</ele>
  <time>2026-09-01T19:52:05Z</time>
  <course>10.73</course>
  <speed>0.022360679774997897</speed>
  <fix>3d</fix>
</trkpt>
<trkpt lat="-27.274439" lon="151.290064">
  <ele>343.1</ele>
  <time>2026-09-01T19:52:05Z</time>
  <course>270.0</course>
  <speed>0.0</speed>
  <fix>3d</fix>
</trkpt>
<trkpt lat="-27.2744391" lon="151.2900641">
  <ele>343.2</ele>
  <time>2026-09-01T19:52:05Z</time>
  <course>10.73</course>
  <speed>0.022360679774997897</speed>
  <fix>3d</fix>
</trkpt>
<trkpt lat="-27.274439" lon="151.290064">
  <ele>343.1</ele>
  <time>2026-09-01T19:52:05Z</time>
  <course>270.0</course>
  <speed>0.0</speed>
  <fix>3d</fix>
</trkpt>
<trkpt lat="-27.2744391" lon="151.2900641">
  <ele>343.2</ele>
  <time>2026-09-01T19:52:05Z</time>
  <course>10.73</course>
  <speed>0.022360679774997897</speed>
  <fix>3d</fix>
</trkpt>
<trkpt lat="-27.274439" lon="151.290064">
  <ele>343.1</ele>
  <time>2026-09-01T19:52:05Z</time>
  <course>270.0</course>
  <speed>0.0</speed>
  <fix>3d</fix>
</trkpt>
<trkpt lat="-27.2744391" lon="151.2900641">
  <ele>343.21</ele>
  <time>2026-09-01T19:52:05Z</time>
  <course>10.73</course>
  <speed>0.022360679774997897</speed>
  <fix>3d</fix>
</trkpt>
<trkpt lat="-27.274439" lon="151.290064">
  <ele>343.1</ele>
  <time>2026-09-01T19:52:05Z</time>
  <course>270.0</course>
  <speed>0.0</speed>
  <fix>3d</fix>
</trkpt>
<trkpt lat="-27.2744391" lon="151.2900641">
  <ele>343.21</ele>
  <time>2026-09-01T19:52:05Z</time>
  <course>10.74</course>
  <speed>0.022360679774997897</speed>
  <fix>3d</fix>
</trkpt>
<trkpt lat="-27.274439" lon="151.290064">
  <ele>343.1</ele>
  <time>2026-09-01T19:52:05Z</time>
  <course>270.0</course>
  <speed>0.0</speed>
  <fix>3d</fix>
</trkpt>
<trkpt lat="-27.2744391" lon="151.2900641">
  <ele>343.21</ele>
  <time>2026-09-01T19:52:05Z</time>
  <course>10.74</course>
  <speed>0.022360679774997897</speed>
  <fix>3d</fix>
</trkpt>
<trkpt lat="-27.274439" lon="151.290064">
  <ele>343.1</ele>
  <time>2026-09-01T19:52:05Z</time>
  <course>270.0</course>
  <speed>0.0</speed>
  <fix>3d</fix>
</trkpt>
<trkpt lat="-27.2744391" lon="151.2900641">
  <ele>343.21</ele>
  <time>2026-09-01T19:52:05Z</time>
  <course>10.74</course>
  <speed>0.022360679774997897</speed>
  <fix>3d</fix>
</trkpt>
<trkpt lat="-27.274439" lon="151.290064">
  <ele>343.1</ele>
  <time>2026-09-01T19:52:05Z</time>
  <course>270.0</course>
  <speed>0.0</speed>
  <fix>3d</fix>
</trkpt>
<trkpt lat="-27.2744391" lon="151.2900641">
  <ele>343.21</ele>
  <time>2026-09-01T19:52:05Z</time>
  <course>10.74</course>
  <speed>0.022360679774997897</speed>
  <fix>3d</fix>
</trkpt>
<trkpt lat="-27.274439" lon="151.290064">
  <ele>343.1</ele>
  <time>2026-09-01T19:52:05Z</time>
  <course>270.0</course>
  <speed>0.0</speed>
  <fix>3d</fix>
</trkpt>
<trkpt lat="-27.2744391" lon="151.2900641">
  <ele>343.22</ele>
  <time>2026-09-01T19:52:05Z</time>
  <course>10.74</course>
  <speed>0.022360679774997897</speed>
  <fix>3d</fix>
</trkpt>
<trkpt lat="-27.274439" lon="151.290064">
  <ele>343.1</ele>
  <time>2026-09-01T19:52:05Z</time>
  <course>270.0</course>
  <speed>0.0</speed>
  <fix>3d</fix>
</trkpt>
<trkpt lat="-27.2744391" lon="151.2900641">
  <ele>343.22</ele>
  <time>2026-09-01T19:52:05Z</time>
  <course>10.74</course>
  <speed>0.022360679774997897</speed>
  <fix>3d</fix>
</trkpt>
<trkpt lat="-27.274439" lon="151.290064">
  <ele>343.1</ele>
  <time>2026-09-01T19:52:05Z</time>
  <course>270.0</course>
  <speed>0.0</speed>
  <fix>3d</fix>
</trkpt>
<trkpt lat="-27.2744391" lon="151.2900641">
  <ele>343.22</ele>
  <time>2026-09-01T19:52:05Z</time>
  <course>10.74</course>
  <speed>0.022360679774997897</speed>
  <fix>3d</fix>
</trkpt>
<trkpt lat="-27.274439" lon="151.290064">
  <ele>343.1</ele>
  <time>2026-09-01T19:52:05Z</time>
  <course>270.0</course>
  <speed>0.0</speed>
  <fix>3d</fix>
</trkpt>
<trkpt lat="-27.2744391" lon="151.2900641">
  <ele>343.22</ele>
  <time>2026-09-01T19:52:05Z</time>
  <course>10.74</course>
  <speed>0.022360679774997897</speed>
  <fix>3d</fix>
</trkpt>
<trkpt lat="-27.274439" lon="151.290064">
  <ele>343.1</ele>
  <time>2026-09-01T19:52:05Z</time>
  <course>270.0</course>
  <speed>0.0</speed>
  <fix>3d</fix>
</trkpt>
<trkpt lat="-27.2744391" lon="151.2900641">
  <ele>343.22</ele>
  <time>2026-09-01T19:52:05Z</time>
  <course>10.74</course>
  <speed>0.022360679774997897</speed>
  <fix>3d</fix>
</trkpt>
<trkpt lat="-27.274439" lon="151.290064">
  <ele>343.1</ele>
  <time>2026-09-01T19:52:05Z</time>
  <course>270.0</course>
  <speed>0.0</speed>
  <fix>3d</fix>
</trkpt>
<trkpt lat="-27.2744391" lon="151.2900641">
  <ele>343.22</ele>
  <time>2026-09-01T19:52:05Z</time>
  <course>10.74</course>
  <speed>0.022360679774997897</speed>
  <fix>3d</fix>
</trkpt>
<trkpt lat="-27.274439" lon="151.290064">
  <ele>343.1</ele>
  <time>2026-09-01T19:52:05Z</time>
  <course>270.0</course>
  <speed>0.0</speed>
  <fix>3d</fix>
</trkpt>
<trkpt lat="-27.2744391" lon="151.2900641">
  <ele>343.22</ele>
  <time>2026-09-01T19:52:05Z</time>
  <course>10.74</course>
  <speed>0.022360679774997897</speed>
  <fix>3d</fix>
</trkpt>
<trkpt lat="-27.274439" lon="151.290064">
  <ele>343.1</ele>
  <time>2026-09-01T19:52:05Z</time>
  <course>270.0</course>
  <speed>0.0</speed>
  <fix>3d</fix>
</trkpt>
<trkpt lat="-27.2744391" lon="151.2900641">
  <ele>343.23</ele>
  <time>2026-09-01T19:52:05Z</time>
  <course>10.74</course>
  <speed>0.022360679774997897</speed>
  <fix>3d</fix>
</trkpt>
<trkpt lat="-27.274439" lon="151.290064">
  <ele>343.1</ele>
  <time>2026-09-01T19:52:05Z</time>
  <course>270.0</course>
  <speed>0.0</speed>
  <fix>3d</fix>
</trkpt>
<trkpt lat="-27.2744391" lon="151.2900641">
  <ele>343.23</ele>
  <time>2026-09-01T19:52:05Z</time>
  <course>10.74</course>
  <speed>0.022360679774997897</speed>
  <fix>3d</fix>
</trkpt>
<trkpt lat="-27.274439" lon="151.290064">
  <ele>343.1</ele>
  <time>2026-09-01T19:52:05Z</time>
  <course>270.0</course>
  <speed>0.0</speed>
  <fix>3d</fix>
</trkpt>
<trkpt lat="-27.2744391" lon="151.2900641">
  <ele>343.23</ele>
  <time>2026-09-01T19:52:05Z</time>
  <course>10.74</course>
  <speed>0.022360679774997897</speed>
  <fix>3d</fix>
</trkpt>
<trkpt lat="-27.274439" lon="151.290064">
  <ele>343.1</ele>
  <time>2026-09-01T19:52:05Z</time>
  <course>270.0</course>
  <speed>0.0</speed>
  <fix>3d</fix>
</trkpt>
<trkpt lat="-27.2744391" lon="151.2900641">
  <ele>343.23</ele>
  <time>2026-09-01T19:52:05Z</time>
  <course>10.74</course>
  <speed>0.022360679774997897</speed>
  <fix>3d</fix>
</trkpt>
<trkpt lat="-27.274439" lon="151.290064">
  <ele>343.1</ele>
  <time>2026-09-01T19:52:05Z</time>
  <course>270.0</course>
  <speed>0.0</speed>
  <fix>3d</fix>
</trkpt>
<trkpt lat="-27.2744391" lon="151.2900641">
  <ele>343.22</ele>
  <time>2026-09-01T19:52:05Z</time>
  <course>10.74</course>
  <speed>0.022360679774997897</speed>
  <fix>3d</fix>
</trkpt>
<trkpt lat="-27.274439" lon="151.290064">
  <ele>343.1</ele>
  <time>2026-09-01T19:52:05Z</time>
  <course>270.0</course>
  <speed>0.0</speed>
  <fix>3d</fix>
</trkpt>
<trkpt lat="-27.2744391" lon="151.2900641">
  <ele>343.09</ele>
  <time>2026-09-01T19:52:05Z</time>
  <course>10.74</course>
  <speed>0.022360679774997897</speed>
  <fix>3d</fix>
</trkpt>
<trkpt lat="-27.274439" lon="151.290064">
  <ele>343.1</ele>
  <time>2026-09-01T19:52:05Z</time>
  <course>270.0</course>
  <speed>0.0</speed>
  <fix>3d</fix>
</trkpt>
<trkpt lat="-27.2744391" lon="151.2900641">
  <ele>343.09</ele>
  <time>2026-09-01T19:52:05Z</time>
  <course>10.74</course>
  <speed>0.022360679774997897</speed>
  <fix>3d</fix>
</trkpt>
<trkpt lat="-27.274439" lon="151.290064">
  <ele>343.1</ele>
  <time>2026-09-01T19:52:05Z</time>
  <course>270.0</course>
  <speed>0.0</speed>
  <fix>3d</fix>
</trkpt>
<trkpt lat="-27.2744391" lon="151.2900641">
  <ele>343.09</ele>
  <time>2026-09-01T19:52:05Z</time>
  <course>10.74</course>
  <speed>0.022360679774997897</speed>
  <fix>3d</fix>
</trkpt>
<trkpt lat="-27.274439" lon="151.290064">
  <ele>343.1</ele>
  <time>2026-09-01T19:52:05Z</time>
  <course>270.0</course>
  <speed>0.0</speed>
  <fix>3d</fix>
</trkpt>
<trkpt lat="-27.2744391" lon="151.2900641">
  <ele>343.1</ele>
  <time>2026-09-01T19:52:05Z</time>
  <course>10.74</course>
  <speed>0.022360679774997897</speed>
  <fix>3d</fix>
</trkpt>
<trkpt lat="-27.274439" lon="151.290064">
  <ele>343.1</ele>
  <time>2026-09-01T19:52:05Z</time>
  <course>270.0</course>
  <speed>0.0</speed>
  <fix>3d</fix>
</trkpt>
<trkpt lat="-27.2744391" lon="151.2900641">
  <ele>343.1</ele>
  <time>2026-09-01T19:52:05Z</time>
  <course>10.74</course>
  <speed>0.022360679774997897</speed>
  <fix>3d</fix>
</trkpt>
<trkpt lat="-27.274439" lon="151.290064">
  <ele>343.1</ele>
  <time>2026-09-01T19:52:05Z</time>
  <course>270.0</course>
  <speed>0.0</speed>
  <fix>3d</fix>
</trkpt>
<trkpt lat="-27.2744391" lon="151.2900641">
  <ele>343.1</ele>
  <time>2026-09-01T19:52:05Z</time>
  <course>10.74</course>
  <speed>0.022360679774997897</speed>
  <fix>3d</fix>
</trkpt>
<trkpt lat="-27.274439" lon="151.290064">
  <ele>343.1</ele>
  <time>2026-09-01T19:52:05Z</time>
  <course>270.0</course>
  <speed>0.0</speed>
  <fix>3d</fix>
</trkpt>
<trkpt lat="-27.2744391" lon="151.2900641">
  <ele>343.11</ele>
  <time>2026-09-01T19:52:05Z</time>
  <course>10.75</course>
  <speed>0.022360679774997897</speed>
  <fix>3d</fix>
</trkpt>
<trkpt lat="-27.274439" lon="151.290064">
  <ele>343.1</ele>
  <time>2026-09-01T19:52:05Z</time>
  <course>270.0</course>
  <speed>0.0</speed>
  <fix>3d</fix>
</trkpt>
<trkpt lat="-27.2744391" lon="151.2900641">
  <ele>343.11</ele>
  <time>2026-09-01T19:52:05Z</time>
  <course>10.75</course>
  <speed>0.022360679774997897</speed>
  <fix>3d</fix>
</trkpt>
<trkpt lat="-27.274439" lon="151.290064">
  <ele>343.1</ele>
  <time>2026-09-01T19:52:05Z</time>
  <course>270.0</course>
  <speed>0.0</speed>
  <fix>3d</fix>
</trkpt>
<trkpt lat="-27.2744391" lon="151.2900641">
  <ele>343.12</ele>
  <time>2026-09-01T19:52:05Z</time>
  <course>10.75</course>
  <speed>0.022360679774997897</speed>
  <fix>3d</fix>
</trkpt>
<trkpt lat="-27.274439" lon="151.290064">
  <ele>343.1</ele>
  <time>2026-09-01T19:52:05Z</time>
  <course>270.0</course>
  <speed>0.0</speed>
  <fix>3d</fix>
</trkpt>
<trkpt lat="-27.2744391" lon="151.2900641">
  <ele>343.12</ele>
  <time>2026-09-01T19:52:05Z</time>
  <course>10.75</course>
  <speed>0.022360679774997897</speed>
  <fix>3d</fix>
</trkpt>
<trkpt lat="-27.274439" lon="151.290064">
  <ele>343.1</ele>
  <time>2026-09-01T19:52:05Z</time>
  <course>270.0</course>
  <speed>0.0</speed>
  <fix>3d</fix>
</trkpt>
<trkpt lat="-27.2744391" lon="151.2900641">
  <ele>343.13</ele>
  <time>2026-09-01T19:52:05Z</time>
  <course>10.75</course>
  <speed>0.022360679774997897</speed>
  <fix>3d</fix>
</trkpt>
<trkpt lat="-27.274439" lon="151.290064">
  <ele>343.1</ele>
  <time>2026-09-01T19:52:05Z</time>
  <course>270.0</course>
  <speed>0.0</speed>
  <fix>3d</fix>
</trkpt>
<trkpt lat="-27.2744391" lon="151.2900641">
  <ele>343.13</ele>
  <time>2026-09-01T19:52:05Z</time>
  <course>10.75</course>
  <speed>0.022360679774997897</speed>
  <fix>3d</fix>
</trkpt>
<trkpt lat="-27.274439" lon="151.290064">
  <ele>343.1</ele>
  <time>2026-09-01T19:52:05Z</time>
  <course>270.0</course>
  <speed>0.0</speed>
  <fix>3d</fix>
</trkpt>
<trkpt lat="-27.2744391" lon="151.2900641">
  <ele>343.13</ele>
  <time>2026-09-01T19:52:05Z</time>
  <course>10.75</course>
  <speed>0.022360679774997897</speed>
  <fix>3d</fix>
</trkpt>
<trkpt lat="-27.274439" lon="151.290064">
  <ele>343.1</ele>
  <time>2026-09-01T19:52:05Z</time>
  <course>270.0</course>
  <speed>0.0</speed>
  <fix>3d</fix>
</trkpt>
<trkpt lat="-27.2744391" lon="151.2900641">
  <ele>343.14</ele>
  <time>2026-09-01T19:52:05Z</time>
  <course>10.75</course>
  <speed>0.022360679774997897</speed>
  <fix>3d</fix>
</trkpt>
<trkpt lat="-27.274439" lon="151.290064">
  <ele>343.1</ele>
  <time>2026-09-01T19:52:05Z</time>
  <course>270.0</course>
  <speed>0.0</speed>
  <fix>3d</fix>
</trkpt>
<trkpt lat="-27.2744391" lon="151.2900641">
  <ele>343.14</ele>
  <time>2026-09-01T19:52:05Z</time>
  <course>10.75</course>
  <speed>0.022360679774997897</speed>
  <fix>3d</fix>
</trkpt>
<trkpt lat="-27.274439" lon="151.290064">
  <ele>343.1</ele>
  <time>2026-09-01T19:52:05Z</time>
  <course>270.0</course>
  <speed>0.0</speed>
  <fix>3d</fix>
</trkpt>
<trkpt lat="-27.2744391" lon="151.2900641">
  <ele>343.14</ele>
  <time>2026-09-01T19:52:05Z</time>
  <course>10.75</course>
  <speed>0.022360679774997897</speed>
  <fix>3d</fix>
</trkpt>
<trkpt lat="-27.274439" lon="151.290064">
  <ele>343.1</ele>
  <time>2026-09-01T19:52:05Z</time>
  <course>270.0</course>
  <speed>0.0</speed>
  <fix>3d</fix>
</trkpt>
<trkpt lat="-27.2744391" lon="151.2900641">
  <ele>343.14</ele>
  <time>2026-09-01T19:52:05Z</time>
  <course>10.75</course>
  <speed>0.022360679774997897</speed>
  <fix>3d</fix>
</trkpt>
<trkpt lat="-27.274439" lon="151.290064">
  <ele>343.1</ele>
  <time>2026-09-01T19:52:05Z</time>
  <course>270.0</course>
  <speed>0.0</speed>
  <fix>3d</fix>
</trkpt>
<trkpt lat="-27.2744391" lon="151.2900641">
  <ele>343.15</ele>
  <time>2026-09-01T19:52:05Z</time>
  <course>10.75</course>
  <speed>0.022360679774997897</speed>
  <fix>3d</fix>
</trkpt>
<trkpt lat="-27.274439" lon="151.290064">
  <ele>343.1</ele>
  <time>2026-09-01T19:52:05Z</time>
  <course>270.0</course>
  <speed>0.0</speed>
  <fix>3d</fix>
</trkpt>
<trkpt lat="-27.2744391" lon="151.2900641">
  <ele>343.15</ele>
  <time>2026-09-01T19:52:05Z</time>
  <course>10.75</course>
  <speed>0.022360679774997897</speed>
  <fix>3d</fix>
</trkpt>
<trkpt lat="-27.274439" lon="151.290064">
  <ele>343.1</ele>
  <time>2026-09-01T19:52:05Z</time>
  <course>270.0</course>
  <speed>0.0</speed>
  <fix>3d</fix>
</trkpt>
<trkpt lat="-27.2744391" lon="151.2900641">
  <ele>343.15</ele>
  <time>2026-09-01T19:52:05Z</time>
  <course>10.75</course>
  <speed>0.022360679774997897</speed>
  <fix>3d</fix>
</trkpt>
<trkpt lat="-27.274439" lon="151.290064">
  <ele>343.1</ele>
  <time>2026-09-01T19:52:05Z</time>
  <course>270.0</course>
  <speed>0.0</speed>
  <fix>3d</fix>
</trkpt>
<trkpt lat="-27.2744391" lon="151.2900641">
  <ele>343.16</ele>
  <time>2026-09-01T19:52:05Z</time>
  <course>10.75</course>
  <speed>0.022360679774997897</speed>
  <fix>3d</fix>
</trkpt>
<trkpt lat="-27.274439" lon="151.290064">
  <ele>343.1</ele>
  <time>2026-09-01T19:52:05Z</time>
  <course>270.0</course>
  <speed>0.0</speed>
  <fix>3d</fix>
</trkpt>
<trkpt lat="-27.2744391" lon="151.2900641">
  <ele>343.17</ele>
  <time>2026-09-01T19:52:05Z</time>
  <course>10.75</course>
  <speed>0.022360679774997897</speed>
  <fix>3d</fix>
</trkpt>
<trkpt lat="-27.274439" lon="151.290064">
  <ele>343.1</ele>
  <time>2026-09-01T19:52:05Z</time>
  <course>270.0</course>
  <speed>0.0</speed>
  <fix>3d</fix>
</trkpt>
<trkpt lat="-27.2744391" lon="151.2900641">
  <ele>343.17</ele>
  <time>2026-09-01T19:52:05Z</time>
  <course>10.75</course>
  <speed>0.022360679774997897</speed>
  <fix>3d</fix>
</trkpt>
<trkpt lat="-27.274439" lon="151.290064">
  <ele>343.1</ele>
  <time>2026-09-01T19:52:05Z</time>
  <course>270.0</course>
  <speed>0.0</speed>
  <fix>3d</fix>
</trkpt>
<trkpt lat="-27.2744391" lon="151.2900641">
  <ele>343.17</ele>
  <time>2026-09-01T19:52:05Z</time>
  <course>10.75</course>
  <speed>0.022360679774997897</speed>
  <fix>3d</fix>
</trkpt>
<trkpt lat="-27.274439" lon="151.290064">
  <ele>343.1</ele>
  <time>2026-09-01T19:52:05Z</time>
  <course>270.0</course>
  <speed>0.0</speed>
  <fix>3d</fix>
</trkpt>
<trkpt lat="-27.2744391" lon="151.2900641">
  <ele>343.18</ele>
  <time>2026-09-01T19:52:05Z</time>
  <course>10.75</course>
  <speed>0.022360679774997897</speed>
  <fix>3d</fix>
</trkpt>
<trkpt lat="-27.274439" lon="151.290064">
  <ele>343.1</ele>
  <time>2026-09-01T19:52:05Z</time>
  <course>270.0</course>
  <speed>0.0</speed>
  <fix>3d</fix>
</trkpt>
<trkpt lat="-27.2744391" lon="151.2900641">
  <ele>343.19</ele>
  <time>2026-09-01T19:52:05Z</time>
  <course>10.75</course>
  <speed>0.022360679774997897</speed>
  <fix>3d</fix>
</trkpt>
<trkpt lat="-27.274439" lon="151.290064">
  <ele>343.1</ele>
  <time>2026-09-01T19:52:05Z</time>
  <course>270.0</course>
  <speed>0.0</speed>
  <fix>3d</fix>
</trkpt>
<trkpt lat="-27.2744391" lon="151.2900641">
  <ele>343.19</ele>
  <time>2026-09-01T19:52:05Z</time>
  <course>10.75</course>
  <speed>0.022360679774997897</speed>
  <fix>3d</fix>
</trkpt>
<trkpt lat="-27.274439" lon="151.290064">
  <ele>343.1</ele>
  <time>2026-09-01T19:52:05Z</time>
  <course>270.0</course>
  <speed>0.0</speed>
  <fix>3d</fix>
</trkpt>
<trkpt lat="-26.9720619" lon="149.6127921">
  <ele>339.29</ele>
  <time>2026-09-01T19:52:06Z</time>
  <course>310.27</course>
  <speed>0.0</speed>
  <fix>3d</fix>
</trkpt>
<trkpt lat="-26.9720619" lon="149.6127921">
  <ele>339.29</ele>
  <time>2026-09-01T19:52:06Z</time>
  <course>310.27</course>
  <speed>0.0</speed>
  <fix>3d</fix>
</trkpt>
<trkpt lat="-27.274439" lon="151.290064">
  <ele>-0.01</ele>
  <time>2026-09-01T19:52:06Z</time>
  <course>0.22</course>
  <speed>0.0</speed>
  <fix>3d</fix>
</trkpt>
<trkpt lat="-27.274439" lon="151.290064">
  <ele>343.1</ele>
  <time>2026-09-01T19:52:06Z</time>
  <course>294.58</course>
  <speed>0.0</speed>
  <fix>3d</fix>
</trkpt>
<trkpt lat="-27.274439" lon="151.290064">
  <ele>0.02</ele>
  <time>2026-09-01T19:52:06Z</time>
  <course>1.22</course>
  <speed>0.0</speed>
  <fix>3d</fix>
</trkpt>
<trkpt lat="-27.274439" lon="151.290064">
  <ele>343.1</ele>
  <time>2026-09-01T19:52:06Z</time>
  <course>294.58</course>
  <speed>0.0</speed>
  <fix>3d</fix>
</trkpt>
<trkpt lat="-27.274439" lon="151.290064">
  <ele>-0.08</ele>
  <time>2026-09-01T19:52:06Z</time>
  <course>2.12</course>
  <speed>0.0</speed>
  <fix>3d</fix>
</trkpt>
<trkpt lat="-27.274439" lon="151.290064">
  <ele>343.1</ele>
  <time>2026-09-01T19:52:06Z</time>
  <course>273.33</course>
  <speed>0.0</speed>
  <fix>3d</fix>
</trkpt>
<trkpt lat="-27.274439" lon="151.290064">
  <ele>0.22</ele>
  <time>2026-09-01T19:52:06Z</time>
  <course>2.93</course>
  <speed>0.0</speed>
  <fix>3d</fix>
</trkpt>
<trkpt lat="-27.274439" lon="151.290064">
  <ele>343.1</ele>
  <time>2026-09-01T19:52:06Z</time>
  <course>273.33</course>
  <speed>0.0</speed>
  <fix>3d</fix>
</trkpt>
<trkpt lat="-27.274439" lon="151.290064">
  <ele>0.09</ele>
  <time>2026-09-01T19:52:06Z</time>
  <course>3.66</course>
  <speed>0.0</speed>
  <fix>3d</fix>
</trkpt>
<trkpt lat="-27.274439" lon="151.290064">
  <ele>343.1</ele>
  <time>2026-09-01T19:52:06Z</time>
  <course>270.44</course>
  <speed>0.0</speed>
  <fix>3d</fix>
</trkpt>
<trkpt lat="-27.274439" lon="151.290064">
  <ele>0.08</ele>
  <time>2026-09-01T19:52:06Z</time>
  <course>4.33</course>
  <speed>0.0</speed>
  <fix>3d</fix>
</trkpt>
<trkpt lat="-27.274439" lon="151.290064">
  <ele>343.1</ele>
  <time>2026-09-01T19:52:06Z</time>
  <course>270.44</course>
  <speed>0.0</speed>
  <fix>3d</fix>
</trkpt>
<trkpt lat="-27.274439" lon="151.290064">
  <ele>0.09</ele>
  <time>2026-09-01T19:52:06Z</time>
  <course>4.93</course>
  <speed>0.0</speed>
  <fix>3d</fix>
</trkpt>
<trkpt lat="-27.274439" lon="151.290064">
  <ele>343.1</ele>
  <time>2026-09-01T19:52:06Z</time>
  <course>270.05</course>
  <speed>0.0</speed>
  <fix>3d</fix>
</trkpt>
<trkpt lat="-27.274439" lon="151.290064">
  <ele>-0.05</ele>
  <time>2026-09-01T19:52:06Z</time>
  <course>5.48</course>
  <speed>0.0</speed>
  <fix>3d</fix>
</trkpt>
<trkpt lat="-27.274439" lon="151.290064">
  <ele>343.1</ele>
  <time>2026-09-01T19:52:06Z</time>
  <course>270.05</course>
  <speed>0.0</speed>
  <fix>3d</fix>
</trkpt>
<trkpt lat="-27.274439" lon="151.290064">
  <ele>343.06</ele>
  <time>2026-09-01T19:52:06Z</time>
  <course>5.96</course>
  <speed>0.0</speed>
  <fix>3d</fix>
</trkpt>
<trkpt lat="-27.274439" lon="151.290064">
  <ele>343.1</ele>
  <time>2026-09-01T19:52:06Z</time>
  <course>270.0</course>
  <speed>0.0</speed>
  <fix>3d</fix>
</trkpt>
<trkpt lat="-27.274439" lon="151.290064">
  <ele>343.18</ele>
  <time>2026-09-01T19:52:06Z</time>
  <course>6.41</course>
  <speed>0.0</speed>
  <fix>3d</fix>
</trkpt>
<trkpt lat="-27.274439" lon="151.290064">
  <ele>343.1</ele>
  <time>2026-09-01T19:52:06Z</time>
  <course>270.0</course>
  <speed>0.0</speed>
  <fix>3d</fix>
</trkpt>
<trkpt lat="-27.274439" lon="151.290064">
  <ele>342.91</ele>
  <time>2026-09-01T19:52:06Z</time>
  <course>6.83</course>
  <speed>0.0</speed>
  <fix>3d</fix>
</trkpt>
<trkpt lat="-27.274439" lon="151.290064">
  <ele>343.1</ele>
  <time>2026-09-01T19:52:06Z</time>
  <course>270.0</course>
  <speed>0.0</speed>
  <fix>3d</fix>
</trkpt>
<trkpt lat="-27.274439" lon="151.290064">
  <ele>343.06</ele>
  <time>2026-09-01T19:52:06Z</time>
  <course>7.2</course>
  <speed>0.0</speed>
  <fix>3d</fix>
</trkpt>
<trkpt lat="-27.274439" lon="151.290064">
  <ele>343.1</ele>
  <time>2026-09-01T19:52:06Z</time>
  <course>270.0</course>
  <speed>0.0</speed>
  <fix>3d</fix>
</trkpt>
<trkpt lat="-27.274439" lon="151.290064">
  <ele>343.13</ele>
  <time>2026-09-01T19:52:06Z</time>
  <course>7.55</course>
  <speed>0.0</speed>
  <fix>3d</fix>
</trkpt>
<trkpt lat="-27.274439" lon="151.290064">
  <ele>343.1</ele>
  <time>2026-09-01T19:52:06Z</time>
  <course>270.0</course>
  <speed>0.0</speed>
  <fix>3d</fix>
</trkpt>
<trkpt lat="-27.274439" lon="151.290064">
  <ele>343.04</ele>
  <time>2026-09-01T19:52:06Z</time>
  <course>7.86</course>
  <speed>0.0</speed>
  <fix>3d</fix>
</trkpt>
<trkpt lat="-27.274439" lon="151.290064">
  <ele>343.1</ele>
  <time>2026-09-01T19:52:06Z</time>
  <course>270.0</course>
  <speed>0.0</speed>
  <fix>3d</fix>
</trkpt>
<trkpt lat="-27.274439" lon="151.290064">
  <ele>342.88</ele>
  <time>2026-09-01T19:52:06Z</time>
  <course>8.13</course>
  <speed>0.0</speed>
  <fix>3d</fix>
</trkpt>
<trkpt lat="-27.274439" lon="151.290064">
  <ele>343.1</ele>
  <time>2026-09-01T19:52:06Z</time>
  <course>270.0</course>
  <speed>0.0</speed>
  <fix>3d</fix>
</trkpt>
<trkpt lat="-27.274439" lon="151.290064">
  <ele>343.02</ele>
  <time>2026-09-01T19:52:06Z</time>
  <course>8.39</course>
  <speed>0.0</speed>
  <fix>3d</fix>
</trkpt>
<trkpt lat="-27.274439" lon="151.290064">
  <ele>343.1</ele>
  <time>2026-09-01T19:52:06Z</time>
  <course>270.0</course>
  <speed>0.0</speed>
  <fix>3d</fix>
</trkpt>
<trkpt lat="-27.274439" lon="151.290064">
  <ele>343.23</ele>
  <time>2026-09-01T19:52:06Z</time>
  <course>8.62</course>
  <speed>0.0</speed>
  <fix>3d</fix>
</trkpt>
<trkpt lat="-27.274439" lon="151.290064">
  <ele>343.1</ele>
  <time>2026-09-01T19:52:06Z</time>
  <course>270.0</course>
  <speed>0.0</speed>
  <fix>3d</fix>
</trkpt>
<trkpt lat="-27.274439" lon="151.290064">
  <ele>343.17</ele>
  <time>2026-09-01T19:52:06Z</time>
  <course>8.82</course>
  <speed>0.0</speed>
  <fix>3d</fix>
</trkpt>
<trkpt lat="-27.274439" lon="151.290064">
  <ele>343.1</ele>
  <time>2026-09-01T19:52:06Z</time>
  <course>270.0</course>
  <speed>0.0</speed>
  <fix>3d</fix>
</trkpt>
<trkpt lat="-27.274439" lon="151.290064">
  <ele>343.04</ele>
  <time>2026-09-01T19:52:06Z</time>
  <course>9.01</course>
  <speed>0.0</speed>
  <fix>3d</fix>
</trkpt>
<trkpt lat="-27.274439" lon="151.290064">
  <ele>343.1</ele>
  <time>2026-09-01T19:52:06Z</time>
  <course>270.0</course>
  <speed>0.0</speed>
  <fix>3d</fix>
</trkpt>
<trkpt lat="-27.274439" lon="151.290064">
  <ele>342.89</ele>
  <time>2026-09-01T19:52:06Z</time>
  <course>9.18</course>
  <speed>0.0</speed>
  <fix>3d</fix>
</trkpt>
<trkpt lat="-27.274439" lon="151.290064">
  <ele>343.1</ele>
  <time>2026-09-01T19:52:06Z</time>
  <course>270.0</course>
  <speed>0.0</speed>
  <fix>3d</fix>
</trkpt>
<trkpt lat="-27.274439" lon="151.290064">
  <ele>343.08</ele>
  <time>2026-09-01T19:52:06Z</time>
  <course>9.33</course>
  <speed>0.0</speed>
  <fix>3d</fix>
</trkpt>
<trkpt lat="-27.274439" lon="151.290064">
  <ele>343.1</ele>
  <time>2026-09-01T19:52:06Z</time>
  <course>270.0</course>
  <speed>0.0</speed>
  <fix>3d</fix>
</trkpt>
<trkpt lat="-27.274439" lon="151.290064">
  <ele>343.19</ele>
  <time>2026-09-01T19:52:06Z</time>
  <course>9.47</course>
  <speed>0.0</speed>
  <fix>3d</fix>
</trkpt>
<trkpt lat="-27.274439" lon="151.290064">
  <ele>343.1</ele>
  <time>2026-09-01T19:52:06Z</time>
  <course>270.0</course>
  <speed>0.0</speed>
  <fix>3d</fix>
</trkpt>
<trkpt lat="-27.274439" lon="151.290064">
  <ele>342.88</ele>
  <time>2026-09-01T19:52:06Z</time>
  <course>9.59</course>
  <speed>0.0</speed>
  <fix>3d</fix>
</trkpt>
<trkpt lat="-27.274439" lon="151.290064">
  <ele>343.1</ele>
  <time>2026-09-01T19:52:06Z</time>
  <course>270.0</course>
  <speed>0.0</speed>
  <fix>3d</fix>
</trkpt>
<trkpt lat="-27.274439" lon="151.290064">
  <ele>343.17</ele>
  <time>2026-09-01T19:52:07Z</time>
  <course>9.7</course>
  <speed>0.0</speed>
  <fix>3d</fix>
</trkpt>
<trkpt lat="-27.274439" lon="151.290064">
  <ele>343.1</ele>
  <time>2026-09-01T19:52:07Z</time>
  <course>270.0</course>
  <speed>0.0</speed>
  <fix>3d</fix>
</trkpt>
<trkpt lat="-27.274439" lon="151.290064">
  <ele>342.89</ele>
  <time>2026-09-01T19:52:07Z</time>
  <course>9.8</course>
  <speed>0.0</speed>
  <fix>3d</fix>
</trkpt>
<trkpt lat="-27.274439" lon="151.290064">
  <ele>343.1</ele>
  <time>2026-09-01T19:52:07Z</time>
  <course>270.0</course>
  <speed>0.0</speed>
  <fix>3d</fix>
</trkpt>
<trkpt lat="-27.274439" lon="151.290064">
  <ele>342.99</ele>
  <time>2026-09-01T19:52:07Z</time>
  <course>9.89</course>
  <speed>0.0</speed>
  <fix>3d</fix>
</trkpt>
<trkpt lat="-27.274439" lon="151.290064">
  <ele>343.1</ele>
  <time>2026-09-01T19:52:07Z</time>
  <course>270.0</course>
  <speed>0.0</speed>
  <fix>3d</fix>
</trkpt>
<trkpt lat="-27.274439" lon="151.290064">
  <ele>342.87</ele>
  <time>2026-09-01T19:52:07Z</time>
  <course>9.98</course>
  <speed>0.0</speed>
  <fix>3d</fix>
</trkpt>
<trkpt lat="-27.274439" lon="151.290064">
  <ele>343.1</ele>
  <time>2026-09-01T19:52:07Z</time>
  <course>270.0</course>
  <speed>0.0</speed>
  <fix>3d</fix>
</trkpt>
<trkpt lat="-27.274439" lon="151.290064">
  <ele>343.09</ele>
  <time>2026-09-01T19:52:07Z</time>
  <course>10.06</course>
  <speed>0.0</speed>
  <fix>3d</fix>
</trkpt>
<trkpt lat="-27.274439" lon="151.290064">
  <ele>343.1</ele>
  <time>2026-09-01T19:52:07Z</time>
  <course>270.0</course>
  <speed>0.0</speed>
  <fix>3d</fix>
</trkpt>
<trkpt lat="-27.274439" lon="151.290064">
  <ele>343.18</ele>
  <time>2026-09-01T19:52:07Z</time>
  <course>10.13</course>
  <speed>0.0</speed>
  <fix>3d</fix>
</trkpt>
<trkpt lat="-27.274439" lon="151.290064">
  <ele>343.1</ele>
  <time>2026-09-01T19:52:07Z</time>
  <course>270.0</course>
  <speed>0.0</speed>
  <fix>3d</fix>
</trkpt>
<trkpt lat="-27.274439" lon="151.290064">
  <ele>343.05</ele>
  <time>2026-09-01T19:52:07Z</time>
  <course>10.19</course>
  <speed>0.0</speed>
  <fix>3d</fix>
</trkpt>
<trkpt lat="-27.274439" lon="151.290064">
  <ele>343.1</ele>
  <time>2026-09-01T19:52:07Z</time>
  <course>270.0</course>
  <speed>0.0</speed>
  <fix>3d</fix>
</trkpt>
<trkpt lat="-27.274439" lon="151.290064">
  <ele>342.96</ele>
  <time>2026-09-01T19:52:07Z</time>
  <course>10.25</course>
  <speed>0.0</speed>
  <fix>3d</fix>
</trkpt>
<trkpt lat="-27.274439" lon="151.290064">
  <ele>343.1</ele>
  <time>2026-09-01T19:52:07Z</time>
  <course>270.0</course>
  <speed>0.0</speed>
  <fix>3d</fix>
</trkpt>
<trkpt lat="-27.274439" lon="151.290064">
  <ele>343.1</ele>
  <time>2026-09-01T19:52:07Z</time>
  <course>10.3</course>
  <speed>0.0</speed>
  <fix>3d</fix>
</trkpt>
<trkpt lat="-27.274439" lon="151.290064">
  <ele>343.1</ele>
  <time>2026-09-01T19:52:07Z</time>
  <course>270.0</course>
  <speed>0.0</speed>
  <fix>3d</fix>
</trkpt>
<trkpt lat="-27.274439" lon="151.290064">
  <ele>343.22</ele>
  <time>2026-09-01T19:52:07Z</time>
  <course>10.35</course>
  <speed>0.0</speed>
  <fix>3d</fix>
</trkpt>
<trkpt lat="-27.274439" lon="151.290064">
  <ele>343.1</ele>
  <time>2026-09-01T19:52:07Z</time>
  <course>270.0</course>
  <speed>0.0</speed>
  <fix>3d</fix>
</trkpt>
<trkpt lat="-27.274439" lon="151.290064">
  <ele>343.17</ele>
  <time>2026-09-01T19:52:07Z</time>
  <course>10.39</course>
  <speed>0.0</speed>
  <fix>3d</fix>
</trkpt>
<trkpt lat="-27.274439" lon="151.290064">
  <ele>343.1</ele>
  <time>2026-09-01T19:52:07Z</time>
  <course>270.0</course>
  <speed>0.0</speed>
  <fix>3d</fix>
</trkpt>
<trkpt lat="-27.274439" lon="151.290064">
  <ele>343.08</ele>
  <time>2026-09-01T19:52:07Z</time>
  <course>10.43</course>
  <speed>0.0</speed>
  <fix>3d</fix>
</trkpt>
<trkpt lat="-27.274439" lon="151.290064">
  <ele>343.1</ele>
  <time>2026-09-01T19:52:07Z</time>
  <course>270.0</course>
  <speed>0.0</speed>
  <fix>3d</fix>
</trkpt>
<trkpt lat="-27.274439" lon="151.290064">
  <ele>343.04</ele>
  <time>2026-09-01T19:52:07Z</time>
  <course>10.47</course>
  <speed>0.0</speed>
  <fix>3d</fix>
</trkpt>
<trkpt lat="-27.274439" lon="151.290064">
  <ele>343.1</ele>
  <time>2026-09-01T19:52:07Z</time>
  <course>270.0</course>
  <speed>0.0</speed>
  <fix>3d</fix>
</trkpt>
<trkpt lat="-27.274439" lon="151.290064">
  <ele>343.18</ele>
  <time>2026-09-01T19:52:07Z</time>
  <course>10.5</course>
  <speed>0.0</speed>
  <fix>3d</fix>
</trkpt>
<trkpt lat="-27.274439" lon="151.290064">
  <ele>343.1</ele>
  <time>2026-09-01T19:52:07Z</time>
  <course>270.0</course>
  <speed>0.0</speed>
  <fix>3d</fix>
</trkpt>
<trkpt lat="-27.274439" lon="151.290064">
  <ele>343.12</ele>
  <time>2026-09-01T19:52:07Z</time>
  <course>10.53</course>
  <speed>0.0</speed>
  <fix>3d</fix>
</trkpt>
<trkpt lat="-27.274439" lon="151.290064">
  <ele>343.1</ele>
  <time>2026-09-01T19:52:07Z</time>
  <course>270.0</course>
  <speed>0.0</speed>
  <fix>3d</fix>
</trkpt>
<trkpt lat="-27.274439" lon="151.290064">
  <ele>343.04</ele>
  <time>2026-09-01T19:52:07Z</time>
  <course>10.56</course>
  <speed>0.0</speed>
  <fix>3d</fix>
</trkpt>
<trkpt lat="-27.274439" lon="151.290064">
  <ele>343.1</ele>
  <time>2026-09-01T19:52:07Z</time>
  <course>270.0</course>
  <speed>0.0</speed>
  <fix>3d</fix>
</trkpt>
<trkpt lat="-27.274439" lon="151.290064">
  <ele>343.07</ele>
  <time>2026-09-01T19:52:07Z</time>
  <course>10.58</course>
  <speed>0.0</speed>
  <fix>3d</fix>
</trkpt>
<trkpt lat="-27.274439" lon="151.290064">
  <ele>343.1</ele>
  <time>2026-09-01T19:52:07Z</time>
  <course>270.0</course>
  <speed>0.0</speed>
  <fix>3d</fix>
</trkpt>
<trkpt lat="-27.274439" lon="151.290064">
  <ele>343.04</ele>
  <time>2026-09-01T19:52:07Z</time>
  <course>10.6</course>
  <speed>0.0</speed>
  <fix>3d</fix>
</trkpt>
<trkpt lat="-27.274439" lon="151.290064">
  <ele>343.1</ele>
  <time>2026-09-01T19:52:07Z</time>
  <course>270.0</course>
  <speed>0.0</speed>
  <fix>3d</fix>
</trkpt>
<trkpt lat="-27.274439" lon="151.290064">
  <ele>343.01</ele>
  <time>2026-09-01T19:52:07Z</time>
  <course>10.62</course>
  <speed>0.0</speed>
  <fix>3d</fix>
</trkpt>
<trkpt lat="-27.274439" lon="151.290064">
  <ele>343.1</ele>
  <time>2026-09-01T19:52:07Z</time>
  <course>270.0</course>
  <speed>0.0</speed>
  <fix>3d</fix>
</trkpt>
<trkpt lat="-27.274439" lon="151.290064">
  <ele>343.2</ele>
  <time>2026-09-01T19:52:07Z</time>
  <course>10.64</course>
  <speed>0.0</speed>
  <fix>3d</fix>
</trkpt>
<trkpt lat="-27.274439" lon="151.290064">
  <ele>343.1</ele>
  <time>2026-09-01T19:52:07Z</time>
  <course>270.0</course>
  <speed>0.0</speed>
  <fix>3d</fix>
</trkpt>
<trkpt lat="-27.274439" lon="151.290064">
  <ele>343.24</ele>
  <time>2026-09-01T19:52:07Z</time>
  <course>10.65</course>
  <speed>0.0</speed>
  <fix>3d</fix>
</trkpt>
<trkpt lat="-27.274439" lon="151.290064">
  <ele>343.1</ele>
  <time>2026-09-01T19:52:07Z</time>
  <course>270.0</course>
  <speed>0.0</speed>
  <fix>3d</fix>
</trkpt>
<trkpt lat="-27.274439" lon="151.290064">
  <ele>342.88</ele>
  <time>2026-09-01T19:52:07Z</time>
  <course>10.67</course>
  <speed>0.0</speed>
  <fix>3d</fix>
</trkpt>
<trkpt lat="-27.274439" lon="151.290064">
  <ele>343.1</ele>
  <time>2026-09-01T19:52:07Z</time>
  <course>270.0</course>
  <speed>0.0</speed>
  <fix>3d</fix>
</trkpt>
<trkpt lat="-27.274439" lon="151.290064">
  <ele>343.21</ele>
  <time>2026-09-01T19:52:07Z</time>
  <course>10.68</course>
  <speed>0.0</speed>
  <fix>3d</fix>
</trkpt>
<trkpt lat="-27.274439" lon="151.290064">
  <ele>343.1</ele>
  <time>2026-09-01T19:52:07Z</time>
  <course>270.0</course>
  <speed>0.0</speed>
  <fix>3d</fix>
</trkpt>
<trkpt lat="-27.274439" lon="151.290064">
  <ele>343.02</ele>
  <time>2026-09-01T19:52:07Z</time>
  <course>10.69</course>
  <speed>0.0</speed>
  <fix>3d</fix>
</trkpt>
<trkpt lat="-27.274439" lon="151.290064">
  <ele>343.1</ele>
  <time>2026-09-01T19:52:07Z</time>
  <course>270.0</course>
  <speed>0.0</speed>
  <fix>3d</fix>
</trkpt>
<trkpt lat="-27.274439" lon="151.290064">
  <ele>342.93</ele>
  <time>2026-09-01T19:52:07Z</time>
  <course>10.7</course>
  <speed>0.0</speed>
  <fix>3d</fix>
</trkpt>
<trkpt lat="-27.274439" lon="151.290064">
  <ele>343.1</ele>
  <time>2026-09-01T19:52:07Z</time>
  <course>270.0</course>
  <speed>0.0</speed>
  <fix>3d</fix>
</trkpt>
<trkpt lat="-27.274439" lon="151.290064">
  <ele>343.07</ele>
  <time>2026-09-01T19:52:07Z</time>
  <course>10.71</course>
  <speed>0.0</speed>
  <fix>3d</fix>
</trkpt>
<trkpt lat="-27.274439" lon="151.290064">
  <ele>343.1</ele>
  <time>2026-09-01T19:52:07Z</time>
  <course>270.0</course>
  <speed>0.0</speed>
  <fix>3d</fix>
</trkpt>
<trkpt lat="-27.274439" lon="151.290064">
  <ele>342.94</ele>
  <time>2026-09-01T19:52:07Z</time>
  <course>10.72</course>
  <speed>0.0</speed>
  <fix>3d</fix>
</trkpt>
<trkpt lat="-27.274439" lon="151.290064">
  <ele>343.1</ele>
  <time>2026-09-01T19:52:07Z</time>
  <course>270.0</course>
  <speed>0.0</speed>
  <fix>3d</fix>
</trkpt>
<trkpt lat="-27.274439" lon="151.290064">
  <ele>343.11</ele>
  <time>2026-09-01T19:52:07Z</time>
  <course>10.73</course>
  <speed>0.0</speed>
  <fix>3d</fix>
</trkpt>
<trkpt lat="-27.274439" lon="151.290064">
  <ele>343.1</ele>
  <time>2026-09-01T19:52:07Z</time>
  <course>270.0</course>
  <speed>0.0</speed>
  <fix>3d</fix>
</trkpt>
<trkpt lat="-27.274439" lon="151.290064">
  <ele>343.24</ele>
  <time>2026-09-01T19:52:07Z</time>
  <course>10.73</course>
  <speed>0.0</speed>
  <fix>3d</fix>
</trkpt>
<trkpt lat="-27.274439" lon="151.290064">
  <ele>343.1</ele>
  <time>2026-09-01T19:52:07Z</time>
  <course>270.0</course>
  <speed>0.0</speed>
  <fix>3d</fix>
</trkpt>
<trkpt lat="-27.274439" lon="151.290064">
  <ele>343.18</ele>
  <time>2026-09-01T19:52:07Z</time>
  <course>10.74</course>
  <speed>0.0</speed>
  <fix>3d</fix>
</trkpt>
<trkpt lat="-27.274439" lon="151.290064">
  <ele>343.1</ele>
  <time>2026-09-01T19:52:07Z</time>
  <course>270.0</course>
  <speed>0.0</speed>
  <fix>3d</fix>
</trkpt>
<trkpt lat="-27.274439" lon="151.290064">
  <ele>342.89</ele>
  <time>2026-09-01T19:52:07Z</time>
  <course>10.75</course>
  <speed>0.0</speed>
  <fix>3d</fix>
</trkpt>
<trkpt lat="-27.274439" lon="151.290064">
  <ele>343.1</ele>
  <time>2026-09-01T19:52:07Z</time>
  <course>270.0</course>
  <speed>0.0</speed>
  <fix>3d</fix>
</trkpt>
<trkpt lat="-27.274439" lon="151.290064">
  <ele>343.23</ele>
  <time>2026-09-01T19:52:07Z</time>
  <course>10.75</course>
  <speed>0.0</speed>
  <fix>3d</fix>
</trkpt>
<trkpt lat="-27.274439" lon="151.290064">
  <ele>343.1</ele>
  <time>2026-09-01T19:52:07Z</time>
  <course>270.0</course>
  <speed>0.0</speed>
  <fix>3d</fix>
</trkpt>
<trkpt lat="-27.274439" lon="151.290064">
  <ele>343.23</ele>
  <time>2026-09-01T19:52:07Z</time>
  <course>10.76</course>
  <speed>0.0</speed>
  <fix>3d</fix>
</trkpt>
<trkpt lat="-27.274439" lon="151.290064">
  <ele>343.1</ele>
  <time>2026-09-01T19:52:07Z</time>
  <course>270.0</course>
  <speed>0.0</speed>
  <fix>3d</fix>
</trkpt>
<trkpt lat="-27.274439" lon="151.290064">
  <ele>342.99</ele>
  <time>2026-09-01T19:52:07Z</time>
  <course>10.76</course>
  <speed>0.0</speed>
  <fix>3d</fix>
</trkpt>
<trkpt lat="-27.274439" lon="151.290064">
  <ele>343.1</ele>
  <time>2026-09-01T19:52:07Z</time>
  <course>270.0</course>
  <speed>0.0</speed>
  <fix>3d</fix>
</trkpt>
<trkpt lat="-27.274439" lon="151.290064">
  <ele>343.13</ele>
  <time>2026-09-01T19:52:07Z</time>
  <course>10.76</course>
  <speed>0.0</speed>
  <fix>3d</fix>
</trkpt>
<trkpt lat="-27.274439" lon="151.290064">
  <ele>343.1</ele>
  <time>2026-09-01T19:52:07Z</time>
  <course>270.0</course>
  <speed>0.0</speed>
  <fix>3d</fix>
</trkpt>
<trkpt lat="-27.274439" lon="151.290064">
  <ele>343.07</ele>
  <time>2026-09-01T19:52:07Z</time>
  <course>10.77</course>
  <speed>0.0</speed>
  <fix>3d</fix>
</trkpt>
<trkpt lat="-27.274439" lon="151.290064">
  <ele>343.1</ele>
  <time>2026-09-01T19:52:07Z</time>
  <course>270.0</course>
  <speed>0.0</speed>
  <fix>3d</fix>
</trkpt>
<trkpt lat="-27.274439" lon="151.290064">
  <ele>343.19</ele>
  <time>2026-09-01T19:52:07Z</time>
  <course>10.77</course>
  <speed>0.0</speed>
  <fix>3d</fix>
</trkpt>
<trkpt lat="-27.274439" lon="151.290064">
  <ele>343.1</ele>
  <time>2026-09-01T19:52:07Z</time>
  <course>270.0</course>
  <speed>0.0</speed>
  <fix>3d</fix>
</trkpt>
<trkpt lat="-27.274439" lon="151.290064">
  <ele>342.93</ele>
  <time>2026-09-01T19:52:07Z</time>
  <course>10.77</course>
  <speed>0.0</speed>
  <fix>3d</fix>
</trkpt>
<trkpt lat="-27.274439" lon="151.290064">
  <ele>343.1</ele>
  <time>2026-09-01T19:52:07Z</time>
  <course>270.0</course>
  <speed>0.0</speed>
  <fix>3d</fix>
</trkpt>
<trkpt lat="-27.274439" lon="151.290064">
  <ele>343.19</ele>
  <time>2026-09-01T19:52:07Z</time>
  <course>10.78</course>
  <speed>0.0</speed>
  <fix>3d</fix>
</trkpt>
<trkpt lat="-27.274439" lon="151.290064">
  <ele>343.1</ele>
  <time>2026-09-01T19:52:07Z</time>
  <course>270.0</course>
  <speed>0.0</speed>
  <fix>3d</fix>
</trkpt>
<trkpt lat="-27.274439" lon="151.290064">
  <ele>343.1</ele>
  <time>2026-09-01T19:52:07Z</time>
  <course>10.78</course>
  <speed>0.0</speed>
  <fix>3d</fix>
</trkpt>
<trkpt lat="-27.274439" lon="151.290064">
  <ele>343.1</ele>
  <time>2026-09-01T19:52:07Z</time>
  <course>270.0</course>
  <speed>0.0</speed>
  <fix>3d</fix>
</trkpt>
<trkpt lat="-27.274439" lon="151.290064">
  <ele>343.01</ele>
  <time>2026-09-01T19:52:07Z</time>
  <course>10.78</course>
  <speed>0.0</speed>
  <fix>3d</fix>
</trkpt>
<trkpt lat="-27.274439" lon="151.290064">
  <ele>343.1</ele>
  <time>2026-09-01T19:52:07Z</time>
  <course>270.0</course>
  <speed>0.0</speed>
  <fix>3d</fix>
</trkpt>
<trkpt lat="-27.274439" lon="151.290064">
  <ele>343.11</ele>
  <time>2026-09-01T19:52:07Z</time>
  <course>10.78</course>
  <speed>0.0</speed>
  <fix>3d</fix>
</trkpt>
<trkpt lat="-27.274439" lon="151.290064">
  <ele>343.1</ele>
  <time>2026-09-01T19:52:07Z</time>
  <course>270.0</course>
  <speed>0.0</speed>
  <fix>3d</fix>
</trkpt>
<trkpt lat="-27.274439" lon="151.290064">
  <ele>342.96</ele>
  <time>2026-09-01T19:52:07Z</time>
  <course>10.78</course>
  <speed>0.0</speed>
  <fix>3d</fix>
</trkpt>
<trkpt lat="-27.274439" lon="151.290064">
  <ele>343.1</ele>
  <time>2026-09-01T19:52:07Z</time>
  <course>270.0</course>
  <speed>0.0</speed>
  <fix>3d</fix>
</trkpt>
<trkpt lat="-27.274439" lon="151.290064">
  <ele>343.19</ele>
  <time>2026-09-01T19:52:07Z</time>
  <course>10.79</course>
  <speed>0.0</speed>
  <fix>3d</fix>
</trkpt>
<trkpt lat="-27.274439" lon="151.290064">
  <ele>343.1</ele>
  <time>2026-09-01T19:52:07Z</time>
  <course>270.0</course>
  <speed>0.0</speed>
  <fix>3d</fix>
</trkpt>
<trkpt lat="-27.274439" lon="151.290064">
  <ele>343.0</ele>
  <time>2026-09-01T19:52:07Z</time>
  <course>10.79</course>
  <speed>0.0</speed>
  <fix>3d</fix>
</trkpt>
<trkpt lat="-27.274439" lon="151.290064">
  <ele>343.1</ele>
  <time>2026-09-01T19:52:07Z</time>
  <course>270.0</course>
  <speed>0.0</speed>
  <fix>3d</fix>
</trkpt>
<trkpt lat="-27.274439" lon="151.290064">
  <ele>343.2</ele>
  <time>2026-09-01T19:52:07Z</time>
  <course>10.79</course>
  <speed>0.0</speed>
  <fix>3d</fix>
</trkpt>
<trkpt lat="-27.274439" lon="151.290064">
  <ele>343.1</ele>
  <time>2026-09-01T19:52:07Z</time>
  <course>270.0</course>
  <speed>0.0</speed>
  <fix>3d</fix>
</trkpt>
<trkpt lat="-27.274439" lon="151.290064">
  <ele>343.2</ele>
  <time>2026-09-01T19:52:07Z</time>
  <course>10.79</course>
  <speed>0.0</speed>
  <fix>3d</fix>
</trkpt>
<trkpt lat="-27.274439" lon="151.290064">
  <ele>343.1</ele>
  <time>2026-09-01T19:52:07Z</time>
  <course>270.0</course>
  <speed>0.0</speed>
  <fix>3d</fix>
</trkpt>
<trkpt lat="-27.274439" lon="151.290064">
  <ele>343.13</ele>
  <time>2026-09-01T19:52:07Z</time>
  <course>10.79</course>
  <speed>0.0</speed>
  <fix>3d</fix>
</trkpt>
<trkpt lat="-27.274439" lon="151.290064">
  <ele>343.1</ele>
  <time>2026-09-01T19:52:07Z</time>
  <course>270.0</course>
  <speed>0.0</speed>
  <fix>3d</fix>
</trkpt>
<trkpt lat="-27.274439" lon="151.290064">
  <ele>343.1</ele>
  <time>2026-09-01T19:52:07Z</time>
  <course>10.79</course>
  <speed>0.0</speed>
  <fix>3d</fix>
</trkpt>
<trkpt lat="-27.274439" lon="151.290064">
  <ele>343.1</ele>
  <time>2026-09-01T19:52:07Z</time>
  <course>270.0</course>
  <speed>0.0</speed>
  <fix>3d</fix>
</trkpt>
<trkpt lat="-27.274439" lon="151.290064">
  <ele>343.12</ele>
  <time>2026-09-01T19:52:07Z</time>
  <course>10.79</course>
  <speed>0.0</speed>
  <fix>3d</fix>
</trkpt>
<trkpt lat="-27.274439" lon="151.290064">
  <ele>343.1</ele>
  <time>2026-09-01T19:52:07Z</time>
  <course>270.0</course>
  <speed>0.0</speed>
  <fix>3d</fix>
</trkpt>
<trkpt lat="-27.274439" lon="151.290064">
  <ele>342.94</ele>
  <time>2026-09-01T19:52:07Z</time>
  <course>10.79</course>
  <speed>0.0</speed>
  <fix>3d</fix>
</trkpt>
<trkpt lat="-27.274439" lon="151.290064">
  <ele>343.1</ele>
  <time>2026-09-01T19:52:07Z</time>
  <course>270.0</course>
  <speed>0.0</speed>
  <fix>3d</fix>
</trkpt>
<trkpt lat="-27.274439" lon="151.290064">
  <ele>343.25</ele>
  <time>2026-09-01T19:52:07Z</time>
  <course>10.79</course>
  <speed>0.0</speed>
  <fix>3d</fix>
</trkpt>
<trkpt lat="-27.274439" lon="151.290064">
  <ele>343.1</ele>
  <time>2026-09-01T19:52:07Z</time>
  <course>270.0</course>
  <speed>0.0</speed>
  <fix>3d</fix>
</trkpt>
<trkpt lat="-27.274439" lon="151.290064">
  <ele>342.93</ele>
  <time>2026-09-01T19:52:07Z</time>
  <course>10.8</course>
  <speed>0.0</speed>
  <fix>3d</fix>
</trkpt>
<trkpt lat="-27.274439" lon="151.290064">
  <ele>343.1</ele>
  <time>2026-09-01T19:52:07Z</time>
  <course>270.0</course>
  <speed>0.0</speed>
  <fix>3d</fix>
</trkpt>
<trkpt lat="-27.274439" lon="151.290064">
  <ele>343.08</ele>
  <time>2026-09-01T19:52:07Z</time>
  <course>10.8</course>
  <speed>0.0</speed>
  <fix>3d</fix>
</trkpt>
<trkpt lat="-27.274439" lon="151.290064">
  <ele>343.1</ele>
  <time>2026-09-01T19:52:07Z</time>
  <course>270.0</course>
  <speed>0.0</speed>
  <fix>3d</fix>
</trkpt>
<trkpt lat="-27.274439" lon="151.290064">
  <ele>343.23</ele>
  <time>2026-09-01T19:52:07Z</time>
  <course>10.8</course>
  <speed>0.0</speed>
  <fix>3d</fix>
</trkpt>
<trkpt lat="-27.274439" lon="151.290064">
  <ele>343.1</ele>
  <time>2026-09-01T19:52:07Z</time>
  <course>270.0</course>
  <speed>0.0</speed>
  <fix>3d</fix>
</trkpt>
<trkpt lat="-27.274439" lon="151.290064">
  <ele>343.01</ele>
  <time>2026-09-01T19:52:07Z</time>
  <course>10.8</course>
  <speed>0.0</speed>
  <fix>3d</fix>
</trkpt>
<trkpt lat="-27.274439" lon="151.290064">
  <ele>343.1</ele>
  <time>2026-09-01T19:52:07Z</time>
  <course>270.0</course>
  <speed>0.0</speed>
  <fix>3d</fix>
</trkpt>
<trkpt lat="-27.274439" lon="151.290064">
  <ele>343.1</ele>
  <time>2026-09-01T19:52:07Z</time>
  <course>10.8</course>
  <speed>0.0</speed>
  <fix>3d</fix>
</trkpt>
<trkpt lat="-27.274439" lon="151.290064">
  <ele>343.1</ele>
  <time>2026-09-01T19:52:07Z</time>
  <course>270.0</course>
  <speed>0.0</speed>
  <fix>3d</fix>
</trkpt>
<trkpt lat="-27.274439" lon="151.290064">
  <ele>342.99</ele>
  <time>2026-09-01T19:52:07Z</time>
  <course>10.8</course>
  <speed>0.0</speed>
  <fix>3d</fix>
</trkpt>
<trkpt lat="-27.274439" lon="151.290064">
  <ele>343.1</ele>
  <time>2026-09-01T19:52:07Z</time>
  <course>270.0</course>
  <speed>0.0</speed>
  <fix>3d</fix>
</trkpt>
<trkpt lat="-27.274439" lon="151.290064">
  <ele>342.87</ele>
  <time>2026-09-01T19:52:07Z</time>
  <course>10.8</course>
  <speed>0.0</speed>
  <fix>3d</fix>
</trkpt>
<trkpt lat="-27.274439" lon="151.290064">
  <ele>343.1</ele>
  <time>2026-09-01T19:52:07Z</time>
  <course>270.0</course>
  <speed>0.0</speed>
  <fix>3d</fix>
</trkpt>
<trkpt lat="-27.274439" lon="151.290064">
  <ele>343.1</ele>
  <time>2026-09-01T19:52:07Z</time>
  <course>10.8</course>
  <speed>0.0</speed>
  <fix>3d</fix>
</trkpt>
<trkpt lat="-27.274439" lon="151.290064">
  <ele>343.1</ele>
  <time>2026-09-01T19:52:07Z</time>
  <course>270.0</course>
  <speed>0.0</speed>
  <fix>3d</fix>
</trkpt>
<trkpt lat="-27.274439" lon="151.290064">
  <ele>342.99</ele>
  <time>2026-09-01T19:52:07Z</time>
  <course>10.8</course>
  <speed>0.0</speed>
  <fix>3d</fix>
</trkpt>
<trkpt lat="-27.274439" lon="151.290064">
  <ele>343.1</ele>
  <time>2026-09-01T19:52:07Z</time>
  <course>270.0</course>
  <speed>0.0</speed>
  <fix>3d</fix>
</trkpt>
<trkpt lat="-27.274439" lon="151.290064">
  <ele>342.91</ele>
  <time>2026-09-01T19:52:07Z</time>
  <course>10.8</course>
  <speed>0.0</speed>
  <fix>3d</fix>
</trkpt>
<trkpt lat="-27.274439" lon="151.290064">
  <ele>343.1</ele>
  <time>2026-09-01T19:52:07Z</time>
  <course>270.0</course>
  <speed>0.0</speed>
  <fix>3d</fix>
</trkpt>
<trkpt lat="-27.274439" lon="151.290064">
  <ele>342.9</ele>
  <time>2026-09-01T19:52:07Z</time>
  <course>10.8</course>
  <speed>0.0</speed>
  <fix>3d</fix>
</trkpt>
<trkpt lat="-27.274439" lon="151.290064">
  <ele>343.1</ele>
  <time>2026-09-01T19:52:07Z</time>
  <course>270.0</course>
  <speed>0.0</speed>
  <fix>3d</fix>
</trkpt>
<trkpt lat="-27.274439" lon="151.290064">
  <ele>342.87</ele>
  <time>2026-09-01T19:52:07Z</time>
  <course>10.8</course>
  <speed>0.0</speed>
  <fix>3d</fix>
</trkpt>
<trkpt lat="-27.274439" lon="151.290064">
  <ele>343.1</ele>
  <time>2026-09-01T19:52:07Z</time>
  <course>270.0</course>
  <speed>0.0</speed>
  <fix>3d</fix>
</trkpt>
<trkpt lat="-27.274439" lon="151.290064">
  <ele>343.12</ele>
  <time>2026-09-01T19:52:07Z</time>
  <course>10.8</course>
  <speed>0.0</speed>
  <fix>3d</fix>
</trkpt>
<trkpt lat="-27.274439" lon="151.290064">
  <ele>343.1</ele>
  <time>2026-09-01T19:52:07Z</time>
  <course>270.0</course>
  <speed>0.0</speed>
  <fix>3d</fix>
</trkpt>
<trkpt lat="-27.274439" lon="151.290064">
  <ele>342.99</ele>
  <time>2026-09-01T19:52:07Z</time>
  <course>10.8</course>
  <speed>0.0</speed>
  <fix>3d</fix>
</trkpt>
<trkpt lat="-27.274439" lon="151.290064">
  <ele>343.1</ele>
  <time>2026-09-01T19:52:07Z</time>
  <course>270.0</course>
  <speed>0.0</speed>
  <fix>3d</fix>
</trkpt>
<trkpt lat="-27.274439" lon="151.290064">
  <ele>343.13</ele>
  <time>2026-09-01T19:52:07Z</time>
  <course>10.8</course>
  <speed>0.0</speed>
  <fix>3d</fix>
</trkpt>
<trkpt lat="-27.274439" lon="151.290064">
  <ele>343.1</ele>
  <time>2026-09-01T19:52:07Z</time>
  <course>270.0</course>
  <speed>0.0</speed>
  <fix>3d</fix>
</trkpt>
<trkpt lat="-27.274439" lon="151.290064">
  <ele>343.0</ele>
  <time>2026-09-01T19:52:07Z</time>
  <course>10.8</course>
  <speed>0.0</speed>
  <fix>3d</fix>
</trkpt>
<trkpt lat="-27.274439" lon="151.290064">
  <ele>343.1</ele>
  <time>2026-09-01T19:52:07Z</time>
  <course>270.0</course>
  <speed>0.0</speed>
  <fix>3d</fix>
</trkpt>
<trkpt lat="-27.274439" lon="151.290064">
  <ele>343.17</ele>
  <time>2026-09-01T19:52:07Z</time>
  <course>10.8</course>
  <speed>0.0</speed>
  <fix>3d</fix>
</trkpt>
<trkpt lat="-27.274439" lon="151.290064">
  <ele>343.1</ele>
  <time>2026-09-01T19:52:07Z</time>
  <course>270.0</course>
  <speed>0.0</speed>
  <fix>3d</fix>
</trkpt>
<trkpt lat="-27.274439" lon="151.290064">
  <ele>343.0</ele>
  <time>2026-09-01T19:52:07Z</time>
  <course>10.8</course>
  <speed>0.0</speed>
  <fix>3d</fix>
</trkpt>
<trkpt lat="-27.274439" lon="151.290064">
  <ele>343.1</ele>
  <time>2026-09-01T19:52:07Z</time>
  <course>270.0</course>
  <speed>0.0</speed>
  <fix>3d</fix>
</trkpt>
<trkpt lat="-27.274439" lon="151.290064">
  <ele>342.99</ele>
  <time>2026-09-01T19:52:07Z</time>
  <course>10.8</course>
  <speed>0.0</speed>
  <fix>3d</fix>
</trkpt>
<trkpt lat="-27.274439" lon="151.290064">
  <ele>343.1</ele>
  <time>2026-09-01T19:52:07Z</time>
  <course>270.0</course>
  <speed>0.0</speed>
  <fix>3d</fix>
</trkpt>
<trkpt lat="-27.274439" lon="151.290064">
  <ele>343.17</ele>
  <time>2026-09-01T19:52:07Z</time>
  <course>10.8</course>
  <speed>0.0</speed>
  <fix>3d</fix>
</trkpt>
<trkpt lat="-27.274439" lon="151.290064">
  <ele>343.1</ele>
  <time>2026-09-01T19:52:07Z</time>
  <course>270.0</course>
  <speed>0.0</speed>
  <fix>3d</fix>
</trkpt>
<trkpt lat="-27.274439" lon="151.290064">
  <ele>343.16</ele>
  <time>2026-09-01T19:52:07Z</time>
  <course>10.8</course>
  <speed>0.0</speed>
  <fix>3d</fix>
</trkpt>
<trkpt lat="-27.274439" lon="151.290064">
  <ele>343.1</ele>
  <time>2026-09-01T19:52:07Z</time>
  <course>270.0</course>
  <speed>0.0</speed>
  <fix>3d</fix>
</trkpt>
<trkpt lat="-27.274439" lon="151.290064">
  <ele>342.87</ele>
  <time>2026-09-01T19:52:07Z</time>
  <course>10.8</course>
  <speed>0.0</speed>
  <fix>3d</fix>
</trkpt>
<trkpt lat="-27.274439" lon="151.290064">
  <ele>343.1</ele>
  <time>2026-09-01T19:52:07Z</time>
  <course>270.0</course>
  <speed>0.0</speed>
  <fix>3d</fix>
</trkpt>
<trkpt lat="-27.274439" lon="151.290064">
  <ele>343.19</ele>
  <time>2026-09-01T19:52:07Z</time>
  <course>10.8</course>
  <speed>0.0</speed>
  <fix>3d</fix>
</trkpt>
<trkpt lat="-27.274439" lon="151.290064">
  <ele>343.1</ele>
  <time>2026-09-01T19:52:07Z</time>
  <course>270.0</course>
  <speed>0.0</speed>
  <fix>3d</fix>
</trkpt>
<trkpt lat="-27.274439" lon="151.290064">
  <ele>343.16</ele>
  <time>2026-09-01T19:52:07Z</time>
  <course>10.8</course>
  <speed>0.0</speed>
  <fix>3d</fix>
</trkpt>
<trkpt lat="-27.274439" lon="151.290064">
  <ele>343.1</ele>
  <time>2026-09-01T19:52:07Z</time>
  <course>270.0</course>
  <speed>0.0</speed>
  <fix>3d</fix>
</trkpt>
<trkpt lat="-27.274439" lon="151.290064">
  <ele>343.21</ele>
  <time>2026-09-01T19:52:07Z</time>
  <course>10.8</course>
  <speed>0.0</speed>
  <fix>3d</fix>
</trkpt>
<trkpt lat="-27.274439" lon="151.290064">
  <ele>343.1</ele>
  <time>2026-09-01T19:52:07Z</time>
  <course>270.0</course>
  <speed>0.0</speed>
  <fix>3d</fix>
</trkpt>
<trkpt lat="-27.274439" lon="151.290064">
  <ele>343.22</ele>
  <time>2026-09-01T19:52:07Z</time>
  <course>10.8</course>
  <speed>0.0</speed>
  <fix>3d</fix>
</trkpt>
<trkpt lat="-27.274439" lon="151.290064">
  <ele>343.1</ele>
  <time>2026-09-01T19:52:07Z</time>
  <course>270.0</course>
  <speed>0.0</speed>
  <fix>3d</fix>
</trkpt>
<trkpt lat="-27.274439" lon="151.290064">
  <ele>343.12</ele>
  <time>2026-09-01T19:52:07Z</time>
  <course>10.8</course>
  <speed>0.0</speed>
  <fix>3d</fix>
</trkpt>
<trkpt lat="-27.274439" lon="151.290064">
  <ele>343.1</ele>
  <time>2026-09-01T19:52:07Z</time>
  <course>270.0</course>
  <speed>0.0</speed>
  <fix>3d</fix>
</trkpt>
<trkpt lat="-27.274439" lon="151.290064">
  <ele>342.88</ele>
  <time>2026-09-01T19:52:07Z</time>
  <course>10.8</course>
  <speed>0.0</speed>
  <fix>3d</fix>
</trkpt>
<trkpt lat="-27.274439" lon="151.290064">
  <ele>343.1</ele>
  <time>2026-09-01T19:52:07Z</time>
  <course>270.0</course>
  <speed>0.0</speed>
  <fix>3d</fix>
</trkpt>
<trkpt lat="-27.274439" lon="151.290064">
  <ele>342.97</ele>
  <time>2026-09-01T19:52:07Z</time>
  <course>10.8</course>
  <speed>0.0</speed>
  <fix>3d</fix>
</trkpt>
<trkpt lat="-27.274439" lon="151.290064">
  <ele>343.1</ele>
  <time>2026-09-01T19:52:07Z</time>
  <course>270.0</course>
  <speed>0.0</speed>
  <fix>3d</fix>
</trkpt>
<trkpt lat="-27.274439" lon="151.290064">
  <ele>342.92</ele>
  <time>2026-09-01T19:52:07Z</time>
  <course>10.8</course>
  <speed>0.0</speed>
  <fix>3d</fix>
</trkpt>
<trkpt lat="-27.274439" lon="151.290064">
  <ele>343.1</ele>
  <time>2026-09-01T19:52:07Z</time>
  <course>270.0</course>
  <speed>0.0</speed>
  <fix>3d</fix>
</trkpt>
<trkpt lat="-27.274439" lon="151.290064">
  <ele>342.74</ele>
  <time>2026-09-01T19:52:07Z</time>
  <course>10.8</course>
  <speed>0.0</speed>
  <fix>3d</fix>
</trkpt>
<trkpt lat="-27.274439" lon="151.290064">
  <ele>343.1</ele>
  <time>2026-09-01T19:52:07Z</time>
  <course>270.0</course>
  <speed>0.0</speed>
  <fix>3d</fix>
</trkpt>
<trkpt lat="-27.274439" lon="151.290064">
  <ele>342.8</ele>
  <time>2026-09-01T19:52:07Z</time>
  <course>10.8</course>
  <speed>0.0</speed>
  <fix>3d</fix>
</trkpt>
<trkpt lat="-27.274439" lon="151.290064">
  <ele>343.1</ele>
  <time>2026-09-01T19:52:07Z</time>
  <course>270.0</course>
  <speed>0.0</speed>
  <fix>3d</fix>
</trkpt>
<trkpt lat="-27.274439" lon="151.290064">
  <ele>342.83</ele>
  <time>2026-09-01T19:52:07Z</time>
  <course>10.8</course>
  <speed>0.0</speed>
  <fix>3d</fix>
</trkpt>
<trkpt lat="-27.274439" lon="151.290064">
  <ele>343.1</ele>
  <time>2026-09-01T19:52:07Z</time>
  <course>270.0</course>
  <speed>0.0</speed>
  <fix>3d</fix>
</trkpt>
<trkpt lat="-27.274439" lon="151.290064">
  <ele>343.03</ele>
  <time>2026-09-01T19:52:07Z</time>
  <course>10.8</course>
  <speed>0.0</speed>
  <fix>3d</fix>
</trkpt>
<trkpt lat="-27.274439" lon="151.290064">
  <ele>343.1</ele>
  <time>2026-09-01T19:52:07Z</time>
  <course>270.0</course>
  <speed>0.0</speed>
  <fix>3d</fix>
</trkpt>
<trkpt lat="-27.274439" lon="151.290064">
  <ele>343.04</ele>
  <time>2026-09-01T19:52:07Z</time>
  <course>10.8</course>
  <speed>0.0</speed>
  <fix>3d</fix>
</trkpt>
<trkpt lat="-27.274439" lon="151.290064">
  <ele>343.1</ele>
  <time>2026-09-01T19:52:07Z</time>
  <course>270.0</course>
  <speed>0.0</speed>
  <fix>3d</fix>
</trkpt>
<trkpt lat="-27.274439" lon="151.290064">
  <ele>343.07</ele>
  <time>2026-09-01T19:52:07Z</time>
  <course>10.81</course>
  <speed>0.0</speed>
  <fix>3d</fix>
</trkpt>
<trkpt lat="-27.274439" lon="151.290064">
  <ele>343.1</ele>
  <time>2026-09-01T19:52:07Z</time>
  <course>270.0</course>
  <speed>0.0</speed>
  <fix>3d</fix>
</trkpt>
<trkpt lat="-27.274439" lon="151.290064">
  <ele>343.01</ele>
  <time>2026-09-01T19:52:07Z</time>
  <course>10.82</course>
  <speed>0.0</speed>
  <fix>3d</fix>
</trkpt>
<trkpt lat="-27.274439" lon="151.290064">
  <ele>343.1</ele>
  <time>2026-09-01T19:52:07Z</time>
  <course>270.0</course>
  <speed>0.0</speed>
  <fix>3d</fix>
</trkpt>
<trkpt lat="-27.274439" lon="151.290064">
  <ele>342.88</ele>
  <time>2026-09-01T19:52:07Z</time>
  <course>10.83</course>
  <speed>0.0</speed>
  <fix>3d</fix>
</trkpt>
<trkpt lat="-27.274439" lon="151.290064">
  <ele>343.1</ele>
  <time>2026-09-01T19:52:07Z</time>
  <course>270.0</course>
  <speed>0.0</speed>
  <fix>3d</fix>
</trkpt>
<trkpt lat="-27.274439" lon="151.290064">
  <ele>343.12</ele>
  <time>2026-09-01T19:52:07Z</time>
  <course>10.84</course>
  <speed>0.0</speed>
  <fix>3d</fix>
</trkpt>
<trkpt lat="-27.274439" lon="151.290064">
  <ele>343.1</ele>
  <time>2026-09-01T19:52:07Z</time>
  <course>270.0</course>
  <speed>0.0</speed>
  <fix>3d</fix>
</trkpt>
<trkpt lat="-27.274439" lon="151.290064">
  <ele>342.88</ele>
  <time>2026-09-01T19:52:07Z</time>
  <course>10.85</course>
  <speed>0.0</speed>
  <fix>3d</fix>
</trkpt>
<trkpt lat="-27.274439" lon="151.290064">
  <ele>343.1</ele>
  <time>2026-09-01T19:52:07Z</time>
  <course>270.0</course>
  <speed>0.0</speed>
  <fix>3d</fix>
</trkpt>
<trkpt lat="-27.274439" lon="151.290064">
  <ele>343.02</ele>
  <time>2026-09-01T19:52:07Z</time>
  <course>10.85</course>
  <speed>0.0</speed>
  <fix>3d</fix>
</trkpt>
<trkpt lat="-27.274439" lon="151.290064">
  <ele>343.1</ele>
  <time>2026-09-01T19:52:07Z</time>
  <course>270.0</course>
  <speed>0.0</speed>
  <fix>3d</fix>
</trkpt>
<trkpt lat="-27.274439" lon="151.290064">
  <ele>342.83</ele>
  <time>2026-09-01T19:52:07Z</time>
  <course>10.86</course>
  <speed>0.0</speed>
  <fix>3d</fix>
</trkpt>
<trkpt lat="-27.274439" lon="151.290064">
  <ele>343.1</ele>
  <time>2026-09-01T19:52:07Z</time>
  <course>270.0</course>
  <speed>0.0</speed>
  <fix>3d</fix>
</trkpt>
<trkpt lat="-27.274439" lon="151.290064">
  <ele>342.9</ele>
  <time>2026-09-01T19:52:07Z</time>
  <course>10.87</course>
  <speed>0.0</speed>
  <fix>3d</fix>
</trkpt>
<trkpt lat="-27.274439" lon="151.290064">
  <ele>343.1</ele>
  <time>2026-09-01T19:52:07Z</time>
  <course>270.0</course>
  <speed>0.0</speed>
  <fix>3d</fix>
</trkpt>
<trkpt lat="-27.274439" lon="151.290064">
  <ele>343.04</ele>
  <time>2026-09-01T19:52:07Z</time>
  <course>10.88</course>
  <speed>0.0</speed>
  <fix>3d</fix>
</trkpt>
<trkpt lat="-27.274439" lon="151.290064">
  <ele>343.1</ele>
  <time>2026-09-01T19:52:07Z</time>
  <course>270.0</course>
  <speed>0.0</speed>
  <fix>3d</fix>
</trkpt>
<trkpt lat="-27.274439" lon="151.290064">
  <ele>343.09</ele>
  <time>2026-09-01T19:52:07Z</time>
  <course>10.89</course>
  <speed>0.0</speed>
  <fix>3d</fix>
</trkpt>
<trkpt lat="-27.274439" lon="151.290064">
  <ele>343.1</ele>
  <time>2026-09-01T19:52:07Z</time>
  <course>270.0</course>
  <speed>0.0</speed>
  <fix>3d</fix>
</trkpt>
<trkpt lat="-27.274439" lon="151.290064">
  <ele>342.75</ele>
  <time>2026-09-01T19:52:07Z</time>
  <course>10.89</course>
  <speed>0.0</speed>
  <fix>3d</fix>
</trkpt>
<trkpt lat="-27.274439" lon="151.290064">
  <ele>343.1</ele>
  <time>2026-09-01T19:52:07Z</time>
  <course>270.0</course>
  <speed>0.0</speed>
  <fix>3d</fix>
</trkpt>
<trkpt lat="-27.274439" lon="151.290064">
  <ele>342.95</ele>
  <time>2026-09-01T19:52:08Z</time>
  <course>10.9</course>
  <speed>0.0</speed>
  <fix>3d</fix>
</trkpt>
<trkpt lat="-27.274439" lon="151.290064">
  <ele>343.1</ele>
  <time>2026-09-01T19:52:08Z</time>
  <course>270.0</course>
  <speed>0.0</speed>
  <fix>3d</fix>
</trkpt>
<trkpt lat="-27.274439" lon="151.290064">
  <ele>342.83</ele>
  <time>2026-09-01T19:52:08Z</time>
  <course>10.91</course>
  <speed>0.0</speed>
  <fix>3d</fix>
</trkpt>
<trkpt lat="-27.274439" lon="151.290064">
  <ele>343.1</ele>
  <time>2026-09-01T19:52:08Z</time>
  <course>270.0</course>
  <speed>0.0</speed>
  <fix>3d</fix>
</trkpt>
<trkpt lat="-27.274439" lon="151.290064">
  <ele>343.05</ele>
  <time>2026-09-01T19:52:08Z</time>
  <course>10.92</course>
  <speed>0.0</speed>
  <fix>3d</fix>
</trkpt>
<trkpt lat="-27.274439" lon="151.290064">
  <ele>343.1</ele>
  <time>2026-09-01T19:52:08Z</time>
  <course>270.0</course>
  <speed>0.0</speed>
  <fix>3d</fix>
</trkpt>
<trkpt lat="-27.274439" lon="151.290064">
  <ele>342.88</ele>
  <time>2026-09-01T19:52:08Z</time>
  <course>10.92</course>
  <speed>0.0</speed>
  <fix>3d</fix>
</trkpt>
<trkpt lat="-27.274439" lon="151.290064">
  <ele>343.1</ele>
  <time>2026-09-01T19:52:08Z</time>
  <course>270.0</course>
  <speed>0.0</speed>
  <fix>3d</fix>
</trkpt>
<trkpt lat="-27.274439" lon="151.290064">
  <ele>343.12</ele>
  <time>2026-09-01T19:52:08Z</time>
  <course>10.93</course>
  <speed>0.0</speed>
  <fix>3d</fix>
</trkpt>
<trkpt lat="-27.274439" lon="151.290064">
  <ele>343.1</ele>
  <time>2026-09-01T19:52:08Z</time>
  <course>270.0</course>
  <speed>0.0</speed>
  <fix>3d</fix>
</trkpt>
<trkpt lat="-27.274439" lon="151.290064">
  <ele>342.95</ele>
  <time>2026-09-01T19:52:08Z</time>
  <course>10.94</course>
  <speed>0.0</speed>
  <fix>3d</fix>
</trkpt>
<trkpt lat="-27.274439" lon="151.290064">
  <ele>343.1</ele>
  <time>2026-09-01T19:52:08Z</time>
  <course>270.0</course>
  <speed>0.0</speed>
  <fix>3d</fix>
</trkpt>
<trkpt lat="-27.274439" lon="151.290064">
  <ele>343.19</ele>
  <time>2026-09-01T19:52:08Z</time>
  <course>10.95</course>
  <speed>0.0</speed>
  <fix>3d</fix>
</trkpt>
<trkpt lat="-27.274439" lon="151.290064">
  <ele>343.1</ele>
  <time>2026-09-01T19:52:08Z</time>
  <course>270.0</course>
  <speed>0.0</speed>
  <fix>3d</fix>
</trkpt>
<trkpt lat="-27.274439" lon="151.290064">
  <ele>343.02</ele>
  <time>2026-09-01T19:52:08Z</time>
  <course>10.95</course>
  <speed>0.0</speed>
  <fix>3d</fix>
</trkpt>
<trkpt lat="-27.274439" lon="151.290064">
  <ele>343.1</ele>
  <time>2026-09-01T19:52:08Z</time>
  <course>270.0</course>
  <speed>0.0</speed>
  <fix>3d</fix>
</trkpt>
<trkpt lat="-27.274439" lon="151.290064">
  <ele>343.25</ele>
  <time>2026-09-01T19:52:08Z</time>
  <course>10.96</course>
  <speed>0.0</speed>
  <fix>3d</fix>
</trkpt>
<trkpt lat="-27.274439" lon="151.290064">
  <ele>343.1</ele>
  <time>2026-09-01T19:52:08Z</time>
  <course>270.0</course>
  <speed>0.0</speed>
  <fix>3d</fix>
</trkpt>
<trkpt lat="-27.274439" lon="151.290064">
  <ele>342.94</ele>
  <time>2026-09-01T19:52:08Z</time>
  <course>10.97</course>
  <speed>0.0</speed>
  <fix>3d</fix>
</trkpt>
<trkpt lat="-27.274439" lon="151.290064">
  <ele>343.1</ele>
  <time>2026-09-01T19:52:08Z</time>
  <course>270.0</course>
  <speed>0.0</speed>
  <fix>3d</fix>
</trkpt>
<trkpt lat="-27.274439" lon="151.290064">
  <ele>343.12</ele>
  <time>2026-09-01T19:52:08Z</time>
  <course>10.97</course>
  <speed>0.0</speed>
  <fix>3d</fix>
</trkpt>
<trkpt lat="-27.274439" lon="151.290064">
  <ele>343.1</ele>
  <time>2026-09-01T19:52:08Z</time>
  <course>270.0</course>
  <speed>0.0</speed>
  <fix>3d</fix>
</trkpt>
<trkpt lat="-27.274439" lon="151.290064">
  <ele>343.01</ele>
  <time>2026-09-01T19:52:08Z</time>
  <course>10.98</course>
  <speed>0.0</speed>
  <fix>3d</fix>
</trkpt>
<trkpt lat="-27.274439" lon="151.290064">
  <ele>343.1</ele>
  <time>2026-09-01T19:52:08Z</time>
  <course>270.0</course>
  <speed>0.0</speed>
  <fix>3d</fix>
</trkpt>
<trkpt lat="-27.274439" lon="151.290064">
  <ele>343.13</ele>
  <time>2026-09-01T19:52:08Z</time>
  <course>10.98</course>
  <speed>0.0</speed>
  <fix>3d</fix>
</trkpt>
<trkpt lat="-27.274439" lon="151.290064">
  <ele>343.1</ele>
  <time>2026-09-01T19:52:08Z</time>
  <course>270.0</course>
  <speed>0.0</speed>
  <fix>3d</fix>
</trkpt>
<trkpt lat="-27.274439" lon="151.290064">
  <ele>343.18</ele>
  <time>2026-09-01T19:52:08Z</time>
  <course>10.99</course>
  <speed>0.0</speed>
  <fix>3d</fix>
</trkpt>
<trkpt lat="-27.274439" lon="151.290064">
  <ele>343.1</ele>
  <time>2026-09-01T19:52:08Z</time>
  <course>270.0</course>
  <speed>0.0</speed>
  <fix>3d</fix>
</trkpt>
<trkpt lat="-27.274439" lon="151.290064">
  <ele>342.97</ele>
  <time>2026-09-01T19:52:08Z</time>
  <course>11.0</course>
  <speed>0.0</speed>
  <fix>3d</fix>
</trkpt>
<trkpt lat="-27.274439" lon="151.290064">
  <ele>343.1</ele>
  <time>2026-09-01T19:52:08Z</time>
  <course>270.0</course>
  <speed>0.0</speed>
  <fix>3d</fix>
</trkpt>
<trkpt lat="-27.274439" lon="151.290064">
  <ele>343.14</ele>
  <time>2026-09-01T19:52:08Z</time>
  <course>11.0</course>
  <speed>0.0</speed>
  <fix>3d</fix>
</trkpt>
<trkpt lat="-27.274439" lon="151.290064">
  <ele>343.1</ele>
  <time>2026-09-01T19:52:08Z</time>
  <course>270.0</course>
  <speed>0.0</speed>
  <fix>3d</fix>
</trkpt>
<trkpt lat="-27.274439" lon="151.290064">
  <ele>342.96</ele>
  <time>2026-09-01T19:52:08Z</time>
  <course>11.01</course>
  <speed>0.0</speed>
  <fix>3d</fix>
</trkpt>
<trkpt lat="-27.274439" lon="151.290064">
  <ele>343.1</ele>
  <time>2026-09-01T19:52:08Z</time>
  <course>270.0</course>
  <speed>0.0</speed>
  <fix>3d</fix>
</trkpt>
<trkpt lat="-27.274439" lon="151.290064">
  <ele>343.3</ele>
  <time>2026-09-01T19:52:08Z</time>
  <course>11.01</course>
  <speed>0.0</speed>
  <fix>3d</fix>
</trkpt>
<trkpt lat="-27.274439" lon="151.290064">
  <ele>343.1</ele>
  <time>2026-09-01T19:52:08Z</time>
  <course>270.0</course>
  <speed>0.0</speed>
  <fix>3d</fix>
</trkpt>
<trkpt lat="-27.274439" lon="151.290064">
  <ele>343.22</ele>
  <time>2026-09-01T19:52:08Z</time>
  <course>11.02</course>
  <speed>0.0</speed>
  <fix>3d</fix>
</trkpt>
<trkpt lat="-27.274439" lon="151.290064">
  <ele>343.1</ele>
  <time>2026-09-01T19:52:08Z</time>
  <course>270.0</course>
  <speed>0.0</speed>
  <fix>3d</fix>
</trkpt>
<trkpt lat="-27.274439" lon="151.290064">
  <ele>343.08</ele>
  <time>2026-09-01T19:52:08Z</time>
  <course>11.02</course>
  <speed>0.0</speed>
  <fix>3d</fix>
</trkpt>
<trkpt lat="-27.274439" lon="151.290064">
  <ele>343.1</ele>
  <time>2026-09-01T19:52:08Z</time>
  <course>270.0</course>
  <speed>0.0</speed>
  <fix>3d</fix>
</trkpt>
<trkpt lat="-27.274439" lon="151.290064">
  <ele>343.23</ele>
  <time>2026-09-01T19:52:08Z</time>
  <course>11.03</course>
  <speed>0.0</speed>
  <fix>3d</fix>
</trkpt>
<trkpt lat="-27.274439" lon="151.290064">
  <ele>343.1</ele>
  <time>2026-09-01T19:52:08Z</time>
  <course>270.0</course>
  <speed>0.0</speed>
  <fix>3d</fix>
</trkpt>
<trkpt lat="-27.274439" lon="151.290064">
  <ele>343.33</ele>
  <time>2026-09-01T19:52:08Z</time>
  <course>11.04</course>
  <speed>0.0</speed>
  <fix>3d</fix>
</trkpt>
<trkpt lat="-27.274439" lon="151.290064">
  <ele>343.1</ele>
  <time>2026-09-01T19:52:08Z</time>
  <course>270.0</course>
  <speed>0.0</speed>
  <fix>3d</fix>
</trkpt>
<trkpt lat="-27.274439" lon="151.290064">
  <ele>343.05</ele>
  <time>2026-09-01T19:52:08Z</time>
  <course>11.04</course>
  <speed>0.0</speed>
  <fix>3d</fix>
</trkpt>
<trkpt lat="-27.274439" lon="151.290064">
  <ele>343.1</ele>
  <time>2026-09-01T19:52:08Z</time>
  <course>270.0</course>
  <speed>0.0</speed>
  <fix>3d</fix>
</trkpt>
<trkpt lat="-27.274439" lon="151.290064">
  <ele>343.16</ele>
  <time>2026-09-01T19:52:08Z</time>
  <course>11.05</course>
  <speed>0.0</speed>
  <fix>3d</fix>
</trkpt>
<trkpt lat="-27.274439" lon="151.290064">
  <ele>343.1</ele>
  <time>2026-09-01T19:52:08Z</time>
  <course>270.0</course>
  <speed>0.0</speed>
  <fix>3d</fix>
</trkpt>
<trkpt lat="-27.274439" lon="151.290064">
  <ele>343.16</ele>
  <time>2026-09-01T19:52:08Z</time>
  <course>11.05</course>
  <speed>0.0</speed>
  <fix>3d</fix>
</trkpt>
<trkpt lat="-27.274439" lon="151.290064">
  <ele>343.1</ele>
  <time>2026-09-01T19:52:08Z</time>
  <course>270.0</course>
  <speed>0.0</speed>
  <fix>3d</fix>
</trkpt>
<trkpt lat="-27.274439" lon="151.290064">
  <ele>343.08</ele>
  <time>2026-09-01T19:52:08Z</time>
  <course>11.06</course>
  <speed>0.0</speed>
  <fix>3d</fix>
</trkpt>
<trkpt lat="-27.274439" lon="151.290064">
  <ele>343.1</ele>
  <time>2026-09-01T19:52:08Z</time>
  <course>270.0</course>
  <speed>0.0</speed>
  <fix>3d</fix>
</trkpt>
<trkpt lat="-27.274439" lon="151.290064">
  <ele>343.17</ele>
  <time>2026-09-01T19:52:08Z</time>
  <course>11.06</course>
  <speed>0.0</speed>
  <fix>3d</fix>
</trkpt>
<trkpt lat="-27.274439" lon="151.290064">
  <ele>343.1</ele>
  <time>2026-09-01T19:52:08Z</time>
  <course>270.0</course>
  <speed>0.0</speed>
  <fix>3d</fix>
</trkpt>
<trkpt lat="-27.274439" lon="151.290064">
  <ele>343.22</ele>
  <time>2026-09-01T19:52:08Z</time>
  <course>11.07</course>
  <speed>0.0</speed>
  <fix>3d</fix>
</trkpt>
<trkpt lat="-27.274439" lon="151.290064">
  <ele>343.1</ele>
  <time>2026-09-01T19:52:08Z</time>
  <course>270.0</course>
  <speed>0.0</speed>
  <fix>3d</fix>
</trkpt>
<trkpt lat="-27.274439" lon="151.290064">
  <ele>343.01</ele>
  <time>2026-09-01T19:52:08Z</time>
  <course>11.07</course>
  <speed>0.0</speed>
  <fix>3d</fix>
</trkpt>
<trkpt lat="-27.274439" lon="151.290064">
  <ele>343.1</ele>
  <time>2026-09-01T19:52:08Z</time>
  <course>270.0</course>
  <speed>0.0</speed>
  <fix>3d</fix>
</trkpt>
<trkpt lat="-27.274439" lon="151.290064">
  <ele>343.26</ele>
  <time>2026-09-01T19:52:08Z</time>
  <course>11.08</course>
  <speed>0.0</speed>
  <fix>3d</fix>
</trkpt>
<trkpt lat="-27.274439" lon="151.290064">
  <ele>343.1</ele>
  <time>2026-09-01T19:52:08Z</time>
  <course>270.0</course>
  <speed>0.0</speed>
  <fix>3d</fix>
</trkpt>
<trkpt lat="-27.274439" lon="151.290064">
  <ele>343.28</ele>
  <time>2026-09-01T19:52:08Z</time>
  <course>11.08</course>
  <speed>0.0</speed>
  <fix>3d</fix>
</trkpt>
<trkpt lat="-27.274439" lon="151.290064">
  <ele>343.1</ele>
  <time>2026-09-01T19:52:08Z</time>
  <course>270.0</course>
  <speed>0.0</speed>
  <fix>3d</fix>
</trkpt>
<trkpt lat="-27.274439" lon="151.290064">
  <ele>343.34</ele>
  <time>2026-09-01T19:52:08Z</time>
  <course>11.09</course>
  <speed>0.0</speed>
  <fix>3d</fix>
</trkpt>
<trkpt lat="-27.274439" lon="151.290064">
  <ele>343.1</ele>
  <time>2026-09-01T19:52:08Z</time>
  <course>270.0</course>
  <speed>0.0</speed>
  <fix>3d</fix>
</trkpt>
<trkpt lat="-27.274439" lon="151.290064">
  <ele>343.1</ele>
  <time>2026-09-01T19:52:08Z</time>
  <course>11.09</course>
  <speed>0.0</speed>
  <fix>3d</fix>
</trkpt>
<trkpt lat="-27.274439" lon="151.290064">
  <ele>343.1</ele>
  <time>2026-09-01T19:52:08Z</time>
  <course>270.0</course>
  <speed>0.0</speed>
  <fix>3d</fix>
</trkpt>
<trkpt lat="-27.274439" lon="151.290064">
  <ele>342.96</ele>
  <time>2026-09-01T19:52:08Z</time>
  <course>11.1</course>
  <speed>0.0</speed>
  <fix>3d</fix>
</trkpt>
<trkpt lat="-27.274439" lon="151.290064">
  <ele>343.1</ele>
  <time>2026-09-01T19:52:08Z</time>
  <course>270.0</course>
  <speed>0.0</speed>
  <fix>3d</fix>
</trkpt>
<trkpt lat="-27.274439" lon="151.290064">
  <ele>343.03</ele>
  <time>2026-09-01T19:52:08Z</time>
  <course>11.1</course>
  <speed>0.0</speed>
  <fix>3d</fix>
</trkpt>
<trkpt lat="-27.274439" lon="151.290064">
  <ele>343.1</ele>
  <time>2026-09-01T19:52:08Z</time>
  <course>270.0</course>
  <speed>0.0</speed>
  <fix>3d</fix>
</trkpt>
<trkpt lat="-27.274439" lon="151.290064">
  <ele>343.23</ele>
  <time>2026-09-01T19:52:08Z</time>
  <course>11.1</course>
  <speed>0.0</speed>
  <fix>3d</fix>
</trkpt>
<trkpt lat="-27.274439" lon="151.290064">
  <ele>343.1</ele>
  <time>2026-09-01T19:52:08Z</time>
  <course>270.0</course>
  <speed>0.0</speed>
  <fix>3d</fix>
</trkpt>
<trkpt lat="-27.274439" lon="151.290064">
  <ele>343.14</ele>
  <time>2026-09-01T19:52:08Z</time>
  <course>11.11</course>
  <speed>0.0</speed>
  <fix>3d</fix>
</trkpt>
<trkpt lat="-27.274439" lon="151.290064">
  <ele>343.1</ele>
  <time>2026-09-01T19:52:08Z</time>
  <course>270.0</course>
  <speed>0.0</speed>
  <fix>3d</fix>
</trkpt>
<trkpt lat="-27.274439" lon="151.290064">
  <ele>343.13</ele>
  <time>2026-09-01T19:52:08Z</time>
  <course>11.11</course>
  <speed>0.0</speed>
  <fix>3d</fix>
</trkpt>
<trkpt lat="-27.274439" lon="151.290064">
  <ele>343.1</ele>
  <time>2026-09-01T19:52:08Z</time>
  <course>270.0</course>
  <speed>0.0</speed>
  <fix>3d</fix>
</trkpt>
<trkpt lat="-27.274439" lon="151.290064">
  <ele>343.03</ele>
  <time>2026-09-01T19:52:08Z</time>
  <course>11.12</course>
  <speed>0.0</speed>
  <fix>3d</fix>
</trkpt>
<trkpt lat="-27.274439" lon="151.290064">
  <ele>343.1</ele>
  <time>2026-09-01T19:52:08Z</time>
  <course>270.0</course>
  <speed>0.0</speed>
  <fix>3d</fix>
</trkpt>
<trkpt lat="-27.274439" lon="151.290064">
  <ele>343.15</ele>
  <time>2026-09-01T19:52:08Z</time>
  <course>11.12</course>
  <speed>0.0</speed>
  <fix>3d</fix>
</trkpt>
<trkpt lat="-27.274439" lon="151.290064">
  <ele>343.1</ele>
  <time>2026-09-01T19:52:08Z</time>
  <course>270.0</course>
  <speed>0.0</speed>
  <fix>3d</fix>
</trkpt>
<trkpt lat="-27.274439" lon="151.290064">
  <ele>343.14</ele>
  <time>2026-09-01T19:52:08Z</time>
  <course>11.13</course>
  <speed>0.0</speed>
  <fix>3d</fix>
</trkpt>
<trkpt lat="-27.274439" lon="151.290064">
  <ele>343.1</ele>
  <time>2026-09-01T19:52:08Z</time>
  <course>270.0</course>
  <speed>0.0</speed>
  <fix>3d</fix>
</trkpt>
<trkpt lat="-27.274439" lon="151.290064">
  <ele>343.17</ele>
  <time>2026-09-01T19:52:08Z</time>
  <course>11.13</course>
  <speed>0.0</speed>
  <fix>3d</fix>
</trkpt>
<trkpt lat="-27.274439" lon="151.290064">
  <ele>343.1</ele>
  <time>2026-09-01T19:52:08Z</time>
  <course>270.0</course>
  <speed>0.0</speed>
  <fix>3d</fix>
</trkpt>
<trkpt lat="-27.274439" lon="151.290064">
  <ele>342.95</ele>
  <time>2026-09-01T19:52:08Z</time>
  <course>11.14</course>
  <speed>0.0</speed>
  <fix>3d</fix>
</trkpt>
<trkpt lat="-27.274439" lon="151.290064">
  <ele>343.1</ele>
  <time>2026-09-01T19:52:08Z</time>
  <course>270.0</course>
  <speed>0.0</speed>
  <fix>3d</fix>
</trkpt>
<trkpt lat="-27.274439" lon="151.290064">
  <ele>343.06</ele>
  <time>2026-09-01T19:52:08Z</time>
  <course>11.14</course>
  <speed>0.0</speed>
  <fix>3d</fix>
</trkpt>
<trkpt lat="-27.274439" lon="151.290064">
  <ele>343.1</ele>
  <time>2026-09-01T19:52:08Z</time>
  <course>270.0</course>
  <speed>0.0</speed>
  <fix>3d</fix>
</trkpt>
<trkpt lat="-27.274439" lon="151.290064">
  <ele>343.11</ele>
  <time>2026-09-01T19:52:08Z</time>
  <course>11.14</course>
  <speed>0.0</speed>
  <fix>3d</fix>
</trkpt>
<trkpt lat="-27.274439" lon="151.290064">
  <ele>343.1</ele>
  <time>2026-09-01T19:52:08Z</time>
  <course>270.0</course>
  <speed>0.0</speed>
  <fix>3d</fix>
</trkpt>
<trkpt lat="-27.274439" lon="151.290064">
  <ele>343.3</ele>
  <time>2026-09-01T19:52:08Z</time>
  <course>11.15</course>
  <speed>0.0</speed>
  <fix>3d</fix>
</trkpt>
<trkpt lat="-27.274439" lon="151.290064">
  <ele>343.1</ele>
  <time>2026-09-01T19:52:08Z</time>
  <course>270.0</course>
  <speed>0.0</speed>
  <fix>3d</fix>
</trkpt>
<trkpt lat="-27.274439" lon="151.290064">
  <ele>343.03</ele>
  <time>2026-09-01T19:52:08Z</time>
  <course>11.15</course>
  <speed>0.0</speed>
  <fix>3d</fix>
</trkpt>
<trkpt lat="-27.274439" lon="151.290064">
  <ele>343.1</ele>
  <time>2026-09-01T19:52:08Z</time>
  <course>270.0</course>
  <speed>0.0</speed>
  <fix>3d</fix>
</trkpt>
<trkpt lat="-27.274439" lon="151.290064">
  <ele>343.13</ele>
  <time>2026-09-01T19:52:08Z</time>
  <course>11.16</course>
  <speed>0.0</speed>
  <fix>3d</fix>
</trkpt>
<trkpt lat="-27.274439" lon="151.290064">
  <ele>343.1</ele>
  <time>2026-09-01T19:52:08Z</time>
  <course>270.0</course>
  <speed>0.0</speed>
  <fix>3d</fix>
</trkpt>
<trkpt lat="-27.274439" lon="151.290064">
  <ele>343.02</ele>
  <time>2026-09-01T19:52:08Z</time>
  <course>11.16</course>
  <speed>0.0</speed>
  <fix>3d</fix>
</trkpt>
<trkpt lat="-27.274439" lon="151.290064">
  <ele>343.1</ele>
  <time>2026-09-01T19:52:08Z</time>
  <course>270.0</course>
  <speed>0.0</speed>
  <fix>3d</fix>
</trkpt>
<trkpt lat="-27.274439" lon="151.290064">
  <ele>343.17</ele>
  <time>2026-09-01T19:52:08Z</time>
  <course>11.16</course>
  <speed>0.0</speed>
  <fix>3d</fix>
</trkpt>
<trkpt lat="-27.274439" lon="151.290064">
  <ele>343.1</ele>
  <time>2026-09-01T19:52:08Z</time>
  <course>270.0</course>
  <speed>0.0</speed>
  <fix>3d</fix>
</trkpt>
<trkpt lat="-27.274439" lon="151.290064">
  <ele>343.26</ele>
  <time>2026-09-01T19:52:08Z</time>
  <course>11.17</course>
  <speed>0.0</speed>
  <fix>3d</fix>
</trkpt>
<trkpt lat="-27.274439" lon="151.290064">
  <ele>343.1</ele>
  <time>2026-09-01T19:52:08Z</time>
  <course>270.0</course>
  <speed>0.0</speed>
  <fix>3d</fix>
</trkpt>
<trkpt lat="-27.274439" lon="151.290064">
  <ele>343.29</ele>
  <time>2026-09-01T19:52:08Z</time>
  <course>11.17</course>
  <speed>0.0</speed>
  <fix>3d</fix>
</trkpt>
<trkpt lat="-27.274439" lon="151.290064">
  <ele>343.1</ele>
  <time>2026-09-01T19:52:08Z</time>
  <course>270.0</course>
  <speed>0.0</speed>
  <fix>3d</fix>
</trkpt>
<trkpt lat="-27.274439" lon="151.290064">
  <ele>343.13</ele>
  <time>2026-09-01T19:52:08Z</time>
  <course>11.17</course>
  <speed>0.0</speed>
  <fix>3d</fix>
</trkpt>
<trkpt lat="-27.274439" lon="151.290064">
  <ele>343.1</ele>
  <time>2026-09-01T19:52:08Z</time>
  <course>270.0</course>
  <speed>0.0</speed>
  <fix>3d</fix>
</trkpt>
<trkpt lat="-27.274439" lon="151.290064">
  <ele>343.1</ele>
  <time>2026-09-01T19:52:08Z</time>
  <course>11.18</course>
  <speed>0.0</speed>
  <fix>3d</fix>
</trkpt>
<trkpt lat="-27.274439" lon="151.290064">
  <ele>343.1</ele>
  <time>2026-09-01T19:52:08Z</time>
  <course>270.0</course>
  <speed>0.0</speed>
  <fix>3d</fix>
</trkpt>
<trkpt lat="-27.274439" lon="151.290064">
  <ele>343.2</ele>
  <time>2026-09-01T19:52:08Z</time>
  <course>11.18</course>
  <speed>0.0</speed>
  <fix>3d</fix>
</trkpt>
<trkpt lat="-27.274439" lon="151.290064">
  <ele>343.1</ele>
  <time>2026-09-01T19:52:08Z</time>
  <course>270.0</course>
  <speed>0.0</speed>
  <fix>3d</fix>
</trkpt>
<trkpt lat="-27.274439" lon="151.290064">
  <ele>343.09</ele>
  <time>2026-09-01T19:52:08Z</time>
  <course>11.19</course>
  <speed>0.0</speed>
  <fix>3d</fix>
</trkpt>
<trkpt lat="-27.274439" lon="151.290064">
  <ele>343.1</ele>
  <time>2026-09-01T19:52:08Z</time>
  <course>270.0</course>
  <speed>0.0</speed>
  <fix>3d</fix>
</trkpt>
<trkpt lat="-27.274439" lon="151.290064">
  <ele>343.11</ele>
  <time>2026-09-01T19:52:08Z</time>
  <course>11.19</course>
  <speed>0.0</speed>
  <fix>3d</fix>
</trkpt>
<trkpt lat="-27.274439" lon="151.290064">
  <ele>343.1</ele>
  <time>2026-09-01T19:52:08Z</time>
  <course>270.0</course>
  <speed>0.0</speed>
  <fix>3d</fix>
</trkpt>
<trkpt lat="-27.274439" lon="151.290064">
  <ele>343.21</ele>
  <time>2026-09-01T19:52:08Z</time>
  <course>11.19</course>
  <speed>0.0</speed>
  <fix>3d</fix>
</trkpt>
<trkpt lat="-27.274439" lon="151.290064">
  <ele>343.1</ele>
  <time>2026-09-01T19:52:08Z</time>
  <course>270.0</course>
  <speed>0.0</speed>
  <fix>3d</fix>
</trkpt>
<trkpt lat="-27.274439" lon="151.290064">
  <ele>343.22</ele>
  <time>2026-09-01T19:52:08Z</time>
  <course>11.2</course>
  <speed>0.0</speed>
  <fix>3d</fix>
</trkpt>
<trkpt lat="-27.274439" lon="151.290064">
  <ele>343.1</ele>
  <time>2026-09-01T19:52:08Z</time>
  <course>270.0</course>
  <speed>0.0</speed>
  <fix>3d</fix>
</trkpt>
<trkpt lat="-27.274439" lon="151.290064">
  <ele>342.98</ele>
  <time>2026-09-01T19:52:08Z</time>
  <course>11.2</course>
  <speed>0.0</speed>
  <fix>3d</fix>
</trkpt>
<trkpt lat="-27.274439" lon="151.290064">
  <ele>343.1</ele>
  <time>2026-09-01T19:52:08Z</time>
  <course>270.0</course>
  <speed>0.0</speed>
  <fix>3d</fix>
</trkpt>
<trkpt lat="-27.274439" lon="151.290064">
  <ele>343.15</ele>
  <time>2026-09-01T19:52:08Z</time>
  <course>11.2</course>
  <speed>0.0</speed>
  <fix>3d</fix>
</trkpt>
<trkpt lat="-27.274439" lon="151.290064">
  <ele>343.1</ele>
  <time>2026-09-01T19:52:08Z</time>
  <course>270.0</course>
  <speed>0.0</speed>
  <fix>3d</fix>
</trkpt>
<trkpt lat="-27.274439" lon="151.290064">
  <ele>343.28</ele>
  <time>2026-09-01T19:52:08Z</time>
  <course>11.2</course>
  <speed>0.0</speed>
  <fix>3d</fix>
</trkpt>
<trkpt lat="-27.274439" lon="151.290064">
  <ele>343.1</ele>
  <time>2026-09-01T19:52:08Z</time>
  <course>270.0</course>
  <speed>0.0</speed>
  <fix>3d</fix>
</trkpt>
<trkpt lat="-27.274439" lon="151.290064">
  <ele>343.3</ele>
  <time>2026-09-01T19:52:08Z</time>
  <course>11.2</course>
  <speed>0.0</speed>
  <fix>3d</fix>
</trkpt>
<trkpt lat="-27.274439" lon="151.290064">
  <ele>343.1</ele>
  <time>2026-09-01T19:52:08Z</time>
  <course>270.0</course>
  <speed>0.0</speed>
  <fix>3d</fix>
</trkpt>
<trkpt lat="-27.274439" lon="151.290064">
  <ele>343.33</ele>
  <time>2026-09-01T19:52:08Z</time>
  <course>11.21</course>
  <speed>0.0</speed>
  <fix>3d</fix>
</trkpt>
<trkpt lat="-27.274439" lon="151.290064">
  <ele>343.1</ele>
  <time>2026-09-01T19:52:08Z</time>
  <course>270.0</course>
  <speed>0.0</speed>
  <fix>3d</fix>
</trkpt>
<trkpt lat="-27.274439" lon="151.290064">
  <ele>342.96</ele>
  <time>2026-09-01T19:52:08Z</time>
  <course>11.21</course>
  <speed>0.0</speed>
  <fix>3d</fix>
</trkpt>
<trkpt lat="-27.274439" lon="151.290064">
  <ele>343.1</ele>
  <time>2026-09-01T19:52:08Z</time>
  <course>270.0</course>
  <speed>0.0</speed>
  <fix>3d</fix>
</trkpt>
<trkpt lat="-27.274439" lon="151.290064">
  <ele>342.97</ele>
  <time>2026-09-01T19:52:08Z</time>
  <course>11.21</course>
  <speed>0.0</speed>
  <fix>3d</fix>
</trkpt>
<trkpt lat="-27.274439" lon="151.290064">
  <ele>343.1</ele>
  <time>2026-09-01T19:52:08Z</time>
  <course>270.0</course>
  <speed>0.0</speed>
  <fix>3d</fix>
</trkpt>
<trkpt lat="-27.274439" lon="151.290064">
  <ele>342.83</ele>
  <time>2026-09-01T19:52:08Z</time>
  <course>11.21</course>
  <speed>0.0</speed>
  <fix>3d</fix>
</trkpt>
<trkpt lat="-27.274439" lon="151.290064">
  <ele>343.1</ele>
  <time>2026-09-01T19:52:08Z</time>
  <course>270.0</course>
  <speed>0.0</speed>
  <fix>3d</fix>
</trkpt>
<trkpt lat="-27.274439" lon="151.290064">
  <ele>342.84</ele>
  <time>2026-09-01T19:52:08Z</time>
  <course>11.21</course>
  <speed>0.0</speed>
  <fix>3d</fix>
</trkpt>
<trkpt lat="-27.274439" lon="151.290064">
  <ele>343.1</ele>
  <time>2026-09-01T19:52:08Z</time>
  <course>270.0</course>
  <speed>0.0</speed>
  <fix>3d</fix>
</trkpt>
<trkpt lat="-27.274439" lon="151.290064">
  <ele>342.75</ele>
  <time>2026-09-01T19:52:08Z</time>
  <course>11.21</course>
  <speed>0.0</speed>
  <fix>3d</fix>
</trkpt>
<trkpt lat="-27.274439" lon="151.290064">
  <ele>343.1</ele>
  <time>2026-09-01T19:52:08Z</time>
  <course>270.0</course>
  <speed>0.0</speed>
  <fix>3d</fix>
</trkpt>
<trkpt lat="-27.274439" lon="151.290064">
  <ele>343.03</ele>
  <time>2026-09-01T19:52:08Z</time>
  <course>11.21</course>
  <speed>0.0</speed>
  <fix>3d</fix>
</trkpt>
<trkpt lat="-27.274439" lon="151.290064">
  <ele>343.1</ele>
  <time>2026-09-01T19:52:08Z</time>
  <course>270.0</course>
  <speed>0.0</speed>
  <fix>3d</fix>
</trkpt>
<trkpt lat="-27.274439" lon="151.290064">
  <ele>342.8</ele>
  <time>2026-09-01T19:52:08Z</time>
  <course>11.21</course>
  <speed>0.0</speed>
  <fix>3d</fix>
</trkpt>
<trkpt lat="-27.274439" lon="151.290064">
  <ele>343.1</ele>
  <time>2026-09-01T19:52:08Z</time>
  <course>270.0</course>
  <speed>0.0</speed>
  <fix>3d</fix>
</trkpt>
<trkpt lat="-27.274439" lon="151.290064">
  <ele>343.05</ele>
  <time>2026-09-01T19:52:08Z</time>
  <course>11.21</course>
  <speed>0.0</speed>
  <fix>3d</fix>
</trkpt>
<trkpt lat="-27.274439" lon="151.290064">
  <ele>343.1</ele>
  <time>2026-09-01T19:52:08Z</time>
  <course>270.0</course>
  <speed>0.0</speed>
  <fix>3d</fix>
</trkpt>
<trkpt lat="-27.274439" lon="151.290064">
  <ele>343.03</ele>
  <time>2026-09-01T19:52:08Z</time>
  <course>11.22</course>
  <speed>0.0</speed>
  <fix>3d</fix>
</trkpt>
<trkpt lat="-27.274439" lon="151.290064">
  <ele>343.1</ele>
  <time>2026-09-01T19:52:08Z</time>
  <course>270.0</course>
  <speed>0.0</speed>
  <fix>3d</fix>
</trkpt>
<trkpt lat="-27.274439" lon="151.290064">
  <ele>342.88</ele>
  <time>2026-09-01T19:52:08Z</time>
  <course>11.22</course>
  <speed>0.0</speed>
  <fix>3d</fix>
</trkpt>
<trkpt lat="-27.274439" lon="151.290064">
  <ele>343.1</ele>
  <time>2026-09-01T19:52:08Z</time>
  <course>270.0</course>
  <speed>0.0</speed>
  <fix>3d</fix>
</trkpt>
<trkpt lat="-27.274439" lon="151.290064">
  <ele>342.83</ele>
  <time>2026-09-01T19:52:08Z</time>
  <course>11.22</course>
  <speed>0.0</speed>
  <fix>3d</fix>
</trkpt>
<trkpt lat="-27.274439" lon="151.290064">
  <ele>343.1</ele>
  <time>2026-09-01T19:52:08Z</time>
  <course>270.0</course>
  <speed>0.0</speed>
  <fix>3d</fix>
</trkpt>
<trkpt lat="-27.274439" lon="151.290064">
  <ele>342.87</ele>
  <time>2026-09-01T19:52:08Z</time>
  <course>11.22</course>
  <speed>0.0</speed>
  <fix>3d</fix>
</trkpt>
<trkpt lat="-27.274439" lon="151.290064">
  <ele>343.1</ele>
  <time>2026-09-01T19:52:08Z</time>
  <course>270.0</course>
  <speed>0.0</speed>
  <fix>3d</fix>
</trkpt>
<trkpt lat="-27.274439" lon="151.290064">
  <ele>342.78</ele>
  <time>2026-09-01T19:52:08Z</time>
  <course>11.22</course>
  <speed>0.0</speed>
  <fix>3d</fix>
</trkpt>
<trkpt lat="-27.274439" lon="151.290064">
  <ele>343.1</ele>
  <time>2026-09-01T19:52:08Z</time>
  <course>270.0</course>
  <speed>0.0</speed>
  <fix>3d</fix>
</trkpt>
<trkpt lat="-27.274439" lon="151.290064">
  <ele>342.8</ele>
  <time>2026-09-01T19:52:08Z</time>
  <course>11.22</course>
  <speed>0.0</speed>
  <fix>3d</fix>
</trkpt>
<trkpt lat="-27.274439" lon="151.290064">
  <ele>343.1</ele>
  <time>2026-09-01T19:52:08Z</time>
  <course>270.0</course>
  <speed>0.0</speed>
  <fix>3d</fix>
</trkpt>
<trkpt lat="-27.274439" lon="151.290064">
  <ele>342.9</ele>
  <time>2026-09-01T19:52:08Z</time>
  <course>11.22</course>
  <speed>0.0</speed>
  <fix>3d</fix>
</trkpt>
<trkpt lat="-27.274439" lon="151.290064">
  <ele>343.1</ele>
  <time>2026-09-01T19:52:08Z</time>
  <course>270.0</course>
  <speed>0.0</speed>
  <fix>3d</fix>
</trkpt>
<trkpt lat="-27.274439" lon="151.290064">
  <ele>342.82</ele>
  <time>2026-09-01T19:52:08Z</time>
  <course>11.22</course>
  <speed>0.0</speed>
  <fix>3d</fix>
</trkpt>
<trkpt lat="-27.274439" lon="151.290064">
  <ele>343.1</ele>
  <time>2026-09-01T19:52:08Z</time>
  <course>270.0</course>
  <speed>0.0</speed>
  <fix>3d</fix>
</trkpt>
<trkpt lat="-27.274439" lon="151.290064">
  <ele>342.8</ele>
  <time>2026-09-01T19:52:08Z</time>
  <course>11.22</course>
  <speed>0.0</speed>
  <fix>3d</fix>
</trkpt>
<trkpt lat="-27.274439" lon="151.290064">
  <ele>343.1</ele>
  <time>2026-09-01T19:52:08Z</time>
  <course>270.0</course>
  <speed>0.0</speed>
  <fix>3d</fix>
</trkpt>
<trkpt lat="-27.274439" lon="151.290064">
  <ele>342.8</ele>
  <time>2026-09-01T19:52:08Z</time>
  <course>11.22</course>
  <speed>0.0</speed>
  <fix>3d</fix>
</trkpt>
<trkpt lat="-27.274439" lon="151.290064">
  <ele>343.1</ele>
  <time>2026-09-01T19:52:08Z</time>
  <course>270.0</course>
  <speed>0.0</speed>
  <fix>3d</fix>
</trkpt>
<trkpt lat="-27.274439" lon="151.290064">
  <ele>342.83</ele>
  <time>2026-09-01T19:52:08Z</time>
  <course>11.22</course>
  <speed>0.0</speed>
  <fix>3d</fix>
</trkpt>
<trkpt lat="-27.274439" lon="151.290064">
  <ele>343.1</ele>
  <time>2026-09-01T19:52:08Z</time>
  <course>270.0</course>
  <speed>0.0</speed>
  <fix>3d</fix>
</trkpt>
<trkpt lat="-27.274439" lon="151.290064">
  <ele>343.04</ele>
  <time>2026-09-01T19:52:08Z</time>
  <course>11.22</course>
  <speed>0.0</speed>
  <fix>3d</fix>
</trkpt>
<trkpt lat="-27.274439" lon="151.290064">
  <ele>343.1</ele>
  <time>2026-09-01T19:52:08Z</time>
  <course>270.0</course>
  <speed>0.0</speed>
  <fix>3d</fix>
</trkpt>
<trkpt lat="-27.274439" lon="151.290064">
  <ele>342.99</ele>
  <time>2026-09-01T19:52:08Z</time>
  <course>11.23</course>
  <speed>0.0</speed>
  <fix>3d</fix>
</trkpt>
<trkpt lat="-27.274439" lon="151.290064">
  <ele>343.1</ele>
  <time>2026-09-01T19:52:08Z</time>
  <course>270.0</course>
  <speed>0.0</speed>
  <fix>3d</fix>
</trkpt>
<trkpt lat="-27.274439" lon="151.290064">
  <ele>342.99</ele>
  <time>2026-09-01T19:52:08Z</time>
  <course>11.23</course>
  <speed>0.0</speed>
  <fix>3d</fix>
</trkpt>
<trkpt lat="-27.274439" lon="151.290064">
  <ele>343.1</ele>
  <time>2026-09-01T19:52:08Z</time>
  <course>270.0</course>
  <speed>0.0</speed>
  <fix>3d</fix>
</trkpt>
<trkpt lat="-27.274439" lon="151.290064">
  <ele>342.95</ele>
  <time>2026-09-01T19:52:08Z</time>
  <course>11.23</course>
  <speed>0.0</speed>
  <fix>3d</fix>
</trkpt>
<trkpt lat="-27.274439" lon="151.290064">
  <ele>343.1</ele>
  <time>2026-09-01T19:52:08Z</time>
  <course>270.0</course>
  <speed>0.0</speed>
  <fix>3d</fix>
</trkpt>
<trkpt lat="-27.274439" lon="151.290064">
  <ele>343.0</ele>
  <time>2026-09-01T19:52:08Z</time>
  <course>11.23</course>
  <speed>0.0</speed>
  <fix>3d</fix>
</trkpt>
<trkpt lat="-27.274439" lon="151.290064">
  <ele>343.1</ele>
  <time>2026-09-01T19:52:08Z</time>
  <course>270.0</course>
  <speed>0.0</speed>
  <fix>3d</fix>
</trkpt>
<trkpt lat="-27.274439" lon="151.290064">
  <ele>343.01</ele>
  <time>2026-09-01T19:52:08Z</time>
  <course>11.23</course>
  <speed>0.0</speed>
  <fix>3d</fix>
</trkpt>
<trkpt lat="-27.274439" lon="151.290064">
  <ele>343.1</ele>
  <time>2026-09-01T19:52:08Z</time>
  <course>270.0</course>
  <speed>0.0</speed>
  <fix>3d</fix>
</trkpt>
<trkpt lat="-27.274439" lon="151.290064">
  <ele>342.8</ele>
  <time>2026-09-01T19:52:08Z</time>
  <course>11.23</course>
  <speed>0.0</speed>
  <fix>3d</fix>
</trkpt>
<trkpt lat="-27.274439" lon="151.290064">
  <ele>343.1</ele>
  <time>2026-09-01T19:52:08Z</time>
  <course>270.0</course>
  <speed>0.0</speed>
  <fix>3d</fix>
</trkpt>
<trkpt lat="-27.274439" lon="151.290064">
  <ele>342.93</ele>
  <time>2026-09-01T19:52:08Z</time>
  <course>11.23</course>
  <speed>0.0</speed>
  <fix>3d</fix>
</trkpt>
<trkpt lat="-27.274439" lon="151.290064">
  <ele>343.1</ele>
  <time>2026-09-01T19:52:08Z</time>
  <course>270.0</course>
  <speed>0.0</speed>
  <fix>3d</fix>
</trkpt>
<trkpt lat="-27.274439" lon="151.290064">
  <ele>342.7</ele>
  <time>2026-09-01T19:52:08Z</time>
  <course>11.23</course>
  <speed>0.0</speed>
  <fix>3d</fix>
</trkpt>
<trkpt lat="-27.274439" lon="151.290064">
  <ele>343.1</ele>
  <time>2026-09-01T19:52:08Z</time>
  <course>270.0</course>
  <speed>0.0</speed>
  <fix>3d</fix>
</trkpt>
<trkpt lat="-27.274439" lon="151.290064">
  <ele>342.98</ele>
  <time>2026-09-01T19:52:08Z</time>
  <course>11.23</course>
  <speed>0.0</speed>
  <fix>3d</fix>
</trkpt>
<trkpt lat="-27.274439" lon="151.290064">
  <ele>343.1</ele>
  <time>2026-09-01T19:52:08Z</time>
  <course>270.0</course>
  <speed>0.0</speed>
  <fix>3d</fix>
</trkpt>
<trkpt lat="-27.274439" lon="151.290064">
  <ele>342.89</ele>
  <time>2026-09-01T19:52:08Z</time>
  <course>11.23</course>
  <speed>0.0</speed>
  <fix>3d</fix>
</trkpt>
<trkpt lat="-27.274439" lon="151.290064">
  <ele>343.1</ele>
  <time>2026-09-01T19:52:08Z</time>
  <course>270.0</course>
  <speed>0.0</speed>
  <fix>3d</fix>
</trkpt>
<trkpt lat="-27.274439" lon="151.290064">
  <ele>342.96</ele>
  <time>2026-09-01T19:52:08Z</time>
  <course>11.23</course>
  <speed>0.0</speed>
  <fix>3d</fix>
</trkpt>
<trkpt lat="-27.274439" lon="151.290064">
  <ele>343.1</ele>
  <time>2026-09-01T19:52:08Z</time>
  <course>270.0</course>
  <speed>0.0</speed>
  <fix>3d</fix>
</trkpt>
<trkpt lat="-27.274439" lon="151.290064">
  <ele>342.7</ele>
  <time>2026-09-01T19:52:08Z</time>
  <course>11.24</course>
  <speed>0.0</speed>
  <fix>3d</fix>
</trkpt>
<trkpt lat="-27.274439" lon="151.290064">
  <ele>343.1</ele>
  <time>2026-09-01T19:52:08Z</time>
  <course>270.0</course>
  <speed>0.0</speed>
  <fix>3d</fix>
</trkpt>
<trkpt lat="-27.274439" lon="151.290064">
  <ele>342.96</ele>
  <time>2026-09-01T19:52:08Z</time>
  <course>11.24</course>
  <speed>0.0</speed>
  <fix>3d</fix>
</trkpt>
<trkpt lat="-27.274439" lon="151.290064">
  <ele>343.1</ele>
  <time>2026-09-01T19:52:08Z</time>
  <course>270.0</course>
  <speed>0.0</speed>
  <fix>3d</fix>
</trkpt>
<trkpt lat="-27.274439" lon="151.290064">
  <ele>343.0</ele>
  <time>2026-09-01T19:52:08Z</time>
  <course>11.24</course>
  <speed>0.0</speed>
  <fix>3d</fix>
</trkpt>
<trkpt lat="-27.274439" lon="151.290064">
  <ele>343.1</ele>
  <time>2026-09-01T19:52:08Z</time>
  <course>270.0</course>
  <speed>0.0</speed>
  <fix>3d</fix>
</trkpt>
<trkpt lat="-27.274439" lon="151.290064">
  <ele>342.98</ele>
  <time>2026-09-01T19:52:08Z</time>
  <course>11.24</course>
  <speed>0.0</speed>
  <fix>3d</fix>
</trkpt>
<trkpt lat="-27.274439" lon="151.290064">
  <ele>343.1</ele>
  <time>2026-09-01T19:52:08Z</time>
  <course>270.0</course>
  <speed>0.0</speed>
  <fix>3d</fix>
</trkpt>
<trkpt lat="-27.274439" lon="151.290064">
  <ele>343.08</ele>
  <time>2026-09-01T19:52:08Z</time>
  <course>11.24</course>
  <speed>0.0</speed>
  <fix>3d</fix>
</trkpt>
<trkpt lat="-27.274439" lon="151.290064">
  <ele>343.1</ele>
  <time>2026-09-01T19:52:08Z</time>
  <course>270.0</course>
  <speed>0.0</speed>
  <fix>3d</fix>
</trkpt>
<trkpt lat="-27.274439" lon="151.290064">
  <ele>342.82</ele>
  <time>2026-09-01T19:52:08Z</time>
  <course>11.24</course>
  <speed>0.0</speed>
  <fix>3d</fix>
</trkpt>
<trkpt lat="-27.274439" lon="151.290064">
  <ele>343.1</ele>
  <time>2026-09-01T19:52:08Z</time>
  <course>270.0</course>
  <speed>0.0</speed>
  <fix>3d</fix>
</trkpt>
<trkpt lat="-27.274439" lon="151.290064">
  <ele>342.78</ele>
  <time>2026-09-01T19:52:08Z</time>
  <course>11.24</course>
  <speed>0.0</speed>
  <fix>3d</fix>
</trkpt>
<trkpt lat="-27.274439" lon="151.290064">
  <ele>343.1</ele>
  <time>2026-09-01T19:52:08Z</time>
  <course>270.0</course>
  <speed>0.0</speed>
  <fix>3d</fix>
</trkpt>
<trkpt lat="-27.274439" lon="151.290064">
  <ele>342.98</ele>
  <time>2026-09-01T19:52:08Z</time>
  <course>11.24</course>
  <speed>0.0</speed>
  <fix>3d</fix>
</trkpt>
<trkpt lat="-27.274439" lon="151.290064">
  <ele>343.1</ele>
  <time>2026-09-01T19:52:08Z</time>
  <course>270.0</course>
  <speed>0.0</speed>
  <fix>3d</fix>
</trkpt>
<trkpt lat="-27.274439" lon="151.290064">
  <ele>342.9</ele>
  <time>2026-09-01T19:52:08Z</time>
  <course>11.24</course>
  <speed>0.0</speed>
  <fix>3d</fix>
</trkpt>
<trkpt lat="-27.274439" lon="151.290064">
  <ele>343.1</ele>
  <time>2026-09-01T19:52:08Z</time>
  <course>270.0</course>
  <speed>0.0</speed>
  <fix>3d</fix>
</trkpt>
<trkpt lat="-27.274439" lon="151.290064">
  <ele>343.0</ele>
  <time>2026-09-01T19:52:08Z</time>
  <course>11.24</course>
  <speed>0.0</speed>
  <fix>3d</fix>
</trkpt>
<trkpt lat="-27.274439" lon="151.290064">
  <ele>343.1</ele>
  <time>2026-09-01T19:52:08Z</time>
  <course>270.0</course>
  <speed>0.0</speed>
  <fix>3d</fix>
</trkpt>
<trkpt lat="-27.274439" lon="151.290064">
  <ele>342.9</ele>
  <time>2026-09-01T19:52:08Z</time>
  <course>11.24</course>
  <speed>0.0</speed>
  <fix>3d</fix>
</trkpt>
<trkpt lat="-27.274439" lon="151.290064">
  <ele>343.1</ele>
  <time>2026-09-01T19:52:08Z</time>
  <course>270.0</course>
  <speed>0.0</speed>
  <fix>3d</fix>
</trkpt>
<trkpt lat="-27.274439" lon="151.290064">
  <ele>342.91</ele>
  <time>2026-09-01T19:52:08Z</time>
  <course>11.24</course>
  <speed>0.0</speed>
  <fix>3d</fix>
</trkpt>
<trkpt lat="-27.274439" lon="151.290064">
  <ele>343.1</ele>
  <time>2026-09-01T19:52:08Z</time>
  <course>270.0</course>
  <speed>0.0</speed>
  <fix>3d</fix>
</trkpt>
<trkpt lat="-27.274439" lon="151.290064">
  <ele>342.83</ele>
  <time>2026-09-01T19:52:08Z</time>
  <course>11.24</course>
  <speed>0.0</speed>
  <fix>3d</fix>
</trkpt>
<trkpt lat="-27.274439" lon="151.290064">
  <ele>343.1</ele>
  <time>2026-09-01T19:52:08Z</time>
  <course>270.0</course>
  <speed>0.0</speed>
  <fix>3d</fix>
</trkpt>
<trkpt lat="-27.274439" lon="151.290064">
  <ele>342.74</ele>
  <time>2026-09-01T19:52:08Z</time>
  <course>11.25</course>
  <speed>0.0</speed>
  <fix>3d</fix>
</trkpt>
<trkpt lat="-27.274439" lon="151.290064">
  <ele>343.1</ele>
  <time>2026-09-01T19:52:08Z</time>
  <course>270.0</course>
  <speed>0.0</speed>
  <fix>3d</fix>
</trkpt>
<trkpt lat="-27.274439" lon="151.290064">
  <ele>342.89</ele>
  <time>2026-09-01T19:52:08Z</time>
  <course>11.25</course>
  <speed>0.0</speed>
  <fix>3d</fix>
</trkpt>
<trkpt lat="-27.274439" lon="151.290064">
  <ele>343.1</ele>
  <time>2026-09-01T19:52:08Z</time>
  <course>270.0</course>
  <speed>0.0</speed>
  <fix>3d</fix>
</trkpt>
<trkpt lat="-27.274439" lon="151.290064">
  <ele>342.87</ele>
  <time>2026-09-01T19:52:09Z</time>
  <course>11.25</course>
  <speed>0.0</speed>
  <fix>3d</fix>
</trkpt>
<trkpt lat="-27.274439" lon="151.290064">
  <ele>343.1</ele>
  <time>2026-09-01T19:52:09Z</time>
  <course>270.0</course>
  <speed>0.0</speed>
  <fix>3d</fix>
</trkpt>
<trkpt lat="-27.274439" lon="151.290064">
  <ele>342.92</ele>
  <time>2026-09-01T19:52:09Z</time>
  <course>11.25</course>
  <speed>0.0</speed>
  <fix>3d</fix>
</trkpt>
<trkpt lat="-27.274439" lon="151.290064">
  <ele>343.1</ele>
  <time>2026-09-01T19:52:09Z</time>
  <course>270.0</course>
  <speed>0.0</speed>
  <fix>3d</fix>
</trkpt>
<trkpt lat="-27.274439" lon="151.290064">
  <ele>343.01</ele>
  <time>2026-09-01T19:52:09Z</time>
  <course>11.25</course>
  <speed>0.0</speed>
  <fix>3d</fix>
</trkpt>
<trkpt lat="-27.274439" lon="151.290064">
  <ele>343.1</ele>
  <time>2026-09-01T19:52:09Z</time>
  <course>270.0</course>
  <speed>0.0</speed>
  <fix>3d</fix>
</trkpt>
<trkpt lat="-27.274439" lon="151.290064">
  <ele>342.9</ele>
  <time>2026-09-01T19:52:09Z</time>
  <course>11.25</course>
  <speed>0.0</speed>
  <fix>3d</fix>
</trkpt>
<trkpt lat="-27.274439" lon="151.290064">
  <ele>343.1</ele>
  <time>2026-09-01T19:52:09Z</time>
  <course>270.0</course>
  <speed>0.0</speed>
  <fix>3d</fix>
</trkpt>
<trkpt lat="-27.274439" lon="151.290064">
  <ele>342.71</ele>
  <time>2026-09-01T19:52:09Z</time>
  <course>11.24</course>
  <speed>0.0</speed>
  <fix>3d</fix>
</trkpt>
<trkpt lat="-27.274439" lon="151.290064">
  <ele>343.1</ele>
  <time>2026-09-01T19:52:09Z</time>
  <course>270.0</course>
  <speed>0.0</speed>
  <fix>3d</fix>
</trkpt>
<trkpt lat="-27.274439" lon="151.290064">
  <ele>343.05</ele>
  <time>2026-09-01T19:52:09Z</time>
  <course>11.24</course>
  <speed>0.0</speed>
  <fix>3d</fix>
</trkpt>
<trkpt lat="-27.274439" lon="151.290064">
  <ele>343.1</ele>
  <time>2026-09-01T19:52:09Z</time>
  <course>270.0</course>
  <speed>0.0</speed>
  <fix>3d</fix>
</trkpt>
<trkpt lat="-27.274439" lon="151.290064">
  <ele>343.0</ele>
  <time>2026-09-01T19:52:09Z</time>
  <course>11.24</course>
  <speed>0.0</speed>
  <fix>3d</fix>
</trkpt>
<trkpt lat="-27.274439" lon="151.290064">
  <ele>343.1</ele>
  <time>2026-09-01T19:52:09Z</time>
  <course>270.0</course>
  <speed>0.0</speed>
  <fix>3d</fix>
</trkpt>
<trkpt lat="-27.274439" lon="151.290064">
  <ele>342.8</ele>
  <time>2026-09-01T19:52:09Z</time>
  <course>11.24</course>
  <speed>0.0</speed>
  <fix>3d</fix>
</trkpt>
<trkpt lat="-27.274439" lon="151.290064">
  <ele>343.1</ele>
  <time>2026-09-01T19:52:09Z</time>
  <course>270.0</course>
  <speed>0.0</speed>
  <fix>3d</fix>
</trkpt>
<trkpt lat="-27.274439" lon="151.290064">
  <ele>342.85</ele>
  <time>2026-09-01T19:52:09Z</time>
  <course>11.23</course>
  <speed>0.0</speed>
  <fix>3d</fix>
</trkpt>
<trkpt lat="-27.274439" lon="151.290064">
  <ele>343.1</ele>
  <time>2026-09-01T19:52:09Z</time>
  <course>270.0</course>
  <speed>0.0</speed>
  <fix>3d</fix>
</trkpt>
<trkpt lat="-27.274439" lon="151.290064">
  <ele>342.96</ele>
  <time>2026-09-01T19:52:09Z</time>
  <course>11.23</course>
  <speed>0.0</speed>
  <fix>3d</fix>
</trkpt>
<trkpt lat="-27.274439" lon="151.290064">
  <ele>343.1</ele>
  <time>2026-09-01T19:52:09Z</time>
  <course>270.0</course>
  <speed>0.0</speed>
  <fix>3d</fix>
</trkpt>
<trkpt lat="-27.274439" lon="151.290064">
  <ele>342.82</ele>
  <time>2026-09-01T19:52:09Z</time>
  <course>11.23</course>
  <speed>0.0</speed>
  <fix>3d</fix>
</trkpt>
<trkpt lat="-27.274439" lon="151.290064">
  <ele>343.1</ele>
  <time>2026-09-01T19:52:09Z</time>
  <course>270.0</course>
  <speed>0.0</speed>
  <fix>3d</fix>
</trkpt>
<trkpt lat="-27.274439" lon="151.290064">
  <ele>342.75</ele>
  <time>2026-09-01T19:52:09Z</time>
  <course>11.23</course>
  <speed>0.0</speed>
  <fix>3d</fix>
</trkpt>
<trkpt lat="-27.274439" lon="151.290064">
  <ele>343.1</ele>
  <time>2026-09-01T19:52:09Z</time>
  <course>270.0</course>
  <speed>0.0</speed>
  <fix>3d</fix>
</trkpt>
<trkpt lat="-27.274439" lon="151.290064">
  <ele>343.08</ele>
  <time>2026-09-01T19:52:09Z</time>
  <course>11.23</course>
  <speed>0.0</speed>
  <fix>3d</fix>
</trkpt>
<trkpt lat="-27.274439" lon="151.290064">
  <ele>343.1</ele>
  <time>2026-09-01T19:52:09Z</time>
  <course>270.0</course>
  <speed>0.0</speed>
  <fix>3d</fix>
</trkpt>
<trkpt lat="-27.274439" lon="151.290064">
  <ele>343.03</ele>
  <time>2026-09-01T19:52:09Z</time>
  <course>11.22</course>
  <speed>0.0</speed>
  <fix>3d</fix>
</trkpt>
<trkpt lat="-27.274439" lon="151.290064">
  <ele>343.1</ele>
  <time>2026-09-01T19:52:09Z</time>
  <course>270.0</course>
  <speed>0.0</speed>
  <fix>3d</fix>
</trkpt>
<trkpt lat="-27.274439" lon="151.290064">
  <ele>342.94</ele>
  <time>2026-09-01T19:52:09Z</time>
  <course>11.22</course>
  <speed>0.0</speed>
  <fix>3d</fix>
</trkpt>
<trkpt lat="-27.274439" lon="151.290064">
  <ele>343.1</ele>
  <time>2026-09-01T19:52:09Z</time>
  <course>270.0</course>
  <speed>0.0</speed>
  <fix>3d</fix>
</trkpt>
<trkpt lat="-27.274439" lon="151.290064">
  <ele>342.93</ele>
  <time>2026-09-01T19:52:09Z</time>
  <course>11.22</course>
  <speed>0.0</speed>
  <fix>3d</fix>
</trkpt>
<trkpt lat="-27.274439" lon="151.290064">
  <ele>343.1</ele>
  <time>2026-09-01T19:52:09Z</time>
  <course>270.0</course>
  <speed>0.0</speed>
  <fix>3d</fix>
</trkpt>
<trkpt lat="-27.274439" lon="151.290064">
  <ele>343.08</ele>
  <time>2026-09-01T19:52:09Z</time>
  <course>11.22</course>
  <speed>0.0</speed>
  <fix>3d</fix>
</trkpt>
<trkpt lat="-27.274439" lon="151.290064">
  <ele>343.1</ele>
  <time>2026-09-01T19:52:09Z</time>
  <course>270.0</course>
  <speed>0.0</speed>
  <fix>3d</fix>
</trkpt>
<trkpt lat="-27.274439" lon="151.290064">
  <ele>342.85</ele>
  <time>2026-09-01T19:52:09Z</time>
  <course>11.22</course>
  <speed>0.0</speed>
  <fix>3d</fix>
</trkpt>
<trkpt lat="-27.274439" lon="151.290064">
  <ele>343.1</ele>
  <time>2026-09-01T19:52:09Z</time>
  <course>270.0</course>
  <speed>0.0</speed>
  <fix>3d</fix>
</trkpt>
<trkpt lat="-27.274439" lon="151.290064">
  <ele>342.86</ele>
  <time>2026-09-01T19:52:09Z</time>
  <course>11.21</course>
  <speed>0.0</speed>
  <fix>3d</fix>
</trkpt>
<trkpt lat="-27.274439" lon="151.290064">
  <ele>343.1</ele>
  <time>2026-09-01T19:52:09Z</time>
  <course>270.0</course>
  <speed>0.0</speed>
  <fix>3d</fix>
</trkpt>
<trkpt lat="-27.274439" lon="151.290064">
  <ele>342.83</ele>
  <time>2026-09-01T19:52:09Z</time>
  <course>11.21</course>
  <speed>0.0</speed>
  <fix>3d</fix>
</trkpt>
<trkpt lat="-27.274439" lon="151.290064">
  <ele>343.1</ele>
  <time>2026-09-01T19:52:09Z</time>
  <course>270.0</course>
  <speed>0.0</speed>
  <fix>3d</fix>
</trkpt>
<trkpt lat="-27.274439" lon="151.290064">
  <ele>343.14</ele>
  <time>2026-09-01T19:52:09Z</time>
  <course>11.21</course>
  <speed>0.0</speed>
  <fix>3d</fix>
</trkpt>
<trkpt lat="-27.274439" lon="151.290064">
  <ele>343.1</ele>
  <time>2026-09-01T19:52:09Z</time>
  <course>270.0</course>
  <speed>0.0</speed>
  <fix>3d</fix>
</trkpt>
<trkpt lat="-27.274439" lon="151.290064">
  <ele>343.03</ele>
  <time>2026-09-01T19:52:09Z</time>
  <course>11.21</course>
  <speed>0.0</speed>
  <fix>3d</fix>
</trkpt>
<trkpt lat="-27.274439" lon="151.290064">
  <ele>343.1</ele>
  <time>2026-09-01T19:52:09Z</time>
  <course>270.0</course>
  <speed>0.0</speed>
  <fix>3d</fix>
</trkpt>
<trkpt lat="-27.274439" lon="151.290064">
  <ele>342.82</ele>
  <time>2026-09-01T19:52:09Z</time>
  <course>11.21</course>
  <speed>0.0</speed>
  <fix>3d</fix>
</trkpt>
<trkpt lat="-27.274439" lon="151.290064">
  <ele>343.1</ele>
  <time>2026-09-01T19:52:09Z</time>
  <course>270.0</course>
  <speed>0.0</speed>
  <fix>3d</fix>
</trkpt>
<trkpt lat="-27.274439" lon="151.290064">
  <ele>342.93</ele>
  <time>2026-09-01T19:52:09Z</time>
  <course>11.2</course>
  <speed>0.0</speed>
  <fix>3d</fix>
</trkpt>
<trkpt lat="-27.274439" lon="151.290064">
  <ele>343.1</ele>
  <time>2026-09-01T19:52:09Z</time>
  <course>270.0</course>
  <speed>0.0</speed>
  <fix>3d</fix>
</trkpt>
<trkpt lat="-27.274439" lon="151.290064">
  <ele>342.82</ele>
  <time>2026-09-01T19:52:09Z</time>
  <course>11.2</course>
  <speed>0.0</speed>
  <fix>3d</fix>
</trkpt>
<trkpt lat="-27.274439" lon="151.290064">
  <ele>343.1</ele>
  <time>2026-09-01T19:52:09Z</time>
  <course>270.0</course>
  <speed>0.0</speed>
  <fix>3d</fix>
</trkpt>
<trkpt lat="-27.274439" lon="151.290064">
  <ele>342.83</ele>
  <time>2026-09-01T19:52:09Z</time>
  <course>11.2</course>
  <speed>0.0</speed>
  <fix>3d</fix>
</trkpt>
<trkpt lat="-27.274439" lon="151.290064">
  <ele>343.1</ele>
  <time>2026-09-01T19:52:09Z</time>
  <course>270.0</course>
  <speed>0.0</speed>
  <fix>3d</fix>
</trkpt>
<trkpt lat="-27.274439" lon="151.290064">
  <ele>342.9</ele>
  <time>2026-09-01T19:52:09Z</time>
  <course>11.2</course>
  <speed>0.0</speed>
  <fix>3d</fix>
</trkpt>
<trkpt lat="-27.274439" lon="151.290064">
  <ele>343.1</ele>
  <time>2026-09-01T19:52:09Z</time>
  <course>270.0</course>
  <speed>0.0</speed>
  <fix>3d</fix>
</trkpt>
<trkpt lat="-27.274439" lon="151.290064">
  <ele>342.83</ele>
  <time>2026-09-01T19:52:09Z</time>
  <course>11.2</course>
  <speed>0.0</speed>
  <fix>3d</fix>
</trkpt>
<trkpt lat="-27.274439" lon="151.290064">
  <ele>343.1</ele>
  <time>2026-09-01T19:52:09Z</time>
  <course>270.0</course>
  <speed>0.0</speed>
  <fix>3d</fix>
</trkpt>
<trkpt lat="-27.274439" lon="151.290064">
  <ele>343.04</ele>
  <time>2026-09-01T19:52:09Z</time>
  <course>11.2</course>
  <speed>0.0</speed>
  <fix>3d</fix>
</trkpt>
<trkpt lat="-27.274439" lon="151.290064">
  <ele>343.1</ele>
  <time>2026-09-01T19:52:09Z</time>
  <course>270.0</course>
  <speed>0.0</speed>
  <fix>3d</fix>
</trkpt>
<trkpt lat="-27.274439" lon="151.290064">
  <ele>342.98</ele>
  <time>2026-09-01T19:52:09Z</time>
  <course>11.19</course>
  <speed>0.0</speed>
  <fix>3d</fix>
</trkpt>
<trkpt lat="-27.274439" lon="151.290064">
  <ele>343.1</ele>
  <time>2026-09-01T19:52:09Z</time>
  <course>270.0</course>
  <speed>0.0</speed>
  <fix>3d</fix>
</trkpt>
<trkpt lat="-27.274439" lon="151.290064">
  <ele>342.99</ele>
  <time>2026-09-01T19:52:09Z</time>
  <course>11.19</course>
  <speed>0.0</speed>
  <fix>3d</fix>
</trkpt>
<trkpt lat="-27.274439" lon="151.290064">
  <ele>343.1</ele>
  <time>2026-09-01T19:52:09Z</time>
  <course>270.0</course>
  <speed>0.0</speed>
  <fix>3d</fix>
</trkpt>
<trkpt lat="-27.274439" lon="151.290064">
  <ele>342.98</ele>
  <time>2026-09-01T19:52:09Z</time>
  <course>11.19</course>
  <speed>0.0</speed>
  <fix>3d</fix>
</trkpt>
<trkpt lat="-27.274439" lon="151.290064">
  <ele>343.1</ele>
  <time>2026-09-01T19:52:09Z</time>
  <course>270.0</course>
  <speed>0.0</speed>
  <fix>3d</fix>
</trkpt>
<trkpt lat="-27.274439" lon="151.290064">
  <ele>342.9</ele>
  <time>2026-09-01T19:52:09Z</time>
  <course>11.19</course>
  <speed>0.0</speed>
  <fix>3d</fix>
</trkpt>
<trkpt lat="-27.274439" lon="151.290064">
  <ele>343.1</ele>
  <time>2026-09-01T19:52:09Z</time>
  <course>270.0</course>
  <speed>0.0</speed>
  <fix>3d</fix>
</trkpt>
<trkpt lat="-27.274439" lon="151.290064">
  <ele>343.03</ele>
  <time>2026-09-01T19:52:09Z</time>
  <course>11.19</course>
  <speed>0.0</speed>
  <fix>3d</fix>
</trkpt>
<trkpt lat="-27.274439" lon="151.290064">
  <ele>343.1</ele>
  <time>2026-09-01T19:52:09Z</time>
  <course>270.0</course>
  <speed>0.0</speed>
  <fix>3d</fix>
</trkpt>
<trkpt lat="-27.274439" lon="151.290064">
  <ele>343.11</ele>
  <time>2026-09-01T19:52:09Z</time>
  <course>11.19</course>
  <speed>0.0</speed>
  <fix>3d</fix>
</trkpt>
<trkpt lat="-27.274439" lon="151.290064">
  <ele>343.1</ele>
  <time>2026-09-01T19:52:09Z</time>
  <course>270.0</course>
  <speed>0.0</speed>
  <fix>3d</fix>
</trkpt>
<trkpt lat="-27.274439" lon="151.290064">
  <ele>342.98</ele>
  <time>2026-09-01T19:52:09Z</time>
  <course>11.18</course>
  <speed>0.0</speed>
  <fix>3d</fix>
</trkpt>
<trkpt lat="-27.274439" lon="151.290064">
  <ele>343.1</ele>
  <time>2026-09-01T19:52:09Z</time>
  <course>270.0</course>
  <speed>0.0</speed>
  <fix>3d</fix>
</trkpt>
<trkpt lat="-27.274439" lon="151.290064">
  <ele>343.06</ele>
  <time>2026-09-01T19:52:09Z</time>
  <course>11.18</course>
  <speed>0.0</speed>
  <fix>3d</fix>
</trkpt>
<trkpt lat="-27.274439" lon="151.290064">
  <ele>343.1</ele>
  <time>2026-09-01T19:52:09Z</time>
  <course>270.0</course>
  <speed>0.0</speed>
  <fix>3d</fix>
</trkpt>
<trkpt lat="-27.274439" lon="151.290064">
  <ele>342.9</ele>
  <time>2026-09-01T19:52:09Z</time>
  <course>11.18</course>
  <speed>0.0</speed>
  <fix>3d</fix>
</trkpt>
<trkpt lat="-27.274439" lon="151.290064">
  <ele>343.1</ele>
  <time>2026-09-01T19:52:09Z</time>
  <course>270.0</course>
  <speed>0.0</speed>
  <fix>3d</fix>
</trkpt>
<trkpt lat="-27.274439" lon="151.290064">
  <ele>342.79</ele>
  <time>2026-09-01T19:52:09Z</time>
  <course>11.18</course>
  <speed>0.0</speed>
  <fix>3d</fix>
</trkpt>
<trkpt lat="-27.274439" lon="151.290064">
  <ele>343.1</ele>
  <time>2026-09-01T19:52:09Z</time>
  <course>270.0</course>
  <speed>0.0</speed>
  <fix>3d</fix>
</trkpt>
<trkpt lat="-27.274439" lon="151.290064">
  <ele>343.08</ele>
  <time>2026-09-01T19:52:09Z</time>
  <course>11.18</course>
  <speed>0.0</speed>
  <fix>3d</fix>
</trkpt>
<trkpt lat="-27.274439" lon="151.290064">
  <ele>343.1</ele>
  <time>2026-09-01T19:52:09Z</time>
  <course>270.0</course>
  <speed>0.0</speed>
  <fix>3d</fix>
</trkpt>
<trkpt lat="-27.274439" lon="151.290064">
  <ele>342.99</ele>
  <time>2026-09-01T19:52:09Z</time>
  <course>11.18</course>
  <speed>0.0</speed>
  <fix>3d</fix>
</trkpt>
<trkpt lat="-27.274439" lon="151.290064">
  <ele>343.1</ele>
  <time>2026-09-01T19:52:09Z</time>
  <course>270.0</course>
  <speed>0.0</speed>
  <fix>3d</fix>
</trkpt>
<trkpt lat="-27.274439" lon="151.290064">
  <ele>342.95</ele>
  <time>2026-09-01T19:52:09Z</time>
  <course>11.18</course>
  <speed>0.0</speed>
  <fix>3d</fix>
</trkpt>
<trkpt lat="-27.274439" lon="151.290064">
  <ele>343.1</ele>
  <time>2026-09-01T19:52:09Z</time>
  <course>270.0</course>
  <speed>0.0</speed>
  <fix>3d</fix>
</trkpt>
<trkpt lat="-27.274439" lon="151.290064">
  <ele>342.8</ele>
  <time>2026-09-01T19:52:09Z</time>
  <course>11.17</course>
  <speed>0.0</speed>
  <fix>3d</fix>
</trkpt>
<trkpt lat="-27.274439" lon="151.290064">
  <ele>343.1</ele>
  <time>2026-09-01T19:52:09Z</time>
  <course>270.0</course>
  <speed>0.0</speed>
  <fix>3d</fix>
</trkpt>
<trkpt lat="-27.274439" lon="151.290064">
  <ele>343.01</ele>
  <time>2026-09-01T19:52:09Z</time>
  <course>11.17</course>
  <speed>0.0</speed>
  <fix>3d</fix>
</trkpt>
<trkpt lat="-27.274439" lon="151.290064">
  <ele>343.1</ele>
  <time>2026-09-01T19:52:09Z</time>
  <course>270.0</course>
  <speed>0.0</speed>
  <fix>3d</fix>
</trkpt>
<trkpt lat="-27.274439" lon="151.290064">
  <ele>342.78</ele>
  <time>2026-09-01T19:52:09Z</time>
  <course>11.17</course>
  <speed>0.0</speed>
  <fix>3d</fix>
</trkpt>
<trkpt lat="-27.274439" lon="151.290064">
  <ele>343.1</ele>
  <time>2026-09-01T19:52:09Z</time>
  <course>270.0</course>
  <speed>0.0</speed>
  <fix>3d</fix>
</trkpt>
<trkpt lat="-27.274439" lon="151.290064">
  <ele>342.81</ele>
  <time>2026-09-01T19:52:09Z</time>
  <course>11.17</course>
  <speed>0.0</speed>
  <fix>3d</fix>
</trkpt>
<trkpt lat="-27.274439" lon="151.290064">
  <ele>343.1</ele>
  <time>2026-09-01T19:52:09Z</time>
  <course>270.0</course>
  <speed>0.0</speed>
  <fix>3d</fix>
</trkpt>
<trkpt lat="-27.274439" lon="151.290064">
  <ele>342.85</ele>
  <time>2026-09-01T19:52:09Z</time>
  <course>11.17</course>
  <speed>0.0</speed>
  <fix>3d</fix>
</trkpt>
<trkpt lat="-27.274439" lon="151.290064">
  <ele>343.1</ele>
  <time>2026-09-01T19:52:09Z</time>
  <course>270.0</course>
  <speed>0.0</speed>
  <fix>3d</fix>
</trkpt>
<trkpt lat="-27.274439" lon="151.290064">
  <ele>342.78</ele>
  <time>2026-09-01T19:52:09Z</time>
  <course>11.17</course>
  <speed>0.0</speed>
  <fix>3d</fix>
</trkpt>
<trkpt lat="-27.274439" lon="151.290064">
  <ele>343.1</ele>
  <time>2026-09-01T19:52:09Z</time>
  <course>270.0</course>
  <speed>0.0</speed>
  <fix>3d</fix>
</trkpt>
<trkpt lat="-27.274439" lon="151.290064">
  <ele>342.79</ele>
  <time>2026-09-01T19:52:09Z</time>
  <course>11.17</course>
  <speed>0.0</speed>
  <fix>3d</fix>
</trkpt>
<trkpt lat="-27.274439" lon="151.290064">
  <ele>343.1</ele>
  <time>2026-09-01T19:52:09Z</time>
  <course>270.0</course>
  <speed>0.0</speed>
  <fix>3d</fix>
</trkpt>
<trkpt lat="-27.274439" lon="151.290064">
  <ele>342.9</ele>
  <time>2026-09-01T19:52:09Z</time>
  <course>11.17</course>
  <speed>0.0</speed>
  <fix>3d</fix>
</trkpt>
<trkpt lat="-27.274439" lon="151.290064">
  <ele>343.1</ele>
  <time>2026-09-01T19:52:09Z</time>
  <course>270.0</course>
  <speed>0.0</speed>
  <fix>3d</fix>
</trkpt>
<trkpt lat="-27.274439" lon="151.290064">
  <ele>342.98</ele>
  <time>2026-09-01T19:52:09Z</time>
  <course>11.16</course>
  <speed>0.0</speed>
  <fix>3d</fix>
</trkpt>
<trkpt lat="-27.274439" lon="151.290064">
  <ele>343.1</ele>
  <time>2026-09-01T19:52:09Z</time>
  <course>270.0</course>
  <speed>0.0</speed>
  <fix>3d</fix>
</trkpt>
<trkpt lat="-27.274439" lon="151.290064">
  <ele>342.77</ele>
  <time>2026-09-01T19:52:09Z</time>
  <course>11.16</course>
  <speed>0.0</speed>
  <fix>3d</fix>
</trkpt>
<trkpt lat="-27.274439" lon="151.290064">
  <ele>343.1</ele>
  <time>2026-09-01T19:52:09Z</time>
  <course>270.0</course>
  <speed>0.0</speed>
  <fix>3d</fix>
</trkpt>
<trkpt lat="-27.274439" lon="151.290064">
  <ele>342.95</ele>
  <time>2026-09-01T19:52:09Z</time>
  <course>11.16</course>
  <speed>0.0</speed>
  <fix>3d</fix>
</trkpt>
<trkpt lat="-27.274439" lon="151.290064">
  <ele>343.1</ele>
  <time>2026-09-01T19:52:09Z</time>
  <course>270.0</course>
  <speed>0.0</speed>
  <fix>3d</fix>
</trkpt>
<trkpt lat="-27.274439" lon="151.290064">
  <ele>343.04</ele>
  <time>2026-09-01T19:52:09Z</time>
  <course>11.16</course>
  <speed>0.0</speed>
  <fix>3d</fix>
</trkpt>
<trkpt lat="-27.274439" lon="151.290064">
  <ele>343.1</ele>
  <time>2026-09-01T19:52:09Z</time>
  <course>270.0</course>
  <speed>0.0</speed>
  <fix>3d</fix>
</trkpt>
<trkpt lat="-27.274439" lon="151.290064">
  <ele>342.83</ele>
  <time>2026-09-01T19:52:09Z</time>
  <course>11.16</course>
  <speed>0.0</speed>
  <fix>3d</fix>
</trkpt>
<trkpt lat="-27.274439" lon="151.290064">
  <ele>343.1</ele>
  <time>2026-09-01T19:52:09Z</time>
  <course>270.0</course>
  <speed>0.0</speed>
  <fix>3d</fix>
</trkpt>
<trkpt lat="-27.274439" lon="151.290064">
  <ele>342.87</ele>
  <time>2026-09-01T19:52:09Z</time>
  <course>11.16</course>
  <speed>0.0</speed>
  <fix>3d</fix>
</trkpt>
<trkpt lat="-27.274439" lon="151.290064">
  <ele>343.1</ele>
  <time>2026-09-01T19:52:09Z</time>
  <course>270.0</course>
  <speed>0.0</speed>
  <fix>3d</fix>
</trkpt>
<trkpt lat="-27.274439" lon="151.290064">
  <ele>342.76</ele>
  <time>2026-09-01T19:52:09Z</time>
  <course>11.15</course>
  <speed>0.0</speed>
  <fix>3d</fix>
</trkpt>
<trkpt lat="-27.274439" lon="151.290064">
  <ele>343.1</ele>
  <time>2026-09-01T19:52:09Z</time>
  <course>270.0</course>
  <speed>0.0</speed>
  <fix>3d</fix>
</trkpt>
<trkpt lat="-27.274439" lon="151.290064">
  <ele>343.01</ele>
  <time>2026-09-01T19:52:09Z</time>
  <course>11.15</course>
  <speed>0.0</speed>
  <fix>3d</fix>
</trkpt>
<trkpt lat="-27.274439" lon="151.290064">
  <ele>343.1</ele>
  <time>2026-09-01T19:52:09Z</time>
  <course>270.0</course>
  <speed>0.0</speed>
  <fix>3d</fix>
</trkpt>
<trkpt lat="-27.274439" lon="151.290064">
  <ele>343.08</ele>
  <time>2026-09-01T19:52:09Z</time>
  <course>11.14</course>
  <speed>0.0</speed>
  <fix>3d</fix>
</trkpt>
<trkpt lat="-27.274439" lon="151.290064">
  <ele>343.1</ele>
  <time>2026-09-01T19:52:09Z</time>
  <course>270.0</course>
  <speed>0.0</speed>
  <fix>3d</fix>
</trkpt>
<trkpt lat="-27.274439" lon="151.290064">
  <ele>342.82</ele>
  <time>2026-09-01T19:52:09Z</time>
  <course>11.14</course>
  <speed>0.0</speed>
  <fix>3d</fix>
</trkpt>
<trkpt lat="-27.274439" lon="151.290064">
  <ele>343.1</ele>
  <time>2026-09-01T19:52:09Z</time>
  <course>270.0</course>
  <speed>0.0</speed>
  <fix>3d</fix>
</trkpt>
<trkpt lat="-27.274439" lon="151.290064">
  <ele>343.12</ele>
  <time>2026-09-01T19:52:09Z</time>
  <course>11.14</course>
  <speed>0.0</speed>
  <fix>3d</fix>
</trkpt>
<trkpt lat="-27.274439" lon="151.290064">
  <ele>343.1</ele>
  <time>2026-09-01T19:52:09Z</time>
  <course>270.0</course>
  <speed>0.0</speed>
  <fix>3d</fix>
</trkpt>
<trkpt lat="-27.274439" lon="151.290064">
  <ele>342.85</ele>
  <time>2026-09-01T19:52:09Z</time>
  <course>11.13</course>
  <speed>0.0</speed>
  <fix>3d</fix>
</trkpt>
<trkpt lat="-27.274439" lon="151.290064">
  <ele>343.1</ele>
  <time>2026-09-01T19:52:09Z</time>
  <course>270.0</course>
  <speed>0.0</speed>
  <fix>3d</fix>
</trkpt>
<trkpt lat="-27.274439" lon="151.290064">
  <ele>343.01</ele>
  <time>2026-09-01T19:52:09Z</time>
  <course>11.13</course>
  <speed>0.0</speed>
  <fix>3d</fix>
</trkpt>
<trkpt lat="-27.274439" lon="151.290064">
  <ele>343.1</ele>
  <time>2026-09-01T19:52:09Z</time>
  <course>270.0</course>
  <speed>0.0</speed>
  <fix>3d</fix>
</trkpt>
<trkpt lat="-27.274439" lon="151.290064">
  <ele>343.01</ele>
  <time>2026-09-01T19:52:09Z</time>
  <course>11.12</course>
  <speed>0.0</speed>
  <fix>3d</fix>
</trkpt>
<trkpt lat="-27.274439" lon="151.290064">
  <ele>343.1</ele>
  <time>2026-09-01T19:52:09Z</time>
  <course>270.0</course>
  <speed>0.0</speed>
  <fix>3d</fix>
</trkpt>
<trkpt lat="-27.274439" lon="151.290064">
  <ele>342.82</ele>
  <time>2026-09-01T19:52:09Z</time>
  <course>11.12</course>
  <speed>0.0</speed>
  <fix>3d</fix>
</trkpt>
<trkpt lat="-27.274439" lon="151.290064">
  <ele>343.1</ele>
  <time>2026-09-01T19:52:09Z</time>
  <course>270.0</course>
  <speed>0.0</speed>
  <fix>3d</fix>
</trkpt>
<trkpt lat="-27.274439" lon="151.290064">
  <ele>343.05</ele>
  <time>2026-09-01T19:52:09Z</time>
  <course>11.12</course>
  <speed>0.0</speed>
  <fix>3d</fix>
</trkpt>
<trkpt lat="-27.274439" lon="151.290064">
  <ele>343.1</ele>
  <time>2026-09-01T19:52:09Z</time>
  <course>270.0</course>
  <speed>0.0</speed>
  <fix>3d</fix>
</trkpt>
<trkpt lat="-27.274439" lon="151.290064">
  <ele>342.9</ele>
  <time>2026-09-01T19:52:09Z</time>
  <course>11.11</course>
  <speed>0.0</speed>
  <fix>3d</fix>
</trkpt>
<trkpt lat="-27.274439" lon="151.290064">
  <ele>343.1</ele>
  <time>2026-09-01T19:52:09Z</time>
  <course>270.0</course>
  <speed>0.0</speed>
  <fix>3d</fix>
</trkpt>
<trkpt lat="-27.274439" lon="151.290064">
  <ele>342.98</ele>
  <time>2026-09-01T19:52:09Z</time>
  <course>11.11</course>
  <speed>0.0</speed>
  <fix>3d</fix>
</trkpt>
<trkpt lat="-27.274439" lon="151.290064">
  <ele>343.1</ele>
  <time>2026-09-01T19:52:09Z</time>
  <course>270.0</course>
  <speed>0.0</speed>
  <fix>3d</fix>
</trkpt>
<trkpt lat="-27.274439" lon="151.290064">
  <ele>342.84</ele>
  <time>2026-09-01T19:52:09Z</time>
  <course>11.1</course>
  <speed>0.0</speed>
  <fix>3d</fix>
</trkpt>
<trkpt lat="-27.274439" lon="151.290064">
  <ele>343.1</ele>
  <time>2026-09-01T19:52:09Z</time>
  <course>270.0</course>
  <speed>0.0</speed>
  <fix>3d</fix>
</trkpt>
<trkpt lat="-27.274439" lon="151.290064">
  <ele>343.0</ele>
  <time>2026-09-01T19:52:09Z</time>
  <course>11.1</course>
  <speed>0.0</speed>
  <fix>3d</fix>
</trkpt>
<trkpt lat="-27.274439" lon="151.290064">
  <ele>343.1</ele>
  <time>2026-09-01T19:52:09Z</time>
  <course>270.0</course>
  <speed>0.0</speed>
  <fix>3d</fix>
</trkpt>
<trkpt lat="-27.274439" lon="151.290064">
  <ele>343.0</ele>
  <time>2026-09-01T19:52:09Z</time>
  <course>11.1</course>
  <speed>0.0</speed>
  <fix>3d</fix>
</trkpt>
<trkpt lat="-27.274439" lon="151.290064">
  <ele>343.1</ele>
  <time>2026-09-01T19:52:09Z</time>
  <course>270.0</course>
  <speed>0.0</speed>
  <fix>3d</fix>
</trkpt>
<trkpt lat="-27.274439" lon="151.290064">
  <ele>342.78</ele>
  <time>2026-09-01T19:52:09Z</time>
  <course>11.09</course>
  <speed>0.0</speed>
  <fix>3d</fix>
</trkpt>
<trkpt lat="-27.274439" lon="151.290064">
  <ele>343.1</ele>
  <time>2026-09-01T19:52:09Z</time>
  <course>270.0</course>
  <speed>0.0</speed>
  <fix>3d</fix>
</trkpt>
<trkpt lat="-27.274439" lon="151.290064">
  <ele>343.06</ele>
  <time>2026-09-01T19:52:09Z</time>
  <course>11.09</course>
  <speed>0.0</speed>
  <fix>3d</fix>
</trkpt>
<trkpt lat="-27.274439" lon="151.290064">
  <ele>343.1</ele>
  <time>2026-09-01T19:52:09Z</time>
  <course>270.0</course>
  <speed>0.0</speed>
  <fix>3d</fix>
</trkpt>
<trkpt lat="-27.274439" lon="151.290064">
  <ele>343.03</ele>
  <time>2026-09-01T19:52:09Z</time>
  <course>11.09</course>
  <speed>0.0</speed>
  <fix>3d</fix>
</trkpt>
<trkpt lat="-27.274439" lon="151.290064">
  <ele>343.1</ele>
  <time>2026-09-01T19:52:09Z</time>
  <course>270.0</course>
  <speed>0.0</speed>
  <fix>3d</fix>
</trkpt>
<trkpt lat="-27.274439" lon="151.290064">
  <ele>343.15</ele>
  <time>2026-09-01T19:52:09Z</time>
  <course>11.08</course>
  <speed>0.0</speed>
  <fix>3d</fix>
</trkpt>
<trkpt lat="-27.274439" lon="151.290064">
  <ele>343.1</ele>
  <time>2026-09-01T19:52:09Z</time>
  <course>270.0</course>
  <speed>0.0</speed>
  <fix>3d</fix>
</trkpt>
<trkpt lat="-27.274439" lon="151.290064">
  <ele>342.95</ele>
  <time>2026-09-01T19:52:09Z</time>
  <course>11.08</course>
  <speed>0.0</speed>
  <fix>3d</fix>
</trkpt>
<trkpt lat="-27.274439" lon="151.290064">
  <ele>343.1</ele>
  <time>2026-09-01T19:52:09Z</time>
  <course>270.0</course>
  <speed>0.0</speed>
  <fix>3d</fix>
</trkpt>
<trkpt lat="-27.274439" lon="151.290064">
  <ele>343.03</ele>
  <time>2026-09-01T19:52:09Z</time>
  <course>11.08</course>
  <speed>0.0</speed>
  <fix>3d</fix>
</trkpt>
<trkpt lat="-27.274439" lon="151.290064">
  <ele>343.1</ele>
  <time>2026-09-01T19:52:09Z</time>
  <course>270.0</course>
  <speed>0.0</speed>
  <fix>3d</fix>
</trkpt>
<trkpt lat="-27.274439" lon="151.290064">
  <ele>343.12</ele>
  <time>2026-09-01T19:52:09Z</time>
  <course>11.07</course>
  <speed>0.0</speed>
  <fix>3d</fix>
</trkpt>
<trkpt lat="-27.274439" lon="151.290064">
  <ele>343.1</ele>
  <time>2026-09-01T19:52:09Z</time>
  <course>270.0</course>
  <speed>0.0</speed>
  <fix>3d</fix>
</trkpt>
<trkpt lat="-27.274439" lon="151.290064">
  <ele>343.16</ele>
  <time>2026-09-01T19:52:09Z</time>
  <course>11.07</course>
  <speed>0.0</speed>
  <fix>3d</fix>
</trkpt>
<trkpt lat="-27.274439" lon="151.290064">
  <ele>343.1</ele>
  <time>2026-09-01T19:52:09Z</time>
  <course>270.0</course>
  <speed>0.0</speed>
  <fix>3d</fix>
</trkpt>
<trkpt lat="-27.274439" lon="151.290064">
  <ele>342.97</ele>
  <time>2026-09-01T19:52:09Z</time>
  <course>11.07</course>
  <speed>0.0</speed>
  <fix>3d</fix>
</trkpt>
<trkpt lat="-27.274439" lon="151.290064">
  <ele>343.1</ele>
  <time>2026-09-01T19:52:09Z</time>
  <course>270.0</course>
  <speed>0.0</speed>
  <fix>3d</fix>
</trkpt>
<trkpt lat="-27.274439" lon="151.290064">
  <ele>343.14</ele>
  <time>2026-09-01T19:52:09Z</time>
  <course>11.07</course>
  <speed>0.0</speed>
  <fix>3d</fix>
</trkpt>
<trkpt lat="-27.274439" lon="151.290064">
  <ele>343.1</ele>
  <time>2026-09-01T19:52:09Z</time>
  <course>270.0</course>
  <speed>0.0</speed>
  <fix>3d</fix>
</trkpt>
<trkpt lat="-27.274439" lon="151.290064">
  <ele>342.86</ele>
  <time>2026-09-01T19:52:09Z</time>
  <course>11.06</course>
  <speed>0.0</speed>
  <fix>3d</fix>
</trkpt>
<trkpt lat="-27.274439" lon="151.290064">
  <ele>343.1</ele>
  <time>2026-09-01T19:52:09Z</time>
  <course>270.0</course>
  <speed>0.0</speed>
  <fix>3d</fix>
</trkpt>
<trkpt lat="-27.274439" lon="151.290064">
  <ele>342.92</ele>
  <time>2026-09-01T19:52:09Z</time>
  <course>11.06</course>
  <speed>0.0</speed>
  <fix>3d</fix>
</trkpt>
<trkpt lat="-27.274439" lon="151.290064">
  <ele>343.1</ele>
  <time>2026-09-01T19:52:09Z</time>
  <course>270.0</course>
  <speed>0.0</speed>
  <fix>3d</fix>
</trkpt>
<trkpt lat="-27.274439" lon="151.290064">
  <ele>343.12</ele>
  <time>2026-09-01T19:52:09Z</time>
  <course>11.06</course>
  <speed>0.0</speed>
  <fix>3d</fix>
</trkpt>
<trkpt lat="-27.274439" lon="151.290064">
  <ele>343.1</ele>
  <time>2026-09-01T19:52:09Z</time>
  <course>270.0</course>
  <speed>0.0</speed>
  <fix>3d</fix>
</trkpt>
<trkpt lat="-27.274439" lon="151.290064">
  <ele>343.03</ele>
  <time>2026-09-01T19:52:09Z</time>
  <course>11.05</course>
  <speed>0.0</speed>
  <fix>3d</fix>
</trkpt>
<trkpt lat="-27.274439" lon="151.290064">
  <ele>343.1</ele>
  <time>2026-09-01T19:52:09Z</time>
  <course>270.0</course>
  <speed>0.0</speed>
  <fix>3d</fix>
</trkpt>
<trkpt lat="-27.274439" lon="151.290064">
  <ele>343.07</ele>
  <time>2026-09-01T19:52:09Z</time>
  <course>11.05</course>
  <speed>0.0</speed>
  <fix>3d</fix>
</trkpt>
<trkpt lat="-27.274439" lon="151.290064">
  <ele>343.1</ele>
  <time>2026-09-01T19:52:09Z</time>
  <course>270.0</course>
  <speed>0.0</speed>
  <fix>3d</fix>
</trkpt>
<trkpt lat="-27.274439" lon="151.290064">
  <ele>343.03</ele>
  <time>2026-09-01T19:52:09Z</time>
  <course>11.05</course>
  <speed>0.0</speed>
  <fix>3d</fix>
</trkpt>
<trkpt lat="-27.274439" lon="151.290064">
  <ele>343.1</ele>
  <time>2026-09-01T19:52:09Z</time>
  <course>270.0</course>
  <speed>0.0</speed>
  <fix>3d</fix>
</trkpt>
<trkpt lat="-27.274439" lon="151.290064">
  <ele>342.88</ele>
  <time>2026-09-01T19:52:09Z</time>
  <course>11.05</course>
  <speed>0.0</speed>
  <fix>3d</fix>
</trkpt>
<trkpt lat="-27.274439" lon="151.290064">
  <ele>343.1</ele>
  <time>2026-09-01T19:52:09Z</time>
  <course>270.0</course>
  <speed>0.0</speed>
  <fix>3d</fix>
</trkpt>
<trkpt lat="-27.274439" lon="151.290064">
  <ele>343.0</ele>
  <time>2026-09-01T19:52:09Z</time>
  <course>11.04</course>
  <speed>0.0</speed>
  <fix>3d</fix>
</trkpt>
<trkpt lat="-27.274439" lon="151.290064">
  <ele>343.1</ele>
  <time>2026-09-01T19:52:09Z</time>
  <course>270.0</course>
  <speed>0.0</speed>
  <fix>3d</fix>
</trkpt>
<trkpt lat="-27.274439" lon="151.290064">
  <ele>343.1</ele>
  <time>2026-09-01T19:52:09Z</time>
  <course>11.04</course>
  <speed>0.0</speed>
  <fix>3d</fix>
</trkpt>
<trkpt lat="-27.274439" lon="151.290064">
  <ele>343.1</ele>
  <time>2026-09-01T19:52:09Z</time>
  <course>270.0</course>
  <speed>0.0</speed>
  <fix>3d</fix>
</trkpt>
<trkpt lat="-27.274439" lon="151.290064">
  <ele>343.04</ele>
  <time>2026-09-01T19:52:09Z</time>
  <course>11.04</course>
  <speed>0.0</speed>
  <fix>3d</fix>
</trkpt>
<trkpt lat="-27.274439" lon="151.290064">
  <ele>343.1</ele>
  <time>2026-09-01T19:52:09Z</time>
  <course>270.0</course>
  <speed>0.0</speed>
  <fix>3d</fix>
</trkpt>
<trkpt lat="-27.274439" lon="151.290064">
  <ele>343.22</ele>
  <time>2026-09-01T19:52:09Z</time>
  <course>11.04</course>
  <speed>0.0</speed>
  <fix>3d</fix>
</trkpt>
<trkpt lat="-27.274439" lon="151.290064">
  <ele>343.1</ele>
  <time>2026-09-01T19:52:09Z</time>
  <course>270.0</course>
  <speed>0.0</speed>
  <fix>3d</fix>
</trkpt>
<trkpt lat="-27.274439" lon="151.290064">
  <ele>343.05</ele>
  <time>2026-09-01T19:52:09Z</time>
  <course>11.03</course>
  <speed>0.0</speed>
  <fix>3d</fix>
</trkpt>
<trkpt lat="-27.274439" lon="151.290064">
  <ele>343.1</ele>
  <time>2026-09-01T19:52:09Z</time>
  <course>270.0</course>
  <speed>0.0</speed>
  <fix>3d</fix>
</trkpt>
<trkpt lat="-27.274439" lon="151.290064">
  <ele>343.07</ele>
  <time>2026-09-01T19:52:09Z</time>
  <course>11.03</course>
  <speed>0.0</speed>
  <fix>3d</fix>
</trkpt>
<trkpt lat="-27.274439" lon="151.290064">
  <ele>343.1</ele>
  <time>2026-09-01T19:52:09Z</time>
  <course>270.0</course>
  <speed>0.0</speed>
  <fix>3d</fix>
</trkpt>
<trkpt lat="-27.274439" lon="151.290064">
  <ele>343.08</ele>
  <time>2026-09-01T19:52:09Z</time>
  <course>11.03</course>
  <speed>0.0</speed>
  <fix>3d</fix>
</trkpt>
<trkpt lat="-27.274439" lon="151.290064">
  <ele>343.1</ele>
  <time>2026-09-01T19:52:09Z</time>
  <course>270.0</course>
  <speed>0.0</speed>
  <fix>3d</fix>
</trkpt>
<trkpt lat="-27.274439" lon="151.290064">
  <ele>342.89</ele>
  <time>2026-09-01T19:52:09Z</time>
  <course>11.03</course>
  <speed>0.0</speed>
  <fix>3d</fix>
</trkpt>
<trkpt lat="-27.274439" lon="151.290064">
  <ele>343.1</ele>
  <time>2026-09-01T19:52:09Z</time>
  <course>270.0</course>
  <speed>0.0</speed>
  <fix>3d</fix>
</trkpt>
<trkpt lat="-27.274439" lon="151.290064">
  <ele>342.99</ele>
  <time>2026-09-01T19:52:09Z</time>
  <course>11.02</course>
  <speed>0.0</speed>
  <fix>3d</fix>
</trkpt>
<trkpt lat="-27.274439" lon="151.290064">
  <ele>343.1</ele>
  <time>2026-09-01T19:52:09Z</time>
  <course>270.0</course>
  <speed>0.0</speed>
  <fix>3d</fix>
</trkpt>
<trkpt lat="-27.274439" lon="151.290064">
  <ele>342.89</ele>
  <time>2026-09-01T19:52:09Z</time>
  <course>11.02</course>
  <speed>0.0</speed>
  <fix>3d</fix>
</trkpt>
<trkpt lat="-27.274439" lon="151.290064">
  <ele>343.1</ele>
  <time>2026-09-01T19:52:09Z</time>
  <course>270.0</course>
  <speed>0.0</speed>
  <fix>3d</fix>
</trkpt>
<trkpt lat="-27.274439" lon="151.290064">
  <ele>343.19</ele>
  <time>2026-09-01T19:52:10Z</time>
  <course>11.02</course>
  <speed>0.0</speed>
  <fix>3d</fix>
</trkpt>
<trkpt lat="-27.274439" lon="151.290064">
  <ele>343.1</ele>
  <time>2026-09-01T19:52:10Z</time>
  <course>270.0</course>
  <speed>0.0</speed>
  <fix>3d</fix>
</trkpt>
<trkpt lat="-27.274439" lon="151.290064">
  <ele>343.02</ele>
  <time>2026-09-01T19:52:10Z</time>
  <course>11.02</course>
  <speed>0.0</speed>
  <fix>3d</fix>
</trkpt>
<trkpt lat="-27.274439" lon="151.290064">
  <ele>343.1</ele>
  <time>2026-09-01T19:52:10Z</time>
  <course>270.0</course>
  <speed>0.0</speed>
  <fix>3d</fix>
</trkpt>
<trkpt lat="-27.274439" lon="151.290064">
  <ele>343.2</ele>
  <time>2026-09-01T19:52:10Z</time>
  <course>11.01</course>
  <speed>0.0</speed>
  <fix>3d</fix>
</trkpt>
<trkpt lat="-27.274439" lon="151.290064">
  <ele>343.1</ele>
  <time>2026-09-01T19:52:10Z</time>
  <course>270.0</course>
  <speed>0.0</speed>
  <fix>3d</fix>
</trkpt>
<trkpt lat="-27.274439" lon="151.290064">
  <ele>343.22</ele>
  <time>2026-09-01T19:52:10Z</time>
  <course>11.01</course>
  <speed>0.0</speed>
  <fix>3d</fix>
</trkpt>
<trkpt lat="-27.274439" lon="151.290064">
  <ele>343.1</ele>
  <time>2026-09-01T19:52:10Z</time>
  <course>270.0</course>
  <speed>0.0</speed>
  <fix>3d</fix>
</trkpt>
<trkpt lat="-27.274439" lon="151.290064">
  <ele>343.04</ele>
  <time>2026-09-01T19:52:10Z</time>
  <course>11.01</course>
  <speed>0.0</speed>
  <fix>3d</fix>
</trkpt>
<trkpt lat="-27.274439" lon="151.290064">
  <ele>343.1</ele>
  <time>2026-09-01T19:52:10Z</time>
  <course>270.0</course>
  <speed>0.0</speed>
  <fix>3d</fix>
</trkpt>
<trkpt lat="-27.274439" lon="151.290064">
  <ele>343.14</ele>
  <time>2026-09-01T19:52:10Z</time>
  <course>11.01</course>
  <speed>0.0</speed>
  <fix>3d</fix>
</trkpt>
<trkpt lat="-27.274439" lon="151.290064">
  <ele>343.1</ele>
  <time>2026-09-01T19:52:10Z</time>
  <course>270.0</course>
  <speed>0.0</speed>
  <fix>3d</fix>
</trkpt>
<trkpt lat="-27.274439" lon="151.290064">
  <ele>342.98</ele>
  <time>2026-09-01T19:52:10Z</time>
  <course>11.0</course>
  <speed>0.0</speed>
  <fix>3d</fix>
</trkpt>
<trkpt lat="-27.274439" lon="151.290064">
  <ele>343.1</ele>
  <time>2026-09-01T19:52:10Z</time>
  <course>270.0</course>
  <speed>0.0</speed>
  <fix>3d</fix>
</trkpt>
<trkpt lat="-27.274439" lon="151.290064">
  <ele>342.95</ele>
  <time>2026-09-01T19:52:10Z</time>
  <course>11.0</course>
  <speed>0.0</speed>
  <fix>3d</fix>
</trkpt>
<trkpt lat="-27.274439" lon="151.290064">
  <ele>343.1</ele>
  <time>2026-09-01T19:52:10Z</time>
  <course>270.0</course>
  <speed>0.0</speed>
  <fix>3d</fix>
</trkpt>
<trkpt lat="-27.274439" lon="151.290064">
  <ele>343.13</ele>
  <time>2026-09-01T19:52:10Z</time>
  <course>11.0</course>
  <speed>0.0</speed>
  <fix>3d</fix>
</trkpt>
<trkpt lat="-27.274439" lon="151.290064">
  <ele>343.1</ele>
  <time>2026-09-01T19:52:10Z</time>
  <course>270.0</course>
  <speed>0.0</speed>
  <fix>3d</fix>
</trkpt>
<trkpt lat="-27.274439" lon="151.290064">
  <ele>342.97</ele>
  <time>2026-09-01T19:52:10Z</time>
  <course>11.0</course>
  <speed>0.0</speed>
  <fix>3d</fix>
</trkpt>
<trkpt lat="-27.274439" lon="151.290064">
  <ele>343.1</ele>
  <time>2026-09-01T19:52:10Z</time>
  <course>270.0</course>
  <speed>0.0</speed>
  <fix>3d</fix>
</trkpt>
<trkpt lat="-27.274439" lon="151.290064">
  <ele>342.98</ele>
  <time>2026-09-01T19:52:10Z</time>
  <course>10.99</course>
  <speed>0.0</speed>
  <fix>3d</fix>
</trkpt>
<trkpt lat="-27.274439" lon="151.290064">
  <ele>343.1</ele>
  <time>2026-09-01T19:52:10Z</time>
  <course>270.0</course>
  <speed>0.0</speed>
  <fix>3d</fix>
</trkpt>
<trkpt lat="-27.274439" lon="151.290064">
  <ele>343.1</ele>
  <time>2026-09-01T19:52:10Z</time>
  <course>10.99</course>
  <speed>0.0</speed>
  <fix>3d</fix>
</trkpt>
<trkpt lat="-27.274439" lon="151.290064">
  <ele>343.1</ele>
  <time>2026-09-01T19:52:10Z</time>
  <course>270.0</course>
  <speed>0.0</speed>
  <fix>3d</fix>
</trkpt>
<trkpt lat="-27.274439" lon="151.290064">
  <ele>342.83</ele>
  <time>2026-09-01T19:52:10Z</time>
  <course>10.98</course>
  <speed>0.0</speed>
  <fix>3d</fix>
</trkpt>
<trkpt lat="-27.274439" lon="151.290064">
  <ele>343.1</ele>
  <time>2026-09-01T19:52:10Z</time>
  <course>270.0</course>
  <speed>0.0</speed>
  <fix>3d</fix>
</trkpt>
<trkpt lat="-27.274439" lon="151.290064">
  <ele>342.9</ele>
  <time>2026-09-01T19:52:10Z</time>
  <course>10.98</course>
  <speed>0.0</speed>
  <fix>3d</fix>
</trkpt>
<trkpt lat="-27.274439" lon="151.290064">
  <ele>343.1</ele>
  <time>2026-09-01T19:52:10Z</time>
  <course>270.0</course>
  <speed>0.0</speed>
  <fix>3d</fix>
</trkpt>
<trkpt lat="-27.274439" lon="151.290064">
  <ele>342.92</ele>
  <time>2026-09-01T19:52:10Z</time>
  <course>10.97</course>
  <speed>0.0</speed>
  <fix>3d</fix>
</trkpt>
<trkpt lat="-27.274439" lon="151.290064">
  <ele>343.1</ele>
  <time>2026-09-01T19:52:10Z</time>
  <course>270.0</course>
  <speed>0.0</speed>
  <fix>3d</fix>
</trkpt>
<trkpt lat="-27.274439" lon="151.290064">
  <ele>342.88</ele>
  <time>2026-09-01T19:52:10Z</time>
  <course>10.97</course>
  <speed>0.0</speed>
  <fix>3d</fix>
</trkpt>
<trkpt lat="-27.274439" lon="151.290064">
  <ele>343.1</ele>
  <time>2026-09-01T19:52:10Z</time>
  <course>270.0</course>
  <speed>0.0</speed>
  <fix>3d</fix>
</trkpt>
<trkpt lat="-27.274439" lon="151.290064">
  <ele>342.89</ele>
  <time>2026-09-01T19:52:10Z</time>
  <course>10.97</course>
  <speed>0.0</speed>
  <fix>3d</fix>
</trkpt>
<trkpt lat="-27.274439" lon="151.290064">
  <ele>343.1</ele>
  <time>2026-09-01T19:52:10Z</time>
  <course>270.0</course>
  <speed>0.0</speed>
  <fix>3d</fix>
</trkpt>
<trkpt lat="-27.274439" lon="151.290064">
  <ele>343.05</ele>
  <time>2026-09-01T19:52:10Z</time>
  <course>10.96</course>
  <speed>0.0</speed>
  <fix>3d</fix>
</trkpt>
<trkpt lat="-27.274439" lon="151.290064">
  <ele>343.1</ele>
  <time>2026-09-01T19:52:10Z</time>
  <course>270.0</course>
  <speed>0.0</speed>
  <fix>3d</fix>
</trkpt>
<trkpt lat="-27.274439" lon="151.290064">
  <ele>343.06</ele>
  <time>2026-09-01T19:52:10Z</time>
  <course>10.96</course>
  <speed>0.0</speed>
  <fix>3d</fix>
</trkpt>
<trkpt lat="-27.274439" lon="151.290064">
  <ele>343.1</ele>
  <time>2026-09-01T19:52:10Z</time>
  <course>270.0</course>
  <speed>0.0</speed>
  <fix>3d</fix>
</trkpt>
<trkpt lat="-27.274439" lon="151.290064">
  <ele>343.18</ele>
  <time>2026-09-01T19:52:10Z</time>
  <course>10.95</course>
  <speed>0.0</speed>
  <fix>3d</fix>
</trkpt>
<trkpt lat="-27.274439" lon="151.290064">
  <ele>343.1</ele>
  <time>2026-09-01T19:52:10Z</time>
  <course>270.0</course>
  <speed>0.0</speed>
  <fix>3d</fix>
</trkpt>
<trkpt lat="-27.274439" lon="151.290064">
  <ele>342.98</ele>
  <time>2026-09-01T19:52:10Z</time>
  <course>10.95</course>
  <speed>0.0</speed>
  <fix>3d</fix>
</trkpt>
<trkpt lat="-27.274439" lon="151.290064">
  <ele>343.1</ele>
  <time>2026-09-01T19:52:10Z</time>
  <course>270.0</course>
  <speed>0.0</speed>
  <fix>3d</fix>
</trkpt>
<trkpt lat="-27.274439" lon="151.290064">
  <ele>343.05</ele>
  <time>2026-09-01T19:52:10Z</time>
  <course>10.95</course>
  <speed>0.0</speed>
  <fix>3d</fix>
</trkpt>
<trkpt lat="-27.274439" lon="151.290064">
  <ele>343.1</ele>
  <time>2026-09-01T19:52:10Z</time>
  <course>270.0</course>
  <speed>0.0</speed>
  <fix>3d</fix>
</trkpt>
<trkpt lat="-27.274439" lon="151.290064">
  <ele>343.02</ele>
  <time>2026-09-01T19:52:10Z</time>
  <course>10.94</course>
  <speed>0.0</speed>
  <fix>3d</fix>
</trkpt>
<trkpt lat="-27.274439" lon="151.290064">
  <ele>343.1</ele>
  <time>2026-09-01T19:52:10Z</time>
  <course>270.0</course>
  <speed>0.0</speed>
  <fix>3d</fix>
</trkpt>
<trkpt lat="-27.274439" lon="151.290064">
  <ele>343.12</ele>
  <time>2026-09-01T19:52:10Z</time>
  <course>10.94</course>
  <speed>0.0</speed>
  <fix>3d</fix>
</trkpt>
<trkpt lat="-27.274439" lon="151.290064">
  <ele>343.1</ele>
  <time>2026-09-01T19:52:10Z</time>
  <course>270.0</course>
  <speed>0.0</speed>
  <fix>3d</fix>
</trkpt>
<trkpt lat="-27.274439" lon="151.290064">
  <ele>343.0</ele>
  <time>2026-09-01T19:52:10Z</time>
  <course>10.94</course>
  <speed>0.0</speed>
  <fix>3d</fix>
</trkpt>
<trkpt lat="-27.274439" lon="151.290064">
  <ele>343.1</ele>
  <time>2026-09-01T19:52:10Z</time>
  <course>270.0</course>
  <speed>0.0</speed>
  <fix>3d</fix>
</trkpt>
<trkpt lat="-27.274439" lon="151.290064">
  <ele>343.01</ele>
  <time>2026-09-01T19:52:10Z</time>
  <course>11.02</course>
  <speed>0.0</speed>
  <fix>3d</fix>
</trkpt>
<trkpt lat="-27.274439" lon="151.290064">
  <ele>343.1</ele>
  <time>2026-09-01T19:52:10Z</time>
  <course>270.0</course>
  <speed>0.0</speed>
  <fix>3d</fix>
</trkpt>
<trkpt lat="-27.274439" lon="151.290064">
  <ele>343.01</ele>
  <time>2026-09-01T19:52:10Z</time>
  <course>11.02</course>
  <speed>0.0</speed>
  <fix>3d</fix>
</trkpt>
<trkpt lat="-27.274439" lon="151.290064">
  <ele>343.1</ele>
  <time>2026-09-01T19:52:10Z</time>
  <course>270.0</course>
  <speed>0.0</speed>
  <fix>3d</fix>
</trkpt>
<trkpt lat="-27.274439" lon="151.290064">
  <ele>343.01</ele>
  <time>2026-09-01T19:52:10Z</time>
  <course>11.02</course>
  <speed>0.0</speed>
  <fix>3d</fix>
</trkpt>
<trkpt lat="-27.274439" lon="151.290064">
  <ele>343.1</ele>
  <time>2026-09-01T19:52:10Z</time>
  <course>270.0</course>
  <speed>0.0</speed>
  <fix>3d</fix>
</trkpt>
<trkpt lat="-27.274439" lon="151.290064">
  <ele>343.01</ele>
  <time>2026-09-01T19:52:10Z</time>
  <course>11.02</course>
  <speed>0.0</speed>
  <fix>3d</fix>
</trkpt>
<trkpt lat="-27.274439" lon="151.290064">
  <ele>343.1</ele>
  <time>2026-09-01T19:52:10Z</time>
  <course>270.0</course>
  <speed>0.0</speed>
  <fix>3d</fix>
</trkpt>
<trkpt lat="-27.274439" lon="151.290064">
  <ele>343.0</ele>
  <time>2026-09-01T19:52:10Z</time>
  <course>11.02</course>
  <speed>0.0</speed>
  <fix>3d</fix>
</trkpt>
<trkpt lat="-27.274439" lon="151.290064">
  <ele>343.1</ele>
  <time>2026-09-01T19:52:10Z</time>
  <course>270.0</course>
  <speed>0.0</speed>
  <fix>3d</fix>
</trkpt>
<trkpt lat="-27.274439" lon="151.290064">
  <ele>343.0</ele>
  <time>2026-09-01T19:52:10Z</time>
  <course>11.02</course>
  <speed>0.0</speed>
  <fix>3d</fix>
</trkpt>
<trkpt lat="-27.274439" lon="151.290064">
  <ele>343.1</ele>
  <time>2026-09-01T19:52:10Z</time>
  <course>270.0</course>
  <speed>0.0</speed>
  <fix>3d</fix>
</trkpt>
<trkpt lat="-27.274439" lon="151.290064">
  <ele>343.0</ele>
  <time>2026-09-01T19:52:10Z</time>
  <course>11.02</course>
  <speed>0.0</speed>
  <fix>3d</fix>
</trkpt>
<trkpt lat="-27.274439" lon="151.290064">
  <ele>343.1</ele>
  <time>2026-09-01T19:52:10Z</time>
  <course>270.0</course>
  <speed>0.0</speed>
  <fix>3d</fix>
</trkpt>
<trkpt lat="-27.274439" lon="151.290064">
  <ele>343.0</ele>
  <time>2026-09-01T19:52:10Z</time>
  <course>11.02</course>
  <speed>0.0</speed>
  <fix>3d</fix>
</trkpt>
<trkpt lat="-27.274439" lon="151.290064">
  <ele>343.1</ele>
  <time>2026-09-01T19:52:10Z</time>
  <course>270.0</course>
  <speed>0.0</speed>
  <fix>3d</fix>
</trkpt>
<trkpt lat="-27.274439" lon="151.290064">
  <ele>343.0</ele>
  <time>2026-09-01T19:52:10Z</time>
  <course>11.02</course>
  <speed>0.0</speed>
  <fix>3d</fix>
</trkpt>
<trkpt lat="-27.274439" lon="151.290064">
  <ele>343.1</ele>
  <time>2026-09-01T19:52:10Z</time>
  <course>270.0</course>
  <speed>0.0</speed>
  <fix>3d</fix>
</trkpt>
<trkpt lat="-27.274439" lon="151.290064">
  <ele>343.01</ele>
  <time>2026-09-01T19:52:10Z</time>
  <course>11.02</course>
  <speed>0.0</speed>
  <fix>3d</fix>
</trkpt>
<trkpt lat="-27.274439" lon="151.290064">
  <ele>343.1</ele>
  <time>2026-09-01T19:52:10Z</time>
  <course>270.0</course>
  <speed>0.0</speed>
  <fix>3d</fix>
</trkpt>
<trkpt lat="-27.274439" lon="151.290064">
  <ele>343.09</ele>
  <time>2026-09-01T19:52:10Z</time>
  <course>11.02</course>
  <speed>0.01</speed>
  <fix>3d</fix>
</trkpt>
<trkpt lat="-27.274439" lon="151.290064">
  <ele>343.1</ele>
  <time>2026-09-01T19:52:10Z</time>
  <course>270.0</course>
  <speed>0.0</speed>
  <fix>3d</fix>
</trkpt>
<trkpt lat="-27.274439" lon="151.290064">
  <ele>343.09</ele>
  <time>2026-09-01T19:52:10Z</time>
  <course>11.02</course>
  <speed>0.01</speed>
  <fix>3d</fix>
</trkpt>
<trkpt lat="-27.274439" lon="151.290064">
  <ele>343.1</ele>
  <time>2026-09-01T19:52:10Z</time>
  <course>270.0</course>
  <speed>0.0</speed>
  <fix>3d</fix>
</trkpt>
<trkpt lat="-27.274439" lon="151.290064">
  <ele>343.09</ele>
  <time>2026-09-01T19:52:10Z</time>
  <course>11.02</course>
  <speed>0.01</speed>
  <fix>3d</fix>
</trkpt>
<trkpt lat="-27.274439" lon="151.290064">
  <ele>343.1</ele>
  <time>2026-09-01T19:52:10Z</time>
  <course>270.0</course>
  <speed>0.0</speed>
  <fix>3d</fix>
</trkpt>
<trkpt lat="-27.274439" lon="151.290064">
  <ele>343.09</ele>
  <time>2026-09-01T19:52:10Z</time>
  <course>11.01</course>
  <speed>0.01</speed>
  <fix>3d</fix>
</trkpt>
<trkpt lat="-27.274439" lon="151.290064">
  <ele>343.1</ele>
  <time>2026-09-01T19:52:10Z</time>
  <course>270.0</course>
  <speed>0.0</speed>
  <fix>3d</fix>
</trkpt>
<trkpt lat="-27.274439" lon="151.290064">
  <ele>343.08</ele>
  <time>2026-09-01T19:52:10Z</time>
  <course>11.01</course>
  <speed>0.01</speed>
  <fix>3d</fix>
</trkpt>
<trkpt lat="-27.274439" lon="151.290064">
  <ele>343.1</ele>
  <time>2026-09-01T19:52:10Z</time>
  <course>270.0</course>
  <speed>0.0</speed>
  <fix>3d</fix>
</trkpt>
<trkpt lat="-27.274439" lon="151.290064">
  <ele>343.08</ele>
  <time>2026-09-01T19:52:10Z</time>
  <course>11.01</course>
  <speed>0.01414213562373095</speed>
  <fix>3d</fix>
</trkpt>
<trkpt lat="-27.274439" lon="151.290064">
  <ele>343.1</ele>
  <time>2026-09-01T19:52:10Z</time>
  <course>270.0</course>
  <speed>0.0</speed>
  <fix>3d</fix>
</trkpt>
<trkpt lat="-27.274439" lon="151.290064">
  <ele>343.07</ele>
  <time>2026-09-01T19:52:10Z</time>
  <course>11.01</course>
  <speed>0.01414213562373095</speed>
  <fix>3d</fix>
</trkpt>
<trkpt lat="-27.274439" lon="151.290064">
  <ele>343.1</ele>
  <time>2026-09-01T19:52:10Z</time>
  <course>270.0</course>
  <speed>0.0</speed>
  <fix>3d</fix>
</trkpt>
<trkpt lat="-27.274439" lon="151.290064">
  <ele>343.06</ele>
  <time>2026-09-01T19:52:10Z</time>
  <course>11.01</course>
  <speed>0.01414213562373095</speed>
  <fix>3d</fix>
</trkpt>
<trkpt lat="-27.274439" lon="151.290064">
  <ele>343.1</ele>
  <time>2026-09-01T19:52:10Z</time>
  <course>270.0</course>
  <speed>0.0</speed>
  <fix>3d</fix>
</trkpt>
<trkpt lat="-27.274439" lon="151.290064">
  <ele>343.06</ele>
  <time>2026-09-01T19:52:10Z</time>
  <course>11.01</course>
  <speed>0.01414213562373095</speed>
  <fix>3d</fix>
</trkpt>
<trkpt lat="-27.274439" lon="151.290064">
  <ele>343.1</ele>
  <time>2026-09-01T19:52:10Z</time>
  <course>270.0</course>
  <speed>0.0</speed>
  <fix>3d</fix>
</trkpt>
<trkpt lat="-27.274439" lon="151.290064">
  <ele>343.05</ele>
  <time>2026-09-01T19:52:10Z</time>
  <course>11.01</course>
  <speed>0.01414213562373095</speed>
  <fix>3d</fix>
</trkpt>
<trkpt lat="-27.274439" lon="151.290064">
  <ele>343.1</ele>
  <time>2026-09-01T19:52:10Z</time>
  <course>270.0</course>
  <speed>0.0</speed>
  <fix>3d</fix>
</trkpt>
<trkpt lat="-27.274439" lon="151.290064">
  <ele>343.05</ele>
  <time>2026-09-01T19:52:10Z</time>
  <course>11.01</course>
  <speed>0.01414213562373095</speed>
  <fix>3d</fix>
</trkpt>
<trkpt lat="-27.274439" lon="151.290064">
  <ele>343.1</ele>
  <time>2026-09-01T19:52:10Z</time>
  <course>143.0</course>
  <speed>0.0</speed>
  <fix>3d</fix>
</trkpt>
<trkpt lat="-27.274439" lon="151.290064">
  <ele>343.05</ele>
  <time>2026-09-01T19:52:10Z</time>
  <course>11.01</course>
  <speed>0.01414213562373095</speed>
  <fix>3d</fix>
</trkpt>
<trkpt lat="-27.274439" lon="151.290064">
  <ele>343.04</ele>
  <time>2026-09-01T19:52:10Z</time>
  <course>11.01</course>
  <speed>0.01414213562373095</speed>
  <fix>3d</fix>
</trkpt>
<trkpt lat="-27.274439" lon="151.290064">
  <ele>343.1</ele>
  <time>2026-09-01T19:52:10Z</time>
  <course>143.0</course>
  <speed>0.0</speed>
  <fix>3d</fix>
</trkpt>
<trkpt lat="-27.274439" lon="151.290064">
  <ele>343.03</ele>
  <time>2026-09-01T19:52:10Z</time>
  <course>11.01</course>
  <speed>0.01414213562373095</speed>
  <fix>3d</fix>
</trkpt>
<trkpt lat="-27.274439" lon="151.290064">
  <ele>343.1</ele>
  <time>2026-09-01T19:52:10Z</time>
  <course>138.71</course>
  <speed>0.0</speed>
  <fix>3d</fix>
</trkpt>
<trkpt lat="-27.274439" lon="151.290064">
  <ele>343.03</ele>
  <time>2026-09-01T19:52:10Z</time>
  <course>11.01</course>
  <speed>0.01414213562373095</speed>
  <fix>3d</fix>
</trkpt>
<trkpt lat="-27.274439" lon="151.290064">
  <ele>343.03</ele>
  <time>2026-09-01T19:52:10Z</time>
  <course>11.0</course>
  <speed>0.01414213562373095</speed>
  <fix>3d</fix>
</trkpt>
<trkpt lat="-27.274439" lon="151.290064">
  <ele>343.1</ele>
  <time>2026-09-01T19:52:10Z</time>
  <course>138.71</course>
  <speed>0.0</speed>
  <fix>3d</fix>
</trkpt>
<trkpt lat="-27.274439" lon="151.290064">
  <ele>343.03</ele>
  <time>2026-09-01T19:52:10Z</time>
  <course>11.0</course>
  <speed>0.01414213562373095</speed>
  <fix>3d</fix>
</trkpt>
<trkpt lat="-27.274439" lon="151.290064">
  <ele>343.02</ele>
  <time>2026-09-01T19:52:10Z</time>
  <course>11.0</course>
  <speed>0.01414213562373095</speed>
  <fix>3d</fix>
</trkpt>
<trkpt lat="-27.274439" lon="151.290064">
  <ele>343.1</ele>
  <time>2026-09-01T19:52:10Z</time>
  <course>134.48</course>
  <speed>0.0</speed>
  <fix>3d</fix>
</trkpt>
<trkpt lat="-27.274439" lon="151.290064">
  <ele>343.02</ele>
  <time>2026-09-01T19:52:10Z</time>
  <course>11.0</course>
  <speed>0.01414213562373095</speed>
  <fix>3d</fix>
</trkpt>
<trkpt lat="-27.274439" lon="151.290064">
  <ele>343.01</ele>
  <time>2026-09-01T19:52:10Z</time>
  <course>11.0</course>
  <speed>0.01414213562373095</speed>
  <fix>3d</fix>
</trkpt>
<trkpt lat="-27.274439" lon="151.290064">
  <ele>343.1</ele>
  <time>2026-09-01T19:52:10Z</time>
  <course>134.48</course>
  <speed>0.0</speed>
  <fix>3d</fix>
</trkpt>
<trkpt lat="-27.274439" lon="151.290064">
  <ele>343.01</ele>
  <time>2026-09-01T19:52:10Z</time>
  <course>11.0</course>
  <speed>0.01414213562373095</speed>
  <fix>3d</fix>
</trkpt>
<trkpt lat="-27.274439" lon="151.290064">
  <ele>343.01</ele>
  <time>2026-09-01T19:52:10Z</time>
  <course>11.0</course>
  <speed>0.01414213562373095</speed>
  <fix>3d</fix>
</trkpt>
<trkpt lat="-27.274439" lon="151.290064">
  <ele>343.1</ele>
  <time>2026-09-01T19:52:10Z</time>
  <course>321.97</course>
  <speed>0.0</speed>
  <fix>3d</fix>
</trkpt>
<trkpt lat="-27.274439" lon="151.290064">
  <ele>343.01</ele>
  <time>2026-09-01T19:52:10Z</time>
  <course>11.0</course>
  <speed>0.01414213562373095</speed>
  <fix>3d</fix>
</trkpt>
<trkpt lat="-27.274439" lon="151.290064">
  <ele>343.0</ele>
  <time>2026-09-01T19:52:10Z</time>
  <course>11.0</course>
  <speed>0.01414213562373095</speed>
  <fix>3d</fix>
</trkpt>
<trkpt lat="-27.274439" lon="151.290064">
  <ele>343.1</ele>
  <time>2026-09-01T19:52:10Z</time>
  <course>321.97</course>
  <speed>0.0</speed>
  <fix>3d</fix>
</trkpt>
<trkpt lat="-27.274439" lon="151.290064">
  <ele>343.0</ele>
  <time>2026-09-01T19:52:10Z</time>
  <course>11.0</course>
  <speed>0.01</speed>
  <fix>3d</fix>
</trkpt>
<trkpt lat="-27.274439" lon="151.290064">
  <ele>343.1</ele>
  <time>2026-09-01T19:52:10Z</time>
  <course>308.32</course>
  <speed>0.0</speed>
  <fix>3d</fix>
</trkpt>
<trkpt lat="-27.274439" lon="151.290064">
  <ele>343.0</ele>
  <time>2026-09-01T19:52:10Z</time>
  <course>11.0</course>
  <speed>0.01</speed>
  <fix>3d</fix>
</trkpt>
<trkpt lat="-27.274439" lon="151.290064">
  <ele>342.99</ele>
  <time>2026-09-01T19:52:10Z</time>
  <course>11.0</course>
  <speed>0.01</speed>
  <fix>3d</fix>
</trkpt>
<trkpt lat="-27.274439" lon="151.290064">
  <ele>343.1</ele>
  <time>2026-09-01T19:52:10Z</time>
  <course>308.32</course>
  <speed>0.0</speed>
  <fix>3d</fix>
</trkpt>
<trkpt lat="-27.274439" lon="151.290064">
  <ele>342.99</ele>
  <time>2026-09-01T19:52:10Z</time>
  <course>11.0</course>
  <speed>0.01</speed>
  <fix>3d</fix>
</trkpt>
<trkpt lat="-27.274439" lon="151.290064">
  <ele>342.99</ele>
  <time>2026-09-01T19:52:10Z</time>
  <course>11.0</course>
  <speed>0.01</speed>
  <fix>3d</fix>
</trkpt>
<trkpt lat="-27.274439" lon="151.290064">
  <ele>343.1</ele>
  <time>2026-09-01T19:52:10Z</time>
  <course>314.79</course>
  <speed>0.0</speed>
  <fix>3d</fix>
</trkpt>
<trkpt lat="-27.274439" lon="151.290064">
  <ele>342.99</ele>
  <time>2026-09-01T19:52:10Z</time>
  <course>11.0</course>
  <speed>0.01</speed>
  <fix>3d</fix>
</trkpt>
<trkpt lat="-27.274439" lon="151.290064">
  <ele>342.99</ele>
  <time>2026-09-01T19:52:10Z</time>
  <course>11.0</course>
  <speed>0.01</speed>
  <fix>3d</fix>
</trkpt>
<trkpt lat="-27.274439" lon="151.290064">
  <ele>343.1</ele>
  <time>2026-09-01T19:52:10Z</time>
  <course>314.79</course>
  <speed>0.0</speed>
  <fix>3d</fix>
</trkpt>
<trkpt lat="-27.274439" lon="151.290064">
  <ele>343.0</ele>
  <time>2026-09-01T19:52:10Z</time>
  <course>11.0</course>
  <speed>0.01</speed>
  <fix>3d</fix>
</trkpt>
<trkpt lat="-27.274439" lon="151.290064">
  <ele>343.01</ele>
  <time>2026-09-01T19:52:10Z</time>
  <course>11.0</course>
  <speed>0.01</speed>
  <fix>3d</fix>
</trkpt>
<trkpt lat="-27.274439" lon="151.290064">
  <ele>343.1</ele>
  <time>2026-09-01T19:52:10Z</time>
  <course>6.46</course>
  <speed>0.0</speed>
  <fix>3d</fix>
</trkpt>
<trkpt lat="-27.274439" lon="151.290064">
  <ele>343.01</ele>
  <time>2026-09-01T19:52:10Z</time>
  <course>11.0</course>
  <speed>0.01</speed>
  <fix>3d</fix>
</trkpt>
<trkpt lat="-27.274439" lon="151.290064">
  <ele>343.05</ele>
  <time>2026-09-01T19:52:10Z</time>
  <course>11.0</course>
  <speed>0.0</speed>
  <fix>3d</fix>
</trkpt>
<trkpt lat="-27.274439" lon="151.290064">
  <ele>343.1</ele>
  <time>2026-09-01T19:52:10Z</time>
  <course>6.46</course>
  <speed>0.0</speed>
  <fix>3d</fix>
</trkpt>
<trkpt lat="-27.274439" lon="151.290064">
  <ele>343.05</ele>
  <time>2026-09-01T19:52:10Z</time>
  <course>11.0</course>
  <speed>0.0</speed>
  <fix>3d</fix>
</trkpt>
<trkpt lat="-27.274439" lon="151.290064">
  <ele>343.09</ele>
  <time>2026-09-01T19:52:10Z</time>
  <course>10.99</course>
  <speed>0.0</speed>
  <fix>3d</fix>
</trkpt>
<trkpt lat="-27.274439" lon="151.290064">
  <ele>343.13</ele>
  <time>2026-09-01T19:52:10Z</time>
  <course>7.65</course>
  <speed>0.0</speed>
  <fix>3d</fix>
</trkpt>
<trkpt lat="-27.274439" lon="151.290064">
  <ele>343.11</ele>
  <time>2026-09-01T19:52:10Z</time>
  <course>11.0</course>
  <speed>0.0</speed>
  <fix>3d</fix>
</trkpt>
<trkpt lat="-27.274439" lon="151.290064">
  <ele>343.16</ele>
  <time>2026-09-01T19:52:10Z</time>
  <course>11.0</course>
  <speed>0.0</speed>
  <fix>3d</fix>
</trkpt>
<trkpt lat="-27.274439" lon="151.290064">
  <ele>343.13</ele>
  <time>2026-09-01T19:52:10Z</time>
  <course>7.65</course>
  <speed>0.0</speed>
  <fix>3d</fix>
</trkpt>
<trkpt lat="-27.274439" lon="151.290064">
  <ele>343.2</ele>
  <time>2026-09-01T19:52:10Z</time>
  <course>11.01</course>
  <speed>0.01414213562373095</speed>
  <fix>3d</fix>
</trkpt>
<trkpt lat="-27.274439" lon="151.290064">
  <ele>343.31</ele>
  <time>2026-09-01T19:52:10Z</time>
  <course>11.02</course>
  <speed>0.0412310562561766</speed>
  <fix>3d</fix>
</trkpt>
<trkpt lat="-27.274439" lon="151.290064">
  <ele>343.22</ele>
  <time>2026-09-01T19:52:10Z</time>
  <course>1.09</course>
  <speed>0.01</speed>
  <fix>3d</fix>
</trkpt>
<trkpt lat="-27.274439" lon="151.290064">
  <ele>343.37</ele>
  <time>2026-09-01T19:52:10Z</time>
  <course>11.03</course>
  <speed>0.05099019513592785</speed>
  <fix>3d</fix>
</trkpt>
<trkpt lat="-27.274439" lon="151.290064">
  <ele>343.51</ele>
  <time>2026-09-01T19:52:10Z</time>
  <course>11.04</course>
  <speed>0.08062257748298549</speed>
  <fix>3d</fix>
</trkpt>
<trkpt lat="-27.274439" lon="151.290064">
  <ele>343.22</ele>
  <time>2026-09-01T19:52:10Z</time>
  <course>1.09</course>
  <speed>0.01</speed>
  <fix>3d</fix>
</trkpt>
<trkpt lat="-27.274439" lon="151.290064">
  <ele>343.54</ele>
  <time>2026-09-01T19:52:10Z</time>
  <course>11.04</course>
  <speed>0.08062257748298549</speed>
  <fix>3d</fix>
</trkpt>
<trkpt lat="-27.2744389" lon="151.290064">
  <ele>343.72</ele>
  <time>2026-09-01T19:52:10Z</time>
  <course>11.03</course>
  <speed>0.12165525060596438</speed>
  <fix>3d</fix>
</trkpt>
<trkpt lat="-27.274439" lon="151.290064">
  <ele>343.45</ele>
  <time>2026-09-01T19:52:10Z</time>
  <course>1.07</course>
  <speed>0.05</speed>
  <fix>3d</fix>
</trkpt>
<trkpt lat="-27.2744388" lon="151.290064">
  <ele>343.9</ele>
  <time>2026-09-01T19:52:10Z</time>
  <course>11.01</course>
  <speed>0.15132745950421556</speed>
  <fix>3d</fix>
</trkpt>
<trkpt lat="-27.2744387" lon="151.290064">
  <ele>343.94</ele>
  <time>2026-09-01T19:52:10Z</time>
  <course>11.0</course>
  <speed>0.16124515496597097</speed>
  <fix>3d</fix>
</trkpt>
<trkpt lat="-27.274439" lon="151.290064">
  <ele>343.45</ele>
  <time>2026-09-01T19:52:10Z</time>
  <course>1.07</course>
  <speed>0.05</speed>
  <fix>3d</fix>
</trkpt>
<trkpt lat="-27.2744387" lon="151.290064">
  <ele>344.0</ele>
  <time>2026-09-01T19:52:10Z</time>
  <course>11.0</course>
  <speed>0.1711724276862369</speed>
  <fix>3d</fix>
</trkpt>
<trkpt lat="-27.2744386" lon="151.290064">
  <ele>344.16</ele>
  <time>2026-09-01T19:52:10Z</time>
  <course>10.97</course>
  <speed>0.191049731745428</speed>
  <fix>3d</fix>
</trkpt>
<trkpt lat="-27.2744389" lon="151.290064">
  <ele>343.84</ele>
  <time>2026-09-01T19:52:10Z</time>
  <course>1.84</course>
  <speed>0.13</speed>
  <fix>3d</fix>
</trkpt>
<trkpt lat="-27.2744385" lon="151.290064">
  <ele>344.25</ele>
  <time>2026-09-01T19:52:10Z</time>
  <course>10.95</course>
  <speed>0.2109502310972899</speed>
  <fix>3d</fix>
</trkpt>
<trkpt lat="-27.2744384" lon="151.2900641">
  <ele>344.37</ele>
  <time>2026-09-01T19:52:10Z</time>
  <course>10.93</course>
  <speed>0.23194827009486402</speed>
  <fix>3d</fix>
</trkpt>
<trkpt lat="-27.2744389" lon="151.290064">
  <ele>343.84</ele>
  <time>2026-09-01T19:52:10Z</time>
  <course>1.84</course>
  <speed>0.13</speed>
  <fix>3d</fix>
</trkpt>
<trkpt lat="-27.2744382" lon="151.2900641">
  <ele>344.59</ele>
  <time>2026-09-01T19:52:10Z</time>
  <course>10.89</course>
  <speed>0.261725046566048</speed>
  <fix>3d</fix>
</trkpt>
<trkpt lat="-27.2744385" lon="151.290064">
  <ele>344.29</ele>
  <time>2026-09-01T19:52:10Z</time>
  <course>2.46</course>
  <speed>0.21</speed>
  <fix>3d</fix>
</trkpt>
<trkpt lat="-27.2744379" lon="151.2900641">
  <ele>344.8</ele>
  <time>2026-09-01T19:52:10Z</time>
  <course>10.85</course>
  <speed>0.291547594742265</speed>
  <fix>3d</fix>
</trkpt>
<trkpt lat="-27.2744385" lon="151.290064">
  <ele>344.29</ele>
  <time>2026-09-01T19:52:10Z</time>
  <course>2.46</course>
  <speed>0.21</speed>
  <fix>3d</fix>
</trkpt>
<trkpt lat="-27.2744379" lon="151.2900641">
  <ele>344.8</ele>
  <time>2026-09-01T19:52:10Z</time>
  <course>10.85</course>
  <speed>0.3014962686336267</speed>
  <fix>3d</fix>
</trkpt>
<trkpt lat="-27.2744376" lon="151.2900641">
  <ele>345.0</ele>
  <time>2026-09-01T19:52:10Z</time>
  <course>10.35</course>
  <speed>0.32140317359976395</speed>
  <fix>3d</fix>
</trkpt>
<trkpt lat="-27.2744381" lon="151.290064">
  <ele>344.72</ele>
  <time>2026-09-01T19:52:10Z</time>
  <course>2.82</course>
  <speed>0.28</speed>
  <fix>3d</fix>
</trkpt>
<trkpt lat="-27.2744376" lon="151.2900641">
  <ele>345.01</ele>
  <time>2026-09-01T19:52:10Z</time>
  <course>10.35</course>
  <speed>0.32140317359976395</speed>
  <fix>3d</fix>
</trkpt>
<trkpt lat="-27.2744373" lon="151.2900641">
  <ele>345.19</ele>
  <time>2026-09-01T19:52:10Z</time>
  <course>10.34</course>
  <speed>0.34132096331752027</speed>
  <fix>3d</fix>
</trkpt>
<trkpt lat="-27.2744381" lon="151.290064">
  <ele>344.72</ele>
  <time>2026-09-01T19:52:10Z</time>
  <course>2.82</course>
  <speed>0.28</speed>
  <fix>3d</fix>
</trkpt>
<trkpt lat="-27.2744373" lon="151.2900641">
  <ele>345.22</ele>
  <time>2026-09-01T19:52:10Z</time>
  <course>10.34</course>
  <speed>0.35128336140500593</speed>
  <fix>3d</fix>
</trkpt>
<trkpt lat="-27.274437" lon="151.2900641">
  <ele>345.37</ele>
  <time>2026-09-01T19:52:10Z</time>
  <course>10.34</course>
  <speed>0.3712142238654117</speed>
  <fix>3d</fix>
</trkpt>
<trkpt lat="-27.2744376" lon="151.290064">
  <ele>345.13</ele>
  <time>2026-09-01T19:52:10Z</time>
  <course>3.02</course>
  <speed>0.33</speed>
  <fix>3d</fix>
</trkpt>
<trkpt lat="-27.2744366" lon="151.2900642">
  <ele>345.54</ele>
  <time>2026-09-01T19:52:10Z</time>
  <course>10.36</course>
  <speed>0.38118237105091834</speed>
  <fix>3d</fix>
</trkpt>
<trkpt lat="-27.2744376" lon="151.290064">
  <ele>345.13</ele>
  <time>2026-09-01T19:52:10Z</time>
  <course>3.02</course>
  <speed>0.33</speed>
  <fix>3d</fix>
</trkpt>
<trkpt lat="-27.2744366" lon="151.2900642">
  <ele>345.55</ele>
  <time>2026-09-01T19:52:10Z</time>
  <course>10.36</course>
  <speed>0.38118237105091834</speed>
  <fix>3d</fix>
</trkpt>
<trkpt lat="-27.2744363" lon="151.2900642">
  <ele>345.7</ele>
  <time>2026-09-01T19:52:10Z</time>
  <course>10.38</course>
  <speed>0.4011234224026316</speed>
  <fix>3d</fix>
</trkpt>
<trkpt lat="-27.2744369" lon="151.290064">
  <ele>345.5</ele>
  <time>2026-09-01T19:52:10Z</time>
  <course>3.04</course>
  <speed>0.38</speed>
  <fix>3d</fix>
</trkpt>
<trkpt lat="-27.2744361" lon="151.2900642">
  <ele>345.76</ele>
  <time>2026-09-01T19:52:10Z</time>
  <course>10.39</course>
  <speed>0.4011234224026316</speed>
  <fix>3d</fix>
</trkpt>
<trkpt lat="-27.2744359" lon="151.2900642">
  <ele>345.85</ele>
  <time>2026-09-01T19:52:10Z</time>
  <course>10.4</course>
  <speed>0.41109609582188933</speed>
  <fix>3d</fix>
</trkpt>
<trkpt lat="-27.2744369" lon="151.290064">
  <ele>345.5</ele>
  <time>2026-09-01T19:52:10Z</time>
  <course>3.04</course>
  <speed>0.38</speed>
  <fix>3d</fix>
</trkpt>
<trkpt lat="-27.2744358" lon="151.2900642">
  <ele>345.89</ele>
  <time>2026-09-01T19:52:10Z</time>
  <course>10.41</course>
  <speed>0.41109609582188933</speed>
  <fix>3d</fix>
</trkpt>
<trkpt lat="-27.2744355" lon="151.2900642">
  <ele>345.99</ele>
  <time>2026-09-01T19:52:10Z</time>
  <course>10.42</course>
  <speed>0.42107006542854597</speed>
  <fix>3d</fix>
</trkpt>
<trkpt lat="-27.2744362" lon="151.2900641">
  <ele>345.83</ele>
  <time>2026-09-01T19:52:10Z</time>
  <course>2.92</course>
  <speed>0.41</speed>
  <fix>3d</fix>
</trkpt>
<trkpt lat="-27.2744354" lon="151.2900642">
  <ele>346.02</ele>
  <time>2026-09-01T19:52:10Z</time>
  <course>10.43</course>
  <speed>0.42107006542854597</speed>
  <fix>3d</fix>
</trkpt>
<trkpt lat="-27.2744351" lon="151.2900642">
  <ele>346.12</ele>
  <time>2026-09-01T19:52:10Z</time>
  <course>10.44</course>
  <speed>0.4310452412450461</speed>
  <fix>3d</fix>
</trkpt>
<trkpt lat="-27.2744362" lon="151.2900641">
  <ele>345.83</ele>
  <time>2026-09-01T19:52:10Z</time>
  <course>2.92</course>
  <speed>0.41</speed>
  <fix>3d</fix>
</trkpt>
<trkpt lat="-27.274435" lon="151.2900642">
  <ele>346.15</ele>
  <time>2026-09-01T19:52:10Z</time>
  <course>10.45</course>
  <speed>0.4310452412450461</speed>
  <fix>3d</fix>
</trkpt>
<trkpt lat="-27.2744347" lon="151.2900642">
  <ele>346.24</ele>
  <time>2026-09-01T19:52:10Z</time>
  <course>10.46</course>
  <speed>0.4410215414239989</speed>
  <fix>3d</fix>
</trkpt>
<trkpt lat="-27.2744355" lon="151.2900641">
  <ele>346.12</ele>
  <time>2026-09-01T19:52:10Z</time>
  <course>2.71</course>
  <speed>0.44</speed>
  <fix>3d</fix>
</trkpt>
<trkpt lat="-27.2744344" lon="151.2900642">
  <ele>346.32</ele>
  <time>2026-09-01T19:52:10Z</time>
  <course>10.47</course>
  <speed>0.45044422518220834</speed>
  <fix>3d</fix>
</trkpt>
<trkpt lat="-27.2744343" lon="151.2900642">
  <ele>346.35</ele>
  <time>2026-09-01T19:52:10Z</time>
  <course>10.47</course>
  <speed>0.45044422518220834</speed>
  <fix>3d</fix>
</trkpt>
<trkpt lat="-27.2744355" lon="151.2900641">
  <ele>346.12</ele>
  <time>2026-09-01T19:52:10Z</time>
  <course>2.71</course>
  <speed>0.44</speed>
  <fix>3d</fix>
</trkpt>
<trkpt lat="-27.2744343" lon="151.2900642">
  <ele>346.35</ele>
  <time>2026-09-01T19:52:10Z</time>
  <course>10.47</course>
  <speed>0.45044422518220834</speed>
  <fix>3d</fix>
</trkpt>
<trkpt lat="-27.2744339" lon="151.2900643">
  <ele>346.45</ele>
  <time>2026-09-01T19:52:10Z</time>
  <course>10.48</course>
  <speed>0.4604345773288535</speed>
  <fix>3d</fix>
</trkpt>
<trkpt lat="-27.2744346" lon="151.2900642">
  <ele>346.36</ele>
  <time>2026-09-01T19:52:10Z</time>
  <course>2.43</course>
  <speed>0.46</speed>
  <fix>3d</fix>
</trkpt>
<trkpt lat="-27.2744339" lon="151.2900643">
  <ele>346.47</ele>
  <time>2026-09-01T19:52:10Z</time>
  <course>10.48</course>
  <speed>0.4604345773288535</speed>
  <fix>3d</fix>
</trkpt>
<trkpt lat="-27.2744335" lon="151.2900643">
  <ele>346.56</ele>
  <time>2026-09-01T19:52:10Z</time>
  <course>10.48</course>
  <speed>0.4604345773288535</speed>
  <fix>3d</fix>
</trkpt>
<trkpt lat="-27.2744346" lon="151.2900642">
  <ele>346.36</ele>
  <time>2026-09-01T19:52:10Z</time>
  <course>2.43</course>
  <speed>0.46</speed>
  <fix>3d</fix>
</trkpt>
<trkpt lat="-27.2744335" lon="151.2900643">
  <ele>346.56</ele>
  <time>2026-09-01T19:52:10Z</time>
  <course>10.48</course>
  <speed>0.4604345773288535</speed>
  <fix>3d</fix>
</trkpt>
<trkpt lat="-27.2744331" lon="151.2900643">
  <ele>346.66</ele>
  <time>2026-09-01T19:52:10Z</time>
  <course>10.48</course>
  <speed>0.470425339453563</speed>
  <fix>3d</fix>
</trkpt>
<trkpt lat="-27.2744338" lon="151.2900642">
  <ele>346.58</ele>
  <time>2026-09-01T19:52:10Z</time>
  <course>2.11</course>
  <speed>0.47</speed>
  <fix>3d</fix>
</trkpt>
<trkpt lat="-27.274433" lon="151.2900643">
  <ele>346.67</ele>
  <time>2026-09-01T19:52:10Z</time>
  <course>10.48</course>
  <speed>0.470425339453563</speed>
  <fix>3d</fix>
</trkpt>
<trkpt lat="-27.2744326" lon="151.2900643">
  <ele>346.76</ele>
  <time>2026-09-01T19:52:10Z</time>
  <course>10.48</course>
  <speed>0.48041648597857256</speed>
  <fix>3d</fix>
</trkpt>
<trkpt lat="-27.2744338" lon="151.2900642">
  <ele>346.58</ele>
  <time>2026-09-01T19:52:10Z</time>
  <course>2.11</course>
  <speed>0.47</speed>
  <fix>3d</fix>
</trkpt>
<trkpt lat="-27.2744322" lon="151.2900643">
  <ele>346.86</ele>
  <time>2026-09-01T19:52:10Z</time>
  <course>10.48</course>
  <speed>0.4901020301937138</speed>
  <fix>3d</fix>
</trkpt>
<trkpt lat="-27.2744329" lon="151.2900642">
  <ele>346.79</ele>
  <time>2026-09-01T19:52:10Z</time>
  <course>1.77</course>
  <speed>0.49</speed>
  <fix>3d</fix>
</trkpt>
<trkpt lat="-27.2744322" lon="151.2900643">
  <ele>346.86</ele>
  <time>2026-09-01T19:52:10Z</time>
  <course>10.48</course>
  <speed>0.4901020301937138</speed>
  <fix>3d</fix>
</trkpt>
<trkpt lat="-27.2744317" lon="151.2900643">
  <ele>346.96</ele>
  <time>2026-09-01T19:52:10Z</time>
  <course>10.48</course>
  <speed>0.4901020301937138</speed>
  <fix>3d</fix>
</trkpt>
<trkpt lat="-27.2744329" lon="151.2900642">
  <ele>346.79</ele>
  <time>2026-09-01T19:52:10Z</time>
  <course>1.77</course>
  <speed>0.49</speed>
  <fix>3d</fix>
</trkpt>
<trkpt lat="-27.2744316" lon="151.2900643">
  <ele>346.99</ele>
  <time>2026-09-01T19:52:10Z</time>
  <course>10.48</course>
  <speed>0.5000999900019995</speed>
  <fix>3d</fix>
</trkpt>
<trkpt lat="-27.2744313" lon="151.2900643">
  <ele>347.06</ele>
  <time>2026-09-01T19:52:10Z</time>
  <course>10.47</course>
  <speed>0.5000999900019995</speed>
  <fix>3d</fix>
</trkpt>
<trkpt lat="-27.274432" lon="151.2900642">
  <ele>347.0</ele>
  <time>2026-09-01T19:52:10Z</time>
  <course>1.45</course>
  <speed>0.5</speed>
  <fix>3d</fix>
</trkpt>
<trkpt lat="-27.2744308" lon="151.2900643">
  <ele>347.16</ele>
  <time>2026-09-01T19:52:10Z</time>
  <course>10.47</course>
  <speed>0.510098029794274</speed>
  <fix>3d</fix>
</trkpt>
<trkpt lat="-27.274432" lon="151.2900642">
  <ele>347.0</ele>
  <time>2026-09-01T19:52:10Z</time>
  <course>1.45</course>
  <speed>0.5</speed>
  <fix>3d</fix>
</trkpt>
<trkpt lat="-27.2744308" lon="151.2900643">
  <ele>347.17</ele>
  <time>2026-09-01T19:52:10Z</time>
  <course>10.47</course>
  <speed>0.510098029794274</speed>
  <fix>3d</fix>
</trkpt>
<trkpt lat="-27.2744303" lon="151.2900643">
  <ele>347.27</ele>
  <time>2026-09-01T19:52:10Z</time>
  <course>10.46</course>
  <speed>0.5200961449578337</speed>
  <fix>3d</fix>
</trkpt>
<trkpt lat="-27.2744311" lon="151.2900642">
  <ele>347.2</ele>
  <time>2026-09-01T19:52:10Z</time>
  <course>1.17</course>
  <speed>0.52</speed>
  <fix>3d</fix>
</trkpt>
<trkpt lat="-27.2744302" lon="151.2900643">
  <ele>347.31</ele>
  <time>2026-09-01T19:52:10Z</time>
  <course>10.46</course>
  <speed>0.5200961449578337</speed>
  <fix>3d</fix>
</trkpt>
<trkpt lat="-27.2744298" lon="151.2900643">
  <ele>347.38</ele>
  <time>2026-09-01T19:52:10Z</time>
  <course>10.46</course>
  <speed>0.5300943312279428</speed>
  <fix>3d</fix>
</trkpt>
<trkpt lat="-27.2744311" lon="151.2900642">
  <ele>347.2</ele>
  <time>2026-09-01T19:52:10Z</time>
  <course>1.17</course>
  <speed>0.52</speed>
  <fix>3d</fix>
</trkpt>
<trkpt lat="-27.2744297" lon="151.2900643">
  <ele>347.42</ele>
  <time>2026-09-01T19:52:10Z</time>
  <course>10.45</course>
  <speed>0.5300943312279428</speed>
  <fix>3d</fix>
</trkpt>
<trkpt lat="-27.2744293" lon="151.2900643">
  <ele>347.49</ele>
  <time>2026-09-01T19:52:10Z</time>
  <course>10.45</course>
  <speed>0.5300943312279428</speed>
  <fix>3d</fix>
</trkpt>
<trkpt lat="-27.2744301" lon="151.2900642">
  <ele>347.41</ele>
  <time>2026-09-01T19:52:10Z</time>
  <course>0.93</course>
  <speed>0.53</speed>
  <fix>3d</fix>
</trkpt>
<trkpt lat="-27.2744292" lon="151.2900643">
  <ele>347.53</ele>
  <time>2026-09-01T19:52:10Z</time>
  <course>10.45</course>
  <speed>0.54</speed>
  <fix>3d</fix>
</trkpt>
<trkpt lat="-27.2744288" lon="151.2900643">
  <ele>347.61</ele>
  <time>2026-09-01T19:52:10Z</time>
  <course>10.45</course>
  <speed>0.54</speed>
  <fix>3d</fix>
</trkpt>
<trkpt lat="-27.2744301" lon="151.2900642">
  <ele>347.41</ele>
  <time>2026-09-01T19:52:10Z</time>
  <course>0.93</course>
  <speed>0.53</speed>
  <fix>3d</fix>
</trkpt>
<trkpt lat="-27.2744287" lon="151.2900643">
  <ele>347.65</ele>
  <time>2026-09-01T19:52:10Z</time>
  <course>10.45</course>
  <speed>0.55</speed>
  <fix>3d</fix>
</trkpt>
<trkpt lat="-27.2744283" lon="151.2900643">
  <ele>347.73</ele>
  <time>2026-09-01T19:52:10Z</time>
  <course>10.44</course>
  <speed>0.55</speed>
  <fix>3d</fix>
</trkpt>
<trkpt lat="-27.2744292" lon="151.2900642">
  <ele>347.65</ele>
  <time>2026-09-01T19:52:10Z</time>
  <course>0.74</course>
  <speed>0.55</speed>
  <fix>3d</fix>
</trkpt>
<trkpt lat="-27.2744283" lon="151.2900643">
  <ele>347.74</ele>
  <time>2026-09-01T19:52:10Z</time>
  <course>10.44</course>
  <speed>0.55</speed>
  <fix>3d</fix>
</trkpt>
<trkpt lat="-27.2744278" lon="151.2900643">
  <ele>347.85</ele>
  <time>2026-09-01T19:52:10Z</time>
  <course>10.44</course>
  <speed>0.56</speed>
  <fix>3d</fix>
</trkpt>
<trkpt lat="-27.2744292" lon="151.2900642">
  <ele>347.65</ele>
  <time>2026-09-01T19:52:10Z</time>
  <course>0.74</course>
  <speed>0.55</speed>
  <fix>3d</fix>
</trkpt>
<trkpt lat="-27.2744277" lon="151.2900643">
  <ele>347.88</ele>
  <time>2026-09-01T19:52:10Z</time>
  <course>10.44</course>
  <speed>0.56</speed>
  <fix>3d</fix>
</trkpt>
<trkpt lat="-27.2744273" lon="151.2900643">
  <ele>347.98</ele>
  <time>2026-09-01T19:52:10Z</time>
  <course>10.44</course>
  <speed>0.57</speed>
  <fix>3d</fix>
</trkpt>
<trkpt lat="-27.2744281" lon="151.2900643">
  <ele>347.89</ele>
  <time>2026-09-01T19:52:10Z</time>
  <course>0.59</course>
  <speed>0.57</speed>
  <fix>3d</fix>
</trkpt>
<trkpt lat="-27.2744271" lon="151.2900643">
  <ele>348.02</ele>
  <time>2026-09-01T19:52:10Z</time>
  <course>10.43</course>
  <speed>0.57</speed>
  <fix>3d</fix>
</trkpt>
<trkpt lat="-27.2744268" lon="151.2900643">
  <ele>348.1</ele>
  <time>2026-09-01T19:52:10Z</time>
  <course>10.43</course>
  <speed>0.58</speed>
  <fix>3d</fix>
</trkpt>
<trkpt lat="-27.2744281" lon="151.2900643">
  <ele>347.89</ele>
  <time>2026-09-01T19:52:10Z</time>
  <course>0.59</course>
  <speed>0.57</speed>
  <fix>3d</fix>
</trkpt>
<trkpt lat="-27.2744266" lon="151.2900643">
  <ele>348.15</ele>
  <time>2026-09-01T19:52:10Z</time>
  <course>10.43</course>
  <speed>0.58</speed>
  <fix>3d</fix>
</trkpt>
<trkpt lat="-27.2744262" lon="151.2900643">
  <ele>348.23</ele>
  <time>2026-09-01T19:52:10Z</time>
  <course>10.43</course>
  <speed>0.59</speed>
  <fix>3d</fix>
</trkpt>
<trkpt lat="-27.274427" lon="151.2900644">
  <ele>348.13</ele>
  <time>2026-09-01T19:52:10Z</time>
  <course>0.48</course>
  <speed>0.58</speed>
  <fix>3d</fix>
</trkpt>
<trkpt lat="-27.2744261" lon="151.2900643">
  <ele>348.27</ele>
  <time>2026-09-01T19:52:10Z</time>
  <course>10.43</course>
  <speed>0.59</speed>
  <fix>3d</fix>
</trkpt>
<trkpt lat="-27.2744257" lon="151.2900643">
  <ele>348.36</ele>
  <time>2026-09-01T19:52:10Z</time>
  <course>10.42</course>
  <speed>0.59</speed>
  <fix>3d</fix>
</trkpt>
<trkpt lat="-27.274427" lon="151.2900644">
  <ele>348.13</ele>
  <time>2026-09-01T19:52:10Z</time>
  <course>0.48</course>
  <speed>0.58</speed>
  <fix>3d</fix>
</trkpt>
<trkpt lat="-27.2744253" lon="151.2900643">
  <ele>348.44</ele>
  <time>2026-09-01T19:52:10Z</time>
  <course>10.42</course>
  <speed>0.6</speed>
  <fix>3d</fix>
</trkpt>
<trkpt lat="-27.2744251" lon="151.2900643">
  <ele>348.49</ele>
  <time>2026-09-01T19:52:10Z</time>
  <course>10.42</course>
  <speed>0.6</speed>
  <fix>3d</fix>
</trkpt>
<trkpt lat="-27.274426" lon="151.2900644">
  <ele>348.38</ele>
  <time>2026-09-01T19:52:10Z</time>
  <course>0.39</course>
  <speed>0.6</speed>
  <fix>3d</fix>
</trkpt>
<trkpt lat="-27.2744249" lon="151.2900643">
  <ele>348.52</ele>
  <time>2026-09-01T19:52:10Z</time>
  <course>10.42</course>
  <speed>0.61</speed>
  <fix>3d</fix>
</trkpt>
<trkpt lat="-27.2744246" lon="151.2900643">
  <ele>348.61</ele>
  <time>2026-09-01T19:52:10Z</time>
  <course>10.42</course>
  <speed>0.61</speed>
  <fix>3d</fix>
</trkpt>
<trkpt lat="-27.274426" lon="151.2900644">
  <ele>348.38</ele>
  <time>2026-09-01T19:52:10Z</time>
  <course>0.39</course>
  <speed>0.6</speed>
  <fix>3d</fix>
</trkpt>
<trkpt lat="-27.2744244" lon="151.2900643">
  <ele>348.64</ele>
  <time>2026-09-01T19:52:10Z</time>
  <course>10.42</course>
  <speed>0.61</speed>
  <fix>3d</fix>
</trkpt>
<trkpt lat="-27.274424" lon="151.2900643">
  <ele>348.74</ele>
  <time>2026-09-01T19:52:10Z</time>
  <course>10.42</course>
  <speed>0.62</speed>
  <fix>3d</fix>
</trkpt>
<trkpt lat="-27.2744249" lon="151.2900644">
  <ele>348.63</ele>
  <time>2026-09-01T19:52:10Z</time>
  <course>0.32</course>
  <speed>0.62</speed>
  <fix>3d</fix>
</trkpt>
<trkpt lat="-27.2744238" lon="151.2900643">
  <ele>348.78</ele>
  <time>2026-09-01T19:52:10Z</time>
  <course>10.42</course>
  <speed>0.62</speed>
  <fix>3d</fix>
</trkpt>
<trkpt lat="-27.2744234" lon="151.2900643">
  <ele>348.86</ele>
  <time>2026-09-01T19:52:10Z</time>
  <course>10.42</course>
  <speed>0.63</speed>
  <fix>3d</fix>
</trkpt>
<trkpt lat="-27.2744249" lon="151.2900644">
  <ele>348.63</ele>
  <time>2026-09-01T19:52:10Z</time>
  <course>0.32</course>
  <speed>0.62</speed>
  <fix>3d</fix>
</trkpt>
<trkpt lat="-27.2744233" lon="151.2900643">
  <ele>348.89</ele>
  <time>2026-09-01T19:52:10Z</time>
  <course>10.42</course>
  <speed>0.63</speed>
  <fix>3d</fix>
</trkpt>
<trkpt lat="-27.2744228" lon="151.2900643">
  <ele>348.98</ele>
  <time>2026-09-01T19:52:10Z</time>
  <course>10.43</course>
  <speed>0.64</speed>
  <fix>3d</fix>
</trkpt>
<trkpt lat="-27.2744238" lon="151.2900644">
  <ele>348.88</ele>
  <time>2026-09-01T19:52:10Z</time>
  <course>0.23</course>
  <speed>0.64</speed>
  <fix>3d</fix>
</trkpt>
<trkpt lat="-27.2744222" lon="151.2900643">
  <ele>349.1</ele>
  <time>2026-09-01T19:52:10Z</time>
  <course>10.43</course>
  <speed>0.64</speed>
  <fix>3d</fix>
</trkpt>
<trkpt lat="-27.2744238" lon="151.2900644">
  <ele>348.88</ele>
  <time>2026-09-01T19:52:10Z</time>
  <course>0.23</course>
  <speed>0.64</speed>
  <fix>3d</fix>
</trkpt>
<trkpt lat="-27.2744222" lon="151.2900643">
  <ele>349.1</ele>
  <time>2026-09-01T19:52:10Z</time>
  <course>10.43</course>
  <speed>0.64</speed>
  <fix>3d</fix>
</trkpt>
<trkpt lat="-27.2744216" lon="151.2900643">
  <ele>349.21</ele>
  <time>2026-09-01T19:52:10Z</time>
  <course>10.43</course>
  <speed>0.65</speed>
  <fix>3d</fix>
</trkpt>
<trkpt lat="-27.2744226" lon="151.2900644">
  <ele>349.12</ele>
  <time>2026-09-01T19:52:10Z</time>
  <course>0.12</course>
  <speed>0.65</speed>
  <fix>3d</fix>
</trkpt>
<trkpt lat="-27.2744216" lon="151.2900643">
  <ele>349.22</ele>
  <time>2026-09-01T19:52:10Z</time>
  <course>10.43</course>
  <speed>0.65</speed>
  <fix>3d</fix>
</trkpt>
<trkpt lat="-27.274421" lon="151.2900644">
  <ele>349.33</ele>
  <time>2026-09-01T19:52:10Z</time>
  <course>10.43</course>
  <speed>0.66</speed>
  <fix>3d</fix>
</trkpt>
<trkpt lat="-27.2744226" lon="151.2900644">
  <ele>349.12</ele>
  <time>2026-09-01T19:52:10Z</time>
  <course>0.12</course>
  <speed>0.65</speed>
  <fix>3d</fix>
</trkpt>
<trkpt lat="-27.2744209" lon="151.2900644">
  <ele>349.35</ele>
  <time>2026-09-01T19:52:10Z</time>
  <course>10.43</course>
  <speed>0.66</speed>
  <fix>3d</fix>
</trkpt>
<trkpt lat="-27.2744204" lon="151.2900644">
  <ele>349.45</ele>
  <time>2026-09-01T19:52:10Z</time>
  <course>10.44</course>
  <speed>0.67</speed>
  <fix>3d</fix>
</trkpt>
<trkpt lat="-27.2744214" lon="151.2900644">
  <ele>349.36</ele>
  <time>2026-09-01T19:52:10Z</time>
  <course>359.98</course>
  <speed>0.67</speed>
  <fix>3d</fix>
</trkpt>
<trkpt lat="-27.2744202" lon="151.2900644">
  <ele>349.49</ele>
  <time>2026-09-01T19:52:10Z</time>
  <course>10.44</course>
  <speed>0.67</speed>
  <fix>3d</fix>
</trkpt>
<trkpt lat="-27.2744198" lon="151.2900644">
  <ele>349.56</ele>
  <time>2026-09-01T19:52:10Z</time>
  <course>10.44</course>
  <speed>0.67</speed>
  <fix>3d</fix>
</trkpt>
<trkpt lat="-27.2744214" lon="151.2900644">
  <ele>349.36</ele>
  <time>2026-09-01T19:52:10Z</time>
  <course>359.98</course>
  <speed>0.67</speed>
  <fix>3d</fix>
</trkpt>
<trkpt lat="-27.2744196" lon="151.2900644">
  <ele>349.59</ele>
  <time>2026-09-01T19:52:10Z</time>
  <course>10.44</course>
  <speed>0.68</speed>
  <fix>3d</fix>
</trkpt>
<trkpt lat="-27.2744192" lon="151.2900644">
  <ele>349.68</ele>
  <time>2026-09-01T19:52:10Z</time>
  <course>10.44</course>
  <speed>0.68</speed>
  <fix>3d</fix>
</trkpt>
<trkpt lat="-27.2744202" lon="151.2900644">
  <ele>349.59</ele>
  <time>2026-09-01T19:52:10Z</time>
  <course>359.83</course>
  <speed>0.68</speed>
  <fix>3d</fix>
</trkpt>
<trkpt lat="-27.274419" lon="151.2900644">
  <ele>349.7</ele>
  <time>2026-09-01T19:52:10Z</time>
  <course>10.44</course>
  <speed>0.68</speed>
  <fix>3d</fix>
</trkpt>
<trkpt lat="-27.2744185" lon="151.2900644">
  <ele>349.79</ele>
  <time>2026-09-01T19:52:10Z</time>
  <course>10.44</course>
  <speed>0.69</speed>
  <fix>3d</fix>
</trkpt>
<trkpt lat="-27.2744202" lon="151.2900644">
  <ele>349.59</ele>
  <time>2026-09-01T19:52:10Z</time>
  <course>359.83</course>
  <speed>0.68</speed>
  <fix>3d</fix>
</trkpt>
<trkpt lat="-27.2744184" lon="151.2900644">
  <ele>349.82</ele>
  <time>2026-09-01T19:52:10Z</time>
  <course>10.44</course>
  <speed>0.69</speed>
  <fix>3d</fix>
</trkpt>
<trkpt lat="-27.2744179" lon="151.2900644">
  <ele>349.91</ele>
  <time>2026-09-01T19:52:10Z</time>
  <course>10.44</course>
  <speed>0.7</speed>
  <fix>3d</fix>
</trkpt>
<trkpt lat="-27.2744189" lon="151.2900644">
  <ele>349.82</ele>
  <time>2026-09-01T19:52:10Z</time>
  <course>359.7</course>
  <speed>0.7</speed>
  <fix>3d</fix>
</trkpt>
<trkpt lat="-27.2744177" lon="151.2900644">
  <ele>349.94</ele>
  <time>2026-09-01T19:52:10Z</time>
  <course>10.44</course>
  <speed>0.7</speed>
  <fix>3d</fix>
</trkpt>
<trkpt lat="-27.2744173" lon="151.2900644">
  <ele>350.02</ele>
  <time>2026-09-01T19:52:10Z</time>
  <course>10.44</course>
  <speed>0.71</speed>
  <fix>3d</fix>
</trkpt>
<trkpt lat="-27.2744189" lon="151.2900644">
  <ele>349.82</ele>
  <time>2026-09-01T19:52:10Z</time>
  <course>359.7</course>
  <speed>0.7</speed>
  <fix>3d</fix>
</trkpt>
<trkpt lat="-27.2744171" lon="151.2900644">
  <ele>350.05</ele>
  <time>2026-09-01T19:52:10Z</time>
  <course>10.44</course>
  <speed>0.71</speed>
  <fix>3d</fix>
</trkpt>
<trkpt lat="-27.2744166" lon="151.2900644">
  <ele>350.14</ele>
  <time>2026-09-01T19:52:10Z</time>
  <course>10.44</course>
  <speed>0.71</speed>
  <fix>3d</fix>
</trkpt>
<trkpt lat="-27.2744176" lon="151.2900644">
  <ele>350.05</ele>
  <time>2026-09-01T19:52:10Z</time>
  <course>359.57</course>
  <speed>0.71</speed>
  <fix>3d</fix>
</trkpt>
<trkpt lat="-27.2744163" lon="151.2900644">
  <ele>350.2</ele>
  <time>2026-09-01T19:52:10Z</time>
  <course>10.44</course>
  <speed>0.72</speed>
  <fix>3d</fix>
</trkpt>
<trkpt lat="-27.2744159" lon="151.2900644">
  <ele>350.26</ele>
  <time>2026-09-01T19:52:10Z</time>
  <course>10.44</course>
  <speed>0.72</speed>
  <fix>3d</fix>
</trkpt>
<trkpt lat="-27.2744176" lon="151.2900644">
  <ele>350.05</ele>
  <time>2026-09-01T19:52:10Z</time>
  <course>359.57</course>
  <speed>0.71</speed>
  <fix>3d</fix>
</trkpt>
<trkpt lat="-27.2744157" lon="151.2900644">
  <ele>350.29</ele>
  <time>2026-09-01T19:52:10Z</time>
  <course>10.44</course>
  <speed>0.72</speed>
  <fix>3d</fix>
</trkpt>
<trkpt lat="-27.2744152" lon="151.2900644">
  <ele>350.38</ele>
  <time>2026-09-01T19:52:10Z</time>
  <course>10.44</course>
  <speed>0.73</speed>
  <fix>3d</fix>
</trkpt>
<trkpt lat="-27.2744163" lon="151.2900644">
  <ele>350.27</ele>
  <time>2026-09-01T19:52:10Z</time>
  <course>359.46</course>
  <speed>0.73</speed>
  <fix>3d</fix>
</trkpt>
<trkpt lat="-27.2744151" lon="151.2900644">
  <ele>350.4</ele>
  <time>2026-09-01T19:52:10Z</time>
  <course>10.44</course>
  <speed>0.73</speed>
  <fix>3d</fix>
</trkpt>
<trkpt lat="-27.2744146" lon="151.2900644">
  <ele>350.49</ele>
  <time>2026-09-01T19:52:10Z</time>
  <course>10.44</course>
  <speed>0.74</speed>
  <fix>3d</fix>
</trkpt>
<trkpt lat="-27.2744163" lon="151.2900644">
  <ele>350.27</ele>
  <time>2026-09-01T19:52:10Z</time>
  <course>359.46</course>
  <speed>0.73</speed>
  <fix>3d</fix>
</trkpt>
<trkpt lat="-27.2744146" lon="151.2900644">
  <ele>350.5</ele>
  <time>2026-09-01T19:52:10Z</time>
  <course>10.44</course>
  <speed>0.74</speed>
  <fix>3d</fix>
</trkpt>
<trkpt lat="-27.2744139" lon="151.2900644">
  <ele>350.61</ele>
  <time>2026-09-01T19:52:11Z</time>
  <course>10.43</course>
  <speed>0.74</speed>
  <fix>3d</fix>
</trkpt>
<trkpt lat="-27.274415" lon="151.2900644">
  <ele>350.5</ele>
  <time>2026-09-01T19:52:11Z</time>
  <course>359.33</course>
  <speed>0.74</speed>
  <fix>3d</fix>
</trkpt>
<trkpt lat="-27.2744138" lon="151.2900644">
  <ele>350.62</ele>
  <time>2026-09-01T19:52:11Z</time>
  <course>10.43</course>
  <speed>0.74</speed>
  <fix>3d</fix>
</trkpt>
<trkpt lat="-27.2744132" lon="151.2900644">
  <ele>350.73</ele>
  <time>2026-09-01T19:52:11Z</time>
  <course>10.43</course>
  <speed>0.75</speed>
  <fix>3d</fix>
</trkpt>
<trkpt lat="-27.274415" lon="151.2900644">
  <ele>350.5</ele>
  <time>2026-09-01T19:52:11Z</time>
  <course>359.33</course>
  <speed>0.74</speed>
  <fix>3d</fix>
</trkpt>
<trkpt lat="-27.274413" lon="151.2900644">
  <ele>350.75</ele>
  <time>2026-09-01T19:52:11Z</time>
  <course>10.43</course>
  <speed>0.75</speed>
  <fix>3d</fix>
</trkpt>
<trkpt lat="-27.2744125" lon="151.2900644">
  <ele>350.84</ele>
  <time>2026-09-01T19:52:11Z</time>
  <course>10.43</course>
  <speed>0.76</speed>
  <fix>3d</fix>
</trkpt>
<trkpt lat="-27.2744136" lon="151.2900644">
  <ele>350.73</ele>
  <time>2026-09-01T19:52:11Z</time>
  <course>359.16</course>
  <speed>0.76</speed>
  <fix>3d</fix>
</trkpt>
<trkpt lat="-27.2744123" lon="151.2900644">
  <ele>350.87</ele>
  <time>2026-09-01T19:52:11Z</time>
  <course>10.43</course>
  <speed>0.76</speed>
  <fix>3d</fix>
</trkpt>
<trkpt lat="-27.2744118" lon="151.2900644">
  <ele>350.96</ele>
  <time>2026-09-01T19:52:11Z</time>
  <course>10.43</course>
  <speed>0.77</speed>
  <fix>3d</fix>
</trkpt>
<trkpt lat="-27.2744136" lon="151.2900644">
  <ele>350.73</ele>
  <time>2026-09-01T19:52:11Z</time>
  <course>359.16</course>
  <speed>0.76</speed>
  <fix>3d</fix>
</trkpt>
<trkpt lat="-27.2744116" lon="151.2900644">
  <ele>350.99</ele>
  <time>2026-09-01T19:52:11Z</time>
  <course>10.43</course>
  <speed>0.77</speed>
  <fix>3d</fix>
</trkpt>
<trkpt lat="-27.2744111" lon="151.2900644">
  <ele>351.08</ele>
  <time>2026-09-01T19:52:11Z</time>
  <course>10.43</course>
  <speed>0.77</speed>
  <fix>3d</fix>
</trkpt>
<trkpt lat="-27.2744123" lon="151.2900644">
  <ele>350.96</ele>
  <time>2026-09-01T19:52:11Z</time>
  <course>359.0</course>
  <speed>0.77</speed>
  <fix>3d</fix>
</trkpt>
<trkpt lat="-27.2744109" lon="151.2900644">
  <ele>351.11</ele>
  <time>2026-09-01T19:52:11Z</time>
  <course>10.43</course>
  <speed>0.78</speed>
  <fix>3d</fix>
</trkpt>
<trkpt lat="-27.2744104" lon="151.2900644">
  <ele>351.2</ele>
  <time>2026-09-01T19:52:11Z</time>
  <course>10.43</course>
  <speed>0.78</speed>
  <fix>3d</fix>
</trkpt>
<trkpt lat="-27.2744123" lon="151.2900644">
  <ele>350.96</ele>
  <time>2026-09-01T19:52:11Z</time>
  <course>359.0</course>
  <speed>0.77</speed>
  <fix>3d</fix>
</trkpt>
<trkpt lat="-27.2744102" lon="151.2900644">
  <ele>351.23</ele>
  <time>2026-09-01T19:52:11Z</time>
  <course>10.43</course>
  <speed>0.78</speed>
  <fix>3d</fix>
</trkpt>
<trkpt lat="-27.2744097" lon="151.2900644">
  <ele>351.31</ele>
  <time>2026-09-01T19:52:11Z</time>
  <course>10.43</course>
  <speed>0.79</speed>
  <fix>3d</fix>
</trkpt>
<trkpt lat="-27.2744109" lon="151.2900644">
  <ele>351.2</ele>
  <time>2026-09-01T19:52:11Z</time>
  <course>358.88</course>
  <speed>0.79</speed>
  <fix>3d</fix>
</trkpt>
<trkpt lat="-27.2744096" lon="151.2900644">
  <ele>351.33</ele>
  <time>2026-09-01T19:52:11Z</time>
  <course>10.43</course>
  <speed>0.79</speed>
  <fix>3d</fix>
</trkpt>
<trkpt lat="-27.2744089" lon="151.2900644">
  <ele>351.43</ele>
  <time>2026-09-01T19:52:11Z</time>
  <course>10.42</course>
  <speed>0.8</speed>
  <fix>3d</fix>
</trkpt>
<trkpt lat="-27.2744109" lon="151.2900644">
  <ele>351.2</ele>
  <time>2026-09-01T19:52:11Z</time>
  <course>358.88</course>
  <speed>0.79</speed>
  <fix>3d</fix>
</trkpt>
<trkpt lat="-27.2744087" lon="151.2900644">
  <ele>351.46</ele>
  <time>2026-09-01T19:52:11Z</time>
  <course>10.42</course>
  <speed>0.8</speed>
  <fix>3d</fix>
</trkpt>
<trkpt lat="-27.2744082" lon="151.2900644">
  <ele>351.54</ele>
  <time>2026-09-01T19:52:11Z</time>
  <course>10.43</course>
  <speed>0.8</speed>
  <fix>3d</fix>
</trkpt>
<trkpt lat="-27.2744094" lon="151.2900643">
  <ele>351.43</ele>
  <time>2026-09-01T19:52:11Z</time>
  <course>358.82</course>
  <speed>0.81</speed>
  <fix>3d</fix>
</trkpt>
<trkpt lat="-27.274408" lon="151.2900644">
  <ele>351.58</ele>
  <time>2026-09-01T19:52:11Z</time>
  <course>10.43</course>
  <speed>0.81</speed>
  <fix>3d</fix>
</trkpt>
<trkpt lat="-27.2744074" lon="151.2900644">
  <ele>351.66</ele>
  <time>2026-09-01T19:52:11Z</time>
  <course>10.43</course>
  <speed>0.81</speed>
  <fix>3d</fix>
</trkpt>
<trkpt lat="-27.2744094" lon="151.2900643">
  <ele>351.43</ele>
  <time>2026-09-01T19:52:11Z</time>
  <course>358.82</course>
  <speed>0.81</speed>
  <fix>3d</fix>
</trkpt>
<trkpt lat="-27.2744073" lon="151.2900644">
  <ele>351.68</ele>
  <time>2026-09-01T19:52:11Z</time>
  <course>10.43</course>
  <speed>0.81</speed>
  <fix>3d</fix>
</trkpt>
<trkpt lat="-27.2744067" lon="151.2900644">
  <ele>351.77</ele>
  <time>2026-09-01T19:52:11Z</time>
  <course>10.43</course>
  <speed>0.82</speed>
  <fix>3d</fix>
</trkpt>
<trkpt lat="-27.2744079" lon="151.2900642">
  <ele>351.66</ele>
  <time>2026-09-01T19:52:11Z</time>
  <course>358.81</course>
  <speed>0.82</speed>
  <fix>3d</fix>
</trkpt>
<trkpt lat="-27.2744067" lon="151.2900644">
  <ele>351.77</ele>
  <time>2026-09-01T19:52:11Z</time>
  <course>10.43</course>
  <speed>0.82</speed>
  <fix>3d</fix>
</trkpt>
<trkpt lat="-27.2744059" lon="151.2900643">
  <ele>351.89</ele>
  <time>2026-09-01T19:52:11Z</time>
  <course>10.43</course>
  <speed>0.83</speed>
  <fix>3d</fix>
</trkpt>
<trkpt lat="-27.2744079" lon="151.2900642">
  <ele>351.66</ele>
  <time>2026-09-01T19:52:11Z</time>
  <course>358.81</course>
  <speed>0.82</speed>
  <fix>3d</fix>
</trkpt>
<trkpt lat="-27.2744057" lon="151.2900643">
  <ele>351.93</ele>
  <time>2026-09-01T19:52:11Z</time>
  <course>10.42</course>
  <speed>0.83</speed>
  <fix>3d</fix>
</trkpt>
<trkpt lat="-27.2744052" lon="151.2900643">
  <ele>352.0</ele>
  <time>2026-09-01T19:52:11Z</time>
  <course>10.42</course>
  <speed>0.83</speed>
  <fix>3d</fix>
</trkpt>
<trkpt lat="-27.2744064" lon="151.2900642">
  <ele>351.89</ele>
  <time>2026-09-01T19:52:11Z</time>
  <course>358.78</course>
  <speed>0.84</speed>
  <fix>3d</fix>
</trkpt>
<trkpt lat="-27.274405" lon="151.2900643">
  <ele>352.03</ele>
  <time>2026-09-01T19:52:11Z</time>
  <course>10.42</course>
  <speed>0.84</speed>
  <fix>3d</fix>
</trkpt>
<trkpt lat="-27.2744044" lon="151.2900643">
  <ele>352.11</ele>
  <time>2026-09-01T19:52:11Z</time>
  <course>10.42</course>
  <speed>0.84</speed>
  <fix>3d</fix>
</trkpt>
<trkpt lat="-27.2744064" lon="151.2900642">
  <ele>351.89</ele>
  <time>2026-09-01T19:52:11Z</time>
  <course>358.78</course>
  <speed>0.84</speed>
  <fix>3d</fix>
</trkpt>
<trkpt lat="-27.2744042" lon="151.2900643">
  <ele>352.15</ele>
  <time>2026-09-01T19:52:11Z</time>
  <course>10.42</course>
  <speed>0.84</speed>
  <fix>3d</fix>
</trkpt>
<trkpt lat="-27.2744036" lon="151.2900643">
  <ele>352.23</ele>
  <time>2026-09-01T19:52:11Z</time>
  <course>10.42</course>
  <speed>0.85</speed>
  <fix>3d</fix>
</trkpt>
<trkpt lat="-27.2744049" lon="151.2900642">
  <ele>352.12</ele>
  <time>2026-09-01T19:52:11Z</time>
  <course>358.72</course>
  <speed>0.85</speed>
  <fix>3d</fix>
</trkpt>
<trkpt lat="-27.2744031" lon="151.2900643">
  <ele>352.3</ele>
  <time>2026-09-01T19:52:11Z</time>
  <course>10.42</course>
  <speed>0.85</speed>
  <fix>3d</fix>
</trkpt>
<trkpt lat="-27.2744028" lon="151.2900643">
  <ele>352.35</ele>
  <time>2026-09-01T19:52:11Z</time>
  <course>10.42</course>
  <speed>0.86</speed>
  <fix>3d</fix>
</trkpt>
<trkpt lat="-27.2744049" lon="151.2900642">
  <ele>352.12</ele>
  <time>2026-09-01T19:52:11Z</time>
  <course>358.72</course>
  <speed>0.85</speed>
  <fix>3d</fix>
</trkpt>
<trkpt lat="-27.274402" lon="151.2900643">
  <ele>352.46</ele>
  <time>2026-09-01T19:52:11Z</time>
  <course>10.42</course>
  <speed>0.87</speed>
  <fix>3d</fix>
</trkpt>
<trkpt lat="-27.2744034" lon="151.2900642">
  <ele>352.35</ele>
  <time>2026-09-01T19:52:11Z</time>
  <course>358.66</course>
  <speed>0.87</speed>
  <fix>3d</fix>
</trkpt>
<trkpt lat="-27.2744012" lon="151.2900642">
  <ele>352.58</ele>
  <time>2026-09-01T19:52:11Z</time>
  <course>10.42</course>
  <speed>0.87</speed>
  <fix>3d</fix>
</trkpt>
<trkpt lat="-27.2744034" lon="151.2900642">
  <ele>352.35</ele>
  <time>2026-09-01T19:52:11Z</time>
  <course>358.66</course>
  <speed>0.87</speed>
  <fix>3d</fix>
</trkpt>
<trkpt lat="-27.2744012" lon="151.2900642">
  <ele>352.58</ele>
  <time>2026-09-01T19:52:11Z</time>
  <course>10.42</course>
  <speed>0.87</speed>
  <fix>3d</fix>
</trkpt>
<trkpt lat="-27.2744004" lon="151.2900642">
  <ele>352.7</ele>
  <time>2026-09-01T19:52:11Z</time>
  <course>10.42</course>
  <speed>0.88</speed>
  <fix>3d</fix>
</trkpt>
<trkpt lat="-27.2744018" lon="151.2900641">
  <ele>352.58</ele>
  <time>2026-09-01T19:52:11Z</time>
  <course>358.59</course>
  <speed>0.89</speed>
  <fix>3d</fix>
</trkpt>
<trkpt lat="-27.2744002" lon="151.2900642">
  <ele>352.73</ele>
  <time>2026-09-01T19:52:11Z</time>
  <course>10.42</course>
  <speed>0.88</speed>
  <fix>3d</fix>
</trkpt>
<trkpt lat="-27.2743996" lon="151.2900642">
  <ele>352.81</ele>
  <time>2026-09-01T19:52:11Z</time>
  <course>10.41</course>
  <speed>0.89</speed>
  <fix>3d</fix>
</trkpt>
<trkpt lat="-27.2744018" lon="151.2900641">
  <ele>352.58</ele>
  <time>2026-09-01T19:52:11Z</time>
  <course>358.59</course>
  <speed>0.89</speed>
  <fix>3d</fix>
</trkpt>
<trkpt lat="-27.2743996" lon="151.2900642">
  <ele>352.82</ele>
  <time>2026-09-01T19:52:11Z</time>
  <course>10.41</course>
  <speed>0.89</speed>
  <fix>3d</fix>
</trkpt>
<trkpt lat="-27.2743988" lon="151.2900642">
  <ele>352.93</ele>
  <time>2026-09-01T19:52:11Z</time>
  <course>10.41</course>
  <speed>0.9</speed>
  <fix>3d</fix>
</trkpt>
<trkpt lat="-27.2744002" lon="151.2900641">
  <ele>352.82</ele>
  <time>2026-09-01T19:52:11Z</time>
  <course>358.51</course>
  <speed>0.9</speed>
  <fix>3d</fix>
</trkpt>
<trkpt lat="-27.2743988" lon="151.2900642">
  <ele>352.93</ele>
  <time>2026-09-01T19:52:11Z</time>
  <course>10.41</course>
  <speed>0.9</speed>
  <fix>3d</fix>
</trkpt>
<trkpt lat="-27.274398" lon="151.2900642">
  <ele>353.05</ele>
  <time>2026-09-01T19:52:11Z</time>
  <course>10.41</course>
  <speed>0.9</speed>
  <fix>3d</fix>
</trkpt>
<trkpt lat="-27.2744002" lon="151.2900641">
  <ele>352.82</ele>
  <time>2026-09-01T19:52:11Z</time>
  <course>358.51</course>
  <speed>0.9</speed>
  <fix>3d</fix>
</trkpt>
<trkpt lat="-27.274398" lon="151.2900642">
  <ele>353.05</ele>
  <time>2026-09-01T19:52:11Z</time>
  <course>10.41</course>
  <speed>0.9</speed>
  <fix>3d</fix>
</trkpt>
<trkpt lat="-27.2743971" lon="151.2900642">
  <ele>353.16</ele>
  <time>2026-09-01T19:52:11Z</time>
  <course>10.41</course>
  <speed>0.91</speed>
  <fix>3d</fix>
</trkpt>
<trkpt lat="-27.2743985" lon="151.290064">
  <ele>353.05</ele>
  <time>2026-09-01T19:52:11Z</time>
  <course>358.45</course>
  <speed>0.92</speed>
  <fix>3d</fix>
</trkpt>
<trkpt lat="-27.2743963" lon="151.2900641">
  <ele>353.28</ele>
  <time>2026-09-01T19:52:11Z</time>
  <course>10.4</course>
  <speed>0.93</speed>
  <fix>3d</fix>
</trkpt>
<trkpt lat="-27.2743985" lon="151.290064">
  <ele>353.05</ele>
  <time>2026-09-01T19:52:11Z</time>
  <course>358.45</course>
  <speed>0.92</speed>
  <fix>3d</fix>
</trkpt>
<trkpt lat="-27.2743954" lon="151.2900641">
  <ele>353.39</ele>
  <time>2026-09-01T19:52:11Z</time>
  <course>10.39</course>
  <speed>0.99</speed>
  <fix>3d</fix>
</trkpt>
<trkpt lat="-27.2743968" lon="151.290064">
  <ele>353.28</ele>
  <time>2026-09-01T19:52:11Z</time>
  <course>358.44</course>
  <speed>0.94</speed>
  <fix>3d</fix>
</trkpt>
<trkpt lat="-27.2743945" lon="151.2900641">
  <ele>353.51</ele>
  <time>2026-09-01T19:52:11Z</time>
  <course>10.36</course>
  <speed>1.110180165558726</speed>
  <fix>3d</fix>
</trkpt>
<trkpt lat="-27.2743968" lon="151.290064">
  <ele>353.28</ele>
  <time>2026-09-01T19:52:11Z</time>
  <course>358.44</course>
  <speed>0.94</speed>
  <fix>3d</fix>
</trkpt>
<trkpt lat="-27.2743934" lon="151.2900641">
  <ele>353.62</ele>
  <time>2026-09-01T19:52:11Z</time>
  <course>10.34</course>
  <speed>1.2909686285886268</speed>
  <fix>3d</fix>
</trkpt>
<trkpt lat="-27.2743951" lon="151.2900639">
  <ele>353.51</ele>
  <time>2026-09-01T19:52:11Z</time>
  <course>359.14</course>
  <speed>1.04</speed>
  <fix>3d</fix>
</trkpt>
<trkpt lat="-27.2743921" lon="151.2900642">
  <ele>353.71</ele>
  <time>2026-09-01T19:52:11Z</time>
  <course>10.32</course>
  <speed>1.5326447729333763</speed>
  <fix>3d</fix>
</trkpt>
<trkpt lat="-27.2743951" lon="151.2900639">
  <ele>353.51</ele>
  <time>2026-09-01T19:52:11Z</time>
  <course>359.14</course>
  <speed>1.04</speed>
  <fix>3d</fix>
</trkpt>
<trkpt lat="-27.2743905" lon="151.2900642">
  <ele>353.79</ele>
  <time>2026-09-01T19:52:11Z</time>
  <course>10.21</course>
  <speed>1.8453184007102947</speed>
  <fix>3d</fix>
</trkpt>
<trkpt lat="-27.274393" lon="151.2900639">
  <ele>353.73</ele>
  <time>2026-09-01T19:52:11Z</time>
  <course>0.92</course>
  <speed>1.34</speed>
  <fix>3d</fix>
</trkpt>
<trkpt lat="-27.2743887" lon="151.2900644">
  <ele>353.86</ele>
  <time>2026-09-01T19:52:11Z</time>
  <course>10.09</course>
  <speed>2.219954954497951</speed>
  <fix>3d</fix>
</trkpt>
<trkpt lat="-27.274393" lon="151.2900639">
  <ele>353.73</ele>
  <time>2026-09-01T19:52:11Z</time>
  <course>0.92</course>
  <speed>1.34</speed>
  <fix>3d</fix>
</trkpt>
<trkpt lat="-27.2743865" lon="151.2900646">
  <ele>353.91</ele>
  <time>2026-09-01T19:52:11Z</time>
  <course>9.93</course>
  <speed>2.6448629454094594</speed>
  <fix>3d</fix>
</trkpt>
<trkpt lat="-27.2743901" lon="151.290064">
  <ele>353.91</ele>
  <time>2026-09-01T19:52:11Z</time>
  <course>2.83</course>
  <speed>1.89</speed>
  <fix>3d</fix>
</trkpt>
<trkpt lat="-27.2743839" lon="151.2900649">
  <ele>353.95</ele>
  <time>2026-09-01T19:52:11Z</time>
  <course>9.78</course>
  <speed>3.1307666792656397</speed>
  <fix>3d</fix>
</trkpt>
<trkpt lat="-27.2743901" lon="151.290064">
  <ele>353.91</ele>
  <time>2026-09-01T19:52:11Z</time>
  <course>2.83</course>
  <speed>1.89</speed>
  <fix>3d</fix>
</trkpt>
<trkpt lat="-27.2743809" lon="151.2900652">
  <ele>353.98</ele>
  <time>2026-09-01T19:52:11Z</time>
  <course>9.29</course>
  <speed>3.6653103552086828</speed>
  <fix>3d</fix>
</trkpt>
<trkpt lat="-27.274386" lon="151.2900642">
  <ele>354.03</ele>
  <time>2026-09-01T19:52:11Z</time>
  <course>4.24</course>
  <speed>2.68</speed>
  <fix>3d</fix>
</trkpt>
<trkpt lat="-27.2743773" lon="151.2900656">
  <ele>353.99</ele>
  <time>2026-09-01T19:52:11Z</time>
  <course>8.87</course>
  <speed>4.2209240694426144</speed>
  <fix>3d</fix>
</trkpt>
<trkpt lat="-27.274386" lon="151.2900642">
  <ele>354.03</ele>
  <time>2026-09-01T19:52:11Z</time>
  <course>4.24</course>
  <speed>2.68</speed>
  <fix>3d</fix>
</trkpt>
<trkpt lat="-27.2743733" lon="151.2900661">
  <ele>354.0</ele>
  <time>2026-09-01T19:52:11Z</time>
  <course>8.48</course>
  <speed>4.774149138851865</speed>
  <fix>3d</fix>
</trkpt>
<trkpt lat="-27.2743803" lon="151.2900647">
  <ele>354.09</ele>
  <time>2026-09-01T19:52:11Z</time>
  <course>5.09</course>
  <speed>3.68</speed>
  <fix>3d</fix>
</trkpt>
<trkpt lat="-27.2743688" lon="151.2900666">
  <ele>354.0</ele>
  <time>2026-09-01T19:52:11Z</time>
  <course>8.05</course>
  <speed>5.318646444350292</speed>
  <fix>3d</fix>
</trkpt>
<trkpt lat="-27.2743803" lon="151.2900647">
  <ele>354.09</ele>
  <time>2026-09-01T19:52:11Z</time>
  <course>5.09</course>
  <speed>3.68</speed>
  <fix>3d</fix>
</trkpt>
<trkpt lat="-27.2743638" lon="151.2900671">
  <ele>354.0</ele>
  <time>2026-09-01T19:52:11Z</time>
  <course>7.69</course>
  <speed>5.870689908349784</speed>
  <fix>3d</fix>
</trkpt>
<trkpt lat="-27.2743727" lon="151.2900656">
  <ele>354.11</ele>
  <time>2026-09-01T19:52:11Z</time>
  <course>5.58</course>
  <speed>4.78</speed>
  <fix>3d</fix>
</trkpt>
<trkpt lat="-27.2743583" lon="151.2900678">
  <ele>354.0</ele>
  <time>2026-09-01T19:52:11Z</time>
  <course>7.5</course>
  <speed>6.422771987234172</speed>
  <fix>3d</fix>
</trkpt>
<trkpt lat="-27.2743727" lon="151.2900656">
  <ele>354.11</ele>
  <time>2026-09-01T19:52:11Z</time>
  <course>5.58</course>
  <speed>4.78</speed>
  <fix>3d</fix>
</trkpt>
<trkpt lat="-27.2743524" lon="151.2900684">
  <ele>354.0</ele>
  <time>2026-09-01T19:52:11Z</time>
  <course>7.42</course>
  <speed>6.964947953861537</speed>
  <fix>3d</fix>
</trkpt>
<trkpt lat="-27.2743631" lon="151.2900667">
  <ele>354.12</ele>
  <time>2026-09-01T19:52:11Z</time>
  <course>5.86</course>
  <speed>5.88</speed>
  <fix>3d</fix>
</trkpt>
<trkpt lat="-27.2743459" lon="151.2900691">
  <ele>354.01</ele>
  <time>2026-09-01T19:52:11Z</time>
  <course>7.37</course>
  <speed>7.499473314840182</speed>
  <fix>3d</fix>
</trkpt>
<trkpt lat="-27.2743631" lon="151.2900667">
  <ele>354.12</ele>
  <time>2026-09-01T19:52:11Z</time>
  <course>5.86</course>
  <speed>5.88</speed>
  <fix>3d</fix>
</trkpt>
<trkpt lat="-27.274339" lon="151.2900699">
  <ele>354.01</ele>
  <time>2026-09-01T19:52:11Z</time>
  <course>7.32</course>
  <speed>8.021782844231076</speed>
  <fix>3d</fix>
</trkpt>
<trkpt lat="-27.2743516" lon="151.290068">
  <ele>354.13</ele>
  <time>2026-09-01T19:52:11Z</time>
  <course>6.08</course>
  <speed>6.97</speed>
  <fix>3d</fix>
</trkpt>
<trkpt lat="-27.2743316" lon="151.2900708">
  <ele>354.01</ele>
  <time>2026-09-01T19:52:11Z</time>
  <course>7.33</course>
  <speed>8.555168028741457</speed>
  <fix>3d</fix>
</trkpt>
<trkpt lat="-27.2743516" lon="151.290068">
  <ele>354.13</ele>
  <time>2026-09-01T19:52:11Z</time>
  <course>6.08</course>
  <speed>6.97</speed>
  <fix>3d</fix>
</trkpt>
<trkpt lat="-27.2743237" lon="151.2900717">
  <ele>354.02</ele>
  <time>2026-09-01T19:52:11Z</time>
  <course>7.19</course>
  <speed>9.068682373972528</speed>
  <fix>3d</fix>
</trkpt>
<trkpt lat="-27.2743382" lon="151.2900696">
  <ele>354.13</ele>
  <time>2026-09-01T19:52:11Z</time>
  <course>6.27</course>
  <speed>8.04</speed>
  <fix>3d</fix>
</trkpt>
<trkpt lat="-27.2743154" lon="151.2900727">
  <ele>354.03</ele>
  <time>2026-09-01T19:52:11Z</time>
  <course>7.12</course>
  <speed>9.572262010622149</speed>
  <fix>3d</fix>
</trkpt>
<trkpt lat="-27.2743382" lon="151.2900696">
  <ele>354.13</ele>
  <time>2026-09-01T19:52:11Z</time>
  <course>6.27</course>
  <speed>8.04</speed>
  <fix>3d</fix>
</trkpt>
<trkpt lat="-27.2743067" lon="151.2900738">
  <ele>354.04</ele>
  <time>2026-09-01T19:52:11Z</time>
  <course>6.96</course>
  <speed>10.07584239654432</speed>
  <fix>3d</fix>
</trkpt>
<trkpt lat="-27.274323" lon="151.2900715">
  <ele>354.15</ele>
  <time>2026-09-01T19:52:11Z</time>
  <course>6.41</course>
  <speed>9.09</speed>
  <fix>3d</fix>
</trkpt>
<trkpt lat="-27.2742975" lon="151.2900749">
  <ele>354.05</ele>
  <time>2026-09-01T19:52:11Z</time>
  <course>6.84</course>
  <speed>10.569489107804594</speed>
  <fix>3d</fix>
</trkpt>
<trkpt lat="-27.274323" lon="151.2900715">
  <ele>354.15</ele>
  <time>2026-09-01T19:52:11Z</time>
  <course>6.41</course>
  <speed>9.09</speed>
  <fix>3d</fix>
</trkpt>
<trkpt lat="-27.2742879" lon="151.2900761">
  <ele>354.07</ele>
  <time>2026-09-01T19:52:11Z</time>
  <course>6.74</course>
  <speed>11.053203155646784</speed>
  <fix>3d</fix>
</trkpt>
<trkpt lat="-27.2743058" lon="151.2900737">
  <ele>354.16</ele>
  <time>2026-09-01T19:52:11Z</time>
  <course>6.52</course>
  <speed>10.1</speed>
  <fix>3d</fix>
</trkpt>
<trkpt lat="-27.2742778" lon="151.2900774">
  <ele>354.08</ele>
  <time>2026-09-01T19:52:11Z</time>
  <course>6.67</course>
  <speed>11.53577045541389</speed>
  <fix>3d</fix>
</trkpt>
<trkpt lat="-27.2743058" lon="151.2900737">
  <ele>354.16</ele>
  <time>2026-09-01T19:52:11Z</time>
  <course>6.52</course>
  <speed>10.1</speed>
  <fix>3d</fix>
</trkpt>
<trkpt lat="-27.2742674" lon="151.2900787">
  <ele>354.1</ele>
  <time>2026-09-01T19:52:11Z</time>
  <course>6.51</course>
  <speed>12.008405389559432</speed>
  <fix>3d</fix>
</trkpt>
<trkpt lat="-27.2742869" lon="151.2900761">
  <ele>354.19</ele>
  <time>2026-09-01T19:52:11Z</time>
  <course>6.58</course>
  <speed>11.09</speed>
  <fix>3d</fix>
</trkpt>
<trkpt lat="-27.2742565" lon="151.2900801">
  <ele>354.12</ele>
  <time>2026-09-01T19:52:11Z</time>
  <course>6.47</course>
  <speed>12.481041623197962</speed>
  <fix>3d</fix>
</trkpt>
<trkpt lat="-27.2742869" lon="151.2900761">
  <ele>354.19</ele>
  <time>2026-09-01T19:52:11Z</time>
  <course>6.58</course>
  <speed>11.09</speed>
  <fix>3d</fix>
</trkpt>
<trkpt lat="-27.2742452" lon="151.2900816">
  <ele>354.13</ele>
  <time>2026-09-01T19:52:11Z</time>
  <course>6.41</course>
  <speed>12.943743662480342</speed>
  <fix>3d</fix>
</trkpt>
<trkpt lat="-27.2742662" lon="151.2900789">
  <ele>354.22</ele>
  <time>2026-09-01T19:52:11Z</time>
  <course>6.58</course>
  <speed>12.06</speed>
  <fix>3d</fix>
</trkpt>
<trkpt lat="-27.2742334" lon="151.2900831">
  <ele>354.15</ele>
  <time>2026-09-01T19:52:11Z</time>
  <course>6.4</course>
  <speed>13.396510739741153</speed>
  <fix>3d</fix>
</trkpt>
<trkpt lat="-27.2742662" lon="151.2900789">
  <ele>354.22</ele>
  <time>2026-09-01T19:52:11Z</time>
  <course>6.58</course>
  <speed>12.06</speed>
  <fix>3d</fix>
</trkpt>
<trkpt lat="-27.2742213" lon="151.2900846">
  <ele>354.16</ele>
  <time>2026-09-01T19:52:11Z</time>
  <course>6.43</course>
  <speed>13.839342469929704</speed>
  <fix>3d</fix>
</trkpt>
<trkpt lat="-27.2742438" lon="151.2900818">
  <ele>354.25</ele>
  <time>2026-09-01T19:52:11Z</time>
  <course>6.57</course>
  <speed>12.99</speed>
  <fix>3d</fix>
</trkpt>
<trkpt lat="-27.2742088" lon="151.2900862">
  <ele>354.18</ele>
  <time>2026-09-01T19:52:11Z</time>
  <course>6.49</course>
  <speed>14.272238787240074</speed>
  <fix>3d</fix>
</trkpt>
<trkpt lat="-27.2742438" lon="151.2900818">
  <ele>354.25</ele>
  <time>2026-09-01T19:52:11Z</time>
  <course>6.57</course>
  <speed>12.99</speed>
  <fix>3d</fix>
</trkpt>
<trkpt lat="-27.2741959" lon="151.2900879">
  <ele>354.19</ele>
  <time>2026-09-01T19:52:11Z</time>
  <course>6.37</course>
  <speed>14.705135157488353</speed>
  <fix>3d</fix>
</trkpt>
<trkpt lat="-27.2742198" lon="151.2900849">
  <ele>354.28</ele>
  <time>2026-09-01T19:52:11Z</time>
  <course>6.56</course>
  <speed>13.9</speed>
  <fix>3d</fix>
</trkpt>
<trkpt lat="-27.2741826" lon="151.2900896">
  <ele>354.21</ele>
  <time>2026-09-01T19:52:11Z</time>
  <course>6.3</course>
  <speed>15.12696268257445</speed>
  <fix>3d</fix>
</trkpt>
<trkpt lat="-27.2742198" lon="151.2900849">
  <ele>354.28</ele>
  <time>2026-09-01T19:52:11Z</time>
  <course>6.56</course>
  <speed>13.9</speed>
  <fix>3d</fix>
</trkpt>
<trkpt lat="-27.2741689" lon="151.2900914">
  <ele>354.22</ele>
  <time>2026-09-01T19:52:11Z</time>
  <course>6.27</course>
  <speed>15.53885774437748</speed>
  <fix>3d</fix>
</trkpt>
<trkpt lat="-27.2741941" lon="151.2900882">
  <ele>354.31</ele>
  <time>2026-09-01T19:52:11Z</time>
  <course>6.53</course>
  <speed>14.77</speed>
  <fix>3d</fix>
</trkpt>
<trkpt lat="-27.2741548" lon="151.2900931">
  <ele>354.23</ele>
  <time>2026-09-01T19:52:11Z</time>
  <course>6.29</course>
  <speed>15.939698867920939</speed>
  <fix>3d</fix>
</trkpt>
<trkpt lat="-27.2741941" lon="151.2900882">
  <ele>354.31</ele>
  <time>2026-09-01T19:52:11Z</time>
  <course>6.53</course>
  <speed>14.77</speed>
  <fix>3d</fix>
</trkpt>
<trkpt lat="-27.2741404" lon="151.290095">
  <ele>354.24</ele>
  <time>2026-09-01T19:52:11Z</time>
  <course>6.35</course>
  <speed>16.332844210363362</speed>
  <fix>3d</fix>
</trkpt>
<trkpt lat="-27.2741671" lon="151.2900917">
  <ele>354.34</ele>
  <time>2026-09-01T19:52:11Z</time>
  <course>6.47</course>
  <speed>15.6</speed>
  <fix>3d</fix>
</trkpt>
<trkpt lat="-27.2741257" lon="151.2900969">
  <ele>354.25</ele>
  <time>2026-09-01T19:52:11Z</time>
  <course>6.46</course>
  <speed>16.724870702041315</speed>
  <fix>3d</fix>
</trkpt>
<trkpt lat="-27.2741671" lon="151.2900917">
  <ele>354.34</ele>
  <time>2026-09-01T19:52:11Z</time>
  <course>6.47</course>
  <speed>15.6</speed>
  <fix>3d</fix>
</trkpt>
<trkpt lat="-27.2741107" lon="151.2900988">
  <ele>354.27</ele>
  <time>2026-09-01T19:52:11Z</time>
  <course>6.47</course>
  <speed>17.09702313269769</speed>
  <fix>3d</fix>
</trkpt>
<trkpt lat="-27.2741385" lon="151.2900953">
  <ele>354.36</ele>
  <time>2026-09-01T19:52:11Z</time>
  <course>6.43</course>
  <speed>16.41</speed>
  <fix>3d</fix>
</trkpt>
<trkpt lat="-27.2740953" lon="151.2901007">
  <ele>354.28</ele>
  <time>2026-09-01T19:52:11Z</time>
  <course>6.33</course>
  <speed>17.469175710376263</speed>
  <fix>3d</fix>
</trkpt>
<trkpt lat="-27.2741385" lon="151.2900953">
  <ele>354.36</ele>
  <time>2026-09-01T19:52:11Z</time>
  <course>6.43</course>
  <speed>16.41</speed>
  <fix>3d</fix>
</trkpt>
<trkpt lat="-27.2740795" lon="151.2901027">
  <ele>354.29</ele>
  <time>2026-09-01T19:52:11Z</time>
  <course>6.19</course>
  <speed>17.83139085994135</speed>
  <fix>3d</fix>
</trkpt>
<trkpt lat="-27.2741085" lon="151.2900991">
  <ele>354.38</ele>
  <time>2026-09-01T19:52:11Z</time>
  <course>6.43</course>
  <speed>17.18</speed>
  <fix>3d</fix>
</trkpt>
<trkpt lat="-27.2740634" lon="151.2901047">
  <ele>354.29</ele>
  <time>2026-09-01T19:52:11Z</time>
  <course>6.21</course>
  <speed>18.18255482598636</speed>
  <fix>3d</fix>
</trkpt>
<trkpt lat="-27.2741085" lon="151.2900991">
  <ele>354.38</ele>
  <time>2026-09-01T19:52:11Z</time>
  <course>6.43</course>
  <speed>17.18</speed>
  <fix>3d</fix>
</trkpt>
<trkpt lat="-27.2740468" lon="151.2901069">
  <ele>354.3</ele>
  <time>2026-09-01T19:52:11Z</time>
  <course>6.26</course>
  <speed>18.534832073693032</speed>
  <fix>3d</fix>
</trkpt>
<trkpt lat="-27.2740772" lon="151.2901031">
  <ele>354.4</ele>
  <time>2026-09-01T19:52:11Z</time>
  <course>6.42</course>
  <speed>17.92</speed>
  <fix>3d</fix>
</trkpt>
<trkpt lat="-27.2740301" lon="151.290109">
  <ele>354.31</ele>
  <time>2026-09-01T19:52:11Z</time>
  <course>6.34</course>
  <speed>18.867233501496713</speed>
  <fix>3d</fix>
</trkpt>
<trkpt lat="-27.2740772" lon="151.2901031">
  <ele>354.4</ele>
  <time>2026-09-01T19:52:11Z</time>
  <course>6.42</course>
  <speed>17.92</speed>
  <fix>3d</fix>
</trkpt>
<trkpt lat="-27.2740131" lon="151.2901111">
  <ele>354.31</ele>
  <time>2026-09-01T19:52:11Z</time>
  <course>6.37</course>
  <speed>19.198523380718633</speed>
  <fix>3d</fix>
</trkpt>
<trkpt lat="-27.2740445" lon="151.2901072">
  <ele>354.41</ele>
  <time>2026-09-01T19:52:11Z</time>
  <course>6.39</course>
  <speed>18.63</speed>
  <fix>3d</fix>
</trkpt>
<trkpt lat="-27.2739958" lon="151.2901133">
  <ele>354.31</ele>
  <time>2026-09-01T19:52:11Z</time>
  <course>6.33</course>
  <speed>19.520986143122997</speed>
  <fix>3d</fix>
</trkpt>
<trkpt lat="-27.2740445" lon="151.2901072">
  <ele>354.41</ele>
  <time>2026-09-01T19:52:11Z</time>
  <course>6.39</course>
  <speed>18.63</speed>
  <fix>3d</fix>
</trkpt>
<trkpt lat="-27.2739782" lon="151.2901155">
  <ele>354.32</ele>
  <time>2026-09-01T19:52:11Z</time>
  <course>6.32</course>
  <speed>19.832400258163407</speed>
  <fix>3d</fix>
</trkpt>
<trkpt lat="-27.2740105" lon="151.2901115">
  <ele>354.41</ele>
  <time>2026-09-01T19:52:11Z</time>
  <course>6.38</course>
  <speed>19.3</speed>
  <fix>3d</fix>
</trkpt>
<trkpt lat="-27.2739603" lon="151.2901178">
  <ele>354.32</ele>
  <time>2026-09-01T19:52:11Z</time>
  <course>6.29</course>
  <speed>20.14381542806625</speed>
  <fix>3d</fix>
</trkpt>
<trkpt lat="-27.2740105" lon="151.2901115">
  <ele>354.41</ele>
  <time>2026-09-01T19:52:11Z</time>
  <course>6.38</course>
  <speed>19.3</speed>
  <fix>3d</fix>
</trkpt>
<trkpt lat="-27.2739421" lon="151.29012">
  <ele>354.33</ele>
  <time>2026-09-01T19:52:11Z</time>
  <course>6.28</course>
  <speed>20.435354168694996</speed>
  <fix>3d</fix>
</trkpt>
<trkpt lat="-27.2739755" lon="151.2901159">
  <ele>354.42</ele>
  <time>2026-09-01T19:52:11Z</time>
  <course>6.36</course>
  <speed>19.94</speed>
  <fix>3d</fix>
</trkpt>
<trkpt lat="-27.2739237" lon="151.2901223">
  <ele>354.35</ele>
  <time>2026-09-01T19:52:11Z</time>
  <course>6.23</course>
  <speed>20.72800038595137</speed>
  <fix>3d</fix>
</trkpt>
<trkpt lat="-27.2739755" lon="151.2901159">
  <ele>354.42</ele>
  <time>2026-09-01T19:52:11Z</time>
  <course>6.36</course>
  <speed>19.94</speed>
  <fix>3d</fix>
</trkpt>
<trkpt lat="-27.273905" lon="151.2901247">
  <ele>354.36</ele>
  <time>2026-09-01T19:52:11Z</time>
  <course>6.22</course>
  <speed>21.008493520478805</speed>
  <fix>3d</fix>
</trkpt>
<trkpt lat="-27.2739393" lon="151.2901205">
  <ele>354.44</ele>
  <time>2026-09-01T19:52:11Z</time>
  <course>6.35</course>
  <speed>20.55</speed>
  <fix>3d</fix>
</trkpt>
<trkpt lat="-27.2738861" lon="151.2901271">
  <ele>354.39</ele>
  <time>2026-09-01T19:52:11Z</time>
  <course>6.22</course>
  <speed>21.29009394061003</speed>
  <fix>3d</fix>
</trkpt>
<trkpt lat="-27.2739393" lon="151.2901205">
  <ele>354.44</ele>
  <time>2026-09-01T19:52:11Z</time>
  <course>6.35</course>
  <speed>20.55</speed>
  <fix>3d</fix>
</trkpt>
<trkpt lat="-27.2738669" lon="151.2901295">
  <ele>354.41</ele>
  <time>2026-09-01T19:52:11Z</time>
  <course>6.2</course>
  <speed>21.56175549439331</speed>
  <fix>3d</fix>
</trkpt>
<trkpt lat="-27.2739021" lon="151.2901251">
  <ele>354.47</ele>
  <time>2026-09-01T19:52:11Z</time>
  <course>6.32</course>
  <speed>21.12</speed>
  <fix>3d</fix>
</trkpt>
<trkpt lat="-27.2738475" lon="151.2901319">
  <ele>354.44</ele>
  <time>2026-09-01T19:52:11Z</time>
  <course>6.19</course>
  <speed>21.813539373517543</speed>
  <fix>3d</fix>
</trkpt>
<trkpt lat="-27.2739021" lon="151.2901251">
  <ele>354.47</ele>
  <time>2026-09-01T19:52:11Z</time>
  <course>6.32</course>
  <speed>21.12</speed>
  <fix>3d</fix>
</trkpt>
<trkpt lat="-27.2738279" lon="151.2901343">
  <ele>354.47</ele>
  <time>2026-09-01T19:52:11Z</time>
  <course>6.16</course>
  <speed>22.06421990463293</speed>
  <fix>3d</fix>
</trkpt>
<trkpt lat="-27.2738639" lon="151.2901298">
  <ele>354.52</ele>
  <time>2026-09-01T19:52:11Z</time>
  <course>6.29</course>
  <speed>21.67</speed>
  <fix>3d</fix>
</trkpt>
<trkpt lat="-27.2738081" lon="151.2901368">
  <ele>354.51</ele>
  <time>2026-09-01T19:52:11Z</time>
  <course>6.1</course>
  <speed>22.304963573160123</speed>
  <fix>3d</fix>
</trkpt>
<trkpt lat="-27.2738639" lon="151.2901298">
  <ele>354.52</ele>
  <time>2026-09-01T19:52:11Z</time>
  <course>6.29</course>
  <speed>21.67</speed>
  <fix>3d</fix>
</trkpt>
<trkpt lat="-27.273788" lon="151.2901393">
  <ele>354.56</ele>
  <time>2026-09-01T19:52:11Z</time>
  <course>6.13</course>
  <speed>22.535769345642496</speed>
  <fix>3d</fix>
</trkpt>
<trkpt lat="-27.2738248" lon="151.2901347">
  <ele>354.59</ele>
  <time>2026-09-01T19:52:11Z</time>
  <course>6.28</course>
  <speed>22.17</speed>
  <fix>3d</fix>
</trkpt>
<trkpt lat="-27.2737677" lon="151.2901418">
  <ele>354.61</ele>
  <time>2026-09-01T19:52:11Z</time>
  <course>6.15</course>
  <speed>22.766576378542297</speed>
  <fix>3d</fix>
</trkpt>
<trkpt lat="-27.2738248" lon="151.2901347">
  <ele>354.59</ele>
  <time>2026-09-01T19:52:11Z</time>
  <course>6.28</course>
  <speed>22.17</speed>
  <fix>3d</fix>
</trkpt>
<trkpt lat="-27.2737472" lon="151.2901443">
  <ele>354.66</ele>
  <time>2026-09-01T19:52:11Z</time>
  <course>6.16</course>
  <speed>22.978598738826527</speed>
  <fix>3d</fix>
</trkpt>
<trkpt lat="-27.2737848" lon="151.2901397">
  <ele>354.68</ele>
  <time>2026-09-01T19:52:11Z</time>
  <course>6.25</course>
  <speed>22.65</speed>
  <fix>3d</fix>
</trkpt>
<trkpt lat="-27.2737267" lon="151.2901469">
  <ele>354.72</ele>
  <time>2026-09-01T19:52:11Z</time>
  <course>6.15</course>
  <speed>23.189525652759695</speed>
  <fix>3d</fix>
</trkpt>
<trkpt lat="-27.2737848" lon="151.2901397">
  <ele>354.68</ele>
  <time>2026-09-01T19:52:11Z</time>
  <course>6.25</course>
  <speed>22.65</speed>
  <fix>3d</fix>
</trkpt>
<trkpt lat="-27.2737059" lon="151.2901494">
  <ele>354.78</ele>
  <time>2026-09-01T19:52:11Z</time>
  <course>6.12</course>
  <speed>23.399361102389097</speed>
  <fix>3d</fix>
</trkpt>
<trkpt lat="-27.2737439" lon="151.2901446">
  <ele>354.78</ele>
  <time>2026-09-01T19:52:11Z</time>
  <course>6.23</course>
  <speed>23.1</speed>
  <fix>3d</fix>
</trkpt>
<trkpt lat="-27.2736848" lon="151.290152">
  <ele>354.84</ele>
  <time>2026-09-01T19:52:11Z</time>
  <course>6.1</course>
  <speed>23.600349573682166</speed>
  <fix>3d</fix>
</trkpt>
<trkpt lat="-27.2737439" lon="151.2901446">
  <ele>354.78</ele>
  <time>2026-09-01T19:52:11Z</time>
  <course>6.23</course>
  <speed>23.1</speed>
  <fix>3d</fix>
</trkpt>
<trkpt lat="-27.2736636" lon="151.2901546">
  <ele>354.91</ele>
  <time>2026-09-01T19:52:11Z</time>
  <course>6.04</course>
  <speed>23.801338197672834</speed>
  <fix>3d</fix>
</trkpt>
<trkpt lat="-27.2737023" lon="151.2901498">
  <ele>354.9</ele>
  <time>2026-09-01T19:52:11Z</time>
  <course>6.22</course>
  <speed>23.52</speed>
  <fix>3d</fix>
</trkpt>
<trkpt lat="-27.273642" lon="151.2901573">
  <ele>354.99</ele>
  <time>2026-09-01T19:52:11Z</time>
  <course>6.0</course>
  <speed>23.991300506641988</speed>
  <fix>3d</fix>
</trkpt>
<trkpt lat="-27.2737023" lon="151.2901498">
  <ele>354.9</ele>
  <time>2026-09-01T19:52:11Z</time>
  <course>6.22</course>
  <speed>23.52</speed>
  <fix>3d</fix>
</trkpt>
<trkpt lat="-27.2736204" lon="151.2901599">
  <ele>355.06</ele>
  <time>2026-09-01T19:52:11Z</time>
  <course>5.95</course>
  <speed>24.172407823797776</speed>
  <fix>3d</fix>
</trkpt>
<trkpt lat="-27.2736599" lon="151.2901549">
  <ele>355.04</ele>
  <time>2026-09-01T19:52:11Z</time>
  <course>6.19</course>
  <speed>23.91</speed>
  <fix>3d</fix>
</trkpt>
<trkpt lat="-27.2735987" lon="151.2901625">
  <ele>355.14</ele>
  <time>2026-09-01T19:52:11Z</time>
  <course>5.97</course>
  <speed>24.35243314332266</speed>
  <fix>3d</fix>
</trkpt>
<trkpt lat="-27.2736599" lon="151.2901549">
  <ele>355.04</ele>
  <time>2026-09-01T19:52:11Z</time>
  <course>6.19</course>
  <speed>23.91</speed>
  <fix>3d</fix>
</trkpt>
<trkpt lat="-27.2735768" lon="151.2901652">
  <ele>355.23</ele>
  <time>2026-09-01T19:52:11Z</time>
  <course>5.96</course>
  <speed>24.52144571594424</speed>
  <fix>3d</fix>
</trkpt>
<trkpt lat="-27.2736169" lon="151.2901602">
  <ele>355.2</ele>
  <time>2026-09-01T19:52:11Z</time>
  <course>6.15</course>
  <speed>24.29</speed>
  <fix>3d</fix>
</trkpt>
<trkpt lat="-27.2735548" lon="151.2901678">
  <ele>355.31</ele>
  <time>2026-09-01T19:52:11Z</time>
  <course>5.89</course>
  <speed>24.68159638273019</speed>
  <fix>3d</fix>
</trkpt>
<trkpt lat="-27.2736169" lon="151.2901602">
  <ele>355.2</ele>
  <time>2026-09-01T19:52:11Z</time>
  <course>6.15</course>
  <speed>24.29</speed>
  <fix>3d</fix>
</trkpt>
<trkpt lat="-27.2735326" lon="151.2901705">
  <ele>355.4</ele>
  <time>2026-09-01T19:52:11Z</time>
  <course>5.91</course>
  <speed>24.841749133263544</speed>
  <fix>3d</fix>
</trkpt>
<trkpt lat="-27.2735731" lon="151.2901655">
  <ele>355.36</ele>
  <time>2026-09-01T19:52:11Z</time>
  <course>6.1</course>
  <speed>24.63</speed>
  <fix>3d</fix>
</trkpt>
<trkpt lat="-27.2735101" lon="151.2901732">
  <ele>355.49</ele>
  <time>2026-09-01T19:52:11Z</time>
  <course>5.97</course>
  <speed>25.002969823602957</speed>
  <fix>3d</fix>
</trkpt>
<trkpt lat="-27.2735731" lon="151.2901655">
  <ele>355.36</ele>
  <time>2026-09-01T19:52:11Z</time>
  <course>6.1</course>
  <speed>24.63</speed>
  <fix>3d</fix>
</trkpt>
<trkpt lat="-27.2734876" lon="151.2901759">
  <ele>355.59</ele>
  <time>2026-09-01T19:52:11Z</time>
  <course>6.01</course>
  <speed>25.153180713380962</speed>
  <fix>3d</fix>
</trkpt>
<trkpt lat="-27.2735288" lon="151.2901708">
  <ele>355.54</ele>
  <time>2026-09-01T19:52:11Z</time>
  <course>6.07</course>
  <speed>24.95</speed>
  <fix>3d</fix>
</trkpt>
<trkpt lat="-27.273465" lon="151.2901786">
  <ele>355.68</ele>
  <time>2026-09-01T19:52:11Z</time>
  <course>6.0</course>
  <speed>25.28350648149896</speed>
  <fix>3d</fix>
</trkpt>
<trkpt lat="-27.2735288" lon="151.2901708">
  <ele>355.54</ele>
  <time>2026-09-01T19:52:11Z</time>
  <course>6.07</course>
  <speed>24.95</speed>
  <fix>3d</fix>
</trkpt>
<trkpt lat="-27.2734422" lon="151.2901813">
  <ele>355.78</ele>
  <time>2026-09-01T19:52:11Z</time>
  <course>5.96</course>
  <speed>25.434783270159784</speed>
  <fix>3d</fix>
</trkpt>
<trkpt lat="-27.2734839" lon="151.2901762">
  <ele>355.72</ele>
  <time>2026-09-01T19:52:11Z</time>
  <course>6.05</course>
  <speed>25.25</speed>
  <fix>3d</fix>
</trkpt>
<trkpt lat="-27.2734193" lon="151.2901841">
  <ele>355.88</ele>
  <time>2026-09-01T19:52:11Z</time>
  <course>5.92</course>
  <speed>25.564047019202576</speed>
  <fix>3d</fix>
</trkpt>
<trkpt lat="-27.2734839" lon="151.2901762">
  <ele>355.72</ele>
  <time>2026-09-01T19:52:11Z</time>
  <course>6.05</course>
  <speed>25.25</speed>
  <fix>3d</fix>
</trkpt>
<trkpt lat="-27.2733963" lon="151.2901868">
  <ele>355.98</ele>
  <time>2026-09-01T19:52:11Z</time>
  <course>5.9</course>
  <speed>25.704318703284084</speed>
  <fix>3d</fix>
</trkpt>
<trkpt lat="-27.2734386" lon="151.2901815">
  <ele>355.93</ele>
  <time>2026-09-01T19:52:11Z</time>
  <course>6.03</course>
  <speed>25.53</speed>
  <fix>3d</fix>
</trkpt>
<trkpt lat="-27.2733732" lon="151.2901895">
  <ele>356.08</ele>
  <time>2026-09-01T19:52:12Z</time>
  <course>5.85</course>
  <speed>25.834647278412763</speed>
  <fix>3d</fix>
</trkpt>
<trkpt lat="-27.2734386" lon="151.2901815">
  <ele>355.93</ele>
  <time>2026-09-01T19:52:12Z</time>
  <course>6.03</course>
  <speed>25.53</speed>
  <fix>3d</fix>
</trkpt>
<trkpt lat="-27.2733499" lon="151.2901923">
  <ele>356.19</ele>
  <time>2026-09-01T19:52:12Z</time>
  <course>5.78</course>
  <speed>25.96392304718222</speed>
  <fix>3d</fix>
</trkpt>
<trkpt lat="-27.2733927" lon="151.290187">
  <ele>356.14</ele>
  <time>2026-09-01T19:52:12Z</time>
  <course>6.01</course>
  <speed>25.79</speed>
  <fix>3d</fix>
</trkpt>
<trkpt lat="-27.2733266" lon="151.290195">
  <ele>356.3</ele>
  <time>2026-09-01T19:52:12Z</time>
  <course>5.82</course>
  <speed>26.083260915767415</speed>
  <fix>3d</fix>
</trkpt>
<trkpt lat="-27.2733927" lon="151.290187">
  <ele>356.14</ele>
  <time>2026-09-01T19:52:12Z</time>
  <course>6.01</course>
  <speed>25.79</speed>
  <fix>3d</fix>
</trkpt>
<trkpt lat="-27.2733031" lon="151.2901978">
  <ele>356.41</ele>
  <time>2026-09-01T19:52:12Z</time>
  <course>5.91</course>
  <speed>26.193703441857927</speed>
  <fix>3d</fix>
</trkpt>
<trkpt lat="-27.2733464" lon="151.2901925">
  <ele>356.36</ele>
  <time>2026-09-01T19:52:12Z</time>
  <course>5.97</course>
  <speed>26.04</speed>
  <fix>3d</fix>
</trkpt>
<trkpt lat="-27.2732796" lon="151.2902005">
  <ele>356.53</ele>
  <time>2026-09-01T19:52:12Z</time>
  <course>5.92</course>
  <speed>26.314091282048864</speed>
  <fix>3d</fix>
</trkpt>
<trkpt lat="-27.2733464" lon="151.2901925">
  <ele>356.36</ele>
  <time>2026-09-01T19:52:12Z</time>
  <course>5.97</course>
  <speed>26.04</speed>
  <fix>3d</fix>
</trkpt>
<trkpt lat="-27.2732561" lon="151.2902033">
  <ele>356.65</ele>
  <time>2026-09-01T19:52:12Z</time>
  <course>5.92</course>
  <speed>26.423491442275377</speed>
  <fix>3d</fix>
</trkpt>
<trkpt lat="-27.2732997" lon="151.290198">
  <ele>356.58</ele>
  <time>2026-09-01T19:52:12Z</time>
  <course>5.93</course>
  <speed>26.27</speed>
  <fix>3d</fix>
</trkpt>
<trkpt lat="-27.2732324" lon="151.290206">
  <ele>356.77</ele>
  <time>2026-09-01T19:52:12Z</time>
  <course>5.88</course>
  <speed>26.52398914190699</speed>
  <fix>3d</fix>
</trkpt>
<trkpt lat="-27.2732997" lon="151.290198">
  <ele>356.58</ele>
  <time>2026-09-01T19:52:12Z</time>
  <course>5.93</course>
  <speed>26.27</speed>
  <fix>3d</fix>
</trkpt>
<trkpt lat="-27.2732085" lon="151.2902088">
  <ele>356.89</ele>
  <time>2026-09-01T19:52:12Z</time>
  <course>5.77</course>
  <speed>26.634432601427797</speed>
  <fix>3d</fix>
</trkpt>
<trkpt lat="-27.2732525" lon="151.2902035">
  <ele>356.82</ele>
  <time>2026-09-01T19:52:12Z</time>
  <course>5.92</course>
  <speed>26.49</speed>
  <fix>3d</fix>
</trkpt>
<trkpt lat="-27.2731846" lon="151.2902116">
  <ele>357.02</ele>
  <time>2026-09-01T19:52:12Z</time>
  <course>5.78</course>
  <speed>26.73389234660752</speed>
  <fix>3d</fix>
</trkpt>
<trkpt lat="-27.2732525" lon="151.2902035">
  <ele>356.82</ele>
  <time>2026-09-01T19:52:12Z</time>
  <course>5.92</course>
  <speed>26.49</speed>
  <fix>3d</fix>
</trkpt>
<trkpt lat="-27.2731604" lon="151.2902144">
  <ele>357.14</ele>
  <time>2026-09-01T19:52:12Z</time>
  <course>5.83</course>
  <speed>26.823409552105787</speed>
  <fix>3d</fix>
</trkpt>
<trkpt lat="-27.273205" lon="151.290209">
  <ele>357.06</ele>
  <time>2026-09-01T19:52:12Z</time>
  <course>5.89</course>
  <speed>26.69</speed>
  <fix>3d</fix>
</trkpt>
<trkpt lat="-27.2731363" lon="151.2902172">
  <ele>357.27</ele>
  <time>2026-09-01T19:52:12Z</time>
  <course>5.81</course>
  <speed>26.923907591581127</speed>
  <fix>3d</fix>
</trkpt>
<trkpt lat="-27.273205" lon="151.290209">
  <ele>357.06</ele>
  <time>2026-09-01T19:52:12Z</time>
  <course>5.89</course>
  <speed>26.69</speed>
  <fix>3d</fix>
</trkpt>
<trkpt lat="-27.2731121" lon="151.29022">
  <ele>357.4</ele>
  <time>2026-09-01T19:52:12Z</time>
  <course>5.77</course>
  <speed>27.0134281423147</speed>
  <fix>3d</fix>
</trkpt>
<trkpt lat="-27.2731572" lon="151.2902145">
  <ele>357.3</ele>
  <time>2026-09-01T19:52:12Z</time>
  <course>5.87</course>
  <speed>26.88</speed>
  <fix>3d</fix>
</trkpt>
<trkpt lat="-27.2730879" lon="151.2902228">
  <ele>357.53</ele>
  <time>2026-09-01T19:52:12Z</time>
  <course>5.84</course>
  <speed>27.094032553313287</speed>
  <fix>3d</fix>
</trkpt>
<trkpt lat="-27.2731572" lon="151.2902145">
  <ele>357.3</ele>
  <time>2026-09-01T19:52:12Z</time>
  <course>5.87</course>
  <speed>26.88</speed>
  <fix>3d</fix>
</trkpt>
<trkpt lat="-27.2730636" lon="151.2902256">
  <ele>357.67</ele>
  <time>2026-09-01T19:52:12Z</time>
  <course>5.85</course>
  <speed>27.174637072093528</speed>
  <fix>3d</fix>
</trkpt>
<trkpt lat="-27.2731089" lon="151.2902202">
  <ele>357.56</ele>
  <time>2026-09-01T19:52:12Z</time>
  <course>5.84</course>
  <speed>27.05</speed>
  <fix>3d</fix>
</trkpt>
<trkpt lat="-27.2730392" lon="151.2902284">
  <ele>357.8</ele>
  <time>2026-09-01T19:52:12Z</time>
  <course>5.8</course>
  <speed>27.254212518434652</speed>
  <fix>3d</fix>
</trkpt>
<trkpt lat="-27.2731089" lon="151.2902202">
  <ele>357.56</ele>
  <time>2026-09-01T19:52:12Z</time>
  <course>5.84</course>
  <speed>27.05</speed>
  <fix>3d</fix>
</trkpt>
<trkpt lat="-27.2730147" lon="151.2902312">
  <ele>357.93</ele>
  <time>2026-09-01T19:52:12Z</time>
  <course>5.73</course>
  <speed>27.333790443332223</speed>
  <fix>3d</fix>
</trkpt>
<trkpt lat="-27.2730603" lon="151.2902258">
  <ele>357.82</ele>
  <time>2026-09-01T19:52:12Z</time>
  <course>5.82</course>
  <speed>27.21</speed>
  <fix>3d</fix>
</trkpt>
<trkpt lat="-27.2729902" lon="151.290234">
  <ele>358.07</ele>
  <time>2026-09-01T19:52:12Z</time>
  <course>5.74</course>
  <speed>27.41337082520134</speed>
  <fix>3d</fix>
</trkpt>
<trkpt lat="-27.2730603" lon="151.2902258">
  <ele>357.82</ele>
  <time>2026-09-01T19:52:12Z</time>
  <course>5.82</course>
  <speed>27.21</speed>
  <fix>3d</fix>
</trkpt>
<trkpt lat="-27.2729656" lon="151.2902368">
  <ele>358.2</ele>
  <time>2026-09-01T19:52:12Z</time>
  <course>5.77</course>
  <speed>27.48198864711213</speed>
  <fix>3d</fix>
</trkpt>
<trkpt lat="-27.2730115" lon="151.2902313">
  <ele>358.08</ele>
  <time>2026-09-01T19:52:12Z</time>
  <course>5.8</course>
  <speed>27.36</speed>
  <fix>3d</fix>
</trkpt>
<trkpt lat="-27.272941" lon="151.2902396">
  <ele>358.34</ele>
  <time>2026-09-01T19:52:12Z</time>
  <course>5.74</course>
  <speed>27.552642341525072</speed>
  <fix>3d</fix>
</trkpt>
<trkpt lat="-27.2730115" lon="151.2902313">
  <ele>358.08</ele>
  <time>2026-09-01T19:52:12Z</time>
  <course>5.8</course>
  <speed>27.36</speed>
  <fix>3d</fix>
</trkpt>
<trkpt lat="-27.2729163" lon="151.2902424">
  <ele>358.48</ele>
  <time>2026-09-01T19:52:12Z</time>
  <course>5.75</course>
  <speed>27.622280861652246</speed>
  <fix>3d</fix>
</trkpt>
<trkpt lat="-27.2729625" lon="151.2902369">
  <ele>358.34</ele>
  <time>2026-09-01T19:52:12Z</time>
  <course>5.76</course>
  <speed>27.5</speed>
  <fix>3d</fix>
</trkpt>
<trkpt lat="-27.2728915" lon="151.2902452">
  <ele>358.61</ele>
  <time>2026-09-01T19:52:12Z</time>
  <course>5.72</course>
  <speed>27.681972473073518</speed>
  <fix>3d</fix>
</trkpt>
<trkpt lat="-27.2729625" lon="151.2902369">
  <ele>358.34</ele>
  <time>2026-09-01T19:52:12Z</time>
  <course>5.76</course>
  <speed>27.5</speed>
  <fix>3d</fix>
</trkpt>
<trkpt lat="-27.2728667" lon="151.290248">
  <ele>358.73</ele>
  <time>2026-09-01T19:52:12Z</time>
  <course>5.68</course>
  <speed>27.760556550616922</speed>
  <fix>3d</fix>
</trkpt>
<trkpt lat="-27.2729133" lon="151.2902424">
  <ele>358.61</ele>
  <time>2026-09-01T19:52:12Z</time>
  <course>5.74</course>
  <speed>27.63</speed>
  <fix>3d</fix>
</trkpt>
<trkpt lat="-27.2728416" lon="151.2902508">
  <ele>358.84</ele>
  <time>2026-09-01T19:52:12Z</time>
  <course>5.68</course>
  <speed>27.850102333743767</speed>
  <fix>3d</fix>
</trkpt>
<trkpt lat="-27.2729133" lon="151.2902424">
  <ele>358.61</ele>
  <time>2026-09-01T19:52:12Z</time>
  <course>5.74</course>
  <speed>27.63</speed>
  <fix>3d</fix>
</trkpt>
<trkpt lat="-27.2728166" lon="151.2902536">
  <ele>358.93</ele>
  <time>2026-09-01T19:52:12Z</time>
  <course>5.68</course>
  <speed>27.92870387253945</speed>
  <fix>3d</fix>
</trkpt>
<trkpt lat="-27.2728637" lon="151.290248">
  <ele>358.86</ele>
  <time>2026-09-01T19:52:12Z</time>
  <course>5.71</course>
  <speed>27.78</speed>
  <fix>3d</fix>
</trkpt>
<trkpt lat="-27.2727916" lon="151.2902564">
  <ele>359.02</ele>
  <time>2026-09-01T19:52:12Z</time>
  <course>5.75</course>
  <speed>27.99835709465825</speed>
  <fix>3d</fix>
</trkpt>
<trkpt lat="-27.2728637" lon="151.290248">
  <ele>358.86</ele>
  <time>2026-09-01T19:52:12Z</time>
  <course>5.71</course>
  <speed>27.78</speed>
  <fix>3d</fix>
</trkpt>
<trkpt lat="-27.2727665" lon="151.2902592">
  <ele>359.1</ele>
  <time>2026-09-01T19:52:12Z</time>
  <course>5.82</course>
  <speed>28.069004257365453</speed>
  <fix>3d</fix>
</trkpt>
<trkpt lat="-27.2728139" lon="151.2902537">
  <ele>359.06</ele>
  <time>2026-09-01T19:52:12Z</time>
  <course>5.66</course>
  <speed>27.93</speed>
  <fix>3d</fix>
</trkpt>
<trkpt lat="-27.2727415" lon="151.2902619">
  <ele>359.18</ele>
  <time>2026-09-01T19:52:12Z</time>
  <course>5.76</course>
  <speed>28.14960212862697</speed>
  <fix>3d</fix>
</trkpt>
<trkpt lat="-27.2728139" lon="151.2902537">
  <ele>359.06</ele>
  <time>2026-09-01T19:52:12Z</time>
  <course>5.66</course>
  <speed>27.93</speed>
  <fix>3d</fix>
</trkpt>
<trkpt lat="-27.2727163" lon="151.2902648">
  <ele>359.26</ele>
  <time>2026-09-01T19:52:12Z</time>
  <course>5.69</course>
  <speed>28.2202498217149</speed>
  <fix>3d</fix>
</trkpt>
<trkpt lat="-27.2727639" lon="151.2902593">
  <ele>359.23</ele>
  <time>2026-09-01T19:52:12Z</time>
  <course>5.65</course>
  <speed>28.08</speed>
  <fix>3d</fix>
</trkpt>
<trkpt lat="-27.272691" lon="151.2902676">
  <ele>359.34</ele>
  <time>2026-09-01T19:52:12Z</time>
  <course>5.66</course>
  <speed>28.27896037693041</speed>
  <fix>3d</fix>
</trkpt>
<trkpt lat="-27.2727639" lon="151.2902593">
  <ele>359.23</ele>
  <time>2026-09-01T19:52:12Z</time>
  <course>5.65</course>
  <speed>28.08</speed>
  <fix>3d</fix>
</trkpt>
<trkpt lat="-27.2726656" lon="151.2902704">
  <ele>359.43</ele>
  <time>2026-09-01T19:52:12Z</time>
  <course>5.7</course>
  <speed>28.33965596121449</speed>
  <fix>3d</fix>
</trkpt>
<trkpt lat="-27.2727136" lon="151.2902649">
  <ele>359.4</ele>
  <time>2026-09-01T19:52:12Z</time>
  <course>5.64</course>
  <speed>28.21</speed>
  <fix>3d</fix>
</trkpt>
<trkpt lat="-27.27264" lon="151.2902732">
  <ele>359.52</ele>
  <time>2026-09-01T19:52:12Z</time>
  <course>5.72</course>
  <speed>28.409311853686287</speed>
  <fix>3d</fix>
</trkpt>
<trkpt lat="-27.2727136" lon="151.2902649">
  <ele>359.4</ele>
  <time>2026-09-01T19:52:12Z</time>
  <course>5.64</course>
  <speed>28.21</speed>
  <fix>3d</fix>
</trkpt>
<trkpt lat="-27.2726147" lon="151.290276">
  <ele>359.61</ele>
  <time>2026-09-01T19:52:12Z</time>
  <course>5.69</course>
  <speed>28.458081453253307</speed>
  <fix>3d</fix>
</trkpt>
<trkpt lat="-27.272663" lon="151.2902705">
  <ele>359.56</ele>
  <time>2026-09-01T19:52:12Z</time>
  <course>5.62</course>
  <speed>28.34</speed>
  <fix>3d</fix>
</trkpt>
<trkpt lat="-27.2725893" lon="151.2902788">
  <ele>359.69</ele>
  <time>2026-09-01T19:52:12Z</time>
  <course>5.69</course>
  <speed>28.517790938289732</speed>
  <fix>3d</fix>
</trkpt>
<trkpt lat="-27.272663" lon="151.2902705">
  <ele>359.56</ele>
  <time>2026-09-01T19:52:12Z</time>
  <course>5.62</course>
  <speed>28.34</speed>
  <fix>3d</fix>
</trkpt>
<trkpt lat="-27.2725639" lon="151.2902816">
  <ele>359.78</ele>
  <time>2026-09-01T19:52:12Z</time>
  <course>5.63</course>
  <speed>28.558580146779004</speed>
  <fix>3d</fix>
</trkpt>
<trkpt lat="-27.2726123" lon="151.2902761">
  <ele>359.74</ele>
  <time>2026-09-01T19:52:12Z</time>
  <course>5.6</course>
  <speed>28.45</speed>
  <fix>3d</fix>
</trkpt>
<trkpt lat="-27.2725385" lon="151.2902844">
  <ele>359.87</ele>
  <time>2026-09-01T19:52:12Z</time>
  <course>5.58</course>
  <speed>28.597405476721136</speed>
  <fix>3d</fix>
</trkpt>
<trkpt lat="-27.2726123" lon="151.2902761">
  <ele>359.74</ele>
  <time>2026-09-01T19:52:12Z</time>
  <course>5.6</course>
  <speed>28.45</speed>
  <fix>3d</fix>
</trkpt>
<trkpt lat="-27.272513" lon="151.2902872">
  <ele>359.97</ele>
  <time>2026-09-01T19:52:12Z</time>
  <course>5.68</course>
  <speed>28.637213551600997</speed>
  <fix>3d</fix>
</trkpt>
<trkpt lat="-27.2725612" lon="151.2902817">
  <ele>359.91</ele>
  <time>2026-09-01T19:52:12Z</time>
  <course>5.58</course>
  <speed>28.56</speed>
  <fix>3d</fix>
</trkpt>
<trkpt lat="-27.2724875" lon="151.29029">
  <ele>360.06</ele>
  <time>2026-09-01T19:52:12Z</time>
  <course>5.69</course>
  <speed>28.676047496124706</speed>
  <fix>3d</fix>
</trkpt>
<trkpt lat="-27.2725612" lon="151.2902817">
  <ele>359.91</ele>
  <time>2026-09-01T19:52:12Z</time>
  <course>5.58</course>
  <speed>28.56</speed>
  <fix>3d</fix>
</trkpt>
<trkpt lat="-27.2724619" lon="151.2902928">
  <ele>360.16</ele>
  <time>2026-09-01T19:52:12Z</time>
  <course>5.76</course>
  <speed>28.715857988226645</speed>
  <fix>3d</fix>
</trkpt>
<trkpt lat="-27.2725099" lon="151.2902874">
  <ele>360.1</ele>
  <time>2026-09-01T19:52:12Z</time>
  <course>5.55</course>
  <speed>28.65</speed>
  <fix>3d</fix>
</trkpt>
<trkpt lat="-27.2724363" lon="151.2902956">
  <ele>360.25</ele>
  <time>2026-09-01T19:52:12Z</time>
  <course>5.7</course>
  <speed>28.756640972130246</speed>
  <fix>3d</fix>
</trkpt>
<trkpt lat="-27.2725099" lon="151.2902874">
  <ele>360.1</ele>
  <time>2026-09-01T19:52:12Z</time>
  <course>5.55</course>
  <speed>28.65</speed>
  <fix>3d</fix>
</trkpt>
<trkpt lat="-27.2724107" lon="151.2902984">
  <ele>360.35</ele>
  <time>2026-09-01T19:52:12Z</time>
  <course>5.66</course>
  <speed>28.79645117023971</speed>
  <fix>3d</fix>
</trkpt>
<trkpt lat="-27.2724587" lon="151.290293">
  <ele>360.29</ele>
  <time>2026-09-01T19:52:12Z</time>
  <course>5.54</course>
  <speed>28.74</speed>
  <fix>3d</fix>
</trkpt>
<trkpt lat="-27.272385" lon="151.2903012">
  <ele>360.44</ele>
  <time>2026-09-01T19:52:12Z</time>
  <course>5.59</course>
  <speed>28.835292611659064</speed>
  <fix>3d</fix>
</trkpt>
<trkpt lat="-27.2724587" lon="151.290293">
  <ele>360.29</ele>
  <time>2026-09-01T19:52:12Z</time>
  <course>5.54</course>
  <speed>28.74</speed>
  <fix>3d</fix>
</trkpt>
<trkpt lat="-27.2723593" lon="151.290304">
  <ele>360.54</ele>
  <time>2026-09-01T19:52:12Z</time>
  <course>5.54</course>
  <speed>28.865152000292667</speed>
  <fix>3d</fix>
</trkpt>
<trkpt lat="-27.2724072" lon="151.2902986">
  <ele>360.48</ele>
  <time>2026-09-01T19:52:12Z</time>
  <course>5.53</course>
  <speed>28.83</speed>
  <fix>3d</fix>
</trkpt>
<trkpt lat="-27.2723335" lon="151.2903067">
  <ele>360.64</ele>
  <time>2026-09-01T19:52:12Z</time>
  <course>5.54</course>
  <speed>28.893087408582698</speed>
  <fix>3d</fix>
</trkpt>
<trkpt lat="-27.2724072" lon="151.2902986">
  <ele>360.48</ele>
  <time>2026-09-01T19:52:12Z</time>
  <course>5.53</course>
  <speed>28.83</speed>
  <fix>3d</fix>
</trkpt>
<trkpt lat="-27.2723077" lon="151.2903095">
  <ele>360.74</ele>
  <time>2026-09-01T19:52:12Z</time>
  <course>5.56</course>
  <speed>28.9229493655125</speed>
  <fix>3d</fix>
</trkpt>
<trkpt lat="-27.2723556" lon="151.2903041">
  <ele>360.67</ele>
  <time>2026-09-01T19:52:12Z</time>
  <course>5.49</course>
  <speed>28.91</speed>
  <fix>3d</fix>
</trkpt>
<trkpt lat="-27.2722819" lon="151.2903123">
  <ele>360.84</ele>
  <time>2026-09-01T19:52:12Z</time>
  <course>5.59</course>
  <speed>28.961811062155626</speed>
  <fix>3d</fix>
</trkpt>
<trkpt lat="-27.2723556" lon="151.2903041">
  <ele>360.67</ele>
  <time>2026-09-01T19:52:12Z</time>
  <course>5.49</course>
  <speed>28.91</speed>
  <fix>3d</fix>
</trkpt>
<trkpt lat="-27.272256" lon="151.290315">
  <ele>360.94</ele>
  <time>2026-09-01T19:52:12Z</time>
  <course>5.59</course>
  <speed>29.00067930238876</speed>
  <fix>3d</fix>
</trkpt>
<trkpt lat="-27.2723039" lon="151.2903097">
  <ele>360.87</ele>
  <time>2026-09-01T19:52:12Z</time>
  <course>5.44</course>
  <speed>28.98</speed>
  <fix>3d</fix>
</trkpt>
<trkpt lat="-27.2722301" lon="151.2903178">
  <ele>361.04</ele>
  <time>2026-09-01T19:52:12Z</time>
  <course>5.61</course>
  <speed>29.030544259451975</speed>
  <fix>3d</fix>
</trkpt>
<trkpt lat="-27.2723039" lon="151.2903097">
  <ele>360.87</ele>
  <time>2026-09-01T19:52:12Z</time>
  <course>5.44</course>
  <speed>28.98</speed>
  <fix>3d</fix>
</trkpt>
<trkpt lat="-27.2722041" lon="151.2903205">
  <ele>361.15</ele>
  <time>2026-09-01T19:52:12Z</time>
  <course>5.54</course>
  <speed>29.050454385430875</speed>
  <fix>3d</fix>
</trkpt>
<trkpt lat="-27.272252" lon="151.2903152">
  <ele>361.08</ele>
  <time>2026-09-01T19:52:12Z</time>
  <course>5.41</course>
  <speed>29.05</speed>
  <fix>3d</fix>
</trkpt>
<trkpt lat="-27.2721782" lon="151.2903233">
  <ele>361.26</ele>
  <time>2026-09-01T19:52:12Z</time>
  <course>5.62</course>
  <speed>29.070364634796032</speed>
  <fix>3d</fix>
</trkpt>
<trkpt lat="-27.272252" lon="151.2903152">
  <ele>361.08</ele>
  <time>2026-09-01T19:52:12Z</time>
  <course>5.41</course>
  <speed>29.05</speed>
  <fix>3d</fix>
</trkpt>
<trkpt lat="-27.2721522" lon="151.290326">
  <ele>361.37</ele>
  <time>2026-09-01T19:52:12Z</time>
  <course>5.64</course>
  <speed>29.090275007294103</speed>
  <fix>3d</fix>
</trkpt>
<trkpt lat="-27.2722" lon="151.2903208">
  <ele>361.28</ele>
  <time>2026-09-01T19:52:12Z</time>
  <course>5.38</course>
  <speed>29.1</speed>
  <fix>3d</fix>
</trkpt>
<trkpt lat="-27.2721261" lon="151.2903288">
  <ele>361.48</ele>
  <time>2026-09-01T19:52:12Z</time>
  <course>5.61</course>
  <speed>29.12108686158537</speed>
  <fix>3d</fix>
</trkpt>
<trkpt lat="-27.2722" lon="151.2903208">
  <ele>361.28</ele>
  <time>2026-09-01T19:52:12Z</time>
  <course>5.38</course>
  <speed>29.1</speed>
  <fix>3d</fix>
</trkpt>
<trkpt lat="-27.2720999" lon="151.2903316">
  <ele>361.6</ele>
  <time>2026-09-01T19:52:12Z</time>
  <course>5.6</course>
  <speed>29.140996894409774</speed>
  <fix>3d</fix>
</trkpt>
<trkpt lat="-27.2721479" lon="151.2903263">
  <ele>361.51</ele>
  <time>2026-09-01T19:52:12Z</time>
  <course>5.38</course>
  <speed>29.15</speed>
  <fix>3d</fix>
</trkpt>
<trkpt lat="-27.2720738" lon="151.2903343">
  <ele>361.72</ele>
  <time>2026-09-01T19:52:12Z</time>
  <course>5.57</course>
  <speed>29.159962277067507</speed>
  <fix>3d</fix>
</trkpt>
<trkpt lat="-27.2721479" lon="151.2903263">
  <ele>361.51</ele>
  <time>2026-09-01T19:52:12Z</time>
  <course>5.38</course>
  <speed>29.15</speed>
  <fix>3d</fix>
</trkpt>
<trkpt lat="-27.2720477" lon="151.2903371">
  <ele>361.84</ele>
  <time>2026-09-01T19:52:12Z</time>
  <course>5.56</course>
  <speed>29.178932468478006</speed>
  <fix>3d</fix>
</trkpt>
<trkpt lat="-27.2720957" lon="151.2903318">
  <ele>361.75</ele>
  <time>2026-09-01T19:52:12Z</time>
  <course>5.38</course>
  <speed>29.2</speed>
  <fix>3d</fix>
</trkpt>
<trkpt lat="-27.2720216" lon="151.2903398">
  <ele>361.95</ele>
  <time>2026-09-01T19:52:12Z</time>
  <course>5.59</course>
  <speed>29.19884415520587</speed>
  <fix>3d</fix>
</trkpt>
<trkpt lat="-27.2720957" lon="151.2903318">
  <ele>361.75</ele>
  <time>2026-09-01T19:52:12Z</time>
  <course>5.38</course>
  <speed>29.2</speed>
  <fix>3d</fix>
</trkpt>
<trkpt lat="-27.2719955" lon="151.2903426">
  <ele>362.07</ele>
  <time>2026-09-01T19:52:12Z</time>
  <course>5.62</course>
  <speed>29.20880004382241</speed>
  <fix>3d</fix>
</trkpt>
<trkpt lat="-27.2720433" lon="151.2903374">
  <ele>361.98</ele>
  <time>2026-09-01T19:52:12Z</time>
  <course>5.36</course>
  <speed>29.24</speed>
  <fix>3d</fix>
</trkpt>
<trkpt lat="-27.2719694" lon="151.2903453">
  <ele>362.19</ele>
  <time>2026-09-01T19:52:12Z</time>
  <course>5.6</course>
  <speed>29.2277761726752</speed>
  <fix>3d</fix>
</trkpt>
<trkpt lat="-27.2720433" lon="151.2903374">
  <ele>361.98</ele>
  <time>2026-09-01T19:52:12Z</time>
  <course>5.36</course>
  <speed>29.24</speed>
  <fix>3d</fix>
</trkpt>
<trkpt lat="-27.2719432" lon="151.2903481">
  <ele>362.3</ele>
  <time>2026-09-01T19:52:12Z</time>
  <course>5.56</course>
  <speed>29.247688797578522</speed>
  <fix>3d</fix>
</trkpt>
<trkpt lat="-27.2719909" lon="151.2903429">
  <ele>362.21</ele>
  <time>2026-09-01T19:52:12Z</time>
  <course>5.34</course>
  <speed>29.28</speed>
  <fix>3d</fix>
</trkpt>
<trkpt lat="-27.271917" lon="151.2903508">
  <ele>362.42</ele>
  <time>2026-09-01T19:52:12Z</time>
  <course>5.5</course>
  <speed>29.267601541636445</speed>
  <fix>3d</fix>
</trkpt>
<trkpt lat="-27.2719909" lon="151.2903429">
  <ele>362.21</ele>
  <time>2026-09-01T19:52:12Z</time>
  <course>5.34</course>
  <speed>29.28</speed>
  <fix>3d</fix>
</trkpt>
<trkpt lat="-27.2718908" lon="151.2903536">
  <ele>362.54</ele>
  <time>2026-09-01T19:52:12Z</time>
  <course>5.55</course>
  <speed>29.28658395921245</speed>
  <fix>3d</fix>
</trkpt>
<trkpt lat="-27.2719385" lon="151.2903484">
  <ele>362.44</ele>
  <time>2026-09-01T19:52:12Z</time>
  <course>5.33</course>
  <speed>29.32</speed>
  <fix>3d</fix>
</trkpt>
<trkpt lat="-27.2718646" lon="151.2903563">
  <ele>362.66</ele>
  <time>2026-09-01T19:52:12Z</time>
  <course>5.56</course>
  <speed>29.307427386244598</speed>
  <fix>3d</fix>
</trkpt>
<trkpt lat="-27.2719385" lon="151.2903484">
  <ele>362.44</ele>
  <time>2026-09-01T19:52:12Z</time>
  <course>5.33</course>
  <speed>29.32</speed>
  <fix>3d</fix>
</trkpt>
<trkpt lat="-27.2718383" lon="151.290359">
  <ele>362.78</ele>
  <time>2026-09-01T19:52:12Z</time>
  <course>5.49</course>
  <speed>29.317383921489313</speed>
  <fix>3d</fix>
</trkpt>
<trkpt lat="-27.271886" lon="151.2903539">
  <ele>362.68</ele>
  <time>2026-09-01T19:52:12Z</time>
  <course>5.31</course>
  <speed>29.35</speed>
  <fix>3d</fix>
</trkpt>
<trkpt lat="-27.271812" lon="151.2903618">
  <ele>362.9</ele>
  <time>2026-09-01T19:52:12Z</time>
  <course>5.51</course>
  <speed>29.336368214214925</speed>
  <fix>3d</fix>
</trkpt>
<trkpt lat="-27.271886" lon="151.2903539">
  <ele>362.68</ele>
  <time>2026-09-01T19:52:12Z</time>
  <course>5.31</course>
  <speed>29.35</speed>
  <fix>3d</fix>
</trkpt>
<trkpt lat="-27.2717858" lon="151.2903645">
  <ele>363.02</ele>
  <time>2026-09-01T19:52:12Z</time>
  <course>5.51</course>
  <speed>29.356282121549384</speed>
  <fix>3d</fix>
</trkpt>
<trkpt lat="-27.2718335" lon="151.2903594">
  <ele>362.91</ele>
  <time>2026-09-01T19:52:12Z</time>
  <course>5.29</course>
  <speed>29.39</speed>
  <fix>3d</fix>
</trkpt>
<trkpt lat="-27.2717595" lon="151.2903672">
  <ele>363.14</ele>
  <time>2026-09-01T19:52:12Z</time>
  <course>5.52</course>
  <speed>29.375271913635114</speed>
  <fix>3d</fix>
</trkpt>
<trkpt lat="-27.2718335" lon="151.2903594">
  <ele>362.91</ele>
  <time>2026-09-01T19:52:12Z</time>
  <course>5.29</course>
  <speed>29.39</speed>
  <fix>3d</fix>
</trkpt>
<trkpt lat="-27.2717331" lon="151.29037">
  <ele>363.26</ele>
  <time>2026-09-01T19:52:12Z</time>
  <course>5.59</course>
  <speed>29.385229282753606</speed>
  <fix>3d</fix>
</trkpt>
<trkpt lat="-27.2717809" lon="151.2903649">
  <ele>363.16</ele>
  <time>2026-09-01T19:52:12Z</time>
  <course>5.27</course>
  <speed>29.42</speed>
  <fix>3d</fix>
</trkpt>
<trkpt lat="-27.2717068" lon="151.2903727">
  <ele>363.38</ele>
  <time>2026-09-01T19:52:12Z</time>
  <course>5.59</course>
  <speed>29.405144107791752</speed>
  <fix>3d</fix>
</trkpt>
<trkpt lat="-27.2717809" lon="151.2903649">
  <ele>363.16</ele>
  <time>2026-09-01T19:52:12Z</time>
  <course>5.27</course>
  <speed>29.42</speed>
  <fix>3d</fix>
</trkpt>
<trkpt lat="-27.2716804" lon="151.2903754">
  <ele>363.5</ele>
  <time>2026-09-01T19:52:12Z</time>
  <course>5.52</course>
  <speed>29.42505904836896</speed>
  <fix>3d</fix>
</trkpt>
<trkpt lat="-27.2717283" lon="151.2903703">
  <ele>363.4</ele>
  <time>2026-09-01T19:52:12Z</time>
  <course>5.26</course>
  <speed>29.45</speed>
  <fix>3d</fix>
</trkpt>
<trkpt lat="-27.271654" lon="151.2903782">
  <ele>363.63</ele>
  <time>2026-09-01T19:52:12Z</time>
  <course>5.5</course>
  <speed>29.435016561911425</speed>
  <fix>3d</fix>
</trkpt>
<trkpt lat="-27.2717283" lon="151.2903703">
  <ele>363.4</ele>
  <time>2026-09-01T19:52:12Z</time>
  <course>5.26</course>
  <speed>29.45</speed>
  <fix>3d</fix>
</trkpt>
<trkpt lat="-27.2716277" lon="151.2903809">
  <ele>363.75</ele>
  <time>2026-09-01T19:52:12Z</time>
  <course>5.47</course>
  <speed>29.444055427199565</speed>
  <fix>3d</fix>
</trkpt>
<trkpt lat="-27.2716756" lon="151.2903758">
  <ele>363.65</ele>
  <time>2026-09-01T19:52:12Z</time>
  <course>5.25</course>
  <speed>29.47</speed>
  <fix>3d</fix>
</trkpt>
<trkpt lat="-27.2716013" lon="151.2903836">
  <ele>363.88</ele>
  <time>2026-09-01T19:52:12Z</time>
  <course>5.39</course>
  <speed>29.45401330888543</speed>
  <fix>3d</fix>
</trkpt>
<trkpt lat="-27.2716756" lon="151.2903758">
  <ele>363.65</ele>
  <time>2026-09-01T19:52:12Z</time>
  <course>5.25</course>
  <speed>29.47</speed>
  <fix>3d</fix>
</trkpt>
<trkpt lat="-27.2715751" lon="151.2903863">
  <ele>364.01</ele>
  <time>2026-09-01T19:52:12Z</time>
  <course>5.4</course>
  <speed>29.473014776232173</speed>
  <fix>3d</fix>
</trkpt>
<trkpt lat="-27.2716228" lon="151.2903812">
  <ele>363.89</ele>
  <time>2026-09-01T19:52:12Z</time>
  <course>5.23</course>
  <speed>29.5</speed>
  <fix>3d</fix>
</trkpt>
<trkpt lat="-27.2715487" lon="151.290389">
  <ele>364.13</ele>
  <time>2026-09-01T19:52:12Z</time>
  <course>5.48</course>
  <speed>29.482973052255094</speed>
  <fix>3d</fix>
</trkpt>
<trkpt lat="-27.2716228" lon="151.2903812">
  <ele>363.89</ele>
  <time>2026-09-01T19:52:12Z</time>
  <course>5.23</course>
  <speed>29.5</speed>
  <fix>3d</fix>
</trkpt>
<trkpt lat="-27.2715223" lon="151.2903917">
  <ele>364.26</ele>
  <time>2026-09-01T19:52:12Z</time>
  <course>5.54</course>
  <speed>29.49293135651321</speed>
  <fix>3d</fix>
</trkpt>
<trkpt lat="-27.2715701" lon="151.2903867">
  <ele>364.14</ele>
  <time>2026-09-01T19:52:12Z</time>
  <course>5.2</course>
  <speed>29.52</speed>
  <fix>3d</fix>
</trkpt>
<trkpt lat="-27.2714959" lon="151.2903944">
  <ele>364.39</ele>
  <time>2026-09-01T19:52:12Z</time>
  <course>5.51</course>
  <speed>29.502889688977927</speed>
  <fix>3d</fix>
</trkpt>
<trkpt lat="-27.2715701" lon="151.2903867">
  <ele>364.14</ele>
  <time>2026-09-01T19:52:12Z</time>
  <course>5.2</course>
  <speed>29.52</speed>
  <fix>3d</fix>
</trkpt>
<trkpt lat="-27.2714694" lon="151.2903971">
  <ele>364.52</ele>
  <time>2026-09-01T19:52:12Z</time>
  <course>5.48</course>
  <speed>29.511938262337157</speed>
  <fix>3d</fix>
</trkpt>
<trkpt lat="-27.2715171" lon="151.2903921">
  <ele>364.4</ele>
  <time>2026-09-01T19:52:12Z</time>
  <course>5.19</course>
  <speed>29.54</speed>
  <fix>3d</fix>
</trkpt>
<trkpt lat="-27.2714428" lon="151.2903998">
  <ele>364.64</ele>
  <time>2026-09-01T19:52:12Z</time>
  <course>5.54</course>
  <speed>29.512848049620693</speed>
  <fix>3d</fix>
</trkpt>
<trkpt lat="-27.2715171" lon="151.2903921">
  <ele>364.4</ele>
  <time>2026-09-01T19:52:12Z</time>
  <course>5.19</course>
  <speed>29.54</speed>
  <fix>3d</fix>
</trkpt>
<trkpt lat="-27.2714163" lon="151.2904025">
  <ele>364.78</ele>
  <time>2026-09-01T19:52:12Z</time>
  <course>5.54</course>
  <speed>29.522806438413</speed>
  <fix>3d</fix>
</trkpt>
<trkpt lat="-27.2714641" lon="151.2903976">
  <ele>364.66</ele>
  <time>2026-09-01T19:52:12Z</time>
  <course>5.19</course>
  <speed>29.55</speed>
  <fix>3d</fix>
</trkpt>
<trkpt lat="-27.2713896" lon="151.2904053">
  <ele>364.91</ele>
  <time>2026-09-01T19:52:12Z</time>
  <course>5.56</course>
  <speed>29.532764855326363</speed>
  <fix>3d</fix>
</trkpt>
<trkpt lat="-27.2714641" lon="151.2903976">
  <ele>364.66</ele>
  <time>2026-09-01T19:52:12Z</time>
  <course>5.19</course>
  <speed>29.55</speed>
  <fix>3d</fix>
</trkpt>
<trkpt lat="-27.2713632" lon="151.290408">
  <ele>365.04</ele>
  <time>2026-09-01T19:52:12Z</time>
  <course>5.57</course>
  <speed>29.553593690108144</speed>
  <fix>3d</fix>
</trkpt>
<trkpt lat="-27.2714113" lon="151.2904029">
  <ele>364.92</ele>
  <time>2026-09-01T19:52:12Z</time>
  <course>5.19</course>
  <speed>29.56</speed>
  <fix>3d</fix>
</trkpt>
<trkpt lat="-27.2713367" lon="151.2904107">
  <ele>365.17</ele>
  <time>2026-09-01T19:52:12Z</time>
  <course>5.59</course>
  <speed>29.554508962254815</speed>
  <fix>3d</fix>
</trkpt>
<trkpt lat="-27.2714113" lon="151.2904029">
  <ele>364.92</ele>
  <time>2026-09-01T19:52:12Z</time>
  <course>5.19</course>
  <speed>29.56</speed>
  <fix>3d</fix>
</trkpt>
<trkpt lat="-27.2713102" lon="151.2904134">
  <ele>365.3</ele>
  <time>2026-09-01T19:52:12Z</time>
  <course>5.51</course>
  <speed>29.565385165764372</speed>
  <fix>3d</fix>
</trkpt>
<trkpt lat="-27.2713584" lon="151.2904084">
  <ele>365.19</ele>
  <time>2026-09-01T19:52:12Z</time>
  <course>5.21</course>
  <speed>29.58</speed>
  <fix>3d</fix>
</trkpt>
<trkpt lat="-27.2712837" lon="151.2904162">
  <ele>365.44</ele>
  <time>2026-09-01T19:52:12Z</time>
  <course>5.49</course>
  <speed>29.56446684789022</speed>
  <fix>3d</fix>
</trkpt>
<trkpt lat="-27.2713584" lon="151.2904084">
  <ele>365.19</ele>
  <time>2026-09-01T19:52:12Z</time>
  <course>5.21</course>
  <speed>29.58</speed>
  <fix>3d</fix>
</trkpt>
<trkpt lat="-27.2712573" lon="151.2904189">
  <ele>365.58</ele>
  <time>2026-09-01T19:52:12Z</time>
  <course>5.6</course>
  <speed>29.57442476194592</speed>
  <fix>3d</fix>
</trkpt>
<trkpt lat="-27.2713054" lon="151.2904138">
  <ele>365.45</ele>
  <time>2026-09-01T19:52:12Z</time>
  <course>5.23</course>
  <speed>29.6</speed>
  <fix>3d</fix>
</trkpt>
<trkpt lat="-27.2712308" lon="151.2904216">
  <ele>365.71</ele>
  <time>2026-09-01T19:52:12Z</time>
  <course>5.61</course>
  <speed>29.58530040408581</speed>
  <fix>3d</fix>
</trkpt>
<trkpt lat="-27.2713054" lon="151.2904138">
  <ele>365.45</ele>
  <time>2026-09-01T19:52:12Z</time>
  <course>5.23</course>
  <speed>29.6</speed>
  <fix>3d</fix>
</trkpt>
<trkpt lat="-27.2712043" lon="151.2904244">
  <ele>365.85</ele>
  <time>2026-09-01T19:52:12Z</time>
  <course>5.6</course>
  <speed>29.59525806611593</speed>
  <fix>3d</fix>
</trkpt>
<trkpt lat="-27.2712525" lon="151.2904193">
  <ele>365.72</ele>
  <time>2026-09-01T19:52:12Z</time>
  <course>5.24</course>
  <speed>29.61</speed>
  <fix>3d</fix>
</trkpt>
<trkpt lat="-27.2711778" lon="151.2904271">
  <ele>365.98</ele>
  <time>2026-09-01T19:52:12Z</time>
  <course>5.63</course>
  <speed>29.596178807406876</speed>
  <fix>3d</fix>
</trkpt>
<trkpt lat="-27.2712525" lon="151.2904193">
  <ele>365.72</ele>
  <time>2026-09-01T19:52:12Z</time>
  <course>5.24</course>
  <speed>29.61</speed>
  <fix>3d</fix>
</trkpt>
<trkpt lat="-27.2711513" lon="151.2904299">
  <ele>366.11</ele>
  <time>2026-09-01T19:52:12Z</time>
  <course>5.63</course>
  <speed>29.60613618829718</speed>
  <fix>3d</fix>
</trkpt>
<trkpt lat="-27.2711996" lon="151.2904247">
  <ele>365.98</ele>
  <time>2026-09-01T19:52:12Z</time>
  <course>5.26</course>
  <speed>29.62</speed>
  <fix>3d</fix>
</trkpt>
<trkpt lat="-27.2711248" lon="151.2904326">
  <ele>366.25</ele>
  <time>2026-09-01T19:52:12Z</time>
  <course>5.57</course>
  <speed>29.60613618829718</speed>
  <fix>3d</fix>
</trkpt>
<trkpt lat="-27.2711996" lon="151.2904247">
  <ele>365.98</ele>
  <time>2026-09-01T19:52:12Z</time>
  <course>5.26</course>
  <speed>29.62</speed>
  <fix>3d</fix>
</trkpt>
<trkpt lat="-27.2710983" lon="151.2904354">
  <ele>366.38</ele>
  <time>2026-09-01T19:52:12Z</time>
  <course>5.55</course>
  <speed>29.60613618829718</speed>
  <fix>3d</fix>
</trkpt>
<trkpt lat="-27.2711466" lon="151.2904302">
  <ele>366.25</ele>
  <time>2026-09-01T19:52:12Z</time>
  <course>5.27</course>
  <speed>29.62</speed>
  <fix>3d</fix>
</trkpt>
<trkpt lat="-27.2710717" lon="151.2904381">
  <ele>366.52</ele>
  <time>2026-09-01T19:52:12Z</time>
  <course>5.57</course>
  <speed>29.616093597907202</speed>
  <fix>3d</fix>
</trkpt>
<trkpt lat="-27.2711466" lon="151.2904302">
  <ele>366.25</ele>
  <time>2026-09-01T19:52:12Z</time>
  <course>5.27</course>
  <speed>29.62</speed>
  <fix>3d</fix>
</trkpt>
<trkpt lat="-27.2710452" lon="151.2904409">
  <ele>366.65</ele>
  <time>2026-09-01T19:52:12Z</time>
  <course>5.67</course>
  <speed>29.626051036207983</speed>
  <fix>3d</fix>
</trkpt>
<trkpt lat="-27.2710936" lon="151.2904357">
  <ele>366.52</ele>
  <time>2026-09-01T19:52:12Z</time>
  <course>5.26</course>
  <speed>29.63</speed>
  <fix>3d</fix>
</trkpt>
<trkpt lat="-27.2710189" lon="151.2904436">
  <ele>366.78</ele>
  <time>2026-09-01T19:52:12Z</time>
  <course>5.68</course>
  <speed>29.636008503170597</speed>
  <fix>3d</fix>
</trkpt>
<trkpt lat="-27.2710936" lon="151.2904357">
  <ele>366.52</ele>
  <time>2026-09-01T19:52:12Z</time>
  <course>5.26</course>
  <speed>29.63</speed>
  <fix>3d</fix>
</trkpt>
<trkpt lat="-27.2709924" lon="151.2904463">
  <ele>366.92</ele>
  <time>2026-09-01T19:52:12Z</time>
  <course>5.65</course>
  <speed>29.636008503170597</speed>
  <fix>3d</fix>
</trkpt>
<trkpt lat="-27.2710406" lon="151.2904412">
  <ele>366.79</ele>
  <time>2026-09-01T19:52:12Z</time>
  <course>5.26</course>
  <speed>29.65</speed>
  <fix>3d</fix>
</trkpt>
<trkpt lat="-27.2709659" lon="151.2904491">
  <ele>367.05</ele>
  <time>2026-09-01T19:52:12Z</time>
  <course>5.69</course>
  <speed>29.636008503170597</speed>
  <fix>3d</fix>
</trkpt>
<trkpt lat="-27.2710406" lon="151.2904412">
  <ele>366.79</ele>
  <time>2026-09-01T19:52:12Z</time>
  <course>5.26</course>
  <speed>29.65</speed>
  <fix>3d</fix>
</trkpt>
<trkpt lat="-27.2709393" lon="151.2904518">
  <ele>367.19</ele>
  <time>2026-09-01T19:52:12Z</time>
  <course>5.69</course>
  <speed>29.636008503170597</speed>
  <fix>3d</fix>
</trkpt>
<trkpt lat="-27.2709875" lon="151.2904467">
  <ele>367.05</ele>
  <time>2026-09-01T19:52:12Z</time>
  <course>5.27</course>
  <speed>29.66</speed>
  <fix>3d</fix>
</trkpt>
<trkpt lat="-27.2709126" lon="151.2904546">
  <ele>367.34</ele>
  <time>2026-09-01T19:52:13Z</time>
  <course>5.69</course>
  <speed>29.636931352621513</speed>
  <fix>3d</fix>
</trkpt>
<trkpt lat="-27.2709875" lon="151.2904467">
  <ele>367.05</ele>
  <time>2026-09-01T19:52:13Z</time>
  <course>5.27</course>
  <speed>29.66</speed>
  <fix>3d</fix>
</trkpt>
<trkpt lat="-27.2708861" lon="151.2904574">
  <ele>367.48</ele>
  <time>2026-09-01T19:52:13Z</time>
  <course>5.55</course>
  <speed>29.646888538259795</speed>
  <fix>3d</fix>
</trkpt>
<trkpt lat="-27.2709343" lon="151.2904523">
  <ele>367.33</ele>
  <time>2026-09-01T19:52:13Z</time>
  <course>5.28</course>
  <speed>29.66</speed>
  <fix>3d</fix>
</trkpt>
<trkpt lat="-27.2708595" lon="151.2904601">
  <ele>367.61</ele>
  <time>2026-09-01T19:52:13Z</time>
  <course>5.57</course>
  <speed>29.646888538259795</speed>
  <fix>3d</fix>
</trkpt>
<trkpt lat="-27.2709343" lon="151.2904523">
  <ele>367.33</ele>
  <time>2026-09-01T19:52:13Z</time>
  <course>5.28</course>
  <speed>29.66</speed>
  <fix>3d</fix>
</trkpt>
<trkpt lat="-27.2708321" lon="151.290463">
  <ele>367.76</ele>
  <time>2026-09-01T19:52:13Z</time>
  <course>5.67</course>
  <speed>29.556349571623354</speed>
  <fix>3d</fix>
</trkpt>
<trkpt lat="-27.2708812" lon="151.2904578">
  <ele>367.6</ele>
  <time>2026-09-01T19:52:13Z</time>
  <course>5.29</course>
  <speed>29.67</speed>
  <fix>3d</fix>
</trkpt>
<trkpt lat="-27.2708057" lon="151.2904657">
  <ele>367.9</ele>
  <time>2026-09-01T19:52:13Z</time>
  <course>5.68</course>
  <speed>29.345399980235403</speed>
  <fix>3d</fix>
</trkpt>
<trkpt lat="-27.2708812" lon="151.2904578">
  <ele>367.6</ele>
  <time>2026-09-01T19:52:13Z</time>
  <course>5.29</course>
  <speed>29.67</speed>
  <fix>3d</fix>
</trkpt>
<trkpt lat="-27.2707798" lon="151.2904684">
  <ele>368.04</ele>
  <time>2026-09-01T19:52:13Z</time>
  <course>5.64</course>
  <speed>29.12541845192958</speed>
  <fix>3d</fix>
</trkpt>
<trkpt lat="-27.2708282" lon="151.2904633">
  <ele>367.88</ele>
  <time>2026-09-01T19:52:13Z</time>
  <course>5.28</course>
  <speed>29.53</speed>
  <fix>3d</fix>
</trkpt>
<trkpt lat="-27.2707538" lon="151.2904712">
  <ele>368.18</ele>
  <time>2026-09-01T19:52:13Z</time>
  <course>5.64</course>
  <speed>28.894554850351998</speed>
  <fix>3d</fix>
</trkpt>
<trkpt lat="-27.2708282" lon="151.2904633">
  <ele>367.88</ele>
  <time>2026-09-01T19:52:13Z</time>
  <course>5.28</course>
  <speed>29.53</speed>
  <fix>3d</fix>
</trkpt>
<trkpt lat="-27.270728" lon="151.2904738">
  <ele>368.31</ele>
  <time>2026-09-01T19:52:13Z</time>
  <course>5.58</course>
  <speed>28.652807890327257</speed>
  <fix>3d</fix>
</trkpt>
<trkpt lat="-27.2707757" lon="151.2904688">
  <ele>368.15</ele>
  <time>2026-09-01T19:52:13Z</time>
  <course>5.29</course>
  <speed>29.16</speed>
  <fix>3d</fix>
</trkpt>
<trkpt lat="-27.2707025" lon="151.2904765">
  <ele>368.44</ele>
  <time>2026-09-01T19:52:13Z</time>
  <course>5.41</course>
  <speed>28.411986906937713</speed>
  <fix>3d</fix>
</trkpt>
<trkpt lat="-27.2707757" lon="151.2904688">
  <ele>368.15</ele>
  <time>2026-09-01T19:52:13Z</time>
  <course>5.29</course>
  <speed>29.16</speed>
  <fix>3d</fix>
</trkpt>
<trkpt lat="-27.2706776" lon="151.2904791">
  <ele>368.56</ele>
  <time>2026-09-01T19:52:13Z</time>
  <course>5.05</course>
  <speed>28.138528746187138</speed>
  <fix>3d</fix>
</trkpt>
<trkpt lat="-27.270724" lon="151.2904742">
  <ele>368.41</ele>
  <time>2026-09-01T19:52:13Z</time>
  <course>5.3</course>
  <speed>28.69</speed>
  <fix>3d</fix>
</trkpt>
<trkpt lat="-27.2706525" lon="151.2904816">
  <ele>368.67</ele>
  <time>2026-09-01T19:52:13Z</time>
  <course>4.46</course>
  <speed>27.81809842530578</speed>
  <fix>3d</fix>
</trkpt>
<trkpt lat="-27.270724" lon="151.2904742">
  <ele>368.41</ele>
  <time>2026-09-01T19:52:13Z</time>
  <course>5.3</course>
  <speed>28.69</speed>
  <fix>3d</fix>
</trkpt>
<trkpt lat="-27.2706277" lon="151.290484">
  <ele>368.77</ele>
  <time>2026-09-01T19:52:13Z</time>
  <course>3.96</course>
  <speed>27.489787194520076</speed>
  <fix>3d</fix>
</trkpt>
<trkpt lat="-27.2706732" lon="151.2904795">
  <ele>368.66</ele>
  <time>2026-09-01T19:52:13Z</time>
  <course>5.19</course>
  <speed>28.14</speed>
  <fix>3d</fix>
</trkpt>
<trkpt lat="-27.2706032" lon="151.2904861">
  <ele>368.85</ele>
  <time>2026-09-01T19:52:13Z</time>
  <course>3.67</course>
  <speed>27.19506021320784</speed>
  <fix>3d</fix>
</trkpt>
<trkpt lat="-27.2706732" lon="151.2904795">
  <ele>368.66</ele>
  <time>2026-09-01T19:52:13Z</time>
  <course>5.19</course>
  <speed>28.14</speed>
  <fix>3d</fix>
</trkpt>
<trkpt lat="-27.2705789" lon="151.2904878">
  <ele>368.91</ele>
  <time>2026-09-01T19:52:13Z</time>
  <course>3.57</course>
  <speed>26.919080593512103</speed>
  <fix>3d</fix>
</trkpt>
<trkpt lat="-27.2706233" lon="151.2904843">
  <ele>368.87</ele>
  <time>2026-09-01T19:52:13Z</time>
  <course>4.55</course>
  <speed>27.53</speed>
  <fix>3d</fix>
</trkpt>
<trkpt lat="-27.2705548" lon="151.290489">
  <ele>368.93</ele>
  <time>2026-09-01T19:52:13Z</time>
  <course>3.36</course>
  <speed>26.686914396385355</speed>
  <fix>3d</fix>
</trkpt>
<trkpt lat="-27.2706233" lon="151.2904843">
  <ele>368.87</ele>
  <time>2026-09-01T19:52:13Z</time>
  <course>4.55</course>
  <speed>27.53</speed>
  <fix>3d</fix>
</trkpt>
<trkpt lat="-27.2705308" lon="151.2904897">
  <ele>368.92</ele>
  <time>2026-09-01T19:52:13Z</time>
  <course>2.79</course>
  <speed>26.50244517021024</speed>
  <fix>3d</fix>
</trkpt>
<trkpt lat="-27.2705745" lon="151.2904881">
  <ele>369.0</ele>
  <time>2026-09-01T19:52:13Z</time>
  <course>3.06</course>
  <speed>26.95</speed>
  <fix>3d</fix>
</trkpt>
<trkpt lat="-27.2705071" lon="151.2904897">
  <ele>368.87</ele>
  <time>2026-09-01T19:52:13Z</time>
  <course>1.78</course>
  <speed>26.341708372844764</speed>
  <fix>3d</fix>
</trkpt>
<trkpt lat="-27.2705745" lon="151.2904881">
  <ele>369.0</ele>
  <time>2026-09-01T19:52:13Z</time>
  <course>3.06</course>
  <speed>26.95</speed>
  <fix>3d</fix>
</trkpt>
<trkpt lat="-27.2704836" lon="151.2904892">
  <ele>368.79</ele>
  <time>2026-09-01T19:52:13Z</time>
  <course>0.35</course>
  <speed>26.24141764463193</speed>
  <fix>3d</fix>
</trkpt>
<trkpt lat="-27.2705265" lon="151.2904899">
  <ele>369.0</ele>
  <time>2026-09-01T19:52:13Z</time>
  <course>0.77</course>
  <speed>26.51</speed>
  <fix>3d</fix>
</trkpt>
<trkpt lat="-27.27046" lon="151.2904877">
  <ele>368.69</ele>
  <time>2026-09-01T19:52:13Z</time>
  <course>358.67</course>
  <speed>26.167621214011792</speed>
  <fix>3d</fix>
</trkpt>
<trkpt lat="-27.2705265" lon="151.2904899">
  <ele>369.0</ele>
  <time>2026-09-01T19:52:13Z</time>
  <course>0.77</course>
  <speed>26.51</speed>
  <fix>3d</fix>
</trkpt>
<trkpt lat="-27.2704365" lon="151.2904854">
  <ele>368.56</ele>
  <time>2026-09-01T19:52:13Z</time>
  <course>356.89</course>
  <speed>26.13298681743057</speed>
  <fix>3d</fix>
</trkpt>
<trkpt lat="-27.2704793" lon="151.2904892">
  <ele>368.88</ele>
  <time>2026-09-01T19:52:13Z</time>
  <course>357.67</course>
  <speed>26.22</speed>
  <fix>3d</fix>
</trkpt>
<trkpt lat="-27.2704132" lon="151.2904823">
  <ele>368.41</ele>
  <time>2026-09-01T19:52:13Z</time>
  <course>355.03</course>
  <speed>26.116533077726835</speed>
  <fix>3d</fix>
</trkpt>
<trkpt lat="-27.2704793" lon="151.2904892">
  <ele>368.88</ele>
  <time>2026-09-01T19:52:13Z</time>
  <course>357.67</course>
  <speed>26.22</speed>
  <fix>3d</fix>
</trkpt>
<trkpt lat="-27.2703897" lon="151.2904783">
  <ele>368.23</ele>
  <time>2026-09-01T19:52:13Z</time>
  <course>353.14</course>
  <speed>26.116737928003182</speed>
  <fix>3d</fix>
</trkpt>
<trkpt lat="-27.2704323" lon="151.2904855">
  <ele>368.65</ele>
  <time>2026-09-01T19:52:13Z</time>
  <course>354.03</course>
  <speed>26.09</speed>
  <fix>3d</fix>
</trkpt>
<trkpt lat="-27.2703666" lon="151.2904734">
  <ele>368.03</ele>
  <time>2026-09-01T19:52:13Z</time>
  <course>351.22</course>
  <speed>26.13077878671051</speed>
  <fix>3d</fix>
</trkpt>
<trkpt lat="-27.2704323" lon="151.2904855">
  <ele>368.65</ele>
  <time>2026-09-01T19:52:13Z</time>
  <course>354.03</course>
  <speed>26.09</speed>
  <fix>3d</fix>
</trkpt>
<trkpt lat="-27.2703437" lon="151.2904678">
  <ele>367.81</ele>
  <time>2026-09-01T19:52:13Z</time>
  <course>349.28</course>
  <speed>26.151810644771807</speed>
  <fix>3d</fix>
</trkpt>
<trkpt lat="-27.2703858" lon="151.2904783">
  <ele>368.32</ele>
  <time>2026-09-01T19:52:13Z</time>
  <course>350.28</course>
  <speed>26.07</speed>
  <fix>3d</fix>
</trkpt>
<trkpt lat="-27.2703201" lon="151.2904611">
  <ele>367.56</ele>
  <time>2026-09-01T19:52:13Z</time>
  <course>347.31</course>
  <speed>26.190723548615452</speed>
  <fix>3d</fix>
</trkpt>
<trkpt lat="-27.2703858" lon="151.2904783">
  <ele>368.32</ele>
  <time>2026-09-01T19:52:13Z</time>
  <course>350.28</course>
  <speed>26.07</speed>
  <fix>3d</fix>
</trkpt>
<trkpt lat="-27.2702977" lon="151.2904539">
  <ele>367.29</ele>
  <time>2026-09-01T19:52:13Z</time>
  <course>345.27</course>
  <speed>26.23397034381186</speed>
  <fix>3d</fix>
</trkpt>
<trkpt lat="-27.27034" lon="151.2904677">
  <ele>367.91</ele>
  <time>2026-09-01T19:52:13Z</time>
  <course>346.56</course>
  <speed>26.1</speed>
  <fix>3d</fix>
</trkpt>
<trkpt lat="-27.2702752" lon="151.2904456">
  <ele>367.0</ele>
  <time>2026-09-01T19:52:13Z</time>
  <course>342.93</course>
  <speed>26.291179129129983</speed>
  <fix>3d</fix>
</trkpt>
<trkpt lat="-27.27034" lon="151.2904677">
  <ele>367.91</ele>
  <time>2026-09-01T19:52:13Z</time>
  <course>346.56</course>
  <speed>26.1</speed>
  <fix>3d</fix>
</trkpt>
<trkpt lat="-27.270253" lon="151.2904364">
  <ele>366.7</ele>
  <time>2026-09-01T19:52:13Z</time>
  <course>340.43</course>
  <speed>26.37068448106723</speed>
  <fix>3d</fix>
</trkpt>
<trkpt lat="-27.2702947" lon="151.2904538">
  <ele>367.4</ele>
  <time>2026-09-01T19:52:13Z</time>
  <course>342.68</course>
  <speed>26.19</speed>
  <fix>3d</fix>
</trkpt>
<trkpt lat="-27.2702312" lon="151.2904261">
  <ele>366.39</ele>
  <time>2026-09-01T19:52:13Z</time>
  <course>337.86</course>
  <speed>26.46308560995864</speed>
  <fix>3d</fix>
</trkpt>
<trkpt lat="-27.2702947" lon="151.2904538">
  <ele>367.4</ele>
  <time>2026-09-01T19:52:13Z</time>
  <course>342.68</course>
  <speed>26.19</speed>
  <fix>3d</fix>
</trkpt>
<trkpt lat="-27.2702096" lon="151.2904147">
  <ele>366.07</ele>
  <time>2026-09-01T19:52:13Z</time>
  <course>335.09</course>
  <speed>26.569141875491578</speed>
  <fix>3d</fix>
</trkpt>
<trkpt lat="-27.2702502" lon="151.2904361">
  <ele>366.82</ele>
  <time>2026-09-01T19:52:13Z</time>
  <course>338.25</course>
  <speed>26.33</speed>
  <fix>3d</fix>
</trkpt>
<trkpt lat="-27.2701884" lon="151.2904019">
  <ele>365.74</ele>
  <time>2026-09-01T19:52:13Z</time>
  <course>332.03</course>
  <speed>26.682436170634798</speed>
  <fix>3d</fix>
</trkpt>
<trkpt lat="-27.2702502" lon="151.2904361">
  <ele>366.82</ele>
  <time>2026-09-01T19:52:13Z</time>
  <course>338.25</course>
  <speed>26.33</speed>
  <fix>3d</fix>
</trkpt>
<trkpt lat="-27.2701678" lon="151.2903881">
  <ele>365.41</ele>
  <time>2026-09-01T19:52:13Z</time>
  <course>328.95</course>
  <speed>26.79703901553304</speed>
  <fix>3d</fix>
</trkpt>
<trkpt lat="-27.270207" lon="151.2904141">
  <ele>366.19</ele>
  <time>2026-09-01T19:52:13Z</time>
  <course>333.11</course>
  <speed>26.53</speed>
  <fix>3d</fix>
</trkpt>
<trkpt lat="-27.2701478" lon="151.2903729">
  <ele>365.09</ele>
  <time>2026-09-01T19:52:13Z</time>
  <course>325.8</course>
  <speed>26.913743700942092</speed>
  <fix>3d</fix>
</trkpt>
<trkpt lat="-27.270207" lon="151.2904141">
  <ele>366.19</ele>
  <time>2026-09-01T19:52:13Z</time>
  <course>333.11</course>
  <speed>26.53</speed>
  <fix>3d</fix>
</trkpt>
<trkpt lat="-27.2701285" lon="151.2903565">
  <ele>364.77</ele>
  <time>2026-09-01T19:52:13Z</time>
  <course>322.59</course>
  <speed>27.026005994227116</speed>
  <fix>3d</fix>
</trkpt>
<trkpt lat="-27.2701654" lon="151.2903875">
  <ele>365.54</ele>
  <time>2026-09-01T19:52:13Z</time>
  <course>327.35</course>
  <speed>26.76</speed>
  <fix>3d</fix>
</trkpt>
<trkpt lat="-27.27011" lon="151.2903389">
  <ele>364.47</ele>
  <time>2026-09-01T19:52:13Z</time>
  <course>319.2</course>
  <speed>27.13103389109969</speed>
  <fix>3d</fix>
</trkpt>
<trkpt lat="-27.2701654" lon="151.2903875">
  <ele>365.54</ele>
  <time>2026-09-01T19:52:13Z</time>
  <course>327.35</course>
  <speed>26.76</speed>
  <fix>3d</fix>
</trkpt>
<trkpt lat="-27.2700923" lon="151.29032">
  <ele>364.18</ele>
  <time>2026-09-01T19:52:13Z</time>
  <course>315.76</course>
  <speed>27.23156440603441</speed>
  <fix>3d</fix>
</trkpt>
<trkpt lat="-27.2701263" lon="151.2903557">
  <ele>364.91</ele>
  <time>2026-09-01T19:52:13Z</time>
  <course>321.1</course>
  <speed>27.01</speed>
  <fix>3d</fix>
</trkpt>
<trkpt lat="-27.2700756" lon="151.2902998">
  <ele>363.91</ele>
  <time>2026-09-01T19:52:13Z</time>
  <course>312.34</course>
  <speed>27.327949063184377</speed>
  <fix>3d</fix>
</trkpt>
<trkpt lat="-27.2701263" lon="151.2903557">
  <ele>364.91</ele>
  <time>2026-09-01T19:52:13Z</time>
  <course>321.1</course>
  <speed>27.01</speed>
  <fix>3d</fix>
</trkpt>
<trkpt lat="-27.2700604" lon="151.2902791">
  <ele>363.67</ele>
  <time>2026-09-01T19:52:13Z</time>
  <course>308.95</course>
  <speed>27.411596086328135</speed>
  <fix>3d</fix>
</trkpt>
<trkpt lat="-27.2700902" lon="151.2903189">
  <ele>364.33</ele>
  <time>2026-09-01T19:52:13Z</time>
  <course>314.51</course>
  <speed>27.23</speed>
  <fix>3d</fix>
</trkpt>
<trkpt lat="-27.2700459" lon="151.290257">
  <ele>363.43</ele>
  <time>2026-09-01T19:52:13Z</time>
  <course>305.37</course>
  <speed>27.48671133475229</speed>
  <fix>3d</fix>
</trkpt>
<trkpt lat="-27.2700902" lon="151.2903189">
  <ele>364.33</ele>
  <time>2026-09-01T19:52:13Z</time>
  <course>314.51</course>
  <speed>27.23</speed>
  <fix>3d</fix>
</trkpt>
<trkpt lat="-27.2700326" lon="151.2902336">
  <ele>363.22</ele>
  <time>2026-09-01T19:52:13Z</time>
  <course>301.75</course>
  <speed>27.56883929366632</speed>
  <fix>3d</fix>
</trkpt>
<trkpt lat="-27.2700579" lon="151.2902773">
  <ele>363.8</ele>
  <time>2026-09-01T19:52:13Z</time>
  <course>307.63</course>
  <speed>27.43</speed>
  <fix>3d</fix>
</trkpt>
<trkpt lat="-27.2700206" lon="151.2902092">
  <ele>363.03</ele>
  <time>2026-09-01T19:52:13Z</time>
  <course>298.11</course>
  <speed>27.638532884362732</speed>
  <fix>3d</fix>
</trkpt>
<trkpt lat="-27.2700579" lon="151.2902773">
  <ele>363.8</ele>
  <time>2026-09-01T19:52:13Z</time>
  <course>307.63</course>
  <speed>27.43</speed>
  <fix>3d</fix>
</trkpt>
<trkpt lat="-27.2700099" lon="151.2901839">
  <ele>362.86</ele>
  <time>2026-09-01T19:52:13Z</time>
  <course>294.41</course>
  <speed>27.68731478493355</speed>
  <fix>3d</fix>
</trkpt>
<trkpt lat="-27.2700303" lon="151.2902313">
  <ele>363.35</ele>
  <time>2026-09-01T19:52:13Z</time>
  <course>300.49</course>
  <speed>27.61</speed>
  <fix>3d</fix>
</trkpt>
<trkpt lat="-27.2700006" lon="151.2901576">
  <ele>362.71</ele>
  <time>2026-09-01T19:52:13Z</time>
  <course>290.7</course>
  <speed>27.741732101655078</speed>
  <fix>3d</fix>
</trkpt>
<trkpt lat="-27.2700303" lon="151.2902313">
  <ele>363.35</ele>
  <time>2026-09-01T19:52:13Z</time>
  <course>300.49</course>
  <speed>27.61</speed>
  <fix>3d</fix>
</trkpt>
<trkpt lat="-27.2699929" lon="151.2901309">
  <ele>362.58</ele>
  <time>2026-09-01T19:52:13Z</time>
  <course>287.01</course>
  <speed>27.777085880271887</speed>
  <fix>3d</fix>
</trkpt>
<trkpt lat="-27.2700078" lon="151.2901813">
  <ele>362.99</ele>
  <time>2026-09-01T19:52:13Z</time>
  <course>293.15</course>
  <speed>27.75</speed>
  <fix>3d</fix>
</trkpt>
<trkpt lat="-27.2699868" lon="151.2901036">
  <ele>362.48</ele>
  <time>2026-09-01T19:52:13Z</time>
  <course>283.23</course>
  <speed>27.805907645678463</speed>
  <fix>3d</fix>
</trkpt>
<trkpt lat="-27.2700078" lon="151.2901813">
  <ele>362.99</ele>
  <time>2026-09-01T19:52:13Z</time>
  <course>293.15</course>
  <speed>27.75</speed>
  <fix>3d</fix>
</trkpt>
<trkpt lat="-27.2699821" lon="151.290075">
  <ele>362.39</ele>
  <time>2026-09-01T19:52:13Z</time>
  <course>279.35</course>
  <speed>27.831726500524542</speed>
  <fix>3d</fix>
</trkpt>
<trkpt lat="-27.2699912" lon="151.2901282">
  <ele>362.72</ele>
  <time>2026-09-01T19:52:13Z</time>
  <course>285.7</course>
  <speed>27.84</speed>
  <fix>3d</fix>
</trkpt>
<trkpt lat="-27.2699792" lon="151.2900472">
  <ele>362.33</ele>
  <time>2026-09-01T19:52:13Z</time>
  <course>275.69</course>
  <speed>27.843907771719113</speed>
  <fix>3d</fix>
</trkpt>
<trkpt lat="-27.2699912" lon="151.2901282">
  <ele>362.72</ele>
  <time>2026-09-01T19:52:13Z</time>
  <course>285.7</course>
  <speed>27.84</speed>
  <fix>3d</fix>
</trkpt>
<trkpt lat="-27.269978" lon="151.290019">
  <ele>362.3</ele>
  <time>2026-09-01T19:52:13Z</time>
  <course>272.05</course>
  <speed>27.84232748891515</speed>
  <fix>3d</fix>
</trkpt>
<trkpt lat="-27.2699808" lon="151.2900732">
  <ele>362.53</ele>
  <time>2026-09-01T19:52:13Z</time>
  <course>278.2</course>
  <speed>27.9</speed>
  <fix>3d</fix>
</trkpt>
<trkpt lat="-27.2699783" lon="151.2899908">
  <ele>362.28</ele>
  <time>2026-09-01T19:52:13Z</time>
  <course>268.29</course>
  <speed>27.836754480362828</speed>
  <fix>3d</fix>
</trkpt>
<trkpt lat="-27.2699808" lon="151.2900732">
  <ele>362.53</ele>
  <time>2026-09-01T19:52:13Z</time>
  <course>278.2</course>
  <speed>27.9</speed>
  <fix>3d</fix>
</trkpt>
<trkpt lat="-27.2699802" lon="151.2899627">
  <ele>362.28</ele>
  <time>2026-09-01T19:52:13Z</time>
  <course>264.56</course>
  <speed>27.820485258169025</speed>
  <fix>3d</fix>
</trkpt>
<trkpt lat="-27.2699769" lon="151.290017">
  <ele>362.44</ele>
  <time>2026-09-01T19:52:13Z</time>
  <course>270.73</course>
  <speed>27.91</speed>
  <fix>3d</fix>
</trkpt>
<trkpt lat="-27.2699839" lon="151.2899346">
  <ele>362.3</ele>
  <time>2026-09-01T19:52:13Z</time>
  <course>260.85</course>
  <speed>27.792650107537426</speed>
  <fix>3d</fix>
</trkpt>
<trkpt lat="-27.2699769" lon="151.290017">
  <ele>362.44</ele>
  <time>2026-09-01T19:52:13Z</time>
  <course>270.73</course>
  <speed>27.91</speed>
  <fix>3d</fix>
</trkpt>
<trkpt lat="-27.2699891" lon="151.289907">
  <ele>362.34</ele>
  <time>2026-09-01T19:52:13Z</time>
  <course>257.21</course>
  <speed>27.7631140184238</speed>
  <fix>3d</fix>
</trkpt>
<trkpt lat="-27.2699795" lon="151.2899607">
  <ele>362.43</ele>
  <time>2026-09-01T19:52:13Z</time>
  <course>263.28</course>
  <speed>27.89</speed>
  <fix>3d</fix>
</trkpt>
<trkpt lat="-27.2699958" lon="151.28988">
  <ele>362.4</ele>
  <time>2026-09-01T19:52:13Z</time>
  <course>253.58</course>
  <speed>27.71253326565437</speed>
  <fix>3d</fix>
</trkpt>
<trkpt lat="-27.2699795" lon="151.2899607">
  <ele>362.43</ele>
  <time>2026-09-01T19:52:13Z</time>
  <course>263.28</course>
  <speed>27.89</speed>
  <fix>3d</fix>
</trkpt>
<trkpt lat="-27.2700041" lon="151.2898535">
  <ele>362.46</ele>
  <time>2026-09-01T19:52:13Z</time>
  <course>249.97</course>
  <speed>27.66160696705815</speed>
  <fix>3d</fix>
</trkpt>
<trkpt lat="-27.2699885" lon="151.2899053">
  <ele>362.48</ele>
  <time>2026-09-01T19:52:13Z</time>
  <course>255.86</course>
  <speed>27.82</speed>
  <fix>3d</fix>
</trkpt>
<trkpt lat="-27.2700138" lon="151.2898278">
  <ele>362.55</ele>
  <time>2026-09-01T19:52:13Z</time>
  <course>246.36</course>
  <speed>27.606031949557693</speed>
  <fix>3d</fix>
</trkpt>
<trkpt lat="-27.2699885" lon="151.2899053">
  <ele>362.48</ele>
  <time>2026-09-01T19:52:13Z</time>
  <course>255.86</course>
  <speed>27.82</speed>
  <fix>3d</fix>
</trkpt>
<trkpt lat="-27.270025" lon="151.2898028">
  <ele>362.64</ele>
  <time>2026-09-01T19:52:13Z</time>
  <course>242.89</course>
  <speed>27.541243617527513</speed>
  <fix>3d</fix>
</trkpt>
<trkpt lat="-27.2700038" lon="151.289852">
  <ele>362.6</ele>
  <time>2026-09-01T19:52:13Z</time>
  <course>248.54</course>
  <speed>27.73</speed>
  <fix>3d</fix>
</trkpt>
<trkpt lat="-27.2700374" lon="151.2897788">
  <ele>362.75</ele>
  <time>2026-09-01T19:52:13Z</time>
  <course>239.39</course>
  <speed>27.4743844335046</speed>
  <fix>3d</fix>
</trkpt>
<trkpt lat="-27.2700038" lon="151.289852">
  <ele>362.6</ele>
  <time>2026-09-01T19:52:13Z</time>
  <course>248.54</course>
  <speed>27.73</speed>
  <fix>3d</fix>
</trkpt>
<trkpt lat="-27.2700512" lon="151.2897557">
  <ele>362.87</ele>
  <time>2026-09-01T19:52:13Z</time>
  <course>235.89</course>
  <speed>27.39286038368392</speed>
  <fix>3d</fix>
</trkpt>
<trkpt lat="-27.2700248" lon="151.2898013">
  <ele>362.78</ele>
  <time>2026-09-01T19:52:13Z</time>
  <course>241.35</course>
  <speed>27.6</speed>
  <fix>3d</fix>
</trkpt>
<trkpt lat="-27.2700661" lon="151.2897337">
  <ele>363.0</ele>
  <time>2026-09-01T19:52:13Z</time>
  <course>232.51</course>
  <speed>27.305226605908256</speed>
  <fix>3d</fix>
</trkpt>
<trkpt lat="-27.2700248" lon="151.2898013">
  <ele>362.78</ele>
  <time>2026-09-01T19:52:13Z</time>
  <course>241.35</course>
  <speed>27.6</speed>
  <fix>3d</fix>
</trkpt>
<trkpt lat="-27.270082" lon="151.2897127">
  <ele>363.14</ele>
  <time>2026-09-01T19:52:13Z</time>
  <course>229.33</course>
  <speed>27.20591112240132</speed>
  <fix>3d</fix>
</trkpt>
<trkpt lat="-27.2700512" lon="151.2897543">
  <ele>363.01</ele>
  <time>2026-09-01T19:52:13Z</time>
  <course>234.3</course>
  <speed>27.45</speed>
  <fix>3d</fix>
</trkpt>
<trkpt lat="-27.270099" lon="151.289693">
  <ele>363.28</ele>
  <time>2026-09-01T19:52:13Z</time>
  <course>226.19</course>
  <speed>27.10580196194165</speed>
  <fix>3d</fix>
</trkpt>
<trkpt lat="-27.2700512" lon="151.2897543">
  <ele>363.01</ele>
  <time>2026-09-01T19:52:13Z</time>
  <course>234.3</course>
  <speed>27.45</speed>
  <fix>3d</fix>
</trkpt>
<trkpt lat="-27.2701168" lon="151.2896743">
  <ele>363.43</ele>
  <time>2026-09-01T19:52:13Z</time>
  <course>223.12</course>
  <speed>26.989316404829523</speed>
  <fix>3d</fix>
</trkpt>
<trkpt lat="-27.2700821" lon="151.2897115">
  <ele>363.28</ele>
  <time>2026-09-01T19:52:13Z</time>
  <course>227.55</course>
  <speed>27.26</speed>
  <fix>3d</fix>
</trkpt>
<trkpt lat="-27.2701354" lon="151.2896569">
  <ele>363.59</ele>
  <time>2026-09-01T19:52:13Z</time>
  <course>220.22</course>
  <speed>26.861796291387513</speed>
  <fix>3d</fix>
</trkpt>
<trkpt lat="-27.2700821" lon="151.2897115">
  <ele>363.28</ele>
  <time>2026-09-01T19:52:13Z</time>
  <course>227.55</course>
  <speed>27.26</speed>
  <fix>3d</fix>
</trkpt>
<trkpt lat="-27.2701546" lon="151.2896407">
  <ele>363.74</ele>
  <time>2026-09-01T19:52:13Z</time>
  <course>217.48</course>
  <speed>26.723502764420687</speed>
  <fix>3d</fix>
</trkpt>
<trkpt lat="-27.2701171" lon="151.2896731">
  <ele>363.58</ele>
  <time>2026-09-01T19:52:13Z</time>
  <course>221.18</course>
  <speed>27.03</speed>
  <fix>3d</fix>
</trkpt>
<trkpt lat="-27.2701745" lon="151.2896256">
  <ele>363.9</ele>
  <time>2026-09-01T19:52:13Z</time>
  <course>214.87</course>
  <speed>26.579174178292295</speed>
  <fix>3d</fix>
</trkpt>
<trkpt lat="-27.2701171" lon="151.2896731">
  <ele>363.58</ele>
  <time>2026-09-01T19:52:13Z</time>
  <course>221.18</course>
  <speed>27.03</speed>
  <fix>3d</fix>
</trkpt>
<trkpt lat="-27.2701943" lon="151.289612">
  <ele>364.05</ele>
  <time>2026-09-01T19:52:13Z</time>
  <course>212.45</course>
  <speed>26.43934189801251</speed>
  <fix>3d</fix>
</trkpt>
<trkpt lat="-27.2701551" lon="151.2896394">
  <ele>363.89</ele>
  <time>2026-09-01T19:52:13Z</time>
  <course>215.27</course>
  <speed>26.77</speed>
  <fix>3d</fix>
</trkpt>
<trkpt lat="-27.2702158" lon="151.2895987">
  <ele>364.2</ele>
  <time>2026-09-01T19:52:13Z</time>
  <course>210.0</course>
  <speed>26.26735235991629</speed>
  <fix>3d</fix>
</trkpt>
<trkpt lat="-27.2701551" lon="151.2896394">
  <ele>363.89</ele>
  <time>2026-09-01T19:52:13Z</time>
  <course>215.27</course>
  <speed>26.77</speed>
  <fix>3d</fix>
</trkpt>
<trkpt lat="-27.2702365" lon="151.2895871">
  <ele>364.35</ele>
  <time>2026-09-01T19:52:13Z</time>
  <course>207.84</course>
  <speed>26.0992950096358</speed>
  <fix>3d</fix>
</trkpt>
<trkpt lat="-27.2701954" lon="151.2896104">
  <ele>364.2</ele>
  <time>2026-09-01T19:52:13Z</time>
  <course>209.92</course>
  <speed>26.47</speed>
  <fix>3d</fix>
</trkpt>
<trkpt lat="-27.2702578" lon="151.2895763">
  <ele>364.49</ele>
  <time>2026-09-01T19:52:13Z</time>
  <course>205.87</course>
  <speed>25.931959046705284</speed>
  <fix>3d</fix>
</trkpt>
<trkpt lat="-27.2701954" lon="151.2896104">
  <ele>364.2</ele>
  <time>2026-09-01T19:52:13Z</time>
  <course>209.92</course>
  <speed>26.47</speed>
  <fix>3d</fix>
</trkpt>
<trkpt lat="-27.2702791" lon="151.2895665">
  <ele>364.61</ele>
  <time>2026-09-01T19:52:13Z</time>
  <course>204.04</course>
  <speed>25.74167438221531</speed>
  <fix>3d</fix>
</trkpt>
<trkpt lat="-27.2702374" lon="151.2895859">
  <ele>364.49</ele>
  <time>2026-09-01T19:52:13Z</time>
  <course>205.14</course>
  <speed>26.15</speed>
  <fix>3d</fix>
</trkpt>
<trkpt lat="-27.2703007" lon="151.2895575">
  <ele>364.72</ele>
  <time>2026-09-01T19:52:13Z</time>
  <course>202.32</course>
  <speed>25.56301429800484</speed>
  <fix>3d</fix>
</trkpt>
<trkpt lat="-27.2702374" lon="151.2895859">
  <ele>364.49</ele>
  <time>2026-09-01T19:52:13Z</time>
  <course>205.14</course>
  <speed>26.15</speed>
  <fix>3d</fix>
</trkpt>
<trkpt lat="-27.2703224" lon="151.2895493">
  <ele>364.82</ele>
  <time>2026-09-01T19:52:13Z</time>
  <course>200.72</course>
  <speed>25.380356577479365</speed>
  <fix>3d</fix>
</trkpt>
<trkpt lat="-27.2702803" lon="151.2895654">
  <ele>364.74</ele>
  <time>2026-09-01T19:52:13Z</time>
  <course>201.03</course>
  <speed>25.81</speed>
  <fix>3d</fix>
</trkpt>
<trkpt lat="-27.270344" lon="151.2895419">
  <ele>364.89</ele>
  <time>2026-09-01T19:52:13Z</time>
  <course>199.25</course>
  <speed>25.19743836186528</speed>
  <fix>3d</fix>
</trkpt>
<trkpt lat="-27.2702803" lon="151.2895654">
  <ele>364.74</ele>
  <time>2026-09-01T19:52:13Z</time>
  <course>201.03</course>
  <speed>25.81</speed>
  <fix>3d</fix>
</trkpt>
<trkpt lat="-27.2703657" lon="151.2895351">
  <ele>364.95</ele>
  <time>2026-09-01T19:52:13Z</time>
  <course>197.87</course>
  <speed>25.016276701379844</speed>
  <fix>3d</fix>
</trkpt>
<trkpt lat="-27.2703238" lon="151.2895484">
  <ele>364.93</ele>
  <time>2026-09-01T19:52:13Z</time>
  <course>197.54</course>
  <speed>25.45</speed>
  <fix>3d</fix>
</trkpt>
<trkpt lat="-27.2703873" lon="151.289529">
  <ele>364.98</ele>
  <time>2026-09-01T19:52:13Z</time>
  <course>196.57</course>
  <speed>24.835317594103763</speed>
  <fix>3d</fix>
</trkpt>
<trkpt lat="-27.2703238" lon="151.2895484">
  <ele>364.93</ele>
  <time>2026-09-01T19:52:13Z</time>
  <course>197.54</course>
  <speed>25.45</speed>
  <fix>3d</fix>
</trkpt>
<trkpt lat="-27.270409" lon="151.2895235">
  <ele>364.99</ele>
  <time>2026-09-01T19:52:13Z</time>
  <course>195.31</course>
  <speed>24.663675719567838</speed>
  <fix>3d</fix>
</trkpt>
<trkpt lat="-27.2703674" lon="151.2895343">
  <ele>365.05</ele>
  <time>2026-09-01T19:52:13Z</time>
  <course>194.55</course>
  <speed>25.1</speed>
  <fix>3d</fix>
</trkpt>
<trkpt lat="-27.2704306" lon="151.2895185">
  <ele>364.97</ele>
  <time>2026-09-01T19:52:13Z</time>
  <course>194.09</course>
  <speed>24.50143873326626</speed>
  <fix>3d</fix>
</trkpt>
<trkpt lat="-27.2703674" lon="151.2895343">
  <ele>365.05</ele>
  <time>2026-09-01T19:52:13Z</time>
  <course>194.55</course>
  <speed>25.1</speed>
  <fix>3d</fix>
</trkpt>
<trkpt lat="-27.2704522" lon="151.289514">
  <ele>364.93</ele>
  <time>2026-09-01T19:52:13Z</time>
  <course>192.86</course>
  <speed>24.351065685098874</speed>
  <fix>3d</fix>
</trkpt>
<trkpt lat="-27.2704109" lon="151.2895227">
  <ele>365.08</ele>
  <time>2026-09-01T19:52:13Z</time>
  <course>191.97</course>
  <speed>24.75</speed>
  <fix>3d</fix>
</trkpt>
<trkpt lat="-27.2704737" lon="151.2895101">
  <ele>364.86</ele>
  <time>2026-09-01T19:52:13Z</time>
  <course>191.68</course>
  <speed>24.193869058089902</speed>
  <fix>3d</fix>
</trkpt>
<trkpt lat="-27.2704109" lon="151.2895227">
  <ele>365.08</ele>
  <time>2026-09-01T19:52:13Z</time>
  <course>191.97</course>
  <speed>24.75</speed>
  <fix>3d</fix>
</trkpt>
<trkpt lat="-27.2704951" lon="151.2895066">
  <ele>364.78</ele>
  <time>2026-09-01T19:52:13Z</time>
  <course>190.54</course>
  <speed>24.059746465829605</speed>
  <fix>3d</fix>
</trkpt>
<trkpt lat="-27.2704543" lon="151.2895135">
  <ele>365.03</ele>
  <time>2026-09-01T19:52:13Z</time>
  <course>189.63</course>
  <speed>24.43</speed>
  <fix>3d</fix>
</trkpt>
<trkpt lat="-27.2705165" lon="151.2895036">
  <ele>364.69</ele>
  <time>2026-09-01T19:52:13Z</time>
  <course>189.36</course>
  <speed>23.92398378197076</speed>
  <fix>3d</fix>
</trkpt>
<trkpt lat="-27.2704543" lon="151.2895135">
  <ele>365.03</ele>
  <time>2026-09-01T19:52:13Z</time>
  <course>189.63</course>
  <speed>24.43</speed>
  <fix>3d</fix>
</trkpt>
<trkpt lat="-27.2705379" lon="151.2895011">
  <ele>364.57</ele>
  <time>2026-09-01T19:52:13Z</time>
  <course>188.22</course>
  <speed>23.79850835661765</speed>
  <fix>3d</fix>
</trkpt>
<trkpt lat="-27.2704975" lon="151.2895062">
  <ele>364.89</ele>
  <time>2026-09-01T19:52:13Z</time>
  <course>187.45</course>
  <speed>24.13</speed>
  <fix>3d</fix>
</trkpt>
<trkpt lat="-27.2705591" lon="151.289499">
  <ele>364.45</ele>
  <time>2026-09-01T19:52:13Z</time>
  <course>187.11</course>
  <speed>23.681589895950818</speed>
  <fix>3d</fix>
</trkpt>
<trkpt lat="-27.2704975" lon="151.2895062">
  <ele>364.89</ele>
  <time>2026-09-01T19:52:13Z</time>
  <course>187.45</course>
  <speed>24.13</speed>
  <fix>3d</fix>
</trkpt>
<trkpt lat="-27.2705803" lon="151.2894973">
  <ele>364.31</ele>
  <time>2026-09-01T19:52:13Z</time>
  <course>186.02</course>
  <speed>23.572808487747064</speed>
  <fix>3d</fix>
</trkpt>
<trkpt lat="-27.2705404" lon="151.2895007">
  <ele>364.68</ele>
  <time>2026-09-01T19:52:13Z</time>
  <course>185.35</course>
  <speed>23.87</speed>
  <fix>3d</fix>
</trkpt>
<trkpt lat="-27.2706015" lon="151.2894961">
  <ele>364.17</ele>
  <time>2026-09-01T19:52:13Z</time>
  <course>184.96</course>
  <speed>23.47174045527941</speed>
  <fix>3d</fix>
</trkpt>
<trkpt lat="-27.2705404" lon="151.2895007">
  <ele>364.68</ele>
  <time>2026-09-01T19:52:13Z</time>
  <course>185.35</course>
  <speed>23.87</speed>
  <fix>3d</fix>
</trkpt>
<trkpt lat="-27.2706225" lon="151.2894952">
  <ele>364.02</ele>
  <time>2026-09-01T19:52:13Z</time>
  <course>183.91</course>
  <speed>23.378222772486364</speed>
  <fix>3d</fix>
</trkpt>
<trkpt lat="-27.270583" lon="151.2894971">
  <ele>364.43</ele>
  <time>2026-09-01T19:52:13Z</time>
  <course>183.33</course>
  <speed>23.63</speed>
  <fix>3d</fix>
</trkpt>
<trkpt lat="-27.2706435" lon="151.2894948">
  <ele>363.87</ele>
  <time>2026-09-01T19:52:13Z</time>
  <course>182.9</course>
  <speed>23.291236549397716</speed>
  <fix>3d</fix>
</trkpt>
<trkpt lat="-27.270583" lon="151.2894971">
  <ele>364.43</ele>
  <time>2026-09-01T19:52:13Z</time>
  <course>183.33</course>
  <speed>23.63</speed>
  <fix>3d</fix>
</trkpt>
<trkpt lat="-27.2706645" lon="151.2894947">
  <ele>363.72</ele>
  <time>2026-09-01T19:52:13Z</time>
  <course>181.89</course>
  <speed>23.210260662043414</speed>
  <fix>3d</fix>
</trkpt>
<trkpt lat="-27.2706252" lon="151.2894951">
  <ele>364.14</ele>
  <time>2026-09-01T19:52:13Z</time>
  <course>181.4</course>
  <speed>23.43</speed>
  <fix>3d</fix>
</trkpt>
<trkpt lat="-27.2706853" lon="151.2894949">
  <ele>363.57</ele>
  <time>2026-09-01T19:52:13Z</time>
  <course>180.92</course>
  <speed>23.134377017762983</speed>
  <fix>3d</fix>
</trkpt>
<trkpt lat="-27.2706252" lon="151.2894951">
  <ele>364.14</ele>
  <time>2026-09-01T19:52:13Z</time>
  <course>181.4</course>
  <speed>23.43</speed>
  <fix>3d</fix>
</trkpt>
<trkpt lat="-27.2707061" lon="151.2894955">
  <ele>363.42</ele>
  <time>2026-09-01T19:52:13Z</time>
  <course>180.04</course>
  <speed>23.073187902845156</speed>
  <fix>3d</fix>
</trkpt>
<trkpt lat="-27.2706672" lon="151.2894948">
  <ele>363.85</ele>
  <time>2026-09-01T19:52:13Z</time>
  <course>179.59</course>
  <speed>23.26</speed>
  <fix>3d</fix>
</trkpt>
<trkpt lat="-27.2707269" lon="151.2894965">
  <ele>363.28</ele>
  <time>2026-09-01T19:52:13Z</time>
  <course>179.22</course>
  <speed>23.00536459176424</speed>
  <fix>3d</fix>
</trkpt>
<trkpt lat="-27.2706672" lon="151.2894948">
  <ele>363.85</ele>
  <time>2026-09-01T19:52:13Z</time>
  <course>179.59</course>
  <speed>23.26</speed>
  <fix>3d</fix>
</trkpt>
<trkpt lat="-27.2707475" lon="151.2894978">
  <ele>363.15</ele>
  <time>2026-09-01T19:52:13Z</time>
  <course>178.4</course>
  <speed>22.940348733181892</speed>
  <fix>3d</fix>
</trkpt>
<trkpt lat="-27.2707088" lon="151.2894958">
  <ele>363.57</ele>
  <time>2026-09-01T19:52:13Z</time>
  <course>177.94</course>
  <speed>23.11</speed>
  <fix>3d</fix>
</trkpt>
<trkpt lat="-27.2707679" lon="151.2894993">
  <ele>363.02</ele>
  <time>2026-09-01T19:52:13Z</time>
  <course>177.65</course>
  <speed>22.888114819705006</speed>
  <fix>3d</fix>
</trkpt>
<trkpt lat="-27.2707088" lon="151.2894958">
  <ele>363.57</ele>
  <time>2026-09-01T19:52:13Z</time>
  <course>177.94</course>
  <speed>23.11</speed>
  <fix>3d</fix>
</trkpt>
<trkpt lat="-27.2707888" lon="151.2895011">
  <ele>362.91</ele>
  <time>2026-09-01T19:52:13Z</time>
  <course>176.94</course>
  <speed>22.82672556456576</speed>
  <fix>3d</fix>
</trkpt>
<trkpt lat="-27.2707501" lon="151.2894979">
  <ele>363.3</ele>
  <time>2026-09-01T19:52:13Z</time>
  <course>176.46</course>
  <speed>22.97</speed>
  <fix>3d</fix>
</trkpt>
<trkpt lat="-27.2708092" lon="151.2895031">
  <ele>362.8</ele>
  <time>2026-09-01T19:52:13Z</time>
  <course>176.3</course>
  <speed>22.766137133910092</speed>
  <fix>3d</fix>
</trkpt>
<trkpt lat="-27.2707501" lon="151.2894979">
  <ele>363.3</ele>
  <time>2026-09-01T19:52:13Z</time>
  <course>176.46</course>
  <speed>22.97</speed>
  <fix>3d</fix>
</trkpt>
<trkpt lat="-27.2708296" lon="151.2895053">
  <ele>362.7</ele>
  <time>2026-09-01T19:52:13Z</time>
  <course>175.7</course>
  <speed>22.705774595904014</speed>
  <fix>3d</fix>
</trkpt>
<trkpt lat="-27.2707911" lon="151.2895013">
  <ele>363.07</ele>
  <time>2026-09-01T19:52:13Z</time>
  <course>175.17</course>
  <speed>22.85</speed>
  <fix>3d</fix>
</trkpt>
<trkpt lat="-27.2708499" lon="151.2895077">
  <ele>362.6</ele>
  <time>2026-09-01T19:52:13Z</time>
  <course>175.14</course>
  <speed>22.64510984738206</speed>
  <fix>3d</fix>
</trkpt>
<trkpt lat="-27.2707911" lon="151.2895013">
  <ele>363.07</ele>
  <time>2026-09-01T19:52:13Z</time>
  <course>175.17</course>
  <speed>22.85</speed>
  <fix>3d</fix>
</trkpt>
<trkpt lat="-27.2708701" lon="151.2895103">
  <ele>362.52</ele>
  <time>2026-09-01T19:52:13Z</time>
  <course>174.65</course>
  <speed>22.58366223622732</speed>
  <fix>3d</fix>
</trkpt>
<trkpt lat="-27.2708319" lon="151.2895057">
  <ele>362.86</ele>
  <time>2026-09-01T19:52:13Z</time>
  <course>174.08</course>
  <speed>22.73</speed>
  <fix>3d</fix>
</trkpt>
<trkpt lat="-27.2708902" lon="151.2895131">
  <ele>362.44</ele>
  <time>2026-09-01T19:52:13Z</time>
  <course>174.2</course>
  <speed>22.530923194578598</speed>
  <fix>3d</fix>
</trkpt>
<trkpt lat="-27.2708319" lon="151.2895057">
  <ele>362.86</ele>
  <time>2026-09-01T19:52:13Z</time>
  <course>174.08</course>
  <speed>22.73</speed>
  <fix>3d</fix>
</trkpt>
<trkpt lat="-27.2709103" lon="151.289516">
  <ele>362.37</ele>
  <time>2026-09-01T19:52:13Z</time>
  <course>173.8</course>
  <speed>22.466653066266904</speed>
  <fix>3d</fix>
</trkpt>
<trkpt lat="-27.2708724" lon="151.2895108">
  <ele>362.69</ele>
  <time>2026-09-01T19:52:13Z</time>
  <course>173.19</course>
  <speed>22.6</speed>
  <fix>3d</fix>
</trkpt>
<trkpt lat="-27.2709303" lon="151.289519">
  <ele>362.31</ele>
  <time>2026-09-01T19:52:13Z</time>
  <course>173.41</course>
  <speed>22.401785643113364</speed>
  <fix>3d</fix>
</trkpt>
<trkpt lat="-27.2708724" lon="151.2895108">
  <ele>362.69</ele>
  <time>2026-09-01T19:52:13Z</time>
  <course>173.19</course>
  <speed>22.6</speed>
  <fix>3d</fix>
</trkpt>
<trkpt lat="-27.2709502" lon="151.2895221">
  <ele>362.25</ele>
  <time>2026-09-01T19:52:13Z</time>
  <course>173.06</course>
  <speed>22.346071243061942</speed>
  <fix>3d</fix>
</trkpt>
<trkpt lat="-27.2709126" lon="151.2895165">
  <ele>362.55</ele>
  <time>2026-09-01T19:52:13Z</time>
  <course>172.47</course>
  <speed>22.48</speed>
  <fix>3d</fix>
</trkpt>
<trkpt lat="-27.2709701" lon="151.2895253">
  <ele>362.21</ele>
  <time>2026-09-01T19:52:13Z</time>
  <course>172.74</course>
  <speed>22.27812604327393</speed>
  <fix>3d</fix>
</trkpt>
<trkpt lat="-27.2709126" lon="151.2895165">
  <ele>362.55</ele>
  <time>2026-09-01T19:52:13Z</time>
  <course>172.47</course>
  <speed>22.48</speed>
  <fix>3d</fix>
</trkpt>
<trkpt lat="-27.2709899" lon="151.2895286">
  <ele>362.16</ele>
  <time>2026-09-01T19:52:13Z</time>
  <course>172.45</course>
  <speed>22.218976124025158</speed>
  <fix>3d</fix>
</trkpt>
<trkpt lat="-27.2709524" lon="151.2895227">
  <ele>362.44</ele>
  <time>2026-09-01T19:52:13Z</time>
  <course>171.9</course>
  <speed>22.35</speed>
  <fix>3d</fix>
</trkpt>
<trkpt lat="-27.2710096" lon="151.2895319">
  <ele>362.13</ele>
  <time>2026-09-01T19:52:13Z</time>
  <course>172.18</course>
  <speed>22.148726825711673</speed>
  <fix>3d</fix>
</trkpt>
<trkpt lat="-27.2709524" lon="151.2895227">
  <ele>362.44</ele>
  <time>2026-09-01T19:52:13Z</time>
  <course>171.9</course>
  <speed>22.35</speed>
  <fix>3d</fix>
</trkpt>
<trkpt lat="-27.2710293" lon="151.2895353">
  <ele>362.11</ele>
  <time>2026-09-01T19:52:13Z</time>
  <course>171.96</course>
  <speed>22.088589814653172</speed>
  <fix>3d</fix>
</trkpt>
<trkpt lat="-27.2709921" lon="151.2895292">
  <ele>362.35</ele>
  <time>2026-09-01T19:52:13Z</time>
  <course>171.45</course>
  <speed>22.22</speed>
  <fix>3d</fix>
</trkpt>
<trkpt lat="-27.2710488" lon="151.2895388">
  <ele>362.09</ele>
  <time>2026-09-01T19:52:13Z</time>
  <course>171.78</course>
  <speed>22.015689859734124</speed>
  <fix>3d</fix>
</trkpt>
<trkpt lat="-27.2709921" lon="151.2895292">
  <ele>362.35</ele>
  <time>2026-09-01T19:52:14Z</time>
  <course>171.45</course>
  <speed>22.22</speed>
  <fix>3d</fix>
</trkpt>
<trkpt lat="-27.2710684" lon="151.2895423">
  <ele>362.07</ele>
  <time>2026-09-01T19:52:14Z</time>
  <course>171.64</course>
  <speed>21.95278797784008</speed>
  <fix>3d</fix>
</trkpt>
<trkpt lat="-27.2710316" lon="151.289536">
  <ele>362.3</ele>
  <time>2026-09-01T19:52:14Z</time>
  <course>171.11</course>
  <speed>22.09</speed>
  <fix>3d</fix>
</trkpt>
<trkpt lat="-27.2710878" lon="151.2895458">
  <ele>362.06</ele>
  <time>2026-09-01T19:52:14Z</time>
  <course>171.52</course>
  <speed>21.88682251949789</speed>
  <fix>3d</fix>
</trkpt>
<trkpt lat="-27.2710316" lon="151.289536">
  <ele>362.3</ele>
  <time>2026-09-01T19:52:14Z</time>
  <course>171.11</course>
  <speed>22.09</speed>
  <fix>3d</fix>
</trkpt>
<trkpt lat="-27.2711072" lon="151.2895494">
  <ele>362.06</ele>
  <time>2026-09-01T19:52:14Z</time>
  <course>171.41</course>
  <speed>21.820900531371294</speed>
  <fix>3d</fix>
</trkpt>
<trkpt lat="-27.2710706" lon="151.2895429">
  <ele>362.27</ele>
  <time>2026-09-01T19:52:14Z</time>
  <course>170.85</course>
  <speed>21.96</speed>
  <fix>3d</fix>
</trkpt>
<trkpt lat="-27.2711266" lon="151.2895529">
  <ele>362.06</ele>
  <time>2026-09-01T19:52:14Z</time>
  <course>171.31</course>
  <speed>21.75341122674786</speed>
  <fix>3d</fix>
</trkpt>
<trkpt lat="-27.2710706" lon="151.2895429">
  <ele>362.27</ele>
  <time>2026-09-01T19:52:14Z</time>
  <course>170.85</course>
  <speed>21.96</speed>
  <fix>3d</fix>
</trkpt>
<trkpt lat="-27.2711458" lon="151.2895565">
  <ele>362.06</ele>
  <time>2026-09-01T19:52:14Z</time>
  <course>171.24</course>
  <speed>21.676074367836996</speed>
  <fix>3d</fix>
</trkpt>
<trkpt lat="-27.2711094" lon="151.28955">
  <ele>362.27</ele>
  <time>2026-09-01T19:52:14Z</time>
  <course>170.68</course>
  <speed>21.82</speed>
  <fix>3d</fix>
</trkpt>
<trkpt lat="-27.271165" lon="151.2895601">
  <ele>362.07</ele>
  <time>2026-09-01T19:52:14Z</time>
  <course>171.14</course>
  <speed>21.60700118017306</speed>
  <fix>3d</fix>
</trkpt>
<trkpt lat="-27.2711094" lon="151.28955">
  <ele>362.27</ele>
  <time>2026-09-01T19:52:14Z</time>
  <course>170.68</course>
  <speed>21.82</speed>
  <fix>3d</fix>
</trkpt>
<trkpt lat="-27.271184" lon="151.2895637">
  <ele>362.08</ele>
  <time>2026-09-01T19:52:14Z</time>
  <course>171.1</course>
  <speed>21.53793397705546</speed>
  <fix>3d</fix>
</trkpt>
<trkpt lat="-27.2711479" lon="151.2895572">
  <ele>362.28</ele>
  <time>2026-09-01T19:52:14Z</time>
  <course>170.58</course>
  <speed>21.68</speed>
  <fix>3d</fix>
</trkpt>
<trkpt lat="-27.2712031" lon="151.2895672">
  <ele>362.1</ele>
  <time>2026-09-01T19:52:14Z</time>
  <course>171.05</course>
  <speed>21.467240157970938</speed>
  <fix>3d</fix>
</trkpt>
<trkpt lat="-27.2711479" lon="151.2895572">
  <ele>362.28</ele>
  <time>2026-09-01T19:52:14Z</time>
  <course>170.58</course>
  <speed>21.68</speed>
  <fix>3d</fix>
</trkpt>
<trkpt lat="-27.2712221" lon="151.2895708">
  <ele>362.12</ele>
  <time>2026-09-01T19:52:14Z</time>
  <course>171.01</course>
  <speed>21.396546450303607</speed>
  <fix>3d</fix>
</trkpt>
<trkpt lat="-27.2711862" lon="151.2895644">
  <ele>362.3</ele>
  <time>2026-09-01T19:52:14Z</time>
  <course>170.53</course>
  <speed>21.54</speed>
  <fix>3d</fix>
</trkpt>
<trkpt lat="-27.271241" lon="151.2895744">
  <ele>362.15</ele>
  <time>2026-09-01T19:52:14Z</time>
  <course>170.99</course>
  <speed>21.3258528551615</speed>
  <fix>3d</fix>
</trkpt>
<trkpt lat="-27.2711862" lon="151.2895644">
  <ele>362.3</ele>
  <time>2026-09-01T19:52:14Z</time>
  <course>170.53</course>
  <speed>21.54</speed>
  <fix>3d</fix>
</trkpt>
<trkpt lat="-27.27126" lon="151.2895779">
  <ele>362.18</ele>
  <time>2026-09-01T19:52:14Z</time>
  <course>171.0</course>
  <speed>21.245293596465075</speed>
  <fix>3d</fix>
</trkpt>
<trkpt lat="-27.2712243" lon="151.2895715">
  <ele>362.34</ele>
  <time>2026-09-01T19:52:14Z</time>
  <course>170.52</course>
  <speed>21.4</speed>
  <fix>3d</fix>
</trkpt>
<trkpt lat="-27.2712789" lon="151.2895815">
  <ele>362.21</ele>
  <time>2026-09-01T19:52:14Z</time>
  <course>171.01</course>
  <speed>21.172968615666534</speed>
  <fix>3d</fix>
</trkpt>
<trkpt lat="-27.2712243" lon="151.2895715">
  <ele>362.34</ele>
  <time>2026-09-01T19:52:14Z</time>
  <course>170.52</course>
  <speed>21.4</speed>
  <fix>3d</fix>
</trkpt>
<trkpt lat="-27.2712976" lon="151.289585">
  <ele>362.24</ele>
  <time>2026-09-01T19:52:14Z</time>
  <course>171.04</course>
  <speed>21.100646909514406</speed>
  <fix>3d</fix>
</trkpt>
<trkpt lat="-27.2712621" lon="151.2895786">
  <ele>362.4</ele>
  <time>2026-09-01T19:52:14Z</time>
  <course>170.53</course>
  <speed>21.25</speed>
  <fix>3d</fix>
</trkpt>
<trkpt lat="-27.2713164" lon="151.2895885">
  <ele>362.27</ele>
  <time>2026-09-01T19:52:14Z</time>
  <course>171.07</course>
  <speed>21.028328511795703</speed>
  <fix>3d</fix>
</trkpt>
<trkpt lat="-27.2712621" lon="151.2895786">
  <ele>362.4</ele>
  <time>2026-09-01T19:52:14Z</time>
  <course>170.53</course>
  <speed>21.25</speed>
  <fix>3d</fix>
</trkpt>
<trkpt lat="-27.2713351" lon="151.289592">
  <ele>362.31</ele>
  <time>2026-09-01T19:52:14Z</time>
  <course>171.09</course>
  <speed>20.946145230089474</speed>
  <fix>3d</fix>
</trkpt>
<trkpt lat="-27.2712996" lon="151.2895856">
  <ele>362.47</ele>
  <time>2026-09-01T19:52:14Z</time>
  <course>170.57</course>
  <speed>21.1</speed>
  <fix>3d</fix>
</trkpt>
<trkpt lat="-27.2713536" lon="151.2895954">
  <ele>362.34</ele>
  <time>2026-09-01T19:52:14Z</time>
  <course>171.13</course>
  <speed>20.872220773075398</speed>
  <fix>3d</fix>
</trkpt>
<trkpt lat="-27.2712996" lon="151.2895856">
  <ele>362.47</ele>
  <time>2026-09-01T19:52:14Z</time>
  <course>170.57</course>
  <speed>21.1</speed>
  <fix>3d</fix>
</trkpt>
<trkpt lat="-27.2713721" lon="151.2895988">
  <ele>362.38</ele>
  <time>2026-09-01T19:52:14Z</time>
  <course>171.18</course>
  <speed>20.79991586521446</speed>
  <fix>3d</fix>
</trkpt>
<trkpt lat="-27.2713369" lon="151.2895926">
  <ele>362.54</ele>
  <time>2026-09-01T19:52:14Z</time>
  <course>170.63</course>
  <speed>20.95</speed>
  <fix>3d</fix>
</trkpt>
<trkpt lat="-27.2713905" lon="151.2896022">
  <ele>362.43</ele>
  <time>2026-09-01T19:52:14Z</time>
  <course>171.22</course>
  <speed>20.726015053550455</speed>
  <fix>3d</fix>
</trkpt>
<trkpt lat="-27.2713369" lon="151.2895926">
  <ele>362.54</ele>
  <time>2026-09-01T19:52:14Z</time>
  <course>170.63</course>
  <speed>20.95</speed>
  <fix>3d</fix>
</trkpt>
<trkpt lat="-27.2714089" lon="151.2896056">
  <ele>362.47</ele>
  <time>2026-09-01T19:52:14Z</time>
  <course>171.25</course>
  <speed>20.653721214347794</speed>
  <fix>3d</fix>
</trkpt>
<trkpt lat="-27.271374" lon="151.2895995">
  <ele>362.62</ele>
  <time>2026-09-01T19:52:14Z</time>
  <course>170.71</course>
  <speed>20.8</speed>
  <fix>3d</fix>
</trkpt>
<trkpt lat="-27.2714272" lon="151.2896089">
  <ele>362.51</ele>
  <time>2026-09-01T19:52:14Z</time>
  <course>171.27</course>
  <speed>20.57984450864486</speed>
  <fix>3d</fix>
</trkpt>
<trkpt lat="-27.271374" lon="151.2895995">
  <ele>362.62</ele>
  <time>2026-09-01T19:52:14Z</time>
  <course>170.71</course>
  <speed>20.8</speed>
  <fix>3d</fix>
</trkpt>
<trkpt lat="-27.2714455" lon="151.2896122">
  <ele>362.56</ele>
  <time>2026-09-01T19:52:14Z</time>
  <course>171.3</course>
  <speed>20.517436487046815</speed>
  <fix>3d</fix>
</trkpt>
<trkpt lat="-27.2714108" lon="151.2896061">
  <ele>362.71</ele>
  <time>2026-09-01T19:52:14Z</time>
  <course>170.8</course>
  <speed>20.65</speed>
  <fix>3d</fix>
</trkpt>
<trkpt lat="-27.2714637" lon="151.2896155">
  <ele>362.6</ele>
  <time>2026-09-01T19:52:14Z</time>
  <course>171.36</course>
  <speed>20.443585791147303</speed>
  <fix>3d</fix>
</trkpt>
<trkpt lat="-27.2714108" lon="151.2896061">
  <ele>362.71</ele>
  <time>2026-09-01T19:52:14Z</time>
  <course>170.8</course>
  <speed>20.65</speed>
  <fix>3d</fix>
</trkpt>
<trkpt lat="-27.2714819" lon="151.2896188">
  <ele>362.65</ele>
  <time>2026-09-01T19:52:14Z</time>
  <course>171.42</course>
  <speed>20.369752084892934</speed>
  <fix>3d</fix>
</trkpt>
<trkpt lat="-27.2714473" lon="151.2896127">
  <ele>362.79</ele>
  <time>2026-09-01T19:52:14Z</time>
  <course>170.89</course>
  <speed>20.5</speed>
  <fix>3d</fix>
</trkpt>
<trkpt lat="-27.2714999" lon="151.289622">
  <ele>362.69</ele>
  <time>2026-09-01T19:52:14Z</time>
  <course>171.46</course>
  <speed>20.295935553701387</speed>
  <fix>3d</fix>
</trkpt>
<trkpt lat="-27.2714473" lon="151.2896127">
  <ele>362.79</ele>
  <time>2026-09-01T19:52:14Z</time>
  <course>170.89</course>
  <speed>20.5</speed>
  <fix>3d</fix>
</trkpt>
<trkpt lat="-27.271518" lon="151.2896252">
  <ele>362.74</ele>
  <time>2026-09-01T19:52:14Z</time>
  <course>171.48</course>
  <speed>20.222136385654213</speed>
  <fix>3d</fix>
</trkpt>
<trkpt lat="-27.2714835" lon="151.2896193">
  <ele>362.88</ele>
  <time>2026-09-01T19:52:14Z</time>
  <course>170.99</course>
  <speed>20.36</speed>
  <fix>3d</fix>
</trkpt>
<trkpt lat="-27.2715359" lon="151.2896284">
  <ele>362.78</ele>
  <time>2026-09-01T19:52:14Z</time>
  <course>171.49</course>
  <speed>20.149890818562763</speed>
  <fix>3d</fix>
</trkpt>
<trkpt lat="-27.2714835" lon="151.2896193">
  <ele>362.88</ele>
  <time>2026-09-01T19:52:14Z</time>
  <course>170.99</course>
  <speed>20.36</speed>
  <fix>3d</fix>
</trkpt>
<trkpt lat="-27.2715538" lon="151.2896315">
  <ele>362.82</ele>
  <time>2026-09-01T19:52:14Z</time>
  <course>171.54</course>
  <speed>20.087530958283548</speed>
  <fix>3d</fix>
</trkpt>
<trkpt lat="-27.2715195" lon="151.2896256">
  <ele>362.97</ele>
  <time>2026-09-01T19:52:14Z</time>
  <course>171.08</course>
  <speed>20.21</speed>
  <fix>3d</fix>
</trkpt>
<trkpt lat="-27.2715715" lon="151.2896346">
  <ele>362.86</ele>
  <time>2026-09-01T19:52:14Z</time>
  <course>171.59</course>
  <speed>20.015294152222694</speed>
  <fix>3d</fix>
</trkpt>
<trkpt lat="-27.2715195" lon="151.2896256">
  <ele>362.97</ele>
  <time>2026-09-01T19:52:14Z</time>
  <course>171.08</course>
  <speed>20.21</speed>
  <fix>3d</fix>
</trkpt>
<trkpt lat="-27.2715892" lon="151.2896377">
  <ele>362.9</ele>
  <time>2026-09-01T19:52:14Z</time>
  <course>171.67</course>
  <speed>19.943061450038204</speed>
  <fix>3d</fix>
</trkpt>
<trkpt lat="-27.2715552" lon="151.2896319">
  <ele>363.06</ele>
  <time>2026-09-01T19:52:14Z</time>
  <course>171.15</course>
  <speed>20.07</speed>
  <fix>3d</fix>
</trkpt>
<trkpt lat="-27.2716069" lon="151.2896408">
  <ele>362.95</ele>
  <time>2026-09-01T19:52:14Z</time>
  <course>171.76</course>
  <speed>19.869315539293247</speed>
  <fix>3d</fix>
</trkpt>
<trkpt lat="-27.2715552" lon="151.2896319">
  <ele>363.06</ele>
  <time>2026-09-01T19:52:14Z</time>
  <course>171.15</course>
  <speed>20.07</speed>
  <fix>3d</fix>
</trkpt>
<trkpt lat="-27.2716245" lon="151.2896438">
  <ele>362.99</ele>
  <time>2026-09-01T19:52:14Z</time>
  <course>171.82</course>
  <speed>19.79558789225518</speed>
  <fix>3d</fix>
</trkpt>
<trkpt lat="-27.2715907" lon="151.2896381">
  <ele>363.13</ele>
  <time>2026-09-01T19:52:14Z</time>
  <course>171.23</course>
  <speed>19.92</speed>
  <fix>3d</fix>
</trkpt>
<trkpt lat="-27.2716422" lon="151.2896468">
  <ele>363.03</ele>
  <time>2026-09-01T19:52:14Z</time>
  <course>171.87</course>
  <speed>19.72337699279715</speed>
  <fix>3d</fix>
</trkpt>
<trkpt lat="-27.2715907" lon="151.2896381">
  <ele>363.13</ele>
  <time>2026-09-01T19:52:14Z</time>
  <course>171.23</course>
  <speed>19.92</speed>
  <fix>3d</fix>
</trkpt>
<trkpt lat="-27.2716597" lon="151.2896498">
  <ele>363.07</ele>
  <time>2026-09-01T19:52:14Z</time>
  <course>171.88</course>
  <speed>19.649676842126436</speed>
  <fix>3d</fix>
</trkpt>
<trkpt lat="-27.271626" lon="151.2896442">
  <ele>363.21</ele>
  <time>2026-09-01T19:52:14Z</time>
  <course>171.31</course>
  <speed>19.78</speed>
  <fix>3d</fix>
</trkpt>
<trkpt lat="-27.2716771" lon="151.2896528">
  <ele>363.11</ele>
  <time>2026-09-01T19:52:14Z</time>
  <course>171.88</course>
  <speed>19.577479408749227</speed>
  <fix>3d</fix>
</trkpt>
<trkpt lat="-27.271626" lon="151.2896442">
  <ele>363.21</ele>
  <time>2026-09-01T19:52:14Z</time>
  <course>171.31</course>
  <speed>19.78</speed>
  <fix>3d</fix>
</trkpt>
<trkpt lat="-27.2716945" lon="151.2896557">
  <ele>363.15</ele>
  <time>2026-09-01T19:52:14Z</time>
  <course>171.91</course>
  <speed>19.50528646290538</speed>
  <fix>3d</fix>
</trkpt>
<trkpt lat="-27.271661" lon="151.2896502">
  <ele>363.28</ele>
  <time>2026-09-01T19:52:14Z</time>
  <course>171.39</course>
  <speed>19.63</speed>
  <fix>3d</fix>
</trkpt>
<trkpt lat="-27.2717118" lon="151.2896587">
  <ele>363.19</ele>
  <time>2026-09-01T19:52:14Z</time>
  <course>171.97</course>
  <speed>19.431623709819004</speed>
  <fix>3d</fix>
</trkpt>
<trkpt lat="-27.271661" lon="151.2896502">
  <ele>363.28</ele>
  <time>2026-09-01T19:52:14Z</time>
  <course>171.39</course>
  <speed>19.63</speed>
  <fix>3d</fix>
</trkpt>
<trkpt lat="-27.271729" lon="151.2896616">
  <ele>363.22</ele>
  <time>2026-09-01T19:52:14Z</time>
  <course>172.03</course>
  <speed>19.379228570817777</speed>
  <fix>3d</fix>
</trkpt>
<trkpt lat="-27.2716957" lon="151.2896561">
  <ele>363.37</ele>
  <time>2026-09-01T19:52:14Z</time>
  <course>171.47</course>
  <speed>19.49</speed>
  <fix>3d</fix>
</trkpt>
<trkpt lat="-27.2717462" lon="151.2896644">
  <ele>363.25</ele>
  <time>2026-09-01T19:52:14Z</time>
  <course>172.1</course>
  <speed>19.367872882689003</speed>
  <fix>3d</fix>
</trkpt>
<trkpt lat="-27.2716957" lon="151.2896561">
  <ele>363.37</ele>
  <time>2026-09-01T19:52:14Z</time>
  <course>171.47</course>
  <speed>19.49</speed>
  <fix>3d</fix>
</trkpt>
<trkpt lat="-27.2717635" lon="151.2896673">
  <ele>363.29</ele>
  <time>2026-09-01T19:52:14Z</time>
  <course>172.13</course>
  <speed>19.396094967802153</speed>
  <fix>3d</fix>
</trkpt>
<trkpt lat="-27.2717303" lon="151.2896619">
  <ele>363.44</ele>
  <time>2026-09-01T19:52:14Z</time>
  <course>171.55</course>
  <speed>19.38</speed>
  <fix>3d</fix>
</trkpt>
<trkpt lat="-27.2717807" lon="151.2896701">
  <ele>363.32</ele>
  <time>2026-09-01T19:52:14Z</time>
  <course>172.14</course>
  <speed>19.434222392470453</speed>
  <fix>3d</fix>
</trkpt>
<trkpt lat="-27.2717303" lon="151.2896619">
  <ele>363.44</ele>
  <time>2026-09-01T19:52:14Z</time>
  <course>171.55</course>
  <speed>19.38</speed>
  <fix>3d</fix>
</trkpt>
<trkpt lat="-27.271798" lon="151.289673">
  <ele>363.36</ele>
  <time>2026-09-01T19:52:14Z</time>
  <course>172.19</course>
  <speed>19.473802915712174</speed>
  <fix>3d</fix>
</trkpt>
<trkpt lat="-27.2717648" lon="151.2896676">
  <ele>363.51</ele>
  <time>2026-09-01T19:52:14Z</time>
  <course>171.63</course>
  <speed>19.38</speed>
  <fix>3d</fix>
</trkpt>
<trkpt lat="-27.2718155" lon="151.2896759">
  <ele>363.4</ele>
  <time>2026-09-01T19:52:14Z</time>
  <course>172.2</course>
  <speed>19.5020511741714</speed>
  <fix>3d</fix>
</trkpt>
<trkpt lat="-27.2717648" lon="151.2896676">
  <ele>363.51</ele>
  <time>2026-09-01T19:52:14Z</time>
  <course>171.63</course>
  <speed>19.38</speed>
  <fix>3d</fix>
</trkpt>
<trkpt lat="-27.2718328" lon="151.2896787">
  <ele>363.45</ele>
  <time>2026-09-01T19:52:14Z</time>
  <course>172.24</course>
  <speed>19.52041239318473</speed>
  <fix>3d</fix>
</trkpt>
<trkpt lat="-27.2717993" lon="151.2896733">
  <ele>363.59</ele>
  <time>2026-09-01T19:52:14Z</time>
  <course>171.7</course>
  <speed>19.45</speed>
  <fix>3d</fix>
</trkpt>
<trkpt lat="-27.2718502" lon="151.2896815">
  <ele>363.51</ele>
  <time>2026-09-01T19:52:14Z</time>
  <course>172.32</course>
  <speed>19.51898562938146</speed>
  <fix>3d</fix>
</trkpt>
<trkpt lat="-27.2717993" lon="151.2896733">
  <ele>363.59</ele>
  <time>2026-09-01T19:52:14Z</time>
  <course>171.7</course>
  <speed>19.45</speed>
  <fix>3d</fix>
</trkpt>
<trkpt lat="-27.2718676" lon="151.2896843">
  <ele>363.57</ele>
  <time>2026-09-01T19:52:14Z</time>
  <course>172.36</course>
  <speed>19.517563884870466</speed>
  <fix>3d</fix>
</trkpt>
<trkpt lat="-27.2718339" lon="151.2896789">
  <ele>363.68</ele>
  <time>2026-09-01T19:52:14Z</time>
  <course>171.76</course>
  <speed>19.49</speed>
  <fix>3d</fix>
</trkpt>
<trkpt lat="-27.2718849" lon="151.2896871">
  <ele>363.65</ele>
  <time>2026-09-01T19:52:14Z</time>
  <course>172.34</course>
  <speed>19.514735458109598</speed>
  <fix>3d</fix>
</trkpt>
<trkpt lat="-27.2718339" lon="151.2896789">
  <ele>363.68</ele>
  <time>2026-09-01T19:52:14Z</time>
  <course>171.76</course>
  <speed>19.49</speed>
  <fix>3d</fix>
</trkpt>
<trkpt lat="-27.2719023" lon="151.2896899">
  <ele>363.73</ele>
  <time>2026-09-01T19:52:14Z</time>
  <course>172.38</course>
  <speed>19.493527130819604</speed>
  <fix>3d</fix>
</trkpt>
<trkpt lat="-27.2718686" lon="151.2896845">
  <ele>363.8</ele>
  <time>2026-09-01T19:52:14Z</time>
  <course>171.81</course>
  <speed>19.5</speed>
  <fix>3d</fix>
</trkpt>
<trkpt lat="-27.2719195" lon="151.2896927">
  <ele>363.82</ele>
  <time>2026-09-01T19:52:14Z</time>
  <course>172.43</course>
  <speed>19.472321381900002</speed>
  <fix>3d</fix>
</trkpt>
<trkpt lat="-27.2718686" lon="151.2896845">
  <ele>363.8</ele>
  <time>2026-09-01T19:52:14Z</time>
  <course>171.81</course>
  <speed>19.5</speed>
  <fix>3d</fix>
</trkpt>
<trkpt lat="-27.2719368" lon="151.2896954">
  <ele>363.91</ele>
  <time>2026-09-01T19:52:14Z</time>
  <course>172.47</course>
  <speed>19.441216525721842</speed>
  <fix>3d</fix>
</trkpt>
<trkpt lat="-27.2719033" lon="151.2896902">
  <ele>363.95</ele>
  <time>2026-09-01T19:52:14Z</time>
  <course>171.86</course>
  <speed>19.48</speed>
  <fix>3d</fix>
</trkpt>
<trkpt lat="-27.2719541" lon="151.2896982">
  <ele>364.0</ele>
  <time>2026-09-01T19:52:14Z</time>
  <course>172.49</course>
  <speed>19.41011334330637</speed>
  <fix>3d</fix>
</trkpt>
<trkpt lat="-27.2719033" lon="151.2896902">
  <ele>363.95</ele>
  <time>2026-09-01T19:52:14Z</time>
  <course>171.86</course>
  <speed>19.48</speed>
  <fix>3d</fix>
</trkpt>
<trkpt lat="-27.2719714" lon="151.2897009">
  <ele>364.1</ele>
  <time>2026-09-01T19:52:14Z</time>
  <course>172.49</course>
  <speed>19.379011842712725</speed>
  <fix>3d</fix>
</trkpt>
<trkpt lat="-27.2719379" lon="151.2896957">
  <ele>364.13</ele>
  <time>2026-09-01T19:52:14Z</time>
  <course>171.9</course>
  <speed>19.43</speed>
  <fix>3d</fix>
</trkpt>
<trkpt lat="-27.2719886" lon="151.2897037">
  <ele>364.2</ele>
  <time>2026-09-01T19:52:14Z</time>
  <course>172.51</course>
  <speed>19.338009204672545</speed>
  <fix>3d</fix>
</trkpt>
<trkpt lat="-27.2719379" lon="151.2896957">
  <ele>364.13</ele>
  <time>2026-09-01T19:52:14Z</time>
  <course>171.9</course>
  <speed>19.43</speed>
  <fix>3d</fix>
</trkpt>
<trkpt lat="-27.272006" lon="151.2897064">
  <ele>364.3</ele>
  <time>2026-09-01T19:52:14Z</time>
  <course>172.52</course>
  <speed>19.297007540030656</speed>
  <fix>3d</fix>
</trkpt>
<trkpt lat="-27.2719723" lon="151.2897012">
  <ele>364.31</ele>
  <time>2026-09-01T19:52:14Z</time>
  <course>171.93</course>
  <speed>19.36</speed>
  <fix>3d</fix>
</trkpt>
<trkpt lat="-27.2720231" lon="151.2897091">
  <ele>364.39</ele>
  <time>2026-09-01T19:52:14Z</time>
  <course>172.53</course>
  <speed>19.256006855005012</speed>
  <fix>3d</fix>
</trkpt>
<trkpt lat="-27.2719723" lon="151.2897012">
  <ele>364.31</ele>
  <time>2026-09-01T19:52:14Z</time>
  <course>171.93</course>
  <speed>19.36</speed>
  <fix>3d</fix>
</trkpt>
<trkpt lat="-27.2720402" lon="151.2897118">
  <ele>364.47</ele>
  <time>2026-09-01T19:52:14Z</time>
  <course>172.52</course>
  <speed>19.215007155866477</speed>
  <fix>3d</fix>
</trkpt>
<trkpt lat="-27.2720067" lon="151.2897067">
  <ele>364.5</ele>
  <time>2026-09-01T19:52:14Z</time>
  <course>171.96</course>
  <speed>19.28</speed>
  <fix>3d</fix>
</trkpt>
<trkpt lat="-27.2720572" lon="151.2897145">
  <ele>364.56</ele>
  <time>2026-09-01T19:52:14Z</time>
  <course>172.56</course>
  <speed>19.164104466423677</speed>
  <fix>3d</fix>
</trkpt>
<trkpt lat="-27.2720067" lon="151.2897067">
  <ele>364.5</ele>
  <time>2026-09-01T19:52:14Z</time>
  <course>171.96</course>
  <speed>19.28</speed>
  <fix>3d</fix>
</trkpt>
<trkpt lat="-27.2720741" lon="151.2897172">
  <ele>364.63</ele>
  <time>2026-09-01T19:52:14Z</time>
  <course>172.58</course>
  <speed>19.111823565531367</speed>
  <fix>3d</fix>
</trkpt>
<trkpt lat="-27.2720409" lon="151.2897122">
  <ele>364.68</ele>
  <time>2026-09-01T19:52:14Z</time>
  <course>171.98</course>
  <speed>19.2</speed>
  <fix>3d</fix>
</trkpt>
<trkpt lat="-27.272091" lon="151.2897198">
  <ele>364.7</ele>
  <time>2026-09-01T19:52:14Z</time>
  <course>172.57</course>
  <speed>19.060923377423247</speed>
  <fix>3d</fix>
</trkpt>
<trkpt lat="-27.2720409" lon="151.2897122">
  <ele>364.68</ele>
  <time>2026-09-01T19:52:14Z</time>
  <course>171.98</course>
  <speed>19.2</speed>
  <fix>3d</fix>
</trkpt>
<trkpt lat="-27.2721078" lon="151.2897225">
  <ele>364.76</ele>
  <time>2026-09-01T19:52:14Z</time>
  <course>172.58</course>
  <speed>19.019929021949583</speed>
  <fix>3d</fix>
</trkpt>
<trkpt lat="-27.272075" lon="151.2897175">
  <ele>364.84</ele>
  <time>2026-09-01T19:52:14Z</time>
  <course>172.0</course>
  <speed>19.11</speed>
  <fix>3d</fix>
</trkpt>
<trkpt lat="-27.2721246" lon="151.2897251">
  <ele>364.81</ele>
  <time>2026-09-01T19:52:14Z</time>
  <course>172.63</course>
  <speed>18.969030022644805</speed>
  <fix>3d</fix>
</trkpt>
<trkpt lat="-27.272075" lon="151.2897175">
  <ele>364.84</ele>
  <time>2026-09-01T19:52:14Z</time>
  <course>172.0</course>
  <speed>19.11</speed>
  <fix>3d</fix>
</trkpt>
<trkpt lat="-27.2721414" lon="151.2897278">
  <ele>364.86</ele>
  <time>2026-09-01T19:52:14Z</time>
  <course>172.65</course>
  <speed>18.918131514502164</speed>
  <fix>3d</fix>
</trkpt>
<trkpt lat="-27.272109" lon="151.2897229">
  <ele>364.96</ele>
  <time>2026-09-01T19:52:14Z</time>
  <course>172.02</course>
  <speed>19.03</speed>
  <fix>3d</fix>
</trkpt>
<trkpt lat="-27.2721582" lon="151.2897304">
  <ele>364.91</ele>
  <time>2026-09-01T19:52:14Z</time>
  <course>172.65</course>
  <speed>18.87713961382921</speed>
  <fix>3d</fix>
</trkpt>
<trkpt lat="-27.272109" lon="151.2897229">
  <ele>364.96</ele>
  <time>2026-09-01T19:52:14Z</time>
  <course>172.02</course>
  <speed>19.03</speed>
  <fix>3d</fix>
</trkpt>
<trkpt lat="-27.2721749" lon="151.289733">
  <ele>364.95</ele>
  <time>2026-09-01T19:52:14Z</time>
  <course>172.67</course>
  <speed>18.83614875711062</speed>
  <fix>3d</fix>
</trkpt>
<trkpt lat="-27.2721428" lon="151.2897282">
  <ele>365.06</ele>
  <time>2026-09-01T19:52:14Z</time>
  <course>172.04</course>
  <speed>18.94</speed>
  <fix>3d</fix>
</trkpt>
<trkpt lat="-27.2721916" lon="151.2897356">
  <ele>364.98</ele>
  <time>2026-09-01T19:52:14Z</time>
  <course>172.71</course>
  <speed>18.795158951176763</speed>
  <fix>3d</fix>
</trkpt>
<trkpt lat="-27.2721428" lon="151.2897282">
  <ele>365.06</ele>
  <time>2026-09-01T19:52:14Z</time>
  <course>172.04</course>
  <speed>18.94</speed>
  <fix>3d</fix>
</trkpt>
<trkpt lat="-27.2722082" lon="151.2897382">
  <ele>365.0</ele>
  <time>2026-09-01T19:52:14Z</time>
  <course>172.73</course>
  <speed>18.754170202917535</speed>
  <fix>3d</fix>
</trkpt>
<trkpt lat="-27.2721765" lon="151.2897335">
  <ele>365.14</ele>
  <time>2026-09-01T19:52:14Z</time>
  <course>172.06</course>
  <speed>18.86</speed>
  <fix>3d</fix>
</trkpt>
<trkpt lat="-27.2722248" lon="151.2897408">
  <ele>365.02</ele>
  <time>2026-09-01T19:52:14Z</time>
  <course>172.75</course>
  <speed>18.721736030614252</speed>
  <fix>3d</fix>
</trkpt>
<trkpt lat="-27.2721765" lon="151.2897335">
  <ele>365.14</ele>
  <time>2026-09-01T19:52:14Z</time>
  <course>172.06</course>
  <speed>18.86</speed>
  <fix>3d</fix>
</trkpt>
<trkpt lat="-27.2722414" lon="151.2897434">
  <ele>365.03</ele>
  <time>2026-09-01T19:52:14Z</time>
  <course>172.79</course>
  <speed>18.69201166273978</speed>
  <fix>3d</fix>
</trkpt>
<trkpt lat="-27.27221" lon="151.2897388">
  <ele>365.2</ele>
  <time>2026-09-01T19:52:14Z</time>
  <course>172.08</course>
  <speed>18.79</speed>
  <fix>3d</fix>
</trkpt>
<trkpt lat="-27.272258" lon="151.289746">
  <ele>365.04</ele>
  <time>2026-09-01T19:52:14Z</time>
  <course>172.83</course>
  <speed>18.659587348063194</speed>
  <fix>3d</fix>
</trkpt>
<trkpt lat="-27.27221" lon="151.2897388">
  <ele>365.2</ele>
  <time>2026-09-01T19:52:14Z</time>
  <course>172.08</course>
  <speed>18.79</speed>
  <fix>3d</fix>
</trkpt>
<trkpt lat="-27.2722746" lon="151.2897485">
  <ele>365.04</ele>
  <time>2026-09-01T19:52:14Z</time>
  <course>172.87</course>
  <speed>18.628515775552277</speed>
  <fix>3d</fix>
</trkpt>
<trkpt lat="-27.2722433" lon="151.2897439">
  <ele>365.22</ele>
  <time>2026-09-01T19:52:14Z</time>
  <course>172.12</course>
  <speed>18.73</speed>
  <fix>3d</fix>
</trkpt>
<trkpt lat="-27.2722912" lon="151.2897511">
  <ele>365.04</ele>
  <time>2026-09-01T19:52:14Z</time>
  <course>172.87</course>
  <speed>18.597446061220342</speed>
  <fix>3d</fix>
</trkpt>
<trkpt lat="-27.2722433" lon="151.2897439">
  <ele>365.22</ele>
  <time>2026-09-01T19:52:14Z</time>
  <course>172.12</course>
  <speed>18.73</speed>
  <fix>3d</fix>
</trkpt>
<trkpt lat="-27.2723077" lon="151.2897536">
  <ele>365.03</ele>
  <time>2026-09-01T19:52:14Z</time>
  <course>172.85</course>
  <speed>18.57628864978147</speed>
  <fix>3d</fix>
</trkpt>
<trkpt lat="-27.2722766" lon="151.2897491">
  <ele>365.24</ele>
  <time>2026-09-01T19:52:14Z</time>
  <course>172.15</course>
  <speed>18.67</speed>
  <fix>3d</fix>
</trkpt>
<trkpt lat="-27.2723242" lon="151.2897561">
  <ele>365.03</ele>
  <time>2026-09-01T19:52:14Z</time>
  <course>172.83</course>
  <speed>18.556467875110283</speed>
  <fix>3d</fix>
</trkpt>
<trkpt lat="-27.2722766" lon="151.2897491">
  <ele>365.24</ele>
  <time>2026-09-01T19:52:14Z</time>
  <course>172.15</course>
  <speed>18.67</speed>
  <fix>3d</fix>
</trkpt>
<trkpt lat="-27.2723408" lon="151.2897587">
  <ele>365.01</ele>
  <time>2026-09-01T19:52:14Z</time>
  <course>172.84</course>
  <speed>18.535312244470013</speed>
  <fix>3d</fix>
</trkpt>
<trkpt lat="-27.2723098" lon="151.2897542">
  <ele>365.24</ele>
  <time>2026-09-01T19:52:14Z</time>
  <course>172.18</course>
  <speed>18.62</speed>
  <fix>3d</fix>
</trkpt>
<trkpt lat="-27.2723573" lon="151.2897612">
  <ele>365.0</ele>
  <time>2026-09-01T19:52:14Z</time>
  <course>172.86</course>
  <speed>18.514159446218454</speed>
  <fix>3d</fix>
</trkpt>
<trkpt lat="-27.2723098" lon="151.2897542">
  <ele>365.24</ele>
  <time>2026-09-01T19:52:14Z</time>
  <course>172.18</course>
  <speed>18.62</speed>
  <fix>3d</fix>
</trkpt>
<trkpt lat="-27.2723738" lon="151.2897637">
  <ele>364.98</ele>
  <time>2026-09-01T19:52:14Z</time>
  <course>172.9</course>
  <speed>18.49433697108388</speed>
  <fix>3d</fix>
</trkpt>
<trkpt lat="-27.2723429" lon="151.2897593">
  <ele>365.22</ele>
  <time>2026-09-01T19:52:14Z</time>
  <course>172.2</course>
  <speed>18.58</speed>
  <fix>3d</fix>
</trkpt>
<trkpt lat="-27.2723902" lon="151.2897662">
  <ele>364.96</ele>
  <time>2026-09-01T19:52:14Z</time>
  <course>172.87</course>
  <speed>18.483097684100468</speed>
  <fix>3d</fix>
</trkpt>
<trkpt lat="-27.2723429" lon="151.2897593">
  <ele>365.22</ele>
  <time>2026-09-01T19:52:14Z</time>
  <course>172.2</course>
  <speed>18.58</speed>
  <fix>3d</fix>
</trkpt>
<trkpt lat="-27.2724067" lon="151.2897688">
  <ele>364.94</ele>
  <time>2026-09-01T19:52:14Z</time>
  <course>172.83</course>
  <speed>18.463274357491414</speed>
  <fix>3d</fix>
</trkpt>
<trkpt lat="-27.272376" lon="151.2897644">
  <ele>365.19</ele>
  <time>2026-09-01T19:52:14Z</time>
  <course>172.22</course>
  <speed>18.55</speed>
  <fix>3d</fix>
</trkpt>
<trkpt lat="-27.2724231" lon="151.2897713">
  <ele>364.91</ele>
  <time>2026-09-01T19:52:14Z</time>
  <course>172.83</course>
  <speed>18.45336283716331</speed>
  <fix>3d</fix>
</trkpt>
<trkpt lat="-27.272376" lon="151.2897644">
  <ele>365.19</ele>
  <time>2026-09-01T19:52:14Z</time>
  <course>172.22</course>
  <speed>18.55</speed>
  <fix>3d</fix>
</trkpt>
<trkpt lat="-27.2724396" lon="151.2897738">
  <ele>364.88</ele>
  <time>2026-09-01T19:52:14Z</time>
  <course>172.82</course>
  <speed>18.44345141235772</speed>
  <fix>3d</fix>
</trkpt>
<trkpt lat="-27.2724089" lon="151.2897695">
  <ele>365.14</ele>
  <time>2026-09-01T19:52:14Z</time>
  <course>172.22</course>
  <speed>18.52</speed>
  <fix>3d</fix>
</trkpt>
<trkpt lat="-27.272456" lon="151.2897763">
  <ele>364.85</ele>
  <time>2026-09-01T19:52:14Z</time>
  <course>172.87</course>
  <speed>18.432213648935388</speed>
  <fix>3d</fix>
</trkpt>
<trkpt lat="-27.2724089" lon="151.2897695">
  <ele>365.14</ele>
  <time>2026-09-01T19:52:14Z</time>
  <course>172.22</course>
  <speed>18.52</speed>
  <fix>3d</fix>
</trkpt>
<trkpt lat="-27.2724724" lon="151.2897788">
  <ele>364.82</ele>
  <time>2026-09-01T19:52:14Z</time>
  <course>172.91</course>
  <speed>18.422301702013243</speed>
  <fix>3d</fix>
</trkpt>
<trkpt lat="-27.2724419" lon="151.2897745">
  <ele>365.09</ele>
  <time>2026-09-01T19:52:14Z</time>
  <course>172.22</course>
  <speed>18.49</speed>
  <fix>3d</fix>
</trkpt>
<trkpt lat="-27.2724888" lon="151.2897813">
  <ele>364.78</ele>
  <time>2026-09-01T19:52:14Z</time>
  <course>172.93</course>
  <speed>18.412389850315467</speed>
  <fix>3d</fix>
</trkpt>
<trkpt lat="-27.2724419" lon="151.2897745">
  <ele>365.09</ele>
  <time>2026-09-01T19:52:14Z</time>
  <course>172.22</course>
  <speed>18.49</speed>
  <fix>3d</fix>
</trkpt>
<trkpt lat="-27.2725053" lon="151.2897839">
  <ele>364.75</ele>
  <time>2026-09-01T19:52:14Z</time>
  <course>172.93</course>
  <speed>18.412389850315467</speed>
  <fix>3d</fix>
</trkpt>
<trkpt lat="-27.2724749" lon="151.2897796">
  <ele>365.03</ele>
  <time>2026-09-01T19:52:14Z</time>
  <course>172.21</course>
  <speed>18.48</speed>
  <fix>3d</fix>
</trkpt>
<trkpt lat="-27.2725217" lon="151.2897864">
  <ele>364.71</ele>
  <time>2026-09-01T19:52:14Z</time>
  <course>172.93</course>
  <speed>18.402478093995928</speed>
  <fix>3d</fix>
</trkpt>
<trkpt lat="-27.2724749" lon="151.2897796">
  <ele>365.03</ele>
  <time>2026-09-01T19:52:14Z</time>
  <course>172.21</course>
  <speed>18.48</speed>
  <fix>3d</fix>
</trkpt>
<trkpt lat="-27.2725381" lon="151.2897889">
  <ele>364.68</ele>
  <time>2026-09-01T19:52:14Z</time>
  <course>172.95</course>
  <speed>18.402478093995928</speed>
  <fix>3d</fix>
</trkpt>
<trkpt lat="-27.2725078" lon="151.2897847">
  <ele>364.96</ele>
  <time>2026-09-01T19:52:14Z</time>
  <course>172.21</course>
  <speed>18.46</speed>
  <fix>3d</fix>
</trkpt>
<trkpt lat="-27.2725545" lon="151.2897914">
  <ele>364.64</ele>
  <time>2026-09-01T19:52:14Z</time>
  <course>172.96</course>
  <speed>18.402478093995928</speed>
  <fix>3d</fix>
</trkpt>
<trkpt lat="-27.2725078" lon="151.2897847">
  <ele>364.96</ele>
  <time>2026-09-01T19:52:14Z</time>
  <course>172.21</course>
  <speed>18.46</speed>
  <fix>3d</fix>
</trkpt>
<trkpt lat="-27.2725709" lon="151.2897939">
  <ele>364.6</ele>
  <time>2026-09-01T19:52:14Z</time>
  <course>172.98</course>
  <speed>18.401154855062767</speed>
  <fix>3d</fix>
</trkpt>
<trkpt lat="-27.2725407" lon="151.2897898">
  <ele>364.89</ele>
  <time>2026-09-01T19:52:14Z</time>
  <course>172.21</course>
  <speed>18.46</speed>
  <fix>3d</fix>
</trkpt>
<trkpt lat="-27.2725874" lon="151.2897964">
  <ele>364.57</ele>
  <time>2026-09-01T19:52:14Z</time>
  <course>172.98</course>
  <speed>18.41106732375937</speed>
  <fix>3d</fix>
</trkpt>
<trkpt lat="-27.2725407" lon="151.2897898">
  <ele>364.89</ele>
  <time>2026-09-01T19:52:14Z</time>
  <course>172.21</course>
  <speed>18.46</speed>
  <fix>3d</fix>
</trkpt>
<trkpt lat="-27.2726038" lon="151.289799">
  <ele>364.53</ele>
  <time>2026-09-01T19:52:14Z</time>
  <course>172.93</course>
  <speed>18.41106732375937</speed>
  <fix>3d</fix>
</trkpt>
<trkpt lat="-27.2725735" lon="151.2897948">
  <ele>364.82</ele>
  <time>2026-09-01T19:52:14Z</time>
  <course>172.22</course>
  <speed>18.45</speed>
  <fix>3d</fix>
</trkpt>
<trkpt lat="-27.2726202" lon="151.2898015">
  <ele>364.49</ele>
  <time>2026-09-01T19:52:14Z</time>
  <course>172.88</course>
  <speed>18.41106732375937</speed>
  <fix>3d</fix>
</trkpt>
<trkpt lat="-27.2725735" lon="151.2897948">
  <ele>364.82</ele>
  <time>2026-09-01T19:52:14Z</time>
  <course>172.22</course>
  <speed>18.45</speed>
  <fix>3d</fix>
</trkpt>
<trkpt lat="-27.2726366" lon="151.289804">
  <ele>364.45</ele>
  <time>2026-09-01T19:52:14Z</time>
  <course>172.89</course>
  <speed>18.422301702013243</speed>
  <fix>3d</fix>
</trkpt>
<trkpt lat="-27.2726063" lon="151.2897999">
  <ele>364.74</ele>
  <time>2026-09-01T19:52:14Z</time>
  <course>172.22</course>
  <speed>18.46</speed>
  <fix>3d</fix>
</trkpt>
<trkpt lat="-27.2726531" lon="151.2898065">
  <ele>364.41</ele>
  <time>2026-09-01T19:52:14Z</time>
  <course>172.88</course>
  <speed>18.422301702013243</speed>
  <fix>3d</fix>
</trkpt>
<trkpt lat="-27.2726063" lon="151.2897999">
  <ele>364.74</ele>
  <time>2026-09-01T19:52:14Z</time>
  <course>172.22</course>
  <speed>18.46</speed>
  <fix>3d</fix>
</trkpt>
<trkpt lat="-27.2726695" lon="151.2898091">
  <ele>364.37</ele>
  <time>2026-09-01T19:52:14Z</time>
  <course>172.88</course>
  <speed>18.432213648935388</speed>
  <fix>3d</fix>
</trkpt>
<trkpt lat="-27.2726392" lon="151.2898049">
  <ele>364.66</ele>
  <time>2026-09-01T19:52:14Z</time>
  <course>172.21</course>
  <speed>18.47</speed>
  <fix>3d</fix>
</trkpt>
<trkpt lat="-27.2726858" lon="151.2898116">
  <ele>364.33</ele>
  <time>2026-09-01T19:52:14Z</time>
  <course>172.91</course>
  <speed>18.43354008322872</speed>
  <fix>3d</fix>
</trkpt>
<trkpt lat="-27.2726392" lon="151.2898049">
  <ele>364.66</ele>
  <time>2026-09-01T19:52:14Z</time>
  <course>172.21</course>
  <speed>18.47</speed>
  <fix>3d</fix>
</trkpt>
<trkpt lat="-27.2727023" lon="151.2898141">
  <ele>364.29</ele>
  <time>2026-09-01T19:52:14Z</time>
  <course>172.92</course>
  <speed>18.44345141235772</speed>
  <fix>3d</fix>
</trkpt>
<trkpt lat="-27.2726721" lon="151.28981">
  <ele>364.58</ele>
  <time>2026-09-01T19:52:14Z</time>
  <course>172.2</course>
  <speed>18.48</speed>
  <fix>3d</fix>
</trkpt>
<trkpt lat="-27.2727187" lon="151.2898166">
  <ele>364.26</ele>
  <time>2026-09-01T19:52:14Z</time>
  <course>172.95</course>
  <speed>18.44345141235772</speed>
  <fix>3d</fix>
</trkpt>
<trkpt lat="-27.2726721" lon="151.28981">
  <ele>364.58</ele>
  <time>2026-09-01T19:52:14Z</time>
  <course>172.2</course>
  <speed>18.48</speed>
  <fix>3d</fix>
</trkpt>
<trkpt lat="-27.2727352" lon="151.2898192">
  <ele>364.22</ele>
  <time>2026-09-01T19:52:14Z</time>
  <course>172.94</course>
  <speed>18.45336283716331</speed>
  <fix>3d</fix>
</trkpt>
<trkpt lat="-27.2727049" lon="151.289815">
  <ele>364.5</ele>
  <time>2026-09-01T19:52:14Z</time>
  <course>172.19</course>
  <speed>18.49</speed>
  <fix>3d</fix>
</trkpt>
<trkpt lat="-27.2727519" lon="151.2898217">
  <ele>364.18</ele>
  <time>2026-09-01T19:52:14Z</time>
  <course>172.94</course>
  <speed>18.463274357491414</speed>
  <fix>3d</fix>
</trkpt>
<trkpt lat="-27.2727049" lon="151.289815">
  <ele>364.5</ele>
  <time>2026-09-01T19:52:14Z</time>
  <course>172.19</course>
  <speed>18.49</speed>
  <fix>3d</fix>
</trkpt>
<trkpt lat="-27.2727684" lon="151.2898243">
  <ele>364.14</ele>
  <time>2026-09-01T19:52:14Z</time>
  <course>172.95</course>
  <speed>18.473185973188276</speed>
  <fix>3d</fix>
</trkpt>
<trkpt lat="-27.2727379" lon="151.2898201">
  <ele>364.43</ele>
  <time>2026-09-01T19:52:14Z</time>
  <course>172.2</course>
  <speed>18.5</speed>
  <fix>3d</fix>
</trkpt>
<trkpt lat="-27.2727849" lon="151.2898268">
  <ele>364.11</ele>
  <time>2026-09-01T19:52:14Z</time>
  <course>172.98</course>
  <speed>18.471862385801817</speed>
  <fix>3d</fix>
</trkpt>
<trkpt lat="-27.2727379" lon="151.2898201">
  <ele>364.43</ele>
  <time>2026-09-01T19:52:14Z</time>
  <course>172.2</course>
  <speed>18.5</speed>
  <fix>3d</fix>
</trkpt>
<trkpt lat="-27.2728014" lon="151.2898293">
  <ele>364.07</ele>
  <time>2026-09-01T19:52:14Z</time>
  <course>172.96</course>
  <speed>18.491687321604807</speed>
  <fix>3d</fix>
</trkpt>
<trkpt lat="-27.2727708" lon="151.2898252">
  <ele>364.35</ele>
  <time>2026-09-01T19:52:14Z</time>
  <course>172.2</course>
  <speed>18.51</speed>
  <fix>3d</fix>
</trkpt>
<trkpt lat="-27.2728179" lon="151.2898319">
  <ele>364.03</ele>
  <time>2026-09-01T19:52:14Z</time>
  <course>172.96</course>
  <speed>18.501599930816795</speed>
  <fix>3d</fix>
</trkpt>
<trkpt lat="-27.2727708" lon="151.2898252">
  <ele>364.35</ele>
  <time>2026-09-01T19:52:14Z</time>
  <course>172.2</course>
  <speed>18.51</speed>
  <fix>3d</fix>
</trkpt>
<trkpt lat="-27.2728344" lon="151.2898344">
  <ele>363.99</ele>
  <time>2026-09-01T19:52:14Z</time>
  <course>172.96</course>
  <speed>18.511512634033988</speed>
  <fix>3d</fix>
</trkpt>
<trkpt lat="-27.2728038" lon="151.2898302">
  <ele>364.28</ele>
  <time>2026-09-01T19:52:14Z</time>
  <course>172.21</course>
  <speed>18.53</speed>
  <fix>3d</fix>
</trkpt>
<trkpt lat="-27.272851" lon="151.2898369">
  <ele>363.95</ele>
  <time>2026-09-01T19:52:14Z</time>
  <course>172.96</course>
  <speed>18.531338321880586</speed>
  <fix>3d</fix>
</trkpt>
<trkpt lat="-27.2728038" lon="151.2898302">
  <ele>364.28</ele>
  <time>2026-09-01T19:52:14Z</time>
  <course>172.21</course>
  <speed>18.53</speed>
  <fix>3d</fix>
</trkpt>
<trkpt lat="-27.2728676" lon="151.2898395">
  <ele>363.91</ele>
  <time>2026-09-01T19:52:14Z</time>
  <course>172.96</course>
  <speed>18.541251306209084</speed>
  <fix>3d</fix>
</trkpt>
<trkpt lat="-27.2728369" lon="151.2898353">
  <ele>364.2</ele>
  <time>2026-09-01T19:52:14Z</time>
  <course>172.24</course>
  <speed>18.55</speed>
  <fix>3d</fix>
</trkpt>
<trkpt lat="-27.2728841" lon="151.289842">
  <ele>363.88</ele>
  <time>2026-09-01T19:52:14Z</time>
  <course>172.99</course>
  <speed>18.55116438394097</speed>
  <fix>3d</fix>
</trkpt>
<trkpt lat="-27.2728369" lon="151.2898353">
  <ele>364.2</ele>
  <time>2026-09-01T19:52:14Z</time>
  <course>172.24</course>
  <speed>18.55</speed>
  <fix>3d</fix>
</trkpt>
<trkpt lat="-27.2729008" lon="151.2898445">
  <ele>363.84</ele>
  <time>2026-09-01T19:52:14Z</time>
  <course>173.03</course>
  <speed>18.570990819016632</speed>
  <fix>3d</fix>
</trkpt>
<trkpt lat="-27.2728699" lon="151.2898404">
  <ele>364.12</ele>
  <time>2026-09-01T19:52:14Z</time>
  <course>172.25</course>
  <speed>18.57</speed>
  <fix>3d</fix>
</trkpt>
<trkpt lat="-27.2729174" lon="151.2898471">
  <ele>363.8</ele>
  <time>2026-09-01T19:52:15Z</time>
  <course>173.02</course>
  <speed>18.590817625914145</speed>
  <fix>3d</fix>
</trkpt>
<trkpt lat="-27.2728699" lon="151.2898404">
  <ele>364.12</ele>
  <time>2026-09-01T19:52:15Z</time>
  <course>172.25</course>
  <speed>18.57</speed>
  <fix>3d</fix>
</trkpt>
<trkpt lat="-27.272934" lon="151.2898496">
  <ele>363.77</ele>
  <time>2026-09-01T19:52:15Z</time>
  <course>173.03</course>
  <speed>18.61064480344515</speed>
  <fix>3d</fix>
</trkpt>
<trkpt lat="-27.272903" lon="151.2898454">
  <ele>364.05</ele>
  <time>2026-09-01T19:52:15Z</time>
  <course>172.27</course>
  <speed>18.59</speed>
  <fix>3d</fix>
</trkpt>
<trkpt lat="-27.2729507" lon="151.2898521">
  <ele>363.73</ele>
  <time>2026-09-01T19:52:15Z</time>
  <course>173.03</course>
  <speed>18.61925079051249</speed>
  <fix>3d</fix>
</trkpt>
<trkpt lat="-27.272903" lon="151.2898454">
  <ele>364.05</ele>
  <time>2026-09-01T19:52:15Z</time>
  <course>172.27</course>
  <speed>18.59</speed>
  <fix>3d</fix>
</trkpt>
<trkpt lat="-27.2729674" lon="151.2898547">
  <ele>363.7</ele>
  <time>2026-09-01T19:52:15Z</time>
  <course>173.04</course>
  <speed>18.640386262092317</speed>
  <fix>3d</fix>
</trkpt>
<trkpt lat="-27.2729361" lon="151.2898505">
  <ele>363.97</ele>
  <time>2026-09-01T19:52:15Z</time>
  <course>172.29</course>
  <speed>18.62</speed>
  <fix>3d</fix>
</trkpt>
<trkpt lat="-27.2729841" lon="151.2898572">
  <ele>363.66</ele>
  <time>2026-09-01T19:52:15Z</time>
  <course>173.06</course>
  <speed>18.660214361040982</speed>
  <fix>3d</fix>
</trkpt>
<trkpt lat="-27.2729361" lon="151.2898505">
  <ele>363.97</ele>
  <time>2026-09-01T19:52:15Z</time>
  <course>172.29</course>
  <speed>18.62</speed>
  <fix>3d</fix>
</trkpt>
<trkpt lat="-27.2730007" lon="151.2898597">
  <ele>363.63</ele>
  <time>2026-09-01T19:52:15Z</time>
  <course>173.07</course>
  <speed>18.670128548030945</speed>
  <fix>3d</fix>
</trkpt>
<trkpt lat="-27.2729693" lon="151.2898555">
  <ele>363.9</ele>
  <time>2026-09-01T19:52:15Z</time>
  <course>172.3</course>
  <speed>18.65</speed>
  <fix>3d</fix>
</trkpt>
<trkpt lat="-27.2730174" lon="151.2898623">
  <ele>363.59</ele>
  <time>2026-09-01T19:52:15Z</time>
  <course>173.09</course>
  <speed>18.688654312175608</speed>
  <fix>3d</fix>
</trkpt>
<trkpt lat="-27.2729693" lon="151.2898555">
  <ele>363.9</ele>
  <time>2026-09-01T19:52:15Z</time>
  <course>172.3</course>
  <speed>18.65</speed>
  <fix>3d</fix>
</trkpt>
<trkpt lat="-27.273034" lon="151.2898648">
  <ele>363.56</ele>
  <time>2026-09-01T19:52:15Z</time>
  <course>173.13</course>
  <speed>18.70848470614336</speed>
  <fix>3d</fix>
</trkpt>
<trkpt lat="-27.2730025" lon="151.2898606">
  <ele>363.84</ele>
  <time>2026-09-01T19:52:15Z</time>
  <course>172.32</course>
  <speed>18.67</speed>
  <fix>3d</fix>
</trkpt>
<trkpt lat="-27.2730507" lon="151.2898673">
  <ele>363.52</ele>
  <time>2026-09-01T19:52:15Z</time>
  <course>173.14</course>
  <speed>18.72831546082028</speed>
  <fix>3d</fix>
</trkpt>
<trkpt lat="-27.2730025" lon="151.2898606">
  <ele>363.84</ele>
  <time>2026-09-01T19:52:15Z</time>
  <course>172.32</course>
  <speed>18.67</speed>
  <fix>3d</fix>
</trkpt>
<trkpt lat="-27.2730674" lon="151.2898698">
  <ele>363.49</ele>
  <time>2026-09-01T19:52:15Z</time>
  <course>173.16</course>
  <speed>18.738230973066802</speed>
  <fix>3d</fix>
</trkpt>
<trkpt lat="-27.2730358" lon="151.2898656">
  <ele>363.78</ele>
  <time>2026-09-01T19:52:15Z</time>
  <course>172.34</course>
  <speed>18.7</speed>
  <fix>3d</fix>
</trkpt>
<trkpt lat="-27.2730842" lon="151.2898724">
  <ele>363.46</ele>
  <time>2026-09-01T19:52:15Z</time>
  <course>173.15</course>
  <speed>18.759360330245805</speed>
  <fix>3d</fix>
</trkpt>
<trkpt lat="-27.2730358" lon="151.2898656">
  <ele>363.78</ele>
  <time>2026-09-01T19:52:15Z</time>
  <course>172.34</course>
  <speed>18.7</speed>
  <fix>3d</fix>
</trkpt>
<trkpt lat="-27.2731011" lon="151.2898749">
  <ele>363.43</ele>
  <time>2026-09-01T19:52:15Z</time>
  <course>173.14</course>
  <speed>18.769275425545867</speed>
  <fix>3d</fix>
</trkpt>
<trkpt lat="-27.2730691" lon="151.2898707">
  <ele>363.72</ele>
  <time>2026-09-01T19:52:15Z</time>
  <course>172.35</course>
  <speed>18.73</speed>
  <fix>3d</fix>
</trkpt>
<trkpt lat="-27.2731178" lon="151.2898774">
  <ele>363.41</ele>
  <time>2026-09-01T19:52:15Z</time>
  <course>173.16</course>
  <speed>18.789105886124545</speed>
  <fix>3d</fix>
</trkpt>
<trkpt lat="-27.2730691" lon="151.2898707">
  <ele>363.72</ele>
  <time>2026-09-01T19:52:15Z</time>
  <course>172.35</course>
  <speed>18.73</speed>
  <fix>3d</fix>
</trkpt>
<trkpt lat="-27.2731346" lon="151.28988">
  <ele>363.38</ele>
  <time>2026-09-01T19:52:15Z</time>
  <course>173.18</course>
  <speed>18.79902125111837</speed>
  <fix>3d</fix>
</trkpt>
<trkpt lat="-27.2731025" lon="151.2898757">
  <ele>363.66</ele>
  <time>2026-09-01T19:52:15Z</time>
  <course>172.35</course>
  <speed>18.76</speed>
  <fix>3d</fix>
</trkpt>
<trkpt lat="-27.2731513" lon="151.2898825">
  <ele>363.35</ele>
  <time>2026-09-01T19:52:15Z</time>
  <course>173.18</course>
  <speed>18.80893670572582</speed>
  <fix>3d</fix>
</trkpt>
<trkpt lat="-27.2731025" lon="151.2898757">
  <ele>363.66</ele>
  <time>2026-09-01T19:52:15Z</time>
  <course>172.35</course>
  <speed>18.76</speed>
  <fix>3d</fix>
</trkpt>
<trkpt lat="-27.2731681" lon="151.289885">
  <ele>363.31</ele>
  <time>2026-09-01T19:52:15Z</time>
  <course>173.15</course>
  <speed>18.83006638331368</speed>
  <fix>3d</fix>
</trkpt>
<trkpt lat="-27.273136" lon="151.2898808">
  <ele>363.6</ele>
  <time>2026-09-01T19:52:15Z</time>
  <course>172.35</course>
  <speed>18.79</speed>
  <fix>3d</fix>
</trkpt>
<trkpt lat="-27.2731849" lon="151.2898876">
  <ele>363.27</ele>
  <time>2026-09-01T19:52:15Z</time>
  <course>173.15</course>
  <speed>18.839981422496148</speed>
  <fix>3d</fix>
</trkpt>
<trkpt lat="-27.273136" lon="151.2898808">
  <ele>363.6</ele>
  <time>2026-09-01T19:52:15Z</time>
  <course>172.35</course>
  <speed>18.79</speed>
  <fix>3d</fix>
</trkpt>
<trkpt lat="-27.2732018" lon="151.2898901">
  <ele>363.23</ele>
  <time>2026-09-01T19:52:15Z</time>
  <course>173.14</course>
  <speed>18.85981177000449</speed>
  <fix>3d</fix>
</trkpt>
<trkpt lat="-27.2731695" lon="151.2898858">
  <ele>363.53</ele>
  <time>2026-09-01T19:52:15Z</time>
  <course>172.36</course>
  <speed>18.82</speed>
  <fix>3d</fix>
</trkpt>
<trkpt lat="-27.2732187" lon="151.2898927">
  <ele>363.19</ele>
  <time>2026-09-01T19:52:15Z</time>
  <course>173.15</course>
  <speed>18.869727078047525</speed>
  <fix>3d</fix>
</trkpt>
<trkpt lat="-27.2731695" lon="151.2898858">
  <ele>363.53</ele>
  <time>2026-09-01T19:52:15Z</time>
  <course>172.36</course>
  <speed>18.82</speed>
  <fix>3d</fix>
</trkpt>
<trkpt lat="-27.2732355" lon="151.2898952">
  <ele>363.13</ele>
  <time>2026-09-01T19:52:15Z</time>
  <course>173.17</course>
  <speed>18.889557962006414</speed>
  <fix>3d</fix>
</trkpt>
<trkpt lat="-27.273203" lon="151.2898909">
  <ele>363.45</ele>
  <time>2026-09-01T19:52:15Z</time>
  <course>172.37</course>
  <speed>18.84</speed>
  <fix>3d</fix>
</trkpt>
<trkpt lat="-27.2732523" lon="151.2898977">
  <ele>363.07</ele>
  <time>2026-09-01T19:52:15Z</time>
  <course>173.2</course>
  <speed>18.8994735376412</speed>
  <fix>3d</fix>
</trkpt>
<trkpt lat="-27.273203" lon="151.2898909">
  <ele>363.45</ele>
  <time>2026-09-01T19:52:15Z</time>
  <course>172.37</course>
  <speed>18.84</speed>
  <fix>3d</fix>
</trkpt>
<trkpt lat="-27.2732692" lon="151.2899003">
  <ele>363.01</ele>
  <time>2026-09-01T19:52:15Z</time>
  <course>173.19</course>
  <speed>18.91930495552096</speed>
  <fix>3d</fix>
</trkpt>
<trkpt lat="-27.2732367" lon="151.2898959">
  <ele>363.35</ele>
  <time>2026-09-01T19:52:15Z</time>
  <course>172.38</course>
  <speed>18.87</speed>
  <fix>3d</fix>
</trkpt>
<trkpt lat="-27.2732861" lon="151.2899028">
  <ele>362.94</ele>
  <time>2026-09-01T19:52:15Z</time>
  <course>173.19</course>
  <speed>18.939136727950405</speed>
  <fix>3d</fix>
</trkpt>
<trkpt lat="-27.2732367" lon="151.2898959">
  <ele>363.35</ele>
  <time>2026-09-01T19:52:15Z</time>
  <course>172.38</course>
  <speed>18.87</speed>
  <fix>3d</fix>
</trkpt>
<trkpt lat="-27.273303" lon="151.2899054">
  <ele>362.86</ele>
  <time>2026-09-01T19:52:15Z</time>
  <course>173.15</course>
  <speed>18.95896885381692</speed>
  <fix>3d</fix>
</trkpt>
<trkpt lat="-27.2732703" lon="151.2899009">
  <ele>363.22</ele>
  <time>2026-09-01T19:52:15Z</time>
  <course>172.39</course>
  <speed>18.9</speed>
  <fix>3d</fix>
</trkpt>
<trkpt lat="-27.2733199" lon="151.2899079">
  <ele>362.77</ele>
  <time>2026-09-01T19:52:15Z</time>
  <course>173.13</course>
  <speed>18.978801332012516</speed>
  <fix>3d</fix>
</trkpt>
<trkpt lat="-27.2732703" lon="151.2899009">
  <ele>363.22</ele>
  <time>2026-09-01T19:52:15Z</time>
  <course>172.39</course>
  <speed>18.9</speed>
  <fix>3d</fix>
</trkpt>
<trkpt lat="-27.2733369" lon="151.2899104">
  <ele>362.69</ele>
  <time>2026-09-01T19:52:15Z</time>
  <course>173.13</course>
  <speed>19.009842187666894</speed>
  <fix>3d</fix>
</trkpt>
<trkpt lat="-27.2733039" lon="151.289906">
  <ele>363.08</ele>
  <time>2026-09-01T19:52:15Z</time>
  <course>172.4</course>
  <speed>18.94</speed>
  <fix>3d</fix>
</trkpt>
<trkpt lat="-27.2733538" lon="151.289913">
  <ele>362.59</ele>
  <time>2026-09-01T19:52:15Z</time>
  <course>173.17</course>
  <speed>19.01975814777885</speed>
  <fix>3d</fix>
</trkpt>
<trkpt lat="-27.2733039" lon="151.289906">
  <ele>363.08</ele>
  <time>2026-09-01T19:52:15Z</time>
  <course>172.4</course>
  <speed>18.94</speed>
  <fix>3d</fix>
</trkpt>
<trkpt lat="-27.2733708" lon="151.2899155">
  <ele>362.5</ele>
  <time>2026-09-01T19:52:15Z</time>
  <course>173.2</course>
  <speed>18.98009483643325</speed>
  <fix>3d</fix>
</trkpt>
<trkpt lat="-27.2733378" lon="151.2899111">
  <ele>362.9</ele>
  <time>2026-09-01T19:52:15Z</time>
  <course>172.4</course>
  <speed>18.98</speed>
  <fix>3d</fix>
</trkpt>
<trkpt lat="-27.2733875" lon="151.289918">
  <ele>362.41</ele>
  <time>2026-09-01T19:52:15Z</time>
  <course>173.21</course>
  <speed>18.898179806531633</speed>
  <fix>3d</fix>
</trkpt>
<trkpt lat="-27.2733378" lon="151.2899111">
  <ele>362.9</ele>
  <time>2026-09-01T19:52:15Z</time>
  <course>172.4</course>
  <speed>18.98</speed>
  <fix>3d</fix>
</trkpt>
<trkpt lat="-27.2734043" lon="151.2899205">
  <ele>362.33</ele>
  <time>2026-09-01T19:52:15Z</time>
  <course>173.21</course>
  <speed>18.797725926292255</speed>
  <fix>3d</fix>
</trkpt>
<trkpt lat="-27.2733715" lon="151.2899162">
  <ele>362.72</ele>
  <time>2026-09-01T19:52:15Z</time>
  <course>172.41</course>
  <speed>18.94</speed>
  <fix>3d</fix>
</trkpt>
<trkpt lat="-27.273421" lon="151.289923">
  <ele>362.26</ele>
  <time>2026-09-01T19:52:15Z</time>
  <course>173.23</course>
  <speed>18.695980851509233</speed>
  <fix>3d</fix>
</trkpt>
<trkpt lat="-27.2733715" lon="151.2899162">
  <ele>362.72</ele>
  <time>2026-09-01T19:52:15Z</time>
  <course>172.41</course>
  <speed>18.94</speed>
  <fix>3d</fix>
</trkpt>
<trkpt lat="-27.2734376" lon="151.2899255">
  <ele>362.2</ele>
  <time>2026-09-01T19:52:15Z</time>
  <course>173.24</course>
  <speed>18.595526343720415</speed>
  <fix>3d</fix>
</trkpt>
<trkpt lat="-27.2734051" lon="151.2899211">
  <ele>362.55</ele>
  <time>2026-09-01T19:52:15Z</time>
  <course>172.42</course>
  <speed>18.78</speed>
  <fix>3d</fix>
</trkpt>
<trkpt lat="-27.2734543" lon="151.289928">
  <ele>362.14</ele>
  <time>2026-09-01T19:52:15Z</time>
  <course>173.25</course>
  <speed>18.483865937622465</speed>
  <fix>3d</fix>
</trkpt>
<trkpt lat="-27.2734051" lon="151.2899211">
  <ele>362.55</ele>
  <time>2026-09-01T19:52:15Z</time>
  <course>172.42</course>
  <speed>18.78</speed>
  <fix>3d</fix>
</trkpt>
<trkpt lat="-27.2734707" lon="151.2899305">
  <ele>362.09</ele>
  <time>2026-09-01T19:52:15Z</time>
  <course>173.29</course>
  <speed>18.383411000138143</speed>
  <fix>3d</fix>
</trkpt>
<trkpt lat="-27.2734383" lon="151.2899262">
  <ele>362.41</ele>
  <time>2026-09-01T19:52:15Z</time>
  <course>172.44</course>
  <speed>18.58</speed>
  <fix>3d</fix>
</trkpt>
<trkpt lat="-27.273487" lon="151.2899329">
  <ele>362.05</ele>
  <time>2026-09-01T19:52:15Z</time>
  <course>173.31</course>
  <speed>18.27175142125133</speed>
  <fix>3d</fix>
</trkpt>
<trkpt lat="-27.2734383" lon="151.2899262">
  <ele>362.41</ele>
  <time>2026-09-01T19:52:15Z</time>
  <course>172.44</course>
  <speed>18.58</speed>
  <fix>3d</fix>
</trkpt>
<trkpt lat="-27.2735032" lon="151.2899353">
  <ele>362.02</ele>
  <time>2026-09-01T19:52:15Z</time>
  <course>173.33</course>
  <speed>18.170011007151317</speed>
  <fix>3d</fix>
</trkpt>
<trkpt lat="-27.2734713" lon="151.2899311">
  <ele>362.31</ele>
  <time>2026-09-01T19:52:15Z</time>
  <course>172.47</course>
  <speed>18.37</speed>
  <fix>3d</fix>
</trkpt>
<trkpt lat="-27.2735194" lon="151.2899377">
  <ele>361.99</ele>
  <time>2026-09-01T19:52:15Z</time>
  <course>173.35</course>
  <speed>18.058355406846992</speed>
  <fix>3d</fix>
</trkpt>
<trkpt lat="-27.2734713" lon="151.2899311">
  <ele>362.31</ele>
  <time>2026-09-01T19:52:15Z</time>
  <course>172.47</course>
  <speed>18.37</speed>
  <fix>3d</fix>
</trkpt>
<trkpt lat="-27.2735354" lon="151.2899401">
  <ele>361.96</ele>
  <time>2026-09-01T19:52:15Z</time>
  <course>173.37</course>
  <speed>17.936783435164735</speed>
  <fix>3d</fix>
</trkpt>
<trkpt lat="-27.2735039" lon="151.2899359">
  <ele>362.23</ele>
  <time>2026-09-01T19:52:15Z</time>
  <course>172.5</course>
  <speed>18.16</speed>
  <fix>3d</fix>
</trkpt>
<trkpt lat="-27.2735513" lon="151.2899425">
  <ele>361.94</ele>
  <time>2026-09-01T19:52:15Z</time>
  <course>173.39</course>
  <speed>17.76562129507437</speed>
  <fix>3d</fix>
</trkpt>
<trkpt lat="-27.2735039" lon="151.2899359">
  <ele>362.23</ele>
  <time>2026-09-01T19:52:15Z</time>
  <course>172.5</course>
  <speed>18.16</speed>
  <fix>3d</fix>
</trkpt>
<trkpt lat="-27.2735671" lon="151.2899448">
  <ele>361.93</ele>
  <time>2026-09-01T19:52:15Z</time>
  <course>173.42</course>
  <speed>17.583264770798397</speed>
  <fix>3d</fix>
</trkpt>
<trkpt lat="-27.2735361" lon="151.2899406">
  <ele>362.18</ele>
  <time>2026-09-01T19:52:15Z</time>
  <course>172.54</course>
  <speed>17.91</speed>
  <fix>3d</fix>
</trkpt>
<trkpt lat="-27.2735826" lon="151.2899471">
  <ele>361.92</ele>
  <time>2026-09-01T19:52:15Z</time>
  <course>173.45</course>
  <speed>17.379804371741358</speed>
  <fix>3d</fix>
</trkpt>
<trkpt lat="-27.2735361" lon="151.2899406">
  <ele>362.18</ele>
  <time>2026-09-01T19:52:15Z</time>
  <course>172.54</course>
  <speed>17.91</speed>
  <fix>3d</fix>
</trkpt>
<trkpt lat="-27.273598" lon="151.2899493">
  <ele>361.92</ele>
  <time>2026-09-01T19:52:15Z</time>
  <course>173.49</course>
  <speed>17.17761624906087</speed>
  <fix>3d</fix>
</trkpt>
<trkpt lat="-27.2735677" lon="151.2899453">
  <ele>362.15</ele>
  <time>2026-09-01T19:52:15Z</time>
  <course>172.59</course>
  <speed>17.57</speed>
  <fix>3d</fix>
</trkpt>
<trkpt lat="-27.2736133" lon="151.2899515">
  <ele>361.94</ele>
  <time>2026-09-01T19:52:15Z</time>
  <course>173.53</course>
  <speed>16.964250646580297</speed>
  <fix>3d</fix>
</trkpt>
<trkpt lat="-27.2735677" lon="151.2899453">
  <ele>362.15</ele>
  <time>2026-09-01T19:52:15Z</time>
  <course>172.59</course>
  <speed>17.57</speed>
  <fix>3d</fix>
</trkpt>
<trkpt lat="-27.2736283" lon="151.2899537">
  <ele>361.96</ele>
  <time>2026-09-01T19:52:15Z</time>
  <course>173.58</course>
  <speed>16.750895498450223</speed>
  <fix>3d</fix>
</trkpt>
<trkpt lat="-27.2735987" lon="151.2899497">
  <ele>362.15</ele>
  <time>2026-09-01T19:52:15Z</time>
  <course>172.67</course>
  <speed>17.17</speed>
  <fix>3d</fix>
</trkpt>
<trkpt lat="-27.2736431" lon="151.2899558">
  <ele>362.0</ele>
  <time>2026-09-01T19:52:15Z</time>
  <course>173.62</course>
  <speed>16.538793789149196</speed>
  <fix>3d</fix>
</trkpt>
<trkpt lat="-27.2735987" lon="151.2899497">
  <ele>362.15</ele>
  <time>2026-09-01T19:52:15Z</time>
  <course>172.67</course>
  <speed>17.17</speed>
  <fix>3d</fix>
</trkpt>
<trkpt lat="-27.2736579" lon="151.2899579">
  <ele>362.03</ele>
  <time>2026-09-01T19:52:15Z</time>
  <course>173.66</course>
  <speed>16.346537859742654</speed>
  <fix>3d</fix>
</trkpt>
<trkpt lat="-27.2736289" lon="151.2899541">
  <ele>362.19</ele>
  <time>2026-09-01T19:52:15Z</time>
  <course>172.74</course>
  <speed>16.75</speed>
  <fix>3d</fix>
</trkpt>
<trkpt lat="-27.2736724" lon="151.28996">
  <ele>362.05</ele>
  <time>2026-09-01T19:52:15Z</time>
  <course>173.69</course>
  <speed>16.15428426145832</speed>
  <fix>3d</fix>
</trkpt>
<trkpt lat="-27.2736289" lon="151.2899541">
  <ele>362.19</ele>
  <time>2026-09-01T19:52:15Z</time>
  <course>172.74</course>
  <speed>16.75</speed>
  <fix>3d</fix>
</trkpt>
<trkpt lat="-27.2736867" lon="151.289962">
  <ele>362.06</ele>
  <time>2026-09-01T19:52:15Z</time>
  <course>173.72</course>
  <speed>15.981880364963317</speed>
  <fix>3d</fix>
</trkpt>
<trkpt lat="-27.2736583" lon="151.2899583">
  <ele>362.25</ele>
  <time>2026-09-01T19:52:15Z</time>
  <course>172.82</course>
  <speed>16.35</speed>
  <fix>3d</fix>
</trkpt>
<trkpt lat="-27.2737009" lon="151.289964">
  <ele>362.05</ele>
  <time>2026-09-01T19:52:15Z</time>
  <course>173.75</course>
  <speed>15.809481332415684</speed>
  <fix>3d</fix>
</trkpt>
<trkpt lat="-27.2736583" lon="151.2899583">
  <ele>362.25</ele>
  <time>2026-09-01T19:52:15Z</time>
  <course>172.82</course>
  <speed>16.35</speed>
  <fix>3d</fix>
</trkpt>
<trkpt lat="-27.2737148" lon="151.289966">
  <ele>362.04</ele>
  <time>2026-09-01T19:52:15Z</time>
  <course>173.78</course>
  <speed>15.6581608115385</speed>
  <fix>3d</fix>
</trkpt>
<trkpt lat="-27.2736871" lon="151.2899623">
  <ele>362.28</ele>
  <time>2026-09-01T19:52:15Z</time>
  <course>172.88</course>
  <speed>15.99</speed>
  <fix>3d</fix>
</trkpt>
<trkpt lat="-27.2737287" lon="151.2899679">
  <ele>362.01</ele>
  <time>2026-09-01T19:52:15Z</time>
  <course>173.81</course>
  <speed>15.505618336590128</speed>
  <fix>3d</fix>
</trkpt>
<trkpt lat="-27.2736871" lon="151.2899623">
  <ele>362.28</ele>
  <time>2026-09-01T19:52:15Z</time>
  <course>172.88</course>
  <speed>15.99</speed>
  <fix>3d</fix>
</trkpt>
<trkpt lat="-27.2737424" lon="151.2899699">
  <ele>361.98</ele>
  <time>2026-09-01T19:52:15Z</time>
  <course>173.84</course>
  <speed>15.364224679429809</speed>
  <fix>3d</fix>
</trkpt>
<trkpt lat="-27.2737153" lon="151.2899663">
  <ele>362.27</ele>
  <time>2026-09-01T19:52:15Z</time>
  <course>172.94</course>
  <speed>15.66</speed>
  <fix>3d</fix>
</trkpt>
<trkpt lat="-27.2737561" lon="151.2899718">
  <ele>361.94</ele>
  <time>2026-09-01T19:52:15Z</time>
  <course>173.87</course>
  <speed>15.232757465409867</speed>
  <fix>3d</fix>
</trkpt>
<trkpt lat="-27.2737153" lon="151.2899663">
  <ele>362.27</ele>
  <time>2026-09-01T19:52:15Z</time>
  <course>172.94</course>
  <speed>15.66</speed>
  <fix>3d</fix>
</trkpt>
<trkpt lat="-27.2737697" lon="151.2899736">
  <ele>361.89</ele>
  <time>2026-09-01T19:52:15Z</time>
  <course>173.91</course>
  <speed>15.100082781230041</speed>
  <fix>3d</fix>
</trkpt>
<trkpt lat="-27.273743" lon="151.2899702">
  <ele>362.21</ele>
  <time>2026-09-01T19:52:15Z</time>
  <course>172.99</course>
  <speed>15.37</speed>
  <fix>3d</fix>
</trkpt>
<trkpt lat="-27.2737831" lon="151.2899755">
  <ele>361.83</ele>
  <time>2026-09-01T19:52:15Z</time>
  <course>173.94</course>
  <speed>14.968620510922173</speed>
  <fix>3d</fix>
</trkpt>
<trkpt lat="-27.273743" lon="151.2899702">
  <ele>362.21</ele>
  <time>2026-09-01T19:52:15Z</time>
  <course>172.99</course>
  <speed>15.37</speed>
  <fix>3d</fix>
</trkpt>
<trkpt lat="-27.2737964" lon="151.2899773">
  <ele>361.77</ele>
  <time>2026-09-01T19:52:15Z</time>
  <course>173.97</course>
  <speed>14.847087256428447</speed>
  <fix>3d</fix>
</trkpt>
<trkpt lat="-27.2737702" lon="151.2899739">
  <ele>362.12</ele>
  <time>2026-09-01T19:52:15Z</time>
  <course>173.04</course>
  <speed>15.1</speed>
  <fix>3d</fix>
</trkpt>
<trkpt lat="-27.2738096" lon="151.2899791">
  <ele>361.71</ele>
  <time>2026-09-01T19:52:15Z</time>
  <course>173.99</course>
  <speed>14.735484382944458</speed>
  <fix>3d</fix>
</trkpt>
<trkpt lat="-27.2737702" lon="151.2899739">
  <ele>362.12</ele>
  <time>2026-09-01T19:52:15Z</time>
  <course>173.04</course>
  <speed>15.1</speed>
  <fix>3d</fix>
</trkpt>
<trkpt lat="-27.2738227" lon="151.2899809">
  <ele>361.65</ele>
  <time>2026-09-01T19:52:15Z</time>
  <course>174.02</course>
  <speed>14.613955658889894</speed>
  <fix>3d</fix>
</trkpt>
<trkpt lat="-27.273797" lon="151.2899775">
  <ele>362.01</ele>
  <time>2026-09-01T19:52:15Z</time>
  <course>173.08</course>
  <speed>14.86</speed>
  <fix>3d</fix>
</trkpt>
<trkpt lat="-27.2738357" lon="151.2899827">
  <ele>361.58</ele>
  <time>2026-09-01T19:52:15Z</time>
  <course>174.05</course>
  <speed>14.503547841821325</speed>
  <fix>3d</fix>
</trkpt>
<trkpt lat="-27.273797" lon="151.2899775">
  <ele>362.01</ele>
  <time>2026-09-01T19:52:15Z</time>
  <course>173.08</course>
  <speed>14.86</speed>
  <fix>3d</fix>
</trkpt>
<trkpt lat="-27.2738486" lon="151.2899844">
  <ele>361.52</ele>
  <time>2026-09-01T19:52:15Z</time>
  <course>174.07</course>
  <speed>14.391949138320356</speed>
  <fix>3d</fix>
</trkpt>
<trkpt lat="-27.2738233" lon="151.2899812">
  <ele>361.88</ele>
  <time>2026-09-01T19:52:15Z</time>
  <course>173.12</course>
  <speed>14.62</speed>
  <fix>3d</fix>
</trkpt>
<trkpt lat="-27.2738614" lon="151.2899862">
  <ele>361.46</ele>
  <time>2026-09-01T19:52:15Z</time>
  <course>174.09</course>
  <speed>14.28035363707776</speed>
  <fix>3d</fix>
</trkpt>
<trkpt lat="-27.2738233" lon="151.2899812">
  <ele>361.88</ele>
  <time>2026-09-01T19:52:15Z</time>
  <course>173.12</course>
  <speed>14.62</speed>
  <fix>3d</fix>
</trkpt>
<trkpt lat="-27.2738741" lon="151.2899879">
  <ele>361.4</ele>
  <time>2026-09-01T19:52:15Z</time>
  <course>174.12</course>
  <speed>14.158831166448733</speed>
  <fix>3d</fix>
</trkpt>
<trkpt lat="-27.2738492" lon="151.2899847">
  <ele>361.76</ele>
  <time>2026-09-01T19:52:15Z</time>
  <course>173.16</course>
  <speed>14.4</speed>
  <fix>3d</fix>
</trkpt>
<trkpt lat="-27.2738867" lon="151.2899896">
  <ele>361.35</ele>
  <time>2026-09-01T19:52:15Z</time>
  <course>174.14</course>
  <speed>14.047241722131787</speed>
  <fix>3d</fix>
</trkpt>
<trkpt lat="-27.2738492" lon="151.2899847">
  <ele>361.76</ele>
  <time>2026-09-01T19:52:15Z</time>
  <course>173.16</course>
  <speed>14.4</speed>
  <fix>3d</fix>
</trkpt>
<trkpt lat="-27.2738992" lon="151.2899913">
  <ele>361.29</ele>
  <time>2026-09-01T19:52:15Z</time>
  <course>174.15</course>
  <speed>13.936828907610225</speed>
  <fix>3d</fix>
</trkpt>
<trkpt lat="-27.2738746" lon="151.2899881">
  <ele>361.64</ele>
  <time>2026-09-01T19:52:15Z</time>
  <course>173.19</course>
  <speed>14.17</speed>
  <fix>3d</fix>
</trkpt>
<trkpt lat="-27.2739116" lon="151.2899929">
  <ele>361.25</ele>
  <time>2026-09-01T19:52:15Z</time>
  <course>174.17</course>
  <speed>13.815310347581772</speed>
  <fix>3d</fix>
</trkpt>
<trkpt lat="-27.2738746" lon="151.2899881">
  <ele>361.64</ele>
  <time>2026-09-01T19:52:15Z</time>
  <course>173.19</course>
  <speed>14.17</speed>
  <fix>3d</fix>
</trkpt>
<trkpt lat="-27.2739238" lon="151.2899946">
  <ele>361.2</ele>
  <time>2026-09-01T19:52:15Z</time>
  <course>174.19</course>
  <speed>13.69379421489895</speed>
  <fix>3d</fix>
</trkpt>
<trkpt lat="-27.2738997" lon="151.2899914">
  <ele>361.53</ele>
  <time>2026-09-01T19:52:15Z</time>
  <course>173.21</course>
  <speed>13.94</speed>
  <fix>3d</fix>
</trkpt>
<trkpt lat="-27.273936" lon="151.2899962">
  <ele>361.16</ele>
  <time>2026-09-01T19:52:15Z</time>
  <course>174.2</course>
  <speed>13.583379550023624</speed>
  <fix>3d</fix>
</trkpt>
<trkpt lat="-27.2738997" lon="151.2899914">
  <ele>361.53</ele>
  <time>2026-09-01T19:52:15Z</time>
  <course>173.21</course>
  <speed>13.94</speed>
  <fix>3d</fix>
</trkpt>
<trkpt lat="-27.2739481" lon="151.2899978">
  <ele>361.12</ele>
  <time>2026-09-01T19:52:15Z</time>
  <course>174.21</course>
  <speed>13.46186465538857</speed>
  <fix>3d</fix>
</trkpt>
<trkpt lat="-27.2739244" lon="151.2899948">
  <ele>361.44</ele>
  <time>2026-09-01T19:52:15Z</time>
  <course>173.23</course>
  <speed>13.71</speed>
  <fix>3d</fix>
</trkpt>
<trkpt lat="-27.2739601" lon="151.2899994">
  <ele>361.08</ele>
  <time>2026-09-01T19:52:15Z</time>
  <course>174.22</course>
  <speed>13.33158655224501</speed>
  <fix>3d</fix>
</trkpt>
<trkpt lat="-27.2739244" lon="151.2899948">
  <ele>361.44</ele>
  <time>2026-09-01T19:52:15Z</time>
  <course>173.23</course>
  <speed>13.71</speed>
  <fix>3d</fix>
</trkpt>
<trkpt lat="-27.2739719" lon="151.290001">
  <ele>361.05</ele>
  <time>2026-09-01T19:52:15Z</time>
  <course>174.23</course>
  <speed>13.210071915019993</speed>
  <fix>3d</fix>
</trkpt>
<trkpt lat="-27.2739487" lon="151.289998">
  <ele>361.36</ele>
  <time>2026-09-01T19:52:15Z</time>
  <course>173.24</course>
  <speed>13.47</speed>
  <fix>3d</fix>
</trkpt>
<trkpt lat="-27.2739837" lon="151.2900025">
  <ele>361.02</ele>
  <time>2026-09-01T19:52:15Z</time>
  <course>174.24</course>
  <speed>13.088559890224744</speed>
  <fix>3d</fix>
</trkpt>
<trkpt lat="-27.2739487" lon="151.289998">
  <ele>361.36</ele>
  <time>2026-09-01T19:52:15Z</time>
  <course>173.24</course>
  <speed>13.47</speed>
  <fix>3d</fix>
</trkpt>
<trkpt lat="-27.2739953" lon="151.2900041">
  <ele>361.0</ele>
  <time>2026-09-01T19:52:15Z</time>
  <course>174.25</course>
  <speed>12.95827920674655</speed>
  <fix>3d</fix>
</trkpt>
<trkpt lat="-27.2739725" lon="151.2900012">
  <ele>361.29</ele>
  <time>2026-09-01T19:52:15Z</time>
  <course>173.25</course>
  <speed>13.22</speed>
  <fix>3d</fix>
</trkpt>
<trkpt lat="-27.2740068" lon="151.2900056">
  <ele>360.98</ele>
  <time>2026-09-01T19:52:15Z</time>
  <course>174.26</course>
  <speed>12.826835151353587</speed>
  <fix>3d</fix>
</trkpt>
<trkpt lat="-27.2739725" lon="151.2900012">
  <ele>361.29</ele>
  <time>2026-09-01T19:52:15Z</time>
  <course>173.25</course>
  <speed>13.22</speed>
  <fix>3d</fix>
</trkpt>
<trkpt lat="-27.2740182" lon="151.2900071">
  <ele>360.96</ele>
  <time>2026-09-01T19:52:15Z</time>
  <course>174.27</course>
  <speed>12.69655465077042</speed>
  <fix>3d</fix>
</trkpt>
<trkpt lat="-27.2739958" lon="151.2900043">
  <ele>361.25</ele>
  <time>2026-09-01T19:52:15Z</time>
  <course>173.26</course>
  <speed>12.97</speed>
  <fix>3d</fix>
</trkpt>
<trkpt lat="-27.2740296" lon="151.2900086">
  <ele>360.95</ele>
  <time>2026-09-01T19:52:15Z</time>
  <course>174.27</course>
  <speed>12.565110425300686</speed>
  <fix>3d</fix>
</trkpt>
<trkpt lat="-27.2739958" lon="151.2900043">
  <ele>361.25</ele>
  <time>2026-09-01T19:52:15Z</time>
  <course>173.26</course>
  <speed>12.97</speed>
  <fix>3d</fix>
</trkpt>
<trkpt lat="-27.2740408" lon="151.2900101">
  <ele>360.94</ele>
  <time>2026-09-01T19:52:15Z</time>
  <course>174.28</course>
  <speed>12.433668002645076</speed>
  <fix>3d</fix>
</trkpt>
<trkpt lat="-27.2740187" lon="151.2900073">
  <ele>361.21</ele>
  <time>2026-09-01T19:52:15Z</time>
  <course>173.26</course>
  <speed>12.71</speed>
  <fix>3d</fix>
</trkpt>
<trkpt lat="-27.2740518" lon="151.2900116">
  <ele>360.94</ele>
  <time>2026-09-01T19:52:15Z</time>
  <course>174.28</course>
  <speed>12.293453542434689</speed>
  <fix>3d</fix>
</trkpt>
<trkpt lat="-27.2740187" lon="151.2900073">
  <ele>361.21</ele>
  <time>2026-09-01T19:52:15Z</time>
  <course>173.26</course>
  <speed>12.71</speed>
  <fix>3d</fix>
</trkpt>
<trkpt lat="-27.2740627" lon="151.290013">
  <ele>360.94</ele>
  <time>2026-09-01T19:52:15Z</time>
  <course>174.28</course>
  <speed>12.162010524580218</speed>
  <fix>3d</fix>
</trkpt>
<trkpt lat="-27.2740412" lon="151.2900103">
  <ele>361.19</ele>
  <time>2026-09-01T19:52:15Z</time>
  <course>173.26</course>
  <speed>12.45</speed>
  <fix>3d</fix>
</trkpt>
<trkpt lat="-27.2740735" lon="151.2900145">
  <ele>360.94</ele>
  <time>2026-09-01T19:52:15Z</time>
  <course>174.29</course>
  <speed>12.021796870684517</speed>
  <fix>3d</fix>
</trkpt>
<trkpt lat="-27.2740412" lon="151.2900103">
  <ele>361.19</ele>
  <time>2026-09-01T19:52:15Z</time>
  <course>173.26</course>
  <speed>12.45</speed>
  <fix>3d</fix>
</trkpt>
<trkpt lat="-27.2740842" lon="151.2900159">
  <ele>360.94</ele>
  <time>2026-09-01T19:52:15Z</time>
  <course>174.29</course>
  <speed>11.880420867965915</speed>
  <fix>3d</fix>
</trkpt>
<trkpt lat="-27.2740632" lon="151.2900132">
  <ele>361.18</ele>
  <time>2026-09-01T19:52:15Z</time>
  <course>173.25</course>
  <speed>12.18</speed>
  <fix>3d</fix>
</trkpt>
<trkpt lat="-27.2740947" lon="151.2900173">
  <ele>360.95</ele>
  <time>2026-09-01T19:52:15Z</time>
  <course>174.29</course>
  <speed>11.73904595782809</speed>
  <fix>3d</fix>
</trkpt>
<trkpt lat="-27.2740632" lon="151.2900132">
  <ele>361.18</ele>
  <time>2026-09-01T19:52:15Z</time>
  <course>173.25</course>
  <speed>12.18</speed>
  <fix>3d</fix>
</trkpt>
<trkpt lat="-27.2741052" lon="151.2900187">
  <ele>360.96</ele>
  <time>2026-09-01T19:52:15Z</time>
  <course>174.29</course>
  <speed>11.598831837732625</speed>
  <fix>3d</fix>
</trkpt>
<trkpt lat="-27.2740847" lon="151.2900161">
  <ele>361.18</ele>
  <time>2026-09-01T19:52:15Z</time>
  <course>173.24</course>
  <speed>11.9</speed>
  <fix>3d</fix>
</trkpt>
<trkpt lat="-27.2741155" lon="151.29002">
  <ele>360.97</ele>
  <time>2026-09-01T19:52:15Z</time>
  <course>174.29</course>
  <speed>11.447523749702377</speed>
  <fix>3d</fix>
</trkpt>
<trkpt lat="-27.2740847" lon="151.2900161">
  <ele>361.18</ele>
  <time>2026-09-01T19:52:15Z</time>
  <course>173.24</course>
  <speed>11.9</speed>
  <fix>3d</fix>
</trkpt>
<trkpt lat="-27.2741256" lon="151.2900214">
  <ele>360.99</ele>
  <time>2026-09-01T19:52:15Z</time>
  <course>174.29</course>
  <speed>11.306148769585514</speed>
  <fix>3d</fix>
</trkpt>
<trkpt lat="-27.2741057" lon="151.2900189">
  <ele>361.19</ele>
  <time>2026-09-01T19:52:15Z</time>
  <course>173.23</course>
  <speed>11.62</speed>
  <fix>3d</fix>
</trkpt>
<trkpt lat="-27.2741357" lon="151.2900227">
  <ele>361.01</ele>
  <time>2026-09-01T19:52:15Z</time>
  <course>174.29</course>
  <speed>11.15600286841125</speed>
  <fix>3d</fix>
</trkpt>
<trkpt lat="-27.2741057" lon="151.2900189">
  <ele>361.19</ele>
  <time>2026-09-01T19:52:15Z</time>
  <course>173.23</course>
  <speed>11.62</speed>
  <fix>3d</fix>
</trkpt>
<trkpt lat="-27.2741456" lon="151.290024">
  <ele>361.03</ele>
  <time>2026-09-01T19:52:15Z</time>
  <course>174.29</course>
  <speed>11.004694452823303</speed>
  <fix>3d</fix>
</trkpt>
<trkpt lat="-27.2741262" lon="151.2900216">
  <ele>361.21</ele>
  <time>2026-09-01T19:52:15Z</time>
  <course>173.22</course>
  <speed>11.32</speed>
  <fix>3d</fix>
</trkpt>
<trkpt lat="-27.2741553" lon="151.2900253">
  <ele>361.05</ele>
  <time>2026-09-01T19:52:15Z</time>
  <course>174.29</course>
  <speed>10.853386568256012</speed>
  <fix>3d</fix>
</trkpt>
<trkpt lat="-27.2741262" lon="151.2900216">
  <ele>361.21</ele>
  <time>2026-09-01T19:52:15Z</time>
  <course>173.22</course>
  <speed>11.32</speed>
  <fix>3d</fix>
</trkpt>
<trkpt lat="-27.274165" lon="151.2900266">
  <ele>361.07</ele>
  <time>2026-09-01T19:52:15Z</time>
  <course>174.29</course>
  <speed>10.703242499355044</speed>
  <fix>3d</fix>
</trkpt>
<trkpt lat="-27.2741461" lon="151.2900243">
  <ele>361.25</ele>
  <time>2026-09-01T19:52:15Z</time>
  <course>173.21</course>
  <speed>11.03</speed>
  <fix>3d</fix>
</trkpt>
<trkpt lat="-27.2741745" lon="151.2900279">
  <ele>361.09</ele>
  <time>2026-09-01T19:52:15Z</time>
  <course>174.29</course>
  <speed>10.542001707455752</speed>
  <fix>3d</fix>
</trkpt>
<trkpt lat="-27.2741461" lon="151.2900243">
  <ele>361.25</ele>
  <time>2026-09-01T19:52:15Z</time>
  <course>173.21</course>
  <speed>11.03</speed>
  <fix>3d</fix>
</trkpt>
<trkpt lat="-27.2741838" lon="151.2900292">
  <ele>361.11</ele>
  <time>2026-09-01T19:52:16Z</time>
  <course>174.29</course>
  <speed>10.390692950905631</speed>
  <fix>3d</fix>
</trkpt>
<trkpt lat="-27.2741655" lon="151.2900268">
  <ele>361.28</ele>
  <time>2026-09-01T19:52:16Z</time>
  <course>173.19</course>
  <speed>10.72</speed>
  <fix>3d</fix>
</trkpt>
<trkpt lat="-27.274193" lon="151.2900304">
  <ele>361.14</ele>
  <time>2026-09-01T19:52:16Z</time>
  <course>174.29</course>
  <speed>10.229452575773545</speed>
  <fix>3d</fix>
</trkpt>
<trkpt lat="-27.2741655" lon="151.2900268">
  <ele>361.28</ele>
  <time>2026-09-01T19:52:16Z</time>
  <course>173.19</course>
  <speed>10.72</speed>
  <fix>3d</fix>
</trkpt>
<trkpt lat="-27.2742021" lon="151.2900316">
  <ele>361.17</ele>
  <time>2026-09-01T19:52:16Z</time>
  <course>174.29</course>
  <speed>10.069379325459936</speed>
  <fix>3d</fix>
</trkpt>
<trkpt lat="-27.2741843" lon="151.2900294">
  <ele>361.33</ele>
  <time>2026-09-01T19:52:16Z</time>
  <course>173.17</course>
  <speed>10.41</speed>
  <fix>3d</fix>
</trkpt>
<trkpt lat="-27.274211" lon="151.2900328">
  <ele>361.2</ele>
  <time>2026-09-01T19:52:16Z</time>
  <course>174.28</course>
  <speed>9.908138069284258</speed>
  <fix>3d</fix>
</trkpt>
<trkpt lat="-27.2741843" lon="151.2900294">
  <ele>361.33</ele>
  <time>2026-09-01T19:52:16Z</time>
  <course>173.17</course>
  <speed>10.41</speed>
  <fix>3d</fix>
</trkpt>
<trkpt lat="-27.2742198" lon="151.290034">
  <ele>361.23</ele>
  <time>2026-09-01T19:52:16Z</time>
  <course>174.28</course>
  <speed>9.736965646442426</speed>
  <fix>3d</fix>
</trkpt>
<trkpt lat="-27.2742026" lon="151.2900318">
  <ele>361.39</ele>
  <time>2026-09-01T19:52:16Z</time>
  <course>173.15</course>
  <speed>10.09</speed>
  <fix>3d</fix>
</trkpt>
<trkpt lat="-27.2742285" lon="151.2900352">
  <ele>361.25</ele>
  <time>2026-09-01T19:52:16Z</time>
  <course>174.28</course>
  <speed>9.575724515669819</speed>
  <fix>3d</fix>
</trkpt>
<trkpt lat="-27.2742026" lon="151.2900318">
  <ele>361.39</ele>
  <time>2026-09-01T19:52:16Z</time>
  <course>173.15</course>
  <speed>10.09</speed>
  <fix>3d</fix>
</trkpt>
<trkpt lat="-27.2742369" lon="151.2900363">
  <ele>361.28</ele>
  <time>2026-09-01T19:52:16Z</time>
  <course>174.28</course>
  <speed>9.41448352274303</speed>
  <fix>3d</fix>
</trkpt>
<trkpt lat="-27.2742204" lon="151.2900343">
  <ele>361.44</ele>
  <time>2026-09-01T19:52:16Z</time>
  <course>173.13</course>
  <speed>9.76</speed>
  <fix>3d</fix>
</trkpt>
<trkpt lat="-27.2742452" lon="151.2900374">
  <ele>361.32</ele>
  <time>2026-09-01T19:52:16Z</time>
  <course>174.27</course>
  <speed>9.244484842326262</speed>
  <fix>3d</fix>
</trkpt>
<trkpt lat="-27.2742204" lon="151.2900343">
  <ele>361.44</ele>
  <time>2026-09-01T19:52:16Z</time>
  <course>173.13</course>
  <speed>9.76</speed>
  <fix>3d</fix>
</trkpt>
<trkpt lat="-27.2742534" lon="151.2900385">
  <ele>361.35</ele>
  <time>2026-09-01T19:52:16Z</time>
  <course>174.27</course>
  <speed>9.07331251528349</speed>
  <fix>3d</fix>
</trkpt>
<trkpt lat="-27.2742375" lon="151.2900366">
  <ele>361.5</ele>
  <time>2026-09-01T19:52:16Z</time>
  <course>173.11</course>
  <speed>9.43</speed>
  <fix>3d</fix>
</trkpt>
<trkpt lat="-27.2742615" lon="151.2900396">
  <ele>361.38</ele>
  <time>2026-09-01T19:52:16Z</time>
  <course>174.27</course>
  <speed>8.91207046650777</speed>
  <fix>3d</fix>
</trkpt>
<trkpt lat="-27.2742375" lon="151.2900366">
  <ele>361.5</ele>
  <time>2026-09-01T19:52:16Z</time>
  <course>173.11</course>
  <speed>9.43</speed>
  <fix>3d</fix>
</trkpt>
<trkpt lat="-27.2742694" lon="151.2900407">
  <ele>361.4</ele>
  <time>2026-09-01T19:52:16Z</time>
  <course>174.27</course>
  <speed>8.730967873036757</speed>
  <fix>3d</fix>
</trkpt>
<trkpt lat="-27.274254" lon="151.2900389">
  <ele>361.55</ele>
  <time>2026-09-01T19:52:16Z</time>
  <course>173.08</course>
  <speed>9.1</speed>
  <fix>3d</fix>
</trkpt>
<trkpt lat="-27.2742772" lon="151.2900418">
  <ele>361.43</ele>
  <time>2026-09-01T19:52:16Z</time>
  <course>174.26</course>
  <speed>8.559795558306284</speed>
  <fix>3d</fix>
</trkpt>
<trkpt lat="-27.274254" lon="151.2900389">
  <ele>361.55</ele>
  <time>2026-09-01T19:52:16Z</time>
  <course>173.08</course>
  <speed>9.1</speed>
  <fix>3d</fix>
</trkpt>
<trkpt lat="-27.2742848" lon="151.2900428">
  <ele>361.46</ele>
  <time>2026-09-01T19:52:16Z</time>
  <course>174.26</course>
  <speed>8.388623248185604</speed>
  <fix>3d</fix>
</trkpt>
<trkpt lat="-27.27427" lon="151.290041">
  <ele>361.61</ele>
  <time>2026-09-01T19:52:16Z</time>
  <course>173.05</course>
  <speed>8.75</speed>
  <fix>3d</fix>
</trkpt>
<trkpt lat="-27.2742922" lon="151.2900439">
  <ele>361.48</ele>
  <time>2026-09-01T19:52:16Z</time>
  <course>174.26</course>
  <speed>8.217450942962786</speed>
  <fix>3d</fix>
</trkpt>
<trkpt lat="-27.27427" lon="151.290041">
  <ele>361.61</ele>
  <time>2026-09-01T19:52:16Z</time>
  <course>173.05</course>
  <speed>8.75</speed>
  <fix>3d</fix>
</trkpt>
<trkpt lat="-27.2742995" lon="151.2900449">
  <ele>361.5</ele>
  <time>2026-09-01T19:52:16Z</time>
  <course>174.26</course>
  <speed>8.046278642950417</speed>
  <fix>3d</fix>
</trkpt>
<trkpt lat="-27.2742853" lon="151.2900431">
  <ele>361.66</ele>
  <time>2026-09-01T19:52:16Z</time>
  <course>173.03</course>
  <speed>8.41</speed>
  <fix>3d</fix>
</trkpt>
<trkpt lat="-27.2743066" lon="151.2900458">
  <ele>361.52</ele>
  <time>2026-09-01T19:52:16Z</time>
  <course>174.26</course>
  <speed>7.865176412516123</speed>
  <fix>3d</fix>
</trkpt>
<trkpt lat="-27.2742853" lon="151.2900431">
  <ele>361.66</ele>
  <time>2026-09-01T19:52:16Z</time>
  <course>173.03</course>
  <speed>8.41</speed>
  <fix>3d</fix>
</trkpt>
<trkpt lat="-27.2743136" lon="151.2900468">
  <ele>361.54</ele>
  <time>2026-09-01T19:52:16Z</time>
  <course>174.26</course>
  <speed>7.695193304914438</speed>
  <fix>3d</fix>
</trkpt>
<trkpt lat="-27.2742999" lon="151.2900452">
  <ele>361.7</ele>
  <time>2026-09-01T19:52:16Z</time>
  <course>173.0</course>
  <speed>8.06</speed>
  <fix>3d</fix>
</trkpt>
<trkpt lat="-27.2743204" lon="151.2900477">
  <ele>361.55</ele>
  <time>2026-09-01T19:52:16Z</time>
  <course>174.25</course>
  <speed>7.524021531069671</speed>
  <fix>3d</fix>
</trkpt>
<trkpt lat="-27.2742999" lon="151.2900452">
  <ele>361.7</ele>
  <time>2026-09-01T19:52:16Z</time>
  <course>173.0</course>
  <speed>8.06</speed>
  <fix>3d</fix>
</trkpt>
<trkpt lat="-27.2743271" lon="151.2900487">
  <ele>361.56</ele>
  <time>2026-09-01T19:52:16Z</time>
  <course>174.25</course>
  <speed>7.342921761805719</speed>
  <fix>3d</fix>
</trkpt>
<trkpt lat="-27.2743141" lon="151.2900471">
  <ele>361.73</ele>
  <time>2026-09-01T19:52:16Z</time>
  <course>172.97</course>
  <speed>7.71</speed>
  <fix>3d</fix>
</trkpt>
<trkpt lat="-27.2743336" lon="151.2900496">
  <ele>361.57</ele>
  <time>2026-09-01T19:52:16Z</time>
  <course>174.25</course>
  <speed>7.171750135078606</speed>
  <fix>3d</fix>
</trkpt>
<trkpt lat="-27.2743141" lon="151.2900471">
  <ele>361.73</ele>
  <time>2026-09-01T19:52:16Z</time>
  <course>172.97</course>
  <speed>7.71</speed>
  <fix>3d</fix>
</trkpt>
<trkpt lat="-27.2743399" lon="151.2900505">
  <ele>361.57</ele>
  <time>2026-09-01T19:52:16Z</time>
  <course>174.25</course>
  <speed>7.000578547520198</speed>
  <fix>3d</fix>
</trkpt>
<trkpt lat="-27.2743275" lon="151.290049">
  <ele>361.76</ele>
  <time>2026-09-01T19:52:16Z</time>
  <course>172.93</course>
  <speed>7.36</speed>
  <fix>3d</fix>
</trkpt>
<trkpt lat="-27.2743461" lon="151.2900513">
  <ele>361.57</ele>
  <time>2026-09-01T19:52:16Z</time>
  <course>174.25</course>
  <speed>6.819479452274932</speed>
  <fix>3d</fix>
</trkpt>
<trkpt lat="-27.2743275" lon="151.290049">
  <ele>361.76</ele>
  <time>2026-09-01T19:52:16Z</time>
  <course>172.93</course>
  <speed>7.36</speed>
  <fix>3d</fix>
</trkpt>
<trkpt lat="-27.2743521" lon="151.2900522">
  <ele>361.56</ele>
  <time>2026-09-01T19:52:16Z</time>
  <course>174.25</course>
  <speed>6.648308055437865</speed>
  <fix>3d</fix>
</trkpt>
<trkpt lat="-27.2743403" lon="151.2900508">
  <ele>361.77</ele>
  <time>2026-09-01T19:52:16Z</time>
  <course>172.89</course>
  <speed>7.02</speed>
  <fix>3d</fix>
</trkpt>
<trkpt lat="-27.274358" lon="151.290053">
  <ele>361.51</ele>
  <time>2026-09-01T19:52:16Z</time>
  <course>174.24</course>
  <speed>6.437429611265665</speed>
  <fix>3d</fix>
</trkpt>
<trkpt lat="-27.2743403" lon="151.2900508">
  <ele>361.77</ele>
  <time>2026-09-01T19:52:16Z</time>
  <course>172.89</course>
  <speed>7.02</speed>
  <fix>3d</fix>
</trkpt>
<trkpt lat="-27.2743636" lon="151.2900538">
  <ele>361.38</ele>
  <time>2026-09-01T19:52:16Z</time>
  <course>174.25</course>
  <speed>6.116158925338681</speed>
  <fix>3d</fix>
</trkpt>
<trkpt lat="-27.2743525" lon="151.2900525">
  <ele>361.73</ele>
  <time>2026-09-01T19:52:16Z</time>
  <course>172.86</course>
  <speed>6.65</speed>
  <fix>3d</fix>
</trkpt>
<trkpt lat="-27.2743689" lon="151.2900546">
  <ele>361.18</ele>
  <time>2026-09-01T19:52:16Z</time>
  <course>174.29</course>
  <speed>5.683273704477025</speed>
  <fix>3d</fix>
</trkpt>
<trkpt lat="-27.2743525" lon="151.2900525">
  <ele>361.73</ele>
  <time>2026-09-01T19:52:16Z</time>
  <course>172.86</course>
  <speed>6.65</speed>
  <fix>3d</fix>
</trkpt>
<trkpt lat="-27.2743737" lon="151.2900553">
  <ele>360.96</ele>
  <time>2026-09-01T19:52:16Z</time>
  <course>174.39</course>
  <speed>5.190857347298229</speed>
  <fix>3d</fix>
</trkpt>
<trkpt lat="-27.2743639" lon="151.2900541">
  <ele>361.54</ele>
  <time>2026-09-01T19:52:16Z</time>
  <course>172.83</course>
  <speed>6.09</speed>
  <fix>3d</fix>
</trkpt>
<trkpt lat="-27.2743781" lon="151.2900559">
  <ele>360.7</ele>
  <time>2026-09-01T19:52:16Z</time>
  <course>174.53</course>
  <speed>4.6476015319732396</speed>
  <fix>3d</fix>
</trkpt>
<trkpt lat="-27.2743639" lon="151.2900541">
  <ele>361.54</ele>
  <time>2026-09-01T19:52:16Z</time>
  <course>172.83</course>
  <speed>6.09</speed>
  <fix>3d</fix>
</trkpt>
<trkpt lat="-27.274382" lon="151.2900565">
  <ele>360.43</ele>
  <time>2026-09-01T19:52:16Z</time>
  <course>174.7</course>
  <speed>4.09444745967023</speed>
  <fix>3d</fix>
</trkpt>
<trkpt lat="-27.274374" lon="151.2900555">
  <ele>361.15</ele>
  <time>2026-09-01T19:52:16Z</time>
  <course>172.79</course>
  <speed>5.19</speed>
  <fix>3d</fix>
</trkpt>
<trkpt lat="-27.2743854" lon="151.290057">
  <ele>360.15</ele>
  <time>2026-09-01T19:52:16Z</time>
  <course>174.87</course>
  <speed>3.5512392203285885</speed>
  <fix>3d</fix>
</trkpt>
<trkpt lat="-27.274374" lon="151.2900555">
  <ele>361.15</ele>
  <time>2026-09-01T19:52:16Z</time>
  <course>172.79</course>
  <speed>5.19</speed>
  <fix>3d</fix>
</trkpt>
<trkpt lat="-27.2743884" lon="151.2900575">
  <ele>359.87</ele>
  <time>2026-09-01T19:52:16Z</time>
  <course>175.04</course>
  <speed>3.037795253140014</speed>
  <fix>3d</fix>
</trkpt>
<trkpt lat="-27.2743823" lon="151.2900567">
  <ele>360.63</ele>
  <time>2026-09-01T19:52:16Z</time>
  <course>172.73</course>
  <speed>4.12</speed>
  <fix>3d</fix>
</trkpt>
<trkpt lat="-27.2743909" lon="151.2900579">
  <ele>359.59</ele>
  <time>2026-09-01T19:52:16Z</time>
  <course>175.2</course>
  <speed>2.5640007800310824</speed>
  <fix>3d</fix>
</trkpt>
<trkpt lat="-27.2743823" lon="151.2900567">
  <ele>360.63</ele>
  <time>2026-09-01T19:52:16Z</time>
  <course>172.73</course>
  <speed>4.12</speed>
  <fix>3d</fix>
</trkpt>
<trkpt lat="-27.274393" lon="151.2900582">
  <ele>359.33</ele>
  <time>2026-09-01T19:52:16Z</time>
  <course>175.33</course>
  <speed>2.121320343559643</speed>
  <fix>3d</fix>
</trkpt>
<trkpt lat="-27.2743887" lon="151.2900576">
  <ele>360.08</ele>
  <time>2026-09-01T19:52:16Z</time>
  <course>172.7</course>
  <speed>3.08</speed>
  <fix>3d</fix>
</trkpt>
<trkpt lat="-27.2743947" lon="151.2900585">
  <ele>359.07</ele>
  <time>2026-09-01T19:52:16Z</time>
  <course>175.45</course>
  <speed>1.7380736463107656</speed>
  <fix>3d</fix>
</trkpt>
<trkpt lat="-27.2743887" lon="151.2900576">
  <ele>360.08</ele>
  <time>2026-09-01T19:52:16Z</time>
  <course>172.7</course>
  <speed>3.08</speed>
  <fix>3d</fix>
</trkpt>
<trkpt lat="-27.2743962" lon="151.2900587">
  <ele>358.83</ele>
  <time>2026-09-01T19:52:16Z</time>
  <course>175.54</course>
  <speed>1.3746272221951665</speed>
  <fix>3d</fix>
</trkpt>
<trkpt lat="-27.2743934" lon="151.2900583">
  <ele>359.55</ele>
  <time>2026-09-01T19:52:16Z</time>
  <course>172.76</course>
  <speed>2.16</speed>
  <fix>3d</fix>
</trkpt>
<trkpt lat="-27.2743973" lon="151.2900589">
  <ele>358.62</ele>
  <time>2026-09-01T19:52:16Z</time>
  <course>175.61</course>
  <speed>1.0804628637764464</speed>
  <fix>3d</fix>
</trkpt>
<trkpt lat="-27.2743934" lon="151.2900583">
  <ele>359.55</ele>
  <time>2026-09-01T19:52:16Z</time>
  <course>172.76</course>
  <speed>2.16</speed>
  <fix>3d</fix>
</trkpt>
<trkpt lat="-27.2743982" lon="151.290059">
  <ele>358.42</ele>
  <time>2026-09-01T19:52:16Z</time>
  <course>175.66</course>
  <speed>0.8386298349093002</speed>
  <fix>3d</fix>
</trkpt>
<trkpt lat="-27.2743966" lon="151.2900588">
  <ele>359.06</ele>
  <time>2026-09-01T19:52:16Z</time>
  <course>173.0</course>
  <speed>1.43</speed>
  <fix>3d</fix>
</trkpt>
<trkpt lat="-27.2743989" lon="151.2900591">
  <ele>358.25</ele>
  <time>2026-09-01T19:52:16Z</time>
  <course>175.7</course>
  <speed>0.6363961030678928</speed>
  <fix>3d</fix>
</trkpt>
<trkpt lat="-27.2743966" lon="151.2900588">
  <ele>359.06</ele>
  <time>2026-09-01T19:52:16Z</time>
  <course>173.0</course>
  <speed>1.43</speed>
  <fix>3d</fix>
</trkpt>
<trkpt lat="-27.2743994" lon="151.2900592">
  <ele>358.11</ele>
  <time>2026-09-01T19:52:16Z</time>
  <course>175.72</course>
  <speed>0.48373546489791297</speed>
  <fix>3d</fix>
</trkpt>
<trkpt lat="-27.2743986" lon="151.2900591">
  <ele>358.66</ele>
  <time>2026-09-01T19:52:16Z</time>
  <course>173.53</course>
  <speed>0.88</speed>
  <fix>3d</fix>
</trkpt>
<trkpt lat="-27.2743999" lon="151.2900593">
  <ele>357.99</ele>
  <time>2026-09-01T19:52:16Z</time>
  <course>175.74</course>
  <speed>0.3721558813185679</speed>
  <fix>3d</fix>
</trkpt>
<trkpt lat="-27.2743986" lon="151.2900591">
  <ele>358.66</ele>
  <time>2026-09-01T19:52:16Z</time>
  <course>173.53</course>
  <speed>0.88</speed>
  <fix>3d</fix>
</trkpt>
<trkpt lat="-27.2744002" lon="151.2900593">
  <ele>357.91</ele>
  <time>2026-09-01T19:52:16Z</time>
  <course>175.74</course>
  <speed>0.2906888370749727</speed>
  <fix>3d</fix>
</trkpt>
<trkpt lat="-27.2743998" lon="151.2900592">
  <ele>358.35</ele>
  <time>2026-09-01T19:52:16Z</time>
  <course>174.42</course>
  <speed>0.52</speed>
  <fix>3d</fix>
</trkpt>
<trkpt lat="-27.2744005" lon="151.2900593">
  <ele>357.84</ele>
  <time>2026-09-01T19:52:16Z</time>
  <course>175.73</course>
  <speed>0.23021728866442676</speed>
  <fix>3d</fix>
</trkpt>
<trkpt lat="-27.2743998" lon="151.2900592">
  <ele>358.35</ele>
  <time>2026-09-01T19:52:16Z</time>
  <course>174.42</course>
  <speed>0.52</speed>
  <fix>3d</fix>
</trkpt>
<trkpt lat="-27.2744007" lon="151.2900593">
  <ele>357.81</ele>
  <time>2026-09-01T19:52:16Z</time>
  <course>175.71</course>
  <speed>0.18</speed>
  <fix>3d</fix>
</trkpt>
<trkpt lat="-27.2744006" lon="151.2900593">
  <ele>358.14</ele>
  <time>2026-09-01T19:52:16Z</time>
  <course>175.51</course>
  <speed>0.31</speed>
  <fix>3d</fix>
</trkpt>
<trkpt lat="-27.2744008" lon="151.2900593">
  <ele>357.79</ele>
  <time>2026-09-01T19:52:16Z</time>
  <course>175.68</course>
  <speed>0.14</speed>
  <fix>3d</fix>
</trkpt>
<trkpt lat="-27.2744006" lon="151.2900593">
  <ele>358.14</ele>
  <time>2026-09-01T19:52:16Z</time>
  <course>175.51</course>
  <speed>0.31</speed>
  <fix>3d</fix>
</trkpt>
<trkpt lat="-27.274401" lon="151.2900593">
  <ele>357.8</ele>
  <time>2026-09-01T19:52:16Z</time>
  <course>175.66</course>
  <speed>0.12041594578792296</speed>
  <fix>3d</fix>
</trkpt>
<trkpt lat="-27.274401" lon="151.2900593">
  <ele>358.04</ele>
  <time>2026-09-01T19:52:16Z</time>
  <course>176.18</course>
  <speed>0.19</speed>
  <fix>3d</fix>
</trkpt>
<trkpt lat="-27.2744011" lon="151.2900593">
  <ele>357.82</ele>
  <time>2026-09-01T19:52:16Z</time>
  <course>175.64</course>
  <speed>0.1019803902718557</speed>
  <fix>3d</fix>
</trkpt>
<trkpt lat="-27.274401" lon="151.2900593">
  <ele>358.04</ele>
  <time>2026-09-01T19:52:16Z</time>
  <course>176.18</course>
  <speed>0.19</speed>
  <fix>3d</fix>
</trkpt>
<trkpt lat="-27.2744012" lon="151.2900592">
  <ele>357.85</ele>
  <time>2026-09-01T19:52:16Z</time>
  <course>175.62</course>
  <speed>0.09219544457292887</speed>
  <fix>3d</fix>
</trkpt>
<trkpt lat="-27.2744013" lon="151.2900593">
  <ele>358.03</ele>
  <time>2026-09-01T19:52:16Z</time>
  <course>175.19</course>
  <speed>0.12</speed>
  <fix>3d</fix>
</trkpt>
<trkpt lat="-27.2744013" lon="151.2900592">
  <ele>357.9</ele>
  <time>2026-09-01T19:52:16Z</time>
  <course>175.61</course>
  <speed>0.0824621125123532</speed>
  <fix>3d</fix>
</trkpt>
<trkpt lat="-27.2744013" lon="151.2900593">
  <ele>358.03</ele>
  <time>2026-09-01T19:52:16Z</time>
  <course>175.19</course>
  <speed>0.12</speed>
  <fix>3d</fix>
</trkpt>
<trkpt lat="-27.2744014" lon="151.2900592">
  <ele>357.94</ele>
  <time>2026-09-01T19:52:16Z</time>
  <course>175.61</course>
  <speed>0.0824621125123532</speed>
  <fix>3d</fix>
</trkpt>
<trkpt lat="-27.2744014" lon="151.2900594">
  <ele>358.09</ele>
  <time>2026-09-01T19:52:16Z</time>
  <course>170.84</course>
  <speed>0.09</speed>
  <fix>3d</fix>
</trkpt>
<trkpt lat="-27.2744015" lon="151.2900592">
  <ele>357.99</ele>
  <time>2026-09-01T19:52:16Z</time>
  <course>175.6</course>
  <speed>0.09219544457292887</speed>
  <fix>3d</fix>
</trkpt>
<trkpt lat="-27.2744014" lon="151.2900594">
  <ele>358.09</ele>
  <time>2026-09-01T19:52:16Z</time>
  <course>170.84</course>
  <speed>0.09</speed>
  <fix>3d</fix>
</trkpt>
<trkpt lat="-27.2744016" lon="151.2900592">
  <ele>358.04</ele>
  <time>2026-09-01T19:52:16Z</time>
  <course>175.6</course>
  <speed>0.1118033988749895</speed>
  <fix>3d</fix>
</trkpt>
<trkpt lat="-27.2744016" lon="151.2900594">
  <ele>358.17</ele>
  <time>2026-09-01T19:52:16Z</time>
  <course>164.77</course>
  <speed>0.08</speed>
  <fix>3d</fix>
</trkpt>
<trkpt lat="-27.2744017" lon="151.2900592">
  <ele>358.08</ele>
  <time>2026-09-01T19:52:16Z</time>
  <course>175.6</course>
  <speed>0.13152946437965907</speed>
  <fix>3d</fix>
</trkpt>
<trkpt lat="-27.2744016" lon="151.2900594">
  <ele>358.17</ele>
  <time>2026-09-01T19:52:16Z</time>
  <course>164.77</course>
  <speed>0.08</speed>
  <fix>3d</fix>
</trkpt>
<trkpt lat="-27.2744019" lon="151.2900592">
  <ele>358.11</ele>
  <time>2026-09-01T19:52:16Z</time>
  <course>175.6</course>
  <speed>0.15033296378372907</speed>
  <fix>3d</fix>
</trkpt>
<trkpt lat="-27.2744018" lon="151.2900594">
  <ele>358.26</ele>
  <time>2026-09-01T19:52:16Z</time>
  <course>161.36</course>
  <speed>0.11</speed>
  <fix>3d</fix>
</trkpt>
<trkpt lat="-27.274402" lon="151.2900592">
  <ele>358.14</ele>
  <time>2026-09-01T19:52:16Z</time>
  <course>175.6</course>
  <speed>0.18027756377319945</speed>
  <fix>3d</fix>
</trkpt>
<trkpt lat="-27.2744018" lon="151.2900594">
  <ele>358.26</ele>
  <time>2026-09-01T19:52:16Z</time>
  <course>161.36</course>
  <speed>0.11</speed>
  <fix>3d</fix>
</trkpt>
<trkpt lat="-27.2744022" lon="151.2900592">
  <ele>358.15</ele>
  <time>2026-09-01T19:52:16Z</time>
  <course>175.6</course>
  <speed>0.21</speed>
  <fix>3d</fix>
</trkpt>
<trkpt lat="-27.274402" lon="151.2900595">
  <ele>358.33</ele>
  <time>2026-09-01T19:52:16Z</time>
  <course>160.71</course>
  <speed>0.15</speed>
  <fix>3d</fix>
</trkpt>
<trkpt lat="-27.2744024" lon="151.2900593">
  <ele>358.16</ele>
  <time>2026-09-01T19:52:16Z</time>
  <course>175.59</course>
  <speed>0.25</speed>
  <fix>3d</fix>
</trkpt>
<trkpt lat="-27.274402" lon="151.2900595">
  <ele>358.33</ele>
  <time>2026-09-01T19:52:16Z</time>
  <course>160.71</course>
  <speed>0.15</speed>
  <fix>3d</fix>
</trkpt>
<trkpt lat="-27.2744027" lon="151.2900593">
  <ele>358.16</ele>
  <time>2026-09-01T19:52:16Z</time>
  <course>175.59</course>
  <speed>0.29</speed>
  <fix>3d</fix>
</trkpt>
<trkpt lat="-27.2744023" lon="151.2900596">
  <ele>358.37</ele>
  <time>2026-09-01T19:52:16Z</time>
  <course>161.27</course>
  <speed>0.22</speed>
  <fix>3d</fix>
</trkpt>
<trkpt lat="-27.274403" lon="151.2900594">
  <ele>358.15</ele>
  <time>2026-09-01T19:52:16Z</time>
  <course>175.59</course>
  <speed>0.340147027033899</speed>
  <fix>3d</fix>
</trkpt>
<trkpt lat="-27.2744023" lon="151.2900596">
  <ele>358.37</ele>
  <time>2026-09-01T19:52:16Z</time>
  <course>161.27</course>
  <speed>0.22</speed>
  <fix>3d</fix>
</trkpt>
<trkpt lat="-27.2744033" lon="151.2900594">
  <ele>358.14</ele>
  <time>2026-09-01T19:52:16Z</time>
  <course>175.58</course>
  <speed>0.3901281840626232</speed>
  <fix>3d</fix>
</trkpt>
<trkpt lat="-27.2744028" lon="151.2900598">
  <ele>358.37</ele>
  <time>2026-09-01T19:52:16Z</time>
  <course>162.19</course>
  <speed>0.3</speed>
  <fix>3d</fix>
</trkpt>
<trkpt lat="-27.2744037" lon="151.2900595">
  <ele>358.12</ele>
  <time>2026-09-01T19:52:16Z</time>
  <course>175.58</course>
  <speed>0.44045431091090476</speed>
  <fix>3d</fix>
</trkpt>
<trkpt lat="-27.2744028" lon="151.2900598">
  <ele>358.37</ele>
  <time>2026-09-01T19:52:16Z</time>
  <course>162.19</course>
  <speed>0.3</speed>
  <fix>3d</fix>
</trkpt>
<trkpt lat="-27.2744041" lon="151.2900596">
  <ele>358.1</ele>
  <time>2026-09-01T19:52:16Z</time>
  <course>175.57</course>
  <speed>0.5008991914547277</speed>
  <fix>3d</fix>
</trkpt>
<trkpt lat="-27.2744034" lon="151.29006">
  <ele>358.35</ele>
  <time>2026-09-01T19:52:16Z</time>
  <course>163.16</course>
  <speed>0.4</speed>
  <fix>3d</fix>
</trkpt>
<trkpt lat="-27.2744046" lon="151.2900597">
  <ele>358.08</ele>
  <time>2026-09-01T19:52:16Z</time>
  <course>175.56</course>
  <speed>0.561426753904728</speed>
  <fix>3d</fix>
</trkpt>
<trkpt lat="-27.2744034" lon="151.29006">
  <ele>358.35</ele>
  <time>2026-09-01T19:52:16Z</time>
  <course>163.16</course>
  <speed>0.4</speed>
  <fix>3d</fix>
</trkpt>
<trkpt lat="-27.2744051" lon="151.2900598">
  <ele>358.06</ele>
  <time>2026-09-01T19:52:16Z</time>
  <course>175.54</course>
  <speed>0.6220128616033594</speed>
  <fix>3d</fix>
</trkpt>
<trkpt lat="-27.2744042" lon="151.2900603">
  <ele>358.31</ele>
  <time>2026-09-01T19:52:16Z</time>
  <course>164.07</course>
  <speed>0.51</speed>
  <fix>3d</fix>
</trkpt>
<trkpt lat="-27.2744057" lon="151.29006">
  <ele>358.05</ele>
  <time>2026-09-01T19:52:16Z</time>
  <course>175.53</course>
  <speed>0.6926037828369117</speed>
  <fix>3d</fix>
</trkpt>
<trkpt lat="-27.2744042" lon="151.2900603">
  <ele>358.31</ele>
  <time>2026-09-01T19:52:16Z</time>
  <course>164.07</course>
  <speed>0.51</speed>
  <fix>3d</fix>
</trkpt>
<trkpt lat="-27.2744064" lon="151.2900601">
  <ele>358.03</ele>
  <time>2026-09-01T19:52:16Z</time>
  <course>175.52</course>
  <speed>0.7532595834106592</speed>
  <fix>3d</fix>
</trkpt>
<trkpt lat="-27.2744052" lon="151.2900606">
  <ele>358.27</ele>
  <time>2026-09-01T19:52:16Z</time>
  <course>164.86</course>
  <speed>0.64</speed>
  <fix>3d</fix>
</trkpt>
<trkpt lat="-27.2744071" lon="151.2900603">
  <ele>358.02</ele>
  <time>2026-09-01T19:52:16Z</time>
  <course>175.51</course>
  <speed>0.8139410298049853</speed>
  <fix>3d</fix>
</trkpt>
<trkpt lat="-27.2744052" lon="151.2900606">
  <ele>358.27</ele>
  <time>2026-09-01T19:52:16Z</time>
  <course>164.86</course>
  <speed>0.64</speed>
  <fix>3d</fix>
</trkpt>
<trkpt lat="-27.2744078" lon="151.2900605">
  <ele>358.01</ele>
  <time>2026-09-01T19:52:16Z</time>
  <course>175.49</course>
  <speed>0.8746427842267951</speed>
  <fix>3d</fix>
</trkpt>
<trkpt lat="-27.2744064" lon="151.2900609">
  <ele>358.23</ele>
  <time>2026-09-01T19:52:16Z</time>
  <course>165.54</course>
  <speed>0.77</speed>
  <fix>3d</fix>
</trkpt>
<trkpt lat="-27.2744086" lon="151.2900607">
  <ele>358.0</ele>
  <time>2026-09-01T19:52:16Z</time>
  <course>175.48</course>
  <speed>0.9353608929178086</speed>
  <fix>3d</fix>
</trkpt>
<trkpt lat="-27.2744064" lon="151.2900609">
  <ele>358.23</ele>
  <time>2026-09-01T19:52:16Z</time>
  <course>165.54</course>
  <speed>0.77</speed>
  <fix>3d</fix>
</trkpt>
<trkpt lat="-27.2744094" lon="151.2900609">
  <ele>357.99</ele>
  <time>2026-09-01T19:52:16Z</time>
  <course>175.46</course>
  <speed>0.986154146165801</speed>
  <fix>3d</fix>
</trkpt>
<trkpt lat="-27.2744079" lon="151.2900614">
  <ele>358.2</ele>
  <time>2026-09-01T19:52:16Z</time>
  <course>166.14</course>
  <speed>0.89</speed>
  <fix>3d</fix>
</trkpt>
<trkpt lat="-27.2744104" lon="151.2900611">
  <ele>357.99</ele>
  <time>2026-09-01T19:52:16Z</time>
  <course>175.46</course>
  <speed>1.0458011283222064</speed>
  <fix>3d</fix>
</trkpt>
<trkpt lat="-27.2744079" lon="151.2900614">
  <ele>358.2</ele>
  <time>2026-09-01T19:52:16Z</time>
  <course>166.14</course>
  <speed>0.89</speed>
  <fix>3d</fix>
</trkpt>
<trkpt lat="-27.2744113" lon="151.2900613">
  <ele>357.99</ele>
  <time>2026-09-01T19:52:16Z</time>
  <course>175.44</course>
  <speed>1.0965856099730653</speed>
  <fix>3d</fix>
</trkpt>
<trkpt lat="-27.2744095" lon="151.2900618">
  <ele>358.18</ele>
  <time>2026-09-01T19:52:16Z</time>
  <course>166.69</course>
  <speed>1.01</speed>
  <fix>3d</fix>
</trkpt>
<trkpt lat="-27.2744123" lon="151.2900615">
  <ele>357.99</ele>
  <time>2026-09-01T19:52:16Z</time>
  <course>175.44</course>
  <speed>1.1473883387938018</speed>
  <fix>3d</fix>
</trkpt>
<trkpt lat="-27.2744095" lon="151.2900618">
  <ele>358.18</ele>
  <time>2026-09-01T19:52:16Z</time>
  <course>166.69</course>
  <speed>1.01</speed>
  <fix>3d</fix>
</trkpt>
<trkpt lat="-27.2744133" lon="151.2900618">
  <ele>357.99</ele>
  <time>2026-09-01T19:52:16Z</time>
  <course>175.43</course>
  <speed>1.1871394189394942</speed>
  <fix>3d</fix>
</trkpt>
<trkpt lat="-27.2744114" lon="151.2900623">
  <ele>358.18</ele>
  <time>2026-09-01T19:52:16Z</time>
  <course>167.23</course>
  <speed>1.12</speed>
  <fix>3d</fix>
</trkpt>
<trkpt lat="-27.2744144" lon="151.2900621">
  <ele>358.0</ele>
  <time>2026-09-01T19:52:16Z</time>
  <course>175.42</course>
  <speed>1.2280065146407002</speed>
  <fix>3d</fix>
</trkpt>
<trkpt lat="-27.2744114" lon="151.2900623">
  <ele>358.18</ele>
  <time>2026-09-01T19:52:16Z</time>
  <course>167.23</course>
  <speed>1.12</speed>
  <fix>3d</fix>
</trkpt>
<trkpt lat="-27.2744155" lon="151.2900623">
  <ele>358.0</ele>
  <time>2026-09-01T19:52:16Z</time>
  <course>175.42</course>
  <speed>1.2578155667664477</speed>
  <fix>3d</fix>
</trkpt>
<trkpt lat="-27.2744134" lon="151.2900628">
  <ele>358.18</ele>
  <time>2026-09-01T19:52:16Z</time>
  <course>167.76</course>
  <speed>1.21</speed>
  <fix>3d</fix>
</trkpt>
<trkpt lat="-27.2744167" lon="151.2900626">
  <ele>358.01</ele>
  <time>2026-09-01T19:52:16Z</time>
  <course>175.42</course>
  <speed>1.2876334882255898</speed>
  <fix>3d</fix>
</trkpt>
<trkpt lat="-27.2744134" lon="151.2900628">
  <ele>358.18</ele>
  <time>2026-09-01T19:52:16Z</time>
  <course>167.76</course>
  <speed>1.21</speed>
  <fix>3d</fix>
</trkpt>
<trkpt lat="-27.2744179" lon="151.2900629">
  <ele>358.01</ele>
  <time>2026-09-01T19:52:16Z</time>
  <course>175.42</course>
  <speed>1.317459676802292</speed>
  <fix>3d</fix>
</trkpt>
<trkpt lat="-27.2744156" lon="151.2900633">
  <ele>358.19</ele>
  <time>2026-09-01T19:52:16Z</time>
  <course>168.3</course>
  <speed>1.28</speed>
  <fix>3d</fix>
</trkpt>
<trkpt lat="-27.274419" lon="151.2900631">
  <ele>358.02</ele>
  <time>2026-09-01T19:52:16Z</time>
  <course>175.42</course>
  <speed>1.3373481222179961</speed>
  <fix>3d</fix>
</trkpt>
<trkpt lat="-27.2744156" lon="151.2900633">
  <ele>358.19</ele>
  <time>2026-09-01T19:52:16Z</time>
  <course>168.3</course>
  <speed>1.28</speed>
  <fix>3d</fix>
</trkpt>
<trkpt lat="-27.2744202" lon="151.2900634">
  <ele>358.02</ele>
  <time>2026-09-01T19:52:16Z</time>
  <course>175.42</course>
  <speed>1.3572398461583715</speed>
  <fix>3d</fix>
</trkpt>
<trkpt lat="-27.274418" lon="151.2900639">
  <ele>358.2</ele>
  <time>2026-09-01T19:52:16Z</time>
  <course>168.85</course>
  <speed>1.34</speed>
  <fix>3d</fix>
</trkpt>
<trkpt lat="-27.2744215" lon="151.2900636">
  <ele>358.02</ele>
  <time>2026-09-01T19:52:16Z</time>
  <course>175.43</course>
  <speed>1.3671868928570081</speed>
  <fix>3d</fix>
</trkpt>
<trkpt lat="-27.274418" lon="151.2900639">
  <ele>358.2</ele>
  <time>2026-09-01T19:52:16Z</time>
  <course>168.85</course>
  <speed>1.34</speed>
  <fix>3d</fix>
</trkpt>
<trkpt lat="-27.2744227" lon="151.2900639">
  <ele>358.02</ele>
  <time>2026-09-01T19:52:16Z</time>
  <course>175.42</course>
  <speed>1.3771347065556077</speed>
  <fix>3d</fix>
</trkpt>
<trkpt lat="-27.2744204" lon="151.2900644">
  <ele>358.21</ele>
  <time>2026-09-01T19:52:16Z</time>
  <course>169.42</course>
  <speed>1.38</speed>
  <fix>3d</fix>
</trkpt>
<trkpt lat="-27.2744239" lon="151.2900642">
  <ele>358.02</ele>
  <time>2026-09-01T19:52:16Z</time>
  <course>175.43</course>
  <speed>1.3761540611428649</speed>
  <fix>3d</fix>
</trkpt>
<trkpt lat="-27.2744204" lon="151.2900644">
  <ele>358.21</ele>
  <time>2026-09-01T19:52:16Z</time>
  <course>169.42</course>
  <speed>1.38</speed>
  <fix>3d</fix>
</trkpt>
<trkpt lat="-27.2744252" lon="151.2900644">
  <ele>358.02</ele>
  <time>2026-09-01T19:52:16Z</time>
  <course>175.43</course>
  <speed>1.3761540611428649</speed>
  <fix>3d</fix>
</trkpt>
<trkpt lat="-27.2744228" lon="151.2900649">
  <ele>358.21</ele>
  <time>2026-09-01T19:52:16Z</time>
  <course>170.0</course>
  <speed>1.4</speed>
  <fix>3d</fix>
</trkpt>
<trkpt lat="-27.2744264" lon="151.2900647">
  <ele>358.0</ele>
  <time>2026-09-01T19:52:17Z</time>
  <course>175.44</course>
  <speed>1.3661991070118586</speed>
  <fix>3d</fix>
</trkpt>
<trkpt lat="-27.2744228" lon="151.2900649">
  <ele>358.21</ele>
  <time>2026-09-01T19:52:17Z</time>
  <course>170.0</course>
  <speed>1.4</speed>
  <fix>3d</fix>
</trkpt>
<trkpt lat="-27.2744276" lon="151.2900649">
  <ele>357.97</ele>
  <time>2026-09-01T19:52:17Z</time>
  <course>175.44</course>
  <speed>1.3553228397691819</speed>
  <fix>3d</fix>
</trkpt>
<trkpt lat="-27.2744253" lon="151.2900654">
  <ele>358.2</ele>
  <time>2026-09-01T19:52:17Z</time>
  <course>170.6</course>
  <speed>1.4</speed>
  <fix>3d</fix>
</trkpt>
<trkpt lat="-27.2744289" lon="151.2900651">
  <ele>357.93</ele>
  <time>2026-09-01T19:52:17Z</time>
  <course>175.45</course>
  <speed>1.3453624047073711</speed>
  <fix>3d</fix>
</trkpt>
<trkpt lat="-27.2744253" lon="151.2900654">
  <ele>358.2</ele>
  <time>2026-09-01T19:52:17Z</time>
  <course>170.6</course>
  <speed>1.4</speed>
  <fix>3d</fix>
</trkpt>
<trkpt lat="-27.2744301" lon="151.2900654">
  <ele>357.87</ele>
  <time>2026-09-01T19:52:17Z</time>
  <course>175.45</course>
  <speed>1.334541119636259</speed>
  <fix>3d</fix>
</trkpt>
<trkpt lat="-27.2744278" lon="151.2900658">
  <ele>358.16</ele>
  <time>2026-09-01T19:52:17Z</time>
  <course>171.2</course>
  <speed>1.39</speed>
  <fix>3d</fix>
</trkpt>
<trkpt lat="-27.2744313" lon="151.2900656">
  <ele>357.78</ele>
  <time>2026-09-01T19:52:17Z</time>
  <course>175.46</course>
  <speed>1.3138112497615477</speed>
  <fix>3d</fix>
</trkpt>
<trkpt lat="-27.2744278" lon="151.2900658">
  <ele>358.16</ele>
  <time>2026-09-01T19:52:17Z</time>
  <course>171.2</course>
  <speed>1.39</speed>
  <fix>3d</fix>
</trkpt>
<trkpt lat="-27.2744324" lon="151.2900658">
  <ele>357.68</ele>
  <time>2026-09-01T19:52:17Z</time>
  <course>175.46</course>
  <speed>1.2731849826321389</speed>
  <fix>3d</fix>
</trkpt>
<trkpt lat="-27.2744303" lon="151.2900662">
  <ele>358.06</ele>
  <time>2026-09-01T19:52:17Z</time>
  <course>171.82</course>
  <speed>1.36</speed>
  <fix>3d</fix>
</trkpt>
<trkpt lat="-27.2744336" lon="151.290066">
  <ele>357.56</ele>
  <time>2026-09-01T19:52:17Z</time>
  <course>175.47</course>
  <speed>1.2325988804148738</speed>
  <fix>3d</fix>
</trkpt>
<trkpt lat="-27.2744303" lon="151.2900662">
  <ele>358.06</ele>
  <time>2026-09-01T19:52:17Z</time>
  <course>171.82</course>
  <speed>1.36</speed>
  <fix>3d</fix>
</trkpt>
<trkpt lat="-27.2744347" lon="151.2900661">
  <ele>357.43</ele>
  <time>2026-09-01T19:52:17Z</time>
  <course>175.47</course>
  <speed>1.1820744477400735</speed>
  <fix>3d</fix>
</trkpt>
<trkpt lat="-27.2744327" lon="151.2900666">
  <ele>357.88</ele>
  <time>2026-09-01T19:52:17Z</time>
  <course>172.47</course>
  <speed>1.3</speed>
  <fix>3d</fix>
</trkpt>
<trkpt lat="-27.2744357" lon="151.2900663">
  <ele>357.28</ele>
  <time>2026-09-01T19:52:17Z</time>
  <course>175.48</course>
  <speed>1.131591799192624</speed>
  <fix>3d</fix>
</trkpt>
<trkpt lat="-27.2744327" lon="151.2900666">
  <ele>357.88</ele>
  <time>2026-09-01T19:52:17Z</time>
  <course>172.47</course>
  <speed>1.3</speed>
  <fix>3d</fix>
</trkpt>
<trkpt lat="-27.2744368" lon="151.2900664">
  <ele>357.12</ele>
  <time>2026-09-01T19:52:17Z</time>
  <course>175.49</course>
  <speed>1.071167587261676</speed>
  <fix>3d</fix>
</trkpt>
<trkpt lat="-27.2744349" lon="151.2900669">
  <ele>357.63</ele>
  <time>2026-09-01T19:52:17Z</time>
  <course>173.23</course>
  <speed>1.21</speed>
  <fix>3d</fix>
</trkpt>
<trkpt lat="-27.2744377" lon="151.2900666">
  <ele>356.96</ele>
  <time>2026-09-01T19:52:17Z</time>
  <course>175.51</course>
  <speed>1.0104454463255303</speed>
  <fix>3d</fix>
</trkpt>
<trkpt lat="-27.2744349" lon="151.2900669">
  <ele>357.63</ele>
  <time>2026-09-01T19:52:17Z</time>
  <course>173.23</course>
  <speed>1.21</speed>
  <fix>3d</fix>
</trkpt>
<trkpt lat="-27.2744386" lon="151.2900667">
  <ele>356.79</ele>
  <time>2026-09-01T19:52:17Z</time>
  <course>175.53</course>
  <speed>0.9402127418834527</speed>
  <fix>3d</fix>
</trkpt>
<trkpt lat="-27.274437" lon="151.2900672">
  <ele>357.33</ele>
  <time>2026-09-01T19:52:17Z</time>
  <course>174.17</course>
  <speed>1.1</speed>
  <fix>3d</fix>
</trkpt>
<trkpt lat="-27.2744394" lon="151.2900668">
  <ele>356.63</ele>
  <time>2026-09-01T19:52:17Z</time>
  <course>175.56</course>
  <speed>0.88</speed>
  <fix>3d</fix>
</trkpt>
<trkpt lat="-27.274437" lon="151.2900672">
  <ele>357.33</ele>
  <time>2026-09-01T19:52:17Z</time>
  <course>174.17</course>
  <speed>1.1</speed>
  <fix>3d</fix>
</trkpt>
<trkpt lat="-27.2744402" lon="151.2900668">
  <ele>356.46</ele>
  <time>2026-09-01T19:52:17Z</time>
  <course>175.59</course>
  <speed>0.81</speed>
  <fix>3d</fix>
</trkpt>
<trkpt lat="-27.2744389" lon="151.2900674">
  <ele>357.0</ele>
  <time>2026-09-01T19:52:17Z</time>
  <course>175.36</course>
  <speed>0.97</speed>
  <fix>3d</fix>
</trkpt>
<trkpt lat="-27.2744409" lon="151.2900669">
  <ele>356.3</ele>
  <time>2026-09-01T19:52:17Z</time>
  <course>175.62</course>
  <speed>0.7400675644831355</speed>
  <fix>3d</fix>
</trkpt>
<trkpt lat="-27.2744389" lon="151.2900674">
  <ele>357.0</ele>
  <time>2026-09-01T19:52:17Z</time>
  <course>175.36</course>
  <speed>0.97</speed>
  <fix>3d</fix>
</trkpt>
<trkpt lat="-27.2744416" lon="151.2900669">
  <ele>356.14</ele>
  <time>2026-09-01T19:52:17Z</time>
  <course>175.65</course>
  <speed>0.6706713054842887</speed>
  <fix>3d</fix>
</trkpt>
<trkpt lat="-27.2744405" lon="151.2900675">
  <ele>356.66</ele>
  <time>2026-09-01T19:52:17Z</time>
  <course>176.87</course>
  <speed>0.84</speed>
  <fix>3d</fix>
</trkpt>
<trkpt lat="-27.2744422" lon="151.290067">
  <ele>355.98</ele>
  <time>2026-09-01T19:52:17Z</time>
  <course>175.69</course>
  <speed>0.6013318551349163</speed>
  <fix>3d</fix>
</trkpt>
<trkpt lat="-27.2744405" lon="151.2900675">
  <ele>356.66</ele>
  <time>2026-09-01T19:52:17Z</time>
  <course>176.87</course>
  <speed>0.84</speed>
  <fix>3d</fix>
</trkpt>
<trkpt lat="-27.2744427" lon="151.290067">
  <ele>355.82</ele>
  <time>2026-09-01T19:52:17Z</time>
  <course>175.73</course>
  <speed>0.5323532661682466</speed>
  <fix>3d</fix>
</trkpt>
<trkpt lat="-27.2744419" lon="151.2900675">
  <ele>356.34</ele>
  <time>2026-09-01T19:52:17Z</time>
  <course>178.85</course>
  <speed>0.7</speed>
  <fix>3d</fix>
</trkpt>
<trkpt lat="-27.2744432" lon="151.290067">
  <ele>355.67</ele>
  <time>2026-09-01T19:52:17Z</time>
  <course>175.76</course>
  <speed>0.46529560496527367</speed>
  <fix>3d</fix>
</trkpt>
<trkpt lat="-27.2744419" lon="151.2900675">
  <ele>356.34</ele>
  <time>2026-09-01T19:52:17Z</time>
  <course>178.85</course>
  <speed>0.7</speed>
  <fix>3d</fix>
</trkpt>
<trkpt lat="-27.2744436" lon="151.2900669">
  <ele>355.52</ele>
  <time>2026-09-01T19:52:17Z</time>
  <course>175.8</course>
  <speed>0.4079215610874228</speed>
  <fix>3d</fix>
</trkpt>
<trkpt lat="-27.2744431" lon="151.2900675">
  <ele>356.02</ele>
  <time>2026-09-01T19:52:17Z</time>
  <course>181.53</course>
  <speed>0.56</speed>
  <fix>3d</fix>
</trkpt>
<trkpt lat="-27.274444" lon="151.2900669">
  <ele>355.37</ele>
  <time>2026-09-01T19:52:17Z</time>
  <course>175.83</course>
  <speed>0.35171010790137947</speed>
  <fix>3d</fix>
</trkpt>
<trkpt lat="-27.2744431" lon="151.2900675">
  <ele>356.02</ele>
  <time>2026-09-01T19:52:17Z</time>
  <course>181.53</course>
  <speed>0.56</speed>
  <fix>3d</fix>
</trkpt>
<trkpt lat="-27.2744443" lon="151.2900669">
  <ele>355.23</ele>
  <time>2026-09-01T19:52:17Z</time>
  <course>175.88</course>
  <speed>0.29410882339705485</speed>
  <fix>3d</fix>
</trkpt>
<trkpt lat="-27.274444" lon="151.2900675">
  <ele>355.72</ele>
  <time>2026-09-01T19:52:17Z</time>
  <course>185.29</course>
  <speed>0.43</speed>
  <fix>3d</fix>
</trkpt>
<trkpt lat="-27.2744446" lon="151.2900668">
  <ele>355.09</ele>
  <time>2026-09-01T19:52:17Z</time>
  <course>175.94</course>
  <speed>0.24166091947189144</speed>
  <fix>3d</fix>
</trkpt>
<trkpt lat="-27.274444" lon="151.2900675">
  <ele>355.72</ele>
  <time>2026-09-01T19:52:17Z</time>
  <course>185.29</course>
  <speed>0.43</speed>
  <fix>3d</fix>
</trkpt>
<trkpt lat="-27.2744448" lon="151.2900668">
  <ele>354.95</ele>
  <time>2026-09-01T19:52:17Z</time>
  <course>176.01</course>
  <speed>0.1972308292331602</speed>
  <fix>3d</fix>
</trkpt>
<trkpt lat="-27.2744446" lon="151.2900675">
  <ele>355.43</ele>
  <time>2026-09-01T19:52:17Z</time>
  <course>190.81</course>
  <speed>0.32</speed>
  <fix>3d</fix>
</trkpt>
<trkpt lat="-27.2744449" lon="151.2900668">
  <ele>354.81</ele>
  <time>2026-09-01T19:52:17Z</time>
  <course>176.12</course>
  <speed>0.16278820596099705</speed>
  <fix>3d</fix>
</trkpt>
<trkpt lat="-27.2744446" lon="151.2900675">
  <ele>355.43</ele>
  <time>2026-09-01T19:52:17Z</time>
  <course>190.81</course>
  <speed>0.32</speed>
  <fix>3d</fix>
</trkpt>
<trkpt lat="-27.2744451" lon="151.2900667">
  <ele>354.67</ele>
  <time>2026-09-01T19:52:17Z</time>
  <course>176.26</course>
  <speed>0.12806248474865697</speed>
  <fix>3d</fix>
</trkpt>
<trkpt lat="-27.2744451" lon="151.2900674">
  <ele>355.15</ele>
  <time>2026-09-01T19:52:17Z</time>
  <course>199.44</course>
  <speed>0.22</speed>
  <fix>3d</fix>
</trkpt>
<trkpt lat="-27.2744451" lon="151.2900667">
  <ele>354.52</ele>
  <time>2026-09-01T19:52:17Z</time>
  <course>176.48</course>
  <speed>0.1044030650891055</speed>
  <fix>3d</fix>
</trkpt>
<trkpt lat="-27.2744451" lon="151.2900674">
  <ele>355.15</ele>
  <time>2026-09-01T19:52:17Z</time>
  <course>199.44</course>
  <speed>0.22</speed>
  <fix>3d</fix>
</trkpt>
<trkpt lat="-27.2744452" lon="151.2900666">
  <ele>354.38</ele>
  <time>2026-09-01T19:52:17Z</time>
  <course>176.78</course>
  <speed>0.09</speed>
  <fix>3d</fix>
</trkpt>
<trkpt lat="-27.2744454" lon="151.2900672">
  <ele>354.87</ele>
  <time>2026-09-01T19:52:17Z</time>
  <course>214.22</course>
  <speed>0.13</speed>
  <fix>3d</fix>
</trkpt>
<trkpt lat="-27.2744452" lon="151.2900666">
  <ele>354.24</ele>
  <time>2026-09-01T19:52:17Z</time>
  <course>177.17</course>
  <speed>0.08062257748298549</speed>
  <fix>3d</fix>
</trkpt>
<trkpt lat="-27.2744454" lon="151.2900672">
  <ele>354.87</ele>
  <time>2026-09-01T19:52:17Z</time>
  <course>214.22</course>
  <speed>0.13</speed>
  <fix>3d</fix>
</trkpt>
<trkpt lat="-27.2744452" lon="151.2900666">
  <ele>354.1</ele>
  <time>2026-09-01T19:52:17Z</time>
  <course>177.63</course>
  <speed>0.09219544457292887</speed>
  <fix>3d</fix>
</trkpt>
<trkpt lat="-27.2744455" lon="151.290067">
  <ele>354.59</ele>
  <time>2026-09-01T19:52:17Z</time>
  <course>247.49</course>
  <speed>0.06</speed>
  <fix>3d</fix>
</trkpt>
<trkpt lat="-27.2744451" lon="151.2900666">
  <ele>353.96</ele>
  <time>2026-09-01T19:52:17Z</time>
  <course>178.1</course>
  <speed>0.10770329614269007</speed>
  <fix>3d</fix>
</trkpt>
<trkpt lat="-27.2744455" lon="151.290067">
  <ele>354.59</ele>
  <time>2026-09-01T19:52:17Z</time>
  <course>247.49</course>
  <speed>0.06</speed>
  <fix>3d</fix>
</trkpt>
<trkpt lat="-27.274445" lon="151.2900666">
  <ele>353.82</ele>
  <time>2026-09-01T19:52:17Z</time>
  <course>178.55</course>
  <speed>0.13152946437965907</speed>
  <fix>3d</fix>
</trkpt>
<trkpt lat="-27.2744455" lon="151.290067">
  <ele>354.31</ele>
  <time>2026-09-01T19:52:17Z</time>
  <course>324.33</course>
  <speed>0.05</speed>
  <fix>3d</fix>
</trkpt>
<trkpt lat="-27.2744449" lon="151.2900666">
  <ele>353.68</ele>
  <time>2026-09-01T19:52:17Z</time>
  <course>178.92</course>
  <speed>0.15033296378372907</speed>
  <fix>3d</fix>
</trkpt>
<trkpt lat="-27.2744455" lon="151.290067">
  <ele>354.31</ele>
  <time>2026-09-01T19:52:17Z</time>
  <course>324.33</course>
  <speed>0.05</speed>
  <fix>3d</fix>
</trkpt>
<trkpt lat="-27.2744448" lon="151.2900666">
  <ele>353.55</ele>
  <time>2026-09-01T19:52:17Z</time>
  <course>179.14</course>
  <speed>0.17</speed>
  <fix>3d</fix>
</trkpt>
<trkpt lat="-27.2744454" lon="151.290067">
  <ele>354.03</ele>
  <time>2026-09-01T19:52:17Z</time>
  <course>359.28</course>
  <speed>0.1</speed>
  <fix>3d</fix>
</trkpt>
<trkpt lat="-27.2744448" lon="151.2900666">
  <ele>353.41</ele>
  <time>2026-09-01T19:52:17Z</time>
  <course>179.12</course>
  <speed>0.19</speed>
  <fix>3d</fix>
</trkpt>
<trkpt lat="-27.2744454" lon="151.290067">
  <ele>354.03</ele>
  <time>2026-09-01T19:52:17Z</time>
  <course>359.28</course>
  <speed>0.1</speed>
  <fix>3d</fix>
</trkpt>
<trkpt lat="-27.2744446" lon="151.2900666">
  <ele>353.27</ele>
  <time>2026-09-01T19:52:17Z</time>
  <course>178.9</course>
  <speed>0.21</speed>
  <fix>3d</fix>
</trkpt>
<trkpt lat="-27.2744452" lon="151.290067">
  <ele>353.76</ele>
  <time>2026-09-01T19:52:17Z</time>
  <course>6.93</course>
  <speed>0.15</speed>
  <fix>3d</fix>
</trkpt>
<trkpt lat="-27.2744444" lon="151.2900666">
  <ele>353.14</ele>
  <time>2026-09-01T19:52:17Z</time>
  <course>178.56</course>
  <speed>0.22022715545545238</speed>
  <fix>3d</fix>
</trkpt>
<trkpt lat="-27.2744452" lon="151.290067">
  <ele>353.76</ele>
  <time>2026-09-01T19:52:17Z</time>
  <course>6.93</course>
  <speed>0.15</speed>
  <fix>3d</fix>
</trkpt>
<trkpt lat="-27.2744443" lon="151.2900667">
  <ele>353.01</ele>
  <time>2026-09-01T19:52:17Z</time>
  <course>178.16</course>
  <speed>0.24020824298928628</speed>
  <fix>3d</fix>
</trkpt>
<trkpt lat="-27.2744449" lon="151.290067">
  <ele>353.5</ele>
  <time>2026-09-01T19:52:17Z</time>
  <course>6.53</course>
  <speed>0.19</speed>
  <fix>3d</fix>
</trkpt>
<trkpt lat="-27.2744441" lon="151.2900667">
  <ele>352.88</ele>
  <time>2026-09-01T19:52:17Z</time>
  <course>177.74</course>
  <speed>0.25079872407968906</speed>
  <fix>3d</fix>
</trkpt>
<trkpt lat="-27.2744449" lon="151.290067">
  <ele>353.5</ele>
  <time>2026-09-01T19:52:17Z</time>
  <course>6.53</course>
  <speed>0.19</speed>
  <fix>3d</fix>
</trkpt>
<trkpt lat="-27.2744439" lon="151.2900667">
  <ele>352.75</ele>
  <time>2026-09-01T19:52:17Z</time>
  <course>177.37</course>
  <speed>0.260768096208106</speed>
  <fix>3d</fix>
</trkpt>
<trkpt lat="-27.2744445" lon="151.290067">
  <ele>353.24</ele>
  <time>2026-09-01T19:52:17Z</time>
  <course>4.74</course>
  <speed>0.22</speed>
  <fix>3d</fix>
</trkpt>
<trkpt lat="-27.2744436" lon="151.2900667">
  <ele>352.63</ele>
  <time>2026-09-01T19:52:17Z</time>
  <course>177.06</course>
  <speed>0.2707397274136177</speed>
  <fix>3d</fix>
</trkpt>
<trkpt lat="-27.2744445" lon="151.290067">
  <ele>353.24</ele>
  <time>2026-09-01T19:52:17Z</time>
  <course>4.74</course>
  <speed>0.22</speed>
  <fix>3d</fix>
</trkpt>
<trkpt lat="-27.2744434" lon="151.2900667">
  <ele>352.51</ele>
  <time>2026-09-01T19:52:17Z</time>
  <course>176.87</course>
  <speed>0.280713376952364</speed>
  <fix>3d</fix>
</trkpt>
<trkpt lat="-27.274444" lon="151.290067">
  <ele>352.98</ele>
  <time>2026-09-01T19:52:17Z</time>
  <course>2.97</course>
  <speed>0.24</speed>
  <fix>3d</fix>
</trkpt>
<trkpt lat="-27.2744432" lon="151.2900667">
  <ele>352.39</ele>
  <time>2026-09-01T19:52:17Z</time>
  <course>176.79</course>
  <speed>0.280713376952364</speed>
  <fix>3d</fix>
</trkpt>
<trkpt lat="-27.274444" lon="151.290067">
  <ele>352.98</ele>
  <time>2026-09-01T19:52:17Z</time>
  <course>2.97</course>
  <speed>0.24</speed>
  <fix>3d</fix>
</trkpt>
<trkpt lat="-27.274443" lon="151.2900667">
  <ele>352.27</ele>
  <time>2026-09-01T19:52:17Z</time>
  <course>176.83</course>
  <speed>0.2906888370749727</speed>
  <fix>3d</fix>
</trkpt>
<trkpt lat="-27.2744436" lon="151.290067">
  <ele>352.74</ele>
  <time>2026-09-01T19:52:17Z</time>
  <course>1.83</course>
  <speed>0.26</speed>
  <fix>3d</fix>
</trkpt>
<trkpt lat="-27.2744427" lon="151.2900667">
  <ele>352.16</ele>
  <time>2026-09-01T19:52:17Z</time>
  <course>176.94</course>
  <speed>0.2906888370749727</speed>
  <fix>3d</fix>
</trkpt>
<trkpt lat="-27.2744436" lon="151.290067">
  <ele>352.74</ele>
  <time>2026-09-01T19:52:17Z</time>
  <course>1.83</course>
  <speed>0.26</speed>
  <fix>3d</fix>
</trkpt>
<trkpt lat="-27.2744425" lon="151.2900667">
  <ele>352.05</ele>
  <time>2026-09-01T19:52:17Z</time>
  <course>177.1</course>
  <speed>0.30066592756745814</speed>
  <fix>3d</fix>
</trkpt>
<trkpt lat="-27.2744431" lon="151.290067">
  <ele>352.51</ele>
  <time>2026-09-01T19:52:17Z</time>
  <course>1.36</course>
  <speed>0.27</speed>
  <fix>3d</fix>
</trkpt>
<trkpt lat="-27.2744422" lon="151.2900667">
  <ele>351.94</ele>
  <time>2026-09-01T19:52:17Z</time>
  <course>177.27</course>
  <speed>0.30066592756745814</speed>
  <fix>3d</fix>
</trkpt>
<trkpt lat="-27.2744431" lon="151.290067">
  <ele>352.51</ele>
  <time>2026-09-01T19:52:17Z</time>
  <course>1.36</course>
  <speed>0.27</speed>
  <fix>3d</fix>
</trkpt>
<trkpt lat="-27.274442" lon="151.2900667">
  <ele>351.83</ele>
  <time>2026-09-01T19:52:17Z</time>
  <course>177.41</course>
  <speed>0.3014962686336267</speed>
  <fix>3d</fix>
</trkpt>
<trkpt lat="-27.2744426" lon="151.290067">
  <ele>352.28</ele>
  <time>2026-09-01T19:52:17Z</time>
  <course>1.25</course>
  <speed>0.28</speed>
  <fix>3d</fix>
</trkpt>
<trkpt lat="-27.2744417" lon="151.2900667">
  <ele>351.72</ele>
  <time>2026-09-01T19:52:17Z</time>
  <course>177.49</course>
  <speed>0.3014962686336267</speed>
  <fix>3d</fix>
</trkpt>
<trkpt lat="-27.2744426" lon="151.290067">
  <ele>352.28</ele>
  <time>2026-09-01T19:52:17Z</time>
  <course>1.25</course>
  <speed>0.28</speed>
  <fix>3d</fix>
</trkpt>
<trkpt lat="-27.2744415" lon="151.2900667">
  <ele>351.62</ele>
  <time>2026-09-01T19:52:17Z</time>
  <course>177.48</course>
  <speed>0.3014962686336267</speed>
  <fix>3d</fix>
</trkpt>
<trkpt lat="-27.2744421" lon="151.290067">
  <ele>352.07</ele>
  <time>2026-09-01T19:52:17Z</time>
  <course>0.76</course>
  <speed>0.28</speed>
  <fix>3d</fix>
</trkpt>
<trkpt lat="-27.2744412" lon="151.2900667">
  <ele>351.52</ele>
  <time>2026-09-01T19:52:17Z</time>
  <course>177.41</course>
  <speed>0.3026549190084311</speed>
  <fix>3d</fix>
</trkpt>
<trkpt lat="-27.2744421" lon="151.290067">
  <ele>352.07</ele>
  <time>2026-09-01T19:52:17Z</time>
  <course>0.76</course>
  <speed>0.28</speed>
  <fix>3d</fix>
</trkpt>
<trkpt lat="-27.274441" lon="151.2900667">
  <ele>351.42</ele>
  <time>2026-09-01T19:52:17Z</time>
  <course>177.28</course>
  <speed>0.29274562336608895</speed>
  <fix>3d</fix>
</trkpt>
<trkpt lat="-27.2744416" lon="151.290067">
  <ele>351.86</ele>
  <time>2026-09-01T19:52:17Z</time>
  <course>359.44</course>
  <speed>0.28</speed>
  <fix>3d</fix>
</trkpt>
<trkpt lat="-27.2744407" lon="151.2900666">
  <ele>351.33</ele>
  <time>2026-09-01T19:52:17Z</time>
  <course>177.12</course>
  <speed>0.2942787793912432</speed>
  <fix>3d</fix>
</trkpt>
<trkpt lat="-27.2744416" lon="151.290067">
  <ele>351.86</ele>
  <time>2026-09-01T19:52:17Z</time>
  <course>359.44</course>
  <speed>0.28</speed>
  <fix>3d</fix>
</trkpt>
<trkpt lat="-27.2744405" lon="151.2900666">
  <ele>351.23</ele>
  <time>2026-09-01T19:52:17Z</time>
  <course>176.94</course>
  <speed>0.28442925306655786</speed>
  <fix>3d</fix>
</trkpt>
<trkpt lat="-27.2744411" lon="151.290067">
  <ele>351.66</ele>
  <time>2026-09-01T19:52:17Z</time>
  <course>357.37</course>
  <speed>0.28</speed>
  <fix>3d</fix>
</trkpt>
<trkpt lat="-27.2744402" lon="151.2900666">
  <ele>351.14</ele>
  <time>2026-09-01T19:52:17Z</time>
  <course>176.76</course>
  <speed>0.2863564212655271</speed>
  <fix>3d</fix>
</trkpt>
<trkpt lat="-27.2744411" lon="151.290067">
  <ele>351.66</ele>
  <time>2026-09-01T19:52:17Z</time>
  <course>357.37</course>
  <speed>0.28</speed>
  <fix>3d</fix>
</trkpt>
<trkpt lat="-27.27444" lon="151.2900666">
  <ele>351.04</ele>
  <time>2026-09-01T19:52:17Z</time>
  <course>176.6</course>
  <speed>0.27892651361962706</speed>
  <fix>3d</fix>
</trkpt>
<trkpt lat="-27.2744406" lon="151.290067">
  <ele>351.47</ele>
  <time>2026-09-01T19:52:17Z</time>
  <course>354.61</course>
  <speed>0.27</speed>
  <fix>3d</fix>
</trkpt>
<trkpt lat="-27.2744398" lon="151.2900666">
  <ele>350.95</ele>
  <time>2026-09-01T19:52:17Z</time>
  <course>176.46</course>
  <speed>0.2816025568065745</speed>
  <fix>3d</fix>
</trkpt>
<trkpt lat="-27.2744406" lon="151.290067">
  <ele>351.47</ele>
  <time>2026-09-01T19:52:17Z</time>
  <course>354.61</course>
  <speed>0.27</speed>
  <fix>3d</fix>
</trkpt>
<trkpt lat="-27.2744395" lon="151.2900666">
  <ele>350.86</ele>
  <time>2026-09-01T19:52:17Z</time>
  <course>176.35</course>
  <speed>0.2720294101747089</speed>
  <fix>3d</fix>
</trkpt>
<trkpt lat="-27.2744401" lon="151.290067">
  <ele>351.28</ele>
  <time>2026-09-01T19:52:17Z</time>
  <course>351.27</course>
  <speed>0.26</speed>
  <fix>3d</fix>
</trkpt>
<trkpt lat="-27.2744393" lon="151.2900665">
  <ele>350.77</ele>
  <time>2026-09-01T19:52:17Z</time>
  <course>176.27</course>
  <speed>0.26570660511172844</speed>
  <fix>3d</fix>
</trkpt>
<trkpt lat="-27.2744401" lon="151.290067">
  <ele>351.28</ele>
  <time>2026-09-01T19:52:17Z</time>
  <course>351.27</course>
  <speed>0.26</speed>
  <fix>3d</fix>
</trkpt>
<trkpt lat="-27.2744391" lon="151.2900664">
  <ele>350.69</ele>
  <time>2026-09-01T19:52:17Z</time>
  <course>176.2</course>
  <speed>0.26</speed>
  <fix>3d</fix>
</trkpt>
<trkpt lat="-27.2744397" lon="151.2900669">
  <ele>351.1</ele>
  <time>2026-09-01T19:52:17Z</time>
  <course>347.31</course>
  <speed>0.25</speed>
  <fix>3d</fix>
</trkpt>
<trkpt lat="-27.2744389" lon="151.2900664">
  <ele>350.6</ele>
  <time>2026-09-01T19:52:17Z</time>
  <course>176.15</course>
  <speed>0.25495097567963926</speed>
  <fix>3d</fix>
</trkpt>
<trkpt lat="-27.2744397" lon="151.2900669">
  <ele>351.1</ele>
  <time>2026-09-01T19:52:17Z</time>
  <course>347.31</course>
  <speed>0.25</speed>
  <fix>3d</fix>
</trkpt>
<trkpt lat="-27.2744387" lon="151.2900663">
  <ele>350.52</ele>
  <time>2026-09-01T19:52:17Z</time>
  <course>176.1</course>
  <speed>0.24596747752497689</speed>
  <fix>3d</fix>
</trkpt>
<trkpt lat="-27.2744393" lon="151.2900668">
  <ele>350.93</ele>
  <time>2026-09-01T19:52:17Z</time>
  <course>342.67</course>
  <speed>0.24</speed>
  <fix>3d</fix>
</trkpt>
<trkpt lat="-27.2744386" lon="151.2900662">
  <ele>350.44</ele>
  <time>2026-09-01T19:52:17Z</time>
  <course>176.05</course>
  <speed>0.25059928172283336</speed>
  <fix>3d</fix>
</trkpt>
<trkpt lat="-27.2744393" lon="151.2900668">
  <ele>350.93</ele>
  <time>2026-09-01T19:52:17Z</time>
  <course>342.67</course>
  <speed>0.24</speed>
  <fix>3d</fix>
</trkpt>
<trkpt lat="-27.2744384" lon="151.2900661">
  <ele>350.36</ele>
  <time>2026-09-01T19:52:17Z</time>
  <course>175.99</course>
  <speed>0.24698178070456936</speed>
  <fix>3d</fix>
</trkpt>
<trkpt lat="-27.2744389" lon="151.2900667">
  <ele>350.76</ele>
  <time>2026-09-01T19:52:17Z</time>
  <course>337.46</course>
  <speed>0.23</speed>
  <fix>3d</fix>
</trkpt>
<trkpt lat="-27.2744382" lon="151.290066">
  <ele>350.28</ele>
  <time>2026-09-01T19:52:17Z</time>
  <course>175.93</course>
  <speed>0.24413111231467405</speed>
  <fix>3d</fix>
</trkpt>
<trkpt lat="-27.2744389" lon="151.2900667">
  <ele>350.76</ele>
  <time>2026-09-01T19:52:17Z</time>
  <course>337.46</course>
  <speed>0.23</speed>
  <fix>3d</fix>
</trkpt>
<trkpt lat="-27.2744381" lon="151.2900659">
  <ele>350.21</ele>
  <time>2026-09-01T19:52:17Z</time>
  <course>175.86</course>
  <speed>0.23600847442411893</speed>
  <fix>3d</fix>
</trkpt>
<trkpt lat="-27.2744385" lon="151.2900665">
  <ele>350.59</ele>
  <time>2026-09-01T19:52:17Z</time>
  <course>331.72</course>
  <speed>0.22</speed>
  <fix>3d</fix>
</trkpt>
<trkpt lat="-27.2744379" lon="151.2900658">
  <ele>350.13</ele>
  <time>2026-09-01T19:52:17Z</time>
  <course>175.8</course>
  <speed>0.23430749027719963</speed>
  <fix>3d</fix>
</trkpt>
<trkpt lat="-27.2744385" lon="151.2900665">
  <ele>350.59</ele>
  <time>2026-09-01T19:52:17Z</time>
  <course>331.72</course>
  <speed>0.22</speed>
  <fix>3d</fix>
</trkpt>
<trkpt lat="-27.2744378" lon="151.2900657">
  <ele>350.06</ele>
  <time>2026-09-01T19:52:17Z</time>
  <course>175.73</course>
  <speed>0.23345235059857505</speed>
  <fix>3d</fix>
</trkpt>
<trkpt lat="-27.2744381" lon="151.2900662">
  <ele>350.44</ele>
  <time>2026-09-01T19:52:17Z</time>
  <course>325.52</course>
  <speed>0.21</speed>
  <fix>3d</fix>
</trkpt>
<trkpt lat="-27.2744376" lon="151.2900655">
  <ele>349.99</ele>
  <time>2026-09-01T19:52:17Z</time>
  <course>175.67</course>
  <speed>0.2193171219946131</speed>
  <fix>3d</fix>
</trkpt>
<trkpt lat="-27.2744381" lon="151.2900662">
  <ele>350.44</ele>
  <time>2026-09-01T19:52:17Z</time>
  <course>325.52</course>
  <speed>0.21</speed>
  <fix>3d</fix>
</trkpt>
<trkpt lat="-27.2744375" lon="151.2900654">
  <ele>349.92</ele>
  <time>2026-09-01T19:52:17Z</time>
  <course>175.61</course>
  <speed>0.22022715545545238</speed>
  <fix>3d</fix>
</trkpt>
<trkpt lat="-27.2744378" lon="151.2900659">
  <ele>350.29</ele>
  <time>2026-09-01T19:52:17Z</time>
  <course>319.02</course>
  <speed>0.2</speed>
  <fix>3d</fix>
</trkpt>
<trkpt lat="-27.2744374" lon="151.2900653">
  <ele>349.84</ele>
  <time>2026-09-01T19:52:17Z</time>
  <course>175.55</course>
  <speed>0.21400934559032694</speed>
  <fix>3d</fix>
</trkpt>
<trkpt lat="-27.2744378" lon="151.2900659">
  <ele>350.29</ele>
  <time>2026-09-01T19:52:17Z</time>
  <course>319.02</course>
  <speed>0.2</speed>
  <fix>3d</fix>
</trkpt>
<trkpt lat="-27.2744373" lon="151.2900651">
  <ele>349.77</ele>
  <time>2026-09-01T19:52:17Z</time>
  <course>175.51</course>
  <speed>0.20808652046684814</speed>
  <fix>3d</fix>
</trkpt>
<trkpt lat="-27.2744376" lon="151.2900656">
  <ele>350.15</ele>
  <time>2026-09-01T19:52:17Z</time>
  <course>312.35</course>
  <speed>0.19</speed>
  <fix>3d</fix>
</trkpt>
<trkpt lat="-27.2744372" lon="151.290065">
  <ele>349.7</ele>
  <time>2026-09-01T19:52:17Z</time>
  <course>175.46</course>
  <speed>0.2109502310972899</speed>
  <fix>3d</fix>
</trkpt>
<trkpt lat="-27.2744376" lon="151.2900656">
  <ele>350.15</ele>
  <time>2026-09-01T19:52:17Z</time>
  <course>312.35</course>
  <speed>0.19</speed>
  <fix>3d</fix>
</trkpt>
<trkpt lat="-27.2744371" lon="151.2900648">
  <ele>349.63</ele>
  <time>2026-09-01T19:52:17Z</time>
  <course>175.42</course>
  <speed>0.20591260281974003</speed>
  <fix>3d</fix>
</trkpt>
<trkpt lat="-27.2744373" lon="151.2900653">
  <ele>350.01</ele>
  <time>2026-09-01T19:52:17Z</time>
  <course>305.58</course>
  <speed>0.18</speed>
  <fix>3d</fix>
</trkpt>
<trkpt lat="-27.274437" lon="151.2900646">
  <ele>349.56</ele>
  <time>2026-09-01T19:52:17Z</time>
  <course>175.38</course>
  <speed>0.20124611797498107</speed>
  <fix>3d</fix>
</trkpt>
<trkpt lat="-27.2744373" lon="151.2900653">
  <ele>350.01</ele>
  <time>2026-09-01T19:52:17Z</time>
  <course>305.58</course>
  <speed>0.18</speed>
  <fix>3d</fix>
</trkpt>
<trkpt lat="-27.274437" lon="151.2900645">
  <ele>349.5</ele>
  <time>2026-09-01T19:52:17Z</time>
  <course>175.34</course>
  <speed>0.19697715603592209</speed>
  <fix>3d</fix>
</trkpt>
<trkpt lat="-27.2744372" lon="151.290065">
  <ele>349.87</ele>
  <time>2026-09-01T19:52:17Z</time>
  <course>298.73</course>
  <speed>0.18</speed>
  <fix>3d</fix>
</trkpt>
<trkpt lat="-27.2744369" lon="151.2900643">
  <ele>349.43</ele>
  <time>2026-09-01T19:52:18Z</time>
  <course>175.31</course>
  <speed>0.19313207915827968</speed>
  <fix>3d</fix>
</trkpt>
<trkpt lat="-27.2744372" lon="151.290065">
  <ele>349.87</ele>
  <time>2026-09-01T19:52:18Z</time>
  <course>298.73</course>
  <speed>0.18</speed>
  <fix>3d</fix>
</trkpt>
<trkpt lat="-27.2744369" lon="151.2900642">
  <ele>349.37</ele>
  <time>2026-09-01T19:52:18Z</time>
  <course>175.28</course>
  <speed>0.18973665961010278</speed>
  <fix>3d</fix>
</trkpt>
<trkpt lat="-27.274437" lon="151.2900647">
  <ele>349.74</ele>
  <time>2026-09-01T19:52:18Z</time>
  <course>291.83</course>
  <speed>0.17</speed>
  <fix>3d</fix>
</trkpt>
<trkpt lat="-27.2744368" lon="151.290064">
  <ele>349.31</ele>
  <time>2026-09-01T19:52:18Z</time>
  <course>175.24</course>
  <speed>0.18681541692269404</speed>
  <fix>3d</fix>
</trkpt>
<trkpt lat="-27.274437" lon="151.2900647">
  <ele>349.74</ele>
  <time>2026-09-01T19:52:18Z</time>
  <course>291.83</course>
  <speed>0.17</speed>
  <fix>3d</fix>
</trkpt>
<trkpt lat="-27.2744368" lon="151.2900638">
  <ele>349.25</ele>
  <time>2026-09-01T19:52:18Z</time>
  <course>175.21</course>
  <speed>0.18439088914585774</speed>
  <fix>3d</fix>
</trkpt>
<trkpt lat="-27.2744369" lon="151.2900644">
  <ele>349.61</ele>
  <time>2026-09-01T19:52:18Z</time>
  <course>284.92</course>
  <speed>0.16</speed>
  <fix>3d</fix>
</trkpt>
<trkpt lat="-27.2744368" lon="151.2900637">
  <ele>349.19</ele>
  <time>2026-09-01T19:52:18Z</time>
  <course>175.18</course>
  <speed>0.1824828759089466</speed>
  <fix>3d</fix>
</trkpt>
<trkpt lat="-27.2744369" lon="151.2900644">
  <ele>349.61</ele>
  <time>2026-09-01T19:52:18Z</time>
  <course>284.92</course>
  <speed>0.16</speed>
  <fix>3d</fix>
</trkpt>
<trkpt lat="-27.2744368" lon="151.2900635">
  <ele>349.14</ele>
  <time>2026-09-01T19:52:18Z</time>
  <course>175.15</course>
  <speed>0.1711724276862369</speed>
  <fix>3d</fix>
</trkpt>
<trkpt lat="-27.2744369" lon="151.2900641">
  <ele>349.49</ele>
  <time>2026-09-01T19:52:18Z</time>
  <course>277.97</course>
  <speed>0.16</speed>
  <fix>3d</fix>
</trkpt>
<trkpt lat="-27.2744368" lon="151.2900634">
  <ele>349.08</ele>
  <time>2026-09-01T19:52:18Z</time>
  <course>175.13</course>
  <speed>0.17029386365926402</speed>
  <fix>3d</fix>
</trkpt>
<trkpt lat="-27.2744369" lon="151.2900641">
  <ele>349.49</ele>
  <time>2026-09-01T19:52:18Z</time>
  <course>277.97</course>
  <speed>0.16</speed>
  <fix>3d</fix>
</trkpt>
<trkpt lat="-27.2744368" lon="151.2900632">
  <ele>349.03</ele>
  <time>2026-09-01T19:52:18Z</time>
  <course>175.11</course>
  <speed>0.16</speed>
  <fix>3d</fix>
</trkpt>
<trkpt lat="-27.2744369" lon="151.2900637">
  <ele>349.37</ele>
  <time>2026-09-01T19:52:18Z</time>
  <course>270.85</course>
  <speed>0.15</speed>
  <fix>3d</fix>
</trkpt>
<trkpt lat="-27.2744368" lon="151.2900631">
  <ele>348.98</ele>
  <time>2026-09-01T19:52:18Z</time>
  <course>175.08</course>
  <speed>0.16</speed>
  <fix>3d</fix>
</trkpt>
<trkpt lat="-27.2744369" lon="151.2900637">
  <ele>349.37</ele>
  <time>2026-09-01T19:52:18Z</time>
  <course>270.85</course>
  <speed>0.15</speed>
  <fix>3d</fix>
</trkpt>
<trkpt lat="-27.2744368" lon="151.290063">
  <ele>348.92</ele>
  <time>2026-09-01T19:52:18Z</time>
  <course>175.06</course>
  <speed>0.15033296378372907</speed>
  <fix>3d</fix>
</trkpt>
<trkpt lat="-27.2744369" lon="151.2900634">
  <ele>349.26</ele>
  <time>2026-09-01T19:52:18Z</time>
  <course>263.13</course>
  <speed>0.14</speed>
  <fix>3d</fix>
</trkpt>
<trkpt lat="-27.2744368" lon="151.2900628">
  <ele>348.87</ele>
  <time>2026-09-01T19:52:18Z</time>
  <course>175.04</course>
  <speed>0.15132745950421556</speed>
  <fix>3d</fix>
</trkpt>
<trkpt lat="-27.2744369" lon="151.2900634">
  <ele>349.26</ele>
  <time>2026-09-01T19:52:18Z</time>
  <course>263.13</course>
  <speed>0.14</speed>
  <fix>3d</fix>
</trkpt>
<trkpt lat="-27.2744368" lon="151.2900627">
  <ele>348.82</ele>
  <time>2026-09-01T19:52:18Z</time>
  <course>175.01</course>
  <speed>0.14317821063276354</speed>
  <fix>3d</fix>
</trkpt>
<trkpt lat="-27.2744369" lon="151.2900631">
  <ele>349.15</ele>
  <time>2026-09-01T19:52:18Z</time>
  <course>254.75</course>
  <speed>0.14</speed>
  <fix>3d</fix>
</trkpt>
<trkpt lat="-27.2744369" lon="151.2900626">
  <ele>348.77</ele>
  <time>2026-09-01T19:52:18Z</time>
  <course>175.0</course>
  <speed>0.13601470508735444</speed>
  <fix>3d</fix>
</trkpt>
<trkpt lat="-27.2744369" lon="151.2900631">
  <ele>349.15</ele>
  <time>2026-09-01T19:52:18Z</time>
  <course>254.75</course>
  <speed>0.14</speed>
  <fix>3d</fix>
</trkpt>
<trkpt lat="-27.2744369" lon="151.2900625">
  <ele>348.72</ele>
  <time>2026-09-01T19:52:18Z</time>
  <course>174.98</course>
  <speed>0.13601470508735444</speed>
  <fix>3d</fix>
</trkpt>
<trkpt lat="-27.2744369" lon="151.2900629">
  <ele>349.05</ele>
  <time>2026-09-01T19:52:18Z</time>
  <course>246.04</course>
  <speed>0.13</speed>
  <fix>3d</fix>
</trkpt>
<trkpt lat="-27.274437" lon="151.2900624">
  <ele>348.67</ele>
  <time>2026-09-01T19:52:18Z</time>
  <course>174.97</course>
  <speed>0.13</speed>
  <fix>3d</fix>
</trkpt>
<trkpt lat="-27.2744369" lon="151.2900629">
  <ele>349.05</ele>
  <time>2026-09-01T19:52:18Z</time>
  <course>246.04</course>
  <speed>0.13</speed>
  <fix>3d</fix>
</trkpt>
<trkpt lat="-27.274437" lon="151.2900623">
  <ele>348.62</ele>
  <time>2026-09-01T19:52:18Z</time>
  <course>174.96</course>
  <speed>0.12529964086141668</speed>
  <fix>3d</fix>
</trkpt>
<trkpt lat="-27.274437" lon="151.2900627">
  <ele>348.95</ele>
  <time>2026-09-01T19:52:18Z</time>
  <course>237.1</course>
  <speed>0.12</speed>
  <fix>3d</fix>
</trkpt>
<trkpt lat="-27.2744371" lon="151.2900622">
  <ele>348.57</ele>
  <time>2026-09-01T19:52:18Z</time>
  <course>174.95</course>
  <speed>0.11661903789690602</speed>
  <fix>3d</fix>
</trkpt>
<trkpt lat="-27.274437" lon="151.2900627">
  <ele>348.95</ele>
  <time>2026-09-01T19:52:18Z</time>
  <course>237.1</course>
  <speed>0.12</speed>
  <fix>3d</fix>
</trkpt>
<trkpt lat="-27.2744372" lon="151.2900621">
  <ele>348.52</ele>
  <time>2026-09-01T19:52:18Z</time>
  <course>174.94</course>
  <speed>0.11401754250991379</speed>
  <fix>3d</fix>
</trkpt>
<trkpt lat="-27.2744372" lon="151.2900624">
  <ele>348.84</ele>
  <time>2026-09-01T19:52:18Z</time>
  <course>227.59</course>
  <speed>0.12</speed>
  <fix>3d</fix>
</trkpt>
<trkpt lat="-27.2744373" lon="151.290062">
  <ele>348.46</ele>
  <time>2026-09-01T19:52:18Z</time>
  <course>174.93</course>
  <speed>0.1063014581273465</speed>
  <fix>3d</fix>
</trkpt>
<trkpt lat="-27.2744372" lon="151.2900624">
  <ele>348.84</ele>
  <time>2026-09-01T19:52:18Z</time>
  <course>227.59</course>
  <speed>0.12</speed>
  <fix>3d</fix>
</trkpt>
<trkpt lat="-27.2744373" lon="151.290062">
  <ele>348.41</ele>
  <time>2026-09-01T19:52:18Z</time>
  <course>174.91</course>
  <speed>0.09899494936611665</speed>
  <fix>3d</fix>
</trkpt>
<trkpt lat="-27.2744373" lon="151.2900623">
  <ele>348.75</ele>
  <time>2026-09-01T19:52:18Z</time>
  <course>217.51</course>
  <speed>0.11</speed>
  <fix>3d</fix>
</trkpt>
<trkpt lat="-27.2744374" lon="151.2900619">
  <ele>348.36</ele>
  <time>2026-09-01T19:52:18Z</time>
  <course>174.91</course>
  <speed>0.1</speed>
  <fix>3d</fix>
</trkpt>
<trkpt lat="-27.2744373" lon="151.2900623">
  <ele>348.75</ele>
  <time>2026-09-01T19:52:18Z</time>
  <course>217.51</course>
  <speed>0.11</speed>
  <fix>3d</fix>
</trkpt>
<trkpt lat="-27.2744375" lon="151.2900619">
  <ele>348.31</ele>
  <time>2026-09-01T19:52:18Z</time>
  <course>174.91</course>
  <speed>0.09433981132056603</speed>
  <fix>3d</fix>
</trkpt>
<trkpt lat="-27.2744375" lon="151.2900622">
  <ele>348.65</ele>
  <time>2026-09-01T19:52:18Z</time>
  <course>207.28</course>
  <speed>0.11</speed>
  <fix>3d</fix>
</trkpt>
<trkpt lat="-27.2744376" lon="151.2900619">
  <ele>348.26</ele>
  <time>2026-09-01T19:52:18Z</time>
  <course>174.92</course>
  <speed>0.08944271909999159</speed>
  <fix>3d</fix>
</trkpt>
<trkpt lat="-27.2744375" lon="151.2900622">
  <ele>348.65</ele>
  <time>2026-09-01T19:52:18Z</time>
  <course>207.28</course>
  <speed>0.11</speed>
  <fix>3d</fix>
</trkpt>
<trkpt lat="-27.2744377" lon="151.2900619">
  <ele>348.21</ele>
  <time>2026-09-01T19:52:18Z</time>
  <course>174.92</course>
  <speed>0.09486832980505139</speed>
  <fix>3d</fix>
</trkpt>
<trkpt lat="-27.2744377" lon="151.2900621">
  <ele>348.55</ele>
  <time>2026-09-01T19:52:18Z</time>
  <course>197.01</course>
  <speed>0.11</speed>
  <fix>3d</fix>
</trkpt>
<trkpt lat="-27.2744378" lon="151.2900618">
  <ele>348.16</ele>
  <time>2026-09-01T19:52:18Z</time>
  <course>174.92</course>
  <speed>0.09219544457292887</speed>
  <fix>3d</fix>
</trkpt>
<trkpt lat="-27.2744377" lon="151.2900621">
  <ele>348.55</ele>
  <time>2026-09-01T19:52:18Z</time>
  <course>197.01</course>
  <speed>0.11</speed>
  <fix>3d</fix>
</trkpt>
<trkpt lat="-27.2744379" lon="151.2900619">
  <ele>348.11</ele>
  <time>2026-09-01T19:52:18Z</time>
  <course>174.91</course>
  <speed>0.09055385138137417</speed>
  <fix>3d</fix>
</trkpt>
<trkpt lat="-27.2744379" lon="151.290062">
  <ele>348.45</ele>
  <time>2026-09-01T19:52:18Z</time>
  <course>187.04</course>
  <speed>0.11</speed>
  <fix>3d</fix>
</trkpt>
<trkpt lat="-27.274438" lon="151.2900619">
  <ele>348.06</ele>
  <time>2026-09-01T19:52:18Z</time>
  <course>174.9</course>
  <speed>0.09</speed>
  <fix>3d</fix>
</trkpt>
<trkpt lat="-27.2744379" lon="151.290062">
  <ele>348.45</ele>
  <time>2026-09-01T19:52:18Z</time>
  <course>187.04</course>
  <speed>0.11</speed>
  <fix>3d</fix>
</trkpt>
<trkpt lat="-27.2744381" lon="151.2900619">
  <ele>348.01</ele>
  <time>2026-09-01T19:52:18Z</time>
  <course>174.89</course>
  <speed>0.09</speed>
  <fix>3d</fix>
</trkpt>
<trkpt lat="-27.2744381" lon="151.290062">
  <ele>348.34</ele>
  <time>2026-09-01T19:52:18Z</time>
  <course>177.8</course>
  <speed>0.11</speed>
  <fix>3d</fix>
</trkpt>
<trkpt lat="-27.2744382" lon="151.2900619">
  <ele>347.96</ele>
  <time>2026-09-01T19:52:18Z</time>
  <course>174.88</course>
  <speed>0.09</speed>
  <fix>3d</fix>
</trkpt>
<trkpt lat="-27.2744381" lon="151.290062">
  <ele>348.34</ele>
  <time>2026-09-01T19:52:18Z</time>
  <course>177.8</course>
  <speed>0.11</speed>
  <fix>3d</fix>
</trkpt>
<trkpt lat="-27.2744383" lon="151.2900619">
  <ele>347.91</ele>
  <time>2026-09-01T19:52:18Z</time>
  <course>174.86</course>
  <speed>0.09055385138137417</speed>
  <fix>3d</fix>
</trkpt>
<trkpt lat="-27.2744383" lon="151.2900621">
  <ele>348.25</ele>
  <time>2026-09-01T19:52:18Z</time>
  <course>169.53</course>
  <speed>0.12</speed>
  <fix>3d</fix>
</trkpt>
<trkpt lat="-27.2744384" lon="151.2900619">
  <ele>347.86</ele>
  <time>2026-09-01T19:52:18Z</time>
  <course>174.84</course>
  <speed>0.09219544457292887</speed>
  <fix>3d</fix>
</trkpt>
<trkpt lat="-27.2744383" lon="151.2900621">
  <ele>348.25</ele>
  <time>2026-09-01T19:52:18Z</time>
  <course>169.53</course>
  <speed>0.12</speed>
  <fix>3d</fix>
</trkpt>
<trkpt lat="-27.2744385" lon="151.2900619">
  <ele>347.81</ele>
  <time>2026-09-01T19:52:18Z</time>
  <course>174.82</course>
  <speed>0.09486832980505139</speed>
  <fix>3d</fix>
</trkpt>
<trkpt lat="-27.2744385" lon="151.2900621">
  <ele>348.15</ele>
  <time>2026-09-01T19:52:18Z</time>
  <course>162.01</course>
  <speed>0.12</speed>
  <fix>3d</fix>
</trkpt>
<trkpt lat="-27.2744386" lon="151.290062">
  <ele>347.76</ele>
  <time>2026-09-01T19:52:18Z</time>
  <course>174.8</course>
  <speed>0.09848857801796104</speed>
  <fix>3d</fix>
</trkpt>
<trkpt lat="-27.2744385" lon="151.2900621">
  <ele>348.15</ele>
  <time>2026-09-01T19:52:18Z</time>
  <course>162.01</course>
  <speed>0.12</speed>
  <fix>3d</fix>
</trkpt>
<trkpt lat="-27.2744387" lon="151.2900621">
  <ele>347.71</ele>
  <time>2026-09-01T19:52:18Z</time>
  <course>174.79</course>
  <speed>0.08944271909999159</speed>
  <fix>3d</fix>
</trkpt>
<trkpt lat="-27.2744388" lon="151.2900621">
  <ele>348.05</ele>
  <time>2026-09-01T19:52:18Z</time>
  <course>155.03</course>
  <speed>0.12</speed>
  <fix>3d</fix>
</trkpt>
<trkpt lat="-27.2744388" lon="151.2900621">
  <ele>347.66</ele>
  <time>2026-09-01T19:52:18Z</time>
  <course>174.79</course>
  <speed>0.09433981132056603</speed>
  <fix>3d</fix>
</trkpt>
<trkpt lat="-27.2744388" lon="151.2900621">
  <ele>348.05</ele>
  <time>2026-09-01T19:52:18Z</time>
  <course>155.03</course>
  <speed>0.12</speed>
  <fix>3d</fix>
</trkpt>
<trkpt lat="-27.2744389" lon="151.2900622">
  <ele>347.61</ele>
  <time>2026-09-01T19:52:18Z</time>
  <course>174.8</course>
  <speed>0.09433981132056603</speed>
  <fix>3d</fix>
</trkpt>
<trkpt lat="-27.274439" lon="151.2900622">
  <ele>347.95</ele>
  <time>2026-09-01T19:52:18Z</time>
  <course>148.66</course>
  <speed>0.13</speed>
  <fix>3d</fix>
</trkpt>
<trkpt lat="-27.274439" lon="151.2900623">
  <ele>347.56</ele>
  <time>2026-09-01T19:52:18Z</time>
  <course>174.81</course>
  <speed>0.09219544457292887</speed>
  <fix>3d</fix>
</trkpt>
<trkpt lat="-27.274439" lon="151.2900622">
  <ele>347.95</ele>
  <time>2026-09-01T19:52:18Z</time>
  <course>148.66</course>
  <speed>0.13</speed>
  <fix>3d</fix>
</trkpt>
<trkpt lat="-27.2744391" lon="151.2900624">
  <ele>347.51</ele>
  <time>2026-09-01T19:52:18Z</time>
  <course>174.81</course>
  <speed>0.09219544457292887</speed>
  <fix>3d</fix>
</trkpt>
<trkpt lat="-27.2744391" lon="151.2900624">
  <ele>347.84</ele>
  <time>2026-09-01T19:52:18Z</time>
  <course>142.84</course>
  <speed>0.13</speed>
  <fix>3d</fix>
</trkpt>
<trkpt lat="-27.2744392" lon="151.2900624">
  <ele>347.46</ele>
  <time>2026-09-01T19:52:18Z</time>
  <course>174.81</course>
  <speed>0.09219544457292887</speed>
  <fix>3d</fix>
</trkpt>
<trkpt lat="-27.2744391" lon="151.2900624">
  <ele>347.84</ele>
  <time>2026-09-01T19:52:18Z</time>
  <course>142.84</course>
  <speed>0.13</speed>
  <fix>3d</fix>
</trkpt>
<trkpt lat="-27.2744393" lon="151.2900625">
  <ele>347.41</ele>
  <time>2026-09-01T19:52:18Z</time>
  <course>174.81</course>
  <speed>0.09219544457292887</speed>
  <fix>3d</fix>
</trkpt>
<trkpt lat="-27.2744393" lon="151.2900626">
  <ele>347.74</ele>
  <time>2026-09-01T19:52:18Z</time>
  <course>137.4</course>
  <speed>0.13</speed>
  <fix>3d</fix>
</trkpt>
<trkpt lat="-27.2744393" lon="151.2900626">
  <ele>347.36</ele>
  <time>2026-09-01T19:52:18Z</time>
  <course>174.81</course>
  <speed>0.09219544457292887</speed>
  <fix>3d</fix>
</trkpt>
<trkpt lat="-27.2744393" lon="151.2900626">
  <ele>347.74</ele>
  <time>2026-09-01T19:52:18Z</time>
  <course>137.4</course>
  <speed>0.13</speed>
  <fix>3d</fix>
</trkpt>
<trkpt lat="-27.2744394" lon="151.2900627">
  <ele>347.31</ele>
  <time>2026-09-01T19:52:18Z</time>
  <course>174.82</course>
  <speed>0.08602325267042626</speed>
  <fix>3d</fix>
</trkpt>
<trkpt lat="-27.2744395" lon="151.2900627">
  <ele>347.64</ele>
  <time>2026-09-01T19:52:18Z</time>
  <course>132.23</course>
  <speed>0.13</speed>
  <fix>3d</fix>
</trkpt>
<trkpt lat="-27.2744395" lon="151.2900628">
  <ele>347.26</ele>
  <time>2026-09-01T19:52:18Z</time>
  <course>174.82</course>
  <speed>0.09433981132056603</speed>
  <fix>3d</fix>
</trkpt>
<trkpt lat="-27.2744395" lon="151.2900627">
  <ele>347.64</ele>
  <time>2026-09-01T19:52:18Z</time>
  <course>132.23</course>
  <speed>0.13</speed>
  <fix>3d</fix>
</trkpt>
<trkpt lat="-27.2744395" lon="151.2900629">
  <ele>347.21</ele>
  <time>2026-09-01T19:52:18Z</time>
  <course>174.83</course>
  <speed>0.08944271909999159</speed>
  <fix>3d</fix>
</trkpt>
<trkpt lat="-27.2744396" lon="151.2900629">
  <ele>347.53</ele>
  <time>2026-09-01T19:52:18Z</time>
  <course>127.32</course>
  <speed>0.12</speed>
  <fix>3d</fix>
</trkpt>
<trkpt lat="-27.2744396" lon="151.290063">
  <ele>347.16</ele>
  <time>2026-09-01T19:52:18Z</time>
  <course>174.82</course>
  <speed>0.0854400374531753</speed>
  <fix>3d</fix>
</trkpt>
<trkpt lat="-27.2744396" lon="151.2900629">
  <ele>347.53</ele>
  <time>2026-09-01T19:52:18Z</time>
  <course>127.32</course>
  <speed>0.12</speed>
  <fix>3d</fix>
</trkpt>
<trkpt lat="-27.2744396" lon="151.2900631">
  <ele>347.11</ele>
  <time>2026-09-01T19:52:18Z</time>
  <course>174.82</course>
  <speed>0.0854400374531753</speed>
  <fix>3d</fix>
</trkpt>
<trkpt lat="-27.2744397" lon="151.2900632">
  <ele>347.44</ele>
  <time>2026-09-01T19:52:18Z</time>
  <course>122.6</course>
  <speed>0.12</speed>
  <fix>3d</fix>
</trkpt>
<trkpt lat="-27.2744397" lon="151.2900632">
  <ele>347.06</ele>
  <time>2026-09-01T19:52:18Z</time>
  <course>174.82</course>
  <speed>0.0824621125123532</speed>
  <fix>3d</fix>
</trkpt>
<trkpt lat="-27.2744397" lon="151.2900632">
  <ele>347.44</ele>
  <time>2026-09-01T19:52:18Z</time>
  <course>122.6</course>
  <speed>0.12</speed>
  <fix>3d</fix>
</trkpt>
<trkpt lat="-27.2744397" lon="151.2900633">
  <ele>347.01</ele>
  <time>2026-09-01T19:52:18Z</time>
  <course>174.81</course>
  <speed>0.0824621125123532</speed>
  <fix>3d</fix>
</trkpt>
<trkpt lat="-27.2744399" lon="151.2900634">
  <ele>347.34</ele>
  <time>2026-09-01T19:52:18Z</time>
  <course>118.02</course>
  <speed>0.12</speed>
  <fix>3d</fix>
</trkpt>
<trkpt lat="-27.2744398" lon="151.2900634">
  <ele>346.96</ele>
  <time>2026-09-01T19:52:18Z</time>
  <course>174.81</course>
  <speed>0.08062257748298549</speed>
  <fix>3d</fix>
</trkpt>
<trkpt lat="-27.2744399" lon="151.2900634">
  <ele>347.34</ele>
  <time>2026-09-01T19:52:18Z</time>
  <course>118.02</course>
  <speed>0.12</speed>
  <fix>3d</fix>
</trkpt>
<trkpt lat="-27.2744398" lon="151.2900635">
  <ele>346.91</ele>
  <time>2026-09-01T19:52:18Z</time>
  <course>174.8</course>
  <speed>0.08062257748298549</speed>
  <fix>3d</fix>
</trkpt>
<trkpt lat="-27.27444" lon="151.2900636">
  <ele>347.24</ele>
  <time>2026-09-01T19:52:18Z</time>
  <course>113.58</course>
  <speed>0.11</speed>
  <fix>3d</fix>
</trkpt>
<trkpt lat="-27.2744398" lon="151.2900636">
  <ele>346.86</ele>
  <time>2026-09-01T19:52:18Z</time>
  <course>174.79</course>
  <speed>0.07</speed>
  <fix>3d</fix>
</trkpt>
<trkpt lat="-27.27444" lon="151.2900636">
  <ele>347.24</ele>
  <time>2026-09-01T19:52:18Z</time>
  <course>113.58</course>
  <speed>0.11</speed>
  <fix>3d</fix>
</trkpt>
<trkpt lat="-27.2744399" lon="151.2900637">
  <ele>346.81</ele>
  <time>2026-09-01T19:52:18Z</time>
  <course>174.79</course>
  <speed>0.07</speed>
  <fix>3d</fix>
</trkpt>
<trkpt lat="-27.27444" lon="151.2900637">
  <ele>347.14</ele>
  <time>2026-09-01T19:52:18Z</time>
  <course>109.15</course>
  <speed>0.11</speed>
  <fix>3d</fix>
</trkpt>
<trkpt lat="-27.2744399" lon="151.2900638">
  <ele>346.76</ele>
  <time>2026-09-01T19:52:18Z</time>
  <course>174.79</course>
  <speed>0.07</speed>
  <fix>3d</fix>
</trkpt>
<trkpt lat="-27.27444" lon="151.2900637">
  <ele>347.14</ele>
  <time>2026-09-01T19:52:18Z</time>
  <course>109.15</course>
  <speed>0.11</speed>
  <fix>3d</fix>
</trkpt>
<trkpt lat="-27.2744399" lon="151.2900639">
  <ele>346.71</ele>
  <time>2026-09-01T19:52:18Z</time>
  <course>174.8</course>
  <speed>0.06</speed>
  <fix>3d</fix>
</trkpt>
<trkpt lat="-27.2744401" lon="151.290064">
  <ele>347.03</ele>
  <time>2026-09-01T19:52:18Z</time>
  <course>104.53</course>
  <speed>0.1</speed>
  <fix>3d</fix>
</trkpt>
<trkpt lat="-27.2744399" lon="151.290064">
  <ele>346.66</ele>
  <time>2026-09-01T19:52:18Z</time>
  <course>174.8</course>
  <speed>0.06082762530298219</speed>
  <fix>3d</fix>
</trkpt>
<trkpt lat="-27.2744401" lon="151.290064">
  <ele>347.03</ele>
  <time>2026-09-01T19:52:18Z</time>
  <course>104.53</course>
  <speed>0.1</speed>
  <fix>3d</fix>
</trkpt>
<trkpt lat="-27.2744399" lon="151.2900641">
  <ele>346.61</ele>
  <time>2026-09-01T19:52:18Z</time>
  <course>174.8</course>
  <speed>0.06082762530298219</speed>
  <fix>3d</fix>
</trkpt>
<trkpt lat="-27.2744402" lon="151.2900642">
  <ele>346.94</ele>
  <time>2026-09-01T19:52:18Z</time>
  <course>99.68</course>
  <speed>0.09</speed>
  <fix>3d</fix>
</trkpt>
<trkpt lat="-27.2744399" lon="151.2900642">
  <ele>346.56</ele>
  <time>2026-09-01T19:52:18Z</time>
  <course>174.81</course>
  <speed>0.053851648071345036</speed>
  <fix>3d</fix>
</trkpt>
<trkpt lat="-27.2744402" lon="151.2900642">
  <ele>346.94</ele>
  <time>2026-09-01T19:52:18Z</time>
  <course>99.68</course>
  <speed>0.09</speed>
  <fix>3d</fix>
</trkpt>
<trkpt lat="-27.2744399" lon="151.2900643">
  <ele>346.51</ele>
  <time>2026-09-01T19:52:18Z</time>
  <course>174.81</course>
  <speed>0.053851648071345036</speed>
  <fix>3d</fix>
</trkpt>
<trkpt lat="-27.2744402" lon="151.2900644">
  <ele>346.84</ele>
  <time>2026-09-01T19:52:18Z</time>
  <course>94.5</course>
  <speed>0.08</speed>
  <fix>3d</fix>
</trkpt>
<trkpt lat="-27.2744399" lon="151.2900643">
  <ele>346.46</ele>
  <time>2026-09-01T19:52:18Z</time>
  <course>174.81</course>
  <speed>0.044721359549995794</speed>
  <fix>3d</fix>
</trkpt>
<trkpt lat="-27.2744402" lon="151.2900644">
  <ele>346.84</ele>
  <time>2026-09-01T19:52:18Z</time>
  <course>94.5</course>
  <speed>0.08</speed>
  <fix>3d</fix>
</trkpt>
<trkpt lat="-27.27444" lon="151.2900644">
  <ele>346.41</ele>
  <time>2026-09-01T19:52:18Z</time>
  <course>174.81</course>
  <speed>0.05</speed>
  <fix>3d</fix>
</trkpt>
<trkpt lat="-27.2744402" lon="151.2900646">
  <ele>346.74</ele>
  <time>2026-09-01T19:52:18Z</time>
  <course>88.88</course>
  <speed>0.08</speed>
  <fix>3d</fix>
</trkpt>
<trkpt lat="-27.27444" lon="151.2900645">
  <ele>346.36</ele>
  <time>2026-09-01T19:52:18Z</time>
  <course>174.81</course>
  <speed>0.04242640687119285</speed>
  <fix>3d</fix>
</trkpt>
<trkpt lat="-27.2744402" lon="151.2900646">
  <ele>346.74</ele>
  <time>2026-09-01T19:52:18Z</time>
  <course>88.88</course>
  <speed>0.08</speed>
  <fix>3d</fix>
</trkpt>
<trkpt lat="-27.27444" lon="151.2900645">
  <ele>346.31</ele>
  <time>2026-09-01T19:52:18Z</time>
  <course>174.81</course>
  <speed>0.04242640687119285</speed>
  <fix>3d</fix>
</trkpt>
<trkpt lat="-27.2744402" lon="151.2900647">
  <ele>346.64</ele>
  <time>2026-09-01T19:52:18Z</time>
  <course>82.66</course>
  <speed>0.07</speed>
  <fix>3d</fix>
</trkpt>
<trkpt lat="-27.27444" lon="151.2900646">
  <ele>346.26</ele>
  <time>2026-09-01T19:52:18Z</time>
  <course>174.8</course>
  <speed>0.044721359549995794</speed>
  <fix>3d</fix>
</trkpt>
<trkpt lat="-27.2744402" lon="151.2900647">
  <ele>346.64</ele>
  <time>2026-09-01T19:52:18Z</time>
  <course>82.66</course>
  <speed>0.07</speed>
  <fix>3d</fix>
</trkpt>
<trkpt lat="-27.27444" lon="151.2900647">
  <ele>346.21</ele>
  <time>2026-09-01T19:52:18Z</time>
  <course>174.79</course>
  <speed>0.044721359549995794</speed>
  <fix>3d</fix>
</trkpt>
<trkpt lat="-27.2744402" lon="151.2900649">
  <ele>346.53</ele>
  <time>2026-09-01T19:52:18Z</time>
  <course>75.74</course>
  <speed>0.06</speed>
  <fix>3d</fix>
</trkpt>
<trkpt lat="-27.27444" lon="151.2900647">
  <ele>346.16</ele>
  <time>2026-09-01T19:52:18Z</time>
  <course>174.78</course>
  <speed>0.0412310562561766</speed>
  <fix>3d</fix>
</trkpt>
<trkpt lat="-27.2744402" lon="151.2900649">
  <ele>346.53</ele>
  <time>2026-09-01T19:52:18Z</time>
  <course>75.74</course>
  <speed>0.06</speed>
  <fix>3d</fix>
</trkpt>
<trkpt lat="-27.2744399" lon="151.2900648">
  <ele>346.11</ele>
  <time>2026-09-01T19:52:18Z</time>
  <course>174.77</course>
  <speed>0.0412310562561766</speed>
  <fix>3d</fix>
</trkpt>
<trkpt lat="-27.2744402" lon="151.290065">
  <ele>346.44</ele>
  <time>2026-09-01T19:52:18Z</time>
  <course>67.55</course>
  <speed>0.05</speed>
  <fix>3d</fix>
</trkpt>
<trkpt lat="-27.2744399" lon="151.2900648">
  <ele>346.06</ele>
  <time>2026-09-01T19:52:18Z</time>
  <course>174.76</course>
  <speed>0.04</speed>
  <fix>3d</fix>
</trkpt>
<trkpt lat="-27.2744402" lon="151.290065">
  <ele>346.44</ele>
  <time>2026-09-01T19:52:18Z</time>
  <course>67.55</course>
  <speed>0.05</speed>
  <fix>3d</fix>
</trkpt>
<trkpt lat="-27.2744399" lon="151.2900648">
  <ele>346.01</ele>
  <time>2026-09-01T19:52:18Z</time>
  <course>174.76</course>
  <speed>0.05</speed>
  <fix>3d</fix>
</trkpt>
<trkpt lat="-27.2744402" lon="151.2900651">
  <ele>346.34</ele>
  <time>2026-09-01T19:52:18Z</time>
  <course>56.53</course>
  <speed>0.04</speed>
  <fix>3d</fix>
</trkpt>
<trkpt lat="-27.2744399" lon="151.2900648">
  <ele>345.96</ele>
  <time>2026-09-01T19:52:18Z</time>
  <course>174.76</course>
  <speed>0.05</speed>
  <fix>3d</fix>
</trkpt>
<trkpt lat="-27.2744402" lon="151.2900651">
  <ele>346.34</ele>
  <time>2026-09-01T19:52:18Z</time>
  <course>56.53</course>
  <speed>0.04</speed>
  <fix>3d</fix>
</trkpt>
<trkpt lat="-27.2744399" lon="151.2900649">
  <ele>345.91</ele>
  <time>2026-09-01T19:52:18Z</time>
  <course>174.75</course>
  <speed>0.05099019513592785</speed>
  <fix>3d</fix>
</trkpt>
<trkpt lat="-27.2744401" lon="151.2900651">
  <ele>346.24</ele>
  <time>2026-09-01T19:52:18Z</time>
  <course>41.18</course>
  <speed>0.04</speed>
  <fix>3d</fix>
</trkpt>
<trkpt lat="-27.2744398" lon="151.2900649">
  <ele>345.86</ele>
  <time>2026-09-01T19:52:18Z</time>
  <course>174.74</course>
  <speed>0.053851648071345036</speed>
  <fix>3d</fix>
</trkpt>
<trkpt lat="-27.2744401" lon="151.2900651">
  <ele>346.24</ele>
  <time>2026-09-01T19:52:18Z</time>
  <course>41.18</course>
  <speed>0.04</speed>
  <fix>3d</fix>
</trkpt>
<trkpt lat="-27.2744398" lon="151.2900649">
  <ele>345.81</ele>
  <time>2026-09-01T19:52:18Z</time>
  <course>174.72</course>
  <speed>0.053851648071345036</speed>
  <fix>3d</fix>
</trkpt>
<trkpt lat="-27.2744401" lon="151.2900651">
  <ele>346.14</ele>
  <time>2026-09-01T19:52:18Z</time>
  <course>21.45</course>
  <speed>0.03</speed>
  <fix>3d</fix>
</trkpt>
<trkpt lat="-27.2744398" lon="151.2900649">
  <ele>345.76</ele>
  <time>2026-09-01T19:52:18Z</time>
  <course>174.72</course>
  <speed>0.05830951894845301</speed>
  <fix>3d</fix>
</trkpt>
<trkpt lat="-27.2744401" lon="151.2900651">
  <ele>346.14</ele>
  <time>2026-09-01T19:52:18Z</time>
  <course>21.45</course>
  <speed>0.03</speed>
  <fix>3d</fix>
</trkpt>
<trkpt lat="-27.2744398" lon="151.2900649">
  <ele>345.71</ele>
  <time>2026-09-01T19:52:18Z</time>
  <course>174.79</course>
  <speed>0.05830951894845301</speed>
  <fix>3d</fix>
</trkpt>
<trkpt lat="-27.27444" lon="151.2900651">
  <ele>346.03</ele>
  <time>2026-09-01T19:52:18Z</time>
  <course>2.63</course>
  <speed>0.03</speed>
  <fix>3d</fix>
</trkpt>
<trkpt lat="-27.2744397" lon="151.2900649">
  <ele>345.66</ele>
  <time>2026-09-01T19:52:18Z</time>
  <course>174.91</course>
  <speed>0.05830951894845301</speed>
  <fix>3d</fix>
</trkpt>
<trkpt lat="-27.27444" lon="151.2900651">
  <ele>346.03</ele>
  <time>2026-09-01T19:52:18Z</time>
  <course>2.63</course>
  <speed>0.03</speed>
  <fix>3d</fix>
</trkpt>
<trkpt lat="-27.2744397" lon="151.2900649">
  <ele>345.61</ele>
  <time>2026-09-01T19:52:18Z</time>
  <course>175.06</course>
  <speed>0.05830951894845301</speed>
  <fix>3d</fix>
</trkpt>
<trkpt lat="-27.2744399" lon="151.2900651">
  <ele>345.94</ele>
  <time>2026-09-01T19:52:18Z</time>
  <course>355.13</course>
  <speed>0.03</speed>
  <fix>3d</fix>
</trkpt>
<trkpt lat="-27.2744397" lon="151.2900649">
  <ele>345.56</ele>
  <time>2026-09-01T19:52:18Z</time>
  <course>175.2</course>
  <speed>0.05830951894845301</speed>
  <fix>3d</fix>
</trkpt>
<trkpt lat="-27.2744399" lon="151.2900651">
  <ele>345.94</ele>
  <time>2026-09-01T19:52:18Z</time>
  <course>355.13</course>
  <speed>0.03</speed>
  <fix>3d</fix>
</trkpt>
<trkpt lat="-27.2744396" lon="151.2900649">
  <ele>345.51</ele>
  <time>2026-09-01T19:52:18Z</time>
  <course>175.31</course>
  <speed>0.05830951894845301</speed>
  <fix>3d</fix>
</trkpt>
<trkpt lat="-27.2744398" lon="151.2900651">
  <ele>345.84</ele>
  <time>2026-09-01T19:52:18Z</time>
  <course>355.22</course>
  <speed>0.03</speed>
  <fix>3d</fix>
</trkpt>
<trkpt lat="-27.2744396" lon="151.2900649">
  <ele>345.46</ele>
  <time>2026-09-01T19:52:18Z</time>
  <course>175.39</course>
  <speed>0.05830951894845301</speed>
  <fix>3d</fix>
</trkpt>
<trkpt lat="-27.2744398" lon="151.2900651">
  <ele>345.84</ele>
  <time>2026-09-01T19:52:18Z</time>
  <course>355.22</course>
  <speed>0.03</speed>
  <fix>3d</fix>
</trkpt>
<trkpt lat="-27.2744396" lon="151.2900649">
  <ele>345.41</ele>
  <time>2026-09-01T19:52:18Z</time>
  <course>175.43</course>
  <speed>0.05830951894845301</speed>
  <fix>3d</fix>
</trkpt>
<trkpt lat="-27.2744398" lon="151.2900651">
  <ele>345.74</ele>
  <time>2026-09-01T19:52:18Z</time>
  <course>355.54</course>
  <speed>0.04</speed>
  <fix>3d</fix>
</trkpt>
<trkpt lat="-27.2744395" lon="151.2900649">
  <ele>345.36</ele>
  <time>2026-09-01T19:52:18Z</time>
  <course>175.44</course>
  <speed>0.05830951894845301</speed>
  <fix>3d</fix>
</trkpt>
<trkpt lat="-27.2744398" lon="151.2900651">
  <ele>345.74</ele>
  <time>2026-09-01T19:52:18Z</time>
  <course>355.54</course>
  <speed>0.04</speed>
  <fix>3d</fix>
</trkpt>
<trkpt lat="-27.2744395" lon="151.2900649">
  <ele>345.31</ele>
  <time>2026-09-01T19:52:18Z</time>
  <course>175.42</course>
  <speed>0.05830951894845301</speed>
  <fix>3d</fix>
</trkpt>
<trkpt lat="-27.2744397" lon="151.2900651">
  <ele>345.64</ele>
  <time>2026-09-01T19:52:18Z</time>
  <course>355.76</course>
  <speed>0.04</speed>
  <fix>3d</fix>
</trkpt>
<trkpt lat="-27.2744395" lon="151.2900649">
  <ele>345.26</ele>
  <time>2026-09-01T19:52:18Z</time>
  <course>175.39</course>
  <speed>0.05830951894845301</speed>
  <fix>3d</fix>
</trkpt>
<trkpt lat="-27.2744397" lon="151.2900651">
  <ele>345.64</ele>
  <time>2026-09-01T19:52:18Z</time>
  <course>355.76</course>
  <speed>0.04</speed>
  <fix>3d</fix>
</trkpt>
<trkpt lat="-27.2744394" lon="151.2900649">
  <ele>345.21</ele>
  <time>2026-09-01T19:52:18Z</time>
  <course>175.35</course>
  <speed>0.05830951894845301</speed>
  <fix>3d</fix>
</trkpt>
<trkpt lat="-27.2744396" lon="151.2900651">
  <ele>345.53</ele>
  <time>2026-09-01T19:52:18Z</time>
  <course>355.85</course>
  <speed>0.04</speed>
  <fix>3d</fix>
</trkpt>
<trkpt lat="-27.2744394" lon="151.2900649">
  <ele>345.16</ele>
  <time>2026-09-01T19:52:18Z</time>
  <course>175.31</course>
  <speed>0.05830951894845301</speed>
  <fix>3d</fix>
</trkpt>
<trkpt lat="-27.2744396" lon="151.2900651">
  <ele>345.53</ele>
  <time>2026-09-01T19:52:18Z</time>
  <course>355.85</course>
  <speed>0.04</speed>
  <fix>3d</fix>
</trkpt>
<trkpt lat="-27.2744394" lon="151.2900649">
  <ele>345.11</ele>
  <time>2026-09-01T19:52:18Z</time>
  <course>175.27</course>
  <speed>0.05830951894845301</speed>
  <fix>3d</fix>
</trkpt>
<trkpt lat="-27.2744396" lon="151.2900651">
  <ele>345.44</ele>
  <time>2026-09-01T19:52:18Z</time>
  <course>355.78</course>
  <speed>0.03</speed>
  <fix>3d</fix>
</trkpt>
<trkpt lat="-27.2744393" lon="151.2900649">
  <ele>345.06</ele>
  <time>2026-09-01T19:52:18Z</time>
  <course>175.25</course>
  <speed>0.05830951894845301</speed>
  <fix>3d</fix>
</trkpt>
<trkpt lat="-27.2744396" lon="151.2900651">
  <ele>345.44</ele>
  <time>2026-09-01T19:52:18Z</time>
  <course>355.78</course>
  <speed>0.03</speed>
  <fix>3d</fix>
</trkpt>
<trkpt lat="-27.2744393" lon="151.2900649">
  <ele>345.01</ele>
  <time>2026-09-01T19:52:18Z</time>
  <course>175.23</course>
  <speed>0.05</speed>
  <fix>3d</fix>
</trkpt>
<trkpt lat="-27.2744395" lon="151.2900651">
  <ele>345.34</ele>
  <time>2026-09-01T19:52:18Z</time>
  <course>355.7</course>
  <speed>0.03</speed>
  <fix>3d</fix>
</trkpt>
<trkpt lat="-27.2744393" lon="151.2900648">
  <ele>344.96</ele>
  <time>2026-09-01T19:52:18Z</time>
  <course>175.22</course>
  <speed>0.05</speed>
  <fix>3d</fix>
</trkpt>
<trkpt lat="-27.2744395" lon="151.2900651">
  <ele>345.34</ele>
  <time>2026-09-01T19:52:18Z</time>
  <course>355.7</course>
  <speed>0.03</speed>
  <fix>3d</fix>
</trkpt>
<trkpt lat="-27.2744393" lon="151.2900648">
  <ele>344.91</ele>
  <time>2026-09-01T19:52:18Z</time>
  <course>175.22</course>
  <speed>0.05</speed>
  <fix>3d</fix>
</trkpt>
<trkpt lat="-27.2744394" lon="151.2900651">
  <ele>345.24</ele>
  <time>2026-09-01T19:52:18Z</time>
  <course>355.8</course>
  <speed>0.03</speed>
  <fix>3d</fix>
</trkpt>
<trkpt lat="-27.2744392" lon="151.2900648">
  <ele>344.86</ele>
  <time>2026-09-01T19:52:18Z</time>
  <course>175.24</course>
  <speed>0.05</speed>
  <fix>3d</fix>
</trkpt>
<trkpt lat="-27.2744394" lon="151.2900651">
  <ele>345.24</ele>
  <time>2026-09-01T19:52:18Z</time>
  <course>355.8</course>
  <speed>0.03</speed>
  <fix>3d</fix>
</trkpt>
<trkpt lat="-27.2744392" lon="151.2900648">
  <ele>344.81</ele>
  <time>2026-09-01T19:52:18Z</time>
  <course>175.26</course>
  <speed>0.05</speed>
  <fix>3d</fix>
</trkpt>
<trkpt lat="-27.2744394" lon="151.2900651">
  <ele>345.14</ele>
  <time>2026-09-01T19:52:18Z</time>
  <course>356.08</course>
  <speed>0.02</speed>
  <fix>3d</fix>
</trkpt>
<trkpt lat="-27.2744392" lon="151.2900648">
  <ele>344.76</ele>
  <time>2026-09-01T19:52:18Z</time>
  <course>175.28</course>
  <speed>0.05</speed>
  <fix>3d</fix>
</trkpt>
<trkpt lat="-27.2744394" lon="151.2900651">
  <ele>345.14</ele>
  <time>2026-09-01T19:52:18Z</time>
  <course>356.08</course>
  <speed>0.02</speed>
  <fix>3d</fix>
</trkpt>
<trkpt lat="-27.2744392" lon="151.2900648">
  <ele>344.71</ele>
  <time>2026-09-01T19:52:18Z</time>
  <course>175.3</course>
  <speed>0.05</speed>
  <fix>3d</fix>
</trkpt>
<trkpt lat="-27.2744393" lon="151.2900651">
  <ele>345.03</ele>
  <time>2026-09-01T19:52:18Z</time>
  <course>356.42</course>
  <speed>0.02</speed>
  <fix>3d</fix>
</trkpt>
<trkpt lat="-27.2744392" lon="151.2900648">
  <ele>344.66</ele>
  <time>2026-09-01T19:52:18Z</time>
  <course>175.32</course>
  <speed>0.04242640687119285</speed>
  <fix>3d</fix>
</trkpt>
<trkpt lat="-27.2744393" lon="151.2900651">
  <ele>345.03</ele>
  <time>2026-09-01T19:52:18Z</time>
  <course>356.42</course>
  <speed>0.02</speed>
  <fix>3d</fix>
</trkpt>
<trkpt lat="-27.2744391" lon="151.2900648">
  <ele>344.61</ele>
  <time>2026-09-01T19:52:18Z</time>
  <course>175.34</course>
  <speed>0.04242640687119285</speed>
  <fix>3d</fix>
</trkpt>
<trkpt lat="-27.2744393" lon="151.2900651">
  <ele>344.93</ele>
  <time>2026-09-01T19:52:18Z</time>
  <course>356.92</course>
  <speed>0.02</speed>
  <fix>3d</fix>
</trkpt>
<trkpt lat="-27.2744391" lon="151.2900648">
  <ele>344.56</ele>
  <time>2026-09-01T19:52:19Z</time>
  <course>175.36</course>
  <speed>0.03605551275463989</speed>
  <fix>3d</fix>
</trkpt>
<trkpt lat="-27.2744393" lon="151.2900651">
  <ele>344.93</ele>
  <time>2026-09-01T19:52:19Z</time>
  <course>356.92</course>
  <speed>0.02</speed>
  <fix>3d</fix>
</trkpt>
<trkpt lat="-27.2744391" lon="151.2900648">
  <ele>344.51</ele>
  <time>2026-09-01T19:52:19Z</time>
  <course>175.38</course>
  <speed>0.03605551275463989</speed>
  <fix>3d</fix>
</trkpt>
<trkpt lat="-27.2744392" lon="151.2900651">
  <ele>344.83</ele>
  <time>2026-09-01T19:52:19Z</time>
  <course>357.92</course>
  <speed>0.02</speed>
  <fix>3d</fix>
</trkpt>
<trkpt lat="-27.2744391" lon="151.2900648">
  <ele>344.46</ele>
  <time>2026-09-01T19:52:19Z</time>
  <course>175.39</course>
  <speed>0.03605551275463989</speed>
  <fix>3d</fix>
</trkpt>
<trkpt lat="-27.2744392" lon="151.2900651">
  <ele>344.83</ele>
  <time>2026-09-01T19:52:19Z</time>
  <course>357.92</course>
  <speed>0.02</speed>
  <fix>3d</fix>
</trkpt>
<trkpt lat="-27.2744391" lon="151.2900648">
  <ele>344.41</ele>
  <time>2026-09-01T19:52:19Z</time>
  <course>175.41</course>
  <speed>0.03605551275463989</speed>
  <fix>3d</fix>
</trkpt>
<trkpt lat="-27.2744392" lon="151.2900651">
  <ele>344.72</ele>
  <time>2026-09-01T19:52:19Z</time>
  <course>359.19</course>
  <speed>0.01</speed>
  <fix>3d</fix>
</trkpt>
<trkpt lat="-27.2744391" lon="151.2900648">
  <ele>344.36</ele>
  <time>2026-09-01T19:52:19Z</time>
  <course>175.42</course>
  <speed>0.0282842712474619</speed>
  <fix>3d</fix>
</trkpt>
<trkpt lat="-27.2744392" lon="151.2900651">
  <ele>344.72</ele>
  <time>2026-09-01T19:52:19Z</time>
  <course>359.19</course>
  <speed>0.01</speed>
  <fix>3d</fix>
</trkpt>
<trkpt lat="-27.2744391" lon="151.2900649">
  <ele>344.31</ele>
  <time>2026-09-01T19:52:19Z</time>
  <course>175.42</course>
  <speed>0.0282842712474619</speed>
  <fix>3d</fix>
</trkpt>
<trkpt lat="-27.2744392" lon="151.2900651">
  <ele>344.63</ele>
  <time>2026-09-01T19:52:19Z</time>
  <course>0.4</course>
  <speed>0.01</speed>
  <fix>3d</fix>
</trkpt>
<trkpt lat="-27.2744391" lon="151.2900648">
  <ele>344.26</ele>
  <time>2026-09-01T19:52:19Z</time>
  <course>175.42</course>
  <speed>0.0282842712474619</speed>
  <fix>3d</fix>
</trkpt>
<trkpt lat="-27.2744392" lon="151.2900651">
  <ele>344.63</ele>
  <time>2026-09-01T19:52:19Z</time>
  <course>0.4</course>
  <speed>0.01</speed>
  <fix>3d</fix>
</trkpt>
<trkpt lat="-27.274439" lon="151.2900649">
  <ele>344.21</ele>
  <time>2026-09-01T19:52:19Z</time>
  <course>175.4</course>
  <speed>0.0282842712474619</speed>
  <fix>3d</fix>
</trkpt>
<trkpt lat="-27.2744392" lon="151.2900651">
  <ele>344.53</ele>
  <time>2026-09-01T19:52:19Z</time>
  <course>1.72</course>
  <speed>0.01</speed>
  <fix>3d</fix>
</trkpt>
<trkpt lat="-27.274439" lon="151.2900649">
  <ele>344.16</ele>
  <time>2026-09-01T19:52:19Z</time>
  <course>175.39</course>
  <speed>0.0282842712474619</speed>
  <fix>3d</fix>
</trkpt>
<trkpt lat="-27.2744392" lon="151.2900651">
  <ele>344.53</ele>
  <time>2026-09-01T19:52:19Z</time>
  <course>1.72</course>
  <speed>0.01</speed>
  <fix>3d</fix>
</trkpt>
<trkpt lat="-27.274439" lon="151.2900649">
  <ele>344.11</ele>
  <time>2026-09-01T19:52:19Z</time>
  <course>175.38</course>
  <speed>0.022360679774997897</speed>
  <fix>3d</fix>
</trkpt>
<trkpt lat="-27.2744392" lon="151.2900651">
  <ele>344.43</ele>
  <time>2026-09-01T19:52:19Z</time>
  <course>3.99</course>
  <speed>0.0</speed>
  <fix>3d</fix>
</trkpt>
<trkpt lat="-27.274439" lon="151.2900649">
  <ele>344.06</ele>
  <time>2026-09-01T19:52:19Z</time>
  <course>175.37</course>
  <speed>0.022360679774997897</speed>
  <fix>3d</fix>
</trkpt>
<trkpt lat="-27.2744392" lon="151.2900651">
  <ele>344.43</ele>
  <time>2026-09-01T19:52:19Z</time>
  <course>3.99</course>
  <speed>0.0</speed>
  <fix>3d</fix>
</trkpt>
<trkpt lat="-27.2744391" lon="151.2900649">
  <ele>344.01</ele>
  <time>2026-09-01T19:52:19Z</time>
  <course>175.36</course>
  <speed>0.022360679774997897</speed>
  <fix>3d</fix>
</trkpt>
<trkpt lat="-27.2744392" lon="151.2900651">
  <ele>344.33</ele>
  <time>2026-09-01T19:52:19Z</time>
  <course>13.84</course>
  <speed>0.0</speed>
  <fix>3d</fix>
</trkpt>
<trkpt lat="-27.2744391" lon="151.2900649">
  <ele>343.96</ele>
  <time>2026-09-01T19:52:19Z</time>
  <course>175.34</course>
  <speed>0.022360679774997897</speed>
  <fix>3d</fix>
</trkpt>
<trkpt lat="-27.2744392" lon="151.2900651">
  <ele>344.33</ele>
  <time>2026-09-01T19:52:19Z</time>
  <course>13.84</course>
  <speed>0.0</speed>
  <fix>3d</fix>
</trkpt>
<trkpt lat="-27.2744391" lon="151.2900649">
  <ele>343.91</ele>
  <time>2026-09-01T19:52:19Z</time>
  <course>175.31</course>
  <speed>0.0316227766016838</speed>
  <fix>3d</fix>
</trkpt>
<trkpt lat="-27.2744392" lon="151.2900651">
  <ele>344.22</ele>
  <time>2026-09-01T19:52:19Z</time>
  <course>194.78</course>
  <speed>0.0</speed>
  <fix>3d</fix>
</trkpt>
<trkpt lat="-27.2744391" lon="151.2900649">
  <ele>343.86</ele>
  <time>2026-09-01T19:52:19Z</time>
  <course>175.28</course>
  <speed>0.03</speed>
  <fix>3d</fix>
</trkpt>
<trkpt lat="-27.2744392" lon="151.2900651">
  <ele>344.22</ele>
  <time>2026-09-01T19:52:19Z</time>
  <course>194.78</course>
  <speed>0.0</speed>
  <fix>3d</fix>
</trkpt>
<trkpt lat="-27.2744391" lon="151.2900649">
  <ele>343.81</ele>
  <time>2026-09-01T19:52:19Z</time>
  <course>175.25</course>
  <speed>0.03</speed>
  <fix>3d</fix>
</trkpt>
<trkpt lat="-27.2744392" lon="151.2900651">
  <ele>344.12</ele>
  <time>2026-09-01T19:52:19Z</time>
  <course>211.28</course>
  <speed>0.0</speed>
  <fix>3d</fix>
</trkpt>
<trkpt lat="-27.2744391" lon="151.2900648">
  <ele>343.76</ele>
  <time>2026-09-01T19:52:19Z</time>
  <course>175.23</course>
  <speed>0.03</speed>
  <fix>3d</fix>
</trkpt>
<trkpt lat="-27.2744392" lon="151.2900651">
  <ele>344.12</ele>
  <time>2026-09-01T19:52:19Z</time>
  <course>211.28</course>
  <speed>0.0</speed>
  <fix>3d</fix>
</trkpt>
<trkpt lat="-27.2744391" lon="151.2900648">
  <ele>343.71</ele>
  <time>2026-09-01T19:52:19Z</time>
  <course>175.22</course>
  <speed>0.03</speed>
  <fix>3d</fix>
</trkpt>
<trkpt lat="-27.2744392" lon="151.2900651">
  <ele>344.02</ele>
  <time>2026-09-01T19:52:19Z</time>
  <course>216.14</course>
  <speed>0.0</speed>
  <fix>3d</fix>
</trkpt>
<trkpt lat="-27.2744391" lon="151.2900648">
  <ele>343.66</ele>
  <time>2026-09-01T19:52:19Z</time>
  <course>175.21</course>
  <speed>0.03</speed>
  <fix>3d</fix>
</trkpt>
<trkpt lat="-27.2744392" lon="151.2900651">
  <ele>344.02</ele>
  <time>2026-09-01T19:52:19Z</time>
  <course>216.14</course>
  <speed>0.0</speed>
  <fix>3d</fix>
</trkpt>
<trkpt lat="-27.2744391" lon="151.2900648">
  <ele>343.61</ele>
  <time>2026-09-01T19:52:19Z</time>
  <course>175.21</course>
  <speed>0.03</speed>
  <fix>3d</fix>
</trkpt>
<trkpt lat="-27.2744392" lon="151.2900651">
  <ele>343.91</ele>
  <time>2026-09-01T19:52:19Z</time>
  <course>220.75</course>
  <speed>0.01</speed>
  <fix>3d</fix>
</trkpt>
<trkpt lat="-27.2744391" lon="151.2900648">
  <ele>343.56</ele>
  <time>2026-09-01T19:52:19Z</time>
  <course>175.22</course>
  <speed>0.04</speed>
  <fix>3d</fix>
</trkpt>
<trkpt lat="-27.2744392" lon="151.2900651">
  <ele>343.91</ele>
  <time>2026-09-01T19:52:19Z</time>
  <course>220.75</course>
  <speed>0.01</speed>
  <fix>3d</fix>
</trkpt>
<trkpt lat="-27.2744391" lon="151.2900648">
  <ele>343.51</ele>
  <time>2026-09-01T19:52:19Z</time>
  <course>175.24</course>
  <speed>0.04</speed>
  <fix>3d</fix>
</trkpt>
<trkpt lat="-27.2744392" lon="151.2900651">
  <ele>343.82</ele>
  <time>2026-09-01T19:52:19Z</time>
  <course>224.45</course>
  <speed>0.01</speed>
  <fix>3d</fix>
</trkpt>
<trkpt lat="-27.2744391" lon="151.2900648">
  <ele>343.45</ele>
  <time>2026-09-01T19:52:19Z</time>
  <course>175.26</course>
  <speed>0.04</speed>
  <fix>3d</fix>
</trkpt>
<trkpt lat="-27.2744392" lon="151.2900651">
  <ele>343.82</ele>
  <time>2026-09-01T19:52:19Z</time>
  <course>224.45</course>
  <speed>0.01</speed>
  <fix>3d</fix>
</trkpt>
<trkpt lat="-27.2744391" lon="151.2900648">
  <ele>343.4</ele>
  <time>2026-09-01T19:52:19Z</time>
  <course>175.28</course>
  <speed>0.04</speed>
  <fix>3d</fix>
</trkpt>
<trkpt lat="-27.2744392" lon="151.2900651">
  <ele>343.72</ele>
  <time>2026-09-01T19:52:19Z</time>
  <course>225.33</course>
  <speed>0.01</speed>
  <fix>3d</fix>
</trkpt>
<trkpt lat="-27.2744391" lon="151.2900648">
  <ele>343.35</ele>
  <time>2026-09-01T19:52:19Z</time>
  <course>175.3</course>
  <speed>0.04</speed>
  <fix>3d</fix>
</trkpt>
<trkpt lat="-27.2744392" lon="151.2900651">
  <ele>343.72</ele>
  <time>2026-09-01T19:52:19Z</time>
  <course>225.33</course>
  <speed>0.01</speed>
  <fix>3d</fix>
</trkpt>
<trkpt lat="-27.2744391" lon="151.2900648">
  <ele>343.3</ele>
  <time>2026-09-01T19:52:19Z</time>
  <course>175.32</course>
  <speed>0.04</speed>
  <fix>3d</fix>
</trkpt>
<trkpt lat="-27.2744392" lon="151.2900651">
  <ele>343.62</ele>
  <time>2026-09-01T19:52:19Z</time>
  <course>225.64</course>
  <speed>0.02</speed>
  <fix>3d</fix>
</trkpt>
<trkpt lat="-27.2744391" lon="151.2900647">
  <ele>343.25</ele>
  <time>2026-09-01T19:52:19Z</time>
  <course>175.33</course>
  <speed>0.04</speed>
  <fix>3d</fix>
</trkpt>
<trkpt lat="-27.2744392" lon="151.2900651">
  <ele>343.62</ele>
  <time>2026-09-01T19:52:19Z</time>
  <course>225.64</course>
  <speed>0.02</speed>
  <fix>3d</fix>
</trkpt>
<trkpt lat="-27.2744391" lon="151.2900647">
  <ele>343.21</ele>
  <time>2026-09-01T19:52:19Z</time>
  <course>175.34</course>
  <speed>0.04</speed>
  <fix>3d</fix>
</trkpt>
<trkpt lat="-27.2744392" lon="151.2900651">
  <ele>343.52</ele>
  <time>2026-09-01T19:52:19Z</time>
  <course>227.54</course>
  <speed>0.02</speed>
  <fix>3d</fix>
</trkpt>
<trkpt lat="-27.2744391" lon="151.2900647">
  <ele>343.16</ele>
  <time>2026-09-01T19:52:19Z</time>
  <course>175.33</course>
  <speed>0.04</speed>
  <fix>3d</fix>
</trkpt>
<trkpt lat="-27.2744392" lon="151.2900651">
  <ele>343.52</ele>
  <time>2026-09-01T19:52:19Z</time>
  <course>227.54</course>
  <speed>0.02</speed>
  <fix>3d</fix>
</trkpt>
<trkpt lat="-27.2744391" lon="151.2900647">
  <ele>343.11</ele>
  <time>2026-09-01T19:52:19Z</time>
  <course>175.33</course>
  <speed>0.04</speed>
  <fix>3d</fix>
</trkpt>
<trkpt lat="-27.2744392" lon="151.2900651">
  <ele>343.41</ele>
  <time>2026-09-01T19:52:19Z</time>
  <course>229.84</course>
  <speed>0.02</speed>
  <fix>3d</fix>
</trkpt>
<trkpt lat="-27.2744391" lon="151.2900647">
  <ele>343.06</ele>
  <time>2026-09-01T19:52:19Z</time>
  <course>175.32</course>
  <speed>0.04</speed>
  <fix>3d</fix>
</trkpt>
<trkpt lat="-27.2744392" lon="151.2900651">
  <ele>343.41</ele>
  <time>2026-09-01T19:52:19Z</time>
  <course>229.84</course>
  <speed>0.02</speed>
  <fix>3d</fix>
</trkpt>
<trkpt lat="-27.2744391" lon="151.2900647">
  <ele>343.01</ele>
  <time>2026-09-01T19:52:19Z</time>
  <course>175.31</course>
  <speed>0.03</speed>
  <fix>3d</fix>
</trkpt>
<trkpt lat="-27.2744392" lon="151.290065">
  <ele>343.32</ele>
  <time>2026-09-01T19:52:19Z</time>
  <course>231.04</course>
  <speed>0.02</speed>
  <fix>3d</fix>
</trkpt>
<trkpt lat="-27.2744391" lon="151.2900647">
  <ele>342.96</ele>
  <time>2026-09-01T19:52:19Z</time>
  <course>175.3</course>
  <speed>0.03</speed>
  <fix>3d</fix>
</trkpt>
<trkpt lat="-27.2744392" lon="151.290065">
  <ele>343.32</ele>
  <time>2026-09-01T19:52:19Z</time>
  <course>231.04</course>
  <speed>0.02</speed>
  <fix>3d</fix>
</trkpt>
<trkpt lat="-27.2744391" lon="151.2900647">
  <ele>342.91</ele>
  <time>2026-09-01T19:52:19Z</time>
  <course>175.29</course>
  <speed>0.03</speed>
  <fix>3d</fix>
</trkpt>
<trkpt lat="-27.2744392" lon="151.290065">
  <ele>343.22</ele>
  <time>2026-09-01T19:52:19Z</time>
  <course>229.92</course>
  <speed>0.02</speed>
  <fix>3d</fix>
</trkpt>
<trkpt lat="-27.2744391" lon="151.2900647">
  <ele>342.86</ele>
  <time>2026-09-01T19:52:19Z</time>
  <course>175.28</course>
  <speed>0.0316227766016838</speed>
  <fix>3d</fix>
</trkpt>
<trkpt lat="-27.2744392" lon="151.290065">
  <ele>343.22</ele>
  <time>2026-09-01T19:52:19Z</time>
  <course>229.92</course>
  <speed>0.02</speed>
  <fix>3d</fix>
</trkpt>
<trkpt lat="-27.2744391" lon="151.2900647">
  <ele>342.86</ele>
  <time>2026-09-01T19:52:19Z</time>
  <course>175.28</course>
  <speed>0.0282842712474619</speed>
  <fix>3d</fix>
</trkpt>
<trkpt lat="-27.2744393" lon="151.290065">
  <ele>343.12</ele>
  <time>2026-09-01T19:52:19Z</time>
  <course>228.35</course>
  <speed>0.01</speed>
  <fix>3d</fix>
</trkpt>
<trkpt lat="-27.2744391" lon="151.2900647">
  <ele>342.88</ele>
  <time>2026-09-01T19:52:19Z</time>
  <course>175.28</course>
  <speed>0.022360679774997897</speed>
  <fix>3d</fix>
</trkpt>
<trkpt lat="-27.2744393" lon="151.290065">
  <ele>343.12</ele>
  <time>2026-09-01T19:52:19Z</time>
  <course>228.35</course>
  <speed>0.01</speed>
  <fix>3d</fix>
</trkpt>
<trkpt lat="-27.2744391" lon="151.2900647">
  <ele>342.89</ele>
  <time>2026-09-01T19:52:19Z</time>
  <course>175.28</course>
  <speed>0.022360679774997897</speed>
  <fix>3d</fix>
</trkpt>
<trkpt lat="-27.2744393" lon="151.290065">
  <ele>343.08</ele>
  <time>2026-09-01T19:52:19Z</time>
  <course>227.81</course>
  <speed>0.0</speed>
  <fix>3d</fix>
</trkpt>
<trkpt lat="-27.2744391" lon="151.2900647">
  <ele>342.89</ele>
  <time>2026-09-01T19:52:19Z</time>
  <course>175.28</course>
  <speed>0.0282842712474619</speed>
  <fix>3d</fix>
</trkpt>
<trkpt lat="-27.2744393" lon="151.290065">
  <ele>343.08</ele>
  <time>2026-09-01T19:52:19Z</time>
  <course>227.81</course>
  <speed>0.0</speed>
  <fix>3d</fix>
</trkpt>
<trkpt lat="-27.2744391" lon="151.2900647">
  <ele>342.89</ele>
  <time>2026-09-01T19:52:19Z</time>
  <course>175.28</course>
  <speed>0.0282842712474619</speed>
  <fix>3d</fix>
</trkpt>
<trkpt lat="-27.2744393" lon="151.290065">
  <ele>343.09</ele>
  <time>2026-09-01T19:52:19Z</time>
  <course>47.79</course>
  <speed>0.0</speed>
  <fix>3d</fix>
</trkpt>
<trkpt lat="-27.2744391" lon="151.2900647">
  <ele>342.89</ele>
  <time>2026-09-01T19:52:19Z</time>
  <course>175.28</course>
  <speed>0.0282842712474619</speed>
  <fix>3d</fix>
</trkpt>
<trkpt lat="-27.2744393" lon="151.290065">
  <ele>343.09</ele>
  <time>2026-09-01T19:52:19Z</time>
  <course>47.79</course>
  <speed>0.0</speed>
  <fix>3d</fix>
</trkpt>
<trkpt lat="-27.2744391" lon="151.2900648">
  <ele>342.89</ele>
  <time>2026-09-01T19:52:19Z</time>
  <course>175.28</course>
  <speed>0.0282842712474619</speed>
  <fix>3d</fix>
</trkpt>
<trkpt lat="-27.2744393" lon="151.290065">
  <ele>343.1</ele>
  <time>2026-09-01T19:52:19Z</time>
  <course>227.57</course>
  <speed>0.0</speed>
  <fix>3d</fix>
</trkpt>
<trkpt lat="-27.2744391" lon="151.2900648">
  <ele>342.89</ele>
  <time>2026-09-01T19:52:19Z</time>
  <course>175.28</course>
  <speed>0.0282842712474619</speed>
  <fix>3d</fix>
</trkpt>
<trkpt lat="-27.2744393" lon="151.290065">
  <ele>343.1</ele>
  <time>2026-09-01T19:52:19Z</time>
  <course>227.57</course>
  <speed>0.0</speed>
  <fix>3d</fix>
</trkpt>
<trkpt lat="-27.2744391" lon="151.2900648">
  <ele>342.89</ele>
  <time>2026-09-01T19:52:19Z</time>
  <course>175.28</course>
  <speed>0.0282842712474619</speed>
  <fix>3d</fix>
</trkpt>
<trkpt lat="-27.2744393" lon="151.290065">
  <ele>343.09</ele>
  <time>2026-09-01T19:52:19Z</time>
  <course>227.79</course>
  <speed>0.0</speed>
  <fix>3d</fix>
</trkpt>
<trkpt lat="-27.2744391" lon="151.2900648">
  <ele>342.89</ele>
  <time>2026-09-01T19:52:19Z</time>
  <course>175.28</course>
  <speed>0.0282842712474619</speed>
  <fix>3d</fix>
</trkpt>
<trkpt lat="-27.2744393" lon="151.290065">
  <ele>343.09</ele>
  <time>2026-09-01T19:52:19Z</time>
  <course>227.79</course>
  <speed>0.0</speed>
  <fix>3d</fix>
</trkpt>
<trkpt lat="-27.2744391" lon="151.2900648">
  <ele>342.89</ele>
  <time>2026-09-01T19:52:19Z</time>
  <course>175.28</course>
  <speed>0.0282842712474619</speed>
  <fix>3d</fix>
</trkpt>
<trkpt lat="-27.2744393" lon="151.290065">
  <ele>343.09</ele>
  <time>2026-09-01T19:52:19Z</time>
  <course>47.83</course>
  <speed>0.0</speed>
  <fix>3d</fix>
</trkpt>
<trkpt lat="-27.2744391" lon="151.2900648">
  <ele>342.89</ele>
  <time>2026-09-01T19:52:19Z</time>
  <course>175.28</course>
  <speed>0.0282842712474619</speed>
  <fix>3d</fix>
</trkpt>
<trkpt lat="-27.2744393" lon="151.290065">
  <ele>343.09</ele>
  <time>2026-09-01T19:52:19Z</time>
  <course>47.83</course>
  <speed>0.0</speed>
  <fix>3d</fix>
</trkpt>
<trkpt lat="-27.2744391" lon="151.2900648">
  <ele>342.89</ele>
  <time>2026-09-01T19:52:19Z</time>
  <course>175.28</course>
  <speed>0.0282842712474619</speed>
  <fix>3d</fix>
</trkpt>
<trkpt lat="-27.2744393" lon="151.290065">
  <ele>343.1</ele>
  <time>2026-09-01T19:52:19Z</time>
  <course>47.85</course>
  <speed>0.0</speed>
  <fix>3d</fix>
</trkpt>
<trkpt lat="-27.2744391" lon="151.2900648">
  <ele>342.9</ele>
  <time>2026-09-01T19:52:19Z</time>
  <course>175.28</course>
  <speed>0.0282842712474619</speed>
  <fix>3d</fix>
</trkpt>
<trkpt lat="-27.2744393" lon="151.290065">
  <ele>343.1</ele>
  <time>2026-09-01T19:52:19Z</time>
  <course>47.85</course>
  <speed>0.0</speed>
  <fix>3d</fix>
</trkpt>
<trkpt lat="-27.2744391" lon="151.2900648">
  <ele>342.9</ele>
  <time>2026-09-01T19:52:19Z</time>
  <course>175.28</course>
  <speed>0.0282842712474619</speed>
  <fix>3d</fix>
</trkpt>
<trkpt lat="-27.2744393" lon="151.290065">
  <ele>343.1</ele>
  <time>2026-09-01T19:52:19Z</time>
  <course>227.69</course>
  <speed>0.0</speed>
  <fix>3d</fix>
</trkpt>
<trkpt lat="-27.2744391" lon="151.2900648">
  <ele>342.9</ele>
  <time>2026-09-01T19:52:19Z</time>
  <course>175.28</course>
  <speed>0.0282842712474619</speed>
  <fix>3d</fix>
</trkpt>
<trkpt lat="-27.2744393" lon="151.290065">
  <ele>343.1</ele>
  <time>2026-09-01T19:52:19Z</time>
  <course>227.69</course>
  <speed>0.0</speed>
  <fix>3d</fix>
</trkpt>
<trkpt lat="-27.2744391" lon="151.2900648">
  <ele>342.9</ele>
  <time>2026-09-01T19:52:19Z</time>
  <course>175.28</course>
  <speed>0.0282842712474619</speed>
  <fix>3d</fix>
</trkpt>
<trkpt lat="-27.2744393" lon="151.290065">
  <ele>343.1</ele>
  <time>2026-09-01T19:52:19Z</time>
  <course>227.69</course>
  <speed>0.0</speed>
  <fix>3d</fix>
</trkpt>
<trkpt lat="-27.2744391" lon="151.2900648">
  <ele>342.91</ele>
  <time>2026-09-01T19:52:19Z</time>
  <course>175.28</course>
  <speed>0.0282842712474619</speed>
  <fix>3d</fix>
</trkpt>
<trkpt lat="-27.2744393" lon="151.290065">
  <ele>343.1</ele>
  <time>2026-09-01T19:52:19Z</time>
  <course>227.69</course>
  <speed>0.0</speed>
  <fix>3d</fix>
</trkpt>
<trkpt lat="-27.2744391" lon="151.2900648">
  <ele>342.91</ele>
  <time>2026-09-01T19:52:19Z</time>
  <course>175.28</course>
  <speed>0.0282842712474619</speed>
  <fix>3d</fix>
</trkpt>
<trkpt lat="-27.2744393" lon="151.290065">
  <ele>343.1</ele>
  <time>2026-09-01T19:52:19Z</time>
  <course>48.11</course>
  <speed>0.0</speed>
  <fix>3d</fix>
</trkpt>
<trkpt lat="-27.2744391" lon="151.2900648">
  <ele>342.91</ele>
  <time>2026-09-01T19:52:19Z</time>
  <course>175.28</course>
  <speed>0.0282842712474619</speed>
  <fix>3d</fix>
</trkpt>
<trkpt lat="-27.2744393" lon="151.290065">
  <ele>343.1</ele>
  <time>2026-09-01T19:52:19Z</time>
  <course>48.11</course>
  <speed>0.0</speed>
  <fix>3d</fix>
</trkpt>
<trkpt lat="-27.2744391" lon="151.2900648">
  <ele>342.91</ele>
  <time>2026-09-01T19:52:19Z</time>
  <course>175.28</course>
  <speed>0.0282842712474619</speed>
  <fix>3d</fix>
</trkpt>
<trkpt lat="-27.2744393" lon="151.290065">
  <ele>343.1</ele>
  <time>2026-09-01T19:52:19Z</time>
  <course>50.32</course>
  <speed>0.0</speed>
  <fix>3d</fix>
</trkpt>
<trkpt lat="-27.2744391" lon="151.2900648">
  <ele>342.91</ele>
  <time>2026-09-01T19:52:19Z</time>
  <course>175.28</course>
  <speed>0.0282842712474619</speed>
  <fix>3d</fix>
</trkpt>
<trkpt lat="-27.2744393" lon="151.290065">
  <ele>343.1</ele>
  <time>2026-09-01T19:52:19Z</time>
  <course>50.32</course>
  <speed>0.0</speed>
  <fix>3d</fix>
</trkpt>
<trkpt lat="-27.2744391" lon="151.2900648">
  <ele>342.91</ele>
  <time>2026-09-01T19:52:19Z</time>
  <course>175.28</course>
  <speed>0.0282842712474619</speed>
  <fix>3d</fix>
</trkpt>
<trkpt lat="-27.2744393" lon="151.290065">
  <ele>343.1</ele>
  <time>2026-09-01T19:52:19Z</time>
  <course>226.85</course>
  <speed>0.0</speed>
  <fix>3d</fix>
</trkpt>
<trkpt lat="-27.2744391" lon="151.2900648">
  <ele>342.92</ele>
  <time>2026-09-01T19:52:19Z</time>
  <course>175.28</course>
  <speed>0.0282842712474619</speed>
  <fix>3d</fix>
</trkpt>
<trkpt lat="-27.2744393" lon="151.290065">
  <ele>343.1</ele>
  <time>2026-09-01T19:52:19Z</time>
  <course>226.85</course>
  <speed>0.0</speed>
  <fix>3d</fix>
</trkpt>
<trkpt lat="-27.2744391" lon="151.2900648">
  <ele>342.92</ele>
  <time>2026-09-01T19:52:19Z</time>
  <course>175.28</course>
  <speed>0.0282842712474619</speed>
  <fix>3d</fix>
</trkpt>
<trkpt lat="-27.2744393" lon="151.290065">
  <ele>343.1</ele>
  <time>2026-09-01T19:52:19Z</time>
  <course>287.54</course>
  <speed>0.0</speed>
  <fix>3d</fix>
</trkpt>
<trkpt lat="-27.2744391" lon="151.2900648">
  <ele>342.92</ele>
  <time>2026-09-01T19:52:19Z</time>
  <course>175.28</course>
  <speed>0.0282842712474619</speed>
  <fix>3d</fix>
</trkpt>
<trkpt lat="-27.2744393" lon="151.290065">
  <ele>343.1</ele>
  <time>2026-09-01T19:52:19Z</time>
  <course>287.54</course>
  <speed>0.0</speed>
  <fix>3d</fix>
</trkpt>
<trkpt lat="-27.2744391" lon="151.2900648">
  <ele>342.91</ele>
  <time>2026-09-01T19:52:19Z</time>
  <course>175.28</course>
  <speed>0.0282842712474619</speed>
  <fix>3d</fix>
</trkpt>
<trkpt lat="-27.2744393" lon="151.290065">
  <ele>343.1</ele>
  <time>2026-09-01T19:52:19Z</time>
  <course>297.95</course>
  <speed>0.0</speed>
  <fix>3d</fix>
</trkpt>
<trkpt lat="-27.2744391" lon="151.2900648">
  <ele>342.91</ele>
  <time>2026-09-01T19:52:19Z</time>
  <course>175.29</course>
  <speed>0.0282842712474619</speed>
  <fix>3d</fix>
</trkpt>
<trkpt lat="-27.2744393" lon="151.290065">
  <ele>343.1</ele>
  <time>2026-09-01T19:52:19Z</time>
  <course>297.95</course>
  <speed>0.0</speed>
  <fix>3d</fix>
</trkpt>
<trkpt lat="-27.2744391" lon="151.2900648">
  <ele>342.91</ele>
  <time>2026-09-01T19:52:19Z</time>
  <course>175.28</course>
  <speed>0.0282842712474619</speed>
  <fix>3d</fix>
</trkpt>
<trkpt lat="-27.2744393" lon="151.290065">
  <ele>343.1</ele>
  <time>2026-09-01T19:52:19Z</time>
  <course>289.5</course>
  <speed>0.0</speed>
  <fix>3d</fix>
</trkpt>
<trkpt lat="-27.2744391" lon="151.2900648">
  <ele>342.91</ele>
  <time>2026-09-01T19:52:19Z</time>
  <course>175.28</course>
  <speed>0.0282842712474619</speed>
  <fix>3d</fix>
</trkpt>
<trkpt lat="-27.2744393" lon="151.290065">
  <ele>343.1</ele>
  <time>2026-09-01T19:52:19Z</time>
  <course>289.5</course>
  <speed>0.0</speed>
  <fix>3d</fix>
</trkpt>
<trkpt lat="-27.2744391" lon="151.2900648">
  <ele>342.91</ele>
  <time>2026-09-01T19:52:19Z</time>
  <course>175.28</course>
  <speed>0.0282842712474619</speed>
  <fix>3d</fix>
</trkpt>
<trkpt lat="-27.2744393" lon="151.290065">
  <ele>343.1</ele>
  <time>2026-09-01T19:52:19Z</time>
  <course>300.71</course>
  <speed>0.0</speed>
  <fix>3d</fix>
</trkpt>
<trkpt lat="-27.2744391" lon="151.2900648">
  <ele>342.91</ele>
  <time>2026-09-01T19:52:19Z</time>
  <course>175.29</course>
  <speed>0.0282842712474619</speed>
  <fix>3d</fix>
</trkpt>
<trkpt lat="-27.2744393" lon="151.290065">
  <ele>343.1</ele>
  <time>2026-09-01T19:52:19Z</time>
  <course>300.71</course>
  <speed>0.0</speed>
  <fix>3d</fix>
</trkpt>
<trkpt lat="-27.2744391" lon="151.2900648">
  <ele>342.92</ele>
  <time>2026-09-01T19:52:19Z</time>
  <course>175.29</course>
  <speed>0.0282842712474619</speed>
  <fix>3d</fix>
</trkpt>
<trkpt lat="-27.2744393" lon="151.290065">
  <ele>343.1</ele>
  <time>2026-09-01T19:52:19Z</time>
  <course>318.22</course>
  <speed>0.0</speed>
  <fix>3d</fix>
</trkpt>
<trkpt lat="-27.2744391" lon="151.2900648">
  <ele>342.92</ele>
  <time>2026-09-01T19:52:19Z</time>
  <course>175.29</course>
  <speed>0.0282842712474619</speed>
  <fix>3d</fix>
</trkpt>
<trkpt lat="-27.2744393" lon="151.290065">
  <ele>343.1</ele>
  <time>2026-09-01T19:52:19Z</time>
  <course>318.22</course>
  <speed>0.0</speed>
  <fix>3d</fix>
</trkpt>
<trkpt lat="-27.2744391" lon="151.2900648">
  <ele>342.92</ele>
  <time>2026-09-01T19:52:19Z</time>
  <course>175.29</course>
  <speed>0.0282842712474619</speed>
  <fix>3d</fix>
</trkpt>
<trkpt lat="-27.2744393" lon="151.290065">
  <ele>343.1</ele>
  <time>2026-09-01T19:52:19Z</time>
  <course>310.04</course>
  <speed>0.0</speed>
  <fix>3d</fix>
</trkpt>
<trkpt lat="-27.2744391" lon="151.2900648">
  <ele>342.92</ele>
  <time>2026-09-01T19:52:19Z</time>
  <course>175.29</course>
  <speed>0.0282842712474619</speed>
  <fix>3d</fix>
</trkpt>
<trkpt lat="-27.2744393" lon="151.290065">
  <ele>343.1</ele>
  <time>2026-09-01T19:52:19Z</time>
  <course>310.04</course>
  <speed>0.0</speed>
  <fix>3d</fix>
</trkpt>
<trkpt lat="-27.2744391" lon="151.2900648">
  <ele>342.92</ele>
  <time>2026-09-01T19:52:19Z</time>
  <course>175.29</course>
  <speed>0.0282842712474619</speed>
  <fix>3d</fix>
</trkpt>
<trkpt lat="-27.2744393" lon="151.290065">
  <ele>343.1</ele>
  <time>2026-09-01T19:52:19Z</time>
  <course>308.5</course>
  <speed>0.0</speed>
  <fix>3d</fix>
</trkpt>
<trkpt lat="-27.2744391" lon="151.2900648">
  <ele>342.92</ele>
  <time>2026-09-01T19:52:19Z</time>
  <course>175.29</course>
  <speed>0.0282842712474619</speed>
  <fix>3d</fix>
</trkpt>
<trkpt lat="-27.2744393" lon="151.290065">
  <ele>343.1</ele>
  <time>2026-09-01T19:52:19Z</time>
  <course>308.5</course>
  <speed>0.0</speed>
  <fix>3d</fix>
</trkpt>
<trkpt lat="-27.2744391" lon="151.2900648">
  <ele>342.92</ele>
  <time>2026-09-01T19:52:19Z</time>
  <course>175.29</course>
  <speed>0.0282842712474619</speed>
  <fix>3d</fix>
</trkpt>
<trkpt lat="-27.2744393" lon="151.290065">
  <ele>343.1</ele>
  <time>2026-09-01T19:52:19Z</time>
  <course>334.22</course>
  <speed>0.0</speed>
  <fix>3d</fix>
</trkpt>
<trkpt lat="-27.2744391" lon="151.2900648">
  <ele>342.91</ele>
  <time>2026-09-01T19:52:19Z</time>
  <course>175.29</course>
  <speed>0.0282842712474619</speed>
  <fix>3d</fix>
</trkpt>
<trkpt lat="-27.2744393" lon="151.290065">
  <ele>343.1</ele>
  <time>2026-09-01T19:52:19Z</time>
  <course>334.22</course>
  <speed>0.0</speed>
  <fix>3d</fix>
</trkpt>
<trkpt lat="-27.2744391" lon="151.2900648">
  <ele>342.91</ele>
  <time>2026-09-01T19:52:19Z</time>
  <course>175.29</course>
  <speed>0.0282842712474619</speed>
  <fix>3d</fix>
</trkpt>
<trkpt lat="-27.2744393" lon="151.290065">
  <ele>343.1</ele>
  <time>2026-09-01T19:52:19Z</time>
  <course>337.07</course>
  <speed>0.0</speed>
  <fix>3d</fix>
</trkpt>
<trkpt lat="-27.2744391" lon="151.2900648">
  <ele>342.91</ele>
  <time>2026-09-01T19:52:19Z</time>
  <course>175.29</course>
  <speed>0.0282842712474619</speed>
  <fix>3d</fix>
</trkpt>
<trkpt lat="-27.2744393" lon="151.290065">
  <ele>343.1</ele>
  <time>2026-09-01T19:52:19Z</time>
  <course>337.07</course>
  <speed>0.0</speed>
  <fix>3d</fix>
</trkpt>
<trkpt lat="-27.2744391" lon="151.2900648">
  <ele>342.92</ele>
  <time>2026-09-01T19:52:19Z</time>
  <course>175.29</course>
  <speed>0.0282842712474619</speed>
  <fix>3d</fix>
</trkpt>
<trkpt lat="-27.2744393" lon="151.290065">
  <ele>343.1</ele>
  <time>2026-09-01T19:52:19Z</time>
  <course>314.23</course>
  <speed>0.0</speed>
  <fix>3d</fix>
</trkpt>
<trkpt lat="-27.2744391" lon="151.2900648">
  <ele>342.92</ele>
  <time>2026-09-01T19:52:19Z</time>
  <course>175.29</course>
  <speed>0.0282842712474619</speed>
  <fix>3d</fix>
</trkpt>
<trkpt lat="-27.2744393" lon="151.290065">
  <ele>343.1</ele>
  <time>2026-09-01T19:52:19Z</time>
  <course>314.23</course>
  <speed>0.0</speed>
  <fix>3d</fix>
</trkpt>
<trkpt lat="-27.2744391" lon="151.2900648">
  <ele>342.91</ele>
  <time>2026-09-01T19:52:19Z</time>
  <course>175.29</course>
  <speed>0.0282842712474619</speed>
  <fix>3d</fix>
</trkpt>
<trkpt lat="-27.2744393" lon="151.290065">
  <ele>343.1</ele>
  <time>2026-09-01T19:52:19Z</time>
  <course>304.01</course>
  <speed>0.0</speed>
  <fix>3d</fix>
</trkpt>
<trkpt lat="-27.2744391" lon="151.2900648">
  <ele>342.91</ele>
  <time>2026-09-01T19:52:19Z</time>
  <course>175.29</course>
  <speed>0.0282842712474619</speed>
  <fix>3d</fix>
</trkpt>
<trkpt lat="-27.2744393" lon="151.290065">
  <ele>343.1</ele>
  <time>2026-09-01T19:52:19Z</time>
  <course>304.01</course>
  <speed>0.0</speed>
  <fix>3d</fix>
</trkpt>
<trkpt lat="-27.2744391" lon="151.2900648">
  <ele>342.91</ele>
  <time>2026-09-01T19:52:19Z</time>
  <course>175.29</course>
  <speed>0.022360679774997897</speed>
  <fix>3d</fix>
</trkpt>
<trkpt lat="-27.2744393" lon="151.290065">
  <ele>343.1</ele>
  <time>2026-09-01T19:52:19Z</time>
  <course>309.4</course>
  <speed>0.0</speed>
  <fix>3d</fix>
</trkpt>
<trkpt lat="-27.2744391" lon="151.2900648">
  <ele>342.91</ele>
  <time>2026-09-01T19:52:19Z</time>
  <course>175.29</course>
  <speed>0.0282842712474619</speed>
  <fix>3d</fix>
</trkpt>
<trkpt lat="-27.2744393" lon="151.290065">
  <ele>343.1</ele>
  <time>2026-09-01T19:52:19Z</time>
  <course>309.4</course>
  <speed>0.0</speed>
  <fix>3d</fix>
</trkpt>
<trkpt lat="-27.2744391" lon="151.2900648">
  <ele>342.91</ele>
  <time>2026-09-01T19:52:19Z</time>
  <course>175.29</course>
  <speed>0.022360679774997897</speed>
  <fix>3d</fix>
</trkpt>
<trkpt lat="-27.2744393" lon="151.290065">
  <ele>343.1</ele>
  <time>2026-09-01T19:52:19Z</time>
  <course>310.15</course>
  <speed>0.0</speed>
  <fix>3d</fix>
</trkpt>
<trkpt lat="-27.2744391" lon="151.2900648">
  <ele>342.91</ele>
  <time>2026-09-01T19:52:19Z</time>
  <course>175.29</course>
  <speed>0.022360679774997897</speed>
  <fix>3d</fix>
</trkpt>
<trkpt lat="-27.2744393" lon="151.290065">
  <ele>343.1</ele>
  <time>2026-09-01T19:52:19Z</time>
  <course>310.15</course>
  <speed>0.0</speed>
  <fix>3d</fix>
</trkpt>
<trkpt lat="-27.2744391" lon="151.2900648">
  <ele>342.91</ele>
  <time>2026-09-01T19:52:19Z</time>
  <course>175.29</course>
  <speed>0.022360679774997897</speed>
  <fix>3d</fix>
</trkpt>
<trkpt lat="-27.2744393" lon="151.290065">
  <ele>343.1</ele>
  <time>2026-09-01T19:52:19Z</time>
  <course>309.4</course>
  <speed>0.0</speed>
  <fix>3d</fix>
</trkpt>
<trkpt lat="-27.2744391" lon="151.2900648">
  <ele>342.91</ele>
  <time>2026-09-01T19:52:19Z</time>
  <course>175.29</course>
  <speed>0.022360679774997897</speed>
  <fix>3d</fix>
</trkpt>
<trkpt lat="-27.2744393" lon="151.290065">
  <ele>343.1</ele>
  <time>2026-09-01T19:52:19Z</time>
  <course>309.4</course>
  <speed>0.0</speed>
  <fix>3d</fix>
</trkpt>
<trkpt lat="-27.2744391" lon="151.2900648">
  <ele>342.91</ele>
  <time>2026-09-01T19:52:19Z</time>
  <course>175.29</course>
  <speed>0.022360679774997897</speed>
  <fix>3d</fix>
</trkpt>
<trkpt lat="-27.2744393" lon="151.290065">
  <ele>343.1</ele>
  <time>2026-09-01T19:52:19Z</time>
  <course>313.03</course>
  <speed>0.0</speed>
  <fix>3d</fix>
</trkpt>
<trkpt lat="-27.2744391" lon="151.2900648">
  <ele>342.91</ele>
  <time>2026-09-01T19:52:20Z</time>
  <course>175.29</course>
  <speed>0.022360679774997897</speed>
  <fix>3d</fix>
</trkpt>
<trkpt lat="-27.2744393" lon="151.290065">
  <ele>343.1</ele>
  <time>2026-09-01T19:52:20Z</time>
  <course>313.03</course>
  <speed>0.0</speed>
  <fix>3d</fix>
</trkpt>
<trkpt lat="-27.2744391" lon="151.2900648">
  <ele>342.91</ele>
  <time>2026-09-01T19:52:20Z</time>
  <course>175.29</course>
  <speed>0.022360679774997897</speed>
  <fix>3d</fix>
</trkpt>
<trkpt lat="-27.2744393" lon="151.290065">
  <ele>343.1</ele>
  <time>2026-09-01T19:52:20Z</time>
  <course>330.32</course>
  <speed>0.0</speed>
  <fix>3d</fix>
</trkpt>
<trkpt lat="-27.2744391" lon="151.2900648">
  <ele>342.91</ele>
  <time>2026-09-01T19:52:20Z</time>
  <course>175.29</course>
  <speed>0.022360679774997897</speed>
  <fix>3d</fix>
</trkpt>
<trkpt lat="-27.2744393" lon="151.290065">
  <ele>343.1</ele>
  <time>2026-09-01T19:52:20Z</time>
  <course>330.32</course>
  <speed>0.0</speed>
  <fix>3d</fix>
</trkpt>
<trkpt lat="-27.2744391" lon="151.2900648">
  <ele>342.91</ele>
  <time>2026-09-01T19:52:20Z</time>
  <course>175.29</course>
  <speed>0.022360679774997897</speed>
  <fix>3d</fix>
</trkpt>
<trkpt lat="-27.2744393" lon="151.290065">
  <ele>343.1</ele>
  <time>2026-09-01T19:52:20Z</time>
  <course>325.37</course>
  <speed>0.0</speed>
  <fix>3d</fix>
</trkpt>
<trkpt lat="-27.2744391" lon="151.2900648">
  <ele>342.91</ele>
  <time>2026-09-01T19:52:20Z</time>
  <course>175.29</course>
  <speed>0.022360679774997897</speed>
  <fix>3d</fix>
</trkpt>
<trkpt lat="-27.2744393" lon="151.290065">
  <ele>343.1</ele>
  <time>2026-09-01T19:52:20Z</time>
  <course>325.37</course>
  <speed>0.0</speed>
  <fix>3d</fix>
</trkpt>
<trkpt lat="-27.2744391" lon="151.2900648">
  <ele>342.91</ele>
  <time>2026-09-01T19:52:20Z</time>
  <course>175.29</course>
  <speed>0.022360679774997897</speed>
  <fix>3d</fix>
</trkpt>
<trkpt lat="-27.2744393" lon="151.290065">
  <ele>343.1</ele>
  <time>2026-09-01T19:52:20Z</time>
  <course>305.24</course>
  <speed>0.0</speed>
  <fix>3d</fix>
</trkpt>
<trkpt lat="-27.2744391" lon="151.2900648">
  <ele>342.91</ele>
  <time>2026-09-01T19:52:20Z</time>
  <course>175.29</course>
  <speed>0.022360679774997897</speed>
  <fix>3d</fix>
</trkpt>
<trkpt lat="-27.2744393" lon="151.290065">
  <ele>343.1</ele>
  <time>2026-09-01T19:52:20Z</time>
  <course>305.24</course>
  <speed>0.0</speed>
  <fix>3d</fix>
</trkpt>
<trkpt lat="-27.2744391" lon="151.2900648">
  <ele>342.91</ele>
  <time>2026-09-01T19:52:20Z</time>
  <course>175.29</course>
  <speed>0.022360679774997897</speed>
  <fix>3d</fix>
</trkpt>
<trkpt lat="-27.2744393" lon="151.290065">
  <ele>343.1</ele>
  <time>2026-09-01T19:52:20Z</time>
  <course>307.88</course>
  <speed>0.0</speed>
  <fix>3d</fix>
</trkpt>
<trkpt lat="-27.2744391" lon="151.2900648">
  <ele>342.91</ele>
  <time>2026-09-01T19:52:20Z</time>
  <course>175.29</course>
  <speed>0.022360679774997897</speed>
  <fix>3d</fix>
</trkpt>
<trkpt lat="-27.2744393" lon="151.290065">
  <ele>343.1</ele>
  <time>2026-09-01T19:52:20Z</time>
  <course>307.88</course>
  <speed>0.0</speed>
  <fix>3d</fix>
</trkpt>
<trkpt lat="-27.2744391" lon="151.2900648">
  <ele>342.91</ele>
  <time>2026-09-01T19:52:20Z</time>
  <course>175.29</course>
  <speed>0.022360679774997897</speed>
  <fix>3d</fix>
</trkpt>
<trkpt lat="-27.2744393" lon="151.290065">
  <ele>343.1</ele>
  <time>2026-09-01T19:52:20Z</time>
  <course>174.65</course>
  <speed>0.0</speed>
  <fix>3d</fix>
</trkpt>
<trkpt lat="-27.2744391" lon="151.2900648">
  <ele>342.91</ele>
  <time>2026-09-01T19:52:20Z</time>
  <course>175.28</course>
  <speed>0.022360679774997897</speed>
  <fix>3d</fix>
</trkpt>
<trkpt lat="-27.2744393" lon="151.290065">
  <ele>343.1</ele>
  <time>2026-09-01T19:52:20Z</time>
  <course>174.65</course>
  <speed>0.0</speed>
  <fix>3d</fix>
</trkpt>
<trkpt lat="-27.2744391" lon="151.2900648">
  <ele>343.09</ele>
  <time>2026-09-01T19:52:20Z</time>
  <course>175.28</course>
  <speed>0.022360679774997897</speed>
  <fix>3d</fix>
</trkpt>
<trkpt lat="-27.2744393" lon="151.290065">
  <ele>343.1</ele>
  <time>2026-09-01T19:52:20Z</time>
  <course>173.22</course>
  <speed>0.0</speed>
  <fix>3d</fix>
</trkpt>
<trkpt lat="-27.2744391" lon="151.2900648">
  <ele>343.09</ele>
  <time>2026-09-01T19:52:20Z</time>
  <course>175.28</course>
  <speed>0.022360679774997897</speed>
  <fix>3d</fix>
</trkpt>
<trkpt lat="-27.2744393" lon="151.290065">
  <ele>343.1</ele>
  <time>2026-09-01T19:52:20Z</time>
  <course>173.22</course>
  <speed>0.0</speed>
  <fix>3d</fix>
</trkpt>
<trkpt lat="-27.2744391" lon="151.2900648">
  <ele>343.09</ele>
  <time>2026-09-01T19:52:20Z</time>
  <course>175.28</course>
  <speed>0.022360679774997897</speed>
  <fix>3d</fix>
</trkpt>
<trkpt lat="-27.2744393" lon="151.290065">
  <ele>343.1</ele>
  <time>2026-09-01T19:52:20Z</time>
  <course>166.93</course>
  <speed>0.0</speed>
  <fix>3d</fix>
</trkpt>
<trkpt lat="-27.2744391" lon="151.2900648">
  <ele>343.09</ele>
  <time>2026-09-01T19:52:20Z</time>
  <course>175.27</course>
  <speed>0.022360679774997897</speed>
  <fix>3d</fix>
</trkpt>
<trkpt lat="-27.2744393" lon="151.290065">
  <ele>343.1</ele>
  <time>2026-09-01T19:52:20Z</time>
  <course>166.93</course>
  <speed>0.0</speed>
  <fix>3d</fix>
</trkpt>
<trkpt lat="-27.2744391" lon="151.2900648">
  <ele>343.09</ele>
  <time>2026-09-01T19:52:20Z</time>
  <course>175.27</course>
  <speed>0.022360679774997897</speed>
  <fix>3d</fix>
</trkpt>
<trkpt lat="-27.2744393" lon="151.290065">
  <ele>343.1</ele>
  <time>2026-09-01T19:52:20Z</time>
  <course>353.02</course>
  <speed>0.0</speed>
  <fix>3d</fix>
</trkpt>
<trkpt lat="-27.2744391" lon="151.2900648">
  <ele>343.09</ele>
  <time>2026-09-01T19:52:20Z</time>
  <course>175.27</course>
  <speed>0.022360679774997897</speed>
  <fix>3d</fix>
</trkpt>
<trkpt lat="-27.2744393" lon="151.290065">
  <ele>343.1</ele>
  <time>2026-09-01T19:52:20Z</time>
  <course>353.02</course>
  <speed>0.0</speed>
  <fix>3d</fix>
</trkpt>
<trkpt lat="-27.2744391" lon="151.2900648">
  <ele>343.09</ele>
  <time>2026-09-01T19:52:20Z</time>
  <course>175.27</course>
  <speed>0.022360679774997897</speed>
  <fix>3d</fix>
</trkpt>
<trkpt lat="-27.2744393" lon="151.290065">
  <ele>343.1</ele>
  <time>2026-09-01T19:52:20Z</time>
  <course>175.7</course>
  <speed>0.0</speed>
  <fix>3d</fix>
</trkpt>
<trkpt lat="-27.2744391" lon="151.2900648">
  <ele>343.09</ele>
  <time>2026-09-01T19:52:20Z</time>
  <course>175.26</course>
  <speed>0.022360679774997897</speed>
  <fix>3d</fix>
</trkpt>
<trkpt lat="-27.2744393" lon="151.290065">
  <ele>343.1</ele>
  <time>2026-09-01T19:52:20Z</time>
  <course>175.7</course>
  <speed>0.0</speed>
  <fix>3d</fix>
</trkpt>
<trkpt lat="-27.2744391" lon="151.2900648">
  <ele>343.09</ele>
  <time>2026-09-01T19:52:20Z</time>
  <course>175.26</course>
  <speed>0.022360679774997897</speed>
  <fix>3d</fix>
</trkpt>
<trkpt lat="-27.2744393" lon="151.290065">
  <ele>343.1</ele>
  <time>2026-09-01T19:52:20Z</time>
  <course>172.81</course>
  <speed>0.0</speed>
  <fix>3d</fix>
</trkpt>
<trkpt lat="-27.2744391" lon="151.2900648">
  <ele>343.08</ele>
  <time>2026-09-01T19:52:20Z</time>
  <course>175.26</course>
  <speed>0.022360679774997897</speed>
  <fix>3d</fix>
</trkpt>
<trkpt lat="-27.2744393" lon="151.290065">
  <ele>343.1</ele>
  <time>2026-09-01T19:52:20Z</time>
  <course>172.81</course>
  <speed>0.0</speed>
  <fix>3d</fix>
</trkpt>
<trkpt lat="-27.2744391" lon="151.2900648">
  <ele>343.08</ele>
  <time>2026-09-01T19:52:20Z</time>
  <course>175.26</course>
  <speed>0.022360679774997897</speed>
  <fix>3d</fix>
</trkpt>
<trkpt lat="-27.2744393" lon="151.290065">
  <ele>343.1</ele>
  <time>2026-09-01T19:52:20Z</time>
  <course>354.05</course>
  <speed>0.0</speed>
  <fix>3d</fix>
</trkpt>
<trkpt lat="-27.2744391" lon="151.2900648">
  <ele>343.07</ele>
  <time>2026-09-01T19:52:20Z</time>
  <course>175.25</course>
  <speed>0.022360679774997897</speed>
  <fix>3d</fix>
</trkpt>
<trkpt lat="-27.2744393" lon="151.290065">
  <ele>343.1</ele>
  <time>2026-09-01T19:52:20Z</time>
  <course>354.05</course>
  <speed>0.0</speed>
  <fix>3d</fix>
</trkpt>
<trkpt lat="-27.2744391" lon="151.2900648">
  <ele>343.07</ele>
  <time>2026-09-01T19:52:20Z</time>
  <course>175.25</course>
  <speed>0.022360679774997897</speed>
  <fix>3d</fix>
</trkpt>
<trkpt lat="-27.2744393" lon="151.290065">
  <ele>343.1</ele>
  <time>2026-09-01T19:52:20Z</time>
  <course>352.52</course>
  <speed>0.0</speed>
  <fix>3d</fix>
</trkpt>
<trkpt lat="-27.2744391" lon="151.2900648">
  <ele>343.06</ele>
  <time>2026-09-01T19:52:20Z</time>
  <course>175.25</course>
  <speed>0.022360679774997897</speed>
  <fix>3d</fix>
</trkpt>
<trkpt lat="-27.2744393" lon="151.290065">
  <ele>343.1</ele>
  <time>2026-09-01T19:52:20Z</time>
  <course>173.56</course>
  <speed>0.0</speed>
  <fix>3d</fix>
</trkpt>
<trkpt lat="-27.2744391" lon="151.2900648">
  <ele>343.06</ele>
  <time>2026-09-01T19:52:20Z</time>
  <course>175.25</course>
  <speed>0.022360679774997897</speed>
  <fix>3d</fix>
</trkpt>
<trkpt lat="-27.2744393" lon="151.290065">
  <ele>343.1</ele>
  <time>2026-09-01T19:52:20Z</time>
  <course>173.56</course>
  <speed>0.0</speed>
  <fix>3d</fix>
</trkpt>
<trkpt lat="-27.2744391" lon="151.2900648">
  <ele>343.06</ele>
  <time>2026-09-01T19:52:20Z</time>
  <course>175.24</course>
  <speed>0.022360679774997897</speed>
  <fix>3d</fix>
</trkpt>
<trkpt lat="-27.2744393" lon="151.290065">
  <ele>343.1</ele>
  <time>2026-09-01T19:52:20Z</time>
  <course>171.99</course>
  <speed>0.0</speed>
  <fix>3d</fix>
</trkpt>
<trkpt lat="-27.2744391" lon="151.2900648">
  <ele>343.06</ele>
  <time>2026-09-01T19:52:20Z</time>
  <course>175.24</course>
  <speed>0.022360679774997897</speed>
  <fix>3d</fix>
</trkpt>
<trkpt lat="-27.2744393" lon="151.290065">
  <ele>343.1</ele>
  <time>2026-09-01T19:52:20Z</time>
  <course>171.99</course>
  <speed>0.0</speed>
  <fix>3d</fix>
</trkpt>
<trkpt lat="-27.2744391" lon="151.2900648">
  <ele>343.05</ele>
  <time>2026-09-01T19:52:20Z</time>
  <course>175.24</course>
  <speed>0.022360679774997897</speed>
  <fix>3d</fix>
</trkpt>
<trkpt lat="-27.2744393" lon="151.290065">
  <ele>343.1</ele>
  <time>2026-09-01T19:52:20Z</time>
  <course>353.29</course>
  <speed>0.0</speed>
  <fix>3d</fix>
</trkpt>
<trkpt lat="-27.2744391" lon="151.2900648">
  <ele>343.05</ele>
  <time>2026-09-01T19:52:20Z</time>
  <course>175.24</course>
  <speed>0.022360679774997897</speed>
  <fix>3d</fix>
</trkpt>
<trkpt lat="-27.2744393" lon="151.290065">
  <ele>343.1</ele>
  <time>2026-09-01T19:52:20Z</time>
  <course>353.29</course>
  <speed>0.0</speed>
  <fix>3d</fix>
</trkpt>
<trkpt lat="-27.2744391" lon="151.2900648">
  <ele>343.05</ele>
  <time>2026-09-01T19:52:20Z</time>
  <course>175.23</course>
  <speed>0.022360679774997897</speed>
  <fix>3d</fix>
</trkpt>
<trkpt lat="-27.2744393" lon="151.290065">
  <ele>343.1</ele>
  <time>2026-09-01T19:52:20Z</time>
  <course>353.29</course>
  <speed>0.0</speed>
  <fix>3d</fix>
</trkpt>
<trkpt lat="-27.2744391" lon="151.2900648">
  <ele>343.05</ele>
  <time>2026-09-01T19:52:20Z</time>
  <course>175.23</course>
  <speed>0.022360679774997897</speed>
  <fix>3d</fix>
</trkpt>
<trkpt lat="-27.2744393" lon="151.290065">
  <ele>343.1</ele>
  <time>2026-09-01T19:52:20Z</time>
  <course>349.98</course>
  <speed>0.0</speed>
  <fix>3d</fix>
</trkpt>
<trkpt lat="-27.2744391" lon="151.2900648">
  <ele>343.05</ele>
  <time>2026-09-01T19:52:20Z</time>
  <course>175.23</course>
  <speed>0.022360679774997897</speed>
  <fix>3d</fix>
</trkpt>
<trkpt lat="-27.2744393" lon="151.290065">
  <ele>343.1</ele>
  <time>2026-09-01T19:52:20Z</time>
  <course>349.98</course>
  <speed>0.0</speed>
  <fix>3d</fix>
</trkpt>
<trkpt lat="-27.2744391" lon="151.2900648">
  <ele>343.05</ele>
  <time>2026-09-01T19:52:20Z</time>
  <course>175.23</course>
  <speed>0.022360679774997897</speed>
  <fix>3d</fix>
</trkpt>
<trkpt lat="-27.2744393" lon="151.290065">
  <ele>343.1</ele>
  <time>2026-09-01T19:52:20Z</time>
  <course>173.08</course>
  <speed>0.0</speed>
  <fix>3d</fix>
</trkpt>
<trkpt lat="-27.2744391" lon="151.2900648">
  <ele>343.05</ele>
  <time>2026-09-01T19:52:20Z</time>
  <course>175.23</course>
  <speed>0.022360679774997897</speed>
  <fix>3d</fix>
</trkpt>
<trkpt lat="-27.2744393" lon="151.290065">
  <ele>343.1</ele>
  <time>2026-09-01T19:52:20Z</time>
  <course>173.08</course>
  <speed>0.0</speed>
  <fix>3d</fix>
</trkpt>
<trkpt lat="-27.2744391" lon="151.2900648">
  <ele>343.05</ele>
  <time>2026-09-01T19:52:20Z</time>
  <course>175.22</course>
  <speed>0.022360679774997897</speed>
  <fix>3d</fix>
</trkpt>
<trkpt lat="-27.2744393" lon="151.290065">
  <ele>343.1</ele>
  <time>2026-09-01T19:52:20Z</time>
  <course>352.87</course>
  <speed>0.0</speed>
  <fix>3d</fix>
</trkpt>
<trkpt lat="-27.2744391" lon="151.2900648">
  <ele>343.04</ele>
  <time>2026-09-01T19:52:20Z</time>
  <course>175.21</course>
  <speed>0.022360679774997897</speed>
  <fix>3d</fix>
</trkpt>
<trkpt lat="-27.2744393" lon="151.290065">
  <ele>343.1</ele>
  <time>2026-09-01T19:52:20Z</time>
  <course>172.62</course>
  <speed>0.0</speed>
  <fix>3d</fix>
</trkpt>
<trkpt lat="-27.2744391" lon="151.2900648">
  <ele>343.03</ele>
  <time>2026-09-01T19:52:20Z</time>
  <course>175.2</course>
  <speed>0.022360679774997897</speed>
  <fix>3d</fix>
</trkpt>
<trkpt lat="-27.2744393" lon="151.290065">
  <ele>343.1</ele>
  <time>2026-09-01T19:52:20Z</time>
  <course>353.65</course>
  <speed>0.0</speed>
  <fix>3d</fix>
</trkpt>
<trkpt lat="-27.2744391" lon="151.2900648">
  <ele>343.03</ele>
  <time>2026-09-01T19:52:20Z</time>
  <course>175.2</course>
  <speed>0.022360679774997897</speed>
  <fix>3d</fix>
</trkpt>
<trkpt lat="-27.2744393" lon="151.290065">
  <ele>343.1</ele>
  <time>2026-09-01T19:52:20Z</time>
  <course>353.65</course>
  <speed>0.0</speed>
  <fix>3d</fix>
</trkpt>
<trkpt lat="-27.2744391" lon="151.2900648">
  <ele>343.03</ele>
  <time>2026-09-01T19:52:20Z</time>
  <course>175.2</course>
  <speed>0.022360679774997897</speed>
  <fix>3d</fix>
</trkpt>
<trkpt lat="-27.2744393" lon="151.290065">
  <ele>343.1</ele>
  <time>2026-09-01T19:52:20Z</time>
  <course>352.12</course>
  <speed>0.0</speed>
  <fix>3d</fix>
</trkpt>
<trkpt lat="-27.2744391" lon="151.2900648">
  <ele>343.03</ele>
  <time>2026-09-01T19:52:20Z</time>
  <course>175.2</course>
  <speed>0.022360679774997897</speed>
  <fix>3d</fix>
</trkpt>
<trkpt lat="-27.2744393" lon="151.290065">
  <ele>343.1</ele>
  <time>2026-09-01T19:52:20Z</time>
  <course>173.51</course>
  <speed>0.0</speed>
  <fix>3d</fix>
</trkpt>
<trkpt lat="-27.2744391" lon="151.2900648">
  <ele>343.03</ele>
  <time>2026-09-01T19:52:20Z</time>
  <course>175.2</course>
  <speed>0.022360679774997897</speed>
  <fix>3d</fix>
</trkpt>
<trkpt lat="-27.2744393" lon="151.290065">
  <ele>343.1</ele>
  <time>2026-09-01T19:52:20Z</time>
  <course>173.51</course>
  <speed>0.0</speed>
  <fix>3d</fix>
</trkpt>
<trkpt lat="-27.2744391" lon="151.2900648">
  <ele>343.03</ele>
  <time>2026-09-01T19:52:20Z</time>
  <course>175.19</course>
  <speed>0.022360679774997897</speed>
  <fix>3d</fix>
</trkpt>
<trkpt lat="-27.2744393" lon="151.290065">
  <ele>343.1</ele>
  <time>2026-09-01T19:52:20Z</time>
  <course>173.16</course>
  <speed>0.0</speed>
  <fix>3d</fix>
</trkpt>
<trkpt lat="-27.2744391" lon="151.2900648">
  <ele>343.03</ele>
  <time>2026-09-01T19:52:20Z</time>
  <course>175.19</course>
  <speed>0.022360679774997897</speed>
  <fix>3d</fix>
</trkpt>
<trkpt lat="-27.2744393" lon="151.290065">
  <ele>343.1</ele>
  <time>2026-09-01T19:52:20Z</time>
  <course>173.16</course>
  <speed>0.0</speed>
  <fix>3d</fix>
</trkpt>
<trkpt lat="-27.2744391" lon="151.2900648">
  <ele>343.03</ele>
  <time>2026-09-01T19:52:20Z</time>
  <course>175.19</course>
  <speed>0.022360679774997897</speed>
  <fix>3d</fix>
</trkpt>
<trkpt lat="-27.2744393" lon="151.290065">
  <ele>343.1</ele>
  <time>2026-09-01T19:52:20Z</time>
  <course>344.57</course>
  <speed>0.0</speed>
  <fix>3d</fix>
</trkpt>
<trkpt lat="-27.2744391" lon="151.2900648">
  <ele>343.03</ele>
  <time>2026-09-01T19:52:20Z</time>
  <course>175.19</course>
  <speed>0.022360679774997897</speed>
  <fix>3d</fix>
</trkpt>
<trkpt lat="-27.2744393" lon="151.290065">
  <ele>343.1</ele>
  <time>2026-09-01T19:52:20Z</time>
  <course>344.57</course>
  <speed>0.0</speed>
  <fix>3d</fix>
</trkpt>
<trkpt lat="-27.2744391" lon="151.2900648">
  <ele>343.03</ele>
  <time>2026-09-01T19:52:20Z</time>
  <course>175.18</course>
  <speed>0.022360679774997897</speed>
  <fix>3d</fix>
</trkpt>
<trkpt lat="-27.2744393" lon="151.290065">
  <ele>343.1</ele>
  <time>2026-09-01T19:52:20Z</time>
  <course>261.18</course>
  <speed>0.0</speed>
  <fix>3d</fix>
</trkpt>
<trkpt lat="-27.2744391" lon="151.2900648">
  <ele>343.03</ele>
  <time>2026-09-01T19:52:20Z</time>
  <course>175.18</course>
  <speed>0.022360679774997897</speed>
  <fix>3d</fix>
</trkpt>
<trkpt lat="-27.2744393" lon="151.290065">
  <ele>343.1</ele>
  <time>2026-09-01T19:52:20Z</time>
  <course>261.18</course>
  <speed>0.0</speed>
  <fix>3d</fix>
</trkpt>
<trkpt lat="-27.2744391" lon="151.2900648">
  <ele>343.04</ele>
  <time>2026-09-01T19:52:20Z</time>
  <course>175.18</course>
  <speed>0.022360679774997897</speed>
  <fix>3d</fix>
</trkpt>
<trkpt lat="-27.2744393" lon="151.290065">
  <ele>343.1</ele>
  <time>2026-09-01T19:52:20Z</time>
  <course>230.71</course>
  <speed>0.0</speed>
  <fix>3d</fix>
</trkpt>
<trkpt lat="-27.2744391" lon="151.2900648">
  <ele>343.04</ele>
  <time>2026-09-01T19:52:20Z</time>
  <course>175.18</course>
  <speed>0.022360679774997897</speed>
  <fix>3d</fix>
</trkpt>
<trkpt lat="-27.2744393" lon="151.290065">
  <ele>343.1</ele>
  <time>2026-09-01T19:52:20Z</time>
  <course>230.71</course>
  <speed>0.0</speed>
  <fix>3d</fix>
</trkpt>
<trkpt lat="-27.2744391" lon="151.2900648">
  <ele>343.04</ele>
  <time>2026-09-01T19:52:20Z</time>
  <course>175.17</course>
  <speed>0.022360679774997897</speed>
  <fix>3d</fix>
</trkpt>
<trkpt lat="-27.2744393" lon="151.290065">
  <ele>343.1</ele>
  <time>2026-09-01T19:52:20Z</time>
  <course>238.84</course>
  <speed>0.0</speed>
  <fix>3d</fix>
</trkpt>
<trkpt lat="-27.2744391" lon="151.2900648">
  <ele>343.04</ele>
  <time>2026-09-01T19:52:20Z</time>
  <course>175.17</course>
  <speed>0.022360679774997897</speed>
  <fix>3d</fix>
</trkpt>
<trkpt lat="-27.2744393" lon="151.290065">
  <ele>343.1</ele>
  <time>2026-09-01T19:52:20Z</time>
  <course>238.84</course>
  <speed>0.0</speed>
  <fix>3d</fix>
</trkpt>
<trkpt lat="-27.2744391" lon="151.2900648">
  <ele>343.05</ele>
  <time>2026-09-01T19:52:20Z</time>
  <course>175.17</course>
  <speed>0.022360679774997897</speed>
  <fix>3d</fix>
</trkpt>
<trkpt lat="-27.2744393" lon="151.290065">
  <ele>343.1</ele>
  <time>2026-09-01T19:52:20Z</time>
  <course>238.84</course>
  <speed>0.0</speed>
  <fix>3d</fix>
</trkpt>
<trkpt lat="-27.2744391" lon="151.2900648">
  <ele>343.05</ele>
  <time>2026-09-01T19:52:20Z</time>
  <course>175.17</course>
  <speed>0.022360679774997897</speed>
  <fix>3d</fix>
</trkpt>
<trkpt lat="-27.2744393" lon="151.290065">
  <ele>343.1</ele>
  <time>2026-09-01T19:52:20Z</time>
  <course>240.06</course>
  <speed>0.0</speed>
  <fix>3d</fix>
</trkpt>
<trkpt lat="-27.2744391" lon="151.2900648">
  <ele>343.05</ele>
  <time>2026-09-01T19:52:20Z</time>
  <course>175.17</course>
  <speed>0.022360679774997897</speed>
  <fix>3d</fix>
</trkpt>
<trkpt lat="-27.2744393" lon="151.290065">
  <ele>343.1</ele>
  <time>2026-09-01T19:52:20Z</time>
  <course>240.06</course>
  <speed>0.0</speed>
  <fix>3d</fix>
</trkpt>
<trkpt lat="-27.2744391" lon="151.2900648">
  <ele>343.05</ele>
  <time>2026-09-01T19:52:20Z</time>
  <course>175.16</course>
  <speed>0.022360679774997897</speed>
  <fix>3d</fix>
</trkpt>
<trkpt lat="-27.2744393" lon="151.290065">
  <ele>343.1</ele>
  <time>2026-09-01T19:52:20Z</time>
  <course>240.22</course>
  <speed>0.0</speed>
  <fix>3d</fix>
</trkpt>
<trkpt lat="-27.2744391" lon="151.2900648">
  <ele>343.05</ele>
  <time>2026-09-01T19:52:20Z</time>
  <course>175.16</course>
  <speed>0.022360679774997897</speed>
  <fix>3d</fix>
</trkpt>
<trkpt lat="-27.2744393" lon="151.290065">
  <ele>343.1</ele>
  <time>2026-09-01T19:52:20Z</time>
  <course>240.22</course>
  <speed>0.0</speed>
  <fix>3d</fix>
</trkpt>
<trkpt lat="-27.2744391" lon="151.2900648">
  <ele>343.05</ele>
  <time>2026-09-01T19:52:20Z</time>
  <course>175.16</course>
  <speed>0.022360679774997897</speed>
  <fix>3d</fix>
</trkpt>
<trkpt lat="-27.2744393" lon="151.290065">
  <ele>343.1</ele>
  <time>2026-09-01T19:52:20Z</time>
  <course>240.25</course>
  <speed>0.0</speed>
  <fix>3d</fix>
</trkpt>
<trkpt lat="-27.2744391" lon="151.2900648">
  <ele>343.05</ele>
  <time>2026-09-01T19:52:20Z</time>
  <course>175.16</course>
  <speed>0.022360679774997897</speed>
  <fix>3d</fix>
</trkpt>
<trkpt lat="-27.2744393" lon="151.290065">
  <ele>343.1</ele>
  <time>2026-09-01T19:52:20Z</time>
  <course>240.25</course>
  <speed>0.0</speed>
  <fix>3d</fix>
</trkpt>
<trkpt lat="-27.2744391" lon="151.2900648">
  <ele>343.05</ele>
  <time>2026-09-01T19:52:20Z</time>
  <course>175.15</course>
  <speed>0.022360679774997897</speed>
  <fix>3d</fix>
</trkpt>
<trkpt lat="-27.2744393" lon="151.290065">
  <ele>343.1</ele>
  <time>2026-09-01T19:52:20Z</time>
  <course>240.25</course>
  <speed>0.0</speed>
  <fix>3d</fix>
</trkpt>
<trkpt lat="-27.2744391" lon="151.2900648">
  <ele>343.06</ele>
  <time>2026-09-01T19:52:20Z</time>
  <course>175.15</course>
  <speed>0.022360679774997897</speed>
  <fix>3d</fix>
</trkpt>
<trkpt lat="-27.2744393" lon="151.290065">
  <ele>343.1</ele>
  <time>2026-09-01T19:52:20Z</time>
  <course>240.25</course>
  <speed>0.0</speed>
  <fix>3d</fix>
</trkpt>
<trkpt lat="-27.2744391" lon="151.2900648">
  <ele>343.06</ele>
  <time>2026-09-01T19:52:20Z</time>
  <course>175.15</course>
  <speed>0.022360679774997897</speed>
  <fix>3d</fix>
</trkpt>
<trkpt lat="-27.2744393" lon="151.290065">
  <ele>343.1</ele>
  <time>2026-09-01T19:52:20Z</time>
  <course>240.25</course>
  <speed>0.0</speed>
  <fix>3d</fix>
</trkpt>
<trkpt lat="-27.2744391" lon="151.2900648">
  <ele>343.06</ele>
  <time>2026-09-01T19:52:20Z</time>
  <course>175.15</course>
  <speed>0.022360679774997897</speed>
  <fix>3d</fix>
</trkpt>
<trkpt lat="-27.2744393" lon="151.290065">
  <ele>343.1</ele>
  <time>2026-09-01T19:52:20Z</time>
  <course>240.25</course>
  <speed>0.0</speed>
  <fix>3d</fix>
</trkpt>
<trkpt lat="-27.2744391" lon="151.2900648">
  <ele>343.06</ele>
  <time>2026-09-01T19:52:20Z</time>
  <course>175.14</course>
  <speed>0.022360679774997897</speed>
  <fix>3d</fix>
</trkpt>
<trkpt lat="-27.2744393" lon="151.290065">
  <ele>343.1</ele>
  <time>2026-09-01T19:52:20Z</time>
  <course>240.25</course>
  <speed>0.0</speed>
  <fix>3d</fix>
</trkpt>
<trkpt lat="-27.2744391" lon="151.2900648">
  <ele>343.06</ele>
  <time>2026-09-01T19:52:20Z</time>
  <course>175.14</course>
  <speed>0.022360679774997897</speed>
  <fix>3d</fix>
</trkpt>
<trkpt lat="-27.2744393" lon="151.290065">
  <ele>343.1</ele>
  <time>2026-09-01T19:52:20Z</time>
  <course>240.25</course>
  <speed>0.0</speed>
  <fix>3d</fix>
</trkpt>
<trkpt lat="-27.2744391" lon="151.2900648">
  <ele>343.1</ele>
  <time>2026-09-01T19:52:20Z</time>
  <course>175.14</course>
  <speed>0.022360679774997897</speed>
  <fix>3d</fix>
</trkpt>
<trkpt lat="-27.2744393" lon="151.290065">
  <ele>343.1</ele>
  <time>2026-09-01T19:52:20Z</time>
  <course>240.25</course>
  <speed>0.0</speed>
  <fix>3d</fix>
</trkpt>
<trkpt lat="-27.2744391" lon="151.2900648">
  <ele>343.09</ele>
  <time>2026-09-01T19:52:20Z</time>
  <course>175.14</course>
  <speed>0.022360679774997897</speed>
  <fix>3d</fix>
</trkpt>
<trkpt lat="-27.2744393" lon="151.290065">
  <ele>343.1</ele>
  <time>2026-09-01T19:52:20Z</time>
  <course>240.25</course>
  <speed>0.0</speed>
  <fix>3d</fix>
</trkpt>
<trkpt lat="-27.2744391" lon="151.2900648">
  <ele>343.09</ele>
  <time>2026-09-01T19:52:21Z</time>
  <course>175.13</course>
  <speed>0.022360679774997897</speed>
  <fix>3d</fix>
</trkpt>
<trkpt lat="-27.2744393" lon="151.290065">
  <ele>343.1</ele>
  <time>2026-09-01T19:52:21Z</time>
  <course>240.25</course>
  <speed>0.0</speed>
  <fix>3d</fix>
</trkpt>
<trkpt lat="-27.2744391" lon="151.2900648">
  <ele>343.1</ele>
  <time>2026-09-01T19:52:21Z</time>
  <course>175.13</course>
  <speed>0.022360679774997897</speed>
  <fix>3d</fix>
</trkpt>
<trkpt lat="-27.2744393" lon="151.290065">
  <ele>343.1</ele>
  <time>2026-09-01T19:52:21Z</time>
  <course>240.25</course>
  <speed>0.0</speed>
  <fix>3d</fix>
</trkpt>
<trkpt lat="-27.2744391" lon="151.2900648">
  <ele>343.1</ele>
  <time>2026-09-01T19:52:21Z</time>
  <course>175.13</course>
  <speed>0.022360679774997897</speed>
  <fix>3d</fix>
</trkpt>
<trkpt lat="-27.2744393" lon="151.290065">
  <ele>343.1</ele>
  <time>2026-09-01T19:52:21Z</time>
  <course>240.25</course>
  <speed>0.0</speed>
  <fix>3d</fix>
</trkpt>
<trkpt lat="-27.2744391" lon="151.2900648">
  <ele>343.1</ele>
  <time>2026-09-01T19:52:21Z</time>
  <course>175.13</course>
  <speed>0.022360679774997897</speed>
  <fix>3d</fix>
</trkpt>
<trkpt lat="-27.2744393" lon="151.290065">
  <ele>343.1</ele>
  <time>2026-09-01T19:52:21Z</time>
  <course>240.25</course>
  <speed>0.0</speed>
  <fix>3d</fix>
</trkpt>
<trkpt lat="-27.2744391" lon="151.2900648">
  <ele>343.1</ele>
  <time>2026-09-01T19:52:21Z</time>
  <course>175.12</course>
  <speed>0.022360679774997897</speed>
  <fix>3d</fix>
</trkpt>
<trkpt lat="-27.2744393" lon="151.290065">
  <ele>343.1</ele>
  <time>2026-09-01T19:52:21Z</time>
  <course>240.25</course>
  <speed>0.0</speed>
  <fix>3d</fix>
</trkpt>
<trkpt lat="-27.2744391" lon="151.2900648">
  <ele>343.1</ele>
  <time>2026-09-01T19:52:21Z</time>
  <course>175.12</course>
  <speed>0.022360679774997897</speed>
  <fix>3d</fix>
</trkpt>
<trkpt lat="-27.2744393" lon="151.290065">
  <ele>343.1</ele>
  <time>2026-09-01T19:52:21Z</time>
  <course>240.25</course>
  <speed>0.0</speed>
  <fix>3d</fix>
</trkpt>
<trkpt lat="-27.2744391" lon="151.2900648">
  <ele>343.1</ele>
  <time>2026-09-01T19:52:21Z</time>
  <course>175.12</course>
  <speed>0.022360679774997897</speed>
  <fix>3d</fix>
</trkpt>
<trkpt lat="-27.2744393" lon="151.290065">
  <ele>343.1</ele>
  <time>2026-09-01T19:52:21Z</time>
  <course>240.25</course>
  <speed>0.0</speed>
  <fix>3d</fix>
</trkpt>
<trkpt lat="-27.2744391" lon="151.2900648">
  <ele>343.1</ele>
  <time>2026-09-01T19:52:21Z</time>
  <course>175.12</course>
  <speed>0.022360679774997897</speed>
  <fix>3d</fix>
</trkpt>
<trkpt lat="-27.2744393" lon="151.290065">
  <ele>343.1</ele>
  <time>2026-09-01T19:52:21Z</time>
  <course>309.1</course>
  <speed>0.0</speed>
  <fix>3d</fix>
</trkpt>
<trkpt lat="-27.2744391" lon="151.2900648">
  <ele>343.1</ele>
  <time>2026-09-01T19:52:21Z</time>
  <course>175.11</course>
  <speed>0.022360679774997897</speed>
  <fix>3d</fix>
</trkpt>
<trkpt lat="-27.2744393" lon="151.290065">
  <ele>343.1</ele>
  <time>2026-09-01T19:52:21Z</time>
  <course>309.1</course>
  <speed>0.0</speed>
  <fix>3d</fix>
</trkpt>
<trkpt lat="-27.2744391" lon="151.2900648">
  <ele>343.1</ele>
  <time>2026-09-01T19:52:21Z</time>
  <course>175.11</course>
  <speed>0.022360679774997897</speed>
  <fix>3d</fix>
</trkpt>
<trkpt lat="-27.2744393" lon="151.290065">
  <ele>343.1</ele>
  <time>2026-09-01T19:52:21Z</time>
  <course>307.13</course>
  <speed>0.0</speed>
  <fix>3d</fix>
</trkpt>
<trkpt lat="-27.2744391" lon="151.2900648">
  <ele>343.1</ele>
  <time>2026-09-01T19:52:21Z</time>
  <course>175.11</course>
  <speed>0.022360679774997897</speed>
  <fix>3d</fix>
</trkpt>
<trkpt lat="-27.2744393" lon="151.290065">
  <ele>343.1</ele>
  <time>2026-09-01T19:52:21Z</time>
  <course>307.13</course>
  <speed>0.0</speed>
  <fix>3d</fix>
</trkpt>
<trkpt lat="-27.2744391" lon="151.2900648">
  <ele>343.1</ele>
  <time>2026-09-01T19:52:21Z</time>
  <course>175.11</course>
  <speed>0.022360679774997897</speed>
  <fix>3d</fix>
</trkpt>
<trkpt lat="-27.2744393" lon="151.290065">
  <ele>343.1</ele>
  <time>2026-09-01T19:52:21Z</time>
  <course>306.57</course>
  <speed>0.0</speed>
  <fix>3d</fix>
</trkpt>
<trkpt lat="-27.2744391" lon="151.2900648">
  <ele>343.1</ele>
  <time>2026-09-01T19:52:21Z</time>
  <course>175.1</course>
  <speed>0.022360679774997897</speed>
  <fix>3d</fix>
</trkpt>
<trkpt lat="-27.2744393" lon="151.290065">
  <ele>343.1</ele>
  <time>2026-09-01T19:52:21Z</time>
  <course>306.57</course>
  <speed>0.0</speed>
  <fix>3d</fix>
</trkpt>
<trkpt lat="-27.2744391" lon="151.2900648">
  <ele>343.1</ele>
  <time>2026-09-01T19:52:21Z</time>
  <course>175.1</course>
  <speed>0.022360679774997897</speed>
  <fix>3d</fix>
</trkpt>
<trkpt lat="-27.2744393" lon="151.290065">
  <ele>343.1</ele>
  <time>2026-09-01T19:52:21Z</time>
  <course>123.51</course>
  <speed>0.0</speed>
  <fix>3d</fix>
</trkpt>
<trkpt lat="-27.2744391" lon="151.2900648">
  <ele>343.1</ele>
  <time>2026-09-01T19:52:21Z</time>
  <course>175.1</course>
  <speed>0.022360679774997897</speed>
  <fix>3d</fix>
</trkpt>
<trkpt lat="-27.2744393" lon="151.290065">
  <ele>343.1</ele>
  <time>2026-09-01T19:52:21Z</time>
  <course>123.51</course>
  <speed>0.0</speed>
  <fix>3d</fix>
</trkpt>
<trkpt lat="-27.2744391" lon="151.2900648">
  <ele>343.1</ele>
  <time>2026-09-01T19:52:21Z</time>
  <course>175.1</course>
  <speed>0.022360679774997897</speed>
  <fix>3d</fix>
</trkpt>
<trkpt lat="-27.2744393" lon="151.290065">
  <ele>343.1</ele>
  <time>2026-09-01T19:52:21Z</time>
  <course>129.42</course>
  <speed>0.0</speed>
  <fix>3d</fix>
</trkpt>
<trkpt lat="-27.2744391" lon="151.2900648">
  <ele>343.1</ele>
  <time>2026-09-01T19:52:21Z</time>
  <course>175.09</course>
  <speed>0.022360679774997897</speed>
  <fix>3d</fix>
</trkpt>
<trkpt lat="-27.2744393" lon="151.290065">
  <ele>343.1</ele>
  <time>2026-09-01T19:52:21Z</time>
  <course>129.42</course>
  <speed>0.0</speed>
  <fix>3d</fix>
</trkpt>
<trkpt lat="-27.2744391" lon="151.2900648">
  <ele>343.11</ele>
  <time>2026-09-01T19:52:21Z</time>
  <course>175.09</course>
  <speed>0.0282842712474619</speed>
  <fix>3d</fix>
</trkpt>
<trkpt lat="-27.2744393" lon="151.290065">
  <ele>343.1</ele>
  <time>2026-09-01T19:52:21Z</time>
  <course>173.17</course>
  <speed>0.0</speed>
  <fix>3d</fix>
</trkpt>
<trkpt lat="-27.2744391" lon="151.2900648">
  <ele>343.14</ele>
  <time>2026-09-01T19:52:21Z</time>
  <course>175.09</course>
  <speed>0.022360679774997897</speed>
  <fix>3d</fix>
</trkpt>
<trkpt lat="-27.2744393" lon="151.290065">
  <ele>343.1</ele>
  <time>2026-09-01T19:52:21Z</time>
  <course>173.17</course>
  <speed>0.0</speed>
  <fix>3d</fix>
</trkpt>
<trkpt lat="-27.2744391" lon="151.2900648">
  <ele>343.2</ele>
  <time>2026-09-01T19:52:21Z</time>
  <course>175.08</course>
  <speed>0.022360679774997897</speed>
  <fix>3d</fix>
</trkpt>
<trkpt lat="-27.2744393" lon="151.290065">
  <ele>343.15</ele>
  <time>2026-09-01T19:52:21Z</time>
  <course>174.35</course>
  <speed>0.0</speed>
  <fix>3d</fix>
</trkpt>
<trkpt lat="-27.2744391" lon="151.2900648">
  <ele>343.27</ele>
  <time>2026-09-01T19:52:21Z</time>
  <course>175.09</course>
  <speed>0.02</speed>
  <fix>3d</fix>
</trkpt>
<trkpt lat="-27.2744393" lon="151.290065">
  <ele>343.15</ele>
  <time>2026-09-01T19:52:21Z</time>
  <course>174.35</course>
  <speed>0.0</speed>
  <fix>3d</fix>
</trkpt>
<trkpt lat="-27.2744391" lon="151.2900648">
  <ele>343.41</ele>
  <time>2026-09-01T19:52:21Z</time>
  <course>175.11</course>
  <speed>0.022360679774997897</speed>
  <fix>3d</fix>
</trkpt>
<trkpt lat="-27.2744393" lon="151.290065">
  <ele>343.29</ele>
  <time>2026-09-01T19:52:21Z</time>
  <course>167.77</course>
  <speed>0.02</speed>
  <fix>3d</fix>
</trkpt>
<trkpt lat="-27.2744392" lon="151.2900648">
  <ele>343.61</ele>
  <time>2026-09-01T19:52:21Z</time>
  <course>175.13</course>
  <speed>0.06</speed>
  <fix>3d</fix>
</trkpt>
<trkpt lat="-27.2744393" lon="151.290065">
  <ele>343.29</ele>
  <time>2026-09-01T19:52:21Z</time>
  <course>167.77</course>
  <speed>0.02</speed>
  <fix>3d</fix>
</trkpt>
<trkpt lat="-27.2744393" lon="151.2900648">
  <ele>343.86</ele>
  <time>2026-09-01T19:52:21Z</time>
  <course>175.14</course>
  <speed>0.11</speed>
  <fix>3d</fix>
</trkpt>
<trkpt lat="-27.2744394" lon="151.290065">
  <ele>343.62</ele>
  <time>2026-09-01T19:52:21Z</time>
  <course>168.04</course>
  <speed>0.09</speed>
  <fix>3d</fix>
</trkpt>
<trkpt lat="-27.2744394" lon="151.2900648">
  <ele>344.12</ele>
  <time>2026-09-01T19:52:21Z</time>
  <course>175.12</course>
  <speed>0.15</speed>
  <fix>3d</fix>
</trkpt>
<trkpt lat="-27.2744394" lon="151.290065">
  <ele>343.62</ele>
  <time>2026-09-01T19:52:21Z</time>
  <course>168.04</course>
  <speed>0.09</speed>
  <fix>3d</fix>
</trkpt>
<trkpt lat="-27.2744396" lon="151.2900648">
  <ele>344.4</ele>
  <time>2026-09-01T19:52:21Z</time>
  <course>175.08</course>
  <speed>0.19026297590440447</speed>
  <fix>3d</fix>
</trkpt>
<trkpt lat="-27.2744396" lon="151.290065">
  <ele>344.11</ele>
  <time>2026-09-01T19:52:21Z</time>
  <course>169.07</course>
  <speed>0.18</speed>
  <fix>3d</fix>
</trkpt>
<trkpt lat="-27.2744398" lon="151.2900649">
  <ele>344.69</ele>
  <time>2026-09-01T19:52:21Z</time>
  <course>175.04</course>
  <speed>0.24020824298928628</speed>
  <fix>3d</fix>
</trkpt>
<trkpt lat="-27.2744396" lon="151.290065">
  <ele>344.11</ele>
  <time>2026-09-01T19:52:21Z</time>
  <course>169.07</course>
  <speed>0.18</speed>
  <fix>3d</fix>
</trkpt>
<trkpt lat="-27.2744401" lon="151.2900649">
  <ele>345.0</ele>
  <time>2026-09-01T19:52:21Z</time>
  <course>175.0</course>
  <speed>0.280713376952364</speed>
  <fix>3d</fix>
</trkpt>
<trkpt lat="-27.27444" lon="151.290065">
  <ele>344.68</ele>
  <time>2026-09-01T19:52:21Z</time>
  <course>170.04</course>
  <speed>0.26</speed>
  <fix>3d</fix>
</trkpt>
<trkpt lat="-27.2744404" lon="151.2900649">
  <ele>345.31</ele>
  <time>2026-09-01T19:52:21Z</time>
  <course>173.14</course>
  <speed>0.32062439083762795</speed>
  <fix>3d</fix>
</trkpt>
<trkpt lat="-27.27444" lon="151.290065">
  <ele>344.68</ele>
  <time>2026-09-01T19:52:21Z</time>
  <course>170.04</course>
  <speed>0.26</speed>
  <fix>3d</fix>
</trkpt>
<trkpt lat="-27.2744407" lon="151.290065">
  <ele>345.64</ele>
  <time>2026-09-01T19:52:21Z</time>
  <course>173.89</course>
  <speed>0.3605551275463989</speed>
  <fix>3d</fix>
</trkpt>
<trkpt lat="-27.2744406" lon="151.2900651">
  <ele>345.3</ele>
  <time>2026-09-01T19:52:21Z</time>
  <course>170.79</course>
  <speed>0.35</speed>
  <fix>3d</fix>
</trkpt>
<trkpt lat="-27.274441" lon="151.290065">
  <ele>345.97</ele>
  <time>2026-09-01T19:52:21Z</time>
  <course>174.15</course>
  <speed>0.3911521443121589</speed>
  <fix>3d</fix>
</trkpt>
<trkpt lat="-27.2744406" lon="151.2900651">
  <ele>345.3</ele>
  <time>2026-09-01T19:52:21Z</time>
  <course>170.79</course>
  <speed>0.35</speed>
  <fix>3d</fix>
</trkpt>
<trkpt lat="-27.2744414" lon="151.2900651">
  <ele>346.3</ele>
  <time>2026-09-01T19:52:21Z</time>
  <course>173.94</course>
  <speed>0.41109609582188933</speed>
  <fix>3d</fix>
</trkpt>
<trkpt lat="-27.2744413" lon="151.2900652">
  <ele>345.96</ele>
  <time>2026-09-01T19:52:21Z</time>
  <course>171.21</course>
  <speed>0.41</speed>
  <fix>3d</fix>
</trkpt>
<trkpt lat="-27.2744418" lon="151.2900651">
  <ele>346.64</ele>
  <time>2026-09-01T19:52:21Z</time>
  <course>173.47</course>
  <speed>0.4310452412450461</speed>
  <fix>3d</fix>
</trkpt>
<trkpt lat="-27.2744413" lon="151.2900652">
  <ele>345.96</ele>
  <time>2026-09-01T19:52:21Z</time>
  <course>171.21</course>
  <speed>0.41</speed>
  <fix>3d</fix>
</trkpt>
<trkpt lat="-27.2744422" lon="151.2900652">
  <ele>346.97</ele>
  <time>2026-09-01T19:52:21Z</time>
  <course>172.99</course>
  <speed>0.4509988913511872</speed>
  <fix>3d</fix>
</trkpt>
<trkpt lat="-27.2744421" lon="151.2900654">
  <ele>346.62</ele>
  <time>2026-09-01T19:52:21Z</time>
  <course>171.24</course>
  <speed>0.46</speed>
  <fix>3d</fix>
</trkpt>
<trkpt lat="-27.2744427" lon="151.2900653">
  <ele>347.29</ele>
  <time>2026-09-01T19:52:21Z</time>
  <course>172.58</course>
  <speed>0.45177427992306074</speed>
  <fix>3d</fix>
</trkpt>
<trkpt lat="-27.2744421" lon="151.2900654">
  <ele>346.62</ele>
  <time>2026-09-01T19:52:21Z</time>
  <course>171.24</course>
  <speed>0.46</speed>
  <fix>3d</fix>
</trkpt>
<trkpt lat="-27.2744431" lon="151.2900653">
  <ele>347.61</ele>
  <time>2026-09-01T19:52:21Z</time>
  <course>172.33</course>
  <speed>0.45177427992306074</speed>
  <fix>3d</fix>
</trkpt>
<trkpt lat="-27.2744429" lon="151.2900655">
  <ele>347.28</ele>
  <time>2026-09-01T19:52:21Z</time>
  <course>170.9</course>
  <speed>0.48</speed>
  <fix>3d</fix>
</trkpt>
<trkpt lat="-27.2744435" lon="151.2900654">
  <ele>347.92</ele>
  <time>2026-09-01T19:52:21Z</time>
  <course>172.19</course>
  <speed>0.45177427992306074</speed>
  <fix>3d</fix>
</trkpt>
<trkpt lat="-27.2744429" lon="151.2900655">
  <ele>347.28</ele>
  <time>2026-09-01T19:52:21Z</time>
  <course>170.9</course>
  <speed>0.48</speed>
  <fix>3d</fix>
</trkpt>
<trkpt lat="-27.2744439" lon="151.2900655">
  <ele>348.23</ele>
  <time>2026-09-01T19:52:21Z</time>
  <course>172.17</course>
  <speed>0.43185645763378366</speed>
  <fix>3d</fix>
</trkpt>
<trkpt lat="-27.2744438" lon="151.2900656">
  <ele>347.9</ele>
  <time>2026-09-01T19:52:21Z</time>
  <course>170.3</course>
  <speed>0.48</speed>
  <fix>3d</fix>
</trkpt>
<trkpt lat="-27.2744444" lon="151.2900656">
  <ele>348.52</ele>
  <time>2026-09-01T19:52:21Z</time>
  <course>172.19</course>
  <speed>0.4219004621945798</speed>
  <fix>3d</fix>
</trkpt>
<trkpt lat="-27.2744438" lon="151.2900656">
  <ele>347.9</ele>
  <time>2026-09-01T19:52:21Z</time>
  <course>170.3</course>
  <speed>0.48</speed>
  <fix>3d</fix>
</trkpt>
<trkpt lat="-27.2744447" lon="151.2900656">
  <ele>348.81</ele>
  <time>2026-09-01T19:52:21Z</time>
  <course>172.26</course>
  <speed>0.4019950248448356</speed>
  <fix>3d</fix>
</trkpt>
<trkpt lat="-27.2744446" lon="151.2900659">
  <ele>348.5</ele>
  <time>2026-09-01T19:52:21Z</time>
  <course>169.55</course>
  <speed>0.45</speed>
  <fix>3d</fix>
</trkpt>
<trkpt lat="-27.2744451" lon="151.2900657">
  <ele>349.09</ele>
  <time>2026-09-01T19:52:21Z</time>
  <course>172.32</course>
  <speed>0.3721558813185679</speed>
  <fix>3d</fix>
</trkpt>
<trkpt lat="-27.2744446" lon="151.2900659">
  <ele>348.5</ele>
  <time>2026-09-01T19:52:21Z</time>
  <course>169.55</course>
  <speed>0.45</speed>
  <fix>3d</fix>
</trkpt>
<trkpt lat="-27.2744455" lon="151.2900658">
  <ele>349.36</ele>
  <time>2026-09-01T19:52:21Z</time>
  <course>172.38</course>
  <speed>0.3423448553724738</speed>
  <fix>3d</fix>
</trkpt>
<trkpt lat="-27.2744453" lon="151.290066">
  <ele>349.07</ele>
  <time>2026-09-01T19:52:21Z</time>
  <course>168.71</course>
  <speed>0.4</speed>
  <fix>3d</fix>
</trkpt>
<trkpt lat="-27.2744458" lon="151.2900659">
  <ele>349.63</ele>
  <time>2026-09-01T19:52:21Z</time>
  <course>172.42</course>
  <speed>0.3125699921617557</speed>
  <fix>3d</fix>
</trkpt>
<trkpt lat="-27.2744453" lon="151.290066">
  <ele>349.07</ele>
  <time>2026-09-01T19:52:21Z</time>
  <course>168.71</course>
  <speed>0.4</speed>
  <fix>3d</fix>
</trkpt>
<trkpt lat="-27.274446" lon="151.2900659">
  <ele>349.88</ele>
  <time>2026-09-01T19:52:21Z</time>
  <course>172.44</course>
  <speed>0.27166155414412246</speed>
  <fix>3d</fix>
</trkpt>
<trkpt lat="-27.274446" lon="151.2900662">
  <ele>349.6</ele>
  <time>2026-09-01T19:52:21Z</time>
  <course>167.71</course>
  <speed>0.34</speed>
  <fix>3d</fix>
</trkpt>
<trkpt lat="-27.2744463" lon="151.290066">
  <ele>350.14</ele>
  <time>2026-09-01T19:52:21Z</time>
  <course>172.45</course>
  <speed>0.23194827009486402</speed>
  <fix>3d</fix>
</trkpt>
<trkpt lat="-27.274446" lon="151.2900662">
  <ele>349.6</ele>
  <time>2026-09-01T19:52:21Z</time>
  <course>167.71</course>
  <speed>0.34</speed>
  <fix>3d</fix>
</trkpt>
<trkpt lat="-27.2744465" lon="151.2900661">
  <ele>350.39</ele>
  <time>2026-09-01T19:52:21Z</time>
  <course>172.44</course>
  <speed>0.191049731745428</speed>
  <fix>3d</fix>
</trkpt>
<trkpt lat="-27.2744465" lon="151.2900663">
  <ele>350.11</ele>
  <time>2026-09-01T19:52:21Z</time>
  <course>166.37</course>
  <speed>0.26</speed>
  <fix>3d</fix>
</trkpt>
<trkpt lat="-27.2744467" lon="151.2900661">
  <ele>350.63</ele>
  <time>2026-09-01T19:52:21Z</time>
  <course>172.43</course>
  <speed>0.15132745950421556</speed>
  <fix>3d</fix>
</trkpt>
<trkpt lat="-27.2744465" lon="151.2900663">
  <ele>350.11</ele>
  <time>2026-09-01T19:52:21Z</time>
  <course>166.37</course>
  <speed>0.26</speed>
  <fix>3d</fix>
</trkpt>
<trkpt lat="-27.2744468" lon="151.2900662">
  <ele>350.87</ele>
  <time>2026-09-01T19:52:21Z</time>
  <course>172.41</course>
  <speed>0.11045361017187261</speed>
  <fix>3d</fix>
</trkpt>
<trkpt lat="-27.2744469" lon="151.2900664">
  <ele>350.6</ele>
  <time>2026-09-01T19:52:21Z</time>
  <course>164.23</course>
  <speed>0.19</speed>
  <fix>3d</fix>
</trkpt>
<trkpt lat="-27.2744469" lon="151.2900662">
  <ele>351.11</ele>
  <time>2026-09-01T19:52:21Z</time>
  <course>172.4</course>
  <speed>0.07071067811865475</speed>
  <fix>3d</fix>
</trkpt>
<trkpt lat="-27.2744469" lon="151.2900664">
  <ele>350.6</ele>
  <time>2026-09-01T19:52:21Z</time>
  <course>164.23</course>
  <speed>0.19</speed>
  <fix>3d</fix>
</trkpt>
<trkpt lat="-27.274447" lon="151.2900663">
  <ele>351.35</ele>
  <time>2026-09-01T19:52:21Z</time>
  <course>172.39</course>
  <speed>0.03</speed>
  <fix>3d</fix>
</trkpt>
<trkpt lat="-27.2744472" lon="151.2900665">
  <ele>351.09</ele>
  <time>2026-09-01T19:52:21Z</time>
  <course>159.75</course>
  <speed>0.11</speed>
  <fix>3d</fix>
</trkpt>
<trkpt lat="-27.274447" lon="151.2900663">
  <ele>351.59</ele>
  <time>2026-09-01T19:52:21Z</time>
  <course>172.38</course>
  <speed>0.0</speed>
  <fix>3d</fix>
</trkpt>
<trkpt lat="-27.2744472" lon="151.2900665">
  <ele>351.09</ele>
  <time>2026-09-01T19:52:21Z</time>
  <course>159.75</course>
  <speed>0.11</speed>
  <fix>3d</fix>
</trkpt>
<trkpt lat="-27.274447" lon="151.2900663">
  <ele>351.82</ele>
  <time>2026-09-01T19:52:21Z</time>
  <course>172.37</course>
  <speed>0.03</speed>
  <fix>3d</fix>
</trkpt>
<trkpt lat="-27.2744473" lon="151.2900666">
  <ele>351.57</ele>
  <time>2026-09-01T19:52:21Z</time>
  <course>140.18</course>
  <speed>0.03</speed>
  <fix>3d</fix>
</trkpt>
<trkpt lat="-27.274447" lon="151.2900663">
  <ele>352.06</ele>
  <time>2026-09-01T19:52:21Z</time>
  <course>172.37</course>
  <speed>0.06082762530298219</speed>
  <fix>3d</fix>
</trkpt>
<trkpt lat="-27.2744473" lon="151.2900666">
  <ele>351.57</ele>
  <time>2026-09-01T19:52:21Z</time>
  <course>140.18</course>
  <speed>0.03</speed>
  <fix>3d</fix>
</trkpt>
<trkpt lat="-27.274447" lon="151.2900664">
  <ele>352.3</ele>
  <time>2026-09-01T19:52:21Z</time>
  <course>172.36</course>
  <speed>0.09055385138137417</speed>
  <fix>3d</fix>
</trkpt>
<trkpt lat="-27.2744474" lon="151.2900666">
  <ele>352.04</ele>
  <time>2026-09-01T19:52:21Z</time>
  <course>15.51</course>
  <speed>0.03</speed>
  <fix>3d</fix>
</trkpt>
<trkpt lat="-27.274447" lon="151.2900664">
  <ele>352.54</ele>
  <time>2026-09-01T19:52:21Z</time>
  <course>172.36</course>
  <speed>0.12165525060596438</speed>
  <fix>3d</fix>
</trkpt>
<trkpt lat="-27.2744474" lon="151.2900666">
  <ele>352.04</ele>
  <time>2026-09-01T19:52:21Z</time>
  <course>15.51</course>
  <speed>0.03</speed>
  <fix>3d</fix>
</trkpt>
<trkpt lat="-27.2744469" lon="151.2900664">
  <ele>352.78</ele>
  <time>2026-09-01T19:52:21Z</time>
  <course>172.36</course>
  <speed>0.1414213562373095</speed>
  <fix>3d</fix>
</trkpt>
<trkpt lat="-27.2744473" lon="151.2900666">
  <ele>352.52</ele>
  <time>2026-09-01T19:52:21Z</time>
  <course>358.29</course>
  <speed>0.09</speed>
  <fix>3d</fix>
</trkpt>
<trkpt lat="-27.2744468" lon="151.2900664">
  <ele>353.03</ele>
  <time>2026-09-01T19:52:21Z</time>
  <course>172.36</course>
  <speed>0.16278820596099705</speed>
  <fix>3d</fix>
</trkpt>
<trkpt lat="-27.2744473" lon="151.2900666">
  <ele>352.52</ele>
  <time>2026-09-01T19:52:21Z</time>
  <course>358.29</course>
  <speed>0.09</speed>
  <fix>3d</fix>
</trkpt>
<trkpt lat="-27.2744467" lon="151.2900664">
  <ele>353.28</ele>
  <time>2026-09-01T19:52:21Z</time>
  <course>172.38</course>
  <speed>0.1824828759089466</speed>
  <fix>3d</fix>
</trkpt>
<trkpt lat="-27.274447" lon="151.2900666">
  <ele>353.01</ele>
  <time>2026-09-01T19:52:21Z</time>
  <course>354.29</course>
  <speed>0.14</speed>
  <fix>3d</fix>
</trkpt>
<trkpt lat="-27.2744465" lon="151.2900664">
  <ele>353.53</ele>
  <time>2026-09-01T19:52:21Z</time>
  <course>172.42</course>
  <speed>0.19235384061671343</speed>
  <fix>3d</fix>
</trkpt>
<trkpt lat="-27.274447" lon="151.2900666">
  <ele>353.01</ele>
  <time>2026-09-01T19:52:21Z</time>
  <course>354.29</course>
  <speed>0.14</speed>
  <fix>3d</fix>
</trkpt>
<trkpt lat="-27.2744464" lon="151.2900664">
  <ele>353.78</ele>
  <time>2026-09-01T19:52:21Z</time>
  <course>172.49</course>
  <speed>0.21213203435596426</speed>
  <fix>3d</fix>
</trkpt>
<trkpt lat="-27.2744468" lon="151.2900666">
  <ele>353.5</ele>
  <time>2026-09-01T19:52:21Z</time>
  <course>353.19</course>
  <speed>0.17</speed>
  <fix>3d</fix>
</trkpt>
<trkpt lat="-27.2744462" lon="151.2900664">
  <ele>354.03</ele>
  <time>2026-09-01T19:52:21Z</time>
  <course>172.56</course>
  <speed>0.22</speed>
  <fix>3d</fix>
</trkpt>
<trkpt lat="-27.2744468" lon="151.2900666">
  <ele>353.5</ele>
  <time>2026-09-01T19:52:21Z</time>
  <course>353.19</course>
  <speed>0.17</speed>
  <fix>3d</fix>
</trkpt>
<trkpt lat="-27.274446" lon="151.2900664">
  <ele>354.28</ele>
  <time>2026-09-01T19:52:21Z</time>
  <course>172.59</course>
  <speed>0.23</speed>
  <fix>3d</fix>
</trkpt>
<trkpt lat="-27.2744464" lon="151.2900666">
  <ele>354.0</ele>
  <time>2026-09-01T19:52:21Z</time>
  <course>352.24</course>
  <speed>0.2</speed>
  <fix>3d</fix>
</trkpt>
<trkpt lat="-27.2744458" lon="151.2900664">
  <ele>354.54</ele>
  <time>2026-09-01T19:52:21Z</time>
  <course>172.6</course>
  <speed>0.24331050121192876</speed>
  <fix>3d</fix>
</trkpt>
<trkpt lat="-27.2744464" lon="151.2900666">
  <ele>354.0</ele>
  <time>2026-09-01T19:52:21Z</time>
  <course>352.24</course>
  <speed>0.2</speed>
  <fix>3d</fix>
</trkpt>
<trkpt lat="-27.2744456" lon="151.2900664">
  <ele>354.79</ele>
  <time>2026-09-01T19:52:21Z</time>
  <course>172.66</course>
  <speed>0.24331050121192876</speed>
  <fix>3d</fix>
</trkpt>
<trkpt lat="-27.2744461" lon="151.2900666">
  <ele>354.5</ele>
  <time>2026-09-01T19:52:21Z</time>
  <course>351.4</course>
  <speed>0.22</speed>
  <fix>3d</fix>
</trkpt>
<trkpt lat="-27.2744454" lon="151.2900664">
  <ele>355.04</ele>
  <time>2026-09-01T19:52:21Z</time>
  <course>172.77</course>
  <speed>0.25179356624028343</speed>
  <fix>3d</fix>
</trkpt>
<trkpt lat="-27.2744461" lon="151.2900666">
  <ele>354.5</ele>
  <time>2026-09-01T19:52:21Z</time>
  <course>351.4</course>
  <speed>0.22</speed>
  <fix>3d</fix>
</trkpt>
<trkpt lat="-27.2744452" lon="151.2900664">
  <ele>355.3</ele>
  <time>2026-09-01T19:52:21Z</time>
  <course>172.89</course>
  <speed>0.25179356624028343</speed>
  <fix>3d</fix>
</trkpt>
<trkpt lat="-27.2744457" lon="151.2900665">
  <ele>355.0</ele>
  <time>2026-09-01T19:52:21Z</time>
  <course>351.59</course>
  <speed>0.23</speed>
  <fix>3d</fix>
</trkpt>
<trkpt lat="-27.274445" lon="151.2900663">
  <ele>355.55</ele>
  <time>2026-09-01T19:52:21Z</time>
  <course>172.97</course>
  <speed>0.25317977802344327</speed>
  <fix>3d</fix>
</trkpt>
<trkpt lat="-27.2744457" lon="151.2900665">
  <ele>355.0</ele>
  <time>2026-09-01T19:52:21Z</time>
  <course>351.59</course>
  <speed>0.23</speed>
  <fix>3d</fix>
</trkpt>
<trkpt lat="-27.2744448" lon="151.2900663">
  <ele>355.8</ele>
  <time>2026-09-01T19:52:21Z</time>
  <course>173.02</course>
  <speed>0.26305892875931813</speed>
  <fix>3d</fix>
</trkpt>
<trkpt lat="-27.2744452" lon="151.2900664">
  <ele>355.51</ele>
  <time>2026-09-01T19:52:21Z</time>
  <course>351.82</course>
  <speed>0.24</speed>
  <fix>3d</fix>
</trkpt>
<trkpt lat="-27.2744446" lon="151.2900663">
  <ele>356.05</ele>
  <time>2026-09-01T19:52:21Z</time>
  <course>173.04</course>
  <speed>0.26305892875931813</speed>
  <fix>3d</fix>
</trkpt>
<trkpt lat="-27.2744452" lon="151.2900664">
  <ele>355.51</ele>
  <time>2026-09-01T19:52:21Z</time>
  <course>351.82</course>
  <speed>0.24</speed>
  <fix>3d</fix>
</trkpt>
<trkpt lat="-27.2744444" lon="151.2900662">
  <ele>356.31</ele>
  <time>2026-09-01T19:52:21Z</time>
  <course>173.05</course>
  <speed>0.26305892875931813</speed>
  <fix>3d</fix>
</trkpt>
<trkpt lat="-27.2744448" lon="151.2900663">
  <ele>356.01</ele>
  <time>2026-09-01T19:52:21Z</time>
  <course>351.77</course>
  <speed>0.24</speed>
  <fix>3d</fix>
</trkpt>
<trkpt lat="-27.2744442" lon="151.2900662">
  <ele>356.56</ele>
  <time>2026-09-01T19:52:21Z</time>
  <course>173.03</course>
  <speed>0.25317977802344327</speed>
  <fix>3d</fix>
</trkpt>
<trkpt lat="-27.2744448" lon="151.2900663">
  <ele>356.01</ele>
  <time>2026-09-01T19:52:21Z</time>
  <course>351.77</course>
  <speed>0.24</speed>
  <fix>3d</fix>
</trkpt>
<trkpt lat="-27.274444" lon="151.2900662">
  <ele>356.81</ele>
  <time>2026-09-01T19:52:21Z</time>
  <course>173.0</course>
  <speed>0.25317977802344327</speed>
  <fix>3d</fix>
</trkpt>
<trkpt lat="-27.2744444" lon="151.2900663">
  <ele>356.51</ele>
  <time>2026-09-01T19:52:21Z</time>
  <course>351.63</course>
  <speed>0.24</speed>
  <fix>3d</fix>
</trkpt>
<trkpt lat="-27.2744438" lon="151.2900661">
  <ele>357.06</ele>
  <time>2026-09-01T19:52:21Z</time>
  <course>172.97</course>
  <speed>0.25317977802344327</speed>
  <fix>3d</fix>
</trkpt>
<trkpt lat="-27.2744444" lon="151.2900663">
  <ele>356.51</ele>
  <time>2026-09-01T19:52:21Z</time>
  <course>351.63</course>
  <speed>0.24</speed>
  <fix>3d</fix>
</trkpt>
<trkpt lat="-27.2744436" lon="151.2900661">
  <ele>357.31</ele>
  <time>2026-09-01T19:52:21Z</time>
  <course>172.95</course>
  <speed>0.25317977802344327</speed>
  <fix>3d</fix>
</trkpt>
<trkpt lat="-27.2744439" lon="151.2900662">
  <ele>357.01</ele>
  <time>2026-09-01T19:52:21Z</time>
  <course>351.51</course>
  <speed>0.24</speed>
  <fix>3d</fix>
</trkpt>
<trkpt lat="-27.2744434" lon="151.2900661">
  <ele>357.57</ele>
  <time>2026-09-01T19:52:21Z</time>
  <course>172.93</course>
  <speed>0.25317977802344327</speed>
  <fix>3d</fix>
</trkpt>
<trkpt lat="-27.2744439" lon="151.2900662">
  <ele>357.01</ele>
  <time>2026-09-01T19:52:21Z</time>
  <course>351.51</course>
  <speed>0.24</speed>
  <fix>3d</fix>
</trkpt>
<trkpt lat="-27.2744432" lon="151.2900661">
  <ele>357.82</ele>
  <time>2026-09-01T19:52:21Z</time>
  <course>172.92</course>
  <speed>0.25317977802344327</speed>
  <fix>3d</fix>
</trkpt>
<trkpt lat="-27.2744434" lon="151.2900661">
  <ele>357.52</ele>
  <time>2026-09-01T19:52:21Z</time>
  <course>351.26</course>
  <speed>0.24</speed>
  <fix>3d</fix>
</trkpt>
<trkpt lat="-27.2744429" lon="151.290066">
  <ele>358.07</ele>
  <time>2026-09-01T19:52:21Z</time>
  <course>172.92</course>
  <speed>0.24331050121192876</speed>
  <fix>3d</fix>
</trkpt>
<trkpt lat="-27.2744434" lon="151.2900661">
  <ele>357.52</ele>
  <time>2026-09-01T19:52:21Z</time>
  <course>351.26</course>
  <speed>0.24</speed>
  <fix>3d</fix>
</trkpt>
<trkpt lat="-27.2744427" lon="151.290066">
  <ele>358.32</ele>
  <time>2026-09-01T19:52:21Z</time>
  <course>172.93</course>
  <speed>0.24515301344262524</speed>
  <fix>3d</fix>
</trkpt>
<trkpt lat="-27.2744431" lon="151.2900661">
  <ele>358.02</ele>
  <time>2026-09-01T19:52:21Z</time>
  <course>350.89</course>
  <speed>0.23</speed>
  <fix>3d</fix>
</trkpt>
<trkpt lat="-27.2744425" lon="151.2900659">
  <ele>358.57</ele>
  <time>2026-09-01T19:52:21Z</time>
  <course>172.97</course>
  <speed>0.24515301344262524</speed>
  <fix>3d</fix>
</trkpt>
<trkpt lat="-27.2744431" lon="151.2900661">
  <ele>358.02</ele>
  <time>2026-09-01T19:52:21Z</time>
  <course>350.89</course>
  <speed>0.23</speed>
  <fix>3d</fix>
</trkpt>
<trkpt lat="-27.2744423" lon="151.2900659">
  <ele>358.82</ele>
  <time>2026-09-01T19:52:21Z</time>
  <course>173.02</course>
  <speed>0.23345235059857505</speed>
  <fix>3d</fix>
</trkpt>
<trkpt lat="-27.2744427" lon="151.290066">
  <ele>358.51</ele>
  <time>2026-09-01T19:52:21Z</time>
  <course>351.22</course>
  <speed>0.23</speed>
  <fix>3d</fix>
</trkpt>
<trkpt lat="-27.2744422" lon="151.2900659">
  <ele>359.07</ele>
  <time>2026-09-01T19:52:22Z</time>
  <course>173.03</course>
  <speed>0.2353720459187964</speed>
  <fix>3d</fix>
</trkpt>
<trkpt lat="-27.2744427" lon="151.290066">
  <ele>358.51</ele>
  <time>2026-09-01T19:52:22Z</time>
  <course>351.22</course>
  <speed>0.23</speed>
  <fix>3d</fix>
</trkpt>
<trkpt lat="-27.274442" lon="151.2900658">
  <ele>359.32</ele>
  <time>2026-09-01T19:52:22Z</time>
  <course>173.02</course>
  <speed>0.22561028345356957</speed>
  <fix>3d</fix>
</trkpt>
<trkpt lat="-27.2744422" lon="151.2900659">
  <ele>359.01</ele>
  <time>2026-09-01T19:52:22Z</time>
  <course>351.61</course>
  <speed>0.22</speed>
  <fix>3d</fix>
</trkpt>
<trkpt lat="-27.2744418" lon="151.2900658">
  <ele>359.57</ele>
  <time>2026-09-01T19:52:22Z</time>
  <course>172.98</course>
  <speed>0.215870331449229</speed>
  <fix>3d</fix>
</trkpt>
<trkpt lat="-27.2744422" lon="151.2900659">
  <ele>359.01</ele>
  <time>2026-09-01T19:52:22Z</time>
  <course>351.61</course>
  <speed>0.22</speed>
  <fix>3d</fix>
</trkpt>
<trkpt lat="-27.2744416" lon="151.2900657">
  <ele>359.82</ele>
  <time>2026-09-01T19:52:22Z</time>
  <course>172.95</course>
  <speed>0.21840329667841554</speed>
  <fix>3d</fix>
</trkpt>
<trkpt lat="-27.2744419" lon="151.2900659">
  <ele>359.51</ele>
  <time>2026-09-01T19:52:22Z</time>
  <course>351.75</course>
  <speed>0.21</speed>
  <fix>3d</fix>
</trkpt>
<trkpt lat="-27.2744414" lon="151.2900657">
  <ele>360.07</ele>
  <time>2026-09-01T19:52:22Z</time>
  <course>172.91</course>
  <speed>0.21377558326431947</speed>
  <fix>3d</fix>
</trkpt>
<trkpt lat="-27.2744419" lon="151.2900659">
  <ele>359.51</ele>
  <time>2026-09-01T19:52:22Z</time>
  <course>351.75</course>
  <speed>0.21</speed>
  <fix>3d</fix>
</trkpt>
<trkpt lat="-27.2744413" lon="151.2900657">
  <ele>360.32</ele>
  <time>2026-09-01T19:52:22Z</time>
  <course>172.87</course>
  <speed>0.2039607805437114</speed>
  <fix>3d</fix>
</trkpt>
<trkpt lat="-27.2744415" lon="151.2900658">
  <ele>360.01</ele>
  <time>2026-09-01T19:52:22Z</time>
  <course>352.16</course>
  <speed>0.2</speed>
  <fix>3d</fix>
</trkpt>
<trkpt lat="-27.2744411" lon="151.2900657">
  <ele>360.57</ele>
  <time>2026-09-01T19:52:22Z</time>
  <course>172.81</course>
  <speed>0.2</speed>
  <fix>3d</fix>
</trkpt>
<trkpt lat="-27.2744415" lon="151.2900658">
  <ele>360.01</ele>
  <time>2026-09-01T19:52:22Z</time>
  <course>352.16</course>
  <speed>0.2</speed>
  <fix>3d</fix>
</trkpt>
<trkpt lat="-27.2744409" lon="151.2900657">
  <ele>360.82</ele>
  <time>2026-09-01T19:52:22Z</time>
  <course>172.72</course>
  <speed>0.19</speed>
  <fix>3d</fix>
</trkpt>
<trkpt lat="-27.2744411" lon="151.2900657">
  <ele>360.51</ele>
  <time>2026-09-01T19:52:22Z</time>
  <course>351.18</course>
  <speed>0.18</speed>
  <fix>3d</fix>
</trkpt>
<trkpt lat="-27.2744408" lon="151.2900657">
  <ele>361.07</ele>
  <time>2026-09-01T19:52:22Z</time>
  <course>172.66</course>
  <speed>0.19</speed>
  <fix>3d</fix>
</trkpt>
<trkpt lat="-27.2744411" lon="151.2900657">
  <ele>360.51</ele>
  <time>2026-09-01T19:52:22Z</time>
  <course>351.18</course>
  <speed>0.18</speed>
  <fix>3d</fix>
</trkpt>
<trkpt lat="-27.2744406" lon="151.2900657">
  <ele>361.32</ele>
  <time>2026-09-01T19:52:22Z</time>
  <course>172.68</course>
  <speed>0.18</speed>
  <fix>3d</fix>
</trkpt>
<trkpt lat="-27.2744408" lon="151.2900656">
  <ele>361.0</ele>
  <time>2026-09-01T19:52:22Z</time>
  <course>348.89</course>
  <speed>0.17</speed>
  <fix>3d</fix>
</trkpt>
<trkpt lat="-27.2744404" lon="151.2900657">
  <ele>361.57</ele>
  <time>2026-09-01T19:52:22Z</time>
  <course>172.79</course>
  <speed>0.18</speed>
  <fix>3d</fix>
</trkpt>
<trkpt lat="-27.2744408" lon="151.2900656">
  <ele>361.0</ele>
  <time>2026-09-01T19:52:22Z</time>
  <course>348.89</course>
  <speed>0.17</speed>
  <fix>3d</fix>
</trkpt>
<trkpt lat="-27.2744403" lon="151.2900657">
  <ele>361.82</ele>
  <time>2026-09-01T19:52:22Z</time>
  <course>172.94</course>
  <speed>0.17</speed>
  <fix>3d</fix>
</trkpt>
<trkpt lat="-27.2744405" lon="151.2900656">
  <ele>361.5</ele>
  <time>2026-09-01T19:52:22Z</time>
  <course>347.38</course>
  <speed>0.16</speed>
  <fix>3d</fix>
</trkpt>
<trkpt lat="-27.2744402" lon="151.2900657">
  <ele>362.07</ele>
  <time>2026-09-01T19:52:22Z</time>
  <course>173.11</course>
  <speed>0.16</speed>
  <fix>3d</fix>
</trkpt>
<trkpt lat="-27.2744405" lon="151.2900656">
  <ele>361.5</ele>
  <time>2026-09-01T19:52:22Z</time>
  <course>347.38</course>
  <speed>0.16</speed>
  <fix>3d</fix>
</trkpt>
<trkpt lat="-27.27444" lon="151.2900656">
  <ele>362.32</ele>
  <time>2026-09-01T19:52:22Z</time>
  <course>173.25</course>
  <speed>0.15</speed>
  <fix>3d</fix>
</trkpt>
<trkpt lat="-27.2744402" lon="151.2900655">
  <ele>362.0</ele>
  <time>2026-09-01T19:52:22Z</time>
  <course>346.77</course>
  <speed>0.14</speed>
  <fix>3d</fix>
</trkpt>
<trkpt lat="-27.2744399" lon="151.2900656">
  <ele>362.57</ele>
  <time>2026-09-01T19:52:22Z</time>
  <course>173.37</course>
  <speed>0.15</speed>
  <fix>3d</fix>
</trkpt>
<trkpt lat="-27.2744402" lon="151.2900655">
  <ele>362.0</ele>
  <time>2026-09-01T19:52:22Z</time>
  <course>346.77</course>
  <speed>0.14</speed>
  <fix>3d</fix>
</trkpt>
<trkpt lat="-27.2744398" lon="151.2900656">
  <ele>362.82</ele>
  <time>2026-09-01T19:52:22Z</time>
  <course>173.43</course>
  <speed>0.14</speed>
  <fix>3d</fix>
</trkpt>
<trkpt lat="-27.27444" lon="151.2900655">
  <ele>362.5</ele>
  <time>2026-09-01T19:52:22Z</time>
  <course>345.78</course>
  <speed>0.13</speed>
  <fix>3d</fix>
</trkpt>
<trkpt lat="-27.2744397" lon="151.2900656">
  <ele>363.07</ele>
  <time>2026-09-01T19:52:22Z</time>
  <course>173.45</course>
  <speed>0.13</speed>
  <fix>3d</fix>
</trkpt>
<trkpt lat="-27.27444" lon="151.2900655">
  <ele>362.5</ele>
  <time>2026-09-01T19:52:22Z</time>
  <course>345.78</course>
  <speed>0.13</speed>
  <fix>3d</fix>
</trkpt>
<trkpt lat="-27.2744396" lon="151.2900656">
  <ele>363.32</ele>
  <time>2026-09-01T19:52:22Z</time>
  <course>173.41</course>
  <speed>0.13</speed>
  <fix>3d</fix>
</trkpt>
<trkpt lat="-27.2744397" lon="151.2900654">
  <ele>362.99</ele>
  <time>2026-09-01T19:52:22Z</time>
  <course>343.85</course>
  <speed>0.12</speed>
  <fix>3d</fix>
</trkpt>
<trkpt lat="-27.2744395" lon="151.2900655">
  <ele>363.57</ele>
  <time>2026-09-01T19:52:22Z</time>
  <course>173.37</course>
  <speed>0.12041594578792296</speed>
  <fix>3d</fix>
</trkpt>
<trkpt lat="-27.2744397" lon="151.2900654">
  <ele>362.99</ele>
  <time>2026-09-01T19:52:22Z</time>
  <course>343.85</course>
  <speed>0.12</speed>
  <fix>3d</fix>
</trkpt>
<trkpt lat="-27.2744394" lon="151.2900655">
  <ele>363.81</ele>
  <time>2026-09-01T19:52:22Z</time>
  <course>173.31</course>
  <speed>0.11045361017187261</speed>
  <fix>3d</fix>
</trkpt>
<trkpt lat="-27.2744396" lon="151.2900653">
  <ele>363.49</ele>
  <time>2026-09-01T19:52:22Z</time>
  <course>341.42</course>
  <speed>0.11</speed>
  <fix>3d</fix>
</trkpt>
<trkpt lat="-27.2744393" lon="151.2900655">
  <ele>364.06</ele>
  <time>2026-09-01T19:52:22Z</time>
  <course>173.27</course>
  <speed>0.11045361017187261</speed>
  <fix>3d</fix>
</trkpt>
<trkpt lat="-27.2744396" lon="151.2900653">
  <ele>363.49</ele>
  <time>2026-09-01T19:52:22Z</time>
  <course>341.42</course>
  <speed>0.11</speed>
  <fix>3d</fix>
</trkpt>
<trkpt lat="-27.2744392" lon="151.2900654">
  <ele>364.31</ele>
  <time>2026-09-01T19:52:22Z</time>
  <course>173.23</course>
  <speed>0.1004987562112089</speed>
  <fix>3d</fix>
</trkpt>
<trkpt lat="-27.2744394" lon="151.2900652">
  <ele>363.99</ele>
  <time>2026-09-01T19:52:22Z</time>
  <course>339.13</course>
  <speed>0.09</speed>
  <fix>3d</fix>
</trkpt>
<trkpt lat="-27.2744391" lon="151.2900654">
  <ele>364.56</ele>
  <time>2026-09-01T19:52:22Z</time>
  <course>173.22</course>
  <speed>0.1019803902718557</speed>
  <fix>3d</fix>
</trkpt>
<trkpt lat="-27.2744394" lon="151.2900652">
  <ele>363.99</ele>
  <time>2026-09-01T19:52:22Z</time>
  <course>339.13</course>
  <speed>0.09</speed>
  <fix>3d</fix>
</trkpt>
<trkpt lat="-27.274439" lon="151.2900653">
  <ele>364.81</ele>
  <time>2026-09-01T19:52:22Z</time>
  <course>173.2</course>
  <speed>0.09219544457292887</speed>
  <fix>3d</fix>
</trkpt>
<trkpt lat="-27.2744392" lon="151.2900652">
  <ele>364.49</ele>
  <time>2026-09-01T19:52:22Z</time>
  <course>337.18</course>
  <speed>0.08</speed>
  <fix>3d</fix>
</trkpt>
<trkpt lat="-27.274439" lon="151.2900653">
  <ele>365.06</ele>
  <time>2026-09-01T19:52:22Z</time>
  <course>173.18</course>
  <speed>0.0824621125123532</speed>
  <fix>3d</fix>
</trkpt>
<trkpt lat="-27.2744392" lon="151.2900652">
  <ele>364.49</ele>
  <time>2026-09-01T19:52:22Z</time>
  <course>337.18</course>
  <speed>0.08</speed>
  <fix>3d</fix>
</trkpt>
<trkpt lat="-27.2744389" lon="151.2900653">
  <ele>365.31</ele>
  <time>2026-09-01T19:52:22Z</time>
  <course>173.15</course>
  <speed>0.0824621125123532</speed>
  <fix>3d</fix>
</trkpt>
<trkpt lat="-27.2744391" lon="151.2900651">
  <ele>364.99</ele>
  <time>2026-09-01T19:52:22Z</time>
  <course>334.89</course>
  <speed>0.07</speed>
  <fix>3d</fix>
</trkpt>
<trkpt lat="-27.2744389" lon="151.2900652">
  <ele>365.56</ele>
  <time>2026-09-01T19:52:22Z</time>
  <course>173.12</course>
  <speed>0.07615773105863909</speed>
  <fix>3d</fix>
</trkpt>
<trkpt lat="-27.2744391" lon="151.2900651">
  <ele>364.99</ele>
  <time>2026-09-01T19:52:22Z</time>
  <course>334.89</course>
  <speed>0.07</speed>
  <fix>3d</fix>
</trkpt>
<trkpt lat="-27.2744388" lon="151.2900652">
  <ele>365.8</ele>
  <time>2026-09-01T19:52:22Z</time>
  <course>173.09</course>
  <speed>0.07615773105863909</speed>
  <fix>3d</fix>
</trkpt>
<trkpt lat="-27.274439" lon="151.2900651">
  <ele>365.49</ele>
  <time>2026-09-01T19:52:22Z</time>
  <course>331.72</course>
  <speed>0.06</speed>
  <fix>3d</fix>
</trkpt>
<trkpt lat="-27.2744388" lon="151.2900651">
  <ele>366.06</ele>
  <time>2026-09-01T19:52:22Z</time>
  <course>173.05</course>
  <speed>0.0670820393249937</speed>
  <fix>3d</fix>
</trkpt>
<trkpt lat="-27.274439" lon="151.2900651">
  <ele>365.49</ele>
  <time>2026-09-01T19:52:22Z</time>
  <course>331.72</course>
  <speed>0.06</speed>
  <fix>3d</fix>
</trkpt>
<trkpt lat="-27.2744387" lon="151.2900651">
  <ele>366.31</ele>
  <time>2026-09-01T19:52:22Z</time>
  <course>173.02</course>
  <speed>0.0670820393249937</speed>
  <fix>3d</fix>
</trkpt>
<trkpt lat="-27.2744389" lon="151.290065">
  <ele>365.99</ele>
  <time>2026-09-01T19:52:22Z</time>
  <course>328.32</course>
  <speed>0.05</speed>
  <fix>3d</fix>
</trkpt>
<trkpt lat="-27.2744387" lon="151.290065">
  <ele>366.56</ele>
  <time>2026-09-01T19:52:22Z</time>
  <course>172.99</course>
  <speed>0.05830951894845301</speed>
  <fix>3d</fix>
</trkpt>
<trkpt lat="-27.2744389" lon="151.290065">
  <ele>365.99</ele>
  <time>2026-09-01T19:52:22Z</time>
  <course>328.32</course>
  <speed>0.05</speed>
  <fix>3d</fix>
</trkpt>
<trkpt lat="-27.2744387" lon="151.290065">
  <ele>366.81</ele>
  <time>2026-09-01T19:52:22Z</time>
  <course>172.96</course>
  <speed>0.05830951894845301</speed>
  <fix>3d</fix>
</trkpt>
<trkpt lat="-27.2744388" lon="151.290065">
  <ele>366.49</ele>
  <time>2026-09-01T19:52:22Z</time>
  <course>324.07</course>
  <speed>0.04</speed>
  <fix>3d</fix>
</trkpt>
<trkpt lat="-27.2744387" lon="151.290065">
  <ele>367.06</ele>
  <time>2026-09-01T19:52:22Z</time>
  <course>172.93</course>
  <speed>0.05</speed>
  <fix>3d</fix>
</trkpt>
<trkpt lat="-27.2744388" lon="151.290065">
  <ele>366.49</ele>
  <time>2026-09-01T19:52:22Z</time>
  <course>324.07</course>
  <speed>0.04</speed>
  <fix>3d</fix>
</trkpt>
<trkpt lat="-27.2744386" lon="151.2900649">
  <ele>367.31</ele>
  <time>2026-09-01T19:52:22Z</time>
  <course>172.89</course>
  <speed>0.05</speed>
  <fix>3d</fix>
</trkpt>
<trkpt lat="-27.2744388" lon="151.2900649">
  <ele>366.99</ele>
  <time>2026-09-01T19:52:22Z</time>
  <course>316.7</course>
  <speed>0.03</speed>
  <fix>3d</fix>
</trkpt>
<trkpt lat="-27.2744386" lon="151.2900649">
  <ele>367.56</ele>
  <time>2026-09-01T19:52:22Z</time>
  <course>172.85</course>
  <speed>0.05</speed>
  <fix>3d</fix>
</trkpt>
<trkpt lat="-27.2744388" lon="151.2900649">
  <ele>366.99</ele>
  <time>2026-09-01T19:52:22Z</time>
  <course>316.7</course>
  <speed>0.03</speed>
  <fix>3d</fix>
</trkpt>
<trkpt lat="-27.2744386" lon="151.2900648">
  <ele>367.81</ele>
  <time>2026-09-01T19:52:22Z</time>
  <course>172.82</course>
  <speed>0.05</speed>
  <fix>3d</fix>
</trkpt>
<trkpt lat="-27.2744388" lon="151.2900649">
  <ele>367.49</ele>
  <time>2026-09-01T19:52:22Z</time>
  <course>304.59</course>
  <speed>0.02</speed>
  <fix>3d</fix>
</trkpt>
<trkpt lat="-27.2744386" lon="151.2900648">
  <ele>368.06</ele>
  <time>2026-09-01T19:52:22Z</time>
  <course>172.78</course>
  <speed>0.044721359549995794</speed>
  <fix>3d</fix>
</trkpt>
<trkpt lat="-27.2744388" lon="151.2900649">
  <ele>367.49</ele>
  <time>2026-09-01T19:52:22Z</time>
  <course>304.59</course>
  <speed>0.02</speed>
  <fix>3d</fix>
</trkpt>
<trkpt lat="-27.2744386" lon="151.2900648">
  <ele>368.31</ele>
  <time>2026-09-01T19:52:22Z</time>
  <course>172.75</course>
  <speed>0.044721359549995794</speed>
  <fix>3d</fix>
</trkpt>
<trkpt lat="-27.2744388" lon="151.2900648">
  <ele>367.99</ele>
  <time>2026-09-01T19:52:22Z</time>
  <course>285.04</course>
  <speed>0.01</speed>
  <fix>3d</fix>
</trkpt>
<trkpt lat="-27.2744386" lon="151.2900647">
  <ele>368.57</ele>
  <time>2026-09-01T19:52:22Z</time>
  <course>172.72</course>
  <speed>0.0412310562561766</speed>
  <fix>3d</fix>
</trkpt>
<trkpt lat="-27.2744388" lon="151.2900648">
  <ele>367.99</ele>
  <time>2026-09-01T19:52:22Z</time>
  <course>285.04</course>
  <speed>0.01</speed>
  <fix>3d</fix>
</trkpt>
<trkpt lat="-27.2744386" lon="151.2900647">
  <ele>368.82</ele>
  <time>2026-09-01T19:52:22Z</time>
  <course>172.7</course>
  <speed>0.0412310562561766</speed>
  <fix>3d</fix>
</trkpt>
<trkpt lat="-27.2744388" lon="151.2900647">
  <ele>368.49</ele>
  <time>2026-09-01T19:52:22Z</time>
  <course>256.55</course>
  <speed>0.01</speed>
  <fix>3d</fix>
</trkpt>
<trkpt lat="-27.2744386" lon="151.2900647">
  <ele>369.07</ele>
  <time>2026-09-01T19:52:22Z</time>
  <course>172.68</course>
  <speed>0.0412310562561766</speed>
  <fix>3d</fix>
</trkpt>
<trkpt lat="-27.2744388" lon="151.2900647">
  <ele>368.49</ele>
  <time>2026-09-01T19:52:22Z</time>
  <course>256.55</course>
  <speed>0.01</speed>
  <fix>3d</fix>
</trkpt>
<trkpt lat="-27.2744386" lon="151.2900647">
  <ele>369.32</ele>
  <time>2026-09-01T19:52:22Z</time>
  <course>172.67</course>
  <speed>0.0412310562561766</speed>
  <fix>3d</fix>
</trkpt>
<trkpt lat="-27.2744388" lon="151.2900647">
  <ele>368.99</ele>
  <time>2026-09-01T19:52:22Z</time>
  <course>221.07</course>
  <speed>0.01</speed>
  <fix>3d</fix>
</trkpt>
<trkpt lat="-27.2744387" lon="151.2900646">
  <ele>369.57</ele>
  <time>2026-09-01T19:52:22Z</time>
  <course>172.65</course>
  <speed>0.04</speed>
  <fix>3d</fix>
</trkpt>
<trkpt lat="-27.2744388" lon="151.2900647">
  <ele>368.99</ele>
  <time>2026-09-01T19:52:22Z</time>
  <course>221.07</course>
  <speed>0.01</speed>
  <fix>3d</fix>
</trkpt>
<trkpt lat="-27.2744387" lon="151.2900646">
  <ele>369.82</ele>
  <time>2026-09-01T19:52:22Z</time>
  <course>172.62</course>
  <speed>0.04</speed>
  <fix>3d</fix>
</trkpt>
<trkpt lat="-27.2744388" lon="151.2900647">
  <ele>369.49</ele>
  <time>2026-09-01T19:52:22Z</time>
  <course>193.44</course>
  <speed>0.01</speed>
  <fix>3d</fix>
</trkpt>
<trkpt lat="-27.2744387" lon="151.2900646">
  <ele>370.07</ele>
  <time>2026-09-01T19:52:22Z</time>
  <course>172.58</course>
  <speed>0.04</speed>
  <fix>3d</fix>
</trkpt>
<trkpt lat="-27.2744388" lon="151.2900647">
  <ele>369.49</ele>
  <time>2026-09-01T19:52:22Z</time>
  <course>193.44</course>
  <speed>0.01</speed>
  <fix>3d</fix>
</trkpt>
<trkpt lat="-27.2744387" lon="151.2900646">
  <ele>370.32</ele>
  <time>2026-09-01T19:52:22Z</time>
  <course>172.55</course>
  <speed>0.04</speed>
  <fix>3d</fix>
</trkpt>
<trkpt lat="-27.2744388" lon="151.2900647">
  <ele>369.99</ele>
  <time>2026-09-01T19:52:22Z</time>
  <course>176.8</course>
  <speed>0.01</speed>
  <fix>3d</fix>
</trkpt>
<trkpt lat="-27.2744387" lon="151.2900645">
  <ele>370.57</ele>
  <time>2026-09-01T19:52:22Z</time>
  <course>172.52</course>
  <speed>0.03</speed>
  <fix>3d</fix>
</trkpt>
<trkpt lat="-27.2744388" lon="151.2900647">
  <ele>369.99</ele>
  <time>2026-09-01T19:52:22Z</time>
  <course>176.8</course>
  <speed>0.01</speed>
  <fix>3d</fix>
</trkpt>
<trkpt lat="-27.2744387" lon="151.2900645">
  <ele>370.82</ele>
  <time>2026-09-01T19:52:22Z</time>
  <course>172.51</course>
  <speed>0.03</speed>
  <fix>3d</fix>
</trkpt>
<trkpt lat="-27.2744388" lon="151.2900647">
  <ele>370.49</ele>
  <time>2026-09-01T19:52:22Z</time>
  <course>164.06</course>
  <speed>0.01</speed>
  <fix>3d</fix>
</trkpt>
<trkpt lat="-27.2744387" lon="151.2900645">
  <ele>371.07</ele>
  <time>2026-09-01T19:52:22Z</time>
  <course>172.49</course>
  <speed>0.03</speed>
  <fix>3d</fix>
</trkpt>
<trkpt lat="-27.2744388" lon="151.2900647">
  <ele>370.49</ele>
  <time>2026-09-01T19:52:22Z</time>
  <course>164.06</course>
  <speed>0.01</speed>
  <fix>3d</fix>
</trkpt>
<trkpt lat="-27.2744387" lon="151.2900645">
  <ele>371.32</ele>
  <time>2026-09-01T19:52:22Z</time>
  <course>172.47</course>
  <speed>0.03</speed>
  <fix>3d</fix>
</trkpt>
<trkpt lat="-27.2744388" lon="151.2900647">
  <ele>370.98</ele>
  <time>2026-09-01T19:52:22Z</time>
  <course>153.87</course>
  <speed>0.02</speed>
  <fix>3d</fix>
</trkpt>
<trkpt lat="-27.2744387" lon="151.2900645">
  <ele>371.57</ele>
  <time>2026-09-01T19:52:22Z</time>
  <course>172.43</course>
  <speed>0.03</speed>
  <fix>3d</fix>
</trkpt>
<trkpt lat="-27.2744388" lon="151.2900647">
  <ele>370.98</ele>
  <time>2026-09-01T19:52:22Z</time>
  <course>153.87</course>
  <speed>0.02</speed>
  <fix>3d</fix>
</trkpt>
<trkpt lat="-27.2744387" lon="151.2900645">
  <ele>371.82</ele>
  <time>2026-09-01T19:52:22Z</time>
  <course>172.39</course>
  <speed>0.03</speed>
  <fix>3d</fix>
</trkpt>
<trkpt lat="-27.2744388" lon="151.2900647">
  <ele>371.48</ele>
  <time>2026-09-01T19:52:22Z</time>
  <course>147.35</course>
  <speed>0.02</speed>
  <fix>3d</fix>
</trkpt>
<trkpt lat="-27.2744387" lon="151.2900645">
  <ele>372.07</ele>
  <time>2026-09-01T19:52:22Z</time>
  <course>172.35</course>
  <speed>0.03</speed>
  <fix>3d</fix>
</trkpt>
<trkpt lat="-27.2744388" lon="151.2900647">
  <ele>371.48</ele>
  <time>2026-09-01T19:52:22Z</time>
  <course>147.35</course>
  <speed>0.02</speed>
  <fix>3d</fix>
</trkpt>
<trkpt lat="-27.2744387" lon="151.2900645">
  <ele>372.32</ele>
  <time>2026-09-01T19:52:22Z</time>
  <course>172.31</course>
  <speed>0.03</speed>
  <fix>3d</fix>
</trkpt>
<trkpt lat="-27.2744389" lon="151.2900647">
  <ele>371.98</ele>
  <time>2026-09-01T19:52:22Z</time>
  <course>144.54</course>
  <speed>0.02</speed>
  <fix>3d</fix>
</trkpt>
<trkpt lat="-27.2744387" lon="151.2900645">
  <ele>372.57</ele>
  <time>2026-09-01T19:52:22Z</time>
  <course>172.29</course>
  <speed>0.03</speed>
  <fix>3d</fix>
</trkpt>
<trkpt lat="-27.2744389" lon="151.2900647">
  <ele>371.98</ele>
  <time>2026-09-01T19:52:22Z</time>
  <course>144.54</course>
  <speed>0.02</speed>
  <fix>3d</fix>
</trkpt>
<trkpt lat="-27.2744388" lon="151.2900645">
  <ele>372.82</ele>
  <time>2026-09-01T19:52:22Z</time>
  <course>172.27</course>
  <speed>0.03</speed>
  <fix>3d</fix>
</trkpt>
<trkpt lat="-27.2744389" lon="151.2900647">
  <ele>372.48</ele>
  <time>2026-09-01T19:52:22Z</time>
  <course>143.39</course>
  <speed>0.03</speed>
  <fix>3d</fix>
</trkpt>
<trkpt lat="-27.2744388" lon="151.2900645">
  <ele>373.07</ele>
  <time>2026-09-01T19:52:22Z</time>
  <course>172.26</course>
  <speed>0.03</speed>
  <fix>3d</fix>
</trkpt>
<trkpt lat="-27.2744389" lon="151.2900647">
  <ele>372.48</ele>
  <time>2026-09-01T19:52:22Z</time>
  <course>143.39</course>
  <speed>0.03</speed>
  <fix>3d</fix>
</trkpt>
<trkpt lat="-27.2744388" lon="151.2900645">
  <ele>373.32</ele>
  <time>2026-09-01T19:52:22Z</time>
  <course>172.26</course>
  <speed>0.03</speed>
  <fix>3d</fix>
</trkpt>
<trkpt lat="-27.2744389" lon="151.2900648">
  <ele>372.97</ele>
  <time>2026-09-01T19:52:22Z</time>
  <course>142.0</course>
  <speed>0.03</speed>
  <fix>3d</fix>
</trkpt>
<trkpt lat="-27.2744388" lon="151.2900645">
  <ele>373.57</ele>
  <time>2026-09-01T19:52:22Z</time>
  <course>172.25</course>
  <speed>0.03</speed>
  <fix>3d</fix>
</trkpt>
<trkpt lat="-27.2744389" lon="151.2900648">
  <ele>372.97</ele>
  <time>2026-09-01T19:52:22Z</time>
  <course>142.0</course>
  <speed>0.03</speed>
  <fix>3d</fix>
</trkpt>
<trkpt lat="-27.2744388" lon="151.2900645">
  <ele>373.82</ele>
  <time>2026-09-01T19:52:22Z</time>
  <course>172.25</course>
  <speed>0.03</speed>
  <fix>3d</fix>
</trkpt>
<trkpt lat="-27.274439" lon="151.2900649">
  <ele>373.47</ele>
  <time>2026-09-01T19:52:22Z</time>
  <course>139.8</course>
  <speed>0.03</speed>
  <fix>3d</fix>
</trkpt>
<trkpt lat="-27.2744389" lon="151.2900645">
  <ele>374.07</ele>
  <time>2026-09-01T19:52:22Z</time>
  <course>172.25</course>
  <speed>0.03</speed>
  <fix>3d</fix>
</trkpt>
<trkpt lat="-27.274439" lon="151.2900649">
  <ele>373.47</ele>
  <time>2026-09-01T19:52:22Z</time>
  <course>139.8</course>
  <speed>0.03</speed>
  <fix>3d</fix>
</trkpt>
<trkpt lat="-27.2744389" lon="151.2900645">
  <ele>374.32</ele>
  <time>2026-09-01T19:52:22Z</time>
  <course>172.25</course>
  <speed>0.03</speed>
  <fix>3d</fix>
</trkpt>
<trkpt lat="-27.274439" lon="151.2900649">
  <ele>373.97</ele>
  <time>2026-09-01T19:52:22Z</time>
  <course>136.91</course>
  <speed>0.03</speed>
  <fix>3d</fix>
</trkpt>
<trkpt lat="-27.2744389" lon="151.2900645">
  <ele>374.57</ele>
  <time>2026-09-01T19:52:22Z</time>
  <course>172.25</course>
  <speed>0.03</speed>
  <fix>3d</fix>
</trkpt>
<trkpt lat="-27.274439" lon="151.2900649">
  <ele>373.97</ele>
  <time>2026-09-01T19:52:22Z</time>
  <course>136.91</course>
  <speed>0.03</speed>
  <fix>3d</fix>
</trkpt>
<trkpt lat="-27.2744389" lon="151.2900646">
  <ele>374.81</ele>
  <time>2026-09-01T19:52:22Z</time>
  <course>172.23</course>
  <speed>0.03</speed>
  <fix>3d</fix>
</trkpt>
<trkpt lat="-27.2744391" lon="151.290065">
  <ele>374.46</ele>
  <time>2026-09-01T19:52:22Z</time>
  <course>134.34</course>
  <speed>0.04</speed>
  <fix>3d</fix>
</trkpt>
<trkpt lat="-27.2744389" lon="151.2900646">
  <ele>375.06</ele>
  <time>2026-09-01T19:52:22Z</time>
  <course>172.21</course>
  <speed>0.02</speed>
  <fix>3d</fix>
</trkpt>
<trkpt lat="-27.2744391" lon="151.290065">
  <ele>374.46</ele>
  <time>2026-09-01T19:52:22Z</time>
  <course>134.34</course>
  <speed>0.04</speed>
  <fix>3d</fix>
</trkpt>
<trkpt lat="-27.2744389" lon="151.2900646">
  <ele>375.31</ele>
  <time>2026-09-01T19:52:22Z</time>
  <course>172.19</course>
  <speed>0.03</speed>
  <fix>3d</fix>
</trkpt>
<trkpt lat="-27.2744391" lon="151.290065">
  <ele>374.96</ele>
  <time>2026-09-01T19:52:22Z</time>
  <course>132.45</course>
  <speed>0.04</speed>
  <fix>3d</fix>
</trkpt>
<trkpt lat="-27.274439" lon="151.2900646">
  <ele>375.56</ele>
  <time>2026-09-01T19:52:22Z</time>
  <course>172.17</course>
  <speed>0.02</speed>
  <fix>3d</fix>
</trkpt>
<trkpt lat="-27.2744391" lon="151.290065">
  <ele>374.96</ele>
  <time>2026-09-01T19:52:22Z</time>
  <course>132.45</course>
  <speed>0.04</speed>
  <fix>3d</fix>
</trkpt>
<trkpt lat="-27.274439" lon="151.2900646">
  <ele>375.81</ele>
  <time>2026-09-01T19:52:22Z</time>
  <course>172.17</course>
  <speed>0.02</speed>
  <fix>3d</fix>
</trkpt>
<trkpt lat="-27.2744392" lon="151.2900651">
  <ele>375.46</ele>
  <time>2026-09-01T19:52:22Z</time>
  <course>130.84</course>
  <speed>0.04</speed>
  <fix>3d</fix>
</trkpt>
<trkpt lat="-27.274439" lon="151.2900646">
  <ele>376.06</ele>
  <time>2026-09-01T19:52:22Z</time>
  <course>172.17</course>
  <speed>0.02</speed>
  <fix>3d</fix>
</trkpt>
<trkpt lat="-27.2744392" lon="151.2900651">
  <ele>375.46</ele>
  <time>2026-09-01T19:52:22Z</time>
  <course>130.84</course>
  <speed>0.04</speed>
  <fix>3d</fix>
</trkpt>
<trkpt lat="-27.274439" lon="151.2900646">
  <ele>376.3</ele>
  <time>2026-09-01T19:52:22Z</time>
  <course>172.19</course>
  <speed>0.02</speed>
  <fix>3d</fix>
</trkpt>
<trkpt lat="-27.2744392" lon="151.2900651">
  <ele>375.95</ele>
  <time>2026-09-01T19:52:22Z</time>
  <course>129.62</course>
  <speed>0.04</speed>
  <fix>3d</fix>
</trkpt>
<trkpt lat="-27.274439" lon="151.2900646">
  <ele>376.55</ele>
  <time>2026-09-01T19:52:22Z</time>
  <course>172.21</course>
  <speed>0.02</speed>
  <fix>3d</fix>
</trkpt>
<trkpt lat="-27.2744392" lon="151.2900651">
  <ele>375.95</ele>
  <time>2026-09-01T19:52:22Z</time>
  <course>129.62</course>
  <speed>0.04</speed>
  <fix>3d</fix>
</trkpt>
<trkpt lat="-27.2744391" lon="151.2900647">
  <ele>376.81</ele>
  <time>2026-09-01T19:52:22Z</time>
  <course>172.22</course>
  <speed>0.02</speed>
  <fix>3d</fix>
</trkpt>
<trkpt lat="-27.2744393" lon="151.2900652">
  <ele>376.45</ele>
  <time>2026-09-01T19:52:22Z</time>
  <course>128.7</course>
  <speed>0.04</speed>
  <fix>3d</fix>
</trkpt>
<trkpt lat="-27.2744391" lon="151.2900647">
  <ele>377.06</ele>
  <time>2026-09-01T19:52:22Z</time>
  <course>172.23</course>
  <speed>0.02</speed>
  <fix>3d</fix>
</trkpt>
<trkpt lat="-27.2744393" lon="151.2900652">
  <ele>376.45</ele>
  <time>2026-09-01T19:52:22Z</time>
  <course>128.7</course>
  <speed>0.04</speed>
  <fix>3d</fix>
</trkpt>
<trkpt lat="-27.2744391" lon="151.2900647">
  <ele>377.31</ele>
  <time>2026-09-01T19:52:22Z</time>
  <course>172.22</course>
  <speed>0.02</speed>
  <fix>3d</fix>
</trkpt>
<trkpt lat="-27.2744393" lon="151.2900653">
  <ele>376.95</ele>
  <time>2026-09-01T19:52:22Z</time>
  <course>127.95</course>
  <speed>0.04</speed>
  <fix>3d</fix>
</trkpt>
<trkpt lat="-27.2744391" lon="151.2900648">
  <ele>377.55</ele>
  <time>2026-09-01T19:52:22Z</time>
  <course>172.22</course>
  <speed>0.02</speed>
  <fix>3d</fix>
</trkpt>
<trkpt lat="-27.2744393" lon="151.2900653">
  <ele>376.95</ele>
  <time>2026-09-01T19:52:22Z</time>
  <course>127.95</course>
  <speed>0.04</speed>
  <fix>3d</fix>
</trkpt>
<trkpt lat="-27.2744392" lon="151.2900648">
  <ele>377.81</ele>
  <time>2026-09-01T19:52:22Z</time>
  <course>172.21</course>
  <speed>0.02</speed>
  <fix>3d</fix>
</trkpt>
<trkpt lat="-27.2744394" lon="151.2900654">
  <ele>377.45</ele>
  <time>2026-09-01T19:52:22Z</time>
  <course>126.94</course>
  <speed>0.04</speed>
  <fix>3d</fix>
</trkpt>
<trkpt lat="-27.2744392" lon="151.2900648">
  <ele>378.05</ele>
  <time>2026-09-01T19:52:22Z</time>
  <course>172.2</course>
  <speed>0.02</speed>
  <fix>3d</fix>
</trkpt>
<trkpt lat="-27.2744394" lon="151.2900654">
  <ele>377.45</ele>
  <time>2026-09-01T19:52:22Z</time>
  <course>126.94</course>
  <speed>0.04</speed>
  <fix>3d</fix>
</trkpt>
<trkpt lat="-27.2744392" lon="151.2900649">
  <ele>378.31</ele>
  <time>2026-09-01T19:52:22Z</time>
  <course>172.2</course>
  <speed>0.02</speed>
  <fix>3d</fix>
</trkpt>
<trkpt lat="-27.2744394" lon="151.2900654">
  <ele>377.95</ele>
  <time>2026-09-01T19:52:22Z</time>
  <course>125.48</course>
  <speed>0.04</speed>
  <fix>3d</fix>
</trkpt>
<trkpt lat="-27.2744392" lon="151.2900649">
  <ele>378.56</ele>
  <time>2026-09-01T19:52:22Z</time>
  <course>172.19</course>
  <speed>0.02</speed>
  <fix>3d</fix>
</trkpt>
<trkpt lat="-27.2744394" lon="151.2900654">
  <ele>377.95</ele>
  <time>2026-09-01T19:52:22Z</time>
  <course>125.48</course>
  <speed>0.04</speed>
  <fix>3d</fix>
</trkpt>
<trkpt lat="-27.2744392" lon="151.2900649">
  <ele>378.81</ele>
  <time>2026-09-01T19:52:22Z</time>
  <course>172.19</course>
  <speed>0.02</speed>
  <fix>3d</fix>
</trkpt>
<trkpt lat="-27.2744395" lon="151.2900655">
  <ele>378.45</ele>
  <time>2026-09-01T19:52:22Z</time>
  <course>124.23</course>
  <speed>0.04</speed>
  <fix>3d</fix>
</trkpt>
<trkpt lat="-27.2744393" lon="151.290065">
  <ele>379.06</ele>
  <time>2026-09-01T19:52:22Z</time>
  <course>172.19</course>
  <speed>0.02</speed>
  <fix>3d</fix>
</trkpt>
<trkpt lat="-27.2744395" lon="151.2900655">
  <ele>378.45</ele>
  <time>2026-09-01T19:52:22Z</time>
  <course>124.23</course>
  <speed>0.04</speed>
  <fix>3d</fix>
</trkpt>
<trkpt lat="-27.2744393" lon="151.290065">
  <ele>379.31</ele>
  <time>2026-09-01T19:52:22Z</time>
  <course>172.19</course>
  <speed>0.02</speed>
  <fix>3d</fix>
</trkpt>
<trkpt lat="-27.2744395" lon="151.2900656">
  <ele>378.95</ele>
  <time>2026-09-01T19:52:22Z</time>
  <course>123.6</course>
  <speed>0.03</speed>
  <fix>3d</fix>
</trkpt>
<trkpt lat="-27.2744393" lon="151.290065">
  <ele>379.56</ele>
  <time>2026-09-01T19:52:22Z</time>
  <course>172.2</course>
  <speed>0.02</speed>
  <fix>3d</fix>
</trkpt>
<trkpt lat="-27.2744395" lon="151.2900656">
  <ele>378.95</ele>
  <time>2026-09-01T19:52:22Z</time>
  <course>123.6</course>
  <speed>0.03</speed>
  <fix>3d</fix>
</trkpt>
<trkpt lat="-27.2744393" lon="151.2900651">
  <ele>379.81</ele>
  <time>2026-09-01T19:52:22Z</time>
  <course>172.21</course>
  <speed>0.02</speed>
  <fix>3d</fix>
</trkpt>
<trkpt lat="-27.2744396" lon="151.2900656">
  <ele>379.45</ele>
  <time>2026-09-01T19:52:22Z</time>
  <course>123.64</course>
  <speed>0.03</speed>
  <fix>3d</fix>
</trkpt>
<trkpt lat="-27.2744393" lon="151.2900651">
  <ele>380.06</ele>
  <time>2026-09-01T19:52:22Z</time>
  <course>172.22</course>
  <speed>0.02</speed>
  <fix>3d</fix>
</trkpt>
<trkpt lat="-27.2744396" lon="151.2900656">
  <ele>379.45</ele>
  <time>2026-09-01T19:52:22Z</time>
  <course>123.64</course>
  <speed>0.03</speed>
  <fix>3d</fix>
</trkpt>
<trkpt lat="-27.2744394" lon="151.2900652">
  <ele>380.31</ele>
  <time>2026-09-01T19:52:23Z</time>
  <course>172.22</course>
  <speed>0.02</speed>
  <fix>3d</fix>
</trkpt>
<trkpt lat="-27.2744396" lon="151.2900657">
  <ele>379.95</ele>
  <time>2026-09-01T19:52:23Z</time>
  <course>123.83</course>
  <speed>0.03</speed>
  <fix>3d</fix>
</trkpt>
<trkpt lat="-27.2744394" lon="151.2900652">
  <ele>380.56</ele>
  <time>2026-09-01T19:52:23Z</time>
  <course>172.24</course>
  <speed>0.02</speed>
  <fix>3d</fix>
</trkpt>
<trkpt lat="-27.2744396" lon="151.2900657">
  <ele>379.95</ele>
  <time>2026-09-01T19:52:23Z</time>
  <course>123.83</course>
  <speed>0.03</speed>
  <fix>3d</fix>
</trkpt>
<trkpt lat="-27.2744394" lon="151.2900652">
  <ele>380.81</ele>
  <time>2026-09-01T19:52:23Z</time>
  <course>172.25</course>
  <speed>0.02</speed>
  <fix>3d</fix>
</trkpt>
<trkpt lat="-27.2744396" lon="151.2900657">
  <ele>380.45</ele>
  <time>2026-09-01T19:52:23Z</time>
  <course>123.41</course>
  <speed>0.03</speed>
  <fix>3d</fix>
</trkpt>
<trkpt lat="-27.2744394" lon="151.2900652">
  <ele>381.06</ele>
  <time>2026-09-01T19:52:23Z</time>
  <course>172.28</course>
  <speed>0.02</speed>
  <fix>3d</fix>
</trkpt>
<trkpt lat="-27.2744396" lon="151.2900657">
  <ele>380.45</ele>
  <time>2026-09-01T19:52:23Z</time>
  <course>123.41</course>
  <speed>0.03</speed>
  <fix>3d</fix>
</trkpt>
<trkpt lat="-27.2744394" lon="151.2900653">
  <ele>381.31</ele>
  <time>2026-09-01T19:52:23Z</time>
  <course>172.3</course>
  <speed>0.02</speed>
  <fix>3d</fix>
</trkpt>
<trkpt lat="-27.2744397" lon="151.2900658">
  <ele>380.95</ele>
  <time>2026-09-01T19:52:23Z</time>
  <course>122.27</course>
  <speed>0.02</speed>
  <fix>3d</fix>
</trkpt>
<trkpt lat="-27.2744394" lon="151.2900653">
  <ele>381.55</ele>
  <time>2026-09-01T19:52:23Z</time>
  <course>172.33</course>
  <speed>0.02</speed>
  <fix>3d</fix>
</trkpt>
<trkpt lat="-27.2744397" lon="151.2900658">
  <ele>380.95</ele>
  <time>2026-09-01T19:52:23Z</time>
  <course>122.27</course>
  <speed>0.02</speed>
  <fix>3d</fix>
</trkpt>
<trkpt lat="-27.2744395" lon="151.2900653">
  <ele>381.8</ele>
  <time>2026-09-01T19:52:23Z</time>
  <course>172.35</course>
  <speed>0.02</speed>
  <fix>3d</fix>
</trkpt>
<trkpt lat="-27.2744397" lon="151.2900659">
  <ele>381.45</ele>
  <time>2026-09-01T19:52:23Z</time>
  <course>120.47</course>
  <speed>0.02</speed>
  <fix>3d</fix>
</trkpt>
<trkpt lat="-27.2744395" lon="151.2900653">
  <ele>382.05</ele>
  <time>2026-09-01T19:52:23Z</time>
  <course>172.37</course>
  <speed>0.02</speed>
  <fix>3d</fix>
</trkpt>
<trkpt lat="-27.2744397" lon="151.2900659">
  <ele>381.45</ele>
  <time>2026-09-01T19:52:23Z</time>
  <course>120.47</course>
  <speed>0.02</speed>
  <fix>3d</fix>
</trkpt>
<trkpt lat="-27.2744395" lon="151.2900654">
  <ele>382.3</ele>
  <time>2026-09-01T19:52:23Z</time>
  <course>172.38</course>
  <speed>0.022360679774997897</speed>
  <fix>3d</fix>
</trkpt>
<trkpt lat="-27.2744397" lon="151.2900659">
  <ele>381.95</ele>
  <time>2026-09-01T19:52:23Z</time>
  <course>117.99</course>
  <speed>0.02</speed>
  <fix>3d</fix>
</trkpt>
<trkpt lat="-27.2744395" lon="151.2900654">
  <ele>382.55</ele>
  <time>2026-09-01T19:52:23Z</time>
  <course>172.4</course>
  <speed>0.022360679774997897</speed>
  <fix>3d</fix>
</trkpt>
<trkpt lat="-27.2744397" lon="151.2900659">
  <ele>381.95</ele>
  <time>2026-09-01T19:52:23Z</time>
  <course>117.99</course>
  <speed>0.02</speed>
  <fix>3d</fix>
</trkpt>
<trkpt lat="-27.2744395" lon="151.2900654">
  <ele>382.8</ele>
  <time>2026-09-01T19:52:23Z</time>
  <course>172.41</course>
  <speed>0.022360679774997897</speed>
  <fix>3d</fix>
</trkpt>
<trkpt lat="-27.2744397" lon="151.2900659">
  <ele>382.45</ele>
  <time>2026-09-01T19:52:23Z</time>
  <course>114.69</course>
  <speed>0.01</speed>
  <fix>3d</fix>
</trkpt>
<trkpt lat="-27.2744395" lon="151.2900654">
  <ele>383.05</ele>
  <time>2026-09-01T19:52:23Z</time>
  <course>172.43</course>
  <speed>0.022360679774997897</speed>
  <fix>3d</fix>
</trkpt>
<trkpt lat="-27.2744397" lon="151.2900659">
  <ele>382.45</ele>
  <time>2026-09-01T19:52:23Z</time>
  <course>114.69</course>
  <speed>0.01</speed>
  <fix>3d</fix>
</trkpt>
<trkpt lat="-27.2744395" lon="151.2900655">
  <ele>383.3</ele>
  <time>2026-09-01T19:52:23Z</time>
  <course>172.45</course>
  <speed>0.022360679774997897</speed>
  <fix>3d</fix>
</trkpt>
<trkpt lat="-27.2744397" lon="151.290066">
  <ele>382.95</ele>
  <time>2026-09-01T19:52:23Z</time>
  <course>110.58</course>
  <speed>0.01</speed>
  <fix>3d</fix>
</trkpt>
<trkpt lat="-27.2744395" lon="151.2900655">
  <ele>383.55</ele>
  <time>2026-09-01T19:52:23Z</time>
  <course>172.47</course>
  <speed>0.022360679774997897</speed>
  <fix>3d</fix>
</trkpt>
<trkpt lat="-27.2744397" lon="151.290066">
  <ele>382.95</ele>
  <time>2026-09-01T19:52:23Z</time>
  <course>110.58</course>
  <speed>0.01</speed>
  <fix>3d</fix>
</trkpt>
<trkpt lat="-27.2744395" lon="151.2900655">
  <ele>383.8</ele>
  <time>2026-09-01T19:52:23Z</time>
  <course>172.47</course>
  <speed>0.022360679774997897</speed>
  <fix>3d</fix>
</trkpt>
<trkpt lat="-27.2744398" lon="151.290066">
  <ele>383.45</ele>
  <time>2026-09-01T19:52:23Z</time>
  <course>105.69</course>
  <speed>0.01</speed>
  <fix>3d</fix>
</trkpt>
<trkpt lat="-27.2744395" lon="151.2900655">
  <ele>384.05</ele>
  <time>2026-09-01T19:52:23Z</time>
  <course>172.48</course>
  <speed>0.022360679774997897</speed>
  <fix>3d</fix>
</trkpt>
<trkpt lat="-27.2744398" lon="151.290066">
  <ele>383.45</ele>
  <time>2026-09-01T19:52:23Z</time>
  <course>105.69</course>
  <speed>0.01</speed>
  <fix>3d</fix>
</trkpt>
<trkpt lat="-27.2744395" lon="151.2900655">
  <ele>384.3</ele>
  <time>2026-09-01T19:52:23Z</time>
  <course>172.48</course>
  <speed>0.022360679774997897</speed>
  <fix>3d</fix>
</trkpt>
<trkpt lat="-27.2744398" lon="151.290066">
  <ele>383.95</ele>
  <time>2026-09-01T19:52:23Z</time>
  <course>101.63</course>
  <speed>0.01</speed>
  <fix>3d</fix>
</trkpt>
<trkpt lat="-27.2744395" lon="151.2900656">
  <ele>384.55</ele>
  <time>2026-09-01T19:52:23Z</time>
  <course>172.48</course>
  <speed>0.022360679774997897</speed>
  <fix>3d</fix>
</trkpt>
<trkpt lat="-27.2744398" lon="151.290066">
  <ele>383.95</ele>
  <time>2026-09-01T19:52:23Z</time>
  <course>101.63</course>
  <speed>0.01</speed>
  <fix>3d</fix>
</trkpt>
<trkpt lat="-27.2744395" lon="151.2900656">
  <ele>384.8</ele>
  <time>2026-09-01T19:52:23Z</time>
  <course>172.49</course>
  <speed>0.0316227766016838</speed>
  <fix>3d</fix>
</trkpt>
<trkpt lat="-27.2744398" lon="151.2900661">
  <ele>384.45</ele>
  <time>2026-09-01T19:52:23Z</time>
  <course>99.53</course>
  <speed>0.01</speed>
  <fix>3d</fix>
</trkpt>
<trkpt lat="-27.2744395" lon="151.2900656">
  <ele>385.05</ele>
  <time>2026-09-01T19:52:23Z</time>
  <course>172.5</course>
  <speed>0.0316227766016838</speed>
  <fix>3d</fix>
</trkpt>
<trkpt lat="-27.2744398" lon="151.2900661">
  <ele>384.45</ele>
  <time>2026-09-01T19:52:23Z</time>
  <course>99.53</course>
  <speed>0.01</speed>
  <fix>3d</fix>
</trkpt>
<trkpt lat="-27.2744396" lon="151.2900656">
  <ele>385.3</ele>
  <time>2026-09-01T19:52:23Z</time>
  <course>172.5</course>
  <speed>0.0316227766016838</speed>
  <fix>3d</fix>
</trkpt>
<trkpt lat="-27.2744398" lon="151.2900661">
  <ele>384.95</ele>
  <time>2026-09-01T19:52:23Z</time>
  <course>96.78</course>
  <speed>0.0</speed>
  <fix>3d</fix>
</trkpt>
<trkpt lat="-27.2744396" lon="151.2900656">
  <ele>385.55</ele>
  <time>2026-09-01T19:52:23Z</time>
  <course>172.51</course>
  <speed>0.0316227766016838</speed>
  <fix>3d</fix>
</trkpt>
<trkpt lat="-27.2744398" lon="151.2900661">
  <ele>384.95</ele>
  <time>2026-09-01T19:52:23Z</time>
  <course>96.78</course>
  <speed>0.0</speed>
  <fix>3d</fix>
</trkpt>
<trkpt lat="-27.2744396" lon="151.2900656">
  <ele>385.8</ele>
  <time>2026-09-01T19:52:23Z</time>
  <course>172.51</course>
  <speed>0.0316227766016838</speed>
  <fix>3d</fix>
</trkpt>
<trkpt lat="-27.2744398" lon="151.2900661">
  <ele>385.46</ele>
  <time>2026-09-01T19:52:23Z</time>
  <course>91.19</course>
  <speed>0.0</speed>
  <fix>3d</fix>
</trkpt>
<trkpt lat="-27.2744396" lon="151.2900657">
  <ele>386.05</ele>
  <time>2026-09-01T19:52:23Z</time>
  <course>172.52</course>
  <speed>0.0316227766016838</speed>
  <fix>3d</fix>
</trkpt>
<trkpt lat="-27.2744398" lon="151.2900661">
  <ele>385.46</ele>
  <time>2026-09-01T19:52:23Z</time>
  <course>91.19</course>
  <speed>0.0</speed>
  <fix>3d</fix>
</trkpt>
<trkpt lat="-27.2744396" lon="151.2900657">
  <ele>386.3</ele>
  <time>2026-09-01T19:52:23Z</time>
  <course>172.53</course>
  <speed>0.0316227766016838</speed>
  <fix>3d</fix>
</trkpt>
<trkpt lat="-27.2744398" lon="151.2900661">
  <ele>385.96</ele>
  <time>2026-09-01T19:52:23Z</time>
  <course>80.78</course>
  <speed>0.0</speed>
  <fix>3d</fix>
</trkpt>
<trkpt lat="-27.2744396" lon="151.2900657">
  <ele>386.55</ele>
  <time>2026-09-01T19:52:23Z</time>
  <course>172.56</course>
  <speed>0.03605551275463989</speed>
  <fix>3d</fix>
</trkpt>
<trkpt lat="-27.2744398" lon="151.2900661">
  <ele>385.96</ele>
  <time>2026-09-01T19:52:23Z</time>
  <course>80.78</course>
  <speed>0.0</speed>
  <fix>3d</fix>
</trkpt>
<trkpt lat="-27.2744396" lon="151.2900657">
  <ele>386.8</ele>
  <time>2026-09-01T19:52:23Z</time>
  <course>172.58</course>
  <speed>0.03605551275463989</speed>
  <fix>3d</fix>
</trkpt>
<trkpt lat="-27.2744398" lon="151.2900661">
  <ele>386.46</ele>
  <time>2026-09-01T19:52:23Z</time>
  <course>60.8</course>
  <speed>0.0</speed>
  <fix>3d</fix>
</trkpt>
<trkpt lat="-27.2744396" lon="151.2900657">
  <ele>387.05</ele>
  <time>2026-09-01T19:52:23Z</time>
  <course>172.61</course>
  <speed>0.03605551275463989</speed>
  <fix>3d</fix>
</trkpt>
<trkpt lat="-27.2744398" lon="151.2900661">
  <ele>386.46</ele>
  <time>2026-09-01T19:52:23Z</time>
  <course>60.8</course>
  <speed>0.0</speed>
  <fix>3d</fix>
</trkpt>
<trkpt lat="-27.2744396" lon="151.2900657">
  <ele>387.3</ele>
  <time>2026-09-01T19:52:23Z</time>
  <course>172.62</course>
  <speed>0.03605551275463989</speed>
  <fix>3d</fix>
</trkpt>
<trkpt lat="-27.2744398" lon="151.2900661">
  <ele>386.96</ele>
  <time>2026-09-01T19:52:23Z</time>
  <course>32.8</course>
  <speed>0.0</speed>
  <fix>3d</fix>
</trkpt>
<trkpt lat="-27.2744396" lon="151.2900657">
  <ele>387.56</ele>
  <time>2026-09-01T19:52:23Z</time>
  <course>172.63</course>
  <speed>0.03605551275463989</speed>
  <fix>3d</fix>
</trkpt>
<trkpt lat="-27.2744398" lon="151.2900661">
  <ele>386.96</ele>
  <time>2026-09-01T19:52:23Z</time>
  <course>32.8</course>
  <speed>0.0</speed>
  <fix>3d</fix>
</trkpt>
<trkpt lat="-27.2744396" lon="151.2900657">
  <ele>387.81</ele>
  <time>2026-09-01T19:52:23Z</time>
  <course>172.64</course>
  <speed>0.03605551275463989</speed>
  <fix>3d</fix>
</trkpt>
<trkpt lat="-27.2744398" lon="151.2900661">
  <ele>387.46</ele>
  <time>2026-09-01T19:52:23Z</time>
  <course>8.03</course>
  <speed>0.0</speed>
  <fix>3d</fix>
</trkpt>
<trkpt lat="-27.2744396" lon="151.2900657">
  <ele>388.06</ele>
  <time>2026-09-01T19:52:23Z</time>
  <course>172.66</course>
  <speed>0.03605551275463989</speed>
  <fix>3d</fix>
</trkpt>
<trkpt lat="-27.2744398" lon="151.2900661">
  <ele>387.46</ele>
  <time>2026-09-01T19:52:23Z</time>
  <course>8.03</course>
  <speed>0.0</speed>
  <fix>3d</fix>
</trkpt>
<trkpt lat="-27.2744396" lon="151.2900657">
  <ele>388.31</ele>
  <time>2026-09-01T19:52:23Z</time>
  <course>172.67</course>
  <speed>0.03605551275463989</speed>
  <fix>3d</fix>
</trkpt>
<trkpt lat="-27.2744398" lon="151.2900661">
  <ele>387.96</ele>
  <time>2026-09-01T19:52:23Z</time>
  <course>355.71</course>
  <speed>0.0</speed>
  <fix>3d</fix>
</trkpt>
<trkpt lat="-27.2744396" lon="151.2900657">
  <ele>388.56</ele>
  <time>2026-09-01T19:52:23Z</time>
  <course>172.68</course>
  <speed>0.03605551275463989</speed>
  <fix>3d</fix>
</trkpt>
<trkpt lat="-27.2744398" lon="151.2900661">
  <ele>387.96</ele>
  <time>2026-09-01T19:52:23Z</time>
  <course>355.71</course>
  <speed>0.0</speed>
  <fix>3d</fix>
</trkpt>
<trkpt lat="-27.2744396" lon="151.2900657">
  <ele>388.81</ele>
  <time>2026-09-01T19:52:23Z</time>
  <course>172.68</course>
  <speed>0.03605551275463989</speed>
  <fix>3d</fix>
</trkpt>
<trkpt lat="-27.2744398" lon="151.2900661">
  <ele>388.47</ele>
  <time>2026-09-01T19:52:23Z</time>
  <course>346.21</course>
  <speed>0.0</speed>
  <fix>3d</fix>
</trkpt>
<trkpt lat="-27.2744396" lon="151.2900657">
  <ele>389.06</ele>
  <time>2026-09-01T19:52:23Z</time>
  <course>172.69</course>
  <speed>0.03605551275463989</speed>
  <fix>3d</fix>
</trkpt>
<trkpt lat="-27.2744398" lon="151.2900661">
  <ele>388.47</ele>
  <time>2026-09-01T19:52:23Z</time>
  <course>346.21</course>
  <speed>0.0</speed>
  <fix>3d</fix>
</trkpt>
<trkpt lat="-27.2744396" lon="151.2900657">
  <ele>389.31</ele>
  <time>2026-09-01T19:52:23Z</time>
  <course>172.7</course>
  <speed>0.03605551275463989</speed>
  <fix>3d</fix>
</trkpt>
<trkpt lat="-27.2744398" lon="151.2900661">
  <ele>388.97</ele>
  <time>2026-09-01T19:52:23Z</time>
  <course>338.43</course>
  <speed>0.01</speed>
  <fix>3d</fix>
</trkpt>
<trkpt lat="-27.2744396" lon="151.2900657">
  <ele>389.56</ele>
  <time>2026-09-01T19:52:23Z</time>
  <course>172.71</course>
  <speed>0.04242640687119285</speed>
  <fix>3d</fix>
</trkpt>
<trkpt lat="-27.2744398" lon="151.2900661">
  <ele>388.97</ele>
  <time>2026-09-01T19:52:23Z</time>
  <course>338.43</course>
  <speed>0.01</speed>
  <fix>3d</fix>
</trkpt>
<trkpt lat="-27.2744396" lon="151.2900657">
  <ele>389.8</ele>
  <time>2026-09-01T19:52:23Z</time>
  <course>172.72</course>
  <speed>0.04242640687119285</speed>
  <fix>3d</fix>
</trkpt>
<trkpt lat="-27.2744398" lon="151.2900661">
  <ele>389.47</ele>
  <time>2026-09-01T19:52:23Z</time>
  <course>334.27</course>
  <speed>0.01</speed>
  <fix>3d</fix>
</trkpt>
<trkpt lat="-27.2744396" lon="151.2900657">
  <ele>390.05</ele>
  <time>2026-09-01T19:52:23Z</time>
  <course>172.74</course>
  <speed>0.04242640687119285</speed>
  <fix>3d</fix>
</trkpt>
<trkpt lat="-27.2744398" lon="151.2900661">
  <ele>389.47</ele>
  <time>2026-09-01T19:52:23Z</time>
  <course>334.27</course>
  <speed>0.01</speed>
  <fix>3d</fix>
</trkpt>
<trkpt lat="-27.2744396" lon="151.2900657">
  <ele>390.3</ele>
  <time>2026-09-01T19:52:23Z</time>
  <course>172.76</course>
  <speed>0.04242640687119285</speed>
  <fix>3d</fix>
</trkpt>
<trkpt lat="-27.2744398" lon="151.2900661">
  <ele>389.97</ele>
  <time>2026-09-01T19:52:23Z</time>
  <course>333.5</course>
  <speed>0.01</speed>
  <fix>3d</fix>
</trkpt>
<trkpt lat="-27.2744396" lon="151.2900657">
  <ele>390.55</ele>
  <time>2026-09-01T19:52:23Z</time>
  <course>172.78</course>
  <speed>0.04242640687119285</speed>
  <fix>3d</fix>
</trkpt>
<trkpt lat="-27.2744398" lon="151.2900661">
  <ele>389.97</ele>
  <time>2026-09-01T19:52:23Z</time>
  <course>333.5</course>
  <speed>0.01</speed>
  <fix>3d</fix>
</trkpt>
<trkpt lat="-27.2744396" lon="151.2900657">
  <ele>390.81</ele>
  <time>2026-09-01T19:52:23Z</time>
  <course>172.8</course>
  <speed>0.03605551275463989</speed>
  <fix>3d</fix>
</trkpt>
<trkpt lat="-27.2744397" lon="151.2900661">
  <ele>390.47</ele>
  <time>2026-09-01T19:52:23Z</time>
  <course>332.66</course>
  <speed>0.01</speed>
  <fix>3d</fix>
</trkpt>
<trkpt lat="-27.2744396" lon="151.2900657">
  <ele>391.06</ele>
  <time>2026-09-01T19:52:23Z</time>
  <course>172.8</course>
  <speed>0.03605551275463989</speed>
  <fix>3d</fix>
</trkpt>
<trkpt lat="-27.2744397" lon="151.2900661">
  <ele>390.47</ele>
  <time>2026-09-01T19:52:23Z</time>
  <course>332.66</course>
  <speed>0.01</speed>
  <fix>3d</fix>
</trkpt>
<trkpt lat="-27.2744396" lon="151.2900657">
  <ele>391.31</ele>
  <time>2026-09-01T19:52:23Z</time>
  <course>172.8</course>
  <speed>0.03605551275463989</speed>
  <fix>3d</fix>
</trkpt>
<trkpt lat="-27.2744397" lon="151.2900661">
  <ele>390.97</ele>
  <time>2026-09-01T19:52:23Z</time>
  <course>328.36</course>
  <speed>0.01</speed>
  <fix>3d</fix>
</trkpt>
<trkpt lat="-27.2744396" lon="151.2900657">
  <ele>391.56</ele>
  <time>2026-09-01T19:52:23Z</time>
  <course>172.8</course>
  <speed>0.03605551275463989</speed>
  <fix>3d</fix>
</trkpt>
<trkpt lat="-27.2744397" lon="151.2900661">
  <ele>390.97</ele>
  <time>2026-09-01T19:52:23Z</time>
  <course>328.36</course>
  <speed>0.01</speed>
  <fix>3d</fix>
</trkpt>
<trkpt lat="-27.2744396" lon="151.2900657">
  <ele>391.81</ele>
  <time>2026-09-01T19:52:23Z</time>
  <course>172.8</course>
  <speed>0.03605551275463989</speed>
  <fix>3d</fix>
</trkpt>
<trkpt lat="-27.2744397" lon="151.2900661">
  <ele>391.47</ele>
  <time>2026-09-01T19:52:23Z</time>
  <course>322.16</course>
  <speed>0.01</speed>
  <fix>3d</fix>
</trkpt>
<trkpt lat="-27.2744396" lon="151.2900657">
  <ele>392.06</ele>
  <time>2026-09-01T19:52:23Z</time>
  <course>172.8</course>
  <speed>0.03605551275463989</speed>
  <fix>3d</fix>
</trkpt>
<trkpt lat="-27.2744397" lon="151.2900661">
  <ele>391.47</ele>
  <time>2026-09-01T19:52:23Z</time>
  <course>322.16</course>
  <speed>0.01</speed>
  <fix>3d</fix>
</trkpt>
<trkpt lat="-27.2744395" lon="151.2900657">
  <ele>392.31</ele>
  <time>2026-09-01T19:52:23Z</time>
  <course>172.8</course>
  <speed>0.03605551275463989</speed>
  <fix>3d</fix>
</trkpt>
<trkpt lat="-27.2744397" lon="151.2900661">
  <ele>391.97</ele>
  <time>2026-09-01T19:52:23Z</time>
  <course>315.86</course>
  <speed>0.01</speed>
  <fix>3d</fix>
</trkpt>
<trkpt lat="-27.2744395" lon="151.2900657">
  <ele>392.57</ele>
  <time>2026-09-01T19:52:23Z</time>
  <course>172.8</course>
  <speed>0.03605551275463989</speed>
  <fix>3d</fix>
</trkpt>
<trkpt lat="-27.2744397" lon="151.2900661">
  <ele>391.97</ele>
  <time>2026-09-01T19:52:23Z</time>
  <course>315.86</course>
  <speed>0.01</speed>
  <fix>3d</fix>
</trkpt>
<trkpt lat="-27.2744395" lon="151.2900657">
  <ele>392.82</ele>
  <time>2026-09-01T19:52:23Z</time>
  <course>172.82</course>
  <speed>0.03605551275463989</speed>
  <fix>3d</fix>
</trkpt>
<trkpt lat="-27.2744396" lon="151.2900661">
  <ele>392.47</ele>
  <time>2026-09-01T19:52:23Z</time>
  <course>311.45</course>
  <speed>0.01</speed>
  <fix>3d</fix>
</trkpt>
<trkpt lat="-27.2744395" lon="151.2900657">
  <ele>393.07</ele>
  <time>2026-09-01T19:52:23Z</time>
  <course>172.84</course>
  <speed>0.03605551275463989</speed>
  <fix>3d</fix>
</trkpt>
<trkpt lat="-27.2744396" lon="151.2900661">
  <ele>392.47</ele>
  <time>2026-09-01T19:52:23Z</time>
  <course>311.45</course>
  <speed>0.01</speed>
  <fix>3d</fix>
</trkpt>
<trkpt lat="-27.2744395" lon="151.2900657">
  <ele>393.32</ele>
  <time>2026-09-01T19:52:23Z</time>
  <course>172.86</course>
  <speed>0.03605551275463989</speed>
  <fix>3d</fix>
</trkpt>
<trkpt lat="-27.2744396" lon="151.2900661">
  <ele>392.97</ele>
  <time>2026-09-01T19:52:23Z</time>
  <course>309.95</course>
  <speed>0.01</speed>
  <fix>3d</fix>
</trkpt>
<trkpt lat="-27.2744395" lon="151.2900657">
  <ele>393.57</ele>
  <time>2026-09-01T19:52:23Z</time>
  <course>172.88</course>
  <speed>0.03605551275463989</speed>
  <fix>3d</fix>
</trkpt>
<trkpt lat="-27.2744396" lon="151.2900661">
  <ele>392.97</ele>
  <time>2026-09-01T19:52:23Z</time>
  <course>309.95</course>
  <speed>0.01</speed>
  <fix>3d</fix>
</trkpt>
<trkpt lat="-27.2744395" lon="151.2900657">
  <ele>393.82</ele>
  <time>2026-09-01T19:52:23Z</time>
  <course>172.88</course>
  <speed>0.03605551275463989</speed>
  <fix>3d</fix>
</trkpt>
<trkpt lat="-27.2744396" lon="151.2900661">
  <ele>393.47</ele>
  <time>2026-09-01T19:52:23Z</time>
  <course>307.69</course>
  <speed>0.01</speed>
  <fix>3d</fix>
</trkpt>
<trkpt lat="-27.2744395" lon="151.2900657">
  <ele>394.07</ele>
  <time>2026-09-01T19:52:23Z</time>
  <course>172.87</course>
  <speed>0.03605551275463989</speed>
  <fix>3d</fix>
</trkpt>
<trkpt lat="-27.2744396" lon="151.2900661">
  <ele>393.47</ele>
  <time>2026-09-01T19:52:23Z</time>
  <course>307.69</course>
  <speed>0.01</speed>
  <fix>3d</fix>
</trkpt>
<trkpt lat="-27.2744395" lon="151.2900657">
  <ele>394.32</ele>
  <time>2026-09-01T19:52:23Z</time>
  <course>172.87</course>
  <speed>0.03605551275463989</speed>
  <fix>3d</fix>
</trkpt>
<trkpt lat="-27.2744396" lon="151.290066">
  <ele>393.97</ele>
  <time>2026-09-01T19:52:23Z</time>
  <course>304.45</course>
  <speed>0.01</speed>
  <fix>3d</fix>
</trkpt>
<trkpt lat="-27.2744395" lon="151.2900657">
  <ele>394.57</ele>
  <time>2026-09-01T19:52:23Z</time>
  <course>172.87</course>
  <speed>0.03605551275463989</speed>
  <fix>3d</fix>
</trkpt>
<trkpt lat="-27.2744396" lon="151.290066">
  <ele>393.97</ele>
  <time>2026-09-01T19:52:23Z</time>
  <course>304.45</course>
  <speed>0.01</speed>
  <fix>3d</fix>
</trkpt>
<trkpt lat="-27.2744395" lon="151.2900657">
  <ele>394.81</ele>
  <time>2026-09-01T19:52:23Z</time>
  <course>172.87</course>
  <speed>0.03605551275463989</speed>
  <fix>3d</fix>
</trkpt>
<trkpt lat="-27.2744396" lon="151.290066">
  <ele>394.47</ele>
  <time>2026-09-01T19:52:23Z</time>
  <course>302.47</course>
  <speed>0.01</speed>
  <fix>3d</fix>
</trkpt>
<trkpt lat="-27.2744395" lon="151.2900657">
  <ele>395.06</ele>
  <time>2026-09-01T19:52:23Z</time>
  <course>172.87</course>
  <speed>0.03605551275463989</speed>
  <fix>3d</fix>
</trkpt>
<trkpt lat="-27.2744396" lon="151.290066">
  <ele>394.47</ele>
  <time>2026-09-01T19:52:23Z</time>
  <course>302.47</course>
  <speed>0.01</speed>
  <fix>3d</fix>
</trkpt>
<trkpt lat="-27.2744395" lon="151.2900657">
  <ele>395.31</ele>
  <time>2026-09-01T19:52:23Z</time>
  <course>172.88</course>
  <speed>0.03605551275463989</speed>
  <fix>3d</fix>
</trkpt>
<trkpt lat="-27.2744395" lon="151.290066">
  <ele>394.96</ele>
  <time>2026-09-01T19:52:23Z</time>
  <course>302.06</course>
  <speed>0.01</speed>
  <fix>3d</fix>
</trkpt>
<trkpt lat="-27.2744394" lon="151.2900657">
  <ele>395.55</ele>
  <time>2026-09-01T19:52:23Z</time>
  <course>172.87</course>
  <speed>0.03605551275463989</speed>
  <fix>3d</fix>
</trkpt>
<trkpt lat="-27.2744395" lon="151.290066">
  <ele>394.96</ele>
  <time>2026-09-01T19:52:23Z</time>
  <course>302.06</course>
  <speed>0.01</speed>
  <fix>3d</fix>
</trkpt>
<trkpt lat="-27.2744394" lon="151.2900657">
  <ele>395.8</ele>
  <time>2026-09-01T19:52:23Z</time>
  <course>172.87</course>
  <speed>0.03605551275463989</speed>
  <fix>3d</fix>
</trkpt>
<trkpt lat="-27.2744395" lon="151.2900659">
  <ele>395.46</ele>
  <time>2026-09-01T19:52:23Z</time>
  <course>301.94</course>
  <speed>0.01</speed>
  <fix>3d</fix>
</trkpt>
<trkpt lat="-27.2744394" lon="151.2900657">
  <ele>396.05</ele>
  <time>2026-09-01T19:52:23Z</time>
  <course>172.87</course>
  <speed>0.03605551275463989</speed>
  <fix>3d</fix>
</trkpt>
<trkpt lat="-27.2744395" lon="151.2900659">
  <ele>395.46</ele>
  <time>2026-09-01T19:52:23Z</time>
  <course>301.94</course>
  <speed>0.01</speed>
  <fix>3d</fix>
</trkpt>
<trkpt lat="-27.2744394" lon="151.2900657">
  <ele>396.3</ele>
  <time>2026-09-01T19:52:23Z</time>
  <course>172.87</course>
  <speed>0.044721359549995794</speed>
  <fix>3d</fix>
</trkpt>
<trkpt lat="-27.2744395" lon="151.2900659">
  <ele>395.96</ele>
  <time>2026-09-01T19:52:23Z</time>
  <course>301.28</course>
  <speed>0.01</speed>
  <fix>3d</fix>
</trkpt>
<trkpt lat="-27.2744394" lon="151.2900657">
  <ele>396.55</ele>
  <time>2026-09-01T19:52:23Z</time>
  <course>172.87</course>
  <speed>0.03605551275463989</speed>
  <fix>3d</fix>
</trkpt>
<trkpt lat="-27.2744395" lon="151.2900659">
  <ele>395.96</ele>
  <time>2026-09-01T19:52:23Z</time>
  <course>301.28</course>
  <speed>0.01</speed>
  <fix>3d</fix>
</trkpt>
<trkpt lat="-27.2744394" lon="151.2900656">
  <ele>396.8</ele>
  <time>2026-09-01T19:52:23Z</time>
  <course>172.87</course>
  <speed>0.03605551275463989</speed>
  <fix>3d</fix>
</trkpt>
<trkpt lat="-27.2744395" lon="151.2900659">
  <ele>396.46</ele>
  <time>2026-09-01T19:52:23Z</time>
  <course>299.2</course>
  <speed>0.01</speed>
  <fix>3d</fix>
</trkpt>
<trkpt lat="-27.2744394" lon="151.2900656">
  <ele>397.05</ele>
  <time>2026-09-01T19:52:23Z</time>
  <course>172.87</course>
  <speed>0.03605551275463989</speed>
  <fix>3d</fix>
</trkpt>
<trkpt lat="-27.2744395" lon="151.2900659">
  <ele>396.46</ele>
  <time>2026-09-01T19:52:23Z</time>
  <course>299.2</course>
  <speed>0.01</speed>
  <fix>3d</fix>
</trkpt>
<trkpt lat="-27.2744394" lon="151.2900656">
  <ele>397.3</ele>
  <time>2026-09-01T19:52:23Z</time>
  <course>172.86</course>
  <speed>0.03605551275463989</speed>
  <fix>3d</fix>
</trkpt>
<trkpt lat="-27.2744395" lon="151.2900658">
  <ele>396.96</ele>
  <time>2026-09-01T19:52:23Z</time>
  <course>295.0</course>
  <speed>0.01</speed>
  <fix>3d</fix>
</trkpt>
<trkpt lat="-27.2744394" lon="151.2900656">
  <ele>397.56</ele>
  <time>2026-09-01T19:52:23Z</time>
  <course>172.87</course>
  <speed>0.03605551275463989</speed>
  <fix>3d</fix>
</trkpt>
<trkpt lat="-27.2744395" lon="151.2900658">
  <ele>396.96</ele>
  <time>2026-09-01T19:52:23Z</time>
  <course>295.0</course>
  <speed>0.01</speed>
  <fix>3d</fix>
</trkpt>
<trkpt lat="-27.2744394" lon="151.2900656">
  <ele>397.81</ele>
  <time>2026-09-01T19:52:23Z</time>
  <course>172.87</course>
  <speed>0.03605551275463989</speed>
  <fix>3d</fix>
</trkpt>
<trkpt lat="-27.2744395" lon="151.2900657">
  <ele>397.46</ele>
  <time>2026-09-01T19:52:23Z</time>
  <course>290.61</course>
  <speed>0.01</speed>
  <fix>3d</fix>
</trkpt>
<trkpt lat="-27.2744394" lon="151.2900656">
  <ele>398.06</ele>
  <time>2026-09-01T19:52:23Z</time>
  <course>172.86</course>
  <speed>0.03605551275463989</speed>
  <fix>3d</fix>
</trkpt>
<trkpt lat="-27.2744395" lon="151.2900657">
  <ele>397.46</ele>
  <time>2026-09-01T19:52:23Z</time>
  <course>290.61</course>
  <speed>0.01</speed>
  <fix>3d</fix>
</trkpt>
<trkpt lat="-27.2744394" lon="151.2900655">
  <ele>398.31</ele>
  <time>2026-09-01T19:52:23Z</time>
  <course>172.85</course>
  <speed>0.0316227766016838</speed>
  <fix>3d</fix>
</trkpt>
<trkpt lat="-27.2744395" lon="151.2900657">
  <ele>397.97</ele>
  <time>2026-09-01T19:52:23Z</time>
  <course>285.68</course>
  <speed>0.01</speed>
  <fix>3d</fix>
</trkpt>
<trkpt lat="-27.2744394" lon="151.2900655">
  <ele>398.56</ele>
  <time>2026-09-01T19:52:23Z</time>
  <course>172.84</course>
  <speed>0.0316227766016838</speed>
  <fix>3d</fix>
</trkpt>
<trkpt lat="-27.2744395" lon="151.2900657">
  <ele>397.97</ele>
  <time>2026-09-01T19:52:23Z</time>
  <course>285.68</course>
  <speed>0.01</speed>
  <fix>3d</fix>
</trkpt>
<trkpt lat="-27.2744394" lon="151.2900655">
  <ele>398.81</ele>
  <time>2026-09-01T19:52:24Z</time>
  <course>172.83</course>
  <speed>0.0316227766016838</speed>
  <fix>3d</fix>
</trkpt>
<trkpt lat="-27.2744395" lon="151.2900657">
  <ele>398.47</ele>
  <time>2026-09-01T19:52:24Z</time>
  <course>280.1</course>
  <speed>0.01</speed>
  <fix>3d</fix>
</trkpt>
<trkpt lat="-27.2744394" lon="151.2900655">
  <ele>399.05</ele>
  <time>2026-09-01T19:52:24Z</time>
  <course>172.83</course>
  <speed>0.0316227766016838</speed>
  <fix>3d</fix>
</trkpt>
<trkpt lat="-27.2744395" lon="151.2900657">
  <ele>398.47</ele>
  <time>2026-09-01T19:52:24Z</time>
  <course>280.1</course>
  <speed>0.01</speed>
  <fix>3d</fix>
</trkpt>
<trkpt lat="-27.2744394" lon="151.2900655">
  <ele>399.3</ele>
  <time>2026-09-01T19:52:24Z</time>
  <course>172.83</course>
  <speed>0.0316227766016838</speed>
  <fix>3d</fix>
</trkpt>
<trkpt lat="-27.2744395" lon="151.2900656">
  <ele>398.97</ele>
  <time>2026-09-01T19:52:24Z</time>
  <course>276.1</course>
  <speed>0.01</speed>
  <fix>3d</fix>
</trkpt>
<trkpt lat="-27.2744394" lon="151.2900655">
  <ele>399.55</ele>
  <time>2026-09-01T19:52:24Z</time>
  <course>172.83</course>
  <speed>0.0316227766016838</speed>
  <fix>3d</fix>
</trkpt>
<trkpt lat="-27.2744395" lon="151.2900656">
  <ele>398.97</ele>
  <time>2026-09-01T19:52:24Z</time>
  <course>276.1</course>
  <speed>0.01</speed>
  <fix>3d</fix>
</trkpt>
<trkpt lat="-27.2744394" lon="151.2900654">
  <ele>399.8</ele>
  <time>2026-09-01T19:52:24Z</time>
  <course>172.83</course>
  <speed>0.0316227766016838</speed>
  <fix>3d</fix>
</trkpt>
<trkpt lat="-27.2744394" lon="151.2900656">
  <ele>399.47</ele>
  <time>2026-09-01T19:52:24Z</time>
  <course>274.04</course>
  <speed>0.01</speed>
  <fix>3d</fix>
</trkpt>
<trkpt lat="-27.2744394" lon="151.2900654">
  <ele>400.06</ele>
  <time>2026-09-01T19:52:24Z</time>
  <course>172.83</course>
  <speed>0.0316227766016838</speed>
  <fix>3d</fix>
</trkpt>
<trkpt lat="-27.2744394" lon="151.2900656">
  <ele>399.47</ele>
  <time>2026-09-01T19:52:24Z</time>
  <course>274.04</course>
  <speed>0.01</speed>
  <fix>3d</fix>
</trkpt>
<trkpt lat="-27.2744394" lon="151.2900654">
  <ele>400.31</ele>
  <time>2026-09-01T19:52:24Z</time>
  <course>172.83</course>
  <speed>0.0316227766016838</speed>
  <fix>3d</fix>
</trkpt>
<trkpt lat="-27.2744394" lon="151.2900656">
  <ele>399.97</ele>
  <time>2026-09-01T19:52:24Z</time>
  <course>272.39</course>
  <speed>0.01</speed>
  <fix>3d</fix>
</trkpt>
<trkpt lat="-27.2744394" lon="151.2900654">
  <ele>400.56</ele>
  <time>2026-09-01T19:52:24Z</time>
  <course>172.83</course>
  <speed>0.0316227766016838</speed>
  <fix>3d</fix>
</trkpt>
<trkpt lat="-27.2744394" lon="151.2900656">
  <ele>399.97</ele>
  <time>2026-09-01T19:52:24Z</time>
  <course>272.39</course>
  <speed>0.01</speed>
  <fix>3d</fix>
</trkpt>
<trkpt lat="-27.2744394" lon="151.2900654">
  <ele>400.81</ele>
  <time>2026-09-01T19:52:24Z</time>
  <course>172.83</course>
  <speed>0.0316227766016838</speed>
  <fix>3d</fix>
</trkpt>
<trkpt lat="-27.2744394" lon="151.2900656">
  <ele>400.47</ele>
  <time>2026-09-01T19:52:24Z</time>
  <course>270.5</course>
  <speed>0.01</speed>
  <fix>3d</fix>
</trkpt>
<trkpt lat="-27.2744394" lon="151.2900654">
  <ele>401.06</ele>
  <time>2026-09-01T19:52:24Z</time>
  <course>172.83</course>
  <speed>0.0316227766016838</speed>
  <fix>3d</fix>
</trkpt>
<trkpt lat="-27.2744394" lon="151.2900656">
  <ele>400.47</ele>
  <time>2026-09-01T19:52:24Z</time>
  <course>270.5</course>
  <speed>0.01</speed>
  <fix>3d</fix>
</trkpt>
<trkpt lat="-27.2744394" lon="151.2900653">
  <ele>401.31</ele>
  <time>2026-09-01T19:52:24Z</time>
  <course>172.83</course>
  <speed>0.0316227766016838</speed>
  <fix>3d</fix>
</trkpt>
<trkpt lat="-27.2744394" lon="151.2900656">
  <ele>400.98</ele>
  <time>2026-09-01T19:52:24Z</time>
  <course>272.04</course>
  <speed>0.01</speed>
  <fix>3d</fix>
</trkpt>
<trkpt lat="-27.2744393" lon="151.2900653">
  <ele>401.56</ele>
  <time>2026-09-01T19:52:24Z</time>
  <course>172.82</course>
  <speed>0.0316227766016838</speed>
  <fix>3d</fix>
</trkpt>
<trkpt lat="-27.2744394" lon="151.2900656">
  <ele>400.98</ele>
  <time>2026-09-01T19:52:24Z</time>
  <course>272.04</course>
  <speed>0.01</speed>
  <fix>3d</fix>
</trkpt>
<trkpt lat="-27.2744393" lon="151.2900653">
  <ele>401.81</ele>
  <time>2026-09-01T19:52:24Z</time>
  <course>172.8</course>
  <speed>0.03605551275463989</speed>
  <fix>3d</fix>
</trkpt>
<trkpt lat="-27.2744394" lon="151.2900656">
  <ele>401.48</ele>
  <time>2026-09-01T19:52:24Z</time>
  <course>278.07</course>
  <speed>0.01</speed>
  <fix>3d</fix>
</trkpt>
<trkpt lat="-27.2744393" lon="151.2900653">
  <ele>402.06</ele>
  <time>2026-09-01T19:52:24Z</time>
  <course>172.78</course>
  <speed>0.03605551275463989</speed>
  <fix>3d</fix>
</trkpt>
<trkpt lat="-27.2744394" lon="151.2900656">
  <ele>401.48</ele>
  <time>2026-09-01T19:52:24Z</time>
  <course>278.07</course>
  <speed>0.01</speed>
  <fix>3d</fix>
</trkpt>
<trkpt lat="-27.2744393" lon="151.2900653">
  <ele>402.31</ele>
  <time>2026-09-01T19:52:24Z</time>
  <course>172.77</course>
  <speed>0.03605551275463989</speed>
  <fix>3d</fix>
</trkpt>
<trkpt lat="-27.2744394" lon="151.2900656">
  <ele>401.98</ele>
  <time>2026-09-01T19:52:24Z</time>
  <course>282.21</course>
  <speed>0.01</speed>
  <fix>3d</fix>
</trkpt>
<trkpt lat="-27.2744393" lon="151.2900653">
  <ele>402.56</ele>
  <time>2026-09-01T19:52:24Z</time>
  <course>172.75</course>
  <speed>0.03605551275463989</speed>
  <fix>3d</fix>
</trkpt>
<trkpt lat="-27.2744394" lon="151.2900656">
  <ele>401.98</ele>
  <time>2026-09-01T19:52:24Z</time>
  <course>282.21</course>
  <speed>0.01</speed>
  <fix>3d</fix>
</trkpt>
<trkpt lat="-27.2744393" lon="151.2900653">
  <ele>402.81</ele>
  <time>2026-09-01T19:52:24Z</time>
  <course>172.73</course>
  <speed>0.03605551275463989</speed>
  <fix>3d</fix>
</trkpt>
<trkpt lat="-27.2744394" lon="151.2900655">
  <ele>402.48</ele>
  <time>2026-09-01T19:52:24Z</time>
  <course>279.89</course>
  <speed>0.0</speed>
  <fix>3d</fix>
</trkpt>
<trkpt lat="-27.2744393" lon="151.2900653">
  <ele>403.05</ele>
  <time>2026-09-01T19:52:24Z</time>
  <course>172.71</course>
  <speed>0.0316227766016838</speed>
  <fix>3d</fix>
</trkpt>
<trkpt lat="-27.2744394" lon="151.2900655">
  <ele>402.48</ele>
  <time>2026-09-01T19:52:24Z</time>
  <course>279.89</course>
  <speed>0.0</speed>
  <fix>3d</fix>
</trkpt>
<trkpt lat="-27.2744393" lon="151.2900653">
  <ele>403.3</ele>
  <time>2026-09-01T19:52:24Z</time>
  <course>172.7</course>
  <speed>0.0316227766016838</speed>
  <fix>3d</fix>
</trkpt>
<trkpt lat="-27.2744394" lon="151.2900655">
  <ele>402.98</ele>
  <time>2026-09-01T19:52:24Z</time>
  <course>270.96</course>
  <speed>0.0</speed>
  <fix>3d</fix>
</trkpt>
<trkpt lat="-27.2744393" lon="151.2900653">
  <ele>403.56</ele>
  <time>2026-09-01T19:52:24Z</time>
  <course>172.7</course>
  <speed>0.0316227766016838</speed>
  <fix>3d</fix>
</trkpt>
<trkpt lat="-27.2744394" lon="151.2900655">
  <ele>402.98</ele>
  <time>2026-09-01T19:52:24Z</time>
  <course>270.96</course>
  <speed>0.0</speed>
  <fix>3d</fix>
</trkpt>
<trkpt lat="-27.2744393" lon="151.2900653">
  <ele>403.81</ele>
  <time>2026-09-01T19:52:24Z</time>
  <course>172.69</course>
  <speed>0.0316227766016838</speed>
  <fix>3d</fix>
</trkpt>
<trkpt lat="-27.2744394" lon="151.2900655">
  <ele>403.48</ele>
  <time>2026-09-01T19:52:24Z</time>
  <course>265.76</course>
  <speed>0.0</speed>
  <fix>3d</fix>
</trkpt>
<trkpt lat="-27.2744393" lon="151.2900653">
  <ele>404.06</ele>
  <time>2026-09-01T19:52:24Z</time>
  <course>172.69</course>
  <speed>0.0316227766016838</speed>
  <fix>3d</fix>
</trkpt>
<trkpt lat="-27.2744394" lon="151.2900655">
  <ele>403.48</ele>
  <time>2026-09-01T19:52:24Z</time>
  <course>265.76</course>
  <speed>0.0</speed>
  <fix>3d</fix>
</trkpt>
<trkpt lat="-27.2744393" lon="151.2900653">
  <ele>404.31</ele>
  <time>2026-09-01T19:52:24Z</time>
  <course>172.69</course>
  <speed>0.03605551275463989</speed>
  <fix>3d</fix>
</trkpt>
<trkpt lat="-27.2744394" lon="151.2900655">
  <ele>403.98</ele>
  <time>2026-09-01T19:52:24Z</time>
  <course>268.61</course>
  <speed>0.0</speed>
  <fix>3d</fix>
</trkpt>
<trkpt lat="-27.2744393" lon="151.2900653">
  <ele>404.56</ele>
  <time>2026-09-01T19:52:24Z</time>
  <course>172.69</course>
  <speed>0.03605551275463989</speed>
  <fix>3d</fix>
</trkpt>
<trkpt lat="-27.2744394" lon="151.2900655">
  <ele>403.98</ele>
  <time>2026-09-01T19:52:24Z</time>
  <course>268.61</course>
  <speed>0.0</speed>
  <fix>3d</fix>
</trkpt>
<trkpt lat="-27.2744393" lon="151.2900652">
  <ele>404.81</ele>
  <time>2026-09-01T19:52:24Z</time>
  <course>172.69</course>
  <speed>0.0316227766016838</speed>
  <fix>3d</fix>
</trkpt>
<trkpt lat="-27.2744394" lon="151.2900655">
  <ele>404.48</ele>
  <time>2026-09-01T19:52:24Z</time>
  <course>268.16</course>
  <speed>0.0</speed>
  <fix>3d</fix>
</trkpt>
<trkpt lat="-27.2744393" lon="151.2900652">
  <ele>405.06</ele>
  <time>2026-09-01T19:52:24Z</time>
  <course>172.7</course>
  <speed>0.0316227766016838</speed>
  <fix>3d</fix>
</trkpt>
<trkpt lat="-27.2744394" lon="151.2900655">
  <ele>404.48</ele>
  <time>2026-09-01T19:52:24Z</time>
  <course>268.16</course>
  <speed>0.0</speed>
  <fix>3d</fix>
</trkpt>
<trkpt lat="-27.2744393" lon="151.2900652">
  <ele>405.31</ele>
  <time>2026-09-01T19:52:24Z</time>
  <course>172.7</course>
  <speed>0.0316227766016838</speed>
  <fix>3d</fix>
</trkpt>
<trkpt lat="-27.2744394" lon="151.2900655">
  <ele>404.98</ele>
  <time>2026-09-01T19:52:24Z</time>
  <course>260.3</course>
  <speed>0.0</speed>
  <fix>3d</fix>
</trkpt>
<trkpt lat="-27.2744393" lon="151.2900652">
  <ele>405.56</ele>
  <time>2026-09-01T19:52:24Z</time>
  <course>172.7</course>
  <speed>0.0316227766016838</speed>
  <fix>3d</fix>
</trkpt>
<trkpt lat="-27.2744394" lon="151.2900655">
  <ele>404.98</ele>
  <time>2026-09-01T19:52:24Z</time>
  <course>260.3</course>
  <speed>0.0</speed>
  <fix>3d</fix>
</trkpt>
<trkpt lat="-27.2744393" lon="151.2900652">
  <ele>405.81</ele>
  <time>2026-09-01T19:52:24Z</time>
  <course>172.71</course>
  <speed>0.0316227766016838</speed>
  <fix>3d</fix>
</trkpt>
<trkpt lat="-27.2744394" lon="151.2900654">
  <ele>405.48</ele>
  <time>2026-09-01T19:52:24Z</time>
  <course>252.61</course>
  <speed>0.0</speed>
  <fix>3d</fix>
</trkpt>
<trkpt lat="-27.2744393" lon="151.2900652">
  <ele>406.06</ele>
  <time>2026-09-01T19:52:24Z</time>
  <course>172.71</course>
  <speed>0.0316227766016838</speed>
  <fix>3d</fix>
</trkpt>
<trkpt lat="-27.2744394" lon="151.2900654">
  <ele>405.48</ele>
  <time>2026-09-01T19:52:24Z</time>
  <course>252.61</course>
  <speed>0.0</speed>
  <fix>3d</fix>
</trkpt>
<trkpt lat="-27.2744393" lon="151.2900652">
  <ele>406.31</ele>
  <time>2026-09-01T19:52:24Z</time>
  <course>172.72</course>
  <speed>0.0316227766016838</speed>
  <fix>3d</fix>
</trkpt>
<trkpt lat="-27.2744394" lon="151.2900654">
  <ele>405.98</ele>
  <time>2026-09-01T19:52:24Z</time>
  <course>244.55</course>
  <speed>0.0</speed>
  <fix>3d</fix>
</trkpt>
<trkpt lat="-27.2744393" lon="151.2900652">
  <ele>406.56</ele>
  <time>2026-09-01T19:52:24Z</time>
  <course>172.73</course>
  <speed>0.0316227766016838</speed>
  <fix>3d</fix>
</trkpt>
<trkpt lat="-27.2744394" lon="151.2900654">
  <ele>405.98</ele>
  <time>2026-09-01T19:52:24Z</time>
  <course>244.55</course>
  <speed>0.0</speed>
  <fix>3d</fix>
</trkpt>
<trkpt lat="-27.2744393" lon="151.2900652">
  <ele>406.8</ele>
  <time>2026-09-01T19:52:24Z</time>
  <course>172.73</course>
  <speed>0.0316227766016838</speed>
  <fix>3d</fix>
</trkpt>
<trkpt lat="-27.2744394" lon="151.2900654">
  <ele>406.48</ele>
  <time>2026-09-01T19:52:24Z</time>
  <course>228.51</course>
  <speed>0.0</speed>
  <fix>3d</fix>
</trkpt>
<trkpt lat="-27.2744393" lon="151.2900652">
  <ele>407.05</ele>
  <time>2026-09-01T19:52:24Z</time>
  <course>172.72</course>
  <speed>0.022360679774997897</speed>
  <fix>3d</fix>
</trkpt>
<trkpt lat="-27.2744394" lon="151.2900654">
  <ele>406.48</ele>
  <time>2026-09-01T19:52:24Z</time>
  <course>228.51</course>
  <speed>0.0</speed>
  <fix>3d</fix>
</trkpt>
<trkpt lat="-27.2744393" lon="151.2900652">
  <ele>407.3</ele>
  <time>2026-09-01T19:52:24Z</time>
  <course>172.69</course>
  <speed>0.0316227766016838</speed>
  <fix>3d</fix>
</trkpt>
<trkpt lat="-27.2744394" lon="151.2900654">
  <ele>406.98</ele>
  <time>2026-09-01T19:52:24Z</time>
  <course>210.48</course>
  <speed>0.0</speed>
  <fix>3d</fix>
</trkpt>
<trkpt lat="-27.2744393" lon="151.2900652">
  <ele>407.55</ele>
  <time>2026-09-01T19:52:24Z</time>
  <course>172.67</course>
  <speed>0.0316227766016838</speed>
  <fix>3d</fix>
</trkpt>
<trkpt lat="-27.2744394" lon="151.2900654">
  <ele>406.98</ele>
  <time>2026-09-01T19:52:24Z</time>
  <course>210.48</course>
  <speed>0.0</speed>
  <fix>3d</fix>
</trkpt>
<trkpt lat="-27.2744393" lon="151.2900652">
  <ele>407.8</ele>
  <time>2026-09-01T19:52:24Z</time>
  <course>172.65</course>
  <speed>0.0316227766016838</speed>
  <fix>3d</fix>
</trkpt>
<trkpt lat="-27.2744394" lon="151.2900654">
  <ele>407.48</ele>
  <time>2026-09-01T19:52:24Z</time>
  <course>203.1</course>
  <speed>0.0</speed>
  <fix>3d</fix>
</trkpt>
<trkpt lat="-27.2744393" lon="151.2900652">
  <ele>408.05</ele>
  <time>2026-09-01T19:52:24Z</time>
  <course>172.64</course>
  <speed>0.0316227766016838</speed>
  <fix>3d</fix>
</trkpt>
<trkpt lat="-27.2744394" lon="151.2900654">
  <ele>407.48</ele>
  <time>2026-09-01T19:52:24Z</time>
  <course>203.1</course>
  <speed>0.0</speed>
  <fix>3d</fix>
</trkpt>
<trkpt lat="-27.2744393" lon="151.2900652">
  <ele>408.3</ele>
  <time>2026-09-01T19:52:24Z</time>
  <course>172.64</course>
  <speed>0.0316227766016838</speed>
  <fix>3d</fix>
</trkpt>
<trkpt lat="-27.2744394" lon="151.2900654">
  <ele>407.98</ele>
  <time>2026-09-01T19:52:24Z</time>
  <course>203.37</course>
  <speed>0.01</speed>
  <fix>3d</fix>
</trkpt>
<trkpt lat="-27.2744393" lon="151.2900652">
  <ele>408.56</ele>
  <time>2026-09-01T19:52:24Z</time>
  <course>172.64</course>
  <speed>0.0316227766016838</speed>
  <fix>3d</fix>
</trkpt>
<trkpt lat="-27.2744394" lon="151.2900654">
  <ele>407.98</ele>
  <time>2026-09-01T19:52:24Z</time>
  <course>203.37</course>
  <speed>0.01</speed>
  <fix>3d</fix>
</trkpt>
<trkpt lat="-27.2744393" lon="151.2900652">
  <ele>408.81</ele>
  <time>2026-09-01T19:52:24Z</time>
  <course>172.63</course>
  <speed>0.0316227766016838</speed>
  <fix>3d</fix>
</trkpt>
<trkpt lat="-27.2744394" lon="151.2900654">
  <ele>408.48</ele>
  <time>2026-09-01T19:52:24Z</time>
  <course>203.63</course>
  <speed>0.01</speed>
  <fix>3d</fix>
</trkpt>
<trkpt lat="-27.2744393" lon="151.2900652">
  <ele>409.06</ele>
  <time>2026-09-01T19:52:24Z</time>
  <course>172.64</course>
  <speed>0.0316227766016838</speed>
  <fix>3d</fix>
</trkpt>
<trkpt lat="-27.2744394" lon="151.2900654">
  <ele>408.48</ele>
  <time>2026-09-01T19:52:24Z</time>
  <course>203.63</course>
  <speed>0.01</speed>
  <fix>3d</fix>
</trkpt>
<trkpt lat="-27.2744393" lon="151.2900652">
  <ele>409.31</ele>
  <time>2026-09-01T19:52:24Z</time>
  <course>172.65</course>
  <speed>0.022360679774997897</speed>
  <fix>3d</fix>
</trkpt>
<trkpt lat="-27.2744394" lon="151.2900654">
  <ele>408.98</ele>
  <time>2026-09-01T19:52:24Z</time>
  <course>197.35</course>
  <speed>0.01</speed>
  <fix>3d</fix>
</trkpt>
<trkpt lat="-27.2744393" lon="151.2900652">
  <ele>409.56</ele>
  <time>2026-09-01T19:52:24Z</time>
  <course>172.66</course>
  <speed>0.022360679774997897</speed>
  <fix>3d</fix>
</trkpt>
<trkpt lat="-27.2744394" lon="151.2900654">
  <ele>408.98</ele>
  <time>2026-09-01T19:52:24Z</time>
  <course>197.35</course>
  <speed>0.01</speed>
  <fix>3d</fix>
</trkpt>
<trkpt lat="-27.2744393" lon="151.2900652">
  <ele>409.81</ele>
  <time>2026-09-01T19:52:24Z</time>
  <course>172.67</course>
  <speed>0.022360679774997897</speed>
  <fix>3d</fix>
</trkpt>
<trkpt lat="-27.2744394" lon="151.2900654">
  <ele>409.49</ele>
  <time>2026-09-01T19:52:24Z</time>
  <course>188.1</course>
  <speed>0.01</speed>
  <fix>3d</fix>
</trkpt>
<trkpt lat="-27.2744393" lon="151.2900652">
  <ele>410.07</ele>
  <time>2026-09-01T19:52:24Z</time>
  <course>172.67</course>
  <speed>0.022360679774997897</speed>
  <fix>3d</fix>
</trkpt>
<trkpt lat="-27.2744394" lon="151.2900654">
  <ele>409.49</ele>
  <time>2026-09-01T19:52:24Z</time>
  <course>188.1</course>
  <speed>0.01</speed>
  <fix>3d</fix>
</trkpt>
<trkpt lat="-27.2744393" lon="151.2900652">
  <ele>410.32</ele>
  <time>2026-09-01T19:52:24Z</time>
  <course>172.66</course>
  <speed>0.022360679774997897</speed>
  <fix>3d</fix>
</trkpt>
<trkpt lat="-27.2744395" lon="151.2900654">
  <ele>409.99</ele>
  <time>2026-09-01T19:52:24Z</time>
  <course>183.66</course>
  <speed>0.01</speed>
  <fix>3d</fix>
</trkpt>
<trkpt lat="-27.2744393" lon="151.2900652">
  <ele>410.57</ele>
  <time>2026-09-01T19:52:24Z</time>
  <course>172.64</course>
  <speed>0.022360679774997897</speed>
  <fix>3d</fix>
</trkpt>
<trkpt lat="-27.2744395" lon="151.2900654">
  <ele>409.99</ele>
  <time>2026-09-01T19:52:24Z</time>
  <course>183.66</course>
  <speed>0.01</speed>
  <fix>3d</fix>
</trkpt>
<trkpt lat="-27.2744393" lon="151.2900652">
  <ele>410.82</ele>
  <time>2026-09-01T19:52:24Z</time>
  <course>172.63</course>
  <speed>0.022360679774997897</speed>
  <fix>3d</fix>
</trkpt>
<trkpt lat="-27.2744395" lon="151.2900654">
  <ele>410.49</ele>
  <time>2026-09-01T19:52:24Z</time>
  <course>184.1</course>
  <speed>0.01</speed>
  <fix>3d</fix>
</trkpt>
<trkpt lat="-27.2744393" lon="151.2900652">
  <ele>411.08</ele>
  <time>2026-09-01T19:52:24Z</time>
  <course>172.62</course>
  <speed>0.022360679774997897</speed>
  <fix>3d</fix>
</trkpt>
<trkpt lat="-27.2744395" lon="151.2900654">
  <ele>410.49</ele>
  <time>2026-09-01T19:52:24Z</time>
  <course>184.1</course>
  <speed>0.01</speed>
  <fix>3d</fix>
</trkpt>
<trkpt lat="-27.2744393" lon="151.2900652">
  <ele>411.33</ele>
  <time>2026-09-01T19:52:24Z</time>
  <course>172.6</course>
  <speed>0.022360679774997897</speed>
  <fix>3d</fix>
</trkpt>
<trkpt lat="-27.2744395" lon="151.2900654">
  <ele>410.99</ele>
  <time>2026-09-01T19:52:24Z</time>
  <course>185.66</course>
  <speed>0.01</speed>
  <fix>3d</fix>
</trkpt>
<trkpt lat="-27.2744393" lon="151.2900652">
  <ele>411.57</ele>
  <time>2026-09-01T19:52:24Z</time>
  <course>172.59</course>
  <speed>0.022360679774997897</speed>
  <fix>3d</fix>
</trkpt>
<trkpt lat="-27.2744395" lon="151.2900654">
  <ele>410.99</ele>
  <time>2026-09-01T19:52:24Z</time>
  <course>185.66</course>
  <speed>0.01</speed>
  <fix>3d</fix>
</trkpt>
<trkpt lat="-27.2744393" lon="151.2900652">
  <ele>411.82</ele>
  <time>2026-09-01T19:52:24Z</time>
  <course>172.59</course>
  <speed>0.022360679774997897</speed>
  <fix>3d</fix>
</trkpt>
<trkpt lat="-27.2744395" lon="151.2900654">
  <ele>411.49</ele>
  <time>2026-09-01T19:52:24Z</time>
  <course>183.33</course>
  <speed>0.01</speed>
  <fix>3d</fix>
</trkpt>
<trkpt lat="-27.2744393" lon="151.2900652">
  <ele>412.07</ele>
  <time>2026-09-01T19:52:24Z</time>
  <course>172.59</course>
  <speed>0.022360679774997897</speed>
  <fix>3d</fix>
</trkpt>
<trkpt lat="-27.2744395" lon="151.2900654">
  <ele>411.49</ele>
  <time>2026-09-01T19:52:24Z</time>
  <course>183.33</course>
  <speed>0.01</speed>
  <fix>3d</fix>
</trkpt>
<trkpt lat="-27.2744393" lon="151.2900652">
  <ele>412.32</ele>
  <time>2026-09-01T19:52:24Z</time>
  <course>172.59</course>
  <speed>0.022360679774997897</speed>
  <fix>3d</fix>
</trkpt>
<trkpt lat="-27.2744395" lon="151.2900654">
  <ele>411.98</ele>
  <time>2026-09-01T19:52:24Z</time>
  <course>178.31</course>
  <speed>0.0</speed>
  <fix>3d</fix>
</trkpt>
<trkpt lat="-27.2744393" lon="151.2900652">
  <ele>412.56</ele>
  <time>2026-09-01T19:52:24Z</time>
  <course>172.59</course>
  <speed>0.022360679774997897</speed>
  <fix>3d</fix>
</trkpt>
<trkpt lat="-27.2744395" lon="151.2900654">
  <ele>411.98</ele>
  <time>2026-09-01T19:52:24Z</time>
  <course>178.31</course>
  <speed>0.0</speed>
  <fix>3d</fix>
</trkpt>
<trkpt lat="-27.2744393" lon="151.2900652">
  <ele>412.81</ele>
  <time>2026-09-01T19:52:24Z</time>
  <course>172.6</course>
  <speed>0.022360679774997897</speed>
  <fix>3d</fix>
</trkpt>
<trkpt lat="-27.2744396" lon="151.2900654">
  <ele>412.48</ele>
  <time>2026-09-01T19:52:24Z</time>
  <course>174.26</course>
  <speed>0.0</speed>
  <fix>3d</fix>
</trkpt>
<trkpt lat="-27.2744394" lon="151.2900652">
  <ele>413.06</ele>
  <time>2026-09-01T19:52:24Z</time>
  <course>172.6</course>
  <speed>0.022360679774997897</speed>
  <fix>3d</fix>
</trkpt>
<trkpt lat="-27.2744396" lon="151.2900654">
  <ele>412.48</ele>
  <time>2026-09-01T19:52:24Z</time>
  <course>174.26</course>
  <speed>0.0</speed>
  <fix>3d</fix>
</trkpt>
<trkpt lat="-27.2744394" lon="151.2900652">
  <ele>413.31</ele>
  <time>2026-09-01T19:52:24Z</time>
  <course>172.61</course>
  <speed>0.022360679774997897</speed>
  <fix>3d</fix>
</trkpt>
<trkpt lat="-27.2744396" lon="151.2900654">
  <ele>412.98</ele>
  <time>2026-09-01T19:52:24Z</time>
  <course>169.8</course>
  <speed>0.0</speed>
  <fix>3d</fix>
</trkpt>
<trkpt lat="-27.2744394" lon="151.2900652">
  <ele>413.56</ele>
  <time>2026-09-01T19:52:24Z</time>
  <course>172.6</course>
  <speed>0.022360679774997897</speed>
  <fix>3d</fix>
</trkpt>
<trkpt lat="-27.2744396" lon="151.2900654">
  <ele>412.98</ele>
  <time>2026-09-01T19:52:24Z</time>
  <course>169.8</course>
  <speed>0.0</speed>
  <fix>3d</fix>
</trkpt>
<trkpt lat="-27.2744394" lon="151.2900652">
  <ele>413.8</ele>
  <time>2026-09-01T19:52:24Z</time>
  <course>172.58</course>
  <speed>0.022360679774997897</speed>
  <fix>3d</fix>
</trkpt>
<trkpt lat="-27.2744396" lon="151.2900654">
  <ele>413.48</ele>
  <time>2026-09-01T19:52:24Z</time>
  <course>165.85</course>
  <speed>0.0</speed>
  <fix>3d</fix>
</trkpt>
<trkpt lat="-27.2744394" lon="151.2900652">
  <ele>414.05</ele>
  <time>2026-09-01T19:52:24Z</time>
  <course>172.57</course>
  <speed>0.022360679774997897</speed>
  <fix>3d</fix>
</trkpt>
<trkpt lat="-27.2744396" lon="151.2900654">
  <ele>413.48</ele>
  <time>2026-09-01T19:52:24Z</time>
  <course>165.85</course>
  <speed>0.0</speed>
  <fix>3d</fix>
</trkpt>
<trkpt lat="-27.2744394" lon="151.2900652">
  <ele>414.3</ele>
  <time>2026-09-01T19:52:24Z</time>
  <course>172.55</course>
  <speed>0.022360679774997897</speed>
  <fix>3d</fix>
</trkpt>
<trkpt lat="-27.2744396" lon="151.2900654">
  <ele>413.98</ele>
  <time>2026-09-01T19:52:24Z</time>
  <course>169.42</course>
  <speed>0.0</speed>
  <fix>3d</fix>
</trkpt>
<trkpt lat="-27.2744394" lon="151.2900652">
  <ele>414.55</ele>
  <time>2026-09-01T19:52:24Z</time>
  <course>172.53</course>
  <speed>0.022360679774997897</speed>
  <fix>3d</fix>
</trkpt>
<trkpt lat="-27.2744396" lon="151.2900654">
  <ele>413.98</ele>
  <time>2026-09-01T19:52:24Z</time>
  <course>169.42</course>
  <speed>0.0</speed>
  <fix>3d</fix>
</trkpt>
<trkpt lat="-27.2744394" lon="151.2900652">
  <ele>414.8</ele>
  <time>2026-09-01T19:52:24Z</time>
  <course>172.53</course>
  <speed>0.022360679774997897</speed>
  <fix>3d</fix>
</trkpt>
<trkpt lat="-27.2744396" lon="151.2900654">
  <ele>414.48</ele>
  <time>2026-09-01T19:52:24Z</time>
  <course>177.28</course>
  <speed>0.0</speed>
  <fix>3d</fix>
</trkpt>
<trkpt lat="-27.2744394" lon="151.2900652">
  <ele>415.06</ele>
  <time>2026-09-01T19:52:24Z</time>
  <course>172.53</course>
  <speed>0.022360679774997897</speed>
  <fix>3d</fix>
</trkpt>
<trkpt lat="-27.2744396" lon="151.2900654">
  <ele>414.48</ele>
  <time>2026-09-01T19:52:24Z</time>
  <course>177.28</course>
  <speed>0.0</speed>
  <fix>3d</fix>
</trkpt>
<trkpt lat="-27.2744394" lon="151.2900652">
  <ele>415.31</ele>
  <time>2026-09-01T19:52:24Z</time>
  <course>172.53</course>
  <speed>0.022360679774997897</speed>
  <fix>3d</fix>
</trkpt>
<trkpt lat="-27.2744396" lon="151.2900654">
  <ele>414.98</ele>
  <time>2026-09-01T19:52:24Z</time>
  <course>180.43</course>
  <speed>0.0</speed>
  <fix>3d</fix>
</trkpt>
<trkpt lat="-27.2744394" lon="151.2900652">
  <ele>415.56</ele>
  <time>2026-09-01T19:52:24Z</time>
  <course>172.54</course>
  <speed>0.022360679774997897</speed>
  <fix>3d</fix>
</trkpt>
<trkpt lat="-27.2744396" lon="151.2900654">
  <ele>414.98</ele>
  <time>2026-09-01T19:52:24Z</time>
  <course>180.43</course>
  <speed>0.0</speed>
  <fix>3d</fix>
</trkpt>
<trkpt lat="-27.2744394" lon="151.2900652">
  <ele>415.81</ele>
  <time>2026-09-01T19:52:24Z</time>
  <course>172.55</course>
  <speed>0.022360679774997897</speed>
  <fix>3d</fix>
</trkpt>
<trkpt lat="-27.2744396" lon="151.2900654">
  <ele>415.48</ele>
  <time>2026-09-01T19:52:24Z</time>
  <course>166.8</course>
  <speed>0.0</speed>
  <fix>3d</fix>
</trkpt>
<trkpt lat="-27.2744394" lon="151.2900652">
  <ele>416.06</ele>
  <time>2026-09-01T19:52:24Z</time>
  <course>172.58</course>
  <speed>0.022360679774997897</speed>
  <fix>3d</fix>
</trkpt>
<trkpt lat="-27.2744396" lon="151.2900654">
  <ele>415.48</ele>
  <time>2026-09-01T19:52:24Z</time>
  <course>166.8</course>
  <speed>0.0</speed>
  <fix>3d</fix>
</trkpt>
<trkpt lat="-27.2744394" lon="151.2900652">
  <ele>416.32</ele>
  <time>2026-09-01T19:52:24Z</time>
  <course>172.58</course>
  <speed>0.022360679774997897</speed>
  <fix>3d</fix>
</trkpt>
<trkpt lat="-27.2744396" lon="151.2900654">
  <ele>415.98</ele>
  <time>2026-09-01T19:52:24Z</time>
  <course>150.17</course>
  <speed>0.0</speed>
  <fix>3d</fix>
</trkpt>
<trkpt lat="-27.2744394" lon="151.2900652">
  <ele>416.57</ele>
  <time>2026-09-01T19:52:24Z</time>
  <course>172.58</course>
  <speed>0.022360679774997897</speed>
  <fix>3d</fix>
</trkpt>
<trkpt lat="-27.2744396" lon="151.2900654">
  <ele>415.98</ele>
  <time>2026-09-01T19:52:24Z</time>
  <course>150.17</course>
  <speed>0.0</speed>
  <fix>3d</fix>
</trkpt>
<trkpt lat="-27.2744394" lon="151.2900652">
  <ele>416.82</ele>
  <time>2026-09-01T19:52:24Z</time>
  <course>172.57</course>
  <speed>0.022360679774997897</speed>
  <fix>3d</fix>
</trkpt>
<trkpt lat="-27.2744396" lon="151.2900654">
  <ele>416.48</ele>
  <time>2026-09-01T19:52:24Z</time>
  <course>148.66</course>
  <speed>0.0</speed>
  <fix>3d</fix>
</trkpt>
<trkpt lat="-27.2744394" lon="151.2900652">
  <ele>417.07</ele>
  <time>2026-09-01T19:52:24Z</time>
  <course>172.57</course>
  <speed>0.022360679774997897</speed>
  <fix>3d</fix>
</trkpt>
<trkpt lat="-27.2744396" lon="151.2900654">
  <ele>416.48</ele>
  <time>2026-09-01T19:52:24Z</time>
  <course>148.66</course>
  <speed>0.0</speed>
  <fix>3d</fix>
</trkpt>
<trkpt lat="-27.2744394" lon="151.2900652">
  <ele>417.32</ele>
  <time>2026-09-01T19:52:24Z</time>
  <course>172.56</course>
  <speed>0.022360679774997897</speed>
  <fix>3d</fix>
</trkpt>
<trkpt lat="-27.2744397" lon="151.2900654">
  <ele>416.98</ele>
  <time>2026-09-01T19:52:24Z</time>
  <course>152.61</course>
  <speed>0.0</speed>
  <fix>3d</fix>
</trkpt>
<trkpt lat="-27.2744394" lon="151.2900652">
  <ele>417.57</ele>
  <time>2026-09-01T19:52:24Z</time>
  <course>172.56</course>
  <speed>0.022360679774997897</speed>
  <fix>3d</fix>
</trkpt>
<trkpt lat="-27.2744397" lon="151.2900654">
  <ele>416.98</ele>
  <time>2026-09-01T19:52:24Z</time>
  <course>152.61</course>
  <speed>0.0</speed>
  <fix>3d</fix>
</trkpt>
<trkpt lat="-27.2744394" lon="151.2900652">
  <ele>417.82</ele>
  <time>2026-09-01T19:52:24Z</time>
  <course>172.56</course>
  <speed>0.022360679774997897</speed>
  <fix>3d</fix>
</trkpt>
<trkpt lat="-27.2744397" lon="151.2900654">
  <ele>417.48</ele>
  <time>2026-09-01T19:52:24Z</time>
  <course>157.93</course>
  <speed>0.0</speed>
  <fix>3d</fix>
</trkpt>
<trkpt lat="-27.2744394" lon="151.2900652">
  <ele>418.07</ele>
  <time>2026-09-01T19:52:24Z</time>
  <course>172.56</course>
  <speed>0.022360679774997897</speed>
  <fix>3d</fix>
</trkpt>
<trkpt lat="-27.2744397" lon="151.2900654">
  <ele>417.48</ele>
  <time>2026-09-01T19:52:24Z</time>
  <course>157.93</course>
  <speed>0.0</speed>
  <fix>3d</fix>
</trkpt>
<trkpt lat="-27.2744394" lon="151.2900652">
  <ele>418.32</ele>
  <time>2026-09-01T19:52:24Z</time>
  <course>172.56</course>
  <speed>0.0282842712474619</speed>
  <fix>3d</fix>
</trkpt>
<trkpt lat="-27.2744397" lon="151.2900654">
  <ele>417.98</ele>
  <time>2026-09-01T19:52:24Z</time>
  <course>162.29</course>
  <speed>0.0</speed>
  <fix>3d</fix>
</trkpt>
<trkpt lat="-27.2744394" lon="151.2900652">
  <ele>418.57</ele>
  <time>2026-09-01T19:52:24Z</time>
  <course>172.56</course>
  <speed>0.0282842712474619</speed>
  <fix>3d</fix>
</trkpt>
<trkpt lat="-27.2744397" lon="151.2900654">
  <ele>417.98</ele>
  <time>2026-09-01T19:52:24Z</time>
  <course>162.29</course>
  <speed>0.0</speed>
  <fix>3d</fix>
</trkpt>
<trkpt lat="-27.2744394" lon="151.2900652">
  <ele>418.82</ele>
  <time>2026-09-01T19:52:24Z</time>
  <course>172.57</course>
  <speed>0.0282842712474619</speed>
  <fix>3d</fix>
</trkpt>
<trkpt lat="-27.2744397" lon="151.2900654">
  <ele>418.48</ele>
  <time>2026-09-01T19:52:24Z</time>
  <course>43.79</course>
  <speed>0.0</speed>
  <fix>3d</fix>
</trkpt>
<trkpt lat="-27.2744394" lon="151.2900652">
  <ele>419.07</ele>
  <time>2026-09-01T19:52:24Z</time>
  <course>172.57</course>
  <speed>0.0282842712474619</speed>
  <fix>3d</fix>
</trkpt>
<trkpt lat="-27.2744397" lon="151.2900654">
  <ele>418.48</ele>
  <time>2026-09-01T19:52:24Z</time>
  <course>43.79</course>
  <speed>0.0</speed>
  <fix>3d</fix>
</trkpt>
<trkpt lat="-27.2744394" lon="151.2900652">
  <ele>419.32</ele>
  <time>2026-09-01T19:52:24Z</time>
  <course>172.58</course>
  <speed>0.0282842712474619</speed>
  <fix>3d</fix>
</trkpt>
<trkpt lat="-27.2744397" lon="151.2900654">
  <ele>418.98</ele>
  <time>2026-09-01T19:52:24Z</time>
  <course>27.01</course>
  <speed>0.0</speed>
  <fix>3d</fix>
</trkpt>
<trkpt lat="-27.2744394" lon="151.2900652">
  <ele>419.57</ele>
  <time>2026-09-01T19:52:24Z</time>
  <course>172.58</course>
  <speed>0.0282842712474619</speed>
  <fix>3d</fix>
</trkpt>
<trkpt lat="-27.2744397" lon="151.2900654">
  <ele>418.98</ele>
  <time>2026-09-01T19:52:24Z</time>
  <course>27.01</course>
  <speed>0.0</speed>
  <fix>3d</fix>
</trkpt>
<trkpt lat="-27.2744394" lon="151.2900652">
  <ele>419.82</ele>
  <time>2026-09-01T19:52:24Z</time>
  <course>172.58</course>
  <speed>0.0282842712474619</speed>
  <fix>3d</fix>
</trkpt>
<trkpt lat="-27.2744397" lon="151.2900654">
  <ele>419.48</ele>
  <time>2026-09-01T19:52:24Z</time>
  <course>29.67</course>
  <speed>0.0</speed>
  <fix>3d</fix>
</trkpt>
<trkpt lat="-27.2744394" lon="151.2900652">
  <ele>420.07</ele>
  <time>2026-09-01T19:52:24Z</time>
  <course>172.58</course>
  <speed>0.0282842712474619</speed>
  <fix>3d</fix>
</trkpt>
<trkpt lat="-27.2744397" lon="151.2900654">
  <ele>419.48</ele>
  <time>2026-09-01T19:52:24Z</time>
  <course>29.67</course>
  <speed>0.0</speed>
  <fix>3d</fix>
</trkpt>
<trkpt lat="-27.2744394" lon="151.2900652">
  <ele>420.32</ele>
  <time>2026-09-01T19:52:25Z</time>
  <course>172.58</course>
  <speed>0.0282842712474619</speed>
  <fix>3d</fix>
</trkpt>
<trkpt lat="-27.2744397" lon="151.2900654">
  <ele>419.98</ele>
  <time>2026-09-01T19:52:25Z</time>
  <course>33.29</course>
  <speed>0.0</speed>
  <fix>3d</fix>
</trkpt>
<trkpt lat="-27.2744395" lon="151.2900652">
  <ele>420.58</ele>
  <time>2026-09-01T19:52:25Z</time>
  <course>172.58</course>
  <speed>0.0282842712474619</speed>
  <fix>3d</fix>
</trkpt>
<trkpt lat="-27.2744397" lon="151.2900654">
  <ele>419.98</ele>
  <time>2026-09-01T19:52:25Z</time>
  <course>33.29</course>
  <speed>0.0</speed>
  <fix>3d</fix>
</trkpt>
<trkpt lat="-27.2744395" lon="151.2900652">
  <ele>420.83</ele>
  <time>2026-09-01T19:52:25Z</time>
  <course>172.58</course>
  <speed>0.0282842712474619</speed>
  <fix>3d</fix>
</trkpt>
<trkpt lat="-27.2744397" lon="151.2900654">
  <ele>420.48</ele>
  <time>2026-09-01T19:52:25Z</time>
  <course>35.62</course>
  <speed>0.0</speed>
  <fix>3d</fix>
</trkpt>
<trkpt lat="-27.2744395" lon="151.2900652">
  <ele>421.08</ele>
  <time>2026-09-01T19:52:25Z</time>
  <course>172.57</course>
  <speed>0.0282842712474619</speed>
  <fix>3d</fix>
</trkpt>
<trkpt lat="-27.2744397" lon="151.2900654">
  <ele>420.48</ele>
  <time>2026-09-01T19:52:25Z</time>
  <course>35.62</course>
  <speed>0.0</speed>
  <fix>3d</fix>
</trkpt>
<trkpt lat="-27.2744395" lon="151.2900652">
  <ele>421.33</ele>
  <time>2026-09-01T19:52:25Z</time>
  <course>172.57</course>
  <speed>0.0282842712474619</speed>
  <fix>3d</fix>
</trkpt>
<trkpt lat="-27.2744397" lon="151.2900654">
  <ele>420.97</ele>
  <time>2026-09-01T19:52:25Z</time>
  <course>34.8</course>
  <speed>0.0</speed>
  <fix>3d</fix>
</trkpt>
<trkpt lat="-27.2744395" lon="151.2900652">
  <ele>421.58</ele>
  <time>2026-09-01T19:52:25Z</time>
  <course>172.57</course>
  <speed>0.0282842712474619</speed>
  <fix>3d</fix>
</trkpt>
<trkpt lat="-27.2744397" lon="151.2900654">
  <ele>420.97</ele>
  <time>2026-09-01T19:52:25Z</time>
  <course>34.8</course>
  <speed>0.0</speed>
  <fix>3d</fix>
</trkpt>
<trkpt lat="-27.2744395" lon="151.2900652">
  <ele>421.83</ele>
  <time>2026-09-01T19:52:25Z</time>
  <course>172.57</course>
  <speed>0.0282842712474619</speed>
  <fix>3d</fix>
</trkpt>
<trkpt lat="-27.2744397" lon="151.2900654">
  <ele>421.47</ele>
  <time>2026-09-01T19:52:25Z</time>
  <course>31.62</course>
  <speed>0.0</speed>
  <fix>3d</fix>
</trkpt>
<trkpt lat="-27.2744395" lon="151.2900652">
  <ele>422.08</ele>
  <time>2026-09-01T19:52:25Z</time>
  <course>172.57</course>
  <speed>0.0282842712474619</speed>
  <fix>3d</fix>
</trkpt>
<trkpt lat="-27.2744397" lon="151.2900654">
  <ele>421.47</ele>
  <time>2026-09-01T19:52:25Z</time>
  <course>31.62</course>
  <speed>0.0</speed>
  <fix>3d</fix>
</trkpt>
<trkpt lat="-27.2744395" lon="151.2900652">
  <ele>422.33</ele>
  <time>2026-09-01T19:52:25Z</time>
  <course>172.58</course>
  <speed>0.0282842712474619</speed>
  <fix>3d</fix>
</trkpt>
<trkpt lat="-27.2744397" lon="151.2900654">
  <ele>421.97</ele>
  <time>2026-09-01T19:52:25Z</time>
  <course>27.67</course>
  <speed>0.0</speed>
  <fix>3d</fix>
</trkpt>
<trkpt lat="-27.2744395" lon="151.2900652">
  <ele>422.58</ele>
  <time>2026-09-01T19:52:25Z</time>
  <course>172.57</course>
  <speed>0.0282842712474619</speed>
  <fix>3d</fix>
</trkpt>
<trkpt lat="-27.2744397" lon="151.2900654">
  <ele>421.97</ele>
  <time>2026-09-01T19:52:25Z</time>
  <course>27.67</course>
  <speed>0.0</speed>
  <fix>3d</fix>
</trkpt>
<trkpt lat="-27.2744395" lon="151.2900652">
  <ele>422.83</ele>
  <time>2026-09-01T19:52:25Z</time>
  <course>172.56</course>
  <speed>0.0282842712474619</speed>
  <fix>3d</fix>
</trkpt>
<trkpt lat="-27.2744397" lon="151.2900654">
  <ele>422.46</ele>
  <time>2026-09-01T19:52:25Z</time>
  <course>25.77</course>
  <speed>0.0</speed>
  <fix>3d</fix>
</trkpt>
<trkpt lat="-27.2744395" lon="151.2900652">
  <ele>423.08</ele>
  <time>2026-09-01T19:52:25Z</time>
  <course>172.55</course>
  <speed>0.0282842712474619</speed>
  <fix>3d</fix>
</trkpt>
<trkpt lat="-27.2744397" lon="151.2900654">
  <ele>422.46</ele>
  <time>2026-09-01T19:52:25Z</time>
  <course>25.77</course>
  <speed>0.0</speed>
  <fix>3d</fix>
</trkpt>
<trkpt lat="-27.2744395" lon="151.2900652">
  <ele>423.33</ele>
  <time>2026-09-01T19:52:25Z</time>
  <course>172.53</course>
  <speed>0.0282842712474619</speed>
  <fix>3d</fix>
</trkpt>
<trkpt lat="-27.2744397" lon="151.2900654">
  <ele>422.96</ele>
  <time>2026-09-01T19:52:25Z</time>
  <course>23.08</course>
  <speed>0.0</speed>
  <fix>3d</fix>
</trkpt>
<trkpt lat="-27.2744395" lon="151.2900652">
  <ele>423.57</ele>
  <time>2026-09-01T19:52:25Z</time>
  <course>172.51</course>
  <speed>0.0282842712474619</speed>
  <fix>3d</fix>
</trkpt>
<trkpt lat="-27.2744397" lon="151.2900654">
  <ele>422.96</ele>
  <time>2026-09-01T19:52:25Z</time>
  <course>23.08</course>
  <speed>0.0</speed>
  <fix>3d</fix>
</trkpt>
<trkpt lat="-27.2744395" lon="151.2900652">
  <ele>423.82</ele>
  <time>2026-09-01T19:52:25Z</time>
  <course>172.5</course>
  <speed>0.0282842712474619</speed>
  <fix>3d</fix>
</trkpt>
<trkpt lat="-27.2744397" lon="151.2900654">
  <ele>423.45</ele>
  <time>2026-09-01T19:52:25Z</time>
  <course>17.84</course>
  <speed>0.01</speed>
  <fix>3d</fix>
</trkpt>
<trkpt lat="-27.2744395" lon="151.2900652">
  <ele>424.06</ele>
  <time>2026-09-01T19:52:25Z</time>
  <course>172.49</course>
  <speed>0.0282842712474619</speed>
  <fix>3d</fix>
</trkpt>
<trkpt lat="-27.2744397" lon="151.2900654">
  <ele>423.45</ele>
  <time>2026-09-01T19:52:25Z</time>
  <course>17.84</course>
  <speed>0.01</speed>
  <fix>3d</fix>
</trkpt>
<trkpt lat="-27.2744395" lon="151.2900652">
  <ele>424.31</ele>
  <time>2026-09-01T19:52:25Z</time>
  <course>172.5</course>
  <speed>0.0282842712474619</speed>
  <fix>3d</fix>
</trkpt>
<trkpt lat="-27.2744396" lon="151.2900654">
  <ele>423.95</ele>
  <time>2026-09-01T19:52:25Z</time>
  <course>13.66</course>
  <speed>0.01</speed>
  <fix>3d</fix>
</trkpt>
<trkpt lat="-27.2744395" lon="151.2900652">
  <ele>424.56</ele>
  <time>2026-09-01T19:52:25Z</time>
  <course>172.51</course>
  <speed>0.0282842712474619</speed>
  <fix>3d</fix>
</trkpt>
<trkpt lat="-27.2744396" lon="151.2900654">
  <ele>423.95</ele>
  <time>2026-09-01T19:52:25Z</time>
  <course>13.66</course>
  <speed>0.01</speed>
  <fix>3d</fix>
</trkpt>
<trkpt lat="-27.2744395" lon="151.2900652">
  <ele>424.81</ele>
  <time>2026-09-01T19:52:25Z</time>
  <course>172.53</course>
  <speed>0.0282842712474619</speed>
  <fix>3d</fix>
</trkpt>
<trkpt lat="-27.2744396" lon="151.2900654">
  <ele>424.45</ele>
  <time>2026-09-01T19:52:25Z</time>
  <course>12.23</course>
  <speed>0.01</speed>
  <fix>3d</fix>
</trkpt>
<trkpt lat="-27.2744395" lon="151.2900652">
  <ele>425.06</ele>
  <time>2026-09-01T19:52:25Z</time>
  <course>172.53</course>
  <speed>0.0282842712474619</speed>
  <fix>3d</fix>
</trkpt>
<trkpt lat="-27.2744396" lon="151.2900654">
  <ele>424.45</ele>
  <time>2026-09-01T19:52:25Z</time>
  <course>12.23</course>
  <speed>0.01</speed>
  <fix>3d</fix>
</trkpt>
<trkpt lat="-27.2744395" lon="151.2900652">
  <ele>425.3</ele>
  <time>2026-09-01T19:52:25Z</time>
  <course>172.54</course>
  <speed>0.0282842712474619</speed>
  <fix>3d</fix>
</trkpt>
<trkpt lat="-27.2744396" lon="151.2900654">
  <ele>424.95</ele>
  <time>2026-09-01T19:52:25Z</time>
  <course>15.01</course>
  <speed>0.01</speed>
  <fix>3d</fix>
</trkpt>
<trkpt lat="-27.2744395" lon="151.2900652">
  <ele>425.56</ele>
  <time>2026-09-01T19:52:25Z</time>
  <course>172.54</course>
  <speed>0.0282842712474619</speed>
  <fix>3d</fix>
</trkpt>
<trkpt lat="-27.2744396" lon="151.2900654">
  <ele>424.95</ele>
  <time>2026-09-01T19:52:25Z</time>
  <course>15.01</course>
  <speed>0.01</speed>
  <fix>3d</fix>
</trkpt>
<trkpt lat="-27.2744395" lon="151.2900652">
  <ele>425.81</ele>
  <time>2026-09-01T19:52:25Z</time>
  <course>172.54</course>
  <speed>0.0282842712474619</speed>
  <fix>3d</fix>
</trkpt>
<trkpt lat="-27.2744396" lon="151.2900654">
  <ele>425.45</ele>
  <time>2026-09-01T19:52:25Z</time>
  <course>22.07</course>
  <speed>0.0</speed>
  <fix>3d</fix>
</trkpt>
<trkpt lat="-27.2744395" lon="151.2900652">
  <ele>426.05</ele>
  <time>2026-09-01T19:52:25Z</time>
  <course>172.54</course>
  <speed>0.0282842712474619</speed>
  <fix>3d</fix>
</trkpt>
<trkpt lat="-27.2744396" lon="151.2900654">
  <ele>425.45</ele>
  <time>2026-09-01T19:52:25Z</time>
  <course>22.07</course>
  <speed>0.0</speed>
  <fix>3d</fix>
</trkpt>
<trkpt lat="-27.2744395" lon="151.2900652">
  <ele>426.3</ele>
  <time>2026-09-01T19:52:25Z</time>
  <course>172.53</course>
  <speed>0.0282842712474619</speed>
  <fix>3d</fix>
</trkpt>
<trkpt lat="-27.2744396" lon="151.2900654">
  <ele>425.95</ele>
  <time>2026-09-01T19:52:25Z</time>
  <course>29.28</course>
  <speed>0.0</speed>
  <fix>3d</fix>
</trkpt>
<trkpt lat="-27.2744395" lon="151.2900652">
  <ele>426.55</ele>
  <time>2026-09-01T19:52:25Z</time>
  <course>172.51</course>
  <speed>0.0282842712474619</speed>
  <fix>3d</fix>
</trkpt>
<trkpt lat="-27.2744396" lon="151.2900654">
  <ele>425.95</ele>
  <time>2026-09-01T19:52:25Z</time>
  <course>29.28</course>
  <speed>0.0</speed>
  <fix>3d</fix>
</trkpt>
<trkpt lat="-27.2744395" lon="151.2900652">
  <ele>426.8</ele>
  <time>2026-09-01T19:52:25Z</time>
  <course>172.51</course>
  <speed>0.0282842712474619</speed>
  <fix>3d</fix>
</trkpt>
<trkpt lat="-27.2744396" lon="151.2900654">
  <ele>426.45</ele>
  <time>2026-09-01T19:52:25Z</time>
  <course>36.9</course>
  <speed>0.0</speed>
  <fix>3d</fix>
</trkpt>
<trkpt lat="-27.2744395" lon="151.2900652">
  <ele>427.05</ele>
  <time>2026-09-01T19:52:25Z</time>
  <course>172.51</course>
  <speed>0.022360679774997897</speed>
  <fix>3d</fix>
</trkpt>
<trkpt lat="-27.2744396" lon="151.2900654">
  <ele>426.45</ele>
  <time>2026-09-01T19:52:25Z</time>
  <course>36.9</course>
  <speed>0.0</speed>
  <fix>3d</fix>
</trkpt>
<trkpt lat="-27.2744395" lon="151.2900652">
  <ele>427.31</ele>
  <time>2026-09-01T19:52:25Z</time>
  <course>172.52</course>
  <speed>0.022360679774997897</speed>
  <fix>3d</fix>
</trkpt>
<trkpt lat="-27.2744396" lon="151.2900654">
  <ele>426.95</ele>
  <time>2026-09-01T19:52:25Z</time>
  <course>48.35</course>
  <speed>0.0</speed>
  <fix>3d</fix>
</trkpt>
<trkpt lat="-27.2744395" lon="151.2900652">
  <ele>427.56</ele>
  <time>2026-09-01T19:52:25Z</time>
  <course>172.53</course>
  <speed>0.022360679774997897</speed>
  <fix>3d</fix>
</trkpt>
<trkpt lat="-27.2744396" lon="151.2900654">
  <ele>426.95</ele>
  <time>2026-09-01T19:52:25Z</time>
  <course>48.35</course>
  <speed>0.0</speed>
  <fix>3d</fix>
</trkpt>
<trkpt lat="-27.2744395" lon="151.2900652">
  <ele>427.81</ele>
  <time>2026-09-01T19:52:25Z</time>
  <course>172.53</course>
  <speed>0.022360679774997897</speed>
  <fix>3d</fix>
</trkpt>
<trkpt lat="-27.2744396" lon="151.2900654">
  <ele>427.45</ele>
  <time>2026-09-01T19:52:25Z</time>
  <course>63.54</course>
  <speed>0.0</speed>
  <fix>3d</fix>
</trkpt>
<trkpt lat="-27.2744395" lon="151.2900652">
  <ele>428.05</ele>
  <time>2026-09-01T19:52:25Z</time>
  <course>172.54</course>
  <speed>0.022360679774997897</speed>
  <fix>3d</fix>
</trkpt>
<trkpt lat="-27.2744396" lon="151.2900654">
  <ele>427.45</ele>
  <time>2026-09-01T19:52:25Z</time>
  <course>63.54</course>
  <speed>0.0</speed>
  <fix>3d</fix>
</trkpt>
<trkpt lat="-27.2744395" lon="151.2900652">
  <ele>428.3</ele>
  <time>2026-09-01T19:52:25Z</time>
  <course>172.55</course>
  <speed>0.022360679774997897</speed>
  <fix>3d</fix>
</trkpt>
<trkpt lat="-27.2744395" lon="151.2900654">
  <ele>427.96</ele>
  <time>2026-09-01T19:52:25Z</time>
  <course>73.42</course>
  <speed>0.0</speed>
  <fix>3d</fix>
</trkpt>
<trkpt lat="-27.2744395" lon="151.2900652">
  <ele>428.56</ele>
  <time>2026-09-01T19:52:25Z</time>
  <course>172.56</course>
  <speed>0.022360679774997897</speed>
  <fix>3d</fix>
</trkpt>
<trkpt lat="-27.2744395" lon="151.2900654">
  <ele>427.96</ele>
  <time>2026-09-01T19:52:25Z</time>
  <course>73.42</course>
  <speed>0.0</speed>
  <fix>3d</fix>
</trkpt>
<trkpt lat="-27.2744395" lon="151.2900652">
  <ele>428.81</ele>
  <time>2026-09-01T19:52:25Z</time>
  <course>172.57</course>
  <speed>0.022360679774997897</speed>
  <fix>3d</fix>
</trkpt>
<trkpt lat="-27.2744395" lon="151.2900654">
  <ele>428.46</ele>
  <time>2026-09-01T19:52:25Z</time>
  <course>72.91</course>
  <speed>0.0</speed>
  <fix>3d</fix>
</trkpt>
<trkpt lat="-27.2744395" lon="151.2900652">
  <ele>429.06</ele>
  <time>2026-09-01T19:52:25Z</time>
  <course>172.56</course>
  <speed>0.022360679774997897</speed>
  <fix>3d</fix>
</trkpt>
<trkpt lat="-27.2744395" lon="151.2900654">
  <ele>428.46</ele>
  <time>2026-09-01T19:52:25Z</time>
  <course>72.91</course>
  <speed>0.0</speed>
  <fix>3d</fix>
</trkpt>
<trkpt lat="-27.2744395" lon="151.2900652">
  <ele>429.31</ele>
  <time>2026-09-01T19:52:25Z</time>
  <course>172.56</course>
  <speed>0.022360679774997897</speed>
  <fix>3d</fix>
</trkpt>
<trkpt lat="-27.2744395" lon="151.2900655">
  <ele>428.96</ele>
  <time>2026-09-01T19:52:25Z</time>
  <course>69.69</course>
  <speed>0.0</speed>
  <fix>3d</fix>
</trkpt>
<trkpt lat="-27.2744395" lon="151.2900652">
  <ele>429.56</ele>
  <time>2026-09-01T19:52:25Z</time>
  <course>172.54</course>
  <speed>0.022360679774997897</speed>
  <fix>3d</fix>
</trkpt>
<trkpt lat="-27.2744395" lon="151.2900655">
  <ele>428.96</ele>
  <time>2026-09-01T19:52:25Z</time>
  <course>69.69</course>
  <speed>0.0</speed>
  <fix>3d</fix>
</trkpt>
<trkpt lat="-27.2744394" lon="151.2900652">
  <ele>429.81</ele>
  <time>2026-09-01T19:52:25Z</time>
  <course>172.52</course>
  <speed>0.022360679774997897</speed>
  <fix>3d</fix>
</trkpt>
<trkpt lat="-27.2744395" lon="151.2900655">
  <ele>429.46</ele>
  <time>2026-09-01T19:52:25Z</time>
  <course>69.89</course>
  <speed>0.0</speed>
  <fix>3d</fix>
</trkpt>
<trkpt lat="-27.2744394" lon="151.2900652">
  <ele>430.06</ele>
  <time>2026-09-01T19:52:25Z</time>
  <course>172.52</course>
  <speed>0.022360679774997897</speed>
  <fix>3d</fix>
</trkpt>
<trkpt lat="-27.2744395" lon="151.2900655">
  <ele>429.46</ele>
  <time>2026-09-01T19:52:25Z</time>
  <course>69.89</course>
  <speed>0.0</speed>
  <fix>3d</fix>
</trkpt>
<trkpt lat="-27.2744394" lon="151.2900652">
  <ele>430.3</ele>
  <time>2026-09-01T19:52:25Z</time>
  <course>172.52</course>
  <speed>0.022360679774997897</speed>
  <fix>3d</fix>
</trkpt>
<trkpt lat="-27.2744395" lon="151.2900655">
  <ele>429.97</ele>
  <time>2026-09-01T19:52:25Z</time>
  <course>78.96</course>
  <speed>0.0</speed>
  <fix>3d</fix>
</trkpt>
<trkpt lat="-27.2744394" lon="151.2900652">
  <ele>430.55</ele>
  <time>2026-09-01T19:52:25Z</time>
  <course>172.53</course>
  <speed>0.022360679774997897</speed>
  <fix>3d</fix>
</trkpt>
<trkpt lat="-27.2744395" lon="151.2900655">
  <ele>429.97</ele>
  <time>2026-09-01T19:52:25Z</time>
  <course>78.96</course>
  <speed>0.0</speed>
  <fix>3d</fix>
</trkpt>
<trkpt lat="-27.2744394" lon="151.2900652">
  <ele>430.8</ele>
  <time>2026-09-01T19:52:25Z</time>
  <course>172.55</course>
  <speed>0.022360679774997897</speed>
  <fix>3d</fix>
</trkpt>
<trkpt lat="-27.2744395" lon="151.2900655">
  <ele>430.47</ele>
  <time>2026-09-01T19:52:25Z</time>
  <course>83.2</course>
  <speed>0.0</speed>
  <fix>3d</fix>
</trkpt>
<trkpt lat="-27.2744394" lon="151.2900652">
  <ele>431.05</ele>
  <time>2026-09-01T19:52:25Z</time>
  <course>172.56</course>
  <speed>0.022360679774997897</speed>
  <fix>3d</fix>
</trkpt>
<trkpt lat="-27.2744395" lon="151.2900655">
  <ele>430.47</ele>
  <time>2026-09-01T19:52:25Z</time>
  <course>83.2</course>
  <speed>0.0</speed>
  <fix>3d</fix>
</trkpt>
<trkpt lat="-27.2744394" lon="151.2900652">
  <ele>431.3</ele>
  <time>2026-09-01T19:52:25Z</time>
  <course>172.56</course>
  <speed>0.022360679774997897</speed>
  <fix>3d</fix>
</trkpt>
<trkpt lat="-27.2744395" lon="151.2900655">
  <ele>430.97</ele>
  <time>2026-09-01T19:52:25Z</time>
  <course>80.77</course>
  <speed>0.0</speed>
  <fix>3d</fix>
</trkpt>
<trkpt lat="-27.2744394" lon="151.2900652">
  <ele>431.56</ele>
  <time>2026-09-01T19:52:25Z</time>
  <course>172.55</course>
  <speed>0.022360679774997897</speed>
  <fix>3d</fix>
</trkpt>
<trkpt lat="-27.2744395" lon="151.2900655">
  <ele>430.97</ele>
  <time>2026-09-01T19:52:25Z</time>
  <course>80.77</course>
  <speed>0.0</speed>
  <fix>3d</fix>
</trkpt>
<trkpt lat="-27.2744394" lon="151.2900652">
  <ele>431.81</ele>
  <time>2026-09-01T19:52:25Z</time>
  <course>172.54</course>
  <speed>0.022360679774997897</speed>
  <fix>3d</fix>
</trkpt>
<trkpt lat="-27.2744395" lon="151.2900655">
  <ele>431.47</ele>
  <time>2026-09-01T19:52:25Z</time>
  <course>83.9</course>
  <speed>0.0</speed>
  <fix>3d</fix>
</trkpt>
<trkpt lat="-27.2744394" lon="151.2900652">
  <ele>432.06</ele>
  <time>2026-09-01T19:52:25Z</time>
  <course>172.53</course>
  <speed>0.022360679774997897</speed>
  <fix>3d</fix>
</trkpt>
<trkpt lat="-27.2744395" lon="151.2900655">
  <ele>431.47</ele>
  <time>2026-09-01T19:52:25Z</time>
  <course>83.9</course>
  <speed>0.0</speed>
  <fix>3d</fix>
</trkpt>
<trkpt lat="-27.2744394" lon="151.2900652">
  <ele>432.31</ele>
  <time>2026-09-01T19:52:25Z</time>
  <course>172.53</course>
  <speed>0.022360679774997897</speed>
  <fix>3d</fix>
</trkpt>
<trkpt lat="-27.2744395" lon="151.2900655">
  <ele>431.98</ele>
  <time>2026-09-01T19:52:25Z</time>
  <course>87.82</course>
  <speed>0.0</speed>
  <fix>3d</fix>
</trkpt>
<trkpt lat="-27.2744394" lon="151.2900652">
  <ele>432.56</ele>
  <time>2026-09-01T19:52:25Z</time>
  <course>172.53</course>
  <speed>0.022360679774997897</speed>
  <fix>3d</fix>
</trkpt>
<trkpt lat="-27.2744395" lon="151.2900655">
  <ele>431.98</ele>
  <time>2026-09-01T19:52:25Z</time>
  <course>87.82</course>
  <speed>0.0</speed>
  <fix>3d</fix>
</trkpt>
<trkpt lat="-27.2744394" lon="151.2900652">
  <ele>432.81</ele>
  <time>2026-09-01T19:52:25Z</time>
  <course>172.53</course>
  <speed>0.022360679774997897</speed>
  <fix>3d</fix>
</trkpt>
<trkpt lat="-27.2744395" lon="151.2900655">
  <ele>432.48</ele>
  <time>2026-09-01T19:52:25Z</time>
  <course>82.71</course>
  <speed>0.0</speed>
  <fix>3d</fix>
</trkpt>
<trkpt lat="-27.2744394" lon="151.2900652">
  <ele>433.06</ele>
  <time>2026-09-01T19:52:25Z</time>
  <course>172.53</course>
  <speed>0.0282842712474619</speed>
  <fix>3d</fix>
</trkpt>
<trkpt lat="-27.2744395" lon="151.2900655">
  <ele>432.48</ele>
  <time>2026-09-01T19:52:25Z</time>
  <course>82.71</course>
  <speed>0.0</speed>
  <fix>3d</fix>
</trkpt>
<trkpt lat="-27.2744394" lon="151.2900652">
  <ele>433.31</ele>
  <time>2026-09-01T19:52:25Z</time>
  <course>172.54</course>
  <speed>0.0282842712474619</speed>
  <fix>3d</fix>
</trkpt>
<trkpt lat="-27.2744395" lon="151.2900655">
  <ele>432.98</ele>
  <time>2026-09-01T19:52:25Z</time>
  <course>69.0</course>
  <speed>0.0</speed>
  <fix>3d</fix>
</trkpt>
<trkpt lat="-27.2744394" lon="151.2900652">
  <ele>433.56</ele>
  <time>2026-09-01T19:52:25Z</time>
  <course>172.55</course>
  <speed>0.0282842712474619</speed>
  <fix>3d</fix>
</trkpt>
<trkpt lat="-27.2744395" lon="151.2900655">
  <ele>432.98</ele>
  <time>2026-09-01T19:52:25Z</time>
  <course>69.0</course>
  <speed>0.0</speed>
  <fix>3d</fix>
</trkpt>
<trkpt lat="-27.2744394" lon="151.2900652">
  <ele>433.81</ele>
  <time>2026-09-01T19:52:25Z</time>
  <course>172.56</course>
  <speed>0.0282842712474619</speed>
  <fix>3d</fix>
</trkpt>
<trkpt lat="-27.2744395" lon="151.2900655">
  <ele>433.48</ele>
  <time>2026-09-01T19:52:25Z</time>
  <course>58.56</course>
  <speed>0.0</speed>
  <fix>3d</fix>
</trkpt>
<trkpt lat="-27.2744394" lon="151.2900652">
  <ele>434.06</ele>
  <time>2026-09-01T19:52:25Z</time>
  <course>172.57</course>
  <speed>0.0282842712474619</speed>
  <fix>3d</fix>
</trkpt>
<trkpt lat="-27.2744395" lon="151.2900655">
  <ele>433.48</ele>
  <time>2026-09-01T19:52:25Z</time>
  <course>58.56</course>
  <speed>0.0</speed>
  <fix>3d</fix>
</trkpt>
<trkpt lat="-27.2744394" lon="151.2900652">
  <ele>434.31</ele>
  <time>2026-09-01T19:52:25Z</time>
  <course>172.6</course>
  <speed>0.022360679774997897</speed>
  <fix>3d</fix>
</trkpt>
<trkpt lat="-27.2744395" lon="151.2900656">
  <ele>433.98</ele>
  <time>2026-09-01T19:52:25Z</time>
  <course>65.8</course>
  <speed>0.0</speed>
  <fix>3d</fix>
</trkpt>
<trkpt lat="-27.2744394" lon="151.2900652">
  <ele>434.56</ele>
  <time>2026-09-01T19:52:25Z</time>
  <course>172.62</course>
  <speed>0.022360679774997897</speed>
  <fix>3d</fix>
</trkpt>
<trkpt lat="-27.2744395" lon="151.2900656">
  <ele>433.98</ele>
  <time>2026-09-01T19:52:25Z</time>
  <course>65.8</course>
  <speed>0.0</speed>
  <fix>3d</fix>
</trkpt>
<trkpt lat="-27.2744394" lon="151.2900652">
  <ele>434.81</ele>
  <time>2026-09-01T19:52:25Z</time>
  <course>172.63</course>
  <speed>0.022360679774997897</speed>
  <fix>3d</fix>
</trkpt>
<trkpt lat="-27.2744395" lon="151.2900656">
  <ele>434.49</ele>
  <time>2026-09-01T19:52:25Z</time>
  <course>106.19</course>
  <speed>0.0</speed>
  <fix>3d</fix>
</trkpt>
<trkpt lat="-27.2744394" lon="151.2900652">
  <ele>435.06</ele>
  <time>2026-09-01T19:52:25Z</time>
  <course>172.63</course>
  <speed>0.022360679774997897</speed>
  <fix>3d</fix>
</trkpt>
<trkpt lat="-27.2744395" lon="151.2900656">
  <ele>434.49</ele>
  <time>2026-09-01T19:52:25Z</time>
  <course>106.19</course>
  <speed>0.0</speed>
  <fix>3d</fix>
</trkpt>
<trkpt lat="-27.2744394" lon="151.2900652">
  <ele>435.3</ele>
  <time>2026-09-01T19:52:25Z</time>
  <course>172.62</course>
  <speed>0.022360679774997897</speed>
  <fix>3d</fix>
</trkpt>
<trkpt lat="-27.2744395" lon="151.2900656">
  <ele>434.99</ele>
  <time>2026-09-01T19:52:25Z</time>
  <course>135.29</course>
  <speed>0.0</speed>
  <fix>3d</fix>
</trkpt>
<trkpt lat="-27.2744394" lon="151.2900652">
  <ele>435.55</ele>
  <time>2026-09-01T19:52:25Z</time>
  <course>172.61</course>
  <speed>0.022360679774997897</speed>
  <fix>3d</fix>
</trkpt>
<trkpt lat="-27.2744395" lon="151.2900656">
  <ele>434.99</ele>
  <time>2026-09-01T19:52:25Z</time>
  <course>135.29</course>
  <speed>0.0</speed>
  <fix>3d</fix>
</trkpt>
<trkpt lat="-27.2744394" lon="151.2900652">
  <ele>435.8</ele>
  <time>2026-09-01T19:52:25Z</time>
  <course>172.6</course>
  <speed>0.022360679774997897</speed>
  <fix>3d</fix>
</trkpt>
<trkpt lat="-27.2744395" lon="151.2900656">
  <ele>435.49</ele>
  <time>2026-09-01T19:52:25Z</time>
  <course>142.78</course>
  <speed>0.0</speed>
  <fix>3d</fix>
</trkpt>
<trkpt lat="-27.2744394" lon="151.2900652">
  <ele>436.05</ele>
  <time>2026-09-01T19:52:25Z</time>
  <course>172.58</course>
  <speed>0.022360679774997897</speed>
  <fix>3d</fix>
</trkpt>
<trkpt lat="-27.2744395" lon="151.2900656">
  <ele>435.49</ele>
  <time>2026-09-01T19:52:25Z</time>
  <course>142.78</course>
  <speed>0.0</speed>
  <fix>3d</fix>
</trkpt>
<trkpt lat="-27.2744394" lon="151.2900652">
  <ele>436.3</ele>
  <time>2026-09-01T19:52:25Z</time>
  <course>172.58</course>
  <speed>0.022360679774997897</speed>
  <fix>3d</fix>
</trkpt>
<trkpt lat="-27.2744395" lon="151.2900656">
  <ele>435.99</ele>
  <time>2026-09-01T19:52:25Z</time>
  <course>151.37</course>
  <speed>0.0</speed>
  <fix>3d</fix>
</trkpt>
<trkpt lat="-27.2744394" lon="151.2900652">
  <ele>436.55</ele>
  <time>2026-09-01T19:52:25Z</time>
  <course>172.58</course>
  <speed>0.022360679774997897</speed>
  <fix>3d</fix>
</trkpt>
<trkpt lat="-27.2744395" lon="151.2900656">
  <ele>435.99</ele>
  <time>2026-09-01T19:52:25Z</time>
  <course>151.37</course>
  <speed>0.0</speed>
  <fix>3d</fix>
</trkpt>
<trkpt lat="-27.2744394" lon="151.2900652">
  <ele>436.79</ele>
  <time>2026-09-01T19:52:25Z</time>
  <course>172.59</course>
  <speed>0.022360679774997897</speed>
  <fix>3d</fix>
</trkpt>
<trkpt lat="-27.2744395" lon="151.2900656">
  <ele>436.5</ele>
  <time>2026-09-01T19:52:25Z</time>
  <course>161.41</course>
  <speed>0.0</speed>
  <fix>3d</fix>
</trkpt>
<trkpt lat="-27.2744394" lon="151.2900652">
  <ele>437.04</ele>
  <time>2026-09-01T19:52:25Z</time>
  <course>172.61</course>
  <speed>0.022360679774997897</speed>
  <fix>3d</fix>
</trkpt>
<trkpt lat="-27.2744395" lon="151.2900656">
  <ele>436.5</ele>
  <time>2026-09-01T19:52:25Z</time>
  <course>161.41</course>
  <speed>0.0</speed>
  <fix>3d</fix>
</trkpt>
<trkpt lat="-27.2744394" lon="151.2900652">
  <ele>437.29</ele>
  <time>2026-09-01T19:52:25Z</time>
  <course>172.63</course>
  <speed>0.022360679774997897</speed>
  <fix>3d</fix>
</trkpt>
<trkpt lat="-27.2744395" lon="151.2900656">
  <ele>437.0</ele>
  <time>2026-09-01T19:52:25Z</time>
  <course>156.91</course>
  <speed>0.0</speed>
  <fix>3d</fix>
</trkpt>
<trkpt lat="-27.2744394" lon="151.2900653">
  <ele>437.54</ele>
  <time>2026-09-01T19:52:25Z</time>
  <course>172.64</course>
  <speed>0.022360679774997897</speed>
  <fix>3d</fix>
</trkpt>
<trkpt lat="-27.2744395" lon="151.2900656">
  <ele>437.0</ele>
  <time>2026-09-01T19:52:25Z</time>
  <course>156.91</course>
  <speed>0.0</speed>
  <fix>3d</fix>
</trkpt>
<trkpt lat="-27.2744394" lon="151.2900653">
  <ele>437.79</ele>
  <time>2026-09-01T19:52:25Z</time>
  <course>172.65</course>
  <speed>0.022360679774997897</speed>
  <fix>3d</fix>
</trkpt>
<trkpt lat="-27.2744395" lon="151.2900656">
  <ele>437.5</ele>
  <time>2026-09-01T19:52:25Z</time>
  <course>153.56</course>
  <speed>0.0</speed>
  <fix>3d</fix>
</trkpt>
<trkpt lat="-27.2744394" lon="151.2900653">
  <ele>438.05</ele>
  <time>2026-09-01T19:52:25Z</time>
  <course>172.65</course>
  <speed>0.022360679774997897</speed>
  <fix>3d</fix>
</trkpt>
<trkpt lat="-27.2744395" lon="151.2900656">
  <ele>437.5</ele>
  <time>2026-09-01T19:52:25Z</time>
  <course>153.56</course>
  <speed>0.0</speed>
  <fix>3d</fix>
</trkpt>
<trkpt lat="-27.2744394" lon="151.2900653">
  <ele>438.3</ele>
  <time>2026-09-01T19:52:25Z</time>
  <course>172.64</course>
  <speed>0.022360679774997897</speed>
  <fix>3d</fix>
</trkpt>
<trkpt lat="-27.2744395" lon="151.2900656">
  <ele>438.01</ele>
  <time>2026-09-01T19:52:25Z</time>
  <course>160.39</course>
  <speed>0.0</speed>
  <fix>3d</fix>
</trkpt>
<trkpt lat="-27.2744394" lon="151.2900653">
  <ele>438.55</ele>
  <time>2026-09-01T19:52:25Z</time>
  <course>172.63</course>
  <speed>0.022360679774997897</speed>
  <fix>3d</fix>
</trkpt>
<trkpt lat="-27.2744395" lon="151.2900656">
  <ele>438.01</ele>
  <time>2026-09-01T19:52:25Z</time>
  <course>160.39</course>
  <speed>0.0</speed>
  <fix>3d</fix>
</trkpt>
<trkpt lat="-27.2744394" lon="151.2900653">
  <ele>438.8</ele>
  <time>2026-09-01T19:52:25Z</time>
  <course>172.63</course>
  <speed>0.022360679774997897</speed>
  <fix>3d</fix>
</trkpt>
<trkpt lat="-27.2744395" lon="151.2900656">
  <ele>438.51</ele>
  <time>2026-09-01T19:52:25Z</time>
  <course>166.85</course>
  <speed>0.0</speed>
  <fix>3d</fix>
</trkpt>
<trkpt lat="-27.2744394" lon="151.2900653">
  <ele>439.05</ele>
  <time>2026-09-01T19:52:25Z</time>
  <course>172.62</course>
  <speed>0.022360679774997897</speed>
  <fix>3d</fix>
</trkpt>
<trkpt lat="-27.2744395" lon="151.2900656">
  <ele>438.51</ele>
  <time>2026-09-01T19:52:25Z</time>
  <course>166.85</course>
  <speed>0.0</speed>
  <fix>3d</fix>
</trkpt>
<trkpt lat="-27.2744394" lon="151.2900653">
  <ele>439.31</ele>
  <time>2026-09-01T19:52:25Z</time>
  <course>172.62</course>
  <speed>0.022360679774997897</speed>
  <fix>3d</fix>
</trkpt>
<trkpt lat="-27.2744395" lon="151.2900656">
  <ele>439.02</ele>
  <time>2026-09-01T19:52:25Z</time>
  <course>170.03</course>
  <speed>0.0</speed>
  <fix>3d</fix>
</trkpt>
<trkpt lat="-27.2744394" lon="151.2900653">
  <ele>439.56</ele>
  <time>2026-09-01T19:52:25Z</time>
  <course>172.61</course>
  <speed>0.022360679774997897</speed>
  <fix>3d</fix>
</trkpt>
<trkpt lat="-27.2744395" lon="151.2900656">
  <ele>439.02</ele>
  <time>2026-09-01T19:52:25Z</time>
  <course>170.03</course>
  <speed>0.0</speed>
  <fix>3d</fix>
</trkpt>
<trkpt lat="-27.2744394" lon="151.2900653">
  <ele>439.81</ele>
  <time>2026-09-01T19:52:25Z</time>
  <course>172.62</course>
  <speed>0.022360679774997897</speed>
  <fix>3d</fix>
</trkpt>
<trkpt lat="-27.2744395" lon="151.2900656">
  <ele>439.52</ele>
  <time>2026-09-01T19:52:25Z</time>
  <course>168.84</course>
  <speed>0.0</speed>
  <fix>3d</fix>
</trkpt>
<trkpt lat="-27.2744394" lon="151.2900653">
  <ele>440.07</ele>
  <time>2026-09-01T19:52:25Z</time>
  <course>172.63</course>
  <speed>0.022360679774997897</speed>
  <fix>3d</fix>
</trkpt>
<trkpt lat="-27.2744395" lon="151.2900656">
  <ele>439.52</ele>
  <time>2026-09-01T19:52:25Z</time>
  <course>168.84</course>
  <speed>0.0</speed>
  <fix>3d</fix>
</trkpt>
<trkpt lat="-27.2744394" lon="151.2900653">
  <ele>440.32</ele>
  <time>2026-09-01T19:52:25Z</time>
  <course>172.63</course>
  <speed>0.022360679774997897</speed>
  <fix>3d</fix>
</trkpt>
<trkpt lat="-27.2744395" lon="151.2900656">
  <ele>440.03</ele>
  <time>2026-09-01T19:52:25Z</time>
  <course>167.49</course>
  <speed>0.0</speed>
  <fix>3d</fix>
</trkpt>
<trkpt lat="-27.2744394" lon="151.2900653">
  <ele>440.57</ele>
  <time>2026-09-01T19:52:25Z</time>
  <course>172.64</course>
  <speed>0.022360679774997897</speed>
  <fix>3d</fix>
</trkpt>
<trkpt lat="-27.2744395" lon="151.2900656">
  <ele>440.03</ele>
  <time>2026-09-01T19:52:25Z</time>
  <course>167.49</course>
  <speed>0.0</speed>
  <fix>3d</fix>
</trkpt>
<trkpt lat="-27.2744394" lon="151.2900653">
  <ele>440.82</ele>
  <time>2026-09-01T19:52:25Z</time>
  <course>172.64</course>
  <speed>0.022360679774997897</speed>
  <fix>3d</fix>
</trkpt>
<trkpt lat="-27.2744395" lon="151.2900656">
  <ele>440.53</ele>
  <time>2026-09-01T19:52:25Z</time>
  <course>171.34</course>
  <speed>0.0</speed>
  <fix>3d</fix>
</trkpt>
<trkpt lat="-27.2744394" lon="151.2900653">
  <ele>441.07</ele>
  <time>2026-09-01T19:52:25Z</time>
  <course>172.64</course>
  <speed>0.022360679774997897</speed>
  <fix>3d</fix>
</trkpt>
<trkpt lat="-27.2744395" lon="151.2900656">
  <ele>440.53</ele>
  <time>2026-09-01T19:52:25Z</time>
  <course>171.34</course>
  <speed>0.0</speed>
  <fix>3d</fix>
</trkpt>
<trkpt lat="-27.2744394" lon="151.2900653">
  <ele>441.33</ele>
  <time>2026-09-01T19:52:26Z</time>
  <course>172.64</course>
  <speed>0.022360679774997897</speed>
  <fix>3d</fix>
</trkpt>
<trkpt lat="-27.2744395" lon="151.2900656">
  <ele>441.04</ele>
  <time>2026-09-01T19:52:26Z</time>
  <course>174.15</course>
  <speed>0.0</speed>
  <fix>3d</fix>
</trkpt>
<trkpt lat="-27.2744394" lon="151.2900653">
  <ele>441.58</ele>
  <time>2026-09-01T19:52:26Z</time>
  <course>172.64</course>
  <speed>0.022360679774997897</speed>
  <fix>3d</fix>
</trkpt>
<trkpt lat="-27.2744395" lon="151.2900656">
  <ele>441.04</ele>
  <time>2026-09-01T19:52:26Z</time>
  <course>174.15</course>
  <speed>0.0</speed>
  <fix>3d</fix>
</trkpt>
<trkpt lat="-27.2744394" lon="151.2900653">
  <ele>441.83</ele>
  <time>2026-09-01T19:52:26Z</time>
  <course>172.65</course>
  <speed>0.022360679774997897</speed>
  <fix>3d</fix>
</trkpt>
<trkpt lat="-27.2744396" lon="151.2900656">
  <ele>441.54</ele>
  <time>2026-09-01T19:52:26Z</time>
  <course>173.01</course>
  <speed>0.0</speed>
  <fix>3d</fix>
</trkpt>
<trkpt lat="-27.2744394" lon="151.2900653">
  <ele>442.08</ele>
  <time>2026-09-01T19:52:26Z</time>
  <course>172.65</course>
  <speed>0.022360679774997897</speed>
  <fix>3d</fix>
</trkpt>
<trkpt lat="-27.2744396" lon="151.2900656">
  <ele>441.54</ele>
  <time>2026-09-01T19:52:26Z</time>
  <course>173.01</course>
  <speed>0.0</speed>
  <fix>3d</fix>
</trkpt>
<trkpt lat="-27.2744394" lon="151.2900653">
  <ele>442.33</ele>
  <time>2026-09-01T19:52:26Z</time>
  <course>172.65</course>
  <speed>0.022360679774997897</speed>
  <fix>3d</fix>
</trkpt>
<trkpt lat="-27.2744396" lon="151.2900656">
  <ele>442.04</ele>
  <time>2026-09-01T19:52:26Z</time>
  <course>172.66</course>
  <speed>0.0</speed>
  <fix>3d</fix>
</trkpt>
<trkpt lat="-27.2744394" lon="151.2900653">
  <ele>442.58</ele>
  <time>2026-09-01T19:52:26Z</time>
  <course>172.65</course>
  <speed>0.022360679774997897</speed>
  <fix>3d</fix>
</trkpt>
<trkpt lat="-27.2744396" lon="151.2900656">
  <ele>442.04</ele>
  <time>2026-09-01T19:52:26Z</time>
  <course>172.66</course>
  <speed>0.0</speed>
  <fix>3d</fix>
</trkpt>
<trkpt lat="-27.2744394" lon="151.2900653">
  <ele>442.83</ele>
  <time>2026-09-01T19:52:26Z</time>
  <course>172.64</course>
  <speed>0.022360679774997897</speed>
  <fix>3d</fix>
</trkpt>
<trkpt lat="-27.2744396" lon="151.2900656">
  <ele>442.53</ele>
  <time>2026-09-01T19:52:26Z</time>
  <course>181.31</course>
  <speed>0.0</speed>
  <fix>3d</fix>
</trkpt>
<trkpt lat="-27.2744394" lon="151.2900653">
  <ele>443.08</ele>
  <time>2026-09-01T19:52:26Z</time>
  <course>172.64</course>
  <speed>0.0282842712474619</speed>
  <fix>3d</fix>
</trkpt>
<trkpt lat="-27.2744396" lon="151.2900656">
  <ele>442.53</ele>
  <time>2026-09-01T19:52:26Z</time>
  <course>181.31</course>
  <speed>0.0</speed>
  <fix>3d</fix>
</trkpt>
<trkpt lat="-27.2744394" lon="151.2900653">
  <ele>443.33</ele>
  <time>2026-09-01T19:52:26Z</time>
  <course>172.64</course>
  <speed>0.0282842712474619</speed>
  <fix>3d</fix>
</trkpt>
<trkpt lat="-27.2744396" lon="151.2900656">
  <ele>443.03</ele>
  <time>2026-09-01T19:52:26Z</time>
  <course>209.1</course>
  <speed>0.0</speed>
  <fix>3d</fix>
</trkpt>
<trkpt lat="-27.2744394" lon="151.2900653">
  <ele>443.58</ele>
  <time>2026-09-01T19:52:26Z</time>
  <course>172.65</course>
  <speed>0.02</speed>
  <fix>3d</fix>
</trkpt>
<trkpt lat="-27.2744396" lon="151.2900656">
  <ele>443.03</ele>
  <time>2026-09-01T19:52:26Z</time>
  <course>209.1</course>
  <speed>0.0</speed>
  <fix>3d</fix>
</trkpt>
<trkpt lat="-27.2744394" lon="151.2900653">
  <ele>443.83</ele>
  <time>2026-09-01T19:52:26Z</time>
  <course>172.66</course>
  <speed>0.06082762530298219</speed>
  <fix>3d</fix>
</trkpt>
<trkpt lat="-27.2744396" lon="151.2900656">
  <ele>443.53</ele>
  <time>2026-09-01T19:52:26Z</time>
  <course>173.25</course>
  <speed>0.03</speed>
  <fix>3d</fix>
</trkpt>
<trkpt lat="-27.2744395" lon="151.2900653">
  <ele>444.08</ele>
  <time>2026-09-01T19:52:26Z</time>
  <course>172.69</course>
  <speed>0.18</speed>
  <fix>3d</fix>
</trkpt>
<trkpt lat="-27.2744396" lon="151.2900656">
  <ele>443.53</ele>
  <time>2026-09-01T19:52:26Z</time>
  <course>173.25</course>
  <speed>0.03</speed>
  <fix>3d</fix>
</trkpt>
<trkpt lat="-27.2744398" lon="151.2900653">
  <ele>444.32</ele>
  <time>2026-09-01T19:52:26Z</time>
  <course>172.7</course>
  <speed>0.3705401462729781</speed>
  <fix>3d</fix>
</trkpt>
<trkpt lat="-27.2744397" lon="151.2900656">
  <ele>444.02</ele>
  <time>2026-09-01T19:52:26Z</time>
  <course>171.63</course>
  <speed>0.23</speed>
  <fix>3d</fix>
</trkpt>
<trkpt lat="-27.2744403" lon="151.2900654">
  <ele>444.54</ele>
  <time>2026-09-01T19:52:26Z</time>
  <course>172.71</course>
  <speed>0.6120457499239742</speed>
  <fix>3d</fix>
</trkpt>
<trkpt lat="-27.2744397" lon="151.2900656">
  <ele>444.02</ele>
  <time>2026-09-01T19:52:26Z</time>
  <course>171.63</course>
  <speed>0.23</speed>
  <fix>3d</fix>
</trkpt>
<trkpt lat="-27.274441" lon="151.2900655">
  <ele>444.76</ele>
  <time>2026-09-01T19:52:26Z</time>
  <course>172.71</course>
  <speed>0.9144397191723465</speed>
  <fix>3d</fix>
</trkpt>
<trkpt lat="-27.2744405" lon="151.2900657">
  <ele>444.48</ele>
  <time>2026-09-01T19:52:26Z</time>
  <course>171.54</course>
  <speed>0.65</speed>
  <fix>3d</fix>
</trkpt>
<trkpt lat="-27.274442" lon="151.2900657">
  <ele>444.95</ele>
  <time>2026-09-01T19:52:26Z</time>
  <course>172.61</course>
  <speed>1.2776932339180638</speed>
  <fix>3d</fix>
</trkpt>
<trkpt lat="-27.2744405" lon="151.2900657">
  <ele>444.48</ele>
  <time>2026-09-01T19:52:26Z</time>
  <course>171.54</course>
  <speed>0.65</speed>
  <fix>3d</fix>
</trkpt>
<trkpt lat="-27.2744433" lon="151.2900659">
  <ele>445.12</ele>
  <time>2026-09-01T19:52:26Z</time>
  <course>172.49</course>
  <speed>1.7129214809792073</speed>
  <fix>3d</fix>
</trkpt>
<trkpt lat="-27.2744422" lon="151.2900661">
  <ele>444.89</ele>
  <time>2026-09-01T19:52:26Z</time>
  <course>171.46</course>
  <speed>1.31</speed>
  <fix>3d</fix>
</trkpt>
<trkpt lat="-27.2744451" lon="151.2900662">
  <ele>445.26</ele>
  <time>2026-09-01T19:52:26Z</time>
  <course>172.32</course>
  <speed>2.207826985975124</speed>
  <fix>3d</fix>
</trkpt>
<trkpt lat="-27.2744422" lon="151.2900661">
  <ele>444.89</ele>
  <time>2026-09-01T19:52:26Z</time>
  <course>171.46</course>
  <speed>1.31</speed>
  <fix>3d</fix>
</trkpt>
<trkpt lat="-27.2744473" lon="151.2900665">
  <ele>445.37</ele>
  <time>2026-09-01T19:52:26Z</time>
  <course>172.06</course>
  <speed>2.7747792705006287</speed>
  <fix>3d</fix>
</trkpt>
<trkpt lat="-27.2744454" lon="151.2900666">
  <ele>445.2</ele>
  <time>2026-09-01T19:52:26Z</time>
  <course>171.26</course>
  <speed>2.23</speed>
  <fix>3d</fix>
</trkpt>
<trkpt lat="-27.2744501" lon="151.290067">
  <ele>445.44</ele>
  <time>2026-09-01T19:52:26Z</time>
  <course>171.65</course>
  <speed>3.354519339637201</speed>
  <fix>3d</fix>
</trkpt>
<trkpt lat="-27.2744454" lon="151.2900666">
  <ele>445.2</ele>
  <time>2026-09-01T19:52:26Z</time>
  <course>171.26</course>
  <speed>2.23</speed>
  <fix>3d</fix>
</trkpt>
<trkpt lat="-27.2744534" lon="151.2900676">
  <ele>445.49</ele>
  <time>2026-09-01T19:52:26Z</time>
  <course>171.16</course>
  <speed>3.9557679406153237</speed>
  <fix>3d</fix>
</trkpt>
<trkpt lat="-27.2744503" lon="151.2900674">
  <ele>445.39</ele>
  <time>2026-09-01T19:52:26Z</time>
  <course>170.77</course>
  <speed>3.35</speed>
  <fix>3d</fix>
</trkpt>
<trkpt lat="-27.2744572" lon="151.2900684">
  <ele>445.51</ele>
  <time>2026-09-01T19:52:26Z</time>
  <course>170.54</course>
  <speed>4.552208255341577</speed>
  <fix>3d</fix>
</trkpt>
<trkpt lat="-27.2744503" lon="151.2900674">
  <ele>445.39</ele>
  <time>2026-09-01T19:52:26Z</time>
  <course>170.77</course>
  <speed>3.35</speed>
  <fix>3d</fix>
</trkpt>
<trkpt lat="-27.2744615" lon="151.2900693">
  <ele>445.51</ele>
  <time>2026-09-01T19:52:26Z</time>
  <course>169.86</course>
  <speed>5.160862331045074</speed>
  <fix>3d</fix>
</trkpt>
<trkpt lat="-27.2744573" lon="151.2900687">
  <ele>445.47</ele>
  <time>2026-09-01T19:52:26Z</time>
  <course>169.87</course>
  <speed>4.55</speed>
  <fix>3d</fix>
</trkpt>
<trkpt lat="-27.2744663" lon="151.2900704">
  <ele>445.5</ele>
  <time>2026-09-01T19:52:26Z</time>
  <course>168.99</course>
  <speed>5.76589975632598</speed>
  <fix>3d</fix>
</trkpt>
<trkpt lat="-27.2744573" lon="151.2900687">
  <ele>445.47</ele>
  <time>2026-09-01T19:52:26Z</time>
  <course>169.87</course>
  <speed>4.55</speed>
  <fix>3d</fix>
</trkpt>
<trkpt lat="-27.2744717" lon="151.2900716">
  <ele>445.48</ele>
  <time>2026-09-01T19:52:26Z</time>
  <course>168.07</course>
  <speed>6.36830432689896</speed>
  <fix>3d</fix>
</trkpt>
<trkpt lat="-27.2744665" lon="151.2900707">
  <ele>445.47</ele>
  <time>2026-09-01T19:52:26Z</time>
  <course>168.54</course>
  <speed>5.76</speed>
  <fix>3d</fix>
</trkpt>
<trkpt lat="-27.2744776" lon="151.2900732">
  <ele>445.45</ele>
  <time>2026-09-01T19:52:26Z</time>
  <course>167.08</course>
  <speed>6.969146289180619</speed>
  <fix>3d</fix>
</trkpt>
<trkpt lat="-27.2744665" lon="151.2900707">
  <ele>445.47</ele>
  <time>2026-09-01T19:52:26Z</time>
  <course>168.54</course>
  <speed>5.76</speed>
  <fix>3d</fix>
</trkpt>
<trkpt lat="-27.2744839" lon="151.290075">
  <ele>445.42</ele>
  <time>2026-09-01T19:52:26Z</time>
  <course>165.97</course>
  <speed>7.5623078487985405</speed>
  <fix>3d</fix>
</trkpt>
<trkpt lat="-27.2744776" lon="151.2900735">
  <ele>445.42</ele>
  <time>2026-09-01T19:52:26Z</time>
  <course>166.71</course>
  <speed>6.96</speed>
  <fix>3d</fix>
</trkpt>
<trkpt lat="-27.2744907" lon="151.2900771">
  <ele>445.4</ele>
  <time>2026-09-01T19:52:26Z</time>
  <course>164.7</course>
  <speed>8.14707923123373</speed>
  <fix>3d</fix>
</trkpt>
<trkpt lat="-27.2744776" lon="151.2900735">
  <ele>445.42</ele>
  <time>2026-09-01T19:52:26Z</time>
  <course>166.71</course>
  <speed>6.96</speed>
  <fix>3d</fix>
</trkpt>
<trkpt lat="-27.274498" lon="151.2900795">
  <ele>445.37</ele>
  <time>2026-09-01T19:52:26Z</time>
  <course>163.39</course>
  <speed>8.727777494872335</speed>
  <fix>3d</fix>
</trkpt>
<trkpt lat="-27.2744907" lon="151.2900773">
  <ele>445.37</ele>
  <time>2026-09-01T19:52:26Z</time>
  <course>164.4</course>
  <speed>8.14</speed>
  <fix>3d</fix>
</trkpt>
<trkpt lat="-27.2745058" lon="151.2900823">
  <ele>445.35</ele>
  <time>2026-09-01T19:52:26Z</time>
  <course>161.94</course>
  <speed>9.293938885101408</speed>
  <fix>3d</fix>
</trkpt>
<trkpt lat="-27.2744907" lon="151.2900773">
  <ele>445.37</ele>
  <time>2026-09-01T19:52:26Z</time>
  <course>164.4</course>
  <speed>8.14</speed>
  <fix>3d</fix>
</trkpt>
<trkpt lat="-27.274514" lon="151.2900856">
  <ele>445.33</ele>
  <time>2026-09-01T19:52:26Z</time>
  <course>160.43</course>
  <speed>9.860147057726877</speed>
  <fix>3d</fix>
</trkpt>
<trkpt lat="-27.2745057" lon="151.2900824">
  <ele>445.33</ele>
  <time>2026-09-01T19:52:26Z</time>
  <course>161.69</course>
  <speed>9.29</speed>
  <fix>3d</fix>
</trkpt>
<trkpt lat="-27.2745225" lon="151.2900892">
  <ele>445.31</ele>
  <time>2026-09-01T19:52:26Z</time>
  <course>158.89</course>
  <speed>10.393507588874893</speed>
  <fix>3d</fix>
</trkpt>
<trkpt lat="-27.2745057" lon="151.2900824">
  <ele>445.33</ele>
  <time>2026-09-01T19:52:26Z</time>
  <course>161.69</course>
  <speed>9.29</speed>
  <fix>3d</fix>
</trkpt>
<trkpt lat="-27.2745314" lon="151.2900933">
  <ele>445.3</ele>
  <time>2026-09-01T19:52:26Z</time>
  <course>157.46</course>
  <speed>10.897178533914179</speed>
  <fix>3d</fix>
</trkpt>
<trkpt lat="-27.2745224" lon="151.2900891">
  <ele>445.29</ele>
  <time>2026-09-01T19:52:26Z</time>
  <course>158.72</course>
  <speed>10.38</speed>
  <fix>3d</fix>
</trkpt>
<trkpt lat="-27.2745406" lon="151.2900979">
  <ele>445.29</ele>
  <time>2026-09-01T19:52:26Z</time>
  <course>156.05</course>
  <speed>11.39285741155396</speed>
  <fix>3d</fix>
</trkpt>
<trkpt lat="-27.2745224" lon="151.2900891">
  <ele>445.29</ele>
  <time>2026-09-01T19:52:26Z</time>
  <course>158.72</course>
  <speed>10.38</speed>
  <fix>3d</fix>
</trkpt>
<trkpt lat="-27.2745501" lon="151.2901029">
  <ele>445.28</ele>
  <time>2026-09-01T19:52:26Z</time>
  <course>154.66</course>
  <speed>11.864880951783714</speed>
  <fix>3d</fix>
</trkpt>
<trkpt lat="-27.2745404" lon="151.2900977">
  <ele>445.27</ele>
  <time>2026-09-01T19:52:26Z</time>
  <course>155.62</course>
  <speed>11.38</speed>
  <fix>3d</fix>
</trkpt>
<trkpt lat="-27.2745598" lon="151.2901085">
  <ele>445.27</ele>
  <time>2026-09-01T19:52:26Z</time>
  <course>153.32</course>
  <speed>12.354400025901702</speed>
  <fix>3d</fix>
</trkpt>
<trkpt lat="-27.2745404" lon="151.2900977">
  <ele>445.27</ele>
  <time>2026-09-01T19:52:26Z</time>
  <course>155.62</course>
  <speed>11.38</speed>
  <fix>3d</fix>
</trkpt>
<trkpt lat="-27.2745698" lon="151.2901145">
  <ele>445.27</ele>
  <time>2026-09-01T19:52:26Z</time>
  <course>151.94</course>
  <speed>12.813274366843162</speed>
  <fix>3d</fix>
</trkpt>
<trkpt lat="-27.2745596" lon="151.2901082">
  <ele>445.26</ele>
  <time>2026-09-01T19:52:26Z</time>
  <course>152.52</course>
  <speed>12.34</speed>
  <fix>3d</fix>
</trkpt>
<trkpt lat="-27.27458" lon="151.2901211">
  <ele>445.27</ele>
  <time>2026-09-01T19:52:26Z</time>
  <course>150.49</course>
  <speed>13.286101760862739</speed>
  <fix>3d</fix>
</trkpt>
<trkpt lat="-27.2745596" lon="151.2901082">
  <ele>445.26</ele>
  <time>2026-09-01T19:52:26Z</time>
  <course>152.52</course>
  <speed>12.34</speed>
  <fix>3d</fix>
</trkpt>
<trkpt lat="-27.2745904" lon="151.2901283">
  <ele>445.27</ele>
  <time>2026-09-01T19:52:26Z</time>
  <course>149.04</course>
  <speed>13.73341909358336</speed>
  <fix>3d</fix>
</trkpt>
<trkpt lat="-27.2745798" lon="151.2901208">
  <ele>445.26</ele>
  <time>2026-09-01T19:52:26Z</time>
  <course>149.48</course>
  <speed>13.28</speed>
  <fix>3d</fix>
</trkpt>
<trkpt lat="-27.274601" lon="151.2901359">
  <ele>445.27</ele>
  <time>2026-09-01T19:52:26Z</time>
  <course>147.61</course>
  <speed>14.186461856291018</speed>
  <fix>3d</fix>
</trkpt>
<trkpt lat="-27.2745798" lon="151.2901208">
  <ele>445.26</ele>
  <time>2026-09-01T19:52:26Z</time>
  <course>149.48</course>
  <speed>13.28</speed>
  <fix>3d</fix>
</trkpt>
<trkpt lat="-27.2746117" lon="151.2901441">
  <ele>445.27</ele>
  <time>2026-09-01T19:52:26Z</time>
  <course>146.28</course>
  <speed>14.629046448760766</speed>
  <fix>3d</fix>
</trkpt>
<trkpt lat="-27.2746007" lon="151.2901355">
  <ele>445.26</ele>
  <time>2026-09-01T19:52:26Z</time>
  <course>146.55</course>
  <speed>14.19</speed>
  <fix>3d</fix>
</trkpt>
<trkpt lat="-27.2746226" lon="151.2901529">
  <ele>445.28</ele>
  <time>2026-09-01T19:52:26Z</time>
  <course>145.0</course>
  <speed>15.058373086093995</speed>
  <fix>3d</fix>
</trkpt>
<trkpt lat="-27.2746007" lon="151.2901355">
  <ele>445.26</ele>
  <time>2026-09-01T19:52:26Z</time>
  <course>146.55</course>
  <speed>14.19</speed>
  <fix>3d</fix>
</trkpt>
<trkpt lat="-27.2746336" lon="151.2901622">
  <ele>445.27</ele>
  <time>2026-09-01T19:52:26Z</time>
  <course>143.66</course>
  <speed>15.480083979100373</speed>
  <fix>3d</fix>
</trkpt>
<trkpt lat="-27.2746223" lon="151.2901524">
  <ele>445.25</ele>
  <time>2026-09-01T19:52:26Z</time>
  <course>143.74</course>
  <speed>15.06</speed>
  <fix>3d</fix>
</trkpt>
<trkpt lat="-27.2746446" lon="151.2901721">
  <ele>445.27</ele>
  <time>2026-09-01T19:52:26Z</time>
  <course>142.38</course>
  <speed>15.894332323189923</speed>
  <fix>3d</fix>
</trkpt>
<trkpt lat="-27.2746223" lon="151.2901524">
  <ele>445.25</ele>
  <time>2026-09-01T19:52:26Z</time>
  <course>143.74</course>
  <speed>15.06</speed>
  <fix>3d</fix>
</trkpt>
<trkpt lat="-27.2746558" lon="151.2901825">
  <ele>445.26</ele>
  <time>2026-09-01T19:52:26Z</time>
  <course>141.11</course>
  <speed>16.288357805500222</speed>
  <fix>3d</fix>
</trkpt>
<trkpt lat="-27.2746443" lon="151.2901716">
  <ele>445.24</ele>
  <time>2026-09-01T19:52:26Z</time>
  <course>141.07</course>
  <speed>15.89</speed>
  <fix>3d</fix>
</trkpt>
<trkpt lat="-27.274667" lon="151.2901934">
  <ele>445.26</ele>
  <time>2026-09-01T19:52:26Z</time>
  <course>139.87</course>
  <speed>16.66722832386957</speed>
  <fix>3d</fix>
</trkpt>
<trkpt lat="-27.2746443" lon="151.2901716">
  <ele>445.24</ele>
  <time>2026-09-01T19:52:26Z</time>
  <course>141.07</course>
  <speed>15.89</speed>
  <fix>3d</fix>
</trkpt>
<trkpt lat="-27.2746783" lon="151.2902048">
  <ele>445.24</ele>
  <time>2026-09-01T19:52:26Z</time>
  <course>138.68</course>
  <speed>17.039553984773192</speed>
  <fix>3d</fix>
</trkpt>
<trkpt lat="-27.2746667" lon="151.2901928">
  <ele>445.22</ele>
  <time>2026-09-01T19:52:26Z</time>
  <course>138.56</course>
  <speed>16.67</speed>
  <fix>3d</fix>
</trkpt>
<trkpt lat="-27.2746896" lon="151.2902168">
  <ele>445.23</ele>
  <time>2026-09-01T19:52:26Z</time>
  <course>137.43</course>
  <speed>17.40455400175483</speed>
  <fix>3d</fix>
</trkpt>
<trkpt lat="-27.2746667" lon="151.2901928">
  <ele>445.22</ele>
  <time>2026-09-01T19:52:26Z</time>
  <course>138.56</course>
  <speed>16.67</speed>
  <fix>3d</fix>
</trkpt>
<trkpt lat="-27.2747008" lon="151.2902293">
  <ele>445.21</ele>
  <time>2026-09-01T19:52:26Z</time>
  <course>136.3</course>
  <speed>17.748470356625102</speed>
  <fix>3d</fix>
</trkpt>
<trkpt lat="-27.2746892" lon="151.2902161">
  <ele>445.2</ele>
  <time>2026-09-01T19:52:26Z</time>
  <course>136.14</course>
  <speed>17.4</speed>
  <fix>3d</fix>
</trkpt>
<trkpt lat="-27.2747121" lon="151.2902422">
  <ele>445.19</ele>
  <time>2026-09-01T19:52:26Z</time>
  <course>135.13</course>
  <speed>18.08620745208901</speed>
  <fix>3d</fix>
</trkpt>
<trkpt lat="-27.2746892" lon="151.2902161">
  <ele>445.2</ele>
  <time>2026-09-01T19:52:26Z</time>
  <course>136.14</course>
  <speed>17.4</speed>
  <fix>3d</fix>
</trkpt>
<trkpt lat="-27.2747232" lon="151.2902556">
  <ele>445.18</ele>
  <time>2026-09-01T19:52:26Z</time>
  <course>133.84</course>
  <speed>18.404347312523747</speed>
  <fix>3d</fix>
</trkpt>
<trkpt lat="-27.2747117" lon="151.2902416">
  <ele>445.17</ele>
  <time>2026-09-01T19:52:26Z</time>
  <course>133.71</course>
  <speed>18.09</speed>
  <fix>3d</fix>
</trkpt>
<trkpt lat="-27.2747344" lon="151.2902696">
  <ele>445.17</ele>
  <time>2026-09-01T19:52:26Z</time>
  <course>132.52</course>
  <speed>18.710959355415213</speed>
  <fix>3d</fix>
</trkpt>
<trkpt lat="-27.2747117" lon="151.2902416">
  <ele>445.17</ele>
  <time>2026-09-01T19:52:26Z</time>
  <course>133.71</course>
  <speed>18.09</speed>
  <fix>3d</fix>
</trkpt>
<trkpt lat="-27.2747453" lon="151.290284">
  <ele>445.16</ele>
  <time>2026-09-01T19:52:26Z</time>
  <course>131.07</course>
  <speed>19.000673672267517</speed>
  <fix>3d</fix>
</trkpt>
<trkpt lat="-27.274734" lon="151.290269">
  <ele>445.14</ele>
  <time>2026-09-01T19:52:26Z</time>
  <course>131.19</course>
  <speed>18.72</speed>
  <fix>3d</fix>
</trkpt>
<trkpt lat="-27.2747562" lon="151.290299">
  <ele>445.15</ele>
  <time>2026-09-01T19:52:26Z</time>
  <course>129.59</course>
  <speed>19.2845871099176</speed>
  <fix>3d</fix>
</trkpt>
<trkpt lat="-27.274734" lon="151.290269">
  <ele>445.14</ele>
  <time>2026-09-01T19:52:26Z</time>
  <course>131.19</course>
  <speed>18.72</speed>
  <fix>3d</fix>
</trkpt>
<trkpt lat="-27.2747668" lon="151.2903145">
  <ele>445.14</ele>
  <time>2026-09-01T19:52:26Z</time>
  <course>128.01</course>
  <speed>19.55800092033948</speed>
  <fix>3d</fix>
</trkpt>
<trkpt lat="-27.2747559" lon="151.2902985">
  <ele>445.12</ele>
  <time>2026-09-01T19:52:26Z</time>
  <course>128.46</course>
  <speed>19.3</speed>
  <fix>3d</fix>
</trkpt>
<trkpt lat="-27.2747772" lon="151.2903305">
  <ele>445.14</ele>
  <time>2026-09-01T19:52:26Z</time>
  <course>126.28</course>
  <speed>19.815801775350902</speed>
  <fix>3d</fix>
</trkpt>
<trkpt lat="-27.2747559" lon="151.2902985">
  <ele>445.12</ele>
  <time>2026-09-01T19:52:26Z</time>
  <course>128.46</course>
  <speed>19.3</speed>
  <fix>3d</fix>
</trkpt>
<trkpt lat="-27.2747873" lon="151.2903471">
  <ele>445.14</ele>
  <time>2026-09-01T19:52:26Z</time>
  <course>124.41</course>
  <speed>20.07471045868408</speed>
  <fix>3d</fix>
</trkpt>
<trkpt lat="-27.274777" lon="151.2903302">
  <ele>445.1</ele>
  <time>2026-09-01T19:52:26Z</time>
  <course>125.34</course>
  <speed>19.84</speed>
  <fix>3d</fix>
</trkpt>
<trkpt lat="-27.2747971" lon="151.2903642">
  <ele>445.14</ele>
  <time>2026-09-01T19:52:26Z</time>
  <course>122.52</course>
  <speed>20.315326726390595</speed>
  <fix>3d</fix>
</trkpt>
<trkpt lat="-27.274777" lon="151.2903302">
  <ele>445.1</ele>
  <time>2026-09-01T19:52:26Z</time>
  <course>125.34</course>
  <speed>19.84</speed>
  <fix>3d</fix>
</trkpt>
<trkpt lat="-27.2748064" lon="151.290382">
  <ele>445.14</ele>
  <time>2026-09-01T19:52:26Z</time>
  <course>120.49</course>
  <speed>20.55138438159337</speed>
  <fix>3d</fix>
</trkpt>
<trkpt lat="-27.274797" lon="151.2903641">
  <ele>445.1</ele>
  <time>2026-09-01T19:52:26Z</time>
  <course>121.72</course>
  <speed>20.35</speed>
  <fix>3d</fix>
</trkpt>
<trkpt lat="-27.2748153" lon="151.2904003">
  <ele>445.15</ele>
  <time>2026-09-01T19:52:26Z</time>
  <course>118.37</course>
  <speed>20.7754302001186</speed>
  <fix>3d</fix>
</trkpt>
<trkpt lat="-27.274797" lon="151.2903641">
  <ele>445.1</ele>
  <time>2026-09-01T19:52:26Z</time>
  <course>121.72</course>
  <speed>20.35</speed>
  <fix>3d</fix>
</trkpt>
<trkpt lat="-27.2748236" lon="151.2904192">
  <ele>445.16</ele>
  <time>2026-09-01T19:52:26Z</time>
  <course>116.21</course>
  <speed>20.99872615184073</speed>
  <fix>3d</fix>
</trkpt>
<trkpt lat="-27.2748154" lon="151.2904003">
  <ele>445.1</ele>
  <time>2026-09-01T19:52:26Z</time>
  <course>117.56</course>
  <speed>20.81</speed>
  <fix>3d</fix>
</trkpt>
<trkpt lat="-27.2748313" lon="151.2904387">
  <ele>445.17</ele>
  <time>2026-09-01T19:52:26Z</time>
  <course>113.95</course>
  <speed>21.207802809343548</speed>
  <fix>3d</fix>
</trkpt>
<trkpt lat="-27.2748154" lon="151.2904003">
  <ele>445.1</ele>
  <time>2026-09-01T19:52:26Z</time>
  <course>117.56</course>
  <speed>20.81</speed>
  <fix>3d</fix>
</trkpt>
<trkpt lat="-27.2748384" lon="151.2904587">
  <ele>445.18</ele>
  <time>2026-09-01T19:52:26Z</time>
  <course>111.57</course>
  <speed>21.414014102918678</speed>
  <fix>3d</fix>
</trkpt>
<trkpt lat="-27.2748315" lon="151.2904387">
  <ele>445.12</ele>
  <time>2026-09-01T19:52:26Z</time>
  <course>112.96</course>
  <speed>21.24</speed>
  <fix>3d</fix>
</trkpt>
<trkpt lat="-27.2748447" lon="151.2904792">
  <ele>445.2</ele>
  <time>2026-09-01T19:52:26Z</time>
  <course>109.1</course>
  <speed>21.62499017340817</speed>
  <fix>3d</fix>
</trkpt>
<trkpt lat="-27.2748315" lon="151.2904387">
  <ele>445.12</ele>
  <time>2026-09-01T19:52:26Z</time>
  <course>112.96</course>
  <speed>21.24</speed>
  <fix>3d</fix>
</trkpt>
<trkpt lat="-27.2748503" lon="151.2905003">
  <ele>445.22</ele>
  <time>2026-09-01T19:52:26Z</time>
  <course>106.54</course>
  <speed>21.822969550453028</speed>
  <fix>3d</fix>
</trkpt>
<trkpt lat="-27.274845" lon="151.2904793">
  <ele>445.16</ele>
  <time>2026-09-01T19:52:26Z</time>
  <course>108.0</course>
  <speed>21.65</speed>
  <fix>3d</fix>
</trkpt>
<trkpt lat="-27.2748551" lon="151.2905218">
  <ele>445.24</ele>
  <time>2026-09-01T19:52:26Z</time>
  <course>103.97</course>
  <speed>22.015187939238675</speed>
  <fix>3d</fix>
</trkpt>
<trkpt lat="-27.274845" lon="151.2904793">
  <ele>445.16</ele>
  <time>2026-09-01T19:52:26Z</time>
  <course>108.0</course>
  <speed>21.65</speed>
  <fix>3d</fix>
</trkpt>
<trkpt lat="-27.274859" lon="151.2905437">
  <ele>445.26</ele>
  <time>2026-09-01T19:52:26Z</time>
  <course>101.36</course>
  <speed>22.205821308837013</speed>
  <fix>3d</fix>
</trkpt>
<trkpt lat="-27.2748554" lon="151.2905218">
  <ele>445.2</ele>
  <time>2026-09-01T19:52:26Z</time>
  <course>102.77</course>
  <speed>22.04</speed>
  <fix>3d</fix>
</trkpt>
<trkpt lat="-27.274862" lon="151.290566">
  <ele>445.29</ele>
  <time>2026-09-01T19:52:26Z</time>
  <course>98.7</course>
  <speed>22.380833317819064</speed>
  <fix>3d</fix>
</trkpt>
<trkpt lat="-27.2748554" lon="151.2905218">
  <ele>445.2</ele>
  <time>2026-09-01T19:52:26Z</time>
  <course>102.77</course>
  <speed>22.04</speed>
  <fix>3d</fix>
</trkpt>
<trkpt lat="-27.274864" lon="151.2905886">
  <ele>445.32</ele>
  <time>2026-09-01T19:52:26Z</time>
  <course>95.98</course>
  <speed>22.564130827488125</speed>
  <fix>3d</fix>
</trkpt>
<trkpt lat="-27.2748623" lon="151.2905661">
  <ele>445.26</ele>
  <time>2026-09-01T19:52:26Z</time>
  <course>97.34</course>
  <speed>22.4</speed>
  <fix>3d</fix>
</trkpt>
<trkpt lat="-27.2748651" lon="151.2906114">
  <ele>445.35</ele>
  <time>2026-09-01T19:52:26Z</time>
  <course>93.22</course>
  <speed>22.727921154386294</speed>
  <fix>3d</fix>
</trkpt>
<trkpt lat="-27.2748623" lon="151.2905661">
  <ele>445.26</ele>
  <time>2026-09-01T19:52:26Z</time>
  <course>97.34</course>
  <speed>22.4</speed>
  <fix>3d</fix>
</trkpt>
<trkpt lat="-27.2748652" lon="151.2906345">
  <ele>445.39</ele>
  <time>2026-09-01T19:52:26Z</time>
  <course>90.41</course>
  <speed>22.905903169270584</speed>
  <fix>3d</fix>
</trkpt>
<trkpt lat="-27.2748656" lon="151.2906116">
  <ele>445.32</ele>
  <time>2026-09-01T19:52:26Z</time>
  <course>91.77</course>
  <speed>22.75</speed>
  <fix>3d</fix>
</trkpt>
<trkpt lat="-27.2748643" lon="151.2906577">
  <ele>445.42</ele>
  <time>2026-09-01T19:52:26Z</time>
  <course>87.59</course>
  <speed>23.080496095188252</speed>
  <fix>3d</fix>
</trkpt>
<trkpt lat="-27.2748656" lon="151.2906116">
  <ele>445.32</ele>
  <time>2026-09-01T19:52:26Z</time>
  <course>91.77</course>
  <speed>22.75</speed>
  <fix>3d</fix>
</trkpt>
<trkpt lat="-27.2748623" lon="151.2906808">
  <ele>445.46</ele>
  <time>2026-09-01T19:52:26Z</time>
  <course>84.68</course>
  <speed>23.234224755734804</speed>
  <fix>3d</fix>
</trkpt>
<trkpt lat="-27.2748648" lon="151.2906578">
  <ele>445.39</ele>
  <time>2026-09-01T19:52:26Z</time>
  <course>86.09</course>
  <speed>23.07</speed>
  <fix>3d</fix>
</trkpt>
<trkpt lat="-27.2748594" lon="151.2907041">
  <ele>445.49</ele>
  <time>2026-09-01T19:52:26Z</time>
  <course>81.8</course>
  <speed>23.389794783195512</speed>
  <fix>3d</fix>
</trkpt>
<trkpt lat="-27.2748648" lon="151.2906578">
  <ele>445.39</ele>
  <time>2026-09-01T19:52:26Z</time>
  <course>86.09</course>
  <speed>23.07</speed>
  <fix>3d</fix>
</trkpt>
<trkpt lat="-27.2748553" lon="151.2907274">
  <ele>445.53</ele>
  <time>2026-09-01T19:52:26Z</time>
  <course>78.95</course>
  <speed>23.550354562086746</speed>
  <fix>3d</fix>
</trkpt>
<trkpt lat="-27.2748599" lon="151.2907044">
  <ele>445.47</ele>
  <time>2026-09-01T19:52:26Z</time>
  <course>80.3</course>
  <speed>23.39</speed>
  <fix>3d</fix>
</trkpt>
<trkpt lat="-27.27485" lon="151.2907509">
  <ele>445.56</ele>
  <time>2026-09-01T19:52:26Z</time>
  <course>75.99</course>
  <speed>23.70985027367318</speed>
  <fix>3d</fix>
</trkpt>
<trkpt lat="-27.2748599" lon="151.2907044">
  <ele>445.47</ele>
  <time>2026-09-01T19:52:26Z</time>
  <course>80.3</course>
  <speed>23.39</speed>
  <fix>3d</fix>
</trkpt>
<trkpt lat="-27.2748437" lon="151.2907739">
  <ele>445.6</ele>
  <time>2026-09-01T19:52:26Z</time>
  <course>73.07</course>
  <speed>23.85659238030444</speed>
  <fix>3d</fix>
</trkpt>
<trkpt lat="-27.2748507" lon="151.2907508">
  <ele>445.55</ele>
  <time>2026-09-01T19:52:26Z</time>
  <course>74.45</course>
  <speed>23.69</speed>
  <fix>3d</fix>
</trkpt>
<trkpt lat="-27.2748364" lon="151.2907966">
  <ele>445.63</ele>
  <time>2026-09-01T19:52:26Z</time>
  <course>70.13</course>
  <speed>23.99371792782436</speed>
  <fix>3d</fix>
</trkpt>
<trkpt lat="-27.2748507" lon="151.2907508">
  <ele>445.55</ele>
  <time>2026-09-01T19:52:26Z</time>
  <course>74.45</course>
  <speed>23.69</speed>
  <fix>3d</fix>
</trkpt>
<trkpt lat="-27.274828" lon="151.2908189">
  <ele>445.67</ele>
  <time>2026-09-01T19:52:26Z</time>
  <course>67.23</course>
  <speed>24.135685198477375</speed>
  <fix>3d</fix>
</trkpt>
<trkpt lat="-27.2748371" lon="151.2907965">
  <ele>445.63</ele>
  <time>2026-09-01T19:52:26Z</time>
  <course>68.56</course>
  <speed>23.97</speed>
  <fix>3d</fix>
</trkpt>
<trkpt lat="-27.2748185" lon="151.2908409">
  <ele>445.7</ele>
  <time>2026-09-01T19:52:26Z</time>
  <course>64.29</course>
  <speed>24.265458990095368</speed>
  <fix>3d</fix>
</trkpt>
<trkpt lat="-27.2748371" lon="151.2907965">
  <ele>445.63</ele>
  <time>2026-09-01T19:52:26Z</time>
  <course>68.56</course>
  <speed>23.97</speed>
  <fix>3d</fix>
</trkpt>
<trkpt lat="-27.2748079" lon="151.2908624">
  <ele>445.73</ele>
  <time>2026-09-01T19:52:26Z</time>
  <course>61.36</course>
  <speed>24.392787868548357</speed>
  <fix>3d</fix>
</trkpt>
<trkpt lat="-27.2748192" lon="151.2908409">
  <ele>445.7</ele>
  <time>2026-09-01T19:52:26Z</time>
  <course>62.63</course>
  <speed>24.23</speed>
  <fix>3d</fix>
</trkpt>
<trkpt lat="-27.2747964" lon="151.2908833">
  <ele>445.76</ele>
  <time>2026-09-01T19:52:26Z</time>
  <course>58.49</course>
  <speed>24.51785471855154</speed>
  <fix>3d</fix>
</trkpt>
<trkpt lat="-27.2748192" lon="151.2908409">
  <ele>445.7</ele>
  <time>2026-09-01T19:52:26Z</time>
  <course>62.63</course>
  <speed>24.23</speed>
  <fix>3d</fix>
</trkpt>
<trkpt lat="-27.2747838" lon="151.2909037">
  <ele>445.79</ele>
  <time>2026-09-01T19:52:26Z</time>
  <course>55.59</course>
  <speed>24.634717372034128</speed>
  <fix>3d</fix>
</trkpt>
<trkpt lat="-27.2747971" lon="151.2908835">
  <ele>445.77</ele>
  <time>2026-09-01T19:52:26Z</time>
  <course>56.73</course>
  <speed>24.48</speed>
  <fix>3d</fix>
</trkpt>
<trkpt lat="-27.2747703" lon="151.2909234">
  <ele>445.81</ele>
  <time>2026-09-01T19:52:26Z</time>
  <course>52.74</course>
  <speed>24.749054527395586</speed>
  <fix>3d</fix>
</trkpt>
<trkpt lat="-27.2747971" lon="151.2908835">
  <ele>445.77</ele>
  <time>2026-09-01T19:52:26Z</time>
  <course>56.73</course>
  <speed>24.48</speed>
  <fix>3d</fix>
</trkpt>
<trkpt lat="-27.2747558" lon="151.2909423">
  <ele>445.84</ele>
  <time>2026-09-01T19:52:26Z</time>
  <course>49.86</course>
  <speed>24.862666791798503</speed>
  <fix>3d</fix>
</trkpt>
<trkpt lat="-27.274771" lon="151.2909235">
  <ele>445.83</ele>
  <time>2026-09-01T19:52:26Z</time>
  <course>50.89</course>
  <speed>24.71</speed>
  <fix>3d</fix>
</trkpt>
<trkpt lat="-27.2747405" lon="151.2909606">
  <ele>445.86</ele>
  <time>2026-09-01T19:52:26Z</time>
  <course>47.08</course>
  <speed>24.960885400962844</speed>
  <fix>3d</fix>
</trkpt>
<trkpt lat="-27.274771" lon="151.2909235">
  <ele>445.83</ele>
  <time>2026-09-01T19:52:26Z</time>
  <course>50.89</course>
  <speed>24.71</speed>
  <fix>3d</fix>
</trkpt>
<trkpt lat="-27.2747242" lon="151.290978">
  <ele>445.89</ele>
  <time>2026-09-01T19:52:26Z</time>
  <course>44.38</course>
  <speed>25.062497880299162</speed>
  <fix>3d</fix>
</trkpt>
<trkpt lat="-27.2747412" lon="151.2909608">
  <ele>445.89</ele>
  <time>2026-09-01T19:52:26Z</time>
  <course>45.18</course>
  <speed>24.92</speed>
  <fix>3d</fix>
</trkpt>
<trkpt lat="-27.2747073" lon="151.2909946">
  <ele>445.91</ele>
  <time>2026-09-01T19:52:26Z</time>
  <course>41.69</course>
  <speed>25.15721168969248</speed>
  <fix>3d</fix>
</trkpt>
<trkpt lat="-27.2747412" lon="151.2909608">
  <ele>445.89</ele>
  <time>2026-09-01T19:52:26Z</time>
  <course>45.18</course>
  <speed>24.92</speed>
  <fix>3d</fix>
</trkpt>
<trkpt lat="-27.2746895" lon="151.2910103">
  <ele>445.93</ele>
  <time>2026-09-01T19:52:26Z</time>
  <course>39.11</course>
  <speed>25.244066629606255</speed>
  <fix>3d</fix>
</trkpt>
<trkpt lat="-27.2747079" lon="151.2909948">
  <ele>445.94</ele>
  <time>2026-09-01T19:52:26Z</time>
  <course>39.65</course>
  <speed>25.12</speed>
  <fix>3d</fix>
</trkpt>
<trkpt lat="-27.2746711" lon="151.2910252">
  <ele>445.94</ele>
  <time>2026-09-01T19:52:26Z</time>
  <course>36.56</course>
  <speed>25.331107358344997</speed>
  <fix>3d</fix>
</trkpt>
<trkpt lat="-27.2747079" lon="151.2909948">
  <ele>445.94</ele>
  <time>2026-09-01T19:52:26Z</time>
  <course>39.65</course>
  <speed>25.12</speed>
  <fix>3d</fix>
</trkpt>
<trkpt lat="-27.2746521" lon="151.2910391">
  <ele>445.96</ele>
  <time>2026-09-01T19:52:26Z</time>
  <course>34.1</course>
  <speed>25.408905918988324</speed>
  <fix>3d</fix>
</trkpt>
<trkpt lat="-27.2746718" lon="151.2910255">
  <ele>445.97</ele>
  <time>2026-09-01T19:52:26Z</time>
  <course>34.35</course>
  <speed>25.3</speed>
  <fix>3d</fix>
</trkpt>
<trkpt lat="-27.2746324" lon="151.2910521">
  <ele>445.97</ele>
  <time>2026-09-01T19:52:26Z</time>
  <course>31.77</course>
  <speed>25.48072997384494</speed>
  <fix>3d</fix>
</trkpt>
<trkpt lat="-27.2746718" lon="151.2910255">
  <ele>445.97</ele>
  <time>2026-09-01T19:52:26Z</time>
  <course>34.35</course>
  <speed>25.3</speed>
  <fix>3d</fix>
</trkpt>
<trkpt lat="-27.2746122" lon="151.2910642">
  <ele>445.97</ele>
  <time>2026-09-01T19:52:26Z</time>
  <course>29.52</course>
  <speed>25.54948531771237</speed>
  <fix>3d</fix>
</trkpt>
<trkpt lat="-27.2746331" lon="151.2910526">
  <ele>446.01</ele>
  <time>2026-09-01T19:52:26Z</time>
  <course>29.35</course>
  <speed>25.45</speed>
  <fix>3d</fix>
</trkpt>
<trkpt lat="-27.2745918" lon="151.2910754">
  <ele>445.98</ele>
  <time>2026-09-01T19:52:26Z</time>
  <course>27.32</course>
  <speed>25.610288947999006</speed>
  <fix>3d</fix>
</trkpt>
<trkpt lat="-27.2746331" lon="151.2910526">
  <ele>446.01</ele>
  <time>2026-09-01T19:52:26Z</time>
  <course>29.35</course>
  <speed>25.45</speed>
  <fix>3d</fix>
</trkpt>
<trkpt lat="-27.2745707" lon="151.2910857">
  <ele>445.98</ele>
  <time>2026-09-01T19:52:26Z</time>
  <course>25.22</course>
  <speed>25.66798005297651</speed>
  <fix>3d</fix>
</trkpt>
<trkpt lat="-27.2745923" lon="151.2910759">
  <ele>446.02</ele>
  <time>2026-09-01T19:52:26Z</time>
  <course>24.71</course>
  <speed>25.58</speed>
  <fix>3d</fix>
</trkpt>
<trkpt lat="-27.2745493" lon="151.2910952">
  <ele>445.98</ele>
  <time>2026-09-01T19:52:26Z</time>
  <course>23.22</course>
  <speed>25.72246100201145</speed>
  <fix>3d</fix>
</trkpt>
<trkpt lat="-27.2745923" lon="151.2910759">
  <ele>446.02</ele>
  <time>2026-09-01T19:52:26Z</time>
  <course>24.71</course>
  <speed>25.58</speed>
  <fix>3d</fix>
</trkpt>
<trkpt lat="-27.2745275" lon="151.2911038">
  <ele>445.97</ele>
  <time>2026-09-01T19:52:26Z</time>
  <course>21.27</course>
  <speed>25.769503293622098</speed>
  <fix>3d</fix>
</trkpt>
<trkpt lat="-27.2745497" lon="151.2910958">
  <ele>446.03</ele>
  <time>2026-09-01T19:52:26Z</time>
  <course>20.44</course>
  <speed>25.69</speed>
  <fix>3d</fix>
</trkpt>
<trkpt lat="-27.2745053" lon="151.2911117">
  <ele>445.95</ele>
  <time>2026-09-01T19:52:26Z</time>
  <course>19.4</course>
  <speed>25.80242624250673</speed>
  <fix>3d</fix>
</trkpt>
<trkpt lat="-27.2745497" lon="151.2910958">
  <ele>446.03</ele>
  <time>2026-09-01T19:52:26Z</time>
  <course>20.44</course>
  <speed>25.69</speed>
  <fix>3d</fix>
</trkpt>
<trkpt lat="-27.274483" lon="151.2911187">
  <ele>445.94</ele>
  <time>2026-09-01T19:52:26Z</time>
  <course>17.65</course>
  <speed>25.838347470378206</speed>
  <fix>3d</fix>
</trkpt>
<trkpt lat="-27.2745059" lon="151.2911123">
  <ele>446.01</ele>
  <time>2026-09-01T19:52:26Z</time>
  <course>16.53</course>
  <speed>25.78</speed>
  <fix>3d</fix>
</trkpt>
<trkpt lat="-27.2744605" lon="151.291125">
  <ele>445.91</ele>
  <time>2026-09-01T19:52:26Z</time>
  <course>15.97</course>
  <speed>25.876927947497943</speed>
  <fix>3d</fix>
</trkpt>
<trkpt lat="-27.2745059" lon="151.2911123">
  <ele>446.01</ele>
  <time>2026-09-01T19:52:26Z</time>
  <course>16.53</course>
  <speed>25.78</speed>
  <fix>3d</fix>
</trkpt>
<trkpt lat="-27.2744378" lon="151.2911305">
  <ele>445.89</ele>
  <time>2026-09-01T19:52:27Z</time>
  <course>14.38</course>
  <speed>25.905013028369627</speed>
  <fix>3d</fix>
</trkpt>
<trkpt lat="-27.274461" lon="151.2911255">
  <ele>445.97</ele>
  <time>2026-09-01T19:52:27Z</time>
  <course>12.99</course>
  <speed>25.85</speed>
  <fix>3d</fix>
</trkpt>
<trkpt lat="-27.274415" lon="151.2911353">
  <ele>445.86</ele>
  <time>2026-09-01T19:52:27Z</time>
  <course>12.89</course>
  <speed>25.93905356793112</speed>
  <fix>3d</fix>
</trkpt>
<trkpt lat="-27.274461" lon="151.2911255">
  <ele>445.97</ele>
  <time>2026-09-01T19:52:27Z</time>
  <course>12.99</course>
  <speed>25.85</speed>
  <fix>3d</fix>
</trkpt>
<trkpt lat="-27.274392" lon="151.2911394">
  <ele>445.82</ele>
  <time>2026-09-01T19:52:27Z</time>
  <course>11.5</course>
  <speed>25.957937129132585</speed>
  <fix>3d</fix>
</trkpt>
<trkpt lat="-27.2744153" lon="151.2911358">
  <ele>445.93</ele>
  <time>2026-09-01T19:52:27Z</time>
  <course>9.82</course>
  <speed>25.92</speed>
  <fix>3d</fix>
</trkpt>
<trkpt lat="-27.2743688" lon="151.291143">
  <ele>445.79</ele>
  <time>2026-09-01T19:52:27Z</time>
  <course>10.17</course>
  <speed>25.986767786702526</speed>
  <fix>3d</fix>
</trkpt>
<trkpt lat="-27.2744153" lon="151.2911358">
  <ele>445.93</ele>
  <time>2026-09-01T19:52:27Z</time>
  <course>9.82</course>
  <speed>25.92</speed>
  <fix>3d</fix>
</trkpt>
<trkpt lat="-27.2743456" lon="151.2911459">
  <ele>445.74</ele>
  <time>2026-09-01T19:52:27Z</time>
  <course>8.79</course>
  <speed>26.00434579065584</speed>
  <fix>3d</fix>
</trkpt>
<trkpt lat="-27.2743692" lon="151.2911434">
  <ele>445.86</ele>
  <time>2026-09-01T19:52:27Z</time>
  <course>7.0</course>
  <speed>25.97</speed>
  <fix>3d</fix>
</trkpt>
<trkpt lat="-27.2743223" lon="151.2911482">
  <ele>445.71</ele>
  <time>2026-09-01T19:52:27Z</time>
  <course>7.38</course>
  <speed>25.994755240240288</speed>
  <fix>3d</fix>
</trkpt>
<trkpt lat="-27.2743692" lon="151.2911434">
  <ele>445.86</ele>
  <time>2026-09-01T19:52:27Z</time>
  <course>7.0</course>
  <speed>25.97</speed>
  <fix>3d</fix>
</trkpt>
<trkpt lat="-27.274299" lon="151.29115">
  <ele>445.69</ele>
  <time>2026-09-01T19:52:27Z</time>
  <course>6.25</course>
  <speed>25.982757744319596</speed>
  <fix>3d</fix>
</trkpt>
<trkpt lat="-27.2743228" lon="151.2911487">
  <ele>445.8</ele>
  <time>2026-09-01T19:52:27Z</time>
  <course>4.52</course>
  <speed>25.98</speed>
  <fix>3d</fix>
</trkpt>
<trkpt lat="-27.2742757" lon="151.2911514">
  <ele>445.66</ele>
  <time>2026-09-01T19:52:27Z</time>
  <course>5.31</course>
  <speed>25.953747320955408</speed>
  <fix>3d</fix>
</trkpt>
<trkpt lat="-27.2743228" lon="151.2911487">
  <ele>445.8</ele>
  <time>2026-09-01T19:52:27Z</time>
  <course>4.52</course>
  <speed>25.98</speed>
  <fix>3d</fix>
</trkpt>
<trkpt lat="-27.2742525" lon="151.2911524">
  <ele>445.63</ele>
  <time>2026-09-01T19:52:27Z</time>
  <course>4.46</course>
  <speed>25.92265804272394</speed>
  <fix>3d</fix>
</trkpt>
<trkpt lat="-27.2742762" lon="151.2911519">
  <ele>445.74</ele>
  <time>2026-09-01T19:52:27Z</time>
  <course>2.59</course>
  <speed>25.95</speed>
  <fix>3d</fix>
</trkpt>
<trkpt lat="-27.2742292" lon="151.2911531">
  <ele>445.57</ele>
  <time>2026-09-01T19:52:27Z</time>
  <course>3.75</course>
  <speed>25.895841364975958</speed>
  <fix>3d</fix>
</trkpt>
<trkpt lat="-27.2742762" lon="151.2911519">
  <ele>445.74</ele>
  <time>2026-09-01T19:52:27Z</time>
  <course>2.59</course>
  <speed>25.95</speed>
  <fix>3d</fix>
</trkpt>
<trkpt lat="-27.2742059" lon="151.2911536">
  <ele>445.5</ele>
  <time>2026-09-01T19:52:27Z</time>
  <course>3.04</course>
  <speed>25.871979050702713</speed>
  <fix>3d</fix>
</trkpt>
<trkpt lat="-27.2742297" lon="151.2911537">
  <ele>445.64</ele>
  <time>2026-09-01T19:52:27Z</time>
  <course>1.29</course>
  <speed>25.89</speed>
  <fix>3d</fix>
</trkpt>
<trkpt lat="-27.2741827" lon="151.2911539">
  <ele>445.41</ele>
  <time>2026-09-01T19:52:27Z</time>
  <course>2.45</course>
  <speed>25.850234041493703</speed>
  <fix>3d</fix>
</trkpt>
<trkpt lat="-27.2742297" lon="151.2911537">
  <ele>445.64</ele>
  <time>2026-09-01T19:52:27Z</time>
  <course>1.29</course>
  <speed>25.89</speed>
  <fix>3d</fix>
</trkpt>
<trkpt lat="-27.2741594" lon="151.2911539">
  <ele>445.29</ele>
  <time>2026-09-01T19:52:27Z</time>
  <course>1.82</course>
  <speed>25.84012383871254</speed>
  <fix>3d</fix>
</trkpt>
<trkpt lat="-27.2741832" lon="151.2911543">
  <ele>445.47</ele>
  <time>2026-09-01T19:52:27Z</time>
  <course>0.28</course>
  <speed>25.85</speed>
  <fix>3d</fix>
</trkpt>
<trkpt lat="-27.2741362" lon="151.2911538">
  <ele>445.16</ele>
  <time>2026-09-01T19:52:27Z</time>
  <course>1.27</course>
  <speed>25.821518158311296</speed>
  <fix>3d</fix>
</trkpt>
<trkpt lat="-27.2741832" lon="151.2911543">
  <ele>445.47</ele>
  <time>2026-09-01T19:52:27Z</time>
  <course>0.28</course>
  <speed>25.85</speed>
  <fix>3d</fix>
</trkpt>
<trkpt lat="-27.2741132" lon="151.2911534">
  <ele>445.01</ele>
  <time>2026-09-01T19:52:27Z</time>
  <course>0.76</course>
  <speed>25.814278994386033</speed>
  <fix>3d</fix>
</trkpt>
<trkpt lat="-27.2741368" lon="151.2911543">
  <ele>445.24</ele>
  <time>2026-09-01T19:52:27Z</time>
  <course>359.39</course>
  <speed>25.82</speed>
  <fix>3d</fix>
</trkpt>
<trkpt lat="-27.27409" lon="151.2911529">
  <ele>444.84</ele>
  <time>2026-09-01T19:52:27Z</time>
  <course>0.26</course>
  <speed>25.808186685623614</speed>
  <fix>3d</fix>
</trkpt>
<trkpt lat="-27.2741368" lon="151.2911543">
  <ele>445.24</ele>
  <time>2026-09-01T19:52:27Z</time>
  <course>359.39</course>
  <speed>25.82</speed>
  <fix>3d</fix>
</trkpt>
<trkpt lat="-27.2740668" lon="151.2911522">
  <ele>444.67</ele>
  <time>2026-09-01T19:52:27Z</time>
  <course>359.79</course>
  <speed>25.813027718576528</speed>
  <fix>3d</fix>
</trkpt>
<trkpt lat="-27.2740905" lon="151.2911533">
  <ele>444.94</ele>
  <time>2026-09-01T19:52:27Z</time>
  <course>358.56</course>
  <speed>25.81</speed>
  <fix>3d</fix>
</trkpt>
<trkpt lat="-27.2740437" lon="151.2911514">
  <ele>444.49</ele>
  <time>2026-09-01T19:52:27Z</time>
  <course>359.28</course>
  <speed>25.818987199346143</speed>
  <fix>3d</fix>
</trkpt>
<trkpt lat="-27.2740905" lon="151.2911533">
  <ele>444.94</ele>
  <time>2026-09-01T19:52:27Z</time>
  <course>358.56</course>
  <speed>25.81</speed>
  <fix>3d</fix>
</trkpt>
<trkpt lat="-27.2740203" lon="151.2911503">
  <ele>444.3</ele>
  <time>2026-09-01T19:52:27Z</time>
  <course>358.85</course>
  <speed>25.83516402115535</speed>
  <fix>3d</fix>
</trkpt>
<trkpt lat="-27.2740441" lon="151.2911517">
  <ele>444.59</ele>
  <time>2026-09-01T19:52:27Z</time>
  <course>357.81</course>
  <speed>25.82</speed>
  <fix>3d</fix>
</trkpt>
<trkpt lat="-27.2739971" lon="151.2911491">
  <ele>444.12</ele>
  <time>2026-09-01T19:52:27Z</time>
  <course>358.38</course>
  <speed>25.842217397119775</speed>
  <fix>3d</fix>
</trkpt>
<trkpt lat="-27.2740441" lon="151.2911517">
  <ele>444.59</ele>
  <time>2026-09-01T19:52:27Z</time>
  <course>357.81</course>
  <speed>25.82</speed>
  <fix>3d</fix>
</trkpt>
<trkpt lat="-27.2739739" lon="151.2911478">
  <ele>443.93</ele>
  <time>2026-09-01T19:52:27Z</time>
  <course>357.98</course>
  <speed>25.869553533062764</speed>
  <fix>3d</fix>
</trkpt>
<trkpt lat="-27.2739977" lon="151.2911495">
  <ele>444.23</ele>
  <time>2026-09-01T19:52:27Z</time>
  <course>357.15</course>
  <speed>25.85</speed>
  <fix>3d</fix>
</trkpt>
<trkpt lat="-27.2739507" lon="151.2911463">
  <ele>443.75</ele>
  <time>2026-09-01T19:52:27Z</time>
  <course>357.65</course>
  <speed>25.886446260543376</speed>
  <fix>3d</fix>
</trkpt>
<trkpt lat="-27.2739977" lon="151.2911495">
  <ele>444.23</ele>
  <time>2026-09-01T19:52:27Z</time>
  <course>357.15</course>
  <speed>25.85</speed>
  <fix>3d</fix>
</trkpt>
<trkpt lat="-27.2739275" lon="151.2911447">
  <ele>443.57</ele>
  <time>2026-09-01T19:52:27Z</time>
  <course>357.32</course>
  <speed>25.903887739102018</speed>
  <fix>3d</fix>
</trkpt>
<trkpt lat="-27.2739513" lon="151.2911466">
  <ele>443.87</ele>
  <time>2026-09-01T19:52:27Z</time>
  <course>356.57</course>
  <speed>25.89</speed>
  <fix>3d</fix>
</trkpt>
<trkpt lat="-27.2739042" lon="151.291143">
  <ele>443.4</ele>
  <time>2026-09-01T19:52:27Z</time>
  <course>357.02</course>
  <speed>25.931164647967513</speed>
  <fix>3d</fix>
</trkpt>
<trkpt lat="-27.2739513" lon="151.2911466">
  <ele>443.87</ele>
  <time>2026-09-01T19:52:27Z</time>
  <course>356.57</course>
  <speed>25.89</speed>
  <fix>3d</fix>
</trkpt>
<trkpt lat="-27.273881" lon="151.2911411">
  <ele>443.24</ele>
  <time>2026-09-01T19:52:27Z</time>
  <course>356.78</course>
  <speed>25.95816827127831</speed>
  <fix>3d</fix>
</trkpt>
<trkpt lat="-27.2739047" lon="151.2911432">
  <ele>443.53</ele>
  <time>2026-09-01T19:52:27Z</time>
  <course>356.07</course>
  <speed>25.93</speed>
  <fix>3d</fix>
</trkpt>
<trkpt lat="-27.2738577" lon="151.2911392">
  <ele>443.08</ele>
  <time>2026-09-01T19:52:27Z</time>
  <course>356.55</course>
  <speed>25.9748128000954</speed>
  <fix>3d</fix>
</trkpt>
<trkpt lat="-27.2739047" lon="151.2911432">
  <ele>443.53</ele>
  <time>2026-09-01T19:52:27Z</time>
  <course>356.07</course>
  <speed>25.93</speed>
  <fix>3d</fix>
</trkpt>
<trkpt lat="-27.2738344" lon="151.2911372">
  <ele>442.93</ele>
  <time>2026-09-01T19:52:27Z</time>
  <course>356.31</course>
  <speed>26.000940367609783</speed>
  <fix>3d</fix>
</trkpt>
<trkpt lat="-27.2738582" lon="151.2911394">
  <ele>443.21</ele>
  <time>2026-09-01T19:52:27Z</time>
  <course>355.66</course>
  <speed>25.99</speed>
  <fix>3d</fix>
</trkpt>
<trkpt lat="-27.2738111" lon="151.2911351">
  <ele>442.79</ele>
  <time>2026-09-01T19:52:27Z</time>
  <course>356.07</course>
  <speed>26.02648650893931</speed>
  <fix>3d</fix>
</trkpt>
<trkpt lat="-27.2738582" lon="151.2911394">
  <ele>443.21</ele>
  <time>2026-09-01T19:52:27Z</time>
  <course>355.66</course>
  <speed>25.99</speed>
  <fix>3d</fix>
</trkpt>
<trkpt lat="-27.2737878" lon="151.2911329">
  <ele>442.65</ele>
  <time>2026-09-01T19:52:27Z</time>
  <course>355.9</course>
  <speed>26.052211038604764</speed>
  <fix>3d</fix>
</trkpt>
<trkpt lat="-27.2738116" lon="151.2911353">
  <ele>442.91</ele>
  <time>2026-09-01T19:52:27Z</time>
  <course>355.33</course>
  <speed>26.04</speed>
  <fix>3d</fix>
</trkpt>
<trkpt lat="-27.2737645" lon="151.2911307">
  <ele>442.52</ele>
  <time>2026-09-01T19:52:27Z</time>
  <course>355.8</course>
  <speed>26.07638778665481</speed>
  <fix>3d</fix>
</trkpt>
<trkpt lat="-27.2738116" lon="151.2911353">
  <ele>442.91</ele>
  <time>2026-09-01T19:52:27Z</time>
  <course>355.33</course>
  <speed>26.04</speed>
  <fix>3d</fix>
</trkpt>
<trkpt lat="-27.2737411" lon="151.2911284">
  <ele>442.4</ele>
  <time>2026-09-01T19:52:27Z</time>
  <course>355.62</course>
  <speed>26.10065324853001</speed>
  <fix>3d</fix>
</trkpt>
<trkpt lat="-27.273765" lon="151.2911308">
  <ele>442.66</ele>
  <time>2026-09-01T19:52:27Z</time>
  <course>355.08</course>
  <speed>26.09</speed>
  <fix>3d</fix>
</trkpt>
<trkpt lat="-27.2737175" lon="151.2911261">
  <ele>442.29</ele>
  <time>2026-09-01T19:52:27Z</time>
  <course>355.5</course>
  <speed>26.13407354393876</speed>
  <fix>3d</fix>
</trkpt>
<trkpt lat="-27.273765" lon="151.2911308">
  <ele>442.66</ele>
  <time>2026-09-01T19:52:27Z</time>
  <course>355.08</course>
  <speed>26.09</speed>
  <fix>3d</fix>
</trkpt>
<trkpt lat="-27.2736941" lon="151.2911237">
  <ele>442.19</ele>
  <time>2026-09-01T19:52:27Z</time>
  <course>355.36</course>
  <speed>26.156683658292767</speed>
  <fix>3d</fix>
</trkpt>
<trkpt lat="-27.2737183" lon="151.2911262">
  <ele>442.43</ele>
  <time>2026-09-01T19:52:27Z</time>
  <course>354.9</course>
  <speed>26.14</speed>
  <fix>3d</fix>
</trkpt>
<trkpt lat="-27.2736707" lon="151.2911213">
  <ele>442.09</ele>
  <time>2026-09-01T19:52:27Z</time>
  <course>355.24</course>
  <speed>26.17932390265264</speed>
  <fix>3d</fix>
</trkpt>
<trkpt lat="-27.2737183" lon="151.2911262">
  <ele>442.43</ele>
  <time>2026-09-01T19:52:27Z</time>
  <course>354.9</course>
  <speed>26.14</speed>
  <fix>3d</fix>
</trkpt>
<trkpt lat="-27.2736474" lon="151.2911189">
  <ele>442.01</ele>
  <time>2026-09-01T19:52:27Z</time>
  <course>355.18</course>
  <speed>26.20199419891547</speed>
  <fix>3d</fix>
</trkpt>
<trkpt lat="-27.2736714" lon="151.2911215">
  <ele>442.24</ele>
  <time>2026-09-01T19:52:27Z</time>
  <course>354.77</course>
  <speed>26.19</speed>
  <fix>3d</fix>
</trkpt>
<trkpt lat="-27.2736239" lon="151.2911165">
  <ele>441.93</ele>
  <time>2026-09-01T19:52:27Z</time>
  <course>355.1</course>
  <speed>26.223762125217654</speed>
  <fix>3d</fix>
</trkpt>
<trkpt lat="-27.2736714" lon="151.2911215">
  <ele>442.24</ele>
  <time>2026-09-01T19:52:27Z</time>
  <course>354.77</course>
  <speed>26.19</speed>
  <fix>3d</fix>
</trkpt>
<trkpt lat="-27.2736004" lon="151.291114">
  <ele>441.86</ele>
  <time>2026-09-01T19:52:27Z</time>
  <course>355.03</course>
  <speed>26.234650750486463</speed>
  <fix>3d</fix>
</trkpt>
<trkpt lat="-27.2736245" lon="151.2911166">
  <ele>442.07</ele>
  <time>2026-09-01T19:52:27Z</time>
  <course>354.68</course>
  <speed>26.24</speed>
  <fix>3d</fix>
</trkpt>
<trkpt lat="-27.2735769" lon="151.2911115">
  <ele>441.79</ele>
  <time>2026-09-01T19:52:27Z</time>
  <course>355.02</course>
  <speed>26.25643730592557</speed>
  <fix>3d</fix>
</trkpt>
<trkpt lat="-27.2736245" lon="151.2911166">
  <ele>442.07</ele>
  <time>2026-09-01T19:52:27Z</time>
  <course>354.68</course>
  <speed>26.24</speed>
  <fix>3d</fix>
</trkpt>
<trkpt lat="-27.2735533" lon="151.291109">
  <ele>441.73</ele>
  <time>2026-09-01T19:52:27Z</time>
  <course>354.99</course>
  <speed>26.276348680895527</speed>
  <fix>3d</fix>
</trkpt>
<trkpt lat="-27.2735776" lon="151.2911116">
  <ele>441.94</ele>
  <time>2026-09-01T19:52:27Z</time>
  <course>354.62</course>
  <speed>26.28</speed>
  <fix>3d</fix>
</trkpt>
<trkpt lat="-27.2735296" lon="151.2911065">
  <ele>441.68</ele>
  <time>2026-09-01T19:52:27Z</time>
  <course>354.98</course>
  <speed>26.287245956927478</speed>
  <fix>3d</fix>
</trkpt>
<trkpt lat="-27.2735776" lon="151.2911116">
  <ele>441.94</ele>
  <time>2026-09-01T19:52:27Z</time>
  <course>354.62</course>
  <speed>26.28</speed>
  <fix>3d</fix>
</trkpt>
<trkpt lat="-27.273506" lon="151.291104">
  <ele>441.64</ele>
  <time>2026-09-01T19:52:27Z</time>
  <course>354.94</course>
  <speed>26.307156820910922</speed>
  <fix>3d</fix>
</trkpt>
<trkpt lat="-27.2735306" lon="151.2911067">
  <ele>441.83</ele>
  <time>2026-09-01T19:52:27Z</time>
  <course>354.6</course>
  <speed>26.31</speed>
  <fix>3d</fix>
</trkpt>
<trkpt lat="-27.2734826" lon="151.2911015">
  <ele>441.6</ele>
  <time>2026-09-01T19:52:27Z</time>
  <course>354.93</course>
  <speed>26.317112303594403</speed>
  <fix>3d</fix>
</trkpt>
<trkpt lat="-27.2735306" lon="151.2911067">
  <ele>441.83</ele>
  <time>2026-09-01T19:52:27Z</time>
  <course>354.6</course>
  <speed>26.31</speed>
  <fix>3d</fix>
</trkpt>
<trkpt lat="-27.2734591" lon="151.291099">
  <ele>441.57</ele>
  <time>2026-09-01T19:52:27Z</time>
  <course>354.94</course>
  <speed>26.317112303594403</speed>
  <fix>3d</fix>
</trkpt>
<trkpt lat="-27.2734834" lon="151.2911017">
  <ele>441.74</ele>
  <time>2026-09-01T19:52:27Z</time>
  <course>354.59</course>
  <speed>26.34</speed>
  <fix>3d</fix>
</trkpt>
<trkpt lat="-27.2734356" lon="151.2910965">
  <ele>441.54</ele>
  <time>2026-09-01T19:52:27Z</time>
  <course>354.95</course>
  <speed>26.32706782002128</speed>
  <fix>3d</fix>
</trkpt>
<trkpt lat="-27.2734834" lon="151.2911017">
  <ele>441.74</ele>
  <time>2026-09-01T19:52:27Z</time>
  <course>354.59</course>
  <speed>26.34</speed>
  <fix>3d</fix>
</trkpt>
<trkpt lat="-27.2734122" lon="151.291094">
  <ele>441.52</ele>
  <time>2026-09-01T19:52:27Z</time>
  <course>354.96</course>
  <speed>26.326127706140152</speed>
  <fix>3d</fix>
</trkpt>
<trkpt lat="-27.2734362" lon="151.2910967">
  <ele>441.67</ele>
  <time>2026-09-01T19:52:27Z</time>
  <course>354.61</course>
  <speed>26.36</speed>
  <fix>3d</fix>
</trkpt>
<trkpt lat="-27.2733887" lon="151.2910916">
  <ele>441.5</ele>
  <time>2026-09-01T19:52:27Z</time>
  <course>354.97</course>
  <speed>26.33608361165342</speed>
  <fix>3d</fix>
</trkpt>
<trkpt lat="-27.2734362" lon="151.2910967">
  <ele>441.67</ele>
  <time>2026-09-01T19:52:27Z</time>
  <course>354.61</course>
  <speed>26.36</speed>
  <fix>3d</fix>
</trkpt>
<trkpt lat="-27.2733652" lon="151.2910891">
  <ele>441.49</ele>
  <time>2026-09-01T19:52:27Z</time>
  <course>354.97</course>
  <speed>26.335147616825694</speed>
  <fix>3d</fix>
</trkpt>
<trkpt lat="-27.273389" lon="151.2910916">
  <ele>441.63</ele>
  <time>2026-09-01T19:52:27Z</time>
  <course>354.64</course>
  <speed>26.38</speed>
  <fix>3d</fix>
</trkpt>
<trkpt lat="-27.2733418" lon="151.2910866">
  <ele>441.49</ele>
  <time>2026-09-01T19:52:27Z</time>
  <course>354.99</course>
  <speed>26.33328691979032</speed>
  <fix>3d</fix>
</trkpt>
<trkpt lat="-27.273389" lon="151.2910916">
  <ele>441.63</ele>
  <time>2026-09-01T19:52:27Z</time>
  <course>354.64</course>
  <speed>26.38</speed>
  <fix>3d</fix>
</trkpt>
<trkpt lat="-27.2733183" lon="151.2910842">
  <ele>441.48</ele>
  <time>2026-09-01T19:52:27Z</time>
  <course>355.03</course>
  <speed>26.332362218380634</speed>
  <fix>3d</fix>
</trkpt>
<trkpt lat="-27.2733418" lon="151.2910867">
  <ele>441.61</ele>
  <time>2026-09-01T19:52:27Z</time>
  <course>354.68</course>
  <speed>26.39</speed>
  <fix>3d</fix>
</trkpt>
<trkpt lat="-27.2732948" lon="151.2910818">
  <ele>441.48</ele>
  <time>2026-09-01T19:52:27Z</time>
  <course>355.07</course>
  <speed>26.33052411176048</speed>
  <fix>3d</fix>
</trkpt>
<trkpt lat="-27.2733418" lon="151.2910867">
  <ele>441.61</ele>
  <time>2026-09-01T19:52:27Z</time>
  <course>354.68</course>
  <speed>26.39</speed>
  <fix>3d</fix>
</trkpt>
<trkpt lat="-27.2732713" lon="151.2910793">
  <ele>441.48</ele>
  <time>2026-09-01T19:52:27Z</time>
  <course>355.1</course>
  <speed>26.31965235332716</speed>
  <fix>3d</fix>
</trkpt>
<trkpt lat="-27.2732946" lon="151.2910818">
  <ele>441.61</ele>
  <time>2026-09-01T19:52:27Z</time>
  <course>354.74</course>
  <speed>26.4</speed>
  <fix>3d</fix>
</trkpt>
<trkpt lat="-27.2732478" lon="151.2910769">
  <ele>441.49</ele>
  <time>2026-09-01T19:52:27Z</time>
  <course>355.08</course>
  <speed>26.318742371169638</speed>
  <fix>3d</fix>
</trkpt>
<trkpt lat="-27.2732946" lon="151.2910818">
  <ele>441.61</ele>
  <time>2026-09-01T19:52:27Z</time>
  <course>354.74</course>
  <speed>26.4</speed>
  <fix>3d</fix>
</trkpt>
<trkpt lat="-27.2732243" lon="151.2910745">
  <ele>441.51</ele>
  <time>2026-09-01T19:52:27Z</time>
  <course>355.14</course>
  <speed>26.317836157252746</speed>
  <fix>3d</fix>
</trkpt>
<trkpt lat="-27.2732474" lon="151.2910769">
  <ele>441.62</ele>
  <time>2026-09-01T19:52:27Z</time>
  <course>354.79</course>
  <speed>26.39</speed>
  <fix>3d</fix>
</trkpt>
<trkpt lat="-27.2732008" lon="151.2910721">
  <ele>441.52</ele>
  <time>2026-09-01T19:52:27Z</time>
  <course>355.17</course>
  <speed>26.306075343920078</speed>
  <fix>3d</fix>
</trkpt>
<trkpt lat="-27.2732474" lon="151.2910769">
  <ele>441.62</ele>
  <time>2026-09-01T19:52:27Z</time>
  <course>354.79</course>
  <speed>26.39</speed>
  <fix>3d</fix>
</trkpt>
<trkpt lat="-27.2731772" lon="151.2910698">
  <ele>441.54</ele>
  <time>2026-09-01T19:52:27Z</time>
  <course>355.16</course>
  <speed>26.295220097956967</speed>
  <fix>3d</fix>
</trkpt>
<trkpt lat="-27.2732002" lon="151.291072">
  <ele>441.64</ele>
  <time>2026-09-01T19:52:27Z</time>
  <course>354.84</course>
  <speed>26.39</speed>
  <fix>3d</fix>
</trkpt>
<trkpt lat="-27.2731537" lon="151.2910674">
  <ele>441.56</ele>
  <time>2026-09-01T19:52:27Z</time>
  <course>355.14</course>
  <speed>26.28436797794461</speed>
  <fix>3d</fix>
</trkpt>
<trkpt lat="-27.2732002" lon="151.291072">
  <ele>441.64</ele>
  <time>2026-09-01T19:52:27Z</time>
  <course>354.84</course>
  <speed>26.39</speed>
  <fix>3d</fix>
</trkpt>
<trkpt lat="-27.2731302" lon="151.291065">
  <ele>441.59</ele>
  <time>2026-09-01T19:52:27Z</time>
  <course>355.12</course>
  <speed>26.274407700269858</speed>
  <fix>3d</fix>
</trkpt>
<trkpt lat="-27.273153" lon="151.2910673">
  <ele>441.68</ele>
  <time>2026-09-01T19:52:27Z</time>
  <course>354.87</course>
  <speed>26.37</speed>
  <fix>3d</fix>
</trkpt>
<trkpt lat="-27.2731067" lon="151.2910627">
  <ele>441.61</ele>
  <time>2026-09-01T19:52:27Z</time>
  <course>355.16</course>
  <speed>26.263558403232413</speed>
  <fix>3d</fix>
</trkpt>
<trkpt lat="-27.273153" lon="151.2910673">
  <ele>441.68</ele>
  <time>2026-09-01T19:52:27Z</time>
  <course>354.87</course>
  <speed>26.37</speed>
  <fix>3d</fix>
</trkpt>
<trkpt lat="-27.2730832" lon="151.2910603">
  <ele>441.64</ele>
  <time>2026-09-01T19:52:27Z</time>
  <course>355.24</course>
  <speed>26.252712240833326</speed>
  <fix>3d</fix>
</trkpt>
<trkpt lat="-27.2731058" lon="151.2910626">
  <ele>441.72</ele>
  <time>2026-09-01T19:52:27Z</time>
  <course>354.91</course>
  <speed>26.35</speed>
  <fix>3d</fix>
</trkpt>
<trkpt lat="-27.2730595" lon="151.291058">
  <ele>441.66</ele>
  <time>2026-09-01T19:52:27Z</time>
  <course>355.27</course>
  <speed>26.240990834951337</speed>
  <fix>3d</fix>
</trkpt>
<trkpt lat="-27.2731058" lon="151.2910626">
  <ele>441.72</ele>
  <time>2026-09-01T19:52:27Z</time>
  <course>354.91</course>
  <speed>26.35</speed>
  <fix>3d</fix>
</trkpt>
<trkpt lat="-27.273036" lon="151.2910557">
  <ele>441.69</ele>
  <time>2026-09-01T19:52:27Z</time>
  <course>355.27</course>
  <speed>26.23015440290049</speed>
  <fix>3d</fix>
</trkpt>
<trkpt lat="-27.2730587" lon="151.2910579">
  <ele>441.78</ele>
  <time>2026-09-01T19:52:27Z</time>
  <course>354.94</course>
  <speed>26.33</speed>
  <fix>3d</fix>
</trkpt>
<trkpt lat="-27.2730125" lon="151.2910533">
  <ele>441.72</ele>
  <time>2026-09-01T19:52:27Z</time>
  <course>355.31</course>
  <speed>26.219321120120558</speed>
  <fix>3d</fix>
</trkpt>
<trkpt lat="-27.2730587" lon="151.2910579">
  <ele>441.78</ele>
  <time>2026-09-01T19:52:27Z</time>
  <course>354.94</course>
  <speed>26.33</speed>
  <fix>3d</fix>
</trkpt>
<trkpt lat="-27.272989" lon="151.291051">
  <ele>441.75</ele>
  <time>2026-09-01T19:52:27Z</time>
  <course>355.35</course>
  <speed>26.20762675253141</speed>
  <fix>3d</fix>
</trkpt>
<trkpt lat="-27.2730115" lon="151.2910532">
  <ele>441.83</ele>
  <time>2026-09-01T19:52:27Z</time>
  <course>354.99</course>
  <speed>26.31</speed>
  <fix>3d</fix>
</trkpt>
<trkpt lat="-27.2729654" lon="151.2910487">
  <ele>441.77</ele>
  <time>2026-09-01T19:52:27Z</time>
  <course>355.38</course>
  <speed>26.20676630185418</speed>
  <fix>3d</fix>
</trkpt>
<trkpt lat="-27.2730115" lon="151.2910532">
  <ele>441.83</ele>
  <time>2026-09-01T19:52:27Z</time>
  <course>354.99</course>
  <speed>26.31</speed>
  <fix>3d</fix>
</trkpt>
<trkpt lat="-27.2729419" lon="151.2910465">
  <ele>441.8</ele>
  <time>2026-09-01T19:52:27Z</time>
  <course>355.35</course>
  <speed>26.18598289161589</speed>
  <fix>3d</fix>
</trkpt>
<trkpt lat="-27.2729643" lon="151.2910486">
  <ele>441.89</ele>
  <time>2026-09-01T19:52:27Z</time>
  <course>355.04</course>
  <speed>26.28</speed>
  <fix>3d</fix>
</trkpt>
<trkpt lat="-27.2729184" lon="151.2910442">
  <ele>441.83</ele>
  <time>2026-09-01T19:52:27Z</time>
  <course>355.36</course>
  <speed>26.184279634925993</speed>
  <fix>3d</fix>
</trkpt>
<trkpt lat="-27.2729643" lon="151.2910486">
  <ele>441.89</ele>
  <time>2026-09-01T19:52:27Z</time>
  <course>355.04</course>
  <speed>26.28</speed>
  <fix>3d</fix>
</trkpt>
<trkpt lat="-27.2728949" lon="151.291042">
  <ele>441.86</ele>
  <time>2026-09-01T19:52:27Z</time>
  <course>355.42</course>
  <speed>26.173469391733303</speed>
  <fix>3d</fix>
</trkpt>
<trkpt lat="-27.2729172" lon="151.291044">
  <ele>441.95</ele>
  <time>2026-09-01T19:52:27Z</time>
  <course>355.09</course>
  <speed>26.26</speed>
  <fix>3d</fix>
</trkpt>
<trkpt lat="-27.2728714" lon="151.2910397">
  <ele>441.89</ele>
  <time>2026-09-01T19:52:27Z</time>
  <course>355.48</course>
  <speed>26.161823330953062</speed>
  <fix>3d</fix>
</trkpt>
<trkpt lat="-27.2729172" lon="151.291044">
  <ele>441.95</ele>
  <time>2026-09-01T19:52:27Z</time>
  <course>355.09</course>
  <speed>26.26</speed>
  <fix>3d</fix>
</trkpt>
<trkpt lat="-27.2728479" lon="151.2910375">
  <ele>441.92</ele>
  <time>2026-09-01T19:52:27Z</time>
  <course>355.47</course>
  <speed>26.151022924543508</speed>
  <fix>3d</fix>
</trkpt>
<trkpt lat="-27.2728703" lon="151.2910395">
  <ele>442.01</ele>
  <time>2026-09-01T19:52:27Z</time>
  <course>355.14</course>
  <speed>26.23</speed>
  <fix>3d</fix>
</trkpt>
<trkpt lat="-27.2728244" lon="151.2910353">
  <ele>441.96</ele>
  <time>2026-09-01T19:52:27Z</time>
  <course>355.5</course>
  <speed>26.140225706753185</speed>
  <fix>3d</fix>
</trkpt>
<trkpt lat="-27.2728703" lon="151.2910395">
  <ele>442.01</ele>
  <time>2026-09-01T19:52:27Z</time>
  <course>355.14</course>
  <speed>26.23</speed>
  <fix>3d</fix>
</trkpt>
<trkpt lat="-27.2728009" lon="151.2910331">
  <ele>441.99</ele>
  <time>2026-09-01T19:52:27Z</time>
  <course>355.51</course>
  <speed>26.11946592103292</speed>
  <fix>3d</fix>
</trkpt>
<trkpt lat="-27.2728234" lon="151.291035">
  <ele>442.07</ele>
  <time>2026-09-01T19:52:27Z</time>
  <course>355.19</course>
  <speed>26.2</speed>
  <fix>3d</fix>
</trkpt>
<trkpt lat="-27.2727774" lon="151.2910309">
  <ele>442.02</ele>
  <time>2026-09-01T19:52:27Z</time>
  <course>355.53</course>
  <speed>26.11864085284684</speed>
  <fix>3d</fix>
</trkpt>
<trkpt lat="-27.2728234" lon="151.291035">
  <ele>442.07</ele>
  <time>2026-09-01T19:52:27Z</time>
  <course>355.19</course>
  <speed>26.2</speed>
  <fix>3d</fix>
</trkpt>
<trkpt lat="-27.2727539" lon="151.2910287">
  <ele>442.05</ele>
  <time>2026-09-01T19:52:27Z</time>
  <course>355.59</course>
  <speed>26.108674803597367</speed>
  <fix>3d</fix>
</trkpt>
<trkpt lat="-27.2727765" lon="151.2910307">
  <ele>442.13</ele>
  <time>2026-09-01T19:52:27Z</time>
  <course>355.23</course>
  <speed>26.17</speed>
  <fix>3d</fix>
</trkpt>
<trkpt lat="-27.2727304" lon="151.2910265">
  <ele>442.09</ele>
  <time>2026-09-01T19:52:27Z</time>
  <course>355.63</course>
  <speed>26.097886887639007</speed>
  <fix>3d</fix>
</trkpt>
<trkpt lat="-27.2727765" lon="151.2910307">
  <ele>442.13</ele>
  <time>2026-09-01T19:52:27Z</time>
  <course>355.23</course>
  <speed>26.17</speed>
  <fix>3d</fix>
</trkpt>
<trkpt lat="-27.2727069" lon="151.2910243">
  <ele>442.12</ele>
  <time>2026-09-01T19:52:27Z</time>
  <course>355.63</course>
  <speed>26.077135578893632</speed>
  <fix>3d</fix>
</trkpt>
<trkpt lat="-27.2727297" lon="151.2910263">
  <ele>442.2</ele>
  <time>2026-09-01T19:52:27Z</time>
  <course>355.25</course>
  <speed>26.14</speed>
  <fix>3d</fix>
</trkpt>
<trkpt lat="-27.2726834" lon="151.2910221">
  <ele>442.15</ele>
  <time>2026-09-01T19:52:27Z</time>
  <course>355.63</course>
  <speed>26.077135578893632</speed>
  <fix>3d</fix>
</trkpt>
<trkpt lat="-27.2727297" lon="151.2910263">
  <ele>442.2</ele>
  <time>2026-09-01T19:52:27Z</time>
  <course>355.25</course>
  <speed>26.14</speed>
  <fix>3d</fix>
</trkpt>
<trkpt lat="-27.27266" lon="151.29102">
  <ele>442.19</ele>
  <time>2026-09-01T19:52:27Z</time>
  <course>355.63</course>
  <speed>26.05638693295753</speed>
  <fix>3d</fix>
</trkpt>
<trkpt lat="-27.272683" lon="151.2910219">
  <ele>442.27</ele>
  <time>2026-09-01T19:52:27Z</time>
  <course>355.28</course>
  <speed>26.11</speed>
  <fix>3d</fix>
</trkpt>
<trkpt lat="-27.2726365" lon="151.2910178">
  <ele>442.23</ele>
  <time>2026-09-01T19:52:28Z</time>
  <course>355.58</course>
  <speed>26.05638693295753</speed>
  <fix>3d</fix>
</trkpt>
<trkpt lat="-27.272683" lon="151.2910219">
  <ele>442.27</ele>
  <time>2026-09-01T19:52:28Z</time>
  <course>355.28</course>
  <speed>26.11</speed>
  <fix>3d</fix>
</trkpt>
<trkpt lat="-27.2726131" lon="151.2910156">
  <ele>442.26</ele>
  <time>2026-09-01T19:52:28Z</time>
  <course>355.55</course>
  <speed>26.04642009950696</speed>
  <fix>3d</fix>
</trkpt>
<trkpt lat="-27.2726362" lon="151.2910175">
  <ele>442.35</ele>
  <time>2026-09-01T19:52:28Z</time>
  <course>355.29</course>
  <speed>26.08</speed>
  <fix>3d</fix>
</trkpt>
<trkpt lat="-27.2725897" lon="151.2910134">
  <ele>442.3</ele>
  <time>2026-09-01T19:52:28Z</time>
  <course>355.56</course>
  <speed>26.036453291491142</speed>
  <fix>3d</fix>
</trkpt>
<trkpt lat="-27.2726362" lon="151.2910175">
  <ele>442.35</ele>
  <time>2026-09-01T19:52:28Z</time>
  <course>355.29</course>
  <speed>26.08</speed>
  <fix>3d</fix>
</trkpt>
<trkpt lat="-27.2725665" lon="151.2910113">
  <ele>442.33</ele>
  <time>2026-09-01T19:52:28Z</time>
  <course>355.6</course>
  <speed>26.01651975188073</speed>
  <fix>3d</fix>
</trkpt>
<trkpt lat="-27.2725895" lon="151.2910132">
  <ele>442.42</ele>
  <time>2026-09-01T19:52:28Z</time>
  <course>355.29</course>
  <speed>26.04</speed>
  <fix>3d</fix>
</trkpt>
<trkpt lat="-27.2725431" lon="151.2910091">
  <ele>442.37</ele>
  <time>2026-09-01T19:52:28Z</time>
  <course>355.61</course>
  <speed>26.0065530203447</speed>
  <fix>3d</fix>
</trkpt>
<trkpt lat="-27.2725895" lon="151.2910132">
  <ele>442.42</ele>
  <time>2026-09-01T19:52:28Z</time>
  <course>355.29</course>
  <speed>26.04</speed>
  <fix>3d</fix>
</trkpt>
<trkpt lat="-27.2725198" lon="151.291007">
  <ele>442.4</ele>
  <time>2026-09-01T19:52:28Z</time>
  <course>355.58</course>
  <speed>25.98661963395778</speed>
  <fix>3d</fix>
</trkpt>
<trkpt lat="-27.272543" lon="151.2910089">
  <ele>442.48</ele>
  <time>2026-09-01T19:52:28Z</time>
  <course>355.28</course>
  <speed>26.01</speed>
  <fix>3d</fix>
</trkpt>
<trkpt lat="-27.2724965" lon="151.2910048">
  <ele>442.43</ele>
  <time>2026-09-01T19:52:28Z</time>
  <course>355.52</course>
  <speed>25.976652979165735</speed>
  <fix>3d</fix>
</trkpt>
<trkpt lat="-27.272543" lon="151.2910089">
  <ele>442.48</ele>
  <time>2026-09-01T19:52:28Z</time>
  <course>355.28</course>
  <speed>26.01</speed>
  <fix>3d</fix>
</trkpt>
<trkpt lat="-27.272473" lon="151.2910026">
  <ele>442.47</ele>
  <time>2026-09-01T19:52:28Z</time>
  <course>355.55</course>
  <speed>25.966686350013934</speed>
  <fix>3d</fix>
</trkpt>
<trkpt lat="-27.272543" lon="151.2910089">
  <ele>442.48</ele>
  <time>2026-09-01T19:52:28Z</time>
  <course>355.28</course>
  <speed>26.01</speed>
  <fix>3d</fix>
</trkpt>
<trkpt lat="-27.2724499" lon="151.2910004">
  <ele>442.5</ele>
  <time>2026-09-01T19:52:28Z</time>
  <course>355.57</course>
  <speed>25.9367866166956</speed>
  <fix>3d</fix>
</trkpt>
<trkpt lat="-27.2724964" lon="151.2910046">
  <ele>442.55</ele>
  <time>2026-09-01T19:52:28Z</time>
  <course>355.27</course>
  <speed>25.98</speed>
  <fix>3d</fix>
</trkpt>
<trkpt lat="-27.2724267" lon="151.2909983">
  <ele>442.54</ele>
  <time>2026-09-01T19:52:28Z</time>
  <course>355.61</course>
  <speed>25.91603750576079</speed>
  <fix>3d</fix>
</trkpt>
<trkpt lat="-27.2724498" lon="151.2910003">
  <ele>442.62</ele>
  <time>2026-09-01T19:52:28Z</time>
  <course>355.27</course>
  <speed>25.95</speed>
  <fix>3d</fix>
</trkpt>
<trkpt lat="-27.2724036" lon="151.2909961">
  <ele>442.57</ele>
  <time>2026-09-01T19:52:28Z</time>
  <course>355.66</course>
  <speed>25.89529107772299</speed>
  <fix>3d</fix>
</trkpt>
<trkpt lat="-27.2724498" lon="151.2910003">
  <ele>442.62</ele>
  <time>2026-09-01T19:52:28Z</time>
  <course>355.27</course>
  <speed>25.95</speed>
  <fix>3d</fix>
</trkpt>
<trkpt lat="-27.2723805" lon="151.290994">
  <ele>442.6</ele>
  <time>2026-09-01T19:52:28Z</time>
  <course>355.63</course>
  <speed>25.885324027332555</speed>
  <fix>3d</fix>
</trkpt>
<trkpt lat="-27.2724034" lon="151.2909959">
  <ele>442.68</ele>
  <time>2026-09-01T19:52:28Z</time>
  <course>355.29</course>
  <speed>25.92</speed>
  <fix>3d</fix>
</trkpt>
<trkpt lat="-27.2723572" lon="151.2909919">
  <ele>442.62</ele>
  <time>2026-09-01T19:52:28Z</time>
  <course>355.63</course>
  <speed>25.86458002752026</speed>
  <fix>3d</fix>
</trkpt>
<trkpt lat="-27.2724034" lon="151.2909959">
  <ele>442.68</ele>
  <time>2026-09-01T19:52:28Z</time>
  <course>355.29</course>
  <speed>25.92</speed>
  <fix>3d</fix>
</trkpt>
<trkpt lat="-27.272334" lon="151.2909897">
  <ele>442.65</ele>
  <time>2026-09-01T19:52:28Z</time>
  <course>355.66</course>
  <speed>25.854612741249866</speed>
  <fix>3d</fix>
</trkpt>
<trkpt lat="-27.272357" lon="151.2909917">
  <ele>442.74</ele>
  <time>2026-09-01T19:52:28Z</time>
  <course>355.31</course>
  <speed>25.89</speed>
  <fix>3d</fix>
</trkpt>
<trkpt lat="-27.2723108" lon="151.2909876">
  <ele>442.68</ele>
  <time>2026-09-01T19:52:28Z</time>
  <course>355.68</course>
  <speed>25.85380629617233</speed>
  <fix>3d</fix>
</trkpt>
<trkpt lat="-27.272357" lon="151.2909917">
  <ele>442.74</ele>
  <time>2026-09-01T19:52:28Z</time>
  <course>355.31</course>
  <speed>25.89</speed>
  <fix>3d</fix>
</trkpt>
<trkpt lat="-27.2722875" lon="151.2909855">
  <ele>442.7</ele>
  <time>2026-09-01T19:52:28Z</time>
  <course>355.71</course>
  <speed>25.843838724152416</speed>
  <fix>3d</fix>
</trkpt>
<trkpt lat="-27.2723107" lon="151.2909874">
  <ele>442.78</ele>
  <time>2026-09-01T19:52:28Z</time>
  <course>355.33</course>
  <speed>25.86</speed>
  <fix>3d</fix>
</trkpt>
<trkpt lat="-27.2722643" lon="151.2909833">
  <ele>442.72</ele>
  <time>2026-09-01T19:52:28Z</time>
  <course>355.77</course>
  <speed>25.84303581238087</speed>
  <fix>3d</fix>
</trkpt>
<trkpt lat="-27.2723107" lon="151.2909874">
  <ele>442.78</ele>
  <time>2026-09-01T19:52:28Z</time>
  <course>355.33</course>
  <speed>25.86</speed>
  <fix>3d</fix>
</trkpt>
<trkpt lat="-27.2722411" lon="151.2909812">
  <ele>442.75</ele>
  <time>2026-09-01T19:52:28Z</time>
  <course>355.78</course>
  <speed>25.832268580207973</speed>
  <fix>3d</fix>
</trkpt>
<trkpt lat="-27.2722644" lon="151.2909831">
  <ele>442.83</ele>
  <time>2026-09-01T19:52:28Z</time>
  <course>355.36</course>
  <speed>25.84</speed>
  <fix>3d</fix>
</trkpt>
<trkpt lat="-27.2722178" lon="151.2909791">
  <ele>442.77</ele>
  <time>2026-09-01T19:52:28Z</time>
  <course>355.82</course>
  <speed>25.831473051299263</speed>
  <fix>3d</fix>
</trkpt>
<trkpt lat="-27.2722644" lon="151.2909831">
  <ele>442.83</ele>
  <time>2026-09-01T19:52:28Z</time>
  <course>355.36</course>
  <speed>25.84</speed>
  <fix>3d</fix>
</trkpt>
<trkpt lat="-27.2721946" lon="151.290977">
  <ele>442.79</ele>
  <time>2026-09-01T19:52:28Z</time>
  <course>355.85</course>
  <speed>25.820712616037536</speed>
  <fix>3d</fix>
</trkpt>
<trkpt lat="-27.2722181" lon="151.290979">
  <ele>442.88</ele>
  <time>2026-09-01T19:52:28Z</time>
  <course>355.4</course>
  <speed>25.82</speed>
  <fix>3d</fix>
</trkpt>
<trkpt lat="-27.2721714" lon="151.2909749">
  <ele>442.81</ele>
  <time>2026-09-01T19:52:28Z</time>
  <course>355.88</course>
  <speed>25.809170850687938</speed>
  <fix>3d</fix>
</trkpt>
<trkpt lat="-27.2722181" lon="151.290979">
  <ele>442.88</ele>
  <time>2026-09-01T19:52:28Z</time>
  <course>355.4</course>
  <speed>25.82</speed>
  <fix>3d</fix>
</trkpt>
<trkpt lat="-27.2721482" lon="151.2909729">
  <ele>442.83</ele>
  <time>2026-09-01T19:52:28Z</time>
  <course>355.88</course>
  <speed>25.808390108644904</speed>
  <fix>3d</fix>
</trkpt>
<trkpt lat="-27.2721719" lon="151.2909748">
  <ele>442.91</ele>
  <time>2026-09-01T19:52:28Z</time>
  <course>355.45</course>
  <speed>25.8</speed>
  <fix>3d</fix>
</trkpt>
<trkpt lat="-27.2721251" lon="151.2909708">
  <ele>442.85</ele>
  <time>2026-09-01T19:52:28Z</time>
  <course>355.89</course>
  <speed>25.797643303216674</speed>
  <fix>3d</fix>
</trkpt>
<trkpt lat="-27.2721719" lon="151.2909748">
  <ele>442.91</ele>
  <time>2026-09-01T19:52:28Z</time>
  <course>355.45</course>
  <speed>25.8</speed>
  <fix>3d</fix>
</trkpt>
<trkpt lat="-27.2721021" lon="151.2909688">
  <ele>442.87</ele>
  <time>2026-09-01T19:52:28Z</time>
  <course>355.91</course>
  <speed>25.786899774885697</speed>
  <fix>3d</fix>
</trkpt>
<trkpt lat="-27.2721258" lon="151.2909707">
  <ele>442.95</ele>
  <time>2026-09-01T19:52:28Z</time>
  <course>355.5</course>
  <speed>25.78</speed>
  <fix>3d</fix>
</trkpt>
<trkpt lat="-27.2720792" lon="151.2909668">
  <ele>442.88</ele>
  <time>2026-09-01T19:52:28Z</time>
  <course>355.94</course>
  <speed>25.766959463623174</speed>
  <fix>3d</fix>
</trkpt>
<trkpt lat="-27.2721258" lon="151.2909707">
  <ele>442.95</ele>
  <time>2026-09-01T19:52:28Z</time>
  <course>355.5</course>
  <speed>25.78</speed>
  <fix>3d</fix>
</trkpt>
<trkpt lat="-27.2720562" lon="151.2909648">
  <ele>442.9</ele>
  <time>2026-09-01T19:52:28Z</time>
  <course>355.95</course>
  <speed>25.75621866656672</speed>
  <fix>3d</fix>
</trkpt>
<trkpt lat="-27.2720796" lon="151.2909666">
  <ele>442.98</ele>
  <time>2026-09-01T19:52:28Z</time>
  <course>355.53</course>
  <speed>25.75</speed>
  <fix>3d</fix>
</trkpt>
<trkpt lat="-27.2720333" lon="151.2909628">
  <ele>442.92</ele>
  <time>2026-09-01T19:52:28Z</time>
  <course>355.99</course>
  <speed>25.7355104864854</speed>
  <fix>3d</fix>
</trkpt>
<trkpt lat="-27.2720796" lon="151.2909666">
  <ele>442.98</ele>
  <time>2026-09-01T19:52:28Z</time>
  <course>355.53</course>
  <speed>25.75</speed>
  <fix>3d</fix>
</trkpt>
<trkpt lat="-27.2720103" lon="151.2909608">
  <ele>442.94</ele>
  <time>2026-09-01T19:52:28Z</time>
  <course>356.01</course>
  <speed>25.71556921399952</speed>
  <fix>3d</fix>
</trkpt>
<trkpt lat="-27.2720796" lon="151.2909666">
  <ele>442.98</ele>
  <time>2026-09-01T19:52:28Z</time>
  <course>355.53</course>
  <speed>25.75</speed>
  <fix>3d</fix>
</trkpt>
<trkpt lat="-27.2719873" lon="151.2909588">
  <ele>442.96</ele>
  <time>2026-09-01T19:52:28Z</time>
  <course>355.96</course>
  <speed>25.68489244672829</speed>
  <fix>3d</fix>
</trkpt>
<trkpt lat="-27.2720334" lon="151.2909626">
  <ele>443.01</ele>
  <time>2026-09-01T19:52:28Z</time>
  <course>355.55</course>
  <speed>25.73</speed>
  <fix>3d</fix>
</trkpt>
<trkpt lat="-27.2719645" lon="151.2909568">
  <ele>442.98</ele>
  <time>2026-09-01T19:52:28Z</time>
  <course>355.96</course>
  <speed>25.674921616238677</speed>
  <fix>3d</fix>
</trkpt>
<trkpt lat="-27.2720334" lon="151.2909626">
  <ele>443.01</ele>
  <time>2026-09-01T19:52:28Z</time>
  <course>355.55</course>
  <speed>25.73</speed>
  <fix>3d</fix>
</trkpt>
<trkpt lat="-27.2719418" lon="151.2909548">
  <ele>442.99</ele>
  <time>2026-09-01T19:52:28Z</time>
  <course>355.99</course>
  <speed>25.654980023379476</speed>
  <fix>3d</fix>
</trkpt>
<trkpt lat="-27.2719873" lon="151.2909586">
  <ele>443.05</ele>
  <time>2026-09-01T19:52:28Z</time>
  <course>355.57</course>
  <speed>25.7</speed>
  <fix>3d</fix>
</trkpt>
<trkpt lat="-27.2719183" lon="151.2909527">
  <ele>443.0</ele>
  <time>2026-09-01T19:52:28Z</time>
  <course>356.0</course>
  <speed>25.63503852152362</speed>
  <fix>3d</fix>
</trkpt>
<trkpt lat="-27.2719873" lon="151.2909586">
  <ele>443.05</ele>
  <time>2026-09-01T19:52:28Z</time>
  <course>355.57</course>
  <speed>25.7</speed>
  <fix>3d</fix>
</trkpt>
<trkpt lat="-27.2718958" lon="151.2909508">
  <ele>443.01</ele>
  <time>2026-09-01T19:52:28Z</time>
  <course>355.99</course>
  <speed>25.615097110883653</speed>
  <fix>3d</fix>
</trkpt>
<trkpt lat="-27.2719413" lon="151.2909546">
  <ele>443.08</ele>
  <time>2026-09-01T19:52:28Z</time>
  <course>355.56</course>
  <speed>25.68</speed>
  <fix>3d</fix>
</trkpt>
<trkpt lat="-27.2718731" lon="151.2909488">
  <ele>443.02</ele>
  <time>2026-09-01T19:52:28Z</time>
  <course>355.99</course>
  <speed>25.59515579167277</speed>
  <fix>3d</fix>
</trkpt>
<trkpt lat="-27.2719413" lon="151.2909546">
  <ele>443.08</ele>
  <time>2026-09-01T19:52:28Z</time>
  <course>355.56</course>
  <speed>25.68</speed>
  <fix>3d</fix>
</trkpt>
<trkpt lat="-27.2718504" lon="151.2909468">
  <ele>443.02</ele>
  <time>2026-09-01T19:52:28Z</time>
  <course>356.04</course>
  <speed>25.584421040938174</speed>
  <fix>3d</fix>
</trkpt>
<trkpt lat="-27.2718953" lon="151.2909506">
  <ele>443.11</ele>
  <time>2026-09-01T19:52:28Z</time>
  <course>355.56</course>
  <speed>25.67</speed>
  <fix>3d</fix>
</trkpt>
<trkpt lat="-27.2718277" lon="151.2909449">
  <ele>443.03</ele>
  <time>2026-09-01T19:52:28Z</time>
  <course>356.04</course>
  <speed>25.574450140716614</speed>
  <fix>3d</fix>
</trkpt>
<trkpt lat="-27.2718953" lon="151.2909506">
  <ele>443.11</ele>
  <time>2026-09-01T19:52:28Z</time>
  <course>355.56</course>
  <speed>25.67</speed>
  <fix>3d</fix>
</trkpt>
<trkpt lat="-27.2718048" lon="151.2909429">
  <ele>443.03</ele>
  <time>2026-09-01T19:52:28Z</time>
  <course>356.05</course>
  <speed>25.5545084084981</speed>
  <fix>3d</fix>
</trkpt>
<trkpt lat="-27.2718493" lon="151.2909465">
  <ele>443.12</ele>
  <time>2026-09-01T19:52:28Z</time>
  <course>355.57</course>
  <speed>25.66</speed>
  <fix>3d</fix>
</trkpt>
<trkpt lat="-27.2717826" lon="151.2909409">
  <ele>443.03</ele>
  <time>2026-09-01T19:52:28Z</time>
  <course>356.05</course>
  <speed>25.543776149974384</speed>
  <fix>3d</fix>
</trkpt>
<trkpt lat="-27.2718033" lon="151.2909426">
  <ele>443.12</ele>
  <time>2026-09-01T19:52:28Z</time>
  <course>355.59</course>
  <speed>25.65</speed>
  <fix>3d</fix>
</trkpt>
<trkpt lat="-27.2717597" lon="151.290939">
  <ele>443.03</ele>
  <time>2026-09-01T19:52:28Z</time>
  <course>356.07</course>
  <speed>25.543018615660912</speed>
  <fix>3d</fix>
</trkpt>
<trkpt lat="-27.2718033" lon="151.2909426">
  <ele>443.12</ele>
  <time>2026-09-01T19:52:28Z</time>
  <course>355.59</course>
  <speed>25.65</speed>
  <fix>3d</fix>
</trkpt>
<trkpt lat="-27.2717368" lon="151.290937">
  <ele>443.04</ele>
  <time>2026-09-01T19:52:28Z</time>
  <course>356.1</course>
  <speed>25.543018615660912</speed>
  <fix>3d</fix>
</trkpt>
<trkpt lat="-27.2717574" lon="151.2909386">
  <ele>443.13</ele>
  <time>2026-09-01T19:52:28Z</time>
  <course>355.61</course>
  <speed>25.65</speed>
  <fix>3d</fix>
</trkpt>
<trkpt lat="-27.2717139" lon="151.290935">
  <ele>443.04</ele>
  <time>2026-09-01T19:52:28Z</time>
  <course>356.12</course>
  <speed>25.542264973960318</speed>
  <fix>3d</fix>
</trkpt>
<trkpt lat="-27.2717574" lon="151.2909386">
  <ele>443.13</ele>
  <time>2026-09-01T19:52:28Z</time>
  <course>355.61</course>
  <speed>25.65</speed>
  <fix>3d</fix>
</trkpt>
<trkpt lat="-27.2716909" lon="151.2909331">
  <ele>443.04</ele>
  <time>2026-09-01T19:52:28Z</time>
  <course>356.17</course>
  <speed>25.552236692704614</speed>
  <fix>3d</fix>
</trkpt>
<trkpt lat="-27.2717115" lon="151.2909346">
  <ele>443.13</ele>
  <time>2026-09-01T19:52:28Z</time>
  <course>355.63</course>
  <speed>25.65</speed>
  <fix>3d</fix>
</trkpt>
<trkpt lat="-27.2716679" lon="151.2909311">
  <ele>443.04</ele>
  <time>2026-09-01T19:52:28Z</time>
  <course>356.15</course>
  <speed>25.552236692704614</speed>
  <fix>3d</fix>
</trkpt>
<trkpt lat="-27.2717115" lon="151.2909346">
  <ele>443.13</ele>
  <time>2026-09-01T19:52:28Z</time>
  <course>355.63</course>
  <speed>25.65</speed>
  <fix>3d</fix>
</trkpt>
<trkpt lat="-27.2716449" lon="151.2909291">
  <ele>443.05</ele>
  <time>2026-09-01T19:52:28Z</time>
  <course>356.11</course>
  <speed>25.55148723655827</speed>
  <fix>3d</fix>
</trkpt>
<trkpt lat="-27.2716655" lon="151.2909307">
  <ele>443.14</ele>
  <time>2026-09-01T19:52:28Z</time>
  <course>355.65</course>
  <speed>25.64</speed>
  <fix>3d</fix>
</trkpt>
<trkpt lat="-27.2716218" lon="151.2909272">
  <ele>443.05</ele>
  <time>2026-09-01T19:52:28Z</time>
  <course>356.11</course>
  <speed>25.561459269767834</speed>
  <fix>3d</fix>
</trkpt>
<trkpt lat="-27.2716655" lon="151.2909307">
  <ele>443.14</ele>
  <time>2026-09-01T19:52:28Z</time>
  <course>355.65</course>
  <speed>25.64</speed>
  <fix>3d</fix>
</trkpt>
<trkpt lat="-27.271599" lon="151.2909252">
  <ele>443.06</ele>
  <time>2026-09-01T19:52:28Z</time>
  <course>356.11</course>
  <speed>25.561459269767834</speed>
  <fix>3d</fix>
</trkpt>
<trkpt lat="-27.2716196" lon="151.2909267">
  <ele>443.14</ele>
  <time>2026-09-01T19:52:28Z</time>
  <course>355.66</course>
  <speed>25.64</speed>
  <fix>3d</fix>
</trkpt>
<trkpt lat="-27.2715759" lon="151.2909232">
  <ele>443.07</ele>
  <time>2026-09-01T19:52:28Z</time>
  <course>356.12</course>
  <speed>25.561459269767834</speed>
  <fix>3d</fix>
</trkpt>
<trkpt lat="-27.2716196" lon="151.2909267">
  <ele>443.14</ele>
  <time>2026-09-01T19:52:28Z</time>
  <course>355.66</course>
  <speed>25.64</speed>
  <fix>3d</fix>
</trkpt>
<trkpt lat="-27.2715529" lon="151.2909213">
  <ele>443.08</ele>
  <time>2026-09-01T19:52:28Z</time>
  <course>356.15</course>
  <speed>25.561459269767834</speed>
  <fix>3d</fix>
</trkpt>
<trkpt lat="-27.2715737" lon="151.2909228">
  <ele>443.16</ele>
  <time>2026-09-01T19:52:28Z</time>
  <course>355.66</course>
  <speed>25.63</speed>
  <fix>3d</fix>
</trkpt>
<trkpt lat="-27.2715298" lon="151.2909193">
  <ele>443.09</ele>
  <time>2026-09-01T19:52:28Z</time>
  <course>356.14</course>
  <speed>25.57143132482028</speed>
  <fix>3d</fix>
</trkpt>
<trkpt lat="-27.2715737" lon="151.2909228">
  <ele>443.16</ele>
  <time>2026-09-01T19:52:28Z</time>
  <course>355.66</course>
  <speed>25.63</speed>
  <fix>3d</fix>
</trkpt>
<trkpt lat="-27.2715066" lon="151.2909173">
  <ele>443.09</ele>
  <time>2026-09-01T19:52:28Z</time>
  <course>356.13</course>
  <speed>25.58215198141079</speed>
  <fix>3d</fix>
</trkpt>
<trkpt lat="-27.2715737" lon="151.2909228">
  <ele>443.16</ele>
  <time>2026-09-01T19:52:28Z</time>
  <course>355.66</course>
  <speed>25.63</speed>
  <fix>3d</fix>
</trkpt>
<trkpt lat="-27.2714836" lon="151.2909154">
  <ele>443.1</ele>
  <time>2026-09-01T19:52:28Z</time>
  <course>356.13</course>
  <speed>25.58215198141079</speed>
  <fix>3d</fix>
</trkpt>
<trkpt lat="-27.2715277" lon="151.2909189">
  <ele>443.17</ele>
  <time>2026-09-01T19:52:28Z</time>
  <course>355.65</course>
  <speed>25.62</speed>
  <fix>3d</fix>
</trkpt>
<trkpt lat="-27.2714607" lon="151.2909134">
  <ele>443.1</ele>
  <time>2026-09-01T19:52:28Z</time>
  <course>356.18</course>
  <speed>25.57218019645568</speed>
  <fix>3d</fix>
</trkpt>
<trkpt lat="-27.2715277" lon="151.2909189">
  <ele>443.17</ele>
  <time>2026-09-01T19:52:28Z</time>
  <course>355.65</course>
  <speed>25.62</speed>
  <fix>3d</fix>
</trkpt>
<trkpt lat="-27.271437" lon="151.2909114">
  <ele>443.11</ele>
  <time>2026-09-01T19:52:28Z</time>
  <course>356.26</course>
  <speed>25.57143132482028</speed>
  <fix>3d</fix>
</trkpt>
<trkpt lat="-27.2714817" lon="151.2909149">
  <ele>443.18</ele>
  <time>2026-09-01T19:52:28Z</time>
  <course>355.65</course>
  <speed>25.62</speed>
  <fix>3d</fix>
</trkpt>
<trkpt lat="-27.2714144" lon="151.2909094">
  <ele>443.11</ele>
  <time>2026-09-01T19:52:28Z</time>
  <course>356.26</course>
  <speed>25.561459269767834</speed>
  <fix>3d</fix>
</trkpt>
<trkpt lat="-27.2714817" lon="151.2909149">
  <ele>443.18</ele>
  <time>2026-09-01T19:52:28Z</time>
  <course>355.65</course>
  <speed>25.62</speed>
  <fix>3d</fix>
</trkpt>
<trkpt lat="-27.2713917" lon="151.2909075">
  <ele>443.12</ele>
  <time>2026-09-01T19:52:28Z</time>
  <course>356.24</course>
  <speed>25.541515225217157</speed>
  <fix>3d</fix>
</trkpt>
<trkpt lat="-27.2714358" lon="151.290911">
  <ele>443.19</ele>
  <time>2026-09-01T19:52:28Z</time>
  <course>355.65</course>
  <speed>25.61</speed>
  <fix>3d</fix>
</trkpt>
<trkpt lat="-27.2713689" lon="151.2909056">
  <ele>443.14</ele>
  <time>2026-09-01T19:52:28Z</time>
  <course>356.23</course>
  <speed>25.53154323577014</speed>
  <fix>3d</fix>
</trkpt>
<trkpt lat="-27.2714358" lon="151.290911">
  <ele>443.19</ele>
  <time>2026-09-01T19:52:28Z</time>
  <course>355.65</course>
  <speed>25.61</speed>
  <fix>3d</fix>
</trkpt>
<trkpt lat="-27.2713463" lon="151.2909036">
  <ele>443.14</ele>
  <time>2026-09-01T19:52:28Z</time>
  <course>356.24</course>
  <speed>25.511599322661056</speed>
  <fix>3d</fix>
</trkpt>
<trkpt lat="-27.2713899" lon="151.2909071">
  <ele>443.21</ele>
  <time>2026-09-01T19:52:28Z</time>
  <course>355.66</course>
  <speed>25.6</speed>
  <fix>3d</fix>
</trkpt>
<trkpt lat="-27.2713235" lon="151.2909017">
  <ele>443.15</ele>
  <time>2026-09-01T19:52:28Z</time>
  <course>356.18</course>
  <speed>25.490908183115017</speed>
  <fix>3d</fix>
</trkpt>
<trkpt lat="-27.2713899" lon="151.2909071">
  <ele>443.21</ele>
  <time>2026-09-01T19:52:28Z</time>
  <course>355.66</course>
  <speed>25.6</speed>
  <fix>3d</fix>
</trkpt>
<trkpt lat="-27.2713009" lon="151.2908997">
  <ele>443.16</ele>
  <time>2026-09-01T19:52:28Z</time>
  <course>356.15</course>
  <speed>25.480936011065214</speed>
  <fix>3d</fix>
</trkpt>
<trkpt lat="-27.2713441" lon="151.2909032">
  <ele>443.22</ele>
  <time>2026-09-01T19:52:28Z</time>
  <course>355.66</course>
  <speed>25.59</speed>
  <fix>3d</fix>
</trkpt>
<trkpt lat="-27.2712783" lon="151.2908978">
  <ele>443.16</ele>
  <time>2026-09-01T19:52:28Z</time>
  <course>356.18</course>
  <speed>25.46099173245221</speed>
  <fix>3d</fix>
</trkpt>
<trkpt lat="-27.2713441" lon="151.2909032">
  <ele>443.22</ele>
  <time>2026-09-01T19:52:28Z</time>
  <course>355.66</course>
  <speed>25.59</speed>
  <fix>3d</fix>
</trkpt>
<trkpt lat="-27.2712557" lon="151.2908959">
  <ele>443.17</ele>
  <time>2026-09-01T19:52:28Z</time>
  <course>356.23</course>
  <speed>25.451019625940333</speed>
  <fix>3d</fix>
</trkpt>
<trkpt lat="-27.2712983" lon="151.2908993">
  <ele>443.23</ele>
  <time>2026-09-01T19:52:28Z</time>
  <course>355.66</course>
  <speed>25.58</speed>
  <fix>3d</fix>
</trkpt>
<trkpt lat="-27.2712331" lon="151.290894">
  <ele>443.17</ele>
  <time>2026-09-01T19:52:28Z</time>
  <course>356.25</course>
  <speed>25.441047541325812</speed>
  <fix>3d</fix>
</trkpt>
<trkpt lat="-27.2712983" lon="151.2908993">
  <ele>443.23</ele>
  <time>2026-09-01T19:52:28Z</time>
  <course>355.66</course>
  <speed>25.58</speed>
  <fix>3d</fix>
</trkpt>
<trkpt lat="-27.2712103" lon="151.290892">
  <ele>443.18</ele>
  <time>2026-09-01T19:52:28Z</time>
  <course>356.25</course>
  <speed>25.430330316376153</speed>
  <fix>3d</fix>
</trkpt>
<trkpt lat="-27.2712525" lon="151.2908954">
  <ele>443.25</ele>
  <time>2026-09-01T19:52:28Z</time>
  <course>355.67</course>
  <speed>25.57</speed>
  <fix>3d</fix>
</trkpt>
<trkpt lat="-27.2711876" lon="151.2908901">
  <ele>443.18</ele>
  <time>2026-09-01T19:52:28Z</time>
  <course>356.28</course>
  <speed>25.42035798331723</speed>
  <fix>3d</fix>
</trkpt>
<trkpt lat="-27.2712525" lon="151.2908954">
  <ele>443.25</ele>
  <time>2026-09-01T19:52:28Z</time>
  <course>355.67</course>
  <speed>25.57</speed>
  <fix>3d</fix>
</trkpt>
<trkpt lat="-27.2711647" lon="151.2908882">
  <ele>443.18</ele>
  <time>2026-09-01T19:52:28Z</time>
  <course>356.27</course>
  <speed>25.42958906470964</speed>
  <fix>3d</fix>
</trkpt>
<trkpt lat="-27.2712067" lon="151.2908915">
  <ele>443.26</ele>
  <time>2026-09-01T19:52:28Z</time>
  <course>355.68</course>
  <speed>25.56</speed>
  <fix>3d</fix>
</trkpt>
<trkpt lat="-27.2711425" lon="151.2908863">
  <ele>443.18</ele>
  <time>2026-09-01T19:52:28Z</time>
  <course>356.17</course>
  <speed>25.430330316376153</speed>
  <fix>3d</fix>
</trkpt>
<trkpt lat="-27.2711609" lon="151.2908876">
  <ele>443.26</ele>
  <time>2026-09-01T19:52:28Z</time>
  <course>355.69</course>
  <speed>25.56</speed>
  <fix>3d</fix>
</trkpt>
<trkpt lat="-27.2711196" lon="151.2908843">
  <ele>443.18</ele>
  <time>2026-09-01T19:52:28Z</time>
  <course>356.16</course>
  <speed>25.440302671155468</speed>
  <fix>3d</fix>
</trkpt>
<trkpt lat="-27.2711609" lon="151.2908876">
  <ele>443.26</ele>
  <time>2026-09-01T19:52:28Z</time>
  <course>355.69</course>
  <speed>25.56</speed>
  <fix>3d</fix>
</trkpt>
<trkpt lat="-27.2710966" lon="151.2908824">
  <ele>443.18</ele>
  <time>2026-09-01T19:52:28Z</time>
  <course>356.21</course>
  <speed>25.451019625940333</speed>
  <fix>3d</fix>
</trkpt>
<trkpt lat="-27.2711151" lon="151.2908838">
  <ele>443.27</ele>
  <time>2026-09-01T19:52:28Z</time>
  <course>355.68</course>
  <speed>25.55</speed>
  <fix>3d</fix>
</trkpt>
<trkpt lat="-27.2710734" lon="151.2908804">
  <ele>443.18</ele>
  <time>2026-09-01T19:52:28Z</time>
  <course>356.26</course>
  <speed>25.47096386083573</speed>
  <fix>3d</fix>
</trkpt>
<trkpt lat="-27.2711151" lon="151.2908838">
  <ele>443.27</ele>
  <time>2026-09-01T19:52:28Z</time>
  <course>355.68</course>
  <speed>25.55</speed>
  <fix>3d</fix>
</trkpt>
<trkpt lat="-27.2710504" lon="151.2908784">
  <ele>443.19</ele>
  <time>2026-09-01T19:52:28Z</time>
  <course>356.29</course>
  <speed>25.480936011065214</speed>
  <fix>3d</fix>
</trkpt>
<trkpt lat="-27.2711151" lon="151.2908838">
  <ele>443.27</ele>
  <time>2026-09-01T19:52:28Z</time>
  <course>355.68</course>
  <speed>25.55</speed>
  <fix>3d</fix>
</trkpt>
<trkpt lat="-27.2710272" lon="151.2908765">
  <ele>443.19</ele>
  <time>2026-09-01T19:52:28Z</time>
  <course>356.28</course>
  <speed>25.480936011065214</speed>
  <fix>3d</fix>
</trkpt>
<trkpt lat="-27.2710693" lon="151.2908799">
  <ele>443.27</ele>
  <time>2026-09-01T19:52:28Z</time>
  <course>355.67</course>
  <speed>25.55</speed>
  <fix>3d</fix>
</trkpt>
<trkpt lat="-27.2710043" lon="151.2908745">
  <ele>443.2</ele>
  <time>2026-09-01T19:52:28Z</time>
  <course>356.27</course>
  <speed>25.480936011065214</speed>
  <fix>3d</fix>
</trkpt>
<trkpt lat="-27.2710693" lon="151.2908799">
  <ele>443.27</ele>
  <time>2026-09-01T19:52:28Z</time>
  <course>355.67</course>
  <speed>25.55</speed>
  <fix>3d</fix>
</trkpt>
<trkpt lat="-27.2709816" lon="151.2908726">
  <ele>443.21</ele>
  <time>2026-09-01T19:52:28Z</time>
  <course>356.21</course>
  <speed>25.47096386083573</speed>
  <fix>3d</fix>
</trkpt>
<trkpt lat="-27.2710234" lon="151.290876">
  <ele>443.27</ele>
  <time>2026-09-01T19:52:28Z</time>
  <course>355.67</course>
  <speed>25.55</speed>
  <fix>3d</fix>
</trkpt>
<trkpt lat="-27.2709581" lon="151.2908706">
  <ele>443.22</ele>
  <time>2026-09-01T19:52:28Z</time>
  <course>356.26</course>
  <speed>25.46173992483624</speed>
  <fix>3d</fix>
</trkpt>
<trkpt lat="-27.2710234" lon="151.290876">
  <ele>443.27</ele>
  <time>2026-09-01T19:52:28Z</time>
  <course>355.67</course>
  <speed>25.55</speed>
  <fix>3d</fix>
</trkpt>
<trkpt lat="-27.2709357" lon="151.2908687">
  <ele>443.22</ele>
  <time>2026-09-01T19:52:28Z</time>
  <course>356.3</course>
  <speed>25.44179632022865</speed>
  <fix>3d</fix>
</trkpt>
<trkpt lat="-27.2709776" lon="151.2908721">
  <ele>443.28</ele>
  <time>2026-09-01T19:52:28Z</time>
  <course>355.66</course>
  <speed>25.54</speed>
  <fix>3d</fix>
</trkpt>
<trkpt lat="-27.2709131" lon="151.2908668">
  <ele>443.23</ele>
  <time>2026-09-01T19:52:28Z</time>
  <course>356.29</course>
  <speed>25.431824551140643</speed>
  <fix>3d</fix>
</trkpt>
<trkpt lat="-27.2709776" lon="151.2908721">
  <ele>443.28</ele>
  <time>2026-09-01T19:52:28Z</time>
  <course>355.66</course>
  <speed>25.54</speed>
  <fix>3d</fix>
</trkpt>
<trkpt lat="-27.2708904" lon="151.2908648">
  <ele>443.23</ele>
  <time>2026-09-01T19:52:28Z</time>
  <course>356.3</course>
  <speed>25.42110343789191</speed>
  <fix>3d</fix>
</trkpt>
<trkpt lat="-27.2709319" lon="151.2908681">
  <ele>443.3</ele>
  <time>2026-09-01T19:52:28Z</time>
  <course>355.64</course>
  <speed>25.53</speed>
  <fix>3d</fix>
</trkpt>
<trkpt lat="-27.2708677" lon="151.2908629">
  <ele>443.24</ele>
  <time>2026-09-01T19:52:28Z</time>
  <course>356.31</course>
  <speed>25.42110343789191</speed>
  <fix>3d</fix>
</trkpt>
<trkpt lat="-27.2709319" lon="151.2908681">
  <ele>443.3</ele>
  <time>2026-09-01T19:52:28Z</time>
  <course>355.64</course>
  <speed>25.53</speed>
  <fix>3d</fix>
</trkpt>
<trkpt lat="-27.2708448" lon="151.2908609">
  <ele>443.24</ele>
  <time>2026-09-01T19:52:28Z</time>
  <course>356.33</course>
  <speed>25.42035798331723</speed>
  <fix>3d</fix>
</trkpt>
<trkpt lat="-27.2708862" lon="151.2908642">
  <ele>443.31</ele>
  <time>2026-09-01T19:52:28Z</time>
  <course>355.65</course>
  <speed>25.52</speed>
  <fix>3d</fix>
</trkpt>
<trkpt lat="-27.270822" lon="151.290859">
  <ele>443.25</ele>
  <time>2026-09-01T19:52:28Z</time>
  <course>356.28</course>
  <speed>25.41038567200427</speed>
  <fix>3d</fix>
</trkpt>
<trkpt lat="-27.2708862" lon="151.2908642">
  <ele>443.31</ele>
  <time>2026-09-01T19:52:28Z</time>
  <course>355.65</course>
  <speed>25.52</speed>
  <fix>3d</fix>
</trkpt>
<trkpt lat="-27.2707993" lon="151.2908571">
  <ele>443.25</ele>
  <time>2026-09-01T19:52:28Z</time>
  <course>356.27</course>
  <speed>25.41038567200427</speed>
  <fix>3d</fix>
</trkpt>
<trkpt lat="-27.2708405" lon="151.2908603">
  <ele>443.31</ele>
  <time>2026-09-01T19:52:28Z</time>
  <course>355.67</course>
  <speed>25.52</speed>
  <fix>3d</fix>
</trkpt>
<trkpt lat="-27.2707765" lon="151.2908551">
  <ele>443.26</ele>
  <time>2026-09-01T19:52:28Z</time>
  <course>356.33</course>
  <speed>25.409643838511393</speed>
  <fix>3d</fix>
</trkpt>
<trkpt lat="-27.2708405" lon="151.2908603">
  <ele>443.31</ele>
  <time>2026-09-01T19:52:28Z</time>
  <course>355.67</course>
  <speed>25.52</speed>
  <fix>3d</fix>
</trkpt>
<trkpt lat="-27.2707536" lon="151.2908532">
  <ele>443.27</ele>
  <time>2026-09-01T19:52:28Z</time>
  <course>356.34</course>
  <speed>25.409643838511393</speed>
  <fix>3d</fix>
</trkpt>
<trkpt lat="-27.2707948" lon="151.2908565">
  <ele>443.33</ele>
  <time>2026-09-01T19:52:28Z</time>
  <course>355.69</course>
  <speed>25.51</speed>
  <fix>3d</fix>
</trkpt>
<trkpt lat="-27.2707308" lon="151.2908513">
  <ele>443.27</ele>
  <time>2026-09-01T19:52:28Z</time>
  <course>356.38</course>
  <speed>25.409643838511393</speed>
  <fix>3d</fix>
</trkpt>
<trkpt lat="-27.2707948" lon="151.2908565">
  <ele>443.33</ele>
  <time>2026-09-01T19:52:28Z</time>
  <course>355.69</course>
  <speed>25.51</speed>
  <fix>3d</fix>
</trkpt>
<trkpt lat="-27.270708" lon="151.2908493">
  <ele>443.28</ele>
  <time>2026-09-01T19:52:28Z</time>
  <course>356.34</course>
  <speed>25.41887881083664</speed>
  <fix>3d</fix>
</trkpt>
<trkpt lat="-27.2707491" lon="151.2908526">
  <ele>443.34</ele>
  <time>2026-09-01T19:52:28Z</time>
  <course>355.7</course>
  <speed>25.51</speed>
  <fix>3d</fix>
</trkpt>
<trkpt lat="-27.2706852" lon="151.2908474">
  <ele>443.28</ele>
  <time>2026-09-01T19:52:28Z</time>
  <course>356.36</course>
  <speed>25.41887881083664</speed>
  <fix>3d</fix>
</trkpt>
<trkpt lat="-27.2707491" lon="151.2908526">
  <ele>443.34</ele>
  <time>2026-09-01T19:52:28Z</time>
  <course>355.7</course>
  <speed>25.51</speed>
  <fix>3d</fix>
</trkpt>
<trkpt lat="-27.2706623" lon="151.2908455">
  <ele>443.28</ele>
  <time>2026-09-01T19:52:28Z</time>
  <course>356.37</course>
  <speed>25.41887881083664</speed>
  <fix>3d</fix>
</trkpt>
<trkpt lat="-27.2707034" lon="151.2908488">
  <ele>443.35</ele>
  <time>2026-09-01T19:52:28Z</time>
  <course>355.71</course>
  <speed>25.5</speed>
  <fix>3d</fix>
</trkpt>
<trkpt lat="-27.2706395" lon="151.2908436">
  <ele>443.28</ele>
  <time>2026-09-01T19:52:28Z</time>
  <course>356.36</course>
  <speed>25.42958906470964</speed>
  <fix>3d</fix>
</trkpt>
<trkpt lat="-27.2707034" lon="151.2908488">
  <ele>443.35</ele>
  <time>2026-09-01T19:52:28Z</time>
  <course>355.71</course>
  <speed>25.5</speed>
  <fix>3d</fix>
</trkpt>
<trkpt lat="-27.2706166" lon="151.2908417">
  <ele>443.29</ele>
  <time>2026-09-01T19:52:28Z</time>
  <course>356.42</course>
  <speed>25.42958906470964</speed>
  <fix>3d</fix>
</trkpt>
<trkpt lat="-27.2706577" lon="151.2908449">
  <ele>443.36</ele>
  <time>2026-09-01T19:52:28Z</time>
  <course>355.71</course>
  <speed>25.5</speed>
  <fix>3d</fix>
</trkpt>
<trkpt lat="-27.2705938" lon="151.2908397">
  <ele>443.29</ele>
  <time>2026-09-01T19:52:28Z</time>
  <course>356.41</course>
  <speed>25.439561710060968</speed>
  <fix>3d</fix>
</trkpt>
<trkpt lat="-27.2706577" lon="151.2908449">
  <ele>443.36</ele>
  <time>2026-09-01T19:52:28Z</time>
  <course>355.71</course>
  <speed>25.5</speed>
  <fix>3d</fix>
</trkpt>
<trkpt lat="-27.2705709" lon="151.2908378">
  <ele>443.29</ele>
  <time>2026-09-01T19:52:28Z</time>
  <course>356.39</course>
  <speed>25.439561710060968</speed>
  <fix>3d</fix>
</trkpt>
<trkpt lat="-27.270612" lon="151.290841">
  <ele>443.36</ele>
  <time>2026-09-01T19:52:28Z</time>
  <course>355.71</course>
  <speed>25.51</speed>
  <fix>3d</fix>
</trkpt>
<trkpt lat="-27.2705481" lon="151.2908359">
  <ele>443.29</ele>
  <time>2026-09-01T19:52:28Z</time>
  <course>356.36</course>
  <speed>25.44953437688006</speed>
  <fix>3d</fix>
</trkpt>
<trkpt lat="-27.270612" lon="151.290841">
  <ele>443.36</ele>
  <time>2026-09-01T19:52:28Z</time>
  <course>355.71</course>
  <speed>25.51</speed>
  <fix>3d</fix>
</trkpt>
<trkpt lat="-27.2705253" lon="151.2908339">
  <ele>443.29</ele>
  <time>2026-09-01T19:52:28Z</time>
  <course>356.39</course>
  <speed>25.439561710060968</speed>
  <fix>3d</fix>
</trkpt>
<trkpt lat="-27.2705662" lon="151.2908372">
  <ele>443.36</ele>
  <time>2026-09-01T19:52:28Z</time>
  <course>355.71</course>
  <speed>25.51</speed>
  <fix>3d</fix>
</trkpt>
<trkpt lat="-27.2705031" lon="151.2908321">
  <ele>443.29</ele>
  <time>2026-09-01T19:52:28Z</time>
  <course>356.32</course>
  <speed>25.439561710060968</speed>
  <fix>3d</fix>
</trkpt>
<trkpt lat="-27.2705662" lon="151.2908372">
  <ele>443.36</ele>
  <time>2026-09-01T19:52:28Z</time>
  <course>355.71</course>
  <speed>25.51</speed>
  <fix>3d</fix>
</trkpt>
<trkpt lat="-27.2704795" lon="151.2908301">
  <ele>443.29</ele>
  <time>2026-09-01T19:52:28Z</time>
  <course>356.36</course>
  <speed>25.440302671155468</speed>
  <fix>3d</fix>
</trkpt>
<trkpt lat="-27.2705205" lon="151.2908333">
  <ele>443.36</ele>
  <time>2026-09-01T19:52:28Z</time>
  <course>355.71</course>
  <speed>25.51</speed>
  <fix>3d</fix>
</trkpt>
<trkpt lat="-27.2704569" lon="151.2908282">
  <ele>443.29</ele>
  <time>2026-09-01T19:52:28Z</time>
  <course>356.43</course>
  <speed>25.450275047629642</speed>
  <fix>3d</fix>
</trkpt>
<trkpt lat="-27.2705205" lon="151.2908333">
  <ele>443.36</ele>
  <time>2026-09-01T19:52:28Z</time>
  <course>355.71</course>
  <speed>25.51</speed>
  <fix>3d</fix>
</trkpt>
<trkpt lat="-27.270434" lon="151.2908262">
  <ele>443.29</ele>
  <time>2026-09-01T19:52:29Z</time>
  <course>356.44</course>
  <speed>25.450275047629642</speed>
  <fix>3d</fix>
</trkpt>
<trkpt lat="-27.2704748" lon="151.2908295">
  <ele>443.35</ele>
  <time>2026-09-01T19:52:29Z</time>
  <course>355.7</course>
  <speed>25.51</speed>
  <fix>3d</fix>
</trkpt>
<trkpt lat="-27.2704111" lon="151.2908243">
  <ele>443.29</ele>
  <time>2026-09-01T19:52:29Z</time>
  <course>356.43</course>
  <speed>25.460247445773184</speed>
  <fix>3d</fix>
</trkpt>
<trkpt lat="-27.2704748" lon="151.2908295">
  <ele>443.35</ele>
  <time>2026-09-01T19:52:29Z</time>
  <course>355.7</course>
  <speed>25.51</speed>
  <fix>3d</fix>
</trkpt>
<trkpt lat="-27.2703882" lon="151.2908223">
  <ele>443.28</ele>
  <time>2026-09-01T19:52:29Z</time>
  <course>356.38</course>
  <speed>25.470219865560644</speed>
  <fix>3d</fix>
</trkpt>
<trkpt lat="-27.2704291" lon="151.2908256">
  <ele>443.35</ele>
  <time>2026-09-01T19:52:29Z</time>
  <course>355.69</course>
  <speed>25.51</speed>
  <fix>3d</fix>
</trkpt>
<trkpt lat="-27.2703651" lon="151.2908204">
  <ele>443.28</ele>
  <time>2026-09-01T19:52:29Z</time>
  <course>356.4</course>
  <speed>25.470219865560644</speed>
  <fix>3d</fix>
</trkpt>
<trkpt lat="-27.2704291" lon="151.2908256">
  <ele>443.35</ele>
  <time>2026-09-01T19:52:29Z</time>
  <course>355.69</course>
  <speed>25.51</speed>
  <fix>3d</fix>
</trkpt>
<trkpt lat="-27.2703422" lon="151.2908184">
  <ele>443.28</ele>
  <time>2026-09-01T19:52:29Z</time>
  <course>356.46</course>
  <speed>25.470219865560644</speed>
  <fix>3d</fix>
</trkpt>
<trkpt lat="-27.2703834" lon="151.2908217">
  <ele>443.35</ele>
  <time>2026-09-01T19:52:29Z</time>
  <course>355.7</course>
  <speed>25.51</speed>
  <fix>3d</fix>
</trkpt>
<trkpt lat="-27.2703194" lon="151.2908165">
  <ele>443.28</ele>
  <time>2026-09-01T19:52:29Z</time>
  <course>356.49</course>
  <speed>25.470219865560644</speed>
  <fix>3d</fix>
</trkpt>
<trkpt lat="-27.2703834" lon="151.2908217">
  <ele>443.35</ele>
  <time>2026-09-01T19:52:29Z</time>
  <course>355.7</course>
  <speed>25.51</speed>
  <fix>3d</fix>
</trkpt>
<trkpt lat="-27.2702967" lon="151.2908146">
  <ele>443.28</ele>
  <time>2026-09-01T19:52:29Z</time>
  <course>356.48</course>
  <speed>25.469479774820687</speed>
  <fix>3d</fix>
</trkpt>
<trkpt lat="-27.2703377" lon="151.2908178">
  <ele>443.35</ele>
  <time>2026-09-01T19:52:29Z</time>
  <course>355.7</course>
  <speed>25.51</speed>
  <fix>3d</fix>
</trkpt>
<trkpt lat="-27.2702739" lon="151.2908127">
  <ele>443.29</ele>
  <time>2026-09-01T19:52:29Z</time>
  <course>356.41</course>
  <speed>25.469479774820687</speed>
  <fix>3d</fix>
</trkpt>
<trkpt lat="-27.2703377" lon="151.2908178">
  <ele>443.35</ele>
  <time>2026-09-01T19:52:29Z</time>
  <course>355.7</course>
  <speed>25.51</speed>
  <fix>3d</fix>
</trkpt>
<trkpt lat="-27.270251" lon="151.2908107">
  <ele>443.29</ele>
  <time>2026-09-01T19:52:29Z</time>
  <course>356.43</course>
  <speed>25.469479774820687</speed>
  <fix>3d</fix>
</trkpt>
<trkpt lat="-27.270292" lon="151.290814">
  <ele>443.35</ele>
  <time>2026-09-01T19:52:29Z</time>
  <course>355.71</course>
  <speed>25.51</speed>
  <fix>3d</fix>
</trkpt>
<trkpt lat="-27.2702281" lon="151.2908088">
  <ele>443.29</ele>
  <time>2026-09-01T19:52:29Z</time>
  <course>356.49</course>
  <speed>25.469479774820687</speed>
  <fix>3d</fix>
</trkpt>
<trkpt lat="-27.270292" lon="151.290814">
  <ele>443.35</ele>
  <time>2026-09-01T19:52:29Z</time>
  <course>355.71</course>
  <speed>25.51</speed>
  <fix>3d</fix>
</trkpt>
<trkpt lat="-27.2702051" lon="151.2908069">
  <ele>443.28</ele>
  <time>2026-09-01T19:52:29Z</time>
  <course>356.52</course>
  <speed>25.47945250589188</speed>
  <fix>3d</fix>
</trkpt>
<trkpt lat="-27.2702463" lon="151.2908101">
  <ele>443.35</ele>
  <time>2026-09-01T19:52:29Z</time>
  <course>355.72</course>
  <speed>25.51</speed>
  <fix>3d</fix>
</trkpt>
<trkpt lat="-27.2701822" lon="151.2908049">
  <ele>443.28</ele>
  <time>2026-09-01T19:52:29Z</time>
  <course>356.44</course>
  <speed>25.47945250589188</speed>
  <fix>3d</fix>
</trkpt>
<trkpt lat="-27.2702463" lon="151.2908101">
  <ele>443.35</ele>
  <time>2026-09-01T19:52:29Z</time>
  <course>355.72</course>
  <speed>25.51</speed>
  <fix>3d</fix>
</trkpt>
<trkpt lat="-27.2701592" lon="151.290803">
  <ele>443.29</ele>
  <time>2026-09-01T19:52:29Z</time>
  <course>356.39</course>
  <speed>25.500137254532575</speed>
  <fix>3d</fix>
</trkpt>
<trkpt lat="-27.2702006" lon="151.2908064">
  <ele>443.35</ele>
  <time>2026-09-01T19:52:29Z</time>
  <course>355.73</course>
  <speed>25.5</speed>
  <fix>3d</fix>
</trkpt>
<trkpt lat="-27.2701362" lon="151.2908011">
  <ele>443.29</ele>
  <time>2026-09-01T19:52:29Z</time>
  <course>356.43</course>
  <speed>25.500137254532575</speed>
  <fix>3d</fix>
</trkpt>
<trkpt lat="-27.2702006" lon="151.2908064">
  <ele>443.35</ele>
  <time>2026-09-01T19:52:29Z</time>
  <course>355.73</course>
  <speed>25.5</speed>
  <fix>3d</fix>
</trkpt>
<trkpt lat="-27.2701132" lon="151.2907991">
  <ele>443.29</ele>
  <time>2026-09-01T19:52:29Z</time>
  <course>356.49</course>
  <speed>25.510109760641956</speed>
  <fix>3d</fix>
</trkpt>
<trkpt lat="-27.270155" lon="151.2908025">
  <ele>443.35</ele>
  <time>2026-09-01T19:52:29Z</time>
  <course>355.72</course>
  <speed>25.5</speed>
  <fix>3d</fix>
</trkpt>
<trkpt lat="-27.2700902" lon="151.2907972">
  <ele>443.3</ele>
  <time>2026-09-01T19:52:29Z</time>
  <course>356.49</course>
  <speed>25.510109760641956</speed>
  <fix>3d</fix>
</trkpt>
<trkpt lat="-27.270155" lon="151.2908025">
  <ele>443.35</ele>
  <time>2026-09-01T19:52:29Z</time>
  <course>355.72</course>
  <speed>25.5</speed>
  <fix>3d</fix>
</trkpt>
<trkpt lat="-27.2700672" lon="151.2907953">
  <ele>443.3</ele>
  <time>2026-09-01T19:52:29Z</time>
  <course>356.47</course>
  <speed>25.520082288268586</speed>
  <fix>3d</fix>
</trkpt>
<trkpt lat="-27.2701092" lon="151.2907986">
  <ele>443.35</ele>
  <time>2026-09-01T19:52:29Z</time>
  <course>355.71</course>
  <speed>25.5</speed>
  <fix>3d</fix>
</trkpt>
<trkpt lat="-27.2700443" lon="151.2907933">
  <ele>443.3</ele>
  <time>2026-09-01T19:52:29Z</time>
  <course>356.5</course>
  <speed>25.530054837387247</speed>
  <fix>3d</fix>
</trkpt>
<trkpt lat="-27.2701092" lon="151.2907986">
  <ele>443.35</ele>
  <time>2026-09-01T19:52:29Z</time>
  <course>355.71</course>
  <speed>25.5</speed>
  <fix>3d</fix>
</trkpt>
<trkpt lat="-27.2700213" lon="151.2907914">
  <ele>443.3</ele>
  <time>2026-09-01T19:52:29Z</time>
  <course>356.5</course>
  <speed>25.539289340151967</speed>
  <fix>3d</fix>
</trkpt>
<trkpt lat="-27.2700634" lon="151.2907948">
  <ele>443.36</ele>
  <time>2026-09-01T19:52:29Z</time>
  <course>355.72</course>
  <speed>25.5</speed>
  <fix>3d</fix>
</trkpt>
<trkpt lat="-27.2699983" lon="151.2907895">
  <ele>443.3</ele>
  <time>2026-09-01T19:52:29Z</time>
  <course>356.51</course>
  <speed>25.539289340151967</speed>
  <fix>3d</fix>
</trkpt>
<trkpt lat="-27.2700634" lon="151.2907948">
  <ele>443.36</ele>
  <time>2026-09-01T19:52:29Z</time>
  <course>355.72</course>
  <speed>25.5</speed>
  <fix>3d</fix>
</trkpt>
<trkpt lat="-27.2699753" lon="151.2907875">
  <ele>443.3</ele>
  <time>2026-09-01T19:52:29Z</time>
  <course>356.53</course>
  <speed>25.54926222026773</speed>
  <fix>3d</fix>
</trkpt>
<trkpt lat="-27.2700177" lon="151.2907909">
  <ele>443.37</ele>
  <time>2026-09-01T19:52:29Z</time>
  <course>355.72</course>
  <speed>25.5</speed>
  <fix>3d</fix>
</trkpt>
<trkpt lat="-27.2699524" lon="151.2907856">
  <ele>443.3</ele>
  <time>2026-09-01T19:52:29Z</time>
  <course>356.54</course>
  <speed>25.54926222026773</speed>
  <fix>3d</fix>
</trkpt>
<trkpt lat="-27.2700177" lon="151.2907909">
  <ele>443.37</ele>
  <time>2026-09-01T19:52:29Z</time>
  <course>355.72</course>
  <speed>25.5</speed>
  <fix>3d</fix>
</trkpt>
<trkpt lat="-27.2699294" lon="151.2907837">
  <ele>443.3</ele>
  <time>2026-09-01T19:52:29Z</time>
  <course>356.55</course>
  <speed>25.558501521020357</speed>
  <fix>3d</fix>
</trkpt>
<trkpt lat="-27.2699721" lon="151.2907871">
  <ele>443.37</ele>
  <time>2026-09-01T19:52:29Z</time>
  <course>355.73</course>
  <speed>25.5</speed>
  <fix>3d</fix>
</trkpt>
<trkpt lat="-27.2699065" lon="151.2907818">
  <ele>443.3</ele>
  <time>2026-09-01T19:52:29Z</time>
  <course>356.53</course>
  <speed>25.55777181211226</speed>
  <fix>3d</fix>
</trkpt>
<trkpt lat="-27.2699721" lon="151.2907871">
  <ele>443.37</ele>
  <time>2026-09-01T19:52:29Z</time>
  <course>355.73</course>
  <speed>25.5</speed>
  <fix>3d</fix>
</trkpt>
<trkpt lat="-27.2698834" lon="151.2907799">
  <ele>443.31</ele>
  <time>2026-09-01T19:52:29Z</time>
  <course>356.52</course>
  <speed>25.55777181211226</speed>
  <fix>3d</fix>
</trkpt>
<trkpt lat="-27.2699264" lon="151.2907832">
  <ele>443.37</ele>
  <time>2026-09-01T19:52:29Z</time>
  <course>355.75</course>
  <speed>25.5</speed>
  <fix>3d</fix>
</trkpt>
<trkpt lat="-27.2698606" lon="151.290778">
  <ele>443.31</ele>
  <time>2026-09-01T19:52:29Z</time>
  <course>356.47</course>
  <speed>25.558501521020357</speed>
  <fix>3d</fix>
</trkpt>
<trkpt lat="-27.2699264" lon="151.2907832">
  <ele>443.37</ele>
  <time>2026-09-01T19:52:29Z</time>
  <course>355.75</course>
  <speed>25.5</speed>
  <fix>3d</fix>
</trkpt>
<trkpt lat="-27.2698379" lon="151.2907761">
  <ele>443.31</ele>
  <time>2026-09-01T19:52:29Z</time>
  <course>356.48</course>
  <speed>25.54852833335024</speed>
  <fix>3d</fix>
</trkpt>
<trkpt lat="-27.2698807" lon="151.2907794">
  <ele>443.37</ele>
  <time>2026-09-01T19:52:29Z</time>
  <course>355.76</course>
  <speed>25.5</speed>
  <fix>3d</fix>
</trkpt>
<trkpt lat="-27.2698151" lon="151.2907742">
  <ele>443.31</ele>
  <time>2026-09-01T19:52:29Z</time>
  <course>356.51</course>
  <speed>25.54852833335024</speed>
  <fix>3d</fix>
</trkpt>
<trkpt lat="-27.2698807" lon="151.2907794">
  <ele>443.37</ele>
  <time>2026-09-01T19:52:29Z</time>
  <course>355.76</course>
  <speed>25.5</speed>
  <fix>3d</fix>
</trkpt>
<trkpt lat="-27.2697925" lon="151.2907723">
  <ele>443.31</ele>
  <time>2026-09-01T19:52:29Z</time>
  <course>356.54</course>
  <speed>25.538555166649502</speed>
  <fix>3d</fix>
</trkpt>
<trkpt lat="-27.269835" lon="151.2907756">
  <ele>443.37</ele>
  <time>2026-09-01T19:52:29Z</time>
  <course>355.75</course>
  <speed>25.5</speed>
  <fix>3d</fix>
</trkpt>
<trkpt lat="-27.2697697" lon="151.2907704">
  <ele>443.31</ele>
  <time>2026-09-01T19:52:29Z</time>
  <course>356.55</course>
  <speed>25.52858202094272</speed>
  <fix>3d</fix>
</trkpt>
<trkpt lat="-27.269835" lon="151.2907756">
  <ele>443.37</ele>
  <time>2026-09-01T19:52:29Z</time>
  <course>355.75</course>
  <speed>25.5</speed>
  <fix>3d</fix>
</trkpt>
<trkpt lat="-27.2697469" lon="151.2907685">
  <ele>443.3</ele>
  <time>2026-09-01T19:52:29Z</time>
  <course>356.56</course>
  <speed>25.52858202094272</speed>
  <fix>3d</fix>
</trkpt>
<trkpt lat="-27.2697893" lon="151.2907718">
  <ele>443.37</ele>
  <time>2026-09-01T19:52:29Z</time>
  <course>355.74</course>
  <speed>25.5</speed>
  <fix>3d</fix>
</trkpt>
<trkpt lat="-27.2697241" lon="151.2907665">
  <ele>443.3</ele>
  <time>2026-09-01T19:52:29Z</time>
  <course>356.56</course>
  <speed>25.52858202094272</speed>
  <fix>3d</fix>
</trkpt>
<trkpt lat="-27.2697893" lon="151.2907718">
  <ele>443.37</ele>
  <time>2026-09-01T19:52:29Z</time>
  <course>355.74</course>
  <speed>25.5</speed>
  <fix>3d</fix>
</trkpt>
<trkpt lat="-27.2697012" lon="151.2907646">
  <ele>443.3</ele>
  <time>2026-09-01T19:52:29Z</time>
  <course>356.52</course>
  <speed>25.52858202094272</speed>
  <fix>3d</fix>
</trkpt>
<trkpt lat="-27.2697437" lon="151.290768">
  <ele>443.36</ele>
  <time>2026-09-01T19:52:29Z</time>
  <course>355.75</course>
  <speed>25.5</speed>
  <fix>3d</fix>
</trkpt>
<trkpt lat="-27.2696784" lon="151.2907627">
  <ele>443.3</ele>
  <time>2026-09-01T19:52:29Z</time>
  <course>356.57</course>
  <speed>25.52858202094272</speed>
  <fix>3d</fix>
</trkpt>
<trkpt lat="-27.2697437" lon="151.290768">
  <ele>443.36</ele>
  <time>2026-09-01T19:52:29Z</time>
  <course>355.75</course>
  <speed>25.5</speed>
  <fix>3d</fix>
</trkpt>
<trkpt lat="-27.2696554" lon="151.2907608">
  <ele>443.3</ele>
  <time>2026-09-01T19:52:29Z</time>
  <course>356.62</course>
  <speed>25.52858202094272</speed>
  <fix>3d</fix>
</trkpt>
<trkpt lat="-27.269698" lon="151.2907642">
  <ele>443.36</ele>
  <time>2026-09-01T19:52:29Z</time>
  <course>355.75</course>
  <speed>25.5</speed>
  <fix>3d</fix>
</trkpt>
<trkpt lat="-27.2696325" lon="151.2907589">
  <ele>443.29</ele>
  <time>2026-09-01T19:52:29Z</time>
  <course>356.61</course>
  <speed>25.538555166649502</speed>
  <fix>3d</fix>
</trkpt>
<trkpt lat="-27.269698" lon="151.2907642">
  <ele>443.36</ele>
  <time>2026-09-01T19:52:29Z</time>
  <course>355.75</course>
  <speed>25.5</speed>
  <fix>3d</fix>
</trkpt>
<trkpt lat="-27.2696096" lon="151.290757">
  <ele>443.29</ele>
  <time>2026-09-01T19:52:29Z</time>
  <course>356.59</course>
  <speed>25.538555166649502</speed>
  <fix>3d</fix>
</trkpt>
<trkpt lat="-27.2696522" lon="151.2907603">
  <ele>443.36</ele>
  <time>2026-09-01T19:52:29Z</time>
  <course>355.75</course>
  <speed>25.5</speed>
  <fix>3d</fix>
</trkpt>
<trkpt lat="-27.2695867" lon="151.2907551">
  <ele>443.29</ele>
  <time>2026-09-01T19:52:29Z</time>
  <course>356.59</course>
  <speed>25.53782488780123</speed>
  <fix>3d</fix>
</trkpt>
<trkpt lat="-27.2696522" lon="151.2907603">
  <ele>443.36</ele>
  <time>2026-09-01T19:52:29Z</time>
  <course>355.75</course>
  <speed>25.5</speed>
  <fix>3d</fix>
</trkpt>
<trkpt lat="-27.2695638" lon="151.2907532">
  <ele>443.29</ele>
  <time>2026-09-01T19:52:29Z</time>
  <course>356.63</course>
  <speed>25.54707223929975</speed>
  <fix>3d</fix>
</trkpt>
<trkpt lat="-27.2696064" lon="151.2907565">
  <ele>443.36</ele>
  <time>2026-09-01T19:52:29Z</time>
  <course>355.76</course>
  <speed>25.49</speed>
  <fix>3d</fix>
</trkpt>
<trkpt lat="-27.2695408" lon="151.2907513">
  <ele>443.29</ele>
  <time>2026-09-01T19:52:29Z</time>
  <course>356.67</course>
  <speed>25.54707223929975</speed>
  <fix>3d</fix>
</trkpt>
<trkpt lat="-27.2696064" lon="151.2907565">
  <ele>443.36</ele>
  <time>2026-09-01T19:52:29Z</time>
  <course>355.76</course>
  <speed>25.49</speed>
  <fix>3d</fix>
</trkpt>
<trkpt lat="-27.2695179" lon="151.2907494">
  <ele>443.29</ele>
  <time>2026-09-01T19:52:29Z</time>
  <course>356.65</course>
  <speed>25.54635003283248</speed>
  <fix>3d</fix>
</trkpt>
<trkpt lat="-27.2695608" lon="151.2907528">
  <ele>443.36</ele>
  <time>2026-09-01T19:52:29Z</time>
  <course>355.78</course>
  <speed>25.5</speed>
  <fix>3d</fix>
</trkpt>
<trkpt lat="-27.269495" lon="151.2907475">
  <ele>443.29</ele>
  <time>2026-09-01T19:52:29Z</time>
  <course>356.65</course>
  <speed>25.54635003283248</speed>
  <fix>3d</fix>
</trkpt>
<trkpt lat="-27.2695608" lon="151.2907528">
  <ele>443.36</ele>
  <time>2026-09-01T19:52:29Z</time>
  <course>355.78</course>
  <speed>25.5</speed>
  <fix>3d</fix>
</trkpt>
<trkpt lat="-27.2694721" lon="151.2907456">
  <ele>443.28</ele>
  <time>2026-09-01T19:52:29Z</time>
  <course>356.63</course>
  <speed>25.556324070570085</speed>
  <fix>3d</fix>
</trkpt>
<trkpt lat="-27.2695151" lon="151.290749">
  <ele>443.35</ele>
  <time>2026-09-01T19:52:29Z</time>
  <course>355.81</course>
  <speed>25.5</speed>
  <fix>3d</fix>
</trkpt>
<trkpt lat="-27.2694492" lon="151.2907438">
  <ele>443.28</ele>
  <time>2026-09-01T19:52:29Z</time>
  <course>356.6</course>
  <speed>25.555606038597478</speed>
  <fix>3d</fix>
</trkpt>
<trkpt lat="-27.2695151" lon="151.290749">
  <ele>443.35</ele>
  <time>2026-09-01T19:52:29Z</time>
  <course>355.81</course>
  <speed>25.5</speed>
  <fix>3d</fix>
</trkpt>
<trkpt lat="-27.2694262" lon="151.2907419">
  <ele>443.28</ele>
  <time>2026-09-01T19:52:29Z</time>
  <course>356.61</course>
  <speed>25.556324070570085</speed>
  <fix>3d</fix>
</trkpt>
<trkpt lat="-27.2694694" lon="151.2907453">
  <ele>443.34</ele>
  <time>2026-09-01T19:52:29Z</time>
  <course>355.83</course>
  <speed>25.5</speed>
  <fix>3d</fix>
</trkpt>
<trkpt lat="-27.2694035" lon="151.29074">
  <ele>443.28</ele>
  <time>2026-09-01T19:52:29Z</time>
  <course>356.64</course>
  <speed>25.566298128591082</speed>
  <fix>3d</fix>
</trkpt>
<trkpt lat="-27.2694694" lon="151.2907453">
  <ele>443.34</ele>
  <time>2026-09-01T19:52:29Z</time>
  <course>355.83</course>
  <speed>25.5</speed>
  <fix>3d</fix>
</trkpt>
<trkpt lat="-27.2693807" lon="151.2907382">
  <ele>443.28</ele>
  <time>2026-09-01T19:52:29Z</time>
  <course>356.63</course>
  <speed>25.555606038597478</speed>
  <fix>3d</fix>
</trkpt>
<trkpt lat="-27.2694237" lon="151.2907415">
  <ele>443.34</ele>
  <time>2026-09-01T19:52:29Z</time>
  <course>355.83</course>
  <speed>25.51</speed>
  <fix>3d</fix>
</trkpt>
<trkpt lat="-27.269358" lon="151.2907363">
  <ele>443.28</ele>
  <time>2026-09-01T19:52:29Z</time>
  <course>356.64</course>
  <speed>25.556324070570085</speed>
  <fix>3d</fix>
</trkpt>
<trkpt lat="-27.2694237" lon="151.2907415">
  <ele>443.34</ele>
  <time>2026-09-01T19:52:29Z</time>
  <course>355.83</course>
  <speed>25.51</speed>
  <fix>3d</fix>
</trkpt>
<trkpt lat="-27.2693353" lon="151.2907344">
  <ele>443.27</ele>
  <time>2026-09-01T19:52:29Z</time>
  <course>356.67</course>
  <speed>25.545631720511434</speed>
  <fix>3d</fix>
</trkpt>
<trkpt lat="-27.269378" lon="151.2907377">
  <ele>443.34</ele>
  <time>2026-09-01T19:52:29Z</time>
  <course>355.83</course>
  <speed>25.51</speed>
  <fix>3d</fix>
</trkpt>
<trkpt lat="-27.2693123" lon="151.2907326">
  <ele>443.27</ele>
  <time>2026-09-01T19:52:29Z</time>
  <course>356.67</course>
  <speed>25.53565742251411</speed>
  <fix>3d</fix>
</trkpt>
<trkpt lat="-27.269378" lon="151.2907377">
  <ele>443.34</ele>
  <time>2026-09-01T19:52:29Z</time>
  <course>355.83</course>
  <speed>25.51</speed>
  <fix>3d</fix>
</trkpt>
<trkpt lat="-27.2692897" lon="151.2907307">
  <ele>443.27</ele>
  <time>2026-09-01T19:52:29Z</time>
  <course>356.64</course>
  <speed>25.534942725606417</speed>
  <fix>3d</fix>
</trkpt>
<trkpt lat="-27.2693323" lon="151.290734">
  <ele>443.34</ele>
  <time>2026-09-01T19:52:29Z</time>
  <course>355.83</course>
  <speed>25.51</speed>
  <fix>3d</fix>
</trkpt>
<trkpt lat="-27.269267" lon="151.2907289">
  <ele>443.27</ele>
  <time>2026-09-01T19:52:29Z</time>
  <course>356.64</course>
  <speed>25.52496816844244</speed>
  <fix>3d</fix>
</trkpt>
<trkpt lat="-27.2693323" lon="151.290734">
  <ele>443.34</ele>
  <time>2026-09-01T19:52:29Z</time>
  <course>355.83</course>
  <speed>25.51</speed>
  <fix>3d</fix>
</trkpt>
<trkpt lat="-27.2692441" lon="151.290727">
  <ele>443.26</ele>
  <time>2026-09-01T19:52:29Z</time>
  <course>356.64</course>
  <speed>25.51499363119654</speed>
  <fix>3d</fix>
</trkpt>
<trkpt lat="-27.2692866" lon="151.2907303">
  <ele>443.33</ele>
  <time>2026-09-01T19:52:29Z</time>
  <course>355.84</course>
  <speed>25.52</speed>
  <fix>3d</fix>
</trkpt>
<trkpt lat="-27.2692214" lon="151.2907251">
  <ele>443.26</ele>
  <time>2026-09-01T19:52:29Z</time>
  <course>356.68</course>
  <speed>25.505734649290147</speed>
  <fix>3d</fix>
</trkpt>
<trkpt lat="-27.2692866" lon="151.2907303">
  <ele>443.33</ele>
  <time>2026-09-01T19:52:29Z</time>
  <course>355.84</course>
  <speed>25.52</speed>
  <fix>3d</fix>
</trkpt>
<trkpt lat="-27.2691987" lon="151.2907233">
  <ele>443.26</ele>
  <time>2026-09-01T19:52:29Z</time>
  <course>356.73</course>
  <speed>25.50501911389207</speed>
  <fix>3d</fix>
</trkpt>
<trkpt lat="-27.2692409" lon="151.2907265">
  <ele>443.33</ele>
  <time>2026-09-01T19:52:29Z</time>
  <course>355.84</course>
  <speed>25.52</speed>
  <fix>3d</fix>
</trkpt>
<trkpt lat="-27.269176" lon="151.2907214">
  <ele>443.26</ele>
  <time>2026-09-01T19:52:29Z</time>
  <course>356.8</course>
  <speed>25.50501911389207</speed>
  <fix>3d</fix>
</trkpt>
<trkpt lat="-27.2692409" lon="151.2907265">
  <ele>443.33</ele>
  <time>2026-09-01T19:52:29Z</time>
  <course>355.84</course>
  <speed>25.52</speed>
  <fix>3d</fix>
</trkpt>
<trkpt lat="-27.2691532" lon="151.2907196">
  <ele>443.25</ele>
  <time>2026-09-01T19:52:29Z</time>
  <course>356.82</course>
  <speed>25.504307479325917</speed>
  <fix>3d</fix>
</trkpt>
<trkpt lat="-27.2691952" lon="151.2907228">
  <ele>443.32</ele>
  <time>2026-09-01T19:52:29Z</time>
  <course>355.84</course>
  <speed>25.52</speed>
  <fix>3d</fix>
</trkpt>
<trkpt lat="-27.2691305" lon="151.2907177">
  <ele>443.25</ele>
  <time>2026-09-01T19:52:29Z</time>
  <course>356.76</course>
  <speed>25.494332703563746</speed>
  <fix>3d</fix>
</trkpt>
<trkpt lat="-27.2691952" lon="151.2907228">
  <ele>443.32</ele>
  <time>2026-09-01T19:52:29Z</time>
  <course>355.84</course>
  <speed>25.52</speed>
  <fix>3d</fix>
</trkpt>
<trkpt lat="-27.2691077" lon="151.2907159">
  <ele>443.24</ele>
  <time>2026-09-01T19:52:29Z</time>
  <course>356.72</course>
  <speed>25.49362469324439</speed>
  <fix>3d</fix>
</trkpt>
<trkpt lat="-27.2691493" lon="151.2907191">
  <ele>443.31</ele>
  <time>2026-09-01T19:52:29Z</time>
  <course>355.86</course>
  <speed>25.53</speed>
  <fix>3d</fix>
</trkpt>
<trkpt lat="-27.2690849" lon="151.2907141">
  <ele>443.24</ele>
  <time>2026-09-01T19:52:29Z</time>
  <course>356.72</course>
  <speed>25.49362469324439</speed>
  <fix>3d</fix>
</trkpt>
<trkpt lat="-27.2691493" lon="151.2907191">
  <ele>443.31</ele>
  <time>2026-09-01T19:52:29Z</time>
  <course>355.86</course>
  <speed>25.53</speed>
  <fix>3d</fix>
</trkpt>
<trkpt lat="-27.2690621" lon="151.2907122">
  <ele>443.24</ele>
  <time>2026-09-01T19:52:29Z</time>
  <course>356.68</course>
  <speed>25.49362469324439</speed>
  <fix>3d</fix>
</trkpt>
<trkpt lat="-27.2691035" lon="151.2907153">
  <ele>443.3</ele>
  <time>2026-09-01T19:52:29Z</time>
  <course>355.88</course>
  <speed>25.53</speed>
  <fix>3d</fix>
</trkpt>
<trkpt lat="-27.2690393" lon="151.2907104">
  <ele>443.23</ele>
  <time>2026-09-01T19:52:29Z</time>
  <course>356.71</course>
  <speed>25.483649660125216</speed>
  <fix>3d</fix>
</trkpt>
<trkpt lat="-27.2691035" lon="151.2907153">
  <ele>443.3</ele>
  <time>2026-09-01T19:52:29Z</time>
  <course>355.88</course>
  <speed>25.53</speed>
  <fix>3d</fix>
</trkpt>
<trkpt lat="-27.2690165" lon="151.2907085">
  <ele>443.23</ele>
  <time>2026-09-01T19:52:29Z</time>
  <course>356.72</course>
  <speed>25.483649660125216</speed>
  <fix>3d</fix>
</trkpt>
<trkpt lat="-27.2690578" lon="151.2907116">
  <ele>443.29</ele>
  <time>2026-09-01T19:52:29Z</time>
  <course>355.89</course>
  <speed>25.53</speed>
  <fix>3d</fix>
</trkpt>
<trkpt lat="-27.2689937" lon="151.2907067">
  <ele>443.23</ele>
  <time>2026-09-01T19:52:29Z</time>
  <course>356.74</course>
  <speed>25.483649660125216</speed>
  <fix>3d</fix>
</trkpt>
<trkpt lat="-27.2690578" lon="151.2907116">
  <ele>443.29</ele>
  <time>2026-09-01T19:52:29Z</time>
  <course>355.89</course>
  <speed>25.53</speed>
  <fix>3d</fix>
</trkpt>
<trkpt lat="-27.2689709" lon="151.2907049">
  <ele>443.23</ele>
  <time>2026-09-01T19:52:29Z</time>
  <course>356.78</course>
  <speed>25.483649660125216</speed>
  <fix>3d</fix>
</trkpt>
<trkpt lat="-27.269012" lon="151.290708">
  <ele>443.28</ele>
  <time>2026-09-01T19:52:29Z</time>
  <course>355.89</course>
  <speed>25.53</speed>
  <fix>3d</fix>
</trkpt>
<trkpt lat="-27.2689482" lon="151.290703">
  <ele>443.23</ele>
  <time>2026-09-01T19:52:29Z</time>
  <course>356.79</course>
  <speed>25.483649660125216</speed>
  <fix>3d</fix>
</trkpt>
<trkpt lat="-27.269012" lon="151.290708">
  <ele>443.28</ele>
  <time>2026-09-01T19:52:29Z</time>
  <course>355.89</course>
  <speed>25.53</speed>
  <fix>3d</fix>
</trkpt>
<trkpt lat="-27.2689255" lon="151.2907012">
  <ele>443.22</ele>
  <time>2026-09-01T19:52:29Z</time>
  <course>356.79</course>
  <speed>25.482945277184896</speed>
  <fix>3d</fix>
</trkpt>
<trkpt lat="-27.2689663" lon="151.2907043">
  <ele>443.27</ele>
  <time>2026-09-01T19:52:29Z</time>
  <course>355.89</course>
  <speed>25.54</speed>
  <fix>3d</fix>
</trkpt>
<trkpt lat="-27.2689028" lon="151.2906994">
  <ele>443.22</ele>
  <time>2026-09-01T19:52:29Z</time>
  <course>356.76</course>
  <speed>25.472969987812572</speed>
  <fix>3d</fix>
</trkpt>
<trkpt lat="-27.2689663" lon="151.2907043">
  <ele>443.27</ele>
  <time>2026-09-01T19:52:29Z</time>
  <course>355.89</course>
  <speed>25.54</speed>
  <fix>3d</fix>
</trkpt>
<trkpt lat="-27.2688801" lon="151.2906976">
  <ele>443.21</ele>
  <time>2026-09-01T19:52:29Z</time>
  <course>356.73</course>
  <speed>25.472969987812572</speed>
  <fix>3d</fix>
</trkpt>
<trkpt lat="-27.2689205" lon="151.2907006">
  <ele>443.26</ele>
  <time>2026-09-01T19:52:29Z</time>
  <course>355.9</course>
  <speed>25.54</speed>
  <fix>3d</fix>
</trkpt>
<trkpt lat="-27.2688575" lon="151.2906957">
  <ele>443.2</ele>
  <time>2026-09-01T19:52:29Z</time>
  <course>356.68</course>
  <speed>25.462994717825318</speed>
  <fix>3d</fix>
</trkpt>
<trkpt lat="-27.2689205" lon="151.2907006">
  <ele>443.26</ele>
  <time>2026-09-01T19:52:29Z</time>
  <course>355.9</course>
  <speed>25.54</speed>
  <fix>3d</fix>
</trkpt>
<trkpt lat="-27.2688346" lon="151.2906939">
  <ele>443.2</ele>
  <time>2026-09-01T19:52:29Z</time>
  <course>356.69</course>
  <speed>25.453019467245927</speed>
  <fix>3d</fix>
</trkpt>
<trkpt lat="-27.2688748" lon="151.2906969">
  <ele>443.25</ele>
  <time>2026-09-01T19:52:29Z</time>
  <course>355.9</course>
  <speed>25.54</speed>
  <fix>3d</fix>
</trkpt>
<trkpt lat="-27.268812" lon="151.2906921">
  <ele>443.2</ele>
  <time>2026-09-01T19:52:29Z</time>
  <course>356.67</course>
  <speed>25.44374972365512</speed>
  <fix>3d</fix>
</trkpt>
<trkpt lat="-27.2688748" lon="151.2906969">
  <ele>443.25</ele>
  <time>2026-09-01T19:52:29Z</time>
  <course>355.9</course>
  <speed>25.54</speed>
  <fix>3d</fix>
</trkpt>
<trkpt lat="-27.2687893" lon="151.2906902">
  <ele>443.2</ele>
  <time>2026-09-01T19:52:29Z</time>
  <course>356.66</course>
  <speed>25.434484464993584</speed>
  <fix>3d</fix>
</trkpt>
<trkpt lat="-27.2688289" lon="151.2906932">
  <ele>443.24</ele>
  <time>2026-09-01T19:52:29Z</time>
  <course>355.89</course>
  <speed>25.54</speed>
  <fix>3d</fix>
</trkpt>
<trkpt lat="-27.2687667" lon="151.2906884">
  <ele>443.19</ele>
  <time>2026-09-01T19:52:29Z</time>
  <course>356.64</course>
  <speed>25.434484464993584</speed>
  <fix>3d</fix>
</trkpt>
<trkpt lat="-27.2688289" lon="151.2906932">
  <ele>443.24</ele>
  <time>2026-09-01T19:52:29Z</time>
  <course>355.89</course>
  <speed>25.54</speed>
  <fix>3d</fix>
</trkpt>
<trkpt lat="-27.2687439" lon="151.2906865">
  <ele>443.19</ele>
  <time>2026-09-01T19:52:29Z</time>
  <course>356.64</course>
  <speed>25.435198053091703</speed>
  <fix>3d</fix>
</trkpt>
<trkpt lat="-27.2687832" lon="151.2906895">
  <ele>443.23</ele>
  <time>2026-09-01T19:52:29Z</time>
  <course>355.86</course>
  <speed>25.54</speed>
  <fix>3d</fix>
</trkpt>
<trkpt lat="-27.2687211" lon="151.2906847">
  <ele>443.19</ele>
  <time>2026-09-01T19:52:29Z</time>
  <course>356.65</course>
  <speed>25.42594147716068</speed>
  <fix>3d</fix>
</trkpt>
<trkpt lat="-27.2687832" lon="151.2906895">
  <ele>443.23</ele>
  <time>2026-09-01T19:52:29Z</time>
  <course>355.86</course>
  <speed>25.54</speed>
  <fix>3d</fix>
</trkpt>
<trkpt lat="-27.2686982" lon="151.2906828">
  <ele>443.19</ele>
  <time>2026-09-01T19:52:29Z</time>
  <course>356.68</course>
  <speed>25.43663696324654</speed>
  <fix>3d</fix>
</trkpt>
<trkpt lat="-27.2687375" lon="151.2906858">
  <ele>443.23</ele>
  <time>2026-09-01T19:52:29Z</time>
  <course>355.83</course>
  <speed>25.54</speed>
  <fix>3d</fix>
</trkpt>
<trkpt lat="-27.2686753" lon="151.2906809">
  <ele>443.18</ele>
  <time>2026-09-01T19:52:29Z</time>
  <course>356.7</course>
  <speed>25.437362284639498</speed>
  <fix>3d</fix>
</trkpt>
<trkpt lat="-27.2687375" lon="151.2906858">
  <ele>443.23</ele>
  <time>2026-09-01T19:52:29Z</time>
  <course>355.83</course>
  <speed>25.54</speed>
  <fix>3d</fix>
</trkpt>
<trkpt lat="-27.2686524" lon="151.290679">
  <ele>443.17</ele>
  <time>2026-09-01T19:52:29Z</time>
  <course>356.65</course>
  <speed>25.44733581340098</speed>
  <fix>3d</fix>
</trkpt>
<trkpt lat="-27.2686916" lon="151.290682">
  <ele>443.22</ele>
  <time>2026-09-01T19:52:29Z</time>
  <course>355.79</course>
  <speed>25.54</speed>
  <fix>3d</fix>
</trkpt>
<trkpt lat="-27.2686294" lon="151.2906771">
  <ele>443.17</ele>
  <time>2026-09-01T19:52:29Z</time>
  <course>356.65</course>
  <speed>25.457309362931504</speed>
  <fix>3d</fix>
</trkpt>
<trkpt lat="-27.2686916" lon="151.290682">
  <ele>443.22</ele>
  <time>2026-09-01T19:52:29Z</time>
  <course>355.79</course>
  <speed>25.54</speed>
  <fix>3d</fix>
</trkpt>
<trkpt lat="-27.2686063" lon="151.2906751">
  <ele>443.17</ele>
  <time>2026-09-01T19:52:29Z</time>
  <course>356.64</course>
  <speed>25.457309362931504</speed>
  <fix>3d</fix>
</trkpt>
<trkpt lat="-27.2686458" lon="151.2906782">
  <ele>443.22</ele>
  <time>2026-09-01T19:52:29Z</time>
  <course>355.76</course>
  <speed>25.54</speed>
  <fix>3d</fix>
</trkpt>
<trkpt lat="-27.2685833" lon="151.2906732">
  <ele>443.16</ele>
  <time>2026-09-01T19:52:29Z</time>
  <course>356.65</course>
  <speed>25.458038023382713</speed>
  <fix>3d</fix>
</trkpt>
<trkpt lat="-27.2686458" lon="151.2906782">
  <ele>443.22</ele>
  <time>2026-09-01T19:52:29Z</time>
  <course>355.76</course>
  <speed>25.54</speed>
  <fix>3d</fix>
</trkpt>
<trkpt lat="-27.2685604" lon="151.2906713">
  <ele>443.16</ele>
  <time>2026-09-01T19:52:29Z</time>
  <course>356.64</course>
  <speed>25.468011308305954</speed>
  <fix>3d</fix>
</trkpt>
<trkpt lat="-27.2686" lon="151.2906744">
  <ele>443.22</ele>
  <time>2026-09-01T19:52:29Z</time>
  <course>355.76</course>
  <speed>25.54</speed>
  <fix>3d</fix>
</trkpt>
<trkpt lat="-27.2685374" lon="151.2906694">
  <ele>443.16</ele>
  <time>2026-09-01T19:52:29Z</time>
  <course>356.62</course>
  <speed>25.477984614172293</speed>
  <fix>3d</fix>
</trkpt>
<trkpt lat="-27.2686" lon="151.2906744">
  <ele>443.22</ele>
  <time>2026-09-01T19:52:29Z</time>
  <course>355.76</course>
  <speed>25.54</speed>
  <fix>3d</fix>
</trkpt>
<trkpt lat="-27.2685145" lon="151.2906675">
  <ele>443.15</ele>
  <time>2026-09-01T19:52:29Z</time>
  <course>356.66</course>
  <speed>25.47725652420213</speed>
  <fix>3d</fix>
</trkpt>
<trkpt lat="-27.2685543" lon="151.2906706">
  <ele>443.22</ele>
  <time>2026-09-01T19:52:29Z</time>
  <course>355.76</course>
  <speed>25.54</speed>
  <fix>3d</fix>
</trkpt>
<trkpt lat="-27.2684915" lon="151.2906656">
  <ele>443.16</ele>
  <time>2026-09-01T19:52:29Z</time>
  <course>356.68</course>
  <speed>25.47725652420213</speed>
  <fix>3d</fix>
</trkpt>
<trkpt lat="-27.2685543" lon="151.2906706">
  <ele>443.22</ele>
  <time>2026-09-01T19:52:29Z</time>
  <course>355.76</course>
  <speed>25.54</speed>
  <fix>3d</fix>
</trkpt>
<trkpt lat="-27.2684689" lon="151.2906637">
  <ele>443.16</ele>
  <time>2026-09-01T19:52:29Z</time>
  <course>356.67</course>
  <speed>25.476532338605267</speed>
  <fix>3d</fix>
</trkpt>
<trkpt lat="-27.2685085" lon="151.2906668">
  <ele>443.22</ele>
  <time>2026-09-01T19:52:29Z</time>
  <course>355.77</course>
  <speed>25.54</speed>
  <fix>3d</fix>
</trkpt>
<trkpt lat="-27.268446" lon="151.2906618">
  <ele>443.16</ele>
  <time>2026-09-01T19:52:29Z</time>
  <course>356.67</course>
  <speed>25.475812057714666</speed>
  <fix>3d</fix>
</trkpt>
<trkpt lat="-27.2685085" lon="151.2906668">
  <ele>443.22</ele>
  <time>2026-09-01T19:52:29Z</time>
  <course>355.77</course>
  <speed>25.54</speed>
  <fix>3d</fix>
</trkpt>
<trkpt lat="-27.2684233" lon="151.29066">
  <ele>443.16</ele>
  <time>2026-09-01T19:52:29Z</time>
  <course>356.64</course>
  <speed>25.46583790099984</speed>
  <fix>3d</fix>
</trkpt>
<trkpt lat="-27.2684627" lon="151.290663">
  <ele>443.22</ele>
  <time>2026-09-01T19:52:29Z</time>
  <course>355.8</course>
  <speed>25.54</speed>
  <fix>3d</fix>
</trkpt>
<trkpt lat="-27.2684005" lon="151.2906581">
  <ele>443.16</ele>
  <time>2026-09-01T19:52:29Z</time>
  <course>356.68</course>
  <speed>25.46583790099984</speed>
  <fix>3d</fix>
</trkpt>
<trkpt lat="-27.2684627" lon="151.290663">
  <ele>443.22</ele>
  <time>2026-09-01T19:52:29Z</time>
  <course>355.8</course>
  <speed>25.54</speed>
  <fix>3d</fix>
</trkpt>
<trkpt lat="-27.2683776" lon="151.2906562">
  <ele>443.17</ele>
  <time>2026-09-01T19:52:30Z</time>
  <course>356.73</course>
  <speed>25.46583790099984</speed>
  <fix>3d</fix>
</trkpt>
<trkpt lat="-27.268417" lon="151.2906592">
  <ele>443.22</ele>
  <time>2026-09-01T19:52:30Z</time>
  <course>355.81</course>
  <speed>25.54</speed>
  <fix>3d</fix>
</trkpt>
<trkpt lat="-27.2683549" lon="151.2906543">
  <ele>443.17</ele>
  <time>2026-09-01T19:52:30Z</time>
  <course>356.74</course>
  <speed>25.45514682731176</speed>
  <fix>3d</fix>
</trkpt>
<trkpt lat="-27.268417" lon="151.2906592">
  <ele>443.22</ele>
  <time>2026-09-01T19:52:30Z</time>
  <course>355.81</course>
  <speed>25.54</speed>
  <fix>3d</fix>
</trkpt>
<trkpt lat="-27.2683321" lon="151.2906525">
  <ele>443.17</ele>
  <time>2026-09-01T19:52:30Z</time>
  <course>356.71</course>
  <speed>25.45514682731176</speed>
  <fix>3d</fix>
</trkpt>
<trkpt lat="-27.2683712" lon="151.2906554">
  <ele>443.23</ele>
  <time>2026-09-01T19:52:30Z</time>
  <course>355.82</course>
  <speed>25.53</speed>
  <fix>3d</fix>
</trkpt>
<trkpt lat="-27.2683094" lon="151.2906506">
  <ele>443.17</ele>
  <time>2026-09-01T19:52:30Z</time>
  <course>356.71</course>
  <speed>25.44517243014871</speed>
  <fix>3d</fix>
</trkpt>
<trkpt lat="-27.2683712" lon="151.2906554">
  <ele>443.23</ele>
  <time>2026-09-01T19:52:30Z</time>
  <course>355.82</course>
  <speed>25.53</speed>
  <fix>3d</fix>
</trkpt>
<trkpt lat="-27.2682867" lon="151.2906487">
  <ele>443.17</ele>
  <time>2026-09-01T19:52:30Z</time>
  <course>356.7</course>
  <speed>25.44517243014871</speed>
  <fix>3d</fix>
</trkpt>
<trkpt lat="-27.2683255" lon="151.2906516">
  <ele>443.24</ele>
  <time>2026-09-01T19:52:30Z</time>
  <course>355.83</course>
  <speed>25.53</speed>
  <fix>3d</fix>
</trkpt>
<trkpt lat="-27.2682639" lon="151.2906469">
  <ele>443.17</ele>
  <time>2026-09-01T19:52:30Z</time>
  <course>356.73</course>
  <speed>25.44517243014871</speed>
  <fix>3d</fix>
</trkpt>
<trkpt lat="-27.2683255" lon="151.2906516">
  <ele>443.24</ele>
  <time>2026-09-01T19:52:30Z</time>
  <course>355.83</course>
  <speed>25.53</speed>
  <fix>3d</fix>
</trkpt>
<trkpt lat="-27.2682411" lon="151.290645">
  <ele>443.17</ele>
  <time>2026-09-01T19:52:30Z</time>
  <course>356.74</course>
  <speed>25.44517243014871</speed>
  <fix>3d</fix>
</trkpt>
<trkpt lat="-27.2682798" lon="151.2906479">
  <ele>443.24</ele>
  <time>2026-09-01T19:52:30Z</time>
  <course>355.83</course>
  <speed>25.53</speed>
  <fix>3d</fix>
</trkpt>
<trkpt lat="-27.2682182" lon="151.2906431">
  <ele>443.17</ele>
  <time>2026-09-01T19:52:30Z</time>
  <course>356.78</course>
  <speed>25.45514682731176</speed>
  <fix>3d</fix>
</trkpt>
<trkpt lat="-27.2682798" lon="151.2906479">
  <ele>443.24</ele>
  <time>2026-09-01T19:52:30Z</time>
  <course>355.83</course>
  <speed>25.53</speed>
  <fix>3d</fix>
</trkpt>
<trkpt lat="-27.2681952" lon="151.2906412">
  <ele>443.17</ele>
  <time>2026-09-01T19:52:30Z</time>
  <course>356.73</course>
  <speed>25.45514682731176</speed>
  <fix>3d</fix>
</trkpt>
<trkpt lat="-27.268234" lon="151.2906442">
  <ele>443.24</ele>
  <time>2026-09-01T19:52:30Z</time>
  <course>355.83</course>
  <speed>25.53</speed>
  <fix>3d</fix>
</trkpt>
<trkpt lat="-27.2681723" lon="151.2906394">
  <ele>443.17</ele>
  <time>2026-09-01T19:52:30Z</time>
  <course>356.66</course>
  <speed>25.464408494995517</speed>
  <fix>3d</fix>
</trkpt>
<trkpt lat="-27.268234" lon="151.2906442">
  <ele>443.24</ele>
  <time>2026-09-01T19:52:30Z</time>
  <course>355.83</course>
  <speed>25.53</speed>
  <fix>3d</fix>
</trkpt>
<trkpt lat="-27.2681493" lon="151.2906375">
  <ele>443.17</ele>
  <time>2026-09-01T19:52:30Z</time>
  <course>356.69</course>
  <speed>25.475095681861532</speed>
  <fix>3d</fix>
</trkpt>
<trkpt lat="-27.2681882" lon="151.2906404">
  <ele>443.25</ele>
  <time>2026-09-01T19:52:30Z</time>
  <course>355.85</course>
  <speed>25.53</speed>
  <fix>3d</fix>
</trkpt>
<trkpt lat="-27.2681263" lon="151.2906356">
  <ele>443.17</ele>
  <time>2026-09-01T19:52:30Z</time>
  <course>356.72</course>
  <speed>25.474383211375308</speed>
  <fix>3d</fix>
</trkpt>
<trkpt lat="-27.2681882" lon="151.2906404">
  <ele>443.25</ele>
  <time>2026-09-01T19:52:30Z</time>
  <course>355.85</course>
  <speed>25.53</speed>
  <fix>3d</fix>
</trkpt>
<trkpt lat="-27.2681033" lon="151.2906337">
  <ele>443.17</ele>
  <time>2026-09-01T19:52:30Z</time>
  <course>356.76</course>
  <speed>25.484357947572466</speed>
  <fix>3d</fix>
</trkpt>
<trkpt lat="-27.2681423" lon="151.2906367">
  <ele>443.25</ele>
  <time>2026-09-01T19:52:30Z</time>
  <course>355.85</course>
  <speed>25.53</speed>
  <fix>3d</fix>
</trkpt>
<trkpt lat="-27.2680803" lon="151.2906319">
  <ele>443.17</ele>
  <time>2026-09-01T19:52:30Z</time>
  <course>356.78</course>
  <speed>25.494332703563746</speed>
  <fix>3d</fix>
</trkpt>
<trkpt lat="-27.2681423" lon="151.2906367">
  <ele>443.25</ele>
  <time>2026-09-01T19:52:30Z</time>
  <course>355.85</course>
  <speed>25.53</speed>
  <fix>3d</fix>
</trkpt>
<trkpt lat="-27.2680573" lon="151.29063">
  <ele>443.17</ele>
  <time>2026-09-01T19:52:30Z</time>
  <course>356.84</course>
  <speed>25.504307479325917</speed>
  <fix>3d</fix>
</trkpt>
<trkpt lat="-27.2680966" lon="151.2906329">
  <ele>443.25</ele>
  <time>2026-09-01T19:52:30Z</time>
  <course>355.85</course>
  <speed>25.53</speed>
  <fix>3d</fix>
</trkpt>
<trkpt lat="-27.2680343" lon="151.2906281">
  <ele>443.17</ele>
  <time>2026-09-01T19:52:30Z</time>
  <course>356.86</course>
  <speed>25.504307479325917</speed>
  <fix>3d</fix>
</trkpt>
<trkpt lat="-27.2680966" lon="151.2906329">
  <ele>443.25</ele>
  <time>2026-09-01T19:52:30Z</time>
  <course>355.85</course>
  <speed>25.53</speed>
  <fix>3d</fix>
</trkpt>
<trkpt lat="-27.2680113" lon="151.2906263">
  <ele>443.17</ele>
  <time>2026-09-01T19:52:30Z</time>
  <course>356.82</course>
  <speed>25.513574818123786</speed>
  <fix>3d</fix>
</trkpt>
<trkpt lat="-27.2680508" lon="151.2906292">
  <ele>443.25</ele>
  <time>2026-09-01T19:52:30Z</time>
  <course>355.86</course>
  <speed>25.53</speed>
  <fix>3d</fix>
</trkpt>
<trkpt lat="-27.2679883" lon="151.2906244">
  <ele>443.18</ele>
  <time>2026-09-01T19:52:30Z</time>
  <course>356.77</course>
  <speed>25.513574818123786</speed>
  <fix>3d</fix>
</trkpt>
<trkpt lat="-27.2680508" lon="151.2906292">
  <ele>443.25</ele>
  <time>2026-09-01T19:52:30Z</time>
  <course>355.86</course>
  <speed>25.53</speed>
  <fix>3d</fix>
</trkpt>
<trkpt lat="-27.2679653" lon="151.2906226">
  <ele>443.18</ele>
  <time>2026-09-01T19:52:30Z</time>
  <course>356.73</course>
  <speed>25.513574818123786</speed>
  <fix>3d</fix>
</trkpt>
<trkpt lat="-27.2680051" lon="151.2906255">
  <ele>443.25</ele>
  <time>2026-09-01T19:52:30Z</time>
  <course>355.88</course>
  <speed>25.52</speed>
  <fix>3d</fix>
</trkpt>
<trkpt lat="-27.2679423" lon="151.2906207">
  <ele>443.19</ele>
  <time>2026-09-01T19:52:30Z</time>
  <course>356.73</course>
  <speed>25.513574818123786</speed>
  <fix>3d</fix>
</trkpt>
<trkpt lat="-27.2680051" lon="151.2906255">
  <ele>443.25</ele>
  <time>2026-09-01T19:52:30Z</time>
  <course>355.88</course>
  <speed>25.52</speed>
  <fix>3d</fix>
</trkpt>
<trkpt lat="-27.2679195" lon="151.2906188">
  <ele>443.2</ele>
  <time>2026-09-01T19:52:30Z</time>
  <course>356.8</course>
  <speed>25.513574818123786</speed>
  <fix>3d</fix>
</trkpt>
<trkpt lat="-27.2679594" lon="151.2906218">
  <ele>443.25</ele>
  <time>2026-09-01T19:52:30Z</time>
  <course>355.89</course>
  <speed>25.52</speed>
  <fix>3d</fix>
</trkpt>
<trkpt lat="-27.2678964" lon="151.290617">
  <ele>443.21</ele>
  <time>2026-09-01T19:52:30Z</time>
  <course>356.84</course>
  <speed>25.502895913993765</speed>
  <fix>3d</fix>
</trkpt>
<trkpt lat="-27.2679594" lon="151.2906218">
  <ele>443.25</ele>
  <time>2026-09-01T19:52:30Z</time>
  <course>355.89</course>
  <speed>25.52</speed>
  <fix>3d</fix>
</trkpt>
<trkpt lat="-27.2678737" lon="151.2906152">
  <ele>443.21</ele>
  <time>2026-09-01T19:52:30Z</time>
  <course>356.85</course>
  <speed>25.502895913993765</speed>
  <fix>3d</fix>
</trkpt>
<trkpt lat="-27.2679136" lon="151.2906181">
  <ele>443.27</ele>
  <time>2026-09-01T19:52:30Z</time>
  <course>355.89</course>
  <speed>25.51</speed>
  <fix>3d</fix>
</trkpt>
<trkpt lat="-27.2678509" lon="151.2906133">
  <ele>443.22</ele>
  <time>2026-09-01T19:52:30Z</time>
  <course>356.82</course>
  <speed>25.49292058591953</speed>
  <fix>3d</fix>
</trkpt>
<trkpt lat="-27.2679136" lon="151.2906181">
  <ele>443.27</ele>
  <time>2026-09-01T19:52:30Z</time>
  <course>355.89</course>
  <speed>25.51</speed>
  <fix>3d</fix>
</trkpt>
<trkpt lat="-27.2678282" lon="151.2906115">
  <ele>443.22</ele>
  <time>2026-09-01T19:52:30Z</time>
  <course>356.81</course>
  <speed>25.482945277184896</speed>
  <fix>3d</fix>
</trkpt>
<trkpt lat="-27.267868" lon="151.2906145">
  <ele>443.28</ele>
  <time>2026-09-01T19:52:30Z</time>
  <course>355.9</course>
  <speed>25.5</speed>
  <fix>3d</fix>
</trkpt>
<trkpt lat="-27.2678055" lon="151.2906097">
  <ele>443.23</ele>
  <time>2026-09-01T19:52:30Z</time>
  <course>356.82</course>
  <speed>25.472969987812572</speed>
  <fix>3d</fix>
</trkpt>
<trkpt lat="-27.267868" lon="151.2906145">
  <ele>443.28</ele>
  <time>2026-09-01T19:52:30Z</time>
  <course>355.9</course>
  <speed>25.5</speed>
  <fix>3d</fix>
</trkpt>
<trkpt lat="-27.2677827" lon="151.2906078">
  <ele>443.24</ele>
  <time>2026-09-01T19:52:30Z</time>
  <course>356.93</course>
  <speed>25.472969987812572</speed>
  <fix>3d</fix>
</trkpt>
<trkpt lat="-27.2678223" lon="151.2906108">
  <ele>443.29</ele>
  <time>2026-09-01T19:52:30Z</time>
  <course>355.9</course>
  <speed>25.49</speed>
  <fix>3d</fix>
</trkpt>
<trkpt lat="-27.2677599" lon="151.290606">
  <ele>443.24</ele>
  <time>2026-09-01T19:52:30Z</time>
  <course>356.95</course>
  <speed>25.46229369086768</speed>
  <fix>3d</fix>
</trkpt>
<trkpt lat="-27.2678223" lon="151.2906108">
  <ele>443.29</ele>
  <time>2026-09-01T19:52:30Z</time>
  <course>355.9</course>
  <speed>25.49</speed>
  <fix>3d</fix>
</trkpt>
<trkpt lat="-27.267737" lon="151.2906042">
  <ele>443.24</ele>
  <time>2026-09-01T19:52:30Z</time>
  <course>356.93</course>
  <speed>25.461596572092645</speed>
  <fix>3d</fix>
</trkpt>
<trkpt lat="-27.2677766" lon="151.2906071">
  <ele>443.3</ele>
  <time>2026-09-01T19:52:30Z</time>
  <course>355.92</course>
  <speed>25.48</speed>
  <fix>3d</fix>
</trkpt>
<trkpt lat="-27.2677141" lon="151.2906024">
  <ele>443.24</ele>
  <time>2026-09-01T19:52:30Z</time>
  <course>356.86</course>
  <speed>25.461596572092645</speed>
  <fix>3d</fix>
</trkpt>
<trkpt lat="-27.2677766" lon="151.2906071">
  <ele>443.3</ele>
  <time>2026-09-01T19:52:30Z</time>
  <course>355.92</course>
  <speed>25.48</speed>
  <fix>3d</fix>
</trkpt>
<trkpt lat="-27.2676912" lon="151.2906005">
  <ele>443.24</ele>
  <time>2026-09-01T19:52:30Z</time>
  <course>356.81</course>
  <speed>25.461596572092645</speed>
  <fix>3d</fix>
</trkpt>
<trkpt lat="-27.2677308" lon="151.2906034">
  <ele>443.31</ele>
  <time>2026-09-01T19:52:30Z</time>
  <course>355.94</course>
  <speed>25.47</speed>
  <fix>3d</fix>
</trkpt>
<trkpt lat="-27.2676683" lon="151.2905987">
  <ele>443.24</ele>
  <time>2026-09-01T19:52:30Z</time>
  <course>356.77</course>
  <speed>25.46229369086768</speed>
  <fix>3d</fix>
</trkpt>
<trkpt lat="-27.2677308" lon="151.2906034">
  <ele>443.31</ele>
  <time>2026-09-01T19:52:30Z</time>
  <course>355.94</course>
  <speed>25.47</speed>
  <fix>3d</fix>
</trkpt>
<trkpt lat="-27.2676454" lon="151.2905969">
  <ele>443.24</ele>
  <time>2026-09-01T19:52:30Z</time>
  <course>356.81</course>
  <speed>25.472269235386158</speed>
  <fix>3d</fix>
</trkpt>
<trkpt lat="-27.2676851" lon="151.2905998">
  <ele>443.31</ele>
  <time>2026-09-01T19:52:30Z</time>
  <course>355.95</course>
  <speed>25.47</speed>
  <fix>3d</fix>
</trkpt>
<trkpt lat="-27.2676225" lon="151.290595">
  <ele>443.24</ele>
  <time>2026-09-01T19:52:30Z</time>
  <course>356.83</course>
  <speed>25.472969987812572</speed>
  <fix>3d</fix>
</trkpt>
<trkpt lat="-27.2676851" lon="151.2905998">
  <ele>443.31</ele>
  <time>2026-09-01T19:52:30Z</time>
  <course>355.95</course>
  <speed>25.47</speed>
  <fix>3d</fix>
</trkpt>
<trkpt lat="-27.2675996" lon="151.2905932">
  <ele>443.24</ele>
  <time>2026-09-01T19:52:30Z</time>
  <course>356.86</course>
  <speed>25.482945277184896</speed>
  <fix>3d</fix>
</trkpt>
<trkpt lat="-27.2676395" lon="151.2905961">
  <ele>443.32</ele>
  <time>2026-09-01T19:52:30Z</time>
  <course>355.93</course>
  <speed>25.47</speed>
  <fix>3d</fix>
</trkpt>
<trkpt lat="-27.2675766" lon="151.2905914">
  <ele>443.24</ele>
  <time>2026-09-01T19:52:30Z</time>
  <course>356.87</course>
  <speed>25.482945277184896</speed>
  <fix>3d</fix>
</trkpt>
<trkpt lat="-27.2676395" lon="151.2905961">
  <ele>443.32</ele>
  <time>2026-09-01T19:52:30Z</time>
  <course>355.93</course>
  <speed>25.47</speed>
  <fix>3d</fix>
</trkpt>
<trkpt lat="-27.2675537" lon="151.2905895">
  <ele>443.24</ele>
  <time>2026-09-01T19:52:30Z</time>
  <course>356.87</course>
  <speed>25.482945277184896</speed>
  <fix>3d</fix>
</trkpt>
<trkpt lat="-27.2675939" lon="151.2905925">
  <ele>443.32</ele>
  <time>2026-09-01T19:52:30Z</time>
  <course>355.91</course>
  <speed>25.47</speed>
  <fix>3d</fix>
</trkpt>
<trkpt lat="-27.2675308" lon="151.2905877">
  <ele>443.24</ele>
  <time>2026-09-01T19:52:30Z</time>
  <course>356.89</course>
  <speed>25.483649660125216</speed>
  <fix>3d</fix>
</trkpt>
<trkpt lat="-27.2675939" lon="151.2905925">
  <ele>443.32</ele>
  <time>2026-09-01T19:52:30Z</time>
  <course>355.91</course>
  <speed>25.47</speed>
  <fix>3d</fix>
</trkpt>
<trkpt lat="-27.2675079" lon="151.2905858">
  <ele>443.24</ele>
  <time>2026-09-01T19:52:30Z</time>
  <course>356.85</course>
  <speed>25.49362469324439</speed>
  <fix>3d</fix>
</trkpt>
<trkpt lat="-27.2675482" lon="151.2905888">
  <ele>443.32</ele>
  <time>2026-09-01T19:52:30Z</time>
  <course>355.9</course>
  <speed>25.47</speed>
  <fix>3d</fix>
</trkpt>
<trkpt lat="-27.267485" lon="151.290584">
  <ele>443.24</ele>
  <time>2026-09-01T19:52:30Z</time>
  <course>356.81</course>
  <speed>25.49362469324439</speed>
  <fix>3d</fix>
</trkpt>
<trkpt lat="-27.2675482" lon="151.2905888">
  <ele>443.32</ele>
  <time>2026-09-01T19:52:30Z</time>
  <course>355.9</course>
  <speed>25.47</speed>
  <fix>3d</fix>
</trkpt>
<trkpt lat="-27.2674621" lon="151.2905821">
  <ele>443.24</ele>
  <time>2026-09-01T19:52:30Z</time>
  <course>356.81</course>
  <speed>25.49362469324439</speed>
  <fix>3d</fix>
</trkpt>
<trkpt lat="-27.2675026" lon="151.2905852">
  <ele>443.32</ele>
  <time>2026-09-01T19:52:30Z</time>
  <course>355.89</course>
  <speed>25.46</speed>
  <fix>3d</fix>
</trkpt>
<trkpt lat="-27.2674392" lon="151.2905803">
  <ele>443.24</ele>
  <time>2026-09-01T19:52:30Z</time>
  <course>356.84</course>
  <speed>25.504307479325917</speed>
  <fix>3d</fix>
</trkpt>
<trkpt lat="-27.2675026" lon="151.2905852">
  <ele>443.32</ele>
  <time>2026-09-01T19:52:30Z</time>
  <course>355.89</course>
  <speed>25.46</speed>
  <fix>3d</fix>
</trkpt>
<trkpt lat="-27.2674166" lon="151.2905784">
  <ele>443.24</ele>
  <time>2026-09-01T19:52:30Z</time>
  <course>356.85</course>
  <speed>25.504307479325917</speed>
  <fix>3d</fix>
</trkpt>
<trkpt lat="-27.267457" lon="151.2905815">
  <ele>443.32</ele>
  <time>2026-09-01T19:52:30Z</time>
  <course>355.88</course>
  <speed>25.46</speed>
  <fix>3d</fix>
</trkpt>
<trkpt lat="-27.2673939" lon="151.2905766">
  <ele>443.24</ele>
  <time>2026-09-01T19:52:30Z</time>
  <course>356.86</course>
  <speed>25.494332703563746</speed>
  <fix>3d</fix>
</trkpt>
<trkpt lat="-27.267457" lon="151.2905815">
  <ele>443.32</ele>
  <time>2026-09-01T19:52:30Z</time>
  <course>355.88</course>
  <speed>25.46</speed>
  <fix>3d</fix>
</trkpt>
<trkpt lat="-27.2673712" lon="151.2905748">
  <ele>443.24</ele>
  <time>2026-09-01T19:52:30Z</time>
  <course>356.84</course>
  <speed>25.484357947572466</speed>
  <fix>3d</fix>
</trkpt>
<trkpt lat="-27.2674114" lon="151.2905778">
  <ele>443.32</ele>
  <time>2026-09-01T19:52:30Z</time>
  <course>355.87</course>
  <speed>25.47</speed>
  <fix>3d</fix>
</trkpt>
<trkpt lat="-27.2673481" lon="151.2905729">
  <ele>443.23</ele>
  <time>2026-09-01T19:52:30Z</time>
  <course>356.83</course>
  <speed>25.484357947572466</speed>
  <fix>3d</fix>
</trkpt>
<trkpt lat="-27.2674114" lon="151.2905778">
  <ele>443.32</ele>
  <time>2026-09-01T19:52:30Z</time>
  <course>355.87</course>
  <speed>25.47</speed>
  <fix>3d</fix>
</trkpt>
<trkpt lat="-27.2673255" lon="151.2905711">
  <ele>443.23</ele>
  <time>2026-09-01T19:52:30Z</time>
  <course>356.79</course>
  <speed>25.474383211375308</speed>
  <fix>3d</fix>
</trkpt>
<trkpt lat="-27.2673657" lon="151.2905741">
  <ele>443.31</ele>
  <time>2026-09-01T19:52:30Z</time>
  <course>355.87</course>
  <speed>25.47</speed>
  <fix>3d</fix>
</trkpt>
<trkpt lat="-27.2673028" lon="151.2905692">
  <ele>443.22</ele>
  <time>2026-09-01T19:52:30Z</time>
  <course>356.78</course>
  <speed>25.474383211375308</speed>
  <fix>3d</fix>
</trkpt>
<trkpt lat="-27.2673657" lon="151.2905741">
  <ele>443.31</ele>
  <time>2026-09-01T19:52:30Z</time>
  <course>355.87</course>
  <speed>25.47</speed>
  <fix>3d</fix>
</trkpt>
<trkpt lat="-27.26728" lon="151.2905674">
  <ele>443.22</ele>
  <time>2026-09-01T19:52:30Z</time>
  <course>356.81</course>
  <speed>25.474383211375308</speed>
  <fix>3d</fix>
</trkpt>
<trkpt lat="-27.2673201" lon="151.2905704">
  <ele>443.3</ele>
  <time>2026-09-01T19:52:30Z</time>
  <course>355.86</course>
  <speed>25.47</speed>
  <fix>3d</fix>
</trkpt>
<trkpt lat="-27.2672572" lon="151.2905655">
  <ele>443.21</ele>
  <time>2026-09-01T19:52:30Z</time>
  <course>356.82</course>
  <speed>25.464408494995517</speed>
  <fix>3d</fix>
</trkpt>
<trkpt lat="-27.2673201" lon="151.2905704">
  <ele>443.3</ele>
  <time>2026-09-01T19:52:30Z</time>
  <course>355.86</course>
  <speed>25.47</speed>
  <fix>3d</fix>
</trkpt>
<trkpt lat="-27.2672343" lon="151.2905636">
  <ele>443.21</ele>
  <time>2026-09-01T19:52:30Z</time>
  <course>356.83</course>
  <speed>25.474383211375308</speed>
  <fix>3d</fix>
</trkpt>
<trkpt lat="-27.2672744" lon="151.2905667">
  <ele>443.29</ele>
  <time>2026-09-01T19:52:30Z</time>
  <course>355.86</course>
  <speed>25.48</speed>
  <fix>3d</fix>
</trkpt>
<trkpt lat="-27.2672114" lon="151.2905618">
  <ele>443.2</ele>
  <time>2026-09-01T19:52:30Z</time>
  <course>356.79</course>
  <speed>25.484357947572466</speed>
  <fix>3d</fix>
</trkpt>
<trkpt lat="-27.2672744" lon="151.2905667">
  <ele>443.29</ele>
  <time>2026-09-01T19:52:30Z</time>
  <course>355.86</course>
  <speed>25.48</speed>
  <fix>3d</fix>
</trkpt>
<trkpt lat="-27.2671885" lon="151.2905599">
  <ele>443.2</ele>
  <time>2026-09-01T19:52:30Z</time>
  <course>356.74</course>
  <speed>25.485070139201106</speed>
  <fix>3d</fix>
</trkpt>
<trkpt lat="-27.2672286" lon="151.2905629">
  <ele>443.28</ele>
  <time>2026-09-01T19:52:30Z</time>
  <course>355.85</course>
  <speed>25.48</speed>
  <fix>3d</fix>
</trkpt>
<trkpt lat="-27.2671655" lon="151.290558">
  <ele>443.19</ele>
  <time>2026-09-01T19:52:30Z</time>
  <course>356.73</course>
  <speed>25.485070139201106</speed>
  <fix>3d</fix>
</trkpt>
<trkpt lat="-27.2672286" lon="151.2905629">
  <ele>443.28</ele>
  <time>2026-09-01T19:52:30Z</time>
  <course>355.85</course>
  <speed>25.48</speed>
  <fix>3d</fix>
</trkpt>
<trkpt lat="-27.2671426" lon="151.2905562">
  <ele>443.19</ele>
  <time>2026-09-01T19:52:30Z</time>
  <course>356.84</course>
  <speed>25.49504461655245</speed>
  <fix>3d</fix>
</trkpt>
<trkpt lat="-27.267183" lon="151.2905592">
  <ele>443.27</ele>
  <time>2026-09-01T19:52:30Z</time>
  <course>355.85</course>
  <speed>25.48</speed>
  <fix>3d</fix>
</trkpt>
<trkpt lat="-27.2671197" lon="151.2905543">
  <ele>443.19</ele>
  <time>2026-09-01T19:52:30Z</time>
  <course>356.9</course>
  <speed>25.49504461655245</speed>
  <fix>3d</fix>
</trkpt>
<trkpt lat="-27.267183" lon="151.2905592">
  <ele>443.27</ele>
  <time>2026-09-01T19:52:30Z</time>
  <course>355.85</course>
  <speed>25.48</speed>
  <fix>3d</fix>
</trkpt>
<trkpt lat="-27.2670968" lon="151.2905524">
  <ele>443.19</ele>
  <time>2026-09-01T19:52:30Z</time>
  <course>356.84</course>
  <speed>25.49504461655245</speed>
  <fix>3d</fix>
</trkpt>
<trkpt lat="-27.2671373" lon="151.2905555">
  <ele>443.27</ele>
  <time>2026-09-01T19:52:30Z</time>
  <course>355.84</course>
  <speed>25.48</speed>
  <fix>3d</fix>
</trkpt>
<trkpt lat="-27.267074" lon="151.2905506">
  <ele>443.19</ele>
  <time>2026-09-01T19:52:30Z</time>
  <course>356.73</course>
  <speed>25.49504461655245</speed>
  <fix>3d</fix>
</trkpt>
<trkpt lat="-27.2671373" lon="151.2905555">
  <ele>443.27</ele>
  <time>2026-09-01T19:52:30Z</time>
  <course>355.84</course>
  <speed>25.48</speed>
  <fix>3d</fix>
</trkpt>
<trkpt lat="-27.2670512" lon="151.2905487">
  <ele>443.18</ele>
  <time>2026-09-01T19:52:30Z</time>
  <course>356.7</course>
  <speed>25.49504461655245</speed>
  <fix>3d</fix>
</trkpt>
<trkpt lat="-27.2670916" lon="151.2905518">
  <ele>443.27</ele>
  <time>2026-09-01T19:52:30Z</time>
  <course>355.84</course>
  <speed>25.49</speed>
  <fix>3d</fix>
</trkpt>
<trkpt lat="-27.2670285" lon="151.2905468">
  <ele>443.18</ele>
  <time>2026-09-01T19:52:30Z</time>
  <course>356.71</course>
  <speed>25.485786234683832</speed>
  <fix>3d</fix>
</trkpt>
<trkpt lat="-27.2670916" lon="151.2905518">
  <ele>443.27</ele>
  <time>2026-09-01T19:52:30Z</time>
  <course>355.84</course>
  <speed>25.49</speed>
  <fix>3d</fix>
</trkpt>
<trkpt lat="-27.2670057" lon="151.290545">
  <ele>443.18</ele>
  <time>2026-09-01T19:52:30Z</time>
  <course>356.73</course>
  <speed>25.485786234683832</speed>
  <fix>3d</fix>
</trkpt>
<trkpt lat="-27.2670459" lon="151.290548">
  <ele>443.27</ele>
  <time>2026-09-01T19:52:30Z</time>
  <course>355.83</course>
  <speed>25.49</speed>
  <fix>3d</fix>
</trkpt>
<trkpt lat="-27.266983" lon="151.2905431">
  <ele>443.17</ele>
  <time>2026-09-01T19:52:30Z</time>
  <course>356.74</course>
  <speed>25.485786234683832</speed>
  <fix>3d</fix>
</trkpt>
<trkpt lat="-27.2670459" lon="151.290548">
  <ele>443.27</ele>
  <time>2026-09-01T19:52:30Z</time>
  <course>355.83</course>
  <speed>25.49</speed>
  <fix>3d</fix>
</trkpt>
<trkpt lat="-27.2669601" lon="151.2905412">
  <ele>443.17</ele>
  <time>2026-09-01T19:52:30Z</time>
  <course>356.76</course>
  <speed>25.49576043188357</speed>
  <fix>3d</fix>
</trkpt>
<trkpt lat="-27.2670003" lon="151.2905443">
  <ele>443.26</ele>
  <time>2026-09-01T19:52:30Z</time>
  <course>355.81</course>
  <speed>25.49</speed>
  <fix>3d</fix>
</trkpt>
<trkpt lat="-27.2669373" lon="151.2905394">
  <ele>443.17</ele>
  <time>2026-09-01T19:52:30Z</time>
  <course>356.79</course>
  <speed>25.49504461655245</speed>
  <fix>3d</fix>
</trkpt>
<trkpt lat="-27.2670003" lon="151.2905443">
  <ele>443.26</ele>
  <time>2026-09-01T19:52:30Z</time>
  <course>355.81</course>
  <speed>25.49</speed>
  <fix>3d</fix>
</trkpt>
<trkpt lat="-27.2669144" lon="151.2905375">
  <ele>443.17</ele>
  <time>2026-09-01T19:52:30Z</time>
  <course>356.83</course>
  <speed>25.50501911389207</speed>
  <fix>3d</fix>
</trkpt>
<trkpt lat="-27.2669546" lon="151.2905405">
  <ele>443.26</ele>
  <time>2026-09-01T19:52:30Z</time>
  <course>355.82</course>
  <speed>25.49</speed>
  <fix>3d</fix>
</trkpt>
<trkpt lat="-27.2668914" lon="151.2905356">
  <ele>443.16</ele>
  <time>2026-09-01T19:52:30Z</time>
  <course>356.79</course>
  <speed>25.50501911389207</speed>
  <fix>3d</fix>
</trkpt>
<trkpt lat="-27.2669546" lon="151.2905405">
  <ele>443.26</ele>
  <time>2026-09-01T19:52:30Z</time>
  <course>355.82</course>
  <speed>25.49</speed>
  <fix>3d</fix>
</trkpt>
<trkpt lat="-27.2668684" lon="151.2905337">
  <ele>443.16</ele>
  <time>2026-09-01T19:52:30Z</time>
  <course>356.77</course>
  <speed>25.51499363119654</speed>
  <fix>3d</fix>
</trkpt>
<trkpt lat="-27.266909" lon="151.2905368">
  <ele>443.25</ele>
  <time>2026-09-01T19:52:30Z</time>
  <course>355.84</course>
  <speed>25.5</speed>
  <fix>3d</fix>
</trkpt>
<trkpt lat="-27.2668453" lon="151.2905318">
  <ele>443.16</ele>
  <time>2026-09-01T19:52:30Z</time>
  <course>356.79</course>
  <speed>25.514282274835796</speed>
  <fix>3d</fix>
</trkpt>
<trkpt lat="-27.266909" lon="151.2905368">
  <ele>443.25</ele>
  <time>2026-09-01T19:52:30Z</time>
  <course>355.84</course>
  <speed>25.5</speed>
  <fix>3d</fix>
</trkpt>
<trkpt lat="-27.2668222" lon="151.29053">
  <ele>443.16</ele>
  <time>2026-09-01T19:52:30Z</time>
  <course>356.82</course>
  <speed>25.524257090070222</speed>
  <fix>3d</fix>
</trkpt>
<trkpt lat="-27.2668633" lon="151.2905331">
  <ele>443.25</ele>
  <time>2026-09-01T19:52:30Z</time>
  <course>355.86</course>
  <speed>25.49</speed>
  <fix>3d</fix>
</trkpt>
<trkpt lat="-27.2667993" lon="151.2905281">
  <ele>443.16</ele>
  <time>2026-09-01T19:52:30Z</time>
  <course>356.84</course>
  <speed>25.52354990983817</speed>
  <fix>3d</fix>
</trkpt>
<trkpt lat="-27.2668633" lon="151.2905331">
  <ele>443.25</ele>
  <time>2026-09-01T19:52:30Z</time>
  <course>355.86</course>
  <speed>25.49</speed>
  <fix>3d</fix>
</trkpt>
<trkpt lat="-27.2667763" lon="151.2905263">
  <ele>443.16</ele>
  <time>2026-09-01T19:52:30Z</time>
  <course>356.85</course>
  <speed>25.52354990983817</speed>
  <fix>3d</fix>
</trkpt>
<trkpt lat="-27.2668176" lon="151.2905293">
  <ele>443.25</ele>
  <time>2026-09-01T19:52:30Z</time>
  <course>355.88</course>
  <speed>25.49</speed>
  <fix>3d</fix>
</trkpt>
<trkpt lat="-27.2667533" lon="151.2905244">
  <ele>443.15</ele>
  <time>2026-09-01T19:52:30Z</time>
  <course>356.85</course>
  <speed>25.533525021038518</speed>
  <fix>3d</fix>
</trkpt>
<trkpt lat="-27.2668176" lon="151.2905293">
  <ele>443.25</ele>
  <time>2026-09-01T19:52:30Z</time>
  <course>355.88</course>
  <speed>25.49</speed>
  <fix>3d</fix>
</trkpt>
<trkpt lat="-27.2667305" lon="151.2905226">
  <ele>443.16</ele>
  <time>2026-09-01T19:52:30Z</time>
  <course>356.87</course>
  <speed>25.52354990983817</speed>
  <fix>3d</fix>
</trkpt>
<trkpt lat="-27.2667718" lon="151.2905256">
  <ele>443.25</ele>
  <time>2026-09-01T19:52:30Z</time>
  <course>355.9</course>
  <speed>25.49</speed>
  <fix>3d</fix>
</trkpt>
<trkpt lat="-27.2667074" lon="151.2905207">
  <ele>443.16</ele>
  <time>2026-09-01T19:52:30Z</time>
  <course>356.86</course>
  <speed>25.52354990983817</speed>
  <fix>3d</fix>
</trkpt>
<trkpt lat="-27.2667718" lon="151.2905256">
  <ele>443.25</ele>
  <time>2026-09-01T19:52:30Z</time>
  <course>355.9</course>
  <speed>25.49</speed>
  <fix>3d</fix>
</trkpt>
<trkpt lat="-27.2666845" lon="151.2905189">
  <ele>443.16</ele>
  <time>2026-09-01T19:52:30Z</time>
  <course>356.83</course>
  <speed>25.52354990983817</speed>
  <fix>3d</fix>
</trkpt>
<trkpt lat="-27.2667261" lon="151.290522">
  <ele>443.25</ele>
  <time>2026-09-01T19:52:30Z</time>
  <course>355.91</course>
  <speed>25.49</speed>
  <fix>3d</fix>
</trkpt>
<trkpt lat="-27.2666616" lon="151.290517">
  <ele>443.15</ele>
  <time>2026-09-01T19:52:30Z</time>
  <course>356.79</course>
  <speed>25.533525021038518</speed>
  <fix>3d</fix>
</trkpt>
<trkpt lat="-27.2667261" lon="151.290522">
  <ele>443.25</ele>
  <time>2026-09-01T19:52:30Z</time>
  <course>355.91</course>
  <speed>25.49</speed>
  <fix>3d</fix>
</trkpt>
<trkpt lat="-27.2666387" lon="151.2905152">
  <ele>443.15</ele>
  <time>2026-09-01T19:52:30Z</time>
  <course>356.84</course>
  <speed>25.533525021038518</speed>
  <fix>3d</fix>
</trkpt>
<trkpt lat="-27.2666804" lon="151.2905183">
  <ele>443.25</ele>
  <time>2026-09-01T19:52:30Z</time>
  <course>355.92</course>
  <speed>25.49</speed>
  <fix>3d</fix>
</trkpt>
<trkpt lat="-27.2666158" lon="151.2905133">
  <ele>443.15</ele>
  <time>2026-09-01T19:52:30Z</time>
  <course>356.85</course>
  <speed>25.533525021038518</speed>
  <fix>3d</fix>
</trkpt>
<trkpt lat="-27.2666804" lon="151.2905183">
  <ele>443.25</ele>
  <time>2026-09-01T19:52:30Z</time>
  <course>355.92</course>
  <speed>25.49</speed>
  <fix>3d</fix>
</trkpt>
<trkpt lat="-27.2665928" lon="151.2905115">
  <ele>443.15</ele>
  <time>2026-09-01T19:52:30Z</time>
  <course>356.8</course>
  <speed>25.533525021038518</speed>
  <fix>3d</fix>
</trkpt>
<trkpt lat="-27.2666347" lon="151.2905146">
  <ele>443.24</ele>
  <time>2026-09-01T19:52:30Z</time>
  <course>355.91</course>
  <speed>25.49</speed>
  <fix>3d</fix>
</trkpt>
<trkpt lat="-27.2665699" lon="151.2905096">
  <ele>443.15</ele>
  <time>2026-09-01T19:52:30Z</time>
  <course>356.86</course>
  <speed>25.533525021038518</speed>
  <fix>3d</fix>
</trkpt>
<trkpt lat="-27.2666347" lon="151.2905146">
  <ele>443.24</ele>
  <time>2026-09-01T19:52:30Z</time>
  <course>355.91</course>
  <speed>25.49</speed>
  <fix>3d</fix>
</trkpt>
<trkpt lat="-27.266547" lon="151.2905078">
  <ele>443.15</ele>
  <time>2026-09-01T19:52:30Z</time>
  <course>356.93</course>
  <speed>25.533525021038518</speed>
  <fix>3d</fix>
</trkpt>
<trkpt lat="-27.2665891" lon="151.2905109">
  <ele>443.24</ele>
  <time>2026-09-01T19:52:30Z</time>
  <course>355.9</course>
  <speed>25.49</speed>
  <fix>3d</fix>
</trkpt>
<trkpt lat="-27.2665241" lon="151.2905059">
  <ele>443.15</ele>
  <time>2026-09-01T19:52:30Z</time>
  <course>356.91</course>
  <speed>25.543500151701995</speed>
  <fix>3d</fix>
</trkpt>
<trkpt lat="-27.2665891" lon="151.2905109">
  <ele>443.24</ele>
  <time>2026-09-01T19:52:30Z</time>
  <course>355.9</course>
  <speed>25.49</speed>
  <fix>3d</fix>
</trkpt>
<trkpt lat="-27.2665011" lon="151.2905041">
  <ele>443.15</ele>
  <time>2026-09-01T19:52:30Z</time>
  <course>356.91</course>
  <speed>25.54279741923347</speed>
  <fix>3d</fix>
</trkpt>
<trkpt lat="-27.2665434" lon="151.2905073">
  <ele>443.24</ele>
  <time>2026-09-01T19:52:30Z</time>
  <course>355.91</course>
  <speed>25.49</speed>
  <fix>3d</fix>
</trkpt>
<trkpt lat="-27.2664782" lon="151.2905023">
  <ele>443.15</ele>
  <time>2026-09-01T19:52:30Z</time>
  <course>356.88</course>
  <speed>25.54279741923347</speed>
  <fix>3d</fix>
</trkpt>
<trkpt lat="-27.2665434" lon="151.2905073">
  <ele>443.24</ele>
  <time>2026-09-01T19:52:30Z</time>
  <course>355.91</course>
  <speed>25.49</speed>
  <fix>3d</fix>
</trkpt>
<trkpt lat="-27.2664555" lon="151.2905004">
  <ele>443.15</ele>
  <time>2026-09-01T19:52:30Z</time>
  <course>356.82</course>
  <speed>25.54279741923347</speed>
  <fix>3d</fix>
</trkpt>
<trkpt lat="-27.2664977" lon="151.2905036">
  <ele>443.25</ele>
  <time>2026-09-01T19:52:30Z</time>
  <course>355.93</course>
  <speed>25.49</speed>
  <fix>3d</fix>
</trkpt>
<trkpt lat="-27.2664327" lon="151.2904986">
  <ele>443.16</ele>
  <time>2026-09-01T19:52:30Z</time>
  <course>356.82</course>
  <speed>25.54279741923347</speed>
  <fix>3d</fix>
</trkpt>
<trkpt lat="-27.2664977" lon="151.2905036">
  <ele>443.25</ele>
  <time>2026-09-01T19:52:30Z</time>
  <course>355.93</course>
  <speed>25.49</speed>
  <fix>3d</fix>
</trkpt>
<trkpt lat="-27.26641" lon="151.2904968">
  <ele>443.16</ele>
  <time>2026-09-01T19:52:30Z</time>
  <course>356.81</course>
  <speed>25.532822014027357</speed>
  <fix>3d</fix>
</trkpt>
<trkpt lat="-27.266452" lon="151.2905">
  <ele>443.25</ele>
  <time>2026-09-01T19:52:30Z</time>
  <course>355.93</course>
  <speed>25.49</speed>
  <fix>3d</fix>
</trkpt>
<trkpt lat="-27.2663872" lon="151.290495">
  <ele>443.16</ele>
  <time>2026-09-01T19:52:30Z</time>
  <course>356.8</course>
  <speed>25.52284662807031</speed>
  <fix>3d</fix>
</trkpt>
<trkpt lat="-27.266452" lon="151.2905">
  <ele>443.25</ele>
  <time>2026-09-01T19:52:30Z</time>
  <course>355.93</course>
  <speed>25.49</speed>
  <fix>3d</fix>
</trkpt>
<trkpt lat="-27.2663643" lon="151.2904931">
  <ele>443.17</ele>
  <time>2026-09-01T19:52:30Z</time>
  <course>356.81</course>
  <speed>25.513574818123786</speed>
  <fix>3d</fix>
</trkpt>
<trkpt lat="-27.2664064" lon="151.2904964">
  <ele>443.26</ele>
  <time>2026-09-01T19:52:30Z</time>
  <course>355.93</course>
  <speed>25.49</speed>
  <fix>3d</fix>
</trkpt>
<trkpt lat="-27.2663416" lon="151.2904913">
  <ele>443.17</ele>
  <time>2026-09-01T19:52:30Z</time>
  <course>356.84</course>
  <speed>25.503599745918223</speed>
  <fix>3d</fix>
</trkpt>
<trkpt lat="-27.2664064" lon="151.2904964">
  <ele>443.26</ele>
  <time>2026-09-01T19:52:30Z</time>
  <course>355.93</course>
  <speed>25.49</speed>
  <fix>3d</fix>
</trkpt>
<trkpt lat="-27.2663408" lon="151.2904913">
  <ele>443.17</ele>
  <time>2026-09-01T19:52:30Z</time>
  <course>356.84</course>
  <speed>25.503599745918223</speed>
  <fix>3d</fix>
</trkpt>
<trkpt lat="-27.2663189" lon="151.2904895">
  <ele>443.17</ele>
  <time>2026-09-01T19:52:30Z</time>
  <course>356.85</course>
  <speed>25.503599745918223</speed>
  <fix>3d</fix>
</trkpt>
<trkpt lat="-27.2663607" lon="151.2904927">
  <ele>443.27</ele>
  <time>2026-09-01T19:52:30Z</time>
  <course>355.92</course>
  <speed>25.49</speed>
  <fix>3d</fix>
</trkpt>
<trkpt lat="-27.2662961" lon="151.2904877">
  <ele>443.17</ele>
  <time>2026-09-01T19:52:30Z</time>
  <course>356.82</course>
  <speed>25.502895913993765</speed>
  <fix>3d</fix>
</trkpt>
<trkpt lat="-27.2663607" lon="151.2904927">
  <ele>443.27</ele>
  <time>2026-09-01T19:52:30Z</time>
  <course>355.92</course>
  <speed>25.49</speed>
  <fix>3d</fix>
</trkpt>
<trkpt lat="-27.2662734" lon="151.2904859">
  <ele>443.17</ele>
  <time>2026-09-01T19:52:30Z</time>
  <course>356.74</course>
  <speed>25.49362469324439</speed>
  <fix>3d</fix>
</trkpt>
<trkpt lat="-27.2663149" lon="151.290489">
  <ele>443.27</ele>
  <time>2026-09-01T19:52:30Z</time>
  <course>355.91</course>
  <speed>25.49</speed>
  <fix>3d</fix>
</trkpt>
<trkpt lat="-27.2662507" lon="151.290484">
  <ele>443.17</ele>
  <time>2026-09-01T19:52:30Z</time>
  <course>356.57</course>
  <speed>25.462994717825318</speed>
  <fix>3d</fix>
</trkpt>
<trkpt lat="-27.2663149" lon="151.290489">
  <ele>443.27</ele>
  <time>2026-09-01T19:52:30Z</time>
  <course>355.91</course>
  <speed>25.49</speed>
  <fix>3d</fix>
</trkpt>
<trkpt lat="-27.2662279" lon="151.2904822">
  <ele>443.16</ele>
  <time>2026-09-01T19:52:31Z</time>
  <course>356.16</course>
  <speed>25.40456061418894</speed>
  <fix>3d</fix>
</trkpt>
<trkpt lat="-27.2662692" lon="151.2904853">
  <ele>443.27</ele>
  <time>2026-09-01T19:52:31Z</time>
  <course>355.91</course>
  <speed>25.49</speed>
  <fix>3d</fix>
</trkpt>
<trkpt lat="-27.2662052" lon="151.2904803">
  <ele>443.16</ele>
  <time>2026-09-01T19:52:31Z</time>
  <course>355.52</course>
  <speed>25.281497186677846</speed>
  <fix>3d</fix>
</trkpt>
<trkpt lat="-27.2662692" lon="151.2904853">
  <ele>443.27</ele>
  <time>2026-09-01T19:52:31Z</time>
  <course>355.91</course>
  <speed>25.49</speed>
  <fix>3d</fix>
</trkpt>
<trkpt lat="-27.2661825" lon="151.2904782">
  <ele>443.15</ele>
  <time>2026-09-01T19:52:31Z</time>
  <course>354.82</course>
  <speed>25.14867193312601</speed>
  <fix>3d</fix>
</trkpt>
<trkpt lat="-27.2662236" lon="151.2904816">
  <ele>443.26</ele>
  <time>2026-09-01T19:52:31Z</time>
  <course>355.79</course>
  <speed>25.38</speed>
  <fix>3d</fix>
</trkpt>
<trkpt lat="-27.26616" lon="151.2904759">
  <ele>443.13</ele>
  <time>2026-09-01T19:52:31Z</time>
  <course>354.25</course>
  <speed>25.022208135973933</speed>
  <fix>3d</fix>
</trkpt>
<trkpt lat="-27.2662236" lon="151.2904816">
  <ele>443.26</ele>
  <time>2026-09-01T19:52:31Z</time>
  <course>355.79</course>
  <speed>25.38</speed>
  <fix>3d</fix>
</trkpt>
<trkpt lat="-27.2661375" lon="151.2904731">
  <ele>443.11</ele>
  <time>2026-09-01T19:52:31Z</time>
  <course>353.8</course>
  <speed>24.916444369131</speed>
  <fix>3d</fix>
</trkpt>
<trkpt lat="-27.2661783" lon="151.2904776">
  <ele>443.25</ele>
  <time>2026-09-01T19:52:31Z</time>
  <course>355.02</course>
  <speed>25.15</speed>
  <fix>3d</fix>
</trkpt>
<trkpt lat="-27.2661153" lon="151.2904698">
  <ele>443.07</ele>
  <time>2026-09-01T19:52:31Z</time>
  <course>353.17</course>
  <speed>24.83646512690564</speed>
  <fix>3d</fix>
</trkpt>
<trkpt lat="-27.2661783" lon="151.2904776">
  <ele>443.25</ele>
  <time>2026-09-01T19:52:31Z</time>
  <course>355.02</course>
  <speed>25.15</speed>
  <fix>3d</fix>
</trkpt>
<trkpt lat="-27.2660932" lon="151.2904658">
  <ele>443.02</ele>
  <time>2026-09-01T19:52:31Z</time>
  <course>352.04</course>
  <speed>24.797429302248247</speed>
  <fix>3d</fix>
</trkpt>
<trkpt lat="-27.2661336" lon="151.2904725">
  <ele>443.21</ele>
  <time>2026-09-01T19:52:31Z</time>
  <course>353.09</course>
  <speed>24.9</speed>
  <fix>3d</fix>
</trkpt>
<trkpt lat="-27.266071" lon="151.290461">
  <ele>442.95</ele>
  <time>2026-09-01T19:52:31Z</time>
  <course>350.25</course>
  <speed>24.77402873979119</speed>
  <fix>3d</fix>
</trkpt>
<trkpt lat="-27.2661336" lon="151.2904725">
  <ele>443.21</ele>
  <time>2026-09-01T19:52:31Z</time>
  <course>353.09</course>
  <speed>24.9</speed>
  <fix>3d</fix>
</trkpt>
<trkpt lat="-27.2660495" lon="151.2904553">
  <ele>442.88</ele>
  <time>2026-09-01T19:52:31Z</time>
  <course>347.86</course>
  <speed>24.77606304480193</speed>
  <fix>3d</fix>
</trkpt>
<trkpt lat="-27.2660895" lon="151.2904652">
  <ele>443.12</ele>
  <time>2026-09-01T19:52:31Z</time>
  <course>349.9</course>
  <speed>24.74</speed>
  <fix>3d</fix>
</trkpt>
<trkpt lat="-27.2660282" lon="151.2904485">
  <ele>442.82</ele>
  <time>2026-09-01T19:52:31Z</time>
  <course>345.05</course>
  <speed>24.803362675250305</speed>
  <fix>3d</fix>
</trkpt>
<trkpt lat="-27.2660895" lon="151.2904652">
  <ele>443.12</ele>
  <time>2026-09-01T19:52:31Z</time>
  <course>349.9</course>
  <speed>24.74</speed>
  <fix>3d</fix>
</trkpt>
<trkpt lat="-27.2660073" lon="151.2904406">
  <ele>442.77</ele>
  <time>2026-09-01T19:52:31Z</time>
  <course>342.07</course>
  <speed>24.829546914915703</speed>
  <fix>3d</fix>
</trkpt>
<trkpt lat="-27.2660462" lon="151.2904545">
  <ele>443.0</ele>
  <time>2026-09-01T19:52:31Z</time>
  <course>345.38</course>
  <speed>24.68</speed>
  <fix>3d</fix>
</trkpt>
<trkpt lat="-27.265987" lon="151.2904315">
  <ele>442.74</ele>
  <time>2026-09-01T19:52:31Z</time>
  <course>339.01</course>
  <speed>24.851064363523747</speed>
  <fix>3d</fix>
</trkpt>
<trkpt lat="-27.2660462" lon="151.2904545">
  <ele>443.0</ele>
  <time>2026-09-01T19:52:31Z</time>
  <course>345.38</course>
  <speed>24.68</speed>
  <fix>3d</fix>
</trkpt>
<trkpt lat="-27.2659669" lon="151.2904213">
  <ele>442.72</ele>
  <time>2026-09-01T19:52:31Z</time>
  <course>335.96</course>
  <speed>24.865890291722916</speed>
  <fix>3d</fix>
</trkpt>
<trkpt lat="-27.2660038" lon="151.2904396">
  <ele>442.89</ele>
  <time>2026-09-01T19:52:31Z</time>
  <course>339.82</course>
  <speed>24.71</speed>
  <fix>3d</fix>
</trkpt>
<trkpt lat="-27.2659473" lon="151.2904099">
  <ele>442.72</ele>
  <time>2026-09-01T19:52:31Z</time>
  <course>332.97</course>
  <speed>24.856188364268565</speed>
  <fix>3d</fix>
</trkpt>
<trkpt lat="-27.2660038" lon="151.2904396">
  <ele>442.89</ele>
  <time>2026-09-01T19:52:31Z</time>
  <course>339.82</course>
  <speed>24.71</speed>
  <fix>3d</fix>
</trkpt>
<trkpt lat="-27.2659283" lon="151.2903975">
  <ele>442.73</ele>
  <time>2026-09-01T19:52:31Z</time>
  <course>330.01</course>
  <speed>24.854908971871133</speed>
  <fix>3d</fix>
</trkpt>
<trkpt lat="-27.265963" lon="151.2904201">
  <ele>442.84</ele>
  <time>2026-09-01T19:52:31Z</time>
  <course>333.92</course>
  <speed>24.76</speed>
  <fix>3d</fix>
</trkpt>
<trkpt lat="-27.2659097" lon="151.2903839">
  <ele>442.75</ele>
  <time>2026-09-01T19:52:31Z</time>
  <course>326.98</course>
  <speed>24.844162292176406</speed>
  <fix>3d</fix>
</trkpt>
<trkpt lat="-27.265963" lon="151.2904201">
  <ele>442.84</ele>
  <time>2026-09-01T19:52:31Z</time>
  <course>333.92</course>
  <speed>24.76</speed>
  <fix>3d</fix>
</trkpt>
<trkpt lat="-27.2658919" lon="151.2903693">
  <ele>442.78</ele>
  <time>2026-09-01T19:52:31Z</time>
  <course>323.91</course>
  <speed>24.833062638345677</speed>
  <fix>3d</fix>
</trkpt>
<trkpt lat="-27.2659241" lon="151.2903958">
  <ele>442.84</ele>
  <time>2026-09-01T19:52:31Z</time>
  <course>328.06</course>
  <speed>24.79</speed>
  <fix>3d</fix>
</trkpt>
<trkpt lat="-27.2658748" lon="151.2903537">
  <ele>442.82</ele>
  <time>2026-09-01T19:52:31Z</time>
  <course>320.86</course>
  <speed>24.829989931532392</speed>
  <fix>3d</fix>
</trkpt>
<trkpt lat="-27.2659241" lon="151.2903958">
  <ele>442.84</ele>
  <time>2026-09-01T19:52:31Z</time>
  <course>328.06</course>
  <speed>24.79</speed>
  <fix>3d</fix>
</trkpt>
<trkpt lat="-27.2658583" lon="151.290337">
  <ele>442.87</ele>
  <time>2026-09-01T19:52:31Z</time>
  <course>317.81</course>
  <speed>24.838244704487476</speed>
  <fix>3d</fix>
</trkpt>
<trkpt lat="-27.2658876" lon="151.2903672">
  <ele>442.89</ele>
  <time>2026-09-01T19:52:31Z</time>
  <course>322.14</course>
  <speed>24.81</speed>
  <fix>3d</fix>
</trkpt>
<trkpt lat="-27.2658426" lon="151.2903193">
  <ele>442.92</ele>
  <time>2026-09-01T19:52:31Z</time>
  <course>314.69</course>
  <speed>24.84856937531817</speed>
  <fix>3d</fix>
</trkpt>
<trkpt lat="-27.2658876" lon="151.2903672">
  <ele>442.89</ele>
  <time>2026-09-01T19:52:31Z</time>
  <course>322.14</course>
  <speed>24.81</speed>
  <fix>3d</fix>
</trkpt>
<trkpt lat="-27.2658277" lon="151.2903006">
  <ele>442.98</ele>
  <time>2026-09-01T19:52:31Z</time>
  <course>311.48</course>
  <speed>24.86476221482924</speed>
  <fix>3d</fix>
</trkpt>
<trkpt lat="-27.2658538" lon="151.2903342">
  <ele>442.96</ele>
  <time>2026-09-01T19:52:31Z</time>
  <course>315.99</course>
  <speed>24.83</speed>
  <fix>3d</fix>
</trkpt>
<trkpt lat="-27.2658138" lon="151.2902809">
  <ele>443.05</ele>
  <time>2026-09-01T19:52:31Z</time>
  <course>308.19</course>
  <speed>24.87842840695529</speed>
  <fix>3d</fix>
</trkpt>
<trkpt lat="-27.2658538" lon="151.2903342">
  <ele>442.96</ele>
  <time>2026-09-01T19:52:31Z</time>
  <course>315.99</course>
  <speed>24.83</speed>
  <fix>3d</fix>
</trkpt>
<trkpt lat="-27.2658009" lon="151.2902603">
  <ele>443.12</ele>
  <time>2026-09-01T19:52:31Z</time>
  <course>304.89</course>
  <speed>24.90404384833917</speed>
  <fix>3d</fix>
</trkpt>
<trkpt lat="-27.2658234" lon="151.2902973">
  <ele>443.07</ele>
  <time>2026-09-01T19:52:31Z</time>
  <course>309.62</course>
  <speed>24.85</speed>
  <fix>3d</fix>
</trkpt>
<trkpt lat="-27.265789" lon="151.2902389">
  <ele>443.21</ele>
  <time>2026-09-01T19:52:31Z</time>
  <course>301.54</course>
  <speed>24.898851379129923</speed>
  <fix>3d</fix>
</trkpt>
<trkpt lat="-27.2658234" lon="151.2902973">
  <ele>443.07</ele>
  <time>2026-09-01T19:52:31Z</time>
  <course>309.62</course>
  <speed>24.85</speed>
  <fix>3d</fix>
</trkpt>
<trkpt lat="-27.2657783" lon="151.2902168">
  <ele>443.3</ele>
  <time>2026-09-01T19:52:31Z</time>
  <course>298.23</course>
  <speed>24.89638728811873</speed>
  <fix>3d</fix>
</trkpt>
<trkpt lat="-27.265797" lon="151.2902569">
  <ele>443.2</ele>
  <time>2026-09-01T19:52:31Z</time>
  <course>303.04</course>
  <speed>24.87</speed>
  <fix>3d</fix>
</trkpt>
<trkpt lat="-27.2657687" lon="151.2901941">
  <ele>443.41</ele>
  <time>2026-09-01T19:52:31Z</time>
  <course>294.96</course>
  <speed>24.882624459650557</speed>
  <fix>3d</fix>
</trkpt>
<trkpt lat="-27.265797" lon="151.2902569">
  <ele>443.2</ele>
  <time>2026-09-01T19:52:31Z</time>
  <course>303.04</course>
  <speed>24.87</speed>
  <fix>3d</fix>
</trkpt>
<trkpt lat="-27.2657602" lon="151.2901708">
  <ele>443.52</ele>
  <time>2026-09-01T19:52:31Z</time>
  <course>291.74</course>
  <speed>24.85927191210555</speed>
  <fix>3d</fix>
</trkpt>
<trkpt lat="-27.2657748" lon="151.2902133">
  <ele>443.37</ele>
  <time>2026-09-01T19:52:31Z</time>
  <course>296.39</course>
  <speed>24.86</speed>
  <fix>3d</fix>
</trkpt>
<trkpt lat="-27.265753" lon="151.290147">
  <ele>443.64</ele>
  <time>2026-09-01T19:52:31Z</time>
  <course>288.47</course>
  <speed>24.83362639648104</speed>
  <fix>3d</fix>
</trkpt>
<trkpt lat="-27.2657748" lon="151.2902133">
  <ele>443.37</ele>
  <time>2026-09-01T19:52:31Z</time>
  <course>296.39</course>
  <speed>24.86</speed>
  <fix>3d</fix>
</trkpt>
<trkpt lat="-27.265747" lon="151.2901229">
  <ele>443.76</ele>
  <time>2026-09-01T19:52:31Z</time>
  <course>285.3</course>
  <speed>24.787773195670482</speed>
  <fix>3d</fix>
</trkpt>
<trkpt lat="-27.2657574" lon="151.2901671">
  <ele>443.57</ele>
  <time>2026-09-01T19:52:31Z</time>
  <course>289.81</course>
  <speed>24.83</speed>
  <fix>3d</fix>
</trkpt>
<trkpt lat="-27.2657423" lon="151.2900986">
  <ele>443.89</ele>
  <time>2026-09-01T19:52:31Z</time>
  <course>282.05</course>
  <speed>24.739023828760907</speed>
  <fix>3d</fix>
</trkpt>
<trkpt lat="-27.2657574" lon="151.2901671">
  <ele>443.57</ele>
  <time>2026-09-01T19:52:31Z</time>
  <course>289.81</course>
  <speed>24.83</speed>
  <fix>3d</fix>
</trkpt>
<trkpt lat="-27.2657387" lon="151.2900742">
  <ele>444.02</ele>
  <time>2026-09-01T19:52:31Z</time>
  <course>278.77</course>
  <speed>24.694090386163243</speed>
  <fix>3d</fix>
</trkpt>
<trkpt lat="-27.2657447" lon="151.2901191">
  <ele>443.79</ele>
  <time>2026-09-01T19:52:31Z</time>
  <course>283.33</course>
  <speed>24.77</speed>
  <fix>3d</fix>
</trkpt>
<trkpt lat="-27.2657364" lon="151.2900496">
  <ele>444.16</ele>
  <time>2026-09-01T19:52:31Z</time>
  <course>275.58</course>
  <speed>24.628741340149723</speed>
  <fix>3d</fix>
</trkpt>
<trkpt lat="-27.2657447" lon="151.2901191">
  <ele>443.79</ele>
  <time>2026-09-01T19:52:31Z</time>
  <course>283.33</course>
  <speed>24.77</speed>
  <fix>3d</fix>
</trkpt>
<trkpt lat="-27.2657354" lon="151.290025">
  <ele>444.29</ele>
  <time>2026-09-01T19:52:31Z</time>
  <course>272.37</course>
  <speed>24.572216017282607</speed>
  <fix>3d</fix>
</trkpt>
<trkpt lat="-27.2657369" lon="151.2900699">
  <ele>444.03</ele>
  <time>2026-09-01T19:52:31Z</time>
  <course>276.87</course>
  <speed>24.68</speed>
  <fix>3d</fix>
</trkpt>
<trkpt lat="-27.2657356" lon="151.2900004">
  <ele>444.43</ele>
  <time>2026-09-01T19:52:31Z</time>
  <course>269.21</course>
  <speed>24.51165029123906</speed>
  <fix>3d</fix>
</trkpt>
<trkpt lat="-27.2657369" lon="151.2900699">
  <ele>444.03</ele>
  <time>2026-09-01T19:52:31Z</time>
  <course>276.87</course>
  <speed>24.68</speed>
  <fix>3d</fix>
</trkpt>
<trkpt lat="-27.2657369" lon="151.2899759">
  <ele>444.57</ele>
  <time>2026-09-01T19:52:31Z</time>
  <course>266.09</course>
  <speed>24.446130573160243</speed>
  <fix>3d</fix>
</trkpt>
<trkpt lat="-27.2657341" lon="151.2900202">
  <ele>444.28</ele>
  <time>2026-09-01T19:52:31Z</time>
  <course>270.4</course>
  <speed>24.59</speed>
  <fix>3d</fix>
</trkpt>
<trkpt lat="-27.2657394" lon="151.2899516">
  <ele>444.71</ele>
  <time>2026-09-01T19:52:31Z</time>
  <course>262.97</course>
  <speed>24.374006646425613</speed>
  <fix>3d</fix>
</trkpt>
<trkpt lat="-27.2657341" lon="151.2900202">
  <ele>444.28</ele>
  <time>2026-09-01T19:52:31Z</time>
  <course>270.4</course>
  <speed>24.59</speed>
  <fix>3d</fix>
</trkpt>
<trkpt lat="-27.2657432" lon="151.2899274">
  <ele>444.84</ele>
  <time>2026-09-01T19:52:31Z</time>
  <course>259.84</course>
  <speed>24.30202666445743</speed>
  <fix>3d</fix>
</trkpt>
<trkpt lat="-27.2657362" lon="151.2899707">
  <ele>444.53</ele>
  <time>2026-09-01T19:52:31Z</time>
  <course>264.01</course>
  <speed>24.49</speed>
  <fix>3d</fix>
</trkpt>
<trkpt lat="-27.2657481" lon="151.2899036">
  <ele>444.97</ele>
  <time>2026-09-01T19:52:31Z</time>
  <course>256.71</course>
  <speed>24.225459747959377</speed>
  <fix>3d</fix>
</trkpt>
<trkpt lat="-27.2657362" lon="151.2899707">
  <ele>444.53</ele>
  <time>2026-09-01T19:52:31Z</time>
  <course>264.01</course>
  <speed>24.49</speed>
  <fix>3d</fix>
</trkpt>
<trkpt lat="-27.2657542" lon="151.2898801">
  <ele>445.09</ele>
  <time>2026-09-01T19:52:31Z</time>
  <course>253.63</course>
  <speed>24.157021753519203</speed>
  <fix>3d</fix>
</trkpt>
<trkpt lat="-27.2657431" lon="151.289922">
  <ele>444.78</ele>
  <time>2026-09-01T19:52:31Z</time>
  <course>257.71</course>
  <speed>24.37</speed>
  <fix>3d</fix>
</trkpt>
<trkpt lat="-27.2657614" lon="151.2898571">
  <ele>445.21</ele>
  <time>2026-09-01T19:52:31Z</time>
  <course>250.54</course>
  <speed>24.089742630422602</speed>
  <fix>3d</fix>
</trkpt>
<trkpt lat="-27.2657431" lon="151.289922">
  <ele>444.78</ele>
  <time>2026-09-01T19:52:31Z</time>
  <course>257.71</course>
  <speed>24.37</speed>
  <fix>3d</fix>
</trkpt>
<trkpt lat="-27.2657696" lon="151.2898346">
  <ele>445.33</ele>
  <time>2026-09-01T19:52:31Z</time>
  <course>247.5</course>
  <speed>24.012267697991373</speed>
  <fix>3d</fix>
</trkpt>
<trkpt lat="-27.2657548" lon="151.2898746">
  <ele>445.02</ele>
  <time>2026-09-01T19:52:31Z</time>
  <course>251.48</course>
  <speed>24.23</speed>
  <fix>3d</fix>
</trkpt>
<trkpt lat="-27.2657789" lon="151.2898128">
  <ele>445.44</ele>
  <time>2026-09-01T19:52:31Z</time>
  <course>244.44</course>
  <speed>23.932565679425178</speed>
  <fix>3d</fix>
</trkpt>
<trkpt lat="-27.2657548" lon="151.2898746">
  <ele>445.02</ele>
  <time>2026-09-01T19:52:31Z</time>
  <course>251.48</course>
  <speed>24.23</speed>
  <fix>3d</fix>
</trkpt>
<trkpt lat="-27.2657891" lon="151.2897916">
  <ele>445.54</ele>
  <time>2026-09-01T19:52:31Z</time>
  <course>241.49</course>
  <speed>23.85330165826106</speed>
  <fix>3d</fix>
</trkpt>
<trkpt lat="-27.2657708" lon="151.2898291">
  <ele>445.25</ele>
  <time>2026-09-01T19:52:31Z</time>
  <course>245.3</course>
  <speed>24.08</speed>
  <fix>3d</fix>
</trkpt>
<trkpt lat="-27.2658003" lon="151.2897711">
  <ele>445.64</ele>
  <time>2026-09-01T19:52:31Z</time>
  <course>238.58</course>
  <speed>23.7665184661111</speed>
  <fix>3d</fix>
</trkpt>
<trkpt lat="-27.2657708" lon="151.2898291">
  <ele>445.25</ele>
  <time>2026-09-01T19:52:31Z</time>
  <course>245.3</course>
  <speed>24.08</speed>
  <fix>3d</fix>
</trkpt>
<trkpt lat="-27.2658123" lon="151.2897514">
  <ele>445.74</ele>
  <time>2026-09-01T19:52:31Z</time>
  <course>235.72</course>
  <speed>23.68519579821961</speed>
  <fix>3d</fix>
</trkpt>
<trkpt lat="-27.2657909" lon="151.2897863">
  <ele>445.46</ele>
  <time>2026-09-01T19:52:31Z</time>
  <course>239.22</course>
  <speed>23.93</speed>
  <fix>3d</fix>
</trkpt>
<trkpt lat="-27.2658252" lon="151.2897324">
  <ele>445.83</ele>
  <time>2026-09-01T19:52:31Z</time>
  <course>232.91</course>
  <speed>23.590974969254663</speed>
  <fix>3d</fix>
</trkpt>
<trkpt lat="-27.2657909" lon="151.2897863">
  <ele>445.46</ele>
  <time>2026-09-01T19:52:31Z</time>
  <course>239.22</course>
  <speed>23.93</speed>
  <fix>3d</fix>
</trkpt>
<trkpt lat="-27.265839" lon="151.2897142">
  <ele>445.9</ele>
  <time>2026-09-01T19:52:31Z</time>
  <course>230.24</course>
  <speed>23.5089089495876</speed>
  <fix>3d</fix>
</trkpt>
<trkpt lat="-27.2658147" lon="151.2897462">
  <ele>445.65</ele>
  <time>2026-09-01T19:52:31Z</time>
  <course>233.3</course>
  <speed>23.76</speed>
  <fix>3d</fix>
</trkpt>
<trkpt lat="-27.2658534" lon="151.2896968">
  <ele>445.97</ele>
  <time>2026-09-01T19:52:31Z</time>
  <course>227.64</course>
  <speed>23.41277642655821</speed>
  <fix>3d</fix>
</trkpt>
<trkpt lat="-27.2658147" lon="151.2897462">
  <ele>445.65</ele>
  <time>2026-09-01T19:52:31Z</time>
  <course>233.3</course>
  <speed>23.76</speed>
  <fix>3d</fix>
</trkpt>
<trkpt lat="-27.2658686" lon="151.2896801">
  <ele>446.02</ele>
  <time>2026-09-01T19:52:31Z</time>
  <course>225.09</course>
  <speed>23.331148707254002</speed>
  <fix>3d</fix>
</trkpt>
<trkpt lat="-27.2658417" lon="151.2897094">
  <ele>445.81</ele>
  <time>2026-09-01T19:52:31Z</time>
  <course>227.67</course>
  <speed>23.58</speed>
  <fix>3d</fix>
</trkpt>
<trkpt lat="-27.2658843" lon="151.2896643">
  <ele>446.07</ele>
  <time>2026-09-01T19:52:31Z</time>
  <course>222.7</course>
  <speed>23.239244824219224</speed>
  <fix>3d</fix>
</trkpt>
<trkpt lat="-27.2658417" lon="151.2897094">
  <ele>445.81</ele>
  <time>2026-09-01T19:52:31Z</time>
  <course>227.67</course>
  <speed>23.58</speed>
  <fix>3d</fix>
</trkpt>
<trkpt lat="-27.2659006" lon="151.2896493">
  <ele>446.1</ele>
  <time>2026-09-01T19:52:31Z</time>
  <course>220.35</course>
  <speed>23.15086175501897</speed>
  <fix>3d</fix>
</trkpt>
<trkpt lat="-27.2658715" lon="151.2896758">
  <ele>445.94</ele>
  <time>2026-09-01T19:52:31Z</time>
  <course>222.37</course>
  <speed>23.39</speed>
  <fix>3d</fix>
</trkpt>
<trkpt lat="-27.2659173" lon="151.2896353">
  <ele>446.12</ele>
  <time>2026-09-01T19:52:31Z</time>
  <course>218.1</course>
  <speed>23.047299191011515</speed>
  <fix>3d</fix>
</trkpt>
<trkpt lat="-27.2658715" lon="151.2896758">
  <ele>445.94</ele>
  <time>2026-09-01T19:52:31Z</time>
  <course>222.37</course>
  <speed>23.39</speed>
  <fix>3d</fix>
</trkpt>
<trkpt lat="-27.2659345" lon="151.289622">
  <ele>446.12</ele>
  <time>2026-09-01T19:52:31Z</time>
  <course>216.01</course>
  <speed>22.951638285752065</speed>
  <fix>3d</fix>
</trkpt>
<trkpt lat="-27.2659036" lon="151.2896457">
  <ele>446.03</ele>
  <time>2026-09-01T19:52:31Z</time>
  <course>217.41</course>
  <speed>23.18</speed>
  <fix>3d</fix>
</trkpt>
<trkpt lat="-27.265952" lon="151.2896095">
  <ele>446.11</ele>
  <time>2026-09-01T19:52:31Z</time>
  <course>214.03</course>
  <speed>22.852240590366627</speed>
  <fix>3d</fix>
</trkpt>
<trkpt lat="-27.2659036" lon="151.2896457">
  <ele>446.03</ele>
  <time>2026-09-01T19:52:31Z</time>
  <course>217.41</course>
  <speed>23.18</speed>
  <fix>3d</fix>
</trkpt>
<trkpt lat="-27.2659699" lon="151.2895978">
  <ele>446.09</ele>
  <time>2026-09-01T19:52:31Z</time>
  <course>212.11</course>
  <speed>22.74946153208906</speed>
  <fix>3d</fix>
</trkpt>
<trkpt lat="-27.2659375" lon="151.2896189">
  <ele>446.07</ele>
  <time>2026-09-01T19:52:31Z</time>
  <course>212.86</course>
  <speed>22.97</speed>
  <fix>3d</fix>
</trkpt>
<trkpt lat="-27.2659879" lon="151.2895869">
  <ele>446.05</ele>
  <time>2026-09-01T19:52:31Z</time>
  <course>210.3</course>
  <speed>22.652704032852238</speed>
  <fix>3d</fix>
</trkpt>
<trkpt lat="-27.2659375" lon="151.2896189">
  <ele>446.07</ele>
  <time>2026-09-01T19:52:31Z</time>
  <course>212.86</course>
  <speed>22.97</speed>
  <fix>3d</fix>
</trkpt>
<trkpt lat="-27.266006" lon="151.2895767">
  <ele>445.99</ele>
  <time>2026-09-01T19:52:31Z</time>
  <course>208.58</course>
  <speed>22.562065508281815</speed>
  <fix>3d</fix>
</trkpt>
<trkpt lat="-27.2659728" lon="151.2895952">
  <ele>446.05</ele>
  <time>2026-09-01T19:52:31Z</time>
  <course>208.75</course>
  <speed>22.76</speed>
  <fix>3d</fix>
</trkpt>
<trkpt lat="-27.2660244" lon="151.2895672">
  <ele>445.92</ele>
  <time>2026-09-01T19:52:31Z</time>
  <course>206.91</course>
  <speed>22.48710074687264</speed>
  <fix>3d</fix>
</trkpt>
<trkpt lat="-27.2659728" lon="151.2895952">
  <ele>446.05</ele>
  <time>2026-09-01T19:52:31Z</time>
  <course>208.75</course>
  <speed>22.76</speed>
  <fix>3d</fix>
</trkpt>
<trkpt lat="-27.2660429" lon="151.2895584">
  <ele>445.83</ele>
  <time>2026-09-01T19:52:31Z</time>
  <course>205.28</course>
  <speed>22.465662687755284</speed>
  <fix>3d</fix>
</trkpt>
<trkpt lat="-27.2660091" lon="151.2895745">
  <ele>445.97</ele>
  <time>2026-09-01T19:52:31Z</time>
  <course>205.06</course>
  <speed>22.57</speed>
  <fix>3d</fix>
</trkpt>
<trkpt lat="-27.2660616" lon="151.2895501">
  <ele>445.72</ele>
  <time>2026-09-01T19:52:31Z</time>
  <course>203.7</course>
  <speed>22.473081675640305</speed>
  <fix>3d</fix>
</trkpt>
<trkpt lat="-27.2660091" lon="151.2895745">
  <ele>445.97</ele>
  <time>2026-09-01T19:52:31Z</time>
  <course>205.06</course>
  <speed>22.57</speed>
  <fix>3d</fix>
</trkpt>
<trkpt lat="-27.2660805" lon="151.2895424">
  <ele>445.6</ele>
  <time>2026-09-01T19:52:31Z</time>
  <course>202.19</course>
  <speed>22.453262569167983</speed>
  <fix>3d</fix>
</trkpt>
<trkpt lat="-27.2660463" lon="151.2895565">
  <ele>445.81</ele>
  <time>2026-09-01T19:52:31Z</time>
  <course>201.69</course>
  <speed>22.47</speed>
  <fix>3d</fix>
</trkpt>
<trkpt lat="-27.2660998" lon="151.2895353">
  <ele>445.46</ele>
  <time>2026-09-01T19:52:31Z</time>
  <course>200.65</course>
  <speed>22.458381508915554</speed>
  <fix>3d</fix>
</trkpt>
<trkpt lat="-27.2660463" lon="151.2895565">
  <ele>445.81</ele>
  <time>2026-09-01T19:52:31Z</time>
  <course>201.69</course>
  <speed>22.47</speed>
  <fix>3d</fix>
</trkpt>
<trkpt lat="-27.2661192" lon="151.2895287">
  <ele>445.31</ele>
  <time>2026-09-01T19:52:31Z</time>
  <course>199.08</course>
  <speed>22.45022271604449</speed>
  <fix>3d</fix>
</trkpt>
<trkpt lat="-27.2660843" lon="151.2895408">
  <ele>445.58</ele>
  <time>2026-09-01T19:52:31Z</time>
  <course>198.6</course>
  <speed>22.46</speed>
  <fix>3d</fix>
</trkpt>
<trkpt lat="-27.2661386" lon="151.2895227">
  <ele>445.15</ele>
  <time>2026-09-01T19:52:31Z</time>
  <course>197.52</course>
  <speed>22.437809607891765</speed>
  <fix>3d</fix>
</trkpt>
<trkpt lat="-27.2660843" lon="151.2895408">
  <ele>445.58</ele>
  <time>2026-09-01T19:52:31Z</time>
  <course>198.6</course>
  <speed>22.46</speed>
  <fix>3d</fix>
</trkpt>
<trkpt lat="-27.2661582" lon="151.2895173">
  <ele>444.98</ele>
  <time>2026-09-01T19:52:31Z</time>
  <course>195.99</course>
  <speed>22.44250431658642</speed>
  <fix>3d</fix>
</trkpt>
<trkpt lat="-27.2661229" lon="151.2895275">
  <ele>445.29</ele>
  <time>2026-09-01T19:52:31Z</time>
  <course>195.65</course>
  <speed>22.45</speed>
  <fix>3d</fix>
</trkpt>
<trkpt lat="-27.2661779" lon="151.2895124">
  <ele>444.81</ele>
  <time>2026-09-01T19:52:31Z</time>
  <course>194.49</course>
  <speed>22.4517482615497</speed>
  <fix>3d</fix>
</trkpt>
<trkpt lat="-27.2661229" lon="151.2895275">
  <ele>445.29</ele>
  <time>2026-09-01T19:52:31Z</time>
  <course>195.65</course>
  <speed>22.45</speed>
  <fix>3d</fix>
</trkpt>
<trkpt lat="-27.2661978" lon="151.2895081">
  <ele>444.64</ele>
  <time>2026-09-01T19:52:31Z</time>
  <course>193.02</course>
  <speed>22.447454198639097</speed>
  <fix>3d</fix>
</trkpt>
<trkpt lat="-27.2661619" lon="151.2895163">
  <ele>444.97</ele>
  <time>2026-09-01T19:52:31Z</time>
  <course>192.74</course>
  <speed>22.45</speed>
  <fix>3d</fix>
</trkpt>
<trkpt lat="-27.2662178" lon="151.2895043">
  <ele>444.47</ele>
  <time>2026-09-01T19:52:31Z</time>
  <course>191.64</course>
  <speed>22.448251602296338</speed>
  <fix>3d</fix>
</trkpt>
<trkpt lat="-27.2661619" lon="151.2895163">
  <ele>444.97</ele>
  <time>2026-09-01T19:52:31Z</time>
  <course>192.74</course>
  <speed>22.45</speed>
  <fix>3d</fix>
</trkpt>
<trkpt lat="-27.2662378" lon="151.2895011">
  <ele>444.3</ele>
  <time>2026-09-01T19:52:31Z</time>
  <course>190.31</course>
  <speed>22.447347282028673</speed>
  <fix>3d</fix>
</trkpt>
<trkpt lat="-27.2662015" lon="151.2895074">
  <ele>444.64</ele>
  <time>2026-09-01T19:52:31Z</time>
  <course>189.93</course>
  <speed>22.44</speed>
  <fix>3d</fix>
</trkpt>
<trkpt lat="-27.2662579" lon="151.2894983">
  <ele>444.13</ele>
  <time>2026-09-01T19:52:31Z</time>
  <course>189.02</course>
  <speed>22.437477576590467</speed>
  <fix>3d</fix>
</trkpt>
<trkpt lat="-27.2662015" lon="151.2895074">
  <ele>444.64</ele>
  <time>2026-09-01T19:52:31Z</time>
  <course>189.93</course>
  <speed>22.44</speed>
  <fix>3d</fix>
</trkpt>
<trkpt lat="-27.2662781" lon="151.289496">
  <ele>443.97</ele>
  <time>2026-09-01T19:52:31Z</time>
  <course>187.83</course>
  <speed>22.442000802067536</speed>
  <fix>3d</fix>
</trkpt>
<trkpt lat="-27.2662413" lon="151.2895007">
  <ele>444.31</ele>
  <time>2026-09-01T19:52:31Z</time>
  <course>187.32</course>
  <speed>22.43</speed>
  <fix>3d</fix>
</trkpt>
<trkpt lat="-27.2662983" lon="151.2894942">
  <ele>443.81</ele>
  <time>2026-09-01T19:52:31Z</time>
  <course>186.76</course>
  <speed>22.437121027440217</speed>
  <fix>3d</fix>
</trkpt>
<trkpt lat="-27.2662413" lon="151.2895007">
  <ele>444.31</ele>
  <time>2026-09-01T19:52:31Z</time>
  <course>187.32</course>
  <speed>22.43</speed>
  <fix>3d</fix>
</trkpt>
<trkpt lat="-27.2663185" lon="151.2894928">
  <ele>443.67</ele>
  <time>2026-09-01T19:52:31Z</time>
  <course>185.69</course>
  <speed>22.422671562505663</speed>
  <fix>3d</fix>
</trkpt>
<trkpt lat="-27.2662813" lon="151.2894958">
  <ele>444.0</ele>
  <time>2026-09-01T19:52:31Z</time>
  <course>184.96</course>
  <speed>22.41</speed>
  <fix>3d</fix>
</trkpt>
<trkpt lat="-27.2663386" lon="151.2894918">
  <ele>443.53</ele>
  <time>2026-09-01T19:52:31Z</time>
  <course>184.67</course>
  <speed>22.405751493757133</speed>
  <fix>3d</fix>
</trkpt>
<trkpt lat="-27.2662813" lon="151.2894958">
  <ele>444.0</ele>
  <time>2026-09-01T19:52:31Z</time>
  <course>184.96</course>
  <speed>22.41</speed>
  <fix>3d</fix>
</trkpt>
<trkpt lat="-27.2663588" lon="151.2894911">
  <ele>443.39</ele>
  <time>2026-09-01T19:52:31Z</time>
  <course>183.75</course>
  <speed>22.395807643396118</speed>
  <fix>3d</fix>
</trkpt>
<trkpt lat="-27.2663215" lon="151.2894928">
  <ele>443.72</ele>
  <time>2026-09-01T19:52:31Z</time>
  <course>182.88</course>
  <speed>22.38</speed>
  <fix>3d</fix>
</trkpt>
<trkpt lat="-27.266379" lon="151.2894908">
  <ele>443.27</ele>
  <time>2026-09-01T19:52:31Z</time>
  <course>182.88</course>
  <speed>22.37089403667185</speed>
  <fix>3d</fix>
</trkpt>
<trkpt lat="-27.2663215" lon="151.2894928">
  <ele>443.72</ele>
  <time>2026-09-01T19:52:31Z</time>
  <course>182.88</course>
  <speed>22.38</speed>
  <fix>3d</fix>
</trkpt>
<trkpt lat="-27.2663991" lon="151.2894907">
  <ele>443.15</ele>
  <time>2026-09-01T19:52:31Z</time>
  <course>182.11</course>
  <speed>22.350109619417978</speed>
  <fix>3d</fix>
</trkpt>
<trkpt lat="-27.2663617" lon="151.2894912">
  <ele>443.47</ele>
  <time>2026-09-01T19:52:31Z</time>
  <course>181.1</course>
  <speed>22.35</speed>
  <fix>3d</fix>
</trkpt>
<trkpt lat="-27.266419" lon="151.289491">
  <ele>443.04</ele>
  <time>2026-09-01T19:52:31Z</time>
  <course>181.4</course>
  <speed>22.32229378894562</speed>
  <fix>3d</fix>
</trkpt>
<trkpt lat="-27.2663617" lon="151.2894912">
  <ele>443.47</ele>
  <time>2026-09-01T19:52:31Z</time>
  <course>181.1</course>
  <speed>22.35</speed>
  <fix>3d</fix>
</trkpt>
<trkpt lat="-27.266439" lon="151.2894914">
  <ele>442.94</ele>
  <time>2026-09-01T19:52:31Z</time>
  <course>180.72</course>
  <speed>22.28678756573051</speed>
  <fix>3d</fix>
</trkpt>
<trkpt lat="-27.2664018" lon="151.2894908">
  <ele>443.24</ele>
  <time>2026-09-01T19:52:31Z</time>
  <course>179.62</course>
  <speed>22.3</speed>
  <fix>3d</fix>
</trkpt>
<trkpt lat="-27.2664589" lon="151.289492">
  <ele>442.84</ele>
  <time>2026-09-01T19:52:31Z</time>
  <course>180.08</course>
  <speed>22.262636860893185</speed>
  <fix>3d</fix>
</trkpt>
<trkpt lat="-27.2664018" lon="151.2894908">
  <ele>443.24</ele>
  <time>2026-09-01T19:52:31Z</time>
  <course>179.62</course>
  <speed>22.3</speed>
  <fix>3d</fix>
</trkpt>
<trkpt lat="-27.2664788" lon="151.2894929">
  <ele>442.75</ele>
  <time>2026-09-01T19:52:31Z</time>
  <course>179.48</course>
  <speed>22.219471190827203</speed>
  <fix>3d</fix>
</trkpt>
<trkpt lat="-27.2664418" lon="151.2894916">
  <ele>443.03</ele>
  <time>2026-09-01T19:52:31Z</time>
  <course>178.41</course>
  <speed>22.24</speed>
  <fix>3d</fix>
</trkpt>
<trkpt lat="-27.2664987" lon="151.2894939">
  <ele>442.66</ele>
  <time>2026-09-01T19:52:31Z</time>
  <course>178.98</course>
  <speed>22.176803196132663</speed>
  <fix>3d</fix>
</trkpt>
<trkpt lat="-27.2664418" lon="151.2894916">
  <ele>443.03</ele>
  <time>2026-09-01T19:52:31Z</time>
  <course>178.41</course>
  <speed>22.24</speed>
  <fix>3d</fix>
</trkpt>
<trkpt lat="-27.2665185" lon="151.2894951">
  <ele>442.58</ele>
  <time>2026-09-01T19:52:31Z</time>
  <course>178.54</course>
  <speed>22.13420204118504</speed>
  <fix>3d</fix>
</trkpt>
<trkpt lat="-27.2664817" lon="151.2894933">
  <ele>442.85</ele>
  <time>2026-09-01T19:52:31Z</time>
  <course>177.44</course>
  <speed>22.18</speed>
  <fix>3d</fix>
</trkpt>
<trkpt lat="-27.2665382" lon="151.2894964">
  <ele>442.5</ele>
  <time>2026-09-01T19:52:31Z</time>
  <course>178.15</course>
  <speed>22.091287875540438</speed>
  <fix>3d</fix>
</trkpt>
<trkpt lat="-27.2664817" lon="151.2894933">
  <ele>442.85</ele>
  <time>2026-09-01T19:52:31Z</time>
  <course>177.44</course>
  <speed>22.18</speed>
  <fix>3d</fix>
</trkpt>
<trkpt lat="-27.2665585" lon="151.2894979">
  <ele>442.41</ele>
  <time>2026-09-01T19:52:31Z</time>
  <course>177.81</course>
  <speed>22.05771066996754</speed>
  <fix>3d</fix>
</trkpt>
<trkpt lat="-27.2665215" lon="151.2894956">
  <ele>442.68</ele>
  <time>2026-09-01T19:52:31Z</time>
  <course>176.67</course>
  <speed>22.12</speed>
  <fix>3d</fix>
</trkpt>
<trkpt lat="-27.2665781" lon="151.2894994">
  <ele>442.32</ele>
  <time>2026-09-01T19:52:31Z</time>
  <course>177.51</course>
  <speed>22.013931952288758</speed>
  <fix>3d</fix>
</trkpt>
<trkpt lat="-27.2665215" lon="151.2894956">
  <ele>442.68</ele>
  <time>2026-09-01T19:52:31Z</time>
  <course>176.67</course>
  <speed>22.12</speed>
  <fix>3d</fix>
</trkpt>
<trkpt lat="-27.2665976" lon="151.289501">
  <ele>442.23</ele>
  <time>2026-09-01T19:52:31Z</time>
  <course>177.21</course>
  <speed>21.989754432462405</speed>
  <fix>3d</fix>
</trkpt>
<trkpt lat="-27.2665611" lon="151.2894984">
  <ele>442.51</ele>
  <time>2026-09-01T19:52:31Z</time>
  <course>176.09</course>
  <speed>22.05</speed>
  <fix>3d</fix>
</trkpt>
<trkpt lat="-27.2666173" lon="151.2895027">
  <ele>442.15</ele>
  <time>2026-09-01T19:52:31Z</time>
  <course>176.95</course>
  <speed>21.954373140675184</speed>
  <fix>3d</fix>
</trkpt>
<trkpt lat="-27.2665611" lon="151.2894984">
  <ele>442.51</ele>
  <time>2026-09-01T19:52:31Z</time>
  <course>176.09</course>
  <speed>22.05</speed>
  <fix>3d</fix>
</trkpt>
<trkpt lat="-27.266637" lon="151.2895045">
  <ele>442.05</ele>
  <time>2026-09-01T19:52:31Z</time>
  <course>176.72</course>
  <speed>21.91917197341177</speed>
  <fix>3d</fix>
</trkpt>
<trkpt lat="-27.2666005" lon="151.2895016">
  <ele>442.34</ele>
  <time>2026-09-01T19:52:31Z</time>
  <course>175.67</course>
  <speed>21.99</speed>
  <fix>3d</fix>
</trkpt>
<trkpt lat="-27.2666567" lon="151.2895063">
  <ele>441.96</ele>
  <time>2026-09-01T19:52:31Z</time>
  <course>176.56</course>
  <speed>21.883331556232474</speed>
  <fix>3d</fix>
</trkpt>
<trkpt lat="-27.2666005" lon="151.2895016">
  <ele>442.34</ele>
  <time>2026-09-01T19:52:31Z</time>
  <course>175.67</course>
  <speed>21.99</speed>
  <fix>3d</fix>
</trkpt>
<trkpt lat="-27.266676" lon="151.2895081">
  <ele>441.86</ele>
  <time>2026-09-01T19:52:31Z</time>
  <course>176.4</course>
  <speed>21.86670985768092</speed>
  <fix>3d</fix>
</trkpt>
<trkpt lat="-27.2666399" lon="151.289505">
  <ele>442.16</ele>
  <time>2026-09-01T19:52:31Z</time>
  <course>175.35</course>
  <speed>21.92</speed>
  <fix>3d</fix>
</trkpt>
<trkpt lat="-27.2666956" lon="151.28951">
  <ele>441.77</ele>
  <time>2026-09-01T19:52:31Z</time>
  <course>176.25</course>
  <speed>21.839349807171455</speed>
  <fix>3d</fix>
</trkpt>
<trkpt lat="-27.2666399" lon="151.289505">
  <ele>442.16</ele>
  <time>2026-09-01T19:52:31Z</time>
  <course>175.35</course>
  <speed>21.92</speed>
  <fix>3d</fix>
</trkpt>
<trkpt lat="-27.2667151" lon="151.289512">
  <ele>441.67</ele>
  <time>2026-09-01T19:52:31Z</time>
  <course>176.12</course>
  <speed>21.802075589264433</speed>
  <fix>3d</fix>
</trkpt>
<trkpt lat="-27.2666791" lon="151.2895088">
  <ele>441.98</ele>
  <time>2026-09-01T19:52:31Z</time>
  <course>175.12</course>
  <speed>21.86</speed>
  <fix>3d</fix>
</trkpt>
<trkpt lat="-27.2667346" lon="151.2895139">
  <ele>441.57</ele>
  <time>2026-09-01T19:52:31Z</time>
  <course>176.03</course>
  <speed>21.763972523415845</speed>
  <fix>3d</fix>
</trkpt>
<trkpt lat="-27.2666791" lon="151.2895088">
  <ele>441.98</ele>
  <time>2026-09-01T19:52:31Z</time>
  <course>175.12</course>
  <speed>21.86</speed>
  <fix>3d</fix>
</trkpt>
<trkpt lat="-27.2667541" lon="151.2895159">
  <ele>441.47</ele>
  <time>2026-09-01T19:52:31Z</time>
  <course>175.96</course>
  <speed>21.74581568946081</speed>
  <fix>3d</fix>
</trkpt>
<trkpt lat="-27.2667182" lon="151.2895126">
  <ele>441.79</ele>
  <time>2026-09-01T19:52:31Z</time>
  <course>174.96</course>
  <speed>21.8</speed>
  <fix>3d</fix>
</trkpt>
<trkpt lat="-27.2667735" lon="151.2895178">
  <ele>441.37</ele>
  <time>2026-09-01T19:52:31Z</time>
  <course>175.91</course>
  <speed>21.71772087489845</speed>
  <fix>3d</fix>
</trkpt>
<trkpt lat="-27.2667182" lon="151.2895126">
  <ele>441.79</ele>
  <time>2026-09-01T19:52:31Z</time>
  <course>174.96</course>
  <speed>21.8</speed>
  <fix>3d</fix>
</trkpt>
<trkpt lat="-27.2667928" lon="151.2895198">
  <ele>441.27</ele>
  <time>2026-09-01T19:52:31Z</time>
  <course>175.86</course>
  <speed>21.678784560025502</speed>
  <fix>3d</fix>
</trkpt>
<trkpt lat="-27.2667571" lon="151.2895165">
  <ele>441.6</ele>
  <time>2026-09-01T19:52:31Z</time>
  <course>174.86</course>
  <speed>21.75</speed>
  <fix>3d</fix>
</trkpt>
<trkpt lat="-27.2668121" lon="151.2895218">
  <ele>441.16</ele>
  <time>2026-09-01T19:52:31Z</time>
  <course>175.81</course>
  <speed>21.638948680562095</speed>
  <fix>3d</fix>
</trkpt>
<trkpt lat="-27.2667571" lon="151.2895165">
  <ele>441.6</ele>
  <time>2026-09-01T19:52:31Z</time>
  <course>174.86</course>
  <speed>21.75</speed>
  <fix>3d</fix>
</trkpt>
<trkpt lat="-27.2668312" lon="151.2895238">
  <ele>441.05</ele>
  <time>2026-09-01T19:52:31Z</time>
  <course>175.74</course>
  <speed>21.619030968107705</speed>
  <fix>3d</fix>
</trkpt>
<trkpt lat="-27.266796" lon="151.2895204">
  <ele>441.39</ele>
  <time>2026-09-01T19:52:31Z</time>
  <course>174.8</course>
  <speed>21.69</speed>
  <fix>3d</fix>
</trkpt>
<trkpt lat="-27.2668503" lon="151.2895258">
  <ele>440.95</ele>
  <time>2026-09-01T19:52:31Z</time>
  <course>175.71</course>
  <speed>21.58010657990363</speed>
  <fix>3d</fix>
</trkpt>
<trkpt lat="-27.266796" lon="151.2895204">
  <ele>441.39</ele>
  <time>2026-09-01T19:52:31Z</time>
  <course>174.8</course>
  <speed>21.69</speed>
  <fix>3d</fix>
</trkpt>
<trkpt lat="-27.2668695" lon="151.2895278">
  <ele>440.84</ele>
  <time>2026-09-01T19:52:31Z</time>
  <course>175.69</course>
  <speed>21.539361643279964</speed>
  <fix>3d</fix>
</trkpt>
<trkpt lat="-27.2668347" lon="151.2895244">
  <ele>441.18</ele>
  <time>2026-09-01T19:52:31Z</time>
  <course>174.77</course>
  <speed>21.64</speed>
  <fix>3d</fix>
</trkpt>
<trkpt lat="-27.2668885" lon="151.2895297">
  <ele>440.73</ele>
  <time>2026-09-01T19:52:31Z</time>
  <course>175.7</course>
  <speed>21.51944469543766</speed>
  <fix>3d</fix>
</trkpt>
<trkpt lat="-27.2668347" lon="151.2895244">
  <ele>441.18</ele>
  <time>2026-09-01T19:52:31Z</time>
  <course>174.77</course>
  <speed>21.64</speed>
  <fix>3d</fix>
</trkpt>
<trkpt lat="-27.2669077" lon="151.2895317">
  <ele>440.62</ele>
  <time>2026-09-01T19:52:31Z</time>
  <course>175.7</course>
  <speed>21.478701078044732</speed>
  <fix>3d</fix>
</trkpt>
<trkpt lat="-27.2668735" lon="151.2895284">
  <ele>440.96</ele>
  <time>2026-09-01T19:52:31Z</time>
  <course>174.77</course>
  <speed>21.6</speed>
  <fix>3d</fix>
</trkpt>
<trkpt lat="-27.2669268" lon="151.2895337">
  <ele>440.5</ele>
  <time>2026-09-01T19:52:31Z</time>
  <course>175.71</course>
  <speed>21.44791831390636</speed>
  <fix>3d</fix>
</trkpt>
<trkpt lat="-27.2668735" lon="151.2895284">
  <ele>440.96</ele>
  <time>2026-09-01T19:52:31Z</time>
  <course>174.77</course>
  <speed>21.6</speed>
  <fix>3d</fix>
</trkpt>
<trkpt lat="-27.2669458" lon="151.2895356">
  <ele>440.38</ele>
  <time>2026-09-01T19:52:32Z</time>
  <course>175.73</course>
  <speed>21.41713799740759</speed>
  <fix>3d</fix>
</trkpt>
<trkpt lat="-27.2669122" lon="151.2895323">
  <ele>440.73</ele>
  <time>2026-09-01T19:52:32Z</time>
  <course>174.8</course>
  <speed>21.55</speed>
  <fix>3d</fix>
</trkpt>
<trkpt lat="-27.2669654" lon="151.2895376">
  <ele>440.26</ele>
  <time>2026-09-01T19:52:32Z</time>
  <course>175.76</course>
  <speed>21.38636013911671</speed>
  <fix>3d</fix>
</trkpt>
<trkpt lat="-27.2669122" lon="151.2895323">
  <ele>440.73</ele>
  <time>2026-09-01T19:52:32Z</time>
  <course>174.8</course>
  <speed>21.55</speed>
  <fix>3d</fix>
</trkpt>
<trkpt lat="-27.2669843" lon="151.2895395">
  <ele>440.14</ele>
  <time>2026-09-01T19:52:32Z</time>
  <course>175.8</course>
  <speed>21.35469269270808</speed>
  <fix>3d</fix>
</trkpt>
<trkpt lat="-27.2669507" lon="151.2895363">
  <ele>440.5</ele>
  <time>2026-09-01T19:52:32Z</time>
  <course>174.85</course>
  <speed>21.51</speed>
  <fix>3d</fix>
</trkpt>
<trkpt lat="-27.2670033" lon="151.2895414">
  <ele>440.02</ele>
  <time>2026-09-01T19:52:32Z</time>
  <course>175.81</course>
  <speed>21.323923185005146</speed>
  <fix>3d</fix>
</trkpt>
<trkpt lat="-27.2669507" lon="151.2895363">
  <ele>440.5</ele>
  <time>2026-09-01T19:52:32Z</time>
  <course>174.85</course>
  <speed>21.51</speed>
  <fix>3d</fix>
</trkpt>
<trkpt lat="-27.2670224" lon="151.2895433">
  <ele>439.9</ele>
  <time>2026-09-01T19:52:32Z</time>
  <course>175.83</course>
  <speed>21.302236971736093</speed>
  <fix>3d</fix>
</trkpt>
<trkpt lat="-27.2669891" lon="151.2895402">
  <ele>440.26</ele>
  <time>2026-09-01T19:52:32Z</time>
  <course>174.92</course>
  <speed>21.46</speed>
  <fix>3d</fix>
</trkpt>
<trkpt lat="-27.2670415" lon="151.2895452">
  <ele>439.77</ele>
  <time>2026-09-01T19:52:32Z</time>
  <course>175.85</course>
  <speed>21.281437921343567</speed>
  <fix>3d</fix>
</trkpt>
<trkpt lat="-27.2669891" lon="151.2895402">
  <ele>440.26</ele>
  <time>2026-09-01T19:52:32Z</time>
  <course>174.92</course>
  <speed>21.46</speed>
  <fix>3d</fix>
</trkpt>
<trkpt lat="-27.2670606" lon="151.2895471">
  <ele>439.65</ele>
  <time>2026-09-01T19:52:32Z</time>
  <course>175.89</course>
  <speed>21.259774222695782</speed>
  <fix>3d</fix>
</trkpt>
<trkpt lat="-27.2670275" lon="151.289544">
  <ele>440.01</ele>
  <time>2026-09-01T19:52:32Z</time>
  <course>175.0</course>
  <speed>21.42</speed>
  <fix>3d</fix>
</trkpt>
<trkpt lat="-27.2670799" lon="151.289549">
  <ele>439.52</ele>
  <time>2026-09-01T19:52:32Z</time>
  <course>175.95</course>
  <speed>21.23898538066261</speed>
  <fix>3d</fix>
</trkpt>
<trkpt lat="-27.2670275" lon="151.289544">
  <ele>440.01</ele>
  <time>2026-09-01T19:52:32Z</time>
  <course>175.0</course>
  <speed>21.42</speed>
  <fix>3d</fix>
</trkpt>
<trkpt lat="-27.267099" lon="151.2895508">
  <ele>439.39</ele>
  <time>2026-09-01T19:52:32Z</time>
  <course>176.0</course>
  <speed>21.21734432015468</speed>
  <fix>3d</fix>
</trkpt>
<trkpt lat="-27.2670658" lon="151.2895477">
  <ele>439.76</ele>
  <time>2026-09-01T19:52:32Z</time>
  <course>175.08</course>
  <speed>21.37</speed>
  <fix>3d</fix>
</trkpt>
<trkpt lat="-27.2671181" lon="151.2895527">
  <ele>439.25</ele>
  <time>2026-09-01T19:52:32Z</time>
  <course>176.03</course>
  <speed>21.20652965480208</speed>
  <fix>3d</fix>
</trkpt>
<trkpt lat="-27.2670658" lon="151.2895477">
  <ele>439.76</ele>
  <time>2026-09-01T19:52:32Z</time>
  <course>175.08</course>
  <speed>21.37</speed>
  <fix>3d</fix>
</trkpt>
<trkpt lat="-27.2671372" lon="151.2895545">
  <ele>439.12</ele>
  <time>2026-09-01T19:52:32Z</time>
  <course>176.06</course>
  <speed>21.18575464787601</speed>
  <fix>3d</fix>
</trkpt>
<trkpt lat="-27.267104" lon="151.2895514">
  <ele>439.51</ele>
  <time>2026-09-01T19:52:32Z</time>
  <course>175.16</course>
  <speed>21.33</speed>
  <fix>3d</fix>
</trkpt>
<trkpt lat="-27.2671563" lon="151.2895563">
  <ele>438.99</ele>
  <time>2026-09-01T19:52:32Z</time>
  <course>176.11</course>
  <speed>21.15417925611864</speed>
  <fix>3d</fix>
</trkpt>
<trkpt lat="-27.267104" lon="151.2895514">
  <ele>439.51</ele>
  <time>2026-09-01T19:52:32Z</time>
  <course>175.16</course>
  <speed>21.33</speed>
  <fix>3d</fix>
</trkpt>
<trkpt lat="-27.2671754" lon="151.2895581">
  <ele>438.86</ele>
  <time>2026-09-01T19:52:32Z</time>
  <course>176.13</course>
  <speed>21.133414300580963</speed>
  <fix>3d</fix>
</trkpt>
<trkpt lat="-27.2671421" lon="151.289555">
  <ele>439.26</ele>
  <time>2026-09-01T19:52:32Z</time>
  <course>175.23</course>
  <speed>21.28</speed>
  <fix>3d</fix>
</trkpt>
<trkpt lat="-27.2671945" lon="151.2895599">
  <ele>438.73</ele>
  <time>2026-09-01T19:52:32Z</time>
  <course>176.15</course>
  <speed>21.111826069764785</speed>
  <fix>3d</fix>
</trkpt>
<trkpt lat="-27.2671421" lon="151.289555">
  <ele>439.26</ele>
  <time>2026-09-01T19:52:32Z</time>
  <course>175.23</course>
  <speed>21.28</speed>
  <fix>3d</fix>
</trkpt>
<trkpt lat="-27.267213" lon="151.2895616">
  <ele>438.6</ele>
  <time>2026-09-01T19:52:32Z</time>
  <course>176.18</course>
  <speed>21.101037889165546</speed>
  <fix>3d</fix>
</trkpt>
<trkpt lat="-27.2671802" lon="151.2895585">
  <ele>439.0</ele>
  <time>2026-09-01T19:52:32Z</time>
  <course>175.3</course>
  <speed>21.23</speed>
  <fix>3d</fix>
</trkpt>
<trkpt lat="-27.2672319" lon="151.2895633">
  <ele>438.47</ele>
  <time>2026-09-01T19:52:32Z</time>
  <course>176.22</course>
  <speed>21.069506401432378</speed>
  <fix>3d</fix>
</trkpt>
<trkpt lat="-27.2671802" lon="151.2895585">
  <ele>439.0</ele>
  <time>2026-09-01T19:52:32Z</time>
  <course>175.3</course>
  <speed>21.23</speed>
  <fix>3d</fix>
</trkpt>
<trkpt lat="-27.2672509" lon="151.289565">
  <ele>438.33</ele>
  <time>2026-09-01T19:52:32Z</time>
  <course>176.26</course>
  <speed>21.05872978125699</speed>
  <fix>3d</fix>
</trkpt>
<trkpt lat="-27.2672181" lon="151.289562">
  <ele>438.74</ele>
  <time>2026-09-01T19:52:32Z</time>
  <course>175.38</course>
  <speed>21.18</speed>
  <fix>3d</fix>
</trkpt>
<trkpt lat="-27.2672699" lon="151.2895667">
  <ele>438.2</ele>
  <time>2026-09-01T19:52:32Z</time>
  <course>176.3</course>
  <speed>21.03718850036763</speed>
  <fix>3d</fix>
</trkpt>
<trkpt lat="-27.2672181" lon="151.289562">
  <ele>438.74</ele>
  <time>2026-09-01T19:52:32Z</time>
  <course>175.38</course>
  <speed>21.18</speed>
  <fix>3d</fix>
</trkpt>
<trkpt lat="-27.2672889" lon="151.2895684">
  <ele>438.06</ele>
  <time>2026-09-01T19:52:32Z</time>
  <course>176.34</course>
  <speed>21.01566320628497</speed>
  <fix>3d</fix>
</trkpt>
<trkpt lat="-27.267256" lon="151.2895654">
  <ele>438.47</ele>
  <time>2026-09-01T19:52:32Z</time>
  <course>175.46</course>
  <speed>21.13</speed>
  <fix>3d</fix>
</trkpt>
<trkpt lat="-27.267308" lon="151.2895701">
  <ele>437.92</ele>
  <time>2026-09-01T19:52:32Z</time>
  <course>176.39</course>
  <speed>20.994937485022433</speed>
  <fix>3d</fix>
</trkpt>
<trkpt lat="-27.267256" lon="151.2895654">
  <ele>438.47</ele>
  <time>2026-09-01T19:52:32Z</time>
  <course>175.46</course>
  <speed>21.13</speed>
  <fix>3d</fix>
</trkpt>
<trkpt lat="-27.2673269" lon="151.2895717">
  <ele>437.78</ele>
  <time>2026-09-01T19:52:32Z</time>
  <course>176.43</course>
  <speed>20.973435579322718</speed>
  <fix>3d</fix>
</trkpt>
<trkpt lat="-27.2672938" lon="151.2895687">
  <ele>438.21</ele>
  <time>2026-09-01T19:52:32Z</time>
  <course>175.53</course>
  <speed>21.08</speed>
  <fix>3d</fix>
</trkpt>
<trkpt lat="-27.2673458" lon="151.2895734">
  <ele>437.65</ele>
  <time>2026-09-01T19:52:32Z</time>
  <course>176.45</course>
  <speed>20.95194978993602</speed>
  <fix>3d</fix>
</trkpt>
<trkpt lat="-27.2672938" lon="151.2895687">
  <ele>438.21</ele>
  <time>2026-09-01T19:52:32Z</time>
  <course>175.53</course>
  <speed>21.08</speed>
  <fix>3d</fix>
</trkpt>
<trkpt lat="-27.2673653" lon="151.289575">
  <ele>437.5</ele>
  <time>2026-09-01T19:52:32Z</time>
  <course>176.47</course>
  <speed>20.931242199162476</speed>
  <fix>3d</fix>
</trkpt>
<trkpt lat="-27.2673316" lon="151.289572">
  <ele>437.94</ele>
  <time>2026-09-01T19:52:32Z</time>
  <course>175.61</course>
  <speed>21.02</speed>
  <fix>3d</fix>
</trkpt>
<trkpt lat="-27.267384" lon="151.2895766">
  <ele>437.36</ele>
  <time>2026-09-01T19:52:32Z</time>
  <course>176.52</course>
  <speed>20.909780008407548</speed>
  <fix>3d</fix>
</trkpt>
<trkpt lat="-27.2673316" lon="151.289572">
  <ele>437.94</ele>
  <time>2026-09-01T19:52:32Z</time>
  <course>175.61</course>
  <speed>21.02</speed>
  <fix>3d</fix>
</trkpt>
<trkpt lat="-27.2674029" lon="151.2895782">
  <ele>437.22</ele>
  <time>2026-09-01T19:52:32Z</time>
  <course>176.56</course>
  <speed>20.88908327332724</speed>
  <fix>3d</fix>
</trkpt>
<trkpt lat="-27.2673693" lon="151.2895753">
  <ele>437.66</ele>
  <time>2026-09-01T19:52:32Z</time>
  <course>175.68</course>
  <speed>20.97</speed>
  <fix>3d</fix>
</trkpt>
<trkpt lat="-27.2674217" lon="151.2895798">
  <ele>437.08</ele>
  <time>2026-09-01T19:52:32Z</time>
  <course>176.58</course>
  <speed>20.868389971437665</speed>
  <fix>3d</fix>
</trkpt>
<trkpt lat="-27.2673693" lon="151.2895753">
  <ele>437.66</ele>
  <time>2026-09-01T19:52:32Z</time>
  <course>175.68</course>
  <speed>20.97</speed>
  <fix>3d</fix>
</trkpt>
<trkpt lat="-27.2674405" lon="151.2895813">
  <ele>436.94</ele>
  <time>2026-09-01T19:52:32Z</time>
  <course>176.62</course>
  <speed>20.846959010848558</speed>
  <fix>3d</fix>
</trkpt>
<trkpt lat="-27.2674067" lon="151.2895784">
  <ele>437.39</ele>
  <time>2026-09-01T19:52:32Z</time>
  <course>175.75</course>
  <speed>20.92</speed>
  <fix>3d</fix>
</trkpt>
<trkpt lat="-27.2674594" lon="151.2895829">
  <ele>436.79</ele>
  <time>2026-09-01T19:52:32Z</time>
  <course>176.63</course>
  <speed>20.81630370647008</speed>
  <fix>3d</fix>
</trkpt>
<trkpt lat="-27.2674067" lon="151.2895784">
  <ele>437.39</ele>
  <time>2026-09-01T19:52:32Z</time>
  <course>175.75</course>
  <speed>20.92</speed>
  <fix>3d</fix>
</trkpt>
<trkpt lat="-27.2674781" lon="151.2895844">
  <ele>436.65</ele>
  <time>2026-09-01T19:52:32Z</time>
  <course>176.64</course>
  <speed>20.79562453979202</speed>
  <fix>3d</fix>
</trkpt>
<trkpt lat="-27.2674442" lon="151.2895815">
  <ele>437.11</ele>
  <time>2026-09-01T19:52:32Z</time>
  <course>175.8</course>
  <speed>20.87</speed>
  <fix>3d</fix>
</trkpt>
<trkpt lat="-27.2674968" lon="151.289586">
  <ele>436.5</ele>
  <time>2026-09-01T19:52:32Z</time>
  <course>176.65</course>
  <speed>20.764975319031805</speed>
  <fix>3d</fix>
</trkpt>
<trkpt lat="-27.2674442" lon="151.2895815">
  <ele>437.11</ele>
  <time>2026-09-01T19:52:32Z</time>
  <course>175.8</course>
  <speed>20.87</speed>
  <fix>3d</fix>
</trkpt>
<trkpt lat="-27.2675154" lon="151.2895875">
  <ele>436.36</ele>
  <time>2026-09-01T19:52:32Z</time>
  <course>176.67</course>
  <speed>20.7350548588616</speed>
  <fix>3d</fix>
</trkpt>
<trkpt lat="-27.2674815" lon="151.2895845">
  <ele>436.83</ele>
  <time>2026-09-01T19:52:32Z</time>
  <course>175.84</course>
  <speed>20.81</speed>
  <fix>3d</fix>
</trkpt>
<trkpt lat="-27.267534" lon="151.289589">
  <ele>436.21</ele>
  <time>2026-09-01T19:52:32Z</time>
  <course>176.71</course>
  <speed>20.70440774328017</speed>
  <fix>3d</fix>
</trkpt>
<trkpt lat="-27.2674815" lon="151.2895845">
  <ele>436.83</ele>
  <time>2026-09-01T19:52:32Z</time>
  <course>175.84</course>
  <speed>20.81</speed>
  <fix>3d</fix>
</trkpt>
<trkpt lat="-27.2675526" lon="151.2895904">
  <ele>436.06</ele>
  <time>2026-09-01T19:52:32Z</time>
  <course>176.76</course>
  <speed>20.68373757327239</speed>
  <fix>3d</fix>
</trkpt>
<trkpt lat="-27.2675188" lon="151.2895876">
  <ele>436.54</ele>
  <time>2026-09-01T19:52:32Z</time>
  <course>175.87</course>
  <speed>20.75</speed>
  <fix>3d</fix>
</trkpt>
<trkpt lat="-27.2675711" lon="151.2895919">
  <ele>435.91</ele>
  <time>2026-09-01T19:52:32Z</time>
  <course>176.78</course>
  <speed>20.653096620119705</speed>
  <fix>3d</fix>
</trkpt>
<trkpt lat="-27.2675188" lon="151.2895876">
  <ele>436.54</ele>
  <time>2026-09-01T19:52:32Z</time>
  <course>175.87</course>
  <speed>20.75</speed>
  <fix>3d</fix>
</trkpt>
<trkpt lat="-27.2675897" lon="151.2895934">
  <ele>435.76</ele>
  <time>2026-09-01T19:52:32Z</time>
  <course>176.81</course>
  <speed>20.632433205998755</speed>
  <fix>3d</fix>
</trkpt>
<trkpt lat="-27.2675559" lon="151.2895906">
  <ele>436.25</ele>
  <time>2026-09-01T19:52:32Z</time>
  <course>175.91</course>
  <speed>20.7</speed>
  <fix>3d</fix>
</trkpt>
<trkpt lat="-27.2676083" lon="151.2895949">
  <ele>435.6</ele>
  <time>2026-09-01T19:52:32Z</time>
  <course>176.81</course>
  <speed>20.61177333467453</speed>
  <fix>3d</fix>
</trkpt>
<trkpt lat="-27.2675559" lon="151.2895906">
  <ele>436.25</ele>
  <time>2026-09-01T19:52:32Z</time>
  <course>175.91</course>
  <speed>20.7</speed>
  <fix>3d</fix>
</trkpt>
<trkpt lat="-27.2676268" lon="151.2895964">
  <ele>435.45</ele>
  <time>2026-09-01T19:52:32Z</time>
  <course>176.79</course>
  <speed>20.591117016810912</speed>
  <fix>3d</fix>
</trkpt>
<trkpt lat="-27.267593" lon="151.2895936">
  <ele>435.94</ele>
  <time>2026-09-01T19:52:32Z</time>
  <course>175.94</course>
  <speed>20.64</speed>
  <fix>3d</fix>
</trkpt>
<trkpt lat="-27.2676454" lon="151.2895978">
  <ele>435.29</ele>
  <time>2026-09-01T19:52:32Z</time>
  <course>176.78</course>
  <speed>20.560488807418952</speed>
  <fix>3d</fix>
</trkpt>
<trkpt lat="-27.267593" lon="151.2895936">
  <ele>435.94</ele>
  <time>2026-09-01T19:52:32Z</time>
  <course>175.94</course>
  <speed>20.64</speed>
  <fix>3d</fix>
</trkpt>
<trkpt lat="-27.2676639" lon="151.2895993">
  <ele>435.14</ele>
  <time>2026-09-01T19:52:32Z</time>
  <course>176.79</course>
  <speed>20.53056258362152</speed>
  <fix>3d</fix>
</trkpt>
<trkpt lat="-27.2676299" lon="151.2895965">
  <ele>435.64</ele>
  <time>2026-09-01T19:52:32Z</time>
  <course>175.97</course>
  <speed>20.59</speed>
  <fix>3d</fix>
</trkpt>
<trkpt lat="-27.2676823" lon="151.2896007">
  <ele>434.99</ele>
  <time>2026-09-01T19:52:32Z</time>
  <course>176.81</course>
  <speed>20.50991223774495</speed>
  <fix>3d</fix>
</trkpt>
<trkpt lat="-27.2676299" lon="151.2895965">
  <ele>435.64</ele>
  <time>2026-09-01T19:52:32Z</time>
  <course>175.97</course>
  <speed>20.59</speed>
  <fix>3d</fix>
</trkpt>
<trkpt lat="-27.2677008" lon="151.2896021">
  <ele>434.83</ele>
  <time>2026-09-01T19:52:32Z</time>
  <course>176.83</course>
  <speed>20.489265482198235</speed>
  <fix>3d</fix>
</trkpt>
<trkpt lat="-27.2676668" lon="151.2895994">
  <ele>435.33</ele>
  <time>2026-09-01T19:52:32Z</time>
  <course>175.99</course>
  <speed>20.53</speed>
  <fix>3d</fix>
</trkpt>
<trkpt lat="-27.2677192" lon="151.2896036">
  <ele>434.67</ele>
  <time>2026-09-01T19:52:32Z</time>
  <course>176.84</course>
  <speed>20.45933772144152</speed>
  <fix>3d</fix>
</trkpt>
<trkpt lat="-27.2676668" lon="151.2895994">
  <ele>435.33</ele>
  <time>2026-09-01T19:52:32Z</time>
  <course>175.99</course>
  <speed>20.53</speed>
  <fix>3d</fix>
</trkpt>
<trkpt lat="-27.2677372" lon="151.289605">
  <ele>434.51</ele>
  <time>2026-09-01T19:52:32Z</time>
  <course>176.84</course>
  <speed>20.43869369602666</speed>
  <fix>3d</fix>
</trkpt>
<trkpt lat="-27.2677036" lon="151.2896023">
  <ele>435.02</ele>
  <time>2026-09-01T19:52:32Z</time>
  <course>176.01</course>
  <speed>20.48</speed>
  <fix>3d</fix>
</trkpt>
<trkpt lat="-27.2677561" lon="151.2896064">
  <ele>434.35</ele>
  <time>2026-09-01T19:52:32Z</time>
  <course>176.87</course>
  <speed>20.41805328624646</speed>
  <fix>3d</fix>
</trkpt>
<trkpt lat="-27.2677036" lon="151.2896023">
  <ele>435.02</ele>
  <time>2026-09-01T19:52:32Z</time>
  <course>176.01</course>
  <speed>20.48</speed>
  <fix>3d</fix>
</trkpt>
<trkpt lat="-27.2677742" lon="151.2896078">
  <ele>434.19</ele>
  <time>2026-09-01T19:52:32Z</time>
  <course>176.9</course>
  <speed>20.398100401753098</speed>
  <fix>3d</fix>
</trkpt>
<trkpt lat="-27.2677403" lon="151.2896051">
  <ele>434.7</ele>
  <time>2026-09-01T19:52:32Z</time>
  <course>176.03</course>
  <speed>20.42</speed>
  <fix>3d</fix>
</trkpt>
<trkpt lat="-27.2677925" lon="151.2896092">
  <ele>434.02</ele>
  <time>2026-09-01T19:52:32Z</time>
  <course>176.93</course>
  <speed>20.36748634466217</speed>
  <fix>3d</fix>
</trkpt>
<trkpt lat="-27.2677403" lon="151.2896051">
  <ele>434.7</ele>
  <time>2026-09-01T19:52:32Z</time>
  <course>176.03</course>
  <speed>20.42</speed>
  <fix>3d</fix>
</trkpt>
<trkpt lat="-27.2678108" lon="151.2896106">
  <ele>433.86</ele>
  <time>2026-09-01T19:52:32Z</time>
  <course>176.95</course>
  <speed>20.336875374550537</speed>
  <fix>3d</fix>
</trkpt>
<trkpt lat="-27.2677768" lon="151.289608">
  <ele>434.38</ele>
  <time>2026-09-01T19:52:32Z</time>
  <course>176.05</course>
  <speed>20.38</speed>
  <fix>3d</fix>
</trkpt>
<trkpt lat="-27.267829" lon="151.289612">
  <ele>433.7</ele>
  <time>2026-09-01T19:52:32Z</time>
  <course>176.96</course>
  <speed>20.326221980486192</speed>
  <fix>3d</fix>
</trkpt>
<trkpt lat="-27.2677768" lon="151.289608">
  <ele>434.38</ele>
  <time>2026-09-01T19:52:32Z</time>
  <course>176.05</course>
  <speed>20.38</speed>
  <fix>3d</fix>
</trkpt>
<trkpt lat="-27.2678474" lon="151.2896134">
  <ele>433.53</ele>
  <time>2026-09-01T19:52:32Z</time>
  <course>176.95</course>
  <speed>20.306267505378727</speed>
  <fix>3d</fix>
</trkpt>
<trkpt lat="-27.2678133" lon="151.2896108">
  <ele>434.05</ele>
  <time>2026-09-01T19:52:32Z</time>
  <course>176.07</course>
  <speed>20.33</speed>
  <fix>3d</fix>
</trkpt>
<trkpt lat="-27.2678657" lon="151.2896148">
  <ele>433.37</ele>
  <time>2026-09-01T19:52:32Z</time>
  <course>176.93</course>
  <speed>20.275662751190158</speed>
  <fix>3d</fix>
</trkpt>
<trkpt lat="-27.2678133" lon="151.2896108">
  <ele>434.05</ele>
  <time>2026-09-01T19:52:32Z</time>
  <course>176.07</course>
  <speed>20.33</speed>
  <fix>3d</fix>
</trkpt>
<trkpt lat="-27.2678839" lon="151.2896162">
  <ele>433.2</ele>
  <time>2026-09-01T19:52:32Z</time>
  <course>176.93</course>
  <speed>20.265685283256524</speed>
  <fix>3d</fix>
</trkpt>
<trkpt lat="-27.2678497" lon="151.2896137">
  <ele>433.72</ele>
  <time>2026-09-01T19:52:32Z</time>
  <course>176.09</course>
  <speed>20.28</speed>
  <fix>3d</fix>
</trkpt>
<trkpt lat="-27.2679021" lon="151.2896176">
  <ele>433.03</ele>
  <time>2026-09-01T19:52:32Z</time>
  <course>176.94</course>
  <speed>20.24506112611172</speed>
  <fix>3d</fix>
</trkpt>
<trkpt lat="-27.2678497" lon="151.2896137">
  <ele>433.72</ele>
  <time>2026-09-01T19:52:32Z</time>
  <course>176.09</course>
  <speed>20.28</speed>
  <fix>3d</fix>
</trkpt>
<trkpt lat="-27.2679203" lon="151.2896189">
  <ele>432.86</ele>
  <time>2026-09-01T19:52:32Z</time>
  <course>176.94</course>
  <speed>20.225105685756006</speed>
  <fix>3d</fix>
</trkpt>
<trkpt lat="-27.267886" lon="151.2896164">
  <ele>433.39</ele>
  <time>2026-09-01T19:52:32Z</time>
  <course>176.09</course>
  <speed>20.24</speed>
  <fix>3d</fix>
</trkpt>
<trkpt lat="-27.2679385" lon="151.2896203">
  <ele>432.69</ele>
  <time>2026-09-01T19:52:32Z</time>
  <course>176.95</course>
  <speed>20.20515033351645</speed>
  <fix>3d</fix>
</trkpt>
<trkpt lat="-27.267886" lon="151.2896164">
  <ele>433.39</ele>
  <time>2026-09-01T19:52:32Z</time>
  <course>176.09</course>
  <speed>20.24</speed>
  <fix>3d</fix>
</trkpt>
<trkpt lat="-27.2679566" lon="151.2896217">
  <ele>432.51</ele>
  <time>2026-09-01T19:52:32Z</time>
  <course>176.97</course>
  <speed>20.184528728707043</speed>
  <fix>3d</fix>
</trkpt>
<trkpt lat="-27.2679223" lon="151.2896192">
  <ele>433.06</ele>
  <time>2026-09-01T19:52:32Z</time>
  <course>176.09</course>
  <speed>20.2</speed>
  <fix>3d</fix>
</trkpt>
<trkpt lat="-27.2679747" lon="151.2896231">
  <ele>432.34</ele>
  <time>2026-09-01T19:52:32Z</time>
  <course>177.0</course>
  <speed>20.16457289406349</speed>
  <fix>3d</fix>
</trkpt>
<trkpt lat="-27.2679223" lon="151.2896192">
  <ele>433.06</ele>
  <time>2026-09-01T19:52:32Z</time>
  <course>176.09</course>
  <speed>20.2</speed>
  <fix>3d</fix>
</trkpt>
<trkpt lat="-27.2679928" lon="151.2896244">
  <ele>432.17</ele>
  <time>2026-09-01T19:52:32Z</time>
  <course>176.98</course>
  <speed>20.144617147019698</speed>
  <fix>3d</fix>
</trkpt>
<trkpt lat="-27.2679584" lon="151.289622">
  <ele>432.72</ele>
  <time>2026-09-01T19:52:32Z</time>
  <course>176.09</course>
  <speed>20.16</speed>
  <fix>3d</fix>
</trkpt>
<trkpt lat="-27.2680109" lon="151.2896258">
  <ele>432.0</ele>
  <time>2026-09-01T19:52:32Z</time>
  <course>176.96</course>
  <speed>20.123998111707326</speed>
  <fix>3d</fix>
</trkpt>
<trkpt lat="-27.2679584" lon="151.289622">
  <ele>432.72</ele>
  <time>2026-09-01T19:52:32Z</time>
  <course>176.09</course>
  <speed>20.16</speed>
  <fix>3d</fix>
</trkpt>
<trkpt lat="-27.2680289" lon="151.2896272">
  <ele>431.83</ele>
  <time>2026-09-01T19:52:32Z</time>
  <course>176.96</course>
  <speed>20.10404188216887</speed>
  <fix>3d</fix>
</trkpt>
<trkpt lat="-27.2679945" lon="151.2896247">
  <ele>432.38</ele>
  <time>2026-09-01T19:52:32Z</time>
  <course>176.09</course>
  <speed>20.11</speed>
  <fix>3d</fix>
</trkpt>
<trkpt lat="-27.2680469" lon="151.2896285">
  <ele>431.65</ele>
  <time>2026-09-01T19:52:32Z</time>
  <course>176.96</course>
  <speed>20.074107701215514</speed>
  <fix>3d</fix>
</trkpt>
<trkpt lat="-27.2679945" lon="151.2896247">
  <ele>432.38</ele>
  <time>2026-09-01T19:52:32Z</time>
  <course>176.09</course>
  <speed>20.11</speed>
  <fix>3d</fix>
</trkpt>
<trkpt lat="-27.2680648" lon="151.2896299">
  <ele>431.48</ele>
  <time>2026-09-01T19:52:32Z</time>
  <course>176.95</course>
  <speed>20.054151689862127</speed>
  <fix>3d</fix>
</trkpt>
<trkpt lat="-27.2680305" lon="151.2896275">
  <ele>432.03</ele>
  <time>2026-09-01T19:52:32Z</time>
  <course>176.09</course>
  <speed>20.07</speed>
  <fix>3d</fix>
</trkpt>
<trkpt lat="-27.2680826" lon="151.2896312">
  <ele>431.31</ele>
  <time>2026-09-01T19:52:32Z</time>
  <course>176.96</course>
  <speed>20.023556127721168</speed>
  <fix>3d</fix>
</trkpt>
<trkpt lat="-27.2680305" lon="151.2896275">
  <ele>432.03</ele>
  <time>2026-09-01T19:52:32Z</time>
  <course>176.09</course>
  <speed>20.07</speed>
  <fix>3d</fix>
</trkpt>
<trkpt lat="-27.2681004" lon="151.2896326">
  <ele>431.13</ele>
  <time>2026-09-01T19:52:32Z</time>
  <course>176.97</course>
  <speed>20.003599676058307</speed>
  <fix>3d</fix>
</trkpt>
<trkpt lat="-27.2680666" lon="151.2896303">
  <ele>431.69</ele>
  <time>2026-09-01T19:52:32Z</time>
  <course>176.08</course>
  <speed>20.03</speed>
  <fix>3d</fix>
</trkpt>
<trkpt lat="-27.2681181" lon="151.2896339">
  <ele>430.96</ele>
  <time>2026-09-01T19:52:32Z</time>
  <course>176.98</course>
  <speed>19.963687034212896</speed>
  <fix>3d</fix>
</trkpt>
<trkpt lat="-27.2680666" lon="151.2896303">
  <ele>431.69</ele>
  <time>2026-09-01T19:52:32Z</time>
  <course>176.08</course>
  <speed>20.03</speed>
  <fix>3d</fix>
</trkpt>
<trkpt lat="-27.2681358" lon="151.2896353">
  <ele>430.79</ele>
  <time>2026-09-01T19:52:32Z</time>
  <course>176.99</course>
  <speed>19.943730844553635</speed>
  <fix>3d</fix>
</trkpt>
<trkpt lat="-27.2681025" lon="151.2896331">
  <ele>431.34</ele>
  <time>2026-09-01T19:52:32Z</time>
  <course>176.07</course>
  <speed>19.99</speed>
  <fix>3d</fix>
</trkpt>
<trkpt lat="-27.2681535" lon="151.2896366">
  <ele>430.61</ele>
  <time>2026-09-01T19:52:32Z</time>
  <course>176.98</course>
  <speed>19.903158040873816</speed>
  <fix>3d</fix>
</trkpt>
<trkpt lat="-27.2681025" lon="151.2896331">
  <ele>431.34</ele>
  <time>2026-09-01T19:52:32Z</time>
  <course>176.07</course>
  <speed>19.99</speed>
  <fix>3d</fix>
</trkpt>
<trkpt lat="-27.2681711" lon="151.289638">
  <ele>430.44</ele>
  <time>2026-09-01T19:52:32Z</time>
  <course>176.94</course>
  <speed>19.863244951417176</speed>
  <fix>3d</fix>
</trkpt>
<trkpt lat="-27.2681382" lon="151.2896358">
  <ele>431.01</ele>
  <time>2026-09-01T19:52:32Z</time>
  <course>176.07</course>
  <speed>19.95</speed>
  <fix>3d</fix>
</trkpt>
<trkpt lat="-27.2681887" lon="151.2896393">
  <ele>430.27</ele>
  <time>2026-09-01T19:52:32Z</time>
  <course>176.91</course>
  <speed>19.843288537941486</speed>
  <fix>3d</fix>
</trkpt>
<trkpt lat="-27.2681382" lon="151.2896358">
  <ele>431.01</ele>
  <time>2026-09-01T19:52:32Z</time>
  <course>176.07</course>
  <speed>19.95</speed>
  <fix>3d</fix>
</trkpt>
<trkpt lat="-27.2682062" lon="151.2896407">
  <ele>430.1</ele>
  <time>2026-09-01T19:52:32Z</time>
  <course>176.92</course>
  <speed>19.80337597481803</speed>
  <fix>3d</fix>
</trkpt>
<trkpt lat="-27.2681739" lon="151.2896386">
  <ele>430.66</ele>
  <time>2026-09-01T19:52:32Z</time>
  <course>176.06</course>
  <speed>19.91</speed>
  <fix>3d</fix>
</trkpt>
<trkpt lat="-27.2682239" lon="151.289642">
  <ele>429.93</ele>
  <time>2026-09-01T19:52:32Z</time>
  <course>176.95</course>
  <speed>19.78341982570253</speed>
  <fix>3d</fix>
</trkpt>
<trkpt lat="-27.2681739" lon="151.2896386">
  <ele>430.66</ele>
  <time>2026-09-01T19:52:32Z</time>
  <course>176.06</course>
  <speed>19.91</speed>
  <fix>3d</fix>
</trkpt>
<trkpt lat="-27.2682416" lon="151.2896434">
  <ele>429.76</ele>
  <time>2026-09-01T19:52:32Z</time>
  <course>176.94</course>
  <speed>19.753485768339726</speed>
  <fix>3d</fix>
</trkpt>
<trkpt lat="-27.2682096" lon="151.2896413">
  <ele>430.32</ele>
  <time>2026-09-01T19:52:32Z</time>
  <course>176.05</course>
  <speed>19.86</speed>
  <fix>3d</fix>
</trkpt>
<trkpt lat="-27.2682592" lon="151.2896448">
  <ele>429.59</ele>
  <time>2026-09-01T19:52:32Z</time>
  <course>176.95</course>
  <speed>19.73352984136391</speed>
  <fix>3d</fix>
</trkpt>
<trkpt lat="-27.2682096" lon="151.2896413">
  <ele>430.32</ele>
  <time>2026-09-01T19:52:32Z</time>
  <course>176.05</course>
  <speed>19.86</speed>
  <fix>3d</fix>
</trkpt>
<trkpt lat="-27.268277" lon="151.2896461">
  <ele>429.42</ele>
  <time>2026-09-01T19:52:32Z</time>
  <course>176.96</course>
  <speed>19.713574003716325</speed>
  <fix>3d</fix>
</trkpt>
<trkpt lat="-27.2682451" lon="151.2896441">
  <ele>429.97</ele>
  <time>2026-09-01T19:52:32Z</time>
  <course>176.03</course>
  <speed>19.82</speed>
  <fix>3d</fix>
</trkpt>
<trkpt lat="-27.2682946" lon="151.2896475">
  <ele>429.25</ele>
  <time>2026-09-01T19:52:32Z</time>
  <course>176.95</course>
  <speed>19.69295559330798</speed>
  <fix>3d</fix>
</trkpt>
<trkpt lat="-27.2682451" lon="151.2896441">
  <ele>429.97</ele>
  <time>2026-09-01T19:52:32Z</time>
  <course>176.03</course>
  <speed>19.82</speed>
  <fix>3d</fix>
</trkpt>
<trkpt lat="-27.2683123" lon="151.2896489">
  <ele>429.07</ele>
  <time>2026-09-01T19:52:32Z</time>
  <course>176.95</course>
  <speed>19.672999262949205</speed>
  <fix>3d</fix>
</trkpt>
<trkpt lat="-27.2682806" lon="151.2896468">
  <ele>429.63</ele>
  <time>2026-09-01T19:52:32Z</time>
  <course>176.03</course>
  <speed>19.78</speed>
  <fix>3d</fix>
</trkpt>
<trkpt lat="-27.2683299" lon="151.2896502">
  <ele>428.9</ele>
  <time>2026-09-01T19:52:32Z</time>
  <course>176.96</course>
  <speed>19.643064933965878</speed>
  <fix>3d</fix>
</trkpt>
<trkpt lat="-27.2682806" lon="151.2896468">
  <ele>429.63</ele>
  <time>2026-09-01T19:52:32Z</time>
  <course>176.03</course>
  <speed>19.78</speed>
  <fix>3d</fix>
</trkpt>
<trkpt lat="-27.2683474" lon="151.2896516">
  <ele>428.73</ele>
  <time>2026-09-01T19:52:32Z</time>
  <course>176.94</course>
  <speed>19.622448878771475</speed>
  <fix>3d</fix>
</trkpt>
<trkpt lat="-27.2683161" lon="151.2896496">
  <ele>429.28</ele>
  <time>2026-09-01T19:52:32Z</time>
  <course>176.03</course>
  <speed>19.74</speed>
  <fix>3d</fix>
</trkpt>
<trkpt lat="-27.268365" lon="151.2896529">
  <ele>428.56</ele>
  <time>2026-09-01T19:52:32Z</time>
  <course>176.94</course>
  <speed>19.60249218849481</speed>
  <fix>3d</fix>
</trkpt>
<trkpt lat="-27.2683161" lon="151.2896496">
  <ele>429.28</ele>
  <time>2026-09-01T19:52:32Z</time>
  <course>176.03</course>
  <speed>19.74</speed>
  <fix>3d</fix>
</trkpt>
<trkpt lat="-27.2683825" lon="151.2896543">
  <ele>428.39</ele>
  <time>2026-09-01T19:52:32Z</time>
  <course>176.97</course>
  <speed>19.58253558658837</speed>
  <fix>3d</fix>
</trkpt>
<trkpt lat="-27.2683514" lon="151.2896524">
  <ele>428.94</ele>
  <time>2026-09-01T19:52:32Z</time>
  <course>176.03</course>
  <speed>19.7</speed>
  <fix>3d</fix>
</trkpt>
<trkpt lat="-27.2684" lon="151.2896556">
  <ele>428.22</ele>
  <time>2026-09-01T19:52:32Z</time>
  <course>176.96</course>
  <speed>19.581879378650047</speed>
  <fix>3d</fix>
</trkpt>
<trkpt lat="-27.2683514" lon="151.2896524">
  <ele>428.94</ele>
  <time>2026-09-01T19:52:32Z</time>
  <course>176.03</course>
  <speed>19.7</speed>
  <fix>3d</fix>
</trkpt>
<trkpt lat="-27.2684176" lon="151.289657">
  <ele>428.05</ele>
  <time>2026-09-01T19:52:32Z</time>
  <course>176.98</course>
  <speed>19.591858002752062</speed>
  <fix>3d</fix>
</trkpt>
<trkpt lat="-27.2683867" lon="151.2896551">
  <ele>428.59</ele>
  <time>2026-09-01T19:52:32Z</time>
  <course>176.04</course>
  <speed>19.68</speed>
  <fix>3d</fix>
</trkpt>
<trkpt lat="-27.2684351" lon="151.2896583">
  <ele>427.87</ele>
  <time>2026-09-01T19:52:32Z</time>
  <course>177.0</course>
  <speed>19.591858002752062</speed>
  <fix>3d</fix>
</trkpt>
<trkpt lat="-27.2683867" lon="151.2896551">
  <ele>428.59</ele>
  <time>2026-09-01T19:52:32Z</time>
  <course>176.04</course>
  <speed>19.68</speed>
  <fix>3d</fix>
</trkpt>
<trkpt lat="-27.2684528" lon="151.2896597">
  <ele>427.7</ele>
  <time>2026-09-01T19:52:32Z</time>
  <course>177.01</course>
  <speed>19.60183664864086</speed>
  <fix>3d</fix>
</trkpt>
<trkpt lat="-27.268422" lon="151.2896579">
  <ele>428.24</ele>
  <time>2026-09-01T19:52:32Z</time>
  <course>176.04</course>
  <speed>19.68</speed>
  <fix>3d</fix>
</trkpt>
<trkpt lat="-27.2684704" lon="151.289661">
  <ele>427.53</ele>
  <time>2026-09-01T19:52:32Z</time>
  <course>177.03</course>
  <speed>19.61181531628319</speed>
  <fix>3d</fix>
</trkpt>
<trkpt lat="-27.268422" lon="151.2896579">
  <ele>428.24</ele>
  <time>2026-09-01T19:52:32Z</time>
  <course>176.04</course>
  <speed>19.68</speed>
  <fix>3d</fix>
</trkpt>
<trkpt lat="-27.2684881" lon="151.2896624">
  <ele>427.35</ele>
  <time>2026-09-01T19:52:32Z</time>
  <course>177.04</course>
  <speed>19.621794005645867</speed>
  <fix>3d</fix>
</trkpt>
<trkpt lat="-27.2684573" lon="151.2896606">
  <ele>427.89</ele>
  <time>2026-09-01T19:52:32Z</time>
  <course>176.04</course>
  <speed>19.69</speed>
  <fix>3d</fix>
</trkpt>
<trkpt lat="-27.2685058" lon="151.2896638">
  <ele>427.19</ele>
  <time>2026-09-01T19:52:32Z</time>
  <course>177.02</course>
  <speed>19.621794005645867</speed>
  <fix>3d</fix>
</trkpt>
<trkpt lat="-27.2684573" lon="151.2896606">
  <ele>427.89</ele>
  <time>2026-09-01T19:52:32Z</time>
  <course>176.04</course>
  <speed>19.69</speed>
  <fix>3d</fix>
</trkpt>
<trkpt lat="-27.2685236" lon="151.2896652">
  <ele>427.02</ele>
  <time>2026-09-01T19:52:32Z</time>
  <course>177.01</course>
  <speed>19.621794005645867</speed>
  <fix>3d</fix>
</trkpt>
<trkpt lat="-27.2684926" lon="151.2896634">
  <ele>427.55</ele>
  <time>2026-09-01T19:52:32Z</time>
  <course>176.05</course>
  <speed>19.7</speed>
  <fix>3d</fix>
</trkpt>
<trkpt lat="-27.2685413" lon="151.2896665">
  <ele>426.85</ele>
  <time>2026-09-01T19:52:32Z</time>
  <course>177.0</course>
  <speed>19.621794005645867</speed>
  <fix>3d</fix>
</trkpt>
<trkpt lat="-27.2684926" lon="151.2896634">
  <ele>427.55</ele>
  <time>2026-09-01T19:52:32Z</time>
  <course>176.05</course>
  <speed>19.7</speed>
  <fix>3d</fix>
</trkpt>
<trkpt lat="-27.2685591" lon="151.2896679">
  <ele>426.69</ele>
  <time>2026-09-01T19:52:32Z</time>
  <course>177.01</course>
  <speed>19.63177271669576</speed>
  <fix>3d</fix>
</trkpt>
<trkpt lat="-27.2685279" lon="151.2896661">
  <ele>427.21</ele>
  <time>2026-09-01T19:52:32Z</time>
  <course>176.05</course>
  <speed>19.7</speed>
  <fix>3d</fix>
</trkpt>
<trkpt lat="-27.2685769" lon="151.2896693">
  <ele>426.53</ele>
  <time>2026-09-01T19:52:32Z</time>
  <course>177.01</course>
  <speed>19.621794005645867</speed>
  <fix>3d</fix>
</trkpt>
<trkpt lat="-27.2685279" lon="151.2896661">
  <ele>427.21</ele>
  <time>2026-09-01T19:52:32Z</time>
  <course>176.05</course>
  <speed>19.7</speed>
  <fix>3d</fix>
</trkpt>
<trkpt lat="-27.2685944" lon="151.2896706">
  <ele>426.37</ele>
  <time>2026-09-01T19:52:32Z</time>
  <course>177.0</course>
  <speed>19.621794005645867</speed>
  <fix>3d</fix>
</trkpt>
<trkpt lat="-27.2685632" lon="151.2896688">
  <ele>426.88</ele>
  <time>2026-09-01T19:52:32Z</time>
  <course>176.05</course>
  <speed>19.69</speed>
  <fix>3d</fix>
</trkpt>
<trkpt lat="-27.268612" lon="151.289672">
  <ele>426.22</ele>
  <time>2026-09-01T19:52:32Z</time>
  <course>177.02</course>
  <speed>19.61181531628319</speed>
  <fix>3d</fix>
</trkpt>
<trkpt lat="-27.2685632" lon="151.2896688">
  <ele>426.88</ele>
  <time>2026-09-01T19:52:32Z</time>
  <course>176.05</course>
  <speed>19.69</speed>
  <fix>3d</fix>
</trkpt>
<trkpt lat="-27.2686296" lon="151.2896733">
  <ele>426.06</ele>
  <time>2026-09-01T19:52:32Z</time>
  <course>177.02</course>
  <speed>19.591858002752062</speed>
  <fix>3d</fix>
</trkpt>
<trkpt lat="-27.2685985" lon="151.2896716">
  <ele>426.56</ele>
  <time>2026-09-01T19:52:32Z</time>
  <course>176.04</course>
  <speed>19.67</speed>
  <fix>3d</fix>
</trkpt>
<trkpt lat="-27.2686472" lon="151.2896747">
  <ele>425.9</ele>
  <time>2026-09-01T19:52:32Z</time>
  <course>177.04</course>
  <speed>19.581879378650047</speed>
  <fix>3d</fix>
</trkpt>
<trkpt lat="-27.2685985" lon="151.2896716">
  <ele>426.56</ele>
  <time>2026-09-01T19:52:32Z</time>
  <course>176.04</course>
  <speed>19.67</speed>
  <fix>3d</fix>
</trkpt>
<trkpt lat="-27.2686649" lon="151.2896761">
  <ele>425.74</ele>
  <time>2026-09-01T19:52:32Z</time>
  <course>177.05</course>
  <speed>19.571249321389782</speed>
  <fix>3d</fix>
</trkpt>
<trkpt lat="-27.2686337" lon="151.2896743">
  <ele>426.24</ele>
  <time>2026-09-01T19:52:32Z</time>
  <course>176.04</course>
  <speed>19.64</speed>
  <fix>3d</fix>
</trkpt>
<trkpt lat="-27.2686825" lon="151.2896774">
  <ele>425.58</ele>
  <time>2026-09-01T19:52:32Z</time>
  <course>177.03</course>
  <speed>19.55129151744201</speed>
  <fix>3d</fix>
</trkpt>
<trkpt lat="-27.2686337" lon="151.2896743">
  <ele>426.24</ele>
  <time>2026-09-01T19:52:32Z</time>
  <course>176.04</course>
  <speed>19.64</speed>
  <fix>3d</fix>
</trkpt>
<trkpt lat="-27.2687" lon="151.2896788">
  <ele>425.42</ele>
  <time>2026-09-01T19:52:32Z</time>
  <course>176.99</course>
  <speed>19.54131264782384</speed>
  <fix>3d</fix>
</trkpt>
<trkpt lat="-27.2686689" lon="151.2896771">
  <ele>425.93</ele>
  <time>2026-09-01T19:52:32Z</time>
  <course>176.05</course>
  <speed>19.62</speed>
  <fix>3d</fix>
</trkpt>
<trkpt lat="-27.2687177" lon="151.2896801">
  <ele>425.26</ele>
  <time>2026-09-01T19:52:32Z</time>
  <course>176.97</course>
  <speed>19.521354973464316</speed>
  <fix>3d</fix>
</trkpt>
<trkpt lat="-27.2686689" lon="151.2896771">
  <ele>425.93</ele>
  <time>2026-09-01T19:52:32Z</time>
  <course>176.05</course>
  <speed>19.62</speed>
  <fix>3d</fix>
</trkpt>
<trkpt lat="-27.2687353" lon="151.2896815">
  <ele>425.1</ele>
  <time>2026-09-01T19:52:32Z</time>
  <course>176.97</course>
  <speed>19.501397385828533</speed>
  <fix>3d</fix>
</trkpt>
<trkpt lat="-27.268704" lon="151.2896798">
  <ele>425.61</ele>
  <time>2026-09-01T19:52:32Z</time>
  <course>176.05</course>
  <speed>19.59</speed>
  <fix>3d</fix>
</trkpt>
<trkpt lat="-27.2687528" lon="151.2896829">
  <ele>424.94</ele>
  <time>2026-09-01T19:52:32Z</time>
  <course>176.99</course>
  <speed>19.491418624615292</speed>
  <fix>3d</fix>
</trkpt>
<trkpt lat="-27.268704" lon="151.2896798">
  <ele>425.61</ele>
  <time>2026-09-01T19:52:32Z</time>
  <course>176.05</course>
  <speed>19.59</speed>
  <fix>3d</fix>
</trkpt>
<trkpt lat="-27.2687704" lon="151.2896842">
  <ele>424.78</ele>
  <time>2026-09-01T19:52:32Z</time>
  <course>177.01</course>
  <speed>19.481439885183025</speed>
  <fix>3d</fix>
</trkpt>
<trkpt lat="-27.2687391" lon="151.2896825">
  <ele>425.29</ele>
  <time>2026-09-01T19:52:32Z</time>
  <course>176.05</course>
  <speed>19.55</speed>
  <fix>3d</fix>
</trkpt>
<trkpt lat="-27.268788" lon="151.2896856">
  <ele>424.62</ele>
  <time>2026-09-01T19:52:32Z</time>
  <course>177.02</course>
  <speed>19.46148247179541</speed>
  <fix>3d</fix>
</trkpt>
<trkpt lat="-27.2687391" lon="151.2896825">
  <ele>425.29</ele>
  <time>2026-09-01T19:52:32Z</time>
  <course>176.05</course>
  <speed>19.55</speed>
  <fix>3d</fix>
</trkpt>
<trkpt lat="-27.2688056" lon="151.289687">
  <ele>424.46</ele>
  <time>2026-09-01T19:52:32Z</time>
  <course>177.03</course>
  <speed>19.451503797907247</speed>
  <fix>3d</fix>
</trkpt>
<trkpt lat="-27.2687742" lon="151.2896852">
  <ele>424.97</ele>
  <time>2026-09-01T19:52:32Z</time>
  <course>176.04</course>
  <speed>19.51</speed>
  <fix>3d</fix>
</trkpt>
<trkpt lat="-27.2688231" lon="151.2896883">
  <ele>424.29</ele>
  <time>2026-09-01T19:52:32Z</time>
  <course>177.02</course>
  <speed>19.44152514593441</speed>
  <fix>3d</fix>
</trkpt>
<trkpt lat="-27.2687742" lon="151.2896852">
  <ele>424.97</ele>
  <time>2026-09-01T19:52:32Z</time>
  <course>176.04</course>
  <speed>19.51</speed>
  <fix>3d</fix>
</trkpt>
<trkpt lat="-27.2688407" lon="151.2896897">
  <ele>424.13</ele>
  <time>2026-09-01T19:52:32Z</time>
  <course>177.0</course>
  <speed>19.431546515910668</speed>
  <fix>3d</fix>
</trkpt>
<trkpt lat="-27.2688092" lon="151.2896879">
  <ele>424.64</ele>
  <time>2026-09-01T19:52:33Z</time>
  <course>176.04</course>
  <speed>19.48</speed>
  <fix>3d</fix>
</trkpt>
<trkpt lat="-27.2688582" lon="151.2896911">
  <ele>423.96</ele>
  <time>2026-09-01T19:52:33Z</time>
  <course>176.99</course>
  <speed>19.42156790786985</speed>
  <fix>3d</fix>
</trkpt>
<trkpt lat="-27.2688092" lon="151.2896879">
  <ele>424.64</ele>
  <time>2026-09-01T19:52:33Z</time>
  <course>176.04</course>
  <speed>19.48</speed>
  <fix>3d</fix>
</trkpt>
<trkpt lat="-27.2688758" lon="151.2896924">
  <ele>423.79</ele>
  <time>2026-09-01T19:52:33Z</time>
  <course>177.0</course>
  <speed>19.411589321845852</speed>
  <fix>3d</fix>
</trkpt>
<trkpt lat="-27.2688441" lon="151.2896907">
  <ele>424.31</ele>
  <time>2026-09-01T19:52:33Z</time>
  <course>176.04</course>
  <speed>19.44</speed>
  <fix>3d</fix>
</trkpt>
<trkpt lat="-27.2688933" lon="151.2896938">
  <ele>423.63</ele>
  <time>2026-09-01T19:52:33Z</time>
  <course>176.99</course>
  <speed>19.401610757872657</speed>
  <fix>3d</fix>
</trkpt>
<trkpt lat="-27.2688441" lon="151.2896907">
  <ele>424.31</ele>
  <time>2026-09-01T19:52:33Z</time>
  <course>176.04</course>
  <speed>19.44</speed>
  <fix>3d</fix>
</trkpt>
<trkpt lat="-27.2689107" lon="151.2896951">
  <ele>423.46</ele>
  <time>2026-09-01T19:52:33Z</time>
  <course>176.99</course>
  <speed>19.381653696214883</speed>
  <fix>3d</fix>
</trkpt>
<trkpt lat="-27.2688789" lon="151.2896934">
  <ele>423.97</ele>
  <time>2026-09-01T19:52:33Z</time>
  <course>176.04</course>
  <speed>19.41</speed>
  <fix>3d</fix>
</trkpt>
<trkpt lat="-27.2689281" lon="151.2896965">
  <ele>423.28</ele>
  <time>2026-09-01T19:52:33Z</time>
  <course>177.01</course>
  <speed>19.371022172306755</speed>
  <fix>3d</fix>
</trkpt>
<trkpt lat="-27.2688789" lon="151.2896934">
  <ele>423.97</ele>
  <time>2026-09-01T19:52:33Z</time>
  <course>176.04</course>
  <speed>19.41</speed>
  <fix>3d</fix>
</trkpt>
<trkpt lat="-27.2689454" lon="151.2896978">
  <ele>423.11</ele>
  <time>2026-09-01T19:52:33Z</time>
  <course>177.05</course>
  <speed>19.351064570198716</speed>
  <fix>3d</fix>
</trkpt>
<trkpt lat="-27.2689136" lon="151.2896961">
  <ele>423.63</ele>
  <time>2026-09-01T19:52:33Z</time>
  <course>176.04</course>
  <speed>19.38</speed>
  <fix>3d</fix>
</trkpt>
<trkpt lat="-27.2689626" lon="151.2896992">
  <ele>422.94</ele>
  <time>2026-09-01T19:52:33Z</time>
  <course>177.09</course>
  <speed>19.331107055727564</speed>
  <fix>3d</fix>
</trkpt>
<trkpt lat="-27.2689136" lon="151.2896961">
  <ele>423.63</ele>
  <time>2026-09-01T19:52:33Z</time>
  <course>176.04</course>
  <speed>19.38</speed>
  <fix>3d</fix>
</trkpt>
<trkpt lat="-27.26898" lon="151.2897005">
  <ele>422.76</ele>
  <time>2026-09-01T19:52:33Z</time>
  <course>177.07</course>
  <speed>19.321128331440686</speed>
  <fix>3d</fix>
</trkpt>
<trkpt lat="-27.2689483" lon="151.2896988">
  <ele>423.28</ele>
  <time>2026-09-01T19:52:33Z</time>
  <course>176.04</course>
  <speed>19.35</speed>
  <fix>3d</fix>
</trkpt>
<trkpt lat="-27.2689974" lon="151.2897019">
  <ele>422.59</ele>
  <time>2026-09-01T19:52:33Z</time>
  <course>177.07</course>
  <speed>19.310499734600345</speed>
  <fix>3d</fix>
</trkpt>
<trkpt lat="-27.2689483" lon="151.2896988">
  <ele>423.28</ele>
  <time>2026-09-01T19:52:33Z</time>
  <course>176.04</course>
  <speed>19.35</speed>
  <fix>3d</fix>
</trkpt>
<trkpt lat="-27.2690148" lon="151.2897032">
  <ele>422.41</ele>
  <time>2026-09-01T19:52:33Z</time>
  <course>177.08</course>
  <speed>19.30052071836405</speed>
  <fix>3d</fix>
</trkpt>
<trkpt lat="-27.268983" lon="151.2897015">
  <ele>422.94</ele>
  <time>2026-09-01T19:52:33Z</time>
  <course>176.06</course>
  <speed>19.32</speed>
  <fix>3d</fix>
</trkpt>
<trkpt lat="-27.2690323" lon="151.2897046">
  <ele>422.24</ele>
  <time>2026-09-01T19:52:33Z</time>
  <course>177.11</course>
  <speed>19.290541723860425</speed>
  <fix>3d</fix>
</trkpt>
<trkpt lat="-27.268983" lon="151.2897015">
  <ele>422.94</ele>
  <time>2026-09-01T19:52:33Z</time>
  <course>176.06</course>
  <speed>19.32</speed>
  <fix>3d</fix>
</trkpt>
<trkpt lat="-27.2690497" lon="151.2897059">
  <ele>422.06</ele>
  <time>2026-09-01T19:52:33Z</time>
  <course>177.12</course>
  <speed>19.27991701226953</speed>
  <fix>3d</fix>
</trkpt>
<trkpt lat="-27.2690176" lon="151.2897042">
  <ele>422.59</ele>
  <time>2026-09-01T19:52:33Z</time>
  <course>176.08</course>
  <speed>19.29</speed>
  <fix>3d</fix>
</trkpt>
<trkpt lat="-27.2690671" lon="151.2897073">
  <ele>421.88</ele>
  <time>2026-09-01T19:52:33Z</time>
  <course>177.12</course>
  <speed>19.269937726936224</speed>
  <fix>3d</fix>
</trkpt>
<trkpt lat="-27.2690176" lon="151.2897042">
  <ele>422.59</ele>
  <time>2026-09-01T19:52:33Z</time>
  <course>176.08</course>
  <speed>19.29</speed>
  <fix>3d</fix>
</trkpt>
<trkpt lat="-27.2690844" lon="151.2897086">
  <ele>421.7</ele>
  <time>2026-09-01T19:52:33Z</time>
  <course>177.13</course>
  <speed>19.269296821627925</speed>
  <fix>3d</fix>
</trkpt>
<trkpt lat="-27.2690521" lon="151.2897068">
  <ele>422.24</ele>
  <time>2026-09-01T19:52:33Z</time>
  <course>176.1</course>
  <speed>19.26</speed>
  <fix>3d</fix>
</trkpt>
<trkpt lat="-27.2691018" lon="151.2897099">
  <ele>421.53</ele>
  <time>2026-09-01T19:52:33Z</time>
  <course>177.13</course>
  <speed>19.259317225696243</speed>
  <fix>3d</fix>
</trkpt>
<trkpt lat="-27.2690521" lon="151.2897068">
  <ele>422.24</ele>
  <time>2026-09-01T19:52:33Z</time>
  <course>176.1</course>
  <speed>19.26</speed>
  <fix>3d</fix>
</trkpt>
<trkpt lat="-27.2691191" lon="151.2897112">
  <ele>421.35</ele>
  <time>2026-09-01T19:52:33Z</time>
  <course>177.12</course>
  <speed>19.259317225696243</speed>
  <fix>3d</fix>
</trkpt>
<trkpt lat="-27.2690866" lon="151.2897095">
  <ele>421.89</ele>
  <time>2026-09-01T19:52:33Z</time>
  <course>176.13</course>
  <speed>19.24</speed>
  <fix>3d</fix>
</trkpt>
<trkpt lat="-27.2691364" lon="151.2897125">
  <ele>421.17</ele>
  <time>2026-09-01T19:52:33Z</time>
  <course>177.14</course>
  <speed>19.248701254889898</speed>
  <fix>3d</fix>
</trkpt>
<trkpt lat="-27.2690866" lon="151.2897095">
  <ele>421.89</ele>
  <time>2026-09-01T19:52:33Z</time>
  <course>176.13</course>
  <speed>19.24</speed>
  <fix>3d</fix>
</trkpt>
<trkpt lat="-27.2691537" lon="151.2897139">
  <ele>421.0</ele>
  <time>2026-09-01T19:52:33Z</time>
  <course>177.15</course>
  <speed>19.248701254889898</speed>
  <fix>3d</fix>
</trkpt>
<trkpt lat="-27.2691211" lon="151.289712">
  <ele>421.53</ele>
  <time>2026-09-01T19:52:33Z</time>
  <course>176.15</course>
  <speed>19.22</speed>
  <fix>3d</fix>
</trkpt>
<trkpt lat="-27.269171" lon="151.2897152">
  <ele>420.82</ele>
  <time>2026-09-01T19:52:33Z</time>
  <course>177.17</course>
  <speed>19.23872137123463</speed>
  <fix>3d</fix>
</trkpt>
<trkpt lat="-27.2691211" lon="151.289712">
  <ele>421.53</ele>
  <time>2026-09-01T19:52:33Z</time>
  <course>176.15</course>
  <speed>19.22</speed>
  <fix>3d</fix>
</trkpt>
<trkpt lat="-27.2691883" lon="151.2897165">
  <ele>420.64</ele>
  <time>2026-09-01T19:52:33Z</time>
  <course>177.18</course>
  <speed>19.23872137123463</speed>
  <fix>3d</fix>
</trkpt>
<trkpt lat="-27.2691556" lon="151.2897147">
  <ele>421.16</ele>
  <time>2026-09-01T19:52:33Z</time>
  <course>176.16</course>
  <speed>19.21</speed>
  <fix>3d</fix>
</trkpt>
<trkpt lat="-27.2692057" lon="151.2897178">
  <ele>420.46</ele>
  <time>2026-09-01T19:52:33Z</time>
  <course>177.18</course>
  <speed>19.228741508481516</speed>
  <fix>3d</fix>
</trkpt>
<trkpt lat="-27.2691556" lon="151.2897147">
  <ele>421.16</ele>
  <time>2026-09-01T19:52:33Z</time>
  <course>176.16</course>
  <speed>19.21</speed>
  <fix>3d</fix>
</trkpt>
<trkpt lat="-27.269223" lon="151.2897191">
  <ele>420.28</ele>
  <time>2026-09-01T19:52:33Z</time>
  <course>177.19</course>
  <speed>19.228741508481516</speed>
  <fix>3d</fix>
</trkpt>
<trkpt lat="-27.26919" lon="151.2897173">
  <ele>420.81</ele>
  <time>2026-09-01T19:52:33Z</time>
  <course>176.17</course>
  <speed>19.19</speed>
  <fix>3d</fix>
</trkpt>
<trkpt lat="-27.2692403" lon="151.2897204">
  <ele>420.09</ele>
  <time>2026-09-01T19:52:33Z</time>
  <course>177.2</course>
  <speed>19.228741508481516</speed>
  <fix>3d</fix>
</trkpt>
<trkpt lat="-27.26919" lon="151.2897173">
  <ele>420.81</ele>
  <time>2026-09-01T19:52:33Z</time>
  <course>176.17</course>
  <speed>19.19</speed>
  <fix>3d</fix>
</trkpt>
<trkpt lat="-27.2692574" lon="151.2897217">
  <ele>419.91</ele>
  <time>2026-09-01T19:52:33Z</time>
  <course>177.2</course>
  <speed>19.218129461526686</speed>
  <fix>3d</fix>
</trkpt>
<trkpt lat="-27.2692245" lon="151.2897199">
  <ele>420.45</ele>
  <time>2026-09-01T19:52:33Z</time>
  <course>176.18</course>
  <speed>19.18</speed>
  <fix>3d</fix>
</trkpt>
<trkpt lat="-27.2692746" lon="151.289723">
  <ele>419.73</ele>
  <time>2026-09-01T19:52:33Z</time>
  <course>177.19</course>
  <speed>19.208781845812087</speed>
  <fix>3d</fix>
</trkpt>
<trkpt lat="-27.2692245" lon="151.2897199">
  <ele>420.45</ele>
  <time>2026-09-01T19:52:33Z</time>
  <course>176.18</course>
  <speed>19.18</speed>
  <fix>3d</fix>
</trkpt>
<trkpt lat="-27.2692917" lon="151.2897242">
  <ele>419.55</ele>
  <time>2026-09-01T19:52:33Z</time>
  <course>177.2</course>
  <speed>19.19816918354456</speed>
  <fix>3d</fix>
</trkpt>
<trkpt lat="-27.2692588" lon="151.2897224">
  <ele>420.09</ele>
  <time>2026-09-01T19:52:33Z</time>
  <course>176.18</course>
  <speed>19.17</speed>
  <fix>3d</fix>
</trkpt>
<trkpt lat="-27.2693086" lon="151.2897255">
  <ele>419.37</ele>
  <time>2026-09-01T19:52:33Z</time>
  <course>177.21</course>
  <speed>19.188189075574588</speed>
  <fix>3d</fix>
</trkpt>
<trkpt lat="-27.2692588" lon="151.2897224">
  <ele>420.09</ele>
  <time>2026-09-01T19:52:33Z</time>
  <course>176.18</course>
  <speed>19.17</speed>
  <fix>3d</fix>
</trkpt>
<trkpt lat="-27.2693257" lon="151.2897268">
  <ele>419.19</ele>
  <time>2026-09-01T19:52:33Z</time>
  <course>177.22</course>
  <speed>19.178208988328393</speed>
  <fix>3d</fix>
</trkpt>
<trkpt lat="-27.2692932" lon="151.2897249">
  <ele>419.72</ele>
  <time>2026-09-01T19:52:33Z</time>
  <course>176.18</course>
  <speed>19.17</speed>
  <fix>3d</fix>
</trkpt>
<trkpt lat="-27.2693429" lon="151.2897281">
  <ele>419.0</ele>
  <time>2026-09-01T19:52:33Z</time>
  <course>177.2</course>
  <speed>19.178208988328393</speed>
  <fix>3d</fix>
</trkpt>
<trkpt lat="-27.2692932" lon="151.2897249">
  <ele>419.72</ele>
  <time>2026-09-01T19:52:33Z</time>
  <course>176.18</course>
  <speed>19.17</speed>
  <fix>3d</fix>
</trkpt>
<trkpt lat="-27.2693601" lon="151.2897294">
  <ele>418.82</ele>
  <time>2026-09-01T19:52:33Z</time>
  <course>177.18</course>
  <speed>19.168228921838345</speed>
  <fix>3d</fix>
</trkpt>
<trkpt lat="-27.2693275" lon="151.2897276">
  <ele>419.36</ele>
  <time>2026-09-01T19:52:33Z</time>
  <course>176.19</course>
  <speed>19.16</speed>
  <fix>3d</fix>
</trkpt>
<trkpt lat="-27.2693773" lon="151.2897307">
  <ele>418.64</ele>
  <time>2026-09-01T19:52:33Z</time>
  <course>177.19</course>
  <speed>19.168228921838345</speed>
  <fix>3d</fix>
</trkpt>
<trkpt lat="-27.2693275" lon="151.2897276">
  <ele>419.36</ele>
  <time>2026-09-01T19:52:33Z</time>
  <course>176.19</course>
  <speed>19.16</speed>
  <fix>3d</fix>
</trkpt>
<trkpt lat="-27.2693946" lon="151.289732">
  <ele>418.45</ele>
  <time>2026-09-01T19:52:33Z</time>
  <course>177.19</course>
  <speed>19.168228921838345</speed>
  <fix>3d</fix>
</trkpt>
<trkpt lat="-27.2693619" lon="151.2897302">
  <ele>419.0</ele>
  <time>2026-09-01T19:52:33Z</time>
  <course>176.19</course>
  <speed>19.15</speed>
  <fix>3d</fix>
</trkpt>
<trkpt lat="-27.2694118" lon="151.2897332">
  <ele>418.27</ele>
  <time>2026-09-01T19:52:33Z</time>
  <course>177.17</course>
  <speed>19.168228921838345</speed>
  <fix>3d</fix>
</trkpt>
<trkpt lat="-27.2693619" lon="151.2897302">
  <ele>419.0</ele>
  <time>2026-09-01T19:52:33Z</time>
  <course>176.19</course>
  <speed>19.15</speed>
  <fix>3d</fix>
</trkpt>
<trkpt lat="-27.269429" lon="151.2897345">
  <ele>418.09</ele>
  <time>2026-09-01T19:52:33Z</time>
  <course>177.17</course>
  <speed>19.168228921838345</speed>
  <fix>3d</fix>
</trkpt>
<trkpt lat="-27.2693962" lon="151.2897327">
  <ele>418.63</ele>
  <time>2026-09-01T19:52:33Z</time>
  <course>176.19</course>
  <speed>19.15</speed>
  <fix>3d</fix>
</trkpt>
<trkpt lat="-27.2694462" lon="151.2897358">
  <ele>417.91</ele>
  <time>2026-09-01T19:52:33Z</time>
  <course>177.21</course>
  <speed>19.15824887613688</speed>
  <fix>3d</fix>
</trkpt>
<trkpt lat="-27.2693962" lon="151.2897327">
  <ele>418.63</ele>
  <time>2026-09-01T19:52:33Z</time>
  <course>176.19</course>
  <speed>19.15</speed>
  <fix>3d</fix>
</trkpt>
<trkpt lat="-27.2694634" lon="151.2897371">
  <ele>417.73</ele>
  <time>2026-09-01T19:52:33Z</time>
  <course>177.24</course>
  <speed>19.15824887613688</speed>
  <fix>3d</fix>
</trkpt>
<trkpt lat="-27.2694305" lon="151.2897353">
  <ele>418.27</ele>
  <time>2026-09-01T19:52:33Z</time>
  <course>176.2</course>
  <speed>19.15</speed>
  <fix>3d</fix>
</trkpt>
<trkpt lat="-27.2694806" lon="151.2897384">
  <ele>417.55</ele>
  <time>2026-09-01T19:52:33Z</time>
  <course>177.24</course>
  <speed>19.157619893922107</speed>
  <fix>3d</fix>
</trkpt>
<trkpt lat="-27.2694305" lon="151.2897353">
  <ele>418.27</ele>
  <time>2026-09-01T19:52:33Z</time>
  <course>176.2</course>
  <speed>19.15</speed>
  <fix>3d</fix>
</trkpt>
<trkpt lat="-27.2694978" lon="151.2897397">
  <ele>417.37</ele>
  <time>2026-09-01T19:52:33Z</time>
  <course>177.24</course>
  <speed>19.157619893922107</speed>
  <fix>3d</fix>
</trkpt>
<trkpt lat="-27.2694648" lon="151.2897378">
  <ele>417.9</ele>
  <time>2026-09-01T19:52:33Z</time>
  <course>176.2</course>
  <speed>19.14</speed>
  <fix>3d</fix>
</trkpt>
<trkpt lat="-27.2695149" lon="151.2897409">
  <ele>417.19</ele>
  <time>2026-09-01T19:52:33Z</time>
  <course>177.23</course>
  <speed>19.157619893922107</speed>
  <fix>3d</fix>
</trkpt>
<trkpt lat="-27.2694648" lon="151.2897378">
  <ele>417.9</ele>
  <time>2026-09-01T19:52:33Z</time>
  <course>176.2</course>
  <speed>19.14</speed>
  <fix>3d</fix>
</trkpt>
<trkpt lat="-27.2695321" lon="151.2897422">
  <ele>417.01</ele>
  <time>2026-09-01T19:52:33Z</time>
  <course>177.23</course>
  <speed>19.147639541207162</speed>
  <fix>3d</fix>
</trkpt>
<trkpt lat="-27.2694992" lon="151.2897403">
  <ele>417.53</ele>
  <time>2026-09-01T19:52:33Z</time>
  <course>176.21</course>
  <speed>19.14</speed>
  <fix>3d</fix>
</trkpt>
<trkpt lat="-27.2695493" lon="151.2897435">
  <ele>416.83</ele>
  <time>2026-09-01T19:52:33Z</time>
  <course>177.25</course>
  <speed>19.147639541207162</speed>
  <fix>3d</fix>
</trkpt>
<trkpt lat="-27.2694992" lon="151.2897403">
  <ele>417.53</ele>
  <time>2026-09-01T19:52:33Z</time>
  <course>176.21</course>
  <speed>19.14</speed>
  <fix>3d</fix>
</trkpt>
<trkpt lat="-27.2695665" lon="151.2897448">
  <ele>416.66</ele>
  <time>2026-09-01T19:52:33Z</time>
  <course>177.26</course>
  <speed>19.14701543322092</speed>
  <fix>3d</fix>
</trkpt>
<trkpt lat="-27.2695336" lon="151.2897429">
  <ele>417.18</ele>
  <time>2026-09-01T19:52:33Z</time>
  <course>176.22</course>
  <speed>19.13</speed>
  <fix>3d</fix>
</trkpt>
<trkpt lat="-27.2695836" lon="151.289746">
  <ele>416.48</ele>
  <time>2026-09-01T19:52:33Z</time>
  <course>177.27</course>
  <speed>19.13703477553406</speed>
  <fix>3d</fix>
</trkpt>
<trkpt lat="-27.2695336" lon="151.2897429">
  <ele>417.18</ele>
  <time>2026-09-01T19:52:33Z</time>
  <course>176.22</course>
  <speed>19.13</speed>
  <fix>3d</fix>
</trkpt>
<trkpt lat="-27.2696007" lon="151.2897473">
  <ele>416.31</ele>
  <time>2026-09-01T19:52:33Z</time>
  <course>177.25</course>
  <speed>19.127054138052728</speed>
  <fix>3d</fix>
</trkpt>
<trkpt lat="-27.2695679" lon="151.2897455">
  <ele>416.82</ele>
  <time>2026-09-01T19:52:33Z</time>
  <course>176.23</course>
  <speed>19.13</speed>
  <fix>3d</fix>
</trkpt>
<trkpt lat="-27.2696178" lon="151.2897485">
  <ele>416.13</ele>
  <time>2026-09-01T19:52:33Z</time>
  <course>177.25</course>
  <speed>19.117073520808564</speed>
  <fix>3d</fix>
</trkpt>
<trkpt lat="-27.2695679" lon="151.2897455">
  <ele>416.82</ele>
  <time>2026-09-01T19:52:33Z</time>
  <course>176.23</course>
  <speed>19.13</speed>
  <fix>3d</fix>
</trkpt>
<trkpt lat="-27.2696348" lon="151.2897498">
  <ele>415.96</ele>
  <time>2026-09-01T19:52:33Z</time>
  <course>177.26</course>
  <speed>19.117073520808564</speed>
  <fix>3d</fix>
</trkpt>
<trkpt lat="-27.2696022" lon="151.289748">
  <ele>416.47</ele>
  <time>2026-09-01T19:52:33Z</time>
  <course>176.25</course>
  <speed>19.12</speed>
  <fix>3d</fix>
</trkpt>
<trkpt lat="-27.2696518" lon="151.289751">
  <ele>415.78</ele>
  <time>2026-09-01T19:52:33Z</time>
  <course>177.28</course>
  <speed>19.1064727252311</speed>
  <fix>3d</fix>
</trkpt>
<trkpt lat="-27.2696022" lon="151.289748">
  <ele>416.47</ele>
  <time>2026-09-01T19:52:33Z</time>
  <course>176.25</course>
  <speed>19.12</speed>
  <fix>3d</fix>
</trkpt>
<trkpt lat="-27.2696688" lon="151.2897523">
  <ele>415.61</ele>
  <time>2026-09-01T19:52:33Z</time>
  <course>177.28</course>
  <speed>19.096491824416336</speed>
  <fix>3d</fix>
</trkpt>
<trkpt lat="-27.2696365" lon="151.2897505">
  <ele>416.11</ele>
  <time>2026-09-01T19:52:33Z</time>
  <course>176.26</course>
  <speed>19.12</speed>
  <fix>3d</fix>
</trkpt>
<trkpt lat="-27.2696858" lon="151.2897535">
  <ele>415.43</ele>
  <time>2026-09-01T19:52:33Z</time>
  <course>177.3</course>
  <speed>19.08651094359574</speed>
  <fix>3d</fix>
</trkpt>
<trkpt lat="-27.2696365" lon="151.2897505">
  <ele>416.11</ele>
  <time>2026-09-01T19:52:33Z</time>
  <course>176.26</course>
  <speed>19.12</speed>
  <fix>3d</fix>
</trkpt>
<trkpt lat="-27.2697029" lon="151.2897548">
  <ele>415.25</ele>
  <time>2026-09-01T19:52:33Z</time>
  <course>177.31</course>
  <speed>19.08651094359574</speed>
  <fix>3d</fix>
</trkpt>
<trkpt lat="-27.2696707" lon="151.289753">
  <ele>415.76</ele>
  <time>2026-09-01T19:52:33Z</time>
  <course>176.27</course>
  <speed>19.11</speed>
  <fix>3d</fix>
</trkpt>
<trkpt lat="-27.26972" lon="151.289756">
  <ele>415.08</ele>
  <time>2026-09-01T19:52:33Z</time>
  <course>177.33</course>
  <speed>19.075914132748657</speed>
  <fix>3d</fix>
</trkpt>
<trkpt lat="-27.2696707" lon="151.289753">
  <ele>415.76</ele>
  <time>2026-09-01T19:52:33Z</time>
  <course>176.27</course>
  <speed>19.11</speed>
  <fix>3d</fix>
</trkpt>
<trkpt lat="-27.2697373" lon="151.2897573">
  <ele>414.9</ele>
  <time>2026-09-01T19:52:33Z</time>
  <course>177.33</course>
  <speed>19.075914132748657</speed>
  <fix>3d</fix>
</trkpt>
<trkpt lat="-27.269705" lon="151.2897555">
  <ele>415.4</ele>
  <time>2026-09-01T19:52:33Z</time>
  <course>176.28</course>
  <speed>19.11</speed>
  <fix>3d</fix>
</trkpt>
<trkpt lat="-27.2697544" lon="151.2897585">
  <ele>414.72</ele>
  <time>2026-09-01T19:52:33Z</time>
  <course>177.33</course>
  <speed>19.075914132748657</speed>
  <fix>3d</fix>
</trkpt>
<trkpt lat="-27.269705" lon="151.2897555">
  <ele>415.4</ele>
  <time>2026-09-01T19:52:33Z</time>
  <course>176.28</course>
  <speed>19.11</speed>
  <fix>3d</fix>
</trkpt>
<trkpt lat="-27.2697715" lon="151.2897598">
  <ele>414.54</ele>
  <time>2026-09-01T19:52:33Z</time>
  <course>177.32</course>
  <speed>19.075914132748657</speed>
  <fix>3d</fix>
</trkpt>
<trkpt lat="-27.2697392" lon="151.289758">
  <ele>415.05</ele>
  <time>2026-09-01T19:52:33Z</time>
  <course>176.29</course>
  <speed>19.11</speed>
  <fix>3d</fix>
</trkpt>
<trkpt lat="-27.2697887" lon="151.289761">
  <ele>414.36</ele>
  <time>2026-09-01T19:52:33Z</time>
  <course>177.31</course>
  <speed>19.085895315651292</speed>
  <fix>3d</fix>
</trkpt>
<trkpt lat="-27.2697392" lon="151.289758">
  <ele>415.05</ele>
  <time>2026-09-01T19:52:33Z</time>
  <course>176.29</course>
  <speed>19.11</speed>
  <fix>3d</fix>
</trkpt>
<trkpt lat="-27.2698059" lon="151.2897623">
  <ele>414.18</ele>
  <time>2026-09-01T19:52:33Z</time>
  <course>177.35</course>
  <speed>19.085895315651292</speed>
  <fix>3d</fix>
</trkpt>
<trkpt lat="-27.2697735" lon="151.2897605">
  <ele>414.69</ele>
  <time>2026-09-01T19:52:33Z</time>
  <course>176.3</course>
  <speed>19.11</speed>
  <fix>3d</fix>
</trkpt>
<trkpt lat="-27.269823" lon="151.2897635">
  <ele>414.01</ele>
  <time>2026-09-01T19:52:33Z</time>
  <course>177.38</course>
  <speed>19.085895315651292</speed>
  <fix>3d</fix>
</trkpt>
<trkpt lat="-27.2697735" lon="151.2897605">
  <ele>414.69</ele>
  <time>2026-09-01T19:52:33Z</time>
  <course>176.3</course>
  <speed>19.11</speed>
  <fix>3d</fix>
</trkpt>
<trkpt lat="-27.2698402" lon="151.2897648">
  <ele>413.83</ele>
  <time>2026-09-01T19:52:33Z</time>
  <course>177.38</course>
  <speed>19.095876518243408</speed>
  <fix>3d</fix>
</trkpt>
<trkpt lat="-27.2698077" lon="151.289763">
  <ele>414.34</ele>
  <time>2026-09-01T19:52:33Z</time>
  <course>176.31</course>
  <speed>19.11</speed>
  <fix>3d</fix>
</trkpt>
<trkpt lat="-27.2698574" lon="151.289766">
  <ele>413.65</ele>
  <time>2026-09-01T19:52:33Z</time>
  <course>177.37</course>
  <speed>19.09526642914416</speed>
  <fix>3d</fix>
</trkpt>
<trkpt lat="-27.2698077" lon="151.289763">
  <ele>414.34</ele>
  <time>2026-09-01T19:52:33Z</time>
  <course>176.31</course>
  <speed>19.11</speed>
  <fix>3d</fix>
</trkpt>
<trkpt lat="-27.2698745" lon="151.2897672">
  <ele>413.47</ele>
  <time>2026-09-01T19:52:33Z</time>
  <course>177.38</course>
  <speed>19.09526642914416</speed>
  <fix>3d</fix>
</trkpt>
<trkpt lat="-27.269842" lon="151.2897655">
  <ele>413.97</ele>
  <time>2026-09-01T19:52:33Z</time>
  <course>176.32</course>
  <speed>19.12</speed>
  <fix>3d</fix>
</trkpt>
<trkpt lat="-27.2698917" lon="151.2897685">
  <ele>413.3</ele>
  <time>2026-09-01T19:52:33Z</time>
  <course>177.39</course>
  <speed>19.09526642914416</speed>
  <fix>3d</fix>
</trkpt>
<trkpt lat="-27.269842" lon="151.2897655">
  <ele>413.97</ele>
  <time>2026-09-01T19:52:33Z</time>
  <course>176.32</course>
  <speed>19.12</speed>
  <fix>3d</fix>
</trkpt>
<trkpt lat="-27.2699089" lon="151.2897697">
  <ele>413.12</ele>
  <time>2026-09-01T19:52:33Z</time>
  <course>177.4</course>
  <speed>19.105247970125905</speed>
  <fix>3d</fix>
</trkpt>
<trkpt lat="-27.2698764" lon="151.2897679">
  <ele>413.62</ele>
  <time>2026-09-01T19:52:33Z</time>
  <course>176.34</course>
  <speed>19.12</speed>
  <fix>3d</fix>
</trkpt>
<trkpt lat="-27.2699261" lon="151.2897709">
  <ele>412.94</ele>
  <time>2026-09-01T19:52:33Z</time>
  <course>177.38</course>
  <speed>19.105247970125905</speed>
  <fix>3d</fix>
</trkpt>
<trkpt lat="-27.2698764" lon="151.2897679">
  <ele>413.62</ele>
  <time>2026-09-01T19:52:33Z</time>
  <course>176.34</course>
  <speed>19.12</speed>
  <fix>3d</fix>
</trkpt>
<trkpt lat="-27.2699432" lon="151.2897722">
  <ele>412.77</ele>
  <time>2026-09-01T19:52:33Z</time>
  <course>177.38</course>
  <speed>19.105247970125905</speed>
  <fix>3d</fix>
</trkpt>
<trkpt lat="-27.2699107" lon="151.2897704">
  <ele>413.27</ele>
  <time>2026-09-01T19:52:33Z</time>
  <course>176.35</course>
  <speed>19.12</speed>
  <fix>3d</fix>
</trkpt>
<trkpt lat="-27.2699604" lon="151.2897734">
  <ele>412.59</ele>
  <time>2026-09-01T19:52:33Z</time>
  <course>177.4</course>
  <speed>19.11462529059882</speed>
  <fix>3d</fix>
</trkpt>
<trkpt lat="-27.2699107" lon="151.2897704">
  <ele>413.27</ele>
  <time>2026-09-01T19:52:33Z</time>
  <course>176.35</course>
  <speed>19.12</speed>
  <fix>3d</fix>
</trkpt>
<trkpt lat="-27.2699775" lon="151.2897746">
  <ele>412.42</ele>
  <time>2026-09-01T19:52:33Z</time>
  <course>177.42</course>
  <speed>19.11462529059882</speed>
  <fix>3d</fix>
</trkpt>
<trkpt lat="-27.269945" lon="151.2897729">
  <ele>412.91</ele>
  <time>2026-09-01T19:52:33Z</time>
  <course>176.36</course>
  <speed>19.13</speed>
  <fix>3d</fix>
</trkpt>
<trkpt lat="-27.2699946" lon="151.2897758">
  <ele>412.25</ele>
  <time>2026-09-01T19:52:33Z</time>
  <course>177.45</course>
  <speed>19.10464341462567</speed>
  <fix>3d</fix>
</trkpt>
<trkpt lat="-27.269945" lon="151.2897729">
  <ele>412.91</ele>
  <time>2026-09-01T19:52:33Z</time>
  <course>176.36</course>
  <speed>19.13</speed>
  <fix>3d</fix>
</trkpt>
<trkpt lat="-27.2700116" lon="151.289777">
  <ele>412.07</ele>
  <time>2026-09-01T19:52:33Z</time>
  <course>177.44</course>
  <speed>19.10464341462567</speed>
  <fix>3d</fix>
</trkpt>
<trkpt lat="-27.2699793" lon="151.2897754">
  <ele>412.56</ele>
  <time>2026-09-01T19:52:33Z</time>
  <course>176.38</course>
  <speed>19.13</speed>
  <fix>3d</fix>
</trkpt>
<trkpt lat="-27.2700287" lon="151.2897783">
  <ele>411.89</ele>
  <time>2026-09-01T19:52:33Z</time>
  <course>177.45</course>
  <speed>19.104044074488524</speed>
  <fix>3d</fix>
</trkpt>
<trkpt lat="-27.2699793" lon="151.2897754">
  <ele>412.56</ele>
  <time>2026-09-01T19:52:33Z</time>
  <course>176.38</course>
  <speed>19.13</speed>
  <fix>3d</fix>
</trkpt>
<trkpt lat="-27.2700457" lon="151.2897795">
  <ele>411.72</ele>
  <time>2026-09-01T19:52:33Z</time>
  <course>177.45</course>
  <speed>19.104044074488524</speed>
  <fix>3d</fix>
</trkpt>
<trkpt lat="-27.2700136" lon="151.2897777">
  <ele>412.2</ele>
  <time>2026-09-01T19:52:33Z</time>
  <course>176.39</course>
  <speed>19.14</speed>
  <fix>3d</fix>
</trkpt>
<trkpt lat="-27.2700628" lon="151.2897807">
  <ele>411.54</ele>
  <time>2026-09-01T19:52:33Z</time>
  <course>177.45</course>
  <speed>19.104044074488524</speed>
  <fix>3d</fix>
</trkpt>
<trkpt lat="-27.2700136" lon="151.2897777">
  <ele>412.2</ele>
  <time>2026-09-01T19:52:33Z</time>
  <course>176.39</course>
  <speed>19.14</speed>
  <fix>3d</fix>
</trkpt>
<trkpt lat="-27.2700798" lon="151.2897819">
  <ele>411.36</ele>
  <time>2026-09-01T19:52:33Z</time>
  <course>177.45</course>
  <speed>19.104044074488524</speed>
  <fix>3d</fix>
</trkpt>
<trkpt lat="-27.2700479" lon="151.2897802">
  <ele>411.84</ele>
  <time>2026-09-01T19:52:33Z</time>
  <course>176.41</course>
  <speed>19.15</speed>
  <fix>3d</fix>
</trkpt>
<trkpt lat="-27.2700967" lon="151.289783">
  <ele>411.19</ele>
  <time>2026-09-01T19:52:33Z</time>
  <course>177.45</course>
  <speed>19.09346746926812</speed>
  <fix>3d</fix>
</trkpt>
<trkpt lat="-27.2700479" lon="151.2897802">
  <ele>411.84</ele>
  <time>2026-09-01T19:52:33Z</time>
  <course>176.41</course>
  <speed>19.15</speed>
  <fix>3d</fix>
</trkpt>
<trkpt lat="-27.2701139" lon="151.2897843">
  <ele>411.01</ele>
  <time>2026-09-01T19:52:33Z</time>
  <course>177.44</course>
  <speed>19.10344995020533</speed>
  <fix>3d</fix>
</trkpt>
<trkpt lat="-27.2700823" lon="151.2897825">
  <ele>411.49</ele>
  <time>2026-09-01T19:52:33Z</time>
  <course>176.43</course>
  <speed>19.15</speed>
  <fix>3d</fix>
</trkpt>
<trkpt lat="-27.270131" lon="151.2897855">
  <ele>410.83</ele>
  <time>2026-09-01T19:52:33Z</time>
  <course>177.45</course>
  <speed>19.104044074488524</speed>
  <fix>3d</fix>
</trkpt>
<trkpt lat="-27.2700823" lon="151.2897825">
  <ele>411.49</ele>
  <time>2026-09-01T19:52:33Z</time>
  <course>176.43</course>
  <speed>19.15</speed>
  <fix>3d</fix>
</trkpt>
<trkpt lat="-27.2701482" lon="151.2897867">
  <ele>410.66</ele>
  <time>2026-09-01T19:52:33Z</time>
  <course>177.47</course>
  <speed>19.114026263453756</speed>
  <fix>3d</fix>
</trkpt>
<trkpt lat="-27.2701166" lon="151.289785">
  <ele>411.14</ele>
  <time>2026-09-01T19:52:33Z</time>
  <course>176.43</course>
  <speed>19.16</speed>
  <fix>3d</fix>
</trkpt>
<trkpt lat="-27.2701657" lon="151.2897879">
  <ele>410.48</ele>
  <time>2026-09-01T19:52:33Z</time>
  <course>177.49</course>
  <speed>19.114026263453756</speed>
  <fix>3d</fix>
</trkpt>
<trkpt lat="-27.2701166" lon="151.289785">
  <ele>411.14</ele>
  <time>2026-09-01T19:52:33Z</time>
  <course>176.43</course>
  <speed>19.16</speed>
  <fix>3d</fix>
</trkpt>
<trkpt lat="-27.270183" lon="151.2897891">
  <ele>410.31</ele>
  <time>2026-09-01T19:52:33Z</time>
  <course>177.5</course>
  <speed>19.12400847102929</speed>
  <fix>3d</fix>
</trkpt>
<trkpt lat="-27.270151" lon="151.2897875">
  <ele>410.78</ele>
  <time>2026-09-01T19:52:33Z</time>
  <course>176.43</course>
  <speed>19.17</speed>
  <fix>3d</fix>
</trkpt>
<trkpt lat="-27.2702002" lon="151.2897903">
  <ele>410.13</ele>
  <time>2026-09-01T19:52:33Z</time>
  <course>177.48</course>
  <speed>19.12400847102929</speed>
  <fix>3d</fix>
</trkpt>
<trkpt lat="-27.270151" lon="151.2897875">
  <ele>410.78</ele>
  <time>2026-09-01T19:52:33Z</time>
  <course>176.43</course>
  <speed>19.17</speed>
  <fix>3d</fix>
</trkpt>
<trkpt lat="-27.2702174" lon="151.2897915">
  <ele>409.96</ele>
  <time>2026-09-01T19:52:33Z</time>
  <course>177.45</course>
  <speed>19.13399069718599</speed>
  <fix>3d</fix>
</trkpt>
<trkpt lat="-27.2701854" lon="151.2897899">
  <ele>410.43</ele>
  <time>2026-09-01T19:52:33Z</time>
  <course>176.43</course>
  <speed>19.17</speed>
  <fix>3d</fix>
</trkpt>
<trkpt lat="-27.2702347" lon="151.2897928">
  <ele>409.78</ele>
  <time>2026-09-01T19:52:33Z</time>
  <course>177.42</course>
  <speed>19.13399069718599</speed>
  <fix>3d</fix>
</trkpt>
<trkpt lat="-27.2701854" lon="151.2897899">
  <ele>410.43</ele>
  <time>2026-09-01T19:52:33Z</time>
  <course>176.43</course>
  <speed>19.17</speed>
  <fix>3d</fix>
</trkpt>
<trkpt lat="-27.270252" lon="151.289794">
  <ele>409.6</ele>
  <time>2026-09-01T19:52:33Z</time>
  <course>177.43</course>
  <speed>19.143972941894795</speed>
  <fix>3d</fix>
</trkpt>
<trkpt lat="-27.2702198" lon="151.2897922">
  <ele>410.08</ele>
  <time>2026-09-01T19:52:33Z</time>
  <course>176.43</course>
  <speed>19.18</speed>
  <fix>3d</fix>
</trkpt>
<trkpt lat="-27.2702692" lon="151.2897952">
  <ele>409.43</ele>
  <time>2026-09-01T19:52:33Z</time>
  <course>177.44</course>
  <speed>19.143972941894795</speed>
  <fix>3d</fix>
</trkpt>
<trkpt lat="-27.2702198" lon="151.2897922">
  <ele>410.08</ele>
  <time>2026-09-01T19:52:33Z</time>
  <course>176.43</course>
  <speed>19.18</speed>
  <fix>3d</fix>
</trkpt>
<trkpt lat="-27.2702865" lon="151.2897964">
  <ele>409.25</ele>
  <time>2026-09-01T19:52:33Z</time>
  <course>177.45</course>
  <speed>19.153955205126696</speed>
  <fix>3d</fix>
</trkpt>
<trkpt lat="-27.2702543" lon="151.2897947">
  <ele>409.73</ele>
  <time>2026-09-01T19:52:33Z</time>
  <course>176.43</course>
  <speed>19.18</speed>
  <fix>3d</fix>
</trkpt>
<trkpt lat="-27.2703037" lon="151.2897976">
  <ele>409.08</ele>
  <time>2026-09-01T19:52:33Z</time>
  <course>177.48</course>
  <speed>19.153955205126696</speed>
  <fix>3d</fix>
</trkpt>
<trkpt lat="-27.2702543" lon="151.2897947">
  <ele>409.73</ele>
  <time>2026-09-01T19:52:33Z</time>
  <course>176.43</course>
  <speed>19.18</speed>
  <fix>3d</fix>
</trkpt>
<trkpt lat="-27.2703209" lon="151.2897988">
  <ele>408.9</ele>
  <time>2026-09-01T19:52:33Z</time>
  <course>177.5</course>
  <speed>19.16453495391944</speed>
  <fix>3d</fix>
</trkpt>
<trkpt lat="-27.2702887" lon="151.289797">
  <ele>409.38</ele>
  <time>2026-09-01T19:52:33Z</time>
  <course>176.42</course>
  <speed>19.19</speed>
  <fix>3d</fix>
</trkpt>
<trkpt lat="-27.2703381" lon="151.2898">
  <ele>408.72</ele>
  <time>2026-09-01T19:52:33Z</time>
  <course>177.49</course>
  <speed>19.16453495391944</speed>
  <fix>3d</fix>
</trkpt>
<trkpt lat="-27.2702887" lon="151.289797">
  <ele>409.38</ele>
  <time>2026-09-01T19:52:33Z</time>
  <course>176.42</course>
  <speed>19.19</speed>
  <fix>3d</fix>
</trkpt>
<trkpt lat="-27.2703552" lon="151.2898012">
  <ele>408.55</ele>
  <time>2026-09-01T19:52:33Z</time>
  <course>177.48</course>
  <speed>19.16453495391944</speed>
  <fix>3d</fix>
</trkpt>
<trkpt lat="-27.2703231" lon="151.2897995">
  <ele>409.03</ele>
  <time>2026-09-01T19:52:33Z</time>
  <course>176.42</course>
  <speed>19.2</speed>
  <fix>3d</fix>
</trkpt>
<trkpt lat="-27.2703723" lon="151.2898024">
  <ele>408.38</ele>
  <time>2026-09-01T19:52:33Z</time>
  <course>177.45</course>
  <speed>19.16453495391944</speed>
  <fix>3d</fix>
</trkpt>
<trkpt lat="-27.2703231" lon="151.2897995">
  <ele>409.03</ele>
  <time>2026-09-01T19:52:33Z</time>
  <course>176.42</course>
  <speed>19.2</speed>
  <fix>3d</fix>
</trkpt>
<trkpt lat="-27.2703895" lon="151.2898037">
  <ele>408.2</ele>
  <time>2026-09-01T19:52:33Z</time>
  <course>177.44</course>
  <speed>19.16453495391944</speed>
  <fix>3d</fix>
</trkpt>
<trkpt lat="-27.2703574" lon="151.289802">
  <ele>408.69</ele>
  <time>2026-09-01T19:52:33Z</time>
  <course>176.42</course>
  <speed>19.2</speed>
  <fix>3d</fix>
</trkpt>
<trkpt lat="-27.2704066" lon="151.2898049">
  <ele>408.03</ele>
  <time>2026-09-01T19:52:33Z</time>
  <course>177.44</course>
  <speed>19.16453495391944</speed>
  <fix>3d</fix>
</trkpt>
<trkpt lat="-27.2703574" lon="151.289802">
  <ele>408.69</ele>
  <time>2026-09-01T19:52:33Z</time>
  <course>176.42</course>
  <speed>19.2</speed>
  <fix>3d</fix>
</trkpt>
<trkpt lat="-27.2704237" lon="151.2898061">
  <ele>407.86</ele>
  <time>2026-09-01T19:52:33Z</time>
  <course>177.42</course>
  <speed>19.15455298355981</speed>
  <fix>3d</fix>
</trkpt>
<trkpt lat="-27.2703919" lon="151.2898043">
  <ele>408.34</ele>
  <time>2026-09-01T19:52:33Z</time>
  <course>176.41</course>
  <speed>19.21</speed>
  <fix>3d</fix>
</trkpt>
<trkpt lat="-27.2704408" lon="151.2898073">
  <ele>407.69</ele>
  <time>2026-09-01T19:52:33Z</time>
  <course>177.41</course>
  <speed>19.15455298355981</speed>
  <fix>3d</fix>
</trkpt>
<trkpt lat="-27.2703919" lon="151.2898043">
  <ele>408.34</ele>
  <time>2026-09-01T19:52:33Z</time>
  <course>176.41</course>
  <speed>19.21</speed>
  <fix>3d</fix>
</trkpt>
<trkpt lat="-27.2704578" lon="151.2898085">
  <ele>407.52</ele>
  <time>2026-09-01T19:52:33Z</time>
  <course>177.42</course>
  <speed>19.15455298355981</speed>
  <fix>3d</fix>
</trkpt>
<trkpt lat="-27.2704264" lon="151.2898068">
  <ele>408.0</ele>
  <time>2026-09-01T19:52:33Z</time>
  <course>176.4</course>
  <speed>19.22</speed>
  <fix>3d</fix>
</trkpt>
<trkpt lat="-27.2704749" lon="151.2898097">
  <ele>407.35</ele>
  <time>2026-09-01T19:52:33Z</time>
  <course>177.43</course>
  <speed>19.15455298355981</speed>
  <fix>3d</fix>
</trkpt>
<trkpt lat="-27.2704264" lon="151.2898068">
  <ele>408.0</ele>
  <time>2026-09-01T19:52:33Z</time>
  <course>176.4</course>
  <speed>19.22</speed>
  <fix>3d</fix>
</trkpt>
<trkpt lat="-27.2704921" lon="151.2898109">
  <ele>407.18</ele>
  <time>2026-09-01T19:52:33Z</time>
  <course>177.43</course>
  <speed>19.165137620168554</speed>
  <fix>3d</fix>
</trkpt>
<trkpt lat="-27.2704608" lon="151.2898092">
  <ele>407.65</ele>
  <time>2026-09-01T19:52:33Z</time>
  <course>176.4</course>
  <speed>19.22</speed>
  <fix>3d</fix>
</trkpt>
<trkpt lat="-27.2705094" lon="151.2898122">
  <ele>407.0</ele>
  <time>2026-09-01T19:52:33Z</time>
  <course>177.44</course>
  <speed>19.165137620168554</speed>
  <fix>3d</fix>
</trkpt>
<trkpt lat="-27.2704608" lon="151.2898092">
  <ele>407.65</ele>
  <time>2026-09-01T19:52:33Z</time>
  <course>176.4</course>
  <speed>19.22</speed>
  <fix>3d</fix>
</trkpt>
<trkpt lat="-27.2705268" lon="151.2898134">
  <ele>406.83</ele>
  <time>2026-09-01T19:52:33Z</time>
  <course>177.44</course>
  <speed>19.175119295587184</speed>
  <fix>3d</fix>
</trkpt>
<trkpt lat="-27.2704953" lon="151.2898116">
  <ele>407.31</ele>
  <time>2026-09-01T19:52:33Z</time>
  <course>176.4</course>
  <speed>19.23</speed>
  <fix>3d</fix>
</trkpt>
<trkpt lat="-27.2705441" lon="151.2898146">
  <ele>406.65</ele>
  <time>2026-09-01T19:52:33Z</time>
  <course>177.43</course>
  <speed>19.175119295587184</speed>
  <fix>3d</fix>
</trkpt>
<trkpt lat="-27.2704953" lon="151.2898116">
  <ele>407.31</ele>
  <time>2026-09-01T19:52:33Z</time>
  <course>176.4</course>
  <speed>19.23</speed>
  <fix>3d</fix>
</trkpt>
<trkpt lat="-27.2705615" lon="151.2898158">
  <ele>406.48</ele>
  <time>2026-09-01T19:52:33Z</time>
  <course>177.41</course>
  <speed>19.185100990091243</speed>
  <fix>3d</fix>
</trkpt>
<trkpt lat="-27.2705298" lon="151.2898141">
  <ele>406.97</ele>
  <time>2026-09-01T19:52:33Z</time>
  <course>176.39</course>
  <speed>19.23</speed>
  <fix>3d</fix>
</trkpt>
<trkpt lat="-27.2705788" lon="151.2898171">
  <ele>406.3</ele>
  <time>2026-09-01T19:52:33Z</time>
  <course>177.42</course>
  <speed>19.185100990091243</speed>
  <fix>3d</fix>
</trkpt>
<trkpt lat="-27.2705298" lon="151.2898141">
  <ele>406.97</ele>
  <time>2026-09-01T19:52:33Z</time>
  <course>176.39</course>
  <speed>19.23</speed>
  <fix>3d</fix>
</trkpt>
<trkpt lat="-27.2705961" lon="151.2898183">
  <ele>406.12</ele>
  <time>2026-09-01T19:52:33Z</time>
  <course>177.44</course>
  <speed>19.195082703650954</speed>
  <fix>3d</fix>
</trkpt>
<trkpt lat="-27.2705643" lon="151.2898166">
  <ele>406.62</ele>
  <time>2026-09-01T19:52:33Z</time>
  <course>176.4</course>
  <speed>19.23</speed>
  <fix>3d</fix>
</trkpt>
<trkpt lat="-27.2706134" lon="151.2898195">
  <ele>405.94</ele>
  <time>2026-09-01T19:52:33Z</time>
  <course>177.47</course>
  <speed>19.195082703650954</speed>
  <fix>3d</fix>
</trkpt>
<trkpt lat="-27.2705643" lon="151.2898166">
  <ele>406.62</ele>
  <time>2026-09-01T19:52:33Z</time>
  <course>176.4</course>
  <speed>19.23</speed>
  <fix>3d</fix>
</trkpt>
<trkpt lat="-27.2706309" lon="151.2898208">
  <ele>405.76</ele>
  <time>2026-09-01T19:52:33Z</time>
  <course>177.49</course>
  <speed>19.205064436236604</speed>
  <fix>3d</fix>
</trkpt>
<trkpt lat="-27.2705989" lon="151.2898189">
  <ele>406.26</ele>
  <time>2026-09-01T19:52:33Z</time>
  <course>176.4</course>
  <speed>19.24</speed>
  <fix>3d</fix>
</trkpt>
<trkpt lat="-27.2706483" lon="151.289822">
  <ele>405.58</ele>
  <time>2026-09-01T19:52:33Z</time>
  <course>177.46</course>
  <speed>19.21444508696517</speed>
  <fix>3d</fix>
</trkpt>
<trkpt lat="-27.2705989" lon="151.2898189">
  <ele>406.26</ele>
  <time>2026-09-01T19:52:33Z</time>
  <course>176.4</course>
  <speed>19.24</speed>
  <fix>3d</fix>
</trkpt>
<trkpt lat="-27.2706655" lon="151.2898232">
  <ele>405.4</ele>
  <time>2026-09-01T19:52:33Z</time>
  <course>177.42</course>
  <speed>19.21444508696517</speed>
  <fix>3d</fix>
</trkpt>
<trkpt lat="-27.2706334" lon="151.2898214">
  <ele>405.9</ele>
  <time>2026-09-01T19:52:33Z</time>
  <course>176.41</course>
  <speed>19.24</speed>
  <fix>3d</fix>
</trkpt>
<trkpt lat="-27.2706828" lon="151.2898244">
  <ele>405.22</ele>
  <time>2026-09-01T19:52:33Z</time>
  <course>177.43</course>
  <speed>19.224427169619386</speed>
  <fix>3d</fix>
</trkpt>
<trkpt lat="-27.2706334" lon="151.2898214">
  <ele>405.9</ele>
  <time>2026-09-01T19:52:33Z</time>
  <course>176.41</course>
  <speed>19.24</speed>
  <fix>3d</fix>
</trkpt>
<trkpt lat="-27.2707" lon="151.2898256">
  <ele>405.03</ele>
  <time>2026-09-01T19:52:33Z</time>
  <course>177.45</course>
  <speed>19.21444508696517</speed>
  <fix>3d</fix>
</trkpt>
<trkpt lat="-27.2706679" lon="151.2898238">
  <ele>405.53</ele>
  <time>2026-09-01T19:52:34Z</time>
  <course>176.41</course>
  <speed>19.24</speed>
  <fix>3d</fix>
</trkpt>
<trkpt lat="-27.2707171" lon="151.2898268">
  <ele>404.85</ele>
  <time>2026-09-01T19:52:34Z</time>
  <course>177.47</course>
  <speed>19.21444508696517</speed>
  <fix>3d</fix>
</trkpt>
<trkpt lat="-27.2706679" lon="151.2898238">
  <ele>405.53</ele>
  <time>2026-09-01T19:52:34Z</time>
  <course>176.41</course>
  <speed>19.24</speed>
  <fix>3d</fix>
</trkpt>
<trkpt lat="-27.2707342" lon="151.289828">
  <ele>404.66</ele>
  <time>2026-09-01T19:52:34Z</time>
  <course>177.49</course>
  <speed>19.204463022953806</speed>
  <fix>3d</fix>
</trkpt>
<trkpt lat="-27.2707024" lon="151.2898263">
  <ele>405.17</ele>
  <time>2026-09-01T19:52:34Z</time>
  <course>176.42</course>
  <speed>19.25</speed>
  <fix>3d</fix>
</trkpt>
<trkpt lat="-27.2707512" lon="151.2898292">
  <ele>404.47</ele>
  <time>2026-09-01T19:52:34Z</time>
  <course>177.48</course>
  <speed>19.204463022953806</speed>
  <fix>3d</fix>
</trkpt>
<trkpt lat="-27.2707024" lon="151.2898263">
  <ele>405.17</ele>
  <time>2026-09-01T19:52:34Z</time>
  <course>176.42</course>
  <speed>19.25</speed>
  <fix>3d</fix>
</trkpt>
<trkpt lat="-27.2707683" lon="151.2898304">
  <ele>404.28</ele>
  <time>2026-09-01T19:52:34Z</time>
  <course>177.48</course>
  <speed>19.193884442707265</speed>
  <fix>3d</fix>
</trkpt>
<trkpt lat="-27.2707369" lon="151.2898286">
  <ele>404.8</ele>
  <time>2026-09-01T19:52:34Z</time>
  <course>176.43</course>
  <speed>19.25</speed>
  <fix>3d</fix>
</trkpt>
<trkpt lat="-27.2707853" lon="151.2898316">
  <ele>404.08</ele>
  <time>2026-09-01T19:52:34Z</time>
  <course>177.48</course>
  <speed>19.193884442707265</speed>
  <fix>3d</fix>
</trkpt>
<trkpt lat="-27.2707369" lon="151.2898286">
  <ele>404.8</ele>
  <time>2026-09-01T19:52:34Z</time>
  <course>176.43</course>
  <speed>19.25</speed>
  <fix>3d</fix>
</trkpt>
<trkpt lat="-27.2708024" lon="151.2898328">
  <ele>403.89</ele>
  <time>2026-09-01T19:52:34Z</time>
  <course>177.47</course>
  <speed>19.183902105671827</speed>
  <fix>3d</fix>
</trkpt>
<trkpt lat="-27.2707714" lon="151.2898311">
  <ele>404.41</ele>
  <time>2026-09-01T19:52:34Z</time>
  <course>176.44</course>
  <speed>19.26</speed>
  <fix>3d</fix>
</trkpt>
<trkpt lat="-27.2708193" lon="151.289834">
  <ele>403.69</ele>
  <time>2026-09-01T19:52:34Z</time>
  <course>177.46</course>
  <speed>19.183902105671827</speed>
  <fix>3d</fix>
</trkpt>
<trkpt lat="-27.2707714" lon="151.2898311">
  <ele>404.41</ele>
  <time>2026-09-01T19:52:34Z</time>
  <course>176.44</course>
  <speed>19.26</speed>
  <fix>3d</fix>
</trkpt>
<trkpt lat="-27.2708365" lon="151.2898352">
  <ele>403.5</ele>
  <time>2026-09-01T19:52:34Z</time>
  <course>177.47</course>
  <speed>19.183902105671827</speed>
  <fix>3d</fix>
</trkpt>
<trkpt lat="-27.2708059" lon="151.2898336">
  <ele>404.02</ele>
  <time>2026-09-01T19:52:34Z</time>
  <course>176.45</course>
  <speed>19.27</speed>
  <fix>3d</fix>
</trkpt>
<trkpt lat="-27.2708537" lon="151.2898364">
  <ele>403.3</ele>
  <time>2026-09-01T19:52:34Z</time>
  <course>177.46</course>
  <speed>19.193884442707265</speed>
  <fix>3d</fix>
</trkpt>
<trkpt lat="-27.2708059" lon="151.2898336">
  <ele>404.02</ele>
  <time>2026-09-01T19:52:34Z</time>
  <course>176.45</course>
  <speed>19.27</speed>
  <fix>3d</fix>
</trkpt>
<trkpt lat="-27.2708709" lon="151.2898376">
  <ele>403.1</ele>
  <time>2026-09-01T19:52:34Z</time>
  <course>177.48</course>
  <speed>19.193884442707265</speed>
  <fix>3d</fix>
</trkpt>
<trkpt lat="-27.2708405" lon="151.2898359">
  <ele>403.63</ele>
  <time>2026-09-01T19:52:34Z</time>
  <course>176.45</course>
  <speed>19.28</speed>
  <fix>3d</fix>
</trkpt>
<trkpt lat="-27.2708883" lon="151.2898388">
  <ele>402.89</ele>
  <time>2026-09-01T19:52:34Z</time>
  <course>177.47</course>
  <speed>19.203866798121673</speed>
  <fix>3d</fix>
</trkpt>
<trkpt lat="-27.2708405" lon="151.2898359">
  <ele>403.63</ele>
  <time>2026-09-01T19:52:34Z</time>
  <course>176.45</course>
  <speed>19.28</speed>
  <fix>3d</fix>
</trkpt>
<trkpt lat="-27.2709056" lon="151.28984">
  <ele>402.69</ele>
  <time>2026-09-01T19:52:34Z</time>
  <course>177.46</course>
  <speed>19.21384917188641</speed>
  <fix>3d</fix>
</trkpt>
<trkpt lat="-27.2708751" lon="151.2898384">
  <ele>403.22</ele>
  <time>2026-09-01T19:52:34Z</time>
  <course>176.45</course>
  <speed>19.29</speed>
  <fix>3d</fix>
</trkpt>
<trkpt lat="-27.2709229" lon="151.2898412">
  <ele>402.48</ele>
  <time>2026-09-01T19:52:34Z</time>
  <course>177.46</course>
  <speed>19.21384917188641</speed>
  <fix>3d</fix>
</trkpt>
<trkpt lat="-27.2708751" lon="151.2898384">
  <ele>403.22</ele>
  <time>2026-09-01T19:52:34Z</time>
  <course>176.45</course>
  <speed>19.29</speed>
  <fix>3d</fix>
</trkpt>
<trkpt lat="-27.2709403" lon="151.2898424">
  <ele>402.27</ele>
  <time>2026-09-01T19:52:34Z</time>
  <course>177.49</course>
  <speed>19.22383156397288</speed>
  <fix>3d</fix>
</trkpt>
<trkpt lat="-27.2709097" lon="151.2898407">
  <ele>402.81</ele>
  <time>2026-09-01T19:52:34Z</time>
  <course>176.46</course>
  <speed>19.3</speed>
  <fix>3d</fix>
</trkpt>
<trkpt lat="-27.2709576" lon="151.2898436">
  <ele>402.07</ele>
  <time>2026-09-01T19:52:34Z</time>
  <course>177.5</course>
  <speed>19.233813974352564</speed>
  <fix>3d</fix>
</trkpt>
<trkpt lat="-27.2709097" lon="151.2898407">
  <ele>402.81</ele>
  <time>2026-09-01T19:52:34Z</time>
  <course>176.46</course>
  <speed>19.3</speed>
  <fix>3d</fix>
</trkpt>
<trkpt lat="-27.2709749" lon="151.2898448">
  <ele>401.86</ele>
  <time>2026-09-01T19:52:34Z</time>
  <course>177.53</course>
  <speed>19.243796402996992</speed>
  <fix>3d</fix>
</trkpt>
<trkpt lat="-27.2709443" lon="151.2898432">
  <ele>402.4</ele>
  <time>2026-09-01T19:52:34Z</time>
  <course>176.46</course>
  <speed>19.31</speed>
  <fix>3d</fix>
</trkpt>
<trkpt lat="-27.2709923" lon="151.289846">
  <ele>401.65</ele>
  <time>2026-09-01T19:52:34Z</time>
  <course>177.53</course>
  <speed>19.253778849877754</speed>
  <fix>3d</fix>
</trkpt>
<trkpt lat="-27.2709443" lon="151.2898432">
  <ele>402.4</ele>
  <time>2026-09-01T19:52:34Z</time>
  <course>176.46</course>
  <speed>19.31</speed>
  <fix>3d</fix>
</trkpt>
<trkpt lat="-27.2710097" lon="151.2898473">
  <ele>401.44</ele>
  <time>2026-09-01T19:52:34Z</time>
  <course>177.52</course>
  <speed>19.2637613149665</speed>
  <fix>3d</fix>
</trkpt>
<trkpt lat="-27.270979" lon="151.2898455">
  <ele>401.99</ele>
  <time>2026-09-01T19:52:34Z</time>
  <course>176.46</course>
  <speed>19.32</speed>
  <fix>3d</fix>
</trkpt>
<trkpt lat="-27.271027" lon="151.2898484">
  <ele>401.24</ele>
  <time>2026-09-01T19:52:34Z</time>
  <course>177.52</course>
  <speed>19.2637613149665</speed>
  <fix>3d</fix>
</trkpt>
<trkpt lat="-27.270979" lon="151.2898455">
  <ele>401.99</ele>
  <time>2026-09-01T19:52:34Z</time>
  <course>176.46</course>
  <speed>19.32</speed>
  <fix>3d</fix>
</trkpt>
<trkpt lat="-27.2710444" lon="151.2898497">
  <ele>401.03</ele>
  <time>2026-09-01T19:52:34Z</time>
  <course>177.53</course>
  <speed>19.273743798234946</speed>
  <fix>3d</fix>
</trkpt>
<trkpt lat="-27.2710137" lon="151.289848">
  <ele>401.57</ele>
  <time>2026-09-01T19:52:34Z</time>
  <course>176.47</course>
  <speed>19.33</speed>
  <fix>3d</fix>
</trkpt>
<trkpt lat="-27.2710618" lon="151.2898509">
  <ele>400.82</ele>
  <time>2026-09-01T19:52:34Z</time>
  <course>177.53</course>
  <speed>19.283726299654848</speed>
  <fix>3d</fix>
</trkpt>
<trkpt lat="-27.2710137" lon="151.289848">
  <ele>401.57</ele>
  <time>2026-09-01T19:52:34Z</time>
  <course>176.47</course>
  <speed>19.33</speed>
  <fix>3d</fix>
</trkpt>
<trkpt lat="-27.2710792" lon="151.2898521">
  <ele>400.61</ele>
  <time>2026-09-01T19:52:34Z</time>
  <course>177.53</course>
  <speed>19.293708819198034</speed>
  <fix>3d</fix>
</trkpt>
<trkpt lat="-27.2710483" lon="151.2898503">
  <ele>401.16</ele>
  <time>2026-09-01T19:52:34Z</time>
  <course>176.48</course>
  <speed>19.33</speed>
  <fix>3d</fix>
</trkpt>
<trkpt lat="-27.2710965" lon="151.2898532">
  <ele>400.4</ele>
  <time>2026-09-01T19:52:34Z</time>
  <course>177.53</course>
  <speed>19.293708819198034</speed>
  <fix>3d</fix>
</trkpt>
<trkpt lat="-27.2710483" lon="151.2898503">
  <ele>401.16</ele>
  <time>2026-09-01T19:52:34Z</time>
  <course>176.48</course>
  <speed>19.33</speed>
  <fix>3d</fix>
</trkpt>
<trkpt lat="-27.271114" lon="151.2898545">
  <ele>400.19</ele>
  <time>2026-09-01T19:52:34Z</time>
  <course>177.54</course>
  <speed>19.303691356836392</speed>
  <fix>3d</fix>
</trkpt>
<trkpt lat="-27.271083" lon="151.2898528">
  <ele>400.74</ele>
  <time>2026-09-01T19:52:34Z</time>
  <course>176.49</course>
  <speed>19.34</speed>
  <fix>3d</fix>
</trkpt>
<trkpt lat="-27.2711313" lon="151.2898556">
  <ele>399.98</ele>
  <time>2026-09-01T19:52:34Z</time>
  <course>177.54</course>
  <speed>19.30310337743649</speed>
  <fix>3d</fix>
</trkpt>
<trkpt lat="-27.271083" lon="151.2898528">
  <ele>400.74</ele>
  <time>2026-09-01T19:52:34Z</time>
  <course>176.49</course>
  <speed>19.34</speed>
  <fix>3d</fix>
</trkpt>
<trkpt lat="-27.2711486" lon="151.2898568">
  <ele>399.77</ele>
  <time>2026-09-01T19:52:34Z</time>
  <course>177.53</course>
  <speed>19.30310337743649</speed>
  <fix>3d</fix>
</trkpt>
<trkpt lat="-27.2711177" lon="151.2898551">
  <ele>400.32</ele>
  <time>2026-09-01T19:52:34Z</time>
  <course>176.5</course>
  <speed>19.35</speed>
  <fix>3d</fix>
</trkpt>
<trkpt lat="-27.271166" lon="151.289858">
  <ele>399.56</ele>
  <time>2026-09-01T19:52:34Z</time>
  <course>177.52</course>
  <speed>19.30310337743649</speed>
  <fix>3d</fix>
</trkpt>
<trkpt lat="-27.2711177" lon="151.2898551">
  <ele>400.32</ele>
  <time>2026-09-01T19:52:34Z</time>
  <course>176.5</course>
  <speed>19.35</speed>
  <fix>3d</fix>
</trkpt>
<trkpt lat="-27.2711833" lon="151.2898592">
  <ele>399.35</ele>
  <time>2026-09-01T19:52:34Z</time>
  <course>177.52</course>
  <speed>19.313086237056986</speed>
  <fix>3d</fix>
</trkpt>
<trkpt lat="-27.2711524" lon="151.2898576">
  <ele>399.9</ele>
  <time>2026-09-01T19:52:34Z</time>
  <course>176.51</course>
  <speed>19.35</speed>
  <fix>3d</fix>
</trkpt>
<trkpt lat="-27.2712007" lon="151.2898604">
  <ele>399.14</ele>
  <time>2026-09-01T19:52:34Z</time>
  <course>177.52</course>
  <speed>19.313086237056986</speed>
  <fix>3d</fix>
</trkpt>
<trkpt lat="-27.2711524" lon="151.2898576">
  <ele>399.9</ele>
  <time>2026-09-01T19:52:34Z</time>
  <course>176.51</course>
  <speed>19.35</speed>
  <fix>3d</fix>
</trkpt>
<trkpt lat="-27.2712181" lon="151.2898616">
  <ele>398.92</ele>
  <time>2026-09-01T19:52:34Z</time>
  <course>177.49</course>
  <speed>19.323069114403125</speed>
  <fix>3d</fix>
</trkpt>
<trkpt lat="-27.2711871" lon="151.2898599">
  <ele>399.47</ele>
  <time>2026-09-01T19:52:34Z</time>
  <course>176.52</course>
  <speed>19.35</speed>
  <fix>3d</fix>
</trkpt>
<trkpt lat="-27.2712355" lon="151.2898628">
  <ele>398.71</ele>
  <time>2026-09-01T19:52:34Z</time>
  <course>177.47</course>
  <speed>19.323069114403125</speed>
  <fix>3d</fix>
</trkpt>
<trkpt lat="-27.2711871" lon="151.2898599">
  <ele>399.47</ele>
  <time>2026-09-01T19:52:34Z</time>
  <course>176.52</course>
  <speed>19.35</speed>
  <fix>3d</fix>
</trkpt>
<trkpt lat="-27.2712531" lon="151.289864">
  <ele>398.49</ele>
  <time>2026-09-01T19:52:34Z</time>
  <course>177.49</course>
  <speed>19.323069114403125</speed>
  <fix>3d</fix>
</trkpt>
<trkpt lat="-27.2712218" lon="151.2898622">
  <ele>399.05</ele>
  <time>2026-09-01T19:52:34Z</time>
  <course>176.53</course>
  <speed>19.35</speed>
  <fix>3d</fix>
</trkpt>
<trkpt lat="-27.2712705" lon="151.2898652">
  <ele>398.27</ele>
  <time>2026-09-01T19:52:34Z</time>
  <course>177.52</course>
  <speed>19.333052009447446</speed>
  <fix>3d</fix>
</trkpt>
<trkpt lat="-27.2712218" lon="151.2898622">
  <ele>399.05</ele>
  <time>2026-09-01T19:52:34Z</time>
  <course>176.53</course>
  <speed>19.35</speed>
  <fix>3d</fix>
</trkpt>
<trkpt lat="-27.2712879" lon="151.2898664">
  <ele>398.06</ele>
  <time>2026-09-01T19:52:34Z</time>
  <course>177.55</course>
  <speed>19.333052009447446</speed>
  <fix>3d</fix>
</trkpt>
<trkpt lat="-27.2712565" lon="151.2898647">
  <ele>398.62</ele>
  <time>2026-09-01T19:52:34Z</time>
  <course>176.53</course>
  <speed>19.35</speed>
  <fix>3d</fix>
</trkpt>
<trkpt lat="-27.2713053" lon="151.2898675">
  <ele>397.84</ele>
  <time>2026-09-01T19:52:34Z</time>
  <course>177.56</course>
  <speed>19.333052009447446</speed>
  <fix>3d</fix>
</trkpt>
<trkpt lat="-27.2712565" lon="151.2898647">
  <ele>398.62</ele>
  <time>2026-09-01T19:52:34Z</time>
  <course>176.53</course>
  <speed>19.35</speed>
  <fix>3d</fix>
</trkpt>
<trkpt lat="-27.2713227" lon="151.2898687">
  <ele>397.63</ele>
  <time>2026-09-01T19:52:34Z</time>
  <course>177.57</course>
  <speed>19.333052009447446</speed>
  <fix>3d</fix>
</trkpt>
<trkpt lat="-27.2712913" lon="151.289867">
  <ele>398.19</ele>
  <time>2026-09-01T19:52:34Z</time>
  <course>176.53</course>
  <speed>19.35</speed>
  <fix>3d</fix>
</trkpt>
<trkpt lat="-27.27134" lon="151.2898699">
  <ele>397.41</ele>
  <time>2026-09-01T19:52:34Z</time>
  <course>177.57</course>
  <speed>19.333052009447446</speed>
  <fix>3d</fix>
</trkpt>
<trkpt lat="-27.2712913" lon="151.289867">
  <ele>398.19</ele>
  <time>2026-09-01T19:52:34Z</time>
  <course>176.53</course>
  <speed>19.35</speed>
  <fix>3d</fix>
</trkpt>
<trkpt lat="-27.2713573" lon="151.2898711">
  <ele>397.2</ele>
  <time>2026-09-01T19:52:34Z</time>
  <course>177.58</course>
  <speed>19.31250372168249</speed>
  <fix>3d</fix>
</trkpt>
<trkpt lat="-27.271326" lon="151.2898693">
  <ele>397.76</ele>
  <time>2026-09-01T19:52:34Z</time>
  <course>176.54</course>
  <speed>19.36</speed>
  <fix>3d</fix>
</trkpt>
<trkpt lat="-27.2713745" lon="151.2898722">
  <ele>396.99</ele>
  <time>2026-09-01T19:52:34Z</time>
  <course>177.58</course>
  <speed>19.242621962715997</speed>
  <fix>3d</fix>
</trkpt>
<trkpt lat="-27.271326" lon="151.2898693">
  <ele>397.76</ele>
  <time>2026-09-01T19:52:34Z</time>
  <course>176.54</course>
  <speed>19.36</speed>
  <fix>3d</fix>
</trkpt>
<trkpt lat="-27.2713916" lon="151.2898734">
  <ele>396.81</ele>
  <time>2026-09-01T19:52:34Z</time>
  <course>177.57</course>
  <speed>19.132226739195833</speed>
  <fix>3d</fix>
</trkpt>
<trkpt lat="-27.2713607" lon="151.2898717">
  <ele>397.34</ele>
  <time>2026-09-01T19:52:34Z</time>
  <course>176.55</course>
  <speed>19.32</speed>
  <fix>3d</fix>
</trkpt>
<trkpt lat="-27.2714087" lon="151.2898745">
  <ele>396.64</ele>
  <time>2026-09-01T19:52:34Z</time>
  <course>177.56</course>
  <speed>19.001865697872933</speed>
  <fix>3d</fix>
</trkpt>
<trkpt lat="-27.2713607" lon="151.2898717">
  <ele>397.34</ele>
  <time>2026-09-01T19:52:34Z</time>
  <course>176.55</course>
  <speed>19.32</speed>
  <fix>3d</fix>
</trkpt>
<trkpt lat="-27.2714257" lon="151.2898757">
  <ele>396.5</ele>
  <time>2026-09-01T19:52:34Z</time>
  <course>177.56</course>
  <speed>18.862102215818894</speed>
  <fix>3d</fix>
</trkpt>
<trkpt lat="-27.2713953" lon="151.2898741">
  <ele>396.95</ele>
  <time>2026-09-01T19:52:34Z</time>
  <course>176.56</course>
  <speed>19.16</speed>
  <fix>3d</fix>
</trkpt>
<trkpt lat="-27.2714426" lon="151.2898769">
  <ele>396.37</ele>
  <time>2026-09-01T19:52:34Z</time>
  <course>177.57</course>
  <speed>18.731740442361463</speed>
  <fix>3d</fix>
</trkpt>
<trkpt lat="-27.2713953" lon="151.2898741">
  <ele>396.95</ele>
  <time>2026-09-01T19:52:34Z</time>
  <course>176.56</course>
  <speed>19.16</speed>
  <fix>3d</fix>
</trkpt>
<trkpt lat="-27.2714594" lon="151.289878">
  <ele>396.26</ele>
  <time>2026-09-01T19:52:34Z</time>
  <course>177.57</course>
  <speed>18.59139585937538</speed>
  <fix>3d</fix>
</trkpt>
<trkpt lat="-27.2714294" lon="151.2898764">
  <ele>396.64</ele>
  <time>2026-09-01T19:52:34Z</time>
  <course>176.56</course>
  <speed>18.9</speed>
  <fix>3d</fix>
</trkpt>
<trkpt lat="-27.2714761" lon="151.2898791">
  <ele>396.17</ele>
  <time>2026-09-01T19:52:34Z</time>
  <course>177.58</course>
  <speed>18.441651227588054</speed>
  <fix>3d</fix>
</trkpt>
<trkpt lat="-27.2714294" lon="151.2898764">
  <ele>396.64</ele>
  <time>2026-09-01T19:52:34Z</time>
  <course>176.56</course>
  <speed>18.9</speed>
  <fix>3d</fix>
</trkpt>
<trkpt lat="-27.2714928" lon="151.2898803">
  <ele>396.1</ele>
  <time>2026-09-01T19:52:34Z</time>
  <course>177.58</course>
  <speed>18.29132307953692</speed>
  <fix>3d</fix>
</trkpt>
<trkpt lat="-27.271463" lon="151.2898786">
  <ele>396.41</ele>
  <time>2026-09-01T19:52:34Z</time>
  <course>176.57</course>
  <speed>18.62</speed>
  <fix>3d</fix>
</trkpt>
<trkpt lat="-27.2715092" lon="151.2898814">
  <ele>396.03</ele>
  <time>2026-09-01T19:52:34Z</time>
  <course>177.59</course>
  <speed>18.13101210633317</speed>
  <fix>3d</fix>
</trkpt>
<trkpt lat="-27.271463" lon="151.2898786">
  <ele>396.41</ele>
  <time>2026-09-01T19:52:34Z</time>
  <course>176.57</course>
  <speed>18.62</speed>
  <fix>3d</fix>
</trkpt>
<trkpt lat="-27.2715255" lon="151.2898825">
  <ele>395.98</ele>
  <time>2026-09-01T19:52:34Z</time>
  <course>177.59</course>
  <speed>17.970701154935497</speed>
  <fix>3d</fix>
</trkpt>
<trkpt lat="-27.2714961" lon="151.2898809">
  <ele>396.24</ele>
  <time>2026-09-01T19:52:34Z</time>
  <course>176.57</course>
  <speed>18.31</speed>
  <fix>3d</fix>
</trkpt>
<trkpt lat="-27.2715417" lon="151.2898836">
  <ele>395.95</ele>
  <time>2026-09-01T19:52:34Z</time>
  <course>177.59</course>
  <speed>17.800407298710894</speed>
  <fix>3d</fix>
</trkpt>
<trkpt lat="-27.2714961" lon="151.2898809">
  <ele>396.24</ele>
  <time>2026-09-01T19:52:34Z</time>
  <course>176.57</course>
  <speed>18.31</speed>
  <fix>3d</fix>
</trkpt>
<trkpt lat="-27.2715577" lon="151.2898847">
  <ele>395.92</ele>
  <time>2026-09-01T19:52:34Z</time>
  <course>177.6</course>
  <speed>17.63070049657699</speed>
  <fix>3d</fix>
</trkpt>
<trkpt lat="-27.2715287" lon="151.2898831">
  <ele>396.13</ele>
  <time>2026-09-01T19:52:34Z</time>
  <course>176.58</course>
  <speed>17.98</speed>
  <fix>3d</fix>
</trkpt>
<trkpt lat="-27.2715587" lon="151.2898848">
  <ele>395.92</ele>
  <time>2026-09-01T19:52:34Z</time>
  <course>177.6</course>
  <speed>17.620130533001166</speed>
  <fix>3d</fix>
</trkpt>
<trkpt lat="-27.2715735" lon="151.2898858">
  <ele>395.89</ele>
  <time>2026-09-01T19:52:34Z</time>
  <course>177.6</course>
  <speed>17.44983667545344</speed>
  <fix>3d</fix>
</trkpt>
<trkpt lat="-27.2715287" lon="151.2898831">
  <ele>396.13</ele>
  <time>2026-09-01T19:52:34Z</time>
  <course>176.58</course>
  <speed>17.98</speed>
  <fix>3d</fix>
</trkpt>
<trkpt lat="-27.271574" lon="151.2898858">
  <ele>395.89</ele>
  <time>2026-09-01T19:52:34Z</time>
  <course>177.6</course>
  <speed>17.44983667545344</speed>
  <fix>3d</fix>
</trkpt>
<trkpt lat="-27.2715892" lon="151.2898868">
  <ele>395.87</ele>
  <time>2026-09-01T19:52:34Z</time>
  <course>177.61</course>
  <speed>17.279542818026176</speed>
  <fix>3d</fix>
</trkpt>
<trkpt lat="-27.2715606" lon="151.2898852">
  <ele>396.06</ele>
  <time>2026-09-01T19:52:34Z</time>
  <course>176.59</course>
  <speed>17.63</speed>
  <fix>3d</fix>
</trkpt>
<trkpt lat="-27.2715899" lon="151.2898869">
  <ele>395.87</ele>
  <time>2026-09-01T19:52:34Z</time>
  <course>177.61</course>
  <speed>17.279542818026176</speed>
  <fix>3d</fix>
</trkpt>
<trkpt lat="-27.2716048" lon="151.2898879">
  <ele>395.85</ele>
  <time>2026-09-01T19:52:34Z</time>
  <course>177.62</course>
  <speed>17.1192318752916</speed>
  <fix>3d</fix>
</trkpt>
<trkpt lat="-27.2715606" lon="151.2898852">
  <ele>396.06</ele>
  <time>2026-09-01T19:52:34Z</time>
  <course>176.59</course>
  <speed>17.63</speed>
  <fix>3d</fix>
</trkpt>
<trkpt lat="-27.2716054" lon="151.2898879">
  <ele>395.84</ele>
  <time>2026-09-01T19:52:34Z</time>
  <course>177.62</course>
  <speed>17.10924896072297</speed>
  <fix>3d</fix>
</trkpt>
<trkpt lat="-27.2716201" lon="151.2898889">
  <ele>395.81</ele>
  <time>2026-09-01T19:52:34Z</time>
  <course>177.64</course>
  <speed>16.95834013103877</speed>
  <fix>3d</fix>
</trkpt>
<trkpt lat="-27.2715919" lon="151.2898873">
  <ele>396.0</ele>
  <time>2026-09-01T19:52:34Z</time>
  <course>176.62</course>
  <speed>17.28</speed>
  <fix>3d</fix>
</trkpt>
<trkpt lat="-27.2716206" lon="151.289889">
  <ele>395.8</ele>
  <time>2026-09-01T19:52:34Z</time>
  <course>177.64</course>
  <speed>16.95834013103877</speed>
  <fix>3d</fix>
</trkpt>
<trkpt lat="-27.2716353" lon="151.2898899">
  <ele>395.75</ele>
  <time>2026-09-01T19:52:34Z</time>
  <course>177.66</course>
  <speed>16.808012970009273</speed>
  <fix>3d</fix>
</trkpt>
<trkpt lat="-27.2715919" lon="151.2898873">
  <ele>396.0</ele>
  <time>2026-09-01T19:52:34Z</time>
  <course>176.62</course>
  <speed>17.28</speed>
  <fix>3d</fix>
</trkpt>
<trkpt lat="-27.2716358" lon="151.28989">
  <ele>395.74</ele>
  <time>2026-09-01T19:52:34Z</time>
  <course>177.66</course>
  <speed>16.808012970009273</speed>
  <fix>3d</fix>
</trkpt>
<trkpt lat="-27.2716503" lon="151.2898909">
  <ele>395.66</ele>
  <time>2026-09-01T19:52:34Z</time>
  <course>177.68</course>
  <speed>16.677652712537217</speed>
  <fix>3d</fix>
</trkpt>
<trkpt lat="-27.2716226" lon="151.2898893">
  <ele>395.93</ele>
  <time>2026-09-01T19:52:34Z</time>
  <course>176.66</course>
  <speed>16.95</speed>
  <fix>3d</fix>
</trkpt>
<trkpt lat="-27.2716508" lon="151.289891">
  <ele>395.66</ele>
  <time>2026-09-01T19:52:34Z</time>
  <course>177.68</course>
  <speed>16.677652712537217</speed>
  <fix>3d</fix>
</trkpt>
<trkpt lat="-27.2716651" lon="151.2898919">
  <ele>395.55</ele>
  <time>2026-09-01T19:52:34Z</time>
  <course>177.7</course>
  <speed>16.5572763460661</speed>
  <fix>3d</fix>
</trkpt>
<trkpt lat="-27.2716226" lon="151.2898893">
  <ele>395.93</ele>
  <time>2026-09-01T19:52:34Z</time>
  <course>176.66</course>
  <speed>16.95</speed>
  <fix>3d</fix>
</trkpt>
<trkpt lat="-27.2716655" lon="151.2898919">
  <ele>395.55</ele>
  <time>2026-09-01T19:52:34Z</time>
  <course>177.7</course>
  <speed>16.5572763460661</speed>
  <fix>3d</fix>
</trkpt>
<trkpt lat="-27.2716799" lon="151.2898929">
  <ele>395.42</ele>
  <time>2026-09-01T19:52:34Z</time>
  <course>177.72</course>
  <speed>16.456867867246185</speed>
  <fix>3d</fix>
</trkpt>
<trkpt lat="-27.2716528" lon="151.2898913">
  <ele>395.78</ele>
  <time>2026-09-01T19:52:34Z</time>
  <course>176.7</course>
  <speed>16.67</speed>
  <fix>3d</fix>
</trkpt>
<trkpt lat="-27.2716803" lon="151.2898929">
  <ele>395.42</ele>
  <time>2026-09-01T19:52:34Z</time>
  <course>177.72</course>
  <speed>16.446884203398525</speed>
  <fix>3d</fix>
</trkpt>
<trkpt lat="-27.2716947" lon="151.2898938">
  <ele>395.27</ele>
  <time>2026-09-01T19:52:34Z</time>
  <course>177.74</course>
  <speed>16.36644432978648</speed>
  <fix>3d</fix>
</trkpt>
<trkpt lat="-27.2716528" lon="151.2898913">
  <ele>395.78</ele>
  <time>2026-09-01T19:52:34Z</time>
  <course>176.7</course>
  <speed>16.67</speed>
  <fix>3d</fix>
</trkpt>
<trkpt lat="-27.271695" lon="151.2898939">
  <ele>395.26</ele>
  <time>2026-09-01T19:52:34Z</time>
  <course>177.74</course>
  <speed>16.36644432978648</speed>
  <fix>3d</fix>
</trkpt>
<trkpt lat="-27.2717094" lon="151.2898948">
  <ele>395.09</ele>
  <time>2026-09-01T19:52:34Z</time>
  <course>177.75</course>
  <speed>16.29599030436629</speed>
  <fix>3d</fix>
</trkpt>
<trkpt lat="-27.2716825" lon="151.2898932">
  <ele>395.54</ele>
  <time>2026-09-01T19:52:34Z</time>
  <course>176.73</course>
  <speed>16.45</speed>
  <fix>3d</fix>
</trkpt>
<trkpt lat="-27.271724" lon="151.2898957">
  <ele>394.9</ele>
  <time>2026-09-01T19:52:34Z</time>
  <course>177.76</course>
  <speed>16.245507071187404</speed>
  <fix>3d</fix>
</trkpt>
<trkpt lat="-27.2716825" lon="151.2898932">
  <ele>395.54</ele>
  <time>2026-09-01T19:52:34Z</time>
  <course>176.73</course>
  <speed>16.45</speed>
  <fix>3d</fix>
</trkpt>
<trkpt lat="-27.2717245" lon="151.2898958">
  <ele>394.89</ele>
  <time>2026-09-01T19:52:34Z</time>
  <course>177.76</course>
  <speed>16.235522781850914</speed>
  <fix>3d</fix>
</trkpt>
<trkpt lat="-27.2717386" lon="151.2898967">
  <ele>394.69</ele>
  <time>2026-09-01T19:52:34Z</time>
  <course>177.78</course>
  <speed>16.205570030085333</speed>
  <fix>3d</fix>
</trkpt>
<trkpt lat="-27.2717119" lon="151.2898951">
  <ele>395.21</ele>
  <time>2026-09-01T19:52:34Z</time>
  <course>176.76</course>
  <speed>16.28</speed>
  <fix>3d</fix>
</trkpt>
<trkpt lat="-27.2717391" lon="151.2898967">
  <ele>394.69</ele>
  <time>2026-09-01T19:52:34Z</time>
  <course>177.78</course>
  <speed>16.205570030085333</speed>
  <fix>3d</fix>
</trkpt>
<trkpt lat="-27.2717532" lon="151.2898976">
  <ele>394.48</ele>
  <time>2026-09-01T19:52:34Z</time>
  <course>177.79</course>
  <speed>16.175057959710685</speed>
  <fix>3d</fix>
</trkpt>
<trkpt lat="-27.2717119" lon="151.2898951">
  <ele>395.21</ele>
  <time>2026-09-01T19:52:34Z</time>
  <course>176.76</course>
  <speed>16.28</speed>
  <fix>3d</fix>
</trkpt>
<trkpt lat="-27.2717615" lon="151.2898981">
  <ele>394.35</ele>
  <time>2026-09-01T19:52:34Z</time>
  <course>177.8</course>
  <speed>16.165073461014643</speed>
  <fix>3d</fix>
</trkpt>
<trkpt lat="-27.2717678" lon="151.2898985">
  <ele>394.25</ele>
  <time>2026-09-01T19:52:34Z</time>
  <course>177.81</course>
  <speed>16.165073461014643</speed>
  <fix>3d</fix>
</trkpt>
<trkpt lat="-27.271741" lon="151.2898969">
  <ele>394.81</ele>
  <time>2026-09-01T19:52:34Z</time>
  <course>176.78</course>
  <speed>16.18</speed>
  <fix>3d</fix>
</trkpt>
<trkpt lat="-27.2717823" lon="151.2898994">
  <ele>394.02</ele>
  <time>2026-09-01T19:52:34Z</time>
  <course>177.82</course>
  <speed>16.16451978872246</speed>
  <fix>3d</fix>
</trkpt>
<trkpt lat="-27.271741" lon="151.2898969">
  <ele>394.81</ele>
  <time>2026-09-01T19:52:34Z</time>
  <course>176.78</course>
  <speed>16.18</speed>
  <fix>3d</fix>
</trkpt>
<trkpt lat="-27.2717969" lon="151.2899003">
  <ele>393.79</ele>
  <time>2026-09-01T19:52:34Z</time>
  <course>177.83</course>
  <speed>16.17450462919962</speed>
  <fix>3d</fix>
</trkpt>
<trkpt lat="-27.2717699" lon="151.2898988">
  <ele>394.37</ele>
  <time>2026-09-01T19:52:34Z</time>
  <course>176.8</course>
  <speed>16.14</speed>
  <fix>3d</fix>
</trkpt>
<trkpt lat="-27.2717974" lon="151.2899004">
  <ele>393.78</ele>
  <time>2026-09-01T19:52:34Z</time>
  <course>177.83</course>
  <speed>16.17450462919962</speed>
  <fix>3d</fix>
</trkpt>
<trkpt lat="-27.2718114" lon="151.2899013">
  <ele>393.55</ele>
  <time>2026-09-01T19:52:34Z</time>
  <course>177.84</course>
  <speed>16.184489488395982</speed>
  <fix>3d</fix>
</trkpt>
<trkpt lat="-27.2717699" lon="151.2898988">
  <ele>394.37</ele>
  <time>2026-09-01T19:52:34Z</time>
  <course>176.8</course>
  <speed>16.14</speed>
  <fix>3d</fix>
</trkpt>
<trkpt lat="-27.2718119" lon="151.2899013">
  <ele>393.55</ele>
  <time>2026-09-01T19:52:34Z</time>
  <course>177.84</course>
  <speed>16.184489488395982</speed>
  <fix>3d</fix>
</trkpt>
<trkpt lat="-27.271826" lon="151.2899022">
  <ele>393.33</ele>
  <time>2026-09-01T19:52:34Z</time>
  <course>177.85</course>
  <speed>16.21444417795442</speed>
  <fix>3d</fix>
</trkpt>
<trkpt lat="-27.2717989" lon="151.2899006">
  <ele>393.91</ele>
  <time>2026-09-01T19:52:34Z</time>
  <course>176.81</course>
  <speed>16.14</speed>
  <fix>3d</fix>
</trkpt>
<trkpt lat="-27.2718265" lon="151.2899022">
  <ele>393.32</ele>
  <time>2026-09-01T19:52:34Z</time>
  <course>177.85</course>
  <speed>16.21444417795442</speed>
  <fix>3d</fix>
</trkpt>
<trkpt lat="-27.2718406" lon="151.2899031">
  <ele>393.1</ele>
  <time>2026-09-01T19:52:34Z</time>
  <course>177.85</course>
  <speed>16.23441406395685</speed>
  <fix>3d</fix>
</trkpt>
<trkpt lat="-27.2717989" lon="151.2899006">
  <ele>393.91</ele>
  <time>2026-09-01T19:52:34Z</time>
  <course>176.81</course>
  <speed>16.14</speed>
  <fix>3d</fix>
</trkpt>
<trkpt lat="-27.2718411" lon="151.2899031">
  <ele>393.09</ele>
  <time>2026-09-01T19:52:34Z</time>
  <course>177.85</course>
  <speed>16.23441406395685</speed>
  <fix>3d</fix>
</trkpt>
<trkpt lat="-27.2718552" lon="151.289904">
  <ele>392.88</ele>
  <time>2026-09-01T19:52:34Z</time>
  <course>177.86</course>
  <speed>16.264369031720843</speed>
  <fix>3d</fix>
</trkpt>
<trkpt lat="-27.2718279" lon="151.2899024">
  <ele>393.45</ele>
  <time>2026-09-01T19:52:34Z</time>
  <course>176.82</course>
  <speed>16.17</speed>
  <fix>3d</fix>
</trkpt>
<trkpt lat="-27.2718557" lon="151.289904">
  <ele>392.87</ele>
  <time>2026-09-01T19:52:34Z</time>
  <course>177.86</course>
  <speed>16.264369031720843</speed>
  <fix>3d</fix>
</trkpt>
<trkpt lat="-27.2718698" lon="151.2899049">
  <ele>392.66</ele>
  <time>2026-09-01T19:52:34Z</time>
  <course>177.86</course>
  <speed>16.294324165180953</speed>
  <fix>3d</fix>
</trkpt>
<trkpt lat="-27.2718279" lon="151.2899024">
  <ele>393.45</ele>
  <time>2026-09-01T19:52:34Z</time>
  <course>176.82</course>
  <speed>16.17</speed>
  <fix>3d</fix>
</trkpt>
<trkpt lat="-27.2718703" lon="151.2899049">
  <ele>392.65</ele>
  <time>2026-09-01T19:52:34Z</time>
  <course>177.86</course>
  <speed>16.294324165180953</speed>
  <fix>3d</fix>
</trkpt>
<trkpt lat="-27.2718844" lon="151.2899058">
  <ele>392.45</ele>
  <time>2026-09-01T19:52:34Z</time>
  <course>177.86</course>
  <speed>16.324279463425025</speed>
  <fix>3d</fix>
</trkpt>
<trkpt lat="-27.2718569" lon="151.2899042">
  <ele>393.01</ele>
  <time>2026-09-01T19:52:34Z</time>
  <course>176.81</course>
  <speed>16.22</speed>
  <fix>3d</fix>
</trkpt>
<trkpt lat="-27.2718849" lon="151.2899058">
  <ele>392.44</ele>
  <time>2026-09-01T19:52:34Z</time>
  <course>177.86</course>
  <speed>16.324279463425025</speed>
  <fix>3d</fix>
</trkpt>
<trkpt lat="-27.2718991" lon="151.2899067">
  <ele>392.24</ele>
  <time>2026-09-01T19:52:34Z</time>
  <course>177.86</course>
  <speed>16.354234925547573</speed>
  <fix>3d</fix>
</trkpt>
<trkpt lat="-27.2718569" lon="151.2899042">
  <ele>393.01</ele>
  <time>2026-09-01T19:52:34Z</time>
  <course>176.81</course>
  <speed>16.22</speed>
  <fix>3d</fix>
</trkpt>
<trkpt lat="-27.2718996" lon="151.2899067">
  <ele>392.23</ele>
  <time>2026-09-01T19:52:34Z</time>
  <course>177.86</course>
  <speed>16.354234925547573</speed>
  <fix>3d</fix>
</trkpt>
<trkpt lat="-27.2719136" lon="151.2899076">
  <ele>392.04</ele>
  <time>2026-09-01T19:52:34Z</time>
  <course>177.86</course>
  <speed>16.384190550649734</speed>
  <fix>3d</fix>
</trkpt>
<trkpt lat="-27.2718861" lon="151.289906">
  <ele>392.58</ele>
  <time>2026-09-01T19:52:34Z</time>
  <course>176.81</course>
  <speed>16.28</speed>
  <fix>3d</fix>
</trkpt>
<trkpt lat="-27.2719142" lon="151.2899076">
  <ele>392.03</ele>
  <time>2026-09-01T19:52:34Z</time>
  <course>177.86</course>
  <speed>16.384190550649734</speed>
  <fix>3d</fix>
</trkpt>
<trkpt lat="-27.2719282" lon="151.2899085">
  <ele>391.84</ele>
  <time>2026-09-01T19:52:34Z</time>
  <course>177.86</course>
  <speed>16.4141463378392</speed>
  <fix>3d</fix>
</trkpt>
<trkpt lat="-27.2718861" lon="151.289906">
  <ele>392.58</ele>
  <time>2026-09-01T19:52:34Z</time>
  <course>176.81</course>
  <speed>16.28</speed>
  <fix>3d</fix>
</trkpt>
<trkpt lat="-27.2719288" lon="151.2899085">
  <ele>391.84</ele>
  <time>2026-09-01T19:52:34Z</time>
  <course>177.86</course>
  <speed>16.4141463378392</speed>
  <fix>3d</fix>
</trkpt>
<trkpt lat="-27.2719428" lon="151.2899094">
  <ele>391.65</ele>
  <time>2026-09-01T19:52:34Z</time>
  <course>177.86</course>
  <speed>16.434116952242977</speed>
  <fix>3d</fix>
</trkpt>
<trkpt lat="-27.2719154" lon="151.2899079">
  <ele>392.16</ele>
  <time>2026-09-01T19:52:34Z</time>
  <course>176.8</course>
  <speed>16.35</speed>
  <fix>3d</fix>
</trkpt>
<trkpt lat="-27.2719469" lon="151.2899097">
  <ele>391.6</ele>
  <time>2026-09-01T19:52:34Z</time>
  <course>177.86</course>
  <speed>16.444102286230162</speed>
  <fix>3d</fix>
</trkpt>
<trkpt lat="-27.2719575" lon="151.2899103">
  <ele>391.46</ele>
  <time>2026-09-01T19:52:34Z</time>
  <course>177.85</course>
  <speed>16.46407300761267</speed>
  <fix>3d</fix>
</trkpt>
<trkpt lat="-27.2719154" lon="151.2899079">
  <ele>392.16</ele>
  <time>2026-09-01T19:52:34Z</time>
  <course>176.8</course>
  <speed>16.35</speed>
  <fix>3d</fix>
</trkpt>
<trkpt lat="-27.271963" lon="151.2899107">
  <ele>391.39</ele>
  <time>2026-09-01T19:52:34Z</time>
  <course>177.85</course>
  <speed>16.474058394943246</speed>
  <fix>3d</fix>
</trkpt>
<trkpt lat="-27.2719723" lon="151.2899112">
  <ele>391.27</ele>
  <time>2026-09-01T19:52:34Z</time>
  <course>177.85</course>
  <speed>16.494029222721778</speed>
  <fix>3d</fix>
</trkpt>
<trkpt lat="-27.2719448" lon="151.2899097">
  <ele>391.77</ele>
  <time>2026-09-01T19:52:34Z</time>
  <course>176.79</course>
  <speed>16.41</speed>
  <fix>3d</fix>
</trkpt>
<trkpt lat="-27.2719752" lon="151.2899114">
  <ele>391.23</ele>
  <time>2026-09-01T19:52:34Z</time>
  <course>177.85</course>
  <speed>16.50401466310546</speed>
  <fix>3d</fix>
</trkpt>
<trkpt lat="-27.271987" lon="151.2899121">
  <ele>391.09</ele>
  <time>2026-09-01T19:52:34Z</time>
  <course>177.85</course>
  <speed>16.52398559670154</speed>
  <fix>3d</fix>
</trkpt>
<trkpt lat="-27.2719448" lon="151.2899097">
  <ele>391.77</ele>
  <time>2026-09-01T19:52:34Z</time>
  <course>176.79</course>
  <speed>16.41</speed>
  <fix>3d</fix>
</trkpt>
<trkpt lat="-27.2719933" lon="151.2899125">
  <ele>391.01</ele>
  <time>2026-09-01T19:52:34Z</time>
  <course>177.85</course>
  <speed>16.533971089850134</speed>
  <fix>3d</fix>
</trkpt>
<trkpt lat="-27.2720018" lon="151.2899131">
  <ele>390.9</ele>
  <time>2026-09-01T19:52:34Z</time>
  <course>177.84</course>
  <speed>16.553942128689467</speed>
  <fix>3d</fix>
</trkpt>
<trkpt lat="-27.2719744" lon="151.2899115">
  <ele>391.39</ele>
  <time>2026-09-01T19:52:34Z</time>
  <course>176.77</course>
  <speed>16.48</speed>
  <fix>3d</fix>
</trkpt>
<trkpt lat="-27.2720081" lon="151.2899135">
  <ele>390.82</ele>
  <time>2026-09-01T19:52:34Z</time>
  <course>177.84</course>
  <speed>16.56392767431686</speed>
  <fix>3d</fix>
</trkpt>
<trkpt lat="-27.2720166" lon="151.289914">
  <ele>390.71</ele>
  <time>2026-09-01T19:52:34Z</time>
  <course>177.84</course>
  <speed>16.5838988178293</speed>
  <fix>3d</fix>
</trkpt>
<trkpt lat="-27.2719744" lon="151.2899115">
  <ele>391.39</ele>
  <time>2026-09-01T19:52:34Z</time>
  <course>176.77</course>
  <speed>16.48</speed>
  <fix>3d</fix>
</trkpt>
<trkpt lat="-27.272022" lon="151.2899143">
  <ele>390.65</ele>
  <time>2026-09-01T19:52:34Z</time>
  <course>177.84</course>
  <speed>16.59388441565145</speed>
  <fix>3d</fix>
</trkpt>
<trkpt lat="-27.2720314" lon="151.2899149">
  <ele>390.53</ele>
  <time>2026-09-01T19:52:34Z</time>
  <course>177.83</course>
  <speed>16.624379687675567</speed>
  <fix>3d</fix>
</trkpt>
<trkpt lat="-27.272004" lon="151.2899134">
  <ele>391.02</ele>
  <time>2026-09-01T19:52:34Z</time>
  <course>176.76</course>
  <speed>16.55</speed>
  <fix>3d</fix>
</trkpt>
<trkpt lat="-27.2720374" lon="151.2899153">
  <ele>390.45</ele>
  <time>2026-09-01T19:52:34Z</time>
  <course>177.83</course>
  <speed>16.63436503146423</speed>
  <fix>3d</fix>
</trkpt>
<trkpt lat="-27.2720463" lon="151.2899158">
  <ele>390.34</ele>
  <time>2026-09-01T19:52:34Z</time>
  <course>177.83</course>
  <speed>16.664321168292453</speed>
  <fix>3d</fix>
</trkpt>
<trkpt lat="-27.272004" lon="151.2899134">
  <ele>391.02</ele>
  <time>2026-09-01T19:52:34Z</time>
  <course>176.76</course>
  <speed>16.55</speed>
  <fix>3d</fix>
</trkpt>
<trkpt lat="-27.2720523" lon="151.2899162">
  <ele>390.27</ele>
  <time>2026-09-01T19:52:34Z</time>
  <course>177.82</course>
  <speed>16.674306582284014</speed>
  <fix>3d</fix>
</trkpt>
<trkpt lat="-27.2720613" lon="151.2899168">
  <ele>390.16</ele>
  <time>2026-09-01T19:52:34Z</time>
  <course>177.82</course>
  <speed>16.704262928965168</speed>
  <fix>3d</fix>
</trkpt>
<trkpt lat="-27.2720338" lon="151.2899153">
  <ele>390.66</ele>
  <time>2026-09-01T19:52:34Z</time>
  <course>176.75</course>
  <speed>16.63</speed>
  <fix>3d</fix>
</trkpt>
<trkpt lat="-27.2720618" lon="151.2899168">
  <ele>390.15</ele>
  <time>2026-09-01T19:52:34Z</time>
  <course>177.82</course>
  <speed>16.704262928965168</speed>
  <fix>3d</fix>
</trkpt>
<trkpt lat="-27.2720763" lon="151.2899177">
  <ele>389.97</ele>
  <time>2026-09-01T19:52:34Z</time>
  <course>177.81</course>
  <speed>16.74420496768957</speed>
  <fix>3d</fix>
</trkpt>
<trkpt lat="-27.2720338" lon="151.2899153">
  <ele>390.66</ele>
  <time>2026-09-01T19:52:34Z</time>
  <course>176.75</course>
  <speed>16.63</speed>
  <fix>3d</fix>
</trkpt>
<trkpt lat="-27.2720804" lon="151.289918">
  <ele>389.92</ele>
  <time>2026-09-01T19:52:34Z</time>
  <course>177.81</course>
  <speed>16.7541905205832</speed>
  <fix>3d</fix>
</trkpt>
<trkpt lat="-27.2720914" lon="151.2899187">
  <ele>389.79</ele>
  <time>2026-09-01T19:52:34Z</time>
  <course>177.81</course>
  <speed>16.784686473092073</speed>
  <fix>3d</fix>
</trkpt>
<trkpt lat="-27.2720636" lon="151.2899172">
  <ele>390.29</ele>
  <time>2026-09-01T19:52:34Z</time>
  <course>176.73</course>
  <speed>16.71</speed>
  <fix>3d</fix>
</trkpt>
<trkpt lat="-27.2720983" lon="151.2899191">
  <ele>389.71</ele>
  <time>2026-09-01T19:52:34Z</time>
  <course>177.8</course>
  <speed>16.804657092603826</speed>
  <fix>3d</fix>
</trkpt>
<trkpt lat="-27.2721065" lon="151.2899196">
  <ele>389.62</ele>
  <time>2026-09-01T19:52:34Z</time>
  <course>177.8</course>
  <speed>16.814642428550183</speed>
  <fix>3d</fix>
</trkpt>
<trkpt lat="-27.2720636" lon="151.2899172">
  <ele>390.29</ele>
  <time>2026-09-01T19:52:34Z</time>
  <course>176.73</course>
  <speed>16.71</speed>
  <fix>3d</fix>
</trkpt>
<trkpt lat="-27.2721146" lon="151.2899201">
  <ele>389.53</ele>
  <time>2026-09-01T19:52:34Z</time>
  <course>177.79</course>
  <speed>16.83461315266852</speed>
  <fix>3d</fix>
</trkpt>
<trkpt lat="-27.2721217" lon="151.2899206">
  <ele>389.45</ele>
  <time>2026-09-01T19:52:34Z</time>
  <course>177.79</course>
  <speed>16.844598540778584</speed>
  <fix>3d</fix>
</trkpt>
<trkpt lat="-27.2720936" lon="151.2899191">
  <ele>389.93</ele>
  <time>2026-09-01T19:52:34Z</time>
  <course>176.72</course>
  <speed>16.78</speed>
  <fix>3d</fix>
</trkpt>
<trkpt lat="-27.2721292" lon="151.2899211">
  <ele>389.37</ele>
  <time>2026-09-01T19:52:34Z</time>
  <course>177.79</course>
  <speed>16.85458394621475</speed>
  <fix>3d</fix>
</trkpt>
<trkpt lat="-27.2721368" lon="151.2899215">
  <ele>389.29</ele>
  <time>2026-09-01T19:52:34Z</time>
  <course>177.79</course>
  <speed>16.85458394621475</speed>
  <fix>3d</fix>
</trkpt>
<trkpt lat="-27.2720936" lon="151.2899191">
  <ele>389.93</ele>
  <time>2026-09-01T19:52:34Z</time>
  <course>176.72</course>
  <speed>16.78</speed>
  <fix>3d</fix>
</trkpt>
<trkpt lat="-27.2721423" lon="151.2899219">
  <ele>389.24</ele>
  <time>2026-09-01T19:52:34Z</time>
  <course>177.78</course>
  <speed>16.86456936894625</speed>
  <fix>3d</fix>
</trkpt>
<trkpt lat="-27.272152" lon="151.2899225">
  <ele>389.14</ele>
  <time>2026-09-01T19:52:34Z</time>
  <course>177.78</course>
  <speed>16.86456936894625</speed>
  <fix>3d</fix>
</trkpt>
<trkpt lat="-27.2721238" lon="151.2899211">
  <ele>389.59</ele>
  <time>2026-09-01T19:52:34Z</time>
  <course>176.7</course>
  <speed>16.84</speed>
  <fix>3d</fix>
</trkpt>
<trkpt lat="-27.2721581" lon="151.2899229">
  <ele>389.08</ele>
  <time>2026-09-01T19:52:34Z</time>
  <course>177.78</course>
  <speed>16.86456936894625</speed>
  <fix>3d</fix>
</trkpt>
<trkpt lat="-27.2721671" lon="151.2899235">
  <ele>388.99</ele>
  <time>2026-09-01T19:52:34Z</time>
  <course>177.77</course>
  <speed>16.85458394621475</speed>
  <fix>3d</fix>
</trkpt>
<trkpt lat="-27.2721238" lon="151.2899211">
  <ele>389.59</ele>
  <time>2026-09-01T19:52:34Z</time>
  <course>176.7</course>
  <speed>16.84</speed>
  <fix>3d</fix>
</trkpt>
<trkpt lat="-27.2721732" lon="151.2899238">
  <ele>388.93</ele>
  <time>2026-09-01T19:52:34Z</time>
  <course>177.77</course>
  <speed>16.85458394621475</speed>
  <fix>3d</fix>
</trkpt>
<trkpt lat="-27.2721823" lon="151.2899244">
  <ele>388.84</ele>
  <time>2026-09-01T19:52:34Z</time>
  <course>177.77</course>
  <speed>16.844598540778584</speed>
  <fix>3d</fix>
</trkpt>
<trkpt lat="-27.2721541" lon="151.289923">
  <ele>389.28</ele>
  <time>2026-09-01T19:52:34Z</time>
  <course>176.69</course>
  <speed>16.86</speed>
  <fix>3d</fix>
</trkpt>
<trkpt lat="-27.2721853" lon="151.2899246">
  <ele>388.81</ele>
  <time>2026-09-01T19:52:34Z</time>
  <course>177.76</course>
  <speed>16.844598540778584</speed>
  <fix>3d</fix>
</trkpt>
<trkpt lat="-27.2721974" lon="151.2899254">
  <ele>388.69</ele>
  <time>2026-09-01T19:52:35Z</time>
  <course>177.76</course>
  <speed>16.824627781915414</speed>
  <fix>3d</fix>
</trkpt>
<trkpt lat="-27.2721541" lon="151.289923">
  <ele>389.28</ele>
  <time>2026-09-01T19:52:35Z</time>
  <course>176.69</course>
  <speed>16.86</speed>
  <fix>3d</fix>
</trkpt>
<trkpt lat="-27.2722025" lon="151.2899257">
  <ele>388.64</ele>
  <time>2026-09-01T19:52:35Z</time>
  <course>177.76</course>
  <speed>16.814642428550183</speed>
  <fix>3d</fix>
</trkpt>
<trkpt lat="-27.2722123" lon="151.2899264">
  <ele>388.55</ele>
  <time>2026-09-01T19:52:35Z</time>
  <course>177.75</course>
  <speed>16.794671774107407</speed>
  <fix>3d</fix>
</trkpt>
<trkpt lat="-27.2721843" lon="151.2899251">
  <ele>388.98</ele>
  <time>2026-09-01T19:52:35Z</time>
  <course>176.68</course>
  <speed>16.85</speed>
  <fix>3d</fix>
</trkpt>
<trkpt lat="-27.272218" lon="151.2899267">
  <ele>388.49</ele>
  <time>2026-09-01T19:52:35Z</time>
  <course>177.75</course>
  <speed>16.784686473092073</speed>
  <fix>3d</fix>
</trkpt>
<trkpt lat="-27.2722273" lon="151.2899273">
  <ele>388.4</ele>
  <time>2026-09-01T19:52:35Z</time>
  <course>177.75</course>
  <speed>16.754730675245124</speed>
  <fix>3d</fix>
</trkpt>
<trkpt lat="-27.2721843" lon="151.2899251">
  <ele>388.98</ele>
  <time>2026-09-01T19:52:35Z</time>
  <course>176.68</course>
  <speed>16.85</speed>
  <fix>3d</fix>
</trkpt>
<trkpt lat="-27.272228" lon="151.2899274">
  <ele>388.39</ele>
  <time>2026-09-01T19:52:35Z</time>
  <course>177.75</course>
  <speed>16.754730675245124</speed>
  <fix>3d</fix>
</trkpt>
<trkpt lat="-27.2722423" lon="151.2899283">
  <ele>388.25</ele>
  <time>2026-09-01T19:52:35Z</time>
  <course>177.74</course>
  <speed>16.71478985808676</speed>
  <fix>3d</fix>
</trkpt>
<trkpt lat="-27.2722144" lon="151.289927">
  <ele>388.69</ele>
  <time>2026-09-01T19:52:35Z</time>
  <course>176.68</course>
  <speed>16.8</speed>
  <fix>3d</fix>
</trkpt>
<trkpt lat="-27.2722464" lon="151.2899286">
  <ele>388.2</ele>
  <time>2026-09-01T19:52:35Z</time>
  <course>177.74</course>
  <speed>16.7048046980502</speed>
  <fix>3d</fix>
</trkpt>
<trkpt lat="-27.2722572" lon="151.2899293">
  <ele>388.09</ele>
  <time>2026-09-01T19:52:35Z</time>
  <course>177.74</course>
  <speed>16.67484932465658</speed>
  <fix>3d</fix>
</trkpt>
<trkpt lat="-27.2722144" lon="151.289927">
  <ele>388.69</ele>
  <time>2026-09-01T19:52:35Z</time>
  <course>176.68</course>
  <speed>16.8</speed>
  <fix>3d</fix>
</trkpt>
<trkpt lat="-27.2722637" lon="151.2899297">
  <ele>388.02</ele>
  <time>2026-09-01T19:52:35Z</time>
  <course>177.74</course>
  <speed>16.65487916497745</speed>
  <fix>3d</fix>
</trkpt>
<trkpt lat="-27.272272" lon="151.2899302">
  <ele>387.93</ele>
  <time>2026-09-01T19:52:35Z</time>
  <course>177.73</course>
  <speed>16.624924059976937</speed>
  <fix>3d</fix>
</trkpt>
<trkpt lat="-27.2722446" lon="151.289929">
  <ele>388.39</ele>
  <time>2026-09-01T19:52:35Z</time>
  <course>176.67</course>
  <speed>16.73</speed>
  <fix>3d</fix>
</trkpt>
<trkpt lat="-27.2722776" lon="151.2899306">
  <ele>387.86</ele>
  <time>2026-09-01T19:52:35Z</time>
  <course>177.73</course>
  <speed>16.614939060977623</speed>
  <fix>3d</fix>
</trkpt>
<trkpt lat="-27.2722869" lon="151.2899312">
  <ele>387.76</ele>
  <time>2026-09-01T19:52:35Z</time>
  <course>177.73</course>
  <speed>16.584984172437427</speed>
  <fix>3d</fix>
</trkpt>
<trkpt lat="-27.2722446" lon="151.289929">
  <ele>388.39</ele>
  <time>2026-09-01T19:52:35Z</time>
  <course>176.67</course>
  <speed>16.73</speed>
  <fix>3d</fix>
</trkpt>
<trkpt lat="-27.2722929" lon="151.2899316">
  <ele>387.69</ele>
  <time>2026-09-01T19:52:35Z</time>
  <course>177.73</course>
  <speed>16.565014337452293</speed>
  <fix>3d</fix>
</trkpt>
<trkpt lat="-27.2723017" lon="151.2899322">
  <ele>387.58</ele>
  <time>2026-09-01T19:52:35Z</time>
  <course>177.73</course>
  <speed>16.545044575340377</speed>
  <fix>3d</fix>
</trkpt>
<trkpt lat="-27.2722746" lon="151.289931">
  <ele>388.07</ele>
  <time>2026-09-01T19:52:35Z</time>
  <course>176.67</course>
  <speed>16.65</speed>
  <fix>3d</fix>
</trkpt>
<trkpt lat="-27.2723071" lon="151.2899325">
  <ele>387.52</ele>
  <time>2026-09-01T19:52:35Z</time>
  <course>177.73</course>
  <speed>16.52507488636587</speed>
  <fix>3d</fix>
</trkpt>
<trkpt lat="-27.2723165" lon="151.2899332">
  <ele>387.4</ele>
  <time>2026-09-01T19:52:35Z</time>
  <course>177.72</course>
  <speed>16.495120490617822</speed>
  <fix>3d</fix>
</trkpt>
<trkpt lat="-27.2722746" lon="151.289931">
  <ele>388.07</ele>
  <time>2026-09-01T19:52:35Z</time>
  <course>176.67</course>
  <speed>16.65</speed>
  <fix>3d</fix>
</trkpt>
<trkpt lat="-27.2723243" lon="151.2899337">
  <ele>387.3</ele>
  <time>2026-09-01T19:52:35Z</time>
  <course>177.72</course>
  <speed>16.475150985651087</speed>
  <fix>3d</fix>
</trkpt>
<trkpt lat="-27.2723317" lon="151.2899342">
  <ele>387.21</ele>
  <time>2026-09-01T19:52:35Z</time>
  <course>177.72</course>
  <speed>16.455181554756543</speed>
  <fix>3d</fix>
</trkpt>
<trkpt lat="-27.2723044" lon="151.2899329">
  <ele>387.73</ele>
  <time>2026-09-01T19:52:35Z</time>
  <course>176.67</course>
  <speed>16.58</speed>
  <fix>3d</fix>
</trkpt>
<trkpt lat="-27.2723371" lon="151.2899345">
  <ele>387.14</ele>
  <time>2026-09-01T19:52:35Z</time>
  <course>177.72</course>
  <speed>16.44519686717067</speed>
  <fix>3d</fix>
</trkpt>
<trkpt lat="-27.2723462" lon="151.2899351">
  <ele>387.02</ele>
  <time>2026-09-01T19:52:35Z</time>
  <course>177.72</course>
  <speed>16.424676556937126</speed>
  <fix>3d</fix>
</trkpt>
<trkpt lat="-27.2723044" lon="151.2899329">
  <ele>387.73</ele>
  <time>2026-09-01T19:52:35Z</time>
  <course>176.67</course>
  <speed>16.58</speed>
  <fix>3d</fix>
</trkpt>
<trkpt lat="-27.2723513" lon="151.2899354">
  <ele>386.95</ele>
  <time>2026-09-01T19:52:35Z</time>
  <course>177.72</course>
  <speed>16.414691590157886</speed>
  <fix>3d</fix>
</trkpt>
<trkpt lat="-27.272361" lon="151.2899361">
  <ele>386.82</ele>
  <time>2026-09-01T19:52:35Z</time>
  <course>177.72</course>
  <speed>16.394721711575343</speed>
  <fix>3d</fix>
</trkpt>
<trkpt lat="-27.2723341" lon="151.2899348">
  <ele>387.37</ele>
  <time>2026-09-01T19:52:35Z</time>
  <course>176.67</course>
  <speed>16.5</speed>
  <fix>3d</fix>
</trkpt>
<trkpt lat="-27.2723665" lon="151.2899365">
  <ele>386.75</ele>
  <time>2026-09-01T19:52:35Z</time>
  <course>177.72</course>
  <speed>16.38473679983905</speed>
  <fix>3d</fix>
</trkpt>
<trkpt lat="-27.2723757" lon="151.2899371">
  <ele>386.62</ele>
  <time>2026-09-01T19:52:35Z</time>
  <course>177.72</course>
  <speed>16.364767031644536</speed>
  <fix>3d</fix>
</trkpt>
<trkpt lat="-27.2723341" lon="151.2899348">
  <ele>387.37</ele>
  <time>2026-09-01T19:52:35Z</time>
  <course>176.67</course>
  <speed>16.5</speed>
  <fix>3d</fix>
</trkpt>
<trkpt lat="-27.2723763" lon="151.2899371">
  <ele>386.61</ele>
  <time>2026-09-01T19:52:35Z</time>
  <course>177.72</course>
  <speed>16.364767031644536</speed>
  <fix>3d</fix>
</trkpt>
<trkpt lat="-27.2723905" lon="151.289938">
  <ele>386.42</ele>
  <time>2026-09-01T19:52:35Z</time>
  <course>177.71</course>
  <speed>16.334812518054807</speed>
  <fix>3d</fix>
</trkpt>
<trkpt lat="-27.2723636" lon="151.2899368">
  <ele>386.97</ele>
  <time>2026-09-01T19:52:35Z</time>
  <course>176.67</course>
  <speed>16.44</speed>
  <fix>3d</fix>
</trkpt>
<trkpt lat="-27.2723934" lon="151.2899382">
  <ele>386.38</ele>
  <time>2026-09-01T19:52:35Z</time>
  <course>177.71</course>
  <speed>16.334812518054807</speed>
  <fix>3d</fix>
</trkpt>
<trkpt lat="-27.2724049" lon="151.289939">
  <ele>386.22</ele>
  <time>2026-09-01T19:52:35Z</time>
  <course>177.71</course>
  <speed>16.31484293519248</speed>
  <fix>3d</fix>
</trkpt>
<trkpt lat="-27.2723636" lon="151.2899368">
  <ele>386.97</ele>
  <time>2026-09-01T19:52:35Z</time>
  <course>176.67</course>
  <speed>16.44</speed>
  <fix>3d</fix>
</trkpt>
<trkpt lat="-27.2724087" lon="151.2899392">
  <ele>386.16</ele>
  <time>2026-09-01T19:52:35Z</time>
  <course>177.71</course>
  <speed>16.30485817172293</speed>
  <fix>3d</fix>
</trkpt>
<trkpt lat="-27.2724197" lon="151.2899399">
  <ele>386.01</ele>
  <time>2026-09-01T19:52:35Z</time>
  <course>177.71</course>
  <speed>16.284888700878493</speed>
  <fix>3d</fix>
</trkpt>
<trkpt lat="-27.272393" lon="151.2899387">
  <ele>386.57</ele>
  <time>2026-09-01T19:52:35Z</time>
  <course>176.67</course>
  <speed>16.38</speed>
  <fix>3d</fix>
</trkpt>
<trkpt lat="-27.2724235" lon="151.2899402">
  <ele>385.96</ele>
  <time>2026-09-01T19:52:35Z</time>
  <course>177.71</course>
  <speed>16.284888700878493</speed>
  <fix>3d</fix>
</trkpt>
<trkpt lat="-27.2724344" lon="151.2899409">
  <ele>385.8</ele>
  <time>2026-09-01T19:52:35Z</time>
  <course>177.71</course>
  <speed>16.264919305056512</speed>
  <fix>3d</fix>
</trkpt>
<trkpt lat="-27.272393" lon="151.2899387">
  <ele>386.57</ele>
  <time>2026-09-01T19:52:35Z</time>
  <course>176.67</course>
  <speed>16.38</speed>
  <fix>3d</fix>
</trkpt>
<trkpt lat="-27.2724396" lon="151.2899412">
  <ele>385.73</ele>
  <time>2026-09-01T19:52:35Z</time>
  <course>177.71</course>
  <speed>16.25493463536535</speed>
  <fix>3d</fix>
</trkpt>
<trkpt lat="-27.272449" lon="151.2899419">
  <ele>385.6</ele>
  <time>2026-09-01T19:52:35Z</time>
  <course>177.71</course>
  <speed>16.23496535259623</speed>
  <fix>3d</fix>
</trkpt>
<trkpt lat="-27.2724223" lon="151.2899406">
  <ele>386.16</ele>
  <time>2026-09-01T19:52:35Z</time>
  <course>176.68</course>
  <speed>16.32</speed>
  <fix>3d</fix>
</trkpt>
<trkpt lat="-27.2724543" lon="151.2899422">
  <ele>385.52</ele>
  <time>2026-09-01T19:52:35Z</time>
  <course>177.72</course>
  <speed>16.224429111682173</speed>
  <fix>3d</fix>
</trkpt>
<trkpt lat="-27.2724637" lon="151.2899428">
  <ele>385.39</ele>
  <time>2026-09-01T19:52:35Z</time>
  <course>177.72</course>
  <speed>16.21444417795442</speed>
  <fix>3d</fix>
</trkpt>
<trkpt lat="-27.2724223" lon="151.2899406">
  <ele>386.16</ele>
  <time>2026-09-01T19:52:35Z</time>
  <course>176.68</course>
  <speed>16.32</speed>
  <fix>3d</fix>
</trkpt>
<trkpt lat="-27.2724685" lon="151.2899431">
  <ele>385.32</ele>
  <time>2026-09-01T19:52:35Z</time>
  <course>177.72</course>
  <speed>16.204459262807877</speed>
  <fix>3d</fix>
</trkpt>
<trkpt lat="-27.2724783" lon="151.2899438">
  <ele>385.18</ele>
  <time>2026-09-01T19:52:35Z</time>
  <course>177.72</course>
  <speed>16.184489488395982</speed>
  <fix>3d</fix>
</trkpt>
<trkpt lat="-27.2724516" lon="151.2899425">
  <ele>385.75</ele>
  <time>2026-09-01T19:52:35Z</time>
  <course>176.68</course>
  <speed>16.27</speed>
  <fix>3d</fix>
</trkpt>
<trkpt lat="-27.2724836" lon="151.2899441">
  <ele>385.11</ele>
  <time>2026-09-01T19:52:35Z</time>
  <course>177.72</course>
  <speed>16.17450462919962</speed>
  <fix>3d</fix>
</trkpt>
<trkpt lat="-27.2724929" lon="151.2899447">
  <ele>384.98</ele>
  <time>2026-09-01T19:52:35Z</time>
  <course>177.72</course>
  <speed>16.154534966999204</speed>
  <fix>3d</fix>
</trkpt>
<trkpt lat="-27.2724516" lon="151.2899425">
  <ele>385.75</ele>
  <time>2026-09-01T19:52:35Z</time>
  <course>176.68</course>
  <speed>16.27</speed>
  <fix>3d</fix>
</trkpt>
<trkpt lat="-27.2724982" lon="151.2899451">
  <ele>384.9</ele>
  <time>2026-09-01T19:52:35Z</time>
  <course>177.72</course>
  <speed>16.144550164064654</speed>
  <fix>3d</fix>
</trkpt>
<trkpt lat="-27.2725074" lon="151.2899457">
  <ele>384.77</ele>
  <time>2026-09-01T19:52:35Z</time>
  <course>177.72</course>
  <speed>16.12458061470127</speed>
  <fix>3d</fix>
</trkpt>
<trkpt lat="-27.2724807" lon="151.2899444">
  <ele>385.33</ele>
  <time>2026-09-01T19:52:35Z</time>
  <course>176.69</course>
  <speed>16.21</speed>
  <fix>3d</fix>
</trkpt>
<trkpt lat="-27.2725123" lon="151.289946">
  <ele>384.71</ele>
  <time>2026-09-01T19:52:35Z</time>
  <course>177.72</course>
  <speed>16.114595868342466</speed>
  <fix>3d</fix>
</trkpt>
<trkpt lat="-27.2725218" lon="151.2899466">
  <ele>384.57</ele>
  <time>2026-09-01T19:52:35Z</time>
  <course>177.72</course>
  <speed>16.08409151926213</speed>
  <fix>3d</fix>
</trkpt>
<trkpt lat="-27.2724807" lon="151.2899444">
  <ele>385.33</ele>
  <time>2026-09-01T19:52:35Z</time>
  <course>176.69</course>
  <speed>16.21</speed>
  <fix>3d</fix>
</trkpt>
<trkpt lat="-27.2725247" lon="151.2899468">
  <ele>384.53</ele>
  <time>2026-09-01T19:52:35Z</time>
  <course>177.72</course>
  <speed>16.08409151926213</speed>
  <fix>3d</fix>
</trkpt>
<trkpt lat="-27.2725362" lon="151.2899476">
  <ele>384.37</ele>
  <time>2026-09-01T19:52:35Z</time>
  <course>177.73</course>
  <speed>16.05413653859964</speed>
  <fix>3d</fix>
</trkpt>
<trkpt lat="-27.2725097" lon="151.2899463">
  <ele>384.92</ele>
  <time>2026-09-01T19:52:35Z</time>
  <course>176.7</course>
  <speed>16.14</speed>
  <fix>3d</fix>
</trkpt>
<trkpt lat="-27.2725368" lon="151.2899476">
  <ele>384.36</ele>
  <time>2026-09-01T19:52:35Z</time>
  <course>177.73</course>
  <speed>16.044151582430278</speed>
  <fix>3d</fix>
</trkpt>
<trkpt lat="-27.2725506" lon="151.2899485">
  <ele>384.16</ele>
  <time>2026-09-01T19:52:35Z</time>
  <course>177.73</course>
  <speed>16.014196826566106</speed>
  <fix>3d</fix>
</trkpt>
<trkpt lat="-27.2725097" lon="151.2899463">
  <ele>384.92</ele>
  <time>2026-09-01T19:52:35Z</time>
  <course>176.7</course>
  <speed>16.14</speed>
  <fix>3d</fix>
</trkpt>
<trkpt lat="-27.2725512" lon="151.2899485">
  <ele>384.15</ele>
  <time>2026-09-01T19:52:35Z</time>
  <course>177.73</course>
  <speed>16.004211945609818</speed>
  <fix>3d</fix>
</trkpt>
<trkpt lat="-27.2725649" lon="151.2899494">
  <ele>383.96</ele>
  <time>2026-09-01T19:52:35Z</time>
  <course>177.73</course>
  <speed>15.964272611052468</speed>
  <fix>3d</fix>
</trkpt>
<trkpt lat="-27.2725386" lon="151.2899482">
  <ele>384.51</ele>
  <time>2026-09-01T19:52:35Z</time>
  <course>176.71</course>
  <speed>16.07</speed>
  <fix>3d</fix>
</trkpt>
<trkpt lat="-27.2725655" lon="151.2899495">
  <ele>383.95</ele>
  <time>2026-09-01T19:52:35Z</time>
  <course>177.73</course>
  <speed>15.964272611052468</speed>
  <fix>3d</fix>
</trkpt>
<trkpt lat="-27.2725793" lon="151.2899503">
  <ele>383.76</ele>
  <time>2026-09-01T19:52:35Z</time>
  <course>177.73</course>
  <speed>15.923784098008865</speed>
  <fix>3d</fix>
</trkpt>
<trkpt lat="-27.2725386" lon="151.2899482">
  <ele>384.51</ele>
  <time>2026-09-01T19:52:35Z</time>
  <course>176.71</course>
  <speed>16.07</speed>
  <fix>3d</fix>
</trkpt>
<trkpt lat="-27.2725797" lon="151.2899504">
  <ele>383.75</ele>
  <time>2026-09-01T19:52:35Z</time>
  <course>177.73</course>
  <speed>15.923784098008865</speed>
  <fix>3d</fix>
</trkpt>
<trkpt lat="-27.2725935" lon="151.2899513">
  <ele>383.56</ele>
  <time>2026-09-01T19:52:35Z</time>
  <course>177.73</course>
  <speed>15.873859014114998</speed>
  <fix>3d</fix>
</trkpt>
<trkpt lat="-27.2725674" lon="151.28995">
  <ele>384.11</ele>
  <time>2026-09-01T19:52:35Z</time>
  <course>176.72</course>
  <speed>15.99</speed>
  <fix>3d</fix>
</trkpt>
<trkpt lat="-27.2725939" lon="151.2899513">
  <ele>383.55</ele>
  <time>2026-09-01T19:52:35Z</time>
  <course>177.73</course>
  <speed>15.873859014114998</speed>
  <fix>3d</fix>
</trkpt>
<trkpt lat="-27.2726076" lon="151.2899522">
  <ele>383.36</ele>
  <time>2026-09-01T19:52:35Z</time>
  <course>177.74</course>
  <speed>15.83391928740323</speed>
  <fix>3d</fix>
</trkpt>
<trkpt lat="-27.2725674" lon="151.28995">
  <ele>384.11</ele>
  <time>2026-09-01T19:52:35Z</time>
  <course>176.72</course>
  <speed>15.99</speed>
  <fix>3d</fix>
</trkpt>
<trkpt lat="-27.2726081" lon="151.2899522">
  <ele>383.35</ele>
  <time>2026-09-01T19:52:35Z</time>
  <course>177.74</course>
  <speed>15.83391928740323</speed>
  <fix>3d</fix>
</trkpt>
<trkpt lat="-27.2726223" lon="151.2899531">
  <ele>383.15</ele>
  <time>2026-09-01T19:52:35Z</time>
  <course>177.74</course>
  <speed>15.793432179231973</speed>
  <fix>3d</fix>
</trkpt>
<trkpt lat="-27.2725961" lon="151.2899519">
  <ele>383.71</ele>
  <time>2026-09-01T19:52:35Z</time>
  <course>176.73</course>
  <speed>15.91</speed>
  <fix>3d</fix>
</trkpt>
<trkpt lat="-27.2726228" lon="151.2899532">
  <ele>383.14</ele>
  <time>2026-09-01T19:52:35Z</time>
  <course>177.74</course>
  <speed>15.7834470252857</speed>
  <fix>3d</fix>
</trkpt>
<trkpt lat="-27.2726365" lon="151.2899541">
  <ele>382.95</ele>
  <time>2026-09-01T19:52:35Z</time>
  <course>177.74</course>
  <speed>15.743506597959682</speed>
  <fix>3d</fix>
</trkpt>
<trkpt lat="-27.2725961" lon="151.2899519">
  <ele>383.71</ele>
  <time>2026-09-01T19:52:35Z</time>
  <course>176.73</course>
  <speed>15.91</speed>
  <fix>3d</fix>
</trkpt>
<trkpt lat="-27.272637" lon="151.2899541">
  <ele>382.94</ele>
  <time>2026-09-01T19:52:35Z</time>
  <course>177.74</course>
  <speed>15.743506597959682</speed>
  <fix>3d</fix>
</trkpt>
<trkpt lat="-27.2726506" lon="151.289955">
  <ele>382.75</ele>
  <time>2026-09-01T19:52:35Z</time>
  <course>177.74</course>
  <speed>15.71355147635314</speed>
  <fix>3d</fix>
</trkpt>
<trkpt lat="-27.2726245" lon="151.2899536">
  <ele>383.3</ele>
  <time>2026-09-01T19:52:35Z</time>
  <course>176.73</course>
  <speed>15.82</speed>
  <fix>3d</fix>
</trkpt>
<trkpt lat="-27.2726512" lon="151.289955">
  <ele>382.74</ele>
  <time>2026-09-01T19:52:35Z</time>
  <course>177.74</course>
  <speed>15.703566473893757</speed>
  <fix>3d</fix>
</trkpt>
<trkpt lat="-27.2726648" lon="151.2899559">
  <ele>382.55</ele>
  <time>2026-09-01T19:52:35Z</time>
  <course>177.74</course>
  <speed>15.673066068896667</speed>
  <fix>3d</fix>
</trkpt>
<trkpt lat="-27.2726245" lon="151.2899536">
  <ele>383.3</ele>
  <time>2026-09-01T19:52:35Z</time>
  <course>176.73</course>
  <speed>15.82</speed>
  <fix>3d</fix>
</trkpt>
<trkpt lat="-27.2726654" lon="151.2899559">
  <ele>382.54</ele>
  <time>2026-09-01T19:52:35Z</time>
  <course>177.74</course>
  <speed>15.663080795296946</speed>
  <fix>3d</fix>
</trkpt>
<trkpt lat="-27.2726789" lon="151.2899568">
  <ele>382.35</ele>
  <time>2026-09-01T19:52:35Z</time>
  <course>177.74</course>
  <speed>15.633125087454523</speed>
  <fix>3d</fix>
</trkpt>
<trkpt lat="-27.2726528" lon="151.2899555">
  <ele>382.9</ele>
  <time>2026-09-01T19:52:35Z</time>
  <course>176.74</course>
  <speed>15.74</speed>
  <fix>3d</fix>
</trkpt>
<trkpt lat="-27.2726795" lon="151.2899568">
  <ele>382.34</ele>
  <time>2026-09-01T19:52:35Z</time>
  <course>177.74</course>
  <speed>15.633125087454523</speed>
  <fix>3d</fix>
</trkpt>
<trkpt lat="-27.272693" lon="151.2899577">
  <ele>382.15</ele>
  <time>2026-09-01T19:52:35Z</time>
  <course>177.73</course>
  <speed>15.593184408580564</speed>
  <fix>3d</fix>
</trkpt>
<trkpt lat="-27.2726528" lon="151.2899555">
  <ele>382.9</ele>
  <time>2026-09-01T19:52:35Z</time>
  <course>176.74</course>
  <speed>15.74</speed>
  <fix>3d</fix>
</trkpt>
<trkpt lat="-27.2726936" lon="151.2899577">
  <ele>382.14</ele>
  <time>2026-09-01T19:52:35Z</time>
  <course>177.73</course>
  <speed>15.593184408580564</speed>
  <fix>3d</fix>
</trkpt>
<trkpt lat="-27.2727072" lon="151.2899586">
  <ele>381.95</ele>
  <time>2026-09-01T19:52:35Z</time>
  <course>177.73</course>
  <speed>15.55324403460577</speed>
  <fix>3d</fix>
</trkpt>
<trkpt lat="-27.272681" lon="151.2899573">
  <ele>382.5</ele>
  <time>2026-09-01T19:52:35Z</time>
  <course>176.75</course>
  <speed>15.65</speed>
  <fix>3d</fix>
</trkpt>
<trkpt lat="-27.2727077" lon="151.2899586">
  <ele>381.94</ele>
  <time>2026-09-01T19:52:35Z</time>
  <course>177.73</course>
  <speed>15.55324403460577</speed>
  <fix>3d</fix>
</trkpt>
<trkpt lat="-27.2727212" lon="151.2899595">
  <ele>381.75</ele>
  <time>2026-09-01T19:52:35Z</time>
  <course>177.73</course>
  <speed>15.512759264553809</speed>
  <fix>3d</fix>
</trkpt>
<trkpt lat="-27.272681" lon="151.2899573">
  <ele>382.5</ele>
  <time>2026-09-01T19:52:35Z</time>
  <course>176.75</course>
  <speed>15.65</speed>
  <fix>3d</fix>
</trkpt>
<trkpt lat="-27.2727217" lon="151.2899595">
  <ele>381.74</ele>
  <time>2026-09-01T19:52:35Z</time>
  <course>177.73</course>
  <speed>15.512759264553809</speed>
  <fix>3d</fix>
</trkpt>
<trkpt lat="-27.2727352" lon="151.2899604">
  <ele>381.55</ele>
  <time>2026-09-01T19:52:35Z</time>
  <course>177.72</course>
  <speed>15.472818101431942</speed>
  <fix>3d</fix>
</trkpt>
<trkpt lat="-27.272709" lon="151.289959">
  <ele>382.09</ele>
  <time>2026-09-01T19:52:35Z</time>
  <course>176.76</course>
  <speed>15.57</speed>
  <fix>3d</fix>
</trkpt>
<trkpt lat="-27.2727357" lon="151.2899604">
  <ele>381.54</ele>
  <time>2026-09-01T19:52:35Z</time>
  <course>177.72</course>
  <speed>15.472818101431942</speed>
  <fix>3d</fix>
</trkpt>
<trkpt lat="-27.2727492" lon="151.2899613">
  <ele>381.35</ele>
  <time>2026-09-01T19:52:35Z</time>
  <course>177.72</course>
  <speed>15.432877243080759</speed>
  <fix>3d</fix>
</trkpt>
<trkpt lat="-27.272709" lon="151.289959">
  <ele>382.09</ele>
  <time>2026-09-01T19:52:35Z</time>
  <course>176.76</course>
  <speed>15.57</speed>
  <fix>3d</fix>
</trkpt>
<trkpt lat="-27.2727497" lon="151.2899613">
  <ele>381.35</ele>
  <time>2026-09-01T19:52:35Z</time>
  <course>177.72</course>
  <speed>15.432877243080759</speed>
  <fix>3d</fix>
</trkpt>
<trkpt lat="-27.272763" lon="151.2899621">
  <ele>381.16</ele>
  <time>2026-09-01T19:52:35Z</time>
  <course>177.72</course>
  <speed>15.382951602342121</speed>
  <fix>3d</fix>
</trkpt>
<trkpt lat="-27.2727368" lon="151.2899608">
  <ele>381.7</ele>
  <time>2026-09-01T19:52:35Z</time>
  <course>176.76</course>
  <speed>15.48</speed>
  <fix>3d</fix>
</trkpt>
<trkpt lat="-27.2727634" lon="151.2899622">
  <ele>381.16</ele>
  <time>2026-09-01T19:52:35Z</time>
  <course>177.72</course>
  <speed>15.382951602342121</speed>
  <fix>3d</fix>
</trkpt>
<trkpt lat="-27.2727768" lon="151.289963">
  <ele>380.97</ele>
  <time>2026-09-01T19:52:35Z</time>
  <course>177.72</course>
  <speed>15.342467207069403</speed>
  <fix>3d</fix>
</trkpt>
<trkpt lat="-27.2727368" lon="151.2899608">
  <ele>381.7</ele>
  <time>2026-09-01T19:52:35Z</time>
  <course>176.76</course>
  <speed>15.48</speed>
  <fix>3d</fix>
</trkpt>
<trkpt lat="-27.2727772" lon="151.289963">
  <ele>380.97</ele>
  <time>2026-09-01T19:52:35Z</time>
  <course>177.72</course>
  <speed>15.342467207069403</speed>
  <fix>3d</fix>
</trkpt>
<trkpt lat="-27.2727905" lon="151.2899639">
  <ele>380.79</ele>
  <time>2026-09-01T19:52:35Z</time>
  <course>177.72</course>
  <speed>15.292540665304768</speed>
  <fix>3d</fix>
</trkpt>
<trkpt lat="-27.2727645" lon="151.2899626">
  <ele>381.32</ele>
  <time>2026-09-01T19:52:35Z</time>
  <course>176.77</course>
  <speed>15.39</speed>
  <fix>3d</fix>
</trkpt>
<trkpt lat="-27.2727909" lon="151.2899639">
  <ele>380.78</ele>
  <time>2026-09-01T19:52:35Z</time>
  <course>177.72</course>
  <speed>15.292540665304768</speed>
  <fix>3d</fix>
</trkpt>
<trkpt lat="-27.2728038" lon="151.2899647">
  <ele>380.61</ele>
  <time>2026-09-01T19:52:35Z</time>
  <course>177.73</course>
  <speed>15.242614605112864</speed>
  <fix>3d</fix>
</trkpt>
<trkpt lat="-27.2727645" lon="151.2899626">
  <ele>381.32</ele>
  <time>2026-09-01T19:52:35Z</time>
  <course>176.77</course>
  <speed>15.39</speed>
  <fix>3d</fix>
</trkpt>
<trkpt lat="-27.2728043" lon="151.2899648">
  <ele>380.61</ele>
  <time>2026-09-01T19:52:35Z</time>
  <course>177.73</course>
  <speed>15.232629451279907</speed>
  <fix>3d</fix>
</trkpt>
<trkpt lat="-27.2728173" lon="151.2899656">
  <ele>380.44</ele>
  <time>2026-09-01T19:52:35Z</time>
  <course>177.73</course>
  <speed>15.182160584053904</speed>
  <fix>3d</fix>
</trkpt>
<trkpt lat="-27.272792" lon="151.2899644">
  <ele>380.94</ele>
  <time>2026-09-01T19:52:35Z</time>
  <course>176.77</course>
  <speed>15.3</speed>
  <fix>3d</fix>
</trkpt>
<trkpt lat="-27.2728178" lon="151.2899656">
  <ele>380.43</ele>
  <time>2026-09-01T19:52:35Z</time>
  <course>177.73</course>
  <speed>15.182160584053904</speed>
  <fix>3d</fix>
</trkpt>
<trkpt lat="-27.2728307" lon="151.2899665">
  <ele>380.27</ele>
  <time>2026-09-01T19:52:35Z</time>
  <course>177.73</course>
  <speed>15.122248510059608</speed>
  <fix>3d</fix>
</trkpt>
<trkpt lat="-27.272792" lon="151.2899644">
  <ele>380.94</ele>
  <time>2026-09-01T19:52:35Z</time>
  <course>176.77</course>
  <speed>15.3</speed>
  <fix>3d</fix>
</trkpt>
<trkpt lat="-27.2728313" lon="151.2899665">
  <ele>380.26</ele>
  <time>2026-09-01T19:52:35Z</time>
  <course>177.73</course>
  <speed>15.122248510059608</speed>
  <fix>3d</fix>
</trkpt>
<trkpt lat="-27.2728442" lon="151.2899673">
  <ele>380.1</ele>
  <time>2026-09-01T19:52:35Z</time>
  <course>177.74</course>
  <speed>15.062337136048972</speed>
  <fix>3d</fix>
</trkpt>
<trkpt lat="-27.2728194" lon="151.2899661">
  <ele>380.59</ele>
  <time>2026-09-01T19:52:35Z</time>
  <course>176.78</course>
  <speed>15.2</speed>
  <fix>3d</fix>
</trkpt>
<trkpt lat="-27.2728448" lon="151.2899674">
  <ele>380.09</ele>
  <time>2026-09-01T19:52:35Z</time>
  <course>177.74</course>
  <speed>15.062337136048972</speed>
  <fix>3d</fix>
</trkpt>
<trkpt lat="-27.2728576" lon="151.2899682">
  <ele>379.93</ele>
  <time>2026-09-01T19:52:35Z</time>
  <course>177.74</course>
  <speed>15.001883215116694</speed>
  <fix>3d</fix>
</trkpt>
<trkpt lat="-27.2728194" lon="151.2899661">
  <ele>380.59</ele>
  <time>2026-09-01T19:52:35Z</time>
  <course>176.78</course>
  <speed>15.2</speed>
  <fix>3d</fix>
</trkpt>
<trkpt lat="-27.2728582" lon="151.2899682">
  <ele>379.93</ele>
  <time>2026-09-01T19:52:35Z</time>
  <course>177.74</course>
  <speed>15.001883215116694</speed>
  <fix>3d</fix>
</trkpt>
<trkpt lat="-27.2728712" lon="151.289969">
  <ele>379.77</ele>
  <time>2026-09-01T19:52:35Z</time>
  <course>177.74</course>
  <speed>14.941971088179766</speed>
  <fix>3d</fix>
</trkpt>
<trkpt lat="-27.2728466" lon="151.2899678">
  <ele>380.25</ele>
  <time>2026-09-01T19:52:35Z</time>
  <course>176.78</course>
  <speed>15.09</speed>
  <fix>3d</fix>
</trkpt>
<trkpt lat="-27.2728716" lon="151.2899691">
  <ele>379.77</ele>
  <time>2026-09-01T19:52:35Z</time>
  <course>177.74</course>
  <speed>14.941971088179766</speed>
  <fix>3d</fix>
</trkpt>
<trkpt lat="-27.2728845" lon="151.2899699">
  <ele>379.61</ele>
  <time>2026-09-01T19:52:35Z</time>
  <course>177.75</course>
  <speed>14.882059669279652</speed>
  <fix>3d</fix>
</trkpt>
<trkpt lat="-27.2728466" lon="151.2899678">
  <ele>380.25</ele>
  <time>2026-09-01T19:52:35Z</time>
  <course>176.78</course>
  <speed>15.09</speed>
  <fix>3d</fix>
</trkpt>
<trkpt lat="-27.272885" lon="151.2899699">
  <ele>379.61</ele>
  <time>2026-09-01T19:52:35Z</time>
  <course>177.75</course>
  <speed>14.882059669279652</speed>
  <fix>3d</fix>
</trkpt>
<trkpt lat="-27.2728978" lon="151.2899707">
  <ele>379.46</ele>
  <time>2026-09-01T19:52:35Z</time>
  <course>177.75</course>
  <speed>14.821605850919125</speed>
  <fix>3d</fix>
</trkpt>
<trkpt lat="-27.2728736" lon="151.2899695">
  <ele>379.93</ele>
  <time>2026-09-01T19:52:35Z</time>
  <course>176.79</course>
  <speed>14.97</speed>
  <fix>3d</fix>
</trkpt>
<trkpt lat="-27.2728983" lon="151.2899708">
  <ele>379.46</ele>
  <time>2026-09-01T19:52:35Z</time>
  <course>177.75</course>
  <speed>14.821605850919125</speed>
  <fix>3d</fix>
</trkpt>
<trkpt lat="-27.2729116" lon="151.2899716">
  <ele>379.31</ele>
  <time>2026-09-01T19:52:35Z</time>
  <course>177.75</course>
  <speed>14.761693669765675</speed>
  <fix>3d</fix>
</trkpt>
<trkpt lat="-27.2728736" lon="151.2899695">
  <ele>379.93</ele>
  <time>2026-09-01T19:52:35Z</time>
  <course>176.79</course>
  <speed>14.97</speed>
  <fix>3d</fix>
</trkpt>
<trkpt lat="-27.272912" lon="151.2899716">
  <ele>379.3</ele>
  <time>2026-09-01T19:52:35Z</time>
  <course>177.75</course>
  <speed>14.751708375642464</speed>
  <fix>3d</fix>
</trkpt>
<trkpt lat="-27.2729247" lon="151.2899724">
  <ele>379.16</ele>
  <time>2026-09-01T19:52:35Z</time>
  <course>177.76</course>
  <speed>14.691255902747049</speed>
  <fix>3d</fix>
</trkpt>
<trkpt lat="-27.2729004" lon="151.2899712">
  <ele>379.63</ele>
  <time>2026-09-01T19:52:35Z</time>
  <course>176.79</course>
  <speed>14.86</speed>
  <fix>3d</fix>
</trkpt>
<trkpt lat="-27.2729252" lon="151.2899725">
  <ele>379.15</ele>
  <time>2026-09-01T19:52:35Z</time>
  <course>177.76</course>
  <speed>14.691255902747049</speed>
  <fix>3d</fix>
</trkpt>
<trkpt lat="-27.2729378" lon="151.2899732">
  <ele>379.01</ele>
  <time>2026-09-01T19:52:35Z</time>
  <course>177.76</course>
  <speed>14.631343068905192</speed>
  <fix>3d</fix>
</trkpt>
<trkpt lat="-27.2729004" lon="151.2899712">
  <ele>379.63</ele>
  <time>2026-09-01T19:52:35Z</time>
  <course>176.79</course>
  <speed>14.86</speed>
  <fix>3d</fix>
</trkpt>
<trkpt lat="-27.2729384" lon="151.2899733">
  <ele>379.01</ele>
  <time>2026-09-01T19:52:35Z</time>
  <course>177.76</course>
  <speed>14.631343068905192</speed>
  <fix>3d</fix>
</trkpt>
<trkpt lat="-27.272951" lon="151.2899741">
  <ele>378.87</ele>
  <time>2026-09-01T19:52:35Z</time>
  <course>177.77</course>
  <speed>14.571430952380759</speed>
  <fix>3d</fix>
</trkpt>
<trkpt lat="-27.2729269" lon="151.2899729">
  <ele>379.33</ele>
  <time>2026-09-01T19:52:35Z</time>
  <course>176.8</course>
  <speed>14.73</speed>
  <fix>3d</fix>
</trkpt>
<trkpt lat="-27.2729515" lon="151.2899741">
  <ele>378.87</ele>
  <time>2026-09-01T19:52:35Z</time>
  <course>177.77</course>
  <speed>14.571430952380759</speed>
  <fix>3d</fix>
</trkpt>
<trkpt lat="-27.272964" lon="151.2899749">
  <ele>378.74</ele>
  <time>2026-09-01T19:52:35Z</time>
  <course>177.77</course>
  <speed>14.500993069441831</speed>
  <fix>3d</fix>
</trkpt>
<trkpt lat="-27.2729269" lon="151.2899729">
  <ele>379.33</ele>
  <time>2026-09-01T19:52:35Z</time>
  <course>176.8</course>
  <speed>14.73</speed>
  <fix>3d</fix>
</trkpt>
<trkpt lat="-27.2729646" lon="151.2899749">
  <ele>378.73</ele>
  <time>2026-09-01T19:52:35Z</time>
  <course>177.77</course>
  <speed>14.500993069441831</speed>
  <fix>3d</fix>
</trkpt>
<trkpt lat="-27.2729771" lon="151.2899757">
  <ele>378.6</ele>
  <time>2026-09-01T19:52:35Z</time>
  <course>177.77</course>
  <speed>14.441080292000317</speed>
  <fix>3d</fix>
</trkpt>
<trkpt lat="-27.2729532" lon="151.2899745">
  <ele>379.05</ele>
  <time>2026-09-01T19:52:35Z</time>
  <course>176.8</course>
  <speed>14.61</speed>
  <fix>3d</fix>
</trkpt>
<trkpt lat="-27.2729776" lon="151.2899758">
  <ele>378.59</ele>
  <time>2026-09-01T19:52:35Z</time>
  <course>177.77</course>
  <speed>14.441080292000317</speed>
  <fix>3d</fix>
</trkpt>
<trkpt lat="-27.2729901" lon="151.2899765">
  <ele>378.47</ele>
  <time>2026-09-01T19:52:35Z</time>
  <course>177.78</course>
  <speed>14.370643687740644</speed>
  <fix>3d</fix>
</trkpt>
<trkpt lat="-27.2729532" lon="151.2899745">
  <ele>379.05</ele>
  <time>2026-09-01T19:52:35Z</time>
  <course>176.8</course>
  <speed>14.61</speed>
  <fix>3d</fix>
</trkpt>
<trkpt lat="-27.2729906" lon="151.2899766">
  <ele>378.46</ele>
  <time>2026-09-01T19:52:35Z</time>
  <course>177.78</course>
  <speed>14.370643687740644</speed>
  <fix>3d</fix>
</trkpt>
<trkpt lat="-27.273003" lon="151.2899774">
  <ele>378.34</ele>
  <time>2026-09-01T19:52:35Z</time>
  <course>177.78</course>
  <speed>14.31073023992836</speed>
  <fix>3d</fix>
</trkpt>
<trkpt lat="-27.2729793" lon="151.2899762">
  <ele>378.78</ele>
  <time>2026-09-01T19:52:35Z</time>
  <course>176.81</course>
  <speed>14.48</speed>
  <fix>3d</fix>
</trkpt>
<trkpt lat="-27.2730034" lon="151.2899774">
  <ele>378.33</ele>
  <time>2026-09-01T19:52:35Z</time>
  <course>177.78</course>
  <speed>14.31073023992836</speed>
  <fix>3d</fix>
</trkpt>
<trkpt lat="-27.2730158" lon="151.2899782">
  <ele>378.21</ele>
  <time>2026-09-01T19:52:35Z</time>
  <course>177.79</course>
  <speed>14.240832138607631</speed>
  <fix>3d</fix>
</trkpt>
<trkpt lat="-27.2729793" lon="151.2899762">
  <ele>378.78</ele>
  <time>2026-09-01T19:52:35Z</time>
  <course>176.81</course>
  <speed>14.48</speed>
  <fix>3d</fix>
</trkpt>
<trkpt lat="-27.2730162" lon="151.2899782">
  <ele>378.21</ele>
  <time>2026-09-01T19:52:35Z</time>
  <course>177.79</course>
  <speed>14.240832138607631</speed>
  <fix>3d</fix>
</trkpt>
<trkpt lat="-27.2730285" lon="151.289979">
  <ele>378.08</ele>
  <time>2026-09-01T19:52:35Z</time>
  <course>177.79</course>
  <speed>14.170395195618223</speed>
  <fix>3d</fix>
</trkpt>
<trkpt lat="-27.2730051" lon="151.2899777">
  <ele>378.52</ele>
  <time>2026-09-01T19:52:35Z</time>
  <course>176.82</course>
  <speed>14.35</speed>
  <fix>3d</fix>
</trkpt>
<trkpt lat="-27.2730289" lon="151.289979">
  <ele>378.08</ele>
  <time>2026-09-01T19:52:35Z</time>
  <course>177.79</course>
  <speed>14.170395195618223</speed>
  <fix>3d</fix>
</trkpt>
<trkpt lat="-27.2730411" lon="151.2899797">
  <ele>377.96</ele>
  <time>2026-09-01T19:52:35Z</time>
  <course>177.8</course>
  <speed>14.10049644516107</speed>
  <fix>3d</fix>
</trkpt>
<trkpt lat="-27.2730051" lon="151.2899777">
  <ele>378.52</ele>
  <time>2026-09-01T19:52:35Z</time>
  <course>176.82</course>
  <speed>14.35</speed>
  <fix>3d</fix>
</trkpt>
<trkpt lat="-27.2730414" lon="151.2899798">
  <ele>377.96</ele>
  <time>2026-09-01T19:52:35Z</time>
  <course>177.8</course>
  <speed>14.10049644516107</speed>
  <fix>3d</fix>
</trkpt>
<trkpt lat="-27.2730538" lon="151.2899805">
  <ele>377.84</ele>
  <time>2026-09-01T19:52:35Z</time>
  <course>177.8</course>
  <speed>14.040046296219966</speed>
  <fix>3d</fix>
</trkpt>
<trkpt lat="-27.2730307" lon="151.2899794">
  <ele>378.27</ele>
  <time>2026-09-01T19:52:35Z</time>
  <course>176.83</course>
  <speed>14.21</speed>
  <fix>3d</fix>
</trkpt>
<trkpt lat="-27.2730541" lon="151.2899806">
  <ele>377.84</ele>
  <time>2026-09-01T19:52:35Z</time>
  <course>177.8</course>
  <speed>14.03006058433106</speed>
  <fix>3d</fix>
</trkpt>
<trkpt lat="-27.2730663" lon="151.2899813">
  <ele>377.72</ele>
  <time>2026-09-01T19:52:35Z</time>
  <course>177.8</course>
  <speed>13.97014674225006</speed>
  <fix>3d</fix>
</trkpt>
<trkpt lat="-27.2730307" lon="151.2899794">
  <ele>378.27</ele>
  <time>2026-09-01T19:52:35Z</time>
  <course>176.83</course>
  <speed>14.21</speed>
  <fix>3d</fix>
</trkpt>
<trkpt lat="-27.2730667" lon="151.2899813">
  <ele>377.72</ele>
  <time>2026-09-01T19:52:35Z</time>
  <course>177.8</course>
  <speed>13.97014674225006</speed>
  <fix>3d</fix>
</trkpt>
<trkpt lat="-27.2730789" lon="151.2899821">
  <ele>377.6</ele>
  <time>2026-09-01T19:52:35Z</time>
  <course>177.81</course>
  <speed>13.899712227236938</speed>
  <fix>3d</fix>
</trkpt>
<trkpt lat="-27.2730561" lon="151.289981">
  <ele>378.03</ele>
  <time>2026-09-01T19:52:35Z</time>
  <course>176.83</course>
  <speed>14.08</speed>
  <fix>3d</fix>
</trkpt>
<trkpt lat="-27.2730792" lon="151.2899821">
  <ele>377.6</ele>
  <time>2026-09-01T19:52:35Z</time>
  <course>177.81</course>
  <speed>13.899712227236938</speed>
  <fix>3d</fix>
</trkpt>
<trkpt lat="-27.2730914" lon="151.2899829">
  <ele>377.49</ele>
  <time>2026-09-01T19:52:35Z</time>
  <course>177.81</course>
  <speed>13.839797686382559</speed>
  <fix>3d</fix>
</trkpt>
<trkpt lat="-27.2730561" lon="151.289981">
  <ele>378.03</ele>
  <time>2026-09-01T19:52:35Z</time>
  <course>176.83</course>
  <speed>14.08</speed>
  <fix>3d</fix>
</trkpt>
<trkpt lat="-27.2730918" lon="151.2899829">
  <ele>377.48</ele>
  <time>2026-09-01T19:52:35Z</time>
  <course>177.81</course>
  <speed>13.839797686382559</speed>
  <fix>3d</fix>
</trkpt>
<trkpt lat="-27.2731039" lon="151.2899837">
  <ele>377.37</ele>
  <time>2026-09-01T19:52:35Z</time>
  <course>177.82</course>
  <speed>13.779883889206033</speed>
  <fix>3d</fix>
</trkpt>
<trkpt lat="-27.2730813" lon="151.2899825">
  <ele>377.79</ele>
  <time>2026-09-01T19:52:35Z</time>
  <course>176.84</course>
  <speed>13.95</speed>
  <fix>3d</fix>
</trkpt>
<trkpt lat="-27.2731043" lon="151.2899837">
  <ele>377.37</ele>
  <time>2026-09-01T19:52:35Z</time>
  <course>177.82</course>
  <speed>13.769898329326908</speed>
  <fix>3d</fix>
</trkpt>
<trkpt lat="-27.2731163" lon="151.2899844">
  <ele>377.26</ele>
  <time>2026-09-01T19:52:35Z</time>
  <course>177.82</course>
  <speed>13.709449296014775</speed>
  <fix>3d</fix>
</trkpt>
<trkpt lat="-27.2730813" lon="151.2899825">
  <ele>377.79</ele>
  <time>2026-09-01T19:52:35Z</time>
  <course>176.84</course>
  <speed>13.95</speed>
  <fix>3d</fix>
</trkpt>
<trkpt lat="-27.2731167" lon="151.2899845">
  <ele>377.26</ele>
  <time>2026-09-01T19:52:35Z</time>
  <course>177.82</course>
  <speed>13.709449296014775</speed>
  <fix>3d</fix>
</trkpt>
<trkpt lat="-27.2731287" lon="151.2899852">
  <ele>377.15</ele>
  <time>2026-09-01T19:52:35Z</time>
  <course>177.82</course>
  <speed>13.649534790607333</speed>
  <fix>3d</fix>
</trkpt>
<trkpt lat="-27.2731062" lon="151.289984">
  <ele>377.55</ele>
  <time>2026-09-01T19:52:35Z</time>
  <course>176.84</course>
  <speed>13.81</speed>
  <fix>3d</fix>
</trkpt>
<trkpt lat="-27.2731291" lon="151.2899852">
  <ele>377.15</ele>
  <time>2026-09-01T19:52:35Z</time>
  <course>177.82</course>
  <speed>13.649534790607333</speed>
  <fix>3d</fix>
</trkpt>
<trkpt lat="-27.2731409" lon="151.289986">
  <ele>377.04</ele>
  <time>2026-09-01T19:52:35Z</time>
  <course>177.83</course>
  <speed>13.579101590311488</speed>
  <fix>3d</fix>
</trkpt>
<trkpt lat="-27.2731062" lon="151.289984">
  <ele>377.55</ele>
  <time>2026-09-01T19:52:35Z</time>
  <course>176.84</course>
  <speed>13.81</speed>
  <fix>3d</fix>
</trkpt>
<trkpt lat="-27.2731413" lon="151.289986">
  <ele>377.04</ele>
  <time>2026-09-01T19:52:35Z</time>
  <course>177.83</course>
  <speed>13.579101590311488</speed>
  <fix>3d</fix>
</trkpt>
<trkpt lat="-27.2731532" lon="151.2899867">
  <ele>376.93</ele>
  <time>2026-09-01T19:52:35Z</time>
  <course>177.83</course>
  <speed>13.519186366050286</speed>
  <fix>3d</fix>
</trkpt>
<trkpt lat="-27.2731309" lon="151.2899856">
  <ele>377.33</ele>
  <time>2026-09-01T19:52:35Z</time>
  <course>176.85</course>
  <speed>13.68</speed>
  <fix>3d</fix>
</trkpt>
<trkpt lat="-27.2731536" lon="151.2899867">
  <ele>376.93</ele>
  <time>2026-09-01T19:52:35Z</time>
  <course>177.83</course>
  <speed>13.519186366050286</speed>
  <fix>3d</fix>
</trkpt>
<trkpt lat="-27.273165" lon="151.2899874">
  <ele>376.83</ele>
  <time>2026-09-01T19:52:35Z</time>
  <course>177.84</course>
  <speed>13.458740654310864</speed>
  <fix>3d</fix>
</trkpt>
<trkpt lat="-27.2731309" lon="151.2899856">
  <ele>377.33</ele>
  <time>2026-09-01T19:52:35Z</time>
  <course>176.85</course>
  <speed>13.68</speed>
  <fix>3d</fix>
</trkpt>
<trkpt lat="-27.2731655" lon="151.2899875">
  <ele>376.83</ele>
  <time>2026-09-01T19:52:35Z</time>
  <course>177.84</course>
  <speed>13.458740654310864</speed>
  <fix>3d</fix>
</trkpt>
<trkpt lat="-27.2731775" lon="151.2899882">
  <ele>376.72</ele>
  <time>2026-09-01T19:52:35Z</time>
  <course>177.84</course>
  <speed>13.388838635221502</speed>
  <fix>3d</fix>
</trkpt>
<trkpt lat="-27.2731553" lon="151.2899871">
  <ele>377.11</ele>
  <time>2026-09-01T19:52:35Z</time>
  <course>176.86</course>
  <speed>13.54</speed>
  <fix>3d</fix>
</trkpt>
<trkpt lat="-27.2731779" lon="151.2899882">
  <ele>376.72</ele>
  <time>2026-09-01T19:52:35Z</time>
  <course>177.84</course>
  <speed>13.388838635221502</speed>
  <fix>3d</fix>
</trkpt>
<trkpt lat="-27.2731894" lon="151.289989">
  <ele>376.62</ele>
  <time>2026-09-01T19:52:35Z</time>
  <course>177.84</course>
  <speed>13.318937645322919</speed>
  <fix>3d</fix>
</trkpt>
<trkpt lat="-27.2731553" lon="151.2899871">
  <ele>377.11</ele>
  <time>2026-09-01T19:52:35Z</time>
  <course>176.86</course>
  <speed>13.54</speed>
  <fix>3d</fix>
</trkpt>
<trkpt lat="-27.2731939" lon="151.2899892">
  <ele>376.58</ele>
  <time>2026-09-01T19:52:35Z</time>
  <course>177.84</course>
  <speed>13.298435998266864</speed>
  <fix>3d</fix>
</trkpt>
<trkpt lat="-27.2732014" lon="151.2899897">
  <ele>376.51</ele>
  <time>2026-09-01T19:52:35Z</time>
  <course>177.85</course>
  <speed>13.258491618581655</speed>
  <fix>3d</fix>
</trkpt>
<trkpt lat="-27.2731795" lon="151.2899886">
  <ele>376.89</ele>
  <time>2026-09-01T19:52:35Z</time>
  <course>176.86</course>
  <speed>13.41</speed>
  <fix>3d</fix>
</trkpt>
<trkpt lat="-27.2732066" lon="151.28999">
  <ele>376.47</ele>
  <time>2026-09-01T19:52:35Z</time>
  <course>177.85</course>
  <speed>13.228533554404283</speed>
  <fix>3d</fix>
</trkpt>
<trkpt lat="-27.2732133" lon="151.2899904">
  <ele>376.41</ele>
  <time>2026-09-01T19:52:35Z</time>
  <course>177.85</course>
  <speed>13.188589765399483</speed>
  <fix>3d</fix>
</trkpt>
<trkpt lat="-27.2731795" lon="151.2899886">
  <ele>376.89</ele>
  <time>2026-09-01T19:52:35Z</time>
  <course>176.86</course>
  <speed>13.41</speed>
  <fix>3d</fix>
</trkpt>
<trkpt lat="-27.2732169" lon="151.2899906">
  <ele>376.38</ele>
  <time>2026-09-01T19:52:35Z</time>
  <course>177.85</course>
  <speed>13.168617998863816</speed>
  <fix>3d</fix>
</trkpt>
<trkpt lat="-27.2732252" lon="151.2899912">
  <ele>376.31</ele>
  <time>2026-09-01T19:52:35Z</time>
  <course>177.85</course>
  <speed>13.12814533740391</speed>
  <fix>3d</fix>
</trkpt>
<trkpt lat="-27.2732035" lon="151.2899901">
  <ele>376.69</ele>
  <time>2026-09-01T19:52:35Z</time>
  <course>176.86</course>
  <speed>13.28</speed>
  <fix>3d</fix>
</trkpt>
<trkpt lat="-27.2732257" lon="151.2899912">
  <ele>376.31</ele>
  <time>2026-09-01T19:52:35Z</time>
  <course>177.85</course>
  <speed>13.12814533740391</speed>
  <fix>3d</fix>
</trkpt>
<trkpt lat="-27.2732371" lon="151.2899919">
  <ele>376.21</ele>
  <time>2026-09-01T19:52:35Z</time>
  <course>177.85</course>
  <speed>13.058242607640587</speed>
  <fix>3d</fix>
</trkpt>
<trkpt lat="-27.2732035" lon="151.2899901">
  <ele>376.69</ele>
  <time>2026-09-01T19:52:35Z</time>
  <course>176.86</course>
  <speed>13.28</speed>
  <fix>3d</fix>
</trkpt>
<trkpt lat="-27.2732441" lon="151.2899923">
  <ele>376.16</ele>
  <time>2026-09-01T19:52:35Z</time>
  <course>177.86</course>
  <speed>13.028284614637494</speed>
  <fix>3d</fix>
</trkpt>
<trkpt lat="-27.2732489" lon="151.2899926">
  <ele>376.12</ele>
  <time>2026-09-01T19:52:35Z</time>
  <course>177.86</course>
  <speed>12.998326815402049</speed>
  <fix>3d</fix>
</trkpt>
<trkpt lat="-27.2732272" lon="151.2899915">
  <ele>376.49</ele>
  <time>2026-09-01T19:52:35Z</time>
  <course>176.87</course>
  <speed>13.14</speed>
  <fix>3d</fix>
</trkpt>
<trkpt lat="-27.2732532" lon="151.2899929">
  <ele>376.08</ele>
  <time>2026-09-01T19:52:35Z</time>
  <course>177.86</course>
  <speed>12.978355057556406</speed>
  <fix>3d</fix>
</trkpt>
<trkpt lat="-27.2732606" lon="151.2899933">
  <ele>376.02</ele>
  <time>2026-09-01T19:52:35Z</time>
  <course>177.86</course>
  <speed>12.937882361499506</speed>
  <fix>3d</fix>
</trkpt>
<trkpt lat="-27.2732272" lon="151.2899915">
  <ele>376.49</ele>
  <time>2026-09-01T19:52:35Z</time>
  <course>176.87</course>
  <speed>13.14</speed>
  <fix>3d</fix>
</trkpt>
<trkpt lat="-27.2732699" lon="151.2899939">
  <ele>375.94</ele>
  <time>2026-09-01T19:52:35Z</time>
  <course>177.86</course>
  <speed>12.887951737960536</speed>
  <fix>3d</fix>
</trkpt>
<trkpt lat="-27.2732722" lon="151.2899941">
  <ele>375.92</ele>
  <time>2026-09-01T19:52:35Z</time>
  <course>177.86</course>
  <speed>12.867979639399495</speed>
  <fix>3d</fix>
</trkpt>
<trkpt lat="-27.2732506" lon="151.2899929">
  <ele>376.29</ele>
  <time>2026-09-01T19:52:35Z</time>
  <course>176.87</course>
  <speed>13.01</speed>
  <fix>3d</fix>
</trkpt>
<trkpt lat="-27.2732757" lon="151.2899943">
  <ele>375.89</ele>
  <time>2026-09-01T19:52:35Z</time>
  <course>177.86</course>
  <speed>12.848007627644062</speed>
  <fix>3d</fix>
</trkpt>
<trkpt lat="-27.2732838" lon="151.2899948">
  <ele>375.83</ele>
  <time>2026-09-01T19:52:35Z</time>
  <course>177.86</course>
  <speed>12.807536843593306</speed>
  <fix>3d</fix>
</trkpt>
<trkpt lat="-27.2732506" lon="151.2899929">
  <ele>376.29</ele>
  <time>2026-09-01T19:52:35Z</time>
  <course>176.87</course>
  <speed>13.01</speed>
  <fix>3d</fix>
</trkpt>
<trkpt lat="-27.273288" lon="151.289995">
  <ele>375.79</ele>
  <time>2026-09-01T19:52:35Z</time>
  <course>177.86</course>
  <speed>12.787564271588238</speed>
  <fix>3d</fix>
</trkpt>
<trkpt lat="-27.2732953" lon="151.2899955">
  <ele>375.73</ele>
  <time>2026-09-01T19:52:35Z</time>
  <course>177.87</course>
  <speed>12.747619385595101</speed>
  <fix>3d</fix>
</trkpt>
<trkpt lat="-27.2732738" lon="151.2899944">
  <ele>376.09</ele>
  <time>2026-09-01T19:52:35Z</time>
  <course>176.87</course>
  <speed>12.88</speed>
  <fix>3d</fix>
</trkpt>
<trkpt lat="-27.2733068" lon="151.2899962">
  <ele>375.64</ele>
  <time>2026-09-01T19:52:35Z</time>
  <course>177.87</course>
  <speed>12.677716671388426</speed>
  <fix>3d</fix>
</trkpt>
<trkpt lat="-27.2732738" lon="151.2899944">
  <ele>376.09</ele>
  <time>2026-09-01T19:52:35Z</time>
  <course>176.87</course>
  <speed>12.88</speed>
  <fix>3d</fix>
</trkpt>
<trkpt lat="-27.2733079" lon="151.2899962">
  <ele>375.63</ele>
  <time>2026-09-01T19:52:35Z</time>
  <course>177.87</course>
  <speed>12.677716671388426</speed>
  <fix>3d</fix>
</trkpt>
<trkpt lat="-27.2733182" lon="151.2899969">
  <ele>375.55</ele>
  <time>2026-09-01T19:52:35Z</time>
  <course>177.87</course>
  <speed>12.617273873543365</speed>
  <fix>3d</fix>
</trkpt>
<trkpt lat="-27.2732968" lon="151.2899957">
  <ele>375.9</ele>
  <time>2026-09-01T19:52:35Z</time>
  <course>176.87</course>
  <speed>12.74</speed>
  <fix>3d</fix>
</trkpt>
<trkpt lat="-27.2733257" lon="151.2899973">
  <ele>375.49</ele>
  <time>2026-09-01T19:52:35Z</time>
  <course>177.87</course>
  <speed>12.577328810204495</speed>
  <fix>3d</fix>
</trkpt>
<trkpt lat="-27.2733295" lon="151.2899976">
  <ele>375.46</ele>
  <time>2026-09-01T19:52:35Z</time>
  <course>177.87</course>
  <speed>12.547370242405377</speed>
  <fix>3d</fix>
</trkpt>
<trkpt lat="-27.2732968" lon="151.2899957">
  <ele>375.9</ele>
  <time>2026-09-01T19:52:35Z</time>
  <course>176.87</course>
  <speed>12.74</speed>
  <fix>3d</fix>
</trkpt>
<trkpt lat="-27.2733408" lon="151.2899982">
  <ele>375.37</ele>
  <time>2026-09-01T19:52:35Z</time>
  <course>177.87</course>
  <speed>12.487453703617884</speed>
  <fix>3d</fix>
</trkpt>
<trkpt lat="-27.2733196" lon="151.2899972">
  <ele>375.71</ele>
  <time>2026-09-01T19:52:35Z</time>
  <course>176.87</course>
  <speed>12.61</speed>
  <fix>3d</fix>
</trkpt>
<trkpt lat="-27.2733412" lon="151.2899983">
  <ele>375.36</ele>
  <time>2026-09-01T19:52:35Z</time>
  <course>177.87</course>
  <speed>12.487453703617884</speed>
  <fix>3d</fix>
</trkpt>
<trkpt lat="-27.273352" lon="151.2899989">
  <ele>375.28</ele>
  <time>2026-09-01T19:52:35Z</time>
  <course>177.87</course>
  <speed>12.427010903672691</speed>
  <fix>3d</fix>
</trkpt>
<trkpt lat="-27.2733196" lon="151.2899972">
  <ele>375.71</ele>
  <time>2026-09-01T19:52:35Z</time>
  <course>176.87</course>
  <speed>12.61</speed>
  <fix>3d</fix>
</trkpt>
<trkpt lat="-27.2733524" lon="151.2899989">
  <ele>375.27</ele>
  <time>2026-09-01T19:52:35Z</time>
  <course>177.87</course>
  <speed>12.417024603341977</speed>
  <fix>3d</fix>
</trkpt>
<trkpt lat="-27.2733631" lon="151.2899996">
  <ele>375.19</ele>
  <time>2026-09-01T19:52:35Z</time>
  <course>177.87</course>
  <speed>12.357107266670464</speed>
  <fix>3d</fix>
</trkpt>
<trkpt lat="-27.2733421" lon="151.2899986">
  <ele>375.53</ele>
  <time>2026-09-01T19:52:35Z</time>
  <course>176.87</course>
  <speed>12.48</speed>
  <fix>3d</fix>
</trkpt>
<trkpt lat="-27.2733742" lon="151.2900003">
  <ele>375.1</ele>
  <time>2026-09-01T19:52:35Z</time>
  <course>177.87</course>
  <speed>12.286679779338273</speed>
  <fix>3d</fix>
</trkpt>
<trkpt lat="-27.2733421" lon="151.2899986">
  <ele>375.53</ele>
  <time>2026-09-01T19:52:35Z</time>
  <course>176.87</course>
  <speed>12.48</speed>
  <fix>3d</fix>
</trkpt>
<trkpt lat="-27.2733745" lon="151.2900003">
  <ele>375.1</ele>
  <time>2026-09-01T19:52:35Z</time>
  <course>177.87</course>
  <speed>12.286679779338273</speed>
  <fix>3d</fix>
</trkpt>
<trkpt lat="-27.2733851" lon="151.290001">
  <ele>375.02</ele>
  <time>2026-09-01T19:52:35Z</time>
  <course>177.88</course>
  <speed>12.22676163176497</speed>
  <fix>3d</fix>
</trkpt>
<trkpt lat="-27.2733644" lon="151.29">
  <ele>375.35</ele>
  <time>2026-09-01T19:52:35Z</time>
  <course>176.87</course>
  <speed>12.35</speed>
  <fix>3d</fix>
</trkpt>
<trkpt lat="-27.2733873" lon="151.2900011">
  <ele>375.0</ele>
  <time>2026-09-01T19:52:35Z</time>
  <course>177.88</course>
  <speed>12.206789094598136</speed>
  <fix>3d</fix>
</trkpt>
<trkpt lat="-27.2733961" lon="151.2900016">
  <ele>374.93</ele>
  <time>2026-09-01T19:52:35Z</time>
  <course>177.88</course>
  <speed>12.1568581467417</speed>
  <fix>3d</fix>
</trkpt>
<trkpt lat="-27.2733644" lon="151.29">
  <ele>375.35</ele>
  <time>2026-09-01T19:52:35Z</time>
  <course>176.87</course>
  <speed>12.35</speed>
  <fix>3d</fix>
</trkpt>
<trkpt lat="-27.2733964" lon="151.2900017">
  <ele>374.93</ele>
  <time>2026-09-01T19:52:35Z</time>
  <course>177.88</course>
  <speed>12.1568581467417</speed>
  <fix>3d</fix>
</trkpt>
<trkpt lat="-27.273407" lon="151.2900023">
  <ele>374.84</ele>
  <time>2026-09-01T19:52:35Z</time>
  <course>177.88</course>
  <speed>12.096416824828747</speed>
  <fix>3d</fix>
</trkpt>
<trkpt lat="-27.2733864" lon="151.2900013">
  <ele>375.17</ele>
  <time>2026-09-01T19:52:35Z</time>
  <course>176.87</course>
  <speed>12.22</speed>
  <fix>3d</fix>
</trkpt>
<trkpt lat="-27.2734073" lon="151.2900023">
  <ele>374.84</ele>
  <time>2026-09-01T19:52:35Z</time>
  <course>177.88</course>
  <speed>12.086430407692752</speed>
  <fix>3d</fix>
</trkpt>
<trkpt lat="-27.2734178" lon="151.290003">
  <ele>374.75</ele>
  <time>2026-09-01T19:52:35Z</time>
  <course>177.88</course>
  <speed>12.026512378906862</speed>
  <fix>3d</fix>
</trkpt>
<trkpt lat="-27.2733864" lon="151.2900013">
  <ele>375.17</ele>
  <time>2026-09-01T19:52:36Z</time>
  <course>176.87</course>
  <speed>12.22</speed>
  <fix>3d</fix>
</trkpt>
<trkpt lat="-27.2734182" lon="151.290003">
  <ele>374.75</ele>
  <time>2026-09-01T19:52:36Z</time>
  <course>177.88</course>
  <speed>12.026512378906862</speed>
  <fix>3d</fix>
</trkpt>
<trkpt lat="-27.2734286" lon="151.2900036">
  <ele>374.66</ele>
  <time>2026-09-01T19:52:36Z</time>
  <course>177.88</course>
  <speed>11.96659517155987</speed>
  <fix>3d</fix>
</trkpt>
<trkpt lat="-27.2734082" lon="151.2900026">
  <ele>375.0</ele>
  <time>2026-09-01T19:52:36Z</time>
  <course>176.86</course>
  <speed>12.09</speed>
  <fix>3d</fix>
</trkpt>
<trkpt lat="-27.273429" lon="151.2900037">
  <ele>374.66</ele>
  <time>2026-09-01T19:52:36Z</time>
  <course>177.88</course>
  <speed>11.96659517155987</speed>
  <fix>3d</fix>
</trkpt>
<trkpt lat="-27.2734393" lon="151.2900043">
  <ele>374.58</ele>
  <time>2026-09-01T19:52:36Z</time>
  <course>177.88</course>
  <speed>11.906153871003012</speed>
  <fix>3d</fix>
</trkpt>
<trkpt lat="-27.2734082" lon="151.2900026">
  <ele>375.0</ele>
  <time>2026-09-01T19:52:36Z</time>
  <course>176.86</course>
  <speed>12.09</speed>
  <fix>3d</fix>
</trkpt>
<trkpt lat="-27.2734397" lon="151.2900043">
  <ele>374.58</ele>
  <time>2026-09-01T19:52:36Z</time>
  <course>177.88</course>
  <speed>11.906153871003012</speed>
  <fix>3d</fix>
</trkpt>
<trkpt lat="-27.2734501" lon="151.290005">
  <ele>374.49</ele>
  <time>2026-09-01T19:52:36Z</time>
  <course>177.88</course>
  <speed>11.84623568902797</speed>
  <fix>3d</fix>
</trkpt>
<trkpt lat="-27.2734298" lon="151.290004">
  <ele>374.82</ele>
  <time>2026-09-01T19:52:36Z</time>
  <course>176.86</course>
  <speed>11.96</speed>
  <fix>3d</fix>
</trkpt>
<trkpt lat="-27.2734504" lon="151.290005">
  <ele>374.49</ele>
  <time>2026-09-01T19:52:36Z</time>
  <course>177.88</course>
  <speed>11.84623568902797</speed>
  <fix>3d</fix>
</trkpt>
<trkpt lat="-27.2734607" lon="151.2900056">
  <ele>374.41</ele>
  <time>2026-09-01T19:52:36Z</time>
  <course>177.88</course>
  <speed>11.786318339498557</speed>
  <fix>3d</fix>
</trkpt>
<trkpt lat="-27.2734298" lon="151.290004">
  <ele>374.82</ele>
  <time>2026-09-01T19:52:36Z</time>
  <course>176.86</course>
  <speed>11.96</speed>
  <fix>3d</fix>
</trkpt>
<trkpt lat="-27.2734611" lon="151.2900056">
  <ele>374.4</ele>
  <time>2026-09-01T19:52:36Z</time>
  <course>177.88</course>
  <speed>11.786318339498557</speed>
  <fix>3d</fix>
</trkpt>
<trkpt lat="-27.2734712" lon="151.2900063">
  <ele>374.32</ele>
  <time>2026-09-01T19:52:36Z</time>
  <course>177.88</course>
  <speed>11.72587736589463</speed>
  <fix>3d</fix>
</trkpt>
<trkpt lat="-27.2734511" lon="151.2900053">
  <ele>374.65</ele>
  <time>2026-09-01T19:52:36Z</time>
  <course>176.86</course>
  <speed>11.84</speed>
  <fix>3d</fix>
</trkpt>
<trkpt lat="-27.2734716" lon="151.2900063">
  <ele>374.32</ele>
  <time>2026-09-01T19:52:36Z</time>
  <course>177.88</course>
  <speed>11.72587736589463</speed>
  <fix>3d</fix>
</trkpt>
<trkpt lat="-27.2734819" lon="151.2900069">
  <ele>374.23</ele>
  <time>2026-09-01T19:52:36Z</time>
  <course>177.88</course>
  <speed>11.665959026158117</speed>
  <fix>3d</fix>
</trkpt>
<trkpt lat="-27.2734511" lon="151.2900053">
  <ele>374.65</ele>
  <time>2026-09-01T19:52:36Z</time>
  <course>176.86</course>
  <speed>11.84</speed>
  <fix>3d</fix>
</trkpt>
<trkpt lat="-27.2734823" lon="151.2900069">
  <ele>374.23</ele>
  <time>2026-09-01T19:52:36Z</time>
  <course>177.88</course>
  <speed>11.655972717881593</speed>
  <fix>3d</fix>
</trkpt>
<trkpt lat="-27.2734924" lon="151.2900076">
  <ele>374.15</ele>
  <time>2026-09-01T19:52:36Z</time>
  <course>177.88</course>
  <speed>11.606041530168673</speed>
  <fix>3d</fix>
</trkpt>
<trkpt lat="-27.2734723" lon="151.2900066">
  <ele>374.48</ele>
  <time>2026-09-01T19:52:36Z</time>
  <course>176.85</course>
  <speed>11.71</speed>
  <fix>3d</fix>
</trkpt>
<trkpt lat="-27.2734927" lon="151.2900076">
  <ele>374.15</ele>
  <time>2026-09-01T19:52:36Z</time>
  <course>177.88</course>
  <speed>11.596055363786428</speed>
  <fix>3d</fix>
</trkpt>
<trkpt lat="-27.2735028" lon="151.2900082">
  <ele>374.07</ele>
  <time>2026-09-01T19:52:36Z</time>
  <course>177.88</course>
  <speed>11.545600893846972</speed>
  <fix>3d</fix>
</trkpt>
<trkpt lat="-27.2734723" lon="151.2900066">
  <ele>374.48</ele>
  <time>2026-09-01T19:52:36Z</time>
  <course>176.85</course>
  <speed>11.71</speed>
  <fix>3d</fix>
</trkpt>
<trkpt lat="-27.2735032" lon="151.2900082">
  <ele>374.07</ele>
  <time>2026-09-01T19:52:36Z</time>
  <course>177.88</course>
  <speed>11.535614417966647</speed>
  <fix>3d</fix>
</trkpt>
<trkpt lat="-27.2735131" lon="151.2900088">
  <ele>373.99</ele>
  <time>2026-09-01T19:52:36Z</time>
  <course>177.88</course>
  <speed>11.475696057320445</speed>
  <fix>3d</fix>
</trkpt>
<trkpt lat="-27.2734932" lon="151.2900078">
  <ele>374.31</ele>
  <time>2026-09-01T19:52:36Z</time>
  <course>176.85</course>
  <speed>11.59</speed>
  <fix>3d</fix>
</trkpt>
<trkpt lat="-27.2735144" lon="151.2900089">
  <ele>373.98</ele>
  <time>2026-09-01T19:52:36Z</time>
  <course>177.88</course>
  <speed>11.465709746893124</speed>
  <fix>3d</fix>
</trkpt>
<trkpt lat="-27.2735234" lon="151.2900095">
  <ele>373.91</ele>
  <time>2026-09-01T19:52:36Z</time>
  <course>177.88</course>
  <speed>11.415778554264268</speed>
  <fix>3d</fix>
</trkpt>
<trkpt lat="-27.2734932" lon="151.2900078">
  <ele>374.31</ele>
  <time>2026-09-01T19:52:36Z</time>
  <course>176.85</course>
  <speed>11.59</speed>
  <fix>3d</fix>
</trkpt>
<trkpt lat="-27.2735295" lon="151.2900098">
  <ele>373.87</ele>
  <time>2026-09-01T19:52:36Z</time>
  <course>177.88</course>
  <speed>11.375834035357585</speed>
  <fix>3d</fix>
</trkpt>
<trkpt lat="-27.2735335" lon="151.2900101">
  <ele>373.83</ele>
  <time>2026-09-01T19:52:36Z</time>
  <course>177.88</course>
  <speed>11.345351470977</speed>
  <fix>3d</fix>
</trkpt>
<trkpt lat="-27.2735139" lon="151.2900091">
  <ele>374.15</ele>
  <time>2026-09-01T19:52:36Z</time>
  <course>176.84</course>
  <speed>11.46</speed>
  <fix>3d</fix>
</trkpt>
<trkpt lat="-27.2735366" lon="151.2900103">
  <ele>373.81</ele>
  <time>2026-09-01T19:52:36Z</time>
  <course>177.88</course>
  <speed>11.32537858086872</speed>
  <fix>3d</fix>
</trkpt>
<trkpt lat="-27.2735436" lon="151.2900107">
  <ele>373.76</ele>
  <time>2026-09-01T19:52:36Z</time>
  <course>177.88</course>
  <speed>11.285433088721051</speed>
  <fix>3d</fix>
</trkpt>
<trkpt lat="-27.2735139" lon="151.2900091">
  <ele>374.15</ele>
  <time>2026-09-01T19:52:36Z</time>
  <course>176.84</course>
  <speed>11.46</speed>
  <fix>3d</fix>
</trkpt>
<trkpt lat="-27.2735537" lon="151.2900113">
  <ele>373.68</ele>
  <time>2026-09-01T19:52:36Z</time>
  <course>177.88</course>
  <speed>11.225515578359865</speed>
  <fix>3d</fix>
</trkpt>
<trkpt lat="-27.2735343" lon="151.2900104">
  <ele>373.99</ele>
  <time>2026-09-01T19:52:36Z</time>
  <course>176.84</course>
  <speed>11.34</speed>
  <fix>3d</fix>
</trkpt>
<trkpt lat="-27.273554" lon="151.2900113">
  <ele>373.67</ele>
  <time>2026-09-01T19:52:36Z</time>
  <course>177.88</course>
  <speed>11.215529412381745</speed>
  <fix>3d</fix>
</trkpt>
<trkpt lat="-27.2735636" lon="151.2900119">
  <ele>373.6</ele>
  <time>2026-09-01T19:52:36Z</time>
  <course>177.88</course>
  <speed>11.155088524973703</speed>
  <fix>3d</fix>
</trkpt>
<trkpt lat="-27.2735343" lon="151.2900104">
  <ele>373.99</ele>
  <time>2026-09-01T19:52:36Z</time>
  <course>176.84</course>
  <speed>11.34</speed>
  <fix>3d</fix>
</trkpt>
<trkpt lat="-27.2735666" lon="151.2900121">
  <ele>373.57</ele>
  <time>2026-09-01T19:52:36Z</time>
  <course>177.88</course>
  <speed>11.135115625802905</speed>
  <fix>3d</fix>
</trkpt>
<trkpt lat="-27.2735736" lon="151.2900126">
  <ele>373.52</ele>
  <time>2026-09-01T19:52:36Z</time>
  <course>177.88</course>
  <speed>11.095170120372197</speed>
  <fix>3d</fix>
</trkpt>
<trkpt lat="-27.2735545" lon="151.2900116">
  <ele>373.82</ele>
  <time>2026-09-01T19:52:36Z</time>
  <course>176.83</course>
  <speed>11.22</speed>
  <fix>3d</fix>
</trkpt>
<trkpt lat="-27.2735765" lon="151.2900127">
  <ele>373.49</ele>
  <time>2026-09-01T19:52:36Z</time>
  <course>177.88</course>
  <speed>11.075197515168748</speed>
  <fix>3d</fix>
</trkpt>
<trkpt lat="-27.2735834" lon="151.2900132">
  <ele>373.44</ele>
  <time>2026-09-01T19:52:36Z</time>
  <course>177.88</course>
  <speed>11.03525260245546</speed>
  <fix>3d</fix>
</trkpt>
<trkpt lat="-27.2735545" lon="151.2900116">
  <ele>373.82</ele>
  <time>2026-09-01T19:52:36Z</time>
  <course>176.83</course>
  <speed>11.22</speed>
  <fix>3d</fix>
</trkpt>
<trkpt lat="-27.2735838" lon="151.2900132">
  <ele>373.43</ele>
  <time>2026-09-01T19:52:36Z</time>
  <course>177.88</course>
  <speed>11.025266436689863</speed>
  <fix>3d</fix>
</trkpt>
<trkpt lat="-27.2735932" lon="151.2900138">
  <ele>373.36</ele>
  <time>2026-09-01T19:52:36Z</time>
  <course>177.87</course>
  <speed>10.964825580008101</speed>
  <fix>3d</fix>
</trkpt>
<trkpt lat="-27.2735745" lon="151.2900129">
  <ele>373.65</ele>
  <time>2026-09-01T19:52:36Z</time>
  <course>176.82</course>
  <speed>11.1</speed>
  <fix>3d</fix>
</trkpt>
<trkpt lat="-27.2735949" lon="151.2900139">
  <ele>373.35</ele>
  <time>2026-09-01T19:52:36Z</time>
  <course>177.87</course>
  <speed>10.954839113378162</speed>
  <fix>3d</fix>
</trkpt>
<trkpt lat="-27.273603" lon="151.2900144">
  <ele>373.28</ele>
  <time>2026-09-01T19:52:36Z</time>
  <course>177.87</course>
  <speed>10.904907152286992</speed>
  <fix>3d</fix>
</trkpt>
<trkpt lat="-27.2735745" lon="151.2900129">
  <ele>373.65</ele>
  <time>2026-09-01T19:52:36Z</time>
  <course>176.82</course>
  <speed>11.1</speed>
  <fix>3d</fix>
</trkpt>
<trkpt lat="-27.2736059" lon="151.2900146">
  <ele>373.26</ele>
  <time>2026-09-01T19:52:36Z</time>
  <course>177.87</course>
  <speed>10.884934542752198</speed>
  <fix>3d</fix>
</trkpt>
<trkpt lat="-27.2736128" lon="151.290015">
  <ele>373.2</ele>
  <time>2026-09-01T19:52:36Z</time>
  <course>177.87</course>
  <speed>10.844989626551055</speed>
  <fix>3d</fix>
</trkpt>
<trkpt lat="-27.2735944" lon="151.2900141">
  <ele>373.5</ele>
  <time>2026-09-01T19:52:36Z</time>
  <course>176.81</course>
  <speed>10.98</speed>
  <fix>3d</fix>
</trkpt>
<trkpt lat="-27.2736225" lon="151.2900156">
  <ele>373.12</ele>
  <time>2026-09-01T19:52:36Z</time>
  <course>177.87</course>
  <speed>10.795059054956578</speed>
  <fix>3d</fix>
</trkpt>
<trkpt lat="-27.2735944" lon="151.2900141">
  <ele>373.5</ele>
  <time>2026-09-01T19:52:36Z</time>
  <course>176.81</course>
  <speed>10.98</speed>
  <fix>3d</fix>
</trkpt>
<trkpt lat="-27.2736231" lon="151.2900156">
  <ele>373.12</ele>
  <time>2026-09-01T19:52:36Z</time>
  <course>177.87</course>
  <speed>10.78507301783349</speed>
  <fix>3d</fix>
</trkpt>
<trkpt lat="-27.2736322" lon="151.2900162">
  <ele>373.04</ele>
  <time>2026-09-01T19:52:36Z</time>
  <course>177.87</course>
  <speed>10.734616900476702</speed>
  <fix>3d</fix>
</trkpt>
<trkpt lat="-27.273614" lon="151.2900153">
  <ele>373.34</ele>
  <time>2026-09-01T19:52:36Z</time>
  <course>176.81</course>
  <speed>10.86</speed>
  <fix>3d</fix>
</trkpt>
<trkpt lat="-27.2736335" lon="151.2900163">
  <ele>373.03</ele>
  <time>2026-09-01T19:52:36Z</time>
  <course>177.87</course>
  <speed>10.724630529766515</speed>
  <fix>3d</fix>
</trkpt>
<trkpt lat="-27.2736418" lon="151.2900168">
  <ele>372.96</ele>
  <time>2026-09-01T19:52:36Z</time>
  <course>177.87</course>
  <speed>10.674699058989907</speed>
  <fix>3d</fix>
</trkpt>
<trkpt lat="-27.273614" lon="151.2900153">
  <ele>373.34</ele>
  <time>2026-09-01T19:52:36Z</time>
  <course>176.81</course>
  <speed>10.86</speed>
  <fix>3d</fix>
</trkpt>
<trkpt lat="-27.2736447" lon="151.290017">
  <ele>372.93</ele>
  <time>2026-09-01T19:52:36Z</time>
  <course>177.87</course>
  <speed>10.664712841891244</speed>
  <fix>3d</fix>
</trkpt>
<trkpt lat="-27.2736514" lon="151.2900174">
  <ele>372.88</ele>
  <time>2026-09-01T19:52:36Z</time>
  <course>177.87</course>
  <speed>10.624768232766304</speed>
  <fix>3d</fix>
</trkpt>
<trkpt lat="-27.2736334" lon="151.2900166">
  <ele>373.18</ele>
  <time>2026-09-01T19:52:36Z</time>
  <course>176.8</course>
  <speed>10.75</speed>
  <fix>3d</fix>
</trkpt>
<trkpt lat="-27.2736575" lon="151.2900178">
  <ele>372.82</ele>
  <time>2026-09-01T19:52:36Z</time>
  <course>177.87</course>
  <speed>10.584824041995219</speed>
  <fix>3d</fix>
</trkpt>
<trkpt lat="-27.273661" lon="151.290018">
  <ele>372.79</ele>
  <time>2026-09-01T19:52:36Z</time>
  <course>177.87</course>
  <speed>10.564326765109076</speed>
  <fix>3d</fix>
</trkpt>
<trkpt lat="-27.2736334" lon="151.2900166">
  <ele>373.18</ele>
  <time>2026-09-01T19:52:36Z</time>
  <course>176.8</course>
  <speed>10.75</speed>
  <fix>3d</fix>
</trkpt>
<trkpt lat="-27.2736689" lon="151.2900185">
  <ele>372.73</ele>
  <time>2026-09-01T19:52:36Z</time>
  <course>177.87</course>
  <speed>10.52438121696473</speed>
  <fix>3d</fix>
</trkpt>
<trkpt lat="-27.2736705" lon="151.2900186">
  <ele>372.71</ele>
  <time>2026-09-01T19:52:36Z</time>
  <course>177.87</course>
  <speed>10.51439489461947</speed>
  <fix>3d</fix>
</trkpt>
<trkpt lat="-27.2736526" lon="151.2900177">
  <ele>373.02</ele>
  <time>2026-09-01T19:52:36Z</time>
  <course>176.79</course>
  <speed>10.63</speed>
  <fix>3d</fix>
</trkpt>
<trkpt lat="-27.273673" lon="151.2900187">
  <ele>372.69</ele>
  <time>2026-09-01T19:52:36Z</time>
  <course>177.87</course>
  <speed>10.494422328075043</speed>
  <fix>3d</fix>
</trkpt>
<trkpt lat="-27.2736799" lon="151.2900192">
  <ele>372.64</ele>
  <time>2026-09-01T19:52:36Z</time>
  <course>177.87</course>
  <speed>10.454477509660633</speed>
  <fix>3d</fix>
</trkpt>
<trkpt lat="-27.2736526" lon="151.2900177">
  <ele>373.02</ele>
  <time>2026-09-01T19:52:36Z</time>
  <course>176.79</course>
  <speed>10.63</speed>
  <fix>3d</fix>
</trkpt>
<trkpt lat="-27.2736893" lon="151.2900197">
  <ele>372.56</ele>
  <time>2026-09-01T19:52:36Z</time>
  <course>177.87</course>
  <speed>10.394561077794483</speed>
  <fix>3d</fix>
</trkpt>
<trkpt lat="-27.2736716" lon="151.2900189">
  <ele>372.86</ele>
  <time>2026-09-01T19:52:36Z</time>
  <course>176.78</course>
  <speed>10.52</speed>
  <fix>3d</fix>
</trkpt>
<trkpt lat="-27.2736897" lon="151.2900198">
  <ele>372.56</ele>
  <time>2026-09-01T19:52:36Z</time>
  <course>177.87</course>
  <speed>10.394561077794483</speed>
  <fix>3d</fix>
</trkpt>
<trkpt lat="-27.2736987" lon="151.2900203">
  <ele>372.49</ele>
  <time>2026-09-01T19:52:36Z</time>
  <course>177.86</course>
  <speed>10.344104601172592</speed>
  <fix>3d</fix>
</trkpt>
<trkpt lat="-27.2736716" lon="151.2900189">
  <ele>372.86</ele>
  <time>2026-09-01T19:52:36Z</time>
  <course>176.78</course>
  <speed>10.52</speed>
  <fix>3d</fix>
</trkpt>
<trkpt lat="-27.273699" lon="151.2900203">
  <ele>372.48</ele>
  <time>2026-09-01T19:52:36Z</time>
  <course>177.86</course>
  <speed>10.344104601172592</speed>
  <fix>3d</fix>
</trkpt>
<trkpt lat="-27.273708" lon="151.2900209">
  <ele>372.41</ele>
  <time>2026-09-01T19:52:36Z</time>
  <course>177.86</course>
  <speed>10.284186890561646</speed>
  <fix>3d</fix>
</trkpt>
<trkpt lat="-27.2736903" lon="151.2900201">
  <ele>372.7</ele>
  <time>2026-09-01T19:52:36Z</time>
  <course>176.78</course>
  <speed>10.4</speed>
  <fix>3d</fix>
</trkpt>
<trkpt lat="-27.2737084" lon="151.2900209">
  <ele>372.41</ele>
  <time>2026-09-01T19:52:36Z</time>
  <course>177.86</course>
  <speed>10.284186890561646</speed>
  <fix>3d</fix>
</trkpt>
<trkpt lat="-27.2737173" lon="151.2900215">
  <ele>372.33</ele>
  <time>2026-09-01T19:52:36Z</time>
  <course>177.86</course>
  <speed>10.224270145100823</speed>
  <fix>3d</fix>
</trkpt>
<trkpt lat="-27.2736903" lon="151.2900201">
  <ele>372.7</ele>
  <time>2026-09-01T19:52:36Z</time>
  <course>176.78</course>
  <speed>10.4</speed>
  <fix>3d</fix>
</trkpt>
<trkpt lat="-27.2737265" lon="151.2900221">
  <ele>372.26</ele>
  <time>2026-09-01T19:52:36Z</time>
  <course>177.86</course>
  <speed>10.163828019009374</speed>
  <fix>3d</fix>
</trkpt>
<trkpt lat="-27.2737089" lon="151.2900214">
  <ele>372.54</ele>
  <time>2026-09-01T19:52:36Z</time>
  <course>176.77</course>
  <speed>10.29</speed>
  <fix>3d</fix>
</trkpt>
<trkpt lat="-27.2737268" lon="151.2900221">
  <ele>372.26</ele>
  <time>2026-09-01T19:52:36Z</time>
  <course>177.86</course>
  <speed>10.163828019009374</speed>
  <fix>3d</fix>
</trkpt>
<trkpt lat="-27.2737356" lon="151.2900226">
  <ele>372.18</ele>
  <time>2026-09-01T19:52:36Z</time>
  <course>177.86</course>
  <speed>10.113896380722911</speed>
  <fix>3d</fix>
</trkpt>
<trkpt lat="-27.2737089" lon="151.2900214">
  <ele>372.54</ele>
  <time>2026-09-01T19:52:36Z</time>
  <course>176.77</course>
  <speed>10.29</speed>
  <fix>3d</fix>
</trkpt>
<trkpt lat="-27.2737359" lon="151.2900227">
  <ele>372.18</ele>
  <time>2026-09-01T19:52:36Z</time>
  <course>177.86</course>
  <speed>10.103910134200522</speed>
  <fix>3d</fix>
</trkpt>
<trkpt lat="-27.2737448" lon="151.2900232">
  <ele>372.11</ele>
  <time>2026-09-01T19:52:36Z</time>
  <course>177.86</course>
  <speed>10.053979311695445</speed>
  <fix>3d</fix>
</trkpt>
<trkpt lat="-27.2737272" lon="151.2900225">
  <ele>372.39</ele>
  <time>2026-09-01T19:52:36Z</time>
  <course>176.76</course>
  <speed>10.17</speed>
  <fix>3d</fix>
</trkpt>
<trkpt lat="-27.2737477" lon="151.2900234">
  <ele>372.08</ele>
  <time>2026-09-01T19:52:36Z</time>
  <course>177.86</course>
  <speed>10.034007175600385</speed>
  <fix>3d</fix>
</trkpt>
<trkpt lat="-27.2737538" lon="151.2900238">
  <ele>372.03</ele>
  <time>2026-09-01T19:52:36Z</time>
  <course>177.86</course>
  <speed>9.994063237742695</speed>
  <fix>3d</fix>
</trkpt>
<trkpt lat="-27.2737272" lon="151.2900225">
  <ele>372.39</ele>
  <time>2026-09-01T19:52:36Z</time>
  <course>176.76</course>
  <speed>10.17</speed>
  <fix>3d</fix>
</trkpt>
<trkpt lat="-27.2737568" lon="151.290024">
  <ele>372.01</ele>
  <time>2026-09-01T19:52:36Z</time>
  <course>177.86</course>
  <speed>9.97409143731899</speed>
  <fix>3d</fix>
</trkpt>
<trkpt lat="-27.2737627" lon="151.2900244">
  <ele>371.96</ele>
  <time>2026-09-01T19:52:36Z</time>
  <course>177.86</course>
  <speed>9.923633407175014</speed>
  <fix>3d</fix>
</trkpt>
<trkpt lat="-27.2737453" lon="151.2900237">
  <ele>372.24</ele>
  <time>2026-09-01T19:52:36Z</time>
  <course>176.75</course>
  <speed>10.05</speed>
  <fix>3d</fix>
</trkpt>
<trkpt lat="-27.2737653" lon="151.2900245">
  <ele>371.94</ele>
  <time>2026-09-01T19:52:36Z</time>
  <course>177.86</course>
  <speed>9.903660939268871</speed>
  <fix>3d</fix>
</trkpt>
<trkpt lat="-27.2737715" lon="151.2900249">
  <ele>371.88</ele>
  <time>2026-09-01T19:52:36Z</time>
  <course>177.86</course>
  <speed>9.863716338175992</speed>
  <fix>3d</fix>
</trkpt>
<trkpt lat="-27.2737453" lon="151.2900237">
  <ele>372.24</ele>
  <time>2026-09-01T19:52:36Z</time>
  <course>176.75</course>
  <speed>10.05</speed>
  <fix>3d</fix>
</trkpt>
<trkpt lat="-27.2737741" lon="151.2900251">
  <ele>371.86</ele>
  <time>2026-09-01T19:52:36Z</time>
  <course>177.86</course>
  <speed>9.843744206347502</speed>
  <fix>3d</fix>
</trkpt>
<trkpt lat="-27.2737802" lon="151.2900255">
  <ele>371.81</ele>
  <time>2026-09-01T19:52:36Z</time>
  <course>177.87</course>
  <speed>9.803800283563511</speed>
  <fix>3d</fix>
</trkpt>
<trkpt lat="-27.2737633" lon="151.2900248">
  <ele>372.09</ele>
  <time>2026-09-01T19:52:36Z</time>
  <course>176.75</course>
  <speed>9.93</speed>
  <fix>3d</fix>
</trkpt>
<trkpt lat="-27.2737889" lon="151.290026">
  <ele>371.74</ele>
  <time>2026-09-01T19:52:36Z</time>
  <course>177.87</course>
  <speed>9.733370433719246</speed>
  <fix>3d</fix>
</trkpt>
<trkpt lat="-27.2737633" lon="151.2900248">
  <ele>372.09</ele>
  <time>2026-09-01T19:52:36Z</time>
  <course>176.75</course>
  <speed>9.93</speed>
  <fix>3d</fix>
</trkpt>
<trkpt lat="-27.2737892" lon="151.2900261">
  <ele>371.73</ele>
  <time>2026-09-01T19:52:36Z</time>
  <course>177.87</course>
  <speed>9.733370433719246</speed>
  <fix>3d</fix>
</trkpt>
<trkpt lat="-27.2737975" lon="151.2900266">
  <ele>371.66</ele>
  <time>2026-09-01T19:52:36Z</time>
  <course>177.87</course>
  <speed>9.673453364750356</speed>
  <fix>3d</fix>
</trkpt>
<trkpt lat="-27.273781" lon="151.290026">
  <ele>371.94</ele>
  <time>2026-09-01T19:52:36Z</time>
  <course>176.74</course>
  <speed>9.81</speed>
  <fix>3d</fix>
</trkpt>
<trkpt lat="-27.2737978" lon="151.2900266">
  <ele>371.66</ele>
  <time>2026-09-01T19:52:36Z</time>
  <course>177.87</course>
  <speed>9.673453364750356</speed>
  <fix>3d</fix>
</trkpt>
<trkpt lat="-27.2738061" lon="151.2900272">
  <ele>371.59</ele>
  <time>2026-09-01T19:52:36Z</time>
  <course>177.87</course>
  <speed>9.613537330244263</speed>
  <fix>3d</fix>
</trkpt>
<trkpt lat="-27.273781" lon="151.290026">
  <ele>371.94</ele>
  <time>2026-09-01T19:52:36Z</time>
  <course>176.74</course>
  <speed>9.81</speed>
  <fix>3d</fix>
</trkpt>
<trkpt lat="-27.2738075" lon="151.2900272">
  <ele>371.58</ele>
  <time>2026-09-01T19:52:36Z</time>
  <course>177.87</course>
  <speed>9.60355142642554</speed>
  <fix>3d</fix>
</trkpt>
<trkpt lat="-27.2738147" lon="151.2900277">
  <ele>371.51</ele>
  <time>2026-09-01T19:52:36Z</time>
  <course>177.87</course>
  <speed>9.553622349664026</speed>
  <fix>3d</fix>
</trkpt>
<trkpt lat="-27.2737986" lon="151.2900271">
  <ele>371.79</ele>
  <time>2026-09-01T19:52:36Z</time>
  <course>176.73</course>
  <speed>9.69</speed>
  <fix>3d</fix>
</trkpt>
<trkpt lat="-27.2738177" lon="151.2900279">
  <ele>371.49</ele>
  <time>2026-09-01T19:52:36Z</time>
  <course>177.87</course>
  <speed>9.53312120976126</speed>
  <fix>3d</fix>
</trkpt>
<trkpt lat="-27.2738232" lon="151.2900283">
  <ele>371.44</ele>
  <time>2026-09-01T19:52:36Z</time>
  <course>177.88</course>
  <speed>9.493176496831817</speed>
  <fix>3d</fix>
</trkpt>
<trkpt lat="-27.2737986" lon="151.2900271">
  <ele>371.79</ele>
  <time>2026-09-01T19:52:36Z</time>
  <course>176.73</course>
  <speed>9.69</speed>
  <fix>3d</fix>
</trkpt>
<trkpt lat="-27.2738317" lon="151.2900288">
  <ele>371.36</ele>
  <time>2026-09-01T19:52:36Z</time>
  <course>177.88</course>
  <speed>9.433260305959971</speed>
  <fix>3d</fix>
</trkpt>
<trkpt lat="-27.2738159" lon="151.2900282">
  <ele>371.64</ele>
  <time>2026-09-01T19:52:36Z</time>
  <course>176.73</course>
  <speed>9.58</speed>
  <fix>3d</fix>
</trkpt>
<trkpt lat="-27.2738348" lon="151.290029">
  <ele>371.33</ele>
  <time>2026-09-01T19:52:36Z</time>
  <course>177.88</course>
  <speed>9.413288479590966</speed>
  <fix>3d</fix>
</trkpt>
<trkpt lat="-27.2738401" lon="151.2900293">
  <ele>371.29</ele>
  <time>2026-09-01T19:52:36Z</time>
  <course>177.88</course>
  <speed>9.37334518728506</speed>
  <fix>3d</fix>
</trkpt>
<trkpt lat="-27.2738159" lon="151.2900282">
  <ele>371.64</ele>
  <time>2026-09-01T19:52:36Z</time>
  <course>176.73</course>
  <speed>9.58</speed>
  <fix>3d</fix>
</trkpt>
<trkpt lat="-27.2738485" lon="151.2900299">
  <ele>371.21</ele>
  <time>2026-09-01T19:52:36Z</time>
  <course>177.89</course>
  <speed>9.32288581931582</speed>
  <fix>3d</fix>
</trkpt>
<trkpt lat="-27.273833" lon="151.2900293">
  <ele>371.49</ele>
  <time>2026-09-01T19:52:36Z</time>
  <course>176.73</course>
  <speed>9.46</speed>
  <fix>3d</fix>
</trkpt>
<trkpt lat="-27.2738488" lon="151.2900299">
  <ele>371.21</ele>
  <time>2026-09-01T19:52:36Z</time>
  <course>177.89</course>
  <speed>9.32288581931582</speed>
  <fix>3d</fix>
</trkpt>
<trkpt lat="-27.2738569" lon="151.2900304">
  <ele>371.14</ele>
  <time>2026-09-01T19:52:36Z</time>
  <course>177.89</course>
  <speed>9.262969286357372</speed>
  <fix>3d</fix>
</trkpt>
<trkpt lat="-27.273833" lon="151.2900293">
  <ele>371.49</ele>
  <time>2026-09-01T19:52:36Z</time>
  <course>176.73</course>
  <speed>9.46</speed>
  <fix>3d</fix>
</trkpt>
<trkpt lat="-27.2738651" lon="151.290031">
  <ele>371.06</ele>
  <time>2026-09-01T19:52:36Z</time>
  <course>177.9</course>
  <speed>9.213039672116906</speed>
  <fix>3d</fix>
</trkpt>
<trkpt lat="-27.2738498" lon="151.2900303">
  <ele>371.34</ele>
  <time>2026-09-01T19:52:36Z</time>
  <course>176.73</course>
  <speed>9.35</speed>
  <fix>3d</fix>
</trkpt>
<trkpt lat="-27.2738655" lon="151.290031">
  <ele>371.06</ele>
  <time>2026-09-01T19:52:36Z</time>
  <course>177.9</course>
  <speed>9.203053840981264</speed>
  <fix>3d</fix>
</trkpt>
<trkpt lat="-27.2738734" lon="151.2900315">
  <ele>370.98</ele>
  <time>2026-09-01T19:52:36Z</time>
  <course>177.91</course>
  <speed>9.152595260361949</speed>
  <fix>3d</fix>
</trkpt>
<trkpt lat="-27.2738498" lon="151.2900303">
  <ele>371.34</ele>
  <time>2026-09-01T19:52:36Z</time>
  <course>176.73</course>
  <speed>9.35</speed>
  <fix>3d</fix>
</trkpt>
<trkpt lat="-27.2738737" lon="151.2900315">
  <ele>370.98</ele>
  <time>2026-09-01T19:52:36Z</time>
  <course>177.91</course>
  <speed>9.152595260361949</speed>
  <fix>3d</fix>
</trkpt>
<trkpt lat="-27.2738816" lon="151.290032">
  <ele>370.91</ele>
  <time>2026-09-01T19:52:36Z</time>
  <course>177.91</course>
  <speed>9.09267837328474</speed>
  <fix>3d</fix>
</trkpt>
<trkpt lat="-27.2738664" lon="151.2900314">
  <ele>371.19</ele>
  <time>2026-09-01T19:52:36Z</time>
  <course>176.73</course>
  <speed>9.24</speed>
  <fix>3d</fix>
</trkpt>
<trkpt lat="-27.2738843" lon="151.2900322">
  <ele>370.88</ele>
  <time>2026-09-01T19:52:36Z</time>
  <course>177.92</course>
  <speed>9.072706321710188</speed>
  <fix>3d</fix>
</trkpt>
<trkpt lat="-27.2738897" lon="151.2900325">
  <ele>370.83</ele>
  <time>2026-09-01T19:52:36Z</time>
  <course>177.92</course>
  <speed>9.042223177957952</speed>
  <fix>3d</fix>
</trkpt>
<trkpt lat="-27.2738664" lon="151.2900314">
  <ele>371.19</ele>
  <time>2026-09-01T19:52:36Z</time>
  <course>176.73</course>
  <speed>9.24</speed>
  <fix>3d</fix>
</trkpt>
<trkpt lat="-27.27389" lon="151.2900325">
  <ele>370.83</ele>
  <time>2026-09-01T19:52:36Z</time>
  <course>177.92</course>
  <speed>9.03223671080425</speed>
  <fix>3d</fix>
</trkpt>
<trkpt lat="-27.2738979" lon="151.2900331">
  <ele>370.75</ele>
  <time>2026-09-01T19:52:36Z</time>
  <course>177.93</course>
  <speed>8.982304826713465</speed>
  <fix>3d</fix>
</trkpt>
<trkpt lat="-27.273883" lon="151.2900325">
  <ele>371.03</ele>
  <time>2026-09-01T19:52:36Z</time>
  <course>176.73</course>
  <speed>9.13</speed>
  <fix>3d</fix>
</trkpt>
<trkpt lat="-27.2738995" lon="151.2900332">
  <ele>370.74</ele>
  <time>2026-09-01T19:52:36Z</time>
  <course>177.93</course>
  <speed>8.972318540934667</speed>
  <fix>3d</fix>
</trkpt>
<trkpt lat="-27.2739059" lon="151.2900336">
  <ele>370.67</ele>
  <time>2026-09-01T19:52:36Z</time>
  <course>177.93</course>
  <speed>8.9223875728417</speed>
  <fix>3d</fix>
</trkpt>
<trkpt lat="-27.273883" lon="151.2900325">
  <ele>371.03</ele>
  <time>2026-09-01T19:52:36Z</time>
  <course>176.73</course>
  <speed>9.13</speed>
  <fix>3d</fix>
</trkpt>
<trkpt lat="-27.2739089" lon="151.2900338">
  <ele>370.65</ele>
  <time>2026-09-01T19:52:36Z</time>
  <course>177.94</course>
  <speed>8.902415402574741</speed>
  <fix>3d</fix>
</trkpt>
<trkpt lat="-27.2739139" lon="151.2900341">
  <ele>370.6</ele>
  <time>2026-09-01T19:52:36Z</time>
  <course>177.94</course>
  <speed>8.872457382258874</speed>
  <fix>3d</fix>
</trkpt>
<trkpt lat="-27.2738992" lon="151.2900335">
  <ele>370.88</ele>
  <time>2026-09-01T19:52:36Z</time>
  <course>176.73</course>
  <speed>9.01</speed>
  <fix>3d</fix>
</trkpt>
<trkpt lat="-27.2739163" lon="151.2900342">
  <ele>370.57</ele>
  <time>2026-09-01T19:52:36Z</time>
  <course>177.94</course>
  <speed>8.85196023488583</speed>
  <fix>3d</fix>
</trkpt>
<trkpt lat="-27.2739219" lon="151.2900346">
  <ele>370.52</ele>
  <time>2026-09-01T19:52:36Z</time>
  <course>177.95</course>
  <speed>8.812014525634874</speed>
  <fix>3d</fix>
</trkpt>
<trkpt lat="-27.2738992" lon="151.2900335">
  <ele>370.88</ele>
  <time>2026-09-01T19:52:36Z</time>
  <course>176.73</course>
  <speed>9.01</speed>
  <fix>3d</fix>
</trkpt>
<trkpt lat="-27.2739298" lon="151.2900351">
  <ele>370.45</ele>
  <time>2026-09-01T19:52:36Z</time>
  <course>177.96</course>
  <speed>8.752096891602607</speed>
  <fix>3d</fix>
</trkpt>
<trkpt lat="-27.2739153" lon="151.2900345">
  <ele>370.72</ele>
  <time>2026-09-01T19:52:36Z</time>
  <course>176.74</course>
  <speed>8.9</speed>
  <fix>3d</fix>
</trkpt>
<trkpt lat="-27.27393" lon="151.2900351">
  <ele>370.44</ele>
  <time>2026-09-01T19:52:36Z</time>
  <course>177.96</course>
  <speed>8.752096891602607</speed>
  <fix>3d</fix>
</trkpt>
<trkpt lat="-27.2739376" lon="151.2900356">
  <ele>370.37</ele>
  <time>2026-09-01T19:52:36Z</time>
  <course>177.97</course>
  <speed>8.69165691913803</speed>
  <fix>3d</fix>
</trkpt>
<trkpt lat="-27.2739153" lon="151.2900345">
  <ele>370.72</ele>
  <time>2026-09-01T19:52:36Z</time>
  <course>176.74</course>
  <speed>8.9</speed>
  <fix>3d</fix>
</trkpt>
<trkpt lat="-27.2739407" lon="151.2900358">
  <ele>370.34</ele>
  <time>2026-09-01T19:52:36Z</time>
  <course>177.97</course>
  <speed>8.671683804198583</speed>
  <fix>3d</fix>
</trkpt>
<trkpt lat="-27.2739453" lon="151.2900361">
  <ele>370.29</ele>
  <time>2026-09-01T19:52:36Z</time>
  <course>177.97</course>
  <speed>8.63173794782951</speed>
  <fix>3d</fix>
</trkpt>
<trkpt lat="-27.2739312" lon="151.2900355">
  <ele>370.57</ele>
  <time>2026-09-01T19:52:36Z</time>
  <course>176.74</course>
  <speed>8.79</speed>
  <fix>3d</fix>
</trkpt>
<trkpt lat="-27.2739482" lon="151.2900363">
  <ele>370.27</ele>
  <time>2026-09-01T19:52:36Z</time>
  <course>177.98</course>
  <speed>8.611765208132418</speed>
  <fix>3d</fix>
</trkpt>
<trkpt lat="-27.273953" lon="151.2900366">
  <ele>370.22</ele>
  <time>2026-09-01T19:52:36Z</time>
  <course>177.98</course>
  <speed>8.571820110104971</speed>
  <fix>3d</fix>
</trkpt>
<trkpt lat="-27.2739312" lon="151.2900355">
  <ele>370.57</ele>
  <time>2026-09-01T19:52:36Z</time>
  <course>176.74</course>
  <speed>8.79</speed>
  <fix>3d</fix>
</trkpt>
<trkpt lat="-27.2739547" lon="151.2900367">
  <ele>370.2</ele>
  <time>2026-09-01T19:52:36Z</time>
  <course>177.99</course>
  <speed>8.561833915698202</speed>
  <fix>3d</fix>
</trkpt>
<trkpt lat="-27.2739607" lon="151.2900371">
  <ele>370.14</ele>
  <time>2026-09-01T19:52:36Z</time>
  <course>177.99</course>
  <speed>8.511380616562745</speed>
  <fix>3d</fix>
</trkpt>
<trkpt lat="-27.2739469" lon="151.2900366">
  <ele>370.42</ele>
  <time>2026-09-01T19:52:36Z</time>
  <course>176.74</course>
  <speed>8.67</speed>
  <fix>3d</fix>
</trkpt>
<trkpt lat="-27.2739634" lon="151.2900372">
  <ele>370.11</ele>
  <time>2026-09-01T19:52:36Z</time>
  <course>178.0</course>
  <speed>8.491407421623343</speed>
  <fix>3d</fix>
</trkpt>
<trkpt lat="-27.2739683" lon="151.2900375">
  <ele>370.07</ele>
  <time>2026-09-01T19:52:36Z</time>
  <course>178.0</course>
  <speed>8.461447866647882</speed>
  <fix>3d</fix>
</trkpt>
<trkpt lat="-27.2739469" lon="151.2900366">
  <ele>370.42</ele>
  <time>2026-09-01T19:52:36Z</time>
  <course>176.74</course>
  <speed>8.67</speed>
  <fix>3d</fix>
</trkpt>
<trkpt lat="-27.2739708" lon="151.2900377">
  <ele>370.04</ele>
  <time>2026-09-01T19:52:36Z</time>
  <course>178.01</course>
  <speed>8.441474989597493</speed>
  <fix>3d</fix>
</trkpt>
<trkpt lat="-27.2739759" lon="151.290038">
  <ele>369.99</ele>
  <time>2026-09-01T19:52:36Z</time>
  <course>178.01</course>
  <speed>8.401529622634202</speed>
  <fix>3d</fix>
</trkpt>
<trkpt lat="-27.2739624" lon="151.2900376">
  <ele>370.27</ele>
  <time>2026-09-01T19:52:36Z</time>
  <course>176.74</course>
  <speed>8.56</speed>
  <fix>3d</fix>
</trkpt>
<trkpt lat="-27.2739761" lon="151.290038">
  <ele>369.99</ele>
  <time>2026-09-01T19:52:36Z</time>
  <course>178.01</course>
  <speed>8.401529622634202</speed>
  <fix>3d</fix>
</trkpt>
<trkpt lat="-27.2739834" lon="151.2900385">
  <ele>369.91</ele>
  <time>2026-09-01T19:52:36Z</time>
  <course>178.02</course>
  <speed>8.341091055731258</speed>
  <fix>3d</fix>
</trkpt>
<trkpt lat="-27.2739624" lon="151.2900376">
  <ele>370.27</ele>
  <time>2026-09-01T19:52:36Z</time>
  <course>176.74</course>
  <speed>8.56</speed>
  <fix>3d</fix>
</trkpt>
<trkpt lat="-27.2739845" lon="151.2900386">
  <ele>369.9</ele>
  <time>2026-09-01T19:52:36Z</time>
  <course>178.02</course>
  <speed>8.331104368569632</speed>
  <fix>3d</fix>
</trkpt>
<trkpt lat="-27.2739909" lon="151.290039">
  <ele>369.83</ele>
  <time>2026-09-01T19:52:36Z</time>
  <course>178.03</course>
  <speed>8.28117141472147</speed>
  <fix>3d</fix>
</trkpt>
<trkpt lat="-27.2739776" lon="151.2900386">
  <ele>370.11</ele>
  <time>2026-09-01T19:52:36Z</time>
  <course>176.75</course>
  <speed>8.45</speed>
  <fix>3d</fix>
</trkpt>
<trkpt lat="-27.2739983" lon="151.2900395">
  <ele>369.76</ele>
  <time>2026-09-01T19:52:36Z</time>
  <course>178.04</course>
  <speed>8.231239274860135</speed>
  <fix>3d</fix>
</trkpt>
<trkpt lat="-27.2739776" lon="151.2900386">
  <ele>370.11</ele>
  <time>2026-09-01T19:52:36Z</time>
  <course>176.75</course>
  <speed>8.45</speed>
  <fix>3d</fix>
</trkpt>
<trkpt lat="-27.2739986" lon="151.2900395">
  <ele>369.76</ele>
  <time>2026-09-01T19:52:36Z</time>
  <course>178.04</course>
  <speed>8.231239274860135</speed>
  <fix>3d</fix>
</trkpt>
<trkpt lat="-27.2740057" lon="151.2900399">
  <ele>369.68</ele>
  <time>2026-09-01T19:52:36Z</time>
  <course>178.05</course>
  <speed>8.170801674254491</speed>
  <fix>3d</fix>
</trkpt>
<trkpt lat="-27.2739927" lon="151.2900395">
  <ele>369.96</ele>
  <time>2026-09-01T19:52:36Z</time>
  <course>176.75</course>
  <speed>8.33</speed>
  <fix>3d</fix>
</trkpt>
<trkpt lat="-27.2740131" lon="151.2900404">
  <ele>369.6</ele>
  <time>2026-09-01T19:52:36Z</time>
  <course>178.07</course>
  <speed>8.120868180188618</speed>
  <fix>3d</fix>
</trkpt>
<trkpt lat="-27.2739927" lon="151.2900395">
  <ele>369.96</ele>
  <time>2026-09-01T19:52:36Z</time>
  <course>176.75</course>
  <speed>8.33</speed>
  <fix>3d</fix>
</trkpt>
<trkpt lat="-27.2740133" lon="151.2900404">
  <ele>369.6</ele>
  <time>2026-09-01T19:52:36Z</time>
  <course>178.07</course>
  <speed>8.120868180188618</speed>
  <fix>3d</fix>
</trkpt>
<trkpt lat="-27.2740203" lon="151.2900409">
  <ele>369.52</ele>
  <time>2026-09-01T19:52:36Z</time>
  <course>178.08</course>
  <speed>8.060949075636193</speed>
  <fix>3d</fix>
</trkpt>
<trkpt lat="-27.2740075" lon="151.2900405">
  <ele>369.8</ele>
  <time>2026-09-01T19:52:36Z</time>
  <course>176.76</course>
  <speed>8.22</speed>
  <fix>3d</fix>
</trkpt>
<trkpt lat="-27.2740206" lon="151.2900409">
  <ele>369.52</ele>
  <time>2026-09-01T19:52:36Z</time>
  <course>178.08</course>
  <speed>8.060949075636193</speed>
  <fix>3d</fix>
</trkpt>
<trkpt lat="-27.2740275" lon="151.2900413">
  <ele>369.44</ele>
  <time>2026-09-01T19:52:36Z</time>
  <course>178.09</course>
  <speed>8.010499360214693</speed>
  <fix>3d</fix>
</trkpt>
<trkpt lat="-27.2740075" lon="151.2900405">
  <ele>369.8</ele>
  <time>2026-09-01T19:52:36Z</time>
  <course>176.76</course>
  <speed>8.22</speed>
  <fix>3d</fix>
</trkpt>
<trkpt lat="-27.2740304" lon="151.2900415">
  <ele>369.41</ele>
  <time>2026-09-01T19:52:36Z</time>
  <course>178.1</course>
  <speed>7.990525639781152</speed>
  <fix>3d</fix>
</trkpt>
<trkpt lat="-27.2740348" lon="151.2900418">
  <ele>369.36</ele>
  <time>2026-09-01T19:52:36Z</time>
  <course>178.1</course>
  <speed>7.950578595297326</speed>
  <fix>3d</fix>
</trkpt>
<trkpt lat="-27.2740222" lon="151.2900414">
  <ele>369.64</ele>
  <time>2026-09-01T19:52:36Z</time>
  <course>176.77</course>
  <speed>8.11</speed>
  <fix>3d</fix>
</trkpt>
<trkpt lat="-27.274042" lon="151.2900422">
  <ele>369.28</ele>
  <time>2026-09-01T19:52:36Z</time>
  <course>178.12</course>
  <speed>7.900132910274358</speed>
  <fix>3d</fix>
</trkpt>
<trkpt lat="-27.2740222" lon="151.2900414">
  <ele>369.64</ele>
  <time>2026-09-01T19:52:36Z</time>
  <course>176.77</course>
  <speed>8.11</speed>
  <fix>3d</fix>
</trkpt>
<trkpt lat="-27.2740423" lon="151.2900423">
  <ele>369.28</ele>
  <time>2026-09-01T19:52:36Z</time>
  <course>178.12</course>
  <speed>7.900132910274358</speed>
  <fix>3d</fix>
</trkpt>
<trkpt lat="-27.2740491" lon="151.2900427">
  <ele>369.2</ele>
  <time>2026-09-01T19:52:36Z</time>
  <course>178.13</course>
  <speed>7.850197449746089</speed>
  <fix>3d</fix>
</trkpt>
<trkpt lat="-27.2740366" lon="151.2900423">
  <ele>369.47</ele>
  <time>2026-09-01T19:52:36Z</time>
  <course>176.77</course>
  <speed>8.0</speed>
  <fix>3d</fix>
</trkpt>
<trkpt lat="-27.2740494" lon="151.2900427">
  <ele>369.2</ele>
  <time>2026-09-01T19:52:36Z</time>
  <course>178.13</course>
  <speed>7.840210456358936</speed>
  <fix>3d</fix>
</trkpt>
<trkpt lat="-27.2740563" lon="151.2900432">
  <ele>369.12</ele>
  <time>2026-09-01T19:52:36Z</time>
  <course>178.15</course>
  <speed>7.790275989976221</speed>
  <fix>3d</fix>
</trkpt>
<trkpt lat="-27.2740366" lon="151.2900423">
  <ele>369.47</ele>
  <time>2026-09-01T19:52:36Z</time>
  <course>176.77</course>
  <speed>8.0</speed>
  <fix>3d</fix>
</trkpt>
<trkpt lat="-27.2740565" lon="151.2900432">
  <ele>369.12</ele>
  <time>2026-09-01T19:52:36Z</time>
  <course>178.15</course>
  <speed>7.790275989976221</speed>
  <fix>3d</fix>
</trkpt>
<trkpt lat="-27.2740633" lon="151.2900436">
  <ele>369.04</ele>
  <time>2026-09-01T19:52:36Z</time>
  <course>178.17</course>
  <speed>7.739832039521271</speed>
  <fix>3d</fix>
</trkpt>
<trkpt lat="-27.2740508" lon="151.2900432">
  <ele>369.32</ele>
  <time>2026-09-01T19:52:36Z</time>
  <course>176.78</course>
  <speed>7.88</speed>
  <fix>3d</fix>
</trkpt>
<trkpt lat="-27.2740664" lon="151.2900438">
  <ele>369.01</ele>
  <time>2026-09-01T19:52:36Z</time>
  <course>178.17</course>
  <speed>7.7098702972229045</speed>
  <fix>3d</fix>
</trkpt>
<trkpt lat="-27.2740703" lon="151.290044">
  <ele>368.96</ele>
  <time>2026-09-01T19:52:36Z</time>
  <course>178.18</course>
  <speed>7.679908853625803</speed>
  <fix>3d</fix>
</trkpt>
<trkpt lat="-27.2740508" lon="151.2900432">
  <ele>369.32</ele>
  <time>2026-09-01T19:52:36Z</time>
  <course>176.78</course>
  <speed>7.88</speed>
  <fix>3d</fix>
</trkpt>
<trkpt lat="-27.2740734" lon="151.2900442">
  <ele>368.93</ele>
  <time>2026-09-01T19:52:36Z</time>
  <course>178.19</course>
  <speed>7.659934725570447</speed>
  <fix>3d</fix>
</trkpt>
<trkpt lat="-27.2740773" lon="151.2900445">
  <ele>368.88</ele>
  <time>2026-09-01T19:52:36Z</time>
  <course>178.2</course>
  <speed>7.629973787635184</speed>
  <fix>3d</fix>
</trkpt>
<trkpt lat="-27.2740649" lon="151.2900441">
  <ele>369.15</ele>
  <time>2026-09-01T19:52:36Z</time>
  <course>176.79</course>
  <speed>7.77</speed>
  <fix>3d</fix>
</trkpt>
<trkpt lat="-27.2740803" lon="151.2900447">
  <ele>368.85</ele>
  <time>2026-09-01T19:52:36Z</time>
  <course>178.21</course>
  <speed>7.600013157883346</speed>
  <fix>3d</fix>
</trkpt>
<trkpt lat="-27.2740842" lon="151.2900449">
  <ele>368.8</ele>
  <time>2026-09-01T19:52:36Z</time>
  <course>178.22</course>
  <speed>7.569544239912995</speed>
  <fix>3d</fix>
</trkpt>
<trkpt lat="-27.2740649" lon="151.2900441">
  <ele>369.15</ele>
  <time>2026-09-01T19:52:36Z</time>
  <course>176.79</course>
  <speed>7.77</speed>
  <fix>3d</fix>
</trkpt>
<trkpt lat="-27.274087" lon="151.2900451">
  <ele>368.77</ele>
  <time>2026-09-01T19:52:36Z</time>
  <course>178.22</course>
  <speed>7.549569524151692</speed>
  <fix>3d</fix>
</trkpt>
<trkpt lat="-27.2740911" lon="151.2900454">
  <ele>368.72</ele>
  <time>2026-09-01T19:52:36Z</time>
  <course>178.23</course>
  <speed>7.519607702533424</speed>
  <fix>3d</fix>
</trkpt>
<trkpt lat="-27.2740787" lon="151.290045">
  <ele>368.99</ele>
  <time>2026-09-01T19:52:36Z</time>
  <course>176.8</course>
  <speed>7.65</speed>
  <fix>3d</fix>
</trkpt>
<trkpt lat="-27.2740942" lon="151.2900456">
  <ele>368.68</ele>
  <time>2026-09-01T19:52:36Z</time>
  <course>178.24</course>
  <speed>7.48964618656983</speed>
  <fix>3d</fix>
</trkpt>
<trkpt lat="-27.2740978" lon="151.2900458">
  <ele>368.64</ele>
  <time>2026-09-01T19:52:36Z</time>
  <course>178.25</course>
  <speed>7.459684979943859</speed>
  <fix>3d</fix>
</trkpt>
<trkpt lat="-27.2740787" lon="151.290045">
  <ele>368.99</ele>
  <time>2026-09-01T19:52:36Z</time>
  <course>176.8</course>
  <speed>7.65</speed>
  <fix>3d</fix>
</trkpt>
<trkpt lat="-27.2740994" lon="151.2900459">
  <ele>368.62</ele>
  <time>2026-09-01T19:52:36Z</time>
  <course>178.26</course>
  <speed>7.4491945873362715</speed>
  <fix>3d</fix>
</trkpt>
<trkpt lat="-27.2741046" lon="151.2900462">
  <ele>368.56</ele>
  <time>2026-09-01T19:52:36Z</time>
  <course>178.27</course>
  <speed>7.409244225965291</speed>
  <fix>3d</fix>
</trkpt>
<trkpt lat="-27.2740923" lon="151.2900458">
  <ele>368.83</ele>
  <time>2026-09-01T19:52:36Z</time>
  <course>176.81</course>
  <speed>7.54</speed>
  <fix>3d</fix>
</trkpt>
<trkpt lat="-27.2741074" lon="151.2900464">
  <ele>368.52</ele>
  <time>2026-09-01T19:52:36Z</time>
  <course>178.28</course>
  <speed>7.379281807872633</speed>
  <fix>3d</fix>
</trkpt>
<trkpt lat="-27.2741113" lon="151.2900466">
  <ele>368.47</ele>
  <time>2026-09-01T19:52:36Z</time>
  <course>178.29</course>
  <speed>7.349319696407281</speed>
  <fix>3d</fix>
</trkpt>
<trkpt lat="-27.2740923" lon="151.2900458">
  <ele>368.83</ele>
  <time>2026-09-01T19:52:36Z</time>
  <course>176.81</course>
  <speed>7.54</speed>
  <fix>3d</fix>
</trkpt>
<trkpt lat="-27.2741139" lon="151.2900468">
  <ele>368.44</ele>
  <time>2026-09-01T19:52:36Z</time>
  <course>178.3</course>
  <speed>7.329345127635893</speed>
  <fix>3d</fix>
</trkpt>
<trkpt lat="-27.2741179" lon="151.290047">
  <ele>368.39</ele>
  <time>2026-09-01T19:52:36Z</time>
  <course>178.31</course>
  <speed>7.288895663953491</speed>
  <fix>3d</fix>
</trkpt>
<trkpt lat="-27.2741058" lon="151.2900467">
  <ele>368.66</ele>
  <time>2026-09-01T19:52:36Z</time>
  <course>176.82</course>
  <speed>7.42</speed>
  <fix>3d</fix>
</trkpt>
<trkpt lat="-27.2741205" lon="151.2900472">
  <ele>368.36</ele>
  <time>2026-09-01T19:52:36Z</time>
  <course>178.32</course>
  <speed>7.268920139883228</speed>
  <fix>3d</fix>
</trkpt>
<trkpt lat="-27.2741245" lon="151.2900474">
  <ele>368.31</ele>
  <time>2026-09-01T19:52:36Z</time>
  <course>178.33</course>
  <speed>7.238957107208193</speed>
  <fix>3d</fix>
</trkpt>
<trkpt lat="-27.2741058" lon="151.2900467">
  <ele>368.66</ele>
  <time>2026-09-01T19:52:36Z</time>
  <course>176.82</course>
  <speed>7.42</speed>
  <fix>3d</fix>
</trkpt>
<trkpt lat="-27.2741247" lon="151.2900475">
  <ele>368.3</ele>
  <time>2026-09-01T19:52:36Z</time>
  <course>178.33</course>
  <speed>7.228969497791508</speed>
  <fix>3d</fix>
</trkpt>
<trkpt lat="-27.274131" lon="151.2900478">
  <ele>368.22</ele>
  <time>2026-09-01T19:52:36Z</time>
  <course>178.35</course>
  <speed>7.179031968169524</speed>
  <fix>3d</fix>
</trkpt>
<trkpt lat="-27.274119" lon="151.2900474">
  <ele>368.49</ele>
  <time>2026-09-01T19:52:36Z</time>
  <course>176.83</course>
  <speed>7.3</speed>
  <fix>3d</fix>
</trkpt>
<trkpt lat="-27.2741325" lon="151.2900479">
  <ele>368.2</ele>
  <time>2026-09-01T19:52:36Z</time>
  <course>178.36</course>
  <speed>7.169044566746674</speed>
  <fix>3d</fix>
</trkpt>
<trkpt lat="-27.2741375" lon="151.2900482">
  <ele>368.14</ele>
  <time>2026-09-01T19:52:36Z</time>
  <course>178.37</course>
  <speed>7.1186094147663415</speed>
  <fix>3d</fix>
</trkpt>
<trkpt lat="-27.274119" lon="151.2900474">
  <ele>368.49</ele>
  <time>2026-09-01T19:52:36Z</time>
  <course>176.83</course>
  <speed>7.3</speed>
  <fix>3d</fix>
</trkpt>
<trkpt lat="-27.27414" lon="151.2900484">
  <ele>368.1</ele>
  <time>2026-09-01T19:52:36Z</time>
  <course>178.38</course>
  <speed>7.098633671348312</speed>
  <fix>3d</fix>
</trkpt>
<trkpt lat="-27.2741438" lon="151.2900486">
  <ele>368.05</ele>
  <time>2026-09-01T19:52:36Z</time>
  <course>178.4</course>
  <speed>7.0686703134323645</speed>
  <fix>3d</fix>
</trkpt>
<trkpt lat="-27.274132" lon="151.2900483">
  <ele>368.32</ele>
  <time>2026-09-01T19:52:36Z</time>
  <course>176.84</course>
  <speed>7.18</speed>
  <fix>3d</fix>
</trkpt>
<trkpt lat="-27.274144" lon="151.2900486">
  <ele>368.05</ele>
  <time>2026-09-01T19:52:36Z</time>
  <course>178.4</course>
  <speed>7.058682596632321</speed>
  <fix>3d</fix>
</trkpt>
<trkpt lat="-27.2741502" lon="151.290049">
  <ele>367.96</ele>
  <time>2026-09-01T19:52:36Z</time>
  <course>178.42</course>
  <speed>7.008744538075275</speed>
  <fix>3d</fix>
</trkpt>
<trkpt lat="-27.274132" lon="151.2900483">
  <ele>368.32</ele>
  <time>2026-09-01T19:52:36Z</time>
  <course>176.84</course>
  <speed>7.18</speed>
  <fix>3d</fix>
</trkpt>
<trkpt lat="-27.2741516" lon="151.2900491">
  <ele>367.94</ele>
  <time>2026-09-01T19:52:36Z</time>
  <course>178.43</course>
  <speed>6.988275896099123</speed>
  <fix>3d</fix>
</trkpt>
<trkpt lat="-27.2741564" lon="151.2900494">
  <ele>367.87</ele>
  <time>2026-09-01T19:52:36Z</time>
  <course>178.44</course>
  <speed>6.9483235388113584</speed>
  <fix>3d</fix>
</trkpt>
<trkpt lat="-27.2741448" lon="151.290049">
  <ele>368.15</ele>
  <time>2026-09-01T19:52:36Z</time>
  <course>176.85</course>
  <speed>7.07</speed>
  <fix>3d</fix>
</trkpt>
<trkpt lat="-27.2741589" lon="151.2900496">
  <ele>367.84</ele>
  <time>2026-09-01T19:52:36Z</time>
  <course>178.45</course>
  <speed>6.928347566339321</speed>
  <fix>3d</fix>
</trkpt>
<trkpt lat="-27.2741626" lon="151.2900498">
  <ele>367.78</ele>
  <time>2026-09-01T19:52:36Z</time>
  <course>178.47</course>
  <speed>6.888396039717809</speed>
  <fix>3d</fix>
</trkpt>
<trkpt lat="-27.2741448" lon="151.290049">
  <ele>368.15</ele>
  <time>2026-09-01T19:52:36Z</time>
  <course>176.85</course>
  <speed>7.07</speed>
  <fix>3d</fix>
</trkpt>
<trkpt lat="-27.2741651" lon="151.2900499">
  <ele>367.74</ele>
  <time>2026-09-01T19:52:36Z</time>
  <course>178.48</course>
  <speed>6.86842048800159</speed>
  <fix>3d</fix>
</trkpt>
<trkpt lat="-27.2741688" lon="151.2900502">
  <ele>367.69</ele>
  <time>2026-09-01T19:52:36Z</time>
  <course>178.49</course>
  <speed>6.827979203248938</speed>
  <fix>3d</fix>
</trkpt>
<trkpt lat="-27.2741574" lon="151.2900498">
  <ele>367.97</ele>
  <time>2026-09-01T19:52:36Z</time>
  <course>176.87</course>
  <speed>6.95</speed>
  <fix>3d</fix>
</trkpt>
<trkpt lat="-27.2741712" lon="151.2900503">
  <ele>367.65</ele>
  <time>2026-09-01T19:52:36Z</time>
  <course>178.5</course>
  <speed>6.808002643947783</speed>
  <fix>3d</fix>
</trkpt>
<trkpt lat="-27.2741748" lon="151.2900505">
  <ele>367.59</ele>
  <time>2026-09-01T19:52:36Z</time>
  <course>178.52</course>
  <speed>6.76804994071409</speed>
  <fix>3d</fix>
</trkpt>
<trkpt lat="-27.2741574" lon="151.2900498">
  <ele>367.97</ele>
  <time>2026-09-01T19:52:36Z</time>
  <course>176.87</course>
  <speed>6.95</speed>
  <fix>3d</fix>
</trkpt>
<trkpt lat="-27.2741771" lon="151.2900507">
  <ele>367.56</ele>
  <time>2026-09-01T19:52:36Z</time>
  <course>178.53</course>
  <speed>6.748073799240788</speed>
  <fix>3d</fix>
</trkpt>
<trkpt lat="-27.2741809" lon="151.2900509">
  <ele>367.49</ele>
  <time>2026-09-01T19:52:36Z</time>
  <course>178.55</course>
  <speed>6.718109853225087</speed>
  <fix>3d</fix>
</trkpt>
<trkpt lat="-27.2741698" lon="151.2900506">
  <ele>367.78</ele>
  <time>2026-09-01T19:52:36Z</time>
  <course>176.88</course>
  <speed>6.84</speed>
  <fix>3d</fix>
</trkpt>
<trkpt lat="-27.2741814" lon="151.2900509">
  <ele>367.49</ele>
  <time>2026-09-01T19:52:36Z</time>
  <course>178.55</course>
  <speed>6.707637438025404</speed>
  <fix>3d</fix>
</trkpt>
<trkpt lat="-27.2741869" lon="151.2900513">
  <ele>367.39</ele>
  <time>2026-09-01T19:52:36Z</time>
  <course>178.57</course>
  <speed>6.647706371373513</speed>
  <fix>3d</fix>
</trkpt>
<trkpt lat="-27.2741698" lon="151.2900506">
  <ele>367.78</ele>
  <time>2026-09-01T19:52:36Z</time>
  <course>176.88</course>
  <speed>6.84</speed>
  <fix>3d</fix>
</trkpt>
<trkpt lat="-27.2741872" lon="151.2900513">
  <ele>367.38</ele>
  <time>2026-09-01T19:52:36Z</time>
  <course>178.57</course>
  <speed>6.647706371373513</speed>
  <fix>3d</fix>
</trkpt>
<trkpt lat="-27.2741929" lon="151.2900516">
  <ele>367.26</ele>
  <time>2026-09-01T19:52:36Z</time>
  <course>178.59</course>
  <speed>6.527848037446951</speed>
  <fix>3d</fix>
</trkpt>
<trkpt lat="-27.2741819" lon="151.2900513">
  <ele>367.58</ele>
  <time>2026-09-01T19:52:36Z</time>
  <course>176.9</course>
  <speed>6.72</speed>
  <fix>3d</fix>
</trkpt>
<trkpt lat="-27.2741945" lon="151.2900517">
  <ele>367.21</ele>
  <time>2026-09-01T19:52:36Z</time>
  <course>178.6</course>
  <speed>6.477422326821063</speed>
  <fix>3d</fix>
</trkpt>
<trkpt lat="-27.2741987" lon="151.290052">
  <ele>367.07</ele>
  <time>2026-09-01T19:52:36Z</time>
  <course>178.63</course>
  <speed>6.277658799265854</speed>
  <fix>3d</fix>
</trkpt>
<trkpt lat="-27.2741819" lon="151.2900513">
  <ele>367.58</ele>
  <time>2026-09-01T19:52:36Z</time>
  <course>176.9</course>
  <speed>6.72</speed>
  <fix>3d</fix>
</trkpt>
<trkpt lat="-27.2742042" lon="151.2900523">
  <ele>366.83</ele>
  <time>2026-09-01T19:52:36Z</time>
  <course>178.79</course>
  <speed>5.927596477494061</speed>
  <fix>3d</fix>
</trkpt>
<trkpt lat="-27.2741938" lon="151.2900521">
  <ele>367.32</ele>
  <time>2026-09-01T19:52:36Z</time>
  <course>176.91</course>
  <speed>6.48</speed>
  <fix>3d</fix>
</trkpt>
<trkpt lat="-27.2742044" lon="151.2900523">
  <ele>366.82</ele>
  <time>2026-09-01T19:52:36Z</time>
  <course>178.79</course>
  <speed>5.917609314579664</speed>
  <fix>3d</fix>
</trkpt>
<trkpt lat="-27.2742094" lon="151.2900527">
  <ele>366.55</ele>
  <time>2026-09-01T19:52:36Z</time>
  <course>179.08</course>
  <speed>5.547071299343465</speed>
  <fix>3d</fix>
</trkpt>
<trkpt lat="-27.2741938" lon="151.2900521">
  <ele>367.32</ele>
  <time>2026-09-01T19:52:36Z</time>
  <course>176.91</course>
  <speed>6.48</speed>
  <fix>3d</fix>
</trkpt>
<trkpt lat="-27.2742142" lon="151.290053">
  <ele>366.26</ele>
  <time>2026-09-01T19:52:36Z</time>
  <course>179.48</course>
  <speed>5.167059124879452</speed>
  <fix>3d</fix>
</trkpt>
<trkpt lat="-27.274205" lon="151.2900528">
  <ele>366.91</ele>
  <time>2026-09-01T19:52:36Z</time>
  <course>176.89</course>
  <speed>5.93</speed>
  <fix>3d</fix>
</trkpt>
<trkpt lat="-27.2742144" lon="151.290053">
  <ele>366.25</ele>
  <time>2026-09-01T19:52:36Z</time>
  <course>179.49</course>
  <speed>5.157072813137313</speed>
  <fix>3d</fix>
</trkpt>
<trkpt lat="-27.2742187" lon="151.2900533">
  <ele>365.96</ele>
  <time>2026-09-01T19:52:36Z</time>
  <course>179.93</course>
  <speed>4.786533192196623</speed>
  <fix>3d</fix>
</trkpt>
<trkpt lat="-27.274205" lon="151.2900528">
  <ele>366.91</ele>
  <time>2026-09-01T19:52:36Z</time>
  <course>176.89</course>
  <speed>5.93</speed>
  <fix>3d</fix>
</trkpt>
<trkpt lat="-27.2742204" lon="151.2900534">
  <ele>365.85</ele>
  <time>2026-09-01T19:52:36Z</time>
  <course>180.13</course>
  <speed>4.646730033044744</speed>
  <fix>3d</fix>
</trkpt>
<trkpt lat="-27.2742229" lon="151.2900536">
  <ele>365.67</ele>
  <time>2026-09-01T19:52:36Z</time>
  <course>180.4</course>
  <speed>4.446481755275737</speed>
  <fix>3d</fix>
</trkpt>
<trkpt lat="-27.274215" lon="151.2900533">
  <ele>366.36</ele>
  <time>2026-09-01T19:52:36Z</time>
  <course>176.85</course>
  <speed>5.19</speed>
  <fix>3d</fix>
</trkpt>
<trkpt lat="-27.2742248" lon="151.2900537">
  <ele>365.54</ele>
  <time>2026-09-01T19:52:36Z</time>
  <course>180.61</course>
  <speed>4.286175451378536</speed>
  <fix>3d</fix>
</trkpt>
<trkpt lat="-27.2742268" lon="151.2900538">
  <ele>365.39</ele>
  <time>2026-09-01T19:52:36Z</time>
  <course>180.83</course>
  <speed>4.125869605307468</speed>
  <fix>3d</fix>
</trkpt>
<trkpt lat="-27.274215" lon="151.2900533">
  <ele>366.36</ele>
  <time>2026-09-01T19:52:36Z</time>
  <course>176.85</course>
  <speed>5.19</speed>
  <fix>3d</fix>
</trkpt>
<trkpt lat="-27.2742284" lon="151.2900539">
  <ele>365.27</ele>
  <time>2026-09-01T19:52:36Z</time>
  <course>181.0</course>
  <speed>4.005508706768717</speed>
  <fix>3d</fix>
</trkpt>
<trkpt lat="-27.2742304" lon="151.2900541">
  <ele>365.11</ele>
  <time>2026-09-01T19:52:36Z</time>
  <course>181.2</course>
  <speed>3.8452048059888826</speed>
  <fix>3d</fix>
</trkpt>
<trkpt lat="-27.2742237" lon="151.2900539">
  <ele>365.78</ele>
  <time>2026-09-01T19:52:36Z</time>
  <course>176.84</course>
  <speed>4.47</speed>
  <fix>3d</fix>
</trkpt>
<trkpt lat="-27.2742319" lon="151.2900542">
  <ele>365.0</ele>
  <time>2026-09-01T19:52:36Z</time>
  <course>181.35</course>
  <speed>3.7353580818979055</speed>
  <fix>3d</fix>
</trkpt>
<trkpt lat="-27.2742338" lon="151.2900543">
  <ele>364.85</ele>
  <time>2026-09-01T19:52:36Z</time>
  <course>181.51</course>
  <speed>3.5950243392778303</speed>
  <fix>3d</fix>
</trkpt>
<trkpt lat="-27.2742237" lon="151.2900539">
  <ele>365.78</ele>
  <time>2026-09-01T19:52:36Z</time>
  <course>176.84</course>
  <speed>4.47</speed>
  <fix>3d</fix>
</trkpt>
<trkpt lat="-27.2742352" lon="151.2900544">
  <ele>364.75</ele>
  <time>2026-09-01T19:52:36Z</time>
  <course>181.63</course>
  <speed>3.5046255149445</speed>
  <fix>3d</fix>
</trkpt>
<trkpt lat="-27.274237" lon="151.2900545">
  <ele>364.61</ele>
  <time>2026-09-01T19:52:36Z</time>
  <course>181.76</course>
  <speed>3.3942598604113976</speed>
  <fix>3d</fix>
</trkpt>
<trkpt lat="-27.2742311" lon="151.2900543">
  <ele>365.22</ele>
  <time>2026-09-01T19:52:36Z</time>
  <course>176.9</course>
  <speed>3.87</speed>
  <fix>3d</fix>
</trkpt>
<trkpt lat="-27.2742371" lon="151.2900545">
  <ele>364.61</ele>
  <time>2026-09-01T19:52:36Z</time>
  <course>181.77</course>
  <speed>3.3942598604113976</speed>
  <fix>3d</fix>
</trkpt>
<trkpt lat="-27.27424" lon="151.2900547">
  <ele>364.39</ele>
  <time>2026-09-01T19:52:36Z</time>
  <course>181.95</course>
  <speed>3.2339604202896486</speed>
  <fix>3d</fix>
</trkpt>
<trkpt lat="-27.2742311" lon="151.2900543">
  <ele>365.22</ele>
  <time>2026-09-01T19:52:36Z</time>
  <course>176.9</course>
  <speed>3.87</speed>
  <fix>3d</fix>
</trkpt>
<trkpt lat="-27.2742408" lon="151.2900547">
  <ele>364.33</ele>
  <time>2026-09-01T19:52:36Z</time>
  <course>182.0</course>
  <speed>3.183535770177555</speed>
  <fix>3d</fix>
</trkpt>
<trkpt lat="-27.2742428" lon="151.2900549">
  <ele>364.19</ele>
  <time>2026-09-01T19:52:36Z</time>
  <course>182.1</course>
  <speed>3.0936386343592233</speed>
  <fix>3d</fix>
</trkpt>
<trkpt lat="-27.2742376" lon="151.2900548">
  <ele>364.72</ele>
  <time>2026-09-01T19:52:36Z</time>
  <course>177.05</course>
  <speed>3.42</speed>
  <fix>3d</fix>
</trkpt>
<trkpt lat="-27.2742456" lon="151.290055">
  <ele>364.0</ele>
  <time>2026-09-01T19:52:37Z</time>
  <course>182.2</course>
  <speed>2.9828342226815083</speed>
  <fix>3d</fix>
</trkpt>
<trkpt lat="-27.2742376" lon="151.2900548">
  <ele>364.72</ele>
  <time>2026-09-01T19:52:37Z</time>
  <course>177.05</course>
  <speed>3.42</speed>
  <fix>3d</fix>
</trkpt>
<trkpt lat="-27.2742457" lon="151.290055">
  <ele>363.99</ele>
  <time>2026-09-01T19:52:37Z</time>
  <course>182.2</course>
  <speed>2.9728437564056405</speed>
  <fix>3d</fix>
</trkpt>
<trkpt lat="-27.2742482" lon="151.2900552">
  <ele>363.82</ele>
  <time>2026-09-01T19:52:37Z</time>
  <course>182.27</course>
  <speed>2.882498915871435</speed>
  <fix>3d</fix>
</trkpt>
<trkpt lat="-27.2742435" lon="151.2900551">
  <ele>364.28</ele>
  <time>2026-09-01T19:52:37Z</time>
  <course>177.23</course>
  <speed>3.1</speed>
  <fix>3d</fix>
</trkpt>
<trkpt lat="-27.2742493" lon="151.2900552">
  <ele>363.76</ele>
  <time>2026-09-01T19:52:37Z</time>
  <course>182.3</course>
  <speed>2.8525251970841556</speed>
  <fix>3d</fix>
</trkpt>
<trkpt lat="-27.2742508" lon="151.2900553">
  <ele>363.67</ele>
  <time>2026-09-01T19:52:37Z</time>
  <course>182.32</course>
  <speed>2.8221445746098834</speed>
  <fix>3d</fix>
</trkpt>
<trkpt lat="-27.2742435" lon="151.2900551">
  <ele>364.28</ele>
  <time>2026-09-01T19:52:37Z</time>
  <course>177.23</course>
  <speed>3.1</speed>
  <fix>3d</fix>
</trkpt>
<trkpt lat="-27.2742519" lon="151.2900554">
  <ele>363.61</ele>
  <time>2026-09-01T19:52:37Z</time>
  <course>182.34</course>
  <speed>2.802159881234474</speed>
  <fix>3d</fix>
</trkpt>
<trkpt lat="-27.2742534" lon="151.2900554">
  <ele>363.54</ele>
  <time>2026-09-01T19:52:37Z</time>
  <course>182.36</course>
  <speed>2.80178514522438</speed>
  <fix>3d</fix>
</trkpt>
<trkpt lat="-27.2742488" lon="151.2900554">
  <ele>363.92</ele>
  <time>2026-09-01T19:52:37Z</time>
  <course>177.41</course>
  <speed>2.89</speed>
  <fix>3d</fix>
</trkpt>
<trkpt lat="-27.2742559" lon="151.2900555">
  <ele>363.43</ele>
  <time>2026-09-01T19:52:37Z</time>
  <course>182.38</course>
  <speed>2.82177249260106</speed>
  <fix>3d</fix>
</trkpt>
<trkpt lat="-27.2742488" lon="151.2900554">
  <ele>363.92</ele>
  <time>2026-09-01T19:52:37Z</time>
  <course>177.41</course>
  <speed>2.89</speed>
  <fix>3d</fix>
</trkpt>
<trkpt lat="-27.274256" lon="151.2900555">
  <ele>363.43</ele>
  <time>2026-09-01T19:52:37Z</time>
  <course>182.38</course>
  <speed>2.82177249260106</speed>
  <fix>3d</fix>
</trkpt>
<trkpt lat="-27.2742584" lon="151.2900557">
  <ele>363.35</ele>
  <time>2026-09-01T19:52:37Z</time>
  <course>182.4</course>
  <speed>2.821435804692355</speed>
  <fix>3d</fix>
</trkpt>
<trkpt lat="-27.274254" lon="151.2900556">
  <ele>363.64</ele>
  <time>2026-09-01T19:52:37Z</time>
  <course>177.62</course>
  <speed>2.81</speed>
  <fix>3d</fix>
</trkpt>
<trkpt lat="-27.274259" lon="151.2900557">
  <ele>363.33</ele>
  <time>2026-09-01T19:52:37Z</time>
  <course>182.4</course>
  <speed>2.821435804692355</speed>
  <fix>3d</fix>
</trkpt>
<trkpt lat="-27.274261" lon="151.2900558">
  <ele>363.29</ele>
  <time>2026-09-01T19:52:37Z</time>
  <course>182.4</course>
  <speed>2.8211345235560814</speed>
  <fix>3d</fix>
</trkpt>
<trkpt lat="-27.274254" lon="151.2900556">
  <ele>363.64</ele>
  <time>2026-09-01T19:52:37Z</time>
  <course>177.62</course>
  <speed>2.81</speed>
  <fix>3d</fix>
</trkpt>
<trkpt lat="-27.2742617" lon="151.2900558">
  <ele>363.27</ele>
  <time>2026-09-01T19:52:37Z</time>
  <course>182.4</course>
  <speed>2.8211345235560814</speed>
  <fix>3d</fix>
</trkpt>
<trkpt lat="-27.2742635" lon="151.2900559">
  <ele>363.24</ele>
  <time>2026-09-01T19:52:37Z</time>
  <course>182.4</course>
  <speed>2.811138559374119</speed>
  <fix>3d</fix>
</trkpt>
<trkpt lat="-27.274259" lon="151.2900559">
  <ele>363.45</ele>
  <time>2026-09-01T19:52:37Z</time>
  <course>177.81</course>
  <speed>2.81</speed>
  <fix>3d</fix>
</trkpt>
<trkpt lat="-27.274264" lon="151.2900559">
  <ele>363.23</ele>
  <time>2026-09-01T19:52:37Z</time>
  <course>182.4</course>
  <speed>2.811138559374119</speed>
  <fix>3d</fix>
</trkpt>
<trkpt lat="-27.274266" lon="151.290056">
  <ele>363.2</ele>
  <time>2026-09-01T19:52:37Z</time>
  <course>182.4</course>
  <speed>2.8011426240018555</speed>
  <fix>3d</fix>
</trkpt>
<trkpt lat="-27.274259" lon="151.2900559">
  <ele>363.45</ele>
  <time>2026-09-01T19:52:37Z</time>
  <course>177.81</course>
  <speed>2.81</speed>
  <fix>3d</fix>
</trkpt>
<trkpt lat="-27.2742661" lon="151.290056">
  <ele>363.2</ele>
  <time>2026-09-01T19:52:37Z</time>
  <course>182.4</course>
  <speed>2.8011426240018555</speed>
  <fix>3d</fix>
</trkpt>
<trkpt lat="-27.2742685" lon="151.2900561">
  <ele>363.18</ele>
  <time>2026-09-01T19:52:37Z</time>
  <course>182.39</course>
  <speed>2.8008748633239575</speed>
  <fix>3d</fix>
</trkpt>
<trkpt lat="-27.274264" lon="151.290056">
  <ele>363.34</ele>
  <time>2026-09-01T19:52:37Z</time>
  <course>177.88</course>
  <speed>2.81</speed>
  <fix>3d</fix>
</trkpt>
<trkpt lat="-27.2742689" lon="151.2900561">
  <ele>363.17</ele>
  <time>2026-09-01T19:52:37Z</time>
  <course>182.38</course>
  <speed>2.8008748633239575</speed>
  <fix>3d</fix>
</trkpt>
<trkpt lat="-27.2742711" lon="151.2900561">
  <ele>363.16</ele>
  <time>2026-09-01T19:52:37Z</time>
  <course>182.37</course>
  <speed>2.8008748633239575</speed>
  <fix>3d</fix>
</trkpt>
<trkpt lat="-27.274264" lon="151.290056">
  <ele>363.34</ele>
  <time>2026-09-01T19:52:37Z</time>
  <course>177.88</course>
  <speed>2.81</speed>
  <fix>3d</fix>
</trkpt>
<trkpt lat="-27.2742717" lon="151.2900562">
  <ele>363.16</ele>
  <time>2026-09-01T19:52:37Z</time>
  <course>182.36</course>
  <speed>2.8008748633239575</speed>
  <fix>3d</fix>
</trkpt>
<trkpt lat="-27.2742736" lon="151.2900562">
  <ele>363.16</ele>
  <time>2026-09-01T19:52:37Z</time>
  <course>182.35</course>
  <speed>2.8008748633239575</speed>
  <fix>3d</fix>
</trkpt>
<trkpt lat="-27.2742691" lon="151.2900563">
  <ele>363.28</ele>
  <time>2026-09-01T19:52:37Z</time>
  <course>177.86</course>
  <speed>2.8</speed>
  <fix>3d</fix>
</trkpt>
<trkpt lat="-27.2742742" lon="151.2900563">
  <ele>363.15</ele>
  <time>2026-09-01T19:52:37Z</time>
  <course>182.34</course>
  <speed>2.8008748633239575</speed>
  <fix>3d</fix>
</trkpt>
<trkpt lat="-27.2742762" lon="151.2900563">
  <ele>363.15</ele>
  <time>2026-09-01T19:52:37Z</time>
  <course>182.32</course>
  <speed>2.8008748633239575</speed>
  <fix>3d</fix>
</trkpt>
<trkpt lat="-27.2742691" lon="151.2900563">
  <ele>363.28</ele>
  <time>2026-09-01T19:52:37Z</time>
  <course>177.86</course>
  <speed>2.8</speed>
  <fix>3d</fix>
</trkpt>
<trkpt lat="-27.2742767" lon="151.2900564">
  <ele>363.15</ele>
  <time>2026-09-01T19:52:37Z</time>
  <course>182.32</course>
  <speed>2.8008748633239575</speed>
  <fix>3d</fix>
</trkpt>
<trkpt lat="-27.2742787" lon="151.2900564">
  <ele>363.15</ele>
  <time>2026-09-01T19:52:37Z</time>
  <course>182.29</course>
  <speed>2.810871750898643</speed>
  <fix>3d</fix>
</trkpt>
<trkpt lat="-27.2742741" lon="151.2900565">
  <ele>363.25</ele>
  <time>2026-09-01T19:52:37Z</time>
  <course>177.79</course>
  <speed>2.8</speed>
  <fix>3d</fix>
</trkpt>
<trkpt lat="-27.2742794" lon="151.2900565">
  <ele>363.15</ele>
  <time>2026-09-01T19:52:37Z</time>
  <course>182.28</course>
  <speed>2.810871750898643</speed>
  <fix>3d</fix>
</trkpt>
<trkpt lat="-27.2742812" lon="151.2900565">
  <ele>363.15</ele>
  <time>2026-09-01T19:52:37Z</time>
  <course>182.26</course>
  <speed>2.811138559374119</speed>
  <fix>3d</fix>
</trkpt>
<trkpt lat="-27.2742741" lon="151.2900565">
  <ele>363.25</ele>
  <time>2026-09-01T19:52:37Z</time>
  <course>177.79</course>
  <speed>2.8</speed>
  <fix>3d</fix>
</trkpt>
<trkpt lat="-27.2742823" lon="151.2900566">
  <ele>363.15</ele>
  <time>2026-09-01T19:52:37Z</time>
  <course>182.25</course>
  <speed>2.8211345235560814</speed>
  <fix>3d</fix>
</trkpt>
<trkpt lat="-27.2742838" lon="151.2900566">
  <ele>363.15</ele>
  <time>2026-09-01T19:52:37Z</time>
  <course>182.23</course>
  <speed>2.8311305162425837</speed>
  <fix>3d</fix>
</trkpt>
<trkpt lat="-27.2742792" lon="151.2900567">
  <ele>363.24</ele>
  <time>2026-09-01T19:52:37Z</time>
  <course>177.69</course>
  <speed>2.81</speed>
  <fix>3d</fix>
</trkpt>
<trkpt lat="-27.2742847" lon="151.2900567">
  <ele>363.15</ele>
  <time>2026-09-01T19:52:37Z</time>
  <course>182.22</course>
  <speed>2.8311305162425837</speed>
  <fix>3d</fix>
</trkpt>
<trkpt lat="-27.2742863" lon="151.2900567">
  <ele>363.15</ele>
  <time>2026-09-01T19:52:37Z</time>
  <course>182.19</course>
  <speed>2.841126537132762</speed>
  <fix>3d</fix>
</trkpt>
<trkpt lat="-27.2742792" lon="151.2900567">
  <ele>363.24</ele>
  <time>2026-09-01T19:52:37Z</time>
  <course>177.69</course>
  <speed>2.81</speed>
  <fix>3d</fix>
</trkpt>
<trkpt lat="-27.2742874" lon="151.2900568">
  <ele>363.15</ele>
  <time>2026-09-01T19:52:37Z</time>
  <course>182.18</course>
  <speed>2.841126537132762</speed>
  <fix>3d</fix>
</trkpt>
<trkpt lat="-27.2742889" lon="151.2900569">
  <ele>363.15</ele>
  <time>2026-09-01T19:52:37Z</time>
  <course>182.16</course>
  <speed>2.85112258592997</speed>
  <fix>3d</fix>
</trkpt>
<trkpt lat="-27.2742842" lon="151.290057">
  <ele>363.24</ele>
  <time>2026-09-01T19:52:37Z</time>
  <course>177.57</course>
  <speed>2.83</speed>
  <fix>3d</fix>
</trkpt>
<trkpt lat="-27.2742906" lon="151.2900569">
  <ele>363.15</ele>
  <time>2026-09-01T19:52:37Z</time>
  <course>182.13</course>
  <speed>2.8611186623417075</speed>
  <fix>3d</fix>
</trkpt>
<trkpt lat="-27.2742915" lon="151.290057">
  <ele>363.16</ele>
  <time>2026-09-01T19:52:37Z</time>
  <course>182.12</course>
  <speed>2.871114766079545</speed>
  <fix>3d</fix>
</trkpt>
<trkpt lat="-27.2742842" lon="151.290057">
  <ele>363.24</ele>
  <time>2026-09-01T19:52:37Z</time>
  <course>177.57</course>
  <speed>2.83</speed>
  <fix>3d</fix>
</trkpt>
<trkpt lat="-27.2742923" lon="151.290057">
  <ele>363.16</ele>
  <time>2026-09-01T19:52:37Z</time>
  <course>182.11</course>
  <speed>2.871114766079545</speed>
  <fix>3d</fix>
</trkpt>
<trkpt lat="-27.274294" lon="151.2900571">
  <ele>363.16</ele>
  <time>2026-09-01T19:52:37Z</time>
  <course>182.08</course>
  <speed>2.881405906844782</speed>
  <fix>3d</fix>
</trkpt>
<trkpt lat="-27.2742893" lon="151.2900572">
  <ele>363.25</ele>
  <time>2026-09-01T19:52:37Z</time>
  <course>177.44</course>
  <speed>2.85</speed>
  <fix>3d</fix>
</trkpt>
<trkpt lat="-27.2742941" lon="151.2900571">
  <ele>363.16</ele>
  <time>2026-09-01T19:52:37Z</time>
  <course>182.08</course>
  <speed>2.881405906844782</speed>
  <fix>3d</fix>
</trkpt>
<trkpt lat="-27.2742966" lon="151.2900572">
  <ele>363.16</ele>
  <time>2026-09-01T19:52:37Z</time>
  <course>182.05</course>
  <speed>2.901396215617577</speed>
  <fix>3d</fix>
</trkpt>
<trkpt lat="-27.2742893" lon="151.2900572">
  <ele>363.25</ele>
  <time>2026-09-01T19:52:37Z</time>
  <course>177.44</course>
  <speed>2.85</speed>
  <fix>3d</fix>
</trkpt>
<trkpt lat="-27.274297" lon="151.2900572">
  <ele>363.16</ele>
  <time>2026-09-01T19:52:37Z</time>
  <course>182.04</course>
  <speed>2.901396215617577</speed>
  <fix>3d</fix>
</trkpt>
<trkpt lat="-27.2742993" lon="151.2900574">
  <ele>363.16</ele>
  <time>2026-09-01T19:52:37Z</time>
  <course>182.01</course>
  <speed>2.92138665705175</speed>
  <fix>3d</fix>
</trkpt>
<trkpt lat="-27.2742944" lon="151.2900575">
  <ele>363.24</ele>
  <time>2026-09-01T19:52:37Z</time>
  <course>177.31</course>
  <speed>2.89</speed>
  <fix>3d</fix>
</trkpt>
<trkpt lat="-27.2743001" lon="151.2900574">
  <ele>363.16</ele>
  <time>2026-09-01T19:52:37Z</time>
  <course>182.0</course>
  <speed>2.92138665705175</speed>
  <fix>3d</fix>
</trkpt>
<trkpt lat="-27.2743019" lon="151.2900575">
  <ele>363.15</ele>
  <time>2026-09-01T19:52:37Z</time>
  <course>181.97</course>
  <speed>2.931381926668717</speed>
  <fix>3d</fix>
</trkpt>
<trkpt lat="-27.2742944" lon="151.2900575">
  <ele>363.24</ele>
  <time>2026-09-01T19:52:37Z</time>
  <course>177.31</course>
  <speed>2.89</speed>
  <fix>3d</fix>
</trkpt>
<trkpt lat="-27.2743027" lon="151.2900575">
  <ele>363.15</ele>
  <time>2026-09-01T19:52:37Z</time>
  <course>181.96</course>
  <speed>2.9413772284424855</speed>
  <fix>3d</fix>
</trkpt>
<trkpt lat="-27.2743046" lon="151.2900576">
  <ele>363.15</ele>
  <time>2026-09-01T19:52:37Z</time>
  <course>181.94</course>
  <speed>2.9516944286290885</speed>
  <fix>3d</fix>
</trkpt>
<trkpt lat="-27.2742997" lon="151.2900577">
  <ele>363.23</ele>
  <time>2026-09-01T19:52:37Z</time>
  <course>177.19</course>
  <speed>2.92</speed>
  <fix>3d</fix>
</trkpt>
<trkpt lat="-27.2743054" lon="151.2900577">
  <ele>363.15</ele>
  <time>2026-09-01T19:52:37Z</time>
  <course>181.93</course>
  <speed>2.9516944286290885</speed>
  <fix>3d</fix>
</trkpt>
<trkpt lat="-27.2743072" lon="151.2900578">
  <ele>363.15</ele>
  <time>2026-09-01T19:52:37Z</time>
  <course>181.9</course>
  <speed>2.9716830248194372</speed>
  <fix>3d</fix>
</trkpt>
<trkpt lat="-27.2742997" lon="151.2900577">
  <ele>363.23</ele>
  <time>2026-09-01T19:52:37Z</time>
  <course>177.19</course>
  <speed>2.92</speed>
  <fix>3d</fix>
</trkpt>
<trkpt lat="-27.2743081" lon="151.2900578">
  <ele>363.14</ele>
  <time>2026-09-01T19:52:37Z</time>
  <course>181.89</course>
  <speed>2.9716830248194372</speed>
  <fix>3d</fix>
</trkpt>
<trkpt lat="-27.2743099" lon="151.2900579">
  <ele>363.14</ele>
  <time>2026-09-01T19:52:37Z</time>
  <course>181.87</course>
  <speed>2.981677380267691</speed>
  <fix>3d</fix>
</trkpt>
<trkpt lat="-27.274305" lon="151.290058">
  <ele>363.22</ele>
  <time>2026-09-01T19:52:37Z</time>
  <course>177.08</course>
  <speed>2.96</speed>
  <fix>3d</fix>
</trkpt>
<trkpt lat="-27.2743108" lon="151.290058">
  <ele>363.14</ele>
  <time>2026-09-01T19:52:37Z</time>
  <course>181.86</course>
  <speed>2.981677380267691</speed>
  <fix>3d</fix>
</trkpt>
<trkpt lat="-27.2743126" lon="151.290058">
  <ele>363.14</ele>
  <time>2026-09-01T19:52:37Z</time>
  <course>181.84</course>
  <speed>2.9916717734403955</speed>
  <fix>3d</fix>
</trkpt>
<trkpt lat="-27.274305" lon="151.290058">
  <ele>363.22</ele>
  <time>2026-09-01T19:52:37Z</time>
  <course>177.08</course>
  <speed>2.96</speed>
  <fix>3d</fix>
</trkpt>
<trkpt lat="-27.2743135" lon="151.2900581">
  <ele>363.13</ele>
  <time>2026-09-01T19:52:37Z</time>
  <course>181.83</course>
  <speed>3.0016662039607267</speed>
  <fix>3d</fix>
</trkpt>
<trkpt lat="-27.2743153" lon="151.2900582">
  <ele>363.13</ele>
  <time>2026-09-01T19:52:37Z</time>
  <course>181.81</course>
  <speed>3.0020159892978584</speed>
  <fix>3d</fix>
</trkpt>
<trkpt lat="-27.2743103" lon="151.2900583">
  <ele>363.21</ele>
  <time>2026-09-01T19:52:37Z</time>
  <course>176.98</course>
  <speed>2.99</speed>
  <fix>3d</fix>
</trkpt>
<trkpt lat="-27.2743162" lon="151.2900583">
  <ele>363.13</ele>
  <time>2026-09-01T19:52:37Z</time>
  <course>181.8</course>
  <speed>3.0120092961343925</speed>
  <fix>3d</fix>
</trkpt>
<trkpt lat="-27.2743179" lon="151.2900583">
  <ele>363.13</ele>
  <time>2026-09-01T19:52:37Z</time>
  <course>181.79</course>
  <speed>3.0120092961343925</speed>
  <fix>3d</fix>
</trkpt>
<trkpt lat="-27.2743103" lon="151.2900583">
  <ele>363.21</ele>
  <time>2026-09-01T19:52:37Z</time>
  <course>176.98</course>
  <speed>2.99</speed>
  <fix>3d</fix>
</trkpt>
<trkpt lat="-27.2743191" lon="151.2900584">
  <ele>363.13</ele>
  <time>2026-09-01T19:52:37Z</time>
  <course>181.78</course>
  <speed>3.022002647252315</speed>
  <fix>3d</fix>
</trkpt>
<trkpt lat="-27.2743207" lon="151.2900585">
  <ele>363.12</ele>
  <time>2026-09-01T19:52:37Z</time>
  <course>181.76</course>
  <speed>3.022002647252315</speed>
  <fix>3d</fix>
</trkpt>
<trkpt lat="-27.2743157" lon="151.2900586">
  <ele>363.2</ele>
  <time>2026-09-01T19:52:37Z</time>
  <course>176.88</course>
  <speed>3.02</speed>
  <fix>3d</fix>
</trkpt>
<trkpt lat="-27.2743217" lon="151.2900586">
  <ele>363.12</ele>
  <time>2026-09-01T19:52:37Z</time>
  <course>181.75</course>
  <speed>3.022002647252315</speed>
  <fix>3d</fix>
</trkpt>
<trkpt lat="-27.2743234" lon="151.2900587">
  <ele>363.12</ele>
  <time>2026-09-01T19:52:37Z</time>
  <course>181.74</course>
  <speed>3.0319960422137755</speed>
  <fix>3d</fix>
</trkpt>
<trkpt lat="-27.2743157" lon="151.2900586">
  <ele>363.2</ele>
  <time>2026-09-01T19:52:37Z</time>
  <course>176.88</course>
  <speed>3.02</speed>
  <fix>3d</fix>
</trkpt>
<trkpt lat="-27.2743235" lon="151.2900587">
  <ele>363.12</ele>
  <time>2026-09-01T19:52:37Z</time>
  <course>181.73</course>
  <speed>3.0319960422137755</speed>
  <fix>3d</fix>
</trkpt>
<trkpt lat="-27.2743261" lon="151.2900588">
  <ele>363.12</ele>
  <time>2026-09-01T19:52:37Z</time>
  <course>181.71</course>
  <speed>3.0319960422137755</speed>
  <fix>3d</fix>
</trkpt>
<trkpt lat="-27.2743212" lon="151.290059">
  <ele>363.19</ele>
  <time>2026-09-01T19:52:37Z</time>
  <course>176.8</course>
  <speed>3.04</speed>
  <fix>3d</fix>
</trkpt>
<trkpt lat="-27.2743282" lon="151.290059">
  <ele>363.12</ele>
  <time>2026-09-01T19:52:37Z</time>
  <course>181.69</course>
  <speed>3.0319960422137755</speed>
  <fix>3d</fix>
</trkpt>
<trkpt lat="-27.2743289" lon="151.290059">
  <ele>363.12</ele>
  <time>2026-09-01T19:52:37Z</time>
  <course>181.69</course>
  <speed>3.0319960422137755</speed>
  <fix>3d</fix>
</trkpt>
<trkpt lat="-27.2743212" lon="151.290059">
  <ele>363.19</ele>
  <time>2026-09-01T19:52:37Z</time>
  <course>176.8</course>
  <speed>3.04</speed>
  <fix>3d</fix>
</trkpt>
<trkpt lat="-27.2743316" lon="151.2900592">
  <ele>363.12</ele>
  <time>2026-09-01T19:52:37Z</time>
  <course>181.67</course>
  <speed>3.0323753065872308</speed>
  <fix>3d</fix>
</trkpt>
<trkpt lat="-27.2743266" lon="151.2900594">
  <ele>363.18</ele>
  <time>2026-09-01T19:52:37Z</time>
  <course>176.73</course>
  <speed>3.05</speed>
  <fix>3d</fix>
</trkpt>
<trkpt lat="-27.2743317" lon="151.2900592">
  <ele>363.12</ele>
  <time>2026-09-01T19:52:37Z</time>
  <course>181.67</course>
  <speed>3.0323753065872308</speed>
  <fix>3d</fix>
</trkpt>
<trkpt lat="-27.2743343" lon="151.2900593">
  <ele>363.12</ele>
  <time>2026-09-01T19:52:37Z</time>
  <course>181.66</course>
  <speed>3.0323753065872308</speed>
  <fix>3d</fix>
</trkpt>
<trkpt lat="-27.2743266" lon="151.2900594">
  <ele>363.18</ele>
  <time>2026-09-01T19:52:37Z</time>
  <course>176.73</course>
  <speed>3.05</speed>
  <fix>3d</fix>
</trkpt>
<trkpt lat="-27.274335" lon="151.2900594">
  <ele>363.11</ele>
  <time>2026-09-01T19:52:37Z</time>
  <course>181.65</course>
  <speed>3.0323753065872308</speed>
  <fix>3d</fix>
</trkpt>
<trkpt lat="-27.2743371" lon="151.2900595">
  <ele>363.11</ele>
  <time>2026-09-01T19:52:37Z</time>
  <course>181.64</course>
  <speed>3.0323753065872308</speed>
  <fix>3d</fix>
</trkpt>
<trkpt lat="-27.2743321" lon="151.2900597">
  <ele>363.18</ele>
  <time>2026-09-01T19:52:37Z</time>
  <course>176.68</course>
  <speed>3.05</speed>
  <fix>3d</fix>
</trkpt>
<trkpt lat="-27.2743377" lon="151.2900596">
  <ele>363.11</ele>
  <time>2026-09-01T19:52:37Z</time>
  <course>181.64</course>
  <speed>3.022383165649253</speed>
  <fix>3d</fix>
</trkpt>
<trkpt lat="-27.2743398" lon="151.2900597">
  <ele>363.11</ele>
  <time>2026-09-01T19:52:37Z</time>
  <course>181.63</course>
  <speed>3.022383165649253</speed>
  <fix>3d</fix>
</trkpt>
<trkpt lat="-27.2743321" lon="151.2900597">
  <ele>363.18</ele>
  <time>2026-09-01T19:52:37Z</time>
  <course>176.68</course>
  <speed>3.05</speed>
  <fix>3d</fix>
</trkpt>
<trkpt lat="-27.2743416" lon="151.2900598">
  <ele>363.11</ele>
  <time>2026-09-01T19:52:37Z</time>
  <course>181.62</course>
  <speed>3.0123910768690045</speed>
  <fix>3d</fix>
</trkpt>
<trkpt lat="-27.2743425" lon="151.2900599">
  <ele>363.11</ele>
  <time>2026-09-01T19:52:37Z</time>
  <course>181.62</course>
  <speed>3.0123910768690045</speed>
  <fix>3d</fix>
</trkpt>
<trkpt lat="-27.2743376" lon="151.2900601">
  <ele>363.17</ele>
  <time>2026-09-01T19:52:37Z</time>
  <course>176.64</course>
  <speed>3.05</speed>
  <fix>3d</fix>
</trkpt>
<trkpt lat="-27.2743431" lon="151.2900599">
  <ele>363.11</ele>
  <time>2026-09-01T19:52:37Z</time>
  <course>181.62</course>
  <speed>3.0023990407672327</speed>
  <fix>3d</fix>
</trkpt>
<trkpt lat="-27.2743452" lon="151.29006">
  <ele>363.11</ele>
  <time>2026-09-01T19:52:37Z</time>
  <course>181.62</course>
  <speed>2.992407057871639</speed>
  <fix>3d</fix>
</trkpt>
<trkpt lat="-27.2743376" lon="151.2900601">
  <ele>363.17</ele>
  <time>2026-09-01T19:52:37Z</time>
  <course>176.64</course>
  <speed>3.05</speed>
  <fix>3d</fix>
</trkpt>
<trkpt lat="-27.2743459" lon="151.2900601">
  <ele>363.11</ele>
  <time>2026-09-01T19:52:37Z</time>
  <course>181.61</course>
  <speed>2.992407057871639</speed>
  <fix>3d</fix>
</trkpt>
<trkpt lat="-27.2743479" lon="151.2900602">
  <ele>363.11</ele>
  <time>2026-09-01T19:52:37Z</time>
  <course>181.61</course>
  <speed>2.9824151287169935</speed>
  <fix>3d</fix>
</trkpt>
<trkpt lat="-27.2743431" lon="151.2900604">
  <ele>363.17</ele>
  <time>2026-09-01T19:52:37Z</time>
  <course>176.62</course>
  <speed>3.03</speed>
  <fix>3d</fix>
</trkpt>
<trkpt lat="-27.2743485" lon="151.2900603">
  <ele>363.11</ele>
  <time>2026-09-01T19:52:37Z</time>
  <course>181.61</course>
  <speed>2.9724232538452524</speed>
  <fix>3d</fix>
</trkpt>
<trkpt lat="-27.2743506" lon="151.2900604">
  <ele>363.11</ele>
  <time>2026-09-01T19:52:37Z</time>
  <course>181.61</course>
  <speed>2.962431433805684</speed>
  <fix>3d</fix>
</trkpt>
<trkpt lat="-27.2743431" lon="151.2900604">
  <ele>363.17</ele>
  <time>2026-09-01T19:52:37Z</time>
  <course>176.62</course>
  <speed>3.03</speed>
  <fix>3d</fix>
</trkpt>
<trkpt lat="-27.2743511" lon="151.2900604">
  <ele>363.11</ele>
  <time>2026-09-01T19:52:37Z</time>
  <course>181.61</course>
  <speed>2.9524396691549857</speed>
  <fix>3d</fix>
</trkpt>
<trkpt lat="-27.2743532" lon="151.2900606">
  <ele>363.11</ele>
  <time>2026-09-01T19:52:37Z</time>
  <course>181.61</course>
  <speed>2.9424479604574145</speed>
  <fix>3d</fix>
</trkpt>
<trkpt lat="-27.2743485" lon="151.2900608">
  <ele>363.16</ele>
  <time>2026-09-01T19:52:37Z</time>
  <course>176.61</course>
  <speed>3.01</speed>
  <fix>3d</fix>
</trkpt>
<trkpt lat="-27.2743534" lon="151.2900606">
  <ele>363.11</ele>
  <time>2026-09-01T19:52:37Z</time>
  <course>181.61</course>
  <speed>2.9424479604574145</speed>
  <fix>3d</fix>
</trkpt>
<trkpt lat="-27.2743559" lon="151.2900608">
  <ele>363.11</ele>
  <time>2026-09-01T19:52:37Z</time>
  <course>181.61</course>
  <speed>2.9224647132172525</speed>
  <fix>3d</fix>
</trkpt>
<trkpt lat="-27.2743485" lon="151.2900608">
  <ele>363.16</ele>
  <time>2026-09-01T19:52:37Z</time>
  <course>176.61</course>
  <speed>3.01</speed>
  <fix>3d</fix>
</trkpt>
<trkpt lat="-27.2743562" lon="151.2900608">
  <ele>363.11</ele>
  <time>2026-09-01T19:52:37Z</time>
  <course>181.61</course>
  <speed>2.9224647132172525</speed>
  <fix>3d</fix>
</trkpt>
<trkpt lat="-27.2743585" lon="151.2900609">
  <ele>363.11</ele>
  <time>2026-09-01T19:52:37Z</time>
  <course>181.61</course>
  <speed>2.91247317584214</speed>
  <fix>3d</fix>
</trkpt>
<trkpt lat="-27.2743539" lon="151.2900611">
  <ele>363.16</ele>
  <time>2026-09-01T19:52:37Z</time>
  <course>176.61</course>
  <speed>2.97</speed>
  <fix>3d</fix>
</trkpt>
<trkpt lat="-27.2743593" lon="151.290061">
  <ele>363.1</ele>
  <time>2026-09-01T19:52:37Z</time>
  <course>181.61</course>
  <speed>2.91247317584214</speed>
  <fix>3d</fix>
</trkpt>
<trkpt lat="-27.2743612" lon="151.2900611">
  <ele>363.1</ele>
  <time>2026-09-01T19:52:37Z</time>
  <course>181.61</course>
  <speed>2.91247317584214</speed>
  <fix>3d</fix>
</trkpt>
<trkpt lat="-27.2743539" lon="151.2900611">
  <ele>363.16</ele>
  <time>2026-09-01T19:52:37Z</time>
  <course>176.61</course>
  <speed>2.97</speed>
  <fix>3d</fix>
</trkpt>
<trkpt lat="-27.274362" lon="151.2900612">
  <ele>363.1</ele>
  <time>2026-09-01T19:52:37Z</time>
  <course>181.61</course>
  <speed>2.9224647132172525</speed>
  <fix>3d</fix>
</trkpt>
<trkpt lat="-27.2743638" lon="151.2900613">
  <ele>363.1</ele>
  <time>2026-09-01T19:52:37Z</time>
  <course>181.61</course>
  <speed>2.9324563082849164</speed>
  <fix>3d</fix>
</trkpt>
<trkpt lat="-27.2743592" lon="151.2900615">
  <ele>363.16</ele>
  <time>2026-09-01T19:52:37Z</time>
  <course>176.62</course>
  <speed>2.95</speed>
  <fix>3d</fix>
</trkpt>
<trkpt lat="-27.2743647" lon="151.2900613">
  <ele>363.1</ele>
  <time>2026-09-01T19:52:37Z</time>
  <course>181.61</course>
  <speed>2.9424479604574145</speed>
  <fix>3d</fix>
</trkpt>
<trkpt lat="-27.2743665" lon="151.2900615">
  <ele>363.1</ele>
  <time>2026-09-01T19:52:37Z</time>
  <course>181.61</course>
  <speed>2.9724232538452524</speed>
  <fix>3d</fix>
</trkpt>
<trkpt lat="-27.2743592" lon="151.2900615">
  <ele>363.16</ele>
  <time>2026-09-01T19:52:37Z</time>
  <course>176.62</course>
  <speed>2.95</speed>
  <fix>3d</fix>
</trkpt>
<trkpt lat="-27.2743674" lon="151.2900615">
  <ele>363.1</ele>
  <time>2026-09-01T19:52:37Z</time>
  <course>181.61</course>
  <speed>2.992407057871639</speed>
  <fix>3d</fix>
</trkpt>
<trkpt lat="-27.2743693" lon="151.2900617">
  <ele>363.1</ele>
  <time>2026-09-01T19:52:37Z</time>
  <course>181.61</course>
  <speed>3.0323753065872308</speed>
  <fix>3d</fix>
</trkpt>
<trkpt lat="-27.2743645" lon="151.2900619">
  <ele>363.15</ele>
  <time>2026-09-01T19:52:37Z</time>
  <course>176.64</course>
  <speed>2.97</speed>
  <fix>3d</fix>
</trkpt>
<trkpt lat="-27.2743701" lon="151.2900617">
  <ele>363.1</ele>
  <time>2026-09-01T19:52:37Z</time>
  <course>181.61</course>
  <speed>3.0523597428874596</speed>
  <fix>3d</fix>
</trkpt>
<trkpt lat="-27.274372" lon="151.2900618">
  <ele>363.09</ele>
  <time>2026-09-01T19:52:37Z</time>
  <course>181.6</course>
  <speed>3.112715855968868</speed>
  <fix>3d</fix>
</trkpt>
<trkpt lat="-27.2743645" lon="151.2900619">
  <ele>363.15</ele>
  <time>2026-09-01T19:52:37Z</time>
  <course>176.64</course>
  <speed>2.97</speed>
  <fix>3d</fix>
</trkpt>
<trkpt lat="-27.2743729" lon="151.2900619">
  <ele>363.09</ele>
  <time>2026-09-01T19:52:37Z</time>
  <course>181.6</course>
  <speed>3.142689930616764</speed>
  <fix>3d</fix>
</trkpt>
<trkpt lat="-27.2743749" lon="151.290062">
  <ele>363.09</ele>
  <time>2026-09-01T19:52:37Z</time>
  <course>181.58</course>
  <speed>3.202639536382451</speed>
  <fix>3d</fix>
</trkpt>
<trkpt lat="-27.2743699" lon="151.2900622">
  <ele>363.14</ele>
  <time>2026-09-01T19:52:37Z</time>
  <course>176.67</course>
  <speed>3.07</speed>
  <fix>3d</fix>
</trkpt>
<trkpt lat="-27.2743769" lon="151.2900621">
  <ele>363.08</ele>
  <time>2026-09-01T19:52:37Z</time>
  <course>181.57</course>
  <speed>3.2625909948996057</speed>
  <fix>3d</fix>
</trkpt>
<trkpt lat="-27.2743778" lon="151.2900622">
  <ele>363.08</ele>
  <time>2026-09-01T19:52:37Z</time>
  <course>181.56</course>
  <speed>3.292567387313432</speed>
  <fix>3d</fix>
</trkpt>
<trkpt lat="-27.2743699" lon="151.2900622">
  <ele>363.14</ele>
  <time>2026-09-01T19:52:37Z</time>
  <course>176.67</course>
  <speed>3.07</speed>
  <fix>3d</fix>
</trkpt>
<trkpt lat="-27.2743786" lon="151.2900622">
  <ele>363.08</ele>
  <time>2026-09-01T19:52:37Z</time>
  <course>181.55</course>
  <speed>3.312551886386083</speed>
  <fix>3d</fix>
</trkpt>
<trkpt lat="-27.2743808" lon="151.2900624">
  <ele>363.07</ele>
  <time>2026-09-01T19:52:37Z</time>
  <course>181.53</course>
  <speed>3.372906758272455</speed>
  <fix>3d</fix>
</trkpt>
<trkpt lat="-27.2743756" lon="151.2900626">
  <ele>363.13</ele>
  <time>2026-09-01T19:52:37Z</time>
  <course>176.7</course>
  <speed>3.23</speed>
  <fix>3d</fix>
</trkpt>
<trkpt lat="-27.2743817" lon="151.2900625">
  <ele>363.07</ele>
  <time>2026-09-01T19:52:37Z</time>
  <course>181.52</course>
  <speed>3.392889623904674</speed>
  <fix>3d</fix>
</trkpt>
<trkpt lat="-27.2743839" lon="151.2900626">
  <ele>363.07</ele>
  <time>2026-09-01T19:52:37Z</time>
  <course>181.5</course>
  <speed>3.432855953866984</speed>
  <fix>3d</fix>
</trkpt>
<trkpt lat="-27.2743756" lon="151.2900626">
  <ele>363.13</ele>
  <time>2026-09-01T19:52:37Z</time>
  <course>176.7</course>
  <speed>3.23</speed>
  <fix>3d</fix>
</trkpt>
<trkpt lat="-27.274384" lon="151.2900626">
  <ele>363.07</ele>
  <time>2026-09-01T19:52:37Z</time>
  <course>181.49</course>
  <speed>3.4428476585524375</speed>
  <fix>3d</fix>
</trkpt>
<trkpt lat="-27.274387" lon="151.2900628">
  <ele>363.06</ele>
  <time>2026-09-01T19:52:37Z</time>
  <course>181.47</course>
  <speed>3.4828149534536</speed>
  <fix>3d</fix>
</trkpt>
<trkpt lat="-27.2743815" lon="151.2900629">
  <ele>363.12</ele>
  <time>2026-09-01T19:52:37Z</time>
  <course>176.75</course>
  <speed>3.39</speed>
  <fix>3d</fix>
</trkpt>
<trkpt lat="-27.2743875" lon="151.2900628">
  <ele>363.06</ele>
  <time>2026-09-01T19:52:37Z</time>
  <course>181.46</course>
  <speed>3.4828149534536</speed>
  <fix>3d</fix>
</trkpt>
<trkpt lat="-27.2743901" lon="151.290063">
  <ele>363.07</ele>
  <time>2026-09-01T19:52:37Z</time>
  <course>181.44</course>
  <speed>3.492806894175514</speed>
  <fix>3d</fix>
</trkpt>
<trkpt lat="-27.2743815" lon="151.2900629">
  <ele>363.12</ele>
  <time>2026-09-01T19:52:37Z</time>
  <course>176.75</course>
  <speed>3.39</speed>
  <fix>3d</fix>
</trkpt>
<trkpt lat="-27.2743911" lon="151.290063">
  <ele>363.07</ele>
  <time>2026-09-01T19:52:37Z</time>
  <course>181.44</course>
  <speed>3.492806894175514</speed>
  <fix>3d</fix>
</trkpt>
<trkpt lat="-27.2743933" lon="151.2900632">
  <ele>363.07</ele>
  <time>2026-09-01T19:52:37Z</time>
  <course>181.43</course>
  <speed>3.4828149534536</speed>
  <fix>3d</fix>
</trkpt>
<trkpt lat="-27.2743877" lon="151.2900634">
  <ele>363.11</ele>
  <time>2026-09-01T19:52:37Z</time>
  <course>176.82</course>
  <speed>3.5</speed>
  <fix>3d</fix>
</trkpt>
<trkpt lat="-27.2743934" lon="151.2900632">
  <ele>363.07</ele>
  <time>2026-09-01T19:52:37Z</time>
  <course>181.43</course>
  <speed>3.4828149534536</speed>
  <fix>3d</fix>
</trkpt>
<trkpt lat="-27.2743964" lon="151.2900634">
  <ele>363.08</ele>
  <time>2026-09-01T19:52:37Z</time>
  <course>181.42</course>
  <speed>3.452448406565984</speed>
  <fix>3d</fix>
</trkpt>
<trkpt lat="-27.2743877" lon="151.2900634">
  <ele>363.11</ele>
  <time>2026-09-01T19:52:37Z</time>
  <course>176.82</course>
  <speed>3.5</speed>
  <fix>3d</fix>
</trkpt>
<trkpt lat="-27.2743965" lon="151.2900634">
  <ele>363.08</ele>
  <time>2026-09-01T19:52:37Z</time>
  <course>181.42</course>
  <speed>3.452448406565984</speed>
  <fix>3d</fix>
</trkpt>
<trkpt lat="-27.2743995" lon="151.2900636">
  <ele>363.09</ele>
  <time>2026-09-01T19:52:37Z</time>
  <course>181.42</course>
  <speed>3.3924917096435183</speed>
  <fix>3d</fix>
</trkpt>
<trkpt lat="-27.274394" lon="151.2900637">
  <ele>363.11</ele>
  <time>2026-09-01T19:52:37Z</time>
  <course>176.91</course>
  <speed>3.51</speed>
  <fix>3d</fix>
</trkpt>
<trkpt lat="-27.2744" lon="151.2900636">
  <ele>363.09</ele>
  <time>2026-09-01T19:52:37Z</time>
  <course>181.42</course>
  <speed>3.3824990761269986</speed>
  <fix>3d</fix>
</trkpt>
<trkpt lat="-27.2744025" lon="151.2900637">
  <ele>363.1</ele>
  <time>2026-09-01T19:52:37Z</time>
  <course>181.43</course>
  <speed>3.3121745123106057</speed>
  <fix>3d</fix>
</trkpt>
<trkpt lat="-27.274394" lon="151.2900637">
  <ele>363.11</ele>
  <time>2026-09-01T19:52:37Z</time>
  <course>176.91</course>
  <speed>3.51</speed>
  <fix>3d</fix>
</trkpt>
<trkpt lat="-27.2744034" lon="151.2900638">
  <ele>363.1</ele>
  <time>2026-09-01T19:52:37Z</time>
  <course>181.43</course>
  <speed>3.2921877224727023</speed>
  <fix>3d</fix>
</trkpt>
<trkpt lat="-27.2744055" lon="151.2900639">
  <ele>363.11</ele>
  <time>2026-09-01T19:52:37Z</time>
  <course>181.44</course>
  <speed>3.2318725222384628</speed>
  <fix>3d</fix>
</trkpt>
<trkpt lat="-27.2744002" lon="151.2900641">
  <ele>363.13</ele>
  <time>2026-09-01T19:52:37Z</time>
  <course>177.03</course>
  <speed>3.43</speed>
  <fix>3d</fix>
</trkpt>
<trkpt lat="-27.2744063" lon="151.290064">
  <ele>363.11</ele>
  <time>2026-09-01T19:52:37Z</time>
  <course>181.44</course>
  <speed>3.2018900668199084</speed>
  <fix>3d</fix>
</trkpt>
<trkpt lat="-27.2744083" lon="151.2900641">
  <ele>363.12</ele>
  <time>2026-09-01T19:52:37Z</time>
  <course>181.45</course>
  <speed>3.131932310890515</speed>
  <fix>3d</fix>
</trkpt>
<trkpt lat="-27.2744002" lon="151.2900641">
  <ele>363.13</ele>
  <time>2026-09-01T19:52:37Z</time>
  <course>177.03</course>
  <speed>3.43</speed>
  <fix>3d</fix>
</trkpt>
<trkpt lat="-27.2744091" lon="151.2900641">
  <ele>363.12</ele>
  <time>2026-09-01T19:52:37Z</time>
  <course>181.45</course>
  <speed>3.111944729586308</speed>
  <fix>3d</fix>
</trkpt>
<trkpt lat="-27.2744112" lon="151.2900642">
  <ele>363.13</ele>
  <time>2026-09-01T19:52:37Z</time>
  <course>181.47</course>
  <speed>3.041644292155149</speed>
  <fix>3d</fix>
</trkpt>
<trkpt lat="-27.2744063" lon="151.2900644">
  <ele>363.15</ele>
  <time>2026-09-01T19:52:37Z</time>
  <course>177.16</course>
  <speed>3.28</speed>
  <fix>3d</fix>
</trkpt>
<trkpt lat="-27.274412" lon="151.2900643">
  <ele>363.13</ele>
  <time>2026-09-01T19:52:37Z</time>
  <course>181.47</course>
  <speed>3.0116606714568626</speed>
  <fix>3d</fix>
</trkpt>
<trkpt lat="-27.2744139" lon="151.2900644">
  <ele>363.14</ele>
  <time>2026-09-01T19:52:37Z</time>
  <course>181.49</course>
  <speed>2.931381926668717</speed>
  <fix>3d</fix>
</trkpt>
<trkpt lat="-27.2744063" lon="151.2900644">
  <ele>363.15</ele>
  <time>2026-09-01T19:52:37Z</time>
  <course>177.16</course>
  <speed>3.28</speed>
  <fix>3d</fix>
</trkpt>
<trkpt lat="-27.2744146" lon="151.2900644">
  <ele>363.14</ele>
  <time>2026-09-01T19:52:37Z</time>
  <course>181.5</course>
  <speed>2.901396215617577</speed>
  <fix>3d</fix>
</trkpt>
<trkpt lat="-27.2744165" lon="151.2900645">
  <ele>363.14</ele>
  <time>2026-09-01T19:52:37Z</time>
  <course>181.51</course>
  <speed>2.821435804692355</speed>
  <fix>3d</fix>
</trkpt>
<trkpt lat="-27.2744121" lon="151.2900648">
  <ele>363.16</ele>
  <time>2026-09-01T19:52:37Z</time>
  <course>177.31</course>
  <speed>3.08</speed>
  <fix>3d</fix>
</trkpt>
<trkpt lat="-27.2744166" lon="151.2900645">
  <ele>363.14</ele>
  <time>2026-09-01T19:52:37Z</time>
  <course>181.51</course>
  <speed>2.821435804692355</speed>
  <fix>3d</fix>
</trkpt>
<trkpt lat="-27.2744191" lon="151.2900647">
  <ele>363.14</ele>
  <time>2026-09-01T19:52:37Z</time>
  <course>181.54</course>
  <speed>2.711180554666177</speed>
  <fix>3d</fix>
</trkpt>
<trkpt lat="-27.2744121" lon="151.2900648">
  <ele>363.16</ele>
  <time>2026-09-01T19:52:37Z</time>
  <course>177.31</course>
  <speed>3.08</speed>
  <fix>3d</fix>
</trkpt>
<trkpt lat="-27.2744194" lon="151.2900647">
  <ele>363.14</ele>
  <time>2026-09-01T19:52:37Z</time>
  <course>181.54</course>
  <speed>2.701184925176357</speed>
  <fix>3d</fix>
</trkpt>
<trkpt lat="-27.2744215" lon="151.2900648">
  <ele>363.14</ele>
  <time>2026-09-01T19:52:37Z</time>
  <course>181.56</course>
  <speed>2.6009421369957466</speed>
  <fix>3d</fix>
</trkpt>
<trkpt lat="-27.2744174" lon="151.2900651">
  <ele>363.18</ele>
  <time>2026-09-01T19:52:37Z</time>
  <course>177.47</course>
  <speed>2.87</speed>
  <fix>3d</fix>
</trkpt>
<trkpt lat="-27.2744216" lon="151.2900648">
  <ele>363.14</ele>
  <time>2026-09-01T19:52:37Z</time>
  <course>181.56</course>
  <speed>2.6009421369957466</speed>
  <fix>3d</fix>
</trkpt>
<trkpt lat="-27.2744239" lon="151.2900649">
  <ele>363.14</ele>
  <time>2026-09-01T19:52:37Z</time>
  <course>181.58</course>
  <speed>2.4809877065394743</speed>
  <fix>3d</fix>
</trkpt>
<trkpt lat="-27.2744174" lon="151.2900651">
  <ele>363.18</ele>
  <time>2026-09-01T19:52:37Z</time>
  <course>177.47</course>
  <speed>2.87</speed>
  <fix>3d</fix>
</trkpt>
<trkpt lat="-27.2744242" lon="151.2900649">
  <ele>363.14</ele>
  <time>2026-09-01T19:52:37Z</time>
  <course>181.59</course>
  <speed>2.4707286374670936</speed>
  <fix>3d</fix>
</trkpt>
<trkpt lat="-27.2744261" lon="151.290065">
  <ele>363.13</ele>
  <time>2026-09-01T19:52:37Z</time>
  <course>181.61</course>
  <speed>2.370759372015642</speed>
  <fix>3d</fix>
</trkpt>
<trkpt lat="-27.2744224" lon="151.2900652">
  <ele>363.18</ele>
  <time>2026-09-01T19:52:37Z</time>
  <course>177.65</course>
  <speed>2.64</speed>
  <fix>3d</fix>
</trkpt>
<trkpt lat="-27.2744268" lon="151.2900651">
  <ele>363.13</ele>
  <time>2026-09-01T19:52:37Z</time>
  <course>181.61</course>
  <speed>2.330772404161333</speed>
  <fix>3d</fix>
</trkpt>
<trkpt lat="-27.2744282" lon="151.2900651">
  <ele>363.12</ele>
  <time>2026-09-01T19:52:37Z</time>
  <course>181.63</course>
  <speed>2.25055548698538</speed>
  <fix>3d</fix>
</trkpt>
<trkpt lat="-27.2744224" lon="151.2900652">
  <ele>363.18</ele>
  <time>2026-09-01T19:52:37Z</time>
  <course>177.65</course>
  <speed>2.64</speed>
  <fix>3d</fix>
</trkpt>
<trkpt lat="-27.2744289" lon="151.2900652">
  <ele>363.12</ele>
  <time>2026-09-01T19:52:37Z</time>
  <course>181.64</course>
  <speed>2.2205629916757594</speed>
  <fix>3d</fix>
</trkpt>
<trkpt lat="-27.2744303" lon="151.2900652">
  <ele>363.1</ele>
  <time>2026-09-01T19:52:37Z</time>
  <course>181.65</course>
  <speed>2.1405840324546945</speed>
  <fix>3d</fix>
</trkpt>
<trkpt lat="-27.2744269" lon="151.2900655">
  <ele>363.17</ele>
  <time>2026-09-01T19:52:37Z</time>
  <course>177.85</course>
  <speed>2.41</speed>
  <fix>3d</fix>
</trkpt>
<trkpt lat="-27.2744303" lon="151.2900652">
  <ele>363.1</ele>
  <time>2026-09-01T19:52:37Z</time>
  <course>181.65</course>
  <speed>2.1405840324546945</speed>
  <fix>3d</fix>
</trkpt>
<trkpt lat="-27.2744322" lon="151.2900653">
  <ele>363.07</ele>
  <time>2026-09-01T19:52:37Z</time>
  <course>181.67</course>
  <speed>2.0303940504246953</speed>
  <fix>3d</fix>
</trkpt>
<trkpt lat="-27.2744269" lon="151.2900655">
  <ele>363.17</ele>
  <time>2026-09-01T19:52:37Z</time>
  <course>177.85</course>
  <speed>2.41</speed>
  <fix>3d</fix>
</trkpt>
<trkpt lat="-27.2744323" lon="151.2900653">
  <ele>363.07</ele>
  <time>2026-09-01T19:52:37Z</time>
  <course>181.67</course>
  <speed>2.0303940504246953</speed>
  <fix>3d</fix>
</trkpt>
<trkpt lat="-27.274434" lon="151.2900654">
  <ele>363.02</ele>
  <time>2026-09-01T19:52:37Z</time>
  <course>181.69</course>
  <speed>1.9402319448973104</speed>
  <fix>3d</fix>
</trkpt>
<trkpt lat="-27.274431" lon="151.2900656">
  <ele>363.14</ele>
  <time>2026-09-01T19:52:37Z</time>
  <course>178.07</course>
  <speed>2.18</speed>
  <fix>3d</fix>
</trkpt>
<trkpt lat="-27.2744343" lon="151.2900654">
  <ele>363.02</ele>
  <time>2026-09-01T19:52:37Z</time>
  <course>181.69</course>
  <speed>1.9202343606966312</speed>
  <fix>3d</fix>
</trkpt>
<trkpt lat="-27.2744357" lon="151.2900654">
  <ele>362.96</ele>
  <time>2026-09-01T19:52:37Z</time>
  <course>181.7</course>
  <speed>1.8302458851203574</speed>
  <fix>3d</fix>
</trkpt>
<trkpt lat="-27.274431" lon="151.2900656">
  <ele>363.14</ele>
  <time>2026-09-01T19:52:37Z</time>
  <course>178.07</course>
  <speed>2.18</speed>
  <fix>3d</fix>
</trkpt>
<trkpt lat="-27.2744364" lon="151.2900655">
  <ele>362.93</ele>
  <time>2026-09-01T19:52:37Z</time>
  <course>181.71</course>
  <speed>1.790111728356641</speed>
  <fix>3d</fix>
</trkpt>
<trkpt lat="-27.2744374" lon="151.2900655">
  <ele>362.88</ele>
  <time>2026-09-01T19:52:37Z</time>
  <course>181.71</course>
  <speed>1.71011695506477</speed>
  <fix>3d</fix>
</trkpt>
<trkpt lat="-27.2744348" lon="151.2900658">
  <ele>363.06</ele>
  <time>2026-09-01T19:52:37Z</time>
  <course>178.33</course>
  <speed>1.97</speed>
  <fix>3d</fix>
</trkpt>
<trkpt lat="-27.2744374" lon="151.2900655">
  <ele>362.87</ele>
  <time>2026-09-01T19:52:37Z</time>
  <course>181.71</course>
  <speed>1.7001176429882727</speed>
  <fix>3d</fix>
</trkpt>
<trkpt lat="-27.2744389" lon="151.2900656">
  <ele>362.77</ele>
  <time>2026-09-01T19:52:37Z</time>
  <course>181.72</course>
  <speed>1.5701273833673497</speed>
  <fix>3d</fix>
</trkpt>
<trkpt lat="-27.2744348" lon="151.2900658">
  <ele>363.06</ele>
  <time>2026-09-01T19:52:37Z</time>
  <course>178.33</course>
  <speed>1.97</speed>
  <fix>3d</fix>
</trkpt>
<trkpt lat="-27.2744392" lon="151.2900656">
  <ele>362.74</ele>
  <time>2026-09-01T19:52:37Z</time>
  <course>181.72</course>
  <speed>1.5400324671902212</speed>
  <fix>3d</fix>
</trkpt>
<trkpt lat="-27.2744403" lon="151.2900656">
  <ele>362.65</ele>
  <time>2026-09-01T19:52:37Z</time>
  <course>181.72</course>
  <speed>1.430034964607509</speed>
  <fix>3d</fix>
</trkpt>
<trkpt lat="-27.2744381" lon="151.2900659">
  <ele>362.91</ele>
  <time>2026-09-01T19:52:37Z</time>
  <course>178.61</course>
  <speed>1.74</speed>
  <fix>3d</fix>
</trkpt>
<trkpt lat="-27.2744406" lon="151.2900656">
  <ele>362.61</ele>
  <time>2026-09-01T19:52:37Z</time>
  <course>181.72</course>
  <speed>1.4000357138301864</speed>
  <fix>3d</fix>
</trkpt>
<trkpt lat="-27.2744416" lon="151.2900657">
  <ele>362.51</ele>
  <time>2026-09-01T19:52:37Z</time>
  <course>181.72</course>
  <speed>1.28</speed>
  <fix>3d</fix>
</trkpt>
<trkpt lat="-27.2744381" lon="151.2900659">
  <ele>362.91</ele>
  <time>2026-09-01T19:52:37Z</time>
  <course>178.61</course>
  <speed>1.74</speed>
  <fix>3d</fix>
</trkpt>
<trkpt lat="-27.2744419" lon="151.2900657">
  <ele>362.46</ele>
  <time>2026-09-01T19:52:37Z</time>
  <course>181.72</course>
  <speed>1.23</speed>
  <fix>3d</fix>
</trkpt>
<trkpt lat="-27.2744427" lon="151.2900657">
  <ele>362.35</ele>
  <time>2026-09-01T19:52:37Z</time>
  <course>181.72</course>
  <speed>1.13</speed>
  <fix>3d</fix>
</trkpt>
<trkpt lat="-27.274441" lon="151.290066">
  <ele>362.69</ele>
  <time>2026-09-01T19:52:37Z</time>
  <course>178.93</course>
  <speed>1.46</speed>
  <fix>3d</fix>
</trkpt>
<trkpt lat="-27.274443" lon="151.2900657">
  <ele>362.31</ele>
  <time>2026-09-01T19:52:37Z</time>
  <course>181.72</course>
  <speed>1.08</speed>
  <fix>3d</fix>
</trkpt>
<trkpt lat="-27.2744437" lon="151.2900657">
  <ele>362.19</ele>
  <time>2026-09-01T19:52:37Z</time>
  <course>181.72</course>
  <speed>0.97</speed>
  <fix>3d</fix>
</trkpt>
<trkpt lat="-27.274441" lon="151.290066">
  <ele>362.69</ele>
  <time>2026-09-01T19:52:37Z</time>
  <course>178.93</course>
  <speed>1.46</speed>
  <fix>3d</fix>
</trkpt>
<trkpt lat="-27.2744439" lon="151.2900657">
  <ele>362.14</ele>
  <time>2026-09-01T19:52:37Z</time>
  <course>181.73</course>
  <speed>0.92</speed>
  <fix>3d</fix>
</trkpt>
<trkpt lat="-27.2744445" lon="151.2900657">
  <ele>362.03</ele>
  <time>2026-09-01T19:52:37Z</time>
  <course>181.73</course>
  <speed>0.8100617260431454</speed>
  <fix>3d</fix>
</trkpt>
<trkpt lat="-27.2744433" lon="151.290066">
  <ele>362.4</ele>
  <time>2026-09-01T19:52:37Z</time>
  <course>179.43</course>
  <speed>1.15</speed>
  <fix>3d</fix>
</trkpt>
<trkpt lat="-27.2744445" lon="151.2900657">
  <ele>362.02</ele>
  <time>2026-09-01T19:52:37Z</time>
  <course>181.73</course>
  <speed>0.8000624975587844</speed>
  <fix>3d</fix>
</trkpt>
<trkpt lat="-27.2744452" lon="151.2900657">
  <ele>361.86</ele>
  <time>2026-09-01T19:52:37Z</time>
  <course>181.75</course>
  <speed>0.6500769185258002</speed>
  <fix>3d</fix>
</trkpt>
<trkpt lat="-27.2744433" lon="151.290066">
  <ele>362.4</ele>
  <time>2026-09-01T19:52:37Z</time>
  <course>179.43</course>
  <speed>1.15</speed>
  <fix>3d</fix>
</trkpt>
<trkpt lat="-27.2744454" lon="151.2900657">
  <ele>361.81</ele>
  <time>2026-09-01T19:52:37Z</time>
  <course>181.75</course>
  <speed>0.6000833275470999</speed>
  <fix>3d</fix>
</trkpt>
<trkpt lat="-27.2744458" lon="151.2900657">
  <ele>361.69</ele>
  <time>2026-09-01T19:52:37Z</time>
  <course>181.77</course>
  <speed>0.49040799340956914</speed>
  <fix>3d</fix>
</trkpt>
<trkpt lat="-27.2744451" lon="151.290066">
  <ele>362.08</ele>
  <time>2026-09-01T19:52:37Z</time>
  <course>180.29</course>
  <speed>0.83</speed>
  <fix>3d</fix>
</trkpt>
<trkpt lat="-27.274446" lon="151.2900657">
  <ele>361.62</ele>
  <time>2026-09-01T19:52:37Z</time>
  <course>181.79</course>
  <speed>0.4304648650006177</speed>
  <fix>3d</fix>
</trkpt>
<trkpt lat="-27.2744462" lon="151.2900657">
  <ele>361.53</ele>
  <time>2026-09-01T19:52:37Z</time>
  <course>181.81</course>
  <speed>0.34058772731852804</speed>
  <fix>3d</fix>
</trkpt>
<trkpt lat="-27.2744451" lon="151.290066">
  <ele>362.08</ele>
  <time>2026-09-01T19:52:37Z</time>
  <course>180.29</course>
  <speed>0.83</speed>
  <fix>3d</fix>
</trkpt>
<trkpt lat="-27.2744463" lon="151.2900657">
  <ele>361.48</ele>
  <time>2026-09-01T19:52:37Z</time>
  <course>181.84</course>
  <speed>0.2906888370749727</speed>
  <fix>3d</fix>
</trkpt>
<trkpt lat="-27.2744465" lon="151.2900657">
  <ele>361.37</ele>
  <time>2026-09-01T19:52:37Z</time>
  <course>181.92</course>
  <speed>0.2009975124224178</speed>
  <fix>3d</fix>
</trkpt>
<trkpt lat="-27.2744464" lon="151.290066">
  <ele>361.75</ele>
  <time>2026-09-01T19:52:37Z</time>
  <course>182.01</course>
  <speed>0.52</speed>
  <fix>3d</fix>
</trkpt>
<trkpt lat="-27.2744466" lon="151.2900657">
  <ele>361.3</ele>
  <time>2026-09-01T19:52:37Z</time>
  <course>182.05</course>
  <speed>0.140356688476182</speed>
  <fix>3d</fix>
</trkpt>
<trkpt lat="-27.2744466" lon="151.2900657">
  <ele>361.21</ele>
  <time>2026-09-01T19:52:37Z</time>
  <course>182.36</course>
  <speed>0.07</speed>
  <fix>3d</fix>
</trkpt>
<trkpt lat="-27.2744464" lon="151.290066">
  <ele>361.75</ele>
  <time>2026-09-01T19:52:37Z</time>
  <course>182.01</course>
  <speed>0.52</speed>
  <fix>3d</fix>
</trkpt>
<trkpt lat="-27.2744467" lon="151.2900657">
  <ele>361.2</ele>
  <time>2026-09-01T19:52:37Z</time>
  <course>182.41</course>
  <speed>0.06082762530298219</speed>
  <fix>3d</fix>
</trkpt>
<trkpt lat="-27.2744467" lon="151.2900658">
  <ele>361.06</ele>
  <time>2026-09-01T19:52:37Z</time>
  <course>183.1</course>
  <speed>0.044721359549995794</speed>
  <fix>3d</fix>
</trkpt>
<trkpt lat="-27.274447" lon="151.290066">
  <ele>361.43</ele>
  <time>2026-09-01T19:52:37Z</time>
  <course>182.11</course>
  <speed>0.22</speed>
  <fix>3d</fix>
</trkpt>
<trkpt lat="-27.2744467" lon="151.2900658">
  <ele>361.01</ele>
  <time>2026-09-01T19:52:37Z</time>
  <course>183.3</course>
  <speed>0.07280109889280519</speed>
  <fix>3d</fix>
</trkpt>
<trkpt lat="-27.2744467" lon="151.2900658">
  <ele>360.91</ele>
  <time>2026-09-01T19:52:37Z</time>
  <course>183.71</course>
  <speed>0.1414213562373095</speed>
  <fix>3d</fix>
</trkpt>
<trkpt lat="-27.274447" lon="151.290066">
  <ele>361.43</ele>
  <time>2026-09-01T19:52:37Z</time>
  <course>182.11</course>
  <speed>0.22</speed>
  <fix>3d</fix>
</trkpt>
<trkpt lat="-27.2744466" lon="151.2900658">
  <ele>360.84</ele>
  <time>2026-09-01T19:52:37Z</time>
  <course>183.94</course>
  <speed>0.17262676501632068</speed>
  <fix>3d</fix>
</trkpt>
<trkpt lat="-27.2744465" lon="151.2900659">
  <ele>360.76</ele>
  <time>2026-09-01T19:52:37Z</time>
  <course>184.15</course>
  <speed>0.21213203435596426</speed>
  <fix>3d</fix>
</trkpt>
<trkpt lat="-27.2744472" lon="151.290066">
  <ele>361.13</ele>
  <time>2026-09-01T19:52:37Z</time>
  <course>43.41</course>
  <speed>0.02</speed>
  <fix>3d</fix>
</trkpt>
<trkpt lat="-27.2744465" lon="151.2900659">
  <ele>360.7</ele>
  <time>2026-09-01T19:52:37Z</time>
  <course>184.28</course>
  <speed>0.24186773244895649</speed>
  <fix>3d</fix>
</trkpt>
<trkpt lat="-27.2744464" lon="151.2900659">
  <ele>360.62</ele>
  <time>2026-09-01T19:52:37Z</time>
  <course>184.39</course>
  <speed>0.27166155414412246</speed>
  <fix>3d</fix>
</trkpt>
<trkpt lat="-27.2744472" lon="151.290066">
  <ele>361.13</ele>
  <time>2026-09-01T19:52:37Z</time>
  <course>43.41</course>
  <speed>0.02</speed>
  <fix>3d</fix>
</trkpt>
<trkpt lat="-27.2744463" lon="151.2900659">
  <ele>360.56</ele>
  <time>2026-09-01T19:52:37Z</time>
  <course>184.43</course>
  <speed>0.291547594742265</speed>
  <fix>3d</fix>
</trkpt>
<trkpt lat="-27.2744461" lon="151.290066">
  <ele>360.48</ele>
  <time>2026-09-01T19:52:37Z</time>
  <course>184.44</course>
  <speed>0.3125699921617557</speed>
  <fix>3d</fix>
</trkpt>
<trkpt lat="-27.274447" lon="151.290066">
  <ele>360.83</ele>
  <time>2026-09-01T19:52:37Z</time>
  <course>10.1</course>
  <speed>0.2</speed>
  <fix>3d</fix>
</trkpt>
<trkpt lat="-27.274446" lon="151.290066">
  <ele>360.42</ele>
  <time>2026-09-01T19:52:37Z</time>
  <course>184.41</course>
  <speed>0.33241540277189324</speed>
  <fix>3d</fix>
</trkpt>
<trkpt lat="-27.2744459" lon="151.290066">
  <ele>360.34</ele>
  <time>2026-09-01T19:52:37Z</time>
  <course>184.32</course>
  <speed>0.3522782990761707</speed>
  <fix>3d</fix>
</trkpt>
<trkpt lat="-27.274447" lon="151.290066">
  <ele>360.83</ele>
  <time>2026-09-01T19:52:37Z</time>
  <course>10.1</course>
  <speed>0.2</speed>
  <fix>3d</fix>
</trkpt>
<trkpt lat="-27.2744457" lon="151.290066">
  <ele>360.25</ele>
  <time>2026-09-01T19:52:37Z</time>
  <course>184.16</course>
  <speed>0.36124783736376886</speed>
  <fix>3d</fix>
</trkpt>
<trkpt lat="-27.2744456" lon="151.2900661">
  <ele>360.21</ele>
  <time>2026-09-01T19:52:37Z</time>
  <course>184.07</course>
  <speed>0.3622154055254967</speed>
  <fix>3d</fix>
</trkpt>
<trkpt lat="-27.2744466" lon="151.2900661">
  <ele>360.55</ele>
  <time>2026-09-01T19:52:37Z</time>
  <course>7.9</course>
  <speed>0.3</speed>
  <fix>3d</fix>
</trkpt>
<trkpt lat="-27.2744456" lon="151.2900661">
  <ele>360.15</ele>
  <time>2026-09-01T19:52:37Z</time>
  <course>183.94</course>
  <speed>0.3712142238654117</speed>
  <fix>3d</fix>
</trkpt>
<trkpt lat="-27.2744454" lon="151.2900661">
  <ele>360.07</ele>
  <time>2026-09-01T19:52:37Z</time>
  <course>183.72</course>
  <speed>0.38118237105091834</speed>
  <fix>3d</fix>
</trkpt>
<trkpt lat="-27.2744466" lon="151.2900661">
  <ele>360.55</ele>
  <time>2026-09-01T19:52:37Z</time>
  <course>7.9</course>
  <speed>0.3</speed>
  <fix>3d</fix>
</trkpt>
<trkpt lat="-27.2744453" lon="151.2900661">
  <ele>360.02</ele>
  <time>2026-09-01T19:52:37Z</time>
  <course>183.56</course>
  <speed>0.38118237105091834</speed>
  <fix>3d</fix>
</trkpt>
<trkpt lat="-27.2744451" lon="151.2900661">
  <ele>359.93</ele>
  <time>2026-09-01T19:52:37Z</time>
  <course>183.32</course>
  <speed>0.38052595180880894</speed>
  <fix>3d</fix>
</trkpt>
<trkpt lat="-27.274446" lon="151.2900661">
  <ele>360.28</ele>
  <time>2026-09-01T19:52:37Z</time>
  <course>6.61</course>
  <speed>0.36</speed>
  <fix>3d</fix>
</trkpt>
<trkpt lat="-27.2744449" lon="151.2900661">
  <ele>359.88</ele>
  <time>2026-09-01T19:52:37Z</time>
  <course>183.15</course>
  <speed>0.38052595180880894</speed>
  <fix>3d</fix>
</trkpt>
<trkpt lat="-27.2744447" lon="151.2900662">
  <ele>359.8</ele>
  <time>2026-09-01T19:52:37Z</time>
  <course>182.9</course>
  <speed>0.38052595180880894</speed>
  <fix>3d</fix>
</trkpt>
<trkpt lat="-27.274446" lon="151.2900661">
  <ele>360.28</ele>
  <time>2026-09-01T19:52:37Z</time>
  <course>6.61</course>
  <speed>0.36</speed>
  <fix>3d</fix>
</trkpt>
<trkpt lat="-27.2744446" lon="151.2900662">
  <ele>359.73</ele>
  <time>2026-09-01T19:52:37Z</time>
  <course>182.72</course>
  <speed>0.38013155617496425</speed>
  <fix>3d</fix>
</trkpt>
<trkpt lat="-27.2744444" lon="151.2900662">
  <ele>359.66</ele>
  <time>2026-09-01T19:52:37Z</time>
  <course>182.53</course>
  <speed>0.38013155617496425</speed>
  <fix>3d</fix>
</trkpt>
<trkpt lat="-27.2744453" lon="151.2900662">
  <ele>360.0</ele>
  <time>2026-09-01T19:52:37Z</time>
  <course>5.43</course>
  <speed>0.38</speed>
  <fix>3d</fix>
</trkpt>
<trkpt lat="-27.2744444" lon="151.2900662">
  <ele>359.65</ele>
  <time>2026-09-01T19:52:37Z</time>
  <course>182.52</course>
  <speed>0.38013155617496425</speed>
  <fix>3d</fix>
</trkpt>
<trkpt lat="-27.2744441" lon="151.2900662">
  <ele>359.52</ele>
  <time>2026-09-01T19:52:37Z</time>
  <course>182.23</course>
  <speed>0.37013511046643494</speed>
  <fix>3d</fix>
</trkpt>
<trkpt lat="-27.2744453" lon="151.2900662">
  <ele>360.0</ele>
  <time>2026-09-01T19:52:37Z</time>
  <course>5.43</course>
  <speed>0.38</speed>
  <fix>3d</fix>
</trkpt>
<trkpt lat="-27.274444" lon="151.2900662">
  <ele>359.47</ele>
  <time>2026-09-01T19:52:37Z</time>
  <course>182.16</course>
  <speed>0.37013511046643494</speed>
  <fix>3d</fix>
</trkpt>
<trkpt lat="-27.2744438" lon="151.2900662">
  <ele>359.37</ele>
  <time>2026-09-01T19:52:37Z</time>
  <course>182.04</course>
  <speed>0.36</speed>
  <fix>3d</fix>
</trkpt>
<trkpt lat="-27.2744447" lon="151.2900663">
  <ele>359.72</ele>
  <time>2026-09-01T19:52:37Z</time>
  <course>4.42</course>
  <speed>0.38</speed>
  <fix>3d</fix>
</trkpt>
<trkpt lat="-27.2744438" lon="151.2900662">
  <ele>359.37</ele>
  <time>2026-09-01T19:52:37Z</time>
  <course>182.04</course>
  <speed>0.36</speed>
  <fix>3d</fix>
</trkpt>
<trkpt lat="-27.2744435" lon="151.2900662">
  <ele>359.23</ele>
  <time>2026-09-01T19:52:37Z</time>
  <course>181.95</course>
  <speed>0.35</speed>
  <fix>3d</fix>
</trkpt>
<trkpt lat="-27.2744447" lon="151.2900663">
  <ele>359.72</ele>
  <time>2026-09-01T19:52:37Z</time>
  <course>4.42</course>
  <speed>0.38</speed>
  <fix>3d</fix>
</trkpt>
<trkpt lat="-27.2744435" lon="151.2900662">
  <ele>359.23</ele>
  <time>2026-09-01T19:52:37Z</time>
  <course>181.95</course>
  <speed>0.35</speed>
  <fix>3d</fix>
</trkpt>
<trkpt lat="-27.2744432" lon="151.2900662">
  <ele>359.09</ele>
  <time>2026-09-01T19:52:37Z</time>
  <course>181.95</course>
  <speed>0.34</speed>
  <fix>3d</fix>
</trkpt>
<trkpt lat="-27.274444" lon="151.2900664">
  <ele>359.44</ele>
  <time>2026-09-01T19:52:37Z</time>
  <course>3.82</course>
  <speed>0.36</speed>
  <fix>3d</fix>
</trkpt>
<trkpt lat="-27.2744432" lon="151.2900662">
  <ele>359.08</ele>
  <time>2026-09-01T19:52:37Z</time>
  <course>181.96</course>
  <speed>0.34</speed>
  <fix>3d</fix>
</trkpt>
<trkpt lat="-27.2744429" lon="151.2900663">
  <ele>358.94</ele>
  <time>2026-09-01T19:52:37Z</time>
  <course>182.03</course>
  <speed>0.33</speed>
  <fix>3d</fix>
</trkpt>
<trkpt lat="-27.274444" lon="151.2900664">
  <ele>359.44</ele>
  <time>2026-09-01T19:52:37Z</time>
  <course>3.82</course>
  <speed>0.36</speed>
  <fix>3d</fix>
</trkpt>
<trkpt lat="-27.2744429" lon="151.2900663">
  <ele>358.93</ele>
  <time>2026-09-01T19:52:37Z</time>
  <course>182.04</course>
  <speed>0.33</speed>
  <fix>3d</fix>
</trkpt>
<trkpt lat="-27.2744427" lon="151.2900663">
  <ele>358.79</ele>
  <time>2026-09-01T19:52:37Z</time>
  <course>182.16</course>
  <speed>0.32</speed>
  <fix>3d</fix>
</trkpt>
<trkpt lat="-27.2744434" lon="151.2900664">
  <ele>359.15</ele>
  <time>2026-09-01T19:52:37Z</time>
  <course>3.75</course>
  <speed>0.34</speed>
  <fix>3d</fix>
</trkpt>
<trkpt lat="-27.2744427" lon="151.2900663">
  <ele>358.78</ele>
  <time>2026-09-01T19:52:37Z</time>
  <course>182.16</course>
  <speed>0.32</speed>
  <fix>3d</fix>
</trkpt>
<trkpt lat="-27.2744424" lon="151.2900663">
  <ele>358.64</ele>
  <time>2026-09-01T19:52:37Z</time>
  <course>182.31</course>
  <speed>0.3</speed>
  <fix>3d</fix>
</trkpt>
<trkpt lat="-27.2744434" lon="151.2900664">
  <ele>359.15</ele>
  <time>2026-09-01T19:52:37Z</time>
  <course>3.75</course>
  <speed>0.34</speed>
  <fix>3d</fix>
</trkpt>
<trkpt lat="-27.2744424" lon="151.2900663">
  <ele>358.63</ele>
  <time>2026-09-01T19:52:37Z</time>
  <course>182.32</course>
  <speed>0.3</speed>
  <fix>3d</fix>
</trkpt>
<trkpt lat="-27.2744422" lon="151.2900663">
  <ele>358.49</ele>
  <time>2026-09-01T19:52:37Z</time>
  <course>182.46</course>
  <speed>0.29</speed>
  <fix>3d</fix>
</trkpt>
<trkpt lat="-27.2744428" lon="151.2900665">
  <ele>358.86</ele>
  <time>2026-09-01T19:52:37Z</time>
  <course>4.19</course>
  <speed>0.32</speed>
  <fix>3d</fix>
</trkpt>
<trkpt lat="-27.2744421" lon="151.2900663">
  <ele>358.48</ele>
  <time>2026-09-01T19:52:37Z</time>
  <course>182.46</course>
  <speed>0.29</speed>
  <fix>3d</fix>
</trkpt>
<trkpt lat="-27.2744419" lon="151.2900663">
  <ele>358.33</ele>
  <time>2026-09-01T19:52:37Z</time>
  <course>182.58</course>
  <speed>0.28</speed>
  <fix>3d</fix>
</trkpt>
<trkpt lat="-27.2744428" lon="151.2900665">
  <ele>358.86</ele>
  <time>2026-09-01T19:52:37Z</time>
  <course>4.19</course>
  <speed>0.32</speed>
  <fix>3d</fix>
</trkpt>
<trkpt lat="-27.2744419" lon="151.2900663">
  <ele>358.33</ele>
  <time>2026-09-01T19:52:37Z</time>
  <course>182.59</course>
  <speed>0.28</speed>
  <fix>3d</fix>
</trkpt>
<trkpt lat="-27.2744417" lon="151.2900663">
  <ele>358.18</ele>
  <time>2026-09-01T19:52:37Z</time>
  <course>182.67</course>
  <speed>0.26</speed>
  <fix>3d</fix>
</trkpt>
<trkpt lat="-27.2744422" lon="151.2900665">
  <ele>358.56</ele>
  <time>2026-09-01T19:52:37Z</time>
  <course>4.86</course>
  <speed>0.29</speed>
  <fix>3d</fix>
</trkpt>
<trkpt lat="-27.2744417" lon="151.2900663">
  <ele>358.17</ele>
  <time>2026-09-01T19:52:37Z</time>
  <course>182.67</course>
  <speed>0.26</speed>
  <fix>3d</fix>
</trkpt>
<trkpt lat="-27.2744414" lon="151.2900663">
  <ele>358.02</ele>
  <time>2026-09-01T19:52:37Z</time>
  <course>182.71</course>
  <speed>0.25</speed>
  <fix>3d</fix>
</trkpt>
<trkpt lat="-27.2744422" lon="151.2900665">
  <ele>358.56</ele>
  <time>2026-09-01T19:52:37Z</time>
  <course>4.86</course>
  <speed>0.29</speed>
  <fix>3d</fix>
</trkpt>
<trkpt lat="-27.2744414" lon="151.2900664">
  <ele>358.02</ele>
  <time>2026-09-01T19:52:37Z</time>
  <course>182.71</course>
  <speed>0.25</speed>
  <fix>3d</fix>
</trkpt>
<trkpt lat="-27.2744412" lon="151.2900664">
  <ele>357.87</ele>
  <time>2026-09-01T19:52:37Z</time>
  <course>182.71</course>
  <speed>0.24</speed>
  <fix>3d</fix>
</trkpt>
<trkpt lat="-27.2744416" lon="151.2900666">
  <ele>358.25</ele>
  <time>2026-09-01T19:52:37Z</time>
  <course>5.48</course>
  <speed>0.27</speed>
  <fix>3d</fix>
</trkpt>
<trkpt lat="-27.2744412" lon="151.2900664">
  <ele>357.86</ele>
  <time>2026-09-01T19:52:37Z</time>
  <course>182.71</course>
  <speed>0.24</speed>
  <fix>3d</fix>
</trkpt>
<trkpt lat="-27.274441" lon="151.2900664">
  <ele>357.71</ele>
  <time>2026-09-01T19:52:37Z</time>
  <course>182.68</course>
  <speed>0.23</speed>
  <fix>3d</fix>
</trkpt>
<trkpt lat="-27.2744416" lon="151.2900666">
  <ele>358.25</ele>
  <time>2026-09-01T19:52:37Z</time>
  <course>5.48</course>
  <speed>0.27</speed>
  <fix>3d</fix>
</trkpt>
<trkpt lat="-27.274441" lon="151.2900664">
  <ele>357.71</ele>
  <time>2026-09-01T19:52:38Z</time>
  <course>182.68</course>
  <speed>0.23</speed>
  <fix>3d</fix>
</trkpt>
<trkpt lat="-27.2744408" lon="151.2900664">
  <ele>357.56</ele>
  <time>2026-09-01T19:52:38Z</time>
  <course>182.63</course>
  <speed>0.22</speed>
  <fix>3d</fix>
</trkpt>
<trkpt lat="-27.2744412" lon="151.2900666">
  <ele>357.94</ele>
  <time>2026-09-01T19:52:38Z</time>
  <course>6.07</course>
  <speed>0.24</speed>
  <fix>3d</fix>
</trkpt>
<trkpt lat="-27.2744408" lon="151.2900664">
  <ele>357.55</ele>
  <time>2026-09-01T19:52:38Z</time>
  <course>182.63</course>
  <speed>0.22</speed>
  <fix>3d</fix>
</trkpt>
<trkpt lat="-27.2744406" lon="151.2900664">
  <ele>357.4</ele>
  <time>2026-09-01T19:52:38Z</time>
  <course>182.58</course>
  <speed>0.21</speed>
  <fix>3d</fix>
</trkpt>
<trkpt lat="-27.2744412" lon="151.2900666">
  <ele>357.94</ele>
  <time>2026-09-01T19:52:38Z</time>
  <course>6.07</course>
  <speed>0.24</speed>
  <fix>3d</fix>
</trkpt>
<trkpt lat="-27.2744406" lon="151.2900664">
  <ele>357.4</ele>
  <time>2026-09-01T19:52:38Z</time>
  <course>182.58</course>
  <speed>0.21</speed>
  <fix>3d</fix>
</trkpt>
<trkpt lat="-27.2744404" lon="151.2900664">
  <ele>357.25</ele>
  <time>2026-09-01T19:52:38Z</time>
  <course>182.53</course>
  <speed>0.2</speed>
  <fix>3d</fix>
</trkpt>
<trkpt lat="-27.2744408" lon="151.2900666">
  <ele>357.63</ele>
  <time>2026-09-01T19:52:38Z</time>
  <course>6.62</course>
  <speed>0.22</speed>
  <fix>3d</fix>
</trkpt>
<trkpt lat="-27.2744404" lon="151.2900664">
  <ele>357.24</ele>
  <time>2026-09-01T19:52:38Z</time>
  <course>182.53</course>
  <speed>0.2</speed>
  <fix>3d</fix>
</trkpt>
<trkpt lat="-27.2744403" lon="151.2900665">
  <ele>357.09</ele>
  <time>2026-09-01T19:52:38Z</time>
  <course>182.5</course>
  <speed>0.19</speed>
  <fix>3d</fix>
</trkpt>
<trkpt lat="-27.2744408" lon="151.2900666">
  <ele>357.63</ele>
  <time>2026-09-01T19:52:38Z</time>
  <course>6.62</course>
  <speed>0.22</speed>
  <fix>3d</fix>
</trkpt>
<trkpt lat="-27.2744402" lon="151.2900665">
  <ele>357.09</ele>
  <time>2026-09-01T19:52:38Z</time>
  <course>182.5</course>
  <speed>0.19</speed>
  <fix>3d</fix>
</trkpt>
<trkpt lat="-27.2744401" lon="151.2900665">
  <ele>356.94</ele>
  <time>2026-09-01T19:52:38Z</time>
  <course>182.49</course>
  <speed>0.18</speed>
  <fix>3d</fix>
</trkpt>
<trkpt lat="-27.2744403" lon="151.2900667">
  <ele>357.33</ele>
  <time>2026-09-01T19:52:38Z</time>
  <course>7.2</course>
  <speed>0.2</speed>
  <fix>3d</fix>
</trkpt>
<trkpt lat="-27.2744401" lon="151.2900665">
  <ele>356.94</ele>
  <time>2026-09-01T19:52:38Z</time>
  <course>182.49</course>
  <speed>0.18</speed>
  <fix>3d</fix>
</trkpt>
<trkpt lat="-27.2744399" lon="151.2900665">
  <ele>356.79</ele>
  <time>2026-09-01T19:52:38Z</time>
  <course>182.5</course>
  <speed>0.17</speed>
  <fix>3d</fix>
</trkpt>
<trkpt lat="-27.2744403" lon="151.2900667">
  <ele>357.33</ele>
  <time>2026-09-01T19:52:38Z</time>
  <course>7.2</course>
  <speed>0.2</speed>
  <fix>3d</fix>
</trkpt>
<trkpt lat="-27.2744399" lon="151.2900665">
  <ele>356.78</ele>
  <time>2026-09-01T19:52:38Z</time>
  <course>182.5</course>
  <speed>0.17</speed>
  <fix>3d</fix>
</trkpt>
<trkpt lat="-27.2744398" lon="151.2900665">
  <ele>356.64</ele>
  <time>2026-09-01T19:52:38Z</time>
  <course>182.51</course>
  <speed>0.16</speed>
  <fix>3d</fix>
</trkpt>
<trkpt lat="-27.27444" lon="151.2900668">
  <ele>357.03</ele>
  <time>2026-09-01T19:52:38Z</time>
  <course>7.92</course>
  <speed>0.18</speed>
  <fix>3d</fix>
</trkpt>
<trkpt lat="-27.2744398" lon="151.2900665">
  <ele>356.63</ele>
  <time>2026-09-01T19:52:38Z</time>
  <course>182.52</course>
  <speed>0.16</speed>
  <fix>3d</fix>
</trkpt>
<trkpt lat="-27.2744396" lon="151.2900665">
  <ele>356.48</ele>
  <time>2026-09-01T19:52:38Z</time>
  <course>182.55</course>
  <speed>0.16</speed>
  <fix>3d</fix>
</trkpt>
<trkpt lat="-27.27444" lon="151.2900668">
  <ele>357.03</ele>
  <time>2026-09-01T19:52:38Z</time>
  <course>7.92</course>
  <speed>0.18</speed>
  <fix>3d</fix>
</trkpt>
<trkpt lat="-27.2744396" lon="151.2900665">
  <ele>356.48</ele>
  <time>2026-09-01T19:52:38Z</time>
  <course>182.55</course>
  <speed>0.16</speed>
  <fix>3d</fix>
</trkpt>
<trkpt lat="-27.2744395" lon="151.2900666">
  <ele>356.33</ele>
  <time>2026-09-01T19:52:38Z</time>
  <course>182.59</course>
  <speed>0.15</speed>
  <fix>3d</fix>
</trkpt>
<trkpt lat="-27.2744397" lon="151.2900668">
  <ele>356.72</ele>
  <time>2026-09-01T19:52:38Z</time>
  <course>8.93</course>
  <speed>0.16</speed>
  <fix>3d</fix>
</trkpt>
<trkpt lat="-27.2744395" lon="151.2900666">
  <ele>356.32</ele>
  <time>2026-09-01T19:52:38Z</time>
  <course>182.6</course>
  <speed>0.15</speed>
  <fix>3d</fix>
</trkpt>
<trkpt lat="-27.2744393" lon="151.2900666">
  <ele>356.18</ele>
  <time>2026-09-01T19:52:38Z</time>
  <course>182.64</course>
  <speed>0.14</speed>
  <fix>3d</fix>
</trkpt>
<trkpt lat="-27.2744397" lon="151.2900668">
  <ele>356.72</ele>
  <time>2026-09-01T19:52:38Z</time>
  <course>8.93</course>
  <speed>0.16</speed>
  <fix>3d</fix>
</trkpt>
<trkpt lat="-27.2744393" lon="151.2900666">
  <ele>356.17</ele>
  <time>2026-09-01T19:52:38Z</time>
  <course>182.64</course>
  <speed>0.14</speed>
  <fix>3d</fix>
</trkpt>
<trkpt lat="-27.2744392" lon="151.2900666">
  <ele>356.03</ele>
  <time>2026-09-01T19:52:38Z</time>
  <course>182.68</course>
  <speed>0.13</speed>
  <fix>3d</fix>
</trkpt>
<trkpt lat="-27.2744394" lon="151.2900669">
  <ele>356.43</ele>
  <time>2026-09-01T19:52:38Z</time>
  <course>10.25</course>
  <speed>0.15</speed>
  <fix>3d</fix>
</trkpt>
<trkpt lat="-27.2744392" lon="151.2900666">
  <ele>356.02</ele>
  <time>2026-09-01T19:52:38Z</time>
  <course>182.68</course>
  <speed>0.13</speed>
  <fix>3d</fix>
</trkpt>
<trkpt lat="-27.2744391" lon="151.2900666">
  <ele>355.87</ele>
  <time>2026-09-01T19:52:38Z</time>
  <course>182.71</course>
  <speed>0.13</speed>
  <fix>3d</fix>
</trkpt>
<trkpt lat="-27.2744394" lon="151.2900669">
  <ele>356.43</ele>
  <time>2026-09-01T19:52:38Z</time>
  <course>10.25</course>
  <speed>0.15</speed>
  <fix>3d</fix>
</trkpt>
<trkpt lat="-27.2744391" lon="151.2900666">
  <ele>355.87</ele>
  <time>2026-09-01T19:52:38Z</time>
  <course>182.71</course>
  <speed>0.12</speed>
  <fix>3d</fix>
</trkpt>
<trkpt lat="-27.274439" lon="151.2900667">
  <ele>355.72</ele>
  <time>2026-09-01T19:52:38Z</time>
  <course>182.74</course>
  <speed>0.12</speed>
  <fix>3d</fix>
</trkpt>
<trkpt lat="-27.2744391" lon="151.2900669">
  <ele>356.13</ele>
  <time>2026-09-01T19:52:38Z</time>
  <course>11.77</course>
  <speed>0.13</speed>
  <fix>3d</fix>
</trkpt>
<trkpt lat="-27.274439" lon="151.2900667">
  <ele>355.72</ele>
  <time>2026-09-01T19:52:38Z</time>
  <course>182.74</course>
  <speed>0.12</speed>
  <fix>3d</fix>
</trkpt>
<trkpt lat="-27.2744389" lon="151.2900667">
  <ele>355.58</ele>
  <time>2026-09-01T19:52:38Z</time>
  <course>182.77</course>
  <speed>0.11</speed>
  <fix>3d</fix>
</trkpt>
<trkpt lat="-27.2744391" lon="151.2900669">
  <ele>356.13</ele>
  <time>2026-09-01T19:52:38Z</time>
  <course>11.77</course>
  <speed>0.13</speed>
  <fix>3d</fix>
</trkpt>
<trkpt lat="-27.2744389" lon="151.2900667">
  <ele>355.57</ele>
  <time>2026-09-01T19:52:38Z</time>
  <course>182.77</course>
  <speed>0.11</speed>
  <fix>3d</fix>
</trkpt>
<trkpt lat="-27.2744388" lon="151.2900667">
  <ele>355.43</ele>
  <time>2026-09-01T19:52:38Z</time>
  <course>182.79</course>
  <speed>0.1</speed>
  <fix>3d</fix>
</trkpt>
<trkpt lat="-27.274439" lon="151.290067">
  <ele>355.84</ele>
  <time>2026-09-01T19:52:38Z</time>
  <course>13.7</course>
  <speed>0.11</speed>
  <fix>3d</fix>
</trkpt>
<trkpt lat="-27.2744388" lon="151.2900667">
  <ele>355.43</ele>
  <time>2026-09-01T19:52:38Z</time>
  <course>182.79</course>
  <speed>0.1</speed>
  <fix>3d</fix>
</trkpt>
<trkpt lat="-27.2744387" lon="151.2900667">
  <ele>355.28</ele>
  <time>2026-09-01T19:52:38Z</time>
  <course>182.81</course>
  <speed>0.1</speed>
  <fix>3d</fix>
</trkpt>
<trkpt lat="-27.274439" lon="151.290067">
  <ele>355.84</ele>
  <time>2026-09-01T19:52:38Z</time>
  <course>13.7</course>
  <speed>0.11</speed>
  <fix>3d</fix>
</trkpt>
<trkpt lat="-27.2744387" lon="151.2900667">
  <ele>355.28</ele>
  <time>2026-09-01T19:52:38Z</time>
  <course>182.81</course>
  <speed>0.1</speed>
  <fix>3d</fix>
</trkpt>
<trkpt lat="-27.2744386" lon="151.2900668">
  <ele>355.14</ele>
  <time>2026-09-01T19:52:38Z</time>
  <course>182.82</course>
  <speed>0.09</speed>
  <fix>3d</fix>
</trkpt>
<trkpt lat="-27.2744388" lon="151.290067">
  <ele>355.54</ele>
  <time>2026-09-01T19:52:38Z</time>
  <course>16.16</course>
  <speed>0.1</speed>
  <fix>3d</fix>
</trkpt>
<trkpt lat="-27.2744386" lon="151.2900668">
  <ele>355.13</ele>
  <time>2026-09-01T19:52:38Z</time>
  <course>182.82</course>
  <speed>0.09</speed>
  <fix>3d</fix>
</trkpt>
<trkpt lat="-27.2744385" lon="151.2900668">
  <ele>354.99</ele>
  <time>2026-09-01T19:52:38Z</time>
  <course>182.83</course>
  <speed>0.08</speed>
  <fix>3d</fix>
</trkpt>
<trkpt lat="-27.2744388" lon="151.290067">
  <ele>355.54</ele>
  <time>2026-09-01T19:52:38Z</time>
  <course>16.16</course>
  <speed>0.1</speed>
  <fix>3d</fix>
</trkpt>
<trkpt lat="-27.2744385" lon="151.2900668">
  <ele>354.99</ele>
  <time>2026-09-01T19:52:38Z</time>
  <course>182.83</course>
  <speed>0.08</speed>
  <fix>3d</fix>
</trkpt>
<trkpt lat="-27.2744385" lon="151.2900668">
  <ele>354.85</ele>
  <time>2026-09-01T19:52:38Z</time>
  <course>182.85</course>
  <speed>0.07</speed>
  <fix>3d</fix>
</trkpt>
<trkpt lat="-27.2744386" lon="151.2900671">
  <ele>355.25</ele>
  <time>2026-09-01T19:52:38Z</time>
  <course>19.48</course>
  <speed>0.08</speed>
  <fix>3d</fix>
</trkpt>
<trkpt lat="-27.2744385" lon="151.2900668">
  <ele>354.84</ele>
  <time>2026-09-01T19:52:38Z</time>
  <course>182.85</course>
  <speed>0.07</speed>
  <fix>3d</fix>
</trkpt>
<trkpt lat="-27.2744384" lon="151.2900669">
  <ele>354.7</ele>
  <time>2026-09-01T19:52:38Z</time>
  <course>182.89</course>
  <speed>0.07</speed>
  <fix>3d</fix>
</trkpt>
<trkpt lat="-27.2744386" lon="151.2900671">
  <ele>355.25</ele>
  <time>2026-09-01T19:52:38Z</time>
  <course>19.48</course>
  <speed>0.08</speed>
  <fix>3d</fix>
</trkpt>
<trkpt lat="-27.2744384" lon="151.2900669">
  <ele>354.69</ele>
  <time>2026-09-01T19:52:38Z</time>
  <course>182.89</course>
  <speed>0.07</speed>
  <fix>3d</fix>
</trkpt>
<trkpt lat="-27.2744384" lon="151.2900669">
  <ele>354.55</ele>
  <time>2026-09-01T19:52:38Z</time>
  <course>182.93</course>
  <speed>0.06</speed>
  <fix>3d</fix>
</trkpt>
<trkpt lat="-27.2744385" lon="151.2900671">
  <ele>354.96</ele>
  <time>2026-09-01T19:52:38Z</time>
  <course>24.37</course>
  <speed>0.07</speed>
  <fix>3d</fix>
</trkpt>
<trkpt lat="-27.2744384" lon="151.2900669">
  <ele>354.55</ele>
  <time>2026-09-01T19:52:38Z</time>
  <course>182.93</course>
  <speed>0.06</speed>
  <fix>3d</fix>
</trkpt>
<trkpt lat="-27.2744383" lon="151.2900669">
  <ele>354.41</ele>
  <time>2026-09-01T19:52:38Z</time>
  <course>182.98</course>
  <speed>0.05</speed>
  <fix>3d</fix>
</trkpt>
<trkpt lat="-27.2744385" lon="151.2900671">
  <ele>354.96</ele>
  <time>2026-09-01T19:52:38Z</time>
  <course>24.37</course>
  <speed>0.07</speed>
  <fix>3d</fix>
</trkpt>
<trkpt lat="-27.2744383" lon="151.2900669">
  <ele>354.4</ele>
  <time>2026-09-01T19:52:38Z</time>
  <course>182.99</course>
  <speed>0.05</speed>
  <fix>3d</fix>
</trkpt>
<trkpt lat="-27.2744383" lon="151.290067">
  <ele>354.26</ele>
  <time>2026-09-01T19:52:38Z</time>
  <course>183.04</course>
  <speed>0.05</speed>
  <fix>3d</fix>
</trkpt>
<trkpt lat="-27.2744384" lon="151.2900672">
  <ele>354.67</ele>
  <time>2026-09-01T19:52:38Z</time>
  <course>31.15</course>
  <speed>0.06</speed>
  <fix>3d</fix>
</trkpt>
<trkpt lat="-27.2744383" lon="151.290067">
  <ele>354.26</ele>
  <time>2026-09-01T19:52:38Z</time>
  <course>183.04</course>
  <speed>0.05</speed>
  <fix>3d</fix>
</trkpt>
<trkpt lat="-27.2744382" lon="151.290067">
  <ele>354.12</ele>
  <time>2026-09-01T19:52:38Z</time>
  <course>183.09</course>
  <speed>0.04</speed>
  <fix>3d</fix>
</trkpt>
<trkpt lat="-27.2744384" lon="151.2900672">
  <ele>354.67</ele>
  <time>2026-09-01T19:52:38Z</time>
  <course>31.15</course>
  <speed>0.06</speed>
  <fix>3d</fix>
</trkpt>
<trkpt lat="-27.2744382" lon="151.290067">
  <ele>354.11</ele>
  <time>2026-09-01T19:52:38Z</time>
  <course>183.09</course>
  <speed>0.04</speed>
  <fix>3d</fix>
</trkpt>
<trkpt lat="-27.2744382" lon="151.290067">
  <ele>353.97</ele>
  <time>2026-09-01T19:52:38Z</time>
  <course>183.14</course>
  <speed>0.03</speed>
  <fix>3d</fix>
</trkpt>
<trkpt lat="-27.2744383" lon="151.2900673">
  <ele>354.38</ele>
  <time>2026-09-01T19:52:38Z</time>
  <course>40.42</course>
  <speed>0.04</speed>
  <fix>3d</fix>
</trkpt>
<trkpt lat="-27.2744382" lon="151.290067">
  <ele>353.97</ele>
  <time>2026-09-01T19:52:38Z</time>
  <course>183.14</course>
  <speed>0.03</speed>
  <fix>3d</fix>
</trkpt>
<trkpt lat="-27.2744382" lon="151.290067">
  <ele>353.83</ele>
  <time>2026-09-01T19:52:38Z</time>
  <course>183.18</course>
  <speed>0.03</speed>
  <fix>3d</fix>
</trkpt>
<trkpt lat="-27.2744383" lon="151.2900673">
  <ele>354.38</ele>
  <time>2026-09-01T19:52:38Z</time>
  <course>40.42</course>
  <speed>0.04</speed>
  <fix>3d</fix>
</trkpt>
<trkpt lat="-27.2744382" lon="151.2900671">
  <ele>353.82</ele>
  <time>2026-09-01T19:52:38Z</time>
  <course>183.18</course>
  <speed>0.03</speed>
  <fix>3d</fix>
</trkpt>
<trkpt lat="-27.2744382" lon="151.2900671">
  <ele>353.69</ele>
  <time>2026-09-01T19:52:38Z</time>
  <course>183.21</course>
  <speed>0.02</speed>
  <fix>3d</fix>
</trkpt>
<trkpt lat="-27.2744383" lon="151.2900674">
  <ele>354.09</ele>
  <time>2026-09-01T19:52:38Z</time>
  <course>52.87</course>
  <speed>0.04</speed>
  <fix>3d</fix>
</trkpt>
<trkpt lat="-27.2744382" lon="151.2900671">
  <ele>353.68</ele>
  <time>2026-09-01T19:52:38Z</time>
  <course>183.21</course>
  <speed>0.022360679774997897</speed>
  <fix>3d</fix>
</trkpt>
<trkpt lat="-27.2744382" lon="151.2900671">
  <ele>353.55</ele>
  <time>2026-09-01T19:52:38Z</time>
  <course>183.24</course>
  <speed>0.02</speed>
  <fix>3d</fix>
</trkpt>
<trkpt lat="-27.2744383" lon="151.2900674">
  <ele>354.09</ele>
  <time>2026-09-01T19:52:38Z</time>
  <course>52.87</course>
  <speed>0.04</speed>
  <fix>3d</fix>
</trkpt>
<trkpt lat="-27.2744382" lon="151.2900671">
  <ele>353.54</ele>
  <time>2026-09-01T19:52:38Z</time>
  <course>183.24</course>
  <speed>0.02</speed>
  <fix>3d</fix>
</trkpt>
<trkpt lat="-27.2744382" lon="151.2900672">
  <ele>353.41</ele>
  <time>2026-09-01T19:52:38Z</time>
  <course>183.27</course>
  <speed>0.01414213562373095</speed>
  <fix>3d</fix>
</trkpt>
<trkpt lat="-27.2744382" lon="151.2900674">
  <ele>353.81</ele>
  <time>2026-09-01T19:52:38Z</time>
  <course>68.05</course>
  <speed>0.03</speed>
  <fix>3d</fix>
</trkpt>
<trkpt lat="-27.2744382" lon="151.2900672">
  <ele>353.41</ele>
  <time>2026-09-01T19:52:38Z</time>
  <course>183.27</course>
  <speed>0.01414213562373095</speed>
  <fix>3d</fix>
</trkpt>
<trkpt lat="-27.2744381" lon="151.2900672">
  <ele>353.28</ele>
  <time>2026-09-01T19:52:38Z</time>
  <course>183.29</course>
  <speed>0.01</speed>
  <fix>3d</fix>
</trkpt>
<trkpt lat="-27.2744382" lon="151.2900674">
  <ele>353.81</ele>
  <time>2026-09-01T19:52:38Z</time>
  <course>68.05</course>
  <speed>0.03</speed>
  <fix>3d</fix>
</trkpt>
<trkpt lat="-27.2744381" lon="151.2900672">
  <ele>353.28</ele>
  <time>2026-09-01T19:52:38Z</time>
  <course>183.3</course>
  <speed>0.01</speed>
  <fix>3d</fix>
</trkpt>
<trkpt lat="-27.2744381" lon="151.2900672">
  <ele>353.15</ele>
  <time>2026-09-01T19:52:38Z</time>
  <course>183.29</course>
  <speed>0.01</speed>
  <fix>3d</fix>
</trkpt>
<trkpt lat="-27.2744382" lon="151.2900675">
  <ele>353.54</ele>
  <time>2026-09-01T19:52:38Z</time>
  <course>83.98</course>
  <speed>0.03</speed>
  <fix>3d</fix>
</trkpt>
<trkpt lat="-27.2744381" lon="151.2900672">
  <ele>353.14</ele>
  <time>2026-09-01T19:52:38Z</time>
  <course>183.29</course>
  <speed>0.01</speed>
  <fix>3d</fix>
</trkpt>
<trkpt lat="-27.2744381" lon="151.2900673">
  <ele>353.02</ele>
  <time>2026-09-01T19:52:38Z</time>
  <course>183.11</course>
  <speed>0.01414213562373095</speed>
  <fix>3d</fix>
</trkpt>
<trkpt lat="-27.2744382" lon="151.2900675">
  <ele>353.54</ele>
  <time>2026-09-01T19:52:38Z</time>
  <course>83.98</course>
  <speed>0.03</speed>
  <fix>3d</fix>
</trkpt>
<trkpt lat="-27.2744381" lon="151.2900673">
  <ele>353.02</ele>
  <time>2026-09-01T19:52:38Z</time>
  <course>183.1</course>
  <speed>0.01414213562373095</speed>
  <fix>3d</fix>
</trkpt>
<trkpt lat="-27.2744382" lon="151.2900673">
  <ele>352.9</ele>
  <time>2026-09-01T19:52:38Z</time>
  <course>182.78</course>
  <speed>0.02</speed>
  <fix>3d</fix>
</trkpt>
<trkpt lat="-27.2744382" lon="151.2900675">
  <ele>353.28</ele>
  <time>2026-09-01T19:52:38Z</time>
  <course>100.94</course>
  <speed>0.02</speed>
  <fix>3d</fix>
</trkpt>
<trkpt lat="-27.2744381" lon="151.2900673">
  <ele>352.89</ele>
  <time>2026-09-01T19:52:38Z</time>
  <course>182.77</course>
  <speed>0.02</speed>
  <fix>3d</fix>
</trkpt>
<trkpt lat="-27.2744382" lon="151.2900673">
  <ele>352.77</ele>
  <time>2026-09-01T19:52:38Z</time>
  <course>182.39</course>
  <speed>0.04</speed>
  <fix>3d</fix>
</trkpt>
<trkpt lat="-27.2744382" lon="151.2900675">
  <ele>353.28</ele>
  <time>2026-09-01T19:52:38Z</time>
  <course>100.94</course>
  <speed>0.02</speed>
  <fix>3d</fix>
</trkpt>
<trkpt lat="-27.2744382" lon="151.2900673">
  <ele>352.77</ele>
  <time>2026-09-01T19:52:38Z</time>
  <course>182.37</course>
  <speed>0.04</speed>
  <fix>3d</fix>
</trkpt>
<trkpt lat="-27.2744382" lon="151.2900673">
  <ele>352.65</ele>
  <time>2026-09-01T19:52:38Z</time>
  <course>182.0</course>
  <speed>0.05</speed>
  <fix>3d</fix>
</trkpt>
<trkpt lat="-27.2744382" lon="151.2900675">
  <ele>353.02</ele>
  <time>2026-09-01T19:52:38Z</time>
  <course>196.97</course>
  <speed>0.01</speed>
  <fix>3d</fix>
</trkpt>
<trkpt lat="-27.2744382" lon="151.2900673">
  <ele>352.65</ele>
  <time>2026-09-01T19:52:38Z</time>
  <course>181.99</course>
  <speed>0.05</speed>
  <fix>3d</fix>
</trkpt>
<trkpt lat="-27.2744382" lon="151.2900673">
  <ele>352.53</ele>
  <time>2026-09-01T19:52:38Z</time>
  <course>181.66</course>
  <speed>0.07</speed>
  <fix>3d</fix>
</trkpt>
<trkpt lat="-27.2744382" lon="151.2900675">
  <ele>353.02</ele>
  <time>2026-09-01T19:52:38Z</time>
  <course>196.97</course>
  <speed>0.01</speed>
  <fix>3d</fix>
</trkpt>
<trkpt lat="-27.2744382" lon="151.2900673">
  <ele>352.52</ele>
  <time>2026-09-01T19:52:38Z</time>
  <course>181.65</course>
  <speed>0.07</speed>
  <fix>3d</fix>
</trkpt>
<trkpt lat="-27.2744382" lon="151.2900672">
  <ele>352.41</ele>
  <time>2026-09-01T19:52:38Z</time>
  <course>181.42</course>
  <speed>0.08</speed>
  <fix>3d</fix>
</trkpt>
<trkpt lat="-27.2744382" lon="151.2900675">
  <ele>352.78</ele>
  <time>2026-09-01T19:52:38Z</time>
  <course>245.68</course>
  <speed>0.03</speed>
  <fix>3d</fix>
</trkpt>
<trkpt lat="-27.2744382" lon="151.2900672">
  <ele>352.41</ele>
  <time>2026-09-01T19:52:38Z</time>
  <course>181.41</course>
  <speed>0.08</speed>
  <fix>3d</fix>
</trkpt>
<trkpt lat="-27.2744382" lon="151.2900672">
  <ele>352.3</ele>
  <time>2026-09-01T19:52:38Z</time>
  <course>181.28</course>
  <speed>0.09</speed>
  <fix>3d</fix>
</trkpt>
<trkpt lat="-27.2744382" lon="151.2900675">
  <ele>352.78</ele>
  <time>2026-09-01T19:52:38Z</time>
  <course>245.68</course>
  <speed>0.03</speed>
  <fix>3d</fix>
</trkpt>
<trkpt lat="-27.2744382" lon="151.2900672">
  <ele>352.29</ele>
  <time>2026-09-01T19:52:38Z</time>
  <course>181.28</course>
  <speed>0.09</speed>
  <fix>3d</fix>
</trkpt>
<trkpt lat="-27.2744382" lon="151.2900671">
  <ele>352.19</ele>
  <time>2026-09-01T19:52:38Z</time>
  <course>181.22</course>
  <speed>0.1</speed>
  <fix>3d</fix>
</trkpt>
<trkpt lat="-27.2744382" lon="151.2900675">
  <ele>352.54</ele>
  <time>2026-09-01T19:52:38Z</time>
  <course>253.66</course>
  <speed>0.06</speed>
  <fix>3d</fix>
</trkpt>
<trkpt lat="-27.2744382" lon="151.2900671">
  <ele>352.19</ele>
  <time>2026-09-01T19:52:38Z</time>
  <course>181.22</course>
  <speed>0.1</speed>
  <fix>3d</fix>
</trkpt>
<trkpt lat="-27.2744382" lon="151.290067">
  <ele>352.08</ele>
  <time>2026-09-01T19:52:38Z</time>
  <course>181.23</course>
  <speed>0.11</speed>
  <fix>3d</fix>
</trkpt>
<trkpt lat="-27.2744382" lon="151.2900675">
  <ele>352.54</ele>
  <time>2026-09-01T19:52:38Z</time>
  <course>253.66</course>
  <speed>0.06</speed>
  <fix>3d</fix>
</trkpt>
<trkpt lat="-27.2744382" lon="151.290067">
  <ele>352.08</ele>
  <time>2026-09-01T19:52:38Z</time>
  <course>181.23</course>
  <speed>0.11</speed>
  <fix>3d</fix>
</trkpt>
<trkpt lat="-27.2744382" lon="151.2900669">
  <ele>351.97</ele>
  <time>2026-09-01T19:52:38Z</time>
  <course>181.27</course>
  <speed>0.12</speed>
  <fix>3d</fix>
</trkpt>
<trkpt lat="-27.2744382" lon="151.2900674">
  <ele>352.32</ele>
  <time>2026-09-01T19:52:38Z</time>
  <course>257.25</course>
  <speed>0.08</speed>
  <fix>3d</fix>
</trkpt>
<trkpt lat="-27.2744382" lon="151.2900669">
  <ele>351.97</ele>
  <time>2026-09-01T19:52:38Z</time>
  <course>181.27</course>
  <speed>0.12</speed>
  <fix>3d</fix>
</trkpt>
<trkpt lat="-27.2744382" lon="151.2900668">
  <ele>351.87</ele>
  <time>2026-09-01T19:52:38Z</time>
  <course>181.33</course>
  <speed>0.13</speed>
  <fix>3d</fix>
</trkpt>
<trkpt lat="-27.2744382" lon="151.2900674">
  <ele>352.32</ele>
  <time>2026-09-01T19:52:38Z</time>
  <course>257.25</course>
  <speed>0.08</speed>
  <fix>3d</fix>
</trkpt>
<trkpt lat="-27.2744382" lon="151.2900668">
  <ele>351.87</ele>
  <time>2026-09-01T19:52:38Z</time>
  <course>181.33</course>
  <speed>0.13</speed>
  <fix>3d</fix>
</trkpt>
<trkpt lat="-27.2744382" lon="151.2900667">
  <ele>351.77</ele>
  <time>2026-09-01T19:52:38Z</time>
  <course>181.38</course>
  <speed>0.14</speed>
  <fix>3d</fix>
</trkpt>
<trkpt lat="-27.2744382" lon="151.2900672">
  <ele>352.1</ele>
  <time>2026-09-01T19:52:38Z</time>
  <course>259.26</course>
  <speed>0.1</speed>
  <fix>3d</fix>
</trkpt>
<trkpt lat="-27.2744382" lon="151.2900667">
  <ele>351.76</ele>
  <time>2026-09-01T19:52:38Z</time>
  <course>181.38</course>
  <speed>0.14</speed>
  <fix>3d</fix>
</trkpt>
<trkpt lat="-27.2744382" lon="151.2900666">
  <ele>351.66</ele>
  <time>2026-09-01T19:52:38Z</time>
  <course>181.42</course>
  <speed>0.15</speed>
  <fix>3d</fix>
</trkpt>
<trkpt lat="-27.2744382" lon="151.2900672">
  <ele>352.1</ele>
  <time>2026-09-01T19:52:38Z</time>
  <course>259.26</course>
  <speed>0.1</speed>
  <fix>3d</fix>
</trkpt>
<trkpt lat="-27.2744382" lon="151.2900666">
  <ele>351.66</ele>
  <time>2026-09-01T19:52:38Z</time>
  <course>181.42</course>
  <speed>0.15</speed>
  <fix>3d</fix>
</trkpt>
<trkpt lat="-27.2744382" lon="151.2900665">
  <ele>351.56</ele>
  <time>2026-09-01T19:52:38Z</time>
  <course>181.43</course>
  <speed>0.16</speed>
  <fix>3d</fix>
</trkpt>
<trkpt lat="-27.2744383" lon="151.290067">
  <ele>351.9</ele>
  <time>2026-09-01T19:52:38Z</time>
  <course>260.35</course>
  <speed>0.12</speed>
  <fix>3d</fix>
</trkpt>
<trkpt lat="-27.2744382" lon="151.2900664">
  <ele>351.56</ele>
  <time>2026-09-01T19:52:38Z</time>
  <course>181.43</course>
  <speed>0.16</speed>
  <fix>3d</fix>
</trkpt>
<trkpt lat="-27.2744382" lon="151.2900663">
  <ele>351.47</ele>
  <time>2026-09-01T19:52:38Z</time>
  <course>181.42</course>
  <speed>0.16</speed>
  <fix>3d</fix>
</trkpt>
<trkpt lat="-27.2744383" lon="151.290067">
  <ele>351.9</ele>
  <time>2026-09-01T19:52:38Z</time>
  <course>260.35</course>
  <speed>0.12</speed>
  <fix>3d</fix>
</trkpt>
<trkpt lat="-27.2744382" lon="151.2900663">
  <ele>351.46</ele>
  <time>2026-09-01T19:52:38Z</time>
  <course>181.42</course>
  <speed>0.16</speed>
  <fix>3d</fix>
</trkpt>
<trkpt lat="-27.2744382" lon="151.2900662">
  <ele>351.37</ele>
  <time>2026-09-01T19:52:38Z</time>
  <course>181.39</course>
  <speed>0.17</speed>
  <fix>3d</fix>
</trkpt>
<trkpt lat="-27.2744383" lon="151.2900667">
  <ele>351.7</ele>
  <time>2026-09-01T19:52:38Z</time>
  <course>260.92</course>
  <speed>0.14</speed>
  <fix>3d</fix>
</trkpt>
<trkpt lat="-27.2744382" lon="151.2900662">
  <ele>351.37</ele>
  <time>2026-09-01T19:52:38Z</time>
  <course>181.39</course>
  <speed>0.17</speed>
  <fix>3d</fix>
</trkpt>
<trkpt lat="-27.2744382" lon="151.290066">
  <ele>351.27</ele>
  <time>2026-09-01T19:52:38Z</time>
  <course>181.34</course>
  <speed>0.17</speed>
  <fix>3d</fix>
</trkpt>
<trkpt lat="-27.2744383" lon="151.2900667">
  <ele>351.7</ele>
  <time>2026-09-01T19:52:38Z</time>
  <course>260.92</course>
  <speed>0.14</speed>
  <fix>3d</fix>
</trkpt>
<trkpt lat="-27.2744382" lon="151.290066">
  <ele>351.27</ele>
  <time>2026-09-01T19:52:38Z</time>
  <course>181.34</course>
  <speed>0.17</speed>
  <fix>3d</fix>
</trkpt>
<trkpt lat="-27.2744382" lon="151.2900659">
  <ele>351.18</ele>
  <time>2026-09-01T19:52:38Z</time>
  <course>181.28</course>
  <speed>0.18</speed>
  <fix>3d</fix>
</trkpt>
<trkpt lat="-27.2744384" lon="151.2900664">
  <ele>351.5</ele>
  <time>2026-09-01T19:52:38Z</time>
  <course>261.26</course>
  <speed>0.15</speed>
  <fix>3d</fix>
</trkpt>
<trkpt lat="-27.2744382" lon="151.2900659">
  <ele>351.16</ele>
  <time>2026-09-01T19:52:38Z</time>
  <course>181.27</course>
  <speed>0.18</speed>
  <fix>3d</fix>
</trkpt>
<trkpt lat="-27.2744382" lon="151.2900657">
  <ele>351.09</ele>
  <time>2026-09-01T19:52:38Z</time>
  <course>181.22</course>
  <speed>0.18</speed>
  <fix>3d</fix>
</trkpt>
<trkpt lat="-27.2744384" lon="151.2900664">
  <ele>351.5</ele>
  <time>2026-09-01T19:52:38Z</time>
  <course>261.26</course>
  <speed>0.15</speed>
  <fix>3d</fix>
</trkpt>
<trkpt lat="-27.2744382" lon="151.2900657">
  <ele>351.06</ele>
  <time>2026-09-01T19:52:38Z</time>
  <course>181.21</course>
  <speed>0.18</speed>
  <fix>3d</fix>
</trkpt>
<trkpt lat="-27.2744382" lon="151.2900656">
  <ele>351.0</ele>
  <time>2026-09-01T19:52:38Z</time>
  <course>181.17</course>
  <speed>0.18</speed>
  <fix>3d</fix>
</trkpt>
<trkpt lat="-27.2744384" lon="151.2900661">
  <ele>351.32</ele>
  <time>2026-09-01T19:52:38Z</time>
  <course>261.51</course>
  <speed>0.16</speed>
  <fix>3d</fix>
</trkpt>
<trkpt lat="-27.2744382" lon="151.2900655">
  <ele>350.98</ele>
  <time>2026-09-01T19:52:38Z</time>
  <course>181.15</course>
  <speed>0.18</speed>
  <fix>3d</fix>
</trkpt>
<trkpt lat="-27.2744383" lon="151.2900654">
  <ele>350.91</ele>
  <time>2026-09-01T19:52:38Z</time>
  <course>181.12</course>
  <speed>0.18</speed>
  <fix>3d</fix>
</trkpt>
<trkpt lat="-27.2744384" lon="151.2900661">
  <ele>351.32</ele>
  <time>2026-09-01T19:52:38Z</time>
  <course>261.51</course>
  <speed>0.16</speed>
  <fix>3d</fix>
</trkpt>
<trkpt lat="-27.2744383" lon="151.2900652">
  <ele>350.83</ele>
  <time>2026-09-01T19:52:38Z</time>
  <course>181.08</course>
  <speed>0.18</speed>
  <fix>3d</fix>
</trkpt>
<trkpt lat="-27.2744384" lon="151.2900657">
  <ele>351.14</ele>
  <time>2026-09-01T19:52:38Z</time>
  <course>261.62</course>
  <speed>0.17</speed>
  <fix>3d</fix>
</trkpt>
<trkpt lat="-27.2744383" lon="151.2900652">
  <ele>350.83</ele>
  <time>2026-09-01T19:52:38Z</time>
  <course>181.07</course>
  <speed>0.18</speed>
  <fix>3d</fix>
</trkpt>
<trkpt lat="-27.2744383" lon="151.2900651">
  <ele>350.75</ele>
  <time>2026-09-01T19:52:38Z</time>
  <course>181.05</course>
  <speed>0.18</speed>
  <fix>3d</fix>
</trkpt>
<trkpt lat="-27.2744384" lon="151.2900657">
  <ele>351.14</ele>
  <time>2026-09-01T19:52:38Z</time>
  <course>261.62</course>
  <speed>0.17</speed>
  <fix>3d</fix>
</trkpt>
<trkpt lat="-27.2744383" lon="151.290065">
  <ele>350.72</ele>
  <time>2026-09-01T19:52:38Z</time>
  <course>181.04</course>
  <speed>0.18</speed>
  <fix>3d</fix>
</trkpt>
<trkpt lat="-27.2744383" lon="151.2900649">
  <ele>350.66</ele>
  <time>2026-09-01T19:52:38Z</time>
  <course>181.03</course>
  <speed>0.18</speed>
  <fix>3d</fix>
</trkpt>
<trkpt lat="-27.2744385" lon="151.2900654">
  <ele>350.96</ele>
  <time>2026-09-01T19:52:38Z</time>
  <course>261.57</course>
  <speed>0.17</speed>
  <fix>3d</fix>
</trkpt>
<trkpt lat="-27.2744383" lon="151.2900647">
  <ele>350.58</ele>
  <time>2026-09-01T19:52:38Z</time>
  <course>181.02</course>
  <speed>0.18</speed>
  <fix>3d</fix>
</trkpt>
<trkpt lat="-27.2744385" lon="151.2900654">
  <ele>350.96</ele>
  <time>2026-09-01T19:52:38Z</time>
  <course>261.57</course>
  <speed>0.17</speed>
  <fix>3d</fix>
</trkpt>
<trkpt lat="-27.2744383" lon="151.2900647">
  <ele>350.58</ele>
  <time>2026-09-01T19:52:38Z</time>
  <course>181.02</course>
  <speed>0.18</speed>
  <fix>3d</fix>
</trkpt>
<trkpt lat="-27.2744384" lon="151.2900646">
  <ele>350.5</ele>
  <time>2026-09-01T19:52:38Z</time>
  <course>181.01</course>
  <speed>0.17</speed>
  <fix>3d</fix>
</trkpt>
<trkpt lat="-27.2744385" lon="151.2900651">
  <ele>350.79</ele>
  <time>2026-09-01T19:52:38Z</time>
  <course>261.29</course>
  <speed>0.17</speed>
  <fix>3d</fix>
</trkpt>
<trkpt lat="-27.2744384" lon="151.2900645">
  <ele>350.47</ele>
  <time>2026-09-01T19:52:38Z</time>
  <course>181.0</course>
  <speed>0.17</speed>
  <fix>3d</fix>
</trkpt>
<trkpt lat="-27.2744384" lon="151.2900644">
  <ele>350.42</ele>
  <time>2026-09-01T19:52:38Z</time>
  <course>180.99</course>
  <speed>0.17</speed>
  <fix>3d</fix>
</trkpt>
<trkpt lat="-27.2744385" lon="151.2900651">
  <ele>350.79</ele>
  <time>2026-09-01T19:52:38Z</time>
  <course>261.29</course>
  <speed>0.17</speed>
  <fix>3d</fix>
</trkpt>
<trkpt lat="-27.2744384" lon="151.2900643">
  <ele>350.37</ele>
  <time>2026-09-01T19:52:38Z</time>
  <course>180.99</course>
  <speed>0.17</speed>
  <fix>3d</fix>
</trkpt>
<trkpt lat="-27.2744384" lon="151.2900643">
  <ele>350.34</ele>
  <time>2026-09-01T19:52:38Z</time>
  <course>180.98</course>
  <speed>0.16</speed>
  <fix>3d</fix>
</trkpt>
<trkpt lat="-27.2744386" lon="151.2900647">
  <ele>350.63</ele>
  <time>2026-09-01T19:52:38Z</time>
  <course>260.73</course>
  <speed>0.16</speed>
  <fix>3d</fix>
</trkpt>
<trkpt lat="-27.2744384" lon="151.2900642">
  <ele>350.32</ele>
  <time>2026-09-01T19:52:38Z</time>
  <course>180.97</course>
  <speed>0.16</speed>
  <fix>3d</fix>
</trkpt>
<trkpt lat="-27.2744384" lon="151.2900641">
  <ele>350.27</ele>
  <time>2026-09-01T19:52:38Z</time>
  <course>180.96</course>
  <speed>0.16</speed>
  <fix>3d</fix>
</trkpt>
<trkpt lat="-27.2744386" lon="151.2900647">
  <ele>350.63</ele>
  <time>2026-09-01T19:52:38Z</time>
  <course>260.73</course>
  <speed>0.16</speed>
  <fix>3d</fix>
</trkpt>
<trkpt lat="-27.2744384" lon="151.290064">
  <ele>350.19</ele>
  <time>2026-09-01T19:52:38Z</time>
  <course>180.95</course>
  <speed>0.15</speed>
  <fix>3d</fix>
</trkpt>
<trkpt lat="-27.2744386" lon="151.2900644">
  <ele>350.47</ele>
  <time>2026-09-01T19:52:38Z</time>
  <course>259.96</course>
  <speed>0.15</speed>
  <fix>3d</fix>
</trkpt>
<trkpt lat="-27.2744385" lon="151.290064">
  <ele>350.19</ele>
  <time>2026-09-01T19:52:38Z</time>
  <course>180.95</course>
  <speed>0.15</speed>
  <fix>3d</fix>
</trkpt>
<trkpt lat="-27.2744385" lon="151.2900638">
  <ele>350.12</ele>
  <time>2026-09-01T19:52:38Z</time>
  <course>180.93</course>
  <speed>0.15</speed>
  <fix>3d</fix>
</trkpt>
<trkpt lat="-27.2744386" lon="151.2900644">
  <ele>350.47</ele>
  <time>2026-09-01T19:52:38Z</time>
  <course>259.96</course>
  <speed>0.15</speed>
  <fix>3d</fix>
</trkpt>
<trkpt lat="-27.2744385" lon="151.2900638">
  <ele>350.11</ele>
  <time>2026-09-01T19:52:38Z</time>
  <course>180.93</course>
  <speed>0.15</speed>
  <fix>3d</fix>
</trkpt>
<trkpt lat="-27.2744385" lon="151.2900637">
  <ele>350.04</ele>
  <time>2026-09-01T19:52:38Z</time>
  <course>180.91</course>
  <speed>0.14</speed>
  <fix>3d</fix>
</trkpt>
<trkpt lat="-27.2744387" lon="151.2900641">
  <ele>350.32</ele>
  <time>2026-09-01T19:52:38Z</time>
  <course>259.18</course>
  <speed>0.14</speed>
  <fix>3d</fix>
</trkpt>
<trkpt lat="-27.2744385" lon="151.2900637">
  <ele>350.04</ele>
  <time>2026-09-01T19:52:38Z</time>
  <course>180.9</course>
  <speed>0.14</speed>
  <fix>3d</fix>
</trkpt>
<trkpt lat="-27.2744385" lon="151.2900636">
  <ele>349.97</ele>
  <time>2026-09-01T19:52:38Z</time>
  <course>180.88</course>
  <speed>0.13</speed>
  <fix>3d</fix>
</trkpt>
<trkpt lat="-27.2744387" lon="151.2900641">
  <ele>350.32</ele>
  <time>2026-09-01T19:52:38Z</time>
  <course>259.18</course>
  <speed>0.14</speed>
  <fix>3d</fix>
</trkpt>
<trkpt lat="-27.2744385" lon="151.2900635">
  <ele>349.95</ele>
  <time>2026-09-01T19:52:38Z</time>
  <course>180.88</course>
  <speed>0.13</speed>
  <fix>3d</fix>
</trkpt>
<trkpt lat="-27.2744385" lon="151.2900635">
  <ele>349.9</ele>
  <time>2026-09-01T19:52:38Z</time>
  <course>180.86</course>
  <speed>0.12</speed>
  <fix>3d</fix>
</trkpt>
<trkpt lat="-27.2744387" lon="151.2900638">
  <ele>350.17</ele>
  <time>2026-09-01T19:52:38Z</time>
  <course>258.39</course>
  <speed>0.13</speed>
  <fix>3d</fix>
</trkpt>
<trkpt lat="-27.2744386" lon="151.2900634">
  <ele>349.87</ele>
  <time>2026-09-01T19:52:38Z</time>
  <course>180.85</course>
  <speed>0.12</speed>
  <fix>3d</fix>
</trkpt>
<trkpt lat="-27.2744386" lon="151.2900633">
  <ele>349.83</ele>
  <time>2026-09-01T19:52:38Z</time>
  <course>180.84</course>
  <speed>0.12</speed>
  <fix>3d</fix>
</trkpt>
<trkpt lat="-27.2744387" lon="151.2900638">
  <ele>350.17</ele>
  <time>2026-09-01T19:52:38Z</time>
  <course>258.39</course>
  <speed>0.13</speed>
  <fix>3d</fix>
</trkpt>
<trkpt lat="-27.2744386" lon="151.2900633">
  <ele>349.82</ele>
  <time>2026-09-01T19:52:38Z</time>
  <course>180.83</course>
  <speed>0.11</speed>
  <fix>3d</fix>
</trkpt>
<trkpt lat="-27.2744386" lon="151.2900632">
  <ele>349.76</ele>
  <time>2026-09-01T19:52:38Z</time>
  <course>180.81</course>
  <speed>0.11</speed>
  <fix>3d</fix>
</trkpt>
<trkpt lat="-27.2744388" lon="151.2900636">
  <ele>350.03</ele>
  <time>2026-09-01T19:52:38Z</time>
  <course>257.3</course>
  <speed>0.12</speed>
  <fix>3d</fix>
</trkpt>
<trkpt lat="-27.2744386" lon="151.2900632">
  <ele>349.76</ele>
  <time>2026-09-01T19:52:38Z</time>
  <course>180.81</course>
  <speed>0.11</speed>
  <fix>3d</fix>
</trkpt>
<trkpt lat="-27.2744386" lon="151.2900632">
  <ele>349.69</ele>
  <time>2026-09-01T19:52:38Z</time>
  <course>180.79</course>
  <speed>0.1</speed>
  <fix>3d</fix>
</trkpt>
<trkpt lat="-27.2744388" lon="151.2900636">
  <ele>350.03</ele>
  <time>2026-09-01T19:52:38Z</time>
  <course>257.3</course>
  <speed>0.12</speed>
  <fix>3d</fix>
</trkpt>
<trkpt lat="-27.2744386" lon="151.2900632">
  <ele>349.69</ele>
  <time>2026-09-01T19:52:38Z</time>
  <course>180.79</course>
  <speed>0.1</speed>
  <fix>3d</fix>
</trkpt>
<trkpt lat="-27.2744386" lon="151.2900631">
  <ele>349.63</ele>
  <time>2026-09-01T19:52:38Z</time>
  <course>180.77</course>
  <speed>0.09</speed>
  <fix>3d</fix>
</trkpt>
<trkpt lat="-27.2744388" lon="151.2900634">
  <ele>349.89</ele>
  <time>2026-09-01T19:52:38Z</time>
  <course>255.8</course>
  <speed>0.1</speed>
  <fix>3d</fix>
</trkpt>
<trkpt lat="-27.2744386" lon="151.2900631">
  <ele>349.63</ele>
  <time>2026-09-01T19:52:38Z</time>
  <course>180.77</course>
  <speed>0.09</speed>
  <fix>3d</fix>
</trkpt>
<trkpt lat="-27.2744387" lon="151.290063">
  <ele>349.57</ele>
  <time>2026-09-01T19:52:38Z</time>
  <course>180.76</course>
  <speed>0.08</speed>
  <fix>3d</fix>
</trkpt>
<trkpt lat="-27.2744388" lon="151.2900634">
  <ele>349.89</ele>
  <time>2026-09-01T19:52:38Z</time>
  <course>255.8</course>
  <speed>0.1</speed>
  <fix>3d</fix>
</trkpt>
<trkpt lat="-27.2744387" lon="151.290063">
  <ele>349.56</ele>
  <time>2026-09-01T19:52:38Z</time>
  <course>180.76</course>
  <speed>0.08</speed>
  <fix>3d</fix>
</trkpt>
<trkpt lat="-27.2744387" lon="151.2900629">
  <ele>349.5</ele>
  <time>2026-09-01T19:52:38Z</time>
  <course>180.75</course>
  <speed>0.07</speed>
  <fix>3d</fix>
</trkpt>
<trkpt lat="-27.2744389" lon="151.2900632">
  <ele>349.76</ele>
  <time>2026-09-01T19:52:38Z</time>
  <course>253.55</course>
  <speed>0.08</speed>
  <fix>3d</fix>
</trkpt>
<trkpt lat="-27.2744387" lon="151.2900629">
  <ele>349.5</ele>
  <time>2026-09-01T19:52:38Z</time>
  <course>180.75</course>
  <speed>0.07</speed>
  <fix>3d</fix>
</trkpt>
<trkpt lat="-27.2744387" lon="151.2900629">
  <ele>349.44</ele>
  <time>2026-09-01T19:52:38Z</time>
  <course>180.73</course>
  <speed>0.06</speed>
  <fix>3d</fix>
</trkpt>
<trkpt lat="-27.2744389" lon="151.2900632">
  <ele>349.76</ele>
  <time>2026-09-01T19:52:38Z</time>
  <course>253.55</course>
  <speed>0.08</speed>
  <fix>3d</fix>
</trkpt>
<trkpt lat="-27.2744387" lon="151.2900629">
  <ele>349.44</ele>
  <time>2026-09-01T19:52:38Z</time>
  <course>180.73</course>
  <speed>0.06</speed>
  <fix>3d</fix>
</trkpt>
<trkpt lat="-27.2744387" lon="151.2900628">
  <ele>349.38</ele>
  <time>2026-09-01T19:52:38Z</time>
  <course>180.71</course>
  <speed>0.05</speed>
  <fix>3d</fix>
</trkpt>
<trkpt lat="-27.2744389" lon="151.290063">
  <ele>349.63</ele>
  <time>2026-09-01T19:52:38Z</time>
  <course>249.89</course>
  <speed>0.06</speed>
  <fix>3d</fix>
</trkpt>
<trkpt lat="-27.2744387" lon="151.2900628">
  <ele>349.38</ele>
  <time>2026-09-01T19:52:38Z</time>
  <course>180.71</course>
  <speed>0.05</speed>
  <fix>3d</fix>
</trkpt>
<trkpt lat="-27.2744388" lon="151.2900628">
  <ele>349.32</ele>
  <time>2026-09-01T19:52:38Z</time>
  <course>180.68</course>
  <speed>0.04</speed>
  <fix>3d</fix>
</trkpt>
<trkpt lat="-27.2744389" lon="151.290063">
  <ele>349.63</ele>
  <time>2026-09-01T19:52:38Z</time>
  <course>249.89</course>
  <speed>0.06</speed>
  <fix>3d</fix>
</trkpt>
<trkpt lat="-27.2744388" lon="151.2900628">
  <ele>349.32</ele>
  <time>2026-09-01T19:52:38Z</time>
  <course>180.68</course>
  <speed>0.04</speed>
  <fix>3d</fix>
</trkpt>
<trkpt lat="-27.2744388" lon="151.2900628">
  <ele>349.26</ele>
  <time>2026-09-01T19:52:38Z</time>
  <course>180.66</course>
  <speed>0.03</speed>
  <fix>3d</fix>
</trkpt>
<trkpt lat="-27.274439" lon="151.2900629">
  <ele>349.51</ele>
  <time>2026-09-01T19:52:38Z</time>
  <course>244.17</course>
  <speed>0.05</speed>
  <fix>3d</fix>
</trkpt>
<trkpt lat="-27.2744388" lon="151.2900628">
  <ele>349.26</ele>
  <time>2026-09-01T19:52:38Z</time>
  <course>180.66</course>
  <speed>0.03</speed>
  <fix>3d</fix>
</trkpt>
<trkpt lat="-27.2744388" lon="151.2900627">
  <ele>349.21</ele>
  <time>2026-09-01T19:52:38Z</time>
  <course>180.64</course>
  <speed>0.02</speed>
  <fix>3d</fix>
</trkpt>
<trkpt lat="-27.274439" lon="151.2900629">
  <ele>349.51</ele>
  <time>2026-09-01T19:52:38Z</time>
  <course>244.17</course>
  <speed>0.05</speed>
  <fix>3d</fix>
</trkpt>
<trkpt lat="-27.2744388" lon="151.2900627">
  <ele>349.2</ele>
  <time>2026-09-01T19:52:38Z</time>
  <course>180.64</course>
  <speed>0.02</speed>
  <fix>3d</fix>
</trkpt>
<trkpt lat="-27.2744388" lon="151.2900627">
  <ele>349.15</ele>
  <time>2026-09-01T19:52:38Z</time>
  <course>180.61</course>
  <speed>0.02</speed>
  <fix>3d</fix>
</trkpt>
<trkpt lat="-27.274439" lon="151.2900628">
  <ele>349.39</ele>
  <time>2026-09-01T19:52:38Z</time>
  <course>234.64</course>
  <speed>0.03</speed>
  <fix>3d</fix>
</trkpt>
<trkpt lat="-27.2744388" lon="151.2900627">
  <ele>349.15</ele>
  <time>2026-09-01T19:52:38Z</time>
  <course>180.61</course>
  <speed>0.02</speed>
  <fix>3d</fix>
</trkpt>
<trkpt lat="-27.2744389" lon="151.2900627">
  <ele>349.09</ele>
  <time>2026-09-01T19:52:38Z</time>
  <course>180.57</course>
  <speed>0.01</speed>
  <fix>3d</fix>
</trkpt>
<trkpt lat="-27.274439" lon="151.2900628">
  <ele>349.39</ele>
  <time>2026-09-01T19:52:38Z</time>
  <course>234.64</course>
  <speed>0.03</speed>
  <fix>3d</fix>
</trkpt>
<trkpt lat="-27.2744389" lon="151.2900627">
  <ele>349.09</ele>
  <time>2026-09-01T19:52:38Z</time>
  <course>180.57</course>
  <speed>0.01</speed>
  <fix>3d</fix>
</trkpt>
<trkpt lat="-27.2744389" lon="151.2900627">
  <ele>349.04</ele>
  <time>2026-09-01T19:52:38Z</time>
  <course>180.53</course>
  <speed>0.0</speed>
  <fix>3d</fix>
</trkpt>
<trkpt lat="-27.274439" lon="151.2900627">
  <ele>349.28</ele>
  <time>2026-09-01T19:52:38Z</time>
  <course>216.76</course>
  <speed>0.02</speed>
  <fix>3d</fix>
</trkpt>
<trkpt lat="-27.2744389" lon="151.2900627">
  <ele>349.04</ele>
  <time>2026-09-01T19:52:38Z</time>
  <course>180.53</course>
  <speed>0.0</speed>
  <fix>3d</fix>
</trkpt>
<trkpt lat="-27.2744389" lon="151.2900627">
  <ele>348.99</ele>
  <time>2026-09-01T19:52:38Z</time>
  <course>180.49</course>
  <speed>0.0</speed>
  <fix>3d</fix>
</trkpt>
<trkpt lat="-27.274439" lon="151.2900627">
  <ele>349.28</ele>
  <time>2026-09-01T19:52:38Z</time>
  <course>216.76</course>
  <speed>0.02</speed>
  <fix>3d</fix>
</trkpt>
<trkpt lat="-27.2744389" lon="151.2900627">
  <ele>348.99</ele>
  <time>2026-09-01T19:52:38Z</time>
  <course>180.48</course>
  <speed>0.0</speed>
  <fix>3d</fix>
</trkpt>
<trkpt lat="-27.2744389" lon="151.2900627">
  <ele>348.94</ele>
  <time>2026-09-01T19:52:38Z</time>
  <course>180.43</course>
  <speed>0.0</speed>
  <fix>3d</fix>
</trkpt>
<trkpt lat="-27.2744391" lon="151.2900627">
  <ele>349.17</ele>
  <time>2026-09-01T19:52:38Z</time>
  <course>182.34</course>
  <speed>0.01</speed>
  <fix>3d</fix>
</trkpt>
<trkpt lat="-27.2744389" lon="151.2900627">
  <ele>348.94</ele>
  <time>2026-09-01T19:52:38Z</time>
  <course>180.43</course>
  <speed>0.0</speed>
  <fix>3d</fix>
</trkpt>
<trkpt lat="-27.2744389" lon="151.2900627">
  <ele>348.89</ele>
  <time>2026-09-01T19:52:38Z</time>
  <course>180.37</course>
  <speed>0.0</speed>
  <fix>3d</fix>
</trkpt>
<trkpt lat="-27.2744391" lon="151.2900627">
  <ele>349.17</ele>
  <time>2026-09-01T19:52:38Z</time>
  <course>182.34</course>
  <speed>0.01</speed>
  <fix>3d</fix>
</trkpt>
<trkpt lat="-27.2744389" lon="151.2900627">
  <ele>348.88</ele>
  <time>2026-09-01T19:52:38Z</time>
  <course>180.37</course>
  <speed>0.0</speed>
  <fix>3d</fix>
</trkpt>
<trkpt lat="-27.2744389" lon="151.2900627">
  <ele>348.84</ele>
  <time>2026-09-01T19:52:38Z</time>
  <course>180.31</course>
  <speed>0.01</speed>
  <fix>3d</fix>
</trkpt>
<trkpt lat="-27.2744391" lon="151.2900627">
  <ele>349.07</ele>
  <time>2026-09-01T19:52:38Z</time>
  <course>139.36</course>
  <speed>0.01</speed>
  <fix>3d</fix>
</trkpt>
<trkpt lat="-27.2744389" lon="151.2900627">
  <ele>348.83</ele>
  <time>2026-09-01T19:52:38Z</time>
  <course>180.3</course>
  <speed>0.01</speed>
  <fix>3d</fix>
</trkpt>
<trkpt lat="-27.2744389" lon="151.2900628">
  <ele>348.79</ele>
  <time>2026-09-01T19:52:38Z</time>
  <course>180.25</course>
  <speed>0.01</speed>
  <fix>3d</fix>
</trkpt>
<trkpt lat="-27.2744391" lon="151.2900627">
  <ele>349.07</ele>
  <time>2026-09-01T19:52:38Z</time>
  <course>139.36</course>
  <speed>0.01</speed>
  <fix>3d</fix>
</trkpt>
<trkpt lat="-27.274439" lon="151.2900628">
  <ele>348.78</ele>
  <time>2026-09-01T19:52:38Z</time>
  <course>180.25</course>
  <speed>0.01</speed>
  <fix>3d</fix>
</trkpt>
<trkpt lat="-27.274439" lon="151.2900627">
  <ele>348.74</ele>
  <time>2026-09-01T19:52:38Z</time>
  <course>180.22</course>
  <speed>0.02</speed>
  <fix>3d</fix>
</trkpt>
<trkpt lat="-27.2744391" lon="151.2900627">
  <ele>348.96</ele>
  <time>2026-09-01T19:52:38Z</time>
  <course>114.58</course>
  <speed>0.02</speed>
  <fix>3d</fix>
</trkpt>
<trkpt lat="-27.274439" lon="151.2900627">
  <ele>348.73</ele>
  <time>2026-09-01T19:52:38Z</time>
  <course>180.22</course>
  <speed>0.02</speed>
  <fix>3d</fix>
</trkpt>
<trkpt lat="-27.274439" lon="151.2900627">
  <ele>348.69</ele>
  <time>2026-09-01T19:52:38Z</time>
  <course>180.2</course>
  <speed>0.02</speed>
  <fix>3d</fix>
</trkpt>
<trkpt lat="-27.2744391" lon="151.2900627">
  <ele>348.96</ele>
  <time>2026-09-01T19:52:38Z</time>
  <course>114.58</course>
  <speed>0.02</speed>
  <fix>3d</fix>
</trkpt>
<trkpt lat="-27.274439" lon="151.2900627">
  <ele>348.69</ele>
  <time>2026-09-01T19:52:38Z</time>
  <course>180.2</course>
  <speed>0.02</speed>
  <fix>3d</fix>
</trkpt>
<trkpt lat="-27.274439" lon="151.2900627">
  <ele>348.64</ele>
  <time>2026-09-01T19:52:38Z</time>
  <course>180.2</course>
  <speed>0.03</speed>
  <fix>3d</fix>
</trkpt>
<trkpt lat="-27.2744391" lon="151.2900627">
  <ele>348.86</ele>
  <time>2026-09-01T19:52:38Z</time>
  <course>103.31</course>
  <speed>0.03</speed>
  <fix>3d</fix>
</trkpt>
<trkpt lat="-27.274439" lon="151.2900627">
  <ele>348.64</ele>
  <time>2026-09-01T19:52:38Z</time>
  <course>180.2</course>
  <speed>0.03</speed>
  <fix>3d</fix>
</trkpt>
<trkpt lat="-27.274439" lon="151.2900628">
  <ele>348.59</ele>
  <time>2026-09-01T19:52:38Z</time>
  <course>180.21</course>
  <speed>0.03</speed>
  <fix>3d</fix>
</trkpt>
<trkpt lat="-27.2744391" lon="151.2900627">
  <ele>348.86</ele>
  <time>2026-09-01T19:52:38Z</time>
  <course>103.31</course>
  <speed>0.03</speed>
  <fix>3d</fix>
</trkpt>
<trkpt lat="-27.274439" lon="151.2900628">
  <ele>348.59</ele>
  <time>2026-09-01T19:52:38Z</time>
  <course>180.21</course>
  <speed>0.03</speed>
  <fix>3d</fix>
</trkpt>
<trkpt lat="-27.274439" lon="151.2900628">
  <ele>348.54</ele>
  <time>2026-09-01T19:52:38Z</time>
  <course>180.22</course>
  <speed>0.03</speed>
  <fix>3d</fix>
</trkpt>
<trkpt lat="-27.2744392" lon="151.2900628">
  <ele>348.76</ele>
  <time>2026-09-01T19:52:38Z</time>
  <course>97.28</course>
  <speed>0.03</speed>
  <fix>3d</fix>
</trkpt>
<trkpt lat="-27.274439" lon="151.2900628">
  <ele>348.54</ele>
  <time>2026-09-01T19:52:38Z</time>
  <course>180.22</course>
  <speed>0.03</speed>
  <fix>3d</fix>
</trkpt>
<trkpt lat="-27.274439" lon="151.2900629">
  <ele>348.49</ele>
  <time>2026-09-01T19:52:38Z</time>
  <course>180.24</course>
  <speed>0.04</speed>
  <fix>3d</fix>
</trkpt>
<trkpt lat="-27.2744392" lon="151.2900628">
  <ele>348.76</ele>
  <time>2026-09-01T19:52:38Z</time>
  <course>97.28</course>
  <speed>0.03</speed>
  <fix>3d</fix>
</trkpt>
<trkpt lat="-27.274439" lon="151.2900629">
  <ele>348.49</ele>
  <time>2026-09-01T19:52:38Z</time>
  <course>180.24</course>
  <speed>0.04</speed>
  <fix>3d</fix>
</trkpt>
<trkpt lat="-27.274439" lon="151.2900629">
  <ele>348.44</ele>
  <time>2026-09-01T19:52:38Z</time>
  <course>180.26</course>
  <speed>0.04</speed>
  <fix>3d</fix>
</trkpt>
<trkpt lat="-27.2744392" lon="151.2900629">
  <ele>348.65</ele>
  <time>2026-09-01T19:52:38Z</time>
  <course>93.65</course>
  <speed>0.04</speed>
  <fix>3d</fix>
</trkpt>
<trkpt lat="-27.274439" lon="151.2900629">
  <ele>348.43</ele>
  <time>2026-09-01T19:52:38Z</time>
  <course>180.26</course>
  <speed>0.04</speed>
  <fix>3d</fix>
</trkpt>
<trkpt lat="-27.274439" lon="151.290063">
  <ele>348.38</ele>
  <time>2026-09-01T19:52:38Z</time>
  <course>180.28</course>
  <speed>0.04</speed>
  <fix>3d</fix>
</trkpt>
<trkpt lat="-27.2744392" lon="151.2900629">
  <ele>348.65</ele>
  <time>2026-09-01T19:52:38Z</time>
  <course>93.65</course>
  <speed>0.04</speed>
  <fix>3d</fix>
</trkpt>
<trkpt lat="-27.274439" lon="151.290063">
  <ele>348.38</ele>
  <time>2026-09-01T19:52:38Z</time>
  <course>180.28</course>
  <speed>0.04</speed>
  <fix>3d</fix>
</trkpt>
<trkpt lat="-27.274439" lon="151.290063">
  <ele>348.33</ele>
  <time>2026-09-01T19:52:38Z</time>
  <course>180.3</course>
  <speed>0.05</speed>
  <fix>3d</fix>
</trkpt>
<trkpt lat="-27.2744392" lon="151.290063">
  <ele>348.56</ele>
  <time>2026-09-01T19:52:38Z</time>
  <course>91.47</course>
  <speed>0.05</speed>
  <fix>3d</fix>
</trkpt>
<trkpt lat="-27.274439" lon="151.290063">
  <ele>348.33</ele>
  <time>2026-09-01T19:52:38Z</time>
  <course>180.3</course>
  <speed>0.05</speed>
  <fix>3d</fix>
</trkpt>
<trkpt lat="-27.274439" lon="151.2900631">
  <ele>348.28</ele>
  <time>2026-09-01T19:52:38Z</time>
  <course>180.31</course>
  <speed>0.05</speed>
  <fix>3d</fix>
</trkpt>
<trkpt lat="-27.2744392" lon="151.290063">
  <ele>348.56</ele>
  <time>2026-09-01T19:52:38Z</time>
  <course>91.47</course>
  <speed>0.05</speed>
  <fix>3d</fix>
</trkpt>
<trkpt lat="-27.274439" lon="151.2900631">
  <ele>348.28</ele>
  <time>2026-09-01T19:52:38Z</time>
  <course>180.31</course>
  <speed>0.05</speed>
  <fix>3d</fix>
</trkpt>
<trkpt lat="-27.274439" lon="151.2900631">
  <ele>348.23</ele>
  <time>2026-09-01T19:52:38Z</time>
  <course>180.31</course>
  <speed>0.05</speed>
  <fix>3d</fix>
</trkpt>
<trkpt lat="-27.2744392" lon="151.2900631">
  <ele>348.46</ele>
  <time>2026-09-01T19:52:38Z</time>
  <course>89.94</course>
  <speed>0.06</speed>
  <fix>3d</fix>
</trkpt>
<trkpt lat="-27.274439" lon="151.2900631">
  <ele>348.23</ele>
  <time>2026-09-01T19:52:38Z</time>
  <course>180.31</course>
  <speed>0.05</speed>
  <fix>3d</fix>
</trkpt>
<trkpt lat="-27.274439" lon="151.2900632">
  <ele>348.18</ele>
  <time>2026-09-01T19:52:38Z</time>
  <course>180.31</course>
  <speed>0.06</speed>
  <fix>3d</fix>
</trkpt>
<trkpt lat="-27.2744392" lon="151.2900631">
  <ele>348.46</ele>
  <time>2026-09-01T19:52:38Z</time>
  <course>89.94</course>
  <speed>0.06</speed>
  <fix>3d</fix>
</trkpt>
<trkpt lat="-27.274439" lon="151.2900632">
  <ele>348.18</ele>
  <time>2026-09-01T19:52:38Z</time>
  <course>180.3</course>
  <speed>0.06</speed>
  <fix>3d</fix>
</trkpt>
<trkpt lat="-27.2744391" lon="151.2900633">
  <ele>348.13</ele>
  <time>2026-09-01T19:52:38Z</time>
  <course>180.3</course>
  <speed>0.06</speed>
  <fix>3d</fix>
</trkpt>
<trkpt lat="-27.2744392" lon="151.2900632">
  <ele>348.36</ele>
  <time>2026-09-01T19:52:38Z</time>
  <course>89.05</course>
  <speed>0.06</speed>
  <fix>3d</fix>
</trkpt>
<trkpt lat="-27.2744391" lon="151.2900633">
  <ele>348.13</ele>
  <time>2026-09-01T19:52:38Z</time>
  <course>180.3</course>
  <speed>0.06</speed>
  <fix>3d</fix>
</trkpt>
<trkpt lat="-27.2744391" lon="151.2900633">
  <ele>348.08</ele>
  <time>2026-09-01T19:52:38Z</time>
  <course>180.3</course>
  <speed>0.06</speed>
  <fix>3d</fix>
</trkpt>
<trkpt lat="-27.2744392" lon="151.2900632">
  <ele>348.36</ele>
  <time>2026-09-01T19:52:39Z</time>
  <course>89.05</course>
  <speed>0.06</speed>
  <fix>3d</fix>
</trkpt>
<trkpt lat="-27.2744391" lon="151.2900633">
  <ele>348.08</ele>
  <time>2026-09-01T19:52:39Z</time>
  <course>180.3</course>
  <speed>0.06</speed>
  <fix>3d</fix>
</trkpt>
<trkpt lat="-27.2744391" lon="151.2900634">
  <ele>348.03</ele>
  <time>2026-09-01T19:52:39Z</time>
  <course>180.3</course>
  <speed>0.06</speed>
  <fix>3d</fix>
</trkpt>
<trkpt lat="-27.2744392" lon="151.2900634">
  <ele>348.25</ele>
  <time>2026-09-01T19:52:39Z</time>
  <course>88.47</course>
  <speed>0.07</speed>
  <fix>3d</fix>
</trkpt>
<trkpt lat="-27.2744391" lon="151.2900634">
  <ele>348.03</ele>
  <time>2026-09-01T19:52:39Z</time>
  <course>180.3</course>
  <speed>0.06</speed>
  <fix>3d</fix>
</trkpt>
<trkpt lat="-27.2744391" lon="151.2900635">
  <ele>347.98</ele>
  <time>2026-09-01T19:52:39Z</time>
  <course>180.31</course>
  <speed>0.06</speed>
  <fix>3d</fix>
</trkpt>
<trkpt lat="-27.2744392" lon="151.2900634">
  <ele>348.25</ele>
  <time>2026-09-01T19:52:39Z</time>
  <course>88.47</course>
  <speed>0.07</speed>
  <fix>3d</fix>
</trkpt>
<trkpt lat="-27.2744391" lon="151.2900635">
  <ele>347.97</ele>
  <time>2026-09-01T19:52:39Z</time>
  <course>180.31</course>
  <speed>0.06</speed>
  <fix>3d</fix>
</trkpt>
<trkpt lat="-27.2744391" lon="151.2900636">
  <ele>347.93</ele>
  <time>2026-09-01T19:52:39Z</time>
  <course>180.32</course>
  <speed>0.07</speed>
  <fix>3d</fix>
</trkpt>
<trkpt lat="-27.2744392" lon="151.2900635">
  <ele>348.15</ele>
  <time>2026-09-01T19:52:39Z</time>
  <course>87.73</course>
  <speed>0.07</speed>
  <fix>3d</fix>
</trkpt>
<trkpt lat="-27.2744391" lon="151.2900636">
  <ele>347.92</ele>
  <time>2026-09-01T19:52:39Z</time>
  <course>180.32</course>
  <speed>0.07</speed>
  <fix>3d</fix>
</trkpt>
<trkpt lat="-27.2744391" lon="151.2900636">
  <ele>347.88</ele>
  <time>2026-09-01T19:52:39Z</time>
  <course>180.33</course>
  <speed>0.07</speed>
  <fix>3d</fix>
</trkpt>
<trkpt lat="-27.2744392" lon="151.2900635">
  <ele>348.15</ele>
  <time>2026-09-01T19:52:39Z</time>
  <course>87.73</course>
  <speed>0.07</speed>
  <fix>3d</fix>
</trkpt>
<trkpt lat="-27.2744391" lon="151.2900636">
  <ele>347.87</ele>
  <time>2026-09-01T19:52:39Z</time>
  <course>180.34</course>
  <speed>0.07</speed>
  <fix>3d</fix>
</trkpt>
<trkpt lat="-27.2744391" lon="151.2900637">
  <ele>347.83</ele>
  <time>2026-09-01T19:52:39Z</time>
  <course>180.35</course>
  <speed>0.07</speed>
  <fix>3d</fix>
</trkpt>
<trkpt lat="-27.2744392" lon="151.2900637">
  <ele>348.05</ele>
  <time>2026-09-01T19:52:39Z</time>
  <course>86.82</course>
  <speed>0.07</speed>
  <fix>3d</fix>
</trkpt>
<trkpt lat="-27.2744391" lon="151.2900637">
  <ele>347.82</ele>
  <time>2026-09-01T19:52:39Z</time>
  <course>180.35</course>
  <speed>0.07</speed>
  <fix>3d</fix>
</trkpt>
<trkpt lat="-27.2744391" lon="151.2900638">
  <ele>347.78</ele>
  <time>2026-09-01T19:52:39Z</time>
  <course>180.37</course>
  <speed>0.07</speed>
  <fix>3d</fix>
</trkpt>
<trkpt lat="-27.2744392" lon="151.2900637">
  <ele>348.05</ele>
  <time>2026-09-01T19:52:39Z</time>
  <course>86.82</course>
  <speed>0.07</speed>
  <fix>3d</fix>
</trkpt>
<trkpt lat="-27.2744391" lon="151.2900638">
  <ele>347.77</ele>
  <time>2026-09-01T19:52:39Z</time>
  <course>180.37</course>
  <speed>0.07</speed>
  <fix>3d</fix>
</trkpt>
<trkpt lat="-27.2744391" lon="151.2900639">
  <ele>347.72</ele>
  <time>2026-09-01T19:52:39Z</time>
  <course>180.37</course>
  <speed>0.07</speed>
  <fix>3d</fix>
</trkpt>
<trkpt lat="-27.2744392" lon="151.2900639">
  <ele>347.95</ele>
  <time>2026-09-01T19:52:39Z</time>
  <course>85.51</course>
  <speed>0.08</speed>
  <fix>3d</fix>
</trkpt>
<trkpt lat="-27.2744391" lon="151.2900639">
  <ele>347.72</ele>
  <time>2026-09-01T19:52:39Z</time>
  <course>180.37</course>
  <speed>0.07</speed>
  <fix>3d</fix>
</trkpt>
<trkpt lat="-27.2744391" lon="151.2900639">
  <ele>347.67</ele>
  <time>2026-09-01T19:52:39Z</time>
  <course>180.37</course>
  <speed>0.07</speed>
  <fix>3d</fix>
</trkpt>
<trkpt lat="-27.2744392" lon="151.2900639">
  <ele>347.95</ele>
  <time>2026-09-01T19:52:39Z</time>
  <course>85.51</course>
  <speed>0.08</speed>
  <fix>3d</fix>
</trkpt>
<trkpt lat="-27.2744391" lon="151.290064">
  <ele>347.63</ele>
  <time>2026-09-01T19:52:39Z</time>
  <course>180.37</course>
  <speed>0.06</speed>
  <fix>3d</fix>
</trkpt>
<trkpt lat="-27.2744391" lon="151.290064">
  <ele>347.62</ele>
  <time>2026-09-01T19:52:39Z</time>
  <course>180.37</course>
  <speed>0.06</speed>
  <fix>3d</fix>
</trkpt>
<trkpt lat="-27.2744392" lon="151.290064">
  <ele>347.84</ele>
  <time>2026-09-01T19:52:39Z</time>
  <course>83.95</course>
  <speed>0.07</speed>
  <fix>3d</fix>
</trkpt>
<trkpt lat="-27.2744391" lon="151.2900641">
  <ele>347.57</ele>
  <time>2026-09-01T19:52:39Z</time>
  <course>180.37</course>
  <speed>0.06</speed>
  <fix>3d</fix>
</trkpt>
<trkpt lat="-27.2744392" lon="151.290064">
  <ele>347.84</ele>
  <time>2026-09-01T19:52:39Z</time>
  <course>83.95</course>
  <speed>0.07</speed>
  <fix>3d</fix>
</trkpt>
<trkpt lat="-27.2744391" lon="151.2900641">
  <ele>347.57</ele>
  <time>2026-09-01T19:52:39Z</time>
  <course>180.37</course>
  <speed>0.06</speed>
  <fix>3d</fix>
</trkpt>
<trkpt lat="-27.2744391" lon="151.2900642">
  <ele>347.52</ele>
  <time>2026-09-01T19:52:39Z</time>
  <course>180.37</course>
  <speed>0.06</speed>
  <fix>3d</fix>
</trkpt>
<trkpt lat="-27.2744392" lon="151.2900642">
  <ele>347.75</ele>
  <time>2026-09-01T19:52:39Z</time>
  <course>82.47</course>
  <speed>0.07</speed>
  <fix>3d</fix>
</trkpt>
<trkpt lat="-27.2744391" lon="151.2900643">
  <ele>347.47</ele>
  <time>2026-09-01T19:52:39Z</time>
  <course>180.37</course>
  <speed>0.06</speed>
  <fix>3d</fix>
</trkpt>
<trkpt lat="-27.2744392" lon="151.2900642">
  <ele>347.75</ele>
  <time>2026-09-01T19:52:39Z</time>
  <course>82.47</course>
  <speed>0.07</speed>
  <fix>3d</fix>
</trkpt>
<trkpt lat="-27.2744391" lon="151.2900643">
  <ele>347.47</ele>
  <time>2026-09-01T19:52:39Z</time>
  <course>180.37</course>
  <speed>0.06</speed>
  <fix>3d</fix>
</trkpt>
<trkpt lat="-27.2744391" lon="151.2900643">
  <ele>347.42</ele>
  <time>2026-09-01T19:52:39Z</time>
  <course>180.38</course>
  <speed>0.06</speed>
  <fix>3d</fix>
</trkpt>
<trkpt lat="-27.2744392" lon="151.2900643">
  <ele>347.65</ele>
  <time>2026-09-01T19:52:39Z</time>
  <course>81.18</course>
  <speed>0.07</speed>
  <fix>3d</fix>
</trkpt>
<trkpt lat="-27.2744391" lon="151.2900643">
  <ele>347.42</ele>
  <time>2026-09-01T19:52:39Z</time>
  <course>180.38</course>
  <speed>0.06</speed>
  <fix>3d</fix>
</trkpt>
<trkpt lat="-27.2744391" lon="151.2900644">
  <ele>347.37</ele>
  <time>2026-09-01T19:52:39Z</time>
  <course>180.39</course>
  <speed>0.06082762530298219</speed>
  <fix>3d</fix>
</trkpt>
<trkpt lat="-27.2744392" lon="151.2900643">
  <ele>347.65</ele>
  <time>2026-09-01T19:52:39Z</time>
  <course>81.18</course>
  <speed>0.07</speed>
  <fix>3d</fix>
</trkpt>
<trkpt lat="-27.2744391" lon="151.2900644">
  <ele>347.35</ele>
  <time>2026-09-01T19:52:39Z</time>
  <course>180.39</course>
  <speed>0.05</speed>
  <fix>3d</fix>
</trkpt>
<trkpt lat="-27.2744391" lon="151.2900645">
  <ele>347.32</ele>
  <time>2026-09-01T19:52:39Z</time>
  <course>180.39</course>
  <speed>0.05</speed>
  <fix>3d</fix>
</trkpt>
<trkpt lat="-27.2744392" lon="151.2900645">
  <ele>347.55</ele>
  <time>2026-09-01T19:52:39Z</time>
  <course>79.92</course>
  <speed>0.07</speed>
  <fix>3d</fix>
</trkpt>
<trkpt lat="-27.2744391" lon="151.2900645">
  <ele>347.31</ele>
  <time>2026-09-01T19:52:39Z</time>
  <course>180.39</course>
  <speed>0.05</speed>
  <fix>3d</fix>
</trkpt>
<trkpt lat="-27.2744391" lon="151.2900645">
  <ele>347.27</ele>
  <time>2026-09-01T19:52:39Z</time>
  <course>180.39</course>
  <speed>0.05</speed>
  <fix>3d</fix>
</trkpt>
<trkpt lat="-27.2744392" lon="151.2900645">
  <ele>347.55</ele>
  <time>2026-09-01T19:52:39Z</time>
  <course>79.92</course>
  <speed>0.07</speed>
  <fix>3d</fix>
</trkpt>
<trkpt lat="-27.2744391" lon="151.2900646">
  <ele>347.25</ele>
  <time>2026-09-01T19:52:39Z</time>
  <course>180.39</course>
  <speed>0.05</speed>
  <fix>3d</fix>
</trkpt>
<trkpt lat="-27.2744391" lon="151.2900646">
  <ele>347.23</ele>
  <time>2026-09-01T19:52:39Z</time>
  <course>180.38</course>
  <speed>0.05</speed>
  <fix>3d</fix>
</trkpt>
<trkpt lat="-27.2744391" lon="151.2900646">
  <ele>347.45</ele>
  <time>2026-09-01T19:52:39Z</time>
  <course>78.76</course>
  <speed>0.06</speed>
  <fix>3d</fix>
</trkpt>
<trkpt lat="-27.2744391" lon="151.2900646">
  <ele>347.22</ele>
  <time>2026-09-01T19:52:39Z</time>
  <course>180.38</course>
  <speed>0.05</speed>
  <fix>3d</fix>
</trkpt>
<trkpt lat="-27.2744391" lon="151.2900647">
  <ele>347.18</ele>
  <time>2026-09-01T19:52:39Z</time>
  <course>180.37</course>
  <speed>0.05</speed>
  <fix>3d</fix>
</trkpt>
<trkpt lat="-27.2744391" lon="151.2900646">
  <ele>347.45</ele>
  <time>2026-09-01T19:52:39Z</time>
  <course>78.76</course>
  <speed>0.06</speed>
  <fix>3d</fix>
</trkpt>
<trkpt lat="-27.2744391" lon="151.2900647">
  <ele>347.17</ele>
  <time>2026-09-01T19:52:39Z</time>
  <course>180.37</course>
  <speed>0.05</speed>
  <fix>3d</fix>
</trkpt>
<trkpt lat="-27.2744391" lon="151.2900647">
  <ele>347.13</ele>
  <time>2026-09-01T19:52:39Z</time>
  <course>180.36</course>
  <speed>0.04</speed>
  <fix>3d</fix>
</trkpt>
<trkpt lat="-27.2744391" lon="151.2900647">
  <ele>347.34</ele>
  <time>2026-09-01T19:52:39Z</time>
  <course>77.69</course>
  <speed>0.06</speed>
  <fix>3d</fix>
</trkpt>
<trkpt lat="-27.2744391" lon="151.2900647">
  <ele>347.12</ele>
  <time>2026-09-01T19:52:39Z</time>
  <course>180.36</course>
  <speed>0.04</speed>
  <fix>3d</fix>
</trkpt>
<trkpt lat="-27.2744391" lon="151.2900648">
  <ele>347.08</ele>
  <time>2026-09-01T19:52:39Z</time>
  <course>180.36</course>
  <speed>0.04</speed>
  <fix>3d</fix>
</trkpt>
<trkpt lat="-27.2744391" lon="151.2900647">
  <ele>347.34</ele>
  <time>2026-09-01T19:52:39Z</time>
  <course>77.69</course>
  <speed>0.06</speed>
  <fix>3d</fix>
</trkpt>
<trkpt lat="-27.2744391" lon="151.2900648">
  <ele>347.07</ele>
  <time>2026-09-01T19:52:39Z</time>
  <course>180.36</course>
  <speed>0.04</speed>
  <fix>3d</fix>
</trkpt>
<trkpt lat="-27.2744391" lon="151.2900648">
  <ele>347.03</ele>
  <time>2026-09-01T19:52:39Z</time>
  <course>180.36</course>
  <speed>0.04</speed>
  <fix>3d</fix>
</trkpt>
<trkpt lat="-27.2744391" lon="151.2900648">
  <ele>347.25</ele>
  <time>2026-09-01T19:52:39Z</time>
  <course>76.08</course>
  <speed>0.05</speed>
  <fix>3d</fix>
</trkpt>
<trkpt lat="-27.2744391" lon="151.2900648">
  <ele>346.99</ele>
  <time>2026-09-01T19:52:39Z</time>
  <course>180.36</course>
  <speed>0.03</speed>
  <fix>3d</fix>
</trkpt>
<trkpt lat="-27.2744391" lon="151.2900649">
  <ele>346.98</ele>
  <time>2026-09-01T19:52:39Z</time>
  <course>180.36</course>
  <speed>0.03</speed>
  <fix>3d</fix>
</trkpt>
<trkpt lat="-27.2744391" lon="151.2900648">
  <ele>347.25</ele>
  <time>2026-09-01T19:52:39Z</time>
  <course>76.08</course>
  <speed>0.05</speed>
  <fix>3d</fix>
</trkpt>
<trkpt lat="-27.2744391" lon="151.2900649">
  <ele>346.97</ele>
  <time>2026-09-01T19:52:39Z</time>
  <course>180.37</course>
  <speed>0.03</speed>
  <fix>3d</fix>
</trkpt>
<trkpt lat="-27.2744391" lon="151.2900649">
  <ele>346.93</ele>
  <time>2026-09-01T19:52:39Z</time>
  <course>180.37</course>
  <speed>0.03</speed>
  <fix>3d</fix>
</trkpt>
<trkpt lat="-27.2744391" lon="151.2900649">
  <ele>347.15</ele>
  <time>2026-09-01T19:52:39Z</time>
  <course>73.66</course>
  <speed>0.04</speed>
  <fix>3d</fix>
</trkpt>
<trkpt lat="-27.2744391" lon="151.2900649">
  <ele>346.92</ele>
  <time>2026-09-01T19:52:39Z</time>
  <course>180.37</course>
  <speed>0.03</speed>
  <fix>3d</fix>
</trkpt>
<trkpt lat="-27.2744391" lon="151.2900649">
  <ele>346.88</ele>
  <time>2026-09-01T19:52:39Z</time>
  <course>180.38</course>
  <speed>0.02</speed>
  <fix>3d</fix>
</trkpt>
<trkpt lat="-27.2744391" lon="151.2900649">
  <ele>347.15</ele>
  <time>2026-09-01T19:52:39Z</time>
  <course>73.66</course>
  <speed>0.04</speed>
  <fix>3d</fix>
</trkpt>
<trkpt lat="-27.2744391" lon="151.2900649">
  <ele>346.87</ele>
  <time>2026-09-01T19:52:39Z</time>
  <course>180.38</course>
  <speed>0.02</speed>
  <fix>3d</fix>
</trkpt>
<trkpt lat="-27.2744391" lon="151.290065">
  <ele>346.83</ele>
  <time>2026-09-01T19:52:39Z</time>
  <course>180.39</course>
  <speed>0.02</speed>
  <fix>3d</fix>
</trkpt>
<trkpt lat="-27.2744391" lon="151.290065">
  <ele>347.05</ele>
  <time>2026-09-01T19:52:39Z</time>
  <course>70.45</course>
  <speed>0.03</speed>
  <fix>3d</fix>
</trkpt>
<trkpt lat="-27.2744391" lon="151.290065">
  <ele>346.82</ele>
  <time>2026-09-01T19:52:39Z</time>
  <course>180.39</course>
  <speed>0.02</speed>
  <fix>3d</fix>
</trkpt>
<trkpt lat="-27.2744391" lon="151.290065">
  <ele>346.78</ele>
  <time>2026-09-01T19:52:39Z</time>
  <course>180.39</course>
  <speed>0.01</speed>
  <fix>3d</fix>
</trkpt>
<trkpt lat="-27.2744391" lon="151.290065">
  <ele>347.05</ele>
  <time>2026-09-01T19:52:39Z</time>
  <course>70.45</course>
  <speed>0.03</speed>
  <fix>3d</fix>
</trkpt>
<trkpt lat="-27.2744391" lon="151.290065">
  <ele>346.77</ele>
  <time>2026-09-01T19:52:39Z</time>
  <course>180.39</course>
  <speed>0.01</speed>
  <fix>3d</fix>
</trkpt>
<trkpt lat="-27.2744391" lon="151.290065">
  <ele>346.73</ele>
  <time>2026-09-01T19:52:39Z</time>
  <course>180.38</course>
  <speed>0.01</speed>
  <fix>3d</fix>
</trkpt>
<trkpt lat="-27.274439" lon="151.2900651">
  <ele>346.94</ele>
  <time>2026-09-01T19:52:39Z</time>
  <course>65.45</course>
  <speed>0.03</speed>
  <fix>3d</fix>
</trkpt>
<trkpt lat="-27.2744391" lon="151.290065">
  <ele>346.72</ele>
  <time>2026-09-01T19:52:39Z</time>
  <course>180.38</course>
  <speed>0.01</speed>
  <fix>3d</fix>
</trkpt>
<trkpt lat="-27.2744391" lon="151.290065">
  <ele>346.68</ele>
  <time>2026-09-01T19:52:39Z</time>
  <course>180.38</course>
  <speed>0.01</speed>
  <fix>3d</fix>
</trkpt>
<trkpt lat="-27.274439" lon="151.2900651">
  <ele>346.94</ele>
  <time>2026-09-01T19:52:39Z</time>
  <course>65.45</course>
  <speed>0.03</speed>
  <fix>3d</fix>
</trkpt>
<trkpt lat="-27.2744391" lon="151.290065">
  <ele>346.68</ele>
  <time>2026-09-01T19:52:39Z</time>
  <course>180.37</course>
  <speed>0.01</speed>
  <fix>3d</fix>
</trkpt>
<trkpt lat="-27.2744391" lon="151.290065">
  <ele>346.63</ele>
  <time>2026-09-01T19:52:39Z</time>
  <course>180.37</course>
  <speed>0.0</speed>
  <fix>3d</fix>
</trkpt>
<trkpt lat="-27.274439" lon="151.2900651">
  <ele>346.84</ele>
  <time>2026-09-01T19:52:39Z</time>
  <course>56.34</course>
  <speed>0.02</speed>
  <fix>3d</fix>
</trkpt>
<trkpt lat="-27.2744391" lon="151.290065">
  <ele>346.62</ele>
  <time>2026-09-01T19:52:39Z</time>
  <course>180.36</course>
  <speed>0.0</speed>
  <fix>3d</fix>
</trkpt>
<trkpt lat="-27.274439" lon="151.290065">
  <ele>346.58</ele>
  <time>2026-09-01T19:52:39Z</time>
  <course>180.35</course>
  <speed>0.0</speed>
  <fix>3d</fix>
</trkpt>
<trkpt lat="-27.274439" lon="151.2900651">
  <ele>346.84</ele>
  <time>2026-09-01T19:52:39Z</time>
  <course>56.34</course>
  <speed>0.02</speed>
  <fix>3d</fix>
</trkpt>
<trkpt lat="-27.274439" lon="151.290065">
  <ele>346.54</ele>
  <time>2026-09-01T19:52:39Z</time>
  <course>180.34</course>
  <speed>0.0</speed>
  <fix>3d</fix>
</trkpt>
<trkpt lat="-27.274439" lon="151.290065">
  <ele>346.53</ele>
  <time>2026-09-01T19:52:39Z</time>
  <course>180.34</course>
  <speed>0.0</speed>
  <fix>3d</fix>
</trkpt>
<trkpt lat="-27.274439" lon="151.2900651">
  <ele>346.74</ele>
  <time>2026-09-01T19:52:39Z</time>
  <course>37.53</course>
  <speed>0.01</speed>
  <fix>3d</fix>
</trkpt>
<trkpt lat="-27.274439" lon="151.290065">
  <ele>346.48</ele>
  <time>2026-09-01T19:52:39Z</time>
  <course>180.37</course>
  <speed>0.0</speed>
  <fix>3d</fix>
</trkpt>
<trkpt lat="-27.274439" lon="151.2900651">
  <ele>346.74</ele>
  <time>2026-09-01T19:52:39Z</time>
  <course>37.53</course>
  <speed>0.01</speed>
  <fix>3d</fix>
</trkpt>
<trkpt lat="-27.274439" lon="151.2900651">
  <ele>346.43</ele>
  <time>2026-09-01T19:52:39Z</time>
  <course>180.46</course>
  <speed>0.0</speed>
  <fix>3d</fix>
</trkpt>
<trkpt lat="-27.274439" lon="151.2900651">
  <ele>346.64</ele>
  <time>2026-09-01T19:52:39Z</time>
  <course>12.21</course>
  <speed>0.01</speed>
  <fix>3d</fix>
</trkpt>
<trkpt lat="-27.274439" lon="151.2900651">
  <ele>346.43</ele>
  <time>2026-09-01T19:52:39Z</time>
  <course>180.47</course>
  <speed>0.0</speed>
  <fix>3d</fix>
</trkpt>
<trkpt lat="-27.274439" lon="151.2900651">
  <ele>346.38</ele>
  <time>2026-09-01T19:52:39Z</time>
  <course>180.59</course>
  <speed>0.0</speed>
  <fix>3d</fix>
</trkpt>
<trkpt lat="-27.274439" lon="151.2900651">
  <ele>346.64</ele>
  <time>2026-09-01T19:52:39Z</time>
  <course>12.21</course>
  <speed>0.01</speed>
  <fix>3d</fix>
</trkpt>
<trkpt lat="-27.274439" lon="151.2900651">
  <ele>346.36</ele>
  <time>2026-09-01T19:52:39Z</time>
  <course>180.63</course>
  <speed>0.0</speed>
  <fix>3d</fix>
</trkpt>
<trkpt lat="-27.274439" lon="151.2900651">
  <ele>346.33</ele>
  <time>2026-09-01T19:52:39Z</time>
  <course>180.72</course>
  <speed>0.0</speed>
  <fix>3d</fix>
</trkpt>
<trkpt lat="-27.274439" lon="151.2900651">
  <ele>346.53</ele>
  <time>2026-09-01T19:52:39Z</time>
  <course>2.52</course>
  <speed>0.0</speed>
  <fix>3d</fix>
</trkpt>
<trkpt lat="-27.274439" lon="151.2900651">
  <ele>346.3</ele>
  <time>2026-09-01T19:52:39Z</time>
  <course>180.77</course>
  <speed>0.0</speed>
  <fix>3d</fix>
</trkpt>
<trkpt lat="-27.274439" lon="151.290065">
  <ele>346.27</ele>
  <time>2026-09-01T19:52:39Z</time>
  <course>180.83</course>
  <speed>0.0</speed>
  <fix>3d</fix>
</trkpt>
<trkpt lat="-27.274439" lon="151.2900651">
  <ele>346.53</ele>
  <time>2026-09-01T19:52:39Z</time>
  <course>2.52</course>
  <speed>0.0</speed>
  <fix>3d</fix>
</trkpt>
<trkpt lat="-27.274439" lon="151.290065">
  <ele>346.24</ele>
  <time>2026-09-01T19:52:39Z</time>
  <course>180.89</course>
  <speed>0.0</speed>
  <fix>3d</fix>
</trkpt>
<trkpt lat="-27.274439" lon="151.290065">
  <ele>346.22</ele>
  <time>2026-09-01T19:52:39Z</time>
  <course>180.91</course>
  <speed>0.0</speed>
  <fix>3d</fix>
</trkpt>
<trkpt lat="-27.2744389" lon="151.2900651">
  <ele>346.43</ele>
  <time>2026-09-01T19:52:39Z</time>
  <course>3.37</course>
  <speed>0.0</speed>
  <fix>3d</fix>
</trkpt>
<trkpt lat="-27.274439" lon="151.290065">
  <ele>346.21</ele>
  <time>2026-09-01T19:52:39Z</time>
  <course>180.93</course>
  <speed>0.0</speed>
  <fix>3d</fix>
</trkpt>
<trkpt lat="-27.274439" lon="151.290065">
  <ele>346.17</ele>
  <time>2026-09-01T19:52:39Z</time>
  <course>180.96</course>
  <speed>0.0</speed>
  <fix>3d</fix>
</trkpt>
<trkpt lat="-27.2744389" lon="151.2900651">
  <ele>346.43</ele>
  <time>2026-09-01T19:52:39Z</time>
  <course>3.37</course>
  <speed>0.0</speed>
  <fix>3d</fix>
</trkpt>
<trkpt lat="-27.274439" lon="151.290065">
  <ele>346.16</ele>
  <time>2026-09-01T19:52:39Z</time>
  <course>180.96</course>
  <speed>0.0</speed>
  <fix>3d</fix>
</trkpt>
<trkpt lat="-27.274439" lon="151.290065">
  <ele>346.12</ele>
  <time>2026-09-01T19:52:39Z</time>
  <course>180.97</course>
  <speed>0.0</speed>
  <fix>3d</fix>
</trkpt>
<trkpt lat="-27.2744389" lon="151.2900651">
  <ele>346.33</ele>
  <time>2026-09-01T19:52:39Z</time>
  <course>4.32</course>
  <speed>0.0</speed>
  <fix>3d</fix>
</trkpt>
<trkpt lat="-27.274439" lon="151.290065">
  <ele>346.12</ele>
  <time>2026-09-01T19:52:39Z</time>
  <course>180.97</course>
  <speed>0.0</speed>
  <fix>3d</fix>
</trkpt>
<trkpt lat="-27.274439" lon="151.290065">
  <ele>346.07</ele>
  <time>2026-09-01T19:52:39Z</time>
  <course>180.96</course>
  <speed>0.0</speed>
  <fix>3d</fix>
</trkpt>
<trkpt lat="-27.2744389" lon="151.2900651">
  <ele>346.33</ele>
  <time>2026-09-01T19:52:39Z</time>
  <course>4.32</course>
  <speed>0.0</speed>
  <fix>3d</fix>
</trkpt>
<trkpt lat="-27.274439" lon="151.2900651">
  <ele>346.05</ele>
  <time>2026-09-01T19:52:39Z</time>
  <course>180.96</course>
  <speed>0.0</speed>
  <fix>3d</fix>
</trkpt>
<trkpt lat="-27.274439" lon="151.2900651">
  <ele>346.02</ele>
  <time>2026-09-01T19:52:39Z</time>
  <course>180.94</course>
  <speed>0.0</speed>
  <fix>3d</fix>
</trkpt>
<trkpt lat="-27.2744389" lon="151.2900651">
  <ele>346.22</ele>
  <time>2026-09-01T19:52:39Z</time>
  <course>5.47</course>
  <speed>0.0</speed>
  <fix>3d</fix>
</trkpt>
<trkpt lat="-27.274439" lon="151.2900651">
  <ele>345.99</ele>
  <time>2026-09-01T19:52:39Z</time>
  <course>180.92</course>
  <speed>0.0</speed>
  <fix>3d</fix>
</trkpt>
<trkpt lat="-27.274439" lon="151.2900651">
  <ele>345.97</ele>
  <time>2026-09-01T19:52:39Z</time>
  <course>180.91</course>
  <speed>0.0</speed>
  <fix>3d</fix>
</trkpt>
<trkpt lat="-27.2744389" lon="151.2900651">
  <ele>346.22</ele>
  <time>2026-09-01T19:52:39Z</time>
  <course>5.47</course>
  <speed>0.0</speed>
  <fix>3d</fix>
</trkpt>
<trkpt lat="-27.274439" lon="151.2900651">
  <ele>345.92</ele>
  <time>2026-09-01T19:52:39Z</time>
  <course>180.88</course>
  <speed>0.0</speed>
  <fix>3d</fix>
</trkpt>
<trkpt lat="-27.2744389" lon="151.2900651">
  <ele>346.13</ele>
  <time>2026-09-01T19:52:39Z</time>
  <course>6.46</course>
  <speed>0.0</speed>
  <fix>3d</fix>
</trkpt>
<trkpt lat="-27.274439" lon="151.2900651">
  <ele>345.92</ele>
  <time>2026-09-01T19:52:39Z</time>
  <course>180.88</course>
  <speed>0.0</speed>
  <fix>3d</fix>
</trkpt>
<trkpt lat="-27.274439" lon="151.2900651">
  <ele>345.87</ele>
  <time>2026-09-01T19:52:39Z</time>
  <course>180.86</course>
  <speed>0.0</speed>
  <fix>3d</fix>
</trkpt>
<trkpt lat="-27.2744389" lon="151.2900651">
  <ele>346.13</ele>
  <time>2026-09-01T19:52:39Z</time>
  <course>6.46</course>
  <speed>0.0</speed>
  <fix>3d</fix>
</trkpt>
<trkpt lat="-27.274439" lon="151.2900651">
  <ele>345.85</ele>
  <time>2026-09-01T19:52:39Z</time>
  <course>180.86</course>
  <speed>0.0</speed>
  <fix>3d</fix>
</trkpt>
<trkpt lat="-27.274439" lon="151.2900651">
  <ele>345.82</ele>
  <time>2026-09-01T19:52:39Z</time>
  <course>180.87</course>
  <speed>0.0</speed>
  <fix>3d</fix>
</trkpt>
<trkpt lat="-27.2744389" lon="151.2900651">
  <ele>346.03</ele>
  <time>2026-09-01T19:52:39Z</time>
  <course>9.62</course>
  <speed>0.0</speed>
  <fix>3d</fix>
</trkpt>
<trkpt lat="-27.274439" lon="151.2900651">
  <ele>345.77</ele>
  <time>2026-09-01T19:52:39Z</time>
  <course>180.89</course>
  <speed>0.0</speed>
  <fix>3d</fix>
</trkpt>
<trkpt lat="-27.2744389" lon="151.2900651">
  <ele>346.03</ele>
  <time>2026-09-01T19:52:39Z</time>
  <course>9.62</course>
  <speed>0.0</speed>
  <fix>3d</fix>
</trkpt>
<trkpt lat="-27.274439" lon="151.2900651">
  <ele>345.77</ele>
  <time>2026-09-01T19:52:39Z</time>
  <course>180.89</course>
  <speed>0.0</speed>
  <fix>3d</fix>
</trkpt>
<trkpt lat="-27.274439" lon="151.2900651">
  <ele>345.72</ele>
  <time>2026-09-01T19:52:39Z</time>
  <course>180.91</course>
  <speed>0.0</speed>
  <fix>3d</fix>
</trkpt>
<trkpt lat="-27.2744389" lon="151.2900651">
  <ele>345.93</ele>
  <time>2026-09-01T19:52:39Z</time>
  <course>15.79</course>
  <speed>0.0</speed>
  <fix>3d</fix>
</trkpt>
<trkpt lat="-27.274439" lon="151.2900651">
  <ele>345.71</ele>
  <time>2026-09-01T19:52:39Z</time>
  <course>180.91</course>
  <speed>0.0</speed>
  <fix>3d</fix>
</trkpt>
<trkpt lat="-27.274439" lon="151.2900651">
  <ele>345.67</ele>
  <time>2026-09-01T19:52:39Z</time>
  <course>180.92</course>
  <speed>0.0</speed>
  <fix>3d</fix>
</trkpt>
<trkpt lat="-27.2744389" lon="151.2900651">
  <ele>345.93</ele>
  <time>2026-09-01T19:52:39Z</time>
  <course>15.79</course>
  <speed>0.0</speed>
  <fix>3d</fix>
</trkpt>
<trkpt lat="-27.274439" lon="151.2900651">
  <ele>345.66</ele>
  <time>2026-09-01T19:52:39Z</time>
  <course>180.93</course>
  <speed>0.0</speed>
  <fix>3d</fix>
</trkpt>
<trkpt lat="-27.274439" lon="151.2900651">
  <ele>345.62</ele>
  <time>2026-09-01T19:52:39Z</time>
  <course>180.93</course>
  <speed>0.0</speed>
  <fix>3d</fix>
</trkpt>
<trkpt lat="-27.2744389" lon="151.2900651">
  <ele>345.83</ele>
  <time>2026-09-01T19:52:39Z</time>
  <course>21.92</course>
  <speed>0.0</speed>
  <fix>3d</fix>
</trkpt>
<trkpt lat="-27.274439" lon="151.2900651">
  <ele>345.61</ele>
  <time>2026-09-01T19:52:39Z</time>
  <course>180.93</course>
  <speed>0.0</speed>
  <fix>3d</fix>
</trkpt>
<trkpt lat="-27.274439" lon="151.2900651">
  <ele>345.57</ele>
  <time>2026-09-01T19:52:39Z</time>
  <course>180.94</course>
  <speed>0.0</speed>
  <fix>3d</fix>
</trkpt>
<trkpt lat="-27.2744389" lon="151.2900651">
  <ele>345.83</ele>
  <time>2026-09-01T19:52:39Z</time>
  <course>21.92</course>
  <speed>0.0</speed>
  <fix>3d</fix>
</trkpt>
<trkpt lat="-27.274439" lon="151.2900651">
  <ele>345.57</ele>
  <time>2026-09-01T19:52:39Z</time>
  <course>180.94</course>
  <speed>0.0</speed>
  <fix>3d</fix>
</trkpt>
<trkpt lat="-27.274439" lon="151.2900651">
  <ele>345.52</ele>
  <time>2026-09-01T19:52:39Z</time>
  <course>180.94</course>
  <speed>0.0</speed>
  <fix>3d</fix>
</trkpt>
<trkpt lat="-27.2744389" lon="151.2900651">
  <ele>345.72</ele>
  <time>2026-09-01T19:52:39Z</time>
  <course>29.47</course>
  <speed>0.0</speed>
  <fix>3d</fix>
</trkpt>
<trkpt lat="-27.274439" lon="151.2900651">
  <ele>345.51</ele>
  <time>2026-09-01T19:52:39Z</time>
  <course>180.94</course>
  <speed>0.0</speed>
  <fix>3d</fix>
</trkpt>
<trkpt lat="-27.274439" lon="151.2900651">
  <ele>345.47</ele>
  <time>2026-09-01T19:52:39Z</time>
  <course>180.95</course>
  <speed>0.0</speed>
  <fix>3d</fix>
</trkpt>
<trkpt lat="-27.2744389" lon="151.2900651">
  <ele>345.72</ele>
  <time>2026-09-01T19:52:39Z</time>
  <course>29.47</course>
  <speed>0.0</speed>
  <fix>3d</fix>
</trkpt>
<trkpt lat="-27.274439" lon="151.2900651">
  <ele>345.44</ele>
  <time>2026-09-01T19:52:39Z</time>
  <course>180.96</course>
  <speed>0.0</speed>
  <fix>3d</fix>
</trkpt>
<trkpt lat="-27.274439" lon="151.2900651">
  <ele>345.42</ele>
  <time>2026-09-01T19:52:39Z</time>
  <course>180.96</course>
  <speed>0.0</speed>
  <fix>3d</fix>
</trkpt>
<trkpt lat="-27.2744389" lon="151.2900651">
  <ele>345.63</ele>
  <time>2026-09-01T19:52:39Z</time>
  <course>47.38</course>
  <speed>0.0</speed>
  <fix>3d</fix>
</trkpt>
<trkpt lat="-27.274439" lon="151.2900651">
  <ele>345.41</ele>
  <time>2026-09-01T19:52:39Z</time>
  <course>180.97</course>
  <speed>0.0</speed>
  <fix>3d</fix>
</trkpt>
<trkpt lat="-27.274439" lon="151.2900651">
  <ele>345.37</ele>
  <time>2026-09-01T19:52:39Z</time>
  <course>180.98</course>
  <speed>0.0</speed>
  <fix>3d</fix>
</trkpt>
<trkpt lat="-27.2744389" lon="151.2900651">
  <ele>345.63</ele>
  <time>2026-09-01T19:52:39Z</time>
  <course>47.38</course>
  <speed>0.0</speed>
  <fix>3d</fix>
</trkpt>
<trkpt lat="-27.274439" lon="151.2900651">
  <ele>345.36</ele>
  <time>2026-09-01T19:52:39Z</time>
  <course>180.98</course>
  <speed>0.0</speed>
  <fix>3d</fix>
</trkpt>
<trkpt lat="-27.274439" lon="151.2900651">
  <ele>345.32</ele>
  <time>2026-09-01T19:52:39Z</time>
  <course>180.99</course>
  <speed>0.0</speed>
  <fix>3d</fix>
</trkpt>
<trkpt lat="-27.2744389" lon="151.2900651">
  <ele>345.53</ele>
  <time>2026-09-01T19:52:39Z</time>
  <course>78.28</course>
  <speed>0.0</speed>
  <fix>3d</fix>
</trkpt>
<trkpt lat="-27.274439" lon="151.2900651">
  <ele>345.31</ele>
  <time>2026-09-01T19:52:39Z</time>
  <course>181.0</course>
  <speed>0.0</speed>
  <fix>3d</fix>
</trkpt>
<trkpt lat="-27.274439" lon="151.2900651">
  <ele>345.27</ele>
  <time>2026-09-01T19:52:39Z</time>
  <course>181.0</course>
  <speed>0.0</speed>
  <fix>3d</fix>
</trkpt>
<trkpt lat="-27.2744389" lon="151.2900651">
  <ele>345.53</ele>
  <time>2026-09-01T19:52:39Z</time>
  <course>78.28</course>
  <speed>0.0</speed>
  <fix>3d</fix>
</trkpt>
<trkpt lat="-27.274439" lon="151.2900651">
  <ele>345.26</ele>
  <time>2026-09-01T19:52:39Z</time>
  <course>181.0</course>
  <speed>0.0</speed>
  <fix>3d</fix>
</trkpt>
<trkpt lat="-27.274439" lon="151.2900651">
  <ele>345.23</ele>
  <time>2026-09-01T19:52:39Z</time>
  <course>180.99</course>
  <speed>0.0</speed>
  <fix>3d</fix>
</trkpt>
<trkpt lat="-27.2744389" lon="151.2900651">
  <ele>345.43</ele>
  <time>2026-09-01T19:52:39Z</time>
  <course>100.66</course>
  <speed>0.0</speed>
  <fix>3d</fix>
</trkpt>
<trkpt lat="-27.274439" lon="151.2900651">
  <ele>345.19</ele>
  <time>2026-09-01T19:52:39Z</time>
  <course>180.98</course>
  <speed>0.0</speed>
  <fix>3d</fix>
</trkpt>
<trkpt lat="-27.274439" lon="151.2900651">
  <ele>345.18</ele>
  <time>2026-09-01T19:52:39Z</time>
  <course>180.98</course>
  <speed>0.0</speed>
  <fix>3d</fix>
</trkpt>
<trkpt lat="-27.2744389" lon="151.2900651">
  <ele>345.43</ele>
  <time>2026-09-01T19:52:39Z</time>
  <course>100.66</course>
  <speed>0.0</speed>
  <fix>3d</fix>
</trkpt>
<trkpt lat="-27.274439" lon="151.2900651">
  <ele>345.17</ele>
  <time>2026-09-01T19:52:39Z</time>
  <course>180.98</course>
  <speed>0.0</speed>
  <fix>3d</fix>
</trkpt>
<trkpt lat="-27.274439" lon="151.2900651">
  <ele>345.13</ele>
  <time>2026-09-01T19:52:39Z</time>
  <course>180.97</course>
  <speed>0.0</speed>
  <fix>3d</fix>
</trkpt>
<trkpt lat="-27.2744389" lon="151.2900651">
  <ele>345.33</ele>
  <time>2026-09-01T19:52:39Z</time>
  <course>100.39</course>
  <speed>0.0</speed>
  <fix>3d</fix>
</trkpt>
<trkpt lat="-27.274439" lon="151.2900651">
  <ele>345.1</ele>
  <time>2026-09-01T19:52:39Z</time>
  <course>180.96</course>
  <speed>0.0</speed>
  <fix>3d</fix>
</trkpt>
<trkpt lat="-27.274439" lon="151.2900651">
  <ele>345.08</ele>
  <time>2026-09-01T19:52:39Z</time>
  <course>180.96</course>
  <speed>0.0</speed>
  <fix>3d</fix>
</trkpt>
<trkpt lat="-27.2744389" lon="151.2900651">
  <ele>345.33</ele>
  <time>2026-09-01T19:52:39Z</time>
  <course>100.39</course>
  <speed>0.0</speed>
  <fix>3d</fix>
</trkpt>
<trkpt lat="-27.274439" lon="151.2900651">
  <ele>345.07</ele>
  <time>2026-09-01T19:52:39Z</time>
  <course>180.95</course>
  <speed>0.0</speed>
  <fix>3d</fix>
</trkpt>
<trkpt lat="-27.274439" lon="151.2900651">
  <ele>345.03</ele>
  <time>2026-09-01T19:52:39Z</time>
  <course>180.93</course>
  <speed>0.0</speed>
  <fix>3d</fix>
</trkpt>
<trkpt lat="-27.2744389" lon="151.2900651">
  <ele>345.22</ele>
  <time>2026-09-01T19:52:39Z</time>
  <course>120.85</course>
  <speed>0.0</speed>
  <fix>3d</fix>
</trkpt>
<trkpt lat="-27.274439" lon="151.2900651">
  <ele>345.02</ele>
  <time>2026-09-01T19:52:39Z</time>
  <course>180.92</course>
  <speed>0.0</speed>
  <fix>3d</fix>
</trkpt>
<trkpt lat="-27.274439" lon="151.2900651">
  <ele>344.98</ele>
  <time>2026-09-01T19:52:39Z</time>
  <course>180.9</course>
  <speed>0.0</speed>
  <fix>3d</fix>
</trkpt>
<trkpt lat="-27.2744389" lon="151.2900651">
  <ele>345.22</ele>
  <time>2026-09-01T19:52:39Z</time>
  <course>120.85</course>
  <speed>0.0</speed>
  <fix>3d</fix>
</trkpt>
<trkpt lat="-27.274439" lon="151.2900651">
  <ele>344.97</ele>
  <time>2026-09-01T19:52:39Z</time>
  <course>180.9</course>
  <speed>0.0</speed>
  <fix>3d</fix>
</trkpt>
<trkpt lat="-27.274439" lon="151.2900651">
  <ele>344.93</ele>
  <time>2026-09-01T19:52:39Z</time>
  <course>180.88</course>
  <speed>0.0</speed>
  <fix>3d</fix>
</trkpt>
<trkpt lat="-27.2744389" lon="151.2900651">
  <ele>345.13</ele>
  <time>2026-09-01T19:52:39Z</time>
  <course>219.4</course>
  <speed>0.0</speed>
  <fix>3d</fix>
</trkpt>
<trkpt lat="-27.274439" lon="151.2900651">
  <ele>344.88</ele>
  <time>2026-09-01T19:52:39Z</time>
  <course>180.87</course>
  <speed>0.0</speed>
  <fix>3d</fix>
</trkpt>
<trkpt lat="-27.274439" lon="151.2900651">
  <ele>344.88</ele>
  <time>2026-09-01T19:52:39Z</time>
  <course>180.87</course>
  <speed>0.0</speed>
  <fix>3d</fix>
</trkpt>
<trkpt lat="-27.2744389" lon="151.2900651">
  <ele>345.13</ele>
  <time>2026-09-01T19:52:39Z</time>
  <course>219.4</course>
  <speed>0.0</speed>
  <fix>3d</fix>
</trkpt>
<trkpt lat="-27.274439" lon="151.2900651">
  <ele>344.87</ele>
  <time>2026-09-01T19:52:39Z</time>
  <course>180.87</course>
  <speed>0.0</speed>
  <fix>3d</fix>
</trkpt>
<trkpt lat="-27.274439" lon="151.2900651">
  <ele>344.83</ele>
  <time>2026-09-01T19:52:39Z</time>
  <course>180.87</course>
  <speed>0.0</speed>
  <fix>3d</fix>
</trkpt>
<trkpt lat="-27.2744389" lon="151.2900651">
  <ele>345.03</ele>
  <time>2026-09-01T19:52:39Z</time>
  <course>248.83</course>
  <speed>0.0</speed>
  <fix>3d</fix>
</trkpt>
<trkpt lat="-27.274439" lon="151.2900651">
  <ele>344.82</ele>
  <time>2026-09-01T19:52:39Z</time>
  <course>180.87</course>
  <speed>0.0</speed>
  <fix>3d</fix>
</trkpt>
<trkpt lat="-27.274439" lon="151.2900651">
  <ele>344.78</ele>
  <time>2026-09-01T19:52:39Z</time>
  <course>180.88</course>
  <speed>0.0</speed>
  <fix>3d</fix>
</trkpt>
<trkpt lat="-27.2744389" lon="151.2900651">
  <ele>345.03</ele>
  <time>2026-09-01T19:52:39Z</time>
  <course>248.83</course>
  <speed>0.0</speed>
  <fix>3d</fix>
</trkpt>
<trkpt lat="-27.274439" lon="151.2900651">
  <ele>344.75</ele>
  <time>2026-09-01T19:52:39Z</time>
  <course>180.88</course>
  <speed>0.0</speed>
  <fix>3d</fix>
</trkpt>
<trkpt lat="-27.274439" lon="151.2900651">
  <ele>344.73</ele>
  <time>2026-09-01T19:52:39Z</time>
  <course>180.88</course>
  <speed>0.0</speed>
  <fix>3d</fix>
</trkpt>
<trkpt lat="-27.2744389" lon="151.2900651">
  <ele>344.93</ele>
  <time>2026-09-01T19:52:39Z</time>
  <course>255.07</course>
  <speed>0.0</speed>
  <fix>3d</fix>
</trkpt>
<trkpt lat="-27.274439" lon="151.2900651">
  <ele>344.71</ele>
  <time>2026-09-01T19:52:39Z</time>
  <course>180.89</course>
  <speed>0.0</speed>
  <fix>3d</fix>
</trkpt>
<trkpt lat="-27.274439" lon="151.2900651">
  <ele>344.68</ele>
  <time>2026-09-01T19:52:39Z</time>
  <course>180.89</course>
  <speed>0.01</speed>
  <fix>3d</fix>
</trkpt>
<trkpt lat="-27.2744389" lon="151.2900651">
  <ele>344.93</ele>
  <time>2026-09-01T19:52:39Z</time>
  <course>255.07</course>
  <speed>0.0</speed>
  <fix>3d</fix>
</trkpt>
<trkpt lat="-27.274439" lon="151.2900651">
  <ele>344.66</ele>
  <time>2026-09-01T19:52:39Z</time>
  <course>180.89</course>
  <speed>0.01</speed>
  <fix>3d</fix>
</trkpt>
<trkpt lat="-27.274439" lon="151.2900651">
  <ele>344.62</ele>
  <time>2026-09-01T19:52:39Z</time>
  <course>180.9</course>
  <speed>0.01</speed>
  <fix>3d</fix>
</trkpt>
<trkpt lat="-27.2744389" lon="151.2900651">
  <ele>344.83</ele>
  <time>2026-09-01T19:52:39Z</time>
  <course>253.17</course>
  <speed>0.0</speed>
  <fix>3d</fix>
</trkpt>
<trkpt lat="-27.274439" lon="151.2900651">
  <ele>344.61</ele>
  <time>2026-09-01T19:52:39Z</time>
  <course>180.9</course>
  <speed>0.01</speed>
  <fix>3d</fix>
</trkpt>
<trkpt lat="-27.274439" lon="151.2900651">
  <ele>344.57</ele>
  <time>2026-09-01T19:52:39Z</time>
  <course>180.9</course>
  <speed>0.01</speed>
  <fix>3d</fix>
</trkpt>
<trkpt lat="-27.2744389" lon="151.2900651">
  <ele>344.83</ele>
  <time>2026-09-01T19:52:39Z</time>
  <course>253.17</course>
  <speed>0.0</speed>
  <fix>3d</fix>
</trkpt>
<trkpt lat="-27.274439" lon="151.2900651">
  <ele>344.56</ele>
  <time>2026-09-01T19:52:39Z</time>
  <course>180.9</course>
  <speed>0.01</speed>
  <fix>3d</fix>
</trkpt>
<trkpt lat="-27.274439" lon="151.2900651">
  <ele>344.52</ele>
  <time>2026-09-01T19:52:39Z</time>
  <course>180.9</course>
  <speed>0.0</speed>
  <fix>3d</fix>
</trkpt>
<trkpt lat="-27.2744389" lon="151.2900651">
  <ele>344.72</ele>
  <time>2026-09-01T19:52:39Z</time>
  <course>253.21</course>
  <speed>0.01</speed>
  <fix>3d</fix>
</trkpt>
<trkpt lat="-27.274439" lon="151.2900651">
  <ele>344.51</ele>
  <time>2026-09-01T19:52:39Z</time>
  <course>180.9</course>
  <speed>0.0</speed>
  <fix>3d</fix>
</trkpt>
<trkpt lat="-27.274439" lon="151.2900651">
  <ele>344.47</ele>
  <time>2026-09-01T19:52:39Z</time>
  <course>180.9</course>
  <speed>0.0</speed>
  <fix>3d</fix>
</trkpt>
<trkpt lat="-27.2744389" lon="151.2900651">
  <ele>344.72</ele>
  <time>2026-09-01T19:52:39Z</time>
  <course>253.21</course>
  <speed>0.01</speed>
  <fix>3d</fix>
</trkpt>
<trkpt lat="-27.274439" lon="151.2900651">
  <ele>344.47</ele>
  <time>2026-09-01T19:52:39Z</time>
  <course>180.9</course>
  <speed>0.0</speed>
  <fix>3d</fix>
</trkpt>
<trkpt lat="-27.274439" lon="151.2900651">
  <ele>344.42</ele>
  <time>2026-09-01T19:52:39Z</time>
  <course>180.9</course>
  <speed>0.0</speed>
  <fix>3d</fix>
</trkpt>
<trkpt lat="-27.2744389" lon="151.2900651">
  <ele>344.62</ele>
  <time>2026-09-01T19:52:39Z</time>
  <course>257.68</course>
  <speed>0.01</speed>
  <fix>3d</fix>
</trkpt>
<trkpt lat="-27.274439" lon="151.2900651">
  <ele>344.42</ele>
  <time>2026-09-01T19:52:39Z</time>
  <course>180.9</course>
  <speed>0.0</speed>
  <fix>3d</fix>
</trkpt>
<trkpt lat="-27.274439" lon="151.2900651">
  <ele>344.37</ele>
  <time>2026-09-01T19:52:39Z</time>
  <course>180.9</course>
  <speed>0.0</speed>
  <fix>3d</fix>
</trkpt>
<trkpt lat="-27.2744389" lon="151.2900651">
  <ele>344.62</ele>
  <time>2026-09-01T19:52:39Z</time>
  <course>257.68</course>
  <speed>0.01</speed>
  <fix>3d</fix>
</trkpt>
<trkpt lat="-27.274439" lon="151.2900651">
  <ele>344.37</ele>
  <time>2026-09-01T19:52:39Z</time>
  <course>180.9</course>
  <speed>0.0</speed>
  <fix>3d</fix>
</trkpt>
<trkpt lat="-27.274439" lon="151.2900651">
  <ele>344.32</ele>
  <time>2026-09-01T19:52:39Z</time>
  <course>180.91</course>
  <speed>0.0</speed>
  <fix>3d</fix>
</trkpt>
<trkpt lat="-27.2744389" lon="151.2900651">
  <ele>344.52</ele>
  <time>2026-09-01T19:52:39Z</time>
  <course>263.2</course>
  <speed>0.01</speed>
  <fix>3d</fix>
</trkpt>
<trkpt lat="-27.274439" lon="151.2900651">
  <ele>344.31</ele>
  <time>2026-09-01T19:52:39Z</time>
  <course>180.91</course>
  <speed>0.0</speed>
  <fix>3d</fix>
</trkpt>
<trkpt lat="-27.274439" lon="151.2900651">
  <ele>344.27</ele>
  <time>2026-09-01T19:52:39Z</time>
  <course>180.91</course>
  <speed>0.0</speed>
  <fix>3d</fix>
</trkpt>
<trkpt lat="-27.2744389" lon="151.2900651">
  <ele>344.52</ele>
  <time>2026-09-01T19:52:39Z</time>
  <course>263.2</course>
  <speed>0.01</speed>
  <fix>3d</fix>
</trkpt>
<trkpt lat="-27.274439" lon="151.2900651">
  <ele>344.26</ele>
  <time>2026-09-01T19:52:39Z</time>
  <course>180.91</course>
  <speed>0.0</speed>
  <fix>3d</fix>
</trkpt>
<trkpt lat="-27.274439" lon="151.2900651">
  <ele>344.22</ele>
  <time>2026-09-01T19:52:39Z</time>
  <course>180.91</course>
  <speed>0.0</speed>
  <fix>3d</fix>
</trkpt>
<trkpt lat="-27.2744389" lon="151.2900651">
  <ele>344.41</ele>
  <time>2026-09-01T19:52:39Z</time>
  <course>267.62</course>
  <speed>0.01</speed>
  <fix>3d</fix>
</trkpt>
<trkpt lat="-27.274439" lon="151.2900651">
  <ele>344.22</ele>
  <time>2026-09-01T19:52:39Z</time>
  <course>180.91</course>
  <speed>0.0</speed>
  <fix>3d</fix>
</trkpt>
<trkpt lat="-27.274439" lon="151.2900651">
  <ele>344.18</ele>
  <time>2026-09-01T19:52:39Z</time>
  <course>180.92</course>
  <speed>0.0</speed>
  <fix>3d</fix>
</trkpt>
<trkpt lat="-27.2744389" lon="151.2900651">
  <ele>344.41</ele>
  <time>2026-09-01T19:52:39Z</time>
  <course>267.62</course>
  <speed>0.01</speed>
  <fix>3d</fix>
</trkpt>
<trkpt lat="-27.274439" lon="151.2900651">
  <ele>344.17</ele>
  <time>2026-09-01T19:52:39Z</time>
  <course>180.92</course>
  <speed>0.0</speed>
  <fix>3d</fix>
</trkpt>
<trkpt lat="-27.274439" lon="151.2900651">
  <ele>344.13</ele>
  <time>2026-09-01T19:52:39Z</time>
  <course>180.93</course>
  <speed>0.0</speed>
  <fix>3d</fix>
</trkpt>
<trkpt lat="-27.2744389" lon="151.2900651">
  <ele>344.32</ele>
  <time>2026-09-01T19:52:39Z</time>
  <course>270.27</course>
  <speed>0.01</speed>
  <fix>3d</fix>
</trkpt>
<trkpt lat="-27.274439" lon="151.2900651">
  <ele>344.12</ele>
  <time>2026-09-01T19:52:39Z</time>
  <course>180.93</course>
  <speed>0.0</speed>
  <fix>3d</fix>
</trkpt>
<trkpt lat="-27.274439" lon="151.2900651">
  <ele>344.08</ele>
  <time>2026-09-01T19:52:39Z</time>
  <course>180.94</course>
  <speed>0.0</speed>
  <fix>3d</fix>
</trkpt>
<trkpt lat="-27.2744389" lon="151.2900651">
  <ele>344.32</ele>
  <time>2026-09-01T19:52:39Z</time>
  <course>270.27</course>
  <speed>0.01</speed>
  <fix>3d</fix>
</trkpt>
<trkpt lat="-27.274439" lon="151.2900651">
  <ele>344.07</ele>
  <time>2026-09-01T19:52:39Z</time>
  <course>180.95</course>
  <speed>0.0</speed>
  <fix>3d</fix>
</trkpt>
<trkpt lat="-27.274439" lon="151.290065">
  <ele>344.03</ele>
  <time>2026-09-01T19:52:39Z</time>
  <course>180.96</course>
  <speed>0.0</speed>
  <fix>3d</fix>
</trkpt>
<trkpt lat="-27.2744389" lon="151.2900651">
  <ele>344.22</ele>
  <time>2026-09-01T19:52:39Z</time>
  <course>270.34</course>
  <speed>0.01</speed>
  <fix>3d</fix>
</trkpt>
<trkpt lat="-27.274439" lon="151.290065">
  <ele>343.98</ele>
  <time>2026-09-01T19:52:39Z</time>
  <course>180.97</course>
  <speed>0.0</speed>
  <fix>3d</fix>
</trkpt>
<trkpt lat="-27.2744389" lon="151.2900651">
  <ele>344.22</ele>
  <time>2026-09-01T19:52:39Z</time>
  <course>270.34</course>
  <speed>0.01</speed>
  <fix>3d</fix>
</trkpt>
<trkpt lat="-27.274439" lon="151.290065">
  <ele>343.93</ele>
  <time>2026-09-01T19:52:39Z</time>
  <course>180.97</course>
  <speed>0.0</speed>
  <fix>3d</fix>
</trkpt>
<trkpt lat="-27.2744389" lon="151.2900651">
  <ele>344.12</ele>
  <time>2026-09-01T19:52:39Z</time>
  <course>269.83</course>
  <speed>0.01</speed>
  <fix>3d</fix>
</trkpt>
<trkpt lat="-27.274439" lon="151.290065">
  <ele>343.88</ele>
  <time>2026-09-01T19:52:39Z</time>
  <course>180.97</course>
  <speed>0.0</speed>
  <fix>3d</fix>
</trkpt>
<trkpt lat="-27.2744389" lon="151.2900651">
  <ele>344.12</ele>
  <time>2026-09-01T19:52:39Z</time>
  <course>269.83</course>
  <speed>0.01</speed>
  <fix>3d</fix>
</trkpt>
<trkpt lat="-27.274439" lon="151.290065">
  <ele>343.83</ele>
  <time>2026-09-01T19:52:39Z</time>
  <course>180.96</course>
  <speed>0.0</speed>
  <fix>3d</fix>
</trkpt>
<trkpt lat="-27.2744389" lon="151.290065">
  <ele>344.02</ele>
  <time>2026-09-01T19:52:39Z</time>
  <course>270.63</course>
  <speed>0.01</speed>
  <fix>3d</fix>
</trkpt>
<trkpt lat="-27.274439" lon="151.290065">
  <ele>343.78</ele>
  <time>2026-09-01T19:52:39Z</time>
  <course>180.96</course>
  <speed>0.0</speed>
  <fix>3d</fix>
</trkpt>
<trkpt lat="-27.2744389" lon="151.290065">
  <ele>344.02</ele>
  <time>2026-09-01T19:52:39Z</time>
  <course>270.63</course>
  <speed>0.01</speed>
  <fix>3d</fix>
</trkpt>
<trkpt lat="-27.274439" lon="151.290065">
  <ele>343.73</ele>
  <time>2026-09-01T19:52:40Z</time>
  <course>180.96</course>
  <speed>0.0</speed>
  <fix>3d</fix>
</trkpt>
<trkpt lat="-27.2744389" lon="151.290065">
  <ele>343.91</ele>
  <time>2026-09-01T19:52:40Z</time>
  <course>271.76</course>
  <speed>0.02</speed>
  <fix>3d</fix>
</trkpt>
<trkpt lat="-27.274439" lon="151.290065">
  <ele>343.67</ele>
  <time>2026-09-01T19:52:40Z</time>
  <course>180.96</course>
  <speed>0.0</speed>
  <fix>3d</fix>
</trkpt>
<trkpt lat="-27.2744389" lon="151.290065">
  <ele>343.91</ele>
  <time>2026-09-01T19:52:40Z</time>
  <course>271.76</course>
  <speed>0.02</speed>
  <fix>3d</fix>
</trkpt>
<trkpt lat="-27.274439" lon="151.290065">
  <ele>343.62</ele>
  <time>2026-09-01T19:52:40Z</time>
  <course>180.96</course>
  <speed>0.0</speed>
  <fix>3d</fix>
</trkpt>
<trkpt lat="-27.2744389" lon="151.2900649">
  <ele>343.82</ele>
  <time>2026-09-01T19:52:40Z</time>
  <course>272.25</course>
  <speed>0.02</speed>
  <fix>3d</fix>
</trkpt>
<trkpt lat="-27.274439" lon="151.290065">
  <ele>343.57</ele>
  <time>2026-09-01T19:52:40Z</time>
  <course>180.96</course>
  <speed>0.0</speed>
  <fix>3d</fix>
</trkpt>
<trkpt lat="-27.2744389" lon="151.2900649">
  <ele>343.82</ele>
  <time>2026-09-01T19:52:40Z</time>
  <course>272.25</course>
  <speed>0.02</speed>
  <fix>3d</fix>
</trkpt>
<trkpt lat="-27.274439" lon="151.290065">
  <ele>343.52</ele>
  <time>2026-09-01T19:52:40Z</time>
  <course>180.95</course>
  <speed>0.0</speed>
  <fix>3d</fix>
</trkpt>
<trkpt lat="-27.2744389" lon="151.2900649">
  <ele>343.72</ele>
  <time>2026-09-01T19:52:40Z</time>
  <course>271.97</course>
  <speed>0.02</speed>
  <fix>3d</fix>
</trkpt>
<trkpt lat="-27.274439" lon="151.2900649">
  <ele>343.47</ele>
  <time>2026-09-01T19:52:40Z</time>
  <course>180.94</course>
  <speed>0.0</speed>
  <fix>3d</fix>
</trkpt>
<trkpt lat="-27.2744389" lon="151.2900649">
  <ele>343.72</ele>
  <time>2026-09-01T19:52:40Z</time>
  <course>271.97</course>
  <speed>0.02</speed>
  <fix>3d</fix>
</trkpt>
<trkpt lat="-27.274439" lon="151.2900649">
  <ele>343.42</ele>
  <time>2026-09-01T19:52:40Z</time>
  <course>180.93</course>
  <speed>0.01</speed>
  <fix>3d</fix>
</trkpt>
<trkpt lat="-27.2744389" lon="151.2900649">
  <ele>343.61</ele>
  <time>2026-09-01T19:52:40Z</time>
  <course>270.95</course>
  <speed>0.02</speed>
  <fix>3d</fix>
</trkpt>
<trkpt lat="-27.274439" lon="151.2900649">
  <ele>343.37</ele>
  <time>2026-09-01T19:52:40Z</time>
  <course>180.91</course>
  <speed>0.01</speed>
  <fix>3d</fix>
</trkpt>
<trkpt lat="-27.2744389" lon="151.2900649">
  <ele>343.61</ele>
  <time>2026-09-01T19:52:40Z</time>
  <course>270.95</course>
  <speed>0.02</speed>
  <fix>3d</fix>
</trkpt>
<trkpt lat="-27.274439" lon="151.2900649">
  <ele>343.32</ele>
  <time>2026-09-01T19:52:40Z</time>
  <course>180.9</course>
  <speed>0.01</speed>
  <fix>3d</fix>
</trkpt>
<trkpt lat="-27.2744389" lon="151.2900648">
  <ele>343.51</ele>
  <time>2026-09-01T19:52:40Z</time>
  <course>269.48</course>
  <speed>0.02</speed>
  <fix>3d</fix>
</trkpt>
<trkpt lat="-27.274439" lon="151.2900649">
  <ele>343.27</ele>
  <time>2026-09-01T19:52:40Z</time>
  <course>180.89</course>
  <speed>0.01</speed>
  <fix>3d</fix>
</trkpt>
<trkpt lat="-27.2744389" lon="151.2900648">
  <ele>343.51</ele>
  <time>2026-09-01T19:52:40Z</time>
  <course>269.48</course>
  <speed>0.02</speed>
  <fix>3d</fix>
</trkpt>
<trkpt lat="-27.274439" lon="151.2900648">
  <ele>343.22</ele>
  <time>2026-09-01T19:52:40Z</time>
  <course>180.89</course>
  <speed>0.0</speed>
  <fix>3d</fix>
</trkpt>
<trkpt lat="-27.2744389" lon="151.2900647">
  <ele>343.4</ele>
  <time>2026-09-01T19:52:40Z</time>
  <course>268.95</course>
  <speed>0.02</speed>
  <fix>3d</fix>
</trkpt>
<trkpt lat="-27.274439" lon="151.2900648">
  <ele>343.17</ele>
  <time>2026-09-01T19:52:40Z</time>
  <course>180.89</course>
  <speed>0.0</speed>
  <fix>3d</fix>
</trkpt>
<trkpt lat="-27.2744389" lon="151.2900647">
  <ele>343.4</ele>
  <time>2026-09-01T19:52:40Z</time>
  <course>268.95</course>
  <speed>0.02</speed>
  <fix>3d</fix>
</trkpt>
<trkpt lat="-27.274439" lon="151.2900648">
  <ele>343.12</ele>
  <time>2026-09-01T19:52:40Z</time>
  <course>180.89</course>
  <speed>0.0</speed>
  <fix>3d</fix>
</trkpt>
<trkpt lat="-27.2744389" lon="151.2900647">
  <ele>343.31</ele>
  <time>2026-09-01T19:52:40Z</time>
  <course>269.96</course>
  <speed>0.02</speed>
  <fix>3d</fix>
</trkpt>
<trkpt lat="-27.274439" lon="151.2900648">
  <ele>343.07</ele>
  <time>2026-09-01T19:52:40Z</time>
  <course>180.9</course>
  <speed>0.0</speed>
  <fix>3d</fix>
</trkpt>
<trkpt lat="-27.2744389" lon="151.2900647">
  <ele>343.31</ele>
  <time>2026-09-01T19:52:40Z</time>
  <course>269.96</course>
  <speed>0.02</speed>
  <fix>3d</fix>
</trkpt>
<trkpt lat="-27.274439" lon="151.2900648">
  <ele>343.02</ele>
  <time>2026-09-01T19:52:40Z</time>
  <course>180.9</course>
  <speed>0.0</speed>
  <fix>3d</fix>
</trkpt>
<trkpt lat="-27.2744389" lon="151.2900646">
  <ele>343.21</ele>
  <time>2026-09-01T19:52:40Z</time>
  <course>271.49</course>
  <speed>0.02</speed>
  <fix>3d</fix>
</trkpt>
<trkpt lat="-27.274439" lon="151.2900647">
  <ele>342.98</ele>
  <time>2026-09-01T19:52:40Z</time>
  <course>180.9</course>
  <speed>0.0</speed>
  <fix>3d</fix>
</trkpt>
<trkpt lat="-27.2744389" lon="151.2900646">
  <ele>343.21</ele>
  <time>2026-09-01T19:52:40Z</time>
  <course>271.49</course>
  <speed>0.02</speed>
  <fix>3d</fix>
</trkpt>
<trkpt lat="-27.274439" lon="151.2900647">
  <ele>342.99</ele>
  <time>2026-09-01T19:52:40Z</time>
  <course>180.9</course>
  <speed>0.02</speed>
  <fix>3d</fix>
</trkpt>
<trkpt lat="-27.2744389" lon="151.2900646">
  <ele>343.11</ele>
  <time>2026-09-01T19:52:40Z</time>
  <course>272.26</course>
  <speed>0.01</speed>
  <fix>3d</fix>
</trkpt>
<trkpt lat="-27.274439" lon="151.2900648">
  <ele>343.01</ele>
  <time>2026-09-01T19:52:40Z</time>
  <course>180.9</course>
  <speed>0.02</speed>
  <fix>3d</fix>
</trkpt>
<trkpt lat="-27.2744389" lon="151.2900646">
  <ele>343.11</ele>
  <time>2026-09-01T19:52:40Z</time>
  <course>272.26</course>
  <speed>0.01</speed>
  <fix>3d</fix>
</trkpt>
<trkpt lat="-27.274439" lon="151.2900648">
  <ele>343.02</ele>
  <time>2026-09-01T19:52:40Z</time>
  <course>180.9</course>
  <speed>0.01</speed>
  <fix>3d</fix>
</trkpt>
<trkpt lat="-27.2744389" lon="151.2900646">
  <ele>343.07</ele>
  <time>2026-09-01T19:52:40Z</time>
  <course>272.35</course>
  <speed>0.0</speed>
  <fix>3d</fix>
</trkpt>
<trkpt lat="-27.274439" lon="151.2900648">
  <ele>343.02</ele>
  <time>2026-09-01T19:52:40Z</time>
  <course>180.89</course>
  <speed>0.01</speed>
  <fix>3d</fix>
</trkpt>
<trkpt lat="-27.2744389" lon="151.2900646">
  <ele>343.07</ele>
  <time>2026-09-01T19:52:40Z</time>
  <course>272.35</course>
  <speed>0.0</speed>
  <fix>3d</fix>
</trkpt>
<trkpt lat="-27.274439" lon="151.2900648">
  <ele>343.02</ele>
  <time>2026-09-01T19:52:40Z</time>
  <course>180.89</course>
  <speed>0.01</speed>
  <fix>3d</fix>
</trkpt>
<trkpt lat="-27.2744389" lon="151.2900646">
  <ele>343.09</ele>
  <time>2026-09-01T19:52:40Z</time>
  <course>92.39</course>
  <speed>0.0</speed>
  <fix>3d</fix>
</trkpt>
<trkpt lat="-27.274439" lon="151.2900647">
  <ele>343.01</ele>
  <time>2026-09-01T19:52:40Z</time>
  <course>180.89</course>
  <speed>0.01</speed>
  <fix>3d</fix>
</trkpt>
<trkpt lat="-27.2744389" lon="151.2900646">
  <ele>343.09</ele>
  <time>2026-09-01T19:52:40Z</time>
  <course>92.39</course>
  <speed>0.0</speed>
  <fix>3d</fix>
</trkpt>
<trkpt lat="-27.274439" lon="151.2900647">
  <ele>343.01</ele>
  <time>2026-09-01T19:52:40Z</time>
  <course>180.89</course>
  <speed>0.01</speed>
  <fix>3d</fix>
</trkpt>
<trkpt lat="-27.2744389" lon="151.2900646">
  <ele>343.1</ele>
  <time>2026-09-01T19:52:40Z</time>
  <course>272.4</course>
  <speed>0.0</speed>
  <fix>3d</fix>
</trkpt>
<trkpt lat="-27.274439" lon="151.2900647">
  <ele>343.01</ele>
  <time>2026-09-01T19:52:40Z</time>
  <course>180.89</course>
  <speed>0.01</speed>
  <fix>3d</fix>
</trkpt>
<trkpt lat="-27.2744389" lon="151.2900646">
  <ele>343.1</ele>
  <time>2026-09-01T19:52:40Z</time>
  <course>272.4</course>
  <speed>0.0</speed>
  <fix>3d</fix>
</trkpt>
<trkpt lat="-27.274439" lon="151.2900647">
  <ele>343.02</ele>
  <time>2026-09-01T19:52:40Z</time>
  <course>180.89</course>
  <speed>0.01</speed>
  <fix>3d</fix>
</trkpt>
<trkpt lat="-27.2744389" lon="151.2900646">
  <ele>343.09</ele>
  <time>2026-09-01T19:52:40Z</time>
  <course>272.38</course>
  <speed>0.0</speed>
  <fix>3d</fix>
</trkpt>
<trkpt lat="-27.274439" lon="151.2900647">
  <ele>343.02</ele>
  <time>2026-09-01T19:52:40Z</time>
  <course>180.88</course>
  <speed>0.01</speed>
  <fix>3d</fix>
</trkpt>
<trkpt lat="-27.2744389" lon="151.2900646">
  <ele>343.09</ele>
  <time>2026-09-01T19:52:40Z</time>
  <course>272.38</course>
  <speed>0.0</speed>
  <fix>3d</fix>
</trkpt>
<trkpt lat="-27.274439" lon="151.2900647">
  <ele>343.02</ele>
  <time>2026-09-01T19:52:40Z</time>
  <course>180.88</course>
  <speed>0.01</speed>
  <fix>3d</fix>
</trkpt>
<trkpt lat="-27.2744389" lon="151.2900646">
  <ele>343.09</ele>
  <time>2026-09-01T19:52:40Z</time>
  <course>92.43</course>
  <speed>0.0</speed>
  <fix>3d</fix>
</trkpt>
<trkpt lat="-27.274439" lon="151.2900647">
  <ele>343.02</ele>
  <time>2026-09-01T19:52:40Z</time>
  <course>180.88</course>
  <speed>0.01</speed>
  <fix>3d</fix>
</trkpt>
<trkpt lat="-27.2744389" lon="151.2900646">
  <ele>343.09</ele>
  <time>2026-09-01T19:52:40Z</time>
  <course>92.43</course>
  <speed>0.0</speed>
  <fix>3d</fix>
</trkpt>
<trkpt lat="-27.274439" lon="151.2900647">
  <ele>343.02</ele>
  <time>2026-09-01T19:52:40Z</time>
  <course>180.88</course>
  <speed>0.01</speed>
  <fix>3d</fix>
</trkpt>
<trkpt lat="-27.2744389" lon="151.2900646">
  <ele>343.1</ele>
  <time>2026-09-01T19:52:40Z</time>
  <course>92.47</course>
  <speed>0.0</speed>
  <fix>3d</fix>
</trkpt>
<trkpt lat="-27.274439" lon="151.2900647">
  <ele>343.02</ele>
  <time>2026-09-01T19:52:40Z</time>
  <course>180.88</course>
  <speed>0.01414213562373095</speed>
  <fix>3d</fix>
</trkpt>
<trkpt lat="-27.2744389" lon="151.2900646">
  <ele>343.1</ele>
  <time>2026-09-01T19:52:40Z</time>
  <course>92.47</course>
  <speed>0.0</speed>
  <fix>3d</fix>
</trkpt>
<trkpt lat="-27.274439" lon="151.2900647">
  <ele>343.02</ele>
  <time>2026-09-01T19:52:40Z</time>
  <course>180.88</course>
  <speed>0.01414213562373095</speed>
  <fix>3d</fix>
</trkpt>
<trkpt lat="-27.2744389" lon="151.2900646">
  <ele>343.1</ele>
  <time>2026-09-01T19:52:40Z</time>
  <course>272.22</course>
  <speed>0.0</speed>
  <fix>3d</fix>
</trkpt>
<trkpt lat="-27.274439" lon="151.2900647">
  <ele>343.02</ele>
  <time>2026-09-01T19:52:40Z</time>
  <course>180.88</course>
  <speed>0.01414213562373095</speed>
  <fix>3d</fix>
</trkpt>
<trkpt lat="-27.2744389" lon="151.2900646">
  <ele>343.1</ele>
  <time>2026-09-01T19:52:40Z</time>
  <course>272.22</course>
  <speed>0.0</speed>
  <fix>3d</fix>
</trkpt>
<trkpt lat="-27.274439" lon="151.2900647">
  <ele>343.02</ele>
  <time>2026-09-01T19:52:40Z</time>
  <course>180.87</course>
  <speed>0.01414213562373095</speed>
  <fix>3d</fix>
</trkpt>
<trkpt lat="-27.2744389" lon="151.2900646">
  <ele>343.1</ele>
  <time>2026-09-01T19:52:40Z</time>
  <course>272.21</course>
  <speed>0.0</speed>
  <fix>3d</fix>
</trkpt>
<trkpt lat="-27.274439" lon="151.2900647">
  <ele>343.02</ele>
  <time>2026-09-01T19:52:40Z</time>
  <course>180.87</course>
  <speed>0.01414213562373095</speed>
  <fix>3d</fix>
</trkpt>
<trkpt lat="-27.2744389" lon="151.2900646">
  <ele>343.1</ele>
  <time>2026-09-01T19:52:40Z</time>
  <course>272.21</course>
  <speed>0.0</speed>
  <fix>3d</fix>
</trkpt>
<trkpt lat="-27.274439" lon="151.2900647">
  <ele>343.02</ele>
  <time>2026-09-01T19:52:40Z</time>
  <course>180.87</course>
  <speed>0.01414213562373095</speed>
  <fix>3d</fix>
</trkpt>
<trkpt lat="-27.2744389" lon="151.2900646">
  <ele>343.1</ele>
  <time>2026-09-01T19:52:40Z</time>
  <course>92.64</course>
  <speed>0.0</speed>
  <fix>3d</fix>
</trkpt>
<trkpt lat="-27.274439" lon="151.2900647">
  <ele>343.02</ele>
  <time>2026-09-01T19:52:40Z</time>
  <course>180.87</course>
  <speed>0.01414213562373095</speed>
  <fix>3d</fix>
</trkpt>
<trkpt lat="-27.2744389" lon="151.2900646">
  <ele>343.1</ele>
  <time>2026-09-01T19:52:40Z</time>
  <course>92.64</course>
  <speed>0.0</speed>
  <fix>3d</fix>
</trkpt>
<trkpt lat="-27.274439" lon="151.2900647">
  <ele>343.02</ele>
  <time>2026-09-01T19:52:40Z</time>
  <course>180.87</course>
  <speed>0.01414213562373095</speed>
  <fix>3d</fix>
</trkpt>
<trkpt lat="-27.2744389" lon="151.2900646">
  <ele>343.1</ele>
  <time>2026-09-01T19:52:40Z</time>
  <course>98.31</course>
  <speed>0.0</speed>
  <fix>3d</fix>
</trkpt>
<trkpt lat="-27.274439" lon="151.2900647">
  <ele>343.02</ele>
  <time>2026-09-01T19:52:40Z</time>
  <course>180.87</course>
  <speed>0.01414213562373095</speed>
  <fix>3d</fix>
</trkpt>
<trkpt lat="-27.2744389" lon="151.2900646">
  <ele>343.1</ele>
  <time>2026-09-01T19:52:40Z</time>
  <course>98.31</course>
  <speed>0.0</speed>
  <fix>3d</fix>
</trkpt>
<trkpt lat="-27.274439" lon="151.2900647">
  <ele>343.02</ele>
  <time>2026-09-01T19:52:40Z</time>
  <course>180.87</course>
  <speed>0.01414213562373095</speed>
  <fix>3d</fix>
</trkpt>
<trkpt lat="-27.2744389" lon="151.2900646">
  <ele>343.1</ele>
  <time>2026-09-01T19:52:40Z</time>
  <course>268.64</course>
  <speed>0.0</speed>
  <fix>3d</fix>
</trkpt>
<trkpt lat="-27.274439" lon="151.2900647">
  <ele>343.02</ele>
  <time>2026-09-01T19:52:40Z</time>
  <course>180.86</course>
  <speed>0.01414213562373095</speed>
  <fix>3d</fix>
</trkpt>
<trkpt lat="-27.2744389" lon="151.2900646">
  <ele>343.1</ele>
  <time>2026-09-01T19:52:40Z</time>
  <course>268.64</course>
  <speed>0.0</speed>
  <fix>3d</fix>
</trkpt>
<trkpt lat="-27.274439" lon="151.2900647">
  <ele>343.02</ele>
  <time>2026-09-01T19:52:40Z</time>
  <course>180.86</course>
  <speed>0.01414213562373095</speed>
  <fix>3d</fix>
</trkpt>
<trkpt lat="-27.2744389" lon="151.2900646">
  <ele>343.1</ele>
  <time>2026-09-01T19:52:40Z</time>
  <course>308.54</course>
  <speed>0.0</speed>
  <fix>3d</fix>
</trkpt>
<trkpt lat="-27.274439" lon="151.2900647">
  <ele>343.02</ele>
  <time>2026-09-01T19:52:40Z</time>
  <course>180.86</course>
  <speed>0.01414213562373095</speed>
  <fix>3d</fix>
</trkpt>
<trkpt lat="-27.2744389" lon="151.2900646">
  <ele>343.1</ele>
  <time>2026-09-01T19:52:40Z</time>
  <course>308.54</course>
  <speed>0.0</speed>
  <fix>3d</fix>
</trkpt>
<trkpt lat="-27.274439" lon="151.2900647">
  <ele>343.02</ele>
  <time>2026-09-01T19:52:40Z</time>
  <course>180.86</course>
  <speed>0.01414213562373095</speed>
  <fix>3d</fix>
</trkpt>
<trkpt lat="-27.2744389" lon="151.2900646">
  <ele>343.1</ele>
  <time>2026-09-01T19:52:40Z</time>
  <course>316.64</course>
  <speed>0.0</speed>
  <fix>3d</fix>
</trkpt>
<trkpt lat="-27.274439" lon="151.2900647">
  <ele>343.02</ele>
  <time>2026-09-01T19:52:40Z</time>
  <course>180.86</course>
  <speed>0.01414213562373095</speed>
  <fix>3d</fix>
</trkpt>
<trkpt lat="-27.2744389" lon="151.2900646">
  <ele>343.1</ele>
  <time>2026-09-01T19:52:40Z</time>
  <course>316.64</course>
  <speed>0.0</speed>
  <fix>3d</fix>
</trkpt>
<trkpt lat="-27.274439" lon="151.2900647">
  <ele>343.02</ele>
  <time>2026-09-01T19:52:40Z</time>
  <course>180.86</course>
  <speed>0.01414213562373095</speed>
  <fix>3d</fix>
</trkpt>
<trkpt lat="-27.2744389" lon="151.2900646">
  <ele>343.1</ele>
  <time>2026-09-01T19:52:40Z</time>
  <course>288.74</course>
  <speed>0.0</speed>
  <fix>3d</fix>
</trkpt>
<trkpt lat="-27.274439" lon="151.2900647">
  <ele>343.02</ele>
  <time>2026-09-01T19:52:40Z</time>
  <course>180.86</course>
  <speed>0.01414213562373095</speed>
  <fix>3d</fix>
</trkpt>
<trkpt lat="-27.2744389" lon="151.2900646">
  <ele>343.1</ele>
  <time>2026-09-01T19:52:40Z</time>
  <course>288.74</course>
  <speed>0.0</speed>
  <fix>3d</fix>
</trkpt>
<trkpt lat="-27.274439" lon="151.2900647">
  <ele>343.01</ele>
  <time>2026-09-01T19:52:40Z</time>
  <course>180.85</course>
  <speed>0.01414213562373095</speed>
  <fix>3d</fix>
</trkpt>
<trkpt lat="-27.2744389" lon="151.2900646">
  <ele>343.1</ele>
  <time>2026-09-01T19:52:40Z</time>
  <course>327.67</course>
  <speed>0.0</speed>
  <fix>3d</fix>
</trkpt>
<trkpt lat="-27.274439" lon="151.2900647">
  <ele>343.01</ele>
  <time>2026-09-01T19:52:40Z</time>
  <course>180.85</course>
  <speed>0.01414213562373095</speed>
  <fix>3d</fix>
</trkpt>
<trkpt lat="-27.2744389" lon="151.2900646">
  <ele>343.1</ele>
  <time>2026-09-01T19:52:40Z</time>
  <course>327.67</course>
  <speed>0.0</speed>
  <fix>3d</fix>
</trkpt>
<trkpt lat="-27.274439" lon="151.2900647">
  <ele>343.01</ele>
  <time>2026-09-01T19:52:40Z</time>
  <course>180.85</course>
  <speed>0.01414213562373095</speed>
  <fix>3d</fix>
</trkpt>
<trkpt lat="-27.2744389" lon="151.2900646">
  <ele>343.1</ele>
  <time>2026-09-01T19:52:40Z</time>
  <course>115.33</course>
  <speed>0.0</speed>
  <fix>3d</fix>
</trkpt>
<trkpt lat="-27.274439" lon="151.2900647">
  <ele>343.01</ele>
  <time>2026-09-01T19:52:40Z</time>
  <course>180.85</course>
  <speed>0.01414213562373095</speed>
  <fix>3d</fix>
</trkpt>
<trkpt lat="-27.2744389" lon="151.2900646">
  <ele>343.1</ele>
  <time>2026-09-01T19:52:40Z</time>
  <course>115.33</course>
  <speed>0.0</speed>
  <fix>3d</fix>
</trkpt>
<trkpt lat="-27.274439" lon="151.2900647">
  <ele>343.01</ele>
  <time>2026-09-01T19:52:40Z</time>
  <course>180.85</course>
  <speed>0.01414213562373095</speed>
  <fix>3d</fix>
</trkpt>
<trkpt lat="-27.2744389" lon="151.2900646">
  <ele>343.1</ele>
  <time>2026-09-01T19:52:40Z</time>
  <course>187.75</course>
  <speed>0.0</speed>
  <fix>3d</fix>
</trkpt>
<trkpt lat="-27.274439" lon="151.2900647">
  <ele>343.01</ele>
  <time>2026-09-01T19:52:40Z</time>
  <course>180.85</course>
  <speed>0.01414213562373095</speed>
  <fix>3d</fix>
</trkpt>
<trkpt lat="-27.2744389" lon="151.2900646">
  <ele>343.1</ele>
  <time>2026-09-01T19:52:40Z</time>
  <course>187.75</course>
  <speed>0.0</speed>
  <fix>3d</fix>
</trkpt>
<trkpt lat="-27.274439" lon="151.2900647">
  <ele>343.01</ele>
  <time>2026-09-01T19:52:40Z</time>
  <course>180.84</course>
  <speed>0.01414213562373095</speed>
  <fix>3d</fix>
</trkpt>
<trkpt lat="-27.2744389" lon="151.2900646">
  <ele>343.1</ele>
  <time>2026-09-01T19:52:40Z</time>
  <course>299.55</course>
  <speed>0.0</speed>
  <fix>3d</fix>
</trkpt>
<trkpt lat="-27.274439" lon="151.2900647">
  <ele>343.01</ele>
  <time>2026-09-01T19:52:40Z</time>
  <course>180.84</course>
  <speed>0.01414213562373095</speed>
  <fix>3d</fix>
</trkpt>
<trkpt lat="-27.2744389" lon="151.2900646">
  <ele>343.1</ele>
  <time>2026-09-01T19:52:40Z</time>
  <course>299.55</course>
  <speed>0.0</speed>
  <fix>3d</fix>
</trkpt>
<trkpt lat="-27.274439" lon="151.2900647">
  <ele>343.01</ele>
  <time>2026-09-01T19:52:40Z</time>
  <course>180.84</course>
  <speed>0.01414213562373095</speed>
  <fix>3d</fix>
</trkpt>
<trkpt lat="-27.2744389" lon="151.2900646">
  <ele>343.1</ele>
  <time>2026-09-01T19:52:40Z</time>
  <course>356.88</course>
  <speed>0.0</speed>
  <fix>3d</fix>
</trkpt>
<trkpt lat="-27.274439" lon="151.2900647">
  <ele>343.01</ele>
  <time>2026-09-01T19:52:40Z</time>
  <course>180.84</course>
  <speed>0.01414213562373095</speed>
  <fix>3d</fix>
</trkpt>
<trkpt lat="-27.2744389" lon="151.2900646">
  <ele>343.1</ele>
  <time>2026-09-01T19:52:40Z</time>
  <course>356.88</course>
  <speed>0.0</speed>
  <fix>3d</fix>
</trkpt>
<trkpt lat="-27.274439" lon="151.2900647">
  <ele>343.01</ele>
  <time>2026-09-01T19:52:40Z</time>
  <course>180.84</course>
  <speed>0.01414213562373095</speed>
  <fix>3d</fix>
</trkpt>
<trkpt lat="-27.2744389" lon="151.2900646">
  <ele>343.1</ele>
  <time>2026-09-01T19:52:40Z</time>
  <course>188.25</course>
  <speed>0.0</speed>
  <fix>3d</fix>
</trkpt>
<trkpt lat="-27.274439" lon="151.2900647">
  <ele>343.01</ele>
  <time>2026-09-01T19:52:40Z</time>
  <course>180.84</course>
  <speed>0.01414213562373095</speed>
  <fix>3d</fix>
</trkpt>
<trkpt lat="-27.2744389" lon="151.2900646">
  <ele>343.1</ele>
  <time>2026-09-01T19:52:40Z</time>
  <course>188.25</course>
  <speed>0.0</speed>
  <fix>3d</fix>
</trkpt>
<trkpt lat="-27.274439" lon="151.2900647">
  <ele>343.01</ele>
  <time>2026-09-01T19:52:40Z</time>
  <course>180.84</course>
  <speed>0.01414213562373095</speed>
  <fix>3d</fix>
</trkpt>
<trkpt lat="-27.2744389" lon="151.2900646">
  <ele>343.1</ele>
  <time>2026-09-01T19:52:40Z</time>
  <course>92.17</course>
  <speed>0.0</speed>
  <fix>3d</fix>
</trkpt>
<trkpt lat="-27.274439" lon="151.2900647">
  <ele>343.01</ele>
  <time>2026-09-01T19:52:40Z</time>
  <course>180.83</course>
  <speed>0.01414213562373095</speed>
  <fix>3d</fix>
</trkpt>
<trkpt lat="-27.2744389" lon="151.2900646">
  <ele>343.1</ele>
  <time>2026-09-01T19:52:40Z</time>
  <course>92.17</course>
  <speed>0.0</speed>
  <fix>3d</fix>
</trkpt>
<trkpt lat="-27.274439" lon="151.2900647">
  <ele>343.01</ele>
  <time>2026-09-01T19:52:40Z</time>
  <course>180.83</course>
  <speed>0.01414213562373095</speed>
  <fix>3d</fix>
</trkpt>
<trkpt lat="-27.2744389" lon="151.2900646">
  <ele>343.1</ele>
  <time>2026-09-01T19:52:40Z</time>
  <course>90.44</course>
  <speed>0.0</speed>
  <fix>3d</fix>
</trkpt>
<trkpt lat="-27.274439" lon="151.2900647">
  <ele>343.02</ele>
  <time>2026-09-01T19:52:40Z</time>
  <course>180.83</course>
  <speed>0.01414213562373095</speed>
  <fix>3d</fix>
</trkpt>
<trkpt lat="-27.2744389" lon="151.2900646">
  <ele>343.1</ele>
  <time>2026-09-01T19:52:40Z</time>
  <course>90.44</course>
  <speed>0.0</speed>
  <fix>3d</fix>
</trkpt>
<trkpt lat="-27.274439" lon="151.2900647">
  <ele>343.02</ele>
  <time>2026-09-01T19:52:40Z</time>
  <course>180.83</course>
  <speed>0.01414213562373095</speed>
  <fix>3d</fix>
</trkpt>
<trkpt lat="-27.2744389" lon="151.2900646">
  <ele>343.1</ele>
  <time>2026-09-01T19:52:40Z</time>
  <course>87.17</course>
  <speed>0.0</speed>
  <fix>3d</fix>
</trkpt>
<trkpt lat="-27.274439" lon="151.2900647">
  <ele>343.02</ele>
  <time>2026-09-01T19:52:40Z</time>
  <course>180.83</course>
  <speed>0.01414213562373095</speed>
  <fix>3d</fix>
</trkpt>
<trkpt lat="-27.2744389" lon="151.2900646">
  <ele>343.1</ele>
  <time>2026-09-01T19:52:40Z</time>
  <course>87.17</course>
  <speed>0.0</speed>
  <fix>3d</fix>
</trkpt>
<trkpt lat="-27.274439" lon="151.2900647">
  <ele>343.02</ele>
  <time>2026-09-01T19:52:40Z</time>
  <course>180.83</course>
  <speed>0.01414213562373095</speed>
  <fix>3d</fix>
</trkpt>
<trkpt lat="-27.2744389" lon="151.2900646">
  <ele>343.1</ele>
  <time>2026-09-01T19:52:40Z</time>
  <course>270.08</course>
  <speed>0.0</speed>
  <fix>3d</fix>
</trkpt>
<trkpt lat="-27.274439" lon="151.2900647">
  <ele>343.02</ele>
  <time>2026-09-01T19:52:40Z</time>
  <course>180.82</course>
  <speed>0.01414213562373095</speed>
  <fix>3d</fix>
</trkpt>
<trkpt lat="-27.2744389" lon="151.2900646">
  <ele>343.1</ele>
  <time>2026-09-01T19:52:40Z</time>
  <course>270.08</course>
  <speed>0.0</speed>
  <fix>3d</fix>
</trkpt>
<trkpt lat="-27.274439" lon="151.2900647">
  <ele>343.02</ele>
  <time>2026-09-01T19:52:40Z</time>
  <course>180.82</course>
  <speed>0.01414213562373095</speed>
  <fix>3d</fix>
</trkpt>
<trkpt lat="-27.2744389" lon="151.2900646">
  <ele>343.1</ele>
  <time>2026-09-01T19:52:40Z</time>
  <course>267.53</course>
  <speed>0.0</speed>
  <fix>3d</fix>
</trkpt>
<trkpt lat="-27.274439" lon="151.2900647">
  <ele>343.02</ele>
  <time>2026-09-01T19:52:40Z</time>
  <course>180.82</course>
  <speed>0.01414213562373095</speed>
  <fix>3d</fix>
</trkpt>
<trkpt lat="-27.2744389" lon="151.2900646">
  <ele>343.1</ele>
  <time>2026-09-01T19:52:40Z</time>
  <course>267.53</course>
  <speed>0.0</speed>
  <fix>3d</fix>
</trkpt>
<trkpt lat="-27.274439" lon="151.2900647">
  <ele>343.02</ele>
  <time>2026-09-01T19:52:40Z</time>
  <course>180.82</course>
  <speed>0.01414213562373095</speed>
  <fix>3d</fix>
</trkpt>
<trkpt lat="-27.2744389" lon="151.2900646">
  <ele>343.1</ele>
  <time>2026-09-01T19:52:40Z</time>
  <course>87.18</course>
  <speed>0.0</speed>
  <fix>3d</fix>
</trkpt>
<trkpt lat="-27.274439" lon="151.2900647">
  <ele>343.02</ele>
  <time>2026-09-01T19:52:40Z</time>
  <course>180.82</course>
  <speed>0.01414213562373095</speed>
  <fix>3d</fix>
</trkpt>
<trkpt lat="-27.2744389" lon="151.2900646">
  <ele>343.1</ele>
  <time>2026-09-01T19:52:40Z</time>
  <course>87.18</course>
  <speed>0.0</speed>
  <fix>3d</fix>
</trkpt>
<trkpt lat="-27.274439" lon="151.2900647">
  <ele>343.03</ele>
  <time>2026-09-01T19:52:40Z</time>
  <course>180.82</course>
  <speed>0.01414213562373095</speed>
  <fix>3d</fix>
</trkpt>
<trkpt lat="-27.2744389" lon="151.2900646">
  <ele>343.1</ele>
  <time>2026-09-01T19:52:40Z</time>
  <course>44.81</course>
  <speed>0.0</speed>
  <fix>3d</fix>
</trkpt>
<trkpt lat="-27.274439" lon="151.2900647">
  <ele>343.03</ele>
  <time>2026-09-01T19:52:40Z</time>
  <course>180.81</course>
  <speed>0.01414213562373095</speed>
  <fix>3d</fix>
</trkpt>
<trkpt lat="-27.2744389" lon="151.2900646">
  <ele>343.1</ele>
  <time>2026-09-01T19:52:40Z</time>
  <course>44.81</course>
  <speed>0.0</speed>
  <fix>3d</fix>
</trkpt>
<trkpt lat="-27.274439" lon="151.2900647">
  <ele>343.03</ele>
  <time>2026-09-01T19:52:40Z</time>
  <course>180.81</course>
  <speed>0.01414213562373095</speed>
  <fix>3d</fix>
</trkpt>
<trkpt lat="-27.2744389" lon="151.2900646">
  <ele>343.1</ele>
  <time>2026-09-01T19:52:40Z</time>
  <course>85.48</course>
  <speed>0.0</speed>
  <fix>3d</fix>
</trkpt>
<trkpt lat="-27.274439" lon="151.2900647">
  <ele>343.03</ele>
  <time>2026-09-01T19:52:40Z</time>
  <course>180.81</course>
  <speed>0.01414213562373095</speed>
  <fix>3d</fix>
</trkpt>
<trkpt lat="-27.2744389" lon="151.2900646">
  <ele>343.1</ele>
  <time>2026-09-01T19:52:40Z</time>
  <course>85.48</course>
  <speed>0.0</speed>
  <fix>3d</fix>
</trkpt>
<trkpt lat="-27.274439" lon="151.2900647">
  <ele>343.04</ele>
  <time>2026-09-01T19:52:40Z</time>
  <course>180.81</course>
  <speed>0.01414213562373095</speed>
  <fix>3d</fix>
</trkpt>
<trkpt lat="-27.2744389" lon="151.2900646">
  <ele>343.1</ele>
  <time>2026-09-01T19:52:40Z</time>
  <course>115.39</course>
  <speed>0.0</speed>
  <fix>3d</fix>
</trkpt>
<trkpt lat="-27.274439" lon="151.2900647">
  <ele>343.04</ele>
  <time>2026-09-01T19:52:40Z</time>
  <course>180.81</course>
  <speed>0.01414213562373095</speed>
  <fix>3d</fix>
</trkpt>
<trkpt lat="-27.2744389" lon="151.2900646">
  <ele>343.1</ele>
  <time>2026-09-01T19:52:40Z</time>
  <course>115.39</course>
  <speed>0.0</speed>
  <fix>3d</fix>
</trkpt>
<trkpt lat="-27.274439" lon="151.2900647">
  <ele>343.04</ele>
  <time>2026-09-01T19:52:40Z</time>
  <course>180.81</course>
  <speed>0.01414213562373095</speed>
  <fix>3d</fix>
</trkpt>
<trkpt lat="-27.2744389" lon="151.2900646">
  <ele>343.1</ele>
  <time>2026-09-01T19:52:40Z</time>
  <course>177.74</course>
  <speed>0.0</speed>
  <fix>3d</fix>
</trkpt>
<trkpt lat="-27.274439" lon="151.2900647">
  <ele>343.04</ele>
  <time>2026-09-01T19:52:40Z</time>
  <course>180.8</course>
  <speed>0.01414213562373095</speed>
  <fix>3d</fix>
</trkpt>
<trkpt lat="-27.2744389" lon="151.2900646">
  <ele>343.1</ele>
  <time>2026-09-01T19:52:40Z</time>
  <course>177.74</course>
  <speed>0.0</speed>
  <fix>3d</fix>
</trkpt>
<trkpt lat="-27.274439" lon="151.2900647">
  <ele>343.04</ele>
  <time>2026-09-01T19:52:40Z</time>
  <course>180.8</course>
  <speed>0.01414213562373095</speed>
  <fix>3d</fix>
</trkpt>
<trkpt lat="-27.2744389" lon="151.2900646">
  <ele>343.1</ele>
  <time>2026-09-01T19:52:40Z</time>
  <course>288.42</course>
  <speed>0.0</speed>
  <fix>3d</fix>
</trkpt>
<trkpt lat="-27.274439" lon="151.2900647">
  <ele>343.04</ele>
  <time>2026-09-01T19:52:40Z</time>
  <course>180.8</course>
  <speed>0.01414213562373095</speed>
  <fix>3d</fix>
</trkpt>
<trkpt lat="-27.2744389" lon="151.2900646">
  <ele>343.1</ele>
  <time>2026-09-01T19:52:40Z</time>
  <course>288.42</course>
  <speed>0.0</speed>
  <fix>3d</fix>
</trkpt>
<trkpt lat="-27.274439" lon="151.2900647">
  <ele>343.04</ele>
  <time>2026-09-01T19:52:40Z</time>
  <course>180.79</course>
  <speed>0.01414213562373095</speed>
  <fix>3d</fix>
</trkpt>
<trkpt lat="-27.2744389" lon="151.2900646">
  <ele>343.1</ele>
  <time>2026-09-01T19:52:40Z</time>
  <course>288.18</course>
  <speed>0.0</speed>
  <fix>3d</fix>
</trkpt>
<trkpt lat="-27.274439" lon="151.2900647">
  <ele>343.04</ele>
  <time>2026-09-01T19:52:40Z</time>
  <course>180.79</course>
  <speed>0.01414213562373095</speed>
  <fix>3d</fix>
</trkpt>
<trkpt lat="-27.2744389" lon="151.2900646">
  <ele>343.1</ele>
  <time>2026-09-01T19:52:40Z</time>
  <course>288.18</course>
  <speed>0.0</speed>
  <fix>3d</fix>
</trkpt>
<trkpt lat="-27.274439" lon="151.2900647">
  <ele>343.1</ele>
  <time>2026-09-01T19:52:40Z</time>
  <course>180.78</course>
  <speed>0.01414213562373095</speed>
  <fix>3d</fix>
</trkpt>
<trkpt lat="-27.2744389" lon="151.2900646">
  <ele>343.1</ele>
  <time>2026-09-01T19:52:40Z</time>
  <course>111.02</course>
  <speed>0.0</speed>
  <fix>3d</fix>
</trkpt>
<trkpt lat="-27.274439" lon="151.2900647">
  <ele>343.09</ele>
  <time>2026-09-01T19:52:40Z</time>
  <course>180.78</course>
  <speed>0.01414213562373095</speed>
  <fix>3d</fix>
</trkpt>
<trkpt lat="-27.2744389" lon="151.2900646">
  <ele>343.1</ele>
  <time>2026-09-01T19:52:40Z</time>
  <course>111.02</course>
  <speed>0.0</speed>
  <fix>3d</fix>
</trkpt>
<trkpt lat="-27.274439" lon="151.2900647">
  <ele>343.09</ele>
  <time>2026-09-01T19:52:40Z</time>
  <course>180.77</course>
  <speed>0.01414213562373095</speed>
  <fix>3d</fix>
</trkpt>
<trkpt lat="-27.2744389" lon="151.2900646">
  <ele>343.1</ele>
  <time>2026-09-01T19:52:40Z</time>
  <course>108.02</course>
  <speed>0.0</speed>
  <fix>3d</fix>
</trkpt>
<trkpt lat="-27.274439" lon="151.2900647">
  <ele>343.1</ele>
  <time>2026-09-01T19:52:40Z</time>
  <course>180.77</course>
  <speed>0.01414213562373095</speed>
  <fix>3d</fix>
</trkpt>
<trkpt lat="-27.2744389" lon="151.2900646">
  <ele>343.1</ele>
  <time>2026-09-01T19:52:40Z</time>
  <course>108.02</course>
  <speed>0.0</speed>
  <fix>3d</fix>
</trkpt>
<trkpt lat="-27.274439" lon="151.2900647">
  <ele>343.1</ele>
  <time>2026-09-01T19:52:40Z</time>
  <course>180.76</course>
  <speed>0.01414213562373095</speed>
  <fix>3d</fix>
</trkpt>
<trkpt lat="-27.2744389" lon="151.2900646">
  <ele>343.1</ele>
  <time>2026-09-01T19:52:40Z</time>
  <course>289.09</course>
  <speed>0.0</speed>
  <fix>3d</fix>
</trkpt>
<trkpt lat="-27.274439" lon="151.2900647">
  <ele>343.1</ele>
  <time>2026-09-01T19:52:40Z</time>
  <course>180.76</course>
  <speed>0.01414213562373095</speed>
  <fix>3d</fix>
</trkpt>
<trkpt lat="-27.2744389" lon="151.2900646">
  <ele>343.1</ele>
  <time>2026-09-01T19:52:40Z</time>
  <course>289.09</course>
  <speed>0.0</speed>
  <fix>3d</fix>
</trkpt>
<trkpt lat="-27.274439" lon="151.2900647">
  <ele>343.1</ele>
  <time>2026-09-01T19:52:40Z</time>
  <course>180.76</course>
  <speed>0.01414213562373095</speed>
  <fix>3d</fix>
</trkpt>
<trkpt lat="-27.2744389" lon="151.2900646">
  <ele>343.1</ele>
  <time>2026-09-01T19:52:40Z</time>
  <course>287.81</course>
  <speed>0.0</speed>
  <fix>3d</fix>
</trkpt>
<trkpt lat="-27.274439" lon="151.2900647">
  <ele>343.1</ele>
  <time>2026-09-01T19:52:40Z</time>
  <course>180.75</course>
  <speed>0.01414213562373095</speed>
  <fix>3d</fix>
</trkpt>
<trkpt lat="-27.2744389" lon="151.2900646">
  <ele>343.1</ele>
  <time>2026-09-01T19:52:40Z</time>
  <course>287.81</course>
  <speed>0.0</speed>
  <fix>3d</fix>
</trkpt>
<trkpt lat="-27.274439" lon="151.2900647">
  <ele>343.11</ele>
  <time>2026-09-01T19:52:40Z</time>
  <course>180.75</course>
  <speed>0.01414213562373095</speed>
  <fix>3d</fix>
</trkpt>
<trkpt lat="-27.2744389" lon="151.2900646">
  <ele>343.1</ele>
  <time>2026-09-01T19:52:40Z</time>
  <course>108.64</course>
  <speed>0.0</speed>
  <fix>3d</fix>
</trkpt>
<trkpt lat="-27.274439" lon="151.2900647">
  <ele>343.11</ele>
  <time>2026-09-01T19:52:40Z</time>
  <course>180.74</course>
  <speed>0.01414213562373095</speed>
  <fix>3d</fix>
</trkpt>
<trkpt lat="-27.2744389" lon="151.2900646">
  <ele>343.1</ele>
  <time>2026-09-01T19:52:40Z</time>
  <course>108.64</course>
  <speed>0.0</speed>
  <fix>3d</fix>
</trkpt>
<trkpt lat="-27.274439" lon="151.2900647">
  <ele>343.11</ele>
  <time>2026-09-01T19:52:41Z</time>
  <course>180.74</course>
  <speed>0.01414213562373095</speed>
  <fix>3d</fix>
</trkpt>
<trkpt lat="-27.2744389" lon="151.2900646">
  <ele>343.1</ele>
  <time>2026-09-01T19:52:41Z</time>
  <course>107.44</course>
  <speed>0.0</speed>
  <fix>3d</fix>
</trkpt>
<trkpt lat="-27.274439" lon="151.2900647">
  <ele>343.11</ele>
  <time>2026-09-01T19:52:41Z</time>
  <course>180.73</course>
  <speed>0.01414213562373095</speed>
  <fix>3d</fix>
</trkpt>
<trkpt lat="-27.2744389" lon="151.2900646">
  <ele>343.1</ele>
  <time>2026-09-01T19:52:41Z</time>
  <course>107.44</course>
  <speed>0.0</speed>
  <fix>3d</fix>
</trkpt>
<trkpt lat="-27.274439" lon="151.2900647">
  <ele>343.12</ele>
  <time>2026-09-01T19:52:41Z</time>
  <course>180.73</course>
  <speed>0.01414213562373095</speed>
  <fix>3d</fix>
</trkpt>
<trkpt lat="-27.2744389" lon="151.2900646">
  <ele>343.1</ele>
  <time>2026-09-01T19:52:41Z</time>
  <course>288.41</course>
  <speed>0.0</speed>
  <fix>3d</fix>
</trkpt>
<trkpt lat="-27.274439" lon="151.2900647">
  <ele>343.12</ele>
  <time>2026-09-01T19:52:41Z</time>
  <course>180.72</course>
  <speed>0.01414213562373095</speed>
  <fix>3d</fix>
</trkpt>
<trkpt lat="-27.2744389" lon="151.2900646">
  <ele>343.1</ele>
  <time>2026-09-01T19:52:41Z</time>
  <course>288.41</course>
  <speed>0.0</speed>
  <fix>3d</fix>
</trkpt>
<trkpt lat="-27.274439" lon="151.2900647">
  <ele>343.12</ele>
  <time>2026-09-01T19:52:41Z</time>
  <course>180.72</course>
  <speed>0.01414213562373095</speed>
  <fix>3d</fix>
</trkpt>
<trkpt lat="-27.2744389" lon="151.2900646">
  <ele>343.1</ele>
  <time>2026-09-01T19:52:41Z</time>
  <course>286.32</course>
  <speed>0.0</speed>
  <fix>3d</fix>
</trkpt>
<trkpt lat="-27.274439" lon="151.2900647">
  <ele>343.12</ele>
  <time>2026-09-01T19:52:41Z</time>
  <course>180.71</course>
  <speed>0.01414213562373095</speed>
  <fix>3d</fix>
</trkpt>
<trkpt lat="-27.2744389" lon="151.2900646">
  <ele>343.1</ele>
  <time>2026-09-01T19:52:41Z</time>
  <course>286.32</course>
  <speed>0.0</speed>
  <fix>3d</fix>
</trkpt>
<trkpt lat="-27.274439" lon="151.2900647">
  <ele>343.12</ele>
  <time>2026-09-01T19:52:41Z</time>
  <course>180.71</course>
  <speed>0.01414213562373095</speed>
  <fix>3d</fix>
</trkpt>
<trkpt lat="-27.2744389" lon="151.2900646">
  <ele>343.1</ele>
  <time>2026-09-01T19:52:41Z</time>
  <course>108.24</course>
  <speed>0.0</speed>
  <fix>3d</fix>
</trkpt>
<trkpt lat="-27.274439" lon="151.2900647">
  <ele>343.12</ele>
  <time>2026-09-01T19:52:41Z</time>
  <course>180.7</course>
  <speed>0.01414213562373095</speed>
  <fix>3d</fix>
</trkpt>
<trkpt lat="-27.2744389" lon="151.2900646">
  <ele>343.1</ele>
  <time>2026-09-01T19:52:41Z</time>
  <course>108.24</course>
  <speed>0.0</speed>
  <fix>3d</fix>
</trkpt>
<trkpt lat="-27.274439" lon="151.2900647">
  <ele>343.13</ele>
  <time>2026-09-01T19:52:41Z</time>
  <course>180.7</course>
  <speed>0.01414213562373095</speed>
  <fix>3d</fix>
</trkpt>
<trkpt lat="-27.2744389" lon="151.2900646">
  <ele>343.1</ele>
  <time>2026-09-01T19:52:41Z</time>
  <course>294.7</course>
  <speed>0.0</speed>
  <fix>3d</fix>
</trkpt>
<trkpt lat="-27.274439" lon="151.2900647">
  <ele>343.13</ele>
  <time>2026-09-01T19:52:41Z</time>
  <course>180.69</course>
  <speed>0.01414213562373095</speed>
  <fix>3d</fix>
</trkpt>
<trkpt lat="-27.2744389" lon="151.2900646">
  <ele>343.1</ele>
  <time>2026-09-01T19:52:41Z</time>
  <course>294.7</course>
  <speed>0.0</speed>
  <fix>3d</fix>
</trkpt>
<trkpt lat="-27.274439" lon="151.2900647">
  <ele>343.14</ele>
  <time>2026-09-01T19:52:41Z</time>
  <course>180.69</course>
  <speed>0.01414213562373095</speed>
  <fix>3d</fix>
</trkpt>
<trkpt lat="-27.2744389" lon="151.2900646">
  <ele>343.1</ele>
  <time>2026-09-01T19:52:41Z</time>
  <course>288.07</course>
  <speed>0.0</speed>
  <fix>3d</fix>
</trkpt>
<trkpt lat="-27.274439" lon="151.2900647">
  <ele>343.14</ele>
  <time>2026-09-01T19:52:41Z</time>
  <course>180.68</course>
  <speed>0.01414213562373095</speed>
  <fix>3d</fix>
</trkpt>
<trkpt lat="-27.2744389" lon="151.2900646">
  <ele>343.1</ele>
  <time>2026-09-01T19:52:41Z</time>
  <course>288.07</course>
  <speed>0.0</speed>
  <fix>3d</fix>
</trkpt>
<trkpt lat="-27.274439" lon="151.2900647">
  <ele>343.14</ele>
  <time>2026-09-01T19:52:41Z</time>
  <course>180.68</course>
  <speed>0.01414213562373095</speed>
  <fix>3d</fix>
</trkpt>
<trkpt lat="-27.2744389" lon="151.2900646">
  <ele>343.1</ele>
  <time>2026-09-01T19:52:41Z</time>
  <course>109.35</course>
  <speed>0.0</speed>
  <fix>3d</fix>
</trkpt>
<trkpt lat="-27.274439" lon="151.2900647">
  <ele>343.13</ele>
  <time>2026-09-01T19:52:41Z</time>
  <course>180.67</course>
  <speed>0.01414213562373095</speed>
  <fix>3d</fix>
</trkpt>
<trkpt lat="-27.2744389" lon="151.2900646">
  <ele>343.1</ele>
  <time>2026-09-01T19:52:41Z</time>
  <course>109.35</course>
  <speed>0.0</speed>
  <fix>3d</fix>
</trkpt>
<trkpt lat="-27.274439" lon="151.2900647">
  <ele>343.14</ele>
  <time>2026-09-01T19:52:41Z</time>
  <course>180.65</course>
  <speed>0.01414213562373095</speed>
  <fix>3d</fix>
</trkpt>
<trkpt lat="-27.2744389" lon="151.2900646">
  <ele>343.1</ele>
  <time>2026-09-01T19:52:41Z</time>
  <course>288.74</course>
  <speed>0.0</speed>
  <fix>3d</fix>
</trkpt>
<trkpt lat="-27.274439" lon="151.2900647">
  <ele>343.14</ele>
  <time>2026-09-01T19:52:41Z</time>
  <course>180.63</course>
  <speed>0.01414213562373095</speed>
  <fix>3d</fix>
</trkpt>
<trkpt lat="-27.2744389" lon="151.2900646">
  <ele>343.1</ele>
  <time>2026-09-01T19:52:41Z</time>
  <course>108.44</course>
  <speed>0.0</speed>
  <fix>3d</fix>
</trkpt>
<trkpt lat="-27.274439" lon="151.2900647">
  <ele>343.14</ele>
  <time>2026-09-01T19:52:41Z</time>
  <course>180.63</course>
  <speed>0.01414213562373095</speed>
  <fix>3d</fix>
</trkpt>
<trkpt lat="-27.2744389" lon="151.2900646">
  <ele>343.1</ele>
  <time>2026-09-01T19:52:41Z</time>
  <course>106.74</course>
  <speed>0.0</speed>
  <fix>3d</fix>
</trkpt>
<trkpt lat="-27.274439" lon="151.2900647">
  <ele>343.15</ele>
  <time>2026-09-01T19:52:41Z</time>
  <course>180.62</course>
  <speed>0.01414213562373095</speed>
  <fix>3d</fix>
</trkpt>
<trkpt lat="-27.2744389" lon="151.2900646">
  <ele>343.1</ele>
  <time>2026-09-01T19:52:41Z</time>
  <course>106.74</course>
  <speed>0.0</speed>
  <fix>3d</fix>
</trkpt>
<trkpt lat="-27.274439" lon="151.2900647">
  <ele>343.15</ele>
  <time>2026-09-01T19:52:41Z</time>
  <course>180.61</course>
  <speed>0.01414213562373095</speed>
  <fix>3d</fix>
</trkpt>
<trkpt lat="-27.2744389" lon="151.2900646">
  <ele>343.1</ele>
  <time>2026-09-01T19:52:41Z</time>
  <course>288.37</course>
  <speed>0.0</speed>
  <fix>3d</fix>
</trkpt>
<trkpt lat="-27.274439" lon="151.2900647">
  <ele>343.15</ele>
  <time>2026-09-01T19:52:41Z</time>
  <course>180.61</course>
  <speed>0.01414213562373095</speed>
  <fix>3d</fix>
</trkpt>
<trkpt lat="-27.2744389" lon="151.2900646">
  <ele>343.1</ele>
  <time>2026-09-01T19:52:41Z</time>
  <course>301.32</course>
  <speed>0.0</speed>
  <fix>3d</fix>
</trkpt>
<trkpt lat="-27.274439" lon="151.2900647">
  <ele>343.15</ele>
  <time>2026-09-01T19:52:41Z</time>
  <course>180.6</course>
  <speed>0.01414213562373095</speed>
  <fix>3d</fix>
</trkpt>
<trkpt lat="-27.2744389" lon="151.2900646">
  <ele>343.1</ele>
  <time>2026-09-01T19:52:41Z</time>
  <course>301.32</course>
  <speed>0.0</speed>
  <fix>3d</fix>
</trkpt>
<trkpt lat="-27.274439" lon="151.2900647">
  <ele>343.15</ele>
  <time>2026-09-01T19:52:41Z</time>
  <course>180.6</course>
  <speed>0.01414213562373095</speed>
  <fix>3d</fix>
</trkpt>
<trkpt lat="-27.2744389" lon="151.2900646">
  <ele>343.1</ele>
  <time>2026-09-01T19:52:41Z</time>
  <course>107.18</course>
  <speed>0.0</speed>
  <fix>3d</fix>
</trkpt>
<trkpt lat="-27.274439" lon="151.2900647">
  <ele>343.15</ele>
  <time>2026-09-01T19:52:41Z</time>
  <course>180.59</course>
  <speed>0.01414213562373095</speed>
  <fix>3d</fix>
</trkpt>
<trkpt lat="-27.2744389" lon="151.2900646">
  <ele>343.1</ele>
  <time>2026-09-01T19:52:41Z</time>
  <course>107.18</course>
  <speed>0.0</speed>
  <fix>3d</fix>
</trkpt>
<trkpt lat="-27.274439" lon="151.2900647">
  <ele>343.15</ele>
  <time>2026-09-01T19:52:41Z</time>
  <course>180.59</course>
  <speed>0.01414213562373095</speed>
  <fix>3d</fix>
</trkpt>
<trkpt lat="-27.2744389" lon="151.2900646">
  <ele>343.1</ele>
  <time>2026-09-01T19:52:41Z</time>
  <course>249.16</course>
  <speed>0.0</speed>
  <fix>3d</fix>
</trkpt>
<trkpt lat="-27.274439" lon="151.2900647">
  <ele>343.15</ele>
  <time>2026-09-01T19:52:41Z</time>
  <course>180.58</course>
  <speed>0.01414213562373095</speed>
  <fix>3d</fix>
</trkpt>
<trkpt lat="-27.2744389" lon="151.2900646">
  <ele>343.1</ele>
  <time>2026-09-01T19:52:41Z</time>
  <course>249.16</course>
  <speed>0.0</speed>
  <fix>3d</fix>
</trkpt>
<trkpt lat="-27.274439" lon="151.2900647">
  <ele>343.15</ele>
  <time>2026-09-01T19:52:41Z</time>
  <course>180.58</course>
  <speed>0.01414213562373095</speed>
  <fix>3d</fix>
</trkpt>
<trkpt lat="-27.2744389" lon="151.2900646">
  <ele>343.1</ele>
  <time>2026-09-01T19:52:41Z</time>
  <course>277.83</course>
  <speed>0.0</speed>
  <fix>3d</fix>
</trkpt>
<trkpt lat="-27.274439" lon="151.2900647">
  <ele>343.16</ele>
  <time>2026-09-01T19:52:41Z</time>
  <course>180.57</course>
  <speed>0.01414213562373095</speed>
  <fix>3d</fix>
</trkpt>
<trkpt lat="-27.2744389" lon="151.2900646">
  <ele>343.1</ele>
  <time>2026-09-01T19:52:41Z</time>
  <course>277.83</course>
  <speed>0.0</speed>
  <fix>3d</fix>
</trkpt>
<trkpt lat="-27.274439" lon="151.2900647">
  <ele>343.16</ele>
  <time>2026-09-01T19:52:41Z</time>
  <course>180.56</course>
  <speed>0.01414213562373095</speed>
  <fix>3d</fix>
</trkpt>
<trkpt lat="-27.2744389" lon="151.2900646">
  <ele>343.1</ele>
  <time>2026-09-01T19:52:41Z</time>
  <course>325.61</course>
  <speed>0.0</speed>
  <fix>3d</fix>
</trkpt>
<trkpt lat="-27.274439" lon="151.2900647">
  <ele>343.16</ele>
  <time>2026-09-01T19:52:41Z</time>
  <course>180.56</course>
  <speed>0.01414213562373095</speed>
  <fix>3d</fix>
</trkpt>
<trkpt lat="-27.2744389" lon="151.2900646">
  <ele>343.1</ele>
  <time>2026-09-01T19:52:41Z</time>
  <course>325.61</course>
  <speed>0.0</speed>
  <fix>3d</fix>
</trkpt>
<trkpt lat="-27.274439" lon="151.2900647">
  <ele>343.16</ele>
  <time>2026-09-01T19:52:41Z</time>
  <course>180.55</course>
  <speed>0.01414213562373095</speed>
  <fix>3d</fix>
</trkpt>
<trkpt lat="-27.2744389" lon="151.2900646">
  <ele>343.1</ele>
  <time>2026-09-01T19:52:41Z</time>
  <course>357.37</course>
  <speed>0.0</speed>
  <fix>3d</fix>
</trkpt>
<trkpt lat="-27.274439" lon="151.2900647">
  <ele>343.16</ele>
  <time>2026-09-01T19:52:41Z</time>
  <course>180.55</course>
  <speed>0.01414213562373095</speed>
  <fix>3d</fix>
</trkpt>
<trkpt lat="-27.2744389" lon="151.2900646">
  <ele>343.1</ele>
  <time>2026-09-01T19:52:41Z</time>
  <course>357.37</course>
  <speed>0.0</speed>
  <fix>3d</fix>
</trkpt>
<trkpt lat="-27.274439" lon="151.2900647">
  <ele>343.17</ele>
  <time>2026-09-01T19:52:41Z</time>
  <course>180.54</course>
  <speed>0.01414213562373095</speed>
  <fix>3d</fix>
</trkpt>
<trkpt lat="-27.2744389" lon="151.2900646">
  <ele>343.1</ele>
  <time>2026-09-01T19:52:41Z</time>
  <course>2.1</course>
  <speed>0.0</speed>
  <fix>3d</fix>
</trkpt>
<trkpt lat="-34.970888" lon="147.5113716">
  <ele>578.6</ele>
  <time>2026-09-01T19:52:42Z</time>
  <course>106.32</course>
  <speed>0.0</speed>
  <fix>3d</fix>
</trkpt>
<trkpt lat="-34.970888" lon="147.5113716">
  <ele>578.6</ele>
  <time>2026-09-01T19:52:42Z</time>
  <course>106.32</course>
  <speed>0.0</speed>
  <fix>3d</fix>
</trkpt>
<trkpt lat="-35.362938" lon="149.165085">
  <ele>-0.01</ele>
  <time>2026-09-01T19:52:42Z</time>
  <course>344.47</course>
  <speed>0.0</speed>
  <fix>3d</fix>
</trkpt>
<trkpt lat="-35.362938" lon="149.165085">
  <ele>585.09</ele>
  <time>2026-09-01T19:52:42Z</time>
  <course>110.1</course>
  <speed>0.0</speed>
  <fix>3d</fix>
</trkpt>
<trkpt lat="-35.362938" lon="149.165085">
  <ele>0.02</ele>
  <time>2026-09-01T19:52:42Z</time>
  <course>345.62</course>
  <speed>0.0</speed>
  <fix>3d</fix>
</trkpt>
<trkpt lat="-35.362938" lon="149.165085">
  <ele>585.09</ele>
  <time>2026-09-01T19:52:42Z</time>
  <course>110.1</course>
  <speed>0.0</speed>
  <fix>3d</fix>
</trkpt>
<trkpt lat="-35.362938" lon="149.165085">
  <ele>-0.08</ele>
  <time>2026-09-01T19:52:42Z</time>
  <course>346.67</course>
  <speed>0.0</speed>
  <fix>3d</fix>
</trkpt>
<trkpt lat="-35.362938" lon="149.165085">
  <ele>585.09</ele>
  <time>2026-09-01T19:52:42Z</time>
  <course>113.99</course>
  <speed>0.0</speed>
  <fix>3d</fix>
</trkpt>
<trkpt lat="-35.362938" lon="149.165085">
  <ele>0.22</ele>
  <time>2026-09-01T19:52:42Z</time>
  <course>347.63</course>
  <speed>0.0</speed>
  <fix>3d</fix>
</trkpt>
<trkpt lat="-35.362938" lon="149.165085">
  <ele>585.09</ele>
  <time>2026-09-01T19:52:42Z</time>
  <course>113.99</course>
  <speed>0.0</speed>
  <fix>3d</fix>
</trkpt>
<trkpt lat="-35.362938" lon="149.165085">
  <ele>0.1</ele>
  <time>2026-09-01T19:52:42Z</time>
  <course>348.5</course>
  <speed>0.0</speed>
  <fix>3d</fix>
</trkpt>
<trkpt lat="-35.362938" lon="149.165085">
  <ele>585.09</ele>
  <time>2026-09-01T19:52:42Z</time>
  <course>114.49</course>
  <speed>0.0</speed>
  <fix>3d</fix>
</trkpt>
<trkpt lat="-35.362938" lon="149.165085">
  <ele>0.08</ele>
  <time>2026-09-01T19:52:42Z</time>
  <course>349.28</course>
  <speed>0.0</speed>
  <fix>3d</fix>
</trkpt>
<trkpt lat="-35.362938" lon="149.165085">
  <ele>585.09</ele>
  <time>2026-09-01T19:52:42Z</time>
  <course>114.49</course>
  <speed>0.0</speed>
  <fix>3d</fix>
</trkpt>
<trkpt lat="-35.362938" lon="149.165085">
  <ele>0.09</ele>
  <time>2026-09-01T19:52:42Z</time>
  <course>349.99</course>
  <speed>0.0</speed>
  <fix>3d</fix>
</trkpt>
<trkpt lat="-35.362938" lon="149.165085">
  <ele>585.09</ele>
  <time>2026-09-01T19:52:42Z</time>
  <course>114.55</course>
  <speed>0.0</speed>
  <fix>3d</fix>
</trkpt>
<trkpt lat="-35.362938" lon="149.165085">
  <ele>-0.05</ele>
  <time>2026-09-01T19:52:42Z</time>
  <course>350.63</course>
  <speed>0.0</speed>
  <fix>3d</fix>
</trkpt>
<trkpt lat="-35.362938" lon="149.165085">
  <ele>585.09</ele>
  <time>2026-09-01T19:52:42Z</time>
  <course>114.55</course>
  <speed>0.0</speed>
  <fix>3d</fix>
</trkpt>
<trkpt lat="-35.362938" lon="149.165085">
  <ele>585.04</ele>
  <time>2026-09-01T19:52:42Z</time>
  <course>351.19</course>
  <speed>0.0</speed>
  <fix>3d</fix>
</trkpt>
<trkpt lat="-35.362938" lon="149.165085">
  <ele>585.09</ele>
  <time>2026-09-01T19:52:42Z</time>
  <course>114.56</course>
  <speed>0.0</speed>
  <fix>3d</fix>
</trkpt>
<trkpt lat="-35.362938" lon="149.165085">
  <ele>585.17</ele>
  <time>2026-09-01T19:52:42Z</time>
  <course>351.72</course>
  <speed>0.0</speed>
  <fix>3d</fix>
</trkpt>
<trkpt lat="-35.362938" lon="149.165085">
  <ele>585.09</ele>
  <time>2026-09-01T19:52:42Z</time>
  <course>114.56</course>
  <speed>0.0</speed>
  <fix>3d</fix>
</trkpt>
<trkpt lat="-35.362938" lon="149.165085">
  <ele>584.9</ele>
  <time>2026-09-01T19:52:42Z</time>
  <course>352.2</course>
  <speed>0.0</speed>
  <fix>3d</fix>
</trkpt>
<trkpt lat="-35.362938" lon="149.165085">
  <ele>585.09</ele>
  <time>2026-09-01T19:52:42Z</time>
  <course>114.56</course>
  <speed>0.0</speed>
  <fix>3d</fix>
</trkpt>
<trkpt lat="-35.362938" lon="149.165085">
  <ele>585.05</ele>
  <time>2026-09-01T19:52:42Z</time>
  <course>352.64</course>
  <speed>0.0</speed>
  <fix>3d</fix>
</trkpt>
<trkpt lat="-35.362938" lon="149.165085">
  <ele>585.09</ele>
  <time>2026-09-01T19:52:42Z</time>
  <course>114.56</course>
  <speed>0.0</speed>
  <fix>3d</fix>
</trkpt>
<trkpt lat="-35.362938" lon="149.165085">
  <ele>585.12</ele>
  <time>2026-09-01T19:52:42Z</time>
  <course>353.04</course>
  <speed>0.0</speed>
  <fix>3d</fix>
</trkpt>
<trkpt lat="-35.362938" lon="149.165085">
  <ele>585.09</ele>
  <time>2026-09-01T19:52:42Z</time>
  <course>114.56</course>
  <speed>0.0</speed>
  <fix>3d</fix>
</trkpt>
<trkpt lat="-35.362938" lon="149.165085">
  <ele>585.03</ele>
  <time>2026-09-01T19:52:42Z</time>
  <course>353.4</course>
  <speed>0.0</speed>
  <fix>3d</fix>
</trkpt>
<trkpt lat="-35.362938" lon="149.165085">
  <ele>585.09</ele>
  <time>2026-09-01T19:52:42Z</time>
  <course>114.56</course>
  <speed>0.0</speed>
  <fix>3d</fix>
</trkpt>
<trkpt lat="-35.362938" lon="149.165085">
  <ele>584.87</ele>
  <time>2026-09-01T19:52:42Z</time>
  <course>353.73</course>
  <speed>0.0</speed>
  <fix>3d</fix>
</trkpt>
<trkpt lat="-35.362938" lon="149.165085">
  <ele>585.09</ele>
  <time>2026-09-01T19:52:42Z</time>
  <course>114.56</course>
  <speed>0.0</speed>
  <fix>3d</fix>
</trkpt>
<trkpt lat="-35.362938" lon="149.165085">
  <ele>585.01</ele>
  <time>2026-09-01T19:52:42Z</time>
  <course>354.02</course>
  <speed>0.0</speed>
  <fix>3d</fix>
</trkpt>
<trkpt lat="-35.362938" lon="149.165085">
  <ele>585.09</ele>
  <time>2026-09-01T19:52:42Z</time>
  <course>114.56</course>
  <speed>0.0</speed>
  <fix>3d</fix>
</trkpt>
<trkpt lat="-35.362938" lon="149.165085">
  <ele>585.22</ele>
  <time>2026-09-01T19:52:42Z</time>
  <course>354.3</course>
  <speed>0.0</speed>
  <fix>3d</fix>
</trkpt>
<trkpt lat="-35.362938" lon="149.165085">
  <ele>585.09</ele>
  <time>2026-09-01T19:52:42Z</time>
  <course>114.56</course>
  <speed>0.0</speed>
  <fix>3d</fix>
</trkpt>
<trkpt lat="-35.362938" lon="149.165085">
  <ele>585.16</ele>
  <time>2026-09-01T19:52:42Z</time>
  <course>354.54</course>
  <speed>0.0</speed>
  <fix>3d</fix>
</trkpt>
<trkpt lat="-35.362938" lon="149.165085">
  <ele>585.09</ele>
  <time>2026-09-01T19:52:42Z</time>
  <course>114.56</course>
  <speed>0.0</speed>
  <fix>3d</fix>
</trkpt>
<trkpt lat="-35.362938" lon="149.165085">
  <ele>585.03</ele>
  <time>2026-09-01T19:52:42Z</time>
  <course>354.76</course>
  <speed>0.0</speed>
  <fix>3d</fix>
</trkpt>
<trkpt lat="-35.362938" lon="149.165085">
  <ele>585.09</ele>
  <time>2026-09-01T19:52:42Z</time>
  <course>114.56</course>
  <speed>0.0</speed>
  <fix>3d</fix>
</trkpt>
<trkpt lat="-35.362938" lon="149.165085">
  <ele>584.87</ele>
  <time>2026-09-01T19:52:42Z</time>
  <course>354.96</course>
  <speed>0.0</speed>
  <fix>3d</fix>
</trkpt>
<trkpt lat="-35.362938" lon="149.165085">
  <ele>585.09</ele>
  <time>2026-09-01T19:52:42Z</time>
  <course>114.56</course>
  <speed>0.0</speed>
  <fix>3d</fix>
</trkpt>
<trkpt lat="-35.362938" lon="149.165085">
  <ele>585.06</ele>
  <time>2026-09-01T19:52:42Z</time>
  <course>355.14</course>
  <speed>0.0</speed>
  <fix>3d</fix>
</trkpt>
<trkpt lat="-35.362938" lon="149.165085">
  <ele>585.09</ele>
  <time>2026-09-01T19:52:42Z</time>
  <course>114.56</course>
  <speed>0.0</speed>
  <fix>3d</fix>
</trkpt>
<trkpt lat="-35.362938" lon="149.165085">
  <ele>585.17</ele>
  <time>2026-09-01T19:52:42Z</time>
  <course>355.31</course>
  <speed>0.0</speed>
  <fix>3d</fix>
</trkpt>
<trkpt lat="-35.362938" lon="149.165085">
  <ele>585.09</ele>
  <time>2026-09-01T19:52:42Z</time>
  <course>114.56</course>
  <speed>0.0</speed>
  <fix>3d</fix>
</trkpt>
<trkpt lat="-35.362938" lon="149.165085">
  <ele>584.87</ele>
  <time>2026-09-01T19:52:42Z</time>
  <course>355.46</course>
  <speed>0.0</speed>
  <fix>3d</fix>
</trkpt>
<trkpt lat="-35.362938" lon="149.165085">
  <ele>585.09</ele>
  <time>2026-09-01T19:52:42Z</time>
  <course>114.56</course>
  <speed>0.0</speed>
  <fix>3d</fix>
</trkpt>
<trkpt lat="-35.362938" lon="149.165085">
  <ele>585.16</ele>
  <time>2026-09-01T19:52:42Z</time>
  <course>355.59</course>
  <speed>0.0</speed>
  <fix>3d</fix>
</trkpt>
<trkpt lat="-35.362938" lon="149.165085">
  <ele>585.09</ele>
  <time>2026-09-01T19:52:42Z</time>
  <course>114.56</course>
  <speed>0.0</speed>
  <fix>3d</fix>
</trkpt>
<trkpt lat="-35.362938" lon="149.165085">
  <ele>584.88</ele>
  <time>2026-09-01T19:52:42Z</time>
  <course>355.71</course>
  <speed>0.0</speed>
  <fix>3d</fix>
</trkpt>
<trkpt lat="-35.362938" lon="149.165085">
  <ele>585.09</ele>
  <time>2026-09-01T19:52:42Z</time>
  <course>114.56</course>
  <speed>0.0</speed>
  <fix>3d</fix>
</trkpt>
<trkpt lat="-35.362938" lon="149.165085">
  <ele>584.97</ele>
  <time>2026-09-01T19:52:42Z</time>
  <course>355.82</course>
  <speed>0.0</speed>
  <fix>3d</fix>
</trkpt>
<trkpt lat="-35.362938" lon="149.165085">
  <ele>585.09</ele>
  <time>2026-09-01T19:52:42Z</time>
  <course>114.56</course>
  <speed>0.0</speed>
  <fix>3d</fix>
</trkpt>
<trkpt lat="-35.362938" lon="149.165085">
  <ele>584.86</ele>
  <time>2026-09-01T19:52:42Z</time>
  <course>355.92</course>
  <speed>0.0</speed>
  <fix>3d</fix>
</trkpt>
<trkpt lat="-35.362938" lon="149.165085">
  <ele>585.09</ele>
  <time>2026-09-01T19:52:42Z</time>
  <course>114.56</course>
  <speed>0.0</speed>
  <fix>3d</fix>
</trkpt>
<trkpt lat="-35.362938" lon="149.165085">
  <ele>585.08</ele>
  <time>2026-09-01T19:52:42Z</time>
  <course>356.01</course>
  <speed>0.0</speed>
  <fix>3d</fix>
</trkpt>
<trkpt lat="-35.362938" lon="149.165085">
  <ele>585.09</ele>
  <time>2026-09-01T19:52:42Z</time>
  <course>114.56</course>
  <speed>0.0</speed>
  <fix>3d</fix>
</trkpt>
<trkpt lat="-35.362938" lon="149.165085">
  <ele>585.17</ele>
  <time>2026-09-01T19:52:42Z</time>
  <course>356.09</course>
  <speed>0.0</speed>
  <fix>3d</fix>
</trkpt>
<trkpt lat="-35.362938" lon="149.165085">
  <ele>585.09</ele>
  <time>2026-09-01T19:52:42Z</time>
  <course>114.56</course>
  <speed>0.0</speed>
  <fix>3d</fix>
</trkpt>
<trkpt lat="-35.362938" lon="149.165085">
  <ele>585.04</ele>
  <time>2026-09-01T19:52:42Z</time>
  <course>356.17</course>
  <speed>0.0</speed>
  <fix>3d</fix>
</trkpt>
<trkpt lat="-35.362938" lon="149.165085">
  <ele>585.09</ele>
  <time>2026-09-01T19:52:42Z</time>
  <course>114.56</course>
  <speed>0.0</speed>
  <fix>3d</fix>
</trkpt>
<trkpt lat="-35.362938" lon="149.165085">
  <ele>584.94</ele>
  <time>2026-09-01T19:52:42Z</time>
  <course>356.24</course>
  <speed>0.0</speed>
  <fix>3d</fix>
</trkpt>
<trkpt lat="-35.362938" lon="149.165085">
  <ele>585.09</ele>
  <time>2026-09-01T19:52:42Z</time>
  <course>114.56</course>
  <speed>0.0</speed>
  <fix>3d</fix>
</trkpt>
<trkpt lat="-35.362938" lon="149.165085">
  <ele>585.09</ele>
  <time>2026-09-01T19:52:42Z</time>
  <course>356.3</course>
  <speed>0.0</speed>
  <fix>3d</fix>
</trkpt>
<trkpt lat="-35.362938" lon="149.165085">
  <ele>585.09</ele>
  <time>2026-09-01T19:52:42Z</time>
  <course>114.56</course>
  <speed>0.0</speed>
  <fix>3d</fix>
</trkpt>
<trkpt lat="-35.362938" lon="149.165085">
  <ele>585.2</ele>
  <time>2026-09-01T19:52:42Z</time>
  <course>356.35</course>
  <speed>0.0</speed>
  <fix>3d</fix>
</trkpt>
<trkpt lat="-35.362938" lon="149.165085">
  <ele>585.09</ele>
  <time>2026-09-01T19:52:42Z</time>
  <course>114.56</course>
  <speed>0.0</speed>
  <fix>3d</fix>
</trkpt>
<trkpt lat="-35.362938" lon="149.165085">
  <ele>585.16</ele>
  <time>2026-09-01T19:52:42Z</time>
  <course>356.4</course>
  <speed>0.0</speed>
  <fix>3d</fix>
</trkpt>
<trkpt lat="-35.362938" lon="149.165085">
  <ele>585.09</ele>
  <time>2026-09-01T19:52:42Z</time>
  <course>114.56</course>
  <speed>0.0</speed>
  <fix>3d</fix>
</trkpt>
<trkpt lat="-35.362938" lon="149.165085">
  <ele>585.06</ele>
  <time>2026-09-01T19:52:42Z</time>
  <course>356.45</course>
  <speed>0.0</speed>
  <fix>3d</fix>
</trkpt>
<trkpt lat="-35.362938" lon="149.165085">
  <ele>585.09</ele>
  <time>2026-09-01T19:52:42Z</time>
  <course>114.56</course>
  <speed>0.0</speed>
  <fix>3d</fix>
</trkpt>
<trkpt lat="-35.362938" lon="149.165085">
  <ele>585.03</ele>
  <time>2026-09-01T19:52:42Z</time>
  <course>356.49</course>
  <speed>0.0</speed>
  <fix>3d</fix>
</trkpt>
<trkpt lat="-35.362938" lon="149.165085">
  <ele>585.09</ele>
  <time>2026-09-01T19:52:42Z</time>
  <course>114.56</course>
  <speed>0.0</speed>
  <fix>3d</fix>
</trkpt>
<trkpt lat="-35.362938" lon="149.165085">
  <ele>585.16</ele>
  <time>2026-09-01T19:52:42Z</time>
  <course>356.52</course>
  <speed>0.0</speed>
  <fix>3d</fix>
</trkpt>
<trkpt lat="-35.362938" lon="149.165085">
  <ele>585.09</ele>
  <time>2026-09-01T19:52:42Z</time>
  <course>114.56</course>
  <speed>0.0</speed>
  <fix>3d</fix>
</trkpt>
<trkpt lat="-35.362938" lon="149.165085">
  <ele>585.1</ele>
  <time>2026-09-01T19:52:42Z</time>
  <course>356.56</course>
  <speed>0.0</speed>
  <fix>3d</fix>
</trkpt>
<trkpt lat="-35.362938" lon="149.165085">
  <ele>585.09</ele>
  <time>2026-09-01T19:52:42Z</time>
  <course>114.56</course>
  <speed>0.0</speed>
  <fix>3d</fix>
</trkpt>
<trkpt lat="-35.362938" lon="149.165085">
  <ele>585.02</ele>
  <time>2026-09-01T19:52:42Z</time>
  <course>356.59</course>
  <speed>0.0</speed>
  <fix>3d</fix>
</trkpt>
<trkpt lat="-35.362938" lon="149.165085">
  <ele>585.09</ele>
  <time>2026-09-01T19:52:42Z</time>
  <course>114.56</course>
  <speed>0.0</speed>
  <fix>3d</fix>
</trkpt>
<trkpt lat="-35.362938" lon="149.165085">
  <ele>585.06</ele>
  <time>2026-09-01T19:52:43Z</time>
  <course>356.61</course>
  <speed>0.0</speed>
  <fix>3d</fix>
</trkpt>
<trkpt lat="-35.362938" lon="149.165085">
  <ele>585.09</ele>
  <time>2026-09-01T19:52:43Z</time>
  <course>114.56</course>
  <speed>0.0</speed>
  <fix>3d</fix>
</trkpt>
<trkpt lat="-35.362938" lon="149.165085">
  <ele>585.03</ele>
  <time>2026-09-01T19:52:43Z</time>
  <course>356.64</course>
  <speed>0.0</speed>
  <fix>3d</fix>
</trkpt>
<trkpt lat="-35.362938" lon="149.165085">
  <ele>585.09</ele>
  <time>2026-09-01T19:52:43Z</time>
  <course>114.56</course>
  <speed>0.0</speed>
  <fix>3d</fix>
</trkpt>
<trkpt lat="-35.362938" lon="149.165085">
  <ele>585.0</ele>
  <time>2026-09-01T19:52:43Z</time>
  <course>356.66</course>
  <speed>0.0</speed>
  <fix>3d</fix>
</trkpt>
<trkpt lat="-35.362938" lon="149.165085">
  <ele>585.09</ele>
  <time>2026-09-01T19:52:43Z</time>
  <course>114.56</course>
  <speed>0.0</speed>
  <fix>3d</fix>
</trkpt>
<trkpt lat="-35.362938" lon="149.165085">
  <ele>585.18</ele>
  <time>2026-09-01T19:52:43Z</time>
  <course>356.68</course>
  <speed>0.0</speed>
  <fix>3d</fix>
</trkpt>
<trkpt lat="-35.362938" lon="149.165085">
  <ele>585.09</ele>
  <time>2026-09-01T19:52:43Z</time>
  <course>114.56</course>
  <speed>0.0</speed>
  <fix>3d</fix>
</trkpt>
<trkpt lat="-35.362938" lon="149.165085">
  <ele>585.23</ele>
  <time>2026-09-01T19:52:43Z</time>
  <course>356.7</course>
  <speed>0.0</speed>
  <fix>3d</fix>
</trkpt>
<trkpt lat="-35.362938" lon="149.165085">
  <ele>585.09</ele>
  <time>2026-09-01T19:52:43Z</time>
  <course>114.56</course>
  <speed>0.0</speed>
  <fix>3d</fix>
</trkpt>
<trkpt lat="-35.362938" lon="149.165085">
  <ele>584.87</ele>
  <time>2026-09-01T19:52:43Z</time>
  <course>356.72</course>
  <speed>0.0</speed>
  <fix>3d</fix>
</trkpt>
<trkpt lat="-35.362938" lon="149.165085">
  <ele>585.09</ele>
  <time>2026-09-01T19:52:43Z</time>
  <course>114.56</course>
  <speed>0.0</speed>
  <fix>3d</fix>
</trkpt>
<trkpt lat="-35.362938" lon="149.165085">
  <ele>585.2</ele>
  <time>2026-09-01T19:52:43Z</time>
  <course>356.73</course>
  <speed>0.0</speed>
  <fix>3d</fix>
</trkpt>
<trkpt lat="-35.362938" lon="149.165085">
  <ele>585.09</ele>
  <time>2026-09-01T19:52:43Z</time>
  <course>114.56</course>
  <speed>0.0</speed>
  <fix>3d</fix>
</trkpt>
<trkpt lat="-35.362938" lon="149.165085">
  <ele>585.0</ele>
  <time>2026-09-01T19:52:43Z</time>
  <course>356.74</course>
  <speed>0.0</speed>
  <fix>3d</fix>
</trkpt>
<trkpt lat="-35.362938" lon="149.165085">
  <ele>585.09</ele>
  <time>2026-09-01T19:52:43Z</time>
  <course>114.56</course>
  <speed>0.0</speed>
  <fix>3d</fix>
</trkpt>
<trkpt lat="-35.362938" lon="149.165085">
  <ele>584.92</ele>
  <time>2026-09-01T19:52:43Z</time>
  <course>356.76</course>
  <speed>0.0</speed>
  <fix>3d</fix>
</trkpt>
<trkpt lat="-35.362938" lon="149.165085">
  <ele>585.09</ele>
  <time>2026-09-01T19:52:43Z</time>
  <course>114.56</course>
  <speed>0.0</speed>
  <fix>3d</fix>
</trkpt>
<trkpt lat="-35.362938" lon="149.165085">
  <ele>585.06</ele>
  <time>2026-09-01T19:52:43Z</time>
  <course>356.77</course>
  <speed>0.0</speed>
  <fix>3d</fix>
</trkpt>
<trkpt lat="-35.362938" lon="149.165085">
  <ele>585.09</ele>
  <time>2026-09-01T19:52:43Z</time>
  <course>114.56</course>
  <speed>0.0</speed>
  <fix>3d</fix>
</trkpt>
<trkpt lat="-35.362938" lon="149.165085">
  <ele>584.92</ele>
  <time>2026-09-01T19:52:43Z</time>
  <course>356.78</course>
  <speed>0.0</speed>
  <fix>3d</fix>
</trkpt>
<trkpt lat="-35.362938" lon="149.165085">
  <ele>585.09</ele>
  <time>2026-09-01T19:52:43Z</time>
  <course>114.56</course>
  <speed>0.0</speed>
  <fix>3d</fix>
</trkpt>
<trkpt lat="-35.362938" lon="149.165085">
  <ele>585.09</ele>
  <time>2026-09-01T19:52:43Z</time>
  <course>356.79</course>
  <speed>0.0</speed>
  <fix>3d</fix>
</trkpt>
<trkpt lat="-35.362938" lon="149.165085">
  <ele>585.09</ele>
  <time>2026-09-01T19:52:43Z</time>
  <course>114.56</course>
  <speed>0.0</speed>
  <fix>3d</fix>
</trkpt>
<trkpt lat="-35.362938" lon="149.165085">
  <ele>585.23</ele>
  <time>2026-09-01T19:52:43Z</time>
  <course>356.8</course>
  <speed>0.0</speed>
  <fix>3d</fix>
</trkpt>
<trkpt lat="-35.362938" lon="149.165085">
  <ele>585.09</ele>
  <time>2026-09-01T19:52:43Z</time>
  <course>114.56</course>
  <speed>0.0</speed>
  <fix>3d</fix>
</trkpt>
<trkpt lat="-35.362938" lon="149.165085">
  <ele>585.16</ele>
  <time>2026-09-01T19:52:43Z</time>
  <course>356.8</course>
  <speed>0.0</speed>
  <fix>3d</fix>
</trkpt>
<trkpt lat="-35.362938" lon="149.165085">
  <ele>585.09</ele>
  <time>2026-09-01T19:52:43Z</time>
  <course>114.56</course>
  <speed>0.0</speed>
  <fix>3d</fix>
</trkpt>
<trkpt lat="-35.362938" lon="149.165085">
  <ele>584.88</ele>
  <time>2026-09-01T19:52:43Z</time>
  <course>356.81</course>
  <speed>0.0</speed>
  <fix>3d</fix>
</trkpt>
<trkpt lat="-35.362938" lon="149.165085">
  <ele>585.09</ele>
  <time>2026-09-01T19:52:43Z</time>
  <course>114.56</course>
  <speed>0.0</speed>
  <fix>3d</fix>
</trkpt>
<trkpt lat="-35.362938" lon="149.165085">
  <ele>585.21</ele>
  <time>2026-09-01T19:52:43Z</time>
  <course>356.81</course>
  <speed>0.0</speed>
  <fix>3d</fix>
</trkpt>
<trkpt lat="-35.362938" lon="149.165085">
  <ele>585.09</ele>
  <time>2026-09-01T19:52:43Z</time>
  <course>114.56</course>
  <speed>0.0</speed>
  <fix>3d</fix>
</trkpt>
<trkpt lat="-35.362938" lon="149.165085">
  <ele>585.21</ele>
  <time>2026-09-01T19:52:43Z</time>
  <course>356.82</course>
  <speed>0.0</speed>
  <fix>3d</fix>
</trkpt>
<trkpt lat="-35.362938" lon="149.165085">
  <ele>585.09</ele>
  <time>2026-09-01T19:52:43Z</time>
  <course>114.56</course>
  <speed>0.0</speed>
  <fix>3d</fix>
</trkpt>
<trkpt lat="-35.362938" lon="149.165085">
  <ele>584.97</ele>
  <time>2026-09-01T19:52:43Z</time>
  <course>356.82</course>
  <speed>0.0</speed>
  <fix>3d</fix>
</trkpt>
<trkpt lat="-35.362938" lon="149.165085">
  <ele>585.09</ele>
  <time>2026-09-01T19:52:43Z</time>
  <course>114.56</course>
  <speed>0.0</speed>
  <fix>3d</fix>
</trkpt>
<trkpt lat="-35.362938" lon="149.165085">
  <ele>585.12</ele>
  <time>2026-09-01T19:52:43Z</time>
  <course>356.83</course>
  <speed>0.0</speed>
  <fix>3d</fix>
</trkpt>
<trkpt lat="-35.362938" lon="149.165085">
  <ele>585.09</ele>
  <time>2026-09-01T19:52:43Z</time>
  <course>114.56</course>
  <speed>0.0</speed>
  <fix>3d</fix>
</trkpt>
<trkpt lat="-35.362938" lon="149.165085">
  <ele>585.06</ele>
  <time>2026-09-01T19:52:43Z</time>
  <course>356.83</course>
  <speed>0.0</speed>
  <fix>3d</fix>
</trkpt>
<trkpt lat="-35.362938" lon="149.165085">
  <ele>585.09</ele>
  <time>2026-09-01T19:52:43Z</time>
  <course>114.56</course>
  <speed>0.0</speed>
  <fix>3d</fix>
</trkpt>
<trkpt lat="-35.362938" lon="149.165085">
  <ele>585.18</ele>
  <time>2026-09-01T19:52:43Z</time>
  <course>356.84</course>
  <speed>0.0</speed>
  <fix>3d</fix>
</trkpt>
<trkpt lat="-35.362938" lon="149.165085">
  <ele>585.09</ele>
  <time>2026-09-01T19:52:43Z</time>
  <course>114.56</course>
  <speed>0.0</speed>
  <fix>3d</fix>
</trkpt>
<trkpt lat="-35.362938" lon="149.165085">
  <ele>584.92</ele>
  <time>2026-09-01T19:52:43Z</time>
  <course>356.84</course>
  <speed>0.0</speed>
  <fix>3d</fix>
</trkpt>
<trkpt lat="-35.362938" lon="149.165085">
  <ele>585.09</ele>
  <time>2026-09-01T19:52:43Z</time>
  <course>114.56</course>
  <speed>0.0</speed>
  <fix>3d</fix>
</trkpt>
<trkpt lat="-35.362938" lon="149.165085">
  <ele>585.18</ele>
  <time>2026-09-01T19:52:43Z</time>
  <course>356.84</course>
  <speed>0.0</speed>
  <fix>3d</fix>
</trkpt>
<trkpt lat="-35.362938" lon="149.165085">
  <ele>585.09</ele>
  <time>2026-09-01T19:52:43Z</time>
  <course>114.56</course>
  <speed>0.0</speed>
  <fix>3d</fix>
</trkpt>
<trkpt lat="-35.362938" lon="149.165085">
  <ele>585.09</ele>
  <time>2026-09-01T19:52:43Z</time>
  <course>356.84</course>
  <speed>0.0</speed>
  <fix>3d</fix>
</trkpt>
<trkpt lat="-35.362938" lon="149.165085">
  <ele>585.09</ele>
  <time>2026-09-01T19:52:43Z</time>
  <course>114.56</course>
  <speed>0.0</speed>
  <fix>3d</fix>
</trkpt>
<trkpt lat="-35.362938" lon="149.165085">
  <ele>584.99</ele>
  <time>2026-09-01T19:52:43Z</time>
  <course>356.85</course>
  <speed>0.0</speed>
  <fix>3d</fix>
</trkpt>
<trkpt lat="-35.362938" lon="149.165085">
  <ele>585.09</ele>
  <time>2026-09-01T19:52:43Z</time>
  <course>114.56</course>
  <speed>0.0</speed>
  <fix>3d</fix>
</trkpt>
<trkpt lat="-35.362938" lon="149.165085">
  <ele>585.1</ele>
  <time>2026-09-01T19:52:43Z</time>
  <course>356.85</course>
  <speed>0.0</speed>
  <fix>3d</fix>
</trkpt>
<trkpt lat="-35.362938" lon="149.165085">
  <ele>585.09</ele>
  <time>2026-09-01T19:52:43Z</time>
  <course>114.56</course>
  <speed>0.0</speed>
  <fix>3d</fix>
</trkpt>
<trkpt lat="-35.362938" lon="149.165085">
  <ele>584.95</ele>
  <time>2026-09-01T19:52:43Z</time>
  <course>356.85</course>
  <speed>0.0</speed>
  <fix>3d</fix>
</trkpt>
<trkpt lat="-35.362938" lon="149.165085">
  <ele>585.09</ele>
  <time>2026-09-01T19:52:43Z</time>
  <course>114.56</course>
  <speed>0.0</speed>
  <fix>3d</fix>
</trkpt>
<trkpt lat="-35.362938" lon="149.165085">
  <ele>585.17</ele>
  <time>2026-09-01T19:52:43Z</time>
  <course>356.85</course>
  <speed>0.0</speed>
  <fix>3d</fix>
</trkpt>
<trkpt lat="-35.362938" lon="149.165085">
  <ele>585.09</ele>
  <time>2026-09-01T19:52:43Z</time>
  <course>114.56</course>
  <speed>0.0</speed>
  <fix>3d</fix>
</trkpt>
<trkpt lat="-35.362938" lon="149.165085">
  <ele>584.98</ele>
  <time>2026-09-01T19:52:43Z</time>
  <course>356.85</course>
  <speed>0.0</speed>
  <fix>3d</fix>
</trkpt>
<trkpt lat="-35.362938" lon="149.165085">
  <ele>585.09</ele>
  <time>2026-09-01T19:52:43Z</time>
  <course>114.56</course>
  <speed>0.0</speed>
  <fix>3d</fix>
</trkpt>
<trkpt lat="-35.362938" lon="149.165085">
  <ele>585.19</ele>
  <time>2026-09-01T19:52:43Z</time>
  <course>356.86</course>
  <speed>0.0</speed>
  <fix>3d</fix>
</trkpt>
<trkpt lat="-35.362938" lon="149.165085">
  <ele>585.09</ele>
  <time>2026-09-01T19:52:43Z</time>
  <course>114.56</course>
  <speed>0.0</speed>
  <fix>3d</fix>
</trkpt>
<trkpt lat="-35.362938" lon="149.165085">
  <ele>585.19</ele>
  <time>2026-09-01T19:52:43Z</time>
  <course>356.86</course>
  <speed>0.0</speed>
  <fix>3d</fix>
</trkpt>
<trkpt lat="-35.362938" lon="149.165085">
  <ele>585.09</ele>
  <time>2026-09-01T19:52:43Z</time>
  <course>114.56</course>
  <speed>0.0</speed>
  <fix>3d</fix>
</trkpt>
<trkpt lat="-35.362938" lon="149.165085">
  <ele>585.12</ele>
  <time>2026-09-01T19:52:43Z</time>
  <course>356.86</course>
  <speed>0.0</speed>
  <fix>3d</fix>
</trkpt>
<trkpt lat="-35.362938" lon="149.165085">
  <ele>585.09</ele>
  <time>2026-09-01T19:52:43Z</time>
  <course>114.56</course>
  <speed>0.0</speed>
  <fix>3d</fix>
</trkpt>
<trkpt lat="-35.362938" lon="149.165085">
  <ele>585.09</ele>
  <time>2026-09-01T19:52:43Z</time>
  <course>356.86</course>
  <speed>0.0</speed>
  <fix>3d</fix>
</trkpt>
<trkpt lat="-35.362938" lon="149.165085">
  <ele>585.09</ele>
  <time>2026-09-01T19:52:43Z</time>
  <course>114.56</course>
  <speed>0.0</speed>
  <fix>3d</fix>
</trkpt>
<trkpt lat="-35.362938" lon="149.165085">
  <ele>585.11</ele>
  <time>2026-09-01T19:52:43Z</time>
  <course>356.86</course>
  <speed>0.0</speed>
  <fix>3d</fix>
</trkpt>
<trkpt lat="-35.362938" lon="149.165085">
  <ele>585.09</ele>
  <time>2026-09-01T19:52:43Z</time>
  <course>114.56</course>
  <speed>0.0</speed>
  <fix>3d</fix>
</trkpt>
<trkpt lat="-35.362938" lon="149.165085">
  <ele>584.93</ele>
  <time>2026-09-01T19:52:43Z</time>
  <course>356.86</course>
  <speed>0.0</speed>
  <fix>3d</fix>
</trkpt>
<trkpt lat="-35.362938" lon="149.165085">
  <ele>585.09</ele>
  <time>2026-09-01T19:52:43Z</time>
  <course>114.56</course>
  <speed>0.0</speed>
  <fix>3d</fix>
</trkpt>
<trkpt lat="-35.362938" lon="149.165085">
  <ele>585.23</ele>
  <time>2026-09-01T19:52:43Z</time>
  <course>356.86</course>
  <speed>0.0</speed>
  <fix>3d</fix>
</trkpt>
<trkpt lat="-35.362938" lon="149.165085">
  <ele>585.09</ele>
  <time>2026-09-01T19:52:43Z</time>
  <course>114.56</course>
  <speed>0.0</speed>
  <fix>3d</fix>
</trkpt>
<trkpt lat="-35.362938" lon="149.165085">
  <ele>584.91</ele>
  <time>2026-09-01T19:52:43Z</time>
  <course>356.86</course>
  <speed>0.0</speed>
  <fix>3d</fix>
</trkpt>
<trkpt lat="-35.362938" lon="149.165085">
  <ele>585.09</ele>
  <time>2026-09-01T19:52:43Z</time>
  <course>114.56</course>
  <speed>0.0</speed>
  <fix>3d</fix>
</trkpt>
<trkpt lat="-35.362938" lon="149.165085">
  <ele>585.06</ele>
  <time>2026-09-01T19:52:43Z</time>
  <course>356.86</course>
  <speed>0.0</speed>
  <fix>3d</fix>
</trkpt>
<trkpt lat="-35.362938" lon="149.165085">
  <ele>585.09</ele>
  <time>2026-09-01T19:52:43Z</time>
  <course>114.56</course>
  <speed>0.0</speed>
  <fix>3d</fix>
</trkpt>
<trkpt lat="-35.362938" lon="149.165085">
  <ele>585.22</ele>
  <time>2026-09-01T19:52:43Z</time>
  <course>356.86</course>
  <speed>0.0</speed>
  <fix>3d</fix>
</trkpt>
<trkpt lat="-35.362938" lon="149.165085">
  <ele>585.09</ele>
  <time>2026-09-01T19:52:43Z</time>
  <course>114.56</course>
  <speed>0.0</speed>
  <fix>3d</fix>
</trkpt>
<trkpt lat="-35.362938" lon="149.165085">
  <ele>585.0</ele>
  <time>2026-09-01T19:52:43Z</time>
  <course>356.86</course>
  <speed>0.0</speed>
  <fix>3d</fix>
</trkpt>
<trkpt lat="-35.362938" lon="149.165085">
  <ele>585.09</ele>
  <time>2026-09-01T19:52:43Z</time>
  <course>114.56</course>
  <speed>0.0</speed>
  <fix>3d</fix>
</trkpt>
<trkpt lat="-35.362938" lon="149.165085">
  <ele>585.09</ele>
  <time>2026-09-01T19:52:43Z</time>
  <course>356.86</course>
  <speed>0.0</speed>
  <fix>3d</fix>
</trkpt>
<trkpt lat="-35.362938" lon="149.165085">
  <ele>585.09</ele>
  <time>2026-09-01T19:52:43Z</time>
  <course>114.56</course>
  <speed>0.0</speed>
  <fix>3d</fix>
</trkpt>
<trkpt lat="-35.362938" lon="149.165085">
  <ele>584.98</ele>
  <time>2026-09-01T19:52:43Z</time>
  <course>356.87</course>
  <speed>0.0</speed>
  <fix>3d</fix>
</trkpt>
<trkpt lat="-35.362938" lon="149.165085">
  <ele>585.09</ele>
  <time>2026-09-01T19:52:43Z</time>
  <course>114.56</course>
  <speed>0.0</speed>
  <fix>3d</fix>
</trkpt>
<trkpt lat="-35.362938" lon="149.165085">
  <ele>584.86</ele>
  <time>2026-09-01T19:52:43Z</time>
  <course>356.87</course>
  <speed>0.0</speed>
  <fix>3d</fix>
</trkpt>
<trkpt lat="-35.362938" lon="149.165085">
  <ele>585.09</ele>
  <time>2026-09-01T19:52:43Z</time>
  <course>114.56</course>
  <speed>0.0</speed>
  <fix>3d</fix>
</trkpt>
<trkpt lat="-35.362938" lon="149.165085">
  <ele>585.09</ele>
  <time>2026-09-01T19:52:43Z</time>
  <course>356.87</course>
  <speed>0.0</speed>
  <fix>3d</fix>
</trkpt>
<trkpt lat="-35.362938" lon="149.165085">
  <ele>585.09</ele>
  <time>2026-09-01T19:52:43Z</time>
  <course>114.56</course>
  <speed>0.0</speed>
  <fix>3d</fix>
</trkpt>
<trkpt lat="-35.362938" lon="149.165085">
  <ele>584.98</ele>
  <time>2026-09-01T19:52:43Z</time>
  <course>356.87</course>
  <speed>0.0</speed>
  <fix>3d</fix>
</trkpt>
<trkpt lat="-35.362938" lon="149.165085">
  <ele>585.09</ele>
  <time>2026-09-01T19:52:43Z</time>
  <course>114.56</course>
  <speed>0.0</speed>
  <fix>3d</fix>
</trkpt>
<trkpt lat="-35.362938" lon="149.165085">
  <ele>584.9</ele>
  <time>2026-09-01T19:52:43Z</time>
  <course>356.87</course>
  <speed>0.0</speed>
  <fix>3d</fix>
</trkpt>
<trkpt lat="-35.362938" lon="149.165085">
  <ele>585.09</ele>
  <time>2026-09-01T19:52:43Z</time>
  <course>114.56</course>
  <speed>0.0</speed>
  <fix>3d</fix>
</trkpt>
<trkpt lat="-35.362938" lon="149.165085">
  <ele>584.88</ele>
  <time>2026-09-01T19:52:43Z</time>
  <course>356.87</course>
  <speed>0.0</speed>
  <fix>3d</fix>
</trkpt>
<trkpt lat="-35.362938" lon="149.165085">
  <ele>585.09</ele>
  <time>2026-09-01T19:52:43Z</time>
  <course>114.56</course>
  <speed>0.0</speed>
  <fix>3d</fix>
</trkpt>
<trkpt lat="-35.362938" lon="149.165085">
  <ele>584.86</ele>
  <time>2026-09-01T19:52:43Z</time>
  <course>356.87</course>
  <speed>0.0</speed>
  <fix>3d</fix>
</trkpt>
<trkpt lat="-35.362938" lon="149.165085">
  <ele>585.09</ele>
  <time>2026-09-01T19:52:43Z</time>
  <course>114.56</course>
  <speed>0.0</speed>
  <fix>3d</fix>
</trkpt>
<trkpt lat="-35.362938" lon="149.165085">
  <ele>585.11</ele>
  <time>2026-09-01T19:52:43Z</time>
  <course>356.87</course>
  <speed>0.0</speed>
  <fix>3d</fix>
</trkpt>
<trkpt lat="-35.362938" lon="149.165085">
  <ele>585.09</ele>
  <time>2026-09-01T19:52:43Z</time>
  <course>114.56</course>
  <speed>0.0</speed>
  <fix>3d</fix>
</trkpt>
<trkpt lat="-35.362938" lon="149.165085">
  <ele>584.98</ele>
  <time>2026-09-01T19:52:43Z</time>
  <course>356.87</course>
  <speed>0.0</speed>
  <fix>3d</fix>
</trkpt>
<trkpt lat="-35.362938" lon="149.165085">
  <ele>585.09</ele>
  <time>2026-09-01T19:52:43Z</time>
  <course>114.56</course>
  <speed>0.0</speed>
  <fix>3d</fix>
</trkpt>
<trkpt lat="-35.362938" lon="149.165085">
  <ele>585.12</ele>
  <time>2026-09-01T19:52:43Z</time>
  <course>356.87</course>
  <speed>0.0</speed>
  <fix>3d</fix>
</trkpt>
<trkpt lat="-35.362938" lon="149.165085">
  <ele>585.09</ele>
  <time>2026-09-01T19:52:43Z</time>
  <course>114.56</course>
  <speed>0.0</speed>
  <fix>3d</fix>
</trkpt>
<trkpt lat="-35.362938" lon="149.165085">
  <ele>584.98</ele>
  <time>2026-09-01T19:52:43Z</time>
  <course>356.87</course>
  <speed>0.0</speed>
  <fix>3d</fix>
</trkpt>
<trkpt lat="-35.362938" lon="149.165085">
  <ele>585.09</ele>
  <time>2026-09-01T19:52:43Z</time>
  <course>114.56</course>
  <speed>0.0</speed>
  <fix>3d</fix>
</trkpt>
<trkpt lat="-35.362938" lon="149.165085">
  <ele>585.15</ele>
  <time>2026-09-01T19:52:43Z</time>
  <course>356.87</course>
  <speed>0.0</speed>
  <fix>3d</fix>
</trkpt>
<trkpt lat="-35.362938" lon="149.165085">
  <ele>585.09</ele>
  <time>2026-09-01T19:52:43Z</time>
  <course>114.56</course>
  <speed>0.0</speed>
  <fix>3d</fix>
</trkpt>
<trkpt lat="-35.362938" lon="149.165085">
  <ele>584.98</ele>
  <time>2026-09-01T19:52:43Z</time>
  <course>356.87</course>
  <speed>0.0</speed>
  <fix>3d</fix>
</trkpt>
<trkpt lat="-35.362938" lon="149.165085">
  <ele>585.09</ele>
  <time>2026-09-01T19:52:43Z</time>
  <course>114.56</course>
  <speed>0.0</speed>
  <fix>3d</fix>
</trkpt>
<trkpt lat="-35.362938" lon="149.165085">
  <ele>584.97</ele>
  <time>2026-09-01T19:52:43Z</time>
  <course>356.87</course>
  <speed>0.0</speed>
  <fix>3d</fix>
</trkpt>
<trkpt lat="-35.362938" lon="149.165085">
  <ele>585.09</ele>
  <time>2026-09-01T19:52:43Z</time>
  <course>114.56</course>
  <speed>0.0</speed>
  <fix>3d</fix>
</trkpt>
<trkpt lat="-35.362938" lon="149.165085">
  <ele>585.15</ele>
  <time>2026-09-01T19:52:43Z</time>
  <course>356.87</course>
  <speed>0.0</speed>
  <fix>3d</fix>
</trkpt>
<trkpt lat="-35.362938" lon="149.165085">
  <ele>585.09</ele>
  <time>2026-09-01T19:52:43Z</time>
  <course>114.56</course>
  <speed>0.0</speed>
  <fix>3d</fix>
</trkpt>
<trkpt lat="-35.362938" lon="149.165085">
  <ele>585.14</ele>
  <time>2026-09-01T19:52:43Z</time>
  <course>356.87</course>
  <speed>0.0</speed>
  <fix>3d</fix>
</trkpt>
<trkpt lat="-35.362938" lon="149.165085">
  <ele>585.09</ele>
  <time>2026-09-01T19:52:43Z</time>
  <course>114.56</course>
  <speed>0.0</speed>
  <fix>3d</fix>
</trkpt>
<trkpt lat="-35.362938" lon="149.165085">
  <ele>584.85</ele>
  <time>2026-09-01T19:52:43Z</time>
  <course>356.87</course>
  <speed>0.0</speed>
  <fix>3d</fix>
</trkpt>
<trkpt lat="-35.362938" lon="149.165085">
  <ele>585.09</ele>
  <time>2026-09-01T19:52:43Z</time>
  <course>114.56</course>
  <speed>0.0</speed>
  <fix>3d</fix>
</trkpt>
<trkpt lat="-35.362938" lon="149.165085">
  <ele>585.17</ele>
  <time>2026-09-01T19:52:43Z</time>
  <course>356.87</course>
  <speed>0.0</speed>
  <fix>3d</fix>
</trkpt>
<trkpt lat="-35.362938" lon="149.165085">
  <ele>585.09</ele>
  <time>2026-09-01T19:52:43Z</time>
  <course>114.56</course>
  <speed>0.0</speed>
  <fix>3d</fix>
</trkpt>
<trkpt lat="-35.362938" lon="149.165085">
  <ele>585.15</ele>
  <time>2026-09-01T19:52:43Z</time>
  <course>356.87</course>
  <speed>0.0</speed>
  <fix>3d</fix>
</trkpt>
<trkpt lat="-35.362938" lon="149.165085">
  <ele>585.09</ele>
  <time>2026-09-01T19:52:43Z</time>
  <course>114.56</course>
  <speed>0.0</speed>
  <fix>3d</fix>
</trkpt>
<trkpt lat="-35.362938" lon="149.165085">
  <ele>585.2</ele>
  <time>2026-09-01T19:52:43Z</time>
  <course>356.87</course>
  <speed>0.0</speed>
  <fix>3d</fix>
</trkpt>
<trkpt lat="-35.362938" lon="149.165085">
  <ele>585.09</ele>
  <time>2026-09-01T19:52:43Z</time>
  <course>114.56</course>
  <speed>0.0</speed>
  <fix>3d</fix>
</trkpt>
<trkpt lat="-35.362938" lon="149.165085">
  <ele>585.2</ele>
  <time>2026-09-01T19:52:43Z</time>
  <course>356.87</course>
  <speed>0.0</speed>
  <fix>3d</fix>
</trkpt>
<trkpt lat="-35.362938" lon="149.165085">
  <ele>585.09</ele>
  <time>2026-09-01T19:52:43Z</time>
  <course>114.56</course>
  <speed>0.0</speed>
  <fix>3d</fix>
</trkpt>
<trkpt lat="-35.362938" lon="149.165085">
  <ele>585.23</ele>
  <time>2026-09-01T19:52:43Z</time>
  <course>356.87</course>
  <speed>0.0</speed>
  <fix>3d</fix>
</trkpt>
<trkpt lat="-35.362938" lon="149.165085">
  <ele>585.09</ele>
  <time>2026-09-01T19:52:43Z</time>
  <course>114.56</course>
  <speed>0.0</speed>
  <fix>3d</fix>
</trkpt>
<trkpt lat="-35.362938" lon="149.165085">
  <ele>584.99</ele>
  <time>2026-09-01T19:52:43Z</time>
  <course>356.87</course>
  <speed>0.0</speed>
  <fix>3d</fix>
</trkpt>
<trkpt lat="-35.362938" lon="149.165085">
  <ele>585.09</ele>
  <time>2026-09-01T19:52:43Z</time>
  <course>114.56</course>
  <speed>0.0</speed>
  <fix>3d</fix>
</trkpt>
<trkpt lat="-35.362938" lon="149.165085">
  <ele>585.09</ele>
  <time>2026-09-01T19:52:43Z</time>
  <course>356.87</course>
  <speed>0.0</speed>
  <fix>3d</fix>
</trkpt>
<trkpt lat="-35.362938" lon="149.165085">
  <ele>585.09</ele>
  <time>2026-09-01T19:52:43Z</time>
  <course>114.56</course>
  <speed>0.0</speed>
  <fix>3d</fix>
</trkpt>
<trkpt lat="-35.362938" lon="149.165085">
  <ele>585.04</ele>
  <time>2026-09-01T19:52:43Z</time>
  <course>356.87</course>
  <speed>0.0</speed>
  <fix>3d</fix>
</trkpt>
<trkpt lat="-35.362938" lon="149.165085">
  <ele>585.09</ele>
  <time>2026-09-01T19:52:43Z</time>
  <course>114.56</course>
  <speed>0.0</speed>
  <fix>3d</fix>
</trkpt>
<trkpt lat="-35.362938" lon="149.165085">
  <ele>584.86</ele>
  <time>2026-09-01T19:52:43Z</time>
  <course>356.87</course>
  <speed>0.0</speed>
  <fix>3d</fix>
</trkpt>
<trkpt lat="-35.362938" lon="149.165085">
  <ele>585.09</ele>
  <time>2026-09-01T19:52:43Z</time>
  <course>114.56</course>
  <speed>0.0</speed>
  <fix>3d</fix>
</trkpt>
<trkpt lat="-35.362938" lon="149.165085">
  <ele>584.91</ele>
  <time>2026-09-01T19:52:43Z</time>
  <course>356.87</course>
  <speed>0.0</speed>
  <fix>3d</fix>
</trkpt>
<trkpt lat="-35.362938" lon="149.165085">
  <ele>585.09</ele>
  <time>2026-09-01T19:52:43Z</time>
  <course>114.56</course>
  <speed>0.0</speed>
  <fix>3d</fix>
</trkpt>
<trkpt lat="-35.362938" lon="149.165085">
  <ele>584.95</ele>
  <time>2026-09-01T19:52:43Z</time>
  <course>356.87</course>
  <speed>0.0</speed>
  <fix>3d</fix>
</trkpt>
<trkpt lat="-35.362938" lon="149.165085">
  <ele>585.09</ele>
  <time>2026-09-01T19:52:43Z</time>
  <course>114.56</course>
  <speed>0.0</speed>
  <fix>3d</fix>
</trkpt>
<trkpt lat="-35.362938" lon="149.165085">
  <ele>585.14</ele>
  <time>2026-09-01T19:52:43Z</time>
  <course>356.87</course>
  <speed>0.0</speed>
  <fix>3d</fix>
</trkpt>
<trkpt lat="-35.362938" lon="149.165085">
  <ele>585.09</ele>
  <time>2026-09-01T19:52:43Z</time>
  <course>114.56</course>
  <speed>0.0</speed>
  <fix>3d</fix>
</trkpt>
<trkpt lat="-35.362938" lon="149.165085">
  <ele>585.15</ele>
  <time>2026-09-01T19:52:43Z</time>
  <course>356.87</course>
  <speed>0.0</speed>
  <fix>3d</fix>
</trkpt>
<trkpt lat="-35.362938" lon="149.165085">
  <ele>585.09</ele>
  <time>2026-09-01T19:52:43Z</time>
  <course>114.56</course>
  <speed>0.0</speed>
  <fix>3d</fix>
</trkpt>
<trkpt lat="-35.362938" lon="149.165085">
  <ele>585.18</ele>
  <time>2026-09-01T19:52:43Z</time>
  <course>356.88</course>
  <speed>0.0</speed>
  <fix>3d</fix>
</trkpt>
<trkpt lat="-35.362938" lon="149.165085">
  <ele>585.09</ele>
  <time>2026-09-01T19:52:43Z</time>
  <course>114.56</course>
  <speed>0.0</speed>
  <fix>3d</fix>
</trkpt>
<trkpt lat="-35.362938" lon="149.165085">
  <ele>585.12</ele>
  <time>2026-09-01T19:52:43Z</time>
  <course>356.89</course>
  <speed>0.0</speed>
  <fix>3d</fix>
</trkpt>
<trkpt lat="-35.362938" lon="149.165085">
  <ele>585.09</ele>
  <time>2026-09-01T19:52:43Z</time>
  <course>114.56</course>
  <speed>0.0</speed>
  <fix>3d</fix>
</trkpt>
<trkpt lat="-35.362938" lon="149.165085">
  <ele>584.99</ele>
  <time>2026-09-01T19:52:43Z</time>
  <course>356.9</course>
  <speed>0.0</speed>
  <fix>3d</fix>
</trkpt>
<trkpt lat="-35.362938" lon="149.165085">
  <ele>585.09</ele>
  <time>2026-09-01T19:52:43Z</time>
  <course>114.56</course>
  <speed>0.0</speed>
  <fix>3d</fix>
</trkpt>
<trkpt lat="-35.362938" lon="149.165085">
  <ele>585.33</ele>
  <time>2026-09-01T19:52:43Z</time>
  <course>356.91</course>
  <speed>0.0</speed>
  <fix>3d</fix>
</trkpt>
<trkpt lat="-35.362938" lon="149.165085">
  <ele>585.09</ele>
  <time>2026-09-01T19:52:43Z</time>
  <course>114.56</course>
  <speed>0.0</speed>
  <fix>3d</fix>
</trkpt>
<trkpt lat="-35.362938" lon="149.165085">
  <ele>585.09</ele>
  <time>2026-09-01T19:52:43Z</time>
  <course>356.92</course>
  <speed>0.0</speed>
  <fix>3d</fix>
</trkpt>
<trkpt lat="-35.362938" lon="149.165085">
  <ele>585.09</ele>
  <time>2026-09-01T19:52:43Z</time>
  <course>114.56</course>
  <speed>0.0</speed>
  <fix>3d</fix>
</trkpt>
<trkpt lat="-35.362938" lon="149.165085">
  <ele>585.22</ele>
  <time>2026-09-01T19:52:43Z</time>
  <course>356.92</course>
  <speed>0.0</speed>
  <fix>3d</fix>
</trkpt>
<trkpt lat="-35.362938" lon="149.165085">
  <ele>585.09</ele>
  <time>2026-09-01T19:52:43Z</time>
  <course>114.56</course>
  <speed>0.0</speed>
  <fix>3d</fix>
</trkpt>
<trkpt lat="-35.362938" lon="149.165085">
  <ele>585.04</ele>
  <time>2026-09-01T19:52:43Z</time>
  <course>356.93</course>
  <speed>0.0</speed>
  <fix>3d</fix>
</trkpt>
<trkpt lat="-35.362938" lon="149.165085">
  <ele>585.09</ele>
  <time>2026-09-01T19:52:43Z</time>
  <course>114.56</course>
  <speed>0.0</speed>
  <fix>3d</fix>
</trkpt>
<trkpt lat="-35.362938" lon="149.165085">
  <ele>585.11</ele>
  <time>2026-09-01T19:52:43Z</time>
  <course>356.94</course>
  <speed>0.0</speed>
  <fix>3d</fix>
</trkpt>
<trkpt lat="-35.362938" lon="149.165085">
  <ele>585.09</ele>
  <time>2026-09-01T19:52:43Z</time>
  <course>114.56</course>
  <speed>0.0</speed>
  <fix>3d</fix>
</trkpt>
<trkpt lat="-35.362938" lon="149.165085">
  <ele>585.24</ele>
  <time>2026-09-01T19:52:43Z</time>
  <course>356.95</course>
  <speed>0.0</speed>
  <fix>3d</fix>
</trkpt>
<trkpt lat="-35.362938" lon="149.165085">
  <ele>585.09</ele>
  <time>2026-09-01T19:52:43Z</time>
  <course>114.56</course>
  <speed>0.0</speed>
  <fix>3d</fix>
</trkpt>
<trkpt lat="-35.362938" lon="149.165085">
  <ele>585.3</ele>
  <time>2026-09-01T19:52:43Z</time>
  <course>356.96</course>
  <speed>0.0</speed>
  <fix>3d</fix>
</trkpt>
<trkpt lat="-35.362938" lon="149.165085">
  <ele>585.09</ele>
  <time>2026-09-01T19:52:43Z</time>
  <course>114.56</course>
  <speed>0.0</speed>
  <fix>3d</fix>
</trkpt>
<trkpt lat="-35.362938" lon="149.165085">
  <ele>584.97</ele>
  <time>2026-09-01T19:52:43Z</time>
  <course>356.97</course>
  <speed>0.0</speed>
  <fix>3d</fix>
</trkpt>
<trkpt lat="-35.362938" lon="149.165085">
  <ele>585.09</ele>
  <time>2026-09-01T19:52:43Z</time>
  <course>114.56</course>
  <speed>0.0</speed>
  <fix>3d</fix>
</trkpt>
<trkpt lat="-35.362938" lon="149.165085">
  <ele>585.16</ele>
  <time>2026-09-01T19:52:43Z</time>
  <course>356.97</course>
  <speed>0.0</speed>
  <fix>3d</fix>
</trkpt>
<trkpt lat="-35.362938" lon="149.165085">
  <ele>585.09</ele>
  <time>2026-09-01T19:52:43Z</time>
  <course>114.56</course>
  <speed>0.0</speed>
  <fix>3d</fix>
</trkpt>
<trkpt lat="-35.362938" lon="149.165085">
  <ele>585.04</ele>
  <time>2026-09-01T19:52:43Z</time>
  <course>356.98</course>
  <speed>0.0</speed>
  <fix>3d</fix>
</trkpt>
<trkpt lat="-35.362938" lon="149.165085">
  <ele>585.09</ele>
  <time>2026-09-01T19:52:43Z</time>
  <course>114.56</course>
  <speed>0.0</speed>
  <fix>3d</fix>
</trkpt>
<trkpt lat="-35.362938" lon="149.165085">
  <ele>585.26</ele>
  <time>2026-09-01T19:52:43Z</time>
  <course>356.99</course>
  <speed>0.0</speed>
  <fix>3d</fix>
</trkpt>
<trkpt lat="-35.362938" lon="149.165085">
  <ele>585.09</ele>
  <time>2026-09-01T19:52:43Z</time>
  <course>114.56</course>
  <speed>0.0</speed>
  <fix>3d</fix>
</trkpt>
<trkpt lat="-35.362938" lon="149.165085">
  <ele>585.09</ele>
  <time>2026-09-01T19:52:43Z</time>
  <course>357.0</course>
  <speed>0.0</speed>
  <fix>3d</fix>
</trkpt>
<trkpt lat="-35.362938" lon="149.165085">
  <ele>585.09</ele>
  <time>2026-09-01T19:52:43Z</time>
  <course>114.56</course>
  <speed>0.0</speed>
  <fix>3d</fix>
</trkpt>
<trkpt lat="-35.362938" lon="149.165085">
  <ele>585.1</ele>
  <time>2026-09-01T19:52:43Z</time>
  <course>357.0</course>
  <speed>0.0</speed>
  <fix>3d</fix>
</trkpt>
<trkpt lat="-35.362938" lon="149.165085">
  <ele>585.09</ele>
  <time>2026-09-01T19:52:43Z</time>
  <course>114.56</course>
  <speed>0.0</speed>
  <fix>3d</fix>
</trkpt>
<trkpt lat="-35.362938" lon="149.165085">
  <ele>584.94</ele>
  <time>2026-09-01T19:52:43Z</time>
  <course>357.01</course>
  <speed>0.0</speed>
  <fix>3d</fix>
</trkpt>
<trkpt lat="-35.362938" lon="149.165085">
  <ele>585.09</ele>
  <time>2026-09-01T19:52:43Z</time>
  <course>114.56</course>
  <speed>0.0</speed>
  <fix>3d</fix>
</trkpt>
<trkpt lat="-35.362938" lon="149.165085">
  <ele>585.18</ele>
  <time>2026-09-01T19:52:43Z</time>
  <course>357.02</course>
  <speed>0.0</speed>
  <fix>3d</fix>
</trkpt>
<trkpt lat="-35.362938" lon="149.165085">
  <ele>585.09</ele>
  <time>2026-09-01T19:52:43Z</time>
  <course>114.56</course>
  <speed>0.0</speed>
  <fix>3d</fix>
</trkpt>
<trkpt lat="-35.362938" lon="149.165085">
  <ele>585.01</ele>
  <time>2026-09-01T19:52:43Z</time>
  <course>357.03</course>
  <speed>0.0</speed>
  <fix>3d</fix>
</trkpt>
<trkpt lat="-35.362938" lon="149.165085">
  <ele>585.09</ele>
  <time>2026-09-01T19:52:43Z</time>
  <course>114.56</course>
  <speed>0.0</speed>
  <fix>3d</fix>
</trkpt>
<trkpt lat="-35.362938" lon="149.165085">
  <ele>585.24</ele>
  <time>2026-09-01T19:52:43Z</time>
  <course>357.03</course>
  <speed>0.0</speed>
  <fix>3d</fix>
</trkpt>
<trkpt lat="-35.362938" lon="149.165085">
  <ele>585.09</ele>
  <time>2026-09-01T19:52:43Z</time>
  <course>114.56</course>
  <speed>0.0</speed>
  <fix>3d</fix>
</trkpt>
<trkpt lat="-35.362938" lon="149.165085">
  <ele>584.93</ele>
  <time>2026-09-01T19:52:43Z</time>
  <course>357.04</course>
  <speed>0.0</speed>
  <fix>3d</fix>
</trkpt>
<trkpt lat="-35.362938" lon="149.165085">
  <ele>585.09</ele>
  <time>2026-09-01T19:52:43Z</time>
  <course>114.56</course>
  <speed>0.0</speed>
  <fix>3d</fix>
</trkpt>
<trkpt lat="-35.362938" lon="149.165085">
  <ele>585.1</ele>
  <time>2026-09-01T19:52:43Z</time>
  <course>357.05</course>
  <speed>0.0</speed>
  <fix>3d</fix>
</trkpt>
<trkpt lat="-35.362938" lon="149.165085">
  <ele>585.09</ele>
  <time>2026-09-01T19:52:43Z</time>
  <course>114.56</course>
  <speed>0.0</speed>
  <fix>3d</fix>
</trkpt>
<trkpt lat="-35.362938" lon="149.165085">
  <ele>584.99</ele>
  <time>2026-09-01T19:52:43Z</time>
  <course>357.05</course>
  <speed>0.0</speed>
  <fix>3d</fix>
</trkpt>
<trkpt lat="-35.362938" lon="149.165085">
  <ele>585.09</ele>
  <time>2026-09-01T19:52:43Z</time>
  <course>114.56</course>
  <speed>0.0</speed>
  <fix>3d</fix>
</trkpt>
<trkpt lat="-35.362938" lon="149.165085">
  <ele>585.11</ele>
  <time>2026-09-01T19:52:43Z</time>
  <course>357.06</course>
  <speed>0.0</speed>
  <fix>3d</fix>
</trkpt>
<trkpt lat="-35.362938" lon="149.165085">
  <ele>585.09</ele>
  <time>2026-09-01T19:52:43Z</time>
  <course>114.56</course>
  <speed>0.0</speed>
  <fix>3d</fix>
</trkpt>
<trkpt lat="-35.362938" lon="149.165085">
  <ele>585.17</ele>
  <time>2026-09-01T19:52:43Z</time>
  <course>357.06</course>
  <speed>0.0</speed>
  <fix>3d</fix>
</trkpt>
<trkpt lat="-35.362938" lon="149.165085">
  <ele>585.09</ele>
  <time>2026-09-01T19:52:43Z</time>
  <course>114.56</course>
  <speed>0.0</speed>
  <fix>3d</fix>
</trkpt>
<trkpt lat="-35.362938" lon="149.165085">
  <ele>584.96</ele>
  <time>2026-09-01T19:52:43Z</time>
  <course>357.07</course>
  <speed>0.0</speed>
  <fix>3d</fix>
</trkpt>
<trkpt lat="-35.362938" lon="149.165085">
  <ele>585.09</ele>
  <time>2026-09-01T19:52:43Z</time>
  <course>114.56</course>
  <speed>0.0</speed>
  <fix>3d</fix>
</trkpt>
<trkpt lat="-35.362938" lon="149.165085">
  <ele>585.13</ele>
  <time>2026-09-01T19:52:43Z</time>
  <course>357.07</course>
  <speed>0.0</speed>
  <fix>3d</fix>
</trkpt>
<trkpt lat="-35.362938" lon="149.165085">
  <ele>585.09</ele>
  <time>2026-09-01T19:52:43Z</time>
  <course>114.56</course>
  <speed>0.0</speed>
  <fix>3d</fix>
</trkpt>
<trkpt lat="-35.362938" lon="149.165085">
  <ele>584.95</ele>
  <time>2026-09-01T19:52:43Z</time>
  <course>357.08</course>
  <speed>0.0</speed>
  <fix>3d</fix>
</trkpt>
<trkpt lat="-35.362938" lon="149.165085">
  <ele>585.09</ele>
  <time>2026-09-01T19:52:43Z</time>
  <course>114.56</course>
  <speed>0.0</speed>
  <fix>3d</fix>
</trkpt>
<trkpt lat="-35.362938" lon="149.165085">
  <ele>585.29</ele>
  <time>2026-09-01T19:52:43Z</time>
  <course>357.09</course>
  <speed>0.0</speed>
  <fix>3d</fix>
</trkpt>
<trkpt lat="-35.362938" lon="149.165085">
  <ele>585.09</ele>
  <time>2026-09-01T19:52:43Z</time>
  <course>114.56</course>
  <speed>0.0</speed>
  <fix>3d</fix>
</trkpt>
<trkpt lat="-35.362938" lon="149.165085">
  <ele>585.21</ele>
  <time>2026-09-01T19:52:43Z</time>
  <course>357.09</course>
  <speed>0.0</speed>
  <fix>3d</fix>
</trkpt>
<trkpt lat="-35.362938" lon="149.165085">
  <ele>585.09</ele>
  <time>2026-09-01T19:52:43Z</time>
  <course>114.56</course>
  <speed>0.0</speed>
  <fix>3d</fix>
</trkpt>
<trkpt lat="-35.362938" lon="149.165085">
  <ele>585.06</ele>
  <time>2026-09-01T19:52:43Z</time>
  <course>357.1</course>
  <speed>0.0</speed>
  <fix>3d</fix>
</trkpt>
<trkpt lat="-35.362938" lon="149.165085">
  <ele>585.09</ele>
  <time>2026-09-01T19:52:43Z</time>
  <course>114.56</course>
  <speed>0.0</speed>
  <fix>3d</fix>
</trkpt>
<trkpt lat="-35.362938" lon="149.165085">
  <ele>585.21</ele>
  <time>2026-09-01T19:52:43Z</time>
  <course>357.1</course>
  <speed>0.0</speed>
  <fix>3d</fix>
</trkpt>
<trkpt lat="-35.362938" lon="149.165085">
  <ele>585.09</ele>
  <time>2026-09-01T19:52:43Z</time>
  <course>114.56</course>
  <speed>0.0</speed>
  <fix>3d</fix>
</trkpt>
<trkpt lat="-35.362938" lon="149.165085">
  <ele>585.32</ele>
  <time>2026-09-01T19:52:43Z</time>
  <course>357.11</course>
  <speed>0.0</speed>
  <fix>3d</fix>
</trkpt>
<trkpt lat="-35.362938" lon="149.165085">
  <ele>585.09</ele>
  <time>2026-09-01T19:52:43Z</time>
  <course>114.56</course>
  <speed>0.0</speed>
  <fix>3d</fix>
</trkpt>
<trkpt lat="-35.362938" lon="149.165085">
  <ele>585.03</ele>
  <time>2026-09-01T19:52:43Z</time>
  <course>357.11</course>
  <speed>0.0</speed>
  <fix>3d</fix>
</trkpt>
<trkpt lat="-35.362938" lon="149.165085">
  <ele>585.09</ele>
  <time>2026-09-01T19:52:43Z</time>
  <course>114.56</course>
  <speed>0.0</speed>
  <fix>3d</fix>
</trkpt>
<trkpt lat="-35.362938" lon="149.165085">
  <ele>585.14</ele>
  <time>2026-09-01T19:52:43Z</time>
  <course>357.12</course>
  <speed>0.0</speed>
  <fix>3d</fix>
</trkpt>
<trkpt lat="-35.362938" lon="149.165085">
  <ele>585.09</ele>
  <time>2026-09-01T19:52:43Z</time>
  <course>114.56</course>
  <speed>0.0</speed>
  <fix>3d</fix>
</trkpt>
<trkpt lat="-35.362938" lon="149.165085">
  <ele>585.14</ele>
  <time>2026-09-01T19:52:43Z</time>
  <course>357.12</course>
  <speed>0.0</speed>
  <fix>3d</fix>
</trkpt>
<trkpt lat="-35.362938" lon="149.165085">
  <ele>585.09</ele>
  <time>2026-09-01T19:52:43Z</time>
  <course>114.56</course>
  <speed>0.0</speed>
  <fix>3d</fix>
</trkpt>
<trkpt lat="-35.362938" lon="149.165085">
  <ele>585.06</ele>
  <time>2026-09-01T19:52:43Z</time>
  <course>357.13</course>
  <speed>0.0</speed>
  <fix>3d</fix>
</trkpt>
<trkpt lat="-35.362938" lon="149.165085">
  <ele>585.09</ele>
  <time>2026-09-01T19:52:43Z</time>
  <course>114.56</course>
  <speed>0.0</speed>
  <fix>3d</fix>
</trkpt>
<trkpt lat="-35.362938" lon="149.165085">
  <ele>585.15</ele>
  <time>2026-09-01T19:52:43Z</time>
  <course>357.13</course>
  <speed>0.0</speed>
  <fix>3d</fix>
</trkpt>
<trkpt lat="-35.362938" lon="149.165085">
  <ele>585.09</ele>
  <time>2026-09-01T19:52:43Z</time>
  <course>114.56</course>
  <speed>0.0</speed>
  <fix>3d</fix>
</trkpt>
<trkpt lat="-35.362938" lon="149.165085">
  <ele>585.21</ele>
  <time>2026-09-01T19:52:43Z</time>
  <course>357.14</course>
  <speed>0.0</speed>
  <fix>3d</fix>
</trkpt>
<trkpt lat="-35.362938" lon="149.165085">
  <ele>585.09</ele>
  <time>2026-09-01T19:52:43Z</time>
  <course>114.56</course>
  <speed>0.0</speed>
  <fix>3d</fix>
</trkpt>
<trkpt lat="-35.362938" lon="149.165085">
  <ele>585.0</ele>
  <time>2026-09-01T19:52:43Z</time>
  <course>357.14</course>
  <speed>0.0</speed>
  <fix>3d</fix>
</trkpt>
<trkpt lat="-35.362938" lon="149.165085">
  <ele>585.09</ele>
  <time>2026-09-01T19:52:43Z</time>
  <course>114.56</course>
  <speed>0.0</speed>
  <fix>3d</fix>
</trkpt>
<trkpt lat="-35.362938" lon="149.165085">
  <ele>585.25</ele>
  <time>2026-09-01T19:52:43Z</time>
  <course>357.15</course>
  <speed>0.0</speed>
  <fix>3d</fix>
</trkpt>
<trkpt lat="-35.362938" lon="149.165085">
  <ele>585.09</ele>
  <time>2026-09-01T19:52:43Z</time>
  <course>114.56</course>
  <speed>0.0</speed>
  <fix>3d</fix>
</trkpt>
<trkpt lat="-35.362938" lon="149.165085">
  <ele>585.26</ele>
  <time>2026-09-01T19:52:43Z</time>
  <course>357.15</course>
  <speed>0.0</speed>
  <fix>3d</fix>
</trkpt>
<trkpt lat="-35.362938" lon="149.165085">
  <ele>585.09</ele>
  <time>2026-09-01T19:52:43Z</time>
  <course>114.56</course>
  <speed>0.0</speed>
  <fix>3d</fix>
</trkpt>
<trkpt lat="-35.362938" lon="149.165085">
  <ele>585.33</ele>
  <time>2026-09-01T19:52:43Z</time>
  <course>357.16</course>
  <speed>0.0</speed>
  <fix>3d</fix>
</trkpt>
<trkpt lat="-35.362938" lon="149.165085">
  <ele>585.09</ele>
  <time>2026-09-01T19:52:43Z</time>
  <course>114.56</course>
  <speed>0.0</speed>
  <fix>3d</fix>
</trkpt>
<trkpt lat="-35.362938" lon="149.165085">
  <ele>585.09</ele>
  <time>2026-09-01T19:52:43Z</time>
  <course>357.16</course>
  <speed>0.0</speed>
  <fix>3d</fix>
</trkpt>
<trkpt lat="-35.362938" lon="149.165085">
  <ele>585.09</ele>
  <time>2026-09-01T19:52:43Z</time>
  <course>114.56</course>
  <speed>0.0</speed>
  <fix>3d</fix>
</trkpt>
<trkpt lat="-35.362938" lon="149.165085">
  <ele>584.95</ele>
  <time>2026-09-01T19:52:43Z</time>
  <course>357.16</course>
  <speed>0.0</speed>
  <fix>3d</fix>
</trkpt>
<trkpt lat="-35.362938" lon="149.165085">
  <ele>585.09</ele>
  <time>2026-09-01T19:52:43Z</time>
  <course>114.56</course>
  <speed>0.0</speed>
  <fix>3d</fix>
</trkpt>
<trkpt lat="-35.362938" lon="149.165085">
  <ele>585.02</ele>
  <time>2026-09-01T19:52:43Z</time>
  <course>357.17</course>
  <speed>0.0</speed>
  <fix>3d</fix>
</trkpt>
<trkpt lat="-35.362938" lon="149.165085">
  <ele>585.09</ele>
  <time>2026-09-01T19:52:43Z</time>
  <course>114.56</course>
  <speed>0.0</speed>
  <fix>3d</fix>
</trkpt>
<trkpt lat="-35.362938" lon="149.165085">
  <ele>585.21</ele>
  <time>2026-09-01T19:52:43Z</time>
  <course>357.17</course>
  <speed>0.0</speed>
  <fix>3d</fix>
</trkpt>
<trkpt lat="-35.362938" lon="149.165085">
  <ele>585.09</ele>
  <time>2026-09-01T19:52:43Z</time>
  <course>114.56</course>
  <speed>0.0</speed>
  <fix>3d</fix>
</trkpt>
<trkpt lat="-35.362938" lon="149.165085">
  <ele>585.13</ele>
  <time>2026-09-01T19:52:44Z</time>
  <course>357.18</course>
  <speed>0.0</speed>
  <fix>3d</fix>
</trkpt>
<trkpt lat="-35.362938" lon="149.165085">
  <ele>585.09</ele>
  <time>2026-09-01T19:52:44Z</time>
  <course>114.56</course>
  <speed>0.0</speed>
  <fix>3d</fix>
</trkpt>
<trkpt lat="-35.362938" lon="149.165085">
  <ele>585.12</ele>
  <time>2026-09-01T19:52:44Z</time>
  <course>357.18</course>
  <speed>0.0</speed>
  <fix>3d</fix>
</trkpt>
<trkpt lat="-35.362938" lon="149.165085">
  <ele>585.09</ele>
  <time>2026-09-01T19:52:44Z</time>
  <course>114.56</course>
  <speed>0.0</speed>
  <fix>3d</fix>
</trkpt>
<trkpt lat="-35.362938" lon="149.165085">
  <ele>585.01</ele>
  <time>2026-09-01T19:52:44Z</time>
  <course>357.18</course>
  <speed>0.0</speed>
  <fix>3d</fix>
</trkpt>
<trkpt lat="-35.362938" lon="149.165085">
  <ele>585.09</ele>
  <time>2026-09-01T19:52:44Z</time>
  <course>114.56</course>
  <speed>0.0</speed>
  <fix>3d</fix>
</trkpt>
<trkpt lat="-35.362938" lon="149.165085">
  <ele>585.14</ele>
  <time>2026-09-01T19:52:44Z</time>
  <course>357.19</course>
  <speed>0.0</speed>
  <fix>3d</fix>
</trkpt>
<trkpt lat="-35.362938" lon="149.165085">
  <ele>585.09</ele>
  <time>2026-09-01T19:52:44Z</time>
  <course>114.56</course>
  <speed>0.0</speed>
  <fix>3d</fix>
</trkpt>
<trkpt lat="-35.362938" lon="149.165085">
  <ele>585.13</ele>
  <time>2026-09-01T19:52:44Z</time>
  <course>357.19</course>
  <speed>0.0</speed>
  <fix>3d</fix>
</trkpt>
<trkpt lat="-35.362938" lon="149.165085">
  <ele>585.09</ele>
  <time>2026-09-01T19:52:44Z</time>
  <course>114.56</course>
  <speed>0.0</speed>
  <fix>3d</fix>
</trkpt>
<trkpt lat="-35.362938" lon="149.165085">
  <ele>585.16</ele>
  <time>2026-09-01T19:52:44Z</time>
  <course>357.2</course>
  <speed>0.0</speed>
  <fix>3d</fix>
</trkpt>
<trkpt lat="-35.362938" lon="149.165085">
  <ele>585.09</ele>
  <time>2026-09-01T19:52:44Z</time>
  <course>114.56</course>
  <speed>0.0</speed>
  <fix>3d</fix>
</trkpt>
<trkpt lat="-35.362938" lon="149.165085">
  <ele>584.93</ele>
  <time>2026-09-01T19:52:44Z</time>
  <course>357.2</course>
  <speed>0.0</speed>
  <fix>3d</fix>
</trkpt>
<trkpt lat="-35.362938" lon="149.165085">
  <ele>585.09</ele>
  <time>2026-09-01T19:52:44Z</time>
  <course>114.56</course>
  <speed>0.0</speed>
  <fix>3d</fix>
</trkpt>
<trkpt lat="-35.362938" lon="149.165085">
  <ele>585.04</ele>
  <time>2026-09-01T19:52:44Z</time>
  <course>357.2</course>
  <speed>0.0</speed>
  <fix>3d</fix>
</trkpt>
<trkpt lat="-35.362938" lon="149.165085">
  <ele>585.09</ele>
  <time>2026-09-01T19:52:44Z</time>
  <course>114.56</course>
  <speed>0.0</speed>
  <fix>3d</fix>
</trkpt>
<trkpt lat="-35.362938" lon="149.165085">
  <ele>585.1</ele>
  <time>2026-09-01T19:52:44Z</time>
  <course>357.21</course>
  <speed>0.0</speed>
  <fix>3d</fix>
</trkpt>
<trkpt lat="-35.362938" lon="149.165085">
  <ele>585.09</ele>
  <time>2026-09-01T19:52:44Z</time>
  <course>114.56</course>
  <speed>0.0</speed>
  <fix>3d</fix>
</trkpt>
<trkpt lat="-35.362938" lon="149.165085">
  <ele>585.29</ele>
  <time>2026-09-01T19:52:44Z</time>
  <course>357.21</course>
  <speed>0.0</speed>
  <fix>3d</fix>
</trkpt>
<trkpt lat="-35.362938" lon="149.165085">
  <ele>585.09</ele>
  <time>2026-09-01T19:52:44Z</time>
  <course>114.56</course>
  <speed>0.0</speed>
  <fix>3d</fix>
</trkpt>
<trkpt lat="-35.362938" lon="149.165085">
  <ele>585.02</ele>
  <time>2026-09-01T19:52:44Z</time>
  <course>357.21</course>
  <speed>0.0</speed>
  <fix>3d</fix>
</trkpt>
<trkpt lat="-35.362938" lon="149.165085">
  <ele>585.09</ele>
  <time>2026-09-01T19:52:44Z</time>
  <course>114.56</course>
  <speed>0.0</speed>
  <fix>3d</fix>
</trkpt>
<trkpt lat="-35.362938" lon="149.165085">
  <ele>585.11</ele>
  <time>2026-09-01T19:52:44Z</time>
  <course>357.22</course>
  <speed>0.0</speed>
  <fix>3d</fix>
</trkpt>
<trkpt lat="-35.362938" lon="149.165085">
  <ele>585.09</ele>
  <time>2026-09-01T19:52:44Z</time>
  <course>114.56</course>
  <speed>0.0</speed>
  <fix>3d</fix>
</trkpt>
<trkpt lat="-35.362938" lon="149.165085">
  <ele>585.01</ele>
  <time>2026-09-01T19:52:44Z</time>
  <course>357.22</course>
  <speed>0.0</speed>
  <fix>3d</fix>
</trkpt>
<trkpt lat="-35.362938" lon="149.165085">
  <ele>585.09</ele>
  <time>2026-09-01T19:52:44Z</time>
  <course>114.56</course>
  <speed>0.0</speed>
  <fix>3d</fix>
</trkpt>
<trkpt lat="-35.362938" lon="149.165085">
  <ele>585.16</ele>
  <time>2026-09-01T19:52:44Z</time>
  <course>357.23</course>
  <speed>0.0</speed>
  <fix>3d</fix>
</trkpt>
<trkpt lat="-35.362938" lon="149.165085">
  <ele>585.09</ele>
  <time>2026-09-01T19:52:44Z</time>
  <course>114.56</course>
  <speed>0.0</speed>
  <fix>3d</fix>
</trkpt>
<trkpt lat="-35.362938" lon="149.165085">
  <ele>585.25</ele>
  <time>2026-09-01T19:52:44Z</time>
  <course>357.23</course>
  <speed>0.0</speed>
  <fix>3d</fix>
</trkpt>
<trkpt lat="-35.362938" lon="149.165085">
  <ele>585.09</ele>
  <time>2026-09-01T19:52:44Z</time>
  <course>114.56</course>
  <speed>0.0</speed>
  <fix>3d</fix>
</trkpt>
<trkpt lat="-35.362938" lon="149.165085">
  <ele>585.28</ele>
  <time>2026-09-01T19:52:44Z</time>
  <course>357.23</course>
  <speed>0.0</speed>
  <fix>3d</fix>
</trkpt>
<trkpt lat="-35.362938" lon="149.165085">
  <ele>585.09</ele>
  <time>2026-09-01T19:52:44Z</time>
  <course>114.56</course>
  <speed>0.0</speed>
  <fix>3d</fix>
</trkpt>
<trkpt lat="-35.362938" lon="149.165085">
  <ele>585.11</ele>
  <time>2026-09-01T19:52:44Z</time>
  <course>357.24</course>
  <speed>0.0</speed>
  <fix>3d</fix>
</trkpt>
<trkpt lat="-35.362938" lon="149.165085">
  <ele>585.09</ele>
  <time>2026-09-01T19:52:44Z</time>
  <course>114.56</course>
  <speed>0.0</speed>
  <fix>3d</fix>
</trkpt>
<trkpt lat="-35.362938" lon="149.165085">
  <ele>585.09</ele>
  <time>2026-09-01T19:52:44Z</time>
  <course>357.24</course>
  <speed>0.0</speed>
  <fix>3d</fix>
</trkpt>
<trkpt lat="-35.362938" lon="149.165085">
  <ele>585.09</ele>
  <time>2026-09-01T19:52:44Z</time>
  <course>114.56</course>
  <speed>0.0</speed>
  <fix>3d</fix>
</trkpt>
<trkpt lat="-35.362938" lon="149.165085">
  <ele>585.19</ele>
  <time>2026-09-01T19:52:44Z</time>
  <course>357.24</course>
  <speed>0.0</speed>
  <fix>3d</fix>
</trkpt>
<trkpt lat="-35.362938" lon="149.165085">
  <ele>585.09</ele>
  <time>2026-09-01T19:52:44Z</time>
  <course>114.56</course>
  <speed>0.0</speed>
  <fix>3d</fix>
</trkpt>
<trkpt lat="-35.362938" lon="149.165085">
  <ele>585.07</ele>
  <time>2026-09-01T19:52:44Z</time>
  <course>357.25</course>
  <speed>0.0</speed>
  <fix>3d</fix>
</trkpt>
<trkpt lat="-35.362938" lon="149.165085">
  <ele>585.09</ele>
  <time>2026-09-01T19:52:44Z</time>
  <course>114.56</course>
  <speed>0.0</speed>
  <fix>3d</fix>
</trkpt>
<trkpt lat="-35.362938" lon="149.165085">
  <ele>585.1</ele>
  <time>2026-09-01T19:52:44Z</time>
  <course>357.25</course>
  <speed>0.0</speed>
  <fix>3d</fix>
</trkpt>
<trkpt lat="-35.362938" lon="149.165085">
  <ele>585.09</ele>
  <time>2026-09-01T19:52:44Z</time>
  <course>114.56</course>
  <speed>0.0</speed>
  <fix>3d</fix>
</trkpt>
<trkpt lat="-35.362938" lon="149.165085">
  <ele>585.19</ele>
  <time>2026-09-01T19:52:44Z</time>
  <course>357.25</course>
  <speed>0.0</speed>
  <fix>3d</fix>
</trkpt>
<trkpt lat="-35.362938" lon="149.165085">
  <ele>585.09</ele>
  <time>2026-09-01T19:52:44Z</time>
  <course>114.56</course>
  <speed>0.0</speed>
  <fix>3d</fix>
</trkpt>
<trkpt lat="-35.362938" lon="149.165085">
  <ele>585.21</ele>
  <time>2026-09-01T19:52:44Z</time>
  <course>357.25</course>
  <speed>0.0</speed>
  <fix>3d</fix>
</trkpt>
<trkpt lat="-35.362938" lon="149.165085">
  <ele>585.09</ele>
  <time>2026-09-01T19:52:44Z</time>
  <course>114.56</course>
  <speed>0.0</speed>
  <fix>3d</fix>
</trkpt>
<trkpt lat="-35.362938" lon="149.165085">
  <ele>584.97</ele>
  <time>2026-09-01T19:52:44Z</time>
  <course>357.26</course>
  <speed>0.0</speed>
  <fix>3d</fix>
</trkpt>
<trkpt lat="-35.362938" lon="149.165085">
  <ele>585.09</ele>
  <time>2026-09-01T19:52:44Z</time>
  <course>114.56</course>
  <speed>0.0</speed>
  <fix>3d</fix>
</trkpt>
<trkpt lat="-35.362938" lon="149.165085">
  <ele>585.14</ele>
  <time>2026-09-01T19:52:44Z</time>
  <course>357.26</course>
  <speed>0.0</speed>
  <fix>3d</fix>
</trkpt>
<trkpt lat="-35.362938" lon="149.165085">
  <ele>585.09</ele>
  <time>2026-09-01T19:52:44Z</time>
  <course>114.56</course>
  <speed>0.0</speed>
  <fix>3d</fix>
</trkpt>
<trkpt lat="-35.362938" lon="149.165085">
  <ele>585.27</ele>
  <time>2026-09-01T19:52:44Z</time>
  <course>357.26</course>
  <speed>0.0</speed>
  <fix>3d</fix>
</trkpt>
<trkpt lat="-35.362938" lon="149.165085">
  <ele>585.09</ele>
  <time>2026-09-01T19:52:44Z</time>
  <course>114.56</course>
  <speed>0.0</speed>
  <fix>3d</fix>
</trkpt>
<trkpt lat="-35.362938" lon="149.165085">
  <ele>585.29</ele>
  <time>2026-09-01T19:52:44Z</time>
  <course>357.26</course>
  <speed>0.0</speed>
  <fix>3d</fix>
</trkpt>
<trkpt lat="-35.362938" lon="149.165085">
  <ele>585.09</ele>
  <time>2026-09-01T19:52:44Z</time>
  <course>114.56</course>
  <speed>0.0</speed>
  <fix>3d</fix>
</trkpt>
<trkpt lat="-35.362938" lon="149.165085">
  <ele>585.32</ele>
  <time>2026-09-01T19:52:44Z</time>
  <course>357.26</course>
  <speed>0.0</speed>
  <fix>3d</fix>
</trkpt>
<trkpt lat="-35.362938" lon="149.165085">
  <ele>585.09</ele>
  <time>2026-09-01T19:52:44Z</time>
  <course>114.56</course>
  <speed>0.0</speed>
  <fix>3d</fix>
</trkpt>
<trkpt lat="-35.362938" lon="149.165085">
  <ele>584.95</ele>
  <time>2026-09-01T19:52:44Z</time>
  <course>357.26</course>
  <speed>0.0</speed>
  <fix>3d</fix>
</trkpt>
<trkpt lat="-35.362938" lon="149.165085">
  <ele>585.09</ele>
  <time>2026-09-01T19:52:44Z</time>
  <course>114.56</course>
  <speed>0.0</speed>
  <fix>3d</fix>
</trkpt>
<trkpt lat="-35.362938" lon="149.165085">
  <ele>584.96</ele>
  <time>2026-09-01T19:52:44Z</time>
  <course>357.26</course>
  <speed>0.0</speed>
  <fix>3d</fix>
</trkpt>
<trkpt lat="-35.362938" lon="149.165085">
  <ele>585.09</ele>
  <time>2026-09-01T19:52:44Z</time>
  <course>114.56</course>
  <speed>0.0</speed>
  <fix>3d</fix>
</trkpt>
<trkpt lat="-35.362938" lon="149.165085">
  <ele>584.82</ele>
  <time>2026-09-01T19:52:44Z</time>
  <course>357.26</course>
  <speed>0.0</speed>
  <fix>3d</fix>
</trkpt>
<trkpt lat="-35.362938" lon="149.165085">
  <ele>585.09</ele>
  <time>2026-09-01T19:52:44Z</time>
  <course>114.56</course>
  <speed>0.0</speed>
  <fix>3d</fix>
</trkpt>
<trkpt lat="-35.362938" lon="149.165085">
  <ele>584.82</ele>
  <time>2026-09-01T19:52:44Z</time>
  <course>357.26</course>
  <speed>0.0</speed>
  <fix>3d</fix>
</trkpt>
<trkpt lat="-35.362938" lon="149.165085">
  <ele>585.09</ele>
  <time>2026-09-01T19:52:44Z</time>
  <course>114.56</course>
  <speed>0.0</speed>
  <fix>3d</fix>
</trkpt>
<trkpt lat="-35.362938" lon="149.165085">
  <ele>584.74</ele>
  <time>2026-09-01T19:52:44Z</time>
  <course>357.26</course>
  <speed>0.0</speed>
  <fix>3d</fix>
</trkpt>
<trkpt lat="-35.362938" lon="149.165085">
  <ele>585.09</ele>
  <time>2026-09-01T19:52:44Z</time>
  <course>114.56</course>
  <speed>0.0</speed>
  <fix>3d</fix>
</trkpt>
<trkpt lat="-35.362938" lon="149.165085">
  <ele>585.02</ele>
  <time>2026-09-01T19:52:44Z</time>
  <course>357.26</course>
  <speed>0.0</speed>
  <fix>3d</fix>
</trkpt>
<trkpt lat="-35.362938" lon="149.165085">
  <ele>585.09</ele>
  <time>2026-09-01T19:52:44Z</time>
  <course>114.56</course>
  <speed>0.0</speed>
  <fix>3d</fix>
</trkpt>
<trkpt lat="-35.362938" lon="149.165085">
  <ele>584.79</ele>
  <time>2026-09-01T19:52:44Z</time>
  <course>357.26</course>
  <speed>0.0</speed>
  <fix>3d</fix>
</trkpt>
<trkpt lat="-35.362938" lon="149.165085">
  <ele>585.09</ele>
  <time>2026-09-01T19:52:44Z</time>
  <course>114.56</course>
  <speed>0.0</speed>
  <fix>3d</fix>
</trkpt>
<trkpt lat="-35.362938" lon="149.165085">
  <ele>585.04</ele>
  <time>2026-09-01T19:52:44Z</time>
  <course>357.26</course>
  <speed>0.0</speed>
  <fix>3d</fix>
</trkpt>
<trkpt lat="-35.362938" lon="149.165085">
  <ele>585.09</ele>
  <time>2026-09-01T19:52:44Z</time>
  <course>114.56</course>
  <speed>0.0</speed>
  <fix>3d</fix>
</trkpt>
<trkpt lat="-35.362938" lon="149.165085">
  <ele>585.02</ele>
  <time>2026-09-01T19:52:44Z</time>
  <course>357.26</course>
  <speed>0.0</speed>
  <fix>3d</fix>
</trkpt>
<trkpt lat="-35.362938" lon="149.165085">
  <ele>585.09</ele>
  <time>2026-09-01T19:52:44Z</time>
  <course>114.56</course>
  <speed>0.0</speed>
  <fix>3d</fix>
</trkpt>
<trkpt lat="-35.362938" lon="149.165085">
  <ele>584.86</ele>
  <time>2026-09-01T19:52:44Z</time>
  <course>357.26</course>
  <speed>0.0</speed>
  <fix>3d</fix>
</trkpt>
<trkpt lat="-35.362938" lon="149.165085">
  <ele>585.09</ele>
  <time>2026-09-01T19:52:44Z</time>
  <course>114.56</course>
  <speed>0.0</speed>
  <fix>3d</fix>
</trkpt>
<trkpt lat="-35.362938" lon="149.165085">
  <ele>584.82</ele>
  <time>2026-09-01T19:52:44Z</time>
  <course>357.26</course>
  <speed>0.0</speed>
  <fix>3d</fix>
</trkpt>
<trkpt lat="-35.362938" lon="149.165085">
  <ele>585.09</ele>
  <time>2026-09-01T19:52:44Z</time>
  <course>114.56</course>
  <speed>0.0</speed>
  <fix>3d</fix>
</trkpt>
<trkpt lat="-35.362938" lon="149.165085">
  <ele>584.86</ele>
  <time>2026-09-01T19:52:44Z</time>
  <course>357.26</course>
  <speed>0.0</speed>
  <fix>3d</fix>
</trkpt>
<trkpt lat="-35.362938" lon="149.165085">
  <ele>585.09</ele>
  <time>2026-09-01T19:52:44Z</time>
  <course>114.56</course>
  <speed>0.0</speed>
  <fix>3d</fix>
</trkpt>
<trkpt lat="-35.362938" lon="149.165085">
  <ele>584.77</ele>
  <time>2026-09-01T19:52:44Z</time>
  <course>357.26</course>
  <speed>0.0</speed>
  <fix>3d</fix>
</trkpt>
<trkpt lat="-35.362938" lon="149.165085">
  <ele>585.09</ele>
  <time>2026-09-01T19:52:44Z</time>
  <course>114.56</course>
  <speed>0.0</speed>
  <fix>3d</fix>
</trkpt>
<trkpt lat="-35.362938" lon="149.165085">
  <ele>584.79</ele>
  <time>2026-09-01T19:52:44Z</time>
  <course>357.26</course>
  <speed>0.0</speed>
  <fix>3d</fix>
</trkpt>
<trkpt lat="-35.362938" lon="149.165085">
  <ele>585.09</ele>
  <time>2026-09-01T19:52:44Z</time>
  <course>114.56</course>
  <speed>0.0</speed>
  <fix>3d</fix>
</trkpt>
<trkpt lat="-35.362938" lon="149.165085">
  <ele>584.89</ele>
  <time>2026-09-01T19:52:44Z</time>
  <course>357.26</course>
  <speed>0.0</speed>
  <fix>3d</fix>
</trkpt>
<trkpt lat="-35.362938" lon="149.165085">
  <ele>585.09</ele>
  <time>2026-09-01T19:52:44Z</time>
  <course>114.56</course>
  <speed>0.0</speed>
  <fix>3d</fix>
</trkpt>
<trkpt lat="-35.362938" lon="149.165085">
  <ele>584.81</ele>
  <time>2026-09-01T19:52:44Z</time>
  <course>357.26</course>
  <speed>0.0</speed>
  <fix>3d</fix>
</trkpt>
<trkpt lat="-35.362938" lon="149.165085">
  <ele>585.09</ele>
  <time>2026-09-01T19:52:44Z</time>
  <course>114.56</course>
  <speed>0.0</speed>
  <fix>3d</fix>
</trkpt>
<trkpt lat="-35.362938" lon="149.165085">
  <ele>584.79</ele>
  <time>2026-09-01T19:52:44Z</time>
  <course>357.26</course>
  <speed>0.0</speed>
  <fix>3d</fix>
</trkpt>
<trkpt lat="-35.362938" lon="149.165085">
  <ele>585.09</ele>
  <time>2026-09-01T19:52:44Z</time>
  <course>114.56</course>
  <speed>0.0</speed>
  <fix>3d</fix>
</trkpt>
<trkpt lat="-35.362938" lon="149.165085">
  <ele>584.79</ele>
  <time>2026-09-01T19:52:44Z</time>
  <course>357.26</course>
  <speed>0.0</speed>
  <fix>3d</fix>
</trkpt>
<trkpt lat="-35.362938" lon="149.165085">
  <ele>585.09</ele>
  <time>2026-09-01T19:52:44Z</time>
  <course>114.56</course>
  <speed>0.0</speed>
  <fix>3d</fix>
</trkpt>
<trkpt lat="-35.362938" lon="149.165085">
  <ele>584.82</ele>
  <time>2026-09-01T19:52:44Z</time>
  <course>357.27</course>
  <speed>0.0</speed>
  <fix>3d</fix>
</trkpt>
<trkpt lat="-35.362938" lon="149.165085">
  <ele>585.09</ele>
  <time>2026-09-01T19:52:44Z</time>
  <course>114.56</course>
  <speed>0.0</speed>
  <fix>3d</fix>
</trkpt>
<trkpt lat="-35.362938" lon="149.165085">
  <ele>585.03</ele>
  <time>2026-09-01T19:52:44Z</time>
  <course>357.27</course>
  <speed>0.0</speed>
  <fix>3d</fix>
</trkpt>
<trkpt lat="-35.362938" lon="149.165085">
  <ele>585.09</ele>
  <time>2026-09-01T19:52:44Z</time>
  <course>114.56</course>
  <speed>0.0</speed>
  <fix>3d</fix>
</trkpt>
<trkpt lat="-35.362938" lon="149.165085">
  <ele>584.98</ele>
  <time>2026-09-01T19:52:44Z</time>
  <course>357.27</course>
  <speed>0.0</speed>
  <fix>3d</fix>
</trkpt>
<trkpt lat="-35.362938" lon="149.165085">
  <ele>585.09</ele>
  <time>2026-09-01T19:52:44Z</time>
  <course>114.56</course>
  <speed>0.0</speed>
  <fix>3d</fix>
</trkpt>
<trkpt lat="-35.362938" lon="149.165085">
  <ele>584.98</ele>
  <time>2026-09-01T19:52:44Z</time>
  <course>357.27</course>
  <speed>0.0</speed>
  <fix>3d</fix>
</trkpt>
<trkpt lat="-35.362938" lon="149.165085">
  <ele>585.09</ele>
  <time>2026-09-01T19:52:44Z</time>
  <course>114.56</course>
  <speed>0.0</speed>
  <fix>3d</fix>
</trkpt>
<trkpt lat="-35.362938" lon="149.165085">
  <ele>584.94</ele>
  <time>2026-09-01T19:52:44Z</time>
  <course>357.27</course>
  <speed>0.0</speed>
  <fix>3d</fix>
</trkpt>
<trkpt lat="-35.362938" lon="149.165085">
  <ele>585.09</ele>
  <time>2026-09-01T19:52:44Z</time>
  <course>114.56</course>
  <speed>0.0</speed>
  <fix>3d</fix>
</trkpt>
<trkpt lat="-35.362938" lon="149.165085">
  <ele>584.99</ele>
  <time>2026-09-01T19:52:44Z</time>
  <course>357.27</course>
  <speed>0.0</speed>
  <fix>3d</fix>
</trkpt>
<trkpt lat="-35.362938" lon="149.165085">
  <ele>585.09</ele>
  <time>2026-09-01T19:52:44Z</time>
  <course>114.56</course>
  <speed>0.0</speed>
  <fix>3d</fix>
</trkpt>
<trkpt lat="-35.362938" lon="149.165085">
  <ele>585.0</ele>
  <time>2026-09-01T19:52:44Z</time>
  <course>357.27</course>
  <speed>0.0</speed>
  <fix>3d</fix>
</trkpt>
<trkpt lat="-35.362938" lon="149.165085">
  <ele>585.09</ele>
  <time>2026-09-01T19:52:44Z</time>
  <course>114.56</course>
  <speed>0.0</speed>
  <fix>3d</fix>
</trkpt>
<trkpt lat="-35.362938" lon="149.165085">
  <ele>584.78</ele>
  <time>2026-09-01T19:52:44Z</time>
  <course>357.27</course>
  <speed>0.0</speed>
  <fix>3d</fix>
</trkpt>
<trkpt lat="-35.362938" lon="149.165085">
  <ele>585.09</ele>
  <time>2026-09-01T19:52:44Z</time>
  <course>114.56</course>
  <speed>0.0</speed>
  <fix>3d</fix>
</trkpt>
<trkpt lat="-35.362938" lon="149.165085">
  <ele>584.92</ele>
  <time>2026-09-01T19:52:44Z</time>
  <course>357.27</course>
  <speed>0.0</speed>
  <fix>3d</fix>
</trkpt>
<trkpt lat="-35.362938" lon="149.165085">
  <ele>585.09</ele>
  <time>2026-09-01T19:52:44Z</time>
  <course>114.56</course>
  <speed>0.0</speed>
  <fix>3d</fix>
</trkpt>
<trkpt lat="-35.362938" lon="149.165085">
  <ele>584.7</ele>
  <time>2026-09-01T19:52:44Z</time>
  <course>357.27</course>
  <speed>0.0</speed>
  <fix>3d</fix>
</trkpt>
<trkpt lat="-35.362938" lon="149.165085">
  <ele>585.09</ele>
  <time>2026-09-01T19:52:44Z</time>
  <course>114.56</course>
  <speed>0.0</speed>
  <fix>3d</fix>
</trkpt>
<trkpt lat="-35.362938" lon="149.165085">
  <ele>584.97</ele>
  <time>2026-09-01T19:52:44Z</time>
  <course>357.27</course>
  <speed>0.0</speed>
  <fix>3d</fix>
</trkpt>
<trkpt lat="-35.362938" lon="149.165085">
  <ele>585.09</ele>
  <time>2026-09-01T19:52:44Z</time>
  <course>114.56</course>
  <speed>0.0</speed>
  <fix>3d</fix>
</trkpt>
<trkpt lat="-35.362938" lon="149.165085">
  <ele>584.88</ele>
  <time>2026-09-01T19:52:44Z</time>
  <course>357.27</course>
  <speed>0.0</speed>
  <fix>3d</fix>
</trkpt>
<trkpt lat="-35.362938" lon="149.165085">
  <ele>585.09</ele>
  <time>2026-09-01T19:52:44Z</time>
  <course>114.56</course>
  <speed>0.0</speed>
  <fix>3d</fix>
</trkpt>
<trkpt lat="-35.362938" lon="149.165085">
  <ele>584.96</ele>
  <time>2026-09-01T19:52:44Z</time>
  <course>357.27</course>
  <speed>0.0</speed>
  <fix>3d</fix>
</trkpt>
<trkpt lat="-35.362938" lon="149.165085">
  <ele>585.09</ele>
  <time>2026-09-01T19:52:44Z</time>
  <course>114.56</course>
  <speed>0.0</speed>
  <fix>3d</fix>
</trkpt>
<trkpt lat="-35.362938" lon="149.165085">
  <ele>584.7</ele>
  <time>2026-09-01T19:52:44Z</time>
  <course>357.27</course>
  <speed>0.0</speed>
  <fix>3d</fix>
</trkpt>
<trkpt lat="-35.362938" lon="149.165085">
  <ele>585.09</ele>
  <time>2026-09-01T19:52:44Z</time>
  <course>114.56</course>
  <speed>0.0</speed>
  <fix>3d</fix>
</trkpt>
<trkpt lat="-35.362938" lon="149.165085">
  <ele>584.96</ele>
  <time>2026-09-01T19:52:44Z</time>
  <course>357.27</course>
  <speed>0.0</speed>
  <fix>3d</fix>
</trkpt>
<trkpt lat="-35.362938" lon="149.165085">
  <ele>585.09</ele>
  <time>2026-09-01T19:52:44Z</time>
  <course>114.56</course>
  <speed>0.0</speed>
  <fix>3d</fix>
</trkpt>
<trkpt lat="-35.362938" lon="149.165085">
  <ele>584.99</ele>
  <time>2026-09-01T19:52:44Z</time>
  <course>357.27</course>
  <speed>0.0</speed>
  <fix>3d</fix>
</trkpt>
<trkpt lat="-35.362938" lon="149.165085">
  <ele>585.09</ele>
  <time>2026-09-01T19:52:44Z</time>
  <course>114.56</course>
  <speed>0.0</speed>
  <fix>3d</fix>
</trkpt>
<trkpt lat="-35.362938" lon="149.165085">
  <ele>584.97</ele>
  <time>2026-09-01T19:52:44Z</time>
  <course>357.27</course>
  <speed>0.0</speed>
  <fix>3d</fix>
</trkpt>
<trkpt lat="-35.362938" lon="149.165085">
  <ele>585.09</ele>
  <time>2026-09-01T19:52:44Z</time>
  <course>114.56</course>
  <speed>0.0</speed>
  <fix>3d</fix>
</trkpt>
<trkpt lat="-35.362938" lon="149.165085">
  <ele>585.07</ele>
  <time>2026-09-01T19:52:44Z</time>
  <course>357.27</course>
  <speed>0.0</speed>
  <fix>3d</fix>
</trkpt>
<trkpt lat="-35.362938" lon="149.165085">
  <ele>585.09</ele>
  <time>2026-09-01T19:52:44Z</time>
  <course>114.56</course>
  <speed>0.0</speed>
  <fix>3d</fix>
</trkpt>
<trkpt lat="-35.362938" lon="149.165085">
  <ele>584.81</ele>
  <time>2026-09-01T19:52:44Z</time>
  <course>357.27</course>
  <speed>0.0</speed>
  <fix>3d</fix>
</trkpt>
<trkpt lat="-35.362938" lon="149.165085">
  <ele>585.09</ele>
  <time>2026-09-01T19:52:44Z</time>
  <course>114.56</course>
  <speed>0.0</speed>
  <fix>3d</fix>
</trkpt>
<trkpt lat="-35.362938" lon="149.165085">
  <ele>584.77</ele>
  <time>2026-09-01T19:52:44Z</time>
  <course>357.27</course>
  <speed>0.0</speed>
  <fix>3d</fix>
</trkpt>
<trkpt lat="-35.362938" lon="149.165085">
  <ele>585.09</ele>
  <time>2026-09-01T19:52:44Z</time>
  <course>114.56</course>
  <speed>0.0</speed>
  <fix>3d</fix>
</trkpt>
<trkpt lat="-35.362938" lon="149.165085">
  <ele>584.97</ele>
  <time>2026-09-01T19:52:44Z</time>
  <course>357.27</course>
  <speed>0.0</speed>
  <fix>3d</fix>
</trkpt>
<trkpt lat="-35.362938" lon="149.165085">
  <ele>585.09</ele>
  <time>2026-09-01T19:52:44Z</time>
  <course>114.56</course>
  <speed>0.0</speed>
  <fix>3d</fix>
</trkpt>
<trkpt lat="-35.362938" lon="149.165085">
  <ele>584.89</ele>
  <time>2026-09-01T19:52:44Z</time>
  <course>357.27</course>
  <speed>0.0</speed>
  <fix>3d</fix>
</trkpt>
<trkpt lat="-35.362938" lon="149.165085">
  <ele>585.09</ele>
  <time>2026-09-01T19:52:44Z</time>
  <course>114.56</course>
  <speed>0.0</speed>
  <fix>3d</fix>
</trkpt>
<trkpt lat="-35.362938" lon="149.165085">
  <ele>585.0</ele>
  <time>2026-09-01T19:52:44Z</time>
  <course>357.27</course>
  <speed>0.0</speed>
  <fix>3d</fix>
</trkpt>
<trkpt lat="-35.362938" lon="149.165085">
  <ele>585.09</ele>
  <time>2026-09-01T19:52:44Z</time>
  <course>114.56</course>
  <speed>0.0</speed>
  <fix>3d</fix>
</trkpt>
<trkpt lat="-35.362938" lon="149.165085">
  <ele>584.89</ele>
  <time>2026-09-01T19:52:44Z</time>
  <course>357.27</course>
  <speed>0.0</speed>
  <fix>3d</fix>
</trkpt>
<trkpt lat="-35.362938" lon="149.165085">
  <ele>585.09</ele>
  <time>2026-09-01T19:52:44Z</time>
  <course>114.56</course>
  <speed>0.0</speed>
  <fix>3d</fix>
</trkpt>
<trkpt lat="-35.362938" lon="149.165085">
  <ele>584.9</ele>
  <time>2026-09-01T19:52:44Z</time>
  <course>357.27</course>
  <speed>0.0</speed>
  <fix>3d</fix>
</trkpt>
<trkpt lat="-35.362938" lon="149.165085">
  <ele>585.09</ele>
  <time>2026-09-01T19:52:44Z</time>
  <course>114.56</course>
  <speed>0.0</speed>
  <fix>3d</fix>
</trkpt>
<trkpt lat="-35.362938" lon="149.165085">
  <ele>584.82</ele>
  <time>2026-09-01T19:52:44Z</time>
  <course>357.27</course>
  <speed>0.0</speed>
  <fix>3d</fix>
</trkpt>
<trkpt lat="-35.362938" lon="149.165085">
  <ele>585.09</ele>
  <time>2026-09-01T19:52:44Z</time>
  <course>114.56</course>
  <speed>0.0</speed>
  <fix>3d</fix>
</trkpt>
<trkpt lat="-35.362938" lon="149.165085">
  <ele>584.73</ele>
  <time>2026-09-01T19:52:44Z</time>
  <course>357.27</course>
  <speed>0.0</speed>
  <fix>3d</fix>
</trkpt>
<trkpt lat="-35.362938" lon="149.165085">
  <ele>585.09</ele>
  <time>2026-09-01T19:52:44Z</time>
  <course>114.56</course>
  <speed>0.0</speed>
  <fix>3d</fix>
</trkpt>
<trkpt lat="-35.362938" lon="149.165085">
  <ele>584.88</ele>
  <time>2026-09-01T19:52:44Z</time>
  <course>357.27</course>
  <speed>0.0</speed>
  <fix>3d</fix>
</trkpt>
<trkpt lat="-35.362938" lon="149.165085">
  <ele>585.09</ele>
  <time>2026-09-01T19:52:44Z</time>
  <course>114.56</course>
  <speed>0.0</speed>
  <fix>3d</fix>
</trkpt>
<trkpt lat="-35.362938" lon="149.165085">
  <ele>584.86</ele>
  <time>2026-09-01T19:52:44Z</time>
  <course>357.27</course>
  <speed>0.0</speed>
  <fix>3d</fix>
</trkpt>
<trkpt lat="-35.362938" lon="149.165085">
  <ele>585.09</ele>
  <time>2026-09-01T19:52:44Z</time>
  <course>114.56</course>
  <speed>0.0</speed>
  <fix>3d</fix>
</trkpt>
<trkpt lat="-35.362938" lon="149.165085">
  <ele>584.9</ele>
  <time>2026-09-01T19:52:44Z</time>
  <course>357.27</course>
  <speed>0.0</speed>
  <fix>3d</fix>
</trkpt>
<trkpt lat="-35.362938" lon="149.165085">
  <ele>585.09</ele>
  <time>2026-09-01T19:52:44Z</time>
  <course>114.56</course>
  <speed>0.0</speed>
  <fix>3d</fix>
</trkpt>
<trkpt lat="-35.362938" lon="149.165085">
  <ele>585.0</ele>
  <time>2026-09-01T19:52:44Z</time>
  <course>357.27</course>
  <speed>0.0</speed>
  <fix>3d</fix>
</trkpt>
<trkpt lat="-35.362938" lon="149.165085">
  <ele>585.09</ele>
  <time>2026-09-01T19:52:44Z</time>
  <course>114.56</course>
  <speed>0.0</speed>
  <fix>3d</fix>
</trkpt>
<trkpt lat="-35.362938" lon="149.165085">
  <ele>584.89</ele>
  <time>2026-09-01T19:52:44Z</time>
  <course>357.27</course>
  <speed>0.0</speed>
  <fix>3d</fix>
</trkpt>
<trkpt lat="-35.362938" lon="149.165085">
  <ele>585.09</ele>
  <time>2026-09-01T19:52:44Z</time>
  <course>114.56</course>
  <speed>0.0</speed>
  <fix>3d</fix>
</trkpt>
<trkpt lat="-35.362938" lon="149.165085">
  <ele>584.7</ele>
  <time>2026-09-01T19:52:44Z</time>
  <course>357.26</course>
  <speed>0.0</speed>
  <fix>3d</fix>
</trkpt>
<trkpt lat="-35.362938" lon="149.165085">
  <ele>585.09</ele>
  <time>2026-09-01T19:52:44Z</time>
  <course>114.56</course>
  <speed>0.0</speed>
  <fix>3d</fix>
</trkpt>
<trkpt lat="-35.362938" lon="149.165085">
  <ele>585.04</ele>
  <time>2026-09-01T19:52:44Z</time>
  <course>357.26</course>
  <speed>0.0</speed>
  <fix>3d</fix>
</trkpt>
<trkpt lat="-35.362938" lon="149.165085">
  <ele>585.09</ele>
  <time>2026-09-01T19:52:44Z</time>
  <course>114.56</course>
  <speed>0.0</speed>
  <fix>3d</fix>
</trkpt>
<trkpt lat="-35.362938" lon="149.165085">
  <ele>584.99</ele>
  <time>2026-09-01T19:52:44Z</time>
  <course>357.26</course>
  <speed>0.0</speed>
  <fix>3d</fix>
</trkpt>
<trkpt lat="-35.362938" lon="149.165085">
  <ele>585.09</ele>
  <time>2026-09-01T19:52:44Z</time>
  <course>114.56</course>
  <speed>0.0</speed>
  <fix>3d</fix>
</trkpt>
<trkpt lat="-35.362938" lon="149.165085">
  <ele>584.78</ele>
  <time>2026-09-01T19:52:44Z</time>
  <course>357.25</course>
  <speed>0.0</speed>
  <fix>3d</fix>
</trkpt>
<trkpt lat="-35.362938" lon="149.165085">
  <ele>585.09</ele>
  <time>2026-09-01T19:52:44Z</time>
  <course>114.56</course>
  <speed>0.0</speed>
  <fix>3d</fix>
</trkpt>
<trkpt lat="-35.362938" lon="149.165085">
  <ele>584.84</ele>
  <time>2026-09-01T19:52:44Z</time>
  <course>357.25</course>
  <speed>0.0</speed>
  <fix>3d</fix>
</trkpt>
<trkpt lat="-35.362938" lon="149.165085">
  <ele>585.09</ele>
  <time>2026-09-01T19:52:44Z</time>
  <course>114.56</course>
  <speed>0.0</speed>
  <fix>3d</fix>
</trkpt>
<trkpt lat="-35.362938" lon="149.165085">
  <ele>584.96</ele>
  <time>2026-09-01T19:52:44Z</time>
  <course>357.25</course>
  <speed>0.0</speed>
  <fix>3d</fix>
</trkpt>
<trkpt lat="-35.362938" lon="149.165085">
  <ele>585.09</ele>
  <time>2026-09-01T19:52:44Z</time>
  <course>114.56</course>
  <speed>0.0</speed>
  <fix>3d</fix>
</trkpt>
<trkpt lat="-35.362938" lon="149.165085">
  <ele>584.81</ele>
  <time>2026-09-01T19:52:44Z</time>
  <course>357.24</course>
  <speed>0.0</speed>
  <fix>3d</fix>
</trkpt>
<trkpt lat="-35.362938" lon="149.165085">
  <ele>585.09</ele>
  <time>2026-09-01T19:52:44Z</time>
  <course>114.56</course>
  <speed>0.0</speed>
  <fix>3d</fix>
</trkpt>
<trkpt lat="-35.362938" lon="149.165085">
  <ele>584.74</ele>
  <time>2026-09-01T19:52:44Z</time>
  <course>357.24</course>
  <speed>0.0</speed>
  <fix>3d</fix>
</trkpt>
<trkpt lat="-35.362938" lon="149.165085">
  <ele>585.09</ele>
  <time>2026-09-01T19:52:44Z</time>
  <course>114.56</course>
  <speed>0.0</speed>
  <fix>3d</fix>
</trkpt>
<trkpt lat="-35.362938" lon="149.165085">
  <ele>585.07</ele>
  <time>2026-09-01T19:52:44Z</time>
  <course>357.24</course>
  <speed>0.0</speed>
  <fix>3d</fix>
</trkpt>
<trkpt lat="-35.362938" lon="149.165085">
  <ele>585.09</ele>
  <time>2026-09-01T19:52:44Z</time>
  <course>114.56</course>
  <speed>0.0</speed>
  <fix>3d</fix>
</trkpt>
<trkpt lat="-35.362938" lon="149.165085">
  <ele>585.02</ele>
  <time>2026-09-01T19:52:44Z</time>
  <course>357.23</course>
  <speed>0.0</speed>
  <fix>3d</fix>
</trkpt>
<trkpt lat="-35.362938" lon="149.165085">
  <ele>585.09</ele>
  <time>2026-09-01T19:52:44Z</time>
  <course>114.56</course>
  <speed>0.0</speed>
  <fix>3d</fix>
</trkpt>
<trkpt lat="-35.362938" lon="149.165085">
  <ele>584.93</ele>
  <time>2026-09-01T19:52:44Z</time>
  <course>357.23</course>
  <speed>0.0</speed>
  <fix>3d</fix>
</trkpt>
<trkpt lat="-35.362938" lon="149.165085">
  <ele>585.09</ele>
  <time>2026-09-01T19:52:44Z</time>
  <course>114.56</course>
  <speed>0.0</speed>
  <fix>3d</fix>
</trkpt>
<trkpt lat="-35.362938" lon="149.165085">
  <ele>584.92</ele>
  <time>2026-09-01T19:52:44Z</time>
  <course>357.23</course>
  <speed>0.0</speed>
  <fix>3d</fix>
</trkpt>
<trkpt lat="-35.362938" lon="149.165085">
  <ele>585.09</ele>
  <time>2026-09-01T19:52:44Z</time>
  <course>114.56</course>
  <speed>0.0</speed>
  <fix>3d</fix>
</trkpt>
<trkpt lat="-35.362938" lon="149.165085">
  <ele>585.07</ele>
  <time>2026-09-01T19:52:44Z</time>
  <course>357.23</course>
  <speed>0.0</speed>
  <fix>3d</fix>
</trkpt>
<trkpt lat="-35.362938" lon="149.165085">
  <ele>585.09</ele>
  <time>2026-09-01T19:52:44Z</time>
  <course>114.56</course>
  <speed>0.0</speed>
  <fix>3d</fix>
</trkpt>
<trkpt lat="-35.362938" lon="149.165085">
  <ele>584.84</ele>
  <time>2026-09-01T19:52:44Z</time>
  <course>357.22</course>
  <speed>0.0</speed>
  <fix>3d</fix>
</trkpt>
<trkpt lat="-35.362938" lon="149.165085">
  <ele>585.09</ele>
  <time>2026-09-01T19:52:44Z</time>
  <course>114.56</course>
  <speed>0.0</speed>
  <fix>3d</fix>
</trkpt>
<trkpt lat="-35.362938" lon="149.165085">
  <ele>584.86</ele>
  <time>2026-09-01T19:52:44Z</time>
  <course>357.22</course>
  <speed>0.0</speed>
  <fix>3d</fix>
</trkpt>
<trkpt lat="-35.362938" lon="149.165085">
  <ele>585.09</ele>
  <time>2026-09-01T19:52:44Z</time>
  <course>114.56</course>
  <speed>0.0</speed>
  <fix>3d</fix>
</trkpt>
<trkpt lat="-35.362938" lon="149.165085">
  <ele>584.82</ele>
  <time>2026-09-01T19:52:44Z</time>
  <course>357.22</course>
  <speed>0.0</speed>
  <fix>3d</fix>
</trkpt>
<trkpt lat="-35.362938" lon="149.165085">
  <ele>585.09</ele>
  <time>2026-09-01T19:52:44Z</time>
  <course>114.56</course>
  <speed>0.0</speed>
  <fix>3d</fix>
</trkpt>
<trkpt lat="-35.362938" lon="149.165085">
  <ele>585.13</ele>
  <time>2026-09-01T19:52:44Z</time>
  <course>357.21</course>
  <speed>0.0</speed>
  <fix>3d</fix>
</trkpt>
<trkpt lat="-35.362938" lon="149.165085">
  <ele>585.09</ele>
  <time>2026-09-01T19:52:44Z</time>
  <course>114.56</course>
  <speed>0.0</speed>
  <fix>3d</fix>
</trkpt>
<trkpt lat="-35.362938" lon="149.165085">
  <ele>585.02</ele>
  <time>2026-09-01T19:52:44Z</time>
  <course>357.21</course>
  <speed>0.0</speed>
  <fix>3d</fix>
</trkpt>
<trkpt lat="-35.362938" lon="149.165085">
  <ele>585.09</ele>
  <time>2026-09-01T19:52:44Z</time>
  <course>114.56</course>
  <speed>0.0</speed>
  <fix>3d</fix>
</trkpt>
<trkpt lat="-35.362938" lon="149.165085">
  <ele>584.81</ele>
  <time>2026-09-01T19:52:44Z</time>
  <course>357.21</course>
  <speed>0.0</speed>
  <fix>3d</fix>
</trkpt>
<trkpt lat="-35.362938" lon="149.165085">
  <ele>585.09</ele>
  <time>2026-09-01T19:52:44Z</time>
  <course>114.56</course>
  <speed>0.0</speed>
  <fix>3d</fix>
</trkpt>
<trkpt lat="-35.362938" lon="149.165085">
  <ele>584.92</ele>
  <time>2026-09-01T19:52:44Z</time>
  <course>357.21</course>
  <speed>0.0</speed>
  <fix>3d</fix>
</trkpt>
<trkpt lat="-35.362938" lon="149.165085">
  <ele>585.09</ele>
  <time>2026-09-01T19:52:44Z</time>
  <course>114.56</course>
  <speed>0.0</speed>
  <fix>3d</fix>
</trkpt>
<trkpt lat="-35.362938" lon="149.165085">
  <ele>584.81</ele>
  <time>2026-09-01T19:52:44Z</time>
  <course>357.2</course>
  <speed>0.0</speed>
  <fix>3d</fix>
</trkpt>
<trkpt lat="-35.362938" lon="149.165085">
  <ele>585.09</ele>
  <time>2026-09-01T19:52:44Z</time>
  <course>114.56</course>
  <speed>0.0</speed>
  <fix>3d</fix>
</trkpt>
<trkpt lat="-35.362938" lon="149.165085">
  <ele>584.82</ele>
  <time>2026-09-01T19:52:44Z</time>
  <course>357.2</course>
  <speed>0.0</speed>
  <fix>3d</fix>
</trkpt>
<trkpt lat="-35.362938" lon="149.165085">
  <ele>585.09</ele>
  <time>2026-09-01T19:52:44Z</time>
  <course>114.56</course>
  <speed>0.0</speed>
  <fix>3d</fix>
</trkpt>
<trkpt lat="-35.362938" lon="149.165085">
  <ele>584.89</ele>
  <time>2026-09-01T19:52:44Z</time>
  <course>357.2</course>
  <speed>0.0</speed>
  <fix>3d</fix>
</trkpt>
<trkpt lat="-35.362938" lon="149.165085">
  <ele>585.09</ele>
  <time>2026-09-01T19:52:44Z</time>
  <course>114.56</course>
  <speed>0.0</speed>
  <fix>3d</fix>
</trkpt>
<trkpt lat="-35.362938" lon="149.165085">
  <ele>584.82</ele>
  <time>2026-09-01T19:52:44Z</time>
  <course>357.2</course>
  <speed>0.0</speed>
  <fix>3d</fix>
</trkpt>
<trkpt lat="-35.362938" lon="149.165085">
  <ele>585.09</ele>
  <time>2026-09-01T19:52:44Z</time>
  <course>114.56</course>
  <speed>0.0</speed>
  <fix>3d</fix>
</trkpt>
<trkpt lat="-35.362938" lon="149.165085">
  <ele>585.03</ele>
  <time>2026-09-01T19:52:44Z</time>
  <course>357.19</course>
  <speed>0.0</speed>
  <fix>3d</fix>
</trkpt>
<trkpt lat="-35.362938" lon="149.165085">
  <ele>585.09</ele>
  <time>2026-09-01T19:52:44Z</time>
  <course>114.56</course>
  <speed>0.0</speed>
  <fix>3d</fix>
</trkpt>
<trkpt lat="-35.362938" lon="149.165085">
  <ele>584.98</ele>
  <time>2026-09-01T19:52:44Z</time>
  <course>357.19</course>
  <speed>0.0</speed>
  <fix>3d</fix>
</trkpt>
<trkpt lat="-35.362938" lon="149.165085">
  <ele>585.09</ele>
  <time>2026-09-01T19:52:44Z</time>
  <course>114.56</course>
  <speed>0.0</speed>
  <fix>3d</fix>
</trkpt>
<trkpt lat="-35.362938" lon="149.165085">
  <ele>584.99</ele>
  <time>2026-09-01T19:52:44Z</time>
  <course>357.19</course>
  <speed>0.0</speed>
  <fix>3d</fix>
</trkpt>
<trkpt lat="-35.362938" lon="149.165085">
  <ele>585.09</ele>
  <time>2026-09-01T19:52:44Z</time>
  <course>114.56</course>
  <speed>0.0</speed>
  <fix>3d</fix>
</trkpt>
<trkpt lat="-35.362938" lon="149.165085">
  <ele>584.98</ele>
  <time>2026-09-01T19:52:44Z</time>
  <course>357.19</course>
  <speed>0.0</speed>
  <fix>3d</fix>
</trkpt>
<trkpt lat="-35.362938" lon="149.165085">
  <ele>585.09</ele>
  <time>2026-09-01T19:52:44Z</time>
  <course>114.56</course>
  <speed>0.0</speed>
  <fix>3d</fix>
</trkpt>
<trkpt lat="-35.362938" lon="149.165085">
  <ele>584.89</ele>
  <time>2026-09-01T19:52:44Z</time>
  <course>357.18</course>
  <speed>0.0</speed>
  <fix>3d</fix>
</trkpt>
<trkpt lat="-35.362938" lon="149.165085">
  <ele>585.09</ele>
  <time>2026-09-01T19:52:44Z</time>
  <course>114.56</course>
  <speed>0.0</speed>
  <fix>3d</fix>
</trkpt>
<trkpt lat="-35.362938" lon="149.165085">
  <ele>585.02</ele>
  <time>2026-09-01T19:52:44Z</time>
  <course>357.18</course>
  <speed>0.0</speed>
  <fix>3d</fix>
</trkpt>
<trkpt lat="-35.362938" lon="149.165085">
  <ele>585.09</ele>
  <time>2026-09-01T19:52:44Z</time>
  <course>114.56</course>
  <speed>0.0</speed>
  <fix>3d</fix>
</trkpt>
<trkpt lat="-35.362938" lon="149.165085">
  <ele>585.1</ele>
  <time>2026-09-01T19:52:44Z</time>
  <course>357.18</course>
  <speed>0.0</speed>
  <fix>3d</fix>
</trkpt>
<trkpt lat="-35.362938" lon="149.165085">
  <ele>585.09</ele>
  <time>2026-09-01T19:52:44Z</time>
  <course>114.56</course>
  <speed>0.0</speed>
  <fix>3d</fix>
</trkpt>
<trkpt lat="-35.362938" lon="149.165085">
  <ele>584.98</ele>
  <time>2026-09-01T19:52:44Z</time>
  <course>357.18</course>
  <speed>0.0</speed>
  <fix>3d</fix>
</trkpt>
<trkpt lat="-35.362938" lon="149.165085">
  <ele>585.09</ele>
  <time>2026-09-01T19:52:44Z</time>
  <course>114.56</course>
  <speed>0.0</speed>
  <fix>3d</fix>
</trkpt>
<trkpt lat="-35.362938" lon="149.165085">
  <ele>585.06</ele>
  <time>2026-09-01T19:52:44Z</time>
  <course>357.18</course>
  <speed>0.0</speed>
  <fix>3d</fix>
</trkpt>
<trkpt lat="-35.362938" lon="149.165085">
  <ele>585.09</ele>
  <time>2026-09-01T19:52:44Z</time>
  <course>114.56</course>
  <speed>0.0</speed>
  <fix>3d</fix>
</trkpt>
<trkpt lat="-35.362938" lon="149.165085">
  <ele>584.89</ele>
  <time>2026-09-01T19:52:44Z</time>
  <course>357.17</course>
  <speed>0.0</speed>
  <fix>3d</fix>
</trkpt>
<trkpt lat="-35.362938" lon="149.165085">
  <ele>585.09</ele>
  <time>2026-09-01T19:52:44Z</time>
  <course>114.56</course>
  <speed>0.0</speed>
  <fix>3d</fix>
</trkpt>
<trkpt lat="-35.362938" lon="149.165085">
  <ele>584.79</ele>
  <time>2026-09-01T19:52:44Z</time>
  <course>357.17</course>
  <speed>0.0</speed>
  <fix>3d</fix>
</trkpt>
<trkpt lat="-35.362938" lon="149.165085">
  <ele>585.09</ele>
  <time>2026-09-01T19:52:44Z</time>
  <course>114.56</course>
  <speed>0.0</speed>
  <fix>3d</fix>
</trkpt>
<trkpt lat="-35.362938" lon="149.165085">
  <ele>585.07</ele>
  <time>2026-09-01T19:52:44Z</time>
  <course>357.17</course>
  <speed>0.0</speed>
  <fix>3d</fix>
</trkpt>
<trkpt lat="-35.362938" lon="149.165085">
  <ele>585.09</ele>
  <time>2026-09-01T19:52:44Z</time>
  <course>114.56</course>
  <speed>0.0</speed>
  <fix>3d</fix>
</trkpt>
<trkpt lat="-35.362938" lon="149.165085">
  <ele>584.99</ele>
  <time>2026-09-01T19:52:44Z</time>
  <course>357.17</course>
  <speed>0.0</speed>
  <fix>3d</fix>
</trkpt>
<trkpt lat="-35.362938" lon="149.165085">
  <ele>585.09</ele>
  <time>2026-09-01T19:52:44Z</time>
  <course>114.56</course>
  <speed>0.0</speed>
  <fix>3d</fix>
</trkpt>
<trkpt lat="-35.362938" lon="149.165085">
  <ele>584.94</ele>
  <time>2026-09-01T19:52:44Z</time>
  <course>357.16</course>
  <speed>0.0</speed>
  <fix>3d</fix>
</trkpt>
<trkpt lat="-35.362938" lon="149.165085">
  <ele>585.09</ele>
  <time>2026-09-01T19:52:44Z</time>
  <course>114.56</course>
  <speed>0.0</speed>
  <fix>3d</fix>
</trkpt>
<trkpt lat="-35.362938" lon="149.165085">
  <ele>584.79</ele>
  <time>2026-09-01T19:52:44Z</time>
  <course>357.16</course>
  <speed>0.0</speed>
  <fix>3d</fix>
</trkpt>
<trkpt lat="-35.362938" lon="149.165085">
  <ele>585.09</ele>
  <time>2026-09-01T19:52:44Z</time>
  <course>114.56</course>
  <speed>0.0</speed>
  <fix>3d</fix>
</trkpt>
<trkpt lat="-35.362938" lon="149.165085">
  <ele>585.0</ele>
  <time>2026-09-01T19:52:44Z</time>
  <course>357.16</course>
  <speed>0.0</speed>
  <fix>3d</fix>
</trkpt>
<trkpt lat="-35.362938" lon="149.165085">
  <ele>585.09</ele>
  <time>2026-09-01T19:52:44Z</time>
  <course>114.56</course>
  <speed>0.0</speed>
  <fix>3d</fix>
</trkpt>
<trkpt lat="-35.362938" lon="149.165085">
  <ele>584.77</ele>
  <time>2026-09-01T19:52:44Z</time>
  <course>357.16</course>
  <speed>0.0</speed>
  <fix>3d</fix>
</trkpt>
<trkpt lat="-35.362938" lon="149.165085">
  <ele>585.09</ele>
  <time>2026-09-01T19:52:44Z</time>
  <course>114.56</course>
  <speed>0.0</speed>
  <fix>3d</fix>
</trkpt>
<trkpt lat="-35.362938" lon="149.165085">
  <ele>584.8</ele>
  <time>2026-09-01T19:52:44Z</time>
  <course>357.16</course>
  <speed>0.0</speed>
  <fix>3d</fix>
</trkpt>
<trkpt lat="-35.362938" lon="149.165085">
  <ele>585.09</ele>
  <time>2026-09-01T19:52:44Z</time>
  <course>114.56</course>
  <speed>0.0</speed>
  <fix>3d</fix>
</trkpt>
<trkpt lat="-35.362938" lon="149.165085">
  <ele>584.84</ele>
  <time>2026-09-01T19:52:44Z</time>
  <course>357.15</course>
  <speed>0.0</speed>
  <fix>3d</fix>
</trkpt>
<trkpt lat="-35.362938" lon="149.165085">
  <ele>585.09</ele>
  <time>2026-09-01T19:52:44Z</time>
  <course>114.56</course>
  <speed>0.0</speed>
  <fix>3d</fix>
</trkpt>
<trkpt lat="-35.362938" lon="149.165085">
  <ele>584.77</ele>
  <time>2026-09-01T19:52:44Z</time>
  <course>357.15</course>
  <speed>0.0</speed>
  <fix>3d</fix>
</trkpt>
<trkpt lat="-35.362938" lon="149.165085">
  <ele>585.09</ele>
  <time>2026-09-01T19:52:44Z</time>
  <course>114.56</course>
  <speed>0.0</speed>
  <fix>3d</fix>
</trkpt>
<trkpt lat="-35.362938" lon="149.165085">
  <ele>584.78</ele>
  <time>2026-09-01T19:52:44Z</time>
  <course>357.15</course>
  <speed>0.0</speed>
  <fix>3d</fix>
</trkpt>
<trkpt lat="-35.362938" lon="149.165085">
  <ele>585.09</ele>
  <time>2026-09-01T19:52:44Z</time>
  <course>114.56</course>
  <speed>0.0</speed>
  <fix>3d</fix>
</trkpt>
<trkpt lat="-35.362938" lon="149.165085">
  <ele>584.89</ele>
  <time>2026-09-01T19:52:44Z</time>
  <course>357.15</course>
  <speed>0.0</speed>
  <fix>3d</fix>
</trkpt>
<trkpt lat="-35.362938" lon="149.165085">
  <ele>585.09</ele>
  <time>2026-09-01T19:52:44Z</time>
  <course>114.56</course>
  <speed>0.0</speed>
  <fix>3d</fix>
</trkpt>
<trkpt lat="-35.362938" lon="149.165085">
  <ele>584.98</ele>
  <time>2026-09-01T19:52:44Z</time>
  <course>357.15</course>
  <speed>0.0</speed>
  <fix>3d</fix>
</trkpt>
<trkpt lat="-35.362938" lon="149.165085">
  <ele>585.09</ele>
  <time>2026-09-01T19:52:44Z</time>
  <course>114.56</course>
  <speed>0.0</speed>
  <fix>3d</fix>
</trkpt>
<trkpt lat="-35.362938" lon="149.165085">
  <ele>584.77</ele>
  <time>2026-09-01T19:52:44Z</time>
  <course>357.14</course>
  <speed>0.0</speed>
  <fix>3d</fix>
</trkpt>
<trkpt lat="-35.362938" lon="149.165085">
  <ele>585.09</ele>
  <time>2026-09-01T19:52:44Z</time>
  <course>114.56</course>
  <speed>0.0</speed>
  <fix>3d</fix>
</trkpt>
<trkpt lat="-35.362938" lon="149.165085">
  <ele>584.95</ele>
  <time>2026-09-01T19:52:44Z</time>
  <course>357.14</course>
  <speed>0.0</speed>
  <fix>3d</fix>
</trkpt>
<trkpt lat="-35.362938" lon="149.165085">
  <ele>585.09</ele>
  <time>2026-09-01T19:52:44Z</time>
  <course>114.56</course>
  <speed>0.0</speed>
  <fix>3d</fix>
</trkpt>
<trkpt lat="-35.362938" lon="149.165085">
  <ele>585.03</ele>
  <time>2026-09-01T19:52:44Z</time>
  <course>357.14</course>
  <speed>0.0</speed>
  <fix>3d</fix>
</trkpt>
<trkpt lat="-35.362938" lon="149.165085">
  <ele>585.09</ele>
  <time>2026-09-01T19:52:44Z</time>
  <course>114.56</course>
  <speed>0.0</speed>
  <fix>3d</fix>
</trkpt>
<trkpt lat="-35.362938" lon="149.165085">
  <ele>584.83</ele>
  <time>2026-09-01T19:52:44Z</time>
  <course>357.14</course>
  <speed>0.0</speed>
  <fix>3d</fix>
</trkpt>
<trkpt lat="-35.362938" lon="149.165085">
  <ele>585.09</ele>
  <time>2026-09-01T19:52:44Z</time>
  <course>114.56</course>
  <speed>0.0</speed>
  <fix>3d</fix>
</trkpt>
<trkpt lat="-35.362938" lon="149.165085">
  <ele>584.86</ele>
  <time>2026-09-01T19:52:44Z</time>
  <course>357.14</course>
  <speed>0.0</speed>
  <fix>3d</fix>
</trkpt>
<trkpt lat="-35.362938" lon="149.165085">
  <ele>585.09</ele>
  <time>2026-09-01T19:52:44Z</time>
  <course>114.56</course>
  <speed>0.0</speed>
  <fix>3d</fix>
</trkpt>
<trkpt lat="-35.362938" lon="149.165085">
  <ele>584.76</ele>
  <time>2026-09-01T19:52:44Z</time>
  <course>357.13</course>
  <speed>0.0</speed>
  <fix>3d</fix>
</trkpt>
<trkpt lat="-35.362938" lon="149.165085">
  <ele>585.09</ele>
  <time>2026-09-01T19:52:44Z</time>
  <course>114.56</course>
  <speed>0.0</speed>
  <fix>3d</fix>
</trkpt>
<trkpt lat="-35.362938" lon="149.165085">
  <ele>585.0</ele>
  <time>2026-09-01T19:52:44Z</time>
  <course>357.12</course>
  <speed>0.0</speed>
  <fix>3d</fix>
</trkpt>
<trkpt lat="-35.362938" lon="149.165085">
  <ele>585.09</ele>
  <time>2026-09-01T19:52:44Z</time>
  <course>114.56</course>
  <speed>0.0</speed>
  <fix>3d</fix>
</trkpt>
<trkpt lat="-35.362938" lon="149.165085">
  <ele>585.07</ele>
  <time>2026-09-01T19:52:44Z</time>
  <course>357.12</course>
  <speed>0.0</speed>
  <fix>3d</fix>
</trkpt>
<trkpt lat="-35.362938" lon="149.165085">
  <ele>585.09</ele>
  <time>2026-09-01T19:52:44Z</time>
  <course>114.56</course>
  <speed>0.0</speed>
  <fix>3d</fix>
</trkpt>
<trkpt lat="-35.362938" lon="149.165085">
  <ele>584.81</ele>
  <time>2026-09-01T19:52:44Z</time>
  <course>357.12</course>
  <speed>0.0</speed>
  <fix>3d</fix>
</trkpt>
<trkpt lat="-35.362938" lon="149.165085">
  <ele>585.09</ele>
  <time>2026-09-01T19:52:44Z</time>
  <course>114.56</course>
  <speed>0.0</speed>
  <fix>3d</fix>
</trkpt>
<trkpt lat="-35.362938" lon="149.165085">
  <ele>585.11</ele>
  <time>2026-09-01T19:52:44Z</time>
  <course>357.11</course>
  <speed>0.0</speed>
  <fix>3d</fix>
</trkpt>
<trkpt lat="-35.362938" lon="149.165085">
  <ele>585.09</ele>
  <time>2026-09-01T19:52:44Z</time>
  <course>114.56</course>
  <speed>0.0</speed>
  <fix>3d</fix>
</trkpt>
<trkpt lat="-35.362938" lon="149.165085">
  <ele>584.84</ele>
  <time>2026-09-01T19:52:44Z</time>
  <course>357.11</course>
  <speed>0.0</speed>
  <fix>3d</fix>
</trkpt>
<trkpt lat="-35.362938" lon="149.165085">
  <ele>585.09</ele>
  <time>2026-09-01T19:52:44Z</time>
  <course>114.56</course>
  <speed>0.0</speed>
  <fix>3d</fix>
</trkpt>
<trkpt lat="-35.362938" lon="149.165085">
  <ele>585.01</ele>
  <time>2026-09-01T19:52:44Z</time>
  <course>357.1</course>
  <speed>0.0</speed>
  <fix>3d</fix>
</trkpt>
<trkpt lat="-35.362938" lon="149.165085">
  <ele>585.09</ele>
  <time>2026-09-01T19:52:44Z</time>
  <course>114.56</course>
  <speed>0.0</speed>
  <fix>3d</fix>
</trkpt>
<trkpt lat="-35.362938" lon="149.165085">
  <ele>585.0</ele>
  <time>2026-09-01T19:52:44Z</time>
  <course>357.1</course>
  <speed>0.0</speed>
  <fix>3d</fix>
</trkpt>
<trkpt lat="-35.362938" lon="149.165085">
  <ele>585.09</ele>
  <time>2026-09-01T19:52:44Z</time>
  <course>114.56</course>
  <speed>0.0</speed>
  <fix>3d</fix>
</trkpt>
<trkpt lat="-35.362938" lon="149.165085">
  <ele>584.82</ele>
  <time>2026-09-01T19:52:44Z</time>
  <course>357.09</course>
  <speed>0.0</speed>
  <fix>3d</fix>
</trkpt>
<trkpt lat="-35.362938" lon="149.165085">
  <ele>585.09</ele>
  <time>2026-09-01T19:52:44Z</time>
  <course>114.56</course>
  <speed>0.0</speed>
  <fix>3d</fix>
</trkpt>
<trkpt lat="-35.362938" lon="149.165085">
  <ele>585.05</ele>
  <time>2026-09-01T19:52:44Z</time>
  <course>357.09</course>
  <speed>0.0</speed>
  <fix>3d</fix>
</trkpt>
<trkpt lat="-35.362938" lon="149.165085">
  <ele>585.09</ele>
  <time>2026-09-01T19:52:44Z</time>
  <course>114.56</course>
  <speed>0.0</speed>
  <fix>3d</fix>
</trkpt>
<trkpt lat="-35.362938" lon="149.165085">
  <ele>584.89</ele>
  <time>2026-09-01T19:52:44Z</time>
  <course>357.08</course>
  <speed>0.0</speed>
  <fix>3d</fix>
</trkpt>
<trkpt lat="-35.362938" lon="149.165085">
  <ele>585.09</ele>
  <time>2026-09-01T19:52:44Z</time>
  <course>114.56</course>
  <speed>0.0</speed>
  <fix>3d</fix>
</trkpt>
<trkpt lat="-35.362938" lon="149.165085">
  <ele>584.98</ele>
  <time>2026-09-01T19:52:44Z</time>
  <course>357.08</course>
  <speed>0.0</speed>
  <fix>3d</fix>
</trkpt>
<trkpt lat="-35.362938" lon="149.165085">
  <ele>585.09</ele>
  <time>2026-09-01T19:52:44Z</time>
  <course>114.56</course>
  <speed>0.0</speed>
  <fix>3d</fix>
</trkpt>
<trkpt lat="-35.362938" lon="149.165085">
  <ele>584.84</ele>
  <time>2026-09-01T19:52:44Z</time>
  <course>357.07</course>
  <speed>0.0</speed>
  <fix>3d</fix>
</trkpt>
<trkpt lat="-35.362938" lon="149.165085">
  <ele>585.09</ele>
  <time>2026-09-01T19:52:44Z</time>
  <course>114.56</course>
  <speed>0.0</speed>
  <fix>3d</fix>
</trkpt>
<trkpt lat="-35.362938" lon="149.165085">
  <ele>584.99</ele>
  <time>2026-09-01T19:52:44Z</time>
  <course>357.07</course>
  <speed>0.0</speed>
  <fix>3d</fix>
</trkpt>
<trkpt lat="-35.362938" lon="149.165085">
  <ele>585.09</ele>
  <time>2026-09-01T19:52:44Z</time>
  <course>114.56</course>
  <speed>0.0</speed>
  <fix>3d</fix>
</trkpt>
<trkpt lat="-35.362938" lon="149.165085">
  <ele>584.99</ele>
  <time>2026-09-01T19:52:44Z</time>
  <course>357.07</course>
  <speed>0.0</speed>
  <fix>3d</fix>
</trkpt>
<trkpt lat="-35.362938" lon="149.165085">
  <ele>585.09</ele>
  <time>2026-09-01T19:52:44Z</time>
  <course>114.56</course>
  <speed>0.0</speed>
  <fix>3d</fix>
</trkpt>
<trkpt lat="-35.362938" lon="149.165085">
  <ele>584.77</ele>
  <time>2026-09-01T19:52:44Z</time>
  <course>357.06</course>
  <speed>0.0</speed>
  <fix>3d</fix>
</trkpt>
<trkpt lat="-35.362938" lon="149.165085">
  <ele>585.09</ele>
  <time>2026-09-01T19:52:44Z</time>
  <course>114.56</course>
  <speed>0.0</speed>
  <fix>3d</fix>
</trkpt>
<trkpt lat="-35.362938" lon="149.165085">
  <ele>585.06</ele>
  <time>2026-09-01T19:52:44Z</time>
  <course>357.06</course>
  <speed>0.0</speed>
  <fix>3d</fix>
</trkpt>
<trkpt lat="-35.362938" lon="149.165085">
  <ele>585.09</ele>
  <time>2026-09-01T19:52:44Z</time>
  <course>114.56</course>
  <speed>0.0</speed>
  <fix>3d</fix>
</trkpt>
<trkpt lat="-35.362938" lon="149.165085">
  <ele>585.03</ele>
  <time>2026-09-01T19:52:44Z</time>
  <course>357.05</course>
  <speed>0.0</speed>
  <fix>3d</fix>
</trkpt>
<trkpt lat="-35.362938" lon="149.165085">
  <ele>585.09</ele>
  <time>2026-09-01T19:52:44Z</time>
  <course>114.56</course>
  <speed>0.0</speed>
  <fix>3d</fix>
</trkpt>
<trkpt lat="-35.362938" lon="149.165085">
  <ele>585.14</ele>
  <time>2026-09-01T19:52:44Z</time>
  <course>357.05</course>
  <speed>0.0</speed>
  <fix>3d</fix>
</trkpt>
<trkpt lat="-35.362938" lon="149.165085">
  <ele>585.09</ele>
  <time>2026-09-01T19:52:44Z</time>
  <course>114.56</course>
  <speed>0.0</speed>
  <fix>3d</fix>
</trkpt>
<trkpt lat="-35.362938" lon="149.165085">
  <ele>584.94</ele>
  <time>2026-09-01T19:52:44Z</time>
  <course>357.05</course>
  <speed>0.0</speed>
  <fix>3d</fix>
</trkpt>
<trkpt lat="-35.362938" lon="149.165085">
  <ele>585.09</ele>
  <time>2026-09-01T19:52:44Z</time>
  <course>114.56</course>
  <speed>0.0</speed>
  <fix>3d</fix>
</trkpt>
<trkpt lat="-35.362938" lon="149.165085">
  <ele>585.02</ele>
  <time>2026-09-01T19:52:44Z</time>
  <course>357.04</course>
  <speed>0.0</speed>
  <fix>3d</fix>
</trkpt>
<trkpt lat="-35.362938" lon="149.165085">
  <ele>585.09</ele>
  <time>2026-09-01T19:52:44Z</time>
  <course>114.56</course>
  <speed>0.0</speed>
  <fix>3d</fix>
</trkpt>
<trkpt lat="-35.362938" lon="149.165085">
  <ele>585.11</ele>
  <time>2026-09-01T19:52:44Z</time>
  <course>357.04</course>
  <speed>0.0</speed>
  <fix>3d</fix>
</trkpt>
<trkpt lat="-35.362938" lon="149.165085">
  <ele>585.09</ele>
  <time>2026-09-01T19:52:44Z</time>
  <course>114.56</course>
  <speed>0.0</speed>
  <fix>3d</fix>
</trkpt>
<trkpt lat="-35.362938" lon="149.165085">
  <ele>585.15</ele>
  <time>2026-09-01T19:52:44Z</time>
  <course>357.03</course>
  <speed>0.0</speed>
  <fix>3d</fix>
</trkpt>
<trkpt lat="-35.362938" lon="149.165085">
  <ele>585.09</ele>
  <time>2026-09-01T19:52:44Z</time>
  <course>114.56</course>
  <speed>0.0</speed>
  <fix>3d</fix>
</trkpt>
<trkpt lat="-35.362938" lon="149.165085">
  <ele>584.96</ele>
  <time>2026-09-01T19:52:44Z</time>
  <course>357.03</course>
  <speed>0.0</speed>
  <fix>3d</fix>
</trkpt>
<trkpt lat="-35.362938" lon="149.165085">
  <ele>585.09</ele>
  <time>2026-09-01T19:52:44Z</time>
  <course>114.56</course>
  <speed>0.0</speed>
  <fix>3d</fix>
</trkpt>
<trkpt lat="-35.362938" lon="149.165085">
  <ele>585.13</ele>
  <time>2026-09-01T19:52:44Z</time>
  <course>357.03</course>
  <speed>0.0</speed>
  <fix>3d</fix>
</trkpt>
<trkpt lat="-35.362938" lon="149.165085">
  <ele>585.09</ele>
  <time>2026-09-01T19:52:44Z</time>
  <course>114.56</course>
  <speed>0.0</speed>
  <fix>3d</fix>
</trkpt>
<trkpt lat="-35.362938" lon="149.165085">
  <ele>584.85</ele>
  <time>2026-09-01T19:52:44Z</time>
  <course>357.02</course>
  <speed>0.0</speed>
  <fix>3d</fix>
</trkpt>
<trkpt lat="-35.362938" lon="149.165085">
  <ele>585.09</ele>
  <time>2026-09-01T19:52:44Z</time>
  <course>114.56</course>
  <speed>0.0</speed>
  <fix>3d</fix>
</trkpt>
<trkpt lat="-35.362938" lon="149.165085">
  <ele>584.91</ele>
  <time>2026-09-01T19:52:44Z</time>
  <course>357.02</course>
  <speed>0.0</speed>
  <fix>3d</fix>
</trkpt>
<trkpt lat="-35.362938" lon="149.165085">
  <ele>585.09</ele>
  <time>2026-09-01T19:52:44Z</time>
  <course>114.56</course>
  <speed>0.0</speed>
  <fix>3d</fix>
</trkpt>
<trkpt lat="-35.362938" lon="149.165085">
  <ele>585.11</ele>
  <time>2026-09-01T19:52:44Z</time>
  <course>357.02</course>
  <speed>0.0</speed>
  <fix>3d</fix>
</trkpt>
<trkpt lat="-35.362938" lon="149.165085">
  <ele>585.09</ele>
  <time>2026-09-01T19:52:44Z</time>
  <course>114.56</course>
  <speed>0.0</speed>
  <fix>3d</fix>
</trkpt>
<trkpt lat="-35.362938" lon="149.165085">
  <ele>585.02</ele>
  <time>2026-09-01T19:52:44Z</time>
  <course>357.01</course>
  <speed>0.0</speed>
  <fix>3d</fix>
</trkpt>
<trkpt lat="-35.362938" lon="149.165085">
  <ele>585.09</ele>
  <time>2026-09-01T19:52:44Z</time>
  <course>114.56</course>
  <speed>0.0</speed>
  <fix>3d</fix>
</trkpt>
<trkpt lat="-35.362938" lon="149.165085">
  <ele>585.07</ele>
  <time>2026-09-01T19:52:44Z</time>
  <course>357.01</course>
  <speed>0.0</speed>
  <fix>3d</fix>
</trkpt>
<trkpt lat="-35.362938" lon="149.165085">
  <ele>585.09</ele>
  <time>2026-09-01T19:52:44Z</time>
  <course>114.56</course>
  <speed>0.0</speed>
  <fix>3d</fix>
</trkpt>
<trkpt lat="-35.362938" lon="149.165085">
  <ele>585.02</ele>
  <time>2026-09-01T19:52:44Z</time>
  <course>357.01</course>
  <speed>0.0</speed>
  <fix>3d</fix>
</trkpt>
<trkpt lat="-35.362938" lon="149.165085">
  <ele>585.09</ele>
  <time>2026-09-01T19:52:44Z</time>
  <course>114.56</course>
  <speed>0.0</speed>
  <fix>3d</fix>
</trkpt>
<trkpt lat="-35.362938" lon="149.165085">
  <ele>584.87</ele>
  <time>2026-09-01T19:52:44Z</time>
  <course>357.0</course>
  <speed>0.0</speed>
  <fix>3d</fix>
</trkpt>
<trkpt lat="-35.362938" lon="149.165085">
  <ele>585.09</ele>
  <time>2026-09-01T19:52:44Z</time>
  <course>114.56</course>
  <speed>0.0</speed>
  <fix>3d</fix>
</trkpt>
<trkpt lat="-35.362938" lon="149.165085">
  <ele>584.99</ele>
  <time>2026-09-01T19:52:44Z</time>
  <course>357.0</course>
  <speed>0.0</speed>
  <fix>3d</fix>
</trkpt>
<trkpt lat="-35.362938" lon="149.165085">
  <ele>585.09</ele>
  <time>2026-09-01T19:52:44Z</time>
  <course>114.56</course>
  <speed>0.0</speed>
  <fix>3d</fix>
</trkpt>
<trkpt lat="-35.362938" lon="149.165085">
  <ele>585.1</ele>
  <time>2026-09-01T19:52:44Z</time>
  <course>357.0</course>
  <speed>0.0</speed>
  <fix>3d</fix>
</trkpt>
<trkpt lat="-35.362938" lon="149.165085">
  <ele>585.09</ele>
  <time>2026-09-01T19:52:44Z</time>
  <course>114.56</course>
  <speed>0.0</speed>
  <fix>3d</fix>
</trkpt>
<trkpt lat="-35.362938" lon="149.165085">
  <ele>585.03</ele>
  <time>2026-09-01T19:52:45Z</time>
  <course>356.99</course>
  <speed>0.0</speed>
  <fix>3d</fix>
</trkpt>
<trkpt lat="-35.362938" lon="149.165085">
  <ele>585.09</ele>
  <time>2026-09-01T19:52:45Z</time>
  <course>114.56</course>
  <speed>0.0</speed>
  <fix>3d</fix>
</trkpt>
<trkpt lat="-35.362938" lon="149.165085">
  <ele>585.21</ele>
  <time>2026-09-01T19:52:45Z</time>
  <course>356.99</course>
  <speed>0.0</speed>
  <fix>3d</fix>
</trkpt>
<trkpt lat="-35.362938" lon="149.165085">
  <ele>585.09</ele>
  <time>2026-09-01T19:52:45Z</time>
  <course>114.56</course>
  <speed>0.0</speed>
  <fix>3d</fix>
</trkpt>
<trkpt lat="-35.362938" lon="149.165085">
  <ele>585.03</ele>
  <time>2026-09-01T19:52:45Z</time>
  <course>356.99</course>
  <speed>0.0</speed>
  <fix>3d</fix>
</trkpt>
<trkpt lat="-35.362938" lon="149.165085">
  <ele>585.09</ele>
  <time>2026-09-01T19:52:45Z</time>
  <course>114.56</course>
  <speed>0.0</speed>
  <fix>3d</fix>
</trkpt>
<trkpt lat="-35.362938" lon="149.165085">
  <ele>585.06</ele>
  <time>2026-09-01T19:52:45Z</time>
  <course>356.98</course>
  <speed>0.0</speed>
  <fix>3d</fix>
</trkpt>
<trkpt lat="-35.362938" lon="149.165085">
  <ele>585.09</ele>
  <time>2026-09-01T19:52:45Z</time>
  <course>114.56</course>
  <speed>0.0</speed>
  <fix>3d</fix>
</trkpt>
<trkpt lat="-35.362938" lon="149.165085">
  <ele>585.07</ele>
  <time>2026-09-01T19:52:45Z</time>
  <course>356.98</course>
  <speed>0.0</speed>
  <fix>3d</fix>
</trkpt>
<trkpt lat="-35.362938" lon="149.165085">
  <ele>585.09</ele>
  <time>2026-09-01T19:52:45Z</time>
  <course>114.56</course>
  <speed>0.0</speed>
  <fix>3d</fix>
</trkpt>
<trkpt lat="-35.362938" lon="149.165085">
  <ele>584.88</ele>
  <time>2026-09-01T19:52:45Z</time>
  <course>356.98</course>
  <speed>0.0</speed>
  <fix>3d</fix>
</trkpt>
<trkpt lat="-35.362938" lon="149.165085">
  <ele>585.09</ele>
  <time>2026-09-01T19:52:45Z</time>
  <course>114.56</course>
  <speed>0.0</speed>
  <fix>3d</fix>
</trkpt>
<trkpt lat="-35.362938" lon="149.165085">
  <ele>584.99</ele>
  <time>2026-09-01T19:52:45Z</time>
  <course>356.98</course>
  <speed>0.0</speed>
  <fix>3d</fix>
</trkpt>
<trkpt lat="-35.362938" lon="149.165085">
  <ele>585.09</ele>
  <time>2026-09-01T19:52:45Z</time>
  <course>114.56</course>
  <speed>0.0</speed>
  <fix>3d</fix>
</trkpt>
<trkpt lat="-35.362938" lon="149.165085">
  <ele>584.88</ele>
  <time>2026-09-01T19:52:45Z</time>
  <course>356.97</course>
  <speed>0.0</speed>
  <fix>3d</fix>
</trkpt>
<trkpt lat="-35.362938" lon="149.165085">
  <ele>585.09</ele>
  <time>2026-09-01T19:52:45Z</time>
  <course>114.56</course>
  <speed>0.0</speed>
  <fix>3d</fix>
</trkpt>
<trkpt lat="-35.362938" lon="149.165085">
  <ele>585.18</ele>
  <time>2026-09-01T19:52:45Z</time>
  <course>356.97</course>
  <speed>0.0</speed>
  <fix>3d</fix>
</trkpt>
<trkpt lat="-35.362938" lon="149.165085">
  <ele>585.09</ele>
  <time>2026-09-01T19:52:45Z</time>
  <course>114.56</course>
  <speed>0.0</speed>
  <fix>3d</fix>
</trkpt>
<trkpt lat="-35.362938" lon="149.165085">
  <ele>585.02</ele>
  <time>2026-09-01T19:52:45Z</time>
  <course>356.97</course>
  <speed>0.0</speed>
  <fix>3d</fix>
</trkpt>
<trkpt lat="-35.362938" lon="149.165085">
  <ele>585.09</ele>
  <time>2026-09-01T19:52:45Z</time>
  <course>114.56</course>
  <speed>0.0</speed>
  <fix>3d</fix>
</trkpt>
<trkpt lat="-35.362938" lon="149.165085">
  <ele>585.19</ele>
  <time>2026-09-01T19:52:45Z</time>
  <course>356.96</course>
  <speed>0.0</speed>
  <fix>3d</fix>
</trkpt>
<trkpt lat="-35.362938" lon="149.165085">
  <ele>585.09</ele>
  <time>2026-09-01T19:52:45Z</time>
  <course>114.56</course>
  <speed>0.0</speed>
  <fix>3d</fix>
</trkpt>
<trkpt lat="-35.362938" lon="149.165085">
  <ele>585.21</ele>
  <time>2026-09-01T19:52:45Z</time>
  <course>356.96</course>
  <speed>0.0</speed>
  <fix>3d</fix>
</trkpt>
<trkpt lat="-35.362938" lon="149.165085">
  <ele>585.09</ele>
  <time>2026-09-01T19:52:45Z</time>
  <course>114.56</course>
  <speed>0.0</speed>
  <fix>3d</fix>
</trkpt>
<trkpt lat="-35.362938" lon="149.165085">
  <ele>585.02</ele>
  <time>2026-09-01T19:52:45Z</time>
  <course>356.96</course>
  <speed>0.0</speed>
  <fix>3d</fix>
</trkpt>
<trkpt lat="-35.362938" lon="149.165085">
  <ele>585.09</ele>
  <time>2026-09-01T19:52:45Z</time>
  <course>114.56</course>
  <speed>0.0</speed>
  <fix>3d</fix>
</trkpt>
<trkpt lat="-35.362938" lon="149.165085">
  <ele>585.13</ele>
  <time>2026-09-01T19:52:45Z</time>
  <course>356.96</course>
  <speed>0.0</speed>
  <fix>3d</fix>
</trkpt>
<trkpt lat="-35.362938" lon="149.165085">
  <ele>585.09</ele>
  <time>2026-09-01T19:52:45Z</time>
  <course>114.56</course>
  <speed>0.0</speed>
  <fix>3d</fix>
</trkpt>
<trkpt lat="-35.362938" lon="149.165085">
  <ele>584.98</ele>
  <time>2026-09-01T19:52:45Z</time>
  <course>356.95</course>
  <speed>0.0</speed>
  <fix>3d</fix>
</trkpt>
<trkpt lat="-35.362938" lon="149.165085">
  <ele>585.09</ele>
  <time>2026-09-01T19:52:45Z</time>
  <course>114.56</course>
  <speed>0.0</speed>
  <fix>3d</fix>
</trkpt>
<trkpt lat="-35.362938" lon="149.165085">
  <ele>584.93</ele>
  <time>2026-09-01T19:52:45Z</time>
  <course>356.95</course>
  <speed>0.0</speed>
  <fix>3d</fix>
</trkpt>
<trkpt lat="-35.362938" lon="149.165085">
  <ele>585.09</ele>
  <time>2026-09-01T19:52:45Z</time>
  <course>114.56</course>
  <speed>0.0</speed>
  <fix>3d</fix>
</trkpt>
<trkpt lat="-35.362938" lon="149.165085">
  <ele>585.12</ele>
  <time>2026-09-01T19:52:45Z</time>
  <course>356.95</course>
  <speed>0.0</speed>
  <fix>3d</fix>
</trkpt>
<trkpt lat="-35.362938" lon="149.165085">
  <ele>585.09</ele>
  <time>2026-09-01T19:52:45Z</time>
  <course>114.56</course>
  <speed>0.0</speed>
  <fix>3d</fix>
</trkpt>
<trkpt lat="-35.362938" lon="149.165085">
  <ele>584.96</ele>
  <time>2026-09-01T19:52:45Z</time>
  <course>356.94</course>
  <speed>0.0</speed>
  <fix>3d</fix>
</trkpt>
<trkpt lat="-35.362938" lon="149.165085">
  <ele>585.09</ele>
  <time>2026-09-01T19:52:45Z</time>
  <course>114.56</course>
  <speed>0.0</speed>
  <fix>3d</fix>
</trkpt>
<trkpt lat="-35.362938" lon="149.165085">
  <ele>584.98</ele>
  <time>2026-09-01T19:52:45Z</time>
  <course>356.94</course>
  <speed>0.0</speed>
  <fix>3d</fix>
</trkpt>
<trkpt lat="-35.362938" lon="149.165085">
  <ele>585.09</ele>
  <time>2026-09-01T19:52:45Z</time>
  <course>114.56</course>
  <speed>0.0</speed>
  <fix>3d</fix>
</trkpt>
<trkpt lat="-35.362938" lon="149.165085">
  <ele>585.1</ele>
  <time>2026-09-01T19:52:45Z</time>
  <course>356.93</course>
  <speed>0.0</speed>
  <fix>3d</fix>
</trkpt>
<trkpt lat="-35.362938" lon="149.165085">
  <ele>585.09</ele>
  <time>2026-09-01T19:52:45Z</time>
  <course>114.56</course>
  <speed>0.0</speed>
  <fix>3d</fix>
</trkpt>
<trkpt lat="-35.362938" lon="149.165085">
  <ele>584.82</ele>
  <time>2026-09-01T19:52:45Z</time>
  <course>356.93</course>
  <speed>0.0</speed>
  <fix>3d</fix>
</trkpt>
<trkpt lat="-35.362938" lon="149.165085">
  <ele>585.09</ele>
  <time>2026-09-01T19:52:45Z</time>
  <course>114.56</course>
  <speed>0.0</speed>
  <fix>3d</fix>
</trkpt>
<trkpt lat="-35.362938" lon="149.165085">
  <ele>584.89</ele>
  <time>2026-09-01T19:52:45Z</time>
  <course>356.92</course>
  <speed>0.0</speed>
  <fix>3d</fix>
</trkpt>
<trkpt lat="-35.362938" lon="149.165085">
  <ele>585.09</ele>
  <time>2026-09-01T19:52:45Z</time>
  <course>114.56</course>
  <speed>0.0</speed>
  <fix>3d</fix>
</trkpt>
<trkpt lat="-35.362938" lon="149.165085">
  <ele>584.91</ele>
  <time>2026-09-01T19:52:45Z</time>
  <course>356.92</course>
  <speed>0.0</speed>
  <fix>3d</fix>
</trkpt>
<trkpt lat="-35.362938" lon="149.165085">
  <ele>585.09</ele>
  <time>2026-09-01T19:52:45Z</time>
  <course>114.56</course>
  <speed>0.0</speed>
  <fix>3d</fix>
</trkpt>
<trkpt lat="-35.362938" lon="149.165085">
  <ele>584.87</ele>
  <time>2026-09-01T19:52:45Z</time>
  <course>356.91</course>
  <speed>0.0</speed>
  <fix>3d</fix>
</trkpt>
<trkpt lat="-35.362938" lon="149.165085">
  <ele>585.09</ele>
  <time>2026-09-01T19:52:45Z</time>
  <course>114.56</course>
  <speed>0.0</speed>
  <fix>3d</fix>
</trkpt>
<trkpt lat="-35.362938" lon="149.165085">
  <ele>584.88</ele>
  <time>2026-09-01T19:52:45Z</time>
  <course>356.91</course>
  <speed>0.0</speed>
  <fix>3d</fix>
</trkpt>
<trkpt lat="-35.362938" lon="149.165085">
  <ele>585.09</ele>
  <time>2026-09-01T19:52:45Z</time>
  <course>114.56</course>
  <speed>0.0</speed>
  <fix>3d</fix>
</trkpt>
<trkpt lat="-35.362938" lon="149.165085">
  <ele>585.03</ele>
  <time>2026-09-01T19:52:45Z</time>
  <course>356.9</course>
  <speed>0.0</speed>
  <fix>3d</fix>
</trkpt>
<trkpt lat="-35.362938" lon="149.165085">
  <ele>585.09</ele>
  <time>2026-09-01T19:52:45Z</time>
  <course>114.56</course>
  <speed>0.0</speed>
  <fix>3d</fix>
</trkpt>
<trkpt lat="-35.362938" lon="149.165085">
  <ele>585.05</ele>
  <time>2026-09-01T19:52:45Z</time>
  <course>356.9</course>
  <speed>0.0</speed>
  <fix>3d</fix>
</trkpt>
<trkpt lat="-35.362938" lon="149.165085">
  <ele>585.09</ele>
  <time>2026-09-01T19:52:45Z</time>
  <course>114.56</course>
  <speed>0.0</speed>
  <fix>3d</fix>
</trkpt>
<trkpt lat="-35.362938" lon="149.165085">
  <ele>585.17</ele>
  <time>2026-09-01T19:52:45Z</time>
  <course>356.9</course>
  <speed>0.0</speed>
  <fix>3d</fix>
</trkpt>
<trkpt lat="-35.362938" lon="149.165085">
  <ele>585.09</ele>
  <time>2026-09-01T19:52:45Z</time>
  <course>114.56</course>
  <speed>0.0</speed>
  <fix>3d</fix>
</trkpt>
<trkpt lat="-35.362938" lon="149.165085">
  <ele>584.97</ele>
  <time>2026-09-01T19:52:45Z</time>
  <course>356.89</course>
  <speed>0.0</speed>
  <fix>3d</fix>
</trkpt>
<trkpt lat="-35.362938" lon="149.165085">
  <ele>585.09</ele>
  <time>2026-09-01T19:52:45Z</time>
  <course>114.56</course>
  <speed>0.0</speed>
  <fix>3d</fix>
</trkpt>
<trkpt lat="-35.362938" lon="149.165085">
  <ele>585.04</ele>
  <time>2026-09-01T19:52:45Z</time>
  <course>356.89</course>
  <speed>0.0</speed>
  <fix>3d</fix>
</trkpt>
<trkpt lat="-35.362938" lon="149.165085">
  <ele>585.09</ele>
  <time>2026-09-01T19:52:45Z</time>
  <course>114.56</course>
  <speed>0.0</speed>
  <fix>3d</fix>
</trkpt>
<trkpt lat="-35.362938" lon="149.165085">
  <ele>585.01</ele>
  <time>2026-09-01T19:52:45Z</time>
  <course>356.88</course>
  <speed>0.0</speed>
  <fix>3d</fix>
</trkpt>
<trkpt lat="-35.362938" lon="149.165085">
  <ele>585.09</ele>
  <time>2026-09-01T19:52:45Z</time>
  <course>114.56</course>
  <speed>0.0</speed>
  <fix>3d</fix>
</trkpt>
<trkpt lat="-35.362938" lon="149.165085">
  <ele>585.11</ele>
  <time>2026-09-01T19:52:45Z</time>
  <course>356.88</course>
  <speed>0.0</speed>
  <fix>3d</fix>
</trkpt>
<trkpt lat="-35.362938" lon="149.165085">
  <ele>585.09</ele>
  <time>2026-09-01T19:52:45Z</time>
  <course>114.56</course>
  <speed>0.0</speed>
  <fix>3d</fix>
</trkpt>
<trkpt lat="-35.362938" lon="149.165085">
  <ele>585.0</ele>
  <time>2026-09-01T19:52:45Z</time>
  <course>356.87</course>
  <speed>0.0</speed>
  <fix>3d</fix>
</trkpt>
<trkpt lat="-35.362938" lon="149.165085">
  <ele>585.09</ele>
  <time>2026-09-01T19:52:45Z</time>
  <course>114.56</course>
  <speed>0.0</speed>
  <fix>3d</fix>
</trkpt>
<trkpt lat="-35.362938" lon="149.165085">
  <ele>584.88</ele>
  <time>2026-09-01T19:52:45Z</time>
  <course>356.87</course>
  <speed>0.0</speed>
  <fix>3d</fix>
</trkpt>
<trkpt lat="-35.362938" lon="149.165085">
  <ele>585.09</ele>
  <time>2026-09-01T19:52:45Z</time>
  <course>114.56</course>
  <speed>0.0</speed>
  <fix>3d</fix>
</trkpt>
<trkpt lat="-35.362938" lon="149.165085">
  <ele>584.84</ele>
  <time>2026-09-01T19:52:45Z</time>
  <course>356.87</course>
  <speed>0.0</speed>
  <fix>3d</fix>
</trkpt>
<trkpt lat="-35.362938" lon="149.165085">
  <ele>585.09</ele>
  <time>2026-09-01T19:52:45Z</time>
  <course>114.56</course>
  <speed>0.0</speed>
  <fix>3d</fix>
</trkpt>
<trkpt lat="-35.362938" lon="149.165085">
  <ele>585.09</ele>
  <time>2026-09-01T19:52:45Z</time>
  <course>356.86</course>
  <speed>0.0</speed>
  <fix>3d</fix>
</trkpt>
<trkpt lat="-35.362938" lon="149.165085">
  <ele>585.09</ele>
  <time>2026-09-01T19:52:45Z</time>
  <course>114.56</course>
  <speed>0.0</speed>
  <fix>3d</fix>
</trkpt>
<trkpt lat="-35.362938" lon="149.165085">
  <ele>584.95</ele>
  <time>2026-09-01T19:52:45Z</time>
  <course>356.86</course>
  <speed>0.0</speed>
  <fix>3d</fix>
</trkpt>
<trkpt lat="-35.362938" lon="149.165085">
  <ele>585.09</ele>
  <time>2026-09-01T19:52:45Z</time>
  <course>114.56</course>
  <speed>0.0</speed>
  <fix>3d</fix>
</trkpt>
<trkpt lat="-35.362938" lon="149.165085">
  <ele>585.0</ele>
  <time>2026-09-01T19:52:45Z</time>
  <course>356.85</course>
  <speed>0.0</speed>
  <fix>3d</fix>
</trkpt>
<trkpt lat="-35.362938" lon="149.165085">
  <ele>585.09</ele>
  <time>2026-09-01T19:52:45Z</time>
  <course>114.56</course>
  <speed>0.0</speed>
  <fix>3d</fix>
</trkpt>
<trkpt lat="-35.362938" lon="149.165085">
  <ele>584.98</ele>
  <time>2026-09-01T19:52:45Z</time>
  <course>356.85</course>
  <speed>0.0</speed>
  <fix>3d</fix>
</trkpt>
<trkpt lat="-35.362938" lon="149.165085">
  <ele>585.09</ele>
  <time>2026-09-01T19:52:45Z</time>
  <course>114.56</course>
  <speed>0.0</speed>
  <fix>3d</fix>
</trkpt>
<trkpt lat="-35.362938" lon="149.165085">
  <ele>585.19</ele>
  <time>2026-09-01T19:52:45Z</time>
  <course>356.85</course>
  <speed>0.0</speed>
  <fix>3d</fix>
</trkpt>
<trkpt lat="-35.362938" lon="149.165085">
  <ele>585.09</ele>
  <time>2026-09-01T19:52:45Z</time>
  <course>114.56</course>
  <speed>0.0</speed>
  <fix>3d</fix>
</trkpt>
<trkpt lat="-35.362938" lon="149.165085">
  <ele>585.08</ele>
  <time>2026-09-01T19:52:45Z</time>
  <course>356.84</course>
  <speed>0.0</speed>
  <fix>3d</fix>
</trkpt>
<trkpt lat="-35.362938" lon="149.165085">
  <ele>585.09</ele>
  <time>2026-09-01T19:52:45Z</time>
  <course>114.56</course>
  <speed>0.0</speed>
  <fix>3d</fix>
</trkpt>
<trkpt lat="-35.362938" lon="149.165085">
  <ele>585.1</ele>
  <time>2026-09-01T19:52:45Z</time>
  <course>356.84</course>
  <speed>0.0</speed>
  <fix>3d</fix>
</trkpt>
<trkpt lat="-35.362938" lon="149.165085">
  <ele>585.09</ele>
  <time>2026-09-01T19:52:45Z</time>
  <course>114.56</course>
  <speed>0.0</speed>
  <fix>3d</fix>
</trkpt>
<trkpt lat="-35.362938" lon="149.165085">
  <ele>585.18</ele>
  <time>2026-09-01T19:52:45Z</time>
  <course>356.84</course>
  <speed>0.0</speed>
  <fix>3d</fix>
</trkpt>
<trkpt lat="-35.362938" lon="149.165085">
  <ele>585.09</ele>
  <time>2026-09-01T19:52:45Z</time>
  <course>114.56</course>
  <speed>0.0</speed>
  <fix>3d</fix>
</trkpt>
<trkpt lat="-35.362938" lon="149.165085">
  <ele>585.13</ele>
  <time>2026-09-01T19:52:45Z</time>
  <course>356.83</course>
  <speed>0.0</speed>
  <fix>3d</fix>
</trkpt>
<trkpt lat="-35.362938" lon="149.165085">
  <ele>585.09</ele>
  <time>2026-09-01T19:52:45Z</time>
  <course>114.56</course>
  <speed>0.0</speed>
  <fix>3d</fix>
</trkpt>
<trkpt lat="-35.362938" lon="149.165085">
  <ele>584.89</ele>
  <time>2026-09-01T19:52:45Z</time>
  <course>356.83</course>
  <speed>0.0</speed>
  <fix>3d</fix>
</trkpt>
<trkpt lat="-35.362938" lon="149.165085">
  <ele>585.09</ele>
  <time>2026-09-01T19:52:45Z</time>
  <course>114.56</course>
  <speed>0.0</speed>
  <fix>3d</fix>
</trkpt>
<trkpt lat="-35.362938" lon="149.165085">
  <ele>584.97</ele>
  <time>2026-09-01T19:52:45Z</time>
  <course>356.83</course>
  <speed>0.0</speed>
  <fix>3d</fix>
</trkpt>
<trkpt lat="-35.362938" lon="149.165085">
  <ele>585.09</ele>
  <time>2026-09-01T19:52:45Z</time>
  <course>114.56</course>
  <speed>0.0</speed>
  <fix>3d</fix>
</trkpt>
<trkpt lat="-35.362938" lon="149.165085">
  <ele>584.96</ele>
  <time>2026-09-01T19:52:45Z</time>
  <course>356.82</course>
  <speed>0.0</speed>
  <fix>3d</fix>
</trkpt>
<trkpt lat="-35.362938" lon="149.165085">
  <ele>585.09</ele>
  <time>2026-09-01T19:52:45Z</time>
  <course>114.56</course>
  <speed>0.0</speed>
  <fix>3d</fix>
</trkpt>
<trkpt lat="-35.362938" lon="149.165085">
  <ele>584.84</ele>
  <time>2026-09-01T19:52:45Z</time>
  <course>356.82</course>
  <speed>0.0</speed>
  <fix>3d</fix>
</trkpt>
<trkpt lat="-35.362938" lon="149.165085">
  <ele>585.09</ele>
  <time>2026-09-01T19:52:45Z</time>
  <course>114.56</course>
  <speed>0.0</speed>
  <fix>3d</fix>
</trkpt>
<trkpt lat="-35.362938" lon="149.165085">
  <ele>584.87</ele>
  <time>2026-09-01T19:52:45Z</time>
  <course>356.82</course>
  <speed>0.0</speed>
  <fix>3d</fix>
</trkpt>
<trkpt lat="-35.362938" lon="149.165085">
  <ele>585.09</ele>
  <time>2026-09-01T19:52:45Z</time>
  <course>114.56</course>
  <speed>0.0</speed>
  <fix>3d</fix>
</trkpt>
<trkpt lat="-35.362938" lon="149.165085">
  <ele>585.12</ele>
  <time>2026-09-01T19:52:45Z</time>
  <course>356.81</course>
  <speed>0.0</speed>
  <fix>3d</fix>
</trkpt>
<trkpt lat="-35.362938" lon="149.165085">
  <ele>585.09</ele>
  <time>2026-09-01T19:52:45Z</time>
  <course>114.56</course>
  <speed>0.0</speed>
  <fix>3d</fix>
</trkpt>
<trkpt lat="-35.362938" lon="149.165085">
  <ele>585.07</ele>
  <time>2026-09-01T19:52:45Z</time>
  <course>356.81</course>
  <speed>0.0</speed>
  <fix>3d</fix>
</trkpt>
<trkpt lat="-35.362938" lon="149.165085">
  <ele>585.09</ele>
  <time>2026-09-01T19:52:45Z</time>
  <course>114.56</course>
  <speed>0.0</speed>
  <fix>3d</fix>
</trkpt>
<trkpt lat="-35.362938" lon="149.165085">
  <ele>584.87</ele>
  <time>2026-09-01T19:52:45Z</time>
  <course>356.81</course>
  <speed>0.0</speed>
  <fix>3d</fix>
</trkpt>
<trkpt lat="-35.362938" lon="149.165085">
  <ele>585.09</ele>
  <time>2026-09-01T19:52:45Z</time>
  <course>114.56</course>
  <speed>0.0</speed>
  <fix>3d</fix>
</trkpt>
<trkpt lat="-35.362938" lon="149.165085">
  <ele>584.82</ele>
  <time>2026-09-01T19:52:45Z</time>
  <course>356.8</course>
  <speed>0.0</speed>
  <fix>3d</fix>
</trkpt>
<trkpt lat="-35.362938" lon="149.165085">
  <ele>585.09</ele>
  <time>2026-09-01T19:52:45Z</time>
  <course>114.56</course>
  <speed>0.0</speed>
  <fix>3d</fix>
</trkpt>
<trkpt lat="-35.362938" lon="149.165085">
  <ele>584.99</ele>
  <time>2026-09-01T19:52:45Z</time>
  <course>356.8</course>
  <speed>0.0</speed>
  <fix>3d</fix>
</trkpt>
<trkpt lat="-35.362938" lon="149.165085">
  <ele>585.09</ele>
  <time>2026-09-01T19:52:45Z</time>
  <course>114.56</course>
  <speed>0.0</speed>
  <fix>3d</fix>
</trkpt>
<trkpt lat="-35.362938" lon="149.165085">
  <ele>584.81</ele>
  <time>2026-09-01T19:52:45Z</time>
  <course>356.8</course>
  <speed>0.0</speed>
  <fix>3d</fix>
</trkpt>
<trkpt lat="-35.362938" lon="149.165085">
  <ele>585.09</ele>
  <time>2026-09-01T19:52:45Z</time>
  <course>114.56</course>
  <speed>0.0</speed>
  <fix>3d</fix>
</trkpt>
<trkpt lat="-35.362938" lon="149.165085">
  <ele>584.87</ele>
  <time>2026-09-01T19:52:45Z</time>
  <course>356.79</course>
  <speed>0.0</speed>
  <fix>3d</fix>
</trkpt>
<trkpt lat="-35.362938" lon="149.165085">
  <ele>585.09</ele>
  <time>2026-09-01T19:52:45Z</time>
  <course>114.56</course>
  <speed>0.0</speed>
  <fix>3d</fix>
</trkpt>
<trkpt lat="-35.362938" lon="149.165085">
  <ele>584.85</ele>
  <time>2026-09-01T19:52:45Z</time>
  <course>356.79</course>
  <speed>0.0</speed>
  <fix>3d</fix>
</trkpt>
<trkpt lat="-35.362938" lon="149.165085">
  <ele>585.09</ele>
  <time>2026-09-01T19:52:45Z</time>
  <course>114.56</course>
  <speed>0.0</speed>
  <fix>3d</fix>
</trkpt>
<trkpt lat="-35.362938" lon="149.165085">
  <ele>585.14</ele>
  <time>2026-09-01T19:52:45Z</time>
  <course>356.79</course>
  <speed>0.0</speed>
  <fix>3d</fix>
</trkpt>
<trkpt lat="-35.362938" lon="149.165085">
  <ele>585.09</ele>
  <time>2026-09-01T19:52:45Z</time>
  <course>114.56</course>
  <speed>0.0</speed>
  <fix>3d</fix>
</trkpt>
<trkpt lat="-35.362938" lon="149.165085">
  <ele>584.89</ele>
  <time>2026-09-01T19:52:45Z</time>
  <course>356.79</course>
  <speed>0.0</speed>
  <fix>3d</fix>
</trkpt>
<trkpt lat="-35.362938" lon="149.165085">
  <ele>585.09</ele>
  <time>2026-09-01T19:52:45Z</time>
  <course>114.56</course>
  <speed>0.0</speed>
  <fix>3d</fix>
</trkpt>
<trkpt lat="-35.362938" lon="149.165085">
  <ele>584.82</ele>
  <time>2026-09-01T19:52:45Z</time>
  <course>356.78</course>
  <speed>0.0</speed>
  <fix>3d</fix>
</trkpt>
<trkpt lat="-35.362938" lon="149.165085">
  <ele>585.09</ele>
  <time>2026-09-01T19:52:45Z</time>
  <course>114.56</course>
  <speed>0.0</speed>
  <fix>3d</fix>
</trkpt>
<trkpt lat="-35.362938" lon="149.165085">
  <ele>584.85</ele>
  <time>2026-09-01T19:52:45Z</time>
  <course>356.78</course>
  <speed>0.0</speed>
  <fix>3d</fix>
</trkpt>
<trkpt lat="-35.362938" lon="149.165085">
  <ele>585.09</ele>
  <time>2026-09-01T19:52:45Z</time>
  <course>114.56</course>
  <speed>0.0</speed>
  <fix>3d</fix>
</trkpt>
<trkpt lat="-35.362938" lon="149.165085">
  <ele>584.88</ele>
  <time>2026-09-01T19:52:45Z</time>
  <course>356.78</course>
  <speed>0.0</speed>
  <fix>3d</fix>
</trkpt>
<trkpt lat="-35.362938" lon="149.165085">
  <ele>585.09</ele>
  <time>2026-09-01T19:52:45Z</time>
  <course>114.56</course>
  <speed>0.0</speed>
  <fix>3d</fix>
</trkpt>
<trkpt lat="-35.362938" lon="149.165085">
  <ele>585.0</ele>
  <time>2026-09-01T19:52:45Z</time>
  <course>356.77</course>
  <speed>0.0</speed>
  <fix>3d</fix>
</trkpt>
<trkpt lat="-35.362938" lon="149.165085">
  <ele>585.09</ele>
  <time>2026-09-01T19:52:45Z</time>
  <course>114.56</course>
  <speed>0.0</speed>
  <fix>3d</fix>
</trkpt>
<trkpt lat="-35.362938" lon="149.165085">
  <ele>584.96</ele>
  <time>2026-09-01T19:52:45Z</time>
  <course>356.77</course>
  <speed>0.0</speed>
  <fix>3d</fix>
</trkpt>
<trkpt lat="-35.362938" lon="149.165085">
  <ele>585.09</ele>
  <time>2026-09-01T19:52:45Z</time>
  <course>114.56</course>
  <speed>0.0</speed>
  <fix>3d</fix>
</trkpt>
<trkpt lat="-35.362938" lon="149.165085">
  <ele>585.11</ele>
  <time>2026-09-01T19:52:45Z</time>
  <course>356.77</course>
  <speed>0.0</speed>
  <fix>3d</fix>
</trkpt>
<trkpt lat="-35.362938" lon="149.165085">
  <ele>585.09</ele>
  <time>2026-09-01T19:52:45Z</time>
  <course>114.56</course>
  <speed>0.0</speed>
  <fix>3d</fix>
</trkpt>
<trkpt lat="-35.362938" lon="149.165085">
  <ele>584.98</ele>
  <time>2026-09-01T19:52:45Z</time>
  <course>356.67</course>
  <speed>0.0</speed>
  <fix>3d</fix>
</trkpt>
<trkpt lat="-35.362938" lon="149.165085">
  <ele>585.09</ele>
  <time>2026-09-01T19:52:45Z</time>
  <course>114.56</course>
  <speed>0.0</speed>
  <fix>3d</fix>
</trkpt>
<trkpt lat="-35.362938" lon="149.165085">
  <ele>584.98</ele>
  <time>2026-09-01T19:52:45Z</time>
  <course>356.67</course>
  <speed>0.0</speed>
  <fix>3d</fix>
</trkpt>
<trkpt lat="-35.362938" lon="149.165085">
  <ele>585.09</ele>
  <time>2026-09-01T19:52:45Z</time>
  <course>114.56</course>
  <speed>0.0</speed>
  <fix>3d</fix>
</trkpt>
<trkpt lat="-35.362938" lon="149.165085">
  <ele>584.98</ele>
  <time>2026-09-01T19:52:45Z</time>
  <course>356.67</course>
  <speed>0.0</speed>
  <fix>3d</fix>
</trkpt>
<trkpt lat="-35.362938" lon="149.165085">
  <ele>585.09</ele>
  <time>2026-09-01T19:52:45Z</time>
  <course>114.56</course>
  <speed>0.0</speed>
  <fix>3d</fix>
</trkpt>
<trkpt lat="-35.362938" lon="149.165085">
  <ele>584.98</ele>
  <time>2026-09-01T19:52:45Z</time>
  <course>356.67</course>
  <speed>0.0</speed>
  <fix>3d</fix>
</trkpt>
<trkpt lat="-35.362938" lon="149.165085">
  <ele>585.09</ele>
  <time>2026-09-01T19:52:45Z</time>
  <course>114.56</course>
  <speed>0.0</speed>
  <fix>3d</fix>
</trkpt>
<trkpt lat="-35.362938" lon="149.165085">
  <ele>584.97</ele>
  <time>2026-09-01T19:52:45Z</time>
  <course>356.67</course>
  <speed>0.0</speed>
  <fix>3d</fix>
</trkpt>
<trkpt lat="-35.362938" lon="149.165085">
  <ele>585.09</ele>
  <time>2026-09-01T19:52:45Z</time>
  <course>114.56</course>
  <speed>0.0</speed>
  <fix>3d</fix>
</trkpt>
<trkpt lat="-35.362938" lon="149.165085">
  <ele>584.97</ele>
  <time>2026-09-01T19:52:45Z</time>
  <course>356.67</course>
  <speed>0.0</speed>
  <fix>3d</fix>
</trkpt>
<trkpt lat="-35.362938" lon="149.165085">
  <ele>585.09</ele>
  <time>2026-09-01T19:52:45Z</time>
  <course>114.56</course>
  <speed>0.0</speed>
  <fix>3d</fix>
</trkpt>
<trkpt lat="-35.362938" lon="149.165085">
  <ele>584.96</ele>
  <time>2026-09-01T19:52:45Z</time>
  <course>356.67</course>
  <speed>0.0</speed>
  <fix>3d</fix>
</trkpt>
<trkpt lat="-35.362938" lon="149.165085">
  <ele>585.09</ele>
  <time>2026-09-01T19:52:45Z</time>
  <course>114.56</course>
  <speed>0.0</speed>
  <fix>3d</fix>
</trkpt>
<trkpt lat="-35.362938" lon="149.165085">
  <ele>584.96</ele>
  <time>2026-09-01T19:52:45Z</time>
  <course>356.67</course>
  <speed>0.0</speed>
  <fix>3d</fix>
</trkpt>
<trkpt lat="-35.362938" lon="149.165085">
  <ele>585.09</ele>
  <time>2026-09-01T19:52:45Z</time>
  <course>114.56</course>
  <speed>0.0</speed>
  <fix>3d</fix>
</trkpt>
<trkpt lat="-35.362938" lon="149.165085">
  <ele>584.95</ele>
  <time>2026-09-01T19:52:45Z</time>
  <course>356.67</course>
  <speed>0.0</speed>
  <fix>3d</fix>
</trkpt>
<trkpt lat="-35.362938" lon="149.165085">
  <ele>585.09</ele>
  <time>2026-09-01T19:52:45Z</time>
  <course>114.56</course>
  <speed>0.0</speed>
  <fix>3d</fix>
</trkpt>
<trkpt lat="-35.362938" lon="149.165085">
  <ele>584.95</ele>
  <time>2026-09-01T19:52:45Z</time>
  <course>356.67</course>
  <speed>0.0</speed>
  <fix>3d</fix>
</trkpt>
<trkpt lat="-35.362938" lon="149.165085">
  <ele>585.09</ele>
  <time>2026-09-01T19:52:45Z</time>
  <course>114.56</course>
  <speed>0.0</speed>
  <fix>3d</fix>
</trkpt>
<trkpt lat="-35.362938" lon="149.165085">
  <ele>584.95</ele>
  <time>2026-09-01T19:52:45Z</time>
  <course>356.67</course>
  <speed>0.0</speed>
  <fix>3d</fix>
</trkpt>
<trkpt lat="-35.362938" lon="149.165085">
  <ele>585.09</ele>
  <time>2026-09-01T19:52:45Z</time>
  <course>114.56</course>
  <speed>0.0</speed>
  <fix>3d</fix>
</trkpt>
<trkpt lat="-35.362938" lon="149.165085">
  <ele>585.07</ele>
  <time>2026-09-01T19:52:45Z</time>
  <course>356.67</course>
  <speed>0.01</speed>
  <fix>3d</fix>
</trkpt>
<trkpt lat="-35.362938" lon="149.165085">
  <ele>585.09</ele>
  <time>2026-09-01T19:52:45Z</time>
  <course>114.56</course>
  <speed>0.0</speed>
  <fix>3d</fix>
</trkpt>
<trkpt lat="-35.362938" lon="149.165085">
  <ele>585.07</ele>
  <time>2026-09-01T19:52:45Z</time>
  <course>356.67</course>
  <speed>0.01414213562373095</speed>
  <fix>3d</fix>
</trkpt>
<trkpt lat="-35.362938" lon="149.165085">
  <ele>585.09</ele>
  <time>2026-09-01T19:52:45Z</time>
  <course>114.56</course>
  <speed>0.0</speed>
  <fix>3d</fix>
</trkpt>
<trkpt lat="-35.362938" lon="149.165085">
  <ele>585.07</ele>
  <time>2026-09-01T19:52:45Z</time>
  <course>356.67</course>
  <speed>0.01414213562373095</speed>
  <fix>3d</fix>
</trkpt>
<trkpt lat="-35.362938" lon="149.165085">
  <ele>585.09</ele>
  <time>2026-09-01T19:52:45Z</time>
  <course>114.56</course>
  <speed>0.0</speed>
  <fix>3d</fix>
</trkpt>
<trkpt lat="-35.362938" lon="149.165085">
  <ele>585.07</ele>
  <time>2026-09-01T19:52:45Z</time>
  <course>356.67</course>
  <speed>0.01414213562373095</speed>
  <fix>3d</fix>
</trkpt>
<trkpt lat="-35.362938" lon="149.165085">
  <ele>585.09</ele>
  <time>2026-09-01T19:52:45Z</time>
  <course>129.0</course>
  <speed>0.0</speed>
  <fix>3d</fix>
</trkpt>
<trkpt lat="-35.362938" lon="149.165085">
  <ele>585.07</ele>
  <time>2026-09-01T19:52:45Z</time>
  <course>356.67</course>
  <speed>0.01414213562373095</speed>
  <fix>3d</fix>
</trkpt>
<trkpt lat="-35.362938" lon="149.165085">
  <ele>585.09</ele>
  <time>2026-09-01T19:52:45Z</time>
  <course>129.0</course>
  <speed>0.0</speed>
  <fix>3d</fix>
</trkpt>
<trkpt lat="-35.362938" lon="149.165085">
  <ele>585.07</ele>
  <time>2026-09-01T19:52:45Z</time>
  <course>356.67</course>
  <speed>0.01414213562373095</speed>
  <fix>3d</fix>
</trkpt>
<trkpt lat="-35.362938" lon="149.165085">
  <ele>585.09</ele>
  <time>2026-09-01T19:52:45Z</time>
  <course>128.9</course>
  <speed>0.0</speed>
  <fix>3d</fix>
</trkpt>
<trkpt lat="-35.362938" lon="149.165085">
  <ele>585.07</ele>
  <time>2026-09-01T19:52:45Z</time>
  <course>356.67</course>
  <speed>0.01414213562373095</speed>
  <fix>3d</fix>
</trkpt>
<trkpt lat="-35.362938" lon="149.165085">
  <ele>585.09</ele>
  <time>2026-09-01T19:52:45Z</time>
  <course>128.9</course>
  <speed>0.0</speed>
  <fix>3d</fix>
</trkpt>
<trkpt lat="-35.362938" lon="149.165085">
  <ele>585.07</ele>
  <time>2026-09-01T19:52:45Z</time>
  <course>356.67</course>
  <speed>0.01414213562373095</speed>
  <fix>3d</fix>
</trkpt>
<trkpt lat="-35.362938" lon="149.165085">
  <ele>585.09</ele>
  <time>2026-09-01T19:52:45Z</time>
  <course>127.6</course>
  <speed>0.0</speed>
  <fix>3d</fix>
</trkpt>
<trkpt lat="-35.362938" lon="149.165085">
  <ele>585.07</ele>
  <time>2026-09-01T19:52:45Z</time>
  <course>356.67</course>
  <speed>0.01414213562373095</speed>
  <fix>3d</fix>
</trkpt>
<trkpt lat="-35.362938" lon="149.165085">
  <ele>585.09</ele>
  <time>2026-09-01T19:52:45Z</time>
  <course>127.6</course>
  <speed>0.0</speed>
  <fix>3d</fix>
</trkpt>
<trkpt lat="-35.362938" lon="149.165085">
  <ele>585.07</ele>
  <time>2026-09-01T19:52:45Z</time>
  <course>356.67</course>
  <speed>0.01414213562373095</speed>
  <fix>3d</fix>
</trkpt>
<trkpt lat="-35.362938" lon="149.165085">
  <ele>585.09</ele>
  <time>2026-09-01T19:52:45Z</time>
  <course>310.15</course>
  <speed>0.0</speed>
  <fix>3d</fix>
</trkpt>
<trkpt lat="-35.362938" lon="149.165085">
  <ele>585.07</ele>
  <time>2026-09-01T19:52:45Z</time>
  <course>356.67</course>
  <speed>0.01414213562373095</speed>
  <fix>3d</fix>
</trkpt>
<trkpt lat="-35.362938" lon="149.165085">
  <ele>585.09</ele>
  <time>2026-09-01T19:52:45Z</time>
  <course>310.15</course>
  <speed>0.0</speed>
  <fix>3d</fix>
</trkpt>
<trkpt lat="-35.362938" lon="149.165085">
  <ele>585.07</ele>
  <time>2026-09-01T19:52:45Z</time>
  <course>356.67</course>
  <speed>0.01414213562373095</speed>
  <fix>3d</fix>
</trkpt>
<trkpt lat="-35.362938" lon="149.165085">
  <ele>585.09</ele>
  <time>2026-09-01T19:52:45Z</time>
  <course>307.85</course>
  <speed>0.0</speed>
  <fix>3d</fix>
</trkpt>
<trkpt lat="-35.362938" lon="149.165085">
  <ele>585.08</ele>
  <time>2026-09-01T19:52:45Z</time>
  <course>356.67</course>
  <speed>0.01414213562373095</speed>
  <fix>3d</fix>
</trkpt>
<trkpt lat="-35.362938" lon="149.165085">
  <ele>585.09</ele>
  <time>2026-09-01T19:52:45Z</time>
  <course>307.85</course>
  <speed>0.0</speed>
  <fix>3d</fix>
</trkpt>
<trkpt lat="-35.362938" lon="149.165085">
  <ele>585.12</ele>
  <time>2026-09-01T19:52:45Z</time>
  <course>356.66</course>
  <speed>0.01414213562373095</speed>
  <fix>3d</fix>
</trkpt>
<trkpt lat="-35.362938" lon="149.165085">
  <ele>585.1</ele>
  <time>2026-09-01T19:52:45Z</time>
  <course>353.23</course>
  <speed>0.0</speed>
  <fix>3d</fix>
</trkpt>
<trkpt lat="-35.362938" lon="149.165085">
  <ele>585.17</ele>
  <time>2026-09-01T19:52:45Z</time>
  <course>356.66</course>
  <speed>0.01</speed>
  <fix>3d</fix>
</trkpt>
<trkpt lat="-35.362938" lon="149.165085">
  <ele>585.1</ele>
  <time>2026-09-01T19:52:45Z</time>
  <course>353.23</course>
  <speed>0.0</speed>
  <fix>3d</fix>
</trkpt>
<trkpt lat="-35.362938" lon="149.165085">
  <ele>585.25</ele>
  <time>2026-09-01T19:52:45Z</time>
  <course>356.67</course>
  <speed>0.01</speed>
  <fix>3d</fix>
</trkpt>
<trkpt lat="-35.362938" lon="149.165085">
  <ele>585.15</ele>
  <time>2026-09-01T19:52:45Z</time>
  <course>353.8</course>
  <speed>0.0</speed>
  <fix>3d</fix>
</trkpt>
<trkpt lat="-35.362938" lon="149.165085">
  <ele>585.38</ele>
  <time>2026-09-01T19:52:45Z</time>
  <course>356.69</course>
  <speed>0.03</speed>
  <fix>3d</fix>
</trkpt>
<trkpt lat="-35.362938" lon="149.165085">
  <ele>585.15</ele>
  <time>2026-09-01T19:52:45Z</time>
  <course>353.8</course>
  <speed>0.0</speed>
  <fix>3d</fix>
</trkpt>
<trkpt lat="-35.362938" lon="149.165085">
  <ele>585.58</ele>
  <time>2026-09-01T19:52:45Z</time>
  <course>356.7</course>
  <speed>0.07</speed>
  <fix>3d</fix>
</trkpt>
<trkpt lat="-35.362938" lon="149.165085">
  <ele>585.3</ele>
  <time>2026-09-01T19:52:45Z</time>
  <course>347.93</course>
  <speed>0.02</speed>
  <fix>3d</fix>
</trkpt>
<trkpt lat="-35.3629379" lon="149.165085">
  <ele>585.82</ele>
  <time>2026-09-01T19:52:45Z</time>
  <course>356.69</course>
  <speed>0.11</speed>
  <fix>3d</fix>
</trkpt>
<trkpt lat="-35.362938" lon="149.165085">
  <ele>585.3</ele>
  <time>2026-09-01T19:52:45Z</time>
  <course>347.93</course>
  <speed>0.02</speed>
  <fix>3d</fix>
</trkpt>
<trkpt lat="-35.3629378" lon="149.165085">
  <ele>586.07</ele>
  <time>2026-09-01T19:52:45Z</time>
  <course>356.67</course>
  <speed>0.15</speed>
  <fix>3d</fix>
</trkpt>
<trkpt lat="-35.3629379" lon="149.165085">
  <ele>585.63</ele>
  <time>2026-09-01T19:52:45Z</time>
  <course>348.28</course>
  <speed>0.08</speed>
  <fix>3d</fix>
</trkpt>
<trkpt lat="-35.3629376" lon="149.165085">
  <ele>586.32</ele>
  <time>2026-09-01T19:52:45Z</time>
  <course>356.63</course>
  <speed>0.18027756377319945</speed>
  <fix>3d</fix>
</trkpt>
<trkpt lat="-35.3629379" lon="149.165085">
  <ele>585.63</ele>
  <time>2026-09-01T19:52:45Z</time>
  <course>348.28</course>
  <speed>0.08</speed>
  <fix>3d</fix>
</trkpt>
<trkpt lat="-35.3629374" lon="149.165085">
  <ele>586.59</ele>
  <time>2026-09-01T19:52:45Z</time>
  <course>356.6</course>
  <speed>0.22022715545545238</speed>
  <fix>3d</fix>
</trkpt>
<trkpt lat="-35.3629377" lon="149.1650849">
  <ele>586.11</ele>
  <time>2026-09-01T19:52:45Z</time>
  <course>349.1</course>
  <speed>0.16</speed>
  <fix>3d</fix>
</trkpt>
<trkpt lat="-35.3629372" lon="149.165085">
  <ele>586.87</ele>
  <time>2026-09-01T19:52:45Z</time>
  <course>356.56</course>
  <speed>0.260768096208106</speed>
  <fix>3d</fix>
</trkpt>
<trkpt lat="-35.3629377" lon="149.1650849">
  <ele>586.11</ele>
  <time>2026-09-01T19:52:45Z</time>
  <course>349.1</course>
  <speed>0.16</speed>
  <fix>3d</fix>
</trkpt>
<trkpt lat="-35.3629369" lon="149.1650849">
  <ele>587.17</ele>
  <time>2026-09-01T19:52:45Z</time>
  <course>356.21</course>
  <speed>0.2906888370749727</speed>
  <fix>3d</fix>
</trkpt>
<trkpt lat="-35.3629373" lon="149.1650848">
  <ele>586.65</ele>
  <time>2026-09-01T19:52:45Z</time>
  <course>349.81</course>
  <speed>0.24</speed>
  <fix>3d</fix>
</trkpt>
<trkpt lat="-35.3629367" lon="149.1650848">
  <ele>587.48</ele>
  <time>2026-09-01T19:52:45Z</time>
  <course>355.98</course>
  <speed>0.32140317359976395</speed>
  <fix>3d</fix>
</trkpt>
<trkpt lat="-35.3629373" lon="149.1650848">
  <ele>586.65</ele>
  <time>2026-09-01T19:52:45Z</time>
  <course>349.81</course>
  <speed>0.24</speed>
  <fix>3d</fix>
</trkpt>
<trkpt lat="-35.3629364" lon="149.1650848">
  <ele>587.79</ele>
  <time>2026-09-01T19:52:45Z</time>
  <course>356.06</course>
  <speed>0.35128336140500593</speed>
  <fix>3d</fix>
</trkpt>
<trkpt lat="-35.3629369" lon="149.1650847">
  <ele>587.23</ele>
  <time>2026-09-01T19:52:45Z</time>
  <course>350.48</course>
  <speed>0.3</speed>
  <fix>3d</fix>
</trkpt>
<trkpt lat="-35.362936" lon="149.1650847">
  <ele>588.1</ele>
  <time>2026-09-01T19:52:45Z</time>
  <course>356.25</course>
  <speed>0.3712142238654117</speed>
  <fix>3d</fix>
</trkpt>
<trkpt lat="-35.3629369" lon="149.1650847">
  <ele>587.23</ele>
  <time>2026-09-01T19:52:45Z</time>
  <course>350.48</course>
  <speed>0.3</speed>
  <fix>3d</fix>
</trkpt>
<trkpt lat="-35.3629357" lon="149.1650847">
  <ele>588.42</ele>
  <time>2026-09-01T19:52:45Z</time>
  <course>356.44</course>
  <speed>0.38118237105091834</speed>
  <fix>3d</fix>
</trkpt>
<trkpt lat="-35.3629363" lon="149.1650846">
  <ele>587.85</ele>
  <time>2026-09-01T19:52:45Z</time>
  <course>351.0</course>
  <speed>0.36</speed>
  <fix>3d</fix>
</trkpt>
<trkpt lat="-35.3629353" lon="149.1650846">
  <ele>588.73</ele>
  <time>2026-09-01T19:52:45Z</time>
  <course>356.55</course>
  <speed>0.4019950248448356</speed>
  <fix>3d</fix>
</trkpt>
<trkpt lat="-35.3629363" lon="149.1650846">
  <ele>587.85</ele>
  <time>2026-09-01T19:52:45Z</time>
  <course>351.0</course>
  <speed>0.36</speed>
  <fix>3d</fix>
</trkpt>
<trkpt lat="-35.362935" lon="149.1650845">
  <ele>589.04</ele>
  <time>2026-09-01T19:52:45Z</time>
  <course>356.58</course>
  <speed>0.4019950248448356</speed>
  <fix>3d</fix>
</trkpt>
<trkpt lat="-35.3629356" lon="149.1650845">
  <ele>588.48</ele>
  <time>2026-09-01T19:52:45Z</time>
  <course>351.47</course>
  <speed>0.4</speed>
  <fix>3d</fix>
</trkpt>
<trkpt lat="-35.3629346" lon="149.1650844">
  <ele>589.34</ele>
  <time>2026-09-01T19:52:45Z</time>
  <course>356.57</course>
  <speed>0.4019950248448356</speed>
  <fix>3d</fix>
</trkpt>
<trkpt lat="-35.3629356" lon="149.1650845">
  <ele>588.48</ele>
  <time>2026-09-01T19:52:45Z</time>
  <course>351.47</course>
  <speed>0.4</speed>
  <fix>3d</fix>
</trkpt>
<trkpt lat="-35.3629342" lon="149.1650844">
  <ele>589.64</ele>
  <time>2026-09-01T19:52:45Z</time>
  <course>356.53</course>
  <speed>0.4019950248448356</speed>
  <fix>3d</fix>
</trkpt>
<trkpt lat="-35.3629349" lon="149.1650844">
  <ele>589.1</ele>
  <time>2026-09-01T19:52:45Z</time>
  <course>351.95</course>
  <speed>0.42</speed>
  <fix>3d</fix>
</trkpt>
<trkpt lat="-35.3629339" lon="149.1650843">
  <ele>589.94</ele>
  <time>2026-09-01T19:52:45Z</time>
  <course>356.49</course>
  <speed>0.3920459156782532</speed>
  <fix>3d</fix>
</trkpt>
<trkpt lat="-35.3629349" lon="149.1650844">
  <ele>589.1</ele>
  <time>2026-09-01T19:52:45Z</time>
  <course>351.95</course>
  <speed>0.42</speed>
  <fix>3d</fix>
</trkpt>
<trkpt lat="-35.3629335" lon="149.1650843">
  <ele>590.22</ele>
  <time>2026-09-01T19:52:45Z</time>
  <course>356.45</course>
  <speed>0.382099463490856</speed>
  <fix>3d</fix>
</trkpt>
<trkpt lat="-35.3629341" lon="149.1650842">
  <ele>589.7</ele>
  <time>2026-09-01T19:52:45Z</time>
  <course>352.45</course>
  <speed>0.42</speed>
  <fix>3d</fix>
</trkpt>
<trkpt lat="-35.3629332" lon="149.1650842">
  <ele>590.5</ele>
  <time>2026-09-01T19:52:45Z</time>
  <course>356.44</course>
  <speed>0.36124783736376886</speed>
  <fix>3d</fix>
</trkpt>
<trkpt lat="-35.3629341" lon="149.1650842">
  <ele>589.7</ele>
  <time>2026-09-01T19:52:45Z</time>
  <course>352.45</course>
  <speed>0.42</speed>
  <fix>3d</fix>
</trkpt>
<trkpt lat="-35.3629328" lon="149.1650841">
  <ele>590.78</ele>
  <time>2026-09-01T19:52:45Z</time>
  <course>356.43</course>
  <speed>0.34132096331752027</speed>
  <fix>3d</fix>
</trkpt>
<trkpt lat="-35.3629334" lon="149.1650841">
  <ele>590.28</ele>
  <time>2026-09-01T19:52:45Z</time>
  <course>352.95</course>
  <speed>0.4</speed>
  <fix>3d</fix>
</trkpt>
<trkpt lat="-35.3629325" lon="149.1650841">
  <ele>591.04</ele>
  <time>2026-09-01T19:52:45Z</time>
  <course>356.44</course>
  <speed>0.32140317359976395</speed>
  <fix>3d</fix>
</trkpt>
<trkpt lat="-35.3629334" lon="149.1650841">
  <ele>590.28</ele>
  <time>2026-09-01T19:52:45Z</time>
  <course>352.95</course>
  <speed>0.4</speed>
  <fix>3d</fix>
</trkpt>
<trkpt lat="-35.3629322" lon="149.165084">
  <ele>591.3</ele>
  <time>2026-09-01T19:52:45Z</time>
  <course>356.46</course>
  <speed>0.291547594742265</speed>
  <fix>3d</fix>
</trkpt>
<trkpt lat="-35.3629327" lon="149.165084">
  <ele>590.82</ele>
  <time>2026-09-01T19:52:45Z</time>
  <course>353.52</course>
  <speed>0.36</speed>
  <fix>3d</fix>
</trkpt>
<trkpt lat="-35.362932" lon="149.165084">
  <ele>591.56</ele>
  <time>2026-09-01T19:52:45Z</time>
  <course>356.49</course>
  <speed>0.260768096208106</speed>
  <fix>3d</fix>
</trkpt>
<trkpt lat="-35.3629327" lon="149.165084">
  <ele>590.82</ele>
  <time>2026-09-01T19:52:45Z</time>
  <course>353.52</course>
  <speed>0.36</speed>
  <fix>3d</fix>
</trkpt>
<trkpt lat="-35.3629317" lon="149.1650839">
  <ele>591.81</ele>
  <time>2026-09-01T19:52:45Z</time>
  <course>356.51</course>
  <speed>0.2308679276123039</speed>
  <fix>3d</fix>
</trkpt>
<trkpt lat="-35.362932" lon="149.1650839">
  <ele>591.35</ele>
  <time>2026-09-01T19:52:45Z</time>
  <course>354.27</course>
  <speed>0.31</speed>
  <fix>3d</fix>
</trkpt>
<trkpt lat="-35.3629315" lon="149.1650839">
  <ele>592.06</ele>
  <time>2026-09-01T19:52:45Z</time>
  <course>356.54</course>
  <speed>0.2009975124224178</speed>
  <fix>3d</fix>
</trkpt>
<trkpt lat="-35.362932" lon="149.1650839">
  <ele>591.35</ele>
  <time>2026-09-01T19:52:45Z</time>
  <course>354.27</course>
  <speed>0.31</speed>
  <fix>3d</fix>
</trkpt>
<trkpt lat="-35.3629313" lon="149.1650839">
  <ele>592.31</ele>
  <time>2026-09-01T19:52:45Z</time>
  <course>356.56</course>
  <speed>0.17029386365926402</speed>
  <fix>3d</fix>
</trkpt>
<trkpt lat="-35.3629315" lon="149.1650838">
  <ele>591.86</ele>
  <time>2026-09-01T19:52:45Z</time>
  <course>355.44</course>
  <speed>0.25</speed>
  <fix>3d</fix>
</trkpt>
<trkpt lat="-35.3629312" lon="149.1650839">
  <ele>592.56</ele>
  <time>2026-09-01T19:52:45Z</time>
  <course>356.58</course>
  <speed>0.130384048104053</speed>
  <fix>3d</fix>
</trkpt>
<trkpt lat="-35.3629315" lon="149.1650838">
  <ele>591.86</ele>
  <time>2026-09-01T19:52:45Z</time>
  <course>355.44</course>
  <speed>0.25</speed>
  <fix>3d</fix>
</trkpt>
<trkpt lat="-35.362931" lon="149.1650838">
  <ele>592.81</ele>
  <time>2026-09-01T19:52:45Z</time>
  <course>356.6</course>
  <speed>0.1</speed>
  <fix>3d</fix>
</trkpt>
<trkpt lat="-35.3629312" lon="149.1650838">
  <ele>592.35</ele>
  <time>2026-09-01T19:52:45Z</time>
  <course>357.41</course>
  <speed>0.18</speed>
  <fix>3d</fix>
</trkpt>
<trkpt lat="-35.3629309" lon="149.1650838">
  <ele>593.05</ele>
  <time>2026-09-01T19:52:45Z</time>
  <course>356.62</course>
  <speed>0.07</speed>
  <fix>3d</fix>
</trkpt>
<trkpt lat="-35.3629312" lon="149.1650838">
  <ele>592.35</ele>
  <time>2026-09-01T19:52:45Z</time>
  <course>357.41</course>
  <speed>0.18</speed>
  <fix>3d</fix>
</trkpt>
<trkpt lat="-35.3629309" lon="149.1650838">
  <ele>593.3</ele>
  <time>2026-09-01T19:52:45Z</time>
  <course>356.63</course>
  <speed>0.03</speed>
  <fix>3d</fix>
</trkpt>
<trkpt lat="-35.3629309" lon="149.1650838">
  <ele>592.83</ele>
  <time>2026-09-01T19:52:45Z</time>
  <course>1.47</course>
  <speed>0.11</speed>
  <fix>3d</fix>
</trkpt>
<trkpt lat="-35.3629309" lon="149.1650838">
  <ele>593.55</ele>
  <time>2026-09-01T19:52:45Z</time>
  <course>356.65</course>
  <speed>0.0</speed>
  <fix>3d</fix>
</trkpt>
<trkpt lat="-35.3629309" lon="149.1650838">
  <ele>592.83</ele>
  <time>2026-09-01T19:52:45Z</time>
  <course>1.47</course>
  <speed>0.11</speed>
  <fix>3d</fix>
</trkpt>
<trkpt lat="-35.3629308" lon="149.1650838">
  <ele>593.79</ele>
  <time>2026-09-01T19:52:45Z</time>
  <course>356.68</course>
  <speed>0.02</speed>
  <fix>3d</fix>
</trkpt>
<trkpt lat="-35.3629308" lon="149.1650838">
  <ele>593.31</ele>
  <time>2026-09-01T19:52:45Z</time>
  <course>14.44</course>
  <speed>0.05</speed>
  <fix>3d</fix>
</trkpt>
<trkpt lat="-35.3629309" lon="149.1650839">
  <ele>594.03</ele>
  <time>2026-09-01T19:52:45Z</time>
  <course>356.71</course>
  <speed>0.04</speed>
  <fix>3d</fix>
</trkpt>
<trkpt lat="-35.3629308" lon="149.1650838">
  <ele>593.31</ele>
  <time>2026-09-01T19:52:45Z</time>
  <course>14.44</course>
  <speed>0.05</speed>
  <fix>3d</fix>
</trkpt>
<trkpt lat="-35.3629309" lon="149.1650839">
  <ele>594.28</ele>
  <time>2026-09-01T19:52:45Z</time>
  <course>356.75</course>
  <speed>0.07</speed>
  <fix>3d</fix>
</trkpt>
<trkpt lat="-35.3629308" lon="149.1650838">
  <ele>593.79</ele>
  <time>2026-09-01T19:52:45Z</time>
  <course>115.75</course>
  <speed>0.02</speed>
  <fix>3d</fix>
</trkpt>
<trkpt lat="-35.3629309" lon="149.1650839">
  <ele>594.53</ele>
  <time>2026-09-01T19:52:45Z</time>
  <course>356.79</course>
  <speed>0.09055385138137417</speed>
  <fix>3d</fix>
</trkpt>
<trkpt lat="-35.3629308" lon="149.1650838">
  <ele>593.79</ele>
  <time>2026-09-01T19:52:45Z</time>
  <course>115.75</course>
  <speed>0.02</speed>
  <fix>3d</fix>
</trkpt>
<trkpt lat="-35.362931" lon="149.1650839">
  <ele>594.77</ele>
  <time>2026-09-01T19:52:45Z</time>
  <course>356.85</course>
  <speed>0.11045361017187261</speed>
  <fix>3d</fix>
</trkpt>
<trkpt lat="-35.3629308" lon="149.1650838">
  <ele>594.27</ele>
  <time>2026-09-01T19:52:45Z</time>
  <course>157.72</course>
  <speed>0.06</speed>
  <fix>3d</fix>
</trkpt>
<trkpt lat="-35.3629311" lon="149.1650839">
  <ele>595.02</ele>
  <time>2026-09-01T19:52:45Z</time>
  <course>356.91</course>
  <speed>0.130384048104053</speed>
  <fix>3d</fix>
</trkpt>
<trkpt lat="-35.3629308" lon="149.1650838">
  <ele>594.27</ele>
  <time>2026-09-01T19:52:45Z</time>
  <course>157.72</course>
  <speed>0.06</speed>
  <fix>3d</fix>
</trkpt>
<trkpt lat="-35.3629312" lon="149.1650839">
  <ele>595.26</ele>
  <time>2026-09-01T19:52:45Z</time>
  <course>356.97</course>
  <speed>0.15033296378372907</speed>
  <fix>3d</fix>
</trkpt>
<trkpt lat="-35.3629309" lon="149.1650839">
  <ele>594.75</ele>
  <time>2026-09-01T19:52:45Z</time>
  <course>165.53</course>
  <speed>0.11</speed>
  <fix>3d</fix>
</trkpt>
<trkpt lat="-35.3629313" lon="149.1650839">
  <ele>595.5</ele>
  <time>2026-09-01T19:52:45Z</time>
  <course>357.04</course>
  <speed>0.16</speed>
  <fix>3d</fix>
</trkpt>
<trkpt lat="-35.3629309" lon="149.1650839">
  <ele>594.75</ele>
  <time>2026-09-01T19:52:45Z</time>
  <course>165.53</course>
  <speed>0.11</speed>
  <fix>3d</fix>
</trkpt>
<trkpt lat="-35.3629315" lon="149.1650839">
  <ele>595.75</ele>
  <time>2026-09-01T19:52:45Z</time>
  <course>357.09</course>
  <speed>0.18</speed>
  <fix>3d</fix>
</trkpt>
<trkpt lat="-35.3629311" lon="149.165084">
  <ele>595.23</ele>
  <time>2026-09-01T19:52:45Z</time>
  <course>169.53</course>
  <speed>0.14</speed>
  <fix>3d</fix>
</trkpt>
<trkpt lat="-35.3629316" lon="149.1650839">
  <ele>595.99</ele>
  <time>2026-09-01T19:52:45Z</time>
  <course>357.08</course>
  <speed>0.19</speed>
  <fix>3d</fix>
</trkpt>
<trkpt lat="-35.3629311" lon="149.165084">
  <ele>595.23</ele>
  <time>2026-09-01T19:52:45Z</time>
  <course>169.53</course>
  <speed>0.14</speed>
  <fix>3d</fix>
</trkpt>
<trkpt lat="-35.3629318" lon="149.165084">
  <ele>596.24</ele>
  <time>2026-09-01T19:52:45Z</time>
  <course>357.03</course>
  <speed>0.19026297590440447</speed>
  <fix>3d</fix>
</trkpt>
<trkpt lat="-35.3629314" lon="149.1650841">
  <ele>595.71</ele>
  <time>2026-09-01T19:52:45Z</time>
  <course>171.37</course>
  <speed>0.17</speed>
  <fix>3d</fix>
</trkpt>
<trkpt lat="-35.3629319" lon="149.165084">
  <ele>596.48</ele>
  <time>2026-09-01T19:52:45Z</time>
  <course>356.98</course>
  <speed>0.2009975124224178</speed>
  <fix>3d</fix>
</trkpt>
<trkpt lat="-35.3629314" lon="149.1650841">
  <ele>595.71</ele>
  <time>2026-09-01T19:52:45Z</time>
  <course>171.37</course>
  <speed>0.17</speed>
  <fix>3d</fix>
</trkpt>
<trkpt lat="-35.3629321" lon="149.165084">
  <ele>596.73</ele>
  <time>2026-09-01T19:52:45Z</time>
  <course>356.95</course>
  <speed>0.2102379604162864</speed>
  <fix>3d</fix>
</trkpt>
<trkpt lat="-35.3629317" lon="149.1650841">
  <ele>596.2</ele>
  <time>2026-09-01T19:52:45Z</time>
  <course>171.74</course>
  <speed>0.19</speed>
  <fix>3d</fix>
</trkpt>
<trkpt lat="-35.3629323" lon="149.1650841">
  <ele>596.97</ele>
  <time>2026-09-01T19:52:45Z</time>
  <course>356.93</course>
  <speed>0.2102379604162864</speed>
  <fix>3d</fix>
</trkpt>
<trkpt lat="-35.3629317" lon="149.1650841">
  <ele>596.2</ele>
  <time>2026-09-01T19:52:45Z</time>
  <course>171.74</course>
  <speed>0.19</speed>
  <fix>3d</fix>
</trkpt>
<trkpt lat="-35.3629325" lon="149.1650841">
  <ele>597.22</ele>
  <time>2026-09-01T19:52:45Z</time>
  <course>356.9</course>
  <speed>0.22022715545545238</speed>
  <fix>3d</fix>
</trkpt>
<trkpt lat="-35.362932" lon="149.1650842">
  <ele>596.69</ele>
  <time>2026-09-01T19:52:45Z</time>
  <course>172.36</course>
  <speed>0.21</speed>
  <fix>3d</fix>
</trkpt>
<trkpt lat="-35.3629327" lon="149.1650841">
  <ele>597.47</ele>
  <time>2026-09-01T19:52:45Z</time>
  <course>356.85</course>
  <speed>0.22090722034374521</speed>
  <fix>3d</fix>
</trkpt>
<trkpt lat="-35.362932" lon="149.1650842">
  <ele>596.69</ele>
  <time>2026-09-01T19:52:45Z</time>
  <course>172.36</course>
  <speed>0.21</speed>
  <fix>3d</fix>
</trkpt>
<trkpt lat="-35.3629329" lon="149.1650842">
  <ele>597.72</ele>
  <time>2026-09-01T19:52:45Z</time>
  <course>356.81</course>
  <speed>0.22090722034374521</speed>
  <fix>3d</fix>
</trkpt>
<trkpt lat="-35.3629325" lon="149.1650842">
  <ele>597.19</ele>
  <time>2026-09-01T19:52:45Z</time>
  <course>172.82</course>
  <speed>0.22</speed>
  <fix>3d</fix>
</trkpt>
<trkpt lat="-35.362933" lon="149.1650842">
  <ele>597.97</ele>
  <time>2026-09-01T19:52:45Z</time>
  <course>356.77</course>
  <speed>0.22090722034374521</speed>
  <fix>3d</fix>
</trkpt>
<trkpt lat="-35.3629325" lon="149.1650842">
  <ele>597.19</ele>
  <time>2026-09-01T19:52:45Z</time>
  <course>172.82</course>
  <speed>0.22</speed>
  <fix>3d</fix>
</trkpt>
<trkpt lat="-35.3629332" lon="149.1650843">
  <ele>598.23</ele>
  <time>2026-09-01T19:52:45Z</time>
  <course>356.74</course>
  <speed>0.2220360331117452</speed>
  <fix>3d</fix>
</trkpt>
<trkpt lat="-35.3629329" lon="149.1650843">
  <ele>597.69</ele>
  <time>2026-09-01T19:52:45Z</time>
  <course>172.79</course>
  <speed>0.22</speed>
  <fix>3d</fix>
</trkpt>
<trkpt lat="-35.3629334" lon="149.1650843">
  <ele>598.48</ele>
  <time>2026-09-01T19:52:45Z</time>
  <course>356.72</course>
  <speed>0.2220360331117452</speed>
  <fix>3d</fix>
</trkpt>
<trkpt lat="-35.3629329" lon="149.1650843">
  <ele>597.69</ele>
  <time>2026-09-01T19:52:45Z</time>
  <course>172.79</course>
  <speed>0.22</speed>
  <fix>3d</fix>
</trkpt>
<trkpt lat="-35.3629336" lon="149.1650843">
  <ele>598.73</ele>
  <time>2026-09-01T19:52:45Z</time>
  <course>356.72</course>
  <speed>0.2220360331117452</speed>
  <fix>3d</fix>
</trkpt>
<trkpt lat="-35.3629332" lon="149.1650843">
  <ele>598.19</ele>
  <time>2026-09-01T19:52:45Z</time>
  <course>173.14</course>
  <speed>0.22</speed>
  <fix>3d</fix>
</trkpt>
<trkpt lat="-35.3629338" lon="149.1650844">
  <ele>598.98</ele>
  <time>2026-09-01T19:52:45Z</time>
  <course>356.71</course>
  <speed>0.2220360331117452</speed>
  <fix>3d</fix>
</trkpt>
<trkpt lat="-35.3629332" lon="149.1650843">
  <ele>598.19</ele>
  <time>2026-09-01T19:52:45Z</time>
  <course>173.14</course>
  <speed>0.22</speed>
  <fix>3d</fix>
</trkpt>
<trkpt lat="-35.362934" lon="149.1650844">
  <ele>599.23</ele>
  <time>2026-09-01T19:52:45Z</time>
  <course>356.69</course>
  <speed>0.21377558326431947</speed>
  <fix>3d</fix>
</trkpt>
<trkpt lat="-35.3629337" lon="149.1650844">
  <ele>598.69</ele>
  <time>2026-09-01T19:52:45Z</time>
  <course>173.55</course>
  <speed>0.22</speed>
  <fix>3d</fix>
</trkpt>
<trkpt lat="-35.3629342" lon="149.1650845">
  <ele>599.48</ele>
  <time>2026-09-01T19:52:45Z</time>
  <course>356.68</course>
  <speed>0.21840329667841554</speed>
  <fix>3d</fix>
</trkpt>
<trkpt lat="-35.3629337" lon="149.1650844">
  <ele>598.69</ele>
  <time>2026-09-01T19:52:45Z</time>
  <course>173.55</course>
  <speed>0.22</speed>
  <fix>3d</fix>
</trkpt>
<trkpt lat="-35.3629344" lon="149.1650845">
  <ele>599.73</ele>
  <time>2026-09-01T19:52:45Z</time>
  <course>356.66</course>
  <speed>0.21377558326431947</speed>
  <fix>3d</fix>
</trkpt>
<trkpt lat="-35.3629341" lon="149.1650845">
  <ele>599.19</ele>
  <time>2026-09-01T19:52:45Z</time>
  <course>173.84</course>
  <speed>0.21</speed>
  <fix>3d</fix>
</trkpt>
<trkpt lat="-35.3629346" lon="149.1650846">
  <ele>599.98</ele>
  <time>2026-09-01T19:52:45Z</time>
  <course>356.64</course>
  <speed>0.21189620100417092</speed>
  <fix>3d</fix>
</trkpt>
<trkpt lat="-35.3629341" lon="149.1650845">
  <ele>599.19</ele>
  <time>2026-09-01T19:52:45Z</time>
  <course>173.84</course>
  <speed>0.21</speed>
  <fix>3d</fix>
</trkpt>
<trkpt lat="-35.3629348" lon="149.1650847">
  <ele>600.23</ele>
  <time>2026-09-01T19:52:45Z</time>
  <course>356.59</course>
  <speed>0.21540659228538014</speed>
  <fix>3d</fix>
</trkpt>
<trkpt lat="-35.3629344" lon="149.1650845">
  <ele>599.69</ele>
  <time>2026-09-01T19:52:45Z</time>
  <course>174.6</course>
  <speed>0.21</speed>
  <fix>3d</fix>
</trkpt>
<trkpt lat="-35.3629349" lon="149.1650847">
  <ele>600.48</ele>
  <time>2026-09-01T19:52:45Z</time>
  <course>356.56</course>
  <speed>0.20615528128088303</speed>
  <fix>3d</fix>
</trkpt>
<trkpt lat="-35.3629344" lon="149.1650845">
  <ele>599.69</ele>
  <time>2026-09-01T19:52:45Z</time>
  <course>174.6</course>
  <speed>0.21</speed>
  <fix>3d</fix>
</trkpt>
<trkpt lat="-35.3629351" lon="149.1650847">
  <ele>600.74</ele>
  <time>2026-09-01T19:52:45Z</time>
  <course>356.48</course>
  <speed>0.194164878389476</speed>
  <fix>3d</fix>
</trkpt>
<trkpt lat="-35.3629348" lon="149.1650846">
  <ele>600.19</ele>
  <time>2026-09-01T19:52:45Z</time>
  <course>175.8</course>
  <speed>0.2</speed>
  <fix>3d</fix>
</trkpt>
<trkpt lat="-35.3629353" lon="149.1650848">
  <ele>600.99</ele>
  <time>2026-09-01T19:52:45Z</time>
  <course>356.34</course>
  <speed>0.194164878389476</speed>
  <fix>3d</fix>
</trkpt>
<trkpt lat="-35.3629348" lon="149.1650846">
  <ele>600.19</ele>
  <time>2026-09-01T19:52:45Z</time>
  <course>175.8</course>
  <speed>0.2</speed>
  <fix>3d</fix>
</trkpt>
<trkpt lat="-35.3629355" lon="149.1650848">
  <ele>601.24</ele>
  <time>2026-09-01T19:52:45Z</time>
  <course>356.2</course>
  <speed>0.18681541692269404</speed>
  <fix>3d</fix>
</trkpt>
<trkpt lat="-35.3629351" lon="149.1650846">
  <ele>600.69</ele>
  <time>2026-09-01T19:52:45Z</time>
  <course>176.09</course>
  <speed>0.19</speed>
  <fix>3d</fix>
</trkpt>
<trkpt lat="-35.3629356" lon="149.1650848">
  <ele>601.49</ele>
  <time>2026-09-01T19:52:45Z</time>
  <course>356.12</course>
  <speed>0.18973665961010278</speed>
  <fix>3d</fix>
</trkpt>
<trkpt lat="-35.3629351" lon="149.1650846">
  <ele>600.69</ele>
  <time>2026-09-01T19:52:45Z</time>
  <course>176.09</course>
  <speed>0.19</speed>
  <fix>3d</fix>
</trkpt>
<trkpt lat="-35.3629358" lon="149.1650848">
  <ele>601.74</ele>
  <time>2026-09-01T19:52:45Z</time>
  <course>356.1</course>
  <speed>0.17464249196572978</speed>
  <fix>3d</fix>
</trkpt>
<trkpt lat="-35.3629355" lon="149.1650846">
  <ele>601.19</ele>
  <time>2026-09-01T19:52:45Z</time>
  <course>175.88</course>
  <speed>0.18</speed>
  <fix>3d</fix>
</trkpt>
<trkpt lat="-35.3629359" lon="149.1650849">
  <ele>601.99</ele>
  <time>2026-09-01T19:52:45Z</time>
  <course>356.11</course>
  <speed>0.17464249196572978</speed>
  <fix>3d</fix>
</trkpt>
<trkpt lat="-35.3629355" lon="149.1650846">
  <ele>601.19</ele>
  <time>2026-09-01T19:52:45Z</time>
  <course>175.88</course>
  <speed>0.18</speed>
  <fix>3d</fix>
</trkpt>
<trkpt lat="-35.3629361" lon="149.1650849">
  <ele>602.24</ele>
  <time>2026-09-01T19:52:45Z</time>
  <course>356.12</course>
  <speed>0.1649242250247064</speed>
  <fix>3d</fix>
</trkpt>
<trkpt lat="-35.3629358" lon="149.1650847">
  <ele>601.69</ele>
  <time>2026-09-01T19:52:45Z</time>
  <course>176.23</course>
  <speed>0.17</speed>
  <fix>3d</fix>
</trkpt>
<trkpt lat="-35.3629362" lon="149.1650849">
  <ele>602.49</ele>
  <time>2026-09-01T19:52:45Z</time>
  <course>356.15</course>
  <speed>0.1649242250247064</speed>
  <fix>3d</fix>
</trkpt>
<trkpt lat="-35.3629358" lon="149.1650847">
  <ele>601.69</ele>
  <time>2026-09-01T19:52:45Z</time>
  <course>176.23</course>
  <speed>0.17</speed>
  <fix>3d</fix>
</trkpt>
<trkpt lat="-35.3629364" lon="149.1650849">
  <ele>602.74</ele>
  <time>2026-09-01T19:52:45Z</time>
  <course>356.15</course>
  <speed>0.15811388300841897</speed>
  <fix>3d</fix>
</trkpt>
<trkpt lat="-35.3629361" lon="149.1650847">
  <ele>602.19</ele>
  <time>2026-09-01T19:52:45Z</time>
  <course>176.63</course>
  <speed>0.16</speed>
  <fix>3d</fix>
</trkpt>
<trkpt lat="-35.3629365" lon="149.1650849">
  <ele>602.99</ele>
  <time>2026-09-01T19:52:45Z</time>
  <course>356.15</course>
  <speed>0.15297058540778355</speed>
  <fix>3d</fix>
</trkpt>
<trkpt lat="-35.3629361" lon="149.1650847">
  <ele>602.19</ele>
  <time>2026-09-01T19:52:45Z</time>
  <course>176.63</course>
  <speed>0.16</speed>
  <fix>3d</fix>
</trkpt>
<trkpt lat="-35.3629366" lon="149.1650849">
  <ele>603.23</ele>
  <time>2026-09-01T19:52:45Z</time>
  <course>356.13</course>
  <speed>0.14317821063276354</speed>
  <fix>3d</fix>
</trkpt>
<trkpt lat="-35.3629364" lon="149.1650847">
  <ele>602.69</ele>
  <time>2026-09-01T19:52:45Z</time>
  <course>177.28</course>
  <speed>0.15</speed>
  <fix>3d</fix>
</trkpt>
<trkpt lat="-35.3629368" lon="149.1650849">
  <ele>603.48</ele>
  <time>2026-09-01T19:52:45Z</time>
  <course>356.1</course>
  <speed>0.1414213562373095</speed>
  <fix>3d</fix>
</trkpt>
<trkpt lat="-35.3629364" lon="149.1650847">
  <ele>602.69</ele>
  <time>2026-09-01T19:52:45Z</time>
  <course>177.28</course>
  <speed>0.15</speed>
  <fix>3d</fix>
</trkpt>
<trkpt lat="-35.3629369" lon="149.1650849">
  <ele>603.73</ele>
  <time>2026-09-01T19:52:45Z</time>
  <course>356.09</course>
  <speed>0.130384048104053</speed>
  <fix>3d</fix>
</trkpt>
<trkpt lat="-35.3629367" lon="149.1650847">
  <ele>603.19</ele>
  <time>2026-09-01T19:52:45Z</time>
  <course>177.8</course>
  <speed>0.13</speed>
  <fix>3d</fix>
</trkpt>
<trkpt lat="-35.362937" lon="149.1650849">
  <ele>603.98</ele>
  <time>2026-09-01T19:52:45Z</time>
  <course>356.09</course>
  <speed>0.130384048104053</speed>
  <fix>3d</fix>
</trkpt>
<trkpt lat="-35.3629367" lon="149.1650847">
  <ele>603.19</ele>
  <time>2026-09-01T19:52:45Z</time>
  <course>177.8</course>
  <speed>0.13</speed>
  <fix>3d</fix>
</trkpt>
<trkpt lat="-35.3629371" lon="149.1650849">
  <ele>604.23</ele>
  <time>2026-09-01T19:52:45Z</time>
  <course>356.11</course>
  <speed>0.12041594578792296</speed>
  <fix>3d</fix>
</trkpt>
<trkpt lat="-35.362937" lon="149.1650847">
  <ele>603.69</ele>
  <time>2026-09-01T19:52:45Z</time>
  <course>177.99</course>
  <speed>0.12</speed>
  <fix>3d</fix>
</trkpt>
<trkpt lat="-35.3629372" lon="149.1650849">
  <ele>604.48</ele>
  <time>2026-09-01T19:52:45Z</time>
  <course>356.14</course>
  <speed>0.12041594578792296</speed>
  <fix>3d</fix>
</trkpt>
<trkpt lat="-35.362937" lon="149.1650847">
  <ele>603.69</ele>
  <time>2026-09-01T19:52:45Z</time>
  <course>177.99</course>
  <speed>0.12</speed>
  <fix>3d</fix>
</trkpt>
<trkpt lat="-35.3629373" lon="149.1650849">
  <ele>604.73</ele>
  <time>2026-09-01T19:52:45Z</time>
  <course>356.17</course>
  <speed>0.12041594578792296</speed>
  <fix>3d</fix>
</trkpt>
<trkpt lat="-35.3629372" lon="149.1650847">
  <ele>604.19</ele>
  <time>2026-09-01T19:52:45Z</time>
  <course>178.14</course>
  <speed>0.11</speed>
  <fix>3d</fix>
</trkpt>
<trkpt lat="-35.3629374" lon="149.1650849">
  <ele>604.98</ele>
  <time>2026-09-01T19:52:45Z</time>
  <course>356.21</course>
  <speed>0.11045361017187261</speed>
  <fix>3d</fix>
</trkpt>
<trkpt lat="-35.3629372" lon="149.1650847">
  <ele>604.19</ele>
  <time>2026-09-01T19:52:45Z</time>
  <course>178.14</course>
  <speed>0.11</speed>
  <fix>3d</fix>
</trkpt>
<trkpt lat="-35.3629375" lon="149.1650849">
  <ele>605.23</ele>
  <time>2026-09-01T19:52:45Z</time>
  <course>356.24</course>
  <speed>0.1004987562112089</speed>
  <fix>3d</fix>
</trkpt>
<trkpt lat="-35.3629374" lon="149.1650847">
  <ele>604.69</ele>
  <time>2026-09-01T19:52:45Z</time>
  <course>178.05</course>
  <speed>0.1</speed>
  <fix>3d</fix>
</trkpt>
<trkpt lat="-35.3629376" lon="149.1650849">
  <ele>605.48</ele>
  <time>2026-09-01T19:52:45Z</time>
  <course>356.28</course>
  <speed>0.1004987562112089</speed>
  <fix>3d</fix>
</trkpt>
<trkpt lat="-35.3629374" lon="149.1650847">
  <ele>604.69</ele>
  <time>2026-09-01T19:52:45Z</time>
  <course>178.05</course>
  <speed>0.1</speed>
  <fix>3d</fix>
</trkpt>
<trkpt lat="-35.3629377" lon="149.1650849">
  <ele>605.73</ele>
  <time>2026-09-01T19:52:45Z</time>
  <course>356.32</course>
  <speed>0.09055385138137417</speed>
  <fix>3d</fix>
</trkpt>
<trkpt lat="-35.3629375" lon="149.1650848">
  <ele>605.19</ele>
  <time>2026-09-01T19:52:45Z</time>
  <course>177.87</course>
  <speed>0.09</speed>
  <fix>3d</fix>
</trkpt>
<trkpt lat="-35.3629378" lon="149.1650849">
  <ele>605.98</ele>
  <time>2026-09-01T19:52:45Z</time>
  <course>356.35</course>
  <speed>0.09055385138137417</speed>
  <fix>3d</fix>
</trkpt>
<trkpt lat="-35.3629375" lon="149.1650848">
  <ele>605.19</ele>
  <time>2026-09-01T19:52:45Z</time>
  <course>177.87</course>
  <speed>0.09</speed>
  <fix>3d</fix>
</trkpt>
<trkpt lat="-35.3629379" lon="149.1650849">
  <ele>606.23</ele>
  <time>2026-09-01T19:52:45Z</time>
  <course>356.38</course>
  <speed>0.08062257748298549</speed>
  <fix>3d</fix>
</trkpt>
<trkpt lat="-35.3629377" lon="149.1650848">
  <ele>605.69</ele>
  <time>2026-09-01T19:52:45Z</time>
  <course>178.25</course>
  <speed>0.08</speed>
  <fix>3d</fix>
</trkpt>
<trkpt lat="-35.3629379" lon="149.1650849">
  <ele>606.48</ele>
  <time>2026-09-01T19:52:45Z</time>
  <course>356.41</course>
  <speed>0.08062257748298549</speed>
  <fix>3d</fix>
</trkpt>
<trkpt lat="-35.3629377" lon="149.1650848">
  <ele>605.69</ele>
  <time>2026-09-01T19:52:45Z</time>
  <course>178.25</course>
  <speed>0.08</speed>
  <fix>3d</fix>
</trkpt>
<trkpt lat="-35.362938" lon="149.1650849">
  <ele>606.73</ele>
  <time>2026-09-01T19:52:45Z</time>
  <course>356.42</course>
  <speed>0.07071067811865475</speed>
  <fix>3d</fix>
</trkpt>
<trkpt lat="-35.3629378" lon="149.1650848">
  <ele>606.19</ele>
  <time>2026-09-01T19:52:45Z</time>
  <course>179.82</course>
  <speed>0.06</speed>
  <fix>3d</fix>
</trkpt>
<trkpt lat="-35.362938" lon="149.1650849">
  <ele>606.98</ele>
  <time>2026-09-01T19:52:45Z</time>
  <course>356.43</course>
  <speed>0.07071067811865475</speed>
  <fix>3d</fix>
</trkpt>
<trkpt lat="-35.3629378" lon="149.1650848">
  <ele>606.19</ele>
  <time>2026-09-01T19:52:45Z</time>
  <course>179.82</course>
  <speed>0.06</speed>
  <fix>3d</fix>
</trkpt>
<trkpt lat="-35.3629381" lon="149.1650849">
  <ele>607.23</ele>
  <time>2026-09-01T19:52:45Z</time>
  <course>356.42</course>
  <speed>0.06082762530298219</speed>
  <fix>3d</fix>
</trkpt>
<trkpt lat="-35.3629379" lon="149.1650848">
  <ele>606.69</ele>
  <time>2026-09-01T19:52:45Z</time>
  <course>182.78</course>
  <speed>0.05</speed>
  <fix>3d</fix>
</trkpt>
<trkpt lat="-35.3629381" lon="149.1650849">
  <ele>607.48</ele>
  <time>2026-09-01T19:52:45Z</time>
  <course>356.4</course>
  <speed>0.06082762530298219</speed>
  <fix>3d</fix>
</trkpt>
<trkpt lat="-35.3629379" lon="149.1650848">
  <ele>606.69</ele>
  <time>2026-09-01T19:52:45Z</time>
  <course>182.78</course>
  <speed>0.05</speed>
  <fix>3d</fix>
</trkpt>
<trkpt lat="-35.3629382" lon="149.1650849">
  <ele>607.73</ele>
  <time>2026-09-01T19:52:45Z</time>
  <course>356.38</course>
  <speed>0.05099019513592785</speed>
  <fix>3d</fix>
</trkpt>
<trkpt lat="-35.362938" lon="149.1650848">
  <ele>607.19</ele>
  <time>2026-09-01T19:52:45Z</time>
  <course>185.45</course>
  <speed>0.04</speed>
  <fix>3d</fix>
</trkpt>
<trkpt lat="-35.3629382" lon="149.1650849">
  <ele>607.98</ele>
  <time>2026-09-01T19:52:45Z</time>
  <course>356.37</course>
  <speed>0.05099019513592785</speed>
  <fix>3d</fix>
</trkpt>
<trkpt lat="-35.362938" lon="149.1650848">
  <ele>607.19</ele>
  <time>2026-09-01T19:52:45Z</time>
  <course>185.45</course>
  <speed>0.04</speed>
  <fix>3d</fix>
</trkpt>
<trkpt lat="-35.3629382" lon="149.1650849">
  <ele>608.23</ele>
  <time>2026-09-01T19:52:45Z</time>
  <course>356.36</course>
  <speed>0.0412310562561766</speed>
  <fix>3d</fix>
</trkpt>
<trkpt lat="-35.3629381" lon="149.1650848">
  <ele>607.69</ele>
  <time>2026-09-01T19:52:45Z</time>
  <course>188.7</course>
  <speed>0.03</speed>
  <fix>3d</fix>
</trkpt>
<trkpt lat="-35.3629383" lon="149.1650849">
  <ele>608.49</ele>
  <time>2026-09-01T19:52:45Z</time>
  <course>356.36</course>
  <speed>0.0412310562561766</speed>
  <fix>3d</fix>
</trkpt>
<trkpt lat="-35.3629381" lon="149.1650848">
  <ele>607.69</ele>
  <time>2026-09-01T19:52:45Z</time>
  <course>188.7</course>
  <speed>0.03</speed>
  <fix>3d</fix>
</trkpt>
<trkpt lat="-35.3629383" lon="149.1650849">
  <ele>608.74</ele>
  <time>2026-09-01T19:52:45Z</time>
  <course>356.35</course>
  <speed>0.0316227766016838</speed>
  <fix>3d</fix>
</trkpt>
<trkpt lat="-35.3629381" lon="149.1650848">
  <ele>608.19</ele>
  <time>2026-09-01T19:52:45Z</time>
  <course>194.94</course>
  <speed>0.02</speed>
  <fix>3d</fix>
</trkpt>
<trkpt lat="-35.3629383" lon="149.1650849">
  <ele>608.99</ele>
  <time>2026-09-01T19:52:45Z</time>
  <course>356.35</course>
  <speed>0.0316227766016838</speed>
  <fix>3d</fix>
</trkpt>
<trkpt lat="-35.3629381" lon="149.1650848">
  <ele>608.19</ele>
  <time>2026-09-01T19:52:45Z</time>
  <course>194.94</course>
  <speed>0.02</speed>
  <fix>3d</fix>
</trkpt>
<trkpt lat="-35.3629383" lon="149.1650849">
  <ele>609.24</ele>
  <time>2026-09-01T19:52:45Z</time>
  <course>356.35</course>
  <speed>0.0316227766016838</speed>
  <fix>3d</fix>
</trkpt>
<trkpt lat="-35.3629381" lon="149.1650848">
  <ele>608.69</ele>
  <time>2026-09-01T19:52:45Z</time>
  <course>206.66</course>
  <speed>0.01</speed>
  <fix>3d</fix>
</trkpt>
<trkpt lat="-35.3629383" lon="149.1650849">
  <ele>609.49</ele>
  <time>2026-09-01T19:52:45Z</time>
  <course>356.37</course>
  <speed>0.022360679774997897</speed>
  <fix>3d</fix>
</trkpt>
<trkpt lat="-35.3629381" lon="149.1650848">
  <ele>608.69</ele>
  <time>2026-09-01T19:52:45Z</time>
  <course>206.66</course>
  <speed>0.01</speed>
  <fix>3d</fix>
</trkpt>
<trkpt lat="-35.3629383" lon="149.1650849">
  <ele>609.75</ele>
  <time>2026-09-01T19:52:45Z</time>
  <course>356.36</course>
  <speed>0.022360679774997897</speed>
  <fix>3d</fix>
</trkpt>
<trkpt lat="-35.3629382" lon="149.1650848">
  <ele>609.19</ele>
  <time>2026-09-01T19:52:45Z</time>
  <course>234.28</course>
  <speed>0.01</speed>
  <fix>3d</fix>
</trkpt>
<trkpt lat="-35.3629383" lon="149.1650849">
  <ele>610.0</ele>
  <time>2026-09-01T19:52:45Z</time>
  <course>356.36</course>
  <speed>0.022360679774997897</speed>
  <fix>3d</fix>
</trkpt>
<trkpt lat="-35.3629382" lon="149.1650848">
  <ele>609.19</ele>
  <time>2026-09-01T19:52:45Z</time>
  <course>234.28</course>
  <speed>0.01</speed>
  <fix>3d</fix>
</trkpt>
<trkpt lat="-35.3629383" lon="149.1650849">
  <ele>610.25</ele>
  <time>2026-09-01T19:52:45Z</time>
  <course>356.35</course>
  <speed>0.01414213562373095</speed>
  <fix>3d</fix>
</trkpt>
<trkpt lat="-35.3629382" lon="149.1650848">
  <ele>609.69</ele>
  <time>2026-09-01T19:52:45Z</time>
  <course>271.86</course>
  <speed>0.01</speed>
  <fix>3d</fix>
</trkpt>
<trkpt lat="-35.3629383" lon="149.1650849">
  <ele>610.5</ele>
  <time>2026-09-01T19:52:45Z</time>
  <course>356.34</course>
  <speed>0.01414213562373095</speed>
  <fix>3d</fix>
</trkpt>
<trkpt lat="-35.3629382" lon="149.1650848">
  <ele>609.69</ele>
  <time>2026-09-01T19:52:45Z</time>
  <course>271.86</course>
  <speed>0.01</speed>
  <fix>3d</fix>
</trkpt>
<trkpt lat="-35.3629383" lon="149.1650849">
  <ele>610.75</ele>
  <time>2026-09-01T19:52:45Z</time>
  <course>356.32</course>
  <speed>0.01414213562373095</speed>
  <fix>3d</fix>
</trkpt>
<trkpt lat="-35.3629382" lon="149.1650847">
  <ele>610.19</ele>
  <time>2026-09-01T19:52:45Z</time>
  <course>297.41</course>
  <speed>0.01</speed>
  <fix>3d</fix>
</trkpt>
<trkpt lat="-35.3629383" lon="149.1650849">
  <ele>611.0</ele>
  <time>2026-09-01T19:52:46Z</time>
  <course>356.31</course>
  <speed>0.01414213562373095</speed>
  <fix>3d</fix>
</trkpt>
<trkpt lat="-35.3629382" lon="149.1650847">
  <ele>610.19</ele>
  <time>2026-09-01T19:52:46Z</time>
  <course>297.41</course>
  <speed>0.01</speed>
  <fix>3d</fix>
</trkpt>
<trkpt lat="-35.3629383" lon="149.1650849">
  <ele>611.24</ele>
  <time>2026-09-01T19:52:46Z</time>
  <course>356.31</course>
  <speed>0.01414213562373095</speed>
  <fix>3d</fix>
</trkpt>
<trkpt lat="-35.3629382" lon="149.1650847">
  <ele>610.69</ele>
  <time>2026-09-01T19:52:46Z</time>
  <course>310.26</course>
  <speed>0.01</speed>
  <fix>3d</fix>
</trkpt>
<trkpt lat="-35.3629383" lon="149.1650849">
  <ele>611.49</ele>
  <time>2026-09-01T19:52:46Z</time>
  <course>356.31</course>
  <speed>0.01</speed>
  <fix>3d</fix>
</trkpt>
<trkpt lat="-35.3629382" lon="149.1650847">
  <ele>610.69</ele>
  <time>2026-09-01T19:52:46Z</time>
  <course>310.26</course>
  <speed>0.01</speed>
  <fix>3d</fix>
</trkpt>
<trkpt lat="-35.3629383" lon="149.1650849">
  <ele>611.74</ele>
  <time>2026-09-01T19:52:46Z</time>
  <course>356.31</course>
  <speed>0.01</speed>
  <fix>3d</fix>
</trkpt>
<trkpt lat="-35.3629382" lon="149.1650847">
  <ele>611.19</ele>
  <time>2026-09-01T19:52:46Z</time>
  <course>316.48</course>
  <speed>0.02</speed>
  <fix>3d</fix>
</trkpt>
<trkpt lat="-35.3629383" lon="149.1650849">
  <ele>611.99</ele>
  <time>2026-09-01T19:52:46Z</time>
  <course>356.32</course>
  <speed>0.01</speed>
  <fix>3d</fix>
</trkpt>
<trkpt lat="-35.3629382" lon="149.1650847">
  <ele>611.19</ele>
  <time>2026-09-01T19:52:46Z</time>
  <course>316.48</course>
  <speed>0.02</speed>
  <fix>3d</fix>
</trkpt>
<trkpt lat="-35.3629383" lon="149.1650849">
  <ele>612.24</ele>
  <time>2026-09-01T19:52:46Z</time>
  <course>356.32</course>
  <speed>0.01</speed>
  <fix>3d</fix>
</trkpt>
<trkpt lat="-35.3629382" lon="149.1650846">
  <ele>611.68</ele>
  <time>2026-09-01T19:52:46Z</time>
  <course>320.53</course>
  <speed>0.02</speed>
  <fix>3d</fix>
</trkpt>
<trkpt lat="-35.3629383" lon="149.1650849">
  <ele>612.48</ele>
  <time>2026-09-01T19:52:46Z</time>
  <course>356.33</course>
  <speed>0.01</speed>
  <fix>3d</fix>
</trkpt>
<trkpt lat="-35.3629382" lon="149.1650846">
  <ele>611.68</ele>
  <time>2026-09-01T19:52:46Z</time>
  <course>320.53</course>
  <speed>0.02</speed>
  <fix>3d</fix>
</trkpt>
<trkpt lat="-35.3629383" lon="149.1650849">
  <ele>612.73</ele>
  <time>2026-09-01T19:52:46Z</time>
  <course>356.33</course>
  <speed>0.01</speed>
  <fix>3d</fix>
</trkpt>
<trkpt lat="-35.3629382" lon="149.1650846">
  <ele>612.18</ele>
  <time>2026-09-01T19:52:46Z</time>
  <course>323.84</course>
  <speed>0.02</speed>
  <fix>3d</fix>
</trkpt>
<trkpt lat="-35.3629383" lon="149.1650848">
  <ele>612.98</ele>
  <time>2026-09-01T19:52:46Z</time>
  <course>356.34</course>
  <speed>0.01</speed>
  <fix>3d</fix>
</trkpt>
<trkpt lat="-35.3629382" lon="149.1650846">
  <ele>612.18</ele>
  <time>2026-09-01T19:52:46Z</time>
  <course>323.84</course>
  <speed>0.02</speed>
  <fix>3d</fix>
</trkpt>
<trkpt lat="-35.3629383" lon="149.1650848">
  <ele>613.22</ele>
  <time>2026-09-01T19:52:46Z</time>
  <course>356.34</course>
  <speed>0.01</speed>
  <fix>3d</fix>
</trkpt>
<trkpt lat="-35.3629381" lon="149.1650846">
  <ele>612.68</ele>
  <time>2026-09-01T19:52:46Z</time>
  <course>326.84</course>
  <speed>0.02</speed>
  <fix>3d</fix>
</trkpt>
<trkpt lat="-35.3629383" lon="149.1650848">
  <ele>613.47</ele>
  <time>2026-09-01T19:52:46Z</time>
  <course>356.35</course>
  <speed>0.01</speed>
  <fix>3d</fix>
</trkpt>
<trkpt lat="-35.3629381" lon="149.1650846">
  <ele>612.68</ele>
  <time>2026-09-01T19:52:46Z</time>
  <course>326.84</course>
  <speed>0.02</speed>
  <fix>3d</fix>
</trkpt>
<trkpt lat="-35.3629383" lon="149.1650848">
  <ele>613.72</ele>
  <time>2026-09-01T19:52:46Z</time>
  <course>356.35</course>
  <speed>0.01</speed>
  <fix>3d</fix>
</trkpt>
<trkpt lat="-35.3629381" lon="149.1650845">
  <ele>613.18</ele>
  <time>2026-09-01T19:52:46Z</time>
  <course>328.9</course>
  <speed>0.03</speed>
  <fix>3d</fix>
</trkpt>
<trkpt lat="-35.3629383" lon="149.1650848">
  <ele>613.97</ele>
  <time>2026-09-01T19:52:46Z</time>
  <course>356.35</course>
  <speed>0.01</speed>
  <fix>3d</fix>
</trkpt>
<trkpt lat="-35.3629381" lon="149.1650845">
  <ele>613.18</ele>
  <time>2026-09-01T19:52:46Z</time>
  <course>328.9</course>
  <speed>0.03</speed>
  <fix>3d</fix>
</trkpt>
<trkpt lat="-35.3629382" lon="149.1650848">
  <ele>614.22</ele>
  <time>2026-09-01T19:52:46Z</time>
  <course>356.35</course>
  <speed>0.01</speed>
  <fix>3d</fix>
</trkpt>
<trkpt lat="-35.3629381" lon="149.1650845">
  <ele>613.68</ele>
  <time>2026-09-01T19:52:46Z</time>
  <course>329.58</course>
  <speed>0.03</speed>
  <fix>3d</fix>
</trkpt>
<trkpt lat="-35.3629382" lon="149.1650848">
  <ele>614.47</ele>
  <time>2026-09-01T19:52:46Z</time>
  <course>356.35</course>
  <speed>0.01</speed>
  <fix>3d</fix>
</trkpt>
<trkpt lat="-35.3629381" lon="149.1650845">
  <ele>613.68</ele>
  <time>2026-09-01T19:52:46Z</time>
  <course>329.58</course>
  <speed>0.03</speed>
  <fix>3d</fix>
</trkpt>
<trkpt lat="-35.3629382" lon="149.1650848">
  <ele>614.72</ele>
  <time>2026-09-01T19:52:46Z</time>
  <course>356.35</course>
  <speed>0.01</speed>
  <fix>3d</fix>
</trkpt>
<trkpt lat="-35.362938" lon="149.1650845">
  <ele>614.18</ele>
  <time>2026-09-01T19:52:46Z</time>
  <course>330.2</course>
  <speed>0.03</speed>
  <fix>3d</fix>
</trkpt>
<trkpt lat="-35.3629382" lon="149.1650847">
  <ele>614.97</ele>
  <time>2026-09-01T19:52:46Z</time>
  <course>356.36</course>
  <speed>0.01</speed>
  <fix>3d</fix>
</trkpt>
<trkpt lat="-35.362938" lon="149.1650845">
  <ele>614.18</ele>
  <time>2026-09-01T19:52:46Z</time>
  <course>330.2</course>
  <speed>0.03</speed>
  <fix>3d</fix>
</trkpt>
<trkpt lat="-35.3629382" lon="149.1650847">
  <ele>615.22</ele>
  <time>2026-09-01T19:52:46Z</time>
  <course>356.36</course>
  <speed>0.01</speed>
  <fix>3d</fix>
</trkpt>
<trkpt lat="-35.362938" lon="149.1650844">
  <ele>614.68</ele>
  <time>2026-09-01T19:52:46Z</time>
  <course>331.16</course>
  <speed>0.03</speed>
  <fix>3d</fix>
</trkpt>
<trkpt lat="-35.3629381" lon="149.1650847">
  <ele>615.47</ele>
  <time>2026-09-01T19:52:46Z</time>
  <course>356.37</course>
  <speed>0.01</speed>
  <fix>3d</fix>
</trkpt>
<trkpt lat="-35.362938" lon="149.1650844">
  <ele>614.68</ele>
  <time>2026-09-01T19:52:46Z</time>
  <course>331.16</course>
  <speed>0.03</speed>
  <fix>3d</fix>
</trkpt>
<trkpt lat="-35.3629381" lon="149.1650847">
  <ele>615.72</ele>
  <time>2026-09-01T19:52:46Z</time>
  <course>356.37</course>
  <speed>0.01</speed>
  <fix>3d</fix>
</trkpt>
<trkpt lat="-35.3629379" lon="149.1650843">
  <ele>615.18</ele>
  <time>2026-09-01T19:52:46Z</time>
  <course>331.99</course>
  <speed>0.03</speed>
  <fix>3d</fix>
</trkpt>
<trkpt lat="-35.3629381" lon="149.1650846">
  <ele>615.97</ele>
  <time>2026-09-01T19:52:46Z</time>
  <course>356.37</course>
  <speed>0.01</speed>
  <fix>3d</fix>
</trkpt>
<trkpt lat="-35.3629379" lon="149.1650843">
  <ele>615.18</ele>
  <time>2026-09-01T19:52:46Z</time>
  <course>331.99</course>
  <speed>0.03</speed>
  <fix>3d</fix>
</trkpt>
<trkpt lat="-35.3629381" lon="149.1650846">
  <ele>616.23</ele>
  <time>2026-09-01T19:52:46Z</time>
  <course>356.38</course>
  <speed>0.01</speed>
  <fix>3d</fix>
</trkpt>
<trkpt lat="-35.3629378" lon="149.1650843">
  <ele>615.68</ele>
  <time>2026-09-01T19:52:46Z</time>
  <course>332.92</course>
  <speed>0.03</speed>
  <fix>3d</fix>
</trkpt>
<trkpt lat="-35.362938" lon="149.1650846">
  <ele>616.48</ele>
  <time>2026-09-01T19:52:46Z</time>
  <course>356.38</course>
  <speed>0.01</speed>
  <fix>3d</fix>
</trkpt>
<trkpt lat="-35.3629378" lon="149.1650843">
  <ele>615.68</ele>
  <time>2026-09-01T19:52:46Z</time>
  <course>332.92</course>
  <speed>0.03</speed>
  <fix>3d</fix>
</trkpt>
<trkpt lat="-35.362938" lon="149.1650846">
  <ele>616.73</ele>
  <time>2026-09-01T19:52:46Z</time>
  <course>356.39</course>
  <speed>0.01</speed>
  <fix>3d</fix>
</trkpt>
<trkpt lat="-35.3629378" lon="149.1650843">
  <ele>616.19</ele>
  <time>2026-09-01T19:52:46Z</time>
  <course>334.88</course>
  <speed>0.03</speed>
  <fix>3d</fix>
</trkpt>
<trkpt lat="-35.362938" lon="149.1650846">
  <ele>616.97</ele>
  <time>2026-09-01T19:52:46Z</time>
  <course>356.4</course>
  <speed>0.01</speed>
  <fix>3d</fix>
</trkpt>
<trkpt lat="-35.3629378" lon="149.1650843">
  <ele>616.19</ele>
  <time>2026-09-01T19:52:46Z</time>
  <course>334.88</course>
  <speed>0.03</speed>
  <fix>3d</fix>
</trkpt>
<trkpt lat="-35.3629379" lon="149.1650846">
  <ele>617.22</ele>
  <time>2026-09-01T19:52:46Z</time>
  <course>356.42</course>
  <speed>0.01</speed>
  <fix>3d</fix>
</trkpt>
<trkpt lat="-35.3629377" lon="149.1650843">
  <ele>616.69</ele>
  <time>2026-09-01T19:52:46Z</time>
  <course>337.81</course>
  <speed>0.03</speed>
  <fix>3d</fix>
</trkpt>
<trkpt lat="-35.3629379" lon="149.1650846">
  <ele>617.47</ele>
  <time>2026-09-01T19:52:46Z</time>
  <course>356.44</course>
  <speed>0.01</speed>
  <fix>3d</fix>
</trkpt>
<trkpt lat="-35.3629377" lon="149.1650843">
  <ele>616.69</ele>
  <time>2026-09-01T19:52:46Z</time>
  <course>337.81</course>
  <speed>0.03</speed>
  <fix>3d</fix>
</trkpt>
<trkpt lat="-35.3629379" lon="149.1650846">
  <ele>617.72</ele>
  <time>2026-09-01T19:52:46Z</time>
  <course>356.47</course>
  <speed>0.01</speed>
  <fix>3d</fix>
</trkpt>
<trkpt lat="-35.3629376" lon="149.1650842">
  <ele>617.19</ele>
  <time>2026-09-01T19:52:46Z</time>
  <course>340.18</course>
  <speed>0.03</speed>
  <fix>3d</fix>
</trkpt>
<trkpt lat="-35.3629379" lon="149.1650846">
  <ele>617.97</ele>
  <time>2026-09-01T19:52:46Z</time>
  <course>356.49</course>
  <speed>0.01</speed>
  <fix>3d</fix>
</trkpt>
<trkpt lat="-35.3629376" lon="149.1650842">
  <ele>617.19</ele>
  <time>2026-09-01T19:52:46Z</time>
  <course>340.18</course>
  <speed>0.03</speed>
  <fix>3d</fix>
</trkpt>
<trkpt lat="-35.3629378" lon="149.1650845">
  <ele>618.21</ele>
  <time>2026-09-01T19:52:46Z</time>
  <course>356.5</course>
  <speed>0.01</speed>
  <fix>3d</fix>
</trkpt>
<trkpt lat="-35.3629376" lon="149.1650842">
  <ele>617.7</ele>
  <time>2026-09-01T19:52:46Z</time>
  <course>341.2</course>
  <speed>0.03</speed>
  <fix>3d</fix>
</trkpt>
<trkpt lat="-35.3629378" lon="149.1650845">
  <ele>618.47</ele>
  <time>2026-09-01T19:52:46Z</time>
  <course>356.51</course>
  <speed>0.01</speed>
  <fix>3d</fix>
</trkpt>
<trkpt lat="-35.3629376" lon="149.1650842">
  <ele>617.7</ele>
  <time>2026-09-01T19:52:46Z</time>
  <course>341.2</course>
  <speed>0.03</speed>
  <fix>3d</fix>
</trkpt>
<trkpt lat="-35.3629378" lon="149.1650845">
  <ele>618.72</ele>
  <time>2026-09-01T19:52:46Z</time>
  <course>356.5</course>
  <speed>0.01</speed>
  <fix>3d</fix>
</trkpt>
<trkpt lat="-35.3629375" lon="149.1650842">
  <ele>618.2</ele>
  <time>2026-09-01T19:52:46Z</time>
  <course>341.26</course>
  <speed>0.03</speed>
  <fix>3d</fix>
</trkpt>
<trkpt lat="-35.3629377" lon="149.1650845">
  <ele>618.97</ele>
  <time>2026-09-01T19:52:46Z</time>
  <course>356.5</course>
  <speed>0.01</speed>
  <fix>3d</fix>
</trkpt>
<trkpt lat="-35.3629375" lon="149.1650842">
  <ele>618.2</ele>
  <time>2026-09-01T19:52:46Z</time>
  <course>341.26</course>
  <speed>0.03</speed>
  <fix>3d</fix>
</trkpt>
<trkpt lat="-35.3629377" lon="149.1650845">
  <ele>619.22</ele>
  <time>2026-09-01T19:52:46Z</time>
  <course>356.51</course>
  <speed>0.01</speed>
  <fix>3d</fix>
</trkpt>
<trkpt lat="-35.3629375" lon="149.1650842">
  <ele>618.7</ele>
  <time>2026-09-01T19:52:46Z</time>
  <course>339.89</course>
  <speed>0.03</speed>
  <fix>3d</fix>
</trkpt>
<trkpt lat="-35.3629377" lon="149.1650845">
  <ele>619.47</ele>
  <time>2026-09-01T19:52:46Z</time>
  <course>356.51</course>
  <speed>0.01</speed>
  <fix>3d</fix>
</trkpt>
<trkpt lat="-35.3629375" lon="149.1650842">
  <ele>618.7</ele>
  <time>2026-09-01T19:52:46Z</time>
  <course>339.89</course>
  <speed>0.03</speed>
  <fix>3d</fix>
</trkpt>
<trkpt lat="-35.3629377" lon="149.1650845">
  <ele>619.73</ele>
  <time>2026-09-01T19:52:46Z</time>
  <course>356.51</course>
  <speed>0.01</speed>
  <fix>3d</fix>
</trkpt>
<trkpt lat="-35.3629374" lon="149.1650841">
  <ele>619.2</ele>
  <time>2026-09-01T19:52:46Z</time>
  <course>337.73</course>
  <speed>0.03</speed>
  <fix>3d</fix>
</trkpt>
<trkpt lat="-35.3629377" lon="149.1650845">
  <ele>619.98</ele>
  <time>2026-09-01T19:52:46Z</time>
  <course>356.51</course>
  <speed>0.01</speed>
  <fix>3d</fix>
</trkpt>
<trkpt lat="-35.3629374" lon="149.1650841">
  <ele>619.2</ele>
  <time>2026-09-01T19:52:46Z</time>
  <course>337.73</course>
  <speed>0.03</speed>
  <fix>3d</fix>
</trkpt>
<trkpt lat="-35.3629376" lon="149.1650844">
  <ele>620.24</ele>
  <time>2026-09-01T19:52:46Z</time>
  <course>356.51</course>
  <speed>0.01</speed>
  <fix>3d</fix>
</trkpt>
<trkpt lat="-35.3629374" lon="149.1650841">
  <ele>619.71</ele>
  <time>2026-09-01T19:52:46Z</time>
  <course>335.9</course>
  <speed>0.02</speed>
  <fix>3d</fix>
</trkpt>
<trkpt lat="-35.3629376" lon="149.1650844">
  <ele>620.49</ele>
  <time>2026-09-01T19:52:46Z</time>
  <course>356.51</course>
  <speed>0.02</speed>
  <fix>3d</fix>
</trkpt>
<trkpt lat="-35.3629374" lon="149.1650841">
  <ele>619.71</ele>
  <time>2026-09-01T19:52:46Z</time>
  <course>335.9</course>
  <speed>0.02</speed>
  <fix>3d</fix>
</trkpt>
<trkpt lat="-35.3629376" lon="149.1650844">
  <ele>620.75</ele>
  <time>2026-09-01T19:52:46Z</time>
  <course>356.51</course>
  <speed>0.022360679774997897</speed>
  <fix>3d</fix>
</trkpt>
<trkpt lat="-35.3629374" lon="149.1650841">
  <ele>620.21</ele>
  <time>2026-09-01T19:52:46Z</time>
  <course>335.19</course>
  <speed>0.02</speed>
  <fix>3d</fix>
</trkpt>
<trkpt lat="-35.3629376" lon="149.1650844">
  <ele>621.0</ele>
  <time>2026-09-01T19:52:46Z</time>
  <course>356.52</course>
  <speed>0.022360679774997897</speed>
  <fix>3d</fix>
</trkpt>
<trkpt lat="-35.3629374" lon="149.1650841">
  <ele>620.21</ele>
  <time>2026-09-01T19:52:46Z</time>
  <course>335.19</course>
  <speed>0.02</speed>
  <fix>3d</fix>
</trkpt>
<trkpt lat="-35.3629376" lon="149.1650844">
  <ele>621.25</ele>
  <time>2026-09-01T19:52:46Z</time>
  <course>356.52</course>
  <speed>0.022360679774997897</speed>
  <fix>3d</fix>
</trkpt>
<trkpt lat="-35.3629373" lon="149.1650841">
  <ele>620.71</ele>
  <time>2026-09-01T19:52:46Z</time>
  <course>335.86</course>
  <speed>0.01</speed>
  <fix>3d</fix>
</trkpt>
<trkpt lat="-35.3629376" lon="149.1650844">
  <ele>621.5</ele>
  <time>2026-09-01T19:52:46Z</time>
  <course>356.53</course>
  <speed>0.022360679774997897</speed>
  <fix>3d</fix>
</trkpt>
<trkpt lat="-35.3629373" lon="149.1650841">
  <ele>620.71</ele>
  <time>2026-09-01T19:52:46Z</time>
  <course>335.86</course>
  <speed>0.01</speed>
  <fix>3d</fix>
</trkpt>
<trkpt lat="-35.3629375" lon="149.1650844">
  <ele>621.75</ele>
  <time>2026-09-01T19:52:46Z</time>
  <course>356.55</course>
  <speed>0.022360679774997897</speed>
  <fix>3d</fix>
</trkpt>
<trkpt lat="-35.3629373" lon="149.1650841">
  <ele>621.22</ele>
  <time>2026-09-01T19:52:46Z</time>
  <course>335.57</course>
  <speed>0.01</speed>
  <fix>3d</fix>
</trkpt>
<trkpt lat="-35.3629375" lon="149.1650844">
  <ele>622.0</ele>
  <time>2026-09-01T19:52:46Z</time>
  <course>356.56</course>
  <speed>0.022360679774997897</speed>
  <fix>3d</fix>
</trkpt>
<trkpt lat="-35.3629373" lon="149.1650841">
  <ele>621.22</ele>
  <time>2026-09-01T19:52:46Z</time>
  <course>335.57</course>
  <speed>0.01</speed>
  <fix>3d</fix>
</trkpt>
<trkpt lat="-35.3629375" lon="149.1650844">
  <ele>622.25</ele>
  <time>2026-09-01T19:52:46Z</time>
  <course>356.56</course>
  <speed>0.022360679774997897</speed>
  <fix>3d</fix>
</trkpt>
<trkpt lat="-35.3629373" lon="149.1650841">
  <ele>621.72</ele>
  <time>2026-09-01T19:52:46Z</time>
  <course>332.53</course>
  <speed>0.01</speed>
  <fix>3d</fix>
</trkpt>
<trkpt lat="-35.3629375" lon="149.1650844">
  <ele>622.5</ele>
  <time>2026-09-01T19:52:46Z</time>
  <course>356.56</course>
  <speed>0.0282842712474619</speed>
  <fix>3d</fix>
</trkpt>
<trkpt lat="-35.3629373" lon="149.1650841">
  <ele>621.72</ele>
  <time>2026-09-01T19:52:46Z</time>
  <course>332.53</course>
  <speed>0.01</speed>
  <fix>3d</fix>
</trkpt>
<trkpt lat="-35.3629375" lon="149.1650844">
  <ele>622.75</ele>
  <time>2026-09-01T19:52:46Z</time>
  <course>356.57</course>
  <speed>0.0282842712474619</speed>
  <fix>3d</fix>
</trkpt>
<trkpt lat="-35.3629373" lon="149.165084">
  <ele>622.21</ele>
  <time>2026-09-01T19:52:46Z</time>
  <course>327.26</course>
  <speed>0.0</speed>
  <fix>3d</fix>
</trkpt>
<trkpt lat="-35.3629375" lon="149.1650844">
  <ele>623.0</ele>
  <time>2026-09-01T19:52:46Z</time>
  <course>356.58</course>
  <speed>0.0282842712474619</speed>
  <fix>3d</fix>
</trkpt>
<trkpt lat="-35.3629373" lon="149.165084">
  <ele>622.21</ele>
  <time>2026-09-01T19:52:46Z</time>
  <course>327.26</course>
  <speed>0.0</speed>
  <fix>3d</fix>
</trkpt>
<trkpt lat="-35.3629375" lon="149.1650844">
  <ele>623.25</ele>
  <time>2026-09-01T19:52:46Z</time>
  <course>356.6</course>
  <speed>0.0282842712474619</speed>
  <fix>3d</fix>
</trkpt>
<trkpt lat="-35.3629373" lon="149.165084">
  <ele>622.71</ele>
  <time>2026-09-01T19:52:46Z</time>
  <course>318.8</course>
  <speed>0.0</speed>
  <fix>3d</fix>
</trkpt>
<trkpt lat="-35.3629375" lon="149.1650844">
  <ele>623.5</ele>
  <time>2026-09-01T19:52:46Z</time>
  <course>356.61</course>
  <speed>0.0282842712474619</speed>
  <fix>3d</fix>
</trkpt>
<trkpt lat="-35.3629373" lon="149.165084">
  <ele>622.71</ele>
  <time>2026-09-01T19:52:46Z</time>
  <course>318.8</course>
  <speed>0.0</speed>
  <fix>3d</fix>
</trkpt>
<trkpt lat="-35.3629375" lon="149.1650843">
  <ele>623.75</ele>
  <time>2026-09-01T19:52:46Z</time>
  <course>356.61</course>
  <speed>0.0282842712474619</speed>
  <fix>3d</fix>
</trkpt>
<trkpt lat="-35.3629372" lon="149.165084">
  <ele>623.2</ele>
  <time>2026-09-01T19:52:46Z</time>
  <course>300.0</course>
  <speed>0.0</speed>
  <fix>3d</fix>
</trkpt>
<trkpt lat="-35.3629375" lon="149.1650843">
  <ele>624.0</ele>
  <time>2026-09-01T19:52:46Z</time>
  <course>356.62</course>
  <speed>0.0282842712474619</speed>
  <fix>3d</fix>
</trkpt>
<trkpt lat="-35.3629372" lon="149.165084">
  <ele>623.2</ele>
  <time>2026-09-01T19:52:46Z</time>
  <course>300.0</course>
  <speed>0.0</speed>
  <fix>3d</fix>
</trkpt>
<trkpt lat="-35.3629375" lon="149.1650843">
  <ele>624.24</ele>
  <time>2026-09-01T19:52:46Z</time>
  <course>356.63</course>
  <speed>0.0282842712474619</speed>
  <fix>3d</fix>
</trkpt>
<trkpt lat="-35.3629372" lon="149.165084">
  <ele>623.7</ele>
  <time>2026-09-01T19:52:46Z</time>
  <course>223.31</course>
  <speed>0.0</speed>
  <fix>3d</fix>
</trkpt>
<trkpt lat="-35.3629375" lon="149.1650843">
  <ele>624.49</ele>
  <time>2026-09-01T19:52:46Z</time>
  <course>356.64</course>
  <speed>0.03605551275463989</speed>
  <fix>3d</fix>
</trkpt>
<trkpt lat="-35.3629372" lon="149.165084">
  <ele>623.7</ele>
  <time>2026-09-01T19:52:46Z</time>
  <course>223.31</course>
  <speed>0.0</speed>
  <fix>3d</fix>
</trkpt>
<trkpt lat="-35.3629375" lon="149.1650843">
  <ele>624.73</ele>
  <time>2026-09-01T19:52:46Z</time>
  <course>356.65</course>
  <speed>0.03605551275463989</speed>
  <fix>3d</fix>
</trkpt>
<trkpt lat="-35.3629373" lon="149.165084">
  <ele>624.19</ele>
  <time>2026-09-01T19:52:46Z</time>
  <course>195.31</course>
  <speed>0.0</speed>
  <fix>3d</fix>
</trkpt>
<trkpt lat="-35.3629375" lon="149.1650843">
  <ele>624.98</ele>
  <time>2026-09-01T19:52:46Z</time>
  <course>356.65</course>
  <speed>0.03605551275463989</speed>
  <fix>3d</fix>
</trkpt>
<trkpt lat="-35.3629373" lon="149.165084">
  <ele>624.19</ele>
  <time>2026-09-01T19:52:46Z</time>
  <course>195.31</course>
  <speed>0.0</speed>
  <fix>3d</fix>
</trkpt>
<trkpt lat="-35.3629375" lon="149.1650843">
  <ele>625.23</ele>
  <time>2026-09-01T19:52:46Z</time>
  <course>356.65</course>
  <speed>0.03605551275463989</speed>
  <fix>3d</fix>
</trkpt>
<trkpt lat="-35.3629373" lon="149.165084">
  <ele>624.69</ele>
  <time>2026-09-01T19:52:46Z</time>
  <course>191.46</course>
  <speed>0.0</speed>
  <fix>3d</fix>
</trkpt>
<trkpt lat="-35.3629375" lon="149.1650843">
  <ele>625.48</ele>
  <time>2026-09-01T19:52:46Z</time>
  <course>356.64</course>
  <speed>0.03605551275463989</speed>
  <fix>3d</fix>
</trkpt>
<trkpt lat="-35.3629373" lon="149.165084">
  <ele>624.69</ele>
  <time>2026-09-01T19:52:46Z</time>
  <course>191.46</course>
  <speed>0.0</speed>
  <fix>3d</fix>
</trkpt>
<trkpt lat="-35.3629375" lon="149.1650843">
  <ele>625.73</ele>
  <time>2026-09-01T19:52:46Z</time>
  <course>356.63</course>
  <speed>0.03605551275463989</speed>
  <fix>3d</fix>
</trkpt>
<trkpt lat="-35.3629373" lon="149.165084">
  <ele>625.19</ele>
  <time>2026-09-01T19:52:46Z</time>
  <course>185.95</course>
  <speed>0.0</speed>
  <fix>3d</fix>
</trkpt>
<trkpt lat="-35.3629375" lon="149.1650843">
  <ele>625.98</ele>
  <time>2026-09-01T19:52:46Z</time>
  <course>356.63</course>
  <speed>0.03605551275463989</speed>
  <fix>3d</fix>
</trkpt>
<trkpt lat="-35.3629373" lon="149.165084">
  <ele>625.19</ele>
  <time>2026-09-01T19:52:46Z</time>
  <course>185.95</course>
  <speed>0.0</speed>
  <fix>3d</fix>
</trkpt>
<trkpt lat="-35.3629375" lon="149.1650843">
  <ele>626.23</ele>
  <time>2026-09-01T19:52:46Z</time>
  <course>356.63</course>
  <speed>0.03605551275463989</speed>
  <fix>3d</fix>
</trkpt>
<trkpt lat="-35.3629373" lon="149.165084">
  <ele>625.69</ele>
  <time>2026-09-01T19:52:46Z</time>
  <course>175.54</course>
  <speed>0.0</speed>
  <fix>3d</fix>
</trkpt>
<trkpt lat="-35.3629375" lon="149.1650843">
  <ele>626.48</ele>
  <time>2026-09-01T19:52:46Z</time>
  <course>356.64</course>
  <speed>0.03605551275463989</speed>
  <fix>3d</fix>
</trkpt>
<trkpt lat="-35.3629373" lon="149.165084">
  <ele>625.69</ele>
  <time>2026-09-01T19:52:46Z</time>
  <course>175.54</course>
  <speed>0.0</speed>
  <fix>3d</fix>
</trkpt>
<trkpt lat="-35.3629375" lon="149.1650843">
  <ele>626.73</ele>
  <time>2026-09-01T19:52:46Z</time>
  <course>356.65</course>
  <speed>0.03605551275463989</speed>
  <fix>3d</fix>
</trkpt>
<trkpt lat="-35.3629373" lon="149.165084">
  <ele>626.19</ele>
  <time>2026-09-01T19:52:46Z</time>
  <course>165.26</course>
  <speed>0.0</speed>
  <fix>3d</fix>
</trkpt>
<trkpt lat="-35.3629375" lon="149.1650843">
  <ele>626.98</ele>
  <time>2026-09-01T19:52:46Z</time>
  <course>356.65</course>
  <speed>0.03605551275463989</speed>
  <fix>3d</fix>
</trkpt>
<trkpt lat="-35.3629373" lon="149.165084">
  <ele>626.19</ele>
  <time>2026-09-01T19:52:46Z</time>
  <course>165.26</course>
  <speed>0.0</speed>
  <fix>3d</fix>
</trkpt>
<trkpt lat="-35.3629375" lon="149.1650843">
  <ele>627.23</ele>
  <time>2026-09-01T19:52:46Z</time>
  <course>356.66</course>
  <speed>0.0282842712474619</speed>
  <fix>3d</fix>
</trkpt>
<trkpt lat="-35.3629373" lon="149.165084">
  <ele>626.69</ele>
  <time>2026-09-01T19:52:46Z</time>
  <course>160.58</course>
  <speed>0.0</speed>
  <fix>3d</fix>
</trkpt>
<trkpt lat="-35.3629375" lon="149.1650843">
  <ele>627.48</ele>
  <time>2026-09-01T19:52:46Z</time>
  <course>356.65</course>
  <speed>0.0282842712474619</speed>
  <fix>3d</fix>
</trkpt>
<trkpt lat="-35.3629373" lon="149.165084">
  <ele>626.69</ele>
  <time>2026-09-01T19:52:46Z</time>
  <course>160.58</course>
  <speed>0.0</speed>
  <fix>3d</fix>
</trkpt>
<trkpt lat="-35.3629375" lon="149.1650843">
  <ele>627.73</ele>
  <time>2026-09-01T19:52:46Z</time>
  <course>356.65</course>
  <speed>0.0282842712474619</speed>
  <fix>3d</fix>
</trkpt>
<trkpt lat="-35.3629373" lon="149.165084">
  <ele>627.19</ele>
  <time>2026-09-01T19:52:46Z</time>
  <course>160.08</course>
  <speed>0.0</speed>
  <fix>3d</fix>
</trkpt>
<trkpt lat="-35.3629375" lon="149.1650843">
  <ele>627.98</ele>
  <time>2026-09-01T19:52:46Z</time>
  <course>356.65</course>
  <speed>0.0282842712474619</speed>
  <fix>3d</fix>
</trkpt>
<trkpt lat="-35.3629373" lon="149.165084">
  <ele>627.19</ele>
  <time>2026-09-01T19:52:46Z</time>
  <course>160.08</course>
  <speed>0.0</speed>
  <fix>3d</fix>
</trkpt>
<trkpt lat="-35.3629375" lon="149.1650843">
  <ele>628.23</ele>
  <time>2026-09-01T19:52:46Z</time>
  <course>356.66</course>
  <speed>0.0282842712474619</speed>
  <fix>3d</fix>
</trkpt>
<trkpt lat="-35.3629373" lon="149.165084">
  <ele>627.69</ele>
  <time>2026-09-01T19:52:46Z</time>
  <course>160.63</course>
  <speed>0.0</speed>
  <fix>3d</fix>
</trkpt>
<trkpt lat="-35.3629375" lon="149.1650843">
  <ele>628.48</ele>
  <time>2026-09-01T19:52:46Z</time>
  <course>356.66</course>
  <speed>0.0282842712474619</speed>
  <fix>3d</fix>
</trkpt>
<trkpt lat="-35.3629373" lon="149.165084">
  <ele>627.69</ele>
  <time>2026-09-01T19:52:46Z</time>
  <course>160.63</course>
  <speed>0.0</speed>
  <fix>3d</fix>
</trkpt>
<trkpt lat="-35.3629375" lon="149.1650843">
  <ele>628.73</ele>
  <time>2026-09-01T19:52:46Z</time>
  <course>356.65</course>
  <speed>0.0282842712474619</speed>
  <fix>3d</fix>
</trkpt>
<trkpt lat="-35.3629373" lon="149.165084">
  <ele>628.19</ele>
  <time>2026-09-01T19:52:46Z</time>
  <course>156.67</course>
  <speed>0.0</speed>
  <fix>3d</fix>
</trkpt>
<trkpt lat="-35.3629375" lon="149.1650843">
  <ele>628.98</ele>
  <time>2026-09-01T19:52:46Z</time>
  <course>356.65</course>
  <speed>0.0282842712474619</speed>
  <fix>3d</fix>
</trkpt>
<trkpt lat="-35.3629373" lon="149.165084">
  <ele>628.19</ele>
  <time>2026-09-01T19:52:46Z</time>
  <course>156.67</course>
  <speed>0.0</speed>
  <fix>3d</fix>
</trkpt>
<trkpt lat="-35.3629375" lon="149.1650843">
  <ele>629.23</ele>
  <time>2026-09-01T19:52:46Z</time>
  <course>356.65</course>
  <speed>0.0282842712474619</speed>
  <fix>3d</fix>
</trkpt>
<trkpt lat="-35.3629373" lon="149.165084">
  <ele>628.69</ele>
  <time>2026-09-01T19:52:46Z</time>
  <course>150.12</course>
  <speed>0.0</speed>
  <fix>3d</fix>
</trkpt>
<trkpt lat="-35.3629375" lon="149.1650843">
  <ele>629.48</ele>
  <time>2026-09-01T19:52:46Z</time>
  <course>356.65</course>
  <speed>0.0282842712474619</speed>
  <fix>3d</fix>
</trkpt>
<trkpt lat="-35.3629373" lon="149.165084">
  <ele>628.69</ele>
  <time>2026-09-01T19:52:46Z</time>
  <course>150.12</course>
  <speed>0.0</speed>
  <fix>3d</fix>
</trkpt>
<trkpt lat="-35.3629375" lon="149.1650843">
  <ele>629.73</ele>
  <time>2026-09-01T19:52:46Z</time>
  <course>356.67</course>
  <speed>0.0282842712474619</speed>
  <fix>3d</fix>
</trkpt>
<trkpt lat="-35.3629373" lon="149.165084">
  <ele>629.19</ele>
  <time>2026-09-01T19:52:46Z</time>
  <course>145.77</course>
  <speed>0.0</speed>
  <fix>3d</fix>
</trkpt>
<trkpt lat="-35.3629375" lon="149.1650843">
  <ele>629.97</ele>
  <time>2026-09-01T19:52:46Z</time>
  <course>356.69</course>
  <speed>0.0282842712474619</speed>
  <fix>3d</fix>
</trkpt>
<trkpt lat="-35.3629373" lon="149.165084">
  <ele>629.19</ele>
  <time>2026-09-01T19:52:46Z</time>
  <course>145.77</course>
  <speed>0.0</speed>
  <fix>3d</fix>
</trkpt>
<trkpt lat="-35.3629375" lon="149.1650843">
  <ele>630.22</ele>
  <time>2026-09-01T19:52:46Z</time>
  <course>356.7</course>
  <speed>0.0282842712474619</speed>
  <fix>3d</fix>
</trkpt>
<trkpt lat="-35.3629373" lon="149.165084">
  <ele>629.69</ele>
  <time>2026-09-01T19:52:46Z</time>
  <course>142.26</course>
  <speed>0.0</speed>
  <fix>3d</fix>
</trkpt>
<trkpt lat="-35.3629375" lon="149.1650843">
  <ele>630.47</ele>
  <time>2026-09-01T19:52:46Z</time>
  <course>356.71</course>
  <speed>0.0282842712474619</speed>
  <fix>3d</fix>
</trkpt>
<trkpt lat="-35.3629373" lon="149.165084">
  <ele>629.69</ele>
  <time>2026-09-01T19:52:46Z</time>
  <course>142.26</course>
  <speed>0.0</speed>
  <fix>3d</fix>
</trkpt>
<trkpt lat="-35.3629375" lon="149.1650843">
  <ele>630.72</ele>
  <time>2026-09-01T19:52:46Z</time>
  <course>356.72</course>
  <speed>0.0282842712474619</speed>
  <fix>3d</fix>
</trkpt>
<trkpt lat="-35.3629373" lon="149.165084">
  <ele>630.19</ele>
  <time>2026-09-01T19:52:46Z</time>
  <course>140.72</course>
  <speed>0.0</speed>
  <fix>3d</fix>
</trkpt>
<trkpt lat="-35.3629375" lon="149.1650843">
  <ele>630.97</ele>
  <time>2026-09-01T19:52:46Z</time>
  <course>356.71</course>
  <speed>0.0282842712474619</speed>
  <fix>3d</fix>
</trkpt>
<trkpt lat="-35.3629373" lon="149.165084">
  <ele>630.19</ele>
  <time>2026-09-01T19:52:46Z</time>
  <course>140.72</course>
  <speed>0.0</speed>
  <fix>3d</fix>
</trkpt>
<trkpt lat="-35.3629375" lon="149.1650843">
  <ele>631.22</ele>
  <time>2026-09-01T19:52:46Z</time>
  <course>356.7</course>
  <speed>0.0282842712474619</speed>
  <fix>3d</fix>
</trkpt>
<trkpt lat="-35.3629373" lon="149.165084">
  <ele>630.69</ele>
  <time>2026-09-01T19:52:46Z</time>
  <course>141.59</course>
  <speed>0.0</speed>
  <fix>3d</fix>
</trkpt>
<trkpt lat="-35.3629375" lon="149.1650843">
  <ele>631.48</ele>
  <time>2026-09-01T19:52:46Z</time>
  <course>356.7</course>
  <speed>0.0282842712474619</speed>
  <fix>3d</fix>
</trkpt>
<trkpt lat="-35.3629373" lon="149.165084">
  <ele>630.69</ele>
  <time>2026-09-01T19:52:46Z</time>
  <course>141.59</course>
  <speed>0.0</speed>
  <fix>3d</fix>
</trkpt>
<trkpt lat="-35.3629375" lon="149.1650843">
  <ele>631.73</ele>
  <time>2026-09-01T19:52:46Z</time>
  <course>356.69</course>
  <speed>0.0282842712474619</speed>
  <fix>3d</fix>
</trkpt>
<trkpt lat="-35.3629373" lon="149.165084">
  <ele>631.19</ele>
  <time>2026-09-01T19:52:46Z</time>
  <course>139.75</course>
  <speed>0.0</speed>
  <fix>3d</fix>
</trkpt>
<trkpt lat="-35.3629375" lon="149.1650843">
  <ele>631.98</ele>
  <time>2026-09-01T19:52:46Z</time>
  <course>356.68</course>
  <speed>0.0282842712474619</speed>
  <fix>3d</fix>
</trkpt>
<trkpt lat="-35.3629373" lon="149.165084">
  <ele>631.19</ele>
  <time>2026-09-01T19:52:46Z</time>
  <course>139.75</course>
  <speed>0.0</speed>
  <fix>3d</fix>
</trkpt>
<trkpt lat="-35.3629375" lon="149.1650843">
  <ele>632.23</ele>
  <time>2026-09-01T19:52:46Z</time>
  <course>356.67</course>
  <speed>0.0282842712474619</speed>
  <fix>3d</fix>
</trkpt>
<trkpt lat="-35.3629373" lon="149.165084">
  <ele>631.7</ele>
  <time>2026-09-01T19:52:46Z</time>
  <course>135.3</course>
  <speed>0.0</speed>
  <fix>3d</fix>
</trkpt>
<trkpt lat="-35.3629375" lon="149.1650843">
  <ele>632.48</ele>
  <time>2026-09-01T19:52:46Z</time>
  <course>356.68</course>
  <speed>0.0282842712474619</speed>
  <fix>3d</fix>
</trkpt>
<trkpt lat="-35.3629373" lon="149.165084">
  <ele>631.7</ele>
  <time>2026-09-01T19:52:46Z</time>
  <course>135.3</course>
  <speed>0.0</speed>
  <fix>3d</fix>
</trkpt>
<trkpt lat="-35.3629375" lon="149.1650843">
  <ele>632.74</ele>
  <time>2026-09-01T19:52:46Z</time>
  <course>356.69</course>
  <speed>0.0282842712474619</speed>
  <fix>3d</fix>
</trkpt>
<trkpt lat="-35.3629373" lon="149.165084">
  <ele>632.2</ele>
  <time>2026-09-01T19:52:46Z</time>
  <course>133.2</course>
  <speed>0.0</speed>
  <fix>3d</fix>
</trkpt>
<trkpt lat="-35.3629375" lon="149.1650843">
  <ele>632.99</ele>
  <time>2026-09-01T19:52:46Z</time>
  <course>356.7</course>
  <speed>0.0282842712474619</speed>
  <fix>3d</fix>
</trkpt>
<trkpt lat="-35.3629373" lon="149.165084">
  <ele>632.2</ele>
  <time>2026-09-01T19:52:46Z</time>
  <course>133.2</course>
  <speed>0.0</speed>
  <fix>3d</fix>
</trkpt>
<trkpt lat="-35.3629375" lon="149.1650843">
  <ele>633.24</ele>
  <time>2026-09-01T19:52:46Z</time>
  <course>356.7</course>
  <speed>0.0282842712474619</speed>
  <fix>3d</fix>
</trkpt>
<trkpt lat="-35.3629373" lon="149.165084">
  <ele>632.7</ele>
  <time>2026-09-01T19:52:46Z</time>
  <course>135.55</course>
  <speed>0.0</speed>
  <fix>3d</fix>
</trkpt>
<trkpt lat="-35.3629375" lon="149.1650843">
  <ele>633.49</ele>
  <time>2026-09-01T19:52:46Z</time>
  <course>356.7</course>
  <speed>0.0282842712474619</speed>
  <fix>3d</fix>
</trkpt>
<trkpt lat="-35.3629373" lon="149.165084">
  <ele>632.7</ele>
  <time>2026-09-01T19:52:46Z</time>
  <course>135.55</course>
  <speed>0.0</speed>
  <fix>3d</fix>
</trkpt>
<trkpt lat="-35.3629375" lon="149.1650843">
  <ele>633.74</ele>
  <time>2026-09-01T19:52:46Z</time>
  <course>356.69</course>
  <speed>0.0282842712474619</speed>
  <fix>3d</fix>
</trkpt>
<trkpt lat="-35.3629374" lon="149.1650841">
  <ele>633.2</ele>
  <time>2026-09-01T19:52:46Z</time>
  <course>139.2</course>
  <speed>0.01</speed>
  <fix>3d</fix>
</trkpt>
<trkpt lat="-35.3629375" lon="149.1650843">
  <ele>633.99</ele>
  <time>2026-09-01T19:52:46Z</time>
  <course>356.69</course>
  <speed>0.0282842712474619</speed>
  <fix>3d</fix>
</trkpt>
<trkpt lat="-35.3629374" lon="149.1650841">
  <ele>633.2</ele>
  <time>2026-09-01T19:52:46Z</time>
  <course>139.2</course>
  <speed>0.01</speed>
  <fix>3d</fix>
</trkpt>
<trkpt lat="-35.3629375" lon="149.1650843">
  <ele>634.24</ele>
  <time>2026-09-01T19:52:46Z</time>
  <course>356.68</course>
  <speed>0.0282842712474619</speed>
  <fix>3d</fix>
</trkpt>
<trkpt lat="-35.3629374" lon="149.1650841">
  <ele>633.7</ele>
  <time>2026-09-01T19:52:46Z</time>
  <course>141.39</course>
  <speed>0.01</speed>
  <fix>3d</fix>
</trkpt>
<trkpt lat="-35.3629375" lon="149.1650843">
  <ele>634.49</ele>
  <time>2026-09-01T19:52:46Z</time>
  <course>356.69</course>
  <speed>0.0282842712474619</speed>
  <fix>3d</fix>
</trkpt>
<trkpt lat="-35.3629374" lon="149.1650841">
  <ele>633.7</ele>
  <time>2026-09-01T19:52:46Z</time>
  <course>141.39</course>
  <speed>0.01</speed>
  <fix>3d</fix>
</trkpt>
<trkpt lat="-35.3629375" lon="149.1650843">
  <ele>634.74</ele>
  <time>2026-09-01T19:52:46Z</time>
  <course>356.69</course>
  <speed>0.0282842712474619</speed>
  <fix>3d</fix>
</trkpt>
<trkpt lat="-35.3629374" lon="149.1650841">
  <ele>634.2</ele>
  <time>2026-09-01T19:52:46Z</time>
  <course>142.4</course>
  <speed>0.01</speed>
  <fix>3d</fix>
</trkpt>
<trkpt lat="-35.3629375" lon="149.1650843">
  <ele>634.99</ele>
  <time>2026-09-01T19:52:46Z</time>
  <course>356.7</course>
  <speed>0.0282842712474619</speed>
  <fix>3d</fix>
</trkpt>
<trkpt lat="-35.3629374" lon="149.1650841">
  <ele>634.2</ele>
  <time>2026-09-01T19:52:46Z</time>
  <course>142.4</course>
  <speed>0.01</speed>
  <fix>3d</fix>
</trkpt>
<trkpt lat="-35.3629375" lon="149.1650843">
  <ele>635.24</ele>
  <time>2026-09-01T19:52:46Z</time>
  <course>356.71</course>
  <speed>0.0282842712474619</speed>
  <fix>3d</fix>
</trkpt>
<trkpt lat="-35.3629374" lon="149.1650841">
  <ele>634.7</ele>
  <time>2026-09-01T19:52:46Z</time>
  <course>143.36</course>
  <speed>0.01</speed>
  <fix>3d</fix>
</trkpt>
<trkpt lat="-35.3629375" lon="149.1650843">
  <ele>635.49</ele>
  <time>2026-09-01T19:52:46Z</time>
  <course>356.72</course>
  <speed>0.0282842712474619</speed>
  <fix>3d</fix>
</trkpt>
<trkpt lat="-35.3629374" lon="149.1650841">
  <ele>634.7</ele>
  <time>2026-09-01T19:52:46Z</time>
  <course>143.36</course>
  <speed>0.01</speed>
  <fix>3d</fix>
</trkpt>
<trkpt lat="-35.3629376" lon="149.1650843">
  <ele>635.73</ele>
  <time>2026-09-01T19:52:46Z</time>
  <course>356.73</course>
  <speed>0.03605551275463989</speed>
  <fix>3d</fix>
</trkpt>
<trkpt lat="-35.3629374" lon="149.1650841">
  <ele>635.2</ele>
  <time>2026-09-01T19:52:46Z</time>
  <course>146.59</course>
  <speed>0.01</speed>
  <fix>3d</fix>
</trkpt>
<trkpt lat="-35.3629376" lon="149.1650843">
  <ele>635.98</ele>
  <time>2026-09-01T19:52:46Z</time>
  <course>356.73</course>
  <speed>0.03605551275463989</speed>
  <fix>3d</fix>
</trkpt>
<trkpt lat="-35.3629374" lon="149.1650841">
  <ele>635.2</ele>
  <time>2026-09-01T19:52:46Z</time>
  <course>146.59</course>
  <speed>0.01</speed>
  <fix>3d</fix>
</trkpt>
<trkpt lat="-35.3629376" lon="149.1650843">
  <ele>636.23</ele>
  <time>2026-09-01T19:52:46Z</time>
  <course>356.71</course>
  <speed>0.03605551275463989</speed>
  <fix>3d</fix>
</trkpt>
<trkpt lat="-35.3629375" lon="149.1650842">
  <ele>635.7</ele>
  <time>2026-09-01T19:52:46Z</time>
  <course>152.06</course>
  <speed>0.01</speed>
  <fix>3d</fix>
</trkpt>
<trkpt lat="-35.3629376" lon="149.1650843">
  <ele>636.47</ele>
  <time>2026-09-01T19:52:46Z</time>
  <course>356.69</course>
  <speed>0.03605551275463989</speed>
  <fix>3d</fix>
</trkpt>
<trkpt lat="-35.3629375" lon="149.1650842">
  <ele>635.7</ele>
  <time>2026-09-01T19:52:46Z</time>
  <course>152.06</course>
  <speed>0.01</speed>
  <fix>3d</fix>
</trkpt>
<trkpt lat="-35.3629376" lon="149.1650843">
  <ele>636.72</ele>
  <time>2026-09-01T19:52:46Z</time>
  <course>356.68</course>
  <speed>0.03605551275463989</speed>
  <fix>3d</fix>
</trkpt>
<trkpt lat="-35.3629375" lon="149.1650842">
  <ele>636.2</ele>
  <time>2026-09-01T19:52:46Z</time>
  <course>154.27</course>
  <speed>0.01</speed>
  <fix>3d</fix>
</trkpt>
<trkpt lat="-35.3629376" lon="149.1650844">
  <ele>636.97</ele>
  <time>2026-09-01T19:52:46Z</time>
  <course>356.67</course>
  <speed>0.03605551275463989</speed>
  <fix>3d</fix>
</trkpt>
<trkpt lat="-35.3629375" lon="149.1650842">
  <ele>636.2</ele>
  <time>2026-09-01T19:52:46Z</time>
  <course>154.27</course>
  <speed>0.01</speed>
  <fix>3d</fix>
</trkpt>
<trkpt lat="-35.3629376" lon="149.1650844">
  <ele>637.22</ele>
  <time>2026-09-01T19:52:46Z</time>
  <course>356.66</course>
  <speed>0.0282842712474619</speed>
  <fix>3d</fix>
</trkpt>
<trkpt lat="-35.3629375" lon="149.1650842">
  <ele>636.7</ele>
  <time>2026-09-01T19:52:46Z</time>
  <course>152.47</course>
  <speed>0.01</speed>
  <fix>3d</fix>
</trkpt>
<trkpt lat="-35.3629376" lon="149.1650844">
  <ele>637.47</ele>
  <time>2026-09-01T19:52:46Z</time>
  <course>356.65</course>
  <speed>0.0282842712474619</speed>
  <fix>3d</fix>
</trkpt>
<trkpt lat="-35.3629375" lon="149.1650842">
  <ele>636.7</ele>
  <time>2026-09-01T19:52:46Z</time>
  <course>152.47</course>
  <speed>0.01</speed>
  <fix>3d</fix>
</trkpt>
<trkpt lat="-35.3629376" lon="149.1650844">
  <ele>637.72</ele>
  <time>2026-09-01T19:52:46Z</time>
  <course>356.65</course>
  <speed>0.0282842712474619</speed>
  <fix>3d</fix>
</trkpt>
<trkpt lat="-35.3629375" lon="149.1650842">
  <ele>637.2</ele>
  <time>2026-09-01T19:52:46Z</time>
  <course>149.41</course>
  <speed>0.01</speed>
  <fix>3d</fix>
</trkpt>
<trkpt lat="-35.3629377" lon="149.1650844">
  <ele>637.97</ele>
  <time>2026-09-01T19:52:46Z</time>
  <course>356.64</course>
  <speed>0.0282842712474619</speed>
  <fix>3d</fix>
</trkpt>
<trkpt lat="-35.3629375" lon="149.1650842">
  <ele>637.2</ele>
  <time>2026-09-01T19:52:46Z</time>
  <course>149.41</course>
  <speed>0.01</speed>
  <fix>3d</fix>
</trkpt>
<trkpt lat="-35.3629377" lon="149.1650844">
  <ele>638.23</ele>
  <time>2026-09-01T19:52:46Z</time>
  <course>356.65</course>
  <speed>0.0282842712474619</speed>
  <fix>3d</fix>
</trkpt>
<trkpt lat="-35.3629375" lon="149.1650842">
  <ele>637.7</ele>
  <time>2026-09-01T19:52:46Z</time>
  <course>147.09</course>
  <speed>0.01</speed>
  <fix>3d</fix>
</trkpt>
<trkpt lat="-35.3629377" lon="149.1650844">
  <ele>638.48</ele>
  <time>2026-09-01T19:52:46Z</time>
  <course>356.65</course>
  <speed>0.0282842712474619</speed>
  <fix>3d</fix>
</trkpt>
<trkpt lat="-35.3629375" lon="149.1650842">
  <ele>637.7</ele>
  <time>2026-09-01T19:52:46Z</time>
  <course>147.09</course>
  <speed>0.01</speed>
  <fix>3d</fix>
</trkpt>
<trkpt lat="-35.3629377" lon="149.1650844">
  <ele>638.73</ele>
  <time>2026-09-01T19:52:46Z</time>
  <course>356.66</course>
  <speed>0.0282842712474619</speed>
  <fix>3d</fix>
</trkpt>
<trkpt lat="-35.3629375" lon="149.1650842">
  <ele>638.2</ele>
  <time>2026-09-01T19:52:46Z</time>
  <course>146.89</course>
  <speed>0.01</speed>
  <fix>3d</fix>
</trkpt>
<trkpt lat="-35.3629377" lon="149.1650844">
  <ele>638.98</ele>
  <time>2026-09-01T19:52:46Z</time>
  <course>356.67</course>
  <speed>0.0282842712474619</speed>
  <fix>3d</fix>
</trkpt>
<trkpt lat="-35.3629375" lon="149.1650842">
  <ele>638.2</ele>
  <time>2026-09-01T19:52:46Z</time>
  <course>146.89</course>
  <speed>0.01</speed>
  <fix>3d</fix>
</trkpt>
<trkpt lat="-35.3629377" lon="149.1650844">
  <ele>639.24</ele>
  <time>2026-09-01T19:52:46Z</time>
  <course>356.67</course>
  <speed>0.0282842712474619</speed>
  <fix>3d</fix>
</trkpt>
<trkpt lat="-35.3629375" lon="149.1650843">
  <ele>638.7</ele>
  <time>2026-09-01T19:52:46Z</time>
  <course>144.29</course>
  <speed>0.01</speed>
  <fix>3d</fix>
</trkpt>
<trkpt lat="-35.3629377" lon="149.1650844">
  <ele>639.49</ele>
  <time>2026-09-01T19:52:46Z</time>
  <course>356.66</course>
  <speed>0.022360679774997897</speed>
  <fix>3d</fix>
</trkpt>
<trkpt lat="-35.3629375" lon="149.1650843">
  <ele>638.7</ele>
  <time>2026-09-01T19:52:46Z</time>
  <course>144.29</course>
  <speed>0.01</speed>
  <fix>3d</fix>
</trkpt>
<trkpt lat="-35.3629377" lon="149.1650844">
  <ele>639.74</ele>
  <time>2026-09-01T19:52:46Z</time>
  <course>356.65</course>
  <speed>0.022360679774997897</speed>
  <fix>3d</fix>
</trkpt>
<trkpt lat="-35.3629375" lon="149.1650843">
  <ele>639.2</ele>
  <time>2026-09-01T19:52:46Z</time>
  <course>134.71</course>
  <speed>0.0</speed>
  <fix>3d</fix>
</trkpt>
<trkpt lat="-35.3629377" lon="149.1650845">
  <ele>639.99</ele>
  <time>2026-09-01T19:52:46Z</time>
  <course>356.64</course>
  <speed>0.022360679774997897</speed>
  <fix>3d</fix>
</trkpt>
<trkpt lat="-35.3629375" lon="149.1650843">
  <ele>639.2</ele>
  <time>2026-09-01T19:52:46Z</time>
  <course>134.71</course>
  <speed>0.0</speed>
  <fix>3d</fix>
</trkpt>
<trkpt lat="-35.3629377" lon="149.1650845">
  <ele>640.24</ele>
  <time>2026-09-01T19:52:46Z</time>
  <course>356.63</course>
  <speed>0.022360679774997897</speed>
  <fix>3d</fix>
</trkpt>
<trkpt lat="-35.3629375" lon="149.1650843">
  <ele>639.71</ele>
  <time>2026-09-01T19:52:46Z</time>
  <course>122.79</course>
  <speed>0.0</speed>
  <fix>3d</fix>
</trkpt>
<trkpt lat="-35.3629377" lon="149.1650845">
  <ele>640.49</ele>
  <time>2026-09-01T19:52:46Z</time>
  <course>356.63</course>
  <speed>0.022360679774997897</speed>
  <fix>3d</fix>
</trkpt>
<trkpt lat="-35.3629375" lon="149.1650843">
  <ele>639.71</ele>
  <time>2026-09-01T19:52:46Z</time>
  <course>122.79</course>
  <speed>0.0</speed>
  <fix>3d</fix>
</trkpt>
<trkpt lat="-35.3629377" lon="149.1650845">
  <ele>640.74</ele>
  <time>2026-09-01T19:52:46Z</time>
  <course>356.62</course>
  <speed>0.022360679774997897</speed>
  <fix>3d</fix>
</trkpt>
<trkpt lat="-35.3629375" lon="149.1650843">
  <ele>640.21</ele>
  <time>2026-09-01T19:52:46Z</time>
  <course>117.84</course>
  <speed>0.0</speed>
  <fix>3d</fix>
</trkpt>
<trkpt lat="-35.3629377" lon="149.1650845">
  <ele>640.98</ele>
  <time>2026-09-01T19:52:46Z</time>
  <course>356.62</course>
  <speed>0.022360679774997897</speed>
  <fix>3d</fix>
</trkpt>
<trkpt lat="-35.3629375" lon="149.1650843">
  <ele>640.21</ele>
  <time>2026-09-01T19:52:46Z</time>
  <course>117.84</course>
  <speed>0.0</speed>
  <fix>3d</fix>
</trkpt>
<trkpt lat="-35.3629377" lon="149.1650845">
  <ele>641.23</ele>
  <time>2026-09-01T19:52:46Z</time>
  <course>356.62</course>
  <speed>0.0282842712474619</speed>
  <fix>3d</fix>
</trkpt>
<trkpt lat="-35.3629376" lon="149.1650843">
  <ele>640.71</ele>
  <time>2026-09-01T19:52:46Z</time>
  <course>121.73</course>
  <speed>0.0</speed>
  <fix>3d</fix>
</trkpt>
<trkpt lat="-35.3629377" lon="149.1650845">
  <ele>641.48</ele>
  <time>2026-09-01T19:52:46Z</time>
  <course>356.63</course>
  <speed>0.0282842712474619</speed>
  <fix>3d</fix>
</trkpt>
<trkpt lat="-35.3629376" lon="149.1650843">
  <ele>640.71</ele>
  <time>2026-09-01T19:52:46Z</time>
  <course>121.73</course>
  <speed>0.0</speed>
  <fix>3d</fix>
</trkpt>
<trkpt lat="-35.3629377" lon="149.1650845">
  <ele>641.73</ele>
  <time>2026-09-01T19:52:46Z</time>
  <course>356.64</course>
  <speed>0.0282842712474619</speed>
  <fix>3d</fix>
</trkpt>
<trkpt lat="-35.3629376" lon="149.1650843">
  <ele>641.21</ele>
  <time>2026-09-01T19:52:46Z</time>
  <course>129.91</course>
  <speed>0.0</speed>
  <fix>3d</fix>
</trkpt>
<trkpt lat="-35.3629377" lon="149.1650845">
  <ele>641.99</ele>
  <time>2026-09-01T19:52:46Z</time>
  <course>356.65</course>
  <speed>0.0282842712474619</speed>
  <fix>3d</fix>
</trkpt>
<trkpt lat="-35.3629376" lon="149.1650843">
  <ele>641.21</ele>
  <time>2026-09-01T19:52:46Z</time>
  <course>129.91</course>
  <speed>0.0</speed>
  <fix>3d</fix>
</trkpt>
<trkpt lat="-35.3629377" lon="149.1650845">
  <ele>642.23</ele>
  <time>2026-09-01T19:52:46Z</time>
  <course>356.65</course>
  <speed>0.0282842712474619</speed>
  <fix>3d</fix>
</trkpt>
<trkpt lat="-35.3629376" lon="149.1650843">
  <ele>641.71</ele>
  <time>2026-09-01T19:52:46Z</time>
  <course>137.19</course>
  <speed>0.0</speed>
  <fix>3d</fix>
</trkpt>
<trkpt lat="-35.3629377" lon="149.1650845">
  <ele>642.48</ele>
  <time>2026-09-01T19:52:46Z</time>
  <course>356.65</course>
  <speed>0.0282842712474619</speed>
  <fix>3d</fix>
</trkpt>
<trkpt lat="-35.3629376" lon="149.1650843">
  <ele>641.71</ele>
  <time>2026-09-01T19:52:46Z</time>
  <course>137.19</course>
  <speed>0.0</speed>
  <fix>3d</fix>
</trkpt>
<trkpt lat="-35.3629377" lon="149.1650845">
  <ele>642.74</ele>
  <time>2026-09-01T19:52:46Z</time>
  <course>356.63</course>
  <speed>0.022360679774997897</speed>
  <fix>3d</fix>
</trkpt>
<trkpt lat="-35.3629376" lon="149.1650843">
  <ele>642.21</ele>
  <time>2026-09-01T19:52:46Z</time>
  <course>142.21</course>
  <speed>0.0</speed>
  <fix>3d</fix>
</trkpt>
<trkpt lat="-35.3629377" lon="149.1650845">
  <ele>642.99</ele>
  <time>2026-09-01T19:52:46Z</time>
  <course>356.62</course>
  <speed>0.022360679774997897</speed>
  <fix>3d</fix>
</trkpt>
<trkpt lat="-35.3629376" lon="149.1650843">
  <ele>642.21</ele>
  <time>2026-09-01T19:52:46Z</time>
  <course>142.21</course>
  <speed>0.0</speed>
  <fix>3d</fix>
</trkpt>
<trkpt lat="-35.3629377" lon="149.1650845">
  <ele>643.25</ele>
  <time>2026-09-01T19:52:46Z</time>
  <course>356.62</course>
  <speed>0.022360679774997897</speed>
  <fix>3d</fix>
</trkpt>
<trkpt lat="-35.3629376" lon="149.1650843">
  <ele>642.71</ele>
  <time>2026-09-01T19:52:46Z</time>
  <course>144.07</course>
  <speed>0.0</speed>
  <fix>3d</fix>
</trkpt>
<trkpt lat="-35.3629377" lon="149.1650845">
  <ele>643.5</ele>
  <time>2026-09-01T19:52:46Z</time>
  <course>356.62</course>
  <speed>0.022360679774997897</speed>
  <fix>3d</fix>
</trkpt>
<trkpt lat="-35.3629376" lon="149.1650843">
  <ele>642.71</ele>
  <time>2026-09-01T19:52:46Z</time>
  <course>144.07</course>
  <speed>0.0</speed>
  <fix>3d</fix>
</trkpt>
<trkpt lat="-35.3629377" lon="149.1650845">
  <ele>643.75</ele>
  <time>2026-09-01T19:52:46Z</time>
  <course>356.61</course>
  <speed>0.022360679774997897</speed>
  <fix>3d</fix>
</trkpt>
<trkpt lat="-35.3629376" lon="149.1650843">
  <ele>643.2</ele>
  <time>2026-09-01T19:52:46Z</time>
  <course>142.1</course>
  <speed>0.0</speed>
  <fix>3d</fix>
</trkpt>
<trkpt lat="-35.3629377" lon="149.1650845">
  <ele>644.0</ele>
  <time>2026-09-01T19:52:46Z</time>
  <course>356.59</course>
  <speed>0.022360679774997897</speed>
  <fix>3d</fix>
</trkpt>
<trkpt lat="-35.3629376" lon="149.1650843">
  <ele>643.2</ele>
  <time>2026-09-01T19:52:46Z</time>
  <course>142.1</course>
  <speed>0.0</speed>
  <fix>3d</fix>
</trkpt>
<trkpt lat="-35.3629377" lon="149.1650845">
  <ele>644.25</ele>
  <time>2026-09-01T19:52:46Z</time>
  <course>356.57</course>
  <speed>0.022360679774997897</speed>
  <fix>3d</fix>
</trkpt>
<trkpt lat="-35.3629376" lon="149.1650843">
  <ele>643.7</ele>
  <time>2026-09-01T19:52:46Z</time>
  <course>135.4</course>
  <speed>0.0</speed>
  <fix>3d</fix>
</trkpt>
<trkpt lat="-35.3629377" lon="149.1650845">
  <ele>644.5</ele>
  <time>2026-09-01T19:52:46Z</time>
  <course>356.55</course>
  <speed>0.022360679774997897</speed>
  <fix>3d</fix>
</trkpt>
<trkpt lat="-35.3629376" lon="149.1650843">
  <ele>643.7</ele>
  <time>2026-09-01T19:52:46Z</time>
  <course>135.4</course>
  <speed>0.0</speed>
  <fix>3d</fix>
</trkpt>
<trkpt lat="-35.3629377" lon="149.1650845">
  <ele>644.74</ele>
  <time>2026-09-01T19:52:46Z</time>
  <course>356.54</course>
  <speed>0.022360679774997897</speed>
  <fix>3d</fix>
</trkpt>
<trkpt lat="-35.3629376" lon="149.1650843">
  <ele>644.2</ele>
  <time>2026-09-01T19:52:46Z</time>
  <course>123.11</course>
  <speed>0.0</speed>
  <fix>3d</fix>
</trkpt>
<trkpt lat="-35.3629377" lon="149.1650845">
  <ele>644.99</ele>
  <time>2026-09-01T19:52:46Z</time>
  <course>356.54</course>
  <speed>0.022360679774997897</speed>
  <fix>3d</fix>
</trkpt>
<trkpt lat="-35.3629376" lon="149.1650843">
  <ele>644.2</ele>
  <time>2026-09-01T19:52:46Z</time>
  <course>123.11</course>
  <speed>0.0</speed>
  <fix>3d</fix>
</trkpt>
<trkpt lat="-35.3629377" lon="149.1650845">
  <ele>645.24</ele>
  <time>2026-09-01T19:52:46Z</time>
  <course>356.55</course>
  <speed>0.022360679774997897</speed>
  <fix>3d</fix>
</trkpt>
<trkpt lat="-35.3629376" lon="149.1650843">
  <ele>644.7</ele>
  <time>2026-09-01T19:52:46Z</time>
  <course>118.97</course>
  <speed>0.0</speed>
  <fix>3d</fix>
</trkpt>
<trkpt lat="-35.3629377" lon="149.1650845">
  <ele>645.5</ele>
  <time>2026-09-01T19:52:46Z</time>
  <course>356.55</course>
  <speed>0.022360679774997897</speed>
  <fix>3d</fix>
</trkpt>
<trkpt lat="-35.3629376" lon="149.1650843">
  <ele>644.7</ele>
  <time>2026-09-01T19:52:46Z</time>
  <course>118.97</course>
  <speed>0.0</speed>
  <fix>3d</fix>
</trkpt>
<trkpt lat="-35.3629377" lon="149.1650845">
  <ele>645.75</ele>
  <time>2026-09-01T19:52:46Z</time>
  <course>356.55</course>
  <speed>0.022360679774997897</speed>
  <fix>3d</fix>
</trkpt>
<trkpt lat="-35.3629376" lon="149.1650843">
  <ele>645.2</ele>
  <time>2026-09-01T19:52:46Z</time>
  <course>127.83</course>
  <speed>0.0</speed>
  <fix>3d</fix>
</trkpt>
<trkpt lat="-35.3629377" lon="149.1650845">
  <ele>646.0</ele>
  <time>2026-09-01T19:52:46Z</time>
  <course>356.55</course>
  <speed>0.022360679774997897</speed>
  <fix>3d</fix>
</trkpt>
<trkpt lat="-35.3629376" lon="149.1650843">
  <ele>645.2</ele>
  <time>2026-09-01T19:52:46Z</time>
  <course>127.83</course>
  <speed>0.0</speed>
  <fix>3d</fix>
</trkpt>
<trkpt lat="-35.3629377" lon="149.1650845">
  <ele>646.24</ele>
  <time>2026-09-01T19:52:46Z</time>
  <course>356.54</course>
  <speed>0.022360679774997897</speed>
  <fix>3d</fix>
</trkpt>
<trkpt lat="-35.3629376" lon="149.1650843">
  <ele>645.69</ele>
  <time>2026-09-01T19:52:46Z</time>
  <course>132.25</course>
  <speed>0.0</speed>
  <fix>3d</fix>
</trkpt>
<trkpt lat="-35.3629377" lon="149.1650845">
  <ele>646.49</ele>
  <time>2026-09-01T19:52:46Z</time>
  <course>356.54</course>
  <speed>0.022360679774997897</speed>
  <fix>3d</fix>
</trkpt>
<trkpt lat="-35.3629376" lon="149.1650843">
  <ele>645.69</ele>
  <time>2026-09-01T19:52:46Z</time>
  <course>132.25</course>
  <speed>0.0</speed>
  <fix>3d</fix>
</trkpt>
<trkpt lat="-35.3629377" lon="149.1650845">
  <ele>646.74</ele>
  <time>2026-09-01T19:52:46Z</time>
  <course>356.55</course>
  <speed>0.022360679774997897</speed>
  <fix>3d</fix>
</trkpt>
<trkpt lat="-35.3629376" lon="149.1650843">
  <ele>646.19</ele>
  <time>2026-09-01T19:52:46Z</time>
  <course>132.3</course>
  <speed>0.0</speed>
  <fix>3d</fix>
</trkpt>
<trkpt lat="-35.3629377" lon="149.1650845">
  <ele>646.99</ele>
  <time>2026-09-01T19:52:46Z</time>
  <course>356.55</course>
  <speed>0.0282842712474619</speed>
  <fix>3d</fix>
</trkpt>
<trkpt lat="-35.3629376" lon="149.1650843">
  <ele>646.19</ele>
  <time>2026-09-01T19:52:46Z</time>
  <course>132.3</course>
  <speed>0.0</speed>
  <fix>3d</fix>
</trkpt>
<trkpt lat="-35.3629377" lon="149.1650845">
  <ele>647.24</ele>
  <time>2026-09-01T19:52:46Z</time>
  <course>356.56</course>
  <speed>0.0282842712474619</speed>
  <fix>3d</fix>
</trkpt>
<trkpt lat="-35.3629376" lon="149.1650843">
  <ele>646.69</ele>
  <time>2026-09-01T19:52:46Z</time>
  <course>135.36</course>
  <speed>0.0</speed>
  <fix>3d</fix>
</trkpt>
<trkpt lat="-35.3629377" lon="149.1650845">
  <ele>647.49</ele>
  <time>2026-09-01T19:52:46Z</time>
  <course>356.56</course>
  <speed>0.0282842712474619</speed>
  <fix>3d</fix>
</trkpt>
<trkpt lat="-35.3629376" lon="149.1650843">
  <ele>646.69</ele>
  <time>2026-09-01T19:52:46Z</time>
  <course>135.36</course>
  <speed>0.0</speed>
  <fix>3d</fix>
</trkpt>
<trkpt lat="-35.3629377" lon="149.1650845">
  <ele>647.74</ele>
  <time>2026-09-01T19:52:46Z</time>
  <course>356.55</course>
  <speed>0.0282842712474619</speed>
  <fix>3d</fix>
</trkpt>
<trkpt lat="-35.3629376" lon="149.1650843">
  <ele>647.19</ele>
  <time>2026-09-01T19:52:46Z</time>
  <course>138.67</course>
  <speed>0.0</speed>
  <fix>3d</fix>
</trkpt>
<trkpt lat="-35.3629377" lon="149.1650845">
  <ele>647.99</ele>
  <time>2026-09-01T19:52:46Z</time>
  <course>356.55</course>
  <speed>0.0282842712474619</speed>
  <fix>3d</fix>
</trkpt>
<trkpt lat="-35.3629376" lon="149.1650843">
  <ele>647.19</ele>
  <time>2026-09-01T19:52:46Z</time>
  <course>138.67</course>
  <speed>0.0</speed>
  <fix>3d</fix>
</trkpt>
<trkpt lat="-35.3629377" lon="149.1650845">
  <ele>648.23</ele>
  <time>2026-09-01T19:52:46Z</time>
  <course>356.55</course>
  <speed>0.0282842712474619</speed>
  <fix>3d</fix>
</trkpt>
<trkpt lat="-35.3629376" lon="149.1650843">
  <ele>647.69</ele>
  <time>2026-09-01T19:52:46Z</time>
  <course>140.0</course>
  <speed>0.0</speed>
  <fix>3d</fix>
</trkpt>
<trkpt lat="-35.3629377" lon="149.1650845">
  <ele>648.48</ele>
  <time>2026-09-01T19:52:46Z</time>
  <course>356.56</course>
  <speed>0.0282842712474619</speed>
  <fix>3d</fix>
</trkpt>
<trkpt lat="-35.3629376" lon="149.1650843">
  <ele>647.69</ele>
  <time>2026-09-01T19:52:46Z</time>
  <course>140.0</course>
  <speed>0.0</speed>
  <fix>3d</fix>
</trkpt>
<trkpt lat="-35.3629377" lon="149.1650845">
  <ele>648.73</ele>
  <time>2026-09-01T19:52:46Z</time>
  <course>356.57</course>
  <speed>0.0282842712474619</speed>
  <fix>3d</fix>
</trkpt>
<trkpt lat="-35.3629376" lon="149.1650843">
  <ele>648.18</ele>
  <time>2026-09-01T19:52:46Z</time>
  <course>142.18</course>
  <speed>0.0</speed>
  <fix>3d</fix>
</trkpt>
<trkpt lat="-35.3629377" lon="149.1650845">
  <ele>648.98</ele>
  <time>2026-09-01T19:52:46Z</time>
  <course>356.59</course>
  <speed>0.0282842712474619</speed>
  <fix>3d</fix>
</trkpt>
<trkpt lat="-35.3629376" lon="149.1650843">
  <ele>648.18</ele>
  <time>2026-09-01T19:52:46Z</time>
  <course>142.18</course>
  <speed>0.0</speed>
  <fix>3d</fix>
</trkpt>
<trkpt lat="-35.3629377" lon="149.1650845">
  <ele>649.23</ele>
  <time>2026-09-01T19:52:46Z</time>
  <course>356.6</course>
  <speed>0.0282842712474619</speed>
  <fix>3d</fix>
</trkpt>
<trkpt lat="-35.3629377" lon="149.1650843">
  <ele>648.68</ele>
  <time>2026-09-01T19:52:46Z</time>
  <course>146.03</course>
  <speed>0.0</speed>
  <fix>3d</fix>
</trkpt>
<trkpt lat="-35.3629377" lon="149.1650845">
  <ele>649.48</ele>
  <time>2026-09-01T19:52:46Z</time>
  <course>356.61</course>
  <speed>0.0282842712474619</speed>
  <fix>3d</fix>
</trkpt>
<trkpt lat="-35.3629377" lon="149.1650843">
  <ele>648.68</ele>
  <time>2026-09-01T19:52:46Z</time>
  <course>146.03</course>
  <speed>0.0</speed>
  <fix>3d</fix>
</trkpt>
<trkpt lat="-35.3629377" lon="149.1650845">
  <ele>649.74</ele>
  <time>2026-09-01T19:52:46Z</time>
  <course>356.61</course>
  <speed>0.0282842712474619</speed>
  <fix>3d</fix>
</trkpt>
<trkpt lat="-35.3629378" lon="149.1650843">
  <ele>649.18</ele>
  <time>2026-09-01T19:52:46Z</time>
  <course>143.67</course>
  <speed>0.0</speed>
  <fix>3d</fix>
</trkpt>
<trkpt lat="-35.3629378" lon="149.1650845">
  <ele>649.99</ele>
  <time>2026-09-01T19:52:46Z</time>
  <course>356.6</course>
  <speed>0.022360679774997897</speed>
  <fix>3d</fix>
</trkpt>
<trkpt lat="-35.3629378" lon="149.1650843">
  <ele>649.18</ele>
  <time>2026-09-01T19:52:46Z</time>
  <course>143.67</course>
  <speed>0.0</speed>
  <fix>3d</fix>
</trkpt>
<trkpt lat="-35.3629378" lon="149.1650845">
  <ele>650.24</ele>
  <time>2026-09-01T19:52:46Z</time>
  <course>356.59</course>
  <speed>0.022360679774997897</speed>
  <fix>3d</fix>
</trkpt>
<trkpt lat="-35.3629378" lon="149.1650843">
  <ele>649.68</ele>
  <time>2026-09-01T19:52:46Z</time>
  <course>123.61</course>
  <speed>0.0</speed>
  <fix>3d</fix>
</trkpt>
<trkpt lat="-35.3629378" lon="149.1650845">
  <ele>650.49</ele>
  <time>2026-09-01T19:52:46Z</time>
  <course>356.57</course>
  <speed>0.022360679774997897</speed>
  <fix>3d</fix>
</trkpt>
<trkpt lat="-35.3629378" lon="149.1650843">
  <ele>649.68</ele>
  <time>2026-09-01T19:52:46Z</time>
  <course>123.61</course>
  <speed>0.0</speed>
  <fix>3d</fix>
</trkpt>
<trkpt lat="-35.3629378" lon="149.1650845">
  <ele>650.74</ele>
  <time>2026-09-01T19:52:46Z</time>
  <course>356.55</course>
  <speed>0.022360679774997897</speed>
  <fix>3d</fix>
</trkpt>
<trkpt lat="-35.3629378" lon="149.1650844">
  <ele>650.18</ele>
  <time>2026-09-01T19:52:46Z</time>
  <course>90.05</course>
  <speed>0.0</speed>
  <fix>3d</fix>
</trkpt>
<trkpt lat="-35.3629378" lon="149.1650845">
  <ele>650.99</ele>
  <time>2026-09-01T19:52:46Z</time>
  <course>356.54</course>
  <speed>0.022360679774997897</speed>
  <fix>3d</fix>
</trkpt>
<trkpt lat="-35.3629378" lon="149.1650844">
  <ele>650.18</ele>
  <time>2026-09-01T19:52:46Z</time>
  <course>90.05</course>
  <speed>0.0</speed>
  <fix>3d</fix>
</trkpt>
<trkpt lat="-35.3629378" lon="149.1650845">
  <ele>651.23</ele>
  <time>2026-09-01T19:52:46Z</time>
  <course>356.54</course>
  <speed>0.022360679774997897</speed>
  <fix>3d</fix>
</trkpt>
<trkpt lat="-35.3629378" lon="149.1650845">
  <ele>650.68</ele>
  <time>2026-09-01T19:52:46Z</time>
  <course>64.57</course>
  <speed>0.0</speed>
  <fix>3d</fix>
</trkpt>
<trkpt lat="-35.3629378" lon="149.1650845">
  <ele>651.48</ele>
  <time>2026-09-01T19:52:46Z</time>
  <course>356.54</course>
  <speed>0.022360679774997897</speed>
  <fix>3d</fix>
</trkpt>
<trkpt lat="-35.3629378" lon="149.1650845">
  <ele>650.68</ele>
  <time>2026-09-01T19:52:46Z</time>
  <course>64.57</course>
  <speed>0.0</speed>
  <fix>3d</fix>
</trkpt>
<trkpt lat="-35.3629378" lon="149.1650845">
  <ele>651.73</ele>
  <time>2026-09-01T19:52:46Z</time>
  <course>356.55</course>
  <speed>0.022360679774997897</speed>
  <fix>3d</fix>
</trkpt>
<trkpt lat="-35.3629378" lon="149.1650845">
  <ele>651.18</ele>
  <time>2026-09-01T19:52:46Z</time>
  <course>43.19</course>
  <speed>0.0</speed>
  <fix>3d</fix>
</trkpt>
<trkpt lat="-35.3629378" lon="149.1650846">
  <ele>651.98</ele>
  <time>2026-09-01T19:52:46Z</time>
  <course>356.55</course>
  <speed>0.022360679774997897</speed>
  <fix>3d</fix>
</trkpt>
<trkpt lat="-35.3629378" lon="149.1650845">
  <ele>651.18</ele>
  <time>2026-09-01T19:52:46Z</time>
  <course>43.19</course>
  <speed>0.0</speed>
  <fix>3d</fix>
</trkpt>
<trkpt lat="-35.3629378" lon="149.1650846">
  <ele>652.23</ele>
  <time>2026-09-01T19:52:46Z</time>
  <course>356.56</course>
  <speed>0.022360679774997897</speed>
  <fix>3d</fix>
</trkpt>
<trkpt lat="-35.3629378" lon="149.1650845">
  <ele>651.68</ele>
  <time>2026-09-01T19:52:46Z</time>
  <course>24.34</course>
  <speed>0.0</speed>
  <fix>3d</fix>
</trkpt>
<trkpt lat="-35.3629378" lon="149.1650846">
  <ele>652.48</ele>
  <time>2026-09-01T19:52:46Z</time>
  <course>356.55</course>
  <speed>0.022360679774997897</speed>
  <fix>3d</fix>
</trkpt>
<trkpt lat="-35.3629378" lon="149.1650845">
  <ele>651.68</ele>
  <time>2026-09-01T19:52:46Z</time>
  <course>24.34</course>
  <speed>0.0</speed>
  <fix>3d</fix>
</trkpt>
<trkpt lat="-35.3629378" lon="149.1650846">
  <ele>652.72</ele>
  <time>2026-09-01T19:52:46Z</time>
  <course>356.55</course>
  <speed>0.022360679774997897</speed>
  <fix>3d</fix>
</trkpt>
<trkpt lat="-35.3629378" lon="149.1650845">
  <ele>652.18</ele>
  <time>2026-09-01T19:52:46Z</time>
  <course>8.97</course>
  <speed>0.0</speed>
  <fix>3d</fix>
</trkpt>
<trkpt lat="-35.3629378" lon="149.1650846">
  <ele>652.97</ele>
  <time>2026-09-01T19:52:46Z</time>
  <course>356.54</course>
  <speed>0.022360679774997897</speed>
  <fix>3d</fix>
</trkpt>
<trkpt lat="-35.3629378" lon="149.1650845">
  <ele>652.18</ele>
  <time>2026-09-01T19:52:46Z</time>
  <course>8.97</course>
  <speed>0.0</speed>
  <fix>3d</fix>
</trkpt>
<trkpt lat="-35.3629378" lon="149.1650846">
  <ele>653.23</ele>
  <time>2026-09-01T19:52:46Z</time>
  <course>356.54</course>
  <speed>0.022360679774997897</speed>
  <fix>3d</fix>
</trkpt>
<trkpt lat="-35.3629378" lon="149.1650845">
  <ele>652.69</ele>
  <time>2026-09-01T19:52:46Z</time>
  <course>358.92</course>
  <speed>0.0</speed>
  <fix>3d</fix>
</trkpt>
<trkpt lat="-35.3629378" lon="149.1650846">
  <ele>653.47</ele>
  <time>2026-09-01T19:52:46Z</time>
  <course>356.54</course>
  <speed>0.022360679774997897</speed>
  <fix>3d</fix>
</trkpt>
<trkpt lat="-35.3629378" lon="149.1650845">
  <ele>652.69</ele>
  <time>2026-09-01T19:52:46Z</time>
  <course>358.92</course>
  <speed>0.0</speed>
  <fix>3d</fix>
</trkpt>
<trkpt lat="-35.3629378" lon="149.1650846">
  <ele>653.72</ele>
  <time>2026-09-01T19:52:46Z</time>
  <course>356.53</course>
  <speed>0.022360679774997897</speed>
  <fix>3d</fix>
</trkpt>
<trkpt lat="-35.3629378" lon="149.1650845">
  <ele>653.19</ele>
  <time>2026-09-01T19:52:46Z</time>
  <course>355.48</course>
  <speed>0.01</speed>
  <fix>3d</fix>
</trkpt>
<trkpt lat="-35.3629378" lon="149.1650846">
  <ele>653.98</ele>
  <time>2026-09-01T19:52:46Z</time>
  <course>356.53</course>
  <speed>0.022360679774997897</speed>
  <fix>3d</fix>
</trkpt>
<trkpt lat="-35.3629378" lon="149.1650845">
  <ele>653.19</ele>
  <time>2026-09-01T19:52:46Z</time>
  <course>355.48</course>
  <speed>0.01</speed>
  <fix>3d</fix>
</trkpt>
<trkpt lat="-35.3629378" lon="149.1650846">
  <ele>654.23</ele>
  <time>2026-09-01T19:52:46Z</time>
  <course>356.53</course>
  <speed>0.022360679774997897</speed>
  <fix>3d</fix>
</trkpt>
<trkpt lat="-35.3629378" lon="149.1650845">
  <ele>653.69</ele>
  <time>2026-09-01T19:52:46Z</time>
  <course>354.94</course>
  <speed>0.01</speed>
  <fix>3d</fix>
</trkpt>
<trkpt lat="-35.3629378" lon="149.1650846">
  <ele>654.48</ele>
  <time>2026-09-01T19:52:46Z</time>
  <course>356.53</course>
  <speed>0.022360679774997897</speed>
  <fix>3d</fix>
</trkpt>
<trkpt lat="-35.3629378" lon="149.1650845">
  <ele>653.69</ele>
  <time>2026-09-01T19:52:46Z</time>
  <course>354.94</course>
  <speed>0.01</speed>
  <fix>3d</fix>
</trkpt>
<trkpt lat="-35.3629378" lon="149.1650846">
  <ele>654.73</ele>
  <time>2026-09-01T19:52:46Z</time>
  <course>356.53</course>
  <speed>0.022360679774997897</speed>
  <fix>3d</fix>
</trkpt>
<trkpt lat="-35.3629377" lon="149.1650845">
  <ele>654.19</ele>
  <time>2026-09-01T19:52:46Z</time>
  <course>354.35</course>
  <speed>0.01</speed>
  <fix>3d</fix>
</trkpt>
<trkpt lat="-35.3629378" lon="149.1650846">
  <ele>654.99</ele>
  <time>2026-09-01T19:52:46Z</time>
  <course>356.53</course>
  <speed>0.02</speed>
  <fix>3d</fix>
</trkpt>
<trkpt lat="-35.3629377" lon="149.1650845">
  <ele>654.19</ele>
  <time>2026-09-01T19:52:46Z</time>
  <course>354.35</course>
  <speed>0.01</speed>
  <fix>3d</fix>
</trkpt>
<trkpt lat="-35.3629378" lon="149.1650846">
  <ele>655.24</ele>
  <time>2026-09-01T19:52:46Z</time>
  <course>356.52</course>
  <speed>0.02</speed>
  <fix>3d</fix>
</trkpt>
<trkpt lat="-35.3629376" lon="149.1650845">
  <ele>654.69</ele>
  <time>2026-09-01T19:52:46Z</time>
  <course>353.28</course>
  <speed>0.01</speed>
  <fix>3d</fix>
</trkpt>
<trkpt lat="-35.3629378" lon="149.1650847">
  <ele>655.49</ele>
  <time>2026-09-01T19:52:46Z</time>
  <course>356.52</course>
  <speed>0.02</speed>
  <fix>3d</fix>
</trkpt>
<trkpt lat="-35.3629376" lon="149.1650845">
  <ele>654.69</ele>
  <time>2026-09-01T19:52:46Z</time>
  <course>353.28</course>
  <speed>0.01</speed>
  <fix>3d</fix>
</trkpt>
<trkpt lat="-35.3629378" lon="149.1650847">
  <ele>655.74</ele>
  <time>2026-09-01T19:52:46Z</time>
  <course>356.53</course>
  <speed>0.02</speed>
  <fix>3d</fix>
</trkpt>
<trkpt lat="-35.3629376" lon="149.1650845">
  <ele>655.2</ele>
  <time>2026-09-01T19:52:46Z</time>
  <course>350.81</course>
  <speed>0.01</speed>
  <fix>3d</fix>
</trkpt>
<trkpt lat="-35.3629378" lon="149.1650847">
  <ele>655.99</ele>
  <time>2026-09-01T19:52:47Z</time>
  <course>356.52</course>
  <speed>0.02</speed>
  <fix>3d</fix>
</trkpt>
<trkpt lat="-35.3629376" lon="149.1650845">
  <ele>655.2</ele>
  <time>2026-09-01T19:52:47Z</time>
  <course>350.81</course>
  <speed>0.01</speed>
  <fix>3d</fix>
</trkpt>
<trkpt lat="-35.3629378" lon="149.1650847">
  <ele>656.25</ele>
  <time>2026-09-01T19:52:47Z</time>
  <course>356.52</course>
  <speed>0.02</speed>
  <fix>3d</fix>
</trkpt>
<trkpt lat="-35.3629376" lon="149.1650845">
  <ele>655.7</ele>
  <time>2026-09-01T19:52:47Z</time>
  <course>347.64</course>
  <speed>0.01</speed>
  <fix>3d</fix>
</trkpt>
<trkpt lat="-35.3629378" lon="149.1650847">
  <ele>656.49</ele>
  <time>2026-09-01T19:52:47Z</time>
  <course>356.52</course>
  <speed>0.02</speed>
  <fix>3d</fix>
</trkpt>
<trkpt lat="-35.3629376" lon="149.1650845">
  <ele>655.7</ele>
  <time>2026-09-01T19:52:47Z</time>
  <course>347.64</course>
  <speed>0.01</speed>
  <fix>3d</fix>
</trkpt>
<trkpt lat="-35.3629378" lon="149.1650847">
  <ele>656.74</ele>
  <time>2026-09-01T19:52:47Z</time>
  <course>356.52</course>
  <speed>0.02</speed>
  <fix>3d</fix>
</trkpt>
<trkpt lat="-35.3629376" lon="149.1650845">
  <ele>656.2</ele>
  <time>2026-09-01T19:52:47Z</time>
  <course>345.56</course>
  <speed>0.01</speed>
  <fix>3d</fix>
</trkpt>
<trkpt lat="-35.3629378" lon="149.1650847">
  <ele>656.99</ele>
  <time>2026-09-01T19:52:47Z</time>
  <course>356.51</course>
  <speed>0.022360679774997897</speed>
  <fix>3d</fix>
</trkpt>
<trkpt lat="-35.3629376" lon="149.1650845">
  <ele>656.2</ele>
  <time>2026-09-01T19:52:47Z</time>
  <course>345.56</course>
  <speed>0.01</speed>
  <fix>3d</fix>
</trkpt>
<trkpt lat="-35.3629378" lon="149.1650847">
  <ele>657.24</ele>
  <time>2026-09-01T19:52:47Z</time>
  <course>356.51</course>
  <speed>0.022360679774997897</speed>
  <fix>3d</fix>
</trkpt>
<trkpt lat="-35.3629375" lon="149.1650845">
  <ele>656.7</ele>
  <time>2026-09-01T19:52:47Z</time>
  <course>343.9</course>
  <speed>0.01</speed>
  <fix>3d</fix>
</trkpt>
<trkpt lat="-35.3629378" lon="149.1650847">
  <ele>657.49</ele>
  <time>2026-09-01T19:52:47Z</time>
  <course>356.51</course>
  <speed>0.022360679774997897</speed>
  <fix>3d</fix>
</trkpt>
<trkpt lat="-35.3629375" lon="149.1650845">
  <ele>656.7</ele>
  <time>2026-09-01T19:52:47Z</time>
  <course>343.9</course>
  <speed>0.01</speed>
  <fix>3d</fix>
</trkpt>
<trkpt lat="-35.3629377" lon="149.1650847">
  <ele>657.74</ele>
  <time>2026-09-01T19:52:47Z</time>
  <course>356.5</course>
  <speed>0.022360679774997897</speed>
  <fix>3d</fix>
</trkpt>
<trkpt lat="-35.3629375" lon="149.1650845">
  <ele>657.2</ele>
  <time>2026-09-01T19:52:47Z</time>
  <course>342.05</course>
  <speed>0.01</speed>
  <fix>3d</fix>
</trkpt>
<trkpt lat="-35.3629377" lon="149.1650847">
  <ele>657.99</ele>
  <time>2026-09-01T19:52:47Z</time>
  <course>356.48</course>
  <speed>0.022360679774997897</speed>
  <fix>3d</fix>
</trkpt>
<trkpt lat="-35.3629375" lon="149.1650845">
  <ele>657.2</ele>
  <time>2026-09-01T19:52:47Z</time>
  <course>342.05</course>
  <speed>0.01</speed>
  <fix>3d</fix>
</trkpt>
<trkpt lat="-35.3629377" lon="149.1650847">
  <ele>658.23</ele>
  <time>2026-09-01T19:52:47Z</time>
  <course>356.47</course>
  <speed>0.022360679774997897</speed>
  <fix>3d</fix>
</trkpt>
<trkpt lat="-35.3629375" lon="149.1650845">
  <ele>657.7</ele>
  <time>2026-09-01T19:52:47Z</time>
  <course>341.23</course>
  <speed>0.01</speed>
  <fix>3d</fix>
</trkpt>
<trkpt lat="-35.3629377" lon="149.1650847">
  <ele>658.49</ele>
  <time>2026-09-01T19:52:47Z</time>
  <course>356.47</course>
  <speed>0.022360679774997897</speed>
  <fix>3d</fix>
</trkpt>
<trkpt lat="-35.3629375" lon="149.1650845">
  <ele>657.7</ele>
  <time>2026-09-01T19:52:47Z</time>
  <course>341.23</course>
  <speed>0.01</speed>
  <fix>3d</fix>
</trkpt>
<trkpt lat="-35.3629377" lon="149.1650847">
  <ele>658.74</ele>
  <time>2026-09-01T19:52:47Z</time>
  <course>356.48</course>
  <speed>0.022360679774997897</speed>
  <fix>3d</fix>
</trkpt>
<trkpt lat="-35.3629375" lon="149.1650845">
  <ele>658.2</ele>
  <time>2026-09-01T19:52:47Z</time>
  <course>339.61</course>
  <speed>0.01</speed>
  <fix>3d</fix>
</trkpt>
<trkpt lat="-35.3629377" lon="149.1650847">
  <ele>658.99</ele>
  <time>2026-09-01T19:52:47Z</time>
  <course>356.5</course>
  <speed>0.022360679774997897</speed>
  <fix>3d</fix>
</trkpt>
<trkpt lat="-35.3629375" lon="149.1650845">
  <ele>658.2</ele>
  <time>2026-09-01T19:52:47Z</time>
  <course>339.61</course>
  <speed>0.01</speed>
  <fix>3d</fix>
</trkpt>
<trkpt lat="-35.3629377" lon="149.1650847">
  <ele>659.24</ele>
  <time>2026-09-01T19:52:47Z</time>
  <course>356.51</course>
  <speed>0.022360679774997897</speed>
  <fix>3d</fix>
</trkpt>
<trkpt lat="-35.3629375" lon="149.1650845">
  <ele>658.7</ele>
  <time>2026-09-01T19:52:47Z</time>
  <course>334.68</course>
  <speed>0.0</speed>
  <fix>3d</fix>
</trkpt>
<trkpt lat="-35.3629377" lon="149.1650847">
  <ele>659.49</ele>
  <time>2026-09-01T19:52:47Z</time>
  <course>356.52</course>
  <speed>0.022360679774997897</speed>
  <fix>3d</fix>
</trkpt>
<trkpt lat="-35.3629375" lon="149.1650845">
  <ele>658.7</ele>
  <time>2026-09-01T19:52:47Z</time>
  <course>334.68</course>
  <speed>0.0</speed>
  <fix>3d</fix>
</trkpt>
<trkpt lat="-35.3629377" lon="149.1650847">
  <ele>659.75</ele>
  <time>2026-09-01T19:52:47Z</time>
  <course>356.52</course>
  <speed>0.022360679774997897</speed>
  <fix>3d</fix>
</trkpt>
<trkpt lat="-35.3629375" lon="149.1650845">
  <ele>659.2</ele>
  <time>2026-09-01T19:52:47Z</time>
  <course>325.85</course>
  <speed>0.0</speed>
  <fix>3d</fix>
</trkpt>
<trkpt lat="-35.3629377" lon="149.1650847">
  <ele>659.99</ele>
  <time>2026-09-01T19:52:47Z</time>
  <course>356.51</course>
  <speed>0.022360679774997897</speed>
  <fix>3d</fix>
</trkpt>
<trkpt lat="-35.3629375" lon="149.1650845">
  <ele>659.2</ele>
  <time>2026-09-01T19:52:47Z</time>
  <course>325.85</course>
  <speed>0.0</speed>
  <fix>3d</fix>
</trkpt>
<trkpt lat="-35.3629377" lon="149.1650847">
  <ele>660.24</ele>
  <time>2026-09-01T19:52:47Z</time>
  <course>356.5</course>
  <speed>0.022360679774997897</speed>
  <fix>3d</fix>
</trkpt>
<trkpt lat="-35.3629375" lon="149.1650845">
  <ele>659.7</ele>
  <time>2026-09-01T19:52:47Z</time>
  <course>316.51</course>
  <speed>0.0</speed>
  <fix>3d</fix>
</trkpt>
<trkpt lat="-35.3629377" lon="149.1650847">
  <ele>660.49</ele>
  <time>2026-09-01T19:52:47Z</time>
  <course>356.48</course>
  <speed>0.022360679774997897</speed>
  <fix>3d</fix>
</trkpt>
<trkpt lat="-35.3629375" lon="149.1650845">
  <ele>659.7</ele>
  <time>2026-09-01T19:52:47Z</time>
  <course>316.51</course>
  <speed>0.0</speed>
  <fix>3d</fix>
</trkpt>
<trkpt lat="-35.3629377" lon="149.1650847">
  <ele>660.75</ele>
  <time>2026-09-01T19:52:47Z</time>
  <course>356.46</course>
  <speed>0.022360679774997897</speed>
  <fix>3d</fix>
</trkpt>
<trkpt lat="-35.3629375" lon="149.1650845">
  <ele>660.2</ele>
  <time>2026-09-01T19:52:47Z</time>
  <course>309.35</course>
  <speed>0.0</speed>
  <fix>3d</fix>
</trkpt>
<trkpt lat="-35.3629377" lon="149.1650847">
  <ele>660.99</ele>
  <time>2026-09-01T19:52:47Z</time>
  <course>356.45</course>
  <speed>0.0282842712474619</speed>
  <fix>3d</fix>
</trkpt>
<trkpt lat="-35.3629375" lon="149.1650845">
  <ele>660.2</ele>
  <time>2026-09-01T19:52:47Z</time>
  <course>309.35</course>
  <speed>0.0</speed>
  <fix>3d</fix>
</trkpt>
<trkpt lat="-35.3629377" lon="149.1650846">
  <ele>661.24</ele>
  <time>2026-09-01T19:52:47Z</time>
  <course>356.45</course>
  <speed>0.0282842712474619</speed>
  <fix>3d</fix>
</trkpt>
<trkpt lat="-35.3629375" lon="149.1650844">
  <ele>660.7</ele>
  <time>2026-09-01T19:52:47Z</time>
  <course>299.76</course>
  <speed>0.0</speed>
  <fix>3d</fix>
</trkpt>
<trkpt lat="-35.3629377" lon="149.1650846">
  <ele>661.49</ele>
  <time>2026-09-01T19:52:47Z</time>
  <course>356.45</course>
  <speed>0.022360679774997897</speed>
  <fix>3d</fix>
</trkpt>
<trkpt lat="-35.3629375" lon="149.1650844">
  <ele>660.7</ele>
  <time>2026-09-01T19:52:47Z</time>
  <course>299.76</course>
  <speed>0.0</speed>
  <fix>3d</fix>
</trkpt>
<trkpt lat="-35.3629377" lon="149.1650846">
  <ele>661.74</ele>
  <time>2026-09-01T19:52:47Z</time>
  <course>356.46</course>
  <speed>0.022360679774997897</speed>
  <fix>3d</fix>
</trkpt>
<trkpt lat="-35.3629375" lon="149.1650843">
  <ele>661.19</ele>
  <time>2026-09-01T19:52:47Z</time>
  <course>288.52</course>
  <speed>0.0</speed>
  <fix>3d</fix>
</trkpt>
<trkpt lat="-35.3629377" lon="149.1650846">
  <ele>661.99</ele>
  <time>2026-09-01T19:52:47Z</time>
  <course>356.48</course>
  <speed>0.022360679774997897</speed>
  <fix>3d</fix>
</trkpt>
<trkpt lat="-35.3629375" lon="149.1650843">
  <ele>661.19</ele>
  <time>2026-09-01T19:52:47Z</time>
  <course>288.52</course>
  <speed>0.0</speed>
  <fix>3d</fix>
</trkpt>
<trkpt lat="-35.3629377" lon="149.1650846">
  <ele>662.24</ele>
  <time>2026-09-01T19:52:47Z</time>
  <course>356.48</course>
  <speed>0.022360679774997897</speed>
  <fix>3d</fix>
</trkpt>
<trkpt lat="-35.3629375" lon="149.1650843">
  <ele>661.69</ele>
  <time>2026-09-01T19:52:47Z</time>
  <course>282.27</course>
  <speed>0.0</speed>
  <fix>3d</fix>
</trkpt>
<trkpt lat="-35.3629377" lon="149.1650846">
  <ele>662.49</ele>
  <time>2026-09-01T19:52:47Z</time>
  <course>356.47</course>
  <speed>0.022360679774997897</speed>
  <fix>3d</fix>
</trkpt>
<trkpt lat="-35.3629375" lon="149.1650843">
  <ele>661.69</ele>
  <time>2026-09-01T19:52:47Z</time>
  <course>282.27</course>
  <speed>0.0</speed>
  <fix>3d</fix>
</trkpt>
<trkpt lat="-35.3629377" lon="149.1650846">
  <ele>662.74</ele>
  <time>2026-09-01T19:52:47Z</time>
  <course>356.45</course>
  <speed>0.022360679774997897</speed>
  <fix>3d</fix>
</trkpt>
<trkpt lat="-35.3629375" lon="149.1650843">
  <ele>662.19</ele>
  <time>2026-09-01T19:52:47Z</time>
  <course>279.21</course>
  <speed>0.0</speed>
  <fix>3d</fix>
</trkpt>
<trkpt lat="-35.3629377" lon="149.1650846">
  <ele>662.99</ele>
  <time>2026-09-01T19:52:47Z</time>
  <course>356.43</course>
  <speed>0.022360679774997897</speed>
  <fix>3d</fix>
</trkpt>
<trkpt lat="-35.3629375" lon="149.1650843">
  <ele>662.19</ele>
  <time>2026-09-01T19:52:47Z</time>
  <course>279.21</course>
  <speed>0.0</speed>
  <fix>3d</fix>
</trkpt>
<trkpt lat="-35.3629377" lon="149.1650846">
  <ele>663.24</ele>
  <time>2026-09-01T19:52:47Z</time>
  <course>356.42</course>
  <speed>0.022360679774997897</speed>
  <fix>3d</fix>
</trkpt>
<trkpt lat="-35.3629375" lon="149.1650843">
  <ele>662.69</ele>
  <time>2026-09-01T19:52:47Z</time>
  <course>277.96</course>
  <speed>0.0</speed>
  <fix>3d</fix>
</trkpt>
<trkpt lat="-35.3629377" lon="149.1650846">
  <ele>663.5</ele>
  <time>2026-09-01T19:52:47Z</time>
  <course>356.4</course>
  <speed>0.022360679774997897</speed>
  <fix>3d</fix>
</trkpt>
<trkpt lat="-35.3629375" lon="149.1650843">
  <ele>662.69</ele>
  <time>2026-09-01T19:52:47Z</time>
  <course>277.96</course>
  <speed>0.0</speed>
  <fix>3d</fix>
</trkpt>
<trkpt lat="-35.3629377" lon="149.1650846">
  <ele>663.75</ele>
  <time>2026-09-01T19:52:47Z</time>
  <course>356.41</course>
  <speed>0.022360679774997897</speed>
  <fix>3d</fix>
</trkpt>
<trkpt lat="-35.3629375" lon="149.1650843">
  <ele>663.19</ele>
  <time>2026-09-01T19:52:47Z</time>
  <course>282.35</course>
  <speed>0.0</speed>
  <fix>3d</fix>
</trkpt>
<trkpt lat="-35.3629377" lon="149.1650846">
  <ele>663.99</ele>
  <time>2026-09-01T19:52:47Z</time>
  <course>356.42</course>
  <speed>0.022360679774997897</speed>
  <fix>3d</fix>
</trkpt>
<trkpt lat="-35.3629375" lon="149.1650843">
  <ele>663.19</ele>
  <time>2026-09-01T19:52:47Z</time>
  <course>282.35</course>
  <speed>0.0</speed>
  <fix>3d</fix>
</trkpt>
<trkpt lat="-35.3629377" lon="149.1650846">
  <ele>664.24</ele>
  <time>2026-09-01T19:52:47Z</time>
  <course>356.45</course>
  <speed>0.022360679774997897</speed>
  <fix>3d</fix>
</trkpt>
<trkpt lat="-35.3629375" lon="149.1650843">
  <ele>663.69</ele>
  <time>2026-09-01T19:52:47Z</time>
  <course>297.2</course>
  <speed>0.0</speed>
  <fix>3d</fix>
</trkpt>
<trkpt lat="-35.3629377" lon="149.1650846">
  <ele>664.49</ele>
  <time>2026-09-01T19:52:47Z</time>
  <course>356.47</course>
  <speed>0.022360679774997897</speed>
  <fix>3d</fix>
</trkpt>
<trkpt lat="-35.3629375" lon="149.1650843">
  <ele>663.69</ele>
  <time>2026-09-01T19:52:47Z</time>
  <course>297.2</course>
  <speed>0.0</speed>
  <fix>3d</fix>
</trkpt>
<trkpt lat="-35.3629377" lon="149.1650846">
  <ele>664.75</ele>
  <time>2026-09-01T19:52:47Z</time>
  <course>356.5</course>
  <speed>0.022360679774997897</speed>
  <fix>3d</fix>
</trkpt>
<trkpt lat="-35.3629375" lon="149.1650843">
  <ele>664.19</ele>
  <time>2026-09-01T19:52:47Z</time>
  <course>307.33</course>
  <speed>0.0</speed>
  <fix>3d</fix>
</trkpt>
<trkpt lat="-35.3629377" lon="149.1650846">
  <ele>664.99</ele>
  <time>2026-09-01T19:52:47Z</time>
  <course>356.51</course>
  <speed>0.022360679774997897</speed>
  <fix>3d</fix>
</trkpt>
<trkpt lat="-35.3629375" lon="149.1650843">
  <ele>664.19</ele>
  <time>2026-09-01T19:52:47Z</time>
  <course>307.33</course>
  <speed>0.0</speed>
  <fix>3d</fix>
</trkpt>
<trkpt lat="-35.3629377" lon="149.1650846">
  <ele>665.25</ele>
  <time>2026-09-01T19:52:47Z</time>
  <course>356.51</course>
  <speed>0.022360679774997897</speed>
  <fix>3d</fix>
</trkpt>
<trkpt lat="-35.3629375" lon="149.1650843">
  <ele>664.69</ele>
  <time>2026-09-01T19:52:47Z</time>
  <course>295.21</course>
  <speed>0.0</speed>
  <fix>3d</fix>
</trkpt>
<trkpt lat="-35.3629377" lon="149.1650846">
  <ele>665.5</ele>
  <time>2026-09-01T19:52:47Z</time>
  <course>356.51</course>
  <speed>0.022360679774997897</speed>
  <fix>3d</fix>
</trkpt>
<trkpt lat="-35.3629375" lon="149.1650843">
  <ele>664.69</ele>
  <time>2026-09-01T19:52:47Z</time>
  <course>295.21</course>
  <speed>0.0</speed>
  <fix>3d</fix>
</trkpt>
<trkpt lat="-35.3629377" lon="149.1650846">
  <ele>665.75</ele>
  <time>2026-09-01T19:52:47Z</time>
  <course>356.49</course>
  <speed>0.022360679774997897</speed>
  <fix>3d</fix>
</trkpt>
<trkpt lat="-35.3629375" lon="149.1650843">
  <ele>665.19</ele>
  <time>2026-09-01T19:52:47Z</time>
  <course>272.62</course>
  <speed>0.0</speed>
  <fix>3d</fix>
</trkpt>
<trkpt lat="-35.3629377" lon="149.1650846">
  <ele>666.0</ele>
  <time>2026-09-01T19:52:47Z</time>
  <course>356.48</course>
  <speed>0.022360679774997897</speed>
  <fix>3d</fix>
</trkpt>
<trkpt lat="-35.3629375" lon="149.1650843">
  <ele>665.19</ele>
  <time>2026-09-01T19:52:47Z</time>
  <course>272.62</course>
  <speed>0.0</speed>
  <fix>3d</fix>
</trkpt>
<trkpt lat="-35.3629377" lon="149.1650846">
  <ele>666.25</ele>
  <time>2026-09-01T19:52:47Z</time>
  <course>356.47</course>
  <speed>0.022360679774997897</speed>
  <fix>3d</fix>
</trkpt>
<trkpt lat="-35.3629375" lon="149.1650843">
  <ele>665.69</ele>
  <time>2026-09-01T19:52:47Z</time>
  <course>250.5</course>
  <speed>0.0</speed>
  <fix>3d</fix>
</trkpt>
<trkpt lat="-35.3629377" lon="149.1650846">
  <ele>666.5</ele>
  <time>2026-09-01T19:52:47Z</time>
  <course>356.47</course>
  <speed>0.0282842712474619</speed>
  <fix>3d</fix>
</trkpt>
<trkpt lat="-35.3629375" lon="149.1650843">
  <ele>665.69</ele>
  <time>2026-09-01T19:52:47Z</time>
  <course>250.5</course>
  <speed>0.0</speed>
  <fix>3d</fix>
</trkpt>
<trkpt lat="-35.3629377" lon="149.1650846">
  <ele>666.75</ele>
  <time>2026-09-01T19:52:47Z</time>
  <course>356.47</course>
  <speed>0.0282842712474619</speed>
  <fix>3d</fix>
</trkpt>
<trkpt lat="-35.3629375" lon="149.1650843">
  <ele>666.19</ele>
  <time>2026-09-01T19:52:47Z</time>
  <course>238.08</course>
  <speed>0.0</speed>
  <fix>3d</fix>
</trkpt>
<trkpt lat="-35.3629377" lon="149.1650846">
  <ele>667.0</ele>
  <time>2026-09-01T19:52:47Z</time>
  <course>356.48</course>
  <speed>0.0282842712474619</speed>
  <fix>3d</fix>
</trkpt>
<trkpt lat="-35.3629375" lon="149.1650843">
  <ele>666.19</ele>
  <time>2026-09-01T19:52:47Z</time>
  <course>238.08</course>
  <speed>0.0</speed>
  <fix>3d</fix>
</trkpt>
<trkpt lat="-35.3629377" lon="149.1650846">
  <ele>667.25</ele>
  <time>2026-09-01T19:52:47Z</time>
  <course>356.49</course>
  <speed>0.0282842712474619</speed>
  <fix>3d</fix>
</trkpt>
<trkpt lat="-35.3629375" lon="149.1650843">
  <ele>666.68</ele>
  <time>2026-09-01T19:52:47Z</time>
  <course>234.65</course>
  <speed>0.0</speed>
  <fix>3d</fix>
</trkpt>
<trkpt lat="-35.3629377" lon="149.1650846">
  <ele>667.5</ele>
  <time>2026-09-01T19:52:47Z</time>
  <course>356.5</course>
  <speed>0.0282842712474619</speed>
  <fix>3d</fix>
</trkpt>
<trkpt lat="-35.3629375" lon="149.1650843">
  <ele>666.68</ele>
  <time>2026-09-01T19:52:47Z</time>
  <course>234.65</course>
  <speed>0.0</speed>
  <fix>3d</fix>
</trkpt>
<trkpt lat="-35.3629377" lon="149.1650846">
  <ele>667.74</ele>
  <time>2026-09-01T19:52:47Z</time>
  <course>356.51</course>
  <speed>0.022360679774997897</speed>
  <fix>3d</fix>
</trkpt>
<trkpt lat="-35.3629375" lon="149.1650843">
  <ele>667.18</ele>
  <time>2026-09-01T19:52:47Z</time>
  <course>236.95</course>
  <speed>0.0</speed>
  <fix>3d</fix>
</trkpt>
<trkpt lat="-35.3629377" lon="149.1650846">
  <ele>667.99</ele>
  <time>2026-09-01T19:52:47Z</time>
  <course>356.53</course>
  <speed>0.022360679774997897</speed>
  <fix>3d</fix>
</trkpt>
<trkpt lat="-35.3629375" lon="149.1650843">
  <ele>667.18</ele>
  <time>2026-09-01T19:52:47Z</time>
  <course>236.95</course>
  <speed>0.0</speed>
  <fix>3d</fix>
</trkpt>
<trkpt lat="-35.3629377" lon="149.1650846">
  <ele>668.24</ele>
  <time>2026-09-01T19:52:47Z</time>
  <course>356.54</course>
  <speed>0.022360679774997897</speed>
  <fix>3d</fix>
</trkpt>
<trkpt lat="-35.3629375" lon="149.1650843">
  <ele>667.68</ele>
  <time>2026-09-01T19:52:47Z</time>
  <course>247.13</course>
  <speed>0.0</speed>
  <fix>3d</fix>
</trkpt>
<trkpt lat="-35.3629377" lon="149.1650846">
  <ele>668.49</ele>
  <time>2026-09-01T19:52:47Z</time>
  <course>356.54</course>
  <speed>0.0282842712474619</speed>
  <fix>3d</fix>
</trkpt>
<trkpt lat="-35.3629375" lon="149.1650843">
  <ele>667.68</ele>
  <time>2026-09-01T19:52:47Z</time>
  <course>247.13</course>
  <speed>0.0</speed>
  <fix>3d</fix>
</trkpt>
<trkpt lat="-35.3629377" lon="149.1650846">
  <ele>668.74</ele>
  <time>2026-09-01T19:52:47Z</time>
  <course>356.54</course>
  <speed>0.0282842712474619</speed>
  <fix>3d</fix>
</trkpt>
<trkpt lat="-35.3629375" lon="149.1650843">
  <ele>668.18</ele>
  <time>2026-09-01T19:52:47Z</time>
  <course>247.95</course>
  <speed>0.0</speed>
  <fix>3d</fix>
</trkpt>
<trkpt lat="-35.3629377" lon="149.1650845">
  <ele>668.99</ele>
  <time>2026-09-01T19:52:47Z</time>
  <course>356.54</course>
  <speed>0.0282842712474619</speed>
  <fix>3d</fix>
</trkpt>
<trkpt lat="-35.3629375" lon="149.1650843">
  <ele>668.18</ele>
  <time>2026-09-01T19:52:47Z</time>
  <course>247.95</course>
  <speed>0.0</speed>
  <fix>3d</fix>
</trkpt>
<trkpt lat="-35.3629377" lon="149.1650845">
  <ele>669.24</ele>
  <time>2026-09-01T19:52:47Z</time>
  <course>356.53</course>
  <speed>0.0282842712474619</speed>
  <fix>3d</fix>
</trkpt>
<trkpt lat="-35.3629375" lon="149.1650843">
  <ele>668.67</ele>
  <time>2026-09-01T19:52:47Z</time>
  <course>235.32</course>
  <speed>0.0</speed>
  <fix>3d</fix>
</trkpt>
<trkpt lat="-35.3629377" lon="149.1650845">
  <ele>669.49</ele>
  <time>2026-09-01T19:52:47Z</time>
  <course>356.52</course>
  <speed>0.0282842712474619</speed>
  <fix>3d</fix>
</trkpt>
<trkpt lat="-35.3629375" lon="149.1650843">
  <ele>668.67</ele>
  <time>2026-09-01T19:52:47Z</time>
  <course>235.32</course>
  <speed>0.0</speed>
  <fix>3d</fix>
</trkpt>
<trkpt lat="-35.3629377" lon="149.1650845">
  <ele>669.74</ele>
  <time>2026-09-01T19:52:47Z</time>
  <course>356.52</course>
  <speed>0.0282842712474619</speed>
  <fix>3d</fix>
</trkpt>
<trkpt lat="-35.3629375" lon="149.1650843">
  <ele>669.17</ele>
  <time>2026-09-01T19:52:47Z</time>
  <course>224.61</course>
  <speed>0.0</speed>
  <fix>3d</fix>
</trkpt>
<trkpt lat="-35.3629377" lon="149.1650845">
  <ele>669.99</ele>
  <time>2026-09-01T19:52:47Z</time>
  <course>356.52</course>
  <speed>0.0282842712474619</speed>
  <fix>3d</fix>
</trkpt>
<trkpt lat="-35.3629375" lon="149.1650843">
  <ele>669.17</ele>
  <time>2026-09-01T19:52:47Z</time>
  <course>224.61</course>
  <speed>0.0</speed>
  <fix>3d</fix>
</trkpt>
<trkpt lat="-35.3629377" lon="149.1650845">
  <ele>670.23</ele>
  <time>2026-09-01T19:52:47Z</time>
  <course>356.51</course>
  <speed>0.0282842712474619</speed>
  <fix>3d</fix>
</trkpt>
<trkpt lat="-35.3629375" lon="149.1650843">
  <ele>669.67</ele>
  <time>2026-09-01T19:52:47Z</time>
  <course>217.19</course>
  <speed>0.0</speed>
  <fix>3d</fix>
</trkpt>
<trkpt lat="-35.3629377" lon="149.1650845">
  <ele>670.48</ele>
  <time>2026-09-01T19:52:47Z</time>
  <course>356.51</course>
  <speed>0.0282842712474619</speed>
  <fix>3d</fix>
</trkpt>
<trkpt lat="-35.3629375" lon="149.1650843">
  <ele>669.67</ele>
  <time>2026-09-01T19:52:47Z</time>
  <course>217.19</course>
  <speed>0.0</speed>
  <fix>3d</fix>
</trkpt>
<trkpt lat="-35.3629377" lon="149.1650845">
  <ele>670.73</ele>
  <time>2026-09-01T19:52:47Z</time>
  <course>356.52</course>
  <speed>0.0282842712474619</speed>
  <fix>3d</fix>
</trkpt>
<trkpt lat="-35.3629375" lon="149.1650843">
  <ele>670.17</ele>
  <time>2026-09-01T19:52:47Z</time>
  <course>200.63</course>
  <speed>0.0</speed>
  <fix>3d</fix>
</trkpt>
<trkpt lat="-35.3629377" lon="149.1650845">
  <ele>670.98</ele>
  <time>2026-09-01T19:52:47Z</time>
  <course>356.54</course>
  <speed>0.0282842712474619</speed>
  <fix>3d</fix>
</trkpt>
<trkpt lat="-35.3629375" lon="149.1650843">
  <ele>670.17</ele>
  <time>2026-09-01T19:52:47Z</time>
  <course>200.63</course>
  <speed>0.0</speed>
  <fix>3d</fix>
</trkpt>
<trkpt lat="-35.3629377" lon="149.1650845">
  <ele>671.23</ele>
  <time>2026-09-01T19:52:47Z</time>
  <course>356.56</course>
  <speed>0.022360679774997897</speed>
  <fix>3d</fix>
</trkpt>
<trkpt lat="-35.3629375" lon="149.1650843">
  <ele>670.67</ele>
  <time>2026-09-01T19:52:47Z</time>
  <course>166.03</course>
  <speed>0.0</speed>
  <fix>3d</fix>
</trkpt>
<trkpt lat="-35.3629377" lon="149.1650845">
  <ele>671.48</ele>
  <time>2026-09-01T19:52:47Z</time>
  <course>356.57</course>
  <speed>0.022360679774997897</speed>
  <fix>3d</fix>
</trkpt>
<trkpt lat="-35.3629375" lon="149.1650843">
  <ele>670.67</ele>
  <time>2026-09-01T19:52:47Z</time>
  <course>166.03</course>
  <speed>0.0</speed>
  <fix>3d</fix>
</trkpt>
<trkpt lat="-35.3629377" lon="149.1650845">
  <ele>671.73</ele>
  <time>2026-09-01T19:52:47Z</time>
  <course>356.56</course>
  <speed>0.022360679774997897</speed>
  <fix>3d</fix>
</trkpt>
<trkpt lat="-35.3629375" lon="149.1650843">
  <ele>671.17</ele>
  <time>2026-09-01T19:52:47Z</time>
  <course>149.66</course>
  <speed>0.0</speed>
  <fix>3d</fix>
</trkpt>
<trkpt lat="-35.3629377" lon="149.1650845">
  <ele>671.98</ele>
  <time>2026-09-01T19:52:47Z</time>
  <course>356.56</course>
  <speed>0.022360679774997897</speed>
  <fix>3d</fix>
</trkpt>
<trkpt lat="-35.3629375" lon="149.1650843">
  <ele>671.17</ele>
  <time>2026-09-01T19:52:47Z</time>
  <course>149.66</course>
  <speed>0.0</speed>
  <fix>3d</fix>
</trkpt>
<trkpt lat="-35.3629377" lon="149.1650845">
  <ele>672.23</ele>
  <time>2026-09-01T19:52:47Z</time>
  <course>356.56</course>
  <speed>0.022360679774997897</speed>
  <fix>3d</fix>
</trkpt>
<trkpt lat="-35.3629375" lon="149.1650843">
  <ele>671.67</ele>
  <time>2026-09-01T19:52:47Z</time>
  <course>170.43</course>
  <speed>0.0</speed>
  <fix>3d</fix>
</trkpt>
<trkpt lat="-35.3629377" lon="149.1650845">
  <ele>672.48</ele>
  <time>2026-09-01T19:52:47Z</time>
  <course>356.55</course>
  <speed>0.022360679774997897</speed>
  <fix>3d</fix>
</trkpt>
<trkpt lat="-35.3629375" lon="149.1650843">
  <ele>671.67</ele>
  <time>2026-09-01T19:52:47Z</time>
  <course>170.43</course>
  <speed>0.0</speed>
  <fix>3d</fix>
</trkpt>
<trkpt lat="-35.3629377" lon="149.1650845">
  <ele>672.73</ele>
  <time>2026-09-01T19:52:47Z</time>
  <course>356.56</course>
  <speed>0.022360679774997897</speed>
  <fix>3d</fix>
</trkpt>
<trkpt lat="-35.3629375" lon="149.1650843">
  <ele>672.17</ele>
  <time>2026-09-01T19:52:47Z</time>
  <course>281.79</course>
  <speed>0.0</speed>
  <fix>3d</fix>
</trkpt>
<trkpt lat="-35.3629377" lon="149.1650845">
  <ele>672.98</ele>
  <time>2026-09-01T19:52:47Z</time>
  <course>356.56</course>
  <speed>0.022360679774997897</speed>
  <fix>3d</fix>
</trkpt>
<trkpt lat="-35.3629375" lon="149.1650843">
  <ele>672.17</ele>
  <time>2026-09-01T19:52:47Z</time>
  <course>281.79</course>
  <speed>0.0</speed>
  <fix>3d</fix>
</trkpt>
<trkpt lat="-35.3629377" lon="149.1650845">
  <ele>673.23</ele>
  <time>2026-09-01T19:52:47Z</time>
  <course>356.56</course>
  <speed>0.022360679774997897</speed>
  <fix>3d</fix>
</trkpt>
<trkpt lat="-35.3629375" lon="149.1650843">
  <ele>672.67</ele>
  <time>2026-09-01T19:52:47Z</time>
  <course>306.01</course>
  <speed>0.0</speed>
  <fix>3d</fix>
</trkpt>
<trkpt lat="-35.3629377" lon="149.1650845">
  <ele>673.48</ele>
  <time>2026-09-01T19:52:47Z</time>
  <course>356.55</course>
  <speed>0.022360679774997897</speed>
  <fix>3d</fix>
</trkpt>
<trkpt lat="-35.3629375" lon="149.1650843">
  <ele>672.67</ele>
  <time>2026-09-01T19:52:47Z</time>
  <course>306.01</course>
  <speed>0.0</speed>
  <fix>3d</fix>
</trkpt>
<trkpt lat="-35.3629377" lon="149.1650845">
  <ele>673.73</ele>
  <time>2026-09-01T19:52:47Z</time>
  <course>356.55</course>
  <speed>0.022360679774997897</speed>
  <fix>3d</fix>
</trkpt>
<trkpt lat="-35.3629375" lon="149.1650843">
  <ele>673.18</ele>
  <time>2026-09-01T19:52:47Z</time>
  <course>313.75</course>
  <speed>0.0</speed>
  <fix>3d</fix>
</trkpt>
<trkpt lat="-35.3629377" lon="149.1650845">
  <ele>673.99</ele>
  <time>2026-09-01T19:52:47Z</time>
  <course>356.54</course>
  <speed>0.022360679774997897</speed>
  <fix>3d</fix>
</trkpt>
<trkpt lat="-35.3629375" lon="149.1650843">
  <ele>673.18</ele>
  <time>2026-09-01T19:52:47Z</time>
  <course>313.75</course>
  <speed>0.0</speed>
  <fix>3d</fix>
</trkpt>
<trkpt lat="-35.3629377" lon="149.1650845">
  <ele>674.24</ele>
  <time>2026-09-01T19:52:47Z</time>
  <course>356.54</course>
  <speed>0.022360679774997897</speed>
  <fix>3d</fix>
</trkpt>
<trkpt lat="-35.3629375" lon="149.1650843">
  <ele>673.68</ele>
  <time>2026-09-01T19:52:47Z</time>
  <course>322.19</course>
  <speed>0.0</speed>
  <fix>3d</fix>
</trkpt>
<trkpt lat="-35.3629377" lon="149.1650845">
  <ele>674.49</ele>
  <time>2026-09-01T19:52:47Z</time>
  <course>356.53</course>
  <speed>0.022360679774997897</speed>
  <fix>3d</fix>
</trkpt>
<trkpt lat="-35.3629375" lon="149.1650843">
  <ele>673.68</ele>
  <time>2026-09-01T19:52:47Z</time>
  <course>322.19</course>
  <speed>0.0</speed>
  <fix>3d</fix>
</trkpt>
<trkpt lat="-35.3629377" lon="149.1650845">
  <ele>674.74</ele>
  <time>2026-09-01T19:52:47Z</time>
  <course>356.52</course>
  <speed>0.022360679774997897</speed>
  <fix>3d</fix>
</trkpt>
<trkpt lat="-35.3629375" lon="149.1650843">
  <ele>674.18</ele>
  <time>2026-09-01T19:52:47Z</time>
  <course>337.59</course>
  <speed>0.0</speed>
  <fix>3d</fix>
</trkpt>
<trkpt lat="-35.3629377" lon="149.1650845">
  <ele>674.99</ele>
  <time>2026-09-01T19:52:47Z</time>
  <course>356.53</course>
  <speed>0.022360679774997897</speed>
  <fix>3d</fix>
</trkpt>
<trkpt lat="-35.3629375" lon="149.1650843">
  <ele>674.18</ele>
  <time>2026-09-01T19:52:47Z</time>
  <course>337.59</course>
  <speed>0.0</speed>
  <fix>3d</fix>
</trkpt>
<trkpt lat="-35.3629377" lon="149.1650845">
  <ele>675.24</ele>
  <time>2026-09-01T19:52:47Z</time>
  <course>356.55</course>
  <speed>0.022360679774997897</speed>
  <fix>3d</fix>
</trkpt>
<trkpt lat="-35.3629375" lon="149.1650843">
  <ele>674.68</ele>
  <time>2026-09-01T19:52:47Z</time>
  <course>330.98</course>
  <speed>0.0</speed>
  <fix>3d</fix>
</trkpt>
<trkpt lat="-35.3629377" lon="149.1650845">
  <ele>675.49</ele>
  <time>2026-09-01T19:52:47Z</time>
  <course>356.56</course>
  <speed>0.022360679774997897</speed>
  <fix>3d</fix>
</trkpt>
<trkpt lat="-35.3629375" lon="149.1650843">
  <ele>674.68</ele>
  <time>2026-09-01T19:52:47Z</time>
  <course>330.98</course>
  <speed>0.0</speed>
  <fix>3d</fix>
</trkpt>
<trkpt lat="-35.3629377" lon="149.1650845">
  <ele>675.74</ele>
  <time>2026-09-01T19:52:47Z</time>
  <course>356.56</course>
  <speed>0.022360679774997897</speed>
  <fix>3d</fix>
</trkpt>
<trkpt lat="-35.3629375" lon="149.1650843">
  <ele>675.19</ele>
  <time>2026-09-01T19:52:47Z</time>
  <course>230.15</course>
  <speed>0.0</speed>
  <fix>3d</fix>
</trkpt>
<trkpt lat="-35.3629377" lon="149.1650845">
  <ele>675.99</ele>
  <time>2026-09-01T19:52:47Z</time>
  <course>356.56</course>
  <speed>0.022360679774997897</speed>
  <fix>3d</fix>
</trkpt>
<trkpt lat="-35.3629375" lon="149.1650843">
  <ele>675.19</ele>
  <time>2026-09-01T19:52:47Z</time>
  <course>230.15</course>
  <speed>0.0</speed>
  <fix>3d</fix>
</trkpt>
<trkpt lat="-35.3629377" lon="149.1650845">
  <ele>676.24</ele>
  <time>2026-09-01T19:52:47Z</time>
  <course>356.55</course>
  <speed>0.022360679774997897</speed>
  <fix>3d</fix>
</trkpt>
<trkpt lat="-35.3629375" lon="149.1650843">
  <ele>675.69</ele>
  <time>2026-09-01T19:52:47Z</time>
  <course>212.14</course>
  <speed>0.0</speed>
  <fix>3d</fix>
</trkpt>
<trkpt lat="-35.3629377" lon="149.1650845">
  <ele>676.5</ele>
  <time>2026-09-01T19:52:47Z</time>
  <course>356.55</course>
  <speed>0.022360679774997897</speed>
  <fix>3d</fix>
</trkpt>
<trkpt lat="-35.3629375" lon="149.1650843">
  <ele>675.69</ele>
  <time>2026-09-01T19:52:47Z</time>
  <course>212.14</course>
  <speed>0.0</speed>
  <fix>3d</fix>
</trkpt>
<trkpt lat="-35.3629377" lon="149.1650845">
  <ele>676.75</ele>
  <time>2026-09-01T19:52:47Z</time>
  <course>356.55</course>
  <speed>0.022360679774997897</speed>
  <fix>3d</fix>
</trkpt>
<trkpt lat="-35.3629375" lon="149.1650843">
  <ele>676.18</ele>
  <time>2026-09-01T19:52:47Z</time>
  <course>202.16</course>
  <speed>0.0</speed>
  <fix>3d</fix>
</trkpt>
<trkpt lat="-35.3629377" lon="149.1650845">
  <ele>677.0</ele>
  <time>2026-09-01T19:52:47Z</time>
  <course>356.54</course>
  <speed>0.022360679774997897</speed>
  <fix>3d</fix>
</trkpt>
<trkpt lat="-35.3629375" lon="149.1650843">
  <ele>676.18</ele>
  <time>2026-09-01T19:52:47Z</time>
  <course>202.16</course>
  <speed>0.0</speed>
  <fix>3d</fix>
</trkpt>
<trkpt lat="-35.3629377" lon="149.1650845">
  <ele>677.25</ele>
  <time>2026-09-01T19:52:47Z</time>
  <course>356.54</course>
  <speed>0.0282842712474619</speed>
  <fix>3d</fix>
</trkpt>
<trkpt lat="-35.3629375" lon="149.1650843">
  <ele>676.68</ele>
  <time>2026-09-01T19:52:47Z</time>
  <course>184.28</course>
  <speed>0.0</speed>
  <fix>3d</fix>
</trkpt>
<trkpt lat="-35.3629377" lon="149.1650845">
  <ele>677.5</ele>
  <time>2026-09-01T19:52:47Z</time>
  <course>356.53</course>
  <speed>0.0282842712474619</speed>
  <fix>3d</fix>
</trkpt>
<trkpt lat="-35.3629375" lon="149.1650843">
  <ele>676.68</ele>
  <time>2026-09-01T19:52:47Z</time>
  <course>184.28</course>
  <speed>0.0</speed>
  <fix>3d</fix>
</trkpt>
<trkpt lat="-35.3629377" lon="149.1650845">
  <ele>677.75</ele>
  <time>2026-09-01T19:52:47Z</time>
  <course>356.52</course>
  <speed>0.0282842712474619</speed>
  <fix>3d</fix>
</trkpt>
<trkpt lat="-35.3629375" lon="149.1650843">
  <ele>677.18</ele>
  <time>2026-09-01T19:52:47Z</time>
  <course>159.48</course>
  <speed>0.0</speed>
  <fix>3d</fix>
</trkpt>
<trkpt lat="-35.3629377" lon="149.1650845">
  <ele>677.99</ele>
  <time>2026-09-01T19:52:47Z</time>
  <course>356.53</course>
  <speed>0.0282842712474619</speed>
  <fix>3d</fix>
</trkpt>
<trkpt lat="-35.3629375" lon="149.1650843">
  <ele>677.18</ele>
  <time>2026-09-01T19:52:47Z</time>
  <course>159.48</course>
  <speed>0.0</speed>
  <fix>3d</fix>
</trkpt>
<trkpt lat="-35.3629377" lon="149.1650845">
  <ele>678.24</ele>
  <time>2026-09-01T19:52:47Z</time>
  <course>356.54</course>
  <speed>0.0282842712474619</speed>
  <fix>3d</fix>
</trkpt>
<trkpt lat="-35.3629375" lon="149.1650843">
  <ele>677.68</ele>
  <time>2026-09-01T19:52:47Z</time>
  <course>148.91</course>
  <speed>0.0</speed>
  <fix>3d</fix>
</trkpt>
<trkpt lat="-35.3629377" lon="149.1650845">
  <ele>678.48</ele>
  <time>2026-09-01T19:52:47Z</time>
  <course>356.57</course>
  <speed>0.0282842712474619</speed>
  <fix>3d</fix>
</trkpt>
<trkpt lat="-35.3629375" lon="149.1650843">
  <ele>677.68</ele>
  <time>2026-09-01T19:52:47Z</time>
  <course>148.91</course>
  <speed>0.0</speed>
  <fix>3d</fix>
</trkpt>
<trkpt lat="-35.3629377" lon="149.1650845">
  <ele>678.73</ele>
  <time>2026-09-01T19:52:47Z</time>
  <course>356.59</course>
  <speed>0.0282842712474619</speed>
  <fix>3d</fix>
</trkpt>
<trkpt lat="-35.3629375" lon="149.1650843">
  <ele>678.18</ele>
  <time>2026-09-01T19:52:47Z</time>
  <course>160.03</course>
  <speed>0.0</speed>
  <fix>3d</fix>
</trkpt>
<trkpt lat="-35.3629377" lon="149.1650845">
  <ele>678.99</ele>
  <time>2026-09-01T19:52:47Z</time>
  <course>356.6</course>
  <speed>0.0282842712474619</speed>
  <fix>3d</fix>
</trkpt>
<trkpt lat="-35.3629375" lon="149.1650843">
  <ele>678.18</ele>
  <time>2026-09-01T19:52:47Z</time>
  <course>160.03</course>
  <speed>0.0</speed>
  <fix>3d</fix>
</trkpt>
<trkpt lat="-35.3629377" lon="149.1650845">
  <ele>679.24</ele>
  <time>2026-09-01T19:52:47Z</time>
  <course>356.6</course>
  <speed>0.0282842712474619</speed>
  <fix>3d</fix>
</trkpt>
<trkpt lat="-35.3629375" lon="149.1650843">
  <ele>678.68</ele>
  <time>2026-09-01T19:52:47Z</time>
  <course>181.09</course>
  <speed>0.0</speed>
  <fix>3d</fix>
</trkpt>
<trkpt lat="-35.3629377" lon="149.1650845">
  <ele>679.49</ele>
  <time>2026-09-01T19:52:47Z</time>
  <course>356.59</course>
  <speed>0.0282842712474619</speed>
  <fix>3d</fix>
</trkpt>
<trkpt lat="-35.3629375" lon="149.1650843">
  <ele>678.68</ele>
  <time>2026-09-01T19:52:47Z</time>
  <course>181.09</course>
  <speed>0.0</speed>
  <fix>3d</fix>
</trkpt>
<trkpt lat="-35.3629377" lon="149.1650845">
  <ele>679.74</ele>
  <time>2026-09-01T19:52:47Z</time>
  <course>356.57</course>
  <speed>0.0282842712474619</speed>
  <fix>3d</fix>
</trkpt>
<trkpt lat="-35.3629375" lon="149.1650843">
  <ele>679.17</ele>
  <time>2026-09-01T19:52:47Z</time>
  <course>193.01</course>
  <speed>0.0</speed>
  <fix>3d</fix>
</trkpt>
<trkpt lat="-35.3629377" lon="149.1650845">
  <ele>679.99</ele>
  <time>2026-09-01T19:52:47Z</time>
  <course>356.55</course>
  <speed>0.0282842712474619</speed>
  <fix>3d</fix>
</trkpt>
<trkpt lat="-35.3629375" lon="149.1650843">
  <ele>679.17</ele>
  <time>2026-09-01T19:52:47Z</time>
  <course>193.01</course>
  <speed>0.0</speed>
  <fix>3d</fix>
</trkpt>
<trkpt lat="-35.3629377" lon="149.1650845">
  <ele>680.24</ele>
  <time>2026-09-01T19:52:47Z</time>
  <course>356.54</course>
  <speed>0.0282842712474619</speed>
  <fix>3d</fix>
</trkpt>
<trkpt lat="-35.3629375" lon="149.1650843">
  <ele>679.67</ele>
  <time>2026-09-01T19:52:47Z</time>
  <course>197.97</course>
  <speed>0.0</speed>
  <fix>3d</fix>
</trkpt>
<trkpt lat="-35.3629377" lon="149.1650845">
  <ele>680.48</ele>
  <time>2026-09-01T19:52:47Z</time>
  <course>356.54</course>
  <speed>0.0282842712474619</speed>
  <fix>3d</fix>
</trkpt>
<trkpt lat="-35.3629375" lon="149.1650843">
  <ele>679.67</ele>
  <time>2026-09-01T19:52:47Z</time>
  <course>197.97</course>
  <speed>0.0</speed>
  <fix>3d</fix>
</trkpt>
<trkpt lat="-35.3629377" lon="149.1650845">
  <ele>680.74</ele>
  <time>2026-09-01T19:52:47Z</time>
  <course>356.54</course>
  <speed>0.022360679774997897</speed>
  <fix>3d</fix>
</trkpt>
<trkpt lat="-35.3629375" lon="149.1650843">
  <ele>680.17</ele>
  <time>2026-09-01T19:52:47Z</time>
  <course>201.17</course>
  <speed>0.0</speed>
  <fix>3d</fix>
</trkpt>
<trkpt lat="-35.3629377" lon="149.1650845">
  <ele>680.99</ele>
  <time>2026-09-01T19:52:47Z</time>
  <course>356.55</course>
  <speed>0.022360679774997897</speed>
  <fix>3d</fix>
</trkpt>
<trkpt lat="-35.3629375" lon="149.1650843">
  <ele>680.17</ele>
  <time>2026-09-01T19:52:47Z</time>
  <course>201.17</course>
  <speed>0.0</speed>
  <fix>3d</fix>
</trkpt>
<trkpt lat="-35.3629377" lon="149.1650845">
  <ele>681.24</ele>
  <time>2026-09-01T19:52:47Z</time>
  <course>356.55</course>
  <speed>0.022360679774997897</speed>
  <fix>3d</fix>
</trkpt>
<trkpt lat="-35.3629375" lon="149.1650843">
  <ele>680.67</ele>
  <time>2026-09-01T19:52:47Z</time>
  <course>200.65</course>
  <speed>0.0</speed>
  <fix>3d</fix>
</trkpt>
<trkpt lat="-35.3629377" lon="149.1650845">
  <ele>681.49</ele>
  <time>2026-09-01T19:52:47Z</time>
  <course>356.55</course>
  <speed>0.022360679774997897</speed>
  <fix>3d</fix>
</trkpt>
<trkpt lat="-35.3629375" lon="149.1650843">
  <ele>680.67</ele>
  <time>2026-09-01T19:52:47Z</time>
  <course>200.65</course>
  <speed>0.0</speed>
  <fix>3d</fix>
</trkpt>
<trkpt lat="-35.3629377" lon="149.1650845">
  <ele>681.74</ele>
  <time>2026-09-01T19:52:47Z</time>
  <course>356.54</course>
  <speed>0.022360679774997897</speed>
  <fix>3d</fix>
</trkpt>
<trkpt lat="-35.3629375" lon="149.1650843">
  <ele>681.17</ele>
  <time>2026-09-01T19:52:47Z</time>
  <course>195.36</course>
  <speed>0.0</speed>
  <fix>3d</fix>
</trkpt>
<trkpt lat="-35.3629377" lon="149.1650845">
  <ele>681.99</ele>
  <time>2026-09-01T19:52:47Z</time>
  <course>356.54</course>
  <speed>0.022360679774997897</speed>
  <fix>3d</fix>
</trkpt>
<trkpt lat="-35.3629375" lon="149.1650843">
  <ele>681.17</ele>
  <time>2026-09-01T19:52:47Z</time>
  <course>195.36</course>
  <speed>0.0</speed>
  <fix>3d</fix>
</trkpt>
<trkpt lat="-35.3629377" lon="149.1650845">
  <ele>682.24</ele>
  <time>2026-09-01T19:52:47Z</time>
  <course>356.54</course>
  <speed>0.022360679774997897</speed>
  <fix>3d</fix>
</trkpt>
<trkpt lat="-35.3629375" lon="149.1650843">
  <ele>681.67</ele>
  <time>2026-09-01T19:52:47Z</time>
  <course>196.69</course>
  <speed>0.0</speed>
  <fix>3d</fix>
</trkpt>
<trkpt lat="-35.3629377" lon="149.1650845">
  <ele>682.49</ele>
  <time>2026-09-01T19:52:47Z</time>
  <course>356.54</course>
  <speed>0.022360679774997897</speed>
  <fix>3d</fix>
</trkpt>
<trkpt lat="-35.3629375" lon="149.1650843">
  <ele>681.67</ele>
  <time>2026-09-01T19:52:47Z</time>
  <course>196.69</course>
  <speed>0.0</speed>
  <fix>3d</fix>
</trkpt>
<trkpt lat="-35.3629377" lon="149.1650845">
  <ele>682.74</ele>
  <time>2026-09-01T19:52:47Z</time>
  <course>356.54</course>
  <speed>0.022360679774997897</speed>
  <fix>3d</fix>
</trkpt>
<trkpt lat="-35.3629375" lon="149.1650843">
  <ele>682.17</ele>
  <time>2026-09-01T19:52:47Z</time>
  <course>223.71</course>
  <speed>0.0</speed>
  <fix>3d</fix>
</trkpt>
<trkpt lat="-35.3629377" lon="149.1650845">
  <ele>682.99</ele>
  <time>2026-09-01T19:52:47Z</time>
  <course>356.54</course>
  <speed>0.022360679774997897</speed>
  <fix>3d</fix>
</trkpt>
<trkpt lat="-35.3629375" lon="149.1650843">
  <ele>682.17</ele>
  <time>2026-09-01T19:52:47Z</time>
  <course>223.71</course>
  <speed>0.0</speed>
  <fix>3d</fix>
</trkpt>
<trkpt lat="-35.3629377" lon="149.1650845">
  <ele>683.24</ele>
  <time>2026-09-01T19:52:47Z</time>
  <course>356.54</course>
  <speed>0.022360679774997897</speed>
  <fix>3d</fix>
</trkpt>
<trkpt lat="-35.3629375" lon="149.1650843">
  <ele>682.67</ele>
  <time>2026-09-01T19:52:47Z</time>
  <course>243.95</course>
  <speed>0.0</speed>
  <fix>3d</fix>
</trkpt>
<trkpt lat="-35.3629377" lon="149.1650845">
  <ele>683.49</ele>
  <time>2026-09-01T19:52:47Z</time>
  <course>356.53</course>
  <speed>0.022360679774997897</speed>
  <fix>3d</fix>
</trkpt>
<trkpt lat="-35.3629375" lon="149.1650843">
  <ele>682.67</ele>
  <time>2026-09-01T19:52:47Z</time>
  <course>243.95</course>
  <speed>0.0</speed>
  <fix>3d</fix>
</trkpt>
<trkpt lat="-35.3629377" lon="149.1650845">
  <ele>683.74</ele>
  <time>2026-09-01T19:52:47Z</time>
  <course>356.53</course>
  <speed>0.022360679774997897</speed>
  <fix>3d</fix>
</trkpt>
<trkpt lat="-35.3629375" lon="149.1650843">
  <ele>683.17</ele>
  <time>2026-09-01T19:52:47Z</time>
  <course>235.18</course>
  <speed>0.0</speed>
  <fix>3d</fix>
</trkpt>
<trkpt lat="-35.3629377" lon="149.1650845">
  <ele>683.99</ele>
  <time>2026-09-01T19:52:47Z</time>
  <course>356.53</course>
  <speed>0.022360679774997897</speed>
  <fix>3d</fix>
</trkpt>
<trkpt lat="-35.3629375" lon="149.1650843">
  <ele>683.17</ele>
  <time>2026-09-01T19:52:47Z</time>
  <course>235.18</course>
  <speed>0.0</speed>
  <fix>3d</fix>
</trkpt>
<trkpt lat="-35.3629377" lon="149.1650845">
  <ele>684.24</ele>
  <time>2026-09-01T19:52:47Z</time>
  <course>356.54</course>
  <speed>0.022360679774997897</speed>
  <fix>3d</fix>
</trkpt>
<trkpt lat="-35.3629375" lon="149.1650843">
  <ele>683.68</ele>
  <time>2026-09-01T19:52:47Z</time>
  <course>189.8</course>
  <speed>0.0</speed>
  <fix>3d</fix>
</trkpt>
<trkpt lat="-35.3629377" lon="149.1650845">
  <ele>684.49</ele>
  <time>2026-09-01T19:52:47Z</time>
  <course>356.54</course>
  <speed>0.022360679774997897</speed>
  <fix>3d</fix>
</trkpt>
<trkpt lat="-35.3629375" lon="149.1650843">
  <ele>683.68</ele>
  <time>2026-09-01T19:52:47Z</time>
  <course>189.8</course>
  <speed>0.0</speed>
  <fix>3d</fix>
</trkpt>
<trkpt lat="-35.3629377" lon="149.1650845">
  <ele>684.74</ele>
  <time>2026-09-01T19:52:47Z</time>
  <course>356.54</course>
  <speed>0.022360679774997897</speed>
  <fix>3d</fix>
</trkpt>
<trkpt lat="-35.3629375" lon="149.1650843">
  <ele>684.18</ele>
  <time>2026-09-01T19:52:47Z</time>
  <course>158.79</course>
  <speed>0.0</speed>
  <fix>3d</fix>
</trkpt>
<trkpt lat="-35.3629377" lon="149.1650845">
  <ele>684.99</ele>
  <time>2026-09-01T19:52:47Z</time>
  <course>356.55</course>
  <speed>0.022360679774997897</speed>
  <fix>3d</fix>
</trkpt>
<trkpt lat="-35.3629375" lon="149.1650843">
  <ele>684.18</ele>
  <time>2026-09-01T19:52:47Z</time>
  <course>158.79</course>
  <speed>0.0</speed>
  <fix>3d</fix>
</trkpt>
<trkpt lat="-35.3629377" lon="149.1650845">
  <ele>685.23</ele>
  <time>2026-09-01T19:52:47Z</time>
  <course>356.55</course>
  <speed>0.02</speed>
  <fix>3d</fix>
</trkpt>
<trkpt lat="-35.3629375" lon="149.1650843">
  <ele>684.67</ele>
  <time>2026-09-01T19:52:47Z</time>
  <course>144.9</course>
  <speed>0.0</speed>
  <fix>3d</fix>
</trkpt>
<trkpt lat="-35.3629377" lon="149.1650845">
  <ele>685.48</ele>
  <time>2026-09-01T19:52:47Z</time>
  <course>356.57</course>
  <speed>0.053851648071345036</speed>
  <fix>3d</fix>
</trkpt>
<trkpt lat="-35.3629375" lon="149.1650843">
  <ele>684.67</ele>
  <time>2026-09-01T19:52:47Z</time>
  <course>144.9</course>
  <speed>0.0</speed>
  <fix>3d</fix>
</trkpt>
<trkpt lat="-35.3629376" lon="149.1650845">
  <ele>685.73</ele>
  <time>2026-09-01T19:52:47Z</time>
  <course>356.6</course>
  <speed>0.17029386365926402</speed>
  <fix>3d</fix>
</trkpt>
<trkpt lat="-35.3629375" lon="149.1650843">
  <ele>685.17</ele>
  <time>2026-09-01T19:52:47Z</time>
  <course>359.54</course>
  <speed>0.03</speed>
  <fix>3d</fix>
</trkpt>
<trkpt lat="-35.3629373" lon="149.1650845">
  <ele>685.97</ele>
  <time>2026-09-01T19:52:47Z</time>
  <course>356.62</course>
  <speed>0.35</speed>
  <fix>3d</fix>
</trkpt>
<trkpt lat="-35.3629375" lon="149.1650843">
  <ele>685.17</ele>
  <time>2026-09-01T19:52:47Z</time>
  <course>359.54</course>
  <speed>0.03</speed>
  <fix>3d</fix>
</trkpt>
<trkpt lat="-35.3629369" lon="149.1650845">
  <ele>686.2</ele>
  <time>2026-09-01T19:52:47Z</time>
  <course>356.59</course>
  <speed>0.5900847396772771</speed>
  <fix>3d</fix>
</trkpt>
<trkpt lat="-35.3629373" lon="149.1650843">
  <ele>685.66</ele>
  <time>2026-09-01T19:52:47Z</time>
  <course>355.12</course>
  <speed>0.21</speed>
  <fix>3d</fix>
</trkpt>
<trkpt lat="-35.3629362" lon="149.1650845">
  <ele>686.41</ele>
  <time>2026-09-01T19:52:47Z</time>
  <course>356.51</course>
  <speed>0.8805112151472007</speed>
  <fix>3d</fix>
</trkpt>
<trkpt lat="-35.3629373" lon="149.1650843">
  <ele>685.66</ele>
  <time>2026-09-01T19:52:47Z</time>
  <course>355.12</course>
  <speed>0.21</speed>
  <fix>3d</fix>
</trkpt>
<trkpt lat="-35.3629352" lon="149.1650844">
  <ele>686.61</ele>
  <time>2026-09-01T19:52:47Z</time>
  <course>356.35</course>
  <speed>1.2414507642270796</speed>
  <fix>3d</fix>
</trkpt>
<trkpt lat="-35.3629366" lon="149.1650842">
  <ele>686.13</ele>
  <time>2026-09-01T19:52:47Z</time>
  <course>354.44</course>
  <speed>0.62</speed>
  <fix>3d</fix>
</trkpt>
<trkpt lat="-35.3629339" lon="149.1650843">
  <ele>686.79</ele>
  <time>2026-09-01T19:52:47Z</time>
  <course>356.19</course>
  <speed>1.672423391369542</speed>
  <fix>3d</fix>
</trkpt>
<trkpt lat="-35.3629366" lon="149.1650842">
  <ele>686.13</ele>
  <time>2026-09-01T19:52:47Z</time>
  <course>354.44</course>
  <speed>0.62</speed>
  <fix>3d</fix>
</trkpt>
<trkpt lat="-35.3629322" lon="149.1650841">
  <ele>686.93</ele>
  <time>2026-09-01T19:52:47Z</time>
  <course>355.92</course>
  <speed>2.16453228204155</speed>
  <fix>3d</fix>
</trkpt>
<trkpt lat="-35.362935" lon="149.1650839">
  <ele>686.54</ele>
  <time>2026-09-01T19:52:47Z</time>
  <course>354.12</course>
  <speed>1.27</speed>
  <fix>3d</fix>
</trkpt>
<trkpt lat="-35.36293" lon="149.1650838">
  <ele>687.05</ele>
  <time>2026-09-01T19:52:47Z</time>
  <course>355.39</course>
  <speed>2.717370052090808</speed>
  <fix>3d</fix>
</trkpt>
<trkpt lat="-35.362935" lon="149.1650839">
  <ele>686.54</ele>
  <time>2026-09-01T19:52:47Z</time>
  <course>354.12</course>
  <speed>1.27</speed>
  <fix>3d</fix>
</trkpt>
<trkpt lat="-35.3629273" lon="149.1650835">
  <ele>687.13</ele>
  <time>2026-09-01T19:52:47Z</time>
  <course>354.52</course>
  <speed>3.302756424564185</speed>
  <fix>3d</fix>
</trkpt>
<trkpt lat="-35.3629319" lon="149.1650835">
  <ele>686.86</ele>
  <time>2026-09-01T19:52:47Z</time>
  <course>353.75</course>
  <speed>2.18</speed>
  <fix>3d</fix>
</trkpt>
<trkpt lat="-35.3629241" lon="149.165083">
  <ele>687.18</ele>
  <time>2026-09-01T19:52:47Z</time>
  <course>353.66</course>
  <speed>3.899551256234491</speed>
  <fix>3d</fix>
</trkpt>
<trkpt lat="-35.3629319" lon="149.1650835">
  <ele>686.86</ele>
  <time>2026-09-01T19:52:47Z</time>
  <course>353.75</course>
  <speed>2.18</speed>
  <fix>3d</fix>
</trkpt>
<trkpt lat="-35.3629204" lon="149.1650824">
  <ele>687.2</ele>
  <time>2026-09-01T19:52:47Z</time>
  <course>352.61</course>
  <speed>4.500144442126275</speed>
  <fix>3d</fix>
</trkpt>
<trkpt lat="-35.362927" lon="149.1650828">
  <ele>687.06</ele>
  <time>2026-09-01T19:52:47Z</time>
  <course>353.13</course>
  <speed>3.29</speed>
  <fix>3d</fix>
</trkpt>
<trkpt lat="-35.3629161" lon="149.1650817">
  <ele>687.2</ele>
  <time>2026-09-01T19:52:47Z</time>
  <course>351.75</course>
  <speed>5.1041649659861115</speed>
  <fix>3d</fix>
</trkpt>
<trkpt lat="-35.362927" lon="149.1650828">
  <ele>687.06</ele>
  <time>2026-09-01T19:52:47Z</time>
  <course>353.13</course>
  <speed>3.29</speed>
  <fix>3d</fix>
</trkpt>
<trkpt lat="-35.3629113" lon="149.1650807">
  <ele>687.19</ele>
  <time>2026-09-01T19:52:47Z</time>
  <course>350.89</course>
  <speed>5.705190619076632</speed>
  <fix>3d</fix>
</trkpt>
<trkpt lat="-35.36292" lon="149.1650818">
  <ele>687.14</ele>
  <time>2026-09-01T19:52:47Z</time>
  <course>352.08</course>
  <speed>4.49</speed>
  <fix>3d</fix>
</trkpt>
<trkpt lat="-35.3629061" lon="149.1650795">
  <ele>687.17</ele>
  <time>2026-09-01T19:52:47Z</time>
  <course>350.03</course>
  <speed>6.301507756085047</speed>
  <fix>3d</fix>
</trkpt>
<trkpt lat="-35.36292" lon="149.1650818">
  <ele>687.14</ele>
  <time>2026-09-01T19:52:47Z</time>
  <course>352.08</course>
  <speed>4.49</speed>
  <fix>3d</fix>
</trkpt>
<trkpt lat="-35.3629003" lon="149.1650781">
  <ele>687.14</ele>
  <time>2026-09-01T19:52:47Z</time>
  <course>349.08</course>
  <speed>6.895578293370324</speed>
  <fix>3d</fix>
</trkpt>
<trkpt lat="-35.362911" lon="149.16508">
  <ele>687.13</ele>
  <time>2026-09-01T19:52:47Z</time>
  <course>350.56</course>
  <speed>5.69</speed>
  <fix>3d</fix>
</trkpt>
<trkpt lat="-35.362894" lon="149.1650764">
  <ele>687.11</ele>
  <time>2026-09-01T19:52:47Z</time>
  <course>348.06</course>
  <speed>7.478803380220662</speed>
  <fix>3d</fix>
</trkpt>
<trkpt lat="-35.362911" lon="149.16508">
  <ele>687.13</ele>
  <time>2026-09-01T19:52:47Z</time>
  <course>350.56</course>
  <speed>5.69</speed>
  <fix>3d</fix>
</trkpt>
<trkpt lat="-35.3628872" lon="149.1650744">
  <ele>687.08</ele>
  <time>2026-09-01T19:52:47Z</time>
  <course>347.0</course>
  <speed>8.074317308602629</speed>
  <fix>3d</fix>
</trkpt>
<trkpt lat="-35.3628999" lon="149.1650776">
  <ele>687.09</ele>
  <time>2026-09-01T19:52:47Z</time>
  <course>348.61</course>
  <speed>6.9</speed>
  <fix>3d</fix>
</trkpt>
<trkpt lat="-35.36288" lon="149.1650721">
  <ele>687.06</ele>
  <time>2026-09-01T19:52:47Z</time>
  <course>345.87</course>
  <speed>8.649739880481956</speed>
  <fix>3d</fix>
</trkpt>
<trkpt lat="-35.3628999" lon="149.1650776">
  <ele>687.09</ele>
  <time>2026-09-01T19:52:47Z</time>
  <course>348.61</course>
  <speed>6.9</speed>
  <fix>3d</fix>
</trkpt>
<trkpt lat="-35.3628723" lon="149.1650694">
  <ele>687.03</ele>
  <time>2026-09-01T19:52:47Z</time>
  <course>344.66</course>
  <speed>9.21840007810466</speed>
  <fix>3d</fix>
</trkpt>
<trkpt lat="-35.3628867" lon="149.165074">
  <ele>687.04</ele>
  <time>2026-09-01T19:52:47Z</time>
  <course>346.28</course>
  <speed>8.08</speed>
  <fix>3d</fix>
</trkpt>
<trkpt lat="-35.3628642" lon="149.1650664">
  <ele>687.01</ele>
  <time>2026-09-01T19:52:47Z</time>
  <course>343.34</course>
  <speed>9.781784090849685</speed>
  <fix>3d</fix>
</trkpt>
<trkpt lat="-35.3628867" lon="149.165074">
  <ele>687.04</ele>
  <time>2026-09-01T19:52:47Z</time>
  <course>346.28</course>
  <speed>8.08</speed>
  <fix>3d</fix>
</trkpt>
<trkpt lat="-35.3628557" lon="149.1650628">
  <ele>687.0</ele>
  <time>2026-09-01T19:52:47Z</time>
  <course>341.78</course>
  <speed>10.322528759950249</speed>
  <fix>3d</fix>
</trkpt>
<trkpt lat="-35.3628717" lon="149.165069">
  <ele>686.99</ele>
  <time>2026-09-01T19:52:47Z</time>
  <course>343.66</course>
  <speed>9.23</speed>
  <fix>3d</fix>
</trkpt>
<trkpt lat="-35.3628468" lon="149.1650589">
  <ele>686.98</ele>
  <time>2026-09-01T19:52:47Z</time>
  <course>340.12</course>
  <speed>10.829856878094004</speed>
  <fix>3d</fix>
</trkpt>
<trkpt lat="-35.3628717" lon="149.165069">
  <ele>686.99</ele>
  <time>2026-09-01T19:52:47Z</time>
  <course>343.66</course>
  <speed>9.23</speed>
  <fix>3d</fix>
</trkpt>
<trkpt lat="-35.3628376" lon="149.1650544">
  <ele>686.97</ele>
  <time>2026-09-01T19:52:47Z</time>
  <course>338.57</course>
  <speed>11.318608571728241</speed>
  <fix>3d</fix>
</trkpt>
<trkpt lat="-35.3628549" lon="149.1650624">
  <ele>686.95</ele>
  <time>2026-09-01T19:52:47Z</time>
  <course>340.81</course>
  <speed>10.33</speed>
  <fix>3d</fix>
</trkpt>
<trkpt lat="-35.3628281" lon="149.1650494">
  <ele>686.96</ele>
  <time>2026-09-01T19:52:47Z</time>
  <course>336.99</course>
  <speed>11.792234733077526</speed>
  <fix>3d</fix>
</trkpt>
<trkpt lat="-35.3628549" lon="149.1650624">
  <ele>686.95</ele>
  <time>2026-09-01T19:52:47Z</time>
  <course>340.81</course>
  <speed>10.33</speed>
  <fix>3d</fix>
</trkpt>
<trkpt lat="-35.3628183" lon="149.1650439">
  <ele>686.96</ele>
  <time>2026-09-01T19:52:47Z</time>
  <course>335.47</course>
  <speed>12.26944579025475</speed>
  <fix>3d</fix>
</trkpt>
<trkpt lat="-35.3628367" lon="149.165054">
  <ele>686.93</ele>
  <time>2026-09-01T19:52:47Z</time>
  <course>337.75</course>
  <speed>11.35</speed>
  <fix>3d</fix>
</trkpt>
<trkpt lat="-35.3628083" lon="149.1650379">
  <ele>686.96</ele>
  <time>2026-09-01T19:52:47Z</time>
  <course>334.08</course>
  <speed>12.736989440209175</speed>
  <fix>3d</fix>
</trkpt>
<trkpt lat="-35.3628367" lon="149.165054">
  <ele>686.93</ele>
  <time>2026-09-01T19:52:47Z</time>
  <course>337.75</course>
  <speed>11.35</speed>
  <fix>3d</fix>
</trkpt>
<trkpt lat="-35.3627981" lon="149.1650314">
  <ele>686.96</ele>
  <time>2026-09-01T19:52:47Z</time>
  <course>332.68</course>
  <speed>13.191592019161297</speed>
  <fix>3d</fix>
</trkpt>
<trkpt lat="-35.3628173" lon="149.1650434">
  <ele>686.92</ele>
  <time>2026-09-01T19:52:47Z</time>
  <course>334.61</course>
  <speed>12.31</speed>
  <fix>3d</fix>
</trkpt>
<trkpt lat="-35.3627876" lon="149.1650242">
  <ele>686.96</ele>
  <time>2026-09-01T19:52:47Z</time>
  <course>331.33</course>
  <speed>13.651421171438527</speed>
  <fix>3d</fix>
</trkpt>
<trkpt lat="-35.3628173" lon="149.1650434">
  <ele>686.92</ele>
  <time>2026-09-01T19:52:47Z</time>
  <course>334.61</course>
  <speed>12.31</speed>
  <fix>3d</fix>
</trkpt>
<trkpt lat="-35.3627769" lon="149.1650164">
  <ele>686.96</ele>
  <time>2026-09-01T19:52:47Z</time>
  <course>329.94</course>
  <speed>14.099549638197669</speed>
  <fix>3d</fix>
</trkpt>
<trkpt lat="-35.3627968" lon="149.1650306">
  <ele>686.92</ele>
  <time>2026-09-01T19:52:47Z</time>
  <course>331.52</course>
  <speed>13.25</speed>
  <fix>3d</fix>
</trkpt>
<trkpt lat="-35.3627658" lon="149.1650079">
  <ele>686.96</ele>
  <time>2026-09-01T19:52:47Z</time>
  <course>328.53</course>
  <speed>14.553710866991965</speed>
  <fix>3d</fix>
</trkpt>
<trkpt lat="-35.3627968" lon="149.1650306">
  <ele>686.92</ele>
  <time>2026-09-01T19:52:47Z</time>
  <course>331.52</course>
  <speed>13.25</speed>
  <fix>3d</fix>
</trkpt>
<trkpt lat="-35.3627548" lon="149.164999">
  <ele>686.96</ele>
  <time>2026-09-01T19:52:47Z</time>
  <course>327.25</course>
  <speed>14.988892554154893</speed>
  <fix>3d</fix>
</trkpt>
<trkpt lat="-35.3627755" lon="149.1650155">
  <ele>686.92</ele>
  <time>2026-09-01T19:52:47Z</time>
  <course>328.55</course>
  <speed>14.17</speed>
  <fix>3d</fix>
</trkpt>
<trkpt lat="-35.3627436" lon="149.1649894">
  <ele>686.96</ele>
  <time>2026-09-01T19:52:47Z</time>
  <course>326.02</course>
  <speed>15.421446105991487</speed>
  <fix>3d</fix>
</trkpt>
<trkpt lat="-35.3627755" lon="149.1650155">
  <ele>686.92</ele>
  <time>2026-09-01T19:52:47Z</time>
  <course>328.55</course>
  <speed>14.17</speed>
  <fix>3d</fix>
</trkpt>
<trkpt lat="-35.3627322" lon="149.1649792">
  <ele>686.96</ele>
  <time>2026-09-01T19:52:47Z</time>
  <course>324.7</course>
  <speed>15.838036494464836</speed>
  <fix>3d</fix>
</trkpt>
<trkpt lat="-35.3627534" lon="149.1649981">
  <ele>686.92</ele>
  <time>2026-09-01T19:52:47Z</time>
  <course>325.72</course>
  <speed>15.06</speed>
  <fix>3d</fix>
</trkpt>
<trkpt lat="-35.3627208" lon="149.1649685">
  <ele>686.95</ele>
  <time>2026-09-01T19:52:47Z</time>
  <course>323.41</course>
  <speed>16.248729181077515</speed>
  <fix>3d</fix>
</trkpt>
<trkpt lat="-35.3627534" lon="149.1649981">
  <ele>686.92</ele>
  <time>2026-09-01T19:52:47Z</time>
  <course>325.72</course>
  <speed>15.06</speed>
  <fix>3d</fix>
</trkpt>
<trkpt lat="-35.3627093" lon="149.1649572">
  <ele>686.94</ele>
  <time>2026-09-01T19:52:47Z</time>
  <course>322.14</course>
  <speed>16.651444381794633</speed>
  <fix>3d</fix>
</trkpt>
<trkpt lat="-35.3627307" lon="149.1649782">
  <ele>686.91</ele>
  <time>2026-09-01T19:52:47Z</time>
  <course>323.06</course>
  <speed>15.91</speed>
  <fix>3d</fix>
</trkpt>
<trkpt lat="-35.3626977" lon="149.1649452">
  <ele>686.93</ele>
  <time>2026-09-01T19:52:47Z</time>
  <course>320.89</course>
  <speed>17.024749631051847</speed>
  <fix>3d</fix>
</trkpt>
<trkpt lat="-35.3627307" lon="149.1649782">
  <ele>686.91</ele>
  <time>2026-09-01T19:52:47Z</time>
  <course>323.06</course>
  <speed>15.91</speed>
  <fix>3d</fix>
</trkpt>
<trkpt lat="-35.362686" lon="149.1649327">
  <ele>686.92</ele>
  <time>2026-09-01T19:52:47Z</time>
  <course>319.62</course>
  <speed>17.39829014587353</speed>
  <fix>3d</fix>
</trkpt>
<trkpt lat="-35.3627077" lon="149.1649559">
  <ele>686.9</ele>
  <time>2026-09-01T19:52:47Z</time>
  <course>320.52</course>
  <speed>16.72</speed>
  <fix>3d</fix>
</trkpt>
<trkpt lat="-35.3626743" lon="149.1649196">
  <ele>686.9</ele>
  <time>2026-09-01T19:52:47Z</time>
  <course>318.47</course>
  <speed>17.75784896883629</speed>
  <fix>3d</fix>
</trkpt>
<trkpt lat="-35.3627077" lon="149.1649559">
  <ele>686.9</ele>
  <time>2026-09-01T19:52:47Z</time>
  <course>320.52</course>
  <speed>16.72</speed>
  <fix>3d</fix>
</trkpt>
<trkpt lat="-35.3626626" lon="149.1649059">
  <ele>686.88</ele>
  <time>2026-09-01T19:52:47Z</time>
  <course>317.35</course>
  <speed>18.103176516843668</speed>
  <fix>3d</fix>
</trkpt>
<trkpt lat="-35.3626844" lon="149.1649313">
  <ele>686.87</ele>
  <time>2026-09-01T19:52:47Z</time>
  <course>318.07</course>
  <speed>17.47</speed>
  <fix>3d</fix>
</trkpt>
<trkpt lat="-35.3626509" lon="149.1648917">
  <ele>686.86</ele>
  <time>2026-09-01T19:52:47Z</time>
  <course>316.08</course>
  <speed>18.449262857903022</speed>
  <fix>3d</fix>
</trkpt>
<trkpt lat="-35.3626844" lon="149.1649313">
  <ele>686.87</ele>
  <time>2026-09-01T19:52:47Z</time>
  <course>318.07</course>
  <speed>17.47</speed>
  <fix>3d</fix>
</trkpt>
<trkpt lat="-35.3626392" lon="149.1648769">
  <ele>686.84</ele>
  <time>2026-09-01T19:52:47Z</time>
  <course>314.77</course>
  <speed>18.776011291006405</speed>
  <fix>3d</fix>
</trkpt>
<trkpt lat="-35.362661" lon="149.1649044">
  <ele>686.84</ele>
  <time>2026-09-01T19:52:47Z</time>
  <course>315.65</course>
  <speed>18.18</speed>
  <fix>3d</fix>
</trkpt>
<trkpt lat="-35.3626277" lon="149.1648615">
  <ele>686.82</ele>
  <time>2026-09-01T19:52:47Z</time>
  <course>313.34</course>
  <speed>19.09153215433481</speed>
  <fix>3d</fix>
</trkpt>
<trkpt lat="-35.362661" lon="149.1649044">
  <ele>686.84</ele>
  <time>2026-09-01T19:52:47Z</time>
  <course>315.65</course>
  <speed>18.18</speed>
  <fix>3d</fix>
</trkpt>
<trkpt lat="-35.3626162" lon="149.1648455">
  <ele>686.8</ele>
  <time>2026-09-01T19:52:47Z</time>
  <course>311.86</course>
  <speed>19.405530139627725</speed>
  <fix>3d</fix>
</trkpt>
<trkpt lat="-35.3626378" lon="149.1648753">
  <ele>686.81</ele>
  <time>2026-09-01T19:52:47Z</time>
  <course>313.17</course>
  <speed>18.84</speed>
  <fix>3d</fix>
</trkpt>
<trkpt lat="-35.3626049" lon="149.1648289">
  <ele>686.79</ele>
  <time>2026-09-01T19:52:47Z</time>
  <course>310.32</course>
  <speed>19.684676781700023</speed>
  <fix>3d</fix>
</trkpt>
<trkpt lat="-35.3626378" lon="149.1648753">
  <ele>686.81</ele>
  <time>2026-09-01T19:52:47Z</time>
  <course>313.17</course>
  <speed>18.84</speed>
  <fix>3d</fix>
</trkpt>
<trkpt lat="-35.3625938" lon="149.1648117">
  <ele>686.77</ele>
  <time>2026-09-01T19:52:47Z</time>
  <course>308.73</course>
  <speed>19.967418461083046</speed>
  <fix>3d</fix>
</trkpt>
<trkpt lat="-35.3626148" lon="149.1648439">
  <ele>686.78</ele>
  <time>2026-09-01T19:52:47Z</time>
  <course>310.49</course>
  <speed>19.46</speed>
  <fix>3d</fix>
</trkpt>
<trkpt lat="-35.3625829" lon="149.164794">
  <ele>686.76</ele>
  <time>2026-09-01T19:52:47Z</time>
  <course>307.15</course>
  <speed>20.23459413973999</speed>
  <fix>3d</fix>
</trkpt>
<trkpt lat="-35.3626148" lon="149.1648439">
  <ele>686.78</ele>
  <time>2026-09-01T19:52:47Z</time>
  <course>310.49</course>
  <speed>19.46</speed>
  <fix>3d</fix>
</trkpt>
<trkpt lat="-35.3625724" lon="149.1647757">
  <ele>686.75</ele>
  <time>2026-09-01T19:52:47Z</time>
  <course>305.62</course>
  <speed>20.49457001256674</speed>
  <fix>3d</fix>
</trkpt>
<trkpt lat="-35.3625925" lon="149.1648101">
  <ele>686.76</ele>
  <time>2026-09-01T19:52:47Z</time>
  <course>307.53</course>
  <speed>20.02</speed>
  <fix>3d</fix>
</trkpt>
<trkpt lat="-35.3625622" lon="149.1647567">
  <ele>686.74</ele>
  <time>2026-09-01T19:52:47Z</time>
  <course>303.98</course>
  <speed>20.744138931274055</speed>
  <fix>3d</fix>
</trkpt>
<trkpt lat="-35.3625925" lon="149.1648101">
  <ele>686.76</ele>
  <time>2026-09-01T19:52:47Z</time>
  <course>307.53</course>
  <speed>20.02</speed>
  <fix>3d</fix>
</trkpt>
<trkpt lat="-35.3625522" lon="149.1647372">
  <ele>686.75</ele>
  <time>2026-09-01T19:52:47Z</time>
  <course>302.37</course>
  <speed>20.982919243994626</speed>
  <fix>3d</fix>
</trkpt>
<trkpt lat="-35.362571" lon="149.1647739">
  <ele>686.75</ele>
  <time>2026-09-01T19:52:47Z</time>
  <course>304.28</course>
  <speed>20.54</speed>
  <fix>3d</fix>
</trkpt>
<trkpt lat="-35.3625427" lon="149.164717">
  <ele>686.75</ele>
  <time>2026-09-01T19:52:47Z</time>
  <course>300.71</course>
  <speed>21.20899809043322</speed>
  <fix>3d</fix>
</trkpt>
<trkpt lat="-35.362571" lon="149.1647739">
  <ele>686.75</ele>
  <time>2026-09-01T19:52:47Z</time>
  <course>304.28</course>
  <speed>20.54</speed>
  <fix>3d</fix>
</trkpt>
<trkpt lat="-35.3625335" lon="149.1646961">
  <ele>686.76</ele>
  <time>2026-09-01T19:52:47Z</time>
  <course>299.04</course>
  <speed>21.43209975713999</speed>
  <fix>3d</fix>
</trkpt>
<trkpt lat="-35.3625509" lon="149.1647353">
  <ele>686.75</ele>
  <time>2026-09-01T19:52:47Z</time>
  <course>300.83</course>
  <speed>21.03</speed>
  <fix>3d</fix>
</trkpt>
<trkpt lat="-35.3625249" lon="149.1646748">
  <ele>686.78</ele>
  <time>2026-09-01T19:52:47Z</time>
  <course>297.46</course>
  <speed>21.648879878644994</speed>
  <fix>3d</fix>
</trkpt>
<trkpt lat="-35.3625509" lon="149.1647353">
  <ele>686.75</ele>
  <time>2026-09-01T19:52:47Z</time>
  <course>300.83</course>
  <speed>21.03</speed>
  <fix>3d</fix>
</trkpt>
<trkpt lat="-35.3625167" lon="149.164653">
  <ele>686.8</ele>
  <time>2026-09-01T19:52:47Z</time>
  <course>295.88</course>
  <speed>21.845278666109984</speed>
  <fix>3d</fix>
</trkpt>
<trkpt lat="-35.3625324" lon="149.1646944">
  <ele>686.77</ele>
  <time>2026-09-01T19:52:47Z</time>
  <course>297.31</course>
  <speed>21.47</speed>
  <fix>3d</fix>
</trkpt>
<trkpt lat="-35.3625089" lon="149.1646308">
  <ele>686.82</ele>
  <time>2026-09-01T19:52:47Z</time>
  <course>294.28</course>
  <speed>22.034854208730312</speed>
  <fix>3d</fix>
</trkpt>
<trkpt lat="-35.3625324" lon="149.1646944">
  <ele>686.77</ele>
  <time>2026-09-01T19:52:47Z</time>
  <course>297.31</course>
  <speed>21.47</speed>
  <fix>3d</fix>
</trkpt>
<trkpt lat="-35.3625017" lon="149.164608">
  <ele>686.85</ele>
  <time>2026-09-01T19:52:47Z</time>
  <course>292.64</course>
  <speed>22.22501743531375</speed>
  <fix>3d</fix>
</trkpt>
<trkpt lat="-35.3625156" lon="149.1646512">
  <ele>686.81</ele>
  <time>2026-09-01T19:52:47Z</time>
  <course>293.82</course>
  <speed>21.87</speed>
  <fix>3d</fix>
</trkpt>
<trkpt lat="-35.3624949" lon="149.1645849">
  <ele>686.87</ele>
  <time>2026-09-01T19:52:48Z</time>
  <course>291.09</course>
  <speed>22.398752197388138</speed>
  <fix>3d</fix>
</trkpt>
<trkpt lat="-35.3625156" lon="149.1646512">
  <ele>686.81</ele>
  <time>2026-09-01T19:52:48Z</time>
  <course>293.82</course>
  <speed>21.87</speed>
  <fix>3d</fix>
</trkpt>
<trkpt lat="-35.3624885" lon="149.1645611">
  <ele>686.9</ele>
  <time>2026-09-01T19:52:48Z</time>
  <course>289.58</course>
  <speed>22.56522102705843</speed>
  <fix>3d</fix>
</trkpt>
<trkpt lat="-35.3625007" lon="149.1646061">
  <ele>686.86</ele>
  <time>2026-09-01T19:52:48Z</time>
  <course>290.43</course>
  <speed>22.24</speed>
  <fix>3d</fix>
</trkpt>
<trkpt lat="-35.3624827" lon="149.1645371">
  <ele>686.93</ele>
  <time>2026-09-01T19:52:48Z</time>
  <course>288.15</course>
  <speed>22.73211384803446</speed>
  <fix>3d</fix>
</trkpt>
<trkpt lat="-35.3625007" lon="149.1646061">
  <ele>686.86</ele>
  <time>2026-09-01T19:52:48Z</time>
  <course>290.43</course>
  <speed>22.24</speed>
  <fix>3d</fix>
</trkpt>
<trkpt lat="-35.3624774" lon="149.1645128">
  <ele>686.96</ele>
  <time>2026-09-01T19:52:48Z</time>
  <course>286.81</course>
  <speed>22.878472414040235</speed>
  <fix>3d</fix>
</trkpt>
<trkpt lat="-35.3624877" lon="149.1645594">
  <ele>686.92</ele>
  <time>2026-09-01T19:52:48Z</time>
  <course>287.23</course>
  <speed>22.58</speed>
  <fix>3d</fix>
</trkpt>
<trkpt lat="-35.3624725" lon="149.1644882">
  <ele>686.99</ele>
  <time>2026-09-01T19:52:48Z</time>
  <course>285.52</course>
  <speed>23.02421768486391</speed>
  <fix>3d</fix>
</trkpt>
<trkpt lat="-35.3624877" lon="149.1645594">
  <ele>686.92</ele>
  <time>2026-09-01T19:52:48Z</time>
  <course>287.23</course>
  <speed>22.58</speed>
  <fix>3d</fix>
</trkpt>
<trkpt lat="-35.3624681" lon="149.1644633">
  <ele>687.03</ele>
  <time>2026-09-01T19:52:48Z</time>
  <course>284.25</course>
  <speed>23.165370707156836</speed>
  <fix>3d</fix>
</trkpt>
<trkpt lat="-35.3624766" lon="149.1645112">
  <ele>686.98</ele>
  <time>2026-09-01T19:52:48Z</time>
  <course>284.25</course>
  <speed>22.88</speed>
  <fix>3d</fix>
</trkpt>
<trkpt lat="-35.3624641" lon="149.1644381">
  <ele>687.06</ele>
  <time>2026-09-01T19:52:48Z</time>
  <course>283.04</course>
  <speed>23.284623681734693</speed>
  <fix>3d</fix>
</trkpt>
<trkpt lat="-35.3624766" lon="149.1645112">
  <ele>686.98</ele>
  <time>2026-09-01T19:52:48Z</time>
  <course>284.25</course>
  <speed>22.88</speed>
  <fix>3d</fix>
</trkpt>
<trkpt lat="-35.3624605" lon="149.1644127">
  <ele>687.09</ele>
  <time>2026-09-01T19:52:48Z</time>
  <course>281.81</course>
  <speed>23.405900965354867</speed>
  <fix>3d</fix>
</trkpt>
<trkpt lat="-35.3624674" lon="149.1644618">
  <ele>687.05</ele>
  <time>2026-09-01T19:52:48Z</time>
  <course>281.55</course>
  <speed>23.15</speed>
  <fix>3d</fix>
</trkpt>
<trkpt lat="-35.3624573" lon="149.1643871">
  <ele>687.12</ele>
  <time>2026-09-01T19:52:48Z</time>
  <course>280.7</course>
  <speed>23.529734380141225</speed>
  <fix>3d</fix>
</trkpt>
<trkpt lat="-35.3624674" lon="149.1644618">
  <ele>687.05</ele>
  <time>2026-09-01T19:52:48Z</time>
  <course>281.55</course>
  <speed>23.15</speed>
  <fix>3d</fix>
</trkpt>
<trkpt lat="-35.3624545" lon="149.1643613">
  <ele>687.15</ele>
  <time>2026-09-01T19:52:48Z</time>
  <course>279.69</course>
  <speed>23.644826072525888</speed>
  <fix>3d</fix>
</trkpt>
<trkpt lat="-35.3624599" lon="149.1644113">
  <ele>687.12</ele>
  <time>2026-09-01T19:52:48Z</time>
  <course>279.13</course>
  <speed>23.4</speed>
  <fix>3d</fix>
</trkpt>
<trkpt lat="-35.3624521" lon="149.1643354">
  <ele>687.17</ele>
  <time>2026-09-01T19:52:48Z</time>
  <course>278.75</course>
  <speed>23.749837894183614</speed>
  <fix>3d</fix>
</trkpt>
<trkpt lat="-35.3624599" lon="149.1644113">
  <ele>687.12</ele>
  <time>2026-09-01T19:52:48Z</time>
  <course>279.13</course>
  <speed>23.4</speed>
  <fix>3d</fix>
</trkpt>
<trkpt lat="-35.36245" lon="149.1643093">
  <ele>687.2</ele>
  <time>2026-09-01T19:52:48Z</time>
  <course>277.84</course>
  <speed>23.854391629215783</speed>
  <fix>3d</fix>
</trkpt>
<trkpt lat="-35.362454" lon="149.16436">
  <ele>687.18</ele>
  <time>2026-09-01T19:52:48Z</time>
  <course>276.98</course>
  <speed>23.63</speed>
  <fix>3d</fix>
</trkpt>
<trkpt lat="-35.3624482" lon="149.1642832">
  <ele>687.22</ele>
  <time>2026-09-01T19:52:48Z</time>
  <course>276.92</course>
  <speed>23.94699354825152</speed>
  <fix>3d</fix>
</trkpt>
<trkpt lat="-35.362454" lon="149.16436">
  <ele>687.18</ele>
  <time>2026-09-01T19:52:48Z</time>
  <course>276.98</course>
  <speed>23.63</speed>
  <fix>3d</fix>
</trkpt>
<trkpt lat="-35.3624467" lon="149.1642568">
  <ele>687.24</ele>
  <time>2026-09-01T19:52:48Z</time>
  <course>276.07</course>
  <speed>24.034995319325525</speed>
  <fix>3d</fix>
</trkpt>
<trkpt lat="-35.3624496" lon="149.164308">
  <ele>687.23</ele>
  <time>2026-09-01T19:52:48Z</time>
  <course>275.11</course>
  <speed>23.83</speed>
  <fix>3d</fix>
</trkpt>
<trkpt lat="-35.3624455" lon="149.1642303">
  <ele>687.26</ele>
  <time>2026-09-01T19:52:48Z</time>
  <course>275.32</course>
  <speed>24.118395469019077</speed>
  <fix>3d</fix>
</trkpt>
<trkpt lat="-35.3624496" lon="149.164308">
  <ele>687.23</ele>
  <time>2026-09-01T19:52:48Z</time>
  <course>275.11</course>
  <speed>23.83</speed>
  <fix>3d</fix>
</trkpt>
<trkpt lat="-35.3624445" lon="149.1642038">
  <ele>687.28</ele>
  <time>2026-09-01T19:52:48Z</time>
  <course>274.58</course>
  <speed>24.19637369524615</speed>
  <fix>3d</fix>
</trkpt>
<trkpt lat="-35.3624463" lon="149.1642555">
  <ele>687.28</ele>
  <time>2026-09-01T19:52:48Z</time>
  <course>273.49</course>
  <speed>24.01</speed>
  <fix>3d</fix>
</trkpt>
<trkpt lat="-35.3624438" lon="149.1641768">
  <ele>687.3</ele>
  <time>2026-09-01T19:52:48Z</time>
  <course>273.87</course>
  <speed>24.26817875325629</speed>
  <fix>3d</fix>
</trkpt>
<trkpt lat="-35.3624463" lon="149.1642555">
  <ele>687.28</ele>
  <time>2026-09-01T19:52:48Z</time>
  <course>273.49</course>
  <speed>24.01</speed>
  <fix>3d</fix>
</trkpt>
<trkpt lat="-35.3624433" lon="149.1641501">
  <ele>687.31</ele>
  <time>2026-09-01T19:52:48Z</time>
  <course>273.31</course>
  <speed>24.343286548861883</speed>
  <fix>3d</fix>
</trkpt>
<trkpt lat="-35.3624442" lon="149.1642024">
  <ele>687.32</ele>
  <time>2026-09-01T19:52:48Z</time>
  <course>272.09</course>
  <speed>24.18</speed>
  <fix>3d</fix>
</trkpt>
<trkpt lat="-35.362443" lon="149.1641232">
  <ele>687.32</ele>
  <time>2026-09-01T19:52:48Z</time>
  <course>272.73</course>
  <speed>24.41081932258727</speed>
  <fix>3d</fix>
</trkpt>
<trkpt lat="-35.3624442" lon="149.1642024">
  <ele>687.32</ele>
  <time>2026-09-01T19:52:48Z</time>
  <course>272.09</course>
  <speed>24.18</speed>
  <fix>3d</fix>
</trkpt>
<trkpt lat="-35.3624429" lon="149.1640963">
  <ele>687.33</ele>
  <time>2026-09-01T19:52:48Z</time>
  <course>272.15</course>
  <speed>24.48</speed>
  <fix>3d</fix>
</trkpt>
<trkpt lat="-35.3624431" lon="149.1641491">
  <ele>687.35</ele>
  <time>2026-09-01T19:52:48Z</time>
  <course>270.92</course>
  <speed>24.32</speed>
  <fix>3d</fix>
</trkpt>
<trkpt lat="-35.362443" lon="149.1640693">
  <ele>687.34</ele>
  <time>2026-09-01T19:52:48Z</time>
  <course>271.64</course>
  <speed>24.540521591848854</speed>
  <fix>3d</fix>
</trkpt>
<trkpt lat="-35.3624431" lon="149.1641491">
  <ele>687.35</ele>
  <time>2026-09-01T19:52:48Z</time>
  <course>270.92</course>
  <speed>24.32</speed>
  <fix>3d</fix>
</trkpt>
<trkpt lat="-35.3624432" lon="149.1640423">
  <ele>687.35</ele>
  <time>2026-09-01T19:52:48Z</time>
  <course>271.16</course>
  <speed>24.59208205906934</speed>
  <fix>3d</fix>
</trkpt>
<trkpt lat="-35.3624427" lon="149.1640952">
  <ele>687.37</ele>
  <time>2026-09-01T19:52:48Z</time>
  <course>269.96</course>
  <speed>24.46</speed>
  <fix>3d</fix>
</trkpt>
<trkpt lat="-35.3624434" lon="149.1640151">
  <ele>687.35</ele>
  <time>2026-09-01T19:52:48Z</time>
  <course>270.74</course>
  <speed>24.65429171564253</speed>
  <fix>3d</fix>
</trkpt>
<trkpt lat="-35.3624427" lon="149.1640952">
  <ele>687.37</ele>
  <time>2026-09-01T19:52:48Z</time>
  <course>269.96</course>
  <speed>24.46</speed>
  <fix>3d</fix>
</trkpt>
<trkpt lat="-35.3624439" lon="149.163988">
  <ele>687.36</ele>
  <time>2026-09-01T19:52:48Z</time>
  <course>270.36</course>
  <speed>24.707045553849618</speed>
  <fix>3d</fix>
</trkpt>
<trkpt lat="-35.362443" lon="149.1640411">
  <ele>687.39</ele>
  <time>2026-09-01T19:52:48Z</time>
  <course>269.17</course>
  <speed>24.58</speed>
  <fix>3d</fix>
</trkpt>
<trkpt lat="-35.3624445" lon="149.1639607">
  <ele>687.36</ele>
  <time>2026-09-01T19:52:48Z</time>
  <course>269.99</course>
  <speed>24.749901009903052</speed>
  <fix>3d</fix>
</trkpt>
<trkpt lat="-35.362443" lon="149.1640411">
  <ele>687.39</ele>
  <time>2026-09-01T19:52:48Z</time>
  <course>269.17</course>
  <speed>24.58</speed>
  <fix>3d</fix>
</trkpt>
<trkpt lat="-35.3624452" lon="149.1639334">
  <ele>687.36</ele>
  <time>2026-09-01T19:52:48Z</time>
  <course>269.69</course>
  <speed>24.80290507178544</speed>
  <fix>3d</fix>
</trkpt>
<trkpt lat="-35.3624439" lon="149.1639869">
  <ele>687.4</ele>
  <time>2026-09-01T19:52:48Z</time>
  <course>268.55</course>
  <speed>24.69</speed>
  <fix>3d</fix>
</trkpt>
<trkpt lat="-35.3624459" lon="149.1639061">
  <ele>687.36</ele>
  <time>2026-09-01T19:52:48Z</time>
  <course>269.41</course>
  <speed>24.8459453432547</speed>
  <fix>3d</fix>
</trkpt>
<trkpt lat="-35.3624439" lon="149.1639869">
  <ele>687.4</ele>
  <time>2026-09-01T19:52:48Z</time>
  <course>268.55</course>
  <speed>24.69</speed>
  <fix>3d</fix>
</trkpt>
<trkpt lat="-35.3624468" lon="149.1638787">
  <ele>687.36</ele>
  <time>2026-09-01T19:52:48Z</time>
  <course>269.11</course>
  <speed>24.898514011884323</speed>
  <fix>3d</fix>
</trkpt>
<trkpt lat="-35.3624452" lon="149.1639324">
  <ele>687.41</ele>
  <time>2026-09-01T19:52:48Z</time>
  <course>268.06</course>
  <speed>24.79</speed>
  <fix>3d</fix>
</trkpt>
<trkpt lat="-35.3624477" lon="149.1638513">
  <ele>687.36</ele>
  <time>2026-09-01T19:52:48Z</time>
  <course>268.81</course>
  <speed>24.9412770322612</speed>
  <fix>3d</fix>
</trkpt>
<trkpt lat="-35.3624452" lon="149.1639324">
  <ele>687.41</ele>
  <time>2026-09-01T19:52:48Z</time>
  <course>268.06</course>
  <speed>24.79</speed>
  <fix>3d</fix>
</trkpt>
<trkpt lat="-35.3624486" lon="149.1638236">
  <ele>687.36</ele>
  <time>2026-09-01T19:52:48Z</time>
  <course>268.57</course>
  <speed>24.98422702426473</speed>
  <fix>3d</fix>
</trkpt>
<trkpt lat="-35.3624469" lon="149.1638778">
  <ele>687.42</ele>
  <time>2026-09-01T19:52:48Z</time>
  <course>267.68</course>
  <speed>24.89</speed>
  <fix>3d</fix>
</trkpt>
<trkpt lat="-35.3624497" lon="149.1637961">
  <ele>687.36</ele>
  <time>2026-09-01T19:52:48Z</time>
  <course>268.4</course>
  <speed>25.025978502348316</speed>
  <fix>3d</fix>
</trkpt>
<trkpt lat="-35.3624469" lon="149.1638778">
  <ele>687.42</ele>
  <time>2026-09-01T19:52:48Z</time>
  <course>267.68</course>
  <speed>24.89</speed>
  <fix>3d</fix>
</trkpt>
<trkpt lat="-35.3624507" lon="149.1637685">
  <ele>687.36</ele>
  <time>2026-09-01T19:52:48Z</time>
  <course>268.23</course>
  <speed>25.068260809238442</speed>
  <fix>3d</fix>
</trkpt>
<trkpt lat="-35.3624489" lon="149.1638229">
  <ele>687.43</ele>
  <time>2026-09-01T19:52:48Z</time>
  <course>267.39</course>
  <speed>24.98</speed>
  <fix>3d</fix>
</trkpt>
<trkpt lat="-35.3624518" lon="149.163741">
  <ele>687.35</ele>
  <time>2026-09-01T19:52:48Z</time>
  <course>268.11</course>
  <speed>25.109655513367763</speed>
  <fix>3d</fix>
</trkpt>
<trkpt lat="-35.3624489" lon="149.1638229">
  <ele>687.43</ele>
  <time>2026-09-01T19:52:48Z</time>
  <course>267.39</course>
  <speed>24.98</speed>
  <fix>3d</fix>
</trkpt>
<trkpt lat="-35.362453" lon="149.1637136">
  <ele>687.35</ele>
  <time>2026-09-01T19:52:48Z</time>
  <course>268.02</course>
  <speed>25.151081487681598</speed>
  <fix>3d</fix>
</trkpt>
<trkpt lat="-35.362451" lon="149.1637678">
  <ele>687.43</ele>
  <time>2026-09-01T19:52:48Z</time>
  <course>267.18</course>
  <speed>25.06</speed>
  <fix>3d</fix>
</trkpt>
<trkpt lat="-35.3624541" lon="149.1636859">
  <ele>687.35</ele>
  <time>2026-09-01T19:52:48Z</time>
  <course>267.97</course>
  <speed>25.182045190968903</speed>
  <fix>3d</fix>
</trkpt>
<trkpt lat="-35.362451" lon="149.1637678">
  <ele>687.43</ele>
  <time>2026-09-01T19:52:48Z</time>
  <course>267.18</course>
  <speed>25.06</speed>
  <fix>3d</fix>
</trkpt>
<trkpt lat="-35.3624553" lon="149.1636582">
  <ele>687.35</ele>
  <time>2026-09-01T19:52:48Z</time>
  <course>267.87</course>
  <speed>25.222499876102685</speed>
  <fix>3d</fix>
</trkpt>
<trkpt lat="-35.3624533" lon="149.1637126">
  <ele>687.43</ele>
  <time>2026-09-01T19:52:48Z</time>
  <course>267.05</course>
  <speed>25.15</speed>
  <fix>3d</fix>
</trkpt>
<trkpt lat="-35.3624565" lon="149.1636304">
  <ele>687.35</ele>
  <time>2026-09-01T19:52:48Z</time>
  <course>267.85</course>
  <speed>25.25246126618156</speed>
  <fix>3d</fix>
</trkpt>
<trkpt lat="-35.3624533" lon="149.1637126">
  <ele>687.43</ele>
  <time>2026-09-01T19:52:48Z</time>
  <course>267.05</course>
  <speed>25.15</speed>
  <fix>3d</fix>
</trkpt>
<trkpt lat="-35.3624577" lon="149.1636024">
  <ele>687.35</ele>
  <time>2026-09-01T19:52:48Z</time>
  <course>267.74</course>
  <speed>25.292917981126653</speed>
  <fix>3d</fix>
</trkpt>
<trkpt lat="-35.3624556" lon="149.1636572">
  <ele>687.44</ele>
  <time>2026-09-01T19:52:48Z</time>
  <course>266.99</course>
  <speed>25.22</speed>
  <fix>3d</fix>
</trkpt>
<trkpt lat="-35.3624588" lon="149.1635746">
  <ele>687.35</ele>
  <time>2026-09-01T19:52:48Z</time>
  <course>267.62</course>
  <speed>25.32287898324359</speed>
  <fix>3d</fix>
</trkpt>
<trkpt lat="-35.3624556" lon="149.1636572">
  <ele>687.44</ele>
  <time>2026-09-01T19:52:48Z</time>
  <course>266.99</course>
  <speed>25.22</speed>
  <fix>3d</fix>
</trkpt>
<trkpt lat="-35.36246" lon="149.1635468">
  <ele>687.32</ele>
  <time>2026-09-01T19:52:48Z</time>
  <course>267.61</course>
  <speed>25.362320477432657</speed>
  <fix>3d</fix>
</trkpt>
<trkpt lat="-35.3624579" lon="149.1636016">
  <ele>687.43</ele>
  <time>2026-09-01T19:52:48Z</time>
  <course>266.99</course>
  <speed>25.3</speed>
  <fix>3d</fix>
</trkpt>
<trkpt lat="-35.3624612" lon="149.1635188">
  <ele>687.26</ele>
  <time>2026-09-01T19:52:48Z</time>
  <course>267.58</course>
  <speed>25.401767655027474</speed>
  <fix>3d</fix>
</trkpt>
<trkpt lat="-35.3624579" lon="149.1636016">
  <ele>687.43</ele>
  <time>2026-09-01T19:52:48Z</time>
  <course>266.99</course>
  <speed>25.3</speed>
  <fix>3d</fix>
</trkpt>
<trkpt lat="-35.3624624" lon="149.1634909">
  <ele>687.18</ele>
  <time>2026-09-01T19:52:48Z</time>
  <course>267.52</course>
  <speed>25.430739273564186</speed>
  <fix>3d</fix>
</trkpt>
<trkpt lat="-35.3624603" lon="149.1635458">
  <ele>687.39</ele>
  <time>2026-09-01T19:52:48Z</time>
  <course>267.02</course>
  <speed>25.37</speed>
  <fix>3d</fix>
</trkpt>
<trkpt lat="-35.3624635" lon="149.1634629">
  <ele>687.08</ele>
  <time>2026-09-01T19:52:48Z</time>
  <course>267.5</course>
  <speed>25.459728985203277</speed>
  <fix>3d</fix>
</trkpt>
<trkpt lat="-35.3624603" lon="149.1635458">
  <ele>687.39</ele>
  <time>2026-09-01T19:52:48Z</time>
  <course>267.02</course>
  <speed>25.37</speed>
  <fix>3d</fix>
</trkpt>
<trkpt lat="-35.3624646" lon="149.1634349">
  <ele>686.98</ele>
  <time>2026-09-01T19:52:48Z</time>
  <course>267.54</course>
  <speed>25.498725458343994</speed>
  <fix>3d</fix>
</trkpt>
<trkpt lat="-35.3624627" lon="149.1634897">
  <ele>687.26</ele>
  <time>2026-09-01T19:52:48Z</time>
  <course>267.09</course>
  <speed>25.45</speed>
  <fix>3d</fix>
</trkpt>
<trkpt lat="-35.3624657" lon="149.1634068">
  <ele>686.86</ele>
  <time>2026-09-01T19:52:48Z</time>
  <course>267.58</course>
  <speed>25.547729840437878</speed>
  <fix>3d</fix>
</trkpt>
<trkpt lat="-35.3624627" lon="149.1634897">
  <ele>687.26</ele>
  <time>2026-09-01T19:52:48Z</time>
  <course>267.09</course>
  <speed>25.45</speed>
  <fix>3d</fix>
</trkpt>
<trkpt lat="-35.3624668" lon="149.1633786">
  <ele>686.73</ele>
  <time>2026-09-01T19:52:48Z</time>
  <course>267.59</course>
  <speed>25.5867641564931</speed>
  <fix>3d</fix>
</trkpt>
<trkpt lat="-35.362465" lon="149.1634337">
  <ele>687.07</ele>
  <time>2026-09-01T19:52:48Z</time>
  <course>267.2</course>
  <speed>25.52</speed>
  <fix>3d</fix>
</trkpt>
<trkpt lat="-35.3624679" lon="149.1633504">
  <ele>686.58</ele>
  <time>2026-09-01T19:52:48Z</time>
  <course>267.63</course>
  <speed>25.63625752718208</speed>
  <fix>3d</fix>
</trkpt>
<trkpt lat="-35.362465" lon="149.1634337">
  <ele>687.07</ele>
  <time>2026-09-01T19:52:48Z</time>
  <course>267.2</course>
  <speed>25.52</speed>
  <fix>3d</fix>
</trkpt>
<trkpt lat="-35.362469" lon="149.1633221">
  <ele>686.43</ele>
  <time>2026-09-01T19:52:48Z</time>
  <course>267.72</course>
  <speed>25.685310977288168</speed>
  <fix>3d</fix>
</trkpt>
<trkpt lat="-35.3624672" lon="149.1633775">
  <ele>686.82</ele>
  <time>2026-09-01T19:52:48Z</time>
  <course>267.29</course>
  <speed>25.61</speed>
  <fix>3d</fix>
</trkpt>
<trkpt lat="-35.36247" lon="149.1632938">
  <ele>686.27</ele>
  <time>2026-09-01T19:52:48Z</time>
  <course>267.82</course>
  <speed>25.734820768756094</speed>
  <fix>3d</fix>
</trkpt>
<trkpt lat="-35.3624672" lon="149.1633775">
  <ele>686.82</ele>
  <time>2026-09-01T19:52:48Z</time>
  <course>267.29</course>
  <speed>25.61</speed>
  <fix>3d</fix>
</trkpt>
<trkpt lat="-35.3624711" lon="149.1632655">
  <ele>686.1</ele>
  <time>2026-09-01T19:52:48Z</time>
  <course>267.89</course>
  <speed>25.793894626442125</speed>
  <fix>3d</fix>
</trkpt>
<trkpt lat="-35.3624693" lon="149.163321">
  <ele>686.52</ele>
  <time>2026-09-01T19:52:48Z</time>
  <course>267.38</course>
  <speed>25.71</speed>
  <fix>3d</fix>
</trkpt>
<trkpt lat="-35.3624721" lon="149.163237">
  <ele>685.93</ele>
  <time>2026-09-01T19:52:48Z</time>
  <course>267.93</course>
  <speed>25.85298822186712</speed>
  <fix>3d</fix>
</trkpt>
<trkpt lat="-35.3624693" lon="149.163321">
  <ele>686.52</ele>
  <time>2026-09-01T19:52:48Z</time>
  <course>267.38</course>
  <speed>25.71</speed>
  <fix>3d</fix>
</trkpt>
<trkpt lat="-35.3624731" lon="149.1632085">
  <ele>685.76</ele>
  <time>2026-09-01T19:52:48Z</time>
  <course>267.96</course>
  <speed>25.912101419992936</speed>
  <fix>3d</fix>
</trkpt>
<trkpt lat="-35.3624714" lon="149.1632643">
  <ele>686.2</ele>
  <time>2026-09-01T19:52:48Z</time>
  <course>267.47</course>
  <speed>25.82</speed>
  <fix>3d</fix>
</trkpt>
<trkpt lat="-35.3624741" lon="149.16318">
  <ele>685.58</ele>
  <time>2026-09-01T19:52:48Z</time>
  <course>267.97</course>
  <speed>25.971234086966298</speed>
  <fix>3d</fix>
</trkpt>
<trkpt lat="-35.3624714" lon="149.1632643">
  <ele>686.2</ele>
  <time>2026-09-01T19:52:48Z</time>
  <course>267.47</course>
  <speed>25.82</speed>
  <fix>3d</fix>
</trkpt>
<trkpt lat="-35.362475" lon="149.1631513">
  <ele>685.41</ele>
  <time>2026-09-01T19:52:48Z</time>
  <course>268.01</course>
  <speed>26.030783699304944</speed>
  <fix>3d</fix>
</trkpt>
<trkpt lat="-35.3624734" lon="149.1632073">
  <ele>685.87</ele>
  <time>2026-09-01T19:52:48Z</time>
  <course>267.57</course>
  <speed>25.93</speed>
  <fix>3d</fix>
</trkpt>
<trkpt lat="-35.362476" lon="149.1631226">
  <ele>685.24</ele>
  <time>2026-09-01T19:52:48Z</time>
  <course>268.03</course>
  <speed>26.09033920822035</speed>
  <fix>3d</fix>
</trkpt>
<trkpt lat="-35.3624734" lon="149.1632073">
  <ele>685.87</ele>
  <time>2026-09-01T19:52:48Z</time>
  <course>267.57</course>
  <speed>25.93</speed>
  <fix>3d</fix>
</trkpt>
<trkpt lat="-35.3624769" lon="149.1630939">
  <ele>685.07</ele>
  <time>2026-09-01T19:52:48Z</time>
  <course>268.11</course>
  <speed>26.149512423752764</speed>
  <fix>3d</fix>
</trkpt>
<trkpt lat="-35.3624753" lon="149.1631502">
  <ele>685.53</ele>
  <time>2026-09-01T19:52:48Z</time>
  <course>267.65</course>
  <speed>26.06</speed>
  <fix>3d</fix>
</trkpt>
<trkpt lat="-35.3624778" lon="149.163065">
  <ele>684.9</ele>
  <time>2026-09-01T19:52:48Z</time>
  <course>268.19</course>
  <speed>26.20870466085648</speed>
  <fix>3d</fix>
</trkpt>
<trkpt lat="-35.3624753" lon="149.1631502">
  <ele>685.53</ele>
  <time>2026-09-01T19:52:48Z</time>
  <course>267.65</course>
  <speed>26.06</speed>
  <fix>3d</fix>
</trkpt>
<trkpt lat="-35.3624788" lon="149.1630361">
  <ele>684.75</ele>
  <time>2026-09-01T19:52:48Z</time>
  <course>268.29</course>
  <speed>26.26791579094162</speed>
  <fix>3d</fix>
</trkpt>
<trkpt lat="-35.3624772" lon="149.1630927">
  <ele>685.19</ele>
  <time>2026-09-01T19:52:48Z</time>
  <course>267.73</course>
  <speed>26.18</speed>
  <fix>3d</fix>
</trkpt>
<trkpt lat="-35.3624796" lon="149.1630069">
  <ele>684.6</ele>
  <time>2026-09-01T19:52:48Z</time>
  <course>268.3</course>
  <speed>26.32714568653427</speed>
  <fix>3d</fix>
</trkpt>
<trkpt lat="-35.3624772" lon="149.1630927">
  <ele>685.19</ele>
  <time>2026-09-01T19:52:48Z</time>
  <course>267.73</course>
  <speed>26.18</speed>
  <fix>3d</fix>
</trkpt>
<trkpt lat="-35.3624805" lon="149.1629779">
  <ele>684.45</ele>
  <time>2026-09-01T19:52:48Z</time>
  <course>268.32</course>
  <speed>26.38674856817338</speed>
  <fix>3d</fix>
</trkpt>
<trkpt lat="-35.3624791" lon="149.1630349">
  <ele>684.88</ele>
  <time>2026-09-01T19:52:48Z</time>
  <course>267.82</course>
  <speed>26.3</speed>
  <fix>3d</fix>
</trkpt>
<trkpt lat="-35.3624814" lon="149.1629488">
  <ele>684.32</ele>
  <time>2026-09-01T19:52:48Z</time>
  <course>268.42</course>
  <speed>26.43601331517292</speed>
  <fix>3d</fix>
</trkpt>
<trkpt lat="-35.3624791" lon="149.1630349">
  <ele>684.88</ele>
  <time>2026-09-01T19:52:48Z</time>
  <course>267.82</course>
  <speed>26.3</speed>
  <fix>3d</fix>
</trkpt>
<trkpt lat="-35.3624822" lon="149.1629197">
  <ele>684.2</ele>
  <time>2026-09-01T19:52:48Z</time>
  <course>268.5</course>
  <speed>26.485637617395582</speed>
  <fix>3d</fix>
</trkpt>
<trkpt lat="-35.3624808" lon="149.1629769">
  <ele>684.59</ele>
  <time>2026-09-01T19:52:48Z</time>
  <course>267.92</course>
  <speed>26.42</speed>
  <fix>3d</fix>
</trkpt>
<trkpt lat="-35.3624831" lon="149.1628905">
  <ele>684.09</ele>
  <time>2026-09-01T19:52:48Z</time>
  <course>268.52</course>
  <speed>26.534929809592487</speed>
  <fix>3d</fix>
</trkpt>
<trkpt lat="-35.3624808" lon="149.1629769">
  <ele>684.59</ele>
  <time>2026-09-01T19:52:48Z</time>
  <course>267.92</course>
  <speed>26.42</speed>
  <fix>3d</fix>
</trkpt>
<trkpt lat="-35.3624839" lon="149.1628612">
  <ele>683.99</ele>
  <time>2026-09-01T19:52:48Z</time>
  <course>268.51</course>
  <speed>26.574574314558646</speed>
  <fix>3d</fix>
</trkpt>
<trkpt lat="-35.3624825" lon="149.1629185">
  <ele>684.34</ele>
  <time>2026-09-01T19:52:48Z</time>
  <course>268.0</course>
  <speed>26.53</speed>
  <fix>3d</fix>
</trkpt>
<trkpt lat="-35.3624847" lon="149.162832">
  <ele>683.89</ele>
  <time>2026-09-01T19:52:48Z</time>
  <course>268.49</course>
  <speed>26.6142236407527</speed>
  <fix>3d</fix>
</trkpt>
<trkpt lat="-35.3624825" lon="149.1629185">
  <ele>684.34</ele>
  <time>2026-09-01T19:52:48Z</time>
  <course>268.0</course>
  <speed>26.53</speed>
  <fix>3d</fix>
</trkpt>
<trkpt lat="-35.3624855" lon="149.1628026">
  <ele>683.8</ele>
  <time>2026-09-01T19:52:48Z</time>
  <course>268.51</course>
  <speed>26.654202295322968</speed>
  <fix>3d</fix>
</trkpt>
<trkpt lat="-35.3624842" lon="149.1628599">
  <ele>684.13</ele>
  <time>2026-09-01T19:52:48Z</time>
  <course>268.06</course>
  <speed>26.62</speed>
  <fix>3d</fix>
</trkpt>
<trkpt lat="-35.3624863" lon="149.1627732">
  <ele>683.73</ele>
  <time>2026-09-01T19:52:48Z</time>
  <course>268.56</course>
  <speed>26.693856971220924</speed>
  <fix>3d</fix>
</trkpt>
<trkpt lat="-35.3624842" lon="149.1628599">
  <ele>684.13</ele>
  <time>2026-09-01T19:52:48Z</time>
  <course>268.06</course>
  <speed>26.62</speed>
  <fix>3d</fix>
</trkpt>
<trkpt lat="-35.3624871" lon="149.1627437">
  <ele>683.66</ele>
  <time>2026-09-01T19:52:48Z</time>
  <course>268.63</course>
  <speed>26.72384141548516</speed>
  <fix>3d</fix>
</trkpt>
<trkpt lat="-35.3624858" lon="149.1628012">
  <ele>683.95</ele>
  <time>2026-09-01T19:52:48Z</time>
  <course>268.09</course>
  <speed>26.7</speed>
  <fix>3d</fix>
</trkpt>
<trkpt lat="-35.3624879" lon="149.1627143">
  <ele>683.6</ele>
  <time>2026-09-01T19:52:48Z</time>
  <course>268.65</course>
  <speed>26.753506312257464</speed>
  <fix>3d</fix>
</trkpt>
<trkpt lat="-35.3624858" lon="149.1628012">
  <ele>683.95</ele>
  <time>2026-09-01T19:52:48Z</time>
  <course>268.09</course>
  <speed>26.7</speed>
  <fix>3d</fix>
</trkpt>
<trkpt lat="-35.3624887" lon="149.1626847">
  <ele>683.55</ele>
  <time>2026-09-01T19:52:48Z</time>
  <course>268.64</course>
  <speed>26.783175689226997</speed>
  <fix>3d</fix>
</trkpt>
<trkpt lat="-35.3624874" lon="149.1627423">
  <ele>683.8</ele>
  <time>2026-09-01T19:52:48Z</time>
  <course>268.12</course>
  <speed>26.77</speed>
  <fix>3d</fix>
</trkpt>
<trkpt lat="-35.3624894" lon="149.1626552">
  <ele>683.5</ele>
  <time>2026-09-01T19:52:48Z</time>
  <course>268.59</course>
  <speed>26.803165857786276</speed>
  <fix>3d</fix>
</trkpt>
<trkpt lat="-35.3624874" lon="149.1627423">
  <ele>683.8</ele>
  <time>2026-09-01T19:52:48Z</time>
  <course>268.12</course>
  <speed>26.77</speed>
  <fix>3d</fix>
</trkpt>
<trkpt lat="-35.3624902" lon="149.1626256">
  <ele>683.46</ele>
  <time>2026-09-01T19:52:48Z</time>
  <course>268.67</course>
  <speed>26.833151138097815</speed>
  <fix>3d</fix>
</trkpt>
<trkpt lat="-35.3624889" lon="149.1626833">
  <ele>683.69</ele>
  <time>2026-09-01T19:52:48Z</time>
  <course>268.16</course>
  <speed>26.83</speed>
  <fix>3d</fix>
</trkpt>
<trkpt lat="-35.362491" lon="149.162596">
  <ele>683.42</ele>
  <time>2026-09-01T19:52:48Z</time>
  <course>268.72</course>
  <speed>26.85283039085452</speed>
  <fix>3d</fix>
</trkpt>
<trkpt lat="-35.3624889" lon="149.1626833">
  <ele>683.69</ele>
  <time>2026-09-01T19:52:48Z</time>
  <course>268.16</course>
  <speed>26.83</speed>
  <fix>3d</fix>
</trkpt>
<trkpt lat="-35.3624917" lon="149.1625664">
  <ele>683.39</ele>
  <time>2026-09-01T19:52:48Z</time>
  <course>268.71</course>
  <speed>26.86251849696897</speed>
  <fix>3d</fix>
</trkpt>
<trkpt lat="-35.3624904" lon="149.1626241">
  <ele>683.6</ele>
  <time>2026-09-01T19:52:48Z</time>
  <course>268.18</course>
  <speed>26.88</speed>
  <fix>3d</fix>
</trkpt>
<trkpt lat="-35.3624925" lon="149.1625368">
  <ele>683.37</ele>
  <time>2026-09-01T19:52:48Z</time>
  <course>268.76</course>
  <speed>26.87251383849304</speed>
  <fix>3d</fix>
</trkpt>
<trkpt lat="-35.3624904" lon="149.1626241">
  <ele>683.6</ele>
  <time>2026-09-01T19:52:48Z</time>
  <course>268.18</course>
  <speed>26.88</speed>
  <fix>3d</fix>
</trkpt>
<trkpt lat="-35.3624932" lon="149.1625071">
  <ele>683.36</ele>
  <time>2026-09-01T19:52:48Z</time>
  <course>268.73</course>
  <speed>26.892201471802192</speed>
  <fix>3d</fix>
</trkpt>
<trkpt lat="-35.362492" lon="149.162565">
  <ele>683.53</ele>
  <time>2026-09-01T19:52:48Z</time>
  <course>268.21</course>
  <speed>26.91</speed>
  <fix>3d</fix>
</trkpt>
<trkpt lat="-35.362494" lon="149.1624775">
  <ele>683.35</ele>
  <time>2026-09-01T19:52:48Z</time>
  <course>268.65</course>
  <speed>26.902196936309863</speed>
  <fix>3d</fix>
</trkpt>
<trkpt lat="-35.362492" lon="149.162565">
  <ele>683.53</ele>
  <time>2026-09-01T19:52:48Z</time>
  <course>268.21</course>
  <speed>26.91</speed>
  <fix>3d</fix>
</trkpt>
<trkpt lat="-35.3624947" lon="149.1624478">
  <ele>683.34</ele>
  <time>2026-09-01T19:52:48Z</time>
  <course>268.66</course>
  <speed>26.912192404187362</speed>
  <fix>3d</fix>
</trkpt>
<trkpt lat="-35.3624935" lon="149.1625057">
  <ele>683.5</ele>
  <time>2026-09-01T19:52:48Z</time>
  <course>268.23</course>
  <speed>26.94</speed>
  <fix>3d</fix>
</trkpt>
<trkpt lat="-35.3624955" lon="149.1624181">
  <ele>683.35</ele>
  <time>2026-09-01T19:52:48Z</time>
  <course>268.72</course>
  <speed>26.91189328159578</speed>
  <fix>3d</fix>
</trkpt>
<trkpt lat="-35.3624935" lon="149.1625057">
  <ele>683.5</ele>
  <time>2026-09-01T19:52:48Z</time>
  <course>268.23</course>
  <speed>26.94</speed>
  <fix>3d</fix>
</trkpt>
<trkpt lat="-35.3624962" lon="149.1623887">
  <ele>683.35</ele>
  <time>2026-09-01T19:52:48Z</time>
  <course>268.79</course>
  <speed>26.91189328159578</speed>
  <fix>3d</fix>
</trkpt>
<trkpt lat="-35.3624949" lon="149.1624464">
  <ele>683.49</ele>
  <time>2026-09-01T19:52:48Z</time>
  <course>268.25</course>
  <speed>26.96</speed>
  <fix>3d</fix>
</trkpt>
<trkpt lat="-35.3624969" lon="149.162359">
  <ele>683.37</ele>
  <time>2026-09-01T19:52:48Z</time>
  <course>268.79</course>
  <speed>26.92159356353186</speed>
  <fix>3d</fix>
</trkpt>
<trkpt lat="-35.3624949" lon="149.1624464">
  <ele>683.49</ele>
  <time>2026-09-01T19:52:48Z</time>
  <course>268.25</course>
  <speed>26.96</speed>
  <fix>3d</fix>
</trkpt>
<trkpt lat="-35.3624977" lon="149.1623293">
  <ele>683.38</ele>
  <time>2026-09-01T19:52:48Z</time>
  <course>268.73</course>
  <speed>26.92159356353186</speed>
  <fix>3d</fix>
</trkpt>
<trkpt lat="-35.3624964" lon="149.162387">
  <ele>683.49</ele>
  <time>2026-09-01T19:52:48Z</time>
  <course>268.27</course>
  <speed>26.96</speed>
  <fix>3d</fix>
</trkpt>
<trkpt lat="-35.3624984" lon="149.1622997">
  <ele>683.4</ele>
  <time>2026-09-01T19:52:48Z</time>
  <course>268.73</course>
  <speed>26.92159356353186</speed>
  <fix>3d</fix>
</trkpt>
<trkpt lat="-35.3624964" lon="149.162387">
  <ele>683.49</ele>
  <time>2026-09-01T19:52:48Z</time>
  <course>268.27</course>
  <speed>26.96</speed>
  <fix>3d</fix>
</trkpt>
<trkpt lat="-35.3624991" lon="149.1622697">
  <ele>683.42</ele>
  <time>2026-09-01T19:52:48Z</time>
  <course>268.79</course>
  <speed>26.92159356353186</speed>
  <fix>3d</fix>
</trkpt>
<trkpt lat="-35.3624978" lon="149.1623276">
  <ele>683.51</ele>
  <time>2026-09-01T19:52:48Z</time>
  <course>268.28</course>
  <speed>26.97</speed>
  <fix>3d</fix>
</trkpt>
<trkpt lat="-35.3624998" lon="149.1622401">
  <ele>683.44</ele>
  <time>2026-09-01T19:52:48Z</time>
  <course>268.85</course>
  <speed>26.91159787154973</speed>
  <fix>3d</fix>
</trkpt>
<trkpt lat="-35.3624978" lon="149.1623276">
  <ele>683.51</ele>
  <time>2026-09-01T19:52:48Z</time>
  <course>268.28</course>
  <speed>26.97</speed>
  <fix>3d</fix>
</trkpt>
<trkpt lat="-35.3625006" lon="149.1622101">
  <ele>683.46</ele>
  <time>2026-09-01T19:52:48Z</time>
  <course>268.88</course>
  <speed>26.901310377005803</speed>
  <fix>3d</fix>
</trkpt>
<trkpt lat="-35.3624993" lon="149.1622681">
  <ele>683.55</ele>
  <time>2026-09-01T19:52:48Z</time>
  <course>268.28</course>
  <speed>26.96</speed>
  <fix>3d</fix>
</trkpt>
<trkpt lat="-35.3625013" lon="149.1621805">
  <ele>683.49</ele>
  <time>2026-09-01T19:52:48Z</time>
  <course>268.84</course>
  <speed>26.89131458296526</speed>
  <fix>3d</fix>
</trkpt>
<trkpt lat="-35.3624993" lon="149.1622681">
  <ele>683.55</ele>
  <time>2026-09-01T19:52:48Z</time>
  <course>268.28</course>
  <speed>26.96</speed>
  <fix>3d</fix>
</trkpt>
<trkpt lat="-35.362502" lon="149.1621508">
  <ele>683.52</ele>
  <time>2026-09-01T19:52:48Z</time>
  <course>268.84</course>
  <speed>26.88131879205334</speed>
  <fix>3d</fix>
</trkpt>
<trkpt lat="-35.3625008" lon="149.1622087">
  <ele>683.59</ele>
  <time>2026-09-01T19:52:48Z</time>
  <course>268.29</course>
  <speed>26.95</speed>
  <fix>3d</fix>
</trkpt>
<trkpt lat="-35.3625027" lon="149.1621212">
  <ele>683.55</ele>
  <time>2026-09-01T19:52:48Z</time>
  <course>268.83</course>
  <speed>26.87132300427353</speed>
  <fix>3d</fix>
</trkpt>
<trkpt lat="-35.3625008" lon="149.1622087">
  <ele>683.59</ele>
  <time>2026-09-01T19:52:48Z</time>
  <course>268.29</course>
  <speed>26.95</speed>
  <fix>3d</fix>
</trkpt>
<trkpt lat="-35.3625034" lon="149.1620915">
  <ele>683.58</ele>
  <time>2026-09-01T19:52:48Z</time>
  <course>268.79</course>
  <speed>26.861327219629338</speed>
  <fix>3d</fix>
</trkpt>
<trkpt lat="-35.3625021" lon="149.1621494">
  <ele>683.65</ele>
  <time>2026-09-01T19:52:48Z</time>
  <course>268.31</course>
  <speed>26.93</speed>
  <fix>3d</fix>
</trkpt>
<trkpt lat="-35.3625041" lon="149.1620619">
  <ele>683.62</ele>
  <time>2026-09-01T19:52:48Z</time>
  <course>268.76</course>
  <speed>26.85133143812426</speed>
  <fix>3d</fix>
</trkpt>
<trkpt lat="-35.3625021" lon="149.1621494">
  <ele>683.65</ele>
  <time>2026-09-01T19:52:48Z</time>
  <course>268.31</course>
  <speed>26.93</speed>
  <fix>3d</fix>
</trkpt>
<trkpt lat="-35.3625048" lon="149.1620323">
  <ele>683.65</ele>
  <time>2026-09-01T19:52:48Z</time>
  <course>268.69</course>
  <speed>26.83133988454546</speed>
  <fix>3d</fix>
</trkpt>
<trkpt lat="-35.3625036" lon="149.1620902">
  <ele>683.7</ele>
  <time>2026-09-01T19:52:48Z</time>
  <course>268.32</course>
  <speed>26.9</speed>
  <fix>3d</fix>
</trkpt>
<trkpt lat="-35.3625056" lon="149.1620028">
  <ele>683.68</ele>
  <time>2026-09-01T19:52:48Z</time>
  <course>268.64</course>
  <speed>26.82163678823498</speed>
  <fix>3d</fix>
</trkpt>
<trkpt lat="-35.3625036" lon="149.1620902">
  <ele>683.7</ele>
  <time>2026-09-01T19:52:48Z</time>
  <course>268.32</course>
  <speed>26.9</speed>
  <fix>3d</fix>
</trkpt>
<trkpt lat="-35.3625063" lon="149.1619732">
  <ele>683.71</ele>
  <time>2026-09-01T19:52:48Z</time>
  <course>268.64</course>
  <speed>26.81193763979023</speed>
  <fix>3d</fix>
</trkpt>
<trkpt lat="-35.3625051" lon="149.1620309">
  <ele>683.77</ele>
  <time>2026-09-01T19:52:48Z</time>
  <course>268.3</course>
  <speed>26.88</speed>
  <fix>3d</fix>
</trkpt>
<trkpt lat="-35.362507" lon="149.1619437">
  <ele>683.74</ele>
  <time>2026-09-01T19:52:48Z</time>
  <course>268.71</course>
  <speed>26.792247012895356</speed>
  <fix>3d</fix>
</trkpt>
<trkpt lat="-35.3625051" lon="149.1620309">
  <ele>683.77</ele>
  <time>2026-09-01T19:52:48Z</time>
  <course>268.3</course>
  <speed>26.88</speed>
  <fix>3d</fix>
</trkpt>
<trkpt lat="-35.3625078" lon="149.1619141">
  <ele>683.77</ele>
  <time>2026-09-01T19:52:48Z</time>
  <course>268.8</course>
  <speed>26.772256161930024</speed>
  <fix>3d</fix>
</trkpt>
<trkpt lat="-35.3625064" lon="149.1619718">
  <ele>683.83</ele>
  <time>2026-09-01T19:52:48Z</time>
  <course>268.27</course>
  <speed>26.85</speed>
  <fix>3d</fix>
</trkpt>
<trkpt lat="-35.3625085" lon="149.1618846">
  <ele>683.8</ele>
  <time>2026-09-01T19:52:48Z</time>
  <course>268.82</course>
  <speed>26.76226074157413</speed>
  <fix>3d</fix>
</trkpt>
<trkpt lat="-35.3625064" lon="149.1619718">
  <ele>683.83</ele>
  <time>2026-09-01T19:52:48Z</time>
  <course>268.27</course>
  <speed>26.85</speed>
  <fix>3d</fix>
</trkpt>
<trkpt lat="-35.3625092" lon="149.1618551">
  <ele>683.84</ele>
  <time>2026-09-01T19:52:48Z</time>
  <course>268.76</course>
  <speed>26.742269911135068</speed>
  <fix>3d</fix>
</trkpt>
<trkpt lat="-35.3625079" lon="149.1619127">
  <ele>683.9</ele>
  <time>2026-09-01T19:52:48Z</time>
  <course>268.25</course>
  <speed>26.81</speed>
  <fix>3d</fix>
</trkpt>
<trkpt lat="-35.36251" lon="149.1618257">
  <ele>683.87</ele>
  <time>2026-09-01T19:52:48Z</time>
  <course>268.68</course>
  <speed>26.72227909441857</speed>
  <fix>3d</fix>
</trkpt>
<trkpt lat="-35.3625079" lon="149.1619127">
  <ele>683.9</ele>
  <time>2026-09-01T19:52:48Z</time>
  <course>268.25</course>
  <speed>26.81</speed>
  <fix>3d</fix>
</trkpt>
<trkpt lat="-35.3625107" lon="149.1617965">
  <ele>683.91</ele>
  <time>2026-09-01T19:52:48Z</time>
  <course>268.68</course>
  <speed>26.70259350699853</speed>
  <fix>3d</fix>
</trkpt>
<trkpt lat="-35.3625094" lon="149.1618538">
  <ele>683.96</ele>
  <time>2026-09-01T19:52:48Z</time>
  <course>268.24</course>
  <speed>26.78</speed>
  <fix>3d</fix>
</trkpt>
<trkpt lat="-35.3625115" lon="149.161767">
  <ele>683.94</ele>
  <time>2026-09-01T19:52:48Z</time>
  <course>268.74</course>
  <speed>26.68260294648931</speed>
  <fix>3d</fix>
</trkpt>
<trkpt lat="-35.3625094" lon="149.1618538">
  <ele>683.96</ele>
  <time>2026-09-01T19:52:48Z</time>
  <course>268.24</course>
  <speed>26.78</speed>
  <fix>3d</fix>
</trkpt>
<trkpt lat="-35.3625122" lon="149.1617376">
  <ele>683.97</ele>
  <time>2026-09-01T19:52:48Z</time>
  <course>268.72</course>
  <speed>26.662612400138137</speed>
  <fix>3d</fix>
</trkpt>
<trkpt lat="-35.3625109" lon="149.1617948">
  <ele>684.03</ele>
  <time>2026-09-01T19:52:48Z</time>
  <course>268.23</course>
  <speed>26.74</speed>
  <fix>3d</fix>
</trkpt>
<trkpt lat="-35.362513" lon="149.1617083">
  <ele>684.01</ele>
  <time>2026-09-01T19:52:48Z</time>
  <course>268.67</course>
  <speed>26.64262186797688</speed>
  <fix>3d</fix>
</trkpt>
<trkpt lat="-35.3625109" lon="149.1617948">
  <ele>684.03</ele>
  <time>2026-09-01T19:52:48Z</time>
  <course>268.23</course>
  <speed>26.74</speed>
  <fix>3d</fix>
</trkpt>
<trkpt lat="-35.3625137" lon="149.1616789">
  <ele>684.04</ele>
  <time>2026-09-01T19:52:48Z</time>
  <course>268.65</course>
  <speed>26.632626607227458</speed>
  <fix>3d</fix>
</trkpt>
<trkpt lat="-35.3625124" lon="149.1617359">
  <ele>684.09</ele>
  <time>2026-09-01T19:52:48Z</time>
  <course>268.22</course>
  <speed>26.7</speed>
  <fix>3d</fix>
</trkpt>
<trkpt lat="-35.3625145" lon="149.1616493">
  <ele>684.08</ele>
  <time>2026-09-01T19:52:48Z</time>
  <course>268.65</course>
  <speed>26.612946097717177</speed>
  <fix>3d</fix>
</trkpt>
<trkpt lat="-35.3625124" lon="149.1617359">
  <ele>684.09</ele>
  <time>2026-09-01T19:52:48Z</time>
  <course>268.22</course>
  <speed>26.7</speed>
  <fix>3d</fix>
</trkpt>
<trkpt lat="-35.3625152" lon="149.16162">
  <ele>684.11</ele>
  <time>2026-09-01T19:52:48Z</time>
  <course>268.67</course>
  <speed>26.59295583420542</speed>
  <fix>3d</fix>
</trkpt>
<trkpt lat="-35.3625139" lon="149.161677">
  <ele>684.16</ele>
  <time>2026-09-01T19:52:48Z</time>
  <course>268.21</course>
  <speed>26.66</speed>
  <fix>3d</fix>
</trkpt>
<trkpt lat="-35.362516" lon="149.1615907">
  <ele>684.15</ele>
  <time>2026-09-01T19:52:48Z</time>
  <course>268.7</course>
  <speed>26.572965585346324</speed>
  <fix>3d</fix>
</trkpt>
<trkpt lat="-35.3625139" lon="149.161677">
  <ele>684.16</ele>
  <time>2026-09-01T19:52:48Z</time>
  <course>268.21</course>
  <speed>26.66</speed>
  <fix>3d</fix>
</trkpt>
<trkpt lat="-35.3625168" lon="149.1615604">
  <ele>684.18</ele>
  <time>2026-09-01T19:52:48Z</time>
  <course>268.68</course>
  <speed>26.552975351172982</speed>
  <fix>3d</fix>
</trkpt>
<trkpt lat="-35.3625154" lon="149.1616184">
  <ele>684.23</ele>
  <time>2026-09-01T19:52:48Z</time>
  <course>268.19</course>
  <speed>26.62</speed>
  <fix>3d</fix>
</trkpt>
<trkpt lat="-35.3625175" lon="149.1615314">
  <ele>684.21</ele>
  <time>2026-09-01T19:52:48Z</time>
  <course>268.65</course>
  <speed>26.532985131718597</speed>
  <fix>3d</fix>
</trkpt>
<trkpt lat="-35.3625154" lon="149.1616184">
  <ele>684.23</ele>
  <time>2026-09-01T19:52:48Z</time>
  <course>268.19</course>
  <speed>26.62</speed>
  <fix>3d</fix>
</trkpt>
<trkpt lat="-35.3625183" lon="149.1615021">
  <ele>684.24</ele>
  <time>2026-09-01T19:52:48Z</time>
  <course>268.64</course>
  <speed>26.512994927016447</speed>
  <fix>3d</fix>
</trkpt>
<trkpt lat="-35.3625169" lon="149.1615598">
  <ele>684.3</ele>
  <time>2026-09-01T19:52:48Z</time>
  <course>268.18</course>
  <speed>26.58</speed>
  <fix>3d</fix>
</trkpt>
<trkpt lat="-35.362519" lon="149.1614729">
  <ele>684.27</ele>
  <time>2026-09-01T19:52:48Z</time>
  <course>268.64</course>
  <speed>26.49300473709994</speed>
  <fix>3d</fix>
</trkpt>
<trkpt lat="-35.3625169" lon="149.1615598">
  <ele>684.3</ele>
  <time>2026-09-01T19:52:48Z</time>
  <course>268.18</course>
  <speed>26.58</speed>
  <fix>3d</fix>
</trkpt>
<trkpt lat="-35.3625198" lon="149.1614437">
  <ele>684.3</ele>
  <time>2026-09-01T19:52:48Z</time>
  <course>268.61</course>
  <speed>26.48300964769677</speed>
  <fix>3d</fix>
</trkpt>
<trkpt lat="-35.3625184" lon="149.1615014">
  <ele>684.36</ele>
  <time>2026-09-01T19:52:48Z</time>
  <course>268.18</course>
  <speed>26.54</speed>
  <fix>3d</fix>
</trkpt>
<trkpt lat="-35.3625205" lon="149.1614143">
  <ele>684.34</ele>
  <time>2026-09-01T19:52:48Z</time>
  <course>268.62</course>
  <speed>26.463019480021547</speed>
  <fix>3d</fix>
</trkpt>
<trkpt lat="-35.3625184" lon="149.1615014">
  <ele>684.36</ele>
  <time>2026-09-01T19:52:48Z</time>
  <course>268.18</course>
  <speed>26.54</speed>
  <fix>3d</fix>
</trkpt>
<trkpt lat="-35.3625213" lon="149.1613858">
  <ele>684.37</ele>
  <time>2026-09-01T19:52:48Z</time>
  <course>268.65</course>
  <speed>26.443029327215896</speed>
  <fix>3d</fix>
</trkpt>
<trkpt lat="-35.3625199" lon="149.161443">
  <ele>684.42</ele>
  <time>2026-09-01T19:52:48Z</time>
  <course>268.16</course>
  <speed>26.5</speed>
  <fix>3d</fix>
</trkpt>
<trkpt lat="-35.3625221" lon="149.1613567">
  <ele>684.4</ele>
  <time>2026-09-01T19:52:48Z</time>
  <course>268.65</course>
  <speed>26.42303918931356</speed>
  <fix>3d</fix>
</trkpt>
<trkpt lat="-35.3625199" lon="149.161443">
  <ele>684.42</ele>
  <time>2026-09-01T19:52:48Z</time>
  <course>268.16</course>
  <speed>26.5</speed>
  <fix>3d</fix>
</trkpt>
<trkpt lat="-35.3625228" lon="149.1613276">
  <ele>684.43</ele>
  <time>2026-09-01T19:52:48Z</time>
  <course>268.71</course>
  <speed>26.40304906634838</speed>
  <fix>3d</fix>
</trkpt>
<trkpt lat="-35.3625214" lon="149.1613846">
  <ele>684.48</ele>
  <time>2026-09-01T19:52:48Z</time>
  <course>268.15</course>
  <speed>26.46</speed>
  <fix>3d</fix>
</trkpt>
<trkpt lat="-35.3625236" lon="149.1612985">
  <ele>684.46</ele>
  <time>2026-09-01T19:52:48Z</time>
  <course>268.71</course>
  <speed>26.38305895835432</speed>
  <fix>3d</fix>
</trkpt>
<trkpt lat="-35.3625214" lon="149.1613846">
  <ele>684.48</ele>
  <time>2026-09-01T19:52:48Z</time>
  <course>268.15</course>
  <speed>26.46</speed>
  <fix>3d</fix>
</trkpt>
<trkpt lat="-35.3625243" lon="149.1612696">
  <ele>684.48</ele>
  <time>2026-09-01T19:52:48Z</time>
  <course>268.66</course>
  <speed>26.362755925737357</speed>
  <fix>3d</fix>
</trkpt>
<trkpt lat="-35.3625229" lon="149.1613265">
  <ele>684.54</ele>
  <time>2026-09-01T19:52:48Z</time>
  <course>268.15</course>
  <speed>26.42</speed>
  <fix>3d</fix>
</trkpt>
<trkpt lat="-35.3625251" lon="149.1612407">
  <ele>684.51</ele>
  <time>2026-09-01T19:52:48Z</time>
  <course>268.62</course>
  <speed>26.3427656103151</speed>
  <fix>3d</fix>
</trkpt>
<trkpt lat="-35.3625229" lon="149.1613265">
  <ele>684.54</ele>
  <time>2026-09-01T19:52:48Z</time>
  <course>268.15</course>
  <speed>26.42</speed>
  <fix>3d</fix>
</trkpt>
<trkpt lat="-35.3625258" lon="149.1612119">
  <ele>684.53</ele>
  <time>2026-09-01T19:52:48Z</time>
  <course>268.69</course>
  <speed>26.31278016477924</speed>
  <fix>3d</fix>
</trkpt>
<trkpt lat="-35.3625245" lon="149.1612683">
  <ele>684.59</ele>
  <time>2026-09-01T19:52:48Z</time>
  <course>268.16</course>
  <speed>26.39</speed>
  <fix>3d</fix>
</trkpt>
<trkpt lat="-35.3625266" lon="149.1611833">
  <ele>684.55</ele>
  <time>2026-09-01T19:52:48Z</time>
  <course>268.77</course>
  <speed>26.292789886202645</speed>
  <fix>3d</fix>
</trkpt>
<trkpt lat="-35.3625245" lon="149.1612683">
  <ele>684.59</ele>
  <time>2026-09-01T19:52:48Z</time>
  <course>268.16</course>
  <speed>26.39</speed>
  <fix>3d</fix>
</trkpt>
<trkpt lat="-35.3625273" lon="149.1611546">
  <ele>684.57</ele>
  <time>2026-09-01T19:52:48Z</time>
  <course>268.75</course>
  <speed>26.262494169442476</speed>
  <fix>3d</fix>
</trkpt>
<trkpt lat="-35.362526" lon="149.1612103">
  <ele>684.64</ele>
  <time>2026-09-01T19:52:48Z</time>
  <course>268.16</course>
  <speed>26.35</speed>
  <fix>3d</fix>
</trkpt>
<trkpt lat="-35.362528" lon="149.1611258">
  <ele>684.59</ele>
  <time>2026-09-01T19:52:48Z</time>
  <course>268.75</course>
  <speed>26.242503691530654</speed>
  <fix>3d</fix>
</trkpt>
<trkpt lat="-35.362526" lon="149.1612103">
  <ele>684.64</ele>
  <time>2026-09-01T19:52:48Z</time>
  <course>268.16</course>
  <speed>26.35</speed>
  <fix>3d</fix>
</trkpt>
<trkpt lat="-35.3625288" lon="149.1610971">
  <ele>684.61</ele>
  <time>2026-09-01T19:52:48Z</time>
  <course>268.71</course>
  <speed>26.2219030583213</speed>
  <fix>3d</fix>
</trkpt>
<trkpt lat="-35.3625275" lon="149.1611523">
  <ele>684.68</ele>
  <time>2026-09-01T19:52:48Z</time>
  <course>268.17</course>
  <speed>26.31</speed>
  <fix>3d</fix>
</trkpt>
<trkpt lat="-35.3625295" lon="149.1610681">
  <ele>684.63</ele>
  <time>2026-09-01T19:52:48Z</time>
  <course>268.73</course>
  <speed>26.201912143963845</speed>
  <fix>3d</fix>
</trkpt>
<trkpt lat="-35.3625275" lon="149.1611523">
  <ele>684.68</ele>
  <time>2026-09-01T19:52:48Z</time>
  <course>268.17</course>
  <speed>26.31</speed>
  <fix>3d</fix>
</trkpt>
<trkpt lat="-35.3625302" lon="149.1610394">
  <ele>684.64</ele>
  <time>2026-09-01T19:52:48Z</time>
  <course>268.77</course>
  <speed>26.191616979484103</speed>
  <fix>3d</fix>
</trkpt>
<trkpt lat="-35.362529" lon="149.1610943">
  <ele>684.71</ele>
  <time>2026-09-01T19:52:48Z</time>
  <course>268.19</course>
  <speed>26.28</speed>
  <fix>3d</fix>
</trkpt>
<trkpt lat="-35.3625309" lon="149.1610106">
  <ele>684.66</ele>
  <time>2026-09-01T19:52:48Z</time>
  <course>268.81</course>
  <speed>26.171329733125905</speed>
  <fix>3d</fix>
</trkpt>
<trkpt lat="-35.362529" lon="149.1610943">
  <ele>684.71</ele>
  <time>2026-09-01T19:52:48Z</time>
  <course>268.19</course>
  <speed>26.28</speed>
  <fix>3d</fix>
</trkpt>
<trkpt lat="-35.3625317" lon="149.1609809">
  <ele>684.67</ele>
  <time>2026-09-01T19:52:48Z</time>
  <course>268.85</course>
  <speed>26.15104586818661</speed>
  <fix>3d</fix>
</trkpt>
<trkpt lat="-35.3625305" lon="149.1610364">
  <ele>684.74</ele>
  <time>2026-09-01T19:52:48Z</time>
  <course>268.22</course>
  <speed>26.25</speed>
  <fix>3d</fix>
</trkpt>
<trkpt lat="-35.3625324" lon="149.1609522">
  <ele>684.69</ele>
  <time>2026-09-01T19:52:48Z</time>
  <course>268.86</course>
  <speed>26.13076539254065</speed>
  <fix>3d</fix>
</trkpt>
<trkpt lat="-35.3625305" lon="149.1610364">
  <ele>684.74</ele>
  <time>2026-09-01T19:52:48Z</time>
  <course>268.22</course>
  <speed>26.25</speed>
  <fix>3d</fix>
</trkpt>
<trkpt lat="-35.3625331" lon="149.1609237">
  <ele>684.7</ele>
  <time>2026-09-01T19:52:48Z</time>
  <course>268.86</course>
  <speed>26.110488314085586</speed>
  <fix>3d</fix>
</trkpt>
<trkpt lat="-35.362532" lon="149.1609786">
  <ele>684.77</ele>
  <time>2026-09-01T19:52:48Z</time>
  <course>268.26</course>
  <speed>26.23</speed>
  <fix>3d</fix>
</trkpt>
<trkpt lat="-35.3625337" lon="149.160895">
  <ele>684.72</ele>
  <time>2026-09-01T19:52:48Z</time>
  <course>268.86</course>
  <speed>26.100492332521238</speed>
  <fix>3d</fix>
</trkpt>
<trkpt lat="-35.362532" lon="149.1609786">
  <ele>684.77</ele>
  <time>2026-09-01T19:52:48Z</time>
  <course>268.26</course>
  <speed>26.23</speed>
  <fix>3d</fix>
</trkpt>
<trkpt lat="-35.3625344" lon="149.1608663">
  <ele>684.74</ele>
  <time>2026-09-01T19:52:48Z</time>
  <course>268.86</course>
  <speed>26.080500378635374</speed>
  <fix>3d</fix>
</trkpt>
<trkpt lat="-35.3625333" lon="149.1609209">
  <ele>684.81</ele>
  <time>2026-09-01T19:52:48Z</time>
  <course>268.29</course>
  <speed>26.2</speed>
  <fix>3d</fix>
</trkpt>
<trkpt lat="-35.3625351" lon="149.1608376">
  <ele>684.76</ele>
  <time>2026-09-01T19:52:48Z</time>
  <course>268.93</course>
  <speed>26.070504406320946</speed>
  <fix>3d</fix>
</trkpt>
<trkpt lat="-35.3625333" lon="149.1609209">
  <ele>684.81</ele>
  <time>2026-09-01T19:52:48Z</time>
  <course>268.29</course>
  <speed>26.2</speed>
  <fix>3d</fix>
</trkpt>
<trkpt lat="-35.3625358" lon="149.1608086">
  <ele>684.78</ele>
  <time>2026-09-01T19:52:48Z</time>
  <course>269.01</course>
  <speed>26.06022639963053</speed>
  <fix>3d</fix>
</trkpt>
<trkpt lat="-35.3625348" lon="149.1608632">
  <ele>684.84</ele>
  <time>2026-09-01T19:52:48Z</time>
  <course>268.31</course>
  <speed>26.17</speed>
  <fix>3d</fix>
</trkpt>
<trkpt lat="-35.3625365" lon="149.1607799">
  <ele>684.79</ele>
  <time>2026-09-01T19:52:48Z</time>
  <course>269.07</course>
  <speed>26.049952015310893</speed>
  <fix>3d</fix>
</trkpt>
<trkpt lat="-35.3625348" lon="149.1608632">
  <ele>684.84</ele>
  <time>2026-09-01T19:52:48Z</time>
  <course>268.31</course>
  <speed>26.17</speed>
  <fix>3d</fix>
</trkpt>
<trkpt lat="-35.3625372" lon="149.1607512">
  <ele>684.81</ele>
  <time>2026-09-01T19:52:48Z</time>
  <course>269.05</course>
  <speed>26.039681257649832</speed>
  <fix>3d</fix>
</trkpt>
<trkpt lat="-35.3625361" lon="149.1608056">
  <ele>684.87</ele>
  <time>2026-09-01T19:52:48Z</time>
  <course>268.32</course>
  <speed>26.14</speed>
  <fix>3d</fix>
</trkpt>
<trkpt lat="-35.3625378" lon="149.1607225">
  <ele>684.82</ele>
  <time>2026-09-01T19:52:48Z</time>
  <course>268.98</course>
  <speed>26.029414130940403</speed>
  <fix>3d</fix>
</trkpt>
<trkpt lat="-35.3625361" lon="149.1608056">
  <ele>684.87</ele>
  <time>2026-09-01T19:52:48Z</time>
  <course>268.32</course>
  <speed>26.14</speed>
  <fix>3d</fix>
</trkpt>
<trkpt lat="-35.3625385" lon="149.1606938">
  <ele>684.83</ele>
  <time>2026-09-01T19:52:48Z</time>
  <course>268.98</course>
  <speed>26.019150639480912</speed>
  <fix>3d</fix>
</trkpt>
<trkpt lat="-35.3625375" lon="149.1607481">
  <ele>684.9</ele>
  <time>2026-09-01T19:52:48Z</time>
  <course>268.36</course>
  <speed>26.12</speed>
  <fix>3d</fix>
</trkpt>
<trkpt lat="-35.3625391" lon="149.1606652">
  <ele>684.85</ele>
  <time>2026-09-01T19:52:48Z</time>
  <course>269.01</course>
  <speed>26.009154157719163</speed>
  <fix>3d</fix>
</trkpt>
<trkpt lat="-35.3625375" lon="149.1607481">
  <ele>684.9</ele>
  <time>2026-09-01T19:52:48Z</time>
  <course>268.36</course>
  <speed>26.12</speed>
  <fix>3d</fix>
</trkpt>
<trkpt lat="-35.3625398" lon="149.1606365">
  <ele>684.86</ele>
  <time>2026-09-01T19:52:48Z</time>
  <course>268.99</course>
  <speed>25.99915767866336</speed>
  <fix>3d</fix>
</trkpt>
<trkpt lat="-35.3625388" lon="149.1606906">
  <ele>684.93</ele>
  <time>2026-09-01T19:52:48Z</time>
  <course>268.38</course>
  <speed>26.1</speed>
  <fix>3d</fix>
</trkpt>
<trkpt lat="-35.3625404" lon="149.1606085">
  <ele>684.86</ele>
  <time>2026-09-01T19:52:48Z</time>
  <course>269.0</course>
  <speed>25.989428620113987</speed>
  <fix>3d</fix>
</trkpt>
<trkpt lat="-35.3625388" lon="149.1606906">
  <ele>684.93</ele>
  <time>2026-09-01T19:52:48Z</time>
  <course>268.38</course>
  <speed>26.1</speed>
  <fix>3d</fix>
</trkpt>
<trkpt lat="-35.3625411" lon="149.1605801">
  <ele>684.87</ele>
  <time>2026-09-01T19:52:48Z</time>
  <course>269.03</course>
  <speed>25.97943224937758</speed>
  <fix>3d</fix>
</trkpt>
<trkpt lat="-35.3625401" lon="149.1606332">
  <ele>684.95</ele>
  <time>2026-09-01T19:52:48Z</time>
  <course>268.39</course>
  <speed>26.08</speed>
  <fix>3d</fix>
</trkpt>
<trkpt lat="-35.3625417" lon="149.1605515">
  <ele>684.88</ele>
  <time>2026-09-01T19:52:48Z</time>
  <course>269.0</course>
  <speed>25.97943224937758</speed>
  <fix>3d</fix>
</trkpt>
<trkpt lat="-35.3625401" lon="149.1606332">
  <ele>684.95</ele>
  <time>2026-09-01T19:52:48Z</time>
  <course>268.39</course>
  <speed>26.08</speed>
  <fix>3d</fix>
</trkpt>
<trkpt lat="-35.3625424" lon="149.1605227">
  <ele>684.89</ele>
  <time>2026-09-01T19:52:48Z</time>
  <course>269.0</course>
  <speed>25.97943224937758</speed>
  <fix>3d</fix>
</trkpt>
<trkpt lat="-35.3625414" lon="149.1605758">
  <ele>684.96</ele>
  <time>2026-09-01T19:52:48Z</time>
  <course>268.38</course>
  <speed>26.07</speed>
  <fix>3d</fix>
</trkpt>
<trkpt lat="-35.362543" lon="149.1604941">
  <ele>684.9</ele>
  <time>2026-09-01T19:52:48Z</time>
  <course>269.03</course>
  <speed>25.9694358814357</speed>
  <fix>3d</fix>
</trkpt>
<trkpt lat="-35.3625414" lon="149.1605758">
  <ele>684.96</ele>
  <time>2026-09-01T19:52:48Z</time>
  <course>268.38</course>
  <speed>26.07</speed>
  <fix>3d</fix>
</trkpt>
<trkpt lat="-35.3625437" lon="149.1604651">
  <ele>684.91</ele>
  <time>2026-09-01T19:52:48Z</time>
  <course>269.0</course>
  <speed>25.9694358814357</speed>
  <fix>3d</fix>
</trkpt>
<trkpt lat="-35.3625427" lon="149.1605182">
  <ele>684.98</ele>
  <time>2026-09-01T19:52:48Z</time>
  <course>268.37</course>
  <speed>26.05</speed>
  <fix>3d</fix>
</trkpt>
<trkpt lat="-35.3625443" lon="149.1604364">
  <ele>684.91</ele>
  <time>2026-09-01T19:52:48Z</time>
  <course>269.08</course>
  <speed>25.9694358814357</speed>
  <fix>3d</fix>
</trkpt>
<trkpt lat="-35.3625427" lon="149.1605182">
  <ele>684.98</ele>
  <time>2026-09-01T19:52:48Z</time>
  <course>268.37</course>
  <speed>26.05</speed>
  <fix>3d</fix>
</trkpt>
<trkpt lat="-35.362545" lon="149.1604076">
  <ele>684.92</ele>
  <time>2026-09-01T19:52:48Z</time>
  <course>269.07</course>
  <speed>25.969168257762895</speed>
  <fix>3d</fix>
</trkpt>
<trkpt lat="-35.362544" lon="149.1604608">
  <ele>684.99</ele>
  <time>2026-09-01T19:52:48Z</time>
  <course>268.37</course>
  <speed>26.04</speed>
  <fix>3d</fix>
</trkpt>
<trkpt lat="-35.3625457" lon="149.160378">
  <ele>684.92</ele>
  <time>2026-09-01T19:52:48Z</time>
  <course>269.05</course>
  <speed>25.969168257762895</speed>
  <fix>3d</fix>
</trkpt>
<trkpt lat="-35.362544" lon="149.1604608">
  <ele>684.99</ele>
  <time>2026-09-01T19:52:48Z</time>
  <course>268.37</course>
  <speed>26.04</speed>
  <fix>3d</fix>
</trkpt>
<trkpt lat="-35.3625463" lon="149.1603494">
  <ele>684.93</ele>
  <time>2026-09-01T19:52:48Z</time>
  <course>269.07</course>
  <speed>25.969168257762895</speed>
  <fix>3d</fix>
</trkpt>
<trkpt lat="-35.3625454" lon="149.1604035">
  <ele>685.0</ele>
  <time>2026-09-01T19:52:48Z</time>
  <course>268.37</course>
  <speed>26.02</speed>
  <fix>3d</fix>
</trkpt>
<trkpt lat="-35.362547" lon="149.1603207">
  <ele>684.93</ele>
  <time>2026-09-01T19:52:48Z</time>
  <course>269.07</course>
  <speed>25.95917178956216</speed>
  <fix>3d</fix>
</trkpt>
<trkpt lat="-35.3625454" lon="149.1604035">
  <ele>685.0</ele>
  <time>2026-09-01T19:52:48Z</time>
  <course>268.37</course>
  <speed>26.02</speed>
  <fix>3d</fix>
</trkpt>
<trkpt lat="-35.3625476" lon="149.1602919">
  <ele>684.94</ele>
  <time>2026-09-01T19:52:48Z</time>
  <course>269.04</course>
  <speed>25.95917178956216</speed>
  <fix>3d</fix>
</trkpt>
<trkpt lat="-35.3625467" lon="149.1603462">
  <ele>685.01</ele>
  <time>2026-09-01T19:52:48Z</time>
  <course>268.38</course>
  <speed>26.01</speed>
  <fix>3d</fix>
</trkpt>
<trkpt lat="-35.3625483" lon="149.1602632">
  <ele>684.94</ele>
  <time>2026-09-01T19:52:48Z</time>
  <course>268.93</course>
  <speed>25.959439516291564</speed>
  <fix>3d</fix>
</trkpt>
<trkpt lat="-35.3625467" lon="149.1603462">
  <ele>685.01</ele>
  <time>2026-09-01T19:52:48Z</time>
  <course>268.38</course>
  <speed>26.01</speed>
  <fix>3d</fix>
</trkpt>
<trkpt lat="-35.362549" lon="149.1602345">
  <ele>684.95</ele>
  <time>2026-09-01T19:52:48Z</time>
  <course>268.9</course>
  <speed>25.959986517716064</speed>
  <fix>3d</fix>
</trkpt>
<trkpt lat="-35.362548" lon="149.1602889">
  <ele>685.02</ele>
  <time>2026-09-01T19:52:48Z</time>
  <course>268.37</course>
  <speed>26.0</speed>
  <fix>3d</fix>
</trkpt>
<trkpt lat="-35.3625496" lon="149.1602055">
  <ele>684.95</ele>
  <time>2026-09-01T19:52:48Z</time>
  <course>268.94</course>
  <speed>25.960265792167846</speed>
  <fix>3d</fix>
</trkpt>
<trkpt lat="-35.362548" lon="149.1602889">
  <ele>685.02</ele>
  <time>2026-09-01T19:52:48Z</time>
  <course>268.37</course>
  <speed>26.0</speed>
  <fix>3d</fix>
</trkpt>
<trkpt lat="-35.3625503" lon="149.1601768">
  <ele>684.96</ele>
  <time>2026-09-01T19:52:48Z</time>
  <course>269.01</course>
  <speed>25.960265792167846</speed>
  <fix>3d</fix>
</trkpt>
<trkpt lat="-35.3625494" lon="149.1602317">
  <ele>685.03</ele>
  <time>2026-09-01T19:52:48Z</time>
  <course>268.33</course>
  <speed>25.98</speed>
  <fix>3d</fix>
</trkpt>
<trkpt lat="-35.362551" lon="149.1601481">
  <ele>684.96</ele>
  <time>2026-09-01T19:52:48Z</time>
  <course>269.05</course>
  <speed>25.960548915614243</speed>
  <fix>3d</fix>
</trkpt>
<trkpt lat="-35.3625494" lon="149.1602317">
  <ele>685.03</ele>
  <time>2026-09-01T19:52:48Z</time>
  <course>268.33</course>
  <speed>25.98</speed>
  <fix>3d</fix>
</trkpt>
<trkpt lat="-35.3625518" lon="149.1601194">
  <ele>684.97</ele>
  <time>2026-09-01T19:52:48Z</time>
  <course>269.06</course>
  <speed>25.960548915614243</speed>
  <fix>3d</fix>
</trkpt>
<trkpt lat="-35.3625507" lon="149.1601745">
  <ele>685.05</ele>
  <time>2026-09-01T19:52:48Z</time>
  <course>268.29</course>
  <speed>25.97</speed>
  <fix>3d</fix>
</trkpt>
<trkpt lat="-35.3625524" lon="149.1600907">
  <ele>684.97</ele>
  <time>2026-09-01T19:52:48Z</time>
  <course>269.04</course>
  <speed>25.960548915614243</speed>
  <fix>3d</fix>
</trkpt>
<trkpt lat="-35.3625507" lon="149.1601745">
  <ele>685.05</ele>
  <time>2026-09-01T19:52:48Z</time>
  <course>268.29</course>
  <speed>25.97</speed>
  <fix>3d</fix>
</trkpt>
<trkpt lat="-35.3625532" lon="149.1600621">
  <ele>684.98</ele>
  <time>2026-09-01T19:52:48Z</time>
  <course>269.05</course>
  <speed>25.950840063473862</speed>
  <fix>3d</fix>
</trkpt>
<trkpt lat="-35.3625521" lon="149.1601174">
  <ele>685.06</ele>
  <time>2026-09-01T19:52:48Z</time>
  <course>268.27</course>
  <speed>25.96</speed>
  <fix>3d</fix>
</trkpt>
<trkpt lat="-35.3625539" lon="149.1600334">
  <ele>684.99</ele>
  <time>2026-09-01T19:52:48Z</time>
  <course>269.04</course>
  <speed>25.950840063473862</speed>
  <fix>3d</fix>
</trkpt>
<trkpt lat="-35.3625521" lon="149.1601174">
  <ele>685.06</ele>
  <time>2026-09-01T19:52:48Z</time>
  <course>268.27</course>
  <speed>25.96</speed>
  <fix>3d</fix>
</trkpt>
<trkpt lat="-35.3625546" lon="149.1600048">
  <ele>684.99</ele>
  <time>2026-09-01T19:52:48Z</time>
  <course>269.01</course>
  <speed>25.94084424223699</speed>
  <fix>3d</fix>
</trkpt>
<trkpt lat="-35.3625536" lon="149.1600602">
  <ele>685.07</ele>
  <time>2026-09-01T19:52:48Z</time>
  <course>268.26</course>
  <speed>25.94</speed>
  <fix>3d</fix>
</trkpt>
<trkpt lat="-35.3625553" lon="149.1599761">
  <ele>685.0</ele>
  <time>2026-09-01T19:52:48Z</time>
  <course>268.98</course>
  <speed>25.94084424223699</speed>
  <fix>3d</fix>
</trkpt>
<trkpt lat="-35.3625536" lon="149.1600602">
  <ele>685.07</ele>
  <time>2026-09-01T19:52:48Z</time>
  <course>268.26</course>
  <speed>25.94</speed>
  <fix>3d</fix>
</trkpt>
<trkpt lat="-35.362556" lon="149.1599475">
  <ele>685.01</ele>
  <time>2026-09-01T19:52:48Z</time>
  <course>268.96</course>
  <speed>25.941135287415623</speed>
  <fix>3d</fix>
</trkpt>
<trkpt lat="-35.362555" lon="149.1600031">
  <ele>685.08</ele>
  <time>2026-09-01T19:52:48Z</time>
  <course>268.26</course>
  <speed>25.93</speed>
  <fix>3d</fix>
</trkpt>
<trkpt lat="-35.3625567" lon="149.1599189">
  <ele>685.02</ele>
  <time>2026-09-01T19:52:48Z</time>
  <course>268.97</course>
  <speed>25.941135287415623</speed>
  <fix>3d</fix>
</trkpt>
<trkpt lat="-35.362555" lon="149.1600031">
  <ele>685.08</ele>
  <time>2026-09-01T19:52:48Z</time>
  <course>268.26</course>
  <speed>25.93</speed>
  <fix>3d</fix>
</trkpt>
<trkpt lat="-35.3625574" lon="149.1598903">
  <ele>685.03</ele>
  <time>2026-09-01T19:52:48Z</time>
  <course>269.01</course>
  <speed>25.93113958159186</speed>
  <fix>3d</fix>
</trkpt>
<trkpt lat="-35.3625564" lon="149.159946">
  <ele>685.11</ele>
  <time>2026-09-01T19:52:48Z</time>
  <course>268.24</course>
  <speed>25.92</speed>
  <fix>3d</fix>
</trkpt>
<trkpt lat="-35.3625582" lon="149.1598617">
  <ele>685.04</ele>
  <time>2026-09-01T19:52:48Z</time>
  <course>269.0</course>
  <speed>25.93113958159186</speed>
  <fix>3d</fix>
</trkpt>
<trkpt lat="-35.3625564" lon="149.159946">
  <ele>685.11</ele>
  <time>2026-09-01T19:52:48Z</time>
  <course>268.24</course>
  <speed>25.92</speed>
  <fix>3d</fix>
</trkpt>
<trkpt lat="-35.3625589" lon="149.1598331">
  <ele>685.05</ele>
  <time>2026-09-01T19:52:48Z</time>
  <course>269.01</course>
  <speed>25.92143900326523</speed>
  <fix>3d</fix>
</trkpt>
<trkpt lat="-35.3625578" lon="149.1598889">
  <ele>685.13</ele>
  <time>2026-09-01T19:52:48Z</time>
  <course>268.22</course>
  <speed>25.91</speed>
  <fix>3d</fix>
</trkpt>
<trkpt lat="-35.3625596" lon="149.1598053">
  <ele>685.06</ele>
  <time>2026-09-01T19:52:48Z</time>
  <course>269.04</course>
  <speed>25.92143900326523</speed>
  <fix>3d</fix>
</trkpt>
<trkpt lat="-35.3625578" lon="149.1598889">
  <ele>685.13</ele>
  <time>2026-09-01T19:52:48Z</time>
  <course>268.22</course>
  <speed>25.91</speed>
  <fix>3d</fix>
</trkpt>
<trkpt lat="-35.3625603" lon="149.1597758">
  <ele>685.07</ele>
  <time>2026-09-01T19:52:48Z</time>
  <course>269.0</course>
  <speed>25.911443417918655</speed>
  <fix>3d</fix>
</trkpt>
<trkpt lat="-35.3625593" lon="149.1598318">
  <ele>685.15</ele>
  <time>2026-09-01T19:52:48Z</time>
  <course>268.21</course>
  <speed>25.9</speed>
  <fix>3d</fix>
</trkpt>
<trkpt lat="-35.3625611" lon="149.1597475">
  <ele>685.08</ele>
  <time>2026-09-01T19:52:48Z</time>
  <course>268.95</course>
  <speed>25.911443417918655</speed>
  <fix>3d</fix>
</trkpt>
<trkpt lat="-35.3625593" lon="149.1598318">
  <ele>685.15</ele>
  <time>2026-09-01T19:52:48Z</time>
  <course>268.21</course>
  <speed>25.9</speed>
  <fix>3d</fix>
</trkpt>
<trkpt lat="-35.3625618" lon="149.1597189">
  <ele>685.09</ele>
  <time>2026-09-01T19:52:48Z</time>
  <course>268.89</course>
  <speed>25.901447835980136</speed>
  <fix>3d</fix>
</trkpt>
<trkpt lat="-35.3625607" lon="149.1597747">
  <ele>685.16</ele>
  <time>2026-09-01T19:52:48Z</time>
  <course>268.21</course>
  <speed>25.88</speed>
  <fix>3d</fix>
</trkpt>
<trkpt lat="-35.3625625" lon="149.1596904">
  <ele>685.1</ele>
  <time>2026-09-01T19:52:48Z</time>
  <course>268.92</course>
  <speed>25.901447835980136</speed>
  <fix>3d</fix>
</trkpt>
<trkpt lat="-35.3625607" lon="149.1597747">
  <ele>685.16</ele>
  <time>2026-09-01T19:52:48Z</time>
  <course>268.21</course>
  <speed>25.88</speed>
  <fix>3d</fix>
</trkpt>
<trkpt lat="-35.3625633" lon="149.1596619">
  <ele>685.1</ele>
  <time>2026-09-01T19:52:48Z</time>
  <course>268.95</course>
  <speed>25.891751582308988</speed>
  <fix>3d</fix>
</trkpt>
<trkpt lat="-35.3625622" lon="149.1597178">
  <ele>685.17</ele>
  <time>2026-09-01T19:52:48Z</time>
  <course>268.2</course>
  <speed>25.87</speed>
  <fix>3d</fix>
</trkpt>
<trkpt lat="-35.362564" lon="149.1596332">
  <ele>685.1</ele>
  <time>2026-09-01T19:52:48Z</time>
  <course>268.99</course>
  <speed>25.891751582308988</speed>
  <fix>3d</fix>
</trkpt>
<trkpt lat="-35.3625622" lon="149.1597178">
  <ele>685.17</ele>
  <time>2026-09-01T19:52:48Z</time>
  <course>268.2</course>
  <speed>25.87</speed>
  <fix>3d</fix>
</trkpt>
<trkpt lat="-35.3625647" lon="149.1596047">
  <ele>685.11</ele>
  <time>2026-09-01T19:52:48Z</time>
  <course>268.95</course>
  <speed>25.881456682343057</speed>
  <fix>3d</fix>
</trkpt>
<trkpt lat="-35.3625636" lon="149.1596608">
  <ele>685.18</ele>
  <time>2026-09-01T19:52:48Z</time>
  <course>268.19</course>
  <speed>25.86</speed>
  <fix>3d</fix>
</trkpt>
<trkpt lat="-35.3625654" lon="149.1595762">
  <ele>685.11</ele>
  <time>2026-09-01T19:52:48Z</time>
  <course>268.92</course>
  <speed>25.881456682343057</speed>
  <fix>3d</fix>
</trkpt>
<trkpt lat="-35.3625636" lon="149.1596608">
  <ele>685.18</ele>
  <time>2026-09-01T19:52:48Z</time>
  <course>268.19</course>
  <speed>25.86</speed>
  <fix>3d</fix>
</trkpt>
<trkpt lat="-35.3625662" lon="149.1595478">
  <ele>685.11</ele>
  <time>2026-09-01T19:52:48Z</time>
  <course>268.95</course>
  <speed>25.881456682343057</speed>
  <fix>3d</fix>
</trkpt>
<trkpt lat="-35.3625651" lon="149.1596039">
  <ele>685.18</ele>
  <time>2026-09-01T19:52:48Z</time>
  <course>268.19</course>
  <speed>25.85</speed>
  <fix>3d</fix>
</trkpt>
<trkpt lat="-35.3625669" lon="149.1595193">
  <ele>685.12</ele>
  <time>2026-09-01T19:52:48Z</time>
  <course>268.99</course>
  <speed>25.871461110652408</speed>
  <fix>3d</fix>
</trkpt>
<trkpt lat="-35.3625651" lon="149.1596039">
  <ele>685.18</ele>
  <time>2026-09-01T19:52:48Z</time>
  <course>268.19</course>
  <speed>25.85</speed>
  <fix>3d</fix>
</trkpt>
<trkpt lat="-35.3625676" lon="149.1594908">
  <ele>685.12</ele>
  <time>2026-09-01T19:52:48Z</time>
  <course>269.0</course>
  <speed>25.871461110652408</speed>
  <fix>3d</fix>
</trkpt>
<trkpt lat="-35.3625665" lon="149.159547">
  <ele>685.18</ele>
  <time>2026-09-01T19:52:48Z</time>
  <course>268.19</course>
  <speed>25.85</speed>
  <fix>3d</fix>
</trkpt>
<trkpt lat="-35.3625684" lon="149.1594624">
  <ele>685.12</ele>
  <time>2026-09-01T19:52:48Z</time>
  <course>268.98</course>
  <speed>25.881456682343057</speed>
  <fix>3d</fix>
</trkpt>
<trkpt lat="-35.3625665" lon="149.159547">
  <ele>685.18</ele>
  <time>2026-09-01T19:52:48Z</time>
  <course>268.19</course>
  <speed>25.85</speed>
  <fix>3d</fix>
</trkpt>
<trkpt lat="-35.3625691" lon="149.1594339">
  <ele>685.12</ele>
  <time>2026-09-01T19:52:48Z</time>
  <course>268.98</course>
  <speed>25.871461110652408</speed>
  <fix>3d</fix>
</trkpt>
<trkpt lat="-35.362568" lon="149.1594901">
  <ele>685.19</ele>
  <time>2026-09-01T19:52:48Z</time>
  <course>268.2</course>
  <speed>25.85</speed>
  <fix>3d</fix>
</trkpt>
<trkpt lat="-35.3625698" lon="149.1594055">
  <ele>685.12</ele>
  <time>2026-09-01T19:52:48Z</time>
  <course>269.0</course>
  <speed>25.87116541634721</speed>
  <fix>3d</fix>
</trkpt>
<trkpt lat="-35.362568" lon="149.1594901">
  <ele>685.19</ele>
  <time>2026-09-01T19:52:48Z</time>
  <course>268.2</course>
  <speed>25.85</speed>
  <fix>3d</fix>
</trkpt>
<trkpt lat="-35.3625705" lon="149.159377">
  <ele>685.12</ele>
  <time>2026-09-01T19:52:48Z</time>
  <course>269.02</course>
  <speed>25.86116973379201</speed>
  <fix>3d</fix>
</trkpt>
<trkpt lat="-35.3625695" lon="149.1594332">
  <ele>685.19</ele>
  <time>2026-09-01T19:52:48Z</time>
  <course>268.21</course>
  <speed>25.84</speed>
  <fix>3d</fix>
</trkpt>
<trkpt lat="-35.3625712" lon="149.1593485">
  <ele>685.12</ele>
  <time>2026-09-01T19:52:48Z</time>
  <course>269.05</course>
  <speed>25.86116973379201</speed>
  <fix>3d</fix>
</trkpt>
<trkpt lat="-35.3625695" lon="149.1594332">
  <ele>685.19</ele>
  <time>2026-09-01T19:52:48Z</time>
  <course>268.21</course>
  <speed>25.84</speed>
  <fix>3d</fix>
</trkpt>
<trkpt lat="-35.362572" lon="149.1593201">
  <ele>685.12</ele>
  <time>2026-09-01T19:52:49Z</time>
  <course>269.07</course>
  <speed>25.86087778865984</speed>
  <fix>3d</fix>
</trkpt>
<trkpt lat="-35.3625709" lon="149.1593763">
  <ele>685.19</ele>
  <time>2026-09-01T19:52:49Z</time>
  <course>268.23</course>
  <speed>25.84</speed>
  <fix>3d</fix>
</trkpt>
<trkpt lat="-35.3625727" lon="149.1592916">
  <ele>685.12</ele>
  <time>2026-09-01T19:52:49Z</time>
  <course>269.05</course>
  <speed>25.860589707119985</speed>
  <fix>3d</fix>
</trkpt>
<trkpt lat="-35.3625709" lon="149.1593763">
  <ele>685.19</ele>
  <time>2026-09-01T19:52:49Z</time>
  <course>268.23</course>
  <speed>25.84</speed>
  <fix>3d</fix>
</trkpt>
<trkpt lat="-35.3625734" lon="149.1592632">
  <ele>685.12</ele>
  <time>2026-09-01T19:52:49Z</time>
  <course>269.08</course>
  <speed>25.860589707119985</speed>
  <fix>3d</fix>
</trkpt>
<trkpt lat="-35.3625724" lon="149.1593193">
  <ele>685.19</ele>
  <time>2026-09-01T19:52:49Z</time>
  <course>268.25</course>
  <speed>25.84</speed>
  <fix>3d</fix>
</trkpt>
<trkpt lat="-35.3625741" lon="149.1592347">
  <ele>685.11</ele>
  <time>2026-09-01T19:52:49Z</time>
  <course>269.08</course>
  <speed>25.860305489301552</speed>
  <fix>3d</fix>
</trkpt>
<trkpt lat="-35.3625724" lon="149.1593193">
  <ele>685.19</ele>
  <time>2026-09-01T19:52:49Z</time>
  <course>268.25</course>
  <speed>25.84</speed>
  <fix>3d</fix>
</trkpt>
<trkpt lat="-35.3625748" lon="149.1592063">
  <ele>685.11</ele>
  <time>2026-09-01T19:52:49Z</time>
  <course>269.09</course>
  <speed>25.860305489301552</speed>
  <fix>3d</fix>
</trkpt>
<trkpt lat="-35.3625738" lon="149.1592623">
  <ele>685.19</ele>
  <time>2026-09-01T19:52:49Z</time>
  <course>268.28</course>
  <speed>25.83</speed>
  <fix>3d</fix>
</trkpt>
<trkpt lat="-35.3625754" lon="149.1591778">
  <ele>685.11</ele>
  <time>2026-09-01T19:52:49Z</time>
  <course>269.11</course>
  <speed>25.860025135331945</speed>
  <fix>3d</fix>
</trkpt>
<trkpt lat="-35.3625738" lon="149.1592623">
  <ele>685.19</ele>
  <time>2026-09-01T19:52:49Z</time>
  <course>268.28</course>
  <speed>25.83</speed>
  <fix>3d</fix>
</trkpt>
<trkpt lat="-35.3625761" lon="149.1591494">
  <ele>685.1</ele>
  <time>2026-09-01T19:52:49Z</time>
  <course>269.13</course>
  <speed>25.860025135331945</speed>
  <fix>3d</fix>
</trkpt>
<trkpt lat="-35.3625751" lon="149.1592054">
  <ele>685.19</ele>
  <time>2026-09-01T19:52:49Z</time>
  <course>268.31</course>
  <speed>25.84</speed>
  <fix>3d</fix>
</trkpt>
<trkpt lat="-35.3625768" lon="149.1591209">
  <ele>685.1</ele>
  <time>2026-09-01T19:52:49Z</time>
  <course>269.14</course>
  <speed>25.860025135331945</speed>
  <fix>3d</fix>
</trkpt>
<trkpt lat="-35.3625751" lon="149.1592054">
  <ele>685.19</ele>
  <time>2026-09-01T19:52:49Z</time>
  <course>268.31</course>
  <speed>25.84</speed>
  <fix>3d</fix>
</trkpt>
<trkpt lat="-35.3625775" lon="149.1590925">
  <ele>685.09</ele>
  <time>2026-09-01T19:52:49Z</time>
  <course>269.11</course>
  <speed>25.859748645336833</speed>
  <fix>3d</fix>
</trkpt>
<trkpt lat="-35.3625765" lon="149.1591485">
  <ele>685.19</ele>
  <time>2026-09-01T19:52:49Z</time>
  <course>268.33</course>
  <speed>25.84</speed>
  <fix>3d</fix>
</trkpt>
<trkpt lat="-35.3625781" lon="149.159064">
  <ele>685.08</ele>
  <time>2026-09-01T19:52:49Z</time>
  <course>269.08</course>
  <speed>25.859748645336833</speed>
  <fix>3d</fix>
</trkpt>
<trkpt lat="-35.3625765" lon="149.1591485">
  <ele>685.19</ele>
  <time>2026-09-01T19:52:49Z</time>
  <course>268.33</course>
  <speed>25.84</speed>
  <fix>3d</fix>
</trkpt>
<trkpt lat="-35.3625788" lon="149.1590358">
  <ele>685.08</ele>
  <time>2026-09-01T19:52:49Z</time>
  <course>269.1</course>
  <speed>25.859748645336833</speed>
  <fix>3d</fix>
</trkpt>
<trkpt lat="-35.3625778" lon="149.1590916">
  <ele>685.18</ele>
  <time>2026-09-01T19:52:49Z</time>
  <course>268.34</course>
  <speed>25.83</speed>
  <fix>3d</fix>
</trkpt>
<trkpt lat="-35.3625795" lon="149.1590069">
  <ele>685.08</ele>
  <time>2026-09-01T19:52:49Z</time>
  <course>269.09</course>
  <speed>25.86974487697936</speed>
  <fix>3d</fix>
</trkpt>
<trkpt lat="-35.3625778" lon="149.1590916">
  <ele>685.18</ele>
  <time>2026-09-01T19:52:49Z</time>
  <course>268.34</course>
  <speed>25.83</speed>
  <fix>3d</fix>
</trkpt>
<trkpt lat="-35.3625802" lon="149.1589784">
  <ele>685.08</ele>
  <time>2026-09-01T19:52:49Z</time>
  <course>269.11</course>
  <speed>25.860025135331945</speed>
  <fix>3d</fix>
</trkpt>
<trkpt lat="-35.3625792" lon="149.1590347">
  <ele>685.17</ele>
  <time>2026-09-01T19:52:49Z</time>
  <course>268.34</course>
  <speed>25.84</speed>
  <fix>3d</fix>
</trkpt>
<trkpt lat="-35.3625808" lon="149.15895">
  <ele>685.07</ele>
  <time>2026-09-01T19:52:49Z</time>
  <course>269.13</course>
  <speed>25.860025135331945</speed>
  <fix>3d</fix>
</trkpt>
<trkpt lat="-35.3625792" lon="149.1590347">
  <ele>685.17</ele>
  <time>2026-09-01T19:52:49Z</time>
  <course>268.34</course>
  <speed>25.84</speed>
  <fix>3d</fix>
</trkpt>
<trkpt lat="-35.3625815" lon="149.1589215">
  <ele>685.07</ele>
  <time>2026-09-01T19:52:49Z</time>
  <course>269.13</course>
  <speed>25.860025135331945</speed>
  <fix>3d</fix>
</trkpt>
<trkpt lat="-35.3625805" lon="149.1589779">
  <ele>685.17</ele>
  <time>2026-09-01T19:52:49Z</time>
  <course>268.34</course>
  <speed>25.84</speed>
  <fix>3d</fix>
</trkpt>
<trkpt lat="-35.3625822" lon="149.158893">
  <ele>685.07</ele>
  <time>2026-09-01T19:52:49Z</time>
  <course>269.05</course>
  <speed>25.860025135331945</speed>
  <fix>3d</fix>
</trkpt>
<trkpt lat="-35.3625805" lon="149.1589779">
  <ele>685.17</ele>
  <time>2026-09-01T19:52:49Z</time>
  <course>268.34</course>
  <speed>25.84</speed>
  <fix>3d</fix>
</trkpt>
<trkpt lat="-35.3625829" lon="149.1588645">
  <ele>685.08</ele>
  <time>2026-09-01T19:52:49Z</time>
  <course>269.08</course>
  <speed>25.860025135331945</speed>
  <fix>3d</fix>
</trkpt>
<trkpt lat="-35.3625818" lon="149.158921">
  <ele>685.17</ele>
  <time>2026-09-01T19:52:49Z</time>
  <course>268.33</course>
  <speed>25.84</speed>
  <fix>3d</fix>
</trkpt>
<trkpt lat="-35.3625836" lon="149.158836">
  <ele>685.08</ele>
  <time>2026-09-01T19:52:49Z</time>
  <course>269.11</course>
  <speed>25.870021260138152</speed>
  <fix>3d</fix>
</trkpt>
<trkpt lat="-35.3625818" lon="149.158921">
  <ele>685.17</ele>
  <time>2026-09-01T19:52:49Z</time>
  <course>268.33</course>
  <speed>25.84</speed>
  <fix>3d</fix>
</trkpt>
<trkpt lat="-35.3625842" lon="149.1588075">
  <ele>685.08</ele>
  <time>2026-09-01T19:52:49Z</time>
  <course>269.08</course>
  <speed>25.870301505780716</speed>
  <fix>3d</fix>
</trkpt>
<trkpt lat="-35.3625832" lon="149.1588641">
  <ele>685.17</ele>
  <time>2026-09-01T19:52:49Z</time>
  <course>268.32</course>
  <speed>25.84</speed>
  <fix>3d</fix>
</trkpt>
<trkpt lat="-35.3625849" lon="149.158779">
  <ele>685.08</ele>
  <time>2026-09-01T19:52:49Z</time>
  <course>269.07</course>
  <speed>25.870301505780716</speed>
  <fix>3d</fix>
</trkpt>
<trkpt lat="-35.3625832" lon="149.1588641">
  <ele>685.17</ele>
  <time>2026-09-01T19:52:49Z</time>
  <course>268.32</course>
  <speed>25.84</speed>
  <fix>3d</fix>
</trkpt>
<trkpt lat="-35.3625856" lon="149.1587505">
  <ele>685.08</ele>
  <time>2026-09-01T19:52:49Z</time>
  <course>269.03</course>
  <speed>25.860589707119985</speed>
  <fix>3d</fix>
</trkpt>
<trkpt lat="-35.3625846" lon="149.1588072">
  <ele>685.17</ele>
  <time>2026-09-01T19:52:49Z</time>
  <course>268.3</course>
  <speed>25.84</speed>
  <fix>3d</fix>
</trkpt>
<trkpt lat="-35.3625863" lon="149.1587221">
  <ele>685.08</ele>
  <time>2026-09-01T19:52:49Z</time>
  <course>269.03</course>
  <speed>25.860589707119985</speed>
  <fix>3d</fix>
</trkpt>
<trkpt lat="-35.3625846" lon="149.1588072">
  <ele>685.17</ele>
  <time>2026-09-01T19:52:49Z</time>
  <course>268.3</course>
  <speed>25.84</speed>
  <fix>3d</fix>
</trkpt>
<trkpt lat="-35.362587" lon="149.1586936">
  <ele>685.08</ele>
  <time>2026-09-01T19:52:49Z</time>
  <course>269.04</course>
  <speed>25.860589707119985</speed>
  <fix>3d</fix>
</trkpt>
<trkpt lat="-35.362586" lon="149.1587503">
  <ele>685.17</ele>
  <time>2026-09-01T19:52:49Z</time>
  <course>268.29</course>
  <speed>25.84</speed>
  <fix>3d</fix>
</trkpt>
<trkpt lat="-35.3625877" lon="149.1586651">
  <ele>685.08</ele>
  <time>2026-09-01T19:52:49Z</time>
  <course>269.04</course>
  <speed>25.860589707119985</speed>
  <fix>3d</fix>
</trkpt>
<trkpt lat="-35.362586" lon="149.1587503">
  <ele>685.17</ele>
  <time>2026-09-01T19:52:49Z</time>
  <course>268.29</course>
  <speed>25.84</speed>
  <fix>3d</fix>
</trkpt>
<trkpt lat="-35.3625884" lon="149.1586366">
  <ele>685.08</ele>
  <time>2026-09-01T19:52:49Z</time>
  <course>269.07</course>
  <speed>25.86087778865984</speed>
  <fix>3d</fix>
</trkpt>
<trkpt lat="-35.3625873" lon="149.1586932">
  <ele>685.17</ele>
  <time>2026-09-01T19:52:49Z</time>
  <course>268.28</course>
  <speed>25.84</speed>
  <fix>3d</fix>
</trkpt>
<trkpt lat="-35.3625891" lon="149.1586081">
  <ele>685.07</ele>
  <time>2026-09-01T19:52:49Z</time>
  <course>269.08</course>
  <speed>25.86087778865984</speed>
  <fix>3d</fix>
</trkpt>
<trkpt lat="-35.3625873" lon="149.1586932">
  <ele>685.17</ele>
  <time>2026-09-01T19:52:49Z</time>
  <course>268.28</course>
  <speed>25.84</speed>
  <fix>3d</fix>
</trkpt>
<trkpt lat="-35.3625898" lon="149.1585797">
  <ele>685.07</ele>
  <time>2026-09-01T19:52:49Z</time>
  <course>269.06</course>
  <speed>25.86087778865984</speed>
  <fix>3d</fix>
</trkpt>
<trkpt lat="-35.3625888" lon="149.1586363">
  <ele>685.17</ele>
  <time>2026-09-01T19:52:49Z</time>
  <course>268.27</course>
  <speed>25.84</speed>
  <fix>3d</fix>
</trkpt>
<trkpt lat="-35.3625905" lon="149.1585512">
  <ele>685.07</ele>
  <time>2026-09-01T19:52:49Z</time>
  <course>269.11</course>
  <speed>25.86087778865984</speed>
  <fix>3d</fix>
</trkpt>
<trkpt lat="-35.3625888" lon="149.1586363">
  <ele>685.17</ele>
  <time>2026-09-01T19:52:49Z</time>
  <course>268.27</course>
  <speed>25.84</speed>
  <fix>3d</fix>
</trkpt>
<trkpt lat="-35.3625912" lon="149.1585229">
  <ele>685.07</ele>
  <time>2026-09-01T19:52:49Z</time>
  <course>269.1</course>
  <speed>25.86087778865984</speed>
  <fix>3d</fix>
</trkpt>
<trkpt lat="-35.3625902" lon="149.1585794">
  <ele>685.17</ele>
  <time>2026-09-01T19:52:49Z</time>
  <course>268.27</course>
  <speed>25.84</speed>
  <fix>3d</fix>
</trkpt>
<trkpt lat="-35.3625919" lon="149.1584945">
  <ele>685.07</ele>
  <time>2026-09-01T19:52:49Z</time>
  <course>269.09</course>
  <speed>25.850881996558645</speed>
  <fix>3d</fix>
</trkpt>
<trkpt lat="-35.3625902" lon="149.1585794">
  <ele>685.17</ele>
  <time>2026-09-01T19:52:49Z</time>
  <course>268.27</course>
  <speed>25.84</speed>
  <fix>3d</fix>
</trkpt>
<trkpt lat="-35.3625926" lon="149.1584663">
  <ele>685.07</ele>
  <time>2026-09-01T19:52:49Z</time>
  <course>269.06</course>
  <speed>25.840597903299372</speed>
  <fix>3d</fix>
</trkpt>
<trkpt lat="-35.3625916" lon="149.1585225">
  <ele>685.17</ele>
  <time>2026-09-01T19:52:49Z</time>
  <course>268.27</course>
  <speed>25.84</speed>
  <fix>3d</fix>
</trkpt>
<trkpt lat="-35.3625933" lon="149.1584382">
  <ele>685.07</ele>
  <time>2026-09-01T19:52:49Z</time>
  <course>268.99</course>
  <speed>25.830602006147668</speed>
  <fix>3d</fix>
</trkpt>
<trkpt lat="-35.3625916" lon="149.1585225">
  <ele>685.17</ele>
  <time>2026-09-01T19:52:49Z</time>
  <course>268.27</course>
  <speed>25.84</speed>
  <fix>3d</fix>
</trkpt>
<trkpt lat="-35.362594" lon="149.15841">
  <ele>685.07</ele>
  <time>2026-09-01T19:52:49Z</time>
  <course>268.97</course>
  <speed>25.820606112173277</speed>
  <fix>3d</fix>
</trkpt>
<trkpt lat="-35.3625929" lon="149.1584656">
  <ele>685.17</ele>
  <time>2026-09-01T19:52:49Z</time>
  <course>268.28</course>
  <speed>25.84</speed>
  <fix>3d</fix>
</trkpt>
<trkpt lat="-35.3625947" lon="149.1583817">
  <ele>685.07</ele>
  <time>2026-09-01T19:52:49Z</time>
  <course>269.03</course>
  <speed>25.820894639806735</speed>
  <fix>3d</fix>
</trkpt>
<trkpt lat="-35.3625929" lon="149.1584656">
  <ele>685.17</ele>
  <time>2026-09-01T19:52:49Z</time>
  <course>268.28</course>
  <speed>25.84</speed>
  <fix>3d</fix>
</trkpt>
<trkpt lat="-35.3625954" lon="149.1583534">
  <ele>685.07</ele>
  <time>2026-09-01T19:52:49Z</time>
  <course>269.05</course>
  <speed>25.81061022137989</speed>
  <fix>3d</fix>
</trkpt>
<trkpt lat="-35.3625943" lon="149.1584087">
  <ele>685.17</ele>
  <time>2026-09-01T19:52:49Z</time>
  <course>268.28</course>
  <speed>25.84</speed>
  <fix>3d</fix>
</trkpt>
<trkpt lat="-35.3625961" lon="149.1583249">
  <ele>685.07</ele>
  <time>2026-09-01T19:52:49Z</time>
  <course>269.06</course>
  <speed>25.8006143337712</speed>
  <fix>3d</fix>
</trkpt>
<trkpt lat="-35.3625943" lon="149.1584087">
  <ele>685.17</ele>
  <time>2026-09-01T19:52:49Z</time>
  <course>268.28</course>
  <speed>25.84</speed>
  <fix>3d</fix>
</trkpt>
<trkpt lat="-35.3625968" lon="149.1582966">
  <ele>685.07</ele>
  <time>2026-09-01T19:52:49Z</time>
  <course>269.11</course>
  <speed>25.8006143337712</speed>
  <fix>3d</fix>
</trkpt>
<trkpt lat="-35.3625957" lon="149.1583518">
  <ele>685.17</ele>
  <time>2026-09-01T19:52:49Z</time>
  <course>268.28</course>
  <speed>25.85</speed>
  <fix>3d</fix>
</trkpt>
<trkpt lat="-35.3625975" lon="149.1582682">
  <ele>685.07</ele>
  <time>2026-09-01T19:52:49Z</time>
  <course>269.15</course>
  <speed>25.80032945526084</speed>
  <fix>3d</fix>
</trkpt>
<trkpt lat="-35.3625957" lon="149.1583518">
  <ele>685.17</ele>
  <time>2026-09-01T19:52:49Z</time>
  <course>268.28</course>
  <speed>25.85</speed>
  <fix>3d</fix>
</trkpt>
<trkpt lat="-35.3625982" lon="149.15824">
  <ele>685.07</ele>
  <time>2026-09-01T19:52:49Z</time>
  <course>269.15</course>
  <speed>25.7903334604266</speed>
  <fix>3d</fix>
</trkpt>
<trkpt lat="-35.3625971" lon="149.1582949">
  <ele>685.17</ele>
  <time>2026-09-01T19:52:49Z</time>
  <course>268.29</course>
  <speed>25.85</speed>
  <fix>3d</fix>
</trkpt>
<trkpt lat="-35.3625988" lon="149.1582114">
  <ele>685.07</ele>
  <time>2026-09-01T19:52:49Z</time>
  <course>269.09</course>
  <speed>25.78033746869889</speed>
  <fix>3d</fix>
</trkpt>
<trkpt lat="-35.3625971" lon="149.1582949">
  <ele>685.17</ele>
  <time>2026-09-01T19:52:49Z</time>
  <course>268.29</course>
  <speed>25.85</speed>
  <fix>3d</fix>
</trkpt>
<trkpt lat="-35.3625995" lon="149.1581831">
  <ele>685.07</ele>
  <time>2026-09-01T19:52:49Z</time>
  <course>269.09</course>
  <speed>25.78033746869889</speed>
  <fix>3d</fix>
</trkpt>
<trkpt lat="-35.3625985" lon="149.158238">
  <ele>685.16</ele>
  <time>2026-09-01T19:52:49Z</time>
  <course>268.31</course>
  <speed>25.84</speed>
  <fix>3d</fix>
</trkpt>
<trkpt lat="-35.3626002" lon="149.1581548">
  <ele>685.06</ele>
  <time>2026-09-01T19:52:49Z</time>
  <course>269.08</course>
  <speed>25.78033746869889</speed>
  <fix>3d</fix>
</trkpt>
<trkpt lat="-35.3625985" lon="149.158238">
  <ele>685.16</ele>
  <time>2026-09-01T19:52:49Z</time>
  <course>268.31</course>
  <speed>25.84</speed>
  <fix>3d</fix>
</trkpt>
<trkpt lat="-35.3626009" lon="149.1581265">
  <ele>685.06</ele>
  <time>2026-09-01T19:52:49Z</time>
  <course>269.04</course>
  <speed>25.770341480081324</speed>
  <fix>3d</fix>
</trkpt>
<trkpt lat="-35.3625998" lon="149.1581811">
  <ele>685.16</ele>
  <time>2026-09-01T19:52:49Z</time>
  <course>268.32</course>
  <speed>25.84</speed>
  <fix>3d</fix>
</trkpt>
<trkpt lat="-35.3626016" lon="149.1580981">
  <ele>685.05</ele>
  <time>2026-09-01T19:52:49Z</time>
  <course>269.05</course>
  <speed>25.770341480081324</speed>
  <fix>3d</fix>
</trkpt>
<trkpt lat="-35.3625998" lon="149.1581811">
  <ele>685.16</ele>
  <time>2026-09-01T19:52:49Z</time>
  <course>268.32</course>
  <speed>25.84</speed>
  <fix>3d</fix>
</trkpt>
<trkpt lat="-35.3626022" lon="149.1580698">
  <ele>685.05</ele>
  <time>2026-09-01T19:52:49Z</time>
  <course>269.05</course>
  <speed>25.770626690090406</speed>
  <fix>3d</fix>
</trkpt>
<trkpt lat="-35.3626012" lon="149.1581241">
  <ele>685.15</ele>
  <time>2026-09-01T19:52:49Z</time>
  <course>268.31</course>
  <speed>25.85</speed>
  <fix>3d</fix>
</trkpt>
<trkpt lat="-35.3626029" lon="149.1580414">
  <ele>685.05</ele>
  <time>2026-09-01T19:52:49Z</time>
  <course>269.06</course>
  <speed>25.76063081525761</speed>
  <fix>3d</fix>
</trkpt>
<trkpt lat="-35.3626012" lon="149.1581241">
  <ele>685.15</ele>
  <time>2026-09-01T19:52:49Z</time>
  <course>268.31</course>
  <speed>25.85</speed>
  <fix>3d</fix>
</trkpt>
<trkpt lat="-35.3626036" lon="149.1580131">
  <ele>685.04</ele>
  <time>2026-09-01T19:52:49Z</time>
  <course>269.07</course>
  <speed>25.76063081525761</speed>
  <fix>3d</fix>
</trkpt>
<trkpt lat="-35.3626026" lon="149.158067">
  <ele>685.15</ele>
  <time>2026-09-01T19:52:49Z</time>
  <course>268.3</course>
  <speed>25.85</speed>
  <fix>3d</fix>
</trkpt>
<trkpt lat="-35.3626043" lon="149.1579847">
  <ele>685.04</ele>
  <time>2026-09-01T19:52:49Z</time>
  <course>269.07</course>
  <speed>25.76063081525761</speed>
  <fix>3d</fix>
</trkpt>
<trkpt lat="-35.3626026" lon="149.158067">
  <ele>685.15</ele>
  <time>2026-09-01T19:52:49Z</time>
  <course>268.3</course>
  <speed>25.85</speed>
  <fix>3d</fix>
</trkpt>
<trkpt lat="-35.362605" lon="149.1579563">
  <ele>685.03</ele>
  <time>2026-09-01T19:52:49Z</time>
  <course>269.05</course>
  <speed>25.76063081525761</speed>
  <fix>3d</fix>
</trkpt>
<trkpt lat="-35.3626039" lon="149.1580101">
  <ele>685.15</ele>
  <time>2026-09-01T19:52:49Z</time>
  <course>268.3</course>
  <speed>25.85</speed>
  <fix>3d</fix>
</trkpt>
<trkpt lat="-35.3626057" lon="149.157928">
  <ele>685.03</ele>
  <time>2026-09-01T19:52:49Z</time>
  <course>269.03</course>
  <speed>25.760345494577514</speed>
  <fix>3d</fix>
</trkpt>
<trkpt lat="-35.3626039" lon="149.1580101">
  <ele>685.15</ele>
  <time>2026-09-01T19:52:49Z</time>
  <course>268.3</course>
  <speed>25.85</speed>
  <fix>3d</fix>
</trkpt>
<trkpt lat="-35.3626064" lon="149.1578995">
  <ele>685.03</ele>
  <time>2026-09-01T19:52:49Z</time>
  <course>269.02</course>
  <speed>25.760345494577514</speed>
  <fix>3d</fix>
</trkpt>
<trkpt lat="-35.3626053" lon="149.1579532">
  <ele>685.14</ele>
  <time>2026-09-01T19:52:49Z</time>
  <course>268.31</course>
  <speed>25.85</speed>
  <fix>3d</fix>
</trkpt>
<trkpt lat="-35.3626071" lon="149.1578711">
  <ele>685.03</ele>
  <time>2026-09-01T19:52:49Z</time>
  <course>269.01</course>
  <speed>25.770626690090406</speed>
  <fix>3d</fix>
</trkpt>
<trkpt lat="-35.3626053" lon="149.1579532">
  <ele>685.14</ele>
  <time>2026-09-01T19:52:49Z</time>
  <course>268.31</course>
  <speed>25.85</speed>
  <fix>3d</fix>
</trkpt>
<trkpt lat="-35.3626077" lon="149.1578428">
  <ele>685.03</ele>
  <time>2026-09-01T19:52:49Z</time>
  <course>269.06</course>
  <speed>25.770626690090406</speed>
  <fix>3d</fix>
</trkpt>
<trkpt lat="-35.3626067" lon="149.1578963">
  <ele>685.14</ele>
  <time>2026-09-01T19:52:49Z</time>
  <course>268.3</course>
  <speed>25.85</speed>
  <fix>3d</fix>
</trkpt>
<trkpt lat="-35.3626084" lon="149.1578144">
  <ele>685.03</ele>
  <time>2026-09-01T19:52:49Z</time>
  <course>269.08</course>
  <speed>25.770626690090406</speed>
  <fix>3d</fix>
</trkpt>
<trkpt lat="-35.3626067" lon="149.1578963">
  <ele>685.14</ele>
  <time>2026-09-01T19:52:49Z</time>
  <course>268.3</course>
  <speed>25.85</speed>
  <fix>3d</fix>
</trkpt>
<trkpt lat="-35.3626091" lon="149.1577859">
  <ele>685.03</ele>
  <time>2026-09-01T19:52:49Z</time>
  <course>269.14</course>
  <speed>25.770341480081324</speed>
  <fix>3d</fix>
</trkpt>
<trkpt lat="-35.3626081" lon="149.1578394">
  <ele>685.14</ele>
  <time>2026-09-01T19:52:49Z</time>
  <course>268.29</course>
  <speed>25.85</speed>
  <fix>3d</fix>
</trkpt>
<trkpt lat="-35.3626098" lon="149.1577574">
  <ele>685.03</ele>
  <time>2026-09-01T19:52:49Z</time>
  <course>269.14</course>
  <speed>25.78033746869889</speed>
  <fix>3d</fix>
</trkpt>
<trkpt lat="-35.3626081" lon="149.1578394">
  <ele>685.14</ele>
  <time>2026-09-01T19:52:49Z</time>
  <course>268.29</course>
  <speed>25.85</speed>
  <fix>3d</fix>
</trkpt>
<trkpt lat="-35.3626105" lon="149.1577287">
  <ele>685.04</ele>
  <time>2026-09-01T19:52:49Z</time>
  <course>269.05</course>
  <speed>25.780056245089924</speed>
  <fix>3d</fix>
</trkpt>
<trkpt lat="-35.3626094" lon="149.1577825">
  <ele>685.14</ele>
  <time>2026-09-01T19:52:49Z</time>
  <course>268.31</course>
  <speed>25.85</speed>
  <fix>3d</fix>
</trkpt>
<trkpt lat="-35.3626112" lon="149.1577002">
  <ele>685.04</ele>
  <time>2026-09-01T19:52:49Z</time>
  <course>268.98</course>
  <speed>25.780056245089924</speed>
  <fix>3d</fix>
</trkpt>
<trkpt lat="-35.3626094" lon="149.1577825">
  <ele>685.14</ele>
  <time>2026-09-01T19:52:49Z</time>
  <course>268.31</course>
  <speed>25.85</speed>
  <fix>3d</fix>
</trkpt>
<trkpt lat="-35.3626118" lon="149.1576717">
  <ele>685.05</ele>
  <time>2026-09-01T19:52:49Z</time>
  <course>268.98</course>
  <speed>25.780056245089924</speed>
  <fix>3d</fix>
</trkpt>
<trkpt lat="-35.3626108" lon="149.1577256">
  <ele>685.14</ele>
  <time>2026-09-01T19:52:49Z</time>
  <course>268.32</course>
  <speed>25.84</speed>
  <fix>3d</fix>
</trkpt>
<trkpt lat="-35.3626125" lon="149.1576432">
  <ele>685.05</ele>
  <time>2026-09-01T19:52:49Z</time>
  <course>269.07</course>
  <speed>25.78033746869889</speed>
  <fix>3d</fix>
</trkpt>
<trkpt lat="-35.3626108" lon="149.1577256">
  <ele>685.14</ele>
  <time>2026-09-01T19:52:49Z</time>
  <course>268.32</course>
  <speed>25.84</speed>
  <fix>3d</fix>
</trkpt>
<trkpt lat="-35.3626132" lon="149.1576147">
  <ele>685.06</ele>
  <time>2026-09-01T19:52:49Z</time>
  <course>269.16</course>
  <speed>25.780056245089924</speed>
  <fix>3d</fix>
</trkpt>
<trkpt lat="-35.3626121" lon="149.1576687">
  <ele>685.15</ele>
  <time>2026-09-01T19:52:49Z</time>
  <course>268.32</course>
  <speed>25.84</speed>
  <fix>3d</fix>
</trkpt>
<trkpt lat="-35.3626139" lon="149.1575863">
  <ele>685.06</ele>
  <time>2026-09-01T19:52:49Z</time>
  <course>269.11</course>
  <speed>25.780056245089924</speed>
  <fix>3d</fix>
</trkpt>
<trkpt lat="-35.3626121" lon="149.1576687">
  <ele>685.15</ele>
  <time>2026-09-01T19:52:49Z</time>
  <course>268.32</course>
  <speed>25.84</speed>
  <fix>3d</fix>
</trkpt>
<trkpt lat="-35.3626145" lon="149.1575578">
  <ele>685.06</ele>
  <time>2026-09-01T19:52:49Z</time>
  <course>269.11</course>
  <speed>25.779778897422684</speed>
  <fix>3d</fix>
</trkpt>
<trkpt lat="-35.3626134" lon="149.1576118">
  <ele>685.16</ele>
  <time>2026-09-01T19:52:49Z</time>
  <course>268.32</course>
  <speed>25.84</speed>
  <fix>3d</fix>
</trkpt>
<trkpt lat="-35.3626152" lon="149.1575293">
  <ele>685.06</ele>
  <time>2026-09-01T19:52:49Z</time>
  <course>269.16</course>
  <speed>25.779778897422684</speed>
  <fix>3d</fix>
</trkpt>
<trkpt lat="-35.3626134" lon="149.1576118">
  <ele>685.16</ele>
  <time>2026-09-01T19:52:49Z</time>
  <course>268.32</course>
  <speed>25.84</speed>
  <fix>3d</fix>
</trkpt>
<trkpt lat="-35.3626159" lon="149.1575008">
  <ele>685.05</ele>
  <time>2026-09-01T19:52:49Z</time>
  <course>269.17</course>
  <speed>25.789775105649916</speed>
  <fix>3d</fix>
</trkpt>
<trkpt lat="-35.3626148" lon="149.1575548">
  <ele>685.17</ele>
  <time>2026-09-01T19:52:49Z</time>
  <course>268.33</course>
  <speed>25.83</speed>
  <fix>3d</fix>
</trkpt>
<trkpt lat="-35.3626165" lon="149.1574724">
  <ele>685.05</ele>
  <time>2026-09-01T19:52:49Z</time>
  <course>269.17</course>
  <speed>25.789501740049186</speed>
  <fix>3d</fix>
</trkpt>
<trkpt lat="-35.3626148" lon="149.1575548">
  <ele>685.17</ele>
  <time>2026-09-01T19:52:49Z</time>
  <course>268.33</course>
  <speed>25.83</speed>
  <fix>3d</fix>
</trkpt>
<trkpt lat="-35.3626172" lon="149.1574436">
  <ele>685.05</ele>
  <time>2026-09-01T19:52:49Z</time>
  <course>269.18</course>
  <speed>25.789501740049186</speed>
  <fix>3d</fix>
</trkpt>
<trkpt lat="-35.3626162" lon="149.1574978">
  <ele>685.17</ele>
  <time>2026-09-01T19:52:49Z</time>
  <course>268.35</course>
  <speed>25.83</speed>
  <fix>3d</fix>
</trkpt>
<trkpt lat="-35.3626178" lon="149.1574152">
  <ele>685.05</ele>
  <time>2026-09-01T19:52:49Z</time>
  <course>269.19</course>
  <speed>25.7892322491384</speed>
  <fix>3d</fix>
</trkpt>
<trkpt lat="-35.3626162" lon="149.1574978">
  <ele>685.17</ele>
  <time>2026-09-01T19:52:49Z</time>
  <course>268.35</course>
  <speed>25.83</speed>
  <fix>3d</fix>
</trkpt>
<trkpt lat="-35.3626185" lon="149.1573866">
  <ele>685.05</ele>
  <time>2026-09-01T19:52:49Z</time>
  <course>269.2</course>
  <speed>25.7892322491384</speed>
  <fix>3d</fix>
</trkpt>
<trkpt lat="-35.3626175" lon="149.157441">
  <ele>685.17</ele>
  <time>2026-09-01T19:52:49Z</time>
  <course>268.36</course>
  <speed>25.83</speed>
  <fix>3d</fix>
</trkpt>
<trkpt lat="-35.3626191" lon="149.1573582">
  <ele>685.06</ele>
  <time>2026-09-01T19:52:49Z</time>
  <course>269.19</course>
  <speed>25.7892322491384</speed>
  <fix>3d</fix>
</trkpt>
<trkpt lat="-35.3626175" lon="149.157441">
  <ele>685.17</ele>
  <time>2026-09-01T19:52:49Z</time>
  <course>268.36</course>
  <speed>25.83</speed>
  <fix>3d</fix>
</trkpt>
<trkpt lat="-35.3626198" lon="149.1573296">
  <ele>685.06</ele>
  <time>2026-09-01T19:52:49Z</time>
  <course>269.12</course>
  <speed>25.789501740049186</speed>
  <fix>3d</fix>
</trkpt>
<trkpt lat="-35.3626188" lon="149.1573841">
  <ele>685.18</ele>
  <time>2026-09-01T19:52:49Z</time>
  <course>268.37</course>
  <speed>25.82</speed>
  <fix>3d</fix>
</trkpt>
<trkpt lat="-35.3626204" lon="149.1573011">
  <ele>685.07</ele>
  <time>2026-09-01T19:52:49Z</time>
  <course>269.16</course>
  <speed>25.789501740049186</speed>
  <fix>3d</fix>
</trkpt>
<trkpt lat="-35.3626188" lon="149.1573841">
  <ele>685.18</ele>
  <time>2026-09-01T19:52:49Z</time>
  <course>268.37</course>
  <speed>25.82</speed>
  <fix>3d</fix>
</trkpt>
<trkpt lat="-35.3626211" lon="149.1572726">
  <ele>685.08</ele>
  <time>2026-09-01T19:52:49Z</time>
  <course>269.16</course>
  <speed>25.789775105649916</speed>
  <fix>3d</fix>
</trkpt>
<trkpt lat="-35.3626201" lon="149.1573272">
  <ele>685.19</ele>
  <time>2026-09-01T19:52:49Z</time>
  <course>268.36</course>
  <speed>25.82</speed>
  <fix>3d</fix>
</trkpt>
<trkpt lat="-35.3626218" lon="149.1572443">
  <ele>685.08</ele>
  <time>2026-09-01T19:52:49Z</time>
  <course>269.13</course>
  <speed>25.789775105649916</speed>
  <fix>3d</fix>
</trkpt>
<trkpt lat="-35.3626201" lon="149.1573272">
  <ele>685.19</ele>
  <time>2026-09-01T19:52:49Z</time>
  <course>268.36</course>
  <speed>25.82</speed>
  <fix>3d</fix>
</trkpt>
<trkpt lat="-35.3626224" lon="149.1572158">
  <ele>685.09</ele>
  <time>2026-09-01T19:52:49Z</time>
  <course>269.11</course>
  <speed>25.800048449566912</speed>
  <fix>3d</fix>
</trkpt>
<trkpt lat="-35.3626215" lon="149.1572704">
  <ele>685.2</ele>
  <time>2026-09-01T19:52:49Z</time>
  <course>268.34</course>
  <speed>25.81</speed>
  <fix>3d</fix>
</trkpt>
<trkpt lat="-35.3626231" lon="149.1571873">
  <ele>685.1</ele>
  <time>2026-09-01T19:52:49Z</time>
  <course>269.14</course>
  <speed>25.800048449566912</speed>
  <fix>3d</fix>
</trkpt>
<trkpt lat="-35.3626215" lon="149.1572704">
  <ele>685.2</ele>
  <time>2026-09-01T19:52:49Z</time>
  <course>268.34</course>
  <speed>25.81</speed>
  <fix>3d</fix>
</trkpt>
<trkpt lat="-35.3626238" lon="149.1571588">
  <ele>685.1</ele>
  <time>2026-09-01T19:52:49Z</time>
  <course>269.14</course>
  <speed>25.80032945526084</speed>
  <fix>3d</fix>
</trkpt>
<trkpt lat="-35.3626228" lon="149.1572135">
  <ele>685.21</ele>
  <time>2026-09-01T19:52:49Z</time>
  <course>268.32</course>
  <speed>25.81</speed>
  <fix>3d</fix>
</trkpt>
<trkpt lat="-35.3626245" lon="149.1571301">
  <ele>685.1</ele>
  <time>2026-09-01T19:52:49Z</time>
  <course>269.14</course>
  <speed>25.7903334604266</speed>
  <fix>3d</fix>
</trkpt>
<trkpt lat="-35.3626228" lon="149.1572135">
  <ele>685.21</ele>
  <time>2026-09-01T19:52:49Z</time>
  <course>268.32</course>
  <speed>25.81</speed>
  <fix>3d</fix>
</trkpt>
<trkpt lat="-35.3626252" lon="149.1571016">
  <ele>685.11</ele>
  <time>2026-09-01T19:52:49Z</time>
  <course>269.16</course>
  <speed>25.80032945526084</speed>
  <fix>3d</fix>
</trkpt>
<trkpt lat="-35.3626242" lon="149.1571568">
  <ele>685.22</ele>
  <time>2026-09-01T19:52:49Z</time>
  <course>268.3</course>
  <speed>25.8</speed>
  <fix>3d</fix>
</trkpt>
<trkpt lat="-35.3626259" lon="149.1570732">
  <ele>685.11</ele>
  <time>2026-09-01T19:52:49Z</time>
  <course>269.18</course>
  <speed>25.80032945526084</speed>
  <fix>3d</fix>
</trkpt>
<trkpt lat="-35.3626242" lon="149.1571568">
  <ele>685.22</ele>
  <time>2026-09-01T19:52:49Z</time>
  <course>268.3</course>
  <speed>25.8</speed>
  <fix>3d</fix>
</trkpt>
<trkpt lat="-35.3626266" lon="149.1570447">
  <ele>685.12</ele>
  <time>2026-09-01T19:52:49Z</time>
  <course>269.15</course>
  <speed>25.80032945526084</speed>
  <fix>3d</fix>
</trkpt>
<trkpt lat="-35.3626256" lon="149.1571">
  <ele>685.23</ele>
  <time>2026-09-01T19:52:49Z</time>
  <course>268.29</course>
  <speed>25.79</speed>
  <fix>3d</fix>
</trkpt>
<trkpt lat="-35.3626273" lon="149.1570162">
  <ele>685.12</ele>
  <time>2026-09-01T19:52:49Z</time>
  <course>269.17</course>
  <speed>25.80032945526084</speed>
  <fix>3d</fix>
</trkpt>
<trkpt lat="-35.3626256" lon="149.1571">
  <ele>685.23</ele>
  <time>2026-09-01T19:52:49Z</time>
  <course>268.29</course>
  <speed>25.79</speed>
  <fix>3d</fix>
</trkpt>
<trkpt lat="-35.362628" lon="149.1569877">
  <ele>685.13</ele>
  <time>2026-09-01T19:52:49Z</time>
  <course>269.12</course>
  <speed>25.80032945526084</speed>
  <fix>3d</fix>
</trkpt>
<trkpt lat="-35.3626269" lon="149.1570431">
  <ele>685.24</ele>
  <time>2026-09-01T19:52:49Z</time>
  <course>268.28</course>
  <speed>25.79</speed>
  <fix>3d</fix>
</trkpt>
<trkpt lat="-35.3626287" lon="149.1569592">
  <ele>685.13</ele>
  <time>2026-09-01T19:52:49Z</time>
  <course>269.15</course>
  <speed>25.8006143337712</speed>
  <fix>3d</fix>
</trkpt>
<trkpt lat="-35.3626269" lon="149.1570431">
  <ele>685.24</ele>
  <time>2026-09-01T19:52:49Z</time>
  <course>268.28</course>
  <speed>25.79</speed>
  <fix>3d</fix>
</trkpt>
<trkpt lat="-35.3626294" lon="149.1569307">
  <ele>685.14</ele>
  <time>2026-09-01T19:52:49Z</time>
  <course>269.17</course>
  <speed>25.8006143337712</speed>
  <fix>3d</fix>
</trkpt>
<trkpt lat="-35.3626284" lon="149.1569864">
  <ele>685.24</ele>
  <time>2026-09-01T19:52:49Z</time>
  <course>268.28</course>
  <speed>25.79</speed>
  <fix>3d</fix>
</trkpt>
<trkpt lat="-35.3626301" lon="149.1569022">
  <ele>685.14</ele>
  <time>2026-09-01T19:52:49Z</time>
  <course>269.21</course>
  <speed>25.8006143337712</speed>
  <fix>3d</fix>
</trkpt>
<trkpt lat="-35.3626284" lon="149.1569864">
  <ele>685.24</ele>
  <time>2026-09-01T19:52:49Z</time>
  <course>268.28</course>
  <speed>25.79</speed>
  <fix>3d</fix>
</trkpt>
<trkpt lat="-35.3626308" lon="149.1568737">
  <ele>685.14</ele>
  <time>2026-09-01T19:52:49Z</time>
  <course>269.27</course>
  <speed>25.81032545319799</speed>
  <fix>3d</fix>
</trkpt>
<trkpt lat="-35.3626298" lon="149.1569295">
  <ele>685.25</ele>
  <time>2026-09-01T19:52:49Z</time>
  <course>268.27</course>
  <speed>25.78</speed>
  <fix>3d</fix>
</trkpt>
<trkpt lat="-35.3626315" lon="149.1568452">
  <ele>685.14</ele>
  <time>2026-09-01T19:52:49Z</time>
  <course>269.25</course>
  <speed>25.810044556335036</speed>
  <fix>3d</fix>
</trkpt>
<trkpt lat="-35.3626298" lon="149.1569295">
  <ele>685.25</ele>
  <time>2026-09-01T19:52:49Z</time>
  <course>268.27</course>
  <speed>25.78</speed>
  <fix>3d</fix>
</trkpt>
<trkpt lat="-35.3626321" lon="149.1568167">
  <ele>685.14</ele>
  <time>2026-09-01T19:52:49Z</time>
  <course>269.12</course>
  <speed>25.810044556335036</speed>
  <fix>3d</fix>
</trkpt>
<trkpt lat="-35.3626311" lon="149.1568726">
  <ele>685.26</ele>
  <time>2026-09-01T19:52:49Z</time>
  <course>268.29</course>
  <speed>25.78</speed>
  <fix>3d</fix>
</trkpt>
<trkpt lat="-35.3626328" lon="149.1567882">
  <ele>685.14</ele>
  <time>2026-09-01T19:52:49Z</time>
  <course>269.13</course>
  <speed>25.82004066611825</speed>
  <fix>3d</fix>
</trkpt>
<trkpt lat="-35.3626311" lon="149.1568726">
  <ele>685.26</ele>
  <time>2026-09-01T19:52:49Z</time>
  <course>268.29</course>
  <speed>25.78</speed>
  <fix>3d</fix>
</trkpt>
<trkpt lat="-35.3626335" lon="149.1567597">
  <ele>685.13</ele>
  <time>2026-09-01T19:52:49Z</time>
  <course>269.18</course>
  <speed>25.82004066611825</speed>
  <fix>3d</fix>
</trkpt>
<trkpt lat="-35.3626325" lon="149.1568159">
  <ele>685.26</ele>
  <time>2026-09-01T19:52:49Z</time>
  <course>268.3</course>
  <speed>25.78</speed>
  <fix>3d</fix>
</trkpt>
<trkpt lat="-35.3626342" lon="149.1567313">
  <ele>685.13</ele>
  <time>2026-09-01T19:52:49Z</time>
  <course>269.23</course>
  <speed>25.82004066611825</speed>
  <fix>3d</fix>
</trkpt>
<trkpt lat="-35.3626325" lon="149.1568159">
  <ele>685.26</ele>
  <time>2026-09-01T19:52:49Z</time>
  <course>268.3</course>
  <speed>25.78</speed>
  <fix>3d</fix>
</trkpt>
<trkpt lat="-35.3626349" lon="149.1567028">
  <ele>685.13</ele>
  <time>2026-09-01T19:52:49Z</time>
  <course>269.22</course>
  <speed>25.82004066611825</speed>
  <fix>3d</fix>
</trkpt>
<trkpt lat="-35.3626339" lon="149.1567591">
  <ele>685.25</ele>
  <time>2026-09-01T19:52:49Z</time>
  <course>268.31</course>
  <speed>25.78</speed>
  <fix>3d</fix>
</trkpt>
<trkpt lat="-35.3626356" lon="149.1566743">
  <ele>685.12</ele>
  <time>2026-09-01T19:52:49Z</time>
  <course>269.18</course>
  <speed>25.83003677891303</speed>
  <fix>3d</fix>
</trkpt>
<trkpt lat="-35.3626339" lon="149.1567591">
  <ele>685.25</ele>
  <time>2026-09-01T19:52:49Z</time>
  <course>268.31</course>
  <speed>25.78</speed>
  <fix>3d</fix>
</trkpt>
<trkpt lat="-35.3626362" lon="149.1566459">
  <ele>685.12</ele>
  <time>2026-09-01T19:52:49Z</time>
  <course>269.19</course>
  <speed>25.83003677891303</speed>
  <fix>3d</fix>
</trkpt>
<trkpt lat="-35.3626352" lon="149.1567023">
  <ele>685.24</ele>
  <time>2026-09-01T19:52:49Z</time>
  <course>268.31</course>
  <speed>25.78</speed>
  <fix>3d</fix>
</trkpt>
<trkpt lat="-35.3626369" lon="149.1566174">
  <ele>685.12</ele>
  <time>2026-09-01T19:52:49Z</time>
  <course>269.18</course>
  <speed>25.82004066611825</speed>
  <fix>3d</fix>
</trkpt>
<trkpt lat="-35.3626352" lon="149.1567023">
  <ele>685.24</ele>
  <time>2026-09-01T19:52:49Z</time>
  <course>268.31</course>
  <speed>25.78</speed>
  <fix>3d</fix>
</trkpt>
<trkpt lat="-35.3626376" lon="149.156589">
  <ele>685.12</ele>
  <time>2026-09-01T19:52:49Z</time>
  <course>269.18</course>
  <speed>25.819763747950912</speed>
  <fix>3d</fix>
</trkpt>
<trkpt lat="-35.3626366" lon="149.1566456">
  <ele>685.23</ele>
  <time>2026-09-01T19:52:49Z</time>
  <course>268.32</course>
  <speed>25.78</speed>
  <fix>3d</fix>
</trkpt>
<trkpt lat="-35.3626383" lon="149.1565606">
  <ele>685.12</ele>
  <time>2026-09-01T19:52:49Z</time>
  <course>269.15</course>
  <speed>25.819763747950912</speed>
  <fix>3d</fix>
</trkpt>
<trkpt lat="-35.3626366" lon="149.1566456">
  <ele>685.23</ele>
  <time>2026-09-01T19:52:49Z</time>
  <course>268.32</course>
  <speed>25.78</speed>
  <fix>3d</fix>
</trkpt>
<trkpt lat="-35.3626389" lon="149.1565319">
  <ele>685.11</ele>
  <time>2026-09-01T19:52:49Z</time>
  <course>269.16</course>
  <speed>25.819763747950912</speed>
  <fix>3d</fix>
</trkpt>
<trkpt lat="-35.3626379" lon="149.1565888">
  <ele>685.23</ele>
  <time>2026-09-01T19:52:49Z</time>
  <course>268.32</course>
  <speed>25.77</speed>
  <fix>3d</fix>
</trkpt>
<trkpt lat="-35.3626396" lon="149.1565035">
  <ele>685.11</ele>
  <time>2026-09-01T19:52:49Z</time>
  <course>269.19</course>
  <speed>25.819763747950912</speed>
  <fix>3d</fix>
</trkpt>
<trkpt lat="-35.3626379" lon="149.1565888">
  <ele>685.23</ele>
  <time>2026-09-01T19:52:49Z</time>
  <course>268.32</course>
  <speed>25.77</speed>
  <fix>3d</fix>
</trkpt>
<trkpt lat="-35.3626403" lon="149.1564751">
  <ele>685.11</ele>
  <time>2026-09-01T19:52:49Z</time>
  <course>269.22</course>
  <speed>25.819763747950912</speed>
  <fix>3d</fix>
</trkpt>
<trkpt lat="-35.3626393" lon="149.1565321">
  <ele>685.23</ele>
  <time>2026-09-01T19:52:49Z</time>
  <course>268.33</course>
  <speed>25.77</speed>
  <fix>3d</fix>
</trkpt>
<trkpt lat="-35.362641" lon="149.1564467">
  <ele>685.11</ele>
  <time>2026-09-01T19:52:49Z</time>
  <course>269.26</course>
  <speed>25.819763747950912</speed>
  <fix>3d</fix>
</trkpt>
<trkpt lat="-35.3626393" lon="149.1565321">
  <ele>685.23</ele>
  <time>2026-09-01T19:52:49Z</time>
  <course>268.33</course>
  <speed>25.77</speed>
  <fix>3d</fix>
</trkpt>
<trkpt lat="-35.3626416" lon="149.1564183">
  <ele>685.11</ele>
  <time>2026-09-01T19:52:49Z</time>
  <course>269.28</course>
  <speed>25.819763747950912</speed>
  <fix>3d</fix>
</trkpt>
<trkpt lat="-35.3626406" lon="149.1564753">
  <ele>685.22</ele>
  <time>2026-09-01T19:52:49Z</time>
  <course>268.33</course>
  <speed>25.77</speed>
  <fix>3d</fix>
</trkpt>
<trkpt lat="-35.3626423" lon="149.1563899">
  <ele>685.1</ele>
  <time>2026-09-01T19:52:49Z</time>
  <course>269.25</course>
  <speed>25.819763747950912</speed>
  <fix>3d</fix>
</trkpt>
<trkpt lat="-35.3626406" lon="149.1564753">
  <ele>685.22</ele>
  <time>2026-09-01T19:52:49Z</time>
  <course>268.33</course>
  <speed>25.77</speed>
  <fix>3d</fix>
</trkpt>
<trkpt lat="-35.362643" lon="149.1563615">
  <ele>685.1</ele>
  <time>2026-09-01T19:52:49Z</time>
  <course>269.29</course>
  <speed>25.81949069985696</speed>
  <fix>3d</fix>
</trkpt>
<trkpt lat="-35.3626419" lon="149.1564186">
  <ele>685.22</ele>
  <time>2026-09-01T19:52:49Z</time>
  <course>268.34</course>
  <speed>25.78</speed>
  <fix>3d</fix>
</trkpt>
<trkpt lat="-35.3626436" lon="149.1563331">
  <ele>685.1</ele>
  <time>2026-09-01T19:52:49Z</time>
  <course>269.24</course>
  <speed>25.81949069985696</speed>
  <fix>3d</fix>
</trkpt>
<trkpt lat="-35.3626419" lon="149.1564186">
  <ele>685.22</ele>
  <time>2026-09-01T19:52:49Z</time>
  <course>268.34</course>
  <speed>25.78</speed>
  <fix>3d</fix>
</trkpt>
<trkpt lat="-35.3626443" lon="149.1563047">
  <ele>685.09</ele>
  <time>2026-09-01T19:52:49Z</time>
  <course>269.25</course>
  <speed>25.81949069985696</speed>
  <fix>3d</fix>
</trkpt>
<trkpt lat="-35.3626433" lon="149.1563618">
  <ele>685.21</ele>
  <time>2026-09-01T19:52:49Z</time>
  <course>268.35</course>
  <speed>25.78</speed>
  <fix>3d</fix>
</trkpt>
<trkpt lat="-35.3626449" lon="149.1562763">
  <ele>685.09</ele>
  <time>2026-09-01T19:52:49Z</time>
  <course>269.26</course>
  <speed>25.81949069985696</speed>
  <fix>3d</fix>
</trkpt>
<trkpt lat="-35.3626433" lon="149.1563618">
  <ele>685.21</ele>
  <time>2026-09-01T19:52:49Z</time>
  <course>268.35</course>
  <speed>25.78</speed>
  <fix>3d</fix>
</trkpt>
<trkpt lat="-35.3626456" lon="149.1562479">
  <ele>685.09</ele>
  <time>2026-09-01T19:52:49Z</time>
  <course>269.26</course>
  <speed>25.81949069985696</speed>
  <fix>3d</fix>
</trkpt>
<trkpt lat="-35.3626446" lon="149.1563049">
  <ele>685.2</ele>
  <time>2026-09-01T19:52:49Z</time>
  <course>268.36</course>
  <speed>25.78</speed>
  <fix>3d</fix>
</trkpt>
<trkpt lat="-35.3626463" lon="149.1562195">
  <ele>685.08</ele>
  <time>2026-09-01T19:52:49Z</time>
  <course>269.22</course>
  <speed>25.81949069985696</speed>
  <fix>3d</fix>
</trkpt>
<trkpt lat="-35.3626446" lon="149.1563049">
  <ele>685.2</ele>
  <time>2026-09-01T19:52:49Z</time>
  <course>268.36</course>
  <speed>25.78</speed>
  <fix>3d</fix>
</trkpt>
<trkpt lat="-35.3626469" lon="149.1561911">
  <ele>685.08</ele>
  <time>2026-09-01T19:52:49Z</time>
  <course>269.2</course>
  <speed>25.82948702549085</speed>
  <fix>3d</fix>
</trkpt>
<trkpt lat="-35.3626459" lon="149.156248">
  <ele>685.2</ele>
  <time>2026-09-01T19:52:49Z</time>
  <course>268.37</course>
  <speed>25.79</speed>
  <fix>3d</fix>
</trkpt>
<trkpt lat="-35.3626476" lon="149.1561627">
  <ele>685.07</ele>
  <time>2026-09-01T19:52:49Z</time>
  <course>269.23</course>
  <speed>25.81949069985696</speed>
  <fix>3d</fix>
</trkpt>
<trkpt lat="-35.3626459" lon="149.156248">
  <ele>685.2</ele>
  <time>2026-09-01T19:52:49Z</time>
  <course>268.37</course>
  <speed>25.79</speed>
  <fix>3d</fix>
</trkpt>
<trkpt lat="-35.3626482" lon="149.1561343">
  <ele>685.07</ele>
  <time>2026-09-01T19:52:49Z</time>
  <course>269.24</course>
  <speed>25.81949069985696</speed>
  <fix>3d</fix>
</trkpt>
<trkpt lat="-35.3626472" lon="149.1561913">
  <ele>685.19</ele>
  <time>2026-09-01T19:52:49Z</time>
  <course>268.38</course>
  <speed>25.79</speed>
  <fix>3d</fix>
</trkpt>
<trkpt lat="-35.3626489" lon="149.1561059">
  <ele>685.06</ele>
  <time>2026-09-01T19:52:49Z</time>
  <course>269.2</course>
  <speed>25.81949069985696</speed>
  <fix>3d</fix>
</trkpt>
<trkpt lat="-35.3626472" lon="149.1561913">
  <ele>685.19</ele>
  <time>2026-09-01T19:52:49Z</time>
  <course>268.38</course>
  <speed>25.79</speed>
  <fix>3d</fix>
</trkpt>
<trkpt lat="-35.3626496" lon="149.1560775">
  <ele>685.05</ele>
  <time>2026-09-01T19:52:49Z</time>
  <course>269.2</course>
  <speed>25.819763747950912</speed>
  <fix>3d</fix>
</trkpt>
<trkpt lat="-35.3626486" lon="149.1561345">
  <ele>685.18</ele>
  <time>2026-09-01T19:52:49Z</time>
  <course>268.37</course>
  <speed>25.8</speed>
  <fix>3d</fix>
</trkpt>
<trkpt lat="-35.3626502" lon="149.1560491">
  <ele>685.05</ele>
  <time>2026-09-01T19:52:49Z</time>
  <course>269.17</course>
  <speed>25.819763747950912</speed>
  <fix>3d</fix>
</trkpt>
<trkpt lat="-35.3626486" lon="149.1561345">
  <ele>685.18</ele>
  <time>2026-09-01T19:52:49Z</time>
  <course>268.37</course>
  <speed>25.8</speed>
  <fix>3d</fix>
</trkpt>
<trkpt lat="-35.3626509" lon="149.1560207">
  <ele>685.05</ele>
  <time>2026-09-01T19:52:49Z</time>
  <course>269.13</course>
  <speed>25.82004066611825</speed>
  <fix>3d</fix>
</trkpt>
<trkpt lat="-35.3626499" lon="149.1560777">
  <ele>685.17</ele>
  <time>2026-09-01T19:52:49Z</time>
  <course>268.35</course>
  <speed>25.8</speed>
  <fix>3d</fix>
</trkpt>
<trkpt lat="-35.3626516" lon="149.1559923">
  <ele>685.05</ele>
  <time>2026-09-01T19:52:49Z</time>
  <course>269.15</course>
  <speed>25.820321454234453</speed>
  <fix>3d</fix>
</trkpt>
<trkpt lat="-35.3626499" lon="149.1560777">
  <ele>685.17</ele>
  <time>2026-09-01T19:52:49Z</time>
  <course>268.35</course>
  <speed>25.8</speed>
  <fix>3d</fix>
</trkpt>
<trkpt lat="-35.3626523" lon="149.1559641">
  <ele>685.05</ele>
  <time>2026-09-01T19:52:49Z</time>
  <course>269.21</course>
  <speed>25.820321454234453</speed>
  <fix>3d</fix>
</trkpt>
<trkpt lat="-35.3626512" lon="149.1560208">
  <ele>685.17</ele>
  <time>2026-09-01T19:52:49Z</time>
  <course>268.33</course>
  <speed>25.8</speed>
  <fix>3d</fix>
</trkpt>
<trkpt lat="-35.3626529" lon="149.1559357">
  <ele>685.05</ele>
  <time>2026-09-01T19:52:49Z</time>
  <course>269.25</course>
  <speed>25.81032545319799</speed>
  <fix>3d</fix>
</trkpt>
<trkpt lat="-35.3626512" lon="149.1560208">
  <ele>685.17</ele>
  <time>2026-09-01T19:52:49Z</time>
  <course>268.33</course>
  <speed>25.8</speed>
  <fix>3d</fix>
</trkpt>
<trkpt lat="-35.3626536" lon="149.1559073">
  <ele>685.05</ele>
  <time>2026-09-01T19:52:49Z</time>
  <course>269.18</course>
  <speed>25.81032545319799</speed>
  <fix>3d</fix>
</trkpt>
<trkpt lat="-35.3626525" lon="149.1559641">
  <ele>685.17</ele>
  <time>2026-09-01T19:52:49Z</time>
  <course>268.31</course>
  <speed>25.8</speed>
  <fix>3d</fix>
</trkpt>
<trkpt lat="-35.3626543" lon="149.1558789">
  <ele>685.05</ele>
  <time>2026-09-01T19:52:49Z</time>
  <course>269.13</course>
  <speed>25.80032945526084</speed>
  <fix>3d</fix>
</trkpt>
<trkpt lat="-35.3626525" lon="149.1559641">
  <ele>685.17</ele>
  <time>2026-09-01T19:52:49Z</time>
  <course>268.31</course>
  <speed>25.8</speed>
  <fix>3d</fix>
</trkpt>
<trkpt lat="-35.362655" lon="149.1558501">
  <ele>685.06</ele>
  <time>2026-09-01T19:52:49Z</time>
  <course>269.08</course>
  <speed>25.80032945526084</speed>
  <fix>3d</fix>
</trkpt>
<trkpt lat="-35.362654" lon="149.1559073">
  <ele>685.17</ele>
  <time>2026-09-01T19:52:49Z</time>
  <course>268.31</course>
  <speed>25.8</speed>
  <fix>3d</fix>
</trkpt>
<trkpt lat="-35.3626557" lon="149.1558217">
  <ele>685.06</ele>
  <time>2026-09-01T19:52:49Z</time>
  <course>269.09</course>
  <speed>25.8006143337712</speed>
  <fix>3d</fix>
</trkpt>
<trkpt lat="-35.362654" lon="149.1559073">
  <ele>685.17</ele>
  <time>2026-09-01T19:52:49Z</time>
  <course>268.31</course>
  <speed>25.8</speed>
  <fix>3d</fix>
</trkpt>
<trkpt lat="-35.3626564" lon="149.1557934">
  <ele>685.06</ele>
  <time>2026-09-01T19:52:49Z</time>
  <course>269.1</course>
  <speed>25.79061844935092</speed>
  <fix>3d</fix>
</trkpt>
<trkpt lat="-35.3626553" lon="149.1558504">
  <ele>685.17</ele>
  <time>2026-09-01T19:52:49Z</time>
  <course>268.3</course>
  <speed>25.79</speed>
  <fix>3d</fix>
</trkpt>
<trkpt lat="-35.3626571" lon="149.1557651">
  <ele>685.06</ele>
  <time>2026-09-01T19:52:49Z</time>
  <course>269.07</course>
  <speed>25.790907312461886</speed>
  <fix>3d</fix>
</trkpt>
<trkpt lat="-35.3626553" lon="149.1558504">
  <ele>685.17</ele>
  <time>2026-09-01T19:52:49Z</time>
  <course>268.3</course>
  <speed>25.79</speed>
  <fix>3d</fix>
</trkpt>
<trkpt lat="-35.3626578" lon="149.155737">
  <ele>685.06</ele>
  <time>2026-09-01T19:52:49Z</time>
  <course>269.11</course>
  <speed>25.78091154323291</speed>
  <fix>3d</fix>
</trkpt>
<trkpt lat="-35.3626567" lon="149.1557937">
  <ele>685.17</ele>
  <time>2026-09-01T19:52:49Z</time>
  <course>268.29</course>
  <speed>25.79</speed>
  <fix>3d</fix>
</trkpt>
<trkpt lat="-35.3626585" lon="149.1557088">
  <ele>685.06</ele>
  <time>2026-09-01T19:52:49Z</time>
  <course>269.13</course>
  <speed>25.770915777286614</speed>
  <fix>3d</fix>
</trkpt>
<trkpt lat="-35.3626567" lon="149.1557937">
  <ele>685.17</ele>
  <time>2026-09-01T19:52:49Z</time>
  <course>268.29</course>
  <speed>25.79</speed>
  <fix>3d</fix>
</trkpt>
<trkpt lat="-35.3626592" lon="149.1556806">
  <ele>685.06</ele>
  <time>2026-09-01T19:52:49Z</time>
  <course>269.08</course>
  <speed>25.76092001462681</speed>
  <fix>3d</fix>
</trkpt>
<trkpt lat="-35.3626581" lon="149.1557368">
  <ele>685.17</ele>
  <time>2026-09-01T19:52:49Z</time>
  <course>268.28</course>
  <speed>25.79</speed>
  <fix>3d</fix>
</trkpt>
<trkpt lat="-35.3626599" lon="149.1556524">
  <ele>685.06</ele>
  <time>2026-09-01T19:52:49Z</time>
  <course>269.05</course>
  <speed>25.76092001462681</speed>
  <fix>3d</fix>
</trkpt>
<trkpt lat="-35.3626581" lon="149.1557368">
  <ele>685.17</ele>
  <time>2026-09-01T19:52:49Z</time>
  <course>268.28</course>
  <speed>25.79</speed>
  <fix>3d</fix>
</trkpt>
<trkpt lat="-35.3626606" lon="149.1556242">
  <ele>685.06</ele>
  <time>2026-09-01T19:52:49Z</time>
  <course>269.04</course>
  <speed>25.750924255257324</speed>
  <fix>3d</fix>
</trkpt>
<trkpt lat="-35.3626595" lon="149.1556799">
  <ele>685.17</ele>
  <time>2026-09-01T19:52:49Z</time>
  <course>268.27</course>
  <speed>25.79</speed>
  <fix>3d</fix>
</trkpt>
<trkpt lat="-35.3626613" lon="149.1555959">
  <ele>685.06</ele>
  <time>2026-09-01T19:52:49Z</time>
  <course>269.05</course>
  <speed>25.750924255257324</speed>
  <fix>3d</fix>
</trkpt>
<trkpt lat="-35.3626595" lon="149.1556799">
  <ele>685.17</ele>
  <time>2026-09-01T19:52:49Z</time>
  <course>268.27</course>
  <speed>25.79</speed>
  <fix>3d</fix>
</trkpt>
<trkpt lat="-35.362662" lon="149.1555677">
  <ele>685.06</ele>
  <time>2026-09-01T19:52:49Z</time>
  <course>269.07</course>
  <speed>25.740928499182</speed>
  <fix>3d</fix>
</trkpt>
<trkpt lat="-35.3626608" lon="149.1556231">
  <ele>685.17</ele>
  <time>2026-09-01T19:52:49Z</time>
  <course>268.27</course>
  <speed>25.8</speed>
  <fix>3d</fix>
</trkpt>
<trkpt lat="-35.3626627" lon="149.1555394">
  <ele>685.06</ele>
  <time>2026-09-01T19:52:49Z</time>
  <course>269.04</course>
  <speed>25.74063907520557</speed>
  <fix>3d</fix>
</trkpt>
<trkpt lat="-35.3626608" lon="149.1556231">
  <ele>685.17</ele>
  <time>2026-09-01T19:52:49Z</time>
  <course>268.27</course>
  <speed>25.8</speed>
  <fix>3d</fix>
</trkpt>
<trkpt lat="-35.3626633" lon="149.1555111">
  <ele>685.06</ele>
  <time>2026-09-01T19:52:49Z</time>
  <course>269.01</course>
  <speed>25.74063907520557</speed>
  <fix>3d</fix>
</trkpt>
<trkpt lat="-35.3626622" lon="149.1555662">
  <ele>685.17</ele>
  <time>2026-09-01T19:52:49Z</time>
  <course>268.28</course>
  <speed>25.8</speed>
  <fix>3d</fix>
</trkpt>
<trkpt lat="-35.362664" lon="149.1554828">
  <ele>685.05</ele>
  <time>2026-09-01T19:52:49Z</time>
  <course>268.99</course>
  <speed>25.740928499182</speed>
  <fix>3d</fix>
</trkpt>
<trkpt lat="-35.3626622" lon="149.1555662">
  <ele>685.17</ele>
  <time>2026-09-01T19:52:49Z</time>
  <course>268.28</course>
  <speed>25.8</speed>
  <fix>3d</fix>
</trkpt>
<trkpt lat="-35.3626647" lon="149.1554545">
  <ele>685.05</ele>
  <time>2026-09-01T19:52:49Z</time>
  <course>268.99</course>
  <speed>25.740928499182</speed>
  <fix>3d</fix>
</trkpt>
<trkpt lat="-35.3626637" lon="149.1555095">
  <ele>685.16</ele>
  <time>2026-09-01T19:52:49Z</time>
  <course>268.28</course>
  <speed>25.8</speed>
  <fix>3d</fix>
</trkpt>
<trkpt lat="-35.3626654" lon="149.1554261">
  <ele>685.04</ele>
  <time>2026-09-01T19:52:49Z</time>
  <course>269.04</course>
  <speed>25.740928499182</speed>
  <fix>3d</fix>
</trkpt>
<trkpt lat="-35.3626637" lon="149.1555095">
  <ele>685.16</ele>
  <time>2026-09-01T19:52:49Z</time>
  <course>268.28</course>
  <speed>25.8</speed>
  <fix>3d</fix>
</trkpt>
<trkpt lat="-35.3626661" lon="149.1553978">
  <ele>685.04</ele>
  <time>2026-09-01T19:52:49Z</time>
  <course>269.06</course>
  <speed>25.740928499182</speed>
  <fix>3d</fix>
</trkpt>
<trkpt lat="-35.3626651" lon="149.1554527">
  <ele>685.15</ele>
  <time>2026-09-01T19:52:49Z</time>
  <course>268.27</course>
  <speed>25.8</speed>
  <fix>3d</fix>
</trkpt>
<trkpt lat="-35.3626668" lon="149.1553697">
  <ele>685.03</ele>
  <time>2026-09-01T19:52:49Z</time>
  <course>269.1</course>
  <speed>25.740928499182</speed>
  <fix>3d</fix>
</trkpt>
<trkpt lat="-35.3626651" lon="149.1554527">
  <ele>685.15</ele>
  <time>2026-09-01T19:52:49Z</time>
  <course>268.27</course>
  <speed>25.8</speed>
  <fix>3d</fix>
</trkpt>
<trkpt lat="-35.3626675" lon="149.1553413">
  <ele>685.03</ele>
  <time>2026-09-01T19:52:49Z</time>
  <course>269.09</course>
  <speed>25.740928499182</speed>
  <fix>3d</fix>
</trkpt>
<trkpt lat="-35.3626664" lon="149.1553958">
  <ele>685.14</ele>
  <time>2026-09-01T19:52:49Z</time>
  <course>268.27</course>
  <speed>25.81</speed>
  <fix>3d</fix>
</trkpt>
<trkpt lat="-35.3626682" lon="149.155313">
  <ele>685.02</ele>
  <time>2026-09-01T19:52:49Z</time>
  <course>269.08</course>
  <speed>25.74063907520557</speed>
  <fix>3d</fix>
</trkpt>
<trkpt lat="-35.3626664" lon="149.1553958">
  <ele>685.14</ele>
  <time>2026-09-01T19:52:49Z</time>
  <course>268.27</course>
  <speed>25.81</speed>
  <fix>3d</fix>
</trkpt>
<trkpt lat="-35.3626689" lon="149.1552846">
  <ele>685.02</ele>
  <time>2026-09-01T19:52:49Z</time>
  <course>269.08</course>
  <speed>25.74063907520557</speed>
  <fix>3d</fix>
</trkpt>
<trkpt lat="-35.3626679" lon="149.1553391">
  <ele>685.13</ele>
  <time>2026-09-01T19:52:49Z</time>
  <course>268.28</course>
  <speed>25.81</speed>
  <fix>3d</fix>
</trkpt>
<trkpt lat="-35.3626696" lon="149.155256">
  <ele>685.02</ele>
  <time>2026-09-01T19:52:49Z</time>
  <course>269.09</course>
  <speed>25.74063907520557</speed>
  <fix>3d</fix>
</trkpt>
<trkpt lat="-35.3626679" lon="149.1553391">
  <ele>685.13</ele>
  <time>2026-09-01T19:52:49Z</time>
  <course>268.28</course>
  <speed>25.81</speed>
  <fix>3d</fix>
</trkpt>
<trkpt lat="-35.3626703" lon="149.1552276">
  <ele>685.02</ele>
  <time>2026-09-01T19:52:49Z</time>
  <course>269.11</course>
  <speed>25.74035353292569</speed>
  <fix>3d</fix>
</trkpt>
<trkpt lat="-35.3626692" lon="149.1552822">
  <ele>685.13</ele>
  <time>2026-09-01T19:52:49Z</time>
  <course>268.3</course>
  <speed>25.81</speed>
  <fix>3d</fix>
</trkpt>
<trkpt lat="-35.362671" lon="149.1551993">
  <ele>685.02</ele>
  <time>2026-09-01T19:52:49Z</time>
  <course>269.1</course>
  <speed>25.74035353292569</speed>
  <fix>3d</fix>
</trkpt>
<trkpt lat="-35.3626692" lon="149.1552822">
  <ele>685.13</ele>
  <time>2026-09-01T19:52:49Z</time>
  <course>268.3</course>
  <speed>25.81</speed>
  <fix>3d</fix>
</trkpt>
<trkpt lat="-35.3626716" lon="149.1551709">
  <ele>685.03</ele>
  <time>2026-09-01T19:52:49Z</time>
  <course>269.08</course>
  <speed>25.740071872471532</speed>
  <fix>3d</fix>
</trkpt>
<trkpt lat="-35.3626706" lon="149.1552254">
  <ele>685.12</ele>
  <time>2026-09-01T19:52:49Z</time>
  <course>268.32</course>
  <speed>25.81</speed>
  <fix>3d</fix>
</trkpt>
<trkpt lat="-35.3626723" lon="149.1551425">
  <ele>685.03</ele>
  <time>2026-09-01T19:52:49Z</time>
  <course>269.08</course>
  <speed>25.740071872471532</speed>
  <fix>3d</fix>
</trkpt>
<trkpt lat="-35.3626706" lon="149.1552254">
  <ele>685.12</ele>
  <time>2026-09-01T19:52:49Z</time>
  <course>268.32</course>
  <speed>25.81</speed>
  <fix>3d</fix>
</trkpt>
<trkpt lat="-35.362673" lon="149.1551141">
  <ele>685.03</ele>
  <time>2026-09-01T19:52:49Z</time>
  <course>269.13</course>
  <speed>25.739794093970527</speed>
  <fix>3d</fix>
</trkpt>
<trkpt lat="-35.3626719" lon="149.1551685">
  <ele>685.12</ele>
  <time>2026-09-01T19:52:49Z</time>
  <course>268.33</course>
  <speed>25.81</speed>
  <fix>3d</fix>
</trkpt>
<trkpt lat="-35.3626736" lon="149.1550857">
  <ele>685.04</ele>
  <time>2026-09-01T19:52:49Z</time>
  <course>269.13</course>
  <speed>25.739794093970527</speed>
  <fix>3d</fix>
</trkpt>
<trkpt lat="-35.3626719" lon="149.1551685">
  <ele>685.12</ele>
  <time>2026-09-01T19:52:49Z</time>
  <course>268.33</course>
  <speed>25.81</speed>
  <fix>3d</fix>
</trkpt>
<trkpt lat="-35.3626743" lon="149.1550571">
  <ele>685.04</ele>
  <time>2026-09-01T19:52:49Z</time>
  <course>269.06</course>
  <speed>25.729797900488844</speed>
  <fix>3d</fix>
</trkpt>
<trkpt lat="-35.3626733" lon="149.1551115">
  <ele>685.13</ele>
  <time>2026-09-01T19:52:49Z</time>
  <course>268.35</course>
  <speed>25.8</speed>
  <fix>3d</fix>
</trkpt>
<trkpt lat="-35.362675" lon="149.1550287">
  <ele>685.04</ele>
  <time>2026-09-01T19:52:49Z</time>
  <course>269.05</course>
  <speed>25.729797900488844</speed>
  <fix>3d</fix>
</trkpt>
<trkpt lat="-35.3626733" lon="149.1551115">
  <ele>685.13</ele>
  <time>2026-09-01T19:52:49Z</time>
  <course>268.35</course>
  <speed>25.8</speed>
  <fix>3d</fix>
</trkpt>
<trkpt lat="-35.3626756" lon="149.1550003">
  <ele>685.04</ele>
  <time>2026-09-01T19:52:49Z</time>
  <course>269.1</course>
  <speed>25.739794093970527</speed>
  <fix>3d</fix>
</trkpt>
<trkpt lat="-35.3626746" lon="149.1550547">
  <ele>685.13</ele>
  <time>2026-09-01T19:52:49Z</time>
  <course>268.35</course>
  <speed>25.8</speed>
  <fix>3d</fix>
</trkpt>
<trkpt lat="-35.3626763" lon="149.1549719">
  <ele>685.03</ele>
  <time>2026-09-01T19:52:49Z</time>
  <course>269.12</course>
  <speed>25.739794093970527</speed>
  <fix>3d</fix>
</trkpt>
<trkpt lat="-35.3626746" lon="149.1550547">
  <ele>685.13</ele>
  <time>2026-09-01T19:52:49Z</time>
  <course>268.35</course>
  <speed>25.8</speed>
  <fix>3d</fix>
</trkpt>
<trkpt lat="-35.362677" lon="149.1549434">
  <ele>685.03</ele>
  <time>2026-09-01T19:52:49Z</time>
  <course>269.13</course>
  <speed>25.749790290408193</speed>
  <fix>3d</fix>
</trkpt>
<trkpt lat="-35.3626759" lon="149.1549979">
  <ele>685.13</ele>
  <time>2026-09-01T19:52:49Z</time>
  <course>268.35</course>
  <speed>25.8</speed>
  <fix>3d</fix>
</trkpt>
<trkpt lat="-35.3626776" lon="149.1549149">
  <ele>685.02</ele>
  <time>2026-09-01T19:52:49Z</time>
  <course>269.11</course>
  <speed>25.749790290408193</speed>
  <fix>3d</fix>
</trkpt>
<trkpt lat="-35.3626759" lon="149.1549979">
  <ele>685.13</ele>
  <time>2026-09-01T19:52:49Z</time>
  <course>268.35</course>
  <speed>25.8</speed>
  <fix>3d</fix>
</trkpt>
<trkpt lat="-35.3626783" lon="149.1548865">
  <ele>685.02</ele>
  <time>2026-09-01T19:52:49Z</time>
  <course>269.1</course>
  <speed>25.759786489798397</speed>
  <fix>3d</fix>
</trkpt>
<trkpt lat="-35.3626773" lon="149.154941">
  <ele>685.12</ele>
  <time>2026-09-01T19:52:49Z</time>
  <course>268.35</course>
  <speed>25.8</speed>
  <fix>3d</fix>
</trkpt>
<trkpt lat="-35.362679" lon="149.154858">
  <ele>685.02</ele>
  <time>2026-09-01T19:52:49Z</time>
  <course>269.12</course>
  <speed>25.759786489798397</speed>
  <fix>3d</fix>
</trkpt>
<trkpt lat="-35.3626773" lon="149.154941">
  <ele>685.12</ele>
  <time>2026-09-01T19:52:49Z</time>
  <course>268.35</course>
  <speed>25.8</speed>
  <fix>3d</fix>
</trkpt>
<trkpt lat="-35.3626796" lon="149.1548295">
  <ele>685.01</ele>
  <time>2026-09-01T19:52:49Z</time>
  <course>269.19</course>
  <speed>25.7595128059519</speed>
  <fix>3d</fix>
</trkpt>
<trkpt lat="-35.3626786" lon="149.1548843">
  <ele>685.11</ele>
  <time>2026-09-01T19:52:49Z</time>
  <course>268.35</course>
  <speed>25.81</speed>
  <fix>3d</fix>
</trkpt>
<trkpt lat="-35.3626803" lon="149.1548011">
  <ele>685.01</ele>
  <time>2026-09-01T19:52:49Z</time>
  <course>269.23</course>
  <speed>25.7695091144554</speed>
  <fix>3d</fix>
</trkpt>
<trkpt lat="-35.3626786" lon="149.1548843">
  <ele>685.11</ele>
  <time>2026-09-01T19:52:49Z</time>
  <course>268.35</course>
  <speed>25.81</speed>
  <fix>3d</fix>
</trkpt>
<trkpt lat="-35.3626809" lon="149.1547728">
  <ele>685.01</ele>
  <time>2026-09-01T19:52:49Z</time>
  <course>269.23</course>
  <speed>25.769239414464682</speed>
  <fix>3d</fix>
</trkpt>
<trkpt lat="-35.3626799" lon="149.1548275">
  <ele>685.1</ele>
  <time>2026-09-01T19:52:49Z</time>
  <course>268.37</course>
  <speed>25.81</speed>
  <fix>3d</fix>
</trkpt>
<trkpt lat="-35.3626816" lon="149.1547444">
  <ele>685.0</ele>
  <time>2026-09-01T19:52:49Z</time>
  <course>269.2</course>
  <speed>25.769239414464682</speed>
  <fix>3d</fix>
</trkpt>
<trkpt lat="-35.3626799" lon="149.1548275">
  <ele>685.1</ele>
  <time>2026-09-01T19:52:49Z</time>
  <course>268.37</course>
  <speed>25.81</speed>
  <fix>3d</fix>
</trkpt>
<trkpt lat="-35.3626822" lon="149.1547159">
  <ele>685.0</ele>
  <time>2026-09-01T19:52:49Z</time>
  <course>269.17</course>
  <speed>25.77923583041204</speed>
  <fix>3d</fix>
</trkpt>
<trkpt lat="-35.3626812" lon="149.1547706">
  <ele>685.09</ele>
  <time>2026-09-01T19:52:49Z</time>
  <course>268.39</course>
  <speed>25.81</speed>
  <fix>3d</fix>
</trkpt>
<trkpt lat="-35.3626829" lon="149.1546874">
  <ele>684.99</ele>
  <time>2026-09-01T19:52:49Z</time>
  <course>269.14</course>
  <speed>25.779505425822272</speed>
  <fix>3d</fix>
</trkpt>
<trkpt lat="-35.3626812" lon="149.1547706">
  <ele>685.09</ele>
  <time>2026-09-01T19:52:49Z</time>
  <course>268.39</course>
  <speed>25.81</speed>
  <fix>3d</fix>
</trkpt>
<trkpt lat="-35.3626835" lon="149.1546587">
  <ele>684.99</ele>
  <time>2026-09-01T19:52:49Z</time>
  <course>269.09</course>
  <speed>25.789501740049186</speed>
  <fix>3d</fix>
</trkpt>
<trkpt lat="-35.3626825" lon="149.1547138">
  <ele>685.08</ele>
  <time>2026-09-01T19:52:49Z</time>
  <course>268.39</course>
  <speed>25.81</speed>
  <fix>3d</fix>
</trkpt>
<trkpt lat="-35.3626842" lon="149.1546303">
  <ele>684.99</ele>
  <time>2026-09-01T19:52:49Z</time>
  <course>269.13</course>
  <speed>25.779778897422684</speed>
  <fix>3d</fix>
</trkpt>
<trkpt lat="-35.3626825" lon="149.1547138">
  <ele>685.08</ele>
  <time>2026-09-01T19:52:49Z</time>
  <course>268.39</course>
  <speed>25.81</speed>
  <fix>3d</fix>
</trkpt>
<trkpt lat="-35.3626849" lon="149.1546018">
  <ele>684.98</ele>
  <time>2026-09-01T19:52:49Z</time>
  <course>269.2</course>
  <speed>25.789775105649916</speed>
  <fix>3d</fix>
</trkpt>
<trkpt lat="-35.3626838" lon="149.1546569">
  <ele>685.08</ele>
  <time>2026-09-01T19:52:49Z</time>
  <course>268.38</course>
  <speed>25.81</speed>
  <fix>3d</fix>
</trkpt>
<trkpt lat="-35.3626855" lon="149.1545733">
  <ele>684.98</ele>
  <time>2026-09-01T19:52:49Z</time>
  <course>269.17</course>
  <speed>25.789775105649916</speed>
  <fix>3d</fix>
</trkpt>
<trkpt lat="-35.3626838" lon="149.1546569">
  <ele>685.08</ele>
  <time>2026-09-01T19:52:49Z</time>
  <course>268.38</course>
  <speed>25.81</speed>
  <fix>3d</fix>
</trkpt>
<trkpt lat="-35.3626862" lon="149.1545449">
  <ele>684.98</ele>
  <time>2026-09-01T19:52:50Z</time>
  <course>269.15</course>
  <speed>25.800048449566912</speed>
  <fix>3d</fix>
</trkpt>
<trkpt lat="-35.3626851" lon="149.1546">
  <ele>685.07</ele>
  <time>2026-09-01T19:52:50Z</time>
  <course>268.36</course>
  <speed>25.82</speed>
  <fix>3d</fix>
</trkpt>
<trkpt lat="-35.3626869" lon="149.1545164">
  <ele>684.98</ele>
  <time>2026-09-01T19:52:50Z</time>
  <course>269.17</course>
  <speed>25.800048449566912</speed>
  <fix>3d</fix>
</trkpt>
<trkpt lat="-35.3626851" lon="149.1546">
  <ele>685.07</ele>
  <time>2026-09-01T19:52:50Z</time>
  <course>268.36</course>
  <speed>25.82</speed>
  <fix>3d</fix>
</trkpt>
<trkpt lat="-35.3626875" lon="149.1544879">
  <ele>684.98</ele>
  <time>2026-09-01T19:52:50Z</time>
  <course>269.13</course>
  <speed>25.800048449566912</speed>
  <fix>3d</fix>
</trkpt>
<trkpt lat="-35.3626864" lon="149.154543">
  <ele>685.07</ele>
  <time>2026-09-01T19:52:50Z</time>
  <course>268.34</course>
  <speed>25.82</speed>
  <fix>3d</fix>
</trkpt>
<trkpt lat="-35.3626882" lon="149.1544594">
  <ele>684.98</ele>
  <time>2026-09-01T19:52:50Z</time>
  <course>269.12</course>
  <speed>25.80032945526084</speed>
  <fix>3d</fix>
</trkpt>
<trkpt lat="-35.3626864" lon="149.154543">
  <ele>685.07</ele>
  <time>2026-09-01T19:52:50Z</time>
  <course>268.34</course>
  <speed>25.82</speed>
  <fix>3d</fix>
</trkpt>
<trkpt lat="-35.3626889" lon="149.1544309">
  <ele>684.98</ele>
  <time>2026-09-01T19:52:50Z</time>
  <course>269.13</course>
  <speed>25.800048449566912</speed>
  <fix>3d</fix>
</trkpt>
<trkpt lat="-35.3626878" lon="149.1544862">
  <ele>685.07</ele>
  <time>2026-09-01T19:52:50Z</time>
  <course>268.32</course>
  <speed>25.82</speed>
  <fix>3d</fix>
</trkpt>
<trkpt lat="-35.3626896" lon="149.1544025">
  <ele>684.98</ele>
  <time>2026-09-01T19:52:50Z</time>
  <course>269.17</course>
  <speed>25.810044556335036</speed>
  <fix>3d</fix>
</trkpt>
<trkpt lat="-35.3626878" lon="149.1544862">
  <ele>685.07</ele>
  <time>2026-09-01T19:52:50Z</time>
  <course>268.32</course>
  <speed>25.82</speed>
  <fix>3d</fix>
</trkpt>
<trkpt lat="-35.3626902" lon="149.154374">
  <ele>684.98</ele>
  <time>2026-09-01T19:52:50Z</time>
  <course>269.18</course>
  <speed>25.810044556335036</speed>
  <fix>3d</fix>
</trkpt>
<trkpt lat="-35.3626892" lon="149.1544294">
  <ele>685.07</ele>
  <time>2026-09-01T19:52:50Z</time>
  <course>268.32</course>
  <speed>25.82</speed>
  <fix>3d</fix>
</trkpt>
<trkpt lat="-35.3626909" lon="149.1543455">
  <ele>684.98</ele>
  <time>2026-09-01T19:52:50Z</time>
  <course>269.24</course>
  <speed>25.810044556335036</speed>
  <fix>3d</fix>
</trkpt>
<trkpt lat="-35.3626892" lon="149.1544294">
  <ele>685.07</ele>
  <time>2026-09-01T19:52:50Z</time>
  <course>268.32</course>
  <speed>25.82</speed>
  <fix>3d</fix>
</trkpt>
<trkpt lat="-35.3626916" lon="149.154317">
  <ele>684.99</ele>
  <time>2026-09-01T19:52:50Z</time>
  <course>269.21</course>
  <speed>25.809767530917437</speed>
  <fix>3d</fix>
</trkpt>
<trkpt lat="-35.3626905" lon="149.1543725">
  <ele>685.07</ele>
  <time>2026-09-01T19:52:50Z</time>
  <course>268.33</course>
  <speed>25.82</speed>
  <fix>3d</fix>
</trkpt>
<trkpt lat="-35.3626922" lon="149.1542883">
  <ele>684.99</ele>
  <time>2026-09-01T19:52:50Z</time>
  <course>269.15</course>
  <speed>25.809494377069846</speed>
  <fix>3d</fix>
</trkpt>
<trkpt lat="-35.3626905" lon="149.1543725">
  <ele>685.07</ele>
  <time>2026-09-01T19:52:50Z</time>
  <course>268.33</course>
  <speed>25.82</speed>
  <fix>3d</fix>
</trkpt>
<trkpt lat="-35.3626929" lon="149.1542599">
  <ele>685.0</ele>
  <time>2026-09-01T19:52:50Z</time>
  <course>269.13</course>
  <speed>25.809494377069846</speed>
  <fix>3d</fix>
</trkpt>
<trkpt lat="-35.3626919" lon="149.1543156">
  <ele>685.07</ele>
  <time>2026-09-01T19:52:50Z</time>
  <course>268.35</course>
  <speed>25.82</speed>
  <fix>3d</fix>
</trkpt>
<trkpt lat="-35.3626936" lon="149.1542314">
  <ele>685.0</ele>
  <time>2026-09-01T19:52:50Z</time>
  <course>269.14</course>
  <speed>25.79949805713282</speed>
  <fix>3d</fix>
</trkpt>
<trkpt lat="-35.3626919" lon="149.1543156">
  <ele>685.07</ele>
  <time>2026-09-01T19:52:50Z</time>
  <course>268.35</course>
  <speed>25.82</speed>
  <fix>3d</fix>
</trkpt>
<trkpt lat="-35.3626942" lon="149.1542029">
  <ele>685.0</ele>
  <time>2026-09-01T19:52:50Z</time>
  <course>269.18</course>
  <speed>25.79949805713282</speed>
  <fix>3d</fix>
</trkpt>
<trkpt lat="-35.3626932" lon="149.1542588">
  <ele>685.08</ele>
  <time>2026-09-01T19:52:50Z</time>
  <course>268.36</course>
  <speed>25.81</speed>
  <fix>3d</fix>
</trkpt>
<trkpt lat="-35.3626949" lon="149.1541747">
  <ele>685.0</ele>
  <time>2026-09-01T19:52:50Z</time>
  <course>269.25</course>
  <speed>25.809494377069846</speed>
  <fix>3d</fix>
</trkpt>
<trkpt lat="-35.3626932" lon="149.1542588">
  <ele>685.08</ele>
  <time>2026-09-01T19:52:50Z</time>
  <course>268.36</course>
  <speed>25.81</speed>
  <fix>3d</fix>
</trkpt>
<trkpt lat="-35.3626955" lon="149.1541462">
  <ele>685.0</ele>
  <time>2026-09-01T19:52:50Z</time>
  <course>269.25</course>
  <speed>25.809225094915192</speed>
  <fix>3d</fix>
</trkpt>
<trkpt lat="-35.3626945" lon="149.154202">
  <ele>685.08</ele>
  <time>2026-09-01T19:52:50Z</time>
  <course>268.37</course>
  <speed>25.81</speed>
  <fix>3d</fix>
</trkpt>
<trkpt lat="-35.3626962" lon="149.1541178">
  <ele>685.01</ele>
  <time>2026-09-01T19:52:50Z</time>
  <course>269.24</course>
  <speed>25.799228670640524</speed>
  <fix>3d</fix>
</trkpt>
<trkpt lat="-35.3626945" lon="149.154202">
  <ele>685.08</ele>
  <time>2026-09-01T19:52:50Z</time>
  <course>268.37</course>
  <speed>25.81</speed>
  <fix>3d</fix>
</trkpt>
<trkpt lat="-35.3626968" lon="149.1540893">
  <ele>685.01</ele>
  <time>2026-09-01T19:52:50Z</time>
  <course>269.26</course>
  <speed>25.808959684574656</speed>
  <fix>3d</fix>
</trkpt>
<trkpt lat="-35.3626958" lon="149.1541452">
  <ele>685.09</ele>
  <time>2026-09-01T19:52:50Z</time>
  <course>268.38</course>
  <speed>25.8</speed>
  <fix>3d</fix>
</trkpt>
<trkpt lat="-35.3626975" lon="149.1540606">
  <ele>685.01</ele>
  <time>2026-09-01T19:52:50Z</time>
  <course>269.29</course>
  <speed>25.808959684574656</speed>
  <fix>3d</fix>
</trkpt>
<trkpt lat="-35.3626958" lon="149.1541452">
  <ele>685.09</ele>
  <time>2026-09-01T19:52:50Z</time>
  <course>268.38</course>
  <speed>25.8</speed>
  <fix>3d</fix>
</trkpt>
<trkpt lat="-35.3626981" lon="149.1540321">
  <ele>685.01</ele>
  <time>2026-09-01T19:52:50Z</time>
  <course>269.27</course>
  <speed>25.818694777234576</speed>
  <fix>3d</fix>
</trkpt>
<trkpt lat="-35.3626971" lon="149.1540883">
  <ele>685.09</ele>
  <time>2026-09-01T19:52:50Z</time>
  <course>268.4</course>
  <speed>25.8</speed>
  <fix>3d</fix>
</trkpt>
<trkpt lat="-35.3626987" lon="149.1540036">
  <ele>685.01</ele>
  <time>2026-09-01T19:52:50Z</time>
  <course>269.21</course>
  <speed>25.818694777234576</speed>
  <fix>3d</fix>
</trkpt>
<trkpt lat="-35.3626971" lon="149.1540883">
  <ele>685.09</ele>
  <time>2026-09-01T19:52:50Z</time>
  <course>268.4</course>
  <speed>25.8</speed>
  <fix>3d</fix>
</trkpt>
<trkpt lat="-35.3626994" lon="149.1539751">
  <ele>685.01</ele>
  <time>2026-09-01T19:52:50Z</time>
  <course>269.19</course>
  <speed>25.818956214378613</speed>
  <fix>3d</fix>
</trkpt>
<trkpt lat="-35.3626984" lon="149.1540316">
  <ele>685.09</ele>
  <time>2026-09-01T19:52:50Z</time>
  <course>268.42</course>
  <speed>25.8</speed>
  <fix>3d</fix>
</trkpt>
<trkpt lat="-35.3627" lon="149.1539467">
  <ele>685.01</ele>
  <time>2026-09-01T19:52:50Z</time>
  <course>269.23</course>
  <speed>25.818956214378613</speed>
  <fix>3d</fix>
</trkpt>
<trkpt lat="-35.3626984" lon="149.1540316">
  <ele>685.09</ele>
  <time>2026-09-01T19:52:50Z</time>
  <course>268.42</course>
  <speed>25.8</speed>
  <fix>3d</fix>
</trkpt>
<trkpt lat="-35.3627007" lon="149.1539182">
  <ele>685.01</ele>
  <time>2026-09-01T19:52:50Z</time>
  <course>269.24</course>
  <speed>25.828952746869163</speed>
  <fix>3d</fix>
</trkpt>
<trkpt lat="-35.3626997" lon="149.1539746">
  <ele>685.08</ele>
  <time>2026-09-01T19:52:50Z</time>
  <course>268.42</course>
  <speed>25.8</speed>
  <fix>3d</fix>
</trkpt>
<trkpt lat="-35.3627013" lon="149.1538897">
  <ele>685.01</ele>
  <time>2026-09-01T19:52:50Z</time>
  <course>269.24</course>
  <speed>25.828952746869163</speed>
  <fix>3d</fix>
</trkpt>
<trkpt lat="-35.3626997" lon="149.1539746">
  <ele>685.08</ele>
  <time>2026-09-01T19:52:50Z</time>
  <course>268.42</course>
  <speed>25.8</speed>
  <fix>3d</fix>
</trkpt>
<trkpt lat="-35.3627019" lon="149.1538613">
  <ele>685.02</ele>
  <time>2026-09-01T19:52:50Z</time>
  <course>269.19</course>
  <speed>25.82921795176927</speed>
  <fix>3d</fix>
</trkpt>
<trkpt lat="-35.362701" lon="149.1539177">
  <ele>685.08</ele>
  <time>2026-09-01T19:52:50Z</time>
  <course>268.41</course>
  <speed>25.8</speed>
  <fix>3d</fix>
</trkpt>
<trkpt lat="-35.3627026" lon="149.1538328">
  <ele>685.02</ele>
  <time>2026-09-01T19:52:50Z</time>
  <course>269.19</course>
  <speed>25.82921795176927</speed>
  <fix>3d</fix>
</trkpt>
<trkpt lat="-35.362701" lon="149.1539177">
  <ele>685.08</ele>
  <time>2026-09-01T19:52:50Z</time>
  <course>268.41</course>
  <speed>25.8</speed>
  <fix>3d</fix>
</trkpt>
<trkpt lat="-35.3627032" lon="149.1538045">
  <ele>685.02</ele>
  <time>2026-09-01T19:52:50Z</time>
  <course>269.21</course>
  <speed>25.82921795176927</speed>
  <fix>3d</fix>
</trkpt>
<trkpt lat="-35.3627022" lon="149.1538608">
  <ele>685.07</ele>
  <time>2026-09-01T19:52:50Z</time>
  <course>268.41</course>
  <speed>25.81</speed>
  <fix>3d</fix>
</trkpt>
<trkpt lat="-35.3627039" lon="149.1537762">
  <ele>685.02</ele>
  <time>2026-09-01T19:52:50Z</time>
  <course>269.2</course>
  <speed>25.81922152195918</speed>
  <fix>3d</fix>
</trkpt>
<trkpt lat="-35.3627022" lon="149.1538608">
  <ele>685.07</ele>
  <time>2026-09-01T19:52:50Z</time>
  <course>268.41</course>
  <speed>25.81</speed>
  <fix>3d</fix>
</trkpt>
<trkpt lat="-35.3627045" lon="149.1537479">
  <ele>685.02</ele>
  <time>2026-09-01T19:52:50Z</time>
  <course>269.22</course>
  <speed>25.809225094915192</speed>
  <fix>3d</fix>
</trkpt>
<trkpt lat="-35.3627035" lon="149.1538041">
  <ele>685.07</ele>
  <time>2026-09-01T19:52:50Z</time>
  <course>268.4</course>
  <speed>25.81</speed>
  <fix>3d</fix>
</trkpt>
<trkpt lat="-35.3627052" lon="149.1537196">
  <ele>685.03</ele>
  <time>2026-09-01T19:52:50Z</time>
  <course>269.19</course>
  <speed>25.809225094915192</speed>
  <fix>3d</fix>
</trkpt>
<trkpt lat="-35.3627035" lon="149.1538041">
  <ele>685.07</ele>
  <time>2026-09-01T19:52:50Z</time>
  <course>268.4</course>
  <speed>25.81</speed>
  <fix>3d</fix>
</trkpt>
<trkpt lat="-35.3627058" lon="149.1536914">
  <ele>685.03</ele>
  <time>2026-09-01T19:52:50Z</time>
  <course>269.18</course>
  <speed>25.799228670640524</speed>
  <fix>3d</fix>
</trkpt>
<trkpt lat="-35.3627048" lon="149.1537472">
  <ele>685.07</ele>
  <time>2026-09-01T19:52:50Z</time>
  <course>268.4</course>
  <speed>25.81</speed>
  <fix>3d</fix>
</trkpt>
<trkpt lat="-35.3627064" lon="149.1536631">
  <ele>685.03</ele>
  <time>2026-09-01T19:52:50Z</time>
  <course>269.18</course>
  <speed>25.798963157460417</speed>
  <fix>3d</fix>
</trkpt>
<trkpt lat="-35.3627048" lon="149.1537472">
  <ele>685.07</ele>
  <time>2026-09-01T19:52:50Z</time>
  <course>268.4</course>
  <speed>25.81</speed>
  <fix>3d</fix>
</trkpt>
<trkpt lat="-35.3627071" lon="149.1536349">
  <ele>685.03</ele>
  <time>2026-09-01T19:52:50Z</time>
  <course>269.14</course>
  <speed>25.78896663303902</speed>
  <fix>3d</fix>
</trkpt>
<trkpt lat="-35.3627061" lon="149.1536904">
  <ele>685.07</ele>
  <time>2026-09-01T19:52:50Z</time>
  <course>268.41</course>
  <speed>25.81</speed>
  <fix>3d</fix>
</trkpt>
<trkpt lat="-35.3627077" lon="149.1536066">
  <ele>685.03</ele>
  <time>2026-09-01T19:52:50Z</time>
  <course>269.13</course>
  <speed>25.7789701113136</speed>
  <fix>3d</fix>
</trkpt>
<trkpt lat="-35.3627061" lon="149.1536904">
  <ele>685.07</ele>
  <time>2026-09-01T19:52:50Z</time>
  <course>268.41</course>
  <speed>25.81</speed>
  <fix>3d</fix>
</trkpt>
<trkpt lat="-35.3627083" lon="149.1535784">
  <ele>685.03</ele>
  <time>2026-09-01T19:52:50Z</time>
  <course>269.14</course>
  <speed>25.77923583041204</speed>
  <fix>3d</fix>
</trkpt>
<trkpt lat="-35.3627074" lon="149.1536335">
  <ele>685.07</ele>
  <time>2026-09-01T19:52:50Z</time>
  <course>268.42</course>
  <speed>25.81</speed>
  <fix>3d</fix>
</trkpt>
<trkpt lat="-35.362709" lon="149.1535501">
  <ele>685.02</ele>
  <time>2026-09-01T19:52:50Z</time>
  <course>269.15</course>
  <speed>25.77923583041204</speed>
  <fix>3d</fix>
</trkpt>
<trkpt lat="-35.3627074" lon="149.1536335">
  <ele>685.07</ele>
  <time>2026-09-01T19:52:50Z</time>
  <course>268.42</course>
  <speed>25.81</speed>
  <fix>3d</fix>
</trkpt>
<trkpt lat="-35.3627096" lon="149.1535218">
  <ele>685.01</ele>
  <time>2026-09-01T19:52:50Z</time>
  <course>269.17</course>
  <speed>25.769239414464682</speed>
  <fix>3d</fix>
</trkpt>
<trkpt lat="-35.3627087" lon="149.1535768">
  <ele>685.06</ele>
  <time>2026-09-01T19:52:50Z</time>
  <course>268.41</course>
  <speed>25.81</speed>
  <fix>3d</fix>
</trkpt>
<trkpt lat="-35.3627103" lon="149.1534935">
  <ele>685.01</ele>
  <time>2026-09-01T19:52:50Z</time>
  <course>269.19</course>
  <speed>25.769239414464682</speed>
  <fix>3d</fix>
</trkpt>
<trkpt lat="-35.3627087" lon="149.1535768">
  <ele>685.06</ele>
  <time>2026-09-01T19:52:50Z</time>
  <course>268.41</course>
  <speed>25.81</speed>
  <fix>3d</fix>
</trkpt>
<trkpt lat="-35.3627109" lon="149.153465">
  <ele>685.0</ele>
  <time>2026-09-01T19:52:50Z</time>
  <course>269.22</course>
  <speed>25.769239414464682</speed>
  <fix>3d</fix>
</trkpt>
<trkpt lat="-35.3627099" lon="149.1535199">
  <ele>685.05</ele>
  <time>2026-09-01T19:52:50Z</time>
  <course>268.4</course>
  <speed>25.81</speed>
  <fix>3d</fix>
</trkpt>
<trkpt lat="-35.3627116" lon="149.1534367">
  <ele>684.99</ele>
  <time>2026-09-01T19:52:50Z</time>
  <course>269.19</course>
  <speed>25.768973592287292</speed>
  <fix>3d</fix>
</trkpt>
<trkpt lat="-35.3627099" lon="149.1535199">
  <ele>685.05</ele>
  <time>2026-09-01T19:52:50Z</time>
  <course>268.4</course>
  <speed>25.81</speed>
  <fix>3d</fix>
</trkpt>
<trkpt lat="-35.3627122" lon="149.1534083">
  <ele>684.98</ele>
  <time>2026-09-01T19:52:50Z</time>
  <course>269.14</course>
  <speed>25.768973592287292</speed>
  <fix>3d</fix>
</trkpt>
<trkpt lat="-35.3627112" lon="149.1534631">
  <ele>685.04</ele>
  <time>2026-09-01T19:52:50Z</time>
  <course>268.41</course>
  <speed>25.82</speed>
  <fix>3d</fix>
</trkpt>
<trkpt lat="-35.3627128" lon="149.1533799">
  <ele>684.97</ele>
  <time>2026-09-01T19:52:50Z</time>
  <course>269.15</course>
  <speed>25.768973592287292</speed>
  <fix>3d</fix>
</trkpt>
<trkpt lat="-35.3627112" lon="149.1534631">
  <ele>685.04</ele>
  <time>2026-09-01T19:52:50Z</time>
  <course>268.41</course>
  <speed>25.82</speed>
  <fix>3d</fix>
</trkpt>
<trkpt lat="-35.3627135" lon="149.1533515">
  <ele>684.97</ele>
  <time>2026-09-01T19:52:50Z</time>
  <course>269.15</course>
  <speed>25.77923583041204</speed>
  <fix>3d</fix>
</trkpt>
<trkpt lat="-35.3627125" lon="149.1534061">
  <ele>685.03</ele>
  <time>2026-09-01T19:52:50Z</time>
  <course>268.41</course>
  <speed>25.82</speed>
  <fix>3d</fix>
</trkpt>
<trkpt lat="-35.3627141" lon="149.153323">
  <ele>684.96</ele>
  <time>2026-09-01T19:52:50Z</time>
  <course>269.15</course>
  <speed>25.77923583041204</speed>
  <fix>3d</fix>
</trkpt>
<trkpt lat="-35.3627125" lon="149.1534061">
  <ele>685.03</ele>
  <time>2026-09-01T19:52:50Z</time>
  <course>268.41</course>
  <speed>25.82</speed>
  <fix>3d</fix>
</trkpt>
<trkpt lat="-35.3627148" lon="149.1532945">
  <ele>684.96</ele>
  <time>2026-09-01T19:52:50Z</time>
  <course>269.14</course>
  <speed>25.7892322491384</speed>
  <fix>3d</fix>
</trkpt>
<trkpt lat="-35.3627138" lon="149.1533491">
  <ele>685.01</ele>
  <time>2026-09-01T19:52:50Z</time>
  <course>268.41</course>
  <speed>25.83</speed>
  <fix>3d</fix>
</trkpt>
<trkpt lat="-35.3627154" lon="149.153266">
  <ele>684.95</ele>
  <time>2026-09-01T19:52:50Z</time>
  <course>269.1</course>
  <speed>25.7892322491384</speed>
  <fix>3d</fix>
</trkpt>
<trkpt lat="-35.3627138" lon="149.1533491">
  <ele>685.01</ele>
  <time>2026-09-01T19:52:50Z</time>
  <course>268.41</course>
  <speed>25.83</speed>
  <fix>3d</fix>
</trkpt>
<trkpt lat="-35.3627161" lon="149.1532375">
  <ele>684.95</ele>
  <time>2026-09-01T19:52:50Z</time>
  <course>269.1</course>
  <speed>25.789501740049186</speed>
  <fix>3d</fix>
</trkpt>
<trkpt lat="-35.3627151" lon="149.1532922">
  <ele>685.0</ele>
  <time>2026-09-01T19:52:50Z</time>
  <course>268.41</course>
  <speed>25.83</speed>
  <fix>3d</fix>
</trkpt>
<trkpt lat="-35.3627167" lon="149.153209">
  <ele>684.95</ele>
  <time>2026-09-01T19:52:50Z</time>
  <course>269.15</course>
  <speed>25.79949805713282</speed>
  <fix>3d</fix>
</trkpt>
<trkpt lat="-35.3627151" lon="149.1532922">
  <ele>685.0</ele>
  <time>2026-09-01T19:52:50Z</time>
  <course>268.41</course>
  <speed>25.83</speed>
  <fix>3d</fix>
</trkpt>
<trkpt lat="-35.3627174" lon="149.1531805">
  <ele>684.95</ele>
  <time>2026-09-01T19:52:50Z</time>
  <course>269.18</course>
  <speed>25.799228670640524</speed>
  <fix>3d</fix>
</trkpt>
<trkpt lat="-35.3627164" lon="149.1532353">
  <ele>685.0</ele>
  <time>2026-09-01T19:52:50Z</time>
  <course>268.4</course>
  <speed>25.83</speed>
  <fix>3d</fix>
</trkpt>
<trkpt lat="-35.362718" lon="149.153152">
  <ele>684.95</ele>
  <time>2026-09-01T19:52:50Z</time>
  <course>269.17</course>
  <speed>25.809225094915192</speed>
  <fix>3d</fix>
</trkpt>
<trkpt lat="-35.3627164" lon="149.1532353">
  <ele>685.0</ele>
  <time>2026-09-01T19:52:50Z</time>
  <course>268.4</course>
  <speed>25.83</speed>
  <fix>3d</fix>
</trkpt>
<trkpt lat="-35.3627187" lon="149.1531235">
  <ele>684.95</ele>
  <time>2026-09-01T19:52:50Z</time>
  <course>269.15</course>
  <speed>25.809225094915192</speed>
  <fix>3d</fix>
</trkpt>
<trkpt lat="-35.3627177" lon="149.1531785">
  <ele>685.0</ele>
  <time>2026-09-01T19:52:50Z</time>
  <course>268.41</course>
  <speed>25.83</speed>
  <fix>3d</fix>
</trkpt>
<trkpt lat="-35.3627193" lon="149.153095">
  <ele>684.95</ele>
  <time>2026-09-01T19:52:50Z</time>
  <course>269.15</course>
  <speed>25.809225094915192</speed>
  <fix>3d</fix>
</trkpt>
<trkpt lat="-35.3627177" lon="149.1531785">
  <ele>685.0</ele>
  <time>2026-09-01T19:52:50Z</time>
  <course>268.41</course>
  <speed>25.83</speed>
  <fix>3d</fix>
</trkpt>
<trkpt lat="-35.36272" lon="149.1530665">
  <ele>684.95</ele>
  <time>2026-09-01T19:52:50Z</time>
  <course>269.14</course>
  <speed>25.809225094915192</speed>
  <fix>3d</fix>
</trkpt>
<trkpt lat="-35.3627189" lon="149.1531216">
  <ele>685.0</ele>
  <time>2026-09-01T19:52:50Z</time>
  <course>268.41</course>
  <speed>25.83</speed>
  <fix>3d</fix>
</trkpt>
<trkpt lat="-35.3627206" lon="149.153038">
  <ele>684.95</ele>
  <time>2026-09-01T19:52:50Z</time>
  <course>269.15</course>
  <speed>25.809494377069846</speed>
  <fix>3d</fix>
</trkpt>
<trkpt lat="-35.3627189" lon="149.1531216">
  <ele>685.0</ele>
  <time>2026-09-01T19:52:50Z</time>
  <course>268.41</course>
  <speed>25.83</speed>
  <fix>3d</fix>
</trkpt>
<trkpt lat="-35.3627213" lon="149.1530095">
  <ele>684.95</ele>
  <time>2026-09-01T19:52:50Z</time>
  <course>269.12</course>
  <speed>25.809494377069846</speed>
  <fix>3d</fix>
</trkpt>
<trkpt lat="-35.3627202" lon="149.1530647">
  <ele>685.01</ele>
  <time>2026-09-01T19:52:50Z</time>
  <course>268.4</course>
  <speed>25.83</speed>
  <fix>3d</fix>
</trkpt>
<trkpt lat="-35.3627219" lon="149.152981">
  <ele>684.95</ele>
  <time>2026-09-01T19:52:50Z</time>
  <course>269.1</course>
  <speed>25.81949069985696</speed>
  <fix>3d</fix>
</trkpt>
<trkpt lat="-35.3627202" lon="149.1530647">
  <ele>685.01</ele>
  <time>2026-09-01T19:52:50Z</time>
  <course>268.4</course>
  <speed>25.83</speed>
  <fix>3d</fix>
</trkpt>
<trkpt lat="-35.3627226" lon="149.1529525">
  <ele>684.95</ele>
  <time>2026-09-01T19:52:50Z</time>
  <course>269.14</course>
  <speed>25.81949069985696</speed>
  <fix>3d</fix>
</trkpt>
<trkpt lat="-35.3627215" lon="149.1530078">
  <ele>685.01</ele>
  <time>2026-09-01T19:52:50Z</time>
  <course>268.39</course>
  <speed>25.83</speed>
  <fix>3d</fix>
</trkpt>
<trkpt lat="-35.3627232" lon="149.1529241">
  <ele>684.94</ele>
  <time>2026-09-01T19:52:50Z</time>
  <course>269.18</course>
  <speed>25.81949069985696</speed>
  <fix>3d</fix>
</trkpt>
<trkpt lat="-35.3627215" lon="149.1530078">
  <ele>685.01</ele>
  <time>2026-09-01T19:52:50Z</time>
  <course>268.39</course>
  <speed>25.83</speed>
  <fix>3d</fix>
</trkpt>
<trkpt lat="-35.3627239" lon="149.1528956">
  <ele>684.94</ele>
  <time>2026-09-01T19:52:50Z</time>
  <course>269.24</course>
  <speed>25.81949069985696</speed>
  <fix>3d</fix>
</trkpt>
<trkpt lat="-35.3627228" lon="149.1529509">
  <ele>685.01</ele>
  <time>2026-09-01T19:52:50Z</time>
  <course>268.39</course>
  <speed>25.83</speed>
  <fix>3d</fix>
</trkpt>
<trkpt lat="-35.3627245" lon="149.1528673">
  <ele>684.94</ele>
  <time>2026-09-01T19:52:50Z</time>
  <course>269.21</course>
  <speed>25.81949069985696</speed>
  <fix>3d</fix>
</trkpt>
<trkpt lat="-35.3627228" lon="149.1529509">
  <ele>685.01</ele>
  <time>2026-09-01T19:52:50Z</time>
  <course>268.39</course>
  <speed>25.83</speed>
  <fix>3d</fix>
</trkpt>
<trkpt lat="-35.3627251" lon="149.1528389">
  <ele>684.94</ele>
  <time>2026-09-01T19:52:50Z</time>
  <course>269.2</course>
  <speed>25.81949069985696</speed>
  <fix>3d</fix>
</trkpt>
<trkpt lat="-35.3627241" lon="149.1528941">
  <ele>685.0</ele>
  <time>2026-09-01T19:52:50Z</time>
  <course>268.39</course>
  <speed>25.83</speed>
  <fix>3d</fix>
</trkpt>
<trkpt lat="-35.3627258" lon="149.1528104">
  <ele>684.94</ele>
  <time>2026-09-01T19:52:50Z</time>
  <course>269.2</course>
  <speed>25.81949069985696</speed>
  <fix>3d</fix>
</trkpt>
<trkpt lat="-35.3627241" lon="149.1528941">
  <ele>685.0</ele>
  <time>2026-09-01T19:52:50Z</time>
  <course>268.39</course>
  <speed>25.83</speed>
  <fix>3d</fix>
</trkpt>
<trkpt lat="-35.3627265" lon="149.1527819">
  <ele>684.94</ele>
  <time>2026-09-01T19:52:50Z</time>
  <course>269.18</course>
  <speed>25.81949069985696</speed>
  <fix>3d</fix>
</trkpt>
<trkpt lat="-35.3627254" lon="149.1528372">
  <ele>685.0</ele>
  <time>2026-09-01T19:52:50Z</time>
  <course>268.38</course>
  <speed>25.83</speed>
  <fix>3d</fix>
</trkpt>
<trkpt lat="-35.3627271" lon="149.1527532">
  <ele>684.95</ele>
  <time>2026-09-01T19:52:50Z</time>
  <course>269.16</course>
  <speed>25.82975996791298</speed>
  <fix>3d</fix>
</trkpt>
<trkpt lat="-35.3627254" lon="149.1528372">
  <ele>685.0</ele>
  <time>2026-09-01T19:52:50Z</time>
  <course>268.38</course>
  <speed>25.83</speed>
  <fix>3d</fix>
</trkpt>
<trkpt lat="-35.3627278" lon="149.1527247">
  <ele>684.95</ele>
  <time>2026-09-01T19:52:50Z</time>
  <course>269.19</course>
  <speed>25.82975996791298</speed>
  <fix>3d</fix>
</trkpt>
<trkpt lat="-35.3627267" lon="149.1527802">
  <ele>685.01</ele>
  <time>2026-09-01T19:52:50Z</time>
  <course>268.37</course>
  <speed>25.83</speed>
  <fix>3d</fix>
</trkpt>
<trkpt lat="-35.3627284" lon="149.152696">
  <ele>684.95</ele>
  <time>2026-09-01T19:52:50Z</time>
  <course>269.17</course>
  <speed>25.83003677891303</speed>
  <fix>3d</fix>
</trkpt>
<trkpt lat="-35.3627267" lon="149.1527802">
  <ele>685.01</ele>
  <time>2026-09-01T19:52:50Z</time>
  <course>268.37</course>
  <speed>25.83</speed>
  <fix>3d</fix>
</trkpt>
<trkpt lat="-35.3627291" lon="149.1526676">
  <ele>684.96</ele>
  <time>2026-09-01T19:52:50Z</time>
  <course>269.17</course>
  <speed>25.82004066611825</speed>
  <fix>3d</fix>
</trkpt>
<trkpt lat="-35.3627281" lon="149.1527232">
  <ele>685.02</ele>
  <time>2026-09-01T19:52:50Z</time>
  <course>268.36</course>
  <speed>25.83</speed>
  <fix>3d</fix>
</trkpt>
<trkpt lat="-35.3627298" lon="149.1526391">
  <ele>684.96</ele>
  <time>2026-09-01T19:52:50Z</time>
  <course>269.15</course>
  <speed>25.82004066611825</speed>
  <fix>3d</fix>
</trkpt>
<trkpt lat="-35.3627281" lon="149.1527232">
  <ele>685.02</ele>
  <time>2026-09-01T19:52:50Z</time>
  <course>268.36</course>
  <speed>25.83</speed>
  <fix>3d</fix>
</trkpt>
<trkpt lat="-35.3627305" lon="149.1526106">
  <ele>684.96</ele>
  <time>2026-09-01T19:52:50Z</time>
  <course>269.12</course>
  <speed>25.83003677891303</speed>
  <fix>3d</fix>
</trkpt>
<trkpt lat="-35.3627294" lon="149.1526663">
  <ele>685.02</ele>
  <time>2026-09-01T19:52:50Z</time>
  <course>268.35</course>
  <speed>25.83</speed>
  <fix>3d</fix>
</trkpt>
<trkpt lat="-35.3627311" lon="149.1525822">
  <ele>684.96</ele>
  <time>2026-09-01T19:52:50Z</time>
  <course>269.12</course>
  <speed>25.83003677891303</speed>
  <fix>3d</fix>
</trkpt>
<trkpt lat="-35.3627294" lon="149.1526663">
  <ele>685.02</ele>
  <time>2026-09-01T19:52:50Z</time>
  <course>268.35</course>
  <speed>25.83</speed>
  <fix>3d</fix>
</trkpt>
<trkpt lat="-35.3627318" lon="149.1525537">
  <ele>684.96</ele>
  <time>2026-09-01T19:52:50Z</time>
  <course>269.1</course>
  <speed>25.83003677891303</speed>
  <fix>3d</fix>
</trkpt>
<trkpt lat="-35.3627307" lon="149.1526094">
  <ele>685.03</ele>
  <time>2026-09-01T19:52:50Z</time>
  <course>268.35</course>
  <speed>25.83</speed>
  <fix>3d</fix>
</trkpt>
<trkpt lat="-35.3627325" lon="149.1525252">
  <ele>684.95</ele>
  <time>2026-09-01T19:52:50Z</time>
  <course>269.15</course>
  <speed>25.83003677891303</speed>
  <fix>3d</fix>
</trkpt>
<trkpt lat="-35.3627307" lon="149.1526094">
  <ele>685.03</ele>
  <time>2026-09-01T19:52:50Z</time>
  <course>268.35</course>
  <speed>25.83</speed>
  <fix>3d</fix>
</trkpt>
<trkpt lat="-35.3627331" lon="149.1524968">
  <ele>684.95</ele>
  <time>2026-09-01T19:52:50Z</time>
  <course>269.15</course>
  <speed>25.83003677891303</speed>
  <fix>3d</fix>
</trkpt>
<trkpt lat="-35.3627321" lon="149.1525526">
  <ele>685.03</ele>
  <time>2026-09-01T19:52:50Z</time>
  <course>268.35</course>
  <speed>25.83</speed>
  <fix>3d</fix>
</trkpt>
<trkpt lat="-35.3627338" lon="149.1524683">
  <ele>684.95</ele>
  <time>2026-09-01T19:52:50Z</time>
  <course>269.16</course>
  <speed>25.83003677891303</speed>
  <fix>3d</fix>
</trkpt>
<trkpt lat="-35.3627321" lon="149.1525526">
  <ele>685.03</ele>
  <time>2026-09-01T19:52:50Z</time>
  <course>268.35</course>
  <speed>25.83</speed>
  <fix>3d</fix>
</trkpt>
<trkpt lat="-35.3627345" lon="149.1524399">
  <ele>684.95</ele>
  <time>2026-09-01T19:52:50Z</time>
  <course>269.15</course>
  <speed>25.82004066611825</speed>
  <fix>3d</fix>
</trkpt>
<trkpt lat="-35.3627334" lon="149.1524957">
  <ele>685.03</ele>
  <time>2026-09-01T19:52:50Z</time>
  <course>268.35</course>
  <speed>25.83</speed>
  <fix>3d</fix>
</trkpt>
<trkpt lat="-35.3627351" lon="149.1524115">
  <ele>684.95</ele>
  <time>2026-09-01T19:52:50Z</time>
  <course>269.12</course>
  <speed>25.819763747950912</speed>
  <fix>3d</fix>
</trkpt>
<trkpt lat="-35.3627334" lon="149.1524957">
  <ele>685.03</ele>
  <time>2026-09-01T19:52:50Z</time>
  <course>268.35</course>
  <speed>25.83</speed>
  <fix>3d</fix>
</trkpt>
<trkpt lat="-35.3627358" lon="149.152383">
  <ele>684.95</ele>
  <time>2026-09-01T19:52:50Z</time>
  <course>269.1</course>
  <speed>25.82975996791298</speed>
  <fix>3d</fix>
</trkpt>
<trkpt lat="-35.3627347" lon="149.1524389">
  <ele>685.03</ele>
  <time>2026-09-01T19:52:50Z</time>
  <course>268.37</course>
  <speed>25.83</speed>
  <fix>3d</fix>
</trkpt>
<trkpt lat="-35.3627365" lon="149.1523546">
  <ele>684.95</ele>
  <time>2026-09-01T19:52:50Z</time>
  <course>269.08</course>
  <speed>25.82975996791298</speed>
  <fix>3d</fix>
</trkpt>
<trkpt lat="-35.3627347" lon="149.1524389">
  <ele>685.03</ele>
  <time>2026-09-01T19:52:50Z</time>
  <course>268.37</course>
  <speed>25.83</speed>
  <fix>3d</fix>
</trkpt>
<trkpt lat="-35.3627371" lon="149.1523261">
  <ele>684.95</ele>
  <time>2026-09-01T19:52:50Z</time>
  <course>269.09</course>
  <speed>25.82975996791298</speed>
  <fix>3d</fix>
</trkpt>
<trkpt lat="-35.362736" lon="149.152382">
  <ele>685.03</ele>
  <time>2026-09-01T19:52:50Z</time>
  <course>268.38</course>
  <speed>25.83</speed>
  <fix>3d</fix>
</trkpt>
<trkpt lat="-35.3627378" lon="149.1522977">
  <ele>684.95</ele>
  <time>2026-09-01T19:52:50Z</time>
  <course>269.12</course>
  <speed>25.82975996791298</speed>
  <fix>3d</fix>
</trkpt>
<trkpt lat="-35.362736" lon="149.152382">
  <ele>685.03</ele>
  <time>2026-09-01T19:52:50Z</time>
  <course>268.38</course>
  <speed>25.83</speed>
  <fix>3d</fix>
</trkpt>
<trkpt lat="-35.3627384" lon="149.1522695">
  <ele>684.96</ele>
  <time>2026-09-01T19:52:50Z</time>
  <course>269.1</course>
  <speed>25.83948335396821</speed>
  <fix>3d</fix>
</trkpt>
<trkpt lat="-35.3627373" lon="149.1523251">
  <ele>685.03</ele>
  <time>2026-09-01T19:52:50Z</time>
  <course>268.38</course>
  <speed>25.83</speed>
  <fix>3d</fix>
</trkpt>
<trkpt lat="-35.3627391" lon="149.152241">
  <ele>684.96</ele>
  <time>2026-09-01T19:52:50Z</time>
  <course>269.07</course>
  <speed>25.82948702549085</speed>
  <fix>3d</fix>
</trkpt>
<trkpt lat="-35.3627373" lon="149.1523251">
  <ele>685.03</ele>
  <time>2026-09-01T19:52:50Z</time>
  <course>268.38</course>
  <speed>25.83</speed>
  <fix>3d</fix>
</trkpt>
<trkpt lat="-35.3627397" lon="149.1522126">
  <ele>684.97</ele>
  <time>2026-09-01T19:52:50Z</time>
  <course>269.12</course>
  <speed>25.82948702549085</speed>
  <fix>3d</fix>
</trkpt>
<trkpt lat="-35.3627386" lon="149.1522682">
  <ele>685.03</ele>
  <time>2026-09-01T19:52:50Z</time>
  <course>268.39</course>
  <speed>25.84</speed>
  <fix>3d</fix>
</trkpt>
<trkpt lat="-35.3627404" lon="149.1521842">
  <ele>684.97</ele>
  <time>2026-09-01T19:52:50Z</time>
  <course>269.15</course>
  <speed>25.82948702549085</speed>
  <fix>3d</fix>
</trkpt>
<trkpt lat="-35.3627386" lon="149.1522682">
  <ele>685.03</ele>
  <time>2026-09-01T19:52:50Z</time>
  <course>268.39</course>
  <speed>25.84</speed>
  <fix>3d</fix>
</trkpt>
<trkpt lat="-35.362741" lon="149.1521555">
  <ele>684.97</ele>
  <time>2026-09-01T19:52:50Z</time>
  <course>269.14</course>
  <speed>25.82948702549085</speed>
  <fix>3d</fix>
</trkpt>
<trkpt lat="-35.3627399" lon="149.1522112">
  <ele>685.04</ele>
  <time>2026-09-01T19:52:50Z</time>
  <course>268.39</course>
  <speed>25.84</speed>
  <fix>3d</fix>
</trkpt>
<trkpt lat="-35.3627417" lon="149.152127">
  <ele>684.97</ele>
  <time>2026-09-01T19:52:50Z</time>
  <course>269.17</course>
  <speed>25.82948702549085</speed>
  <fix>3d</fix>
</trkpt>
<trkpt lat="-35.3627399" lon="149.1522112">
  <ele>685.04</ele>
  <time>2026-09-01T19:52:50Z</time>
  <course>268.39</course>
  <speed>25.84</speed>
  <fix>3d</fix>
</trkpt>
<trkpt lat="-35.3627423" lon="149.1520986">
  <ele>684.98</ele>
  <time>2026-09-01T19:52:50Z</time>
  <course>269.14</course>
  <speed>25.82921795176927</speed>
  <fix>3d</fix>
</trkpt>
<trkpt lat="-35.3627412" lon="149.1521542">
  <ele>685.04</ele>
  <time>2026-09-01T19:52:50Z</time>
  <course>268.39</course>
  <speed>25.84</speed>
  <fix>3d</fix>
</trkpt>
<trkpt lat="-35.362743" lon="149.1520692">
  <ele>684.98</ele>
  <time>2026-09-01T19:52:50Z</time>
  <course>269.12</course>
  <speed>25.82948702549085</speed>
  <fix>3d</fix>
</trkpt>
<trkpt lat="-35.3627425" lon="149.1520973">
  <ele>685.05</ele>
  <time>2026-09-01T19:52:50Z</time>
  <course>268.4</course>
  <speed>25.83</speed>
  <fix>3d</fix>
</trkpt>
<trkpt lat="-35.3627436" lon="149.152041">
  <ele>684.98</ele>
  <time>2026-09-01T19:52:50Z</time>
  <course>269.2</course>
  <speed>25.81922152195918</speed>
  <fix>3d</fix>
</trkpt>
<trkpt lat="-35.3627425" lon="149.1520973">
  <ele>685.05</ele>
  <time>2026-09-01T19:52:50Z</time>
  <course>268.4</course>
  <speed>25.83</speed>
  <fix>3d</fix>
</trkpt>
<trkpt lat="-35.3627442" lon="149.1520125">
  <ele>684.98</ele>
  <time>2026-09-01T19:52:50Z</time>
  <course>269.14</course>
  <speed>25.81922152195918</speed>
  <fix>3d</fix>
</trkpt>
<trkpt lat="-35.3627438" lon="149.1520405">
  <ele>685.05</ele>
  <time>2026-09-01T19:52:50Z</time>
  <course>268.4</course>
  <speed>25.83</speed>
  <fix>3d</fix>
</trkpt>
<trkpt lat="-35.3627449" lon="149.1519841">
  <ele>684.98</ele>
  <time>2026-09-01T19:52:50Z</time>
  <course>269.1</course>
  <speed>25.81922152195918</speed>
  <fix>3d</fix>
</trkpt>
<trkpt lat="-35.3627438" lon="149.1520405">
  <ele>685.05</ele>
  <time>2026-09-01T19:52:50Z</time>
  <course>268.4</course>
  <speed>25.83</speed>
  <fix>3d</fix>
</trkpt>
<trkpt lat="-35.3627455" lon="149.1519556">
  <ele>684.98</ele>
  <time>2026-09-01T19:52:50Z</time>
  <course>269.11</course>
  <speed>25.81922152195918</speed>
  <fix>3d</fix>
</trkpt>
<trkpt lat="-35.3627451" lon="149.1519836">
  <ele>685.05</ele>
  <time>2026-09-01T19:52:50Z</time>
  <course>268.4</course>
  <speed>25.83</speed>
  <fix>3d</fix>
</trkpt>
<trkpt lat="-35.3627462" lon="149.1519269">
  <ele>684.97</ele>
  <time>2026-09-01T19:52:50Z</time>
  <course>269.11</course>
  <speed>25.81922152195918</speed>
  <fix>3d</fix>
</trkpt>
<trkpt lat="-35.3627451" lon="149.1519836">
  <ele>685.05</ele>
  <time>2026-09-01T19:52:50Z</time>
  <course>268.4</course>
  <speed>25.83</speed>
  <fix>3d</fix>
</trkpt>
<trkpt lat="-35.3627468" lon="149.1518992">
  <ele>684.98</ele>
  <time>2026-09-01T19:52:50Z</time>
  <course>269.16</course>
  <speed>25.81922152195918</speed>
  <fix>3d</fix>
</trkpt>
<trkpt lat="-35.3627451" lon="149.1519836">
  <ele>685.05</ele>
  <time>2026-09-01T19:52:50Z</time>
  <course>268.4</course>
  <speed>25.83</speed>
  <fix>3d</fix>
</trkpt>
<trkpt lat="-35.3627474" lon="149.1518707">
  <ele>684.98</ele>
  <time>2026-09-01T19:52:50Z</time>
  <course>269.19</course>
  <speed>25.81922152195918</speed>
  <fix>3d</fix>
</trkpt>
<trkpt lat="-35.3627464" lon="149.1519267">
  <ele>685.05</ele>
  <time>2026-09-01T19:52:50Z</time>
  <course>268.39</course>
  <speed>25.82</speed>
  <fix>3d</fix>
</trkpt>
<trkpt lat="-35.3627481" lon="149.1518423">
  <ele>684.99</ele>
  <time>2026-09-01T19:52:50Z</time>
  <course>269.16</course>
  <speed>25.808959684574656</speed>
  <fix>3d</fix>
</trkpt>
<trkpt lat="-35.3627464" lon="149.1519267">
  <ele>685.05</ele>
  <time>2026-09-01T19:52:50Z</time>
  <course>268.39</course>
  <speed>25.82</speed>
  <fix>3d</fix>
</trkpt>
<trkpt lat="-35.3627487" lon="149.1518139">
  <ele>684.99</ele>
  <time>2026-09-01T19:52:50Z</time>
  <course>269.13</course>
  <speed>25.809225094915192</speed>
  <fix>3d</fix>
</trkpt>
<trkpt lat="-35.3627477" lon="149.1518699">
  <ele>685.05</ele>
  <time>2026-09-01T19:52:50Z</time>
  <course>268.4</course>
  <speed>25.82</speed>
  <fix>3d</fix>
</trkpt>
<trkpt lat="-35.3627494" lon="149.1517854">
  <ele>685.0</ele>
  <time>2026-09-01T19:52:50Z</time>
  <course>269.09</course>
  <speed>25.809225094915192</speed>
  <fix>3d</fix>
</trkpt>
<trkpt lat="-35.3627477" lon="149.1518699">
  <ele>685.05</ele>
  <time>2026-09-01T19:52:50Z</time>
  <course>268.4</course>
  <speed>25.82</speed>
  <fix>3d</fix>
</trkpt>
<trkpt lat="-35.36275" lon="149.151757">
  <ele>685.0</ele>
  <time>2026-09-01T19:52:50Z</time>
  <course>269.09</course>
  <speed>25.809225094915192</speed>
  <fix>3d</fix>
</trkpt>
<trkpt lat="-35.362749" lon="149.151813">
  <ele>685.06</ele>
  <time>2026-09-01T19:52:50Z</time>
  <course>268.4</course>
  <speed>25.81</speed>
  <fix>3d</fix>
</trkpt>
<trkpt lat="-35.3627507" lon="149.1517286">
  <ele>685.0</ele>
  <time>2026-09-01T19:52:50Z</time>
  <course>269.1</course>
  <speed>25.809494377069846</speed>
  <fix>3d</fix>
</trkpt>
<trkpt lat="-35.362749" lon="149.151813">
  <ele>685.06</ele>
  <time>2026-09-01T19:52:50Z</time>
  <course>268.4</course>
  <speed>25.81</speed>
  <fix>3d</fix>
</trkpt>
<trkpt lat="-35.3627513" lon="149.1517003">
  <ele>685.0</ele>
  <time>2026-09-01T19:52:50Z</time>
  <course>269.1</course>
  <speed>25.799771316815967</speed>
  <fix>3d</fix>
</trkpt>
<trkpt lat="-35.3627503" lon="149.1517562">
  <ele>685.06</ele>
  <time>2026-09-01T19:52:50Z</time>
  <course>268.39</course>
  <speed>25.81</speed>
  <fix>3d</fix>
</trkpt>
<trkpt lat="-35.362752" lon="149.1516719">
  <ele>685.0</ele>
  <time>2026-09-01T19:52:50Z</time>
  <course>269.09</course>
  <speed>25.799771316815967</speed>
  <fix>3d</fix>
</trkpt>
<trkpt lat="-35.3627503" lon="149.1517562">
  <ele>685.06</ele>
  <time>2026-09-01T19:52:50Z</time>
  <course>268.39</course>
  <speed>25.81</speed>
  <fix>3d</fix>
</trkpt>
<trkpt lat="-35.3627527" lon="149.1516434">
  <ele>685.0</ele>
  <time>2026-09-01T19:52:50Z</time>
  <course>269.1</course>
  <speed>25.799771316815967</speed>
  <fix>3d</fix>
</trkpt>
<trkpt lat="-35.3627516" lon="149.1516993">
  <ele>685.06</ele>
  <time>2026-09-01T19:52:50Z</time>
  <course>268.36</course>
  <speed>25.81</speed>
  <fix>3d</fix>
</trkpt>
<trkpt lat="-35.3627533" lon="149.151615">
  <ele>685.0</ele>
  <time>2026-09-01T19:52:50Z</time>
  <course>269.08</course>
  <speed>25.809767530917437</speed>
  <fix>3d</fix>
</trkpt>
<trkpt lat="-35.3627516" lon="149.1516993">
  <ele>685.06</ele>
  <time>2026-09-01T19:52:50Z</time>
  <course>268.36</course>
  <speed>25.81</speed>
  <fix>3d</fix>
</trkpt>
<trkpt lat="-35.362754" lon="149.1515865">
  <ele>685.0</ele>
  <time>2026-09-01T19:52:50Z</time>
  <course>269.11</course>
  <speed>25.810044556335036</speed>
  <fix>3d</fix>
</trkpt>
<trkpt lat="-35.3627529" lon="149.1516424">
  <ele>685.06</ele>
  <time>2026-09-01T19:52:50Z</time>
  <course>268.35</course>
  <speed>25.8</speed>
  <fix>3d</fix>
</trkpt>
<trkpt lat="-35.3627547" lon="149.1515578">
  <ele>684.99</ele>
  <time>2026-09-01T19:52:50Z</time>
  <course>269.15</course>
  <speed>25.810044556335036</speed>
  <fix>3d</fix>
</trkpt>
<trkpt lat="-35.3627529" lon="149.1516424">
  <ele>685.06</ele>
  <time>2026-09-01T19:52:50Z</time>
  <course>268.35</course>
  <speed>25.8</speed>
  <fix>3d</fix>
</trkpt>
<trkpt lat="-35.3627553" lon="149.1515293">
  <ele>684.99</ele>
  <time>2026-09-01T19:52:50Z</time>
  <course>269.1</course>
  <speed>25.82004066611825</speed>
  <fix>3d</fix>
</trkpt>
<trkpt lat="-35.3627543" lon="149.1515855">
  <ele>685.06</ele>
  <time>2026-09-01T19:52:50Z</time>
  <course>268.34</course>
  <speed>25.8</speed>
  <fix>3d</fix>
</trkpt>
<trkpt lat="-35.362756" lon="149.1515008">
  <ele>684.98</ele>
  <time>2026-09-01T19:52:50Z</time>
  <course>269.05</course>
  <speed>25.82004066611825</speed>
  <fix>3d</fix>
</trkpt>
<trkpt lat="-35.3627543" lon="149.1515855">
  <ele>685.06</ele>
  <time>2026-09-01T19:52:50Z</time>
  <course>268.34</course>
  <speed>25.8</speed>
  <fix>3d</fix>
</trkpt>
<trkpt lat="-35.3627567" lon="149.1514714">
  <ele>684.98</ele>
  <time>2026-09-01T19:52:50Z</time>
  <course>268.98</course>
  <speed>25.820321454234453</speed>
  <fix>3d</fix>
</trkpt>
<trkpt lat="-35.3627556" lon="149.1515286">
  <ele>685.05</ele>
  <time>2026-09-01T19:52:50Z</time>
  <course>268.34</course>
  <speed>25.8</speed>
  <fix>3d</fix>
</trkpt>
<trkpt lat="-35.3627574" lon="149.1514431">
  <ele>684.98</ele>
  <time>2026-09-01T19:52:50Z</time>
  <course>269.0</course>
  <speed>25.820606112173277</speed>
  <fix>3d</fix>
</trkpt>
<trkpt lat="-35.362757" lon="149.1514719">
  <ele>685.05</ele>
  <time>2026-09-01T19:52:50Z</time>
  <course>268.32</course>
  <speed>25.81</speed>
  <fix>3d</fix>
</trkpt>
<trkpt lat="-35.3627581" lon="149.1514147">
  <ele>684.98</ele>
  <time>2026-09-01T19:52:50Z</time>
  <course>269.0</course>
  <speed>25.810898860752605</speed>
  <fix>3d</fix>
</trkpt>
<trkpt lat="-35.362757" lon="149.1514719">
  <ele>685.05</ele>
  <time>2026-09-01T19:52:50Z</time>
  <course>268.32</course>
  <speed>25.81</speed>
  <fix>3d</fix>
</trkpt>
<trkpt lat="-35.3627588" lon="149.1513862">
  <ele>684.98</ele>
  <time>2026-09-01T19:52:50Z</time>
  <course>268.94</course>
  <speed>25.820894639806735</speed>
  <fix>3d</fix>
</trkpt>
<trkpt lat="-35.3627584" lon="149.1514151">
  <ele>685.05</ele>
  <time>2026-09-01T19:52:50Z</time>
  <course>268.29</course>
  <speed>25.81</speed>
  <fix>3d</fix>
</trkpt>
<trkpt lat="-35.3627595" lon="149.1513578">
  <ele>684.98</ele>
  <time>2026-09-01T19:52:50Z</time>
  <course>268.93</course>
  <speed>25.821187037005096</speed>
  <fix>3d</fix>
</trkpt>
<trkpt lat="-35.3627584" lon="149.1514151">
  <ele>685.05</ele>
  <time>2026-09-01T19:52:50Z</time>
  <course>268.29</course>
  <speed>25.81</speed>
  <fix>3d</fix>
</trkpt>
<trkpt lat="-35.3627602" lon="149.1513291">
  <ele>684.97</ele>
  <time>2026-09-01T19:52:50Z</time>
  <course>268.97</course>
  <speed>25.821187037005096</speed>
  <fix>3d</fix>
</trkpt>
<trkpt lat="-35.3627598" lon="149.1513583">
  <ele>685.04</ele>
  <time>2026-09-01T19:52:50Z</time>
  <course>268.26</course>
  <speed>25.8</speed>
  <fix>3d</fix>
</trkpt>
<trkpt lat="-35.3627609" lon="149.1513007">
  <ele>684.97</ele>
  <time>2026-09-01T19:52:50Z</time>
  <course>269.04</course>
  <speed>25.81119137118626</speed>
  <fix>3d</fix>
</trkpt>
<trkpt lat="-35.3627598" lon="149.1513583">
  <ele>685.04</ele>
  <time>2026-09-01T19:52:50Z</time>
  <course>268.26</course>
  <speed>25.8</speed>
  <fix>3d</fix>
</trkpt>
<trkpt lat="-35.3627616" lon="149.1512722">
  <ele>684.97</ele>
  <time>2026-09-01T19:52:50Z</time>
  <course>269.1</course>
  <speed>25.820894639806735</speed>
  <fix>3d</fix>
</trkpt>
<trkpt lat="-35.3627611" lon="149.1513015">
  <ele>685.04</ele>
  <time>2026-09-01T19:52:50Z</time>
  <course>268.26</course>
  <speed>25.81</speed>
  <fix>3d</fix>
</trkpt>
<trkpt lat="-35.3627623" lon="149.1512438">
  <ele>684.97</ele>
  <time>2026-09-01T19:52:50Z</time>
  <course>269.01</course>
  <speed>25.820894639806735</speed>
  <fix>3d</fix>
</trkpt>
<trkpt lat="-35.3627611" lon="149.1513015">
  <ele>685.04</ele>
  <time>2026-09-01T19:52:50Z</time>
  <course>268.26</course>
  <speed>25.81</speed>
  <fix>3d</fix>
</trkpt>
<trkpt lat="-35.362763" lon="149.1512154">
  <ele>684.98</ele>
  <time>2026-09-01T19:52:50Z</time>
  <course>268.96</course>
  <speed>25.820894639806735</speed>
  <fix>3d</fix>
</trkpt>
<trkpt lat="-35.3627625" lon="149.1512447">
  <ele>685.04</ele>
  <time>2026-09-01T19:52:50Z</time>
  <course>268.27</course>
  <speed>25.81</speed>
  <fix>3d</fix>
</trkpt>
<trkpt lat="-35.3627637" lon="149.151187">
  <ele>684.98</ele>
  <time>2026-09-01T19:52:50Z</time>
  <course>268.93</course>
  <speed>25.810898860752605</speed>
  <fix>3d</fix>
</trkpt>
<trkpt lat="-35.3627625" lon="149.1512447">
  <ele>685.04</ele>
  <time>2026-09-01T19:52:50Z</time>
  <course>268.27</course>
  <speed>25.81</speed>
  <fix>3d</fix>
</trkpt>
<trkpt lat="-35.3627644" lon="149.1511585">
  <ele>684.98</ele>
  <time>2026-09-01T19:52:50Z</time>
  <course>268.89</course>
  <speed>25.810898860752605</speed>
  <fix>3d</fix>
</trkpt>
<trkpt lat="-35.362764" lon="149.1511878">
  <ele>685.04</ele>
  <time>2026-09-01T19:52:50Z</time>
  <course>268.27</course>
  <speed>25.81</speed>
  <fix>3d</fix>
</trkpt>
<trkpt lat="-35.3627651" lon="149.1511308">
  <ele>684.98</ele>
  <time>2026-09-01T19:52:50Z</time>
  <course>268.95</course>
  <speed>25.810898860752605</speed>
  <fix>3d</fix>
</trkpt>
<trkpt lat="-35.362764" lon="149.1511878">
  <ele>685.04</ele>
  <time>2026-09-01T19:52:50Z</time>
  <course>268.27</course>
  <speed>25.81</speed>
  <fix>3d</fix>
</trkpt>
<trkpt lat="-35.3627658" lon="149.1511027">
  <ele>684.99</ele>
  <time>2026-09-01T19:52:50Z</time>
  <course>268.97</course>
  <speed>25.820894639806735</speed>
  <fix>3d</fix>
</trkpt>
<trkpt lat="-35.362764" lon="149.1511878">
  <ele>685.04</ele>
  <time>2026-09-01T19:52:50Z</time>
  <course>268.27</course>
  <speed>25.81</speed>
  <fix>3d</fix>
</trkpt>
<trkpt lat="-35.3627665" lon="149.1510742">
  <ele>684.99</ele>
  <time>2026-09-01T19:52:50Z</time>
  <course>268.95</course>
  <speed>25.820894639806735</speed>
  <fix>3d</fix>
</trkpt>
<trkpt lat="-35.3627654" lon="149.151131">
  <ele>685.04</ele>
  <time>2026-09-01T19:52:50Z</time>
  <course>268.27</course>
  <speed>25.81</speed>
  <fix>3d</fix>
</trkpt>
<trkpt lat="-35.3627672" lon="149.1510458">
  <ele>684.99</ele>
  <time>2026-09-01T19:52:50Z</time>
  <course>268.93</course>
  <speed>25.810898860752605</speed>
  <fix>3d</fix>
</trkpt>
<trkpt lat="-35.3627654" lon="149.151131">
  <ele>685.04</ele>
  <time>2026-09-01T19:52:50Z</time>
  <course>268.27</course>
  <speed>25.81</speed>
  <fix>3d</fix>
</trkpt>
<trkpt lat="-35.3627679" lon="149.1510174">
  <ele>684.99</ele>
  <time>2026-09-01T19:52:50Z</time>
  <course>268.89</course>
  <speed>25.821187037005096</speed>
  <fix>3d</fix>
</trkpt>
<trkpt lat="-35.3627668" lon="149.1510741">
  <ele>685.04</ele>
  <time>2026-09-01T19:52:50Z</time>
  <course>268.26</course>
  <speed>25.81</speed>
  <fix>3d</fix>
</trkpt>
<trkpt lat="-35.3627686" lon="149.1509888">
  <ele>684.99</ele>
  <time>2026-09-01T19:52:50Z</time>
  <course>268.92</course>
  <speed>25.821187037005096</speed>
  <fix>3d</fix>
</trkpt>
<trkpt lat="-35.3627668" lon="149.1510741">
  <ele>685.04</ele>
  <time>2026-09-01T19:52:50Z</time>
  <course>268.26</course>
  <speed>25.81</speed>
  <fix>3d</fix>
</trkpt>
<trkpt lat="-35.3627693" lon="149.1509603">
  <ele>684.98</ele>
  <time>2026-09-01T19:52:50Z</time>
  <course>268.98</course>
  <speed>25.821187037005096</speed>
  <fix>3d</fix>
</trkpt>
<trkpt lat="-35.3627682" lon="149.1510172">
  <ele>685.03</ele>
  <time>2026-09-01T19:52:50Z</time>
  <course>268.25</course>
  <speed>25.81</speed>
  <fix>3d</fix>
</trkpt>
<trkpt lat="-35.36277" lon="149.1509319">
  <ele>684.98</ele>
  <time>2026-09-01T19:52:50Z</time>
  <course>268.99</course>
  <speed>25.81119137118626</speed>
  <fix>3d</fix>
</trkpt>
<trkpt lat="-35.3627682" lon="149.1510172">
  <ele>685.03</ele>
  <time>2026-09-01T19:52:50Z</time>
  <course>268.25</course>
  <speed>25.81</speed>
  <fix>3d</fix>
</trkpt>
<trkpt lat="-35.3627708" lon="149.1509025">
  <ele>684.98</ele>
  <time>2026-09-01T19:52:50Z</time>
  <course>268.96</course>
  <speed>25.810898860752605</speed>
  <fix>3d</fix>
</trkpt>
<trkpt lat="-35.3627696" lon="149.1509603">
  <ele>685.03</ele>
  <time>2026-09-01T19:52:50Z</time>
  <course>268.25</course>
  <speed>25.81</speed>
  <fix>3d</fix>
</trkpt>
<trkpt lat="-35.3627715" lon="149.1508741">
  <ele>684.99</ele>
  <time>2026-09-01T19:52:50Z</time>
  <course>268.95</course>
  <speed>25.810898860752605</speed>
  <fix>3d</fix>
</trkpt>
<trkpt lat="-35.3627709" lon="149.1509034">
  <ele>685.03</ele>
  <time>2026-09-01T19:52:50Z</time>
  <course>268.26</course>
  <speed>25.81</speed>
  <fix>3d</fix>
</trkpt>
<trkpt lat="-35.3627722" lon="149.1508459">
  <ele>684.99</ele>
  <time>2026-09-01T19:52:50Z</time>
  <course>268.93</course>
  <speed>25.810898860752605</speed>
  <fix>3d</fix>
</trkpt>
<trkpt lat="-35.3627709" lon="149.1509034">
  <ele>685.03</ele>
  <time>2026-09-01T19:52:50Z</time>
  <course>268.26</course>
  <speed>25.81</speed>
  <fix>3d</fix>
</trkpt>
<trkpt lat="-35.3627729" lon="149.1508175">
  <ele>684.98</ele>
  <time>2026-09-01T19:52:50Z</time>
  <course>268.92</course>
  <speed>25.81061022137989</speed>
  <fix>3d</fix>
</trkpt>
<trkpt lat="-35.3627724" lon="149.1508467">
  <ele>685.02</ele>
  <time>2026-09-01T19:52:50Z</time>
  <course>268.27</course>
  <speed>25.81</speed>
  <fix>3d</fix>
</trkpt>
<trkpt lat="-35.3627735" lon="149.1507891">
  <ele>684.98</ele>
  <time>2026-09-01T19:52:50Z</time>
  <course>268.97</course>
  <speed>25.81061022137989</speed>
  <fix>3d</fix>
</trkpt>
<trkpt lat="-35.3627724" lon="149.1508467">
  <ele>685.02</ele>
  <time>2026-09-01T19:52:50Z</time>
  <course>268.27</course>
  <speed>25.81</speed>
  <fix>3d</fix>
</trkpt>
<trkpt lat="-35.3627742" lon="149.1507607">
  <ele>684.98</ele>
  <time>2026-09-01T19:52:50Z</time>
  <course>269.0</course>
  <speed>25.81061022137989</speed>
  <fix>3d</fix>
</trkpt>
<trkpt lat="-35.3627738" lon="149.1507898">
  <ele>685.01</ele>
  <time>2026-09-01T19:52:50Z</time>
  <course>268.28</course>
  <speed>25.81</speed>
  <fix>3d</fix>
</trkpt>
<trkpt lat="-35.3627749" lon="149.150732">
  <ele>684.97</ele>
  <time>2026-09-01T19:52:50Z</time>
  <course>269.01</course>
  <speed>25.81032545319799</speed>
  <fix>3d</fix>
</trkpt>
<trkpt lat="-35.3627738" lon="149.1507898">
  <ele>685.01</ele>
  <time>2026-09-01T19:52:50Z</time>
  <course>268.28</course>
  <speed>25.81</speed>
  <fix>3d</fix>
</trkpt>
<trkpt lat="-35.3627756" lon="149.1507036">
  <ele>684.97</ele>
  <time>2026-09-01T19:52:50Z</time>
  <course>269.02</course>
  <speed>25.81032545319799</speed>
  <fix>3d</fix>
</trkpt>
<trkpt lat="-35.3627751" lon="149.150733">
  <ele>685.01</ele>
  <time>2026-09-01T19:52:50Z</time>
  <course>268.3</course>
  <speed>25.81</speed>
  <fix>3d</fix>
</trkpt>
<trkpt lat="-35.3627763" lon="149.1506752">
  <ele>684.97</ele>
  <time>2026-09-01T19:52:50Z</time>
  <course>268.99</course>
  <speed>25.800048449566912</speed>
  <fix>3d</fix>
</trkpt>
<trkpt lat="-35.3627751" lon="149.150733">
  <ele>685.01</ele>
  <time>2026-09-01T19:52:50Z</time>
  <course>268.3</course>
  <speed>25.81</speed>
  <fix>3d</fix>
</trkpt>
<trkpt lat="-35.362777" lon="149.1506468">
  <ele>684.96</ele>
  <time>2026-09-01T19:52:50Z</time>
  <course>268.97</course>
  <speed>25.810044556335036</speed>
  <fix>3d</fix>
</trkpt>
<trkpt lat="-35.3627764" lon="149.1506762">
  <ele>685.0</ele>
  <time>2026-09-01T19:52:50Z</time>
  <course>268.31</course>
  <speed>25.81</speed>
  <fix>3d</fix>
</trkpt>
<trkpt lat="-35.3627776" lon="149.1506184">
  <ele>684.96</ele>
  <time>2026-09-01T19:52:50Z</time>
  <course>269.01</course>
  <speed>25.810044556335036</speed>
  <fix>3d</fix>
</trkpt>
<trkpt lat="-35.3627764" lon="149.1506762">
  <ele>685.0</ele>
  <time>2026-09-01T19:52:50Z</time>
  <course>268.31</course>
  <speed>25.81</speed>
  <fix>3d</fix>
</trkpt>
<trkpt lat="-35.3627783" lon="149.15059">
  <ele>684.95</ele>
  <time>2026-09-01T19:52:50Z</time>
  <course>269.01</course>
  <speed>25.810044556335036</speed>
  <fix>3d</fix>
</trkpt>
<trkpt lat="-35.3627779" lon="149.1506193">
  <ele>685.0</ele>
  <time>2026-09-01T19:52:50Z</time>
  <course>268.33</course>
  <speed>25.82</speed>
  <fix>3d</fix>
</trkpt>
<trkpt lat="-35.362779" lon="149.1505616">
  <ele>684.95</ele>
  <time>2026-09-01T19:52:50Z</time>
  <course>269.02</course>
  <speed>25.810044556335036</speed>
  <fix>3d</fix>
</trkpt>
<trkpt lat="-35.3627779" lon="149.1506193">
  <ele>685.0</ele>
  <time>2026-09-01T19:52:50Z</time>
  <course>268.33</course>
  <speed>25.82</speed>
  <fix>3d</fix>
</trkpt>
<trkpt lat="-35.3627796" lon="149.1505332">
  <ele>684.94</ele>
  <time>2026-09-01T19:52:50Z</time>
  <course>269.04</course>
  <speed>25.809767530917437</speed>
  <fix>3d</fix>
</trkpt>
<trkpt lat="-35.3627792" lon="149.1505624">
  <ele>684.99</ele>
  <time>2026-09-01T19:52:50Z</time>
  <course>268.34</course>
  <speed>25.82</speed>
  <fix>3d</fix>
</trkpt>
<trkpt lat="-35.3627803" lon="149.1505047">
  <ele>684.93</ele>
  <time>2026-09-01T19:52:50Z</time>
  <course>269.02</course>
  <speed>25.809767530917437</speed>
  <fix>3d</fix>
</trkpt>
<trkpt lat="-35.3627792" lon="149.1505624">
  <ele>684.99</ele>
  <time>2026-09-01T19:52:50Z</time>
  <course>268.34</course>
  <speed>25.82</speed>
  <fix>3d</fix>
</trkpt>
<trkpt lat="-35.362781" lon="149.1504763">
  <ele>684.92</ele>
  <time>2026-09-01T19:52:50Z</time>
  <course>269.01</course>
  <speed>25.81949069985696</speed>
  <fix>3d</fix>
</trkpt>
<trkpt lat="-35.3627805" lon="149.1505056">
  <ele>684.97</ele>
  <time>2026-09-01T19:52:50Z</time>
  <course>268.35</course>
  <speed>25.83</speed>
  <fix>3d</fix>
</trkpt>
<trkpt lat="-35.3627816" lon="149.1504479">
  <ele>684.92</ele>
  <time>2026-09-01T19:52:50Z</time>
  <course>269.0</course>
  <speed>25.81949069985696</speed>
  <fix>3d</fix>
</trkpt>
<trkpt lat="-35.3627805" lon="149.1505056">
  <ele>684.97</ele>
  <time>2026-09-01T19:52:50Z</time>
  <course>268.35</course>
  <speed>25.83</speed>
  <fix>3d</fix>
</trkpt>
<trkpt lat="-35.3627823" lon="149.1504195">
  <ele>684.92</ele>
  <time>2026-09-01T19:52:50Z</time>
  <course>269.06</course>
  <speed>25.81949069985696</speed>
  <fix>3d</fix>
</trkpt>
<trkpt lat="-35.3627819" lon="149.1504486">
  <ele>684.96</ele>
  <time>2026-09-01T19:52:50Z</time>
  <course>268.37</course>
  <speed>25.83</speed>
  <fix>3d</fix>
</trkpt>
<trkpt lat="-35.3627829" lon="149.150391">
  <ele>684.91</ele>
  <time>2026-09-01T19:52:50Z</time>
  <course>269.06</course>
  <speed>25.81922152195918</speed>
  <fix>3d</fix>
</trkpt>
<trkpt lat="-35.3627819" lon="149.1504486">
  <ele>684.96</ele>
  <time>2026-09-01T19:52:50Z</time>
  <course>268.37</course>
  <speed>25.83</speed>
  <fix>3d</fix>
</trkpt>
<trkpt lat="-35.3627836" lon="149.1503626">
  <ele>684.91</ele>
  <time>2026-09-01T19:52:50Z</time>
  <course>269.09</course>
  <speed>25.81922152195918</speed>
  <fix>3d</fix>
</trkpt>
<trkpt lat="-35.3627832" lon="149.1503916">
  <ele>684.96</ele>
  <time>2026-09-01T19:52:50Z</time>
  <course>268.38</course>
  <speed>25.83</speed>
  <fix>3d</fix>
</trkpt>
<trkpt lat="-35.3627842" lon="149.1503348">
  <ele>684.92</ele>
  <time>2026-09-01T19:52:50Z</time>
  <course>269.15</course>
  <speed>25.818956214378613</speed>
  <fix>3d</fix>
</trkpt>
<trkpt lat="-35.3627832" lon="149.1503916">
  <ele>684.96</ele>
  <time>2026-09-01T19:52:50Z</time>
  <course>268.38</course>
  <speed>25.83</speed>
  <fix>3d</fix>
</trkpt>
<trkpt lat="-35.3627849" lon="149.1503054">
  <ele>684.92</ele>
  <time>2026-09-01T19:52:50Z</time>
  <course>269.13</course>
  <speed>25.818694777234576</speed>
  <fix>3d</fix>
</trkpt>
<trkpt lat="-35.3627844" lon="149.1503347">
  <ele>684.96</ele>
  <time>2026-09-01T19:52:50Z</time>
  <course>268.41</course>
  <speed>25.83</speed>
  <fix>3d</fix>
</trkpt>
<trkpt lat="-35.3627855" lon="149.1502774">
  <ele>684.93</ele>
  <time>2026-09-01T19:52:50Z</time>
  <course>269.11</course>
  <speed>25.8086981461677</speed>
  <fix>3d</fix>
</trkpt>
<trkpt lat="-35.3627844" lon="149.1503347">
  <ele>684.96</ele>
  <time>2026-09-01T19:52:50Z</time>
  <course>268.41</course>
  <speed>25.83</speed>
  <fix>3d</fix>
</trkpt>
<trkpt lat="-35.3627861" lon="149.150249">
  <ele>684.94</ele>
  <time>2026-09-01T19:52:50Z</time>
  <course>269.11</course>
  <speed>25.798443751513386</speed>
  <fix>3d</fix>
</trkpt>
<trkpt lat="-35.3627857" lon="149.1502779">
  <ele>684.97</ele>
  <time>2026-09-01T19:52:50Z</time>
  <course>268.43</course>
  <speed>25.83</speed>
  <fix>3d</fix>
</trkpt>
<trkpt lat="-35.3627867" lon="149.1502208">
  <ele>684.94</ele>
  <time>2026-09-01T19:52:50Z</time>
  <course>269.12</course>
  <speed>25.788447025751665</speed>
  <fix>3d</fix>
</trkpt>
<trkpt lat="-35.3627857" lon="149.1502779">
  <ele>684.97</ele>
  <time>2026-09-01T19:52:50Z</time>
  <course>268.43</course>
  <speed>25.83</speed>
  <fix>3d</fix>
</trkpt>
<trkpt lat="-35.3627873" lon="149.1501925">
  <ele>684.94</ele>
  <time>2026-09-01T19:52:50Z</time>
  <course>269.09</course>
  <speed>25.788447025751665</speed>
  <fix>3d</fix>
</trkpt>
<trkpt lat="-35.362787" lon="149.150221">
  <ele>684.98</ele>
  <time>2026-09-01T19:52:50Z</time>
  <course>268.44</course>
  <speed>25.83</speed>
  <fix>3d</fix>
</trkpt>
<trkpt lat="-35.362788" lon="149.1501643">
  <ele>684.95</ele>
  <time>2026-09-01T19:52:50Z</time>
  <course>269.12</course>
  <speed>25.778450302529823</speed>
  <fix>3d</fix>
</trkpt>
<trkpt lat="-35.362787" lon="149.150221">
  <ele>684.98</ele>
  <time>2026-09-01T19:52:50Z</time>
  <course>268.44</course>
  <speed>25.83</speed>
  <fix>3d</fix>
</trkpt>
<trkpt lat="-35.3627886" lon="149.1501358">
  <ele>684.96</ele>
  <time>2026-09-01T19:52:50Z</time>
  <course>269.14</course>
  <speed>25.768453581850814</speed>
  <fix>3d</fix>
</trkpt>
<trkpt lat="-35.3627883" lon="149.1501642">
  <ele>684.99</ele>
  <time>2026-09-01T19:52:50Z</time>
  <course>268.45</course>
  <speed>25.82</speed>
  <fix>3d</fix>
</trkpt>
<trkpt lat="-35.3627892" lon="149.1501076">
  <ele>684.96</ele>
  <time>2026-09-01T19:52:50Z</time>
  <course>269.15</course>
  <speed>25.768199393826492</speed>
  <fix>3d</fix>
</trkpt>
<trkpt lat="-35.3627883" lon="149.1501642">
  <ele>684.99</ele>
  <time>2026-09-01T19:52:50Z</time>
  <course>268.45</course>
  <speed>25.82</speed>
  <fix>3d</fix>
</trkpt>
<trkpt lat="-35.3627898" lon="149.1500794">
  <ele>684.96</ele>
  <time>2026-09-01T19:52:50Z</time>
  <course>269.07</course>
  <speed>25.7582025770433</speed>
  <fix>3d</fix>
</trkpt>
<trkpt lat="-35.3627895" lon="149.1501073">
  <ele>685.0</ele>
  <time>2026-09-01T19:52:50Z</time>
  <course>268.46</course>
  <speed>25.82</speed>
  <fix>3d</fix>
</trkpt>
<trkpt lat="-35.3627904" lon="149.1500512">
  <ele>684.96</ele>
  <time>2026-09-01T19:52:50Z</time>
  <course>269.03</course>
  <speed>25.748205762732283</speed>
  <fix>3d</fix>
</trkpt>
<trkpt lat="-35.3627895" lon="149.1501073">
  <ele>685.0</ele>
  <time>2026-09-01T19:52:50Z</time>
  <course>268.46</course>
  <speed>25.82</speed>
  <fix>3d</fix>
</trkpt>
<trkpt lat="-35.362791" lon="149.1500229">
  <ele>684.96</ele>
  <time>2026-09-01T19:52:50Z</time>
  <course>269.04</course>
  <speed>25.74846014813313</speed>
  <fix>3d</fix>
</trkpt>
<trkpt lat="-35.3627908" lon="149.1500504">
  <ele>685.0</ele>
  <time>2026-09-01T19:52:50Z</time>
  <course>268.46</course>
  <speed>25.82</speed>
  <fix>3d</fix>
</trkpt>
<trkpt lat="-35.3627917" lon="149.1499946">
  <ele>684.95</ele>
  <time>2026-09-01T19:52:50Z</time>
  <course>269.07</course>
  <speed>25.74846014813313</speed>
  <fix>3d</fix>
</trkpt>
<trkpt lat="-35.3627908" lon="149.1500504">
  <ele>685.0</ele>
  <time>2026-09-01T19:52:50Z</time>
  <course>268.46</course>
  <speed>25.82</speed>
  <fix>3d</fix>
</trkpt>
<trkpt lat="-35.3627923" lon="149.1499664">
  <ele>684.95</ele>
  <time>2026-09-01T19:52:50Z</time>
  <course>269.05</course>
  <speed>25.74846014813313</speed>
  <fix>3d</fix>
</trkpt>
<trkpt lat="-35.362792" lon="149.1499936">
  <ele>684.99</ele>
  <time>2026-09-01T19:52:50Z</time>
  <course>268.46</course>
  <speed>25.82</speed>
  <fix>3d</fix>
</trkpt>
<trkpt lat="-35.3627929" lon="149.1499381">
  <ele>684.95</ele>
  <time>2026-09-01T19:52:50Z</time>
  <course>269.01</course>
  <speed>25.738463435100392</speed>
  <fix>3d</fix>
</trkpt>
<trkpt lat="-35.362792" lon="149.1499936">
  <ele>684.99</ele>
  <time>2026-09-01T19:52:50Z</time>
  <course>268.46</course>
  <speed>25.82</speed>
  <fix>3d</fix>
</trkpt>
<trkpt lat="-35.3627935" lon="149.1499098">
  <ele>684.94</ele>
  <time>2026-09-01T19:52:50Z</time>
  <course>269.03</course>
  <speed>25.738463435100392</speed>
  <fix>3d</fix>
</trkpt>
<trkpt lat="-35.3627932" lon="149.1499367">
  <ele>684.98</ele>
  <time>2026-09-01T19:52:50Z</time>
  <course>268.46</course>
  <speed>25.83</speed>
  <fix>3d</fix>
</trkpt>
<trkpt lat="-35.3627941" lon="149.1498815">
  <ele>684.93</ele>
  <time>2026-09-01T19:52:50Z</time>
  <course>269.06</course>
  <speed>25.738463435100392</speed>
  <fix>3d</fix>
</trkpt>
<trkpt lat="-35.3627932" lon="149.1499367">
  <ele>684.98</ele>
  <time>2026-09-01T19:52:50Z</time>
  <course>268.46</course>
  <speed>25.83</speed>
  <fix>3d</fix>
</trkpt>
<trkpt lat="-35.3627948" lon="149.1498532">
  <ele>684.92</ele>
  <time>2026-09-01T19:52:50Z</time>
  <course>269.05</course>
  <speed>25.738463435100392</speed>
  <fix>3d</fix>
</trkpt>
<trkpt lat="-35.3627945" lon="149.1498798">
  <ele>684.97</ele>
  <time>2026-09-01T19:52:50Z</time>
  <course>268.45</course>
  <speed>25.83</speed>
  <fix>3d</fix>
</trkpt>
<trkpt lat="-35.3627954" lon="149.1498248">
  <ele>684.92</ele>
  <time>2026-09-01T19:52:50Z</time>
  <course>269.05</course>
  <speed>25.73872180198543</speed>
  <fix>3d</fix>
</trkpt>
<trkpt lat="-35.3627945" lon="149.1498798">
  <ele>684.97</ele>
  <time>2026-09-01T19:52:50Z</time>
  <course>268.45</course>
  <speed>25.83</speed>
  <fix>3d</fix>
</trkpt>
<trkpt lat="-35.362796" lon="149.1497964">
  <ele>684.92</ele>
  <time>2026-09-01T19:52:50Z</time>
  <course>269.09</course>
  <speed>25.738463435100392</speed>
  <fix>3d</fix>
</trkpt>
<trkpt lat="-35.3627957" lon="149.1498228">
  <ele>684.97</ele>
  <time>2026-09-01T19:52:50Z</time>
  <course>268.45</course>
  <speed>25.83</speed>
  <fix>3d</fix>
</trkpt>
<trkpt lat="-35.3627967" lon="149.149768">
  <ele>684.91</ele>
  <time>2026-09-01T19:52:50Z</time>
  <course>269.12</course>
  <speed>25.74846014813313</speed>
  <fix>3d</fix>
</trkpt>
<trkpt lat="-35.3627957" lon="149.1498228">
  <ele>684.97</ele>
  <time>2026-09-01T19:52:50Z</time>
  <course>268.45</course>
  <speed>25.83</speed>
  <fix>3d</fix>
</trkpt>
<trkpt lat="-35.3627973" lon="149.1497396">
  <ele>684.91</ele>
  <time>2026-09-01T19:52:50Z</time>
  <course>269.1</course>
  <speed>25.748205762732283</speed>
  <fix>3d</fix>
</trkpt>
<trkpt lat="-35.362797" lon="149.1497658">
  <ele>684.97</ele>
  <time>2026-09-01T19:52:50Z</time>
  <course>268.46</course>
  <speed>25.84</speed>
  <fix>3d</fix>
</trkpt>
<trkpt lat="-35.3627979" lon="149.1497111">
  <ele>684.91</ele>
  <time>2026-09-01T19:52:50Z</time>
  <course>269.08</course>
  <speed>25.75795217015514</speed>
  <fix>3d</fix>
</trkpt>
<trkpt lat="-35.362797" lon="149.1497658">
  <ele>684.97</ele>
  <time>2026-09-01T19:52:50Z</time>
  <course>268.46</course>
  <speed>25.84</speed>
  <fix>3d</fix>
</trkpt>
<trkpt lat="-35.3627985" lon="149.1496827">
  <ele>684.91</ele>
  <time>2026-09-01T19:52:50Z</time>
  <course>269.13</course>
  <speed>25.75795217015514</speed>
  <fix>3d</fix>
</trkpt>
<trkpt lat="-35.3627982" lon="149.1497089">
  <ele>684.97</ele>
  <time>2026-09-01T19:52:50Z</time>
  <course>268.48</course>
  <speed>25.84</speed>
  <fix>3d</fix>
</trkpt>
<trkpt lat="-35.3627991" lon="149.1496542">
  <ele>684.91</ele>
  <time>2026-09-01T19:52:50Z</time>
  <course>269.11</course>
  <speed>25.75795217015514</speed>
  <fix>3d</fix>
</trkpt>
<trkpt lat="-35.3627982" lon="149.1497089">
  <ele>684.97</ele>
  <time>2026-09-01T19:52:50Z</time>
  <course>268.48</course>
  <speed>25.84</speed>
  <fix>3d</fix>
</trkpt>
<trkpt lat="-35.3627997" lon="149.1496257">
  <ele>684.91</ele>
  <time>2026-09-01T19:52:50Z</time>
  <course>269.08</course>
  <speed>25.767949084085057</speed>
  <fix>3d</fix>
</trkpt>
<trkpt lat="-35.3627995" lon="149.149652">
  <ele>684.96</ele>
  <time>2026-09-01T19:52:50Z</time>
  <course>268.49</course>
  <speed>25.84</speed>
  <fix>3d</fix>
</trkpt>
<trkpt lat="-35.3628003" lon="149.1495972">
  <ele>684.91</ele>
  <time>2026-09-01T19:52:50Z</time>
  <course>269.03</course>
  <speed>25.767949084085057</speed>
  <fix>3d</fix>
</trkpt>
<trkpt lat="-35.3627995" lon="149.149652">
  <ele>684.96</ele>
  <time>2026-09-01T19:52:50Z</time>
  <course>268.49</course>
  <speed>25.84</speed>
  <fix>3d</fix>
</trkpt>
<trkpt lat="-35.3628009" lon="149.149569">
  <ele>684.91</ele>
  <time>2026-09-01T19:52:50Z</time>
  <course>269.03</course>
  <speed>25.777946000408956</speed>
  <fix>3d</fix>
</trkpt>
<trkpt lat="-35.3628007" lon="149.1495951">
  <ele>684.96</ele>
  <time>2026-09-01T19:52:50Z</time>
  <course>268.49</course>
  <speed>25.84</speed>
  <fix>3d</fix>
</trkpt>
<trkpt lat="-35.3628015" lon="149.14954">
  <ele>684.91</ele>
  <time>2026-09-01T19:52:50Z</time>
  <course>269.07</course>
  <speed>25.778196213078992</speed>
  <fix>3d</fix>
</trkpt>
<trkpt lat="-35.3628007" lon="149.1495951">
  <ele>684.96</ele>
  <time>2026-09-01T19:52:50Z</time>
  <course>268.49</course>
  <speed>25.84</speed>
  <fix>3d</fix>
</trkpt>
<trkpt lat="-35.3628022" lon="149.1495115">
  <ele>684.91</ele>
  <time>2026-09-01T19:52:50Z</time>
  <course>269.12</course>
  <speed>25.778196213078992</speed>
  <fix>3d</fix>
</trkpt>
<trkpt lat="-35.3628019" lon="149.1495382">
  <ele>684.97</ele>
  <time>2026-09-01T19:52:50Z</time>
  <course>268.48</course>
  <speed>25.84</speed>
  <fix>3d</fix>
</trkpt>
<trkpt lat="-35.3628028" lon="149.1494831">
  <ele>684.91</ele>
  <time>2026-09-01T19:52:50Z</time>
  <course>269.12</course>
  <speed>25.778196213078992</speed>
  <fix>3d</fix>
</trkpt>
<trkpt lat="-35.3628019" lon="149.1495382">
  <ele>684.97</ele>
  <time>2026-09-01T19:52:50Z</time>
  <course>268.48</course>
  <speed>25.84</speed>
  <fix>3d</fix>
</trkpt>
<trkpt lat="-35.3628034" lon="149.1494546">
  <ele>684.92</ele>
  <time>2026-09-01T19:52:50Z</time>
  <course>269.05</course>
  <speed>25.788447025751665</speed>
  <fix>3d</fix>
</trkpt>
<trkpt lat="-35.3628031" lon="149.1494813">
  <ele>684.97</ele>
  <time>2026-09-01T19:52:50Z</time>
  <course>268.46</course>
  <speed>25.84</speed>
  <fix>3d</fix>
</trkpt>
<trkpt lat="-35.362804" lon="149.1494261">
  <ele>684.92</ele>
  <time>2026-09-01T19:52:50Z</time>
  <course>269.04</course>
  <speed>25.788704891870783</speed>
  <fix>3d</fix>
</trkpt>
<trkpt lat="-35.3628031" lon="149.1494813">
  <ele>684.97</ele>
  <time>2026-09-01T19:52:50Z</time>
  <course>268.46</course>
  <speed>25.84</speed>
  <fix>3d</fix>
</trkpt>
<trkpt lat="-35.3628047" lon="149.1493976">
  <ele>684.93</ele>
  <time>2026-09-01T19:52:50Z</time>
  <course>269.02</course>
  <speed>25.78896663303902</speed>
  <fix>3d</fix>
</trkpt>
<trkpt lat="-35.3628044" lon="149.1494244">
  <ele>684.98</ele>
  <time>2026-09-01T19:52:50Z</time>
  <course>268.43</course>
  <speed>25.84</speed>
  <fix>3d</fix>
</trkpt>
<trkpt lat="-35.3628053" lon="149.1493692">
  <ele>684.93</ele>
  <time>2026-09-01T19:52:50Z</time>
  <course>269.01</course>
  <speed>25.78896663303902</speed>
  <fix>3d</fix>
</trkpt>
<trkpt lat="-35.3628044" lon="149.1494244">
  <ele>684.98</ele>
  <time>2026-09-01T19:52:50Z</time>
  <course>268.43</course>
  <speed>25.84</speed>
  <fix>3d</fix>
</trkpt>
<trkpt lat="-35.362806" lon="149.1493407">
  <ele>684.94</ele>
  <time>2026-09-01T19:52:50Z</time>
  <course>269.03</course>
  <speed>25.77923583041204</speed>
  <fix>3d</fix>
</trkpt>
<trkpt lat="-35.3628056" lon="149.1493676">
  <ele>685.0</ele>
  <time>2026-09-01T19:52:50Z</time>
  <course>268.41</course>
  <speed>25.83</speed>
  <fix>3d</fix>
</trkpt>
<trkpt lat="-35.3628066" lon="149.1493122">
  <ele>684.94</ele>
  <time>2026-09-01T19:52:50Z</time>
  <course>269.04</course>
  <speed>25.77923583041204</speed>
  <fix>3d</fix>
</trkpt>
<trkpt lat="-35.3628056" lon="149.1493676">
  <ele>685.0</ele>
  <time>2026-09-01T19:52:50Z</time>
  <course>268.41</course>
  <speed>25.83</speed>
  <fix>3d</fix>
</trkpt>
<trkpt lat="-35.3628073" lon="149.1492838">
  <ele>684.93</ele>
  <time>2026-09-01T19:52:50Z</time>
  <course>269.01</course>
  <speed>25.7892322491384</speed>
  <fix>3d</fix>
</trkpt>
<trkpt lat="-35.3628069" lon="149.1493107">
  <ele>685.01</ele>
  <time>2026-09-01T19:52:50Z</time>
  <course>268.4</course>
  <speed>25.83</speed>
  <fix>3d</fix>
</trkpt>
<trkpt lat="-35.3628079" lon="149.1492553">
  <ele>684.93</ele>
  <time>2026-09-01T19:52:50Z</time>
  <course>268.96</course>
  <speed>25.789501740049186</speed>
  <fix>3d</fix>
</trkpt>
<trkpt lat="-35.3628069" lon="149.1493107">
  <ele>685.01</ele>
  <time>2026-09-01T19:52:50Z</time>
  <course>268.4</course>
  <speed>25.83</speed>
  <fix>3d</fix>
</trkpt>
<trkpt lat="-35.3628086" lon="149.1492269">
  <ele>684.93</ele>
  <time>2026-09-01T19:52:50Z</time>
  <course>268.94</course>
  <speed>25.789775105649916</speed>
  <fix>3d</fix>
</trkpt>
<trkpt lat="-35.3628082" lon="149.1492537">
  <ele>685.01</ele>
  <time>2026-09-01T19:52:50Z</time>
  <course>268.38</course>
  <speed>25.82</speed>
  <fix>3d</fix>
</trkpt>
<trkpt lat="-35.3628092" lon="149.1491984">
  <ele>684.93</ele>
  <time>2026-09-01T19:52:50Z</time>
  <course>268.96</course>
  <speed>25.789775105649916</speed>
  <fix>3d</fix>
</trkpt>
<trkpt lat="-35.3628082" lon="149.1492537">
  <ele>685.01</ele>
  <time>2026-09-01T19:52:50Z</time>
  <course>268.38</course>
  <speed>25.82</speed>
  <fix>3d</fix>
</trkpt>
<trkpt lat="-35.3628099" lon="149.14917">
  <ele>684.93</ele>
  <time>2026-09-01T19:52:50Z</time>
  <course>268.95</course>
  <speed>25.790052345817372</speed>
  <fix>3d</fix>
</trkpt>
<trkpt lat="-35.3628096" lon="149.1491967">
  <ele>685.01</ele>
  <time>2026-09-01T19:52:50Z</time>
  <course>268.35</course>
  <speed>25.82</speed>
  <fix>3d</fix>
</trkpt>
<trkpt lat="-35.3628106" lon="149.1491415">
  <ele>684.93</ele>
  <time>2026-09-01T19:52:50Z</time>
  <course>268.99</course>
  <speed>25.790052345817372</speed>
  <fix>3d</fix>
</trkpt>
<trkpt lat="-35.3628096" lon="149.1491967">
  <ele>685.01</ele>
  <time>2026-09-01T19:52:51Z</time>
  <course>268.35</course>
  <speed>25.82</speed>
  <fix>3d</fix>
</trkpt>
<trkpt lat="-35.3628113" lon="149.1491131">
  <ele>684.93</ele>
  <time>2026-09-01T19:52:51Z</time>
  <course>268.97</course>
  <speed>25.790052345817372</speed>
  <fix>3d</fix>
</trkpt>
<trkpt lat="-35.3628109" lon="149.1491399">
  <ele>685.02</ele>
  <time>2026-09-01T19:52:51Z</time>
  <course>268.33</course>
  <speed>25.81</speed>
  <fix>3d</fix>
</trkpt>
<trkpt lat="-35.3628119" lon="149.1490846">
  <ele>684.93</ele>
  <time>2026-09-01T19:52:51Z</time>
  <course>268.9</course>
  <speed>25.7903334604266</speed>
  <fix>3d</fix>
</trkpt>
<trkpt lat="-35.3628109" lon="149.1491399">
  <ele>685.02</ele>
  <time>2026-09-01T19:52:51Z</time>
  <course>268.33</course>
  <speed>25.81</speed>
  <fix>3d</fix>
</trkpt>
<trkpt lat="-35.3628126" lon="149.1490562">
  <ele>684.94</ele>
  <time>2026-09-01T19:52:51Z</time>
  <course>268.88</course>
  <speed>25.7903334604266</speed>
  <fix>3d</fix>
</trkpt>
<trkpt lat="-35.3628123" lon="149.149083">
  <ele>685.02</ele>
  <time>2026-09-01T19:52:51Z</time>
  <course>268.32</course>
  <speed>25.81</speed>
  <fix>3d</fix>
</trkpt>
<trkpt lat="-35.3628133" lon="149.1490277">
  <ele>684.94</ele>
  <time>2026-09-01T19:52:51Z</time>
  <course>268.9</course>
  <speed>25.78033746869889</speed>
  <fix>3d</fix>
</trkpt>
<trkpt lat="-35.3628123" lon="149.149083">
  <ele>685.02</ele>
  <time>2026-09-01T19:52:51Z</time>
  <course>268.32</course>
  <speed>25.81</speed>
  <fix>3d</fix>
</trkpt>
<trkpt lat="-35.362814" lon="149.1489993">
  <ele>684.94</ele>
  <time>2026-09-01T19:52:51Z</time>
  <course>268.91</course>
  <speed>25.78033746869889</speed>
  <fix>3d</fix>
</trkpt>
<trkpt lat="-35.3628136" lon="149.1490263">
  <ele>685.03</ele>
  <time>2026-09-01T19:52:51Z</time>
  <course>268.31</course>
  <speed>25.81</speed>
  <fix>3d</fix>
</trkpt>
<trkpt lat="-35.3628147" lon="149.1489711">
  <ele>684.95</ele>
  <time>2026-09-01T19:52:51Z</time>
  <course>268.98</course>
  <speed>25.7903334604266</speed>
  <fix>3d</fix>
</trkpt>
<trkpt lat="-35.3628136" lon="149.1490263">
  <ele>685.03</ele>
  <time>2026-09-01T19:52:51Z</time>
  <course>268.31</course>
  <speed>25.81</speed>
  <fix>3d</fix>
</trkpt>
<trkpt lat="-35.3628154" lon="149.1489427">
  <ele>684.96</ele>
  <time>2026-09-01T19:52:51Z</time>
  <course>268.98</course>
  <speed>25.7903334604266</speed>
  <fix>3d</fix>
</trkpt>
<trkpt lat="-35.362815" lon="149.1489695">
  <ele>685.04</ele>
  <time>2026-09-01T19:52:51Z</time>
  <course>268.31</course>
  <speed>25.8</speed>
  <fix>3d</fix>
</trkpt>
<trkpt lat="-35.362816" lon="149.1489142">
  <ele>684.96</ele>
  <time>2026-09-01T19:52:51Z</time>
  <course>268.95</course>
  <speed>25.7903334604266</speed>
  <fix>3d</fix>
</trkpt>
<trkpt lat="-35.362815" lon="149.1489695">
  <ele>685.04</ele>
  <time>2026-09-01T19:52:51Z</time>
  <course>268.31</course>
  <speed>25.8</speed>
  <fix>3d</fix>
</trkpt>
<trkpt lat="-35.3628167" lon="149.1488858">
  <ele>684.96</ele>
  <time>2026-09-01T19:52:51Z</time>
  <course>268.96</course>
  <speed>25.7903334604266</speed>
  <fix>3d</fix>
</trkpt>
<trkpt lat="-35.3628163" lon="149.1489126">
  <ele>685.05</ele>
  <time>2026-09-01T19:52:51Z</time>
  <course>268.32</course>
  <speed>25.8</speed>
  <fix>3d</fix>
</trkpt>
<trkpt lat="-35.3628174" lon="149.1488572">
  <ele>684.96</ele>
  <time>2026-09-01T19:52:51Z</time>
  <course>269.01</course>
  <speed>25.7903334604266</speed>
  <fix>3d</fix>
</trkpt>
<trkpt lat="-35.3628163" lon="149.1489126">
  <ele>685.05</ele>
  <time>2026-09-01T19:52:51Z</time>
  <course>268.32</course>
  <speed>25.8</speed>
  <fix>3d</fix>
</trkpt>
<trkpt lat="-35.3628181" lon="149.1488287">
  <ele>684.96</ele>
  <time>2026-09-01T19:52:51Z</time>
  <course>269.02</course>
  <speed>25.790052345817372</speed>
  <fix>3d</fix>
</trkpt>
<trkpt lat="-35.3628177" lon="149.1488559">
  <ele>685.05</ele>
  <time>2026-09-01T19:52:51Z</time>
  <course>268.33</course>
  <speed>25.8</speed>
  <fix>3d</fix>
</trkpt>
<trkpt lat="-35.3628188" lon="149.1488003">
  <ele>684.96</ele>
  <time>2026-09-01T19:52:51Z</time>
  <course>268.99</course>
  <speed>25.790052345817372</speed>
  <fix>3d</fix>
</trkpt>
<trkpt lat="-35.3628177" lon="149.1488559">
  <ele>685.05</ele>
  <time>2026-09-01T19:52:51Z</time>
  <course>268.33</course>
  <speed>25.8</speed>
  <fix>3d</fix>
</trkpt>
<trkpt lat="-35.3628194" lon="149.1487719">
  <ele>684.96</ele>
  <time>2026-09-01T19:52:51Z</time>
  <course>269.0</course>
  <speed>25.790052345817372</speed>
  <fix>3d</fix>
</trkpt>
<trkpt lat="-35.362819" lon="149.1487991">
  <ele>685.06</ele>
  <time>2026-09-01T19:52:51Z</time>
  <course>268.35</course>
  <speed>25.8</speed>
  <fix>3d</fix>
</trkpt>
<trkpt lat="-35.3628201" lon="149.1487432">
  <ele>684.96</ele>
  <time>2026-09-01T19:52:51Z</time>
  <course>269.04</course>
  <speed>25.789775105649916</speed>
  <fix>3d</fix>
</trkpt>
<trkpt lat="-35.362819" lon="149.1487991">
  <ele>685.06</ele>
  <time>2026-09-01T19:52:51Z</time>
  <course>268.35</course>
  <speed>25.8</speed>
  <fix>3d</fix>
</trkpt>
<trkpt lat="-35.3628207" lon="149.1487148">
  <ele>684.96</ele>
  <time>2026-09-01T19:52:51Z</time>
  <course>269.03</course>
  <speed>25.789501740049186</speed>
  <fix>3d</fix>
</trkpt>
<trkpt lat="-35.3628203" lon="149.1487422">
  <ele>685.06</ele>
  <time>2026-09-01T19:52:51Z</time>
  <course>268.37</course>
  <speed>25.8</speed>
  <fix>3d</fix>
</trkpt>
<trkpt lat="-35.3628214" lon="149.1486864">
  <ele>684.96</ele>
  <time>2026-09-01T19:52:51Z</time>
  <course>268.97</course>
  <speed>25.789501740049186</speed>
  <fix>3d</fix>
</trkpt>
<trkpt lat="-35.3628203" lon="149.1487422">
  <ele>685.06</ele>
  <time>2026-09-01T19:52:51Z</time>
  <course>268.37</course>
  <speed>25.8</speed>
  <fix>3d</fix>
</trkpt>
<trkpt lat="-35.362822" lon="149.148658">
  <ele>684.96</ele>
  <time>2026-09-01T19:52:51Z</time>
  <course>268.96</course>
  <speed>25.7892322491384</speed>
  <fix>3d</fix>
</trkpt>
<trkpt lat="-35.3628216" lon="149.1486855">
  <ele>685.06</ele>
  <time>2026-09-01T19:52:51Z</time>
  <course>268.39</course>
  <speed>25.8</speed>
  <fix>3d</fix>
</trkpt>
<trkpt lat="-35.3628227" lon="149.1486295">
  <ele>684.96</ele>
  <time>2026-09-01T19:52:51Z</time>
  <course>268.96</course>
  <speed>25.799228670640524</speed>
  <fix>3d</fix>
</trkpt>
<trkpt lat="-35.3628216" lon="149.1486855">
  <ele>685.06</ele>
  <time>2026-09-01T19:52:51Z</time>
  <course>268.39</course>
  <speed>25.8</speed>
  <fix>3d</fix>
</trkpt>
<trkpt lat="-35.3628233" lon="149.1486011">
  <ele>684.96</ele>
  <time>2026-09-01T19:52:51Z</time>
  <course>268.95</course>
  <speed>25.799228670640524</speed>
  <fix>3d</fix>
</trkpt>
<trkpt lat="-35.3628229" lon="149.1486285">
  <ele>685.06</ele>
  <time>2026-09-01T19:52:51Z</time>
  <course>268.41</course>
  <speed>25.8</speed>
  <fix>3d</fix>
</trkpt>
<trkpt lat="-35.362824" lon="149.1485726">
  <ele>684.96</ele>
  <time>2026-09-01T19:52:51Z</time>
  <course>269.05</course>
  <speed>25.798963157460417</speed>
  <fix>3d</fix>
</trkpt>
<trkpt lat="-35.3628229" lon="149.1486285">
  <ele>685.06</ele>
  <time>2026-09-01T19:52:51Z</time>
  <course>268.41</course>
  <speed>25.8</speed>
  <fix>3d</fix>
</trkpt>
<trkpt lat="-35.3628246" lon="149.1485442">
  <ele>684.96</ele>
  <time>2026-09-01T19:52:51Z</time>
  <course>269.08</course>
  <speed>25.798963157460417</speed>
  <fix>3d</fix>
</trkpt>
<trkpt lat="-35.3628242" lon="149.1485716">
  <ele>685.06</ele>
  <time>2026-09-01T19:52:51Z</time>
  <course>268.42</course>
  <speed>25.81</speed>
  <fix>3d</fix>
</trkpt>
<trkpt lat="-35.3628252" lon="149.1485157">
  <ele>684.95</ele>
  <time>2026-09-01T19:52:51Z</time>
  <course>269.05</course>
  <speed>25.8086981461677</speed>
  <fix>3d</fix>
</trkpt>
<trkpt lat="-35.3628242" lon="149.1485716">
  <ele>685.06</ele>
  <time>2026-09-01T19:52:51Z</time>
  <course>268.42</course>
  <speed>25.81</speed>
  <fix>3d</fix>
</trkpt>
<trkpt lat="-35.3628258" lon="149.1484872">
  <ele>684.95</ele>
  <time>2026-09-01T19:52:51Z</time>
  <course>269.03</course>
  <speed>25.8086981461677</speed>
  <fix>3d</fix>
</trkpt>
<trkpt lat="-35.3628255" lon="149.1485147">
  <ele>685.06</ele>
  <time>2026-09-01T19:52:51Z</time>
  <course>268.44</course>
  <speed>25.81</speed>
  <fix>3d</fix>
</trkpt>
<trkpt lat="-35.3628265" lon="149.1484587">
  <ele>684.95</ele>
  <time>2026-09-01T19:52:51Z</time>
  <course>268.99</course>
  <speed>25.818437210644642</speed>
  <fix>3d</fix>
</trkpt>
<trkpt lat="-35.3628255" lon="149.1485147">
  <ele>685.06</ele>
  <time>2026-09-01T19:52:51Z</time>
  <course>268.44</course>
  <speed>25.81</speed>
  <fix>3d</fix>
</trkpt>
<trkpt lat="-35.3628271" lon="149.1484302">
  <ele>684.95</ele>
  <time>2026-09-01T19:52:51Z</time>
  <course>268.85</course>
  <speed>25.818437210644642</speed>
  <fix>3d</fix>
</trkpt>
<trkpt lat="-35.3628268" lon="149.1484579">
  <ele>685.06</ele>
  <time>2026-09-01T19:52:51Z</time>
  <course>268.46</course>
  <speed>25.81</speed>
  <fix>3d</fix>
</trkpt>
<trkpt lat="-35.3628277" lon="149.1484017">
  <ele>684.95</ele>
  <time>2026-09-01T19:52:51Z</time>
  <course>268.4</course>
  <speed>25.81922152195918</speed>
  <fix>3d</fix>
</trkpt>
<trkpt lat="-35.3628268" lon="149.1484579">
  <ele>685.06</ele>
  <time>2026-09-01T19:52:51Z</time>
  <course>268.46</course>
  <speed>25.81</speed>
  <fix>3d</fix>
</trkpt>
<trkpt lat="-35.3628284" lon="149.1483735">
  <ele>684.95</ele>
  <time>2026-09-01T19:52:51Z</time>
  <course>267.74</course>
  <speed>25.822087444666437</speed>
  <fix>3d</fix>
</trkpt>
<trkpt lat="-35.362828" lon="149.1484011">
  <ele>685.05</ele>
  <time>2026-09-01T19:52:51Z</time>
  <course>268.34</course>
  <speed>25.81</speed>
  <fix>3d</fix>
</trkpt>
<trkpt lat="-35.3628292" lon="149.148345">
  <ele>684.95</ele>
  <time>2026-09-01T19:52:51Z</time>
  <course>267.08</course>
  <speed>25.820154918202952</speed>
  <fix>3d</fix>
</trkpt>
<trkpt lat="-35.362828" lon="149.1484011">
  <ele>685.05</ele>
  <time>2026-09-01T19:52:51Z</time>
  <course>268.34</course>
  <speed>25.81</speed>
  <fix>3d</fix>
</trkpt>
<trkpt lat="-35.3628303" lon="149.1483166">
  <ele>684.95</ele>
  <time>2026-09-01T19:52:51Z</time>
  <course>266.48</course>
  <speed>25.81798597877069</speed>
  <fix>3d</fix>
</trkpt>
<trkpt lat="-35.3628296" lon="149.1483443">
  <ele>685.05</ele>
  <time>2026-09-01T19:52:51Z</time>
  <course>267.55</course>
  <speed>25.8</speed>
  <fix>3d</fix>
</trkpt>
<trkpt lat="-35.3628319" lon="149.1482881">
  <ele>684.94</ele>
  <time>2026-09-01T19:52:51Z</time>
  <course>265.98</course>
  <speed>25.842170961434334</speed>
  <fix>3d</fix>
</trkpt>
<trkpt lat="-35.3628296" lon="149.1483443">
  <ele>685.05</ele>
  <time>2026-09-01T19:52:51Z</time>
  <course>267.55</course>
  <speed>25.8</speed>
  <fix>3d</fix>
</trkpt>
<trkpt lat="-35.362834" lon="149.1482595">
  <ele>684.93</ele>
  <time>2026-09-01T19:52:51Z</time>
  <course>265.24</course>
  <speed>25.872997507053565</speed>
  <fix>3d</fix>
</trkpt>
<trkpt lat="-35.3628323" lon="149.1482875">
  <ele>685.04</ele>
  <time>2026-09-01T19:52:51Z</time>
  <course>265.56</course>
  <speed>25.81</speed>
  <fix>3d</fix>
</trkpt>
<trkpt lat="-35.3628367" lon="149.1482312">
  <ele>684.9</ele>
  <time>2026-09-01T19:52:51Z</time>
  <course>263.98</course>
  <speed>25.919292042800862</speed>
  <fix>3d</fix>
</trkpt>
<trkpt lat="-35.3628323" lon="149.1482875">
  <ele>685.04</ele>
  <time>2026-09-01T19:52:51Z</time>
  <course>265.56</course>
  <speed>25.81</speed>
  <fix>3d</fix>
</trkpt>
<trkpt lat="-35.3628403" lon="149.1482029">
  <ele>684.87</ele>
  <time>2026-09-01T19:52:51Z</time>
  <course>261.92</course>
  <speed>25.985603706668044</speed>
  <fix>3d</fix>
</trkpt>
<trkpt lat="-35.3628372" lon="149.148231">
  <ele>685.0</ele>
  <time>2026-09-01T19:52:51Z</time>
  <course>262.22</course>
  <speed>25.86</speed>
  <fix>3d</fix>
</trkpt>
<trkpt lat="-35.3628449" lon="149.1481748">
  <ele>684.85</ele>
  <time>2026-09-01T19:52:51Z</time>
  <course>259.27</course>
  <speed>26.066376809982625</speed>
  <fix>3d</fix>
</trkpt>
<trkpt lat="-35.3628372" lon="149.148231">
  <ele>685.0</ele>
  <time>2026-09-01T19:52:51Z</time>
  <course>262.22</course>
  <speed>25.86</speed>
  <fix>3d</fix>
</trkpt>
<trkpt lat="-35.3628506" lon="149.1481469">
  <ele>684.84</ele>
  <time>2026-09-01T19:52:51Z</time>
  <course>256.33</course>
  <speed>26.178785304135104</speed>
  <fix>3d</fix>
</trkpt>
<trkpt lat="-35.3628453" lon="149.1481748">
  <ele>684.95</ele>
  <time>2026-09-01T19:52:51Z</time>
  <course>257.38</course>
  <speed>25.98</speed>
  <fix>3d</fix>
</trkpt>
<trkpt lat="-35.3628576" lon="149.1481193">
  <ele>684.85</ele>
  <time>2026-09-01T19:52:51Z</time>
  <course>253.23</course>
  <speed>26.2724228041496</speed>
  <fix>3d</fix>
</trkpt>
<trkpt lat="-35.3628453" lon="149.1481748">
  <ele>684.95</ele>
  <time>2026-09-01T19:52:51Z</time>
  <course>257.38</course>
  <speed>25.98</speed>
  <fix>3d</fix>
</trkpt>
<trkpt lat="-35.3628658" lon="149.1480921">
  <ele>684.89</ele>
  <time>2026-09-01T19:52:51Z</time>
  <course>250.04</course>
  <speed>26.368739067312262</speed>
  <fix>3d</fix>
</trkpt>
<trkpt lat="-35.3628578" lon="149.1481195">
  <ele>684.95</ele>
  <time>2026-09-01T19:52:51Z</time>
  <course>251.42</course>
  <speed>26.14</speed>
  <fix>3d</fix>
</trkpt>
<trkpt lat="-35.3628752" lon="149.1480655">
  <ele>684.94</ele>
  <time>2026-09-01T19:52:51Z</time>
  <course>246.82</course>
  <speed>26.431556897012328</speed>
  <fix>3d</fix>
</trkpt>
<trkpt lat="-35.3628578" lon="149.1481195">
  <ele>684.95</ele>
  <time>2026-09-01T19:52:51Z</time>
  <course>251.42</course>
  <speed>26.14</speed>
  <fix>3d</fix>
</trkpt>
<trkpt lat="-35.3628859" lon="149.1480395">
  <ele>685.02</ele>
  <time>2026-09-01T19:52:51Z</time>
  <course>243.73</course>
  <speed>26.48411788223274</speed>
  <fix>3d</fix>
</trkpt>
<trkpt lat="-35.3628753" lon="149.1480657">
  <ele>685.04</ele>
  <time>2026-09-01T19:52:51Z</time>
  <course>245.15</course>
  <speed>26.29</speed>
  <fix>3d</fix>
</trkpt>
<trkpt lat="-35.3628976" lon="149.1480142">
  <ele>685.13</ele>
  <time>2026-09-01T19:52:51Z</time>
  <course>240.62</course>
  <speed>26.52233209957224</speed>
  <fix>3d</fix>
</trkpt>
<trkpt lat="-35.3628753" lon="149.1480657">
  <ele>685.04</ele>
  <time>2026-09-01T19:52:51Z</time>
  <course>245.15</course>
  <speed>26.29</speed>
  <fix>3d</fix>
</trkpt>
<trkpt lat="-35.3629104" lon="149.1479896">
  <ele>685.24</ele>
  <time>2026-09-01T19:52:51Z</time>
  <course>237.54</course>
  <speed>26.548681699850935</speed>
  <fix>3d</fix>
</trkpt>
<trkpt lat="-35.3628975" lon="149.1480144">
  <ele>685.22</ele>
  <time>2026-09-01T19:52:51Z</time>
  <course>238.97</course>
  <speed>26.39</speed>
  <fix>3d</fix>
</trkpt>
<trkpt lat="-35.3629244" lon="149.1479658">
  <ele>685.38</ele>
  <time>2026-09-01T19:52:51Z</time>
  <course>234.44</course>
  <speed>26.56443487070636</speed>
  <fix>3d</fix>
</trkpt>
<trkpt lat="-35.3628975" lon="149.1480144">
  <ele>685.22</ele>
  <time>2026-09-01T19:52:51Z</time>
  <course>238.97</course>
  <speed>26.39</speed>
  <fix>3d</fix>
</trkpt>
<trkpt lat="-35.3629393" lon="149.147943">
  <ele>685.52</ele>
  <time>2026-09-01T19:52:51Z</time>
  <course>231.4</course>
  <speed>26.59402940511272</speed>
  <fix>3d</fix>
</trkpt>
<trkpt lat="-35.3629241" lon="149.1479662">
  <ele>685.46</ele>
  <time>2026-09-01T19:52:51Z</time>
  <course>232.89</course>
  <speed>26.46</speed>
  <fix>3d</fix>
</trkpt>
<trkpt lat="-35.3629552" lon="149.1479212">
  <ele>685.67</ele>
  <time>2026-09-01T19:52:51Z</time>
  <course>228.22</course>
  <speed>26.61958865196831</speed>
  <fix>3d</fix>
</trkpt>
<trkpt lat="-35.3629241" lon="149.1479662">
  <ele>685.46</ele>
  <time>2026-09-01T19:52:51Z</time>
  <course>232.89</course>
  <speed>26.46</speed>
  <fix>3d</fix>
</trkpt>
<trkpt lat="-35.3629721" lon="149.1479005">
  <ele>685.83</ele>
  <time>2026-09-01T19:52:51Z</time>
  <course>225.02</course>
  <speed>26.64628491929034</speed>
  <fix>3d</fix>
</trkpt>
<trkpt lat="-35.3629548" lon="149.1479217">
  <ele>685.75</ele>
  <time>2026-09-01T19:52:51Z</time>
  <course>226.7</course>
  <speed>26.52</speed>
  <fix>3d</fix>
</trkpt>
<trkpt lat="-35.3629898" lon="149.1478811">
  <ele>685.99</ele>
  <time>2026-09-01T19:52:51Z</time>
  <course>221.87</course>
  <speed>26.66449699506818</speed>
  <fix>3d</fix>
</trkpt>
<trkpt lat="-35.3629548" lon="149.1479217">
  <ele>685.75</ele>
  <time>2026-09-01T19:52:51Z</time>
  <course>226.7</course>
  <speed>26.52</speed>
  <fix>3d</fix>
</trkpt>
<trkpt lat="-35.3630084" lon="149.1478628">
  <ele>686.17</ele>
  <time>2026-09-01T19:52:51Z</time>
  <course>218.61</course>
  <speed>26.676086669524825</speed>
  <fix>3d</fix>
</trkpt>
<trkpt lat="-35.3629893" lon="149.1478814">
  <ele>686.07</ele>
  <time>2026-09-01T19:52:51Z</time>
  <course>220.34</course>
  <speed>26.59</speed>
  <fix>3d</fix>
</trkpt>
<trkpt lat="-35.3630276" lon="149.1478461">
  <ele>686.35</ele>
  <time>2026-09-01T19:52:51Z</time>
  <course>215.41</course>
  <speed>26.69222545986003</speed>
  <fix>3d</fix>
</trkpt>
<trkpt lat="-35.3629893" lon="149.1478814">
  <ele>686.07</ele>
  <time>2026-09-01T19:52:51Z</time>
  <course>220.34</course>
  <speed>26.59</speed>
  <fix>3d</fix>
</trkpt>
<trkpt lat="-35.3630478" lon="149.1478305">
  <ele>686.54</ele>
  <time>2026-09-01T19:52:51Z</time>
  <course>212.23</course>
  <speed>26.697724622147106</speed>
  <fix>3d</fix>
</trkpt>
<trkpt lat="-35.3630275" lon="149.1478461">
  <ele>686.42</ele>
  <time>2026-09-01T19:52:51Z</time>
  <course>213.9</course>
  <speed>26.64</speed>
  <fix>3d</fix>
</trkpt>
<trkpt lat="-35.3630686" lon="149.1478164">
  <ele>686.73</ele>
  <time>2026-09-01T19:52:51Z</time>
  <course>209.04</course>
  <speed>26.69280989330273</speed>
  <fix>3d</fix>
</trkpt>
<trkpt lat="-35.3630275" lon="149.1478461">
  <ele>686.42</ele>
  <time>2026-09-01T19:52:51Z</time>
  <course>213.9</course>
  <speed>26.64</speed>
  <fix>3d</fix>
</trkpt>
<trkpt lat="-35.36309" lon="149.1478036">
  <ele>686.93</ele>
  <time>2026-09-01T19:52:51Z</time>
  <course>205.9</course>
  <speed>26.688757932882528</speed>
  <fix>3d</fix>
</trkpt>
<trkpt lat="-35.3630686" lon="149.1478162">
  <ele>686.8</ele>
  <time>2026-09-01T19:52:51Z</time>
  <course>207.52</course>
  <speed>26.67</speed>
  <fix>3d</fix>
</trkpt>
<trkpt lat="-35.3631122" lon="149.1477922">
  <ele>687.13</ele>
  <time>2026-09-01T19:52:51Z</time>
  <course>202.77</course>
  <speed>26.671454778470558</speed>
  <fix>3d</fix>
</trkpt>
<trkpt lat="-35.3630686" lon="149.1478162">
  <ele>686.8</ele>
  <time>2026-09-01T19:52:51Z</time>
  <course>207.52</course>
  <speed>26.67</speed>
  <fix>3d</fix>
</trkpt>
<trkpt lat="-35.3631346" lon="149.1477824">
  <ele>687.33</ele>
  <time>2026-09-01T19:52:51Z</time>
  <course>199.66</course>
  <speed>26.649407122861103</speed>
  <fix>3d</fix>
</trkpt>
<trkpt lat="-35.3631122" lon="149.1477919">
  <ele>687.19</ele>
  <time>2026-09-01T19:52:51Z</time>
  <course>201.23</course>
  <speed>26.67</speed>
  <fix>3d</fix>
</trkpt>
<trkpt lat="-35.3631574" lon="149.1477741">
  <ele>687.54</ele>
  <time>2026-09-01T19:52:51Z</time>
  <course>196.67</course>
  <speed>26.623645505452476</speed>
  <fix>3d</fix>
</trkpt>
<trkpt lat="-35.3631122" lon="149.1477919">
  <ele>687.19</ele>
  <time>2026-09-01T19:52:51Z</time>
  <course>201.23</course>
  <speed>26.67</speed>
  <fix>3d</fix>
</trkpt>
<trkpt lat="-35.3631805" lon="149.1477674">
  <ele>687.75</ele>
  <time>2026-09-01T19:52:51Z</time>
  <course>193.69</course>
  <speed>26.598530034571457</speed>
  <fix>3d</fix>
</trkpt>
<trkpt lat="-35.3631577" lon="149.1477736">
  <ele>687.58</ele>
  <time>2026-09-01T19:52:51Z</time>
  <course>195.04</course>
  <speed>26.65</speed>
  <fix>3d</fix>
</trkpt>
<trkpt lat="-35.3632039" lon="149.147762">
  <ele>687.95</ele>
  <time>2026-09-01T19:52:51Z</time>
  <course>190.76</course>
  <speed>26.57968585216913</speed>
  <fix>3d</fix>
</trkpt>
<trkpt lat="-35.3631577" lon="149.1477736">
  <ele>687.58</ele>
  <time>2026-09-01T19:52:51Z</time>
  <course>195.04</course>
  <speed>26.65</speed>
  <fix>3d</fix>
</trkpt>
<trkpt lat="-35.3632275" lon="149.1477582">
  <ele>688.15</ele>
  <time>2026-09-01T19:52:51Z</time>
  <course>187.77</course>
  <speed>26.550725037181188</speed>
  <fix>3d</fix>
</trkpt>
<trkpt lat="-35.3632045" lon="149.1477615">
  <ele>687.98</ele>
  <time>2026-09-01T19:52:51Z</time>
  <course>189.0</course>
  <speed>26.61</speed>
  <fix>3d</fix>
</trkpt>
<trkpt lat="-35.3632512" lon="149.1477559">
  <ele>688.35</ele>
  <time>2026-09-01T19:52:51Z</time>
  <course>184.89</course>
  <speed>26.525402918711716</speed>
  <fix>3d</fix>
</trkpt>
<trkpt lat="-35.3632045" lon="149.1477615">
  <ele>687.98</ele>
  <time>2026-09-01T19:52:51Z</time>
  <course>189.0</course>
  <speed>26.61</speed>
  <fix>3d</fix>
</trkpt>
<trkpt lat="-35.3632749" lon="149.147755">
  <ele>688.53</ele>
  <time>2026-09-01T19:52:51Z</time>
  <course>182.02</course>
  <speed>26.500016981126638</speed>
  <fix>3d</fix>
</trkpt>
<trkpt lat="-35.3632521" lon="149.1477553">
  <ele>688.37</ele>
  <time>2026-09-01T19:52:51Z</time>
  <course>183.08</course>
  <speed>26.57</speed>
  <fix>3d</fix>
</trkpt>
<trkpt lat="-35.3632986" lon="149.1477555">
  <ele>688.71</ele>
  <time>2026-09-01T19:52:51Z</time>
  <course>179.19</course>
  <speed>26.471450659153533</speed>
  <fix>3d</fix>
</trkpt>
<trkpt lat="-35.3632521" lon="149.1477553">
  <ele>688.37</ele>
  <time>2026-09-01T19:52:51Z</time>
  <course>183.08</course>
  <speed>26.57</speed>
  <fix>3d</fix>
</trkpt>
<trkpt lat="-35.3633223" lon="149.1477576">
  <ele>688.88</ele>
  <time>2026-09-01T19:52:51Z</time>
  <course>176.28</course>
  <speed>26.440130483793006</speed>
  <fix>3d</fix>
</trkpt>
<trkpt lat="-35.3632999" lon="149.1477552">
  <ele>688.73</ele>
  <time>2026-09-01T19:52:51Z</time>
  <course>177.26</course>
  <speed>26.52</speed>
  <fix>3d</fix>
</trkpt>
<trkpt lat="-35.3633458" lon="149.1477611">
  <ele>689.05</ele>
  <time>2026-09-01T19:52:51Z</time>
  <course>173.4</course>
  <speed>26.40559978489411</speed>
  <fix>3d</fix>
</trkpt>
<trkpt lat="-35.3632999" lon="149.1477552">
  <ele>688.73</ele>
  <time>2026-09-01T19:52:51Z</time>
  <course>177.26</course>
  <speed>26.52</speed>
  <fix>3d</fix>
</trkpt>
<trkpt lat="-35.3633692" lon="149.1477661">
  <ele>689.2</ele>
  <time>2026-09-01T19:52:51Z</time>
  <course>170.68</course>
  <speed>26.371782268174442</speed>
  <fix>3d</fix>
</trkpt>
<trkpt lat="-35.3633472" lon="149.1477608">
  <ele>689.05</ele>
  <time>2026-09-01T19:52:51Z</time>
  <course>171.51</course>
  <speed>26.47</speed>
  <fix>3d</fix>
</trkpt>
<trkpt lat="-35.3633923" lon="149.1477724">
  <ele>689.35</ele>
  <time>2026-09-01T19:52:51Z</time>
  <course>167.95</course>
  <speed>26.344320070937492</speed>
  <fix>3d</fix>
</trkpt>
<trkpt lat="-35.3633472" lon="149.1477608">
  <ele>689.05</ele>
  <time>2026-09-01T19:52:51Z</time>
  <course>171.51</course>
  <speed>26.47</speed>
  <fix>3d</fix>
</trkpt>
<trkpt lat="-35.3634151" lon="149.1477801">
  <ele>689.49</ele>
  <time>2026-09-01T19:52:51Z</time>
  <course>165.15</course>
  <speed>26.312692754638398</speed>
  <fix>3d</fix>
</trkpt>
<trkpt lat="-35.3633938" lon="149.1477722">
  <ele>689.34</ele>
  <time>2026-09-01T19:52:51Z</time>
  <course>165.89</course>
  <speed>26.4</speed>
  <fix>3d</fix>
</trkpt>
<trkpt lat="-35.3634375" lon="149.1477891">
  <ele>689.61</ele>
  <time>2026-09-01T19:52:51Z</time>
  <course>162.43</course>
  <speed>26.278645322771112</speed>
  <fix>3d</fix>
</trkpt>
<trkpt lat="-35.3633938" lon="149.1477722">
  <ele>689.34</ele>
  <time>2026-09-01T19:52:51Z</time>
  <course>165.89</course>
  <speed>26.4</speed>
  <fix>3d</fix>
</trkpt>
<trkpt lat="-35.3634596" lon="149.1477994">
  <ele>689.72</ele>
  <time>2026-09-01T19:52:51Z</time>
  <course>159.74</course>
  <speed>26.244003124523516</speed>
  <fix>3d</fix>
</trkpt>
<trkpt lat="-35.363439" lon="149.147789">
  <ele>689.59</ele>
  <time>2026-09-01T19:52:51Z</time>
  <course>160.39</course>
  <speed>26.33</speed>
  <fix>3d</fix>
</trkpt>
<trkpt lat="-35.3634812" lon="149.147811">
  <ele>689.81</ele>
  <time>2026-09-01T19:52:51Z</time>
  <course>157.12</course>
  <speed>26.210490266303683</speed>
  <fix>3d</fix>
</trkpt>
<trkpt lat="-35.363439" lon="149.147789">
  <ele>689.59</ele>
  <time>2026-09-01T19:52:51Z</time>
  <course>160.39</course>
  <speed>26.33</speed>
  <fix>3d</fix>
</trkpt>
<trkpt lat="-35.3635023" lon="149.1478237">
  <ele>689.9</ele>
  <time>2026-09-01T19:52:51Z</time>
  <course>154.47</course>
  <speed>26.181476276176635</speed>
  <fix>3d</fix>
</trkpt>
<trkpt lat="-35.3634827" lon="149.1478111">
  <ele>689.8</ele>
  <time>2026-09-01T19:52:51Z</time>
  <course>154.96</course>
  <speed>26.26</speed>
  <fix>3d</fix>
</trkpt>
<trkpt lat="-35.3635229" lon="149.1478377">
  <ele>689.97</ele>
  <time>2026-09-01T19:52:51Z</time>
  <course>151.77</course>
  <speed>26.151084107547053</speed>
  <fix>3d</fix>
</trkpt>
<trkpt lat="-35.3634827" lon="149.1478111">
  <ele>689.8</ele>
  <time>2026-09-01T19:52:51Z</time>
  <course>154.96</course>
  <speed>26.26</speed>
  <fix>3d</fix>
</trkpt>
<trkpt lat="-35.3635429" lon="149.1478527">
  <ele>690.03</ele>
  <time>2026-09-01T19:52:51Z</time>
  <course>149.1</course>
  <speed>26.110878958778848</speed>
  <fix>3d</fix>
</trkpt>
<trkpt lat="-35.3635244" lon="149.1478379">
  <ele>689.95</ele>
  <time>2026-09-01T19:52:51Z</time>
  <course>149.59</course>
  <speed>26.19</speed>
  <fix>3d</fix>
</trkpt>
<trkpt lat="-35.3635622" lon="149.1478689">
  <ele>690.08</ele>
  <time>2026-09-01T19:52:51Z</time>
  <course>146.48</course>
  <speed>26.074604503232646</speed>
  <fix>3d</fix>
</trkpt>
<trkpt lat="-35.3635244" lon="149.1478379">
  <ele>689.95</ele>
  <time>2026-09-01T19:52:51Z</time>
  <course>149.59</course>
  <speed>26.19</speed>
  <fix>3d</fix>
</trkpt>
<trkpt lat="-35.3635811" lon="149.1478863">
  <ele>690.11</ele>
  <time>2026-09-01T19:52:51Z</time>
  <course>143.83</course>
  <speed>26.035902135320757</speed>
  <fix>3d</fix>
</trkpt>
<trkpt lat="-35.3635637" lon="149.1478694">
  <ele>690.06</ele>
  <time>2026-09-01T19:52:51Z</time>
  <course>144.27</course>
  <speed>26.11</speed>
  <fix>3d</fix>
</trkpt>
<trkpt lat="-35.3635992" lon="149.1479046">
  <ele>690.14</ele>
  <time>2026-09-01T19:52:51Z</time>
  <course>141.31</course>
  <speed>25.991246603424006</speed>
  <fix>3d</fix>
</trkpt>
<trkpt lat="-35.3635637" lon="149.1478694">
  <ele>690.06</ele>
  <time>2026-09-01T19:52:51Z</time>
  <course>144.27</course>
  <speed>26.11</speed>
  <fix>3d</fix>
</trkpt>
<trkpt lat="-35.3636165" lon="149.1479238">
  <ele>690.15</ele>
  <time>2026-09-01T19:52:51Z</time>
  <course>138.88</course>
  <speed>25.95897147423218</speed>
  <fix>3d</fix>
</trkpt>
<trkpt lat="-35.3636004" lon="149.1479049">
  <ele>690.12</ele>
  <time>2026-09-01T19:52:51Z</time>
  <course>139.08</course>
  <speed>26.03</speed>
  <fix>3d</fix>
</trkpt>
<trkpt lat="-35.3636332" lon="149.1479439">
  <ele>690.15</ele>
  <time>2026-09-01T19:52:51Z</time>
  <course>136.48</course>
  <speed>25.926484528373685</speed>
  <fix>3d</fix>
</trkpt>
<trkpt lat="-35.3636004" lon="149.1479049">
  <ele>690.12</ele>
  <time>2026-09-01T19:52:51Z</time>
  <course>139.08</course>
  <speed>26.03</speed>
  <fix>3d</fix>
</trkpt>
<trkpt lat="-35.363649" lon="149.1479649">
  <ele>690.13</ele>
  <time>2026-09-01T19:52:51Z</time>
  <course>134.06</course>
  <speed>25.88362416664251</speed>
  <fix>3d</fix>
</trkpt>
<trkpt lat="-35.3636343" lon="149.1479443">
  <ele>690.13</ele>
  <time>2026-09-01T19:52:51Z</time>
  <course>134.09</course>
  <speed>25.95</speed>
  <fix>3d</fix>
</trkpt>
<trkpt lat="-35.3636642" lon="149.1479866">
  <ele>690.1</ele>
  <time>2026-09-01T19:52:51Z</time>
  <course>131.71</course>
  <speed>25.83685932926059</speed>
  <fix>3d</fix>
</trkpt>
<trkpt lat="-35.3636343" lon="149.1479443">
  <ele>690.13</ele>
  <time>2026-09-01T19:52:51Z</time>
  <course>134.09</course>
  <speed>25.95</speed>
  <fix>3d</fix>
</trkpt>
<trkpt lat="-35.3636786" lon="149.148009">
  <ele>690.06</ele>
  <time>2026-09-01T19:52:51Z</time>
  <course>129.44</course>
  <speed>25.796009381297722</speed>
  <fix>3d</fix>
</trkpt>
<trkpt lat="-35.3636652" lon="149.1479869">
  <ele>690.1</ele>
  <time>2026-09-01T19:52:51Z</time>
  <course>129.29</course>
  <speed>25.86</speed>
  <fix>3d</fix>
</trkpt>
<trkpt lat="-35.3636922" lon="149.148032">
  <ele>690.01</ele>
  <time>2026-09-01T19:52:51Z</time>
  <course>127.25</course>
  <speed>25.746691049531005</speed>
  <fix>3d</fix>
</trkpt>
<trkpt lat="-35.3636652" lon="149.1479869">
  <ele>690.1</ele>
  <time>2026-09-01T19:52:51Z</time>
  <course>129.29</course>
  <speed>25.86</speed>
  <fix>3d</fix>
</trkpt>
<trkpt lat="-35.363705" lon="149.1480557">
  <ele>689.95</ele>
  <time>2026-09-01T19:52:51Z</time>
  <course>125.19</course>
  <speed>25.700250971537226</speed>
  <fix>3d</fix>
</trkpt>
<trkpt lat="-35.3636932" lon="149.1480324">
  <ele>690.01</ele>
  <time>2026-09-01T19:52:51Z</time>
  <course>124.69</course>
  <speed>25.76</speed>
  <fix>3d</fix>
</trkpt>
<trkpt lat="-35.3637171" lon="149.1480798">
  <ele>689.87</ele>
  <time>2026-09-01T19:52:51Z</time>
  <course>123.18</course>
  <speed>25.645633156543436</speed>
  <fix>3d</fix>
</trkpt>
<trkpt lat="-35.3636932" lon="149.1480324">
  <ele>690.01</ele>
  <time>2026-09-01T19:52:51Z</time>
  <course>124.69</course>
  <speed>25.76</speed>
  <fix>3d</fix>
</trkpt>
<trkpt lat="-35.3637285" lon="149.1481044">
  <ele>689.78</ele>
  <time>2026-09-01T19:52:51Z</time>
  <course>121.23</course>
  <speed>25.59328036809662</speed>
  <fix>3d</fix>
</trkpt>
<trkpt lat="-35.3637181" lon="149.1480803">
  <ele>689.88</ele>
  <time>2026-09-01T19:52:51Z</time>
  <course>120.44</course>
  <speed>25.66</speed>
  <fix>3d</fix>
</trkpt>
<trkpt lat="-35.3637391" lon="149.1481294">
  <ele>689.67</ele>
  <time>2026-09-01T19:52:51Z</time>
  <course>119.34</course>
  <speed>25.54488794260018</speed>
  <fix>3d</fix>
</trkpt>
<trkpt lat="-35.3637181" lon="149.1480803">
  <ele>689.88</ele>
  <time>2026-09-01T19:52:51Z</time>
  <course>120.44</course>
  <speed>25.66</speed>
  <fix>3d</fix>
</trkpt>
<trkpt lat="-35.3637491" lon="149.1481548">
  <ele>689.55</ele>
  <time>2026-09-01T19:52:51Z</time>
  <course>117.54</course>
  <speed>25.492832325969587</speed>
  <fix>3d</fix>
</trkpt>
<trkpt lat="-35.36374" lon="149.1481299">
  <ele>689.69</ele>
  <time>2026-09-01T19:52:51Z</time>
  <course>116.53</course>
  <speed>25.55</speed>
  <fix>3d</fix>
</trkpt>
<trkpt lat="-35.3637584" lon="149.1481805">
  <ele>689.41</ele>
  <time>2026-09-01T19:52:51Z</time>
  <course>115.87</course>
  <speed>25.446353373322474</speed>
  <fix>3d</fix>
</trkpt>
<trkpt lat="-35.36374" lon="149.1481299">
  <ele>689.69</ele>
  <time>2026-09-01T19:52:51Z</time>
  <course>116.53</course>
  <speed>25.55</speed>
  <fix>3d</fix>
</trkpt>
<trkpt lat="-35.363767" lon="149.1482065">
  <ele>689.26</ele>
  <time>2026-09-01T19:52:51Z</time>
  <course>114.24</course>
  <speed>25.39352870319523</speed>
  <fix>3d</fix>
</trkpt>
<trkpt lat="-35.3637592" lon="149.1481809">
  <ele>689.44</ele>
  <time>2026-09-01T19:52:51Z</time>
  <course>112.92</course>
  <speed>25.44</speed>
  <fix>3d</fix>
</trkpt>
<trkpt lat="-35.363775" lon="149.1482327">
  <ele>689.09</ele>
  <time>2026-09-01T19:52:51Z</time>
  <course>112.68</course>
  <speed>25.35709171020999</speed>
  <fix>3d</fix>
</trkpt>
<trkpt lat="-35.3637592" lon="149.1481809">
  <ele>689.44</ele>
  <time>2026-09-01T19:52:51Z</time>
  <course>112.92</course>
  <speed>25.44</speed>
  <fix>3d</fix>
</trkpt>
<trkpt lat="-35.3637824" lon="149.1482591">
  <ele>688.91</ele>
  <time>2026-09-01T19:52:51Z</time>
  <course>111.17</course>
  <speed>25.308221984169492</speed>
  <fix>3d</fix>
</trkpt>
<trkpt lat="-35.3637757" lon="149.148233">
  <ele>689.13</ele>
  <time>2026-09-01T19:52:51Z</time>
  <course>109.64</course>
  <speed>25.34</speed>
  <fix>3d</fix>
</trkpt>
<trkpt lat="-35.3637893" lon="149.1482857">
  <ele>688.72</ele>
  <time>2026-09-01T19:52:51Z</time>
  <course>109.69</course>
  <speed>25.273242767796933</speed>
  <fix>3d</fix>
</trkpt>
<trkpt lat="-35.3637757" lon="149.148233">
  <ele>689.13</ele>
  <time>2026-09-01T19:52:51Z</time>
  <course>109.64</course>
  <speed>25.34</speed>
  <fix>3d</fix>
</trkpt>
<trkpt lat="-35.3637955" lon="149.1483125">
  <ele>688.51</ele>
  <time>2026-09-01T19:52:51Z</time>
  <course>108.25</course>
  <speed>25.228604796936352</speed>
  <fix>3d</fix>
</trkpt>
<trkpt lat="-35.3637898" lon="149.1482859">
  <ele>688.77</ele>
  <time>2026-09-01T19:52:51Z</time>
  <course>106.64</course>
  <speed>25.26</speed>
  <fix>3d</fix>
</trkpt>
<trkpt lat="-35.3638012" lon="149.1483394">
  <ele>688.29</ele>
  <time>2026-09-01T19:52:51Z</time>
  <course>106.88</course>
  <speed>25.19962896552249</speed>
  <fix>3d</fix>
</trkpt>
<trkpt lat="-35.3637898" lon="149.1482859">
  <ele>688.77</ele>
  <time>2026-09-01T19:52:51Z</time>
  <course>106.64</course>
  <speed>25.26</speed>
  <fix>3d</fix>
</trkpt>
<trkpt lat="-35.3638064" lon="149.1483664">
  <ele>688.06</ele>
  <time>2026-09-01T19:52:51Z</time>
  <course>105.54</course>
  <speed>25.17695176148217</speed>
  <fix>3d</fix>
</trkpt>
<trkpt lat="-35.3638017" lon="149.1483395">
  <ele>688.36</ele>
  <time>2026-09-01T19:52:51Z</time>
  <course>103.85</course>
  <speed>25.19</speed>
  <fix>3d</fix>
</trkpt>
<trkpt lat="-35.3638111" lon="149.1483933">
  <ele>687.83</ele>
  <time>2026-09-01T19:52:51Z</time>
  <course>104.25</course>
  <speed>25.15582040005851</speed>
  <fix>3d</fix>
</trkpt>
<trkpt lat="-35.3638017" lon="149.1483395">
  <ele>688.36</ele>
  <time>2026-09-01T19:52:51Z</time>
  <course>103.85</course>
  <speed>25.19</speed>
  <fix>3d</fix>
</trkpt>
<trkpt lat="-35.3638153" lon="149.1484205">
  <ele>687.58</ele>
  <time>2026-09-01T19:52:51Z</time>
  <course>103.0</course>
  <speed>25.139821001749397</speed>
  <fix>3d</fix>
</trkpt>
<trkpt lat="-35.3638116" lon="149.1483936">
  <ele>687.9</ele>
  <time>2026-09-01T19:52:51Z</time>
  <course>101.31</course>
  <speed>25.14</speed>
  <fix>3d</fix>
</trkpt>
<trkpt lat="-35.3638191" lon="149.1484478">
  <ele>687.32</ele>
  <time>2026-09-01T19:52:51Z</time>
  <course>101.77</course>
  <speed>25.145848563928002</speed>
  <fix>3d</fix>
</trkpt>
<trkpt lat="-35.3638116" lon="149.1483936">
  <ele>687.9</ele>
  <time>2026-09-01T19:52:51Z</time>
  <course>101.31</course>
  <speed>25.14</speed>
  <fix>3d</fix>
</trkpt>
<trkpt lat="-35.3638225" lon="149.1484757">
  <ele>687.06</ele>
  <time>2026-09-01T19:52:51Z</time>
  <course>100.56</course>
  <speed>25.152226541600644</speed>
  <fix>3d</fix>
</trkpt>
<trkpt lat="-35.3638195" lon="149.1484481">
  <ele>687.4</ele>
  <time>2026-09-01T19:52:51Z</time>
  <course>98.95</course>
  <speed>25.13</speed>
  <fix>3d</fix>
</trkpt>
<trkpt lat="-35.3638254" lon="149.1485032">
  <ele>686.79</ele>
  <time>2026-09-01T19:52:51Z</time>
  <course>99.38</course>
  <speed>25.162346869876824</speed>
  <fix>3d</fix>
</trkpt>
<trkpt lat="-35.3638195" lon="149.1484481">
  <ele>687.4</ele>
  <time>2026-09-01T19:52:51Z</time>
  <course>98.95</course>
  <speed>25.13</speed>
  <fix>3d</fix>
</trkpt>
<trkpt lat="-35.3638279" lon="149.1485307">
  <ele>686.52</ele>
  <time>2026-09-01T19:52:51Z</time>
  <course>98.27</course>
  <speed>25.183401279414184</speed>
  <fix>3d</fix>
</trkpt>
<trkpt lat="-35.3638256" lon="149.148503">
  <ele>686.89</ele>
  <time>2026-09-01T19:52:51Z</time>
  <course>96.75</course>
  <speed>25.14</speed>
  <fix>3d</fix>
</trkpt>
<trkpt lat="-35.3638299" lon="149.1485584">
  <ele>686.26</ele>
  <time>2026-09-01T19:52:51Z</time>
  <course>97.14</course>
  <speed>25.204325025677637</speed>
  <fix>3d</fix>
</trkpt>
<trkpt lat="-35.3638256" lon="149.148503">
  <ele>686.89</ele>
  <time>2026-09-01T19:52:51Z</time>
  <course>96.75</course>
  <speed>25.14</speed>
  <fix>3d</fix>
</trkpt>
<trkpt lat="-35.3638316" lon="149.1485861">
  <ele>686.0</ele>
  <time>2026-09-01T19:52:51Z</time>
  <course>96.09</course>
  <speed>25.232702986402387</speed>
  <fix>3d</fix>
</trkpt>
<trkpt lat="-35.3638301" lon="149.1485582">
  <ele>686.37</ele>
  <time>2026-09-01T19:52:51Z</time>
  <course>94.7</course>
  <speed>25.19</speed>
  <fix>3d</fix>
</trkpt>
<trkpt lat="-35.3638329" lon="149.1486139">
  <ele>685.74</ele>
  <time>2026-09-01T19:52:51Z</time>
  <course>95.07</course>
  <speed>25.26995251281648</speed>
  <fix>3d</fix>
</trkpt>
<trkpt lat="-35.3638301" lon="149.1485582">
  <ele>686.37</ele>
  <time>2026-09-01T19:52:51Z</time>
  <course>94.7</course>
  <speed>25.19</speed>
  <fix>3d</fix>
</trkpt>
<trkpt lat="-35.3638339" lon="149.1486418">
  <ele>685.5</ele>
  <time>2026-09-01T19:52:51Z</time>
  <course>94.12</course>
  <speed>25.303946332538725</speed>
  <fix>3d</fix>
</trkpt>
<trkpt lat="-35.363833" lon="149.1486138">
  <ele>685.86</ele>
  <time>2026-09-01T19:52:51Z</time>
  <course>92.8</course>
  <speed>25.25</speed>
  <fix>3d</fix>
</trkpt>
<trkpt lat="-35.3638345" lon="149.1486696">
  <ele>685.27</ele>
  <time>2026-09-01T19:52:51Z</time>
  <course>93.26</course>
  <speed>25.344737126275348</speed>
  <fix>3d</fix>
</trkpt>
<trkpt lat="-35.363833" lon="149.1486138">
  <ele>685.86</ele>
  <time>2026-09-01T19:52:51Z</time>
  <course>92.8</course>
  <speed>25.25</speed>
  <fix>3d</fix>
</trkpt>
<trkpt lat="-35.3638348" lon="149.1486974">
  <ele>685.05</ele>
  <time>2026-09-01T19:52:51Z</time>
  <course>92.44</course>
  <speed>25.380504329110565</speed>
  <fix>3d</fix>
</trkpt>
<trkpt lat="-35.3638346" lon="149.1486694">
  <ele>685.39</ele>
  <time>2026-09-01T19:52:51Z</time>
  <course>91.12</course>
  <speed>25.33</speed>
  <fix>3d</fix>
</trkpt>
<trkpt lat="-35.3638348" lon="149.1487253">
  <ele>684.84</ele>
  <time>2026-09-01T19:52:51Z</time>
  <course>91.65</course>
  <speed>25.410332544065614</speed>
  <fix>3d</fix>
</trkpt>
<trkpt lat="-35.3638346" lon="149.1486694">
  <ele>685.39</ele>
  <time>2026-09-01T19:52:51Z</time>
  <course>91.12</course>
  <speed>25.33</speed>
  <fix>3d</fix>
</trkpt>
<trkpt lat="-35.3638346" lon="149.1487532">
  <ele>684.64</ele>
  <time>2026-09-01T19:52:51Z</time>
  <course>90.93</course>
  <speed>25.453143224364258</speed>
  <fix>3d</fix>
</trkpt>
<trkpt lat="-35.3638349" lon="149.1487253">
  <ele>684.95</ele>
  <time>2026-09-01T19:52:51Z</time>
  <course>89.7</course>
  <speed>25.41</speed>
  <fix>3d</fix>
</trkpt>
<trkpt lat="-35.3638341" lon="149.1487811">
  <ele>684.45</ele>
  <time>2026-09-01T19:52:51Z</time>
  <course>90.27</course>
  <speed>25.478292721452117</speed>
  <fix>3d</fix>
</trkpt>
<trkpt lat="-35.3638349" lon="149.1487253">
  <ele>684.95</ele>
  <time>2026-09-01T19:52:51Z</time>
  <course>89.7</course>
  <speed>25.41</speed>
  <fix>3d</fix>
</trkpt>
<trkpt lat="-35.3638334" lon="149.148809">
  <ele>684.28</ele>
  <time>2026-09-01T19:52:51Z</time>
  <course>89.67</course>
  <speed>25.505185747216192</speed>
  <fix>3d</fix>
</trkpt>
<trkpt lat="-35.3638343" lon="149.1487814">
  <ele>684.57</ele>
  <time>2026-09-01T19:52:51Z</time>
  <course>88.52</course>
  <speed>25.49</speed>
  <fix>3d</fix>
</trkpt>
<trkpt lat="-35.3638325" lon="149.148837">
  <ele>684.11</ele>
  <time>2026-09-01T19:52:51Z</time>
  <course>89.12</course>
  <speed>25.532851387966833</speed>
  <fix>3d</fix>
</trkpt>
<trkpt lat="-35.3638343" lon="149.1487814">
  <ele>684.57</ele>
  <time>2026-09-01T19:52:51Z</time>
  <course>88.52</course>
  <speed>25.49</speed>
  <fix>3d</fix>
</trkpt>
<trkpt lat="-35.3638316" lon="149.148865">
  <ele>683.95</ele>
  <time>2026-09-01T19:52:51Z</time>
  <course>88.64</course>
  <speed>25.5610739211012</speed>
  <fix>3d</fix>
</trkpt>
<trkpt lat="-35.3638328" lon="149.1488375">
  <ele>684.23</ele>
  <time>2026-09-01T19:52:51Z</time>
  <course>87.56</course>
  <speed>25.56</speed>
  <fix>3d</fix>
</trkpt>
<trkpt lat="-35.3638304" lon="149.148893">
  <ele>683.81</ele>
  <time>2026-09-01T19:52:51Z</time>
  <course>88.18</course>
  <speed>25.589429458274367</speed>
  <fix>3d</fix>
</trkpt>
<trkpt lat="-35.3638328" lon="149.1488375">
  <ele>684.23</ele>
  <time>2026-09-01T19:52:51Z</time>
  <course>87.56</course>
  <speed>25.56</speed>
  <fix>3d</fix>
</trkpt>
<trkpt lat="-35.3638291" lon="149.1489211">
  <ele>683.67</ele>
  <time>2026-09-01T19:52:51Z</time>
  <course>87.74</course>
  <speed>25.607561383310202</speed>
  <fix>3d</fix>
</trkpt>
<trkpt lat="-35.3638305" lon="149.1488939">
  <ele>683.93</ele>
  <time>2026-09-01T19:52:51Z</time>
  <course>86.8</course>
  <speed>25.62</speed>
  <fix>3d</fix>
</trkpt>
<trkpt lat="-35.3638277" lon="149.1489491">
  <ele>683.54</ele>
  <time>2026-09-01T19:52:51Z</time>
  <course>87.38</course>
  <speed>25.625787792768442</speed>
  <fix>3d</fix>
</trkpt>
<trkpt lat="-35.3638305" lon="149.1488939">
  <ele>683.93</ele>
  <time>2026-09-01T19:52:51Z</time>
  <course>86.8</course>
  <speed>25.62</speed>
  <fix>3d</fix>
</trkpt>
<trkpt lat="-35.3638261" lon="149.148977">
  <ele>683.42</ele>
  <time>2026-09-01T19:52:51Z</time>
  <course>87.08</course>
  <speed>25.643252523812183</speed>
  <fix>3d</fix>
</trkpt>
<trkpt lat="-35.3638276" lon="149.1489503">
  <ele>683.66</ele>
  <time>2026-09-01T19:52:51Z</time>
  <course>86.19</course>
  <speed>25.67</speed>
  <fix>3d</fix>
</trkpt>
<trkpt lat="-35.3638245" lon="149.1490051">
  <ele>683.3</ele>
  <time>2026-09-01T19:52:51Z</time>
  <course>86.83</course>
  <speed>25.65969992030304</speed>
  <fix>3d</fix>
</trkpt>
<trkpt lat="-35.3638276" lon="149.1489503">
  <ele>683.66</ele>
  <time>2026-09-01T19:52:51Z</time>
  <course>86.19</course>
  <speed>25.67</speed>
  <fix>3d</fix>
</trkpt>
<trkpt lat="-35.3638227" lon="149.1490333">
  <ele>683.19</ele>
  <time>2026-09-01T19:52:51Z</time>
  <course>86.54</course>
  <speed>25.675686943098523</speed>
  <fix>3d</fix>
</trkpt>
<trkpt lat="-35.3638244" lon="149.1490067">
  <ele>683.41</ele>
  <time>2026-09-01T19:52:51Z</time>
  <course>85.73</course>
  <speed>25.72</speed>
  <fix>3d</fix>
</trkpt>
<trkpt lat="-35.3638209" lon="149.1490614">
  <ele>683.08</ele>
  <time>2026-09-01T19:52:51Z</time>
  <course>86.29</course>
  <speed>25.69191701683625</speed>
  <fix>3d</fix>
</trkpt>
<trkpt lat="-35.3638244" lon="149.1490067">
  <ele>683.41</ele>
  <time>2026-09-01T19:52:51Z</time>
  <course>85.73</course>
  <speed>25.72</speed>
  <fix>3d</fix>
</trkpt>
<trkpt lat="-35.3638191" lon="149.1490899">
  <ele>682.98</ele>
  <time>2026-09-01T19:52:51Z</time>
  <course>86.07</course>
  <speed>25.716706632070913</speed>
  <fix>3d</fix>
</trkpt>
<trkpt lat="-35.3638208" lon="149.1490632">
  <ele>683.19</ele>
  <time>2026-09-01T19:52:51Z</time>
  <course>85.39</course>
  <speed>25.76</speed>
  <fix>3d</fix>
</trkpt>
<trkpt lat="-35.3638171" lon="149.1491181">
  <ele>682.87</ele>
  <time>2026-09-01T19:52:51Z</time>
  <course>85.88</course>
  <speed>25.73082198453831</speed>
  <fix>3d</fix>
</trkpt>
<trkpt lat="-35.3638208" lon="149.1490632">
  <ele>683.19</ele>
  <time>2026-09-01T19:52:51Z</time>
  <course>85.39</course>
  <speed>25.76</speed>
  <fix>3d</fix>
</trkpt>
<trkpt lat="-35.3638152" lon="149.1491463">
  <ele>682.77</ele>
  <time>2026-09-01T19:52:51Z</time>
  <course>85.75</course>
  <speed>25.745030588445605</speed>
  <fix>3d</fix>
</trkpt>
<trkpt lat="-35.363817" lon="149.1491198">
  <ele>682.99</ele>
  <time>2026-09-01T19:52:51Z</time>
  <course>85.14</course>
  <speed>25.8</speed>
  <fix>3d</fix>
</trkpt>
<trkpt lat="-35.3638132" lon="149.1491745">
  <ele>682.68</ele>
  <time>2026-09-01T19:52:51Z</time>
  <course>85.67</course>
  <speed>25.757585290550818</speed>
  <fix>3d</fix>
</trkpt>
<trkpt lat="-35.363817" lon="149.1491198">
  <ele>682.99</ele>
  <time>2026-09-01T19:52:51Z</time>
  <course>85.14</course>
  <speed>25.8</speed>
  <fix>3d</fix>
</trkpt>
<trkpt lat="-35.3638112" lon="149.1492028">
  <ele>682.59</ele>
  <time>2026-09-01T19:52:51Z</time>
  <course>85.55</course>
  <speed>25.78013382432294</speed>
  <fix>3d</fix>
</trkpt>
<trkpt lat="-35.3638129" lon="149.1491766">
  <ele>682.8</ele>
  <time>2026-09-01T19:52:51Z</time>
  <course>84.96</course>
  <speed>25.84</speed>
  <fix>3d</fix>
</trkpt>
<trkpt lat="-35.3638091" lon="149.1492311">
  <ele>682.5</ele>
  <time>2026-09-01T19:52:51Z</time>
  <course>85.45</course>
  <speed>25.792752858118888</speed>
  <fix>3d</fix>
</trkpt>
<trkpt lat="-35.3638129" lon="149.1491766">
  <ele>682.8</ele>
  <time>2026-09-01T19:52:51Z</time>
  <course>84.96</course>
  <speed>25.84</speed>
  <fix>3d</fix>
</trkpt>
<trkpt lat="-35.363807" lon="149.1492597">
  <ele>682.41</ele>
  <time>2026-09-01T19:52:51Z</time>
  <course>85.34</course>
  <speed>25.814463000418968</speed>
  <fix>3d</fix>
</trkpt>
<trkpt lat="-35.3638088" lon="149.1492334">
  <ele>682.63</ele>
  <time>2026-09-01T19:52:51Z</time>
  <course>84.85</course>
  <speed>25.88</speed>
  <fix>3d</fix>
</trkpt>
<trkpt lat="-35.3638049" lon="149.1492881">
  <ele>682.33</ele>
  <time>2026-09-01T19:52:51Z</time>
  <course>85.23</course>
  <speed>25.825322844061407</speed>
  <fix>3d</fix>
</trkpt>
<trkpt lat="-35.3638088" lon="149.1492334">
  <ele>682.63</ele>
  <time>2026-09-01T19:52:51Z</time>
  <course>84.85</course>
  <speed>25.88</speed>
  <fix>3d</fix>
</trkpt>
<trkpt lat="-35.3638028" lon="149.1493164">
  <ele>682.26</ele>
  <time>2026-09-01T19:52:51Z</time>
  <course>85.16</course>
  <speed>25.827134955313955</speed>
  <fix>3d</fix>
</trkpt>
<trkpt lat="-35.3638046" lon="149.1492903">
  <ele>682.47</ele>
  <time>2026-09-01T19:52:51Z</time>
  <course>84.77</course>
  <speed>25.9</speed>
  <fix>3d</fix>
</trkpt>
<trkpt lat="-35.3638006" lon="149.1493448">
  <ele>682.18</ele>
  <time>2026-09-01T19:52:51Z</time>
  <course>85.13</course>
  <speed>25.80813050183992</speed>
  <fix>3d</fix>
</trkpt>
<trkpt lat="-35.3638046" lon="149.1492903">
  <ele>682.47</ele>
  <time>2026-09-01T19:52:51Z</time>
  <course>84.77</course>
  <speed>25.9</speed>
  <fix>3d</fix>
</trkpt>
<trkpt lat="-35.3637985" lon="149.1493731">
  <ele>682.11</ele>
  <time>2026-09-01T19:52:51Z</time>
  <course>85.11</course>
  <speed>25.77917376488238</speed>
  <fix>3d</fix>
</trkpt>
<trkpt lat="-35.3638004" lon="149.1493471">
  <ele>682.32</ele>
  <time>2026-09-01T19:52:51Z</time>
  <course>84.71</course>
  <speed>25.89</speed>
  <fix>3d</fix>
</trkpt>
<trkpt lat="-35.3637964" lon="149.1494014">
  <ele>682.05</ele>
  <time>2026-09-01T19:52:51Z</time>
  <course>85.16</course>
  <speed>25.740266121390434</speed>
  <fix>3d</fix>
</trkpt>
<trkpt lat="-35.3638004" lon="149.1493471">
  <ele>682.32</ele>
  <time>2026-09-01T19:52:51Z</time>
  <course>84.71</course>
  <speed>25.89</speed>
  <fix>3d</fix>
</trkpt>
<trkpt lat="-35.3637942" lon="149.1494297">
  <ele>681.99</ele>
  <time>2026-09-01T19:52:51Z</time>
  <course>85.21</course>
  <speed>25.70947101750637</speed>
  <fix>3d</fix>
</trkpt>
<trkpt lat="-35.3637961" lon="149.1494037">
  <ele>682.2</ele>
  <time>2026-09-01T19:52:51Z</time>
  <course>84.68</course>
  <speed>25.84</speed>
  <fix>3d</fix>
</trkpt>
<trkpt lat="-35.3637921" lon="149.149458">
  <ele>681.93</ele>
  <time>2026-09-01T19:52:51Z</time>
  <course>85.16</course>
  <speed>25.678677925469607</speed>
  <fix>3d</fix>
</trkpt>
<trkpt lat="-35.3637961" lon="149.1494037">
  <ele>682.2</ele>
  <time>2026-09-01T19:52:51Z</time>
  <course>84.68</course>
  <speed>25.84</speed>
  <fix>3d</fix>
</trkpt>
<trkpt lat="-35.36379" lon="149.1494862">
  <ele>681.87</ele>
  <time>2026-09-01T19:52:51Z</time>
  <course>85.13</course>
  <speed>25.657844804269903</speed>
  <fix>3d</fix>
</trkpt>
<trkpt lat="-35.3637918" lon="149.1494604">
  <ele>682.08</ele>
  <time>2026-09-01T19:52:51Z</time>
  <course>84.69</course>
  <speed>25.78</speed>
  <fix>3d</fix>
</trkpt>
<trkpt lat="-35.3637878" lon="149.1495144">
  <ele>681.81</ele>
  <time>2026-09-01T19:52:51Z</time>
  <course>85.13</course>
  <speed>25.637014256734343</speed>
  <fix>3d</fix>
</trkpt>
<trkpt lat="-35.3637918" lon="149.1494604">
  <ele>682.08</ele>
  <time>2026-09-01T19:52:51Z</time>
  <course>84.69</course>
  <speed>25.78</speed>
  <fix>3d</fix>
</trkpt>
<trkpt lat="-35.3637858" lon="149.1495423">
  <ele>681.75</ele>
  <time>2026-09-01T19:52:51Z</time>
  <course>85.12</course>
  <speed>25.61527864380944</speed>
  <fix>3d</fix>
</trkpt>
<trkpt lat="-35.3637875" lon="149.1495168">
  <ele>681.96</ele>
  <time>2026-09-01T19:52:51Z</time>
  <course>84.74</course>
  <speed>25.73</speed>
  <fix>3d</fix>
</trkpt>
<trkpt lat="-35.3637837" lon="149.1495705">
  <ele>681.69</ele>
  <time>2026-09-01T19:52:51Z</time>
  <course>85.17</course>
  <speed>25.59355582954428</speed>
  <fix>3d</fix>
</trkpt>
<trkpt lat="-35.3637875" lon="149.1495168">
  <ele>681.96</ele>
  <time>2026-09-01T19:52:51Z</time>
  <course>84.74</course>
  <speed>25.73</speed>
  <fix>3d</fix>
</trkpt>
<trkpt lat="-35.3637816" lon="149.1495986">
  <ele>681.63</ele>
  <time>2026-09-01T19:52:51Z</time>
  <course>85.19</course>
  <speed>25.571845846555544</speed>
  <fix>3d</fix>
</trkpt>
<trkpt lat="-35.3637833" lon="149.1495732">
  <ele>681.84</ele>
  <time>2026-09-01T19:52:51Z</time>
  <course>84.81</course>
  <speed>25.68</speed>
  <fix>3d</fix>
</trkpt>
<trkpt lat="-35.3637795" lon="149.1496267">
  <ele>681.57</ele>
  <time>2026-09-01T19:52:51Z</time>
  <course>85.23</course>
  <speed>25.55014872755147</speed>
  <fix>3d</fix>
</trkpt>
<trkpt lat="-35.3637833" lon="149.1495732">
  <ele>681.84</ele>
  <time>2026-09-01T19:52:51Z</time>
  <course>84.81</course>
  <speed>25.68</speed>
  <fix>3d</fix>
</trkpt>
<trkpt lat="-35.3637775" lon="149.1496548">
  <ele>681.5</ele>
  <time>2026-09-01T19:52:51Z</time>
  <course>85.25</course>
  <speed>25.5393050022901</speed>
  <fix>3d</fix>
</trkpt>
<trkpt lat="-35.3637792" lon="149.1496295">
  <ele>681.72</ele>
  <time>2026-09-01T19:52:51Z</time>
  <course>84.88</course>
  <speed>25.65</speed>
  <fix>3d</fix>
</trkpt>
<trkpt lat="-35.3637755" lon="149.1496831">
  <ele>681.44</ele>
  <time>2026-09-01T19:52:51Z</time>
  <course>85.24</course>
  <speed>25.52758899700479</speed>
  <fix>3d</fix>
</trkpt>
<trkpt lat="-35.3637792" lon="149.1496295">
  <ele>681.72</ele>
  <time>2026-09-01T19:52:51Z</time>
  <course>84.88</course>
  <speed>25.65</speed>
  <fix>3d</fix>
</trkpt>
<trkpt lat="-35.3637734" lon="149.1497112">
  <ele>681.38</ele>
  <time>2026-09-01T19:52:51Z</time>
  <course>85.31</course>
  <speed>25.51588720777704</speed>
  <fix>3d</fix>
</trkpt>
<trkpt lat="-35.3637751" lon="149.1496857">
  <ele>681.59</ele>
  <time>2026-09-01T19:52:51Z</time>
  <course>84.96</course>
  <speed>25.62</speed>
  <fix>3d</fix>
</trkpt>
<trkpt lat="-35.3637714" lon="149.1497393">
  <ele>681.31</ele>
  <time>2026-09-01T19:52:51Z</time>
  <course>85.37</course>
  <speed>25.504199654174602</speed>
  <fix>3d</fix>
</trkpt>
<trkpt lat="-35.3637751" lon="149.1496857">
  <ele>681.59</ele>
  <time>2026-09-01T19:52:51Z</time>
  <course>84.96</course>
  <speed>25.62</speed>
  <fix>3d</fix>
</trkpt>
<trkpt lat="-35.3637695" lon="149.1497674">
  <ele>681.25</ele>
  <time>2026-09-01T19:52:51Z</time>
  <course>85.39</course>
  <speed>25.49337953273359</speed>
  <fix>3d</fix>
</trkpt>
<trkpt lat="-35.363771" lon="149.1497421">
  <ele>681.47</ele>
  <time>2026-09-01T19:52:51Z</time>
  <course>85.04</course>
  <speed>25.59</speed>
  <fix>3d</fix>
</trkpt>
<trkpt lat="-35.3637675" lon="149.1497955">
  <ele>681.19</ele>
  <time>2026-09-01T19:52:51Z</time>
  <course>85.43</course>
  <speed>25.49167707311545</speed>
  <fix>3d</fix>
</trkpt>
<trkpt lat="-35.363771" lon="149.1497421">
  <ele>681.47</ele>
  <time>2026-09-01T19:52:51Z</time>
  <course>85.04</course>
  <speed>25.59</speed>
  <fix>3d</fix>
</trkpt>
<trkpt lat="-35.3637655" lon="149.1498236">
  <ele>681.14</ele>
  <time>2026-09-01T19:52:51Z</time>
  <course>85.46</course>
  <speed>25.4808673321769</speed>
  <fix>3d</fix>
</trkpt>
<trkpt lat="-35.3637671" lon="149.1497983">
  <ele>681.35</ele>
  <time>2026-09-01T19:52:51Z</time>
  <course>85.11</course>
  <speed>25.57</speed>
  <fix>3d</fix>
</trkpt>
<trkpt lat="-35.3637636" lon="149.1498518">
  <ele>681.08</ele>
  <time>2026-09-01T19:52:51Z</time>
  <course>85.48</course>
  <speed>25.479187585164485</speed>
  <fix>3d</fix>
</trkpt>
<trkpt lat="-35.3637671" lon="149.1497983">
  <ele>681.35</ele>
  <time>2026-09-01T19:52:51Z</time>
  <course>85.11</course>
  <speed>25.57</speed>
  <fix>3d</fix>
</trkpt>
<trkpt lat="-35.3637617" lon="149.1498799">
  <ele>681.04</ele>
  <time>2026-09-01T19:52:51Z</time>
  <course>85.5</course>
  <speed>25.467557794181992</speed>
  <fix>3d</fix>
</trkpt>
<trkpt lat="-35.3637633" lon="149.1498544">
  <ele>681.24</ele>
  <time>2026-09-01T19:52:51Z</time>
  <course>85.18</course>
  <speed>25.55</speed>
  <fix>3d</fix>
</trkpt>
<trkpt lat="-35.3637597" lon="149.149908">
  <ele>680.99</ele>
  <time>2026-09-01T19:52:51Z</time>
  <course>85.52</course>
  <speed>25.46673123901063</speed>
  <fix>3d</fix>
</trkpt>
<trkpt lat="-35.3637633" lon="149.1498544">
  <ele>681.24</ele>
  <time>2026-09-01T19:52:51Z</time>
  <course>85.18</course>
  <speed>25.55</speed>
  <fix>3d</fix>
</trkpt>
<trkpt lat="-35.3637578" lon="149.1499361">
  <ele>680.94</ele>
  <time>2026-09-01T19:52:51Z</time>
  <course>85.6</course>
  <speed>25.45594233180143</speed>
  <fix>3d</fix>
</trkpt>
<trkpt lat="-35.3637595" lon="149.1499104">
  <ele>681.14</ele>
  <time>2026-09-01T19:52:51Z</time>
  <course>85.24</course>
  <speed>25.53</speed>
  <fix>3d</fix>
</trkpt>
<trkpt lat="-35.363756" lon="149.1499642">
  <ele>680.9</ele>
  <time>2026-09-01T19:52:51Z</time>
  <course>85.64</course>
  <speed>25.444341217646016</speed>
  <fix>3d</fix>
</trkpt>
<trkpt lat="-35.3637595" lon="149.1499104">
  <ele>681.14</ele>
  <time>2026-09-01T19:52:51Z</time>
  <course>85.24</course>
  <speed>25.53</speed>
  <fix>3d</fix>
</trkpt>
<trkpt lat="-35.3637541" lon="149.1499922">
  <ele>680.86</ele>
  <time>2026-09-01T19:52:51Z</time>
  <course>85.66</course>
  <speed>25.42278702266925</speed>
  <fix>3d</fix>
</trkpt>
<trkpt lat="-35.3637557" lon="149.1499665">
  <ele>681.06</ele>
  <time>2026-09-01T19:52:51Z</time>
  <course>85.31</course>
  <speed>25.5</speed>
  <fix>3d</fix>
</trkpt>
<trkpt lat="-35.3637522" lon="149.1500203">
  <ele>680.83</ele>
  <time>2026-09-01T19:52:51Z</time>
  <course>85.72</course>
  <speed>25.412014874857917</speed>
  <fix>3d</fix>
</trkpt>
<trkpt lat="-35.3637557" lon="149.1499665">
  <ele>681.06</ele>
  <time>2026-09-01T19:52:51Z</time>
  <course>85.31</course>
  <speed>25.5</speed>
  <fix>3d</fix>
</trkpt>
<trkpt lat="-35.3637504" lon="149.1500485">
  <ele>680.8</ele>
  <time>2026-09-01T19:52:51Z</time>
  <course>85.74</course>
  <speed>25.4012460324292</speed>
  <fix>3d</fix>
</trkpt>
<trkpt lat="-35.3637519" lon="149.1500224">
  <ele>680.99</ele>
  <time>2026-09-01T19:52:51Z</time>
  <course>85.37</course>
  <speed>25.46</speed>
  <fix>3d</fix>
</trkpt>
<trkpt lat="-35.3637485" lon="149.1500765">
  <ele>680.77</ele>
  <time>2026-09-01T19:52:51Z</time>
  <course>85.78</course>
  <speed>25.38968688266951</speed>
  <fix>3d</fix>
</trkpt>
<trkpt lat="-35.3637519" lon="149.1500224">
  <ele>680.99</ele>
  <time>2026-09-01T19:52:51Z</time>
  <course>85.37</course>
  <speed>25.46</speed>
  <fix>3d</fix>
</trkpt>
<trkpt lat="-35.3637467" lon="149.1501045">
  <ele>680.74</ele>
  <time>2026-09-01T19:52:51Z</time>
  <course>85.85</course>
  <speed>25.378928267363854</speed>
  <fix>3d</fix>
</trkpt>
<trkpt lat="-35.3637483" lon="149.1500783">
  <ele>680.93</ele>
  <time>2026-09-01T19:52:51Z</time>
  <course>85.43</course>
  <speed>25.43</speed>
  <fix>3d</fix>
</trkpt>
<trkpt lat="-35.3637449" lon="149.1501323">
  <ele>680.71</ele>
  <time>2026-09-01T19:52:51Z</time>
  <course>85.85</course>
  <speed>25.368172973235577</speed>
  <fix>3d</fix>
</trkpt>
<trkpt lat="-35.3637483" lon="149.1500783">
  <ele>680.93</ele>
  <time>2026-09-01T19:52:51Z</time>
  <course>85.43</course>
  <speed>25.43</speed>
  <fix>3d</fix>
</trkpt>
<trkpt lat="-35.3637431" lon="149.1501602">
  <ele>680.69</ele>
  <time>2026-09-01T19:52:51Z</time>
  <course>85.8</course>
  <speed>25.347451548429873</speed>
  <fix>3d</fix>
</trkpt>
<trkpt lat="-35.3637447" lon="149.1501342">
  <ele>680.87</ele>
  <time>2026-09-01T19:52:51Z</time>
  <course>85.48</course>
  <speed>25.41</speed>
  <fix>3d</fix>
</trkpt>
<trkpt lat="-35.3637413" lon="149.1501882">
  <ele>680.66</ele>
  <time>2026-09-01T19:52:51Z</time>
  <course>85.77</course>
  <speed>25.336702626821825</speed>
  <fix>3d</fix>
</trkpt>
<trkpt lat="-35.3637447" lon="149.1501342">
  <ele>680.87</ele>
  <time>2026-09-01T19:52:51Z</time>
  <course>85.48</course>
  <speed>25.41</speed>
  <fix>3d</fix>
</trkpt>
<trkpt lat="-35.3637396" lon="149.1502161">
  <ele>680.64</ele>
  <time>2026-09-01T19:52:51Z</time>
  <course>85.83</course>
  <speed>25.32673291208323</speed>
  <fix>3d</fix>
</trkpt>
<trkpt lat="-35.3637411" lon="149.1501899">
  <ele>680.81</ele>
  <time>2026-09-01T19:52:51Z</time>
  <course>85.51</course>
  <speed>25.37</speed>
  <fix>3d</fix>
</trkpt>
<trkpt lat="-35.3637378" lon="149.1502443">
  <ele>680.63</ele>
  <time>2026-09-01T19:52:51Z</time>
  <course>85.84</course>
  <speed>25.31598704376347</speed>
  <fix>3d</fix>
</trkpt>
<trkpt lat="-35.3637411" lon="149.1501899">
  <ele>680.81</ele>
  <time>2026-09-01T19:52:51Z</time>
  <course>85.51</course>
  <speed>25.37</speed>
  <fix>3d</fix>
</trkpt>
<trkpt lat="-35.363736" lon="149.1502722">
  <ele>680.61</ele>
  <time>2026-09-01T19:52:51Z</time>
  <course>85.88</course>
  <speed>25.295274262201623</speed>
  <fix>3d</fix>
</trkpt>
<trkpt lat="-35.3637376" lon="149.1502456">
  <ele>680.77</ele>
  <time>2026-09-01T19:52:51Z</time>
  <course>85.53</course>
  <speed>25.33</speed>
  <fix>3d</fix>
</trkpt>
<trkpt lat="-35.3637342" lon="149.1503001">
  <ele>680.59</ele>
  <time>2026-09-01T19:52:51Z</time>
  <course>85.93</course>
  <speed>25.275333825688634</speed>
  <fix>3d</fix>
</trkpt>
<trkpt lat="-35.3637376" lon="149.1502456">
  <ele>680.77</ele>
  <time>2026-09-01T19:52:51Z</time>
  <course>85.53</course>
  <speed>25.33</speed>
  <fix>3d</fix>
</trkpt>
<trkpt lat="-35.3637325" lon="149.1503279">
  <ele>680.58</ele>
  <time>2026-09-01T19:52:51Z</time>
  <course>85.98</course>
  <speed>25.253857131139394</speed>
  <fix>3d</fix>
</trkpt>
<trkpt lat="-35.363734" lon="149.1503013">
  <ele>680.74</ele>
  <time>2026-09-01T19:52:51Z</time>
  <course>85.56</course>
  <speed>25.29</speed>
  <fix>3d</fix>
</trkpt>
<trkpt lat="-35.3637307" lon="149.1503558">
  <ele>680.57</ele>
  <time>2026-09-01T19:52:51Z</time>
  <course>85.98</course>
  <speed>25.23391566919411</speed>
  <fix>3d</fix>
</trkpt>
<trkpt lat="-35.363734" lon="149.1503013">
  <ele>680.74</ele>
  <time>2026-09-01T19:52:51Z</time>
  <course>85.56</course>
  <speed>25.29</speed>
  <fix>3d</fix>
</trkpt>
<trkpt lat="-35.363729" lon="149.1503836">
  <ele>680.55</ele>
  <time>2026-09-01T19:52:51Z</time>
  <course>85.97</course>
  <speed>25.20323987109594</speed>
  <fix>3d</fix>
</trkpt>
<trkpt lat="-35.3637305" lon="149.1503569">
  <ele>680.7</ele>
  <time>2026-09-01T19:52:51Z</time>
  <course>85.58</course>
  <speed>25.24</speed>
  <fix>3d</fix>
</trkpt>
<trkpt lat="-35.3637272" lon="149.1504113">
  <ele>680.53</ele>
  <time>2026-09-01T19:52:51Z</time>
  <course>85.93</course>
  <speed>25.182537600488164</speed>
  <fix>3d</fix>
</trkpt>
<trkpt lat="-35.3637305" lon="149.1503569">
  <ele>680.7</ele>
  <time>2026-09-01T19:52:51Z</time>
  <course>85.58</course>
  <speed>25.24</speed>
  <fix>3d</fix>
</trkpt>
<trkpt lat="-35.3637255" lon="149.150439">
  <ele>680.51</ele>
  <time>2026-09-01T19:52:51Z</time>
  <course>85.97</course>
  <speed>25.16183816814662</speed>
  <fix>3d</fix>
</trkpt>
<trkpt lat="-35.363727" lon="149.1504122">
  <ele>680.67</ele>
  <time>2026-09-01T19:52:51Z</time>
  <course>85.61</course>
  <speed>25.18</speed>
  <fix>3d</fix>
</trkpt>
<trkpt lat="-35.3637238" lon="149.1504667">
  <ele>680.49</ele>
  <time>2026-09-01T19:52:51Z</time>
  <course>86.04</course>
  <speed>25.141141581081794</speed>
  <fix>3d</fix>
</trkpt>
<trkpt lat="-35.363727" lon="149.1504122">
  <ele>680.67</ele>
  <time>2026-09-01T19:52:51Z</time>
  <course>85.61</course>
  <speed>25.18</speed>
  <fix>3d</fix>
</trkpt>
<trkpt lat="-35.3637221" lon="149.1504944">
  <ele>680.46</ele>
  <time>2026-09-01T19:52:51Z</time>
  <course>86.07</course>
  <speed>25.110475901503737</speed>
  <fix>3d</fix>
</trkpt>
<trkpt lat="-35.3637236" lon="149.1504675">
  <ele>680.62</ele>
  <time>2026-09-01T19:52:51Z</time>
  <course>85.65</course>
  <speed>25.13</speed>
  <fix>3d</fix>
</trkpt>
<trkpt lat="-35.3637204" lon="149.150522">
  <ele>680.43</ele>
  <time>2026-09-01T19:52:51Z</time>
  <course>86.04</course>
  <speed>25.08978477388756</speed>
  <fix>3d</fix>
</trkpt>
<trkpt lat="-35.3637236" lon="149.1504675">
  <ele>680.62</ele>
  <time>2026-09-01T19:52:51Z</time>
  <course>85.65</course>
  <speed>25.13</speed>
  <fix>3d</fix>
</trkpt>
<trkpt lat="-35.3637187" lon="149.1505496">
  <ele>680.39</ele>
  <time>2026-09-01T19:52:51Z</time>
  <course>86.04</course>
  <speed>25.069096513436616</speed>
  <fix>3d</fix>
</trkpt>
<trkpt lat="-35.3637202" lon="149.1505226">
  <ele>680.56</ele>
  <time>2026-09-01T19:52:51Z</time>
  <course>85.69</course>
  <speed>25.08</speed>
  <fix>3d</fix>
</trkpt>
<trkpt lat="-35.363717" lon="149.1505772">
  <ele>680.36</ele>
  <time>2026-09-01T19:52:51Z</time>
  <course>86.05</course>
  <speed>25.048411127255157</speed>
  <fix>3d</fix>
</trkpt>
<trkpt lat="-35.3637202" lon="149.1505226">
  <ele>680.56</ele>
  <time>2026-09-01T19:52:51Z</time>
  <course>85.69</course>
  <speed>25.08</speed>
  <fix>3d</fix>
</trkpt>
<trkpt lat="-35.3637153" lon="149.1506048">
  <ele>680.31</ele>
  <time>2026-09-01T19:52:51Z</time>
  <course>86.08</course>
  <speed>25.018493160060622</speed>
  <fix>3d</fix>
</trkpt>
<trkpt lat="-35.3637168" lon="149.1505776">
  <ele>680.5</ele>
  <time>2026-09-01T19:52:51Z</time>
  <course>85.72</course>
  <speed>25.04</speed>
  <fix>3d</fix>
</trkpt>
<trkpt lat="-35.3637136" lon="149.1506324">
  <ele>680.27</ele>
  <time>2026-09-01T19:52:51Z</time>
  <course>86.14</course>
  <speed>24.997809904069594</speed>
  <fix>3d</fix>
</trkpt>
<trkpt lat="-35.3637168" lon="149.1505776">
  <ele>680.5</ele>
  <time>2026-09-01T19:52:51Z</time>
  <course>85.72</course>
  <speed>25.04</speed>
  <fix>3d</fix>
</trkpt>
<trkpt lat="-35.363712" lon="149.1506599">
  <ele>680.22</ele>
  <time>2026-09-01T19:52:51Z</time>
  <course>86.11</course>
  <speed>24.97786420012728</speed>
  <fix>3d</fix>
</trkpt>
<trkpt lat="-35.3637135" lon="149.1506326">
  <ele>680.42</ele>
  <time>2026-09-01T19:52:51Z</time>
  <course>85.74</course>
  <speed>24.99</speed>
  <fix>3d</fix>
</trkpt>
<trkpt lat="-35.3637103" lon="149.1506874">
  <ele>680.17</ele>
  <time>2026-09-01T19:52:51Z</time>
  <course>86.12</course>
  <speed>24.96715642599293</speed>
  <fix>3d</fix>
</trkpt>
<trkpt lat="-35.3637135" lon="149.1506326">
  <ele>680.42</ele>
  <time>2026-09-01T19:52:51Z</time>
  <course>85.74</course>
  <speed>24.99</speed>
  <fix>3d</fix>
</trkpt>
<trkpt lat="-35.3637086" lon="149.1507149">
  <ele>680.12</ele>
  <time>2026-09-01T19:52:51Z</time>
  <course>86.13</course>
  <speed>24.946478709429112</speed>
  <fix>3d</fix>
</trkpt>
<trkpt lat="-35.3637102" lon="149.1506875">
  <ele>680.33</ele>
  <time>2026-09-01T19:52:51Z</time>
  <course>85.75</course>
  <speed>24.95</speed>
  <fix>3d</fix>
</trkpt>
<trkpt lat="-35.363707" lon="149.1507424">
  <ele>680.07</ele>
  <time>2026-09-01T19:52:51Z</time>
  <course>86.16</course>
  <speed>24.926532049204116</speed>
  <fix>3d</fix>
</trkpt>
<trkpt lat="-35.3637102" lon="149.1506875">
  <ele>680.33</ele>
  <time>2026-09-01T19:52:51Z</time>
  <course>85.75</course>
  <speed>24.95</speed>
  <fix>3d</fix>
</trkpt>
<trkpt lat="-35.3637053" lon="149.1507698">
  <ele>680.02</ele>
  <time>2026-09-01T19:52:51Z</time>
  <course>86.17</course>
  <speed>24.915830309263225</speed>
  <fix>3d</fix>
</trkpt>
<trkpt lat="-35.3637068" lon="149.1507422">
  <ele>680.23</ele>
  <time>2026-09-01T19:52:51Z</time>
  <course>85.77</course>
  <speed>24.91</speed>
  <fix>3d</fix>
</trkpt>
<trkpt lat="-35.3637037" lon="149.1507973">
  <ele>679.97</ele>
  <time>2026-09-01T19:52:51Z</time>
  <course>86.14</course>
  <speed>24.91510585969885</speed>
  <fix>3d</fix>
</trkpt>
<trkpt lat="-35.3637068" lon="149.1507422">
  <ele>680.23</ele>
  <time>2026-09-01T19:52:51Z</time>
  <course>85.77</course>
  <speed>24.91</speed>
  <fix>3d</fix>
</trkpt>
<trkpt lat="-35.3637021" lon="149.1508249">
  <ele>679.91</ele>
  <time>2026-09-01T19:52:51Z</time>
  <course>86.17</course>
  <speed>24.895158163787592</speed>
  <fix>3d</fix>
</trkpt>
<trkpt lat="-35.3637035" lon="149.1507969">
  <ele>680.12</ele>
  <time>2026-09-01T19:52:51Z</time>
  <course>85.8</course>
  <speed>24.88</speed>
  <fix>3d</fix>
</trkpt>
<trkpt lat="-35.3637004" lon="149.1508521">
  <ele>679.85</ele>
  <time>2026-09-01T19:52:51Z</time>
  <course>86.21</course>
  <speed>24.864514875621445</speed>
  <fix>3d</fix>
</trkpt>
<trkpt lat="-35.3637035" lon="149.1507969">
  <ele>680.12</ele>
  <time>2026-09-01T19:52:51Z</time>
  <course>85.8</course>
  <speed>24.88</speed>
  <fix>3d</fix>
</trkpt>
<trkpt lat="-35.3636988" lon="149.1508794">
  <ele>679.79</ele>
  <time>2026-09-01T19:52:51Z</time>
  <course>86.25</course>
  <speed>24.84384833313873</speed>
  <fix>3d</fix>
</trkpt>
<trkpt lat="-35.3637003" lon="149.1508515">
  <ele>680.01</ele>
  <time>2026-09-01T19:52:51Z</time>
  <course>85.82</course>
  <speed>24.84</speed>
  <fix>3d</fix>
</trkpt>
<trkpt lat="-35.3636972" lon="149.1509065">
  <ele>679.73</ele>
  <time>2026-09-01T19:52:51Z</time>
  <course>86.27</course>
  <speed>24.81321019134767</speed>
  <fix>3d</fix>
</trkpt>
<trkpt lat="-35.3637003" lon="149.1508515">
  <ele>680.01</ele>
  <time>2026-09-01T19:52:51Z</time>
  <course>85.82</course>
  <speed>24.84</speed>
  <fix>3d</fix>
</trkpt>
<trkpt lat="-35.3636956" lon="149.1509337">
  <ele>679.67</ele>
  <time>2026-09-01T19:52:51Z</time>
  <course>86.29</course>
  <speed>24.782574523241124</speed>
  <fix>3d</fix>
</trkpt>
<trkpt lat="-35.363697" lon="149.1509062">
  <ele>679.89</ele>
  <time>2026-09-01T19:52:51Z</time>
  <course>85.86</course>
  <speed>24.8</speed>
  <fix>3d</fix>
</trkpt>
<trkpt lat="-35.363694" lon="149.1509608">
  <ele>679.61</ele>
  <time>2026-09-01T19:52:51Z</time>
  <course>86.31</course>
  <speed>24.751941338004176</speed>
  <fix>3d</fix>
</trkpt>
<trkpt lat="-35.363697" lon="149.1509062">
  <ele>679.89</ele>
  <time>2026-09-01T19:52:51Z</time>
  <course>85.86</course>
  <speed>24.8</speed>
  <fix>3d</fix>
</trkpt>
<trkpt lat="-35.3636925" lon="149.1509879">
  <ele>679.54</ele>
  <time>2026-09-01T19:52:51Z</time>
  <course>86.33</course>
  <speed>24.73128585415647</speed>
  <fix>3d</fix>
</trkpt>
<trkpt lat="-35.3636939" lon="149.1509608">
  <ele>679.77</ele>
  <time>2026-09-01T19:52:51Z</time>
  <course>85.89</course>
  <speed>24.76</speed>
  <fix>3d</fix>
</trkpt>
<trkpt lat="-35.3636909" lon="149.1510149">
  <ele>679.48</ele>
  <time>2026-09-01T19:52:51Z</time>
  <course>86.31</course>
  <speed>24.711335455616315</speed>
  <fix>3d</fix>
</trkpt>
<trkpt lat="-35.3636939" lon="149.1509608">
  <ele>679.77</ele>
  <time>2026-09-01T19:52:51Z</time>
  <course>85.89</course>
  <speed>24.76</speed>
  <fix>3d</fix>
</trkpt>
<trkpt lat="-35.3636893" lon="149.151042">
  <ele>679.41</ele>
  <time>2026-09-01T19:52:52Z</time>
  <course>86.31</course>
  <speed>24.691385137330794</speed>
  <fix>3d</fix>
</trkpt>
<trkpt lat="-35.3636907" lon="149.1510151">
  <ele>679.64</ele>
  <time>2026-09-01T19:52:52Z</time>
  <course>85.9</course>
  <speed>24.72</speed>
  <fix>3d</fix>
</trkpt>
<trkpt lat="-35.3636877" lon="149.1510691">
  <ele>679.35</ele>
  <time>2026-09-01T19:52:52Z</time>
  <course>86.31</course>
  <speed>24.660756273885845</speed>
  <fix>3d</fix>
</trkpt>
<trkpt lat="-35.3636907" lon="149.1510151">
  <ele>679.64</ele>
  <time>2026-09-01T19:52:52Z</time>
  <course>85.9</course>
  <speed>24.72</speed>
  <fix>3d</fix>
</trkpt>
<trkpt lat="-35.3636862" lon="149.1510961">
  <ele>679.27</ele>
  <time>2026-09-01T19:52:52Z</time>
  <course>86.32</course>
  <speed>24.63083027427212</speed>
  <fix>3d</fix>
</trkpt>
<trkpt lat="-35.3636876" lon="149.1510693">
  <ele>679.5</ele>
  <time>2026-09-01T19:52:52Z</time>
  <course>85.9</course>
  <speed>24.67</speed>
  <fix>3d</fix>
</trkpt>
<trkpt lat="-35.3636846" lon="149.1511231">
  <ele>679.2</ele>
  <time>2026-09-01T19:52:52Z</time>
  <course>86.36</course>
  <speed>24.610879707966557</speed>
  <fix>3d</fix>
</trkpt>
<trkpt lat="-35.3636876" lon="149.1510693">
  <ele>679.5</ele>
  <time>2026-09-01T19:52:52Z</time>
  <course>85.9</course>
  <speed>24.67</speed>
  <fix>3d</fix>
</trkpt>
<trkpt lat="-35.363683" lon="149.1511501">
  <ele>679.12</ele>
  <time>2026-09-01T19:52:52Z</time>
  <course>86.38</course>
  <speed>24.59022773379702</speed>
  <fix>3d</fix>
</trkpt>
<trkpt lat="-35.3636843" lon="149.1511235">
  <ele>679.35</ele>
  <time>2026-09-01T19:52:52Z</time>
  <course>85.91</course>
  <speed>24.63</speed>
  <fix>3d</fix>
</trkpt>
<trkpt lat="-35.3636815" lon="149.151177">
  <ele>679.05</ele>
  <time>2026-09-01T19:52:52Z</time>
  <course>86.36</course>
  <speed>24.57027675871804</speed>
  <fix>3d</fix>
</trkpt>
<trkpt lat="-35.3636843" lon="149.1511235">
  <ele>679.35</ele>
  <time>2026-09-01T19:52:52Z</time>
  <course>85.91</course>
  <speed>24.63</speed>
  <fix>3d</fix>
</trkpt>
<trkpt lat="-35.3636799" lon="149.151204">
  <ele>678.97</ele>
  <time>2026-09-01T19:52:52Z</time>
  <course>86.37</course>
  <speed>24.53965158676871</speed>
  <fix>3d</fix>
</trkpt>
<trkpt lat="-35.3636812" lon="149.1511775">
  <ele>679.2</ele>
  <time>2026-09-01T19:52:52Z</time>
  <course>85.92</course>
  <speed>24.59</speed>
  <fix>3d</fix>
</trkpt>
<trkpt lat="-35.3636783" lon="149.1512309">
  <ele>678.89</ele>
  <time>2026-09-01T19:52:52Z</time>
  <course>86.4</course>
  <speed>24.519700242865937</speed>
  <fix>3d</fix>
</trkpt>
<trkpt lat="-35.3636812" lon="149.1511775">
  <ele>679.2</ele>
  <time>2026-09-01T19:52:52Z</time>
  <course>85.92</course>
  <speed>24.59</speed>
  <fix>3d</fix>
</trkpt>
<trkpt lat="-35.3636768" lon="149.1512578">
  <ele>678.81</ele>
  <time>2026-09-01T19:52:52Z</time>
  <course>86.4</course>
  <speed>24.499053042923926</speed>
  <fix>3d</fix>
</trkpt>
<trkpt lat="-35.3636781" lon="149.1512316">
  <ele>679.04</ele>
  <time>2026-09-01T19:52:52Z</time>
  <course>85.93</course>
  <speed>24.55</speed>
  <fix>3d</fix>
</trkpt>
<trkpt lat="-35.3636752" lon="149.1512847">
  <ele>678.72</ele>
  <time>2026-09-01T19:52:52Z</time>
  <course>86.35</course>
  <speed>24.469125444118347</speed>
  <fix>3d</fix>
</trkpt>
<trkpt lat="-35.3636781" lon="149.1512316">
  <ele>679.04</ele>
  <time>2026-09-01T19:52:52Z</time>
  <course>85.93</course>
  <speed>24.55</speed>
  <fix>3d</fix>
</trkpt>
<trkpt lat="-35.3636737" lon="149.1513115">
  <ele>678.64</ele>
  <time>2026-09-01T19:52:52Z</time>
  <course>86.38</course>
  <speed>24.44917381017199</speed>
  <fix>3d</fix>
</trkpt>
<trkpt lat="-35.363675" lon="149.1512855">
  <ele>678.87</ele>
  <time>2026-09-01T19:52:52Z</time>
  <course>85.94</course>
  <speed>24.51</speed>
  <fix>3d</fix>
</trkpt>
<trkpt lat="-35.3636721" lon="149.1513384">
  <ele>678.55</ele>
  <time>2026-09-01T19:52:52Z</time>
  <course>86.44</course>
  <speed>24.43919802284846</speed>
  <fix>3d</fix>
</trkpt>
<trkpt lat="-35.363675" lon="149.1512855">
  <ele>678.87</ele>
  <time>2026-09-01T19:52:52Z</time>
  <course>85.94</course>
  <speed>24.51</speed>
  <fix>3d</fix>
</trkpt>
<trkpt lat="-35.3636706" lon="149.1513652">
  <ele>678.45</ele>
  <time>2026-09-01T19:52:52Z</time>
  <course>86.45</course>
  <speed>24.428528404306306</speed>
  <fix>3d</fix>
</trkpt>
<trkpt lat="-35.3636719" lon="149.1513393">
  <ele>678.69</ele>
  <time>2026-09-01T19:52:52Z</time>
  <course>85.94</course>
  <speed>24.48</speed>
  <fix>3d</fix>
</trkpt>
<trkpt lat="-35.3636691" lon="149.1513918">
  <ele>678.36</ele>
  <time>2026-09-01T19:52:52Z</time>
  <course>86.42</course>
  <speed>24.408576361598808</speed>
  <fix>3d</fix>
</trkpt>
<trkpt lat="-35.3636719" lon="149.1513393">
  <ele>678.69</ele>
  <time>2026-09-01T19:52:52Z</time>
  <course>85.94</course>
  <speed>24.48</speed>
  <fix>3d</fix>
</trkpt>
<trkpt lat="-35.3636675" lon="149.1514187">
  <ele>678.27</ele>
  <time>2026-09-01T19:52:52Z</time>
  <course>86.41</course>
  <speed>24.388624397452187</speed>
  <fix>3d</fix>
</trkpt>
<trkpt lat="-35.3636687" lon="149.151393">
  <ele>678.52</ele>
  <time>2026-09-01T19:52:52Z</time>
  <course>85.95</course>
  <speed>24.45</speed>
  <fix>3d</fix>
</trkpt>
<trkpt lat="-35.363666" lon="149.1514455">
  <ele>678.18</ele>
  <time>2026-09-01T19:52:52Z</time>
  <course>86.35</course>
  <speed>24.368672512059412</speed>
  <fix>3d</fix>
</trkpt>
<trkpt lat="-35.3636687" lon="149.151393">
  <ele>678.52</ele>
  <time>2026-09-01T19:52:52Z</time>
  <course>85.95</course>
  <speed>24.45</speed>
  <fix>3d</fix>
</trkpt>
<trkpt lat="-35.3636644" lon="149.1514722">
  <ele>678.09</ele>
  <time>2026-09-01T19:52:52Z</time>
  <course>86.34</course>
  <speed>24.358696598956193</speed>
  <fix>3d</fix>
</trkpt>
<trkpt lat="-35.3636656" lon="149.1514468">
  <ele>678.33</ele>
  <time>2026-09-01T19:52:52Z</time>
  <course>85.94</course>
  <speed>24.42</speed>
  <fix>3d</fix>
</trkpt>
<trkpt lat="-35.3636629" lon="149.1514992">
  <ele>677.99</ele>
  <time>2026-09-01T19:52:52Z</time>
  <course>86.4</course>
  <speed>24.338744832057383</speed>
  <fix>3d</fix>
</trkpt>
<trkpt lat="-35.3636656" lon="149.1514468">
  <ele>678.33</ele>
  <time>2026-09-01T19:52:52Z</time>
  <course>85.94</course>
  <speed>24.42</speed>
  <fix>3d</fix>
</trkpt>
<trkpt lat="-35.3636613" lon="149.151526">
  <ele>677.9</ele>
  <time>2026-09-01T19:52:52Z</time>
  <course>86.43</course>
  <speed>24.318793144397606</speed>
  <fix>3d</fix>
</trkpt>
<trkpt lat="-35.3636625" lon="149.1515006">
  <ele>678.15</ele>
  <time>2026-09-01T19:52:52Z</time>
  <course>85.93</course>
  <speed>24.38</speed>
  <fix>3d</fix>
</trkpt>
<trkpt lat="-35.3636598" lon="149.1515529">
  <ele>677.8</ele>
  <time>2026-09-01T19:52:52Z</time>
  <course>86.45</course>
  <speed>24.29884153617205</speed>
  <fix>3d</fix>
</trkpt>
<trkpt lat="-35.3636625" lon="149.1515006">
  <ele>678.15</ele>
  <time>2026-09-01T19:52:52Z</time>
  <course>85.93</course>
  <speed>24.38</speed>
  <fix>3d</fix>
</trkpt>
<trkpt lat="-35.3636582" lon="149.1515797">
  <ele>677.7</ele>
  <time>2026-09-01T19:52:52Z</time>
  <course>86.43</course>
  <speed>24.288865761908273</speed>
  <fix>3d</fix>
</trkpt>
<trkpt lat="-35.3636594" lon="149.1515541">
  <ele>677.96</ele>
  <time>2026-09-01T19:52:52Z</time>
  <course>85.93</course>
  <speed>24.35</speed>
  <fix>3d</fix>
</trkpt>
<trkpt lat="-35.3636567" lon="149.1516064">
  <ele>677.6</ele>
  <time>2026-09-01T19:52:52Z</time>
  <course>86.41</course>
  <speed>24.268914273201425</speed>
  <fix>3d</fix>
</trkpt>
<trkpt lat="-35.3636594" lon="149.1515541">
  <ele>677.96</ele>
  <time>2026-09-01T19:52:52Z</time>
  <course>85.93</course>
  <speed>24.35</speed>
  <fix>3d</fix>
</trkpt>
<trkpt lat="-35.3636551" lon="149.1516331">
  <ele>677.5</ele>
  <time>2026-09-01T19:52:52Z</time>
  <course>86.38</course>
  <speed>24.2482679793836</speed>
  <fix>3d</fix>
</trkpt>
<trkpt lat="-35.3636563" lon="149.1516075">
  <ele>677.77</ele>
  <time>2026-09-01T19:52:52Z</time>
  <course>85.94</course>
  <speed>24.31</speed>
  <fix>3d</fix>
</trkpt>
<trkpt lat="-35.3636536" lon="149.1516597">
  <ele>677.4</ele>
  <time>2026-09-01T19:52:52Z</time>
  <course>86.36</course>
  <speed>24.228316078506158</speed>
  <fix>3d</fix>
</trkpt>
<trkpt lat="-35.3636563" lon="149.1516075">
  <ele>677.77</ele>
  <time>2026-09-01T19:52:52Z</time>
  <course>85.94</course>
  <speed>24.31</speed>
  <fix>3d</fix>
</trkpt>
<trkpt lat="-35.363652" lon="149.1516864">
  <ele>677.3</ele>
  <time>2026-09-01T19:52:52Z</time>
  <course>86.41</course>
  <speed>24.228316078506158</speed>
  <fix>3d</fix>
</trkpt>
<trkpt lat="-35.3636532" lon="149.151661">
  <ele>677.56</ele>
  <time>2026-09-01T19:52:52Z</time>
  <course>85.94</course>
  <speed>24.28</speed>
  <fix>3d</fix>
</trkpt>
<trkpt lat="-35.3636505" lon="149.151713">
  <ele>677.2</ele>
  <time>2026-09-01T19:52:52Z</time>
  <course>86.48</course>
  <speed>24.21834015782254</speed>
  <fix>3d</fix>
</trkpt>
<trkpt lat="-35.3636532" lon="149.151661">
  <ele>677.56</ele>
  <time>2026-09-01T19:52:52Z</time>
  <course>85.94</course>
  <speed>24.28</speed>
  <fix>3d</fix>
</trkpt>
<trkpt lat="-35.3636489" lon="149.1517397">
  <ele>677.09</ele>
  <time>2026-09-01T19:52:52Z</time>
  <course>86.52</course>
  <speed>24.19769617133003</speed>
  <fix>3d</fix>
</trkpt>
<trkpt lat="-35.3636501" lon="149.1517143">
  <ele>677.36</ele>
  <time>2026-09-01T19:52:52Z</time>
  <course>85.94</course>
  <speed>24.26</speed>
  <fix>3d</fix>
</trkpt>
<trkpt lat="-35.3636474" lon="149.1517663">
  <ele>676.99</ele>
  <time>2026-09-01T19:52:52Z</time>
  <course>86.5</course>
  <speed>24.177055238386664</speed>
  <fix>3d</fix>
</trkpt>
<trkpt lat="-35.3636501" lon="149.1517143">
  <ele>677.36</ele>
  <time>2026-09-01T19:52:52Z</time>
  <course>85.94</course>
  <speed>24.26</speed>
  <fix>3d</fix>
</trkpt>
<trkpt lat="-35.3636459" lon="149.1517929">
  <ele>676.89</ele>
  <time>2026-09-01T19:52:52Z</time>
  <course>86.48</course>
  <speed>24.1571024752556</speed>
  <fix>3d</fix>
</trkpt>
<trkpt lat="-35.3636471" lon="149.1517675">
  <ele>677.16</ele>
  <time>2026-09-01T19:52:52Z</time>
  <course>85.97</course>
  <speed>24.23</speed>
  <fix>3d</fix>
</trkpt>
<trkpt lat="-35.3636444" lon="149.1518194">
  <ele>676.78</ele>
  <time>2026-09-01T19:52:52Z</time>
  <course>86.51</course>
  <speed>24.136464115524458</speed>
  <fix>3d</fix>
</trkpt>
<trkpt lat="-35.3636471" lon="149.1517675">
  <ele>677.16</ele>
  <time>2026-09-01T19:52:52Z</time>
  <course>85.97</course>
  <speed>24.23</speed>
  <fix>3d</fix>
</trkpt>
<trkpt lat="-35.3636429" lon="149.151846">
  <ele>676.68</ele>
  <time>2026-09-01T19:52:52Z</time>
  <course>86.52</course>
  <speed>24.116510941676452</speed>
  <fix>3d</fix>
</trkpt>
<trkpt lat="-35.3636441" lon="149.1518207">
  <ele>676.95</ele>
  <time>2026-09-01T19:52:52Z</time>
  <course>85.99</course>
  <speed>24.19</speed>
  <fix>3d</fix>
</trkpt>
<trkpt lat="-35.3636414" lon="149.1518725">
  <ele>676.57</ele>
  <time>2026-09-01T19:52:52Z</time>
  <course>86.49</course>
  <speed>24.09587516567929</speed>
  <fix>3d</fix>
</trkpt>
<trkpt lat="-35.3636441" lon="149.1518207">
  <ele>676.95</ele>
  <time>2026-09-01T19:52:52Z</time>
  <course>85.99</course>
  <speed>24.19</speed>
  <fix>3d</fix>
</trkpt>
<trkpt lat="-35.3636399" lon="149.151899">
  <ele>676.47</ele>
  <time>2026-09-01T19:52:52Z</time>
  <course>86.46</course>
  <speed>24.075921581530373</speed>
  <fix>3d</fix>
</trkpt>
<trkpt lat="-35.363641" lon="149.1518738">
  <ele>676.74</ele>
  <time>2026-09-01T19:52:52Z</time>
  <course>86.0</course>
  <speed>24.15</speed>
  <fix>3d</fix>
</trkpt>
<trkpt lat="-35.3636383" lon="149.1519255">
  <ele>676.36</ele>
  <time>2026-09-01T19:52:52Z</time>
  <course>86.48</course>
  <speed>24.055968074471664</speed>
  <fix>3d</fix>
</trkpt>
<trkpt lat="-35.363641" lon="149.1518738">
  <ele>676.74</ele>
  <time>2026-09-01T19:52:52Z</time>
  <course>86.0</course>
  <speed>24.15</speed>
  <fix>3d</fix>
</trkpt>
<trkpt lat="-35.3636369" lon="149.1519518">
  <ele>676.26</ele>
  <time>2026-09-01T19:52:52Z</time>
  <course>86.52</course>
  <speed>24.04599134991111</speed>
  <fix>3d</fix>
</trkpt>
<trkpt lat="-35.363638" lon="149.1519268">
  <ele>676.53</ele>
  <time>2026-09-01T19:52:52Z</time>
  <course>86.0</course>
  <speed>24.11</speed>
  <fix>3d</fix>
</trkpt>
<trkpt lat="-35.3636354" lon="149.1519782">
  <ele>676.15</ele>
  <time>2026-09-01T19:52:52Z</time>
  <course>86.55</course>
  <speed>24.036014644695157</speed>
  <fix>3d</fix>
</trkpt>
<trkpt lat="-35.363638" lon="149.1519268">
  <ele>676.53</ele>
  <time>2026-09-01T19:52:52Z</time>
  <course>86.0</course>
  <speed>24.11</speed>
  <fix>3d</fix>
</trkpt>
<trkpt lat="-35.3636339" lon="149.1520047">
  <ele>676.04</ele>
  <time>2026-09-01T19:52:52Z</time>
  <course>86.56</course>
  <speed>24.025357437507566</speed>
  <fix>3d</fix>
</trkpt>
<trkpt lat="-35.363635" lon="149.1519798">
  <ele>676.32</ele>
  <time>2026-09-01T19:52:52Z</time>
  <course>86.01</course>
  <speed>24.09</speed>
  <fix>3d</fix>
</trkpt>
<trkpt lat="-35.3636324" lon="149.1520311">
  <ele>675.93</ele>
  <time>2026-09-01T19:52:52Z</time>
  <course>86.52</course>
  <speed>24.015380488345382</speed>
  <fix>3d</fix>
</trkpt>
<trkpt lat="-35.363635" lon="149.1519798">
  <ele>676.32</ele>
  <time>2026-09-01T19:52:52Z</time>
  <course>86.01</course>
  <speed>24.09</speed>
  <fix>3d</fix>
</trkpt>
<trkpt lat="-35.3636309" lon="149.1520577">
  <ele>675.82</ele>
  <time>2026-09-01T19:52:52Z</time>
  <course>86.51</course>
  <speed>23.995426647592662</speed>
  <fix>3d</fix>
</trkpt>
<trkpt lat="-35.3636319" lon="149.1520328">
  <ele>676.1</ele>
  <time>2026-09-01T19:52:52Z</time>
  <course>86.01</course>
  <speed>24.06</speed>
  <fix>3d</fix>
</trkpt>
<trkpt lat="-35.3636293" lon="149.1520842">
  <ele>675.71</ele>
  <time>2026-09-01T19:52:52Z</time>
  <course>86.53</course>
  <speed>23.975472883761853</speed>
  <fix>3d</fix>
</trkpt>
<trkpt lat="-35.3636319" lon="149.1520328">
  <ele>676.1</ele>
  <time>2026-09-01T19:52:52Z</time>
  <course>86.01</course>
  <speed>24.06</speed>
  <fix>3d</fix>
</trkpt>
<trkpt lat="-35.3636278" lon="149.1521105">
  <ele>675.6</ele>
  <time>2026-09-01T19:52:52Z</time>
  <course>86.53</course>
  <speed>23.955519197045177</speed>
  <fix>3d</fix>
</trkpt>
<trkpt lat="-35.363629" lon="149.1520858">
  <ele>675.88</ele>
  <time>2026-09-01T19:52:52Z</time>
  <course>86.01</course>
  <speed>24.02</speed>
  <fix>3d</fix>
</trkpt>
<trkpt lat="-35.3636263" lon="149.1521378">
  <ele>675.49</ele>
  <time>2026-09-01T19:52:52Z</time>
  <course>86.52</course>
  <speed>23.935565587635484</speed>
  <fix>3d</fix>
</trkpt>
<trkpt lat="-35.363629" lon="149.1520858">
  <ele>675.88</ele>
  <time>2026-09-01T19:52:52Z</time>
  <course>86.01</course>
  <speed>24.02</speed>
  <fix>3d</fix>
</trkpt>
<trkpt lat="-35.3636248" lon="149.1521639">
  <ele>675.38</ele>
  <time>2026-09-01T19:52:52Z</time>
  <course>86.51</course>
  <speed>23.9255888119812</speed>
  <fix>3d</fix>
</trkpt>
<trkpt lat="-35.3636259" lon="149.1521385">
  <ele>675.67</ele>
  <time>2026-09-01T19:52:52Z</time>
  <course>86.01</course>
  <speed>23.99</speed>
  <fix>3d</fix>
</trkpt>
<trkpt lat="-35.3636233" lon="149.1521903">
  <ele>675.27</ele>
  <time>2026-09-01T19:52:52Z</time>
  <course>86.56</course>
  <speed>23.905635318894998</speed>
  <fix>3d</fix>
</trkpt>
<trkpt lat="-35.3636259" lon="149.1521385">
  <ele>675.67</ele>
  <time>2026-09-01T19:52:52Z</time>
  <course>86.01</course>
  <speed>23.99</speed>
  <fix>3d</fix>
</trkpt>
<trkpt lat="-35.3636218" lon="149.1522166">
  <ele>675.16</ele>
  <time>2026-09-01T19:52:52Z</time>
  <course>86.54</course>
  <speed>23.885681903600744</speed>
  <fix>3d</fix>
</trkpt>
<trkpt lat="-35.363623" lon="149.1521912">
  <ele>675.45</ele>
  <time>2026-09-01T19:52:52Z</time>
  <course>86.01</course>
  <speed>23.95</speed>
  <fix>3d</fix>
</trkpt>
<trkpt lat="-35.3636203" lon="149.1522429">
  <ele>675.06</ele>
  <time>2026-09-01T19:52:52Z</time>
  <course>86.5</course>
  <speed>23.875705225186543</speed>
  <fix>3d</fix>
</trkpt>
<trkpt lat="-35.363623" lon="149.1521912">
  <ele>675.45</ele>
  <time>2026-09-01T19:52:52Z</time>
  <course>86.01</course>
  <speed>23.95</speed>
  <fix>3d</fix>
</trkpt>
<trkpt lat="-35.3636188" lon="149.1522694">
  <ele>674.94</ele>
  <time>2026-09-01T19:52:52Z</time>
  <course>86.5</course>
  <speed>23.86572856629355</speed>
  <fix>3d</fix>
</trkpt>
<trkpt lat="-35.36362" lon="149.1522438">
  <ele>675.23</ele>
  <time>2026-09-01T19:52:52Z</time>
  <course>86.0</course>
  <speed>23.92</speed>
  <fix>3d</fix>
</trkpt>
<trkpt lat="-35.3636173" lon="149.152295">
  <ele>674.83</ele>
  <time>2026-09-01T19:52:52Z</time>
  <course>86.55</course>
  <speed>23.856437286401338</speed>
  <fix>3d</fix>
</trkpt>
<trkpt lat="-35.36362" lon="149.1522438">
  <ele>675.23</ele>
  <time>2026-09-01T19:52:52Z</time>
  <course>86.0</course>
  <speed>23.92</speed>
  <fix>3d</fix>
</trkpt>
<trkpt lat="-35.3636158" lon="149.1523213">
  <ele>674.72</ele>
  <time>2026-09-01T19:52:52Z</time>
  <course>86.56</course>
  <speed>23.835798706986935</speed>
  <fix>3d</fix>
</trkpt>
<trkpt lat="-35.363617" lon="149.1522963">
  <ele>675.0</ele>
  <time>2026-09-01T19:52:52Z</time>
  <course>85.99</course>
  <speed>23.89</speed>
  <fix>3d</fix>
</trkpt>
<trkpt lat="-35.3636143" lon="149.1523476">
  <ele>674.61</ele>
  <time>2026-09-01T19:52:52Z</time>
  <course>86.53</course>
  <speed>23.815845565505334</speed>
  <fix>3d</fix>
</trkpt>
<trkpt lat="-35.363617" lon="149.1522963">
  <ele>675.0</ele>
  <time>2026-09-01T19:52:52Z</time>
  <course>85.99</course>
  <speed>23.89</speed>
  <fix>3d</fix>
</trkpt>
<trkpt lat="-35.3636128" lon="149.1523737">
  <ele>674.49</ele>
  <time>2026-09-01T19:52:52Z</time>
  <course>86.51</course>
  <speed>23.79657958615061</speed>
  <fix>3d</fix>
</trkpt>
<trkpt lat="-35.363614" lon="149.1523488">
  <ele>674.78</ele>
  <time>2026-09-01T19:52:52Z</time>
  <course>85.97</course>
  <speed>23.85</speed>
  <fix>3d</fix>
</trkpt>
<trkpt lat="-35.3636113" lon="149.1523999">
  <ele>674.38</ele>
  <time>2026-09-01T19:52:52Z</time>
  <course>86.5</course>
  <speed>23.776627178807345</speed>
  <fix>3d</fix>
</trkpt>
<trkpt lat="-35.363614" lon="149.1523488">
  <ele>674.78</ele>
  <time>2026-09-01T19:52:52Z</time>
  <course>85.97</course>
  <speed>23.85</speed>
  <fix>3d</fix>
</trkpt>
<trkpt lat="-35.3636098" lon="149.1524261">
  <ele>674.26</ele>
  <time>2026-09-01T19:52:52Z</time>
  <course>86.52</course>
  <speed>23.75667485150226</speed>
  <fix>3d</fix>
</trkpt>
<trkpt lat="-35.3636109" lon="149.1524011">
  <ele>674.55</ele>
  <time>2026-09-01T19:52:52Z</time>
  <course>85.96</course>
  <speed>23.81</speed>
  <fix>3d</fix>
</trkpt>
<trkpt lat="-35.3636083" lon="149.1524523">
  <ele>674.14</ele>
  <time>2026-09-01T19:52:52Z</time>
  <course>86.54</course>
  <speed>23.73603378831434</speed>
  <fix>3d</fix>
</trkpt>
<trkpt lat="-35.3636109" lon="149.1524011">
  <ele>674.55</ele>
  <time>2026-09-01T19:52:52Z</time>
  <course>85.96</course>
  <speed>23.81</speed>
  <fix>3d</fix>
</trkpt>
<trkpt lat="-35.3636068" lon="149.1524784">
  <ele>674.03</ele>
  <time>2026-09-01T19:52:52Z</time>
  <course>86.52</course>
  <speed>23.72605740530862</speed>
  <fix>3d</fix>
</trkpt>
<trkpt lat="-35.363608" lon="149.1524534">
  <ele>674.32</ele>
  <time>2026-09-01T19:52:52Z</time>
  <course>85.96</course>
  <speed>23.78</speed>
  <fix>3d</fix>
</trkpt>
<trkpt lat="-35.3636053" lon="149.1525043">
  <ele>673.91</ele>
  <time>2026-09-01T19:52:52Z</time>
  <course>86.5</course>
  <speed>23.71608104219582</speed>
  <fix>3d</fix>
</trkpt>
<trkpt lat="-35.363608" lon="149.1524534">
  <ele>674.32</ele>
  <time>2026-09-01T19:52:52Z</time>
  <course>85.96</course>
  <speed>23.78</speed>
  <fix>3d</fix>
</trkpt>
<trkpt lat="-35.3636038" lon="149.1525304">
  <ele>673.8</ele>
  <time>2026-09-01T19:52:52Z</time>
  <course>86.49</course>
  <speed>23.696128375749485</speed>
  <fix>3d</fix>
</trkpt>
<trkpt lat="-35.3636049" lon="149.1525056">
  <ele>674.08</ele>
  <time>2026-09-01T19:52:52Z</time>
  <course>85.96</course>
  <speed>23.74</speed>
  <fix>3d</fix>
</trkpt>
<trkpt lat="-35.3636023" lon="149.1525566">
  <ele>673.68</ele>
  <time>2026-09-01T19:52:52Z</time>
  <course>86.54</course>
  <speed>23.676175789176764</speed>
  <fix>3d</fix>
</trkpt>
<trkpt lat="-35.3636049" lon="149.1525056">
  <ele>674.08</ele>
  <time>2026-09-01T19:52:52Z</time>
  <course>85.96</course>
  <speed>23.74</speed>
  <fix>3d</fix>
</trkpt>
<trkpt lat="-35.3636008" lon="149.1525827">
  <ele>673.56</ele>
  <time>2026-09-01T19:52:52Z</time>
  <course>86.56</course>
  <speed>23.655536349869557</speed>
  <fix>3d</fix>
</trkpt>
<trkpt lat="-35.363602" lon="149.1525578">
  <ele>673.85</ele>
  <time>2026-09-01T19:52:52Z</time>
  <course>85.96</course>
  <speed>23.71</speed>
  <fix>3d</fix>
</trkpt>
<trkpt lat="-35.3635993" lon="149.152609">
  <ele>673.44</ele>
  <time>2026-09-01T19:52:52Z</time>
  <course>86.56</course>
  <speed>23.645559836891152</speed>
  <fix>3d</fix>
</trkpt>
<trkpt lat="-35.363602" lon="149.1525578">
  <ele>673.85</ele>
  <time>2026-09-01T19:52:52Z</time>
  <course>85.96</course>
  <speed>23.71</speed>
  <fix>3d</fix>
</trkpt>
<trkpt lat="-35.3635978" lon="149.152635">
  <ele>673.33</ele>
  <time>2026-09-01T19:52:52Z</time>
  <course>86.6</course>
  <speed>23.625606870512343</speed>
  <fix>3d</fix>
</trkpt>
<trkpt lat="-35.3635989" lon="149.1526099">
  <ele>673.62</ele>
  <time>2026-09-01T19:52:52Z</time>
  <course>85.97</course>
  <speed>23.67</speed>
  <fix>3d</fix>
</trkpt>
<trkpt lat="-35.3635963" lon="149.152661">
  <ele>673.21</ele>
  <time>2026-09-01T19:52:52Z</time>
  <course>86.63</course>
  <speed>23.60496981569771</speed>
  <fix>3d</fix>
</trkpt>
<trkpt lat="-35.3635989" lon="149.1526099">
  <ele>673.62</ele>
  <time>2026-09-01T19:52:52Z</time>
  <course>85.97</course>
  <speed>23.67</speed>
  <fix>3d</fix>
</trkpt>
<trkpt lat="-35.3635948" lon="149.1526879">
  <ele>673.09</ele>
  <time>2026-09-01T19:52:52Z</time>
  <course>86.61</course>
  <speed>23.594993112946653</speed>
  <fix>3d</fix>
</trkpt>
<trkpt lat="-35.363596" lon="149.152662">
  <ele>673.38</ele>
  <time>2026-09-01T19:52:52Z</time>
  <course>85.98</course>
  <speed>23.63</speed>
  <fix>3d</fix>
</trkpt>
<trkpt lat="-35.3635933" lon="149.1527137">
  <ele>672.98</ele>
  <time>2026-09-01T19:52:52Z</time>
  <course>86.6</course>
  <speed>23.585016429928558</speed>
  <fix>3d</fix>
</trkpt>
<trkpt lat="-35.363596" lon="149.152662">
  <ele>673.38</ele>
  <time>2026-09-01T19:52:52Z</time>
  <course>85.98</course>
  <speed>23.63</speed>
  <fix>3d</fix>
</trkpt>
<trkpt lat="-35.3635919" lon="149.1527396">
  <ele>672.86</ele>
  <time>2026-09-01T19:52:52Z</time>
  <course>86.59</course>
  <speed>23.564382020328903</speed>
  <fix>3d</fix>
</trkpt>
<trkpt lat="-35.363593" lon="149.1527138">
  <ele>673.15</ele>
  <time>2026-09-01T19:52:52Z</time>
  <course>86.0</course>
  <speed>23.59</speed>
  <fix>3d</fix>
</trkpt>
<trkpt lat="-35.3635904" lon="149.1527656">
  <ele>672.74</ele>
  <time>2026-09-01T19:52:52Z</time>
  <course>86.57</course>
  <speed>23.544428215609738</speed>
  <fix>3d</fix>
</trkpt>
<trkpt lat="-35.363593" lon="149.1527138">
  <ele>673.15</ele>
  <time>2026-09-01T19:52:52Z</time>
  <course>86.0</course>
  <speed>23.59</speed>
  <fix>3d</fix>
</trkpt>
<trkpt lat="-35.3635889" lon="149.1527915">
  <ele>672.62</ele>
  <time>2026-09-01T19:52:52Z</time>
  <course>86.56</course>
  <speed>23.514497655701685</speed>
  <fix>3d</fix>
</trkpt>
<trkpt lat="-35.36359" lon="149.1527657">
  <ele>672.91</ele>
  <time>2026-09-01T19:52:52Z</time>
  <course>86.01</course>
  <speed>23.55</speed>
  <fix>3d</fix>
</trkpt>
<trkpt lat="-35.3635874" lon="149.1528176">
  <ele>672.5</ele>
  <time>2026-09-01T19:52:52Z</time>
  <course>86.57</course>
  <speed>23.494544047501755</speed>
  <fix>3d</fix>
</trkpt>
<trkpt lat="-35.36359" lon="149.1527657">
  <ele>672.91</ele>
  <time>2026-09-01T19:52:52Z</time>
  <course>86.01</course>
  <speed>23.55</speed>
  <fix>3d</fix>
</trkpt>
<trkpt lat="-35.363586" lon="149.1528435">
  <ele>672.38</ele>
  <time>2026-09-01T19:52:52Z</time>
  <course>86.56</course>
  <speed>23.473911050355454</speed>
  <fix>3d</fix>
</trkpt>
<trkpt lat="-35.3635871" lon="149.1528174">
  <ele>672.68</ele>
  <time>2026-09-01T19:52:52Z</time>
  <course>86.01</course>
  <speed>23.51</speed>
  <fix>3d</fix>
</trkpt>
<trkpt lat="-35.3635845" lon="149.1528693">
  <ele>672.27</ele>
  <time>2026-09-01T19:52:52Z</time>
  <course>86.6</course>
  <speed>23.453957022216954</speed>
  <fix>3d</fix>
</trkpt>
<trkpt lat="-35.3635871" lon="149.1528174">
  <ele>672.68</ele>
  <time>2026-09-01T19:52:52Z</time>
  <course>86.01</course>
  <speed>23.51</speed>
  <fix>3d</fix>
</trkpt>
<trkpt lat="-35.363583" lon="149.1528951">
  <ele>672.15</ele>
  <time>2026-09-01T19:52:52Z</time>
  <course>86.63</course>
  <speed>23.44398003752776</speed>
  <fix>3d</fix>
</trkpt>
<trkpt lat="-35.3635842" lon="149.152869">
  <ele>672.44</ele>
  <time>2026-09-01T19:52:52Z</time>
  <course>86.02</course>
  <speed>23.47</speed>
  <fix>3d</fix>
</trkpt>
<trkpt lat="-35.3635816" lon="149.1529209">
  <ele>672.04</ele>
  <time>2026-09-01T19:52:52Z</time>
  <course>86.57</course>
  <speed>23.424026127034608</speed>
  <fix>3d</fix>
</trkpt>
<trkpt lat="-35.3635842" lon="149.152869">
  <ele>672.44</ele>
  <time>2026-09-01T19:52:52Z</time>
  <course>86.02</course>
  <speed>23.47</speed>
  <fix>3d</fix>
</trkpt>
<trkpt lat="-35.3635801" lon="149.1529467">
  <ele>671.92</ele>
  <time>2026-09-01T19:52:52Z</time>
  <course>86.58</course>
  <speed>23.403395052855043</speed>
  <fix>3d</fix>
</trkpt>
<trkpt lat="-35.3635813" lon="149.1529205">
  <ele>672.21</ele>
  <time>2026-09-01T19:52:52Z</time>
  <course>86.02</course>
  <speed>23.43</speed>
  <fix>3d</fix>
</trkpt>
<trkpt lat="-35.3635786" lon="149.1529724">
  <ele>671.81</ele>
  <time>2026-09-01T19:52:52Z</time>
  <course>86.61</course>
  <speed>23.383440722015226</speed>
  <fix>3d</fix>
</trkpt>
<trkpt lat="-35.3635813" lon="149.1529205">
  <ele>672.21</ele>
  <time>2026-09-01T19:52:52Z</time>
  <course>86.02</course>
  <speed>23.43</speed>
  <fix>3d</fix>
</trkpt>
<trkpt lat="-35.3635772" lon="149.1529981">
  <ele>671.7</ele>
  <time>2026-09-01T19:52:52Z</time>
  <course>86.61</course>
  <speed>23.363486469275085</speed>
  <fix>3d</fix>
</trkpt>
<trkpt lat="-35.3635784" lon="149.1529719">
  <ele>671.98</ele>
  <time>2026-09-01T19:52:52Z</time>
  <course>86.03</course>
  <speed>23.39</speed>
  <fix>3d</fix>
</trkpt>
<trkpt lat="-35.3635758" lon="149.153023">
  <ele>671.59</ele>
  <time>2026-09-01T19:52:52Z</time>
  <course>86.65</course>
  <speed>23.3435322948349</speed>
  <fix>3d</fix>
</trkpt>
<trkpt lat="-35.3635784" lon="149.1529719">
  <ele>671.98</ele>
  <time>2026-09-01T19:52:52Z</time>
  <course>86.03</course>
  <speed>23.39</speed>
  <fix>3d</fix>
</trkpt>
<trkpt lat="-35.3635744" lon="149.1530486">
  <ele>671.48</ele>
  <time>2026-09-01T19:52:52Z</time>
  <course>86.68</course>
  <speed>23.33288023369597</speed>
  <fix>3d</fix>
</trkpt>
<trkpt lat="-35.3635755" lon="149.1530233">
  <ele>671.75</ele>
  <time>2026-09-01T19:52:52Z</time>
  <course>86.04</course>
  <speed>23.35</speed>
  <fix>3d</fix>
</trkpt>
<trkpt lat="-35.3635729" lon="149.1530743">
  <ele>671.37</ele>
  <time>2026-09-01T19:52:52Z</time>
  <course>86.69</course>
  <speed>23.312925599332228</speed>
  <fix>3d</fix>
</trkpt>
<trkpt lat="-35.3635755" lon="149.1530233">
  <ele>671.75</ele>
  <time>2026-09-01T19:52:52Z</time>
  <course>86.04</course>
  <speed>23.35</speed>
  <fix>3d</fix>
</trkpt>
<trkpt lat="-35.3635715" lon="149.1531">
  <ele>671.26</ele>
  <time>2026-09-01T19:52:52Z</time>
  <course>86.7</course>
  <speed>23.292299156588214</speed>
  <fix>3d</fix>
</trkpt>
<trkpt lat="-35.3635726" lon="149.1530747">
  <ele>671.53</ele>
  <time>2026-09-01T19:52:52Z</time>
  <course>86.05</course>
  <speed>23.32</speed>
  <fix>3d</fix>
</trkpt>
<trkpt lat="-35.36357" lon="149.1531256">
  <ele>671.16</ele>
  <time>2026-09-01T19:52:52Z</time>
  <course>86.7</course>
  <speed>23.27167591730342</speed>
  <fix>3d</fix>
</trkpt>
<trkpt lat="-35.3635726" lon="149.1530747">
  <ele>671.53</ele>
  <time>2026-09-01T19:52:52Z</time>
  <course>86.05</course>
  <speed>23.32</speed>
  <fix>3d</fix>
</trkpt>
<trkpt lat="-35.3635686" lon="149.1531515">
  <ele>671.05</ele>
  <time>2026-09-01T19:52:52Z</time>
  <course>86.7</course>
  <speed>23.25172036645891</speed>
  <fix>3d</fix>
</trkpt>
<trkpt lat="-35.3635697" lon="149.1531259">
  <ele>671.31</ele>
  <time>2026-09-01T19:52:52Z</time>
  <course>86.07</course>
  <speed>23.28</speed>
  <fix>3d</fix>
</trkpt>
<trkpt lat="-35.3635672" lon="149.1531769">
  <ele>670.95</ele>
  <time>2026-09-01T19:52:52Z</time>
  <course>86.69</course>
  <speed>23.22178718359119</speed>
  <fix>3d</fix>
</trkpt>
<trkpt lat="-35.3635697" lon="149.1531259">
  <ele>671.31</ele>
  <time>2026-09-01T19:52:52Z</time>
  <course>86.07</course>
  <speed>23.28</speed>
  <fix>3d</fix>
</trkpt>
<trkpt lat="-35.3635658" lon="149.1532024">
  <ele>670.84</ele>
  <time>2026-09-01T19:52:52Z</time>
  <course>86.69</course>
  <speed>23.191187981645097</speed>
  <fix>3d</fix>
</trkpt>
<trkpt lat="-35.3635668" lon="149.1531771">
  <ele>671.1</ele>
  <time>2026-09-01T19:52:52Z</time>
  <course>86.09</course>
  <speed>23.23</speed>
  <fix>3d</fix>
</trkpt>
<trkpt lat="-35.3635643" lon="149.1532286">
  <ele>670.74</ele>
  <time>2026-09-01T19:52:52Z</time>
  <course>86.7</course>
  <speed>23.171232164043413</speed>
  <fix>3d</fix>
</trkpt>
<trkpt lat="-35.3635668" lon="149.1531771">
  <ele>671.1</ele>
  <time>2026-09-01T19:52:52Z</time>
  <course>86.09</course>
  <speed>23.23</speed>
  <fix>3d</fix>
</trkpt>
<trkpt lat="-35.3635629" lon="149.1532537">
  <ele>670.64</ele>
  <time>2026-09-01T19:52:52Z</time>
  <course>86.74</course>
  <speed>23.151276422694277</speed>
  <fix>3d</fix>
</trkpt>
<trkpt lat="-35.363564" lon="149.153228">
  <ele>670.89</ele>
  <time>2026-09-01T19:52:52Z</time>
  <course>86.09</course>
  <speed>23.19</speed>
  <fix>3d</fix>
</trkpt>
<trkpt lat="-35.3635615" lon="149.1532791">
  <ele>670.54</ele>
  <time>2026-09-01T19:52:52Z</time>
  <course>86.74</course>
  <speed>23.121342954076002</speed>
  <fix>3d</fix>
</trkpt>
<trkpt lat="-35.363564" lon="149.153228">
  <ele>670.89</ele>
  <time>2026-09-01T19:52:52Z</time>
  <course>86.09</course>
  <speed>23.19</speed>
  <fix>3d</fix>
</trkpt>
<trkpt lat="-35.3635601" lon="149.1533044">
  <ele>670.44</ele>
  <time>2026-09-01T19:52:52Z</time>
  <course>86.74</course>
  <speed>23.0907448992015</speed>
  <fix>3d</fix>
</trkpt>
<trkpt lat="-35.3635612" lon="149.153279">
  <ele>670.69</ele>
  <time>2026-09-01T19:52:52Z</time>
  <course>86.09</course>
  <speed>23.15</speed>
  <fix>3d</fix>
</trkpt>
<trkpt lat="-35.3635587" lon="149.1533296">
  <ele>670.34</ele>
  <time>2026-09-01T19:52:52Z</time>
  <course>86.76</course>
  <speed>23.06081091375583</speed>
  <fix>3d</fix>
</trkpt>
<trkpt lat="-35.3635612" lon="149.153279">
  <ele>670.69</ele>
  <time>2026-09-01T19:52:52Z</time>
  <course>86.09</course>
  <speed>23.15</speed>
  <fix>3d</fix>
</trkpt>
<trkpt lat="-35.3635573" lon="149.1533551">
  <ele>670.24</ele>
  <time>2026-09-01T19:52:52Z</time>
  <course>86.77</course>
  <speed>23.030877100101943</speed>
  <fix>3d</fix>
</trkpt>
<trkpt lat="-35.3635584" lon="149.1533298">
  <ele>670.49</ele>
  <time>2026-09-01T19:52:52Z</time>
  <course>86.1</course>
  <speed>23.1</speed>
  <fix>3d</fix>
</trkpt>
<trkpt lat="-35.3635559" lon="149.1533803">
  <ele>670.14</ele>
  <time>2026-09-01T19:52:52Z</time>
  <course>86.77</course>
  <speed>23.01025858177174</speed>
  <fix>3d</fix>
</trkpt>
<trkpt lat="-35.3635584" lon="149.1533298">
  <ele>670.49</ele>
  <time>2026-09-01T19:52:52Z</time>
  <course>86.1</course>
  <speed>23.1</speed>
  <fix>3d</fix>
</trkpt>
<trkpt lat="-35.3635545" lon="149.1534055">
  <ele>670.04</ele>
  <time>2026-09-01T19:52:52Z</time>
  <course>86.75</course>
  <speed>23.000280433072984</speed>
  <fix>3d</fix>
</trkpt>
<trkpt lat="-35.3635556" lon="149.1533805">
  <ele>670.29</ele>
  <time>2026-09-01T19:52:52Z</time>
  <course>86.11</course>
  <speed>23.06</speed>
  <fix>3d</fix>
</trkpt>
<trkpt lat="-35.3635531" lon="149.1534308">
  <ele>669.94</ele>
  <time>2026-09-01T19:52:52Z</time>
  <course>86.78</course>
  <speed>22.970346101005966</speed>
  <fix>3d</fix>
</trkpt>
<trkpt lat="-35.3635556" lon="149.1533805">
  <ele>670.29</ele>
  <time>2026-09-01T19:52:52Z</time>
  <course>86.11</course>
  <speed>23.06</speed>
  <fix>3d</fix>
</trkpt>
<trkpt lat="-35.3635517" lon="149.1534559">
  <ele>669.84</ele>
  <time>2026-09-01T19:52:52Z</time>
  <course>86.78</course>
  <speed>22.939751524373584</speed>
  <fix>3d</fix>
</trkpt>
<trkpt lat="-35.3635527" lon="149.1534312">
  <ele>670.08</ele>
  <time>2026-09-01T19:52:52Z</time>
  <course>86.12</course>
  <speed>23.02</speed>
  <fix>3d</fix>
</trkpt>
<trkpt lat="-35.3635503" lon="149.1534811">
  <ele>669.74</ele>
  <time>2026-09-01T19:52:52Z</time>
  <course>86.76</course>
  <speed>22.920455929147657</speed>
  <fix>3d</fix>
</trkpt>
<trkpt lat="-35.3635527" lon="149.1534312">
  <ele>670.08</ele>
  <time>2026-09-01T19:52:52Z</time>
  <course>86.12</course>
  <speed>23.02</speed>
  <fix>3d</fix>
</trkpt>
<trkpt lat="-35.3635489" lon="149.1535063">
  <ele>669.64</ele>
  <time>2026-09-01T19:52:52Z</time>
  <course>86.79</course>
  <speed>22.899838427377603</speed>
  <fix>3d</fix>
</trkpt>
<trkpt lat="-35.36355" lon="149.1534817">
  <ele>669.89</ele>
  <time>2026-09-01T19:52:52Z</time>
  <course>86.12</course>
  <speed>22.98</speed>
  <fix>3d</fix>
</trkpt>
<trkpt lat="-35.3635475" lon="149.1535314">
  <ele>669.54</ele>
  <time>2026-09-01T19:52:52Z</time>
  <course>86.77</course>
  <speed>22.88986020053421</speed>
  <fix>3d</fix>
</trkpt>
<trkpt lat="-35.36355" lon="149.1534817">
  <ele>669.89</ele>
  <time>2026-09-01T19:52:52Z</time>
  <course>86.12</course>
  <speed>22.98</speed>
  <fix>3d</fix>
</trkpt>
<trkpt lat="-35.3635461" lon="149.1535566">
  <ele>669.44</ele>
  <time>2026-09-01T19:52:52Z</time>
  <course>86.74</course>
  <speed>22.85992563417475</speed>
  <fix>3d</fix>
</trkpt>
<trkpt lat="-35.3635472" lon="149.1535321">
  <ele>669.69</ele>
  <time>2026-09-01T19:52:52Z</time>
  <course>86.12</course>
  <speed>22.94</speed>
  <fix>3d</fix>
</trkpt>
<trkpt lat="-35.3635447" lon="149.1535817">
  <ele>669.34</ele>
  <time>2026-09-01T19:52:52Z</time>
  <course>86.75</course>
  <speed>22.83996935199345</speed>
  <fix>3d</fix>
</trkpt>
<trkpt lat="-35.3635472" lon="149.1535321">
  <ele>669.69</ele>
  <time>2026-09-01T19:52:52Z</time>
  <course>86.12</course>
  <speed>22.94</speed>
  <fix>3d</fix>
</trkpt>
<trkpt lat="-35.3635434" lon="149.1536068">
  <ele>669.24</ele>
  <time>2026-09-01T19:52:52Z</time>
  <course>86.77</course>
  <speed>22.820013146359052</speed>
  <fix>3d</fix>
</trkpt>
<trkpt lat="-35.3635443" lon="149.1535826">
  <ele>669.49</ele>
  <time>2026-09-01T19:52:52Z</time>
  <course>86.12</course>
  <speed>22.9</speed>
  <fix>3d</fix>
</trkpt>
<trkpt lat="-35.363542" lon="149.1536319">
  <ele>669.15</ele>
  <time>2026-09-01T19:52:52Z</time>
  <course>86.76</course>
  <speed>22.81069924399513</speed>
  <fix>3d</fix>
</trkpt>
<trkpt lat="-35.3635443" lon="149.1535826">
  <ele>669.49</ele>
  <time>2026-09-01T19:52:52Z</time>
  <course>86.12</course>
  <speed>22.9</speed>
  <fix>3d</fix>
</trkpt>
<trkpt lat="-35.3635406" lon="149.1536569">
  <ele>669.05</ele>
  <time>2026-09-01T19:52:52Z</time>
  <course>86.77</course>
  <speed>22.790743735121943</speed>
  <fix>3d</fix>
</trkpt>
<trkpt lat="-35.3635416" lon="149.153633">
  <ele>669.29</ele>
  <time>2026-09-01T19:52:52Z</time>
  <course>86.11</course>
  <speed>22.87</speed>
  <fix>3d</fix>
</trkpt>
<trkpt lat="-35.3635392" lon="149.153682">
  <ele>668.96</ele>
  <time>2026-09-01T19:52:52Z</time>
  <course>86.8</course>
  <speed>22.770788304316564</speed>
  <fix>3d</fix>
</trkpt>
<trkpt lat="-35.3635416" lon="149.153633">
  <ele>669.29</ele>
  <time>2026-09-01T19:52:52Z</time>
  <course>86.11</course>
  <speed>22.87</speed>
  <fix>3d</fix>
</trkpt>
<trkpt lat="-35.3635378" lon="149.1537064">
  <ele>668.87</ele>
  <time>2026-09-01T19:52:52Z</time>
  <course>86.78</course>
  <speed>22.750832951784425</speed>
  <fix>3d</fix>
</trkpt>
<trkpt lat="-35.3635388" lon="149.1536833">
  <ele>669.1</ele>
  <time>2026-09-01T19:52:52Z</time>
  <course>86.1</course>
  <speed>22.84</speed>
  <fix>3d</fix>
</trkpt>
<trkpt lat="-35.3635364" lon="149.1537323">
  <ele>668.77</ele>
  <time>2026-09-01T19:52:52Z</time>
  <course>86.73</course>
  <speed>22.730877677731673</speed>
  <fix>3d</fix>
</trkpt>
<trkpt lat="-35.3635388" lon="149.1536833">
  <ele>669.1</ele>
  <time>2026-09-01T19:52:52Z</time>
  <course>86.1</course>
  <speed>22.84</speed>
  <fix>3d</fix>
</trkpt>
<trkpt lat="-35.363535" lon="149.1537573">
  <ele>668.68</ele>
  <time>2026-09-01T19:52:52Z</time>
  <course>86.73</course>
  <speed>22.710922482365177</speed>
  <fix>3d</fix>
</trkpt>
<trkpt lat="-35.3635361" lon="149.1537334">
  <ele>668.91</ele>
  <time>2026-09-01T19:52:52Z</time>
  <course>86.09</course>
  <speed>22.8</speed>
  <fix>3d</fix>
</trkpt>
<trkpt lat="-35.3635336" lon="149.1537821">
  <ele>668.58</ele>
  <time>2026-09-01T19:52:52Z</time>
  <course>86.75</course>
  <speed>22.70094491425412</speed>
  <fix>3d</fix>
</trkpt>
<trkpt lat="-35.3635361" lon="149.1537334">
  <ele>668.91</ele>
  <time>2026-09-01T19:52:52Z</time>
  <course>86.09</course>
  <speed>22.8</speed>
  <fix>3d</fix>
</trkpt>
<trkpt lat="-35.3635322" lon="149.1538071">
  <ele>668.49</ele>
  <time>2026-09-01T19:52:52Z</time>
  <course>86.8</course>
  <speed>22.680989837306484</speed>
  <fix>3d</fix>
</trkpt>
<trkpt lat="-35.3635333" lon="149.1537835">
  <ele>668.73</ele>
  <time>2026-09-01T19:52:52Z</time>
  <course>86.08</course>
  <speed>22.76</speed>
  <fix>3d</fix>
</trkpt>
<trkpt lat="-35.3635308" lon="149.1538322">
  <ele>668.4</ele>
  <time>2026-09-01T19:52:52Z</time>
  <course>86.8</course>
  <speed>22.661034839565467</speed>
  <fix>3d</fix>
</trkpt>
<trkpt lat="-35.3635333" lon="149.1537835">
  <ele>668.73</ele>
  <time>2026-09-01T19:52:52Z</time>
  <course>86.08</course>
  <speed>22.76</speed>
  <fix>3d</fix>
</trkpt>
<trkpt lat="-35.3635294" lon="149.1538571">
  <ele>668.31</ele>
  <time>2026-09-01T19:52:52Z</time>
  <course>86.78</course>
  <speed>22.641079921240507</speed>
  <fix>3d</fix>
</trkpt>
<trkpt lat="-35.3635304" lon="149.1538335">
  <ele>668.55</ele>
  <time>2026-09-01T19:52:52Z</time>
  <course>86.07</course>
  <speed>22.72</speed>
  <fix>3d</fix>
</trkpt>
<trkpt lat="-35.363528" lon="149.1538823">
  <ele>668.23</ele>
  <time>2026-09-01T19:52:52Z</time>
  <course>86.78</course>
  <speed>22.631102491924693</speed>
  <fix>3d</fix>
</trkpt>
<trkpt lat="-35.3635304" lon="149.1538335">
  <ele>668.55</ele>
  <time>2026-09-01T19:52:52Z</time>
  <course>86.07</course>
  <speed>22.72</speed>
  <fix>3d</fix>
</trkpt>
<trkpt lat="-35.3635266" lon="149.1539073">
  <ele>668.14</ele>
  <time>2026-09-01T19:52:52Z</time>
  <course>86.8</course>
  <speed>22.6111476931181</speed>
  <fix>3d</fix>
</trkpt>
<trkpt lat="-35.3635277" lon="149.1538833">
  <ele>668.37</ele>
  <time>2026-09-01T19:52:52Z</time>
  <course>86.07</course>
  <speed>22.68</speed>
  <fix>3d</fix>
</trkpt>
<trkpt lat="-35.3635252" lon="149.1539323">
  <ele>668.06</ele>
  <time>2026-09-01T19:52:52Z</time>
  <course>86.8</course>
  <speed>22.60049999446915</speed>
  <fix>3d</fix>
</trkpt>
<trkpt lat="-35.3635277" lon="149.1538833">
  <ele>668.37</ele>
  <time>2026-09-01T19:52:52Z</time>
  <course>86.07</course>
  <speed>22.68</speed>
  <fix>3d</fix>
</trkpt>
<trkpt lat="-35.3635238" lon="149.1539572">
  <ele>667.97</ele>
  <time>2026-09-01T19:52:52Z</time>
  <course>86.79</course>
  <speed>22.57056711737656</speed>
  <fix>3d</fix>
</trkpt>
<trkpt lat="-35.3635249" lon="149.1539331">
  <ele>668.2</ele>
  <time>2026-09-01T19:52:52Z</time>
  <course>86.08</course>
  <speed>22.64</speed>
  <fix>3d</fix>
</trkpt>
<trkpt lat="-35.3635224" lon="149.1539821">
  <ele>667.89</ele>
  <time>2026-09-01T19:52:52Z</time>
  <course>86.76</course>
  <speed>22.550611965088663</speed>
  <fix>3d</fix>
</trkpt>
<trkpt lat="-35.3635249" lon="149.1539331">
  <ele>668.2</ele>
  <time>2026-09-01T19:52:52Z</time>
  <course>86.08</course>
  <speed>22.64</speed>
  <fix>3d</fix>
</trkpt>
<trkpt lat="-35.363521" lon="149.154007">
  <ele>667.81</ele>
  <time>2026-09-01T19:52:52Z</time>
  <course>86.75</course>
  <speed>22.54063441875583</speed>
  <fix>3d</fix>
</trkpt>
<trkpt lat="-35.3635221" lon="149.1539829">
  <ele>668.04</ele>
  <time>2026-09-01T19:52:52Z</time>
  <course>86.08</course>
  <speed>22.6</speed>
  <fix>3d</fix>
</trkpt>
<trkpt lat="-35.3635196" lon="149.1540319">
  <ele>667.74</ele>
  <time>2026-09-01T19:52:52Z</time>
  <course>86.73</course>
  <speed>22.530656892332278</speed>
  <fix>3d</fix>
</trkpt>
<trkpt lat="-35.3635221" lon="149.1539829">
  <ele>668.04</ele>
  <time>2026-09-01T19:52:52Z</time>
  <course>86.08</course>
  <speed>22.6</speed>
  <fix>3d</fix>
</trkpt>
<trkpt lat="-35.3635183" lon="149.1540568">
  <ele>667.66</ele>
  <time>2026-09-01T19:52:52Z</time>
  <course>86.73</course>
  <speed>22.51070189931891</speed>
  <fix>3d</fix>
</trkpt>
<trkpt lat="-35.3635193" lon="149.1540325">
  <ele>667.89</ele>
  <time>2026-09-01T19:52:52Z</time>
  <course>86.08</course>
  <speed>22.56</speed>
  <fix>3d</fix>
</trkpt>
<trkpt lat="-35.3635169" lon="149.1540816">
  <ele>667.59</ele>
  <time>2026-09-01T19:52:52Z</time>
  <course>86.77</course>
  <speed>22.490746986260817</speed>
  <fix>3d</fix>
</trkpt>
<trkpt lat="-35.3635193" lon="149.1540325">
  <ele>667.89</ele>
  <time>2026-09-01T19:52:52Z</time>
  <course>86.08</course>
  <speed>22.56</speed>
  <fix>3d</fix>
</trkpt>
<trkpt lat="-35.3635155" lon="149.1541064">
  <ele>667.52</ele>
  <time>2026-09-01T19:52:52Z</time>
  <course>86.79</course>
  <speed>22.470122385069466</speed>
  <fix>3d</fix>
</trkpt>
<trkpt lat="-35.3635165" lon="149.154082">
  <ele>667.74</ele>
  <time>2026-09-01T19:52:52Z</time>
  <course>86.08</course>
  <speed>22.52</speed>
  <fix>3d</fix>
</trkpt>
<trkpt lat="-35.3635141" lon="149.1541312">
  <ele>667.45</ele>
  <time>2026-09-01T19:52:52Z</time>
  <course>86.79</course>
  <speed>22.46014470122577</speed>
  <fix>3d</fix>
</trkpt>
<trkpt lat="-35.3635165" lon="149.154082">
  <ele>667.74</ele>
  <time>2026-09-01T19:52:52Z</time>
  <course>86.08</course>
  <speed>22.52</speed>
  <fix>3d</fix>
</trkpt>
<trkpt lat="-35.3635127" lon="149.154156">
  <ele>667.38</ele>
  <time>2026-09-01T19:52:52Z</time>
  <course>86.77</course>
  <speed>22.44018939314016</speed>
  <fix>3d</fix>
</trkpt>
<trkpt lat="-35.3635138" lon="149.1541316">
  <ele>667.6</ele>
  <time>2026-09-01T19:52:52Z</time>
  <course>86.08</course>
  <speed>22.48</speed>
  <fix>3d</fix>
</trkpt>
<trkpt lat="-35.3635113" lon="149.1541808">
  <ele>667.31</ele>
  <time>2026-09-01T19:52:52Z</time>
  <course>86.77</course>
  <speed>22.420234164700425</speed>
  <fix>3d</fix>
</trkpt>
<trkpt lat="-35.3635138" lon="149.1541316">
  <ele>667.6</ele>
  <time>2026-09-01T19:52:52Z</time>
  <course>86.08</course>
  <speed>22.48</speed>
  <fix>3d</fix>
</trkpt>
<trkpt lat="-35.36351" lon="149.1542054">
  <ele>667.25</ele>
  <time>2026-09-01T19:52:52Z</time>
  <course>86.8</course>
  <speed>22.399611603775632</speed>
  <fix>3d</fix>
</trkpt>
<trkpt lat="-35.363511" lon="149.154181">
  <ele>667.46</ele>
  <time>2026-09-01T19:52:52Z</time>
  <course>86.08</course>
  <speed>22.44</speed>
  <fix>3d</fix>
</trkpt>
<trkpt lat="-35.3635086" lon="149.1542302">
  <ele>667.18</ele>
  <time>2026-09-01T19:52:52Z</time>
  <course>86.85</course>
  <speed>22.38963376207838</speed>
  <fix>3d</fix>
</trkpt>
<trkpt lat="-35.363511" lon="149.154181">
  <ele>667.46</ele>
  <time>2026-09-01T19:52:52Z</time>
  <course>86.08</course>
  <speed>22.44</speed>
  <fix>3d</fix>
</trkpt>
<trkpt lat="-35.3635072" lon="149.1542548">
  <ele>667.12</ele>
  <time>2026-09-01T19:52:52Z</time>
  <course>86.86</course>
  <speed>22.37899238124898</speed>
  <fix>3d</fix>
</trkpt>
<trkpt lat="-35.3635083" lon="149.1542303">
  <ele>667.34</ele>
  <time>2026-09-01T19:52:52Z</time>
  <course>86.1</course>
  <speed>22.4</speed>
  <fix>3d</fix>
</trkpt>
<trkpt lat="-35.3635058" lon="149.1542795">
  <ele>667.06</ele>
  <time>2026-09-01T19:52:52Z</time>
  <course>86.85</course>
  <speed>22.359036204631003</speed>
  <fix>3d</fix>
</trkpt>
<trkpt lat="-35.3635083" lon="149.1542303">
  <ele>667.34</ele>
  <time>2026-09-01T19:52:52Z</time>
  <course>86.1</course>
  <speed>22.4</speed>
  <fix>3d</fix>
</trkpt>
<trkpt lat="-35.3635045" lon="149.1543041">
  <ele>667.01</ele>
  <time>2026-09-01T19:52:52Z</time>
  <course>86.86</course>
  <speed>22.32844150405487</speed>
  <fix>3d</fix>
</trkpt>
<trkpt lat="-35.3635055" lon="149.1542795">
  <ele>667.22</ele>
  <time>2026-09-01T19:52:52Z</time>
  <course>86.12</course>
  <speed>22.36</speed>
  <fix>3d</fix>
</trkpt>
<trkpt lat="-35.3635031" lon="149.1543288">
  <ele>666.95</ele>
  <time>2026-09-01T19:52:52Z</time>
  <course>86.87</course>
  <speed>22.308484932868033</speed>
  <fix>3d</fix>
</trkpt>
<trkpt lat="-35.3635055" lon="149.1542795">
  <ele>667.22</ele>
  <time>2026-09-01T19:52:52Z</time>
  <course>86.12</course>
  <speed>22.36</speed>
  <fix>3d</fix>
</trkpt>
<trkpt lat="-35.3635018" lon="149.1543533">
  <ele>666.9</ele>
  <time>2026-09-01T19:52:52Z</time>
  <course>86.91</course>
  <speed>22.28787114104889</speed>
  <fix>3d</fix>
</trkpt>
<trkpt lat="-35.3635028" lon="149.1543285">
  <ele>667.1</ele>
  <time>2026-09-01T19:52:52Z</time>
  <course>86.14</course>
  <speed>22.31</speed>
  <fix>3d</fix>
</trkpt>
<trkpt lat="-35.3635004" lon="149.1543779">
  <ele>666.84</ele>
  <time>2026-09-01T19:52:52Z</time>
  <course>86.96</course>
  <speed>22.277892629241215</speed>
  <fix>3d</fix>
</trkpt>
<trkpt lat="-35.3635028" lon="149.1543285">
  <ele>667.1</ele>
  <time>2026-09-01T19:52:52Z</time>
  <course>86.14</course>
  <speed>22.31</speed>
  <fix>3d</fix>
</trkpt>
<trkpt lat="-35.3634991" lon="149.1544026">
  <ele>666.79</ele>
  <time>2026-09-01T19:52:52Z</time>
  <course>86.97</course>
  <speed>22.247303207355266</speed>
  <fix>3d</fix>
</trkpt>
<trkpt lat="-35.3635002" lon="149.1543775">
  <ele>667.0</ele>
  <time>2026-09-01T19:52:52Z</time>
  <course>86.16</course>
  <speed>22.27</speed>
  <fix>3d</fix>
</trkpt>
<trkpt lat="-35.3634977" lon="149.1544271">
  <ele>666.74</ele>
  <time>2026-09-01T19:52:52Z</time>
  <course>86.92</course>
  <speed>22.22734577046931</speed>
  <fix>3d</fix>
</trkpt>
<trkpt lat="-35.3635002" lon="149.1543775">
  <ele>667.0</ele>
  <time>2026-09-01T19:52:52Z</time>
  <course>86.16</course>
  <speed>22.27</speed>
  <fix>3d</fix>
</trkpt>
<trkpt lat="-35.3634964" lon="149.1544515">
  <ele>666.69</ele>
  <time>2026-09-01T19:52:52Z</time>
  <course>86.89</course>
  <speed>22.206737716287822</speed>
  <fix>3d</fix>
</trkpt>
<trkpt lat="-35.3634975" lon="149.1544265">
  <ele>666.9</ele>
  <time>2026-09-01T19:52:52Z</time>
  <course>86.19</course>
  <speed>22.23</speed>
  <fix>3d</fix>
</trkpt>
<trkpt lat="-35.3634951" lon="149.154476">
  <ele>666.65</ele>
  <time>2026-09-01T19:52:52Z</time>
  <course>86.88</course>
  <speed>22.186779847467722</speed>
  <fix>3d</fix>
</trkpt>
<trkpt lat="-35.3634975" lon="149.1544265">
  <ele>666.9</ele>
  <time>2026-09-01T19:52:52Z</time>
  <course>86.19</course>
  <speed>22.23</speed>
  <fix>3d</fix>
</trkpt>
<trkpt lat="-35.3634938" lon="149.1545004">
  <ele>666.6</ele>
  <time>2026-09-01T19:52:52Z</time>
  <course>86.87</course>
  <speed>22.16682205459321</speed>
  <fix>3d</fix>
</trkpt>
<trkpt lat="-35.3634949" lon="149.1544753">
  <ele>666.8</ele>
  <time>2026-09-01T19:52:52Z</time>
  <course>86.19</course>
  <speed>22.18</speed>
  <fix>3d</fix>
</trkpt>
<trkpt lat="-35.3634924" lon="149.1545248">
  <ele>666.55</ele>
  <time>2026-09-01T19:52:52Z</time>
  <course>86.9</course>
  <speed>22.136885508128735</speed>
  <fix>3d</fix>
</trkpt>
<trkpt lat="-35.3634949" lon="149.1544753">
  <ele>666.8</ele>
  <time>2026-09-01T19:52:52Z</time>
  <course>86.19</course>
  <speed>22.18</speed>
  <fix>3d</fix>
</trkpt>
<trkpt lat="-35.3634911" lon="149.1545492">
  <ele>666.5</ele>
  <time>2026-09-01T19:52:52Z</time>
  <course>86.93</course>
  <speed>22.12690669750293</speed>
  <fix>3d</fix>
</trkpt>
<trkpt lat="-35.3634922" lon="149.1545239">
  <ele>666.7</ele>
  <time>2026-09-01T19:52:52Z</time>
  <course>86.19</course>
  <speed>22.14</speed>
  <fix>3d</fix>
</trkpt>
<trkpt lat="-35.3634898" lon="149.1545736">
  <ele>666.45</ele>
  <time>2026-09-01T19:52:52Z</time>
  <course>86.96</course>
  <speed>22.11692790601805</speed>
  <fix>3d</fix>
</trkpt>
<trkpt lat="-35.3634922" lon="149.1545239">
  <ele>666.7</ele>
  <time>2026-09-01T19:52:52Z</time>
  <course>86.19</course>
  <speed>22.14</speed>
  <fix>3d</fix>
</trkpt>
<trkpt lat="-35.3634885" lon="149.1545979">
  <ele>666.41</ele>
  <time>2026-09-01T19:52:52Z</time>
  <course>86.95</course>
  <speed>22.08634193342121</speed>
  <fix>3d</fix>
</trkpt>
<trkpt lat="-35.3634895" lon="149.1545726">
  <ele>666.61</ele>
  <time>2026-09-01T19:52:52Z</time>
  <course>86.19</course>
  <speed>22.1</speed>
  <fix>3d</fix>
</trkpt>
<trkpt lat="-35.3634872" lon="149.1546221">
  <ele>666.36</ele>
  <time>2026-09-01T19:52:52Z</time>
  <course>86.94</course>
  <speed>22.056404965451648</speed>
  <fix>3d</fix>
</trkpt>
<trkpt lat="-35.3634895" lon="149.1545726">
  <ele>666.61</ele>
  <time>2026-09-01T19:52:52Z</time>
  <course>86.19</course>
  <speed>22.1</speed>
  <fix>3d</fix>
</trkpt>
<trkpt lat="-35.3634859" lon="149.1546462">
  <ele>666.31</ele>
  <time>2026-09-01T19:52:52Z</time>
  <course>86.95</course>
  <speed>22.046426014209196</speed>
  <fix>3d</fix>
</trkpt>
<trkpt lat="-35.363487" lon="149.1546211">
  <ele>666.51</ele>
  <time>2026-09-01T19:52:52Z</time>
  <course>86.2</course>
  <speed>22.06</speed>
  <fix>3d</fix>
</trkpt>
<trkpt lat="-35.3634846" lon="149.1546703">
  <ele>666.27</ele>
  <time>2026-09-01T19:52:52Z</time>
  <course>87.0</course>
  <speed>22.016489275086524</speed>
  <fix>3d</fix>
</trkpt>
<trkpt lat="-35.363487" lon="149.1546211">
  <ele>666.51</ele>
  <time>2026-09-01T19:52:52Z</time>
  <course>86.2</course>
  <speed>22.06</speed>
  <fix>3d</fix>
</trkpt>
<trkpt lat="-35.3634833" lon="149.1546944">
  <ele>666.22</ele>
  <time>2026-09-01T19:52:52Z</time>
  <course>87.02</course>
  <speed>21.98590457543196</speed>
  <fix>3d</fix>
</trkpt>
<trkpt lat="-35.3634844" lon="149.1546697">
  <ele>666.42</ele>
  <time>2026-09-01T19:52:52Z</time>
  <course>86.21</course>
  <speed>22.02</speed>
  <fix>3d</fix>
</trkpt>
<trkpt lat="-35.363482" lon="149.1547184">
  <ele>666.18</ele>
  <time>2026-09-01T19:52:52Z</time>
  <course>87.0</course>
  <speed>21.955967298208474</speed>
  <fix>3d</fix>
</trkpt>
<trkpt lat="-35.3634844" lon="149.1546697">
  <ele>666.42</ele>
  <time>2026-09-01T19:52:52Z</time>
  <course>86.21</course>
  <speed>22.02</speed>
  <fix>3d</fix>
</trkpt>
<trkpt lat="-35.3634807" lon="149.1547425">
  <ele>666.13</ele>
  <time>2026-09-01T19:52:52Z</time>
  <course>87.02</course>
  <speed>21.945343469629268</speed>
  <fix>3d</fix>
</trkpt>
<trkpt lat="-35.3634818" lon="149.1547181">
  <ele>666.33</ele>
  <time>2026-09-01T19:52:52Z</time>
  <course>86.22</course>
  <speed>21.98</speed>
  <fix>3d</fix>
</trkpt>
<trkpt lat="-35.3634794" lon="149.1547665">
  <ele>666.09</ele>
  <time>2026-09-01T19:52:52Z</time>
  <course>87.04</course>
  <speed>21.925384831286316</speed>
  <fix>3d</fix>
</trkpt>
<trkpt lat="-35.3634818" lon="149.1547181">
  <ele>666.33</ele>
  <time>2026-09-01T19:52:52Z</time>
  <course>86.22</course>
  <speed>21.98</speed>
  <fix>3d</fix>
</trkpt>
<trkpt lat="-35.3634781" lon="149.1547905">
  <ele>666.05</ele>
  <time>2026-09-01T19:52:52Z</time>
  <course>87.06</course>
  <speed>21.894805319984005</speed>
  <fix>3d</fix>
</trkpt>
<trkpt lat="-35.3634792" lon="149.1547664">
  <ele>666.25</ele>
  <time>2026-09-01T19:52:52Z</time>
  <course>86.23</course>
  <speed>21.94</speed>
  <fix>3d</fix>
</trkpt>
<trkpt lat="-35.3634768" lon="149.1548144">
  <ele>666.0</ele>
  <time>2026-09-01T19:52:52Z</time>
  <course>87.03</course>
  <speed>21.86486679584397</speed>
  <fix>3d</fix>
</trkpt>
<trkpt lat="-35.3634792" lon="149.1547664">
  <ele>666.25</ele>
  <time>2026-09-01T19:52:52Z</time>
  <course>86.23</course>
  <speed>21.94</speed>
  <fix>3d</fix>
</trkpt>
<trkpt lat="-35.3634756" lon="149.1548384">
  <ele>665.96</ele>
  <time>2026-09-01T19:52:52Z</time>
  <course>87.01</course>
  <speed>21.855530192608004</speed>
  <fix>3d</fix>
</trkpt>
<trkpt lat="-35.3634766" lon="149.1548146">
  <ele>666.17</ele>
  <time>2026-09-01T19:52:52Z</time>
  <course>86.23</course>
  <speed>21.9</speed>
  <fix>3d</fix>
</trkpt>
<trkpt lat="-35.3634743" lon="149.1548623">
  <ele>665.92</ele>
  <time>2026-09-01T19:52:52Z</time>
  <course>86.99</course>
  <speed>21.835571895418724</speed>
  <fix>3d</fix>
</trkpt>
<trkpt lat="-35.3634766" lon="149.1548146">
  <ele>666.17</ele>
  <time>2026-09-01T19:52:52Z</time>
  <course>86.23</course>
  <speed>21.9</speed>
  <fix>3d</fix>
</trkpt>
<trkpt lat="-35.363473" lon="149.1548861">
  <ele>665.88</ele>
  <time>2026-09-01T19:52:52Z</time>
  <course>86.98</course>
  <speed>21.81561367461388</speed>
  <fix>3d</fix>
</trkpt>
<trkpt lat="-35.3634739" lon="149.1548627">
  <ele>666.08</ele>
  <time>2026-09-01T19:52:52Z</time>
  <course>86.23</course>
  <speed>21.87</speed>
  <fix>3d</fix>
</trkpt>
<trkpt lat="-35.3634717" lon="149.15491">
  <ele>665.84</ele>
  <time>2026-09-01T19:52:52Z</time>
  <course>87.02</course>
  <speed>21.7956555304033</speed>
  <fix>3d</fix>
</trkpt>
<trkpt lat="-35.3634739" lon="149.1548627">
  <ele>666.08</ele>
  <time>2026-09-01T19:52:52Z</time>
  <course>86.23</course>
  <speed>21.87</speed>
  <fix>3d</fix>
</trkpt>
<trkpt lat="-35.3634704" lon="149.1549339">
  <ele>665.8</ele>
  <time>2026-09-01T19:52:52Z</time>
  <course>87.03</course>
  <speed>21.78503155838889</speed>
  <fix>3d</fix>
</trkpt>
<trkpt lat="-35.3634713" lon="149.1549107">
  <ele>666.01</ele>
  <time>2026-09-01T19:52:52Z</time>
  <course>86.23</course>
  <speed>21.84</speed>
  <fix>3d</fix>
</trkpt>
<trkpt lat="-35.3634691" lon="149.1549578">
  <ele>665.76</ele>
  <time>2026-09-01T19:52:52Z</time>
  <course>87.04</course>
  <speed>21.765072938081325</speed>
  <fix>3d</fix>
</trkpt>
<trkpt lat="-35.3634713" lon="149.1549107">
  <ele>666.01</ele>
  <time>2026-09-01T19:52:52Z</time>
  <course>86.23</course>
  <speed>21.84</speed>
  <fix>3d</fix>
</trkpt>
<trkpt lat="-35.3634678" lon="149.1549817">
  <ele>665.72</ele>
  <time>2026-09-01T19:52:52Z</time>
  <course>87.07</course>
  <speed>21.73513515025844</speed>
  <fix>3d</fix>
</trkpt>
<trkpt lat="-35.3634688" lon="149.1549587">
  <ele>665.93</ele>
  <time>2026-09-01T19:52:52Z</time>
  <course>86.23</course>
  <speed>21.81</speed>
  <fix>3d</fix>
</trkpt>
<trkpt lat="-35.3634665" lon="149.1550058">
  <ele>665.68</ele>
  <time>2026-09-01T19:52:52Z</time>
  <course>87.05</course>
  <speed>21.724513803535398</speed>
  <fix>3d</fix>
</trkpt>
<trkpt lat="-35.3634688" lon="149.1549587">
  <ele>665.93</ele>
  <time>2026-09-01T19:52:52Z</time>
  <course>86.23</course>
  <speed>21.81</speed>
  <fix>3d</fix>
</trkpt>
<trkpt lat="-35.3634653" lon="149.1550297">
  <ele>665.64</ele>
  <time>2026-09-01T19:52:52Z</time>
  <course>87.0</course>
  <speed>21.704554821511543</speed>
  <fix>3d</fix>
</trkpt>
<trkpt lat="-35.3634663" lon="149.1550066">
  <ele>665.86</ele>
  <time>2026-09-01T19:52:52Z</time>
  <course>86.24</course>
  <speed>21.77</speed>
  <fix>3d</fix>
</trkpt>
<trkpt lat="-35.363464" lon="149.1550535">
  <ele>665.6</ele>
  <time>2026-09-01T19:52:52Z</time>
  <course>86.98</course>
  <speed>21.684595915072986</speed>
  <fix>3d</fix>
</trkpt>
<trkpt lat="-35.3634663" lon="149.1550066">
  <ele>665.86</ele>
  <time>2026-09-01T19:52:52Z</time>
  <course>86.24</course>
  <speed>21.77</speed>
  <fix>3d</fix>
</trkpt>
<trkpt lat="-35.3634627" lon="149.1550775">
  <ele>665.57</ele>
  <time>2026-09-01T19:52:52Z</time>
  <course>86.98</course>
  <speed>21.665280981330476</speed>
  <fix>3d</fix>
</trkpt>
<trkpt lat="-35.3634636" lon="149.1550544">
  <ele>665.79</ele>
  <time>2026-09-01T19:52:52Z</time>
  <course>86.24</course>
  <speed>21.74</speed>
  <fix>3d</fix>
</trkpt>
<trkpt lat="-35.3634614" lon="149.1551014">
  <ele>665.54</ele>
  <time>2026-09-01T19:52:52Z</time>
  <course>87.01</course>
  <speed>21.6453228204155</speed>
  <fix>3d</fix>
</trkpt>
<trkpt lat="-35.3634636" lon="149.1550544">
  <ele>665.79</ele>
  <time>2026-09-01T19:52:52Z</time>
  <course>86.24</course>
  <speed>21.74</speed>
  <fix>3d</fix>
</trkpt>
<trkpt lat="-35.3634601" lon="149.1551252">
  <ele>665.51</ele>
  <time>2026-09-01T19:52:52Z</time>
  <course>87.03</course>
  <speed>21.624719651361957</speed>
  <fix>3d</fix>
</trkpt>
<trkpt lat="-35.3634611" lon="149.1551021">
  <ele>665.73</ele>
  <time>2026-09-01T19:52:52Z</time>
  <course>86.23</course>
  <speed>21.7</speed>
  <fix>3d</fix>
</trkpt>
<trkpt lat="-35.3634589" lon="149.155149">
  <ele>665.49</ele>
  <time>2026-09-01T19:52:52Z</time>
  <course>87.05</course>
  <speed>21.594781777086794</speed>
  <fix>3d</fix>
</trkpt>
<trkpt lat="-35.3634611" lon="149.1551021">
  <ele>665.73</ele>
  <time>2026-09-01T19:52:52Z</time>
  <course>86.23</course>
  <speed>21.7</speed>
  <fix>3d</fix>
</trkpt>
<trkpt lat="-35.3634576" lon="149.1551727">
  <ele>665.46</ele>
  <time>2026-09-01T19:52:52Z</time>
  <course>87.05</course>
  <speed>21.584802523998224</speed>
  <fix>3d</fix>
</trkpt>
<trkpt lat="-35.3634586" lon="149.1551499">
  <ele>665.67</ele>
  <time>2026-09-01T19:52:52Z</time>
  <course>86.23</course>
  <speed>21.66</speed>
  <fix>3d</fix>
</trkpt>
<trkpt lat="-35.3634563" lon="149.1551965">
  <ele>665.43</ele>
  <time>2026-09-01T19:52:52Z</time>
  <course>87.02</course>
  <speed>21.564844075485453</speed>
  <fix>3d</fix>
</trkpt>
<trkpt lat="-35.3634586" lon="149.1551499">
  <ele>665.67</ele>
  <time>2026-09-01T19:52:52Z</time>
  <course>86.23</course>
  <speed>21.66</speed>
  <fix>3d</fix>
</trkpt>
<trkpt lat="-35.363455" lon="149.1552203">
  <ele>665.4</ele>
  <time>2026-09-01T19:52:52Z</time>
  <course>87.03</course>
  <speed>21.544885704036584</speed>
  <fix>3d</fix>
</trkpt>
<trkpt lat="-35.363456" lon="149.1551976">
  <ele>665.61</ele>
  <time>2026-09-01T19:52:52Z</time>
  <course>86.23</course>
  <speed>21.62</speed>
  <fix>3d</fix>
</trkpt>
<trkpt lat="-35.3634537" lon="149.155244">
  <ele>665.37</ele>
  <time>2026-09-01T19:52:52Z</time>
  <course>87.01</course>
  <speed>21.534906547278073</speed>
  <fix>3d</fix>
</trkpt>
<trkpt lat="-35.363456" lon="149.1551976">
  <ele>665.61</ele>
  <time>2026-09-01T19:52:52Z</time>
  <course>86.23</course>
  <speed>21.62</speed>
  <fix>3d</fix>
</trkpt>
<trkpt lat="-35.3634525" lon="149.1552678">
  <ele>665.34</ele>
  <time>2026-09-01T19:52:52Z</time>
  <course>87.03</course>
  <speed>21.524927409865985</speed>
  <fix>3d</fix>
</trkpt>
<trkpt lat="-35.3634535" lon="149.1552451">
  <ele>665.55</ele>
  <time>2026-09-01T19:52:52Z</time>
  <course>86.22</course>
  <speed>21.59</speed>
  <fix>3d</fix>
</trkpt>
<trkpt lat="-35.3634512" lon="149.1552915">
  <ele>665.31</ele>
  <time>2026-09-01T19:52:52Z</time>
  <course>87.0</course>
  <speed>21.504969193188817</speed>
  <fix>3d</fix>
</trkpt>
<trkpt lat="-35.3634535" lon="149.1552451">
  <ele>665.55</ele>
  <time>2026-09-01T19:52:52Z</time>
  <course>86.22</course>
  <speed>21.59</speed>
  <fix>3d</fix>
</trkpt>
<trkpt lat="-35.3634499" lon="149.1553152">
  <ele>665.28</ele>
  <time>2026-09-01T19:52:52Z</time>
  <course>87.0</course>
  <speed>21.485011054221033</speed>
  <fix>3d</fix>
</trkpt>
<trkpt lat="-35.3634509" lon="149.1552924">
  <ele>665.48</ele>
  <time>2026-09-01T19:52:52Z</time>
  <course>86.22</course>
  <speed>21.55</speed>
  <fix>3d</fix>
</trkpt>
<trkpt lat="-35.3634486" lon="149.1553389">
  <ele>665.25</ele>
  <time>2026-09-01T19:52:52Z</time>
  <course>86.99</course>
  <speed>21.465052993179402</speed>
  <fix>3d</fix>
</trkpt>
<trkpt lat="-35.3634509" lon="149.1552924">
  <ele>665.48</ele>
  <time>2026-09-01T19:52:52Z</time>
  <course>86.22</course>
  <speed>21.55</speed>
  <fix>3d</fix>
</trkpt>
<trkpt lat="-35.3634474" lon="149.1553625">
  <ele>665.22</ele>
  <time>2026-09-01T19:52:52Z</time>
  <course>87.0</course>
  <speed>21.45507399194885</speed>
  <fix>3d</fix>
</trkpt>
<trkpt lat="-35.3634483" lon="149.1553398">
  <ele>665.42</ele>
  <time>2026-09-01T19:52:52Z</time>
  <course>86.21</course>
  <speed>21.51</speed>
  <fix>3d</fix>
</trkpt>
<trkpt lat="-35.3634461" lon="149.155386">
  <ele>665.18</ele>
  <time>2026-09-01T19:52:52Z</time>
  <course>86.98</course>
  <speed>21.435116048204637</speed>
  <fix>3d</fix>
</trkpt>
<trkpt lat="-35.3634483" lon="149.1553398">
  <ele>665.42</ele>
  <time>2026-09-01T19:52:52Z</time>
  <course>86.21</course>
  <speed>21.51</speed>
  <fix>3d</fix>
</trkpt>
<trkpt lat="-35.3634448" lon="149.1554096">
  <ele>665.15</ele>
  <time>2026-09-01T19:52:52Z</time>
  <course>86.94</course>
  <speed>21.42578820020398</speed>
  <fix>3d</fix>
</trkpt>
<trkpt lat="-35.3634458" lon="149.155387">
  <ele>665.35</ele>
  <time>2026-09-01T19:52:52Z</time>
  <course>86.19</course>
  <speed>21.48</speed>
  <fix>3d</fix>
</trkpt>
<trkpt lat="-35.3634435" lon="149.1554333">
  <ele>665.12</ele>
  <time>2026-09-01T19:52:52Z</time>
  <course>86.95</course>
  <speed>21.415809580774667</speed>
  <fix>3d</fix>
</trkpt>
<trkpt lat="-35.3634458" lon="149.155387">
  <ele>665.35</ele>
  <time>2026-09-01T19:52:52Z</time>
  <course>86.19</course>
  <speed>21.48</speed>
  <fix>3d</fix>
</trkpt>
<trkpt lat="-35.3634422" lon="149.1554569">
  <ele>665.09</ele>
  <time>2026-09-01T19:52:52Z</time>
  <course>86.96</course>
  <speed>21.395852401809094</speed>
  <fix>3d</fix>
</trkpt>
<trkpt lat="-35.3634433" lon="149.1554342">
  <ele>665.28</ele>
  <time>2026-09-01T19:52:52Z</time>
  <course>86.17</course>
  <speed>21.45</speed>
  <fix>3d</fix>
</trkpt>
<trkpt lat="-35.3634409" lon="149.1554807">
  <ele>665.06</ele>
  <time>2026-09-01T19:52:52Z</time>
  <course>86.96</course>
  <speed>21.386530807964153</speed>
  <fix>3d</fix>
</trkpt>
<trkpt lat="-35.3634433" lon="149.1554342">
  <ele>665.28</ele>
  <time>2026-09-01T19:52:52Z</time>
  <course>86.17</course>
  <speed>21.45</speed>
  <fix>3d</fix>
</trkpt>
<trkpt lat="-35.3634396" lon="149.1555042">
  <ele>665.03</ele>
  <time>2026-09-01T19:52:52Z</time>
  <course>86.99</course>
  <speed>21.376552575193223</speed>
  <fix>3d</fix>
</trkpt>
<trkpt lat="-35.3634407" lon="149.1554813">
  <ele>665.22</ele>
  <time>2026-09-01T19:52:52Z</time>
  <course>86.16</course>
  <speed>21.42</speed>
  <fix>3d</fix>
</trkpt>
<trkpt lat="-35.3634384" lon="149.1555278">
  <ele>665.0</ele>
  <time>2026-09-01T19:52:52Z</time>
  <course>87.03</course>
  <speed>21.356596170738445</speed>
  <fix>3d</fix>
</trkpt>
<trkpt lat="-35.3634407" lon="149.1554813">
  <ele>665.22</ele>
  <time>2026-09-01T19:52:52Z</time>
  <course>86.16</course>
  <speed>21.42</speed>
  <fix>3d</fix>
</trkpt>
<trkpt lat="-35.3634371" lon="149.1555513">
  <ele>664.96</ele>
  <time>2026-09-01T19:52:52Z</time>
  <course>87.02</course>
  <speed>21.335981346073584</speed>
  <fix>3d</fix>
</trkpt>
<trkpt lat="-35.3634381" lon="149.1555283">
  <ele>665.16</ele>
  <time>2026-09-01T19:52:52Z</time>
  <course>86.15</course>
  <speed>21.39</speed>
  <fix>3d</fix>
</trkpt>
<trkpt lat="-35.3634358" lon="149.1555748">
  <ele>664.93</ele>
  <time>2026-09-01T19:52:52Z</time>
  <course>87.0</course>
  <speed>21.326002907249165</speed>
  <fix>3d</fix>
</trkpt>
<trkpt lat="-35.3634381" lon="149.1555283">
  <ele>665.16</ele>
  <time>2026-09-01T19:52:52Z</time>
  <course>86.15</course>
  <speed>21.39</speed>
  <fix>3d</fix>
</trkpt>
<trkpt lat="-35.3634345" lon="149.1555982">
  <ele>664.9</ele>
  <time>2026-09-01T19:52:52Z</time>
  <course>87.0</course>
  <speed>21.30604609025335</speed>
  <fix>3d</fix>
</trkpt>
<trkpt lat="-35.3634356" lon="149.1555753">
  <ele>665.09</ele>
  <time>2026-09-01T19:52:52Z</time>
  <course>86.16</course>
  <speed>21.35</speed>
  <fix>3d</fix>
</trkpt>
<trkpt lat="-35.3634332" lon="149.1556217">
  <ele>664.87</ele>
  <time>2026-09-01T19:52:52Z</time>
  <course>86.97</course>
  <speed>21.296067712138782</speed>
  <fix>3d</fix>
</trkpt>
<trkpt lat="-35.3634356" lon="149.1555753">
  <ele>665.09</ele>
  <time>2026-09-01T19:52:52Z</time>
  <course>86.16</course>
  <speed>21.35</speed>
  <fix>3d</fix>
</trkpt>
<trkpt lat="-35.3634319" lon="149.1556451">
  <ele>664.83</ele>
  <time>2026-09-01T19:52:52Z</time>
  <course>86.97</course>
  <speed>21.27611101681884</speed>
  <fix>3d</fix>
</trkpt>
<trkpt lat="-35.363433" lon="149.1556222">
  <ele>665.03</ele>
  <time>2026-09-01T19:52:52Z</time>
  <course>86.16</course>
  <speed>21.32</speed>
  <fix>3d</fix>
</trkpt>
<trkpt lat="-35.3634307" lon="149.1556686">
  <ele>664.8</ele>
  <time>2026-09-01T19:52:52Z</time>
  <course>87.0</course>
  <speed>21.26613269967062</speed>
  <fix>3d</fix>
</trkpt>
<trkpt lat="-35.363433" lon="149.1556222">
  <ele>665.03</ele>
  <time>2026-09-01T19:52:52Z</time>
  <course>86.16</course>
  <speed>21.32</speed>
  <fix>3d</fix>
</trkpt>
<trkpt lat="-35.3634294" lon="149.155692">
  <ele>664.76</ele>
  <time>2026-09-01T19:52:52Z</time>
  <course>86.99</course>
  <speed>21.245519527655706</speed>
  <fix>3d</fix>
</trkpt>
<trkpt lat="-35.3634304" lon="149.1556691">
  <ele>664.96</ele>
  <time>2026-09-01T19:52:52Z</time>
  <course>86.16</course>
  <speed>21.29</speed>
  <fix>3d</fix>
</trkpt>
<trkpt lat="-35.3634281" lon="149.1557154">
  <ele>664.73</ele>
  <time>2026-09-01T19:52:52Z</time>
  <course>86.98</course>
  <speed>21.235540963206</speed>
  <fix>3d</fix>
</trkpt>
<trkpt lat="-35.3634304" lon="149.1556691">
  <ele>664.96</ele>
  <time>2026-09-01T19:52:52Z</time>
  <course>86.16</course>
  <speed>21.29</speed>
  <fix>3d</fix>
</trkpt>
<trkpt lat="-35.3634268" lon="149.1557389">
  <ele>664.69</ele>
  <time>2026-09-01T19:52:52Z</time>
  <course>86.97</course>
  <speed>21.2155838948637</speed>
  <fix>3d</fix>
</trkpt>
<trkpt lat="-35.3634279" lon="149.155716">
  <ele>664.89</ele>
  <time>2026-09-01T19:52:52Z</time>
  <course>86.17</course>
  <speed>21.26</speed>
  <fix>3d</fix>
</trkpt>
<trkpt lat="-35.3634256" lon="149.1557623">
  <ele>664.66</ele>
  <time>2026-09-01T19:52:52Z</time>
  <course>86.97</course>
  <speed>21.19497346070525</speed>
  <fix>3d</fix>
</trkpt>
<trkpt lat="-35.3634279" lon="149.155716">
  <ele>664.89</ele>
  <time>2026-09-01T19:52:52Z</time>
  <course>86.17</course>
  <speed>21.26</speed>
  <fix>3d</fix>
</trkpt>
<trkpt lat="-35.3634243" lon="149.1557856">
  <ele>664.63</ele>
  <time>2026-09-01T19:52:52Z</time>
  <course>86.97</course>
  <speed>21.18499468963823</speed>
  <fix>3d</fix>
</trkpt>
<trkpt lat="-35.3634253" lon="149.1557627">
  <ele>664.82</ele>
  <time>2026-09-01T19:52:52Z</time>
  <course>86.18</course>
  <speed>21.23</speed>
  <fix>3d</fix>
</trkpt>
<trkpt lat="-35.363423" lon="149.155809">
  <ele>664.6</ele>
  <time>2026-09-01T19:52:53Z</time>
  <course>86.96</course>
  <speed>21.17501593860085</speed>
  <fix>3d</fix>
</trkpt>
<trkpt lat="-35.3634253" lon="149.1557627">
  <ele>664.82</ele>
  <time>2026-09-01T19:52:53Z</time>
  <course>86.18</course>
  <speed>21.23</speed>
  <fix>3d</fix>
</trkpt>
<trkpt lat="-35.3634218" lon="149.1558323">
  <ele>664.57</ele>
  <time>2026-09-01T19:52:53Z</time>
  <course>86.95</course>
  <speed>21.154408523993293</speed>
  <fix>3d</fix>
</trkpt>
<trkpt lat="-35.3634227" lon="149.1558094">
  <ele>664.76</ele>
  <time>2026-09-01T19:52:53Z</time>
  <course>86.18</course>
  <speed>21.2</speed>
  <fix>3d</fix>
</trkpt>
<trkpt lat="-35.3634205" lon="149.1558557">
  <ele>664.53</ele>
  <time>2026-09-01T19:52:53Z</time>
  <course>86.97</course>
  <speed>21.144429526473395</speed>
  <fix>3d</fix>
</trkpt>
<trkpt lat="-35.3634227" lon="149.1558094">
  <ele>664.76</ele>
  <time>2026-09-01T19:52:53Z</time>
  <course>86.18</course>
  <speed>21.2</speed>
  <fix>3d</fix>
</trkpt>
<trkpt lat="-35.3634192" lon="149.1558789">
  <ele>664.5</ele>
  <time>2026-09-01T19:52:53Z</time>
  <course>86.97</course>
  <speed>21.134450548807745</speed>
  <fix>3d</fix>
</trkpt>
<trkpt lat="-35.3634202" lon="149.1558559">
  <ele>664.69</ele>
  <time>2026-09-01T19:52:53Z</time>
  <course>86.19</course>
  <speed>21.17</speed>
  <fix>3d</fix>
</trkpt>
<trkpt lat="-35.363418" lon="149.1559022">
  <ele>664.47</ele>
  <time>2026-09-01T19:52:53Z</time>
  <course>86.96</course>
  <speed>21.11449265315177</speed>
  <fix>3d</fix>
</trkpt>
<trkpt lat="-35.3634202" lon="149.1558559">
  <ele>664.69</ele>
  <time>2026-09-01T19:52:53Z</time>
  <course>86.19</course>
  <speed>21.17</speed>
  <fix>3d</fix>
</trkpt>
<trkpt lat="-35.3634167" lon="149.1559255">
  <ele>664.44</ele>
  <time>2026-09-01T19:52:53Z</time>
  <course>86.96</course>
  <speed>21.105165244555657</speed>
  <fix>3d</fix>
</trkpt>
<trkpt lat="-35.3634177" lon="149.1559024">
  <ele>664.64</ele>
  <time>2026-09-01T19:52:53Z</time>
  <course>86.18</course>
  <speed>21.13</speed>
  <fix>3d</fix>
</trkpt>
<trkpt lat="-35.3634154" lon="149.1559488">
  <ele>664.42</ele>
  <time>2026-09-01T19:52:53Z</time>
  <course>86.94</course>
  <speed>21.095186654779805</speed>
  <fix>3d</fix>
</trkpt>
<trkpt lat="-35.3634177" lon="149.1559024">
  <ele>664.64</ele>
  <time>2026-09-01T19:52:53Z</time>
  <course>86.18</course>
  <speed>21.13</speed>
  <fix>3d</fix>
</trkpt>
<trkpt lat="-35.3634142" lon="149.1559723">
  <ele>664.39</ele>
  <time>2026-09-01T19:52:53Z</time>
  <course>86.92</course>
  <speed>21.075229536116563</speed>
  <fix>3d</fix>
</trkpt>
<trkpt lat="-35.3634152" lon="149.1559488">
  <ele>664.57</ele>
  <time>2026-09-01T19:52:53Z</time>
  <course>86.16</course>
  <speed>21.1</speed>
  <fix>3d</fix>
</trkpt>
<trkpt lat="-35.3634129" lon="149.1559955">
  <ele>664.36</ele>
  <time>2026-09-01T19:52:53Z</time>
  <course>86.9</course>
  <speed>21.05593028103959</speed>
  <fix>3d</fix>
</trkpt>
<trkpt lat="-35.3634152" lon="149.1559488">
  <ele>664.57</ele>
  <time>2026-09-01T19:52:53Z</time>
  <course>86.16</course>
  <speed>21.1</speed>
  <fix>3d</fix>
</trkpt>
<trkpt lat="-35.3634116" lon="149.1560188">
  <ele>664.33</ele>
  <time>2026-09-01T19:52:53Z</time>
  <course>86.92</course>
  <speed>21.045952104858547</speed>
  <fix>3d</fix>
</trkpt>
<trkpt lat="-35.3634127" lon="149.1559951">
  <ele>664.52</ele>
  <time>2026-09-01T19:52:53Z</time>
  <course>86.15</course>
  <speed>21.06</speed>
  <fix>3d</fix>
</trkpt>
<trkpt lat="-35.3634103" lon="149.156042">
  <ele>664.31</ele>
  <time>2026-09-01T19:52:53Z</time>
  <course>86.94</course>
  <speed>21.03597394940391</speed>
  <fix>3d</fix>
</trkpt>
<trkpt lat="-35.3634127" lon="149.1559951">
  <ele>664.52</ele>
  <time>2026-09-01T19:52:53Z</time>
  <course>86.15</course>
  <speed>21.06</speed>
  <fix>3d</fix>
</trkpt>
<trkpt lat="-35.3634091" lon="149.1560652">
  <ele>664.28</ele>
  <time>2026-09-01T19:52:53Z</time>
  <course>86.95</course>
  <speed>21.015358669316115</speed>
  <fix>3d</fix>
</trkpt>
<trkpt lat="-35.3634101" lon="149.1560414">
  <ele>664.46</ele>
  <time>2026-09-01T19:52:53Z</time>
  <course>86.14</course>
  <speed>21.02</speed>
  <fix>3d</fix>
</trkpt>
<trkpt lat="-35.3634078" lon="149.1560883">
  <ele>664.25</ele>
  <time>2026-09-01T19:52:53Z</time>
  <course>86.97</course>
  <speed>21.00538026316115</speed>
  <fix>3d</fix>
</trkpt>
<trkpt lat="-35.3634101" lon="149.1560414">
  <ele>664.46</ele>
  <time>2026-09-01T19:52:53Z</time>
  <course>86.14</course>
  <speed>21.02</speed>
  <fix>3d</fix>
</trkpt>
<trkpt lat="-35.3634065" lon="149.1561115">
  <ele>664.22</ele>
  <time>2026-09-01T19:52:53Z</time>
  <course>86.98</course>
  <speed>20.985423512524118</speed>
  <fix>3d</fix>
</trkpt>
<trkpt lat="-35.3634076" lon="149.1560875">
  <ele>664.41</ele>
  <time>2026-09-01T19:52:53Z</time>
  <course>86.15</course>
  <speed>20.99</speed>
  <fix>3d</fix>
</trkpt>
<trkpt lat="-35.3634053" lon="149.1561346">
  <ele>664.19</ele>
  <time>2026-09-01T19:52:53Z</time>
  <course>86.95</course>
  <speed>20.96481099366269</speed>
  <fix>3d</fix>
</trkpt>
<trkpt lat="-35.3634076" lon="149.1560875">
  <ele>664.41</ele>
  <time>2026-09-01T19:52:53Z</time>
  <course>86.15</course>
  <speed>20.99</speed>
  <fix>3d</fix>
</trkpt>
<trkpt lat="-35.363404" lon="149.1561577">
  <ele>664.17</ele>
  <time>2026-09-01T19:52:53Z</time>
  <course>86.94</course>
  <speed>20.95483237823677</speed>
  <fix>3d</fix>
</trkpt>
<trkpt lat="-35.363405" lon="149.1561338">
  <ele>664.35</ele>
  <time>2026-09-01T19:52:53Z</time>
  <course>86.16</course>
  <speed>20.96</speed>
  <fix>3d</fix>
</trkpt>
<trkpt lat="-35.3634027" lon="149.1561808">
  <ele>664.14</ele>
  <time>2026-09-01T19:52:53Z</time>
  <course>86.93</course>
  <speed>20.944853783208895</speed>
  <fix>3d</fix>
</trkpt>
<trkpt lat="-35.363405" lon="149.1561338">
  <ele>664.35</ele>
  <time>2026-09-01T19:52:53Z</time>
  <course>86.16</course>
  <speed>20.96</speed>
  <fix>3d</fix>
</trkpt>
<trkpt lat="-35.3634015" lon="149.1562038">
  <ele>664.1</ele>
  <time>2026-09-01T19:52:53Z</time>
  <course>86.95</course>
  <speed>20.924896654464032</speed>
  <fix>3d</fix>
</trkpt>
<trkpt lat="-35.3634025" lon="149.1561798">
  <ele>664.28</ele>
  <time>2026-09-01T19:52:53Z</time>
  <course>86.16</course>
  <speed>20.93</speed>
  <fix>3d</fix>
</trkpt>
<trkpt lat="-35.3634002" lon="149.1562269">
  <ele>664.07</ele>
  <time>2026-09-01T19:52:53Z</time>
  <course>86.98</course>
  <speed>20.91491812080554</speed>
  <fix>3d</fix>
</trkpt>
<trkpt lat="-35.3634025" lon="149.1561798">
  <ele>664.28</ele>
  <time>2026-09-01T19:52:53Z</time>
  <course>86.16</course>
  <speed>20.93</speed>
  <fix>3d</fix>
</trkpt>
<trkpt lat="-35.3633989" lon="149.1562499">
  <ele>664.03</ele>
  <time>2026-09-01T19:52:53Z</time>
  <course>86.97</course>
  <speed>20.894961115063126</speed>
  <fix>3d</fix>
</trkpt>
<trkpt lat="-35.3634" lon="149.1562258">
  <ele>664.2</ele>
  <time>2026-09-01T19:52:53Z</time>
  <course>86.16</course>
  <speed>20.9</speed>
  <fix>3d</fix>
</trkpt>
<trkpt lat="-35.3633977" lon="149.1562729">
  <ele>664.0</ele>
  <time>2026-09-01T19:52:53Z</time>
  <course>86.97</course>
  <speed>20.884982643038033</speed>
  <fix>3d</fix>
</trkpt>
<trkpt lat="-35.3634" lon="149.1562258">
  <ele>664.2</ele>
  <time>2026-09-01T19:52:53Z</time>
  <course>86.16</course>
  <speed>20.9</speed>
  <fix>3d</fix>
</trkpt>
<trkpt lat="-35.3633964" lon="149.1562958">
  <ele>663.96</ele>
  <time>2026-09-01T19:52:53Z</time>
  <course>86.96</course>
  <speed>20.865025760827617</speed>
  <fix>3d</fix>
</trkpt>
<trkpt lat="-35.3633975" lon="149.1562717">
  <ele>664.13</ele>
  <time>2026-09-01T19:52:53Z</time>
  <course>86.16</course>
  <speed>20.86</speed>
  <fix>3d</fix>
</trkpt>
<trkpt lat="-35.3633952" lon="149.1563188">
  <ele>663.92</ele>
  <time>2026-09-01T19:52:53Z</time>
  <course>86.96</course>
  <speed>20.845068961267554</speed>
  <fix>3d</fix>
</trkpt>
<trkpt lat="-35.3633975" lon="149.1562717">
  <ele>664.13</ele>
  <time>2026-09-01T19:52:53Z</time>
  <course>86.16</course>
  <speed>20.86</speed>
  <fix>3d</fix>
</trkpt>
<trkpt lat="-35.3633939" lon="149.1563417">
  <ele>663.88</ele>
  <time>2026-09-01T19:52:53Z</time>
  <course>86.96</course>
  <speed>20.83443543751546</speed>
  <fix>3d</fix>
</trkpt>
<trkpt lat="-35.363395" lon="149.1563176">
  <ele>664.05</ele>
  <time>2026-09-01T19:52:53Z</time>
  <course>86.16</course>
  <speed>20.83</speed>
  <fix>3d</fix>
</trkpt>
<trkpt lat="-35.3633927" lon="149.1563646">
  <ele>663.84</ele>
  <time>2026-09-01T19:52:53Z</time>
  <course>86.94</course>
  <speed>20.81447813422186</speed>
  <fix>3d</fix>
</trkpt>
<trkpt lat="-35.363395" lon="149.1563176">
  <ele>664.05</ele>
  <time>2026-09-01T19:52:53Z</time>
  <course>86.16</course>
  <speed>20.83</speed>
  <fix>3d</fix>
</trkpt>
<trkpt lat="-35.3633914" lon="149.1563875">
  <ele>663.79</ele>
  <time>2026-09-01T19:52:53Z</time>
  <course>86.97</course>
  <speed>20.794520912971283</speed>
  <fix>3d</fix>
</trkpt>
<trkpt lat="-35.3633925" lon="149.1563633">
  <ele>663.96</ele>
  <time>2026-09-01T19:52:53Z</time>
  <course>86.16</course>
  <speed>20.8</speed>
  <fix>3d</fix>
</trkpt>
<trkpt lat="-35.3633902" lon="149.1564102">
  <ele>663.75</ele>
  <time>2026-09-01T19:52:53Z</time>
  <course>86.99</course>
  <speed>20.78454233318598</speed>
  <fix>3d</fix>
</trkpt>
<trkpt lat="-35.3633925" lon="149.1563633">
  <ele>663.96</ele>
  <time>2026-09-01T19:52:53Z</time>
  <course>86.16</course>
  <speed>20.8</speed>
  <fix>3d</fix>
</trkpt>
<trkpt lat="-35.3633889" lon="149.156433">
  <ele>663.7</ele>
  <time>2026-09-01T19:52:53Z</time>
  <course>86.97</course>
  <speed>20.774563774000168</speed>
  <fix>3d</fix>
</trkpt>
<trkpt lat="-35.36339" lon="149.156409">
  <ele>663.87</ele>
  <time>2026-09-01T19:52:53Z</time>
  <course>86.16</course>
  <speed>20.77</speed>
  <fix>3d</fix>
</trkpt>
<trkpt lat="-35.3633877" lon="149.1564558">
  <ele>663.65</ele>
  <time>2026-09-01T19:52:53Z</time>
  <course>86.99</course>
  <speed>20.743975028908995</speed>
  <fix>3d</fix>
</trkpt>
<trkpt lat="-35.36339" lon="149.156409">
  <ele>663.87</ele>
  <time>2026-09-01T19:52:53Z</time>
  <course>86.16</course>
  <speed>20.77</speed>
  <fix>3d</fix>
</trkpt>
<trkpt lat="-35.3633865" lon="149.1564785">
  <ele>663.6</ele>
  <time>2026-09-01T19:52:53Z</time>
  <course>86.99</course>
  <speed>20.72401746766297</speed>
  <fix>3d</fix>
</trkpt>
<trkpt lat="-35.3633875" lon="149.1564546">
  <ele>663.77</ele>
  <time>2026-09-01T19:52:53Z</time>
  <course>86.17</course>
  <speed>20.74</speed>
  <fix>3d</fix>
</trkpt>
<trkpt lat="-35.3633852" lon="149.1565011">
  <ele>663.55</ele>
  <time>2026-09-01T19:52:53Z</time>
  <course>87.02</course>
  <speed>20.704059988321134</speed>
  <fix>3d</fix>
</trkpt>
<trkpt lat="-35.3633875" lon="149.1564546">
  <ele>663.77</ele>
  <time>2026-09-01T19:52:53Z</time>
  <course>86.17</course>
  <speed>20.74</speed>
  <fix>3d</fix>
</trkpt>
<trkpt lat="-35.363384" lon="149.1565238">
  <ele>663.5</ele>
  <time>2026-09-01T19:52:53Z</time>
  <course>87.04</course>
  <speed>20.684102591120553</speed>
  <fix>3d</fix>
</trkpt>
<trkpt lat="-35.363385" lon="149.1565001">
  <ele>663.67</ele>
  <time>2026-09-01T19:52:53Z</time>
  <course>86.18</course>
  <speed>20.71</speed>
  <fix>3d</fix>
</trkpt>
<trkpt lat="-35.3633828" lon="149.1565464">
  <ele>663.45</ele>
  <time>2026-09-01T19:52:53Z</time>
  <course>87.04</course>
  <speed>20.674123923397577</speed>
  <fix>3d</fix>
</trkpt>
<trkpt lat="-35.363385" lon="149.1565001">
  <ele>663.67</ele>
  <time>2026-09-01T19:52:53Z</time>
  <course>86.18</course>
  <speed>20.71</speed>
  <fix>3d</fix>
</trkpt>
<trkpt lat="-35.3633815" lon="149.1565691">
  <ele>663.39</ele>
  <time>2026-09-01T19:52:53Z</time>
  <course>87.01</course>
  <speed>20.654166649855423</speed>
  <fix>3d</fix>
</trkpt>
<trkpt lat="-35.3633826" lon="149.1565456">
  <ele>663.56</ele>
  <time>2026-09-01T19:52:53Z</time>
  <course>86.19</course>
  <speed>20.69</speed>
  <fix>3d</fix>
</trkpt>
<trkpt lat="-35.3633803" lon="149.1565917">
  <ele>663.34</ele>
  <time>2026-09-01T19:52:53Z</time>
  <course>87.02</course>
  <speed>20.643536518726634</speed>
  <fix>3d</fix>
</trkpt>
<trkpt lat="-35.3633826" lon="149.1565456">
  <ele>663.56</ele>
  <time>2026-09-01T19:52:53Z</time>
  <course>86.19</course>
  <speed>20.69</speed>
  <fix>3d</fix>
</trkpt>
<trkpt lat="-35.3633791" lon="149.1566143">
  <ele>663.28</ele>
  <time>2026-09-01T19:52:53Z</time>
  <course>87.02</course>
  <speed>20.6235787389095</speed>
  <fix>3d</fix>
</trkpt>
<trkpt lat="-35.3633801" lon="149.1565911">
  <ele>663.45</ele>
  <time>2026-09-01T19:52:53Z</time>
  <course>86.19</course>
  <speed>20.67</speed>
  <fix>3d</fix>
</trkpt>
<trkpt lat="-35.3633778" lon="149.1566369">
  <ele>663.23</ele>
  <time>2026-09-01T19:52:53Z</time>
  <course>87.02</course>
  <speed>20.603621040972385</speed>
  <fix>3d</fix>
</trkpt>
<trkpt lat="-35.3633801" lon="149.1565911">
  <ele>663.45</ele>
  <time>2026-09-01T19:52:53Z</time>
  <course>86.19</course>
  <speed>20.67</speed>
  <fix>3d</fix>
</trkpt>
<trkpt lat="-35.3633766" lon="149.1566595">
  <ele>663.17</ele>
  <time>2026-09-01T19:52:53Z</time>
  <course>87.04</course>
  <speed>20.583663425153453</speed>
  <fix>3d</fix>
</trkpt>
<trkpt lat="-35.3633776" lon="149.1566366">
  <ele>663.33</ele>
  <time>2026-09-01T19:52:53Z</time>
  <course>86.19</course>
  <speed>20.64</speed>
  <fix>3d</fix>
</trkpt>
<trkpt lat="-35.3633754" lon="149.1566821">
  <ele>663.11</ele>
  <time>2026-09-01T19:52:53Z</time>
  <course>87.05</course>
  <speed>20.563705891691797</speed>
  <fix>3d</fix>
</trkpt>
<trkpt lat="-35.3633776" lon="149.1566366">
  <ele>663.33</ele>
  <time>2026-09-01T19:52:53Z</time>
  <course>86.19</course>
  <speed>20.64</speed>
  <fix>3d</fix>
</trkpt>
<trkpt lat="-35.3633742" lon="149.1567046">
  <ele>663.06</ele>
  <time>2026-09-01T19:52:53Z</time>
  <course>87.06</course>
  <speed>20.543748440827443</speed>
  <fix>3d</fix>
</trkpt>
<trkpt lat="-35.3633752" lon="149.156682">
  <ele>663.21</ele>
  <time>2026-09-01T19:52:53Z</time>
  <course>86.19</course>
  <speed>20.61</speed>
  <fix>3d</fix>
</trkpt>
<trkpt lat="-35.3633729" lon="149.1567272">
  <ele>663.0</ele>
  <time>2026-09-01T19:52:53Z</time>
  <course>87.04</course>
  <speed>20.533769746444513</speed>
  <fix>3d</fix>
</trkpt>
<trkpt lat="-35.3633752" lon="149.156682">
  <ele>663.21</ele>
  <time>2026-09-01T19:52:53Z</time>
  <course>86.19</course>
  <speed>20.61</speed>
  <fix>3d</fix>
</trkpt>
<trkpt lat="-35.3633717" lon="149.1567497">
  <ele>662.94</ele>
  <time>2026-09-01T19:52:53Z</time>
  <course>87.01</course>
  <speed>20.523140597871464</speed>
  <fix>3d</fix>
</trkpt>
<trkpt lat="-35.3633727" lon="149.1567273">
  <ele>663.1</ele>
  <time>2026-09-01T19:52:53Z</time>
  <course>86.2</course>
  <speed>20.58</speed>
  <fix>3d</fix>
</trkpt>
<trkpt lat="-35.3633705" lon="149.1567723">
  <ele>662.88</ele>
  <time>2026-09-01T19:52:53Z</time>
  <course>87.03</course>
  <speed>20.513161628573986</speed>
  <fix>3d</fix>
</trkpt>
<trkpt lat="-35.3633727" lon="149.1567273">
  <ele>663.1</ele>
  <time>2026-09-01T19:52:53Z</time>
  <course>86.2</course>
  <speed>20.58</speed>
  <fix>3d</fix>
</trkpt>
<trkpt lat="-35.3633693" lon="149.1567948">
  <ele>662.82</ele>
  <time>2026-09-01T19:52:53Z</time>
  <course>87.06</course>
  <speed>20.5031826797695</speed>
  <fix>3d</fix>
</trkpt>
<trkpt lat="-35.3633703" lon="149.1567725">
  <ele>662.98</ele>
  <time>2026-09-01T19:52:53Z</time>
  <course>86.2</course>
  <speed>20.56</speed>
  <fix>3d</fix>
</trkpt>
<trkpt lat="-35.3633681" lon="149.1568174">
  <ele>662.75</ele>
  <time>2026-09-01T19:52:53Z</time>
  <course>87.09</course>
  <speed>20.482577962746777</speed>
  <fix>3d</fix>
</trkpt>
<trkpt lat="-35.3633703" lon="149.1567725">
  <ele>662.98</ele>
  <time>2026-09-01T19:52:53Z</time>
  <course>86.2</course>
  <speed>20.56</speed>
  <fix>3d</fix>
</trkpt>
<trkpt lat="-35.3633669" lon="149.1568399">
  <ele>662.69</ele>
  <time>2026-09-01T19:52:53Z</time>
  <course>87.1</course>
  <speed>20.472598760294208</speed>
  <fix>3d</fix>
</trkpt>
<trkpt lat="-35.3633678" lon="149.1568176">
  <ele>662.85</ele>
  <time>2026-09-01T19:52:53Z</time>
  <course>86.22</course>
  <speed>20.53</speed>
  <fix>3d</fix>
</trkpt>
<trkpt lat="-35.3633656" lon="149.1568624">
  <ele>662.63</ele>
  <time>2026-09-01T19:52:53Z</time>
  <course>87.11</course>
  <speed>20.452640416337445</speed>
  <fix>3d</fix>
</trkpt>
<trkpt lat="-35.3633678" lon="149.1568176">
  <ele>662.85</ele>
  <time>2026-09-01T19:52:53Z</time>
  <course>86.22</course>
  <speed>20.53</speed>
  <fix>3d</fix>
</trkpt>
<trkpt lat="-35.3633644" lon="149.1568849">
  <ele>662.57</ele>
  <time>2026-09-01T19:52:53Z</time>
  <course>87.11</course>
  <speed>20.4320385669174</speed>
  <fix>3d</fix>
</trkpt>
<trkpt lat="-35.3633654" lon="149.1568627">
  <ele>662.73</ele>
  <time>2026-09-01T19:52:53Z</time>
  <course>86.24</course>
  <speed>20.5</speed>
  <fix>3d</fix>
</trkpt>
<trkpt lat="-35.3633632" lon="149.1569074">
  <ele>662.5</ele>
  <time>2026-09-01T19:52:53Z</time>
  <course>87.11</course>
  <speed>20.4320385669174</speed>
  <fix>3d</fix>
</trkpt>
<trkpt lat="-35.3633654" lon="149.1568627">
  <ele>662.73</ele>
  <time>2026-09-01T19:52:53Z</time>
  <course>86.24</course>
  <speed>20.5</speed>
  <fix>3d</fix>
</trkpt>
<trkpt lat="-35.3633621" lon="149.1569297">
  <ele>662.44</ele>
  <time>2026-09-01T19:52:53Z</time>
  <course>87.05</course>
  <speed>20.412079756849863</speed>
  <fix>3d</fix>
</trkpt>
<trkpt lat="-35.363363" lon="149.1569078">
  <ele>662.61</ele>
  <time>2026-09-01T19:52:53Z</time>
  <course>86.25</course>
  <speed>20.48</speed>
  <fix>3d</fix>
</trkpt>
<trkpt lat="-35.3633608" lon="149.1569522">
  <ele>662.38</ele>
  <time>2026-09-01T19:52:53Z</time>
  <course>87.04</course>
  <speed>20.402100382068507</speed>
  <fix>3d</fix>
</trkpt>
<trkpt lat="-35.363363" lon="149.1569078">
  <ele>662.61</ele>
  <time>2026-09-01T19:52:53Z</time>
  <course>86.25</course>
  <speed>20.48</speed>
  <fix>3d</fix>
</trkpt>
<trkpt lat="-35.3633597" lon="149.1569746">
  <ele>662.32</ele>
  <time>2026-09-01T19:52:53Z</time>
  <course>87.06</course>
  <speed>20.39212102749491</speed>
  <fix>3d</fix>
</trkpt>
<trkpt lat="-35.3633606" lon="149.1569528">
  <ele>662.49</ele>
  <time>2026-09-01T19:52:53Z</time>
  <course>86.25</course>
  <speed>20.45</speed>
  <fix>3d</fix>
</trkpt>
<trkpt lat="-35.3633584" lon="149.1569974">
  <ele>662.26</ele>
  <time>2026-09-01T19:52:53Z</time>
  <course>87.05</course>
  <speed>20.372162379089758</speed>
  <fix>3d</fix>
</trkpt>
<trkpt lat="-35.3633606" lon="149.1569528">
  <ele>662.49</ele>
  <time>2026-09-01T19:52:53Z</time>
  <course>86.25</course>
  <speed>20.45</speed>
  <fix>3d</fix>
</trkpt>
<trkpt lat="-35.3633572" lon="149.1570199">
  <ele>662.2</ele>
  <time>2026-09-01T19:52:53Z</time>
  <course>87.03</course>
  <speed>20.362183085317742</speed>
  <fix>3d</fix>
</trkpt>
<trkpt lat="-35.3633582" lon="149.1569976">
  <ele>662.36</ele>
  <time>2026-09-01T19:52:53Z</time>
  <course>86.24</course>
  <speed>20.43</speed>
  <fix>3d</fix>
</trkpt>
<trkpt lat="-35.363356" lon="149.1570423">
  <ele>662.13</ele>
  <time>2026-09-01T19:52:53Z</time>
  <course>87.03</course>
  <speed>20.342224558784125</speed>
  <fix>3d</fix>
</trkpt>
<trkpt lat="-35.3633582" lon="149.1569976">
  <ele>662.36</ele>
  <time>2026-09-01T19:52:53Z</time>
  <course>86.24</course>
  <speed>20.43</speed>
  <fix>3d</fix>
</trkpt>
<trkpt lat="-35.3633548" lon="149.1570647">
  <ele>662.07</ele>
  <time>2026-09-01T19:52:53Z</time>
  <course>87.04</course>
  <speed>20.33289207171474</speed>
  <fix>3d</fix>
</trkpt>
<trkpt lat="-35.3633558" lon="149.1570425">
  <ele>662.24</ele>
  <time>2026-09-01T19:52:53Z</time>
  <course>86.23</course>
  <speed>20.4</speed>
  <fix>3d</fix>
</trkpt>
<trkpt lat="-35.3633536" lon="149.157087">
  <ele>662.0</ele>
  <time>2026-09-01T19:52:53Z</time>
  <course>87.02</course>
  <speed>20.312934303049374</speed>
  <fix>3d</fix>
</trkpt>
<trkpt lat="-35.3633558" lon="149.1570425">
  <ele>662.24</ele>
  <time>2026-09-01T19:52:53Z</time>
  <course>86.23</course>
  <speed>20.4</speed>
  <fix>3d</fix>
</trkpt>
<trkpt lat="-35.3633524" lon="149.1571094">
  <ele>661.94</ele>
  <time>2026-09-01T19:52:53Z</time>
  <course>87.02</course>
  <speed>20.29297661753938</speed>
  <fix>3d</fix>
</trkpt>
<trkpt lat="-35.3633534" lon="149.1570874">
  <ele>662.11</ele>
  <time>2026-09-01T19:52:53Z</time>
  <course>86.21</course>
  <speed>20.37</speed>
  <fix>3d</fix>
</trkpt>
<trkpt lat="-35.3633512" lon="149.1571317">
  <ele>661.88</ele>
  <time>2026-09-01T19:52:53Z</time>
  <course>87.04</course>
  <speed>20.282997806044353</speed>
  <fix>3d</fix>
</trkpt>
<trkpt lat="-35.3633534" lon="149.1570874">
  <ele>662.11</ele>
  <time>2026-09-01T19:52:53Z</time>
  <course>86.21</course>
  <speed>20.37</speed>
  <fix>3d</fix>
</trkpt>
<trkpt lat="-35.36335" lon="149.157154">
  <ele>661.81</ele>
  <time>2026-09-01T19:52:53Z</time>
  <course>87.03</course>
  <speed>20.26304024572818</speed>
  <fix>3d</fix>
</trkpt>
<trkpt lat="-35.363351" lon="149.1571322">
  <ele>661.99</ele>
  <time>2026-09-01T19:52:53Z</time>
  <course>86.2</course>
  <speed>20.33</speed>
  <fix>3d</fix>
</trkpt>
<trkpt lat="-35.3633488" lon="149.1571763">
  <ele>661.75</ele>
  <time>2026-09-01T19:52:53Z</time>
  <course>87.02</course>
  <speed>20.253061496968797</speed>
  <fix>3d</fix>
</trkpt>
<trkpt lat="-35.363351" lon="149.1571322">
  <ele>661.99</ele>
  <time>2026-09-01T19:52:53Z</time>
  <course>86.2</course>
  <speed>20.33</speed>
  <fix>3d</fix>
</trkpt>
<trkpt lat="-35.3633476" lon="149.1571986">
  <ele>661.69</ele>
  <time>2026-09-01T19:52:53Z</time>
  <course>86.99</course>
  <speed>20.23310406240229</speed>
  <fix>3d</fix>
</trkpt>
<trkpt lat="-35.3633485" lon="149.1571769">
  <ele>661.87</ele>
  <time>2026-09-01T19:52:53Z</time>
  <course>86.2</course>
  <speed>20.3</speed>
  <fix>3d</fix>
</trkpt>
<trkpt lat="-35.3633464" lon="149.1572209">
  <ele>661.63</ele>
  <time>2026-09-01T19:52:53Z</time>
  <course>86.98</course>
  <speed>20.212496134817194</speed>
  <fix>3d</fix>
</trkpt>
<trkpt lat="-35.3633485" lon="149.1571769">
  <ele>661.87</ele>
  <time>2026-09-01T19:52:53Z</time>
  <course>86.2</course>
  <speed>20.3</speed>
  <fix>3d</fix>
</trkpt>
<trkpt lat="-35.3633452" lon="149.1572432">
  <ele>661.57</ele>
  <time>2026-09-01T19:52:53Z</time>
  <course>87.0</course>
  <speed>20.20251716989742</speed>
  <fix>3d</fix>
</trkpt>
<trkpt lat="-35.3633461" lon="149.1572215">
  <ele>661.75</ele>
  <time>2026-09-01T19:52:53Z</time>
  <course>86.2</course>
  <speed>20.27</speed>
  <fix>3d</fix>
</trkpt>
<trkpt lat="-35.363344" lon="149.1572654">
  <ele>661.51</ele>
  <time>2026-09-01T19:52:53Z</time>
  <course>87.01</course>
  <speed>20.182559302526528</speed>
  <fix>3d</fix>
</trkpt>
<trkpt lat="-35.3633461" lon="149.1572215">
  <ele>661.75</ele>
  <time>2026-09-01T19:52:53Z</time>
  <course>86.2</course>
  <speed>20.27</speed>
  <fix>3d</fix>
</trkpt>
<trkpt lat="-35.3633428" lon="149.1572876">
  <ele>661.45</ele>
  <time>2026-09-01T19:52:53Z</time>
  <course>87.03</course>
  <speed>20.172580400137214</speed>
  <fix>3d</fix>
</trkpt>
<trkpt lat="-35.3633437" lon="149.157266">
  <ele>661.63</ele>
  <time>2026-09-01T19:52:53Z</time>
  <course>86.2</course>
  <speed>20.24</speed>
  <fix>3d</fix>
</trkpt>
<trkpt lat="-35.3633416" lon="149.1573099">
  <ele>661.39</ele>
  <time>2026-09-01T19:52:53Z</time>
  <course>87.04</course>
  <speed>20.152622658105816</speed>
  <fix>3d</fix>
</trkpt>
<trkpt lat="-35.3633437" lon="149.157266">
  <ele>661.63</ele>
  <time>2026-09-01T19:52:53Z</time>
  <course>86.2</course>
  <speed>20.24</speed>
  <fix>3d</fix>
</trkpt>
<trkpt lat="-35.3633404" lon="149.157332">
  <ele>661.32</ele>
  <time>2026-09-01T19:52:53Z</time>
  <course>87.05</course>
  <speed>20.132016789184334</speed>
  <fix>3d</fix>
</trkpt>
<trkpt lat="-35.3633413" lon="149.1573105">
  <ele>661.51</ele>
  <time>2026-09-01T19:52:53Z</time>
  <course>86.2</course>
  <speed>20.2</speed>
  <fix>3d</fix>
</trkpt>
<trkpt lat="-35.3633392" lon="149.1573542">
  <ele>661.26</ele>
  <time>2026-09-01T19:52:53Z</time>
  <course>87.07</course>
  <speed>20.12203767017645</speed>
  <fix>3d</fix>
</trkpt>
<trkpt lat="-35.3633413" lon="149.1573105">
  <ele>661.51</ele>
  <time>2026-09-01T19:52:53Z</time>
  <course>86.2</course>
  <speed>20.2</speed>
  <fix>3d</fix>
</trkpt>
<trkpt lat="-35.363338" lon="149.1573764">
  <ele>661.2</ele>
  <time>2026-09-01T19:52:53Z</time>
  <course>87.11</course>
  <speed>20.11205857191153</speed>
  <fix>3d</fix>
</trkpt>
<trkpt lat="-35.3633388" lon="149.1573548">
  <ele>661.39</ele>
  <time>2026-09-01T19:52:53Z</time>
  <course>86.21</course>
  <speed>20.17</speed>
  <fix>3d</fix>
</trkpt>
<trkpt lat="-35.3633368" lon="149.1573984">
  <ele>661.13</ele>
  <time>2026-09-01T19:52:53Z</time>
  <course>87.1</course>
  <speed>20.102079494420472</speed>
  <fix>3d</fix>
</trkpt>
<trkpt lat="-35.3633388" lon="149.1573548">
  <ele>661.39</ele>
  <time>2026-09-01T19:52:53Z</time>
  <course>86.21</course>
  <speed>20.17</speed>
  <fix>3d</fix>
</trkpt>
<trkpt lat="-35.3633356" lon="149.1574205">
  <ele>661.07</ele>
  <time>2026-09-01T19:52:53Z</time>
  <course>87.1</course>
  <speed>20.081476539338436</speed>
  <fix>3d</fix>
</trkpt>
<trkpt lat="-35.3633365" lon="149.1573991">
  <ele>661.26</ele>
  <time>2026-09-01T19:52:53Z</time>
  <course>86.23</course>
  <speed>20.14</speed>
  <fix>3d</fix>
</trkpt>
<trkpt lat="-35.3633344" lon="149.1574426">
  <ele>661.0</ele>
  <time>2026-09-01T19:52:53Z</time>
  <course>87.1</course>
  <speed>20.061517888734144</speed>
  <fix>3d</fix>
</trkpt>
<trkpt lat="-35.3633365" lon="149.1573991">
  <ele>661.26</ele>
  <time>2026-09-01T19:52:53Z</time>
  <course>86.23</course>
  <speed>20.14</speed>
  <fix>3d</fix>
</trkpt>
<trkpt lat="-35.3633332" lon="149.1574647">
  <ele>660.94</ele>
  <time>2026-09-01T19:52:53Z</time>
  <course>87.08</course>
  <speed>20.051538594332357</speed>
  <fix>3d</fix>
</trkpt>
<trkpt lat="-35.3633342" lon="149.1574433">
  <ele>661.14</ele>
  <time>2026-09-01T19:52:53Z</time>
  <course>86.24</course>
  <speed>20.11</speed>
  <fix>3d</fix>
</trkpt>
<trkpt lat="-35.363332" lon="149.157487">
  <ele>660.87</ele>
  <time>2026-09-01T19:52:53Z</time>
  <course>87.07</course>
  <speed>20.040918142640074</speed>
  <fix>3d</fix>
</trkpt>
<trkpt lat="-35.3633342" lon="149.1574433">
  <ele>661.14</ele>
  <time>2026-09-01T19:52:53Z</time>
  <course>86.24</course>
  <speed>20.11</speed>
  <fix>3d</fix>
</trkpt>
<trkpt lat="-35.3633308" lon="149.1575091">
  <ele>660.81</ele>
  <time>2026-09-01T19:52:53Z</time>
  <course>87.05</course>
  <speed>20.020959017989124</speed>
  <fix>3d</fix>
</trkpt>
<trkpt lat="-35.3633318" lon="149.1574875">
  <ele>661.01</ele>
  <time>2026-09-01T19:52:53Z</time>
  <course>86.24</course>
  <speed>20.08</speed>
  <fix>3d</fix>
</trkpt>
<trkpt lat="-35.3633297" lon="149.1575311">
  <ele>660.75</ele>
  <time>2026-09-01T19:52:53Z</time>
  <course>87.04</course>
  <speed>20.01097948627203</speed>
  <fix>3d</fix>
</trkpt>
<trkpt lat="-35.3633318" lon="149.1574875">
  <ele>661.01</ele>
  <time>2026-09-01T19:52:53Z</time>
  <course>86.24</course>
  <speed>20.08</speed>
  <fix>3d</fix>
</trkpt>
<trkpt lat="-35.3633285" lon="149.1575532">
  <ele>660.68</ele>
  <time>2026-09-01T19:52:53Z</time>
  <course>87.03</course>
  <speed>19.991663262470183</speed>
  <fix>3d</fix>
</trkpt>
<trkpt lat="-35.3633294" lon="149.1575317">
  <ele>660.89</ele>
  <time>2026-09-01T19:52:53Z</time>
  <course>86.24</course>
  <speed>20.05</speed>
  <fix>3d</fix>
</trkpt>
<trkpt lat="-35.3633273" lon="149.1575752">
  <ele>660.62</ele>
  <time>2026-09-01T19:52:53Z</time>
  <course>87.03</course>
  <speed>19.981684113207276</speed>
  <fix>3d</fix>
</trkpt>
<trkpt lat="-35.3633294" lon="149.1575317">
  <ele>660.89</ele>
  <time>2026-09-01T19:52:53Z</time>
  <course>86.24</course>
  <speed>20.05</speed>
  <fix>3d</fix>
</trkpt>
<trkpt lat="-35.3633261" lon="149.1575972">
  <ele>660.56</ele>
  <time>2026-09-01T19:52:53Z</time>
  <course>87.05</course>
  <speed>19.961725877288266</speed>
  <fix>3d</fix>
</trkpt>
<trkpt lat="-35.3633271" lon="149.1575758">
  <ele>660.77</ele>
  <time>2026-09-01T19:52:53Z</time>
  <course>86.23</course>
  <speed>20.02</speed>
  <fix>3d</fix>
</trkpt>
<trkpt lat="-35.3633249" lon="149.1576194">
  <ele>660.49</ele>
  <time>2026-09-01T19:52:53Z</time>
  <course>87.06</course>
  <speed>19.961725877288266</speed>
  <fix>3d</fix>
</trkpt>
<trkpt lat="-35.3633271" lon="149.1575758">
  <ele>660.77</ele>
  <time>2026-09-01T19:52:53Z</time>
  <course>86.23</course>
  <speed>20.02</speed>
  <fix>3d</fix>
</trkpt>
<trkpt lat="-35.3633237" lon="149.1576413">
  <ele>660.43</ele>
  <time>2026-09-01T19:52:53Z</time>
  <course>87.1</course>
  <speed>19.94241710525582</speed>
  <fix>3d</fix>
</trkpt>
<trkpt lat="-35.3633247" lon="149.1576198">
  <ele>660.64</ele>
  <time>2026-09-01T19:52:53Z</time>
  <course>86.21</course>
  <speed>19.99</speed>
  <fix>3d</fix>
</trkpt>
<trkpt lat="-35.3633226" lon="149.1576633">
  <ele>660.37</ele>
  <time>2026-09-01T19:52:53Z</time>
  <course>87.08</course>
  <speed>19.941767725053865</speed>
  <fix>3d</fix>
</trkpt>
<trkpt lat="-35.3633247" lon="149.1576198">
  <ele>660.64</ele>
  <time>2026-09-01T19:52:53Z</time>
  <course>86.21</course>
  <speed>19.99</speed>
  <fix>3d</fix>
</trkpt>
<trkpt lat="-35.3633214" lon="149.1576853">
  <ele>660.31</ele>
  <time>2026-09-01T19:52:53Z</time>
  <course>87.04</course>
  <speed>19.951746790694795</speed>
  <fix>3d</fix>
</trkpt>
<trkpt lat="-35.3633223" lon="149.1576637">
  <ele>660.52</ele>
  <time>2026-09-01T19:52:53Z</time>
  <course>86.2</course>
  <speed>19.98</speed>
  <fix>3d</fix>
</trkpt>
<trkpt lat="-35.3633202" lon="149.1577074">
  <ele>660.25</ele>
  <time>2026-09-01T19:52:53Z</time>
  <course>87.03</course>
  <speed>19.961725877288266</speed>
  <fix>3d</fix>
</trkpt>
<trkpt lat="-35.3633223" lon="149.1576637">
  <ele>660.52</ele>
  <time>2026-09-01T19:52:53Z</time>
  <course>86.2</course>
  <speed>19.98</speed>
  <fix>3d</fix>
</trkpt>
<trkpt lat="-35.363319" lon="149.1577294">
  <ele>660.19</ele>
  <time>2026-09-01T19:52:53Z</time>
  <course>87.02</course>
  <speed>19.981684113207276</speed>
  <fix>3d</fix>
</trkpt>
<trkpt lat="-35.36332" lon="149.1577077">
  <ele>660.4</ele>
  <time>2026-09-01T19:52:53Z</time>
  <course>86.2</course>
  <speed>19.99</speed>
  <fix>3d</fix>
</trkpt>
<trkpt lat="-35.3633178" lon="149.1577514">
  <ele>660.14</ele>
  <time>2026-09-01T19:52:53Z</time>
  <course>87.04</course>
  <speed>19.991663262470183</speed>
  <fix>3d</fix>
</trkpt>
<trkpt lat="-35.36332" lon="149.1577077">
  <ele>660.4</ele>
  <time>2026-09-01T19:52:53Z</time>
  <course>86.2</course>
  <speed>19.99</speed>
  <fix>3d</fix>
</trkpt>
<trkpt lat="-35.3633166" lon="149.1577735">
  <ele>660.08</ele>
  <time>2026-09-01T19:52:53Z</time>
  <course>87.04</course>
  <speed>19.991663262470183</speed>
  <fix>3d</fix>
</trkpt>
<trkpt lat="-35.3633176" lon="149.1577516">
  <ele>660.28</ele>
  <time>2026-09-01T19:52:53Z</time>
  <course>86.2</course>
  <speed>20.01</speed>
  <fix>3d</fix>
</trkpt>
<trkpt lat="-35.3633154" lon="149.1577956">
  <ele>660.02</ele>
  <time>2026-09-01T19:52:53Z</time>
  <course>87.07</course>
  <speed>20.00164243256038</speed>
  <fix>3d</fix>
</trkpt>
<trkpt lat="-35.3633176" lon="149.1577516">
  <ele>660.28</ele>
  <time>2026-09-01T19:52:53Z</time>
  <course>86.2</course>
  <speed>20.01</speed>
  <fix>3d</fix>
</trkpt>
<trkpt lat="-35.3633142" lon="149.1578176">
  <ele>659.97</ele>
  <time>2026-09-01T19:52:53Z</time>
  <course>87.01</course>
  <speed>20.00164243256038</speed>
  <fix>3d</fix>
</trkpt>
<trkpt lat="-35.3633151" lon="149.1577955">
  <ele>660.17</ele>
  <time>2026-09-01T19:52:53Z</time>
  <course>86.21</course>
  <speed>20.02</speed>
  <fix>3d</fix>
</trkpt>
<trkpt lat="-35.363313" lon="149.1578397">
  <ele>659.92</ele>
  <time>2026-09-01T19:52:53Z</time>
  <course>87.0</course>
  <speed>20.00164243256038</speed>
  <fix>3d</fix>
</trkpt>
<trkpt lat="-35.3633151" lon="149.1577955">
  <ele>660.17</ele>
  <time>2026-09-01T19:52:53Z</time>
  <course>86.21</course>
  <speed>20.02</speed>
  <fix>3d</fix>
</trkpt>
<trkpt lat="-35.3633119" lon="149.1578615">
  <ele>659.87</ele>
  <time>2026-09-01T19:52:53Z</time>
  <course>86.99</course>
  <speed>20.00164243256038</speed>
  <fix>3d</fix>
</trkpt>
<trkpt lat="-35.3633128" lon="149.1578396">
  <ele>660.07</ele>
  <time>2026-09-01T19:52:53Z</time>
  <course>86.21</course>
  <speed>20.02</speed>
  <fix>3d</fix>
</trkpt>
<trkpt lat="-35.3633107" lon="149.1578835">
  <ele>659.83</ele>
  <time>2026-09-01T19:52:53Z</time>
  <course>86.99</course>
  <speed>19.991663262470183</speed>
  <fix>3d</fix>
</trkpt>
<trkpt lat="-35.3633128" lon="149.1578396">
  <ele>660.07</ele>
  <time>2026-09-01T19:52:53Z</time>
  <course>86.21</course>
  <speed>20.02</speed>
  <fix>3d</fix>
</trkpt>
<trkpt lat="-35.3633095" lon="149.1579056">
  <ele>659.78</ele>
  <time>2026-09-01T19:52:53Z</time>
  <course>87.01</course>
  <speed>19.981684113207276</speed>
  <fix>3d</fix>
</trkpt>
<trkpt lat="-35.3633105" lon="149.1578836">
  <ele>659.97</ele>
  <time>2026-09-01T19:52:53Z</time>
  <course>86.2</course>
  <speed>20.0</speed>
  <fix>3d</fix>
</trkpt>
<trkpt lat="-35.3633083" lon="149.1579276">
  <ele>659.74</ele>
  <time>2026-09-01T19:52:53Z</time>
  <course>87.01</course>
  <speed>19.981684113207276</speed>
  <fix>3d</fix>
</trkpt>
<trkpt lat="-35.3633105" lon="149.1578836">
  <ele>659.97</ele>
  <time>2026-09-01T19:52:53Z</time>
  <course>86.2</course>
  <speed>20.0</speed>
  <fix>3d</fix>
</trkpt>
<trkpt lat="-35.3633071" lon="149.1579497">
  <ele>659.7</ele>
  <time>2026-09-01T19:52:53Z</time>
  <course>87.03</course>
  <speed>19.971704984802876</speed>
  <fix>3d</fix>
</trkpt>
<trkpt lat="-35.3633081" lon="149.1579275">
  <ele>659.89</ele>
  <time>2026-09-01T19:52:53Z</time>
  <course>86.21</course>
  <speed>19.99</speed>
  <fix>3d</fix>
</trkpt>
<trkpt lat="-35.3633059" lon="149.1579717">
  <ele>659.66</ele>
  <time>2026-09-01T19:52:53Z</time>
  <course>87.0</course>
  <speed>19.951746790694795</speed>
  <fix>3d</fix>
</trkpt>
<trkpt lat="-35.3633081" lon="149.1579275">
  <ele>659.89</ele>
  <time>2026-09-01T19:52:53Z</time>
  <course>86.21</course>
  <speed>19.99</speed>
  <fix>3d</fix>
</trkpt>
<trkpt lat="-35.3633047" lon="149.1579937">
  <ele>659.62</ele>
  <time>2026-09-01T19:52:53Z</time>
  <course>86.98</course>
  <speed>19.941767725053865</speed>
  <fix>3d</fix>
</trkpt>
<trkpt lat="-35.3633057" lon="149.1579714">
  <ele>659.81</ele>
  <time>2026-09-01T19:52:53Z</time>
  <course>86.21</course>
  <speed>19.96</speed>
  <fix>3d</fix>
</trkpt>
<trkpt lat="-35.3633036" lon="149.1580156">
  <ele>659.58</ele>
  <time>2026-09-01T19:52:53Z</time>
  <course>87.0</course>
  <speed>19.921809656755585</speed>
  <fix>3d</fix>
</trkpt>
<trkpt lat="-35.3633057" lon="149.1579714">
  <ele>659.81</ele>
  <time>2026-09-01T19:52:53Z</time>
  <course>86.21</course>
  <speed>19.96</speed>
  <fix>3d</fix>
</trkpt>
<trkpt lat="-35.3633024" lon="149.1580375">
  <ele>659.54</ele>
  <time>2026-09-01T19:52:53Z</time>
  <course>87.01</course>
  <speed>19.91183065416136</speed>
  <fix>3d</fix>
</trkpt>
<trkpt lat="-35.3633033" lon="149.1580153">
  <ele>659.73</ele>
  <time>2026-09-01T19:52:53Z</time>
  <course>86.21</course>
  <speed>19.93</speed>
  <fix>3d</fix>
</trkpt>
<trkpt lat="-35.3633012" lon="149.1580595">
  <ele>659.51</ele>
  <time>2026-09-01T19:52:53Z</time>
  <course>87.01</course>
  <speed>19.891872712241046</speed>
  <fix>3d</fix>
</trkpt>
<trkpt lat="-35.3633033" lon="149.1580153">
  <ele>659.73</ele>
  <time>2026-09-01T19:52:53Z</time>
  <course>86.21</course>
  <speed>19.93</speed>
  <fix>3d</fix>
</trkpt>
<trkpt lat="-35.3633" lon="149.1580813">
  <ele>659.47</ele>
  <time>2026-09-01T19:52:53Z</time>
  <course>87.04</course>
  <speed>19.871268203111747</speed>
  <fix>3d</fix>
</trkpt>
<trkpt lat="-35.363301" lon="149.1580593">
  <ele>659.66</ele>
  <time>2026-09-01T19:52:53Z</time>
  <course>86.21</course>
  <speed>19.9</speed>
  <fix>3d</fix>
</trkpt>
<trkpt lat="-35.3632988" lon="149.1581032">
  <ele>659.43</ele>
  <time>2026-09-01T19:52:53Z</time>
  <course>87.05</course>
  <speed>19.861288981332503</speed>
  <fix>3d</fix>
</trkpt>
<trkpt lat="-35.363301" lon="149.1580593">
  <ele>659.66</ele>
  <time>2026-09-01T19:52:53Z</time>
  <course>86.21</course>
  <speed>19.9</speed>
  <fix>3d</fix>
</trkpt>
<trkpt lat="-35.3632977" lon="149.1581251">
  <ele>659.38</ele>
  <time>2026-09-01T19:52:53Z</time>
  <course>87.05</course>
  <speed>19.84133060054189</speed>
  <fix>3d</fix>
</trkpt>
<trkpt lat="-35.3632986" lon="149.1581029">
  <ele>659.57</ele>
  <time>2026-09-01T19:52:53Z</time>
  <course>86.22</course>
  <speed>19.87</speed>
  <fix>3d</fix>
</trkpt>
<trkpt lat="-35.3632965" lon="149.1581469">
  <ele>659.34</ele>
  <time>2026-09-01T19:52:53Z</time>
  <course>87.02</course>
  <speed>19.82137230365244</speed>
  <fix>3d</fix>
</trkpt>
<trkpt lat="-35.3632986" lon="149.1581029">
  <ele>659.57</ele>
  <time>2026-09-01T19:52:53Z</time>
  <course>86.22</course>
  <speed>19.87</speed>
  <fix>3d</fix>
</trkpt>
<trkpt lat="-35.3632953" lon="149.1581687">
  <ele>659.29</ele>
  <time>2026-09-01T19:52:53Z</time>
  <course>87.02</course>
  <speed>19.81139318674989</speed>
  <fix>3d</fix>
</trkpt>
<trkpt lat="-35.3632963" lon="149.1581466">
  <ele>659.48</ele>
  <time>2026-09-01T19:52:53Z</time>
  <course>86.22</course>
  <speed>19.83</speed>
  <fix>3d</fix>
</trkpt>
<trkpt lat="-35.3632941" lon="149.1581905">
  <ele>659.24</ele>
  <time>2026-09-01T19:52:53Z</time>
  <course>87.07</course>
  <speed>19.79143501618819</speed>
  <fix>3d</fix>
</trkpt>
<trkpt lat="-35.3632963" lon="149.1581466">
  <ele>659.48</ele>
  <time>2026-09-01T19:52:53Z</time>
  <course>86.22</course>
  <speed>19.83</speed>
  <fix>3d</fix>
</trkpt>
<trkpt lat="-35.363293" lon="149.1582123">
  <ele>659.18</ele>
  <time>2026-09-01T19:52:53Z</time>
  <course>87.06</course>
  <speed>19.781455962592844</speed>
  <fix>3d</fix>
</trkpt>
<trkpt lat="-35.3632939" lon="149.1581901">
  <ele>659.39</ele>
  <time>2026-09-01T19:52:53Z</time>
  <course>86.22</course>
  <speed>19.8</speed>
  <fix>3d</fix>
</trkpt>
<trkpt lat="-35.3632918" lon="149.1582342">
  <ele>659.13</ele>
  <time>2026-09-01T19:52:53Z</time>
  <course>87.07</course>
  <speed>19.76085271439469</speed>
  <fix>3d</fix>
</trkpt>
<trkpt lat="-35.3632939" lon="149.1581901">
  <ele>659.39</ele>
  <time>2026-09-01T19:52:53Z</time>
  <course>86.22</course>
  <speed>19.8</speed>
  <fix>3d</fix>
</trkpt>
<trkpt lat="-35.3632906" lon="149.1582559">
  <ele>659.08</ele>
  <time>2026-09-01T19:52:53Z</time>
  <course>87.05</course>
  <speed>19.7508733984095</speed>
  <fix>3d</fix>
</trkpt>
<trkpt lat="-35.3632916" lon="149.1582336">
  <ele>659.28</ele>
  <time>2026-09-01T19:52:53Z</time>
  <course>86.23</course>
  <speed>19.77</speed>
  <fix>3d</fix>
</trkpt>
<trkpt lat="-35.3632895" lon="149.1582777">
  <ele>659.02</ele>
  <time>2026-09-01T19:52:53Z</time>
  <course>87.03</course>
  <speed>19.740894103358134</speed>
  <fix>3d</fix>
</trkpt>
<trkpt lat="-35.3632916" lon="149.1582336">
  <ele>659.28</ele>
  <time>2026-09-01T19:52:53Z</time>
  <course>86.23</course>
  <speed>19.77</speed>
  <fix>3d</fix>
</trkpt>
<trkpt lat="-35.3632883" lon="149.1582992">
  <ele>658.97</ele>
  <time>2026-09-01T19:52:53Z</time>
  <course>87.03</course>
  <speed>19.720935576184004</speed>
  <fix>3d</fix>
</trkpt>
<trkpt lat="-35.3632893" lon="149.1582771">
  <ele>659.17</ele>
  <time>2026-09-01T19:52:53Z</time>
  <course>86.24</course>
  <speed>19.75</speed>
  <fix>3d</fix>
</trkpt>
<trkpt lat="-35.3632871" lon="149.158321">
  <ele>658.91</ele>
  <time>2026-09-01T19:52:53Z</time>
  <course>87.02</course>
  <speed>19.71095634412496</speed>
  <fix>3d</fix>
</trkpt>
<trkpt lat="-35.3632893" lon="149.1582771">
  <ele>659.17</ele>
  <time>2026-09-01T19:52:53Z</time>
  <course>86.24</course>
  <speed>19.75</speed>
  <fix>3d</fix>
</trkpt>
<trkpt lat="-35.363286" lon="149.1583427">
  <ele>658.86</ele>
  <time>2026-09-01T19:52:53Z</time>
  <course>87.0</course>
  <speed>19.70097713312718</speed>
  <fix>3d</fix>
</trkpt>
<trkpt lat="-35.3632869" lon="149.1583204">
  <ele>659.06</ele>
  <time>2026-09-01T19:52:53Z</time>
  <course>86.24</course>
  <speed>19.72</speed>
  <fix>3d</fix>
</trkpt>
<trkpt lat="-35.3632848" lon="149.1583644">
  <ele>658.8</ele>
  <time>2026-09-01T19:52:53Z</time>
  <course>87.02</course>
  <speed>19.690997943222683</speed>
  <fix>3d</fix>
</trkpt>
<trkpt lat="-35.3632869" lon="149.1583204">
  <ele>659.06</ele>
  <time>2026-09-01T19:52:53Z</time>
  <course>86.24</course>
  <speed>19.72</speed>
  <fix>3d</fix>
</trkpt>
<trkpt lat="-35.3632836" lon="149.1583861">
  <ele>658.75</ele>
  <time>2026-09-01T19:52:53Z</time>
  <course>87.02</course>
  <speed>19.68101877444356</speed>
  <fix>3d</fix>
</trkpt>
<trkpt lat="-35.3632846" lon="149.1583637">
  <ele>658.95</ele>
  <time>2026-09-01T19:52:53Z</time>
  <course>86.23</course>
  <speed>19.7</speed>
  <fix>3d</fix>
</trkpt>
<trkpt lat="-35.3632825" lon="149.1584079">
  <ele>658.69</ele>
  <time>2026-09-01T19:52:53Z</time>
  <course>87.03</course>
  <speed>19.671039626821965</speed>
  <fix>3d</fix>
</trkpt>
<trkpt lat="-35.3632846" lon="149.1583637">
  <ele>658.95</ele>
  <time>2026-09-01T19:52:53Z</time>
  <course>86.23</course>
  <speed>19.7</speed>
  <fix>3d</fix>
</trkpt>
<trkpt lat="-35.3632813" lon="149.1584296">
  <ele>658.64</ele>
  <time>2026-09-01T19:52:53Z</time>
  <course>87.02</course>
  <speed>19.671039626821965</speed>
  <fix>3d</fix>
</trkpt>
<trkpt lat="-35.3632823" lon="149.158407">
  <ele>658.83</ele>
  <time>2026-09-01T19:52:53Z</time>
  <course>86.23</course>
  <speed>19.68</speed>
  <fix>3d</fix>
</trkpt>
<trkpt lat="-35.3632801" lon="149.1584511">
  <ele>658.59</ele>
  <time>2026-09-01T19:52:53Z</time>
  <course>87.03</course>
  <speed>19.651081395180267</speed>
  <fix>3d</fix>
</trkpt>
<trkpt lat="-35.3632823" lon="149.158407">
  <ele>658.83</ele>
  <time>2026-09-01T19:52:53Z</time>
  <course>86.23</course>
  <speed>19.68</speed>
  <fix>3d</fix>
</trkpt>
<trkpt lat="-35.363279" lon="149.1584727">
  <ele>658.54</ele>
  <time>2026-09-01T19:52:53Z</time>
  <course>87.05</course>
  <speed>19.641102311224795</speed>
  <fix>3d</fix>
</trkpt>
<trkpt lat="-35.3632799" lon="149.1584504">
  <ele>658.73</ele>
  <time>2026-09-01T19:52:53Z</time>
  <course>86.23</course>
  <speed>19.66</speed>
  <fix>3d</fix>
</trkpt>
<trkpt lat="-35.3632778" lon="149.1584942">
  <ele>658.49</ele>
  <time>2026-09-01T19:52:53Z</time>
  <course>87.06</course>
  <speed>19.6304788530489</speed>
  <fix>3d</fix>
</trkpt>
<trkpt lat="-35.3632799" lon="149.1584504">
  <ele>658.73</ele>
  <time>2026-09-01T19:52:53Z</time>
  <course>86.23</course>
  <speed>19.66</speed>
  <fix>3d</fix>
</trkpt>
<trkpt lat="-35.3632767" lon="149.1585157">
  <ele>658.45</ele>
  <time>2026-09-01T19:52:53Z</time>
  <course>87.07</course>
  <speed>19.610520135886247</speed>
  <fix>3d</fix>
</trkpt>
<trkpt lat="-35.3632776" lon="149.1584937">
  <ele>658.63</ele>
  <time>2026-09-01T19:52:53Z</time>
  <course>86.23</course>
  <speed>19.65</speed>
  <fix>3d</fix>
</trkpt>
<trkpt lat="-35.3632755" lon="149.1585371">
  <ele>658.4</ele>
  <time>2026-09-01T19:52:53Z</time>
  <course>87.07</course>
  <speed>19.600540808865453</speed>
  <fix>3d</fix>
</trkpt>
<trkpt lat="-35.3632776" lon="149.1584937">
  <ele>658.63</ele>
  <time>2026-09-01T19:52:53Z</time>
  <course>86.23</course>
  <speed>19.65</speed>
  <fix>3d</fix>
</trkpt>
<trkpt lat="-35.3632744" lon="149.1585586">
  <ele>658.36</ele>
  <time>2026-09-01T19:52:53Z</time>
  <course>87.07</course>
  <speed>19.590561502927883</speed>
  <fix>3d</fix>
</trkpt>
<trkpt lat="-35.3632753" lon="149.1585368">
  <ele>658.54</ele>
  <time>2026-09-01T19:52:53Z</time>
  <course>86.23</course>
  <speed>19.63</speed>
  <fix>3d</fix>
</trkpt>
<trkpt lat="-35.3632732" lon="149.1585801">
  <ele>658.33</ele>
  <time>2026-09-01T19:52:53Z</time>
  <course>87.07</course>
  <speed>19.570602954431426</speed>
  <fix>3d</fix>
</trkpt>
<trkpt lat="-35.3632753" lon="149.1585368">
  <ele>658.54</ele>
  <time>2026-09-01T19:52:53Z</time>
  <course>86.23</course>
  <speed>19.63</speed>
  <fix>3d</fix>
</trkpt>
<trkpt lat="-35.3632721" lon="149.1586015">
  <ele>658.29</ele>
  <time>2026-09-01T19:52:53Z</time>
  <course>87.08</course>
  <speed>19.560623711937204</speed>
  <fix>3d</fix>
</trkpt>
<trkpt lat="-35.363273" lon="149.1585799">
  <ele>658.45</ele>
  <time>2026-09-01T19:52:53Z</time>
  <course>86.23</course>
  <speed>19.61</speed>
  <fix>3d</fix>
</trkpt>
<trkpt lat="-35.3632709" lon="149.1586229">
  <ele>658.25</ele>
  <time>2026-09-01T19:52:53Z</time>
  <course>87.1</course>
  <speed>19.550644490655547</speed>
  <fix>3d</fix>
</trkpt>
<trkpt lat="-35.363273" lon="149.1585799">
  <ele>658.45</ele>
  <time>2026-09-01T19:52:53Z</time>
  <course>86.23</course>
  <speed>19.61</speed>
  <fix>3d</fix>
</trkpt>
<trkpt lat="-35.3632698" lon="149.1586444">
  <ele>658.22</ele>
  <time>2026-09-01T19:52:53Z</time>
  <course>87.11</course>
  <speed>19.53068611185997</speed>
  <fix>3d</fix>
</trkpt>
<trkpt lat="-35.3632707" lon="149.158623">
  <ele>658.39</ele>
  <time>2026-09-01T19:52:53Z</time>
  <course>86.23</course>
  <speed>19.59</speed>
  <fix>3d</fix>
</trkpt>
<trkpt lat="-35.3632686" lon="149.1586658">
  <ele>658.19</ele>
  <time>2026-09-01T19:52:53Z</time>
  <course>87.09</course>
  <speed>19.520064036780205</speed>
  <fix>3d</fix>
</trkpt>
<trkpt lat="-35.3632707" lon="149.158623">
  <ele>658.39</ele>
  <time>2026-09-01T19:52:53Z</time>
  <course>86.23</course>
  <speed>19.59</speed>
  <fix>3d</fix>
</trkpt>
<trkpt lat="-35.3632675" lon="149.1586872">
  <ele>658.16</ele>
  <time>2026-09-01T19:52:53Z</time>
  <course>87.1</course>
  <speed>19.51008457183105</speed>
  <fix>3d</fix>
</trkpt>
<trkpt lat="-35.3632684" lon="149.1586661">
  <ele>658.32</ele>
  <time>2026-09-01T19:52:53Z</time>
  <course>86.24</course>
  <speed>19.57</speed>
  <fix>3d</fix>
</trkpt>
<trkpt lat="-35.3632663" lon="149.1587086">
  <ele>658.14</ele>
  <time>2026-09-01T19:52:53Z</time>
  <course>87.11</course>
  <speed>19.490125705084612</speed>
  <fix>3d</fix>
</trkpt>
<trkpt lat="-35.3632684" lon="149.1586661">
  <ele>658.32</ele>
  <time>2026-09-01T19:52:53Z</time>
  <course>86.24</course>
  <speed>19.57</speed>
  <fix>3d</fix>
</trkpt>
<trkpt lat="-35.3632652" lon="149.15873">
  <ele>658.12</ele>
  <time>2026-09-01T19:52:53Z</time>
  <course>87.09</course>
  <speed>19.480146303352036</speed>
  <fix>3d</fix>
</trkpt>
<trkpt lat="-35.3632661" lon="149.158709">
  <ele>658.27</ele>
  <time>2026-09-01T19:52:53Z</time>
  <course>86.24</course>
  <speed>19.55</speed>
  <fix>3d</fix>
</trkpt>
<trkpt lat="-35.363264" lon="149.1587514">
  <ele>658.1</ele>
  <time>2026-09-01T19:52:53Z</time>
  <course>87.06</course>
  <speed>19.470166922756466</speed>
  <fix>3d</fix>
</trkpt>
<trkpt lat="-35.3632661" lon="149.158709">
  <ele>658.27</ele>
  <time>2026-09-01T19:52:53Z</time>
  <course>86.24</course>
  <speed>19.55</speed>
  <fix>3d</fix>
</trkpt>
<trkpt lat="-35.3632629" lon="149.1587727">
  <ele>658.08</ele>
  <time>2026-09-01T19:52:53Z</time>
  <course>87.02</course>
  <speed>19.450208225106486</speed>
  <fix>3d</fix>
</trkpt>
<trkpt lat="-35.3632638" lon="149.158752">
  <ele>658.23</ele>
  <time>2026-09-01T19:52:53Z</time>
  <course>86.23</course>
  <speed>19.52</speed>
  <fix>3d</fix>
</trkpt>
<trkpt lat="-35.3632617" lon="149.1587941">
  <ele>658.06</ele>
  <time>2026-09-01T19:52:53Z</time>
  <course>87.01</course>
  <speed>19.44087446592874</speed>
  <fix>3d</fix>
</trkpt>
<trkpt lat="-35.3632638" lon="149.158752">
  <ele>658.23</ele>
  <time>2026-09-01T19:52:53Z</time>
  <course>86.23</course>
  <speed>19.52</speed>
  <fix>3d</fix>
</trkpt>
<trkpt lat="-35.3632606" lon="149.1588155">
  <ele>658.05</ele>
  <time>2026-09-01T19:52:53Z</time>
  <course>87.04</course>
  <speed>19.430249612395617</speed>
  <fix>3d</fix>
</trkpt>
<trkpt lat="-35.3632615" lon="149.1587948">
  <ele>658.19</ele>
  <time>2026-09-01T19:52:53Z</time>
  <course>86.22</course>
  <speed>19.5</speed>
  <fix>3d</fix>
</trkpt>
<trkpt lat="-35.3632594" lon="149.158837">
  <ele>658.03</ele>
  <time>2026-09-01T19:52:53Z</time>
  <course>87.06</course>
  <speed>19.420270337974188</speed>
  <fix>3d</fix>
</trkpt>
<trkpt lat="-35.3632615" lon="149.1587948">
  <ele>658.19</ele>
  <time>2026-09-01T19:52:53Z</time>
  <course>86.22</course>
  <speed>19.5</speed>
  <fix>3d</fix>
</trkpt>
<trkpt lat="-35.3632583" lon="149.1588584">
  <ele>658.02</ele>
  <time>2026-09-01T19:52:53Z</time>
  <course>87.05</course>
  <speed>19.40095873919637</speed>
  <fix>3d</fix>
</trkpt>
<trkpt lat="-35.3632592" lon="149.1588377">
  <ele>658.16</ele>
  <time>2026-09-01T19:52:53Z</time>
  <course>86.21</course>
  <speed>19.48</speed>
  <fix>3d</fix>
</trkpt>
<trkpt lat="-35.3632571" lon="149.1588797">
  <ele>658.0</ele>
  <time>2026-09-01T19:52:53Z</time>
  <course>87.06</course>
  <speed>19.390979861781094</speed>
  <fix>3d</fix>
</trkpt>
<trkpt lat="-35.3632592" lon="149.1588377">
  <ele>658.16</ele>
  <time>2026-09-01T19:52:53Z</time>
  <course>86.21</course>
  <speed>19.48</speed>
  <fix>3d</fix>
</trkpt>
<trkpt lat="-35.363256" lon="149.1589011">
  <ele>657.99</ele>
  <time>2026-09-01T19:52:53Z</time>
  <course>87.06</course>
  <speed>19.390979861781094</speed>
  <fix>3d</fix>
</trkpt>
<trkpt lat="-35.3632568" lon="149.1588806">
  <ele>658.13</ele>
  <time>2026-09-01T19:52:53Z</time>
  <course>86.2</course>
  <speed>19.46</speed>
  <fix>3d</fix>
</trkpt>
<trkpt lat="-35.3632548" lon="149.1589225">
  <ele>657.98</ele>
  <time>2026-09-01T19:52:53Z</time>
  <course>87.06</course>
  <speed>19.38100100614001</speed>
  <fix>3d</fix>
</trkpt>
<trkpt lat="-35.3632568" lon="149.1588806">
  <ele>658.13</ele>
  <time>2026-09-01T19:52:53Z</time>
  <course>86.2</course>
  <speed>19.46</speed>
  <fix>3d</fix>
</trkpt>
<trkpt lat="-35.3632537" lon="149.1589438">
  <ele>657.97</ele>
  <time>2026-09-01T19:52:53Z</time>
  <course>87.03</course>
  <speed>19.371022172306755</speed>
  <fix>3d</fix>
</trkpt>
<trkpt lat="-35.3632545" lon="149.1589234">
  <ele>658.11</ele>
  <time>2026-09-01T19:52:53Z</time>
  <course>86.19</course>
  <speed>19.44</speed>
  <fix>3d</fix>
</trkpt>
<trkpt lat="-35.3632525" lon="149.1589652">
  <ele>657.96</ele>
  <time>2026-09-01T19:52:53Z</time>
  <course>87.01</course>
  <speed>19.360395140595656</speed>
  <fix>3d</fix>
</trkpt>
<trkpt lat="-35.3632545" lon="149.1589234">
  <ele>658.11</ele>
  <time>2026-09-01T19:52:53Z</time>
  <course>86.19</course>
  <speed>19.44</speed>
  <fix>3d</fix>
</trkpt>
<trkpt lat="-35.3632514" lon="149.1589865">
  <ele>657.95</ele>
  <time>2026-09-01T19:52:53Z</time>
  <course>87.01</course>
  <speed>19.360395140595656</speed>
  <fix>3d</fix>
</trkpt>
<trkpt lat="-35.3632522" lon="149.1589661">
  <ele>658.08</ele>
  <time>2026-09-01T19:52:53Z</time>
  <course>86.19</course>
  <speed>19.42</speed>
  <fix>3d</fix>
</trkpt>
<trkpt lat="-35.3632502" lon="149.1590079">
  <ele>657.94</ele>
  <time>2026-09-01T19:52:53Z</time>
  <course>87.04</course>
  <speed>19.350416016199755</speed>
  <fix>3d</fix>
</trkpt>
<trkpt lat="-35.3632522" lon="149.1589661">
  <ele>658.08</ele>
  <time>2026-09-01T19:52:53Z</time>
  <course>86.19</course>
  <speed>19.42</speed>
  <fix>3d</fix>
</trkpt>
<trkpt lat="-35.363249" lon="149.1590292">
  <ele>657.92</ele>
  <time>2026-09-01T19:52:53Z</time>
  <course>87.03</course>
  <speed>19.350416016199755</speed>
  <fix>3d</fix>
</trkpt>
<trkpt lat="-35.3632499" lon="149.1590088">
  <ele>658.06</ele>
  <time>2026-09-01T19:52:53Z</time>
  <course>86.2</course>
  <speed>19.41</speed>
  <fix>3d</fix>
</trkpt>
<trkpt lat="-35.3632479" lon="149.1590506">
  <ele>657.92</ele>
  <time>2026-09-01T19:52:53Z</time>
  <course>87.03</course>
  <speed>19.34043691336884</speed>
  <fix>3d</fix>
</trkpt>
<trkpt lat="-35.3632499" lon="149.1590088">
  <ele>658.06</ele>
  <time>2026-09-01T19:52:53Z</time>
  <course>86.2</course>
  <speed>19.41</speed>
  <fix>3d</fix>
</trkpt>
<trkpt lat="-35.3632467" lon="149.1590719">
  <ele>657.91</ele>
  <time>2026-09-01T19:52:53Z</time>
  <course>87.03</course>
  <speed>19.34043691336884</speed>
  <fix>3d</fix>
</trkpt>
<trkpt lat="-35.3632476" lon="149.1590514">
  <ele>658.04</ele>
  <time>2026-09-01T19:52:53Z</time>
  <course>86.2</course>
  <speed>19.4</speed>
  <fix>3d</fix>
</trkpt>
<trkpt lat="-35.3632456" lon="149.1590933">
  <ele>657.9</ele>
  <time>2026-09-01T19:52:53Z</time>
  <course>87.01</course>
  <speed>19.34043691336884</speed>
  <fix>3d</fix>
</trkpt>
<trkpt lat="-35.3632476" lon="149.1590514">
  <ele>658.04</ele>
  <time>2026-09-01T19:52:53Z</time>
  <course>86.2</course>
  <speed>19.4</speed>
  <fix>3d</fix>
</trkpt>
<trkpt lat="-35.3632444" lon="149.1591146">
  <ele>657.89</ele>
  <time>2026-09-01T19:52:53Z</time>
  <course>87.04</course>
  <speed>19.33045783213631</speed>
  <fix>3d</fix>
</trkpt>
<trkpt lat="-35.3632453" lon="149.1590941">
  <ele>658.02</ele>
  <time>2026-09-01T19:52:53Z</time>
  <course>86.21</course>
  <speed>19.38</speed>
  <fix>3d</fix>
</trkpt>
<trkpt lat="-35.3632433" lon="149.159136">
  <ele>657.87</ele>
  <time>2026-09-01T19:52:53Z</time>
  <course>87.06</course>
  <speed>19.33045783213631</speed>
  <fix>3d</fix>
</trkpt>
<trkpt lat="-35.3632453" lon="149.1590941">
  <ele>658.02</ele>
  <time>2026-09-01T19:52:53Z</time>
  <course>86.21</course>
  <speed>19.38</speed>
  <fix>3d</fix>
</trkpt>
<trkpt lat="-35.3632421" lon="149.1591573">
  <ele>657.86</ele>
  <time>2026-09-01T19:52:53Z</time>
  <course>87.06</course>
  <speed>19.33045783213631</speed>
  <fix>3d</fix>
</trkpt>
<trkpt lat="-35.363243" lon="149.1591366">
  <ele>658.0</ele>
  <time>2026-09-01T19:52:53Z</time>
  <course>86.2</course>
  <speed>19.37</speed>
  <fix>3d</fix>
</trkpt>
<trkpt lat="-35.363241" lon="149.1591787">
  <ele>657.85</ele>
  <time>2026-09-01T19:52:53Z</time>
  <course>87.04</course>
  <speed>19.33045783213631</speed>
  <fix>3d</fix>
</trkpt>
<trkpt lat="-35.363243" lon="149.1591366">
  <ele>658.0</ele>
  <time>2026-09-01T19:52:53Z</time>
  <course>86.2</course>
  <speed>19.37</speed>
  <fix>3d</fix>
</trkpt>
<trkpt lat="-35.3632398" lon="149.1592">
  <ele>657.84</ele>
  <time>2026-09-01T19:52:53Z</time>
  <course>87.02</course>
  <speed>19.33045783213631</speed>
  <fix>3d</fix>
</trkpt>
<trkpt lat="-35.3632407" lon="149.1591792">
  <ele>657.98</ele>
  <time>2026-09-01T19:52:53Z</time>
  <course>86.19</course>
  <speed>19.37</speed>
  <fix>3d</fix>
</trkpt>
<trkpt lat="-35.3632387" lon="149.1592214">
  <ele>657.83</ele>
  <time>2026-09-01T19:52:53Z</time>
  <course>86.97</course>
  <speed>19.34043691336884</speed>
  <fix>3d</fix>
</trkpt>
<trkpt lat="-35.3632407" lon="149.1591792">
  <ele>657.98</ele>
  <time>2026-09-01T19:52:53Z</time>
  <course>86.19</course>
  <speed>19.37</speed>
  <fix>3d</fix>
</trkpt>
<trkpt lat="-35.3632375" lon="149.1592428">
  <ele>657.82</ele>
  <time>2026-09-01T19:52:53Z</time>
  <course>86.93</course>
  <speed>19.34043691336884</speed>
  <fix>3d</fix>
</trkpt>
<trkpt lat="-35.3632384" lon="149.1592218">
  <ele>657.95</ele>
  <time>2026-09-01T19:52:53Z</time>
  <course>86.19</course>
  <speed>19.36</speed>
  <fix>3d</fix>
</trkpt>
<trkpt lat="-35.3632363" lon="149.1592641">
  <ele>657.8</ele>
  <time>2026-09-01T19:52:53Z</time>
  <course>86.9</course>
  <speed>19.341085801991575</speed>
  <fix>3d</fix>
</trkpt>
<trkpt lat="-35.3632384" lon="149.1592218">
  <ele>657.95</ele>
  <time>2026-09-01T19:52:53Z</time>
  <course>86.19</course>
  <speed>19.36</speed>
  <fix>3d</fix>
</trkpt>
<trkpt lat="-35.3632352" lon="149.1592853">
  <ele>657.79</ele>
  <time>2026-09-01T19:52:53Z</time>
  <course>86.91</course>
  <speed>19.35171826996249</speed>
  <fix>3d</fix>
</trkpt>
<trkpt lat="-35.3632361" lon="149.1592643">
  <ele>657.93</ele>
  <time>2026-09-01T19:52:53Z</time>
  <course>86.17</course>
  <speed>19.37</speed>
  <fix>3d</fix>
</trkpt>
<trkpt lat="-35.363234" lon="149.1593066">
  <ele>657.78</ele>
  <time>2026-09-01T19:52:53Z</time>
  <course>86.91</course>
  <speed>19.35171826996249</speed>
  <fix>3d</fix>
</trkpt>
<trkpt lat="-35.3632361" lon="149.1592643">
  <ele>657.93</ele>
  <time>2026-09-01T19:52:53Z</time>
  <course>86.17</course>
  <speed>19.37</speed>
  <fix>3d</fix>
</trkpt>
<trkpt lat="-35.3632329" lon="149.159328">
  <ele>657.77</ele>
  <time>2026-09-01T19:52:53Z</time>
  <course>86.89</course>
  <speed>19.35171826996249</speed>
  <fix>3d</fix>
</trkpt>
<trkpt lat="-35.3632337" lon="149.1593069">
  <ele>657.91</ele>
  <time>2026-09-01T19:52:53Z</time>
  <course>86.15</course>
  <speed>19.37</speed>
  <fix>3d</fix>
</trkpt>
<trkpt lat="-35.3632317" lon="149.1593493">
  <ele>657.76</ele>
  <time>2026-09-01T19:52:53Z</time>
  <course>86.84</course>
  <speed>19.35171826996249</speed>
  <fix>3d</fix>
</trkpt>
<trkpt lat="-35.3632337" lon="149.1593069">
  <ele>657.91</ele>
  <time>2026-09-01T19:52:53Z</time>
  <course>86.15</course>
  <speed>19.37</speed>
  <fix>3d</fix>
</trkpt>
<trkpt lat="-35.3632305" lon="149.1593708">
  <ele>657.75</ele>
  <time>2026-09-01T19:52:53Z</time>
  <course>86.84</course>
  <speed>19.352377114969624</speed>
  <fix>3d</fix>
</trkpt>
<trkpt lat="-35.3632337" lon="149.1593069">
  <ele>657.91</ele>
  <time>2026-09-01T19:52:53Z</time>
  <course>86.15</course>
  <speed>19.37</speed>
  <fix>3d</fix>
</trkpt>
<trkpt lat="-35.3632293" lon="149.1593919">
  <ele>657.74</ele>
  <time>2026-09-01T19:52:53Z</time>
  <course>86.85</course>
  <speed>19.352377114969624</speed>
  <fix>3d</fix>
</trkpt>
<trkpt lat="-35.3632314" lon="149.1593495">
  <ele>657.88</ele>
  <time>2026-09-01T19:52:53Z</time>
  <course>86.13</course>
  <speed>19.37</speed>
  <fix>3d</fix>
</trkpt>
<trkpt lat="-35.3632281" lon="149.1594132">
  <ele>657.72</ele>
  <time>2026-09-01T19:52:53Z</time>
  <course>86.87</course>
  <speed>19.342399023906005</speed>
  <fix>3d</fix>
</trkpt>
<trkpt lat="-35.3632291" lon="149.1593922">
  <ele>657.86</ele>
  <time>2026-09-01T19:52:53Z</time>
  <course>86.11</course>
  <speed>19.37</speed>
  <fix>3d</fix>
</trkpt>
<trkpt lat="-35.363227" lon="149.1594344">
  <ele>657.71</ele>
  <time>2026-09-01T19:52:53Z</time>
  <course>86.91</course>
  <speed>19.352377114969624</speed>
  <fix>3d</fix>
</trkpt>
<trkpt lat="-35.3632291" lon="149.1593922">
  <ele>657.86</ele>
  <time>2026-09-01T19:52:53Z</time>
  <course>86.11</course>
  <speed>19.37</speed>
  <fix>3d</fix>
</trkpt>
<trkpt lat="-35.3632258" lon="149.1594557">
  <ele>657.7</ele>
  <time>2026-09-01T19:52:53Z</time>
  <course>86.89</course>
  <speed>19.35171826996249</speed>
  <fix>3d</fix>
</trkpt>
<trkpt lat="-35.3632267" lon="149.1594347">
  <ele>657.83</ele>
  <time>2026-09-01T19:52:53Z</time>
  <course>86.12</course>
  <speed>19.38</speed>
  <fix>3d</fix>
</trkpt>
<trkpt lat="-35.3632246" lon="149.159477">
  <ele>657.68</ele>
  <time>2026-09-01T19:52:53Z</time>
  <course>86.88</course>
  <speed>19.362355228638897</speed>
  <fix>3d</fix>
</trkpt>
<trkpt lat="-35.3632267" lon="149.1594347">
  <ele>657.83</ele>
  <time>2026-09-01T19:52:53Z</time>
  <course>86.12</course>
  <speed>19.38</speed>
  <fix>3d</fix>
</trkpt>
<trkpt lat="-35.3632235" lon="149.1594984">
  <ele>657.67</ele>
  <time>2026-09-01T19:52:53Z</time>
  <course>86.89</course>
  <speed>19.362355228638897</speed>
  <fix>3d</fix>
</trkpt>
<trkpt lat="-35.3632243" lon="149.1594774">
  <ele>657.8</ele>
  <time>2026-09-01T19:52:53Z</time>
  <course>86.12</course>
  <speed>19.39</speed>
  <fix>3d</fix>
</trkpt>
<trkpt lat="-35.3632223" lon="149.1595198">
  <ele>657.65</ele>
  <time>2026-09-01T19:52:53Z</time>
  <course>86.89</course>
  <speed>19.382311523654757</speed>
  <fix>3d</fix>
</trkpt>
<trkpt lat="-35.3632243" lon="149.1594774">
  <ele>657.8</ele>
  <time>2026-09-01T19:52:53Z</time>
  <course>86.12</course>
  <speed>19.39</speed>
  <fix>3d</fix>
</trkpt>
<trkpt lat="-35.3632211" lon="149.1595412">
  <ele>657.64</ele>
  <time>2026-09-01T19:52:53Z</time>
  <course>86.91</course>
  <speed>19.381653696214883</speed>
  <fix>3d</fix>
</trkpt>
<trkpt lat="-35.363222" lon="149.1595201">
  <ele>657.77</ele>
  <time>2026-09-01T19:52:53Z</time>
  <course>86.13</course>
  <speed>19.4</speed>
  <fix>3d</fix>
</trkpt>
<trkpt lat="-35.3632199" lon="149.1595626">
  <ele>657.62</ele>
  <time>2026-09-01T19:52:53Z</time>
  <course>86.94</course>
  <speed>19.402267908675004</speed>
  <fix>3d</fix>
</trkpt>
<trkpt lat="-35.363222" lon="149.1595201">
  <ele>657.77</ele>
  <time>2026-09-01T19:52:53Z</time>
  <course>86.13</course>
  <speed>19.4</speed>
  <fix>3d</fix>
</trkpt>
<trkpt lat="-35.3632187" lon="149.159584">
  <ele>657.6</ele>
  <time>2026-09-01T19:52:53Z</time>
  <course>86.96</course>
  <speed>19.411589321845852</speed>
  <fix>3d</fix>
</trkpt>
<trkpt lat="-35.3632196" lon="149.1595627">
  <ele>657.74</ele>
  <time>2026-09-01T19:52:53Z</time>
  <course>86.14</course>
  <speed>19.42</speed>
  <fix>3d</fix>
</trkpt>
<trkpt lat="-35.3632176" lon="149.1596055">
  <ele>657.59</ele>
  <time>2026-09-01T19:52:53Z</time>
  <course>86.99</course>
  <speed>19.42156790786985</speed>
  <fix>3d</fix>
</trkpt>
<trkpt lat="-35.3632196" lon="149.1595627">
  <ele>657.74</ele>
  <time>2026-09-01T19:52:53Z</time>
  <course>86.14</course>
  <speed>19.42</speed>
  <fix>3d</fix>
</trkpt>
<trkpt lat="-35.3632164" lon="149.1596269">
  <ele>657.57</ele>
  <time>2026-09-01T19:52:53Z</time>
  <course>87.0</course>
  <speed>19.43089550175184</speed>
  <fix>3d</fix>
</trkpt>
<trkpt lat="-35.3632173" lon="149.1596054">
  <ele>657.7</ele>
  <time>2026-09-01T19:52:53Z</time>
  <course>86.16</course>
  <speed>19.43</speed>
  <fix>3d</fix>
</trkpt>
<trkpt lat="-35.3632152" lon="149.1596484">
  <ele>657.56</ele>
  <time>2026-09-01T19:52:53Z</time>
  <course>87.03</course>
  <speed>19.44087446592874</speed>
  <fix>3d</fix>
</trkpt>
<trkpt lat="-35.3632173" lon="149.1596054">
  <ele>657.7</ele>
  <time>2026-09-01T19:52:53Z</time>
  <course>86.16</course>
  <speed>19.43</speed>
  <fix>3d</fix>
</trkpt>
<trkpt lat="-35.3632141" lon="149.1596699">
  <ele>657.55</ele>
  <time>2026-09-01T19:52:53Z</time>
  <course>87.02</course>
  <speed>19.450208225106486</speed>
  <fix>3d</fix>
</trkpt>
<trkpt lat="-35.3632149" lon="149.1596481">
  <ele>657.67</ele>
  <time>2026-09-01T19:52:53Z</time>
  <course>86.19</course>
  <speed>19.44</speed>
  <fix>3d</fix>
</trkpt>
<trkpt lat="-35.3632129" lon="149.1596912">
  <ele>657.53</ele>
  <time>2026-09-01T19:52:53Z</time>
  <course>87.01</course>
  <speed>19.450208225106486</speed>
  <fix>3d</fix>
</trkpt>
<trkpt lat="-35.3632149" lon="149.1596481">
  <ele>657.67</ele>
  <time>2026-09-01T19:52:53Z</time>
  <course>86.19</course>
  <speed>19.44</speed>
  <fix>3d</fix>
</trkpt>
<trkpt lat="-35.3632118" lon="149.1597126">
  <ele>657.51</ele>
  <time>2026-09-01T19:52:53Z</time>
  <course>87.02</course>
  <speed>19.449568118598417</speed>
  <fix>3d</fix>
</trkpt>
<trkpt lat="-35.3632127" lon="149.1596908">
  <ele>657.64</ele>
  <time>2026-09-01T19:52:53Z</time>
  <course>86.23</course>
  <speed>19.45</speed>
  <fix>3d</fix>
</trkpt>
<trkpt lat="-35.3632106" lon="149.1597338">
  <ele>657.49</ele>
  <time>2026-09-01T19:52:53Z</time>
  <course>87.03</course>
  <speed>19.449568118598417</speed>
  <fix>3d</fix>
</trkpt>
<trkpt lat="-35.3632127" lon="149.1596908">
  <ele>657.64</ele>
  <time>2026-09-01T19:52:53Z</time>
  <course>86.23</course>
  <speed>19.45</speed>
  <fix>3d</fix>
</trkpt>
<trkpt lat="-35.3632095" lon="149.1597551">
  <ele>657.48</ele>
  <time>2026-09-01T19:52:53Z</time>
  <course>87.04</course>
  <speed>19.459547785084833</speed>
  <fix>3d</fix>
</trkpt>
<trkpt lat="-35.3632104" lon="149.1597336">
  <ele>657.6</ele>
  <time>2026-09-01T19:52:53Z</time>
  <course>86.25</course>
  <speed>19.46</speed>
  <fix>3d</fix>
</trkpt>
<trkpt lat="-35.3632084" lon="149.1597764">
  <ele>657.46</ele>
  <time>2026-09-01T19:52:53Z</time>
  <course>87.06</course>
  <speed>19.459547785084833</speed>
  <fix>3d</fix>
</trkpt>
<trkpt lat="-35.3632104" lon="149.1597336">
  <ele>657.6</ele>
  <time>2026-09-01T19:52:53Z</time>
  <course>86.25</course>
  <speed>19.46</speed>
  <fix>3d</fix>
</trkpt>
<trkpt lat="-35.3632072" lon="149.1597977">
  <ele>657.44</ele>
  <time>2026-09-01T19:52:53Z</time>
  <course>87.07</course>
  <speed>19.459547785084833</speed>
  <fix>3d</fix>
</trkpt>
<trkpt lat="-35.3632104" lon="149.1597336">
  <ele>657.6</ele>
  <time>2026-09-01T19:52:53Z</time>
  <course>86.25</course>
  <speed>19.46</speed>
  <fix>3d</fix>
</trkpt>
<trkpt lat="-35.3632061" lon="149.1598191">
  <ele>657.42</ele>
  <time>2026-09-01T19:52:53Z</time>
  <course>87.04</course>
  <speed>19.449568118598417</speed>
  <fix>3d</fix>
</trkpt>
<trkpt lat="-35.3632081" lon="149.1597765">
  <ele>657.56</ele>
  <time>2026-09-01T19:52:53Z</time>
  <course>86.26</course>
  <speed>19.47</speed>
  <fix>3d</fix>
</trkpt>
<trkpt lat="-35.363205" lon="149.1598403">
  <ele>657.4</ele>
  <time>2026-09-01T19:52:53Z</time>
  <course>87.03</course>
  <speed>19.449568118598417</speed>
  <fix>3d</fix>
</trkpt>
<trkpt lat="-35.3632081" lon="149.1597765">
  <ele>657.56</ele>
  <time>2026-09-01T19:52:53Z</time>
  <course>86.26</course>
  <speed>19.47</speed>
  <fix>3d</fix>
</trkpt>
<trkpt lat="-35.3632038" lon="149.1598615">
  <ele>657.37</ele>
  <time>2026-09-01T19:52:53Z</time>
  <course>87.04</course>
  <speed>19.43958847301043</speed>
  <fix>3d</fix>
</trkpt>
<trkpt lat="-35.3632058" lon="149.1598194">
  <ele>657.52</ele>
  <time>2026-09-01T19:52:53Z</time>
  <course>86.26</course>
  <speed>19.48</speed>
  <fix>3d</fix>
</trkpt>
<trkpt lat="-35.3632027" lon="149.1598834">
  <ele>657.34</ele>
  <time>2026-09-01T19:52:53Z</time>
  <course>87.05</course>
  <speed>19.43958847301043</speed>
  <fix>3d</fix>
</trkpt>
<trkpt lat="-35.3632058" lon="149.1598194">
  <ele>657.52</ele>
  <time>2026-09-01T19:52:53Z</time>
  <course>86.26</course>
  <speed>19.48</speed>
  <fix>3d</fix>
</trkpt>
<trkpt lat="-35.3632015" lon="149.1599043">
  <ele>657.31</ele>
  <time>2026-09-01T19:52:53Z</time>
  <course>87.04</course>
  <speed>19.43958847301043</speed>
  <fix>3d</fix>
</trkpt>
<trkpt lat="-35.3632035" lon="149.1598622">
  <ele>657.47</ele>
  <time>2026-09-01T19:52:53Z</time>
  <course>86.26</course>
  <speed>19.49</speed>
  <fix>3d</fix>
</trkpt>
<trkpt lat="-35.3632004" lon="149.1599255">
  <ele>657.27</ele>
  <time>2026-09-01T19:52:53Z</time>
  <course>87.04</course>
  <speed>19.440228908117312</speed>
  <fix>3d</fix>
</trkpt>
<trkpt lat="-35.3632035" lon="149.1598622">
  <ele>657.47</ele>
  <time>2026-09-01T19:52:53Z</time>
  <course>86.26</course>
  <speed>19.49</speed>
  <fix>3d</fix>
</trkpt>
<trkpt lat="-35.3631993" lon="149.1599467">
  <ele>657.23</ele>
  <time>2026-09-01T19:52:53Z</time>
  <course>87.07</course>
  <speed>19.440228908117312</speed>
  <fix>3d</fix>
</trkpt>
<trkpt lat="-35.3632012" lon="149.1599051">
  <ele>657.41</ele>
  <time>2026-09-01T19:52:53Z</time>
  <course>86.24</course>
  <speed>19.5</speed>
  <fix>3d</fix>
</trkpt>
<trkpt lat="-35.3631981" lon="149.159968">
  <ele>657.19</ele>
  <time>2026-09-01T19:52:53Z</time>
  <course>87.08</course>
  <speed>19.450208225106486</speed>
  <fix>3d</fix>
</trkpt>
<trkpt lat="-35.3632012" lon="149.1599051">
  <ele>657.41</ele>
  <time>2026-09-01T19:52:53Z</time>
  <course>86.24</course>
  <speed>19.5</speed>
  <fix>3d</fix>
</trkpt>
<trkpt lat="-35.363197" lon="149.1599894">
  <ele>657.15</ele>
  <time>2026-09-01T19:52:53Z</time>
  <course>87.08</course>
  <speed>19.450208225106486</speed>
  <fix>3d</fix>
</trkpt>
<trkpt lat="-35.3631989" lon="149.1599479">
  <ele>657.33</ele>
  <time>2026-09-01T19:52:53Z</time>
  <course>86.24</course>
  <speed>19.52</speed>
  <fix>3d</fix>
</trkpt>
<trkpt lat="-35.3631959" lon="149.1600101">
  <ele>657.1</ele>
  <time>2026-09-01T19:52:53Z</time>
  <course>87.08</course>
  <speed>19.459547785084833</speed>
  <fix>3d</fix>
</trkpt>
<trkpt lat="-35.3631966" lon="149.1599909">
  <ele>657.25</ele>
  <time>2026-09-01T19:52:53Z</time>
  <course>86.25</course>
  <speed>19.54</speed>
  <fix>3d</fix>
</trkpt>
<trkpt lat="-35.3631947" lon="149.1600315">
  <ele>657.06</ele>
  <time>2026-09-01T19:52:54Z</time>
  <course>87.08</course>
  <speed>19.469527472437537</speed>
  <fix>3d</fix>
</trkpt>
<trkpt lat="-35.3631966" lon="149.1599909">
  <ele>657.25</ele>
  <time>2026-09-01T19:52:54Z</time>
  <course>86.25</course>
  <speed>19.54</speed>
  <fix>3d</fix>
</trkpt>
<trkpt lat="-35.3631936" lon="149.160053">
  <ele>657.01</ele>
  <time>2026-09-01T19:52:54Z</time>
  <course>87.1</course>
  <speed>19.479507180624463</speed>
  <fix>3d</fix>
</trkpt>
<trkpt lat="-35.3631944" lon="149.1600339">
  <ele>657.16</ele>
  <time>2026-09-01T19:52:54Z</time>
  <course>86.26</course>
  <speed>19.57</speed>
  <fix>3d</fix>
</trkpt>
<trkpt lat="-35.3631924" lon="149.1600745">
  <ele>656.96</ele>
  <time>2026-09-01T19:52:54Z</time>
  <course>87.1</course>
  <speed>19.49946665937302</speed>
  <fix>3d</fix>
</trkpt>
<trkpt lat="-35.3631944" lon="149.1600339">
  <ele>657.16</ele>
  <time>2026-09-01T19:52:54Z</time>
  <course>86.26</course>
  <speed>19.57</speed>
  <fix>3d</fix>
</trkpt>
<trkpt lat="-35.3631913" lon="149.160096">
  <ele>656.91</ele>
  <time>2026-09-01T19:52:54Z</time>
  <course>87.13</course>
  <speed>19.509446429870838</speed>
  <fix>3d</fix>
</trkpt>
<trkpt lat="-35.3631921" lon="149.1600769">
  <ele>657.07</ele>
  <time>2026-09-01T19:52:54Z</time>
  <course>86.27</course>
  <speed>19.59</speed>
  <fix>3d</fix>
</trkpt>
<trkpt lat="-35.3631901" lon="149.1601176">
  <ele>656.86</ele>
  <time>2026-09-01T19:52:54Z</time>
  <course>87.12</course>
  <speed>19.52940603295451</speed>
  <fix>3d</fix>
</trkpt>
<trkpt lat="-35.3631921" lon="149.1600769">
  <ele>657.07</ele>
  <time>2026-09-01T19:52:54Z</time>
  <course>86.27</course>
  <speed>19.59</speed>
  <fix>3d</fix>
</trkpt>
<trkpt lat="-35.363189" lon="149.1601392">
  <ele>656.81</ele>
  <time>2026-09-01T19:52:54Z</time>
  <course>87.08</course>
  <speed>19.548733974352405</speed>
  <fix>3d</fix>
</trkpt>
<trkpt lat="-35.3631898" lon="149.16012">
  <ele>656.97</ele>
  <time>2026-09-01T19:52:54Z</time>
  <course>86.29</course>
  <speed>19.62</speed>
  <fix>3d</fix>
</trkpt>
<trkpt lat="-35.3631879" lon="149.1601609">
  <ele>656.76</ele>
  <time>2026-09-01T19:52:54Z</time>
  <course>87.06</course>
  <speed>19.558714170415193</speed>
  <fix>3d</fix>
</trkpt>
<trkpt lat="-35.3631898" lon="149.16012">
  <ele>656.97</ele>
  <time>2026-09-01T19:52:54Z</time>
  <course>86.29</course>
  <speed>19.62</speed>
  <fix>3d</fix>
</trkpt>
<trkpt lat="-35.3631867" lon="149.1601823">
  <ele>656.71</ele>
  <time>2026-09-01T19:52:54Z</time>
  <course>87.04</course>
  <speed>19.578674623170997</speed>
  <fix>3d</fix>
</trkpt>
<trkpt lat="-35.3631875" lon="149.1601632">
  <ele>656.86</ele>
  <time>2026-09-01T19:52:54Z</time>
  <course>86.3</course>
  <speed>19.64</speed>
  <fix>3d</fix>
</trkpt>
<trkpt lat="-35.3631856" lon="149.1602041">
  <ele>656.66</ele>
  <time>2026-09-01T19:52:54Z</time>
  <course>87.04</course>
  <speed>19.58928533663237</speed>
  <fix>3d</fix>
</trkpt>
<trkpt lat="-35.3631875" lon="149.1601632">
  <ele>656.86</ele>
  <time>2026-09-01T19:52:54Z</time>
  <course>86.3</course>
  <speed>19.64</speed>
  <fix>3d</fix>
</trkpt>
<trkpt lat="-35.3631845" lon="149.1602258">
  <ele>656.61</ele>
  <time>2026-09-01T19:52:54Z</time>
  <course>87.05</course>
  <speed>19.59926529235216</speed>
  <fix>3d</fix>
</trkpt>
<trkpt lat="-35.3631852" lon="149.1602064">
  <ele>656.76</ele>
  <time>2026-09-01T19:52:54Z</time>
  <course>86.3</course>
  <speed>19.66</speed>
  <fix>3d</fix>
</trkpt>
<trkpt lat="-35.3631833" lon="149.1602475">
  <ele>656.55</ele>
  <time>2026-09-01T19:52:54Z</time>
  <course>87.04</course>
  <speed>19.619225265030217</speed>
  <fix>3d</fix>
</trkpt>
<trkpt lat="-35.3631852" lon="149.1602064">
  <ele>656.76</ele>
  <time>2026-09-01T19:52:54Z</time>
  <course>86.3</course>
  <speed>19.66</speed>
  <fix>3d</fix>
</trkpt>
<trkpt lat="-35.3631821" lon="149.1602694">
  <ele>656.49</ele>
  <time>2026-09-01T19:52:54Z</time>
  <course>87.02</course>
  <speed>19.629205281926215</speed>
  <fix>3d</fix>
</trkpt>
<trkpt lat="-35.3631852" lon="149.1602064">
  <ele>656.76</ele>
  <time>2026-09-01T19:52:54Z</time>
  <course>86.3</course>
  <speed>19.66</speed>
  <fix>3d</fix>
</trkpt>
<trkpt lat="-35.363181" lon="149.1602911">
  <ele>656.43</ele>
  <time>2026-09-01T19:52:54Z</time>
  <course>87.01</course>
  <speed>19.63981924560407</speed>
  <fix>3d</fix>
</trkpt>
<trkpt lat="-35.3631829" lon="149.1602497">
  <ele>656.65</ele>
  <time>2026-09-01T19:52:54Z</time>
  <course>86.29</course>
  <speed>19.67</speed>
  <fix>3d</fix>
</trkpt>
<trkpt lat="-35.3631799" lon="149.1603127">
  <ele>656.37</ele>
  <time>2026-09-01T19:52:54Z</time>
  <course>87.04</course>
  <speed>19.63981924560407</speed>
  <fix>3d</fix>
</trkpt>
<trkpt lat="-35.3631829" lon="149.1602497">
  <ele>656.65</ele>
  <time>2026-09-01T19:52:54Z</time>
  <course>86.29</course>
  <speed>19.67</speed>
  <fix>3d</fix>
</trkpt>
<trkpt lat="-35.3631787" lon="149.160335">
  <ele>656.3</ele>
  <time>2026-09-01T19:52:54Z</time>
  <course>87.1</course>
  <speed>19.64979898116009</speed>
  <fix>3d</fix>
</trkpt>
<trkpt lat="-35.3631807" lon="149.160293">
  <ele>656.53</ele>
  <time>2026-09-01T19:52:54Z</time>
  <course>86.28</course>
  <speed>19.69</speed>
  <fix>3d</fix>
</trkpt>
<trkpt lat="-35.3631775" lon="149.1603564">
  <ele>656.23</ele>
  <time>2026-09-01T19:52:54Z</time>
  <course>87.11</course>
  <speed>19.64979898116009</speed>
  <fix>3d</fix>
</trkpt>
<trkpt lat="-35.3631807" lon="149.160293">
  <ele>656.53</ele>
  <time>2026-09-01T19:52:54Z</time>
  <course>86.28</course>
  <speed>19.69</speed>
  <fix>3d</fix>
</trkpt>
<trkpt lat="-35.3631764" lon="149.1603778">
  <ele>656.15</ele>
  <time>2026-09-01T19:52:54Z</time>
  <course>87.12</course>
  <speed>19.63981924560407</speed>
  <fix>3d</fix>
</trkpt>
<trkpt lat="-35.3631784" lon="149.1603363">
  <ele>656.4</ele>
  <time>2026-09-01T19:52:54Z</time>
  <course>86.28</course>
  <speed>19.7</speed>
  <fix>3d</fix>
</trkpt>
<trkpt lat="-35.3631753" lon="149.1603993">
  <ele>656.07</ele>
  <time>2026-09-01T19:52:54Z</time>
  <course>87.11</course>
  <speed>19.63981924560407</speed>
  <fix>3d</fix>
</trkpt>
<trkpt lat="-35.3631784" lon="149.1603363">
  <ele>656.4</ele>
  <time>2026-09-01T19:52:54Z</time>
  <course>86.28</course>
  <speed>19.7</speed>
  <fix>3d</fix>
</trkpt>
<trkpt lat="-35.3631741" lon="149.1604207">
  <ele>655.98</ele>
  <time>2026-09-01T19:52:54Z</time>
  <course>87.12</course>
  <speed>19.629839530673703</speed>
  <fix>3d</fix>
</trkpt>
<trkpt lat="-35.3631761" lon="149.1603796">
  <ele>656.25</ele>
  <time>2026-09-01T19:52:54Z</time>
  <course>86.28</course>
  <speed>19.71</speed>
  <fix>3d</fix>
</trkpt>
<trkpt lat="-35.363173" lon="149.1604423">
  <ele>655.88</ele>
  <time>2026-09-01T19:52:54Z</time>
  <course>87.09</course>
  <speed>19.629839530673703</speed>
  <fix>3d</fix>
</trkpt>
<trkpt lat="-35.3631761" lon="149.1603796">
  <ele>656.25</ele>
  <time>2026-09-01T19:52:54Z</time>
  <course>86.28</course>
  <speed>19.71</speed>
  <fix>3d</fix>
</trkpt>
<trkpt lat="-35.3631719" lon="149.1604636">
  <ele>655.78</ele>
  <time>2026-09-01T19:52:54Z</time>
  <course>87.06</course>
  <speed>19.629839530673703</speed>
  <fix>3d</fix>
</trkpt>
<trkpt lat="-35.3631738" lon="149.1604229">
  <ele>656.07</ele>
  <time>2026-09-01T19:52:54Z</time>
  <course>86.28</course>
  <speed>19.71</speed>
  <fix>3d</fix>
</trkpt>
<trkpt lat="-35.3631707" lon="149.160485">
  <ele>655.66</ele>
  <time>2026-09-01T19:52:54Z</time>
  <course>87.07</course>
  <speed>19.629839530673703</speed>
  <fix>3d</fix>
</trkpt>
<trkpt lat="-35.3631738" lon="149.1604229">
  <ele>656.07</ele>
  <time>2026-09-01T19:52:54Z</time>
  <course>86.28</course>
  <speed>19.71</speed>
  <fix>3d</fix>
</trkpt>
<trkpt lat="-35.3631696" lon="149.1605064">
  <ele>655.54</ele>
  <time>2026-09-01T19:52:54Z</time>
  <course>87.1</course>
  <speed>19.629839530673703</speed>
  <fix>3d</fix>
</trkpt>
<trkpt lat="-35.3631715" lon="149.1604663">
  <ele>655.88</ele>
  <time>2026-09-01T19:52:54Z</time>
  <course>86.29</course>
  <speed>19.72</speed>
  <fix>3d</fix>
</trkpt>
<trkpt lat="-35.3631685" lon="149.1605279">
  <ele>655.42</ele>
  <time>2026-09-01T19:52:54Z</time>
  <course>87.13</course>
  <speed>19.629205281926215</speed>
  <fix>3d</fix>
</trkpt>
<trkpt lat="-35.3631715" lon="149.1604663">
  <ele>655.88</ele>
  <time>2026-09-01T19:52:54Z</time>
  <course>86.29</course>
  <speed>19.72</speed>
  <fix>3d</fix>
</trkpt>
<trkpt lat="-35.3631673" lon="149.1605494">
  <ele>655.28</ele>
  <time>2026-09-01T19:52:54Z</time>
  <course>87.13</course>
  <speed>19.639185319152116</speed>
  <fix>3d</fix>
</trkpt>
<trkpt lat="-35.3631692" lon="149.1605096">
  <ele>655.64</ele>
  <time>2026-09-01T19:52:54Z</time>
  <course>86.29</course>
  <speed>19.74</speed>
  <fix>3d</fix>
</trkpt>
<trkpt lat="-35.3631662" lon="149.160571">
  <ele>655.14</ele>
  <time>2026-09-01T19:52:54Z</time>
  <course>87.14</course>
  <speed>19.649165376676944</speed>
  <fix>3d</fix>
</trkpt>
<trkpt lat="-35.3631692" lon="149.1605096">
  <ele>655.64</ele>
  <time>2026-09-01T19:52:54Z</time>
  <course>86.29</course>
  <speed>19.74</speed>
  <fix>3d</fix>
</trkpt>
<trkpt lat="-35.363165" lon="149.1605927">
  <ele>654.99</ele>
  <time>2026-09-01T19:52:54Z</time>
  <course>87.14</course>
  <speed>19.659145454469787</speed>
  <fix>3d</fix>
</trkpt>
<trkpt lat="-35.3631669" lon="149.1605531">
  <ele>655.38</ele>
  <time>2026-09-01T19:52:54Z</time>
  <course>86.3</course>
  <speed>19.76</speed>
  <fix>3d</fix>
</trkpt>
<trkpt lat="-35.3631639" lon="149.1606139">
  <ele>654.84</ele>
  <time>2026-09-01T19:52:54Z</time>
  <course>87.08</course>
  <speed>19.679105670736156</speed>
  <fix>3d</fix>
</trkpt>
<trkpt lat="-35.3631646" lon="149.1605965">
  <ele>655.09</ele>
  <time>2026-09-01T19:52:54Z</time>
  <course>86.31</course>
  <speed>19.78</speed>
  <fix>3d</fix>
</trkpt>
<trkpt lat="-35.3631628" lon="149.1606356">
  <ele>654.67</ele>
  <time>2026-09-01T19:52:54Z</time>
  <course>87.04</course>
  <speed>19.69906596770517</speed>
  <fix>3d</fix>
</trkpt>
<trkpt lat="-35.3631646" lon="149.1605965">
  <ele>655.09</ele>
  <time>2026-09-01T19:52:54Z</time>
  <course>86.31</course>
  <speed>19.78</speed>
  <fix>3d</fix>
</trkpt>
<trkpt lat="-35.3631616" lon="149.1606574">
  <ele>654.5</ele>
  <time>2026-09-01T19:52:54Z</time>
  <course>87.04</course>
  <speed>19.719657704940012</speed>
  <fix>3d</fix>
</trkpt>
<trkpt lat="-35.3631623" lon="149.16064">
  <ele>654.77</ele>
  <time>2026-09-01T19:52:54Z</time>
  <course>86.31</course>
  <speed>19.8</speed>
  <fix>3d</fix>
</trkpt>
<trkpt lat="-35.3631605" lon="149.1606795">
  <ele>654.33</ele>
  <time>2026-09-01T19:52:54Z</time>
  <course>87.05</course>
  <speed>19.74959746425228</speed>
  <fix>3d</fix>
</trkpt>
<trkpt lat="-35.3631623" lon="149.16064">
  <ele>654.77</ele>
  <time>2026-09-01T19:52:54Z</time>
  <course>86.31</course>
  <speed>19.8</speed>
  <fix>3d</fix>
</trkpt>
<trkpt lat="-35.3631593" lon="149.1607015">
  <ele>654.15</ele>
  <time>2026-09-01T19:52:54Z</time>
  <course>87.06</course>
  <speed>19.769557405263274</speed>
  <fix>3d</fix>
</trkpt>
<trkpt lat="-35.3631623" lon="149.16064">
  <ele>654.77</ele>
  <time>2026-09-01T19:52:54Z</time>
  <course>86.31</course>
  <speed>19.8</speed>
  <fix>3d</fix>
</trkpt>
<trkpt lat="-35.3631581" lon="149.1607236">
  <ele>653.96</ele>
  <time>2026-09-01T19:52:54Z</time>
  <course>87.07</course>
  <speed>19.7895174271633</speed>
  <fix>3d</fix>
</trkpt>
<trkpt lat="-35.36316" lon="149.1606837">
  <ele>654.43</ele>
  <time>2026-09-01T19:52:54Z</time>
  <course>86.3</course>
  <speed>19.83</speed>
  <fix>3d</fix>
</trkpt>
<trkpt lat="-35.363157" lon="149.1607454">
  <ele>653.77</ele>
  <time>2026-09-01T19:52:54Z</time>
  <course>87.06</course>
  <speed>19.809477529707845</speed>
  <fix>3d</fix>
</trkpt>
<trkpt lat="-35.36316" lon="149.1606837">
  <ele>654.43</ele>
  <time>2026-09-01T19:52:54Z</time>
  <course>86.3</course>
  <speed>19.83</speed>
  <fix>3d</fix>
</trkpt>
<trkpt lat="-35.3631558" lon="149.1607671">
  <ele>653.58</ele>
  <time>2026-09-01T19:52:54Z</time>
  <course>87.04</course>
  <speed>19.81011105471143</speed>
  <fix>3d</fix>
</trkpt>
<trkpt lat="-35.3631577" lon="149.1607273">
  <ele>654.07</ele>
  <time>2026-09-01T19:52:54Z</time>
  <course>86.3</course>
  <speed>19.86</speed>
  <fix>3d</fix>
</trkpt>
<trkpt lat="-35.3631547" lon="149.1607895">
  <ele>653.37</ele>
  <time>2026-09-01T19:52:54Z</time>
  <course>87.06</course>
  <speed>19.820090817148138</speed>
  <fix>3d</fix>
</trkpt>
<trkpt lat="-35.3631577" lon="149.1607273">
  <ele>654.07</ele>
  <time>2026-09-01T19:52:54Z</time>
  <course>86.3</course>
  <speed>19.86</speed>
  <fix>3d</fix>
</trkpt>
<trkpt lat="-35.3631535" lon="149.160811">
  <ele>653.17</ele>
  <time>2026-09-01T19:52:54Z</time>
  <course>87.09</course>
  <speed>19.820090817148138</speed>
  <fix>3d</fix>
</trkpt>
<trkpt lat="-35.3631554" lon="149.160771">
  <ele>653.69</ele>
  <time>2026-09-01T19:52:54Z</time>
  <course>86.29</course>
  <speed>19.88</speed>
  <fix>3d</fix>
</trkpt>
<trkpt lat="-35.3631524" lon="149.1608326">
  <ele>652.97</ele>
  <time>2026-09-01T19:52:54Z</time>
  <course>87.1</course>
  <speed>19.83007059997518</speed>
  <fix>3d</fix>
</trkpt>
<trkpt lat="-35.3631554" lon="149.160771">
  <ele>653.69</ele>
  <time>2026-09-01T19:52:54Z</time>
  <course>86.29</course>
  <speed>19.88</speed>
  <fix>3d</fix>
</trkpt>
<trkpt lat="-35.3631512" lon="149.1608543">
  <ele>652.76</ele>
  <time>2026-09-01T19:52:54Z</time>
  <course>87.11</course>
  <speed>19.83007059997518</speed>
  <fix>3d</fix>
</trkpt>
<trkpt lat="-35.3631531" lon="149.1608148">
  <ele>653.29</ele>
  <time>2026-09-01T19:52:54Z</time>
  <course>86.28</course>
  <speed>19.91</speed>
  <fix>3d</fix>
</trkpt>
<trkpt lat="-35.3631501" lon="149.1608761">
  <ele>652.54</ele>
  <time>2026-09-01T19:52:54Z</time>
  <course>87.11</course>
  <speed>19.840050403161783</speed>
  <fix>3d</fix>
</trkpt>
<trkpt lat="-35.3631531" lon="149.1608148">
  <ele>653.29</ele>
  <time>2026-09-01T19:52:54Z</time>
  <course>86.28</course>
  <speed>19.91</speed>
  <fix>3d</fix>
</trkpt>
<trkpt lat="-35.3631489" lon="149.1608981">
  <ele>652.32</ele>
  <time>2026-09-01T19:52:54Z</time>
  <course>87.11</course>
  <speed>19.850030226677237</speed>
  <fix>3d</fix>
</trkpt>
<trkpt lat="-35.3631508" lon="149.1608585">
  <ele>652.88</ele>
  <time>2026-09-01T19:52:54Z</time>
  <course>86.28</course>
  <speed>19.93</speed>
  <fix>3d</fix>
</trkpt>
<trkpt lat="-35.3631477" lon="149.1609199">
  <ele>652.1</ele>
  <time>2026-09-01T19:52:54Z</time>
  <course>87.09</course>
  <speed>19.8600100704909</speed>
  <fix>3d</fix>
</trkpt>
<trkpt lat="-35.3631508" lon="149.1608585">
  <ele>652.88</ele>
  <time>2026-09-01T19:52:54Z</time>
  <course>86.28</course>
  <speed>19.93</speed>
  <fix>3d</fix>
</trkpt>
<trkpt lat="-35.3631466" lon="149.1609418">
  <ele>651.88</ele>
  <time>2026-09-01T19:52:54Z</time>
  <course>87.07</course>
  <speed>19.869989934572185</speed>
  <fix>3d</fix>
</trkpt>
<trkpt lat="-35.3631485" lon="149.1609024">
  <ele>652.44</ele>
  <time>2026-09-01T19:52:54Z</time>
  <course>86.29</course>
  <speed>19.95</speed>
  <fix>3d</fix>
</trkpt>
<trkpt lat="-35.3631454" lon="149.1609637">
  <ele>651.65</ele>
  <time>2026-09-01T19:52:54Z</time>
  <course>87.09</course>
  <speed>19.87996981889057</speed>
  <fix>3d</fix>
</trkpt>
<trkpt lat="-35.3631485" lon="149.1609024">
  <ele>652.44</ele>
  <time>2026-09-01T19:52:54Z</time>
  <course>86.29</course>
  <speed>19.95</speed>
  <fix>3d</fix>
</trkpt>
<trkpt lat="-35.3631443" lon="149.1609856">
  <ele>651.42</ele>
  <time>2026-09-01T19:52:54Z</time>
  <course>87.09</course>
  <speed>19.87996981889057</speed>
  <fix>3d</fix>
</trkpt>
<trkpt lat="-35.3631462" lon="149.1609463">
  <ele>652.01</ele>
  <time>2026-09-01T19:52:54Z</time>
  <course>86.3</course>
  <speed>19.96</speed>
  <fix>3d</fix>
</trkpt>
<trkpt lat="-35.3631431" lon="149.1610075">
  <ele>651.19</ele>
  <time>2026-09-01T19:52:54Z</time>
  <course>87.11</course>
  <speed>19.889949723415594</speed>
  <fix>3d</fix>
</trkpt>
<trkpt lat="-35.3631462" lon="149.1609463">
  <ele>652.01</ele>
  <time>2026-09-01T19:52:54Z</time>
  <course>86.3</course>
  <speed>19.96</speed>
  <fix>3d</fix>
</trkpt>
<trkpt lat="-35.363142" lon="149.1610295">
  <ele>650.95</ele>
  <time>2026-09-01T19:52:54Z</time>
  <course>87.09</course>
  <speed>19.89992964811685</speed>
  <fix>3d</fix>
</trkpt>
<trkpt lat="-35.3631439" lon="149.1609902">
  <ele>651.56</ele>
  <time>2026-09-01T19:52:54Z</time>
  <course>86.31</course>
  <speed>19.98</speed>
  <fix>3d</fix>
</trkpt>
<trkpt lat="-35.3631408" lon="149.1610514">
  <ele>650.71</ele>
  <time>2026-09-01T19:52:54Z</time>
  <course>87.09</course>
  <speed>19.909909592964002</speed>
  <fix>3d</fix>
</trkpt>
<trkpt lat="-35.3631439" lon="149.1609902">
  <ele>651.56</ele>
  <time>2026-09-01T19:52:54Z</time>
  <course>86.31</course>
  <speed>19.98</speed>
  <fix>3d</fix>
</trkpt>
<trkpt lat="-35.3631397" lon="149.1610734">
  <ele>650.47</ele>
  <time>2026-09-01T19:52:54Z</time>
  <course>87.09</course>
  <speed>19.919259524389958</speed>
  <fix>3d</fix>
</trkpt>
<trkpt lat="-35.3631415" lon="149.1610341">
  <ele>651.08</ele>
  <time>2026-09-01T19:52:54Z</time>
  <course>86.31</course>
  <speed>19.99</speed>
  <fix>3d</fix>
</trkpt>
<trkpt lat="-35.3631385" lon="149.1610954">
  <ele>650.23</ele>
  <time>2026-09-01T19:52:54Z</time>
  <course>87.09</course>
  <speed>19.909279243608996</speed>
  <fix>3d</fix>
</trkpt>
<trkpt lat="-35.3631415" lon="149.1610341">
  <ele>651.08</ele>
  <time>2026-09-01T19:52:54Z</time>
  <course>86.31</course>
  <speed>19.99</speed>
  <fix>3d</fix>
</trkpt>
<trkpt lat="-35.3631374" lon="149.1611173">
  <ele>649.99</ele>
  <time>2026-09-01T19:52:54Z</time>
  <course>87.1</course>
  <speed>19.84939797575735</speed>
  <fix>3d</fix>
</trkpt>
<trkpt lat="-35.3631392" lon="149.1610781">
  <ele>650.61</ele>
  <time>2026-09-01T19:52:54Z</time>
  <course>86.32</course>
  <speed>19.99</speed>
  <fix>3d</fix>
</trkpt>
<trkpt lat="-35.3631362" lon="149.1611392">
  <ele>649.78</ele>
  <time>2026-09-01T19:52:54Z</time>
  <course>87.11</course>
  <speed>19.74959746425228</speed>
  <fix>3d</fix>
</trkpt>
<trkpt lat="-35.3631392" lon="149.1610781">
  <ele>650.61</ele>
  <time>2026-09-01T19:52:54Z</time>
  <course>86.32</course>
  <speed>19.99</speed>
  <fix>3d</fix>
</trkpt>
<trkpt lat="-35.3631351" lon="149.1611609">
  <ele>649.59</ele>
  <time>2026-09-01T19:52:54Z</time>
  <course>87.11</course>
  <speed>19.639185319152116</speed>
  <fix>3d</fix>
</trkpt>
<trkpt lat="-35.3631369" lon="149.1611221">
  <ele>650.15</ele>
  <time>2026-09-01T19:52:54Z</time>
  <course>86.32</course>
  <speed>19.91</speed>
  <fix>3d</fix>
</trkpt>
<trkpt lat="-35.363134" lon="149.1611825">
  <ele>649.42</ele>
  <time>2026-09-01T19:52:54Z</time>
  <course>87.11</course>
  <speed>19.498833298430963</speed>
  <fix>3d</fix>
</trkpt>
<trkpt lat="-35.3631369" lon="149.1611221">
  <ele>650.15</ele>
  <time>2026-09-01T19:52:54Z</time>
  <course>86.32</course>
  <speed>19.91</speed>
  <fix>3d</fix>
</trkpt>
<trkpt lat="-35.3631328" lon="149.1612039">
  <ele>649.27</ele>
  <time>2026-09-01T19:52:54Z</time>
  <course>87.11</course>
  <speed>19.35848134539484</speed>
  <fix>3d</fix>
</trkpt>
<trkpt lat="-35.3631346" lon="149.1611657">
  <ele>649.75</ele>
  <time>2026-09-01T19:52:54Z</time>
  <course>86.33</course>
  <speed>19.71</speed>
  <fix>3d</fix>
</trkpt>
<trkpt lat="-35.3631317" lon="149.1612246">
  <ele>649.15</ele>
  <time>2026-09-01T19:52:54Z</time>
  <course>87.12</course>
  <speed>19.208149312206004</speed>
  <fix>3d</fix>
</trkpt>
<trkpt lat="-35.3631346" lon="149.1611657">
  <ele>649.75</ele>
  <time>2026-09-01T19:52:54Z</time>
  <course>86.33</course>
  <speed>19.71</speed>
  <fix>3d</fix>
</trkpt>
<trkpt lat="-35.3631306" lon="149.1612464">
  <ele>649.04</ele>
  <time>2026-09-01T19:52:54Z</time>
  <course>87.12</course>
  <speed>19.048469754812327</speed>
  <fix>3d</fix>
</trkpt>
<trkpt lat="-35.3631324" lon="149.1612087">
  <ele>649.43</ele>
  <time>2026-09-01T19:52:54Z</time>
  <course>86.33</course>
  <speed>19.44</speed>
  <fix>3d</fix>
</trkpt>
<trkpt lat="-35.3631295" lon="149.1612671">
  <ele>648.96</ele>
  <time>2026-09-01T19:52:54Z</time>
  <course>87.12</course>
  <speed>18.878177878174576</speed>
  <fix>3d</fix>
</trkpt>
<trkpt lat="-35.3631324" lon="149.1612087">
  <ele>649.43</ele>
  <time>2026-09-01T19:52:54Z</time>
  <course>86.33</course>
  <speed>19.44</speed>
  <fix>3d</fix>
</trkpt>
<trkpt lat="-35.3631284" lon="149.1612879">
  <ele>648.89</ele>
  <time>2026-09-01T19:52:54Z</time>
  <course>87.12</course>
  <speed>18.717865797146853</speed>
  <fix>3d</fix>
</trkpt>
<trkpt lat="-35.3631302" lon="149.1612511">
  <ele>649.2</ele>
  <time>2026-09-01T19:52:54Z</time>
  <course>86.34</course>
  <speed>19.13</speed>
  <fix>3d</fix>
</trkpt>
<trkpt lat="-35.3631273" lon="149.1613085">
  <ele>648.83</ele>
  <time>2026-09-01T19:52:54Z</time>
  <course>87.11</course>
  <speed>18.537594234419956</speed>
  <fix>3d</fix>
</trkpt>
<trkpt lat="-35.3631302" lon="149.1612511">
  <ele>649.2</ele>
  <time>2026-09-01T19:52:54Z</time>
  <course>86.34</course>
  <speed>19.13</speed>
  <fix>3d</fix>
</trkpt>
<trkpt lat="-35.3631263" lon="149.161329">
  <ele>648.79</ele>
  <time>2026-09-01T19:52:54Z</time>
  <course>87.11</course>
  <speed>18.36730246933392</speed>
  <fix>3d</fix>
</trkpt>
<trkpt lat="-35.363128" lon="149.1612928">
  <ele>649.05</ele>
  <time>2026-09-01T19:52:54Z</time>
  <course>86.34</course>
  <speed>18.79</speed>
  <fix>3d</fix>
</trkpt>
<trkpt lat="-35.3631252" lon="149.1613494">
  <ele>648.76</ele>
  <time>2026-09-01T19:52:54Z</time>
  <course>87.11</course>
  <speed>18.197010743525983</speed>
  <fix>3d</fix>
</trkpt>
<trkpt lat="-35.363128" lon="149.1612928">
  <ele>649.05</ele>
  <time>2026-09-01T19:52:54Z</time>
  <course>86.34</course>
  <speed>18.79</speed>
  <fix>3d</fix>
</trkpt>
<trkpt lat="-35.3631241" lon="149.1613693">
  <ele>648.73</ele>
  <time>2026-09-01T19:52:54Z</time>
  <course>87.11</course>
  <speed>18.016103907338014</speed>
  <fix>3d</fix>
</trkpt>
<trkpt lat="-35.3631259" lon="149.1613337">
  <ele>648.94</ele>
  <time>2026-09-01T19:52:54Z</time>
  <course>86.35</course>
  <speed>18.43</speed>
  <fix>3d</fix>
</trkpt>
<trkpt lat="-35.3631231" lon="149.1613891">
  <ele>648.71</ele>
  <time>2026-09-01T19:52:54Z</time>
  <course>87.11</course>
  <speed>17.83583191219294</speed>
  <fix>3d</fix>
</trkpt>
<trkpt lat="-35.3631259" lon="149.1613337">
  <ele>648.94</ele>
  <time>2026-09-01T19:52:54Z</time>
  <course>86.35</course>
  <speed>18.43</speed>
  <fix>3d</fix>
</trkpt>
<trkpt lat="-35.3631221" lon="149.1614086">
  <ele>648.69</ele>
  <time>2026-09-01T19:52:54Z</time>
  <course>87.12</course>
  <speed>17.655560030766512</speed>
  <fix>3d</fix>
</trkpt>
<trkpt lat="-35.3631238" lon="149.1613738">
  <ele>648.88</ele>
  <time>2026-09-01T19:52:54Z</time>
  <course>86.36</course>
  <speed>18.07</speed>
  <fix>3d</fix>
</trkpt>
<trkpt lat="-35.3631211" lon="149.161428">
  <ele>648.68</ele>
  <time>2026-09-01T19:52:54Z</time>
  <course>87.12</course>
  <speed>17.48526808487648</speed>
  <fix>3d</fix>
</trkpt>
<trkpt lat="-35.3631238" lon="149.1613738">
  <ele>648.88</ele>
  <time>2026-09-01T19:52:54Z</time>
  <course>86.36</course>
  <speed>18.07</speed>
  <fix>3d</fix>
</trkpt>
<trkpt lat="-35.3631201" lon="149.1614472">
  <ele>648.66</ele>
  <time>2026-09-01T19:52:54Z</time>
  <course>87.12</course>
  <speed>17.324323940633295</speed>
  <fix>3d</fix>
</trkpt>
<trkpt lat="-35.3631218" lon="149.1614132">
  <ele>648.85</ele>
  <time>2026-09-01T19:52:54Z</time>
  <course>86.37</course>
  <speed>17.71</speed>
  <fix>3d</fix>
</trkpt>
<trkpt lat="-35.3631191" lon="149.1614663">
  <ele>648.62</ele>
  <time>2026-09-01T19:52:54Z</time>
  <course>87.12</course>
  <speed>17.173991964595768</speed>
  <fix>3d</fix>
</trkpt>
<trkpt lat="-35.3631218" lon="149.1614132">
  <ele>648.85</ele>
  <time>2026-09-01T19:52:54Z</time>
  <course>86.37</course>
  <speed>17.71</speed>
  <fix>3d</fix>
</trkpt>
<trkpt lat="-35.3631181" lon="149.1614853">
  <ele>648.56</ele>
  <time>2026-09-01T19:52:54Z</time>
  <course>87.12</course>
  <speed>17.03364024511496</speed>
  <fix>3d</fix>
</trkpt>
<trkpt lat="-35.3631198" lon="149.1614518">
  <ele>648.81</ele>
  <time>2026-09-01T19:52:54Z</time>
  <course>86.4</course>
  <speed>17.37</speed>
  <fix>3d</fix>
</trkpt>
<trkpt lat="-35.3631171" lon="149.1615041">
  <ele>648.48</ele>
  <time>2026-09-01T19:52:54Z</time>
  <course>87.13</course>
  <speed>16.913249244305483</speed>
  <fix>3d</fix>
</trkpt>
<trkpt lat="-35.3631198" lon="149.1614518">
  <ele>648.81</ele>
  <time>2026-09-01T19:52:54Z</time>
  <course>86.4</course>
  <speed>17.37</speed>
  <fix>3d</fix>
</trkpt>
<trkpt lat="-35.3631162" lon="149.1615229">
  <ele>648.38</ele>
  <time>2026-09-01T19:52:54Z</time>
  <course>87.13</course>
  <speed>16.80283904582794</speed>
  <fix>3d</fix>
</trkpt>
<trkpt lat="-35.3631179" lon="149.1614896">
  <ele>648.71</ele>
  <time>2026-09-01T19:52:54Z</time>
  <course>86.43</course>
  <speed>17.07</speed>
  <fix>3d</fix>
</trkpt>
<trkpt lat="-35.3631153" lon="149.1615414">
  <ele>648.25</ele>
  <time>2026-09-01T19:52:54Z</time>
  <course>87.14</course>
  <speed>16.70241000574468</speed>
  <fix>3d</fix>
</trkpt>
<trkpt lat="-35.3631179" lon="149.1614896">
  <ele>648.71</ele>
  <time>2026-09-01T19:52:54Z</time>
  <course>86.43</course>
  <speed>17.07</speed>
  <fix>3d</fix>
</trkpt>
<trkpt lat="-35.3631143" lon="149.1615599">
  <ele>648.09</ele>
  <time>2026-09-01T19:52:54Z</time>
  <course>87.15</course>
  <speed>16.62194332802275</speed>
  <fix>3d</fix>
</trkpt>
<trkpt lat="-35.363116" lon="149.1615269">
  <ele>648.52</ele>
  <time>2026-09-01T19:52:54Z</time>
  <course>86.45</course>
  <speed>16.82</speed>
  <fix>3d</fix>
</trkpt>
<trkpt lat="-35.3631134" lon="149.1615783">
  <ele>647.92</ele>
  <time>2026-09-01T19:52:54Z</time>
  <course>87.16</course>
  <speed>16.551459150177667</speed>
  <fix>3d</fix>
</trkpt>
<trkpt lat="-35.363116" lon="149.1615269">
  <ele>648.52</ele>
  <time>2026-09-01T19:52:54Z</time>
  <course>86.45</course>
  <speed>16.82</speed>
  <fix>3d</fix>
</trkpt>
<trkpt lat="-35.3631125" lon="149.1615967">
  <ele>647.72</ele>
  <time>2026-09-01T19:52:54Z</time>
  <course>87.17</course>
  <speed>16.500939367199674</speed>
  <fix>3d</fix>
</trkpt>
<trkpt lat="-35.3631141" lon="149.1615636">
  <ele>648.24</ele>
  <time>2026-09-01T19:52:54Z</time>
  <course>86.47</course>
  <speed>16.63</speed>
  <fix>3d</fix>
</trkpt>
<trkpt lat="-35.3631116" lon="149.1616149">
  <ele>647.52</ele>
  <time>2026-09-01T19:52:54Z</time>
  <course>87.18</course>
  <speed>16.46101454953491</speed>
  <fix>3d</fix>
</trkpt>
<trkpt lat="-35.3631141" lon="149.1615636">
  <ele>648.24</ele>
  <time>2026-09-01T19:52:54Z</time>
  <course>86.47</course>
  <speed>16.63</speed>
  <fix>3d</fix>
</trkpt>
<trkpt lat="-35.3631107" lon="149.1616331">
  <ele>647.3</ele>
  <time>2026-09-01T19:52:54Z</time>
  <course>87.19</course>
  <speed>16.440440991652263</speed>
  <fix>3d</fix>
</trkpt>
<trkpt lat="-35.3631123" lon="149.1616001">
  <ele>647.88</ele>
  <time>2026-09-01T19:52:54Z</time>
  <course>86.49</course>
  <speed>16.49</speed>
  <fix>3d</fix>
</trkpt>
<trkpt lat="-35.3631098" lon="149.1616513">
  <ele>647.08</ele>
  <time>2026-09-01T19:52:54Z</time>
  <course>87.19</course>
  <speed>16.4304595188327</speed>
  <fix>3d</fix>
</trkpt>
<trkpt lat="-35.3631123" lon="149.1616001">
  <ele>647.88</ele>
  <time>2026-09-01T19:52:54Z</time>
  <course>86.49</course>
  <speed>16.49</speed>
  <fix>3d</fix>
</trkpt>
<trkpt lat="-35.3631089" lon="149.1616695">
  <ele>646.86</ele>
  <time>2026-09-01T19:52:54Z</time>
  <course>87.2</course>
  <speed>16.4304595188327</speed>
  <fix>3d</fix>
</trkpt>
<trkpt lat="-35.3631105" lon="149.1616363">
  <ele>647.46</ele>
  <time>2026-09-01T19:52:54Z</time>
  <course>86.5</course>
  <speed>16.42</speed>
  <fix>3d</fix>
</trkpt>
<trkpt lat="-35.363108" lon="149.1616876">
  <ele>646.63</ele>
  <time>2026-09-01T19:52:54Z</time>
  <course>87.21</course>
  <speed>16.429853925096232</speed>
  <fix>3d</fix>
</trkpt>
<trkpt lat="-35.3631105" lon="149.1616363">
  <ele>647.46</ele>
  <time>2026-09-01T19:52:54Z</time>
  <course>86.5</course>
  <speed>16.42</speed>
  <fix>3d</fix>
</trkpt>
<trkpt lat="-35.3631071" lon="149.1617058">
  <ele>646.39</ele>
  <time>2026-09-01T19:52:54Z</time>
  <course>87.21</course>
  <speed>16.439835765603014</speed>
  <fix>3d</fix>
</trkpt>
<trkpt lat="-35.3631087" lon="149.1616723">
  <ele>647.02</ele>
  <time>2026-09-01T19:52:54Z</time>
  <course>86.51</course>
  <speed>16.39</speed>
  <fix>3d</fix>
</trkpt>
<trkpt lat="-35.3631062" lon="149.1617239">
  <ele>646.17</ele>
  <time>2026-09-01T19:52:54Z</time>
  <course>87.21</course>
  <speed>16.459799512752273</speed>
  <fix>3d</fix>
</trkpt>
<trkpt lat="-35.3631087" lon="149.1616723">
  <ele>647.02</ele>
  <time>2026-09-01T19:52:54Z</time>
  <course>86.51</course>
  <speed>16.39</speed>
  <fix>3d</fix>
</trkpt>
<trkpt lat="-35.3631053" lon="149.1617421">
  <ele>645.94</ele>
  <time>2026-09-01T19:52:54Z</time>
  <course>87.22</course>
  <speed>16.479763347815407</speed>
  <fix>3d</fix>
</trkpt>
<trkpt lat="-35.363107" lon="149.1617084">
  <ele>646.56</ele>
  <time>2026-09-01T19:52:54Z</time>
  <course>86.52</course>
  <speed>16.4</speed>
  <fix>3d</fix>
</trkpt>
<trkpt lat="-35.3631044" lon="149.1617602">
  <ele>645.72</ele>
  <time>2026-09-01T19:52:54Z</time>
  <course>87.22</course>
  <speed>16.49972727047329</speed>
  <fix>3d</fix>
</trkpt>
<trkpt lat="-35.363107" lon="149.1617084">
  <ele>646.56</ele>
  <time>2026-09-01T19:52:54Z</time>
  <course>86.52</course>
  <speed>16.4</speed>
  <fix>3d</fix>
</trkpt>
<trkpt lat="-35.3631035" lon="149.1617783">
  <ele>645.5</ele>
  <time>2026-09-01T19:52:54Z</time>
  <course>87.23</course>
  <speed>16.51969128040836</speed>
  <fix>3d</fix>
</trkpt>
<trkpt lat="-35.3631051" lon="149.1617445">
  <ele>646.1</ele>
  <time>2026-09-01T19:52:54Z</time>
  <course>86.52</course>
  <speed>16.43</speed>
  <fix>3d</fix>
</trkpt>
<trkpt lat="-35.3631026" lon="149.1617964">
  <ele>645.29</ele>
  <time>2026-09-01T19:52:54Z</time>
  <course>87.23</course>
  <speed>16.54963745826476</speed>
  <fix>3d</fix>
</trkpt>
<trkpt lat="-35.3631051" lon="149.1617445">
  <ele>646.1</ele>
  <time>2026-09-01T19:52:54Z</time>
  <course>86.52</course>
  <speed>16.43</speed>
  <fix>3d</fix>
</trkpt>
<trkpt lat="-35.3631017" lon="149.1618144">
  <ele>645.09</ele>
  <time>2026-09-01T19:52:54Z</time>
  <course>87.24</course>
  <speed>16.569601685013435</speed>
  <fix>3d</fix>
</trkpt>
<trkpt lat="-35.3631034" lon="149.1617807">
  <ele>645.67</ele>
  <time>2026-09-01T19:52:54Z</time>
  <course>86.52</course>
  <speed>16.48</speed>
  <fix>3d</fix>
</trkpt>
<trkpt lat="-35.3631008" lon="149.1618325">
  <ele>644.88</ele>
  <time>2026-09-01T19:52:54Z</time>
  <course>87.24</course>
  <speed>16.58956599793979</speed>
  <fix>3d</fix>
</trkpt>
<trkpt lat="-35.3631034" lon="149.1617807">
  <ele>645.67</ele>
  <time>2026-09-01T19:52:54Z</time>
  <course>86.52</course>
  <speed>16.48</speed>
  <fix>3d</fix>
</trkpt>
<trkpt lat="-35.3630999" lon="149.1618507">
  <ele>644.68</ele>
  <time>2026-09-01T19:52:54Z</time>
  <course>87.23</course>
  <speed>16.619512628233114</speed>
  <fix>3d</fix>
</trkpt>
<trkpt lat="-35.3631015" lon="149.1618169">
  <ele>645.25</ele>
  <time>2026-09-01T19:52:54Z</time>
  <course>86.51</course>
  <speed>16.53</speed>
  <fix>3d</fix>
</trkpt>
<trkpt lat="-35.363099" lon="149.161869">
  <ele>644.49</ele>
  <time>2026-09-01T19:52:54Z</time>
  <course>87.23</course>
  <speed>16.650057056959294</speed>
  <fix>3d</fix>
</trkpt>
<trkpt lat="-35.3631015" lon="149.1618169">
  <ele>645.25</ele>
  <time>2026-09-01T19:52:54Z</time>
  <course>86.51</course>
  <speed>16.53</speed>
  <fix>3d</fix>
</trkpt>
<trkpt lat="-35.3630981" lon="149.1618873">
  <ele>644.29</ele>
  <time>2026-09-01T19:52:54Z</time>
  <course>87.22</course>
  <speed>16.680002997601648</speed>
  <fix>3d</fix>
</trkpt>
<trkpt lat="-35.3630998" lon="149.1618533">
  <ele>644.85</ele>
  <time>2026-09-01T19:52:54Z</time>
  <course>86.5</course>
  <speed>16.59</speed>
  <fix>3d</fix>
</trkpt>
<trkpt lat="-35.3630972" lon="149.1619057">
  <ele>644.1</ele>
  <time>2026-09-01T19:52:54Z</time>
  <course>87.22</course>
  <speed>16.709949132178707</speed>
  <fix>3d</fix>
</trkpt>
<trkpt lat="-35.3630998" lon="149.1618533">
  <ele>644.85</ele>
  <time>2026-09-01T19:52:54Z</time>
  <course>86.5</course>
  <speed>16.59</speed>
  <fix>3d</fix>
</trkpt>
<trkpt lat="-35.3630963" lon="149.1619241">
  <ele>643.91</ele>
  <time>2026-09-01T19:52:54Z</time>
  <course>87.21</course>
  <speed>16.749877611493165</speed>
  <fix>3d</fix>
</trkpt>
<trkpt lat="-35.3630979" lon="149.1618899">
  <ele>644.46</ele>
  <time>2026-09-01T19:52:54Z</time>
  <course>86.49</course>
  <speed>16.65</speed>
  <fix>3d</fix>
</trkpt>
<trkpt lat="-35.3630954" lon="149.1619425">
  <ele>643.72</ele>
  <time>2026-09-01T19:52:54Z</time>
  <course>87.21</course>
  <speed>16.780423117430622</speed>
  <fix>3d</fix>
</trkpt>
<trkpt lat="-35.3630979" lon="149.1618899">
  <ele>644.46</ele>
  <time>2026-09-01T19:52:54Z</time>
  <course>86.49</course>
  <speed>16.65</speed>
  <fix>3d</fix>
</trkpt>
<trkpt lat="-35.3630945" lon="149.1619611">
  <ele>643.53</ele>
  <time>2026-09-01T19:52:54Z</time>
  <course>87.2</course>
  <speed>16.820350769231894</speed>
  <fix>3d</fix>
</trkpt>
<trkpt lat="-35.363096" lon="149.1619267">
  <ele>644.08</ele>
  <time>2026-09-01T19:52:54Z</time>
  <course>86.48</course>
  <speed>16.72</speed>
  <fix>3d</fix>
</trkpt>
<trkpt lat="-35.3630936" lon="149.1619796">
  <ele>643.35</ele>
  <time>2026-09-01T19:52:54Z</time>
  <course>87.2</course>
  <speed>16.860278764006246</speed>
  <fix>3d</fix>
</trkpt>
<trkpt lat="-35.363096" lon="149.1619267">
  <ele>644.08</ele>
  <time>2026-09-01T19:52:54Z</time>
  <course>86.48</course>
  <speed>16.72</speed>
  <fix>3d</fix>
</trkpt>
<trkpt lat="-35.3630926" lon="149.1619982">
  <ele>643.16</ele>
  <time>2026-09-01T19:52:54Z</time>
  <course>87.19</course>
  <speed>16.900207099322778</speed>
  <fix>3d</fix>
</trkpt>
<trkpt lat="-35.3630942" lon="149.1619636">
  <ele>643.71</ele>
  <time>2026-09-01T19:52:54Z</time>
  <course>86.47</course>
  <speed>16.79</speed>
  <fix>3d</fix>
</trkpt>
<trkpt lat="-35.3630917" lon="149.1620168">
  <ele>642.98</ele>
  <time>2026-09-01T19:52:54Z</time>
  <course>87.18</course>
  <speed>16.9307530842547</speed>
  <fix>3d</fix>
</trkpt>
<trkpt lat="-35.3630942" lon="149.1619636">
  <ele>643.71</ele>
  <time>2026-09-01T19:52:54Z</time>
  <course>86.47</course>
  <speed>16.79</speed>
  <fix>3d</fix>
</trkpt>
<trkpt lat="-35.3630908" lon="149.1620355">
  <ele>642.8</ele>
  <time>2026-09-01T19:52:54Z</time>
  <course>87.18</course>
  <speed>16.970680599198136</speed>
  <fix>3d</fix>
</trkpt>
<trkpt lat="-35.3630924" lon="149.1620006">
  <ele>643.34</ele>
  <time>2026-09-01T19:52:54Z</time>
  <course>86.46</course>
  <speed>16.86</speed>
  <fix>3d</fix>
</trkpt>
<trkpt lat="-35.3630898" lon="149.1620542">
  <ele>642.62</ele>
  <time>2026-09-01T19:52:54Z</time>
  <course>87.17</course>
  <speed>17.01060845472613</speed>
  <fix>3d</fix>
</trkpt>
<trkpt lat="-35.3630924" lon="149.1620006">
  <ele>643.34</ele>
  <time>2026-09-01T19:52:54Z</time>
  <course>86.46</course>
  <speed>16.86</speed>
  <fix>3d</fix>
</trkpt>
<trkpt lat="-35.3630889" lon="149.1620729">
  <ele>642.44</ele>
  <time>2026-09-01T19:52:54Z</time>
  <course>87.17</course>
  <speed>17.05113779194808</speed>
  <fix>3d</fix>
</trkpt>
<trkpt lat="-35.3630905" lon="149.1620377">
  <ele>642.98</ele>
  <time>2026-09-01T19:52:54Z</time>
  <course>86.44</course>
  <speed>16.94</speed>
  <fix>3d</fix>
</trkpt>
<trkpt lat="-35.363088" lon="149.1620917">
  <ele>642.26</ele>
  <time>2026-09-01T19:52:54Z</time>
  <course>87.16</course>
  <speed>17.0910649170846</speed>
  <fix>3d</fix>
</trkpt>
<trkpt lat="-35.3630905" lon="149.1620377">
  <ele>642.98</ele>
  <time>2026-09-01T19:52:54Z</time>
  <course>86.44</course>
  <speed>16.94</speed>
  <fix>3d</fix>
</trkpt>
<trkpt lat="-35.363087" lon="149.1621105">
  <ele>642.08</ele>
  <time>2026-09-01T19:52:54Z</time>
  <course>87.15</course>
  <speed>17.12101048419748</speed>
  <fix>3d</fix>
</trkpt>
<trkpt lat="-35.3630886" lon="149.162075">
  <ele>642.62</ele>
  <time>2026-09-01T19:52:54Z</time>
  <course>86.43</course>
  <speed>17.01</speed>
  <fix>3d</fix>
</trkpt>
<trkpt lat="-35.3630861" lon="149.1621292">
  <ele>641.9</ele>
  <time>2026-09-01T19:52:54Z</time>
  <course>87.15</course>
  <speed>17.16154130607155</speed>
  <fix>3d</fix>
</trkpt>
<trkpt lat="-35.3630886" lon="149.162075">
  <ele>642.62</ele>
  <time>2026-09-01T19:52:54Z</time>
  <course>86.43</course>
  <speed>17.01</speed>
  <fix>3d</fix>
</trkpt>
<trkpt lat="-35.3630851" lon="149.162148">
  <ele>641.72</ele>
  <time>2026-09-01T19:52:54Z</time>
  <course>87.15</course>
  <speed>17.181504590692867</speed>
  <fix>3d</fix>
</trkpt>
<trkpt lat="-35.3630867" lon="149.1621126">
  <ele>642.26</ele>
  <time>2026-09-01T19:52:54Z</time>
  <course>86.42</course>
  <speed>17.09</speed>
  <fix>3d</fix>
</trkpt>
<trkpt lat="-35.3630842" lon="149.1621668">
  <ele>641.55</ele>
  <time>2026-09-01T19:52:54Z</time>
  <course>87.14</course>
  <speed>17.20146796061313</speed>
  <fix>3d</fix>
</trkpt>
<trkpt lat="-35.3630867" lon="149.1621126">
  <ele>642.26</ele>
  <time>2026-09-01T19:52:54Z</time>
  <course>86.42</course>
  <speed>17.09</speed>
  <fix>3d</fix>
</trkpt>
<trkpt lat="-35.3630832" lon="149.1621855">
  <ele>641.39</ele>
  <time>2026-09-01T19:52:54Z</time>
  <course>87.14</course>
  <speed>17.211449677467613</speed>
  <fix>3d</fix>
</trkpt>
<trkpt lat="-35.3630847" lon="149.1621502">
  <ele>641.91</ele>
  <time>2026-09-01T19:52:54Z</time>
  <course>86.41</course>
  <speed>17.15</speed>
  <fix>3d</fix>
</trkpt>
<trkpt lat="-35.3630822" lon="149.1622045">
  <ele>641.22</ele>
  <time>2026-09-01T19:52:54Z</time>
  <course>87.14</course>
  <speed>17.211449677467613</speed>
  <fix>3d</fix>
</trkpt>
<trkpt lat="-35.3630847" lon="149.1621502">
  <ele>641.91</ele>
  <time>2026-09-01T19:52:54Z</time>
  <course>86.41</course>
  <speed>17.15</speed>
  <fix>3d</fix>
</trkpt>
<trkpt lat="-35.3630813" lon="149.1622232">
  <ele>641.07</ele>
  <time>2026-09-01T19:52:54Z</time>
  <course>87.14</course>
  <speed>17.1914862650092</speed>
  <fix>3d</fix>
</trkpt>
<trkpt lat="-35.3630828" lon="149.162188">
  <ele>641.57</ele>
  <time>2026-09-01T19:52:54Z</time>
  <course>86.4</course>
  <speed>17.19</speed>
  <fix>3d</fix>
</trkpt>
<trkpt lat="-35.3630803" lon="149.162242">
  <ele>640.91</ele>
  <time>2026-09-01T19:52:54Z</time>
  <course>87.14</course>
  <speed>17.171522937701244</speed>
  <fix>3d</fix>
</trkpt>
<trkpt lat="-35.3630828" lon="149.162188">
  <ele>641.57</ele>
  <time>2026-09-01T19:52:54Z</time>
  <course>86.4</course>
  <speed>17.19</speed>
  <fix>3d</fix>
</trkpt>
<trkpt lat="-35.3630794" lon="149.1622608">
  <ele>640.76</ele>
  <time>2026-09-01T19:52:54Z</time>
  <course>87.14</course>
  <speed>17.141578107047202</speed>
  <fix>3d</fix>
</trkpt>
<trkpt lat="-35.3630809" lon="149.1622257">
  <ele>641.25</ele>
  <time>2026-09-01T19:52:54Z</time>
  <course>86.39</course>
  <speed>17.19</speed>
  <fix>3d</fix>
</trkpt>
<trkpt lat="-35.3630784" lon="149.1622795">
  <ele>640.61</ele>
  <time>2026-09-01T19:52:54Z</time>
  <course>87.13</course>
  <speed>17.11163346966034</speed>
  <fix>3d</fix>
</trkpt>
<trkpt lat="-35.3630809" lon="149.1622257">
  <ele>641.25</ele>
  <time>2026-09-01T19:52:54Z</time>
  <course>86.39</course>
  <speed>17.19</speed>
  <fix>3d</fix>
</trkpt>
<trkpt lat="-35.3630774" lon="149.1622982">
  <ele>640.46</ele>
  <time>2026-09-01T19:52:54Z</time>
  <course>87.13</course>
  <speed>17.07170758887347</speed>
  <fix>3d</fix>
</trkpt>
<trkpt lat="-35.363079" lon="149.1622635">
  <ele>640.94</ele>
  <time>2026-09-01T19:52:54Z</time>
  <course>86.38</course>
  <speed>17.15</speed>
  <fix>3d</fix>
</trkpt>
<trkpt lat="-35.3630765" lon="149.1623169">
  <ele>640.3</ele>
  <time>2026-09-01T19:52:54Z</time>
  <course>87.13</course>
  <speed>17.031782055909474</speed>
  <fix>3d</fix>
</trkpt>
<trkpt lat="-35.363079" lon="149.1622635">
  <ele>640.94</ele>
  <time>2026-09-01T19:52:54Z</time>
  <course>86.38</course>
  <speed>17.15</speed>
  <fix>3d</fix>
</trkpt>
<trkpt lat="-35.3630755" lon="149.1623355">
  <ele>640.14</ele>
  <time>2026-09-01T19:52:54Z</time>
  <course>87.13</course>
  <speed>16.991856873220183</speed>
  <fix>3d</fix>
</trkpt>
<trkpt lat="-35.363077" lon="149.1623012">
  <ele>640.64</ele>
  <time>2026-09-01T19:52:54Z</time>
  <course>86.38</course>
  <speed>17.1</speed>
  <fix>3d</fix>
</trkpt>
<trkpt lat="-35.3630746" lon="149.1623541">
  <ele>639.98</ele>
  <time>2026-09-01T19:52:54Z</time>
  <course>87.12</course>
  <speed>16.951932043280493</speed>
  <fix>3d</fix>
</trkpt>
<trkpt lat="-35.363077" lon="149.1623012">
  <ele>640.64</ele>
  <time>2026-09-01T19:52:54Z</time>
  <course>86.38</course>
  <speed>17.1</speed>
  <fix>3d</fix>
</trkpt>
<trkpt lat="-35.3630736" lon="149.1623726">
  <ele>639.81</ele>
  <time>2026-09-01T19:52:54Z</time>
  <course>87.12</course>
  <speed>16.912007568588656</speed>
  <fix>3d</fix>
</trkpt>
<trkpt lat="-35.3630751" lon="149.1623387">
  <ele>640.32</ele>
  <time>2026-09-01T19:52:54Z</time>
  <course>86.38</course>
  <speed>17.02</speed>
  <fix>3d</fix>
</trkpt>
<trkpt lat="-35.3630726" lon="149.1623912">
  <ele>639.64</ele>
  <time>2026-09-01T19:52:54Z</time>
  <course>87.12</course>
  <speed>16.86148866500227</speed>
  <fix>3d</fix>
</trkpt>
<trkpt lat="-35.3630751" lon="149.1623387">
  <ele>640.32</ele>
  <time>2026-09-01T19:52:54Z</time>
  <course>86.38</course>
  <speed>17.02</speed>
  <fix>3d</fix>
</trkpt>
<trkpt lat="-35.3630717" lon="149.1624097">
  <ele>639.45</ele>
  <time>2026-09-01T19:52:54Z</time>
  <course>87.12</course>
  <speed>16.82156354207301</speed>
  <fix>3d</fix>
</trkpt>
<trkpt lat="-35.3630731" lon="149.1623761">
  <ele>639.99</ele>
  <time>2026-09-01T19:52:54Z</time>
  <course>86.37</course>
  <speed>16.95</speed>
  <fix>3d</fix>
</trkpt>
<trkpt lat="-35.3630707" lon="149.1624281">
  <ele>639.27</ele>
  <time>2026-09-01T19:52:54Z</time>
  <course>87.12</course>
  <speed>16.781638775757273</speed>
  <fix>3d</fix>
</trkpt>
<trkpt lat="-35.3630731" lon="149.1623761">
  <ele>639.99</ele>
  <time>2026-09-01T19:52:54Z</time>
  <course>86.37</course>
  <speed>16.95</speed>
  <fix>3d</fix>
</trkpt>
<trkpt lat="-35.3630698" lon="149.1624465">
  <ele>639.08</ele>
  <time>2026-09-01T19:52:54Z</time>
  <course>87.12</course>
  <speed>16.751695436581933</speed>
  <fix>3d</fix>
</trkpt>
<trkpt lat="-35.3630712" lon="149.1624133">
  <ele>639.63</ele>
  <time>2026-09-01T19:52:54Z</time>
  <course>86.37</course>
  <speed>16.87</speed>
  <fix>3d</fix>
</trkpt>
<trkpt lat="-35.3630688" lon="149.1624649">
  <ele>638.88</ele>
  <time>2026-09-01T19:52:54Z</time>
  <course>87.11</course>
  <speed>16.711771300493552</speed>
  <fix>3d</fix>
</trkpt>
<trkpt lat="-35.3630712" lon="149.1624133">
  <ele>639.63</ele>
  <time>2026-09-01T19:52:54Z</time>
  <course>86.37</course>
  <speed>16.87</speed>
  <fix>3d</fix>
</trkpt>
<trkpt lat="-35.3630679" lon="149.1624833">
  <ele>638.68</ele>
  <time>2026-09-01T19:52:54Z</time>
  <course>87.11</course>
  <speed>16.681828436954987</speed>
  <fix>3d</fix>
</trkpt>
<trkpt lat="-35.3630693" lon="149.1624503">
  <ele>639.25</ele>
  <time>2026-09-01T19:52:54Z</time>
  <course>86.37</course>
  <speed>16.79</speed>
  <fix>3d</fix>
</trkpt>
<trkpt lat="-35.3630669" lon="149.1625015">
  <ele>638.48</ele>
  <time>2026-09-01T19:52:54Z</time>
  <course>87.11</course>
  <speed>16.641289012573516</speed>
  <fix>3d</fix>
</trkpt>
<trkpt lat="-35.3630693" lon="149.1624503">
  <ele>639.25</ele>
  <time>2026-09-01T19:52:54Z</time>
  <course>86.37</course>
  <speed>16.79</speed>
  <fix>3d</fix>
</trkpt>
<trkpt lat="-35.363066" lon="149.1625197">
  <ele>638.27</ele>
  <time>2026-09-01T19:52:54Z</time>
  <course>87.12</course>
  <speed>16.611345520456794</speed>
  <fix>3d</fix>
</trkpt>
<trkpt lat="-35.3630674" lon="149.1624871">
  <ele>638.85</ele>
  <time>2026-09-01T19:52:54Z</time>
  <course>86.37</course>
  <speed>16.73</speed>
  <fix>3d</fix>
</trkpt>
<trkpt lat="-35.363065" lon="149.1625378">
  <ele>638.06</ele>
  <time>2026-09-01T19:52:54Z</time>
  <course>87.12</course>
  <speed>16.571421182264363</speed>
  <fix>3d</fix>
</trkpt>
<trkpt lat="-35.3630674" lon="149.1624871">
  <ele>638.85</ele>
  <time>2026-09-01T19:52:54Z</time>
  <course>86.37</course>
  <speed>16.73</speed>
  <fix>3d</fix>
</trkpt>
<trkpt lat="-35.3630641" lon="149.1625559">
  <ele>637.85</ele>
  <time>2026-09-01T19:52:54Z</time>
  <course>87.13</course>
  <speed>16.531497209871826</speed>
  <fix>3d</fix>
</trkpt>
<trkpt lat="-35.3630655" lon="149.1625239">
  <ele>638.44</ele>
  <time>2026-09-01T19:52:54Z</time>
  <course>86.37</course>
  <speed>16.66</speed>
  <fix>3d</fix>
</trkpt>
<trkpt lat="-35.3630632" lon="149.162574">
  <ele>637.64</ele>
  <time>2026-09-01T19:52:54Z</time>
  <course>87.13</course>
  <speed>16.50155447223079</speed>
  <fix>3d</fix>
</trkpt>
<trkpt lat="-35.3630655" lon="149.1625239">
  <ele>638.44</ele>
  <time>2026-09-01T19:52:54Z</time>
  <course>86.37</course>
  <speed>16.66</speed>
  <fix>3d</fix>
</trkpt>
<trkpt lat="-35.3630622" lon="149.1625922">
  <ele>637.43</ele>
  <time>2026-09-01T19:52:54Z</time>
  <course>87.14</course>
  <speed>16.46101454953491</speed>
  <fix>3d</fix>
</trkpt>
<trkpt lat="-35.3630636" lon="149.1625604">
  <ele>638.02</ele>
  <time>2026-09-01T19:52:54Z</time>
  <course>86.38</course>
  <speed>16.6</speed>
  <fix>3d</fix>
</trkpt>
<trkpt lat="-35.3630613" lon="149.1626101">
  <ele>637.22</ele>
  <time>2026-09-01T19:52:54Z</time>
  <course>87.14</course>
  <speed>16.421090097798015</speed>
  <fix>3d</fix>
</trkpt>
<trkpt lat="-35.3630636" lon="149.1625604">
  <ele>638.02</ele>
  <time>2026-09-01T19:52:54Z</time>
  <course>86.38</course>
  <speed>16.6</speed>
  <fix>3d</fix>
</trkpt>
<trkpt lat="-35.3630604" lon="149.1626281">
  <ele>637.01</ele>
  <time>2026-09-01T19:52:54Z</time>
  <course>87.14</course>
  <speed>16.391147000744027</speed>
  <fix>3d</fix>
</trkpt>
<trkpt lat="-35.3630617" lon="149.1625968">
  <ele>637.6</ele>
  <time>2026-09-01T19:52:54Z</time>
  <course>86.38</course>
  <speed>16.53</speed>
  <fix>3d</fix>
</trkpt>
<trkpt lat="-35.3630594" lon="149.162646">
  <ele>636.8</ele>
  <time>2026-09-01T19:52:54Z</time>
  <course>87.15</course>
  <speed>16.351223195834617</speed>
  <fix>3d</fix>
</trkpt>
<trkpt lat="-35.3630617" lon="149.1625968">
  <ele>637.6</ele>
  <time>2026-09-01T19:52:54Z</time>
  <course>86.38</course>
  <speed>16.53</speed>
  <fix>3d</fix>
</trkpt>
<trkpt lat="-35.3630585" lon="149.162664">
  <ele>636.59</ele>
  <time>2026-09-01T19:52:54Z</time>
  <course>87.15</course>
  <speed>16.320664814890353</speed>
  <fix>3d</fix>
</trkpt>
<trkpt lat="-35.3630599" lon="149.1626331">
  <ele>637.17</ele>
  <time>2026-09-01T19:52:54Z</time>
  <course>86.39</course>
  <speed>16.47</speed>
  <fix>3d</fix>
</trkpt>
<trkpt lat="-35.3630576" lon="149.1626819">
  <ele>636.38</ele>
  <time>2026-09-01T19:52:54Z</time>
  <course>87.15</course>
  <speed>16.280740155164935</speed>
  <fix>3d</fix>
</trkpt>
<trkpt lat="-35.3630599" lon="149.1626331">
  <ele>637.17</ele>
  <time>2026-09-01T19:52:54Z</time>
  <course>86.39</course>
  <speed>16.47</speed>
  <fix>3d</fix>
</trkpt>
<trkpt lat="-35.3630567" lon="149.1626999">
  <ele>636.17</ele>
  <time>2026-09-01T19:52:54Z</time>
  <course>87.15</course>
  <speed>16.250796903536763</speed>
  <fix>3d</fix>
</trkpt>
<trkpt lat="-35.363058" lon="149.1626693">
  <ele>636.75</ele>
  <time>2026-09-01T19:52:54Z</time>
  <course>86.39</course>
  <speed>16.4</speed>
  <fix>3d</fix>
</trkpt>
<trkpt lat="-35.3630557" lon="149.1627179">
  <ele>635.96</ele>
  <time>2026-09-01T19:52:54Z</time>
  <course>87.15</course>
  <speed>16.220853861619002</speed>
  <fix>3d</fix>
</trkpt>
<trkpt lat="-35.363058" lon="149.1626693">
  <ele>636.75</ele>
  <time>2026-09-01T19:52:54Z</time>
  <course>86.39</course>
  <speed>16.4</speed>
  <fix>3d</fix>
</trkpt>
<trkpt lat="-35.3630548" lon="149.1627358">
  <ele>635.75</ele>
  <time>2026-09-01T19:52:54Z</time>
  <course>87.15</course>
  <speed>16.180315200885303</speed>
  <fix>3d</fix>
</trkpt>
<trkpt lat="-35.3630562" lon="149.1627053">
  <ele>636.32</ele>
  <time>2026-09-01T19:52:54Z</time>
  <course>86.4</course>
  <speed>16.33</speed>
  <fix>3d</fix>
</trkpt>
<trkpt lat="-35.3630539" lon="149.1627537">
  <ele>635.54</ele>
  <time>2026-09-01T19:52:54Z</time>
  <course>87.15</course>
  <speed>16.150371512754745</speed>
  <fix>3d</fix>
</trkpt>
<trkpt lat="-35.3630562" lon="149.1627053">
  <ele>636.32</ele>
  <time>2026-09-01T19:52:54Z</time>
  <course>86.4</course>
  <speed>16.33</speed>
  <fix>3d</fix>
</trkpt>
<trkpt lat="-35.363053" lon="149.1627717">
  <ele>635.34</ele>
  <time>2026-09-01T19:52:54Z</time>
  <course>87.15</course>
  <speed>16.110446921175093</speed>
  <fix>3d</fix>
</trkpt>
<trkpt lat="-35.3630543" lon="149.1627412">
  <ele>635.91</ele>
  <time>2026-09-01T19:52:54Z</time>
  <course>86.41</course>
  <speed>16.26</speed>
  <fix>3d</fix>
</trkpt>
<trkpt lat="-35.3630521" lon="149.1627896">
  <ele>635.13</ele>
  <time>2026-09-01T19:52:54Z</time>
  <course>87.15</course>
  <speed>16.069909769503997</speed>
  <fix>3d</fix>
</trkpt>
<trkpt lat="-35.3630543" lon="149.1627412">
  <ele>635.91</ele>
  <time>2026-09-01T19:52:54Z</time>
  <course>86.41</course>
  <speed>16.26</speed>
  <fix>3d</fix>
</trkpt>
<trkpt lat="-35.3630512" lon="149.1628073">
  <ele>634.93</ele>
  <time>2026-09-01T19:52:54Z</time>
  <course>87.15</course>
  <speed>16.02998440423446</speed>
  <fix>3d</fix>
</trkpt>
<trkpt lat="-35.3630526" lon="149.1627768">
  <ele>635.51</ele>
  <time>2026-09-01T19:52:54Z</time>
  <course>86.41</course>
  <speed>16.18</speed>
  <fix>3d</fix>
</trkpt>
<trkpt lat="-35.3630503" lon="149.1628251">
  <ele>634.72</ele>
  <time>2026-09-01T19:52:54Z</time>
  <course>87.16</course>
  <speed>15.990059412022209</speed>
  <fix>3d</fix>
</trkpt>
<trkpt lat="-35.3630526" lon="149.1627768">
  <ele>635.51</ele>
  <time>2026-09-01T19:52:54Z</time>
  <course>86.41</course>
  <speed>16.18</speed>
  <fix>3d</fix>
</trkpt>
<trkpt lat="-35.3630493" lon="149.1628428">
  <ele>634.52</ele>
  <time>2026-09-01T19:52:54Z</time>
  <course>87.16</course>
  <speed>15.949523503854277</speed>
  <fix>3d</fix>
</trkpt>
<trkpt lat="-35.3630507" lon="149.1628124">
  <ele>635.11</ele>
  <time>2026-09-01T19:52:54Z</time>
  <course>86.42</course>
  <speed>16.1</speed>
  <fix>3d</fix>
</trkpt>
<trkpt lat="-35.3630485" lon="149.1628604">
  <ele>634.33</ele>
  <time>2026-09-01T19:52:54Z</time>
  <course>87.16</course>
  <speed>15.909597732186693</speed>
  <fix>3d</fix>
</trkpt>
<trkpt lat="-35.3630507" lon="149.1628124">
  <ele>635.11</ele>
  <time>2026-09-01T19:52:54Z</time>
  <course>86.42</course>
  <speed>16.1</speed>
  <fix>3d</fix>
</trkpt>
<trkpt lat="-35.3630476" lon="149.1628778">
  <ele>634.13</ele>
  <time>2026-09-01T19:52:54Z</time>
  <course>87.16</course>
  <speed>15.85969104364899</speed>
  <fix>3d</fix>
</trkpt>
<trkpt lat="-35.3630489" lon="149.1628476">
  <ele>634.71</ele>
  <time>2026-09-01T19:52:54Z</time>
  <course>86.43</course>
  <speed>16.01</speed>
  <fix>3d</fix>
</trkpt>
<trkpt lat="-35.3630467" lon="149.1628952">
  <ele>633.93</ele>
  <time>2026-09-01T19:52:54Z</time>
  <course>87.16</course>
  <speed>15.809174551506477</speed>
  <fix>3d</fix>
</trkpt>
<trkpt lat="-35.3630489" lon="149.1628476">
  <ele>634.71</ele>
  <time>2026-09-01T19:52:54Z</time>
  <course>86.43</course>
  <speed>16.01</speed>
  <fix>3d</fix>
</trkpt>
<trkpt lat="-35.3630458" lon="149.1629125">
  <ele>633.73</ele>
  <time>2026-09-01T19:52:54Z</time>
  <course>87.16</course>
  <speed>15.759267114939071</speed>
  <fix>3d</fix>
</trkpt>
<trkpt lat="-35.3630471" lon="149.1628827">
  <ele>634.32</ele>
  <time>2026-09-01T19:52:54Z</time>
  <course>86.44</course>
  <speed>15.91</speed>
  <fix>3d</fix>
</trkpt>
<trkpt lat="-35.3630449" lon="149.1629298">
  <ele>633.54</ele>
  <time>2026-09-01T19:52:54Z</time>
  <course>87.16</course>
  <speed>15.709360267050979</speed>
  <fix>3d</fix>
</trkpt>
<trkpt lat="-35.3630471" lon="149.1628827">
  <ele>634.32</ele>
  <time>2026-09-01T19:52:54Z</time>
  <course>86.44</course>
  <speed>15.91</speed>
  <fix>3d</fix>
</trkpt>
<trkpt lat="-35.363044" lon="149.1629472">
  <ele>633.35</ele>
  <time>2026-09-01T19:52:54Z</time>
  <course>87.17</course>
  <speed>15.658844146360229</speed>
  <fix>3d</fix>
</trkpt>
<trkpt lat="-35.3630454" lon="149.1629176">
  <ele>633.93</ele>
  <time>2026-09-01T19:52:54Z</time>
  <course>86.44</course>
  <speed>15.82</speed>
  <fix>3d</fix>
</trkpt>
<trkpt lat="-35.3630432" lon="149.1629643">
  <ele>633.16</ele>
  <time>2026-09-01T19:52:54Z</time>
  <course>87.17</course>
  <speed>15.608936542891064</speed>
  <fix>3d</fix>
</trkpt>
<trkpt lat="-35.3630454" lon="149.1629176">
  <ele>633.93</ele>
  <time>2026-09-01T19:52:54Z</time>
  <course>86.44</course>
  <speed>15.82</speed>
  <fix>3d</fix>
</trkpt>
<trkpt lat="-35.3630423" lon="149.1629814">
  <ele>632.97</ele>
  <time>2026-09-01T19:52:54Z</time>
  <course>87.17</course>
  <speed>15.559029532718291</speed>
  <fix>3d</fix>
</trkpt>
<trkpt lat="-35.3630436" lon="149.1629523">
  <ele>633.54</ele>
  <time>2026-09-01T19:52:54Z</time>
  <course>86.45</course>
  <speed>15.72</speed>
  <fix>3d</fix>
</trkpt>
<trkpt lat="-35.3630414" lon="149.1629985">
  <ele>632.78</ele>
  <time>2026-09-01T19:52:54Z</time>
  <course>87.18</course>
  <speed>15.508513790818256</speed>
  <fix>3d</fix>
</trkpt>
<trkpt lat="-35.3630436" lon="149.1629523">
  <ele>633.54</ele>
  <time>2026-09-01T19:52:54Z</time>
  <course>86.45</course>
  <speed>15.72</speed>
  <fix>3d</fix>
</trkpt>
<trkpt lat="-35.3630406" lon="149.1630155">
  <ele>632.6</ele>
  <time>2026-09-01T19:52:54Z</time>
  <course>87.18</course>
  <speed>15.458606017361333</speed>
  <fix>3d</fix>
</trkpt>
<trkpt lat="-35.3630419" lon="149.1629868">
  <ele>633.16</ele>
  <time>2026-09-01T19:52:54Z</time>
  <course>86.45</course>
  <speed>15.63</speed>
  <fix>3d</fix>
</trkpt>
<trkpt lat="-35.3630397" lon="149.1630325">
  <ele>632.42</ele>
  <time>2026-09-01T19:52:54Z</time>
  <course>87.18</course>
  <speed>15.408698841887981</speed>
  <fix>3d</fix>
</trkpt>
<trkpt lat="-35.3630419" lon="149.1629868">
  <ele>633.16</ele>
  <time>2026-09-01T19:52:54Z</time>
  <course>86.45</course>
  <speed>15.63</speed>
  <fix>3d</fix>
</trkpt>
<trkpt lat="-35.3630389" lon="149.1630495">
  <ele>632.25</ele>
  <time>2026-09-01T19:52:54Z</time>
  <course>87.18</course>
  <speed>15.358183486337177</speed>
  <fix>3d</fix>
</trkpt>
<trkpt lat="-35.3630401" lon="149.163021">
  <ele>632.8</ele>
  <time>2026-09-01T19:52:54Z</time>
  <course>86.46</course>
  <speed>15.53</speed>
  <fix>3d</fix>
</trkpt>
<trkpt lat="-35.363038" lon="149.1630664">
  <ele>632.08</ele>
  <time>2026-09-01T19:52:54Z</time>
  <course>87.18</course>
  <speed>15.308275539720336</speed>
  <fix>3d</fix>
</trkpt>
<trkpt lat="-35.3630401" lon="149.163021">
  <ele>632.8</ele>
  <time>2026-09-01T19:52:54Z</time>
  <course>86.46</course>
  <speed>15.53</speed>
  <fix>3d</fix>
</trkpt>
<trkpt lat="-35.3630371" lon="149.1630834">
  <ele>631.92</ele>
  <time>2026-09-01T19:52:54Z</time>
  <course>87.18</course>
  <speed>15.258368195845847</speed>
  <fix>3d</fix>
</trkpt>
<trkpt lat="-35.3630384" lon="149.163055">
  <ele>632.45</ele>
  <time>2026-09-01T19:52:54Z</time>
  <course>86.46</course>
  <speed>15.42</speed>
  <fix>3d</fix>
</trkpt>
<trkpt lat="-35.3630363" lon="149.1631002">
  <ele>631.76</ele>
  <time>2026-09-01T19:52:54Z</time>
  <course>87.18</course>
  <speed>15.197871561504918</speed>
  <fix>3d</fix>
</trkpt>
<trkpt lat="-35.3630384" lon="149.163055">
  <ele>632.45</ele>
  <time>2026-09-01T19:52:54Z</time>
  <course>86.46</course>
  <speed>15.42</speed>
  <fix>3d</fix>
</trkpt>
<trkpt lat="-35.3630354" lon="149.1631171">
  <ele>631.6</ele>
  <time>2026-09-01T19:52:54Z</time>
  <course>87.18</course>
  <speed>15.147963559501983</speed>
  <fix>3d</fix>
</trkpt>
<trkpt lat="-35.3630367" lon="149.1630889">
  <ele>632.12</ele>
  <time>2026-09-01T19:52:54Z</time>
  <course>86.47</course>
  <speed>15.31</speed>
  <fix>3d</fix>
</trkpt>
<trkpt lat="-35.3630346" lon="149.1631339">
  <ele>631.46</ele>
  <time>2026-09-01T19:52:54Z</time>
  <course>87.18</course>
  <speed>15.097450115830817</speed>
  <fix>3d</fix>
</trkpt>
<trkpt lat="-35.3630367" lon="149.1630889">
  <ele>632.12</ele>
  <time>2026-09-01T19:52:54Z</time>
  <course>86.47</course>
  <speed>15.31</speed>
  <fix>3d</fix>
</trkpt>
<trkpt lat="-35.3630338" lon="149.1631506">
  <ele>631.31</ele>
  <time>2026-09-01T19:52:54Z</time>
  <course>87.18</course>
  <speed>15.037559642441988</speed>
  <fix>3d</fix>
</trkpt>
<trkpt lat="-35.363035" lon="149.1631225">
  <ele>631.8</ele>
  <time>2026-09-01T19:52:54Z</time>
  <course>86.47</course>
  <speed>15.2</speed>
  <fix>3d</fix>
</trkpt>
<trkpt lat="-35.3630329" lon="149.1631672">
  <ele>631.17</ele>
  <time>2026-09-01T19:52:54Z</time>
  <course>87.18</course>
  <speed>14.977670045771472</speed>
  <fix>3d</fix>
</trkpt>
<trkpt lat="-35.363035" lon="149.1631225">
  <ele>631.8</ele>
  <time>2026-09-01T19:52:54Z</time>
  <course>86.47</course>
  <speed>15.2</speed>
  <fix>3d</fix>
</trkpt>
<trkpt lat="-35.3630321" lon="149.1631838">
  <ele>631.03</ele>
  <time>2026-09-01T19:52:54Z</time>
  <course>87.18</course>
  <speed>14.917174665465307</speed>
  <fix>3d</fix>
</trkpt>
<trkpt lat="-35.3630334" lon="149.1631558">
  <ele>631.51</ele>
  <time>2026-09-01T19:52:54Z</time>
  <course>86.48</course>
  <speed>15.07</speed>
  <fix>3d</fix>
</trkpt>
<trkpt lat="-35.3630313" lon="149.1632003">
  <ele>630.9</ele>
  <time>2026-09-01T19:52:54Z</time>
  <course>87.18</course>
  <speed>14.857284408666342</speed>
  <fix>3d</fix>
</trkpt>
<trkpt lat="-35.3630334" lon="149.1631558">
  <ele>631.51</ele>
  <time>2026-09-01T19:52:54Z</time>
  <course>86.48</course>
  <speed>15.07</speed>
  <fix>3d</fix>
</trkpt>
<trkpt lat="-35.3630304" lon="149.1632168">
  <ele>630.77</ele>
  <time>2026-09-01T19:52:54Z</time>
  <course>87.18</course>
  <speed>14.786808310112091</speed>
  <fix>3d</fix>
</trkpt>
<trkpt lat="-35.3630317" lon="149.1631888">
  <ele>631.23</ele>
  <time>2026-09-01T19:52:54Z</time>
  <course>86.48</course>
  <speed>14.94</speed>
  <fix>3d</fix>
</trkpt>
<trkpt lat="-35.3630296" lon="149.1632331">
  <ele>630.64</ele>
  <time>2026-09-01T19:52:54Z</time>
  <course>87.18</course>
  <speed>14.72691753219254</speed>
  <fix>3d</fix>
</trkpt>
<trkpt lat="-35.3630317" lon="149.1631888">
  <ele>631.23</ele>
  <time>2026-09-01T19:52:54Z</time>
  <course>86.48</course>
  <speed>14.94</speed>
  <fix>3d</fix>
</trkpt>
<trkpt lat="-35.3630288" lon="149.1632494">
  <ele>630.52</ele>
  <time>2026-09-01T19:52:54Z</time>
  <course>87.18</course>
  <speed>14.656442269527759</speed>
  <fix>3d</fix>
</trkpt>
<trkpt lat="-35.3630301" lon="149.1632215">
  <ele>630.96</ele>
  <time>2026-09-01T19:52:54Z</time>
  <course>86.49</course>
  <speed>14.81</speed>
  <fix>3d</fix>
</trkpt>
<trkpt lat="-35.363028" lon="149.1632656">
  <ele>630.4</ele>
  <time>2026-09-01T19:52:54Z</time>
  <course>87.19</course>
  <speed>14.586569164817337</speed>
  <fix>3d</fix>
</trkpt>
<trkpt lat="-35.3630301" lon="149.1632215">
  <ele>630.96</ele>
  <time>2026-09-01T19:52:54Z</time>
  <course>86.49</course>
  <speed>14.81</speed>
  <fix>3d</fix>
</trkpt>
<trkpt lat="-35.3630272" lon="149.1632816">
  <ele>630.28</ele>
  <time>2026-09-01T19:52:54Z</time>
  <course>87.19</course>
  <speed>14.516094516087996</speed>
  <fix>3d</fix>
</trkpt>
<trkpt lat="-35.3630285" lon="149.1632539">
  <ele>630.71</ele>
  <time>2026-09-01T19:52:54Z</time>
  <course>86.49</course>
  <speed>14.67</speed>
  <fix>3d</fix>
</trkpt>
<trkpt lat="-35.3630264" lon="149.1632977">
  <ele>630.17</ele>
  <time>2026-09-01T19:52:54Z</time>
  <course>87.19</course>
  <speed>14.446220959129763</speed>
  <fix>3d</fix>
</trkpt>
<trkpt lat="-35.3630285" lon="149.1632539">
  <ele>630.71</ele>
  <time>2026-09-01T19:52:54Z</time>
  <course>86.49</course>
  <speed>14.67</speed>
  <fix>3d</fix>
</trkpt>
<trkpt lat="-35.3630256" lon="149.1633135">
  <ele>630.05</ele>
  <time>2026-09-01T19:52:54Z</time>
  <course>87.2</course>
  <speed>14.365764859554119</speed>
  <fix>3d</fix>
</trkpt>
<trkpt lat="-35.3630268" lon="149.163286">
  <ele>630.47</ele>
  <time>2026-09-01T19:52:54Z</time>
  <course>86.5</course>
  <speed>14.52</speed>
  <fix>3d</fix>
</trkpt>
<trkpt lat="-35.3630248" lon="149.1633292">
  <ele>629.94</ele>
  <time>2026-09-01T19:52:54Z</time>
  <course>87.21</course>
  <speed>14.295891018051307</speed>
  <fix>3d</fix>
</trkpt>
<trkpt lat="-35.3630268" lon="149.163286">
  <ele>630.47</ele>
  <time>2026-09-01T19:52:54Z</time>
  <course>86.5</course>
  <speed>14.52</speed>
  <fix>3d</fix>
</trkpt>
<trkpt lat="-35.3630241" lon="149.1633448">
  <ele>629.83</ele>
  <time>2026-09-01T19:52:54Z</time>
  <course>87.21</course>
  <speed>14.215435272970012</speed>
  <fix>3d</fix>
</trkpt>
<trkpt lat="-35.3630253" lon="149.1633177">
  <ele>630.24</ele>
  <time>2026-09-01T19:52:54Z</time>
  <course>86.5</course>
  <speed>14.38</speed>
  <fix>3d</fix>
</trkpt>
<trkpt lat="-35.3630233" lon="149.1633604">
  <ele>629.73</ele>
  <time>2026-09-01T19:52:54Z</time>
  <course>87.21</course>
  <speed>14.145561141220236</speed>
  <fix>3d</fix>
</trkpt>
<trkpt lat="-35.3630253" lon="149.1633177">
  <ele>630.24</ele>
  <time>2026-09-01T19:52:54Z</time>
  <course>86.5</course>
  <speed>14.38</speed>
  <fix>3d</fix>
</trkpt>
<trkpt lat="-35.3630225" lon="149.1633759">
  <ele>629.62</ele>
  <time>2026-09-01T19:52:54Z</time>
  <course>87.21</course>
  <speed>14.07508792157264</speed>
  <fix>3d</fix>
</trkpt>
<trkpt lat="-35.3630237" lon="149.1633492">
  <ele>630.02</ele>
  <time>2026-09-01T19:52:54Z</time>
  <course>86.51</course>
  <speed>14.23</speed>
  <fix>3d</fix>
</trkpt>
<trkpt lat="-35.3630217" lon="149.1633914">
  <ele>629.51</ele>
  <time>2026-09-01T19:52:55Z</time>
  <course>87.21</course>
  <speed>14.00521331504808</speed>
  <fix>3d</fix>
</trkpt>
<trkpt lat="-35.3630237" lon="149.1633492">
  <ele>630.02</ele>
  <time>2026-09-01T19:52:55Z</time>
  <course>86.51</course>
  <speed>14.23</speed>
  <fix>3d</fix>
</trkpt>
<trkpt lat="-35.363021" lon="149.1634068">
  <ele>629.4</ele>
  <time>2026-09-01T19:52:55Z</time>
  <course>87.21</course>
  <speed>13.934740758263139</speed>
  <fix>3d</fix>
</trkpt>
<trkpt lat="-35.3630222" lon="149.1633804">
  <ele>629.8</ele>
  <time>2026-09-01T19:52:55Z</time>
  <course>86.51</course>
  <speed>14.09</speed>
  <fix>3d</fix>
</trkpt>
<trkpt lat="-35.3630202" lon="149.1634222">
  <ele>629.29</ele>
  <time>2026-09-01T19:52:55Z</time>
  <course>87.21</course>
  <speed>13.864865668299856</speed>
  <fix>3d</fix>
</trkpt>
<trkpt lat="-35.3630222" lon="149.1633804">
  <ele>629.8</ele>
  <time>2026-09-01T19:52:55Z</time>
  <course>86.51</course>
  <speed>14.09</speed>
  <fix>3d</fix>
</trkpt>
<trkpt lat="-35.3630195" lon="149.1634375">
  <ele>629.19</ele>
  <time>2026-09-01T19:52:55Z</time>
  <course>87.21</course>
  <speed>13.804376117738896</speed>
  <fix>3d</fix>
</trkpt>
<trkpt lat="-35.3630206" lon="149.1634113">
  <ele>629.57</ele>
  <time>2026-09-01T19:52:55Z</time>
  <course>86.52</course>
  <speed>13.94</speed>
  <fix>3d</fix>
</trkpt>
<trkpt lat="-35.3630187" lon="149.1634527">
  <ele>629.08</ele>
  <time>2026-09-01T19:52:55Z</time>
  <course>87.21</course>
  <speed>13.734500354945572</speed>
  <fix>3d</fix>
</trkpt>
<trkpt lat="-35.3630206" lon="149.1634113">
  <ele>629.57</ele>
  <time>2026-09-01T19:52:55Z</time>
  <course>86.52</course>
  <speed>13.94</speed>
  <fix>3d</fix>
</trkpt>
<trkpt lat="-35.3630179" lon="149.1634679">
  <ele>628.97</ele>
  <time>2026-09-01T19:52:55Z</time>
  <course>87.21</course>
  <speed>13.674607855437758</speed>
  <fix>3d</fix>
</trkpt>
<trkpt lat="-35.3630191" lon="149.1634418">
  <ele>629.36</ele>
  <time>2026-09-01T19:52:55Z</time>
  <course>86.52</course>
  <speed>13.81</speed>
  <fix>3d</fix>
</trkpt>
<trkpt lat="-35.3630172" lon="149.1634829">
  <ele>628.87</ele>
  <time>2026-09-01T19:52:55Z</time>
  <course>87.21</course>
  <speed>13.604135400678722</speed>
  <fix>3d</fix>
</trkpt>
<trkpt lat="-35.3630191" lon="149.1634418">
  <ele>629.36</ele>
  <time>2026-09-01T19:52:55Z</time>
  <course>86.52</course>
  <speed>13.81</speed>
  <fix>3d</fix>
</trkpt>
<trkpt lat="-35.3630165" lon="149.163498">
  <ele>628.77</ele>
  <time>2026-09-01T19:52:55Z</time>
  <course>87.21</course>
  <speed>13.544242319155398</speed>
  <fix>3d</fix>
</trkpt>
<trkpt lat="-35.3630176" lon="149.163472">
  <ele>629.15</ele>
  <time>2026-09-01T19:52:55Z</time>
  <course>86.52</course>
  <speed>13.67</speed>
  <fix>3d</fix>
</trkpt>
<trkpt lat="-35.3630157" lon="149.1635129">
  <ele>628.67</ele>
  <time>2026-09-01T19:52:55Z</time>
  <course>87.21</course>
  <speed>13.473770815922318</speed>
  <fix>3d</fix>
</trkpt>
<trkpt lat="-35.3630176" lon="149.163472">
  <ele>629.15</ele>
  <time>2026-09-01T19:52:55Z</time>
  <course>86.52</course>
  <speed>13.67</speed>
  <fix>3d</fix>
</trkpt>
<trkpt lat="-35.363015" lon="149.1635277">
  <ele>628.57</ele>
  <time>2026-09-01T19:52:55Z</time>
  <course>87.21</course>
  <speed>13.41387714272052</speed>
  <fix>3d</fix>
</trkpt>
<trkpt lat="-35.3630161" lon="149.1635019">
  <ele>628.94</ele>
  <time>2026-09-01T19:52:55Z</time>
  <course>86.52</course>
  <speed>13.53</speed>
  <fix>3d</fix>
</trkpt>
<trkpt lat="-35.3630142" lon="149.1635425">
  <ele>628.47</ele>
  <time>2026-09-01T19:52:55Z</time>
  <course>87.21</course>
  <speed>13.343406611506673</speed>
  <fix>3d</fix>
</trkpt>
<trkpt lat="-35.3630161" lon="149.1635019">
  <ele>628.94</ele>
  <time>2026-09-01T19:52:55Z</time>
  <course>86.52</course>
  <speed>13.53</speed>
  <fix>3d</fix>
</trkpt>
<trkpt lat="-35.3630135" lon="149.1635572">
  <ele>628.38</ele>
  <time>2026-09-01T19:52:55Z</time>
  <course>87.21</course>
  <speed>13.283512336727814</speed>
  <fix>3d</fix>
</trkpt>
<trkpt lat="-35.3630147" lon="149.1635315">
  <ele>628.74</ele>
  <time>2026-09-01T19:52:55Z</time>
  <course>86.52</course>
  <speed>13.4</speed>
  <fix>3d</fix>
</trkpt>
<trkpt lat="-35.3630128" lon="149.1635719">
  <ele>628.28</ele>
  <time>2026-09-01T19:52:55Z</time>
  <course>87.21</course>
  <speed>13.213636895268465</speed>
  <fix>3d</fix>
</trkpt>
<trkpt lat="-35.3630147" lon="149.1635315">
  <ele>628.74</ele>
  <time>2026-09-01T19:52:55Z</time>
  <course>86.52</course>
  <speed>13.4</speed>
  <fix>3d</fix>
</trkpt>
<trkpt lat="-35.3630121" lon="149.1635864">
  <ele>628.18</ele>
  <time>2026-09-01T19:52:55Z</time>
  <course>87.21</course>
  <speed>13.15314791219197</speed>
  <fix>3d</fix>
</trkpt>
<trkpt lat="-35.3630132" lon="149.1635609">
  <ele>628.54</ele>
  <time>2026-09-01T19:52:55Z</time>
  <course>86.52</course>
  <speed>13.26</speed>
  <fix>3d</fix>
</trkpt>
<trkpt lat="-35.3630114" lon="149.1636009">
  <ele>628.09</ele>
  <time>2026-09-01T19:52:55Z</time>
  <course>87.21</course>
  <speed>13.08327176206319</speed>
  <fix>3d</fix>
</trkpt>
<trkpt lat="-35.3630132" lon="149.1635609">
  <ele>628.54</ele>
  <time>2026-09-01T19:52:55Z</time>
  <course>86.52</course>
  <speed>13.26</speed>
  <fix>3d</fix>
</trkpt>
<trkpt lat="-35.3630107" lon="149.1636151">
  <ele>627.99</ele>
  <time>2026-09-01T19:52:55Z</time>
  <course>87.21</course>
  <speed>13.022783880568703</speed>
  <fix>3d</fix>
</trkpt>
<trkpt lat="-35.3630117" lon="149.1635899">
  <ele>628.34</ele>
  <time>2026-09-01T19:52:55Z</time>
  <course>86.52</course>
  <speed>13.13</speed>
  <fix>3d</fix>
</trkpt>
<trkpt lat="-35.3630099" lon="149.1636293">
  <ele>627.9</ele>
  <time>2026-09-01T19:52:55Z</time>
  <course>87.22</course>
  <speed>12.952907009625292</speed>
  <fix>3d</fix>
</trkpt>
<trkpt lat="-35.3630117" lon="149.1635899">
  <ele>628.34</ele>
  <time>2026-09-01T19:52:55Z</time>
  <course>86.52</course>
  <speed>13.13</speed>
  <fix>3d</fix>
</trkpt>
<trkpt lat="-35.3630092" lon="149.1636435">
  <ele>627.8</ele>
  <time>2026-09-01T19:52:55Z</time>
  <course>87.22</course>
  <speed>12.883031475549533</speed>
  <fix>3d</fix>
</trkpt>
<trkpt lat="-35.3630104" lon="149.1636186">
  <ele>628.15</ele>
  <time>2026-09-01T19:52:55Z</time>
  <course>86.52</course>
  <speed>12.99</speed>
  <fix>3d</fix>
</trkpt>
<trkpt lat="-35.3630085" lon="149.1636577">
  <ele>627.71</ele>
  <time>2026-09-01T19:52:55Z</time>
  <course>87.22</course>
  <speed>12.812560243760807</speed>
  <fix>3d</fix>
</trkpt>
<trkpt lat="-35.3630104" lon="149.1636186">
  <ele>628.15</ele>
  <time>2026-09-01T19:52:55Z</time>
  <course>86.52</course>
  <speed>12.99</speed>
  <fix>3d</fix>
</trkpt>
<trkpt lat="-35.3630079" lon="149.1636717">
  <ele>627.61</ele>
  <time>2026-09-01T19:52:55Z</time>
  <course>87.22</course>
  <speed>12.742684175635839</speed>
  <fix>3d</fix>
</trkpt>
<trkpt lat="-35.363009" lon="149.163647">
  <ele>627.96</ele>
  <time>2026-09-01T19:52:55Z</time>
  <course>86.52</course>
  <speed>12.86</speed>
  <fix>3d</fix>
</trkpt>
<trkpt lat="-35.3630072" lon="149.1636856">
  <ele>627.52</ele>
  <time>2026-09-01T19:52:55Z</time>
  <course>87.22</course>
  <speed>12.672213697693076</speed>
  <fix>3d</fix>
</trkpt>
<trkpt lat="-35.363009" lon="149.163647">
  <ele>627.96</ele>
  <time>2026-09-01T19:52:55Z</time>
  <course>86.52</course>
  <speed>12.86</speed>
  <fix>3d</fix>
</trkpt>
<trkpt lat="-35.3630065" lon="149.1636995">
  <ele>627.43</ele>
  <time>2026-09-01T19:52:55Z</time>
  <course>87.22</course>
  <speed>12.612319374326042</speed>
  <fix>3d</fix>
</trkpt>
<trkpt lat="-35.3630075" lon="149.1636752">
  <ele>627.77</ele>
  <time>2026-09-01T19:52:55Z</time>
  <course>86.52</course>
  <speed>12.73</speed>
  <fix>3d</fix>
</trkpt>
<trkpt lat="-35.3630058" lon="149.1637133">
  <ele>627.34</ele>
  <time>2026-09-01T19:52:55Z</time>
  <course>87.22</course>
  <speed>12.552426060327939</speed>
  <fix>3d</fix>
</trkpt>
<trkpt lat="-35.3630075" lon="149.1636752">
  <ele>627.77</ele>
  <time>2026-09-01T19:52:55Z</time>
  <course>86.52</course>
  <speed>12.73</speed>
  <fix>3d</fix>
</trkpt>
<trkpt lat="-35.3630051" lon="149.1637272">
  <ele>627.24</ele>
  <time>2026-09-01T19:52:55Z</time>
  <course>87.22</course>
  <speed>12.491937399779108</speed>
  <fix>3d</fix>
</trkpt>
<trkpt lat="-35.3630062" lon="149.1637031">
  <ele>627.58</ele>
  <time>2026-09-01T19:52:55Z</time>
  <course>86.51</course>
  <speed>12.6</speed>
  <fix>3d</fix>
</trkpt>
<trkpt lat="-35.3630044" lon="149.1637409">
  <ele>627.15</ele>
  <time>2026-09-01T19:52:55Z</time>
  <course>87.21</course>
  <speed>12.432043275342956</speed>
  <fix>3d</fix>
</trkpt>
<trkpt lat="-35.3630062" lon="149.1637031">
  <ele>627.58</ele>
  <time>2026-09-01T19:52:55Z</time>
  <course>86.51</course>
  <speed>12.6</speed>
  <fix>3d</fix>
</trkpt>
<trkpt lat="-35.3630038" lon="149.1637546">
  <ele>627.06</ele>
  <time>2026-09-01T19:52:55Z</time>
  <course>87.21</course>
  <speed>12.371556086442803</speed>
  <fix>3d</fix>
</trkpt>
<trkpt lat="-35.3630048" lon="149.1637307">
  <ele>627.4</ele>
  <time>2026-09-01T19:52:55Z</time>
  <course>86.51</course>
  <speed>12.48</speed>
  <fix>3d</fix>
</trkpt>
<trkpt lat="-35.3630031" lon="149.1637682">
  <ele>626.97</ele>
  <time>2026-09-01T19:52:55Z</time>
  <course>87.21</course>
  <speed>12.311661138936534</speed>
  <fix>3d</fix>
</trkpt>
<trkpt lat="-35.3630048" lon="149.1637307">
  <ele>627.4</ele>
  <time>2026-09-01T19:52:55Z</time>
  <course>86.51</course>
  <speed>12.48</speed>
  <fix>3d</fix>
</trkpt>
<trkpt lat="-35.3630024" lon="149.1637818">
  <ele>626.88</ele>
  <time>2026-09-01T19:52:55Z</time>
  <course>87.21</course>
  <speed>12.25176721946675</speed>
  <fix>3d</fix>
</trkpt>
<trkpt lat="-35.3630035" lon="149.163758">
  <ele>627.22</ele>
  <time>2026-09-01T19:52:55Z</time>
  <course>86.51</course>
  <speed>12.35</speed>
  <fix>3d</fix>
</trkpt>
<trkpt lat="-35.3630017" lon="149.1637953">
  <ele>626.79</ele>
  <time>2026-09-01T19:52:55Z</time>
  <course>87.2</course>
  <speed>12.191279670321732</speed>
  <fix>3d</fix>
</trkpt>
<trkpt lat="-35.3630035" lon="149.163758">
  <ele>627.22</ele>
  <time>2026-09-01T19:52:55Z</time>
  <course>86.51</course>
  <speed>12.35</speed>
  <fix>3d</fix>
</trkpt>
<trkpt lat="-35.3630011" lon="149.1638087">
  <ele>626.69</ele>
  <time>2026-09-01T19:52:55Z</time>
  <course>87.2</course>
  <speed>12.13138491681803</speed>
  <fix>3d</fix>
</trkpt>
<trkpt lat="-35.3630021" lon="149.163785">
  <ele>627.03</ele>
  <time>2026-09-01T19:52:55Z</time>
  <course>86.5</course>
  <speed>12.23</speed>
  <fix>3d</fix>
</trkpt>
<trkpt lat="-35.3630004" lon="149.163822">
  <ele>626.61</ele>
  <time>2026-09-01T19:52:55Z</time>
  <course>87.2</course>
  <speed>12.0714912086287</speed>
  <fix>3d</fix>
</trkpt>
<trkpt lat="-35.3630021" lon="149.163785">
  <ele>627.03</ele>
  <time>2026-09-01T19:52:55Z</time>
  <course>86.5</course>
  <speed>12.23</speed>
  <fix>3d</fix>
</trkpt>
<trkpt lat="-35.3629998" lon="149.1638352">
  <ele>626.52</ele>
  <time>2026-09-01T19:52:55Z</time>
  <course>87.2</course>
  <speed>12.001020789916165</speed>
  <fix>3d</fix>
</trkpt>
<trkpt lat="-35.3630007" lon="149.1638118">
  <ele>626.85</ele>
  <time>2026-09-01T19:52:55Z</time>
  <course>86.5</course>
  <speed>12.11</speed>
  <fix>3d</fix>
</trkpt>
<trkpt lat="-35.3629991" lon="149.1638483">
  <ele>626.43</ele>
  <time>2026-09-01T19:52:55Z</time>
  <course>87.21</course>
  <speed>11.941126412529094</speed>
  <fix>3d</fix>
</trkpt>
<trkpt lat="-35.3630007" lon="149.1638118">
  <ele>626.85</ele>
  <time>2026-09-01T19:52:55Z</time>
  <course>86.5</course>
  <speed>12.11</speed>
  <fix>3d</fix>
</trkpt>
<trkpt lat="-35.3629985" lon="149.1638614">
  <ele>626.34</ele>
  <time>2026-09-01T19:52:55Z</time>
  <course>87.21</course>
  <speed>11.881233100987457</speed>
  <fix>3d</fix>
</trkpt>
<trkpt lat="-35.3629994" lon="149.1638383">
  <ele>626.67</ele>
  <time>2026-09-01T19:52:55Z</time>
  <course>86.49</course>
  <speed>11.99</speed>
  <fix>3d</fix>
</trkpt>
<trkpt lat="-35.3629978" lon="149.1638744">
  <ele>626.25</ele>
  <time>2026-09-01T19:52:55Z</time>
  <course>87.21</course>
  <speed>11.810762041460324</speed>
  <fix>3d</fix>
</trkpt>
<trkpt lat="-35.3629994" lon="149.1638383">
  <ele>626.67</ele>
  <time>2026-09-01T19:52:55Z</time>
  <course>86.49</course>
  <speed>11.99</speed>
  <fix>3d</fix>
</trkpt>
<trkpt lat="-35.3629971" lon="149.1638874">
  <ele>626.17</ele>
  <time>2026-09-01T19:52:55Z</time>
  <course>87.2</course>
  <speed>11.750868053041868</speed>
  <fix>3d</fix>
</trkpt>
<trkpt lat="-35.3629981" lon="149.1638645">
  <ele>626.5</ele>
  <time>2026-09-01T19:52:55Z</time>
  <course>86.49</course>
  <speed>11.87</speed>
  <fix>3d</fix>
</trkpt>
<trkpt lat="-35.3629965" lon="149.1639002">
  <ele>626.08</ele>
  <time>2026-09-01T19:52:55Z</time>
  <course>87.2</course>
  <speed>11.700957225799948</speed>
  <fix>3d</fix>
</trkpt>
<trkpt lat="-35.3629981" lon="149.1638645">
  <ele>626.5</ele>
  <time>2026-09-01T19:52:55Z</time>
  <course>86.49</course>
  <speed>11.87</speed>
  <fix>3d</fix>
</trkpt>
<trkpt lat="-35.3629959" lon="149.1639131">
  <ele>626.0</ele>
  <time>2026-09-01T19:52:55Z</time>
  <course>87.19</course>
  <speed>11.640468203641984</speed>
  <fix>3d</fix>
</trkpt>
<trkpt lat="-35.3629968" lon="149.1638904">
  <ele>626.32</ele>
  <time>2026-09-01T19:52:55Z</time>
  <course>86.48</course>
  <speed>11.74</speed>
  <fix>3d</fix>
</trkpt>
<trkpt lat="-35.3629952" lon="149.1639259">
  <ele>625.91</ele>
  <time>2026-09-01T19:52:55Z</time>
  <course>87.19</course>
  <speed>11.580574251737259</speed>
  <fix>3d</fix>
</trkpt>
<trkpt lat="-35.3629968" lon="149.1638904">
  <ele>626.32</ele>
  <time>2026-09-01T19:52:55Z</time>
  <course>86.48</course>
  <speed>11.74</speed>
  <fix>3d</fix>
</trkpt>
<trkpt lat="-35.3629946" lon="149.1639387">
  <ele>625.83</ele>
  <time>2026-09-01T19:52:55Z</time>
  <course>87.19</course>
  <speed>11.520681403458738</speed>
  <fix>3d</fix>
</trkpt>
<trkpt lat="-35.3629956" lon="149.1639162">
  <ele>626.15</ele>
  <time>2026-09-01T19:52:55Z</time>
  <course>86.48</course>
  <speed>11.63</speed>
  <fix>3d</fix>
</trkpt>
<trkpt lat="-35.3629939" lon="149.1639515">
  <ele>625.74</ele>
  <time>2026-09-01T19:52:55Z</time>
  <course>87.19</course>
  <speed>11.470174366590946</speed>
  <fix>3d</fix>
</trkpt>
<trkpt lat="-35.3629956" lon="149.1639162">
  <ele>626.15</ele>
  <time>2026-09-01T19:52:55Z</time>
  <course>86.48</course>
  <speed>11.63</speed>
  <fix>3d</fix>
</trkpt>
<trkpt lat="-35.3629933" lon="149.1639642">
  <ele>625.66</ele>
  <time>2026-09-01T19:52:55Z</time>
  <course>87.18</course>
  <speed>11.410280452293886</speed>
  <fix>3d</fix>
</trkpt>
<trkpt lat="-35.3629943" lon="149.1639416">
  <ele>625.98</ele>
  <time>2026-09-01T19:52:55Z</time>
  <course>86.47</course>
  <speed>11.51</speed>
  <fix>3d</fix>
</trkpt>
<trkpt lat="-35.3629927" lon="149.1639767">
  <ele>625.57</ele>
  <time>2026-09-01T19:52:55Z</time>
  <course>87.18</course>
  <speed>11.350387658578011</speed>
  <fix>3d</fix>
</trkpt>
<trkpt lat="-35.3629943" lon="149.1639416">
  <ele>625.98</ele>
  <time>2026-09-01T19:52:55Z</time>
  <course>86.47</course>
  <speed>11.51</speed>
  <fix>3d</fix>
</trkpt>
<trkpt lat="-35.3629921" lon="149.1639893">
  <ele>625.49</ele>
  <time>2026-09-01T19:52:55Z</time>
  <course>87.18</course>
  <speed>11.289898139487352</speed>
  <fix>3d</fix>
</trkpt>
<trkpt lat="-35.362993" lon="149.1639668">
  <ele>625.81</ele>
  <time>2026-09-01T19:52:55Z</time>
  <course>86.46</course>
  <speed>11.39</speed>
  <fix>3d</fix>
</trkpt>
<trkpt lat="-35.3629914" lon="149.1640017">
  <ele>625.41</ele>
  <time>2026-09-01T19:52:55Z</time>
  <course>87.17</course>
  <speed>11.23000445235887</speed>
  <fix>3d</fix>
</trkpt>
<trkpt lat="-35.362993" lon="149.1639668">
  <ele>625.81</ele>
  <time>2026-09-01T19:52:55Z</time>
  <course>86.46</course>
  <speed>11.39</speed>
  <fix>3d</fix>
</trkpt>
<trkpt lat="-35.3629908" lon="149.164014">
  <ele>625.33</ele>
  <time>2026-09-01T19:52:55Z</time>
  <course>87.17</course>
  <speed>11.170111906332899</speed>
  <fix>3d</fix>
</trkpt>
<trkpt lat="-35.3629917" lon="149.1639917">
  <ele>625.65</ele>
  <time>2026-09-01T19:52:55Z</time>
  <course>86.46</course>
  <speed>11.27</speed>
  <fix>3d</fix>
</trkpt>
<trkpt lat="-35.3629902" lon="149.1640263">
  <ele>625.25</ele>
  <time>2026-09-01T19:52:55Z</time>
  <course>87.18</course>
  <speed>11.109621955764291</speed>
  <fix>3d</fix>
</trkpt>
<trkpt lat="-35.3629917" lon="149.1639917">
  <ele>625.65</ele>
  <time>2026-09-01T19:52:55Z</time>
  <course>86.46</course>
  <speed>11.27</speed>
  <fix>3d</fix>
</trkpt>
<trkpt lat="-35.3629896" lon="149.1640386">
  <ele>625.17</ele>
  <time>2026-09-01T19:52:55Z</time>
  <course>87.17</course>
  <speed>11.04972850345202</speed>
  <fix>3d</fix>
</trkpt>
<trkpt lat="-35.3629905" lon="149.1640164">
  <ele>625.49</ele>
  <time>2026-09-01T19:52:55Z</time>
  <course>86.45</course>
  <speed>11.15</speed>
  <fix>3d</fix>
</trkpt>
<trkpt lat="-35.362989" lon="149.1640507">
  <ele>625.09</ele>
  <time>2026-09-01T19:52:55Z</time>
  <course>87.17</course>
  <speed>10.9898362135202</speed>
  <fix>3d</fix>
</trkpt>
<trkpt lat="-35.3629905" lon="149.1640164">
  <ele>625.49</ele>
  <time>2026-09-01T19:52:55Z</time>
  <course>86.45</course>
  <speed>11.15</speed>
  <fix>3d</fix>
</trkpt>
<trkpt lat="-35.3629883" lon="149.1640628">
  <ele>625.01</ele>
  <time>2026-09-01T19:52:55Z</time>
  <course>87.17</course>
  <speed>10.929345817568406</speed>
  <fix>3d</fix>
</trkpt>
<trkpt lat="-35.3629892" lon="149.1640408">
  <ele>625.32</ele>
  <time>2026-09-01T19:52:55Z</time>
  <course>86.45</course>
  <speed>11.03</speed>
  <fix>3d</fix>
</trkpt>
<trkpt lat="-35.3629877" lon="149.1640748">
  <ele>624.93</ele>
  <time>2026-09-01T19:52:55Z</time>
  <course>87.17</course>
  <speed>10.869452608112333</speed>
  <fix>3d</fix>
</trkpt>
<trkpt lat="-35.3629892" lon="149.1640408">
  <ele>625.32</ele>
  <time>2026-09-01T19:52:55Z</time>
  <course>86.45</course>
  <speed>11.03</speed>
  <fix>3d</fix>
</trkpt>
<trkpt lat="-35.3629871" lon="149.1640868">
  <ele>624.85</ele>
  <time>2026-09-01T19:52:55Z</time>
  <course>87.17</course>
  <speed>10.80956058311345</speed>
  <fix>3d</fix>
</trkpt>
<trkpt lat="-35.362988" lon="149.164065">
  <ele>625.17</ele>
  <time>2026-09-01T19:52:55Z</time>
  <course>86.44</course>
  <speed>10.91</speed>
  <fix>3d</fix>
</trkpt>
<trkpt lat="-35.3629865" lon="149.1640986">
  <ele>624.77</ele>
  <time>2026-09-01T19:52:55Z</time>
  <course>87.17</course>
  <speed>10.74906972719035</speed>
  <fix>3d</fix>
</trkpt>
<trkpt lat="-35.362988" lon="149.164065">
  <ele>625.17</ele>
  <time>2026-09-01T19:52:55Z</time>
  <course>86.44</course>
  <speed>10.91</speed>
  <fix>3d</fix>
</trkpt>
<trkpt lat="-35.3629859" lon="149.1641105">
  <ele>624.69</ele>
  <time>2026-09-01T19:52:55Z</time>
  <course>87.17</course>
  <speed>10.699158845442009</speed>
  <fix>3d</fix>
</trkpt>
<trkpt lat="-35.3629868" lon="149.1640888">
  <ele>625.01</ele>
  <time>2026-09-01T19:52:55Z</time>
  <course>86.44</course>
  <speed>10.79</speed>
  <fix>3d</fix>
</trkpt>
<trkpt lat="-35.3629853" lon="149.1641222">
  <ele>624.61</ele>
  <time>2026-09-01T19:52:55Z</time>
  <course>87.17</course>
  <speed>10.63926689203725</speed>
  <fix>3d</fix>
</trkpt>
<trkpt lat="-35.3629868" lon="149.1640888">
  <ele>625.01</ele>
  <time>2026-09-01T19:52:55Z</time>
  <course>86.44</course>
  <speed>10.79</speed>
  <fix>3d</fix>
</trkpt>
<trkpt lat="-35.3629847" lon="149.1641339">
  <ele>624.53</ele>
  <time>2026-09-01T19:52:55Z</time>
  <course>87.16</course>
  <speed>10.578775921627228</speed>
  <fix>3d</fix>
</trkpt>
<trkpt lat="-35.3629856" lon="149.1641124">
  <ele>624.85</ele>
  <time>2026-09-01T19:52:55Z</time>
  <course>86.43</course>
  <speed>10.67</speed>
  <fix>3d</fix>
</trkpt>
<trkpt lat="-35.3629841" lon="149.1641455">
  <ele>624.45</ele>
  <time>2026-09-01T19:52:55Z</time>
  <course>87.16</course>
  <speed>10.518883020549284</speed>
  <fix>3d</fix>
</trkpt>
<trkpt lat="-35.3629856" lon="149.1641124">
  <ele>624.85</ele>
  <time>2026-09-01T19:52:55Z</time>
  <course>86.43</course>
  <speed>10.67</speed>
  <fix>3d</fix>
</trkpt>
<trkpt lat="-35.3629836" lon="149.164157">
  <ele>624.38</ele>
  <time>2026-09-01T19:52:55Z</time>
  <course>87.16</course>
  <speed>10.458991347161541</speed>
  <fix>3d</fix>
</trkpt>
<trkpt lat="-35.3629844" lon="149.1641358">
  <ele>624.69</ele>
  <time>2026-09-01T19:52:55Z</time>
  <course>86.43</course>
  <speed>10.55</speed>
  <fix>3d</fix>
</trkpt>
<trkpt lat="-35.362983" lon="149.1641684">
  <ele>624.3</ele>
  <time>2026-09-01T19:52:55Z</time>
  <course>87.17</course>
  <speed>10.39849989181132</speed>
  <fix>3d</fix>
</trkpt>
<trkpt lat="-35.3629844" lon="149.1641358">
  <ele>624.69</ele>
  <time>2026-09-01T19:52:55Z</time>
  <course>86.43</course>
  <speed>10.55</speed>
  <fix>3d</fix>
</trkpt>
<trkpt lat="-35.3629824" lon="149.1641797">
  <ele>624.22</ele>
  <time>2026-09-01T19:52:55Z</time>
  <course>87.17</course>
  <speed>10.338607256299081</speed>
  <fix>3d</fix>
</trkpt>
<trkpt lat="-35.3629832" lon="149.1641588">
  <ele>624.54</ele>
  <time>2026-09-01T19:52:55Z</time>
  <course>86.42</course>
  <speed>10.43</speed>
  <fix>3d</fix>
</trkpt>
<trkpt lat="-35.3629818" lon="149.164191">
  <ele>624.15</ele>
  <time>2026-09-01T19:52:55Z</time>
  <course>87.17</course>
  <speed>10.268734099196454</speed>
  <fix>3d</fix>
</trkpt>
<trkpt lat="-35.3629832" lon="149.1641588">
  <ele>624.54</ele>
  <time>2026-09-01T19:52:55Z</time>
  <course>86.42</course>
  <speed>10.43</speed>
  <fix>3d</fix>
</trkpt>
<trkpt lat="-35.3629812" lon="149.1642023">
  <ele>624.07</ele>
  <time>2026-09-01T19:52:55Z</time>
  <course>87.18</course>
  <speed>10.208241768296832</speed>
  <fix>3d</fix>
</trkpt>
<trkpt lat="-35.3629821" lon="149.1641816">
  <ele>624.38</ele>
  <time>2026-09-01T19:52:55Z</time>
  <course>86.42</course>
  <speed>10.32</speed>
  <fix>3d</fix>
</trkpt>
<trkpt lat="-35.3629807" lon="149.1642135">
  <ele>623.99</ele>
  <time>2026-09-01T19:52:55Z</time>
  <course>87.18</course>
  <speed>10.148349619519422</speed>
  <fix>3d</fix>
</trkpt>
<trkpt lat="-35.3629821" lon="149.1641816">
  <ele>624.38</ele>
  <time>2026-09-01T19:52:55Z</time>
  <course>86.42</course>
  <speed>10.32</speed>
  <fix>3d</fix>
</trkpt>
<trkpt lat="-35.3629801" lon="149.1642245">
  <ele>623.91</ele>
  <time>2026-09-01T19:52:55Z</time>
  <course>87.18</course>
  <speed>10.087859039459266</speed>
  <fix>3d</fix>
</trkpt>
<trkpt lat="-35.362981" lon="149.1642041">
  <ele>624.23</ele>
  <time>2026-09-01T19:52:55Z</time>
  <course>86.42</course>
  <speed>10.2</speed>
  <fix>3d</fix>
</trkpt>
<trkpt lat="-35.3629796" lon="149.1642355">
  <ele>623.84</ele>
  <time>2026-09-01T19:52:55Z</time>
  <course>87.18</course>
  <speed>10.027965895434626</speed>
  <fix>3d</fix>
</trkpt>
<trkpt lat="-35.362981" lon="149.1642041">
  <ele>624.23</ele>
  <time>2026-09-01T19:52:55Z</time>
  <course>86.42</course>
  <speed>10.2</speed>
  <fix>3d</fix>
</trkpt>
<trkpt lat="-35.362979" lon="149.1642465">
  <ele>623.76</ele>
  <time>2026-09-01T19:52:55Z</time>
  <course>87.19</course>
  <speed>9.968074036643188</speed>
  <fix>3d</fix>
</trkpt>
<trkpt lat="-35.3629798" lon="149.1642265">
  <ele>624.07</ele>
  <time>2026-09-01T19:52:55Z</time>
  <course>86.41</course>
  <speed>10.08</speed>
  <fix>3d</fix>
</trkpt>
<trkpt lat="-35.3629784" lon="149.1642573">
  <ele>623.68</ele>
  <time>2026-09-01T19:52:55Z</time>
  <course>87.19</course>
  <speed>9.907582954484914</speed>
  <fix>3d</fix>
</trkpt>
<trkpt lat="-35.3629798" lon="149.1642265">
  <ele>624.07</ele>
  <time>2026-09-01T19:52:55Z</time>
  <course>86.41</course>
  <speed>10.08</speed>
  <fix>3d</fix>
</trkpt>
<trkpt lat="-35.3629779" lon="149.1642682">
  <ele>623.61</ele>
  <time>2026-09-01T19:52:55Z</time>
  <course>87.19</course>
  <speed>9.84769008448174</speed>
  <fix>3d</fix>
</trkpt>
<trkpt lat="-35.3629787" lon="149.1642486">
  <ele>623.92</ele>
  <time>2026-09-01T19:52:55Z</time>
  <course>86.41</course>
  <speed>9.97</speed>
  <fix>3d</fix>
</trkpt>
<trkpt lat="-35.3629773" lon="149.164279">
  <ele>623.53</ele>
  <time>2026-09-01T19:52:55Z</time>
  <course>87.19</course>
  <speed>9.797780360877661</speed>
  <fix>3d</fix>
</trkpt>
<trkpt lat="-35.3629787" lon="149.1642486">
  <ele>623.92</ele>
  <time>2026-09-01T19:52:55Z</time>
  <course>86.41</course>
  <speed>9.97</speed>
  <fix>3d</fix>
</trkpt>
<trkpt lat="-35.3629768" lon="149.1642898">
  <ele>623.45</ele>
  <time>2026-09-01T19:52:55Z</time>
  <course>87.19</course>
  <speed>9.73728915047715</speed>
  <fix>3d</fix>
</trkpt>
<trkpt lat="-35.3629776" lon="149.1642704">
  <ele>623.76</ele>
  <time>2026-09-01T19:52:55Z</time>
  <course>86.41</course>
  <speed>9.86</speed>
  <fix>3d</fix>
</trkpt>
<trkpt lat="-35.3629762" lon="149.1643006">
  <ele>623.37</ele>
  <time>2026-09-01T19:52:55Z</time>
  <course>87.19</course>
  <speed>9.687378386333426</speed>
  <fix>3d</fix>
</trkpt>
<trkpt lat="-35.3629776" lon="149.1642704">
  <ele>623.76</ele>
  <time>2026-09-01T19:52:55Z</time>
  <course>86.41</course>
  <speed>9.86</speed>
  <fix>3d</fix>
</trkpt>
<trkpt lat="-35.3629757" lon="149.1643113">
  <ele>623.29</ele>
  <time>2026-09-01T19:52:55Z</time>
  <course>87.2</course>
  <speed>9.626889424938877</speed>
  <fix>3d</fix>
</trkpt>
<trkpt lat="-35.3629765" lon="149.164292">
  <ele>623.6</ele>
  <time>2026-09-01T19:52:55Z</time>
  <course>86.41</course>
  <speed>9.74</speed>
  <fix>3d</fix>
</trkpt>
<trkpt lat="-35.3629752" lon="149.1643219">
  <ele>623.21</ele>
  <time>2026-09-01T19:52:55Z</time>
  <course>87.2</course>
  <speed>9.576977602563348</speed>
  <fix>3d</fix>
</trkpt>
<trkpt lat="-35.3629765" lon="149.164292">
  <ele>623.6</ele>
  <time>2026-09-01T19:52:55Z</time>
  <course>86.41</course>
  <speed>9.74</speed>
  <fix>3d</fix>
</trkpt>
<trkpt lat="-35.3629746" lon="149.1643325">
  <ele>623.13</ele>
  <time>2026-09-01T19:52:55Z</time>
  <course>87.2</course>
  <speed>9.517084637639828</speed>
  <fix>3d</fix>
</trkpt>
<trkpt lat="-35.3629754" lon="149.1643133">
  <ele>623.45</ele>
  <time>2026-09-01T19:52:55Z</time>
  <course>86.41</course>
  <speed>9.63</speed>
  <fix>3d</fix>
</trkpt>
<trkpt lat="-35.3629741" lon="149.164343">
  <ele>623.05</ele>
  <time>2026-09-01T19:52:55Z</time>
  <course>87.2</course>
  <speed>9.466578051228439</speed>
  <fix>3d</fix>
</trkpt>
<trkpt lat="-35.3629754" lon="149.1643133">
  <ele>623.45</ele>
  <time>2026-09-01T19:52:55Z</time>
  <course>86.41</course>
  <speed>9.63</speed>
  <fix>3d</fix>
</trkpt>
<trkpt lat="-35.3629736" lon="149.1643534">
  <ele>622.97</ele>
  <time>2026-09-01T19:52:55Z</time>
  <course>87.21</course>
  <speed>9.406683793983936</speed>
  <fix>3d</fix>
</trkpt>
<trkpt lat="-35.3629743" lon="149.1643343">
  <ele>623.29</ele>
  <time>2026-09-01T19:52:55Z</time>
  <course>86.41</course>
  <speed>9.52</speed>
  <fix>3d</fix>
</trkpt>
<trkpt lat="-35.362973" lon="149.1643636">
  <ele>622.89</ele>
  <time>2026-09-01T19:52:55Z</time>
  <course>87.21</course>
  <speed>9.346790893135461</speed>
  <fix>3d</fix>
</trkpt>
<trkpt lat="-35.3629743" lon="149.1643343">
  <ele>623.29</ele>
  <time>2026-09-01T19:52:55Z</time>
  <course>86.41</course>
  <speed>9.52</speed>
  <fix>3d</fix>
</trkpt>
<trkpt lat="-35.3629725" lon="149.1643738">
  <ele>622.82</ele>
  <time>2026-09-01T19:52:55Z</time>
  <course>87.22</course>
  <speed>9.27631931317589</speed>
  <fix>3d</fix>
</trkpt>
<trkpt lat="-35.3629733" lon="149.1643551">
  <ele>623.13</ele>
  <time>2026-09-01T19:52:55Z</time>
  <course>86.41</course>
  <speed>9.41</speed>
  <fix>3d</fix>
</trkpt>
<trkpt lat="-35.362972" lon="149.1643838">
  <ele>622.74</ele>
  <time>2026-09-01T19:52:55Z</time>
  <course>87.23</course>
  <speed>9.216425554410995</speed>
  <fix>3d</fix>
</trkpt>
<trkpt lat="-35.3629733" lon="149.1643551">
  <ele>623.13</ele>
  <time>2026-09-01T19:52:55Z</time>
  <course>86.41</course>
  <speed>9.41</speed>
  <fix>3d</fix>
</trkpt>
<trkpt lat="-35.3629715" lon="149.1643938">
  <ele>622.66</ele>
  <time>2026-09-01T19:52:55Z</time>
  <course>87.23</course>
  <speed>9.155937963966334</speed>
  <fix>3d</fix>
</trkpt>
<trkpt lat="-35.3629722" lon="149.1643757">
  <ele>622.98</ele>
  <time>2026-09-01T19:52:55Z</time>
  <course>86.4</course>
  <speed>9.29</speed>
  <fix>3d</fix>
</trkpt>
<trkpt lat="-35.362971" lon="149.1644037">
  <ele>622.59</ele>
  <time>2026-09-01T19:52:55Z</time>
  <course>87.24</course>
  <speed>9.096043095764223</speed>
  <fix>3d</fix>
</trkpt>
<trkpt lat="-35.3629722" lon="149.1643757">
  <ele>622.98</ele>
  <time>2026-09-01T19:52:55Z</time>
  <course>86.4</course>
  <speed>9.29</speed>
  <fix>3d</fix>
</trkpt>
<trkpt lat="-35.3629705" lon="149.1644136">
  <ele>622.51</ele>
  <time>2026-09-01T19:52:55Z</time>
  <course>87.24</course>
  <speed>9.036149622488553</speed>
  <fix>3d</fix>
</trkpt>
<trkpt lat="-35.3629711" lon="149.1643959">
  <ele>622.82</ele>
  <time>2026-09-01T19:52:55Z</time>
  <course>86.4</course>
  <speed>9.18</speed>
  <fix>3d</fix>
</trkpt>
<trkpt lat="-35.36297" lon="149.1644235">
  <ele>622.43</ele>
  <time>2026-09-01T19:52:55Z</time>
  <course>87.25</course>
  <speed>8.975661535508122</speed>
  <fix>3d</fix>
</trkpt>
<trkpt lat="-35.3629711" lon="149.1643959">
  <ele>622.82</ele>
  <time>2026-09-01T19:52:55Z</time>
  <course>86.4</course>
  <speed>9.18</speed>
  <fix>3d</fix>
</trkpt>
<trkpt lat="-35.3629695" lon="149.1644333">
  <ele>622.35</ele>
  <time>2026-09-01T19:52:55Z</time>
  <course>87.25</course>
  <speed>8.915766932799444</speed>
  <fix>3d</fix>
</trkpt>
<trkpt lat="-35.3629702" lon="149.164416">
  <ele>622.67</ele>
  <time>2026-09-01T19:52:55Z</time>
  <course>86.4</course>
  <speed>9.07</speed>
  <fix>3d</fix>
</trkpt>
<trkpt lat="-35.362969" lon="149.164443">
  <ele>622.28</ele>
  <time>2026-09-01T19:52:55Z</time>
  <course>87.26</course>
  <speed>8.855873757004444</speed>
  <fix>3d</fix>
</trkpt>
<trkpt lat="-35.3629702" lon="149.164416">
  <ele>622.67</ele>
  <time>2026-09-01T19:52:55Z</time>
  <course>86.4</course>
  <speed>9.07</speed>
  <fix>3d</fix>
</trkpt>
<trkpt lat="-35.3629685" lon="149.1644527">
  <ele>622.2</ele>
  <time>2026-09-01T19:52:55Z</time>
  <course>87.26</course>
  <speed>8.80536768113632</speed>
  <fix>3d</fix>
</trkpt>
<trkpt lat="-35.3629691" lon="149.1644359">
  <ele>622.51</ele>
  <time>2026-09-01T19:52:55Z</time>
  <course>86.4</course>
  <speed>8.95</speed>
  <fix>3d</fix>
</trkpt>
<trkpt lat="-35.362968" lon="149.1644624">
  <ele>622.12</ele>
  <time>2026-09-01T19:52:55Z</time>
  <course>87.26</course>
  <speed>8.745473114703401</speed>
  <fix>3d</fix>
</trkpt>
<trkpt lat="-35.3629691" lon="149.1644359">
  <ele>622.51</ele>
  <time>2026-09-01T19:52:55Z</time>
  <course>86.4</course>
  <speed>8.95</speed>
  <fix>3d</fix>
</trkpt>
<trkpt lat="-35.3629675" lon="149.1644721">
  <ele>622.04</ele>
  <time>2026-09-01T19:52:55Z</time>
  <course>87.27</course>
  <speed>8.695562086489867</speed>
  <fix>3d</fix>
</trkpt>
<trkpt lat="-35.3629682" lon="149.1644555">
  <ele>622.35</ele>
  <time>2026-09-01T19:52:55Z</time>
  <course>86.4</course>
  <speed>8.84</speed>
  <fix>3d</fix>
</trkpt>
<trkpt lat="-35.362967" lon="149.1644817">
  <ele>621.96</ele>
  <time>2026-09-01T19:52:55Z</time>
  <course>87.27</course>
  <speed>8.635073827130837</speed>
  <fix>3d</fix>
</trkpt>
<trkpt lat="-35.3629682" lon="149.1644555">
  <ele>622.35</ele>
  <time>2026-09-01T19:52:55Z</time>
  <course>86.4</course>
  <speed>8.84</speed>
  <fix>3d</fix>
</trkpt>
<trkpt lat="-35.3629665" lon="149.1644912">
  <ele>621.88</ele>
  <time>2026-09-01T19:52:55Z</time>
  <course>87.27</course>
  <speed>8.585161617581814</speed>
  <fix>3d</fix>
</trkpt>
<trkpt lat="-35.3629672" lon="149.1644748">
  <ele>622.19</ele>
  <time>2026-09-01T19:52:55Z</time>
  <course>86.4</course>
  <speed>8.73</speed>
  <fix>3d</fix>
</trkpt>
<trkpt lat="-35.3629661" lon="149.1645007">
  <ele>621.8</ele>
  <time>2026-09-01T19:52:55Z</time>
  <course>87.28</course>
  <speed>8.534658751233115</speed>
  <fix>3d</fix>
</trkpt>
<trkpt lat="-35.3629672" lon="149.1644748">
  <ele>622.19</ele>
  <time>2026-09-01T19:52:55Z</time>
  <course>86.4</course>
  <speed>8.73</speed>
  <fix>3d</fix>
</trkpt>
<trkpt lat="-35.3629656" lon="149.1645102">
  <ele>621.72</ele>
  <time>2026-09-01T19:52:55Z</time>
  <course>87.28</course>
  <speed>8.474762533546293</speed>
  <fix>3d</fix>
</trkpt>
<trkpt lat="-35.3629662" lon="149.164494">
  <ele>622.03</ele>
  <time>2026-09-01T19:52:55Z</time>
  <course>86.4</course>
  <speed>8.63</speed>
  <fix>3d</fix>
</trkpt>
<trkpt lat="-35.3629651" lon="149.1645195">
  <ele>621.65</ele>
  <time>2026-09-01T19:52:55Z</time>
  <course>87.29</course>
  <speed>8.424850147035258</speed>
  <fix>3d</fix>
</trkpt>
<trkpt lat="-35.3629662" lon="149.164494">
  <ele>622.03</ele>
  <time>2026-09-01T19:52:55Z</time>
  <course>86.4</course>
  <speed>8.63</speed>
  <fix>3d</fix>
</trkpt>
<trkpt lat="-35.3629646" lon="149.1645289">
  <ele>621.57</ele>
  <time>2026-09-01T19:52:55Z</time>
  <course>87.3</course>
  <speed>8.374347735794114</speed>
  <fix>3d</fix>
</trkpt>
<trkpt lat="-35.3629652" lon="149.1645128">
  <ele>621.86</ele>
  <time>2026-09-01T19:52:55Z</time>
  <course>86.4</course>
  <speed>8.52</speed>
  <fix>3d</fix>
</trkpt>
<trkpt lat="-35.3629642" lon="149.1645381">
  <ele>621.49</ele>
  <time>2026-09-01T19:52:55Z</time>
  <course>87.3</course>
  <speed>8.31445127473846</speed>
  <fix>3d</fix>
</trkpt>
<trkpt lat="-35.3629652" lon="149.1645128">
  <ele>621.86</ele>
  <time>2026-09-01T19:52:55Z</time>
  <course>86.4</course>
  <speed>8.52</speed>
  <fix>3d</fix>
</trkpt>
<trkpt lat="-35.3629637" lon="149.1645473">
  <ele>621.41</ele>
  <time>2026-09-01T19:52:55Z</time>
  <course>87.31</course>
  <speed>8.264538704610198</speed>
  <fix>3d</fix>
</trkpt>
<trkpt lat="-35.3629642" lon="149.1645314">
  <ele>621.7</ele>
  <time>2026-09-01T19:52:55Z</time>
  <course>86.4</course>
  <speed>8.4</speed>
  <fix>3d</fix>
</trkpt>
<trkpt lat="-35.3629632" lon="149.1645564">
  <ele>621.33</ele>
  <time>2026-09-01T19:52:55Z</time>
  <course>87.31</course>
  <speed>8.204053875981069</speed>
  <fix>3d</fix>
</trkpt>
<trkpt lat="-35.3629642" lon="149.1645314">
  <ele>621.7</ele>
  <time>2026-09-01T19:52:55Z</time>
  <course>86.4</course>
  <speed>8.4</speed>
  <fix>3d</fix>
</trkpt>
<trkpt lat="-35.3629628" lon="149.1645654">
  <ele>621.25</ele>
  <time>2026-09-01T19:52:55Z</time>
  <course>87.32</course>
  <speed>8.144157414981613</speed>
  <fix>3d</fix>
</trkpt>
<trkpt lat="-35.3629633" lon="149.1645498">
  <ele>621.54</ele>
  <time>2026-09-01T19:52:55Z</time>
  <course>86.4</course>
  <speed>8.29</speed>
  <fix>3d</fix>
</trkpt>
<trkpt lat="-35.3629623" lon="149.1645743">
  <ele>621.17</ele>
  <time>2026-09-01T19:52:55Z</time>
  <course>87.33</course>
  <speed>8.08426248955339</speed>
  <fix>3d</fix>
</trkpt>
<trkpt lat="-35.3629633" lon="149.1645498">
  <ele>621.54</ele>
  <time>2026-09-01T19:52:55Z</time>
  <course>86.4</course>
  <speed>8.29</speed>
  <fix>3d</fix>
</trkpt>
<trkpt lat="-35.3629619" lon="149.1645832">
  <ele>621.09</ele>
  <time>2026-09-01T19:52:55Z</time>
  <course>87.34</course>
  <speed>8.023777165400345</speed>
  <fix>3d</fix>
</trkpt>
<trkpt lat="-35.3629624" lon="149.1645679">
  <ele>621.38</ele>
  <time>2026-09-01T19:52:55Z</time>
  <course>86.4</course>
  <speed>8.18</speed>
  <fix>3d</fix>
</trkpt>
<trkpt lat="-35.3629614" lon="149.164592">
  <ele>621.01</ele>
  <time>2026-09-01T19:52:55Z</time>
  <course>87.34</course>
  <speed>7.963880963449919</speed>
  <fix>3d</fix>
</trkpt>
<trkpt lat="-35.3629624" lon="149.1645679">
  <ele>621.38</ele>
  <time>2026-09-01T19:52:55Z</time>
  <course>86.4</course>
  <speed>8.18</speed>
  <fix>3d</fix>
</trkpt>
<trkpt lat="-35.362961" lon="149.1646007">
  <ele>620.93</ele>
  <time>2026-09-01T19:52:55Z</time>
  <course>87.35</course>
  <speed>7.913968663066591</speed>
  <fix>3d</fix>
</trkpt>
<trkpt lat="-35.3629614" lon="149.1645857">
  <ele>621.21</ele>
  <time>2026-09-01T19:52:55Z</time>
  <course>86.4</course>
  <speed>8.06</speed>
  <fix>3d</fix>
</trkpt>
<trkpt lat="-35.3629605" lon="149.1646094">
  <ele>620.85</ele>
  <time>2026-09-01T19:52:55Z</time>
  <course>87.36</course>
  <speed>7.853483303604841</speed>
  <fix>3d</fix>
</trkpt>
<trkpt lat="-35.3629614" lon="149.1645857">
  <ele>621.21</ele>
  <time>2026-09-01T19:52:55Z</time>
  <course>86.4</course>
  <speed>8.06</speed>
  <fix>3d</fix>
</trkpt>
<trkpt lat="-35.3629601" lon="149.1646181">
  <ele>620.77</ele>
  <time>2026-09-01T19:52:55Z</time>
  <course>87.37</course>
  <speed>7.793587107359486</speed>
  <fix>3d</fix>
</trkpt>
<trkpt lat="-35.3629605" lon="149.1646033">
  <ele>621.04</ele>
  <time>2026-09-01T19:52:55Z</time>
  <course>86.4</course>
  <speed>7.95</speed>
  <fix>3d</fix>
</trkpt>
<trkpt lat="-35.3629596" lon="149.1646266">
  <ele>620.68</ele>
  <time>2026-09-01T19:52:55Z</time>
  <course>87.38</course>
  <speed>7.733104163271047</speed>
  <fix>3d</fix>
</trkpt>
<trkpt lat="-35.3629605" lon="149.1646033">
  <ele>621.04</ele>
  <time>2026-09-01T19:52:55Z</time>
  <course>86.4</course>
  <speed>7.95</speed>
  <fix>3d</fix>
</trkpt>
<trkpt lat="-35.3629592" lon="149.1646352">
  <ele>620.6</ele>
  <time>2026-09-01T19:52:55Z</time>
  <course>87.39</course>
  <speed>7.683189441891955</speed>
  <fix>3d</fix>
</trkpt>
<trkpt lat="-35.3629597" lon="149.1646207">
  <ele>620.88</ele>
  <time>2026-09-01T19:52:55Z</time>
  <course>86.4</course>
  <speed>7.83</speed>
  <fix>3d</fix>
</trkpt>
<trkpt lat="-35.3629587" lon="149.1646437">
  <ele>620.51</ele>
  <time>2026-09-01T19:52:55Z</time>
  <course>87.4</course>
  <speed>7.633275836755803</speed>
  <fix>3d</fix>
</trkpt>
<trkpt lat="-35.3629597" lon="149.1646207">
  <ele>620.88</ele>
  <time>2026-09-01T19:52:55Z</time>
  <course>86.4</course>
  <speed>7.83</speed>
  <fix>3d</fix>
</trkpt>
<trkpt lat="-35.3629583" lon="149.1646521">
  <ele>620.42</ele>
  <time>2026-09-01T19:52:55Z</time>
  <course>87.4</course>
  <speed>7.572793407983609</speed>
  <fix>3d</fix>
</trkpt>
<trkpt lat="-35.3629588" lon="149.1646378">
  <ele>620.7</ele>
  <time>2026-09-01T19:52:55Z</time>
  <course>86.4</course>
  <speed>7.72</speed>
  <fix>3d</fix>
</trkpt>
<trkpt lat="-35.3629579" lon="149.1646605">
  <ele>620.33</ele>
  <time>2026-09-01T19:52:55Z</time>
  <course>87.42</course>
  <speed>7.512895580267305</speed>
  <fix>3d</fix>
</trkpt>
<trkpt lat="-35.3629588" lon="149.1646378">
  <ele>620.7</ele>
  <time>2026-09-01T19:52:55Z</time>
  <course>86.4</course>
  <speed>7.72</speed>
  <fix>3d</fix>
</trkpt>
<trkpt lat="-35.3629575" lon="149.1646687">
  <ele>620.25</ele>
  <time>2026-09-01T19:52:55Z</time>
  <course>87.43</course>
  <speed>7.462981977735174</speed>
  <fix>3d</fix>
</trkpt>
<trkpt lat="-35.3629579" lon="149.1646547">
  <ele>620.53</ele>
  <time>2026-09-01T19:52:55Z</time>
  <course>86.4</course>
  <speed>7.61</speed>
  <fix>3d</fix>
</trkpt>
<trkpt lat="-35.362957" lon="149.164677">
  <ele>620.16</ele>
  <time>2026-09-01T19:52:55Z</time>
  <course>87.44</course>
  <speed>7.40249957784531</speed>
  <fix>3d</fix>
</trkpt>
<trkpt lat="-35.3629579" lon="149.1646547">
  <ele>620.53</ele>
  <time>2026-09-01T19:52:55Z</time>
  <course>86.4</course>
  <speed>7.61</speed>
  <fix>3d</fix>
</trkpt>
<trkpt lat="-35.3629566" lon="149.1646851">
  <ele>620.07</ele>
  <time>2026-09-01T19:52:55Z</time>
  <course>87.45</course>
  <speed>7.352584579588323</speed>
  <fix>3d</fix>
</trkpt>
<trkpt lat="-35.3629571" lon="149.1646713">
  <ele>620.36</ele>
  <time>2026-09-01T19:52:55Z</time>
  <course>86.41</course>
  <speed>7.5</speed>
  <fix>3d</fix>
</trkpt>
<trkpt lat="-35.3629562" lon="149.1646932">
  <ele>619.98</ele>
  <time>2026-09-01T19:52:55Z</time>
  <course>87.46</course>
  <speed>7.2926881189311805</speed>
  <fix>3d</fix>
</trkpt>
<trkpt lat="-35.3629571" lon="149.1646713">
  <ele>620.36</ele>
  <time>2026-09-01T19:52:55Z</time>
  <course>86.41</course>
  <speed>7.5</speed>
  <fix>3d</fix>
</trkpt>
<trkpt lat="-35.3629558" lon="149.1647013">
  <ele>619.89</ele>
  <time>2026-09-01T19:52:55Z</time>
  <course>87.47</course>
  <speed>7.242188895630934</speed>
  <fix>3d</fix>
</trkpt>
<trkpt lat="-35.3629562" lon="149.1646877">
  <ele>620.18</ele>
  <time>2026-09-01T19:52:55Z</time>
  <course>86.41</course>
  <speed>7.38</speed>
  <fix>3d</fix>
</trkpt>
<trkpt lat="-35.3629554" lon="149.1647093">
  <ele>619.79</ele>
  <time>2026-09-01T19:52:55Z</time>
  <course>87.48</course>
  <speed>7.192273632169455</speed>
  <fix>3d</fix>
</trkpt>
<trkpt lat="-35.3629562" lon="149.1646877">
  <ele>620.18</ele>
  <time>2026-09-01T19:52:55Z</time>
  <course>86.41</course>
  <speed>7.38</speed>
  <fix>3d</fix>
</trkpt>
<trkpt lat="-35.362955" lon="149.1647173">
  <ele>619.7</ele>
  <time>2026-09-01T19:52:55Z</time>
  <course>87.49</course>
  <speed>7.132376882919186</speed>
  <fix>3d</fix>
</trkpt>
<trkpt lat="-35.3629554" lon="149.1647037">
  <ele>620.0</ele>
  <time>2026-09-01T19:52:55Z</time>
  <course>86.41</course>
  <speed>7.27</speed>
  <fix>3d</fix>
</trkpt>
<trkpt lat="-35.3629546" lon="149.1647252">
  <ele>619.61</ele>
  <time>2026-09-01T19:52:55Z</time>
  <course>87.51</course>
  <speed>7.08187828192493</speed>
  <fix>3d</fix>
</trkpt>
<trkpt lat="-35.3629554" lon="149.1647037">
  <ele>620.0</ele>
  <time>2026-09-01T19:52:55Z</time>
  <course>86.41</course>
  <speed>7.27</speed>
  <fix>3d</fix>
</trkpt>
<trkpt lat="-35.3629542" lon="149.1647331">
  <ele>619.51</ele>
  <time>2026-09-01T19:52:55Z</time>
  <course>87.52</course>
  <speed>7.031962741653286</speed>
  <fix>3d</fix>
</trkpt>
<trkpt lat="-35.3629545" lon="149.1647196">
  <ele>619.81</ele>
  <time>2026-09-01T19:52:55Z</time>
  <course>86.41</course>
  <speed>7.16</speed>
  <fix>3d</fix>
</trkpt>
<trkpt lat="-35.3629538" lon="149.1647409">
  <ele>619.42</ele>
  <time>2026-09-01T19:52:55Z</time>
  <course>87.53</course>
  <speed>6.972065691027301</speed>
  <fix>3d</fix>
</trkpt>
<trkpt lat="-35.3629545" lon="149.1647196">
  <ele>619.81</ele>
  <time>2026-09-01T19:52:55Z</time>
  <course>86.41</course>
  <speed>7.16</speed>
  <fix>3d</fix>
</trkpt>
<trkpt lat="-35.3629534" lon="149.1647487">
  <ele>619.31</ele>
  <time>2026-09-01T19:52:55Z</time>
  <course>87.54</course>
  <speed>6.911584478250989</speed>
  <fix>3d</fix>
</trkpt>
<trkpt lat="-35.3629538" lon="149.1647353">
  <ele>619.62</ele>
  <time>2026-09-01T19:52:55Z</time>
  <course>86.41</course>
  <speed>7.04</speed>
  <fix>3d</fix>
</trkpt>
<trkpt lat="-35.362953" lon="149.1647563">
  <ele>619.21</ele>
  <time>2026-09-01T19:52:55Z</time>
  <course>87.56</course>
  <speed>6.851685923916829</speed>
  <fix>3d</fix>
</trkpt>
<trkpt lat="-35.3629538" lon="149.1647353">
  <ele>619.62</ele>
  <time>2026-09-01T19:52:55Z</time>
  <course>86.41</course>
  <speed>7.04</speed>
  <fix>3d</fix>
</trkpt>
<trkpt lat="-35.3629526" lon="149.1647639">
  <ele>619.07</ele>
  <time>2026-09-01T19:52:55Z</time>
  <course>87.57</course>
  <speed>6.711341147639569</speed>
  <fix>3d</fix>
</trkpt>
<trkpt lat="-35.362953" lon="149.1647506">
  <ele>619.42</ele>
  <time>2026-09-01T19:52:55Z</time>
  <course>86.42</course>
  <speed>6.92</speed>
  <fix>3d</fix>
</trkpt>
<trkpt lat="-35.3629522" lon="149.1647712">
  <ele>618.87</ele>
  <time>2026-09-01T19:52:55Z</time>
  <course>87.61</course>
  <speed>6.431236273066012</speed>
  <fix>3d</fix>
</trkpt>
<trkpt lat="-35.362953" lon="149.1647506">
  <ele>619.42</ele>
  <time>2026-09-01T19:52:55Z</time>
  <course>86.42</course>
  <speed>6.92</speed>
  <fix>3d</fix>
</trkpt>
<trkpt lat="-35.3629518" lon="149.1647781">
  <ele>618.62</ele>
  <time>2026-09-01T19:52:55Z</time>
  <course>87.76</course>
  <speed>6.080666081935432</speed>
  <fix>3d</fix>
</trkpt>
<trkpt lat="-35.3629523" lon="149.1647656">
  <ele>619.15</ele>
  <time>2026-09-01T19:52:55Z</time>
  <course>86.42</course>
  <speed>6.65</speed>
  <fix>3d</fix>
</trkpt>
<trkpt lat="-35.3629515" lon="149.1647846">
  <ele>618.35</ele>
  <time>2026-09-01T19:52:55Z</time>
  <course>88.03</course>
  <speed>5.690166957128763</speed>
  <fix>3d</fix>
</trkpt>
<trkpt lat="-35.3629523" lon="149.1647656">
  <ele>619.15</ele>
  <time>2026-09-01T19:52:55Z</time>
  <course>86.42</course>
  <speed>6.65</speed>
  <fix>3d</fix>
</trkpt>
<trkpt lat="-35.3629512" lon="149.1647907">
  <ele>618.06</ele>
  <time>2026-09-01T19:52:55Z</time>
  <course>88.38</course>
  <speed>5.299669801034778</speed>
  <fix>3d</fix>
</trkpt>
<trkpt lat="-35.3629515" lon="149.1647797">
  <ele>618.72</ele>
  <time>2026-09-01T19:52:55Z</time>
  <course>86.4</course>
  <speed>6.07</speed>
  <fix>3d</fix>
</trkpt>
<trkpt lat="-35.3629509" lon="149.1647963">
  <ele>617.76</ele>
  <time>2026-09-01T19:52:55Z</time>
  <course>88.76</course>
  <speed>4.919156431747216</speed>
  <fix>3d</fix>
</trkpt>
<trkpt lat="-35.3629515" lon="149.1647797">
  <ele>618.72</ele>
  <time>2026-09-01T19:52:55Z</time>
  <course>86.4</course>
  <speed>6.07</speed>
  <fix>3d</fix>
</trkpt>
<trkpt lat="-35.3629506" lon="149.1648016">
  <ele>617.47</ele>
  <time>2026-09-01T19:52:55Z</time>
  <course>89.13</course>
  <speed>4.578569645642622</speed>
  <fix>3d</fix>
</trkpt>
<trkpt lat="-35.3629509" lon="149.1647922">
  <ele>618.16</ele>
  <time>2026-09-01T19:52:55Z</time>
  <course>86.38</course>
  <speed>5.32</speed>
  <fix>3d</fix>
</trkpt>
<trkpt lat="-35.3629503" lon="149.1648065">
  <ele>617.18</ele>
  <time>2026-09-01T19:52:55Z</time>
  <course>89.47</course>
  <speed>4.2579455139773685</speed>
  <fix>3d</fix>
</trkpt>
<trkpt lat="-35.3629509" lon="149.1647922">
  <ele>618.16</ele>
  <time>2026-09-01T19:52:55Z</time>
  <course>86.38</course>
  <speed>5.32</speed>
  <fix>3d</fix>
</trkpt>
<trkpt lat="-35.3629501" lon="149.1648111">
  <ele>616.91</ele>
  <time>2026-09-01T19:52:55Z</time>
  <course>89.77</course>
  <speed>3.9672660611559696</speed>
  <fix>3d</fix>
</trkpt>
<trkpt lat="-35.3629503" lon="149.1648031">
  <ele>617.57</ele>
  <time>2026-09-01T19:52:55Z</time>
  <course>86.39</course>
  <speed>4.6</speed>
  <fix>3d</fix>
</trkpt>
<trkpt lat="-35.3629499" lon="149.1648154">
  <ele>616.65</ele>
  <time>2026-09-01T19:52:55Z</time>
  <course>90.0</course>
  <speed>3.706534769835567</speed>
  <fix>3d</fix>
</trkpt>
<trkpt lat="-35.3629503" lon="149.1648031">
  <ele>617.57</ele>
  <time>2026-09-01T19:52:55Z</time>
  <course>86.39</course>
  <speed>4.6</speed>
  <fix>3d</fix>
</trkpt>
<trkpt lat="-35.3629496" lon="149.1648194">
  <ele>616.42</ele>
  <time>2026-09-01T19:52:55Z</time>
  <course>90.19</course>
  <speed>3.485742388645495</speed>
  <fix>3d</fix>
</trkpt>
<trkpt lat="-35.3629499" lon="149.1648126">
  <ele>617.01</ele>
  <time>2026-09-01T19:52:55Z</time>
  <course>86.47</course>
  <speed>3.99</speed>
  <fix>3d</fix>
</trkpt>
<trkpt lat="-35.3629495" lon="149.1648232">
  <ele>616.2</ele>
  <time>2026-09-01T19:52:55Z</time>
  <course>90.33</course>
  <speed>3.2949203328760466</speed>
  <fix>3d</fix>
</trkpt>
<trkpt lat="-35.3629499" lon="149.1648126">
  <ele>617.01</ele>
  <time>2026-09-01T19:52:55Z</time>
  <course>86.47</course>
  <speed>3.99</speed>
  <fix>3d</fix>
</trkpt>
<trkpt lat="-35.3629493" lon="149.1648268">
  <ele>615.99</ele>
  <time>2026-09-01T19:52:55Z</time>
  <course>90.43</course>
  <speed>3.1445985435346113</speed>
  <fix>3d</fix>
</trkpt>
<trkpt lat="-35.3629495" lon="149.1648208">
  <ele>616.52</ele>
  <time>2026-09-01T19:52:55Z</time>
  <course>86.62</course>
  <speed>3.5</speed>
  <fix>3d</fix>
</trkpt>
<trkpt lat="-35.3629491" lon="149.1648303">
  <ele>615.81</ele>
  <time>2026-09-01T19:52:55Z</time>
  <course>90.51</course>
  <speed>3.034221481698394</speed>
  <fix>3d</fix>
</trkpt>
<trkpt lat="-35.3629495" lon="149.1648208">
  <ele>616.52</ele>
  <time>2026-09-01T19:52:55Z</time>
  <course>86.62</course>
  <speed>3.5</speed>
  <fix>3d</fix>
</trkpt>
<trkpt lat="-35.362949" lon="149.1648337">
  <ele>615.63</ele>
  <time>2026-09-01T19:52:55Z</time>
  <course>90.57</course>
  <speed>2.9538110975483858</speed>
  <fix>3d</fix>
</trkpt>
<trkpt lat="-35.3629491" lon="149.1648281">
  <ele>616.09</ele>
  <time>2026-09-01T19:52:55Z</time>
  <course>86.8</course>
  <speed>3.16</speed>
  <fix>3d</fix>
</trkpt>
<trkpt lat="-35.3629488" lon="149.164837">
  <ele>615.47</ele>
  <time>2026-09-01T19:52:55Z</time>
  <course>90.61</course>
  <speed>2.8933890163612634</speed>
  <fix>3d</fix>
</trkpt>
<trkpt lat="-35.3629491" lon="149.1648281">
  <ele>616.09</ele>
  <time>2026-09-01T19:52:55Z</time>
  <course>86.8</course>
  <speed>3.16</speed>
  <fix>3d</fix>
</trkpt>
<trkpt lat="-35.3629487" lon="149.1648402">
  <ele>615.32</ele>
  <time>2026-09-01T19:52:55Z</time>
  <course>90.63</course>
  <speed>2.8829325347638646</speed>
  <fix>3d</fix>
</trkpt>
<trkpt lat="-35.3629488" lon="149.1648348">
  <ele>615.73</ele>
  <time>2026-09-01T19:52:55Z</time>
  <course>86.97</course>
  <speed>2.95</speed>
  <fix>3d</fix>
</trkpt>
<trkpt lat="-35.3629486" lon="149.1648434">
  <ele>615.18</ele>
  <time>2026-09-01T19:52:55Z</time>
  <course>90.64</course>
  <speed>2.902912330746487</speed>
  <fix>3d</fix>
</trkpt>
<trkpt lat="-35.3629488" lon="149.1648348">
  <ele>615.73</ele>
  <time>2026-09-01T19:52:55Z</time>
  <course>86.97</course>
  <speed>2.95</speed>
  <fix>3d</fix>
</trkpt>
<trkpt lat="-35.3629484" lon="149.1648467">
  <ele>615.05</ele>
  <time>2026-09-01T19:52:55Z</time>
  <course>90.64</course>
  <speed>2.9524396691549857</speed>
  <fix>3d</fix>
</trkpt>
<trkpt lat="-35.3629485" lon="149.1648412">
  <ele>615.42</ele>
  <time>2026-09-01T19:52:55Z</time>
  <course>87.14</course>
  <speed>2.88</speed>
  <fix>3d</fix>
</trkpt>
<trkpt lat="-35.3629483" lon="149.16485">
  <ele>614.93</ele>
  <time>2026-09-01T19:52:55Z</time>
  <course>90.63</course>
  <speed>2.9824151287169935</speed>
  <fix>3d</fix>
</trkpt>
<trkpt lat="-35.3629485" lon="149.1648412">
  <ele>615.42</ele>
  <time>2026-09-01T19:52:55Z</time>
  <course>87.14</course>
  <speed>2.88</speed>
  <fix>3d</fix>
</trkpt>
<trkpt lat="-35.3629482" lon="149.1648534">
  <ele>614.81</ele>
  <time>2026-09-01T19:52:55Z</time>
  <course>90.62</course>
  <speed>3.022002647252315</speed>
  <fix>3d</fix>
</trkpt>
<trkpt lat="-35.3629483" lon="149.1648475">
  <ele>615.16</ele>
  <time>2026-09-01T19:52:55Z</time>
  <course>87.31</course>
  <speed>2.92</speed>
  <fix>3d</fix>
</trkpt>
<trkpt lat="-35.3629481" lon="149.1648568">
  <ele>614.69</ele>
  <time>2026-09-01T19:52:55Z</time>
  <course>90.6</course>
  <speed>3.0619764858666043</speed>
  <fix>3d</fix>
</trkpt>
<trkpt lat="-35.3629483" lon="149.1648475">
  <ele>615.16</ele>
  <time>2026-09-01T19:52:55Z</time>
  <course>87.31</course>
  <speed>2.92</speed>
  <fix>3d</fix>
</trkpt>
<trkpt lat="-35.362948" lon="149.1648602">
  <ele>614.56</ele>
  <time>2026-09-01T19:52:55Z</time>
  <course>90.58</course>
  <speed>3.1019509989682303</speed>
  <fix>3d</fix>
</trkpt>
<trkpt lat="-35.362948" lon="149.164854">
  <ele>614.93</ele>
  <time>2026-09-01T19:52:55Z</time>
  <course>87.44</course>
  <speed>3.0</speed>
  <fix>3d</fix>
</trkpt>
<trkpt lat="-35.3629479" lon="149.1648636">
  <ele>614.43</ele>
  <time>2026-09-01T19:52:55Z</time>
  <course>90.55</course>
  <speed>3.141926160812822</speed>
  <fix>3d</fix>
</trkpt>
<trkpt lat="-35.362948" lon="149.164854">
  <ele>614.93</ele>
  <time>2026-09-01T19:52:55Z</time>
  <course>87.44</course>
  <speed>3.0</speed>
  <fix>3d</fix>
</trkpt>
<trkpt lat="-35.3629477" lon="149.1648671">
  <ele>614.28</ele>
  <time>2026-09-01T19:52:55Z</time>
  <course>90.52</course>
  <speed>3.19189598828032</speed>
  <fix>3d</fix>
</trkpt>
<trkpt lat="-35.3629478" lon="149.1648607">
  <ele>614.68</ele>
  <time>2026-09-01T19:52:55Z</time>
  <course>87.54</course>
  <speed>3.08</speed>
  <fix>3d</fix>
</trkpt>
<trkpt lat="-35.3629476" lon="149.1648706">
  <ele>614.12</ele>
  <time>2026-09-01T19:52:55Z</time>
  <course>90.49</course>
  <speed>3.21155725466634</speed>
  <fix>3d</fix>
</trkpt>
<trkpt lat="-35.3629478" lon="149.1648607">
  <ele>614.68</ele>
  <time>2026-09-01T19:52:55Z</time>
  <course>87.54</course>
  <speed>3.08</speed>
  <fix>3d</fix>
</trkpt>
<trkpt lat="-35.3629475" lon="149.1648741">
  <ele>613.95</ele>
  <time>2026-09-01T19:52:55Z</time>
  <course>90.46</course>
  <speed>3.1815719385234713</speed>
  <fix>3d</fix>
</trkpt>
<trkpt lat="-35.3629476" lon="149.1648677">
  <ele>614.4</ele>
  <time>2026-09-01T19:52:55Z</time>
  <course>87.61</course>
  <speed>3.15</speed>
  <fix>3d</fix>
</trkpt>
<trkpt lat="-35.3629474" lon="149.1648776">
  <ele>613.75</ele>
  <time>2026-09-01T19:52:55Z</time>
  <course>90.43</course>
  <speed>3.1315970366571753</speed>
  <fix>3d</fix>
</trkpt>
<trkpt lat="-35.3629476" lon="149.1648677">
  <ele>614.4</ele>
  <time>2026-09-01T19:52:55Z</time>
  <course>87.61</course>
  <speed>3.15</speed>
  <fix>3d</fix>
</trkpt>
<trkpt lat="-35.3629473" lon="149.164881">
  <ele>613.54</ele>
  <time>2026-09-01T19:52:55Z</time>
  <course>90.39</course>
  <speed>3.08162294903189</speed>
  <fix>3d</fix>
</trkpt>
<trkpt lat="-35.3629473" lon="149.1648746">
  <ele>614.06</ele>
  <time>2026-09-01T19:52:55Z</time>
  <course>87.6</course>
  <speed>3.15</speed>
  <fix>3d</fix>
</trkpt>
<trkpt lat="-35.3629472" lon="149.1648843">
  <ele>613.31</ele>
  <time>2026-09-01T19:52:55Z</time>
  <course>90.36</course>
  <speed>3.0316497159137628</speed>
  <fix>3d</fix>
</trkpt>
<trkpt lat="-35.3629473" lon="149.1648746">
  <ele>614.06</ele>
  <time>2026-09-01T19:52:55Z</time>
  <course>87.6</course>
  <speed>3.15</speed>
  <fix>3d</fix>
</trkpt>
<trkpt lat="-35.3629471" lon="149.1648877">
  <ele>613.07</ele>
  <time>2026-09-01T19:52:55Z</time>
  <course>90.33</course>
  <speed>2.9920227271864097</speed>
  <fix>3d</fix>
</trkpt>
<trkpt lat="-35.3629471" lon="149.1648814">
  <ele>613.65</ele>
  <time>2026-09-01T19:52:55Z</time>
  <course>87.51</course>
  <speed>3.07</speed>
  <fix>3d</fix>
</trkpt>
<trkpt lat="-35.362947" lon="149.1648909">
  <ele>612.83</ele>
  <time>2026-09-01T19:52:55Z</time>
  <course>90.29</course>
  <speed>2.952050135075622</speed>
  <fix>3d</fix>
</trkpt>
<trkpt lat="-35.3629471" lon="149.1648814">
  <ele>613.65</ele>
  <time>2026-09-01T19:52:55Z</time>
  <course>87.51</course>
  <speed>3.07</speed>
  <fix>3d</fix>
</trkpt>
<trkpt lat="-35.3629468" lon="149.1648941">
  <ele>612.6</ele>
  <time>2026-09-01T19:52:55Z</time>
  <course>90.26</course>
  <speed>2.922071183253413</speed>
  <fix>3d</fix>
</trkpt>
<trkpt lat="-35.3629469" lon="149.1648882">
  <ele>613.19</ele>
  <time>2026-09-01T19:52:55Z</time>
  <course>87.37</course>
  <speed>2.98</speed>
  <fix>3d</fix>
</trkpt>
<trkpt lat="-35.3629467" lon="149.1648974">
  <ele>612.37</ele>
  <time>2026-09-01T19:52:55Z</time>
  <course>90.23</course>
  <speed>2.902085457046363</speed>
  <fix>3d</fix>
</trkpt>
<trkpt lat="-35.3629469" lon="149.1648882">
  <ele>613.19</ele>
  <time>2026-09-01T19:52:55Z</time>
  <course>87.37</course>
  <speed>2.98</speed>
  <fix>3d</fix>
</trkpt>
<trkpt lat="-35.3629466" lon="149.1649006">
  <ele>612.14</ele>
  <time>2026-09-01T19:52:55Z</time>
  <course>90.2</course>
  <speed>2.892490276561012</speed>
  <fix>3d</fix>
</trkpt>
<trkpt lat="-35.3629466" lon="149.1648947">
  <ele>612.73</ele>
  <time>2026-09-01T19:52:55Z</time>
  <course>87.2</course>
  <speed>2.92</speed>
  <fix>3d</fix>
</trkpt>
<trkpt lat="-35.3629465" lon="149.1649037">
  <ele>611.91</ele>
  <time>2026-09-01T19:52:55Z</time>
  <course>90.18</course>
  <speed>2.882498915871435</speed>
  <fix>3d</fix>
</trkpt>
<trkpt lat="-35.3629466" lon="149.1648947">
  <ele>612.73</ele>
  <time>2026-09-01T19:52:55Z</time>
  <course>87.2</course>
  <speed>2.92</speed>
  <fix>3d</fix>
</trkpt>
<trkpt lat="-35.3629463" lon="149.1649069">
  <ele>611.7</ele>
  <time>2026-09-01T19:52:55Z</time>
  <course>90.15</course>
  <speed>2.872507615307573</speed>
  <fix>3d</fix>
</trkpt>
<trkpt lat="-35.3629463" lon="149.1649011">
  <ele>612.27</ele>
  <time>2026-09-01T19:52:55Z</time>
  <course>87.02</course>
  <speed>2.89</speed>
  <fix>3d</fix>
</trkpt>
<trkpt lat="-35.3629462" lon="149.16491">
  <ele>611.49</ele>
  <time>2026-09-01T19:52:55Z</time>
  <course>90.13</course>
  <speed>2.8729427422070217</speed>
  <fix>3d</fix>
</trkpt>
<trkpt lat="-35.3629463" lon="149.1649011">
  <ele>612.27</ele>
  <time>2026-09-01T19:52:55Z</time>
  <course>87.02</course>
  <speed>2.89</speed>
  <fix>3d</fix>
</trkpt>
<trkpt lat="-35.362946" lon="149.1649132">
  <ele>611.28</ele>
  <time>2026-09-01T19:52:55Z</time>
  <course>90.1</course>
  <speed>2.8729427422070217</speed>
  <fix>3d</fix>
</trkpt>
<trkpt lat="-35.3629461" lon="149.1649074">
  <ele>611.83</ele>
  <time>2026-09-01T19:52:55Z</time>
  <course>86.83</course>
  <speed>2.87</speed>
  <fix>3d</fix>
</trkpt>
<trkpt lat="-35.3629459" lon="149.1649164">
  <ele>611.09</ele>
  <time>2026-09-01T19:52:55Z</time>
  <course>90.08</course>
  <speed>2.8829325347638646</speed>
  <fix>3d</fix>
</trkpt>
<trkpt lat="-35.3629461" lon="149.1649074">
  <ele>611.83</ele>
  <time>2026-09-01T19:52:55Z</time>
  <course>86.83</course>
  <speed>2.87</speed>
  <fix>3d</fix>
</trkpt>
<trkpt lat="-35.3629458" lon="149.1649196">
  <ele>610.9</ele>
  <time>2026-09-01T19:52:55Z</time>
  <course>90.06</course>
  <speed>2.8933890163612634</speed>
  <fix>3d</fix>
</trkpt>
<trkpt lat="-35.3629458" lon="149.1649137">
  <ele>611.42</ele>
  <time>2026-09-01T19:52:55Z</time>
  <course>86.66</course>
  <speed>2.88</speed>
  <fix>3d</fix>
</trkpt>
<trkpt lat="-35.3629456" lon="149.1649227">
  <ele>610.71</ele>
  <time>2026-09-01T19:52:55Z</time>
  <course>90.03</course>
  <speed>2.9033773437154182</speed>
  <fix>3d</fix>
</trkpt>
<trkpt lat="-35.3629458" lon="149.1649137">
  <ele>611.42</ele>
  <time>2026-09-01T19:52:55Z</time>
  <course>86.66</course>
  <speed>2.88</speed>
  <fix>3d</fix>
</trkpt>
<trkpt lat="-35.3629455" lon="149.1649259">
  <ele>610.52</ele>
  <time>2026-09-01T19:52:55Z</time>
  <course>90.01</course>
  <speed>2.9233542378576014</speed>
  <fix>3d</fix>
</trkpt>
<trkpt lat="-35.3629454" lon="149.1649201">
  <ele>611.02</ele>
  <time>2026-09-01T19:52:55Z</time>
  <course>86.52</course>
  <speed>2.9</speed>
  <fix>3d</fix>
</trkpt>
<trkpt lat="-35.3629453" lon="149.1649292">
  <ele>610.34</ele>
  <time>2026-09-01T19:52:55Z</time>
  <course>89.99</course>
  <speed>2.9438240436547836</speed>
  <fix>3d</fix>
</trkpt>
<trkpt lat="-35.3629454" lon="149.1649201">
  <ele>611.02</ele>
  <time>2026-09-01T19:52:55Z</time>
  <course>86.52</course>
  <speed>2.9</speed>
  <fix>3d</fix>
</trkpt>
<trkpt lat="-35.3629451" lon="149.1649324">
  <ele>610.16</ele>
  <time>2026-09-01T19:52:55Z</time>
  <course>89.96</course>
  <speed>2.9637982387470303</speed>
  <fix>3d</fix>
</trkpt>
<trkpt lat="-35.3629451" lon="149.1649264">
  <ele>610.65</ele>
  <time>2026-09-01T19:52:55Z</time>
  <course>86.4</course>
  <speed>2.93</speed>
  <fix>3d</fix>
</trkpt>
<trkpt lat="-35.362945" lon="149.1649356">
  <ele>609.99</ele>
  <time>2026-09-01T19:52:55Z</time>
  <course>89.94</course>
  <speed>2.993760177435728</speed>
  <fix>3d</fix>
</trkpt>
<trkpt lat="-35.3629451" lon="149.1649264">
  <ele>610.65</ele>
  <time>2026-09-01T19:52:55Z</time>
  <course>86.4</course>
  <speed>2.93</speed>
  <fix>3d</fix>
</trkpt>
<trkpt lat="-35.3629448" lon="149.1649389">
  <ele>609.81</ele>
  <time>2026-09-01T19:52:55Z</time>
  <course>89.92</course>
  <speed>3.033710599249704</speed>
  <fix>3d</fix>
</trkpt>
<trkpt lat="-35.3629448" lon="149.164933">
  <ele>610.29</ele>
  <time>2026-09-01T19:52:55Z</time>
  <course>86.33</course>
  <speed>2.98</speed>
  <fix>3d</fix>
</trkpt>
<trkpt lat="-35.3629446" lon="149.1649422">
  <ele>609.64</ele>
  <time>2026-09-01T19:52:55Z</time>
  <course>89.89</course>
  <speed>3.0636742646697934</speed>
  <fix>3d</fix>
</trkpt>
<trkpt lat="-35.3629448" lon="149.164933">
  <ele>610.29</ele>
  <time>2026-09-01T19:52:55Z</time>
  <course>86.33</course>
  <speed>2.98</speed>
  <fix>3d</fix>
</trkpt>
<trkpt lat="-35.3629445" lon="149.1649456">
  <ele>609.46</ele>
  <time>2026-09-01T19:52:55Z</time>
  <course>89.87</course>
  <speed>3.0941396219304647</speed>
  <fix>3d</fix>
</trkpt>
<trkpt lat="-35.3629445" lon="149.1649396">
  <ele>609.93</ele>
  <time>2026-09-01T19:52:55Z</time>
  <course>86.3</course>
  <speed>3.05</speed>
  <fix>3d</fix>
</trkpt>
<trkpt lat="-35.3629443" lon="149.164949">
  <ele>609.28</ele>
  <time>2026-09-01T19:52:55Z</time>
  <course>89.85</course>
  <speed>3.0941396219304647</speed>
  <fix>3d</fix>
</trkpt>
<trkpt lat="-35.3629445" lon="149.1649396">
  <ele>609.93</ele>
  <time>2026-09-01T19:52:55Z</time>
  <course>86.3</course>
  <speed>3.05</speed>
  <fix>3d</fix>
</trkpt>
<trkpt lat="-35.3629441" lon="149.1649524">
  <ele>609.09</ele>
  <time>2026-09-01T19:52:55Z</time>
  <course>89.82</course>
  <speed>3.0841530441921976</speed>
  <fix>3d</fix>
</trkpt>
<trkpt lat="-35.362944" lon="149.1649464">
  <ele>609.58</ele>
  <time>2026-09-01T19:52:55Z</time>
  <course>86.3</course>
  <speed>3.11</speed>
  <fix>3d</fix>
</trkpt>
<trkpt lat="-35.3629439" lon="149.1649558">
  <ele>608.89</ele>
  <time>2026-09-01T19:52:55Z</time>
  <course>89.8</course>
  <speed>3.0641801513618616</speed>
  <fix>3d</fix>
</trkpt>
<trkpt lat="-35.362944" lon="149.1649464">
  <ele>609.58</ele>
  <time>2026-09-01T19:52:55Z</time>
  <course>86.3</course>
  <speed>3.11</speed>
  <fix>3d</fix>
</trkpt>
<trkpt lat="-35.3629437" lon="149.1649591">
  <ele>608.7</ele>
  <time>2026-09-01T19:52:55Z</time>
  <course>89.78</course>
  <speed>3.034221481698394</speed>
  <fix>3d</fix>
</trkpt>
<trkpt lat="-35.3629437" lon="149.1649532">
  <ele>609.22</ele>
  <time>2026-09-01T19:52:55Z</time>
  <course>86.28</course>
  <speed>3.11</speed>
  <fix>3d</fix>
</trkpt>
<trkpt lat="-35.3629436" lon="149.1649624">
  <ele>608.49</ele>
  <time>2026-09-01T19:52:55Z</time>
  <course>89.77</course>
  <speed>3.0042636369000637</speed>
  <fix>3d</fix>
</trkpt>
<trkpt lat="-35.3629437" lon="149.1649532">
  <ele>609.22</ele>
  <time>2026-09-01T19:52:55Z</time>
  <course>86.28</course>
  <speed>3.11</speed>
  <fix>3d</fix>
</trkpt>
<trkpt lat="-35.3629434" lon="149.1649657">
  <ele>608.28</ele>
  <time>2026-09-01T19:52:55Z</time>
  <course>89.75</course>
  <speed>2.964321170183825</speed>
  <fix>3d</fix>
</trkpt>
<trkpt lat="-35.3629434" lon="149.1649601">
  <ele>608.83</ele>
  <time>2026-09-01T19:52:55Z</time>
  <course>86.24</course>
  <speed>3.07</speed>
  <fix>3d</fix>
</trkpt>
<trkpt lat="-35.3629432" lon="149.164969">
  <ele>608.07</ele>
  <time>2026-09-01T19:52:55Z</time>
  <course>89.74</course>
  <speed>2.9343653487594215</speed>
  <fix>3d</fix>
</trkpt>
<trkpt lat="-35.3629434" lon="149.1649601">
  <ele>608.83</ele>
  <time>2026-09-01T19:52:55Z</time>
  <course>86.24</course>
  <speed>3.07</speed>
  <fix>3d</fix>
</trkpt>
<trkpt lat="-35.362943" lon="149.1649723">
  <ele>607.86</ele>
  <time>2026-09-01T19:52:55Z</time>
  <course>89.74</course>
  <speed>2.904410439314664</speed>
  <fix>3d</fix>
</trkpt>
<trkpt lat="-35.362943" lon="149.1649668">
  <ele>608.42</ele>
  <time>2026-09-01T19:52:55Z</time>
  <course>86.19</course>
  <speed>3.01</speed>
  <fix>3d</fix>
</trkpt>
<trkpt lat="-35.3629429" lon="149.1649755">
  <ele>607.65</ele>
  <time>2026-09-01T19:52:55Z</time>
  <course>89.73</course>
  <speed>2.8739171873942366</speed>
  <fix>3d</fix>
</trkpt>
<trkpt lat="-35.362943" lon="149.1649668">
  <ele>608.42</ele>
  <time>2026-09-01T19:52:55Z</time>
  <course>86.19</course>
  <speed>3.01</speed>
  <fix>3d</fix>
</trkpt>
<trkpt lat="-35.3629427" lon="149.1649787">
  <ele>607.44</ele>
  <time>2026-09-01T19:52:55Z</time>
  <course>89.73</course>
  <speed>2.8339724769305716</speed>
  <fix>3d</fix>
</trkpt>
<trkpt lat="-35.3629427" lon="149.1649733">
  <ele>607.99</ele>
  <time>2026-09-01T19:52:55Z</time>
  <course>86.16</course>
  <speed>2.95</speed>
  <fix>3d</fix>
</trkpt>
<trkpt lat="-35.3629425" lon="149.1649818">
  <ele>607.22</ele>
  <time>2026-09-01T19:52:55Z</time>
  <course>89.74</course>
  <speed>2.8040149785619906</speed>
  <fix>3d</fix>
</trkpt>
<trkpt lat="-35.3629427" lon="149.1649733">
  <ele>607.99</ele>
  <time>2026-09-01T19:52:55Z</time>
  <course>86.16</course>
  <speed>2.95</speed>
  <fix>3d</fix>
</trkpt>
<trkpt lat="-35.3629423" lon="149.1649849">
  <ele>607.01</ele>
  <time>2026-09-01T19:52:55Z</time>
  <course>89.74</course>
  <speed>2.7840438214941945</speed>
  <fix>3d</fix>
</trkpt>
<trkpt lat="-35.3629423" lon="149.1649798">
  <ele>607.57</ele>
  <time>2026-09-01T19:52:55Z</time>
  <course>86.14</course>
  <speed>2.88</speed>
  <fix>3d</fix>
</trkpt>
<trkpt lat="-35.3629422" lon="149.164988">
  <ele>606.81</ele>
  <time>2026-09-01T19:52:55Z</time>
  <course>89.75</course>
  <speed>2.774058398808504</speed>
  <fix>3d</fix>
</trkpt>
<trkpt lat="-35.3629423" lon="149.1649798">
  <ele>607.57</ele>
  <time>2026-09-01T19:52:56Z</time>
  <course>86.14</course>
  <speed>2.88</speed>
  <fix>3d</fix>
</trkpt>
<trkpt lat="-35.362942" lon="149.1649912">
  <ele>606.6</ele>
  <time>2026-09-01T19:52:56Z</time>
  <course>89.75</course>
  <speed>2.774058398808504</speed>
  <fix>3d</fix>
</trkpt>
<trkpt lat="-35.362942" lon="149.1649861">
  <ele>607.15</ele>
  <time>2026-09-01T19:52:56Z</time>
  <course>86.13</course>
  <speed>2.83</speed>
  <fix>3d</fix>
</trkpt>
<trkpt lat="-35.3629418" lon="149.1649943">
  <ele>606.4</ele>
  <time>2026-09-01T19:52:56Z</time>
  <course>89.76</course>
  <speed>2.8040149785619906</speed>
  <fix>3d</fix>
</trkpt>
<trkpt lat="-35.362942" lon="149.1649861">
  <ele>607.15</ele>
  <time>2026-09-01T19:52:56Z</time>
  <course>86.13</course>
  <speed>2.83</speed>
  <fix>3d</fix>
</trkpt>
<trkpt lat="-35.3629417" lon="149.1649974">
  <ele>606.2</ele>
  <time>2026-09-01T19:52:56Z</time>
  <course>89.77</course>
  <speed>2.8739171873942366</speed>
  <fix>3d</fix>
</trkpt>
<trkpt lat="-35.3629416" lon="149.1649923">
  <ele>606.74</ele>
  <time>2026-09-01T19:52:56Z</time>
  <course>86.13</course>
  <speed>2.83</speed>
  <fix>3d</fix>
</trkpt>
<trkpt lat="-35.3629415" lon="149.1650007">
  <ele>606.02</ele>
  <time>2026-09-01T19:52:56Z</time>
  <course>89.77</course>
  <speed>3.034221481698394</speed>
  <fix>3d</fix>
</trkpt>
<trkpt lat="-35.3629416" lon="149.1649923">
  <ele>606.74</ele>
  <time>2026-09-01T19:52:56Z</time>
  <course>86.13</course>
  <speed>2.83</speed>
  <fix>3d</fix>
</trkpt>
<trkpt lat="-35.3629413" lon="149.1650042">
  <ele>605.86</ele>
  <time>2026-09-01T19:52:56Z</time>
  <course>89.77</course>
  <speed>3.2244844549167855</speed>
  <fix>3d</fix>
</trkpt>
<trkpt lat="-35.3629413" lon="149.1649986">
  <ele>606.35</ele>
  <time>2026-09-01T19:52:56Z</time>
  <course>86.2</course>
  <speed>2.96</speed>
  <fix>3d</fix>
</trkpt>
<trkpt lat="-35.3629411" lon="149.1650079">
  <ele>605.71</ele>
  <time>2026-09-01T19:52:56Z</time>
  <course>89.77</course>
  <speed>3.3942598604113976</speed>
  <fix>3d</fix>
</trkpt>
<trkpt lat="-35.3629413" lon="149.1649986">
  <ele>606.35</ele>
  <time>2026-09-01T19:52:56Z</time>
  <course>86.2</course>
  <speed>2.96</speed>
  <fix>3d</fix>
</trkpt>
<trkpt lat="-35.3629409" lon="149.1650117">
  <ele>605.57</ele>
  <time>2026-09-01T19:52:56Z</time>
  <course>89.76</course>
  <speed>3.544573317058063</speed>
  <fix>3d</fix>
</trkpt>
<trkpt lat="-35.3629409" lon="149.1650053">
  <ele>606.0</ele>
  <time>2026-09-01T19:52:56Z</time>
  <course>86.33</course>
  <speed>3.25</speed>
  <fix>3d</fix>
</trkpt>
<trkpt lat="-35.3629407" lon="149.1650158">
  <ele>605.46</ele>
  <time>2026-09-01T19:52:56Z</time>
  <course>89.74</course>
  <speed>3.6544356609468447</speed>
  <fix>3d</fix>
</trkpt>
<trkpt lat="-35.3629409" lon="149.1650053">
  <ele>606.0</ele>
  <time>2026-09-01T19:52:56Z</time>
  <course>86.33</course>
  <speed>3.25</speed>
  <fix>3d</fix>
</trkpt>
<trkpt lat="-35.3629405" lon="149.1650199">
  <ele>605.36</ele>
  <time>2026-09-01T19:52:56Z</time>
  <course>89.73</course>
  <speed>3.744329045369811</speed>
  <fix>3d</fix>
</trkpt>
<trkpt lat="-35.3629405" lon="149.1650129">
  <ele>605.73</ele>
  <time>2026-09-01T19:52:56Z</time>
  <course>86.43</course>
  <speed>3.56</speed>
  <fix>3d</fix>
</trkpt>
<trkpt lat="-35.3629403" lon="149.1650241">
  <ele>605.28</ele>
  <time>2026-09-01T19:52:56Z</time>
  <course>89.72</course>
  <speed>3.7847721199564974</speed>
  <fix>3d</fix>
</trkpt>
<trkpt lat="-35.3629405" lon="149.1650129">
  <ele>605.73</ele>
  <time>2026-09-01T19:52:56Z</time>
  <course>86.43</course>
  <speed>3.56</speed>
  <fix>3d</fix>
</trkpt>
<trkpt lat="-35.3629401" lon="149.1650284">
  <ele>605.21</ele>
  <time>2026-09-01T19:52:56Z</time>
  <course>89.71</course>
  <speed>3.804260769190251</speed>
  <fix>3d</fix>
</trkpt>
<trkpt lat="-35.3629401" lon="149.165021">
  <ele>605.52</ele>
  <time>2026-09-01T19:52:56Z</time>
  <course>86.5</course>
  <speed>3.76</speed>
  <fix>3d</fix>
</trkpt>
<trkpt lat="-35.3629399" lon="149.1650326">
  <ele>605.16</ele>
  <time>2026-09-01T19:52:56Z</time>
  <course>89.71</course>
  <speed>3.7742946360876495</speed>
  <fix>3d</fix>
</trkpt>
<trkpt lat="-35.3629401" lon="149.165021">
  <ele>605.52</ele>
  <time>2026-09-01T19:52:56Z</time>
  <course>86.5</course>
  <speed>3.76</speed>
  <fix>3d</fix>
</trkpt>
<trkpt lat="-35.3629397" lon="149.1650368">
  <ele>605.12</ele>
  <time>2026-09-01T19:52:56Z</time>
  <course>89.71</course>
  <speed>3.7243522926812385</speed>
  <fix>3d</fix>
</trkpt>
<trkpt lat="-35.3629397" lon="149.1650294">
  <ele>605.37</ele>
  <time>2026-09-01T19:52:56Z</time>
  <course>86.57</course>
  <speed>3.83</speed>
  <fix>3d</fix>
</trkpt>
<trkpt lat="-35.3629395" lon="149.1650408">
  <ele>605.1</ele>
  <time>2026-09-01T19:52:56Z</time>
  <course>89.71</course>
  <speed>3.6439676178583147</speed>
  <fix>3d</fix>
</trkpt>
<trkpt lat="-35.3629397" lon="149.1650294">
  <ele>605.37</ele>
  <time>2026-09-01T19:52:56Z</time>
  <course>86.57</course>
  <speed>3.83</speed>
  <fix>3d</fix>
</trkpt>
<trkpt lat="-35.3629393" lon="149.1650449">
  <ele>605.08</ele>
  <time>2026-09-01T19:52:56Z</time>
  <course>89.72</course>
  <speed>3.553603804590489</speed>
  <fix>3d</fix>
</trkpt>
<trkpt lat="-35.3629392" lon="149.1650378">
  <ele>605.28</ele>
  <time>2026-09-01T19:52:56Z</time>
  <course>86.65</course>
  <speed>3.76</speed>
  <fix>3d</fix>
</trkpt>
<trkpt lat="-35.3629391" lon="149.1650488">
  <ele>605.07</ele>
  <time>2026-09-01T19:52:56Z</time>
  <course>89.73</course>
  <speed>3.4437189200049416</speed>
  <fix>3d</fix>
</trkpt>
<trkpt lat="-35.3629392" lon="149.1650378">
  <ele>605.28</ele>
  <time>2026-09-01T19:52:56Z</time>
  <course>86.65</course>
  <speed>3.76</speed>
  <fix>3d</fix>
</trkpt>
<trkpt lat="-35.3629389" lon="149.1650526">
  <ele>605.06</ele>
  <time>2026-09-01T19:52:56Z</time>
  <course>89.74</course>
  <speed>3.3233868267175883</speed>
  <fix>3d</fix>
</trkpt>
<trkpt lat="-35.3629389" lon="149.1650459">
  <ele>605.23</ele>
  <time>2026-09-01T19:52:56Z</time>
  <course>86.74</course>
  <speed>3.6</speed>
  <fix>3d</fix>
</trkpt>
<trkpt lat="-35.3629388" lon="149.1650562">
  <ele>605.05</ele>
  <time>2026-09-01T19:52:56Z</time>
  <course>89.76</course>
  <speed>3.2030610359467087</speed>
  <fix>3d</fix>
</trkpt>
<trkpt lat="-35.3629389" lon="149.1650459">
  <ele>605.23</ele>
  <time>2026-09-01T19:52:56Z</time>
  <course>86.74</course>
  <speed>3.6</speed>
  <fix>3d</fix>
</trkpt>
<trkpt lat="-35.3629386" lon="149.1650597">
  <ele>605.05</ele>
  <time>2026-09-01T19:52:56Z</time>
  <course>89.78</course>
  <speed>3.0827422856930484</speed>
  <fix>3d</fix>
</trkpt>
<trkpt lat="-35.3629385" lon="149.1650536">
  <ele>605.21</ele>
  <time>2026-09-01T19:52:56Z</time>
  <course>86.84</course>
  <speed>3.38</speed>
  <fix>3d</fix>
</trkpt>
<trkpt lat="-35.3629384" lon="149.1650631">
  <ele>605.05</ele>
  <time>2026-09-01T19:52:56Z</time>
  <course>89.8</course>
  <speed>2.9528630174798156</speed>
  <fix>3d</fix>
</trkpt>
<trkpt lat="-35.3629385" lon="149.1650536">
  <ele>605.21</ele>
  <time>2026-09-01T19:52:56Z</time>
  <course>86.84</course>
  <speed>3.38</speed>
  <fix>3d</fix>
</trkpt>
<trkpt lat="-35.3629383" lon="149.1650663">
  <ele>605.04</ele>
  <time>2026-09-01T19:52:56Z</time>
  <course>89.82</course>
  <speed>2.812561110447202</speed>
  <fix>3d</fix>
</trkpt>
<trkpt lat="-35.3629382" lon="149.1650607">
  <ele>605.21</ele>
  <time>2026-09-01T19:52:56Z</time>
  <course>86.95</course>
  <speed>3.13</speed>
  <fix>3d</fix>
</trkpt>
<trkpt lat="-35.3629381" lon="149.1650694">
  <ele>605.04</ele>
  <time>2026-09-01T19:52:56Z</time>
  <course>89.84</course>
  <speed>2.6822565127146207</speed>
  <fix>3d</fix>
</trkpt>
<trkpt lat="-35.3629382" lon="149.1650607">
  <ele>605.21</ele>
  <time>2026-09-01T19:52:56Z</time>
  <course>86.95</course>
  <speed>3.13</speed>
  <fix>3d</fix>
</trkpt>
<trkpt lat="-35.362938" lon="149.1650724">
  <ele>605.03</ele>
  <time>2026-09-01T19:52:56Z</time>
  <course>89.86</course>
  <speed>2.551960031034969</speed>
  <fix>3d</fix>
</trkpt>
<trkpt lat="-35.362938" lon="149.1650674">
  <ele>605.2</ele>
  <time>2026-09-01T19:52:56Z</time>
  <course>87.07</course>
  <speed>2.87</speed>
  <fix>3d</fix>
</trkpt>
<trkpt lat="-35.3629379" lon="149.1650752">
  <ele>605.01</ele>
  <time>2026-09-01T19:52:56Z</time>
  <course>89.88</course>
  <speed>2.421672975444868</speed>
  <fix>3d</fix>
</trkpt>
<trkpt lat="-35.362938" lon="149.1650674">
  <ele>605.2</ele>
  <time>2026-09-01T19:52:56Z</time>
  <course>87.07</course>
  <speed>2.87</speed>
  <fix>3d</fix>
</trkpt>
<trkpt lat="-35.3629378" lon="149.1650778">
  <ele>604.98</ele>
  <time>2026-09-01T19:52:56Z</time>
  <course>89.89</course>
  <speed>2.3017601960239036</speed>
  <fix>3d</fix>
</trkpt>
<trkpt lat="-35.3629377" lon="149.1650734">
  <ele>605.18</ele>
  <time>2026-09-01T19:52:56Z</time>
  <course>87.21</course>
  <speed>2.61</speed>
  <fix>3d</fix>
</trkpt>
<trkpt lat="-35.3629377" lon="149.1650804">
  <ele>604.94</ele>
  <time>2026-09-01T19:52:56Z</time>
  <course>89.91</course>
  <speed>2.1914607000811124</speed>
  <fix>3d</fix>
</trkpt>
<trkpt lat="-35.3629377" lon="149.1650734">
  <ele>605.18</ele>
  <time>2026-09-01T19:52:56Z</time>
  <course>87.21</course>
  <speed>2.61</speed>
  <fix>3d</fix>
</trkpt>
<trkpt lat="-35.3629376" lon="149.1650828">
  <ele>604.88</ele>
  <time>2026-09-01T19:52:56Z</time>
  <course>89.92</course>
  <speed>2.081177551291576</speed>
  <fix>3d</fix>
</trkpt>
<trkpt lat="-35.3629375" lon="149.1650788">
  <ele>605.13</ele>
  <time>2026-09-01T19:52:56Z</time>
  <course>87.38</course>
  <speed>2.36</speed>
  <fix>3d</fix>
</trkpt>
<trkpt lat="-35.3629375" lon="149.1650851">
  <ele>604.8</ele>
  <time>2026-09-01T19:52:56Z</time>
  <course>89.92</course>
  <speed>1.9409276132818556</speed>
  <fix>3d</fix>
</trkpt>
<trkpt lat="-35.3629375" lon="149.1650788">
  <ele>605.13</ele>
  <time>2026-09-01T19:52:56Z</time>
  <course>87.38</course>
  <speed>2.36</speed>
  <fix>3d</fix>
</trkpt>
<trkpt lat="-35.3629374" lon="149.1650872">
  <ele>604.7</ele>
  <time>2026-09-01T19:52:56Z</time>
  <course>89.93</course>
  <speed>1.7910053042914194</speed>
  <fix>3d</fix>
</trkpt>
<trkpt lat="-35.3629373" lon="149.1650838">
  <ele>605.02</ele>
  <time>2026-09-01T19:52:56Z</time>
  <course>87.56</course>
  <speed>2.11</speed>
  <fix>3d</fix>
</trkpt>
<trkpt lat="-35.3629373" lon="149.1650892">
  <ele>604.57</ele>
  <time>2026-09-01T19:52:56Z</time>
  <course>89.93</course>
  <speed>1.6307666908543357</speed>
  <fix>3d</fix>
</trkpt>
<trkpt lat="-35.3629373" lon="149.1650838">
  <ele>605.02</ele>
  <time>2026-09-01T19:52:56Z</time>
  <course>87.56</course>
  <speed>2.11</speed>
  <fix>3d</fix>
</trkpt>
<trkpt lat="-35.3629373" lon="149.1650909">
  <ele>604.43</ele>
  <time>2026-09-01T19:52:56Z</time>
  <course>89.93</course>
  <speed>1.4705441169852742</speed>
  <fix>3d</fix>
</trkpt>
<trkpt lat="-35.3629372" lon="149.1650881">
  <ele>604.83</ele>
  <time>2026-09-01T19:52:56Z</time>
  <course>87.76</course>
  <speed>1.83</speed>
  <fix>3d</fix>
</trkpt>
<trkpt lat="-35.3629372" lon="149.1650926">
  <ele>604.28</ele>
  <time>2026-09-01T19:52:56Z</time>
  <course>89.94</course>
  <speed>1.290348790056394</speed>
  <fix>3d</fix>
</trkpt>
<trkpt lat="-35.3629372" lon="149.1650881">
  <ele>604.83</ele>
  <time>2026-09-01T19:52:56Z</time>
  <course>87.76</course>
  <speed>1.83</speed>
  <fix>3d</fix>
</trkpt>
<trkpt lat="-35.3629372" lon="149.1650939">
  <ele>604.12</ele>
  <time>2026-09-01T19:52:56Z</time>
  <course>89.94</course>
  <speed>1.110180165558726</speed>
  <fix>3d</fix>
</trkpt>
<trkpt lat="-35.362937" lon="149.1650918">
  <ele>604.57</ele>
  <time>2026-09-01T19:52:56Z</time>
  <course>88.02</course>
  <speed>1.5</speed>
  <fix>3d</fix>
</trkpt>
<trkpt lat="-35.3629371" lon="149.1650951">
  <ele>603.95</ele>
  <time>2026-09-01T19:52:56Z</time>
  <course>89.95</course>
  <speed>0.9300537618869137</speed>
  <fix>3d</fix>
</trkpt>
<trkpt lat="-35.362937" lon="149.1650918">
  <ele>604.57</ele>
  <time>2026-09-01T19:52:56Z</time>
  <course>88.02</course>
  <speed>1.5</speed>
  <fix>3d</fix>
</trkpt>
<trkpt lat="-35.3629371" lon="149.1650961">
  <ele>603.78</ele>
  <time>2026-09-01T19:52:56Z</time>
  <course>89.96</course>
  <speed>0.74</speed>
  <fix>3d</fix>
</trkpt>
<trkpt lat="-35.362937" lon="149.1650948">
  <ele>604.26</ele>
  <time>2026-09-01T19:52:56Z</time>
  <course>88.44</course>
  <speed>1.14</speed>
  <fix>3d</fix>
</trkpt>
<trkpt lat="-35.3629371" lon="149.1650969">
  <ele>603.61</ele>
  <time>2026-09-01T19:52:56Z</time>
  <course>89.98</course>
  <speed>0.57</speed>
  <fix>3d</fix>
</trkpt>
<trkpt lat="-35.362937" lon="149.1650948">
  <ele>604.26</ele>
  <time>2026-09-01T19:52:56Z</time>
  <course>88.44</course>
  <speed>1.14</speed>
  <fix>3d</fix>
</trkpt>
<trkpt lat="-35.3629371" lon="149.1650975">
  <ele>603.44</ele>
  <time>2026-09-01T19:52:56Z</time>
  <course>90.01</course>
  <speed>0.39</speed>
  <fix>3d</fix>
</trkpt>
<trkpt lat="-35.3629369" lon="149.1650969">
  <ele>603.93</ele>
  <time>2026-09-01T19:52:56Z</time>
  <course>89.22</course>
  <speed>0.78</speed>
  <fix>3d</fix>
</trkpt>
<trkpt lat="-35.3629371" lon="149.1650979">
  <ele>603.28</ele>
  <time>2026-09-01T19:52:56Z</time>
  <course>90.09</course>
  <speed>0.23</speed>
  <fix>3d</fix>
</trkpt>
<trkpt lat="-35.3629369" lon="149.1650969">
  <ele>603.93</ele>
  <time>2026-09-01T19:52:56Z</time>
  <course>89.22</course>
  <speed>0.78</speed>
  <fix>3d</fix>
</trkpt>
<trkpt lat="-35.3629371" lon="149.1650981">
  <ele>603.12</ele>
  <time>2026-09-01T19:52:56Z</time>
  <course>90.52</course>
  <speed>0.08062257748298549</speed>
  <fix>3d</fix>
</trkpt>
<trkpt lat="-35.3629369" lon="149.1650982">
  <ele>603.59</ele>
  <time>2026-09-01T19:52:56Z</time>
  <course>90.63</course>
  <speed>0.43</speed>
  <fix>3d</fix>
</trkpt>
<trkpt lat="-35.362937" lon="149.1650982">
  <ele>602.96</ele>
  <time>2026-09-01T19:52:56Z</time>
  <course>91.1</course>
  <speed>0.053851648071345036</speed>
  <fix>3d</fix>
</trkpt>
<trkpt lat="-35.3629369" lon="149.1650982">
  <ele>603.59</ele>
  <time>2026-09-01T19:52:56Z</time>
  <course>90.63</course>
  <speed>0.43</speed>
  <fix>3d</fix>
</trkpt>
<trkpt lat="-35.362937" lon="149.1650982">
  <ele>602.81</ele>
  <time>2026-09-01T19:52:56Z</time>
  <course>91.62</course>
  <speed>0.18110770276274835</speed>
  <fix>3d</fix>
</trkpt>
<trkpt lat="-35.3629369" lon="149.1650988">
  <ele>603.27</ele>
  <time>2026-09-01T19:52:56Z</time>
  <course>87.65</course>
  <speed>0.11</speed>
  <fix>3d</fix>
</trkpt>
<trkpt lat="-35.362937" lon="149.165098">
  <ele>602.66</ele>
  <time>2026-09-01T19:52:56Z</time>
  <course>92.03</course>
  <speed>0.2816025568065745</speed>
  <fix>3d</fix>
</trkpt>
<trkpt lat="-35.3629369" lon="149.1650988">
  <ele>603.27</ele>
  <time>2026-09-01T19:52:56Z</time>
  <course>87.65</course>
  <speed>0.11</speed>
  <fix>3d</fix>
</trkpt>
<trkpt lat="-35.3629369" lon="149.1650977">
  <ele>602.52</ele>
  <time>2026-09-01T19:52:56Z</time>
  <course>92.31</course>
  <speed>0.36124783736376886</speed>
  <fix>3d</fix>
</trkpt>
<trkpt lat="-35.3629369" lon="149.1650988">
  <ele>602.96</ele>
  <time>2026-09-01T19:52:56Z</time>
  <course>279.17</course>
  <speed>0.15</speed>
  <fix>3d</fix>
</trkpt>
<trkpt lat="-35.3629369" lon="149.1650973">
  <ele>602.38</ele>
  <time>2026-09-01T19:52:56Z</time>
  <course>92.45</course>
  <speed>0.4219004621945798</speed>
  <fix>3d</fix>
</trkpt>
<trkpt lat="-35.3629369" lon="149.1650988">
  <ele>602.96</ele>
  <time>2026-09-01T19:52:56Z</time>
  <course>279.17</course>
  <speed>0.15</speed>
  <fix>3d</fix>
</trkpt>
<trkpt lat="-35.3629369" lon="149.1650969">
  <ele>602.24</ele>
  <time>2026-09-01T19:52:56Z</time>
  <course>92.45</course>
  <speed>0.4709564735726646</speed>
  <fix>3d</fix>
</trkpt>
<trkpt lat="-35.3629369" lon="149.1650983">
  <ele>602.68</ele>
  <time>2026-09-01T19:52:56Z</time>
  <course>275.7</course>
  <speed>0.34</speed>
  <fix>3d</fix>
</trkpt>
<trkpt lat="-35.3629368" lon="149.1650964">
  <ele>602.1</ele>
  <time>2026-09-01T19:52:56Z</time>
  <course>92.32</course>
  <speed>0.5008991914547277</speed>
  <fix>3d</fix>
</trkpt>
<trkpt lat="-35.3629369" lon="149.1650983">
  <ele>602.68</ele>
  <time>2026-09-01T19:52:56Z</time>
  <course>275.7</course>
  <speed>0.34</speed>
  <fix>3d</fix>
</trkpt>
<trkpt lat="-35.3629368" lon="149.1650959">
  <ele>601.97</ele>
  <time>2026-09-01T19:52:56Z</time>
  <course>92.09</course>
  <speed>0.5208646657242167</speed>
  <fix>3d</fix>
</trkpt>
<trkpt lat="-35.3629368" lon="149.1650973">
  <ele>602.4</ele>
  <time>2026-09-01T19:52:56Z</time>
  <course>274.82</course>
  <speed>0.45</speed>
  <fix>3d</fix>
</trkpt>
<trkpt lat="-35.3629368" lon="149.1650954">
  <ele>601.83</ele>
  <time>2026-09-01T19:52:56Z</time>
  <course>91.78</course>
  <speed>0.5203844732503076</speed>
  <fix>3d</fix>
</trkpt>
<trkpt lat="-35.3629368" lon="149.1650973">
  <ele>602.4</ele>
  <time>2026-09-01T19:52:56Z</time>
  <course>274.82</course>
  <speed>0.45</speed>
  <fix>3d</fix>
</trkpt>
<trkpt lat="-35.3629367" lon="149.1650948">
  <ele>601.69</ele>
  <time>2026-09-01T19:52:56Z</time>
  <course>91.42</course>
  <speed>0.5303772242470448</speed>
  <fix>3d</fix>
</trkpt>
<trkpt lat="-35.3629367" lon="149.1650963">
  <ele>602.12</ele>
  <time>2026-09-01T19:52:56Z</time>
  <course>273.99</course>
  <speed>0.51</speed>
  <fix>3d</fix>
</trkpt>
<trkpt lat="-35.3629367" lon="149.1650943">
  <ele>601.55</ele>
  <time>2026-09-01T19:52:56Z</time>
  <course>91.06</course>
  <speed>0.5203844732503076</speed>
  <fix>3d</fix>
</trkpt>
<trkpt lat="-35.3629367" lon="149.1650963">
  <ele>602.12</ele>
  <time>2026-09-01T19:52:56Z</time>
  <course>273.99</course>
  <speed>0.51</speed>
  <fix>3d</fix>
</trkpt>
<trkpt lat="-35.3629367" lon="149.1650937">
  <ele>601.41</ele>
  <time>2026-09-01T19:52:56Z</time>
  <course>90.74</course>
  <speed>0.5200961449578337</speed>
  <fix>3d</fix>
</trkpt>
<trkpt lat="-35.3629367" lon="149.1650952">
  <ele>601.85</ele>
  <time>2026-09-01T19:52:56Z</time>
  <course>273.06</course>
  <speed>0.52</speed>
  <fix>3d</fix>
</trkpt>
<trkpt lat="-35.3629367" lon="149.1650932">
  <ele>601.27</ele>
  <time>2026-09-01T19:52:56Z</time>
  <course>90.49</course>
  <speed>0.51</speed>
  <fix>3d</fix>
</trkpt>
<trkpt lat="-35.3629367" lon="149.1650952">
  <ele>601.85</ele>
  <time>2026-09-01T19:52:56Z</time>
  <course>273.06</course>
  <speed>0.52</speed>
  <fix>3d</fix>
</trkpt>
<trkpt lat="-35.3629367" lon="149.1650927">
  <ele>601.12</ele>
  <time>2026-09-01T19:52:56Z</time>
  <course>90.33</course>
  <speed>0.49</speed>
  <fix>3d</fix>
</trkpt>
<trkpt lat="-35.3629366" lon="149.165094">
  <ele>601.57</ele>
  <time>2026-09-01T19:52:56Z</time>
  <course>272.23</course>
  <speed>0.52</speed>
  <fix>3d</fix>
</trkpt>
<trkpt lat="-35.3629367" lon="149.1650922">
  <ele>600.98</ele>
  <time>2026-09-01T19:52:56Z</time>
  <course>90.27</course>
  <speed>0.48</speed>
  <fix>3d</fix>
</trkpt>
<trkpt lat="-35.3629366" lon="149.165094">
  <ele>601.57</ele>
  <time>2026-09-01T19:52:56Z</time>
  <course>272.23</course>
  <speed>0.52</speed>
  <fix>3d</fix>
</trkpt>
<trkpt lat="-35.3629367" lon="149.1650917">
  <ele>600.83</ele>
  <time>2026-09-01T19:52:56Z</time>
  <course>90.3</course>
  <speed>0.46</speed>
  <fix>3d</fix>
</trkpt>
<trkpt lat="-35.3629366" lon="149.1650929">
  <ele>601.29</ele>
  <time>2026-09-01T19:52:56Z</time>
  <course>271.78</course>
  <speed>0.5</speed>
  <fix>3d</fix>
</trkpt>
<trkpt lat="-35.3629367" lon="149.1650912">
  <ele>600.68</ele>
  <time>2026-09-01T19:52:56Z</time>
  <course>90.41</course>
  <speed>0.45</speed>
  <fix>3d</fix>
</trkpt>
<trkpt lat="-35.3629366" lon="149.1650929">
  <ele>601.29</ele>
  <time>2026-09-01T19:52:56Z</time>
  <course>271.78</course>
  <speed>0.5</speed>
  <fix>3d</fix>
</trkpt>
<trkpt lat="-35.3629366" lon="149.1650908">
  <ele>600.53</ele>
  <time>2026-09-01T19:52:56Z</time>
  <course>90.57</course>
  <speed>0.43</speed>
  <fix>3d</fix>
</trkpt>
<trkpt lat="-35.3629366" lon="149.1650918">
  <ele>601.0</ele>
  <time>2026-09-01T19:52:56Z</time>
  <course>271.85</course>
  <speed>0.47</speed>
  <fix>3d</fix>
</trkpt>
<trkpt lat="-35.3629366" lon="149.1650903">
  <ele>600.38</ele>
  <time>2026-09-01T19:52:56Z</time>
  <course>90.75</course>
  <speed>0.42</speed>
  <fix>3d</fix>
</trkpt>
<trkpt lat="-35.3629366" lon="149.1650918">
  <ele>601.0</ele>
  <time>2026-09-01T19:52:56Z</time>
  <course>271.85</course>
  <speed>0.47</speed>
  <fix>3d</fix>
</trkpt>
<trkpt lat="-35.3629366" lon="149.1650899">
  <ele>600.23</ele>
  <time>2026-09-01T19:52:56Z</time>
  <course>90.93</course>
  <speed>0.4</speed>
  <fix>3d</fix>
</trkpt>
<trkpt lat="-35.3629366" lon="149.1650908">
  <ele>600.7</ele>
  <time>2026-09-01T19:52:56Z</time>
  <course>272.33</course>
  <speed>0.44</speed>
  <fix>3d</fix>
</trkpt>
<trkpt lat="-35.3629366" lon="149.1650894">
  <ele>600.08</ele>
  <time>2026-09-01T19:52:56Z</time>
  <course>91.06</course>
  <speed>0.3901281840626232</speed>
  <fix>3d</fix>
</trkpt>
<trkpt lat="-35.3629366" lon="149.1650908">
  <ele>600.7</ele>
  <time>2026-09-01T19:52:56Z</time>
  <course>272.33</course>
  <speed>0.44</speed>
  <fix>3d</fix>
</trkpt>
<trkpt lat="-35.3629366" lon="149.165089">
  <ele>599.93</ele>
  <time>2026-09-01T19:52:56Z</time>
  <course>91.16</course>
  <speed>0.3705401462729781</speed>
  <fix>3d</fix>
</trkpt>
<trkpt lat="-35.3629365" lon="149.1650898">
  <ele>600.4</ele>
  <time>2026-09-01T19:52:56Z</time>
  <course>272.97</course>
  <speed>0.41</speed>
  <fix>3d</fix>
</trkpt>
<trkpt lat="-35.3629366" lon="149.1650886">
  <ele>599.77</ele>
  <time>2026-09-01T19:52:56Z</time>
  <course>91.23</course>
  <speed>0.3605551275463989</speed>
  <fix>3d</fix>
</trkpt>
<trkpt lat="-35.3629365" lon="149.1650898">
  <ele>600.4</ele>
  <time>2026-09-01T19:52:56Z</time>
  <course>272.97</course>
  <speed>0.41</speed>
  <fix>3d</fix>
</trkpt>
<trkpt lat="-35.3629365" lon="149.1650882">
  <ele>599.62</ele>
  <time>2026-09-01T19:52:56Z</time>
  <course>91.27</course>
  <speed>0.34058772731852804</speed>
  <fix>3d</fix>
</trkpt>
<trkpt lat="-35.3629364" lon="149.165089">
  <ele>600.09</ele>
  <time>2026-09-01T19:52:56Z</time>
  <course>273.71</course>
  <speed>0.38</speed>
  <fix>3d</fix>
</trkpt>
<trkpt lat="-35.3629365" lon="149.1650879">
  <ele>599.47</ele>
  <time>2026-09-01T19:52:56Z</time>
  <course>91.29</course>
  <speed>0.3301514803843835</speed>
  <fix>3d</fix>
</trkpt>
<trkpt lat="-35.3629364" lon="149.165089">
  <ele>600.09</ele>
  <time>2026-09-01T19:52:56Z</time>
  <course>273.71</course>
  <speed>0.38</speed>
  <fix>3d</fix>
</trkpt>
<trkpt lat="-35.3629365" lon="149.1650875">
  <ele>599.32</ele>
  <time>2026-09-01T19:52:56Z</time>
  <course>91.29</course>
  <speed>0.32062439083762795</speed>
  <fix>3d</fix>
</trkpt>
<trkpt lat="-35.3629364" lon="149.1650881">
  <ele>599.78</ele>
  <time>2026-09-01T19:52:56Z</time>
  <course>274.46</course>
  <speed>0.35</speed>
  <fix>3d</fix>
</trkpt>
<trkpt lat="-35.3629365" lon="149.1650872">
  <ele>599.17</ele>
  <time>2026-09-01T19:52:56Z</time>
  <course>91.27</course>
  <speed>0.30066592756745814</speed>
  <fix>3d</fix>
</trkpt>
<trkpt lat="-35.3629364" lon="149.1650881">
  <ele>599.78</ele>
  <time>2026-09-01T19:52:56Z</time>
  <course>274.46</course>
  <speed>0.35</speed>
  <fix>3d</fix>
</trkpt>
<trkpt lat="-35.3629364" lon="149.1650868">
  <ele>599.01</ele>
  <time>2026-09-01T19:52:56Z</time>
  <course>91.24</course>
  <speed>0.2906888370749727</speed>
  <fix>3d</fix>
</trkpt>
<trkpt lat="-35.3629363" lon="149.1650874">
  <ele>599.48</ele>
  <time>2026-09-01T19:52:56Z</time>
  <course>275.07</course>
  <speed>0.32</speed>
  <fix>3d</fix>
</trkpt>
<trkpt lat="-35.3629364" lon="149.1650865">
  <ele>598.86</ele>
  <time>2026-09-01T19:52:56Z</time>
  <course>91.22</course>
  <speed>0.280713376952364</speed>
  <fix>3d</fix>
</trkpt>
<trkpt lat="-35.3629363" lon="149.1650874">
  <ele>599.48</ele>
  <time>2026-09-01T19:52:56Z</time>
  <course>275.07</course>
  <speed>0.32</speed>
  <fix>3d</fix>
</trkpt>
<trkpt lat="-35.3629364" lon="149.1650862">
  <ele>598.71</ele>
  <time>2026-09-01T19:52:56Z</time>
  <course>91.21</course>
  <speed>0.2707397274136177</speed>
  <fix>3d</fix>
</trkpt>
<trkpt lat="-35.3629363" lon="149.1650867">
  <ele>599.17</ele>
  <time>2026-09-01T19:52:56Z</time>
  <course>275.7</course>
  <speed>0.29</speed>
  <fix>3d</fix>
</trkpt>
<trkpt lat="-35.3629363" lon="149.1650859">
  <ele>598.56</ele>
  <time>2026-09-01T19:52:56Z</time>
  <course>91.2</course>
  <speed>0.25079872407968906</speed>
  <fix>3d</fix>
</trkpt>
<trkpt lat="-35.3629363" lon="149.1650867">
  <ele>599.17</ele>
  <time>2026-09-01T19:52:56Z</time>
  <course>275.7</course>
  <speed>0.29</speed>
  <fix>3d</fix>
</trkpt>
<trkpt lat="-35.3629363" lon="149.1650856">
  <ele>598.41</ele>
  <time>2026-09-01T19:52:56Z</time>
  <course>91.22</course>
  <speed>0.24083189157584592</speed>
  <fix>3d</fix>
</trkpt>
<trkpt lat="-35.3629363" lon="149.1650862">
  <ele>598.86</ele>
  <time>2026-09-01T19:52:56Z</time>
  <course>276.39</course>
  <speed>0.26</speed>
  <fix>3d</fix>
</trkpt>
<trkpt lat="-35.3629363" lon="149.1650854">
  <ele>598.26</ele>
  <time>2026-09-01T19:52:56Z</time>
  <course>91.24</course>
  <speed>0.2308679276123039</speed>
  <fix>3d</fix>
</trkpt>
<trkpt lat="-35.3629363" lon="149.1650862">
  <ele>598.86</ele>
  <time>2026-09-01T19:52:56Z</time>
  <course>276.39</course>
  <speed>0.26</speed>
  <fix>3d</fix>
</trkpt>
<trkpt lat="-35.3629363" lon="149.1650851">
  <ele>598.1</ele>
  <time>2026-09-01T19:52:56Z</time>
  <course>91.28</course>
  <speed>0.22022715545545238</speed>
  <fix>3d</fix>
</trkpt>
<trkpt lat="-35.3629362" lon="149.1650856">
  <ele>598.56</ele>
  <time>2026-09-01T19:52:56Z</time>
  <course>277.27</course>
  <speed>0.24</speed>
  <fix>3d</fix>
</trkpt>
<trkpt lat="-35.3629362" lon="149.1650849">
  <ele>597.95</ele>
  <time>2026-09-01T19:52:56Z</time>
  <course>91.31</course>
  <speed>0.2102379604162864</speed>
  <fix>3d</fix>
</trkpt>
<trkpt lat="-35.3629362" lon="149.1650856">
  <ele>598.56</ele>
  <time>2026-09-01T19:52:56Z</time>
  <course>277.27</course>
  <speed>0.24</speed>
  <fix>3d</fix>
</trkpt>
<trkpt lat="-35.3629362" lon="149.1650847">
  <ele>597.8</ele>
  <time>2026-09-01T19:52:56Z</time>
  <course>91.34</course>
  <speed>0.2002498439450079</speed>
  <fix>3d</fix>
</trkpt>
<trkpt lat="-35.3629362" lon="149.1650851">
  <ele>598.25</ele>
  <time>2026-09-01T19:52:56Z</time>
  <course>278.29</course>
  <speed>0.21</speed>
  <fix>3d</fix>
</trkpt>
<trkpt lat="-35.3629362" lon="149.1650845">
  <ele>597.65</ele>
  <time>2026-09-01T19:52:56Z</time>
  <course>91.37</course>
  <speed>0.19026297590440447</speed>
  <fix>3d</fix>
</trkpt>
<trkpt lat="-35.3629362" lon="149.1650851">
  <ele>598.25</ele>
  <time>2026-09-01T19:52:56Z</time>
  <course>278.29</course>
  <speed>0.21</speed>
  <fix>3d</fix>
</trkpt>
<trkpt lat="-35.3629362" lon="149.1650843">
  <ele>597.5</ele>
  <time>2026-09-01T19:52:56Z</time>
  <course>91.4</course>
  <speed>0.18027756377319945</speed>
  <fix>3d</fix>
</trkpt>
<trkpt lat="-35.3629361" lon="149.1650846">
  <ele>597.94</ele>
  <time>2026-09-01T19:52:56Z</time>
  <course>279.46</course>
  <speed>0.19</speed>
  <fix>3d</fix>
</trkpt>
<trkpt lat="-35.3629362" lon="149.1650841">
  <ele>597.35</ele>
  <time>2026-09-01T19:52:56Z</time>
  <course>91.41</course>
  <speed>0.17029386365926402</speed>
  <fix>3d</fix>
</trkpt>
<trkpt lat="-35.3629361" lon="149.1650846">
  <ele>597.94</ele>
  <time>2026-09-01T19:52:56Z</time>
  <course>279.46</course>
  <speed>0.19</speed>
  <fix>3d</fix>
</trkpt>
<trkpt lat="-35.3629361" lon="149.1650839">
  <ele>597.2</ele>
  <time>2026-09-01T19:52:56Z</time>
  <course>91.42</course>
  <speed>0.15033296378372907</speed>
  <fix>3d</fix>
</trkpt>
<trkpt lat="-35.362936" lon="149.1650842">
  <ele>597.65</ele>
  <time>2026-09-01T19:52:56Z</time>
  <course>281.0</course>
  <speed>0.17</speed>
  <fix>3d</fix>
</trkpt>
<trkpt lat="-35.3629361" lon="149.1650837">
  <ele>597.05</ele>
  <time>2026-09-01T19:52:56Z</time>
  <course>91.44</course>
  <speed>0.140356688476182</speed>
  <fix>3d</fix>
</trkpt>
<trkpt lat="-35.362936" lon="149.1650842">
  <ele>597.65</ele>
  <time>2026-09-01T19:52:56Z</time>
  <course>281.0</course>
  <speed>0.17</speed>
  <fix>3d</fix>
</trkpt>
<trkpt lat="-35.3629361" lon="149.1650836">
  <ele>596.9</ele>
  <time>2026-09-01T19:52:56Z</time>
  <course>91.47</course>
  <speed>0.130384048104053</speed>
  <fix>3d</fix>
</trkpt>
<trkpt lat="-35.362936" lon="149.1650839">
  <ele>597.35</ele>
  <time>2026-09-01T19:52:56Z</time>
  <course>283.1</course>
  <speed>0.14</speed>
  <fix>3d</fix>
</trkpt>
<trkpt lat="-35.3629361" lon="149.1650834">
  <ele>596.75</ele>
  <time>2026-09-01T19:52:56Z</time>
  <course>91.5</course>
  <speed>0.12041594578792296</speed>
  <fix>3d</fix>
</trkpt>
<trkpt lat="-35.362936" lon="149.1650839">
  <ele>597.35</ele>
  <time>2026-09-01T19:52:56Z</time>
  <course>283.1</course>
  <speed>0.14</speed>
  <fix>3d</fix>
</trkpt>
<trkpt lat="-35.362936" lon="149.1650833">
  <ele>596.59</ele>
  <time>2026-09-01T19:52:56Z</time>
  <course>91.53</course>
  <speed>0.11045361017187261</speed>
  <fix>3d</fix>
</trkpt>
<trkpt lat="-35.3629359" lon="149.1650836">
  <ele>597.05</ele>
  <time>2026-09-01T19:52:56Z</time>
  <course>285.92</course>
  <speed>0.12</speed>
  <fix>3d</fix>
</trkpt>
<trkpt lat="-35.362936" lon="149.1650832">
  <ele>596.44</ele>
  <time>2026-09-01T19:52:56Z</time>
  <course>91.56</course>
  <speed>0.1004987562112089</speed>
  <fix>3d</fix>
</trkpt>
<trkpt lat="-35.3629359" lon="149.1650836">
  <ele>597.05</ele>
  <time>2026-09-01T19:52:56Z</time>
  <course>285.92</course>
  <speed>0.12</speed>
  <fix>3d</fix>
</trkpt>
<trkpt lat="-35.362936" lon="149.1650831">
  <ele>596.3</ele>
  <time>2026-09-01T19:52:56Z</time>
  <course>91.59</course>
  <speed>0.09055385138137417</speed>
  <fix>3d</fix>
</trkpt>
<trkpt lat="-35.3629358" lon="149.1650833">
  <ele>596.75</ele>
  <time>2026-09-01T19:52:56Z</time>
  <course>289.7</course>
  <speed>0.1</speed>
  <fix>3d</fix>
</trkpt>
<trkpt lat="-35.3629359" lon="149.165083">
  <ele>596.15</ele>
  <time>2026-09-01T19:52:56Z</time>
  <course>91.62</course>
  <speed>0.08062257748298549</speed>
  <fix>3d</fix>
</trkpt>
<trkpt lat="-35.3629358" lon="149.1650833">
  <ele>596.75</ele>
  <time>2026-09-01T19:52:56Z</time>
  <course>289.7</course>
  <speed>0.1</speed>
  <fix>3d</fix>
</trkpt>
<trkpt lat="-35.3629359" lon="149.1650829">
  <ele>596.0</ele>
  <time>2026-09-01T19:52:56Z</time>
  <course>91.65</course>
  <speed>0.07071067811865475</speed>
  <fix>3d</fix>
</trkpt>
<trkpt lat="-35.3629357" lon="149.1650831">
  <ele>596.45</ele>
  <time>2026-09-01T19:52:56Z</time>
  <course>294.98</course>
  <speed>0.08</speed>
  <fix>3d</fix>
</trkpt>
<trkpt lat="-35.3629359" lon="149.1650828">
  <ele>595.86</ele>
  <time>2026-09-01T19:52:56Z</time>
  <course>91.69</course>
  <speed>0.07071067811865475</speed>
  <fix>3d</fix>
</trkpt>
<trkpt lat="-35.3629357" lon="149.1650831">
  <ele>596.45</ele>
  <time>2026-09-01T19:52:56Z</time>
  <course>294.98</course>
  <speed>0.08</speed>
  <fix>3d</fix>
</trkpt>
<trkpt lat="-35.3629358" lon="149.1650828">
  <ele>595.71</ele>
  <time>2026-09-01T19:52:56Z</time>
  <course>91.73</course>
  <speed>0.06082762530298219</speed>
  <fix>3d</fix>
</trkpt>
<trkpt lat="-35.3629357" lon="149.1650829">
  <ele>596.16</ele>
  <time>2026-09-01T19:52:56Z</time>
  <course>302.8</course>
  <speed>0.06</speed>
  <fix>3d</fix>
</trkpt>
<trkpt lat="-35.3629358" lon="149.1650827">
  <ele>595.57</ele>
  <time>2026-09-01T19:52:56Z</time>
  <course>91.77</course>
  <speed>0.05099019513592785</speed>
  <fix>3d</fix>
</trkpt>
<trkpt lat="-35.3629357" lon="149.1650829">
  <ele>596.16</ele>
  <time>2026-09-01T19:52:56Z</time>
  <course>302.8</course>
  <speed>0.06</speed>
  <fix>3d</fix>
</trkpt>
<trkpt lat="-35.3629358" lon="149.1650827">
  <ele>595.43</ele>
  <time>2026-09-01T19:52:56Z</time>
  <course>91.81</course>
  <speed>0.0412310562561766</speed>
  <fix>3d</fix>
</trkpt>
<trkpt lat="-35.3629356" lon="149.1650828">
  <ele>595.87</ele>
  <time>2026-09-01T19:52:56Z</time>
  <course>314.14</course>
  <speed>0.05</speed>
  <fix>3d</fix>
</trkpt>
<trkpt lat="-35.3629357" lon="149.1650826">
  <ele>595.3</ele>
  <time>2026-09-01T19:52:56Z</time>
  <course>91.84</course>
  <speed>0.0412310562561766</speed>
  <fix>3d</fix>
</trkpt>
<trkpt lat="-35.3629356" lon="149.1650828">
  <ele>595.87</ele>
  <time>2026-09-01T19:52:56Z</time>
  <course>314.14</course>
  <speed>0.05</speed>
  <fix>3d</fix>
</trkpt>
<trkpt lat="-35.3629357" lon="149.1650826">
  <ele>595.16</ele>
  <time>2026-09-01T19:52:56Z</time>
  <course>91.86</course>
  <speed>0.0316227766016838</speed>
  <fix>3d</fix>
</trkpt>
<trkpt lat="-35.3629356" lon="149.1650828">
  <ele>595.59</ele>
  <time>2026-09-01T19:52:56Z</time>
  <course>330.17</course>
  <speed>0.04</speed>
  <fix>3d</fix>
</trkpt>
<trkpt lat="-35.3629357" lon="149.1650826">
  <ele>595.03</ele>
  <time>2026-09-01T19:52:56Z</time>
  <course>91.79</course>
  <speed>0.02</speed>
  <fix>3d</fix>
</trkpt>
<trkpt lat="-35.3629356" lon="149.1650828">
  <ele>595.59</ele>
  <time>2026-09-01T19:52:56Z</time>
  <course>330.17</course>
  <speed>0.04</speed>
  <fix>3d</fix>
</trkpt>
<trkpt lat="-35.3629357" lon="149.1650826">
  <ele>594.91</ele>
  <time>2026-09-01T19:52:56Z</time>
  <course>91.49</course>
  <speed>0.0282842712474619</speed>
  <fix>3d</fix>
</trkpt>
<trkpt lat="-35.3629355" lon="149.1650828">
  <ele>595.32</ele>
  <time>2026-09-01T19:52:56Z</time>
  <course>349.23</course>
  <speed>0.03</speed>
  <fix>3d</fix>
</trkpt>
<trkpt lat="-35.3629357" lon="149.1650826">
  <ele>594.78</ele>
  <time>2026-09-01T19:52:56Z</time>
  <course>91.03</course>
  <speed>0.0412310562561766</speed>
  <fix>3d</fix>
</trkpt>
<trkpt lat="-35.3629355" lon="149.1650828">
  <ele>595.32</ele>
  <time>2026-09-01T19:52:56Z</time>
  <course>349.23</course>
  <speed>0.03</speed>
  <fix>3d</fix>
</trkpt>
<trkpt lat="-35.3629357" lon="149.1650826">
  <ele>594.66</ele>
  <time>2026-09-01T19:52:56Z</time>
  <course>90.5</course>
  <speed>0.06082762530298219</speed>
  <fix>3d</fix>
</trkpt>
<trkpt lat="-35.3629355" lon="149.1650828">
  <ele>595.06</ele>
  <time>2026-09-01T19:52:56Z</time>
  <course>48.75</course>
  <speed>0.01</speed>
  <fix>3d</fix>
</trkpt>
<trkpt lat="-35.3629358" lon="149.1650826">
  <ele>594.53</ele>
  <time>2026-09-01T19:52:56Z</time>
  <course>90.0</course>
  <speed>0.08</speed>
  <fix>3d</fix>
</trkpt>
<trkpt lat="-35.3629355" lon="149.1650828">
  <ele>595.06</ele>
  <time>2026-09-01T19:52:56Z</time>
  <course>48.75</course>
  <speed>0.01</speed>
  <fix>3d</fix>
</trkpt>
<trkpt lat="-35.3629358" lon="149.1650827">
  <ele>594.41</ele>
  <time>2026-09-01T19:52:56Z</time>
  <course>89.6</course>
  <speed>0.09</speed>
  <fix>3d</fix>
</trkpt>
<trkpt lat="-35.3629355" lon="149.1650828">
  <ele>594.81</ele>
  <time>2026-09-01T19:52:56Z</time>
  <course>146.84</course>
  <speed>0.03</speed>
  <fix>3d</fix>
</trkpt>
<trkpt lat="-35.3629358" lon="149.1650827">
  <ele>594.3</ele>
  <time>2026-09-01T19:52:56Z</time>
  <course>89.34</course>
  <speed>0.11</speed>
  <fix>3d</fix>
</trkpt>
<trkpt lat="-35.3629355" lon="149.1650828">
  <ele>594.81</ele>
  <time>2026-09-01T19:52:56Z</time>
  <course>146.84</course>
  <speed>0.03</speed>
  <fix>3d</fix>
</trkpt>
<trkpt lat="-35.3629359" lon="149.1650827">
  <ele>594.18</ele>
  <time>2026-09-01T19:52:56Z</time>
  <course>89.2</course>
  <speed>0.12</speed>
  <fix>3d</fix>
</trkpt>
<trkpt lat="-35.3629356" lon="149.1650828">
  <ele>594.57</ele>
  <time>2026-09-01T19:52:56Z</time>
  <course>155.05</course>
  <speed>0.07</speed>
  <fix>3d</fix>
</trkpt>
<trkpt lat="-35.362936" lon="149.1650827">
  <ele>594.07</ele>
  <time>2026-09-01T19:52:56Z</time>
  <course>89.17</course>
  <speed>0.14</speed>
  <fix>3d</fix>
</trkpt>
<trkpt lat="-35.3629356" lon="149.1650828">
  <ele>594.57</ele>
  <time>2026-09-01T19:52:56Z</time>
  <course>155.05</course>
  <speed>0.07</speed>
  <fix>3d</fix>
</trkpt>
<trkpt lat="-35.3629361" lon="149.1650827">
  <ele>593.96</ele>
  <time>2026-09-01T19:52:56Z</time>
  <course>89.22</course>
  <speed>0.15033296378372907</speed>
  <fix>3d</fix>
</trkpt>
<trkpt lat="-35.3629357" lon="149.1650828">
  <ele>594.34</ele>
  <time>2026-09-01T19:52:56Z</time>
  <course>157.91</course>
  <speed>0.1</speed>
  <fix>3d</fix>
</trkpt>
<trkpt lat="-35.3629362" lon="149.1650827">
  <ele>593.85</ele>
  <time>2026-09-01T19:52:56Z</time>
  <course>89.32</course>
  <speed>0.16031219541881397</speed>
  <fix>3d</fix>
</trkpt>
<trkpt lat="-35.3629357" lon="149.1650828">
  <ele>594.34</ele>
  <time>2026-09-01T19:52:56Z</time>
  <course>157.91</course>
  <speed>0.1</speed>
  <fix>3d</fix>
</trkpt>
<trkpt lat="-35.3629363" lon="149.1650828">
  <ele>593.75</ele>
  <time>2026-09-01T19:52:56Z</time>
  <course>89.42</course>
  <speed>0.17029386365926402</speed>
  <fix>3d</fix>
</trkpt>
<trkpt lat="-35.3629358" lon="149.1650829">
  <ele>594.12</ele>
  <time>2026-09-01T19:52:56Z</time>
  <course>159.38</course>
  <speed>0.13</speed>
  <fix>3d</fix>
</trkpt>
<trkpt lat="-35.3629365" lon="149.1650828">
  <ele>593.64</ele>
  <time>2026-09-01T19:52:56Z</time>
  <course>89.51</course>
  <speed>0.18027756377319945</speed>
  <fix>3d</fix>
</trkpt>
<trkpt lat="-35.3629358" lon="149.1650829">
  <ele>594.12</ele>
  <time>2026-09-01T19:52:56Z</time>
  <course>159.38</course>
  <speed>0.13</speed>
  <fix>3d</fix>
</trkpt>
<trkpt lat="-35.3629366" lon="149.1650828">
  <ele>593.54</ele>
  <time>2026-09-01T19:52:56Z</time>
  <course>89.57</course>
  <speed>0.191049731745428</speed>
  <fix>3d</fix>
</trkpt>
<trkpt lat="-35.3629361" lon="149.165083">
  <ele>593.9</ele>
  <time>2026-09-01T19:52:56Z</time>
  <course>160.12</course>
  <speed>0.15</speed>
  <fix>3d</fix>
</trkpt>
<trkpt lat="-35.3629368" lon="149.1650829">
  <ele>593.45</ele>
  <time>2026-09-01T19:52:56Z</time>
  <course>89.59</course>
  <speed>0.2009975124224178</speed>
  <fix>3d</fix>
</trkpt>
<trkpt lat="-35.3629361" lon="149.165083">
  <ele>593.9</ele>
  <time>2026-09-01T19:52:56Z</time>
  <course>160.12</course>
  <speed>0.15</speed>
  <fix>3d</fix>
</trkpt>
<trkpt lat="-35.3629369" lon="149.165083">
  <ele>593.35</ele>
  <time>2026-09-01T19:52:56Z</time>
  <course>89.58</course>
  <speed>0.2009975124224178</speed>
  <fix>3d</fix>
</trkpt>
<trkpt lat="-35.3629363" lon="149.1650832">
  <ele>593.69</ele>
  <time>2026-09-01T19:52:56Z</time>
  <course>160.37</course>
  <speed>0.17</speed>
  <fix>3d</fix>
</trkpt>
<trkpt lat="-35.3629371" lon="149.165083">
  <ele>593.25</ele>
  <time>2026-09-01T19:52:56Z</time>
  <course>89.54</course>
  <speed>0.2109502310972899</speed>
  <fix>3d</fix>
</trkpt>
<trkpt lat="-35.3629363" lon="149.1650832">
  <ele>593.69</ele>
  <time>2026-09-01T19:52:56Z</time>
  <course>160.37</course>
  <speed>0.17</speed>
  <fix>3d</fix>
</trkpt>
<trkpt lat="-35.3629372" lon="149.1650831">
  <ele>593.16</ele>
  <time>2026-09-01T19:52:56Z</time>
  <course>89.49</course>
  <speed>0.21213203435596426</speed>
  <fix>3d</fix>
</trkpt>
<trkpt lat="-35.3629366" lon="149.1650833">
  <ele>593.5</ele>
  <time>2026-09-01T19:52:56Z</time>
  <course>160.26</course>
  <speed>0.18</speed>
  <fix>3d</fix>
</trkpt>
<trkpt lat="-35.3629374" lon="149.1650831">
  <ele>593.07</ele>
  <time>2026-09-01T19:52:56Z</time>
  <course>89.43</course>
  <speed>0.21213203435596426</speed>
  <fix>3d</fix>
</trkpt>
<trkpt lat="-35.3629366" lon="149.1650833">
  <ele>593.5</ele>
  <time>2026-09-01T19:52:56Z</time>
  <course>160.26</course>
  <speed>0.18</speed>
  <fix>3d</fix>
</trkpt>
<trkpt lat="-35.3629375" lon="149.1650832">
  <ele>592.98</ele>
  <time>2026-09-01T19:52:56Z</time>
  <course>89.36</course>
  <speed>0.21213203435596426</speed>
  <fix>3d</fix>
</trkpt>
<trkpt lat="-35.362937" lon="149.1650834">
  <ele>593.31</ele>
  <time>2026-09-01T19:52:56Z</time>
  <course>159.89</course>
  <speed>0.19</speed>
  <fix>3d</fix>
</trkpt>
<trkpt lat="-35.3629377" lon="149.1650833">
  <ele>592.89</ele>
  <time>2026-09-01T19:52:56Z</time>
  <course>89.31</course>
  <speed>0.21213203435596426</speed>
  <fix>3d</fix>
</trkpt>
<trkpt lat="-35.362937" lon="149.1650834">
  <ele>593.31</ele>
  <time>2026-09-01T19:52:56Z</time>
  <course>159.89</course>
  <speed>0.19</speed>
  <fix>3d</fix>
</trkpt>
<trkpt lat="-35.3629379" lon="149.1650834">
  <ele>592.8</ele>
  <time>2026-09-01T19:52:56Z</time>
  <course>89.27</course>
  <speed>0.21213203435596426</speed>
  <fix>3d</fix>
</trkpt>
<trkpt lat="-35.3629373" lon="149.1650836">
  <ele>593.13</ele>
  <time>2026-09-01T19:52:56Z</time>
  <course>159.33</course>
  <speed>0.2</speed>
  <fix>3d</fix>
</trkpt>
<trkpt lat="-35.362938" lon="149.1650834">
  <ele>592.71</ele>
  <time>2026-09-01T19:52:56Z</time>
  <course>89.24</course>
  <speed>0.21213203435596426</speed>
  <fix>3d</fix>
</trkpt>
<trkpt lat="-35.3629373" lon="149.1650836">
  <ele>593.13</ele>
  <time>2026-09-01T19:52:56Z</time>
  <course>159.33</course>
  <speed>0.2</speed>
  <fix>3d</fix>
</trkpt>
<trkpt lat="-35.3629382" lon="149.1650835">
  <ele>592.62</ele>
  <time>2026-09-01T19:52:56Z</time>
  <course>89.22</course>
  <speed>0.21213203435596426</speed>
  <fix>3d</fix>
</trkpt>
<trkpt lat="-35.3629377" lon="149.1650838">
  <ele>592.94</ele>
  <time>2026-09-01T19:52:56Z</time>
  <course>158.59</course>
  <speed>0.2</speed>
  <fix>3d</fix>
</trkpt>
<trkpt lat="-35.3629384" lon="149.1650836">
  <ele>592.54</ele>
  <time>2026-09-01T19:52:56Z</time>
  <course>89.21</course>
  <speed>0.20223748416156684</speed>
  <fix>3d</fix>
</trkpt>
<trkpt lat="-35.3629377" lon="149.1650838">
  <ele>592.94</ele>
  <time>2026-09-01T19:52:56Z</time>
  <course>158.59</course>
  <speed>0.2</speed>
  <fix>3d</fix>
</trkpt>
<trkpt lat="-35.3629385" lon="149.1650837">
  <ele>592.45</ele>
  <time>2026-09-01T19:52:56Z</time>
  <course>89.2</course>
  <speed>0.20223748416156684</speed>
  <fix>3d</fix>
</trkpt>
<trkpt lat="-35.362938" lon="149.1650839">
  <ele>592.77</ele>
  <time>2026-09-01T19:52:56Z</time>
  <course>157.61</course>
  <speed>0.19</speed>
  <fix>3d</fix>
</trkpt>
<trkpt lat="-35.3629387" lon="149.1650837">
  <ele>592.37</ele>
  <time>2026-09-01T19:52:56Z</time>
  <course>89.19</course>
  <speed>0.19235384061671343</speed>
  <fix>3d</fix>
</trkpt>
<trkpt lat="-35.362938" lon="149.1650839">
  <ele>592.77</ele>
  <time>2026-09-01T19:52:56Z</time>
  <course>157.61</course>
  <speed>0.19</speed>
  <fix>3d</fix>
</trkpt>
<trkpt lat="-35.3629388" lon="149.1650838">
  <ele>592.29</ele>
  <time>2026-09-01T19:52:56Z</time>
  <course>89.18</course>
  <speed>0.194164878389476</speed>
  <fix>3d</fix>
</trkpt>
<trkpt lat="-35.3629383" lon="149.1650841">
  <ele>592.61</ele>
  <time>2026-09-01T19:52:56Z</time>
  <course>156.34</course>
  <speed>0.19</speed>
  <fix>3d</fix>
</trkpt>
<trkpt lat="-35.362939" lon="149.1650839">
  <ele>592.21</ele>
  <time>2026-09-01T19:52:56Z</time>
  <course>89.17</course>
  <speed>0.18439088914585774</speed>
  <fix>3d</fix>
</trkpt>
<trkpt lat="-35.3629383" lon="149.1650841">
  <ele>592.61</ele>
  <time>2026-09-01T19:52:56Z</time>
  <course>156.34</course>
  <speed>0.19</speed>
  <fix>3d</fix>
</trkpt>
<trkpt lat="-35.3629391" lon="149.165084">
  <ele>592.13</ele>
  <time>2026-09-01T19:52:56Z</time>
  <course>89.15</course>
  <speed>0.17464249196572978</speed>
  <fix>3d</fix>
</trkpt>
<trkpt lat="-35.3629386" lon="149.1650843">
  <ele>592.45</ele>
  <time>2026-09-01T19:52:56Z</time>
  <course>154.76</course>
  <speed>0.18</speed>
  <fix>3d</fix>
</trkpt>
<trkpt lat="-35.3629392" lon="149.1650841">
  <ele>592.06</ele>
  <time>2026-09-01T19:52:56Z</time>
  <course>89.13</course>
  <speed>0.16278820596099705</speed>
  <fix>3d</fix>
</trkpt>
<trkpt lat="-35.3629386" lon="149.1650843">
  <ele>592.45</ele>
  <time>2026-09-01T19:52:56Z</time>
  <course>154.76</course>
  <speed>0.18</speed>
  <fix>3d</fix>
</trkpt>
<trkpt lat="-35.3629393" lon="149.1650842">
  <ele>591.98</ele>
  <time>2026-09-01T19:52:56Z</time>
  <course>89.11</course>
  <speed>0.15297058540778355</speed>
  <fix>3d</fix>
</trkpt>
<trkpt lat="-35.3629389" lon="149.1650844">
  <ele>592.29</ele>
  <time>2026-09-01T19:52:56Z</time>
  <course>152.87</course>
  <speed>0.16</speed>
  <fix>3d</fix>
</trkpt>
<trkpt lat="-35.3629394" lon="149.1650842">
  <ele>591.91</ele>
  <time>2026-09-01T19:52:56Z</time>
  <course>89.08</course>
  <speed>0.14317821063276354</speed>
  <fix>3d</fix>
</trkpt>
<trkpt lat="-35.3629389" lon="149.1650844">
  <ele>592.29</ele>
  <time>2026-09-01T19:52:56Z</time>
  <course>152.87</course>
  <speed>0.16</speed>
  <fix>3d</fix>
</trkpt>
<trkpt lat="-35.3629396" lon="149.1650843">
  <ele>591.84</ele>
  <time>2026-09-01T19:52:56Z</time>
  <course>89.06</course>
  <speed>0.14317821063276354</speed>
  <fix>3d</fix>
</trkpt>
<trkpt lat="-35.3629392" lon="149.1650846">
  <ele>592.13</ele>
  <time>2026-09-01T19:52:56Z</time>
  <course>150.63</course>
  <speed>0.15</speed>
  <fix>3d</fix>
</trkpt>
<trkpt lat="-35.3629397" lon="149.1650844">
  <ele>591.78</ele>
  <time>2026-09-01T19:52:56Z</time>
  <course>89.04</course>
  <speed>0.13341664064126335</speed>
  <fix>3d</fix>
</trkpt>
<trkpt lat="-35.3629392" lon="149.1650846">
  <ele>592.13</ele>
  <time>2026-09-01T19:52:56Z</time>
  <course>150.63</course>
  <speed>0.15</speed>
  <fix>3d</fix>
</trkpt>
<trkpt lat="-35.3629397" lon="149.1650845">
  <ele>591.71</ele>
  <time>2026-09-01T19:52:56Z</time>
  <course>89.01</course>
  <speed>0.11401754250991379</speed>
  <fix>3d</fix>
</trkpt>
<trkpt lat="-35.3629394" lon="149.1650848">
  <ele>591.99</ele>
  <time>2026-09-01T19:52:56Z</time>
  <course>147.75</course>
  <speed>0.13</speed>
  <fix>3d</fix>
</trkpt>
<trkpt lat="-35.3629398" lon="149.1650846">
  <ele>591.64</ele>
  <time>2026-09-01T19:52:56Z</time>
  <course>88.99</course>
  <speed>0.1044030650891055</speed>
  <fix>3d</fix>
</trkpt>
<trkpt lat="-35.3629394" lon="149.1650848">
  <ele>591.99</ele>
  <time>2026-09-01T19:52:56Z</time>
  <course>147.75</course>
  <speed>0.13</speed>
  <fix>3d</fix>
</trkpt>
<trkpt lat="-35.3629399" lon="149.1650846">
  <ele>591.57</ele>
  <time>2026-09-01T19:52:56Z</time>
  <course>88.97</course>
  <speed>0.09486832980505139</speed>
  <fix>3d</fix>
</trkpt>
<trkpt lat="-35.3629396" lon="149.1650849">
  <ele>591.85</ele>
  <time>2026-09-01T19:52:56Z</time>
  <course>143.65</course>
  <speed>0.11</speed>
  <fix>3d</fix>
</trkpt>
<trkpt lat="-35.36294" lon="149.1650847">
  <ele>591.51</ele>
  <time>2026-09-01T19:52:56Z</time>
  <course>88.95</course>
  <speed>0.0824621125123532</speed>
  <fix>3d</fix>
</trkpt>
<trkpt lat="-35.3629396" lon="149.1650849">
  <ele>591.85</ele>
  <time>2026-09-01T19:52:56Z</time>
  <course>143.65</course>
  <speed>0.11</speed>
  <fix>3d</fix>
</trkpt>
<trkpt lat="-35.36294" lon="149.1650848">
  <ele>591.44</ele>
  <time>2026-09-01T19:52:56Z</time>
  <course>88.93</course>
  <speed>0.07280109889280519</speed>
  <fix>3d</fix>
</trkpt>
<trkpt lat="-35.3629397" lon="149.1650851">
  <ele>591.71</ele>
  <time>2026-09-01T19:52:56Z</time>
  <course>137.74</course>
  <speed>0.09</speed>
  <fix>3d</fix>
</trkpt>
<trkpt lat="-35.36294" lon="149.1650848">
  <ele>591.38</ele>
  <time>2026-09-01T19:52:56Z</time>
  <course>88.92</course>
  <speed>0.0632455532033676</speed>
  <fix>3d</fix>
</trkpt>
<trkpt lat="-35.3629397" lon="149.1650851">
  <ele>591.71</ele>
  <time>2026-09-01T19:52:56Z</time>
  <course>137.74</course>
  <speed>0.09</speed>
  <fix>3d</fix>
</trkpt>
<trkpt lat="-35.3629401" lon="149.1650849">
  <ele>591.32</ele>
  <time>2026-09-01T19:52:56Z</time>
  <course>88.9</course>
  <speed>0.053851648071345036</speed>
  <fix>3d</fix>
</trkpt>
<trkpt lat="-35.3629398" lon="149.1650852">
  <ele>591.58</ele>
  <time>2026-09-01T19:52:56Z</time>
  <course>129.53</course>
  <speed>0.07</speed>
  <fix>3d</fix>
</trkpt>
<trkpt lat="-35.3629401" lon="149.165085">
  <ele>591.26</ele>
  <time>2026-09-01T19:52:56Z</time>
  <course>88.87</course>
  <speed>0.044721359549995794</speed>
  <fix>3d</fix>
</trkpt>
<trkpt lat="-35.3629398" lon="149.1650852">
  <ele>591.58</ele>
  <time>2026-09-01T19:52:56Z</time>
  <course>129.53</course>
  <speed>0.07</speed>
  <fix>3d</fix>
</trkpt>
<trkpt lat="-35.3629401" lon="149.165085">
  <ele>591.2</ele>
  <time>2026-09-01T19:52:56Z</time>
  <course>88.85</course>
  <speed>0.0316227766016838</speed>
  <fix>3d</fix>
</trkpt>
<trkpt lat="-35.3629399" lon="149.1650853">
  <ele>591.45</ele>
  <time>2026-09-01T19:52:56Z</time>
  <course>117.96</course>
  <speed>0.06</speed>
  <fix>3d</fix>
</trkpt>
<trkpt lat="-35.3629401" lon="149.1650851">
  <ele>591.15</ele>
  <time>2026-09-01T19:52:56Z</time>
  <course>88.82</course>
  <speed>0.022360679774997897</speed>
  <fix>3d</fix>
</trkpt>
<trkpt lat="-35.3629399" lon="149.1650853">
  <ele>591.45</ele>
  <time>2026-09-01T19:52:56Z</time>
  <course>117.96</course>
  <speed>0.06</speed>
  <fix>3d</fix>
</trkpt>
<trkpt lat="-35.3629401" lon="149.1650851">
  <ele>591.09</ele>
  <time>2026-09-01T19:52:56Z</time>
  <course>88.8</course>
  <speed>0.01414213562373095</speed>
  <fix>3d</fix>
</trkpt>
<trkpt lat="-35.36294" lon="149.1650854">
  <ele>591.33</ele>
  <time>2026-09-01T19:52:56Z</time>
  <course>101.12</course>
  <speed>0.05</speed>
  <fix>3d</fix>
</trkpt>
<trkpt lat="-35.3629401" lon="149.1650852">
  <ele>591.03</ele>
  <time>2026-09-01T19:52:56Z</time>
  <course>88.76</course>
  <speed>0.01</speed>
  <fix>3d</fix>
</trkpt>
<trkpt lat="-35.36294" lon="149.1650854">
  <ele>591.33</ele>
  <time>2026-09-01T19:52:56Z</time>
  <course>101.12</course>
  <speed>0.05</speed>
  <fix>3d</fix>
</trkpt>
<trkpt lat="-35.3629401" lon="149.1650852">
  <ele>590.98</ele>
  <time>2026-09-01T19:52:56Z</time>
  <course>88.72</course>
  <speed>0.0</speed>
  <fix>3d</fix>
</trkpt>
<trkpt lat="-35.36294" lon="149.1650855">
  <ele>591.21</ele>
  <time>2026-09-01T19:52:56Z</time>
  <course>78.91</course>
  <speed>0.04</speed>
  <fix>3d</fix>
</trkpt>
<trkpt lat="-35.3629401" lon="149.1650853">
  <ele>590.92</ele>
  <time>2026-09-01T19:52:56Z</time>
  <course>88.68</course>
  <speed>0.0</speed>
  <fix>3d</fix>
</trkpt>
<trkpt lat="-35.36294" lon="149.1650855">
  <ele>591.21</ele>
  <time>2026-09-01T19:52:56Z</time>
  <course>78.91</course>
  <speed>0.04</speed>
  <fix>3d</fix>
</trkpt>
<trkpt lat="-35.3629401" lon="149.1650853">
  <ele>590.86</ele>
  <time>2026-09-01T19:52:56Z</time>
  <course>88.64</course>
  <speed>0.01</speed>
  <fix>3d</fix>
</trkpt>
<trkpt lat="-35.36294" lon="149.1650856">
  <ele>591.1</ele>
  <time>2026-09-01T19:52:56Z</time>
  <course>57.08</course>
  <speed>0.04</speed>
  <fix>3d</fix>
</trkpt>
<trkpt lat="-35.3629401" lon="149.1650853">
  <ele>590.81</ele>
  <time>2026-09-01T19:52:56Z</time>
  <course>88.61</course>
  <speed>0.02</speed>
  <fix>3d</fix>
</trkpt>
<trkpt lat="-35.36294" lon="149.1650856">
  <ele>591.1</ele>
  <time>2026-09-01T19:52:56Z</time>
  <course>57.08</course>
  <speed>0.04</speed>
  <fix>3d</fix>
</trkpt>
<trkpt lat="-35.36294" lon="149.1650854">
  <ele>590.75</ele>
  <time>2026-09-01T19:52:56Z</time>
  <course>88.6</course>
  <speed>0.03</speed>
  <fix>3d</fix>
</trkpt>
<trkpt lat="-35.3629399" lon="149.1650857">
  <ele>590.98</ele>
  <time>2026-09-01T19:52:56Z</time>
  <course>39.61</course>
  <speed>0.05</speed>
  <fix>3d</fix>
</trkpt>
<trkpt lat="-35.36294" lon="149.1650854">
  <ele>590.7</ele>
  <time>2026-09-01T19:52:56Z</time>
  <course>88.59</course>
  <speed>0.03</speed>
  <fix>3d</fix>
</trkpt>
<trkpt lat="-35.3629399" lon="149.1650857">
  <ele>590.98</ele>
  <time>2026-09-01T19:52:56Z</time>
  <course>39.61</course>
  <speed>0.05</speed>
  <fix>3d</fix>
</trkpt>
<trkpt lat="-35.3629399" lon="149.1650854">
  <ele>590.65</ele>
  <time>2026-09-01T19:52:56Z</time>
  <course>88.58</course>
  <speed>0.04</speed>
  <fix>3d</fix>
</trkpt>
<trkpt lat="-35.3629398" lon="149.1650858">
  <ele>590.87</ele>
  <time>2026-09-01T19:52:56Z</time>
  <course>26.9</course>
  <speed>0.06</speed>
  <fix>3d</fix>
</trkpt>
<trkpt lat="-35.3629399" lon="149.1650855">
  <ele>590.6</ele>
  <time>2026-09-01T19:52:56Z</time>
  <course>88.59</course>
  <speed>0.04</speed>
  <fix>3d</fix>
</trkpt>
<trkpt lat="-35.3629398" lon="149.1650858">
  <ele>590.87</ele>
  <time>2026-09-01T19:52:56Z</time>
  <course>26.9</course>
  <speed>0.06</speed>
  <fix>3d</fix>
</trkpt>
<trkpt lat="-35.3629398" lon="149.1650855">
  <ele>590.55</ele>
  <time>2026-09-01T19:52:56Z</time>
  <course>88.6</course>
  <speed>0.05099019513592785</speed>
  <fix>3d</fix>
</trkpt>
<trkpt lat="-35.3629397" lon="149.1650858">
  <ele>590.77</ele>
  <time>2026-09-01T19:52:56Z</time>
  <course>18.34</course>
  <speed>0.07</speed>
  <fix>3d</fix>
</trkpt>
<trkpt lat="-35.3629397" lon="149.1650855">
  <ele>590.49</ele>
  <time>2026-09-01T19:52:56Z</time>
  <course>88.61</course>
  <speed>0.05099019513592785</speed>
  <fix>3d</fix>
</trkpt>
<trkpt lat="-35.3629397" lon="149.1650858">
  <ele>590.77</ele>
  <time>2026-09-01T19:52:56Z</time>
  <course>18.34</course>
  <speed>0.07</speed>
  <fix>3d</fix>
</trkpt>
<trkpt lat="-35.3629397" lon="149.1650855">
  <ele>590.44</ele>
  <time>2026-09-01T19:52:56Z</time>
  <course>88.63</course>
  <speed>0.06082762530298219</speed>
  <fix>3d</fix>
</trkpt>
<trkpt lat="-35.3629396" lon="149.1650859">
  <ele>590.66</ele>
  <time>2026-09-01T19:52:56Z</time>
  <course>12.47</course>
  <speed>0.08</speed>
  <fix>3d</fix>
</trkpt>
<trkpt lat="-35.3629396" lon="149.1650855">
  <ele>590.39</ele>
  <time>2026-09-01T19:52:56Z</time>
  <course>88.64</course>
  <speed>0.06082762530298219</speed>
  <fix>3d</fix>
</trkpt>
<trkpt lat="-35.3629396" lon="149.1650859">
  <ele>590.66</ele>
  <time>2026-09-01T19:52:56Z</time>
  <course>12.47</course>
  <speed>0.08</speed>
  <fix>3d</fix>
</trkpt>
<trkpt lat="-35.3629395" lon="149.1650856">
  <ele>590.34</ele>
  <time>2026-09-01T19:52:56Z</time>
  <course>88.65</course>
  <speed>0.07071067811865475</speed>
  <fix>3d</fix>
</trkpt>
<trkpt lat="-35.3629394" lon="149.165086">
  <ele>590.56</ele>
  <time>2026-09-01T19:52:56Z</time>
  <course>8.14</course>
  <speed>0.09</speed>
  <fix>3d</fix>
</trkpt>
<trkpt lat="-35.3629394" lon="149.1650856">
  <ele>590.29</ele>
  <time>2026-09-01T19:52:56Z</time>
  <course>88.66</course>
  <speed>0.07280109889280519</speed>
  <fix>3d</fix>
</trkpt>
<trkpt lat="-35.3629394" lon="149.165086">
  <ele>590.56</ele>
  <time>2026-09-01T19:52:56Z</time>
  <course>8.14</course>
  <speed>0.09</speed>
  <fix>3d</fix>
</trkpt>
<trkpt lat="-35.3629393" lon="149.1650856">
  <ele>590.24</ele>
  <time>2026-09-01T19:52:56Z</time>
  <course>88.66</course>
  <speed>0.07280109889280519</speed>
  <fix>3d</fix>
</trkpt>
<trkpt lat="-35.3629393" lon="149.165086">
  <ele>590.45</ele>
  <time>2026-09-01T19:52:56Z</time>
  <course>4.84</course>
  <speed>0.09</speed>
  <fix>3d</fix>
</trkpt>
<trkpt lat="-35.3629392" lon="149.1650856">
  <ele>590.19</ele>
  <time>2026-09-01T19:52:56Z</time>
  <course>88.66</course>
  <speed>0.07280109889280519</speed>
  <fix>3d</fix>
</trkpt>
<trkpt lat="-35.3629393" lon="149.165086">
  <ele>590.45</ele>
  <time>2026-09-01T19:52:56Z</time>
  <course>4.84</course>
  <speed>0.09</speed>
  <fix>3d</fix>
</trkpt>
<trkpt lat="-35.3629391" lon="149.1650856">
  <ele>590.14</ele>
  <time>2026-09-01T19:52:56Z</time>
  <course>88.66</course>
  <speed>0.0824621125123532</speed>
  <fix>3d</fix>
</trkpt>
<trkpt lat="-35.3629391" lon="149.165086">
  <ele>590.36</ele>
  <time>2026-09-01T19:52:56Z</time>
  <course>2.06</course>
  <speed>0.1</speed>
  <fix>3d</fix>
</trkpt>
<trkpt lat="-35.3629391" lon="149.1650856">
  <ele>590.09</ele>
  <time>2026-09-01T19:52:56Z</time>
  <course>88.65</course>
  <speed>0.0824621125123532</speed>
  <fix>3d</fix>
</trkpt>
<trkpt lat="-35.3629391" lon="149.165086">
  <ele>590.36</ele>
  <time>2026-09-01T19:52:56Z</time>
  <course>2.06</course>
  <speed>0.1</speed>
  <fix>3d</fix>
</trkpt>
<trkpt lat="-35.362939" lon="149.1650856">
  <ele>590.04</ele>
  <time>2026-09-01T19:52:56Z</time>
  <course>88.65</course>
  <speed>0.0824621125123532</speed>
  <fix>3d</fix>
</trkpt>
<trkpt lat="-35.3629389" lon="149.165086">
  <ele>590.26</ele>
  <time>2026-09-01T19:52:56Z</time>
  <course>359.79</course>
  <speed>0.1</speed>
  <fix>3d</fix>
</trkpt>
<trkpt lat="-35.3629389" lon="149.1650856">
  <ele>589.99</ele>
  <time>2026-09-01T19:52:56Z</time>
  <course>88.65</course>
  <speed>0.0854400374531753</speed>
  <fix>3d</fix>
</trkpt>
<trkpt lat="-35.3629389" lon="149.165086">
  <ele>590.26</ele>
  <time>2026-09-01T19:52:56Z</time>
  <course>359.79</course>
  <speed>0.1</speed>
  <fix>3d</fix>
</trkpt>
<trkpt lat="-35.3629388" lon="149.1650857">
  <ele>589.95</ele>
  <time>2026-09-01T19:52:56Z</time>
  <course>88.66</course>
  <speed>0.0854400374531753</speed>
  <fix>3d</fix>
</trkpt>
<trkpt lat="-35.3629387" lon="149.165086">
  <ele>590.16</ele>
  <time>2026-09-01T19:52:56Z</time>
  <course>358.11</course>
  <speed>0.1</speed>
  <fix>3d</fix>
</trkpt>
<trkpt lat="-35.3629387" lon="149.1650857">
  <ele>589.89</ele>
  <time>2026-09-01T19:52:56Z</time>
  <course>88.67</course>
  <speed>0.0854400374531753</speed>
  <fix>3d</fix>
</trkpt>
<trkpt lat="-35.3629387" lon="149.165086">
  <ele>590.16</ele>
  <time>2026-09-01T19:52:56Z</time>
  <course>358.11</course>
  <speed>0.1</speed>
  <fix>3d</fix>
</trkpt>
<trkpt lat="-35.3629386" lon="149.1650857">
  <ele>589.84</ele>
  <time>2026-09-01T19:52:56Z</time>
  <course>88.69</course>
  <speed>0.07615773105863909</speed>
  <fix>3d</fix>
</trkpt>
<trkpt lat="-35.3629386" lon="149.165086">
  <ele>590.05</ele>
  <time>2026-09-01T19:52:56Z</time>
  <course>356.66</course>
  <speed>0.1</speed>
  <fix>3d</fix>
</trkpt>
<trkpt lat="-35.3629385" lon="149.1650857">
  <ele>589.79</ele>
  <time>2026-09-01T19:52:56Z</time>
  <course>88.71</course>
  <speed>0.07615773105863909</speed>
  <fix>3d</fix>
</trkpt>
<trkpt lat="-35.3629386" lon="149.165086">
  <ele>590.05</ele>
  <time>2026-09-01T19:52:56Z</time>
  <course>356.66</course>
  <speed>0.1</speed>
  <fix>3d</fix>
</trkpt>
<trkpt lat="-35.3629384" lon="149.1650857">
  <ele>589.74</ele>
  <time>2026-09-01T19:52:56Z</time>
  <course>88.72</course>
  <speed>0.07615773105863909</speed>
  <fix>3d</fix>
</trkpt>
<trkpt lat="-35.3629384" lon="149.165086">
  <ele>589.95</ele>
  <time>2026-09-01T19:52:56Z</time>
  <course>355.12</course>
  <speed>0.1</speed>
  <fix>3d</fix>
</trkpt>
<trkpt lat="-35.3629383" lon="149.1650857">
  <ele>589.69</ele>
  <time>2026-09-01T19:52:56Z</time>
  <course>88.72</course>
  <speed>0.07615773105863909</speed>
  <fix>3d</fix>
</trkpt>
<trkpt lat="-35.3629384" lon="149.165086">
  <ele>589.95</ele>
  <time>2026-09-01T19:52:56Z</time>
  <course>355.12</course>
  <speed>0.1</speed>
  <fix>3d</fix>
</trkpt>
<trkpt lat="-35.3629383" lon="149.1650857">
  <ele>589.64</ele>
  <time>2026-09-01T19:52:56Z</time>
  <course>88.71</course>
  <speed>0.07615773105863909</speed>
  <fix>3d</fix>
</trkpt>
<trkpt lat="-35.3629382" lon="149.165086">
  <ele>589.85</ele>
  <time>2026-09-01T19:52:56Z</time>
  <course>353.36</course>
  <speed>0.1</speed>
  <fix>3d</fix>
</trkpt>
<trkpt lat="-35.3629382" lon="149.1650857">
  <ele>589.59</ele>
  <time>2026-09-01T19:52:56Z</time>
  <course>88.7</course>
  <speed>0.0670820393249937</speed>
  <fix>3d</fix>
</trkpt>
<trkpt lat="-35.3629382" lon="149.165086">
  <ele>589.85</ele>
  <time>2026-09-01T19:52:56Z</time>
  <course>353.36</course>
  <speed>0.1</speed>
  <fix>3d</fix>
</trkpt>
<trkpt lat="-35.3629381" lon="149.1650857">
  <ele>589.54</ele>
  <time>2026-09-01T19:52:56Z</time>
  <course>88.69</course>
  <speed>0.0670820393249937</speed>
  <fix>3d</fix>
</trkpt>
<trkpt lat="-35.362938" lon="149.165086">
  <ele>589.75</ele>
  <time>2026-09-01T19:52:56Z</time>
  <course>351.8</course>
  <speed>0.09</speed>
  <fix>3d</fix>
</trkpt>
<trkpt lat="-35.362938" lon="149.1650856">
  <ele>589.49</ele>
  <time>2026-09-01T19:52:56Z</time>
  <course>88.68</course>
  <speed>0.0670820393249937</speed>
  <fix>3d</fix>
</trkpt>
<trkpt lat="-35.362938" lon="149.165086">
  <ele>589.75</ele>
  <time>2026-09-01T19:52:56Z</time>
  <course>351.8</course>
  <speed>0.09</speed>
  <fix>3d</fix>
</trkpt>
<trkpt lat="-35.3629379" lon="149.1650856">
  <ele>589.44</ele>
  <time>2026-09-01T19:52:56Z</time>
  <course>88.67</course>
  <speed>0.05830951894845301</speed>
  <fix>3d</fix>
</trkpt>
<trkpt lat="-35.3629378" lon="149.165086">
  <ele>589.64</ele>
  <time>2026-09-01T19:52:56Z</time>
  <course>350.43</course>
  <speed>0.09</speed>
  <fix>3d</fix>
</trkpt>
<trkpt lat="-35.3629379" lon="149.1650856">
  <ele>589.39</ele>
  <time>2026-09-01T19:52:56Z</time>
  <course>88.68</course>
  <speed>0.06403124237432849</speed>
  <fix>3d</fix>
</trkpt>
<trkpt lat="-35.3629378" lon="149.165086">
  <ele>589.64</ele>
  <time>2026-09-01T19:52:56Z</time>
  <course>350.43</course>
  <speed>0.09</speed>
  <fix>3d</fix>
</trkpt>
<trkpt lat="-35.3629378" lon="149.1650856">
  <ele>589.34</ele>
  <time>2026-09-01T19:52:56Z</time>
  <course>88.69</course>
  <speed>0.0565685424949238</speed>
  <fix>3d</fix>
</trkpt>
<trkpt lat="-35.3629376" lon="149.1650859">
  <ele>589.54</ele>
  <time>2026-09-01T19:52:56Z</time>
  <course>348.77</course>
  <speed>0.08</speed>
  <fix>3d</fix>
</trkpt>
<trkpt lat="-35.3629377" lon="149.1650856">
  <ele>589.29</ele>
  <time>2026-09-01T19:52:56Z</time>
  <course>88.71</course>
  <speed>0.0565685424949238</speed>
  <fix>3d</fix>
</trkpt>
<trkpt lat="-35.3629376" lon="149.1650859">
  <ele>589.54</ele>
  <time>2026-09-01T19:52:56Z</time>
  <course>348.77</course>
  <speed>0.08</speed>
  <fix>3d</fix>
</trkpt>
<trkpt lat="-35.3629377" lon="149.1650856">
  <ele>589.23</ele>
  <time>2026-09-01T19:52:56Z</time>
  <course>88.72</course>
  <speed>0.0565685424949238</speed>
  <fix>3d</fix>
</trkpt>
<trkpt lat="-35.3629375" lon="149.1650858">
  <ele>589.44</ele>
  <time>2026-09-01T19:52:56Z</time>
  <course>346.79</course>
  <speed>0.07</speed>
  <fix>3d</fix>
</trkpt>
<trkpt lat="-35.3629376" lon="149.1650856">
  <ele>589.18</ele>
  <time>2026-09-01T19:52:56Z</time>
  <course>88.73</course>
  <speed>0.05</speed>
  <fix>3d</fix>
</trkpt>
<trkpt lat="-35.3629375" lon="149.1650858">
  <ele>589.44</ele>
  <time>2026-09-01T19:52:56Z</time>
  <course>346.79</course>
  <speed>0.07</speed>
  <fix>3d</fix>
</trkpt>
<trkpt lat="-35.3629375" lon="149.1650856">
  <ele>589.13</ele>
  <time>2026-09-01T19:52:57Z</time>
  <course>88.74</course>
  <speed>0.05</speed>
  <fix>3d</fix>
</trkpt>
<trkpt lat="-35.3629374" lon="149.1650858">
  <ele>589.33</ele>
  <time>2026-09-01T19:52:57Z</time>
  <course>344.84</course>
  <speed>0.06</speed>
  <fix>3d</fix>
</trkpt>
<trkpt lat="-35.3629375" lon="149.1650855">
  <ele>589.08</ele>
  <time>2026-09-01T19:52:57Z</time>
  <course>88.75</course>
  <speed>0.044721359549995794</speed>
  <fix>3d</fix>
</trkpt>
<trkpt lat="-35.3629374" lon="149.1650858">
  <ele>589.33</ele>
  <time>2026-09-01T19:52:57Z</time>
  <course>344.84</course>
  <speed>0.06</speed>
  <fix>3d</fix>
</trkpt>
<trkpt lat="-35.3629374" lon="149.1650855">
  <ele>589.03</ele>
  <time>2026-09-01T19:52:57Z</time>
  <course>88.76</course>
  <speed>0.03605551275463989</speed>
  <fix>3d</fix>
</trkpt>
<trkpt lat="-35.3629372" lon="149.1650858">
  <ele>589.24</ele>
  <time>2026-09-01T19:52:57Z</time>
  <course>343.09</course>
  <speed>0.06</speed>
  <fix>3d</fix>
</trkpt>
<trkpt lat="-35.3629374" lon="149.1650855">
  <ele>588.98</ele>
  <time>2026-09-01T19:52:57Z</time>
  <course>88.78</course>
  <speed>0.0316227766016838</speed>
  <fix>3d</fix>
</trkpt>
<trkpt lat="-35.3629372" lon="149.1650858">
  <ele>589.24</ele>
  <time>2026-09-01T19:52:57Z</time>
  <course>343.09</course>
  <speed>0.06</speed>
  <fix>3d</fix>
</trkpt>
<trkpt lat="-35.3629374" lon="149.1650855">
  <ele>588.93</ele>
  <time>2026-09-01T19:52:57Z</time>
  <course>88.79</course>
  <speed>0.0316227766016838</speed>
  <fix>3d</fix>
</trkpt>
<trkpt lat="-35.3629372" lon="149.1650857">
  <ele>589.14</ele>
  <time>2026-09-01T19:52:57Z</time>
  <course>340.84</course>
  <speed>0.05</speed>
  <fix>3d</fix>
</trkpt>
<trkpt lat="-35.3629373" lon="149.1650855">
  <ele>588.88</ele>
  <time>2026-09-01T19:52:57Z</time>
  <course>88.8</course>
  <speed>0.03</speed>
  <fix>3d</fix>
</trkpt>
<trkpt lat="-35.3629372" lon="149.1650857">
  <ele>589.14</ele>
  <time>2026-09-01T19:52:57Z</time>
  <course>340.84</course>
  <speed>0.05</speed>
  <fix>3d</fix>
</trkpt>
<trkpt lat="-35.3629373" lon="149.1650854">
  <ele>588.83</ele>
  <time>2026-09-01T19:52:57Z</time>
  <course>88.8</course>
  <speed>0.03</speed>
  <fix>3d</fix>
</trkpt>
<trkpt lat="-35.3629371" lon="149.1650857">
  <ele>589.04</ele>
  <time>2026-09-01T19:52:57Z</time>
  <course>336.76</course>
  <speed>0.04</speed>
  <fix>3d</fix>
</trkpt>
<trkpt lat="-35.3629373" lon="149.1650854">
  <ele>588.78</ele>
  <time>2026-09-01T19:52:57Z</time>
  <course>88.8</course>
  <speed>0.03</speed>
  <fix>3d</fix>
</trkpt>
<trkpt lat="-35.3629371" lon="149.1650857">
  <ele>589.04</ele>
  <time>2026-09-01T19:52:57Z</time>
  <course>336.76</course>
  <speed>0.04</speed>
  <fix>3d</fix>
</trkpt>
<trkpt lat="-35.3629373" lon="149.1650854">
  <ele>588.73</ele>
  <time>2026-09-01T19:52:57Z</time>
  <course>88.79</course>
  <speed>0.03</speed>
  <fix>3d</fix>
</trkpt>
<trkpt lat="-35.362937" lon="149.1650857">
  <ele>588.94</ele>
  <time>2026-09-01T19:52:57Z</time>
  <course>329.05</course>
  <speed>0.02</speed>
  <fix>3d</fix>
</trkpt>
<trkpt lat="-35.3629373" lon="149.1650854">
  <ele>588.68</ele>
  <time>2026-09-01T19:52:57Z</time>
  <course>88.78</course>
  <speed>0.0316227766016838</speed>
  <fix>3d</fix>
</trkpt>
<trkpt lat="-35.362937" lon="149.1650857">
  <ele>588.94</ele>
  <time>2026-09-01T19:52:57Z</time>
  <course>329.05</course>
  <speed>0.02</speed>
  <fix>3d</fix>
</trkpt>
<trkpt lat="-35.3629372" lon="149.1650854">
  <ele>588.63</ele>
  <time>2026-09-01T19:52:57Z</time>
  <course>88.75</course>
  <speed>0.03605551275463989</speed>
  <fix>3d</fix>
</trkpt>
<trkpt lat="-35.3629369" lon="149.1650857">
  <ele>588.83</ele>
  <time>2026-09-01T19:52:57Z</time>
  <course>312.88</course>
  <speed>0.01</speed>
  <fix>3d</fix>
</trkpt>
<trkpt lat="-35.3629372" lon="149.1650854">
  <ele>588.58</ele>
  <time>2026-09-01T19:52:57Z</time>
  <course>88.78</course>
  <speed>0.03605551275463989</speed>
  <fix>3d</fix>
</trkpt>
<trkpt lat="-35.3629369" lon="149.1650857">
  <ele>588.83</ele>
  <time>2026-09-01T19:52:57Z</time>
  <course>312.88</course>
  <speed>0.01</speed>
  <fix>3d</fix>
</trkpt>
<trkpt lat="-35.3629372" lon="149.1650854">
  <ele>588.53</ele>
  <time>2026-09-01T19:52:57Z</time>
  <course>88.88</course>
  <speed>0.0316227766016838</speed>
  <fix>3d</fix>
</trkpt>
<trkpt lat="-35.3629369" lon="149.1650857">
  <ele>588.74</ele>
  <time>2026-09-01T19:52:57Z</time>
  <course>287.31</course>
  <speed>0.01</speed>
  <fix>3d</fix>
</trkpt>
<trkpt lat="-35.3629372" lon="149.1650854">
  <ele>588.48</ele>
  <time>2026-09-01T19:52:57Z</time>
  <course>89.02</course>
  <speed>0.0316227766016838</speed>
  <fix>3d</fix>
</trkpt>
<trkpt lat="-35.3629369" lon="149.1650857">
  <ele>588.74</ele>
  <time>2026-09-01T19:52:57Z</time>
  <course>287.31</course>
  <speed>0.01</speed>
  <fix>3d</fix>
</trkpt>
<trkpt lat="-35.3629372" lon="149.1650854">
  <ele>588.43</ele>
  <time>2026-09-01T19:52:57Z</time>
  <course>89.18</course>
  <speed>0.0316227766016838</speed>
  <fix>3d</fix>
</trkpt>
<trkpt lat="-35.3629369" lon="149.1650856">
  <ele>588.64</ele>
  <time>2026-09-01T19:52:57Z</time>
  <course>274.92</course>
  <speed>0.01</speed>
  <fix>3d</fix>
</trkpt>
<trkpt lat="-35.3629372" lon="149.1650854">
  <ele>588.38</ele>
  <time>2026-09-01T19:52:57Z</time>
  <course>89.31</course>
  <speed>0.0316227766016838</speed>
  <fix>3d</fix>
</trkpt>
<trkpt lat="-35.3629369" lon="149.1650856">
  <ele>588.64</ele>
  <time>2026-09-01T19:52:57Z</time>
  <course>274.92</course>
  <speed>0.01</speed>
  <fix>3d</fix>
</trkpt>
<trkpt lat="-35.3629372" lon="149.1650854">
  <ele>588.33</ele>
  <time>2026-09-01T19:52:57Z</time>
  <course>89.42</course>
  <speed>0.022360679774997897</speed>
  <fix>3d</fix>
</trkpt>
<trkpt lat="-35.3629369" lon="149.1650856">
  <ele>588.54</ele>
  <time>2026-09-01T19:52:57Z</time>
  <course>276.56</course>
  <speed>0.0</speed>
  <fix>3d</fix>
</trkpt>
<trkpt lat="-35.3629372" lon="149.1650854">
  <ele>588.28</ele>
  <time>2026-09-01T19:52:57Z</time>
  <course>89.49</course>
  <speed>0.022360679774997897</speed>
  <fix>3d</fix>
</trkpt>
<trkpt lat="-35.3629369" lon="149.1650856">
  <ele>588.54</ele>
  <time>2026-09-01T19:52:57Z</time>
  <course>276.56</course>
  <speed>0.0</speed>
  <fix>3d</fix>
</trkpt>
<trkpt lat="-35.3629372" lon="149.1650854">
  <ele>588.23</ele>
  <time>2026-09-01T19:52:57Z</time>
  <course>89.53</course>
  <speed>0.022360679774997897</speed>
  <fix>3d</fix>
</trkpt>
<trkpt lat="-35.3629369" lon="149.1650856">
  <ele>588.44</ele>
  <time>2026-09-01T19:52:57Z</time>
  <course>280.5</course>
  <speed>0.0</speed>
  <fix>3d</fix>
</trkpt>
<trkpt lat="-35.3629372" lon="149.1650853">
  <ele>588.19</ele>
  <time>2026-09-01T19:52:57Z</time>
  <course>89.54</course>
  <speed>0.022360679774997897</speed>
  <fix>3d</fix>
</trkpt>
<trkpt lat="-35.3629369" lon="149.1650856">
  <ele>588.44</ele>
  <time>2026-09-01T19:52:57Z</time>
  <course>280.5</course>
  <speed>0.0</speed>
  <fix>3d</fix>
</trkpt>
<trkpt lat="-35.3629372" lon="149.1650853">
  <ele>588.13</ele>
  <time>2026-09-01T19:52:57Z</time>
  <course>89.53</course>
  <speed>0.022360679774997897</speed>
  <fix>3d</fix>
</trkpt>
<trkpt lat="-35.3629369" lon="149.1650856">
  <ele>588.33</ele>
  <time>2026-09-01T19:52:57Z</time>
  <course>287.94</course>
  <speed>0.0</speed>
  <fix>3d</fix>
</trkpt>
<trkpt lat="-35.3629371" lon="149.1650853">
  <ele>588.08</ele>
  <time>2026-09-01T19:52:57Z</time>
  <course>89.52</course>
  <speed>0.022360679774997897</speed>
  <fix>3d</fix>
</trkpt>
<trkpt lat="-35.3629369" lon="149.1650856">
  <ele>588.33</ele>
  <time>2026-09-01T19:52:57Z</time>
  <course>287.94</course>
  <speed>0.0</speed>
  <fix>3d</fix>
</trkpt>
<trkpt lat="-35.3629371" lon="149.1650853">
  <ele>588.04</ele>
  <time>2026-09-01T19:52:57Z</time>
  <course>89.51</course>
  <speed>0.022360679774997897</speed>
  <fix>3d</fix>
</trkpt>
<trkpt lat="-35.3629369" lon="149.1650856">
  <ele>588.24</ele>
  <time>2026-09-01T19:52:57Z</time>
  <course>299.4</course>
  <speed>0.0</speed>
  <fix>3d</fix>
</trkpt>
<trkpt lat="-35.3629371" lon="149.1650853">
  <ele>587.99</ele>
  <time>2026-09-01T19:52:57Z</time>
  <course>89.5</course>
  <speed>0.022360679774997897</speed>
  <fix>3d</fix>
</trkpt>
<trkpt lat="-35.3629369" lon="149.1650856">
  <ele>588.24</ele>
  <time>2026-09-01T19:52:57Z</time>
  <course>299.4</course>
  <speed>0.0</speed>
  <fix>3d</fix>
</trkpt>
<trkpt lat="-35.3629371" lon="149.1650854">
  <ele>587.94</ele>
  <time>2026-09-01T19:52:57Z</time>
  <course>89.48</course>
  <speed>0.022360679774997897</speed>
  <fix>3d</fix>
</trkpt>
<trkpt lat="-35.3629369" lon="149.1650856">
  <ele>588.14</ele>
  <time>2026-09-01T19:52:57Z</time>
  <course>317.1</course>
  <speed>0.0</speed>
  <fix>3d</fix>
</trkpt>
<trkpt lat="-35.3629371" lon="149.1650854">
  <ele>587.89</ele>
  <time>2026-09-01T19:52:57Z</time>
  <course>89.43</course>
  <speed>0.0282842712474619</speed>
  <fix>3d</fix>
</trkpt>
<trkpt lat="-35.3629369" lon="149.1650856">
  <ele>588.14</ele>
  <time>2026-09-01T19:52:57Z</time>
  <course>317.1</course>
  <speed>0.0</speed>
  <fix>3d</fix>
</trkpt>
<trkpt lat="-35.3629371" lon="149.1650854">
  <ele>587.84</ele>
  <time>2026-09-01T19:52:57Z</time>
  <course>89.36</course>
  <speed>0.0282842712474619</speed>
  <fix>3d</fix>
</trkpt>
<trkpt lat="-35.3629369" lon="149.1650856">
  <ele>588.04</ele>
  <time>2026-09-01T19:52:57Z</time>
  <course>155.92</course>
  <speed>0.0</speed>
  <fix>3d</fix>
</trkpt>
<trkpt lat="-35.3629371" lon="149.1650854">
  <ele>587.78</ele>
  <time>2026-09-01T19:52:57Z</time>
  <course>89.29</course>
  <speed>0.022360679774997897</speed>
  <fix>3d</fix>
</trkpt>
<trkpt lat="-35.3629369" lon="149.1650856">
  <ele>588.04</ele>
  <time>2026-09-01T19:52:57Z</time>
  <course>155.92</course>
  <speed>0.0</speed>
  <fix>3d</fix>
</trkpt>
<trkpt lat="-35.3629371" lon="149.1650854">
  <ele>587.73</ele>
  <time>2026-09-01T19:52:57Z</time>
  <course>89.23</course>
  <speed>0.022360679774997897</speed>
  <fix>3d</fix>
</trkpt>
<trkpt lat="-35.3629369" lon="149.1650856">
  <ele>587.94</ele>
  <time>2026-09-01T19:52:57Z</time>
  <course>159.42</course>
  <speed>0.0</speed>
  <fix>3d</fix>
</trkpt>
<trkpt lat="-35.3629371" lon="149.1650854">
  <ele>587.68</ele>
  <time>2026-09-01T19:52:57Z</time>
  <course>89.18</course>
  <speed>0.022360679774997897</speed>
  <fix>3d</fix>
</trkpt>
<trkpt lat="-35.3629369" lon="149.1650856">
  <ele>587.94</ele>
  <time>2026-09-01T19:52:57Z</time>
  <course>159.42</course>
  <speed>0.0</speed>
  <fix>3d</fix>
</trkpt>
<trkpt lat="-35.3629371" lon="149.1650854">
  <ele>587.63</ele>
  <time>2026-09-01T19:52:57Z</time>
  <course>89.15</course>
  <speed>0.0316227766016838</speed>
  <fix>3d</fix>
</trkpt>
<trkpt lat="-35.3629369" lon="149.1650856">
  <ele>587.83</ele>
  <time>2026-09-01T19:52:57Z</time>
  <course>162.45</course>
  <speed>0.01</speed>
  <fix>3d</fix>
</trkpt>
<trkpt lat="-35.3629371" lon="149.1650854">
  <ele>587.59</ele>
  <time>2026-09-01T19:52:57Z</time>
  <course>89.15</course>
  <speed>0.0316227766016838</speed>
  <fix>3d</fix>
</trkpt>
<trkpt lat="-35.3629369" lon="149.1650856">
  <ele>587.83</ele>
  <time>2026-09-01T19:52:57Z</time>
  <course>162.45</course>
  <speed>0.01</speed>
  <fix>3d</fix>
</trkpt>
<trkpt lat="-35.3629371" lon="149.1650854">
  <ele>587.54</ele>
  <time>2026-09-01T19:52:57Z</time>
  <course>89.16</course>
  <speed>0.0316227766016838</speed>
  <fix>3d</fix>
</trkpt>
<trkpt lat="-35.3629369" lon="149.1650856">
  <ele>587.74</ele>
  <time>2026-09-01T19:52:57Z</time>
  <course>163.54</course>
  <speed>0.01</speed>
  <fix>3d</fix>
</trkpt>
<trkpt lat="-35.3629371" lon="149.1650854">
  <ele>587.49</ele>
  <time>2026-09-01T19:52:57Z</time>
  <course>89.18</course>
  <speed>0.0316227766016838</speed>
  <fix>3d</fix>
</trkpt>
<trkpt lat="-35.3629369" lon="149.1650856">
  <ele>587.74</ele>
  <time>2026-09-01T19:52:57Z</time>
  <course>163.54</course>
  <speed>0.01</speed>
  <fix>3d</fix>
</trkpt>
<trkpt lat="-35.3629371" lon="149.1650854">
  <ele>587.44</ele>
  <time>2026-09-01T19:52:57Z</time>
  <course>89.2</course>
  <speed>0.0316227766016838</speed>
  <fix>3d</fix>
</trkpt>
<trkpt lat="-35.3629369" lon="149.1650856">
  <ele>587.64</ele>
  <time>2026-09-01T19:52:57Z</time>
  <course>164.19</course>
  <speed>0.02</speed>
  <fix>3d</fix>
</trkpt>
<trkpt lat="-35.3629371" lon="149.1650854">
  <ele>587.39</ele>
  <time>2026-09-01T19:52:57Z</time>
  <course>89.22</course>
  <speed>0.0412310562561766</speed>
  <fix>3d</fix>
</trkpt>
<trkpt lat="-35.3629369" lon="149.1650856">
  <ele>587.64</ele>
  <time>2026-09-01T19:52:57Z</time>
  <course>164.19</course>
  <speed>0.02</speed>
  <fix>3d</fix>
</trkpt>
<trkpt lat="-35.3629371" lon="149.1650854">
  <ele>587.34</ele>
  <time>2026-09-01T19:52:57Z</time>
  <course>89.24</course>
  <speed>0.0412310562561766</speed>
  <fix>3d</fix>
</trkpt>
<trkpt lat="-35.3629369" lon="149.1650856">
  <ele>587.54</ele>
  <time>2026-09-01T19:52:57Z</time>
  <course>164.77</course>
  <speed>0.02</speed>
  <fix>3d</fix>
</trkpt>
<trkpt lat="-35.3629372" lon="149.1650854">
  <ele>587.29</ele>
  <time>2026-09-01T19:52:57Z</time>
  <course>89.25</course>
  <speed>0.0412310562561766</speed>
  <fix>3d</fix>
</trkpt>
<trkpt lat="-35.3629369" lon="149.1650856">
  <ele>587.54</ele>
  <time>2026-09-01T19:52:57Z</time>
  <course>164.77</course>
  <speed>0.02</speed>
  <fix>3d</fix>
</trkpt>
<trkpt lat="-35.3629372" lon="149.1650854">
  <ele>587.24</ele>
  <time>2026-09-01T19:52:57Z</time>
  <course>89.27</course>
  <speed>0.0412310562561766</speed>
  <fix>3d</fix>
</trkpt>
<trkpt lat="-35.362937" lon="149.1650856">
  <ele>587.44</ele>
  <time>2026-09-01T19:52:57Z</time>
  <course>164.66</course>
  <speed>0.02</speed>
  <fix>3d</fix>
</trkpt>
<trkpt lat="-35.3629372" lon="149.1650854">
  <ele>587.19</ele>
  <time>2026-09-01T19:52:57Z</time>
  <course>89.28</course>
  <speed>0.0412310562561766</speed>
  <fix>3d</fix>
</trkpt>
<trkpt lat="-35.362937" lon="149.1650856">
  <ele>587.44</ele>
  <time>2026-09-01T19:52:57Z</time>
  <course>164.66</course>
  <speed>0.02</speed>
  <fix>3d</fix>
</trkpt>
<trkpt lat="-35.3629372" lon="149.1650854">
  <ele>587.14</ele>
  <time>2026-09-01T19:52:57Z</time>
  <course>89.29</course>
  <speed>0.0412310562561766</speed>
  <fix>3d</fix>
</trkpt>
<trkpt lat="-35.362937" lon="149.1650856">
  <ele>587.33</ele>
  <time>2026-09-01T19:52:57Z</time>
  <course>164.32</course>
  <speed>0.02</speed>
  <fix>3d</fix>
</trkpt>
<trkpt lat="-35.3629372" lon="149.1650854">
  <ele>587.09</ele>
  <time>2026-09-01T19:52:57Z</time>
  <course>89.3</course>
  <speed>0.0412310562561766</speed>
  <fix>3d</fix>
</trkpt>
<trkpt lat="-35.362937" lon="149.1650856">
  <ele>587.33</ele>
  <time>2026-09-01T19:52:57Z</time>
  <course>164.32</course>
  <speed>0.02</speed>
  <fix>3d</fix>
</trkpt>
<trkpt lat="-35.3629373" lon="149.1650854">
  <ele>587.04</ele>
  <time>2026-09-01T19:52:57Z</time>
  <course>89.29</course>
  <speed>0.0412310562561766</speed>
  <fix>3d</fix>
</trkpt>
<trkpt lat="-35.3629371" lon="149.1650856">
  <ele>587.23</ele>
  <time>2026-09-01T19:52:57Z</time>
  <course>164.51</course>
  <speed>0.03</speed>
  <fix>3d</fix>
</trkpt>
<trkpt lat="-35.3629373" lon="149.1650854">
  <ele>586.98</ele>
  <time>2026-09-01T19:52:57Z</time>
  <course>89.28</course>
  <speed>0.0412310562561766</speed>
  <fix>3d</fix>
</trkpt>
<trkpt lat="-35.3629371" lon="149.1650856">
  <ele>587.23</ele>
  <time>2026-09-01T19:52:57Z</time>
  <course>164.51</course>
  <speed>0.03</speed>
  <fix>3d</fix>
</trkpt>
<trkpt lat="-35.3629373" lon="149.1650854">
  <ele>586.93</ele>
  <time>2026-09-01T19:52:57Z</time>
  <course>89.26</course>
  <speed>0.0412310562561766</speed>
  <fix>3d</fix>
</trkpt>
<trkpt lat="-35.3629372" lon="149.1650856">
  <ele>587.13</ele>
  <time>2026-09-01T19:52:57Z</time>
  <course>165.19</course>
  <speed>0.03</speed>
  <fix>3d</fix>
</trkpt>
<trkpt lat="-35.3629373" lon="149.1650854">
  <ele>586.88</ele>
  <time>2026-09-01T19:52:57Z</time>
  <course>89.25</course>
  <speed>0.0412310562561766</speed>
  <fix>3d</fix>
</trkpt>
<trkpt lat="-35.3629372" lon="149.1650856">
  <ele>587.13</ele>
  <time>2026-09-01T19:52:57Z</time>
  <course>165.19</course>
  <speed>0.03</speed>
  <fix>3d</fix>
</trkpt>
<trkpt lat="-35.3629374" lon="149.1650854">
  <ele>586.83</ele>
  <time>2026-09-01T19:52:57Z</time>
  <course>89.24</course>
  <speed>0.0412310562561766</speed>
  <fix>3d</fix>
</trkpt>
<trkpt lat="-35.3629373" lon="149.1650856">
  <ele>587.03</ele>
  <time>2026-09-01T19:52:57Z</time>
  <course>166.24</course>
  <speed>0.03</speed>
  <fix>3d</fix>
</trkpt>
<trkpt lat="-35.3629374" lon="149.1650854">
  <ele>586.79</ele>
  <time>2026-09-01T19:52:57Z</time>
  <course>89.24</course>
  <speed>0.05099019513592785</speed>
  <fix>3d</fix>
</trkpt>
<trkpt lat="-35.3629373" lon="149.1650856">
  <ele>587.03</ele>
  <time>2026-09-01T19:52:57Z</time>
  <course>166.24</course>
  <speed>0.03</speed>
  <fix>3d</fix>
</trkpt>
<trkpt lat="-35.3629374" lon="149.1650854">
  <ele>586.74</ele>
  <time>2026-09-01T19:52:57Z</time>
  <course>89.25</course>
  <speed>0.0412310562561766</speed>
  <fix>3d</fix>
</trkpt>
<trkpt lat="-35.3629373" lon="149.1650856">
  <ele>586.93</ele>
  <time>2026-09-01T19:52:57Z</time>
  <course>167.53</course>
  <speed>0.03</speed>
  <fix>3d</fix>
</trkpt>
<trkpt lat="-35.3629375" lon="149.1650854">
  <ele>586.69</ele>
  <time>2026-09-01T19:52:57Z</time>
  <course>89.26</course>
  <speed>0.0412310562561766</speed>
  <fix>3d</fix>
</trkpt>
<trkpt lat="-35.3629373" lon="149.1650856">
  <ele>586.93</ele>
  <time>2026-09-01T19:52:57Z</time>
  <course>167.53</course>
  <speed>0.03</speed>
  <fix>3d</fix>
</trkpt>
<trkpt lat="-35.3629375" lon="149.1650854">
  <ele>586.64</ele>
  <time>2026-09-01T19:52:57Z</time>
  <course>89.27</course>
  <speed>0.0412310562561766</speed>
  <fix>3d</fix>
</trkpt>
<trkpt lat="-35.3629374" lon="149.1650856">
  <ele>586.83</ele>
  <time>2026-09-01T19:52:57Z</time>
  <course>168.51</course>
  <speed>0.03</speed>
  <fix>3d</fix>
</trkpt>
<trkpt lat="-35.3629375" lon="149.1650854">
  <ele>586.59</ele>
  <time>2026-09-01T19:52:57Z</time>
  <course>89.27</course>
  <speed>0.0412310562561766</speed>
  <fix>3d</fix>
</trkpt>
<trkpt lat="-35.3629374" lon="149.1650856">
  <ele>586.83</ele>
  <time>2026-09-01T19:52:57Z</time>
  <course>168.51</course>
  <speed>0.03</speed>
  <fix>3d</fix>
</trkpt>
<trkpt lat="-35.3629376" lon="149.1650854">
  <ele>586.54</ele>
  <time>2026-09-01T19:52:57Z</time>
  <course>89.28</course>
  <speed>0.0412310562561766</speed>
  <fix>3d</fix>
</trkpt>
<trkpt lat="-35.3629374" lon="149.1650856">
  <ele>586.73</ele>
  <time>2026-09-01T19:52:57Z</time>
  <course>168.36</course>
  <speed>0.03</speed>
  <fix>3d</fix>
</trkpt>
<trkpt lat="-35.3629376" lon="149.1650854">
  <ele>586.49</ele>
  <time>2026-09-01T19:52:57Z</time>
  <course>89.28</course>
  <speed>0.0412310562561766</speed>
  <fix>3d</fix>
</trkpt>
<trkpt lat="-35.3629374" lon="149.1650856">
  <ele>586.73</ele>
  <time>2026-09-01T19:52:57Z</time>
  <course>168.36</course>
  <speed>0.03</speed>
  <fix>3d</fix>
</trkpt>
<trkpt lat="-35.3629376" lon="149.1650854">
  <ele>586.44</ele>
  <time>2026-09-01T19:52:57Z</time>
  <course>89.28</course>
  <speed>0.0412310562561766</speed>
  <fix>3d</fix>
</trkpt>
<trkpt lat="-35.3629375" lon="149.1650857">
  <ele>586.63</ele>
  <time>2026-09-01T19:52:57Z</time>
  <course>166.71</course>
  <speed>0.03</speed>
  <fix>3d</fix>
</trkpt>
<trkpt lat="-35.3629377" lon="149.1650854">
  <ele>586.39</ele>
  <time>2026-09-01T19:52:57Z</time>
  <course>89.28</course>
  <speed>0.0412310562561766</speed>
  <fix>3d</fix>
</trkpt>
<trkpt lat="-35.3629375" lon="149.1650857">
  <ele>586.63</ele>
  <time>2026-09-01T19:52:57Z</time>
  <course>166.71</course>
  <speed>0.03</speed>
  <fix>3d</fix>
</trkpt>
<trkpt lat="-35.3629377" lon="149.1650854">
  <ele>586.33</ele>
  <time>2026-09-01T19:52:57Z</time>
  <course>89.28</course>
  <speed>0.0412310562561766</speed>
  <fix>3d</fix>
</trkpt>
<trkpt lat="-35.3629375" lon="149.1650857">
  <ele>586.53</ele>
  <time>2026-09-01T19:52:57Z</time>
  <course>164.27</course>
  <speed>0.03</speed>
  <fix>3d</fix>
</trkpt>
<trkpt lat="-35.3629377" lon="149.1650854">
  <ele>586.28</ele>
  <time>2026-09-01T19:52:57Z</time>
  <course>89.27</course>
  <speed>0.0412310562561766</speed>
  <fix>3d</fix>
</trkpt>
<trkpt lat="-35.3629375" lon="149.1650857">
  <ele>586.53</ele>
  <time>2026-09-01T19:52:57Z</time>
  <course>164.27</course>
  <speed>0.03</speed>
  <fix>3d</fix>
</trkpt>
<trkpt lat="-35.3629377" lon="149.1650854">
  <ele>586.23</ele>
  <time>2026-09-01T19:52:57Z</time>
  <course>89.25</course>
  <speed>0.0412310562561766</speed>
  <fix>3d</fix>
</trkpt>
<trkpt lat="-35.3629376" lon="149.1650857">
  <ele>586.43</ele>
  <time>2026-09-01T19:52:57Z</time>
  <course>161.9</course>
  <speed>0.03</speed>
  <fix>3d</fix>
</trkpt>
<trkpt lat="-35.3629378" lon="149.1650854">
  <ele>586.18</ele>
  <time>2026-09-01T19:52:57Z</time>
  <course>89.24</course>
  <speed>0.0412310562561766</speed>
  <fix>3d</fix>
</trkpt>
<trkpt lat="-35.3629376" lon="149.1650857">
  <ele>586.43</ele>
  <time>2026-09-01T19:52:57Z</time>
  <course>161.9</course>
  <speed>0.03</speed>
  <fix>3d</fix>
</trkpt>
<trkpt lat="-35.3629378" lon="149.1650854">
  <ele>586.13</ele>
  <time>2026-09-01T19:52:57Z</time>
  <course>89.24</course>
  <speed>0.0316227766016838</speed>
  <fix>3d</fix>
</trkpt>
<trkpt lat="-35.3629376" lon="149.1650857">
  <ele>586.33</ele>
  <time>2026-09-01T19:52:57Z</time>
  <course>159.98</course>
  <speed>0.02</speed>
  <fix>3d</fix>
</trkpt>
<trkpt lat="-35.3629378" lon="149.1650854">
  <ele>586.08</ele>
  <time>2026-09-01T19:52:57Z</time>
  <course>89.24</course>
  <speed>0.03605551275463989</speed>
  <fix>3d</fix>
</trkpt>
<trkpt lat="-35.3629376" lon="149.1650857">
  <ele>586.33</ele>
  <time>2026-09-01T19:52:57Z</time>
  <course>159.98</course>
  <speed>0.02</speed>
  <fix>3d</fix>
</trkpt>
<trkpt lat="-35.3629378" lon="149.1650854">
  <ele>586.03</ele>
  <time>2026-09-01T19:52:57Z</time>
  <course>89.25</course>
  <speed>0.03605551275463989</speed>
  <fix>3d</fix>
</trkpt>
<trkpt lat="-35.3629377" lon="149.1650857">
  <ele>586.23</ele>
  <time>2026-09-01T19:52:57Z</time>
  <course>158.37</course>
  <speed>0.02</speed>
  <fix>3d</fix>
</trkpt>
<trkpt lat="-35.3629378" lon="149.1650854">
  <ele>585.98</ele>
  <time>2026-09-01T19:52:57Z</time>
  <course>89.25</course>
  <speed>0.03605551275463989</speed>
  <fix>3d</fix>
</trkpt>
<trkpt lat="-35.3629377" lon="149.1650857">
  <ele>586.23</ele>
  <time>2026-09-01T19:52:57Z</time>
  <course>158.37</course>
  <speed>0.02</speed>
  <fix>3d</fix>
</trkpt>
<trkpt lat="-35.3629378" lon="149.1650854">
  <ele>585.93</ele>
  <time>2026-09-01T19:52:57Z</time>
  <course>89.24</course>
  <speed>0.03605551275463989</speed>
  <fix>3d</fix>
</trkpt>
<trkpt lat="-35.3629378" lon="149.1650857">
  <ele>586.13</ele>
  <time>2026-09-01T19:52:57Z</time>
  <course>155.81</course>
  <speed>0.01</speed>
  <fix>3d</fix>
</trkpt>
<trkpt lat="-35.3629379" lon="149.1650855">
  <ele>585.88</ele>
  <time>2026-09-01T19:52:57Z</time>
  <course>89.24</course>
  <speed>0.0282842712474619</speed>
  <fix>3d</fix>
</trkpt>
<trkpt lat="-35.3629378" lon="149.1650857">
  <ele>586.13</ele>
  <time>2026-09-01T19:52:57Z</time>
  <course>155.81</course>
  <speed>0.01</speed>
  <fix>3d</fix>
</trkpt>
<trkpt lat="-35.3629379" lon="149.1650855">
  <ele>585.83</ele>
  <time>2026-09-01T19:52:57Z</time>
  <course>89.24</course>
  <speed>0.0282842712474619</speed>
  <fix>3d</fix>
</trkpt>
<trkpt lat="-35.3629378" lon="149.1650857">
  <ele>586.03</ele>
  <time>2026-09-01T19:52:57Z</time>
  <course>151.01</course>
  <speed>0.01</speed>
  <fix>3d</fix>
</trkpt>
<trkpt lat="-35.3629379" lon="149.1650855">
  <ele>585.78</ele>
  <time>2026-09-01T19:52:57Z</time>
  <course>89.23</course>
  <speed>0.0282842712474619</speed>
  <fix>3d</fix>
</trkpt>
<trkpt lat="-35.3629378" lon="149.1650857">
  <ele>586.03</ele>
  <time>2026-09-01T19:52:57Z</time>
  <course>151.01</course>
  <speed>0.01</speed>
  <fix>3d</fix>
</trkpt>
<trkpt lat="-35.3629379" lon="149.1650855">
  <ele>585.73</ele>
  <time>2026-09-01T19:52:57Z</time>
  <course>89.22</course>
  <speed>0.0282842712474619</speed>
  <fix>3d</fix>
</trkpt>
<trkpt lat="-35.3629378" lon="149.1650857">
  <ele>585.93</ele>
  <time>2026-09-01T19:52:57Z</time>
  <course>142.8</course>
  <speed>0.01</speed>
  <fix>3d</fix>
</trkpt>
<trkpt lat="-35.3629379" lon="149.1650855">
  <ele>585.68</ele>
  <time>2026-09-01T19:52:57Z</time>
  <course>89.21</course>
  <speed>0.0282842712474619</speed>
  <fix>3d</fix>
</trkpt>
<trkpt lat="-35.3629378" lon="149.1650857">
  <ele>585.93</ele>
  <time>2026-09-01T19:52:57Z</time>
  <course>142.8</course>
  <speed>0.01</speed>
  <fix>3d</fix>
</trkpt>
<trkpt lat="-35.3629379" lon="149.1650855">
  <ele>585.63</ele>
  <time>2026-09-01T19:52:57Z</time>
  <course>89.19</course>
  <speed>0.0282842712474619</speed>
  <fix>3d</fix>
</trkpt>
<trkpt lat="-35.3629378" lon="149.1650857">
  <ele>585.83</ele>
  <time>2026-09-01T19:52:57Z</time>
  <course>129.31</course>
  <speed>0.01</speed>
  <fix>3d</fix>
</trkpt>
<trkpt lat="-35.3629379" lon="149.1650855">
  <ele>585.58</ele>
  <time>2026-09-01T19:52:57Z</time>
  <course>89.16</course>
  <speed>0.0282842712474619</speed>
  <fix>3d</fix>
</trkpt>
<trkpt lat="-35.3629378" lon="149.1650857">
  <ele>585.83</ele>
  <time>2026-09-01T19:52:57Z</time>
  <course>129.31</course>
  <speed>0.01</speed>
  <fix>3d</fix>
</trkpt>
<trkpt lat="-35.3629379" lon="149.1650855">
  <ele>585.53</ele>
  <time>2026-09-01T19:52:57Z</time>
  <course>89.13</course>
  <speed>0.0282842712474619</speed>
  <fix>3d</fix>
</trkpt>
<trkpt lat="-35.3629378" lon="149.1650857">
  <ele>585.73</ele>
  <time>2026-09-01T19:52:57Z</time>
  <course>112.21</course>
  <speed>0.0</speed>
  <fix>3d</fix>
</trkpt>
<trkpt lat="-35.3629379" lon="149.1650855">
  <ele>585.48</ele>
  <time>2026-09-01T19:52:57Z</time>
  <course>89.09</course>
  <speed>0.0282842712474619</speed>
  <fix>3d</fix>
</trkpt>
<trkpt lat="-35.3629378" lon="149.1650857">
  <ele>585.73</ele>
  <time>2026-09-01T19:52:57Z</time>
  <course>112.21</course>
  <speed>0.0</speed>
  <fix>3d</fix>
</trkpt>
<trkpt lat="-35.3629379" lon="149.1650855">
  <ele>585.43</ele>
  <time>2026-09-01T19:52:57Z</time>
  <course>89.07</course>
  <speed>0.022360679774997897</speed>
  <fix>3d</fix>
</trkpt>
<trkpt lat="-35.3629379" lon="149.1650858">
  <ele>585.63</ele>
  <time>2026-09-01T19:52:57Z</time>
  <course>100.5</course>
  <speed>0.0</speed>
  <fix>3d</fix>
</trkpt>
<trkpt lat="-35.3629379" lon="149.1650855">
  <ele>585.38</ele>
  <time>2026-09-01T19:52:57Z</time>
  <course>89.06</course>
  <speed>0.022360679774997897</speed>
  <fix>3d</fix>
</trkpt>
<trkpt lat="-35.3629379" lon="149.1650858">
  <ele>585.63</ele>
  <time>2026-09-01T19:52:57Z</time>
  <course>100.5</course>
  <speed>0.0</speed>
  <fix>3d</fix>
</trkpt>
<trkpt lat="-35.3629379" lon="149.1650855">
  <ele>585.33</ele>
  <time>2026-09-01T19:52:57Z</time>
  <course>89.05</course>
  <speed>0.022360679774997897</speed>
  <fix>3d</fix>
</trkpt>
<trkpt lat="-35.3629379" lon="149.1650858">
  <ele>585.53</ele>
  <time>2026-09-01T19:52:57Z</time>
  <course>93.73</course>
  <speed>0.0</speed>
  <fix>3d</fix>
</trkpt>
<trkpt lat="-35.3629379" lon="149.1650855">
  <ele>585.28</ele>
  <time>2026-09-01T19:52:57Z</time>
  <course>89.05</course>
  <speed>0.022360679774997897</speed>
  <fix>3d</fix>
</trkpt>
<trkpt lat="-35.3629379" lon="149.1650858">
  <ele>585.53</ele>
  <time>2026-09-01T19:52:57Z</time>
  <course>93.73</course>
  <speed>0.0</speed>
  <fix>3d</fix>
</trkpt>
<trkpt lat="-35.3629379" lon="149.1650855">
  <ele>585.23</ele>
  <time>2026-09-01T19:52:57Z</time>
  <course>89.05</course>
  <speed>0.022360679774997897</speed>
  <fix>3d</fix>
</trkpt>
<trkpt lat="-35.3629379" lon="149.1650858">
  <ele>585.43</ele>
  <time>2026-09-01T19:52:57Z</time>
  <course>84.95</course>
  <speed>0.0</speed>
  <fix>3d</fix>
</trkpt>
<trkpt lat="-35.3629379" lon="149.1650855">
  <ele>585.18</ele>
  <time>2026-09-01T19:52:57Z</time>
  <course>89.04</course>
  <speed>0.022360679774997897</speed>
  <fix>3d</fix>
</trkpt>
<trkpt lat="-35.3629379" lon="149.1650858">
  <ele>585.43</ele>
  <time>2026-09-01T19:52:57Z</time>
  <course>84.95</course>
  <speed>0.0</speed>
  <fix>3d</fix>
</trkpt>
<trkpt lat="-35.3629379" lon="149.1650855">
  <ele>585.13</ele>
  <time>2026-09-01T19:52:57Z</time>
  <course>89.03</course>
  <speed>0.022360679774997897</speed>
  <fix>3d</fix>
</trkpt>
<trkpt lat="-35.3629379" lon="149.1650858">
  <ele>585.33</ele>
  <time>2026-09-01T19:52:57Z</time>
  <course>74.21</course>
  <speed>0.0</speed>
  <fix>3d</fix>
</trkpt>
<trkpt lat="-35.3629379" lon="149.1650855">
  <ele>585.08</ele>
  <time>2026-09-01T19:52:57Z</time>
  <course>89.01</course>
  <speed>0.022360679774997897</speed>
  <fix>3d</fix>
</trkpt>
<trkpt lat="-35.3629379" lon="149.1650858">
  <ele>585.33</ele>
  <time>2026-09-01T19:52:57Z</time>
  <course>74.21</course>
  <speed>0.0</speed>
  <fix>3d</fix>
</trkpt>
<trkpt lat="-35.3629379" lon="149.1650855">
  <ele>585.03</ele>
  <time>2026-09-01T19:52:57Z</time>
  <course>89.0</course>
  <speed>0.022360679774997897</speed>
  <fix>3d</fix>
</trkpt>
<trkpt lat="-35.3629379" lon="149.1650859">
  <ele>585.23</ele>
  <time>2026-09-01T19:52:57Z</time>
  <course>65.33</course>
  <speed>0.01</speed>
  <fix>3d</fix>
</trkpt>
<trkpt lat="-35.362938" lon="149.1650855">
  <ele>584.99</ele>
  <time>2026-09-01T19:52:57Z</time>
  <course>88.99</course>
  <speed>0.022360679774997897</speed>
  <fix>3d</fix>
</trkpt>
<trkpt lat="-35.3629379" lon="149.1650859">
  <ele>585.23</ele>
  <time>2026-09-01T19:52:57Z</time>
  <course>65.33</course>
  <speed>0.01</speed>
  <fix>3d</fix>
</trkpt>
<trkpt lat="-35.362938" lon="149.1650855">
  <ele>584.97</ele>
  <time>2026-09-01T19:52:57Z</time>
  <course>88.99</course>
  <speed>0.03605551275463989</speed>
  <fix>3d</fix>
</trkpt>
<trkpt lat="-35.3629379" lon="149.165086">
  <ele>585.13</ele>
  <time>2026-09-01T19:52:57Z</time>
  <course>59.79</course>
  <speed>0.0</speed>
  <fix>3d</fix>
</trkpt>
<trkpt lat="-35.362938" lon="149.1650856">
  <ele>584.99</ele>
  <time>2026-09-01T19:52:57Z</time>
  <course>88.99</course>
  <speed>0.03605551275463989</speed>
  <fix>3d</fix>
</trkpt>
<trkpt lat="-35.3629379" lon="149.165086">
  <ele>585.13</ele>
  <time>2026-09-01T19:52:57Z</time>
  <course>59.79</course>
  <speed>0.0</speed>
  <fix>3d</fix>
</trkpt>
<trkpt lat="-35.362938" lon="149.1650856">
  <ele>585.0</ele>
  <time>2026-09-01T19:52:57Z</time>
  <course>88.99</course>
  <speed>0.03605551275463989</speed>
  <fix>3d</fix>
</trkpt>
<trkpt lat="-35.3629379" lon="149.165086">
  <ele>585.08</ele>
  <time>2026-09-01T19:52:57Z</time>
  <course>57.13</course>
  <speed>0.0</speed>
  <fix>3d</fix>
</trkpt>
<trkpt lat="-35.362938" lon="149.1650856">
  <ele>585.0</ele>
  <time>2026-09-01T19:52:57Z</time>
  <course>88.99</course>
  <speed>0.0282842712474619</speed>
  <fix>3d</fix>
</trkpt>
<trkpt lat="-35.3629379" lon="149.165086">
  <ele>585.08</ele>
  <time>2026-09-01T19:52:57Z</time>
  <course>57.13</course>
  <speed>0.0</speed>
  <fix>3d</fix>
</trkpt>
<trkpt lat="-35.362938" lon="149.1650856">
  <ele>585.0</ele>
  <time>2026-09-01T19:52:57Z</time>
  <course>88.99</course>
  <speed>0.0282842712474619</speed>
  <fix>3d</fix>
</trkpt>
<trkpt lat="-35.3629379" lon="149.165086">
  <ele>585.08</ele>
  <time>2026-09-01T19:52:57Z</time>
  <course>237.12</course>
  <speed>0.0</speed>
  <fix>3d</fix>
</trkpt>
<trkpt lat="-35.362938" lon="149.1650856">
  <ele>584.99</ele>
  <time>2026-09-01T19:52:57Z</time>
  <course>88.99</course>
  <speed>0.0282842712474619</speed>
  <fix>3d</fix>
</trkpt>
<trkpt lat="-35.3629379" lon="149.165086">
  <ele>585.08</ele>
  <time>2026-09-01T19:52:57Z</time>
  <course>237.12</course>
  <speed>0.0</speed>
  <fix>3d</fix>
</trkpt>
<trkpt lat="-35.362938" lon="149.1650856">
  <ele>584.99</ele>
  <time>2026-09-01T19:52:57Z</time>
  <course>88.99</course>
  <speed>0.0282842712474619</speed>
  <fix>3d</fix>
</trkpt>
<trkpt lat="-35.3629379" lon="149.165086">
  <ele>585.1</ele>
  <time>2026-09-01T19:52:57Z</time>
  <course>237.12</course>
  <speed>0.0</speed>
  <fix>3d</fix>
</trkpt>
<trkpt lat="-35.362938" lon="149.1650856">
  <ele>584.99</ele>
  <time>2026-09-01T19:52:57Z</time>
  <course>88.99</course>
  <speed>0.0282842712474619</speed>
  <fix>3d</fix>
</trkpt>
<trkpt lat="-35.3629379" lon="149.165086">
  <ele>585.1</ele>
  <time>2026-09-01T19:52:57Z</time>
  <course>237.12</course>
  <speed>0.0</speed>
  <fix>3d</fix>
</trkpt>
<trkpt lat="-35.362938" lon="149.1650856">
  <ele>584.99</ele>
  <time>2026-09-01T19:52:57Z</time>
  <course>88.99</course>
  <speed>0.0282842712474619</speed>
  <fix>3d</fix>
</trkpt>
<trkpt lat="-35.3629379" lon="149.165086">
  <ele>585.09</ele>
  <time>2026-09-01T19:52:57Z</time>
  <course>57.14</course>
  <speed>0.0</speed>
  <fix>3d</fix>
</trkpt>
<trkpt lat="-35.362938" lon="149.1650856">
  <ele>584.99</ele>
  <time>2026-09-01T19:52:57Z</time>
  <course>88.99</course>
  <speed>0.0282842712474619</speed>
  <fix>3d</fix>
</trkpt>
<trkpt lat="-35.3629379" lon="149.165086">
  <ele>585.09</ele>
  <time>2026-09-01T19:52:57Z</time>
  <course>57.14</course>
  <speed>0.0</speed>
  <fix>3d</fix>
</trkpt>
<trkpt lat="-35.362938" lon="149.1650856">
  <ele>584.99</ele>
  <time>2026-09-01T19:52:57Z</time>
  <course>88.99</course>
  <speed>0.0282842712474619</speed>
  <fix>3d</fix>
</trkpt>
<trkpt lat="-35.3629379" lon="149.165086">
  <ele>585.09</ele>
  <time>2026-09-01T19:52:57Z</time>
  <course>236.74</course>
  <speed>0.0</speed>
  <fix>3d</fix>
</trkpt>
<trkpt lat="-35.362938" lon="149.1650856">
  <ele>584.99</ele>
  <time>2026-09-01T19:52:57Z</time>
  <course>88.99</course>
  <speed>0.0282842712474619</speed>
  <fix>3d</fix>
</trkpt>
<trkpt lat="-35.3629379" lon="149.165086">
  <ele>585.09</ele>
  <time>2026-09-01T19:52:57Z</time>
  <course>236.74</course>
  <speed>0.0</speed>
  <fix>3d</fix>
</trkpt>
<trkpt lat="-35.362938" lon="149.1650856">
  <ele>584.99</ele>
  <time>2026-09-01T19:52:57Z</time>
  <course>88.99</course>
  <speed>0.0282842712474619</speed>
  <fix>3d</fix>
</trkpt>
<trkpt lat="-35.3629379" lon="149.165086">
  <ele>585.09</ele>
  <time>2026-09-01T19:52:57Z</time>
  <course>236.83</course>
  <speed>0.0</speed>
  <fix>3d</fix>
</trkpt>
<trkpt lat="-35.362938" lon="149.1650856">
  <ele>584.99</ele>
  <time>2026-09-01T19:52:57Z</time>
  <course>89.0</course>
  <speed>0.0282842712474619</speed>
  <fix>3d</fix>
</trkpt>
<trkpt lat="-35.3629379" lon="149.165086">
  <ele>585.09</ele>
  <time>2026-09-01T19:52:57Z</time>
  <course>236.83</course>
  <speed>0.0</speed>
  <fix>3d</fix>
</trkpt>
<trkpt lat="-35.362938" lon="149.1650856">
  <ele>584.99</ele>
  <time>2026-09-01T19:52:57Z</time>
  <course>89.0</course>
  <speed>0.0282842712474619</speed>
  <fix>3d</fix>
</trkpt>
<trkpt lat="-35.3629379" lon="149.165086">
  <ele>585.09</ele>
  <time>2026-09-01T19:52:57Z</time>
  <course>58.29</course>
  <speed>0.0</speed>
  <fix>3d</fix>
</trkpt>
<trkpt lat="-35.362938" lon="149.1650856">
  <ele>584.99</ele>
  <time>2026-09-01T19:52:57Z</time>
  <course>89.0</course>
  <speed>0.0282842712474619</speed>
  <fix>3d</fix>
</trkpt>
<trkpt lat="-35.3629379" lon="149.165086">
  <ele>585.09</ele>
  <time>2026-09-01T19:52:57Z</time>
  <course>58.29</course>
  <speed>0.0</speed>
  <fix>3d</fix>
</trkpt>
<trkpt lat="-35.362938" lon="149.1650856">
  <ele>585.0</ele>
  <time>2026-09-01T19:52:57Z</time>
  <course>89.0</course>
  <speed>0.0282842712474619</speed>
  <fix>3d</fix>
</trkpt>
<trkpt lat="-35.3629379" lon="149.165086">
  <ele>585.09</ele>
  <time>2026-09-01T19:52:57Z</time>
  <course>58.25</course>
  <speed>0.0</speed>
  <fix>3d</fix>
</trkpt>
<trkpt lat="-35.362938" lon="149.1650856">
  <ele>585.0</ele>
  <time>2026-09-01T19:52:57Z</time>
  <course>89.0</course>
  <speed>0.0282842712474619</speed>
  <fix>3d</fix>
</trkpt>
<trkpt lat="-35.3629379" lon="149.165086">
  <ele>585.09</ele>
  <time>2026-09-01T19:52:57Z</time>
  <course>58.25</course>
  <speed>0.0</speed>
  <fix>3d</fix>
</trkpt>
<trkpt lat="-35.362938" lon="149.1650856">
  <ele>585.0</ele>
  <time>2026-09-01T19:52:57Z</time>
  <course>89.0</course>
  <speed>0.0282842712474619</speed>
  <fix>3d</fix>
</trkpt>
<trkpt lat="-35.3629379" lon="149.165086">
  <ele>585.09</ele>
  <time>2026-09-01T19:52:57Z</time>
  <course>233.93</course>
  <speed>0.0</speed>
  <fix>3d</fix>
</trkpt>
<trkpt lat="-35.362938" lon="149.1650856">
  <ele>585.0</ele>
  <time>2026-09-01T19:52:57Z</time>
  <course>89.0</course>
  <speed>0.0282842712474619</speed>
  <fix>3d</fix>
</trkpt>
<trkpt lat="-35.3629379" lon="149.165086">
  <ele>585.09</ele>
  <time>2026-09-01T19:52:57Z</time>
  <course>233.93</course>
  <speed>0.0</speed>
  <fix>3d</fix>
</trkpt>
<trkpt lat="-35.362938" lon="149.1650856">
  <ele>585.0</ele>
  <time>2026-09-01T19:52:57Z</time>
  <course>89.0</course>
  <speed>0.0282842712474619</speed>
  <fix>3d</fix>
</trkpt>
<trkpt lat="-35.3629379" lon="149.165086">
  <ele>585.09</ele>
  <time>2026-09-01T19:52:57Z</time>
  <course>220.83</course>
  <speed>0.0</speed>
  <fix>3d</fix>
</trkpt>
<trkpt lat="-35.362938" lon="149.1650857">
  <ele>585.0</ele>
  <time>2026-09-01T19:52:57Z</time>
  <course>89.0</course>
  <speed>0.0282842712474619</speed>
  <fix>3d</fix>
</trkpt>
<trkpt lat="-35.3629379" lon="149.165086">
  <ele>585.09</ele>
  <time>2026-09-01T19:52:57Z</time>
  <course>220.83</course>
  <speed>0.0</speed>
  <fix>3d</fix>
</trkpt>
<trkpt lat="-35.362938" lon="149.1650857">
  <ele>585.0</ele>
  <time>2026-09-01T19:52:57Z</time>
  <course>89.0</course>
  <speed>0.0282842712474619</speed>
  <fix>3d</fix>
</trkpt>
<trkpt lat="-35.3629379" lon="149.165086">
  <ele>585.09</ele>
  <time>2026-09-01T19:52:57Z</time>
  <course>85.37</course>
  <speed>0.0</speed>
  <fix>3d</fix>
</trkpt>
<trkpt lat="-35.362938" lon="149.1650857">
  <ele>585.0</ele>
  <time>2026-09-01T19:52:57Z</time>
  <course>89.0</course>
  <speed>0.0282842712474619</speed>
  <fix>3d</fix>
</trkpt>
<trkpt lat="-35.3629379" lon="149.165086">
  <ele>585.09</ele>
  <time>2026-09-01T19:52:57Z</time>
  <course>85.37</course>
  <speed>0.0</speed>
  <fix>3d</fix>
</trkpt>
<trkpt lat="-35.362938" lon="149.1650857">
  <ele>585.0</ele>
  <time>2026-09-01T19:52:57Z</time>
  <course>89.0</course>
  <speed>0.0282842712474619</speed>
  <fix>3d</fix>
</trkpt>
<trkpt lat="-35.3629379" lon="149.165086">
  <ele>585.09</ele>
  <time>2026-09-01T19:52:57Z</time>
  <course>272.21</course>
  <speed>0.0</speed>
  <fix>3d</fix>
</trkpt>
<trkpt lat="-35.362938" lon="149.1650857">
  <ele>584.99</ele>
  <time>2026-09-01T19:52:57Z</time>
  <course>89.0</course>
  <speed>0.0282842712474619</speed>
  <fix>3d</fix>
</trkpt>
<trkpt lat="-35.3629379" lon="149.165086">
  <ele>585.09</ele>
  <time>2026-09-01T19:52:57Z</time>
  <course>272.21</course>
  <speed>0.0</speed>
  <fix>3d</fix>
</trkpt>
<trkpt lat="-35.362938" lon="149.1650857">
  <ele>584.99</ele>
  <time>2026-09-01T19:52:57Z</time>
  <course>89.0</course>
  <speed>0.0282842712474619</speed>
  <fix>3d</fix>
</trkpt>
<trkpt lat="-35.3629379" lon="149.165086">
  <ele>585.09</ele>
  <time>2026-09-01T19:52:57Z</time>
  <course>283.9</course>
  <speed>0.0</speed>
  <fix>3d</fix>
</trkpt>
<trkpt lat="-35.362938" lon="149.1650857">
  <ele>584.99</ele>
  <time>2026-09-01T19:52:57Z</time>
  <course>89.0</course>
  <speed>0.0282842712474619</speed>
  <fix>3d</fix>
</trkpt>
<trkpt lat="-35.3629379" lon="149.165086">
  <ele>585.09</ele>
  <time>2026-09-01T19:52:57Z</time>
  <course>283.9</course>
  <speed>0.0</speed>
  <fix>3d</fix>
</trkpt>
<trkpt lat="-35.362938" lon="149.1650857">
  <ele>584.99</ele>
  <time>2026-09-01T19:52:57Z</time>
  <course>89.0</course>
  <speed>0.0282842712474619</speed>
  <fix>3d</fix>
</trkpt>
<trkpt lat="-35.3629379" lon="149.165086">
  <ele>585.09</ele>
  <time>2026-09-01T19:52:57Z</time>
  <course>281.42</course>
  <speed>0.0</speed>
  <fix>3d</fix>
</trkpt>
<trkpt lat="-35.362938" lon="149.1650857">
  <ele>585.0</ele>
  <time>2026-09-01T19:52:57Z</time>
  <course>89.0</course>
  <speed>0.0282842712474619</speed>
  <fix>3d</fix>
</trkpt>
<trkpt lat="-35.3629379" lon="149.165086">
  <ele>585.09</ele>
  <time>2026-09-01T19:52:57Z</time>
  <course>281.42</course>
  <speed>0.0</speed>
  <fix>3d</fix>
</trkpt>
<trkpt lat="-35.362938" lon="149.1650857">
  <ele>585.0</ele>
  <time>2026-09-01T19:52:57Z</time>
  <course>89.0</course>
  <speed>0.0282842712474619</speed>
  <fix>3d</fix>
</trkpt>
<trkpt lat="-35.3629379" lon="149.165086">
  <ele>585.09</ele>
  <time>2026-09-01T19:52:57Z</time>
  <course>253.35</course>
  <speed>0.0</speed>
  <fix>3d</fix>
</trkpt>
<trkpt lat="-35.362938" lon="149.1650857">
  <ele>585.0</ele>
  <time>2026-09-01T19:52:57Z</time>
  <course>89.0</course>
  <speed>0.0282842712474619</speed>
  <fix>3d</fix>
</trkpt>
<trkpt lat="-35.3629379" lon="149.165086">
  <ele>585.09</ele>
  <time>2026-09-01T19:52:57Z</time>
  <course>253.35</course>
  <speed>0.0</speed>
  <fix>3d</fix>
</trkpt>
<trkpt lat="-35.362938" lon="149.1650857">
  <ele>584.99</ele>
  <time>2026-09-01T19:52:57Z</time>
  <course>89.0</course>
  <speed>0.0282842712474619</speed>
  <fix>3d</fix>
</trkpt>
<trkpt lat="-35.3629379" lon="149.165086">
  <ele>585.09</ele>
  <time>2026-09-01T19:52:57Z</time>
  <course>230.1</course>
  <speed>0.0</speed>
  <fix>3d</fix>
</trkpt>
<trkpt lat="-35.362938" lon="149.1650857">
  <ele>584.99</ele>
  <time>2026-09-01T19:52:57Z</time>
  <course>89.0</course>
  <speed>0.0282842712474619</speed>
  <fix>3d</fix>
</trkpt>
<trkpt lat="-35.3629379" lon="149.165086">
  <ele>585.09</ele>
  <time>2026-09-01T19:52:57Z</time>
  <course>230.1</course>
  <speed>0.0</speed>
  <fix>3d</fix>
</trkpt>
<trkpt lat="-35.362938" lon="149.1650857">
  <ele>584.99</ele>
  <time>2026-09-01T19:52:57Z</time>
  <course>89.0</course>
  <speed>0.0282842712474619</speed>
  <fix>3d</fix>
</trkpt>
<trkpt lat="-35.3629379" lon="149.165086">
  <ele>585.09</ele>
  <time>2026-09-01T19:52:57Z</time>
  <course>224.79</course>
  <speed>0.0</speed>
  <fix>3d</fix>
</trkpt>
<trkpt lat="-35.362938" lon="149.1650857">
  <ele>584.99</ele>
  <time>2026-09-01T19:52:57Z</time>
  <course>89.0</course>
  <speed>0.0282842712474619</speed>
  <fix>3d</fix>
</trkpt>
<trkpt lat="-35.3629379" lon="149.165086">
  <ele>585.09</ele>
  <time>2026-09-01T19:52:57Z</time>
  <course>224.79</course>
  <speed>0.0</speed>
  <fix>3d</fix>
</trkpt>
<trkpt lat="-35.362938" lon="149.1650857">
  <ele>584.99</ele>
  <time>2026-09-01T19:52:57Z</time>
  <course>89.0</course>
  <speed>0.0282842712474619</speed>
  <fix>3d</fix>
</trkpt>
<trkpt lat="-35.3629379" lon="149.165086">
  <ele>585.09</ele>
  <time>2026-09-01T19:52:57Z</time>
  <course>232.74</course>
  <speed>0.0</speed>
  <fix>3d</fix>
</trkpt>
<trkpt lat="-35.362938" lon="149.1650857">
  <ele>584.99</ele>
  <time>2026-09-01T19:52:57Z</time>
  <course>89.0</course>
  <speed>0.0282842712474619</speed>
  <fix>3d</fix>
</trkpt>
<trkpt lat="-35.3629379" lon="149.165086">
  <ele>585.09</ele>
  <time>2026-09-01T19:52:57Z</time>
  <course>232.74</course>
  <speed>0.0</speed>
  <fix>3d</fix>
</trkpt>
<trkpt lat="-35.362938" lon="149.1650857">
  <ele>584.99</ele>
  <time>2026-09-01T19:52:57Z</time>
  <course>89.0</course>
  <speed>0.0282842712474619</speed>
  <fix>3d</fix>
</trkpt>
<trkpt lat="-35.3629379" lon="149.165086">
  <ele>585.09</ele>
  <time>2026-09-01T19:52:57Z</time>
  <course>237.73</course>
  <speed>0.0</speed>
  <fix>3d</fix>
</trkpt>
<trkpt lat="-35.362938" lon="149.1650857">
  <ele>584.99</ele>
  <time>2026-09-01T19:52:57Z</time>
  <course>89.0</course>
  <speed>0.0282842712474619</speed>
  <fix>3d</fix>
</trkpt>
<trkpt lat="-35.3629379" lon="149.165086">
  <ele>585.09</ele>
  <time>2026-09-01T19:52:57Z</time>
  <course>237.73</course>
  <speed>0.0</speed>
  <fix>3d</fix>
</trkpt>
<trkpt lat="-35.362938" lon="149.1650857">
  <ele>584.99</ele>
  <time>2026-09-01T19:52:57Z</time>
  <course>89.0</course>
  <speed>0.0282842712474619</speed>
  <fix>3d</fix>
</trkpt>
<trkpt lat="-35.3629379" lon="149.165086">
  <ele>585.09</ele>
  <time>2026-09-01T19:52:57Z</time>
  <course>225.17</course>
  <speed>0.0</speed>
  <fix>3d</fix>
</trkpt>
<trkpt lat="-35.362938" lon="149.1650857">
  <ele>584.99</ele>
  <time>2026-09-01T19:52:57Z</time>
  <course>89.0</course>
  <speed>0.0282842712474619</speed>
  <fix>3d</fix>
</trkpt>
<trkpt lat="-35.3629379" lon="149.165086">
  <ele>585.09</ele>
  <time>2026-09-01T19:52:57Z</time>
  <course>225.17</course>
  <speed>0.0</speed>
  <fix>3d</fix>
</trkpt>
<trkpt lat="-35.362938" lon="149.1650857">
  <ele>584.99</ele>
  <time>2026-09-01T19:52:57Z</time>
  <course>89.0</course>
  <speed>0.0282842712474619</speed>
  <fix>3d</fix>
</trkpt>
<trkpt lat="-35.3629379" lon="149.165086">
  <ele>585.09</ele>
  <time>2026-09-01T19:52:57Z</time>
  <course>212.45</course>
  <speed>0.0</speed>
  <fix>3d</fix>
</trkpt>
<trkpt lat="-35.362938" lon="149.1650857">
  <ele>584.99</ele>
  <time>2026-09-01T19:52:57Z</time>
  <course>89.0</course>
  <speed>0.0282842712474619</speed>
  <fix>3d</fix>
</trkpt>
<trkpt lat="-35.3629379" lon="149.165086">
  <ele>585.09</ele>
  <time>2026-09-01T19:52:57Z</time>
  <course>212.45</course>
  <speed>0.0</speed>
  <fix>3d</fix>
</trkpt>
<trkpt lat="-35.362938" lon="149.1650857">
  <ele>584.99</ele>
  <time>2026-09-01T19:52:57Z</time>
  <course>89.0</course>
  <speed>0.0282842712474619</speed>
  <fix>3d</fix>
</trkpt>
<trkpt lat="-35.3629379" lon="149.165086">
  <ele>585.09</ele>
  <time>2026-09-01T19:52:57Z</time>
  <course>238.24</course>
  <speed>0.0</speed>
  <fix>3d</fix>
</trkpt>
<trkpt lat="-35.362938" lon="149.1650857">
  <ele>584.99</ele>
  <time>2026-09-01T19:52:57Z</time>
  <course>89.0</course>
  <speed>0.0282842712474619</speed>
  <fix>3d</fix>
</trkpt>
<trkpt lat="-35.3629379" lon="149.165086">
  <ele>585.09</ele>
  <time>2026-09-01T19:52:57Z</time>
  <course>238.24</course>
  <speed>0.0</speed>
  <fix>3d</fix>
</trkpt>
<trkpt lat="-35.362938" lon="149.1650857">
  <ele>584.99</ele>
  <time>2026-09-01T19:52:57Z</time>
  <course>89.0</course>
  <speed>0.0282842712474619</speed>
  <fix>3d</fix>
</trkpt>
<trkpt lat="-35.3629379" lon="149.165086">
  <ele>585.09</ele>
  <time>2026-09-01T19:52:57Z</time>
  <course>241.96</course>
  <speed>0.0</speed>
  <fix>3d</fix>
</trkpt>
<trkpt lat="-35.362938" lon="149.1650857">
  <ele>584.99</ele>
  <time>2026-09-01T19:52:57Z</time>
  <course>89.0</course>
  <speed>0.0282842712474619</speed>
  <fix>3d</fix>
</trkpt>
<trkpt lat="-35.3629379" lon="149.165086">
  <ele>585.09</ele>
  <time>2026-09-01T19:52:57Z</time>
  <course>241.96</course>
  <speed>0.0</speed>
  <fix>3d</fix>
</trkpt>
<trkpt lat="-35.362938" lon="149.1650857">
  <ele>584.99</ele>
  <time>2026-09-01T19:52:57Z</time>
  <course>89.0</course>
  <speed>0.0282842712474619</speed>
  <fix>3d</fix>
</trkpt>
<trkpt lat="-35.3629379" lon="149.165086">
  <ele>585.09</ele>
  <time>2026-09-01T19:52:57Z</time>
  <course>226.06</course>
  <speed>0.0</speed>
  <fix>3d</fix>
</trkpt>
<trkpt lat="-35.362938" lon="149.1650857">
  <ele>584.99</ele>
  <time>2026-09-01T19:52:57Z</time>
  <course>89.0</course>
  <speed>0.0282842712474619</speed>
  <fix>3d</fix>
</trkpt>
<trkpt lat="-35.3629379" lon="149.165086">
  <ele>585.09</ele>
  <time>2026-09-01T19:52:57Z</time>
  <course>226.06</course>
  <speed>0.0</speed>
  <fix>3d</fix>
</trkpt>
<trkpt lat="-35.362938" lon="149.1650857">
  <ele>584.99</ele>
  <time>2026-09-01T19:52:57Z</time>
  <course>89.0</course>
  <speed>0.0282842712474619</speed>
  <fix>3d</fix>
</trkpt>
<trkpt lat="-35.3629379" lon="149.165086">
  <ele>585.09</ele>
  <time>2026-09-01T19:52:57Z</time>
  <course>224.29</course>
  <speed>0.0</speed>
  <fix>3d</fix>
</trkpt>
<trkpt lat="-35.362938" lon="149.1650857">
  <ele>584.99</ele>
  <time>2026-09-01T19:52:57Z</time>
  <course>89.01</course>
  <speed>0.0282842712474619</speed>
  <fix>3d</fix>
</trkpt>
<trkpt lat="-35.3629379" lon="149.165086">
  <ele>585.09</ele>
  <time>2026-09-01T19:52:57Z</time>
  <course>224.29</course>
  <speed>0.0</speed>
  <fix>3d</fix>
</trkpt>
<trkpt lat="-35.362938" lon="149.1650857">
  <ele>584.99</ele>
  <time>2026-09-01T19:52:57Z</time>
  <course>89.01</course>
  <speed>0.0282842712474619</speed>
  <fix>3d</fix>
</trkpt>
<trkpt lat="-35.3629379" lon="149.165086">
  <ele>585.09</ele>
  <time>2026-09-01T19:52:57Z</time>
  <course>244.38</course>
  <speed>0.0</speed>
  <fix>3d</fix>
</trkpt>
<trkpt lat="-35.362938" lon="149.1650857">
  <ele>584.99</ele>
  <time>2026-09-01T19:52:57Z</time>
  <course>89.01</course>
  <speed>0.0282842712474619</speed>
  <fix>3d</fix>
</trkpt>
<trkpt lat="-35.3629379" lon="149.165086">
  <ele>585.09</ele>
  <time>2026-09-01T19:52:57Z</time>
  <course>244.38</course>
  <speed>0.0</speed>
  <fix>3d</fix>
</trkpt>
<trkpt lat="-35.362938" lon="149.1650857">
  <ele>585.0</ele>
  <time>2026-09-01T19:52:57Z</time>
  <course>89.01</course>
  <speed>0.0282842712474619</speed>
  <fix>3d</fix>
</trkpt>
<trkpt lat="-35.3629379" lon="149.165086">
  <ele>585.09</ele>
  <time>2026-09-01T19:52:57Z</time>
  <course>249.53</course>
  <speed>0.0</speed>
  <fix>3d</fix>
</trkpt>
<trkpt lat="-35.362938" lon="149.1650857">
  <ele>585.0</ele>
  <time>2026-09-01T19:52:57Z</time>
  <course>89.01</course>
  <speed>0.0282842712474619</speed>
  <fix>3d</fix>
</trkpt>
<trkpt lat="-35.3629379" lon="149.165086">
  <ele>585.09</ele>
  <time>2026-09-01T19:52:57Z</time>
  <course>249.53</course>
  <speed>0.0</speed>
  <fix>3d</fix>
</trkpt>
<trkpt lat="-35.362938" lon="149.1650857">
  <ele>585.0</ele>
  <time>2026-09-01T19:52:57Z</time>
  <course>89.01</course>
  <speed>0.022360679774997897</speed>
  <fix>3d</fix>
</trkpt>
<trkpt lat="-35.3629379" lon="149.165086">
  <ele>585.09</ele>
  <time>2026-09-01T19:52:57Z</time>
  <course>237.51</course>
  <speed>0.0</speed>
  <fix>3d</fix>
</trkpt>
<trkpt lat="-35.362938" lon="149.1650857">
  <ele>585.0</ele>
  <time>2026-09-01T19:52:57Z</time>
  <course>89.01</course>
  <speed>0.0282842712474619</speed>
  <fix>3d</fix>
</trkpt>
<trkpt lat="-35.3629379" lon="149.165086">
  <ele>585.09</ele>
  <time>2026-09-01T19:52:57Z</time>
  <course>237.51</course>
  <speed>0.0</speed>
  <fix>3d</fix>
</trkpt>
<trkpt lat="-35.362938" lon="149.1650857">
  <ele>585.0</ele>
  <time>2026-09-01T19:52:57Z</time>
  <course>89.01</course>
  <speed>0.022360679774997897</speed>
  <fix>3d</fix>
</trkpt>
<trkpt lat="-35.3629379" lon="149.165086">
  <ele>585.09</ele>
  <time>2026-09-01T19:52:57Z</time>
  <course>244.76</course>
  <speed>0.0</speed>
  <fix>3d</fix>
</trkpt>
<trkpt lat="-35.362938" lon="149.1650857">
  <ele>585.0</ele>
  <time>2026-09-01T19:52:57Z</time>
  <course>89.01</course>
  <speed>0.022360679774997897</speed>
  <fix>3d</fix>
</trkpt>
<trkpt lat="-35.3629379" lon="149.165086">
  <ele>585.09</ele>
  <time>2026-09-01T19:52:57Z</time>
  <course>244.76</course>
  <speed>0.0</speed>
  <fix>3d</fix>
</trkpt>
<trkpt lat="-35.362938" lon="149.1650857">
  <ele>585.0</ele>
  <time>2026-09-01T19:52:57Z</time>
  <course>89.01</course>
  <speed>0.022360679774997897</speed>
  <fix>3d</fix>
</trkpt>
<trkpt lat="-35.3629379" lon="149.165086">
  <ele>585.09</ele>
  <time>2026-09-01T19:52:57Z</time>
  <course>256.38</course>
  <speed>0.0</speed>
  <fix>3d</fix>
</trkpt>
<trkpt lat="-35.362938" lon="149.1650857">
  <ele>585.0</ele>
  <time>2026-09-01T19:52:57Z</time>
  <course>89.01</course>
  <speed>0.022360679774997897</speed>
  <fix>3d</fix>
</trkpt>
<trkpt lat="-35.3629379" lon="149.165086">
  <ele>585.09</ele>
  <time>2026-09-01T19:52:57Z</time>
  <course>256.38</course>
  <speed>0.0</speed>
  <fix>3d</fix>
</trkpt>
<trkpt lat="-35.362938" lon="149.1650857">
  <ele>585.0</ele>
  <time>2026-09-01T19:52:57Z</time>
  <course>89.01</course>
  <speed>0.022360679774997897</speed>
  <fix>3d</fix>
</trkpt>
<trkpt lat="-35.3629379" lon="149.165086">
  <ele>585.09</ele>
  <time>2026-09-01T19:52:57Z</time>
  <course>20.52</course>
  <speed>0.0</speed>
  <fix>3d</fix>
</trkpt>
<trkpt lat="-35.362938" lon="149.1650857">
  <ele>585.0</ele>
  <time>2026-09-01T19:52:57Z</time>
  <course>89.02</course>
  <speed>0.022360679774997897</speed>
  <fix>3d</fix>
</trkpt>
<trkpt lat="-35.3629379" lon="149.165086">
  <ele>585.09</ele>
  <time>2026-09-01T19:52:57Z</time>
  <course>20.52</course>
  <speed>0.0</speed>
  <fix>3d</fix>
</trkpt>
<trkpt lat="-35.362938" lon="149.1650857">
  <ele>585.0</ele>
  <time>2026-09-01T19:52:57Z</time>
  <course>89.02</course>
  <speed>0.022360679774997897</speed>
  <fix>3d</fix>
</trkpt>
<trkpt lat="-35.3629379" lon="149.165086">
  <ele>585.09</ele>
  <time>2026-09-01T19:52:57Z</time>
  <course>23.31</course>
  <speed>0.0</speed>
  <fix>3d</fix>
</trkpt>
<trkpt lat="-35.362938" lon="149.1650857">
  <ele>585.0</ele>
  <time>2026-09-01T19:52:57Z</time>
  <course>89.03</course>
  <speed>0.022360679774997897</speed>
  <fix>3d</fix>
</trkpt>
<trkpt lat="-35.3629379" lon="149.165086">
  <ele>585.09</ele>
  <time>2026-09-01T19:52:57Z</time>
  <course>23.31</course>
  <speed>0.0</speed>
  <fix>3d</fix>
</trkpt>
<trkpt lat="-35.362938" lon="149.1650857">
  <ele>585.08</ele>
  <time>2026-09-01T19:52:57Z</time>
  <course>89.03</course>
  <speed>0.022360679774997897</speed>
  <fix>3d</fix>
</trkpt>
<trkpt lat="-35.3629379" lon="149.165086">
  <ele>585.09</ele>
  <time>2026-09-01T19:52:57Z</time>
  <course>23.28</course>
  <speed>0.0</speed>
  <fix>3d</fix>
</trkpt>
<trkpt lat="-35.362938" lon="149.1650857">
  <ele>585.07</ele>
  <time>2026-09-01T19:52:57Z</time>
  <course>89.04</course>
  <speed>0.022360679774997897</speed>
  <fix>3d</fix>
</trkpt>
<trkpt lat="-35.3629379" lon="149.165086">
  <ele>585.09</ele>
  <time>2026-09-01T19:52:57Z</time>
  <course>23.28</course>
  <speed>0.0</speed>
  <fix>3d</fix>
</trkpt>
<trkpt lat="-35.362938" lon="149.1650857">
  <ele>585.07</ele>
  <time>2026-09-01T19:52:57Z</time>
  <course>89.04</course>
  <speed>0.022360679774997897</speed>
  <fix>3d</fix>
</trkpt>
<trkpt lat="-35.3629379" lon="149.165086">
  <ele>585.09</ele>
  <time>2026-09-01T19:52:57Z</time>
  <course>203.3</course>
  <speed>0.0</speed>
  <fix>3d</fix>
</trkpt>
<trkpt lat="-35.362938" lon="149.1650857">
  <ele>585.08</ele>
  <time>2026-09-01T19:52:57Z</time>
  <course>89.05</course>
  <speed>0.022360679774997897</speed>
  <fix>3d</fix>
</trkpt>
<trkpt lat="-35.3629379" lon="149.165086">
  <ele>585.09</ele>
  <time>2026-09-01T19:52:57Z</time>
  <course>203.3</course>
  <speed>0.0</speed>
  <fix>3d</fix>
</trkpt>
<trkpt lat="-35.362938" lon="149.1650857">
  <ele>585.08</ele>
  <time>2026-09-01T19:52:57Z</time>
  <course>89.05</course>
  <speed>0.022360679774997897</speed>
  <fix>3d</fix>
</trkpt>
<trkpt lat="-35.3629379" lon="149.165086">
  <ele>585.09</ele>
  <time>2026-09-01T19:52:57Z</time>
  <course>203.2</course>
  <speed>0.0</speed>
  <fix>3d</fix>
</trkpt>
<trkpt lat="-35.362938" lon="149.1650857">
  <ele>585.08</ele>
  <time>2026-09-01T19:52:57Z</time>
  <course>89.06</course>
  <speed>0.022360679774997897</speed>
  <fix>3d</fix>
</trkpt>
<trkpt lat="-35.3629379" lon="149.165086">
  <ele>585.09</ele>
  <time>2026-09-01T19:52:57Z</time>
  <course>203.2</course>
  <speed>0.0</speed>
  <fix>3d</fix>
</trkpt>
<trkpt lat="-35.362938" lon="149.1650857">
  <ele>585.08</ele>
  <time>2026-09-01T19:52:57Z</time>
  <course>89.06</course>
  <speed>0.022360679774997897</speed>
  <fix>3d</fix>
</trkpt>
<trkpt lat="-35.3629379" lon="149.165086">
  <ele>585.09</ele>
  <time>2026-09-01T19:52:57Z</time>
  <course>23.3</course>
  <speed>0.0</speed>
  <fix>3d</fix>
</trkpt>
<trkpt lat="-35.362938" lon="149.1650857">
  <ele>585.09</ele>
  <time>2026-09-01T19:52:57Z</time>
  <course>89.07</course>
  <speed>0.022360679774997897</speed>
  <fix>3d</fix>
</trkpt>
<trkpt lat="-35.3629379" lon="149.165086">
  <ele>585.09</ele>
  <time>2026-09-01T19:52:57Z</time>
  <course>23.3</course>
  <speed>0.0</speed>
  <fix>3d</fix>
</trkpt>
<trkpt lat="-35.362938" lon="149.1650857">
  <ele>585.09</ele>
  <time>2026-09-01T19:52:57Z</time>
  <course>89.07</course>
  <speed>0.022360679774997897</speed>
  <fix>3d</fix>
</trkpt>
<trkpt lat="-35.3629379" lon="149.165086">
  <ele>585.09</ele>
  <time>2026-09-01T19:52:57Z</time>
  <course>203.35</course>
  <speed>0.0</speed>
  <fix>3d</fix>
</trkpt>
<trkpt lat="-35.362938" lon="149.1650857">
  <ele>585.09</ele>
  <time>2026-09-01T19:52:57Z</time>
  <course>89.08</course>
  <speed>0.022360679774997897</speed>
  <fix>3d</fix>
</trkpt>
<trkpt lat="-35.3629379" lon="149.165086">
  <ele>585.09</ele>
  <time>2026-09-01T19:52:57Z</time>
  <course>203.35</course>
  <speed>0.0</speed>
  <fix>3d</fix>
</trkpt>
<trkpt lat="-35.362938" lon="149.1650857">
  <ele>585.09</ele>
  <time>2026-09-01T19:52:57Z</time>
  <course>89.08</course>
  <speed>0.022360679774997897</speed>
  <fix>3d</fix>
</trkpt>
<trkpt lat="-35.3629379" lon="149.165086">
  <ele>585.09</ele>
  <time>2026-09-01T19:52:57Z</time>
  <course>203.3</course>
  <speed>0.0</speed>
  <fix>3d</fix>
</trkpt>
<trkpt lat="-35.362938" lon="149.1650857">
  <ele>585.1</ele>
  <time>2026-09-01T19:52:57Z</time>
  <course>89.09</course>
  <speed>0.022360679774997897</speed>
  <fix>3d</fix>
</trkpt>
<trkpt lat="-35.3629379" lon="149.165086">
  <ele>585.09</ele>
  <time>2026-09-01T19:52:57Z</time>
  <course>203.3</course>
  <speed>0.0</speed>
  <fix>3d</fix>
</trkpt>
<trkpt lat="-35.362938" lon="149.1650857">
  <ele>585.1</ele>
  <time>2026-09-01T19:52:57Z</time>
  <course>89.09</course>
  <speed>0.022360679774997897</speed>
  <fix>3d</fix>
</trkpt>
<trkpt lat="-35.3629379" lon="149.165086">
  <ele>585.09</ele>
  <time>2026-09-01T19:52:57Z</time>
  <course>23.32</course>
  <speed>0.0</speed>
  <fix>3d</fix>
</trkpt>
<trkpt lat="-35.362938" lon="149.1650857">
  <ele>585.1</ele>
  <time>2026-09-01T19:52:57Z</time>
  <course>89.1</course>
  <speed>0.022360679774997897</speed>
  <fix>3d</fix>
</trkpt>
<trkpt lat="-35.3629379" lon="149.165086">
  <ele>585.09</ele>
  <time>2026-09-01T19:52:57Z</time>
  <course>23.32</course>
  <speed>0.0</speed>
  <fix>3d</fix>
</trkpt>
<trkpt lat="-35.362938" lon="149.1650857">
  <ele>585.1</ele>
  <time>2026-09-01T19:52:57Z</time>
  <course>89.1</course>
  <speed>0.022360679774997897</speed>
  <fix>3d</fix>
</trkpt>
<trkpt lat="-35.3629379" lon="149.165086">
  <ele>585.09</ele>
  <time>2026-09-01T19:52:57Z</time>
  <course>23.29</course>
  <speed>0.0</speed>
  <fix>3d</fix>
</trkpt>
<trkpt lat="-35.362938" lon="149.1650857">
  <ele>585.1</ele>
  <time>2026-09-01T19:52:57Z</time>
  <course>89.11</course>
  <speed>0.022360679774997897</speed>
  <fix>3d</fix>
</trkpt>
<trkpt lat="-35.3629379" lon="149.165086">
  <ele>585.09</ele>
  <time>2026-09-01T19:52:57Z</time>
  <course>23.29</course>
  <speed>0.0</speed>
  <fix>3d</fix>
</trkpt>
<trkpt lat="-35.362938" lon="149.1650857">
  <ele>585.1</ele>
  <time>2026-09-01T19:52:57Z</time>
  <course>89.11</course>
  <speed>0.022360679774997897</speed>
  <fix>3d</fix>
</trkpt>
<trkpt lat="-35.3629379" lon="149.165086">
  <ele>585.09</ele>
  <time>2026-09-01T19:52:57Z</time>
  <course>203.31</course>
  <speed>0.0</speed>
  <fix>3d</fix>
</trkpt>
<trkpt lat="-35.362938" lon="149.1650857">
  <ele>585.1</ele>
  <time>2026-09-01T19:52:57Z</time>
  <course>89.12</course>
  <speed>0.022360679774997897</speed>
  <fix>3d</fix>
</trkpt>
<trkpt lat="-35.3629379" lon="149.165086">
  <ele>585.09</ele>
  <time>2026-09-01T19:52:57Z</time>
  <course>203.31</course>
  <speed>0.0</speed>
  <fix>3d</fix>
</trkpt>
<trkpt lat="-35.362938" lon="149.1650857">
  <ele>585.1</ele>
  <time>2026-09-01T19:52:57Z</time>
  <course>89.12</course>
  <speed>0.022360679774997897</speed>
  <fix>3d</fix>
</trkpt>
<trkpt lat="-35.3629379" lon="149.165086">
  <ele>585.09</ele>
  <time>2026-09-01T19:52:57Z</time>
  <course>203.28</course>
  <speed>0.0</speed>
  <fix>3d</fix>
</trkpt>
<trkpt lat="-35.362938" lon="149.1650857">
  <ele>585.1</ele>
  <time>2026-09-01T19:52:57Z</time>
  <course>89.13</course>
  <speed>0.022360679774997897</speed>
  <fix>3d</fix>
</trkpt>
<trkpt lat="-35.3629379" lon="149.165086">
  <ele>585.09</ele>
  <time>2026-09-01T19:52:57Z</time>
  <course>203.28</course>
  <speed>0.0</speed>
  <fix>3d</fix>
</trkpt>
<trkpt lat="-35.362938" lon="149.1650857">
  <ele>585.1</ele>
  <time>2026-09-01T19:52:57Z</time>
  <course>89.13</course>
  <speed>0.022360679774997897</speed>
  <fix>3d</fix>
</trkpt>
<trkpt lat="-35.3629379" lon="149.165086">
  <ele>585.09</ele>
  <time>2026-09-01T19:52:57Z</time>
  <course>23.31</course>
  <speed>0.0</speed>
  <fix>3d</fix>
</trkpt>
<trkpt lat="-35.362938" lon="149.1650857">
  <ele>585.1</ele>
  <time>2026-09-01T19:52:57Z</time>
  <course>89.14</course>
  <speed>0.022360679774997897</speed>
  <fix>3d</fix>
</trkpt>
<trkpt lat="-35.3629379" lon="149.165086">
  <ele>585.09</ele>
  <time>2026-09-01T19:52:57Z</time>
  <course>23.31</course>
  <speed>0.0</speed>
  <fix>3d</fix>
</trkpt>
<trkpt lat="-35.362938" lon="149.1650857">
  <ele>585.1</ele>
  <time>2026-09-01T19:52:57Z</time>
  <course>89.15</course>
  <speed>0.022360679774997897</speed>
  <fix>3d</fix>
</trkpt>
<trkpt lat="-35.3629379" lon="149.165086">
  <ele>585.09</ele>
  <time>2026-09-01T19:52:57Z</time>
  <course>23.26</course>
  <speed>0.0</speed>
  <fix>3d</fix>
</trkpt>
<trkpt lat="-26.9720619" lon="149.6127921">
  <ele>339.29</ele>
  <time>2026-09-01T19:52:58Z</time>
  <course>310.27</course>
  <speed>0.0</speed>
  <fix>3d</fix>
</trkpt>
<trkpt lat="-26.9720619" lon="149.6127921">
  <ele>339.29</ele>
  <time>2026-09-01T19:52:58Z</time>
  <course>310.27</course>
  <speed>0.0</speed>
  <fix>3d</fix>
</trkpt>
<trkpt lat="-27.274439" lon="151.290064">
  <ele>0.13</ele>
  <time>2026-09-01T19:52:58Z</time>
  <course>0.13</course>
  <speed>0.0</speed>
  <fix>3d</fix>
</trkpt>
<trkpt lat="-27.274439" lon="151.290064">
  <ele>343.1</ele>
  <time>2026-09-01T19:52:58Z</time>
  <course>294.58</course>
  <speed>0.0</speed>
  <fix>3d</fix>
</trkpt>
<trkpt lat="-27.274439" lon="151.290064">
  <ele>-0.01</ele>
  <time>2026-09-01T19:52:58Z</time>
  <course>0.99</course>
  <speed>0.0</speed>
  <fix>3d</fix>
</trkpt>
<trkpt lat="-27.274439" lon="151.290064">
  <ele>343.1</ele>
  <time>2026-09-01T19:52:58Z</time>
  <course>294.58</course>
  <speed>0.0</speed>
  <fix>3d</fix>
</trkpt>
<trkpt lat="-27.274439" lon="151.290064">
  <ele>0.02</ele>
  <time>2026-09-01T19:52:58Z</time>
  <course>1.9</course>
  <speed>0.0</speed>
  <fix>3d</fix>
</trkpt>
<trkpt lat="-27.274439" lon="151.290064">
  <ele>343.1</ele>
  <time>2026-09-01T19:52:58Z</time>
  <course>273.33</course>
  <speed>0.0</speed>
  <fix>3d</fix>
</trkpt>
<trkpt lat="-27.274439" lon="151.290064">
  <ele>-0.08</ele>
  <time>2026-09-01T19:52:58Z</time>
  <course>2.74</course>
  <speed>0.0</speed>
  <fix>3d</fix>
</trkpt>
<trkpt lat="-27.274439" lon="151.290064">
  <ele>343.1</ele>
  <time>2026-09-01T19:52:58Z</time>
  <course>273.33</course>
  <speed>0.0</speed>
  <fix>3d</fix>
</trkpt>
<trkpt lat="-27.274439" lon="151.290064">
  <ele>0.22</ele>
  <time>2026-09-01T19:52:58Z</time>
  <course>3.5</course>
  <speed>0.0</speed>
  <fix>3d</fix>
</trkpt>
<trkpt lat="-27.274439" lon="151.290064">
  <ele>343.1</ele>
  <time>2026-09-01T19:52:58Z</time>
  <course>270.44</course>
  <speed>0.0</speed>
  <fix>3d</fix>
</trkpt>
<trkpt lat="-27.274439" lon="151.290064">
  <ele>0.09</ele>
  <time>2026-09-01T19:52:58Z</time>
  <course>4.19</course>
  <speed>0.0</speed>
  <fix>3d</fix>
</trkpt>
<trkpt lat="-27.274439" lon="151.290064">
  <ele>343.1</ele>
  <time>2026-09-01T19:52:58Z</time>
  <course>270.44</course>
  <speed>0.0</speed>
  <fix>3d</fix>
</trkpt>
<trkpt lat="-27.274439" lon="151.290064">
  <ele>0.08</ele>
  <time>2026-09-01T19:52:58Z</time>
  <course>4.82</course>
  <speed>0.0</speed>
  <fix>3d</fix>
</trkpt>
<trkpt lat="-27.274439" lon="151.290064">
  <ele>343.1</ele>
  <time>2026-09-01T19:52:58Z</time>
  <course>270.05</course>
  <speed>0.0</speed>
  <fix>3d</fix>
</trkpt>
<trkpt lat="-27.274439" lon="151.290064">
  <ele>0.09</ele>
  <time>2026-09-01T19:52:58Z</time>
  <course>5.38</course>
  <speed>0.0</speed>
  <fix>3d</fix>
</trkpt>
<trkpt lat="-27.274439" lon="151.290064">
  <ele>343.1</ele>
  <time>2026-09-01T19:52:58Z</time>
  <course>270.05</course>
  <speed>0.0</speed>
  <fix>3d</fix>
</trkpt>
<trkpt lat="-27.274439" lon="151.290064">
  <ele>-0.05</ele>
  <time>2026-09-01T19:52:58Z</time>
  <course>5.9</course>
  <speed>0.0</speed>
  <fix>3d</fix>
</trkpt>
<trkpt lat="-27.274439" lon="151.290064">
  <ele>343.1</ele>
  <time>2026-09-01T19:52:58Z</time>
  <course>270.0</course>
  <speed>0.0</speed>
  <fix>3d</fix>
</trkpt>
<trkpt lat="-27.274439" lon="151.290064">
  <ele>343.06</ele>
  <time>2026-09-01T19:52:58Z</time>
  <course>6.36</course>
  <speed>0.0</speed>
  <fix>3d</fix>
</trkpt>
<trkpt lat="-27.274439" lon="151.290064">
  <ele>343.1</ele>
  <time>2026-09-01T19:52:58Z</time>
  <course>270.0</course>
  <speed>0.0</speed>
  <fix>3d</fix>
</trkpt>
<trkpt lat="-27.274439" lon="151.290064">
  <ele>343.18</ele>
  <time>2026-09-01T19:52:58Z</time>
  <course>6.78</course>
  <speed>0.0</speed>
  <fix>3d</fix>
</trkpt>
<trkpt lat="-27.274439" lon="151.290064">
  <ele>343.1</ele>
  <time>2026-09-01T19:52:58Z</time>
  <course>270.0</course>
  <speed>0.0</speed>
  <fix>3d</fix>
</trkpt>
<trkpt lat="-27.274439" lon="151.290064">
  <ele>342.91</ele>
  <time>2026-09-01T19:52:58Z</time>
  <course>7.16</course>
  <speed>0.0</speed>
  <fix>3d</fix>
</trkpt>
<trkpt lat="-27.274439" lon="151.290064">
  <ele>343.1</ele>
  <time>2026-09-01T19:52:58Z</time>
  <course>270.0</course>
  <speed>0.0</speed>
  <fix>3d</fix>
</trkpt>
<trkpt lat="-27.274439" lon="151.290064">
  <ele>343.06</ele>
  <time>2026-09-01T19:52:58Z</time>
  <course>7.5</course>
  <speed>0.0</speed>
  <fix>3d</fix>
</trkpt>
<trkpt lat="-27.274439" lon="151.290064">
  <ele>343.1</ele>
  <time>2026-09-01T19:52:58Z</time>
  <course>270.0</course>
  <speed>0.0</speed>
  <fix>3d</fix>
</trkpt>
<trkpt lat="-27.274439" lon="151.290064">
  <ele>343.13</ele>
  <time>2026-09-01T19:52:58Z</time>
  <course>7.82</course>
  <speed>0.0</speed>
  <fix>3d</fix>
</trkpt>
<trkpt lat="-27.274439" lon="151.290064">
  <ele>343.1</ele>
  <time>2026-09-01T19:52:58Z</time>
  <course>270.0</course>
  <speed>0.0</speed>
  <fix>3d</fix>
</trkpt>
<trkpt lat="-27.274439" lon="151.290064">
  <ele>343.04</ele>
  <time>2026-09-01T19:52:58Z</time>
  <course>8.1</course>
  <speed>0.0</speed>
  <fix>3d</fix>
</trkpt>
<trkpt lat="-27.274439" lon="151.290064">
  <ele>343.1</ele>
  <time>2026-09-01T19:52:58Z</time>
  <course>270.0</course>
  <speed>0.0</speed>
  <fix>3d</fix>
</trkpt>
<trkpt lat="-27.274439" lon="151.290064">
  <ele>342.88</ele>
  <time>2026-09-01T19:52:58Z</time>
  <course>8.35</course>
  <speed>0.0</speed>
  <fix>3d</fix>
</trkpt>
<trkpt lat="-27.274439" lon="151.290064">
  <ele>343.1</ele>
  <time>2026-09-01T19:52:58Z</time>
  <course>270.0</course>
  <speed>0.0</speed>
  <fix>3d</fix>
</trkpt>
<trkpt lat="-27.274439" lon="151.290064">
  <ele>343.02</ele>
  <time>2026-09-01T19:52:58Z</time>
  <course>8.58</course>
  <speed>0.0</speed>
  <fix>3d</fix>
</trkpt>
<trkpt lat="-27.274439" lon="151.290064">
  <ele>343.1</ele>
  <time>2026-09-01T19:52:58Z</time>
  <course>270.0</course>
  <speed>0.0</speed>
  <fix>3d</fix>
</trkpt>
<trkpt lat="-27.274439" lon="151.290064">
  <ele>343.23</ele>
  <time>2026-09-01T19:52:58Z</time>
  <course>8.79</course>
  <speed>0.0</speed>
  <fix>3d</fix>
</trkpt>
<trkpt lat="-27.274439" lon="151.290064">
  <ele>343.1</ele>
  <time>2026-09-01T19:52:58Z</time>
  <course>270.0</course>
  <speed>0.0</speed>
  <fix>3d</fix>
</trkpt>
<trkpt lat="-27.274439" lon="151.290064">
  <ele>343.17</ele>
  <time>2026-09-01T19:52:58Z</time>
  <course>8.97</course>
  <speed>0.0</speed>
  <fix>3d</fix>
</trkpt>
<trkpt lat="-27.274439" lon="151.290064">
  <ele>343.1</ele>
  <time>2026-09-01T19:52:58Z</time>
  <course>270.0</course>
  <speed>0.0</speed>
  <fix>3d</fix>
</trkpt>
<trkpt lat="-27.274439" lon="151.290064">
  <ele>343.04</ele>
  <time>2026-09-01T19:52:58Z</time>
  <course>9.14</course>
  <speed>0.0</speed>
  <fix>3d</fix>
</trkpt>
<trkpt lat="-27.274439" lon="151.290064">
  <ele>343.1</ele>
  <time>2026-09-01T19:52:58Z</time>
  <course>270.0</course>
  <speed>0.0</speed>
  <fix>3d</fix>
</trkpt>
<trkpt lat="-27.274439" lon="151.290064">
  <ele>342.89</ele>
  <time>2026-09-01T19:52:58Z</time>
  <course>9.3</course>
  <speed>0.0</speed>
  <fix>3d</fix>
</trkpt>
<trkpt lat="-27.274439" lon="151.290064">
  <ele>343.1</ele>
  <time>2026-09-01T19:52:58Z</time>
  <course>270.0</course>
  <speed>0.0</speed>
  <fix>3d</fix>
</trkpt>
<trkpt lat="-27.274439" lon="151.290064">
  <ele>343.08</ele>
  <time>2026-09-01T19:52:58Z</time>
  <course>9.44</course>
  <speed>0.0</speed>
  <fix>3d</fix>
</trkpt>
<trkpt lat="-27.274439" lon="151.290064">
  <ele>343.1</ele>
  <time>2026-09-01T19:52:58Z</time>
  <course>270.0</course>
  <speed>0.0</speed>
  <fix>3d</fix>
</trkpt>
<trkpt lat="-27.274439" lon="151.290064">
  <ele>343.19</ele>
  <time>2026-09-01T19:52:58Z</time>
  <course>9.56</course>
  <speed>0.0</speed>
  <fix>3d</fix>
</trkpt>
<trkpt lat="-27.274439" lon="151.290064">
  <ele>343.1</ele>
  <time>2026-09-01T19:52:58Z</time>
  <course>270.0</course>
  <speed>0.0</speed>
  <fix>3d</fix>
</trkpt>
<trkpt lat="-27.274439" lon="151.290064">
  <ele>342.88</ele>
  <time>2026-09-01T19:52:58Z</time>
  <course>9.68</course>
  <speed>0.0</speed>
  <fix>3d</fix>
</trkpt>
<trkpt lat="-27.274439" lon="151.290064">
  <ele>343.1</ele>
  <time>2026-09-01T19:52:58Z</time>
  <course>270.0</course>
  <speed>0.0</speed>
  <fix>3d</fix>
</trkpt>
<trkpt lat="-27.274439" lon="151.290064">
  <ele>343.17</ele>
  <time>2026-09-01T19:52:58Z</time>
  <course>9.78</course>
  <speed>0.0</speed>
  <fix>3d</fix>
</trkpt>
<trkpt lat="-27.274439" lon="151.290064">
  <ele>343.1</ele>
  <time>2026-09-01T19:52:58Z</time>
  <course>270.0</course>
  <speed>0.0</speed>
  <fix>3d</fix>
</trkpt>
<trkpt lat="-27.274439" lon="151.290064">
  <ele>342.89</ele>
  <time>2026-09-01T19:52:58Z</time>
  <course>9.87</course>
  <speed>0.0</speed>
  <fix>3d</fix>
</trkpt>
<trkpt lat="-27.274439" lon="151.290064">
  <ele>343.1</ele>
  <time>2026-09-01T19:52:58Z</time>
  <course>270.0</course>
  <speed>0.0</speed>
  <fix>3d</fix>
</trkpt>
<trkpt lat="-27.274439" lon="151.290064">
  <ele>342.99</ele>
  <time>2026-09-01T19:52:58Z</time>
  <course>9.96</course>
  <speed>0.0</speed>
  <fix>3d</fix>
</trkpt>
<trkpt lat="-27.274439" lon="151.290064">
  <ele>343.1</ele>
  <time>2026-09-01T19:52:58Z</time>
  <course>270.0</course>
  <speed>0.0</speed>
  <fix>3d</fix>
</trkpt>
<trkpt lat="-27.274439" lon="151.290064">
  <ele>342.87</ele>
  <time>2026-09-01T19:52:58Z</time>
  <course>10.04</course>
  <speed>0.0</speed>
  <fix>3d</fix>
</trkpt>
<trkpt lat="-27.274439" lon="151.290064">
  <ele>343.1</ele>
  <time>2026-09-01T19:52:58Z</time>
  <course>270.0</course>
  <speed>0.0</speed>
  <fix>3d</fix>
</trkpt>
<trkpt lat="-27.274439" lon="151.290064">
  <ele>343.09</ele>
  <time>2026-09-01T19:52:58Z</time>
  <course>10.11</course>
  <speed>0.0</speed>
  <fix>3d</fix>
</trkpt>
<trkpt lat="-27.274439" lon="151.290064">
  <ele>343.1</ele>
  <time>2026-09-01T19:52:58Z</time>
  <course>270.0</course>
  <speed>0.0</speed>
  <fix>3d</fix>
</trkpt>
<trkpt lat="-27.274439" lon="151.290064">
  <ele>343.18</ele>
  <time>2026-09-01T19:52:58Z</time>
  <course>10.18</course>
  <speed>0.0</speed>
  <fix>3d</fix>
</trkpt>
<trkpt lat="-27.274439" lon="151.290064">
  <ele>343.1</ele>
  <time>2026-09-01T19:52:58Z</time>
  <course>270.0</course>
  <speed>0.0</speed>
  <fix>3d</fix>
</trkpt>
<trkpt lat="-27.274439" lon="151.290064">
  <ele>343.05</ele>
  <time>2026-09-01T19:52:58Z</time>
  <course>10.24</course>
  <speed>0.0</speed>
  <fix>3d</fix>
</trkpt>
<trkpt lat="-27.274439" lon="151.290064">
  <ele>343.1</ele>
  <time>2026-09-01T19:52:58Z</time>
  <course>270.0</course>
  <speed>0.0</speed>
  <fix>3d</fix>
</trkpt>
<trkpt lat="-27.274439" lon="151.290064">
  <ele>342.96</ele>
  <time>2026-09-01T19:52:58Z</time>
  <course>10.29</course>
  <speed>0.0</speed>
  <fix>3d</fix>
</trkpt>
<trkpt lat="-27.274439" lon="151.290064">
  <ele>343.1</ele>
  <time>2026-09-01T19:52:58Z</time>
  <course>270.0</course>
  <speed>0.0</speed>
  <fix>3d</fix>
</trkpt>
<trkpt lat="-27.274439" lon="151.290064">
  <ele>343.1</ele>
  <time>2026-09-01T19:52:58Z</time>
  <course>10.34</course>
  <speed>0.0</speed>
  <fix>3d</fix>
</trkpt>
<trkpt lat="-27.274439" lon="151.290064">
  <ele>343.1</ele>
  <time>2026-09-01T19:52:58Z</time>
  <course>270.0</course>
  <speed>0.0</speed>
  <fix>3d</fix>
</trkpt>
<trkpt lat="-27.274439" lon="151.290064">
  <ele>343.22</ele>
  <time>2026-09-01T19:52:58Z</time>
  <course>10.39</course>
  <speed>0.0</speed>
  <fix>3d</fix>
</trkpt>
<trkpt lat="-27.274439" lon="151.290064">
  <ele>343.1</ele>
  <time>2026-09-01T19:52:58Z</time>
  <course>270.0</course>
  <speed>0.0</speed>
  <fix>3d</fix>
</trkpt>
<trkpt lat="-27.274439" lon="151.290064">
  <ele>343.17</ele>
  <time>2026-09-01T19:52:58Z</time>
  <course>10.43</course>
  <speed>0.0</speed>
  <fix>3d</fix>
</trkpt>
<trkpt lat="-27.274439" lon="151.290064">
  <ele>343.1</ele>
  <time>2026-09-01T19:52:58Z</time>
  <course>270.0</course>
  <speed>0.0</speed>
  <fix>3d</fix>
</trkpt>
<trkpt lat="-27.274439" lon="151.290064">
  <ele>343.08</ele>
  <time>2026-09-01T19:52:58Z</time>
  <course>10.46</course>
  <speed>0.0</speed>
  <fix>3d</fix>
</trkpt>
<trkpt lat="-27.274439" lon="151.290064">
  <ele>343.1</ele>
  <time>2026-09-01T19:52:58Z</time>
  <course>270.0</course>
  <speed>0.0</speed>
  <fix>3d</fix>
</trkpt>
<trkpt lat="-27.274439" lon="151.290064">
  <ele>343.04</ele>
  <time>2026-09-01T19:52:58Z</time>
  <course>10.49</course>
  <speed>0.0</speed>
  <fix>3d</fix>
</trkpt>
<trkpt lat="-27.274439" lon="151.290064">
  <ele>343.1</ele>
  <time>2026-09-01T19:52:58Z</time>
  <course>270.0</course>
  <speed>0.0</speed>
  <fix>3d</fix>
</trkpt>
<trkpt lat="-27.274439" lon="151.290064">
  <ele>343.18</ele>
  <time>2026-09-01T19:52:58Z</time>
  <course>10.52</course>
  <speed>0.0</speed>
  <fix>3d</fix>
</trkpt>
<trkpt lat="-27.274439" lon="151.290064">
  <ele>343.1</ele>
  <time>2026-09-01T19:52:58Z</time>
  <course>270.0</course>
  <speed>0.0</speed>
  <fix>3d</fix>
</trkpt>
<trkpt lat="-27.274439" lon="151.290064">
  <ele>343.12</ele>
  <time>2026-09-01T19:52:58Z</time>
  <course>10.55</course>
  <speed>0.0</speed>
  <fix>3d</fix>
</trkpt>
<trkpt lat="-27.274439" lon="151.290064">
  <ele>343.1</ele>
  <time>2026-09-01T19:52:58Z</time>
  <course>270.0</course>
  <speed>0.0</speed>
  <fix>3d</fix>
</trkpt>
<trkpt lat="-27.274439" lon="151.290064">
  <ele>343.04</ele>
  <time>2026-09-01T19:52:58Z</time>
  <course>10.57</course>
  <speed>0.0</speed>
  <fix>3d</fix>
</trkpt>
<trkpt lat="-27.274439" lon="151.290064">
  <ele>343.1</ele>
  <time>2026-09-01T19:52:58Z</time>
  <course>270.0</course>
  <speed>0.0</speed>
  <fix>3d</fix>
</trkpt>
<trkpt lat="-27.274439" lon="151.290064">
  <ele>343.07</ele>
  <time>2026-09-01T19:52:58Z</time>
  <course>10.6</course>
  <speed>0.0</speed>
  <fix>3d</fix>
</trkpt>
<trkpt lat="-27.274439" lon="151.290064">
  <ele>343.1</ele>
  <time>2026-09-01T19:52:58Z</time>
  <course>270.0</course>
  <speed>0.0</speed>
  <fix>3d</fix>
</trkpt>
<trkpt lat="-27.274439" lon="151.290064">
  <ele>343.04</ele>
  <time>2026-09-01T19:52:58Z</time>
  <course>10.61</course>
  <speed>0.0</speed>
  <fix>3d</fix>
</trkpt>
<trkpt lat="-27.274439" lon="151.290064">
  <ele>343.1</ele>
  <time>2026-09-01T19:52:58Z</time>
  <course>270.0</course>
  <speed>0.0</speed>
  <fix>3d</fix>
</trkpt>
<trkpt lat="-27.274439" lon="151.290064">
  <ele>343.01</ele>
  <time>2026-09-01T19:52:58Z</time>
  <course>10.63</course>
  <speed>0.0</speed>
  <fix>3d</fix>
</trkpt>
<trkpt lat="-27.274439" lon="151.290064">
  <ele>343.1</ele>
  <time>2026-09-01T19:52:58Z</time>
  <course>270.0</course>
  <speed>0.0</speed>
  <fix>3d</fix>
</trkpt>
<trkpt lat="-27.274439" lon="151.290064">
  <ele>343.2</ele>
  <time>2026-09-01T19:52:58Z</time>
  <course>10.65</course>
  <speed>0.0</speed>
  <fix>3d</fix>
</trkpt>
<trkpt lat="-27.274439" lon="151.290064">
  <ele>343.1</ele>
  <time>2026-09-01T19:52:58Z</time>
  <course>270.0</course>
  <speed>0.0</speed>
  <fix>3d</fix>
</trkpt>
<trkpt lat="-27.274439" lon="151.290064">
  <ele>343.24</ele>
  <time>2026-09-01T19:52:58Z</time>
  <course>10.66</course>
  <speed>0.0</speed>
  <fix>3d</fix>
</trkpt>
<trkpt lat="-27.274439" lon="151.290064">
  <ele>343.1</ele>
  <time>2026-09-01T19:52:58Z</time>
  <course>270.0</course>
  <speed>0.0</speed>
  <fix>3d</fix>
</trkpt>
<trkpt lat="-27.274439" lon="151.290064">
  <ele>342.88</ele>
  <time>2026-09-01T19:52:58Z</time>
  <course>10.68</course>
  <speed>0.0</speed>
  <fix>3d</fix>
</trkpt>
<trkpt lat="-27.274439" lon="151.290064">
  <ele>343.1</ele>
  <time>2026-09-01T19:52:58Z</time>
  <course>270.0</course>
  <speed>0.0</speed>
  <fix>3d</fix>
</trkpt>
<trkpt lat="-27.274439" lon="151.290064">
  <ele>343.21</ele>
  <time>2026-09-01T19:52:58Z</time>
  <course>10.69</course>
  <speed>0.0</speed>
  <fix>3d</fix>
</trkpt>
<trkpt lat="-27.274439" lon="151.290064">
  <ele>343.1</ele>
  <time>2026-09-01T19:52:58Z</time>
  <course>270.0</course>
  <speed>0.0</speed>
  <fix>3d</fix>
</trkpt>
<trkpt lat="-27.274439" lon="151.290064">
  <ele>343.02</ele>
  <time>2026-09-01T19:52:58Z</time>
  <course>10.7</course>
  <speed>0.0</speed>
  <fix>3d</fix>
</trkpt>
<trkpt lat="-27.274439" lon="151.290064">
  <ele>343.1</ele>
  <time>2026-09-01T19:52:58Z</time>
  <course>270.0</course>
  <speed>0.0</speed>
  <fix>3d</fix>
</trkpt>
<trkpt lat="-27.274439" lon="151.290064">
  <ele>342.93</ele>
  <time>2026-09-01T19:52:58Z</time>
  <course>10.71</course>
  <speed>0.0</speed>
  <fix>3d</fix>
</trkpt>
<trkpt lat="-27.274439" lon="151.290064">
  <ele>343.1</ele>
  <time>2026-09-01T19:52:58Z</time>
  <course>270.0</course>
  <speed>0.0</speed>
  <fix>3d</fix>
</trkpt>
<trkpt lat="-27.274439" lon="151.290064">
  <ele>343.07</ele>
  <time>2026-09-01T19:52:58Z</time>
  <course>10.72</course>
  <speed>0.0</speed>
  <fix>3d</fix>
</trkpt>
<trkpt lat="-27.274439" lon="151.290064">
  <ele>343.1</ele>
  <time>2026-09-01T19:52:58Z</time>
  <course>270.0</course>
  <speed>0.0</speed>
  <fix>3d</fix>
</trkpt>
<trkpt lat="-27.274439" lon="151.290064">
  <ele>342.94</ele>
  <time>2026-09-01T19:52:58Z</time>
  <course>10.72</course>
  <speed>0.0</speed>
  <fix>3d</fix>
</trkpt>
<trkpt lat="-27.274439" lon="151.290064">
  <ele>343.1</ele>
  <time>2026-09-01T19:52:58Z</time>
  <course>270.0</course>
  <speed>0.0</speed>
  <fix>3d</fix>
</trkpt>
<trkpt lat="-27.274439" lon="151.290064">
  <ele>343.11</ele>
  <time>2026-09-01T19:52:58Z</time>
  <course>10.73</course>
  <speed>0.0</speed>
  <fix>3d</fix>
</trkpt>
<trkpt lat="-27.274439" lon="151.290064">
  <ele>343.1</ele>
  <time>2026-09-01T19:52:58Z</time>
  <course>270.0</course>
  <speed>0.0</speed>
  <fix>3d</fix>
</trkpt>
<trkpt lat="-27.274439" lon="151.290064">
  <ele>343.24</ele>
  <time>2026-09-01T19:52:58Z</time>
  <course>10.74</course>
  <speed>0.0</speed>
  <fix>3d</fix>
</trkpt>
<trkpt lat="-27.274439" lon="151.290064">
  <ele>343.1</ele>
  <time>2026-09-01T19:52:58Z</time>
  <course>270.0</course>
  <speed>0.0</speed>
  <fix>3d</fix>
</trkpt>
<trkpt lat="-27.274439" lon="151.290064">
  <ele>343.18</ele>
  <time>2026-09-01T19:52:58Z</time>
  <course>10.74</course>
  <speed>0.0</speed>
  <fix>3d</fix>
</trkpt>
<trkpt lat="-27.274439" lon="151.290064">
  <ele>343.1</ele>
  <time>2026-09-01T19:52:58Z</time>
  <course>270.0</course>
  <speed>0.0</speed>
  <fix>3d</fix>
</trkpt>
<trkpt lat="-27.274439" lon="151.290064">
  <ele>342.89</ele>
  <time>2026-09-01T19:52:58Z</time>
  <course>10.75</course>
  <speed>0.0</speed>
  <fix>3d</fix>
</trkpt>
<trkpt lat="-27.274439" lon="151.290064">
  <ele>343.1</ele>
  <time>2026-09-01T19:52:58Z</time>
  <course>270.0</course>
  <speed>0.0</speed>
  <fix>3d</fix>
</trkpt>
<trkpt lat="-27.274439" lon="151.290064">
  <ele>343.23</ele>
  <time>2026-09-01T19:52:58Z</time>
  <course>10.75</course>
  <speed>0.0</speed>
  <fix>3d</fix>
</trkpt>
<trkpt lat="-27.274439" lon="151.290064">
  <ele>343.1</ele>
  <time>2026-09-01T19:52:59Z</time>
  <course>270.0</course>
  <speed>0.0</speed>
  <fix>3d</fix>
</trkpt>
<trkpt lat="-27.274439" lon="151.290064">
  <ele>343.23</ele>
  <time>2026-09-01T19:52:59Z</time>
  <course>10.76</course>
  <speed>0.0</speed>
  <fix>3d</fix>
</trkpt>
<trkpt lat="-27.274439" lon="151.290064">
  <ele>343.1</ele>
  <time>2026-09-01T19:52:59Z</time>
  <course>270.0</course>
  <speed>0.0</speed>
  <fix>3d</fix>
</trkpt>
<trkpt lat="-27.274439" lon="151.290064">
  <ele>342.99</ele>
  <time>2026-09-01T19:52:59Z</time>
  <course>10.76</course>
  <speed>0.0</speed>
  <fix>3d</fix>
</trkpt>
<trkpt lat="-27.274439" lon="151.290064">
  <ele>343.1</ele>
  <time>2026-09-01T19:52:59Z</time>
  <course>270.0</course>
  <speed>0.0</speed>
  <fix>3d</fix>
</trkpt>
<trkpt lat="-27.274439" lon="151.290064">
  <ele>343.13</ele>
  <time>2026-09-01T19:52:59Z</time>
  <course>10.77</course>
  <speed>0.0</speed>
  <fix>3d</fix>
</trkpt>
<trkpt lat="-27.274439" lon="151.290064">
  <ele>343.1</ele>
  <time>2026-09-01T19:52:59Z</time>
  <course>270.0</course>
  <speed>0.0</speed>
  <fix>3d</fix>
</trkpt>
<trkpt lat="-27.274439" lon="151.290064">
  <ele>343.07</ele>
  <time>2026-09-01T19:52:59Z</time>
  <course>10.77</course>
  <speed>0.0</speed>
  <fix>3d</fix>
</trkpt>
<trkpt lat="-27.274439" lon="151.290064">
  <ele>343.1</ele>
  <time>2026-09-01T19:52:59Z</time>
  <course>270.0</course>
  <speed>0.0</speed>
  <fix>3d</fix>
</trkpt>
<trkpt lat="-27.274439" lon="151.290064">
  <ele>343.19</ele>
  <time>2026-09-01T19:52:59Z</time>
  <course>10.77</course>
  <speed>0.0</speed>
  <fix>3d</fix>
</trkpt>
<trkpt lat="-27.274439" lon="151.290064">
  <ele>343.1</ele>
  <time>2026-09-01T19:52:59Z</time>
  <course>270.0</course>
  <speed>0.0</speed>
  <fix>3d</fix>
</trkpt>
<trkpt lat="-27.274439" lon="151.290064">
  <ele>342.93</ele>
  <time>2026-09-01T19:52:59Z</time>
  <course>10.78</course>
  <speed>0.0</speed>
  <fix>3d</fix>
</trkpt>
<trkpt lat="-27.274439" lon="151.290064">
  <ele>343.1</ele>
  <time>2026-09-01T19:52:59Z</time>
  <course>270.0</course>
  <speed>0.0</speed>
  <fix>3d</fix>
</trkpt>
<trkpt lat="-27.274439" lon="151.290064">
  <ele>343.19</ele>
  <time>2026-09-01T19:52:59Z</time>
  <course>10.78</course>
  <speed>0.0</speed>
  <fix>3d</fix>
</trkpt>
<trkpt lat="-27.274439" lon="151.290064">
  <ele>343.1</ele>
  <time>2026-09-01T19:52:59Z</time>
  <course>270.0</course>
  <speed>0.0</speed>
  <fix>3d</fix>
</trkpt>
<trkpt lat="-27.274439" lon="151.290064">
  <ele>343.1</ele>
  <time>2026-09-01T19:52:59Z</time>
  <course>10.78</course>
  <speed>0.0</speed>
  <fix>3d</fix>
</trkpt>
<trkpt lat="-27.274439" lon="151.290064">
  <ele>343.1</ele>
  <time>2026-09-01T19:52:59Z</time>
  <course>270.0</course>
  <speed>0.0</speed>
  <fix>3d</fix>
</trkpt>
<trkpt lat="-27.274439" lon="151.290064">
  <ele>343.01</ele>
  <time>2026-09-01T19:52:59Z</time>
  <course>10.78</course>
  <speed>0.0</speed>
  <fix>3d</fix>
</trkpt>
<trkpt lat="-27.274439" lon="151.290064">
  <ele>343.1</ele>
  <time>2026-09-01T19:52:59Z</time>
  <course>270.0</course>
  <speed>0.0</speed>
  <fix>3d</fix>
</trkpt>
<trkpt lat="-27.274439" lon="151.290064">
  <ele>343.11</ele>
  <time>2026-09-01T19:52:59Z</time>
  <course>10.78</course>
  <speed>0.0</speed>
  <fix>3d</fix>
</trkpt>
<trkpt lat="-27.274439" lon="151.290064">
  <ele>343.1</ele>
  <time>2026-09-01T19:52:59Z</time>
  <course>270.0</course>
  <speed>0.0</speed>
  <fix>3d</fix>
</trkpt>
<trkpt lat="-27.274439" lon="151.290064">
  <ele>342.96</ele>
  <time>2026-09-01T19:52:59Z</time>
  <course>10.79</course>
  <speed>0.0</speed>
  <fix>3d</fix>
</trkpt>
<trkpt lat="-27.274439" lon="151.290064">
  <ele>343.1</ele>
  <time>2026-09-01T19:52:59Z</time>
  <course>270.0</course>
  <speed>0.0</speed>
  <fix>3d</fix>
</trkpt>
<trkpt lat="-27.274439" lon="151.290064">
  <ele>343.19</ele>
  <time>2026-09-01T19:52:59Z</time>
  <course>10.79</course>
  <speed>0.0</speed>
  <fix>3d</fix>
</trkpt>
<trkpt lat="-27.274439" lon="151.290064">
  <ele>343.1</ele>
  <time>2026-09-01T19:52:59Z</time>
  <course>270.0</course>
  <speed>0.0</speed>
  <fix>3d</fix>
</trkpt>
<trkpt lat="-27.274439" lon="151.290064">
  <ele>343.0</ele>
  <time>2026-09-01T19:52:59Z</time>
  <course>10.79</course>
  <speed>0.0</speed>
  <fix>3d</fix>
</trkpt>
<trkpt lat="-27.274439" lon="151.290064">
  <ele>343.1</ele>
  <time>2026-09-01T19:52:59Z</time>
  <course>270.0</course>
  <speed>0.0</speed>
  <fix>3d</fix>
</trkpt>
<trkpt lat="-27.274439" lon="151.290064">
  <ele>343.2</ele>
  <time>2026-09-01T19:52:59Z</time>
  <course>10.79</course>
  <speed>0.0</speed>
  <fix>3d</fix>
</trkpt>
<trkpt lat="-27.274439" lon="151.290064">
  <ele>343.1</ele>
  <time>2026-09-01T19:52:59Z</time>
  <course>270.0</course>
  <speed>0.0</speed>
  <fix>3d</fix>
</trkpt>
<trkpt lat="-27.274439" lon="151.290064">
  <ele>343.2</ele>
  <time>2026-09-01T19:52:59Z</time>
  <course>10.79</course>
  <speed>0.0</speed>
  <fix>3d</fix>
</trkpt>
<trkpt lat="-27.274439" lon="151.290064">
  <ele>343.1</ele>
  <time>2026-09-01T19:52:59Z</time>
  <course>270.0</course>
  <speed>0.0</speed>
  <fix>3d</fix>
</trkpt>
<trkpt lat="-27.274439" lon="151.290064">
  <ele>343.13</ele>
  <time>2026-09-01T19:52:59Z</time>
  <course>10.79</course>
  <speed>0.0</speed>
  <fix>3d</fix>
</trkpt>
<trkpt lat="-27.274439" lon="151.290064">
  <ele>343.1</ele>
  <time>2026-09-01T19:52:59Z</time>
  <course>270.0</course>
  <speed>0.0</speed>
  <fix>3d</fix>
</trkpt>
<trkpt lat="-27.274439" lon="151.290064">
  <ele>343.1</ele>
  <time>2026-09-01T19:52:59Z</time>
  <course>10.79</course>
  <speed>0.0</speed>
  <fix>3d</fix>
</trkpt>
<trkpt lat="-27.274439" lon="151.290064">
  <ele>343.1</ele>
  <time>2026-09-01T19:52:59Z</time>
  <course>270.0</course>
  <speed>0.0</speed>
  <fix>3d</fix>
</trkpt>
<trkpt lat="-27.274439" lon="151.290064">
  <ele>343.12</ele>
  <time>2026-09-01T19:52:59Z</time>
  <course>10.79</course>
  <speed>0.0</speed>
  <fix>3d</fix>
</trkpt>
<trkpt lat="-27.274439" lon="151.290064">
  <ele>343.1</ele>
  <time>2026-09-01T19:52:59Z</time>
  <course>270.0</course>
  <speed>0.0</speed>
  <fix>3d</fix>
</trkpt>
<trkpt lat="-27.274439" lon="151.290064">
  <ele>342.94</ele>
  <time>2026-09-01T19:52:59Z</time>
  <course>10.79</course>
  <speed>0.0</speed>
  <fix>3d</fix>
</trkpt>
<trkpt lat="-27.274439" lon="151.290064">
  <ele>343.1</ele>
  <time>2026-09-01T19:52:59Z</time>
  <course>270.0</course>
  <speed>0.0</speed>
  <fix>3d</fix>
</trkpt>
<trkpt lat="-27.274439" lon="151.290064">
  <ele>343.25</ele>
  <time>2026-09-01T19:52:59Z</time>
  <course>10.79</course>
  <speed>0.0</speed>
  <fix>3d</fix>
</trkpt>
<trkpt lat="-27.274439" lon="151.290064">
  <ele>343.1</ele>
  <time>2026-09-01T19:52:59Z</time>
  <course>270.0</course>
  <speed>0.0</speed>
  <fix>3d</fix>
</trkpt>
<trkpt lat="-27.274439" lon="151.290064">
  <ele>342.93</ele>
  <time>2026-09-01T19:52:59Z</time>
  <course>10.79</course>
  <speed>0.0</speed>
  <fix>3d</fix>
</trkpt>
<trkpt lat="-27.274439" lon="151.290064">
  <ele>343.1</ele>
  <time>2026-09-01T19:52:59Z</time>
  <course>270.0</course>
  <speed>0.0</speed>
  <fix>3d</fix>
</trkpt>
<trkpt lat="-27.274439" lon="151.290064">
  <ele>343.08</ele>
  <time>2026-09-01T19:52:59Z</time>
  <course>10.8</course>
  <speed>0.0</speed>
  <fix>3d</fix>
</trkpt>
<trkpt lat="-27.274439" lon="151.290064">
  <ele>343.1</ele>
  <time>2026-09-01T19:52:59Z</time>
  <course>270.0</course>
  <speed>0.0</speed>
  <fix>3d</fix>
</trkpt>
<trkpt lat="-27.274439" lon="151.290064">
  <ele>343.23</ele>
  <time>2026-09-01T19:52:59Z</time>
  <course>10.8</course>
  <speed>0.0</speed>
  <fix>3d</fix>
</trkpt>
<trkpt lat="-27.274439" lon="151.290064">
  <ele>343.1</ele>
  <time>2026-09-01T19:52:59Z</time>
  <course>270.0</course>
  <speed>0.0</speed>
  <fix>3d</fix>
</trkpt>
<trkpt lat="-27.274439" lon="151.290064">
  <ele>343.01</ele>
  <time>2026-09-01T19:52:59Z</time>
  <course>10.8</course>
  <speed>0.0</speed>
  <fix>3d</fix>
</trkpt>
<trkpt lat="-27.274439" lon="151.290064">
  <ele>343.1</ele>
  <time>2026-09-01T19:52:59Z</time>
  <course>270.0</course>
  <speed>0.0</speed>
  <fix>3d</fix>
</trkpt>
<trkpt lat="-27.274439" lon="151.290064">
  <ele>343.1</ele>
  <time>2026-09-01T19:52:59Z</time>
  <course>10.8</course>
  <speed>0.0</speed>
  <fix>3d</fix>
</trkpt>
<trkpt lat="-27.274439" lon="151.290064">
  <ele>343.1</ele>
  <time>2026-09-01T19:52:59Z</time>
  <course>270.0</course>
  <speed>0.0</speed>
  <fix>3d</fix>
</trkpt>
<trkpt lat="-27.274439" lon="151.290064">
  <ele>342.99</ele>
  <time>2026-09-01T19:52:59Z</time>
  <course>10.8</course>
  <speed>0.0</speed>
  <fix>3d</fix>
</trkpt>
<trkpt lat="-27.274439" lon="151.290064">
  <ele>343.1</ele>
  <time>2026-09-01T19:52:59Z</time>
  <course>270.0</course>
  <speed>0.0</speed>
  <fix>3d</fix>
</trkpt>
<trkpt lat="-27.274439" lon="151.290064">
  <ele>342.87</ele>
  <time>2026-09-01T19:52:59Z</time>
  <course>10.8</course>
  <speed>0.0</speed>
  <fix>3d</fix>
</trkpt>
<trkpt lat="-27.274439" lon="151.290064">
  <ele>343.1</ele>
  <time>2026-09-01T19:52:59Z</time>
  <course>270.0</course>
  <speed>0.0</speed>
  <fix>3d</fix>
</trkpt>
<trkpt lat="-27.274439" lon="151.290064">
  <ele>343.1</ele>
  <time>2026-09-01T19:52:59Z</time>
  <course>10.8</course>
  <speed>0.0</speed>
  <fix>3d</fix>
</trkpt>
<trkpt lat="-27.274439" lon="151.290064">
  <ele>343.1</ele>
  <time>2026-09-01T19:52:59Z</time>
  <course>270.0</course>
  <speed>0.0</speed>
  <fix>3d</fix>
</trkpt>
<trkpt lat="-27.274439" lon="151.290064">
  <ele>342.99</ele>
  <time>2026-09-01T19:52:59Z</time>
  <course>10.8</course>
  <speed>0.0</speed>
  <fix>3d</fix>
</trkpt>
<trkpt lat="-27.274439" lon="151.290064">
  <ele>343.1</ele>
  <time>2026-09-01T19:52:59Z</time>
  <course>270.0</course>
  <speed>0.0</speed>
  <fix>3d</fix>
</trkpt>
<trkpt lat="-27.274439" lon="151.290064">
  <ele>342.91</ele>
  <time>2026-09-01T19:52:59Z</time>
  <course>10.8</course>
  <speed>0.0</speed>
  <fix>3d</fix>
</trkpt>
<trkpt lat="-27.274439" lon="151.290064">
  <ele>343.1</ele>
  <time>2026-09-01T19:52:59Z</time>
  <course>270.0</course>
  <speed>0.0</speed>
  <fix>3d</fix>
</trkpt>
<trkpt lat="-27.274439" lon="151.290064">
  <ele>342.9</ele>
  <time>2026-09-01T19:52:59Z</time>
  <course>10.8</course>
  <speed>0.0</speed>
  <fix>3d</fix>
</trkpt>
<trkpt lat="-27.274439" lon="151.290064">
  <ele>343.1</ele>
  <time>2026-09-01T19:52:59Z</time>
  <course>270.0</course>
  <speed>0.0</speed>
  <fix>3d</fix>
</trkpt>
<trkpt lat="-27.274439" lon="151.290064">
  <ele>342.87</ele>
  <time>2026-09-01T19:52:59Z</time>
  <course>10.8</course>
  <speed>0.0</speed>
  <fix>3d</fix>
</trkpt>
<trkpt lat="-27.274439" lon="151.290064">
  <ele>343.1</ele>
  <time>2026-09-01T19:52:59Z</time>
  <course>270.0</course>
  <speed>0.0</speed>
  <fix>3d</fix>
</trkpt>
<trkpt lat="-27.274439" lon="151.290064">
  <ele>343.12</ele>
  <time>2026-09-01T19:52:59Z</time>
  <course>10.8</course>
  <speed>0.0</speed>
  <fix>3d</fix>
</trkpt>
<trkpt lat="-27.274439" lon="151.290064">
  <ele>343.1</ele>
  <time>2026-09-01T19:52:59Z</time>
  <course>270.0</course>
  <speed>0.0</speed>
  <fix>3d</fix>
</trkpt>
<trkpt lat="-27.274439" lon="151.290064">
  <ele>342.99</ele>
  <time>2026-09-01T19:52:59Z</time>
  <course>10.8</course>
  <speed>0.0</speed>
  <fix>3d</fix>
</trkpt>
<trkpt lat="-27.274439" lon="151.290064">
  <ele>343.1</ele>
  <time>2026-09-01T19:52:59Z</time>
  <course>270.0</course>
  <speed>0.0</speed>
  <fix>3d</fix>
</trkpt>
<trkpt lat="-27.274439" lon="151.290064">
  <ele>343.13</ele>
  <time>2026-09-01T19:52:59Z</time>
  <course>10.8</course>
  <speed>0.0</speed>
  <fix>3d</fix>
</trkpt>
<trkpt lat="-27.274439" lon="151.290064">
  <ele>343.1</ele>
  <time>2026-09-01T19:52:59Z</time>
  <course>270.0</course>
  <speed>0.0</speed>
  <fix>3d</fix>
</trkpt>
<trkpt lat="-27.274439" lon="151.290064">
  <ele>343.0</ele>
  <time>2026-09-01T19:52:59Z</time>
  <course>10.8</course>
  <speed>0.0</speed>
  <fix>3d</fix>
</trkpt>
<trkpt lat="-27.274439" lon="151.290064">
  <ele>343.1</ele>
  <time>2026-09-01T19:52:59Z</time>
  <course>270.0</course>
  <speed>0.0</speed>
  <fix>3d</fix>
</trkpt>
<trkpt lat="-27.274439" lon="151.290064">
  <ele>343.17</ele>
  <time>2026-09-01T19:52:59Z</time>
  <course>10.8</course>
  <speed>0.0</speed>
  <fix>3d</fix>
</trkpt>
<trkpt lat="-27.274439" lon="151.290064">
  <ele>343.1</ele>
  <time>2026-09-01T19:52:59Z</time>
  <course>270.0</course>
  <speed>0.0</speed>
  <fix>3d</fix>
</trkpt>
<trkpt lat="-27.274439" lon="151.290064">
  <ele>343.0</ele>
  <time>2026-09-01T19:52:59Z</time>
  <course>10.8</course>
  <speed>0.0</speed>
  <fix>3d</fix>
</trkpt>
<trkpt lat="-27.274439" lon="151.290064">
  <ele>343.1</ele>
  <time>2026-09-01T19:52:59Z</time>
  <course>270.0</course>
  <speed>0.0</speed>
  <fix>3d</fix>
</trkpt>
<trkpt lat="-27.274439" lon="151.290064">
  <ele>342.99</ele>
  <time>2026-09-01T19:52:59Z</time>
  <course>10.8</course>
  <speed>0.0</speed>
  <fix>3d</fix>
</trkpt>
<trkpt lat="-27.274439" lon="151.290064">
  <ele>343.1</ele>
  <time>2026-09-01T19:52:59Z</time>
  <course>270.0</course>
  <speed>0.0</speed>
  <fix>3d</fix>
</trkpt>
<trkpt lat="-27.274439" lon="151.290064">
  <ele>343.17</ele>
  <time>2026-09-01T19:52:59Z</time>
  <course>10.8</course>
  <speed>0.0</speed>
  <fix>3d</fix>
</trkpt>
<trkpt lat="-27.274439" lon="151.290064">
  <ele>343.1</ele>
  <time>2026-09-01T19:52:59Z</time>
  <course>270.0</course>
  <speed>0.0</speed>
  <fix>3d</fix>
</trkpt>
<trkpt lat="-27.274439" lon="151.290064">
  <ele>343.16</ele>
  <time>2026-09-01T19:52:59Z</time>
  <course>10.8</course>
  <speed>0.0</speed>
  <fix>3d</fix>
</trkpt>
<trkpt lat="-27.274439" lon="151.290064">
  <ele>343.1</ele>
  <time>2026-09-01T19:52:59Z</time>
  <course>270.0</course>
  <speed>0.0</speed>
  <fix>3d</fix>
</trkpt>
<trkpt lat="-27.274439" lon="151.290064">
  <ele>342.87</ele>
  <time>2026-09-01T19:52:59Z</time>
  <course>10.8</course>
  <speed>0.0</speed>
  <fix>3d</fix>
</trkpt>
<trkpt lat="-27.274439" lon="151.290064">
  <ele>343.1</ele>
  <time>2026-09-01T19:52:59Z</time>
  <course>270.0</course>
  <speed>0.0</speed>
  <fix>3d</fix>
</trkpt>
<trkpt lat="-27.274439" lon="151.290064">
  <ele>343.19</ele>
  <time>2026-09-01T19:52:59Z</time>
  <course>10.8</course>
  <speed>0.0</speed>
  <fix>3d</fix>
</trkpt>
<trkpt lat="-27.274439" lon="151.290064">
  <ele>343.1</ele>
  <time>2026-09-01T19:52:59Z</time>
  <course>270.0</course>
  <speed>0.0</speed>
  <fix>3d</fix>
</trkpt>
<trkpt lat="-27.274439" lon="151.290064">
  <ele>343.16</ele>
  <time>2026-09-01T19:52:59Z</time>
  <course>10.8</course>
  <speed>0.0</speed>
  <fix>3d</fix>
</trkpt>
<trkpt lat="-27.274439" lon="151.290064">
  <ele>343.1</ele>
  <time>2026-09-01T19:52:59Z</time>
  <course>270.0</course>
  <speed>0.0</speed>
  <fix>3d</fix>
</trkpt>
<trkpt lat="-27.274439" lon="151.290064">
  <ele>343.21</ele>
  <time>2026-09-01T19:52:59Z</time>
  <course>10.8</course>
  <speed>0.0</speed>
  <fix>3d</fix>
</trkpt>
<trkpt lat="-27.274439" lon="151.290064">
  <ele>343.1</ele>
  <time>2026-09-01T19:52:59Z</time>
  <course>270.0</course>
  <speed>0.0</speed>
  <fix>3d</fix>
</trkpt>
<trkpt lat="-27.274439" lon="151.290064">
  <ele>343.22</ele>
  <time>2026-09-01T19:52:59Z</time>
  <course>10.8</course>
  <speed>0.0</speed>
  <fix>3d</fix>
</trkpt>
<trkpt lat="-27.274439" lon="151.290064">
  <ele>343.1</ele>
  <time>2026-09-01T19:52:59Z</time>
  <course>270.0</course>
  <speed>0.0</speed>
  <fix>3d</fix>
</trkpt>
<trkpt lat="-27.274439" lon="151.290064">
  <ele>343.24</ele>
  <time>2026-09-01T19:52:59Z</time>
  <course>10.8</course>
  <speed>0.0</speed>
  <fix>3d</fix>
</trkpt>
<trkpt lat="-27.274439" lon="151.290064">
  <ele>343.1</ele>
  <time>2026-09-01T19:52:59Z</time>
  <course>270.0</course>
  <speed>0.0</speed>
  <fix>3d</fix>
</trkpt>
<trkpt lat="-27.274439" lon="151.290064">
  <ele>343.0</ele>
  <time>2026-09-01T19:52:59Z</time>
  <course>10.8</course>
  <speed>0.0</speed>
  <fix>3d</fix>
</trkpt>
<trkpt lat="-27.274439" lon="151.290064">
  <ele>343.1</ele>
  <time>2026-09-01T19:52:59Z</time>
  <course>270.0</course>
  <speed>0.0</speed>
  <fix>3d</fix>
</trkpt>
<trkpt lat="-27.274439" lon="151.290064">
  <ele>343.1</ele>
  <time>2026-09-01T19:52:59Z</time>
  <course>10.8</course>
  <speed>0.0</speed>
  <fix>3d</fix>
</trkpt>
<trkpt lat="-27.274439" lon="151.290064">
  <ele>343.1</ele>
  <time>2026-09-01T19:52:59Z</time>
  <course>270.0</course>
  <speed>0.0</speed>
  <fix>3d</fix>
</trkpt>
<trkpt lat="-27.274439" lon="151.290064">
  <ele>343.05</ele>
  <time>2026-09-01T19:52:59Z</time>
  <course>10.8</course>
  <speed>0.0</speed>
  <fix>3d</fix>
</trkpt>
<trkpt lat="-27.274439" lon="151.290064">
  <ele>343.1</ele>
  <time>2026-09-01T19:52:59Z</time>
  <course>270.0</course>
  <speed>0.0</speed>
  <fix>3d</fix>
</trkpt>
<trkpt lat="-27.274439" lon="151.290064">
  <ele>342.87</ele>
  <time>2026-09-01T19:52:59Z</time>
  <course>10.8</course>
  <speed>0.0</speed>
  <fix>3d</fix>
</trkpt>
<trkpt lat="-27.274439" lon="151.290064">
  <ele>343.1</ele>
  <time>2026-09-01T19:52:59Z</time>
  <course>270.0</course>
  <speed>0.0</speed>
  <fix>3d</fix>
</trkpt>
<trkpt lat="-27.274439" lon="151.290064">
  <ele>342.92</ele>
  <time>2026-09-01T19:52:59Z</time>
  <course>10.8</course>
  <speed>0.0</speed>
  <fix>3d</fix>
</trkpt>
<trkpt lat="-27.274439" lon="151.290064">
  <ele>343.1</ele>
  <time>2026-09-01T19:52:59Z</time>
  <course>270.0</course>
  <speed>0.0</speed>
  <fix>3d</fix>
</trkpt>
<trkpt lat="-27.274439" lon="151.290064">
  <ele>342.96</ele>
  <time>2026-09-01T19:52:59Z</time>
  <course>10.8</course>
  <speed>0.0</speed>
  <fix>3d</fix>
</trkpt>
<trkpt lat="-27.274439" lon="151.290064">
  <ele>343.1</ele>
  <time>2026-09-01T19:52:59Z</time>
  <course>270.0</course>
  <speed>0.0</speed>
  <fix>3d</fix>
</trkpt>
<trkpt lat="-27.274439" lon="151.290064">
  <ele>343.15</ele>
  <time>2026-09-01T19:52:59Z</time>
  <course>10.8</course>
  <speed>0.0</speed>
  <fix>3d</fix>
</trkpt>
<trkpt lat="-27.274439" lon="151.290064">
  <ele>343.1</ele>
  <time>2026-09-01T19:52:59Z</time>
  <course>270.0</course>
  <speed>0.0</speed>
  <fix>3d</fix>
</trkpt>
<trkpt lat="-27.274439" lon="151.290064">
  <ele>343.16</ele>
  <time>2026-09-01T19:52:59Z</time>
  <course>10.81</course>
  <speed>0.0</speed>
  <fix>3d</fix>
</trkpt>
<trkpt lat="-27.274439" lon="151.290064">
  <ele>343.1</ele>
  <time>2026-09-01T19:52:59Z</time>
  <course>270.0</course>
  <speed>0.0</speed>
  <fix>3d</fix>
</trkpt>
<trkpt lat="-27.274439" lon="151.290064">
  <ele>343.2</ele>
  <time>2026-09-01T19:52:59Z</time>
  <course>10.82</course>
  <speed>0.0</speed>
  <fix>3d</fix>
</trkpt>
<trkpt lat="-27.274439" lon="151.290064">
  <ele>343.1</ele>
  <time>2026-09-01T19:52:59Z</time>
  <course>270.0</course>
  <speed>0.0</speed>
  <fix>3d</fix>
</trkpt>
<trkpt lat="-27.274439" lon="151.290064">
  <ele>343.09</ele>
  <time>2026-09-01T19:52:59Z</time>
  <course>10.71</course>
  <speed>0.0</speed>
  <fix>3d</fix>
</trkpt>
<trkpt lat="-27.274439" lon="151.290064">
  <ele>343.1</ele>
  <time>2026-09-01T19:52:59Z</time>
  <course>270.0</course>
  <speed>0.0</speed>
  <fix>3d</fix>
</trkpt>
<trkpt lat="-27.274439" lon="151.290064">
  <ele>343.09</ele>
  <time>2026-09-01T19:52:59Z</time>
  <course>10.71</course>
  <speed>0.0</speed>
  <fix>3d</fix>
</trkpt>
<trkpt lat="-27.274439" lon="151.290064">
  <ele>343.1</ele>
  <time>2026-09-01T19:52:59Z</time>
  <course>270.0</course>
  <speed>0.0</speed>
  <fix>3d</fix>
</trkpt>
<trkpt lat="-27.274439" lon="151.290064">
  <ele>343.09</ele>
  <time>2026-09-01T19:52:59Z</time>
  <course>10.71</course>
  <speed>0.0</speed>
  <fix>3d</fix>
</trkpt>
<trkpt lat="-27.274439" lon="151.290064">
  <ele>343.1</ele>
  <time>2026-09-01T19:52:59Z</time>
  <course>270.0</course>
  <speed>0.0</speed>
  <fix>3d</fix>
</trkpt>
<trkpt lat="-27.274439" lon="151.290064">
  <ele>343.1</ele>
  <time>2026-09-01T19:52:59Z</time>
  <course>10.71</course>
  <speed>0.0</speed>
  <fix>3d</fix>
</trkpt>
<trkpt lat="-27.274439" lon="151.290064">
  <ele>343.1</ele>
  <time>2026-09-01T19:52:59Z</time>
  <course>270.0</course>
  <speed>0.0</speed>
  <fix>3d</fix>
</trkpt>
<trkpt lat="-27.274439" lon="151.290064">
  <ele>343.1</ele>
  <time>2026-09-01T19:52:59Z</time>
  <course>10.71</course>
  <speed>0.0</speed>
  <fix>3d</fix>
</trkpt>
<trkpt lat="-27.274439" lon="151.290064">
  <ele>343.1</ele>
  <time>2026-09-01T19:52:59Z</time>
  <course>270.0</course>
  <speed>0.0</speed>
  <fix>3d</fix>
</trkpt>
<trkpt lat="-27.274439" lon="151.290064">
  <ele>343.1</ele>
  <time>2026-09-01T19:52:59Z</time>
  <course>10.71</course>
  <speed>0.0</speed>
  <fix>3d</fix>
</trkpt>
<trkpt lat="-27.274439" lon="151.290064">
  <ele>343.1</ele>
  <time>2026-09-01T19:52:59Z</time>
  <course>270.0</course>
  <speed>0.0</speed>
  <fix>3d</fix>
</trkpt>
<trkpt lat="-27.274439" lon="151.290064">
  <ele>343.1</ele>
  <time>2026-09-01T19:52:59Z</time>
  <course>10.71</course>
  <speed>0.0</speed>
  <fix>3d</fix>
</trkpt>
<trkpt lat="-27.274439" lon="151.290064">
  <ele>343.1</ele>
  <time>2026-09-01T19:52:59Z</time>
  <course>270.0</course>
  <speed>0.0</speed>
  <fix>3d</fix>
</trkpt>
<trkpt lat="-27.274439" lon="151.290064">
  <ele>343.11</ele>
  <time>2026-09-01T19:52:59Z</time>
  <course>10.71</course>
  <speed>0.0</speed>
  <fix>3d</fix>
</trkpt>
<trkpt lat="-27.274439" lon="151.290064">
  <ele>343.1</ele>
  <time>2026-09-01T19:52:59Z</time>
  <course>270.0</course>
  <speed>0.0</speed>
  <fix>3d</fix>
</trkpt>
<trkpt lat="-27.274439" lon="151.290064">
  <ele>343.11</ele>
  <time>2026-09-01T19:52:59Z</time>
  <course>10.71</course>
  <speed>0.0</speed>
  <fix>3d</fix>
</trkpt>
<trkpt lat="-27.274439" lon="151.290064">
  <ele>343.1</ele>
  <time>2026-09-01T19:52:59Z</time>
  <course>270.0</course>
  <speed>0.0</speed>
  <fix>3d</fix>
</trkpt>
<trkpt lat="-27.274439" lon="151.290064">
  <ele>343.11</ele>
  <time>2026-09-01T19:52:59Z</time>
  <course>10.71</course>
  <speed>0.0</speed>
  <fix>3d</fix>
</trkpt>
<trkpt lat="-27.274439" lon="151.290064">
  <ele>343.1</ele>
  <time>2026-09-01T19:52:59Z</time>
  <course>270.0</course>
  <speed>0.0</speed>
  <fix>3d</fix>
</trkpt>
<trkpt lat="-27.274439" lon="151.290064">
  <ele>343.12</ele>
  <time>2026-09-01T19:52:59Z</time>
  <course>10.71</course>
  <speed>0.0</speed>
  <fix>3d</fix>
</trkpt>
<trkpt lat="-27.274439" lon="151.290064">
  <ele>343.1</ele>
  <time>2026-09-01T19:52:59Z</time>
  <course>270.0</course>
  <speed>0.0</speed>
  <fix>3d</fix>
</trkpt>
<trkpt lat="-27.274439" lon="151.290064">
  <ele>343.12</ele>
  <time>2026-09-01T19:52:59Z</time>
  <course>10.71</course>
  <speed>0.0</speed>
  <fix>3d</fix>
</trkpt>
<trkpt lat="-27.274439" lon="151.290064">
  <ele>343.1</ele>
  <time>2026-09-01T19:52:59Z</time>
  <course>270.0</course>
  <speed>0.0</speed>
  <fix>3d</fix>
</trkpt>
<trkpt lat="-27.274439" lon="151.290064">
  <ele>343.12</ele>
  <time>2026-09-01T19:52:59Z</time>
  <course>10.71</course>
  <speed>0.0</speed>
  <fix>3d</fix>
</trkpt>
<trkpt lat="-27.274439" lon="151.290064">
  <ele>343.1</ele>
  <time>2026-09-01T19:52:59Z</time>
  <course>270.0</course>
  <speed>0.0</speed>
  <fix>3d</fix>
</trkpt>
<trkpt lat="-27.274439" lon="151.290064">
  <ele>343.1</ele>
  <time>2026-09-01T19:52:59Z</time>
  <course>10.71</course>
  <speed>0.0</speed>
  <fix>3d</fix>
</trkpt>
<trkpt lat="-27.274439" lon="151.290064">
  <ele>343.1</ele>
  <time>2026-09-01T19:52:59Z</time>
  <course>270.0</course>
  <speed>0.0</speed>
  <fix>3d</fix>
</trkpt>
<trkpt lat="-27.274439" lon="151.290064">
  <ele>343.1</ele>
  <time>2026-09-01T19:52:59Z</time>
  <course>10.71</course>
  <speed>0.0</speed>
  <fix>3d</fix>
</trkpt>
<trkpt lat="-27.274439" lon="151.290064">
  <ele>343.1</ele>
  <time>2026-09-01T19:52:59Z</time>
  <course>270.0</course>
  <speed>0.0</speed>
  <fix>3d</fix>
</trkpt>
<trkpt lat="-27.274439" lon="151.290064">
  <ele>343.1</ele>
  <time>2026-09-01T19:52:59Z</time>
  <course>10.71</course>
  <speed>0.0</speed>
  <fix>3d</fix>
</trkpt>
<trkpt lat="-27.274439" lon="151.290064">
  <ele>343.1</ele>
  <time>2026-09-01T19:52:59Z</time>
  <course>270.0</course>
  <speed>0.0</speed>
  <fix>3d</fix>
</trkpt>
<trkpt lat="-27.274439" lon="151.290064">
  <ele>343.09</ele>
  <time>2026-09-01T19:52:59Z</time>
  <course>10.71</course>
  <speed>0.0</speed>
  <fix>3d</fix>
</trkpt>
<trkpt lat="-27.274439" lon="151.290064">
  <ele>343.1</ele>
  <time>2026-09-01T19:52:59Z</time>
  <course>270.0</course>
  <speed>0.0</speed>
  <fix>3d</fix>
</trkpt>
<trkpt lat="-27.274439" lon="151.290064">
  <ele>343.09</ele>
  <time>2026-09-01T19:52:59Z</time>
  <course>10.71</course>
  <speed>0.0</speed>
  <fix>3d</fix>
</trkpt>
<trkpt lat="-27.274439" lon="151.290064">
  <ele>343.1</ele>
  <time>2026-09-01T19:52:59Z</time>
  <course>270.0</course>
  <speed>0.0</speed>
  <fix>3d</fix>
</trkpt>
<trkpt lat="-27.274439" lon="151.290064">
  <ele>343.09</ele>
  <time>2026-09-01T19:52:59Z</time>
  <course>10.71</course>
  <speed>0.0</speed>
  <fix>3d</fix>
</trkpt>
<trkpt lat="-27.274439" lon="151.290064">
  <ele>343.1</ele>
  <time>2026-09-01T19:52:59Z</time>
  <course>270.0</course>
  <speed>0.0</speed>
  <fix>3d</fix>
</trkpt>
<trkpt lat="-27.274439" lon="151.290064">
  <ele>343.1</ele>
  <time>2026-09-01T19:52:59Z</time>
  <course>10.71</course>
  <speed>0.0</speed>
  <fix>3d</fix>
</trkpt>
<trkpt lat="-27.274439" lon="151.290064">
  <ele>343.1</ele>
  <time>2026-09-01T19:52:59Z</time>
  <course>270.0</course>
  <speed>0.0</speed>
  <fix>3d</fix>
</trkpt>
<trkpt lat="-27.274439" lon="151.290064">
  <ele>343.09</ele>
  <time>2026-09-01T19:52:59Z</time>
  <course>10.71</course>
  <speed>0.0</speed>
  <fix>3d</fix>
</trkpt>
<trkpt lat="-27.274439" lon="151.290064">
  <ele>343.1</ele>
  <time>2026-09-01T19:52:59Z</time>
  <course>270.0</course>
  <speed>0.0</speed>
  <fix>3d</fix>
</trkpt>
<trkpt lat="-27.274439" lon="151.290064">
  <ele>343.09</ele>
  <time>2026-09-01T19:52:59Z</time>
  <course>10.71</course>
  <speed>0.0</speed>
  <fix>3d</fix>
</trkpt>
<trkpt lat="-27.274439" lon="151.290064">
  <ele>343.1</ele>
  <time>2026-09-01T19:52:59Z</time>
  <course>270.0</course>
  <speed>0.0</speed>
  <fix>3d</fix>
</trkpt>
<trkpt lat="-27.274439" lon="151.290064">
  <ele>343.09</ele>
  <time>2026-09-01T19:52:59Z</time>
  <course>10.71</course>
  <speed>0.0</speed>
  <fix>3d</fix>
</trkpt>
<trkpt lat="-27.274439" lon="151.290064">
  <ele>343.1</ele>
  <time>2026-09-01T19:52:59Z</time>
  <course>270.0</course>
  <speed>0.0</speed>
  <fix>3d</fix>
</trkpt>
<trkpt lat="-27.274439" lon="151.290064">
  <ele>343.09</ele>
  <time>2026-09-01T19:52:59Z</time>
  <course>10.71</course>
  <speed>0.0</speed>
  <fix>3d</fix>
</trkpt>
<trkpt lat="-27.274439" lon="151.290064">
  <ele>343.1</ele>
  <time>2026-09-01T19:52:59Z</time>
  <course>270.0</course>
  <speed>0.0</speed>
  <fix>3d</fix>
</trkpt>
<trkpt lat="-27.274439" lon="151.290064">
  <ele>343.09</ele>
  <time>2026-09-01T19:52:59Z</time>
  <course>10.71</course>
  <speed>0.0</speed>
  <fix>3d</fix>
</trkpt>
<trkpt lat="-27.274439" lon="151.290064">
  <ele>343.1</ele>
  <time>2026-09-01T19:52:59Z</time>
  <course>270.0</course>
  <speed>0.0</speed>
  <fix>3d</fix>
</trkpt>
<trkpt lat="-27.274439" lon="151.290064">
  <ele>343.09</ele>
  <time>2026-09-01T19:52:59Z</time>
  <course>10.71</course>
  <speed>0.0</speed>
  <fix>3d</fix>
</trkpt>
<trkpt lat="-27.274439" lon="151.290064">
  <ele>343.1</ele>
  <time>2026-09-01T19:52:59Z</time>
  <course>270.0</course>
  <speed>0.0</speed>
  <fix>3d</fix>
</trkpt>
<trkpt lat="-27.274439" lon="151.290064">
  <ele>343.09</ele>
  <time>2026-09-01T19:52:59Z</time>
  <course>10.71</course>
  <speed>0.0</speed>
  <fix>3d</fix>
</trkpt>
<trkpt lat="-27.274439" lon="151.290064">
  <ele>343.1</ele>
  <time>2026-09-01T19:52:59Z</time>
  <course>270.0</course>
  <speed>0.0</speed>
  <fix>3d</fix>
</trkpt>
<trkpt lat="-27.274439" lon="151.290064">
  <ele>343.09</ele>
  <time>2026-09-01T19:52:59Z</time>
  <course>10.71</course>
  <speed>0.0</speed>
  <fix>3d</fix>
</trkpt>
<trkpt lat="-27.274439" lon="151.290064">
  <ele>343.1</ele>
  <time>2026-09-01T19:52:59Z</time>
  <course>270.0</course>
  <speed>0.0</speed>
  <fix>3d</fix>
</trkpt>
<trkpt lat="-27.274439" lon="151.290064">
  <ele>343.09</ele>
  <time>2026-09-01T19:52:59Z</time>
  <course>10.71</course>
  <speed>0.0</speed>
  <fix>3d</fix>
</trkpt>
<trkpt lat="-27.274439" lon="151.290064">
  <ele>343.1</ele>
  <time>2026-09-01T19:52:59Z</time>
  <course>270.0</course>
  <speed>0.0</speed>
  <fix>3d</fix>
</trkpt>
<trkpt lat="-27.274439" lon="151.290064">
  <ele>343.1</ele>
  <time>2026-09-01T19:52:59Z</time>
  <course>10.71</course>
  <speed>0.0</speed>
  <fix>3d</fix>
</trkpt>
<trkpt lat="-27.274439" lon="151.290064">
  <ele>343.1</ele>
  <time>2026-09-01T19:52:59Z</time>
  <course>270.0</course>
  <speed>0.0</speed>
  <fix>3d</fix>
</trkpt>
<trkpt lat="-27.274439" lon="151.290064">
  <ele>343.1</ele>
  <time>2026-09-01T19:52:59Z</time>
  <course>10.71</course>
  <speed>0.0</speed>
  <fix>3d</fix>
</trkpt>
<trkpt lat="-27.274439" lon="151.290064">
  <ele>343.1</ele>
  <time>2026-09-01T19:52:59Z</time>
  <course>270.0</course>
  <speed>0.0</speed>
  <fix>3d</fix>
</trkpt>
<trkpt lat="-27.274439" lon="151.290064">
  <ele>343.1</ele>
  <time>2026-09-01T19:52:59Z</time>
  <course>10.71</course>
  <speed>0.0</speed>
  <fix>3d</fix>
</trkpt>
<trkpt lat="-27.274439" lon="151.290064">
  <ele>343.1</ele>
  <time>2026-09-01T19:52:59Z</time>
  <course>270.0</course>
  <speed>0.0</speed>
  <fix>3d</fix>
</trkpt>
<trkpt lat="-27.274439" lon="151.290064">
  <ele>343.11</ele>
  <time>2026-09-01T19:52:59Z</time>
  <course>10.71</course>
  <speed>0.0</speed>
  <fix>3d</fix>
</trkpt>
<trkpt lat="-27.274439" lon="151.290064">
  <ele>343.1</ele>
  <time>2026-09-01T19:52:59Z</time>
  <course>270.0</course>
  <speed>0.0</speed>
  <fix>3d</fix>
</trkpt>
<trkpt lat="-27.274439" lon="151.290064">
  <ele>343.11</ele>
  <time>2026-09-01T19:52:59Z</time>
  <course>10.71</course>
  <speed>0.0</speed>
  <fix>3d</fix>
</trkpt>
<trkpt lat="-27.274439" lon="151.290064">
  <ele>343.1</ele>
  <time>2026-09-01T19:52:59Z</time>
  <course>270.0</course>
  <speed>0.0</speed>
  <fix>3d</fix>
</trkpt>
<trkpt lat="-27.274439" lon="151.290064">
  <ele>343.11</ele>
  <time>2026-09-01T19:52:59Z</time>
  <course>10.71</course>
  <speed>0.0</speed>
  <fix>3d</fix>
</trkpt>
<trkpt lat="-27.274439" lon="151.290064">
  <ele>343.1</ele>
  <time>2026-09-01T19:52:59Z</time>
  <course>270.0</course>
  <speed>0.0</speed>
  <fix>3d</fix>
</trkpt>
<trkpt lat="-27.274439" lon="151.290064">
  <ele>343.11</ele>
  <time>2026-09-01T19:52:59Z</time>
  <course>10.71</course>
  <speed>0.0</speed>
  <fix>3d</fix>
</trkpt>
<trkpt lat="-27.274439" lon="151.290064">
  <ele>343.1</ele>
  <time>2026-09-01T19:52:59Z</time>
  <course>270.0</course>
  <speed>0.0</speed>
  <fix>3d</fix>
</trkpt>
<trkpt lat="-27.274439" lon="151.290064">
  <ele>343.12</ele>
  <time>2026-09-01T19:52:59Z</time>
  <course>10.71</course>
  <speed>0.0</speed>
  <fix>3d</fix>
</trkpt>
<trkpt lat="-27.274439" lon="151.290064">
  <ele>343.1</ele>
  <time>2026-09-01T19:52:59Z</time>
  <course>270.0</course>
  <speed>0.0</speed>
  <fix>3d</fix>
</trkpt>
<trkpt lat="-27.274439" lon="151.290064">
  <ele>343.12</ele>
  <time>2026-09-01T19:52:59Z</time>
  <course>10.71</course>
  <speed>0.0</speed>
  <fix>3d</fix>
</trkpt>
<trkpt lat="-27.274439" lon="151.290064">
  <ele>343.1</ele>
  <time>2026-09-01T19:52:59Z</time>
  <course>270.0</course>
  <speed>0.0</speed>
  <fix>3d</fix>
</trkpt>
<trkpt lat="-27.274439" lon="151.290064">
  <ele>343.12</ele>
  <time>2026-09-01T19:52:59Z</time>
  <course>10.71</course>
  <speed>0.0</speed>
  <fix>3d</fix>
</trkpt>
<trkpt lat="-27.274439" lon="151.290064">
  <ele>343.1</ele>
  <time>2026-09-01T19:52:59Z</time>
  <course>270.0</course>
  <speed>0.0</speed>
  <fix>3d</fix>
</trkpt>
<trkpt lat="-27.274439" lon="151.290064">
  <ele>343.12</ele>
  <time>2026-09-01T19:52:59Z</time>
  <course>10.71</course>
  <speed>0.0</speed>
  <fix>3d</fix>
</trkpt>
<trkpt lat="-27.274439" lon="151.290064">
  <ele>343.1</ele>
  <time>2026-09-01T19:52:59Z</time>
  <course>270.0</course>
  <speed>0.0</speed>
  <fix>3d</fix>
</trkpt>
<trkpt lat="-27.274439" lon="151.290064">
  <ele>343.12</ele>
  <time>2026-09-01T19:52:59Z</time>
  <course>10.71</course>
  <speed>0.0</speed>
  <fix>3d</fix>
</trkpt>
<trkpt lat="-27.274439" lon="151.290064">
  <ele>343.1</ele>
  <time>2026-09-01T19:52:59Z</time>
  <course>270.0</course>
  <speed>0.0</speed>
  <fix>3d</fix>
</trkpt>
<trkpt lat="-27.274439" lon="151.290064">
  <ele>343.13</ele>
  <time>2026-09-01T19:52:59Z</time>
  <course>10.71</course>
  <speed>0.0</speed>
  <fix>3d</fix>
</trkpt>
<trkpt lat="-27.274439" lon="151.290064">
  <ele>343.1</ele>
  <time>2026-09-01T19:52:59Z</time>
  <course>270.0</course>
  <speed>0.0</speed>
  <fix>3d</fix>
</trkpt>
<trkpt lat="-27.274439" lon="151.290064">
  <ele>343.13</ele>
  <time>2026-09-01T19:52:59Z</time>
  <course>10.71</course>
  <speed>0.0</speed>
  <fix>3d</fix>
</trkpt>
<trkpt lat="-27.274439" lon="151.290064">
  <ele>343.1</ele>
  <time>2026-09-01T19:52:59Z</time>
  <course>270.0</course>
  <speed>0.0</speed>
  <fix>3d</fix>
</trkpt>
<trkpt lat="-27.274439" lon="151.290064">
  <ele>343.13</ele>
  <time>2026-09-01T19:52:59Z</time>
  <course>10.71</course>
  <speed>0.0</speed>
  <fix>3d</fix>
</trkpt>
<trkpt lat="-27.274439" lon="151.290064">
  <ele>343.1</ele>
  <time>2026-09-01T19:52:59Z</time>
  <course>270.0</course>
  <speed>0.0</speed>
  <fix>3d</fix>
</trkpt>
<trkpt lat="-27.274439" lon="151.290064">
  <ele>343.13</ele>
  <time>2026-09-01T19:52:59Z</time>
  <course>10.71</course>
  <speed>0.0</speed>
  <fix>3d</fix>
</trkpt>
<trkpt lat="-27.274439" lon="151.290064">
  <ele>343.1</ele>
  <time>2026-09-01T19:52:59Z</time>
  <course>270.0</course>
  <speed>0.0</speed>
  <fix>3d</fix>
</trkpt>
<trkpt lat="-27.274439" lon="151.290064">
  <ele>343.13</ele>
  <time>2026-09-01T19:52:59Z</time>
  <course>10.71</course>
  <speed>0.0</speed>
  <fix>3d</fix>
</trkpt>
<trkpt lat="-27.274439" lon="151.290064">
  <ele>343.1</ele>
  <time>2026-09-01T19:52:59Z</time>
  <course>270.0</course>
  <speed>0.0</speed>
  <fix>3d</fix>
</trkpt>
<trkpt lat="-27.274439" lon="151.290064">
  <ele>343.14</ele>
  <time>2026-09-01T19:52:59Z</time>
  <course>10.71</course>
  <speed>0.0</speed>
  <fix>3d</fix>
</trkpt>
<trkpt lat="-27.274439" lon="151.290064">
  <ele>343.1</ele>
  <time>2026-09-01T19:52:59Z</time>
  <course>270.0</course>
  <speed>0.0</speed>
  <fix>3d</fix>
</trkpt>
<trkpt lat="-27.274439" lon="151.290064">
  <ele>343.14</ele>
  <time>2026-09-01T19:52:59Z</time>
  <course>10.71</course>
  <speed>0.0</speed>
  <fix>3d</fix>
</trkpt>
<trkpt lat="-27.274439" lon="151.290064">
  <ele>343.1</ele>
  <time>2026-09-01T19:52:59Z</time>
  <course>270.0</course>
  <speed>0.0</speed>
  <fix>3d</fix>
</trkpt>
<trkpt lat="-27.274439" lon="151.290064">
  <ele>343.14</ele>
  <time>2026-09-01T19:52:59Z</time>
  <course>10.71</course>
  <speed>0.0</speed>
  <fix>3d</fix>
</trkpt>
<trkpt lat="-27.274439" lon="151.290064">
  <ele>343.1</ele>
  <time>2026-09-01T19:52:59Z</time>
  <course>270.0</course>
  <speed>0.0</speed>
  <fix>3d</fix>
</trkpt>
<trkpt lat="-27.274439" lon="151.290064">
  <ele>343.14</ele>
  <time>2026-09-01T19:52:59Z</time>
  <course>10.71</course>
  <speed>0.0</speed>
  <fix>3d</fix>
</trkpt>
<trkpt lat="-27.274439" lon="151.290064">
  <ele>343.1</ele>
  <time>2026-09-01T19:52:59Z</time>
  <course>270.0</course>
  <speed>0.0</speed>
  <fix>3d</fix>
</trkpt>
<trkpt lat="-27.274439" lon="151.290064">
  <ele>343.14</ele>
  <time>2026-09-01T19:52:59Z</time>
  <course>10.71</course>
  <speed>0.0</speed>
  <fix>3d</fix>
</trkpt>
<trkpt lat="-27.274439" lon="151.290064">
  <ele>343.1</ele>
  <time>2026-09-01T19:52:59Z</time>
  <course>270.0</course>
  <speed>0.0</speed>
  <fix>3d</fix>
</trkpt>
<trkpt lat="-27.274439" lon="151.290064">
  <ele>343.14</ele>
  <time>2026-09-01T19:52:59Z</time>
  <course>10.71</course>
  <speed>0.0</speed>
  <fix>3d</fix>
</trkpt>
<trkpt lat="-27.274439" lon="151.290064">
  <ele>343.1</ele>
  <time>2026-09-01T19:52:59Z</time>
  <course>270.0</course>
  <speed>0.0</speed>
  <fix>3d</fix>
</trkpt>
<trkpt lat="-27.274439" lon="151.290064">
  <ele>343.14</ele>
  <time>2026-09-01T19:52:59Z</time>
  <course>10.71</course>
  <speed>0.0</speed>
  <fix>3d</fix>
</trkpt>
<trkpt lat="-27.274439" lon="151.290064">
  <ele>343.1</ele>
  <time>2026-09-01T19:52:59Z</time>
  <course>270.0</course>
  <speed>0.0</speed>
  <fix>3d</fix>
</trkpt>
<trkpt lat="-27.274439" lon="151.290064">
  <ele>343.13</ele>
  <time>2026-09-01T19:52:59Z</time>
  <course>10.71</course>
  <speed>0.0</speed>
  <fix>3d</fix>
</trkpt>
<trkpt lat="-27.274439" lon="151.290064">
  <ele>343.1</ele>
  <time>2026-09-01T19:52:59Z</time>
  <course>270.0</course>
  <speed>0.0</speed>
  <fix>3d</fix>
</trkpt>
<trkpt lat="-27.274439" lon="151.290064">
  <ele>343.13</ele>
  <time>2026-09-01T19:52:59Z</time>
  <course>10.71</course>
  <speed>0.0</speed>
  <fix>3d</fix>
</trkpt>
<trkpt lat="-27.274439" lon="151.290064">
  <ele>343.1</ele>
  <time>2026-09-01T19:52:59Z</time>
  <course>270.0</course>
  <speed>0.0</speed>
  <fix>3d</fix>
</trkpt>
<trkpt lat="-27.274439" lon="151.290064">
  <ele>343.13</ele>
  <time>2026-09-01T19:52:59Z</time>
  <course>10.71</course>
  <speed>0.0</speed>
  <fix>3d</fix>
</trkpt>
<trkpt lat="-27.274439" lon="151.290064">
  <ele>343.1</ele>
  <time>2026-09-01T19:52:59Z</time>
  <course>270.0</course>
  <speed>0.0</speed>
  <fix>3d</fix>
</trkpt>
<trkpt lat="-27.274439" lon="151.290064">
  <ele>343.13</ele>
  <time>2026-09-01T19:52:59Z</time>
  <course>10.71</course>
  <speed>0.0</speed>
  <fix>3d</fix>
</trkpt>
<trkpt lat="-27.274439" lon="151.290064">
  <ele>343.1</ele>
  <time>2026-09-01T19:52:59Z</time>
  <course>270.0</course>
  <speed>0.0</speed>
  <fix>3d</fix>
</trkpt>
<trkpt lat="-27.274439" lon="151.290064">
  <ele>343.13</ele>
  <time>2026-09-01T19:52:59Z</time>
  <course>10.71</course>
  <speed>0.0</speed>
  <fix>3d</fix>
</trkpt>
<trkpt lat="-27.274439" lon="151.290064">
  <ele>343.1</ele>
  <time>2026-09-01T19:52:59Z</time>
  <course>270.0</course>
  <speed>0.0</speed>
  <fix>3d</fix>
</trkpt>
<trkpt lat="-27.274439" lon="151.290064">
  <ele>343.13</ele>
  <time>2026-09-01T19:52:59Z</time>
  <course>10.71</course>
  <speed>0.0</speed>
  <fix>3d</fix>
</trkpt>
<trkpt lat="-27.274439" lon="151.290064">
  <ele>343.1</ele>
  <time>2026-09-01T19:52:59Z</time>
  <course>270.0</course>
  <speed>0.0</speed>
  <fix>3d</fix>
</trkpt>
<trkpt lat="-27.274439" lon="151.290064">
  <ele>343.13</ele>
  <time>2026-09-01T19:52:59Z</time>
  <course>10.71</course>
  <speed>0.0</speed>
  <fix>3d</fix>
</trkpt>
<trkpt lat="-27.274439" lon="151.290064">
  <ele>343.1</ele>
  <time>2026-09-01T19:52:59Z</time>
  <course>270.0</course>
  <speed>0.0</speed>
  <fix>3d</fix>
</trkpt>
<trkpt lat="-27.274439" lon="151.290064">
  <ele>343.13</ele>
  <time>2026-09-01T19:52:59Z</time>
  <course>10.71</course>
  <speed>0.0</speed>
  <fix>3d</fix>
</trkpt>
<trkpt lat="-27.274439" lon="151.290064">
  <ele>343.1</ele>
  <time>2026-09-01T19:52:59Z</time>
  <course>270.0</course>
  <speed>0.0</speed>
  <fix>3d</fix>
</trkpt>
<trkpt lat="-27.274439" lon="151.290064">
  <ele>343.14</ele>
  <time>2026-09-01T19:52:59Z</time>
  <course>10.71</course>
  <speed>0.0</speed>
  <fix>3d</fix>
</trkpt>
<trkpt lat="-27.274439" lon="151.290064">
  <ele>343.1</ele>
  <time>2026-09-01T19:52:59Z</time>
  <course>270.0</course>
  <speed>0.0</speed>
  <fix>3d</fix>
</trkpt>
<trkpt lat="-27.274439" lon="151.290064">
  <ele>343.14</ele>
  <time>2026-09-01T19:52:59Z</time>
  <course>10.71</course>
  <speed>0.0</speed>
  <fix>3d</fix>
</trkpt>
<trkpt lat="-27.274439" lon="151.290064">
  <ele>343.1</ele>
  <time>2026-09-01T19:52:59Z</time>
  <course>270.0</course>
  <speed>0.0</speed>
  <fix>3d</fix>
</trkpt>
<trkpt lat="-27.274439" lon="151.290064">
  <ele>343.14</ele>
  <time>2026-09-01T19:52:59Z</time>
  <course>10.71</course>
  <speed>0.0</speed>
  <fix>3d</fix>
</trkpt>
<trkpt lat="-27.274439" lon="151.290064">
  <ele>343.1</ele>
  <time>2026-09-01T19:52:59Z</time>
  <course>270.0</course>
  <speed>0.0</speed>
  <fix>3d</fix>
</trkpt>
<trkpt lat="-27.274439" lon="151.290064">
  <ele>343.14</ele>
  <time>2026-09-01T19:52:59Z</time>
  <course>10.71</course>
  <speed>0.0</speed>
  <fix>3d</fix>
</trkpt>
<trkpt lat="-27.274439" lon="151.290064">
  <ele>343.1</ele>
  <time>2026-09-01T19:52:59Z</time>
  <course>270.0</course>
  <speed>0.0</speed>
  <fix>3d</fix>
</trkpt>
<trkpt lat="-27.274439" lon="151.290064">
  <ele>343.14</ele>
  <time>2026-09-01T19:52:59Z</time>
  <course>10.71</course>
  <speed>0.0</speed>
  <fix>3d</fix>
</trkpt>
<trkpt lat="-27.274439" lon="151.290064">
  <ele>343.1</ele>
  <time>2026-09-01T19:52:59Z</time>
  <course>270.0</course>
  <speed>0.0</speed>
  <fix>3d</fix>
</trkpt>
<trkpt lat="-27.274439" lon="151.290064">
  <ele>343.14</ele>
  <time>2026-09-01T19:52:59Z</time>
  <course>10.71</course>
  <speed>0.0</speed>
  <fix>3d</fix>
</trkpt>
<trkpt lat="-27.274439" lon="151.290064">
  <ele>343.1</ele>
  <time>2026-09-01T19:52:59Z</time>
  <course>270.0</course>
  <speed>0.0</speed>
  <fix>3d</fix>
</trkpt>
<trkpt lat="-27.274439" lon="151.290064">
  <ele>343.15</ele>
  <time>2026-09-01T19:52:59Z</time>
  <course>10.71</course>
  <speed>0.0</speed>
  <fix>3d</fix>
</trkpt>
<trkpt lat="-27.274439" lon="151.290064">
  <ele>343.1</ele>
  <time>2026-09-01T19:52:59Z</time>
  <course>270.0</course>
  <speed>0.0</speed>
  <fix>3d</fix>
</trkpt>
<trkpt lat="-27.274439" lon="151.290064">
  <ele>343.15</ele>
  <time>2026-09-01T19:52:59Z</time>
  <course>10.71</course>
  <speed>0.0</speed>
  <fix>3d</fix>
</trkpt>
<trkpt lat="-27.274439" lon="151.290064">
  <ele>343.1</ele>
  <time>2026-09-01T19:52:59Z</time>
  <course>270.0</course>
  <speed>0.0</speed>
  <fix>3d</fix>
</trkpt>
<trkpt lat="-27.274439" lon="151.290064">
  <ele>343.15</ele>
  <time>2026-09-01T19:52:59Z</time>
  <course>10.71</course>
  <speed>0.0</speed>
  <fix>3d</fix>
</trkpt>
<trkpt lat="-27.274439" lon="151.290064">
  <ele>343.1</ele>
  <time>2026-09-01T19:52:59Z</time>
  <course>270.0</course>
  <speed>0.0</speed>
  <fix>3d</fix>
</trkpt>
<trkpt lat="-27.274439" lon="151.290064">
  <ele>343.15</ele>
  <time>2026-09-01T19:52:59Z</time>
  <course>10.71</course>
  <speed>0.0</speed>
  <fix>3d</fix>
</trkpt>
<trkpt lat="-27.274439" lon="151.290064">
  <ele>343.1</ele>
  <time>2026-09-01T19:52:59Z</time>
  <course>270.0</course>
  <speed>0.0</speed>
  <fix>3d</fix>
</trkpt>
<trkpt lat="-27.274439" lon="151.290064">
  <ele>343.15</ele>
  <time>2026-09-01T19:52:59Z</time>
  <course>10.71</course>
  <speed>0.0</speed>
  <fix>3d</fix>
</trkpt>
<trkpt lat="-27.274439" lon="151.290064">
  <ele>343.1</ele>
  <time>2026-09-01T19:52:59Z</time>
  <course>270.0</course>
  <speed>0.0</speed>
  <fix>3d</fix>
</trkpt>
<trkpt lat="-27.274439" lon="151.290064">
  <ele>343.15</ele>
  <time>2026-09-01T19:52:59Z</time>
  <course>10.71</course>
  <speed>0.0</speed>
  <fix>3d</fix>
</trkpt>
<trkpt lat="-27.274439" lon="151.290064">
  <ele>343.1</ele>
  <time>2026-09-01T19:52:59Z</time>
  <course>270.0</course>
  <speed>0.0</speed>
  <fix>3d</fix>
</trkpt>
<trkpt lat="-27.274439" lon="151.290064">
  <ele>343.1</ele>
  <time>2026-09-01T19:52:59Z</time>
  <course>10.71</course>
  <speed>0.0</speed>
  <fix>3d</fix>
</trkpt>
<trkpt lat="-27.274439" lon="151.290064">
  <ele>343.1</ele>
  <time>2026-09-01T19:52:59Z</time>
  <course>270.0</course>
  <speed>0.0</speed>
  <fix>3d</fix>
</trkpt>
<trkpt lat="-27.274439" lon="151.290064">
  <ele>343.1</ele>
  <time>2026-09-01T19:52:59Z</time>
  <course>10.71</course>
  <speed>0.0</speed>
  <fix>3d</fix>
</trkpt>
<trkpt lat="-27.274439" lon="151.290064">
  <ele>343.1</ele>
  <time>2026-09-01T19:52:59Z</time>
  <course>270.0</course>
  <speed>0.0</speed>
  <fix>3d</fix>
</trkpt>
<trkpt lat="-27.274439" lon="151.290064">
  <ele>343.1</ele>
  <time>2026-09-01T19:52:59Z</time>
  <course>10.71</course>
  <speed>0.0</speed>
  <fix>3d</fix>
</trkpt>
<trkpt lat="-27.274439" lon="151.290064">
  <ele>343.1</ele>
  <time>2026-09-01T19:52:59Z</time>
  <course>270.0</course>
  <speed>0.0</speed>
  <fix>3d</fix>
</trkpt>
<trkpt lat="-27.274439" lon="151.290064">
  <ele>343.09</ele>
  <time>2026-09-01T19:52:59Z</time>
  <course>10.71</course>
  <speed>0.0</speed>
  <fix>3d</fix>
</trkpt>
<trkpt lat="-27.274439" lon="151.290064">
  <ele>343.1</ele>
  <time>2026-09-01T19:52:59Z</time>
  <course>270.0</course>
  <speed>0.0</speed>
  <fix>3d</fix>
</trkpt>
<trkpt lat="-27.274439" lon="151.290064">
  <ele>343.09</ele>
  <time>2026-09-01T19:52:59Z</time>
  <course>10.71</course>
  <speed>0.0</speed>
  <fix>3d</fix>
</trkpt>
<trkpt lat="-27.274439" lon="151.290064">
  <ele>343.1</ele>
  <time>2026-09-01T19:52:59Z</time>
  <course>270.0</course>
  <speed>0.0</speed>
  <fix>3d</fix>
</trkpt>
<trkpt lat="-27.274439" lon="151.290064">
  <ele>343.08</ele>
  <time>2026-09-01T19:52:59Z</time>
  <course>10.71</course>
  <speed>0.0</speed>
  <fix>3d</fix>
</trkpt>
<trkpt lat="-27.274439" lon="151.290064">
  <ele>343.1</ele>
  <time>2026-09-01T19:52:59Z</time>
  <course>270.0</course>
  <speed>0.0</speed>
  <fix>3d</fix>
</trkpt>
<trkpt lat="-27.274439" lon="151.290064">
  <ele>343.08</ele>
  <time>2026-09-01T19:52:59Z</time>
  <course>10.71</course>
  <speed>0.0</speed>
  <fix>3d</fix>
</trkpt>
<trkpt lat="-27.274439" lon="151.290064">
  <ele>343.1</ele>
  <time>2026-09-01T19:52:59Z</time>
  <course>270.0</course>
  <speed>0.0</speed>
  <fix>3d</fix>
</trkpt>
<trkpt lat="-27.274439" lon="151.290064">
  <ele>343.07</ele>
  <time>2026-09-01T19:52:59Z</time>
  <course>10.71</course>
  <speed>0.0</speed>
  <fix>3d</fix>
</trkpt>
<trkpt lat="-27.274439" lon="151.290064">
  <ele>343.1</ele>
  <time>2026-09-01T19:52:59Z</time>
  <course>270.0</course>
  <speed>0.0</speed>
  <fix>3d</fix>
</trkpt>
<trkpt lat="-27.274439" lon="151.290064">
  <ele>343.07</ele>
  <time>2026-09-01T19:52:59Z</time>
  <course>10.71</course>
  <speed>0.0</speed>
  <fix>3d</fix>
</trkpt>
<trkpt lat="-27.274439" lon="151.290064">
  <ele>343.1</ele>
  <time>2026-09-01T19:52:59Z</time>
  <course>270.0</course>
  <speed>0.0</speed>
  <fix>3d</fix>
</trkpt>
<trkpt lat="-27.274439" lon="151.290064">
  <ele>343.06</ele>
  <time>2026-09-01T19:52:59Z</time>
  <course>10.71</course>
  <speed>0.0</speed>
  <fix>3d</fix>
</trkpt>
<trkpt lat="-27.274439" lon="151.290064">
  <ele>343.1</ele>
  <time>2026-09-01T19:52:59Z</time>
  <course>270.0</course>
  <speed>0.0</speed>
  <fix>3d</fix>
</trkpt>
<trkpt lat="-27.274439" lon="151.290064">
  <ele>343.06</ele>
  <time>2026-09-01T19:52:59Z</time>
  <course>10.71</course>
  <speed>0.0</speed>
  <fix>3d</fix>
</trkpt>
<trkpt lat="-27.274439" lon="151.290064">
  <ele>343.1</ele>
  <time>2026-09-01T19:52:59Z</time>
  <course>270.0</course>
  <speed>0.0</speed>
  <fix>3d</fix>
</trkpt>
<trkpt lat="-27.274439" lon="151.290064">
  <ele>343.05</ele>
  <time>2026-09-01T19:52:59Z</time>
  <course>10.71</course>
  <speed>0.0</speed>
  <fix>3d</fix>
</trkpt>
<trkpt lat="-27.274439" lon="151.290064">
  <ele>343.1</ele>
  <time>2026-09-01T19:52:59Z</time>
  <course>270.0</course>
  <speed>0.0</speed>
  <fix>3d</fix>
</trkpt>
<trkpt lat="-27.274439" lon="151.290064">
  <ele>343.05</ele>
  <time>2026-09-01T19:52:59Z</time>
  <course>10.71</course>
  <speed>0.0</speed>
  <fix>3d</fix>
</trkpt>
<trkpt lat="-27.274439" lon="151.290064">
  <ele>343.1</ele>
  <time>2026-09-01T19:52:59Z</time>
  <course>270.0</course>
  <speed>0.0</speed>
  <fix>3d</fix>
</trkpt>
<trkpt lat="-27.274439" lon="151.290064">
  <ele>343.04</ele>
  <time>2026-09-01T19:52:59Z</time>
  <course>10.71</course>
  <speed>0.0</speed>
  <fix>3d</fix>
</trkpt>
<trkpt lat="-27.274439" lon="151.290064">
  <ele>343.1</ele>
  <time>2026-09-01T19:52:59Z</time>
  <course>270.0</course>
  <speed>0.0</speed>
  <fix>3d</fix>
</trkpt>
<trkpt lat="-27.274439" lon="151.290064">
  <ele>343.04</ele>
  <time>2026-09-01T19:52:59Z</time>
  <course>10.71</course>
  <speed>0.0</speed>
  <fix>3d</fix>
</trkpt>
<trkpt lat="-27.274439" lon="151.290064">
  <ele>343.1</ele>
  <time>2026-09-01T19:52:59Z</time>
  <course>270.0</course>
  <speed>0.0</speed>
  <fix>3d</fix>
</trkpt>
<trkpt lat="-27.274439" lon="151.290064">
  <ele>343.03</ele>
  <time>2026-09-01T19:52:59Z</time>
  <course>10.71</course>
  <speed>0.0</speed>
  <fix>3d</fix>
</trkpt>
<trkpt lat="-27.274439" lon="151.290064">
  <ele>343.1</ele>
  <time>2026-09-01T19:52:59Z</time>
  <course>270.0</course>
  <speed>0.0</speed>
  <fix>3d</fix>
</trkpt>
<trkpt lat="-27.274439" lon="151.290064">
  <ele>343.02</ele>
  <time>2026-09-01T19:52:59Z</time>
  <course>10.71</course>
  <speed>0.0</speed>
  <fix>3d</fix>
</trkpt>
<trkpt lat="-27.274439" lon="151.290064">
  <ele>343.1</ele>
  <time>2026-09-01T19:52:59Z</time>
  <course>270.0</course>
  <speed>0.0</speed>
  <fix>3d</fix>
</trkpt>
<trkpt lat="-27.274439" lon="151.290064">
  <ele>343.02</ele>
  <time>2026-09-01T19:52:59Z</time>
  <course>10.71</course>
  <speed>0.0</speed>
  <fix>3d</fix>
</trkpt>
<trkpt lat="-27.274439" lon="151.290064">
  <ele>343.1</ele>
  <time>2026-09-01T19:52:59Z</time>
  <course>270.0</course>
  <speed>0.0</speed>
  <fix>3d</fix>
</trkpt>
<trkpt lat="-27.274439" lon="151.290064">
  <ele>343.01</ele>
  <time>2026-09-01T19:52:59Z</time>
  <course>10.71</course>
  <speed>0.0</speed>
  <fix>3d</fix>
</trkpt>
<trkpt lat="-27.274439" lon="151.290064">
  <ele>343.1</ele>
  <time>2026-09-01T19:52:59Z</time>
  <course>270.0</course>
  <speed>0.0</speed>
  <fix>3d</fix>
</trkpt>
<trkpt lat="-27.274439" lon="151.290064">
  <ele>343.0</ele>
  <time>2026-09-01T19:52:59Z</time>
  <course>10.71</course>
  <speed>0.0</speed>
  <fix>3d</fix>
</trkpt>
<trkpt lat="-27.274439" lon="151.290064">
  <ele>343.1</ele>
  <time>2026-09-01T19:52:59Z</time>
  <course>270.0</course>
  <speed>0.0</speed>
  <fix>3d</fix>
</trkpt>
<trkpt lat="-27.274439" lon="151.290064">
  <ele>343.0</ele>
  <time>2026-09-01T19:52:59Z</time>
  <course>10.71</course>
  <speed>0.0</speed>
  <fix>3d</fix>
</trkpt>
<trkpt lat="-27.274439" lon="151.290064">
  <ele>343.1</ele>
  <time>2026-09-01T19:52:59Z</time>
  <course>270.0</course>
  <speed>0.0</speed>
  <fix>3d</fix>
</trkpt>
<trkpt lat="-27.274439" lon="151.290064">
  <ele>342.99</ele>
  <time>2026-09-01T19:52:59Z</time>
  <course>10.71</course>
  <speed>0.0</speed>
  <fix>3d</fix>
</trkpt>
<trkpt lat="-27.274439" lon="151.290064">
  <ele>343.1</ele>
  <time>2026-09-01T19:52:59Z</time>
  <course>270.0</course>
  <speed>0.0</speed>
  <fix>3d</fix>
</trkpt>
<trkpt lat="-27.274439" lon="151.290064">
  <ele>342.99</ele>
  <time>2026-09-01T19:52:59Z</time>
  <course>10.71</course>
  <speed>0.0</speed>
  <fix>3d</fix>
</trkpt>
<trkpt lat="-27.274439" lon="151.290064">
  <ele>343.1</ele>
  <time>2026-09-01T19:52:59Z</time>
  <course>270.0</course>
  <speed>0.0</speed>
  <fix>3d</fix>
</trkpt>
<trkpt lat="-27.274439" lon="151.290064">
  <ele>342.99</ele>
  <time>2026-09-01T19:52:59Z</time>
  <course>10.71</course>
  <speed>0.0</speed>
  <fix>3d</fix>
</trkpt>
<trkpt lat="-27.274439" lon="151.290064">
  <ele>343.1</ele>
  <time>2026-09-01T19:52:59Z</time>
  <course>270.0</course>
  <speed>0.0</speed>
  <fix>3d</fix>
</trkpt>
<trkpt lat="-27.274439" lon="151.290064">
  <ele>342.99</ele>
  <time>2026-09-01T19:52:59Z</time>
  <course>10.71</course>
  <speed>0.0</speed>
  <fix>3d</fix>
</trkpt>
<trkpt lat="-27.274439" lon="151.290064">
  <ele>343.1</ele>
  <time>2026-09-01T19:52:59Z</time>
  <course>270.0</course>
  <speed>0.0</speed>
  <fix>3d</fix>
</trkpt>
<trkpt lat="-27.274439" lon="151.290064">
  <ele>342.99</ele>
  <time>2026-09-01T19:52:59Z</time>
  <course>10.71</course>
  <speed>0.0</speed>
  <fix>3d</fix>
</trkpt>
<trkpt lat="-27.274439" lon="151.290064">
  <ele>343.1</ele>
  <time>2026-09-01T19:52:59Z</time>
  <course>270.0</course>
  <speed>0.0</speed>
  <fix>3d</fix>
</trkpt>
<trkpt lat="-27.274439" lon="151.290064">
  <ele>342.98</ele>
  <time>2026-09-01T19:52:59Z</time>
  <course>10.71</course>
  <speed>0.0</speed>
  <fix>3d</fix>
</trkpt>
<trkpt lat="-27.274439" lon="151.290064">
  <ele>343.1</ele>
  <time>2026-09-01T19:52:59Z</time>
  <course>270.0</course>
  <speed>0.0</speed>
  <fix>3d</fix>
</trkpt>
<trkpt lat="-27.274439" lon="151.290064">
  <ele>342.98</ele>
  <time>2026-09-01T19:52:59Z</time>
  <course>10.71</course>
  <speed>0.0</speed>
  <fix>3d</fix>
</trkpt>
<trkpt lat="-27.274439" lon="151.290064">
  <ele>343.1</ele>
  <time>2026-09-01T19:52:59Z</time>
  <course>270.0</course>
  <speed>0.0</speed>
  <fix>3d</fix>
</trkpt>
<trkpt lat="-27.274439" lon="151.290064">
  <ele>342.98</ele>
  <time>2026-09-01T19:52:59Z</time>
  <course>10.71</course>
  <speed>0.0</speed>
  <fix>3d</fix>
</trkpt>
<trkpt lat="-27.274439" lon="151.290064">
  <ele>343.1</ele>
  <time>2026-09-01T19:52:59Z</time>
  <course>270.0</course>
  <speed>0.0</speed>
  <fix>3d</fix>
</trkpt>
<trkpt lat="-27.274439" lon="151.290064">
  <ele>342.98</ele>
  <time>2026-09-01T19:52:59Z</time>
  <course>10.71</course>
  <speed>0.0</speed>
  <fix>3d</fix>
</trkpt>
<trkpt lat="-27.274439" lon="151.290064">
  <ele>343.1</ele>
  <time>2026-09-01T19:52:59Z</time>
  <course>270.0</course>
  <speed>0.0</speed>
  <fix>3d</fix>
</trkpt>
<trkpt lat="-27.274439" lon="151.290064">
  <ele>342.97</ele>
  <time>2026-09-01T19:52:59Z</time>
  <course>10.71</course>
  <speed>0.0</speed>
  <fix>3d</fix>
</trkpt>
<trkpt lat="-27.274439" lon="151.290064">
  <ele>343.1</ele>
  <time>2026-09-01T19:52:59Z</time>
  <course>270.0</course>
  <speed>0.0</speed>
  <fix>3d</fix>
</trkpt>
<trkpt lat="-27.274439" lon="151.290064">
  <ele>342.97</ele>
  <time>2026-09-01T19:52:59Z</time>
  <course>10.71</course>
  <speed>0.0</speed>
  <fix>3d</fix>
</trkpt>
<trkpt lat="-27.274439" lon="151.290064">
  <ele>343.1</ele>
  <time>2026-09-01T19:52:59Z</time>
  <course>270.0</course>
  <speed>0.0</speed>
  <fix>3d</fix>
</trkpt>
<trkpt lat="-27.274439" lon="151.290064">
  <ele>342.97</ele>
  <time>2026-09-01T19:52:59Z</time>
  <course>10.71</course>
  <speed>0.0</speed>
  <fix>3d</fix>
</trkpt>
<trkpt lat="-27.274439" lon="151.290064">
  <ele>343.1</ele>
  <time>2026-09-01T19:52:59Z</time>
  <course>270.0</course>
  <speed>0.0</speed>
  <fix>3d</fix>
</trkpt>
<trkpt lat="-27.274439" lon="151.290064">
  <ele>342.96</ele>
  <time>2026-09-01T19:52:59Z</time>
  <course>10.71</course>
  <speed>0.0</speed>
  <fix>3d</fix>
</trkpt>
<trkpt lat="-27.274439" lon="151.290064">
  <ele>343.1</ele>
  <time>2026-09-01T19:52:59Z</time>
  <course>270.0</course>
  <speed>0.0</speed>
  <fix>3d</fix>
</trkpt>
<trkpt lat="-27.274439" lon="151.290064">
  <ele>342.96</ele>
  <time>2026-09-01T19:52:59Z</time>
  <course>10.71</course>
  <speed>0.0</speed>
  <fix>3d</fix>
</trkpt>
<trkpt lat="-27.274439" lon="151.290064">
  <ele>343.1</ele>
  <time>2026-09-01T19:52:59Z</time>
  <course>270.0</course>
  <speed>0.0</speed>
  <fix>3d</fix>
</trkpt>
<trkpt lat="-27.274439" lon="151.290064">
  <ele>342.96</ele>
  <time>2026-09-01T19:52:59Z</time>
  <course>10.71</course>
  <speed>0.0</speed>
  <fix>3d</fix>
</trkpt>
<trkpt lat="-27.274439" lon="151.290064">
  <ele>343.1</ele>
  <time>2026-09-01T19:52:59Z</time>
  <course>270.0</course>
  <speed>0.0</speed>
  <fix>3d</fix>
</trkpt>
<trkpt lat="-27.274439" lon="151.290064">
  <ele>342.96</ele>
  <time>2026-09-01T19:52:59Z</time>
  <course>10.71</course>
  <speed>0.0</speed>
  <fix>3d</fix>
</trkpt>
<trkpt lat="-27.274439" lon="151.290064">
  <ele>343.1</ele>
  <time>2026-09-01T19:52:59Z</time>
  <course>270.0</course>
  <speed>0.0</speed>
  <fix>3d</fix>
</trkpt>
<trkpt lat="-27.274439" lon="151.290064">
  <ele>342.96</ele>
  <time>2026-09-01T19:52:59Z</time>
  <course>10.71</course>
  <speed>0.0</speed>
  <fix>3d</fix>
</trkpt>
<trkpt lat="-27.274439" lon="151.290064">
  <ele>343.1</ele>
  <time>2026-09-01T19:52:59Z</time>
  <course>270.0</course>
  <speed>0.0</speed>
  <fix>3d</fix>
</trkpt>
<trkpt lat="-27.274439" lon="151.290064">
  <ele>342.96</ele>
  <time>2026-09-01T19:52:59Z</time>
  <course>10.71</course>
  <speed>0.0</speed>
  <fix>3d</fix>
</trkpt>
<trkpt lat="-27.274439" lon="151.290064">
  <ele>343.1</ele>
  <time>2026-09-01T19:52:59Z</time>
  <course>270.0</course>
  <speed>0.0</speed>
  <fix>3d</fix>
</trkpt>
<trkpt lat="-27.274439" lon="151.290064">
  <ele>342.95</ele>
  <time>2026-09-01T19:52:59Z</time>
  <course>10.71</course>
  <speed>0.0</speed>
  <fix>3d</fix>
</trkpt>
<trkpt lat="-27.274439" lon="151.290064">
  <ele>343.1</ele>
  <time>2026-09-01T19:52:59Z</time>
  <course>270.0</course>
  <speed>0.0</speed>
  <fix>3d</fix>
</trkpt>
<trkpt lat="-27.274439" lon="151.290064">
  <ele>342.95</ele>
  <time>2026-09-01T19:52:59Z</time>
  <course>10.71</course>
  <speed>0.0</speed>
  <fix>3d</fix>
</trkpt>
<trkpt lat="-27.274439" lon="151.290064">
  <ele>343.1</ele>
  <time>2026-09-01T19:52:59Z</time>
  <course>270.0</course>
  <speed>0.0</speed>
  <fix>3d</fix>
</trkpt>
<trkpt lat="-27.274439" lon="151.290064">
  <ele>342.95</ele>
  <time>2026-09-01T19:52:59Z</time>
  <course>10.7</course>
  <speed>0.0</speed>
  <fix>3d</fix>
</trkpt>
<trkpt lat="-27.274439" lon="151.290064">
  <ele>343.1</ele>
  <time>2026-09-01T19:52:59Z</time>
  <course>270.0</course>
  <speed>0.0</speed>
  <fix>3d</fix>
</trkpt>
<trkpt lat="-27.274439" lon="151.290064">
  <ele>342.95</ele>
  <time>2026-09-01T19:52:59Z</time>
  <course>10.7</course>
  <speed>0.0</speed>
  <fix>3d</fix>
</trkpt>
<trkpt lat="-27.274439" lon="151.290064">
  <ele>343.1</ele>
  <time>2026-09-01T19:52:59Z</time>
  <course>270.0</course>
  <speed>0.0</speed>
  <fix>3d</fix>
</trkpt>
<trkpt lat="-27.274439" lon="151.290064">
  <ele>342.95</ele>
  <time>2026-09-01T19:52:59Z</time>
  <course>10.7</course>
  <speed>0.0</speed>
  <fix>3d</fix>
</trkpt>
<trkpt lat="-27.274439" lon="151.290064">
  <ele>343.1</ele>
  <time>2026-09-01T19:52:59Z</time>
  <course>270.0</course>
  <speed>0.0</speed>
  <fix>3d</fix>
</trkpt>
<trkpt lat="-27.274439" lon="151.290064">
  <ele>342.95</ele>
  <time>2026-09-01T19:52:59Z</time>
  <course>10.7</course>
  <speed>0.0</speed>
  <fix>3d</fix>
</trkpt>
<trkpt lat="-27.274439" lon="151.290064">
  <ele>343.1</ele>
  <time>2026-09-01T19:52:59Z</time>
  <course>270.0</course>
  <speed>0.0</speed>
  <fix>3d</fix>
</trkpt>
<trkpt lat="-27.274439" lon="151.290064">
  <ele>342.95</ele>
  <time>2026-09-01T19:52:59Z</time>
  <course>10.7</course>
  <speed>0.0</speed>
  <fix>3d</fix>
</trkpt>
<trkpt lat="-27.274439" lon="151.290064">
  <ele>343.1</ele>
  <time>2026-09-01T19:52:59Z</time>
  <course>270.0</course>
  <speed>0.0</speed>
  <fix>3d</fix>
</trkpt>
<trkpt lat="-27.274439" lon="151.290064">
  <ele>342.94</ele>
  <time>2026-09-01T19:52:59Z</time>
  <course>10.7</course>
  <speed>0.0</speed>
  <fix>3d</fix>
</trkpt>
<trkpt lat="-27.274439" lon="151.290064">
  <ele>343.1</ele>
  <time>2026-09-01T19:52:59Z</time>
  <course>270.0</course>
  <speed>0.0</speed>
  <fix>3d</fix>
</trkpt>
<trkpt lat="-27.274439" lon="151.290064">
  <ele>342.94</ele>
  <time>2026-09-01T19:52:59Z</time>
  <course>10.7</course>
  <speed>0.0</speed>
  <fix>3d</fix>
</trkpt>
<trkpt lat="-27.274439" lon="151.290064">
  <ele>343.1</ele>
  <time>2026-09-01T19:52:59Z</time>
  <course>270.0</course>
  <speed>0.0</speed>
  <fix>3d</fix>
</trkpt>
<trkpt lat="-27.274439" lon="151.290064">
  <ele>342.94</ele>
  <time>2026-09-01T19:52:59Z</time>
  <course>10.7</course>
  <speed>0.0</speed>
  <fix>3d</fix>
</trkpt>
<trkpt lat="-27.274439" lon="151.290064">
  <ele>343.1</ele>
  <time>2026-09-01T19:52:59Z</time>
  <course>270.0</course>
  <speed>0.0</speed>
  <fix>3d</fix>
</trkpt>
<trkpt lat="-27.274439" lon="151.290064">
  <ele>342.94</ele>
  <time>2026-09-01T19:52:59Z</time>
  <course>10.7</course>
  <speed>0.0</speed>
  <fix>3d</fix>
</trkpt>
<trkpt lat="-27.274439" lon="151.290064">
  <ele>343.1</ele>
  <time>2026-09-01T19:52:59Z</time>
  <course>270.0</course>
  <speed>0.0</speed>
  <fix>3d</fix>
</trkpt>
<trkpt lat="-27.274439" lon="151.290064">
  <ele>342.93</ele>
  <time>2026-09-01T19:52:59Z</time>
  <course>10.7</course>
  <speed>0.0</speed>
  <fix>3d</fix>
</trkpt>
<trkpt lat="-27.274439" lon="151.290064">
  <ele>343.1</ele>
  <time>2026-09-01T19:52:59Z</time>
  <course>270.0</course>
  <speed>0.0</speed>
  <fix>3d</fix>
</trkpt>
<trkpt lat="-27.274439" lon="151.290064">
  <ele>342.93</ele>
  <time>2026-09-01T19:52:59Z</time>
  <course>10.7</course>
  <speed>0.0</speed>
  <fix>3d</fix>
</trkpt>
<trkpt lat="-27.274439" lon="151.290064">
  <ele>343.1</ele>
  <time>2026-09-01T19:52:59Z</time>
  <course>270.0</course>
  <speed>0.0</speed>
  <fix>3d</fix>
</trkpt>
<trkpt lat="-27.274439" lon="151.290064">
  <ele>342.93</ele>
  <time>2026-09-01T19:52:59Z</time>
  <course>10.7</course>
  <speed>0.0</speed>
  <fix>3d</fix>
</trkpt>
<trkpt lat="-27.274439" lon="151.290064">
  <ele>343.1</ele>
  <time>2026-09-01T19:52:59Z</time>
  <course>270.0</course>
  <speed>0.0</speed>
  <fix>3d</fix>
</trkpt>
<trkpt lat="-27.274439" lon="151.290064">
  <ele>342.93</ele>
  <time>2026-09-01T19:52:59Z</time>
  <course>10.7</course>
  <speed>0.0</speed>
  <fix>3d</fix>
</trkpt>
<trkpt lat="-27.274439" lon="151.290064">
  <ele>343.1</ele>
  <time>2026-09-01T19:52:59Z</time>
  <course>270.0</course>
  <speed>0.0</speed>
  <fix>3d</fix>
</trkpt>
<trkpt lat="-27.274439" lon="151.290064">
  <ele>342.93</ele>
  <time>2026-09-01T19:52:59Z</time>
  <course>10.7</course>
  <speed>0.0</speed>
  <fix>3d</fix>
</trkpt>
<trkpt lat="-27.274439" lon="151.290064">
  <ele>343.1</ele>
  <time>2026-09-01T19:52:59Z</time>
  <course>270.0</course>
  <speed>0.0</speed>
  <fix>3d</fix>
</trkpt>
<trkpt lat="-27.274439" lon="151.290064">
  <ele>342.93</ele>
  <time>2026-09-01T19:52:59Z</time>
  <course>10.7</course>
  <speed>0.0</speed>
  <fix>3d</fix>
</trkpt>
<trkpt lat="-27.274439" lon="151.290064">
  <ele>343.1</ele>
  <time>2026-09-01T19:52:59Z</time>
  <course>270.0</course>
  <speed>0.0</speed>
  <fix>3d</fix>
</trkpt>
<trkpt lat="-27.274439" lon="151.290064">
  <ele>342.93</ele>
  <time>2026-09-01T19:52:59Z</time>
  <course>10.7</course>
  <speed>0.01</speed>
  <fix>3d</fix>
</trkpt>
<trkpt lat="-27.274439" lon="151.290064">
  <ele>343.1</ele>
  <time>2026-09-01T19:52:59Z</time>
  <course>270.0</course>
  <speed>0.0</speed>
  <fix>3d</fix>
</trkpt>
<trkpt lat="-27.274439" lon="151.290064">
  <ele>342.93</ele>
  <time>2026-09-01T19:52:59Z</time>
  <course>10.7</course>
  <speed>0.01</speed>
  <fix>3d</fix>
</trkpt>
<trkpt lat="-27.274439" lon="151.290064">
  <ele>343.1</ele>
  <time>2026-09-01T19:52:59Z</time>
  <course>270.0</course>
  <speed>0.0</speed>
  <fix>3d</fix>
</trkpt>
<trkpt lat="-27.274439" lon="151.290064">
  <ele>342.92</ele>
  <time>2026-09-01T19:52:59Z</time>
  <course>10.7</course>
  <speed>0.01</speed>
  <fix>3d</fix>
</trkpt>
<trkpt lat="-27.274439" lon="151.290064">
  <ele>343.1</ele>
  <time>2026-09-01T19:52:59Z</time>
  <course>270.0</course>
  <speed>0.0</speed>
  <fix>3d</fix>
</trkpt>
<trkpt lat="-27.274439" lon="151.290064">
  <ele>342.92</ele>
  <time>2026-09-01T19:52:59Z</time>
  <course>10.7</course>
  <speed>0.01</speed>
  <fix>3d</fix>
</trkpt>
<trkpt lat="-27.274439" lon="151.290064">
  <ele>343.1</ele>
  <time>2026-09-01T19:52:59Z</time>
  <course>270.0</course>
  <speed>0.0</speed>
  <fix>3d</fix>
</trkpt>
<trkpt lat="-27.274439" lon="151.290064">
  <ele>343.09</ele>
  <time>2026-09-01T19:52:59Z</time>
  <course>10.7</course>
  <speed>0.01</speed>
  <fix>3d</fix>
</trkpt>
<trkpt lat="-27.274439" lon="151.290064">
  <ele>343.1</ele>
  <time>2026-09-01T19:52:59Z</time>
  <course>270.0</course>
  <speed>0.0</speed>
  <fix>3d</fix>
</trkpt>
<trkpt lat="-27.274439" lon="151.290064">
  <ele>343.09</ele>
  <time>2026-09-01T19:52:59Z</time>
  <course>10.7</course>
  <speed>0.01</speed>
  <fix>3d</fix>
</trkpt>
<trkpt lat="-27.274439" lon="151.290064">
  <ele>343.1</ele>
  <time>2026-09-01T19:52:59Z</time>
  <course>270.0</course>
  <speed>0.0</speed>
  <fix>3d</fix>
</trkpt>
<trkpt lat="-27.274439" lon="151.290064">
  <ele>343.09</ele>
  <time>2026-09-01T19:52:59Z</time>
  <course>10.7</course>
  <speed>0.01</speed>
  <fix>3d</fix>
</trkpt>
<trkpt lat="-27.274439" lon="151.290064">
  <ele>343.1</ele>
  <time>2026-09-01T19:52:59Z</time>
  <course>270.0</course>
  <speed>0.0</speed>
  <fix>3d</fix>
</trkpt>
<trkpt lat="-27.274439" lon="151.290064">
  <ele>343.09</ele>
  <time>2026-09-01T19:52:59Z</time>
  <course>10.7</course>
  <speed>0.01</speed>
  <fix>3d</fix>
</trkpt>
<trkpt lat="-27.274439" lon="151.290064">
  <ele>343.1</ele>
  <time>2026-09-01T19:52:59Z</time>
  <course>270.0</course>
  <speed>0.0</speed>
  <fix>3d</fix>
</trkpt>
<trkpt lat="-27.274439" lon="151.290064">
  <ele>343.08</ele>
  <time>2026-09-01T19:52:59Z</time>
  <course>10.7</course>
  <speed>0.01</speed>
  <fix>3d</fix>
</trkpt>
<trkpt lat="-27.274439" lon="151.290064">
  <ele>343.1</ele>
  <time>2026-09-01T19:52:59Z</time>
  <course>270.0</course>
  <speed>0.0</speed>
  <fix>3d</fix>
</trkpt>
<trkpt lat="-27.274439" lon="151.290064">
  <ele>343.08</ele>
  <time>2026-09-01T19:52:59Z</time>
  <course>10.7</course>
  <speed>0.01</speed>
  <fix>3d</fix>
</trkpt>
<trkpt lat="-27.274439" lon="151.290064">
  <ele>343.1</ele>
  <time>2026-09-01T19:52:59Z</time>
  <course>270.0</course>
  <speed>0.0</speed>
  <fix>3d</fix>
</trkpt>
<trkpt lat="-27.274439" lon="151.290064">
  <ele>343.07</ele>
  <time>2026-09-01T19:52:59Z</time>
  <course>10.7</course>
  <speed>0.01</speed>
  <fix>3d</fix>
</trkpt>
<trkpt lat="-27.274439" lon="151.290064">
  <ele>343.1</ele>
  <time>2026-09-01T19:52:59Z</time>
  <course>270.0</course>
  <speed>0.0</speed>
  <fix>3d</fix>
</trkpt>
<trkpt lat="-27.274439" lon="151.290064">
  <ele>343.07</ele>
  <time>2026-09-01T19:52:59Z</time>
  <course>10.7</course>
  <speed>0.01</speed>
  <fix>3d</fix>
</trkpt>
<trkpt lat="-27.274439" lon="151.290064">
  <ele>343.1</ele>
  <time>2026-09-01T19:52:59Z</time>
  <course>270.0</course>
  <speed>0.0</speed>
  <fix>3d</fix>
</trkpt>
<trkpt lat="-27.274439" lon="151.290064">
  <ele>343.07</ele>
  <time>2026-09-01T19:52:59Z</time>
  <course>10.7</course>
  <speed>0.01</speed>
  <fix>3d</fix>
</trkpt>
<trkpt lat="-27.274439" lon="151.290064">
  <ele>343.1</ele>
  <time>2026-09-01T19:52:59Z</time>
  <course>270.0</course>
  <speed>0.0</speed>
  <fix>3d</fix>
</trkpt>
<trkpt lat="-27.274439" lon="151.290064">
  <ele>343.06</ele>
  <time>2026-09-01T19:52:59Z</time>
  <course>10.7</course>
  <speed>0.01</speed>
  <fix>3d</fix>
</trkpt>
<trkpt lat="-27.274439" lon="151.290064">
  <ele>343.1</ele>
  <time>2026-09-01T19:52:59Z</time>
  <course>270.0</course>
  <speed>0.0</speed>
  <fix>3d</fix>
</trkpt>
<trkpt lat="-27.274439" lon="151.290064">
  <ele>343.06</ele>
  <time>2026-09-01T19:52:59Z</time>
  <course>10.7</course>
  <speed>0.01</speed>
  <fix>3d</fix>
</trkpt>
<trkpt lat="-27.274439" lon="151.290064">
  <ele>343.1</ele>
  <time>2026-09-01T19:52:59Z</time>
  <course>270.0</course>
  <speed>0.0</speed>
  <fix>3d</fix>
</trkpt>
<trkpt lat="-27.274439" lon="151.290064">
  <ele>343.05</ele>
  <time>2026-09-01T19:52:59Z</time>
  <course>10.7</course>
  <speed>0.01</speed>
  <fix>3d</fix>
</trkpt>
<trkpt lat="-27.274439" lon="151.290064">
  <ele>343.1</ele>
  <time>2026-09-01T19:52:59Z</time>
  <course>270.0</course>
  <speed>0.0</speed>
  <fix>3d</fix>
</trkpt>
<trkpt lat="-27.274439" lon="151.290064">
  <ele>343.05</ele>
  <time>2026-09-01T19:52:59Z</time>
  <course>10.7</course>
  <speed>0.01</speed>
  <fix>3d</fix>
</trkpt>
<trkpt lat="-27.274439" lon="151.290064">
  <ele>343.1</ele>
  <time>2026-09-01T19:52:59Z</time>
  <course>270.0</course>
  <speed>0.0</speed>
  <fix>3d</fix>
</trkpt>
<trkpt lat="-27.274439" lon="151.290064">
  <ele>343.04</ele>
  <time>2026-09-01T19:52:59Z</time>
  <course>10.7</course>
  <speed>0.01</speed>
  <fix>3d</fix>
</trkpt>
<trkpt lat="-27.274439" lon="151.290064">
  <ele>343.1</ele>
  <time>2026-09-01T19:52:59Z</time>
  <course>270.0</course>
  <speed>0.0</speed>
  <fix>3d</fix>
</trkpt>
<trkpt lat="-27.274439" lon="151.290064">
  <ele>343.04</ele>
  <time>2026-09-01T19:52:59Z</time>
  <course>10.7</course>
  <speed>0.01</speed>
  <fix>3d</fix>
</trkpt>
<trkpt lat="-27.274439" lon="151.290064">
  <ele>343.1</ele>
  <time>2026-09-01T19:52:59Z</time>
  <course>270.0</course>
  <speed>0.0</speed>
  <fix>3d</fix>
</trkpt>
<trkpt lat="-27.274439" lon="151.290064">
  <ele>343.03</ele>
  <time>2026-09-01T19:52:59Z</time>
  <course>10.7</course>
  <speed>0.01</speed>
  <fix>3d</fix>
</trkpt>
<trkpt lat="-27.274439" lon="151.290064">
  <ele>343.1</ele>
  <time>2026-09-01T19:52:59Z</time>
  <course>270.0</course>
  <speed>0.0</speed>
  <fix>3d</fix>
</trkpt>
<trkpt lat="-27.274439" lon="151.290064">
  <ele>343.03</ele>
  <time>2026-09-01T19:52:59Z</time>
  <course>10.7</course>
  <speed>0.01</speed>
  <fix>3d</fix>
</trkpt>
<trkpt lat="-27.274439" lon="151.290064">
  <ele>343.1</ele>
  <time>2026-09-01T19:52:59Z</time>
  <course>270.0</course>
  <speed>0.0</speed>
  <fix>3d</fix>
</trkpt>
<trkpt lat="-27.274439" lon="151.290064">
  <ele>343.03</ele>
  <time>2026-09-01T19:52:59Z</time>
  <course>10.7</course>
  <speed>0.01</speed>
  <fix>3d</fix>
</trkpt>
<trkpt lat="-27.274439" lon="151.290064">
  <ele>343.1</ele>
  <time>2026-09-01T19:52:59Z</time>
  <course>270.0</course>
  <speed>0.0</speed>
  <fix>3d</fix>
</trkpt>
<trkpt lat="-27.274439" lon="151.290064">
  <ele>343.02</ele>
  <time>2026-09-01T19:52:59Z</time>
  <course>10.7</course>
  <speed>0.01</speed>
  <fix>3d</fix>
</trkpt>
<trkpt lat="-27.274439" lon="151.290064">
  <ele>343.1</ele>
  <time>2026-09-01T19:52:59Z</time>
  <course>270.0</course>
  <speed>0.0</speed>
  <fix>3d</fix>
</trkpt>
<trkpt lat="-27.274439" lon="151.290064">
  <ele>343.02</ele>
  <time>2026-09-01T19:52:59Z</time>
  <course>10.7</course>
  <speed>0.01</speed>
  <fix>3d</fix>
</trkpt>
<trkpt lat="-27.274439" lon="151.290064">
  <ele>343.1</ele>
  <time>2026-09-01T19:52:59Z</time>
  <course>270.0</course>
  <speed>0.0</speed>
  <fix>3d</fix>
</trkpt>
<trkpt lat="-27.274439" lon="151.290064">
  <ele>343.02</ele>
  <time>2026-09-01T19:52:59Z</time>
  <course>10.7</course>
  <speed>0.01</speed>
  <fix>3d</fix>
</trkpt>
<trkpt lat="-27.274439" lon="151.290064">
  <ele>343.1</ele>
  <time>2026-09-01T19:52:59Z</time>
  <course>270.0</course>
  <speed>0.0</speed>
  <fix>3d</fix>
</trkpt>
<trkpt lat="-27.274439" lon="151.290064">
  <ele>343.02</ele>
  <time>2026-09-01T19:52:59Z</time>
  <course>10.7</course>
  <speed>0.01</speed>
  <fix>3d</fix>
</trkpt>
<trkpt lat="-27.274439" lon="151.290064">
  <ele>343.1</ele>
  <time>2026-09-01T19:52:59Z</time>
  <course>270.0</course>
  <speed>0.0</speed>
  <fix>3d</fix>
</trkpt>
<trkpt lat="-27.274439" lon="151.290064">
  <ele>343.02</ele>
  <time>2026-09-01T19:52:59Z</time>
  <course>10.7</course>
  <speed>0.01</speed>
  <fix>3d</fix>
</trkpt>
<trkpt lat="-27.274439" lon="151.290064">
  <ele>343.1</ele>
  <time>2026-09-01T19:52:59Z</time>
  <course>270.0</course>
  <speed>0.0</speed>
  <fix>3d</fix>
</trkpt>
<trkpt lat="-27.274439" lon="151.290064">
  <ele>343.02</ele>
  <time>2026-09-01T19:52:59Z</time>
  <course>10.7</course>
  <speed>0.01</speed>
  <fix>3d</fix>
</trkpt>
<trkpt lat="-27.274439" lon="151.290064">
  <ele>343.1</ele>
  <time>2026-09-01T19:52:59Z</time>
  <course>270.0</course>
  <speed>0.0</speed>
  <fix>3d</fix>
</trkpt>
<trkpt lat="-27.274439" lon="151.290064">
  <ele>343.02</ele>
  <time>2026-09-01T19:52:59Z</time>
  <course>10.7</course>
  <speed>0.01</speed>
  <fix>3d</fix>
</trkpt>
<trkpt lat="-27.274439" lon="151.290064">
  <ele>343.1</ele>
  <time>2026-09-01T19:52:59Z</time>
  <course>270.0</course>
  <speed>0.0</speed>
  <fix>3d</fix>
</trkpt>
<trkpt lat="-27.274439" lon="151.290064">
  <ele>343.01</ele>
  <time>2026-09-01T19:52:59Z</time>
  <course>10.7</course>
  <speed>0.01</speed>
  <fix>3d</fix>
</trkpt>
<trkpt lat="-27.274439" lon="151.290064">
  <ele>343.1</ele>
  <time>2026-09-01T19:52:59Z</time>
  <course>270.0</course>
  <speed>0.0</speed>
  <fix>3d</fix>
</trkpt>
<trkpt lat="-27.274439" lon="151.290064">
  <ele>343.01</ele>
  <time>2026-09-01T19:52:59Z</time>
  <course>10.7</course>
  <speed>0.01</speed>
  <fix>3d</fix>
</trkpt>
<trkpt lat="-27.274439" lon="151.290064">
  <ele>343.1</ele>
  <time>2026-09-01T19:52:59Z</time>
  <course>270.0</course>
  <speed>0.0</speed>
  <fix>3d</fix>
</trkpt>
<trkpt lat="-27.274439" lon="151.290064">
  <ele>343.01</ele>
  <time>2026-09-01T19:52:59Z</time>
  <course>10.7</course>
  <speed>0.01</speed>
  <fix>3d</fix>
</trkpt>
<trkpt lat="-27.274439" lon="151.290064">
  <ele>343.1</ele>
  <time>2026-09-01T19:52:59Z</time>
  <course>270.0</course>
  <speed>0.0</speed>
  <fix>3d</fix>
</trkpt>
<trkpt lat="-27.274439" lon="151.290064">
  <ele>343.01</ele>
  <time>2026-09-01T19:52:59Z</time>
  <course>10.7</course>
  <speed>0.01</speed>
  <fix>3d</fix>
</trkpt>
<trkpt lat="-27.274439" lon="151.290064">
  <ele>343.1</ele>
  <time>2026-09-01T19:52:59Z</time>
  <course>270.0</course>
  <speed>0.0</speed>
  <fix>3d</fix>
</trkpt>
<trkpt lat="-27.274439" lon="151.290064">
  <ele>343.01</ele>
  <time>2026-09-01T19:52:59Z</time>
  <course>10.7</course>
  <speed>0.01</speed>
  <fix>3d</fix>
</trkpt>
<trkpt lat="-27.274439" lon="151.290064">
  <ele>343.1</ele>
  <time>2026-09-01T19:52:59Z</time>
  <course>270.0</course>
  <speed>0.0</speed>
  <fix>3d</fix>
</trkpt>
<trkpt lat="-27.274439" lon="151.290064">
  <ele>343.0</ele>
  <time>2026-09-01T19:52:59Z</time>
  <course>10.7</course>
  <speed>0.01</speed>
  <fix>3d</fix>
</trkpt>
<trkpt lat="-27.274439" lon="151.290064">
  <ele>343.1</ele>
  <time>2026-09-01T19:52:59Z</time>
  <course>270.0</course>
  <speed>0.0</speed>
  <fix>3d</fix>
</trkpt>
<trkpt lat="-27.274439" lon="151.290064">
  <ele>343.0</ele>
  <time>2026-09-01T19:52:59Z</time>
  <course>10.7</course>
  <speed>0.01</speed>
  <fix>3d</fix>
</trkpt>
<trkpt lat="-27.274439" lon="151.290064">
  <ele>343.1</ele>
  <time>2026-09-01T19:52:59Z</time>
  <course>270.0</course>
  <speed>0.0</speed>
  <fix>3d</fix>
</trkpt>
<trkpt lat="-27.274439" lon="151.290064">
  <ele>343.0</ele>
  <time>2026-09-01T19:52:59Z</time>
  <course>10.7</course>
  <speed>0.01</speed>
  <fix>3d</fix>
</trkpt>
<trkpt lat="-27.274439" lon="151.290064">
  <ele>343.1</ele>
  <time>2026-09-01T19:52:59Z</time>
  <course>270.0</course>
  <speed>0.0</speed>
  <fix>3d</fix>
</trkpt>
<trkpt lat="-27.274439" lon="151.290064">
  <ele>342.99</ele>
  <time>2026-09-01T19:52:59Z</time>
  <course>10.7</course>
  <speed>0.01</speed>
  <fix>3d</fix>
</trkpt>
<trkpt lat="-27.274439" lon="151.290064">
  <ele>343.1</ele>
  <time>2026-09-01T19:52:59Z</time>
  <course>270.0</course>
  <speed>0.0</speed>
  <fix>3d</fix>
</trkpt>
<trkpt lat="-27.274439" lon="151.290064">
  <ele>342.99</ele>
  <time>2026-09-01T19:52:59Z</time>
  <course>10.7</course>
  <speed>0.01</speed>
  <fix>3d</fix>
</trkpt>
<trkpt lat="-27.274439" lon="151.290064">
  <ele>343.1</ele>
  <time>2026-09-01T19:52:59Z</time>
  <course>270.0</course>
  <speed>0.0</speed>
  <fix>3d</fix>
</trkpt>
<trkpt lat="-27.274439" lon="151.290064">
  <ele>342.98</ele>
  <time>2026-09-01T19:52:59Z</time>
  <course>10.7</course>
  <speed>0.01</speed>
  <fix>3d</fix>
</trkpt>
<trkpt lat="-27.274439" lon="151.290064">
  <ele>343.1</ele>
  <time>2026-09-01T19:52:59Z</time>
  <course>270.0</course>
  <speed>0.0</speed>
  <fix>3d</fix>
</trkpt>
<trkpt lat="-27.274439" lon="151.290064">
  <ele>342.98</ele>
  <time>2026-09-01T19:52:59Z</time>
  <course>10.7</course>
  <speed>0.01</speed>
  <fix>3d</fix>
</trkpt>
<trkpt lat="-27.274439" lon="151.290064">
  <ele>343.1</ele>
  <time>2026-09-01T19:52:59Z</time>
  <course>270.0</course>
  <speed>0.0</speed>
  <fix>3d</fix>
</trkpt>
<trkpt lat="-27.274439" lon="151.290064">
  <ele>342.97</ele>
  <time>2026-09-01T19:52:59Z</time>
  <course>10.7</course>
  <speed>0.01</speed>
  <fix>3d</fix>
</trkpt>
<trkpt lat="-27.274439" lon="151.290064">
  <ele>343.1</ele>
  <time>2026-09-01T19:52:59Z</time>
  <course>270.0</course>
  <speed>0.0</speed>
  <fix>3d</fix>
</trkpt>
<trkpt lat="-27.274439" lon="151.290064">
  <ele>342.97</ele>
  <time>2026-09-01T19:52:59Z</time>
  <course>10.7</course>
  <speed>0.01</speed>
  <fix>3d</fix>
</trkpt>
<trkpt lat="-27.274439" lon="151.290064">
  <ele>343.1</ele>
  <time>2026-09-01T19:52:59Z</time>
  <course>270.0</course>
  <speed>0.0</speed>
  <fix>3d</fix>
</trkpt>
<trkpt lat="-27.274439" lon="151.290064">
  <ele>342.97</ele>
  <time>2026-09-01T19:52:59Z</time>
  <course>10.7</course>
  <speed>0.01</speed>
  <fix>3d</fix>
</trkpt>
<trkpt lat="-27.274439" lon="151.290064">
  <ele>343.1</ele>
  <time>2026-09-01T19:52:59Z</time>
  <course>270.0</course>
  <speed>0.0</speed>
  <fix>3d</fix>
</trkpt>
<trkpt lat="-27.274439" lon="151.290064">
  <ele>342.96</ele>
  <time>2026-09-01T19:52:59Z</time>
  <course>10.7</course>
  <speed>0.01</speed>
  <fix>3d</fix>
</trkpt>
<trkpt lat="-27.274439" lon="151.290064">
  <ele>343.1</ele>
  <time>2026-09-01T19:52:59Z</time>
  <course>270.0</course>
  <speed>0.0</speed>
  <fix>3d</fix>
</trkpt>
<trkpt lat="-27.274439" lon="151.290064">
  <ele>342.96</ele>
  <time>2026-09-01T19:52:59Z</time>
  <course>10.7</course>
  <speed>0.01</speed>
  <fix>3d</fix>
</trkpt>
<trkpt lat="-27.274439" lon="151.290064">
  <ele>343.1</ele>
  <time>2026-09-01T19:52:59Z</time>
  <course>270.0</course>
  <speed>0.0</speed>
  <fix>3d</fix>
</trkpt>
<trkpt lat="-27.274439" lon="151.290064">
  <ele>342.96</ele>
  <time>2026-09-01T19:52:59Z</time>
  <course>10.7</course>
  <speed>0.01</speed>
  <fix>3d</fix>
</trkpt>
<trkpt lat="-27.274439" lon="151.290064">
  <ele>343.1</ele>
  <time>2026-09-01T19:52:59Z</time>
  <course>270.0</course>
  <speed>0.0</speed>
  <fix>3d</fix>
</trkpt>
<trkpt lat="-27.274439" lon="151.290064">
  <ele>342.96</ele>
  <time>2026-09-01T19:52:59Z</time>
  <course>10.7</course>
  <speed>0.01</speed>
  <fix>3d</fix>
</trkpt>
<trkpt lat="-27.274439" lon="151.290064">
  <ele>343.1</ele>
  <time>2026-09-01T19:52:59Z</time>
  <course>270.0</course>
  <speed>0.0</speed>
  <fix>3d</fix>
</trkpt>
<trkpt lat="-27.274439" lon="151.290064">
  <ele>342.95</ele>
  <time>2026-09-01T19:52:59Z</time>
  <course>10.7</course>
  <speed>0.01</speed>
  <fix>3d</fix>
</trkpt>
<trkpt lat="-27.274439" lon="151.290064">
  <ele>343.1</ele>
  <time>2026-09-01T19:52:59Z</time>
  <course>270.0</course>
  <speed>0.0</speed>
  <fix>3d</fix>
</trkpt>
<trkpt lat="-27.274439" lon="151.290064">
  <ele>342.95</ele>
  <time>2026-09-01T19:52:59Z</time>
  <course>10.7</course>
  <speed>0.01</speed>
  <fix>3d</fix>
</trkpt>
<trkpt lat="-27.274439" lon="151.290064">
  <ele>343.1</ele>
  <time>2026-09-01T19:52:59Z</time>
  <course>270.0</course>
  <speed>0.0</speed>
  <fix>3d</fix>
</trkpt>
<trkpt lat="-27.274439" lon="151.290064">
  <ele>342.95</ele>
  <time>2026-09-01T19:52:59Z</time>
  <course>10.7</course>
  <speed>0.01</speed>
  <fix>3d</fix>
</trkpt>
<trkpt lat="-27.274439" lon="151.290064">
  <ele>343.1</ele>
  <time>2026-09-01T19:52:59Z</time>
  <course>270.0</course>
  <speed>0.0</speed>
  <fix>3d</fix>
</trkpt>
<trkpt lat="-27.274439" lon="151.290064">
  <ele>342.95</ele>
  <time>2026-09-01T19:52:59Z</time>
  <course>10.7</course>
  <speed>0.01</speed>
  <fix>3d</fix>
</trkpt>
<trkpt lat="-27.274439" lon="151.290064">
  <ele>343.1</ele>
  <time>2026-09-01T19:52:59Z</time>
  <course>270.0</course>
  <speed>0.0</speed>
  <fix>3d</fix>
</trkpt>
<trkpt lat="-27.274439" lon="151.290064">
  <ele>342.95</ele>
  <time>2026-09-01T19:52:59Z</time>
  <course>10.7</course>
  <speed>0.01</speed>
  <fix>3d</fix>
</trkpt>
<trkpt lat="-27.274439" lon="151.290064">
  <ele>343.1</ele>
  <time>2026-09-01T19:52:59Z</time>
  <course>270.0</course>
  <speed>0.0</speed>
  <fix>3d</fix>
</trkpt>
<trkpt lat="-27.274439" lon="151.290064">
  <ele>342.95</ele>
  <time>2026-09-01T19:52:59Z</time>
  <course>10.7</course>
  <speed>0.01</speed>
  <fix>3d</fix>
</trkpt>
<trkpt lat="-27.274439" lon="151.290064">
  <ele>343.1</ele>
  <time>2026-09-01T19:52:59Z</time>
  <course>270.0</course>
  <speed>0.0</speed>
  <fix>3d</fix>
</trkpt>
<trkpt lat="-27.2744391" lon="151.290064">
  <ele>342.95</ele>
  <time>2026-09-01T19:52:59Z</time>
  <course>10.7</course>
  <speed>0.01</speed>
  <fix>3d</fix>
</trkpt>
<trkpt lat="-27.274439" lon="151.290064">
  <ele>343.1</ele>
  <time>2026-09-01T19:52:59Z</time>
  <course>270.0</course>
  <speed>0.0</speed>
  <fix>3d</fix>
</trkpt>
<trkpt lat="-27.274439" lon="151.290064">
  <ele>342.95</ele>
  <time>2026-09-01T19:52:59Z</time>
  <course>10.7</course>
  <speed>0.01</speed>
  <fix>3d</fix>
</trkpt>
<trkpt lat="-27.274439" lon="151.290064">
  <ele>343.1</ele>
  <time>2026-09-01T19:52:59Z</time>
  <course>270.0</course>
  <speed>0.0</speed>
  <fix>3d</fix>
</trkpt>
<trkpt lat="-27.2744391" lon="151.290064">
  <ele>342.95</ele>
  <time>2026-09-01T19:52:59Z</time>
  <course>10.7</course>
  <speed>0.01</speed>
  <fix>3d</fix>
</trkpt>
<trkpt lat="-27.274439" lon="151.290064">
  <ele>343.1</ele>
  <time>2026-09-01T19:52:59Z</time>
  <course>270.0</course>
  <speed>0.0</speed>
  <fix>3d</fix>
</trkpt>
<trkpt lat="-27.2744391" lon="151.290064">
  <ele>342.95</ele>
  <time>2026-09-01T19:52:59Z</time>
  <course>10.7</course>
  <speed>0.01</speed>
  <fix>3d</fix>
</trkpt>
<trkpt lat="-27.274439" lon="151.290064">
  <ele>343.1</ele>
  <time>2026-09-01T19:52:59Z</time>
  <course>270.0</course>
  <speed>0.0</speed>
  <fix>3d</fix>
</trkpt>
<trkpt lat="-27.2744391" lon="151.290064">
  <ele>342.95</ele>
  <time>2026-09-01T19:52:59Z</time>
  <course>10.7</course>
  <speed>0.01</speed>
  <fix>3d</fix>
</trkpt>
<trkpt lat="-27.274439" lon="151.290064">
  <ele>343.1</ele>
  <time>2026-09-01T19:52:59Z</time>
  <course>270.0</course>
  <speed>0.0</speed>
  <fix>3d</fix>
</trkpt>
<trkpt lat="-27.2744391" lon="151.290064">
  <ele>342.95</ele>
  <time>2026-09-01T19:52:59Z</time>
  <course>10.7</course>
  <speed>0.01</speed>
  <fix>3d</fix>
</trkpt>
<trkpt lat="-27.274439" lon="151.290064">
  <ele>343.1</ele>
  <time>2026-09-01T19:52:59Z</time>
  <course>270.0</course>
  <speed>0.0</speed>
  <fix>3d</fix>
</trkpt>
<trkpt lat="-27.2744391" lon="151.290064">
  <ele>342.95</ele>
  <time>2026-09-01T19:52:59Z</time>
  <course>10.7</course>
  <speed>0.01</speed>
  <fix>3d</fix>
</trkpt>
<trkpt lat="-27.274439" lon="151.290064">
  <ele>343.1</ele>
  <time>2026-09-01T19:52:59Z</time>
  <course>270.0</course>
  <speed>0.0</speed>
  <fix>3d</fix>
</trkpt>
<trkpt lat="-27.2744391" lon="151.290064">
  <ele>342.95</ele>
  <time>2026-09-01T19:52:59Z</time>
  <course>10.7</course>
  <speed>0.01</speed>
  <fix>3d</fix>
</trkpt>
<trkpt lat="-27.274439" lon="151.290064">
  <ele>343.1</ele>
  <time>2026-09-01T19:52:59Z</time>
  <course>270.0</course>
  <speed>0.0</speed>
  <fix>3d</fix>
</trkpt>
<trkpt lat="-27.2744391" lon="151.290064">
  <ele>342.95</ele>
  <time>2026-09-01T19:52:59Z</time>
  <course>10.7</course>
  <speed>0.01</speed>
  <fix>3d</fix>
</trkpt>
<trkpt lat="-27.274439" lon="151.290064">
  <ele>343.1</ele>
  <time>2026-09-01T19:52:59Z</time>
  <course>270.0</course>
  <speed>0.0</speed>
  <fix>3d</fix>
</trkpt>
<trkpt lat="-27.2744391" lon="151.290064">
  <ele>342.95</ele>
  <time>2026-09-01T19:52:59Z</time>
  <course>10.7</course>
  <speed>0.01</speed>
  <fix>3d</fix>
</trkpt>
<trkpt lat="-27.274439" lon="151.290064">
  <ele>343.1</ele>
  <time>2026-09-01T19:52:59Z</time>
  <course>270.0</course>
  <speed>0.0</speed>
  <fix>3d</fix>
</trkpt>
<trkpt lat="-27.2744391" lon="151.290064">
  <ele>343.09</ele>
  <time>2026-09-01T19:52:59Z</time>
  <course>10.7</course>
  <speed>0.01</speed>
  <fix>3d</fix>
</trkpt>
<trkpt lat="-27.274439" lon="151.290064">
  <ele>343.1</ele>
  <time>2026-09-01T19:52:59Z</time>
  <course>270.0</course>
  <speed>0.0</speed>
  <fix>3d</fix>
</trkpt>
<trkpt lat="-27.2744391" lon="151.290064">
  <ele>343.09</ele>
  <time>2026-09-01T19:52:59Z</time>
  <course>10.7</course>
  <speed>0.01</speed>
  <fix>3d</fix>
</trkpt>
<trkpt lat="-27.274439" lon="151.290064">
  <ele>343.1</ele>
  <time>2026-09-01T19:52:59Z</time>
  <course>270.0</course>
  <speed>0.0</speed>
  <fix>3d</fix>
</trkpt>
<trkpt lat="-27.2744391" lon="151.290064">
  <ele>343.09</ele>
  <time>2026-09-01T19:52:59Z</time>
  <course>10.71</course>
  <speed>0.01</speed>
  <fix>3d</fix>
</trkpt>
<trkpt lat="-27.274439" lon="151.290064">
  <ele>343.1</ele>
  <time>2026-09-01T19:52:59Z</time>
  <course>270.0</course>
  <speed>0.0</speed>
  <fix>3d</fix>
</trkpt>
<trkpt lat="-27.2744391" lon="151.290064">
  <ele>343.09</ele>
  <time>2026-09-01T19:52:59Z</time>
  <course>10.71</course>
  <speed>0.01</speed>
  <fix>3d</fix>
</trkpt>
<trkpt lat="-27.274439" lon="151.290064">
  <ele>343.1</ele>
  <time>2026-09-01T19:52:59Z</time>
  <course>270.0</course>
  <speed>0.0</speed>
  <fix>3d</fix>
</trkpt>
<trkpt lat="-27.2744391" lon="151.290064">
  <ele>343.09</ele>
  <time>2026-09-01T19:52:59Z</time>
  <course>10.71</course>
  <speed>0.01414213562373095</speed>
  <fix>3d</fix>
</trkpt>
<trkpt lat="-27.274439" lon="151.290064">
  <ele>343.1</ele>
  <time>2026-09-01T19:52:59Z</time>
  <course>270.0</course>
  <speed>0.0</speed>
  <fix>3d</fix>
</trkpt>
<trkpt lat="-27.2744391" lon="151.290064">
  <ele>343.09</ele>
  <time>2026-09-01T19:52:59Z</time>
  <course>10.71</course>
  <speed>0.01414213562373095</speed>
  <fix>3d</fix>
</trkpt>
<trkpt lat="-27.274439" lon="151.290064">
  <ele>343.1</ele>
  <time>2026-09-01T19:52:59Z</time>
  <course>270.0</course>
  <speed>0.0</speed>
  <fix>3d</fix>
</trkpt>
<trkpt lat="-27.2744391" lon="151.290064">
  <ele>343.09</ele>
  <time>2026-09-01T19:52:59Z</time>
  <course>10.71</course>
  <speed>0.01414213562373095</speed>
  <fix>3d</fix>
</trkpt>
<trkpt lat="-27.274439" lon="151.290064">
  <ele>343.1</ele>
  <time>2026-09-01T19:52:59Z</time>
  <course>270.0</course>
  <speed>0.0</speed>
  <fix>3d</fix>
</trkpt>
<trkpt lat="-27.2744391" lon="151.290064">
  <ele>343.09</ele>
  <time>2026-09-01T19:52:59Z</time>
  <course>10.71</course>
  <speed>0.01414213562373095</speed>
  <fix>3d</fix>
</trkpt>
<trkpt lat="-27.274439" lon="151.290064">
  <ele>343.1</ele>
  <time>2026-09-01T19:52:59Z</time>
  <course>270.0</course>
  <speed>0.0</speed>
  <fix>3d</fix>
</trkpt>
<trkpt lat="-27.2744391" lon="151.290064">
  <ele>343.09</ele>
  <time>2026-09-01T19:52:59Z</time>
  <course>10.71</course>
  <speed>0.01414213562373095</speed>
  <fix>3d</fix>
</trkpt>
<trkpt lat="-27.274439" lon="151.290064">
  <ele>343.1</ele>
  <time>2026-09-01T19:52:59Z</time>
  <course>270.0</course>
  <speed>0.0</speed>
  <fix>3d</fix>
</trkpt>
<trkpt lat="-27.2744391" lon="151.290064">
  <ele>343.08</ele>
  <time>2026-09-01T19:52:59Z</time>
  <course>10.71</course>
  <speed>0.01414213562373095</speed>
  <fix>3d</fix>
</trkpt>
<trkpt lat="-27.274439" lon="151.290064">
  <ele>343.1</ele>
  <time>2026-09-01T19:52:59Z</time>
  <course>270.0</course>
  <speed>0.0</speed>
  <fix>3d</fix>
</trkpt>
<trkpt lat="-27.2744391" lon="151.290064">
  <ele>343.08</ele>
  <time>2026-09-01T19:52:59Z</time>
  <course>10.71</course>
  <speed>0.01414213562373095</speed>
  <fix>3d</fix>
</trkpt>
<trkpt lat="-27.274439" lon="151.290064">
  <ele>343.1</ele>
  <time>2026-09-01T19:52:59Z</time>
  <course>270.0</course>
  <speed>0.0</speed>
  <fix>3d</fix>
</trkpt>
<trkpt lat="-27.2744391" lon="151.290064">
  <ele>343.08</ele>
  <time>2026-09-01T19:53:00Z</time>
  <course>10.71</course>
  <speed>0.01414213562373095</speed>
  <fix>3d</fix>
</trkpt>
<trkpt lat="-27.274439" lon="151.290064">
  <ele>343.1</ele>
  <time>2026-09-01T19:53:00Z</time>
  <course>270.0</course>
  <speed>0.0</speed>
  <fix>3d</fix>
</trkpt>
<trkpt lat="-27.2744391" lon="151.290064">
  <ele>343.08</ele>
  <time>2026-09-01T19:53:00Z</time>
  <course>10.71</course>
  <speed>0.01414213562373095</speed>
  <fix>3d</fix>
</trkpt>
<trkpt lat="-27.274439" lon="151.290064">
  <ele>343.1</ele>
  <time>2026-09-01T19:53:00Z</time>
  <course>270.0</course>
  <speed>0.0</speed>
  <fix>3d</fix>
</trkpt>
<trkpt lat="-27.2744391" lon="151.290064">
  <ele>343.08</ele>
  <time>2026-09-01T19:53:00Z</time>
  <course>10.71</course>
  <speed>0.01414213562373095</speed>
  <fix>3d</fix>
</trkpt>
<trkpt lat="-27.274439" lon="151.290064">
  <ele>343.1</ele>
  <time>2026-09-01T19:53:00Z</time>
  <course>270.0</course>
  <speed>0.0</speed>
  <fix>3d</fix>
</trkpt>
<trkpt lat="-27.2744391" lon="151.290064">
  <ele>343.07</ele>
  <time>2026-09-01T19:53:00Z</time>
  <course>10.71</course>
  <speed>0.01414213562373095</speed>
  <fix>3d</fix>
</trkpt>
<trkpt lat="-27.274439" lon="151.290064">
  <ele>343.1</ele>
  <time>2026-09-01T19:53:00Z</time>
  <course>270.0</course>
  <speed>0.0</speed>
  <fix>3d</fix>
</trkpt>
<trkpt lat="-27.2744391" lon="151.290064">
  <ele>343.07</ele>
  <time>2026-09-01T19:53:00Z</time>
  <course>10.71</course>
  <speed>0.01414213562373095</speed>
  <fix>3d</fix>
</trkpt>
<trkpt lat="-27.274439" lon="151.290064">
  <ele>343.1</ele>
  <time>2026-09-01T19:53:00Z</time>
  <course>270.0</course>
  <speed>0.0</speed>
  <fix>3d</fix>
</trkpt>
<trkpt lat="-27.2744391" lon="151.290064">
  <ele>343.07</ele>
  <time>2026-09-01T19:53:00Z</time>
  <course>10.71</course>
  <speed>0.01414213562373095</speed>
  <fix>3d</fix>
</trkpt>
<trkpt lat="-27.274439" lon="151.290064">
  <ele>343.1</ele>
  <time>2026-09-01T19:53:00Z</time>
  <course>270.0</course>
  <speed>0.0</speed>
  <fix>3d</fix>
</trkpt>
<trkpt lat="-27.2744391" lon="151.290064">
  <ele>343.07</ele>
  <time>2026-09-01T19:53:00Z</time>
  <course>10.71</course>
  <speed>0.01414213562373095</speed>
  <fix>3d</fix>
</trkpt>
<trkpt lat="-27.274439" lon="151.290064">
  <ele>343.1</ele>
  <time>2026-09-01T19:53:00Z</time>
  <course>270.0</course>
  <speed>0.0</speed>
  <fix>3d</fix>
</trkpt>
<trkpt lat="-27.2744391" lon="151.290064">
  <ele>343.07</ele>
  <time>2026-09-01T19:53:00Z</time>
  <course>10.71</course>
  <speed>0.01414213562373095</speed>
  <fix>3d</fix>
</trkpt>
<trkpt lat="-27.274439" lon="151.290064">
  <ele>343.1</ele>
  <time>2026-09-01T19:53:00Z</time>
  <course>270.0</course>
  <speed>0.0</speed>
  <fix>3d</fix>
</trkpt>
<trkpt lat="-27.2744391" lon="151.290064">
  <ele>343.07</ele>
  <time>2026-09-01T19:53:00Z</time>
  <course>10.71</course>
  <speed>0.01414213562373095</speed>
  <fix>3d</fix>
</trkpt>
<trkpt lat="-27.274439" lon="151.290064">
  <ele>343.1</ele>
  <time>2026-09-01T19:53:00Z</time>
  <course>270.0</course>
  <speed>0.0</speed>
  <fix>3d</fix>
</trkpt>
<trkpt lat="-27.2744391" lon="151.290064">
  <ele>343.07</ele>
  <time>2026-09-01T19:53:00Z</time>
  <course>10.71</course>
  <speed>0.01414213562373095</speed>
  <fix>3d</fix>
</trkpt>
<trkpt lat="-27.274439" lon="151.290064">
  <ele>343.1</ele>
  <time>2026-09-01T19:53:00Z</time>
  <course>270.0</course>
  <speed>0.0</speed>
  <fix>3d</fix>
</trkpt>
<trkpt lat="-27.2744391" lon="151.290064">
  <ele>343.07</ele>
  <time>2026-09-01T19:53:00Z</time>
  <course>10.71</course>
  <speed>0.01414213562373095</speed>
  <fix>3d</fix>
</trkpt>
<trkpt lat="-27.274439" lon="151.290064">
  <ele>343.1</ele>
  <time>2026-09-01T19:53:00Z</time>
  <course>270.0</course>
  <speed>0.0</speed>
  <fix>3d</fix>
</trkpt>
<trkpt lat="-27.2744391" lon="151.290064">
  <ele>343.07</ele>
  <time>2026-09-01T19:53:00Z</time>
  <course>10.71</course>
  <speed>0.01414213562373095</speed>
  <fix>3d</fix>
</trkpt>
<trkpt lat="-27.274439" lon="151.290064">
  <ele>343.1</ele>
  <time>2026-09-01T19:53:00Z</time>
  <course>270.0</course>
  <speed>0.0</speed>
  <fix>3d</fix>
</trkpt>
<trkpt lat="-27.2744391" lon="151.290064">
  <ele>343.07</ele>
  <time>2026-09-01T19:53:00Z</time>
  <course>10.71</course>
  <speed>0.01414213562373095</speed>
  <fix>3d</fix>
</trkpt>
<trkpt lat="-27.274439" lon="151.290064">
  <ele>343.1</ele>
  <time>2026-09-01T19:53:00Z</time>
  <course>270.0</course>
  <speed>0.0</speed>
  <fix>3d</fix>
</trkpt>
<trkpt lat="-27.2744391" lon="151.290064">
  <ele>343.06</ele>
  <time>2026-09-01T19:53:00Z</time>
  <course>10.71</course>
  <speed>0.01414213562373095</speed>
  <fix>3d</fix>
</trkpt>
<trkpt lat="-27.274439" lon="151.290064">
  <ele>343.1</ele>
  <time>2026-09-01T19:53:00Z</time>
  <course>270.0</course>
  <speed>0.0</speed>
  <fix>3d</fix>
</trkpt>
<trkpt lat="-27.2744391" lon="151.290064">
  <ele>343.06</ele>
  <time>2026-09-01T19:53:00Z</time>
  <course>10.71</course>
  <speed>0.01414213562373095</speed>
  <fix>3d</fix>
</trkpt>
<trkpt lat="-27.274439" lon="151.290064">
  <ele>343.1</ele>
  <time>2026-09-01T19:53:00Z</time>
  <course>270.0</course>
  <speed>0.0</speed>
  <fix>3d</fix>
</trkpt>
<trkpt lat="-27.2744391" lon="151.290064">
  <ele>343.06</ele>
  <time>2026-09-01T19:53:00Z</time>
  <course>10.71</course>
  <speed>0.01414213562373095</speed>
  <fix>3d</fix>
</trkpt>
<trkpt lat="-27.274439" lon="151.290064">
  <ele>343.1</ele>
  <time>2026-09-01T19:53:00Z</time>
  <course>270.0</course>
  <speed>0.0</speed>
  <fix>3d</fix>
</trkpt>
<trkpt lat="-27.2744391" lon="151.290064">
  <ele>343.06</ele>
  <time>2026-09-01T19:53:00Z</time>
  <course>10.71</course>
  <speed>0.01414213562373095</speed>
  <fix>3d</fix>
</trkpt>
<trkpt lat="-27.274439" lon="151.290064">
  <ele>343.1</ele>
  <time>2026-09-01T19:53:00Z</time>
  <course>270.0</course>
  <speed>0.0</speed>
  <fix>3d</fix>
</trkpt>
<trkpt lat="-27.2744391" lon="151.290064">
  <ele>343.06</ele>
  <time>2026-09-01T19:53:00Z</time>
  <course>10.71</course>
  <speed>0.01414213562373095</speed>
  <fix>3d</fix>
</trkpt>
<trkpt lat="-27.274439" lon="151.290064">
  <ele>343.1</ele>
  <time>2026-09-01T19:53:00Z</time>
  <course>270.0</course>
  <speed>0.0</speed>
  <fix>3d</fix>
</trkpt>
<trkpt lat="-27.2744391" lon="151.290064">
  <ele>343.06</ele>
  <time>2026-09-01T19:53:00Z</time>
  <course>10.71</course>
  <speed>0.01414213562373095</speed>
  <fix>3d</fix>
</trkpt>
<trkpt lat="-27.274439" lon="151.290064">
  <ele>343.1</ele>
  <time>2026-09-01T19:53:00Z</time>
  <course>270.0</course>
  <speed>0.0</speed>
  <fix>3d</fix>
</trkpt>
<trkpt lat="-27.2744391" lon="151.290064">
  <ele>343.07</ele>
  <time>2026-09-01T19:53:00Z</time>
  <course>10.71</course>
  <speed>0.01414213562373095</speed>
  <fix>3d</fix>
</trkpt>
<trkpt lat="-27.274439" lon="151.290064">
  <ele>343.1</ele>
  <time>2026-09-01T19:53:00Z</time>
  <course>270.0</course>
  <speed>0.0</speed>
  <fix>3d</fix>
</trkpt>
<trkpt lat="-27.2744391" lon="151.290064">
  <ele>343.07</ele>
  <time>2026-09-01T19:53:00Z</time>
  <course>10.71</course>
  <speed>0.01414213562373095</speed>
  <fix>3d</fix>
</trkpt>
<trkpt lat="-27.274439" lon="151.290064">
  <ele>343.1</ele>
  <time>2026-09-01T19:53:00Z</time>
  <course>270.0</course>
  <speed>0.0</speed>
  <fix>3d</fix>
</trkpt>
<trkpt lat="-27.2744391" lon="151.290064">
  <ele>343.07</ele>
  <time>2026-09-01T19:53:00Z</time>
  <course>10.71</course>
  <speed>0.01414213562373095</speed>
  <fix>3d</fix>
</trkpt>
<trkpt lat="-27.274439" lon="151.290064">
  <ele>343.1</ele>
  <time>2026-09-01T19:53:00Z</time>
  <course>270.0</course>
  <speed>0.0</speed>
  <fix>3d</fix>
</trkpt>
<trkpt lat="-27.2744391" lon="151.290064">
  <ele>343.07</ele>
  <time>2026-09-01T19:53:00Z</time>
  <course>10.71</course>
  <speed>0.01414213562373095</speed>
  <fix>3d</fix>
</trkpt>
<trkpt lat="-27.274439" lon="151.290064">
  <ele>343.1</ele>
  <time>2026-09-01T19:53:00Z</time>
  <course>270.0</course>
  <speed>0.0</speed>
  <fix>3d</fix>
</trkpt>
<trkpt lat="-27.2744391" lon="151.290064">
  <ele>343.07</ele>
  <time>2026-09-01T19:53:00Z</time>
  <course>10.71</course>
  <speed>0.01414213562373095</speed>
  <fix>3d</fix>
</trkpt>
<trkpt lat="-27.274439" lon="151.290064">
  <ele>343.1</ele>
  <time>2026-09-01T19:53:00Z</time>
  <course>270.0</course>
  <speed>0.0</speed>
  <fix>3d</fix>
</trkpt>
<trkpt lat="-27.2744391" lon="151.290064">
  <ele>343.06</ele>
  <time>2026-09-01T19:53:00Z</time>
  <course>10.71</course>
  <speed>0.01414213562373095</speed>
  <fix>3d</fix>
</trkpt>
<trkpt lat="-27.274439" lon="151.290064">
  <ele>343.1</ele>
  <time>2026-09-01T19:53:00Z</time>
  <course>270.0</course>
  <speed>0.0</speed>
  <fix>3d</fix>
</trkpt>
<trkpt lat="-27.2744391" lon="151.2900641">
  <ele>343.06</ele>
  <time>2026-09-01T19:53:00Z</time>
  <course>10.71</course>
  <speed>0.01414213562373095</speed>
  <fix>3d</fix>
</trkpt>
<trkpt lat="-27.274439" lon="151.290064">
  <ele>343.1</ele>
  <time>2026-09-01T19:53:00Z</time>
  <course>270.0</course>
  <speed>0.0</speed>
  <fix>3d</fix>
</trkpt>
<trkpt lat="-27.2744391" lon="151.2900641">
  <ele>343.06</ele>
  <time>2026-09-01T19:53:00Z</time>
  <course>10.71</course>
  <speed>0.01414213562373095</speed>
  <fix>3d</fix>
</trkpt>
<trkpt lat="-27.274439" lon="151.290064">
  <ele>343.1</ele>
  <time>2026-09-01T19:53:00Z</time>
  <course>270.0</course>
  <speed>0.0</speed>
  <fix>3d</fix>
</trkpt>
<trkpt lat="-27.2744391" lon="151.2900641">
  <ele>343.06</ele>
  <time>2026-09-01T19:53:00Z</time>
  <course>10.71</course>
  <speed>0.01414213562373095</speed>
  <fix>3d</fix>
</trkpt>
<trkpt lat="-27.274439" lon="151.290064">
  <ele>343.1</ele>
  <time>2026-09-01T19:53:00Z</time>
  <course>270.0</course>
  <speed>0.0</speed>
  <fix>3d</fix>
</trkpt>
<trkpt lat="-27.2744391" lon="151.2900641">
  <ele>343.06</ele>
  <time>2026-09-01T19:53:00Z</time>
  <course>10.71</course>
  <speed>0.01414213562373095</speed>
  <fix>3d</fix>
</trkpt>
<trkpt lat="-27.274439" lon="151.290064">
  <ele>343.1</ele>
  <time>2026-09-01T19:53:00Z</time>
  <course>270.0</course>
  <speed>0.0</speed>
  <fix>3d</fix>
</trkpt>
<trkpt lat="-27.2744391" lon="151.2900641">
  <ele>343.05</ele>
  <time>2026-09-01T19:53:00Z</time>
  <course>10.71</course>
  <speed>0.01414213562373095</speed>
  <fix>3d</fix>
</trkpt>
<trkpt lat="-27.274439" lon="151.290064">
  <ele>343.1</ele>
  <time>2026-09-01T19:53:00Z</time>
  <course>270.0</course>
  <speed>0.0</speed>
  <fix>3d</fix>
</trkpt>
<trkpt lat="-27.2744391" lon="151.2900641">
  <ele>343.05</ele>
  <time>2026-09-01T19:53:00Z</time>
  <course>10.71</course>
  <speed>0.01414213562373095</speed>
  <fix>3d</fix>
</trkpt>
<trkpt lat="-27.274439" lon="151.290064">
  <ele>343.1</ele>
  <time>2026-09-01T19:53:00Z</time>
  <course>270.0</course>
  <speed>0.0</speed>
  <fix>3d</fix>
</trkpt>
<trkpt lat="-27.2744391" lon="151.2900641">
  <ele>343.04</ele>
  <time>2026-09-01T19:53:00Z</time>
  <course>10.71</course>
  <speed>0.01414213562373095</speed>
  <fix>3d</fix>
</trkpt>
<trkpt lat="-27.274439" lon="151.290064">
  <ele>343.1</ele>
  <time>2026-09-01T19:53:00Z</time>
  <course>270.0</course>
  <speed>0.0</speed>
  <fix>3d</fix>
</trkpt>
<trkpt lat="-27.2744391" lon="151.2900641">
  <ele>343.04</ele>
  <time>2026-09-01T19:53:00Z</time>
  <course>10.71</course>
  <speed>0.01414213562373095</speed>
  <fix>3d</fix>
</trkpt>
<trkpt lat="-27.274439" lon="151.290064">
  <ele>343.1</ele>
  <time>2026-09-01T19:53:00Z</time>
  <course>270.0</course>
  <speed>0.0</speed>
  <fix>3d</fix>
</trkpt>
<trkpt lat="-27.2744391" lon="151.2900641">
  <ele>343.04</ele>
  <time>2026-09-01T19:53:00Z</time>
  <course>10.71</course>
  <speed>0.01414213562373095</speed>
  <fix>3d</fix>
</trkpt>
<trkpt lat="-27.274439" lon="151.290064">
  <ele>343.1</ele>
  <time>2026-09-01T19:53:00Z</time>
  <course>270.0</course>
  <speed>0.0</speed>
  <fix>3d</fix>
</trkpt>
<trkpt lat="-27.2744391" lon="151.2900641">
  <ele>343.04</ele>
  <time>2026-09-01T19:53:00Z</time>
  <course>10.71</course>
  <speed>0.01414213562373095</speed>
  <fix>3d</fix>
</trkpt>
<trkpt lat="-27.274439" lon="151.290064">
  <ele>343.1</ele>
  <time>2026-09-01T19:53:00Z</time>
  <course>270.0</course>
  <speed>0.0</speed>
  <fix>3d</fix>
</trkpt>
<trkpt lat="-27.2744391" lon="151.2900641">
  <ele>343.04</ele>
  <time>2026-09-01T19:53:00Z</time>
  <course>10.71</course>
  <speed>0.01414213562373095</speed>
  <fix>3d</fix>
</trkpt>
<trkpt lat="-27.274439" lon="151.290064">
  <ele>343.1</ele>
  <time>2026-09-01T19:53:00Z</time>
  <course>270.0</course>
  <speed>0.0</speed>
  <fix>3d</fix>
</trkpt>
<trkpt lat="-27.2744391" lon="151.2900641">
  <ele>343.04</ele>
  <time>2026-09-01T19:53:00Z</time>
  <course>10.71</course>
  <speed>0.01414213562373095</speed>
  <fix>3d</fix>
</trkpt>
<trkpt lat="-27.274439" lon="151.290064">
  <ele>343.1</ele>
  <time>2026-09-01T19:53:00Z</time>
  <course>270.0</course>
  <speed>0.0</speed>
  <fix>3d</fix>
</trkpt>
<trkpt lat="-27.2744391" lon="151.2900641">
  <ele>343.04</ele>
  <time>2026-09-01T19:53:00Z</time>
  <course>10.71</course>
  <speed>0.01414213562373095</speed>
  <fix>3d</fix>
</trkpt>
<trkpt lat="-27.274439" lon="151.290064">
  <ele>343.1</ele>
  <time>2026-09-01T19:53:00Z</time>
  <course>270.0</course>
  <speed>0.0</speed>
  <fix>3d</fix>
</trkpt>
<trkpt lat="-27.2744391" lon="151.2900641">
  <ele>343.04</ele>
  <time>2026-09-01T19:53:00Z</time>
  <course>10.71</course>
  <speed>0.01414213562373095</speed>
  <fix>3d</fix>
</trkpt>
<trkpt lat="-27.274439" lon="151.290064">
  <ele>343.1</ele>
  <time>2026-09-01T19:53:00Z</time>
  <course>270.0</course>
  <speed>0.0</speed>
  <fix>3d</fix>
</trkpt>
<trkpt lat="-27.2744391" lon="151.2900641">
  <ele>343.04</ele>
  <time>2026-09-01T19:53:00Z</time>
  <course>10.71</course>
  <speed>0.01414213562373095</speed>
  <fix>3d</fix>
</trkpt>
<trkpt lat="-27.274439" lon="151.290064">
  <ele>343.1</ele>
  <time>2026-09-01T19:53:00Z</time>
  <course>270.0</course>
  <speed>0.0</speed>
  <fix>3d</fix>
</trkpt>
<trkpt lat="-27.2744391" lon="151.2900641">
  <ele>343.04</ele>
  <time>2026-09-01T19:53:00Z</time>
  <course>10.71</course>
  <speed>0.01414213562373095</speed>
  <fix>3d</fix>
</trkpt>
<trkpt lat="-27.274439" lon="151.290064">
  <ele>343.1</ele>
  <time>2026-09-01T19:53:00Z</time>
  <course>270.0</course>
  <speed>0.0</speed>
  <fix>3d</fix>
</trkpt>
<trkpt lat="-27.2744391" lon="151.2900641">
  <ele>343.03</ele>
  <time>2026-09-01T19:53:00Z</time>
  <course>10.71</course>
  <speed>0.01414213562373095</speed>
  <fix>3d</fix>
</trkpt>
<trkpt lat="-27.274439" lon="151.290064">
  <ele>343.1</ele>
  <time>2026-09-01T19:53:00Z</time>
  <course>270.0</course>
  <speed>0.0</speed>
  <fix>3d</fix>
</trkpt>
<trkpt lat="-27.2744391" lon="151.2900641">
  <ele>343.03</ele>
  <time>2026-09-01T19:53:00Z</time>
  <course>10.71</course>
  <speed>0.01414213562373095</speed>
  <fix>3d</fix>
</trkpt>
<trkpt lat="-27.274439" lon="151.290064">
  <ele>343.1</ele>
  <time>2026-09-01T19:53:00Z</time>
  <course>270.0</course>
  <speed>0.0</speed>
  <fix>3d</fix>
</trkpt>
<trkpt lat="-27.2744391" lon="151.2900641">
  <ele>343.03</ele>
  <time>2026-09-01T19:53:00Z</time>
  <course>10.72</course>
  <speed>0.01414213562373095</speed>
  <fix>3d</fix>
</trkpt>
<trkpt lat="-27.274439" lon="151.290064">
  <ele>343.1</ele>
  <time>2026-09-01T19:53:00Z</time>
  <course>270.0</course>
  <speed>0.0</speed>
  <fix>3d</fix>
</trkpt>
<trkpt lat="-27.2744391" lon="151.2900641">
  <ele>343.03</ele>
  <time>2026-09-01T19:53:00Z</time>
  <course>10.72</course>
  <speed>0.01414213562373095</speed>
  <fix>3d</fix>
</trkpt>
<trkpt lat="-27.274439" lon="151.290064">
  <ele>343.1</ele>
  <time>2026-09-01T19:53:00Z</time>
  <course>270.0</course>
  <speed>0.0</speed>
  <fix>3d</fix>
</trkpt>
<trkpt lat="-27.2744391" lon="151.2900641">
  <ele>343.03</ele>
  <time>2026-09-01T19:53:00Z</time>
  <course>10.72</course>
  <speed>0.01414213562373095</speed>
  <fix>3d</fix>
</trkpt>
<trkpt lat="-27.274439" lon="151.290064">
  <ele>343.1</ele>
  <time>2026-09-01T19:53:00Z</time>
  <course>270.0</course>
  <speed>0.0</speed>
  <fix>3d</fix>
</trkpt>
<trkpt lat="-27.2744391" lon="151.2900641">
  <ele>343.03</ele>
  <time>2026-09-01T19:53:00Z</time>
  <course>10.72</course>
  <speed>0.01414213562373095</speed>
  <fix>3d</fix>
</trkpt>
<trkpt lat="-27.274439" lon="151.290064">
  <ele>343.1</ele>
  <time>2026-09-01T19:53:00Z</time>
  <course>270.0</course>
  <speed>0.0</speed>
  <fix>3d</fix>
</trkpt>
<trkpt lat="-27.2744391" lon="151.2900641">
  <ele>343.03</ele>
  <time>2026-09-01T19:53:00Z</time>
  <course>10.72</course>
  <speed>0.01414213562373095</speed>
  <fix>3d</fix>
</trkpt>
<trkpt lat="-27.274439" lon="151.290064">
  <ele>343.1</ele>
  <time>2026-09-01T19:53:00Z</time>
  <course>270.0</course>
  <speed>0.0</speed>
  <fix>3d</fix>
</trkpt>
<trkpt lat="-27.2744391" lon="151.2900641">
  <ele>343.04</ele>
  <time>2026-09-01T19:53:00Z</time>
  <course>10.72</course>
  <speed>0.01414213562373095</speed>
  <fix>3d</fix>
</trkpt>
<trkpt lat="-27.274439" lon="151.290064">
  <ele>343.1</ele>
  <time>2026-09-01T19:53:00Z</time>
  <course>270.0</course>
  <speed>0.0</speed>
  <fix>3d</fix>
</trkpt>
<trkpt lat="-27.2744391" lon="151.2900641">
  <ele>343.09</ele>
  <time>2026-09-01T19:53:00Z</time>
  <course>10.72</course>
  <speed>0.01414213562373095</speed>
  <fix>3d</fix>
</trkpt>
<trkpt lat="-27.274439" lon="151.290064">
  <ele>343.1</ele>
  <time>2026-09-01T19:53:00Z</time>
  <course>270.0</course>
  <speed>0.0</speed>
  <fix>3d</fix>
</trkpt>
<trkpt lat="-27.2744391" lon="151.2900641">
  <ele>343.09</ele>
  <time>2026-09-01T19:53:00Z</time>
  <course>10.72</course>
  <speed>0.01414213562373095</speed>
  <fix>3d</fix>
</trkpt>
<trkpt lat="-27.274439" lon="151.290064">
  <ele>343.1</ele>
  <time>2026-09-01T19:53:00Z</time>
  <course>270.0</course>
  <speed>0.0</speed>
  <fix>3d</fix>
</trkpt>
<trkpt lat="-27.2744391" lon="151.2900641">
  <ele>343.09</ele>
  <time>2026-09-01T19:53:00Z</time>
  <course>10.72</course>
  <speed>0.01414213562373095</speed>
  <fix>3d</fix>
</trkpt>
<trkpt lat="-27.274439" lon="151.290064">
  <ele>343.1</ele>
  <time>2026-09-01T19:53:00Z</time>
  <course>270.0</course>
  <speed>0.0</speed>
  <fix>3d</fix>
</trkpt>
<trkpt lat="-27.2744391" lon="151.2900641">
  <ele>343.09</ele>
  <time>2026-09-01T19:53:00Z</time>
  <course>10.72</course>
  <speed>0.01414213562373095</speed>
  <fix>3d</fix>
</trkpt>
<trkpt lat="-27.274439" lon="151.290064">
  <ele>343.1</ele>
  <time>2026-09-01T19:53:00Z</time>
  <course>270.0</course>
  <speed>0.0</speed>
  <fix>3d</fix>
</trkpt>
<trkpt lat="-27.2744391" lon="151.2900641">
  <ele>343.09</ele>
  <time>2026-09-01T19:53:00Z</time>
  <course>10.72</course>
  <speed>0.01414213562373095</speed>
  <fix>3d</fix>
</trkpt>
<trkpt lat="-27.274439" lon="151.290064">
  <ele>343.1</ele>
  <time>2026-09-01T19:53:00Z</time>
  <course>270.0</course>
  <speed>0.0</speed>
  <fix>3d</fix>
</trkpt>
<trkpt lat="-27.2744391" lon="151.2900641">
  <ele>343.08</ele>
  <time>2026-09-01T19:53:00Z</time>
  <course>10.72</course>
  <speed>0.01414213562373095</speed>
  <fix>3d</fix>
</trkpt>
<trkpt lat="-27.274439" lon="151.290064">
  <ele>343.1</ele>
  <time>2026-09-01T19:53:00Z</time>
  <course>270.0</course>
  <speed>0.0</speed>
  <fix>3d</fix>
</trkpt>
<trkpt lat="-27.2744391" lon="151.2900641">
  <ele>343.08</ele>
  <time>2026-09-01T19:53:00Z</time>
  <course>10.72</course>
  <speed>0.01414213562373095</speed>
  <fix>3d</fix>
</trkpt>
<trkpt lat="-27.274439" lon="151.290064">
  <ele>343.1</ele>
  <time>2026-09-01T19:53:00Z</time>
  <course>270.0</course>
  <speed>0.0</speed>
  <fix>3d</fix>
</trkpt>
<trkpt lat="-27.2744391" lon="151.2900641">
  <ele>343.08</ele>
  <time>2026-09-01T19:53:00Z</time>
  <course>10.72</course>
  <speed>0.01414213562373095</speed>
  <fix>3d</fix>
</trkpt>
<trkpt lat="-27.274439" lon="151.290064">
  <ele>343.1</ele>
  <time>2026-09-01T19:53:00Z</time>
  <course>270.0</course>
  <speed>0.0</speed>
  <fix>3d</fix>
</trkpt>
<trkpt lat="-27.2744391" lon="151.2900641">
  <ele>343.07</ele>
  <time>2026-09-01T19:53:00Z</time>
  <course>10.72</course>
  <speed>0.01414213562373095</speed>
  <fix>3d</fix>
</trkpt>
<trkpt lat="-27.274439" lon="151.290064">
  <ele>343.1</ele>
  <time>2026-09-01T19:53:00Z</time>
  <course>270.0</course>
  <speed>0.0</speed>
  <fix>3d</fix>
</trkpt>
<trkpt lat="-27.2744391" lon="151.2900641">
  <ele>343.07</ele>
  <time>2026-09-01T19:53:00Z</time>
  <course>10.72</course>
  <speed>0.01414213562373095</speed>
  <fix>3d</fix>
</trkpt>
<trkpt lat="-27.274439" lon="151.290064">
  <ele>343.1</ele>
  <time>2026-09-01T19:53:00Z</time>
  <course>270.0</course>
  <speed>0.0</speed>
  <fix>3d</fix>
</trkpt>
<trkpt lat="-27.2744391" lon="151.2900641">
  <ele>343.06</ele>
  <time>2026-09-01T19:53:00Z</time>
  <course>10.72</course>
  <speed>0.01414213562373095</speed>
  <fix>3d</fix>
</trkpt>
<trkpt lat="-27.274439" lon="151.290064">
  <ele>343.1</ele>
  <time>2026-09-01T19:53:00Z</time>
  <course>270.0</course>
  <speed>0.0</speed>
  <fix>3d</fix>
</trkpt>
<trkpt lat="-27.2744391" lon="151.2900641">
  <ele>343.06</ele>
  <time>2026-09-01T19:53:00Z</time>
  <course>10.72</course>
  <speed>0.01414213562373095</speed>
  <fix>3d</fix>
</trkpt>
<trkpt lat="-27.274439" lon="151.290064">
  <ele>343.1</ele>
  <time>2026-09-01T19:53:00Z</time>
  <course>270.0</course>
  <speed>0.0</speed>
  <fix>3d</fix>
</trkpt>
<trkpt lat="-27.2744391" lon="151.2900641">
  <ele>343.05</ele>
  <time>2026-09-01T19:53:00Z</time>
  <course>10.72</course>
  <speed>0.01414213562373095</speed>
  <fix>3d</fix>
</trkpt>
<trkpt lat="-27.274439" lon="151.290064">
  <ele>343.1</ele>
  <time>2026-09-01T19:53:00Z</time>
  <course>270.0</course>
  <speed>0.0</speed>
  <fix>3d</fix>
</trkpt>
<trkpt lat="-27.2744391" lon="151.2900641">
  <ele>343.05</ele>
  <time>2026-09-01T19:53:00Z</time>
  <course>10.72</course>
  <speed>0.01414213562373095</speed>
  <fix>3d</fix>
</trkpt>
<trkpt lat="-27.274439" lon="151.290064">
  <ele>343.1</ele>
  <time>2026-09-01T19:53:00Z</time>
  <course>270.0</course>
  <speed>0.0</speed>
  <fix>3d</fix>
</trkpt>
<trkpt lat="-27.2744391" lon="151.2900641">
  <ele>343.05</ele>
  <time>2026-09-01T19:53:00Z</time>
  <course>10.72</course>
  <speed>0.01414213562373095</speed>
  <fix>3d</fix>
</trkpt>
<trkpt lat="-27.274439" lon="151.290064">
  <ele>343.1</ele>
  <time>2026-09-01T19:53:00Z</time>
  <course>270.0</course>
  <speed>0.0</speed>
  <fix>3d</fix>
</trkpt>
<trkpt lat="-27.2744391" lon="151.2900641">
  <ele>343.04</ele>
  <time>2026-09-01T19:53:00Z</time>
  <course>10.72</course>
  <speed>0.01414213562373095</speed>
  <fix>3d</fix>
</trkpt>
<trkpt lat="-27.274439" lon="151.290064">
  <ele>343.1</ele>
  <time>2026-09-01T19:53:00Z</time>
  <course>270.0</course>
  <speed>0.0</speed>
  <fix>3d</fix>
</trkpt>
<trkpt lat="-27.2744391" lon="151.2900641">
  <ele>343.04</ele>
  <time>2026-09-01T19:53:00Z</time>
  <course>10.72</course>
  <speed>0.01414213562373095</speed>
  <fix>3d</fix>
</trkpt>
<trkpt lat="-27.274439" lon="151.290064">
  <ele>343.1</ele>
  <time>2026-09-01T19:53:00Z</time>
  <course>270.0</course>
  <speed>0.0</speed>
  <fix>3d</fix>
</trkpt>
<trkpt lat="-27.2744391" lon="151.2900641">
  <ele>343.03</ele>
  <time>2026-09-01T19:53:00Z</time>
  <course>10.72</course>
  <speed>0.01414213562373095</speed>
  <fix>3d</fix>
</trkpt>
<trkpt lat="-27.274439" lon="151.290064">
  <ele>343.1</ele>
  <time>2026-09-01T19:53:00Z</time>
  <course>270.0</course>
  <speed>0.0</speed>
  <fix>3d</fix>
</trkpt>
<trkpt lat="-27.2744391" lon="151.2900641">
  <ele>343.03</ele>
  <time>2026-09-01T19:53:00Z</time>
  <course>10.72</course>
  <speed>0.01414213562373095</speed>
  <fix>3d</fix>
</trkpt>
<trkpt lat="-27.274439" lon="151.290064">
  <ele>343.1</ele>
  <time>2026-09-01T19:53:00Z</time>
  <course>270.0</course>
  <speed>0.0</speed>
  <fix>3d</fix>
</trkpt>
<trkpt lat="-27.2744391" lon="151.2900641">
  <ele>343.03</ele>
  <time>2026-09-01T19:53:00Z</time>
  <course>10.72</course>
  <speed>0.01414213562373095</speed>
  <fix>3d</fix>
</trkpt>
<trkpt lat="-27.274439" lon="151.290064">
  <ele>343.1</ele>
  <time>2026-09-01T19:53:00Z</time>
  <course>270.0</course>
  <speed>0.0</speed>
  <fix>3d</fix>
</trkpt>
<trkpt lat="-27.2744391" lon="151.2900641">
  <ele>343.02</ele>
  <time>2026-09-01T19:53:00Z</time>
  <course>10.72</course>
  <speed>0.01414213562373095</speed>
  <fix>3d</fix>
</trkpt>
<trkpt lat="-27.274439" lon="151.290064">
  <ele>343.1</ele>
  <time>2026-09-01T19:53:00Z</time>
  <course>270.0</course>
  <speed>0.0</speed>
  <fix>3d</fix>
</trkpt>
<trkpt lat="-27.2744391" lon="151.2900641">
  <ele>343.02</ele>
  <time>2026-09-01T19:53:00Z</time>
  <course>10.72</course>
  <speed>0.01414213562373095</speed>
  <fix>3d</fix>
</trkpt>
<trkpt lat="-27.274439" lon="151.290064">
  <ele>343.1</ele>
  <time>2026-09-01T19:53:00Z</time>
  <course>270.0</course>
  <speed>0.0</speed>
  <fix>3d</fix>
</trkpt>
<trkpt lat="-27.2744391" lon="151.2900641">
  <ele>343.02</ele>
  <time>2026-09-01T19:53:00Z</time>
  <course>10.72</course>
  <speed>0.01414213562373095</speed>
  <fix>3d</fix>
</trkpt>
<trkpt lat="-27.274439" lon="151.290064">
  <ele>343.1</ele>
  <time>2026-09-01T19:53:00Z</time>
  <course>270.0</course>
  <speed>0.0</speed>
  <fix>3d</fix>
</trkpt>
<trkpt lat="-27.2744391" lon="151.2900641">
  <ele>343.02</ele>
  <time>2026-09-01T19:53:00Z</time>
  <course>10.72</course>
  <speed>0.01414213562373095</speed>
  <fix>3d</fix>
</trkpt>
<trkpt lat="-27.274439" lon="151.290064">
  <ele>343.1</ele>
  <time>2026-09-01T19:53:00Z</time>
  <course>270.0</course>
  <speed>0.0</speed>
  <fix>3d</fix>
</trkpt>
<trkpt lat="-27.2744391" lon="151.2900641">
  <ele>343.02</ele>
  <time>2026-09-01T19:53:00Z</time>
  <course>10.72</course>
  <speed>0.01414213562373095</speed>
  <fix>3d</fix>
</trkpt>
<trkpt lat="-27.274439" lon="151.290064">
  <ele>343.1</ele>
  <time>2026-09-01T19:53:00Z</time>
  <course>270.0</course>
  <speed>0.0</speed>
  <fix>3d</fix>
</trkpt>
<trkpt lat="-27.2744391" lon="151.2900641">
  <ele>343.01</ele>
  <time>2026-09-01T19:53:00Z</time>
  <course>10.72</course>
  <speed>0.01414213562373095</speed>
  <fix>3d</fix>
</trkpt>
<trkpt lat="-27.274439" lon="151.290064">
  <ele>343.1</ele>
  <time>2026-09-01T19:53:00Z</time>
  <course>270.0</course>
  <speed>0.0</speed>
  <fix>3d</fix>
</trkpt>
<trkpt lat="-27.2744391" lon="151.2900641">
  <ele>343.01</ele>
  <time>2026-09-01T19:53:00Z</time>
  <course>10.72</course>
  <speed>0.01414213562373095</speed>
  <fix>3d</fix>
</trkpt>
<trkpt lat="-27.274439" lon="151.290064">
  <ele>343.1</ele>
  <time>2026-09-01T19:53:00Z</time>
  <course>270.0</course>
  <speed>0.0</speed>
  <fix>3d</fix>
</trkpt>
<trkpt lat="-27.2744391" lon="151.2900641">
  <ele>343.01</ele>
  <time>2026-09-01T19:53:00Z</time>
  <course>10.72</course>
  <speed>0.01414213562373095</speed>
  <fix>3d</fix>
</trkpt>
<trkpt lat="-27.274439" lon="151.290064">
  <ele>343.1</ele>
  <time>2026-09-01T19:53:00Z</time>
  <course>270.0</course>
  <speed>0.0</speed>
  <fix>3d</fix>
</trkpt>
<trkpt lat="-27.2744391" lon="151.2900641">
  <ele>343.0</ele>
  <time>2026-09-01T19:53:00Z</time>
  <course>10.73</course>
  <speed>0.01414213562373095</speed>
  <fix>3d</fix>
</trkpt>
<trkpt lat="-27.274439" lon="151.290064">
  <ele>343.1</ele>
  <time>2026-09-01T19:53:00Z</time>
  <course>270.0</course>
  <speed>0.0</speed>
  <fix>3d</fix>
</trkpt>
<trkpt lat="-27.2744391" lon="151.2900641">
  <ele>343.0</ele>
  <time>2026-09-01T19:53:00Z</time>
  <course>10.73</course>
  <speed>0.01414213562373095</speed>
  <fix>3d</fix>
</trkpt>
<trkpt lat="-27.274439" lon="151.290064">
  <ele>343.1</ele>
  <time>2026-09-01T19:53:00Z</time>
  <course>270.0</course>
  <speed>0.0</speed>
  <fix>3d</fix>
</trkpt>
<trkpt lat="-27.2744391" lon="151.2900641">
  <ele>342.99</ele>
  <time>2026-09-01T19:53:00Z</time>
  <course>10.73</course>
  <speed>0.01414213562373095</speed>
  <fix>3d</fix>
</trkpt>
<trkpt lat="-27.274439" lon="151.290064">
  <ele>343.1</ele>
  <time>2026-09-01T19:53:00Z</time>
  <course>270.0</course>
  <speed>0.0</speed>
  <fix>3d</fix>
</trkpt>
<trkpt lat="-27.2744391" lon="151.2900641">
  <ele>342.99</ele>
  <time>2026-09-01T19:53:00Z</time>
  <course>10.73</course>
  <speed>0.01414213562373095</speed>
  <fix>3d</fix>
</trkpt>
<trkpt lat="-27.274439" lon="151.290064">
  <ele>343.1</ele>
  <time>2026-09-01T19:53:00Z</time>
  <course>270.0</course>
  <speed>0.0</speed>
  <fix>3d</fix>
</trkpt>
<trkpt lat="-27.2744391" lon="151.2900641">
  <ele>342.99</ele>
  <time>2026-09-01T19:53:00Z</time>
  <course>10.73</course>
  <speed>0.01414213562373095</speed>
  <fix>3d</fix>
</trkpt>
<trkpt lat="-27.274439" lon="151.290064">
  <ele>343.1</ele>
  <time>2026-09-01T19:53:00Z</time>
  <course>270.0</course>
  <speed>0.0</speed>
  <fix>3d</fix>
</trkpt>
<trkpt lat="-27.2744391" lon="151.2900641">
  <ele>342.99</ele>
  <time>2026-09-01T19:53:00Z</time>
  <course>10.73</course>
  <speed>0.01414213562373095</speed>
  <fix>3d</fix>
</trkpt>
<trkpt lat="-27.274439" lon="151.290064">
  <ele>343.1</ele>
  <time>2026-09-01T19:53:00Z</time>
  <course>270.0</course>
  <speed>0.0</speed>
  <fix>3d</fix>
</trkpt>
<trkpt lat="-27.2744391" lon="151.2900641">
  <ele>342.99</ele>
  <time>2026-09-01T19:53:00Z</time>
  <course>10.73</course>
  <speed>0.01414213562373095</speed>
  <fix>3d</fix>
</trkpt>
<trkpt lat="-27.274439" lon="151.290064">
  <ele>343.1</ele>
  <time>2026-09-01T19:53:00Z</time>
  <course>270.0</course>
  <speed>0.0</speed>
  <fix>3d</fix>
</trkpt>
<trkpt lat="-27.2744391" lon="151.2900641">
  <ele>342.98</ele>
  <time>2026-09-01T19:53:00Z</time>
  <course>10.73</course>
  <speed>0.01414213562373095</speed>
  <fix>3d</fix>
</trkpt>
<trkpt lat="-27.274439" lon="151.290064">
  <ele>343.1</ele>
  <time>2026-09-01T19:53:00Z</time>
  <course>270.0</course>
  <speed>0.0</speed>
  <fix>3d</fix>
</trkpt>
<trkpt lat="-27.2744391" lon="151.2900641">
  <ele>342.98</ele>
  <time>2026-09-01T19:53:00Z</time>
  <course>10.73</course>
  <speed>0.01414213562373095</speed>
  <fix>3d</fix>
</trkpt>
<trkpt lat="-27.274439" lon="151.290064">
  <ele>343.1</ele>
  <time>2026-09-01T19:53:00Z</time>
  <course>270.0</course>
  <speed>0.0</speed>
  <fix>3d</fix>
</trkpt>
<trkpt lat="-27.2744391" lon="151.2900641">
  <ele>342.98</ele>
  <time>2026-09-01T19:53:00Z</time>
  <course>10.73</course>
  <speed>0.01414213562373095</speed>
  <fix>3d</fix>
</trkpt>
<trkpt lat="-27.274439" lon="151.290064">
  <ele>343.1</ele>
  <time>2026-09-01T19:53:00Z</time>
  <course>270.0</course>
  <speed>0.0</speed>
  <fix>3d</fix>
</trkpt>
<trkpt lat="-27.2744391" lon="151.2900641">
  <ele>342.98</ele>
  <time>2026-09-01T19:53:00Z</time>
  <course>10.73</course>
  <speed>0.01414213562373095</speed>
  <fix>3d</fix>
</trkpt>
<trkpt lat="-27.274439" lon="151.290064">
  <ele>343.1</ele>
  <time>2026-09-01T19:53:00Z</time>
  <course>270.0</course>
  <speed>0.0</speed>
  <fix>3d</fix>
</trkpt>
<trkpt lat="-27.2744391" lon="151.2900641">
  <ele>342.98</ele>
  <time>2026-09-01T19:53:00Z</time>
  <course>10.73</course>
  <speed>0.01414213562373095</speed>
  <fix>3d</fix>
</trkpt>
<trkpt lat="-27.274439" lon="151.290064">
  <ele>343.1</ele>
  <time>2026-09-01T19:53:00Z</time>
  <course>270.0</course>
  <speed>0.0</speed>
  <fix>3d</fix>
</trkpt>
<trkpt lat="-27.2744391" lon="151.2900641">
  <ele>342.98</ele>
  <time>2026-09-01T19:53:00Z</time>
  <course>10.73</course>
  <speed>0.01414213562373095</speed>
  <fix>3d</fix>
</trkpt>
<trkpt lat="-27.274439" lon="151.290064">
  <ele>343.1</ele>
  <time>2026-09-01T19:53:00Z</time>
  <course>270.0</course>
  <speed>0.0</speed>
  <fix>3d</fix>
</trkpt>
<trkpt lat="-27.2744391" lon="151.2900641">
  <ele>342.98</ele>
  <time>2026-09-01T19:53:00Z</time>
  <course>10.73</course>
  <speed>0.01414213562373095</speed>
  <fix>3d</fix>
</trkpt>
<trkpt lat="-27.274439" lon="151.290064">
  <ele>343.1</ele>
  <time>2026-09-01T19:53:00Z</time>
  <course>270.0</course>
  <speed>0.0</speed>
  <fix>3d</fix>
</trkpt>
<trkpt lat="-27.2744391" lon="151.2900641">
  <ele>342.98</ele>
  <time>2026-09-01T19:53:00Z</time>
  <course>10.73</course>
  <speed>0.01414213562373095</speed>
  <fix>3d</fix>
</trkpt>
<trkpt lat="-27.274439" lon="151.290064">
  <ele>343.1</ele>
  <time>2026-09-01T19:53:00Z</time>
  <course>270.0</course>
  <speed>0.0</speed>
  <fix>3d</fix>
</trkpt>
<trkpt lat="-27.2744391" lon="151.2900641">
  <ele>342.98</ele>
  <time>2026-09-01T19:53:00Z</time>
  <course>10.73</course>
  <speed>0.01414213562373095</speed>
  <fix>3d</fix>
</trkpt>
<trkpt lat="-27.274439" lon="151.290064">
  <ele>343.1</ele>
  <time>2026-09-01T19:53:00Z</time>
  <course>270.0</course>
  <speed>0.0</speed>
  <fix>3d</fix>
</trkpt>
<trkpt lat="-27.2744391" lon="151.2900641">
  <ele>342.98</ele>
  <time>2026-09-01T19:53:00Z</time>
  <course>10.73</course>
  <speed>0.01414213562373095</speed>
  <fix>3d</fix>
</trkpt>
<trkpt lat="-27.274439" lon="151.290064">
  <ele>343.1</ele>
  <time>2026-09-01T19:53:00Z</time>
  <course>270.0</course>
  <speed>0.0</speed>
  <fix>3d</fix>
</trkpt>
<trkpt lat="-27.2744391" lon="151.2900641">
  <ele>342.98</ele>
  <time>2026-09-01T19:53:00Z</time>
  <course>10.73</course>
  <speed>0.01414213562373095</speed>
  <fix>3d</fix>
</trkpt>
<trkpt lat="-27.274439" lon="151.290064">
  <ele>343.1</ele>
  <time>2026-09-01T19:53:00Z</time>
  <course>270.0</course>
  <speed>0.0</speed>
  <fix>3d</fix>
</trkpt>
<trkpt lat="-27.2744391" lon="151.2900641">
  <ele>342.97</ele>
  <time>2026-09-01T19:53:00Z</time>
  <course>10.73</course>
  <speed>0.01414213562373095</speed>
  <fix>3d</fix>
</trkpt>
<trkpt lat="-27.274439" lon="151.290064">
  <ele>343.1</ele>
  <time>2026-09-01T19:53:00Z</time>
  <course>270.0</course>
  <speed>0.0</speed>
  <fix>3d</fix>
</trkpt>
<trkpt lat="-27.2744391" lon="151.2900641">
  <ele>342.97</ele>
  <time>2026-09-01T19:53:00Z</time>
  <course>10.73</course>
  <speed>0.01414213562373095</speed>
  <fix>3d</fix>
</trkpt>
<trkpt lat="-27.274439" lon="151.290064">
  <ele>343.1</ele>
  <time>2026-09-01T19:53:00Z</time>
  <course>270.0</course>
  <speed>0.0</speed>
  <fix>3d</fix>
</trkpt>
<trkpt lat="-27.2744391" lon="151.2900641">
  <ele>342.97</ele>
  <time>2026-09-01T19:53:00Z</time>
  <course>10.73</course>
  <speed>0.01414213562373095</speed>
  <fix>3d</fix>
</trkpt>
<trkpt lat="-27.274439" lon="151.290064">
  <ele>343.1</ele>
  <time>2026-09-01T19:53:00Z</time>
  <course>270.0</course>
  <speed>0.0</speed>
  <fix>3d</fix>
</trkpt>
<trkpt lat="-27.2744391" lon="151.2900641">
  <ele>342.97</ele>
  <time>2026-09-01T19:53:00Z</time>
  <course>10.73</course>
  <speed>0.01414213562373095</speed>
  <fix>3d</fix>
</trkpt>
<trkpt lat="-27.274439" lon="151.290064">
  <ele>343.1</ele>
  <time>2026-09-01T19:53:00Z</time>
  <course>270.0</course>
  <speed>0.0</speed>
  <fix>3d</fix>
</trkpt>
<trkpt lat="-27.2744391" lon="151.2900641">
  <ele>342.96</ele>
  <time>2026-09-01T19:53:00Z</time>
  <course>10.73</course>
  <speed>0.01414213562373095</speed>
  <fix>3d</fix>
</trkpt>
<trkpt lat="-27.274439" lon="151.290064">
  <ele>343.1</ele>
  <time>2026-09-01T19:53:00Z</time>
  <course>270.0</course>
  <speed>0.0</speed>
  <fix>3d</fix>
</trkpt>
<trkpt lat="-27.2744391" lon="151.2900641">
  <ele>342.96</ele>
  <time>2026-09-01T19:53:00Z</time>
  <course>10.73</course>
  <speed>0.01414213562373095</speed>
  <fix>3d</fix>
</trkpt>
<trkpt lat="-27.274439" lon="151.290064">
  <ele>343.1</ele>
  <time>2026-09-01T19:53:00Z</time>
  <course>270.0</course>
  <speed>0.0</speed>
  <fix>3d</fix>
</trkpt>
<trkpt lat="-27.2744391" lon="151.2900641">
  <ele>342.96</ele>
  <time>2026-09-01T19:53:00Z</time>
  <course>10.73</course>
  <speed>0.01414213562373095</speed>
  <fix>3d</fix>
</trkpt>
<trkpt lat="-27.274439" lon="151.290064">
  <ele>343.1</ele>
  <time>2026-09-01T19:53:00Z</time>
  <course>270.0</course>
  <speed>0.0</speed>
  <fix>3d</fix>
</trkpt>
<trkpt lat="-27.2744391" lon="151.2900641">
  <ele>342.95</ele>
  <time>2026-09-01T19:53:00Z</time>
  <course>10.73</course>
  <speed>0.01414213562373095</speed>
  <fix>3d</fix>
</trkpt>
<trkpt lat="-27.274439" lon="151.290064">
  <ele>343.1</ele>
  <time>2026-09-01T19:53:00Z</time>
  <course>270.0</course>
  <speed>0.0</speed>
  <fix>3d</fix>
</trkpt>
<trkpt lat="-27.2744391" lon="151.2900641">
  <ele>342.95</ele>
  <time>2026-09-01T19:53:00Z</time>
  <course>10.73</course>
  <speed>0.01414213562373095</speed>
  <fix>3d</fix>
</trkpt>
<trkpt lat="-27.274439" lon="151.290064">
  <ele>343.1</ele>
  <time>2026-09-01T19:53:00Z</time>
  <course>270.0</course>
  <speed>0.0</speed>
  <fix>3d</fix>
</trkpt>
<trkpt lat="-27.2744391" lon="151.2900641">
  <ele>342.95</ele>
  <time>2026-09-01T19:53:00Z</time>
  <course>10.73</course>
  <speed>0.01414213562373095</speed>
  <fix>3d</fix>
</trkpt>
<trkpt lat="-27.274439" lon="151.290064">
  <ele>343.1</ele>
  <time>2026-09-01T19:53:00Z</time>
  <course>270.0</course>
  <speed>0.0</speed>
  <fix>3d</fix>
</trkpt>
<trkpt lat="-27.2744391" lon="151.2900641">
  <ele>342.95</ele>
  <time>2026-09-01T19:53:00Z</time>
  <course>10.73</course>
  <speed>0.01414213562373095</speed>
  <fix>3d</fix>
</trkpt>
<trkpt lat="-27.274439" lon="151.290064">
  <ele>343.1</ele>
  <time>2026-09-01T19:53:00Z</time>
  <course>270.0</course>
  <speed>0.0</speed>
  <fix>3d</fix>
</trkpt>
<trkpt lat="-27.2744391" lon="151.2900641">
  <ele>342.95</ele>
  <time>2026-09-01T19:53:00Z</time>
  <course>10.73</course>
  <speed>0.01414213562373095</speed>
  <fix>3d</fix>
</trkpt>
<trkpt lat="-27.274439" lon="151.290064">
  <ele>343.1</ele>
  <time>2026-09-01T19:53:00Z</time>
  <course>270.0</course>
  <speed>0.0</speed>
  <fix>3d</fix>
</trkpt>
<trkpt lat="-27.2744391" lon="151.2900641">
  <ele>342.95</ele>
  <time>2026-09-01T19:53:00Z</time>
  <course>10.73</course>
  <speed>0.01414213562373095</speed>
  <fix>3d</fix>
</trkpt>
<trkpt lat="-27.274439" lon="151.290064">
  <ele>343.1</ele>
  <time>2026-09-01T19:53:00Z</time>
  <course>270.0</course>
  <speed>0.0</speed>
  <fix>3d</fix>
</trkpt>
<trkpt lat="-27.2744391" lon="151.2900641">
  <ele>342.96</ele>
  <time>2026-09-01T19:53:00Z</time>
  <course>10.73</course>
  <speed>0.01414213562373095</speed>
  <fix>3d</fix>
</trkpt>
<trkpt lat="-27.274439" lon="151.290064">
  <ele>343.1</ele>
  <time>2026-09-01T19:53:00Z</time>
  <course>270.0</course>
  <speed>0.0</speed>
  <fix>3d</fix>
</trkpt>
<trkpt lat="-27.2744391" lon="151.2900641">
  <ele>343.09</ele>
  <time>2026-09-01T19:53:00Z</time>
  <course>10.73</course>
  <speed>0.01414213562373095</speed>
  <fix>3d</fix>
</trkpt>
<trkpt lat="-27.274439" lon="151.290064">
  <ele>343.1</ele>
  <time>2026-09-01T19:53:00Z</time>
  <course>270.0</course>
  <speed>0.0</speed>
  <fix>3d</fix>
</trkpt>
<trkpt lat="-27.2744391" lon="151.2900641">
  <ele>343.09</ele>
  <time>2026-09-01T19:53:00Z</time>
  <course>10.74</course>
  <speed>0.01414213562373095</speed>
  <fix>3d</fix>
</trkpt>
<trkpt lat="-27.274439" lon="151.290064">
  <ele>343.1</ele>
  <time>2026-09-01T19:53:00Z</time>
  <course>270.0</course>
  <speed>0.0</speed>
  <fix>3d</fix>
</trkpt>
<trkpt lat="-27.2744391" lon="151.2900641">
  <ele>343.09</ele>
  <time>2026-09-01T19:53:00Z</time>
  <course>10.74</course>
  <speed>0.01414213562373095</speed>
  <fix>3d</fix>
</trkpt>
<trkpt lat="-27.274439" lon="151.290064">
  <ele>343.1</ele>
  <time>2026-09-01T19:53:00Z</time>
  <course>270.0</course>
  <speed>0.0</speed>
  <fix>3d</fix>
</trkpt>
<trkpt lat="-27.2744391" lon="151.2900641">
  <ele>343.09</ele>
  <time>2026-09-01T19:53:00Z</time>
  <course>10.74</course>
  <speed>0.01414213562373095</speed>
  <fix>3d</fix>
</trkpt>
<trkpt lat="-27.274439" lon="151.290064">
  <ele>343.1</ele>
  <time>2026-09-01T19:53:00Z</time>
  <course>270.0</course>
  <speed>0.0</speed>
  <fix>3d</fix>
</trkpt>
<trkpt lat="-27.2744391" lon="151.2900641">
  <ele>343.09</ele>
  <time>2026-09-01T19:53:00Z</time>
  <course>10.74</course>
  <speed>0.01414213562373095</speed>
  <fix>3d</fix>
</trkpt>
<trkpt lat="-27.274439" lon="151.290064">
  <ele>343.1</ele>
  <time>2026-09-01T19:53:00Z</time>
  <course>270.0</course>
  <speed>0.0</speed>
  <fix>3d</fix>
</trkpt>
<trkpt lat="-27.2744391" lon="151.2900641">
  <ele>343.09</ele>
  <time>2026-09-01T19:53:00Z</time>
  <course>10.74</course>
  <speed>0.01414213562373095</speed>
  <fix>3d</fix>
</trkpt>
<trkpt lat="-27.274439" lon="151.290064">
  <ele>343.1</ele>
  <time>2026-09-01T19:53:00Z</time>
  <course>270.0</course>
  <speed>0.0</speed>
  <fix>3d</fix>
</trkpt>
<trkpt lat="-27.2744391" lon="151.2900641">
  <ele>343.08</ele>
  <time>2026-09-01T19:53:00Z</time>
  <course>10.74</course>
  <speed>0.01414213562373095</speed>
  <fix>3d</fix>
</trkpt>
<trkpt lat="-27.274439" lon="151.290064">
  <ele>343.1</ele>
  <time>2026-09-01T19:53:00Z</time>
  <course>270.0</course>
  <speed>0.0</speed>
  <fix>3d</fix>
</trkpt>
<trkpt lat="-27.2744391" lon="151.2900641">
  <ele>343.08</ele>
  <time>2026-09-01T19:53:00Z</time>
  <course>10.74</course>
  <speed>0.01414213562373095</speed>
  <fix>3d</fix>
</trkpt>
<trkpt lat="-27.274439" lon="151.290064">
  <ele>343.1</ele>
  <time>2026-09-01T19:53:00Z</time>
  <course>270.0</course>
  <speed>0.0</speed>
  <fix>3d</fix>
</trkpt>
<trkpt lat="-27.2744391" lon="151.2900641">
  <ele>343.08</ele>
  <time>2026-09-01T19:53:00Z</time>
  <course>10.74</course>
  <speed>0.01414213562373095</speed>
  <fix>3d</fix>
</trkpt>
<trkpt lat="-27.274439" lon="151.290064">
  <ele>343.1</ele>
  <time>2026-09-01T19:53:00Z</time>
  <course>270.0</course>
  <speed>0.0</speed>
  <fix>3d</fix>
</trkpt>
<trkpt lat="-27.2744391" lon="151.2900641">
  <ele>343.07</ele>
  <time>2026-09-01T19:53:00Z</time>
  <course>10.74</course>
  <speed>0.01414213562373095</speed>
  <fix>3d</fix>
</trkpt>
<trkpt lat="-27.274439" lon="151.290064">
  <ele>343.1</ele>
  <time>2026-09-01T19:53:00Z</time>
  <course>270.0</course>
  <speed>0.0</speed>
  <fix>3d</fix>
</trkpt>
<trkpt lat="-27.2744391" lon="151.2900641">
  <ele>343.07</ele>
  <time>2026-09-01T19:53:00Z</time>
  <course>10.74</course>
  <speed>0.01414213562373095</speed>
  <fix>3d</fix>
</trkpt>
<trkpt lat="-27.274439" lon="151.290064">
  <ele>343.1</ele>
  <time>2026-09-01T19:53:00Z</time>
  <course>270.0</course>
  <speed>0.0</speed>
  <fix>3d</fix>
</trkpt>
<trkpt lat="-27.2744391" lon="151.2900641">
  <ele>343.07</ele>
  <time>2026-09-01T19:53:00Z</time>
  <course>10.74</course>
  <speed>0.01414213562373095</speed>
  <fix>3d</fix>
</trkpt>
<trkpt lat="-27.274439" lon="151.290064">
  <ele>343.1</ele>
  <time>2026-09-01T19:53:00Z</time>
  <course>270.0</course>
  <speed>0.0</speed>
  <fix>3d</fix>
</trkpt>
<trkpt lat="-27.2744391" lon="151.2900641">
  <ele>343.07</ele>
  <time>2026-09-01T19:53:00Z</time>
  <course>10.74</course>
  <speed>0.01414213562373095</speed>
  <fix>3d</fix>
</trkpt>
<trkpt lat="-27.274439" lon="151.290064">
  <ele>343.1</ele>
  <time>2026-09-01T19:53:00Z</time>
  <course>270.0</course>
  <speed>0.0</speed>
  <fix>3d</fix>
</trkpt>
<trkpt lat="-27.2744391" lon="151.2900641">
  <ele>343.06</ele>
  <time>2026-09-01T19:53:00Z</time>
  <course>10.74</course>
  <speed>0.01414213562373095</speed>
  <fix>3d</fix>
</trkpt>
<trkpt lat="-27.274439" lon="151.290064">
  <ele>343.1</ele>
  <time>2026-09-01T19:53:00Z</time>
  <course>270.0</course>
  <speed>0.0</speed>
  <fix>3d</fix>
</trkpt>
<trkpt lat="-27.2744391" lon="151.2900641">
  <ele>343.06</ele>
  <time>2026-09-01T19:53:00Z</time>
  <course>10.74</course>
  <speed>0.01414213562373095</speed>
  <fix>3d</fix>
</trkpt>
<trkpt lat="-27.274439" lon="151.290064">
  <ele>343.1</ele>
  <time>2026-09-01T19:53:00Z</time>
  <course>270.0</course>
  <speed>0.0</speed>
  <fix>3d</fix>
</trkpt>
<trkpt lat="-27.2744391" lon="151.2900641">
  <ele>343.06</ele>
  <time>2026-09-01T19:53:00Z</time>
  <course>10.74</course>
  <speed>0.01414213562373095</speed>
  <fix>3d</fix>
</trkpt>
<trkpt lat="-27.274439" lon="151.290064">
  <ele>343.1</ele>
  <time>2026-09-01T19:53:00Z</time>
  <course>270.0</course>
  <speed>0.0</speed>
  <fix>3d</fix>
</trkpt>
<trkpt lat="-27.2744391" lon="151.2900641">
  <ele>343.06</ele>
  <time>2026-09-01T19:53:00Z</time>
  <course>10.74</course>
  <speed>0.01414213562373095</speed>
  <fix>3d</fix>
</trkpt>
<trkpt lat="-27.274439" lon="151.290064">
  <ele>343.1</ele>
  <time>2026-09-01T19:53:00Z</time>
  <course>270.0</course>
  <speed>0.0</speed>
  <fix>3d</fix>
</trkpt>
<trkpt lat="-27.2744391" lon="151.2900641">
  <ele>343.06</ele>
  <time>2026-09-01T19:53:00Z</time>
  <course>10.74</course>
  <speed>0.01414213562373095</speed>
  <fix>3d</fix>
</trkpt>
<trkpt lat="-27.274439" lon="151.290064">
  <ele>343.1</ele>
  <time>2026-09-01T19:53:00Z</time>
  <course>270.0</course>
  <speed>0.0</speed>
  <fix>3d</fix>
</trkpt>
<trkpt lat="-27.2744391" lon="151.2900641">
  <ele>343.06</ele>
  <time>2026-09-01T19:53:00Z</time>
  <course>10.74</course>
  <speed>0.022360679774997897</speed>
  <fix>3d</fix>
</trkpt>
<trkpt lat="-27.274439" lon="151.290064">
  <ele>343.1</ele>
  <time>2026-09-01T19:53:00Z</time>
  <course>270.0</course>
  <speed>0.0</speed>
  <fix>3d</fix>
</trkpt>
<trkpt lat="-27.2744391" lon="151.2900641">
  <ele>343.06</ele>
  <time>2026-09-01T19:53:00Z</time>
  <course>10.74</course>
  <speed>0.022360679774997897</speed>
  <fix>3d</fix>
</trkpt>
<trkpt lat="-27.274439" lon="151.290064">
  <ele>343.1</ele>
  <time>2026-09-01T19:53:00Z</time>
  <course>270.0</course>
  <speed>0.0</speed>
  <fix>3d</fix>
</trkpt>
<trkpt lat="-27.2744391" lon="151.2900641">
  <ele>343.06</ele>
  <time>2026-09-01T19:53:00Z</time>
  <course>10.74</course>
  <speed>0.022360679774997897</speed>
  <fix>3d</fix>
</trkpt>
<trkpt lat="-27.274439" lon="151.290064">
  <ele>343.1</ele>
  <time>2026-09-01T19:53:00Z</time>
  <course>270.0</course>
  <speed>0.0</speed>
  <fix>3d</fix>
</trkpt>
<trkpt lat="-27.2744391" lon="151.2900641">
  <ele>343.06</ele>
  <time>2026-09-01T19:53:00Z</time>
  <course>10.74</course>
  <speed>0.022360679774997897</speed>
  <fix>3d</fix>
</trkpt>
<trkpt lat="-27.274439" lon="151.290064">
  <ele>343.1</ele>
  <time>2026-09-01T19:53:00Z</time>
  <course>270.0</course>
  <speed>0.0</speed>
  <fix>3d</fix>
</trkpt>
<trkpt lat="-27.2744391" lon="151.2900641">
  <ele>343.06</ele>
  <time>2026-09-01T19:53:00Z</time>
  <course>10.74</course>
  <speed>0.022360679774997897</speed>
  <fix>3d</fix>
</trkpt>
<trkpt lat="-27.274439" lon="151.290064">
  <ele>343.1</ele>
  <time>2026-09-01T19:53:00Z</time>
  <course>270.0</course>
  <speed>0.0</speed>
  <fix>3d</fix>
</trkpt>
<trkpt lat="-27.2744391" lon="151.2900641">
  <ele>343.06</ele>
  <time>2026-09-01T19:53:00Z</time>
  <course>10.74</course>
  <speed>0.022360679774997897</speed>
  <fix>3d</fix>
</trkpt>
<trkpt lat="-27.274439" lon="151.290064">
  <ele>343.1</ele>
  <time>2026-09-01T19:53:00Z</time>
  <course>270.0</course>
  <speed>0.0</speed>
  <fix>3d</fix>
</trkpt>
<trkpt lat="-27.2744391" lon="151.2900641">
  <ele>343.06</ele>
  <time>2026-09-01T19:53:00Z</time>
  <course>10.74</course>
  <speed>0.022360679774997897</speed>
  <fix>3d</fix>
</trkpt>
<trkpt lat="-27.274439" lon="151.290064">
  <ele>343.1</ele>
  <time>2026-09-01T19:53:00Z</time>
  <course>270.0</course>
  <speed>0.0</speed>
  <fix>3d</fix>
</trkpt>
<trkpt lat="-27.2744391" lon="151.2900641">
  <ele>343.06</ele>
  <time>2026-09-01T19:53:00Z</time>
  <course>10.74</course>
  <speed>0.022360679774997897</speed>
  <fix>3d</fix>
</trkpt>
<trkpt lat="-27.274439" lon="151.290064">
  <ele>343.1</ele>
  <time>2026-09-01T19:53:00Z</time>
  <course>270.0</course>
  <speed>0.0</speed>
  <fix>3d</fix>
</trkpt>
<trkpt lat="-27.2744391" lon="151.2900641">
  <ele>343.06</ele>
  <time>2026-09-01T19:53:00Z</time>
  <course>10.74</course>
  <speed>0.022360679774997897</speed>
  <fix>3d</fix>
</trkpt>
<trkpt lat="-27.274439" lon="151.290064">
  <ele>343.1</ele>
  <time>2026-09-01T19:53:00Z</time>
  <course>270.0</course>
  <speed>0.0</speed>
  <fix>3d</fix>
</trkpt>
<trkpt lat="-27.2744391" lon="151.2900641">
  <ele>343.05</ele>
  <time>2026-09-01T19:53:00Z</time>
  <course>10.75</course>
  <speed>0.022360679774997897</speed>
  <fix>3d</fix>
</trkpt>
<trkpt lat="-27.274439" lon="151.290064">
  <ele>343.1</ele>
  <time>2026-09-01T19:53:00Z</time>
  <course>270.0</course>
  <speed>0.0</speed>
  <fix>3d</fix>
</trkpt>
<trkpt lat="-27.2744391" lon="151.2900641">
  <ele>343.05</ele>
  <time>2026-09-01T19:53:00Z</time>
  <course>10.75</course>
  <speed>0.022360679774997897</speed>
  <fix>3d</fix>
</trkpt>
<trkpt lat="-27.274439" lon="151.290064">
  <ele>343.1</ele>
  <time>2026-09-01T19:53:00Z</time>
  <course>270.0</course>
  <speed>0.0</speed>
  <fix>3d</fix>
</trkpt>
<trkpt lat="-27.2744391" lon="151.2900641">
  <ele>343.05</ele>
  <time>2026-09-01T19:53:00Z</time>
  <course>10.75</course>
  <speed>0.022360679774997897</speed>
  <fix>3d</fix>
</trkpt>
<trkpt lat="-27.274439" lon="151.290064">
  <ele>343.1</ele>
  <time>2026-09-01T19:53:00Z</time>
  <course>270.0</course>
  <speed>0.0</speed>
  <fix>3d</fix>
</trkpt>
<trkpt lat="-27.2744391" lon="151.2900641">
  <ele>343.05</ele>
  <time>2026-09-01T19:53:00Z</time>
  <course>10.75</course>
  <speed>0.022360679774997897</speed>
  <fix>3d</fix>
</trkpt>
<trkpt lat="-27.274439" lon="151.290064">
  <ele>343.1</ele>
  <time>2026-09-01T19:53:00Z</time>
  <course>270.0</course>
  <speed>0.0</speed>
  <fix>3d</fix>
</trkpt>
<trkpt lat="-27.2744391" lon="151.2900641">
  <ele>343.04</ele>
  <time>2026-09-01T19:53:00Z</time>
  <course>10.75</course>
  <speed>0.022360679774997897</speed>
  <fix>3d</fix>
</trkpt>
<trkpt lat="-27.274439" lon="151.290064">
  <ele>343.1</ele>
  <time>2026-09-01T19:53:00Z</time>
  <course>270.0</course>
  <speed>0.0</speed>
  <fix>3d</fix>
</trkpt>
<trkpt lat="-27.2744391" lon="151.2900641">
  <ele>343.04</ele>
  <time>2026-09-01T19:53:00Z</time>
  <course>10.75</course>
  <speed>0.022360679774997897</speed>
  <fix>3d</fix>
</trkpt>
<trkpt lat="-27.274439" lon="151.290064">
  <ele>343.1</ele>
  <time>2026-09-01T19:53:00Z</time>
  <course>270.0</course>
  <speed>0.0</speed>
  <fix>3d</fix>
</trkpt>
<trkpt lat="-27.2744391" lon="151.2900641">
  <ele>343.04</ele>
  <time>2026-09-01T19:53:00Z</time>
  <course>10.75</course>
  <speed>0.022360679774997897</speed>
  <fix>3d</fix>
</trkpt>
<trkpt lat="-27.274439" lon="151.290064">
  <ele>343.1</ele>
  <time>2026-09-01T19:53:00Z</time>
  <course>270.0</course>
  <speed>0.0</speed>
  <fix>3d</fix>
</trkpt>
<trkpt lat="-27.2744391" lon="151.2900641">
  <ele>343.04</ele>
  <time>2026-09-01T19:53:00Z</time>
  <course>10.75</course>
  <speed>0.022360679774997897</speed>
  <fix>3d</fix>
</trkpt>
<trkpt lat="-27.274439" lon="151.290064">
  <ele>343.1</ele>
  <time>2026-09-01T19:53:00Z</time>
  <course>270.0</course>
  <speed>0.0</speed>
  <fix>3d</fix>
</trkpt>
<trkpt lat="-27.2744391" lon="151.2900641">
  <ele>343.03</ele>
  <time>2026-09-01T19:53:00Z</time>
  <course>10.75</course>
  <speed>0.022360679774997897</speed>
  <fix>3d</fix>
</trkpt>
<trkpt lat="-27.274439" lon="151.290064">
  <ele>343.1</ele>
  <time>2026-09-01T19:53:00Z</time>
  <course>270.0</course>
  <speed>0.0</speed>
  <fix>3d</fix>
</trkpt>
<trkpt lat="-27.2744391" lon="151.2900641">
  <ele>343.03</ele>
  <time>2026-09-01T19:53:00Z</time>
  <course>10.75</course>
  <speed>0.022360679774997897</speed>
  <fix>3d</fix>
</trkpt>
<trkpt lat="-27.274439" lon="151.290064">
  <ele>343.1</ele>
  <time>2026-09-01T19:53:00Z</time>
  <course>270.0</course>
  <speed>0.0</speed>
  <fix>3d</fix>
</trkpt>
<trkpt lat="-27.2744391" lon="151.2900641">
  <ele>343.03</ele>
  <time>2026-09-01T19:53:00Z</time>
  <course>10.75</course>
  <speed>0.022360679774997897</speed>
  <fix>3d</fix>
</trkpt>
<trkpt lat="-27.274439" lon="151.290064">
  <ele>343.1</ele>
  <time>2026-09-01T19:53:00Z</time>
  <course>270.0</course>
  <speed>0.0</speed>
  <fix>3d</fix>
</trkpt>
<trkpt lat="-27.2744391" lon="151.2900641">
  <ele>343.03</ele>
  <time>2026-09-01T19:53:00Z</time>
  <course>10.75</course>
  <speed>0.022360679774997897</speed>
  <fix>3d</fix>
</trkpt>
<trkpt lat="-27.274439" lon="151.290064">
  <ele>343.1</ele>
  <time>2026-09-01T19:53:00Z</time>
  <course>270.0</course>
  <speed>0.0</speed>
  <fix>3d</fix>
</trkpt>
<trkpt lat="-27.2744391" lon="151.2900641">
  <ele>343.03</ele>
  <time>2026-09-01T19:53:00Z</time>
  <course>10.75</course>
  <speed>0.022360679774997897</speed>
  <fix>3d</fix>
</trkpt>
<trkpt lat="-27.274439" lon="151.290064">
  <ele>343.1</ele>
  <time>2026-09-01T19:53:00Z</time>
  <course>270.0</course>
  <speed>0.0</speed>
  <fix>3d</fix>
</trkpt>
<trkpt lat="-27.2744391" lon="151.2900641">
  <ele>343.02</ele>
  <time>2026-09-01T19:53:00Z</time>
  <course>10.75</course>
  <speed>0.022360679774997897</speed>
  <fix>3d</fix>
</trkpt>
<trkpt lat="-27.274439" lon="151.290064">
  <ele>343.1</ele>
  <time>2026-09-01T19:53:00Z</time>
  <course>270.0</course>
  <speed>0.0</speed>
  <fix>3d</fix>
</trkpt>
<trkpt lat="-27.2744391" lon="151.2900641">
  <ele>343.02</ele>
  <time>2026-09-01T19:53:00Z</time>
  <course>10.75</course>
  <speed>0.022360679774997897</speed>
  <fix>3d</fix>
</trkpt>
<trkpt lat="-27.274439" lon="151.290064">
  <ele>343.1</ele>
  <time>2026-09-01T19:53:00Z</time>
  <course>270.0</course>
  <speed>0.0</speed>
  <fix>3d</fix>
</trkpt>
<trkpt lat="-27.2744391" lon="151.2900641">
  <ele>343.02</ele>
  <time>2026-09-01T19:53:00Z</time>
  <course>10.75</course>
  <speed>0.022360679774997897</speed>
  <fix>3d</fix>
</trkpt>
<trkpt lat="-27.274439" lon="151.290064">
  <ele>343.1</ele>
  <time>2026-09-01T19:53:00Z</time>
  <course>270.0</course>
  <speed>0.0</speed>
  <fix>3d</fix>
</trkpt>
<trkpt lat="-27.2744391" lon="151.2900641">
  <ele>343.02</ele>
  <time>2026-09-01T19:53:00Z</time>
  <course>10.75</course>
  <speed>0.022360679774997897</speed>
  <fix>3d</fix>
</trkpt>
<trkpt lat="-27.274439" lon="151.290064">
  <ele>343.1</ele>
  <time>2026-09-01T19:53:00Z</time>
  <course>270.0</course>
  <speed>0.0</speed>
  <fix>3d</fix>
</trkpt>
<trkpt lat="-27.2744391" lon="151.2900641">
  <ele>343.02</ele>
  <time>2026-09-01T19:53:00Z</time>
  <course>10.75</course>
  <speed>0.022360679774997897</speed>
  <fix>3d</fix>
</trkpt>
<trkpt lat="-27.274439" lon="151.290064">
  <ele>343.1</ele>
  <time>2026-09-01T19:53:00Z</time>
  <course>270.0</course>
  <speed>0.0</speed>
  <fix>3d</fix>
</trkpt>
<trkpt lat="-27.2744391" lon="151.2900641">
  <ele>343.02</ele>
  <time>2026-09-01T19:53:00Z</time>
  <course>10.75</course>
  <speed>0.022360679774997897</speed>
  <fix>3d</fix>
</trkpt>
<trkpt lat="-27.274439" lon="151.290064">
  <ele>343.1</ele>
  <time>2026-09-01T19:53:00Z</time>
  <course>270.0</course>
  <speed>0.0</speed>
  <fix>3d</fix>
</trkpt>
<trkpt lat="-27.2744391" lon="151.2900641">
  <ele>343.02</ele>
  <time>2026-09-01T19:53:00Z</time>
  <course>10.75</course>
  <speed>0.022360679774997897</speed>
  <fix>3d</fix>
</trkpt>
<trkpt lat="-27.274439" lon="151.290064">
  <ele>343.1</ele>
  <time>2026-09-01T19:53:00Z</time>
  <course>270.0</course>
  <speed>0.0</speed>
  <fix>3d</fix>
</trkpt>
<trkpt lat="-27.2744391" lon="151.2900641">
  <ele>343.02</ele>
  <time>2026-09-01T19:53:00Z</time>
  <course>10.75</course>
  <speed>0.022360679774997897</speed>
  <fix>3d</fix>
</trkpt>
<trkpt lat="-27.274439" lon="151.290064">
  <ele>343.1</ele>
  <time>2026-09-01T19:53:00Z</time>
  <course>270.0</course>
  <speed>0.0</speed>
  <fix>3d</fix>
</trkpt>
<trkpt lat="-27.2744391" lon="151.2900641">
  <ele>343.02</ele>
  <time>2026-09-01T19:53:00Z</time>
  <course>10.75</course>
  <speed>0.022360679774997897</speed>
  <fix>3d</fix>
</trkpt>
<trkpt lat="-27.274439" lon="151.290064">
  <ele>343.1</ele>
  <time>2026-09-01T19:53:00Z</time>
  <course>270.0</course>
  <speed>0.0</speed>
  <fix>3d</fix>
</trkpt>
<trkpt lat="-27.2744391" lon="151.2900641">
  <ele>343.01</ele>
  <time>2026-09-01T19:53:00Z</time>
  <course>10.75</course>
  <speed>0.022360679774997897</speed>
  <fix>3d</fix>
</trkpt>
<trkpt lat="-27.274439" lon="151.290064">
  <ele>343.1</ele>
  <time>2026-09-01T19:53:00Z</time>
  <course>270.0</course>
  <speed>0.0</speed>
  <fix>3d</fix>
</trkpt>
<trkpt lat="-27.2744391" lon="151.2900641">
  <ele>343.01</ele>
  <time>2026-09-01T19:53:00Z</time>
  <course>10.76</course>
  <speed>0.022360679774997897</speed>
  <fix>3d</fix>
</trkpt>
<trkpt lat="-27.274439" lon="151.290064">
  <ele>343.1</ele>
  <time>2026-09-01T19:53:00Z</time>
  <course>270.0</course>
  <speed>0.0</speed>
  <fix>3d</fix>
</trkpt>
<trkpt lat="-27.2744391" lon="151.2900641">
  <ele>343.01</ele>
  <time>2026-09-01T19:53:00Z</time>
  <course>10.76</course>
  <speed>0.022360679774997897</speed>
  <fix>3d</fix>
</trkpt>
<trkpt lat="-27.274439" lon="151.290064">
  <ele>343.1</ele>
  <time>2026-09-01T19:53:00Z</time>
  <course>270.0</course>
  <speed>0.0</speed>
  <fix>3d</fix>
</trkpt>
<trkpt lat="-27.2744391" lon="151.2900641">
  <ele>343.01</ele>
  <time>2026-09-01T19:53:00Z</time>
  <course>10.76</course>
  <speed>0.022360679774997897</speed>
  <fix>3d</fix>
</trkpt>
<trkpt lat="-27.274439" lon="151.290064">
  <ele>343.1</ele>
  <time>2026-09-01T19:53:00Z</time>
  <course>270.0</course>
  <speed>0.0</speed>
  <fix>3d</fix>
</trkpt>
<trkpt lat="-27.2744391" lon="151.2900641">
  <ele>343.01</ele>
  <time>2026-09-01T19:53:00Z</time>
  <course>10.76</course>
  <speed>0.022360679774997897</speed>
  <fix>3d</fix>
</trkpt>
<trkpt lat="-27.274439" lon="151.290064">
  <ele>343.1</ele>
  <time>2026-09-01T19:53:00Z</time>
  <course>270.0</course>
  <speed>0.0</speed>
  <fix>3d</fix>
</trkpt>
<trkpt lat="-27.2744391" lon="151.2900641">
  <ele>343.01</ele>
  <time>2026-09-01T19:53:00Z</time>
  <course>10.76</course>
  <speed>0.022360679774997897</speed>
  <fix>3d</fix>
</trkpt>
<trkpt lat="-27.274439" lon="151.290064">
  <ele>343.1</ele>
  <time>2026-09-01T19:53:00Z</time>
  <course>270.0</course>
  <speed>0.0</speed>
  <fix>3d</fix>
</trkpt>
<trkpt lat="-27.2744391" lon="151.2900641">
  <ele>343.01</ele>
  <time>2026-09-01T19:53:00Z</time>
  <course>10.76</course>
  <speed>0.022360679774997897</speed>
  <fix>3d</fix>
</trkpt>
<trkpt lat="-27.274439" lon="151.290064">
  <ele>343.1</ele>
  <time>2026-09-01T19:53:00Z</time>
  <course>270.0</course>
  <speed>0.0</speed>
  <fix>3d</fix>
</trkpt>
<trkpt lat="-27.2744391" lon="151.2900641">
  <ele>343.01</ele>
  <time>2026-09-01T19:53:00Z</time>
  <course>10.76</course>
  <speed>0.022360679774997897</speed>
  <fix>3d</fix>
</trkpt>
<trkpt lat="-27.274439" lon="151.290064">
  <ele>343.1</ele>
  <time>2026-09-01T19:53:00Z</time>
  <course>270.0</course>
  <speed>0.0</speed>
  <fix>3d</fix>
</trkpt>
<trkpt lat="-27.2744391" lon="151.2900641">
  <ele>343.0</ele>
  <time>2026-09-01T19:53:00Z</time>
  <course>10.76</course>
  <speed>0.022360679774997897</speed>
  <fix>3d</fix>
</trkpt>
<trkpt lat="-27.274439" lon="151.290064">
  <ele>343.1</ele>
  <time>2026-09-01T19:53:00Z</time>
  <course>270.0</course>
  <speed>0.0</speed>
  <fix>3d</fix>
</trkpt>
<trkpt lat="-27.2744391" lon="151.2900641">
  <ele>343.0</ele>
  <time>2026-09-01T19:53:00Z</time>
  <course>10.76</course>
  <speed>0.022360679774997897</speed>
  <fix>3d</fix>
</trkpt>
<trkpt lat="-27.274439" lon="151.290064">
  <ele>343.1</ele>
  <time>2026-09-01T19:53:00Z</time>
  <course>270.0</course>
  <speed>0.0</speed>
  <fix>3d</fix>
</trkpt>
<trkpt lat="-27.2744391" lon="151.2900641">
  <ele>343.0</ele>
  <time>2026-09-01T19:53:00Z</time>
  <course>10.76</course>
  <speed>0.022360679774997897</speed>
  <fix>3d</fix>
</trkpt>
<trkpt lat="-27.274439" lon="151.290064">
  <ele>343.1</ele>
  <time>2026-09-01T19:53:00Z</time>
  <course>270.0</course>
  <speed>0.0</speed>
  <fix>3d</fix>
</trkpt>
<trkpt lat="-27.2744391" lon="151.2900641">
  <ele>343.09</ele>
  <time>2026-09-01T19:53:00Z</time>
  <course>10.76</course>
  <speed>0.022360679774997897</speed>
  <fix>3d</fix>
</trkpt>
<trkpt lat="-27.274439" lon="151.290064">
  <ele>343.1</ele>
  <time>2026-09-01T19:53:00Z</time>
  <course>270.0</course>
  <speed>0.0</speed>
  <fix>3d</fix>
</trkpt>
<trkpt lat="-27.2744391" lon="151.2900641">
  <ele>343.09</ele>
  <time>2026-09-01T19:53:00Z</time>
  <course>10.76</course>
  <speed>0.022360679774997897</speed>
  <fix>3d</fix>
</trkpt>
<trkpt lat="-27.274439" lon="151.290064">
  <ele>343.1</ele>
  <time>2026-09-01T19:53:00Z</time>
  <course>270.0</course>
  <speed>0.0</speed>
  <fix>3d</fix>
</trkpt>
<trkpt lat="-27.2744391" lon="151.2900641">
  <ele>343.09</ele>
  <time>2026-09-01T19:53:00Z</time>
  <course>10.76</course>
  <speed>0.022360679774997897</speed>
  <fix>3d</fix>
</trkpt>
<trkpt lat="-27.274439" lon="151.290064">
  <ele>343.1</ele>
  <time>2026-09-01T19:53:00Z</time>
  <course>270.0</course>
  <speed>0.0</speed>
  <fix>3d</fix>
</trkpt>
<trkpt lat="-27.2744391" lon="151.2900641">
  <ele>343.09</ele>
  <time>2026-09-01T19:53:00Z</time>
  <course>10.76</course>
  <speed>0.022360679774997897</speed>
  <fix>3d</fix>
</trkpt>
<trkpt lat="-27.274439" lon="151.290064">
  <ele>343.1</ele>
  <time>2026-09-01T19:53:00Z</time>
  <course>270.0</course>
  <speed>0.0</speed>
  <fix>3d</fix>
</trkpt>
<trkpt lat="-27.2744391" lon="151.2900641">
  <ele>343.1</ele>
  <time>2026-09-01T19:53:00Z</time>
  <course>10.76</course>
  <speed>0.022360679774997897</speed>
  <fix>3d</fix>
</trkpt>
<trkpt lat="-27.274439" lon="151.290064">
  <ele>343.1</ele>
  <time>2026-09-01T19:53:00Z</time>
  <course>270.0</course>
  <speed>0.0</speed>
  <fix>3d</fix>
</trkpt>
<trkpt lat="-27.2744391" lon="151.2900641">
  <ele>343.1</ele>
  <time>2026-09-01T19:53:00Z</time>
  <course>10.76</course>
  <speed>0.022360679774997897</speed>
  <fix>3d</fix>
</trkpt>
<trkpt lat="-27.274439" lon="151.290064">
  <ele>343.1</ele>
  <time>2026-09-01T19:53:00Z</time>
  <course>270.0</course>
  <speed>0.0</speed>
  <fix>3d</fix>
</trkpt>
<trkpt lat="-27.2744391" lon="151.2900641">
  <ele>343.1</ele>
  <time>2026-09-01T19:53:00Z</time>
  <course>10.76</course>
  <speed>0.022360679774997897</speed>
  <fix>3d</fix>
</trkpt>
<trkpt lat="-27.274439" lon="151.290064">
  <ele>343.1</ele>
  <time>2026-09-01T19:53:00Z</time>
  <course>270.0</course>
  <speed>0.0</speed>
  <fix>3d</fix>
</trkpt>
<trkpt lat="-27.2744391" lon="151.2900641">
  <ele>343.11</ele>
  <time>2026-09-01T19:53:00Z</time>
  <course>10.76</course>
  <speed>0.022360679774997897</speed>
  <fix>3d</fix>
</trkpt>
<trkpt lat="-27.274439" lon="151.290064">
  <ele>343.1</ele>
  <time>2026-09-01T19:53:00Z</time>
  <course>270.0</course>
  <speed>0.0</speed>
  <fix>3d</fix>
</trkpt>
<trkpt lat="-27.2744391" lon="151.2900641">
  <ele>343.11</ele>
  <time>2026-09-01T19:53:00Z</time>
  <course>10.76</course>
  <speed>0.022360679774997897</speed>
  <fix>3d</fix>
</trkpt>
<trkpt lat="-27.274439" lon="151.290064">
  <ele>343.1</ele>
  <time>2026-09-01T19:53:00Z</time>
  <course>270.0</course>
  <speed>0.0</speed>
  <fix>3d</fix>
</trkpt>
<trkpt lat="-27.2744391" lon="151.2900641">
  <ele>343.12</ele>
  <time>2026-09-01T19:53:00Z</time>
  <course>10.76</course>
  <speed>0.022360679774997897</speed>
  <fix>3d</fix>
</trkpt>
<trkpt lat="-27.274439" lon="151.290064">
  <ele>343.1</ele>
  <time>2026-09-01T19:53:00Z</time>
  <course>270.0</course>
  <speed>0.0</speed>
  <fix>3d</fix>
</trkpt>
<trkpt lat="-27.2744391" lon="151.2900641">
  <ele>343.12</ele>
  <time>2026-09-01T19:53:00Z</time>
  <course>10.76</course>
  <speed>0.022360679774997897</speed>
  <fix>3d</fix>
</trkpt>
<trkpt lat="-27.274439" lon="151.290064">
  <ele>343.1</ele>
  <time>2026-09-01T19:53:00Z</time>
  <course>270.0</course>
  <speed>0.0</speed>
  <fix>3d</fix>
</trkpt>
<trkpt lat="-27.2744391" lon="151.2900641">
  <ele>343.12</ele>
  <time>2026-09-01T19:53:00Z</time>
  <course>10.76</course>
  <speed>0.022360679774997897</speed>
  <fix>3d</fix>
</trkpt>
<trkpt lat="-27.274439" lon="151.290064">
  <ele>343.1</ele>
  <time>2026-09-01T19:53:00Z</time>
  <course>270.0</course>
  <speed>0.0</speed>
  <fix>3d</fix>
</trkpt>
<trkpt lat="-27.2744391" lon="151.2900641">
  <ele>343.13</ele>
  <time>2026-09-01T19:53:00Z</time>
  <course>10.77</course>
  <speed>0.022360679774997897</speed>
  <fix>3d</fix>
</trkpt>
<trkpt lat="-27.274439" lon="151.290064">
  <ele>343.1</ele>
  <time>2026-09-01T19:53:00Z</time>
  <course>270.0</course>
  <speed>0.0</speed>
  <fix>3d</fix>
</trkpt>
<trkpt lat="-27.2744391" lon="151.2900641">
  <ele>343.13</ele>
  <time>2026-09-01T19:53:00Z</time>
  <course>10.77</course>
  <speed>0.022360679774997897</speed>
  <fix>3d</fix>
</trkpt>
<trkpt lat="-27.274439" lon="151.290064">
  <ele>343.1</ele>
  <time>2026-09-01T19:53:00Z</time>
  <course>270.0</course>
  <speed>0.0</speed>
  <fix>3d</fix>
</trkpt>
<trkpt lat="-27.2744391" lon="151.2900641">
  <ele>343.13</ele>
  <time>2026-09-01T19:53:00Z</time>
  <course>10.77</course>
  <speed>0.022360679774997897</speed>
  <fix>3d</fix>
</trkpt>
<trkpt lat="-27.274439" lon="151.290064">
  <ele>343.1</ele>
  <time>2026-09-01T19:53:00Z</time>
  <course>270.0</course>
  <speed>0.0</speed>
  <fix>3d</fix>
</trkpt>
<trkpt lat="-27.2744391" lon="151.2900641">
  <ele>343.14</ele>
  <time>2026-09-01T19:53:00Z</time>
  <course>10.77</course>
  <speed>0.022360679774997897</speed>
  <fix>3d</fix>
</trkpt>
<trkpt lat="-27.274439" lon="151.290064">
  <ele>343.1</ele>
  <time>2026-09-01T19:53:00Z</time>
  <course>270.0</course>
  <speed>0.0</speed>
  <fix>3d</fix>
</trkpt>
<trkpt lat="-27.2744391" lon="151.2900641">
  <ele>343.14</ele>
  <time>2026-09-01T19:53:00Z</time>
  <course>10.77</course>
  <speed>0.022360679774997897</speed>
  <fix>3d</fix>
</trkpt>
<trkpt lat="-27.274439" lon="151.290064">
  <ele>343.1</ele>
  <time>2026-09-01T19:53:00Z</time>
  <course>270.0</course>
  <speed>0.0</speed>
  <fix>3d</fix>
</trkpt>
<trkpt lat="-27.2744391" lon="151.2900641">
  <ele>343.14</ele>
  <time>2026-09-01T19:53:00Z</time>
  <course>10.77</course>
  <speed>0.022360679774997897</speed>
  <fix>3d</fix>
</trkpt>
<trkpt lat="-27.274439" lon="151.290064">
  <ele>343.1</ele>
  <time>2026-09-01T19:53:00Z</time>
  <course>270.0</course>
  <speed>0.0</speed>
  <fix>3d</fix>
</trkpt>
<trkpt lat="-27.2744391" lon="151.2900641">
  <ele>343.15</ele>
  <time>2026-09-01T19:53:00Z</time>
  <course>10.77</course>
  <speed>0.022360679774997897</speed>
  <fix>3d</fix>
</trkpt>
<trkpt lat="-27.274439" lon="151.290064">
  <ele>343.1</ele>
  <time>2026-09-01T19:53:00Z</time>
  <course>270.0</course>
  <speed>0.0</speed>
  <fix>3d</fix>
</trkpt>
<trkpt lat="-27.2744391" lon="151.2900641">
  <ele>343.15</ele>
  <time>2026-09-01T19:53:00Z</time>
  <course>10.77</course>
  <speed>0.022360679774997897</speed>
  <fix>3d</fix>
</trkpt>
<trkpt lat="-27.274439" lon="151.290064">
  <ele>343.1</ele>
  <time>2026-09-01T19:53:00Z</time>
  <course>270.0</course>
  <speed>0.0</speed>
  <fix>3d</fix>
</trkpt>
<trkpt lat="-27.2744391" lon="151.2900641">
  <ele>343.16</ele>
  <time>2026-09-01T19:53:00Z</time>
  <course>10.77</course>
  <speed>0.022360679774997897</speed>
  <fix>3d</fix>
</trkpt>
<trkpt lat="-27.274439" lon="151.290064">
  <ele>343.1</ele>
  <time>2026-09-01T19:53:00Z</time>
  <course>270.0</course>
  <speed>0.0</speed>
  <fix>3d</fix>
</trkpt>
<trkpt lat="-27.2744391" lon="151.2900641">
  <ele>343.16</ele>
  <time>2026-09-01T19:53:00Z</time>
  <course>10.77</course>
  <speed>0.022360679774997897</speed>
  <fix>3d</fix>
</trkpt>
<trkpt lat="-27.274439" lon="151.290064">
  <ele>343.1</ele>
  <time>2026-09-01T19:53:00Z</time>
  <course>270.0</course>
  <speed>0.0</speed>
  <fix>3d</fix>
</trkpt>
<trkpt lat="-27.2744391" lon="151.2900641">
  <ele>343.17</ele>
  <time>2026-09-01T19:53:00Z</time>
  <course>10.77</course>
  <speed>0.022360679774997897</speed>
  <fix>3d</fix>
</trkpt>
<trkpt lat="-27.274439" lon="151.290064">
  <ele>343.1</ele>
  <time>2026-09-01T19:53:00Z</time>
  <course>270.0</course>
  <speed>0.0</speed>
  <fix>3d</fix>
</trkpt>
<trkpt lat="-27.2744391" lon="151.2900641">
  <ele>343.17</ele>
  <time>2026-09-01T19:53:00Z</time>
  <course>10.77</course>
  <speed>0.022360679774997897</speed>
  <fix>3d</fix>
</trkpt>
<trkpt lat="-27.274439" lon="151.290064">
  <ele>343.1</ele>
  <time>2026-09-01T19:53:00Z</time>
  <course>270.0</course>
  <speed>0.0</speed>
  <fix>3d</fix>
</trkpt>
<trkpt lat="-27.2744391" lon="151.2900641">
  <ele>343.18</ele>
  <time>2026-09-01T19:53:00Z</time>
  <course>10.77</course>
  <speed>0.022360679774997897</speed>
  <fix>3d</fix>
</trkpt>
<trkpt lat="-27.274439" lon="151.290064">
  <ele>343.1</ele>
  <time>2026-09-01T19:53:00Z</time>
  <course>270.0</course>
  <speed>0.0</speed>
  <fix>3d</fix>
</trkpt>
<trkpt lat="-27.2744391" lon="151.2900641">
  <ele>343.18</ele>
  <time>2026-09-01T19:53:00Z</time>
  <course>10.77</course>
  <speed>0.022360679774997897</speed>
  <fix>3d</fix>
</trkpt>
<trkpt lat="-27.274439" lon="151.290064">
  <ele>343.1</ele>
  <time>2026-09-01T19:53:00Z</time>
  <course>270.0</course>
  <speed>0.0</speed>
  <fix>3d</fix>
</trkpt>
<trkpt lat="-27.2744391" lon="151.2900641">
  <ele>343.18</ele>
  <time>2026-09-01T19:53:00Z</time>
  <course>10.77</course>
  <speed>0.022360679774997897</speed>
  <fix>3d</fix>
</trkpt>
<trkpt lat="-27.274439" lon="151.290064">
  <ele>343.1</ele>
  <time>2026-09-01T19:53:00Z</time>
  <course>270.0</course>
  <speed>0.0</speed>
  <fix>3d</fix>
</trkpt>
<trkpt lat="-27.2744391" lon="151.2900641">
  <ele>343.19</ele>
  <time>2026-09-01T19:53:00Z</time>
  <course>10.77</course>
  <speed>0.022360679774997897</speed>
  <fix>3d</fix>
</trkpt>
<trkpt lat="-27.274439" lon="151.290064">
  <ele>343.1</ele>
  <time>2026-09-01T19:53:00Z</time>
  <course>270.0</course>
  <speed>0.0</speed>
  <fix>3d</fix>
</trkpt>
<trkpt lat="-27.2744391" lon="151.2900641">
  <ele>343.19</ele>
  <time>2026-09-01T19:53:00Z</time>
  <course>10.77</course>
  <speed>0.022360679774997897</speed>
  <fix>3d</fix>
</trkpt>
<trkpt lat="-27.274439" lon="151.290064">
  <ele>343.1</ele>
  <time>2026-09-01T19:53:00Z</time>
  <course>270.0</course>
  <speed>0.0</speed>
  <fix>3d</fix>
</trkpt>
<trkpt lat="-27.2744391" lon="151.2900641">
  <ele>343.19</ele>
  <time>2026-09-01T19:53:00Z</time>
  <course>10.77</course>
  <speed>0.022360679774997897</speed>
  <fix>3d</fix>
</trkpt>
<trkpt lat="-27.274439" lon="151.290064">
  <ele>343.1</ele>
  <time>2026-09-01T19:53:00Z</time>
  <course>270.0</course>
  <speed>0.0</speed>
  <fix>3d</fix>
</trkpt>
<trkpt lat="-27.2744391" lon="151.2900641">
  <ele>343.19</ele>
  <time>2026-09-01T19:53:00Z</time>
  <course>10.77</course>
  <speed>0.022360679774997897</speed>
  <fix>3d</fix>
</trkpt>
<trkpt lat="-27.274439" lon="151.290064">
  <ele>343.1</ele>
  <time>2026-09-01T19:53:00Z</time>
  <course>270.0</course>
  <speed>0.0</speed>
  <fix>3d</fix>
</trkpt>
<trkpt lat="-27.2744391" lon="151.2900641">
  <ele>343.19</ele>
  <time>2026-09-01T19:53:00Z</time>
  <course>10.77</course>
  <speed>0.022360679774997897</speed>
  <fix>3d</fix>
</trkpt>
<trkpt lat="-27.274439" lon="151.290064">
  <ele>343.1</ele>
  <time>2026-09-01T19:53:00Z</time>
  <course>270.0</course>
  <speed>0.0</speed>
  <fix>3d</fix>
</trkpt>
<trkpt lat="-27.2744391" lon="151.2900641">
  <ele>343.19</ele>
  <time>2026-09-01T19:53:00Z</time>
  <course>10.77</course>
  <speed>0.022360679774997897</speed>
  <fix>3d</fix>
</trkpt>
<trkpt lat="-27.274439" lon="151.290064">
  <ele>343.1</ele>
  <time>2026-09-01T19:53:00Z</time>
  <course>270.0</course>
  <speed>0.0</speed>
  <fix>3d</fix>
</trkpt>
<trkpt lat="-27.2744391" lon="151.2900641">
  <ele>343.2</ele>
  <time>2026-09-01T19:53:00Z</time>
  <course>10.77</course>
  <speed>0.022360679774997897</speed>
  <fix>3d</fix>
</trkpt>
<trkpt lat="-27.274439" lon="151.290064">
  <ele>343.1</ele>
  <time>2026-09-01T19:53:00Z</time>
  <course>270.0</course>
  <speed>0.0</speed>
  <fix>3d</fix>
</trkpt>
<trkpt lat="-27.2744391" lon="151.2900641">
  <ele>343.2</ele>
  <time>2026-09-01T19:53:00Z</time>
  <course>10.78</course>
  <speed>0.022360679774997897</speed>
  <fix>3d</fix>
</trkpt>
<trkpt lat="-27.274439" lon="151.290064">
  <ele>343.1</ele>
  <time>2026-09-01T19:53:00Z</time>
  <course>270.0</course>
  <speed>0.0</speed>
  <fix>3d</fix>
</trkpt>
<trkpt lat="-27.2744391" lon="151.2900641">
  <ele>343.2</ele>
  <time>2026-09-01T19:53:00Z</time>
  <course>10.78</course>
  <speed>0.022360679774997897</speed>
  <fix>3d</fix>
</trkpt>
<trkpt lat="-27.274439" lon="151.290064">
  <ele>343.1</ele>
  <time>2026-09-01T19:53:00Z</time>
  <course>270.0</course>
  <speed>0.0</speed>
  <fix>3d</fix>
</trkpt>
<trkpt lat="-27.2744391" lon="151.2900641">
  <ele>343.2</ele>
  <time>2026-09-01T19:53:00Z</time>
  <course>10.78</course>
  <speed>0.022360679774997897</speed>
  <fix>3d</fix>
</trkpt>
<trkpt lat="-27.274439" lon="151.290064">
  <ele>343.1</ele>
  <time>2026-09-01T19:53:00Z</time>
  <course>270.0</course>
  <speed>0.0</speed>
  <fix>3d</fix>
</trkpt>
<trkpt lat="-27.2744391" lon="151.2900641">
  <ele>343.2</ele>
  <time>2026-09-01T19:53:00Z</time>
  <course>10.78</course>
  <speed>0.022360679774997897</speed>
  <fix>3d</fix>
</trkpt>
<trkpt lat="-27.274439" lon="151.290064">
  <ele>343.1</ele>
  <time>2026-09-01T19:53:00Z</time>
  <course>270.0</course>
  <speed>0.0</speed>
  <fix>3d</fix>
</trkpt>
<trkpt lat="-27.2744391" lon="151.2900641">
  <ele>343.2</ele>
  <time>2026-09-01T19:53:00Z</time>
  <course>10.78</course>
  <speed>0.022360679774997897</speed>
  <fix>3d</fix>
</trkpt>
<trkpt lat="-27.274439" lon="151.290064">
  <ele>343.1</ele>
  <time>2026-09-01T19:53:00Z</time>
  <course>270.0</course>
  <speed>0.0</speed>
  <fix>3d</fix>
</trkpt>
<trkpt lat="-27.2744391" lon="151.2900641">
  <ele>343.2</ele>
  <time>2026-09-01T19:53:00Z</time>
  <course>10.78</course>
  <speed>0.022360679774997897</speed>
  <fix>3d</fix>
</trkpt>
<trkpt lat="-27.274439" lon="151.290064">
  <ele>343.1</ele>
  <time>2026-09-01T19:53:00Z</time>
  <course>270.0</course>
  <speed>0.0</speed>
  <fix>3d</fix>
</trkpt>
<trkpt lat="-27.2744391" lon="151.2900641">
  <ele>343.2</ele>
  <time>2026-09-01T19:53:00Z</time>
  <course>10.78</course>
  <speed>0.022360679774997897</speed>
  <fix>3d</fix>
</trkpt>
<trkpt lat="-27.274439" lon="151.290064">
  <ele>343.1</ele>
  <time>2026-09-01T19:53:00Z</time>
  <course>270.0</course>
  <speed>0.0</speed>
  <fix>3d</fix>
</trkpt>
<trkpt lat="-27.2744391" lon="151.2900641">
  <ele>343.2</ele>
  <time>2026-09-01T19:53:00Z</time>
  <course>10.78</course>
  <speed>0.022360679774997897</speed>
  <fix>3d</fix>
</trkpt>
<trkpt lat="-27.274439" lon="151.290064">
  <ele>343.1</ele>
  <time>2026-09-01T19:53:00Z</time>
  <course>270.0</course>
  <speed>0.0</speed>
  <fix>3d</fix>
</trkpt>
<trkpt lat="-27.2744391" lon="151.2900641">
  <ele>343.2</ele>
  <time>2026-09-01T19:53:00Z</time>
  <course>10.78</course>
  <speed>0.022360679774997897</speed>
  <fix>3d</fix>
</trkpt>
<trkpt lat="-27.274439" lon="151.290064">
  <ele>343.1</ele>
  <time>2026-09-01T19:53:00Z</time>
  <course>270.0</course>
  <speed>0.0</speed>
  <fix>3d</fix>
</trkpt>
<trkpt lat="-27.2744391" lon="151.2900641">
  <ele>343.2</ele>
  <time>2026-09-01T19:53:00Z</time>
  <course>10.78</course>
  <speed>0.022360679774997897</speed>
  <fix>3d</fix>
</trkpt>
<trkpt lat="-27.274439" lon="151.290064">
  <ele>343.1</ele>
  <time>2026-09-01T19:53:00Z</time>
  <course>270.0</course>
  <speed>0.0</speed>
  <fix>3d</fix>
</trkpt>
<trkpt lat="-27.2744391" lon="151.2900641">
  <ele>343.2</ele>
  <time>2026-09-01T19:53:00Z</time>
  <course>10.78</course>
  <speed>0.022360679774997897</speed>
  <fix>3d</fix>
</trkpt>
<trkpt lat="-27.274439" lon="151.290064">
  <ele>343.1</ele>
  <time>2026-09-01T19:53:00Z</time>
  <course>270.0</course>
  <speed>0.0</speed>
  <fix>3d</fix>
</trkpt>
<trkpt lat="-27.2744391" lon="151.2900641">
  <ele>343.2</ele>
  <time>2026-09-01T19:53:00Z</time>
  <course>10.78</course>
  <speed>0.022360679774997897</speed>
  <fix>3d</fix>
</trkpt>
<trkpt lat="-27.274439" lon="151.290064">
  <ele>343.1</ele>
  <time>2026-09-01T19:53:00Z</time>
  <course>270.0</course>
  <speed>0.0</speed>
  <fix>3d</fix>
</trkpt>
<trkpt lat="-27.2744391" lon="151.2900641">
  <ele>343.2</ele>
  <time>2026-09-01T19:53:00Z</time>
  <course>10.78</course>
  <speed>0.022360679774997897</speed>
  <fix>3d</fix>
</trkpt>
<trkpt lat="-27.274439" lon="151.290064">
  <ele>343.1</ele>
  <time>2026-09-01T19:53:00Z</time>
  <course>270.0</course>
  <speed>0.0</speed>
  <fix>3d</fix>
</trkpt>
<trkpt lat="-27.2744391" lon="151.2900641">
  <ele>343.2</ele>
  <time>2026-09-01T19:53:00Z</time>
  <course>10.78</course>
  <speed>0.022360679774997897</speed>
  <fix>3d</fix>
</trkpt>
<trkpt lat="-27.274439" lon="151.290064">
  <ele>343.1</ele>
  <time>2026-09-01T19:53:00Z</time>
  <course>270.0</course>
  <speed>0.0</speed>
  <fix>3d</fix>
</trkpt>
<trkpt lat="-27.2744391" lon="151.2900641">
  <ele>343.2</ele>
  <time>2026-09-01T19:53:00Z</time>
  <course>10.78</course>
  <speed>0.022360679774997897</speed>
  <fix>3d</fix>
</trkpt>
<trkpt lat="-27.274439" lon="151.290064">
  <ele>343.1</ele>
  <time>2026-09-01T19:53:00Z</time>
  <course>270.0</course>
  <speed>0.0</speed>
  <fix>3d</fix>
</trkpt>
<trkpt lat="-27.2744391" lon="151.2900641">
  <ele>343.2</ele>
  <time>2026-09-01T19:53:00Z</time>
  <course>10.78</course>
  <speed>0.022360679774997897</speed>
  <fix>3d</fix>
</trkpt>
<trkpt lat="-27.274439" lon="151.290064">
  <ele>343.1</ele>
  <time>2026-09-01T19:53:00Z</time>
  <course>270.0</course>
  <speed>0.0</speed>
  <fix>3d</fix>
</trkpt>
<trkpt lat="-27.2744391" lon="151.2900641">
  <ele>343.2</ele>
  <time>2026-09-01T19:53:00Z</time>
  <course>10.78</course>
  <speed>0.022360679774997897</speed>
  <fix>3d</fix>
</trkpt>
<trkpt lat="-27.274439" lon="151.290064">
  <ele>343.1</ele>
  <time>2026-09-01T19:53:00Z</time>
  <course>270.0</course>
  <speed>0.0</speed>
  <fix>3d</fix>
</trkpt>
<trkpt lat="-27.2744391" lon="151.2900641">
  <ele>343.2</ele>
  <time>2026-09-01T19:53:00Z</time>
  <course>10.78</course>
  <speed>0.022360679774997897</speed>
  <fix>3d</fix>
</trkpt>
<trkpt lat="-27.274439" lon="151.290064">
  <ele>343.1</ele>
  <time>2026-09-01T19:53:00Z</time>
  <course>270.0</course>
  <speed>0.0</speed>
  <fix>3d</fix>
</trkpt>
<trkpt lat="-27.2744391" lon="151.2900641">
  <ele>343.2</ele>
  <time>2026-09-01T19:53:00Z</time>
  <course>10.79</course>
  <speed>0.022360679774997897</speed>
  <fix>3d</fix>
</trkpt>
<trkpt lat="-27.274439" lon="151.290064">
  <ele>343.1</ele>
  <time>2026-09-01T19:53:00Z</time>
  <course>270.0</course>
  <speed>0.0</speed>
  <fix>3d</fix>
</trkpt>
<trkpt lat="-27.2744391" lon="151.2900641">
  <ele>343.2</ele>
  <time>2026-09-01T19:53:00Z</time>
  <course>10.79</course>
  <speed>0.022360679774997897</speed>
  <fix>3d</fix>
</trkpt>
<trkpt lat="-27.274439" lon="151.290064">
  <ele>343.1</ele>
  <time>2026-09-01T19:53:00Z</time>
  <course>270.0</course>
  <speed>0.0</speed>
  <fix>3d</fix>
</trkpt>
<trkpt lat="-27.2744391" lon="151.2900641">
  <ele>343.2</ele>
  <time>2026-09-01T19:53:00Z</time>
  <course>10.79</course>
  <speed>0.022360679774997897</speed>
  <fix>3d</fix>
</trkpt>
<trkpt lat="-27.274439" lon="151.290064">
  <ele>343.1</ele>
  <time>2026-09-01T19:53:00Z</time>
  <course>270.0</course>
  <speed>0.0</speed>
  <fix>3d</fix>
</trkpt>
<trkpt lat="-27.2744391" lon="151.2900641">
  <ele>343.2</ele>
  <time>2026-09-01T19:53:00Z</time>
  <course>10.79</course>
  <speed>0.022360679774997897</speed>
  <fix>3d</fix>
</trkpt>
<trkpt lat="-27.274439" lon="151.290064">
  <ele>343.1</ele>
  <time>2026-09-01T19:53:00Z</time>
  <course>270.0</course>
  <speed>0.0</speed>
  <fix>3d</fix>
</trkpt>
<trkpt lat="-27.2744391" lon="151.2900641">
  <ele>343.19</ele>
  <time>2026-09-01T19:53:00Z</time>
  <course>10.79</course>
  <speed>0.022360679774997897</speed>
  <fix>3d</fix>
</trkpt>
<trkpt lat="-27.274439" lon="151.290064">
  <ele>343.1</ele>
  <time>2026-09-01T19:53:00Z</time>
  <course>270.0</course>
  <speed>0.0</speed>
  <fix>3d</fix>
</trkpt>
<trkpt lat="-27.2744391" lon="151.2900641">
  <ele>343.19</ele>
  <time>2026-09-01T19:53:00Z</time>
  <course>10.79</course>
  <speed>0.022360679774997897</speed>
  <fix>3d</fix>
</trkpt>
<trkpt lat="-27.274439" lon="151.290064">
  <ele>343.1</ele>
  <time>2026-09-01T19:53:00Z</time>
  <course>270.0</course>
  <speed>0.0</speed>
  <fix>3d</fix>
</trkpt>
<trkpt lat="-27.2744391" lon="151.2900641">
  <ele>343.19</ele>
  <time>2026-09-01T19:53:00Z</time>
  <course>10.79</course>
  <speed>0.022360679774997897</speed>
  <fix>3d</fix>
</trkpt>
<trkpt lat="-27.274439" lon="151.290064">
  <ele>343.1</ele>
  <time>2026-09-01T19:53:00Z</time>
  <course>270.0</course>
  <speed>0.0</speed>
  <fix>3d</fix>
</trkpt>
<trkpt lat="-27.2744391" lon="151.2900641">
  <ele>343.19</ele>
  <time>2026-09-01T19:53:00Z</time>
  <course>10.79</course>
  <speed>0.022360679774997897</speed>
  <fix>3d</fix>
</trkpt>
<trkpt lat="-27.274439" lon="151.290064">
  <ele>343.1</ele>
  <time>2026-09-01T19:53:00Z</time>
  <course>270.0</course>
  <speed>0.0</speed>
  <fix>3d</fix>
</trkpt>
<trkpt lat="-27.2744391" lon="151.2900641">
  <ele>343.1</ele>
  <time>2026-09-01T19:53:00Z</time>
  <course>10.79</course>
  <speed>0.022360679774997897</speed>
  <fix>3d</fix>
</trkpt>
<trkpt lat="-27.274439" lon="151.290064">
  <ele>343.1</ele>
  <time>2026-09-01T19:53:00Z</time>
  <course>270.0</course>
  <speed>0.0</speed>
  <fix>3d</fix>
</trkpt>
<trkpt lat="-27.2744391" lon="151.2900641">
  <ele>343.1</ele>
  <time>2026-09-01T19:53:00Z</time>
  <course>10.79</course>
  <speed>0.022360679774997897</speed>
  <fix>3d</fix>
</trkpt>
<trkpt lat="-27.274439" lon="151.290064">
  <ele>343.1</ele>
  <time>2026-09-01T19:53:00Z</time>
  <course>270.0</course>
  <speed>0.0</speed>
  <fix>3d</fix>
</trkpt>
<trkpt lat="-27.2744391" lon="151.2900641">
  <ele>343.1</ele>
  <time>2026-09-01T19:53:00Z</time>
  <course>10.79</course>
  <speed>0.022360679774997897</speed>
  <fix>3d</fix>
</trkpt>
<trkpt lat="-27.274439" lon="151.290064">
  <ele>343.1</ele>
  <time>2026-09-01T19:53:00Z</time>
  <course>270.0</course>
  <speed>0.0</speed>
  <fix>3d</fix>
</trkpt>
<trkpt lat="-27.2744391" lon="151.2900641">
  <ele>343.1</ele>
  <time>2026-09-01T19:53:00Z</time>
  <course>10.79</course>
  <speed>0.022360679774997897</speed>
  <fix>3d</fix>
</trkpt>
<trkpt lat="-27.274439" lon="151.290064">
  <ele>343.1</ele>
  <time>2026-09-01T19:53:00Z</time>
  <course>270.0</course>
  <speed>0.0</speed>
  <fix>3d</fix>
</trkpt>
<trkpt lat="-27.2744391" lon="151.2900641">
  <ele>343.1</ele>
  <time>2026-09-01T19:53:00Z</time>
  <course>10.79</course>
  <speed>0.022360679774997897</speed>
  <fix>3d</fix>
</trkpt>
<trkpt lat="-27.274439" lon="151.290064">
  <ele>343.1</ele>
  <time>2026-09-01T19:53:00Z</time>
  <course>270.0</course>
  <speed>0.0</speed>
  <fix>3d</fix>
</trkpt>
<trkpt lat="-27.2744391" lon="151.2900641">
  <ele>343.11</ele>
  <time>2026-09-01T19:53:00Z</time>
  <course>10.79</course>
  <speed>0.022360679774997897</speed>
  <fix>3d</fix>
</trkpt>
<trkpt lat="-27.274439" lon="151.290064">
  <ele>343.1</ele>
  <time>2026-09-01T19:53:00Z</time>
  <course>270.0</course>
  <speed>0.0</speed>
  <fix>3d</fix>
</trkpt>
<trkpt lat="-27.2744391" lon="151.2900641">
  <ele>343.11</ele>
  <time>2026-09-01T19:53:00Z</time>
  <course>10.79</course>
  <speed>0.022360679774997897</speed>
  <fix>3d</fix>
</trkpt>
<trkpt lat="-27.274439" lon="151.290064">
  <ele>343.1</ele>
  <time>2026-09-01T19:53:00Z</time>
  <course>270.0</course>
  <speed>0.0</speed>
  <fix>3d</fix>
</trkpt>
<trkpt lat="-27.2744391" lon="151.2900641">
  <ele>343.11</ele>
  <time>2026-09-01T19:53:00Z</time>
  <course>10.8</course>
  <speed>0.022360679774997897</speed>
  <fix>3d</fix>
</trkpt>
<trkpt lat="-27.274439" lon="151.290064">
  <ele>343.1</ele>
  <time>2026-09-01T19:53:00Z</time>
  <course>270.0</course>
  <speed>0.0</speed>
  <fix>3d</fix>
</trkpt>
<trkpt lat="-27.2744391" lon="151.2900641">
  <ele>343.11</ele>
  <time>2026-09-01T19:53:00Z</time>
  <course>10.8</course>
  <speed>0.022360679774997897</speed>
  <fix>3d</fix>
</trkpt>
<trkpt lat="-27.274439" lon="151.290064">
  <ele>343.1</ele>
  <time>2026-09-01T19:53:00Z</time>
  <course>270.0</course>
  <speed>0.0</speed>
  <fix>3d</fix>
</trkpt>
<trkpt lat="-27.2744391" lon="151.2900641">
  <ele>343.12</ele>
  <time>2026-09-01T19:53:00Z</time>
  <course>10.8</course>
  <speed>0.022360679774997897</speed>
  <fix>3d</fix>
</trkpt>
<trkpt lat="-27.274439" lon="151.290064">
  <ele>343.1</ele>
  <time>2026-09-01T19:53:00Z</time>
  <course>270.0</course>
  <speed>0.0</speed>
  <fix>3d</fix>
</trkpt>
<trkpt lat="-27.2744391" lon="151.2900641">
  <ele>343.12</ele>
  <time>2026-09-01T19:53:00Z</time>
  <course>10.8</course>
  <speed>0.022360679774997897</speed>
  <fix>3d</fix>
</trkpt>
<trkpt lat="-27.274439" lon="151.290064">
  <ele>343.1</ele>
  <time>2026-09-01T19:53:00Z</time>
  <course>270.0</course>
  <speed>0.0</speed>
  <fix>3d</fix>
</trkpt>
<trkpt lat="-27.2744391" lon="151.2900641">
  <ele>343.12</ele>
  <time>2026-09-01T19:53:00Z</time>
  <course>10.8</course>
  <speed>0.022360679774997897</speed>
  <fix>3d</fix>
</trkpt>
<trkpt lat="-27.274439" lon="151.290064">
  <ele>343.1</ele>
  <time>2026-09-01T19:53:00Z</time>
  <course>270.0</course>
  <speed>0.0</speed>
  <fix>3d</fix>
</trkpt>
<trkpt lat="-27.2744391" lon="151.2900641">
  <ele>343.12</ele>
  <time>2026-09-01T19:53:00Z</time>
  <course>10.8</course>
  <speed>0.022360679774997897</speed>
  <fix>3d</fix>
</trkpt>
<trkpt lat="-27.274439" lon="151.290064">
  <ele>343.1</ele>
  <time>2026-09-01T19:53:00Z</time>
  <course>270.0</course>
  <speed>0.0</speed>
  <fix>3d</fix>
</trkpt>
<trkpt lat="-27.2744391" lon="151.2900641">
  <ele>343.12</ele>
  <time>2026-09-01T19:53:00Z</time>
  <course>10.8</course>
  <speed>0.022360679774997897</speed>
  <fix>3d</fix>
</trkpt>
<trkpt lat="-27.274439" lon="151.290064">
  <ele>343.1</ele>
  <time>2026-09-01T19:53:00Z</time>
  <course>270.0</course>
  <speed>0.0</speed>
  <fix>3d</fix>
</trkpt>
<trkpt lat="-27.2744391" lon="151.2900641">
  <ele>343.12</ele>
  <time>2026-09-01T19:53:00Z</time>
  <course>10.8</course>
  <speed>0.022360679774997897</speed>
  <fix>3d</fix>
</trkpt>
<trkpt lat="-27.274439" lon="151.290064">
  <ele>343.1</ele>
  <time>2026-09-01T19:53:00Z</time>
  <course>270.0</course>
  <speed>0.0</speed>
  <fix>3d</fix>
</trkpt>
<trkpt lat="-27.2744391" lon="151.2900641">
  <ele>343.12</ele>
  <time>2026-09-01T19:53:00Z</time>
  <course>10.8</course>
  <speed>0.022360679774997897</speed>
  <fix>3d</fix>
</trkpt>
<trkpt lat="-27.274439" lon="151.290064">
  <ele>343.1</ele>
  <time>2026-09-01T19:53:00Z</time>
  <course>270.0</course>
  <speed>0.0</speed>
  <fix>3d</fix>
</trkpt>
<trkpt lat="-27.2744391" lon="151.2900641">
  <ele>343.11</ele>
  <time>2026-09-01T19:53:00Z</time>
  <course>10.8</course>
  <speed>0.022360679774997897</speed>
  <fix>3d</fix>
</trkpt>
<trkpt lat="-27.274439" lon="151.290064">
  <ele>343.1</ele>
  <time>2026-09-01T19:53:00Z</time>
  <course>270.0</course>
  <speed>0.0</speed>
  <fix>3d</fix>
</trkpt>
<trkpt lat="-27.2744391" lon="151.2900641">
  <ele>343.11</ele>
  <time>2026-09-01T19:53:00Z</time>
  <course>10.8</course>
  <speed>0.022360679774997897</speed>
  <fix>3d</fix>
</trkpt>
<trkpt lat="-27.274439" lon="151.290064">
  <ele>343.1</ele>
  <time>2026-09-01T19:53:00Z</time>
  <course>270.0</course>
  <speed>0.0</speed>
  <fix>3d</fix>
</trkpt>
<trkpt lat="-27.2744391" lon="151.2900641">
  <ele>343.11</ele>
  <time>2026-09-01T19:53:00Z</time>
  <course>10.8</course>
  <speed>0.022360679774997897</speed>
  <fix>3d</fix>
</trkpt>
<trkpt lat="-27.274439" lon="151.290064">
  <ele>343.1</ele>
  <time>2026-09-01T19:53:00Z</time>
  <course>270.0</course>
  <speed>0.0</speed>
  <fix>3d</fix>
</trkpt>
<trkpt lat="-27.2744391" lon="151.2900641">
  <ele>343.11</ele>
  <time>2026-09-01T19:53:00Z</time>
  <course>10.8</course>
  <speed>0.022360679774997897</speed>
  <fix>3d</fix>
</trkpt>
<trkpt lat="-27.274439" lon="151.290064">
  <ele>343.1</ele>
  <time>2026-09-01T19:53:00Z</time>
  <course>270.0</course>
  <speed>0.0</speed>
  <fix>3d</fix>
</trkpt>
<trkpt lat="-27.2744391" lon="151.2900641">
  <ele>343.11</ele>
  <time>2026-09-01T19:53:00Z</time>
  <course>10.8</course>
  <speed>0.022360679774997897</speed>
  <fix>3d</fix>
</trkpt>
<trkpt lat="-27.274439" lon="151.290064">
  <ele>343.1</ele>
  <time>2026-09-01T19:53:00Z</time>
  <course>270.0</course>
  <speed>0.0</speed>
  <fix>3d</fix>
</trkpt>
<trkpt lat="-27.2744391" lon="151.2900641">
  <ele>343.11</ele>
  <time>2026-09-01T19:53:00Z</time>
  <course>10.8</course>
  <speed>0.022360679774997897</speed>
  <fix>3d</fix>
</trkpt>
<trkpt lat="-27.274439" lon="151.290064">
  <ele>343.1</ele>
  <time>2026-09-01T19:53:00Z</time>
  <course>270.0</course>
  <speed>0.0</speed>
  <fix>3d</fix>
</trkpt>
<trkpt lat="-27.2744391" lon="151.2900641">
  <ele>343.11</ele>
  <time>2026-09-01T19:53:01Z</time>
  <course>10.8</course>
  <speed>0.022360679774997897</speed>
  <fix>3d</fix>
</trkpt>
<trkpt lat="-27.274439" lon="151.290064">
  <ele>343.1</ele>
  <time>2026-09-01T19:53:01Z</time>
  <course>270.0</course>
  <speed>0.0</speed>
  <fix>3d</fix>
</trkpt>
<trkpt lat="-27.2744391" lon="151.2900641">
  <ele>343.11</ele>
  <time>2026-09-01T19:53:01Z</time>
  <course>10.81</course>
  <speed>0.022360679774997897</speed>
  <fix>3d</fix>
</trkpt>
<trkpt lat="-27.274439" lon="151.290064">
  <ele>343.1</ele>
  <time>2026-09-01T19:53:01Z</time>
  <course>270.0</course>
  <speed>0.0</speed>
  <fix>3d</fix>
</trkpt>
<trkpt lat="-27.2744391" lon="151.2900641">
  <ele>343.1</ele>
  <time>2026-09-01T19:53:01Z</time>
  <course>10.81</course>
  <speed>0.022360679774997897</speed>
  <fix>3d</fix>
</trkpt>
<trkpt lat="-27.274439" lon="151.290064">
  <ele>343.1</ele>
  <time>2026-09-01T19:53:01Z</time>
  <course>270.0</course>
  <speed>0.0</speed>
  <fix>3d</fix>
</trkpt>
<trkpt lat="-27.2744391" lon="151.2900641">
  <ele>343.1</ele>
  <time>2026-09-01T19:53:01Z</time>
  <course>10.81</course>
  <speed>0.022360679774997897</speed>
  <fix>3d</fix>
</trkpt>
<trkpt lat="-27.274439" lon="151.290064">
  <ele>343.1</ele>
  <time>2026-09-01T19:53:01Z</time>
  <course>270.0</course>
  <speed>0.0</speed>
  <fix>3d</fix>
</trkpt>
<trkpt lat="-27.2744391" lon="151.2900641">
  <ele>343.1</ele>
  <time>2026-09-01T19:53:01Z</time>
  <course>10.81</course>
  <speed>0.022360679774997897</speed>
  <fix>3d</fix>
</trkpt>
<trkpt lat="-27.274439" lon="151.290064">
  <ele>343.1</ele>
  <time>2026-09-01T19:53:01Z</time>
  <course>270.0</course>
  <speed>0.0</speed>
  <fix>3d</fix>
</trkpt>
<trkpt lat="-27.2744391" lon="151.2900641">
  <ele>343.1</ele>
  <time>2026-09-01T19:53:01Z</time>
  <course>10.81</course>
  <speed>0.022360679774997897</speed>
  <fix>3d</fix>
</trkpt>
<trkpt lat="-27.274439" lon="151.290064">
  <ele>343.1</ele>
  <time>2026-09-01T19:53:01Z</time>
  <course>270.0</course>
  <speed>0.0</speed>
  <fix>3d</fix>
</trkpt>
<trkpt lat="-27.2744392" lon="151.2900641">
  <ele>343.1</ele>
  <time>2026-09-01T19:53:01Z</time>
  <course>10.81</course>
  <speed>0.022360679774997897</speed>
  <fix>3d</fix>
</trkpt>
<trkpt lat="-27.274439" lon="151.290064">
  <ele>343.1</ele>
  <time>2026-09-01T19:53:01Z</time>
  <course>270.0</course>
  <speed>0.0</speed>
  <fix>3d</fix>
</trkpt>
<trkpt lat="-27.2744391" lon="151.2900641">
  <ele>343.1</ele>
  <time>2026-09-01T19:53:01Z</time>
  <course>10.81</course>
  <speed>0.022360679774997897</speed>
  <fix>3d</fix>
</trkpt>
<trkpt lat="-27.274439" lon="151.290064">
  <ele>343.1</ele>
  <time>2026-09-01T19:53:01Z</time>
  <course>270.0</course>
  <speed>0.0</speed>
  <fix>3d</fix>
</trkpt>
<trkpt lat="-27.2744392" lon="151.2900641">
  <ele>343.1</ele>
  <time>2026-09-01T19:53:01Z</time>
  <course>10.81</course>
  <speed>0.022360679774997897</speed>
  <fix>3d</fix>
</trkpt>
<trkpt lat="-27.274439" lon="151.290064">
  <ele>343.1</ele>
  <time>2026-09-01T19:53:01Z</time>
  <course>270.0</course>
  <speed>0.0</speed>
  <fix>3d</fix>
</trkpt>
<trkpt lat="-27.2744391" lon="151.2900641">
  <ele>343.09</ele>
  <time>2026-09-01T19:53:01Z</time>
  <course>10.81</course>
  <speed>0.022360679774997897</speed>
  <fix>3d</fix>
</trkpt>
<trkpt lat="-27.274439" lon="151.290064">
  <ele>343.1</ele>
  <time>2026-09-01T19:53:01Z</time>
  <course>270.0</course>
  <speed>0.0</speed>
  <fix>3d</fix>
</trkpt>
<trkpt lat="-27.2744392" lon="151.2900641">
  <ele>343.09</ele>
  <time>2026-09-01T19:53:01Z</time>
  <course>10.81</course>
  <speed>0.022360679774997897</speed>
  <fix>3d</fix>
</trkpt>
<trkpt lat="-27.274439" lon="151.290064">
  <ele>343.1</ele>
  <time>2026-09-01T19:53:01Z</time>
  <course>270.0</course>
  <speed>0.0</speed>
  <fix>3d</fix>
</trkpt>
<trkpt lat="-27.2744391" lon="151.2900641">
  <ele>343.09</ele>
  <time>2026-09-01T19:53:01Z</time>
  <course>10.81</course>
  <speed>0.022360679774997897</speed>
  <fix>3d</fix>
</trkpt>
<trkpt lat="-27.274439" lon="151.290064">
  <ele>343.1</ele>
  <time>2026-09-01T19:53:01Z</time>
  <course>270.0</course>
  <speed>0.0</speed>
  <fix>3d</fix>
</trkpt>
<trkpt lat="-27.2744392" lon="151.2900641">
  <ele>343.09</ele>
  <time>2026-09-01T19:53:01Z</time>
  <course>10.81</course>
  <speed>0.022360679774997897</speed>
  <fix>3d</fix>
</trkpt>
<trkpt lat="-27.274439" lon="151.290064">
  <ele>343.1</ele>
  <time>2026-09-01T19:53:01Z</time>
  <course>270.0</course>
  <speed>0.0</speed>
  <fix>3d</fix>
</trkpt>
<trkpt lat="-27.2744391" lon="151.2900641">
  <ele>343.09</ele>
  <time>2026-09-01T19:53:01Z</time>
  <course>10.81</course>
  <speed>0.022360679774997897</speed>
  <fix>3d</fix>
</trkpt>
<trkpt lat="-27.274439" lon="151.290064">
  <ele>343.1</ele>
  <time>2026-09-01T19:53:01Z</time>
  <course>270.0</course>
  <speed>0.0</speed>
  <fix>3d</fix>
</trkpt>
<trkpt lat="-27.2744392" lon="151.2900641">
  <ele>343.09</ele>
  <time>2026-09-01T19:53:01Z</time>
  <course>10.81</course>
  <speed>0.022360679774997897</speed>
  <fix>3d</fix>
</trkpt>
<trkpt lat="-27.274439" lon="151.290064">
  <ele>343.1</ele>
  <time>2026-09-01T19:53:01Z</time>
  <course>270.0</course>
  <speed>0.0</speed>
  <fix>3d</fix>
</trkpt>
<trkpt lat="-27.2744391" lon="151.2900641">
  <ele>343.09</ele>
  <time>2026-09-01T19:53:01Z</time>
  <course>10.81</course>
  <speed>0.022360679774997897</speed>
  <fix>3d</fix>
</trkpt>
<trkpt lat="-27.274439" lon="151.290064">
  <ele>343.1</ele>
  <time>2026-09-01T19:53:01Z</time>
  <course>270.0</course>
  <speed>0.0</speed>
  <fix>3d</fix>
</trkpt>
<trkpt lat="-27.2744392" lon="151.2900641">
  <ele>343.09</ele>
  <time>2026-09-01T19:53:01Z</time>
  <course>10.81</course>
  <speed>0.022360679774997897</speed>
  <fix>3d</fix>
</trkpt>
<trkpt lat="-27.274439" lon="151.290064">
  <ele>343.1</ele>
  <time>2026-09-01T19:53:01Z</time>
  <course>270.0</course>
  <speed>0.0</speed>
  <fix>3d</fix>
</trkpt>
<trkpt lat="-27.2744391" lon="151.2900641">
  <ele>343.09</ele>
  <time>2026-09-01T19:53:01Z</time>
  <course>10.81</course>
  <speed>0.022360679774997897</speed>
  <fix>3d</fix>
</trkpt>
<trkpt lat="-27.274439" lon="151.290064">
  <ele>343.1</ele>
  <time>2026-09-01T19:53:01Z</time>
  <course>270.0</course>
  <speed>0.0</speed>
  <fix>3d</fix>
</trkpt>
<trkpt lat="-27.2744392" lon="151.2900641">
  <ele>343.09</ele>
  <time>2026-09-01T19:53:01Z</time>
  <course>10.81</course>
  <speed>0.022360679774997897</speed>
  <fix>3d</fix>
</trkpt>
<trkpt lat="-27.274439" lon="151.290064">
  <ele>343.1</ele>
  <time>2026-09-01T19:53:01Z</time>
  <course>270.0</course>
  <speed>0.0</speed>
  <fix>3d</fix>
</trkpt>
<trkpt lat="-27.2744391" lon="151.2900641">
  <ele>343.08</ele>
  <time>2026-09-01T19:53:01Z</time>
  <course>10.82</course>
  <speed>0.022360679774997897</speed>
  <fix>3d</fix>
</trkpt>
<trkpt lat="-27.274439" lon="151.290064">
  <ele>343.1</ele>
  <time>2026-09-01T19:53:01Z</time>
  <course>270.0</course>
  <speed>0.0</speed>
  <fix>3d</fix>
</trkpt>
<trkpt lat="-27.2744392" lon="151.2900641">
  <ele>343.08</ele>
  <time>2026-09-01T19:53:01Z</time>
  <course>10.82</course>
  <speed>0.022360679774997897</speed>
  <fix>3d</fix>
</trkpt>
<trkpt lat="-27.274439" lon="151.290064">
  <ele>343.1</ele>
  <time>2026-09-01T19:53:01Z</time>
  <course>270.0</course>
  <speed>0.0</speed>
  <fix>3d</fix>
</trkpt>
<trkpt lat="-27.2744391" lon="151.2900641">
  <ele>343.08</ele>
  <time>2026-09-01T19:53:01Z</time>
  <course>10.82</course>
  <speed>0.022360679774997897</speed>
  <fix>3d</fix>
</trkpt>
<trkpt lat="-27.274439" lon="151.290064">
  <ele>343.1</ele>
  <time>2026-09-01T19:53:01Z</time>
  <course>270.0</course>
  <speed>0.0</speed>
  <fix>3d</fix>
</trkpt>
<trkpt lat="-27.2744392" lon="151.2900641">
  <ele>343.08</ele>
  <time>2026-09-01T19:53:01Z</time>
  <course>10.82</course>
  <speed>0.022360679774997897</speed>
  <fix>3d</fix>
</trkpt>
<trkpt lat="-27.274439" lon="151.290064">
  <ele>343.1</ele>
  <time>2026-09-01T19:53:01Z</time>
  <course>270.0</course>
  <speed>0.0</speed>
  <fix>3d</fix>
</trkpt>
<trkpt lat="-27.2744391" lon="151.2900641">
  <ele>343.07</ele>
  <time>2026-09-01T19:53:01Z</time>
  <course>10.82</course>
  <speed>0.022360679774997897</speed>
  <fix>3d</fix>
</trkpt>
<trkpt lat="-27.274439" lon="151.290064">
  <ele>343.1</ele>
  <time>2026-09-01T19:53:01Z</time>
  <course>270.0</course>
  <speed>0.0</speed>
  <fix>3d</fix>
</trkpt>
<trkpt lat="-27.2744392" lon="151.2900641">
  <ele>343.07</ele>
  <time>2026-09-01T19:53:01Z</time>
  <course>10.82</course>
  <speed>0.022360679774997897</speed>
  <fix>3d</fix>
</trkpt>
<trkpt lat="-27.274439" lon="151.290064">
  <ele>343.1</ele>
  <time>2026-09-01T19:53:01Z</time>
  <course>270.0</course>
  <speed>0.0</speed>
  <fix>3d</fix>
</trkpt>
<trkpt lat="-27.2744391" lon="151.2900641">
  <ele>343.07</ele>
  <time>2026-09-01T19:53:01Z</time>
  <course>10.82</course>
  <speed>0.022360679774997897</speed>
  <fix>3d</fix>
</trkpt>
<trkpt lat="-27.274439" lon="151.290064">
  <ele>343.1</ele>
  <time>2026-09-01T19:53:01Z</time>
  <course>270.0</course>
  <speed>0.0</speed>
  <fix>3d</fix>
</trkpt>
<trkpt lat="-27.2744392" lon="151.2900641">
  <ele>343.07</ele>
  <time>2026-09-01T19:53:01Z</time>
  <course>10.82</course>
  <speed>0.022360679774997897</speed>
  <fix>3d</fix>
</trkpt>
<trkpt lat="-27.274439" lon="151.290064">
  <ele>343.1</ele>
  <time>2026-09-01T19:53:01Z</time>
  <course>270.0</course>
  <speed>0.0</speed>
  <fix>3d</fix>
</trkpt>
<trkpt lat="-27.2744391" lon="151.2900641">
  <ele>343.07</ele>
  <time>2026-09-01T19:53:01Z</time>
  <course>10.82</course>
  <speed>0.022360679774997897</speed>
  <fix>3d</fix>
</trkpt>
<trkpt lat="-27.274439" lon="151.290064">
  <ele>343.1</ele>
  <time>2026-09-01T19:53:01Z</time>
  <course>270.0</course>
  <speed>0.0</speed>
  <fix>3d</fix>
</trkpt>
<trkpt lat="-27.2744392" lon="151.2900641">
  <ele>343.07</ele>
  <time>2026-09-01T19:53:01Z</time>
  <course>10.82</course>
  <speed>0.022360679774997897</speed>
  <fix>3d</fix>
</trkpt>
<trkpt lat="-27.274439" lon="151.290064">
  <ele>343.1</ele>
  <time>2026-09-01T19:53:01Z</time>
  <course>270.0</course>
  <speed>0.0</speed>
  <fix>3d</fix>
</trkpt>
<trkpt lat="-27.2744391" lon="151.2900641">
  <ele>343.07</ele>
  <time>2026-09-01T19:53:01Z</time>
  <course>10.82</course>
  <speed>0.022360679774997897</speed>
  <fix>3d</fix>
</trkpt>
<trkpt lat="-27.274439" lon="151.290064">
  <ele>343.1</ele>
  <time>2026-09-01T19:53:01Z</time>
  <course>270.0</course>
  <speed>0.0</speed>
  <fix>3d</fix>
</trkpt>
<trkpt lat="-27.2744392" lon="151.2900641">
  <ele>343.07</ele>
  <time>2026-09-01T19:53:01Z</time>
  <course>10.82</course>
  <speed>0.022360679774997897</speed>
  <fix>3d</fix>
</trkpt>
<trkpt lat="-27.274439" lon="151.290064">
  <ele>343.1</ele>
  <time>2026-09-01T19:53:01Z</time>
  <course>270.0</course>
  <speed>0.0</speed>
  <fix>3d</fix>
</trkpt>
<trkpt lat="-27.2744391" lon="151.2900641">
  <ele>343.07</ele>
  <time>2026-09-01T19:53:01Z</time>
  <course>10.82</course>
  <speed>0.022360679774997897</speed>
  <fix>3d</fix>
</trkpt>
<trkpt lat="-27.274439" lon="151.290064">
  <ele>343.1</ele>
  <time>2026-09-01T19:53:01Z</time>
  <course>270.0</course>
  <speed>0.0</speed>
  <fix>3d</fix>
</trkpt>
<trkpt lat="-27.2744392" lon="151.2900641">
  <ele>343.07</ele>
  <time>2026-09-01T19:53:01Z</time>
  <course>10.82</course>
  <speed>0.022360679774997897</speed>
  <fix>3d</fix>
</trkpt>
<trkpt lat="-27.274439" lon="151.290064">
  <ele>343.1</ele>
  <time>2026-09-01T19:53:01Z</time>
  <course>270.0</course>
  <speed>0.0</speed>
  <fix>3d</fix>
</trkpt>
<trkpt lat="-27.2744391" lon="151.2900641">
  <ele>343.07</ele>
  <time>2026-09-01T19:53:01Z</time>
  <course>10.83</course>
  <speed>0.022360679774997897</speed>
  <fix>3d</fix>
</trkpt>
<trkpt lat="-27.274439" lon="151.290064">
  <ele>343.1</ele>
  <time>2026-09-01T19:53:01Z</time>
  <course>270.0</course>
  <speed>0.0</speed>
  <fix>3d</fix>
</trkpt>
<trkpt lat="-27.2744392" lon="151.2900641">
  <ele>343.08</ele>
  <time>2026-09-01T19:53:01Z</time>
  <course>10.83</course>
  <speed>0.022360679774997897</speed>
  <fix>3d</fix>
</trkpt>
<trkpt lat="-27.274439" lon="151.290064">
  <ele>343.1</ele>
  <time>2026-09-01T19:53:01Z</time>
  <course>270.0</course>
  <speed>0.0</speed>
  <fix>3d</fix>
</trkpt>
<trkpt lat="-27.2744391" lon="151.2900641">
  <ele>343.08</ele>
  <time>2026-09-01T19:53:01Z</time>
  <course>10.83</course>
  <speed>0.022360679774997897</speed>
  <fix>3d</fix>
</trkpt>
<trkpt lat="-27.274439" lon="151.290064">
  <ele>343.1</ele>
  <time>2026-09-01T19:53:01Z</time>
  <course>270.0</course>
  <speed>0.0</speed>
  <fix>3d</fix>
</trkpt>
<trkpt lat="-27.2744392" lon="151.2900641">
  <ele>343.08</ele>
  <time>2026-09-01T19:53:01Z</time>
  <course>10.83</course>
  <speed>0.022360679774997897</speed>
  <fix>3d</fix>
</trkpt>
<trkpt lat="-27.274439" lon="151.290064">
  <ele>343.1</ele>
  <time>2026-09-01T19:53:01Z</time>
  <course>270.0</course>
  <speed>0.0</speed>
  <fix>3d</fix>
</trkpt>
<trkpt lat="-27.2744391" lon="151.2900641">
  <ele>343.08</ele>
  <time>2026-09-01T19:53:01Z</time>
  <course>10.83</course>
  <speed>0.022360679774997897</speed>
  <fix>3d</fix>
</trkpt>
<trkpt lat="-27.274439" lon="151.290064">
  <ele>343.1</ele>
  <time>2026-09-01T19:53:01Z</time>
  <course>270.0</course>
  <speed>0.0</speed>
  <fix>3d</fix>
</trkpt>
<trkpt lat="-27.2744392" lon="151.2900641">
  <ele>343.09</ele>
  <time>2026-09-01T19:53:01Z</time>
  <course>10.83</course>
  <speed>0.022360679774997897</speed>
  <fix>3d</fix>
</trkpt>
<trkpt lat="-27.274439" lon="151.290064">
  <ele>343.1</ele>
  <time>2026-09-01T19:53:01Z</time>
  <course>270.0</course>
  <speed>0.0</speed>
  <fix>3d</fix>
</trkpt>
<trkpt lat="-27.2744391" lon="151.2900641">
  <ele>343.09</ele>
  <time>2026-09-01T19:53:01Z</time>
  <course>10.83</course>
  <speed>0.022360679774997897</speed>
  <fix>3d</fix>
</trkpt>
<trkpt lat="-27.274439" lon="151.290064">
  <ele>343.1</ele>
  <time>2026-09-01T19:53:01Z</time>
  <course>270.0</course>
  <speed>0.0</speed>
  <fix>3d</fix>
</trkpt>
<trkpt lat="-27.2744392" lon="151.2900641">
  <ele>343.09</ele>
  <time>2026-09-01T19:53:01Z</time>
  <course>10.83</course>
  <speed>0.022360679774997897</speed>
  <fix>3d</fix>
</trkpt>
<trkpt lat="-27.274439" lon="151.290064">
  <ele>343.1</ele>
  <time>2026-09-01T19:53:01Z</time>
  <course>270.0</course>
  <speed>0.0</speed>
  <fix>3d</fix>
</trkpt>
<trkpt lat="-27.2744391" lon="151.2900641">
  <ele>343.1</ele>
  <time>2026-09-01T19:53:01Z</time>
  <course>10.83</course>
  <speed>0.022360679774997897</speed>
  <fix>3d</fix>
</trkpt>
<trkpt lat="-27.274439" lon="151.290064">
  <ele>343.1</ele>
  <time>2026-09-01T19:53:01Z</time>
  <course>270.0</course>
  <speed>0.0</speed>
  <fix>3d</fix>
</trkpt>
<trkpt lat="-27.2744392" lon="151.2900641">
  <ele>343.1</ele>
  <time>2026-09-01T19:53:01Z</time>
  <course>10.83</course>
  <speed>0.022360679774997897</speed>
  <fix>3d</fix>
</trkpt>
<trkpt lat="-27.274439" lon="151.290064">
  <ele>343.1</ele>
  <time>2026-09-01T19:53:01Z</time>
  <course>270.0</course>
  <speed>0.0</speed>
  <fix>3d</fix>
</trkpt>
<trkpt lat="-27.2744391" lon="151.2900641">
  <ele>343.1</ele>
  <time>2026-09-01T19:53:01Z</time>
  <course>10.83</course>
  <speed>0.022360679774997897</speed>
  <fix>3d</fix>
</trkpt>
<trkpt lat="-27.274439" lon="151.290064">
  <ele>343.1</ele>
  <time>2026-09-01T19:53:01Z</time>
  <course>270.0</course>
  <speed>0.0</speed>
  <fix>3d</fix>
</trkpt>
<trkpt lat="-27.2744392" lon="151.2900641">
  <ele>343.1</ele>
  <time>2026-09-01T19:53:01Z</time>
  <course>10.83</course>
  <speed>0.022360679774997897</speed>
  <fix>3d</fix>
</trkpt>
<trkpt lat="-27.274439" lon="151.290064">
  <ele>343.1</ele>
  <time>2026-09-01T19:53:01Z</time>
  <course>270.0</course>
  <speed>0.0</speed>
  <fix>3d</fix>
</trkpt>
<trkpt lat="-27.2744391" lon="151.2900641">
  <ele>343.1</ele>
  <time>2026-09-01T19:53:01Z</time>
  <course>10.83</course>
  <speed>0.022360679774997897</speed>
  <fix>3d</fix>
</trkpt>
<trkpt lat="-27.274439" lon="151.290064">
  <ele>343.1</ele>
  <time>2026-09-01T19:53:01Z</time>
  <course>270.0</course>
  <speed>0.0</speed>
  <fix>3d</fix>
</trkpt>
<trkpt lat="-27.2744392" lon="151.2900641">
  <ele>343.1</ele>
  <time>2026-09-01T19:53:01Z</time>
  <course>10.83</course>
  <speed>0.022360679774997897</speed>
  <fix>3d</fix>
</trkpt>
<trkpt lat="-27.274439" lon="151.290064">
  <ele>343.1</ele>
  <time>2026-09-01T19:53:01Z</time>
  <course>270.0</course>
  <speed>0.0</speed>
  <fix>3d</fix>
</trkpt>
<trkpt lat="-27.2744391" lon="151.2900641">
  <ele>343.1</ele>
  <time>2026-09-01T19:53:01Z</time>
  <course>10.83</course>
  <speed>0.022360679774997897</speed>
  <fix>3d</fix>
</trkpt>
<trkpt lat="-27.274439" lon="151.290064">
  <ele>343.1</ele>
  <time>2026-09-01T19:53:01Z</time>
  <course>270.0</course>
  <speed>0.0</speed>
  <fix>3d</fix>
</trkpt>
<trkpt lat="-27.2744392" lon="151.2900641">
  <ele>343.1</ele>
  <time>2026-09-01T19:53:01Z</time>
  <course>10.83</course>
  <speed>0.022360679774997897</speed>
  <fix>3d</fix>
</trkpt>
<trkpt lat="-27.274439" lon="151.290064">
  <ele>343.1</ele>
  <time>2026-09-01T19:53:01Z</time>
  <course>270.0</course>
  <speed>0.0</speed>
  <fix>3d</fix>
</trkpt>
<trkpt lat="-27.2744391" lon="151.2900641">
  <ele>343.1</ele>
  <time>2026-09-01T19:53:01Z</time>
  <course>10.84</course>
  <speed>0.022360679774997897</speed>
  <fix>3d</fix>
</trkpt>
<trkpt lat="-27.274439" lon="151.290064">
  <ele>343.1</ele>
  <time>2026-09-01T19:53:01Z</time>
  <course>270.0</course>
  <speed>0.0</speed>
  <fix>3d</fix>
</trkpt>
<trkpt lat="-27.2744392" lon="151.2900641">
  <ele>343.1</ele>
  <time>2026-09-01T19:53:01Z</time>
  <course>10.84</course>
  <speed>0.022360679774997897</speed>
  <fix>3d</fix>
</trkpt>
<trkpt lat="-27.274439" lon="151.290064">
  <ele>343.1</ele>
  <time>2026-09-01T19:53:01Z</time>
  <course>270.0</course>
  <speed>0.0</speed>
  <fix>3d</fix>
</trkpt>
<trkpt lat="-27.2744391" lon="151.2900641">
  <ele>343.1</ele>
  <time>2026-09-01T19:53:01Z</time>
  <course>10.84</course>
  <speed>0.022360679774997897</speed>
  <fix>3d</fix>
</trkpt>
<trkpt lat="-27.274439" lon="151.290064">
  <ele>343.1</ele>
  <time>2026-09-01T19:53:01Z</time>
  <course>270.0</course>
  <speed>0.0</speed>
  <fix>3d</fix>
</trkpt>
<trkpt lat="-27.2744392" lon="151.2900641">
  <ele>343.1</ele>
  <time>2026-09-01T19:53:01Z</time>
  <course>10.84</course>
  <speed>0.022360679774997897</speed>
  <fix>3d</fix>
</trkpt>
<trkpt lat="-27.274439" lon="151.290064">
  <ele>343.1</ele>
  <time>2026-09-01T19:53:01Z</time>
  <course>270.0</course>
  <speed>0.0</speed>
  <fix>3d</fix>
</trkpt>
<trkpt lat="-27.2744391" lon="151.2900641">
  <ele>343.1</ele>
  <time>2026-09-01T19:53:01Z</time>
  <course>10.84</course>
  <speed>0.022360679774997897</speed>
  <fix>3d</fix>
</trkpt>
<trkpt lat="-27.274439" lon="151.290064">
  <ele>343.1</ele>
  <time>2026-09-01T19:53:01Z</time>
  <course>270.0</course>
  <speed>0.0</speed>
  <fix>3d</fix>
</trkpt>
<trkpt lat="-27.2744392" lon="151.2900641">
  <ele>343.1</ele>
  <time>2026-09-01T19:53:01Z</time>
  <course>10.84</course>
  <speed>0.022360679774997897</speed>
  <fix>3d</fix>
</trkpt>
<trkpt lat="-27.274439" lon="151.290064">
  <ele>343.1</ele>
  <time>2026-09-01T19:53:01Z</time>
  <course>270.0</course>
  <speed>0.0</speed>
  <fix>3d</fix>
</trkpt>
<trkpt lat="-27.2744391" lon="151.2900641">
  <ele>343.1</ele>
  <time>2026-09-01T19:53:01Z</time>
  <course>10.84</course>
  <speed>0.022360679774997897</speed>
  <fix>3d</fix>
</trkpt>
<trkpt lat="-27.274439" lon="151.290064">
  <ele>343.1</ele>
  <time>2026-09-01T19:53:01Z</time>
  <course>270.0</course>
  <speed>0.0</speed>
  <fix>3d</fix>
</trkpt>
<trkpt lat="-27.2744392" lon="151.2900641">
  <ele>343.11</ele>
  <time>2026-09-01T19:53:01Z</time>
  <course>10.84</course>
  <speed>0.022360679774997897</speed>
  <fix>3d</fix>
</trkpt>
<trkpt lat="-27.274439" lon="151.290064">
  <ele>343.1</ele>
  <time>2026-09-01T19:53:01Z</time>
  <course>270.0</course>
  <speed>0.0</speed>
  <fix>3d</fix>
</trkpt>
<trkpt lat="-27.2744391" lon="151.2900641">
  <ele>343.11</ele>
  <time>2026-09-01T19:53:01Z</time>
  <course>10.84</course>
  <speed>0.022360679774997897</speed>
  <fix>3d</fix>
</trkpt>
<trkpt lat="-27.274439" lon="151.290064">
  <ele>343.1</ele>
  <time>2026-09-01T19:53:01Z</time>
  <course>270.0</course>
  <speed>0.0</speed>
  <fix>3d</fix>
</trkpt>
<trkpt lat="-27.2744392" lon="151.2900641">
  <ele>343.11</ele>
  <time>2026-09-01T19:53:01Z</time>
  <course>10.84</course>
  <speed>0.022360679774997897</speed>
  <fix>3d</fix>
</trkpt>
<trkpt lat="-27.274439" lon="151.290064">
  <ele>343.1</ele>
  <time>2026-09-01T19:53:01Z</time>
  <course>270.0</course>
  <speed>0.0</speed>
  <fix>3d</fix>
</trkpt>
<trkpt lat="-27.2744392" lon="151.2900641">
  <ele>343.11</ele>
  <time>2026-09-01T19:53:01Z</time>
  <course>10.84</course>
  <speed>0.022360679774997897</speed>
  <fix>3d</fix>
</trkpt>
<trkpt lat="-27.274439" lon="151.290064">
  <ele>343.1</ele>
  <time>2026-09-01T19:53:01Z</time>
  <course>270.0</course>
  <speed>0.0</speed>
  <fix>3d</fix>
</trkpt>
<trkpt lat="-27.2744392" lon="151.2900641">
  <ele>343.11</ele>
  <time>2026-09-01T19:53:01Z</time>
  <course>10.84</course>
  <speed>0.022360679774997897</speed>
  <fix>3d</fix>
</trkpt>
<trkpt lat="-27.274439" lon="151.290064">
  <ele>343.1</ele>
  <time>2026-09-01T19:53:01Z</time>
  <course>270.0</course>
  <speed>0.0</speed>
  <fix>3d</fix>
</trkpt>
<trkpt lat="-27.2744392" lon="151.2900641">
  <ele>343.11</ele>
  <time>2026-09-01T19:53:01Z</time>
  <course>10.84</course>
  <speed>0.022360679774997897</speed>
  <fix>3d</fix>
</trkpt>
<trkpt lat="-27.274439" lon="151.290064">
  <ele>343.1</ele>
  <time>2026-09-01T19:53:01Z</time>
  <course>270.0</course>
  <speed>0.0</speed>
  <fix>3d</fix>
</trkpt>
<trkpt lat="-27.2744392" lon="151.2900641">
  <ele>343.12</ele>
  <time>2026-09-01T19:53:01Z</time>
  <course>10.84</course>
  <speed>0.022360679774997897</speed>
  <fix>3d</fix>
</trkpt>
<trkpt lat="-27.274439" lon="151.290064">
  <ele>343.1</ele>
  <time>2026-09-01T19:53:01Z</time>
  <course>270.0</course>
  <speed>0.0</speed>
  <fix>3d</fix>
</trkpt>
<trkpt lat="-27.2744392" lon="151.2900641">
  <ele>343.12</ele>
  <time>2026-09-01T19:53:01Z</time>
  <course>10.84</course>
  <speed>0.022360679774997897</speed>
  <fix>3d</fix>
</trkpt>
<trkpt lat="-27.274439" lon="151.290064">
  <ele>343.1</ele>
  <time>2026-09-01T19:53:01Z</time>
  <course>270.0</course>
  <speed>0.0</speed>
  <fix>3d</fix>
</trkpt>
<trkpt lat="-27.2744392" lon="151.2900641">
  <ele>343.12</ele>
  <time>2026-09-01T19:53:01Z</time>
  <course>10.85</course>
  <speed>0.022360679774997897</speed>
  <fix>3d</fix>
</trkpt>
<trkpt lat="-27.274439" lon="151.290064">
  <ele>343.1</ele>
  <time>2026-09-01T19:53:01Z</time>
  <course>270.0</course>
  <speed>0.0</speed>
  <fix>3d</fix>
</trkpt>
<trkpt lat="-27.2744392" lon="151.2900641">
  <ele>343.12</ele>
  <time>2026-09-01T19:53:01Z</time>
  <course>10.85</course>
  <speed>0.022360679774997897</speed>
  <fix>3d</fix>
</trkpt>
<trkpt lat="-27.274439" lon="151.290064">
  <ele>343.1</ele>
  <time>2026-09-01T19:53:01Z</time>
  <course>270.0</course>
  <speed>0.0</speed>
  <fix>3d</fix>
</trkpt>
<trkpt lat="-27.2744392" lon="151.2900641">
  <ele>343.12</ele>
  <time>2026-09-01T19:53:01Z</time>
  <course>10.85</course>
  <speed>0.022360679774997897</speed>
  <fix>3d</fix>
</trkpt>
<trkpt lat="-27.274439" lon="151.290064">
  <ele>343.1</ele>
  <time>2026-09-01T19:53:01Z</time>
  <course>270.0</course>
  <speed>0.0</speed>
  <fix>3d</fix>
</trkpt>
<trkpt lat="-27.2744392" lon="151.2900641">
  <ele>343.12</ele>
  <time>2026-09-01T19:53:01Z</time>
  <course>10.85</course>
  <speed>0.022360679774997897</speed>
  <fix>3d</fix>
</trkpt>
<trkpt lat="-27.274439" lon="151.290064">
  <ele>343.1</ele>
  <time>2026-09-01T19:53:01Z</time>
  <course>270.0</course>
  <speed>0.0</speed>
  <fix>3d</fix>
</trkpt>
<trkpt lat="-27.2744392" lon="151.2900641">
  <ele>343.12</ele>
  <time>2026-09-01T19:53:01Z</time>
  <course>10.85</course>
  <speed>0.022360679774997897</speed>
  <fix>3d</fix>
</trkpt>
<trkpt lat="-27.274439" lon="151.290064">
  <ele>343.1</ele>
  <time>2026-09-01T19:53:01Z</time>
  <course>270.0</course>
  <speed>0.0</speed>
  <fix>3d</fix>
</trkpt>
<trkpt lat="-27.2744392" lon="151.2900641">
  <ele>343.12</ele>
  <time>2026-09-01T19:53:01Z</time>
  <course>10.85</course>
  <speed>0.022360679774997897</speed>
  <fix>3d</fix>
</trkpt>
<trkpt lat="-27.274439" lon="151.290064">
  <ele>343.1</ele>
  <time>2026-09-01T19:53:01Z</time>
  <course>270.0</course>
  <speed>0.0</speed>
  <fix>3d</fix>
</trkpt>
<trkpt lat="-27.2744392" lon="151.2900641">
  <ele>343.12</ele>
  <time>2026-09-01T19:53:01Z</time>
  <course>10.85</course>
  <speed>0.022360679774997897</speed>
  <fix>3d</fix>
</trkpt>
<trkpt lat="-27.274439" lon="151.290064">
  <ele>343.1</ele>
  <time>2026-09-01T19:53:01Z</time>
  <course>270.0</course>
  <speed>0.0</speed>
  <fix>3d</fix>
</trkpt>
<trkpt lat="-27.2744392" lon="151.2900641">
  <ele>343.13</ele>
  <time>2026-09-01T19:53:01Z</time>
  <course>10.85</course>
  <speed>0.022360679774997897</speed>
  <fix>3d</fix>
</trkpt>
<trkpt lat="-27.274439" lon="151.290064">
  <ele>343.1</ele>
  <time>2026-09-01T19:53:01Z</time>
  <course>270.0</course>
  <speed>0.0</speed>
  <fix>3d</fix>
</trkpt>
<trkpt lat="-27.2744392" lon="151.2900641">
  <ele>343.13</ele>
  <time>2026-09-01T19:53:01Z</time>
  <course>10.85</course>
  <speed>0.022360679774997897</speed>
  <fix>3d</fix>
</trkpt>
<trkpt lat="-27.274439" lon="151.290064">
  <ele>343.1</ele>
  <time>2026-09-01T19:53:01Z</time>
  <course>270.0</course>
  <speed>0.0</speed>
  <fix>3d</fix>
</trkpt>
<trkpt lat="-27.2744392" lon="151.2900641">
  <ele>343.13</ele>
  <time>2026-09-01T19:53:01Z</time>
  <course>10.85</course>
  <speed>0.022360679774997897</speed>
  <fix>3d</fix>
</trkpt>
<trkpt lat="-27.274439" lon="151.290064">
  <ele>343.1</ele>
  <time>2026-09-01T19:53:01Z</time>
  <course>270.0</course>
  <speed>0.0</speed>
  <fix>3d</fix>
</trkpt>
<trkpt lat="-27.2744392" lon="151.2900641">
  <ele>343.13</ele>
  <time>2026-09-01T19:53:01Z</time>
  <course>10.85</course>
  <speed>0.022360679774997897</speed>
  <fix>3d</fix>
</trkpt>
<trkpt lat="-27.274439" lon="151.290064">
  <ele>343.1</ele>
  <time>2026-09-01T19:53:01Z</time>
  <course>270.0</course>
  <speed>0.0</speed>
  <fix>3d</fix>
</trkpt>
<trkpt lat="-27.2744392" lon="151.2900641">
  <ele>343.13</ele>
  <time>2026-09-01T19:53:01Z</time>
  <course>10.85</course>
  <speed>0.022360679774997897</speed>
  <fix>3d</fix>
</trkpt>
<trkpt lat="-27.274439" lon="151.290064">
  <ele>343.1</ele>
  <time>2026-09-01T19:53:01Z</time>
  <course>270.0</course>
  <speed>0.0</speed>
  <fix>3d</fix>
</trkpt>
<trkpt lat="-27.2744392" lon="151.2900641">
  <ele>343.14</ele>
  <time>2026-09-01T19:53:01Z</time>
  <course>10.85</course>
  <speed>0.022360679774997897</speed>
  <fix>3d</fix>
</trkpt>
<trkpt lat="-27.274439" lon="151.290064">
  <ele>343.1</ele>
  <time>2026-09-01T19:53:01Z</time>
  <course>270.0</course>
  <speed>0.0</speed>
  <fix>3d</fix>
</trkpt>
<trkpt lat="-27.2744392" lon="151.2900641">
  <ele>343.14</ele>
  <time>2026-09-01T19:53:01Z</time>
  <course>10.86</course>
  <speed>0.022360679774997897</speed>
  <fix>3d</fix>
</trkpt>
<trkpt lat="-27.274439" lon="151.290064">
  <ele>343.1</ele>
  <time>2026-09-01T19:53:01Z</time>
  <course>270.0</course>
  <speed>0.0</speed>
  <fix>3d</fix>
</trkpt>
<trkpt lat="-27.2744392" lon="151.2900641">
  <ele>343.14</ele>
  <time>2026-09-01T19:53:01Z</time>
  <course>10.86</course>
  <speed>0.022360679774997897</speed>
  <fix>3d</fix>
</trkpt>
<trkpt lat="-27.274439" lon="151.290064">
  <ele>343.1</ele>
  <time>2026-09-01T19:53:01Z</time>
  <course>270.0</course>
  <speed>0.0</speed>
  <fix>3d</fix>
</trkpt>
<trkpt lat="-27.2744392" lon="151.2900641">
  <ele>343.14</ele>
  <time>2026-09-01T19:53:01Z</time>
  <course>10.86</course>
  <speed>0.022360679774997897</speed>
  <fix>3d</fix>
</trkpt>
<trkpt lat="-27.274439" lon="151.290064">
  <ele>343.1</ele>
  <time>2026-09-01T19:53:01Z</time>
  <course>270.0</course>
  <speed>0.0</speed>
  <fix>3d</fix>
</trkpt>
<trkpt lat="-27.2744392" lon="151.2900641">
  <ele>343.14</ele>
  <time>2026-09-01T19:53:01Z</time>
  <course>10.86</course>
  <speed>0.022360679774997897</speed>
  <fix>3d</fix>
</trkpt>
<trkpt lat="-27.274439" lon="151.290064">
  <ele>343.1</ele>
  <time>2026-09-01T19:53:01Z</time>
  <course>270.0</course>
  <speed>0.0</speed>
  <fix>3d</fix>
</trkpt>
<trkpt lat="-27.2744392" lon="151.2900641">
  <ele>343.14</ele>
  <time>2026-09-01T19:53:01Z</time>
  <course>10.86</course>
  <speed>0.022360679774997897</speed>
  <fix>3d</fix>
</trkpt>
<trkpt lat="-27.274439" lon="151.290064">
  <ele>343.1</ele>
  <time>2026-09-01T19:53:01Z</time>
  <course>270.0</course>
  <speed>0.0</speed>
  <fix>3d</fix>
</trkpt>
<trkpt lat="-27.2744392" lon="151.2900641">
  <ele>343.14</ele>
  <time>2026-09-01T19:53:01Z</time>
  <course>10.86</course>
  <speed>0.022360679774997897</speed>
  <fix>3d</fix>
</trkpt>
<trkpt lat="-27.274439" lon="151.290064">
  <ele>343.1</ele>
  <time>2026-09-01T19:53:01Z</time>
  <course>270.0</course>
  <speed>0.0</speed>
  <fix>3d</fix>
</trkpt>
<trkpt lat="-27.2744392" lon="151.2900641">
  <ele>343.15</ele>
  <time>2026-09-01T19:53:01Z</time>
  <course>10.86</course>
  <speed>0.022360679774997897</speed>
  <fix>3d</fix>
</trkpt>
<trkpt lat="-27.274439" lon="151.290064">
  <ele>343.1</ele>
  <time>2026-09-01T19:53:01Z</time>
  <course>270.0</course>
  <speed>0.0</speed>
  <fix>3d</fix>
</trkpt>
<trkpt lat="-27.2744392" lon="151.2900641">
  <ele>343.15</ele>
  <time>2026-09-01T19:53:01Z</time>
  <course>10.86</course>
  <speed>0.022360679774997897</speed>
  <fix>3d</fix>
</trkpt>
<trkpt lat="-27.274439" lon="151.290064">
  <ele>343.1</ele>
  <time>2026-09-01T19:53:01Z</time>
  <course>270.0</course>
  <speed>0.0</speed>
  <fix>3d</fix>
</trkpt>
<trkpt lat="-27.2744392" lon="151.2900641">
  <ele>343.15</ele>
  <time>2026-09-01T19:53:01Z</time>
  <course>10.86</course>
  <speed>0.022360679774997897</speed>
  <fix>3d</fix>
</trkpt>
<trkpt lat="-27.274439" lon="151.290064">
  <ele>343.1</ele>
  <time>2026-09-01T19:53:01Z</time>
  <course>270.0</course>
  <speed>0.0</speed>
  <fix>3d</fix>
</trkpt>
<trkpt lat="-27.2744392" lon="151.2900641">
  <ele>343.15</ele>
  <time>2026-09-01T19:53:01Z</time>
  <course>10.86</course>
  <speed>0.022360679774997897</speed>
  <fix>3d</fix>
</trkpt>
<trkpt lat="-27.274439" lon="151.290064">
  <ele>343.1</ele>
  <time>2026-09-01T19:53:01Z</time>
  <course>270.0</course>
  <speed>0.0</speed>
  <fix>3d</fix>
</trkpt>
<trkpt lat="-27.2744392" lon="151.2900641">
  <ele>343.15</ele>
  <time>2026-09-01T19:53:01Z</time>
  <course>10.86</course>
  <speed>0.022360679774997897</speed>
  <fix>3d</fix>
</trkpt>
<trkpt lat="-27.274439" lon="151.290064">
  <ele>343.1</ele>
  <time>2026-09-01T19:53:01Z</time>
  <course>270.0</course>
  <speed>0.0</speed>
  <fix>3d</fix>
</trkpt>
<trkpt lat="-27.2744392" lon="151.2900641">
  <ele>343.16</ele>
  <time>2026-09-01T19:53:01Z</time>
  <course>10.86</course>
  <speed>0.022360679774997897</speed>
  <fix>3d</fix>
</trkpt>
<trkpt lat="-27.274439" lon="151.290064">
  <ele>343.1</ele>
  <time>2026-09-01T19:53:01Z</time>
  <course>270.0</course>
  <speed>0.0</speed>
  <fix>3d</fix>
</trkpt>
<trkpt lat="-27.2744392" lon="151.2900641">
  <ele>343.16</ele>
  <time>2026-09-01T19:53:01Z</time>
  <course>10.86</course>
  <speed>0.022360679774997897</speed>
  <fix>3d</fix>
</trkpt>
<trkpt lat="-27.274439" lon="151.290064">
  <ele>343.1</ele>
  <time>2026-09-01T19:53:01Z</time>
  <course>270.0</course>
  <speed>0.0</speed>
  <fix>3d</fix>
</trkpt>
<trkpt lat="-27.2744392" lon="151.2900641">
  <ele>343.16</ele>
  <time>2026-09-01T19:53:01Z</time>
  <course>10.86</course>
  <speed>0.022360679774997897</speed>
  <fix>3d</fix>
</trkpt>
<trkpt lat="-27.274439" lon="151.290064">
  <ele>343.1</ele>
  <time>2026-09-01T19:53:01Z</time>
  <course>270.0</course>
  <speed>0.0</speed>
  <fix>3d</fix>
</trkpt>
<trkpt lat="-27.2744392" lon="151.2900641">
  <ele>343.16</ele>
  <time>2026-09-01T19:53:01Z</time>
  <course>10.87</course>
  <speed>0.022360679774997897</speed>
  <fix>3d</fix>
</trkpt>
<trkpt lat="-27.274439" lon="151.290064">
  <ele>343.1</ele>
  <time>2026-09-01T19:53:01Z</time>
  <course>270.0</course>
  <speed>0.0</speed>
  <fix>3d</fix>
</trkpt>
<trkpt lat="-27.2744392" lon="151.2900641">
  <ele>343.16</ele>
  <time>2026-09-01T19:53:01Z</time>
  <course>10.87</course>
  <speed>0.022360679774997897</speed>
  <fix>3d</fix>
</trkpt>
<trkpt lat="-27.274439" lon="151.290064">
  <ele>343.1</ele>
  <time>2026-09-01T19:53:01Z</time>
  <course>270.0</course>
  <speed>0.0</speed>
  <fix>3d</fix>
</trkpt>
<trkpt lat="-27.2744392" lon="151.2900641">
  <ele>343.16</ele>
  <time>2026-09-01T19:53:01Z</time>
  <course>10.87</course>
  <speed>0.022360679774997897</speed>
  <fix>3d</fix>
</trkpt>
<trkpt lat="-27.274439" lon="151.290064">
  <ele>343.1</ele>
  <time>2026-09-01T19:53:01Z</time>
  <course>270.0</course>
  <speed>0.0</speed>
  <fix>3d</fix>
</trkpt>
<trkpt lat="-27.2744392" lon="151.2900641">
  <ele>343.15</ele>
  <time>2026-09-01T19:53:01Z</time>
  <course>10.87</course>
  <speed>0.022360679774997897</speed>
  <fix>3d</fix>
</trkpt>
<trkpt lat="-27.274439" lon="151.290064">
  <ele>343.1</ele>
  <time>2026-09-01T19:53:01Z</time>
  <course>270.0</course>
  <speed>0.0</speed>
  <fix>3d</fix>
</trkpt>
<trkpt lat="-27.2744392" lon="151.2900641">
  <ele>343.15</ele>
  <time>2026-09-01T19:53:01Z</time>
  <course>10.87</course>
  <speed>0.022360679774997897</speed>
  <fix>3d</fix>
</trkpt>
<trkpt lat="-27.274439" lon="151.290064">
  <ele>343.1</ele>
  <time>2026-09-01T19:53:01Z</time>
  <course>270.0</course>
  <speed>0.0</speed>
  <fix>3d</fix>
</trkpt>
<trkpt lat="-27.2744392" lon="151.2900641">
  <ele>343.15</ele>
  <time>2026-09-01T19:53:01Z</time>
  <course>10.87</course>
  <speed>0.022360679774997897</speed>
  <fix>3d</fix>
</trkpt>
<trkpt lat="-27.274439" lon="151.290064">
  <ele>343.1</ele>
  <time>2026-09-01T19:53:01Z</time>
  <course>270.0</course>
  <speed>0.0</speed>
  <fix>3d</fix>
</trkpt>
<trkpt lat="-27.2744392" lon="151.2900641">
  <ele>343.15</ele>
  <time>2026-09-01T19:53:01Z</time>
  <course>10.87</course>
  <speed>0.022360679774997897</speed>
  <fix>3d</fix>
</trkpt>
<trkpt lat="-27.274439" lon="151.290064">
  <ele>343.1</ele>
  <time>2026-09-01T19:53:01Z</time>
  <course>270.0</course>
  <speed>0.0</speed>
  <fix>3d</fix>
</trkpt>
<trkpt lat="-27.2744392" lon="151.2900641">
  <ele>343.1</ele>
  <time>2026-09-01T19:53:01Z</time>
  <course>10.87</course>
  <speed>0.022360679774997897</speed>
  <fix>3d</fix>
</trkpt>
<trkpt lat="-27.274439" lon="151.290064">
  <ele>343.1</ele>
  <time>2026-09-01T19:53:01Z</time>
  <course>270.0</course>
  <speed>0.0</speed>
  <fix>3d</fix>
</trkpt>
<trkpt lat="-27.2744392" lon="151.2900641">
  <ele>343.1</ele>
  <time>2026-09-01T19:53:01Z</time>
  <course>10.87</course>
  <speed>0.022360679774997897</speed>
  <fix>3d</fix>
</trkpt>
<trkpt lat="-27.274439" lon="151.290064">
  <ele>343.1</ele>
  <time>2026-09-01T19:53:01Z</time>
  <course>270.0</course>
  <speed>0.0</speed>
  <fix>3d</fix>
</trkpt>
<trkpt lat="-27.2744392" lon="151.2900641">
  <ele>343.1</ele>
  <time>2026-09-01T19:53:01Z</time>
  <course>10.87</course>
  <speed>0.022360679774997897</speed>
  <fix>3d</fix>
</trkpt>
<trkpt lat="-27.274439" lon="151.290064">
  <ele>343.1</ele>
  <time>2026-09-01T19:53:01Z</time>
  <course>270.0</course>
  <speed>0.0</speed>
  <fix>3d</fix>
</trkpt>
<trkpt lat="-27.2744392" lon="151.2900641">
  <ele>343.1</ele>
  <time>2026-09-01T19:53:01Z</time>
  <course>10.87</course>
  <speed>0.022360679774997897</speed>
  <fix>3d</fix>
</trkpt>
<trkpt lat="-27.274439" lon="151.290064">
  <ele>343.1</ele>
  <time>2026-09-01T19:53:01Z</time>
  <course>270.0</course>
  <speed>0.0</speed>
  <fix>3d</fix>
</trkpt>
<trkpt lat="-27.2744392" lon="151.2900641">
  <ele>343.1</ele>
  <time>2026-09-01T19:53:01Z</time>
  <course>10.87</course>
  <speed>0.022360679774997897</speed>
  <fix>3d</fix>
</trkpt>
<trkpt lat="-27.274439" lon="151.290064">
  <ele>343.1</ele>
  <time>2026-09-01T19:53:01Z</time>
  <course>270.0</course>
  <speed>0.0</speed>
  <fix>3d</fix>
</trkpt>
<trkpt lat="-27.2744392" lon="151.2900641">
  <ele>343.1</ele>
  <time>2026-09-01T19:53:01Z</time>
  <course>10.87</course>
  <speed>0.022360679774997897</speed>
  <fix>3d</fix>
</trkpt>
<trkpt lat="-27.274439" lon="151.290064">
  <ele>343.1</ele>
  <time>2026-09-01T19:53:01Z</time>
  <course>270.0</course>
  <speed>0.0</speed>
  <fix>3d</fix>
</trkpt>
<trkpt lat="-27.2744392" lon="151.2900641">
  <ele>343.1</ele>
  <time>2026-09-01T19:53:01Z</time>
  <course>10.87</course>
  <speed>0.022360679774997897</speed>
  <fix>3d</fix>
</trkpt>
<trkpt lat="-27.274439" lon="151.290064">
  <ele>343.1</ele>
  <time>2026-09-01T19:53:01Z</time>
  <course>270.0</course>
  <speed>0.0</speed>
  <fix>3d</fix>
</trkpt>
<trkpt lat="-27.2744392" lon="151.2900641">
  <ele>343.1</ele>
  <time>2026-09-01T19:53:01Z</time>
  <course>10.88</course>
  <speed>0.022360679774997897</speed>
  <fix>3d</fix>
</trkpt>
<trkpt lat="-27.274439" lon="151.290064">
  <ele>343.1</ele>
  <time>2026-09-01T19:53:01Z</time>
  <course>270.0</course>
  <speed>0.0</speed>
  <fix>3d</fix>
</trkpt>
<trkpt lat="-27.2744392" lon="151.2900641">
  <ele>343.1</ele>
  <time>2026-09-01T19:53:01Z</time>
  <course>10.88</course>
  <speed>0.022360679774997897</speed>
  <fix>3d</fix>
</trkpt>
<trkpt lat="-27.274439" lon="151.290064">
  <ele>343.1</ele>
  <time>2026-09-01T19:53:01Z</time>
  <course>270.0</course>
  <speed>0.0</speed>
  <fix>3d</fix>
</trkpt>
<trkpt lat="-27.2744392" lon="151.2900641">
  <ele>343.1</ele>
  <time>2026-09-01T19:53:01Z</time>
  <course>10.88</course>
  <speed>0.022360679774997897</speed>
  <fix>3d</fix>
</trkpt>
<trkpt lat="-27.274439" lon="151.290064">
  <ele>343.1</ele>
  <time>2026-09-01T19:53:01Z</time>
  <course>270.0</course>
  <speed>0.0</speed>
  <fix>3d</fix>
</trkpt>
<trkpt lat="-27.2744392" lon="151.2900641">
  <ele>343.11</ele>
  <time>2026-09-01T19:53:01Z</time>
  <course>10.88</course>
  <speed>0.022360679774997897</speed>
  <fix>3d</fix>
</trkpt>
<trkpt lat="-27.274439" lon="151.290064">
  <ele>343.1</ele>
  <time>2026-09-01T19:53:01Z</time>
  <course>270.0</course>
  <speed>0.0</speed>
  <fix>3d</fix>
</trkpt>
<trkpt lat="-27.2744392" lon="151.2900641">
  <ele>343.11</ele>
  <time>2026-09-01T19:53:01Z</time>
  <course>10.88</course>
  <speed>0.022360679774997897</speed>
  <fix>3d</fix>
</trkpt>
<trkpt lat="-27.274439" lon="151.290064">
  <ele>343.1</ele>
  <time>2026-09-01T19:53:01Z</time>
  <course>270.0</course>
  <speed>0.0</speed>
  <fix>3d</fix>
</trkpt>
<trkpt lat="-27.2744392" lon="151.2900641">
  <ele>343.11</ele>
  <time>2026-09-01T19:53:01Z</time>
  <course>10.88</course>
  <speed>0.022360679774997897</speed>
  <fix>3d</fix>
</trkpt>
<trkpt lat="-27.274439" lon="151.290064">
  <ele>343.1</ele>
  <time>2026-09-01T19:53:01Z</time>
  <course>270.0</course>
  <speed>0.0</speed>
  <fix>3d</fix>
</trkpt>
<trkpt lat="-27.2744392" lon="151.2900641">
  <ele>343.11</ele>
  <time>2026-09-01T19:53:01Z</time>
  <course>10.88</course>
  <speed>0.022360679774997897</speed>
  <fix>3d</fix>
</trkpt>
<trkpt lat="-27.274439" lon="151.290064">
  <ele>343.1</ele>
  <time>2026-09-01T19:53:01Z</time>
  <course>270.0</course>
  <speed>0.0</speed>
  <fix>3d</fix>
</trkpt>
<trkpt lat="-27.2744392" lon="151.2900641">
  <ele>343.1</ele>
  <time>2026-09-01T19:53:01Z</time>
  <course>10.88</course>
  <speed>0.022360679774997897</speed>
  <fix>3d</fix>
</trkpt>
<trkpt lat="-27.274439" lon="151.290064">
  <ele>343.1</ele>
  <time>2026-09-01T19:53:01Z</time>
  <course>270.0</course>
  <speed>0.0</speed>
  <fix>3d</fix>
</trkpt>
<trkpt lat="-27.2744392" lon="151.2900641">
  <ele>343.1</ele>
  <time>2026-09-01T19:53:01Z</time>
  <course>10.88</course>
  <speed>0.022360679774997897</speed>
  <fix>3d</fix>
</trkpt>
<trkpt lat="-27.274439" lon="151.290064">
  <ele>343.1</ele>
  <time>2026-09-01T19:53:01Z</time>
  <course>270.0</course>
  <speed>0.0</speed>
  <fix>3d</fix>
</trkpt>
<trkpt lat="-27.2744392" lon="151.2900641">
  <ele>343.1</ele>
  <time>2026-09-01T19:53:01Z</time>
  <course>10.88</course>
  <speed>0.022360679774997897</speed>
  <fix>3d</fix>
</trkpt>
<trkpt lat="-27.274439" lon="151.290064">
  <ele>343.1</ele>
  <time>2026-09-01T19:53:01Z</time>
  <course>270.0</course>
  <speed>0.0</speed>
  <fix>3d</fix>
</trkpt>
<trkpt lat="-27.2744392" lon="151.2900641">
  <ele>343.1</ele>
  <time>2026-09-01T19:53:01Z</time>
  <course>10.88</course>
  <speed>0.022360679774997897</speed>
  <fix>3d</fix>
</trkpt>
<trkpt lat="-27.274439" lon="151.290064">
  <ele>343.1</ele>
  <time>2026-09-01T19:53:01Z</time>
  <course>270.0</course>
  <speed>0.0</speed>
  <fix>3d</fix>
</trkpt>
<trkpt lat="-27.2744392" lon="151.2900641">
  <ele>343.1</ele>
  <time>2026-09-01T19:53:01Z</time>
  <course>10.88</course>
  <speed>0.022360679774997897</speed>
  <fix>3d</fix>
</trkpt>
<trkpt lat="-27.274439" lon="151.290064">
  <ele>343.1</ele>
  <time>2026-09-01T19:53:01Z</time>
  <course>270.0</course>
  <speed>0.0</speed>
  <fix>3d</fix>
</trkpt>
<trkpt lat="-27.2744392" lon="151.2900641">
  <ele>343.1</ele>
  <time>2026-09-01T19:53:01Z</time>
  <course>10.89</course>
  <speed>0.022360679774997897</speed>
  <fix>3d</fix>
</trkpt>
<trkpt lat="-27.274439" lon="151.290064">
  <ele>343.1</ele>
  <time>2026-09-01T19:53:01Z</time>
  <course>270.0</course>
  <speed>0.0</speed>
  <fix>3d</fix>
</trkpt>
<trkpt lat="-27.2744392" lon="151.2900641">
  <ele>343.1</ele>
  <time>2026-09-01T19:53:01Z</time>
  <course>10.89</course>
  <speed>0.022360679774997897</speed>
  <fix>3d</fix>
</trkpt>
<trkpt lat="-27.274439" lon="151.290064">
  <ele>343.1</ele>
  <time>2026-09-01T19:53:01Z</time>
  <course>270.0</course>
  <speed>0.0</speed>
  <fix>3d</fix>
</trkpt>
<trkpt lat="-27.2744392" lon="151.2900641">
  <ele>343.1</ele>
  <time>2026-09-01T19:53:01Z</time>
  <course>10.89</course>
  <speed>0.022360679774997897</speed>
  <fix>3d</fix>
</trkpt>
<trkpt lat="-27.274439" lon="151.290064">
  <ele>343.1</ele>
  <time>2026-09-01T19:53:01Z</time>
  <course>270.0</course>
  <speed>0.0</speed>
  <fix>3d</fix>
</trkpt>
<trkpt lat="-27.2744392" lon="151.2900641">
  <ele>343.1</ele>
  <time>2026-09-01T19:53:01Z</time>
  <course>10.89</course>
  <speed>0.022360679774997897</speed>
  <fix>3d</fix>
</trkpt>
<trkpt lat="-27.274439" lon="151.290064">
  <ele>343.1</ele>
  <time>2026-09-01T19:53:01Z</time>
  <course>270.0</course>
  <speed>0.0</speed>
  <fix>3d</fix>
</trkpt>
<trkpt lat="-27.2744392" lon="151.2900641">
  <ele>343.11</ele>
  <time>2026-09-01T19:53:01Z</time>
  <course>10.89</course>
  <speed>0.022360679774997897</speed>
  <fix>3d</fix>
</trkpt>
<trkpt lat="-27.274439" lon="151.290064">
  <ele>343.1</ele>
  <time>2026-09-01T19:53:01Z</time>
  <course>270.0</course>
  <speed>0.0</speed>
  <fix>3d</fix>
</trkpt>
<trkpt lat="-27.2744392" lon="151.2900641">
  <ele>343.11</ele>
  <time>2026-09-01T19:53:01Z</time>
  <course>10.89</course>
  <speed>0.022360679774997897</speed>
  <fix>3d</fix>
</trkpt>
<trkpt lat="-27.274439" lon="151.290064">
  <ele>343.1</ele>
  <time>2026-09-01T19:53:01Z</time>
  <course>270.0</course>
  <speed>0.0</speed>
  <fix>3d</fix>
</trkpt>
<trkpt lat="-27.2744392" lon="151.2900641">
  <ele>343.11</ele>
  <time>2026-09-01T19:53:01Z</time>
  <course>10.89</course>
  <speed>0.022360679774997897</speed>
  <fix>3d</fix>
</trkpt>
<trkpt lat="-27.274439" lon="151.290064">
  <ele>343.1</ele>
  <time>2026-09-01T19:53:01Z</time>
  <course>270.0</course>
  <speed>0.0</speed>
  <fix>3d</fix>
</trkpt>
<trkpt lat="-27.2744392" lon="151.2900641">
  <ele>343.11</ele>
  <time>2026-09-01T19:53:01Z</time>
  <course>10.89</course>
  <speed>0.022360679774997897</speed>
  <fix>3d</fix>
</trkpt>
<trkpt lat="-27.274439" lon="151.290064">
  <ele>343.1</ele>
  <time>2026-09-01T19:53:01Z</time>
  <course>270.0</course>
  <speed>0.0</speed>
  <fix>3d</fix>
</trkpt>
<trkpt lat="-27.2744392" lon="151.2900641">
  <ele>343.11</ele>
  <time>2026-09-01T19:53:01Z</time>
  <course>10.89</course>
  <speed>0.022360679774997897</speed>
  <fix>3d</fix>
</trkpt>
<trkpt lat="-27.274439" lon="151.290064">
  <ele>343.1</ele>
  <time>2026-09-01T19:53:01Z</time>
  <course>270.0</course>
  <speed>0.0</speed>
  <fix>3d</fix>
</trkpt>
<trkpt lat="-27.2744392" lon="151.2900641">
  <ele>343.12</ele>
  <time>2026-09-01T19:53:01Z</time>
  <course>10.89</course>
  <speed>0.022360679774997897</speed>
  <fix>3d</fix>
</trkpt>
<trkpt lat="-27.274439" lon="151.290064">
  <ele>343.1</ele>
  <time>2026-09-01T19:53:01Z</time>
  <course>270.0</course>
  <speed>0.0</speed>
  <fix>3d</fix>
</trkpt>
<trkpt lat="-27.2744392" lon="151.2900641">
  <ele>343.12</ele>
  <time>2026-09-01T19:53:01Z</time>
  <course>10.89</course>
  <speed>0.022360679774997897</speed>
  <fix>3d</fix>
</trkpt>
<trkpt lat="-27.274439" lon="151.290064">
  <ele>343.1</ele>
  <time>2026-09-01T19:53:01Z</time>
  <course>270.0</course>
  <speed>0.0</speed>
  <fix>3d</fix>
</trkpt>
<trkpt lat="-27.2744392" lon="151.2900641">
  <ele>343.12</ele>
  <time>2026-09-01T19:53:01Z</time>
  <course>10.89</course>
  <speed>0.022360679774997897</speed>
  <fix>3d</fix>
</trkpt>
<trkpt lat="-27.274439" lon="151.290064">
  <ele>343.1</ele>
  <time>2026-09-01T19:53:01Z</time>
  <course>270.0</course>
  <speed>0.0</speed>
  <fix>3d</fix>
</trkpt>
<trkpt lat="-27.2744392" lon="151.2900641">
  <ele>343.12</ele>
  <time>2026-09-01T19:53:01Z</time>
  <course>10.9</course>
  <speed>0.022360679774997897</speed>
  <fix>3d</fix>
</trkpt>
<trkpt lat="-27.274439" lon="151.290064">
  <ele>343.1</ele>
  <time>2026-09-01T19:53:01Z</time>
  <course>270.0</course>
  <speed>0.0</speed>
  <fix>3d</fix>
</trkpt>
<trkpt lat="-27.2744392" lon="151.2900641">
  <ele>343.12</ele>
  <time>2026-09-01T19:53:01Z</time>
  <course>10.9</course>
  <speed>0.022360679774997897</speed>
  <fix>3d</fix>
</trkpt>
<trkpt lat="-27.274439" lon="151.290064">
  <ele>343.1</ele>
  <time>2026-09-01T19:53:01Z</time>
  <course>270.0</course>
  <speed>0.0</speed>
  <fix>3d</fix>
</trkpt>
<trkpt lat="-27.2744392" lon="151.2900641">
  <ele>343.12</ele>
  <time>2026-09-01T19:53:01Z</time>
  <course>10.9</course>
  <speed>0.022360679774997897</speed>
  <fix>3d</fix>
</trkpt>
<trkpt lat="-27.274439" lon="151.290064">
  <ele>343.1</ele>
  <time>2026-09-01T19:53:01Z</time>
  <course>270.0</course>
  <speed>0.0</speed>
  <fix>3d</fix>
</trkpt>
<trkpt lat="-27.2744392" lon="151.2900641">
  <ele>343.12</ele>
  <time>2026-09-01T19:53:01Z</time>
  <course>10.9</course>
  <speed>0.022360679774997897</speed>
  <fix>3d</fix>
</trkpt>
<trkpt lat="-27.274439" lon="151.290064">
  <ele>343.1</ele>
  <time>2026-09-01T19:53:01Z</time>
  <course>270.0</course>
  <speed>0.0</speed>
  <fix>3d</fix>
</trkpt>
<trkpt lat="-27.2744392" lon="151.2900641">
  <ele>343.12</ele>
  <time>2026-09-01T19:53:01Z</time>
  <course>10.9</course>
  <speed>0.022360679774997897</speed>
  <fix>3d</fix>
</trkpt>
<trkpt lat="-27.274439" lon="151.290064">
  <ele>343.1</ele>
  <time>2026-09-01T19:53:01Z</time>
  <course>270.0</course>
  <speed>0.0</speed>
  <fix>3d</fix>
</trkpt>
<trkpt lat="-27.2744392" lon="151.2900641">
  <ele>343.12</ele>
  <time>2026-09-01T19:53:01Z</time>
  <course>10.9</course>
  <speed>0.022360679774997897</speed>
  <fix>3d</fix>
</trkpt>
<trkpt lat="-27.274439" lon="151.290064">
  <ele>343.1</ele>
  <time>2026-09-01T19:53:01Z</time>
  <course>270.0</course>
  <speed>0.0</speed>
  <fix>3d</fix>
</trkpt>
<trkpt lat="-27.2744392" lon="151.2900641">
  <ele>343.12</ele>
  <time>2026-09-01T19:53:01Z</time>
  <course>10.9</course>
  <speed>0.022360679774997897</speed>
  <fix>3d</fix>
</trkpt>
<trkpt lat="-27.274439" lon="151.290064">
  <ele>343.1</ele>
  <time>2026-09-01T19:53:01Z</time>
  <course>270.0</course>
  <speed>0.0</speed>
  <fix>3d</fix>
</trkpt>
<trkpt lat="-27.2744392" lon="151.2900641">
  <ele>343.12</ele>
  <time>2026-09-01T19:53:01Z</time>
  <course>10.9</course>
  <speed>0.022360679774997897</speed>
  <fix>3d</fix>
</trkpt>
<trkpt lat="-27.274439" lon="151.290064">
  <ele>343.1</ele>
  <time>2026-09-01T19:53:01Z</time>
  <course>270.0</course>
  <speed>0.0</speed>
  <fix>3d</fix>
</trkpt>
<trkpt lat="-27.2744392" lon="151.2900641">
  <ele>343.12</ele>
  <time>2026-09-01T19:53:01Z</time>
  <course>10.9</course>
  <speed>0.022360679774997897</speed>
  <fix>3d</fix>
</trkpt>
<trkpt lat="-27.274439" lon="151.290064">
  <ele>343.1</ele>
  <time>2026-09-01T19:53:01Z</time>
  <course>270.0</course>
  <speed>0.0</speed>
  <fix>3d</fix>
</trkpt>
<trkpt lat="-27.2744392" lon="151.2900641">
  <ele>343.12</ele>
  <time>2026-09-01T19:53:01Z</time>
  <course>10.9</course>
  <speed>0.022360679774997897</speed>
  <fix>3d</fix>
</trkpt>
<trkpt lat="-27.274439" lon="151.290064">
  <ele>343.1</ele>
  <time>2026-09-01T19:53:01Z</time>
  <course>270.0</course>
  <speed>0.0</speed>
  <fix>3d</fix>
</trkpt>
<trkpt lat="-27.2744392" lon="151.2900641">
  <ele>343.12</ele>
  <time>2026-09-01T19:53:01Z</time>
  <course>10.9</course>
  <speed>0.022360679774997897</speed>
  <fix>3d</fix>
</trkpt>
<trkpt lat="-27.274439" lon="151.290064">
  <ele>343.1</ele>
  <time>2026-09-01T19:53:01Z</time>
  <course>270.0</course>
  <speed>0.0</speed>
  <fix>3d</fix>
</trkpt>
<trkpt lat="-27.2744392" lon="151.2900641">
  <ele>343.12</ele>
  <time>2026-09-01T19:53:01Z</time>
  <course>10.9</course>
  <speed>0.022360679774997897</speed>
  <fix>3d</fix>
</trkpt>
<trkpt lat="-27.274439" lon="151.290064">
  <ele>343.1</ele>
  <time>2026-09-01T19:53:01Z</time>
  <course>270.0</course>
  <speed>0.0</speed>
  <fix>3d</fix>
</trkpt>
<trkpt lat="-27.2744392" lon="151.2900641">
  <ele>343.13</ele>
  <time>2026-09-01T19:53:01Z</time>
  <course>10.9</course>
  <speed>0.022360679774997897</speed>
  <fix>3d</fix>
</trkpt>
<trkpt lat="-27.274439" lon="151.290064">
  <ele>343.1</ele>
  <time>2026-09-01T19:53:01Z</time>
  <course>270.0</course>
  <speed>0.0</speed>
  <fix>3d</fix>
</trkpt>
<trkpt lat="-27.2744392" lon="151.2900641">
  <ele>343.13</ele>
  <time>2026-09-01T19:53:01Z</time>
  <course>10.91</course>
  <speed>0.022360679774997897</speed>
  <fix>3d</fix>
</trkpt>
<trkpt lat="-27.274439" lon="151.290064">
  <ele>343.1</ele>
  <time>2026-09-01T19:53:01Z</time>
  <course>270.0</course>
  <speed>0.0</speed>
  <fix>3d</fix>
</trkpt>
<trkpt lat="-27.2744392" lon="151.2900641">
  <ele>343.13</ele>
  <time>2026-09-01T19:53:01Z</time>
  <course>10.91</course>
  <speed>0.022360679774997897</speed>
  <fix>3d</fix>
</trkpt>
<trkpt lat="-27.274439" lon="151.290064">
  <ele>343.1</ele>
  <time>2026-09-01T19:53:01Z</time>
  <course>270.0</course>
  <speed>0.0</speed>
  <fix>3d</fix>
</trkpt>
<trkpt lat="-27.2744392" lon="151.2900641">
  <ele>343.13</ele>
  <time>2026-09-01T19:53:01Z</time>
  <course>10.91</course>
  <speed>0.022360679774997897</speed>
  <fix>3d</fix>
</trkpt>
<trkpt lat="-27.274439" lon="151.290064">
  <ele>343.1</ele>
  <time>2026-09-01T19:53:01Z</time>
  <course>270.0</course>
  <speed>0.0</speed>
  <fix>3d</fix>
</trkpt>
<trkpt lat="-27.2744392" lon="151.2900641">
  <ele>343.13</ele>
  <time>2026-09-01T19:53:01Z</time>
  <course>10.91</course>
  <speed>0.022360679774997897</speed>
  <fix>3d</fix>
</trkpt>
<trkpt lat="-27.274439" lon="151.290064">
  <ele>343.1</ele>
  <time>2026-09-01T19:53:01Z</time>
  <course>270.0</course>
  <speed>0.0</speed>
  <fix>3d</fix>
</trkpt>
<trkpt lat="-27.2744392" lon="151.2900641">
  <ele>343.13</ele>
  <time>2026-09-01T19:53:01Z</time>
  <course>10.91</course>
  <speed>0.022360679774997897</speed>
  <fix>3d</fix>
</trkpt>
<trkpt lat="-27.274439" lon="151.290064">
  <ele>343.1</ele>
  <time>2026-09-01T19:53:01Z</time>
  <course>270.0</course>
  <speed>0.0</speed>
  <fix>3d</fix>
</trkpt>
<trkpt lat="-27.2744392" lon="151.2900641">
  <ele>343.13</ele>
  <time>2026-09-01T19:53:01Z</time>
  <course>10.91</course>
  <speed>0.022360679774997897</speed>
  <fix>3d</fix>
</trkpt>
<trkpt lat="-27.274439" lon="151.290064">
  <ele>343.1</ele>
  <time>2026-09-01T19:53:01Z</time>
  <course>270.0</course>
  <speed>0.0</speed>
  <fix>3d</fix>
</trkpt>
<trkpt lat="-27.2744392" lon="151.2900641">
  <ele>343.12</ele>
  <time>2026-09-01T19:53:01Z</time>
  <course>10.91</course>
  <speed>0.022360679774997897</speed>
  <fix>3d</fix>
</trkpt>
<trkpt lat="-27.274439" lon="151.290064">
  <ele>343.1</ele>
  <time>2026-09-01T19:53:01Z</time>
  <course>270.0</course>
  <speed>0.0</speed>
  <fix>3d</fix>
</trkpt>
<trkpt lat="-27.2744392" lon="151.2900641">
  <ele>343.12</ele>
  <time>2026-09-01T19:53:01Z</time>
  <course>10.91</course>
  <speed>0.022360679774997897</speed>
  <fix>3d</fix>
</trkpt>
<trkpt lat="-27.274439" lon="151.290064">
  <ele>343.1</ele>
  <time>2026-09-01T19:53:01Z</time>
  <course>270.0</course>
  <speed>0.0</speed>
  <fix>3d</fix>
</trkpt>
<trkpt lat="-27.2744392" lon="151.2900641">
  <ele>343.12</ele>
  <time>2026-09-01T19:53:01Z</time>
  <course>10.91</course>
  <speed>0.022360679774997897</speed>
  <fix>3d</fix>
</trkpt>
<trkpt lat="-27.274439" lon="151.290064">
  <ele>343.1</ele>
  <time>2026-09-01T19:53:01Z</time>
  <course>270.0</course>
  <speed>0.0</speed>
  <fix>3d</fix>
</trkpt>
<trkpt lat="-27.2744392" lon="151.2900641">
  <ele>343.13</ele>
  <time>2026-09-01T19:53:01Z</time>
  <course>10.91</course>
  <speed>0.022360679774997897</speed>
  <fix>3d</fix>
</trkpt>
<trkpt lat="-27.274439" lon="151.290064">
  <ele>343.1</ele>
  <time>2026-09-01T19:53:01Z</time>
  <course>270.0</course>
  <speed>0.0</speed>
  <fix>3d</fix>
</trkpt>
<trkpt lat="-27.2744392" lon="151.2900641">
  <ele>343.13</ele>
  <time>2026-09-01T19:53:01Z</time>
  <course>10.91</course>
  <speed>0.022360679774997897</speed>
  <fix>3d</fix>
</trkpt>
<trkpt lat="-27.274439" lon="151.290064">
  <ele>343.1</ele>
  <time>2026-09-01T19:53:01Z</time>
  <course>270.0</course>
  <speed>0.0</speed>
  <fix>3d</fix>
</trkpt>
<trkpt lat="-27.2744392" lon="151.2900641">
  <ele>343.13</ele>
  <time>2026-09-01T19:53:01Z</time>
  <course>10.91</course>
  <speed>0.022360679774997897</speed>
  <fix>3d</fix>
</trkpt>
<trkpt lat="-27.274439" lon="151.290064">
  <ele>343.1</ele>
  <time>2026-09-01T19:53:01Z</time>
  <course>270.0</course>
  <speed>0.0</speed>
  <fix>3d</fix>
</trkpt>
<trkpt lat="-27.2744392" lon="151.2900641">
  <ele>343.13</ele>
  <time>2026-09-01T19:53:01Z</time>
  <course>10.91</course>
  <speed>0.022360679774997897</speed>
  <fix>3d</fix>
</trkpt>
<trkpt lat="-27.274439" lon="151.290064">
  <ele>343.1</ele>
  <time>2026-09-01T19:53:01Z</time>
  <course>270.0</course>
  <speed>0.0</speed>
  <fix>3d</fix>
</trkpt>
<trkpt lat="-27.2744392" lon="151.2900641">
  <ele>343.13</ele>
  <time>2026-09-01T19:53:01Z</time>
  <course>10.92</course>
  <speed>0.022360679774997897</speed>
  <fix>3d</fix>
</trkpt>
<trkpt lat="-27.274439" lon="151.290064">
  <ele>343.1</ele>
  <time>2026-09-01T19:53:01Z</time>
  <course>270.0</course>
  <speed>0.0</speed>
  <fix>3d</fix>
</trkpt>
<trkpt lat="-27.2744392" lon="151.2900641">
  <ele>343.14</ele>
  <time>2026-09-01T19:53:01Z</time>
  <course>10.92</course>
  <speed>0.022360679774997897</speed>
  <fix>3d</fix>
</trkpt>
<trkpt lat="-27.274439" lon="151.290064">
  <ele>343.1</ele>
  <time>2026-09-01T19:53:01Z</time>
  <course>270.0</course>
  <speed>0.0</speed>
  <fix>3d</fix>
</trkpt>
<trkpt lat="-27.2744392" lon="151.2900641">
  <ele>343.14</ele>
  <time>2026-09-01T19:53:01Z</time>
  <course>10.92</course>
  <speed>0.022360679774997897</speed>
  <fix>3d</fix>
</trkpt>
<trkpt lat="-27.274439" lon="151.290064">
  <ele>343.1</ele>
  <time>2026-09-01T19:53:01Z</time>
  <course>270.0</course>
  <speed>0.0</speed>
  <fix>3d</fix>
</trkpt>
<trkpt lat="-27.2744392" lon="151.2900641">
  <ele>343.1</ele>
  <time>2026-09-01T19:53:01Z</time>
  <course>10.92</course>
  <speed>0.022360679774997897</speed>
  <fix>3d</fix>
</trkpt>
<trkpt lat="-27.274439" lon="151.290064">
  <ele>343.1</ele>
  <time>2026-09-01T19:53:01Z</time>
  <course>270.0</course>
  <speed>0.0</speed>
  <fix>3d</fix>
</trkpt>
<trkpt lat="-27.2744392" lon="151.2900641">
  <ele>343.1</ele>
  <time>2026-09-01T19:53:01Z</time>
  <course>10.92</course>
  <speed>0.022360679774997897</speed>
  <fix>3d</fix>
</trkpt>
<trkpt lat="-27.274439" lon="151.290064">
  <ele>343.1</ele>
  <time>2026-09-01T19:53:01Z</time>
  <course>270.0</course>
  <speed>0.0</speed>
  <fix>3d</fix>
</trkpt>
<trkpt lat="-27.2744392" lon="151.2900641">
  <ele>343.1</ele>
  <time>2026-09-01T19:53:01Z</time>
  <course>10.92</course>
  <speed>0.022360679774997897</speed>
  <fix>3d</fix>
</trkpt>
<trkpt lat="-27.274439" lon="151.290064">
  <ele>343.1</ele>
  <time>2026-09-01T19:53:01Z</time>
  <course>270.0</course>
  <speed>0.0</speed>
  <fix>3d</fix>
</trkpt>
<trkpt lat="-27.2744392" lon="151.2900641">
  <ele>343.1</ele>
  <time>2026-09-01T19:53:01Z</time>
  <course>10.92</course>
  <speed>0.022360679774997897</speed>
  <fix>3d</fix>
</trkpt>
<trkpt lat="-27.274439" lon="151.290064">
  <ele>343.1</ele>
  <time>2026-09-01T19:53:01Z</time>
  <course>270.0</course>
  <speed>0.0</speed>
  <fix>3d</fix>
</trkpt>
<trkpt lat="-27.2744392" lon="151.2900641">
  <ele>343.1</ele>
  <time>2026-09-01T19:53:01Z</time>
  <course>10.92</course>
  <speed>0.022360679774997897</speed>
  <fix>3d</fix>
</trkpt>
<trkpt lat="-27.274439" lon="151.290064">
  <ele>343.1</ele>
  <time>2026-09-01T19:53:01Z</time>
  <course>270.0</course>
  <speed>0.0</speed>
  <fix>3d</fix>
</trkpt>
<trkpt lat="-27.2744392" lon="151.2900641">
  <ele>343.1</ele>
  <time>2026-09-01T19:53:01Z</time>
  <course>10.92</course>
  <speed>0.022360679774997897</speed>
  <fix>3d</fix>
</trkpt>
<trkpt lat="-27.274439" lon="151.290064">
  <ele>343.1</ele>
  <time>2026-09-01T19:53:01Z</time>
  <course>270.0</course>
  <speed>0.0</speed>
  <fix>3d</fix>
</trkpt>
<trkpt lat="-27.2744392" lon="151.2900641">
  <ele>343.1</ele>
  <time>2026-09-01T19:53:01Z</time>
  <course>10.92</course>
  <speed>0.022360679774997897</speed>
  <fix>3d</fix>
</trkpt>
<trkpt lat="-27.274439" lon="151.290064">
  <ele>343.1</ele>
  <time>2026-09-01T19:53:01Z</time>
  <course>270.0</course>
  <speed>0.0</speed>
  <fix>3d</fix>
</trkpt>
<trkpt lat="-27.2744392" lon="151.2900641">
  <ele>343.11</ele>
  <time>2026-09-01T19:53:01Z</time>
  <course>10.92</course>
  <speed>0.022360679774997897</speed>
  <fix>3d</fix>
</trkpt>
<trkpt lat="-27.274439" lon="151.290064">
  <ele>343.1</ele>
  <time>2026-09-01T19:53:01Z</time>
  <course>270.0</course>
  <speed>0.0</speed>
  <fix>3d</fix>
</trkpt>
<trkpt lat="-27.2744392" lon="151.2900641">
  <ele>343.11</ele>
  <time>2026-09-01T19:53:01Z</time>
  <course>10.93</course>
  <speed>0.022360679774997897</speed>
  <fix>3d</fix>
</trkpt>
<trkpt lat="-27.274439" lon="151.290064">
  <ele>343.1</ele>
  <time>2026-09-01T19:53:01Z</time>
  <course>270.0</course>
  <speed>0.0</speed>
  <fix>3d</fix>
</trkpt>
<trkpt lat="-27.2744392" lon="151.2900641">
  <ele>343.11</ele>
  <time>2026-09-01T19:53:01Z</time>
  <course>10.93</course>
  <speed>0.022360679774997897</speed>
  <fix>3d</fix>
</trkpt>
<trkpt lat="-27.274439" lon="151.290064">
  <ele>343.1</ele>
  <time>2026-09-01T19:53:01Z</time>
  <course>270.0</course>
  <speed>0.0</speed>
  <fix>3d</fix>
</trkpt>
<trkpt lat="-27.2744392" lon="151.2900641">
  <ele>343.11</ele>
  <time>2026-09-01T19:53:01Z</time>
  <course>10.93</course>
  <speed>0.022360679774997897</speed>
  <fix>3d</fix>
</trkpt>
<trkpt lat="-27.274439" lon="151.290064">
  <ele>343.1</ele>
  <time>2026-09-01T19:53:01Z</time>
  <course>270.0</course>
  <speed>0.0</speed>
  <fix>3d</fix>
</trkpt>
<trkpt lat="-27.2744392" lon="151.2900641">
  <ele>343.11</ele>
  <time>2026-09-01T19:53:01Z</time>
  <course>10.93</course>
  <speed>0.022360679774997897</speed>
  <fix>3d</fix>
</trkpt>
<trkpt lat="-27.274439" lon="151.290064">
  <ele>343.1</ele>
  <time>2026-09-01T19:53:01Z</time>
  <course>270.0</course>
  <speed>0.0</speed>
  <fix>3d</fix>
</trkpt>
<trkpt lat="-27.2744392" lon="151.2900641">
  <ele>343.11</ele>
  <time>2026-09-01T19:53:01Z</time>
  <course>10.93</course>
  <speed>0.022360679774997897</speed>
  <fix>3d</fix>
</trkpt>
<trkpt lat="-27.274439" lon="151.290064">
  <ele>343.1</ele>
  <time>2026-09-01T19:53:01Z</time>
  <course>270.0</course>
  <speed>0.0</speed>
  <fix>3d</fix>
</trkpt>
<trkpt lat="-27.2744392" lon="151.2900641">
  <ele>343.11</ele>
  <time>2026-09-01T19:53:01Z</time>
  <course>10.93</course>
  <speed>0.022360679774997897</speed>
  <fix>3d</fix>
</trkpt>
<trkpt lat="-27.274439" lon="151.290064">
  <ele>343.1</ele>
  <time>2026-09-01T19:53:01Z</time>
  <course>270.0</course>
  <speed>0.0</speed>
  <fix>3d</fix>
</trkpt>
<trkpt lat="-27.2744392" lon="151.2900641">
  <ele>343.11</ele>
  <time>2026-09-01T19:53:01Z</time>
  <course>10.93</course>
  <speed>0.022360679774997897</speed>
  <fix>3d</fix>
</trkpt>
<trkpt lat="-27.274439" lon="151.290064">
  <ele>343.1</ele>
  <time>2026-09-01T19:53:01Z</time>
  <course>270.0</course>
  <speed>0.0</speed>
  <fix>3d</fix>
</trkpt>
<trkpt lat="-27.2744392" lon="151.2900641">
  <ele>343.11</ele>
  <time>2026-09-01T19:53:01Z</time>
  <course>10.93</course>
  <speed>0.022360679774997897</speed>
  <fix>3d</fix>
</trkpt>
<trkpt lat="-27.274439" lon="151.290064">
  <ele>343.1</ele>
  <time>2026-09-01T19:53:01Z</time>
  <course>270.0</course>
  <speed>0.0</speed>
  <fix>3d</fix>
</trkpt>
<trkpt lat="-27.2744392" lon="151.2900641">
  <ele>343.11</ele>
  <time>2026-09-01T19:53:01Z</time>
  <course>10.93</course>
  <speed>0.022360679774997897</speed>
  <fix>3d</fix>
</trkpt>
<trkpt lat="-27.274439" lon="151.290064">
  <ele>343.1</ele>
  <time>2026-09-01T19:53:01Z</time>
  <course>270.0</course>
  <speed>0.0</speed>
  <fix>3d</fix>
</trkpt>
<trkpt lat="-27.2744392" lon="151.2900641">
  <ele>343.11</ele>
  <time>2026-09-01T19:53:01Z</time>
  <course>10.93</course>
  <speed>0.022360679774997897</speed>
  <fix>3d</fix>
</trkpt>
<trkpt lat="-27.274439" lon="151.290064">
  <ele>343.1</ele>
  <time>2026-09-01T19:53:01Z</time>
  <course>270.0</course>
  <speed>0.0</speed>
  <fix>3d</fix>
</trkpt>
<trkpt lat="-27.2744392" lon="151.2900641">
  <ele>343.11</ele>
  <time>2026-09-01T19:53:01Z</time>
  <course>10.93</course>
  <speed>0.022360679774997897</speed>
  <fix>3d</fix>
</trkpt>
<trkpt lat="-27.274439" lon="151.290064">
  <ele>343.1</ele>
  <time>2026-09-01T19:53:01Z</time>
  <course>270.0</course>
  <speed>0.0</speed>
  <fix>3d</fix>
</trkpt>
<trkpt lat="-27.2744392" lon="151.2900641">
  <ele>343.11</ele>
  <time>2026-09-01T19:53:01Z</time>
  <course>10.93</course>
  <speed>0.022360679774997897</speed>
  <fix>3d</fix>
</trkpt>
<trkpt lat="-27.274439" lon="151.290064">
  <ele>343.1</ele>
  <time>2026-09-01T19:53:01Z</time>
  <course>270.0</course>
  <speed>0.0</speed>
  <fix>3d</fix>
</trkpt>
<trkpt lat="-27.2744392" lon="151.2900641">
  <ele>343.11</ele>
  <time>2026-09-01T19:53:01Z</time>
  <course>10.94</course>
  <speed>0.022360679774997897</speed>
  <fix>3d</fix>
</trkpt>
<trkpt lat="-27.274439" lon="151.290064">
  <ele>343.1</ele>
  <time>2026-09-01T19:53:01Z</time>
  <course>270.0</course>
  <speed>0.0</speed>
  <fix>3d</fix>
</trkpt>
<trkpt lat="-27.2744392" lon="151.2900641">
  <ele>343.11</ele>
  <time>2026-09-01T19:53:01Z</time>
  <course>10.94</course>
  <speed>0.022360679774997897</speed>
  <fix>3d</fix>
</trkpt>
<trkpt lat="-27.274439" lon="151.290064">
  <ele>343.1</ele>
  <time>2026-09-01T19:53:01Z</time>
  <course>270.0</course>
  <speed>0.0</speed>
  <fix>3d</fix>
</trkpt>
<trkpt lat="-27.2744392" lon="151.2900641">
  <ele>343.1</ele>
  <time>2026-09-01T19:53:01Z</time>
  <course>10.94</course>
  <speed>0.022360679774997897</speed>
  <fix>3d</fix>
</trkpt>
<trkpt lat="-27.274439" lon="151.290064">
  <ele>343.1</ele>
  <time>2026-09-01T19:53:01Z</time>
  <course>270.0</course>
  <speed>0.0</speed>
  <fix>3d</fix>
</trkpt>
<trkpt lat="-27.2744392" lon="151.2900641">
  <ele>343.1</ele>
  <time>2026-09-01T19:53:01Z</time>
  <course>10.94</course>
  <speed>0.022360679774997897</speed>
  <fix>3d</fix>
</trkpt>
<trkpt lat="-27.274439" lon="151.290064">
  <ele>343.1</ele>
  <time>2026-09-01T19:53:01Z</time>
  <course>270.0</course>
  <speed>0.0</speed>
  <fix>3d</fix>
</trkpt>
<trkpt lat="-27.2744392" lon="151.2900641">
  <ele>343.1</ele>
  <time>2026-09-01T19:53:01Z</time>
  <course>10.94</course>
  <speed>0.022360679774997897</speed>
  <fix>3d</fix>
</trkpt>
<trkpt lat="-27.274439" lon="151.290064">
  <ele>343.1</ele>
  <time>2026-09-01T19:53:01Z</time>
  <course>270.0</course>
  <speed>0.0</speed>
  <fix>3d</fix>
</trkpt>
<trkpt lat="-27.2744392" lon="151.2900641">
  <ele>343.1</ele>
  <time>2026-09-01T19:53:01Z</time>
  <course>10.94</course>
  <speed>0.022360679774997897</speed>
  <fix>3d</fix>
</trkpt>
<trkpt lat="-27.274439" lon="151.290064">
  <ele>343.1</ele>
  <time>2026-09-01T19:53:01Z</time>
  <course>270.0</course>
  <speed>0.0</speed>
  <fix>3d</fix>
</trkpt>
<trkpt lat="-27.2744392" lon="151.2900641">
  <ele>343.09</ele>
  <time>2026-09-01T19:53:01Z</time>
  <course>10.94</course>
  <speed>0.022360679774997897</speed>
  <fix>3d</fix>
</trkpt>
<trkpt lat="-27.274439" lon="151.290064">
  <ele>343.1</ele>
  <time>2026-09-01T19:53:01Z</time>
  <course>270.0</course>
  <speed>0.0</speed>
  <fix>3d</fix>
</trkpt>
<trkpt lat="-27.2744392" lon="151.2900641">
  <ele>343.09</ele>
  <time>2026-09-01T19:53:01Z</time>
  <course>10.94</course>
  <speed>0.022360679774997897</speed>
  <fix>3d</fix>
</trkpt>
<trkpt lat="-27.274439" lon="151.290064">
  <ele>343.1</ele>
  <time>2026-09-01T19:53:01Z</time>
  <course>270.0</course>
  <speed>0.0</speed>
  <fix>3d</fix>
</trkpt>
<trkpt lat="-27.2744392" lon="151.2900641">
  <ele>343.09</ele>
  <time>2026-09-01T19:53:01Z</time>
  <course>10.94</course>
  <speed>0.022360679774997897</speed>
  <fix>3d</fix>
</trkpt>
<trkpt lat="-27.274439" lon="151.290064">
  <ele>343.1</ele>
  <time>2026-09-01T19:53:01Z</time>
  <course>270.0</course>
  <speed>0.0</speed>
  <fix>3d</fix>
</trkpt>
<trkpt lat="-27.2744392" lon="151.2900641">
  <ele>343.09</ele>
  <time>2026-09-01T19:53:01Z</time>
  <course>10.94</course>
  <speed>0.022360679774997897</speed>
  <fix>3d</fix>
</trkpt>
<trkpt lat="-27.274439" lon="151.290064">
  <ele>343.1</ele>
  <time>2026-09-01T19:53:01Z</time>
  <course>270.0</course>
  <speed>0.0</speed>
  <fix>3d</fix>
</trkpt>
<trkpt lat="-27.2744392" lon="151.2900641">
  <ele>343.09</ele>
  <time>2026-09-01T19:53:01Z</time>
  <course>10.94</course>
  <speed>0.022360679774997897</speed>
  <fix>3d</fix>
</trkpt>
<trkpt lat="-27.274439" lon="151.290064">
  <ele>343.1</ele>
  <time>2026-09-01T19:53:01Z</time>
  <course>270.0</course>
  <speed>0.0</speed>
  <fix>3d</fix>
</trkpt>
<trkpt lat="-27.2744392" lon="151.2900641">
  <ele>343.09</ele>
  <time>2026-09-01T19:53:01Z</time>
  <course>10.95</course>
  <speed>0.022360679774997897</speed>
  <fix>3d</fix>
</trkpt>
<trkpt lat="-27.274439" lon="151.290064">
  <ele>343.1</ele>
  <time>2026-09-01T19:53:01Z</time>
  <course>270.0</course>
  <speed>0.0</speed>
  <fix>3d</fix>
</trkpt>
<trkpt lat="-27.2744392" lon="151.2900641">
  <ele>343.09</ele>
  <time>2026-09-01T19:53:01Z</time>
  <course>10.95</course>
  <speed>0.022360679774997897</speed>
  <fix>3d</fix>
</trkpt>
<trkpt lat="-27.274439" lon="151.290064">
  <ele>343.1</ele>
  <time>2026-09-01T19:53:01Z</time>
  <course>270.0</course>
  <speed>0.0</speed>
  <fix>3d</fix>
</trkpt>
<trkpt lat="-27.2744392" lon="151.2900641">
  <ele>343.09</ele>
  <time>2026-09-01T19:53:01Z</time>
  <course>10.95</course>
  <speed>0.022360679774997897</speed>
  <fix>3d</fix>
</trkpt>
<trkpt lat="-27.274439" lon="151.290064">
  <ele>343.1</ele>
  <time>2026-09-01T19:53:01Z</time>
  <course>270.0</course>
  <speed>0.0</speed>
  <fix>3d</fix>
</trkpt>
<trkpt lat="-27.2744392" lon="151.2900641">
  <ele>343.08</ele>
  <time>2026-09-01T19:53:01Z</time>
  <course>10.95</course>
  <speed>0.022360679774997897</speed>
  <fix>3d</fix>
</trkpt>
<trkpt lat="-27.274439" lon="151.290064">
  <ele>343.1</ele>
  <time>2026-09-01T19:53:01Z</time>
  <course>270.0</course>
  <speed>0.0</speed>
  <fix>3d</fix>
</trkpt>
<trkpt lat="-27.2744392" lon="151.2900641">
  <ele>343.08</ele>
  <time>2026-09-01T19:53:01Z</time>
  <course>10.95</course>
  <speed>0.022360679774997897</speed>
  <fix>3d</fix>
</trkpt>
<trkpt lat="-27.274439" lon="151.290064">
  <ele>343.1</ele>
  <time>2026-09-01T19:53:01Z</time>
  <course>270.0</course>
  <speed>0.0</speed>
  <fix>3d</fix>
</trkpt>
<trkpt lat="-27.2744392" lon="151.2900641">
  <ele>343.08</ele>
  <time>2026-09-01T19:53:01Z</time>
  <course>10.95</course>
  <speed>0.022360679774997897</speed>
  <fix>3d</fix>
</trkpt>
<trkpt lat="-27.274439" lon="151.290064">
  <ele>343.1</ele>
  <time>2026-09-01T19:53:01Z</time>
  <course>270.0</course>
  <speed>0.0</speed>
  <fix>3d</fix>
</trkpt>
<trkpt lat="-27.2744392" lon="151.2900641">
  <ele>343.08</ele>
  <time>2026-09-01T19:53:01Z</time>
  <course>10.95</course>
  <speed>0.022360679774997897</speed>
  <fix>3d</fix>
</trkpt>
<trkpt lat="-27.274439" lon="151.290064">
  <ele>343.1</ele>
  <time>2026-09-01T19:53:01Z</time>
  <course>270.0</course>
  <speed>0.0</speed>
  <fix>3d</fix>
</trkpt>
<trkpt lat="-27.2744392" lon="151.2900641">
  <ele>343.09</ele>
  <time>2026-09-01T19:53:01Z</time>
  <course>10.95</course>
  <speed>0.022360679774997897</speed>
  <fix>3d</fix>
</trkpt>
<trkpt lat="-27.274439" lon="151.290064">
  <ele>343.1</ele>
  <time>2026-09-01T19:53:01Z</time>
  <course>270.0</course>
  <speed>0.0</speed>
  <fix>3d</fix>
</trkpt>
<trkpt lat="-27.2744392" lon="151.2900641">
  <ele>343.09</ele>
  <time>2026-09-01T19:53:01Z</time>
  <course>10.95</course>
  <speed>0.022360679774997897</speed>
  <fix>3d</fix>
</trkpt>
<trkpt lat="-27.274439" lon="151.290064">
  <ele>343.1</ele>
  <time>2026-09-01T19:53:01Z</time>
  <course>270.0</course>
  <speed>0.0</speed>
  <fix>3d</fix>
</trkpt>
<trkpt lat="-27.2744392" lon="151.2900641">
  <ele>343.09</ele>
  <time>2026-09-01T19:53:01Z</time>
  <course>10.95</course>
  <speed>0.022360679774997897</speed>
  <fix>3d</fix>
</trkpt>
<trkpt lat="-27.274439" lon="151.290064">
  <ele>343.1</ele>
  <time>2026-09-01T19:53:01Z</time>
  <course>270.0</course>
  <speed>0.0</speed>
  <fix>3d</fix>
</trkpt>
<trkpt lat="-27.2744392" lon="151.2900641">
  <ele>343.09</ele>
  <time>2026-09-01T19:53:01Z</time>
  <course>10.95</course>
  <speed>0.022360679774997897</speed>
  <fix>3d</fix>
</trkpt>
<trkpt lat="-27.274439" lon="151.290064">
  <ele>343.1</ele>
  <time>2026-09-01T19:53:01Z</time>
  <course>270.0</course>
  <speed>0.0</speed>
  <fix>3d</fix>
</trkpt>
<trkpt lat="-27.2744392" lon="151.2900641">
  <ele>343.09</ele>
  <time>2026-09-01T19:53:01Z</time>
  <course>10.95</course>
  <speed>0.022360679774997897</speed>
  <fix>3d</fix>
</trkpt>
<trkpt lat="-27.274439" lon="151.290064">
  <ele>343.1</ele>
  <time>2026-09-01T19:53:01Z</time>
  <course>270.0</course>
  <speed>0.0</speed>
  <fix>3d</fix>
</trkpt>
<trkpt lat="-27.2744392" lon="151.2900641">
  <ele>343.09</ele>
  <time>2026-09-01T19:53:01Z</time>
  <course>10.96</course>
  <speed>0.022360679774997897</speed>
  <fix>3d</fix>
</trkpt>
<trkpt lat="-27.274439" lon="151.290064">
  <ele>343.1</ele>
  <time>2026-09-01T19:53:01Z</time>
  <course>270.0</course>
  <speed>0.0</speed>
  <fix>3d</fix>
</trkpt>
<trkpt lat="-27.2744392" lon="151.2900641">
  <ele>343.09</ele>
  <time>2026-09-01T19:53:01Z</time>
  <course>10.96</course>
  <speed>0.022360679774997897</speed>
  <fix>3d</fix>
</trkpt>
<trkpt lat="-27.274439" lon="151.290064">
  <ele>343.1</ele>
  <time>2026-09-01T19:53:01Z</time>
  <course>270.0</course>
  <speed>0.0</speed>
  <fix>3d</fix>
</trkpt>
<trkpt lat="-27.2744392" lon="151.2900641">
  <ele>343.09</ele>
  <time>2026-09-01T19:53:01Z</time>
  <course>10.96</course>
  <speed>0.022360679774997897</speed>
  <fix>3d</fix>
</trkpt>
<trkpt lat="-27.274439" lon="151.290064">
  <ele>343.1</ele>
  <time>2026-09-01T19:53:01Z</time>
  <course>270.0</course>
  <speed>0.0</speed>
  <fix>3d</fix>
</trkpt>
<trkpt lat="-27.2744392" lon="151.2900641">
  <ele>343.09</ele>
  <time>2026-09-01T19:53:01Z</time>
  <course>10.96</course>
  <speed>0.022360679774997897</speed>
  <fix>3d</fix>
</trkpt>
<trkpt lat="-27.274439" lon="151.290064">
  <ele>343.1</ele>
  <time>2026-09-01T19:53:01Z</time>
  <course>270.0</course>
  <speed>0.0</speed>
  <fix>3d</fix>
</trkpt>
<trkpt lat="-27.2744392" lon="151.2900641">
  <ele>343.09</ele>
  <time>2026-09-01T19:53:01Z</time>
  <course>10.96</course>
  <speed>0.022360679774997897</speed>
  <fix>3d</fix>
</trkpt>
<trkpt lat="-27.274439" lon="151.290064">
  <ele>343.1</ele>
  <time>2026-09-01T19:53:01Z</time>
  <course>270.0</course>
  <speed>0.0</speed>
  <fix>3d</fix>
</trkpt>
<trkpt lat="-27.2744392" lon="151.2900641">
  <ele>343.09</ele>
  <time>2026-09-01T19:53:01Z</time>
  <course>10.96</course>
  <speed>0.022360679774997897</speed>
  <fix>3d</fix>
</trkpt>
<trkpt lat="-27.274439" lon="151.290064">
  <ele>343.1</ele>
  <time>2026-09-01T19:53:01Z</time>
  <course>270.0</course>
  <speed>0.0</speed>
  <fix>3d</fix>
</trkpt>
<trkpt lat="-27.2744392" lon="151.2900641">
  <ele>343.09</ele>
  <time>2026-09-01T19:53:01Z</time>
  <course>10.96</course>
  <speed>0.022360679774997897</speed>
  <fix>3d</fix>
</trkpt>
<trkpt lat="-27.274439" lon="151.290064">
  <ele>343.1</ele>
  <time>2026-09-01T19:53:01Z</time>
  <course>270.0</course>
  <speed>0.0</speed>
  <fix>3d</fix>
</trkpt>
<trkpt lat="-27.2744392" lon="151.2900641">
  <ele>343.1</ele>
  <time>2026-09-01T19:53:01Z</time>
  <course>10.96</course>
  <speed>0.022360679774997897</speed>
  <fix>3d</fix>
</trkpt>
<trkpt lat="-27.274439" lon="151.290064">
  <ele>343.1</ele>
  <time>2026-09-01T19:53:01Z</time>
  <course>270.0</course>
  <speed>0.0</speed>
  <fix>3d</fix>
</trkpt>
<trkpt lat="-27.2744392" lon="151.2900641">
  <ele>343.1</ele>
  <time>2026-09-01T19:53:01Z</time>
  <course>10.96</course>
  <speed>0.022360679774997897</speed>
  <fix>3d</fix>
</trkpt>
<trkpt lat="-27.274439" lon="151.290064">
  <ele>343.1</ele>
  <time>2026-09-01T19:53:01Z</time>
  <course>270.0</course>
  <speed>0.0</speed>
  <fix>3d</fix>
</trkpt>
<trkpt lat="-27.2744392" lon="151.2900641">
  <ele>343.1</ele>
  <time>2026-09-01T19:53:01Z</time>
  <course>10.96</course>
  <speed>0.022360679774997897</speed>
  <fix>3d</fix>
</trkpt>
<trkpt lat="-27.274439" lon="151.290064">
  <ele>343.1</ele>
  <time>2026-09-01T19:53:01Z</time>
  <course>270.0</course>
  <speed>0.0</speed>
  <fix>3d</fix>
</trkpt>
<trkpt lat="-27.2744392" lon="151.2900641">
  <ele>343.1</ele>
  <time>2026-09-01T19:53:01Z</time>
  <course>10.96</course>
  <speed>0.022360679774997897</speed>
  <fix>3d</fix>
</trkpt>
<trkpt lat="-27.274439" lon="151.290064">
  <ele>343.1</ele>
  <time>2026-09-01T19:53:01Z</time>
  <course>270.0</course>
  <speed>0.0</speed>
  <fix>3d</fix>
</trkpt>
<trkpt lat="-27.2744392" lon="151.2900641">
  <ele>343.1</ele>
  <time>2026-09-01T19:53:01Z</time>
  <course>10.96</course>
  <speed>0.022360679774997897</speed>
  <fix>3d</fix>
</trkpt>
<trkpt lat="-27.274439" lon="151.290064">
  <ele>343.1</ele>
  <time>2026-09-01T19:53:01Z</time>
  <course>270.0</course>
  <speed>0.0</speed>
  <fix>3d</fix>
</trkpt>
<trkpt lat="-27.2744392" lon="151.2900641">
  <ele>343.1</ele>
  <time>2026-09-01T19:53:01Z</time>
  <course>10.97</course>
  <speed>0.022360679774997897</speed>
  <fix>3d</fix>
</trkpt>
<trkpt lat="-27.274439" lon="151.290064">
  <ele>343.1</ele>
  <time>2026-09-01T19:53:01Z</time>
  <course>270.0</course>
  <speed>0.0</speed>
  <fix>3d</fix>
</trkpt>
<trkpt lat="-27.2744392" lon="151.2900641">
  <ele>343.09</ele>
  <time>2026-09-01T19:53:01Z</time>
  <course>10.97</course>
  <speed>0.022360679774997897</speed>
  <fix>3d</fix>
</trkpt>
<trkpt lat="-27.274439" lon="151.290064">
  <ele>343.1</ele>
  <time>2026-09-01T19:53:01Z</time>
  <course>270.0</course>
  <speed>0.0</speed>
  <fix>3d</fix>
</trkpt>
<trkpt lat="-27.2744392" lon="151.2900641">
  <ele>343.09</ele>
  <time>2026-09-01T19:53:01Z</time>
  <course>10.97</course>
  <speed>0.022360679774997897</speed>
  <fix>3d</fix>
</trkpt>
<trkpt lat="-27.274439" lon="151.290064">
  <ele>343.1</ele>
  <time>2026-09-01T19:53:01Z</time>
  <course>270.0</course>
  <speed>0.0</speed>
  <fix>3d</fix>
</trkpt>
<trkpt lat="-27.2744392" lon="151.2900641">
  <ele>343.09</ele>
  <time>2026-09-01T19:53:01Z</time>
  <course>10.97</course>
  <speed>0.022360679774997897</speed>
  <fix>3d</fix>
</trkpt>
<trkpt lat="-27.274439" lon="151.290064">
  <ele>343.1</ele>
  <time>2026-09-01T19:53:01Z</time>
  <course>270.0</course>
  <speed>0.0</speed>
  <fix>3d</fix>
</trkpt>
<trkpt lat="-27.2744392" lon="151.2900641">
  <ele>343.09</ele>
  <time>2026-09-01T19:53:01Z</time>
  <course>10.97</course>
  <speed>0.022360679774997897</speed>
  <fix>3d</fix>
</trkpt>
<trkpt lat="-27.274439" lon="151.290064">
  <ele>343.1</ele>
  <time>2026-09-01T19:53:01Z</time>
  <course>270.0</course>
  <speed>0.0</speed>
  <fix>3d</fix>
</trkpt>
<trkpt lat="-27.2744392" lon="151.2900641">
  <ele>343.1</ele>
  <time>2026-09-01T19:53:01Z</time>
  <course>10.97</course>
  <speed>0.022360679774997897</speed>
  <fix>3d</fix>
</trkpt>
<trkpt lat="-27.274439" lon="151.290064">
  <ele>343.1</ele>
  <time>2026-09-01T19:53:01Z</time>
  <course>270.0</course>
  <speed>0.0</speed>
  <fix>3d</fix>
</trkpt>
<trkpt lat="-27.2744392" lon="151.2900641">
  <ele>343.09</ele>
  <time>2026-09-01T19:53:01Z</time>
  <course>10.97</course>
  <speed>0.022360679774997897</speed>
  <fix>3d</fix>
</trkpt>
<trkpt lat="-27.274439" lon="151.290064">
  <ele>343.1</ele>
  <time>2026-09-01T19:53:01Z</time>
  <course>270.0</course>
  <speed>0.0</speed>
  <fix>3d</fix>
</trkpt>
<trkpt lat="-27.2744392" lon="151.2900641">
  <ele>343.09</ele>
  <time>2026-09-01T19:53:01Z</time>
  <course>10.97</course>
  <speed>0.022360679774997897</speed>
  <fix>3d</fix>
</trkpt>
<trkpt lat="-27.274439" lon="151.290064">
  <ele>343.1</ele>
  <time>2026-09-01T19:53:01Z</time>
  <course>270.0</course>
  <speed>0.0</speed>
  <fix>3d</fix>
</trkpt>
<trkpt lat="-27.2744392" lon="151.2900641">
  <ele>343.09</ele>
  <time>2026-09-01T19:53:01Z</time>
  <course>10.97</course>
  <speed>0.022360679774997897</speed>
  <fix>3d</fix>
</trkpt>
<trkpt lat="-27.274439" lon="151.290064">
  <ele>343.1</ele>
  <time>2026-09-01T19:53:01Z</time>
  <course>270.0</course>
  <speed>0.0</speed>
  <fix>3d</fix>
</trkpt>
<trkpt lat="-27.2744392" lon="151.2900641">
  <ele>343.09</ele>
  <time>2026-09-01T19:53:01Z</time>
  <course>10.97</course>
  <speed>0.022360679774997897</speed>
  <fix>3d</fix>
</trkpt>
<trkpt lat="-27.274439" lon="151.290064">
  <ele>343.1</ele>
  <time>2026-09-01T19:53:01Z</time>
  <course>270.0</course>
  <speed>0.0</speed>
  <fix>3d</fix>
</trkpt>
<trkpt lat="-27.2744392" lon="151.2900641">
  <ele>343.09</ele>
  <time>2026-09-01T19:53:01Z</time>
  <course>10.97</course>
  <speed>0.022360679774997897</speed>
  <fix>3d</fix>
</trkpt>
<trkpt lat="-27.274439" lon="151.290064">
  <ele>343.1</ele>
  <time>2026-09-01T19:53:01Z</time>
  <course>270.0</course>
  <speed>0.0</speed>
  <fix>3d</fix>
</trkpt>
<trkpt lat="-27.2744392" lon="151.2900641">
  <ele>343.09</ele>
  <time>2026-09-01T19:53:01Z</time>
  <course>10.98</course>
  <speed>0.022360679774997897</speed>
  <fix>3d</fix>
</trkpt>
<trkpt lat="-27.274439" lon="151.290064">
  <ele>343.1</ele>
  <time>2026-09-01T19:53:01Z</time>
  <course>270.0</course>
  <speed>0.0</speed>
  <fix>3d</fix>
</trkpt>
<trkpt lat="-27.2744392" lon="151.2900641">
  <ele>343.09</ele>
  <time>2026-09-01T19:53:01Z</time>
  <course>10.98</course>
  <speed>0.022360679774997897</speed>
  <fix>3d</fix>
</trkpt>
<trkpt lat="-27.274439" lon="151.290064">
  <ele>343.1</ele>
  <time>2026-09-01T19:53:01Z</time>
  <course>270.0</course>
  <speed>0.0</speed>
  <fix>3d</fix>
</trkpt>
<trkpt lat="-27.2744392" lon="151.2900641">
  <ele>343.09</ele>
  <time>2026-09-01T19:53:01Z</time>
  <course>10.98</course>
  <speed>0.022360679774997897</speed>
  <fix>3d</fix>
</trkpt>
<trkpt lat="-27.274439" lon="151.290064">
  <ele>343.1</ele>
  <time>2026-09-01T19:53:01Z</time>
  <course>270.0</course>
  <speed>0.0</speed>
  <fix>3d</fix>
</trkpt>
<trkpt lat="-27.2744392" lon="151.2900641">
  <ele>343.08</ele>
  <time>2026-09-01T19:53:01Z</time>
  <course>10.98</course>
  <speed>0.022360679774997897</speed>
  <fix>3d</fix>
</trkpt>
<trkpt lat="-27.274439" lon="151.290064">
  <ele>343.1</ele>
  <time>2026-09-01T19:53:01Z</time>
  <course>270.0</course>
  <speed>0.0</speed>
  <fix>3d</fix>
</trkpt>
<trkpt lat="-27.2744392" lon="151.2900641">
  <ele>343.08</ele>
  <time>2026-09-01T19:53:01Z</time>
  <course>10.98</course>
  <speed>0.022360679774997897</speed>
  <fix>3d</fix>
</trkpt>
<trkpt lat="-27.274439" lon="151.290064">
  <ele>343.1</ele>
  <time>2026-09-01T19:53:01Z</time>
  <course>270.0</course>
  <speed>0.0</speed>
  <fix>3d</fix>
</trkpt>
<trkpt lat="-27.2744392" lon="151.2900641">
  <ele>343.08</ele>
  <time>2026-09-01T19:53:01Z</time>
  <course>10.98</course>
  <speed>0.022360679774997897</speed>
  <fix>3d</fix>
</trkpt>
<trkpt lat="-27.274439" lon="151.290064">
  <ele>343.1</ele>
  <time>2026-09-01T19:53:01Z</time>
  <course>270.0</course>
  <speed>0.0</speed>
  <fix>3d</fix>
</trkpt>
<trkpt lat="-27.2744392" lon="151.2900641">
  <ele>343.08</ele>
  <time>2026-09-01T19:53:01Z</time>
  <course>10.98</course>
  <speed>0.022360679774997897</speed>
  <fix>3d</fix>
</trkpt>
<trkpt lat="-27.274439" lon="151.290064">
  <ele>343.1</ele>
  <time>2026-09-01T19:53:01Z</time>
  <course>270.0</course>
  <speed>0.0</speed>
  <fix>3d</fix>
</trkpt>
<trkpt lat="-27.2744392" lon="151.2900641">
  <ele>343.08</ele>
  <time>2026-09-01T19:53:01Z</time>
  <course>10.98</course>
  <speed>0.022360679774997897</speed>
  <fix>3d</fix>
</trkpt>
<trkpt lat="-27.274439" lon="151.290064">
  <ele>343.1</ele>
  <time>2026-09-01T19:53:01Z</time>
  <course>270.0</course>
  <speed>0.0</speed>
  <fix>3d</fix>
</trkpt>
<trkpt lat="-27.2744392" lon="151.2900641">
  <ele>343.08</ele>
  <time>2026-09-01T19:53:01Z</time>
  <course>10.98</course>
  <speed>0.022360679774997897</speed>
  <fix>3d</fix>
</trkpt>
<trkpt lat="-27.274439" lon="151.290064">
  <ele>343.1</ele>
  <time>2026-09-01T19:53:01Z</time>
  <course>270.0</course>
  <speed>0.0</speed>
  <fix>3d</fix>
</trkpt>
<trkpt lat="-27.2744392" lon="151.2900641">
  <ele>343.07</ele>
  <time>2026-09-01T19:53:01Z</time>
  <course>10.98</course>
  <speed>0.022360679774997897</speed>
  <fix>3d</fix>
</trkpt>
<trkpt lat="-27.274439" lon="151.290064">
  <ele>343.1</ele>
  <time>2026-09-01T19:53:01Z</time>
  <course>270.0</course>
  <speed>0.0</speed>
  <fix>3d</fix>
</trkpt>
<trkpt lat="-27.2744392" lon="151.2900641">
  <ele>343.07</ele>
  <time>2026-09-01T19:53:01Z</time>
  <course>10.98</course>
  <speed>0.022360679774997897</speed>
  <fix>3d</fix>
</trkpt>
<trkpt lat="-27.274439" lon="151.290064">
  <ele>343.1</ele>
  <time>2026-09-01T19:53:01Z</time>
  <course>270.0</course>
  <speed>0.0</speed>
  <fix>3d</fix>
</trkpt>
<trkpt lat="-27.2744392" lon="151.2900641">
  <ele>343.07</ele>
  <time>2026-09-01T19:53:01Z</time>
  <course>10.99</course>
  <speed>0.022360679774997897</speed>
  <fix>3d</fix>
</trkpt>
<trkpt lat="-27.274439" lon="151.290064">
  <ele>343.1</ele>
  <time>2026-09-01T19:53:01Z</time>
  <course>270.0</course>
  <speed>0.0</speed>
  <fix>3d</fix>
</trkpt>
<trkpt lat="-27.2744392" lon="151.2900641">
  <ele>343.07</ele>
  <time>2026-09-01T19:53:01Z</time>
  <course>10.99</course>
  <speed>0.022360679774997897</speed>
  <fix>3d</fix>
</trkpt>
<trkpt lat="-27.274439" lon="151.290064">
  <ele>343.1</ele>
  <time>2026-09-01T19:53:01Z</time>
  <course>270.0</course>
  <speed>0.0</speed>
  <fix>3d</fix>
</trkpt>
<trkpt lat="-27.2744392" lon="151.2900641">
  <ele>343.07</ele>
  <time>2026-09-01T19:53:01Z</time>
  <course>10.99</course>
  <speed>0.022360679774997897</speed>
  <fix>3d</fix>
</trkpt>
<trkpt lat="-27.274439" lon="151.290064">
  <ele>343.1</ele>
  <time>2026-09-01T19:53:01Z</time>
  <course>270.0</course>
  <speed>0.0</speed>
  <fix>3d</fix>
</trkpt>
<trkpt lat="-27.2744392" lon="151.2900641">
  <ele>343.07</ele>
  <time>2026-09-01T19:53:01Z</time>
  <course>10.99</course>
  <speed>0.022360679774997897</speed>
  <fix>3d</fix>
</trkpt>
<trkpt lat="-27.274439" lon="151.290064">
  <ele>343.1</ele>
  <time>2026-09-01T19:53:01Z</time>
  <course>270.0</course>
  <speed>0.0</speed>
  <fix>3d</fix>
</trkpt>
<trkpt lat="-27.2744392" lon="151.2900641">
  <ele>343.07</ele>
  <time>2026-09-01T19:53:01Z</time>
  <course>10.99</course>
  <speed>0.022360679774997897</speed>
  <fix>3d</fix>
</trkpt>
<trkpt lat="-27.274439" lon="151.290064">
  <ele>343.1</ele>
  <time>2026-09-01T19:53:01Z</time>
  <course>270.0</course>
  <speed>0.0</speed>
  <fix>3d</fix>
</trkpt>
<trkpt lat="-27.2744392" lon="151.2900641">
  <ele>343.07</ele>
  <time>2026-09-01T19:53:01Z</time>
  <course>10.99</course>
  <speed>0.022360679774997897</speed>
  <fix>3d</fix>
</trkpt>
<trkpt lat="-27.274439" lon="151.290064">
  <ele>343.1</ele>
  <time>2026-09-01T19:53:01Z</time>
  <course>270.0</course>
  <speed>0.0</speed>
  <fix>3d</fix>
</trkpt>
<trkpt lat="-27.2744392" lon="151.2900641">
  <ele>343.07</ele>
  <time>2026-09-01T19:53:01Z</time>
  <course>10.99</course>
  <speed>0.022360679774997897</speed>
  <fix>3d</fix>
</trkpt>
<trkpt lat="-27.274439" lon="151.290064">
  <ele>343.1</ele>
  <time>2026-09-01T19:53:01Z</time>
  <course>270.0</course>
  <speed>0.0</speed>
  <fix>3d</fix>
</trkpt>
<trkpt lat="-27.2744392" lon="151.2900641">
  <ele>343.07</ele>
  <time>2026-09-01T19:53:01Z</time>
  <course>10.99</course>
  <speed>0.022360679774997897</speed>
  <fix>3d</fix>
</trkpt>
<trkpt lat="-27.274439" lon="151.290064">
  <ele>343.1</ele>
  <time>2026-09-01T19:53:01Z</time>
  <course>270.0</course>
  <speed>0.0</speed>
  <fix>3d</fix>
</trkpt>
<trkpt lat="-27.2744392" lon="151.2900641">
  <ele>343.06</ele>
  <time>2026-09-01T19:53:01Z</time>
  <course>10.99</course>
  <speed>0.022360679774997897</speed>
  <fix>3d</fix>
</trkpt>
<trkpt lat="-27.274439" lon="151.290064">
  <ele>343.1</ele>
  <time>2026-09-01T19:53:01Z</time>
  <course>270.0</course>
  <speed>0.0</speed>
  <fix>3d</fix>
</trkpt>
<trkpt lat="-27.2744392" lon="151.2900641">
  <ele>343.06</ele>
  <time>2026-09-01T19:53:01Z</time>
  <course>10.99</course>
  <speed>0.022360679774997897</speed>
  <fix>3d</fix>
</trkpt>
<trkpt lat="-27.274439" lon="151.290064">
  <ele>343.1</ele>
  <time>2026-09-01T19:53:01Z</time>
  <course>270.0</course>
  <speed>0.0</speed>
  <fix>3d</fix>
</trkpt>
<trkpt lat="-27.2744392" lon="151.2900641">
  <ele>343.06</ele>
  <time>2026-09-01T19:53:01Z</time>
  <course>10.99</course>
  <speed>0.022360679774997897</speed>
  <fix>3d</fix>
</trkpt>
<trkpt lat="-27.274439" lon="151.290064">
  <ele>343.1</ele>
  <time>2026-09-01T19:53:01Z</time>
  <course>270.0</course>
  <speed>0.0</speed>
  <fix>3d</fix>
</trkpt>
<trkpt lat="-27.2744392" lon="151.2900641">
  <ele>343.06</ele>
  <time>2026-09-01T19:53:01Z</time>
  <course>11.0</course>
  <speed>0.022360679774997897</speed>
  <fix>3d</fix>
</trkpt>
<trkpt lat="-27.274439" lon="151.290064">
  <ele>343.1</ele>
  <time>2026-09-01T19:53:01Z</time>
  <course>270.0</course>
  <speed>0.0</speed>
  <fix>3d</fix>
</trkpt>
<trkpt lat="-27.2744392" lon="151.2900641">
  <ele>343.06</ele>
  <time>2026-09-01T19:53:01Z</time>
  <course>11.0</course>
  <speed>0.022360679774997897</speed>
  <fix>3d</fix>
</trkpt>
<trkpt lat="-27.274439" lon="151.290064">
  <ele>343.1</ele>
  <time>2026-09-01T19:53:01Z</time>
  <course>270.0</course>
  <speed>0.0</speed>
  <fix>3d</fix>
</trkpt>
<trkpt lat="-27.2744392" lon="151.2900641">
  <ele>343.06</ele>
  <time>2026-09-01T19:53:01Z</time>
  <course>11.0</course>
  <speed>0.022360679774997897</speed>
  <fix>3d</fix>
</trkpt>
<trkpt lat="-27.274439" lon="151.290064">
  <ele>343.1</ele>
  <time>2026-09-01T19:53:01Z</time>
  <course>270.0</course>
  <speed>0.0</speed>
  <fix>3d</fix>
</trkpt>
<trkpt lat="-27.2744392" lon="151.2900641">
  <ele>343.06</ele>
  <time>2026-09-01T19:53:01Z</time>
  <course>11.0</course>
  <speed>0.022360679774997897</speed>
  <fix>3d</fix>
</trkpt>
<trkpt lat="-27.274439" lon="151.290064">
  <ele>343.1</ele>
  <time>2026-09-01T19:53:01Z</time>
  <course>270.0</course>
  <speed>0.0</speed>
  <fix>3d</fix>
</trkpt>
<trkpt lat="-27.2744392" lon="151.2900641">
  <ele>343.05</ele>
  <time>2026-09-01T19:53:01Z</time>
  <course>11.0</course>
  <speed>0.022360679774997897</speed>
  <fix>3d</fix>
</trkpt>
<trkpt lat="-27.274439" lon="151.290064">
  <ele>343.1</ele>
  <time>2026-09-01T19:53:01Z</time>
  <course>270.0</course>
  <speed>0.0</speed>
  <fix>3d</fix>
</trkpt>
<trkpt lat="-27.2744392" lon="151.2900641">
  <ele>343.05</ele>
  <time>2026-09-01T19:53:01Z</time>
  <course>11.0</course>
  <speed>0.022360679774997897</speed>
  <fix>3d</fix>
</trkpt>
<trkpt lat="-27.274439" lon="151.290064">
  <ele>343.1</ele>
  <time>2026-09-01T19:53:01Z</time>
  <course>270.0</course>
  <speed>0.0</speed>
  <fix>3d</fix>
</trkpt>
<trkpt lat="-27.2744392" lon="151.2900641">
  <ele>343.05</ele>
  <time>2026-09-01T19:53:01Z</time>
  <course>11.0</course>
  <speed>0.022360679774997897</speed>
  <fix>3d</fix>
</trkpt>
<trkpt lat="-27.274439" lon="151.290064">
  <ele>343.1</ele>
  <time>2026-09-01T19:53:01Z</time>
  <course>270.0</course>
  <speed>0.0</speed>
  <fix>3d</fix>
</trkpt>
<trkpt lat="-27.2744392" lon="151.2900641">
  <ele>343.05</ele>
  <time>2026-09-01T19:53:02Z</time>
  <course>11.0</course>
  <speed>0.022360679774997897</speed>
  <fix>3d</fix>
</trkpt>
<trkpt lat="-27.274439" lon="151.290064">
  <ele>343.1</ele>
  <time>2026-09-01T19:53:02Z</time>
  <course>270.0</course>
  <speed>0.0</speed>
  <fix>3d</fix>
</trkpt>
<trkpt lat="-27.2744392" lon="151.2900641">
  <ele>343.05</ele>
  <time>2026-09-01T19:53:02Z</time>
  <course>11.0</course>
  <speed>0.022360679774997897</speed>
  <fix>3d</fix>
</trkpt>
<trkpt lat="-27.274439" lon="151.290064">
  <ele>343.1</ele>
  <time>2026-09-01T19:53:02Z</time>
  <course>270.0</course>
  <speed>0.0</speed>
  <fix>3d</fix>
</trkpt>
<trkpt lat="-27.2744392" lon="151.2900641">
  <ele>343.05</ele>
  <time>2026-09-01T19:53:02Z</time>
  <course>11.0</course>
  <speed>0.022360679774997897</speed>
  <fix>3d</fix>
</trkpt>
<trkpt lat="-27.274439" lon="151.290064">
  <ele>343.1</ele>
  <time>2026-09-01T19:53:02Z</time>
  <course>270.0</course>
  <speed>0.0</speed>
  <fix>3d</fix>
</trkpt>
<trkpt lat="-27.2744392" lon="151.2900641">
  <ele>343.05</ele>
  <time>2026-09-01T19:53:02Z</time>
  <course>11.0</course>
  <speed>0.022360679774997897</speed>
  <fix>3d</fix>
</trkpt>
<trkpt lat="-27.274439" lon="151.290064">
  <ele>343.1</ele>
  <time>2026-09-01T19:53:02Z</time>
  <course>270.0</course>
  <speed>0.0</speed>
  <fix>3d</fix>
</trkpt>
<trkpt lat="-27.2744392" lon="151.2900641">
  <ele>343.05</ele>
  <time>2026-09-01T19:53:02Z</time>
  <course>11.01</course>
  <speed>0.022360679774997897</speed>
  <fix>3d</fix>
</trkpt>
<trkpt lat="-27.274439" lon="151.290064">
  <ele>343.1</ele>
  <time>2026-09-01T19:53:02Z</time>
  <course>270.0</course>
  <speed>0.0</speed>
  <fix>3d</fix>
</trkpt>
<trkpt lat="-27.2744392" lon="151.2900641">
  <ele>343.04</ele>
  <time>2026-09-01T19:53:02Z</time>
  <course>11.01</course>
  <speed>0.022360679774997897</speed>
  <fix>3d</fix>
</trkpt>
<trkpt lat="-27.274439" lon="151.290064">
  <ele>343.1</ele>
  <time>2026-09-01T19:53:02Z</time>
  <course>270.0</course>
  <speed>0.0</speed>
  <fix>3d</fix>
</trkpt>
<trkpt lat="-27.2744392" lon="151.2900641">
  <ele>343.04</ele>
  <time>2026-09-01T19:53:02Z</time>
  <course>11.01</course>
  <speed>0.022360679774997897</speed>
  <fix>3d</fix>
</trkpt>
<trkpt lat="-27.274439" lon="151.290064">
  <ele>343.1</ele>
  <time>2026-09-01T19:53:02Z</time>
  <course>270.0</course>
  <speed>0.0</speed>
  <fix>3d</fix>
</trkpt>
<trkpt lat="-27.2744392" lon="151.2900641">
  <ele>343.04</ele>
  <time>2026-09-01T19:53:02Z</time>
  <course>11.01</course>
  <speed>0.022360679774997897</speed>
  <fix>3d</fix>
</trkpt>
<trkpt lat="-27.274439" lon="151.290064">
  <ele>343.1</ele>
  <time>2026-09-01T19:53:02Z</time>
  <course>270.0</course>
  <speed>0.0</speed>
  <fix>3d</fix>
</trkpt>
<trkpt lat="-27.2744392" lon="151.2900641">
  <ele>343.04</ele>
  <time>2026-09-01T19:53:02Z</time>
  <course>11.01</course>
  <speed>0.022360679774997897</speed>
  <fix>3d</fix>
</trkpt>
<trkpt lat="-27.274439" lon="151.290064">
  <ele>343.1</ele>
  <time>2026-09-01T19:53:02Z</time>
  <course>270.0</course>
  <speed>0.0</speed>
  <fix>3d</fix>
</trkpt>
<trkpt lat="-27.2744392" lon="151.2900641">
  <ele>343.04</ele>
  <time>2026-09-01T19:53:02Z</time>
  <course>11.01</course>
  <speed>0.022360679774997897</speed>
  <fix>3d</fix>
</trkpt>
<trkpt lat="-27.274439" lon="151.290064">
  <ele>343.1</ele>
  <time>2026-09-01T19:53:02Z</time>
  <course>270.0</course>
  <speed>0.0</speed>
  <fix>3d</fix>
</trkpt>
<trkpt lat="-27.2744392" lon="151.2900641">
  <ele>343.04</ele>
  <time>2026-09-01T19:53:02Z</time>
  <course>11.01</course>
  <speed>0.022360679774997897</speed>
  <fix>3d</fix>
</trkpt>
<trkpt lat="-27.274439" lon="151.290064">
  <ele>343.1</ele>
  <time>2026-09-01T19:53:02Z</time>
  <course>270.0</course>
  <speed>0.0</speed>
  <fix>3d</fix>
</trkpt>
<trkpt lat="-27.2744392" lon="151.2900641">
  <ele>343.04</ele>
  <time>2026-09-01T19:53:02Z</time>
  <course>11.01</course>
  <speed>0.022360679774997897</speed>
  <fix>3d</fix>
</trkpt>
<trkpt lat="-27.274439" lon="151.290064">
  <ele>343.1</ele>
  <time>2026-09-01T19:53:02Z</time>
  <course>270.0</course>
  <speed>0.0</speed>
  <fix>3d</fix>
</trkpt>
<trkpt lat="-27.2744392" lon="151.2900641">
  <ele>343.04</ele>
  <time>2026-09-01T19:53:02Z</time>
  <course>11.01</course>
  <speed>0.022360679774997897</speed>
  <fix>3d</fix>
</trkpt>
<trkpt lat="-27.274439" lon="151.290064">
  <ele>343.1</ele>
  <time>2026-09-01T19:53:02Z</time>
  <course>270.0</course>
  <speed>0.0</speed>
  <fix>3d</fix>
</trkpt>
<trkpt lat="-27.2744392" lon="151.2900641">
  <ele>343.04</ele>
  <time>2026-09-01T19:53:02Z</time>
  <course>11.01</course>
  <speed>0.022360679774997897</speed>
  <fix>3d</fix>
</trkpt>
<trkpt lat="-27.274439" lon="151.290064">
  <ele>343.1</ele>
  <time>2026-09-01T19:53:02Z</time>
  <course>270.0</course>
  <speed>0.0</speed>
  <fix>3d</fix>
</trkpt>
<trkpt lat="-27.2744392" lon="151.2900641">
  <ele>343.04</ele>
  <time>2026-09-01T19:53:02Z</time>
  <course>11.02</course>
  <speed>0.022360679774997897</speed>
  <fix>3d</fix>
</trkpt>
<trkpt lat="-27.274439" lon="151.290064">
  <ele>343.1</ele>
  <time>2026-09-01T19:53:02Z</time>
  <course>270.0</course>
  <speed>0.0</speed>
  <fix>3d</fix>
</trkpt>
<trkpt lat="-27.2744392" lon="151.2900641">
  <ele>343.04</ele>
  <time>2026-09-01T19:53:02Z</time>
  <course>11.02</course>
  <speed>0.022360679774997897</speed>
  <fix>3d</fix>
</trkpt>
<trkpt lat="-27.274439" lon="151.290064">
  <ele>343.1</ele>
  <time>2026-09-01T19:53:02Z</time>
  <course>270.0</course>
  <speed>0.0</speed>
  <fix>3d</fix>
</trkpt>
<trkpt lat="-27.2744392" lon="151.2900641">
  <ele>343.04</ele>
  <time>2026-09-01T19:53:02Z</time>
  <course>11.02</course>
  <speed>0.022360679774997897</speed>
  <fix>3d</fix>
</trkpt>
<trkpt lat="-27.274439" lon="151.290064">
  <ele>343.1</ele>
  <time>2026-09-01T19:53:02Z</time>
  <course>270.0</course>
  <speed>0.0</speed>
  <fix>3d</fix>
</trkpt>
<trkpt lat="-27.2744392" lon="151.2900641">
  <ele>343.04</ele>
  <time>2026-09-01T19:53:02Z</time>
  <course>11.02</course>
  <speed>0.022360679774997897</speed>
  <fix>3d</fix>
</trkpt>
<trkpt lat="-27.274439" lon="151.290064">
  <ele>343.1</ele>
  <time>2026-09-01T19:53:02Z</time>
  <course>270.0</course>
  <speed>0.0</speed>
  <fix>3d</fix>
</trkpt>
<trkpt lat="-27.2744392" lon="151.2900641">
  <ele>343.04</ele>
  <time>2026-09-01T19:53:02Z</time>
  <course>11.02</course>
  <speed>0.022360679774997897</speed>
  <fix>3d</fix>
</trkpt>
<trkpt lat="-27.274439" lon="151.290064">
  <ele>343.1</ele>
  <time>2026-09-01T19:53:02Z</time>
  <course>270.0</course>
  <speed>0.0</speed>
  <fix>3d</fix>
</trkpt>
<trkpt lat="-27.2744392" lon="151.2900641">
  <ele>343.04</ele>
  <time>2026-09-01T19:53:02Z</time>
  <course>11.02</course>
  <speed>0.022360679774997897</speed>
  <fix>3d</fix>
</trkpt>
<trkpt lat="-27.274439" lon="151.290064">
  <ele>343.1</ele>
  <time>2026-09-01T19:53:02Z</time>
  <course>270.0</course>
  <speed>0.0</speed>
  <fix>3d</fix>
</trkpt>
<trkpt lat="-27.2744392" lon="151.2900641">
  <ele>343.05</ele>
  <time>2026-09-01T19:53:02Z</time>
  <course>11.02</course>
  <speed>0.022360679774997897</speed>
  <fix>3d</fix>
</trkpt>
<trkpt lat="-27.274439" lon="151.290064">
  <ele>343.1</ele>
  <time>2026-09-01T19:53:02Z</time>
  <course>270.0</course>
  <speed>0.0</speed>
  <fix>3d</fix>
</trkpt>
<trkpt lat="-27.2744392" lon="151.2900641">
  <ele>343.05</ele>
  <time>2026-09-01T19:53:02Z</time>
  <course>11.02</course>
  <speed>0.022360679774997897</speed>
  <fix>3d</fix>
</trkpt>
<trkpt lat="-27.274439" lon="151.290064">
  <ele>343.1</ele>
  <time>2026-09-01T19:53:02Z</time>
  <course>270.0</course>
  <speed>0.0</speed>
  <fix>3d</fix>
</trkpt>
<trkpt lat="-27.2744392" lon="151.2900641">
  <ele>343.05</ele>
  <time>2026-09-01T19:53:02Z</time>
  <course>11.02</course>
  <speed>0.022360679774997897</speed>
  <fix>3d</fix>
</trkpt>
<trkpt lat="-27.274439" lon="151.290064">
  <ele>343.1</ele>
  <time>2026-09-01T19:53:02Z</time>
  <course>270.0</course>
  <speed>0.0</speed>
  <fix>3d</fix>
</trkpt>
<trkpt lat="-27.2744392" lon="151.2900641">
  <ele>343.05</ele>
  <time>2026-09-01T19:53:02Z</time>
  <course>11.02</course>
  <speed>0.022360679774997897</speed>
  <fix>3d</fix>
</trkpt>
<trkpt lat="-27.274439" lon="151.290064">
  <ele>343.1</ele>
  <time>2026-09-01T19:53:02Z</time>
  <course>270.0</course>
  <speed>0.0</speed>
  <fix>3d</fix>
</trkpt>
<trkpt lat="-27.2744392" lon="151.2900641">
  <ele>343.05</ele>
  <time>2026-09-01T19:53:02Z</time>
  <course>11.03</course>
  <speed>0.022360679774997897</speed>
  <fix>3d</fix>
</trkpt>
<trkpt lat="-27.274439" lon="151.290064">
  <ele>343.1</ele>
  <time>2026-09-01T19:53:02Z</time>
  <course>270.0</course>
  <speed>0.0</speed>
  <fix>3d</fix>
</trkpt>
<trkpt lat="-27.2744392" lon="151.2900641">
  <ele>343.1</ele>
  <time>2026-09-01T19:53:02Z</time>
  <course>11.03</course>
  <speed>0.022360679774997897</speed>
  <fix>3d</fix>
</trkpt>
<trkpt lat="-27.274439" lon="151.290064">
  <ele>343.1</ele>
  <time>2026-09-01T19:53:02Z</time>
  <course>270.0</course>
  <speed>0.0</speed>
  <fix>3d</fix>
</trkpt>
<trkpt lat="-27.2744392" lon="151.2900641">
  <ele>343.09</ele>
  <time>2026-09-01T19:53:02Z</time>
  <course>11.03</course>
  <speed>0.022360679774997897</speed>
  <fix>3d</fix>
</trkpt>
<trkpt lat="-27.274439" lon="151.290064">
  <ele>343.1</ele>
  <time>2026-09-01T19:53:02Z</time>
  <course>270.0</course>
  <speed>0.0</speed>
  <fix>3d</fix>
</trkpt>
<trkpt lat="-27.2744392" lon="151.2900641">
  <ele>343.09</ele>
  <time>2026-09-01T19:53:02Z</time>
  <course>11.03</course>
  <speed>0.022360679774997897</speed>
  <fix>3d</fix>
</trkpt>
<trkpt lat="-27.274439" lon="151.290064">
  <ele>343.1</ele>
  <time>2026-09-01T19:53:02Z</time>
  <course>270.0</course>
  <speed>0.0</speed>
  <fix>3d</fix>
</trkpt>
<trkpt lat="-27.2744392" lon="151.2900641">
  <ele>343.09</ele>
  <time>2026-09-01T19:53:02Z</time>
  <course>11.03</course>
  <speed>0.022360679774997897</speed>
  <fix>3d</fix>
</trkpt>
<trkpt lat="-27.274439" lon="151.290064">
  <ele>343.1</ele>
  <time>2026-09-01T19:53:02Z</time>
  <course>270.0</course>
  <speed>0.0</speed>
  <fix>3d</fix>
</trkpt>
<trkpt lat="-27.2744392" lon="151.2900641">
  <ele>343.09</ele>
  <time>2026-09-01T19:53:02Z</time>
  <course>11.03</course>
  <speed>0.022360679774997897</speed>
  <fix>3d</fix>
</trkpt>
<trkpt lat="-27.274439" lon="151.290064">
  <ele>343.1</ele>
  <time>2026-09-01T19:53:02Z</time>
  <course>270.0</course>
  <speed>0.0</speed>
  <fix>3d</fix>
</trkpt>
<trkpt lat="-27.2744392" lon="151.2900641">
  <ele>343.09</ele>
  <time>2026-09-01T19:53:02Z</time>
  <course>11.03</course>
  <speed>0.022360679774997897</speed>
  <fix>3d</fix>
</trkpt>
<trkpt lat="-27.274439" lon="151.290064">
  <ele>343.1</ele>
  <time>2026-09-01T19:53:02Z</time>
  <course>270.0</course>
  <speed>0.0</speed>
  <fix>3d</fix>
</trkpt>
<trkpt lat="-27.2744392" lon="151.2900641">
  <ele>343.09</ele>
  <time>2026-09-01T19:53:02Z</time>
  <course>11.03</course>
  <speed>0.022360679774997897</speed>
  <fix>3d</fix>
</trkpt>
<trkpt lat="-27.274439" lon="151.290064">
  <ele>343.1</ele>
  <time>2026-09-01T19:53:02Z</time>
  <course>270.0</course>
  <speed>0.0</speed>
  <fix>3d</fix>
</trkpt>
<trkpt lat="-27.2744392" lon="151.2900641">
  <ele>343.09</ele>
  <time>2026-09-01T19:53:02Z</time>
  <course>11.03</course>
  <speed>0.022360679774997897</speed>
  <fix>3d</fix>
</trkpt>
<trkpt lat="-27.274439" lon="151.290064">
  <ele>343.1</ele>
  <time>2026-09-01T19:53:02Z</time>
  <course>270.0</course>
  <speed>0.0</speed>
  <fix>3d</fix>
</trkpt>
<trkpt lat="-27.2744392" lon="151.2900641">
  <ele>343.08</ele>
  <time>2026-09-01T19:53:02Z</time>
  <course>11.03</course>
  <speed>0.022360679774997897</speed>
  <fix>3d</fix>
</trkpt>
<trkpt lat="-27.274439" lon="151.290064">
  <ele>343.1</ele>
  <time>2026-09-01T19:53:02Z</time>
  <course>270.0</course>
  <speed>0.0</speed>
  <fix>3d</fix>
</trkpt>
<trkpt lat="-27.2744392" lon="151.2900641">
  <ele>343.08</ele>
  <time>2026-09-01T19:53:02Z</time>
  <course>11.03</course>
  <speed>0.022360679774997897</speed>
  <fix>3d</fix>
</trkpt>
<trkpt lat="-27.274439" lon="151.290064">
  <ele>343.1</ele>
  <time>2026-09-01T19:53:02Z</time>
  <course>270.0</course>
  <speed>0.0</speed>
  <fix>3d</fix>
</trkpt>
<trkpt lat="-27.2744392" lon="151.2900641">
  <ele>343.08</ele>
  <time>2026-09-01T19:53:02Z</time>
  <course>11.04</course>
  <speed>0.022360679774997897</speed>
  <fix>3d</fix>
</trkpt>
<trkpt lat="-27.274439" lon="151.290064">
  <ele>343.1</ele>
  <time>2026-09-01T19:53:02Z</time>
  <course>270.0</course>
  <speed>0.0</speed>
  <fix>3d</fix>
</trkpt>
<trkpt lat="-27.2744392" lon="151.2900641">
  <ele>343.07</ele>
  <time>2026-09-01T19:53:02Z</time>
  <course>11.04</course>
  <speed>0.022360679774997897</speed>
  <fix>3d</fix>
</trkpt>
<trkpt lat="-27.274439" lon="151.290064">
  <ele>343.1</ele>
  <time>2026-09-01T19:53:02Z</time>
  <course>270.0</course>
  <speed>0.0</speed>
  <fix>3d</fix>
</trkpt>
<trkpt lat="-27.2744392" lon="151.2900641">
  <ele>343.07</ele>
  <time>2026-09-01T19:53:02Z</time>
  <course>11.04</course>
  <speed>0.022360679774997897</speed>
  <fix>3d</fix>
</trkpt>
<trkpt lat="-27.274439" lon="151.290064">
  <ele>343.1</ele>
  <time>2026-09-01T19:53:02Z</time>
  <course>270.0</course>
  <speed>0.0</speed>
  <fix>3d</fix>
</trkpt>
<trkpt lat="-27.2744392" lon="151.2900641">
  <ele>343.06</ele>
  <time>2026-09-01T19:53:02Z</time>
  <course>11.04</course>
  <speed>0.022360679774997897</speed>
  <fix>3d</fix>
</trkpt>
<trkpt lat="-27.274439" lon="151.290064">
  <ele>343.1</ele>
  <time>2026-09-01T19:53:02Z</time>
  <course>270.0</course>
  <speed>0.0</speed>
  <fix>3d</fix>
</trkpt>
<trkpt lat="-27.2744392" lon="151.2900641">
  <ele>343.06</ele>
  <time>2026-09-01T19:53:02Z</time>
  <course>11.04</course>
  <speed>0.022360679774997897</speed>
  <fix>3d</fix>
</trkpt>
<trkpt lat="-27.274439" lon="151.290064">
  <ele>343.1</ele>
  <time>2026-09-01T19:53:02Z</time>
  <course>270.0</course>
  <speed>0.0</speed>
  <fix>3d</fix>
</trkpt>
<trkpt lat="-27.2744392" lon="151.2900641">
  <ele>343.05</ele>
  <time>2026-09-01T19:53:02Z</time>
  <course>11.04</course>
  <speed>0.022360679774997897</speed>
  <fix>3d</fix>
</trkpt>
<trkpt lat="-27.274439" lon="151.290064">
  <ele>343.1</ele>
  <time>2026-09-01T19:53:02Z</time>
  <course>270.0</course>
  <speed>0.0</speed>
  <fix>3d</fix>
</trkpt>
<trkpt lat="-27.2744392" lon="151.2900641">
  <ele>343.05</ele>
  <time>2026-09-01T19:53:02Z</time>
  <course>11.04</course>
  <speed>0.022360679774997897</speed>
  <fix>3d</fix>
</trkpt>
<trkpt lat="-27.274439" lon="151.290064">
  <ele>343.1</ele>
  <time>2026-09-01T19:53:02Z</time>
  <course>270.0</course>
  <speed>0.0</speed>
  <fix>3d</fix>
</trkpt>
<trkpt lat="-27.2744392" lon="151.2900641">
  <ele>343.05</ele>
  <time>2026-09-01T19:53:02Z</time>
  <course>11.04</course>
  <speed>0.022360679774997897</speed>
  <fix>3d</fix>
</trkpt>
<trkpt lat="-27.274439" lon="151.290064">
  <ele>343.1</ele>
  <time>2026-09-01T19:53:02Z</time>
  <course>270.0</course>
  <speed>0.0</speed>
  <fix>3d</fix>
</trkpt>
<trkpt lat="-27.2744392" lon="151.2900641">
  <ele>343.05</ele>
  <time>2026-09-01T19:53:02Z</time>
  <course>11.04</course>
  <speed>0.022360679774997897</speed>
  <fix>3d</fix>
</trkpt>
<trkpt lat="-27.274439" lon="151.290064">
  <ele>343.1</ele>
  <time>2026-09-01T19:53:02Z</time>
  <course>270.0</course>
  <speed>0.0</speed>
  <fix>3d</fix>
</trkpt>
<trkpt lat="-27.2744392" lon="151.2900641">
  <ele>343.05</ele>
  <time>2026-09-01T19:53:02Z</time>
  <course>11.04</course>
  <speed>0.022360679774997897</speed>
  <fix>3d</fix>
</trkpt>
<trkpt lat="-27.274439" lon="151.290064">
  <ele>343.1</ele>
  <time>2026-09-01T19:53:02Z</time>
  <course>270.0</course>
  <speed>0.0</speed>
  <fix>3d</fix>
</trkpt>
<trkpt lat="-27.2744392" lon="151.2900641">
  <ele>343.05</ele>
  <time>2026-09-01T19:53:02Z</time>
  <course>11.04</course>
  <speed>0.022360679774997897</speed>
  <fix>3d</fix>
</trkpt>
<trkpt lat="-27.274439" lon="151.290064">
  <ele>343.1</ele>
  <time>2026-09-01T19:53:02Z</time>
  <course>270.0</course>
  <speed>0.0</speed>
  <fix>3d</fix>
</trkpt>
<trkpt lat="-27.2744392" lon="151.2900641">
  <ele>343.04</ele>
  <time>2026-09-01T19:53:02Z</time>
  <course>11.05</course>
  <speed>0.022360679774997897</speed>
  <fix>3d</fix>
</trkpt>
<trkpt lat="-27.274439" lon="151.290064">
  <ele>343.1</ele>
  <time>2026-09-01T19:53:02Z</time>
  <course>270.0</course>
  <speed>0.0</speed>
  <fix>3d</fix>
</trkpt>
<trkpt lat="-27.2744392" lon="151.2900641">
  <ele>343.04</ele>
  <time>2026-09-01T19:53:02Z</time>
  <course>11.05</course>
  <speed>0.022360679774997897</speed>
  <fix>3d</fix>
</trkpt>
<trkpt lat="-27.274439" lon="151.290064">
  <ele>343.1</ele>
  <time>2026-09-01T19:53:02Z</time>
  <course>270.0</course>
  <speed>0.0</speed>
  <fix>3d</fix>
</trkpt>
<trkpt lat="-27.2744392" lon="151.2900641">
  <ele>343.04</ele>
  <time>2026-09-01T19:53:02Z</time>
  <course>11.05</course>
  <speed>0.022360679774997897</speed>
  <fix>3d</fix>
</trkpt>
<trkpt lat="-27.274439" lon="151.290064">
  <ele>343.1</ele>
  <time>2026-09-01T19:53:02Z</time>
  <course>270.0</course>
  <speed>0.0</speed>
  <fix>3d</fix>
</trkpt>
<trkpt lat="-27.2744392" lon="151.2900641">
  <ele>343.04</ele>
  <time>2026-09-01T19:53:02Z</time>
  <course>11.05</course>
  <speed>0.022360679774997897</speed>
  <fix>3d</fix>
</trkpt>
<trkpt lat="-27.274439" lon="151.290064">
  <ele>343.1</ele>
  <time>2026-09-01T19:53:02Z</time>
  <course>270.0</course>
  <speed>0.0</speed>
  <fix>3d</fix>
</trkpt>
<trkpt lat="-27.2744392" lon="151.2900641">
  <ele>343.04</ele>
  <time>2026-09-01T19:53:02Z</time>
  <course>11.05</course>
  <speed>0.022360679774997897</speed>
  <fix>3d</fix>
</trkpt>
<trkpt lat="-27.274439" lon="151.290064">
  <ele>343.1</ele>
  <time>2026-09-01T19:53:02Z</time>
  <course>270.0</course>
  <speed>0.0</speed>
  <fix>3d</fix>
</trkpt>
<trkpt lat="-27.2744392" lon="151.2900641">
  <ele>343.04</ele>
  <time>2026-09-01T19:53:02Z</time>
  <course>11.05</course>
  <speed>0.022360679774997897</speed>
  <fix>3d</fix>
</trkpt>
<trkpt lat="-27.274439" lon="151.290064">
  <ele>343.1</ele>
  <time>2026-09-01T19:53:02Z</time>
  <course>270.0</course>
  <speed>0.0</speed>
  <fix>3d</fix>
</trkpt>
<trkpt lat="-27.2744392" lon="151.2900641">
  <ele>343.03</ele>
  <time>2026-09-01T19:53:02Z</time>
  <course>11.05</course>
  <speed>0.022360679774997897</speed>
  <fix>3d</fix>
</trkpt>
<trkpt lat="-27.274439" lon="151.290064">
  <ele>343.1</ele>
  <time>2026-09-01T19:53:02Z</time>
  <course>270.0</course>
  <speed>0.0</speed>
  <fix>3d</fix>
</trkpt>
<trkpt lat="-27.2744392" lon="151.2900641">
  <ele>343.03</ele>
  <time>2026-09-01T19:53:02Z</time>
  <course>11.05</course>
  <speed>0.022360679774997897</speed>
  <fix>3d</fix>
</trkpt>
<trkpt lat="-27.274439" lon="151.290064">
  <ele>343.1</ele>
  <time>2026-09-01T19:53:02Z</time>
  <course>270.0</course>
  <speed>0.0</speed>
  <fix>3d</fix>
</trkpt>
<trkpt lat="-27.2744392" lon="151.2900641">
  <ele>343.03</ele>
  <time>2026-09-01T19:53:02Z</time>
  <course>11.05</course>
  <speed>0.022360679774997897</speed>
  <fix>3d</fix>
</trkpt>
<trkpt lat="-27.274439" lon="151.290064">
  <ele>343.1</ele>
  <time>2026-09-01T19:53:02Z</time>
  <course>270.0</course>
  <speed>0.0</speed>
  <fix>3d</fix>
</trkpt>
<trkpt lat="-27.2744392" lon="151.2900641">
  <ele>343.03</ele>
  <time>2026-09-01T19:53:02Z</time>
  <course>11.05</course>
  <speed>0.022360679774997897</speed>
  <fix>3d</fix>
</trkpt>
<trkpt lat="-27.274439" lon="151.290064">
  <ele>343.1</ele>
  <time>2026-09-01T19:53:02Z</time>
  <course>270.0</course>
  <speed>0.0</speed>
  <fix>3d</fix>
</trkpt>
<trkpt lat="-27.2744392" lon="151.2900641">
  <ele>343.03</ele>
  <time>2026-09-01T19:53:02Z</time>
  <course>11.05</course>
  <speed>0.022360679774997897</speed>
  <fix>3d</fix>
</trkpt>
<trkpt lat="-27.274439" lon="151.290064">
  <ele>343.1</ele>
  <time>2026-09-01T19:53:02Z</time>
  <course>270.0</course>
  <speed>0.0</speed>
  <fix>3d</fix>
</trkpt>
<trkpt lat="-27.2744392" lon="151.2900641">
  <ele>343.03</ele>
  <time>2026-09-01T19:53:02Z</time>
  <course>11.06</course>
  <speed>0.022360679774997897</speed>
  <fix>3d</fix>
</trkpt>
<trkpt lat="-27.274439" lon="151.290064">
  <ele>343.1</ele>
  <time>2026-09-01T19:53:02Z</time>
  <course>270.0</course>
  <speed>0.0</speed>
  <fix>3d</fix>
</trkpt>
<trkpt lat="-27.2744392" lon="151.2900641">
  <ele>343.03</ele>
  <time>2026-09-01T19:53:02Z</time>
  <course>11.06</course>
  <speed>0.022360679774997897</speed>
  <fix>3d</fix>
</trkpt>
<trkpt lat="-27.274439" lon="151.290064">
  <ele>343.1</ele>
  <time>2026-09-01T19:53:02Z</time>
  <course>270.0</course>
  <speed>0.0</speed>
  <fix>3d</fix>
</trkpt>
<trkpt lat="-27.2744392" lon="151.2900641">
  <ele>343.03</ele>
  <time>2026-09-01T19:53:02Z</time>
  <course>11.06</course>
  <speed>0.022360679774997897</speed>
  <fix>3d</fix>
</trkpt>
<trkpt lat="-27.274439" lon="151.290064">
  <ele>343.1</ele>
  <time>2026-09-01T19:53:02Z</time>
  <course>270.0</course>
  <speed>0.0</speed>
  <fix>3d</fix>
</trkpt>
<trkpt lat="-27.2744392" lon="151.2900641">
  <ele>343.03</ele>
  <time>2026-09-01T19:53:02Z</time>
  <course>11.06</course>
  <speed>0.022360679774997897</speed>
  <fix>3d</fix>
</trkpt>
<trkpt lat="-27.274439" lon="151.290064">
  <ele>343.1</ele>
  <time>2026-09-01T19:53:02Z</time>
  <course>270.0</course>
  <speed>0.0</speed>
  <fix>3d</fix>
</trkpt>
<trkpt lat="-27.2744392" lon="151.2900641">
  <ele>343.03</ele>
  <time>2026-09-01T19:53:02Z</time>
  <course>11.06</course>
  <speed>0.022360679774997897</speed>
  <fix>3d</fix>
</trkpt>
<trkpt lat="-27.274439" lon="151.290064">
  <ele>343.1</ele>
  <time>2026-09-01T19:53:02Z</time>
  <course>270.0</course>
  <speed>0.0</speed>
  <fix>3d</fix>
</trkpt>
<trkpt lat="-27.2744392" lon="151.2900641">
  <ele>343.03</ele>
  <time>2026-09-01T19:53:02Z</time>
  <course>11.06</course>
  <speed>0.022360679774997897</speed>
  <fix>3d</fix>
</trkpt>
<trkpt lat="-27.274439" lon="151.290064">
  <ele>343.1</ele>
  <time>2026-09-01T19:53:02Z</time>
  <course>270.0</course>
  <speed>0.0</speed>
  <fix>3d</fix>
</trkpt>
<trkpt lat="-27.2744392" lon="151.2900641">
  <ele>343.04</ele>
  <time>2026-09-01T19:53:02Z</time>
  <course>11.06</course>
  <speed>0.022360679774997897</speed>
  <fix>3d</fix>
</trkpt>
<trkpt lat="-27.274439" lon="151.290064">
  <ele>343.1</ele>
  <time>2026-09-01T19:53:02Z</time>
  <course>270.0</course>
  <speed>0.0</speed>
  <fix>3d</fix>
</trkpt>
<trkpt lat="-27.2744392" lon="151.2900641">
  <ele>343.03</ele>
  <time>2026-09-01T19:53:02Z</time>
  <course>11.06</course>
  <speed>0.022360679774997897</speed>
  <fix>3d</fix>
</trkpt>
<trkpt lat="-27.274439" lon="151.290064">
  <ele>343.1</ele>
  <time>2026-09-01T19:53:02Z</time>
  <course>270.0</course>
  <speed>0.0</speed>
  <fix>3d</fix>
</trkpt>
<trkpt lat="-27.2744392" lon="151.2900641">
  <ele>343.03</ele>
  <time>2026-09-01T19:53:02Z</time>
  <course>11.06</course>
  <speed>0.022360679774997897</speed>
  <fix>3d</fix>
</trkpt>
<trkpt lat="-27.274439" lon="151.290064">
  <ele>343.1</ele>
  <time>2026-09-01T19:53:02Z</time>
  <course>270.0</course>
  <speed>0.0</speed>
  <fix>3d</fix>
</trkpt>
<trkpt lat="-27.2744392" lon="151.2900641">
  <ele>343.03</ele>
  <time>2026-09-01T19:53:02Z</time>
  <course>11.06</course>
  <speed>0.022360679774997897</speed>
  <fix>3d</fix>
</trkpt>
<trkpt lat="-27.274439" lon="151.290064">
  <ele>343.1</ele>
  <time>2026-09-01T19:53:02Z</time>
  <course>270.0</course>
  <speed>0.0</speed>
  <fix>3d</fix>
</trkpt>
<trkpt lat="-27.2744392" lon="151.2900641">
  <ele>343.03</ele>
  <time>2026-09-01T19:53:02Z</time>
  <course>11.07</course>
  <speed>0.022360679774997897</speed>
  <fix>3d</fix>
</trkpt>
<trkpt lat="-27.274439" lon="151.290064">
  <ele>343.1</ele>
  <time>2026-09-01T19:53:02Z</time>
  <course>270.0</course>
  <speed>0.0</speed>
  <fix>3d</fix>
</trkpt>
<trkpt lat="-27.2744392" lon="151.2900641">
  <ele>343.03</ele>
  <time>2026-09-01T19:53:02Z</time>
  <course>11.07</course>
  <speed>0.022360679774997897</speed>
  <fix>3d</fix>
</trkpt>
<trkpt lat="-27.274439" lon="151.290064">
  <ele>343.1</ele>
  <time>2026-09-01T19:53:02Z</time>
  <course>270.0</course>
  <speed>0.0</speed>
  <fix>3d</fix>
</trkpt>
<trkpt lat="-27.2744392" lon="151.2900641">
  <ele>343.03</ele>
  <time>2026-09-01T19:53:02Z</time>
  <course>11.07</course>
  <speed>0.022360679774997897</speed>
  <fix>3d</fix>
</trkpt>
<trkpt lat="-27.274439" lon="151.290064">
  <ele>343.1</ele>
  <time>2026-09-01T19:53:02Z</time>
  <course>270.0</course>
  <speed>0.0</speed>
  <fix>3d</fix>
</trkpt>
<trkpt lat="-27.2744392" lon="151.2900641">
  <ele>343.02</ele>
  <time>2026-09-01T19:53:02Z</time>
  <course>11.07</course>
  <speed>0.022360679774997897</speed>
  <fix>3d</fix>
</trkpt>
<trkpt lat="-27.274439" lon="151.290064">
  <ele>343.1</ele>
  <time>2026-09-01T19:53:02Z</time>
  <course>270.0</course>
  <speed>0.0</speed>
  <fix>3d</fix>
</trkpt>
<trkpt lat="-27.2744392" lon="151.2900641">
  <ele>343.02</ele>
  <time>2026-09-01T19:53:02Z</time>
  <course>11.07</course>
  <speed>0.022360679774997897</speed>
  <fix>3d</fix>
</trkpt>
<trkpt lat="-27.274439" lon="151.290064">
  <ele>343.1</ele>
  <time>2026-09-01T19:53:02Z</time>
  <course>270.0</course>
  <speed>0.0</speed>
  <fix>3d</fix>
</trkpt>
<trkpt lat="-27.2744392" lon="151.2900641">
  <ele>343.02</ele>
  <time>2026-09-01T19:53:02Z</time>
  <course>11.07</course>
  <speed>0.022360679774997897</speed>
  <fix>3d</fix>
</trkpt>
<trkpt lat="-27.274439" lon="151.290064">
  <ele>343.1</ele>
  <time>2026-09-01T19:53:02Z</time>
  <course>270.0</course>
  <speed>0.0</speed>
  <fix>3d</fix>
</trkpt>
<trkpt lat="-27.2744392" lon="151.2900641">
  <ele>343.01</ele>
  <time>2026-09-01T19:53:02Z</time>
  <course>11.07</course>
  <speed>0.022360679774997897</speed>
  <fix>3d</fix>
</trkpt>
<trkpt lat="-27.274439" lon="151.290064">
  <ele>343.1</ele>
  <time>2026-09-01T19:53:02Z</time>
  <course>270.0</course>
  <speed>0.0</speed>
  <fix>3d</fix>
</trkpt>
<trkpt lat="-27.2744392" lon="151.2900641">
  <ele>343.01</ele>
  <time>2026-09-01T19:53:02Z</time>
  <course>11.07</course>
  <speed>0.022360679774997897</speed>
  <fix>3d</fix>
</trkpt>
<trkpt lat="-27.274439" lon="151.290064">
  <ele>343.1</ele>
  <time>2026-09-01T19:53:02Z</time>
  <course>270.0</course>
  <speed>0.0</speed>
  <fix>3d</fix>
</trkpt>
<trkpt lat="-27.2744392" lon="151.2900641">
  <ele>343.01</ele>
  <time>2026-09-01T19:53:02Z</time>
  <course>11.07</course>
  <speed>0.022360679774997897</speed>
  <fix>3d</fix>
</trkpt>
<trkpt lat="-27.274439" lon="151.290064">
  <ele>343.1</ele>
  <time>2026-09-01T19:53:02Z</time>
  <course>270.0</course>
  <speed>0.0</speed>
  <fix>3d</fix>
</trkpt>
<trkpt lat="-27.2744392" lon="151.2900641">
  <ele>343.01</ele>
  <time>2026-09-01T19:53:02Z</time>
  <course>11.07</course>
  <speed>0.022360679774997897</speed>
  <fix>3d</fix>
</trkpt>
<trkpt lat="-27.274439" lon="151.290064">
  <ele>343.1</ele>
  <time>2026-09-01T19:53:02Z</time>
  <course>270.0</course>
  <speed>0.0</speed>
  <fix>3d</fix>
</trkpt>
<trkpt lat="-27.2744392" lon="151.2900641">
  <ele>343.0</ele>
  <time>2026-09-01T19:53:02Z</time>
  <course>11.08</course>
  <speed>0.022360679774997897</speed>
  <fix>3d</fix>
</trkpt>
<trkpt lat="-27.274439" lon="151.290064">
  <ele>343.1</ele>
  <time>2026-09-01T19:53:02Z</time>
  <course>270.0</course>
  <speed>0.0</speed>
  <fix>3d</fix>
</trkpt>
<trkpt lat="-27.2744392" lon="151.2900641">
  <ele>343.0</ele>
  <time>2026-09-01T19:53:02Z</time>
  <course>11.08</course>
  <speed>0.022360679774997897</speed>
  <fix>3d</fix>
</trkpt>
<trkpt lat="-27.274439" lon="151.290064">
  <ele>343.1</ele>
  <time>2026-09-01T19:53:02Z</time>
  <course>270.0</course>
  <speed>0.0</speed>
  <fix>3d</fix>
</trkpt>
<trkpt lat="-27.2744392" lon="151.2900641">
  <ele>343.0</ele>
  <time>2026-09-01T19:53:02Z</time>
  <course>11.08</course>
  <speed>0.022360679774997897</speed>
  <fix>3d</fix>
</trkpt>
<trkpt lat="-27.274439" lon="151.290064">
  <ele>343.1</ele>
  <time>2026-09-01T19:53:02Z</time>
  <course>270.0</course>
  <speed>0.0</speed>
  <fix>3d</fix>
</trkpt>
<trkpt lat="-27.2744392" lon="151.2900641">
  <ele>342.99</ele>
  <time>2026-09-01T19:53:02Z</time>
  <course>11.08</course>
  <speed>0.022360679774997897</speed>
  <fix>3d</fix>
</trkpt>
<trkpt lat="-27.274439" lon="151.290064">
  <ele>343.1</ele>
  <time>2026-09-01T19:53:02Z</time>
  <course>270.0</course>
  <speed>0.0</speed>
  <fix>3d</fix>
</trkpt>
<trkpt lat="-27.2744392" lon="151.2900641">
  <ele>342.99</ele>
  <time>2026-09-01T19:53:02Z</time>
  <course>11.08</course>
  <speed>0.022360679774997897</speed>
  <fix>3d</fix>
</trkpt>
<trkpt lat="-27.274439" lon="151.290064">
  <ele>343.1</ele>
  <time>2026-09-01T19:53:02Z</time>
  <course>270.0</course>
  <speed>0.0</speed>
  <fix>3d</fix>
</trkpt>
<trkpt lat="-27.2744392" lon="151.2900641">
  <ele>342.99</ele>
  <time>2026-09-01T19:53:02Z</time>
  <course>11.08</course>
  <speed>0.022360679774997897</speed>
  <fix>3d</fix>
</trkpt>
<trkpt lat="-27.274439" lon="151.290064">
  <ele>343.1</ele>
  <time>2026-09-01T19:53:02Z</time>
  <course>270.0</course>
  <speed>0.0</speed>
  <fix>3d</fix>
</trkpt>
<trkpt lat="-27.2744392" lon="151.2900641">
  <ele>342.99</ele>
  <time>2026-09-01T19:53:02Z</time>
  <course>11.08</course>
  <speed>0.022360679774997897</speed>
  <fix>3d</fix>
</trkpt>
<trkpt lat="-27.274439" lon="151.290064">
  <ele>343.1</ele>
  <time>2026-09-01T19:53:02Z</time>
  <course>270.0</course>
  <speed>0.0</speed>
  <fix>3d</fix>
</trkpt>
<trkpt lat="-27.2744392" lon="151.2900641">
  <ele>342.99</ele>
  <time>2026-09-01T19:53:02Z</time>
  <course>11.08</course>
  <speed>0.022360679774997897</speed>
  <fix>3d</fix>
</trkpt>
<trkpt lat="-27.274439" lon="151.290064">
  <ele>343.1</ele>
  <time>2026-09-01T19:53:02Z</time>
  <course>270.0</course>
  <speed>0.0</speed>
  <fix>3d</fix>
</trkpt>
<trkpt lat="-27.2744392" lon="151.2900641">
  <ele>343.09</ele>
  <time>2026-09-01T19:53:02Z</time>
  <course>11.08</course>
  <speed>0.022360679774997897</speed>
  <fix>3d</fix>
</trkpt>
<trkpt lat="-27.274439" lon="151.290064">
  <ele>343.1</ele>
  <time>2026-09-01T19:53:02Z</time>
  <course>270.0</course>
  <speed>0.0</speed>
  <fix>3d</fix>
</trkpt>
<trkpt lat="-27.2744392" lon="151.2900641">
  <ele>343.09</ele>
  <time>2026-09-01T19:53:02Z</time>
  <course>11.08</course>
  <speed>0.022360679774997897</speed>
  <fix>3d</fix>
</trkpt>
<trkpt lat="-27.274439" lon="151.290064">
  <ele>343.1</ele>
  <time>2026-09-01T19:53:02Z</time>
  <course>270.0</course>
  <speed>0.0</speed>
  <fix>3d</fix>
</trkpt>
<trkpt lat="-27.2744392" lon="151.2900641">
  <ele>343.09</ele>
  <time>2026-09-01T19:53:02Z</time>
  <course>11.09</course>
  <speed>0.022360679774997897</speed>
  <fix>3d</fix>
</trkpt>
<trkpt lat="-27.274439" lon="151.290064">
  <ele>343.1</ele>
  <time>2026-09-01T19:53:02Z</time>
  <course>270.0</course>
  <speed>0.0</speed>
  <fix>3d</fix>
</trkpt>
<trkpt lat="-27.2744392" lon="151.2900641">
  <ele>343.09</ele>
  <time>2026-09-01T19:53:02Z</time>
  <course>11.09</course>
  <speed>0.022360679774997897</speed>
  <fix>3d</fix>
</trkpt>
<trkpt lat="-27.274439" lon="151.290064">
  <ele>343.1</ele>
  <time>2026-09-01T19:53:02Z</time>
  <course>270.0</course>
  <speed>0.0</speed>
  <fix>3d</fix>
</trkpt>
<trkpt lat="-27.2744392" lon="151.2900641">
  <ele>343.08</ele>
  <time>2026-09-01T19:53:02Z</time>
  <course>11.09</course>
  <speed>0.022360679774997897</speed>
  <fix>3d</fix>
</trkpt>
<trkpt lat="-27.274439" lon="151.290064">
  <ele>343.1</ele>
  <time>2026-09-01T19:53:02Z</time>
  <course>270.0</course>
  <speed>0.0</speed>
  <fix>3d</fix>
</trkpt>
<trkpt lat="-27.2744392" lon="151.2900641">
  <ele>343.08</ele>
  <time>2026-09-01T19:53:02Z</time>
  <course>11.09</course>
  <speed>0.022360679774997897</speed>
  <fix>3d</fix>
</trkpt>
<trkpt lat="-27.274439" lon="151.290064">
  <ele>343.1</ele>
  <time>2026-09-01T19:53:02Z</time>
  <course>270.0</course>
  <speed>0.0</speed>
  <fix>3d</fix>
</trkpt>
<trkpt lat="-27.2744392" lon="151.2900641">
  <ele>343.08</ele>
  <time>2026-09-01T19:53:02Z</time>
  <course>11.09</course>
  <speed>0.022360679774997897</speed>
  <fix>3d</fix>
</trkpt>
<trkpt lat="-27.274439" lon="151.290064">
  <ele>343.1</ele>
  <time>2026-09-01T19:53:02Z</time>
  <course>270.0</course>
  <speed>0.0</speed>
  <fix>3d</fix>
</trkpt>
<trkpt lat="-27.2744392" lon="151.2900641">
  <ele>343.08</ele>
  <time>2026-09-01T19:53:02Z</time>
  <course>11.09</course>
  <speed>0.022360679774997897</speed>
  <fix>3d</fix>
</trkpt>
<trkpt lat="-27.274439" lon="151.290064">
  <ele>343.1</ele>
  <time>2026-09-01T19:53:02Z</time>
  <course>270.0</course>
  <speed>0.0</speed>
  <fix>3d</fix>
</trkpt>
<trkpt lat="-27.2744392" lon="151.2900641">
  <ele>343.08</ele>
  <time>2026-09-01T19:53:02Z</time>
  <course>11.09</course>
  <speed>0.022360679774997897</speed>
  <fix>3d</fix>
</trkpt>
<trkpt lat="-27.274439" lon="151.290064">
  <ele>343.1</ele>
  <time>2026-09-01T19:53:02Z</time>
  <course>270.0</course>
  <speed>0.0</speed>
  <fix>3d</fix>
</trkpt>
<trkpt lat="-27.2744392" lon="151.2900641">
  <ele>343.08</ele>
  <time>2026-09-01T19:53:02Z</time>
  <course>11.09</course>
  <speed>0.022360679774997897</speed>
  <fix>3d</fix>
</trkpt>
<trkpt lat="-27.274439" lon="151.290064">
  <ele>343.1</ele>
  <time>2026-09-01T19:53:02Z</time>
  <course>270.0</course>
  <speed>0.0</speed>
  <fix>3d</fix>
</trkpt>
<trkpt lat="-27.2744392" lon="151.2900641">
  <ele>343.08</ele>
  <time>2026-09-01T19:53:02Z</time>
  <course>11.09</course>
  <speed>0.022360679774997897</speed>
  <fix>3d</fix>
</trkpt>
<trkpt lat="-27.274439" lon="151.290064">
  <ele>343.1</ele>
  <time>2026-09-01T19:53:02Z</time>
  <course>270.0</course>
  <speed>0.0</speed>
  <fix>3d</fix>
</trkpt>
<trkpt lat="-27.2744392" lon="151.2900641">
  <ele>343.08</ele>
  <time>2026-09-01T19:53:02Z</time>
  <course>11.09</course>
  <speed>0.022360679774997897</speed>
  <fix>3d</fix>
</trkpt>
<trkpt lat="-27.274439" lon="151.290064">
  <ele>343.1</ele>
  <time>2026-09-01T19:53:02Z</time>
  <course>270.0</course>
  <speed>0.0</speed>
  <fix>3d</fix>
</trkpt>
<trkpt lat="-27.2744392" lon="151.2900641">
  <ele>343.08</ele>
  <time>2026-09-01T19:53:02Z</time>
  <course>11.1</course>
  <speed>0.022360679774997897</speed>
  <fix>3d</fix>
</trkpt>
<trkpt lat="-27.274439" lon="151.290064">
  <ele>343.1</ele>
  <time>2026-09-01T19:53:02Z</time>
  <course>270.0</course>
  <speed>0.0</speed>
  <fix>3d</fix>
</trkpt>
<trkpt lat="-27.2744392" lon="151.2900641">
  <ele>343.08</ele>
  <time>2026-09-01T19:53:02Z</time>
  <course>11.1</course>
  <speed>0.022360679774997897</speed>
  <fix>3d</fix>
</trkpt>
<trkpt lat="-27.274439" lon="151.290064">
  <ele>343.1</ele>
  <time>2026-09-01T19:53:02Z</time>
  <course>270.0</course>
  <speed>0.0</speed>
  <fix>3d</fix>
</trkpt>
<trkpt lat="-27.2744392" lon="151.2900641">
  <ele>343.08</ele>
  <time>2026-09-01T19:53:02Z</time>
  <course>11.1</course>
  <speed>0.022360679774997897</speed>
  <fix>3d</fix>
</trkpt>
<trkpt lat="-27.274439" lon="151.290064">
  <ele>343.1</ele>
  <time>2026-09-01T19:53:02Z</time>
  <course>270.0</course>
  <speed>0.0</speed>
  <fix>3d</fix>
</trkpt>
<trkpt lat="-27.2744392" lon="151.2900641">
  <ele>343.08</ele>
  <time>2026-09-01T19:53:02Z</time>
  <course>11.1</course>
  <speed>0.022360679774997897</speed>
  <fix>3d</fix>
</trkpt>
<trkpt lat="-27.274439" lon="151.290064">
  <ele>343.1</ele>
  <time>2026-09-01T19:53:02Z</time>
  <course>270.0</course>
  <speed>0.0</speed>
  <fix>3d</fix>
</trkpt>
<trkpt lat="-27.2744392" lon="151.2900641">
  <ele>343.08</ele>
  <time>2026-09-01T19:53:02Z</time>
  <course>11.1</course>
  <speed>0.022360679774997897</speed>
  <fix>3d</fix>
</trkpt>
<trkpt lat="-27.274439" lon="151.290064">
  <ele>343.1</ele>
  <time>2026-09-01T19:53:02Z</time>
  <course>270.0</course>
  <speed>0.0</speed>
  <fix>3d</fix>
</trkpt>
<trkpt lat="-27.2744392" lon="151.2900641">
  <ele>343.07</ele>
  <time>2026-09-01T19:53:02Z</time>
  <course>11.1</course>
  <speed>0.022360679774997897</speed>
  <fix>3d</fix>
</trkpt>
<trkpt lat="-27.274439" lon="151.290064">
  <ele>343.1</ele>
  <time>2026-09-01T19:53:02Z</time>
  <course>270.0</course>
  <speed>0.0</speed>
  <fix>3d</fix>
</trkpt>
<trkpt lat="-27.2744392" lon="151.2900641">
  <ele>343.07</ele>
  <time>2026-09-01T19:53:02Z</time>
  <course>11.1</course>
  <speed>0.022360679774997897</speed>
  <fix>3d</fix>
</trkpt>
<trkpt lat="-27.274439" lon="151.290064">
  <ele>343.1</ele>
  <time>2026-09-01T19:53:02Z</time>
  <course>270.0</course>
  <speed>0.0</speed>
  <fix>3d</fix>
</trkpt>
<trkpt lat="-27.2744392" lon="151.2900641">
  <ele>343.07</ele>
  <time>2026-09-01T19:53:02Z</time>
  <course>11.1</course>
  <speed>0.022360679774997897</speed>
  <fix>3d</fix>
</trkpt>
<trkpt lat="-27.274439" lon="151.290064">
  <ele>343.1</ele>
  <time>2026-09-01T19:53:02Z</time>
  <course>270.0</course>
  <speed>0.0</speed>
  <fix>3d</fix>
</trkpt>
<trkpt lat="-27.2744392" lon="151.2900641">
  <ele>343.07</ele>
  <time>2026-09-01T19:53:02Z</time>
  <course>11.1</course>
  <speed>0.022360679774997897</speed>
  <fix>3d</fix>
</trkpt>
<trkpt lat="-27.274439" lon="151.290064">
  <ele>343.1</ele>
  <time>2026-09-01T19:53:02Z</time>
  <course>270.0</course>
  <speed>0.0</speed>
  <fix>3d</fix>
</trkpt>
<trkpt lat="-27.2744392" lon="151.2900641">
  <ele>343.07</ele>
  <time>2026-09-01T19:53:02Z</time>
  <course>11.1</course>
  <speed>0.022360679774997897</speed>
  <fix>3d</fix>
</trkpt>
<trkpt lat="-27.274439" lon="151.290064">
  <ele>343.1</ele>
  <time>2026-09-01T19:53:02Z</time>
  <course>270.0</course>
  <speed>0.0</speed>
  <fix>3d</fix>
</trkpt>
<trkpt lat="-27.2744392" lon="151.2900641">
  <ele>343.07</ele>
  <time>2026-09-01T19:53:02Z</time>
  <course>11.1</course>
  <speed>0.022360679774997897</speed>
  <fix>3d</fix>
</trkpt>
<trkpt lat="-27.274439" lon="151.290064">
  <ele>343.1</ele>
  <time>2026-09-01T19:53:02Z</time>
  <course>270.0</course>
  <speed>0.0</speed>
  <fix>3d</fix>
</trkpt>
<trkpt lat="-27.2744392" lon="151.2900641">
  <ele>343.07</ele>
  <time>2026-09-01T19:53:02Z</time>
  <course>11.11</course>
  <speed>0.022360679774997897</speed>
  <fix>3d</fix>
</trkpt>
<trkpt lat="-27.274439" lon="151.290064">
  <ele>343.1</ele>
  <time>2026-09-01T19:53:02Z</time>
  <course>270.0</course>
  <speed>0.0</speed>
  <fix>3d</fix>
</trkpt>
<trkpt lat="-27.2744392" lon="151.2900641">
  <ele>343.07</ele>
  <time>2026-09-01T19:53:02Z</time>
  <course>11.11</course>
  <speed>0.022360679774997897</speed>
  <fix>3d</fix>
</trkpt>
<trkpt lat="-27.274439" lon="151.290064">
  <ele>343.1</ele>
  <time>2026-09-01T19:53:02Z</time>
  <course>270.0</course>
  <speed>0.0</speed>
  <fix>3d</fix>
</trkpt>
<trkpt lat="-27.2744392" lon="151.2900641">
  <ele>343.07</ele>
  <time>2026-09-01T19:53:02Z</time>
  <course>11.11</course>
  <speed>0.022360679774997897</speed>
  <fix>3d</fix>
</trkpt>
<trkpt lat="-27.274439" lon="151.290064">
  <ele>343.1</ele>
  <time>2026-09-01T19:53:02Z</time>
  <course>270.0</course>
  <speed>0.0</speed>
  <fix>3d</fix>
</trkpt>
<trkpt lat="-27.2744392" lon="151.2900641">
  <ele>343.07</ele>
  <time>2026-09-01T19:53:02Z</time>
  <course>11.11</course>
  <speed>0.022360679774997897</speed>
  <fix>3d</fix>
</trkpt>
<trkpt lat="-27.274439" lon="151.290064">
  <ele>343.1</ele>
  <time>2026-09-01T19:53:02Z</time>
  <course>270.0</course>
  <speed>0.0</speed>
  <fix>3d</fix>
</trkpt>
<trkpt lat="-27.2744392" lon="151.2900641">
  <ele>343.08</ele>
  <time>2026-09-01T19:53:02Z</time>
  <course>11.11</course>
  <speed>0.022360679774997897</speed>
  <fix>3d</fix>
</trkpt>
<trkpt lat="-27.274439" lon="151.290064">
  <ele>343.1</ele>
  <time>2026-09-01T19:53:02Z</time>
  <course>270.0</course>
  <speed>0.0</speed>
  <fix>3d</fix>
</trkpt>
<trkpt lat="-27.2744392" lon="151.2900641">
  <ele>343.08</ele>
  <time>2026-09-01T19:53:02Z</time>
  <course>11.11</course>
  <speed>0.022360679774997897</speed>
  <fix>3d</fix>
</trkpt>
<trkpt lat="-27.274439" lon="151.290064">
  <ele>343.1</ele>
  <time>2026-09-01T19:53:02Z</time>
  <course>270.0</course>
  <speed>0.0</speed>
  <fix>3d</fix>
</trkpt>
<trkpt lat="-27.2744392" lon="151.2900641">
  <ele>343.08</ele>
  <time>2026-09-01T19:53:02Z</time>
  <course>11.11</course>
  <speed>0.022360679774997897</speed>
  <fix>3d</fix>
</trkpt>
<trkpt lat="-27.274439" lon="151.290064">
  <ele>343.1</ele>
  <time>2026-09-01T19:53:02Z</time>
  <course>270.0</course>
  <speed>0.0</speed>
  <fix>3d</fix>
</trkpt>
<trkpt lat="-27.2744392" lon="151.2900641">
  <ele>343.08</ele>
  <time>2026-09-01T19:53:02Z</time>
  <course>11.11</course>
  <speed>0.022360679774997897</speed>
  <fix>3d</fix>
</trkpt>
<trkpt lat="-27.274439" lon="151.290064">
  <ele>343.1</ele>
  <time>2026-09-01T19:53:02Z</time>
  <course>270.0</course>
  <speed>0.0</speed>
  <fix>3d</fix>
</trkpt>
<trkpt lat="-27.2744392" lon="151.2900641">
  <ele>343.08</ele>
  <time>2026-09-01T19:53:02Z</time>
  <course>11.11</course>
  <speed>0.022360679774997897</speed>
  <fix>3d</fix>
</trkpt>
<trkpt lat="-27.274439" lon="151.290064">
  <ele>343.1</ele>
  <time>2026-09-01T19:53:02Z</time>
  <course>270.0</course>
  <speed>0.0</speed>
  <fix>3d</fix>
</trkpt>
<trkpt lat="-27.2744392" lon="151.2900641">
  <ele>343.08</ele>
  <time>2026-09-01T19:53:02Z</time>
  <course>11.11</course>
  <speed>0.022360679774997897</speed>
  <fix>3d</fix>
</trkpt>
<trkpt lat="-27.274439" lon="151.290064">
  <ele>343.1</ele>
  <time>2026-09-01T19:53:02Z</time>
  <course>270.0</course>
  <speed>0.0</speed>
  <fix>3d</fix>
</trkpt>
<trkpt lat="-27.2744392" lon="151.2900641">
  <ele>343.08</ele>
  <time>2026-09-01T19:53:02Z</time>
  <course>11.12</course>
  <speed>0.022360679774997897</speed>
  <fix>3d</fix>
</trkpt>
<trkpt lat="-27.274439" lon="151.290064">
  <ele>343.1</ele>
  <time>2026-09-01T19:53:02Z</time>
  <course>270.0</course>
  <speed>0.0</speed>
  <fix>3d</fix>
</trkpt>
<trkpt lat="-27.2744392" lon="151.2900641">
  <ele>343.08</ele>
  <time>2026-09-01T19:53:02Z</time>
  <course>11.12</course>
  <speed>0.022360679774997897</speed>
  <fix>3d</fix>
</trkpt>
<trkpt lat="-27.274439" lon="151.290064">
  <ele>343.1</ele>
  <time>2026-09-01T19:53:02Z</time>
  <course>270.0</course>
  <speed>0.0</speed>
  <fix>3d</fix>
</trkpt>
<trkpt lat="-27.2744392" lon="151.2900641">
  <ele>343.08</ele>
  <time>2026-09-01T19:53:02Z</time>
  <course>11.12</course>
  <speed>0.022360679774997897</speed>
  <fix>3d</fix>
</trkpt>
<trkpt lat="-27.274439" lon="151.290064">
  <ele>343.1</ele>
  <time>2026-09-01T19:53:02Z</time>
  <course>270.0</course>
  <speed>0.0</speed>
  <fix>3d</fix>
</trkpt>
<trkpt lat="-27.2744392" lon="151.2900641">
  <ele>343.08</ele>
  <time>2026-09-01T19:53:02Z</time>
  <course>11.12</course>
  <speed>0.022360679774997897</speed>
  <fix>3d</fix>
</trkpt>
<trkpt lat="-27.274439" lon="151.290064">
  <ele>343.1</ele>
  <time>2026-09-01T19:53:02Z</time>
  <course>270.0</course>
  <speed>0.0</speed>
  <fix>3d</fix>
</trkpt>
<trkpt lat="-27.2744392" lon="151.2900641">
  <ele>343.08</ele>
  <time>2026-09-01T19:53:02Z</time>
  <course>11.12</course>
  <speed>0.022360679774997897</speed>
  <fix>3d</fix>
</trkpt>
<trkpt lat="-27.274439" lon="151.290064">
  <ele>343.1</ele>
  <time>2026-09-01T19:53:02Z</time>
  <course>270.0</course>
  <speed>0.0</speed>
  <fix>3d</fix>
</trkpt>
<trkpt lat="-27.2744392" lon="151.2900641">
  <ele>343.08</ele>
  <time>2026-09-01T19:53:02Z</time>
  <course>11.12</course>
  <speed>0.022360679774997897</speed>
  <fix>3d</fix>
</trkpt>
<trkpt lat="-27.274439" lon="151.290064">
  <ele>343.1</ele>
  <time>2026-09-01T19:53:02Z</time>
  <course>270.0</course>
  <speed>0.0</speed>
  <fix>3d</fix>
</trkpt>
<trkpt lat="-27.2744392" lon="151.2900641">
  <ele>343.08</ele>
  <time>2026-09-01T19:53:02Z</time>
  <course>11.12</course>
  <speed>0.022360679774997897</speed>
  <fix>3d</fix>
</trkpt>
<trkpt lat="-27.274439" lon="151.290064">
  <ele>343.1</ele>
  <time>2026-09-01T19:53:02Z</time>
  <course>270.0</course>
  <speed>0.0</speed>
  <fix>3d</fix>
</trkpt>
<trkpt lat="-27.2744392" lon="151.2900641">
  <ele>343.08</ele>
  <time>2026-09-01T19:53:02Z</time>
  <course>11.12</course>
  <speed>0.022360679774997897</speed>
  <fix>3d</fix>
</trkpt>
<trkpt lat="-27.274439" lon="151.290064">
  <ele>343.1</ele>
  <time>2026-09-01T19:53:02Z</time>
  <course>270.0</course>
  <speed>0.0</speed>
  <fix>3d</fix>
</trkpt>
<trkpt lat="-27.2744392" lon="151.2900641">
  <ele>343.08</ele>
  <time>2026-09-01T19:53:02Z</time>
  <course>11.12</course>
  <speed>0.022360679774997897</speed>
  <fix>3d</fix>
</trkpt>
<trkpt lat="-27.274439" lon="151.290064">
  <ele>343.1</ele>
  <time>2026-09-01T19:53:02Z</time>
  <course>270.0</course>
  <speed>0.0</speed>
  <fix>3d</fix>
</trkpt>
<trkpt lat="-27.2744392" lon="151.2900641">
  <ele>343.08</ele>
  <time>2026-09-01T19:53:02Z</time>
  <course>11.12</course>
  <speed>0.022360679774997897</speed>
  <fix>3d</fix>
</trkpt>
<trkpt lat="-27.274439" lon="151.290064">
  <ele>343.1</ele>
  <time>2026-09-01T19:53:02Z</time>
  <course>270.0</course>
  <speed>0.0</speed>
  <fix>3d</fix>
</trkpt>
<trkpt lat="-27.2744392" lon="151.2900641">
  <ele>343.08</ele>
  <time>2026-09-01T19:53:02Z</time>
  <course>11.13</course>
  <speed>0.022360679774997897</speed>
  <fix>3d</fix>
</trkpt>
<trkpt lat="-27.274439" lon="151.290064">
  <ele>343.1</ele>
  <time>2026-09-01T19:53:02Z</time>
  <course>270.0</course>
  <speed>0.0</speed>
  <fix>3d</fix>
</trkpt>
<trkpt lat="-27.2744392" lon="151.2900641">
  <ele>343.08</ele>
  <time>2026-09-01T19:53:02Z</time>
  <course>11.13</course>
  <speed>0.022360679774997897</speed>
  <fix>3d</fix>
</trkpt>
<trkpt lat="-27.274439" lon="151.290064">
  <ele>343.1</ele>
  <time>2026-09-01T19:53:02Z</time>
  <course>270.0</course>
  <speed>0.0</speed>
  <fix>3d</fix>
</trkpt>
<trkpt lat="-27.2744392" lon="151.2900641">
  <ele>343.08</ele>
  <time>2026-09-01T19:53:02Z</time>
  <course>11.13</course>
  <speed>0.022360679774997897</speed>
  <fix>3d</fix>
</trkpt>
<trkpt lat="-27.274439" lon="151.290064">
  <ele>343.1</ele>
  <time>2026-09-01T19:53:02Z</time>
  <course>270.0</course>
  <speed>0.0</speed>
  <fix>3d</fix>
</trkpt>
<trkpt lat="-27.2744392" lon="151.2900641">
  <ele>343.08</ele>
  <time>2026-09-01T19:53:02Z</time>
  <course>11.13</course>
  <speed>0.022360679774997897</speed>
  <fix>3d</fix>
</trkpt>
<trkpt lat="-27.274439" lon="151.290064">
  <ele>343.1</ele>
  <time>2026-09-01T19:53:02Z</time>
  <course>270.0</course>
  <speed>0.0</speed>
  <fix>3d</fix>
</trkpt>
<trkpt lat="-27.2744392" lon="151.2900641">
  <ele>343.08</ele>
  <time>2026-09-01T19:53:02Z</time>
  <course>11.13</course>
  <speed>0.022360679774997897</speed>
  <fix>3d</fix>
</trkpt>
<trkpt lat="-27.274439" lon="151.290064">
  <ele>343.1</ele>
  <time>2026-09-01T19:53:02Z</time>
  <course>270.0</course>
  <speed>0.0</speed>
  <fix>3d</fix>
</trkpt>
<trkpt lat="-27.2744392" lon="151.2900641">
  <ele>343.08</ele>
  <time>2026-09-01T19:53:02Z</time>
  <course>11.13</course>
  <speed>0.022360679774997897</speed>
  <fix>3d</fix>
</trkpt>
<trkpt lat="-27.274439" lon="151.290064">
  <ele>343.1</ele>
  <time>2026-09-01T19:53:02Z</time>
  <course>270.0</course>
  <speed>0.0</speed>
  <fix>3d</fix>
</trkpt>
<trkpt lat="-27.2744392" lon="151.2900641">
  <ele>343.08</ele>
  <time>2026-09-01T19:53:02Z</time>
  <course>11.13</course>
  <speed>0.022360679774997897</speed>
  <fix>3d</fix>
</trkpt>
<trkpt lat="-27.274439" lon="151.290064">
  <ele>343.1</ele>
  <time>2026-09-01T19:53:02Z</time>
  <course>270.0</course>
  <speed>0.0</speed>
  <fix>3d</fix>
</trkpt>
<trkpt lat="-27.2744392" lon="151.2900641">
  <ele>343.08</ele>
  <time>2026-09-01T19:53:02Z</time>
  <course>11.13</course>
  <speed>0.022360679774997897</speed>
  <fix>3d</fix>
</trkpt>
<trkpt lat="-27.274439" lon="151.290064">
  <ele>343.1</ele>
  <time>2026-09-01T19:53:02Z</time>
  <course>270.0</course>
  <speed>0.0</speed>
  <fix>3d</fix>
</trkpt>
<trkpt lat="-27.2744392" lon="151.2900641">
  <ele>343.08</ele>
  <time>2026-09-01T19:53:02Z</time>
  <course>11.13</course>
  <speed>0.022360679774997897</speed>
  <fix>3d</fix>
</trkpt>
<trkpt lat="-27.274439" lon="151.290064">
  <ele>343.1</ele>
  <time>2026-09-01T19:53:02Z</time>
  <course>270.0</course>
  <speed>0.0</speed>
  <fix>3d</fix>
</trkpt>
<trkpt lat="-27.2744392" lon="151.2900641">
  <ele>343.08</ele>
  <time>2026-09-01T19:53:02Z</time>
  <course>11.13</course>
  <speed>0.022360679774997897</speed>
  <fix>3d</fix>
</trkpt>
<trkpt lat="-27.274439" lon="151.290064">
  <ele>343.1</ele>
  <time>2026-09-01T19:53:02Z</time>
  <course>270.0</course>
  <speed>0.0</speed>
  <fix>3d</fix>
</trkpt>
<trkpt lat="-27.2744392" lon="151.2900641">
  <ele>343.08</ele>
  <time>2026-09-01T19:53:02Z</time>
  <course>11.14</course>
  <speed>0.022360679774997897</speed>
  <fix>3d</fix>
</trkpt>
<trkpt lat="-27.274439" lon="151.290064">
  <ele>343.1</ele>
  <time>2026-09-01T19:53:02Z</time>
  <course>270.0</course>
  <speed>0.0</speed>
  <fix>3d</fix>
</trkpt>
<trkpt lat="-27.2744392" lon="151.2900641">
  <ele>343.08</ele>
  <time>2026-09-01T19:53:02Z</time>
  <course>11.14</course>
  <speed>0.022360679774997897</speed>
  <fix>3d</fix>
</trkpt>
<trkpt lat="-27.274439" lon="151.290064">
  <ele>343.1</ele>
  <time>2026-09-01T19:53:02Z</time>
  <course>270.0</course>
  <speed>0.0</speed>
  <fix>3d</fix>
</trkpt>
<trkpt lat="-27.2744392" lon="151.2900641">
  <ele>343.08</ele>
  <time>2026-09-01T19:53:02Z</time>
  <course>11.14</course>
  <speed>0.022360679774997897</speed>
  <fix>3d</fix>
</trkpt>
<trkpt lat="-27.274439" lon="151.290064">
  <ele>343.1</ele>
  <time>2026-09-01T19:53:02Z</time>
  <course>270.0</course>
  <speed>0.0</speed>
  <fix>3d</fix>
</trkpt>
<trkpt lat="-27.2744392" lon="151.2900641">
  <ele>343.08</ele>
  <time>2026-09-01T19:53:02Z</time>
  <course>11.14</course>
  <speed>0.022360679774997897</speed>
  <fix>3d</fix>
</trkpt>
<trkpt lat="-27.274439" lon="151.290064">
  <ele>343.1</ele>
  <time>2026-09-01T19:53:02Z</time>
  <course>270.0</course>
  <speed>0.0</speed>
  <fix>3d</fix>
</trkpt>
<trkpt lat="-27.2744392" lon="151.2900641">
  <ele>343.08</ele>
  <time>2026-09-01T19:53:02Z</time>
  <course>11.14</course>
  <speed>0.022360679774997897</speed>
  <fix>3d</fix>
</trkpt>
<trkpt lat="-27.274439" lon="151.290064">
  <ele>343.1</ele>
  <time>2026-09-01T19:53:02Z</time>
  <course>270.0</course>
  <speed>0.0</speed>
  <fix>3d</fix>
</trkpt>
<trkpt lat="-27.2744392" lon="151.2900641">
  <ele>343.08</ele>
  <time>2026-09-01T19:53:02Z</time>
  <course>11.14</course>
  <speed>0.022360679774997897</speed>
  <fix>3d</fix>
</trkpt>
<trkpt lat="-27.274439" lon="151.290064">
  <ele>343.1</ele>
  <time>2026-09-01T19:53:02Z</time>
  <course>270.0</course>
  <speed>0.0</speed>
  <fix>3d</fix>
</trkpt>
<trkpt lat="-27.2744392" lon="151.2900641">
  <ele>343.08</ele>
  <time>2026-09-01T19:53:02Z</time>
  <course>11.14</course>
  <speed>0.022360679774997897</speed>
  <fix>3d</fix>
</trkpt>
<trkpt lat="-27.274439" lon="151.290064">
  <ele>343.1</ele>
  <time>2026-09-01T19:53:02Z</time>
  <course>270.0</course>
  <speed>0.0</speed>
  <fix>3d</fix>
</trkpt>
<trkpt lat="-27.2744392" lon="151.2900641">
  <ele>343.09</ele>
  <time>2026-09-01T19:53:02Z</time>
  <course>11.14</course>
  <speed>0.022360679774997897</speed>
  <fix>3d</fix>
</trkpt>
<trkpt lat="-27.274439" lon="151.290064">
  <ele>343.1</ele>
  <time>2026-09-01T19:53:02Z</time>
  <course>270.0</course>
  <speed>0.0</speed>
  <fix>3d</fix>
</trkpt>
<trkpt lat="-27.2744392" lon="151.2900641">
  <ele>343.09</ele>
  <time>2026-09-01T19:53:02Z</time>
  <course>11.14</course>
  <speed>0.022360679774997897</speed>
  <fix>3d</fix>
</trkpt>
<trkpt lat="-27.274439" lon="151.290064">
  <ele>343.1</ele>
  <time>2026-09-01T19:53:02Z</time>
  <course>270.0</course>
  <speed>0.0</speed>
  <fix>3d</fix>
</trkpt>
<trkpt lat="-27.2744392" lon="151.2900641">
  <ele>343.1</ele>
  <time>2026-09-01T19:53:02Z</time>
  <course>11.15</course>
  <speed>0.022360679774997897</speed>
  <fix>3d</fix>
</trkpt>
<trkpt lat="-27.274439" lon="151.290064">
  <ele>343.1</ele>
  <time>2026-09-01T19:53:02Z</time>
  <course>270.0</course>
  <speed>0.0</speed>
  <fix>3d</fix>
</trkpt>
<trkpt lat="-27.2744392" lon="151.2900641">
  <ele>343.1</ele>
  <time>2026-09-01T19:53:02Z</time>
  <course>11.15</course>
  <speed>0.022360679774997897</speed>
  <fix>3d</fix>
</trkpt>
<trkpt lat="-27.274439" lon="151.290064">
  <ele>343.1</ele>
  <time>2026-09-01T19:53:02Z</time>
  <course>270.0</course>
  <speed>0.0</speed>
  <fix>3d</fix>
</trkpt>
<trkpt lat="-27.2744392" lon="151.2900641">
  <ele>343.1</ele>
  <time>2026-09-01T19:53:02Z</time>
  <course>11.15</course>
  <speed>0.022360679774997897</speed>
  <fix>3d</fix>
</trkpt>
<trkpt lat="-27.274439" lon="151.290064">
  <ele>343.1</ele>
  <time>2026-09-01T19:53:02Z</time>
  <course>270.0</course>
  <speed>0.0</speed>
  <fix>3d</fix>
</trkpt>
<trkpt lat="-27.2744392" lon="151.2900641">
  <ele>343.11</ele>
  <time>2026-09-01T19:53:02Z</time>
  <course>11.15</course>
  <speed>0.022360679774997897</speed>
  <fix>3d</fix>
</trkpt>
<trkpt lat="-27.274439" lon="151.290064">
  <ele>343.1</ele>
  <time>2026-09-01T19:53:02Z</time>
  <course>270.0</course>
  <speed>0.0</speed>
  <fix>3d</fix>
</trkpt>
<trkpt lat="-27.2744392" lon="151.2900641">
  <ele>343.11</ele>
  <time>2026-09-01T19:53:02Z</time>
  <course>11.15</course>
  <speed>0.022360679774997897</speed>
  <fix>3d</fix>
</trkpt>
<trkpt lat="-27.274439" lon="151.290064">
  <ele>343.1</ele>
  <time>2026-09-01T19:53:02Z</time>
  <course>270.0</course>
  <speed>0.0</speed>
  <fix>3d</fix>
</trkpt>
<trkpt lat="-27.2744392" lon="151.2900641">
  <ele>343.11</ele>
  <time>2026-09-01T19:53:02Z</time>
  <course>11.15</course>
  <speed>0.022360679774997897</speed>
  <fix>3d</fix>
</trkpt>
<trkpt lat="-27.274439" lon="151.290064">
  <ele>343.1</ele>
  <time>2026-09-01T19:53:02Z</time>
  <course>270.0</course>
  <speed>0.0</speed>
  <fix>3d</fix>
</trkpt>
<trkpt lat="-27.2744392" lon="151.2900641">
  <ele>343.12</ele>
  <time>2026-09-01T19:53:02Z</time>
  <course>11.15</course>
  <speed>0.022360679774997897</speed>
  <fix>3d</fix>
</trkpt>
<trkpt lat="-27.274439" lon="151.290064">
  <ele>343.1</ele>
  <time>2026-09-01T19:53:02Z</time>
  <course>270.0</course>
  <speed>0.0</speed>
  <fix>3d</fix>
</trkpt>
<trkpt lat="-27.2744392" lon="151.2900641">
  <ele>343.12</ele>
  <time>2026-09-01T19:53:02Z</time>
  <course>11.15</course>
  <speed>0.022360679774997897</speed>
  <fix>3d</fix>
</trkpt>
<trkpt lat="-27.274439" lon="151.290064">
  <ele>343.1</ele>
  <time>2026-09-01T19:53:02Z</time>
  <course>270.0</course>
  <speed>0.0</speed>
  <fix>3d</fix>
</trkpt>
<trkpt lat="-27.2744392" lon="151.2900641">
  <ele>343.13</ele>
  <time>2026-09-01T19:53:02Z</time>
  <course>11.15</course>
  <speed>0.022360679774997897</speed>
  <fix>3d</fix>
</trkpt>
<trkpt lat="-27.274439" lon="151.290064">
  <ele>343.1</ele>
  <time>2026-09-01T19:53:02Z</time>
  <course>270.0</course>
  <speed>0.0</speed>
  <fix>3d</fix>
</trkpt>
<trkpt lat="-27.2744392" lon="151.2900641">
  <ele>343.13</ele>
  <time>2026-09-01T19:53:02Z</time>
  <course>11.15</course>
  <speed>0.022360679774997897</speed>
  <fix>3d</fix>
</trkpt>
<trkpt lat="-27.274439" lon="151.290064">
  <ele>343.1</ele>
  <time>2026-09-01T19:53:02Z</time>
  <course>270.0</course>
  <speed>0.0</speed>
  <fix>3d</fix>
</trkpt>
<trkpt lat="-27.2744392" lon="151.2900641">
  <ele>343.13</ele>
  <time>2026-09-01T19:53:02Z</time>
  <course>11.16</course>
  <speed>0.022360679774997897</speed>
  <fix>3d</fix>
</trkpt>
<trkpt lat="-27.274439" lon="151.290064">
  <ele>343.1</ele>
  <time>2026-09-01T19:53:02Z</time>
  <course>270.0</course>
  <speed>0.0</speed>
  <fix>3d</fix>
</trkpt>
<trkpt lat="-27.2744392" lon="151.2900641">
  <ele>343.13</ele>
  <time>2026-09-01T19:53:02Z</time>
  <course>11.16</course>
  <speed>0.022360679774997897</speed>
  <fix>3d</fix>
</trkpt>
<trkpt lat="-27.274439" lon="151.290064">
  <ele>343.1</ele>
  <time>2026-09-01T19:53:02Z</time>
  <course>270.0</course>
  <speed>0.0</speed>
  <fix>3d</fix>
</trkpt>
<trkpt lat="-27.2744392" lon="151.2900641">
  <ele>343.14</ele>
  <time>2026-09-01T19:53:02Z</time>
  <course>11.16</course>
  <speed>0.022360679774997897</speed>
  <fix>3d</fix>
</trkpt>
<trkpt lat="-27.274439" lon="151.290064">
  <ele>343.1</ele>
  <time>2026-09-01T19:53:02Z</time>
  <course>270.0</course>
  <speed>0.0</speed>
  <fix>3d</fix>
</trkpt>
<trkpt lat="-27.2744392" lon="151.2900641">
  <ele>343.15</ele>
  <time>2026-09-01T19:53:02Z</time>
  <course>11.16</course>
  <speed>0.022360679774997897</speed>
  <fix>3d</fix>
</trkpt>
<trkpt lat="-27.274439" lon="151.290064">
  <ele>343.1</ele>
  <time>2026-09-01T19:53:02Z</time>
  <course>270.0</course>
  <speed>0.0</speed>
  <fix>3d</fix>
</trkpt>
<trkpt lat="-27.2744392" lon="151.2900641">
  <ele>343.15</ele>
  <time>2026-09-01T19:53:02Z</time>
  <course>11.16</course>
  <speed>0.022360679774997897</speed>
  <fix>3d</fix>
</trkpt>
<trkpt lat="-27.274439" lon="151.290064">
  <ele>343.1</ele>
  <time>2026-09-01T19:53:02Z</time>
  <course>270.0</course>
  <speed>0.0</speed>
  <fix>3d</fix>
</trkpt>
<trkpt lat="-27.2744392" lon="151.2900641">
  <ele>343.15</ele>
  <time>2026-09-01T19:53:02Z</time>
  <course>11.16</course>
  <speed>0.022360679774997897</speed>
  <fix>3d</fix>
</trkpt>
<trkpt lat="-27.274439" lon="151.290064">
  <ele>343.1</ele>
  <time>2026-09-01T19:53:02Z</time>
  <course>270.0</course>
  <speed>0.0</speed>
  <fix>3d</fix>
</trkpt>
<trkpt lat="-27.2744392" lon="151.2900641">
  <ele>343.16</ele>
  <time>2026-09-01T19:53:02Z</time>
  <course>11.16</course>
  <speed>0.022360679774997897</speed>
  <fix>3d</fix>
</trkpt>
<trkpt lat="-27.274439" lon="151.290064">
  <ele>343.1</ele>
  <time>2026-09-01T19:53:02Z</time>
  <course>270.0</course>
  <speed>0.0</speed>
  <fix>3d</fix>
</trkpt>
<trkpt lat="-27.2744392" lon="151.2900641">
  <ele>343.16</ele>
  <time>2026-09-01T19:53:02Z</time>
  <course>11.16</course>
  <speed>0.022360679774997897</speed>
  <fix>3d</fix>
</trkpt>
<trkpt lat="-27.274439" lon="151.290064">
  <ele>343.1</ele>
  <time>2026-09-01T19:53:02Z</time>
  <course>270.0</course>
  <speed>0.0</speed>
  <fix>3d</fix>
</trkpt>
<trkpt lat="-27.2744392" lon="151.2900641">
  <ele>343.16</ele>
  <time>2026-09-01T19:53:02Z</time>
  <course>11.16</course>
  <speed>0.022360679774997897</speed>
  <fix>3d</fix>
</trkpt>
<trkpt lat="-27.274439" lon="151.290064">
  <ele>343.1</ele>
  <time>2026-09-01T19:53:02Z</time>
  <course>270.0</course>
  <speed>0.0</speed>
  <fix>3d</fix>
</trkpt>
<trkpt lat="-27.2744392" lon="151.2900641">
  <ele>343.16</ele>
  <time>2026-09-01T19:53:02Z</time>
  <course>11.16</course>
  <speed>0.022360679774997897</speed>
  <fix>3d</fix>
</trkpt>
<trkpt lat="-27.274439" lon="151.290064">
  <ele>343.1</ele>
  <time>2026-09-01T19:53:02Z</time>
  <course>270.0</course>
  <speed>0.0</speed>
  <fix>3d</fix>
</trkpt>
<trkpt lat="-27.2744392" lon="151.2900641">
  <ele>343.17</ele>
  <time>2026-09-01T19:53:02Z</time>
  <course>11.17</course>
  <speed>0.022360679774997897</speed>
  <fix>3d</fix>
</trkpt>
<trkpt lat="-27.274439" lon="151.290064">
  <ele>343.1</ele>
  <time>2026-09-01T19:53:02Z</time>
  <course>270.0</course>
  <speed>0.0</speed>
  <fix>3d</fix>
</trkpt>
<trkpt lat="-27.2744392" lon="151.2900641">
  <ele>343.17</ele>
  <time>2026-09-01T19:53:02Z</time>
  <course>11.17</course>
  <speed>0.022360679774997897</speed>
  <fix>3d</fix>
</trkpt>
<trkpt lat="-27.274439" lon="151.290064">
  <ele>343.1</ele>
  <time>2026-09-01T19:53:02Z</time>
  <course>270.0</course>
  <speed>0.0</speed>
  <fix>3d</fix>
</trkpt>
<trkpt lat="-27.2744392" lon="151.2900641">
  <ele>343.18</ele>
  <time>2026-09-01T19:53:02Z</time>
  <course>11.17</course>
  <speed>0.022360679774997897</speed>
  <fix>3d</fix>
</trkpt>
<trkpt lat="-27.274439" lon="151.290064">
  <ele>343.1</ele>
  <time>2026-09-01T19:53:02Z</time>
  <course>270.0</course>
  <speed>0.0</speed>
  <fix>3d</fix>
</trkpt>
<trkpt lat="-27.2744392" lon="151.2900641">
  <ele>343.18</ele>
  <time>2026-09-01T19:53:02Z</time>
  <course>11.17</course>
  <speed>0.022360679774997897</speed>
  <fix>3d</fix>
</trkpt>
<trkpt lat="-27.274439" lon="151.290064">
  <ele>343.1</ele>
  <time>2026-09-01T19:53:02Z</time>
  <course>270.0</course>
  <speed>0.0</speed>
  <fix>3d</fix>
</trkpt>
<trkpt lat="-27.2744392" lon="151.2900641">
  <ele>343.18</ele>
  <time>2026-09-01T19:53:02Z</time>
  <course>11.17</course>
  <speed>0.022360679774997897</speed>
  <fix>3d</fix>
</trkpt>
<trkpt lat="-27.274439" lon="151.290064">
  <ele>343.1</ele>
  <time>2026-09-01T19:53:02Z</time>
  <course>270.0</course>
  <speed>0.0</speed>
  <fix>3d</fix>
</trkpt>
<trkpt lat="-27.2744392" lon="151.2900641">
  <ele>343.19</ele>
  <time>2026-09-01T19:53:02Z</time>
  <course>11.17</course>
  <speed>0.022360679774997897</speed>
  <fix>3d</fix>
</trkpt>
<trkpt lat="-27.274439" lon="151.290064">
  <ele>343.1</ele>
  <time>2026-09-01T19:53:02Z</time>
  <course>270.0</course>
  <speed>0.0</speed>
  <fix>3d</fix>
</trkpt>
<trkpt lat="-27.2744392" lon="151.2900641">
  <ele>343.19</ele>
  <time>2026-09-01T19:53:02Z</time>
  <course>11.17</course>
  <speed>0.022360679774997897</speed>
  <fix>3d</fix>
</trkpt>
<trkpt lat="-27.274439" lon="151.290064">
  <ele>343.1</ele>
  <time>2026-09-01T19:53:02Z</time>
  <course>270.0</course>
  <speed>0.0</speed>
  <fix>3d</fix>
</trkpt>
<trkpt lat="-27.2744392" lon="151.2900641">
  <ele>343.19</ele>
  <time>2026-09-01T19:53:02Z</time>
  <course>11.17</course>
  <speed>0.022360679774997897</speed>
  <fix>3d</fix>
</trkpt>
<trkpt lat="-27.274439" lon="151.290064">
  <ele>343.1</ele>
  <time>2026-09-01T19:53:02Z</time>
  <course>270.0</course>
  <speed>0.0</speed>
  <fix>3d</fix>
</trkpt>
<trkpt lat="-27.2744392" lon="151.2900641">
  <ele>343.19</ele>
  <time>2026-09-01T19:53:02Z</time>
  <course>11.17</course>
  <speed>0.022360679774997897</speed>
  <fix>3d</fix>
</trkpt>
<trkpt lat="-27.274439" lon="151.290064">
  <ele>343.1</ele>
  <time>2026-09-01T19:53:02Z</time>
  <course>270.0</course>
  <speed>0.0</speed>
  <fix>3d</fix>
</trkpt>
<trkpt lat="-27.2744392" lon="151.2900641">
  <ele>343.2</ele>
  <time>2026-09-01T19:53:02Z</time>
  <course>11.17</course>
  <speed>0.022360679774997897</speed>
  <fix>3d</fix>
</trkpt>
<trkpt lat="-27.274439" lon="151.290064">
  <ele>343.1</ele>
  <time>2026-09-01T19:53:02Z</time>
  <course>270.0</course>
  <speed>0.0</speed>
  <fix>3d</fix>
</trkpt>
<trkpt lat="-27.2744392" lon="151.2900641">
  <ele>343.2</ele>
  <time>2026-09-01T19:53:02Z</time>
  <course>11.18</course>
  <speed>0.022360679774997897</speed>
  <fix>3d</fix>
</trkpt>
<trkpt lat="-27.274439" lon="151.290064">
  <ele>343.1</ele>
  <time>2026-09-01T19:53:02Z</time>
  <course>270.0</course>
  <speed>0.0</speed>
  <fix>3d</fix>
</trkpt>
<trkpt lat="-27.2744392" lon="151.2900641">
  <ele>343.2</ele>
  <time>2026-09-01T19:53:02Z</time>
  <course>11.18</course>
  <speed>0.022360679774997897</speed>
  <fix>3d</fix>
</trkpt>
<trkpt lat="-27.274439" lon="151.290064">
  <ele>343.1</ele>
  <time>2026-09-01T19:53:02Z</time>
  <course>270.0</course>
  <speed>0.0</speed>
  <fix>3d</fix>
</trkpt>
<trkpt lat="-27.2744392" lon="151.2900641">
  <ele>343.21</ele>
  <time>2026-09-01T19:53:02Z</time>
  <course>11.18</course>
  <speed>0.022360679774997897</speed>
  <fix>3d</fix>
</trkpt>
<trkpt lat="-27.274439" lon="151.290064">
  <ele>343.1</ele>
  <time>2026-09-01T19:53:02Z</time>
  <course>270.0</course>
  <speed>0.0</speed>
  <fix>3d</fix>
</trkpt>
<trkpt lat="-27.2744392" lon="151.2900641">
  <ele>343.21</ele>
  <time>2026-09-01T19:53:02Z</time>
  <course>11.18</course>
  <speed>0.022360679774997897</speed>
  <fix>3d</fix>
</trkpt>
<trkpt lat="-27.274439" lon="151.290064">
  <ele>343.1</ele>
  <time>2026-09-01T19:53:02Z</time>
  <course>270.0</course>
  <speed>0.0</speed>
  <fix>3d</fix>
</trkpt>
<trkpt lat="-27.2744392" lon="151.2900641">
  <ele>343.21</ele>
  <time>2026-09-01T19:53:02Z</time>
  <course>11.18</course>
  <speed>0.022360679774997897</speed>
  <fix>3d</fix>
</trkpt>
<trkpt lat="-27.274439" lon="151.290064">
  <ele>343.1</ele>
  <time>2026-09-01T19:53:02Z</time>
  <course>270.0</course>
  <speed>0.0</speed>
  <fix>3d</fix>
</trkpt>
<trkpt lat="-27.2744392" lon="151.2900641">
  <ele>343.22</ele>
  <time>2026-09-01T19:53:02Z</time>
  <course>11.18</course>
  <speed>0.022360679774997897</speed>
  <fix>3d</fix>
</trkpt>
<trkpt lat="-27.274439" lon="151.290064">
  <ele>343.1</ele>
  <time>2026-09-01T19:53:02Z</time>
  <course>270.0</course>
  <speed>0.0</speed>
  <fix>3d</fix>
</trkpt>
<trkpt lat="-27.2744392" lon="151.2900641">
  <ele>343.22</ele>
  <time>2026-09-01T19:53:02Z</time>
  <course>11.18</course>
  <speed>0.022360679774997897</speed>
  <fix>3d</fix>
</trkpt>
<trkpt lat="-27.274439" lon="151.290064">
  <ele>343.1</ele>
  <time>2026-09-01T19:53:02Z</time>
  <course>270.0</course>
  <speed>0.0</speed>
  <fix>3d</fix>
</trkpt>
<trkpt lat="-27.2744392" lon="151.2900641">
  <ele>343.22</ele>
  <time>2026-09-01T19:53:02Z</time>
  <course>11.18</course>
  <speed>0.022360679774997897</speed>
  <fix>3d</fix>
</trkpt>
<trkpt lat="-27.274439" lon="151.290064">
  <ele>343.1</ele>
  <time>2026-09-01T19:53:02Z</time>
  <course>270.0</course>
  <speed>0.0</speed>
  <fix>3d</fix>
</trkpt>
<trkpt lat="-27.2744392" lon="151.2900641">
  <ele>343.23</ele>
  <time>2026-09-01T19:53:02Z</time>
  <course>11.18</course>
  <speed>0.022360679774997897</speed>
  <fix>3d</fix>
</trkpt>
<trkpt lat="-27.274439" lon="151.290064">
  <ele>343.1</ele>
  <time>2026-09-01T19:53:02Z</time>
  <course>270.0</course>
  <speed>0.0</speed>
  <fix>3d</fix>
</trkpt>
<trkpt lat="-27.2744392" lon="151.2900641">
  <ele>343.23</ele>
  <time>2026-09-01T19:53:02Z</time>
  <course>11.19</course>
  <speed>0.022360679774997897</speed>
  <fix>3d</fix>
</trkpt>
<trkpt lat="-27.274439" lon="151.290064">
  <ele>343.1</ele>
  <time>2026-09-01T19:53:02Z</time>
  <course>270.0</course>
  <speed>0.0</speed>
  <fix>3d</fix>
</trkpt>
<trkpt lat="-27.2744392" lon="151.2900641">
  <ele>343.23</ele>
  <time>2026-09-01T19:53:02Z</time>
  <course>11.19</course>
  <speed>0.022360679774997897</speed>
  <fix>3d</fix>
</trkpt>
<trkpt lat="-27.274439" lon="151.290064">
  <ele>343.1</ele>
  <time>2026-09-01T19:53:02Z</time>
  <course>270.0</course>
  <speed>0.0</speed>
  <fix>3d</fix>
</trkpt>
<trkpt lat="-27.2744392" lon="151.2900641">
  <ele>343.23</ele>
  <time>2026-09-01T19:53:02Z</time>
  <course>11.19</course>
  <speed>0.022360679774997897</speed>
  <fix>3d</fix>
</trkpt>
<trkpt lat="-27.274439" lon="151.290064">
  <ele>343.1</ele>
  <time>2026-09-01T19:53:02Z</time>
  <course>270.0</course>
  <speed>0.0</speed>
  <fix>3d</fix>
</trkpt>
<trkpt lat="-27.2744392" lon="151.2900641">
  <ele>343.24</ele>
  <time>2026-09-01T19:53:02Z</time>
  <course>11.19</course>
  <speed>0.022360679774997897</speed>
  <fix>3d</fix>
</trkpt>
<trkpt lat="-27.274439" lon="151.290064">
  <ele>343.1</ele>
  <time>2026-09-01T19:53:02Z</time>
  <course>270.0</course>
  <speed>0.0</speed>
  <fix>3d</fix>
</trkpt>
<trkpt lat="-27.2744392" lon="151.2900641">
  <ele>343.24</ele>
  <time>2026-09-01T19:53:02Z</time>
  <course>11.19</course>
  <speed>0.022360679774997897</speed>
  <fix>3d</fix>
</trkpt>
<trkpt lat="-27.274439" lon="151.290064">
  <ele>343.1</ele>
  <time>2026-09-01T19:53:02Z</time>
  <course>270.0</course>
  <speed>0.0</speed>
  <fix>3d</fix>
</trkpt>
<trkpt lat="-27.2744392" lon="151.2900641">
  <ele>343.24</ele>
  <time>2026-09-01T19:53:02Z</time>
  <course>11.19</course>
  <speed>0.022360679774997897</speed>
  <fix>3d</fix>
</trkpt>
<trkpt lat="-27.274439" lon="151.290064">
  <ele>343.1</ele>
  <time>2026-09-01T19:53:02Z</time>
  <course>270.0</course>
  <speed>0.0</speed>
  <fix>3d</fix>
</trkpt>
<trkpt lat="-27.2744392" lon="151.2900641">
  <ele>343.24</ele>
  <time>2026-09-01T19:53:02Z</time>
  <course>11.19</course>
  <speed>0.022360679774997897</speed>
  <fix>3d</fix>
</trkpt>
<trkpt lat="-27.274439" lon="151.290064">
  <ele>343.1</ele>
  <time>2026-09-01T19:53:02Z</time>
  <course>270.0</course>
  <speed>0.0</speed>
  <fix>3d</fix>
</trkpt>
<trkpt lat="-27.2744392" lon="151.2900641">
  <ele>343.24</ele>
  <time>2026-09-01T19:53:02Z</time>
  <course>11.19</course>
  <speed>0.022360679774997897</speed>
  <fix>3d</fix>
</trkpt>
<trkpt lat="-27.274439" lon="151.290064">
  <ele>343.1</ele>
  <time>2026-09-01T19:53:02Z</time>
  <course>270.0</course>
  <speed>0.0</speed>
  <fix>3d</fix>
</trkpt>
<trkpt lat="-27.2744392" lon="151.2900641">
  <ele>343.24</ele>
  <time>2026-09-01T19:53:02Z</time>
  <course>11.19</course>
  <speed>0.022360679774997897</speed>
  <fix>3d</fix>
</trkpt>
<trkpt lat="-27.274439" lon="151.290064">
  <ele>343.1</ele>
  <time>2026-09-01T19:53:02Z</time>
  <course>270.0</course>
  <speed>0.0</speed>
  <fix>3d</fix>
</trkpt>
<trkpt lat="-27.2744392" lon="151.2900641">
  <ele>343.24</ele>
  <time>2026-09-01T19:53:02Z</time>
  <course>11.19</course>
  <speed>0.022360679774997897</speed>
  <fix>3d</fix>
</trkpt>
<trkpt lat="-27.274439" lon="151.290064">
  <ele>343.1</ele>
  <time>2026-09-01T19:53:02Z</time>
  <course>270.0</course>
  <speed>0.0</speed>
  <fix>3d</fix>
</trkpt>
<trkpt lat="-27.2744392" lon="151.2900641">
  <ele>343.24</ele>
  <time>2026-09-01T19:53:02Z</time>
  <course>11.2</course>
  <speed>0.022360679774997897</speed>
  <fix>3d</fix>
</trkpt>
<trkpt lat="-27.274439" lon="151.290064">
  <ele>343.1</ele>
  <time>2026-09-01T19:53:02Z</time>
  <course>270.0</course>
  <speed>0.0</speed>
  <fix>3d</fix>
</trkpt>
<trkpt lat="-27.2744392" lon="151.2900641">
  <ele>343.24</ele>
  <time>2026-09-01T19:53:02Z</time>
  <course>11.2</course>
  <speed>0.022360679774997897</speed>
  <fix>3d</fix>
</trkpt>
<trkpt lat="-27.274439" lon="151.290064">
  <ele>343.1</ele>
  <time>2026-09-01T19:53:02Z</time>
  <course>270.0</course>
  <speed>0.0</speed>
  <fix>3d</fix>
</trkpt>
<trkpt lat="-27.2744392" lon="151.2900641">
  <ele>343.24</ele>
  <time>2026-09-01T19:53:02Z</time>
  <course>11.2</course>
  <speed>0.022360679774997897</speed>
  <fix>3d</fix>
</trkpt>
<trkpt lat="-27.274439" lon="151.290064">
  <ele>343.1</ele>
  <time>2026-09-01T19:53:02Z</time>
  <course>270.0</course>
  <speed>0.0</speed>
  <fix>3d</fix>
</trkpt>
<trkpt lat="-27.2744392" lon="151.2900641">
  <ele>343.24</ele>
  <time>2026-09-01T19:53:02Z</time>
  <course>11.2</course>
  <speed>0.022360679774997897</speed>
  <fix>3d</fix>
</trkpt>
<trkpt lat="-27.274439" lon="151.290064">
  <ele>343.1</ele>
  <time>2026-09-01T19:53:02Z</time>
  <course>270.0</course>
  <speed>0.0</speed>
  <fix>3d</fix>
</trkpt>
<trkpt lat="-27.2744392" lon="151.2900641">
  <ele>343.24</ele>
  <time>2026-09-01T19:53:02Z</time>
  <course>11.2</course>
  <speed>0.022360679774997897</speed>
  <fix>3d</fix>
</trkpt>
<trkpt lat="-27.274439" lon="151.290064">
  <ele>343.1</ele>
  <time>2026-09-01T19:53:02Z</time>
  <course>270.0</course>
  <speed>0.0</speed>
  <fix>3d</fix>
</trkpt>
<trkpt lat="-27.2744392" lon="151.2900641">
  <ele>343.24</ele>
  <time>2026-09-01T19:53:02Z</time>
  <course>11.2</course>
  <speed>0.022360679774997897</speed>
  <fix>3d</fix>
</trkpt>
<trkpt lat="-27.274439" lon="151.290064">
  <ele>343.1</ele>
  <time>2026-09-01T19:53:02Z</time>
  <course>270.0</course>
  <speed>0.0</speed>
  <fix>3d</fix>
</trkpt>
<trkpt lat="-27.2744392" lon="151.2900641">
  <ele>343.24</ele>
  <time>2026-09-01T19:53:02Z</time>
  <course>11.2</course>
  <speed>0.022360679774997897</speed>
  <fix>3d</fix>
</trkpt>
<trkpt lat="-27.274439" lon="151.290064">
  <ele>343.1</ele>
  <time>2026-09-01T19:53:02Z</time>
  <course>270.0</course>
  <speed>0.0</speed>
  <fix>3d</fix>
</trkpt>
<trkpt lat="-27.2744392" lon="151.2900641">
  <ele>343.24</ele>
  <time>2026-09-01T19:53:02Z</time>
  <course>11.2</course>
  <speed>0.022360679774997897</speed>
  <fix>3d</fix>
</trkpt>
<trkpt lat="-27.274439" lon="151.290064">
  <ele>343.1</ele>
  <time>2026-09-01T19:53:02Z</time>
  <course>270.0</course>
  <speed>0.0</speed>
  <fix>3d</fix>
</trkpt>
<trkpt lat="-27.2744392" lon="151.2900641">
  <ele>343.24</ele>
  <time>2026-09-01T19:53:02Z</time>
  <course>11.2</course>
  <speed>0.022360679774997897</speed>
  <fix>3d</fix>
</trkpt>
<trkpt lat="-27.274439" lon="151.290064">
  <ele>343.1</ele>
  <time>2026-09-01T19:53:02Z</time>
  <course>270.0</course>
  <speed>0.0</speed>
  <fix>3d</fix>
</trkpt>
<trkpt lat="-27.2744392" lon="151.2900641">
  <ele>343.1</ele>
  <time>2026-09-01T19:53:02Z</time>
  <course>11.2</course>
  <speed>0.022360679774997897</speed>
  <fix>3d</fix>
</trkpt>
<trkpt lat="-27.274439" lon="151.290064">
  <ele>343.1</ele>
  <time>2026-09-01T19:53:02Z</time>
  <course>270.0</course>
  <speed>0.0</speed>
  <fix>3d</fix>
</trkpt>
<trkpt lat="-27.2744392" lon="151.2900641">
  <ele>343.1</ele>
  <time>2026-09-01T19:53:02Z</time>
  <course>11.21</course>
  <speed>0.022360679774997897</speed>
  <fix>3d</fix>
</trkpt>
<trkpt lat="-27.274439" lon="151.290064">
  <ele>343.1</ele>
  <time>2026-09-01T19:53:02Z</time>
  <course>270.0</course>
  <speed>0.0</speed>
  <fix>3d</fix>
</trkpt>
<trkpt lat="-27.2744392" lon="151.2900641">
  <ele>343.1</ele>
  <time>2026-09-01T19:53:02Z</time>
  <course>11.21</course>
  <speed>0.022360679774997897</speed>
  <fix>3d</fix>
</trkpt>
<trkpt lat="-27.274439" lon="151.290064">
  <ele>343.1</ele>
  <time>2026-09-01T19:53:02Z</time>
  <course>270.0</course>
  <speed>0.0</speed>
  <fix>3d</fix>
</trkpt>
<trkpt lat="-27.2744392" lon="151.2900641">
  <ele>343.1</ele>
  <time>2026-09-01T19:53:02Z</time>
  <course>11.21</course>
  <speed>0.022360679774997897</speed>
  <fix>3d</fix>
</trkpt>
<trkpt lat="-27.274439" lon="151.290064">
  <ele>343.1</ele>
  <time>2026-09-01T19:53:02Z</time>
  <course>270.0</course>
  <speed>0.0</speed>
  <fix>3d</fix>
</trkpt>
<trkpt lat="-27.2744392" lon="151.2900641">
  <ele>343.1</ele>
  <time>2026-09-01T19:53:02Z</time>
  <course>11.21</course>
  <speed>0.022360679774997897</speed>
  <fix>3d</fix>
</trkpt>
<trkpt lat="-27.274439" lon="151.290064">
  <ele>343.1</ele>
  <time>2026-09-01T19:53:02Z</time>
  <course>270.0</course>
  <speed>0.0</speed>
  <fix>3d</fix>
</trkpt>
<trkpt lat="-27.2744392" lon="151.2900641">
  <ele>343.1</ele>
  <time>2026-09-01T19:53:02Z</time>
  <course>11.21</course>
  <speed>0.022360679774997897</speed>
  <fix>3d</fix>
</trkpt>
<trkpt lat="-27.274439" lon="151.290064">
  <ele>343.1</ele>
  <time>2026-09-01T19:53:02Z</time>
  <course>270.0</course>
  <speed>0.0</speed>
  <fix>3d</fix>
</trkpt>
<trkpt lat="-27.2744392" lon="151.2900641">
  <ele>343.09</ele>
  <time>2026-09-01T19:53:02Z</time>
  <course>11.21</course>
  <speed>0.022360679774997897</speed>
  <fix>3d</fix>
</trkpt>
<trkpt lat="-27.274439" lon="151.290064">
  <ele>343.1</ele>
  <time>2026-09-01T19:53:02Z</time>
  <course>270.0</course>
  <speed>0.0</speed>
  <fix>3d</fix>
</trkpt>
<trkpt lat="-27.2744392" lon="151.2900641">
  <ele>343.09</ele>
  <time>2026-09-01T19:53:02Z</time>
  <course>11.21</course>
  <speed>0.022360679774997897</speed>
  <fix>3d</fix>
</trkpt>
<trkpt lat="-27.274439" lon="151.290064">
  <ele>343.1</ele>
  <time>2026-09-01T19:53:02Z</time>
  <course>270.0</course>
  <speed>0.0</speed>
  <fix>3d</fix>
</trkpt>
<trkpt lat="-27.2744392" lon="151.2900641">
  <ele>343.09</ele>
  <time>2026-09-01T19:53:02Z</time>
  <course>11.21</course>
  <speed>0.022360679774997897</speed>
  <fix>3d</fix>
</trkpt>
<trkpt lat="-27.274439" lon="151.290064">
  <ele>343.1</ele>
  <time>2026-09-01T19:53:02Z</time>
  <course>270.0</course>
  <speed>0.0</speed>
  <fix>3d</fix>
</trkpt>
<trkpt lat="-27.2744392" lon="151.2900641">
  <ele>343.09</ele>
  <time>2026-09-01T19:53:02Z</time>
  <course>11.21</course>
  <speed>0.022360679774997897</speed>
  <fix>3d</fix>
</trkpt>
<trkpt lat="-27.274439" lon="151.290064">
  <ele>343.1</ele>
  <time>2026-09-01T19:53:02Z</time>
  <course>270.0</course>
  <speed>0.0</speed>
  <fix>3d</fix>
</trkpt>
<trkpt lat="-27.2744392" lon="151.2900641">
  <ele>343.1</ele>
  <time>2026-09-01T19:53:02Z</time>
  <course>11.22</course>
  <speed>0.022360679774997897</speed>
  <fix>3d</fix>
</trkpt>
<trkpt lat="-27.274439" lon="151.290064">
  <ele>343.1</ele>
  <time>2026-09-01T19:53:02Z</time>
  <course>270.0</course>
  <speed>0.0</speed>
  <fix>3d</fix>
</trkpt>
<trkpt lat="-27.2744392" lon="151.2900641">
  <ele>343.1</ele>
  <time>2026-09-01T19:53:02Z</time>
  <course>11.22</course>
  <speed>0.022360679774997897</speed>
  <fix>3d</fix>
</trkpt>
<trkpt lat="-27.274439" lon="151.290064">
  <ele>343.1</ele>
  <time>2026-09-01T19:53:02Z</time>
  <course>270.0</course>
  <speed>0.0</speed>
  <fix>3d</fix>
</trkpt>
<trkpt lat="-27.2744392" lon="151.2900641">
  <ele>343.1</ele>
  <time>2026-09-01T19:53:02Z</time>
  <course>11.22</course>
  <speed>0.022360679774997897</speed>
  <fix>3d</fix>
</trkpt>
<trkpt lat="-27.274439" lon="151.290064">
  <ele>343.1</ele>
  <time>2026-09-01T19:53:02Z</time>
  <course>270.0</course>
  <speed>0.0</speed>
  <fix>3d</fix>
</trkpt>
<trkpt lat="-27.2744392" lon="151.2900641">
  <ele>343.1</ele>
  <time>2026-09-01T19:53:02Z</time>
  <course>11.22</course>
  <speed>0.022360679774997897</speed>
  <fix>3d</fix>
</trkpt>
<trkpt lat="-27.274439" lon="151.290064">
  <ele>343.1</ele>
  <time>2026-09-01T19:53:02Z</time>
  <course>270.0</course>
  <speed>0.0</speed>
  <fix>3d</fix>
</trkpt>
<trkpt lat="-27.2744392" lon="151.2900641">
  <ele>343.1</ele>
  <time>2026-09-01T19:53:02Z</time>
  <course>11.22</course>
  <speed>0.022360679774997897</speed>
  <fix>3d</fix>
</trkpt>
<trkpt lat="-27.274439" lon="151.290064">
  <ele>343.1</ele>
  <time>2026-09-01T19:53:02Z</time>
  <course>270.0</course>
  <speed>0.0</speed>
  <fix>3d</fix>
</trkpt>
<trkpt lat="-27.2744392" lon="151.2900641">
  <ele>343.1</ele>
  <time>2026-09-01T19:53:02Z</time>
  <course>11.22</course>
  <speed>0.022360679774997897</speed>
  <fix>3d</fix>
</trkpt>
<trkpt lat="-27.274439" lon="151.290064">
  <ele>343.1</ele>
  <time>2026-09-01T19:53:02Z</time>
  <course>270.0</course>
  <speed>0.0</speed>
  <fix>3d</fix>
</trkpt>
<trkpt lat="-27.2744392" lon="151.2900641">
  <ele>343.1</ele>
  <time>2026-09-01T19:53:02Z</time>
  <course>11.22</course>
  <speed>0.022360679774997897</speed>
  <fix>3d</fix>
</trkpt>
<trkpt lat="-27.274439" lon="151.290064">
  <ele>343.1</ele>
  <time>2026-09-01T19:53:02Z</time>
  <course>270.0</course>
  <speed>0.0</speed>
  <fix>3d</fix>
</trkpt>
<trkpt lat="-27.2744392" lon="151.2900641">
  <ele>343.11</ele>
  <time>2026-09-01T19:53:02Z</time>
  <course>11.22</course>
  <speed>0.022360679774997897</speed>
  <fix>3d</fix>
</trkpt>
<trkpt lat="-27.274439" lon="151.290064">
  <ele>343.1</ele>
  <time>2026-09-01T19:53:02Z</time>
  <course>270.0</course>
  <speed>0.0</speed>
  <fix>3d</fix>
</trkpt>
<trkpt lat="-27.2744392" lon="151.2900641">
  <ele>343.11</ele>
  <time>2026-09-01T19:53:02Z</time>
  <course>11.22</course>
  <speed>0.022360679774997897</speed>
  <fix>3d</fix>
</trkpt>
<trkpt lat="-27.274439" lon="151.290064">
  <ele>343.1</ele>
  <time>2026-09-01T19:53:02Z</time>
  <course>270.0</course>
  <speed>0.0</speed>
  <fix>3d</fix>
</trkpt>
<trkpt lat="-27.2744392" lon="151.2900641">
  <ele>343.11</ele>
  <time>2026-09-01T19:53:02Z</time>
  <course>11.23</course>
  <speed>0.022360679774997897</speed>
  <fix>3d</fix>
</trkpt>
<trkpt lat="-27.274439" lon="151.290064">
  <ele>343.1</ele>
  <time>2026-09-01T19:53:02Z</time>
  <course>270.0</course>
  <speed>0.0</speed>
  <fix>3d</fix>
</trkpt>
<trkpt lat="-27.2744392" lon="151.2900641">
  <ele>343.11</ele>
  <time>2026-09-01T19:53:02Z</time>
  <course>11.23</course>
  <speed>0.022360679774997897</speed>
  <fix>3d</fix>
</trkpt>
<trkpt lat="-27.274439" lon="151.290064">
  <ele>343.1</ele>
  <time>2026-09-01T19:53:02Z</time>
  <course>270.0</course>
  <speed>0.0</speed>
  <fix>3d</fix>
</trkpt>
<trkpt lat="-27.2744392" lon="151.2900641">
  <ele>343.11</ele>
  <time>2026-09-01T19:53:02Z</time>
  <course>11.23</course>
  <speed>0.022360679774997897</speed>
  <fix>3d</fix>
</trkpt>
<trkpt lat="-27.274439" lon="151.290064">
  <ele>343.1</ele>
  <time>2026-09-01T19:53:02Z</time>
  <course>270.0</course>
  <speed>0.0</speed>
  <fix>3d</fix>
</trkpt>
<trkpt lat="-27.2744392" lon="151.2900641">
  <ele>343.11</ele>
  <time>2026-09-01T19:53:02Z</time>
  <course>11.23</course>
  <speed>0.022360679774997897</speed>
  <fix>3d</fix>
</trkpt>
<trkpt lat="-27.274439" lon="151.290064">
  <ele>343.1</ele>
  <time>2026-09-01T19:53:02Z</time>
  <course>270.0</course>
  <speed>0.0</speed>
  <fix>3d</fix>
</trkpt>
<trkpt lat="-27.2744392" lon="151.2900641">
  <ele>343.11</ele>
  <time>2026-09-01T19:53:02Z</time>
  <course>11.23</course>
  <speed>0.022360679774997897</speed>
  <fix>3d</fix>
</trkpt>
<trkpt lat="-27.274439" lon="151.290064">
  <ele>343.1</ele>
  <time>2026-09-01T19:53:02Z</time>
  <course>270.0</course>
  <speed>0.0</speed>
  <fix>3d</fix>
</trkpt>
<trkpt lat="-27.2744392" lon="151.2900641">
  <ele>343.1</ele>
  <time>2026-09-01T19:53:02Z</time>
  <course>11.23</course>
  <speed>0.022360679774997897</speed>
  <fix>3d</fix>
</trkpt>
<trkpt lat="-27.274439" lon="151.290064">
  <ele>343.1</ele>
  <time>2026-09-01T19:53:02Z</time>
  <course>270.0</course>
  <speed>0.0</speed>
  <fix>3d</fix>
</trkpt>
<trkpt lat="-27.2744392" lon="151.2900641">
  <ele>343.1</ele>
  <time>2026-09-01T19:53:02Z</time>
  <course>11.23</course>
  <speed>0.022360679774997897</speed>
  <fix>3d</fix>
</trkpt>
<trkpt lat="-27.274439" lon="151.290064">
  <ele>343.1</ele>
  <time>2026-09-01T19:53:02Z</time>
  <course>270.0</course>
  <speed>0.0</speed>
  <fix>3d</fix>
</trkpt>
<trkpt lat="-27.2744392" lon="151.2900641">
  <ele>343.1</ele>
  <time>2026-09-01T19:53:02Z</time>
  <course>11.23</course>
  <speed>0.022360679774997897</speed>
  <fix>3d</fix>
</trkpt>
<trkpt lat="-27.274439" lon="151.290064">
  <ele>343.1</ele>
  <time>2026-09-01T19:53:02Z</time>
  <course>270.0</course>
  <speed>0.0</speed>
  <fix>3d</fix>
</trkpt>
<trkpt lat="-27.2744392" lon="151.2900641">
  <ele>343.1</ele>
  <time>2026-09-01T19:53:02Z</time>
  <course>11.23</course>
  <speed>0.022360679774997897</speed>
  <fix>3d</fix>
</trkpt>
<trkpt lat="-27.274439" lon="151.290064">
  <ele>343.1</ele>
  <time>2026-09-01T19:53:02Z</time>
  <course>270.0</course>
  <speed>0.0</speed>
  <fix>3d</fix>
</trkpt>
<trkpt lat="-27.2744392" lon="151.2900641">
  <ele>343.09</ele>
  <time>2026-09-01T19:53:02Z</time>
  <course>11.23</course>
  <speed>0.022360679774997897</speed>
  <fix>3d</fix>
</trkpt>
<trkpt lat="-27.274439" lon="151.290064">
  <ele>343.1</ele>
  <time>2026-09-01T19:53:02Z</time>
  <course>270.0</course>
  <speed>0.0</speed>
  <fix>3d</fix>
</trkpt>
<trkpt lat="-27.2744392" lon="151.2900641">
  <ele>343.09</ele>
  <time>2026-09-01T19:53:02Z</time>
  <course>11.24</course>
  <speed>0.022360679774997897</speed>
  <fix>3d</fix>
</trkpt>
<trkpt lat="-27.274439" lon="151.290064">
  <ele>343.1</ele>
  <time>2026-09-01T19:53:02Z</time>
  <course>270.0</course>
  <speed>0.0</speed>
  <fix>3d</fix>
</trkpt>
<trkpt lat="-27.2744392" lon="151.2900641">
  <ele>343.09</ele>
  <time>2026-09-01T19:53:02Z</time>
  <course>11.24</course>
  <speed>0.022360679774997897</speed>
  <fix>3d</fix>
</trkpt>
<trkpt lat="-27.274439" lon="151.290064">
  <ele>343.1</ele>
  <time>2026-09-01T19:53:02Z</time>
  <course>270.0</course>
  <speed>0.0</speed>
  <fix>3d</fix>
</trkpt>
<trkpt lat="-27.2744392" lon="151.2900641">
  <ele>343.09</ele>
  <time>2026-09-01T19:53:02Z</time>
  <course>11.24</course>
  <speed>0.022360679774997897</speed>
  <fix>3d</fix>
</trkpt>
<trkpt lat="-27.274439" lon="151.290064">
  <ele>343.1</ele>
  <time>2026-09-01T19:53:02Z</time>
  <course>270.0</course>
  <speed>0.0</speed>
  <fix>3d</fix>
</trkpt>
<trkpt lat="-27.2744392" lon="151.2900641">
  <ele>343.09</ele>
  <time>2026-09-01T19:53:02Z</time>
  <course>11.24</course>
  <speed>0.022360679774997897</speed>
  <fix>3d</fix>
</trkpt>
<trkpt lat="-27.274439" lon="151.290064">
  <ele>343.1</ele>
  <time>2026-09-01T19:53:02Z</time>
  <course>270.0</course>
  <speed>0.0</speed>
  <fix>3d</fix>
</trkpt>
<trkpt lat="-27.2744392" lon="151.2900641">
  <ele>343.08</ele>
  <time>2026-09-01T19:53:02Z</time>
  <course>11.24</course>
  <speed>0.022360679774997897</speed>
  <fix>3d</fix>
</trkpt>
<trkpt lat="-27.274439" lon="151.290064">
  <ele>343.1</ele>
  <time>2026-09-01T19:53:02Z</time>
  <course>270.0</course>
  <speed>0.0</speed>
  <fix>3d</fix>
</trkpt>
<trkpt lat="-27.2744392" lon="151.2900641">
  <ele>343.08</ele>
  <time>2026-09-01T19:53:02Z</time>
  <course>11.24</course>
  <speed>0.022360679774997897</speed>
  <fix>3d</fix>
</trkpt>
<trkpt lat="-27.274439" lon="151.290064">
  <ele>343.1</ele>
  <time>2026-09-01T19:53:02Z</time>
  <course>270.0</course>
  <speed>0.0</speed>
  <fix>3d</fix>
</trkpt>
<trkpt lat="-27.2744392" lon="151.2900641">
  <ele>343.08</ele>
  <time>2026-09-01T19:53:02Z</time>
  <course>11.24</course>
  <speed>0.022360679774997897</speed>
  <fix>3d</fix>
</trkpt>
<trkpt lat="-27.274439" lon="151.290064">
  <ele>343.1</ele>
  <time>2026-09-01T19:53:02Z</time>
  <course>270.0</course>
  <speed>0.0</speed>
  <fix>3d</fix>
</trkpt>
<trkpt lat="-27.2744392" lon="151.2900641">
  <ele>343.08</ele>
  <time>2026-09-01T19:53:02Z</time>
  <course>11.24</course>
  <speed>0.022360679774997897</speed>
  <fix>3d</fix>
</trkpt>
<trkpt lat="-27.274439" lon="151.290064">
  <ele>343.1</ele>
  <time>2026-09-01T19:53:02Z</time>
  <course>270.0</course>
  <speed>0.0</speed>
  <fix>3d</fix>
</trkpt>
<trkpt lat="-27.2744392" lon="151.2900641">
  <ele>343.08</ele>
  <time>2026-09-01T19:53:02Z</time>
  <course>11.24</course>
  <speed>0.022360679774997897</speed>
  <fix>3d</fix>
</trkpt>
<trkpt lat="-27.274439" lon="151.290064">
  <ele>343.1</ele>
  <time>2026-09-01T19:53:02Z</time>
  <course>270.0</course>
  <speed>0.0</speed>
  <fix>3d</fix>
</trkpt>
<trkpt lat="-27.2744392" lon="151.2900641">
  <ele>343.08</ele>
  <time>2026-09-01T19:53:02Z</time>
  <course>11.25</course>
  <speed>0.022360679774997897</speed>
  <fix>3d</fix>
</trkpt>
<trkpt lat="-27.274439" lon="151.290064">
  <ele>343.1</ele>
  <time>2026-09-01T19:53:02Z</time>
  <course>270.0</course>
  <speed>0.0</speed>
  <fix>3d</fix>
</trkpt>
<trkpt lat="-27.2744392" lon="151.2900641">
  <ele>343.08</ele>
  <time>2026-09-01T19:53:02Z</time>
  <course>11.25</course>
  <speed>0.022360679774997897</speed>
  <fix>3d</fix>
</trkpt>
<trkpt lat="-27.274439" lon="151.290064">
  <ele>343.1</ele>
  <time>2026-09-01T19:53:02Z</time>
  <course>270.0</course>
  <speed>0.0</speed>
  <fix>3d</fix>
</trkpt>
<trkpt lat="-27.2744392" lon="151.2900641">
  <ele>343.08</ele>
  <time>2026-09-01T19:53:02Z</time>
  <course>11.25</course>
  <speed>0.022360679774997897</speed>
  <fix>3d</fix>
</trkpt>
<trkpt lat="-27.274439" lon="151.290064">
  <ele>343.1</ele>
  <time>2026-09-01T19:53:02Z</time>
  <course>270.0</course>
  <speed>0.0</speed>
  <fix>3d</fix>
</trkpt>
<trkpt lat="-27.2744392" lon="151.2900641">
  <ele>343.07</ele>
  <time>2026-09-01T19:53:02Z</time>
  <course>11.25</course>
  <speed>0.022360679774997897</speed>
  <fix>3d</fix>
</trkpt>
<trkpt lat="-27.274439" lon="151.290064">
  <ele>343.1</ele>
  <time>2026-09-01T19:53:02Z</time>
  <course>270.0</course>
  <speed>0.0</speed>
  <fix>3d</fix>
</trkpt>
<trkpt lat="-27.2744392" lon="151.2900641">
  <ele>343.07</ele>
  <time>2026-09-01T19:53:02Z</time>
  <course>11.25</course>
  <speed>0.022360679774997897</speed>
  <fix>3d</fix>
</trkpt>
<trkpt lat="-27.274439" lon="151.290064">
  <ele>343.1</ele>
  <time>2026-09-01T19:53:02Z</time>
  <course>270.0</course>
  <speed>0.0</speed>
  <fix>3d</fix>
</trkpt>
<trkpt lat="-27.2744392" lon="151.2900641">
  <ele>343.08</ele>
  <time>2026-09-01T19:53:02Z</time>
  <course>11.25</course>
  <speed>0.022360679774997897</speed>
  <fix>3d</fix>
</trkpt>
<trkpt lat="-27.274439" lon="151.290064">
  <ele>343.1</ele>
  <time>2026-09-01T19:53:02Z</time>
  <course>270.0</course>
  <speed>0.0</speed>
  <fix>3d</fix>
</trkpt>
<trkpt lat="-27.2744392" lon="151.2900641">
  <ele>343.08</ele>
  <time>2026-09-01T19:53:02Z</time>
  <course>11.25</course>
  <speed>0.022360679774997897</speed>
  <fix>3d</fix>
</trkpt>
<trkpt lat="-27.274439" lon="151.290064">
  <ele>343.1</ele>
  <time>2026-09-01T19:53:02Z</time>
  <course>270.0</course>
  <speed>0.0</speed>
  <fix>3d</fix>
</trkpt>
<trkpt lat="-27.2744392" lon="151.2900641">
  <ele>343.07</ele>
  <time>2026-09-01T19:53:02Z</time>
  <course>11.25</course>
  <speed>0.022360679774997897</speed>
  <fix>3d</fix>
</trkpt>
<trkpt lat="-27.274439" lon="151.290064">
  <ele>343.1</ele>
  <time>2026-09-01T19:53:03Z</time>
  <course>270.0</course>
  <speed>0.0</speed>
  <fix>3d</fix>
</trkpt>
<trkpt lat="-27.2744392" lon="151.2900641">
  <ele>343.07</ele>
  <time>2026-09-01T19:53:03Z</time>
  <course>11.25</course>
  <speed>0.022360679774997897</speed>
  <fix>3d</fix>
</trkpt>
<trkpt lat="-27.274439" lon="151.290064">
  <ele>343.1</ele>
  <time>2026-09-01T19:53:03Z</time>
  <course>270.0</course>
  <speed>0.0</speed>
  <fix>3d</fix>
</trkpt>
<trkpt lat="-27.2744392" lon="151.2900641">
  <ele>343.07</ele>
  <time>2026-09-01T19:53:03Z</time>
  <course>11.25</course>
  <speed>0.022360679774997897</speed>
  <fix>3d</fix>
</trkpt>
<trkpt lat="-27.274439" lon="151.290064">
  <ele>343.1</ele>
  <time>2026-09-01T19:53:03Z</time>
  <course>270.0</course>
  <speed>0.0</speed>
  <fix>3d</fix>
</trkpt>
<trkpt lat="-27.2744392" lon="151.2900641">
  <ele>343.07</ele>
  <time>2026-09-01T19:53:03Z</time>
  <course>11.26</course>
  <speed>0.022360679774997897</speed>
  <fix>3d</fix>
</trkpt>
<trkpt lat="-27.274439" lon="151.290064">
  <ele>343.1</ele>
  <time>2026-09-01T19:53:03Z</time>
  <course>270.0</course>
  <speed>0.0</speed>
  <fix>3d</fix>
</trkpt>
<trkpt lat="-27.2744392" lon="151.2900641">
  <ele>343.07</ele>
  <time>2026-09-01T19:53:03Z</time>
  <course>11.26</course>
  <speed>0.022360679774997897</speed>
  <fix>3d</fix>
</trkpt>
<trkpt lat="-27.274439" lon="151.290064">
  <ele>343.1</ele>
  <time>2026-09-01T19:53:03Z</time>
  <course>270.0</course>
  <speed>0.0</speed>
  <fix>3d</fix>
</trkpt>
<trkpt lat="-27.2744392" lon="151.2900641">
  <ele>343.07</ele>
  <time>2026-09-01T19:53:03Z</time>
  <course>11.26</course>
  <speed>0.022360679774997897</speed>
  <fix>3d</fix>
</trkpt>
<trkpt lat="-27.274439" lon="151.290064">
  <ele>343.1</ele>
  <time>2026-09-01T19:53:03Z</time>
  <course>270.0</course>
  <speed>0.0</speed>
  <fix>3d</fix>
</trkpt>
<trkpt lat="-27.2744392" lon="151.2900641">
  <ele>343.07</ele>
  <time>2026-09-01T19:53:03Z</time>
  <course>11.26</course>
  <speed>0.022360679774997897</speed>
  <fix>3d</fix>
</trkpt>
<trkpt lat="-27.274439" lon="151.290064">
  <ele>343.1</ele>
  <time>2026-09-01T19:53:03Z</time>
  <course>270.0</course>
  <speed>0.0</speed>
  <fix>3d</fix>
</trkpt>
<trkpt lat="-27.2744392" lon="151.2900641">
  <ele>343.07</ele>
  <time>2026-09-01T19:53:03Z</time>
  <course>11.26</course>
  <speed>0.022360679774997897</speed>
  <fix>3d</fix>
</trkpt>
<trkpt lat="-27.274439" lon="151.290064">
  <ele>343.1</ele>
  <time>2026-09-01T19:53:03Z</time>
  <course>270.0</course>
  <speed>0.0</speed>
  <fix>3d</fix>
</trkpt>
<trkpt lat="-27.2744392" lon="151.2900641">
  <ele>343.07</ele>
  <time>2026-09-01T19:53:03Z</time>
  <course>11.26</course>
  <speed>0.022360679774997897</speed>
  <fix>3d</fix>
</trkpt>
<trkpt lat="-27.274439" lon="151.290064">
  <ele>343.1</ele>
  <time>2026-09-01T19:53:03Z</time>
  <course>270.0</course>
  <speed>0.0</speed>
  <fix>3d</fix>
</trkpt>
<trkpt lat="-27.2744392" lon="151.2900641">
  <ele>343.07</ele>
  <time>2026-09-01T19:53:03Z</time>
  <course>11.26</course>
  <speed>0.022360679774997897</speed>
  <fix>3d</fix>
</trkpt>
<trkpt lat="-27.274439" lon="151.290064">
  <ele>343.1</ele>
  <time>2026-09-01T19:53:03Z</time>
  <course>270.0</course>
  <speed>0.0</speed>
  <fix>3d</fix>
</trkpt>
<trkpt lat="-27.2744392" lon="151.2900641">
  <ele>343.07</ele>
  <time>2026-09-01T19:53:03Z</time>
  <course>11.26</course>
  <speed>0.022360679774997897</speed>
  <fix>3d</fix>
</trkpt>
<trkpt lat="-27.274439" lon="151.290064">
  <ele>343.1</ele>
  <time>2026-09-01T19:53:03Z</time>
  <course>270.0</course>
  <speed>0.0</speed>
  <fix>3d</fix>
</trkpt>
<trkpt lat="-27.2744392" lon="151.2900641">
  <ele>343.07</ele>
  <time>2026-09-01T19:53:03Z</time>
  <course>11.26</course>
  <speed>0.022360679774997897</speed>
  <fix>3d</fix>
</trkpt>
<trkpt lat="-27.274439" lon="151.290064">
  <ele>343.1</ele>
  <time>2026-09-01T19:53:03Z</time>
  <course>270.0</course>
  <speed>0.0</speed>
  <fix>3d</fix>
</trkpt>
<trkpt lat="-27.2744392" lon="151.2900641">
  <ele>343.06</ele>
  <time>2026-09-01T19:53:03Z</time>
  <course>11.26</course>
  <speed>0.022360679774997897</speed>
  <fix>3d</fix>
</trkpt>
<trkpt lat="-27.274439" lon="151.290064">
  <ele>343.1</ele>
  <time>2026-09-01T19:53:03Z</time>
  <course>270.0</course>
  <speed>0.0</speed>
  <fix>3d</fix>
</trkpt>
<trkpt lat="-27.2744392" lon="151.2900641">
  <ele>343.06</ele>
  <time>2026-09-01T19:53:03Z</time>
  <course>11.27</course>
  <speed>0.022360679774997897</speed>
  <fix>3d</fix>
</trkpt>
<trkpt lat="-27.274439" lon="151.290064">
  <ele>343.1</ele>
  <time>2026-09-01T19:53:03Z</time>
  <course>270.0</course>
  <speed>0.0</speed>
  <fix>3d</fix>
</trkpt>
<trkpt lat="-27.2744392" lon="151.2900641">
  <ele>343.06</ele>
  <time>2026-09-01T19:53:03Z</time>
  <course>11.27</course>
  <speed>0.022360679774997897</speed>
  <fix>3d</fix>
</trkpt>
<trkpt lat="-27.274439" lon="151.290064">
  <ele>343.1</ele>
  <time>2026-09-01T19:53:03Z</time>
  <course>270.0</course>
  <speed>0.0</speed>
  <fix>3d</fix>
</trkpt>
<trkpt lat="-27.2744392" lon="151.2900641">
  <ele>343.09</ele>
  <time>2026-09-01T19:53:03Z</time>
  <course>11.27</course>
  <speed>0.022360679774997897</speed>
  <fix>3d</fix>
</trkpt>
<trkpt lat="-27.274439" lon="151.290064">
  <ele>343.1</ele>
  <time>2026-09-01T19:53:03Z</time>
  <course>270.0</course>
  <speed>0.0</speed>
  <fix>3d</fix>
</trkpt>
<trkpt lat="-27.2744392" lon="151.2900641">
  <ele>343.09</ele>
  <time>2026-09-01T19:53:03Z</time>
  <course>11.27</course>
  <speed>0.022360679774997897</speed>
  <fix>3d</fix>
</trkpt>
<trkpt lat="-27.274439" lon="151.290064">
  <ele>343.1</ele>
  <time>2026-09-01T19:53:03Z</time>
  <course>270.0</course>
  <speed>0.0</speed>
  <fix>3d</fix>
</trkpt>
<trkpt lat="-27.2744392" lon="151.2900641">
  <ele>343.09</ele>
  <time>2026-09-01T19:53:03Z</time>
  <course>11.27</course>
  <speed>0.022360679774997897</speed>
  <fix>3d</fix>
</trkpt>
<trkpt lat="-27.274439" lon="151.290064">
  <ele>343.1</ele>
  <time>2026-09-01T19:53:03Z</time>
  <course>270.0</course>
  <speed>0.0</speed>
  <fix>3d</fix>
</trkpt>
<trkpt lat="-27.2744392" lon="151.2900641">
  <ele>343.1</ele>
  <time>2026-09-01T19:53:03Z</time>
  <course>11.27</course>
  <speed>0.022360679774997897</speed>
  <fix>3d</fix>
</trkpt>
<trkpt lat="-27.274439" lon="151.290064">
  <ele>343.1</ele>
  <time>2026-09-01T19:53:03Z</time>
  <course>270.0</course>
  <speed>0.0</speed>
  <fix>3d</fix>
</trkpt>
<trkpt lat="-27.2744392" lon="151.2900641">
  <ele>343.1</ele>
  <time>2026-09-01T19:53:03Z</time>
  <course>11.27</course>
  <speed>0.022360679774997897</speed>
  <fix>3d</fix>
</trkpt>
<trkpt lat="-27.274439" lon="151.290064">
  <ele>343.1</ele>
  <time>2026-09-01T19:53:03Z</time>
  <course>270.0</course>
  <speed>0.0</speed>
  <fix>3d</fix>
</trkpt>
<trkpt lat="-27.2744392" lon="151.2900641">
  <ele>343.11</ele>
  <time>2026-09-01T19:53:03Z</time>
  <course>11.27</course>
  <speed>0.022360679774997897</speed>
  <fix>3d</fix>
</trkpt>
<trkpt lat="-27.274439" lon="151.290064">
  <ele>343.1</ele>
  <time>2026-09-01T19:53:03Z</time>
  <course>270.0</course>
  <speed>0.0</speed>
  <fix>3d</fix>
</trkpt>
<trkpt lat="-27.2744392" lon="151.2900641">
  <ele>343.11</ele>
  <time>2026-09-01T19:53:03Z</time>
  <course>11.27</course>
  <speed>0.022360679774997897</speed>
  <fix>3d</fix>
</trkpt>
<trkpt lat="-27.274439" lon="151.290064">
  <ele>343.1</ele>
  <time>2026-09-01T19:53:03Z</time>
  <course>270.0</course>
  <speed>0.0</speed>
  <fix>3d</fix>
</trkpt>
<trkpt lat="-27.2744392" lon="151.2900641">
  <ele>343.12</ele>
  <time>2026-09-01T19:53:03Z</time>
  <course>11.28</course>
  <speed>0.022360679774997897</speed>
  <fix>3d</fix>
</trkpt>
<trkpt lat="-27.274439" lon="151.290064">
  <ele>343.1</ele>
  <time>2026-09-01T19:53:03Z</time>
  <course>270.0</course>
  <speed>0.0</speed>
  <fix>3d</fix>
</trkpt>
<trkpt lat="-27.2744392" lon="151.2900641">
  <ele>343.12</ele>
  <time>2026-09-01T19:53:03Z</time>
  <course>11.28</course>
  <speed>0.022360679774997897</speed>
  <fix>3d</fix>
</trkpt>
<trkpt lat="-27.274439" lon="151.290064">
  <ele>343.1</ele>
  <time>2026-09-01T19:53:03Z</time>
  <course>270.0</course>
  <speed>0.0</speed>
  <fix>3d</fix>
</trkpt>
<trkpt lat="-27.2744392" lon="151.2900641">
  <ele>343.12</ele>
  <time>2026-09-01T19:53:03Z</time>
  <course>11.28</course>
  <speed>0.022360679774997897</speed>
  <fix>3d</fix>
</trkpt>
<trkpt lat="-27.274439" lon="151.290064">
  <ele>343.1</ele>
  <time>2026-09-01T19:53:03Z</time>
  <course>270.0</course>
  <speed>0.0</speed>
  <fix>3d</fix>
</trkpt>
<trkpt lat="-27.2744392" lon="151.2900641">
  <ele>343.12</ele>
  <time>2026-09-01T19:53:03Z</time>
  <course>11.28</course>
  <speed>0.022360679774997897</speed>
  <fix>3d</fix>
</trkpt>
<trkpt lat="-27.274439" lon="151.290064">
  <ele>343.1</ele>
  <time>2026-09-01T19:53:03Z</time>
  <course>270.0</course>
  <speed>0.0</speed>
  <fix>3d</fix>
</trkpt>
<trkpt lat="-27.2744392" lon="151.2900641">
  <ele>343.12</ele>
  <time>2026-09-01T19:53:03Z</time>
  <course>11.28</course>
  <speed>0.022360679774997897</speed>
  <fix>3d</fix>
</trkpt>
<trkpt lat="-27.274439" lon="151.290064">
  <ele>343.1</ele>
  <time>2026-09-01T19:53:03Z</time>
  <course>270.0</course>
  <speed>0.0</speed>
  <fix>3d</fix>
</trkpt>
<trkpt lat="-27.2744392" lon="151.2900641">
  <ele>343.13</ele>
  <time>2026-09-01T19:53:03Z</time>
  <course>11.28</course>
  <speed>0.022360679774997897</speed>
  <fix>3d</fix>
</trkpt>
<trkpt lat="-27.274439" lon="151.290064">
  <ele>343.1</ele>
  <time>2026-09-01T19:53:03Z</time>
  <course>270.0</course>
  <speed>0.0</speed>
  <fix>3d</fix>
</trkpt>
<trkpt lat="-27.2744392" lon="151.2900641">
  <ele>343.13</ele>
  <time>2026-09-01T19:53:03Z</time>
  <course>11.28</course>
  <speed>0.022360679774997897</speed>
  <fix>3d</fix>
</trkpt>
<trkpt lat="-27.274439" lon="151.290064">
  <ele>343.1</ele>
  <time>2026-09-01T19:53:03Z</time>
  <course>270.0</course>
  <speed>0.0</speed>
  <fix>3d</fix>
</trkpt>
<trkpt lat="-27.2744392" lon="151.2900641">
  <ele>343.13</ele>
  <time>2026-09-01T19:53:03Z</time>
  <course>11.28</course>
  <speed>0.022360679774997897</speed>
  <fix>3d</fix>
</trkpt>
<trkpt lat="-27.274439" lon="151.290064">
  <ele>343.1</ele>
  <time>2026-09-01T19:53:03Z</time>
  <course>270.0</course>
  <speed>0.0</speed>
  <fix>3d</fix>
</trkpt>
<trkpt lat="-27.2744392" lon="151.2900641">
  <ele>343.13</ele>
  <time>2026-09-01T19:53:03Z</time>
  <course>11.28</course>
  <speed>0.022360679774997897</speed>
  <fix>3d</fix>
</trkpt>
<trkpt lat="-27.274439" lon="151.290064">
  <ele>343.1</ele>
  <time>2026-09-01T19:53:03Z</time>
  <course>270.0</course>
  <speed>0.0</speed>
  <fix>3d</fix>
</trkpt>
<trkpt lat="-27.2744392" lon="151.2900641">
  <ele>343.14</ele>
  <time>2026-09-01T19:53:03Z</time>
  <course>11.28</course>
  <speed>0.022360679774997897</speed>
  <fix>3d</fix>
</trkpt>
<trkpt lat="-27.274439" lon="151.290064">
  <ele>343.1</ele>
  <time>2026-09-01T19:53:03Z</time>
  <course>270.0</course>
  <speed>0.0</speed>
  <fix>3d</fix>
</trkpt>
<trkpt lat="-27.2744392" lon="151.2900641">
  <ele>343.14</ele>
  <time>2026-09-01T19:53:03Z</time>
  <course>11.29</course>
  <speed>0.022360679774997897</speed>
  <fix>3d</fix>
</trkpt>
<trkpt lat="-27.274439" lon="151.290064">
  <ele>343.1</ele>
  <time>2026-09-01T19:53:03Z</time>
  <course>270.0</course>
  <speed>0.0</speed>
  <fix>3d</fix>
</trkpt>
<trkpt lat="-27.2744392" lon="151.2900641">
  <ele>343.14</ele>
  <time>2026-09-01T19:53:03Z</time>
  <course>11.29</course>
  <speed>0.022360679774997897</speed>
  <fix>3d</fix>
</trkpt>
<trkpt lat="-27.274439" lon="151.290064">
  <ele>343.1</ele>
  <time>2026-09-01T19:53:03Z</time>
  <course>270.0</course>
  <speed>0.0</speed>
  <fix>3d</fix>
</trkpt>
<trkpt lat="-27.2744392" lon="151.2900641">
  <ele>343.15</ele>
  <time>2026-09-01T19:53:03Z</time>
  <course>11.29</course>
  <speed>0.022360679774997897</speed>
  <fix>3d</fix>
</trkpt>
<trkpt lat="-27.274439" lon="151.290064">
  <ele>343.1</ele>
  <time>2026-09-01T19:53:03Z</time>
  <course>270.0</course>
  <speed>0.0</speed>
  <fix>3d</fix>
</trkpt>
<trkpt lat="-27.2744392" lon="151.2900641">
  <ele>343.15</ele>
  <time>2026-09-01T19:53:03Z</time>
  <course>11.29</course>
  <speed>0.022360679774997897</speed>
  <fix>3d</fix>
</trkpt>
<trkpt lat="-27.274439" lon="151.290064">
  <ele>343.1</ele>
  <time>2026-09-01T19:53:03Z</time>
  <course>270.0</course>
  <speed>0.0</speed>
  <fix>3d</fix>
</trkpt>
<trkpt lat="-27.2744392" lon="151.2900641">
  <ele>343.16</ele>
  <time>2026-09-01T19:53:03Z</time>
  <course>11.29</course>
  <speed>0.022360679774997897</speed>
  <fix>3d</fix>
</trkpt>
<trkpt lat="-27.274439" lon="151.290064">
  <ele>343.1</ele>
  <time>2026-09-01T19:53:03Z</time>
  <course>270.0</course>
  <speed>0.0</speed>
  <fix>3d</fix>
</trkpt>
<trkpt lat="-27.2744392" lon="151.2900641">
  <ele>343.16</ele>
  <time>2026-09-01T19:53:03Z</time>
  <course>11.29</course>
  <speed>0.022360679774997897</speed>
  <fix>3d</fix>
</trkpt>
<trkpt lat="-27.274439" lon="151.290064">
  <ele>343.1</ele>
  <time>2026-09-01T19:53:03Z</time>
  <course>270.0</course>
  <speed>0.0</speed>
  <fix>3d</fix>
</trkpt>
<trkpt lat="-27.2744392" lon="151.2900641">
  <ele>343.16</ele>
  <time>2026-09-01T19:53:03Z</time>
  <course>11.29</course>
  <speed>0.022360679774997897</speed>
  <fix>3d</fix>
</trkpt>
<trkpt lat="-27.274439" lon="151.290064">
  <ele>343.1</ele>
  <time>2026-09-01T19:53:03Z</time>
  <course>270.0</course>
  <speed>0.0</speed>
  <fix>3d</fix>
</trkpt>
<trkpt lat="-27.2744392" lon="151.2900641">
  <ele>343.17</ele>
  <time>2026-09-01T19:53:03Z</time>
  <course>11.29</course>
  <speed>0.022360679774997897</speed>
  <fix>3d</fix>
</trkpt>
<trkpt lat="-27.274439" lon="151.290064">
  <ele>343.1</ele>
  <time>2026-09-01T19:53:03Z</time>
  <course>270.0</course>
  <speed>0.0</speed>
  <fix>3d</fix>
</trkpt>
<trkpt lat="-27.2744392" lon="151.2900641">
  <ele>343.17</ele>
  <time>2026-09-01T19:53:03Z</time>
  <course>11.29</course>
  <speed>0.022360679774997897</speed>
  <fix>3d</fix>
</trkpt>
<trkpt lat="-27.274439" lon="151.290064">
  <ele>343.1</ele>
  <time>2026-09-01T19:53:03Z</time>
  <course>270.0</course>
  <speed>0.0</speed>
  <fix>3d</fix>
</trkpt>
<trkpt lat="-27.2744392" lon="151.2900641">
  <ele>343.18</ele>
  <time>2026-09-01T19:53:03Z</time>
  <course>11.29</course>
  <speed>0.022360679774997897</speed>
  <fix>3d</fix>
</trkpt>
<trkpt lat="-27.274439" lon="151.290064">
  <ele>343.1</ele>
  <time>2026-09-01T19:53:03Z</time>
  <course>270.0</course>
  <speed>0.0</speed>
  <fix>3d</fix>
</trkpt>
<trkpt lat="-27.2744392" lon="151.2900641">
  <ele>343.18</ele>
  <time>2026-09-01T19:53:03Z</time>
  <course>11.3</course>
  <speed>0.022360679774997897</speed>
  <fix>3d</fix>
</trkpt>
<trkpt lat="-27.274439" lon="151.290064">
  <ele>343.1</ele>
  <time>2026-09-01T19:53:03Z</time>
  <course>270.0</course>
  <speed>0.0</speed>
  <fix>3d</fix>
</trkpt>
<trkpt lat="-27.2744392" lon="151.2900641">
  <ele>343.18</ele>
  <time>2026-09-01T19:53:03Z</time>
  <course>11.3</course>
  <speed>0.022360679774997897</speed>
  <fix>3d</fix>
</trkpt>
<trkpt lat="-27.274439" lon="151.290064">
  <ele>343.1</ele>
  <time>2026-09-01T19:53:03Z</time>
  <course>270.0</course>
  <speed>0.0</speed>
  <fix>3d</fix>
</trkpt>
<trkpt lat="-27.2744392" lon="151.2900641">
  <ele>343.18</ele>
  <time>2026-09-01T19:53:03Z</time>
  <course>11.3</course>
  <speed>0.022360679774997897</speed>
  <fix>3d</fix>
</trkpt>
<trkpt lat="-27.274439" lon="151.290064">
  <ele>343.1</ele>
  <time>2026-09-01T19:53:03Z</time>
  <course>270.0</course>
  <speed>0.0</speed>
  <fix>3d</fix>
</trkpt>
<trkpt lat="-27.2744392" lon="151.2900641">
  <ele>343.18</ele>
  <time>2026-09-01T19:53:03Z</time>
  <course>11.3</course>
  <speed>0.022360679774997897</speed>
  <fix>3d</fix>
</trkpt>
<trkpt lat="-27.274439" lon="151.290064">
  <ele>343.1</ele>
  <time>2026-09-01T19:53:03Z</time>
  <course>270.0</course>
  <speed>0.0</speed>
  <fix>3d</fix>
</trkpt>
<trkpt lat="-27.2744392" lon="151.2900641">
  <ele>343.18</ele>
  <time>2026-09-01T19:53:03Z</time>
  <course>11.3</course>
  <speed>0.022360679774997897</speed>
  <fix>3d</fix>
</trkpt>
<trkpt lat="-27.274439" lon="151.290064">
  <ele>343.1</ele>
  <time>2026-09-01T19:53:03Z</time>
  <course>270.0</course>
  <speed>0.0</speed>
  <fix>3d</fix>
</trkpt>
<trkpt lat="-27.2744392" lon="151.2900641">
  <ele>343.18</ele>
  <time>2026-09-01T19:53:03Z</time>
  <course>11.3</course>
  <speed>0.022360679774997897</speed>
  <fix>3d</fix>
</trkpt>
<trkpt lat="-27.274439" lon="151.290064">
  <ele>343.1</ele>
  <time>2026-09-01T19:53:03Z</time>
  <course>270.0</course>
  <speed>0.0</speed>
  <fix>3d</fix>
</trkpt>
<trkpt lat="-27.2744392" lon="151.2900641">
  <ele>343.18</ele>
  <time>2026-09-01T19:53:03Z</time>
  <course>11.3</course>
  <speed>0.022360679774997897</speed>
  <fix>3d</fix>
</trkpt>
<trkpt lat="-27.274439" lon="151.290064">
  <ele>343.1</ele>
  <time>2026-09-01T19:53:03Z</time>
  <course>270.0</course>
  <speed>0.0</speed>
  <fix>3d</fix>
</trkpt>
<trkpt lat="-27.2744392" lon="151.2900641">
  <ele>343.18</ele>
  <time>2026-09-01T19:53:03Z</time>
  <course>11.3</course>
  <speed>0.022360679774997897</speed>
  <fix>3d</fix>
</trkpt>
<trkpt lat="-27.274439" lon="151.290064">
  <ele>343.1</ele>
  <time>2026-09-01T19:53:03Z</time>
  <course>270.0</course>
  <speed>0.0</speed>
  <fix>3d</fix>
</trkpt>
<trkpt lat="-27.2744392" lon="151.2900641">
  <ele>343.18</ele>
  <time>2026-09-01T19:53:03Z</time>
  <course>11.3</course>
  <speed>0.022360679774997897</speed>
  <fix>3d</fix>
</trkpt>
<trkpt lat="-27.274439" lon="151.290064">
  <ele>343.1</ele>
  <time>2026-09-01T19:53:03Z</time>
  <course>270.0</course>
  <speed>0.0</speed>
  <fix>3d</fix>
</trkpt>
<trkpt lat="-27.2744392" lon="151.2900641">
  <ele>343.18</ele>
  <time>2026-09-01T19:53:03Z</time>
  <course>11.3</course>
  <speed>0.022360679774997897</speed>
  <fix>3d</fix>
</trkpt>
<trkpt lat="-27.274439" lon="151.290064">
  <ele>343.1</ele>
  <time>2026-09-01T19:53:03Z</time>
  <course>270.0</course>
  <speed>0.0</speed>
  <fix>3d</fix>
</trkpt>
<trkpt lat="-27.2744392" lon="151.2900641">
  <ele>343.18</ele>
  <time>2026-09-01T19:53:03Z</time>
  <course>11.31</course>
  <speed>0.022360679774997897</speed>
  <fix>3d</fix>
</trkpt>
<trkpt lat="-27.274439" lon="151.290064">
  <ele>343.1</ele>
  <time>2026-09-01T19:53:03Z</time>
  <course>270.0</course>
  <speed>0.0</speed>
  <fix>3d</fix>
</trkpt>
<trkpt lat="-27.2744392" lon="151.2900641">
  <ele>343.19</ele>
  <time>2026-09-01T19:53:03Z</time>
  <course>11.31</course>
  <speed>0.022360679774997897</speed>
  <fix>3d</fix>
</trkpt>
<trkpt lat="-27.274439" lon="151.290064">
  <ele>343.1</ele>
  <time>2026-09-01T19:53:03Z</time>
  <course>270.0</course>
  <speed>0.0</speed>
  <fix>3d</fix>
</trkpt>
<trkpt lat="-27.2744392" lon="151.2900641">
  <ele>343.19</ele>
  <time>2026-09-01T19:53:03Z</time>
  <course>11.31</course>
  <speed>0.022360679774997897</speed>
  <fix>3d</fix>
</trkpt>
<trkpt lat="-27.274439" lon="151.290064">
  <ele>343.1</ele>
  <time>2026-09-01T19:53:03Z</time>
  <course>270.0</course>
  <speed>0.0</speed>
  <fix>3d</fix>
</trkpt>
<trkpt lat="-27.2744392" lon="151.2900641">
  <ele>343.19</ele>
  <time>2026-09-01T19:53:03Z</time>
  <course>11.31</course>
  <speed>0.022360679774997897</speed>
  <fix>3d</fix>
</trkpt>
<trkpt lat="-27.274439" lon="151.290064">
  <ele>343.1</ele>
  <time>2026-09-01T19:53:03Z</time>
  <course>270.0</course>
  <speed>0.0</speed>
  <fix>3d</fix>
</trkpt>
<trkpt lat="-27.2744392" lon="151.2900641">
  <ele>343.19</ele>
  <time>2026-09-01T19:53:03Z</time>
  <course>11.31</course>
  <speed>0.022360679774997897</speed>
  <fix>3d</fix>
</trkpt>
<trkpt lat="-27.274439" lon="151.290064">
  <ele>343.1</ele>
  <time>2026-09-01T19:53:03Z</time>
  <course>270.0</course>
  <speed>0.0</speed>
  <fix>3d</fix>
</trkpt>
<trkpt lat="-27.2744392" lon="151.2900641">
  <ele>343.2</ele>
  <time>2026-09-01T19:53:03Z</time>
  <course>11.31</course>
  <speed>0.022360679774997897</speed>
  <fix>3d</fix>
</trkpt>
<trkpt lat="-27.274439" lon="151.290064">
  <ele>343.1</ele>
  <time>2026-09-01T19:53:03Z</time>
  <course>270.0</course>
  <speed>0.0</speed>
  <fix>3d</fix>
</trkpt>
<trkpt lat="-27.2744392" lon="151.2900641">
  <ele>343.2</ele>
  <time>2026-09-01T19:53:03Z</time>
  <course>11.31</course>
  <speed>0.022360679774997897</speed>
  <fix>3d</fix>
</trkpt>
<trkpt lat="-27.274439" lon="151.290064">
  <ele>343.1</ele>
  <time>2026-09-01T19:53:03Z</time>
  <course>270.0</course>
  <speed>0.0</speed>
  <fix>3d</fix>
</trkpt>
<trkpt lat="-27.2744392" lon="151.2900641">
  <ele>343.2</ele>
  <time>2026-09-01T19:53:03Z</time>
  <course>11.31</course>
  <speed>0.022360679774997897</speed>
  <fix>3d</fix>
</trkpt>
<trkpt lat="-27.274439" lon="151.290064">
  <ele>343.1</ele>
  <time>2026-09-01T19:53:03Z</time>
  <course>270.0</course>
  <speed>0.0</speed>
  <fix>3d</fix>
</trkpt>
<trkpt lat="-27.2744392" lon="151.2900641">
  <ele>343.2</ele>
  <time>2026-09-01T19:53:03Z</time>
  <course>11.31</course>
  <speed>0.022360679774997897</speed>
  <fix>3d</fix>
</trkpt>
<trkpt lat="-27.274439" lon="151.290064">
  <ele>343.1</ele>
  <time>2026-09-01T19:53:03Z</time>
  <course>270.0</course>
  <speed>0.0</speed>
  <fix>3d</fix>
</trkpt>
<trkpt lat="-27.2744392" lon="151.2900641">
  <ele>343.2</ele>
  <time>2026-09-01T19:53:03Z</time>
  <course>11.31</course>
  <speed>0.022360679774997897</speed>
  <fix>3d</fix>
</trkpt>
<trkpt lat="-27.274439" lon="151.290064">
  <ele>343.1</ele>
  <time>2026-09-01T19:53:03Z</time>
  <course>270.0</course>
  <speed>0.0</speed>
  <fix>3d</fix>
</trkpt>
<trkpt lat="-27.2744392" lon="151.2900641">
  <ele>343.2</ele>
  <time>2026-09-01T19:53:03Z</time>
  <course>11.32</course>
  <speed>0.022360679774997897</speed>
  <fix>3d</fix>
</trkpt>
<trkpt lat="-27.274439" lon="151.290064">
  <ele>343.1</ele>
  <time>2026-09-01T19:53:03Z</time>
  <course>270.0</course>
  <speed>0.0</speed>
  <fix>3d</fix>
</trkpt>
<trkpt lat="-27.2744392" lon="151.2900641">
  <ele>343.21</ele>
  <time>2026-09-01T19:53:03Z</time>
  <course>11.32</course>
  <speed>0.022360679774997897</speed>
  <fix>3d</fix>
</trkpt>
<trkpt lat="-27.274439" lon="151.290064">
  <ele>343.1</ele>
  <time>2026-09-01T19:53:03Z</time>
  <course>270.0</course>
  <speed>0.0</speed>
  <fix>3d</fix>
</trkpt>
<trkpt lat="-27.2744392" lon="151.2900641">
  <ele>343.21</ele>
  <time>2026-09-01T19:53:03Z</time>
  <course>11.32</course>
  <speed>0.022360679774997897</speed>
  <fix>3d</fix>
</trkpt>
<trkpt lat="-27.274439" lon="151.290064">
  <ele>343.1</ele>
  <time>2026-09-01T19:53:03Z</time>
  <course>270.0</course>
  <speed>0.0</speed>
  <fix>3d</fix>
</trkpt>
<trkpt lat="-27.2744392" lon="151.2900641">
  <ele>343.21</ele>
  <time>2026-09-01T19:53:03Z</time>
  <course>11.32</course>
  <speed>0.022360679774997897</speed>
  <fix>3d</fix>
</trkpt>
<trkpt lat="-27.274439" lon="151.290064">
  <ele>343.1</ele>
  <time>2026-09-01T19:53:03Z</time>
  <course>270.0</course>
  <speed>0.0</speed>
  <fix>3d</fix>
</trkpt>
<trkpt lat="-27.2744392" lon="151.2900641">
  <ele>343.21</ele>
  <time>2026-09-01T19:53:03Z</time>
  <course>11.32</course>
  <speed>0.022360679774997897</speed>
  <fix>3d</fix>
</trkpt>
<trkpt lat="-27.274439" lon="151.290064">
  <ele>343.1</ele>
  <time>2026-09-01T19:53:03Z</time>
  <course>270.0</course>
  <speed>0.0</speed>
  <fix>3d</fix>
</trkpt>
<trkpt lat="-27.2744392" lon="151.2900641">
  <ele>343.21</ele>
  <time>2026-09-01T19:53:03Z</time>
  <course>11.32</course>
  <speed>0.022360679774997897</speed>
  <fix>3d</fix>
</trkpt>
<trkpt lat="-27.274439" lon="151.290064">
  <ele>343.1</ele>
  <time>2026-09-01T19:53:03Z</time>
  <course>270.0</course>
  <speed>0.0</speed>
  <fix>3d</fix>
</trkpt>
<trkpt lat="-27.2744392" lon="151.2900641">
  <ele>343.21</ele>
  <time>2026-09-01T19:53:03Z</time>
  <course>11.32</course>
  <speed>0.022360679774997897</speed>
  <fix>3d</fix>
</trkpt>
<trkpt lat="-27.274439" lon="151.290064">
  <ele>343.1</ele>
  <time>2026-09-01T19:53:03Z</time>
  <course>270.0</course>
  <speed>0.0</speed>
  <fix>3d</fix>
</trkpt>
<trkpt lat="-27.2744392" lon="151.2900641">
  <ele>343.21</ele>
  <time>2026-09-01T19:53:03Z</time>
  <course>11.32</course>
  <speed>0.022360679774997897</speed>
  <fix>3d</fix>
</trkpt>
<trkpt lat="-27.274439" lon="151.290064">
  <ele>343.1</ele>
  <time>2026-09-01T19:53:03Z</time>
  <course>270.0</course>
  <speed>0.0</speed>
  <fix>3d</fix>
</trkpt>
<trkpt lat="-27.2744392" lon="151.2900641">
  <ele>343.22</ele>
  <time>2026-09-01T19:53:03Z</time>
  <course>11.32</course>
  <speed>0.022360679774997897</speed>
  <fix>3d</fix>
</trkpt>
<trkpt lat="-27.274439" lon="151.290064">
  <ele>343.1</ele>
  <time>2026-09-01T19:53:03Z</time>
  <course>270.0</course>
  <speed>0.0</speed>
  <fix>3d</fix>
</trkpt>
<trkpt lat="-27.2744392" lon="151.2900641">
  <ele>343.22</ele>
  <time>2026-09-01T19:53:03Z</time>
  <course>11.33</course>
  <speed>0.022360679774997897</speed>
  <fix>3d</fix>
</trkpt>
<trkpt lat="-27.274439" lon="151.290064">
  <ele>343.1</ele>
  <time>2026-09-01T19:53:03Z</time>
  <course>270.0</course>
  <speed>0.0</speed>
  <fix>3d</fix>
</trkpt>
<trkpt lat="-27.2744392" lon="151.2900641">
  <ele>343.22</ele>
  <time>2026-09-01T19:53:03Z</time>
  <course>11.33</course>
  <speed>0.022360679774997897</speed>
  <fix>3d</fix>
</trkpt>
<trkpt lat="-27.274439" lon="151.290064">
  <ele>343.1</ele>
  <time>2026-09-01T19:53:03Z</time>
  <course>270.0</course>
  <speed>0.0</speed>
  <fix>3d</fix>
</trkpt>
<trkpt lat="-27.2744392" lon="151.2900641">
  <ele>343.22</ele>
  <time>2026-09-01T19:53:03Z</time>
  <course>11.33</course>
  <speed>0.022360679774997897</speed>
  <fix>3d</fix>
</trkpt>
<trkpt lat="-27.274439" lon="151.290064">
  <ele>343.1</ele>
  <time>2026-09-01T19:53:03Z</time>
  <course>270.0</course>
  <speed>0.0</speed>
  <fix>3d</fix>
</trkpt>
<trkpt lat="-27.2744392" lon="151.2900641">
  <ele>343.22</ele>
  <time>2026-09-01T19:53:03Z</time>
  <course>11.33</course>
  <speed>0.022360679774997897</speed>
  <fix>3d</fix>
</trkpt>
<trkpt lat="-27.274439" lon="151.290064">
  <ele>343.1</ele>
  <time>2026-09-01T19:53:03Z</time>
  <course>270.0</course>
  <speed>0.0</speed>
  <fix>3d</fix>
</trkpt>
<trkpt lat="-27.2744392" lon="151.2900641">
  <ele>343.1</ele>
  <time>2026-09-01T19:53:03Z</time>
  <course>11.33</course>
  <speed>0.022360679774997897</speed>
  <fix>3d</fix>
</trkpt>
<trkpt lat="-27.274439" lon="151.290064">
  <ele>343.1</ele>
  <time>2026-09-01T19:53:03Z</time>
  <course>270.0</course>
  <speed>0.0</speed>
  <fix>3d</fix>
</trkpt>
<trkpt lat="-27.2744392" lon="151.2900641">
  <ele>343.1</ele>
  <time>2026-09-01T19:53:03Z</time>
  <course>11.33</course>
  <speed>0.022360679774997897</speed>
  <fix>3d</fix>
</trkpt>
<trkpt lat="-27.274439" lon="151.290064">
  <ele>343.1</ele>
  <time>2026-09-01T19:53:03Z</time>
  <course>270.0</course>
  <speed>0.0</speed>
  <fix>3d</fix>
</trkpt>
<trkpt lat="-27.2744392" lon="151.2900641">
  <ele>343.1</ele>
  <time>2026-09-01T19:53:03Z</time>
  <course>11.33</course>
  <speed>0.022360679774997897</speed>
  <fix>3d</fix>
</trkpt>
<trkpt lat="-27.274439" lon="151.290064">
  <ele>343.1</ele>
  <time>2026-09-01T19:53:03Z</time>
  <course>270.0</course>
  <speed>0.0</speed>
  <fix>3d</fix>
</trkpt>
<trkpt lat="-27.2744392" lon="151.2900641">
  <ele>343.1</ele>
  <time>2026-09-01T19:53:03Z</time>
  <course>11.33</course>
  <speed>0.022360679774997897</speed>
  <fix>3d</fix>
</trkpt>
<trkpt lat="-27.274439" lon="151.290064">
  <ele>343.1</ele>
  <time>2026-09-01T19:53:03Z</time>
  <course>270.0</course>
  <speed>0.0</speed>
  <fix>3d</fix>
</trkpt>
<trkpt lat="-27.2744392" lon="151.2900641">
  <ele>343.1</ele>
  <time>2026-09-01T19:53:03Z</time>
  <course>11.33</course>
  <speed>0.022360679774997897</speed>
  <fix>3d</fix>
</trkpt>
<trkpt lat="-27.274439" lon="151.290064">
  <ele>343.1</ele>
  <time>2026-09-01T19:53:03Z</time>
  <course>270.0</course>
  <speed>0.0</speed>
  <fix>3d</fix>
</trkpt>
<trkpt lat="-27.2744392" lon="151.2900641">
  <ele>343.1</ele>
  <time>2026-09-01T19:53:03Z</time>
  <course>11.33</course>
  <speed>0.022360679774997897</speed>
  <fix>3d</fix>
</trkpt>
<trkpt lat="-27.274439" lon="151.290064">
  <ele>343.1</ele>
  <time>2026-09-01T19:53:03Z</time>
  <course>270.0</course>
  <speed>0.0</speed>
  <fix>3d</fix>
</trkpt>
<trkpt lat="-27.2744392" lon="151.2900641">
  <ele>343.1</ele>
  <time>2026-09-01T19:53:03Z</time>
  <course>11.33</course>
  <speed>0.022360679774997897</speed>
  <fix>3d</fix>
</trkpt>
<trkpt lat="-27.274439" lon="151.290064">
  <ele>343.1</ele>
  <time>2026-09-01T19:53:03Z</time>
  <course>270.0</course>
  <speed>0.0</speed>
  <fix>3d</fix>
</trkpt>
<trkpt lat="-27.2744392" lon="151.2900641">
  <ele>343.1</ele>
  <time>2026-09-01T19:53:03Z</time>
  <course>11.34</course>
  <speed>0.022360679774997897</speed>
  <fix>3d</fix>
</trkpt>
<trkpt lat="-27.274439" lon="151.290064">
  <ele>343.1</ele>
  <time>2026-09-01T19:53:03Z</time>
  <course>270.0</course>
  <speed>0.0</speed>
  <fix>3d</fix>
</trkpt>
<trkpt lat="-27.2744392" lon="151.2900641">
  <ele>343.1</ele>
  <time>2026-09-01T19:53:03Z</time>
  <course>11.34</course>
  <speed>0.022360679774997897</speed>
  <fix>3d</fix>
</trkpt>
<trkpt lat="-27.274439" lon="151.290064">
  <ele>343.1</ele>
  <time>2026-09-01T19:53:03Z</time>
  <course>270.0</course>
  <speed>0.0</speed>
  <fix>3d</fix>
</trkpt>
<trkpt lat="-27.2744392" lon="151.2900641">
  <ele>343.1</ele>
  <time>2026-09-01T19:53:03Z</time>
  <course>11.34</course>
  <speed>0.022360679774997897</speed>
  <fix>3d</fix>
</trkpt>
<trkpt lat="-27.274439" lon="151.290064">
  <ele>343.1</ele>
  <time>2026-09-01T19:53:03Z</time>
  <course>270.0</course>
  <speed>0.0</speed>
  <fix>3d</fix>
</trkpt>
<trkpt lat="-27.2744392" lon="151.2900641">
  <ele>343.1</ele>
  <time>2026-09-01T19:53:03Z</time>
  <course>11.34</course>
  <speed>0.022360679774997897</speed>
  <fix>3d</fix>
</trkpt>
<trkpt lat="-27.274439" lon="151.290064">
  <ele>343.1</ele>
  <time>2026-09-01T19:53:03Z</time>
  <course>270.0</course>
  <speed>0.0</speed>
  <fix>3d</fix>
</trkpt>
<trkpt lat="-27.2744392" lon="151.2900641">
  <ele>343.1</ele>
  <time>2026-09-01T19:53:03Z</time>
  <course>11.34</course>
  <speed>0.022360679774997897</speed>
  <fix>3d</fix>
</trkpt>
<trkpt lat="-27.274439" lon="151.290064">
  <ele>343.1</ele>
  <time>2026-09-01T19:53:03Z</time>
  <course>270.0</course>
  <speed>0.0</speed>
  <fix>3d</fix>
</trkpt>
<trkpt lat="-27.2744392" lon="151.2900641">
  <ele>343.1</ele>
  <time>2026-09-01T19:53:03Z</time>
  <course>11.34</course>
  <speed>0.022360679774997897</speed>
  <fix>3d</fix>
</trkpt>
<trkpt lat="-27.274439" lon="151.290064">
  <ele>343.1</ele>
  <time>2026-09-01T19:53:03Z</time>
  <course>270.0</course>
  <speed>0.0</speed>
  <fix>3d</fix>
</trkpt>
<trkpt lat="-27.2744392" lon="151.2900641">
  <ele>343.1</ele>
  <time>2026-09-01T19:53:03Z</time>
  <course>11.34</course>
  <speed>0.022360679774997897</speed>
  <fix>3d</fix>
</trkpt>
<trkpt lat="-27.274439" lon="151.290064">
  <ele>343.1</ele>
  <time>2026-09-01T19:53:03Z</time>
  <course>270.0</course>
  <speed>0.0</speed>
  <fix>3d</fix>
</trkpt>
<trkpt lat="-27.2744392" lon="151.2900641">
  <ele>343.1</ele>
  <time>2026-09-01T19:53:03Z</time>
  <course>11.34</course>
  <speed>0.022360679774997897</speed>
  <fix>3d</fix>
</trkpt>
<trkpt lat="-27.274439" lon="151.290064">
  <ele>343.1</ele>
  <time>2026-09-01T19:53:03Z</time>
  <course>270.0</course>
  <speed>0.0</speed>
  <fix>3d</fix>
</trkpt>
<trkpt lat="-27.2744392" lon="151.2900641">
  <ele>343.1</ele>
  <time>2026-09-01T19:53:03Z</time>
  <course>11.34</course>
  <speed>0.022360679774997897</speed>
  <fix>3d</fix>
</trkpt>
<trkpt lat="-27.274439" lon="151.290064">
  <ele>343.1</ele>
  <time>2026-09-01T19:53:03Z</time>
  <course>270.0</course>
  <speed>0.0</speed>
  <fix>3d</fix>
</trkpt>
<trkpt lat="-27.2744392" lon="151.2900641">
  <ele>343.1</ele>
  <time>2026-09-01T19:53:03Z</time>
  <course>11.34</course>
  <speed>0.022360679774997897</speed>
  <fix>3d</fix>
</trkpt>
<trkpt lat="-27.274439" lon="151.290064">
  <ele>343.1</ele>
  <time>2026-09-01T19:53:03Z</time>
  <course>270.0</course>
  <speed>0.0</speed>
  <fix>3d</fix>
</trkpt>
<trkpt lat="-27.2744392" lon="151.2900641">
  <ele>343.1</ele>
  <time>2026-09-01T19:53:03Z</time>
  <course>11.35</course>
  <speed>0.022360679774997897</speed>
  <fix>3d</fix>
</trkpt>
<trkpt lat="-27.274439" lon="151.290064">
  <ele>343.1</ele>
  <time>2026-09-01T19:53:03Z</time>
  <course>270.0</course>
  <speed>0.0</speed>
  <fix>3d</fix>
</trkpt>
<trkpt lat="-27.2744392" lon="151.2900641">
  <ele>343.1</ele>
  <time>2026-09-01T19:53:03Z</time>
  <course>11.35</course>
  <speed>0.022360679774997897</speed>
  <fix>3d</fix>
</trkpt>
<trkpt lat="-27.274439" lon="151.290064">
  <ele>343.1</ele>
  <time>2026-09-01T19:53:03Z</time>
  <course>270.0</course>
  <speed>0.0</speed>
  <fix>3d</fix>
</trkpt>
<trkpt lat="-27.2744392" lon="151.2900641">
  <ele>343.1</ele>
  <time>2026-09-01T19:53:03Z</time>
  <course>11.35</course>
  <speed>0.022360679774997897</speed>
  <fix>3d</fix>
</trkpt>
<trkpt lat="-27.274439" lon="151.290064">
  <ele>343.1</ele>
  <time>2026-09-01T19:53:03Z</time>
  <course>270.0</course>
  <speed>0.0</speed>
  <fix>3d</fix>
</trkpt>
<trkpt lat="-27.2744392" lon="151.2900641">
  <ele>343.1</ele>
  <time>2026-09-01T19:53:03Z</time>
  <course>11.35</course>
  <speed>0.022360679774997897</speed>
  <fix>3d</fix>
</trkpt>
<trkpt lat="-27.274439" lon="151.290064">
  <ele>343.1</ele>
  <time>2026-09-01T19:53:03Z</time>
  <course>270.0</course>
  <speed>0.0</speed>
  <fix>3d</fix>
</trkpt>
<trkpt lat="-27.2744392" lon="151.2900641">
  <ele>343.1</ele>
  <time>2026-09-01T19:53:03Z</time>
  <course>11.35</course>
  <speed>0.022360679774997897</speed>
  <fix>3d</fix>
</trkpt>
<trkpt lat="-27.274439" lon="151.290064">
  <ele>343.1</ele>
  <time>2026-09-01T19:53:03Z</time>
  <course>270.0</course>
  <speed>0.0</speed>
  <fix>3d</fix>
</trkpt>
<trkpt lat="-27.2744392" lon="151.2900641">
  <ele>343.1</ele>
  <time>2026-09-01T19:53:03Z</time>
  <course>11.35</course>
  <speed>0.022360679774997897</speed>
  <fix>3d</fix>
</trkpt>
<trkpt lat="-27.274439" lon="151.290064">
  <ele>343.1</ele>
  <time>2026-09-01T19:53:03Z</time>
  <course>270.0</course>
  <speed>0.0</speed>
  <fix>3d</fix>
</trkpt>
<trkpt lat="-27.2744392" lon="151.2900641">
  <ele>343.1</ele>
  <time>2026-09-01T19:53:03Z</time>
  <course>11.35</course>
  <speed>0.022360679774997897</speed>
  <fix>3d</fix>
</trkpt>
<trkpt lat="-27.274439" lon="151.290064">
  <ele>343.1</ele>
  <time>2026-09-01T19:53:03Z</time>
  <course>270.0</course>
  <speed>0.0</speed>
  <fix>3d</fix>
</trkpt>
<trkpt lat="-27.2744392" lon="151.2900641">
  <ele>343.1</ele>
  <time>2026-09-01T19:53:03Z</time>
  <course>11.35</course>
  <speed>0.022360679774997897</speed>
  <fix>3d</fix>
</trkpt>
<trkpt lat="-27.274439" lon="151.290064">
  <ele>343.1</ele>
  <time>2026-09-01T19:53:03Z</time>
  <course>270.0</course>
  <speed>0.0</speed>
  <fix>3d</fix>
</trkpt>
<trkpt lat="-27.2744392" lon="151.2900641">
  <ele>343.1</ele>
  <time>2026-09-01T19:53:03Z</time>
  <course>11.35</course>
  <speed>0.022360679774997897</speed>
  <fix>3d</fix>
</trkpt>
<trkpt lat="-27.274439" lon="151.290064">
  <ele>343.1</ele>
  <time>2026-09-01T19:53:03Z</time>
  <course>270.0</course>
  <speed>0.0</speed>
  <fix>3d</fix>
</trkpt>
<trkpt lat="-27.2744392" lon="151.2900641">
  <ele>343.1</ele>
  <time>2026-09-01T19:53:03Z</time>
  <course>11.35</course>
  <speed>0.022360679774997897</speed>
  <fix>3d</fix>
</trkpt>
<trkpt lat="-27.274439" lon="151.290064">
  <ele>343.1</ele>
  <time>2026-09-01T19:53:03Z</time>
  <course>270.0</course>
  <speed>0.0</speed>
  <fix>3d</fix>
</trkpt>
<trkpt lat="-27.2744392" lon="151.2900641">
  <ele>343.1</ele>
  <time>2026-09-01T19:53:03Z</time>
  <course>11.36</course>
  <speed>0.022360679774997897</speed>
  <fix>3d</fix>
</trkpt>
<trkpt lat="-27.274439" lon="151.290064">
  <ele>343.1</ele>
  <time>2026-09-01T19:53:03Z</time>
  <course>270.0</course>
  <speed>0.0</speed>
  <fix>3d</fix>
</trkpt>
<trkpt lat="-27.2744392" lon="151.2900641">
  <ele>343.1</ele>
  <time>2026-09-01T19:53:03Z</time>
  <course>11.36</course>
  <speed>0.022360679774997897</speed>
  <fix>3d</fix>
</trkpt>
<trkpt lat="-27.274439" lon="151.290064">
  <ele>343.1</ele>
  <time>2026-09-01T19:53:03Z</time>
  <course>270.0</course>
  <speed>0.0</speed>
  <fix>3d</fix>
</trkpt>
<trkpt lat="-27.2744392" lon="151.2900641">
  <ele>343.1</ele>
  <time>2026-09-01T19:53:03Z</time>
  <course>11.36</course>
  <speed>0.022360679774997897</speed>
  <fix>3d</fix>
</trkpt>
<trkpt lat="-27.274439" lon="151.290064">
  <ele>343.1</ele>
  <time>2026-09-01T19:53:03Z</time>
  <course>270.0</course>
  <speed>0.0</speed>
  <fix>3d</fix>
</trkpt>
<trkpt lat="-27.2744392" lon="151.2900641">
  <ele>343.1</ele>
  <time>2026-09-01T19:53:03Z</time>
  <course>11.36</course>
  <speed>0.022360679774997897</speed>
  <fix>3d</fix>
</trkpt>
<trkpt lat="-27.274439" lon="151.290064">
  <ele>343.1</ele>
  <time>2026-09-01T19:53:03Z</time>
  <course>270.0</course>
  <speed>0.0</speed>
  <fix>3d</fix>
</trkpt>
<trkpt lat="-27.2744392" lon="151.2900641">
  <ele>343.1</ele>
  <time>2026-09-01T19:53:03Z</time>
  <course>11.36</course>
  <speed>0.022360679774997897</speed>
  <fix>3d</fix>
</trkpt>
<trkpt lat="-27.274439" lon="151.290064">
  <ele>343.1</ele>
  <time>2026-09-01T19:53:03Z</time>
  <course>270.0</course>
  <speed>0.0</speed>
  <fix>3d</fix>
</trkpt>
<trkpt lat="-27.2744392" lon="151.2900641">
  <ele>343.1</ele>
  <time>2026-09-01T19:53:03Z</time>
  <course>11.36</course>
  <speed>0.022360679774997897</speed>
  <fix>3d</fix>
</trkpt>
<trkpt lat="-27.274439" lon="151.290064">
  <ele>343.1</ele>
  <time>2026-09-01T19:53:03Z</time>
  <course>270.0</course>
  <speed>0.0</speed>
  <fix>3d</fix>
</trkpt>
<trkpt lat="-27.2744392" lon="151.2900641">
  <ele>343.1</ele>
  <time>2026-09-01T19:53:03Z</time>
  <course>11.36</course>
  <speed>0.022360679774997897</speed>
  <fix>3d</fix>
</trkpt>
<trkpt lat="-27.274439" lon="151.290064">
  <ele>343.1</ele>
  <time>2026-09-01T19:53:03Z</time>
  <course>270.0</course>
  <speed>0.0</speed>
  <fix>3d</fix>
</trkpt>
<trkpt lat="-27.2744392" lon="151.2900641">
  <ele>343.11</ele>
  <time>2026-09-01T19:53:03Z</time>
  <course>11.36</course>
  <speed>0.022360679774997897</speed>
  <fix>3d</fix>
</trkpt>
<trkpt lat="-27.274439" lon="151.290064">
  <ele>343.1</ele>
  <time>2026-09-01T19:53:03Z</time>
  <course>270.0</course>
  <speed>0.0</speed>
  <fix>3d</fix>
</trkpt>
<trkpt lat="-27.2744392" lon="151.2900641">
  <ele>343.11</ele>
  <time>2026-09-01T19:53:03Z</time>
  <course>11.36</course>
  <speed>0.022360679774997897</speed>
  <fix>3d</fix>
</trkpt>
<trkpt lat="-27.274439" lon="151.290064">
  <ele>343.1</ele>
  <time>2026-09-01T19:53:03Z</time>
  <course>270.0</course>
  <speed>0.0</speed>
  <fix>3d</fix>
</trkpt>
<trkpt lat="-27.2744392" lon="151.2900641">
  <ele>343.11</ele>
  <time>2026-09-01T19:53:03Z</time>
  <course>11.36</course>
  <speed>0.022360679774997897</speed>
  <fix>3d</fix>
</trkpt>
<trkpt lat="-27.274439" lon="151.290064">
  <ele>343.1</ele>
  <time>2026-09-01T19:53:03Z</time>
  <course>270.0</course>
  <speed>0.0</speed>
  <fix>3d</fix>
</trkpt>
<trkpt lat="-27.2744392" lon="151.2900641">
  <ele>343.11</ele>
  <time>2026-09-01T19:53:03Z</time>
  <course>11.36</course>
  <speed>0.022360679774997897</speed>
  <fix>3d</fix>
</trkpt>
<trkpt lat="-27.274439" lon="151.290064">
  <ele>343.1</ele>
  <time>2026-09-01T19:53:03Z</time>
  <course>270.0</course>
  <speed>0.0</speed>
  <fix>3d</fix>
</trkpt>
<trkpt lat="-27.2744392" lon="151.2900641">
  <ele>343.11</ele>
  <time>2026-09-01T19:53:03Z</time>
  <course>11.37</course>
  <speed>0.022360679774997897</speed>
  <fix>3d</fix>
</trkpt>
<trkpt lat="-27.274439" lon="151.290064">
  <ele>343.1</ele>
  <time>2026-09-01T19:53:03Z</time>
  <course>270.0</course>
  <speed>0.0</speed>
  <fix>3d</fix>
</trkpt>
<trkpt lat="-27.2744392" lon="151.2900641">
  <ele>343.11</ele>
  <time>2026-09-01T19:53:03Z</time>
  <course>11.37</course>
  <speed>0.022360679774997897</speed>
  <fix>3d</fix>
</trkpt>
<trkpt lat="-27.274439" lon="151.290064">
  <ele>343.1</ele>
  <time>2026-09-01T19:53:03Z</time>
  <course>270.0</course>
  <speed>0.0</speed>
  <fix>3d</fix>
</trkpt>
<trkpt lat="-27.2744392" lon="151.2900641">
  <ele>343.11</ele>
  <time>2026-09-01T19:53:03Z</time>
  <course>11.37</course>
  <speed>0.022360679774997897</speed>
  <fix>3d</fix>
</trkpt>
<trkpt lat="-27.274439" lon="151.290064">
  <ele>343.1</ele>
  <time>2026-09-01T19:53:03Z</time>
  <course>270.0</course>
  <speed>0.0</speed>
  <fix>3d</fix>
</trkpt>
<trkpt lat="-27.2744392" lon="151.2900641">
  <ele>343.11</ele>
  <time>2026-09-01T19:53:03Z</time>
  <course>11.37</course>
  <speed>0.022360679774997897</speed>
  <fix>3d</fix>
</trkpt>
<trkpt lat="-27.274439" lon="151.290064">
  <ele>343.1</ele>
  <time>2026-09-01T19:53:03Z</time>
  <course>270.0</course>
  <speed>0.0</speed>
  <fix>3d</fix>
</trkpt>
<trkpt lat="-27.2744392" lon="151.2900641">
  <ele>343.11</ele>
  <time>2026-09-01T19:53:03Z</time>
  <course>11.37</course>
  <speed>0.022360679774997897</speed>
  <fix>3d</fix>
</trkpt>
<trkpt lat="-27.274439" lon="151.290064">
  <ele>343.1</ele>
  <time>2026-09-01T19:53:03Z</time>
  <course>270.0</course>
  <speed>0.0</speed>
  <fix>3d</fix>
</trkpt>
<trkpt lat="-27.2744392" lon="151.2900641">
  <ele>343.11</ele>
  <time>2026-09-01T19:53:03Z</time>
  <course>11.37</course>
  <speed>0.022360679774997897</speed>
  <fix>3d</fix>
</trkpt>
<trkpt lat="-27.274439" lon="151.290064">
  <ele>343.1</ele>
  <time>2026-09-01T19:53:03Z</time>
  <course>270.0</course>
  <speed>0.0</speed>
  <fix>3d</fix>
</trkpt>
<trkpt lat="-27.2744392" lon="151.2900641">
  <ele>343.11</ele>
  <time>2026-09-01T19:53:03Z</time>
  <course>11.37</course>
  <speed>0.022360679774997897</speed>
  <fix>3d</fix>
</trkpt>
<trkpt lat="-27.274439" lon="151.290064">
  <ele>343.1</ele>
  <time>2026-09-01T19:53:03Z</time>
  <course>270.0</course>
  <speed>0.0</speed>
  <fix>3d</fix>
</trkpt>
<trkpt lat="-27.2744392" lon="151.2900641">
  <ele>343.11</ele>
  <time>2026-09-01T19:53:03Z</time>
  <course>11.37</course>
  <speed>0.022360679774997897</speed>
  <fix>3d</fix>
</trkpt>
<trkpt lat="-27.274439" lon="151.290064">
  <ele>343.1</ele>
  <time>2026-09-01T19:53:03Z</time>
  <course>270.0</course>
  <speed>0.0</speed>
  <fix>3d</fix>
</trkpt>
<trkpt lat="-27.2744392" lon="151.2900641">
  <ele>343.11</ele>
  <time>2026-09-01T19:53:03Z</time>
  <course>11.37</course>
  <speed>0.022360679774997897</speed>
  <fix>3d</fix>
</trkpt>
<trkpt lat="-27.274439" lon="151.290064">
  <ele>343.1</ele>
  <time>2026-09-01T19:53:03Z</time>
  <course>270.0</course>
  <speed>0.0</speed>
  <fix>3d</fix>
</trkpt>
<trkpt lat="-27.2744392" lon="151.2900641">
  <ele>343.11</ele>
  <time>2026-09-01T19:53:03Z</time>
  <course>11.37</course>
  <speed>0.022360679774997897</speed>
  <fix>3d</fix>
</trkpt>
<trkpt lat="-27.274439" lon="151.290064">
  <ele>343.1</ele>
  <time>2026-09-01T19:53:03Z</time>
  <course>270.0</course>
  <speed>0.0</speed>
  <fix>3d</fix>
</trkpt>
<trkpt lat="-27.2744392" lon="151.2900641">
  <ele>343.11</ele>
  <time>2026-09-01T19:53:03Z</time>
  <course>11.38</course>
  <speed>0.022360679774997897</speed>
  <fix>3d</fix>
</trkpt>
<trkpt lat="-27.274439" lon="151.290064">
  <ele>343.1</ele>
  <time>2026-09-01T19:53:03Z</time>
  <course>270.0</course>
  <speed>0.0</speed>
  <fix>3d</fix>
</trkpt>
<trkpt lat="-27.2744392" lon="151.2900641">
  <ele>343.11</ele>
  <time>2026-09-01T19:53:03Z</time>
  <course>11.38</course>
  <speed>0.022360679774997897</speed>
  <fix>3d</fix>
</trkpt>
<trkpt lat="-27.274439" lon="151.290064">
  <ele>343.1</ele>
  <time>2026-09-01T19:53:03Z</time>
  <course>270.0</course>
  <speed>0.0</speed>
  <fix>3d</fix>
</trkpt>
<trkpt lat="-27.2744392" lon="151.2900641">
  <ele>343.12</ele>
  <time>2026-09-01T19:53:03Z</time>
  <course>11.38</course>
  <speed>0.022360679774997897</speed>
  <fix>3d</fix>
</trkpt>
<trkpt lat="-27.274439" lon="151.290064">
  <ele>343.1</ele>
  <time>2026-09-01T19:53:03Z</time>
  <course>270.0</course>
  <speed>0.0</speed>
  <fix>3d</fix>
</trkpt>
<trkpt lat="-27.2744392" lon="151.2900641">
  <ele>343.12</ele>
  <time>2026-09-01T19:53:03Z</time>
  <course>11.38</course>
  <speed>0.022360679774997897</speed>
  <fix>3d</fix>
</trkpt>
<trkpt lat="-27.274439" lon="151.290064">
  <ele>343.1</ele>
  <time>2026-09-01T19:53:03Z</time>
  <course>270.0</course>
  <speed>0.0</speed>
  <fix>3d</fix>
</trkpt>
<trkpt lat="-27.2744392" lon="151.2900641">
  <ele>343.12</ele>
  <time>2026-09-01T19:53:03Z</time>
  <course>11.38</course>
  <speed>0.022360679774997897</speed>
  <fix>3d</fix>
</trkpt>
<trkpt lat="-27.274439" lon="151.290064">
  <ele>343.1</ele>
  <time>2026-09-01T19:53:03Z</time>
  <course>270.0</course>
  <speed>0.0</speed>
  <fix>3d</fix>
</trkpt>
<trkpt lat="-27.2744392" lon="151.2900641">
  <ele>343.12</ele>
  <time>2026-09-01T19:53:03Z</time>
  <course>11.38</course>
  <speed>0.022360679774997897</speed>
  <fix>3d</fix>
</trkpt>
<trkpt lat="-27.274439" lon="151.290064">
  <ele>343.1</ele>
  <time>2026-09-01T19:53:03Z</time>
  <course>270.0</course>
  <speed>0.0</speed>
  <fix>3d</fix>
</trkpt>
<trkpt lat="-27.2744392" lon="151.2900641">
  <ele>343.13</ele>
  <time>2026-09-01T19:53:03Z</time>
  <course>11.38</course>
  <speed>0.022360679774997897</speed>
  <fix>3d</fix>
</trkpt>
<trkpt lat="-27.274439" lon="151.290064">
  <ele>343.1</ele>
  <time>2026-09-01T19:53:03Z</time>
  <course>270.0</course>
  <speed>0.0</speed>
  <fix>3d</fix>
</trkpt>
<trkpt lat="-27.2744392" lon="151.2900641">
  <ele>343.13</ele>
  <time>2026-09-01T19:53:03Z</time>
  <course>11.38</course>
  <speed>0.022360679774997897</speed>
  <fix>3d</fix>
</trkpt>
<trkpt lat="-27.274439" lon="151.290064">
  <ele>343.1</ele>
  <time>2026-09-01T19:53:03Z</time>
  <course>270.0</course>
  <speed>0.0</speed>
  <fix>3d</fix>
</trkpt>
<trkpt lat="-27.2744392" lon="151.2900641">
  <ele>343.13</ele>
  <time>2026-09-01T19:53:03Z</time>
  <course>11.38</course>
  <speed>0.022360679774997897</speed>
  <fix>3d</fix>
</trkpt>
<trkpt lat="-27.274439" lon="151.290064">
  <ele>343.1</ele>
  <time>2026-09-01T19:53:03Z</time>
  <course>270.0</course>
  <speed>0.0</speed>
  <fix>3d</fix>
</trkpt>
<trkpt lat="-27.2744392" lon="151.2900641">
  <ele>343.13</ele>
  <time>2026-09-01T19:53:03Z</time>
  <course>11.38</course>
  <speed>0.022360679774997897</speed>
  <fix>3d</fix>
</trkpt>
<trkpt lat="-27.274439" lon="151.290064">
  <ele>343.1</ele>
  <time>2026-09-01T19:53:03Z</time>
  <course>270.0</course>
  <speed>0.0</speed>
  <fix>3d</fix>
</trkpt>
<trkpt lat="-27.2744392" lon="151.2900641">
  <ele>343.13</ele>
  <time>2026-09-01T19:53:03Z</time>
  <course>11.38</course>
  <speed>0.022360679774997897</speed>
  <fix>3d</fix>
</trkpt>
<trkpt lat="-27.274439" lon="151.290064">
  <ele>343.1</ele>
  <time>2026-09-01T19:53:03Z</time>
  <course>270.0</course>
  <speed>0.0</speed>
  <fix>3d</fix>
</trkpt>
<trkpt lat="-27.2744392" lon="151.2900641">
  <ele>343.13</ele>
  <time>2026-09-01T19:53:03Z</time>
  <course>11.39</course>
  <speed>0.022360679774997897</speed>
  <fix>3d</fix>
</trkpt>
<trkpt lat="-27.274439" lon="151.290064">
  <ele>343.1</ele>
  <time>2026-09-01T19:53:03Z</time>
  <course>270.0</course>
  <speed>0.0</speed>
  <fix>3d</fix>
</trkpt>
<trkpt lat="-27.2744392" lon="151.2900641">
  <ele>343.09</ele>
  <time>2026-09-01T19:53:03Z</time>
  <course>11.39</course>
  <speed>0.022360679774997897</speed>
  <fix>3d</fix>
</trkpt>
<trkpt lat="-27.274439" lon="151.290064">
  <ele>343.1</ele>
  <time>2026-09-01T19:53:03Z</time>
  <course>270.0</course>
  <speed>0.0</speed>
  <fix>3d</fix>
</trkpt>
<trkpt lat="-27.2744392" lon="151.2900641">
  <ele>343.1</ele>
  <time>2026-09-01T19:53:03Z</time>
  <course>11.39</course>
  <speed>0.022360679774997897</speed>
  <fix>3d</fix>
</trkpt>
<trkpt lat="-27.274439" lon="151.290064">
  <ele>343.1</ele>
  <time>2026-09-01T19:53:03Z</time>
  <course>270.0</course>
  <speed>0.0</speed>
  <fix>3d</fix>
</trkpt>
<trkpt lat="-27.2744392" lon="151.2900641">
  <ele>343.1</ele>
  <time>2026-09-01T19:53:03Z</time>
  <course>11.39</course>
  <speed>0.022360679774997897</speed>
  <fix>3d</fix>
</trkpt>
<trkpt lat="-27.274439" lon="151.290064">
  <ele>343.1</ele>
  <time>2026-09-01T19:53:03Z</time>
  <course>270.0</course>
  <speed>0.0</speed>
  <fix>3d</fix>
</trkpt>
<trkpt lat="-27.2744392" lon="151.2900641">
  <ele>343.1</ele>
  <time>2026-09-01T19:53:03Z</time>
  <course>11.39</course>
  <speed>0.022360679774997897</speed>
  <fix>3d</fix>
</trkpt>
<trkpt lat="-27.274439" lon="151.290064">
  <ele>343.1</ele>
  <time>2026-09-01T19:53:03Z</time>
  <course>270.0</course>
  <speed>0.0</speed>
  <fix>3d</fix>
</trkpt>
<trkpt lat="-27.2744392" lon="151.2900641">
  <ele>343.1</ele>
  <time>2026-09-01T19:53:03Z</time>
  <course>11.39</course>
  <speed>0.022360679774997897</speed>
  <fix>3d</fix>
</trkpt>
<trkpt lat="-27.274439" lon="151.290064">
  <ele>343.1</ele>
  <time>2026-09-01T19:53:03Z</time>
  <course>270.0</course>
  <speed>0.0</speed>
  <fix>3d</fix>
</trkpt>
<trkpt lat="-27.2744392" lon="151.2900641">
  <ele>343.11</ele>
  <time>2026-09-01T19:53:03Z</time>
  <course>11.39</course>
  <speed>0.022360679774997897</speed>
  <fix>3d</fix>
</trkpt>
<trkpt lat="-27.274439" lon="151.290064">
  <ele>343.1</ele>
  <time>2026-09-01T19:53:03Z</time>
  <course>270.0</course>
  <speed>0.0</speed>
  <fix>3d</fix>
</trkpt>
<trkpt lat="-27.2744392" lon="151.2900641">
  <ele>343.11</ele>
  <time>2026-09-01T19:53:03Z</time>
  <course>11.39</course>
  <speed>0.022360679774997897</speed>
  <fix>3d</fix>
</trkpt>
<trkpt lat="-27.274439" lon="151.290064">
  <ele>343.1</ele>
  <time>2026-09-01T19:53:03Z</time>
  <course>270.0</course>
  <speed>0.0</speed>
  <fix>3d</fix>
</trkpt>
<trkpt lat="-27.2744392" lon="151.2900641">
  <ele>343.12</ele>
  <time>2026-09-01T19:53:03Z</time>
  <course>11.39</course>
  <speed>0.022360679774997897</speed>
  <fix>3d</fix>
</trkpt>
<trkpt lat="-27.274439" lon="151.290064">
  <ele>343.1</ele>
  <time>2026-09-01T19:53:03Z</time>
  <course>270.0</course>
  <speed>0.0</speed>
  <fix>3d</fix>
</trkpt>
<trkpt lat="-27.2744392" lon="151.2900641">
  <ele>343.12</ele>
  <time>2026-09-01T19:53:03Z</time>
  <course>11.39</course>
  <speed>0.022360679774997897</speed>
  <fix>3d</fix>
</trkpt>
<trkpt lat="-27.274439" lon="151.290064">
  <ele>343.1</ele>
  <time>2026-09-01T19:53:03Z</time>
  <course>270.0</course>
  <speed>0.0</speed>
  <fix>3d</fix>
</trkpt>
<trkpt lat="-27.2744392" lon="151.2900641">
  <ele>343.12</ele>
  <time>2026-09-01T19:53:03Z</time>
  <course>11.39</course>
  <speed>0.022360679774997897</speed>
  <fix>3d</fix>
</trkpt>
<trkpt lat="-27.274439" lon="151.290064">
  <ele>343.1</ele>
  <time>2026-09-01T19:53:03Z</time>
  <course>270.0</course>
  <speed>0.0</speed>
  <fix>3d</fix>
</trkpt>
<trkpt lat="-27.2744392" lon="151.2900641">
  <ele>343.12</ele>
  <time>2026-09-01T19:53:03Z</time>
  <course>11.4</course>
  <speed>0.022360679774997897</speed>
  <fix>3d</fix>
</trkpt>
<trkpt lat="-27.274439" lon="151.290064">
  <ele>343.1</ele>
  <time>2026-09-01T19:53:03Z</time>
  <course>270.0</course>
  <speed>0.0</speed>
  <fix>3d</fix>
</trkpt>
<trkpt lat="-27.2744392" lon="151.2900641">
  <ele>343.13</ele>
  <time>2026-09-01T19:53:03Z</time>
  <course>11.4</course>
  <speed>0.022360679774997897</speed>
  <fix>3d</fix>
</trkpt>
<trkpt lat="-27.274439" lon="151.290064">
  <ele>343.1</ele>
  <time>2026-09-01T19:53:03Z</time>
  <course>270.0</course>
  <speed>0.0</speed>
  <fix>3d</fix>
</trkpt>
<trkpt lat="-27.2744392" lon="151.2900641">
  <ele>343.13</ele>
  <time>2026-09-01T19:53:03Z</time>
  <course>11.4</course>
  <speed>0.022360679774997897</speed>
  <fix>3d</fix>
</trkpt>
<trkpt lat="-27.274439" lon="151.290064">
  <ele>343.1</ele>
  <time>2026-09-01T19:53:03Z</time>
  <course>270.0</course>
  <speed>0.0</speed>
  <fix>3d</fix>
</trkpt>
<trkpt lat="-27.2744392" lon="151.2900641">
  <ele>343.13</ele>
  <time>2026-09-01T19:53:03Z</time>
  <course>11.4</course>
  <speed>0.022360679774997897</speed>
  <fix>3d</fix>
</trkpt>
<trkpt lat="-27.274439" lon="151.290064">
  <ele>343.1</ele>
  <time>2026-09-01T19:53:03Z</time>
  <course>270.0</course>
  <speed>0.0</speed>
  <fix>3d</fix>
</trkpt>
<trkpt lat="-27.2744392" lon="151.2900641">
  <ele>343.13</ele>
  <time>2026-09-01T19:53:03Z</time>
  <course>11.4</course>
  <speed>0.022360679774997897</speed>
  <fix>3d</fix>
</trkpt>
<trkpt lat="-27.274439" lon="151.290064">
  <ele>343.1</ele>
  <time>2026-09-01T19:53:03Z</time>
  <course>270.0</course>
  <speed>0.0</speed>
  <fix>3d</fix>
</trkpt>
<trkpt lat="-27.2744392" lon="151.2900641">
  <ele>343.14</ele>
  <time>2026-09-01T19:53:03Z</time>
  <course>11.4</course>
  <speed>0.022360679774997897</speed>
  <fix>3d</fix>
</trkpt>
<trkpt lat="-27.274439" lon="151.290064">
  <ele>343.1</ele>
  <time>2026-09-01T19:53:03Z</time>
  <course>270.0</course>
  <speed>0.0</speed>
  <fix>3d</fix>
</trkpt>
<trkpt lat="-27.2744392" lon="151.2900641">
  <ele>343.14</ele>
  <time>2026-09-01T19:53:03Z</time>
  <course>11.4</course>
  <speed>0.022360679774997897</speed>
  <fix>3d</fix>
</trkpt>
<trkpt lat="-27.274439" lon="151.290064">
  <ele>343.1</ele>
  <time>2026-09-01T19:53:03Z</time>
  <course>270.0</course>
  <speed>0.0</speed>
  <fix>3d</fix>
</trkpt>
<trkpt lat="-27.2744392" lon="151.2900641">
  <ele>343.14</ele>
  <time>2026-09-01T19:53:03Z</time>
  <course>11.4</course>
  <speed>0.022360679774997897</speed>
  <fix>3d</fix>
</trkpt>
<trkpt lat="-27.274439" lon="151.290064">
  <ele>343.1</ele>
  <time>2026-09-01T19:53:03Z</time>
  <course>270.0</course>
  <speed>0.0</speed>
  <fix>3d</fix>
</trkpt>
<trkpt lat="-27.2744392" lon="151.2900641">
  <ele>343.15</ele>
  <time>2026-09-01T19:53:03Z</time>
  <course>11.4</course>
  <speed>0.022360679774997897</speed>
  <fix>3d</fix>
</trkpt>
<trkpt lat="-27.274439" lon="151.290064">
  <ele>343.1</ele>
  <time>2026-09-01T19:53:03Z</time>
  <course>270.0</course>
  <speed>0.0</speed>
  <fix>3d</fix>
</trkpt>
<trkpt lat="-27.2744392" lon="151.2900641">
  <ele>343.15</ele>
  <time>2026-09-01T19:53:03Z</time>
  <course>11.4</course>
  <speed>0.022360679774997897</speed>
  <fix>3d</fix>
</trkpt>
<trkpt lat="-27.274439" lon="151.290064">
  <ele>343.1</ele>
  <time>2026-09-01T19:53:03Z</time>
  <course>270.0</course>
  <speed>0.0</speed>
  <fix>3d</fix>
</trkpt>
<trkpt lat="-27.2744392" lon="151.2900641">
  <ele>343.15</ele>
  <time>2026-09-01T19:53:03Z</time>
  <course>11.4</course>
  <speed>0.022360679774997897</speed>
  <fix>3d</fix>
</trkpt>
<trkpt lat="-27.274439" lon="151.290064">
  <ele>343.1</ele>
  <time>2026-09-01T19:53:03Z</time>
  <course>270.0</course>
  <speed>0.0</speed>
  <fix>3d</fix>
</trkpt>
<trkpt lat="-27.2744392" lon="151.2900641">
  <ele>343.16</ele>
  <time>2026-09-01T19:53:03Z</time>
  <course>11.41</course>
  <speed>0.022360679774997897</speed>
  <fix>3d</fix>
</trkpt>
<trkpt lat="-27.274439" lon="151.290064">
  <ele>343.1</ele>
  <time>2026-09-01T19:53:03Z</time>
  <course>270.0</course>
  <speed>0.0</speed>
  <fix>3d</fix>
</trkpt>
<trkpt lat="-27.2744392" lon="151.2900641">
  <ele>343.16</ele>
  <time>2026-09-01T19:53:03Z</time>
  <course>11.41</course>
  <speed>0.022360679774997897</speed>
  <fix>3d</fix>
</trkpt>
<trkpt lat="-27.274439" lon="151.290064">
  <ele>343.1</ele>
  <time>2026-09-01T19:53:03Z</time>
  <course>270.0</course>
  <speed>0.0</speed>
  <fix>3d</fix>
</trkpt>
<trkpt lat="-27.2744392" lon="151.2900641">
  <ele>343.16</ele>
  <time>2026-09-01T19:53:03Z</time>
  <course>11.41</course>
  <speed>0.022360679774997897</speed>
  <fix>3d</fix>
</trkpt>
<trkpt lat="-27.274439" lon="151.290064">
  <ele>343.1</ele>
  <time>2026-09-01T19:53:03Z</time>
  <course>270.0</course>
  <speed>0.0</speed>
  <fix>3d</fix>
</trkpt>
<trkpt lat="-27.2744392" lon="151.2900641">
  <ele>343.17</ele>
  <time>2026-09-01T19:53:03Z</time>
  <course>11.41</course>
  <speed>0.022360679774997897</speed>
  <fix>3d</fix>
</trkpt>
<trkpt lat="-27.274439" lon="151.290064">
  <ele>343.1</ele>
  <time>2026-09-01T19:53:03Z</time>
  <course>270.0</course>
  <speed>0.0</speed>
  <fix>3d</fix>
</trkpt>
<trkpt lat="-27.2744392" lon="151.2900641">
  <ele>343.17</ele>
  <time>2026-09-01T19:53:03Z</time>
  <course>11.41</course>
  <speed>0.022360679774997897</speed>
  <fix>3d</fix>
</trkpt>
<trkpt lat="-27.274439" lon="151.290064">
  <ele>343.1</ele>
  <time>2026-09-01T19:53:03Z</time>
  <course>270.0</course>
  <speed>0.0</speed>
  <fix>3d</fix>
</trkpt>
<trkpt lat="-27.2744392" lon="151.2900641">
  <ele>343.17</ele>
  <time>2026-09-01T19:53:03Z</time>
  <course>11.41</course>
  <speed>0.022360679774997897</speed>
  <fix>3d</fix>
</trkpt>
<trkpt lat="-27.274439" lon="151.290064">
  <ele>343.1</ele>
  <time>2026-09-01T19:53:03Z</time>
  <course>270.0</course>
  <speed>0.0</speed>
  <fix>3d</fix>
</trkpt>
<trkpt lat="-27.2744392" lon="151.2900641">
  <ele>343.18</ele>
  <time>2026-09-01T19:53:03Z</time>
  <course>11.41</course>
  <speed>0.022360679774997897</speed>
  <fix>3d</fix>
</trkpt>
<trkpt lat="-27.274439" lon="151.290064">
  <ele>343.1</ele>
  <time>2026-09-01T19:53:03Z</time>
  <course>270.0</course>
  <speed>0.0</speed>
  <fix>3d</fix>
</trkpt>
<trkpt lat="-27.2744392" lon="151.2900641">
  <ele>343.18</ele>
  <time>2026-09-01T19:53:03Z</time>
  <course>11.41</course>
  <speed>0.022360679774997897</speed>
  <fix>3d</fix>
</trkpt>
<trkpt lat="-27.274439" lon="151.290064">
  <ele>343.1</ele>
  <time>2026-09-01T19:53:03Z</time>
  <course>270.0</course>
  <speed>0.0</speed>
  <fix>3d</fix>
</trkpt>
<trkpt lat="-27.2744392" lon="151.2900641">
  <ele>343.18</ele>
  <time>2026-09-01T19:53:03Z</time>
  <course>11.41</course>
  <speed>0.022360679774997897</speed>
  <fix>3d</fix>
</trkpt>
<trkpt lat="-27.274439" lon="151.290064">
  <ele>343.1</ele>
  <time>2026-09-01T19:53:03Z</time>
  <course>270.0</course>
  <speed>0.0</speed>
  <fix>3d</fix>
</trkpt>
<trkpt lat="-27.2744392" lon="151.2900641">
  <ele>343.19</ele>
  <time>2026-09-01T19:53:03Z</time>
  <course>11.41</course>
  <speed>0.022360679774997897</speed>
  <fix>3d</fix>
</trkpt>
<trkpt lat="-27.274439" lon="151.290064">
  <ele>343.1</ele>
  <time>2026-09-01T19:53:03Z</time>
  <course>270.0</course>
  <speed>0.0</speed>
  <fix>3d</fix>
</trkpt>
<trkpt lat="-27.2744392" lon="151.2900641">
  <ele>343.19</ele>
  <time>2026-09-01T19:53:03Z</time>
  <course>11.41</course>
  <speed>0.022360679774997897</speed>
  <fix>3d</fix>
</trkpt>
<trkpt lat="-27.274439" lon="151.290064">
  <ele>343.1</ele>
  <time>2026-09-01T19:53:03Z</time>
  <course>270.0</course>
  <speed>0.0</speed>
  <fix>3d</fix>
</trkpt>
<trkpt lat="-27.2744392" lon="151.2900641">
  <ele>343.2</ele>
  <time>2026-09-01T19:53:03Z</time>
  <course>11.42</course>
  <speed>0.022360679774997897</speed>
  <fix>3d</fix>
</trkpt>
<trkpt lat="-27.274439" lon="151.290064">
  <ele>343.1</ele>
  <time>2026-09-01T19:53:03Z</time>
  <course>270.0</course>
  <speed>0.0</speed>
  <fix>3d</fix>
</trkpt>
<trkpt lat="-27.2744392" lon="151.2900641">
  <ele>343.2</ele>
  <time>2026-09-01T19:53:03Z</time>
  <course>11.42</course>
  <speed>0.022360679774997897</speed>
  <fix>3d</fix>
</trkpt>
<trkpt lat="-27.274439" lon="151.290064">
  <ele>343.1</ele>
  <time>2026-09-01T19:53:03Z</time>
  <course>270.0</course>
  <speed>0.0</speed>
  <fix>3d</fix>
</trkpt>
<trkpt lat="-27.2744392" lon="151.2900641">
  <ele>343.2</ele>
  <time>2026-09-01T19:53:03Z</time>
  <course>11.42</course>
  <speed>0.022360679774997897</speed>
  <fix>3d</fix>
</trkpt>
<trkpt lat="-27.274439" lon="151.290064">
  <ele>343.1</ele>
  <time>2026-09-01T19:53:03Z</time>
  <course>270.0</course>
  <speed>0.0</speed>
  <fix>3d</fix>
</trkpt>
<trkpt lat="-27.2744392" lon="151.2900641">
  <ele>343.21</ele>
  <time>2026-09-01T19:53:03Z</time>
  <course>11.42</course>
  <speed>0.022360679774997897</speed>
  <fix>3d</fix>
</trkpt>
<trkpt lat="-27.274439" lon="151.290064">
  <ele>343.1</ele>
  <time>2026-09-01T19:53:03Z</time>
  <course>270.0</course>
  <speed>0.0</speed>
  <fix>3d</fix>
</trkpt>
<trkpt lat="-27.2744392" lon="151.2900641">
  <ele>343.21</ele>
  <time>2026-09-01T19:53:03Z</time>
  <course>11.42</course>
  <speed>0.022360679774997897</speed>
  <fix>3d</fix>
</trkpt>
<trkpt lat="-27.274439" lon="151.290064">
  <ele>343.1</ele>
  <time>2026-09-01T19:53:03Z</time>
  <course>270.0</course>
  <speed>0.0</speed>
  <fix>3d</fix>
</trkpt>
<trkpt lat="-27.2744392" lon="151.2900641">
  <ele>343.21</ele>
  <time>2026-09-01T19:53:03Z</time>
  <course>11.42</course>
  <speed>0.022360679774997897</speed>
  <fix>3d</fix>
</trkpt>
<trkpt lat="-27.274439" lon="151.290064">
  <ele>343.1</ele>
  <time>2026-09-01T19:53:03Z</time>
  <course>270.0</course>
  <speed>0.0</speed>
  <fix>3d</fix>
</trkpt>
<trkpt lat="-27.2744392" lon="151.2900641">
  <ele>343.22</ele>
  <time>2026-09-01T19:53:03Z</time>
  <course>11.42</course>
  <speed>0.022360679774997897</speed>
  <fix>3d</fix>
</trkpt>
<trkpt lat="-27.274439" lon="151.290064">
  <ele>343.1</ele>
  <time>2026-09-01T19:53:03Z</time>
  <course>270.0</course>
  <speed>0.0</speed>
  <fix>3d</fix>
</trkpt>
<trkpt lat="-27.2744392" lon="151.2900641">
  <ele>343.23</ele>
  <time>2026-09-01T19:53:03Z</time>
  <course>11.42</course>
  <speed>0.022360679774997897</speed>
  <fix>3d</fix>
</trkpt>
<trkpt lat="-27.274439" lon="151.290064">
  <ele>343.1</ele>
  <time>2026-09-01T19:53:03Z</time>
  <course>270.0</course>
  <speed>0.0</speed>
  <fix>3d</fix>
</trkpt>
<trkpt lat="-27.2744392" lon="151.2900641">
  <ele>343.23</ele>
  <time>2026-09-01T19:53:03Z</time>
  <course>11.42</course>
  <speed>0.022360679774997897</speed>
  <fix>3d</fix>
</trkpt>
<trkpt lat="-27.274439" lon="151.290064">
  <ele>343.1</ele>
  <time>2026-09-01T19:53:03Z</time>
  <course>270.0</course>
  <speed>0.0</speed>
  <fix>3d</fix>
</trkpt>
<trkpt lat="-27.2744392" lon="151.2900641">
  <ele>343.24</ele>
  <time>2026-09-01T19:53:03Z</time>
  <course>11.42</course>
  <speed>0.022360679774997897</speed>
  <fix>3d</fix>
</trkpt>
<trkpt lat="-27.274439" lon="151.290064">
  <ele>343.1</ele>
  <time>2026-09-01T19:53:03Z</time>
  <course>270.0</course>
  <speed>0.0</speed>
  <fix>3d</fix>
</trkpt>
<trkpt lat="-27.2744392" lon="151.2900641">
  <ele>343.24</ele>
  <time>2026-09-01T19:53:03Z</time>
  <course>11.43</course>
  <speed>0.022360679774997897</speed>
  <fix>3d</fix>
</trkpt>
<trkpt lat="-27.274439" lon="151.290064">
  <ele>343.1</ele>
  <time>2026-09-01T19:53:03Z</time>
  <course>270.0</course>
  <speed>0.0</speed>
  <fix>3d</fix>
</trkpt>
<trkpt lat="-27.2744392" lon="151.2900641">
  <ele>343.24</ele>
  <time>2026-09-01T19:53:03Z</time>
  <course>11.43</course>
  <speed>0.022360679774997897</speed>
  <fix>3d</fix>
</trkpt>
<trkpt lat="-27.274439" lon="151.290064">
  <ele>343.1</ele>
  <time>2026-09-01T19:53:03Z</time>
  <course>270.0</course>
  <speed>0.0</speed>
  <fix>3d</fix>
</trkpt>
<trkpt lat="-27.2744392" lon="151.2900641">
  <ele>343.25</ele>
  <time>2026-09-01T19:53:03Z</time>
  <course>11.43</course>
  <speed>0.022360679774997897</speed>
  <fix>3d</fix>
</trkpt>
<trkpt lat="-27.274439" lon="151.290064">
  <ele>343.1</ele>
  <time>2026-09-01T19:53:03Z</time>
  <course>270.0</course>
  <speed>0.0</speed>
  <fix>3d</fix>
</trkpt>
<trkpt lat="-27.2744392" lon="151.2900641">
  <ele>343.25</ele>
  <time>2026-09-01T19:53:03Z</time>
  <course>11.43</course>
  <speed>0.022360679774997897</speed>
  <fix>3d</fix>
</trkpt>
<trkpt lat="-27.274439" lon="151.290064">
  <ele>343.1</ele>
  <time>2026-09-01T19:53:03Z</time>
  <course>270.0</course>
  <speed>0.0</speed>
  <fix>3d</fix>
</trkpt>
<trkpt lat="-27.2744392" lon="151.2900641">
  <ele>343.26</ele>
  <time>2026-09-01T19:53:03Z</time>
  <course>11.43</course>
  <speed>0.022360679774997897</speed>
  <fix>3d</fix>
</trkpt>
<trkpt lat="-27.274439" lon="151.290064">
  <ele>343.1</ele>
  <time>2026-09-01T19:53:03Z</time>
  <course>270.0</course>
  <speed>0.0</speed>
  <fix>3d</fix>
</trkpt>
<trkpt lat="-27.2744392" lon="151.2900641">
  <ele>343.26</ele>
  <time>2026-09-01T19:53:03Z</time>
  <course>11.43</course>
  <speed>0.022360679774997897</speed>
  <fix>3d</fix>
</trkpt>
<trkpt lat="-27.274439" lon="151.290064">
  <ele>343.1</ele>
  <time>2026-09-01T19:53:03Z</time>
  <course>270.0</course>
  <speed>0.0</speed>
  <fix>3d</fix>
</trkpt>
<trkpt lat="-27.2744392" lon="151.2900641">
  <ele>343.26</ele>
  <time>2026-09-01T19:53:03Z</time>
  <course>11.43</course>
  <speed>0.022360679774997897</speed>
  <fix>3d</fix>
</trkpt>
<trkpt lat="-27.274439" lon="151.290064">
  <ele>343.1</ele>
  <time>2026-09-01T19:53:03Z</time>
  <course>270.0</course>
  <speed>0.0</speed>
  <fix>3d</fix>
</trkpt>
<trkpt lat="-27.2744392" lon="151.2900641">
  <ele>343.26</ele>
  <time>2026-09-01T19:53:03Z</time>
  <course>11.43</course>
  <speed>0.022360679774997897</speed>
  <fix>3d</fix>
</trkpt>
<trkpt lat="-27.274439" lon="151.290064">
  <ele>343.1</ele>
  <time>2026-09-01T19:53:03Z</time>
  <course>270.0</course>
  <speed>0.0</speed>
  <fix>3d</fix>
</trkpt>
<trkpt lat="-27.2744392" lon="151.2900641">
  <ele>343.26</ele>
  <time>2026-09-01T19:53:03Z</time>
  <course>11.43</course>
  <speed>0.022360679774997897</speed>
  <fix>3d</fix>
</trkpt>
<trkpt lat="-27.274439" lon="151.290064">
  <ele>343.1</ele>
  <time>2026-09-01T19:53:03Z</time>
  <course>270.0</course>
  <speed>0.0</speed>
  <fix>3d</fix>
</trkpt>
<trkpt lat="-27.2744392" lon="151.2900641">
  <ele>343.26</ele>
  <time>2026-09-01T19:53:03Z</time>
  <course>11.43</course>
  <speed>0.022360679774997897</speed>
  <fix>3d</fix>
</trkpt>
<trkpt lat="-27.274439" lon="151.290064">
  <ele>343.1</ele>
  <time>2026-09-01T19:53:03Z</time>
  <course>270.0</course>
  <speed>0.0</speed>
  <fix>3d</fix>
</trkpt>
<trkpt lat="-27.2744392" lon="151.2900641">
  <ele>343.26</ele>
  <time>2026-09-01T19:53:03Z</time>
  <course>11.43</course>
  <speed>0.022360679774997897</speed>
  <fix>3d</fix>
</trkpt>
<trkpt lat="-27.274439" lon="151.290064">
  <ele>343.1</ele>
  <time>2026-09-01T19:53:03Z</time>
  <course>270.0</course>
  <speed>0.0</speed>
  <fix>3d</fix>
</trkpt>
<trkpt lat="-27.2744392" lon="151.2900641">
  <ele>343.26</ele>
  <time>2026-09-01T19:53:03Z</time>
  <course>11.43</course>
  <speed>0.022360679774997897</speed>
  <fix>3d</fix>
</trkpt>
<trkpt lat="-27.274439" lon="151.290064">
  <ele>343.1</ele>
  <time>2026-09-01T19:53:03Z</time>
  <course>270.0</course>
  <speed>0.0</speed>
  <fix>3d</fix>
</trkpt>
<trkpt lat="-27.2744392" lon="151.2900641">
  <ele>343.26</ele>
  <time>2026-09-01T19:53:03Z</time>
  <course>11.44</course>
  <speed>0.022360679774997897</speed>
  <fix>3d</fix>
</trkpt>
<trkpt lat="-27.274439" lon="151.290064">
  <ele>343.1</ele>
  <time>2026-09-01T19:53:03Z</time>
  <course>270.0</course>
  <speed>0.0</speed>
  <fix>3d</fix>
</trkpt>
<trkpt lat="-27.2744392" lon="151.2900641">
  <ele>343.26</ele>
  <time>2026-09-01T19:53:03Z</time>
  <course>11.44</course>
  <speed>0.022360679774997897</speed>
  <fix>3d</fix>
</trkpt>
<trkpt lat="-27.274439" lon="151.290064">
  <ele>343.1</ele>
  <time>2026-09-01T19:53:03Z</time>
  <course>270.0</course>
  <speed>0.0</speed>
  <fix>3d</fix>
</trkpt>
<trkpt lat="-27.2744392" lon="151.2900641">
  <ele>343.26</ele>
  <time>2026-09-01T19:53:03Z</time>
  <course>11.44</course>
  <speed>0.022360679774997897</speed>
  <fix>3d</fix>
</trkpt>
<trkpt lat="-27.274439" lon="151.290064">
  <ele>343.1</ele>
  <time>2026-09-01T19:53:03Z</time>
  <course>270.0</course>
  <speed>0.0</speed>
  <fix>3d</fix>
</trkpt>
<trkpt lat="-27.2744392" lon="151.2900641">
  <ele>343.26</ele>
  <time>2026-09-01T19:53:03Z</time>
  <course>11.44</course>
  <speed>0.022360679774997897</speed>
  <fix>3d</fix>
</trkpt>
<trkpt lat="-27.274439" lon="151.290064">
  <ele>343.1</ele>
  <time>2026-09-01T19:53:03Z</time>
  <course>270.0</course>
  <speed>0.0</speed>
  <fix>3d</fix>
</trkpt>
<trkpt lat="-27.2744392" lon="151.2900641">
  <ele>343.26</ele>
  <time>2026-09-01T19:53:03Z</time>
  <course>11.44</course>
  <speed>0.022360679774997897</speed>
  <fix>3d</fix>
</trkpt>
<trkpt lat="-27.274439" lon="151.290064">
  <ele>343.1</ele>
  <time>2026-09-01T19:53:03Z</time>
  <course>270.0</course>
  <speed>0.0</speed>
  <fix>3d</fix>
</trkpt>
<trkpt lat="-27.2744392" lon="151.2900641">
  <ele>343.26</ele>
  <time>2026-09-01T19:53:03Z</time>
  <course>11.44</course>
  <speed>0.022360679774997897</speed>
  <fix>3d</fix>
</trkpt>
<trkpt lat="-27.274439" lon="151.290064">
  <ele>343.1</ele>
  <time>2026-09-01T19:53:03Z</time>
  <course>270.0</course>
  <speed>0.0</speed>
  <fix>3d</fix>
</trkpt>
<trkpt lat="-27.2744392" lon="151.2900641">
  <ele>343.1</ele>
  <time>2026-09-01T19:53:03Z</time>
  <course>11.44</course>
  <speed>0.022360679774997897</speed>
  <fix>3d</fix>
</trkpt>
<trkpt lat="-27.274439" lon="151.290064">
  <ele>343.1</ele>
  <time>2026-09-01T19:53:03Z</time>
  <course>270.0</course>
  <speed>0.0</speed>
  <fix>3d</fix>
</trkpt>
<trkpt lat="-27.2744392" lon="151.2900641">
  <ele>343.1</ele>
  <time>2026-09-01T19:53:03Z</time>
  <course>11.44</course>
  <speed>0.022360679774997897</speed>
  <fix>3d</fix>
</trkpt>
<trkpt lat="-27.274439" lon="151.290064">
  <ele>343.1</ele>
  <time>2026-09-01T19:53:03Z</time>
  <course>270.0</course>
  <speed>0.0</speed>
  <fix>3d</fix>
</trkpt>
<trkpt lat="-27.2744392" lon="151.2900641">
  <ele>343.1</ele>
  <time>2026-09-01T19:53:03Z</time>
  <course>11.44</course>
  <speed>0.022360679774997897</speed>
  <fix>3d</fix>
</trkpt>
<trkpt lat="-27.274439" lon="151.290064">
  <ele>343.1</ele>
  <time>2026-09-01T19:53:03Z</time>
  <course>270.0</course>
  <speed>0.0</speed>
  <fix>3d</fix>
</trkpt>
<trkpt lat="-27.2744392" lon="151.2900641">
  <ele>343.1</ele>
  <time>2026-09-01T19:53:03Z</time>
  <course>11.44</course>
  <speed>0.022360679774997897</speed>
  <fix>3d</fix>
</trkpt>
<trkpt lat="-27.274439" lon="151.290064">
  <ele>343.1</ele>
  <time>2026-09-01T19:53:03Z</time>
  <course>270.0</course>
  <speed>0.0</speed>
  <fix>3d</fix>
</trkpt>
<trkpt lat="-27.2744392" lon="151.2900641">
  <ele>343.1</ele>
  <time>2026-09-01T19:53:03Z</time>
  <course>11.44</course>
  <speed>0.022360679774997897</speed>
  <fix>3d</fix>
</trkpt>
<trkpt lat="-27.274439" lon="151.290064">
  <ele>343.1</ele>
  <time>2026-09-01T19:53:03Z</time>
  <course>270.0</course>
  <speed>0.0</speed>
  <fix>3d</fix>
</trkpt>
<trkpt lat="-27.2744392" lon="151.2900641">
  <ele>343.11</ele>
  <time>2026-09-01T19:53:03Z</time>
  <course>11.45</course>
  <speed>0.022360679774997897</speed>
  <fix>3d</fix>
</trkpt>
<trkpt lat="-27.274439" lon="151.290064">
  <ele>343.1</ele>
  <time>2026-09-01T19:53:03Z</time>
  <course>270.0</course>
  <speed>0.0</speed>
  <fix>3d</fix>
</trkpt>
<trkpt lat="-27.2744392" lon="151.2900641">
  <ele>343.11</ele>
  <time>2026-09-01T19:53:03Z</time>
  <course>11.45</course>
  <speed>0.022360679774997897</speed>
  <fix>3d</fix>
</trkpt>
<trkpt lat="-27.274439" lon="151.290064">
  <ele>343.1</ele>
  <time>2026-09-01T19:53:03Z</time>
  <course>270.0</course>
  <speed>0.0</speed>
  <fix>3d</fix>
</trkpt>
<trkpt lat="-27.2744392" lon="151.2900641">
  <ele>343.11</ele>
  <time>2026-09-01T19:53:03Z</time>
  <course>11.45</course>
  <speed>0.022360679774997897</speed>
  <fix>3d</fix>
</trkpt>
<trkpt lat="-27.274439" lon="151.290064">
  <ele>343.1</ele>
  <time>2026-09-01T19:53:03Z</time>
  <course>270.0</course>
  <speed>0.0</speed>
  <fix>3d</fix>
</trkpt>
<trkpt lat="-27.2744392" lon="151.2900641">
  <ele>343.12</ele>
  <time>2026-09-01T19:53:03Z</time>
  <course>11.45</course>
  <speed>0.022360679774997897</speed>
  <fix>3d</fix>
</trkpt>
<trkpt lat="-27.274439" lon="151.290064">
  <ele>343.1</ele>
  <time>2026-09-01T19:53:03Z</time>
  <course>270.0</course>
  <speed>0.0</speed>
  <fix>3d</fix>
</trkpt>
<trkpt lat="-27.2744392" lon="151.2900641">
  <ele>343.12</ele>
  <time>2026-09-01T19:53:03Z</time>
  <course>11.45</course>
  <speed>0.022360679774997897</speed>
  <fix>3d</fix>
</trkpt>
<trkpt lat="-27.274439" lon="151.290064">
  <ele>343.1</ele>
  <time>2026-09-01T19:53:03Z</time>
  <course>270.0</course>
  <speed>0.0</speed>
  <fix>3d</fix>
</trkpt>
<trkpt lat="-27.2744392" lon="151.2900641">
  <ele>343.12</ele>
  <time>2026-09-01T19:53:03Z</time>
  <course>11.45</course>
  <speed>0.022360679774997897</speed>
  <fix>3d</fix>
</trkpt>
<trkpt lat="-27.274439" lon="151.290064">
  <ele>343.1</ele>
  <time>2026-09-01T19:53:03Z</time>
  <course>270.0</course>
  <speed>0.0</speed>
  <fix>3d</fix>
</trkpt>
<trkpt lat="-27.2744392" lon="151.2900641">
  <ele>343.13</ele>
  <time>2026-09-01T19:53:03Z</time>
  <course>11.45</course>
  <speed>0.022360679774997897</speed>
  <fix>3d</fix>
</trkpt>
<trkpt lat="-27.274439" lon="151.290064">
  <ele>343.1</ele>
  <time>2026-09-01T19:53:03Z</time>
  <course>270.0</course>
  <speed>0.0</speed>
  <fix>3d</fix>
</trkpt>
<trkpt lat="-27.2744392" lon="151.2900641">
  <ele>343.13</ele>
  <time>2026-09-01T19:53:03Z</time>
  <course>11.45</course>
  <speed>0.022360679774997897</speed>
  <fix>3d</fix>
</trkpt>
<trkpt lat="-27.274439" lon="151.290064">
  <ele>343.1</ele>
  <time>2026-09-01T19:53:03Z</time>
  <course>270.0</course>
  <speed>0.0</speed>
  <fix>3d</fix>
</trkpt>
<trkpt lat="-27.2744392" lon="151.2900641">
  <ele>343.13</ele>
  <time>2026-09-01T19:53:03Z</time>
  <course>11.45</course>
  <speed>0.022360679774997897</speed>
  <fix>3d</fix>
</trkpt>
<trkpt lat="-27.274439" lon="151.290064">
  <ele>343.1</ele>
  <time>2026-09-01T19:53:03Z</time>
  <course>270.0</course>
  <speed>0.0</speed>
  <fix>3d</fix>
</trkpt>
<trkpt lat="-27.2744392" lon="151.2900641">
  <ele>343.14</ele>
  <time>2026-09-01T19:53:03Z</time>
  <course>11.45</course>
  <speed>0.022360679774997897</speed>
  <fix>3d</fix>
</trkpt>
<trkpt lat="-27.274439" lon="151.290064">
  <ele>343.1</ele>
  <time>2026-09-01T19:53:03Z</time>
  <course>270.0</course>
  <speed>0.0</speed>
  <fix>3d</fix>
</trkpt>
<trkpt lat="-27.2744392" lon="151.2900641">
  <ele>343.14</ele>
  <time>2026-09-01T19:53:03Z</time>
  <course>11.45</course>
  <speed>0.022360679774997897</speed>
  <fix>3d</fix>
</trkpt>
<trkpt lat="-27.274439" lon="151.290064">
  <ele>343.1</ele>
  <time>2026-09-01T19:53:03Z</time>
  <course>270.0</course>
  <speed>0.0</speed>
  <fix>3d</fix>
</trkpt>
<trkpt lat="-27.2744392" lon="151.2900641">
  <ele>343.14</ele>
  <time>2026-09-01T19:53:03Z</time>
  <course>11.46</course>
  <speed>0.022360679774997897</speed>
  <fix>3d</fix>
</trkpt>
<trkpt lat="-27.274439" lon="151.290064">
  <ele>343.1</ele>
  <time>2026-09-01T19:53:03Z</time>
  <course>270.0</course>
  <speed>0.0</speed>
  <fix>3d</fix>
</trkpt>
<trkpt lat="-27.2744392" lon="151.2900641">
  <ele>343.15</ele>
  <time>2026-09-01T19:53:03Z</time>
  <course>11.46</course>
  <speed>0.022360679774997897</speed>
  <fix>3d</fix>
</trkpt>
<trkpt lat="-27.274439" lon="151.290064">
  <ele>343.1</ele>
  <time>2026-09-01T19:53:03Z</time>
  <course>270.0</course>
  <speed>0.0</speed>
  <fix>3d</fix>
</trkpt>
<trkpt lat="-27.2744392" lon="151.2900641">
  <ele>343.15</ele>
  <time>2026-09-01T19:53:03Z</time>
  <course>11.46</course>
  <speed>0.022360679774997897</speed>
  <fix>3d</fix>
</trkpt>
<trkpt lat="-27.274439" lon="151.290064">
  <ele>343.1</ele>
  <time>2026-09-01T19:53:03Z</time>
  <course>270.0</course>
  <speed>0.0</speed>
  <fix>3d</fix>
</trkpt>
<trkpt lat="-27.2744392" lon="151.2900641">
  <ele>343.15</ele>
  <time>2026-09-01T19:53:03Z</time>
  <course>11.46</course>
  <speed>0.022360679774997897</speed>
  <fix>3d</fix>
</trkpt>
<trkpt lat="-27.274439" lon="151.290064">
  <ele>343.1</ele>
  <time>2026-09-01T19:53:03Z</time>
  <course>270.0</course>
  <speed>0.0</speed>
  <fix>3d</fix>
</trkpt>
<trkpt lat="-27.2744392" lon="151.2900641">
  <ele>343.15</ele>
  <time>2026-09-01T19:53:03Z</time>
  <course>11.46</course>
  <speed>0.022360679774997897</speed>
  <fix>3d</fix>
</trkpt>
<trkpt lat="-27.274439" lon="151.290064">
  <ele>343.1</ele>
  <time>2026-09-01T19:53:03Z</time>
  <course>270.0</course>
  <speed>0.0</speed>
  <fix>3d</fix>
</trkpt>
<trkpt lat="-27.2744392" lon="151.2900641">
  <ele>343.15</ele>
  <time>2026-09-01T19:53:03Z</time>
  <course>11.46</course>
  <speed>0.022360679774997897</speed>
  <fix>3d</fix>
</trkpt>
<trkpt lat="-27.274439" lon="151.290064">
  <ele>343.1</ele>
  <time>2026-09-01T19:53:03Z</time>
  <course>270.0</course>
  <speed>0.0</speed>
  <fix>3d</fix>
</trkpt>
<trkpt lat="-27.2744392" lon="151.2900641">
  <ele>343.15</ele>
  <time>2026-09-01T19:53:03Z</time>
  <course>11.46</course>
  <speed>0.022360679774997897</speed>
  <fix>3d</fix>
</trkpt>
<trkpt lat="-27.274439" lon="151.290064">
  <ele>343.1</ele>
  <time>2026-09-01T19:53:03Z</time>
  <course>270.0</course>
  <speed>0.0</speed>
  <fix>3d</fix>
</trkpt>
<trkpt lat="-27.2744392" lon="151.2900641">
  <ele>343.16</ele>
  <time>2026-09-01T19:53:03Z</time>
  <course>11.46</course>
  <speed>0.022360679774997897</speed>
  <fix>3d</fix>
</trkpt>
<trkpt lat="-27.274439" lon="151.290064">
  <ele>343.1</ele>
  <time>2026-09-01T19:53:03Z</time>
  <course>270.0</course>
  <speed>0.0</speed>
  <fix>3d</fix>
</trkpt>
<trkpt lat="-27.2744392" lon="151.2900641">
  <ele>343.16</ele>
  <time>2026-09-01T19:53:04Z</time>
  <course>11.46</course>
  <speed>0.022360679774997897</speed>
  <fix>3d</fix>
</trkpt>
<trkpt lat="-27.274439" lon="151.290064">
  <ele>343.1</ele>
  <time>2026-09-01T19:53:04Z</time>
  <course>270.0</course>
  <speed>0.0</speed>
  <fix>3d</fix>
</trkpt>
<trkpt lat="-27.2744392" lon="151.2900641">
  <ele>343.16</ele>
  <time>2026-09-01T19:53:04Z</time>
  <course>11.46</course>
  <speed>0.022360679774997897</speed>
  <fix>3d</fix>
</trkpt>
<trkpt lat="-27.274439" lon="151.290064">
  <ele>343.1</ele>
  <time>2026-09-01T19:53:04Z</time>
  <course>270.0</course>
  <speed>0.0</speed>
  <fix>3d</fix>
</trkpt>
<trkpt lat="-27.2744392" lon="151.2900641">
  <ele>343.16</ele>
  <time>2026-09-01T19:53:04Z</time>
  <course>11.46</course>
  <speed>0.022360679774997897</speed>
  <fix>3d</fix>
</trkpt>
<trkpt lat="-27.274439" lon="151.290064">
  <ele>343.1</ele>
  <time>2026-09-01T19:53:04Z</time>
  <course>270.0</course>
  <speed>0.0</speed>
  <fix>3d</fix>
</trkpt>
<trkpt lat="-27.2744392" lon="151.2900641">
  <ele>343.16</ele>
  <time>2026-09-01T19:53:04Z</time>
  <course>11.46</course>
  <speed>0.022360679774997897</speed>
  <fix>3d</fix>
</trkpt>
<trkpt lat="-27.274439" lon="151.290064">
  <ele>343.1</ele>
  <time>2026-09-01T19:53:04Z</time>
  <course>270.0</course>
  <speed>0.0</speed>
  <fix>3d</fix>
</trkpt>
<trkpt lat="-27.2744392" lon="151.2900641">
  <ele>343.16</ele>
  <time>2026-09-01T19:53:04Z</time>
  <course>11.47</course>
  <speed>0.022360679774997897</speed>
  <fix>3d</fix>
</trkpt>
<trkpt lat="-27.274439" lon="151.290064">
  <ele>343.1</ele>
  <time>2026-09-01T19:53:04Z</time>
  <course>270.0</course>
  <speed>0.0</speed>
  <fix>3d</fix>
</trkpt>
<trkpt lat="-27.2744392" lon="151.2900641">
  <ele>343.17</ele>
  <time>2026-09-01T19:53:04Z</time>
  <course>11.47</course>
  <speed>0.022360679774997897</speed>
  <fix>3d</fix>
</trkpt>
<trkpt lat="-27.274439" lon="151.290064">
  <ele>343.1</ele>
  <time>2026-09-01T19:53:04Z</time>
  <course>270.0</course>
  <speed>0.0</speed>
  <fix>3d</fix>
</trkpt>
<trkpt lat="-27.2744392" lon="151.2900641">
  <ele>343.17</ele>
  <time>2026-09-01T19:53:04Z</time>
  <course>11.47</course>
  <speed>0.022360679774997897</speed>
  <fix>3d</fix>
</trkpt>
<trkpt lat="-27.274439" lon="151.290064">
  <ele>343.1</ele>
  <time>2026-09-01T19:53:04Z</time>
  <course>270.0</course>
  <speed>0.0</speed>
  <fix>3d</fix>
</trkpt>
<trkpt lat="-27.2744392" lon="151.2900641">
  <ele>343.17</ele>
  <time>2026-09-01T19:53:04Z</time>
  <course>11.47</course>
  <speed>0.022360679774997897</speed>
  <fix>3d</fix>
</trkpt>
<trkpt lat="-27.274439" lon="151.290064">
  <ele>343.1</ele>
  <time>2026-09-01T19:53:04Z</time>
  <course>270.0</course>
  <speed>0.0</speed>
  <fix>3d</fix>
</trkpt>
<trkpt lat="-27.2744392" lon="151.2900641">
  <ele>343.17</ele>
  <time>2026-09-01T19:53:04Z</time>
  <course>11.47</course>
  <speed>0.022360679774997897</speed>
  <fix>3d</fix>
</trkpt>
<trkpt lat="-27.274439" lon="151.290064">
  <ele>343.1</ele>
  <time>2026-09-01T19:53:04Z</time>
  <course>270.0</course>
  <speed>0.0</speed>
  <fix>3d</fix>
</trkpt>
<trkpt lat="-27.2744392" lon="151.2900641">
  <ele>343.17</ele>
  <time>2026-09-01T19:53:04Z</time>
  <course>11.47</course>
  <speed>0.022360679774997897</speed>
  <fix>3d</fix>
</trkpt>
<trkpt lat="-27.274439" lon="151.290064">
  <ele>343.1</ele>
  <time>2026-09-01T19:53:04Z</time>
  <course>270.0</course>
  <speed>0.0</speed>
  <fix>3d</fix>
</trkpt>
<trkpt lat="-27.2744392" lon="151.2900641">
  <ele>343.18</ele>
  <time>2026-09-01T19:53:04Z</time>
  <course>11.47</course>
  <speed>0.022360679774997897</speed>
  <fix>3d</fix>
</trkpt>
<trkpt lat="-27.274439" lon="151.290064">
  <ele>343.1</ele>
  <time>2026-09-01T19:53:04Z</time>
  <course>270.0</course>
  <speed>0.0</speed>
  <fix>3d</fix>
</trkpt>
<trkpt lat="-27.2744392" lon="151.2900641">
  <ele>343.18</ele>
  <time>2026-09-01T19:53:04Z</time>
  <course>11.47</course>
  <speed>0.022360679774997897</speed>
  <fix>3d</fix>
</trkpt>
<trkpt lat="-27.274439" lon="151.290064">
  <ele>343.1</ele>
  <time>2026-09-01T19:53:04Z</time>
  <course>270.0</course>
  <speed>0.0</speed>
  <fix>3d</fix>
</trkpt>
<trkpt lat="-27.2744392" lon="151.2900641">
  <ele>343.19</ele>
  <time>2026-09-01T19:53:04Z</time>
  <course>11.47</course>
  <speed>0.022360679774997897</speed>
  <fix>3d</fix>
</trkpt>
<trkpt lat="-27.274439" lon="151.290064">
  <ele>343.1</ele>
  <time>2026-09-01T19:53:04Z</time>
  <course>270.0</course>
  <speed>0.0</speed>
  <fix>3d</fix>
</trkpt>
<trkpt lat="-27.2744392" lon="151.2900641">
  <ele>343.19</ele>
  <time>2026-09-01T19:53:04Z</time>
  <course>11.47</course>
  <speed>0.022360679774997897</speed>
  <fix>3d</fix>
</trkpt>
<trkpt lat="-27.274439" lon="151.290064">
  <ele>343.1</ele>
  <time>2026-09-01T19:53:04Z</time>
  <course>270.0</course>
  <speed>0.0</speed>
  <fix>3d</fix>
</trkpt>
<trkpt lat="-27.2744392" lon="151.2900641">
  <ele>343.19</ele>
  <time>2026-09-01T19:53:04Z</time>
  <course>11.47</course>
  <speed>0.022360679774997897</speed>
  <fix>3d</fix>
</trkpt>
<trkpt lat="-27.274439" lon="151.290064">
  <ele>343.1</ele>
  <time>2026-09-01T19:53:04Z</time>
  <course>270.0</course>
  <speed>0.0</speed>
  <fix>3d</fix>
</trkpt>
<trkpt lat="-27.2744392" lon="151.2900641">
  <ele>343.19</ele>
  <time>2026-09-01T19:53:04Z</time>
  <course>11.48</course>
  <speed>0.022360679774997897</speed>
  <fix>3d</fix>
</trkpt>
<trkpt lat="-27.274439" lon="151.290064">
  <ele>343.1</ele>
  <time>2026-09-01T19:53:04Z</time>
  <course>270.0</course>
  <speed>0.0</speed>
  <fix>3d</fix>
</trkpt>
<trkpt lat="-27.2744392" lon="151.2900641">
  <ele>343.2</ele>
  <time>2026-09-01T19:53:04Z</time>
  <course>11.48</course>
  <speed>0.022360679774997897</speed>
  <fix>3d</fix>
</trkpt>
<trkpt lat="-27.274439" lon="151.290064">
  <ele>343.1</ele>
  <time>2026-09-01T19:53:04Z</time>
  <course>270.0</course>
  <speed>0.0</speed>
  <fix>3d</fix>
</trkpt>
<trkpt lat="-27.2744392" lon="151.2900641">
  <ele>343.2</ele>
  <time>2026-09-01T19:53:04Z</time>
  <course>11.48</course>
  <speed>0.022360679774997897</speed>
  <fix>3d</fix>
</trkpt>
<trkpt lat="-27.274439" lon="151.290064">
  <ele>343.1</ele>
  <time>2026-09-01T19:53:04Z</time>
  <course>270.0</course>
  <speed>0.0</speed>
  <fix>3d</fix>
</trkpt>
<trkpt lat="-27.2744392" lon="151.2900641">
  <ele>343.2</ele>
  <time>2026-09-01T19:53:04Z</time>
  <course>11.48</course>
  <speed>0.022360679774997897</speed>
  <fix>3d</fix>
</trkpt>
<trkpt lat="-27.274439" lon="151.290064">
  <ele>343.1</ele>
  <time>2026-09-01T19:53:04Z</time>
  <course>270.0</course>
  <speed>0.0</speed>
  <fix>3d</fix>
</trkpt>
<trkpt lat="-27.2744392" lon="151.2900641">
  <ele>343.2</ele>
  <time>2026-09-01T19:53:04Z</time>
  <course>11.48</course>
  <speed>0.022360679774997897</speed>
  <fix>3d</fix>
</trkpt>
<trkpt lat="-27.274439" lon="151.290064">
  <ele>343.1</ele>
  <time>2026-09-01T19:53:04Z</time>
  <course>270.0</course>
  <speed>0.0</speed>
  <fix>3d</fix>
</trkpt>
<trkpt lat="-27.2744392" lon="151.2900641">
  <ele>343.21</ele>
  <time>2026-09-01T19:53:04Z</time>
  <course>11.48</course>
  <speed>0.022360679774997897</speed>
  <fix>3d</fix>
</trkpt>
<trkpt lat="-27.274439" lon="151.290064">
  <ele>343.1</ele>
  <time>2026-09-01T19:53:04Z</time>
  <course>270.0</course>
  <speed>0.0</speed>
  <fix>3d</fix>
</trkpt>
<trkpt lat="-27.2744392" lon="151.2900641">
  <ele>343.21</ele>
  <time>2026-09-01T19:53:04Z</time>
  <course>11.48</course>
  <speed>0.022360679774997897</speed>
  <fix>3d</fix>
</trkpt>
<trkpt lat="-27.274439" lon="151.290064">
  <ele>343.1</ele>
  <time>2026-09-01T19:53:04Z</time>
  <course>270.0</course>
  <speed>0.0</speed>
  <fix>3d</fix>
</trkpt>
<trkpt lat="-27.2744392" lon="151.2900641">
  <ele>343.21</ele>
  <time>2026-09-01T19:53:04Z</time>
  <course>11.48</course>
  <speed>0.022360679774997897</speed>
  <fix>3d</fix>
</trkpt>
<trkpt lat="-27.274439" lon="151.290064">
  <ele>343.1</ele>
  <time>2026-09-01T19:53:04Z</time>
  <course>270.0</course>
  <speed>0.0</speed>
  <fix>3d</fix>
</trkpt>
<trkpt lat="-27.2744392" lon="151.2900641">
  <ele>343.21</ele>
  <time>2026-09-01T19:53:04Z</time>
  <course>11.48</course>
  <speed>0.022360679774997897</speed>
  <fix>3d</fix>
</trkpt>
<trkpt lat="-27.274439" lon="151.290064">
  <ele>343.1</ele>
  <time>2026-09-01T19:53:04Z</time>
  <course>270.0</course>
  <speed>0.0</speed>
  <fix>3d</fix>
</trkpt>
<trkpt lat="-27.2744392" lon="151.2900641">
  <ele>343.21</ele>
  <time>2026-09-01T19:53:04Z</time>
  <course>11.48</course>
  <speed>0.022360679774997897</speed>
  <fix>3d</fix>
</trkpt>
<trkpt lat="-27.274439" lon="151.290064">
  <ele>343.1</ele>
  <time>2026-09-01T19:53:04Z</time>
  <course>270.0</course>
  <speed>0.0</speed>
  <fix>3d</fix>
</trkpt>
<trkpt lat="-27.2744392" lon="151.2900641">
  <ele>343.21</ele>
  <time>2026-09-01T19:53:04Z</time>
  <course>11.48</course>
  <speed>0.022360679774997897</speed>
  <fix>3d</fix>
</trkpt>
<trkpt lat="-27.274439" lon="151.290064">
  <ele>343.1</ele>
  <time>2026-09-01T19:53:04Z</time>
  <course>270.0</course>
  <speed>0.0</speed>
  <fix>3d</fix>
</trkpt>
<trkpt lat="-27.2744392" lon="151.2900641">
  <ele>343.22</ele>
  <time>2026-09-01T19:53:04Z</time>
  <course>11.48</course>
  <speed>0.022360679774997897</speed>
  <fix>3d</fix>
</trkpt>
<trkpt lat="-27.274439" lon="151.290064">
  <ele>343.1</ele>
  <time>2026-09-01T19:53:04Z</time>
  <course>270.0</course>
  <speed>0.0</speed>
  <fix>3d</fix>
</trkpt>
<trkpt lat="-27.2744392" lon="151.2900641">
  <ele>343.22</ele>
  <time>2026-09-01T19:53:04Z</time>
  <course>11.49</course>
  <speed>0.022360679774997897</speed>
  <fix>3d</fix>
</trkpt>
<trkpt lat="-27.274439" lon="151.290064">
  <ele>343.1</ele>
  <time>2026-09-01T19:53:04Z</time>
  <course>270.0</course>
  <speed>0.0</speed>
  <fix>3d</fix>
</trkpt>
<trkpt lat="-27.2744392" lon="151.2900641">
  <ele>343.22</ele>
  <time>2026-09-01T19:53:04Z</time>
  <course>11.49</course>
  <speed>0.022360679774997897</speed>
  <fix>3d</fix>
</trkpt>
<trkpt lat="-27.274439" lon="151.290064">
  <ele>343.1</ele>
  <time>2026-09-01T19:53:04Z</time>
  <course>270.0</course>
  <speed>0.0</speed>
  <fix>3d</fix>
</trkpt>
<trkpt lat="-27.2744392" lon="151.2900641">
  <ele>343.23</ele>
  <time>2026-09-01T19:53:04Z</time>
  <course>11.49</course>
  <speed>0.022360679774997897</speed>
  <fix>3d</fix>
</trkpt>
<trkpt lat="-27.274439" lon="151.290064">
  <ele>343.1</ele>
  <time>2026-09-01T19:53:04Z</time>
  <course>270.0</course>
  <speed>0.0</speed>
  <fix>3d</fix>
</trkpt>
<trkpt lat="-27.2744392" lon="151.2900641">
  <ele>343.23</ele>
  <time>2026-09-01T19:53:04Z</time>
  <course>11.49</course>
  <speed>0.022360679774997897</speed>
  <fix>3d</fix>
</trkpt>
<trkpt lat="-27.274439" lon="151.290064">
  <ele>343.1</ele>
  <time>2026-09-01T19:53:04Z</time>
  <course>270.0</course>
  <speed>0.0</speed>
  <fix>3d</fix>
</trkpt>
<trkpt lat="-27.2744392" lon="151.2900641">
  <ele>343.23</ele>
  <time>2026-09-01T19:53:04Z</time>
  <course>11.49</course>
  <speed>0.022360679774997897</speed>
  <fix>3d</fix>
</trkpt>
<trkpt lat="-27.274439" lon="151.290064">
  <ele>343.1</ele>
  <time>2026-09-01T19:53:04Z</time>
  <course>270.0</course>
  <speed>0.0</speed>
  <fix>3d</fix>
</trkpt>
<trkpt lat="-27.2744392" lon="151.2900641">
  <ele>343.23</ele>
  <time>2026-09-01T19:53:04Z</time>
  <course>11.49</course>
  <speed>0.022360679774997897</speed>
  <fix>3d</fix>
</trkpt>
<trkpt lat="-27.274439" lon="151.290064">
  <ele>343.1</ele>
  <time>2026-09-01T19:53:04Z</time>
  <course>270.0</course>
  <speed>0.0</speed>
  <fix>3d</fix>
</trkpt>
<trkpt lat="-27.2744392" lon="151.2900641">
  <ele>343.24</ele>
  <time>2026-09-01T19:53:04Z</time>
  <course>11.49</course>
  <speed>0.022360679774997897</speed>
  <fix>3d</fix>
</trkpt>
<trkpt lat="-27.274439" lon="151.290064">
  <ele>343.1</ele>
  <time>2026-09-01T19:53:04Z</time>
  <course>270.0</course>
  <speed>0.0</speed>
  <fix>3d</fix>
</trkpt>
<trkpt lat="-27.2744392" lon="151.2900641">
  <ele>343.24</ele>
  <time>2026-09-01T19:53:04Z</time>
  <course>11.49</course>
  <speed>0.022360679774997897</speed>
  <fix>3d</fix>
</trkpt>
<trkpt lat="-27.274439" lon="151.290064">
  <ele>343.1</ele>
  <time>2026-09-01T19:53:04Z</time>
  <course>270.0</course>
  <speed>0.0</speed>
  <fix>3d</fix>
</trkpt>
<trkpt lat="-27.2744392" lon="151.2900641">
  <ele>343.24</ele>
  <time>2026-09-01T19:53:04Z</time>
  <course>11.49</course>
  <speed>0.022360679774997897</speed>
  <fix>3d</fix>
</trkpt>
<trkpt lat="-27.274439" lon="151.290064">
  <ele>343.1</ele>
  <time>2026-09-01T19:53:04Z</time>
  <course>270.0</course>
  <speed>0.0</speed>
  <fix>3d</fix>
</trkpt>
<trkpt lat="-27.2744392" lon="151.2900641">
  <ele>343.1</ele>
  <time>2026-09-01T19:53:04Z</time>
  <course>11.49</course>
  <speed>0.022360679774997897</speed>
  <fix>3d</fix>
</trkpt>
<trkpt lat="-27.274439" lon="151.290064">
  <ele>343.1</ele>
  <time>2026-09-01T19:53:04Z</time>
  <course>270.0</course>
  <speed>0.0</speed>
  <fix>3d</fix>
</trkpt>
<trkpt lat="-27.2744392" lon="151.2900641">
  <ele>343.1</ele>
  <time>2026-09-01T19:53:04Z</time>
  <course>11.49</course>
  <speed>0.022360679774997897</speed>
  <fix>3d</fix>
</trkpt>
<trkpt lat="-27.274439" lon="151.290064">
  <ele>343.1</ele>
  <time>2026-09-01T19:53:04Z</time>
  <course>270.0</course>
  <speed>0.0</speed>
  <fix>3d</fix>
</trkpt>
<trkpt lat="-27.2744392" lon="151.2900641">
  <ele>343.1</ele>
  <time>2026-09-01T19:53:04Z</time>
  <course>11.49</course>
  <speed>0.022360679774997897</speed>
  <fix>3d</fix>
</trkpt>
<trkpt lat="-27.274439" lon="151.290064">
  <ele>343.1</ele>
  <time>2026-09-01T19:53:04Z</time>
  <course>270.0</course>
  <speed>0.0</speed>
  <fix>3d</fix>
</trkpt>
<trkpt lat="-27.2744392" lon="151.2900641">
  <ele>343.11</ele>
  <time>2026-09-01T19:53:04Z</time>
  <course>11.5</course>
  <speed>0.022360679774997897</speed>
  <fix>3d</fix>
</trkpt>
<trkpt lat="-27.274439" lon="151.290064">
  <ele>343.1</ele>
  <time>2026-09-01T19:53:04Z</time>
  <course>270.0</course>
  <speed>0.0</speed>
  <fix>3d</fix>
</trkpt>
<trkpt lat="-27.2744392" lon="151.2900641">
  <ele>343.11</ele>
  <time>2026-09-01T19:53:04Z</time>
  <course>11.5</course>
  <speed>0.022360679774997897</speed>
  <fix>3d</fix>
</trkpt>
<trkpt lat="-27.274439" lon="151.290064">
  <ele>343.1</ele>
  <time>2026-09-01T19:53:04Z</time>
  <course>270.0</course>
  <speed>0.0</speed>
  <fix>3d</fix>
</trkpt>
<trkpt lat="-27.2744392" lon="151.2900641">
  <ele>343.12</ele>
  <time>2026-09-01T19:53:04Z</time>
  <course>11.5</course>
  <speed>0.022360679774997897</speed>
  <fix>3d</fix>
</trkpt>
<trkpt lat="-27.274439" lon="151.290064">
  <ele>343.1</ele>
  <time>2026-09-01T19:53:04Z</time>
  <course>270.0</course>
  <speed>0.0</speed>
  <fix>3d</fix>
</trkpt>
<trkpt lat="-27.2744392" lon="151.2900641">
  <ele>343.12</ele>
  <time>2026-09-01T19:53:04Z</time>
  <course>11.5</course>
  <speed>0.022360679774997897</speed>
  <fix>3d</fix>
</trkpt>
<trkpt lat="-27.274439" lon="151.290064">
  <ele>343.1</ele>
  <time>2026-09-01T19:53:04Z</time>
  <course>270.0</course>
  <speed>0.0</speed>
  <fix>3d</fix>
</trkpt>
<trkpt lat="-27.2744392" lon="151.2900641">
  <ele>343.13</ele>
  <time>2026-09-01T19:53:04Z</time>
  <course>11.5</course>
  <speed>0.022360679774997897</speed>
  <fix>3d</fix>
</trkpt>
<trkpt lat="-27.274439" lon="151.290064">
  <ele>343.1</ele>
  <time>2026-09-01T19:53:04Z</time>
  <course>270.0</course>
  <speed>0.0</speed>
  <fix>3d</fix>
</trkpt>
<trkpt lat="-27.2744392" lon="151.2900641">
  <ele>343.13</ele>
  <time>2026-09-01T19:53:04Z</time>
  <course>11.5</course>
  <speed>0.022360679774997897</speed>
  <fix>3d</fix>
</trkpt>
<trkpt lat="-27.274439" lon="151.290064">
  <ele>343.1</ele>
  <time>2026-09-01T19:53:04Z</time>
  <course>270.0</course>
  <speed>0.0</speed>
  <fix>3d</fix>
</trkpt>
<trkpt lat="-27.2744392" lon="151.2900641">
  <ele>343.14</ele>
  <time>2026-09-01T19:53:04Z</time>
  <course>11.5</course>
  <speed>0.022360679774997897</speed>
  <fix>3d</fix>
</trkpt>
<trkpt lat="-27.274439" lon="151.290064">
  <ele>343.1</ele>
  <time>2026-09-01T19:53:04Z</time>
  <course>270.0</course>
  <speed>0.0</speed>
  <fix>3d</fix>
</trkpt>
<trkpt lat="-27.2744392" lon="151.2900641">
  <ele>343.15</ele>
  <time>2026-09-01T19:53:04Z</time>
  <course>11.5</course>
  <speed>0.022360679774997897</speed>
  <fix>3d</fix>
</trkpt>
<trkpt lat="-27.274439" lon="151.290064">
  <ele>343.1</ele>
  <time>2026-09-01T19:53:04Z</time>
  <course>270.0</course>
  <speed>0.0</speed>
  <fix>3d</fix>
</trkpt>
<trkpt lat="-27.2744392" lon="151.2900641">
  <ele>343.15</ele>
  <time>2026-09-01T19:53:04Z</time>
  <course>11.5</course>
  <speed>0.022360679774997897</speed>
  <fix>3d</fix>
</trkpt>
<trkpt lat="-27.274439" lon="151.290064">
  <ele>343.1</ele>
  <time>2026-09-01T19:53:04Z</time>
  <course>270.0</course>
  <speed>0.0</speed>
  <fix>3d</fix>
</trkpt>
<trkpt lat="-27.2744392" lon="151.2900641">
  <ele>343.16</ele>
  <time>2026-09-01T19:53:04Z</time>
  <course>11.5</course>
  <speed>0.022360679774997897</speed>
  <fix>3d</fix>
</trkpt>
<trkpt lat="-27.274439" lon="151.290064">
  <ele>343.1</ele>
  <time>2026-09-01T19:53:04Z</time>
  <course>270.0</course>
  <speed>0.0</speed>
  <fix>3d</fix>
</trkpt>
<trkpt lat="-27.2744392" lon="151.2900641">
  <ele>343.17</ele>
  <time>2026-09-01T19:53:04Z</time>
  <course>11.5</course>
  <speed>0.022360679774997897</speed>
  <fix>3d</fix>
</trkpt>
<trkpt lat="-27.274439" lon="151.290064">
  <ele>343.1</ele>
  <time>2026-09-01T19:53:04Z</time>
  <course>270.0</course>
  <speed>0.0</speed>
  <fix>3d</fix>
</trkpt>
<trkpt lat="-27.2744392" lon="151.2900641">
  <ele>343.18</ele>
  <time>2026-09-01T19:53:04Z</time>
  <course>11.5</course>
  <speed>0.022360679774997897</speed>
  <fix>3d</fix>
</trkpt>
<trkpt lat="-27.274439" lon="151.290064">
  <ele>343.1</ele>
  <time>2026-09-01T19:53:04Z</time>
  <course>270.0</course>
  <speed>0.0</speed>
  <fix>3d</fix>
</trkpt>
<trkpt lat="-27.2744392" lon="151.2900641">
  <ele>343.18</ele>
  <time>2026-09-01T19:53:04Z</time>
  <course>11.5</course>
  <speed>0.022360679774997897</speed>
  <fix>3d</fix>
</trkpt>
<trkpt lat="-27.274439" lon="151.290064">
  <ele>343.1</ele>
  <time>2026-09-01T19:53:04Z</time>
  <course>270.0</course>
  <speed>0.0</speed>
  <fix>3d</fix>
</trkpt>
<trkpt lat="-27.2744392" lon="151.2900641">
  <ele>343.19</ele>
  <time>2026-09-01T19:53:04Z</time>
  <course>11.51</course>
  <speed>0.022360679774997897</speed>
  <fix>3d</fix>
</trkpt>
<trkpt lat="-27.274439" lon="151.290064">
  <ele>343.1</ele>
  <time>2026-09-01T19:53:04Z</time>
  <course>270.0</course>
  <speed>0.0</speed>
  <fix>3d</fix>
</trkpt>
<trkpt lat="-27.2744392" lon="151.2900641">
  <ele>343.2</ele>
  <time>2026-09-01T19:53:04Z</time>
  <course>11.51</course>
  <speed>0.022360679774997897</speed>
  <fix>3d</fix>
</trkpt>
<trkpt lat="-27.274439" lon="151.290064">
  <ele>343.1</ele>
  <time>2026-09-01T19:53:04Z</time>
  <course>270.0</course>
  <speed>0.0</speed>
  <fix>3d</fix>
</trkpt>
<trkpt lat="-27.2744392" lon="151.2900641">
  <ele>343.2</ele>
  <time>2026-09-01T19:53:04Z</time>
  <course>11.51</course>
  <speed>0.022360679774997897</speed>
  <fix>3d</fix>
</trkpt>
<trkpt lat="-27.274439" lon="151.290064">
  <ele>343.1</ele>
  <time>2026-09-01T19:53:04Z</time>
  <course>270.0</course>
  <speed>0.0</speed>
  <fix>3d</fix>
</trkpt>
<trkpt lat="-27.2744392" lon="151.2900641">
  <ele>343.21</ele>
  <time>2026-09-01T19:53:04Z</time>
  <course>11.51</course>
  <speed>0.022360679774997897</speed>
  <fix>3d</fix>
</trkpt>
<trkpt lat="-27.274439" lon="151.290064">
  <ele>343.1</ele>
  <time>2026-09-01T19:53:04Z</time>
  <course>270.0</course>
  <speed>0.0</speed>
  <fix>3d</fix>
</trkpt>
<trkpt lat="-27.2744392" lon="151.2900641">
  <ele>343.21</ele>
  <time>2026-09-01T19:53:04Z</time>
  <course>11.51</course>
  <speed>0.022360679774997897</speed>
  <fix>3d</fix>
</trkpt>
<trkpt lat="-27.274439" lon="151.290064">
  <ele>343.1</ele>
  <time>2026-09-01T19:53:04Z</time>
  <course>270.0</course>
  <speed>0.0</speed>
  <fix>3d</fix>
</trkpt>
<trkpt lat="-27.2744392" lon="151.2900641">
  <ele>343.22</ele>
  <time>2026-09-01T19:53:04Z</time>
  <course>11.51</course>
  <speed>0.022360679774997897</speed>
  <fix>3d</fix>
</trkpt>
<trkpt lat="-27.274439" lon="151.290064">
  <ele>343.1</ele>
  <time>2026-09-01T19:53:04Z</time>
  <course>270.0</course>
  <speed>0.0</speed>
  <fix>3d</fix>
</trkpt>
<trkpt lat="-27.2744392" lon="151.2900641">
  <ele>343.22</ele>
  <time>2026-09-01T19:53:04Z</time>
  <course>11.51</course>
  <speed>0.022360679774997897</speed>
  <fix>3d</fix>
</trkpt>
<trkpt lat="-27.274439" lon="151.290064">
  <ele>343.1</ele>
  <time>2026-09-01T19:53:04Z</time>
  <course>270.0</course>
  <speed>0.0</speed>
  <fix>3d</fix>
</trkpt>
<trkpt lat="-27.2744392" lon="151.2900641">
  <ele>343.23</ele>
  <time>2026-09-01T19:53:04Z</time>
  <course>11.51</course>
  <speed>0.022360679774997897</speed>
  <fix>3d</fix>
</trkpt>
<trkpt lat="-27.274439" lon="151.290064">
  <ele>343.1</ele>
  <time>2026-09-01T19:53:04Z</time>
  <course>270.0</course>
  <speed>0.0</speed>
  <fix>3d</fix>
</trkpt>
<trkpt lat="-27.2744392" lon="151.2900641">
  <ele>343.23</ele>
  <time>2026-09-01T19:53:04Z</time>
  <course>11.51</course>
  <speed>0.022360679774997897</speed>
  <fix>3d</fix>
</trkpt>
<trkpt lat="-27.274439" lon="151.290064">
  <ele>343.1</ele>
  <time>2026-09-01T19:53:04Z</time>
  <course>270.0</course>
  <speed>0.0</speed>
  <fix>3d</fix>
</trkpt>
<trkpt lat="-27.2744392" lon="151.2900641">
  <ele>343.24</ele>
  <time>2026-09-01T19:53:04Z</time>
  <course>11.51</course>
  <speed>0.022360679774997897</speed>
  <fix>3d</fix>
</trkpt>
<trkpt lat="-27.274439" lon="151.290064">
  <ele>343.1</ele>
  <time>2026-09-01T19:53:04Z</time>
  <course>270.0</course>
  <speed>0.0</speed>
  <fix>3d</fix>
</trkpt>
<trkpt lat="-27.2744392" lon="151.2900641">
  <ele>343.25</ele>
  <time>2026-09-01T19:53:04Z</time>
  <course>11.51</course>
  <speed>0.022360679774997897</speed>
  <fix>3d</fix>
</trkpt>
<trkpt lat="-27.274439" lon="151.290064">
  <ele>343.1</ele>
  <time>2026-09-01T19:53:04Z</time>
  <course>270.0</course>
  <speed>0.0</speed>
  <fix>3d</fix>
</trkpt>
<trkpt lat="-27.2744392" lon="151.2900641">
  <ele>343.25</ele>
  <time>2026-09-01T19:53:04Z</time>
  <course>11.52</course>
  <speed>0.022360679774997897</speed>
  <fix>3d</fix>
</trkpt>
<trkpt lat="-27.274439" lon="151.290064">
  <ele>343.1</ele>
  <time>2026-09-01T19:53:04Z</time>
  <course>270.0</course>
  <speed>0.0</speed>
  <fix>3d</fix>
</trkpt>
<trkpt lat="-27.2744392" lon="151.2900641">
  <ele>343.26</ele>
  <time>2026-09-01T19:53:04Z</time>
  <course>11.52</course>
  <speed>0.022360679774997897</speed>
  <fix>3d</fix>
</trkpt>
<trkpt lat="-27.274439" lon="151.290064">
  <ele>343.1</ele>
  <time>2026-09-01T19:53:04Z</time>
  <course>270.0</course>
  <speed>0.0</speed>
  <fix>3d</fix>
</trkpt>
<trkpt lat="-27.2744392" lon="151.2900641">
  <ele>343.26</ele>
  <time>2026-09-01T19:53:04Z</time>
  <course>11.52</course>
  <speed>0.022360679774997897</speed>
  <fix>3d</fix>
</trkpt>
<trkpt lat="-27.274439" lon="151.290064">
  <ele>343.1</ele>
  <time>2026-09-01T19:53:04Z</time>
  <course>270.0</course>
  <speed>0.0</speed>
  <fix>3d</fix>
</trkpt>
<trkpt lat="-27.2744392" lon="151.2900641">
  <ele>343.26</ele>
  <time>2026-09-01T19:53:04Z</time>
  <course>11.52</course>
  <speed>0.022360679774997897</speed>
  <fix>3d</fix>
</trkpt>
<trkpt lat="-27.274439" lon="151.290064">
  <ele>343.1</ele>
  <time>2026-09-01T19:53:04Z</time>
  <course>270.0</course>
  <speed>0.0</speed>
  <fix>3d</fix>
</trkpt>
<trkpt lat="-27.2744392" lon="151.2900641">
  <ele>343.26</ele>
  <time>2026-09-01T19:53:04Z</time>
  <course>11.52</course>
  <speed>0.022360679774997897</speed>
  <fix>3d</fix>
</trkpt>
<trkpt lat="-27.274439" lon="151.290064">
  <ele>343.1</ele>
  <time>2026-09-01T19:53:04Z</time>
  <course>270.0</course>
  <speed>0.0</speed>
  <fix>3d</fix>
</trkpt>
<trkpt lat="-27.2744392" lon="151.2900641">
  <ele>343.27</ele>
  <time>2026-09-01T19:53:04Z</time>
  <course>11.52</course>
  <speed>0.022360679774997897</speed>
  <fix>3d</fix>
</trkpt>
<trkpt lat="-27.274439" lon="151.290064">
  <ele>343.1</ele>
  <time>2026-09-01T19:53:04Z</time>
  <course>270.0</course>
  <speed>0.0</speed>
  <fix>3d</fix>
</trkpt>
<trkpt lat="-27.2744392" lon="151.2900641">
  <ele>343.27</ele>
  <time>2026-09-01T19:53:04Z</time>
  <course>11.52</course>
  <speed>0.022360679774997897</speed>
  <fix>3d</fix>
</trkpt>
<trkpt lat="-27.274439" lon="151.290064">
  <ele>343.1</ele>
  <time>2026-09-01T19:53:04Z</time>
  <course>270.0</course>
  <speed>0.0</speed>
  <fix>3d</fix>
</trkpt>
<trkpt lat="-27.2744392" lon="151.2900641">
  <ele>343.27</ele>
  <time>2026-09-01T19:53:04Z</time>
  <course>11.52</course>
  <speed>0.022360679774997897</speed>
  <fix>3d</fix>
</trkpt>
<trkpt lat="-27.274439" lon="151.290064">
  <ele>343.1</ele>
  <time>2026-09-01T19:53:04Z</time>
  <course>270.0</course>
  <speed>0.0</speed>
  <fix>3d</fix>
</trkpt>
<trkpt lat="-27.2744392" lon="151.2900641">
  <ele>343.27</ele>
  <time>2026-09-01T19:53:04Z</time>
  <course>11.52</course>
  <speed>0.022360679774997897</speed>
  <fix>3d</fix>
</trkpt>
<trkpt lat="-27.274439" lon="151.290064">
  <ele>343.1</ele>
  <time>2026-09-01T19:53:04Z</time>
  <course>270.0</course>
  <speed>0.0</speed>
  <fix>3d</fix>
</trkpt>
<trkpt lat="-27.2744392" lon="151.2900641">
  <ele>343.27</ele>
  <time>2026-09-01T19:53:04Z</time>
  <course>11.52</course>
  <speed>0.022360679774997897</speed>
  <fix>3d</fix>
</trkpt>
<trkpt lat="-27.274439" lon="151.290064">
  <ele>343.1</ele>
  <time>2026-09-01T19:53:04Z</time>
  <course>270.0</course>
  <speed>0.0</speed>
  <fix>3d</fix>
</trkpt>
<trkpt lat="-27.2744392" lon="151.2900641">
  <ele>343.27</ele>
  <time>2026-09-01T19:53:04Z</time>
  <course>11.52</course>
  <speed>0.022360679774997897</speed>
  <fix>3d</fix>
</trkpt>
<trkpt lat="-27.274439" lon="151.290064">
  <ele>343.1</ele>
  <time>2026-09-01T19:53:04Z</time>
  <course>270.0</course>
  <speed>0.0</speed>
  <fix>3d</fix>
</trkpt>
<trkpt lat="-27.2744392" lon="151.2900641">
  <ele>343.27</ele>
  <time>2026-09-01T19:53:04Z</time>
  <course>11.52</course>
  <speed>0.022360679774997897</speed>
  <fix>3d</fix>
</trkpt>
<trkpt lat="-27.274439" lon="151.290064">
  <ele>343.1</ele>
  <time>2026-09-01T19:53:04Z</time>
  <course>270.0</course>
  <speed>0.0</speed>
  <fix>3d</fix>
</trkpt>
<trkpt lat="-27.2744392" lon="151.2900641">
  <ele>343.27</ele>
  <time>2026-09-01T19:53:04Z</time>
  <course>11.53</course>
  <speed>0.022360679774997897</speed>
  <fix>3d</fix>
</trkpt>
<trkpt lat="-27.274439" lon="151.290064">
  <ele>343.1</ele>
  <time>2026-09-01T19:53:04Z</time>
  <course>270.0</course>
  <speed>0.0</speed>
  <fix>3d</fix>
</trkpt>
<trkpt lat="-27.2744392" lon="151.2900641">
  <ele>343.28</ele>
  <time>2026-09-01T19:53:04Z</time>
  <course>11.53</course>
  <speed>0.022360679774997897</speed>
  <fix>3d</fix>
</trkpt>
<trkpt lat="-27.274439" lon="151.290064">
  <ele>343.1</ele>
  <time>2026-09-01T19:53:04Z</time>
  <course>270.0</course>
  <speed>0.0</speed>
  <fix>3d</fix>
</trkpt>
<trkpt lat="-27.2744392" lon="151.2900641">
  <ele>343.28</ele>
  <time>2026-09-01T19:53:04Z</time>
  <course>11.53</course>
  <speed>0.022360679774997897</speed>
  <fix>3d</fix>
</trkpt>
<trkpt lat="-27.274439" lon="151.290064">
  <ele>343.1</ele>
  <time>2026-09-01T19:53:04Z</time>
  <course>270.0</course>
  <speed>0.0</speed>
  <fix>3d</fix>
</trkpt>
<trkpt lat="-27.2744392" lon="151.2900641">
  <ele>343.28</ele>
  <time>2026-09-01T19:53:04Z</time>
  <course>11.53</course>
  <speed>0.022360679774997897</speed>
  <fix>3d</fix>
</trkpt>
<trkpt lat="-27.274439" lon="151.290064">
  <ele>343.1</ele>
  <time>2026-09-01T19:53:04Z</time>
  <course>270.0</course>
  <speed>0.0</speed>
  <fix>3d</fix>
</trkpt>
<trkpt lat="-27.2744392" lon="151.2900641">
  <ele>343.28</ele>
  <time>2026-09-01T19:53:04Z</time>
  <course>11.53</course>
  <speed>0.022360679774997897</speed>
  <fix>3d</fix>
</trkpt>
<trkpt lat="-27.274439" lon="151.290064">
  <ele>343.1</ele>
  <time>2026-09-01T19:53:04Z</time>
  <course>270.0</course>
  <speed>0.0</speed>
  <fix>3d</fix>
</trkpt>
<trkpt lat="-27.2744392" lon="151.2900641">
  <ele>343.29</ele>
  <time>2026-09-01T19:53:04Z</time>
  <course>11.53</course>
  <speed>0.022360679774997897</speed>
  <fix>3d</fix>
</trkpt>
<trkpt lat="-27.274439" lon="151.290064">
  <ele>343.1</ele>
  <time>2026-09-01T19:53:04Z</time>
  <course>270.0</course>
  <speed>0.0</speed>
  <fix>3d</fix>
</trkpt>
<trkpt lat="-27.2744392" lon="151.2900641">
  <ele>343.29</ele>
  <time>2026-09-01T19:53:04Z</time>
  <course>11.53</course>
  <speed>0.022360679774997897</speed>
  <fix>3d</fix>
</trkpt>
<trkpt lat="-27.274439" lon="151.290064">
  <ele>343.1</ele>
  <time>2026-09-01T19:53:04Z</time>
  <course>270.0</course>
  <speed>0.0</speed>
  <fix>3d</fix>
</trkpt>
<trkpt lat="-27.2744392" lon="151.2900641">
  <ele>343.29</ele>
  <time>2026-09-01T19:53:04Z</time>
  <course>11.53</course>
  <speed>0.022360679774997897</speed>
  <fix>3d</fix>
</trkpt>
<trkpt lat="-27.274439" lon="151.290064">
  <ele>343.1</ele>
  <time>2026-09-01T19:53:04Z</time>
  <course>270.0</course>
  <speed>0.0</speed>
  <fix>3d</fix>
</trkpt>
<trkpt lat="-27.2744392" lon="151.2900641">
  <ele>343.3</ele>
  <time>2026-09-01T19:53:04Z</time>
  <course>11.53</course>
  <speed>0.022360679774997897</speed>
  <fix>3d</fix>
</trkpt>
<trkpt lat="-27.274439" lon="151.290064">
  <ele>343.1</ele>
  <time>2026-09-01T19:53:04Z</time>
  <course>270.0</course>
  <speed>0.0</speed>
  <fix>3d</fix>
</trkpt>
<trkpt lat="-27.2744392" lon="151.2900641">
  <ele>343.3</ele>
  <time>2026-09-01T19:53:04Z</time>
  <course>11.53</course>
  <speed>0.022360679774997897</speed>
  <fix>3d</fix>
</trkpt>
<trkpt lat="-27.274439" lon="151.290064">
  <ele>343.1</ele>
  <time>2026-09-01T19:53:04Z</time>
  <course>270.0</course>
  <speed>0.0</speed>
  <fix>3d</fix>
</trkpt>
<trkpt lat="-27.2744392" lon="151.2900641">
  <ele>343.3</ele>
  <time>2026-09-01T19:53:04Z</time>
  <course>11.53</course>
  <speed>0.022360679774997897</speed>
  <fix>3d</fix>
</trkpt>
<trkpt lat="-27.274439" lon="151.290064">
  <ele>343.1</ele>
  <time>2026-09-01T19:53:04Z</time>
  <course>270.0</course>
  <speed>0.0</speed>
  <fix>3d</fix>
</trkpt>
<trkpt lat="-27.2744392" lon="151.2900641">
  <ele>343.3</ele>
  <time>2026-09-01T19:53:04Z</time>
  <course>11.53</course>
  <speed>0.022360679774997897</speed>
  <fix>3d</fix>
</trkpt>
<trkpt lat="-27.274439" lon="151.290064">
  <ele>343.1</ele>
  <time>2026-09-01T19:53:04Z</time>
  <course>270.0</course>
  <speed>0.0</speed>
  <fix>3d</fix>
</trkpt>
<trkpt lat="-27.2744392" lon="151.2900641">
  <ele>343.3</ele>
  <time>2026-09-01T19:53:04Z</time>
  <course>11.53</course>
  <speed>0.022360679774997897</speed>
  <fix>3d</fix>
</trkpt>
<trkpt lat="-27.274439" lon="151.290064">
  <ele>343.1</ele>
  <time>2026-09-01T19:53:04Z</time>
  <course>270.0</course>
  <speed>0.0</speed>
  <fix>3d</fix>
</trkpt>
<trkpt lat="-27.2744392" lon="151.2900641">
  <ele>343.31</ele>
  <time>2026-09-01T19:53:04Z</time>
  <course>11.54</course>
  <speed>0.022360679774997897</speed>
  <fix>3d</fix>
</trkpt>
<trkpt lat="-27.274439" lon="151.290064">
  <ele>343.1</ele>
  <time>2026-09-01T19:53:04Z</time>
  <course>270.0</course>
  <speed>0.0</speed>
  <fix>3d</fix>
</trkpt>
<trkpt lat="-27.2744392" lon="151.2900641">
  <ele>343.31</ele>
  <time>2026-09-01T19:53:04Z</time>
  <course>11.54</course>
  <speed>0.022360679774997897</speed>
  <fix>3d</fix>
</trkpt>
<trkpt lat="-27.274439" lon="151.290064">
  <ele>343.1</ele>
  <time>2026-09-01T19:53:04Z</time>
  <course>270.0</course>
  <speed>0.0</speed>
  <fix>3d</fix>
</trkpt>
<trkpt lat="-27.2744392" lon="151.2900641">
  <ele>343.31</ele>
  <time>2026-09-01T19:53:04Z</time>
  <course>11.54</course>
  <speed>0.022360679774997897</speed>
  <fix>3d</fix>
</trkpt>
<trkpt lat="-27.274439" lon="151.290064">
  <ele>343.1</ele>
  <time>2026-09-01T19:53:04Z</time>
  <course>270.0</course>
  <speed>0.0</speed>
  <fix>3d</fix>
</trkpt>
<trkpt lat="-27.2744392" lon="151.2900641">
  <ele>343.31</ele>
  <time>2026-09-01T19:53:04Z</time>
  <course>11.54</course>
  <speed>0.022360679774997897</speed>
  <fix>3d</fix>
</trkpt>
<trkpt lat="-27.274439" lon="151.290064">
  <ele>343.1</ele>
  <time>2026-09-01T19:53:04Z</time>
  <course>270.0</course>
  <speed>0.0</speed>
  <fix>3d</fix>
</trkpt>
<trkpt lat="-27.2744392" lon="151.2900641">
  <ele>343.31</ele>
  <time>2026-09-01T19:53:04Z</time>
  <course>11.54</course>
  <speed>0.022360679774997897</speed>
  <fix>3d</fix>
</trkpt>
<trkpt lat="-27.274439" lon="151.290064">
  <ele>343.1</ele>
  <time>2026-09-01T19:53:04Z</time>
  <course>270.0</course>
  <speed>0.0</speed>
  <fix>3d</fix>
</trkpt>
<trkpt lat="-27.2744392" lon="151.2900641">
  <ele>343.31</ele>
  <time>2026-09-01T19:53:04Z</time>
  <course>11.54</course>
  <speed>0.022360679774997897</speed>
  <fix>3d</fix>
</trkpt>
<trkpt lat="-27.274439" lon="151.290064">
  <ele>343.1</ele>
  <time>2026-09-01T19:53:04Z</time>
  <course>270.0</course>
  <speed>0.0</speed>
  <fix>3d</fix>
</trkpt>
<trkpt lat="-27.2744392" lon="151.2900641">
  <ele>343.31</ele>
  <time>2026-09-01T19:53:04Z</time>
  <course>11.54</course>
  <speed>0.022360679774997897</speed>
  <fix>3d</fix>
</trkpt>
<trkpt lat="-27.274439" lon="151.290064">
  <ele>343.1</ele>
  <time>2026-09-01T19:53:04Z</time>
  <course>270.0</course>
  <speed>0.0</speed>
  <fix>3d</fix>
</trkpt>
<trkpt lat="-27.2744392" lon="151.2900641">
  <ele>343.31</ele>
  <time>2026-09-01T19:53:04Z</time>
  <course>11.54</course>
  <speed>0.022360679774997897</speed>
  <fix>3d</fix>
</trkpt>
<trkpt lat="-27.274439" lon="151.290064">
  <ele>343.1</ele>
  <time>2026-09-01T19:53:04Z</time>
  <course>270.0</course>
  <speed>0.0</speed>
  <fix>3d</fix>
</trkpt>
<trkpt lat="-27.2744392" lon="151.2900641">
  <ele>343.1</ele>
  <time>2026-09-01T19:53:04Z</time>
  <course>11.54</course>
  <speed>0.022360679774997897</speed>
  <fix>3d</fix>
</trkpt>
<trkpt lat="-27.274439" lon="151.290064">
  <ele>343.1</ele>
  <time>2026-09-01T19:53:04Z</time>
  <course>270.0</course>
  <speed>0.0</speed>
  <fix>3d</fix>
</trkpt>
<trkpt lat="-27.2744392" lon="151.2900641">
  <ele>343.1</ele>
  <time>2026-09-01T19:53:04Z</time>
  <course>11.54</course>
  <speed>0.022360679774997897</speed>
  <fix>3d</fix>
</trkpt>
<trkpt lat="-27.274439" lon="151.290064">
  <ele>343.1</ele>
  <time>2026-09-01T19:53:04Z</time>
  <course>270.0</course>
  <speed>0.0</speed>
  <fix>3d</fix>
</trkpt>
<trkpt lat="-27.2744392" lon="151.2900641">
  <ele>343.1</ele>
  <time>2026-09-01T19:53:04Z</time>
  <course>11.54</course>
  <speed>0.022360679774997897</speed>
  <fix>3d</fix>
</trkpt>
<trkpt lat="-27.274439" lon="151.290064">
  <ele>343.1</ele>
  <time>2026-09-01T19:53:04Z</time>
  <course>270.0</course>
  <speed>0.0</speed>
  <fix>3d</fix>
</trkpt>
<trkpt lat="-27.2744392" lon="151.2900641">
  <ele>343.1</ele>
  <time>2026-09-01T19:53:04Z</time>
  <course>11.54</course>
  <speed>0.022360679774997897</speed>
  <fix>3d</fix>
</trkpt>
<trkpt lat="-27.274439" lon="151.290064">
  <ele>343.1</ele>
  <time>2026-09-01T19:53:04Z</time>
  <course>270.0</course>
  <speed>0.0</speed>
  <fix>3d</fix>
</trkpt>
<trkpt lat="-27.2744392" lon="151.2900641">
  <ele>343.11</ele>
  <time>2026-09-01T19:53:04Z</time>
  <course>11.54</course>
  <speed>0.022360679774997897</speed>
  <fix>3d</fix>
</trkpt>
<trkpt lat="-27.274439" lon="151.290064">
  <ele>343.1</ele>
  <time>2026-09-01T19:53:04Z</time>
  <course>270.0</course>
  <speed>0.0</speed>
  <fix>3d</fix>
</trkpt>
<trkpt lat="-27.2744392" lon="151.2900641">
  <ele>343.11</ele>
  <time>2026-09-01T19:53:04Z</time>
  <course>11.55</course>
  <speed>0.022360679774997897</speed>
  <fix>3d</fix>
</trkpt>
<trkpt lat="-27.274439" lon="151.290064">
  <ele>343.1</ele>
  <time>2026-09-01T19:53:04Z</time>
  <course>270.0</course>
  <speed>0.0</speed>
  <fix>3d</fix>
</trkpt>
<trkpt lat="-27.2744392" lon="151.2900641">
  <ele>343.12</ele>
  <time>2026-09-01T19:53:04Z</time>
  <course>11.55</course>
  <speed>0.022360679774997897</speed>
  <fix>3d</fix>
</trkpt>
<trkpt lat="-27.274439" lon="151.290064">
  <ele>343.1</ele>
  <time>2026-09-01T19:53:04Z</time>
  <course>270.0</course>
  <speed>0.0</speed>
  <fix>3d</fix>
</trkpt>
<trkpt lat="-27.2744392" lon="151.2900641">
  <ele>343.12</ele>
  <time>2026-09-01T19:53:04Z</time>
  <course>11.55</course>
  <speed>0.022360679774997897</speed>
  <fix>3d</fix>
</trkpt>
<trkpt lat="-27.274439" lon="151.290064">
  <ele>343.1</ele>
  <time>2026-09-01T19:53:04Z</time>
  <course>270.0</course>
  <speed>0.0</speed>
  <fix>3d</fix>
</trkpt>
<trkpt lat="-27.2744392" lon="151.2900641">
  <ele>343.13</ele>
  <time>2026-09-01T19:53:04Z</time>
  <course>11.55</course>
  <speed>0.022360679774997897</speed>
  <fix>3d</fix>
</trkpt>
<trkpt lat="-27.274439" lon="151.290064">
  <ele>343.1</ele>
  <time>2026-09-01T19:53:04Z</time>
  <course>270.0</course>
  <speed>0.0</speed>
  <fix>3d</fix>
</trkpt>
<trkpt lat="-27.2744392" lon="151.2900641">
  <ele>343.13</ele>
  <time>2026-09-01T19:53:04Z</time>
  <course>11.55</course>
  <speed>0.022360679774997897</speed>
  <fix>3d</fix>
</trkpt>
<trkpt lat="-27.274439" lon="151.290064">
  <ele>343.1</ele>
  <time>2026-09-01T19:53:04Z</time>
  <course>270.0</course>
  <speed>0.0</speed>
  <fix>3d</fix>
</trkpt>
<trkpt lat="-27.2744392" lon="151.2900641">
  <ele>343.13</ele>
  <time>2026-09-01T19:53:04Z</time>
  <course>11.55</course>
  <speed>0.022360679774997897</speed>
  <fix>3d</fix>
</trkpt>
<trkpt lat="-27.274439" lon="151.290064">
  <ele>343.1</ele>
  <time>2026-09-01T19:53:04Z</time>
  <course>270.0</course>
  <speed>0.0</speed>
  <fix>3d</fix>
</trkpt>
<trkpt lat="-27.2744392" lon="151.2900641">
  <ele>343.14</ele>
  <time>2026-09-01T19:53:04Z</time>
  <course>11.55</course>
  <speed>0.022360679774997897</speed>
  <fix>3d</fix>
</trkpt>
<trkpt lat="-27.274439" lon="151.290064">
  <ele>343.1</ele>
  <time>2026-09-01T19:53:04Z</time>
  <course>270.0</course>
  <speed>0.0</speed>
  <fix>3d</fix>
</trkpt>
<trkpt lat="-27.2744392" lon="151.2900641">
  <ele>343.14</ele>
  <time>2026-09-01T19:53:04Z</time>
  <course>11.55</course>
  <speed>0.022360679774997897</speed>
  <fix>3d</fix>
</trkpt>
<trkpt lat="-27.274439" lon="151.290064">
  <ele>343.1</ele>
  <time>2026-09-01T19:53:04Z</time>
  <course>270.0</course>
  <speed>0.0</speed>
  <fix>3d</fix>
</trkpt>
<trkpt lat="-27.2744392" lon="151.2900641">
  <ele>343.14</ele>
  <time>2026-09-01T19:53:04Z</time>
  <course>11.55</course>
  <speed>0.022360679774997897</speed>
  <fix>3d</fix>
</trkpt>
<trkpt lat="-27.274439" lon="151.290064">
  <ele>343.1</ele>
  <time>2026-09-01T19:53:04Z</time>
  <course>270.0</course>
  <speed>0.0</speed>
  <fix>3d</fix>
</trkpt>
<trkpt lat="-27.2744392" lon="151.2900641">
  <ele>343.15</ele>
  <time>2026-09-01T19:53:04Z</time>
  <course>11.55</course>
  <speed>0.022360679774997897</speed>
  <fix>3d</fix>
</trkpt>
<trkpt lat="-27.274439" lon="151.290064">
  <ele>343.1</ele>
  <time>2026-09-01T19:53:04Z</time>
  <course>270.0</course>
  <speed>0.0</speed>
  <fix>3d</fix>
</trkpt>
<trkpt lat="-27.2744392" lon="151.2900641">
  <ele>343.15</ele>
  <time>2026-09-01T19:53:04Z</time>
  <course>11.55</course>
  <speed>0.022360679774997897</speed>
  <fix>3d</fix>
</trkpt>
<trkpt lat="-27.274439" lon="151.290064">
  <ele>343.1</ele>
  <time>2026-09-01T19:53:04Z</time>
  <course>270.0</course>
  <speed>0.0</speed>
  <fix>3d</fix>
</trkpt>
<trkpt lat="-26.9720618" lon="149.6127921">
  <ele>339.29</ele>
  <time>2026-09-01T19:53:05Z</time>
  <course>12.86</course>
  <speed>0.0</speed>
  <fix>3d</fix>
</trkpt>
<trkpt lat="-26.9720618" lon="149.6127921">
  <ele>339.29</ele>
  <time>2026-09-01T19:53:05Z</time>
  <course>12.86</course>
  <speed>0.0</speed>
  <fix>3d</fix>
</trkpt>
<trkpt lat="-27.2744389" lon="151.290064">
  <ele>-0.01</ele>
  <time>2026-09-01T19:53:05Z</time>
  <course>0.13</course>
  <speed>0.0</speed>
  <fix>3d</fix>
</trkpt>
<trkpt lat="-27.2744389" lon="151.290064">
  <ele>343.1</ele>
  <time>2026-09-01T19:53:05Z</time>
  <course>12.88</course>
  <speed>0.0</speed>
  <fix>3d</fix>
</trkpt>
<trkpt lat="-27.2744389" lon="151.290064">
  <ele>0.02</ele>
  <time>2026-09-01T19:53:05Z</time>
  <course>1.12</course>
  <speed>0.0</speed>
  <fix>3d</fix>
</trkpt>
<trkpt lat="-27.2744389" lon="151.290064">
  <ele>343.1</ele>
  <time>2026-09-01T19:53:05Z</time>
  <course>12.88</course>
  <speed>0.0</speed>
  <fix>3d</fix>
</trkpt>
<trkpt lat="-27.2744389" lon="151.290064">
  <ele>-0.08</ele>
  <time>2026-09-01T19:53:05Z</time>
  <course>2.01</course>
  <speed>0.0</speed>
  <fix>3d</fix>
</trkpt>
<trkpt lat="-27.2744389" lon="151.290064">
  <ele>343.1</ele>
  <time>2026-09-01T19:53:05Z</time>
  <course>12.92</course>
  <speed>0.0</speed>
  <fix>3d</fix>
</trkpt>
<trkpt lat="-27.2744389" lon="151.290064">
  <ele>0.22</ele>
  <time>2026-09-01T19:53:05Z</time>
  <course>2.81</course>
  <speed>0.0</speed>
  <fix>3d</fix>
</trkpt>
<trkpt lat="-27.2744389" lon="151.290064">
  <ele>343.1</ele>
  <time>2026-09-01T19:53:05Z</time>
  <course>12.92</course>
  <speed>0.0</speed>
  <fix>3d</fix>
</trkpt>
<trkpt lat="-27.2744389" lon="151.290064">
  <ele>0.09</ele>
  <time>2026-09-01T19:53:05Z</time>
  <course>3.54</course>
  <speed>0.0</speed>
  <fix>3d</fix>
</trkpt>
<trkpt lat="-27.2744389" lon="151.290064">
  <ele>343.1</ele>
  <time>2026-09-01T19:53:05Z</time>
  <course>12.95</course>
  <speed>0.0</speed>
  <fix>3d</fix>
</trkpt>
<trkpt lat="-27.2744389" lon="151.290064">
  <ele>0.08</ele>
  <time>2026-09-01T19:53:05Z</time>
  <course>4.2</course>
  <speed>0.0</speed>
  <fix>3d</fix>
</trkpt>
<trkpt lat="-27.2744389" lon="151.290064">
  <ele>343.1</ele>
  <time>2026-09-01T19:53:05Z</time>
  <course>12.95</course>
  <speed>0.0</speed>
  <fix>3d</fix>
</trkpt>
<trkpt lat="-27.2744389" lon="151.290064">
  <ele>0.09</ele>
  <time>2026-09-01T19:53:05Z</time>
  <course>4.81</course>
  <speed>0.0</speed>
  <fix>3d</fix>
</trkpt>
<trkpt lat="-27.2744389" lon="151.290064">
  <ele>343.1</ele>
  <time>2026-09-01T19:53:05Z</time>
  <course>12.98</course>
  <speed>0.0</speed>
  <fix>3d</fix>
</trkpt>
<trkpt lat="-27.2744389" lon="151.290064">
  <ele>-0.05</ele>
  <time>2026-09-01T19:53:05Z</time>
  <course>5.36</course>
  <speed>0.0</speed>
  <fix>3d</fix>
</trkpt>
<trkpt lat="-27.2744389" lon="151.290064">
  <ele>343.1</ele>
  <time>2026-09-01T19:53:05Z</time>
  <course>12.98</course>
  <speed>0.0</speed>
  <fix>3d</fix>
</trkpt>
<trkpt lat="-27.2744389" lon="151.290064">
  <ele>343.06</ele>
  <time>2026-09-01T19:53:05Z</time>
  <course>5.84</course>
  <speed>0.0</speed>
  <fix>3d</fix>
</trkpt>
<trkpt lat="-27.2744389" lon="151.290064">
  <ele>343.1</ele>
  <time>2026-09-01T19:53:05Z</time>
  <course>13.0</course>
  <speed>0.0</speed>
  <fix>3d</fix>
</trkpt>
<trkpt lat="-27.2744389" lon="151.290064">
  <ele>343.18</ele>
  <time>2026-09-01T19:53:05Z</time>
  <course>6.29</course>
  <speed>0.0</speed>
  <fix>3d</fix>
</trkpt>
<trkpt lat="-27.2744389" lon="151.290064">
  <ele>343.1</ele>
  <time>2026-09-01T19:53:05Z</time>
  <course>13.01</course>
  <speed>0.0</speed>
  <fix>3d</fix>
</trkpt>
<trkpt lat="-27.2744389" lon="151.290064">
  <ele>342.91</ele>
  <time>2026-09-01T19:53:05Z</time>
  <course>6.71</course>
  <speed>0.0</speed>
  <fix>3d</fix>
</trkpt>
<trkpt lat="-27.2744389" lon="151.290064">
  <ele>343.1</ele>
  <time>2026-09-01T19:53:05Z</time>
  <course>13.01</course>
  <speed>0.0</speed>
  <fix>3d</fix>
</trkpt>
<trkpt lat="-27.2744389" lon="151.290064">
  <ele>343.06</ele>
  <time>2026-09-01T19:53:05Z</time>
  <course>7.09</course>
  <speed>0.0</speed>
  <fix>3d</fix>
</trkpt>
<trkpt lat="-27.2744389" lon="151.290064">
  <ele>343.1</ele>
  <time>2026-09-01T19:53:05Z</time>
  <course>13.01</course>
  <speed>0.0</speed>
  <fix>3d</fix>
</trkpt>
<trkpt lat="-27.2744389" lon="151.290064">
  <ele>343.13</ele>
  <time>2026-09-01T19:53:05Z</time>
  <course>7.42</course>
  <speed>0.0</speed>
  <fix>3d</fix>
</trkpt>
<trkpt lat="-27.2744389" lon="151.290064">
  <ele>343.1</ele>
  <time>2026-09-01T19:53:05Z</time>
  <course>13.02</course>
  <speed>0.0</speed>
  <fix>3d</fix>
</trkpt>
<trkpt lat="-27.2744389" lon="151.290064">
  <ele>343.04</ele>
  <time>2026-09-01T19:53:05Z</time>
  <course>7.73</course>
  <speed>0.0</speed>
  <fix>3d</fix>
</trkpt>
<trkpt lat="-27.2744389" lon="151.290064">
  <ele>343.1</ele>
  <time>2026-09-01T19:53:05Z</time>
  <course>13.02</course>
  <speed>0.0</speed>
  <fix>3d</fix>
</trkpt>
<trkpt lat="-27.2744389" lon="151.290064">
  <ele>342.88</ele>
  <time>2026-09-01T19:53:05Z</time>
  <course>8.0</course>
  <speed>0.0</speed>
  <fix>3d</fix>
</trkpt>
<trkpt lat="-27.2744389" lon="151.290064">
  <ele>343.1</ele>
  <time>2026-09-01T19:53:05Z</time>
  <course>13.03</course>
  <speed>0.0</speed>
  <fix>3d</fix>
</trkpt>
<trkpt lat="-27.2744389" lon="151.290064">
  <ele>343.02</ele>
  <time>2026-09-01T19:53:05Z</time>
  <course>8.25</course>
  <speed>0.0</speed>
  <fix>3d</fix>
</trkpt>
<trkpt lat="-27.2744389" lon="151.290064">
  <ele>343.1</ele>
  <time>2026-09-01T19:53:05Z</time>
  <course>13.03</course>
  <speed>0.0</speed>
  <fix>3d</fix>
</trkpt>
<trkpt lat="-27.2744389" lon="151.290064">
  <ele>343.23</ele>
  <time>2026-09-01T19:53:05Z</time>
  <course>8.48</course>
  <speed>0.0</speed>
  <fix>3d</fix>
</trkpt>
<trkpt lat="-27.2744389" lon="151.290064">
  <ele>343.1</ele>
  <time>2026-09-01T19:53:05Z</time>
  <course>13.03</course>
  <speed>0.0</speed>
  <fix>3d</fix>
</trkpt>
<trkpt lat="-27.2744389" lon="151.290064">
  <ele>343.17</ele>
  <time>2026-09-01T19:53:05Z</time>
  <course>8.68</course>
  <speed>0.0</speed>
  <fix>3d</fix>
</trkpt>
<trkpt lat="-27.2744389" lon="151.290064">
  <ele>343.1</ele>
  <time>2026-09-01T19:53:05Z</time>
  <course>13.03</course>
  <speed>0.0</speed>
  <fix>3d</fix>
</trkpt>
<trkpt lat="-27.2744389" lon="151.290064">
  <ele>343.04</ele>
  <time>2026-09-01T19:53:05Z</time>
  <course>8.85</course>
  <speed>0.0</speed>
  <fix>3d</fix>
</trkpt>
<trkpt lat="-27.2744389" lon="151.290064">
  <ele>343.1</ele>
  <time>2026-09-01T19:53:05Z</time>
  <course>13.03</course>
  <speed>0.0</speed>
  <fix>3d</fix>
</trkpt>
<trkpt lat="-27.2744389" lon="151.290064">
  <ele>342.89</ele>
  <time>2026-09-01T19:53:05Z</time>
  <course>9.02</course>
  <speed>0.0</speed>
  <fix>3d</fix>
</trkpt>
<trkpt lat="-27.2744389" lon="151.290064">
  <ele>343.1</ele>
  <time>2026-09-01T19:53:05Z</time>
  <course>13.03</course>
  <speed>0.0</speed>
  <fix>3d</fix>
</trkpt>
<trkpt lat="-27.2744389" lon="151.290064">
  <ele>343.08</ele>
  <time>2026-09-01T19:53:05Z</time>
  <course>9.16</course>
  <speed>0.0</speed>
  <fix>3d</fix>
</trkpt>
<trkpt lat="-27.2744389" lon="151.290064">
  <ele>343.1</ele>
  <time>2026-09-01T19:53:05Z</time>
  <course>13.03</course>
  <speed>0.0</speed>
  <fix>3d</fix>
</trkpt>
<trkpt lat="-27.2744389" lon="151.290064">
  <ele>343.19</ele>
  <time>2026-09-01T19:53:05Z</time>
  <course>9.3</course>
  <speed>0.0</speed>
  <fix>3d</fix>
</trkpt>
<trkpt lat="-27.2744389" lon="151.290064">
  <ele>343.1</ele>
  <time>2026-09-01T19:53:05Z</time>
  <course>13.03</course>
  <speed>0.0</speed>
  <fix>3d</fix>
</trkpt>
<trkpt lat="-27.2744388" lon="151.290064">
  <ele>342.88</ele>
  <time>2026-09-01T19:53:05Z</time>
  <course>9.42</course>
  <speed>0.0</speed>
  <fix>3d</fix>
</trkpt>
<trkpt lat="-27.2744388" lon="151.290064">
  <ele>343.1</ele>
  <time>2026-09-01T19:53:05Z</time>
  <course>13.03</course>
  <speed>0.0</speed>
  <fix>3d</fix>
</trkpt>
<trkpt lat="-27.2744388" lon="151.290064">
  <ele>343.17</ele>
  <time>2026-09-01T19:53:05Z</time>
  <course>9.53</course>
  <speed>0.0</speed>
  <fix>3d</fix>
</trkpt>
<trkpt lat="-27.2744388" lon="151.290064">
  <ele>343.1</ele>
  <time>2026-09-01T19:53:05Z</time>
  <course>13.03</course>
  <speed>0.0</speed>
  <fix>3d</fix>
</trkpt>
<trkpt lat="-27.2744388" lon="151.290064">
  <ele>342.89</ele>
  <time>2026-09-01T19:53:05Z</time>
  <course>9.63</course>
  <speed>0.0</speed>
  <fix>3d</fix>
</trkpt>
<trkpt lat="-27.2744388" lon="151.290064">
  <ele>343.1</ele>
  <time>2026-09-01T19:53:05Z</time>
  <course>13.03</course>
  <speed>0.0</speed>
  <fix>3d</fix>
</trkpt>
<trkpt lat="-27.2744388" lon="151.290064">
  <ele>342.99</ele>
  <time>2026-09-01T19:53:05Z</time>
  <course>9.72</course>
  <speed>0.0</speed>
  <fix>3d</fix>
</trkpt>
<trkpt lat="-27.2744388" lon="151.290064">
  <ele>343.1</ele>
  <time>2026-09-01T19:53:05Z</time>
  <course>13.03</course>
  <speed>0.0</speed>
  <fix>3d</fix>
</trkpt>
<trkpt lat="-27.2744388" lon="151.290064">
  <ele>342.87</ele>
  <time>2026-09-01T19:53:05Z</time>
  <course>9.8</course>
  <speed>0.0</speed>
  <fix>3d</fix>
</trkpt>
<trkpt lat="-27.2744388" lon="151.290064">
  <ele>343.1</ele>
  <time>2026-09-01T19:53:05Z</time>
  <course>13.03</course>
  <speed>0.0</speed>
  <fix>3d</fix>
</trkpt>
<trkpt lat="-27.2744388" lon="151.290064">
  <ele>343.09</ele>
  <time>2026-09-01T19:53:05Z</time>
  <course>9.88</course>
  <speed>0.0</speed>
  <fix>3d</fix>
</trkpt>
<trkpt lat="-27.2744388" lon="151.290064">
  <ele>343.1</ele>
  <time>2026-09-01T19:53:05Z</time>
  <course>13.03</course>
  <speed>0.0</speed>
  <fix>3d</fix>
</trkpt>
<trkpt lat="-27.2744388" lon="151.290064">
  <ele>343.18</ele>
  <time>2026-09-01T19:53:05Z</time>
  <course>9.94</course>
  <speed>0.0</speed>
  <fix>3d</fix>
</trkpt>
<trkpt lat="-27.2744388" lon="151.290064">
  <ele>343.1</ele>
  <time>2026-09-01T19:53:05Z</time>
  <course>13.02</course>
  <speed>0.0</speed>
  <fix>3d</fix>
</trkpt>
<trkpt lat="-27.2744388" lon="151.290064">
  <ele>343.05</ele>
  <time>2026-09-01T19:53:05Z</time>
  <course>10.01</course>
  <speed>0.0</speed>
  <fix>3d</fix>
</trkpt>
<trkpt lat="-27.2744388" lon="151.290064">
  <ele>343.1</ele>
  <time>2026-09-01T19:53:05Z</time>
  <course>13.02</course>
  <speed>0.0</speed>
  <fix>3d</fix>
</trkpt>
<trkpt lat="-27.2744388" lon="151.290064">
  <ele>342.96</ele>
  <time>2026-09-01T19:53:05Z</time>
  <course>10.06</course>
  <speed>0.0</speed>
  <fix>3d</fix>
</trkpt>
<trkpt lat="-27.2744388" lon="151.290064">
  <ele>343.1</ele>
  <time>2026-09-01T19:53:05Z</time>
  <course>13.02</course>
  <speed>0.0</speed>
  <fix>3d</fix>
</trkpt>
<trkpt lat="-27.2744388" lon="151.290064">
  <ele>343.1</ele>
  <time>2026-09-01T19:53:05Z</time>
  <course>10.11</course>
  <speed>0.0</speed>
  <fix>3d</fix>
</trkpt>
<trkpt lat="-27.2744388" lon="151.290064">
  <ele>343.1</ele>
  <time>2026-09-01T19:53:05Z</time>
  <course>13.02</course>
  <speed>0.0</speed>
  <fix>3d</fix>
</trkpt>
<trkpt lat="-27.2744388" lon="151.290064">
  <ele>343.22</ele>
  <time>2026-09-01T19:53:05Z</time>
  <course>10.16</course>
  <speed>0.0</speed>
  <fix>3d</fix>
</trkpt>
<trkpt lat="-27.2744388" lon="151.290064">
  <ele>343.1</ele>
  <time>2026-09-01T19:53:05Z</time>
  <course>13.01</course>
  <speed>0.0</speed>
  <fix>3d</fix>
</trkpt>
<trkpt lat="-27.2744388" lon="151.290064">
  <ele>343.17</ele>
  <time>2026-09-01T19:53:05Z</time>
  <course>10.2</course>
  <speed>0.0</speed>
  <fix>3d</fix>
</trkpt>
<trkpt lat="-27.2744388" lon="151.290064">
  <ele>343.1</ele>
  <time>2026-09-01T19:53:05Z</time>
  <course>13.01</course>
  <speed>0.0</speed>
  <fix>3d</fix>
</trkpt>
<trkpt lat="-27.2744388" lon="151.290064">
  <ele>343.08</ele>
  <time>2026-09-01T19:53:05Z</time>
  <course>10.24</course>
  <speed>0.0</speed>
  <fix>3d</fix>
</trkpt>
<trkpt lat="-27.2744388" lon="151.290064">
  <ele>343.1</ele>
  <time>2026-09-01T19:53:05Z</time>
  <course>13.01</course>
  <speed>0.0</speed>
  <fix>3d</fix>
</trkpt>
<trkpt lat="-27.2744388" lon="151.290064">
  <ele>343.04</ele>
  <time>2026-09-01T19:53:05Z</time>
  <course>10.27</course>
  <speed>0.0</speed>
  <fix>3d</fix>
</trkpt>
<trkpt lat="-27.2744388" lon="151.290064">
  <ele>343.1</ele>
  <time>2026-09-01T19:53:05Z</time>
  <course>13.01</course>
  <speed>0.0</speed>
  <fix>3d</fix>
</trkpt>
<trkpt lat="-27.2744388" lon="151.290064">
  <ele>343.18</ele>
  <time>2026-09-01T19:53:05Z</time>
  <course>10.3</course>
  <speed>0.0</speed>
  <fix>3d</fix>
</trkpt>
<trkpt lat="-27.2744388" lon="151.290064">
  <ele>343.1</ele>
  <time>2026-09-01T19:53:05Z</time>
  <course>13.0</course>
  <speed>0.0</speed>
  <fix>3d</fix>
</trkpt>
<trkpt lat="-27.2744388" lon="151.290064">
  <ele>343.12</ele>
  <time>2026-09-01T19:53:05Z</time>
  <course>10.32</course>
  <speed>0.0</speed>
  <fix>3d</fix>
</trkpt>
<trkpt lat="-27.2744388" lon="151.290064">
  <ele>343.1</ele>
  <time>2026-09-01T19:53:05Z</time>
  <course>13.0</course>
  <speed>0.0</speed>
  <fix>3d</fix>
</trkpt>
<trkpt lat="-27.2744388" lon="151.290064">
  <ele>343.04</ele>
  <time>2026-09-01T19:53:05Z</time>
  <course>10.34</course>
  <speed>0.0</speed>
  <fix>3d</fix>
</trkpt>
<trkpt lat="-27.2744388" lon="151.290064">
  <ele>343.1</ele>
  <time>2026-09-01T19:53:05Z</time>
  <course>13.0</course>
  <speed>0.0</speed>
  <fix>3d</fix>
</trkpt>
<trkpt lat="-27.2744388" lon="151.290064">
  <ele>343.07</ele>
  <time>2026-09-01T19:53:05Z</time>
  <course>10.37</course>
  <speed>0.0</speed>
  <fix>3d</fix>
</trkpt>
<trkpt lat="-27.2744388" lon="151.290064">
  <ele>343.1</ele>
  <time>2026-09-01T19:53:05Z</time>
  <course>13.0</course>
  <speed>0.0</speed>
  <fix>3d</fix>
</trkpt>
<trkpt lat="-27.2744388" lon="151.290064">
  <ele>343.04</ele>
  <time>2026-09-01T19:53:05Z</time>
  <course>10.38</course>
  <speed>0.0</speed>
  <fix>3d</fix>
</trkpt>
<trkpt lat="-27.2744388" lon="151.290064">
  <ele>343.1</ele>
  <time>2026-09-01T19:53:05Z</time>
  <course>12.99</course>
  <speed>0.0</speed>
  <fix>3d</fix>
</trkpt>
<trkpt lat="-27.2744388" lon="151.290064">
  <ele>343.01</ele>
  <time>2026-09-01T19:53:05Z</time>
  <course>10.4</course>
  <speed>0.0</speed>
  <fix>3d</fix>
</trkpt>
<trkpt lat="-27.2744388" lon="151.290064">
  <ele>343.1</ele>
  <time>2026-09-01T19:53:05Z</time>
  <course>12.99</course>
  <speed>0.0</speed>
  <fix>3d</fix>
</trkpt>
<trkpt lat="-27.2744388" lon="151.290064">
  <ele>343.2</ele>
  <time>2026-09-01T19:53:05Z</time>
  <course>10.41</course>
  <speed>0.0</speed>
  <fix>3d</fix>
</trkpt>
<trkpt lat="-27.2744388" lon="151.290064">
  <ele>343.1</ele>
  <time>2026-09-01T19:53:05Z</time>
  <course>12.99</course>
  <speed>0.0</speed>
  <fix>3d</fix>
</trkpt>
<trkpt lat="-27.2744388" lon="151.290064">
  <ele>343.24</ele>
  <time>2026-09-01T19:53:05Z</time>
  <course>10.43</course>
  <speed>0.0</speed>
  <fix>3d</fix>
</trkpt>
<trkpt lat="-27.2744388" lon="151.290064">
  <ele>343.1</ele>
  <time>2026-09-01T19:53:05Z</time>
  <course>12.99</course>
  <speed>0.0</speed>
  <fix>3d</fix>
</trkpt>
<trkpt lat="-27.2744388" lon="151.290064">
  <ele>342.88</ele>
  <time>2026-09-01T19:53:05Z</time>
  <course>10.44</course>
  <speed>0.0</speed>
  <fix>3d</fix>
</trkpt>
<trkpt lat="-27.2744388" lon="151.290064">
  <ele>343.1</ele>
  <time>2026-09-01T19:53:05Z</time>
  <course>12.98</course>
  <speed>0.0</speed>
  <fix>3d</fix>
</trkpt>
<trkpt lat="-27.2744388" lon="151.290064">
  <ele>343.21</ele>
  <time>2026-09-01T19:53:05Z</time>
  <course>10.45</course>
  <speed>0.0</speed>
  <fix>3d</fix>
</trkpt>
<trkpt lat="-27.2744388" lon="151.290064">
  <ele>343.1</ele>
  <time>2026-09-01T19:53:05Z</time>
  <course>12.98</course>
  <speed>0.0</speed>
  <fix>3d</fix>
</trkpt>
<trkpt lat="-27.2744388" lon="151.290064">
  <ele>343.02</ele>
  <time>2026-09-01T19:53:05Z</time>
  <course>10.46</course>
  <speed>0.0</speed>
  <fix>3d</fix>
</trkpt>
<trkpt lat="-27.2744388" lon="151.290064">
  <ele>343.1</ele>
  <time>2026-09-01T19:53:05Z</time>
  <course>12.97</course>
  <speed>0.0</speed>
  <fix>3d</fix>
</trkpt>
<trkpt lat="-27.2744388" lon="151.290064">
  <ele>342.93</ele>
  <time>2026-09-01T19:53:05Z</time>
  <course>10.46</course>
  <speed>0.0</speed>
  <fix>3d</fix>
</trkpt>
<trkpt lat="-27.2744388" lon="151.290064">
  <ele>343.1</ele>
  <time>2026-09-01T19:53:05Z</time>
  <course>12.97</course>
  <speed>0.0</speed>
  <fix>3d</fix>
</trkpt>
<trkpt lat="-27.2744388" lon="151.290064">
  <ele>343.07</ele>
  <time>2026-09-01T19:53:05Z</time>
  <course>10.47</course>
  <speed>0.0</speed>
  <fix>3d</fix>
</trkpt>
<trkpt lat="-27.2744388" lon="151.290064">
  <ele>343.1</ele>
  <time>2026-09-01T19:53:05Z</time>
  <course>12.97</course>
  <speed>0.0</speed>
  <fix>3d</fix>
</trkpt>
<trkpt lat="-27.2744388" lon="151.290064">
  <ele>342.94</ele>
  <time>2026-09-01T19:53:05Z</time>
  <course>10.47</course>
  <speed>0.0</speed>
  <fix>3d</fix>
</trkpt>
<trkpt lat="-27.2744388" lon="151.290064">
  <ele>343.1</ele>
  <time>2026-09-01T19:53:05Z</time>
  <course>12.97</course>
  <speed>0.0</speed>
  <fix>3d</fix>
</trkpt>
<trkpt lat="-27.2744388" lon="151.290064">
  <ele>343.11</ele>
  <time>2026-09-01T19:53:05Z</time>
  <course>10.48</course>
  <speed>0.0</speed>
  <fix>3d</fix>
</trkpt>
<trkpt lat="-27.2744388" lon="151.290064">
  <ele>343.1</ele>
  <time>2026-09-01T19:53:05Z</time>
  <course>12.96</course>
  <speed>0.0</speed>
  <fix>3d</fix>
</trkpt>
<trkpt lat="-27.2744388" lon="151.290064">
  <ele>343.24</ele>
  <time>2026-09-01T19:53:05Z</time>
  <course>10.48</course>
  <speed>0.0</speed>
  <fix>3d</fix>
</trkpt>
<trkpt lat="-27.2744388" lon="151.290064">
  <ele>343.1</ele>
  <time>2026-09-01T19:53:05Z</time>
  <course>12.96</course>
  <speed>0.0</speed>
  <fix>3d</fix>
</trkpt>
<trkpt lat="-27.2744388" lon="151.290064">
  <ele>343.18</ele>
  <time>2026-09-01T19:53:05Z</time>
  <course>10.49</course>
  <speed>0.0</speed>
  <fix>3d</fix>
</trkpt>
<trkpt lat="-27.2744388" lon="151.290064">
  <ele>343.1</ele>
  <time>2026-09-01T19:53:05Z</time>
  <course>12.96</course>
  <speed>0.0</speed>
  <fix>3d</fix>
</trkpt>
<trkpt lat="-27.2744388" lon="151.290064">
  <ele>342.89</ele>
  <time>2026-09-01T19:53:05Z</time>
  <course>10.49</course>
  <speed>0.0</speed>
  <fix>3d</fix>
</trkpt>
<trkpt lat="-27.2744388" lon="151.290064">
  <ele>343.1</ele>
  <time>2026-09-01T19:53:05Z</time>
  <course>12.96</course>
  <speed>0.0</speed>
  <fix>3d</fix>
</trkpt>
<trkpt lat="-27.2744388" lon="151.290064">
  <ele>343.23</ele>
  <time>2026-09-01T19:53:05Z</time>
  <course>10.49</course>
  <speed>0.0</speed>
  <fix>3d</fix>
</trkpt>
<trkpt lat="-27.2744388" lon="151.290064">
  <ele>343.1</ele>
  <time>2026-09-01T19:53:05Z</time>
  <course>12.95</course>
  <speed>0.0</speed>
  <fix>3d</fix>
</trkpt>
<trkpt lat="-27.2744388" lon="151.290064">
  <ele>343.23</ele>
  <time>2026-09-01T19:53:05Z</time>
  <course>10.49</course>
  <speed>0.0</speed>
  <fix>3d</fix>
</trkpt>
<trkpt lat="-27.2744388" lon="151.290064">
  <ele>343.1</ele>
  <time>2026-09-01T19:53:05Z</time>
  <course>12.95</course>
  <speed>0.0</speed>
  <fix>3d</fix>
</trkpt>
<trkpt lat="-27.2744388" lon="151.290064">
  <ele>342.99</ele>
  <time>2026-09-01T19:53:05Z</time>
  <course>10.49</course>
  <speed>0.0</speed>
  <fix>3d</fix>
</trkpt>
<trkpt lat="-27.2744388" lon="151.290064">
  <ele>343.1</ele>
  <time>2026-09-01T19:53:05Z</time>
  <course>12.94</course>
  <speed>0.0</speed>
  <fix>3d</fix>
</trkpt>
<trkpt lat="-27.2744388" lon="151.290064">
  <ele>343.13</ele>
  <time>2026-09-01T19:53:05Z</time>
  <course>10.5</course>
  <speed>0.0</speed>
  <fix>3d</fix>
</trkpt>
<trkpt lat="-27.2744388" lon="151.290064">
  <ele>343.1</ele>
  <time>2026-09-01T19:53:05Z</time>
  <course>12.94</course>
  <speed>0.0</speed>
  <fix>3d</fix>
</trkpt>
<trkpt lat="-27.2744388" lon="151.290064">
  <ele>343.07</ele>
  <time>2026-09-01T19:53:05Z</time>
  <course>10.5</course>
  <speed>0.0</speed>
  <fix>3d</fix>
</trkpt>
<trkpt lat="-27.2744388" lon="151.290064">
  <ele>343.1</ele>
  <time>2026-09-01T19:53:05Z</time>
  <course>12.94</course>
  <speed>0.0</speed>
  <fix>3d</fix>
</trkpt>
<trkpt lat="-27.2744388" lon="151.290064">
  <ele>343.19</ele>
  <time>2026-09-01T19:53:05Z</time>
  <course>10.5</course>
  <speed>0.0</speed>
  <fix>3d</fix>
</trkpt>
<trkpt lat="-27.2744388" lon="151.290064">
  <ele>343.1</ele>
  <time>2026-09-01T19:53:05Z</time>
  <course>12.94</course>
  <speed>0.0</speed>
  <fix>3d</fix>
</trkpt>
<trkpt lat="-27.2744388" lon="151.290064">
  <ele>342.93</ele>
  <time>2026-09-01T19:53:05Z</time>
  <course>10.5</course>
  <speed>0.0</speed>
  <fix>3d</fix>
</trkpt>
<trkpt lat="-27.2744388" lon="151.290064">
  <ele>343.1</ele>
  <time>2026-09-01T19:53:05Z</time>
  <course>12.93</course>
  <speed>0.0</speed>
  <fix>3d</fix>
</trkpt>
<trkpt lat="-27.2744388" lon="151.290064">
  <ele>343.19</ele>
  <time>2026-09-01T19:53:05Z</time>
  <course>10.5</course>
  <speed>0.0</speed>
  <fix>3d</fix>
</trkpt>
<trkpt lat="-27.2744388" lon="151.290064">
  <ele>343.1</ele>
  <time>2026-09-01T19:53:05Z</time>
  <course>12.93</course>
  <speed>0.0</speed>
  <fix>3d</fix>
</trkpt>
<trkpt lat="-27.2744388" lon="151.290064">
  <ele>343.1</ele>
  <time>2026-09-01T19:53:05Z</time>
  <course>10.49</course>
  <speed>0.0</speed>
  <fix>3d</fix>
</trkpt>
<trkpt lat="-27.2744388" lon="151.290064">
  <ele>343.1</ele>
  <time>2026-09-01T19:53:05Z</time>
  <course>12.92</course>
  <speed>0.0</speed>
  <fix>3d</fix>
</trkpt>
<trkpt lat="-27.2744388" lon="151.290064">
  <ele>343.01</ele>
  <time>2026-09-01T19:53:05Z</time>
  <course>10.49</course>
  <speed>0.0</speed>
  <fix>3d</fix>
</trkpt>
<trkpt lat="-27.2744388" lon="151.290064">
  <ele>343.1</ele>
  <time>2026-09-01T19:53:05Z</time>
  <course>12.92</course>
  <speed>0.0</speed>
  <fix>3d</fix>
</trkpt>
<trkpt lat="-27.2744388" lon="151.290064">
  <ele>343.11</ele>
  <time>2026-09-01T19:53:05Z</time>
  <course>10.49</course>
  <speed>0.0</speed>
  <fix>3d</fix>
</trkpt>
<trkpt lat="-27.2744388" lon="151.290064">
  <ele>343.1</ele>
  <time>2026-09-01T19:53:05Z</time>
  <course>12.92</course>
  <speed>0.0</speed>
  <fix>3d</fix>
</trkpt>
<trkpt lat="-27.2744388" lon="151.290064">
  <ele>342.96</ele>
  <time>2026-09-01T19:53:05Z</time>
  <course>10.49</course>
  <speed>0.0</speed>
  <fix>3d</fix>
</trkpt>
<trkpt lat="-27.2744388" lon="151.290064">
  <ele>343.1</ele>
  <time>2026-09-01T19:53:05Z</time>
  <course>12.92</course>
  <speed>0.0</speed>
  <fix>3d</fix>
</trkpt>
<trkpt lat="-27.2744388" lon="151.290064">
  <ele>343.19</ele>
  <time>2026-09-01T19:53:05Z</time>
  <course>10.49</course>
  <speed>0.0</speed>
  <fix>3d</fix>
</trkpt>
<trkpt lat="-27.2744388" lon="151.290064">
  <ele>343.1</ele>
  <time>2026-09-01T19:53:05Z</time>
  <course>12.91</course>
  <speed>0.0</speed>
  <fix>3d</fix>
</trkpt>
<trkpt lat="-27.2744388" lon="151.290064">
  <ele>343.0</ele>
  <time>2026-09-01T19:53:05Z</time>
  <course>10.49</course>
  <speed>0.0</speed>
  <fix>3d</fix>
</trkpt>
<trkpt lat="-27.2744388" lon="151.290064">
  <ele>343.1</ele>
  <time>2026-09-01T19:53:05Z</time>
  <course>12.91</course>
  <speed>0.0</speed>
  <fix>3d</fix>
</trkpt>
<trkpt lat="-27.2744388" lon="151.290064">
  <ele>343.2</ele>
  <time>2026-09-01T19:53:05Z</time>
  <course>10.49</course>
  <speed>0.0</speed>
  <fix>3d</fix>
</trkpt>
<trkpt lat="-27.2744388" lon="151.290064">
  <ele>343.1</ele>
  <time>2026-09-01T19:53:05Z</time>
  <course>12.91</course>
  <speed>0.0</speed>
  <fix>3d</fix>
</trkpt>
<trkpt lat="-27.2744388" lon="151.290064">
  <ele>343.2</ele>
  <time>2026-09-01T19:53:05Z</time>
  <course>10.49</course>
  <speed>0.0</speed>
  <fix>3d</fix>
</trkpt>
<trkpt lat="-27.2744388" lon="151.290064">
  <ele>343.1</ele>
  <time>2026-09-01T19:53:05Z</time>
  <course>12.91</course>
  <speed>0.0</speed>
  <fix>3d</fix>
</trkpt>
<trkpt lat="-27.2744388" lon="151.290064">
  <ele>343.13</ele>
  <time>2026-09-01T19:53:05Z</time>
  <course>10.48</course>
  <speed>0.0</speed>
  <fix>3d</fix>
</trkpt>
<trkpt lat="-27.2744388" lon="151.290064">
  <ele>343.1</ele>
  <time>2026-09-01T19:53:05Z</time>
  <course>12.9</course>
  <speed>0.0</speed>
  <fix>3d</fix>
</trkpt>
<trkpt lat="-27.2744388" lon="151.290064">
  <ele>343.1</ele>
  <time>2026-09-01T19:53:05Z</time>
  <course>10.48</course>
  <speed>0.0</speed>
  <fix>3d</fix>
</trkpt>
<trkpt lat="-27.2744388" lon="151.290064">
  <ele>343.1</ele>
  <time>2026-09-01T19:53:05Z</time>
  <course>12.9</course>
  <speed>0.0</speed>
  <fix>3d</fix>
</trkpt>
<trkpt lat="-27.2744388" lon="151.290064">
  <ele>343.12</ele>
  <time>2026-09-01T19:53:05Z</time>
  <course>10.48</course>
  <speed>0.0</speed>
  <fix>3d</fix>
</trkpt>
<trkpt lat="-27.2744388" lon="151.290064">
  <ele>343.1</ele>
  <time>2026-09-01T19:53:05Z</time>
  <course>12.89</course>
  <speed>0.0</speed>
  <fix>3d</fix>
</trkpt>
<trkpt lat="-27.2744388" lon="151.290064">
  <ele>342.94</ele>
  <time>2026-09-01T19:53:05Z</time>
  <course>10.48</course>
  <speed>0.0</speed>
  <fix>3d</fix>
</trkpt>
<trkpt lat="-27.2744388" lon="151.290064">
  <ele>343.1</ele>
  <time>2026-09-01T19:53:05Z</time>
  <course>12.89</course>
  <speed>0.0</speed>
  <fix>3d</fix>
</trkpt>
<trkpt lat="-27.2744388" lon="151.290064">
  <ele>343.25</ele>
  <time>2026-09-01T19:53:05Z</time>
  <course>10.47</course>
  <speed>0.0</speed>
  <fix>3d</fix>
</trkpt>
<trkpt lat="-27.2744388" lon="151.290064">
  <ele>343.1</ele>
  <time>2026-09-01T19:53:05Z</time>
  <course>12.89</course>
  <speed>0.0</speed>
  <fix>3d</fix>
</trkpt>
<trkpt lat="-27.2744388" lon="151.290064">
  <ele>342.93</ele>
  <time>2026-09-01T19:53:05Z</time>
  <course>10.47</course>
  <speed>0.0</speed>
  <fix>3d</fix>
</trkpt>
<trkpt lat="-27.2744388" lon="151.290064">
  <ele>343.1</ele>
  <time>2026-09-01T19:53:05Z</time>
  <course>12.89</course>
  <speed>0.0</speed>
  <fix>3d</fix>
</trkpt>
<trkpt lat="-27.2744388" lon="151.290064">
  <ele>343.08</ele>
  <time>2026-09-01T19:53:05Z</time>
  <course>10.47</course>
  <speed>0.0</speed>
  <fix>3d</fix>
</trkpt>
<trkpt lat="-27.2744388" lon="151.290064">
  <ele>343.1</ele>
  <time>2026-09-01T19:53:05Z</time>
  <course>12.88</course>
  <speed>0.0</speed>
  <fix>3d</fix>
</trkpt>
<trkpt lat="-27.2744388" lon="151.290064">
  <ele>343.23</ele>
  <time>2026-09-01T19:53:05Z</time>
  <course>10.47</course>
  <speed>0.0</speed>
  <fix>3d</fix>
</trkpt>
<trkpt lat="-27.2744388" lon="151.290064">
  <ele>343.1</ele>
  <time>2026-09-01T19:53:05Z</time>
  <course>12.88</course>
  <speed>0.0</speed>
  <fix>3d</fix>
</trkpt>
<trkpt lat="-27.2744388" lon="151.290064">
  <ele>343.01</ele>
  <time>2026-09-01T19:53:05Z</time>
  <course>10.46</course>
  <speed>0.0</speed>
  <fix>3d</fix>
</trkpt>
<trkpt lat="-27.2744388" lon="151.290064">
  <ele>343.1</ele>
  <time>2026-09-01T19:53:05Z</time>
  <course>12.87</course>
  <speed>0.0</speed>
  <fix>3d</fix>
</trkpt>
<trkpt lat="-27.2744388" lon="151.290064">
  <ele>343.1</ele>
  <time>2026-09-01T19:53:05Z</time>
  <course>10.46</course>
  <speed>0.0</speed>
  <fix>3d</fix>
</trkpt>
<trkpt lat="-27.2744388" lon="151.290064">
  <ele>343.1</ele>
  <time>2026-09-01T19:53:05Z</time>
  <course>12.87</course>
  <speed>0.0</speed>
  <fix>3d</fix>
</trkpt>
<trkpt lat="-27.2744387" lon="151.290064">
  <ele>342.99</ele>
  <time>2026-09-01T19:53:05Z</time>
  <course>10.46</course>
  <speed>0.0</speed>
  <fix>3d</fix>
</trkpt>
<trkpt lat="-27.2744387" lon="151.290064">
  <ele>343.1</ele>
  <time>2026-09-01T19:53:05Z</time>
  <course>12.87</course>
  <speed>0.0</speed>
  <fix>3d</fix>
</trkpt>
<trkpt lat="-27.2744387" lon="151.290064">
  <ele>342.87</ele>
  <time>2026-09-01T19:53:05Z</time>
  <course>10.46</course>
  <speed>0.0</speed>
  <fix>3d</fix>
</trkpt>
<trkpt lat="-27.2744387" lon="151.290064">
  <ele>343.1</ele>
  <time>2026-09-01T19:53:05Z</time>
  <course>12.87</course>
  <speed>0.0</speed>
  <fix>3d</fix>
</trkpt>
<trkpt lat="-27.2744387" lon="151.290064">
  <ele>343.1</ele>
  <time>2026-09-01T19:53:05Z</time>
  <course>10.45</course>
  <speed>0.0</speed>
  <fix>3d</fix>
</trkpt>
<trkpt lat="-27.2744387" lon="151.290064">
  <ele>343.1</ele>
  <time>2026-09-01T19:53:05Z</time>
  <course>12.86</course>
  <speed>0.0</speed>
  <fix>3d</fix>
</trkpt>
<trkpt lat="-27.2744387" lon="151.290064">
  <ele>342.99</ele>
  <time>2026-09-01T19:53:05Z</time>
  <course>10.45</course>
  <speed>0.0</speed>
  <fix>3d</fix>
</trkpt>
<trkpt lat="-27.2744387" lon="151.290064">
  <ele>343.1</ele>
  <time>2026-09-01T19:53:05Z</time>
  <course>12.86</course>
  <speed>0.0</speed>
  <fix>3d</fix>
</trkpt>
<trkpt lat="-27.2744387" lon="151.290064">
  <ele>342.91</ele>
  <time>2026-09-01T19:53:05Z</time>
  <course>10.45</course>
  <speed>0.0</speed>
  <fix>3d</fix>
</trkpt>
<trkpt lat="-27.2744387" lon="151.290064">
  <ele>343.1</ele>
  <time>2026-09-01T19:53:05Z</time>
  <course>12.86</course>
  <speed>0.0</speed>
  <fix>3d</fix>
</trkpt>
<trkpt lat="-27.2744387" lon="151.290064">
  <ele>342.9</ele>
  <time>2026-09-01T19:53:05Z</time>
  <course>10.45</course>
  <speed>0.0</speed>
  <fix>3d</fix>
</trkpt>
<trkpt lat="-27.2744387" lon="151.290064">
  <ele>343.1</ele>
  <time>2026-09-01T19:53:05Z</time>
  <course>12.86</course>
  <speed>0.0</speed>
  <fix>3d</fix>
</trkpt>
<trkpt lat="-27.2744387" lon="151.290064">
  <ele>342.87</ele>
  <time>2026-09-01T19:53:05Z</time>
  <course>10.44</course>
  <speed>0.0</speed>
  <fix>3d</fix>
</trkpt>
<trkpt lat="-27.2744387" lon="151.290064">
  <ele>343.1</ele>
  <time>2026-09-01T19:53:05Z</time>
  <course>12.85</course>
  <speed>0.0</speed>
  <fix>3d</fix>
</trkpt>
<trkpt lat="-27.2744387" lon="151.290064">
  <ele>343.12</ele>
  <time>2026-09-01T19:53:05Z</time>
  <course>10.44</course>
  <speed>0.0</speed>
  <fix>3d</fix>
</trkpt>
<trkpt lat="-27.2744387" lon="151.290064">
  <ele>343.1</ele>
  <time>2026-09-01T19:53:05Z</time>
  <course>12.85</course>
  <speed>0.0</speed>
  <fix>3d</fix>
</trkpt>
<trkpt lat="-27.2744387" lon="151.290064">
  <ele>342.99</ele>
  <time>2026-09-01T19:53:05Z</time>
  <course>10.44</course>
  <speed>0.0</speed>
  <fix>3d</fix>
</trkpt>
<trkpt lat="-27.2744387" lon="151.290064">
  <ele>343.1</ele>
  <time>2026-09-01T19:53:05Z</time>
  <course>12.84</course>
  <speed>0.0</speed>
  <fix>3d</fix>
</trkpt>
<trkpt lat="-27.2744387" lon="151.290064">
  <ele>343.13</ele>
  <time>2026-09-01T19:53:05Z</time>
  <course>10.43</course>
  <speed>0.0</speed>
  <fix>3d</fix>
</trkpt>
<trkpt lat="-27.2744387" lon="151.290064">
  <ele>343.1</ele>
  <time>2026-09-01T19:53:05Z</time>
  <course>12.84</course>
  <speed>0.0</speed>
  <fix>3d</fix>
</trkpt>
<trkpt lat="-27.2744387" lon="151.290064">
  <ele>343.0</ele>
  <time>2026-09-01T19:53:05Z</time>
  <course>10.43</course>
  <speed>0.0</speed>
  <fix>3d</fix>
</trkpt>
<trkpt lat="-27.2744387" lon="151.290064">
  <ele>343.1</ele>
  <time>2026-09-01T19:53:05Z</time>
  <course>12.84</course>
  <speed>0.0</speed>
  <fix>3d</fix>
</trkpt>
<trkpt lat="-27.2744387" lon="151.290064">
  <ele>343.17</ele>
  <time>2026-09-01T19:53:05Z</time>
  <course>10.43</course>
  <speed>0.0</speed>
  <fix>3d</fix>
</trkpt>
<trkpt lat="-27.2744387" lon="151.290064">
  <ele>343.1</ele>
  <time>2026-09-01T19:53:05Z</time>
  <course>12.84</course>
  <speed>0.0</speed>
  <fix>3d</fix>
</trkpt>
<trkpt lat="-27.2744387" lon="151.290064">
  <ele>343.0</ele>
  <time>2026-09-01T19:53:05Z</time>
  <course>10.43</course>
  <speed>0.0</speed>
  <fix>3d</fix>
</trkpt>
<trkpt lat="-27.2744387" lon="151.290064">
  <ele>343.1</ele>
  <time>2026-09-01T19:53:05Z</time>
  <course>12.83</course>
  <speed>0.0</speed>
  <fix>3d</fix>
</trkpt>
<trkpt lat="-27.2744387" lon="151.290064">
  <ele>342.99</ele>
  <time>2026-09-01T19:53:05Z</time>
  <course>10.42</course>
  <speed>0.0</speed>
  <fix>3d</fix>
</trkpt>
<trkpt lat="-27.2744387" lon="151.290064">
  <ele>343.1</ele>
  <time>2026-09-01T19:53:05Z</time>
  <course>12.83</course>
  <speed>0.0</speed>
  <fix>3d</fix>
</trkpt>
<trkpt lat="-27.2744387" lon="151.290064">
  <ele>343.17</ele>
  <time>2026-09-01T19:53:05Z</time>
  <course>10.42</course>
  <speed>0.0</speed>
  <fix>3d</fix>
</trkpt>
<trkpt lat="-27.2744387" lon="151.290064">
  <ele>343.1</ele>
  <time>2026-09-01T19:53:05Z</time>
  <course>12.83</course>
  <speed>0.0</speed>
  <fix>3d</fix>
</trkpt>
<trkpt lat="-27.2744387" lon="151.290064">
  <ele>343.16</ele>
  <time>2026-09-01T19:53:05Z</time>
  <course>10.42</course>
  <speed>0.0</speed>
  <fix>3d</fix>
</trkpt>
<trkpt lat="-27.2744387" lon="151.290064">
  <ele>343.1</ele>
  <time>2026-09-01T19:53:05Z</time>
  <course>12.83</course>
  <speed>0.0</speed>
  <fix>3d</fix>
</trkpt>
<trkpt lat="-27.2744387" lon="151.290064">
  <ele>342.87</ele>
  <time>2026-09-01T19:53:05Z</time>
  <course>10.41</course>
  <speed>0.0</speed>
  <fix>3d</fix>
</trkpt>
<trkpt lat="-27.2744387" lon="151.290064">
  <ele>343.1</ele>
  <time>2026-09-01T19:53:05Z</time>
  <course>12.82</course>
  <speed>0.0</speed>
  <fix>3d</fix>
</trkpt>
<trkpt lat="-27.2744387" lon="151.290064">
  <ele>343.19</ele>
  <time>2026-09-01T19:53:05Z</time>
  <course>10.41</course>
  <speed>0.0</speed>
  <fix>3d</fix>
</trkpt>
<trkpt lat="-27.2744387" lon="151.290064">
  <ele>343.1</ele>
  <time>2026-09-01T19:53:05Z</time>
  <course>12.82</course>
  <speed>0.0</speed>
  <fix>3d</fix>
</trkpt>
<trkpt lat="-27.2744387" lon="151.290064">
  <ele>343.16</ele>
  <time>2026-09-01T19:53:05Z</time>
  <course>10.41</course>
  <speed>0.0</speed>
  <fix>3d</fix>
</trkpt>
<trkpt lat="-27.2744387" lon="151.290064">
  <ele>343.1</ele>
  <time>2026-09-01T19:53:05Z</time>
  <course>12.81</course>
  <speed>0.0</speed>
  <fix>3d</fix>
</trkpt>
<trkpt lat="-27.2744387" lon="151.290064">
  <ele>343.21</ele>
  <time>2026-09-01T19:53:05Z</time>
  <course>10.4</course>
  <speed>0.0</speed>
  <fix>3d</fix>
</trkpt>
<trkpt lat="-27.2744387" lon="151.290064">
  <ele>343.1</ele>
  <time>2026-09-01T19:53:05Z</time>
  <course>12.81</course>
  <speed>0.0</speed>
  <fix>3d</fix>
</trkpt>
<trkpt lat="-27.2744387" lon="151.290064">
  <ele>343.22</ele>
  <time>2026-09-01T19:53:05Z</time>
  <course>10.4</course>
  <speed>0.0</speed>
  <fix>3d</fix>
</trkpt>
<trkpt lat="-27.2744387" lon="151.290064">
  <ele>343.1</ele>
  <time>2026-09-01T19:53:05Z</time>
  <course>12.81</course>
  <speed>0.0</speed>
  <fix>3d</fix>
</trkpt>
<trkpt lat="-27.2744387" lon="151.290064">
  <ele>343.12</ele>
  <time>2026-09-01T19:53:05Z</time>
  <course>10.4</course>
  <speed>0.0</speed>
  <fix>3d</fix>
</trkpt>
<trkpt lat="-27.2744387" lon="151.290064">
  <ele>343.1</ele>
  <time>2026-09-01T19:53:05Z</time>
  <course>12.81</course>
  <speed>0.0</speed>
  <fix>3d</fix>
</trkpt>
<trkpt lat="-27.2744387" lon="151.290064">
  <ele>342.88</ele>
  <time>2026-09-01T19:53:05Z</time>
  <course>10.4</course>
  <speed>0.0</speed>
  <fix>3d</fix>
</trkpt>
<trkpt lat="-27.2744387" lon="151.290064">
  <ele>343.1</ele>
  <time>2026-09-01T19:53:05Z</time>
  <course>12.8</course>
  <speed>0.0</speed>
  <fix>3d</fix>
</trkpt>
<trkpt lat="-27.2744387" lon="151.290064">
  <ele>342.97</ele>
  <time>2026-09-01T19:53:05Z</time>
  <course>10.39</course>
  <speed>0.0</speed>
  <fix>3d</fix>
</trkpt>
<trkpt lat="-27.2744387" lon="151.290064">
  <ele>343.1</ele>
  <time>2026-09-01T19:53:05Z</time>
  <course>12.8</course>
  <speed>0.0</speed>
  <fix>3d</fix>
</trkpt>
<trkpt lat="-27.2744387" lon="151.290064">
  <ele>342.92</ele>
  <time>2026-09-01T19:53:05Z</time>
  <course>10.39</course>
  <speed>0.0</speed>
  <fix>3d</fix>
</trkpt>
<trkpt lat="-27.2744387" lon="151.290064">
  <ele>343.1</ele>
  <time>2026-09-01T19:53:05Z</time>
  <course>12.79</course>
  <speed>0.0</speed>
  <fix>3d</fix>
</trkpt>
<trkpt lat="-27.2744387" lon="151.290064">
  <ele>342.74</ele>
  <time>2026-09-01T19:53:05Z</time>
  <course>10.39</course>
  <speed>0.0</speed>
  <fix>3d</fix>
</trkpt>
<trkpt lat="-27.2744387" lon="151.290064">
  <ele>343.1</ele>
  <time>2026-09-01T19:53:05Z</time>
  <course>12.79</course>
  <speed>0.0</speed>
  <fix>3d</fix>
</trkpt>
<trkpt lat="-27.2744387" lon="151.290064">
  <ele>342.8</ele>
  <time>2026-09-01T19:53:05Z</time>
  <course>10.38</course>
  <speed>0.0</speed>
  <fix>3d</fix>
</trkpt>
<trkpt lat="-27.2744387" lon="151.290064">
  <ele>343.1</ele>
  <time>2026-09-01T19:53:05Z</time>
  <course>12.79</course>
  <speed>0.0</speed>
  <fix>3d</fix>
</trkpt>
<trkpt lat="-27.2744387" lon="151.290064">
  <ele>342.83</ele>
  <time>2026-09-01T19:53:05Z</time>
  <course>10.38</course>
  <speed>0.0</speed>
  <fix>3d</fix>
</trkpt>
<trkpt lat="-27.2744387" lon="151.290064">
  <ele>343.1</ele>
  <time>2026-09-01T19:53:05Z</time>
  <course>12.79</course>
  <speed>0.0</speed>
  <fix>3d</fix>
</trkpt>
<trkpt lat="-27.2744387" lon="151.2900641">
  <ele>343.03</ele>
  <time>2026-09-01T19:53:05Z</time>
  <course>10.38</course>
  <speed>0.0</speed>
  <fix>3d</fix>
</trkpt>
<trkpt lat="-27.2744387" lon="151.2900641">
  <ele>343.1</ele>
  <time>2026-09-01T19:53:05Z</time>
  <course>12.78</course>
  <speed>0.0</speed>
  <fix>3d</fix>
</trkpt>
<trkpt lat="-27.2744387" lon="151.2900641">
  <ele>343.04</ele>
  <time>2026-09-01T19:53:05Z</time>
  <course>10.37</course>
  <speed>0.0</speed>
  <fix>3d</fix>
</trkpt>
<trkpt lat="-27.2744387" lon="151.2900641">
  <ele>343.1</ele>
  <time>2026-09-01T19:53:05Z</time>
  <course>12.78</course>
  <speed>0.0</speed>
  <fix>3d</fix>
</trkpt>
<trkpt lat="-27.2744387" lon="151.2900641">
  <ele>343.07</ele>
  <time>2026-09-01T19:53:05Z</time>
  <course>10.38</course>
  <speed>0.0</speed>
  <fix>3d</fix>
</trkpt>
<trkpt lat="-27.2744387" lon="151.2900641">
  <ele>343.1</ele>
  <time>2026-09-01T19:53:05Z</time>
  <course>12.78</course>
  <speed>0.0</speed>
  <fix>3d</fix>
</trkpt>
<trkpt lat="-27.2744387" lon="151.2900641">
  <ele>343.01</ele>
  <time>2026-09-01T19:53:05Z</time>
  <course>10.39</course>
  <speed>0.0</speed>
  <fix>3d</fix>
</trkpt>
<trkpt lat="-27.2744387" lon="151.2900641">
  <ele>343.1</ele>
  <time>2026-09-01T19:53:05Z</time>
  <course>12.78</course>
  <speed>0.0</speed>
  <fix>3d</fix>
</trkpt>
<trkpt lat="-27.2744387" lon="151.2900641">
  <ele>342.88</ele>
  <time>2026-09-01T19:53:05Z</time>
  <course>10.39</course>
  <speed>0.0</speed>
  <fix>3d</fix>
</trkpt>
<trkpt lat="-27.2744387" lon="151.2900641">
  <ele>343.1</ele>
  <time>2026-09-01T19:53:05Z</time>
  <course>12.77</course>
  <speed>0.0</speed>
  <fix>3d</fix>
</trkpt>
<trkpt lat="-27.2744387" lon="151.2900641">
  <ele>343.12</ele>
  <time>2026-09-01T19:53:05Z</time>
  <course>10.4</course>
  <speed>0.0</speed>
  <fix>3d</fix>
</trkpt>
<trkpt lat="-27.2744387" lon="151.2900641">
  <ele>343.1</ele>
  <time>2026-09-01T19:53:05Z</time>
  <course>12.77</course>
  <speed>0.0</speed>
  <fix>3d</fix>
</trkpt>
<trkpt lat="-27.2744387" lon="151.2900641">
  <ele>342.88</ele>
  <time>2026-09-01T19:53:05Z</time>
  <course>10.4</course>
  <speed>0.0</speed>
  <fix>3d</fix>
</trkpt>
<trkpt lat="-27.2744387" lon="151.2900641">
  <ele>343.1</ele>
  <time>2026-09-01T19:53:05Z</time>
  <course>12.76</course>
  <speed>0.0</speed>
  <fix>3d</fix>
</trkpt>
<trkpt lat="-27.2744387" lon="151.2900641">
  <ele>343.02</ele>
  <time>2026-09-01T19:53:05Z</time>
  <course>10.41</course>
  <speed>0.0</speed>
  <fix>3d</fix>
</trkpt>
<trkpt lat="-27.2744387" lon="151.2900641">
  <ele>343.1</ele>
  <time>2026-09-01T19:53:05Z</time>
  <course>12.76</course>
  <speed>0.0</speed>
  <fix>3d</fix>
</trkpt>
<trkpt lat="-27.2744387" lon="151.2900641">
  <ele>342.83</ele>
  <time>2026-09-01T19:53:05Z</time>
  <course>10.41</course>
  <speed>0.0</speed>
  <fix>3d</fix>
</trkpt>
<trkpt lat="-27.2744387" lon="151.2900641">
  <ele>343.1</ele>
  <time>2026-09-01T19:53:05Z</time>
  <course>12.76</course>
  <speed>0.0</speed>
  <fix>3d</fix>
</trkpt>
<trkpt lat="-27.2744387" lon="151.2900641">
  <ele>342.9</ele>
  <time>2026-09-01T19:53:05Z</time>
  <course>10.42</course>
  <speed>0.0</speed>
  <fix>3d</fix>
</trkpt>
<trkpt lat="-27.2744387" lon="151.2900641">
  <ele>343.1</ele>
  <time>2026-09-01T19:53:05Z</time>
  <course>12.76</course>
  <speed>0.0</speed>
  <fix>3d</fix>
</trkpt>
<trkpt lat="-27.2744387" lon="151.2900641">
  <ele>343.04</ele>
  <time>2026-09-01T19:53:05Z</time>
  <course>10.42</course>
  <speed>0.0</speed>
  <fix>3d</fix>
</trkpt>
<trkpt lat="-27.2744387" lon="151.2900641">
  <ele>343.1</ele>
  <time>2026-09-01T19:53:05Z</time>
  <course>12.75</course>
  <speed>0.0</speed>
  <fix>3d</fix>
</trkpt>
<trkpt lat="-27.2744387" lon="151.2900641">
  <ele>343.09</ele>
  <time>2026-09-01T19:53:05Z</time>
  <course>10.43</course>
  <speed>0.0</speed>
  <fix>3d</fix>
</trkpt>
<trkpt lat="-27.2744387" lon="151.2900641">
  <ele>343.1</ele>
  <time>2026-09-01T19:53:05Z</time>
  <course>12.75</course>
  <speed>0.0</speed>
  <fix>3d</fix>
</trkpt>
<trkpt lat="-27.2744387" lon="151.2900641">
  <ele>342.75</ele>
  <time>2026-09-01T19:53:05Z</time>
  <course>10.43</course>
  <speed>0.0</speed>
  <fix>3d</fix>
</trkpt>
<trkpt lat="-27.2744387" lon="151.2900641">
  <ele>343.1</ele>
  <time>2026-09-01T19:53:05Z</time>
  <course>12.74</course>
  <speed>0.0</speed>
  <fix>3d</fix>
</trkpt>
<trkpt lat="-27.2744387" lon="151.2900641">
  <ele>342.95</ele>
  <time>2026-09-01T19:53:05Z</time>
  <course>10.44</course>
  <speed>0.0</speed>
  <fix>3d</fix>
</trkpt>
<trkpt lat="-27.2744387" lon="151.2900641">
  <ele>343.1</ele>
  <time>2026-09-01T19:53:05Z</time>
  <course>12.74</course>
  <speed>0.0</speed>
  <fix>3d</fix>
</trkpt>
<trkpt lat="-27.2744387" lon="151.2900641">
  <ele>342.83</ele>
  <time>2026-09-01T19:53:05Z</time>
  <course>10.44</course>
  <speed>0.0</speed>
  <fix>3d</fix>
</trkpt>
<trkpt lat="-27.2744387" lon="151.2900641">
  <ele>343.1</ele>
  <time>2026-09-01T19:53:05Z</time>
  <course>12.74</course>
  <speed>0.0</speed>
  <fix>3d</fix>
</trkpt>
<trkpt lat="-27.2744387" lon="151.2900641">
  <ele>343.05</ele>
  <time>2026-09-01T19:53:05Z</time>
  <course>10.45</course>
  <speed>0.0</speed>
  <fix>3d</fix>
</trkpt>
<trkpt lat="-27.2744387" lon="151.2900641">
  <ele>343.1</ele>
  <time>2026-09-01T19:53:05Z</time>
  <course>12.74</course>
  <speed>0.0</speed>
  <fix>3d</fix>
</trkpt>
<trkpt lat="-27.2744387" lon="151.2900641">
  <ele>342.88</ele>
  <time>2026-09-01T19:53:05Z</time>
  <course>10.45</course>
  <speed>0.0</speed>
  <fix>3d</fix>
</trkpt>
<trkpt lat="-27.2744387" lon="151.2900641">
  <ele>343.1</ele>
  <time>2026-09-01T19:53:05Z</time>
  <course>12.73</course>
  <speed>0.0</speed>
  <fix>3d</fix>
</trkpt>
<trkpt lat="-27.2744387" lon="151.2900641">
  <ele>343.12</ele>
  <time>2026-09-01T19:53:05Z</time>
  <course>10.46</course>
  <speed>0.0</speed>
  <fix>3d</fix>
</trkpt>
<trkpt lat="-27.2744387" lon="151.2900641">
  <ele>343.1</ele>
  <time>2026-09-01T19:53:05Z</time>
  <course>12.73</course>
  <speed>0.0</speed>
  <fix>3d</fix>
</trkpt>
<trkpt lat="-27.2744387" lon="151.2900641">
  <ele>342.95</ele>
  <time>2026-09-01T19:53:05Z</time>
  <course>10.46</course>
  <speed>0.0</speed>
  <fix>3d</fix>
</trkpt>
<trkpt lat="-27.2744387" lon="151.2900641">
  <ele>343.1</ele>
  <time>2026-09-01T19:53:05Z</time>
  <course>12.73</course>
  <speed>0.0</speed>
  <fix>3d</fix>
</trkpt>
<trkpt lat="-27.2744387" lon="151.2900641">
  <ele>343.19</ele>
  <time>2026-09-01T19:53:05Z</time>
  <course>10.46</course>
  <speed>0.0</speed>
  <fix>3d</fix>
</trkpt>
<trkpt lat="-27.2744387" lon="151.2900641">
  <ele>343.1</ele>
  <time>2026-09-01T19:53:05Z</time>
  <course>12.73</course>
  <speed>0.0</speed>
  <fix>3d</fix>
</trkpt>
<trkpt lat="-27.2744387" lon="151.2900641">
  <ele>343.02</ele>
  <time>2026-09-01T19:53:05Z</time>
  <course>10.47</course>
  <speed>0.0</speed>
  <fix>3d</fix>
</trkpt>
<trkpt lat="-27.2744387" lon="151.2900641">
  <ele>343.1</ele>
  <time>2026-09-01T19:53:05Z</time>
  <course>12.72</course>
  <speed>0.0</speed>
  <fix>3d</fix>
</trkpt>
<trkpt lat="-27.2744387" lon="151.2900641">
  <ele>343.25</ele>
  <time>2026-09-01T19:53:05Z</time>
  <course>10.47</course>
  <speed>0.0</speed>
  <fix>3d</fix>
</trkpt>
<trkpt lat="-27.2744387" lon="151.2900641">
  <ele>343.1</ele>
  <time>2026-09-01T19:53:05Z</time>
  <course>12.72</course>
  <speed>0.0</speed>
  <fix>3d</fix>
</trkpt>
<trkpt lat="-27.2744387" lon="151.2900641">
  <ele>342.94</ele>
  <time>2026-09-01T19:53:05Z</time>
  <course>10.48</course>
  <speed>0.0</speed>
  <fix>3d</fix>
</trkpt>
<trkpt lat="-27.2744387" lon="151.2900641">
  <ele>343.1</ele>
  <time>2026-09-01T19:53:05Z</time>
  <course>12.71</course>
  <speed>0.0</speed>
  <fix>3d</fix>
</trkpt>
<trkpt lat="-27.2744387" lon="151.2900641">
  <ele>343.12</ele>
  <time>2026-09-01T19:53:05Z</time>
  <course>10.48</course>
  <speed>0.0</speed>
  <fix>3d</fix>
</trkpt>
<trkpt lat="-27.2744387" lon="151.2900641">
  <ele>343.1</ele>
  <time>2026-09-01T19:53:05Z</time>
  <course>12.71</course>
  <speed>0.0</speed>
  <fix>3d</fix>
</trkpt>
<trkpt lat="-27.2744387" lon="151.2900641">
  <ele>343.01</ele>
  <time>2026-09-01T19:53:05Z</time>
  <course>10.48</course>
  <speed>0.0</speed>
  <fix>3d</fix>
</trkpt>
<trkpt lat="-27.2744387" lon="151.2900641">
  <ele>343.1</ele>
  <time>2026-09-01T19:53:05Z</time>
  <course>12.71</course>
  <speed>0.0</speed>
  <fix>3d</fix>
</trkpt>
<trkpt lat="-27.2744387" lon="151.2900641">
  <ele>343.13</ele>
  <time>2026-09-01T19:53:05Z</time>
  <course>10.48</course>
  <speed>0.0</speed>
  <fix>3d</fix>
</trkpt>
<trkpt lat="-27.2744387" lon="151.2900641">
  <ele>343.1</ele>
  <time>2026-09-01T19:53:05Z</time>
  <course>12.71</course>
  <speed>0.0</speed>
  <fix>3d</fix>
</trkpt>
<trkpt lat="-27.2744387" lon="151.2900641">
  <ele>343.18</ele>
  <time>2026-09-01T19:53:05Z</time>
  <course>10.49</course>
  <speed>0.0</speed>
  <fix>3d</fix>
</trkpt>
<trkpt lat="-27.2744387" lon="151.2900641">
  <ele>343.1</ele>
  <time>2026-09-01T19:53:05Z</time>
  <course>12.7</course>
  <speed>0.0</speed>
  <fix>3d</fix>
</trkpt>
<trkpt lat="-27.2744387" lon="151.2900641">
  <ele>342.97</ele>
  <time>2026-09-01T19:53:05Z</time>
  <course>10.49</course>
  <speed>0.0</speed>
  <fix>3d</fix>
</trkpt>
<trkpt lat="-27.2744387" lon="151.2900641">
  <ele>343.1</ele>
  <time>2026-09-01T19:53:05Z</time>
  <course>12.7</course>
  <speed>0.0</speed>
  <fix>3d</fix>
</trkpt>
<trkpt lat="-27.2744387" lon="151.2900641">
  <ele>343.14</ele>
  <time>2026-09-01T19:53:05Z</time>
  <course>10.49</course>
  <speed>0.0</speed>
  <fix>3d</fix>
</trkpt>
<trkpt lat="-27.2744387" lon="151.2900641">
  <ele>343.1</ele>
  <time>2026-09-01T19:53:05Z</time>
  <course>12.69</course>
  <speed>0.0</speed>
  <fix>3d</fix>
</trkpt>
<trkpt lat="-27.2744387" lon="151.2900641">
  <ele>342.96</ele>
  <time>2026-09-01T19:53:05Z</time>
  <course>10.5</course>
  <speed>0.0</speed>
  <fix>3d</fix>
</trkpt>
<trkpt lat="-27.2744387" lon="151.2900641">
  <ele>343.1</ele>
  <time>2026-09-01T19:53:05Z</time>
  <course>12.69</course>
  <speed>0.0</speed>
  <fix>3d</fix>
</trkpt>
<trkpt lat="-27.2744387" lon="151.2900641">
  <ele>343.3</ele>
  <time>2026-09-01T19:53:05Z</time>
  <course>10.5</course>
  <speed>0.0</speed>
  <fix>3d</fix>
</trkpt>
<trkpt lat="-27.2744387" lon="151.2900641">
  <ele>343.1</ele>
  <time>2026-09-01T19:53:05Z</time>
  <course>12.69</course>
  <speed>0.0</speed>
  <fix>3d</fix>
</trkpt>
<trkpt lat="-27.2744387" lon="151.2900641">
  <ele>343.21</ele>
  <time>2026-09-01T19:53:05Z</time>
  <course>10.5</course>
  <speed>0.0</speed>
  <fix>3d</fix>
</trkpt>
<trkpt lat="-27.2744387" lon="151.2900641">
  <ele>343.1</ele>
  <time>2026-09-01T19:53:05Z</time>
  <course>12.69</course>
  <speed>0.0</speed>
  <fix>3d</fix>
</trkpt>
<trkpt lat="-27.2744386" lon="151.2900641">
  <ele>343.06</ele>
  <time>2026-09-01T19:53:05Z</time>
  <course>10.5</course>
  <speed>0.0</speed>
  <fix>3d</fix>
</trkpt>
<trkpt lat="-27.2744386" lon="151.2900641">
  <ele>343.09</ele>
  <time>2026-09-01T19:53:05Z</time>
  <course>12.63</course>
  <speed>0.0</speed>
  <fix>3d</fix>
</trkpt>
<trkpt lat="-27.2744386" lon="151.2900641">
  <ele>343.22</ele>
  <time>2026-09-01T19:53:05Z</time>
  <course>10.51</course>
  <speed>0.0</speed>
  <fix>3d</fix>
</trkpt>
<trkpt lat="-27.2744386" lon="151.2900641">
  <ele>343.09</ele>
  <time>2026-09-01T19:53:05Z</time>
  <course>12.63</course>
  <speed>0.0</speed>
  <fix>3d</fix>
</trkpt>
<trkpt lat="-27.2744386" lon="151.2900641">
  <ele>343.32</ele>
  <time>2026-09-01T19:53:05Z</time>
  <course>10.51</course>
  <speed>0.0</speed>
  <fix>3d</fix>
</trkpt>
<trkpt lat="-27.2744386" lon="151.2900641">
  <ele>343.09</ele>
  <time>2026-09-01T19:53:05Z</time>
  <course>12.51</course>
  <speed>0.0</speed>
  <fix>3d</fix>
</trkpt>
<trkpt lat="-27.2744386" lon="151.2900641">
  <ele>343.04</ele>
  <time>2026-09-01T19:53:05Z</time>
  <course>10.51</course>
  <speed>0.0</speed>
  <fix>3d</fix>
</trkpt>
<trkpt lat="-27.2744386" lon="151.2900641">
  <ele>343.09</ele>
  <time>2026-09-01T19:53:05Z</time>
  <course>12.51</course>
  <speed>0.0</speed>
  <fix>3d</fix>
</trkpt>
<trkpt lat="-27.2744386" lon="151.2900641">
  <ele>343.15</ele>
  <time>2026-09-01T19:53:05Z</time>
  <course>10.51</course>
  <speed>0.0</speed>
  <fix>3d</fix>
</trkpt>
<trkpt lat="-27.2744386" lon="151.2900641">
  <ele>343.09</ele>
  <time>2026-09-01T19:53:05Z</time>
  <course>12.6</course>
  <speed>0.0</speed>
  <fix>3d</fix>
</trkpt>
<trkpt lat="-27.2744386" lon="151.2900641">
  <ele>343.15</ele>
  <time>2026-09-01T19:53:05Z</time>
  <course>10.52</course>
  <speed>0.0</speed>
  <fix>3d</fix>
</trkpt>
<trkpt lat="-27.2744386" lon="151.2900641">
  <ele>343.09</ele>
  <time>2026-09-01T19:53:05Z</time>
  <course>12.6</course>
  <speed>0.0</speed>
  <fix>3d</fix>
</trkpt>
<trkpt lat="-27.2744386" lon="151.2900641">
  <ele>343.07</ele>
  <time>2026-09-01T19:53:05Z</time>
  <course>10.52</course>
  <speed>0.0</speed>
  <fix>3d</fix>
</trkpt>
<trkpt lat="-27.2744386" lon="151.2900641">
  <ele>343.09</ele>
  <time>2026-09-01T19:53:05Z</time>
  <course>12.69</course>
  <speed>0.0</speed>
  <fix>3d</fix>
</trkpt>
<trkpt lat="-27.2744386" lon="151.2900641">
  <ele>343.16</ele>
  <time>2026-09-01T19:53:05Z</time>
  <course>10.52</course>
  <speed>0.0</speed>
  <fix>3d</fix>
</trkpt>
<trkpt lat="-27.2744386" lon="151.2900641">
  <ele>343.09</ele>
  <time>2026-09-01T19:53:05Z</time>
  <course>12.69</course>
  <speed>0.0</speed>
  <fix>3d</fix>
</trkpt>
<trkpt lat="-27.2744386" lon="151.2900641">
  <ele>343.22</ele>
  <time>2026-09-01T19:53:05Z</time>
  <course>10.52</course>
  <speed>0.0</speed>
  <fix>3d</fix>
</trkpt>
<trkpt lat="-27.2744386" lon="151.2900641">
  <ele>343.09</ele>
  <time>2026-09-01T19:53:05Z</time>
  <course>12.66</course>
  <speed>0.0</speed>
  <fix>3d</fix>
</trkpt>
<trkpt lat="-27.2744386" lon="151.2900641">
  <ele>343.0</ele>
  <time>2026-09-01T19:53:05Z</time>
  <course>10.52</course>
  <speed>0.0</speed>
  <fix>3d</fix>
</trkpt>
<trkpt lat="-27.2744386" lon="151.2900641">
  <ele>343.09</ele>
  <time>2026-09-01T19:53:05Z</time>
  <course>12.66</course>
  <speed>0.0</speed>
  <fix>3d</fix>
</trkpt>
<trkpt lat="-27.2744386" lon="151.2900641">
  <ele>343.25</ele>
  <time>2026-09-01T19:53:05Z</time>
  <course>10.53</course>
  <speed>0.0</speed>
  <fix>3d</fix>
</trkpt>
<trkpt lat="-27.2744386" lon="151.2900641">
  <ele>343.09</ele>
  <time>2026-09-01T19:53:05Z</time>
  <course>12.65</course>
  <speed>0.0</speed>
  <fix>3d</fix>
</trkpt>
<trkpt lat="-27.2744386" lon="151.2900641">
  <ele>343.27</ele>
  <time>2026-09-01T19:53:05Z</time>
  <course>10.53</course>
  <speed>0.0</speed>
  <fix>3d</fix>
</trkpt>
<trkpt lat="-27.2744386" lon="151.2900641">
  <ele>343.09</ele>
  <time>2026-09-01T19:53:05Z</time>
  <course>12.65</course>
  <speed>0.0</speed>
  <fix>3d</fix>
</trkpt>
<trkpt lat="-27.2744386" lon="151.2900641">
  <ele>343.33</ele>
  <time>2026-09-01T19:53:05Z</time>
  <course>10.53</course>
  <speed>0.0</speed>
  <fix>3d</fix>
</trkpt>
<trkpt lat="-27.2744386" lon="151.2900641">
  <ele>343.09</ele>
  <time>2026-09-01T19:53:05Z</time>
  <course>12.64</course>
  <speed>0.0</speed>
  <fix>3d</fix>
</trkpt>
<trkpt lat="-27.2744386" lon="151.2900641">
  <ele>343.09</ele>
  <time>2026-09-01T19:53:05Z</time>
  <course>10.53</course>
  <speed>0.0</speed>
  <fix>3d</fix>
</trkpt>
<trkpt lat="-27.2744386" lon="151.2900641">
  <ele>343.09</ele>
  <time>2026-09-01T19:53:05Z</time>
  <course>12.64</course>
  <speed>0.0</speed>
  <fix>3d</fix>
</trkpt>
<trkpt lat="-27.2744386" lon="151.2900641">
  <ele>342.95</ele>
  <time>2026-09-01T19:53:05Z</time>
  <course>10.53</course>
  <speed>0.0</speed>
  <fix>3d</fix>
</trkpt>
<trkpt lat="-27.2744386" lon="151.2900641">
  <ele>343.09</ele>
  <time>2026-09-01T19:53:05Z</time>
  <course>12.64</course>
  <speed>0.0</speed>
  <fix>3d</fix>
</trkpt>
<trkpt lat="-27.2744386" lon="151.2900641">
  <ele>343.02</ele>
  <time>2026-09-01T19:53:05Z</time>
  <course>10.54</course>
  <speed>0.0</speed>
  <fix>3d</fix>
</trkpt>
<trkpt lat="-27.2744386" lon="151.2900641">
  <ele>343.09</ele>
  <time>2026-09-01T19:53:05Z</time>
  <course>12.64</course>
  <speed>0.0</speed>
  <fix>3d</fix>
</trkpt>
<trkpt lat="-27.2744386" lon="151.2900641">
  <ele>343.22</ele>
  <time>2026-09-01T19:53:05Z</time>
  <course>10.54</course>
  <speed>0.0</speed>
  <fix>3d</fix>
</trkpt>
<trkpt lat="-27.2744386" lon="151.2900641">
  <ele>343.09</ele>
  <time>2026-09-01T19:53:05Z</time>
  <course>12.63</course>
  <speed>0.0</speed>
  <fix>3d</fix>
</trkpt>
<trkpt lat="-27.2744386" lon="151.2900641">
  <ele>343.13</ele>
  <time>2026-09-01T19:53:05Z</time>
  <course>10.54</course>
  <speed>0.0</speed>
  <fix>3d</fix>
</trkpt>
<trkpt lat="-27.2744386" lon="151.2900641">
  <ele>343.09</ele>
  <time>2026-09-01T19:53:05Z</time>
  <course>12.63</course>
  <speed>0.0</speed>
  <fix>3d</fix>
</trkpt>
<trkpt lat="-27.2744386" lon="151.2900641">
  <ele>343.12</ele>
  <time>2026-09-01T19:53:05Z</time>
  <course>10.54</course>
  <speed>0.0</speed>
  <fix>3d</fix>
</trkpt>
<trkpt lat="-27.2744386" lon="151.2900641">
  <ele>343.09</ele>
  <time>2026-09-01T19:53:05Z</time>
  <course>12.62</course>
  <speed>0.0</speed>
  <fix>3d</fix>
</trkpt>
<trkpt lat="-27.2744386" lon="151.2900641">
  <ele>343.02</ele>
  <time>2026-09-01T19:53:05Z</time>
  <course>10.54</course>
  <speed>0.0</speed>
  <fix>3d</fix>
</trkpt>
<trkpt lat="-27.2744386" lon="151.2900641">
  <ele>343.09</ele>
  <time>2026-09-01T19:53:05Z</time>
  <course>12.62</course>
  <speed>0.0</speed>
  <fix>3d</fix>
</trkpt>
<trkpt lat="-27.2744386" lon="151.2900641">
  <ele>343.14</ele>
  <time>2026-09-01T19:53:05Z</time>
  <course>10.54</course>
  <speed>0.0</speed>
  <fix>3d</fix>
</trkpt>
<trkpt lat="-27.2744386" lon="151.2900641">
  <ele>343.09</ele>
  <time>2026-09-01T19:53:05Z</time>
  <course>12.62</course>
  <speed>0.0</speed>
  <fix>3d</fix>
</trkpt>
<trkpt lat="-27.2744386" lon="151.2900641">
  <ele>343.13</ele>
  <time>2026-09-01T19:53:05Z</time>
  <course>10.54</course>
  <speed>0.0</speed>
  <fix>3d</fix>
</trkpt>
<trkpt lat="-27.2744386" lon="151.2900641">
  <ele>343.09</ele>
  <time>2026-09-01T19:53:05Z</time>
  <course>12.62</course>
  <speed>0.0</speed>
  <fix>3d</fix>
</trkpt>
<trkpt lat="-27.2744386" lon="151.2900641">
  <ele>343.16</ele>
  <time>2026-09-01T19:53:05Z</time>
  <course>10.55</course>
  <speed>0.0</speed>
  <fix>3d</fix>
</trkpt>
<trkpt lat="-27.2744386" lon="151.2900641">
  <ele>343.09</ele>
  <time>2026-09-01T19:53:05Z</time>
  <course>12.61</course>
  <speed>0.0</speed>
  <fix>3d</fix>
</trkpt>
<trkpt lat="-27.2744386" lon="151.2900641">
  <ele>342.94</ele>
  <time>2026-09-01T19:53:05Z</time>
  <course>10.55</course>
  <speed>0.0</speed>
  <fix>3d</fix>
</trkpt>
<trkpt lat="-27.2744386" lon="151.2900641">
  <ele>343.09</ele>
  <time>2026-09-01T19:53:05Z</time>
  <course>12.61</course>
  <speed>0.0</speed>
  <fix>3d</fix>
</trkpt>
<trkpt lat="-27.2744386" lon="151.2900641">
  <ele>343.05</ele>
  <time>2026-09-01T19:53:05Z</time>
  <course>10.55</course>
  <speed>0.0</speed>
  <fix>3d</fix>
</trkpt>
<trkpt lat="-27.2744386" lon="151.2900641">
  <ele>343.09</ele>
  <time>2026-09-01T19:53:05Z</time>
  <course>12.6</course>
  <speed>0.0</speed>
  <fix>3d</fix>
</trkpt>
<trkpt lat="-27.2744386" lon="151.2900641">
  <ele>343.1</ele>
  <time>2026-09-01T19:53:05Z</time>
  <course>10.55</course>
  <speed>0.0</speed>
  <fix>3d</fix>
</trkpt>
<trkpt lat="-27.2744386" lon="151.2900641">
  <ele>343.09</ele>
  <time>2026-09-01T19:53:05Z</time>
  <course>12.6</course>
  <speed>0.0</speed>
  <fix>3d</fix>
</trkpt>
<trkpt lat="-27.2744386" lon="151.2900641">
  <ele>343.29</ele>
  <time>2026-09-01T19:53:05Z</time>
  <course>10.55</course>
  <speed>0.0</speed>
  <fix>3d</fix>
</trkpt>
<trkpt lat="-27.2744386" lon="151.2900641">
  <ele>343.09</ele>
  <time>2026-09-01T19:53:05Z</time>
  <course>12.6</course>
  <speed>0.0</speed>
  <fix>3d</fix>
</trkpt>
<trkpt lat="-27.2744386" lon="151.2900641">
  <ele>343.02</ele>
  <time>2026-09-01T19:53:05Z</time>
  <course>10.55</course>
  <speed>0.0</speed>
  <fix>3d</fix>
</trkpt>
<trkpt lat="-27.2744386" lon="151.2900641">
  <ele>343.09</ele>
  <time>2026-09-01T19:53:05Z</time>
  <course>12.6</course>
  <speed>0.0</speed>
  <fix>3d</fix>
</trkpt>
<trkpt lat="-27.2744386" lon="151.2900641">
  <ele>343.12</ele>
  <time>2026-09-01T19:53:05Z</time>
  <course>10.55</course>
  <speed>0.0</speed>
  <fix>3d</fix>
</trkpt>
<trkpt lat="-27.2744386" lon="151.2900641">
  <ele>343.09</ele>
  <time>2026-09-01T19:53:05Z</time>
  <course>12.59</course>
  <speed>0.0</speed>
  <fix>3d</fix>
</trkpt>
<trkpt lat="-27.2744386" lon="151.2900641">
  <ele>343.01</ele>
  <time>2026-09-01T19:53:05Z</time>
  <course>10.55</course>
  <speed>0.0</speed>
  <fix>3d</fix>
</trkpt>
<trkpt lat="-27.2744386" lon="151.2900641">
  <ele>343.09</ele>
  <time>2026-09-01T19:53:05Z</time>
  <course>12.59</course>
  <speed>0.0</speed>
  <fix>3d</fix>
</trkpt>
<trkpt lat="-27.2744386" lon="151.2900641">
  <ele>343.16</ele>
  <time>2026-09-01T19:53:05Z</time>
  <course>10.55</course>
  <speed>0.0</speed>
  <fix>3d</fix>
</trkpt>
<trkpt lat="-27.2744386" lon="151.2900641">
  <ele>343.09</ele>
  <time>2026-09-01T19:53:05Z</time>
  <course>12.59</course>
  <speed>0.0</speed>
  <fix>3d</fix>
</trkpt>
<trkpt lat="-27.2744386" lon="151.2900641">
  <ele>343.25</ele>
  <time>2026-09-01T19:53:05Z</time>
  <course>10.55</course>
  <speed>0.0</speed>
  <fix>3d</fix>
</trkpt>
<trkpt lat="-27.2744386" lon="151.2900641">
  <ele>343.09</ele>
  <time>2026-09-01T19:53:05Z</time>
  <course>12.59</course>
  <speed>0.0</speed>
  <fix>3d</fix>
</trkpt>
<trkpt lat="-27.2744386" lon="151.2900641">
  <ele>343.28</ele>
  <time>2026-09-01T19:53:05Z</time>
  <course>10.55</course>
  <speed>0.0</speed>
  <fix>3d</fix>
</trkpt>
<trkpt lat="-27.2744386" lon="151.2900641">
  <ele>343.09</ele>
  <time>2026-09-01T19:53:05Z</time>
  <course>12.58</course>
  <speed>0.0</speed>
  <fix>3d</fix>
</trkpt>
<trkpt lat="-27.2744386" lon="151.2900641">
  <ele>343.12</ele>
  <time>2026-09-01T19:53:05Z</time>
  <course>10.55</course>
  <speed>0.0</speed>
  <fix>3d</fix>
</trkpt>
<trkpt lat="-27.2744386" lon="151.2900641">
  <ele>343.09</ele>
  <time>2026-09-01T19:53:05Z</time>
  <course>12.58</course>
  <speed>0.0</speed>
  <fix>3d</fix>
</trkpt>
<trkpt lat="-27.2744386" lon="151.2900641">
  <ele>343.09</ele>
  <time>2026-09-01T19:53:05Z</time>
  <course>10.55</course>
  <speed>0.0</speed>
  <fix>3d</fix>
</trkpt>
<trkpt lat="-27.2744386" lon="151.2900641">
  <ele>343.09</ele>
  <time>2026-09-01T19:53:05Z</time>
  <course>12.57</course>
  <speed>0.0</speed>
  <fix>3d</fix>
</trkpt>
<trkpt lat="-27.2744386" lon="151.2900641">
  <ele>343.19</ele>
  <time>2026-09-01T19:53:06Z</time>
  <course>10.56</course>
  <speed>0.0</speed>
  <fix>3d</fix>
</trkpt>
<trkpt lat="-27.2744386" lon="151.2900641">
  <ele>343.09</ele>
  <time>2026-09-01T19:53:06Z</time>
  <course>12.57</course>
  <speed>0.0</speed>
  <fix>3d</fix>
</trkpt>
<trkpt lat="-27.2744386" lon="151.2900641">
  <ele>343.08</ele>
  <time>2026-09-01T19:53:06Z</time>
  <course>10.56</course>
  <speed>0.0</speed>
  <fix>3d</fix>
</trkpt>
<trkpt lat="-27.2744386" lon="151.2900641">
  <ele>343.09</ele>
  <time>2026-09-01T19:53:06Z</time>
  <course>12.57</course>
  <speed>0.0</speed>
  <fix>3d</fix>
</trkpt>
<trkpt lat="-27.2744386" lon="151.2900641">
  <ele>343.1</ele>
  <time>2026-09-01T19:53:06Z</time>
  <course>10.56</course>
  <speed>0.0</speed>
  <fix>3d</fix>
</trkpt>
<trkpt lat="-27.2744386" lon="151.2900641">
  <ele>343.09</ele>
  <time>2026-09-01T19:53:06Z</time>
  <course>12.57</course>
  <speed>0.0</speed>
  <fix>3d</fix>
</trkpt>
<trkpt lat="-27.2744386" lon="151.2900641">
  <ele>343.2</ele>
  <time>2026-09-01T19:53:06Z</time>
  <course>10.56</course>
  <speed>0.0</speed>
  <fix>3d</fix>
</trkpt>
<trkpt lat="-27.2744386" lon="151.2900641">
  <ele>343.09</ele>
  <time>2026-09-01T19:53:06Z</time>
  <course>12.56</course>
  <speed>0.0</speed>
  <fix>3d</fix>
</trkpt>
<trkpt lat="-27.2744386" lon="151.2900641">
  <ele>343.21</ele>
  <time>2026-09-01T19:53:06Z</time>
  <course>10.56</course>
  <speed>0.0</speed>
  <fix>3d</fix>
</trkpt>
<trkpt lat="-27.2744386" lon="151.2900641">
  <ele>343.09</ele>
  <time>2026-09-01T19:53:06Z</time>
  <course>12.56</course>
  <speed>0.0</speed>
  <fix>3d</fix>
</trkpt>
<trkpt lat="-27.2744386" lon="151.2900641">
  <ele>342.97</ele>
  <time>2026-09-01T19:53:06Z</time>
  <course>10.56</course>
  <speed>0.0</speed>
  <fix>3d</fix>
</trkpt>
<trkpt lat="-27.2744386" lon="151.2900641">
  <ele>343.09</ele>
  <time>2026-09-01T19:53:06Z</time>
  <course>12.56</course>
  <speed>0.0</speed>
  <fix>3d</fix>
</trkpt>
<trkpt lat="-27.2744386" lon="151.2900641">
  <ele>343.15</ele>
  <time>2026-09-01T19:53:06Z</time>
  <course>10.56</course>
  <speed>0.0</speed>
  <fix>3d</fix>
</trkpt>
<trkpt lat="-27.2744386" lon="151.2900641">
  <ele>343.09</ele>
  <time>2026-09-01T19:53:06Z</time>
  <course>12.56</course>
  <speed>0.0</speed>
  <fix>3d</fix>
</trkpt>
<trkpt lat="-27.2744386" lon="151.2900641">
  <ele>343.27</ele>
  <time>2026-09-01T19:53:06Z</time>
  <course>10.56</course>
  <speed>0.0</speed>
  <fix>3d</fix>
</trkpt>
<trkpt lat="-27.2744386" lon="151.2900641">
  <ele>343.09</ele>
  <time>2026-09-01T19:53:06Z</time>
  <course>12.55</course>
  <speed>0.0</speed>
  <fix>3d</fix>
</trkpt>
<trkpt lat="-27.2744386" lon="151.2900641">
  <ele>343.29</ele>
  <time>2026-09-01T19:53:06Z</time>
  <course>10.55</course>
  <speed>0.0</speed>
  <fix>3d</fix>
</trkpt>
<trkpt lat="-27.2744386" lon="151.2900641">
  <ele>343.09</ele>
  <time>2026-09-01T19:53:06Z</time>
  <course>12.55</course>
  <speed>0.0</speed>
  <fix>3d</fix>
</trkpt>
<trkpt lat="-27.2744386" lon="151.2900641">
  <ele>343.31</ele>
  <time>2026-09-01T19:53:06Z</time>
  <course>10.55</course>
  <speed>0.0</speed>
  <fix>3d</fix>
</trkpt>
<trkpt lat="-27.2744386" lon="151.2900641">
  <ele>343.09</ele>
  <time>2026-09-01T19:53:06Z</time>
  <course>12.54</course>
  <speed>0.0</speed>
  <fix>3d</fix>
</trkpt>
<trkpt lat="-27.2744386" lon="151.2900641">
  <ele>342.96</ele>
  <time>2026-09-01T19:53:06Z</time>
  <course>10.55</course>
  <speed>0.0</speed>
  <fix>3d</fix>
</trkpt>
<trkpt lat="-27.2744386" lon="151.2900641">
  <ele>343.09</ele>
  <time>2026-09-01T19:53:06Z</time>
  <course>12.54</course>
  <speed>0.0</speed>
  <fix>3d</fix>
</trkpt>
<trkpt lat="-27.2744386" lon="151.2900641">
  <ele>342.97</ele>
  <time>2026-09-01T19:53:06Z</time>
  <course>10.55</course>
  <speed>0.0</speed>
  <fix>3d</fix>
</trkpt>
<trkpt lat="-27.2744386" lon="151.2900641">
  <ele>343.09</ele>
  <time>2026-09-01T19:53:06Z</time>
  <course>12.54</course>
  <speed>0.0</speed>
  <fix>3d</fix>
</trkpt>
<trkpt lat="-27.2744386" lon="151.2900641">
  <ele>342.83</ele>
  <time>2026-09-01T19:53:06Z</time>
  <course>10.55</course>
  <speed>0.0</speed>
  <fix>3d</fix>
</trkpt>
<trkpt lat="-27.2744386" lon="151.2900641">
  <ele>343.09</ele>
  <time>2026-09-01T19:53:06Z</time>
  <course>12.54</course>
  <speed>0.0</speed>
  <fix>3d</fix>
</trkpt>
<trkpt lat="-27.2744386" lon="151.2900641">
  <ele>342.84</ele>
  <time>2026-09-01T19:53:06Z</time>
  <course>10.54</course>
  <speed>0.0</speed>
  <fix>3d</fix>
</trkpt>
<trkpt lat="-27.2744386" lon="151.2900641">
  <ele>343.09</ele>
  <time>2026-09-01T19:53:06Z</time>
  <course>12.53</course>
  <speed>0.0</speed>
  <fix>3d</fix>
</trkpt>
<trkpt lat="-27.2744386" lon="151.2900641">
  <ele>342.74</ele>
  <time>2026-09-01T19:53:06Z</time>
  <course>10.54</course>
  <speed>0.0</speed>
  <fix>3d</fix>
</trkpt>
<trkpt lat="-27.2744386" lon="151.2900641">
  <ele>343.09</ele>
  <time>2026-09-01T19:53:06Z</time>
  <course>12.53</course>
  <speed>0.0</speed>
  <fix>3d</fix>
</trkpt>
<trkpt lat="-27.2744386" lon="151.2900641">
  <ele>343.02</ele>
  <time>2026-09-01T19:53:06Z</time>
  <course>10.54</course>
  <speed>0.0</speed>
  <fix>3d</fix>
</trkpt>
<trkpt lat="-27.2744386" lon="151.2900641">
  <ele>343.09</ele>
  <time>2026-09-01T19:53:06Z</time>
  <course>12.52</course>
  <speed>0.0</speed>
  <fix>3d</fix>
</trkpt>
<trkpt lat="-27.2744386" lon="151.2900641">
  <ele>342.79</ele>
  <time>2026-09-01T19:53:06Z</time>
  <course>10.54</course>
  <speed>0.0</speed>
  <fix>3d</fix>
</trkpt>
<trkpt lat="-27.2744386" lon="151.2900641">
  <ele>343.09</ele>
  <time>2026-09-01T19:53:06Z</time>
  <course>12.52</course>
  <speed>0.0</speed>
  <fix>3d</fix>
</trkpt>
<trkpt lat="-27.2744386" lon="151.2900641">
  <ele>343.05</ele>
  <time>2026-09-01T19:53:06Z</time>
  <course>10.53</course>
  <speed>0.0</speed>
  <fix>3d</fix>
</trkpt>
<trkpt lat="-27.2744386" lon="151.2900641">
  <ele>343.09</ele>
  <time>2026-09-01T19:53:06Z</time>
  <course>12.52</course>
  <speed>0.0</speed>
  <fix>3d</fix>
</trkpt>
<trkpt lat="-27.2744386" lon="151.2900641">
  <ele>343.02</ele>
  <time>2026-09-01T19:53:06Z</time>
  <course>10.53</course>
  <speed>0.0</speed>
  <fix>3d</fix>
</trkpt>
<trkpt lat="-27.2744386" lon="151.2900641">
  <ele>343.09</ele>
  <time>2026-09-01T19:53:06Z</time>
  <course>12.52</course>
  <speed>0.0</speed>
  <fix>3d</fix>
</trkpt>
<trkpt lat="-27.2744386" lon="151.2900641">
  <ele>342.87</ele>
  <time>2026-09-01T19:53:06Z</time>
  <course>10.53</course>
  <speed>0.0</speed>
  <fix>3d</fix>
</trkpt>
<trkpt lat="-27.2744386" lon="151.2900641">
  <ele>343.09</ele>
  <time>2026-09-01T19:53:06Z</time>
  <course>12.51</course>
  <speed>0.0</speed>
  <fix>3d</fix>
</trkpt>
<trkpt lat="-27.2744386" lon="151.2900641">
  <ele>342.83</ele>
  <time>2026-09-01T19:53:06Z</time>
  <course>10.53</course>
  <speed>0.0</speed>
  <fix>3d</fix>
</trkpt>
<trkpt lat="-27.2744386" lon="151.2900641">
  <ele>343.09</ele>
  <time>2026-09-01T19:53:06Z</time>
  <course>12.51</course>
  <speed>0.0</speed>
  <fix>3d</fix>
</trkpt>
<trkpt lat="-27.2744386" lon="151.2900641">
  <ele>342.86</ele>
  <time>2026-09-01T19:53:06Z</time>
  <course>10.53</course>
  <speed>0.0</speed>
  <fix>3d</fix>
</trkpt>
<trkpt lat="-27.2744386" lon="151.2900641">
  <ele>343.09</ele>
  <time>2026-09-01T19:53:06Z</time>
  <course>12.51</course>
  <speed>0.0</speed>
  <fix>3d</fix>
</trkpt>
<trkpt lat="-27.2744386" lon="151.2900641">
  <ele>342.77</ele>
  <time>2026-09-01T19:53:06Z</time>
  <course>10.52</course>
  <speed>0.0</speed>
  <fix>3d</fix>
</trkpt>
<trkpt lat="-27.2744386" lon="151.2900641">
  <ele>343.09</ele>
  <time>2026-09-01T19:53:06Z</time>
  <course>12.51</course>
  <speed>0.0</speed>
  <fix>3d</fix>
</trkpt>
<trkpt lat="-27.2744386" lon="151.2900641">
  <ele>342.8</ele>
  <time>2026-09-01T19:53:06Z</time>
  <course>10.52</course>
  <speed>0.0</speed>
  <fix>3d</fix>
</trkpt>
<trkpt lat="-27.2744386" lon="151.2900641">
  <ele>343.09</ele>
  <time>2026-09-01T19:53:06Z</time>
  <course>12.5</course>
  <speed>0.0</speed>
  <fix>3d</fix>
</trkpt>
<trkpt lat="-27.2744386" lon="151.2900641">
  <ele>342.9</ele>
  <time>2026-09-01T19:53:06Z</time>
  <course>10.52</course>
  <speed>0.0</speed>
  <fix>3d</fix>
</trkpt>
<trkpt lat="-27.2744386" lon="151.2900641">
  <ele>343.09</ele>
  <time>2026-09-01T19:53:06Z</time>
  <course>12.5</course>
  <speed>0.0</speed>
  <fix>3d</fix>
</trkpt>
<trkpt lat="-27.2744385" lon="151.2900641">
  <ele>342.82</ele>
  <time>2026-09-01T19:53:06Z</time>
  <course>10.52</course>
  <speed>0.0</speed>
  <fix>3d</fix>
</trkpt>
<trkpt lat="-27.2744385" lon="151.2900641">
  <ele>343.09</ele>
  <time>2026-09-01T19:53:06Z</time>
  <course>12.49</course>
  <speed>0.0</speed>
  <fix>3d</fix>
</trkpt>
<trkpt lat="-27.2744385" lon="151.2900641">
  <ele>342.79</ele>
  <time>2026-09-01T19:53:06Z</time>
  <course>10.51</course>
  <speed>0.0</speed>
  <fix>3d</fix>
</trkpt>
<trkpt lat="-27.2744385" lon="151.2900641">
  <ele>343.09</ele>
  <time>2026-09-01T19:53:06Z</time>
  <course>12.49</course>
  <speed>0.0</speed>
  <fix>3d</fix>
</trkpt>
<trkpt lat="-27.2744385" lon="151.2900641">
  <ele>342.79</ele>
  <time>2026-09-01T19:53:06Z</time>
  <course>10.51</course>
  <speed>0.0</speed>
  <fix>3d</fix>
</trkpt>
<trkpt lat="-27.2744385" lon="151.2900641">
  <ele>343.09</ele>
  <time>2026-09-01T19:53:06Z</time>
  <course>12.49</course>
  <speed>0.0</speed>
  <fix>3d</fix>
</trkpt>
<trkpt lat="-27.2744385" lon="151.2900641">
  <ele>342.83</ele>
  <time>2026-09-01T19:53:06Z</time>
  <course>10.51</course>
  <speed>0.0</speed>
  <fix>3d</fix>
</trkpt>
<trkpt lat="-27.2744385" lon="151.2900641">
  <ele>343.09</ele>
  <time>2026-09-01T19:53:06Z</time>
  <course>12.49</course>
  <speed>0.0</speed>
  <fix>3d</fix>
</trkpt>
<trkpt lat="-27.2744385" lon="151.2900641">
  <ele>343.04</ele>
  <time>2026-09-01T19:53:06Z</time>
  <course>10.51</course>
  <speed>0.0</speed>
  <fix>3d</fix>
</trkpt>
<trkpt lat="-27.2744385" lon="151.2900641">
  <ele>343.09</ele>
  <time>2026-09-01T19:53:06Z</time>
  <course>12.48</course>
  <speed>0.0</speed>
  <fix>3d</fix>
</trkpt>
<trkpt lat="-27.2744385" lon="151.2900641">
  <ele>342.99</ele>
  <time>2026-09-01T19:53:06Z</time>
  <course>10.51</course>
  <speed>0.0</speed>
  <fix>3d</fix>
</trkpt>
<trkpt lat="-27.2744385" lon="151.2900641">
  <ele>343.09</ele>
  <time>2026-09-01T19:53:06Z</time>
  <course>12.48</course>
  <speed>0.0</speed>
  <fix>3d</fix>
</trkpt>
<trkpt lat="-27.2744385" lon="151.2900641">
  <ele>342.99</ele>
  <time>2026-09-01T19:53:06Z</time>
  <course>10.5</course>
  <speed>0.0</speed>
  <fix>3d</fix>
</trkpt>
<trkpt lat="-27.2744385" lon="151.2900641">
  <ele>343.09</ele>
  <time>2026-09-01T19:53:06Z</time>
  <course>12.47</course>
  <speed>0.0</speed>
  <fix>3d</fix>
</trkpt>
<trkpt lat="-27.2744385" lon="151.2900641">
  <ele>342.94</ele>
  <time>2026-09-01T19:53:06Z</time>
  <course>10.5</course>
  <speed>0.0</speed>
  <fix>3d</fix>
</trkpt>
<trkpt lat="-27.2744385" lon="151.2900641">
  <ele>343.09</ele>
  <time>2026-09-01T19:53:06Z</time>
  <course>12.47</course>
  <speed>0.0</speed>
  <fix>3d</fix>
</trkpt>
<trkpt lat="-27.2744385" lon="151.2900641">
  <ele>342.99</ele>
  <time>2026-09-01T19:53:06Z</time>
  <course>10.5</course>
  <speed>0.0</speed>
  <fix>3d</fix>
</trkpt>
<trkpt lat="-27.2744385" lon="151.2900641">
  <ele>343.09</ele>
  <time>2026-09-01T19:53:06Z</time>
  <course>12.47</course>
  <speed>0.0</speed>
  <fix>3d</fix>
</trkpt>
<trkpt lat="-27.2744385" lon="151.2900641">
  <ele>343.01</ele>
  <time>2026-09-01T19:53:06Z</time>
  <course>10.5</course>
  <speed>0.0</speed>
  <fix>3d</fix>
</trkpt>
<trkpt lat="-27.2744385" lon="151.2900641">
  <ele>343.09</ele>
  <time>2026-09-01T19:53:06Z</time>
  <course>12.47</course>
  <speed>0.0</speed>
  <fix>3d</fix>
</trkpt>
<trkpt lat="-27.2744385" lon="151.2900641">
  <ele>342.79</ele>
  <time>2026-09-01T19:53:06Z</time>
  <course>10.49</course>
  <speed>0.0</speed>
  <fix>3d</fix>
</trkpt>
<trkpt lat="-27.2744385" lon="151.2900641">
  <ele>343.09</ele>
  <time>2026-09-01T19:53:06Z</time>
  <course>12.46</course>
  <speed>0.0</speed>
  <fix>3d</fix>
</trkpt>
<trkpt lat="-27.2744385" lon="151.2900641">
  <ele>342.92</ele>
  <time>2026-09-01T19:53:06Z</time>
  <course>10.49</course>
  <speed>0.0</speed>
  <fix>3d</fix>
</trkpt>
<trkpt lat="-27.2744385" lon="151.2900641">
  <ele>343.09</ele>
  <time>2026-09-01T19:53:06Z</time>
  <course>12.46</course>
  <speed>0.0</speed>
  <fix>3d</fix>
</trkpt>
<trkpt lat="-27.2744385" lon="151.2900641">
  <ele>342.7</ele>
  <time>2026-09-01T19:53:06Z</time>
  <course>10.49</course>
  <speed>0.0</speed>
  <fix>3d</fix>
</trkpt>
<trkpt lat="-27.2744385" lon="151.2900641">
  <ele>343.09</ele>
  <time>2026-09-01T19:53:06Z</time>
  <course>12.46</course>
  <speed>0.0</speed>
  <fix>3d</fix>
</trkpt>
<trkpt lat="-27.2744385" lon="151.2900641">
  <ele>342.98</ele>
  <time>2026-09-01T19:53:06Z</time>
  <course>10.49</course>
  <speed>0.0</speed>
  <fix>3d</fix>
</trkpt>
<trkpt lat="-27.2744385" lon="151.2900641">
  <ele>343.09</ele>
  <time>2026-09-01T19:53:06Z</time>
  <course>12.46</course>
  <speed>0.0</speed>
  <fix>3d</fix>
</trkpt>
<trkpt lat="-27.2744385" lon="151.2900641">
  <ele>342.89</ele>
  <time>2026-09-01T19:53:06Z</time>
  <course>10.49</course>
  <speed>0.0</speed>
  <fix>3d</fix>
</trkpt>
<trkpt lat="-27.2744385" lon="151.2900641">
  <ele>343.09</ele>
  <time>2026-09-01T19:53:06Z</time>
  <course>12.45</course>
  <speed>0.0</speed>
  <fix>3d</fix>
</trkpt>
<trkpt lat="-27.2744385" lon="151.2900641">
  <ele>342.96</ele>
  <time>2026-09-01T19:53:06Z</time>
  <course>10.48</course>
  <speed>0.0</speed>
  <fix>3d</fix>
</trkpt>
<trkpt lat="-27.2744385" lon="151.2900641">
  <ele>343.09</ele>
  <time>2026-09-01T19:53:06Z</time>
  <course>12.45</course>
  <speed>0.0</speed>
  <fix>3d</fix>
</trkpt>
<trkpt lat="-27.2744385" lon="151.2900641">
  <ele>342.7</ele>
  <time>2026-09-01T19:53:06Z</time>
  <course>10.48</course>
  <speed>0.0</speed>
  <fix>3d</fix>
</trkpt>
<trkpt lat="-27.2744385" lon="151.2900641">
  <ele>343.09</ele>
  <time>2026-09-01T19:53:06Z</time>
  <course>12.44</course>
  <speed>0.0</speed>
  <fix>3d</fix>
</trkpt>
<trkpt lat="-27.2744385" lon="151.2900641">
  <ele>342.96</ele>
  <time>2026-09-01T19:53:06Z</time>
  <course>10.48</course>
  <speed>0.0</speed>
  <fix>3d</fix>
</trkpt>
<trkpt lat="-27.2744385" lon="151.2900641">
  <ele>343.09</ele>
  <time>2026-09-01T19:53:06Z</time>
  <course>12.44</course>
  <speed>0.0</speed>
  <fix>3d</fix>
</trkpt>
<trkpt lat="-27.2744385" lon="151.2900641">
  <ele>342.99</ele>
  <time>2026-09-01T19:53:06Z</time>
  <course>10.48</course>
  <speed>0.0</speed>
  <fix>3d</fix>
</trkpt>
<trkpt lat="-27.2744385" lon="151.2900641">
  <ele>343.09</ele>
  <time>2026-09-01T19:53:06Z</time>
  <course>12.44</course>
  <speed>0.0</speed>
  <fix>3d</fix>
</trkpt>
<trkpt lat="-27.2744385" lon="151.2900641">
  <ele>342.98</ele>
  <time>2026-09-01T19:53:06Z</time>
  <course>10.47</course>
  <speed>0.0</speed>
  <fix>3d</fix>
</trkpt>
<trkpt lat="-27.2744385" lon="151.2900641">
  <ele>343.09</ele>
  <time>2026-09-01T19:53:06Z</time>
  <course>12.44</course>
  <speed>0.0</speed>
  <fix>3d</fix>
</trkpt>
<trkpt lat="-27.2744385" lon="151.2900641">
  <ele>343.08</ele>
  <time>2026-09-01T19:53:06Z</time>
  <course>10.47</course>
  <speed>0.0</speed>
  <fix>3d</fix>
</trkpt>
<trkpt lat="-27.2744385" lon="151.2900641">
  <ele>343.09</ele>
  <time>2026-09-01T19:53:06Z</time>
  <course>12.43</course>
  <speed>0.0</speed>
  <fix>3d</fix>
</trkpt>
<trkpt lat="-27.2744385" lon="151.2900641">
  <ele>342.82</ele>
  <time>2026-09-01T19:53:06Z</time>
  <course>10.47</course>
  <speed>0.0</speed>
  <fix>3d</fix>
</trkpt>
<trkpt lat="-27.2744385" lon="151.2900641">
  <ele>343.09</ele>
  <time>2026-09-01T19:53:06Z</time>
  <course>12.43</course>
  <speed>0.0</speed>
  <fix>3d</fix>
</trkpt>
<trkpt lat="-27.2744385" lon="151.2900641">
  <ele>342.78</ele>
  <time>2026-09-01T19:53:06Z</time>
  <course>10.47</course>
  <speed>0.0</speed>
  <fix>3d</fix>
</trkpt>
<trkpt lat="-27.2744385" lon="151.2900641">
  <ele>343.09</ele>
  <time>2026-09-01T19:53:06Z</time>
  <course>12.42</course>
  <speed>0.0</speed>
  <fix>3d</fix>
</trkpt>
<trkpt lat="-27.2744385" lon="151.2900641">
  <ele>342.98</ele>
  <time>2026-09-01T19:53:06Z</time>
  <course>10.47</course>
  <speed>0.0</speed>
  <fix>3d</fix>
</trkpt>
<trkpt lat="-27.2744385" lon="151.2900641">
  <ele>343.09</ele>
  <time>2026-09-01T19:53:06Z</time>
  <course>12.42</course>
  <speed>0.0</speed>
  <fix>3d</fix>
</trkpt>
<trkpt lat="-27.2744385" lon="151.2900641">
  <ele>342.9</ele>
  <time>2026-09-01T19:53:06Z</time>
  <course>10.46</course>
  <speed>0.0</speed>
  <fix>3d</fix>
</trkpt>
<trkpt lat="-27.2744385" lon="151.2900641">
  <ele>343.09</ele>
  <time>2026-09-01T19:53:06Z</time>
  <course>12.42</course>
  <speed>0.0</speed>
  <fix>3d</fix>
</trkpt>
<trkpt lat="-27.2744385" lon="151.2900641">
  <ele>343.0</ele>
  <time>2026-09-01T19:53:06Z</time>
  <course>10.46</course>
  <speed>0.0</speed>
  <fix>3d</fix>
</trkpt>
<trkpt lat="-27.2744385" lon="151.2900641">
  <ele>343.09</ele>
  <time>2026-09-01T19:53:06Z</time>
  <course>12.42</course>
  <speed>0.0</speed>
  <fix>3d</fix>
</trkpt>
<trkpt lat="-27.2744385" lon="151.2900641">
  <ele>342.9</ele>
  <time>2026-09-01T19:53:06Z</time>
  <course>10.46</course>
  <speed>0.0</speed>
  <fix>3d</fix>
</trkpt>
<trkpt lat="-27.2744385" lon="151.2900641">
  <ele>343.09</ele>
  <time>2026-09-01T19:53:06Z</time>
  <course>12.41</course>
  <speed>0.0</speed>
  <fix>3d</fix>
</trkpt>
<trkpt lat="-27.2744385" lon="151.2900641">
  <ele>342.92</ele>
  <time>2026-09-01T19:53:06Z</time>
  <course>10.46</course>
  <speed>0.0</speed>
  <fix>3d</fix>
</trkpt>
<trkpt lat="-27.2744385" lon="151.2900641">
  <ele>343.09</ele>
  <time>2026-09-01T19:53:06Z</time>
  <course>12.41</course>
  <speed>0.0</speed>
  <fix>3d</fix>
</trkpt>
<trkpt lat="-27.2744385" lon="151.2900641">
  <ele>342.84</ele>
  <time>2026-09-01T19:53:06Z</time>
  <course>10.45</course>
  <speed>0.0</speed>
  <fix>3d</fix>
</trkpt>
<trkpt lat="-27.2744385" lon="151.2900641">
  <ele>343.09</ele>
  <time>2026-09-01T19:53:06Z</time>
  <course>12.44</course>
  <speed>0.0</speed>
  <fix>3d</fix>
</trkpt>
<trkpt lat="-27.2744385" lon="151.2900641">
  <ele>342.74</ele>
  <time>2026-09-01T19:53:06Z</time>
  <course>10.45</course>
  <speed>0.0</speed>
  <fix>3d</fix>
</trkpt>
<trkpt lat="-27.2744385" lon="151.2900641">
  <ele>343.09</ele>
  <time>2026-09-01T19:53:06Z</time>
  <course>12.44</course>
  <speed>0.0</speed>
  <fix>3d</fix>
</trkpt>
<trkpt lat="-27.2744385" lon="151.2900641">
  <ele>342.9</ele>
  <time>2026-09-01T19:53:06Z</time>
  <course>10.45</course>
  <speed>0.0</speed>
  <fix>3d</fix>
</trkpt>
<trkpt lat="-27.2744385" lon="151.2900641">
  <ele>343.1</ele>
  <time>2026-09-01T19:53:06Z</time>
  <course>12.49</course>
  <speed>0.0</speed>
  <fix>3d</fix>
</trkpt>
<trkpt lat="-27.2744385" lon="151.2900641">
  <ele>342.88</ele>
  <time>2026-09-01T19:53:06Z</time>
  <course>10.45</course>
  <speed>0.0</speed>
  <fix>3d</fix>
</trkpt>
<trkpt lat="-27.2744385" lon="151.2900641">
  <ele>343.1</ele>
  <time>2026-09-01T19:53:06Z</time>
  <course>12.49</course>
  <speed>0.0</speed>
  <fix>3d</fix>
</trkpt>
<trkpt lat="-27.2744385" lon="151.2900641">
  <ele>342.92</ele>
  <time>2026-09-01T19:53:06Z</time>
  <course>10.44</course>
  <speed>0.0</speed>
  <fix>3d</fix>
</trkpt>
<trkpt lat="-27.2744385" lon="151.2900641">
  <ele>343.1</ele>
  <time>2026-09-01T19:53:06Z</time>
  <course>12.44</course>
  <speed>0.0</speed>
  <fix>3d</fix>
</trkpt>
<trkpt lat="-27.2744385" lon="151.2900641">
  <ele>343.02</ele>
  <time>2026-09-01T19:53:06Z</time>
  <course>10.44</course>
  <speed>0.0</speed>
  <fix>3d</fix>
</trkpt>
<trkpt lat="-27.2744385" lon="151.2900641">
  <ele>343.1</ele>
  <time>2026-09-01T19:53:06Z</time>
  <course>12.44</course>
  <speed>0.0</speed>
  <fix>3d</fix>
</trkpt>
<trkpt lat="-27.2744385" lon="151.2900641">
  <ele>342.91</ele>
  <time>2026-09-01T19:53:06Z</time>
  <course>10.44</course>
  <speed>0.0</speed>
  <fix>3d</fix>
</trkpt>
<trkpt lat="-27.2744385" lon="151.2900641">
  <ele>343.1</ele>
  <time>2026-09-01T19:53:06Z</time>
  <course>12.36</course>
  <speed>0.0</speed>
  <fix>3d</fix>
</trkpt>
<trkpt lat="-27.2744385" lon="151.2900641">
  <ele>342.72</ele>
  <time>2026-09-01T19:53:06Z</time>
  <course>10.43</course>
  <speed>0.0</speed>
  <fix>3d</fix>
</trkpt>
<trkpt lat="-27.2744385" lon="151.2900641">
  <ele>343.1</ele>
  <time>2026-09-01T19:53:06Z</time>
  <course>12.36</course>
  <speed>0.0</speed>
  <fix>3d</fix>
</trkpt>
<trkpt lat="-27.2744385" lon="151.2900641">
  <ele>343.06</ele>
  <time>2026-09-01T19:53:06Z</time>
  <course>10.43</course>
  <speed>0.0</speed>
  <fix>3d</fix>
</trkpt>
<trkpt lat="-27.2744385" lon="151.2900641">
  <ele>343.1</ele>
  <time>2026-09-01T19:53:06Z</time>
  <course>12.37</course>
  <speed>0.0</speed>
  <fix>3d</fix>
</trkpt>
<trkpt lat="-27.2744385" lon="151.2900641">
  <ele>343.01</ele>
  <time>2026-09-01T19:53:06Z</time>
  <course>10.42</course>
  <speed>0.0</speed>
  <fix>3d</fix>
</trkpt>
<trkpt lat="-27.2744385" lon="151.2900641">
  <ele>343.1</ele>
  <time>2026-09-01T19:53:06Z</time>
  <course>12.37</course>
  <speed>0.0</speed>
  <fix>3d</fix>
</trkpt>
<trkpt lat="-27.2744385" lon="151.2900641">
  <ele>342.8</ele>
  <time>2026-09-01T19:53:06Z</time>
  <course>10.41</course>
  <speed>0.0</speed>
  <fix>3d</fix>
</trkpt>
<trkpt lat="-27.2744385" lon="151.2900641">
  <ele>343.1</ele>
  <time>2026-09-01T19:53:06Z</time>
  <course>12.38</course>
  <speed>0.0</speed>
  <fix>3d</fix>
</trkpt>
<trkpt lat="-27.2744385" lon="151.2900641">
  <ele>342.86</ele>
  <time>2026-09-01T19:53:06Z</time>
  <course>10.41</course>
  <speed>0.0</speed>
  <fix>3d</fix>
</trkpt>
<trkpt lat="-27.2744385" lon="151.2900641">
  <ele>343.1</ele>
  <time>2026-09-01T19:53:06Z</time>
  <course>12.38</course>
  <speed>0.0</speed>
  <fix>3d</fix>
</trkpt>
<trkpt lat="-27.2744385" lon="151.2900641">
  <ele>342.97</ele>
  <time>2026-09-01T19:53:06Z</time>
  <course>10.4</course>
  <speed>0.0</speed>
  <fix>3d</fix>
</trkpt>
<trkpt lat="-27.2744385" lon="151.2900641">
  <ele>343.1</ele>
  <time>2026-09-01T19:53:06Z</time>
  <course>12.37</course>
  <speed>0.0</speed>
  <fix>3d</fix>
</trkpt>
<trkpt lat="-27.2744385" lon="151.2900641">
  <ele>342.83</ele>
  <time>2026-09-01T19:53:06Z</time>
  <course>10.4</course>
  <speed>0.0</speed>
  <fix>3d</fix>
</trkpt>
<trkpt lat="-27.2744385" lon="151.2900641">
  <ele>343.1</ele>
  <time>2026-09-01T19:53:06Z</time>
  <course>12.37</course>
  <speed>0.0</speed>
  <fix>3d</fix>
</trkpt>
<trkpt lat="-27.2744385" lon="151.2900641">
  <ele>342.76</ele>
  <time>2026-09-01T19:53:06Z</time>
  <course>10.39</course>
  <speed>0.0</speed>
  <fix>3d</fix>
</trkpt>
<trkpt lat="-27.2744385" lon="151.2900641">
  <ele>343.1</ele>
  <time>2026-09-01T19:53:06Z</time>
  <course>12.36</course>
  <speed>0.0</speed>
  <fix>3d</fix>
</trkpt>
<trkpt lat="-27.2744385" lon="151.2900641">
  <ele>343.09</ele>
  <time>2026-09-01T19:53:06Z</time>
  <course>10.39</course>
  <speed>0.0</speed>
  <fix>3d</fix>
</trkpt>
<trkpt lat="-27.2744385" lon="151.2900641">
  <ele>343.1</ele>
  <time>2026-09-01T19:53:06Z</time>
  <course>12.36</course>
  <speed>0.0</speed>
  <fix>3d</fix>
</trkpt>
<trkpt lat="-27.2744385" lon="151.2900641">
  <ele>343.05</ele>
  <time>2026-09-01T19:53:06Z</time>
  <course>10.38</course>
  <speed>0.0</speed>
  <fix>3d</fix>
</trkpt>
<trkpt lat="-27.2744385" lon="151.2900641">
  <ele>343.1</ele>
  <time>2026-09-01T19:53:06Z</time>
  <course>12.35</course>
  <speed>0.0</speed>
  <fix>3d</fix>
</trkpt>
<trkpt lat="-27.2744385" lon="151.2900641">
  <ele>342.94</ele>
  <time>2026-09-01T19:53:06Z</time>
  <course>10.38</course>
  <speed>0.0</speed>
  <fix>3d</fix>
</trkpt>
<trkpt lat="-27.2744385" lon="151.2900641">
  <ele>343.1</ele>
  <time>2026-09-01T19:53:06Z</time>
  <course>12.35</course>
  <speed>0.0</speed>
  <fix>3d</fix>
</trkpt>
<trkpt lat="-27.2744385" lon="151.2900641">
  <ele>342.93</ele>
  <time>2026-09-01T19:53:06Z</time>
  <course>10.37</course>
  <speed>0.0</speed>
  <fix>3d</fix>
</trkpt>
<trkpt lat="-27.2744385" lon="151.2900641">
  <ele>343.1</ele>
  <time>2026-09-01T19:53:06Z</time>
  <course>12.34</course>
  <speed>0.0</speed>
  <fix>3d</fix>
</trkpt>
<trkpt lat="-27.2744385" lon="151.2900641">
  <ele>343.08</ele>
  <time>2026-09-01T19:53:06Z</time>
  <course>10.37</course>
  <speed>0.0</speed>
  <fix>3d</fix>
</trkpt>
<trkpt lat="-27.2744385" lon="151.2900641">
  <ele>343.1</ele>
  <time>2026-09-01T19:53:06Z</time>
  <course>12.34</course>
  <speed>0.0</speed>
  <fix>3d</fix>
</trkpt>
<trkpt lat="-27.2744385" lon="151.2900641">
  <ele>342.85</ele>
  <time>2026-09-01T19:53:06Z</time>
  <course>10.36</course>
  <speed>0.0</speed>
  <fix>3d</fix>
</trkpt>
<trkpt lat="-27.2744385" lon="151.2900641">
  <ele>343.1</ele>
  <time>2026-09-01T19:53:06Z</time>
  <course>12.34</course>
  <speed>0.0</speed>
  <fix>3d</fix>
</trkpt>
<trkpt lat="-27.2744385" lon="151.2900641">
  <ele>342.86</ele>
  <time>2026-09-01T19:53:06Z</time>
  <course>10.36</course>
  <speed>0.0</speed>
  <fix>3d</fix>
</trkpt>
<trkpt lat="-27.2744385" lon="151.2900641">
  <ele>343.1</ele>
  <time>2026-09-01T19:53:06Z</time>
  <course>12.34</course>
  <speed>0.0</speed>
  <fix>3d</fix>
</trkpt>
<trkpt lat="-27.2744385" lon="151.2900641">
  <ele>342.83</ele>
  <time>2026-09-01T19:53:06Z</time>
  <course>10.35</course>
  <speed>0.0</speed>
  <fix>3d</fix>
</trkpt>
<trkpt lat="-27.2744385" lon="151.2900641">
  <ele>343.1</ele>
  <time>2026-09-01T19:53:06Z</time>
  <course>12.33</course>
  <speed>0.0</speed>
  <fix>3d</fix>
</trkpt>
<trkpt lat="-27.2744385" lon="151.2900641">
  <ele>343.14</ele>
  <time>2026-09-01T19:53:06Z</time>
  <course>10.35</course>
  <speed>0.0</speed>
  <fix>3d</fix>
</trkpt>
<trkpt lat="-27.2744385" lon="151.2900641">
  <ele>343.1</ele>
  <time>2026-09-01T19:53:06Z</time>
  <course>12.33</course>
  <speed>0.0</speed>
  <fix>3d</fix>
</trkpt>
<trkpt lat="-27.2744385" lon="151.2900641">
  <ele>343.03</ele>
  <time>2026-09-01T19:53:06Z</time>
  <course>10.34</course>
  <speed>0.0</speed>
  <fix>3d</fix>
</trkpt>
<trkpt lat="-27.2744385" lon="151.2900641">
  <ele>343.1</ele>
  <time>2026-09-01T19:53:06Z</time>
  <course>12.32</course>
  <speed>0.0</speed>
  <fix>3d</fix>
</trkpt>
<trkpt lat="-27.2744385" lon="151.2900641">
  <ele>342.82</ele>
  <time>2026-09-01T19:53:06Z</time>
  <course>10.34</course>
  <speed>0.0</speed>
  <fix>3d</fix>
</trkpt>
<trkpt lat="-27.2744385" lon="151.2900641">
  <ele>343.1</ele>
  <time>2026-09-01T19:53:06Z</time>
  <course>12.32</course>
  <speed>0.0</speed>
  <fix>3d</fix>
</trkpt>
<trkpt lat="-27.2744385" lon="151.2900641">
  <ele>342.93</ele>
  <time>2026-09-01T19:53:06Z</time>
  <course>10.33</course>
  <speed>0.0</speed>
  <fix>3d</fix>
</trkpt>
<trkpt lat="-27.2744385" lon="151.2900641">
  <ele>343.1</ele>
  <time>2026-09-01T19:53:06Z</time>
  <course>12.32</course>
  <speed>0.0</speed>
  <fix>3d</fix>
</trkpt>
<trkpt lat="-27.2744385" lon="151.2900641">
  <ele>342.82</ele>
  <time>2026-09-01T19:53:06Z</time>
  <course>10.33</course>
  <speed>0.0</speed>
  <fix>3d</fix>
</trkpt>
<trkpt lat="-27.2744385" lon="151.2900641">
  <ele>343.1</ele>
  <time>2026-09-01T19:53:06Z</time>
  <course>12.32</course>
  <speed>0.0</speed>
  <fix>3d</fix>
</trkpt>
<trkpt lat="-27.2744385" lon="151.2900641">
  <ele>342.83</ele>
  <time>2026-09-01T19:53:06Z</time>
  <course>10.32</course>
  <speed>0.0</speed>
  <fix>3d</fix>
</trkpt>
<trkpt lat="-27.2744385" lon="151.2900641">
  <ele>343.1</ele>
  <time>2026-09-01T19:53:06Z</time>
  <course>12.31</course>
  <speed>0.0</speed>
  <fix>3d</fix>
</trkpt>
<trkpt lat="-27.2744385" lon="151.2900641">
  <ele>342.9</ele>
  <time>2026-09-01T19:53:06Z</time>
  <course>10.32</course>
  <speed>0.0</speed>
  <fix>3d</fix>
</trkpt>
<trkpt lat="-27.2744385" lon="151.2900641">
  <ele>343.1</ele>
  <time>2026-09-01T19:53:06Z</time>
  <course>12.31</course>
  <speed>0.0</speed>
  <fix>3d</fix>
</trkpt>
<trkpt lat="-27.2744384" lon="151.2900641">
  <ele>342.83</ele>
  <time>2026-09-01T19:53:06Z</time>
  <course>10.31</course>
  <speed>0.0</speed>
  <fix>3d</fix>
</trkpt>
<trkpt lat="-27.2744384" lon="151.2900641">
  <ele>343.1</ele>
  <time>2026-09-01T19:53:06Z</time>
  <course>12.31</course>
  <speed>0.0</speed>
  <fix>3d</fix>
</trkpt>
<trkpt lat="-27.2744384" lon="151.2900641">
  <ele>343.04</ele>
  <time>2026-09-01T19:53:06Z</time>
  <course>10.31</course>
  <speed>0.0</speed>
  <fix>3d</fix>
</trkpt>
<trkpt lat="-27.2744384" lon="151.2900641">
  <ele>343.1</ele>
  <time>2026-09-01T19:53:06Z</time>
  <course>12.31</course>
  <speed>0.0</speed>
  <fix>3d</fix>
</trkpt>
<trkpt lat="-27.2744384" lon="151.2900641">
  <ele>342.98</ele>
  <time>2026-09-01T19:53:06Z</time>
  <course>10.3</course>
  <speed>0.0</speed>
  <fix>3d</fix>
</trkpt>
<trkpt lat="-27.2744384" lon="151.2900641">
  <ele>343.1</ele>
  <time>2026-09-01T19:53:06Z</time>
  <course>12.3</course>
  <speed>0.0</speed>
  <fix>3d</fix>
</trkpt>
<trkpt lat="-27.2744384" lon="151.2900641">
  <ele>342.99</ele>
  <time>2026-09-01T19:53:06Z</time>
  <course>10.3</course>
  <speed>0.0</speed>
  <fix>3d</fix>
</trkpt>
<trkpt lat="-27.2744384" lon="151.2900641">
  <ele>343.1</ele>
  <time>2026-09-01T19:53:06Z</time>
  <course>12.3</course>
  <speed>0.0</speed>
  <fix>3d</fix>
</trkpt>
<trkpt lat="-27.2744384" lon="151.2900641">
  <ele>342.98</ele>
  <time>2026-09-01T19:53:06Z</time>
  <course>10.29</course>
  <speed>0.0</speed>
  <fix>3d</fix>
</trkpt>
<trkpt lat="-27.2744384" lon="151.2900641">
  <ele>343.1</ele>
  <time>2026-09-01T19:53:06Z</time>
  <course>12.29</course>
  <speed>0.0</speed>
  <fix>3d</fix>
</trkpt>
<trkpt lat="-27.2744384" lon="151.2900641">
  <ele>342.9</ele>
  <time>2026-09-01T19:53:06Z</time>
  <course>10.29</course>
  <speed>0.0</speed>
  <fix>3d</fix>
</trkpt>
<trkpt lat="-27.2744384" lon="151.2900641">
  <ele>343.1</ele>
  <time>2026-09-01T19:53:06Z</time>
  <course>12.29</course>
  <speed>0.0</speed>
  <fix>3d</fix>
</trkpt>
<trkpt lat="-27.2744384" lon="151.2900641">
  <ele>343.03</ele>
  <time>2026-09-01T19:53:06Z</time>
  <course>10.28</course>
  <speed>0.0</speed>
  <fix>3d</fix>
</trkpt>
<trkpt lat="-27.2744384" lon="151.2900641">
  <ele>343.1</ele>
  <time>2026-09-01T19:53:06Z</time>
  <course>12.29</course>
  <speed>0.0</speed>
  <fix>3d</fix>
</trkpt>
<trkpt lat="-27.2744384" lon="151.2900641">
  <ele>343.11</ele>
  <time>2026-09-01T19:53:06Z</time>
  <course>10.28</course>
  <speed>0.0</speed>
  <fix>3d</fix>
</trkpt>
<trkpt lat="-27.2744384" lon="151.2900641">
  <ele>343.1</ele>
  <time>2026-09-01T19:53:06Z</time>
  <course>12.29</course>
  <speed>0.0</speed>
  <fix>3d</fix>
</trkpt>
<trkpt lat="-27.2744384" lon="151.2900641">
  <ele>342.98</ele>
  <time>2026-09-01T19:53:06Z</time>
  <course>10.28</course>
  <speed>0.0</speed>
  <fix>3d</fix>
</trkpt>
<trkpt lat="-27.2744384" lon="151.2900641">
  <ele>343.1</ele>
  <time>2026-09-01T19:53:06Z</time>
  <course>12.28</course>
  <speed>0.0</speed>
  <fix>3d</fix>
</trkpt>
<trkpt lat="-27.2744384" lon="151.2900641">
  <ele>343.06</ele>
  <time>2026-09-01T19:53:06Z</time>
  <course>10.27</course>
  <speed>0.0</speed>
  <fix>3d</fix>
</trkpt>
<trkpt lat="-27.2744384" lon="151.2900641">
  <ele>343.1</ele>
  <time>2026-09-01T19:53:06Z</time>
  <course>12.28</course>
  <speed>0.0</speed>
  <fix>3d</fix>
</trkpt>
<trkpt lat="-27.2744384" lon="151.2900641">
  <ele>342.9</ele>
  <time>2026-09-01T19:53:06Z</time>
  <course>10.27</course>
  <speed>0.0</speed>
  <fix>3d</fix>
</trkpt>
<trkpt lat="-27.2744384" lon="151.2900641">
  <ele>343.1</ele>
  <time>2026-09-01T19:53:06Z</time>
  <course>12.27</course>
  <speed>0.0</speed>
  <fix>3d</fix>
</trkpt>
<trkpt lat="-27.2744384" lon="151.2900641">
  <ele>342.79</ele>
  <time>2026-09-01T19:53:06Z</time>
  <course>10.26</course>
  <speed>0.0</speed>
  <fix>3d</fix>
</trkpt>
<trkpt lat="-27.2744384" lon="151.2900641">
  <ele>343.1</ele>
  <time>2026-09-01T19:53:06Z</time>
  <course>12.27</course>
  <speed>0.0</speed>
  <fix>3d</fix>
</trkpt>
<trkpt lat="-27.2744384" lon="151.2900641">
  <ele>343.08</ele>
  <time>2026-09-01T19:53:06Z</time>
  <course>10.26</course>
  <speed>0.0</speed>
  <fix>3d</fix>
</trkpt>
<trkpt lat="-27.2744384" lon="151.2900641">
  <ele>343.1</ele>
  <time>2026-09-01T19:53:06Z</time>
  <course>12.27</course>
  <speed>0.0</speed>
  <fix>3d</fix>
</trkpt>
<trkpt lat="-27.2744384" lon="151.2900641">
  <ele>342.99</ele>
  <time>2026-09-01T19:53:06Z</time>
  <course>10.25</course>
  <speed>0.0</speed>
  <fix>3d</fix>
</trkpt>
<trkpt lat="-27.2744384" lon="151.2900641">
  <ele>343.1</ele>
  <time>2026-09-01T19:53:06Z</time>
  <course>12.27</course>
  <speed>0.0</speed>
  <fix>3d</fix>
</trkpt>
<trkpt lat="-27.2744384" lon="151.2900641">
  <ele>342.95</ele>
  <time>2026-09-01T19:53:06Z</time>
  <course>10.25</course>
  <speed>0.0</speed>
  <fix>3d</fix>
</trkpt>
<trkpt lat="-27.2744384" lon="151.2900641">
  <ele>343.1</ele>
  <time>2026-09-01T19:53:06Z</time>
  <course>12.26</course>
  <speed>0.0</speed>
  <fix>3d</fix>
</trkpt>
<trkpt lat="-27.2744384" lon="151.2900641">
  <ele>342.8</ele>
  <time>2026-09-01T19:53:06Z</time>
  <course>10.24</course>
  <speed>0.0</speed>
  <fix>3d</fix>
</trkpt>
<trkpt lat="-27.2744384" lon="151.2900641">
  <ele>343.1</ele>
  <time>2026-09-01T19:53:06Z</time>
  <course>12.26</course>
  <speed>0.0</speed>
  <fix>3d</fix>
</trkpt>
<trkpt lat="-27.2744384" lon="151.2900641">
  <ele>343.01</ele>
  <time>2026-09-01T19:53:06Z</time>
  <course>10.24</course>
  <speed>0.0</speed>
  <fix>3d</fix>
</trkpt>
<trkpt lat="-27.2744384" lon="151.2900641">
  <ele>343.1</ele>
  <time>2026-09-01T19:53:06Z</time>
  <course>12.25</course>
  <speed>0.0</speed>
  <fix>3d</fix>
</trkpt>
<trkpt lat="-27.2744384" lon="151.2900641">
  <ele>342.78</ele>
  <time>2026-09-01T19:53:06Z</time>
  <course>10.23</course>
  <speed>0.0</speed>
  <fix>3d</fix>
</trkpt>
<trkpt lat="-27.2744384" lon="151.2900641">
  <ele>343.1</ele>
  <time>2026-09-01T19:53:06Z</time>
  <course>12.25</course>
  <speed>0.0</speed>
  <fix>3d</fix>
</trkpt>
<trkpt lat="-27.2744384" lon="151.2900641">
  <ele>342.81</ele>
  <time>2026-09-01T19:53:06Z</time>
  <course>10.23</course>
  <speed>0.0</speed>
  <fix>3d</fix>
</trkpt>
<trkpt lat="-27.2744384" lon="151.2900641">
  <ele>343.1</ele>
  <time>2026-09-01T19:53:06Z</time>
  <course>12.25</course>
  <speed>0.0</speed>
  <fix>3d</fix>
</trkpt>
<trkpt lat="-27.2744384" lon="151.2900641">
  <ele>342.85</ele>
  <time>2026-09-01T19:53:06Z</time>
  <course>10.23</course>
  <speed>0.0</speed>
  <fix>3d</fix>
</trkpt>
<trkpt lat="-27.2744384" lon="151.2900641">
  <ele>343.1</ele>
  <time>2026-09-01T19:53:06Z</time>
  <course>12.25</course>
  <speed>0.0</speed>
  <fix>3d</fix>
</trkpt>
<trkpt lat="-27.2744384" lon="151.2900641">
  <ele>342.78</ele>
  <time>2026-09-01T19:53:06Z</time>
  <course>10.22</course>
  <speed>0.0</speed>
  <fix>3d</fix>
</trkpt>
<trkpt lat="-27.2744384" lon="151.2900641">
  <ele>343.1</ele>
  <time>2026-09-01T19:53:06Z</time>
  <course>12.24</course>
  <speed>0.0</speed>
  <fix>3d</fix>
</trkpt>
<trkpt lat="-27.2744384" lon="151.2900641">
  <ele>342.79</ele>
  <time>2026-09-01T19:53:06Z</time>
  <course>10.22</course>
  <speed>0.0</speed>
  <fix>3d</fix>
</trkpt>
<trkpt lat="-27.2744384" lon="151.2900641">
  <ele>343.1</ele>
  <time>2026-09-01T19:53:06Z</time>
  <course>12.24</course>
  <speed>0.0</speed>
  <fix>3d</fix>
</trkpt>
<trkpt lat="-27.2744384" lon="151.2900641">
  <ele>342.9</ele>
  <time>2026-09-01T19:53:06Z</time>
  <course>10.21</course>
  <speed>0.0</speed>
  <fix>3d</fix>
</trkpt>
<trkpt lat="-27.2744384" lon="151.2900641">
  <ele>343.1</ele>
  <time>2026-09-01T19:53:06Z</time>
  <course>12.23</course>
  <speed>0.0</speed>
  <fix>3d</fix>
</trkpt>
<trkpt lat="-27.2744384" lon="151.2900641">
  <ele>342.98</ele>
  <time>2026-09-01T19:53:06Z</time>
  <course>10.21</course>
  <speed>0.0</speed>
  <fix>3d</fix>
</trkpt>
<trkpt lat="-27.2744384" lon="151.2900641">
  <ele>343.1</ele>
  <time>2026-09-01T19:53:06Z</time>
  <course>12.23</course>
  <speed>0.0</speed>
  <fix>3d</fix>
</trkpt>
<trkpt lat="-27.2744384" lon="151.2900641">
  <ele>342.77</ele>
  <time>2026-09-01T19:53:06Z</time>
  <course>10.2</course>
  <speed>0.0</speed>
  <fix>3d</fix>
</trkpt>
<trkpt lat="-27.2744384" lon="151.2900641">
  <ele>343.1</ele>
  <time>2026-09-01T19:53:06Z</time>
  <course>12.23</course>
  <speed>0.0</speed>
  <fix>3d</fix>
</trkpt>
<trkpt lat="-27.2744384" lon="151.2900641">
  <ele>342.95</ele>
  <time>2026-09-01T19:53:06Z</time>
  <course>10.2</course>
  <speed>0.0</speed>
  <fix>3d</fix>
</trkpt>
<trkpt lat="-27.2744384" lon="151.2900641">
  <ele>343.1</ele>
  <time>2026-09-01T19:53:06Z</time>
  <course>12.23</course>
  <speed>0.0</speed>
  <fix>3d</fix>
</trkpt>
<trkpt lat="-27.2744384" lon="151.2900641">
  <ele>343.04</ele>
  <time>2026-09-01T19:53:06Z</time>
  <course>10.19</course>
  <speed>0.0</speed>
  <fix>3d</fix>
</trkpt>
<trkpt lat="-27.2744384" lon="151.2900641">
  <ele>343.1</ele>
  <time>2026-09-01T19:53:06Z</time>
  <course>12.22</course>
  <speed>0.0</speed>
  <fix>3d</fix>
</trkpt>
<trkpt lat="-27.2744384" lon="151.2900641">
  <ele>342.83</ele>
  <time>2026-09-01T19:53:06Z</time>
  <course>10.19</course>
  <speed>0.0</speed>
  <fix>3d</fix>
</trkpt>
<trkpt lat="-27.2744384" lon="151.2900641">
  <ele>343.1</ele>
  <time>2026-09-01T19:53:06Z</time>
  <course>12.22</course>
  <speed>0.0</speed>
  <fix>3d</fix>
</trkpt>
<trkpt lat="-27.2744384" lon="151.2900641">
  <ele>342.87</ele>
  <time>2026-09-01T19:53:06Z</time>
  <course>10.18</course>
  <speed>0.0</speed>
  <fix>3d</fix>
</trkpt>
<trkpt lat="-27.2744384" lon="151.2900641">
  <ele>343.1</ele>
  <time>2026-09-01T19:53:06Z</time>
  <course>12.22</course>
  <speed>0.0</speed>
  <fix>3d</fix>
</trkpt>
<trkpt lat="-27.2744384" lon="151.2900641">
  <ele>342.76</ele>
  <time>2026-09-01T19:53:06Z</time>
  <course>10.18</course>
  <speed>0.0</speed>
  <fix>3d</fix>
</trkpt>
<trkpt lat="-27.2744384" lon="151.2900641">
  <ele>343.1</ele>
  <time>2026-09-01T19:53:06Z</time>
  <course>12.22</course>
  <speed>0.0</speed>
  <fix>3d</fix>
</trkpt>
<trkpt lat="-27.2744384" lon="151.2900641">
  <ele>343.01</ele>
  <time>2026-09-01T19:53:06Z</time>
  <course>10.17</course>
  <speed>0.0</speed>
  <fix>3d</fix>
</trkpt>
<trkpt lat="-27.2744384" lon="151.2900641">
  <ele>343.1</ele>
  <time>2026-09-01T19:53:06Z</time>
  <course>12.21</course>
  <speed>0.0</speed>
  <fix>3d</fix>
</trkpt>
<trkpt lat="-27.2744384" lon="151.2900641">
  <ele>343.08</ele>
  <time>2026-09-01T19:53:06Z</time>
  <course>10.16</course>
  <speed>0.0</speed>
  <fix>3d</fix>
</trkpt>
<trkpt lat="-27.2744384" lon="151.2900641">
  <ele>343.1</ele>
  <time>2026-09-01T19:53:06Z</time>
  <course>12.21</course>
  <speed>0.0</speed>
  <fix>3d</fix>
</trkpt>
<trkpt lat="-27.2744384" lon="151.2900641">
  <ele>342.82</ele>
  <time>2026-09-01T19:53:06Z</time>
  <course>10.15</course>
  <speed>0.0</speed>
  <fix>3d</fix>
</trkpt>
<trkpt lat="-27.2744384" lon="151.2900641">
  <ele>343.1</ele>
  <time>2026-09-01T19:53:06Z</time>
  <course>12.2</course>
  <speed>0.0</speed>
  <fix>3d</fix>
</trkpt>
<trkpt lat="-27.2744384" lon="151.2900641">
  <ele>343.12</ele>
  <time>2026-09-01T19:53:06Z</time>
  <course>10.15</course>
  <speed>0.0</speed>
  <fix>3d</fix>
</trkpt>
<trkpt lat="-27.2744384" lon="151.2900641">
  <ele>343.1</ele>
  <time>2026-09-01T19:53:06Z</time>
  <course>12.2</course>
  <speed>0.0</speed>
  <fix>3d</fix>
</trkpt>
<trkpt lat="-27.2744384" lon="151.2900641">
  <ele>342.85</ele>
  <time>2026-09-01T19:53:06Z</time>
  <course>10.14</course>
  <speed>0.0</speed>
  <fix>3d</fix>
</trkpt>
<trkpt lat="-27.2744384" lon="151.2900641">
  <ele>343.1</ele>
  <time>2026-09-01T19:53:06Z</time>
  <course>12.2</course>
  <speed>0.0</speed>
  <fix>3d</fix>
</trkpt>
<trkpt lat="-27.2744384" lon="151.2900641">
  <ele>343.01</ele>
  <time>2026-09-01T19:53:06Z</time>
  <course>10.13</course>
  <speed>0.0</speed>
  <fix>3d</fix>
</trkpt>
<trkpt lat="-27.2744384" lon="151.2900641">
  <ele>343.1</ele>
  <time>2026-09-01T19:53:06Z</time>
  <course>12.2</course>
  <speed>0.0</speed>
  <fix>3d</fix>
</trkpt>
<trkpt lat="-27.2744384" lon="151.2900641">
  <ele>343.01</ele>
  <time>2026-09-01T19:53:06Z</time>
  <course>10.13</course>
  <speed>0.0</speed>
  <fix>3d</fix>
</trkpt>
<trkpt lat="-27.2744384" lon="151.2900641">
  <ele>343.1</ele>
  <time>2026-09-01T19:53:06Z</time>
  <course>12.19</course>
  <speed>0.0</speed>
  <fix>3d</fix>
</trkpt>
<trkpt lat="-27.2744384" lon="151.2900641">
  <ele>342.82</ele>
  <time>2026-09-01T19:53:06Z</time>
  <course>10.12</course>
  <speed>0.0</speed>
  <fix>3d</fix>
</trkpt>
<trkpt lat="-27.2744384" lon="151.2900641">
  <ele>343.1</ele>
  <time>2026-09-01T19:53:06Z</time>
  <course>12.19</course>
  <speed>0.0</speed>
  <fix>3d</fix>
</trkpt>
<trkpt lat="-27.2744384" lon="151.2900641">
  <ele>343.05</ele>
  <time>2026-09-01T19:53:06Z</time>
  <course>10.11</course>
  <speed>0.0</speed>
  <fix>3d</fix>
</trkpt>
<trkpt lat="-27.2744384" lon="151.2900641">
  <ele>343.1</ele>
  <time>2026-09-01T19:53:06Z</time>
  <course>12.18</course>
  <speed>0.0</speed>
  <fix>3d</fix>
</trkpt>
<trkpt lat="-27.2744384" lon="151.2900641">
  <ele>342.9</ele>
  <time>2026-09-01T19:53:06Z</time>
  <course>10.11</course>
  <speed>0.0</speed>
  <fix>3d</fix>
</trkpt>
<trkpt lat="-27.2744384" lon="151.2900641">
  <ele>343.1</ele>
  <time>2026-09-01T19:53:06Z</time>
  <course>12.18</course>
  <speed>0.0</speed>
  <fix>3d</fix>
</trkpt>
<trkpt lat="-27.2744384" lon="151.2900641">
  <ele>342.98</ele>
  <time>2026-09-01T19:53:06Z</time>
  <course>10.1</course>
  <speed>0.0</speed>
  <fix>3d</fix>
</trkpt>
<trkpt lat="-27.2744384" lon="151.2900641">
  <ele>343.1</ele>
  <time>2026-09-01T19:53:06Z</time>
  <course>12.18</course>
  <speed>0.0</speed>
  <fix>3d</fix>
</trkpt>
<trkpt lat="-27.2744384" lon="151.2900641">
  <ele>342.84</ele>
  <time>2026-09-01T19:53:06Z</time>
  <course>10.09</course>
  <speed>0.0</speed>
  <fix>3d</fix>
</trkpt>
<trkpt lat="-27.2744384" lon="151.2900641">
  <ele>343.1</ele>
  <time>2026-09-01T19:53:06Z</time>
  <course>12.18</course>
  <speed>0.0</speed>
  <fix>3d</fix>
</trkpt>
<trkpt lat="-27.2744384" lon="151.2900641">
  <ele>343.0</ele>
  <time>2026-09-01T19:53:06Z</time>
  <course>10.09</course>
  <speed>0.0</speed>
  <fix>3d</fix>
</trkpt>
<trkpt lat="-27.2744384" lon="151.2900641">
  <ele>343.1</ele>
  <time>2026-09-01T19:53:06Z</time>
  <course>12.17</course>
  <speed>0.0</speed>
  <fix>3d</fix>
</trkpt>
<trkpt lat="-27.2744384" lon="151.2900641">
  <ele>343.0</ele>
  <time>2026-09-01T19:53:06Z</time>
  <course>10.08</course>
  <speed>0.0</speed>
  <fix>3d</fix>
</trkpt>
<trkpt lat="-27.2744384" lon="151.2900641">
  <ele>343.1</ele>
  <time>2026-09-01T19:53:06Z</time>
  <course>12.17</course>
  <speed>0.0</speed>
  <fix>3d</fix>
</trkpt>
<trkpt lat="-27.2744384" lon="151.2900641">
  <ele>342.78</ele>
  <time>2026-09-01T19:53:06Z</time>
  <course>10.07</course>
  <speed>0.0</speed>
  <fix>3d</fix>
</trkpt>
<trkpt lat="-27.2744384" lon="151.2900641">
  <ele>343.1</ele>
  <time>2026-09-01T19:53:06Z</time>
  <course>12.16</course>
  <speed>0.0</speed>
  <fix>3d</fix>
</trkpt>
<trkpt lat="-27.2744384" lon="151.2900641">
  <ele>343.06</ele>
  <time>2026-09-01T19:53:06Z</time>
  <course>10.07</course>
  <speed>0.0</speed>
  <fix>3d</fix>
</trkpt>
<trkpt lat="-27.2744384" lon="151.2900641">
  <ele>343.1</ele>
  <time>2026-09-01T19:53:06Z</time>
  <course>12.16</course>
  <speed>0.0</speed>
  <fix>3d</fix>
</trkpt>
<trkpt lat="-27.2744384" lon="151.2900641">
  <ele>343.03</ele>
  <time>2026-09-01T19:53:06Z</time>
  <course>10.06</course>
  <speed>0.0</speed>
  <fix>3d</fix>
</trkpt>
<trkpt lat="-27.2744384" lon="151.2900641">
  <ele>343.1</ele>
  <time>2026-09-01T19:53:06Z</time>
  <course>12.16</course>
  <speed>0.0</speed>
  <fix>3d</fix>
</trkpt>
<trkpt lat="-27.2744384" lon="151.2900641">
  <ele>343.15</ele>
  <time>2026-09-01T19:53:06Z</time>
  <course>10.05</course>
  <speed>0.0</speed>
  <fix>3d</fix>
</trkpt>
<trkpt lat="-27.2744384" lon="151.2900641">
  <ele>343.1</ele>
  <time>2026-09-01T19:53:06Z</time>
  <course>12.16</course>
  <speed>0.0</speed>
  <fix>3d</fix>
</trkpt>
<trkpt lat="-27.2744384" lon="151.2900641">
  <ele>342.95</ele>
  <time>2026-09-01T19:53:06Z</time>
  <course>10.05</course>
  <speed>0.0</speed>
  <fix>3d</fix>
</trkpt>
<trkpt lat="-27.2744384" lon="151.2900641">
  <ele>343.1</ele>
  <time>2026-09-01T19:53:06Z</time>
  <course>12.15</course>
  <speed>0.0</speed>
  <fix>3d</fix>
</trkpt>
<trkpt lat="-27.2744384" lon="151.2900641">
  <ele>343.03</ele>
  <time>2026-09-01T19:53:06Z</time>
  <course>10.04</course>
  <speed>0.0</speed>
  <fix>3d</fix>
</trkpt>
<trkpt lat="-27.2744384" lon="151.2900641">
  <ele>343.1</ele>
  <time>2026-09-01T19:53:06Z</time>
  <course>12.15</course>
  <speed>0.0</speed>
  <fix>3d</fix>
</trkpt>
<trkpt lat="-27.2744384" lon="151.2900641">
  <ele>343.12</ele>
  <time>2026-09-01T19:53:06Z</time>
  <course>10.03</course>
  <speed>0.0</speed>
  <fix>3d</fix>
</trkpt>
<trkpt lat="-27.2744384" lon="151.2900641">
  <ele>343.1</ele>
  <time>2026-09-01T19:53:06Z</time>
  <course>12.15</course>
  <speed>0.0</speed>
  <fix>3d</fix>
</trkpt>
<trkpt lat="-27.2744384" lon="151.2900641">
  <ele>343.16</ele>
  <time>2026-09-01T19:53:06Z</time>
  <course>10.03</course>
  <speed>0.0</speed>
  <fix>3d</fix>
</trkpt>
<trkpt lat="-27.2744384" lon="151.2900641">
  <ele>343.1</ele>
  <time>2026-09-01T19:53:06Z</time>
  <course>12.15</course>
  <speed>0.0</speed>
  <fix>3d</fix>
</trkpt>
<trkpt lat="-27.2744384" lon="151.2900641">
  <ele>342.97</ele>
  <time>2026-09-01T19:53:06Z</time>
  <course>10.02</course>
  <speed>0.0</speed>
  <fix>3d</fix>
</trkpt>
<trkpt lat="-27.2744384" lon="151.2900641">
  <ele>343.1</ele>
  <time>2026-09-01T19:53:06Z</time>
  <course>12.14</course>
  <speed>0.0</speed>
  <fix>3d</fix>
</trkpt>
<trkpt lat="-27.2744384" lon="151.2900641">
  <ele>343.14</ele>
  <time>2026-09-01T19:53:06Z</time>
  <course>10.02</course>
  <speed>0.0</speed>
  <fix>3d</fix>
</trkpt>
<trkpt lat="-27.2744384" lon="151.2900641">
  <ele>343.1</ele>
  <time>2026-09-01T19:53:06Z</time>
  <course>12.14</course>
  <speed>0.0</speed>
  <fix>3d</fix>
</trkpt>
<trkpt lat="-27.2744384" lon="151.2900641">
  <ele>342.86</ele>
  <time>2026-09-01T19:53:06Z</time>
  <course>10.01</course>
  <speed>0.0</speed>
  <fix>3d</fix>
</trkpt>
<trkpt lat="-27.2744384" lon="151.2900641">
  <ele>343.1</ele>
  <time>2026-09-01T19:53:06Z</time>
  <course>12.13</course>
  <speed>0.0</speed>
  <fix>3d</fix>
</trkpt>
<trkpt lat="-27.2744384" lon="151.2900641">
  <ele>342.92</ele>
  <time>2026-09-01T19:53:06Z</time>
  <course>10.0</course>
  <speed>0.0</speed>
  <fix>3d</fix>
</trkpt>
<trkpt lat="-27.2744384" lon="151.2900641">
  <ele>343.1</ele>
  <time>2026-09-01T19:53:06Z</time>
  <course>12.13</course>
  <speed>0.0</speed>
  <fix>3d</fix>
</trkpt>
<trkpt lat="-27.2744384" lon="151.2900641">
  <ele>343.12</ele>
  <time>2026-09-01T19:53:06Z</time>
  <course>10.0</course>
  <speed>0.0</speed>
  <fix>3d</fix>
</trkpt>
<trkpt lat="-27.2744384" lon="151.2900641">
  <ele>343.1</ele>
  <time>2026-09-01T19:53:06Z</time>
  <course>12.13</course>
  <speed>0.0</speed>
  <fix>3d</fix>
</trkpt>
<trkpt lat="-27.2744384" lon="151.2900641">
  <ele>343.03</ele>
  <time>2026-09-01T19:53:06Z</time>
  <course>9.99</course>
  <speed>0.0</speed>
  <fix>3d</fix>
</trkpt>
<trkpt lat="-27.2744384" lon="151.2900641">
  <ele>343.1</ele>
  <time>2026-09-01T19:53:06Z</time>
  <course>12.13</course>
  <speed>0.0</speed>
  <fix>3d</fix>
</trkpt>
<trkpt lat="-27.2744383" lon="151.2900641">
  <ele>343.07</ele>
  <time>2026-09-01T19:53:06Z</time>
  <course>9.99</course>
  <speed>0.0</speed>
  <fix>3d</fix>
</trkpt>
<trkpt lat="-27.2744383" lon="151.2900641">
  <ele>343.1</ele>
  <time>2026-09-01T19:53:06Z</time>
  <course>12.12</course>
  <speed>0.0</speed>
  <fix>3d</fix>
</trkpt>
<trkpt lat="-27.2744383" lon="151.2900641">
  <ele>343.03</ele>
  <time>2026-09-01T19:53:06Z</time>
  <course>9.98</course>
  <speed>0.0</speed>
  <fix>3d</fix>
</trkpt>
<trkpt lat="-27.2744383" lon="151.2900641">
  <ele>343.1</ele>
  <time>2026-09-01T19:53:06Z</time>
  <course>12.12</course>
  <speed>0.0</speed>
  <fix>3d</fix>
</trkpt>
<trkpt lat="-27.2744383" lon="151.2900641">
  <ele>342.88</ele>
  <time>2026-09-01T19:53:06Z</time>
  <course>9.97</course>
  <speed>0.0</speed>
  <fix>3d</fix>
</trkpt>
<trkpt lat="-27.2744383" lon="151.2900641">
  <ele>343.1</ele>
  <time>2026-09-01T19:53:06Z</time>
  <course>12.11</course>
  <speed>0.0</speed>
  <fix>3d</fix>
</trkpt>
<trkpt lat="-27.2744383" lon="151.2900641">
  <ele>343.0</ele>
  <time>2026-09-01T19:53:06Z</time>
  <course>9.97</course>
  <speed>0.0</speed>
  <fix>3d</fix>
</trkpt>
<trkpt lat="-27.2744383" lon="151.2900641">
  <ele>343.1</ele>
  <time>2026-09-01T19:53:06Z</time>
  <course>12.11</course>
  <speed>0.0</speed>
  <fix>3d</fix>
</trkpt>
<trkpt lat="-27.2744383" lon="151.2900641">
  <ele>343.1</ele>
  <time>2026-09-01T19:53:06Z</time>
  <course>9.96</course>
  <speed>0.0</speed>
  <fix>3d</fix>
</trkpt>
<trkpt lat="-27.2744383" lon="151.2900641">
  <ele>343.1</ele>
  <time>2026-09-01T19:53:06Z</time>
  <course>12.11</course>
  <speed>0.0</speed>
  <fix>3d</fix>
</trkpt>
<trkpt lat="-27.2744383" lon="151.2900641">
  <ele>343.04</ele>
  <time>2026-09-01T19:53:06Z</time>
  <course>9.96</course>
  <speed>0.0</speed>
  <fix>3d</fix>
</trkpt>
<trkpt lat="-27.2744383" lon="151.2900641">
  <ele>343.1</ele>
  <time>2026-09-01T19:53:06Z</time>
  <course>12.11</course>
  <speed>0.0</speed>
  <fix>3d</fix>
</trkpt>
<trkpt lat="-27.2744383" lon="151.2900641">
  <ele>343.22</ele>
  <time>2026-09-01T19:53:06Z</time>
  <course>9.95</course>
  <speed>0.0</speed>
  <fix>3d</fix>
</trkpt>
<trkpt lat="-27.2744383" lon="151.2900641">
  <ele>343.1</ele>
  <time>2026-09-01T19:53:06Z</time>
  <course>12.1</course>
  <speed>0.0</speed>
  <fix>3d</fix>
</trkpt>
<trkpt lat="-27.2744383" lon="151.2900641">
  <ele>343.05</ele>
  <time>2026-09-01T19:53:06Z</time>
  <course>9.95</course>
  <speed>0.0</speed>
  <fix>3d</fix>
</trkpt>
<trkpt lat="-27.2744383" lon="151.2900641">
  <ele>343.1</ele>
  <time>2026-09-01T19:53:06Z</time>
  <course>12.1</course>
  <speed>0.0</speed>
  <fix>3d</fix>
</trkpt>
<trkpt lat="-27.2744383" lon="151.2900641">
  <ele>343.07</ele>
  <time>2026-09-01T19:53:06Z</time>
  <course>9.94</course>
  <speed>0.0</speed>
  <fix>3d</fix>
</trkpt>
<trkpt lat="-27.2744383" lon="151.2900641">
  <ele>343.1</ele>
  <time>2026-09-01T19:53:06Z</time>
  <course>12.09</course>
  <speed>0.0</speed>
  <fix>3d</fix>
</trkpt>
<trkpt lat="-27.2744383" lon="151.2900641">
  <ele>343.08</ele>
  <time>2026-09-01T19:53:06Z</time>
  <course>9.93</course>
  <speed>0.0</speed>
  <fix>3d</fix>
</trkpt>
<trkpt lat="-27.2744383" lon="151.2900641">
  <ele>343.1</ele>
  <time>2026-09-01T19:53:06Z</time>
  <course>12.09</course>
  <speed>0.0</speed>
  <fix>3d</fix>
</trkpt>
<trkpt lat="-27.2744383" lon="151.2900641">
  <ele>342.89</ele>
  <time>2026-09-01T19:53:06Z</time>
  <course>9.93</course>
  <speed>0.0</speed>
  <fix>3d</fix>
</trkpt>
<trkpt lat="-27.2744383" lon="151.2900641">
  <ele>343.1</ele>
  <time>2026-09-01T19:53:06Z</time>
  <course>12.09</course>
  <speed>0.0</speed>
  <fix>3d</fix>
</trkpt>
<trkpt lat="-27.2744383" lon="151.2900641">
  <ele>342.99</ele>
  <time>2026-09-01T19:53:06Z</time>
  <course>9.92</course>
  <speed>0.0</speed>
  <fix>3d</fix>
</trkpt>
<trkpt lat="-27.2744383" lon="151.2900641">
  <ele>343.1</ele>
  <time>2026-09-01T19:53:06Z</time>
  <course>12.09</course>
  <speed>0.0</speed>
  <fix>3d</fix>
</trkpt>
<trkpt lat="-27.2744383" lon="151.2900641">
  <ele>342.89</ele>
  <time>2026-09-01T19:53:06Z</time>
  <course>9.92</course>
  <speed>0.0</speed>
  <fix>3d</fix>
</trkpt>
<trkpt lat="-27.2744383" lon="151.2900641">
  <ele>343.1</ele>
  <time>2026-09-01T19:53:06Z</time>
  <course>12.08</course>
  <speed>0.0</speed>
  <fix>3d</fix>
</trkpt>
<trkpt lat="-27.2744383" lon="151.2900641">
  <ele>343.19</ele>
  <time>2026-09-01T19:53:06Z</time>
  <course>9.91</course>
  <speed>0.0</speed>
  <fix>3d</fix>
</trkpt>
<trkpt lat="-27.2744383" lon="151.2900641">
  <ele>343.1</ele>
  <time>2026-09-01T19:53:06Z</time>
  <course>12.08</course>
  <speed>0.0</speed>
  <fix>3d</fix>
</trkpt>
<trkpt lat="-27.2744383" lon="151.2900641">
  <ele>343.02</ele>
  <time>2026-09-01T19:53:06Z</time>
  <course>9.91</course>
  <speed>0.0</speed>
  <fix>3d</fix>
</trkpt>
<trkpt lat="-27.2744383" lon="151.2900641">
  <ele>343.1</ele>
  <time>2026-09-01T19:53:06Z</time>
  <course>12.08</course>
  <speed>0.0</speed>
  <fix>3d</fix>
</trkpt>
<trkpt lat="-27.2744383" lon="151.2900641">
  <ele>343.2</ele>
  <time>2026-09-01T19:53:06Z</time>
  <course>9.9</course>
  <speed>0.0</speed>
  <fix>3d</fix>
</trkpt>
<trkpt lat="-27.2744383" lon="151.2900641">
  <ele>343.1</ele>
  <time>2026-09-01T19:53:06Z</time>
  <course>12.08</course>
  <speed>0.0</speed>
  <fix>3d</fix>
</trkpt>
<trkpt lat="-27.2744383" lon="151.2900641">
  <ele>343.22</ele>
  <time>2026-09-01T19:53:06Z</time>
  <course>9.9</course>
  <speed>0.0</speed>
  <fix>3d</fix>
</trkpt>
<trkpt lat="-27.2744383" lon="151.2900641">
  <ele>343.1</ele>
  <time>2026-09-01T19:53:06Z</time>
  <course>12.07</course>
  <speed>0.0</speed>
  <fix>3d</fix>
</trkpt>
<trkpt lat="-27.2744383" lon="151.2900641">
  <ele>343.04</ele>
  <time>2026-09-01T19:53:06Z</time>
  <course>9.89</course>
  <speed>0.0</speed>
  <fix>3d</fix>
</trkpt>
<trkpt lat="-27.2744383" lon="151.2900641">
  <ele>343.1</ele>
  <time>2026-09-01T19:53:06Z</time>
  <course>12.07</course>
  <speed>0.0</speed>
  <fix>3d</fix>
</trkpt>
<trkpt lat="-27.2744383" lon="151.2900641">
  <ele>343.14</ele>
  <time>2026-09-01T19:53:06Z</time>
  <course>9.88</course>
  <speed>0.0</speed>
  <fix>3d</fix>
</trkpt>
<trkpt lat="-27.2744383" lon="151.2900641">
  <ele>343.1</ele>
  <time>2026-09-01T19:53:06Z</time>
  <course>12.06</course>
  <speed>0.0</speed>
  <fix>3d</fix>
</trkpt>
<trkpt lat="-27.2744383" lon="151.2900641">
  <ele>342.98</ele>
  <time>2026-09-01T19:53:06Z</time>
  <course>9.88</course>
  <speed>0.0</speed>
  <fix>3d</fix>
</trkpt>
<trkpt lat="-27.2744383" lon="151.2900641">
  <ele>343.1</ele>
  <time>2026-09-01T19:53:06Z</time>
  <course>12.06</course>
  <speed>0.0</speed>
  <fix>3d</fix>
</trkpt>
<trkpt lat="-27.2744383" lon="151.2900641">
  <ele>342.95</ele>
  <time>2026-09-01T19:53:06Z</time>
  <course>9.87</course>
  <speed>0.0</speed>
  <fix>3d</fix>
</trkpt>
<trkpt lat="-27.2744383" lon="151.2900641">
  <ele>343.1</ele>
  <time>2026-09-01T19:53:06Z</time>
  <course>12.06</course>
  <speed>0.0</speed>
  <fix>3d</fix>
</trkpt>
<trkpt lat="-27.2744383" lon="151.2900641">
  <ele>343.13</ele>
  <time>2026-09-01T19:53:06Z</time>
  <course>9.87</course>
  <speed>0.0</speed>
  <fix>3d</fix>
</trkpt>
<trkpt lat="-27.2744383" lon="151.2900641">
  <ele>343.1</ele>
  <time>2026-09-01T19:53:06Z</time>
  <course>12.06</course>
  <speed>0.0</speed>
  <fix>3d</fix>
</trkpt>
<trkpt lat="-27.2744383" lon="151.2900641">
  <ele>342.97</ele>
  <time>2026-09-01T19:53:06Z</time>
  <course>9.86</course>
  <speed>0.0</speed>
  <fix>3d</fix>
</trkpt>
<trkpt lat="-27.2744383" lon="151.2900641">
  <ele>343.1</ele>
  <time>2026-09-01T19:53:06Z</time>
  <course>12.05</course>
  <speed>0.0</speed>
  <fix>3d</fix>
</trkpt>
<trkpt lat="-27.2744383" lon="151.2900641">
  <ele>342.98</ele>
  <time>2026-09-01T19:53:06Z</time>
  <course>9.85</course>
  <speed>0.0</speed>
  <fix>3d</fix>
</trkpt>
<trkpt lat="-27.2744383" lon="151.2900641">
  <ele>343.1</ele>
  <time>2026-09-01T19:53:06Z</time>
  <course>12.05</course>
  <speed>0.0</speed>
  <fix>3d</fix>
</trkpt>
<trkpt lat="-27.2744383" lon="151.2900641">
  <ele>343.1</ele>
  <time>2026-09-01T19:53:06Z</time>
  <course>9.85</course>
  <speed>0.0</speed>
  <fix>3d</fix>
</trkpt>
<trkpt lat="-27.2744383" lon="151.2900641">
  <ele>343.1</ele>
  <time>2026-09-01T19:53:06Z</time>
  <course>12.04</course>
  <speed>0.0</speed>
  <fix>3d</fix>
</trkpt>
<trkpt lat="-27.2744383" lon="151.2900641">
  <ele>342.83</ele>
  <time>2026-09-01T19:53:06Z</time>
  <course>9.84</course>
  <speed>0.0</speed>
  <fix>3d</fix>
</trkpt>
<trkpt lat="-27.2744383" lon="151.2900641">
  <ele>343.1</ele>
  <time>2026-09-01T19:53:06Z</time>
  <course>12.04</course>
  <speed>0.0</speed>
  <fix>3d</fix>
</trkpt>
<trkpt lat="-27.2744383" lon="151.2900641">
  <ele>342.9</ele>
  <time>2026-09-01T19:53:06Z</time>
  <course>9.83</course>
  <speed>0.0</speed>
  <fix>3d</fix>
</trkpt>
<trkpt lat="-27.2744383" lon="151.2900641">
  <ele>343.1</ele>
  <time>2026-09-01T19:53:06Z</time>
  <course>12.04</course>
  <speed>0.0</speed>
  <fix>3d</fix>
</trkpt>
<trkpt lat="-27.2744383" lon="151.2900641">
  <ele>342.92</ele>
  <time>2026-09-01T19:53:06Z</time>
  <course>9.82</course>
  <speed>0.0</speed>
  <fix>3d</fix>
</trkpt>
<trkpt lat="-27.2744383" lon="151.2900641">
  <ele>343.1</ele>
  <time>2026-09-01T19:53:06Z</time>
  <course>12.04</course>
  <speed>0.0</speed>
  <fix>3d</fix>
</trkpt>
<trkpt lat="-27.2744383" lon="151.290064">
  <ele>343.04</ele>
  <time>2026-09-01T19:53:06Z</time>
  <course>10.36</course>
  <speed>0.0</speed>
  <fix>3d</fix>
</trkpt>
<trkpt lat="-27.2744383" lon="151.2900641">
  <ele>343.1</ele>
  <time>2026-09-01T19:53:06Z</time>
  <course>12.03</course>
  <speed>0.0</speed>
  <fix>3d</fix>
</trkpt>
<trkpt lat="-27.2744383" lon="151.290064">
  <ele>343.03</ele>
  <time>2026-09-01T19:53:06Z</time>
  <course>10.35</course>
  <speed>0.0</speed>
  <fix>3d</fix>
</trkpt>
<trkpt lat="-27.2744383" lon="151.2900641">
  <ele>343.1</ele>
  <time>2026-09-01T19:53:06Z</time>
  <course>12.03</course>
  <speed>0.0</speed>
  <fix>3d</fix>
</trkpt>
<trkpt lat="-27.2744383" lon="151.290064">
  <ele>343.03</ele>
  <time>2026-09-01T19:53:06Z</time>
  <course>10.35</course>
  <speed>0.0</speed>
  <fix>3d</fix>
</trkpt>
<trkpt lat="-27.2744383" lon="151.2900642">
  <ele>343.1</ele>
  <time>2026-09-01T19:53:06Z</time>
  <course>12.02</course>
  <speed>0.0</speed>
  <fix>3d</fix>
</trkpt>
<trkpt lat="-27.2744383" lon="151.290064">
  <ele>343.02</ele>
  <time>2026-09-01T19:53:06Z</time>
  <course>10.34</course>
  <speed>0.0</speed>
  <fix>3d</fix>
</trkpt>
<trkpt lat="-27.2744383" lon="151.2900642">
  <ele>343.1</ele>
  <time>2026-09-01T19:53:06Z</time>
  <course>12.02</course>
  <speed>0.0</speed>
  <fix>3d</fix>
</trkpt>
<trkpt lat="-27.2744383" lon="151.290064">
  <ele>343.02</ele>
  <time>2026-09-01T19:53:06Z</time>
  <course>10.34</course>
  <speed>0.0</speed>
  <fix>3d</fix>
</trkpt>
<trkpt lat="-27.2744383" lon="151.2900642">
  <ele>343.1</ele>
  <time>2026-09-01T19:53:06Z</time>
  <course>12.02</course>
  <speed>0.0</speed>
  <fix>3d</fix>
</trkpt>
<trkpt lat="-27.2744383" lon="151.2900641">
  <ele>343.02</ele>
  <time>2026-09-01T19:53:06Z</time>
  <course>10.33</course>
  <speed>0.0</speed>
  <fix>3d</fix>
</trkpt>
<trkpt lat="-27.2744383" lon="151.2900642">
  <ele>343.1</ele>
  <time>2026-09-01T19:53:06Z</time>
  <course>12.02</course>
  <speed>0.0</speed>
  <fix>3d</fix>
</trkpt>
<trkpt lat="-27.2744383" lon="151.2900641">
  <ele>343.02</ele>
  <time>2026-09-01T19:53:06Z</time>
  <course>10.33</course>
  <speed>0.0</speed>
  <fix>3d</fix>
</trkpt>
<trkpt lat="-27.2744383" lon="151.2900642">
  <ele>343.1</ele>
  <time>2026-09-01T19:53:06Z</time>
  <course>12.01</course>
  <speed>0.0</speed>
  <fix>3d</fix>
</trkpt>
<trkpt lat="-27.2744383" lon="151.2900641">
  <ele>343.02</ele>
  <time>2026-09-01T19:53:06Z</time>
  <course>10.32</course>
  <speed>0.0</speed>
  <fix>3d</fix>
</trkpt>
<trkpt lat="-27.2744383" lon="151.2900642">
  <ele>343.1</ele>
  <time>2026-09-01T19:53:06Z</time>
  <course>12.01</course>
  <speed>0.0</speed>
  <fix>3d</fix>
</trkpt>
<trkpt lat="-27.2744383" lon="151.2900641">
  <ele>343.02</ele>
  <time>2026-09-01T19:53:06Z</time>
  <course>10.32</course>
  <speed>0.0</speed>
  <fix>3d</fix>
</trkpt>
<trkpt lat="-27.2744383" lon="151.2900642">
  <ele>343.1</ele>
  <time>2026-09-01T19:53:06Z</time>
  <course>12.01</course>
  <speed>0.0</speed>
  <fix>3d</fix>
</trkpt>
<trkpt lat="-27.2744383" lon="151.2900641">
  <ele>343.02</ele>
  <time>2026-09-01T19:53:06Z</time>
  <course>10.31</course>
  <speed>0.0</speed>
  <fix>3d</fix>
</trkpt>
<trkpt lat="-27.2744383" lon="151.2900642">
  <ele>343.1</ele>
  <time>2026-09-01T19:53:06Z</time>
  <course>12.01</course>
  <speed>0.0</speed>
  <fix>3d</fix>
</trkpt>
<trkpt lat="-27.2744383" lon="151.2900641">
  <ele>343.09</ele>
  <time>2026-09-01T19:53:06Z</time>
  <course>10.31</course>
  <speed>0.0</speed>
  <fix>3d</fix>
</trkpt>
<trkpt lat="-27.2744383" lon="151.2900642">
  <ele>343.1</ele>
  <time>2026-09-01T19:53:06Z</time>
  <course>12.0</course>
  <speed>0.0</speed>
  <fix>3d</fix>
</trkpt>
<trkpt lat="-27.2744383" lon="151.2900641">
  <ele>343.09</ele>
  <time>2026-09-01T19:53:07Z</time>
  <course>10.3</course>
  <speed>0.01</speed>
  <fix>3d</fix>
</trkpt>
<trkpt lat="-27.2744383" lon="151.2900642">
  <ele>343.1</ele>
  <time>2026-09-01T19:53:07Z</time>
  <course>12.0</course>
  <speed>0.0</speed>
  <fix>3d</fix>
</trkpt>
<trkpt lat="-27.2744383" lon="151.2900641">
  <ele>343.09</ele>
  <time>2026-09-01T19:53:07Z</time>
  <course>10.3</course>
  <speed>0.01</speed>
  <fix>3d</fix>
</trkpt>
<trkpt lat="-27.2744383" lon="151.2900642">
  <ele>343.1</ele>
  <time>2026-09-01T19:53:07Z</time>
  <course>11.99</course>
  <speed>0.0</speed>
  <fix>3d</fix>
</trkpt>
<trkpt lat="-27.2744383" lon="151.2900641">
  <ele>343.09</ele>
  <time>2026-09-01T19:53:07Z</time>
  <course>10.29</course>
  <speed>0.01414213562373095</speed>
  <fix>3d</fix>
</trkpt>
<trkpt lat="-27.2744383" lon="151.2900642">
  <ele>343.1</ele>
  <time>2026-09-01T19:53:07Z</time>
  <course>11.99</course>
  <speed>0.0</speed>
  <fix>3d</fix>
</trkpt>
<trkpt lat="-27.2744383" lon="151.2900642">
  <ele>343.09</ele>
  <time>2026-09-01T19:53:07Z</time>
  <course>10.29</course>
  <speed>0.01414213562373095</speed>
  <fix>3d</fix>
</trkpt>
<trkpt lat="-27.2744383" lon="151.2900642">
  <ele>343.1</ele>
  <time>2026-09-01T19:53:07Z</time>
  <course>11.99</course>
  <speed>0.0</speed>
  <fix>3d</fix>
</trkpt>
<trkpt lat="-27.2744384" lon="151.2900642">
  <ele>343.09</ele>
  <time>2026-09-01T19:53:07Z</time>
  <course>10.28</course>
  <speed>0.01414213562373095</speed>
  <fix>3d</fix>
</trkpt>
<trkpt lat="-27.2744383" lon="151.2900642">
  <ele>343.1</ele>
  <time>2026-09-01T19:53:07Z</time>
  <course>11.99</course>
  <speed>0.0</speed>
  <fix>3d</fix>
</trkpt>
<trkpt lat="-27.2744384" lon="151.2900642">
  <ele>343.09</ele>
  <time>2026-09-01T19:53:07Z</time>
  <course>10.28</course>
  <speed>0.02</speed>
  <fix>3d</fix>
</trkpt>
<trkpt lat="-27.2744383" lon="151.2900642">
  <ele>343.1</ele>
  <time>2026-09-01T19:53:07Z</time>
  <course>11.98</course>
  <speed>0.0</speed>
  <fix>3d</fix>
</trkpt>
<trkpt lat="-27.2744384" lon="151.2900642">
  <ele>343.09</ele>
  <time>2026-09-01T19:53:07Z</time>
  <course>10.27</course>
  <speed>0.022360679774997897</speed>
  <fix>3d</fix>
</trkpt>
<trkpt lat="-27.2744383" lon="151.2900642">
  <ele>343.1</ele>
  <time>2026-09-01T19:53:07Z</time>
  <course>11.98</course>
  <speed>0.0</speed>
  <fix>3d</fix>
</trkpt>
<trkpt lat="-27.2744384" lon="151.2900642">
  <ele>343.09</ele>
  <time>2026-09-01T19:53:07Z</time>
  <course>10.27</course>
  <speed>0.022360679774997897</speed>
  <fix>3d</fix>
</trkpt>
<trkpt lat="-27.2744384" lon="151.2900642">
  <ele>343.09</ele>
  <time>2026-09-01T19:53:07Z</time>
  <course>10.27</course>
  <speed>0.01414213562373095</speed>
  <fix>3d</fix>
</trkpt>
<trkpt lat="-27.2744383" lon="151.2900642">
  <ele>343.1</ele>
  <time>2026-09-01T19:53:07Z</time>
  <course>183.33</course>
  <speed>0.0</speed>
  <fix>3d</fix>
</trkpt>
<trkpt lat="-27.2744384" lon="151.2900642">
  <ele>343.09</ele>
  <time>2026-09-01T19:53:07Z</time>
  <course>10.27</course>
  <speed>0.01414213562373095</speed>
  <fix>3d</fix>
</trkpt>
<trkpt lat="-27.2744384" lon="151.2900642">
  <ele>343.09</ele>
  <time>2026-09-01T19:53:07Z</time>
  <course>10.26</course>
  <speed>0.01414213562373095</speed>
  <fix>3d</fix>
</trkpt>
<trkpt lat="-27.2744383" lon="151.2900642">
  <ele>343.1</ele>
  <time>2026-09-01T19:53:07Z</time>
  <course>183.33</course>
  <speed>0.0</speed>
  <fix>3d</fix>
</trkpt>
<trkpt lat="-27.2744384" lon="151.2900642">
  <ele>343.09</ele>
  <time>2026-09-01T19:53:07Z</time>
  <course>10.26</course>
  <speed>0.01414213562373095</speed>
  <fix>3d</fix>
</trkpt>
<trkpt lat="-27.2744384" lon="151.2900642">
  <ele>343.1</ele>
  <time>2026-09-01T19:53:07Z</time>
  <course>10.25</course>
  <speed>0.01414213562373095</speed>
  <fix>3d</fix>
</trkpt>
<trkpt lat="-27.2744383" lon="151.2900642">
  <ele>343.1</ele>
  <time>2026-09-01T19:53:07Z</time>
  <course>182.67</course>
  <speed>0.0</speed>
  <fix>3d</fix>
</trkpt>
<trkpt lat="-27.2744384" lon="151.2900642">
  <ele>343.1</ele>
  <time>2026-09-01T19:53:07Z</time>
  <course>10.25</course>
  <speed>0.01414213562373095</speed>
  <fix>3d</fix>
</trkpt>
<trkpt lat="-27.2744384" lon="151.2900642">
  <ele>343.1</ele>
  <time>2026-09-01T19:53:07Z</time>
  <course>10.25</course>
  <speed>0.01414213562373095</speed>
  <fix>3d</fix>
</trkpt>
<trkpt lat="-27.2744383" lon="151.2900642">
  <ele>343.1</ele>
  <time>2026-09-01T19:53:07Z</time>
  <course>182.67</course>
  <speed>0.0</speed>
  <fix>3d</fix>
</trkpt>
<trkpt lat="-27.2744384" lon="151.2900642">
  <ele>343.1</ele>
  <time>2026-09-01T19:53:07Z</time>
  <course>10.25</course>
  <speed>0.01414213562373095</speed>
  <fix>3d</fix>
</trkpt>
<trkpt lat="-27.2744384" lon="151.2900642">
  <ele>343.1</ele>
  <time>2026-09-01T19:53:07Z</time>
  <course>10.24</course>
  <speed>0.01414213562373095</speed>
  <fix>3d</fix>
</trkpt>
<trkpt lat="-27.2744383" lon="151.2900642">
  <ele>343.1</ele>
  <time>2026-09-01T19:53:07Z</time>
  <course>10.33</course>
  <speed>0.0</speed>
  <fix>3d</fix>
</trkpt>
<trkpt lat="-27.2744384" lon="151.2900642">
  <ele>343.1</ele>
  <time>2026-09-01T19:53:07Z</time>
  <course>10.24</course>
  <speed>0.01414213562373095</speed>
  <fix>3d</fix>
</trkpt>
<trkpt lat="-27.2744384" lon="151.2900642">
  <ele>343.11</ele>
  <time>2026-09-01T19:53:07Z</time>
  <course>10.24</course>
  <speed>0.01414213562373095</speed>
  <fix>3d</fix>
</trkpt>
<trkpt lat="-27.2744383" lon="151.2900642">
  <ele>343.1</ele>
  <time>2026-09-01T19:53:07Z</time>
  <course>10.33</course>
  <speed>0.0</speed>
  <fix>3d</fix>
</trkpt>
<trkpt lat="-27.2744384" lon="151.2900642">
  <ele>343.11</ele>
  <time>2026-09-01T19:53:07Z</time>
  <course>10.24</course>
  <speed>0.01414213562373095</speed>
  <fix>3d</fix>
</trkpt>
<trkpt lat="-27.2744384" lon="151.2900642">
  <ele>343.11</ele>
  <time>2026-09-01T19:53:07Z</time>
  <course>10.23</course>
  <speed>0.01414213562373095</speed>
  <fix>3d</fix>
</trkpt>
<trkpt lat="-27.2744383" lon="151.2900642">
  <ele>343.1</ele>
  <time>2026-09-01T19:53:07Z</time>
  <course>11.44</course>
  <speed>0.0</speed>
  <fix>3d</fix>
</trkpt>
<trkpt lat="-27.2744384" lon="151.2900642">
  <ele>343.11</ele>
  <time>2026-09-01T19:53:07Z</time>
  <course>10.23</course>
  <speed>0.01414213562373095</speed>
  <fix>3d</fix>
</trkpt>
<trkpt lat="-27.2744384" lon="151.2900642">
  <ele>343.11</ele>
  <time>2026-09-01T19:53:07Z</time>
  <course>10.23</course>
  <speed>0.01414213562373095</speed>
  <fix>3d</fix>
</trkpt>
<trkpt lat="-27.2744383" lon="151.2900642">
  <ele>343.1</ele>
  <time>2026-09-01T19:53:07Z</time>
  <course>11.44</course>
  <speed>0.0</speed>
  <fix>3d</fix>
</trkpt>
<trkpt lat="-27.2744384" lon="151.2900642">
  <ele>343.11</ele>
  <time>2026-09-01T19:53:07Z</time>
  <course>10.23</course>
  <speed>0.01414213562373095</speed>
  <fix>3d</fix>
</trkpt>
<trkpt lat="-27.2744384" lon="151.2900642">
  <ele>343.12</ele>
  <time>2026-09-01T19:53:07Z</time>
  <course>10.22</course>
  <speed>0.02</speed>
  <fix>3d</fix>
</trkpt>
<trkpt lat="-27.2744383" lon="151.2900642">
  <ele>343.1</ele>
  <time>2026-09-01T19:53:07Z</time>
  <course>70.05</course>
  <speed>0.0</speed>
  <fix>3d</fix>
</trkpt>
<trkpt lat="-27.2744384" lon="151.2900642">
  <ele>343.13</ele>
  <time>2026-09-01T19:53:07Z</time>
  <course>10.22</course>
  <speed>0.02</speed>
  <fix>3d</fix>
</trkpt>
<trkpt lat="-27.2744384" lon="151.2900642">
  <ele>343.15</ele>
  <time>2026-09-01T19:53:07Z</time>
  <course>10.22</course>
  <speed>0.03</speed>
  <fix>3d</fix>
</trkpt>
<trkpt lat="-27.2744383" lon="151.2900642">
  <ele>343.1</ele>
  <time>2026-09-01T19:53:07Z</time>
  <course>70.05</course>
  <speed>0.0</speed>
  <fix>3d</fix>
</trkpt>
<trkpt lat="-27.2744384" lon="151.2900642">
  <ele>343.16</ele>
  <time>2026-09-01T19:53:07Z</time>
  <course>10.22</course>
  <speed>0.03</speed>
  <fix>3d</fix>
</trkpt>
<trkpt lat="-27.2744384" lon="151.2900642">
  <ele>343.19</ele>
  <time>2026-09-01T19:53:07Z</time>
  <course>10.21</course>
  <speed>0.0316227766016838</speed>
  <fix>3d</fix>
</trkpt>
<trkpt lat="-27.2744383" lon="151.2900642">
  <ele>343.11</ele>
  <time>2026-09-01T19:53:07Z</time>
  <course>182.51</course>
  <speed>0.01</speed>
  <fix>3d</fix>
</trkpt>
<trkpt lat="-27.2744384" lon="151.2900642">
  <ele>343.19</ele>
  <time>2026-09-01T19:53:07Z</time>
  <course>10.21</course>
  <speed>0.0316227766016838</speed>
  <fix>3d</fix>
</trkpt>
<trkpt lat="-27.2744384" lon="151.2900642">
  <ele>343.23</ele>
  <time>2026-09-01T19:53:07Z</time>
  <course>10.19</course>
  <speed>0.022360679774997897</speed>
  <fix>3d</fix>
</trkpt>
<trkpt lat="-27.2744383" lon="151.2900642">
  <ele>343.11</ele>
  <time>2026-09-01T19:53:07Z</time>
  <course>182.51</course>
  <speed>0.01</speed>
  <fix>3d</fix>
</trkpt>
<trkpt lat="-27.2744384" lon="151.2900642">
  <ele>343.23</ele>
  <time>2026-09-01T19:53:07Z</time>
  <course>10.19</course>
  <speed>0.022360679774997897</speed>
  <fix>3d</fix>
</trkpt>
<trkpt lat="-27.2744384" lon="151.2900642">
  <ele>343.3</ele>
  <time>2026-09-01T19:53:07Z</time>
  <course>9.72</course>
  <speed>0.07810249675906654</speed>
  <fix>3d</fix>
</trkpt>
<trkpt lat="-27.2744383" lon="151.2900642">
  <ele>343.16</ele>
  <time>2026-09-01T19:53:07Z</time>
  <course>170.16</course>
  <speed>0.01</speed>
  <fix>3d</fix>
</trkpt>
<trkpt lat="-27.2744384" lon="151.2900642">
  <ele>343.33</ele>
  <time>2026-09-01T19:53:07Z</time>
  <course>9.48</course>
  <speed>0.1131370849898476</speed>
  <fix>3d</fix>
</trkpt>
<trkpt lat="-27.2744383" lon="151.2900643">
  <ele>343.44</ele>
  <time>2026-09-01T19:53:07Z</time>
  <course>8.67</course>
  <speed>0.22022715545545238</speed>
  <fix>3d</fix>
</trkpt>
<trkpt lat="-27.2744383" lon="151.2900642">
  <ele>343.16</ele>
  <time>2026-09-01T19:53:07Z</time>
  <course>170.16</course>
  <speed>0.01</speed>
  <fix>3d</fix>
</trkpt>
<trkpt lat="-27.2744383" lon="151.2900644">
  <ele>343.49</ele>
  <time>2026-09-01T19:53:07Z</time>
  <course>8.32</course>
  <speed>0.2640075756488817</speed>
  <fix>3d</fix>
</trkpt>
<trkpt lat="-27.2744381" lon="151.2900645">
  <ele>343.62</ele>
  <time>2026-09-01T19:53:07Z</time>
  <course>7.31</course>
  <speed>0.3640054944640259</speed>
  <fix>3d</fix>
</trkpt>
<trkpt lat="-27.2744382" lon="151.2900642">
  <ele>343.31</ele>
  <time>2026-09-01T19:53:07Z</time>
  <course>34.71</course>
  <speed>0.1</speed>
  <fix>3d</fix>
</trkpt>
<trkpt lat="-27.274438" lon="151.2900646">
  <ele>343.68</ele>
  <time>2026-09-01T19:53:07Z</time>
  <course>6.94</course>
  <speed>0.4</speed>
  <fix>3d</fix>
</trkpt>
<trkpt lat="-27.2744378" lon="151.2900648">
  <ele>343.83</ele>
  <time>2026-09-01T19:53:07Z</time>
  <course>5.95</course>
  <speed>0.4780167361086848</speed>
  <fix>3d</fix>
</trkpt>
<trkpt lat="-27.2744382" lon="151.2900642">
  <ele>343.31</ele>
  <time>2026-09-01T19:53:07Z</time>
  <course>34.71</course>
  <speed>0.1</speed>
  <fix>3d</fix>
</trkpt>
<trkpt lat="-27.2744377" lon="151.2900648">
  <ele>343.84</ele>
  <time>2026-09-01T19:53:07Z</time>
  <course>5.91</course>
  <speed>0.4860041152089147</speed>
  <fix>3d</fix>
</trkpt>
<trkpt lat="-27.2744374" lon="151.290065">
  <ele>344.04</ele>
  <time>2026-09-01T19:53:07Z</time>
  <course>4.8</course>
  <speed>0.5560575509783138</speed>
  <fix>3d</fix>
</trkpt>
<trkpt lat="-27.2744379" lon="151.2900644">
  <ele>343.61</ele>
  <time>2026-09-01T19:53:07Z</time>
  <course>31.64</course>
  <speed>0.35</speed>
  <fix>3d</fix>
</trkpt>
<trkpt lat="-27.2744372" lon="151.2900651">
  <ele>344.09</ele>
  <time>2026-09-01T19:53:07Z</time>
  <course>4.53</course>
  <speed>0.570087712549569</speed>
  <fix>3d</fix>
</trkpt>
<trkpt lat="-27.2744369" lon="151.2900654">
  <ele>344.24</ele>
  <time>2026-09-01T19:53:07Z</time>
  <course>3.9</course>
  <speed>0.6060528029800704</speed>
  <fix>3d</fix>
</trkpt>
<trkpt lat="-27.2744379" lon="151.2900644">
  <ele>343.61</ele>
  <time>2026-09-01T19:53:07Z</time>
  <course>31.64</course>
  <speed>0.35</speed>
  <fix>3d</fix>
</trkpt>
<trkpt lat="-27.2744369" lon="151.2900654">
  <ele>344.25</ele>
  <time>2026-09-01T19:53:07Z</time>
  <course>3.88</course>
  <speed>0.6060528029800704</speed>
  <fix>3d</fix>
</trkpt>
<trkpt lat="-27.2744365" lon="151.2900657">
  <ele>344.45</ele>
  <time>2026-09-01T19:53:07Z</time>
  <course>3.2</course>
  <speed>0.656048778674269</speed>
  <fix>3d</fix>
</trkpt>
<trkpt lat="-27.2744372" lon="151.2900649">
  <ele>344.02</ele>
  <time>2026-09-01T19:53:07Z</time>
  <course>32.6</course>
  <speed>0.55</speed>
  <fix>3d</fix>
</trkpt>
<trkpt lat="-27.2744363" lon="151.2900658">
  <ele>344.52</ele>
  <time>2026-09-01T19:53:07Z</time>
  <course>3.01</course>
  <speed>0.6700746227100381</speed>
  <fix>3d</fix>
</trkpt>
<trkpt lat="-27.274436" lon="151.2900661">
  <ele>344.67</ele>
  <time>2026-09-01T19:53:07Z</time>
  <course>2.58</course>
  <speed>0.7060453243241541</speed>
  <fix>3d</fix>
</trkpt>
<trkpt lat="-27.2744372" lon="151.2900649">
  <ele>344.02</ele>
  <time>2026-09-01T19:53:07Z</time>
  <course>32.6</course>
  <speed>0.55</speed>
  <fix>3d</fix>
</trkpt>
<trkpt lat="-27.2744358" lon="151.2900662">
  <ele>344.72</ele>
  <time>2026-09-01T19:53:07Z</time>
  <course>2.42</course>
  <speed>0.7200694410957876</speed>
  <fix>3d</fix>
</trkpt>
<trkpt lat="-27.2744354" lon="151.2900665">
  <ele>344.88</ele>
  <time>2026-09-01T19:53:07Z</time>
  <course>0.75</course>
  <speed>0.75</speed>
  <fix>3d</fix>
</trkpt>
<trkpt lat="-27.2744363" lon="151.2900656">
  <ele>344.45</ele>
  <time>2026-09-01T19:53:07Z</time>
  <course>33.48</course>
  <speed>0.67</speed>
  <fix>3d</fix>
</trkpt>
<trkpt lat="-27.2744353" lon="151.2900666">
  <ele>344.94</ele>
  <time>2026-09-01T19:53:07Z</time>
  <course>0.5</course>
  <speed>0.7640026177965623</speed>
  <fix>3d</fix>
</trkpt>
<trkpt lat="-27.2744348" lon="151.290067">
  <ele>345.09</ele>
  <time>2026-09-01T19:53:07Z</time>
  <course>359.89</course>
  <speed>0.7860025445251434</speed>
  <fix>3d</fix>
</trkpt>
<trkpt lat="-27.2744363" lon="151.2900656">
  <ele>344.45</ele>
  <time>2026-09-01T19:53:07Z</time>
  <course>33.48</course>
  <speed>0.67</speed>
  <fix>3d</fix>
</trkpt>
<trkpt lat="-27.2744348" lon="151.290067">
  <ele>345.1</ele>
  <time>2026-09-01T19:53:07Z</time>
  <course>359.86</course>
  <speed>0.7940403012442127</speed>
  <fix>3d</fix>
</trkpt>
<trkpt lat="-27.2744342" lon="151.2900674">
  <ele>345.3</ele>
  <time>2026-09-01T19:53:07Z</time>
  <course>359.14</course>
  <speed>0.8160882305241266</speed>
  <fix>3d</fix>
</trkpt>
<trkpt lat="-27.2744352" lon="151.2900664">
  <ele>344.87</ele>
  <time>2026-09-01T19:53:07Z</time>
  <course>33.64</course>
  <speed>0.76</speed>
  <fix>3d</fix>
</trkpt>
<trkpt lat="-27.2744342" lon="151.2900674">
  <ele>345.31</ele>
  <time>2026-09-01T19:53:07Z</time>
  <course>359.11</course>
  <speed>0.8160882305241266</speed>
  <fix>3d</fix>
</trkpt>
<trkpt lat="-27.2744336" lon="151.2900679">
  <ele>345.5</ele>
  <time>2026-09-01T19:53:07Z</time>
  <course>358.41</course>
  <speed>0.840535543567314</speed>
  <fix>3d</fix>
</trkpt>
<trkpt lat="-27.2744352" lon="151.2900664">
  <ele>344.87</ele>
  <time>2026-09-01T19:53:07Z</time>
  <course>33.64</course>
  <speed>0.76</speed>
  <fix>3d</fix>
</trkpt>
<trkpt lat="-27.2744334" lon="151.290068">
  <ele>345.55</ele>
  <time>2026-09-01T19:53:07Z</time>
  <course>358.22</course>
  <speed>0.840535543567314</speed>
  <fix>3d</fix>
</trkpt>
<trkpt lat="-27.2744329" lon="151.2900683">
  <ele>345.7</ele>
  <time>2026-09-01T19:53:07Z</time>
  <course>357.57</course>
  <speed>0.8487638069569178</speed>
  <fix>3d</fix>
</trkpt>
<trkpt lat="-27.274434" lon="151.2900673">
  <ele>345.29</ele>
  <time>2026-09-01T19:53:07Z</time>
  <course>33.3</course>
  <speed>0.83</speed>
  <fix>3d</fix>
</trkpt>
<trkpt lat="-27.2744328" lon="151.2900684">
  <ele>345.75</ele>
  <time>2026-09-01T19:53:07Z</time>
  <course>357.33</course>
  <speed>0.8487638069569178</speed>
  <fix>3d</fix>
</trkpt>
<trkpt lat="-27.2744323" lon="151.2900688">
  <ele>345.89</ele>
  <time>2026-09-01T19:53:07Z</time>
  <course>356.63</course>
  <speed>0.8514693182963201</speed>
  <fix>3d</fix>
</trkpt>
<trkpt lat="-27.274434" lon="151.2900673">
  <ele>345.29</ele>
  <time>2026-09-01T19:53:07Z</time>
  <course>33.3</course>
  <speed>0.83</speed>
  <fix>3d</fix>
</trkpt>
<trkpt lat="-27.2744321" lon="151.2900689">
  <ele>345.94</ele>
  <time>2026-09-01T19:53:07Z</time>
  <course>356.36</course>
  <speed>0.8514693182963201</speed>
  <fix>3d</fix>
</trkpt>
<trkpt lat="-27.2744316" lon="151.2900692">
  <ele>346.08</ele>
  <time>2026-09-01T19:53:07Z</time>
  <course>355.54</course>
  <speed>0.8459905436823747</speed>
  <fix>3d</fix>
</trkpt>
<trkpt lat="-27.2744327" lon="151.2900683">
  <ele>345.69</ele>
  <time>2026-09-01T19:53:07Z</time>
  <course>32.64</course>
  <speed>0.87</speed>
  <fix>3d</fix>
</trkpt>
<trkpt lat="-27.2744314" lon="151.2900693">
  <ele>346.12</ele>
  <time>2026-09-01T19:53:07Z</time>
  <course>355.25</course>
  <speed>0.8459905436823747</speed>
  <fix>3d</fix>
</trkpt>
<trkpt lat="-27.274431" lon="151.2900697">
  <ele>346.25</ele>
  <time>2026-09-01T19:53:07Z</time>
  <course>354.35</course>
  <speed>0.8405950273467003</speed>
  <fix>3d</fix>
</trkpt>
<trkpt lat="-27.2744327" lon="151.2900683">
  <ele>345.69</ele>
  <time>2026-09-01T19:53:07Z</time>
  <course>32.64</course>
  <speed>0.87</speed>
  <fix>3d</fix>
</trkpt>
<trkpt lat="-27.2744308" lon="151.2900698">
  <ele>346.29</ele>
  <time>2026-09-01T19:53:07Z</time>
  <course>354.06</course>
  <speed>0.8352843827104635</speed>
  <fix>3d</fix>
</trkpt>
<trkpt lat="-27.2744303" lon="151.2900701">
  <ele>346.42</ele>
  <time>2026-09-01T19:53:07Z</time>
  <course>353.05</course>
  <speed>0.8215229759416348</speed>
  <fix>3d</fix>
</trkpt>
<trkpt lat="-27.2744314" lon="151.2900692">
  <ele>346.05</ele>
  <time>2026-09-01T19:53:07Z</time>
  <course>31.76</course>
  <speed>0.87</speed>
  <fix>3d</fix>
</trkpt>
<trkpt lat="-27.2744301" lon="151.2900702">
  <ele>346.46</ele>
  <time>2026-09-01T19:53:07Z</time>
  <course>352.7</course>
  <speed>0.816333265278342</speed>
  <fix>3d</fix>
</trkpt>
<trkpt lat="-27.2744296" lon="151.2900705">
  <ele>346.58</ele>
  <time>2026-09-01T19:53:07Z</time>
  <course>351.65</course>
  <speed>0.7975587752636166</speed>
  <fix>3d</fix>
</trkpt>
<trkpt lat="-27.2744314" lon="151.2900692">
  <ele>346.05</ele>
  <time>2026-09-01T19:53:07Z</time>
  <course>31.76</course>
  <speed>0.87</speed>
  <fix>3d</fix>
</trkpt>
<trkpt lat="-27.2744295" lon="151.2900706">
  <ele>346.61</ele>
  <time>2026-09-01T19:53:07Z</time>
  <course>351.31</course>
  <speed>0.7889233169326408</speed>
  <fix>3d</fix>
</trkpt>
<trkpt lat="-27.274429" lon="151.2900709">
  <ele>346.73</ele>
  <time>2026-09-01T19:53:07Z</time>
  <course>350.14</course>
  <speed>0.7702596964660685</speed>
  <fix>3d</fix>
</trkpt>
<trkpt lat="-27.27443" lon="151.2900701">
  <ele>346.39</ele>
  <time>2026-09-01T19:53:07Z</time>
  <course>30.74</course>
  <speed>0.84</speed>
  <fix>3d</fix>
</trkpt>
<trkpt lat="-27.2744288" lon="151.290071">
  <ele>346.76</ele>
  <time>2026-09-01T19:53:07Z</time>
  <course>349.72</course>
  <speed>0.7566372975210779</speed>
  <fix>3d</fix>
</trkpt>
<trkpt lat="-27.2744284" lon="151.2900712">
  <ele>346.87</ele>
  <time>2026-09-01T19:53:07Z</time>
  <course>348.52</course>
  <speed>0.7294518489934754</speed>
  <fix>3d</fix>
</trkpt>
<trkpt lat="-27.27443" lon="151.2900701">
  <ele>346.39</ele>
  <time>2026-09-01T19:53:07Z</time>
  <course>30.74</course>
  <speed>0.84</speed>
  <fix>3d</fix>
</trkpt>
<trkpt lat="-27.2744284" lon="151.2900713">
  <ele>346.87</ele>
  <time>2026-09-01T19:53:07Z</time>
  <course>348.47</course>
  <speed>0.7247068372797375</speed>
  <fix>3d</fix>
</trkpt>
<trkpt lat="-27.2744278" lon="151.2900716">
  <ele>347.01</ele>
  <time>2026-09-01T19:53:07Z</time>
  <course>346.79</course>
  <speed>0.688839603971781</speed>
  <fix>3d</fix>
</trkpt>
<trkpt lat="-27.2744288" lon="151.290071">
  <ele>346.7</ele>
  <time>2026-09-01T19:53:07Z</time>
  <course>29.63</course>
  <speed>0.78</speed>
  <fix>3d</fix>
</trkpt>
<trkpt lat="-27.2744278" lon="151.2900716">
  <ele>347.01</ele>
  <time>2026-09-01T19:53:07Z</time>
  <course>346.73</course>
  <speed>0.6842514157822401</speed>
  <fix>3d</fix>
</trkpt>
<trkpt lat="-27.2744273" lon="151.2900719">
  <ele>347.14</ele>
  <time>2026-09-01T19:53:07Z</time>
  <course>344.94</course>
  <speed>0.6350590523722971</speed>
  <fix>3d</fix>
</trkpt>
<trkpt lat="-27.2744288" lon="151.290071">
  <ele>346.7</ele>
  <time>2026-09-01T19:53:07Z</time>
  <course>29.63</course>
  <speed>0.78</speed>
  <fix>3d</fix>
</trkpt>
<trkpt lat="-27.2744272" lon="151.2900719">
  <ele>347.15</ele>
  <time>2026-09-01T19:53:07Z</time>
  <course>344.88</course>
  <speed>0.6350590523722971</speed>
  <fix>3d</fix>
</trkpt>
<trkpt lat="-27.2744267" lon="151.2900722">
  <ele>347.28</ele>
  <time>2026-09-01T19:53:07Z</time>
  <course>342.97</course>
  <speed>0.5860034129593444</speed>
  <fix>3d</fix>
</trkpt>
<trkpt lat="-27.2744276" lon="151.2900717">
  <ele>346.98</ele>
  <time>2026-09-01T19:53:07Z</time>
  <course>28.44</course>
  <speed>0.7</speed>
  <fix>3d</fix>
</trkpt>
<trkpt lat="-27.2744266" lon="151.2900723">
  <ele>347.32</ele>
  <time>2026-09-01T19:53:07Z</time>
  <course>342.36</course>
  <speed>0.563648826841678</speed>
  <fix>3d</fix>
</trkpt>
<trkpt lat="-27.2744263" lon="151.2900724">
  <ele>347.41</ele>
  <time>2026-09-01T19:53:07Z</time>
  <course>340.9</course>
  <speed>0.5239274758971895</speed>
  <fix>3d</fix>
</trkpt>
<trkpt lat="-27.2744276" lon="151.2900717">
  <ele>346.98</ele>
  <time>2026-09-01T19:53:07Z</time>
  <course>28.44</course>
  <speed>0.7</speed>
  <fix>3d</fix>
</trkpt>
<trkpt lat="-27.2744261" lon="151.2900725">
  <ele>347.45</ele>
  <time>2026-09-01T19:53:07Z</time>
  <course>340.34</course>
  <speed>0.51478150704935</speed>
  <fix>3d</fix>
</trkpt>
<trkpt lat="-27.2744258" lon="151.2900726">
  <ele>347.55</ele>
  <time>2026-09-01T19:53:07Z</time>
  <course>338.76</course>
  <speed>0.4661544808322666</speed>
  <fix>3d</fix>
</trkpt>
<trkpt lat="-27.2744266" lon="151.2900723">
  <ele>347.25</ele>
  <time>2026-09-01T19:53:07Z</time>
  <course>27.22</course>
  <speed>0.6</speed>
  <fix>3d</fix>
</trkpt>
<trkpt lat="-27.2744257" lon="151.2900727">
  <ele>347.58</ele>
  <time>2026-09-01T19:53:07Z</time>
  <course>338.18</course>
  <speed>0.4438468204234429</speed>
  <fix>3d</fix>
</trkpt>
<trkpt lat="-27.2744255" lon="151.2900728">
  <ele>347.68</ele>
  <time>2026-09-01T19:53:07Z</time>
  <course>336.56</course>
  <speed>0.3992492955535426</speed>
  <fix>3d</fix>
</trkpt>
<trkpt lat="-27.2744266" lon="151.2900723">
  <ele>347.25</ele>
  <time>2026-09-01T19:53:07Z</time>
  <course>27.22</course>
  <speed>0.6</speed>
  <fix>3d</fix>
</trkpt>
<trkpt lat="-27.2744254" lon="151.2900729">
  <ele>347.71</ele>
  <time>2026-09-01T19:53:07Z</time>
  <course>336.04</course>
  <speed>0.38626415831655936</speed>
  <fix>3d</fix>
</trkpt>
<trkpt lat="-27.2744251" lon="151.290073">
  <ele>347.81</ele>
  <time>2026-09-01T19:53:07Z</time>
  <course>334.3</course>
  <speed>0.3289376840679705</speed>
  <fix>3d</fix>
</trkpt>
<trkpt lat="-27.2744257" lon="151.2900728">
  <ele>347.52</ele>
  <time>2026-09-01T19:53:07Z</time>
  <course>25.95</course>
  <speed>0.48</speed>
  <fix>3d</fix>
</trkpt>
<trkpt lat="-27.2744251" lon="151.290073">
  <ele>347.85</ele>
  <time>2026-09-01T19:53:07Z</time>
  <course>333.7</course>
  <speed>0.31622776601683794</speed>
  <fix>3d</fix>
</trkpt>
<trkpt lat="-27.2744249" lon="151.2900731">
  <ele>347.95</ele>
  <time>2026-09-01T19:53:07Z</time>
  <course>332.04</course>
  <speed>0.26248809496813374</speed>
  <fix>3d</fix>
</trkpt>
<trkpt lat="-27.2744257" lon="151.2900728">
  <ele>347.52</ele>
  <time>2026-09-01T19:53:07Z</time>
  <course>25.95</course>
  <speed>0.48</speed>
  <fix>3d</fix>
</trkpt>
<trkpt lat="-27.2744248" lon="151.2900731">
  <ele>347.98</ele>
  <time>2026-09-01T19:53:07Z</time>
  <course>331.53</course>
  <speed>0.25</speed>
  <fix>3d</fix>
</trkpt>
<trkpt lat="-27.2744246" lon="151.2900732">
  <ele>348.09</ele>
  <time>2026-09-01T19:53:07Z</time>
  <course>329.78</course>
  <speed>0.194164878389476</speed>
  <fix>3d</fix>
</trkpt>
<trkpt lat="-27.274425" lon="151.2900731">
  <ele>347.78</ele>
  <time>2026-09-01T19:53:07Z</time>
  <course>24.34</course>
  <speed>0.35</speed>
  <fix>3d</fix>
</trkpt>
<trkpt lat="-27.2744246" lon="151.2900732">
  <ele>348.12</ele>
  <time>2026-09-01T19:53:07Z</time>
  <course>329.18</course>
  <speed>0.1824828759089466</speed>
  <fix>3d</fix>
</trkpt>
<trkpt lat="-27.2744245" lon="151.2900732">
  <ele>348.23</ele>
  <time>2026-09-01T19:53:07Z</time>
  <course>327.55</course>
  <speed>0.140356688476182</speed>
  <fix>3d</fix>
</trkpt>
<trkpt lat="-27.274425" lon="151.2900731">
  <ele>347.78</ele>
  <time>2026-09-01T19:53:07Z</time>
  <course>24.34</course>
  <speed>0.35</speed>
  <fix>3d</fix>
</trkpt>
<trkpt lat="-27.2744245" lon="151.2900732">
  <ele>348.26</ele>
  <time>2026-09-01T19:53:07Z</time>
  <course>327.05</course>
  <speed>0.12</speed>
  <fix>3d</fix>
</trkpt>
<trkpt lat="-27.2744244" lon="151.2900733">
  <ele>348.37</ele>
  <time>2026-09-01T19:53:07Z</time>
  <course>325.35</course>
  <speed>0.0824621125123532</speed>
  <fix>3d</fix>
</trkpt>
<trkpt lat="-27.2744245" lon="151.2900733">
  <ele>348.05</ele>
  <time>2026-09-01T19:53:07Z</time>
  <course>20.94</course>
  <speed>0.21</speed>
  <fix>3d</fix>
</trkpt>
<trkpt lat="-27.2744244" lon="151.2900733">
  <ele>348.41</ele>
  <time>2026-09-01T19:53:07Z</time>
  <course>324.78</course>
  <speed>0.0670820393249937</speed>
  <fix>3d</fix>
</trkpt>
<trkpt lat="-27.2744243" lon="151.2900733">
  <ele>348.51</ele>
  <time>2026-09-01T19:53:07Z</time>
  <course>323.22</course>
  <speed>0.053851648071345036</speed>
  <fix>3d</fix>
</trkpt>
<trkpt lat="-27.2744245" lon="151.2900733">
  <ele>348.05</ele>
  <time>2026-09-01T19:53:07Z</time>
  <course>20.94</course>
  <speed>0.21</speed>
  <fix>3d</fix>
</trkpt>
<trkpt lat="-27.2744243" lon="151.2900733">
  <ele>348.52</ele>
  <time>2026-09-01T19:53:07Z</time>
  <course>323.15</course>
  <speed>0.053851648071345036</speed>
  <fix>3d</fix>
</trkpt>
<trkpt lat="-27.2744243" lon="151.2900733">
  <ele>348.66</ele>
  <time>2026-09-01T19:53:07Z</time>
  <course>321.18</course>
  <speed>0.09219544457292887</speed>
  <fix>3d</fix>
</trkpt>
<trkpt lat="-27.2744243" lon="151.2900735">
  <ele>348.33</ele>
  <time>2026-09-01T19:53:07Z</time>
  <course>4.53</course>
  <speed>0.08</speed>
  <fix>3d</fix>
</trkpt>
<trkpt lat="-27.2744243" lon="151.2900733">
  <ele>348.7</ele>
  <time>2026-09-01T19:53:07Z</time>
  <course>320.65</course>
  <speed>0.09486832980505139</speed>
  <fix>3d</fix>
</trkpt>
<trkpt lat="-27.2744243" lon="151.2900732">
  <ele>348.8</ele>
  <time>2026-09-01T19:53:07Z</time>
  <course>319.23</course>
  <speed>0.13892443989449804</speed>
  <fix>3d</fix>
</trkpt>
<trkpt lat="-27.2744243" lon="151.2900735">
  <ele>348.33</ele>
  <time>2026-09-01T19:53:07Z</time>
  <course>4.53</course>
  <speed>0.08</speed>
  <fix>3d</fix>
</trkpt>
<trkpt lat="-27.2744243" lon="151.2900732">
  <ele>348.81</ele>
  <time>2026-09-01T19:53:07Z</time>
  <course>319.17</course>
  <speed>0.13892443989449804</speed>
  <fix>3d</fix>
</trkpt>
<trkpt lat="-27.2744244" lon="151.2900731">
  <ele>348.95</ele>
  <time>2026-09-01T19:53:07Z</time>
  <course>317.37</course>
  <speed>0.18601075237738274</speed>
  <fix>3d</fix>
</trkpt>
<trkpt lat="-27.2744242" lon="151.2900734">
  <ele>348.61</ele>
  <time>2026-09-01T19:53:07Z</time>
  <course>249.19</course>
  <speed>0.06</speed>
  <fix>3d</fix>
</trkpt>
<trkpt lat="-27.2744244" lon="151.2900731">
  <ele>348.98</ele>
  <time>2026-09-01T19:53:07Z</time>
  <course>316.95</course>
  <speed>0.2</speed>
  <fix>3d</fix>
</trkpt>
<trkpt lat="-27.2744245" lon="151.290073">
  <ele>349.1</ele>
  <time>2026-09-01T19:53:07Z</time>
  <course>315.6</course>
  <speed>0.2420743687382041</speed>
  <fix>3d</fix>
</trkpt>
<trkpt lat="-27.2744242" lon="151.2900734">
  <ele>348.61</ele>
  <time>2026-09-01T19:53:07Z</time>
  <course>249.19</course>
  <speed>0.06</speed>
  <fix>3d</fix>
</trkpt>
<trkpt lat="-27.2744245" lon="151.2900729">
  <ele>349.13</ele>
  <time>2026-09-01T19:53:07Z</time>
  <course>315.2</course>
  <speed>0.25612496949731395</speed>
  <fix>3d</fix>
</trkpt>
<trkpt lat="-27.2744246" lon="151.2900728">
  <ele>349.25</ele>
  <time>2026-09-01T19:53:07Z</time>
  <course>313.92</course>
  <speed>0.2920616373302047</speed>
  <fix>3d</fix>
</trkpt>
<trkpt lat="-27.2744243" lon="151.2900733">
  <ele>348.91</ele>
  <time>2026-09-01T19:53:07Z</time>
  <course>229.9</course>
  <speed>0.18</speed>
  <fix>3d</fix>
</trkpt>
<trkpt lat="-27.2744246" lon="151.2900727">
  <ele>349.28</ele>
  <time>2026-09-01T19:53:07Z</time>
  <course>313.59</course>
  <speed>0.29832867780352595</speed>
  <fix>3d</fix>
</trkpt>
<trkpt lat="-27.2744247" lon="151.2900726">
  <ele>349.4</ele>
  <time>2026-09-01T19:53:07Z</time>
  <course>312.33</course>
  <speed>0.33421549934136807</speed>
  <fix>3d</fix>
</trkpt>
<trkpt lat="-27.2744243" lon="151.2900733">
  <ele>348.91</ele>
  <time>2026-09-01T19:53:07Z</time>
  <course>229.9</course>
  <speed>0.18</speed>
  <fix>3d</fix>
</trkpt>
<trkpt lat="-27.2744248" lon="151.2900725">
  <ele>349.42</ele>
  <time>2026-09-01T19:53:07Z</time>
  <course>312.08</course>
  <speed>0.34828149534535996</speed>
  <fix>3d</fix>
</trkpt>
<trkpt lat="-27.2744249" lon="151.2900723">
  <ele>349.55</ele>
  <time>2026-09-01T19:53:07Z</time>
  <course>310.83</course>
  <speed>0.3841874542459709</speed>
  <fix>3d</fix>
</trkpt>
<trkpt lat="-27.2744245" lon="151.2900729">
  <ele>349.21</ele>
  <time>2026-09-01T19:53:07Z</time>
  <course>228.57</course>
  <speed>0.28</speed>
  <fix>3d</fix>
</trkpt>
<trkpt lat="-27.274425" lon="151.2900723">
  <ele>349.58</ele>
  <time>2026-09-01T19:53:07Z</time>
  <course>310.54</course>
  <speed>0.3920459156782532</speed>
  <fix>3d</fix>
</trkpt>
<trkpt lat="-27.2744252" lon="151.290072">
  <ele>349.7</ele>
  <time>2026-09-01T19:53:07Z</time>
  <course>309.42</course>
  <speed>0.4280186911806539</speed>
  <fix>3d</fix>
</trkpt>
<trkpt lat="-27.2744245" lon="151.2900729">
  <ele>349.21</ele>
  <time>2026-09-01T19:53:07Z</time>
  <course>228.57</course>
  <speed>0.28</speed>
  <fix>3d</fix>
</trkpt>
<trkpt lat="-27.2744252" lon="151.290072">
  <ele>349.73</ele>
  <time>2026-09-01T19:53:07Z</time>
  <course>309.2</course>
  <speed>0.43600458713183277</speed>
  <fix>3d</fix>
</trkpt>
<trkpt lat="-27.2744254" lon="151.2900717">
  <ele>349.85</ele>
  <time>2026-09-01T19:53:07Z</time>
  <course>308.11</course>
  <speed>0.4661544808322666</speed>
  <fix>3d</fix>
</trkpt>
<trkpt lat="-27.2744249" lon="151.2900723">
  <ele>349.51</ele>
  <time>2026-09-01T19:53:07Z</time>
  <course>230.47</course>
  <speed>0.38</speed>
  <fix>3d</fix>
</trkpt>
<trkpt lat="-27.2744254" lon="151.2900716">
  <ele>349.88</ele>
  <time>2026-09-01T19:53:07Z</time>
  <course>307.9</course>
  <speed>0.4743416490252569</speed>
  <fix>3d</fix>
</trkpt>
<trkpt lat="-27.2744256" lon="151.2900713">
  <ele>350.0</ele>
  <time>2026-09-01T19:53:07Z</time>
  <course>306.87</course>
  <speed>0.5047771785649585</speed>
  <fix>3d</fix>
</trkpt>
<trkpt lat="-27.2744249" lon="151.2900723">
  <ele>349.51</ele>
  <time>2026-09-01T19:53:07Z</time>
  <course>230.47</course>
  <speed>0.38</speed>
  <fix>3d</fix>
</trkpt>
<trkpt lat="-27.2744257" lon="151.2900712">
  <ele>350.04</ele>
  <time>2026-09-01T19:53:07Z</time>
  <course>306.55</course>
  <speed>0.5186520991955976</speed>
  <fix>3d</fix>
</trkpt>
<trkpt lat="-27.2744259" lon="151.2900708">
  <ele>350.15</ele>
  <time>2026-09-01T19:53:07Z</time>
  <course>305.7</course>
  <speed>0.552268050859363</speed>
  <fix>3d</fix>
</trkpt>
<trkpt lat="-27.2744254" lon="151.2900717">
  <ele>349.81</ele>
  <time>2026-09-01T19:53:07Z</time>
  <course>233.58</course>
  <speed>0.47</speed>
  <fix>3d</fix>
</trkpt>
<trkpt lat="-27.2744259" lon="151.2900708">
  <ele>350.16</ele>
  <time>2026-09-01T19:53:07Z</time>
  <course>305.66</course>
  <speed>0.552268050859363</speed>
  <fix>3d</fix>
</trkpt>
<trkpt lat="-27.2744261" lon="151.2900704">
  <ele>350.3</ele>
  <time>2026-09-01T19:53:07Z</time>
  <course>304.61</course>
  <speed>0.5916924876994806</speed>
  <fix>3d</fix>
</trkpt>
<trkpt lat="-27.2744254" lon="151.2900717">
  <ele>349.81</ele>
  <time>2026-09-01T19:53:07Z</time>
  <course>233.58</course>
  <speed>0.47</speed>
  <fix>3d</fix>
</trkpt>
<trkpt lat="-27.2744262" lon="151.2900703">
  <ele>350.3</ele>
  <time>2026-09-01T19:53:07Z</time>
  <course>304.57</course>
  <speed>0.5916924876994806</speed>
  <fix>3d</fix>
</trkpt>
<trkpt lat="-27.2744264" lon="151.2900698">
  <ele>350.45</ele>
  <time>2026-09-01T19:53:07Z</time>
  <course>303.57</course>
  <speed>0.6264982043070834</speed>
  <fix>3d</fix>
</trkpt>
<trkpt lat="-27.2744259" lon="151.2900709">
  <ele>350.12</ele>
  <time>2026-09-01T19:53:07Z</time>
  <course>237.19</course>
  <speed>0.55</speed>
  <fix>3d</fix>
</trkpt>
<trkpt lat="-27.2744265" lon="151.2900697">
  <ele>350.49</ele>
  <time>2026-09-01T19:53:07Z</time>
  <course>303.27</course>
  <speed>0.6352952069707436</speed>
  <fix>3d</fix>
</trkpt>
<trkpt lat="-27.2744267" lon="151.2900693">
  <ele>350.6</ele>
  <time>2026-09-01T19:53:07Z</time>
  <course>302.58</course>
  <speed>0.6618912297349165</speed>
  <fix>3d</fix>
</trkpt>
<trkpt lat="-27.2744259" lon="151.2900709">
  <ele>350.12</ele>
  <time>2026-09-01T19:53:07Z</time>
  <course>237.19</course>
  <speed>0.55</speed>
  <fix>3d</fix>
</trkpt>
<trkpt lat="-27.2744268" lon="151.2900691">
  <ele>350.64</ele>
  <time>2026-09-01T19:53:07Z</time>
  <course>302.32</course>
  <speed>0.6797793759742936</speed>
  <fix>3d</fix>
</trkpt>
<trkpt lat="-27.274427" lon="151.2900687">
  <ele>350.74</ele>
  <time>2026-09-01T19:53:07Z</time>
  <course>301.63</course>
  <speed>0.7068238818828917</speed>
  <fix>3d</fix>
</trkpt>
<trkpt lat="-27.2744265" lon="151.2900698">
  <ele>350.41</ele>
  <time>2026-09-01T19:53:07Z</time>
  <course>240.86</course>
  <speed>0.64</speed>
  <fix>3d</fix>
</trkpt>
<trkpt lat="-27.274427" lon="151.2900685">
  <ele>350.79</ele>
  <time>2026-09-01T19:53:07Z</time>
  <course>301.38</course>
  <speed>0.7158910531638176</speed>
  <fix>3d</fix>
</trkpt>
<trkpt lat="-27.2744272" lon="151.290068">
  <ele>350.89</ele>
  <time>2026-09-01T19:53:07Z</time>
  <course>300.71</course>
  <speed>0.7432361670424819</speed>
  <fix>3d</fix>
</trkpt>
<trkpt lat="-27.2744265" lon="151.2900698">
  <ele>350.41</ele>
  <time>2026-09-01T19:53:07Z</time>
  <course>240.86</course>
  <speed>0.64</speed>
  <fix>3d</fix>
</trkpt>
<trkpt lat="-27.2744272" lon="151.290068">
  <ele>350.9</ele>
  <time>2026-09-01T19:53:07Z</time>
  <course>300.68</course>
  <speed>0.7432361670424819</speed>
  <fix>3d</fix>
</trkpt>
<trkpt lat="-27.2744275" lon="151.2900673">
  <ele>351.04</ele>
  <time>2026-09-01T19:53:07Z</time>
  <course>299.81</course>
  <speed>0.78</speed>
  <fix>3d</fix>
</trkpt>
<trkpt lat="-27.2744271" lon="151.2900686">
  <ele>350.71</ele>
  <time>2026-09-01T19:53:07Z</time>
  <course>244.3</course>
  <speed>0.72</speed>
  <fix>3d</fix>
</trkpt>
<trkpt lat="-27.2744275" lon="151.2900673">
  <ele>351.05</ele>
  <time>2026-09-01T19:53:07Z</time>
  <course>299.78</course>
  <speed>0.78</speed>
  <fix>3d</fix>
</trkpt>
<trkpt lat="-27.2744278" lon="151.2900666">
  <ele>351.19</ele>
  <time>2026-09-01T19:53:07Z</time>
  <course>298.92</course>
  <speed>0.8170679286326198</speed>
  <fix>3d</fix>
</trkpt>
<trkpt lat="-27.2744271" lon="151.2900686">
  <ele>350.71</ele>
  <time>2026-09-01T19:53:07Z</time>
  <course>244.3</course>
  <speed>0.72</speed>
  <fix>3d</fix>
</trkpt>
<trkpt lat="-27.2744279" lon="151.2900664">
  <ele>351.23</ele>
  <time>2026-09-01T19:53:07Z</time>
  <course>298.69</course>
  <speed>0.8263776376451628</speed>
  <fix>3d</fix>
</trkpt>
<trkpt lat="-27.2744281" lon="151.2900658">
  <ele>351.34</ele>
  <time>2026-09-01T19:53:07Z</time>
  <course>298.03</course>
  <speed>0.8544003745317531</speed>
  <fix>3d</fix>
</trkpt>
<trkpt lat="-27.2744276" lon="151.2900672">
  <ele>351.0</ele>
  <time>2026-09-01T19:53:07Z</time>
  <course>247.26</course>
  <speed>0.79</speed>
  <fix>3d</fix>
</trkpt>
<trkpt lat="-27.2744281" lon="151.2900656">
  <ele>351.38</ele>
  <time>2026-09-01T19:53:07Z</time>
  <course>297.79</course>
  <speed>0.8544003745317531</speed>
  <fix>3d</fix>
</trkpt>
<trkpt lat="-27.2744283" lon="151.290065">
  <ele>351.48</ele>
  <time>2026-09-01T19:53:07Z</time>
  <course>297.14</course>
  <speed>0.8825531145489205</speed>
  <fix>3d</fix>
</trkpt>
<trkpt lat="-27.2744276" lon="151.2900672">
  <ele>351.0</ele>
  <time>2026-09-01T19:53:07Z</time>
  <course>247.26</course>
  <speed>0.79</speed>
  <fix>3d</fix>
</trkpt>
<trkpt lat="-27.2744284" lon="151.2900648">
  <ele>351.52</ele>
  <time>2026-09-01T19:53:07Z</time>
  <course>296.93</course>
  <speed>0.8919641248391104</speed>
  <fix>3d</fix>
</trkpt>
<trkpt lat="-27.2744286" lon="151.2900641">
  <ele>351.63</ele>
  <time>2026-09-01T19:53:07Z</time>
  <course>296.24</course>
  <speed>0.910823802938856</speed>
  <fix>3d</fix>
</trkpt>
<trkpt lat="-27.2744282" lon="151.2900656">
  <ele>351.29</ele>
  <time>2026-09-01T19:53:07Z</time>
  <course>249.58</course>
  <speed>0.86</speed>
  <fix>3d</fix>
</trkpt>
<trkpt lat="-27.2744287" lon="151.2900639">
  <ele>351.67</ele>
  <time>2026-09-01T19:53:07Z</time>
  <course>296.0</course>
  <speed>0.9202716990106781</speed>
  <fix>3d</fix>
</trkpt>
<trkpt lat="-27.2744289" lon="151.2900632">
  <ele>351.77</ele>
  <time>2026-09-01T19:53:07Z</time>
  <course>295.33</course>
  <speed>0.9297311439335567</speed>
  <fix>3d</fix>
</trkpt>
<trkpt lat="-27.2744282" lon="151.2900656">
  <ele>351.29</ele>
  <time>2026-09-01T19:53:07Z</time>
  <course>249.58</course>
  <speed>0.86</speed>
  <fix>3d</fix>
</trkpt>
<trkpt lat="-27.2744289" lon="151.2900632">
  <ele>351.77</ele>
  <time>2026-09-01T19:53:07Z</time>
  <course>295.29</course>
  <speed>0.9297311439335567</speed>
  <fix>3d</fix>
</trkpt>
<trkpt lat="-27.2744292" lon="151.2900623">
  <ele>351.91</ele>
  <time>2026-09-01T19:53:07Z</time>
  <course>294.4</course>
  <speed>0.9581753492967766</speed>
  <fix>3d</fix>
</trkpt>
<trkpt lat="-27.2744287" lon="151.2900639">
  <ele>351.58</ele>
  <time>2026-09-01T19:53:07Z</time>
  <course>251.16</course>
  <speed>0.93</speed>
  <fix>3d</fix>
</trkpt>
<trkpt lat="-27.2744292" lon="151.2900623">
  <ele>351.92</ele>
  <time>2026-09-01T19:53:07Z</time>
  <course>294.36</course>
  <speed>0.9581753492967766</speed>
  <fix>3d</fix>
</trkpt>
<trkpt lat="-27.2744294" lon="151.2900614">
  <ele>352.05</ele>
  <time>2026-09-01T19:53:07Z</time>
  <course>293.44</course>
  <speed>0.97082439194738</speed>
  <fix>3d</fix>
</trkpt>
<trkpt lat="-27.2744287" lon="151.2900639">
  <ele>351.58</ele>
  <time>2026-09-01T19:53:07Z</time>
  <course>251.16</course>
  <speed>0.93</speed>
  <fix>3d</fix>
</trkpt>
<trkpt lat="-27.2744295" lon="151.2900611">
  <ele>352.09</ele>
  <time>2026-09-01T19:53:07Z</time>
  <course>293.19</course>
  <speed>0.9803060746521975</speed>
  <fix>3d</fix>
</trkpt>
<trkpt lat="-27.2744297" lon="151.2900604">
  <ele>352.19</ele>
  <time>2026-09-01T19:53:07Z</time>
  <course>292.46</course>
  <speed>0.9803060746521975</speed>
  <fix>3d</fix>
</trkpt>
<trkpt lat="-27.2744292" lon="151.2900621">
  <ele>351.86</ele>
  <time>2026-09-01T19:53:07Z</time>
  <course>251.97</course>
  <speed>0.97</speed>
  <fix>3d</fix>
</trkpt>
<trkpt lat="-27.2744298" lon="151.2900602">
  <ele>352.23</ele>
  <time>2026-09-01T19:53:07Z</time>
  <course>292.2</course>
  <speed>0.9929753269845127</speed>
  <fix>3d</fix>
</trkpt>
<trkpt lat="-27.27443" lon="151.2900595">
  <ele>352.33</ele>
  <time>2026-09-01T19:53:07Z</time>
  <course>291.45</course>
  <speed>0.9929753269845127</speed>
  <fix>3d</fix>
</trkpt>
<trkpt lat="-27.2744292" lon="151.2900621">
  <ele>351.86</ele>
  <time>2026-09-01T19:53:07Z</time>
  <course>251.97</course>
  <speed>0.97</speed>
  <fix>3d</fix>
</trkpt>
<trkpt lat="-27.2744301" lon="151.2900592">
  <ele>352.37</ele>
  <time>2026-09-01T19:53:07Z</time>
  <course>291.19</course>
  <speed>0.9929753269845127</speed>
  <fix>3d</fix>
</trkpt>
<trkpt lat="-27.2744303" lon="151.2900585">
  <ele>352.47</ele>
  <time>2026-09-01T19:53:07Z</time>
  <course>290.41</course>
  <speed>0.9962429422585637</speed>
  <fix>3d</fix>
</trkpt>
<trkpt lat="-27.2744298" lon="151.2900602">
  <ele>352.14</ele>
  <time>2026-09-01T19:53:07Z</time>
  <course>251.99</course>
  <speed>1.0</speed>
  <fix>3d</fix>
</trkpt>
<trkpt lat="-27.2744304" lon="151.2900582">
  <ele>352.5</ele>
  <time>2026-09-01T19:53:07Z</time>
  <course>290.13</course>
  <speed>0.9995999199679839</speed>
  <fix>3d</fix>
</trkpt>
<trkpt lat="-27.2744306" lon="151.2900575">
  <ele>352.61</ele>
  <time>2026-09-01T19:53:07Z</time>
  <course>289.33</course>
  <speed>0.9902019995940222</speed>
  <fix>3d</fix>
</trkpt>
<trkpt lat="-27.2744298" lon="151.2900602">
  <ele>352.14</ele>
  <time>2026-09-01T19:53:07Z</time>
  <course>251.99</course>
  <speed>1.0</speed>
  <fix>3d</fix>
</trkpt>
<trkpt lat="-27.2744307" lon="151.2900573">
  <ele>352.64</ele>
  <time>2026-09-01T19:53:07Z</time>
  <course>289.08</course>
  <speed>0.9936800289831733</speed>
  <fix>3d</fix>
</trkpt>
<trkpt lat="-27.2744309" lon="151.2900566">
  <ele>352.74</ele>
  <time>2026-09-01T19:53:07Z</time>
  <course>288.22</course>
  <speed>0.9879271228182774</speed>
  <fix>3d</fix>
</trkpt>
<trkpt lat="-27.2744304" lon="151.2900582">
  <ele>352.41</ele>
  <time>2026-09-01T19:53:07Z</time>
  <course>251.23</course>
  <speed>1.02</speed>
  <fix>3d</fix>
</trkpt>
<trkpt lat="-27.274431" lon="151.2900563">
  <ele>352.78</ele>
  <time>2026-09-01T19:53:07Z</time>
  <course>287.92</course>
  <speed>0.9879271228182774</speed>
  <fix>3d</fix>
</trkpt>
<trkpt lat="-27.2744312" lon="151.2900556">
  <ele>352.89</ele>
  <time>2026-09-01T19:53:07Z</time>
  <course>287.08</course>
  <speed>0.9730878685915265</speed>
  <fix>3d</fix>
</trkpt>
<trkpt lat="-27.2744304" lon="151.2900582">
  <ele>352.41</ele>
  <time>2026-09-01T19:53:07Z</time>
  <course>251.23</course>
  <speed>1.02</speed>
  <fix>3d</fix>
</trkpt>
<trkpt lat="-27.2744313" lon="151.2900553">
  <ele>352.93</ele>
  <time>2026-09-01T19:53:07Z</time>
  <course>286.74</course>
  <speed>0.976933979345585</speed>
  <fix>3d</fix>
</trkpt>
<trkpt lat="-27.2744316" lon="151.2900547">
  <ele>353.03</ele>
  <time>2026-09-01T19:53:07Z</time>
  <course>285.91</course>
  <speed>0.9625487000666512</speed>
  <fix>3d</fix>
</trkpt>
<trkpt lat="-27.274431" lon="151.2900563">
  <ele>352.69</ele>
  <time>2026-09-01T19:53:07Z</time>
  <course>249.66</course>
  <speed>1.01</speed>
  <fix>3d</fix>
</trkpt>
<trkpt lat="-27.2744317" lon="151.2900545">
  <ele>353.06</ele>
  <time>2026-09-01T19:53:07Z</time>
  <course>285.59</course>
  <speed>0.9534149149242422</speed>
  <fix>3d</fix>
</trkpt>
<trkpt lat="-27.2744319" lon="151.2900538">
  <ele>353.17</ele>
  <time>2026-09-01T19:53:07Z</time>
  <course>284.7</course>
  <speed>0.943716058992322</speed>
  <fix>3d</fix>
</trkpt>
<trkpt lat="-27.274431" lon="151.2900563">
  <ele>352.69</ele>
  <time>2026-09-01T19:53:07Z</time>
  <course>249.66</course>
  <speed>1.01</speed>
  <fix>3d</fix>
</trkpt>
<trkpt lat="-27.2744323" lon="151.2900529">
  <ele>353.31</ele>
  <time>2026-09-01T19:53:07Z</time>
  <course>283.46</course>
  <speed>0.9213034245024816</speed>
  <fix>3d</fix>
</trkpt>
<trkpt lat="-27.2744316" lon="151.2900544">
  <ele>352.96</ele>
  <time>2026-09-01T19:53:07Z</time>
  <course>247.27</course>
  <speed>0.99</speed>
  <fix>3d</fix>
</trkpt>
<trkpt lat="-27.2744327" lon="151.2900521">
  <ele>353.45</ele>
  <time>2026-09-01T19:53:07Z</time>
  <course>282.18</course>
  <speed>0.8955445270895244</speed>
  <fix>3d</fix>
</trkpt>
<trkpt lat="-27.2744316" lon="151.2900544">
  <ele>352.96</ele>
  <time>2026-09-01T19:53:07Z</time>
  <course>247.27</course>
  <speed>0.99</speed>
  <fix>3d</fix>
</trkpt>
<trkpt lat="-27.2744331" lon="151.2900513">
  <ele>353.59</ele>
  <time>2026-09-01T19:53:07Z</time>
  <course>280.88</course>
  <speed>0.8575546629807339</speed>
  <fix>3d</fix>
</trkpt>
<trkpt lat="-27.2744323" lon="151.2900526">
  <ele>353.25</ele>
  <time>2026-09-01T19:53:07Z</time>
  <course>244.14</course>
  <speed>0.94</speed>
  <fix>3d</fix>
</trkpt>
<trkpt lat="-27.2744335" lon="151.2900506">
  <ele>353.72</ele>
  <time>2026-09-01T19:53:07Z</time>
  <course>279.67</course>
  <speed>0.8209750300709517</speed>
  <fix>3d</fix>
</trkpt>
<trkpt lat="-27.2744323" lon="151.2900526">
  <ele>353.25</ele>
  <time>2026-09-01T19:53:07Z</time>
  <course>244.14</course>
  <speed>0.94</speed>
  <fix>3d</fix>
</trkpt>
<trkpt lat="-27.2744339" lon="151.2900499">
  <ele>353.85</ele>
  <time>2026-09-01T19:53:07Z</time>
  <course>278.73</course>
  <speed>0.7780102827083971</speed>
  <fix>3d</fix>
</trkpt>
<trkpt lat="-27.274433" lon="151.2900509">
  <ele>353.52</ele>
  <time>2026-09-01T19:53:07Z</time>
  <course>240.26</course>
  <speed>0.88</speed>
  <fix>3d</fix>
</trkpt>
<trkpt lat="-27.2744343" lon="151.2900492">
  <ele>353.96</ele>
  <time>2026-09-01T19:53:07Z</time>
  <course>278.26</course>
  <speed>0.73</speed>
  <fix>3d</fix>
</trkpt>
<trkpt lat="-27.274433" lon="151.2900509">
  <ele>353.52</ele>
  <time>2026-09-01T19:53:07Z</time>
  <course>240.26</course>
  <speed>0.88</speed>
  <fix>3d</fix>
</trkpt>
<trkpt lat="-27.2744347" lon="151.2900487">
  <ele>354.06</ele>
  <time>2026-09-01T19:53:07Z</time>
  <course>278.38</course>
  <speed>0.6929646455628167</speed>
  <fix>3d</fix>
</trkpt>
<trkpt lat="-27.2744339" lon="151.2900495">
  <ele>353.77</ele>
  <time>2026-09-01T19:53:07Z</time>
  <course>234.91</course>
  <speed>0.8</speed>
  <fix>3d</fix>
</trkpt>
<trkpt lat="-27.2744352" lon="151.2900482">
  <ele>354.14</ele>
  <time>2026-09-01T19:53:07Z</time>
  <course>279.12</course>
  <speed>0.6606814663663572</speed>
  <fix>3d</fix>
</trkpt>
<trkpt lat="-27.2744339" lon="151.2900495">
  <ele>353.77</ele>
  <time>2026-09-01T19:53:07Z</time>
  <course>234.91</course>
  <speed>0.8</speed>
  <fix>3d</fix>
</trkpt>
<trkpt lat="-27.2744356" lon="151.2900477">
  <ele>354.21</ele>
  <time>2026-09-01T19:53:07Z</time>
  <course>280.4</course>
  <speed>0.6268173577685928</speed>
  <fix>3d</fix>
</trkpt>
<trkpt lat="-27.2744348" lon="151.2900483">
  <ele>353.98</ele>
  <time>2026-09-01T19:53:07Z</time>
  <course>227.23</course>
  <speed>0.71</speed>
  <fix>3d</fix>
</trkpt>
<trkpt lat="-27.2744361" lon="151.2900474">
  <ele>354.27</ele>
  <time>2026-09-01T19:53:07Z</time>
  <course>282.1</course>
  <speed>0.5994163828258283</speed>
  <fix>3d</fix>
</trkpt>
<trkpt lat="-27.2744348" lon="151.2900483">
  <ele>353.98</ele>
  <time>2026-09-01T19:53:07Z</time>
  <course>227.23</course>
  <speed>0.71</speed>
  <fix>3d</fix>
</trkpt>
<trkpt lat="-27.2744366" lon="151.2900471">
  <ele>354.31</ele>
  <time>2026-09-01T19:53:07Z</time>
  <course>284.09</course>
  <speed>0.5852349955359812</speed>
  <fix>3d</fix>
</trkpt>
<trkpt lat="-27.2744357" lon="151.2900474">
  <ele>354.13</ele>
  <time>2026-09-01T19:53:07Z</time>
  <course>216.91</course>
  <speed>0.64</speed>
  <fix>3d</fix>
</trkpt>
<trkpt lat="-27.2744371" lon="151.2900469">
  <ele>354.34</ele>
  <time>2026-09-01T19:53:07Z</time>
  <course>286.29</course>
  <speed>0.5727128425310541</speed>
  <fix>3d</fix>
</trkpt>
<trkpt lat="-27.2744357" lon="151.2900474">
  <ele>354.13</ele>
  <time>2026-09-01T19:53:07Z</time>
  <course>216.91</course>
  <speed>0.64</speed>
  <fix>3d</fix>
</trkpt>
<trkpt lat="-27.2744375" lon="151.2900468">
  <ele>354.36</ele>
  <time>2026-09-01T19:53:07Z</time>
  <course>288.63</course>
  <speed>0.5714017850864661</speed>
  <fix>3d</fix>
</trkpt>
<trkpt lat="-27.2744366" lon="151.2900467">
  <ele>354.22</ele>
  <time>2026-09-01T19:53:07Z</time>
  <course>203.49</course>
  <speed>0.58</speed>
  <fix>3d</fix>
</trkpt>
<trkpt lat="-27.2744381" lon="151.2900467">
  <ele>354.36</ele>
  <time>2026-09-01T19:53:07Z</time>
  <course>291.07</course>
  <speed>0.5714017850864661</speed>
  <fix>3d</fix>
</trkpt>
<trkpt lat="-27.2744366" lon="151.2900467">
  <ele>354.22</ele>
  <time>2026-09-01T19:53:07Z</time>
  <course>203.49</course>
  <speed>0.58</speed>
  <fix>3d</fix>
</trkpt>
<trkpt lat="-27.2744386" lon="151.2900468">
  <ele>354.36</ele>
  <time>2026-09-01T19:53:07Z</time>
  <course>293.6</course>
  <speed>0.5966573556070519</speed>
  <fix>3d</fix>
</trkpt>
<trkpt lat="-27.2744376" lon="151.2900464">
  <ele>354.27</ele>
  <time>2026-09-01T19:53:07Z</time>
  <course>186.72</course>
  <speed>0.56</speed>
  <fix>3d</fix>
</trkpt>
<trkpt lat="-27.2744391" lon="151.2900469">
  <ele>354.35</ele>
  <time>2026-09-01T19:53:07Z</time>
  <course>296.18</course>
  <speed>0.6239390995922599</speed>
  <fix>3d</fix>
</trkpt>
<trkpt lat="-27.2744376" lon="151.2900464">
  <ele>354.27</ele>
  <time>2026-09-01T19:53:07Z</time>
  <course>186.72</course>
  <speed>0.56</speed>
  <fix>3d</fix>
</trkpt>
<trkpt lat="-27.2744396" lon="151.2900471">
  <ele>354.33</ele>
  <time>2026-09-01T19:53:07Z</time>
  <course>298.84</course>
  <speed>0.6760177512462228</speed>
  <fix>3d</fix>
</trkpt>
<trkpt lat="-27.2744386" lon="151.2900465">
  <ele>354.27</ele>
  <time>2026-09-01T19:53:07Z</time>
  <course>168.34</course>
  <speed>0.58</speed>
  <fix>3d</fix>
</trkpt>
<trkpt lat="-27.2744401" lon="151.2900475">
  <ele>354.31</ele>
  <time>2026-09-01T19:53:07Z</time>
  <course>301.57</course>
  <speed>0.7360027173862879</speed>
  <fix>3d</fix>
</trkpt>
<trkpt lat="-27.2744386" lon="151.2900465">
  <ele>354.27</ele>
  <time>2026-09-01T19:53:07Z</time>
  <course>168.34</course>
  <speed>0.58</speed>
  <fix>3d</fix>
</trkpt>
<trkpt lat="-27.2744407" lon="151.2900479">
  <ele>354.29</ele>
  <time>2026-09-01T19:53:07Z</time>
  <course>304.39</course>
  <speed>0.7998124780221925</speed>
  <fix>3d</fix>
</trkpt>
<trkpt lat="-27.2744397" lon="151.2900469">
  <ele>354.25</ele>
  <time>2026-09-01T19:53:07Z</time>
  <course>151.5</course>
  <speed>0.66</speed>
  <fix>3d</fix>
</trkpt>
<trkpt lat="-27.2744412" lon="151.2900485">
  <ele>354.27</ele>
  <time>2026-09-01T19:53:07Z</time>
  <course>307.31</course>
  <speed>0.8711486669908873</speed>
  <fix>3d</fix>
</trkpt>
<trkpt lat="-27.2744397" lon="151.2900469">
  <ele>354.25</ele>
  <time>2026-09-01T19:53:07Z</time>
  <course>151.5</course>
  <speed>0.66</speed>
  <fix>3d</fix>
</trkpt>
<trkpt lat="-27.2744417" lon="151.2900492">
  <ele>354.25</ele>
  <time>2026-09-01T19:53:07Z</time>
  <course>310.3</course>
  <speed>0.942019108086455</speed>
  <fix>3d</fix>
</trkpt>
<trkpt lat="-27.2744407" lon="151.2900477">
  <ele>354.22</ele>
  <time>2026-09-01T19:53:07Z</time>
  <course>138.05</course>
  <speed>0.78</speed>
  <fix>3d</fix>
</trkpt>
<trkpt lat="-27.2744422" lon="151.2900499">
  <ele>354.23</ele>
  <time>2026-09-01T19:53:07Z</time>
  <course>313.45</course>
  <speed>1.0262553288534</speed>
  <fix>3d</fix>
</trkpt>
<trkpt lat="-27.2744407" lon="151.2900477">
  <ele>354.22</ele>
  <time>2026-09-01T19:53:07Z</time>
  <course>138.05</course>
  <speed>0.78</speed>
  <fix>3d</fix>
</trkpt>
<trkpt lat="-27.2744427" lon="151.2900508">
  <ele>354.2</ele>
  <time>2026-09-01T19:53:07Z</time>
  <course>316.72</course>
  <speed>1.0830050784737808</speed>
  <fix>3d</fix>
</trkpt>
<trkpt lat="-27.2744418" lon="151.290049">
  <ele>354.17</ele>
  <time>2026-09-01T19:53:07Z</time>
  <course>127.82</course>
  <speed>0.93</speed>
  <fix>3d</fix>
</trkpt>
<trkpt lat="-27.274443" lon="151.2900517">
  <ele>354.18</ele>
  <time>2026-09-01T19:53:07Z</time>
  <course>320.17</course>
  <speed>0.8949301648732151</speed>
  <fix>3d</fix>
</trkpt>
<trkpt lat="-27.2744418" lon="151.290049">
  <ele>354.17</ele>
  <time>2026-09-01T19:53:07Z</time>
  <course>127.82</course>
  <speed>0.93</speed>
  <fix>3d</fix>
</trkpt>
<trkpt lat="-27.2744432" lon="151.2900525">
  <ele>354.15</ele>
  <time>2026-09-01T19:53:07Z</time>
  <course>323.84</course>
  <speed>0.8050465825031493</speed>
  <fix>3d</fix>
</trkpt>
<trkpt lat="-27.2744427" lon="151.2900506">
  <ele>354.13</ele>
  <time>2026-09-01T19:53:07Z</time>
  <course>117.02</course>
  <speed>0.94</speed>
  <fix>3d</fix>
</trkpt>
<trkpt lat="-27.2744431" lon="151.2900532">
  <ele>354.13</ele>
  <time>2026-09-01T19:53:07Z</time>
  <course>327.76</course>
  <speed>0.7083784299369935</speed>
  <fix>3d</fix>
</trkpt>
<trkpt lat="-27.2744427" lon="151.2900506">
  <ele>354.13</ele>
  <time>2026-09-01T19:53:07Z</time>
  <course>117.02</course>
  <speed>0.94</speed>
  <fix>3d</fix>
</trkpt>
<trkpt lat="-27.2744429" lon="151.2900538">
  <ele>354.1</ele>
  <time>2026-09-01T19:53:07Z</time>
  <course>331.96</course>
  <speed>0.7710382610480494</speed>
  <fix>3d</fix>
</trkpt>
<trkpt lat="-27.2744432" lon="151.2900523">
  <ele>354.08</ele>
  <time>2026-09-01T19:53:07Z</time>
  <course>93.16</course>
  <speed>0.74</speed>
  <fix>3d</fix>
</trkpt>
<trkpt lat="-27.2744422" lon="151.2900542">
  <ele>354.07</ele>
  <time>2026-09-01T19:53:07Z</time>
  <course>336.43</course>
  <speed>0.9577055915050303</speed>
  <fix>3d</fix>
</trkpt>
<trkpt lat="-27.2744432" lon="151.2900523">
  <ele>354.08</ele>
  <time>2026-09-01T19:53:07Z</time>
  <course>93.16</course>
  <speed>0.74</speed>
  <fix>3d</fix>
</trkpt>
<trkpt lat="-27.2744413" lon="151.2900546">
  <ele>354.03</ele>
  <time>2026-09-01T19:53:07Z</time>
  <course>341.19</course>
  <speed>1.2624183141890806</speed>
  <fix>3d</fix>
</trkpt>
<trkpt lat="-27.2744428" lon="151.2900536">
  <ele>354.03</ele>
  <time>2026-09-01T19:53:07Z</time>
  <course>49.1</course>
  <speed>0.75</speed>
  <fix>3d</fix>
</trkpt>
<trkpt lat="-27.2744401" lon="151.2900549">
  <ele>353.99</ele>
  <time>2026-09-01T19:53:07Z</time>
  <course>346.18</course>
  <speed>1.549322432549145</speed>
  <fix>3d</fix>
</trkpt>
<trkpt lat="-27.2744428" lon="151.2900536">
  <ele>354.03</ele>
  <time>2026-09-01T19:53:07Z</time>
  <course>49.1</course>
  <speed>0.75</speed>
  <fix>3d</fix>
</trkpt>
<trkpt lat="-27.2744386" lon="151.2900552">
  <ele>353.95</ele>
  <time>2026-09-01T19:53:07Z</time>
  <course>351.38</course>
  <speed>1.896549498431296</speed>
  <fix>3d</fix>
</trkpt>
<trkpt lat="-27.2744414" lon="151.2900546">
  <ele>353.96</ele>
  <time>2026-09-01T19:53:07Z</time>
  <course>20.33</course>
  <speed>1.15</speed>
  <fix>3d</fix>
</trkpt>
<trkpt lat="-27.2744368" lon="151.2900554">
  <ele>353.91</ele>
  <time>2026-09-01T19:53:07Z</time>
  <course>356.72</course>
  <speed>2.261725005388586</speed>
  <fix>3d</fix>
</trkpt>
<trkpt lat="-27.2744414" lon="151.2900546">
  <ele>353.96</ele>
  <time>2026-09-01T19:53:07Z</time>
  <course>20.33</course>
  <speed>1.15</speed>
  <fix>3d</fix>
</trkpt>
<trkpt lat="-27.2744347" lon="151.2900557">
  <ele>353.87</ele>
  <time>2026-09-01T19:53:07Z</time>
  <course>2.16</course>
  <speed>2.671722290957651</speed>
  <fix>3d</fix>
</trkpt>
<trkpt lat="-27.2744389" lon="151.2900553">
  <ele>353.89</ele>
  <time>2026-09-01T19:53:07Z</time>
  <course>9.43</course>
  <speed>1.75</speed>
  <fix>3d</fix>
</trkpt>
<trkpt lat="-27.2744322" lon="151.290056">
  <ele>353.83</ele>
  <time>2026-09-01T19:53:07Z</time>
  <course>7.63</course>
  <speed>3.0159741378201503</speed>
  <fix>3d</fix>
</trkpt>
<trkpt lat="-27.2744389" lon="151.2900553">
  <ele>353.89</ele>
  <time>2026-09-01T19:53:07Z</time>
  <course>9.43</course>
  <speed>1.75</speed>
  <fix>3d</fix>
</trkpt>
<trkpt lat="-27.2744295" lon="151.2900564">
  <ele>353.8</ele>
  <time>2026-09-01T19:53:07Z</time>
  <course>13.18</course>
  <speed>3.3253721596236416</speed>
  <fix>3d</fix>
</trkpt>
<trkpt lat="-27.2744352" lon="151.2900558">
  <ele>353.81</ele>
  <time>2026-09-01T19:53:07Z</time>
  <course>6.68</course>
  <speed>2.43</speed>
  <fix>3d</fix>
</trkpt>
<trkpt lat="-27.2744265" lon="151.2900569">
  <ele>353.78</ele>
  <time>2026-09-01T19:53:07Z</time>
  <course>18.79</course>
  <speed>3.6121184919656217</speed>
  <fix>3d</fix>
</trkpt>
<trkpt lat="-27.2744352" lon="151.2900558">
  <ele>353.81</ele>
  <time>2026-09-01T19:53:07Z</time>
  <course>6.68</course>
  <speed>2.43</speed>
  <fix>3d</fix>
</trkpt>
<trkpt lat="-27.2744234" lon="151.2900575">
  <ele>353.77</ele>
  <time>2026-09-01T19:53:07Z</time>
  <course>24.44</course>
  <speed>3.8461019227264375</speed>
  <fix>3d</fix>
</trkpt>
<trkpt lat="-27.2744302" lon="151.2900565">
  <ele>353.75</ele>
  <time>2026-09-01T19:53:07Z</time>
  <course>7.84</course>
  <speed>3.07</speed>
  <fix>3d</fix>
</trkpt>
<trkpt lat="-27.27442" lon="151.2900583">
  <ele>353.77</ele>
  <time>2026-09-01T19:53:07Z</time>
  <course>30.08</course>
  <speed>4.053467651283281</speed>
  <fix>3d</fix>
</trkpt>
<trkpt lat="-27.2744302" lon="151.2900565">
  <ele>353.75</ele>
  <time>2026-09-01T19:53:07Z</time>
  <course>7.84</course>
  <speed>3.07</speed>
  <fix>3d</fix>
</trkpt>
<trkpt lat="-27.2744166" lon="151.2900593">
  <ele>353.78</ele>
  <time>2026-09-01T19:53:07Z</time>
  <course>35.72</course>
  <speed>4.233591855623308</speed>
  <fix>3d</fix>
</trkpt>
<trkpt lat="-27.2744243" lon="151.2900576">
  <ele>353.72</ele>
  <time>2026-09-01T19:53:07Z</time>
  <course>11.13</course>
  <speed>3.61</speed>
  <fix>3d</fix>
</trkpt>
<trkpt lat="-27.274413" lon="151.2900606">
  <ele>353.8</ele>
  <time>2026-09-01T19:53:07Z</time>
  <course>41.37</course>
  <speed>4.386171451277298</speed>
  <fix>3d</fix>
</trkpt>
<trkpt lat="-27.2744243" lon="151.2900576">
  <ele>353.72</ele>
  <time>2026-09-01T19:53:07Z</time>
  <course>11.13</course>
  <speed>3.61</speed>
  <fix>3d</fix>
</trkpt>
<trkpt lat="-27.2744095" lon="151.2900621">
  <ele>353.82</ele>
  <time>2026-09-01T19:53:07Z</time>
  <course>47.07</course>
  <speed>4.516691266845676</speed>
  <fix>3d</fix>
</trkpt>
<trkpt lat="-27.2744177" lon="151.2900594">
  <ele>353.72</ele>
  <time>2026-09-01T19:53:07Z</time>
  <course>15.71</course>
  <speed>4.02</speed>
  <fix>3d</fix>
</trkpt>
<trkpt lat="-27.2744058" lon="151.2900638">
  <ele>353.86</ele>
  <time>2026-09-01T19:53:07Z</time>
  <course>52.82</course>
  <speed>4.607700077044946</speed>
  <fix>3d</fix>
</trkpt>
<trkpt lat="-27.2744177" lon="151.2900594">
  <ele>353.72</ele>
  <time>2026-09-01T19:53:07Z</time>
  <course>15.71</course>
  <speed>4.02</speed>
  <fix>3d</fix>
</trkpt>
<trkpt lat="-27.2744022" lon="151.2900657">
  <ele>353.9</ele>
  <time>2026-09-01T19:53:07Z</time>
  <course>58.63</course>
  <speed>4.6599678110476255</speed>
  <fix>3d</fix>
</trkpt>
<trkpt lat="-27.2744105" lon="151.2900621">
  <ele>353.77</ele>
  <time>2026-09-01T19:53:07Z</time>
  <course>20.96</course>
  <speed>4.32</speed>
  <fix>3d</fix>
</trkpt>
<trkpt lat="-27.2743987" lon="151.2900679">
  <ele>353.95</ele>
  <time>2026-09-01T19:53:07Z</time>
  <course>64.5</course>
  <speed>4.673842102596107</speed>
  <fix>3d</fix>
</trkpt>
<trkpt lat="-27.2744105" lon="151.2900621">
  <ele>353.77</ele>
  <time>2026-09-01T19:53:07Z</time>
  <course>20.96</course>
  <speed>4.32</speed>
  <fix>3d</fix>
</trkpt>
<trkpt lat="-27.2743952" lon="151.2900702">
  <ele>354.0</ele>
  <time>2026-09-01T19:53:07Z</time>
  <course>70.4</course>
  <speed>4.639622829498105</speed>
  <fix>3d</fix>
</trkpt>
<trkpt lat="-27.2744032" lon="151.2900656">
  <ele>353.84</ele>
  <time>2026-09-01T19:53:07Z</time>
  <course>26.38</course>
  <speed>4.5</speed>
  <fix>3d</fix>
</trkpt>
<trkpt lat="-27.2743919" lon="151.2900728">
  <ele>354.05</ele>
  <time>2026-09-01T19:53:07Z</time>
  <course>76.36</course>
  <speed>4.551801841029549</speed>
  <fix>3d</fix>
</trkpt>
<trkpt lat="-27.2744032" lon="151.2900656">
  <ele>353.84</ele>
  <time>2026-09-01T19:53:07Z</time>
  <course>26.38</course>
  <speed>4.5</speed>
  <fix>3d</fix>
</trkpt>
<trkpt lat="-27.2743888" lon="151.2900753">
  <ele>354.11</ele>
  <time>2026-09-01T19:53:07Z</time>
  <course>82.22</course>
  <speed>4.406007262817437</speed>
  <fix>3d</fix>
</trkpt>
<trkpt lat="-27.2743961" lon="151.29007">
  <ele>353.94</ele>
  <time>2026-09-01T19:53:07Z</time>
  <course>31.66</course>
  <speed>4.5</speed>
  <fix>3d</fix>
</trkpt>
<trkpt lat="-27.2743858" lon="151.2900779">
  <ele>354.16</ele>
  <time>2026-09-01T19:53:07Z</time>
  <course>87.9</course>
  <speed>4.213846224057067</speed>
  <fix>3d</fix>
</trkpt>
<trkpt lat="-27.2743961" lon="151.29007">
  <ele>353.94</ele>
  <time>2026-09-01T19:53:07Z</time>
  <course>31.66</course>
  <speed>4.5</speed>
  <fix>3d</fix>
</trkpt>
<trkpt lat="-27.2743832" lon="151.2900805">
  <ele>354.21</ele>
  <time>2026-09-01T19:53:07Z</time>
  <course>93.26</course>
  <speed>3.966257681996973</speed>
  <fix>3d</fix>
</trkpt>
<trkpt lat="-27.2743895" lon="151.2900751">
  <ele>354.05</ele>
  <time>2026-09-01T19:53:07Z</time>
  <course>36.59</course>
  <speed>4.31</speed>
  <fix>3d</fix>
</trkpt>
<trkpt lat="-27.2743807" lon="151.2900831">
  <ele>354.25</ele>
  <time>2026-09-01T19:53:07Z</time>
  <course>98.07</course>
  <speed>3.684358831601504</speed>
  <fix>3d</fix>
</trkpt>
<trkpt lat="-27.2743895" lon="151.2900751">
  <ele>354.05</ele>
  <time>2026-09-01T19:53:07Z</time>
  <course>36.59</course>
  <speed>4.31</speed>
  <fix>3d</fix>
</trkpt>
<trkpt lat="-27.2743786" lon="151.2900856">
  <ele>354.28</ele>
  <time>2026-09-01T19:53:07Z</time>
  <course>102.08</course>
  <speed>3.382366035780279</speed>
  <fix>3d</fix>
</trkpt>
<trkpt lat="-27.2743837" lon="151.2900804">
  <ele>354.15</ele>
  <time>2026-09-01T19:53:07Z</time>
  <course>41.24</course>
  <speed>3.9</speed>
  <fix>3d</fix>
</trkpt>
<trkpt lat="-27.2743767" lon="151.290088">
  <ele>354.31</ele>
  <time>2026-09-01T19:53:07Z</time>
  <course>105.8</course>
  <speed>3.1458703088334716</speed>
  <fix>3d</fix>
</trkpt>
<trkpt lat="-27.2743837" lon="151.2900804">
  <ele>354.15</ele>
  <time>2026-09-01T19:53:07Z</time>
  <course>41.24</course>
  <speed>3.9</speed>
  <fix>3d</fix>
</trkpt>
<trkpt lat="-27.2743751" lon="151.2900903">
  <ele>354.32</ele>
  <time>2026-09-01T19:53:07Z</time>
  <course>109.46</course>
  <speed>2.9189895511974684</speed>
  <fix>3d</fix>
</trkpt>
<trkpt lat="-27.2743791" lon="151.2900854">
  <ele>354.23</ele>
  <time>2026-09-01T19:53:07Z</time>
  <course>46.45</course>
  <speed>3.39</speed>
  <fix>3d</fix>
</trkpt>
<trkpt lat="-27.2743738" lon="151.2900927">
  <ele>354.32</ele>
  <time>2026-09-01T19:53:07Z</time>
  <course>112.84</course>
  <speed>2.732489707208428</speed>
  <fix>3d</fix>
</trkpt>
<trkpt lat="-27.2743791" lon="151.2900854">
  <ele>354.23</ele>
  <time>2026-09-01T19:53:07Z</time>
  <course>46.45</course>
  <speed>3.39</speed>
  <fix>3d</fix>
</trkpt>
<trkpt lat="-27.2743728" lon="151.290095">
  <ele>354.32</ele>
  <time>2026-09-01T19:53:07Z</time>
  <course>115.79</course>
  <speed>2.590772085691831</speed>
  <fix>3d</fix>
</trkpt>
<trkpt lat="-27.2743754" lon="151.2900903">
  <ele>354.27</ele>
  <time>2026-09-01T19:53:07Z</time>
  <course>54.12</course>
  <speed>2.92</speed>
  <fix>3d</fix>
</trkpt>
<trkpt lat="-27.2743721" lon="151.2900974">
  <ele>354.3</ele>
  <time>2026-09-01T19:53:07Z</time>
  <course>118.32</course>
  <speed>2.500659912902992</speed>
  <fix>3d</fix>
</trkpt>
<trkpt lat="-27.2743754" lon="151.2900903">
  <ele>354.27</ele>
  <time>2026-09-01T19:53:07Z</time>
  <course>54.12</course>
  <speed>2.92</speed>
  <fix>3d</fix>
</trkpt>
<trkpt lat="-27.2743717" lon="151.2900998">
  <ele>354.26</ele>
  <time>2026-09-01T19:53:07Z</time>
  <course>120.47</course>
  <speed>2.4350154003619773</speed>
  <fix>3d</fix>
</trkpt>
<trkpt lat="-27.2743729" lon="151.2900951">
  <ele>354.26</ele>
  <time>2026-09-01T19:53:07Z</time>
  <course>66.37</course>
  <speed>2.58</speed>
  <fix>3d</fix>
</trkpt>
<trkpt lat="-27.2743716" lon="151.2901022">
  <ele>354.22</ele>
  <time>2026-09-01T19:53:07Z</time>
  <course>122.33</course>
  <speed>2.3705273674859777</speed>
  <fix>3d</fix>
</trkpt>
<trkpt lat="-27.2743729" lon="151.2900951">
  <ele>354.26</ele>
  <time>2026-09-01T19:53:07Z</time>
  <course>66.37</course>
  <speed>2.58</speed>
  <fix>3d</fix>
</trkpt>
<trkpt lat="-27.2743718" lon="151.2901045">
  <ele>354.16</ele>
  <time>2026-09-01T19:53:07Z</time>
  <course>123.98</course>
  <speed>2.278618002210989</speed>
  <fix>3d</fix>
</trkpt>
<trkpt lat="-27.2743717" lon="151.2900999">
  <ele>354.21</ele>
  <time>2026-09-01T19:53:07Z</time>
  <course>81.87</course>
  <speed>2.4</speed>
  <fix>3d</fix>
</trkpt>
<trkpt lat="-27.2743721" lon="151.2901067">
  <ele>354.11</ele>
  <time>2026-09-01T19:53:07Z</time>
  <course>125.52</course>
  <speed>2.195358740616212</speed>
  <fix>3d</fix>
</trkpt>
<trkpt lat="-27.2743717" lon="151.2900999">
  <ele>354.21</ele>
  <time>2026-09-01T19:53:07Z</time>
  <course>81.87</course>
  <speed>2.4</speed>
  <fix>3d</fix>
</trkpt>
<trkpt lat="-27.2743728" lon="151.2901087">
  <ele>354.05</ele>
  <time>2026-09-01T19:53:07Z</time>
  <course>127.12</course>
  <speed>2.1428252378577213</speed>
  <fix>3d</fix>
</trkpt>
<trkpt lat="-27.2743716" lon="151.2901046">
  <ele>354.12</ele>
  <time>2026-09-01T19:53:07Z</time>
  <course>97.57</course>
  <speed>2.24</speed>
  <fix>3d</fix>
</trkpt>
<trkpt lat="-27.2743737" lon="151.2901106">
  <ele>354.0</ele>
  <time>2026-09-01T19:53:07Z</time>
  <course>128.85</course>
  <speed>2.1300938946440833</speed>
  <fix>3d</fix>
</trkpt>
<trkpt lat="-27.2743716" lon="151.2901046">
  <ele>354.12</ele>
  <time>2026-09-01T19:53:07Z</time>
  <course>97.57</course>
  <speed>2.24</speed>
  <fix>3d</fix>
</trkpt>
<trkpt lat="-27.2743748" lon="151.2901122">
  <ele>353.96</ele>
  <time>2026-09-01T19:53:07Z</time>
  <course>130.75</course>
  <speed>2.148697279748825</speed>
  <fix>3d</fix>
</trkpt>
<trkpt lat="-27.2743726" lon="151.2901088">
  <ele>354.02</ele>
  <time>2026-09-01T19:53:07Z</time>
  <course>113.65</course>
  <speed>2.12</speed>
  <fix>3d</fix>
</trkpt>
<trkpt lat="-27.2743761" lon="151.2901138">
  <ele>353.93</ele>
  <time>2026-09-01T19:53:07Z</time>
  <course>132.82</course>
  <speed>2.1942652528807907</speed>
  <fix>3d</fix>
</trkpt>
<trkpt lat="-27.2743726" lon="151.2901088">
  <ele>354.02</ele>
  <time>2026-09-01T19:53:07Z</time>
  <course>113.65</course>
  <speed>2.12</speed>
  <fix>3d</fix>
</trkpt>
<trkpt lat="-27.2743776" lon="151.2901152">
  <ele>353.9</ele>
  <time>2026-09-01T19:53:07Z</time>
  <course>135.02</course>
  <speed>2.2660317738284252</speed>
  <fix>3d</fix>
</trkpt>
<trkpt lat="-27.2743746" lon="151.2901124">
  <ele>353.93</ele>
  <time>2026-09-01T19:53:07Z</time>
  <course>129.28</course>
  <speed>2.11</speed>
  <fix>3d</fix>
</trkpt>
<trkpt lat="-27.2743792" lon="151.2901165">
  <ele>353.89</ele>
  <time>2026-09-01T19:53:07Z</time>
  <course>137.31</course>
  <speed>2.3564804263986576</speed>
  <fix>3d</fix>
</trkpt>
<trkpt lat="-27.2743746" lon="151.2901124">
  <ele>353.93</ele>
  <time>2026-09-01T19:53:07Z</time>
  <course>129.28</course>
  <speed>2.11</speed>
  <fix>3d</fix>
</trkpt>
<trkpt lat="-27.274381" lon="151.2901177">
  <ele>353.89</ele>
  <time>2026-09-01T19:53:07Z</time>
  <course>139.65</course>
  <speed>2.4554632964066068</speed>
  <fix>3d</fix>
</trkpt>
<trkpt lat="-27.2743774" lon="151.2901154">
  <ele>353.88</ele>
  <time>2026-09-01T19:53:07Z</time>
  <course>142.3</course>
  <speed>2.22</speed>
  <fix>3d</fix>
</trkpt>
<trkpt lat="-27.274383" lon="151.2901188">
  <ele>353.9</ele>
  <time>2026-09-01T19:53:07Z</time>
  <course>142.06</course>
  <speed>2.5698443532634423</speed>
  <fix>3d</fix>
</trkpt>
<trkpt lat="-27.2743774" lon="151.2901154">
  <ele>353.88</ele>
  <time>2026-09-01T19:53:07Z</time>
  <course>142.3</course>
  <speed>2.22</speed>
  <fix>3d</fix>
</trkpt>
<trkpt lat="-27.2743851" lon="151.2901198">
  <ele>353.91</ele>
  <time>2026-09-01T19:53:07Z</time>
  <course>144.48</course>
  <speed>2.6815853519886326</speed>
  <fix>3d</fix>
</trkpt>
<trkpt lat="-27.2743809" lon="151.290118">
  <ele>353.87</ele>
  <time>2026-09-01T19:53:07Z</time>
  <course>151.86</course>
  <speed>2.41</speed>
  <fix>3d</fix>
</trkpt>
<trkpt lat="-27.2743874" lon="151.2901208">
  <ele>353.92</ele>
  <time>2026-09-01T19:53:07Z</time>
  <course>146.94</course>
  <speed>2.799017684831591</speed>
  <fix>3d</fix>
</trkpt>
<trkpt lat="-27.2743809" lon="151.290118">
  <ele>353.87</ele>
  <time>2026-09-01T19:53:07Z</time>
  <course>151.86</course>
  <speed>2.41</speed>
  <fix>3d</fix>
</trkpt>
<trkpt lat="-27.2743898" lon="151.2901218">
  <ele>353.95</ele>
  <time>2026-09-01T19:53:07Z</time>
  <course>149.52</course>
  <speed>2.912541845192958</speed>
  <fix>3d</fix>
</trkpt>
<trkpt lat="-27.274385" lon="151.2901201">
  <ele>353.89</ele>
  <time>2026-09-01T19:53:07Z</time>
  <course>158.07</course>
  <speed>2.63</speed>
  <fix>3d</fix>
</trkpt>
<trkpt lat="-27.2743922" lon="151.2901227">
  <ele>353.97</ele>
  <time>2026-09-01T19:53:07Z</time>
  <course>153.29</course>
  <speed>2.995279619668254</speed>
  <fix>3d</fix>
</trkpt>
<trkpt lat="-27.274385" lon="151.2901201">
  <ele>353.89</ele>
  <time>2026-09-01T19:53:07Z</time>
  <course>158.07</course>
  <speed>2.63</speed>
  <fix>3d</fix>
</trkpt>
<trkpt lat="-27.2743947" lon="151.2901236">
  <ele>354.0</ele>
  <time>2026-09-01T19:53:07Z</time>
  <course>157.94</course>
  <speed>2.99322568477554</speed>
  <fix>3d</fix>
</trkpt>
<trkpt lat="-27.2743896" lon="151.290122">
  <ele>353.93</ele>
  <time>2026-09-01T19:53:07Z</time>
  <course>161.51</course>
  <speed>2.84</speed>
  <fix>3d</fix>
</trkpt>
<trkpt lat="-27.2743972" lon="151.2901244">
  <ele>354.02</ele>
  <time>2026-09-01T19:53:07Z</time>
  <course>163.06</course>
  <speed>2.938196725884773</speed>
  <fix>3d</fix>
</trkpt>
<trkpt lat="-27.2743896" lon="151.290122">
  <ele>353.93</ele>
  <time>2026-09-01T19:53:07Z</time>
  <course>161.51</course>
  <speed>2.84</speed>
  <fix>3d</fix>
</trkpt>
<trkpt lat="-27.2743997" lon="151.2901251">
  <ele>354.05</ele>
  <time>2026-09-01T19:53:07Z</time>
  <course>168.07</course>
  <speed>2.8692333470807148</speed>
  <fix>3d</fix>
</trkpt>
<trkpt lat="-27.2743946" lon="151.2901237">
  <ele>353.97</ele>
  <time>2026-09-01T19:53:07Z</time>
  <course>163.49</course>
  <speed>2.92</speed>
  <fix>3d</fix>
</trkpt>
<trkpt lat="-27.2744021" lon="151.2901258">
  <ele>354.08</ele>
  <time>2026-09-01T19:53:07Z</time>
  <course>172.6</course>
  <speed>2.797320146139873</speed>
  <fix>3d</fix>
</trkpt>
<trkpt lat="-27.2743946" lon="151.2901237">
  <ele>353.97</ele>
  <time>2026-09-01T19:53:07Z</time>
  <course>163.49</course>
  <speed>2.92</speed>
  <fix>3d</fix>
</trkpt>
<trkpt lat="-27.2744045" lon="151.2901264">
  <ele>354.1</ele>
  <time>2026-09-01T19:53:07Z</time>
  <course>176.55</course>
  <speed>2.753942628305826</speed>
  <fix>3d</fix>
</trkpt>
<trkpt lat="-27.2743996" lon="151.2901253">
  <ele>354.03</ele>
  <time>2026-09-01T19:53:07Z</time>
  <course>165.89</course>
  <speed>2.83</speed>
  <fix>3d</fix>
</trkpt>
<trkpt lat="-27.2744069" lon="151.2901268">
  <ele>354.12</ele>
  <time>2026-09-01T19:53:07Z</time>
  <course>179.94</course>
  <speed>2.72389427107588</speed>
  <fix>3d</fix>
</trkpt>
<trkpt lat="-27.2743996" lon="151.2901253">
  <ele>354.03</ele>
  <time>2026-09-01T19:53:07Z</time>
  <course>165.89</course>
  <speed>2.83</speed>
  <fix>3d</fix>
</trkpt>
<trkpt lat="-27.2744092" lon="151.2901271">
  <ele>354.14</ele>
  <time>2026-09-01T19:53:07Z</time>
  <course>182.9</course>
  <speed>2.7073972741361767</speed>
  <fix>3d</fix>
</trkpt>
<trkpt lat="-27.2744045" lon="151.2901264">
  <ele>354.09</ele>
  <time>2026-09-01T19:53:07Z</time>
  <course>169.96</course>
  <speed>2.71</speed>
  <fix>3d</fix>
</trkpt>
<trkpt lat="-27.2744116" lon="151.2901272">
  <ele>354.14</ele>
  <time>2026-09-01T19:53:07Z</time>
  <course>185.49</course>
  <speed>2.720073528417936</speed>
  <fix>3d</fix>
</trkpt>
<trkpt lat="-27.2744045" lon="151.2901264">
  <ele>354.09</ele>
  <time>2026-09-01T19:53:07Z</time>
  <course>169.96</course>
  <speed>2.71</speed>
  <fix>3d</fix>
</trkpt>
<trkpt lat="-27.2744141" lon="151.2901271">
  <ele>354.14</ele>
  <time>2026-09-01T19:53:07Z</time>
  <course>187.74</course>
  <speed>2.7652305509667725</speed>
  <fix>3d</fix>
</trkpt>
<trkpt lat="-27.2744093" lon="151.2901271">
  <ele>354.13</ele>
  <time>2026-09-01T19:53:07Z</time>
  <course>176.08</course>
  <speed>2.67</speed>
  <fix>3d</fix>
</trkpt>
<trkpt lat="-27.2744165" lon="151.2901268">
  <ele>354.12</ele>
  <time>2026-09-01T19:53:07Z</time>
  <course>189.71</course>
  <speed>2.8369349657685143</speed>
  <fix>3d</fix>
</trkpt>
<trkpt lat="-27.2744093" lon="151.2901271">
  <ele>354.13</ele>
  <time>2026-09-01T19:53:07Z</time>
  <course>176.08</course>
  <speed>2.67</speed>
  <fix>3d</fix>
</trkpt>
<trkpt lat="-27.2744166" lon="151.2901268">
  <ele>354.12</ele>
  <time>2026-09-01T19:53:07Z</time>
  <course>189.77</course>
  <speed>2.8482275190019495</speed>
  <fix>3d</fix>
</trkpt>
<trkpt lat="-27.274419" lon="151.2901263">
  <ele>354.09</ele>
  <time>2026-09-01T19:53:07Z</time>
  <course>191.5</course>
  <speed>2.9578708558691336</speed>
  <fix>3d</fix>
</trkpt>
<trkpt lat="-27.2744141" lon="151.2901272">
  <ele>354.13</ele>
  <time>2026-09-01T19:53:07Z</time>
  <course>184.07</course>
  <speed>2.73</speed>
  <fix>3d</fix>
</trkpt>
<trkpt lat="-27.2744191" lon="151.2901263">
  <ele>354.09</ele>
  <time>2026-09-01T19:53:07Z</time>
  <course>191.56</course>
  <speed>2.9600168918436935</speed>
  <fix>3d</fix>
</trkpt>
<trkpt lat="-27.2744217" lon="151.2901256">
  <ele>354.06</ele>
  <time>2026-09-01T19:53:07Z</time>
  <course>193.2</course>
  <speed>3.119647415975081</speed>
  <fix>3d</fix>
</trkpt>
<trkpt lat="-27.2744141" lon="151.2901272">
  <ele>354.13</ele>
  <time>2026-09-01T19:53:07Z</time>
  <course>184.07</course>
  <speed>2.73</speed>
  <fix>3d</fix>
</trkpt>
<trkpt lat="-27.2744217" lon="151.2901256">
  <ele>354.05</ele>
  <time>2026-09-01T19:53:07Z</time>
  <course>193.26</course>
  <speed>3.1320919526731648</speed>
  <fix>3d</fix>
</trkpt>
<trkpt lat="-27.2744243" lon="151.2901246">
  <ele>354.01</ele>
  <time>2026-09-01T19:53:07Z</time>
  <course>194.95</course>
  <speed>3.319292093203007</speed>
  <fix>3d</fix>
</trkpt>
<trkpt lat="-27.2744191" lon="151.2901264">
  <ele>354.09</ele>
  <time>2026-09-01T19:53:07Z</time>
  <course>192.86</course>
  <speed>2.93</speed>
  <fix>3d</fix>
</trkpt>
<trkpt lat="-27.2744255" lon="151.2901241">
  <ele>353.99</ele>
  <time>2026-09-01T19:53:07Z</time>
  <course>195.7</course>
  <speed>3.4093987739776055</speed>
  <fix>3d</fix>
</trkpt>
<trkpt lat="-27.2744272" lon="151.2901233">
  <ele>353.96</ele>
  <time>2026-09-01T19:53:07Z</time>
  <course>196.98</course>
  <speed>3.531416146533852</speed>
  <fix>3d</fix>
</trkpt>
<trkpt lat="-27.2744191" lon="151.2901264">
  <ele>354.09</ele>
  <time>2026-09-01T19:53:07Z</time>
  <course>192.86</course>
  <speed>2.93</speed>
  <fix>3d</fix>
</trkpt>
<trkpt lat="-27.274428" lon="151.2901228">
  <ele>353.94</ele>
  <time>2026-09-01T19:53:07Z</time>
  <course>197.68</course>
  <speed>3.596400978756401</speed>
  <fix>3d</fix>
</trkpt>
<trkpt lat="-27.27443" lon="151.2901217">
  <ele>353.91</ele>
  <time>2026-09-01T19:53:07Z</time>
  <course>199.36</course>
  <speed>3.721787205093811</speed>
  <fix>3d</fix>
</trkpt>
<trkpt lat="-27.2744244" lon="151.2901246">
  <ele>354.01</ele>
  <time>2026-09-01T19:53:07Z</time>
  <course>201.09</course>
  <speed>3.28</speed>
  <fix>3d</fix>
</trkpt>
<trkpt lat="-27.2744301" lon="151.2901216">
  <ele>353.91</ele>
  <time>2026-09-01T19:53:07Z</time>
  <course>199.43</course>
  <speed>3.7264728631777264</speed>
  <fix>3d</fix>
</trkpt>
<trkpt lat="-27.2744329" lon="151.2901198">
  <ele>353.86</ele>
  <time>2026-09-01T19:53:07Z</time>
  <course>201.54</course>
  <speed>3.860634662850138</speed>
  <fix>3d</fix>
</trkpt>
<trkpt lat="-27.2744244" lon="151.2901246">
  <ele>354.01</ele>
  <time>2026-09-01T19:53:07Z</time>
  <course>201.09</course>
  <speed>3.28</speed>
  <fix>3d</fix>
</trkpt>
<trkpt lat="-27.2744332" lon="151.2901196">
  <ele>353.86</ele>
  <time>2026-09-01T19:53:07Z</time>
  <course>201.69</course>
  <speed>3.871136783943445</speed>
  <fix>3d</fix>
</trkpt>
<trkpt lat="-27.2744358" lon="151.2901176">
  <ele>353.82</ele>
  <time>2026-09-01T19:53:07Z</time>
  <course>203.54</course>
  <speed>3.97</speed>
  <fix>3d</fix>
</trkpt>
<trkpt lat="-27.27443" lon="151.2901216">
  <ele>353.9</ele>
  <time>2026-09-01T19:53:07Z</time>
  <course>208.54</course>
  <speed>3.66</speed>
  <fix>3d</fix>
</trkpt>
<trkpt lat="-27.2744366" lon="151.290117">
  <ele>353.82</ele>
  <time>2026-09-01T19:53:07Z</time>
  <course>204.1</course>
  <speed>3.996648596011413</speed>
  <fix>3d</fix>
</trkpt>
<trkpt lat="-27.2744387" lon="151.2901152">
  <ele>353.8</ele>
  <time>2026-09-01T19:53:07Z</time>
  <course>205.58</course>
  <speed>4.052912532981683</speed>
  <fix>3d</fix>
</trkpt>
<trkpt lat="-27.27443" lon="151.2901216">
  <ele>353.9</ele>
  <time>2026-09-01T19:53:07Z</time>
  <course>208.54</course>
  <speed>3.66</speed>
  <fix>3d</fix>
</trkpt>
<trkpt lat="-27.2744388" lon="151.2901151">
  <ele>353.8</ele>
  <time>2026-09-01T19:53:07Z</time>
  <course>205.67</course>
  <speed>4.0590885676466835</speed>
  <fix>3d</fix>
</trkpt>
<trkpt lat="-27.2744414" lon="151.2901126">
  <ele>353.79</ele>
  <time>2026-09-01T19:53:07Z</time>
  <course>207.64</course>
  <speed>4.119526671839861</speed>
  <fix>3d</fix>
</trkpt>
<trkpt lat="-27.2744359" lon="151.2901175">
  <ele>353.83</ele>
  <time>2026-09-01T19:53:07Z</time>
  <course>215.4</course>
  <speed>3.94</speed>
  <fix>3d</fix>
</trkpt>
<trkpt lat="-27.2744423" lon="151.2901118">
  <ele>353.79</ele>
  <time>2026-09-01T19:53:07Z</time>
  <course>208.26</course>
  <speed>4.137342142003728</speed>
  <fix>3d</fix>
</trkpt>
<trkpt lat="-27.2744442" lon="151.2901098">
  <ele>353.79</ele>
  <time>2026-09-01T19:53:07Z</time>
  <course>209.67</course>
  <speed>4.181638434872149</speed>
  <fix>3d</fix>
</trkpt>
<trkpt lat="-27.2744359" lon="151.2901175">
  <ele>353.83</ele>
  <time>2026-09-01T19:53:07Z</time>
  <course>215.4</course>
  <speed>3.94</speed>
  <fix>3d</fix>
</trkpt>
<trkpt lat="-27.2744448" lon="151.2901092">
  <ele>353.79</ele>
  <time>2026-09-01T19:53:07Z</time>
  <course>210.13</course>
  <speed>4.1944844736868445</speed>
  <fix>3d</fix>
</trkpt>
<trkpt lat="-27.2744469" lon="151.2901069">
  <ele>353.8</ele>
  <time>2026-09-01T19:53:07Z</time>
  <course>211.55</course>
  <speed>4.242640687119286</speed>
  <fix>3d</fix>
</trkpt>
<trkpt lat="-27.2744416" lon="151.2901124">
  <ele>353.79</ele>
  <time>2026-09-01T19:53:07Z</time>
  <course>221.13</course>
  <speed>4.11</speed>
  <fix>3d</fix>
</trkpt>
<trkpt lat="-27.2744474" lon="151.2901063">
  <ele>353.8</ele>
  <time>2026-09-01T19:53:07Z</time>
  <course>211.9</course>
  <speed>4.256876789384442</speed>
  <fix>3d</fix>
</trkpt>
<trkpt lat="-27.2744495" lon="151.2901038">
  <ele>353.81</ele>
  <time>2026-09-01T19:53:07Z</time>
  <course>213.23</course>
  <speed>4.308375563945186</speed>
  <fix>3d</fix>
</trkpt>
<trkpt lat="-27.2744416" lon="151.2901124">
  <ele>353.79</ele>
  <time>2026-09-01T19:53:07Z</time>
  <course>221.13</course>
  <speed>4.11</speed>
  <fix>3d</fix>
</trkpt>
<trkpt lat="-27.2744496" lon="151.2901037">
  <ele>353.81</ele>
  <time>2026-09-01T19:53:07Z</time>
  <course>213.28</course>
  <speed>4.308375563945186</speed>
  <fix>3d</fix>
</trkpt>
<trkpt lat="-27.2744521" lon="151.2901006">
  <ele>353.83</ele>
  <time>2026-09-01T19:53:07Z</time>
  <course>214.69</course>
  <speed>4.3773279520730455</speed>
  <fix>3d</fix>
</trkpt>
<trkpt lat="-27.274447" lon="151.2901066">
  <ele>353.8</ele>
  <time>2026-09-01T19:53:07Z</time>
  <course>225.49</course>
  <speed>4.25</speed>
  <fix>3d</fix>
</trkpt>
<trkpt lat="-27.2744522" lon="151.2901005">
  <ele>353.83</ele>
  <time>2026-09-01T19:53:07Z</time>
  <course>214.73</course>
  <speed>4.384803302315852</speed>
  <fix>3d</fix>
</trkpt>
<trkpt lat="-27.2744547" lon="151.2900972">
  <ele>353.85</ele>
  <time>2026-09-01T19:53:07Z</time>
  <course>215.94</course>
  <speed>4.463462781294362</speed>
  <fix>3d</fix>
</trkpt>
<trkpt lat="-27.274447" lon="151.2901066">
  <ele>353.8</ele>
  <time>2026-09-01T19:53:07Z</time>
  <course>225.49</course>
  <speed>4.25</speed>
  <fix>3d</fix>
</trkpt>
<trkpt lat="-27.2744553" lon="151.2900964">
  <ele>353.85</ele>
  <time>2026-09-01T19:53:07Z</time>
  <course>216.2</course>
  <speed>4.486423965699185</speed>
  <fix>3d</fix>
</trkpt>
<trkpt lat="-27.2744573" lon="151.2900937">
  <ele>353.86</ele>
  <time>2026-09-01T19:53:07Z</time>
  <course>217.04</course>
  <speed>4.558738860693821</speed>
  <fix>3d</fix>
</trkpt>
<trkpt lat="-27.2744523" lon="151.2901002">
  <ele>353.83</ele>
  <time>2026-09-01T19:53:07Z</time>
  <course>228.9</course>
  <speed>4.4</speed>
  <fix>3d</fix>
</trkpt>
<trkpt lat="-27.274458" lon="151.2900927">
  <ele>353.86</ele>
  <time>2026-09-01T19:53:07Z</time>
  <course>217.31</course>
  <speed>4.58373210386471</speed>
  <fix>3d</fix>
</trkpt>
<trkpt lat="-27.2744598" lon="151.29009">
  <ele>353.87</ele>
  <time>2026-09-01T19:53:07Z</time>
  <course>218.02</course>
  <speed>4.656361240281943</speed>
  <fix>3d</fix>
</trkpt>
<trkpt lat="-27.2744523" lon="151.2901002">
  <ele>353.83</ele>
  <time>2026-09-01T19:53:07Z</time>
  <course>228.9</course>
  <speed>4.4</speed>
  <fix>3d</fix>
</trkpt>
<trkpt lat="-27.2744604" lon="151.2900891">
  <ele>353.87</ele>
  <time>2026-09-01T19:53:07Z</time>
  <course>218.24</course>
  <speed>4.688123291894103</speed>
  <fix>3d</fix>
</trkpt>
<trkpt lat="-27.2744624" lon="151.2900862">
  <ele>353.87</ele>
  <time>2026-09-01T19:53:07Z</time>
  <course>218.91</course>
  <speed>4.77822142643055</speed>
  <fix>3d</fix>
</trkpt>
<trkpt lat="-27.2744574" lon="151.2900932">
  <ele>353.86</ele>
  <time>2026-09-01T19:53:07Z</time>
  <course>231.76</course>
  <speed>4.58</speed>
  <fix>3d</fix>
</trkpt>
<trkpt lat="-27.274463" lon="151.2900851">
  <ele>353.87</ele>
  <time>2026-09-01T19:53:07Z</time>
  <course>219.14</course>
  <speed>4.804633180587254</speed>
  <fix>3d</fix>
</trkpt>
<trkpt lat="-27.2744649" lon="151.2900822">
  <ele>353.87</ele>
  <time>2026-09-01T19:53:07Z</time>
  <course>219.75</course>
  <speed>4.902295380737477</speed>
  <fix>3d</fix>
</trkpt>
<trkpt lat="-27.2744574" lon="151.2900932">
  <ele>353.86</ele>
  <time>2026-09-01T19:53:07Z</time>
  <course>231.76</course>
  <speed>4.58</speed>
  <fix>3d</fix>
</trkpt>
<trkpt lat="-27.2744655" lon="151.2900813">
  <ele>353.87</ele>
  <time>2026-09-01T19:53:07Z</time>
  <course>219.94</course>
  <speed>4.926865129065337</speed>
  <fix>3d</fix>
</trkpt>
<trkpt lat="-27.2744674" lon="151.2900781">
  <ele>353.87</ele>
  <time>2026-09-01T19:53:07Z</time>
  <course>220.56</course>
  <speed>5.028419234709851</speed>
  <fix>3d</fix>
</trkpt>
<trkpt lat="-27.2744625" lon="151.2900856">
  <ele>353.88</ele>
  <time>2026-09-01T19:53:07Z</time>
  <course>234.3</course>
  <speed>4.79</speed>
  <fix>3d</fix>
</trkpt>
<trkpt lat="-27.274468" lon="151.290077">
  <ele>353.86</ele>
  <time>2026-09-01T19:53:07Z</time>
  <course>220.77</course>
  <speed>5.061640050418442</speed>
  <fix>3d</fix>
</trkpt>
<trkpt lat="-27.2744699" lon="151.2900737">
  <ele>353.86</ele>
  <time>2026-09-01T19:53:07Z</time>
  <course>221.36</course>
  <speed>5.1618795026617965</speed>
  <fix>3d</fix>
</trkpt>
<trkpt lat="-27.2744625" lon="151.2900856">
  <ele>353.88</ele>
  <time>2026-09-01T19:53:07Z</time>
  <course>234.3</course>
  <speed>4.79</speed>
  <fix>3d</fix>
</trkpt>
<trkpt lat="-27.2744705" lon="151.2900726">
  <ele>353.86</ele>
  <time>2026-09-01T19:53:07Z</time>
  <course>221.57</course>
  <speed>5.203892773683947</speed>
  <fix>3d</fix>
</trkpt>
<trkpt lat="-27.2744724" lon="151.2900693">
  <ele>353.85</ele>
  <time>2026-09-01T19:53:07Z</time>
  <course>222.16</course>
  <speed>5.305289813007391</speed>
  <fix>3d</fix>
</trkpt>
<trkpt lat="-27.2744676" lon="151.2900774">
  <ele>353.88</ele>
  <time>2026-09-01T19:53:07Z</time>
  <course>236.56</course>
  <speed>5.05</speed>
  <fix>3d</fix>
</trkpt>
<trkpt lat="-27.274473" lon="151.2900681">
  <ele>353.84</ele>
  <time>2026-09-01T19:53:07Z</time>
  <course>222.37</course>
  <speed>5.339260248386474</speed>
  <fix>3d</fix>
</trkpt>
<trkpt lat="-27.2744749" lon="151.2900646">
  <ele>353.84</ele>
  <time>2026-09-01T19:53:07Z</time>
  <course>222.95</course>
  <speed>5.4382809783974935</speed>
  <fix>3d</fix>
</trkpt>
<trkpt lat="-27.2744676" lon="151.2900774">
  <ele>353.88</ele>
  <time>2026-09-01T19:53:07Z</time>
  <course>236.56</course>
  <speed>5.05</speed>
  <fix>3d</fix>
</trkpt>
<trkpt lat="-27.2744756" lon="151.2900633">
  <ele>353.83</ele>
  <time>2026-09-01T19:53:08Z</time>
  <course>223.16</course>
  <speed>5.4725222703978105</speed>
  <fix>3d</fix>
</trkpt>
<trkpt lat="-27.2744774" lon="151.2900598">
  <ele>353.83</ele>
  <time>2026-09-01T19:53:08Z</time>
  <course>223.72</course>
  <speed>5.563542037227722</speed>
  <fix>3d</fix>
</trkpt>
<trkpt lat="-27.2744726" lon="151.2900685">
  <ele>353.87</ele>
  <time>2026-09-01T19:53:08Z</time>
  <course>238.49</course>
  <speed>5.32</speed>
  <fix>3d</fix>
</trkpt>
<trkpt lat="-27.2744775" lon="151.2900596">
  <ele>353.83</ele>
  <time>2026-09-01T19:53:08Z</time>
  <course>223.74</course>
  <speed>5.563542037227722</speed>
  <fix>3d</fix>
</trkpt>
<trkpt lat="-27.27448" lon="151.2900549">
  <ele>353.82</ele>
  <time>2026-09-01T19:53:08Z</time>
  <course>224.42</course>
  <speed>5.6721865272573675</speed>
  <fix>3d</fix>
</trkpt>
<trkpt lat="-27.2744726" lon="151.2900685">
  <ele>353.87</ele>
  <time>2026-09-01T19:53:08Z</time>
  <course>238.49</course>
  <speed>5.32</speed>
  <fix>3d</fix>
</trkpt>
<trkpt lat="-27.27448" lon="151.2900547">
  <ele>353.82</ele>
  <time>2026-09-01T19:53:08Z</time>
  <course>224.44</course>
  <speed>5.680845007567097</speed>
  <fix>3d</fix>
</trkpt>
<trkpt lat="-27.2744825" lon="151.2900498">
  <ele>353.83</ele>
  <time>2026-09-01T19:53:08Z</time>
  <course>225.03</course>
  <speed>5.7775427302617155</speed>
  <fix>3d</fix>
</trkpt>
<trkpt lat="-27.2744776" lon="151.2900591">
  <ele>353.85</ele>
  <time>2026-09-01T19:53:08Z</time>
  <course>239.9</course>
  <speed>5.57</speed>
  <fix>3d</fix>
</trkpt>
<trkpt lat="-27.2744831" lon="151.2900486">
  <ele>353.83</ele>
  <time>2026-09-01T19:53:08Z</time>
  <course>225.16</course>
  <speed>5.799870688213661</speed>
  <fix>3d</fix>
</trkpt>
<trkpt lat="-27.2744851" lon="151.2900447">
  <ele>353.83</ele>
  <time>2026-09-01T19:53:08Z</time>
  <course>225.54</course>
  <speed>5.861919480852667</speed>
  <fix>3d</fix>
</trkpt>
<trkpt lat="-27.2744776" lon="151.2900591">
  <ele>353.85</ele>
  <time>2026-09-01T19:53:08Z</time>
  <course>239.9</course>
  <speed>5.57</speed>
  <fix>3d</fix>
</trkpt>
<trkpt lat="-27.2744858" lon="151.2900433">
  <ele>353.84</ele>
  <time>2026-09-01T19:53:08Z</time>
  <course>225.66</course>
  <speed>5.884250164634404</speed>
  <fix>3d</fix>
</trkpt>
<trkpt lat="-27.2744876" lon="151.2900395">
  <ele>353.85</ele>
  <time>2026-09-01T19:53:08Z</time>
  <course>225.94</course>
  <speed>5.928912210515517</speed>
  <fix>3d</fix>
</trkpt>
<trkpt lat="-27.2744826" lon="151.2900491">
  <ele>353.85</ele>
  <time>2026-09-01T19:53:08Z</time>
  <course>240.72</course>
  <speed>5.79</speed>
  <fix>3d</fix>
</trkpt>
<trkpt lat="-27.2744884" lon="151.2900381">
  <ele>353.85</ele>
  <time>2026-09-01T19:53:08Z</time>
  <course>226.03</course>
  <speed>5.951243567524354</speed>
  <fix>3d</fix>
</trkpt>
<trkpt lat="-27.2744903" lon="151.2900343">
  <ele>353.87</ele>
  <time>2026-09-01T19:53:08Z</time>
  <course>226.25</course>
  <speed>5.99213651379873</speed>
  <fix>3d</fix>
</trkpt>
<trkpt lat="-27.2744826" lon="151.2900491">
  <ele>353.85</ele>
  <time>2026-09-01T19:53:08Z</time>
  <course>240.72</course>
  <speed>5.79</speed>
  <fix>3d</fix>
</trkpt>
<trkpt lat="-27.274491" lon="151.2900328">
  <ele>353.87</ele>
  <time>2026-09-01T19:53:08Z</time>
  <course>226.34</course>
  <speed>6.000833275470999</speed>
  <fix>3d</fix>
</trkpt>
<trkpt lat="-27.2744929" lon="151.2900289">
  <ele>353.89</ele>
  <time>2026-09-01T19:53:08Z</time>
  <course>226.59</course>
  <speed>6.0281008617971885</speed>
  <fix>3d</fix>
</trkpt>
<trkpt lat="-27.2744877" lon="151.2900387">
  <ele>353.87</ele>
  <time>2026-09-01T19:53:08Z</time>
  <course>240.96</course>
  <speed>5.95</speed>
  <fix>3d</fix>
</trkpt>
<trkpt lat="-27.2744935" lon="151.2900276">
  <ele>353.9</ele>
  <time>2026-09-01T19:53:08Z</time>
  <course>226.68</course>
  <speed>6.036795507551999</speed>
  <fix>3d</fix>
</trkpt>
<trkpt lat="-27.2744956" lon="151.2900236">
  <ele>353.93</ele>
  <time>2026-09-01T19:53:08Z</time>
  <course>226.97</course>
  <speed>6.026947817925754</speed>
  <fix>3d</fix>
</trkpt>
<trkpt lat="-27.2744877" lon="151.2900387">
  <ele>353.87</ele>
  <time>2026-09-01T19:53:08Z</time>
  <course>240.96</course>
  <speed>5.95</speed>
  <fix>3d</fix>
</trkpt>
<trkpt lat="-27.2744962" lon="151.2900223">
  <ele>353.94</ele>
  <time>2026-09-01T19:53:08Z</time>
  <course>227.08</course>
  <speed>6.022042842756933</speed>
  <fix>3d</fix>
</trkpt>
<trkpt lat="-27.2744982" lon="151.2900182">
  <ele>353.98</ele>
  <time>2026-09-01T19:53:08Z</time>
  <course>227.49</course>
  <speed>5.97146548177246</speed>
  <fix>3d</fix>
</trkpt>
<trkpt lat="-27.274493" lon="151.2900281">
  <ele>353.91</ele>
  <time>2026-09-01T19:53:08Z</time>
  <course>240.99</course>
  <speed>6.03</speed>
  <fix>3d</fix>
</trkpt>
<trkpt lat="-27.2744989" lon="151.2900168">
  <ele>353.99</ele>
  <time>2026-09-01T19:53:08Z</time>
  <course>227.66</course>
  <speed>5.953024441407913</speed>
  <fix>3d</fix>
</trkpt>
<trkpt lat="-27.2745007" lon="151.290013">
  <ele>354.04</ele>
  <time>2026-09-01T19:53:08Z</time>
  <course>228.26</course>
  <speed>5.865978179297977</speed>
  <fix>3d</fix>
</trkpt>
<trkpt lat="-27.274493" lon="151.2900281">
  <ele>353.91</ele>
  <time>2026-09-01T19:53:08Z</time>
  <course>240.99</course>
  <speed>6.03</speed>
  <fix>3d</fix>
</trkpt>
<trkpt lat="-27.2745013" lon="151.2900117">
  <ele>354.06</ele>
  <time>2026-09-01T19:53:08Z</time>
  <course>228.5</course>
  <speed>5.834140896481675</speed>
  <fix>3d</fix>
</trkpt>
<trkpt lat="-27.2745031" lon="151.2900078">
  <ele>354.13</ele>
  <time>2026-09-01T19:53:08Z</time>
  <course>229.43</course>
  <speed>5.702674810998783</speed>
  <fix>3d</fix>
</trkpt>
<trkpt lat="-27.2744981" lon="151.2900175">
  <ele>353.99</ele>
  <time>2026-09-01T19:53:08Z</time>
  <course>241.56</course>
  <speed>5.97</speed>
  <fix>3d</fix>
</trkpt>
<trkpt lat="-27.2745037" lon="151.2900064">
  <ele>354.15</ele>
  <time>2026-09-01T19:53:08Z</time>
  <course>229.81</course>
  <speed>5.644182846081442</speed>
  <fix>3d</fix>
</trkpt>
<trkpt lat="-27.2745054" lon="151.2900027">
  <ele>354.23</ele>
  <time>2026-09-01T19:53:08Z</time>
  <course>231.04</course>
  <speed>5.473983923980779</speed>
  <fix>3d</fix>
</trkpt>
<trkpt lat="-27.2744981" lon="151.2900175">
  <ele>353.99</ele>
  <time>2026-09-01T19:53:08Z</time>
  <course>241.56</course>
  <speed>5.97</speed>
  <fix>3d</fix>
</trkpt>
<trkpt lat="-27.2745054" lon="151.2900025">
  <ele>354.23</ele>
  <time>2026-09-01T19:53:08Z</time>
  <course>231.1</course>
  <speed>5.460595205652952</speed>
  <fix>3d</fix>
</trkpt>
<trkpt lat="-27.2745074" lon="151.2899978">
  <ele>354.34</ele>
  <time>2026-09-01T19:53:08Z</time>
  <course>233.11</course>
  <speed>5.194930220898064</speed>
  <fix>3d</fix>
</trkpt>
<trkpt lat="-27.274503" lon="151.290007">
  <ele>354.14</ele>
  <time>2026-09-01T19:53:08Z</time>
  <course>243.16</course>
  <speed>5.7</speed>
  <fix>3d</fix>
</trkpt>
<trkpt lat="-27.2745074" lon="151.2899977">
  <ele>354.35</ele>
  <time>2026-09-01T19:53:08Z</time>
  <course>233.16</course>
  <speed>5.1907610232026675</speed>
  <fix>3d</fix>
</trkpt>
<trkpt lat="-27.2745092" lon="151.2899931">
  <ele>354.48</ele>
  <time>2026-09-01T19:53:08Z</time>
  <course>235.54</course>
  <speed>4.88078887066425</speed>
  <fix>3d</fix>
</trkpt>
<trkpt lat="-27.274503" lon="151.290007">
  <ele>354.14</ele>
  <time>2026-09-01T19:53:08Z</time>
  <course>243.16</course>
  <speed>5.7</speed>
  <fix>3d</fix>
</trkpt>
<trkpt lat="-27.2745096" lon="151.2899919">
  <ele>354.51</ele>
  <time>2026-09-01T19:53:08Z</time>
  <course>236.23</course>
  <speed>4.798541445064323</speed>
  <fix>3d</fix>
</trkpt>
<trkpt lat="-27.2745107" lon="151.2899886">
  <ele>354.61</ele>
  <time>2026-09-01T19:53:08Z</time>
  <course>238.13</course>
  <speed>4.572800017494751</speed>
  <fix>3d</fix>
</trkpt>
<trkpt lat="-27.2745073" lon="151.289997">
  <ele>354.35</ele>
  <time>2026-09-01T19:53:08Z</time>
  <course>245.94</course>
  <speed>5.21</speed>
  <fix>3d</fix>
</trkpt>
<trkpt lat="-27.2745107" lon="151.2899885">
  <ele>354.62</ele>
  <time>2026-09-01T19:53:08Z</time>
  <course>238.2</course>
  <speed>4.563441683641854</speed>
  <fix>3d</fix>
</trkpt>
<trkpt lat="-27.274512" lon="151.2899844">
  <ele>354.76</ele>
  <time>2026-09-01T19:53:08Z</time>
  <course>240.72</course>
  <speed>4.256594883237069</speed>
  <fix>3d</fix>
</trkpt>
<trkpt lat="-27.2745073" lon="151.289997">
  <ele>354.35</ele>
  <time>2026-09-01T19:53:08Z</time>
  <course>245.94</course>
  <speed>5.21</speed>
  <fix>3d</fix>
</trkpt>
<trkpt lat="-27.2745123" lon="151.2899833">
  <ele>354.8</ele>
  <time>2026-09-01T19:53:08Z</time>
  <course>241.38</course>
  <speed>4.165729227878355</speed>
  <fix>3d</fix>
</trkpt>
<trkpt lat="-27.274513" lon="151.2899803">
  <ele>354.91</ele>
  <time>2026-09-01T19:53:08Z</time>
  <course>243.13</course>
  <speed>3.936521306940939</speed>
  <fix>3d</fix>
</trkpt>
<trkpt lat="-27.2745107" lon="151.2899878">
  <ele>354.61</ele>
  <time>2026-09-01T19:53:08Z</time>
  <course>250.07</course>
  <speed>4.61</speed>
  <fix>3d</fix>
</trkpt>
<trkpt lat="-27.2745132" lon="151.2899793">
  <ele>354.95</ele>
  <time>2026-09-01T19:53:08Z</time>
  <course>243.74</course>
  <speed>3.8588340207891814</speed>
  <fix>3d</fix>
</trkpt>
<trkpt lat="-27.2745137" lon="151.2899766">
  <ele>355.06</ele>
  <time>2026-09-01T19:53:08Z</time>
  <course>245.35</course>
  <speed>3.6341849154934316</speed>
  <fix>3d</fix>
</trkpt>
<trkpt lat="-27.2745107" lon="151.2899878">
  <ele>354.61</ele>
  <time>2026-09-01T19:53:08Z</time>
  <course>250.07</course>
  <speed>4.61</speed>
  <fix>3d</fix>
</trkpt>
<trkpt lat="-27.2745139" lon="151.2899757">
  <ele>355.09</ele>
  <time>2026-09-01T19:53:08Z</time>
  <course>245.84</course>
  <speed>3.562611401766968</speed>
  <fix>3d</fix>
</trkpt>
<trkpt lat="-27.2745142" lon="151.289973">
  <ele>355.2</ele>
  <time>2026-09-01T19:53:08Z</time>
  <course>247.4</course>
  <speed>3.3516115526713413</speed>
  <fix>3d</fix>
</trkpt>
<trkpt lat="-27.2745129" lon="151.2899794">
  <ele>354.89</ele>
  <time>2026-09-01T19:53:08Z</time>
  <course>256.06</course>
  <speed>3.99</speed>
  <fix>3d</fix>
</trkpt>
<trkpt lat="-27.2745143" lon="151.2899721">
  <ele>355.24</ele>
  <time>2026-09-01T19:53:08Z</time>
  <course>247.93</course>
  <speed>3.2846613219630423</speed>
  <fix>3d</fix>
</trkpt>
<trkpt lat="-27.2745144" lon="151.2899697">
  <ele>355.34</ele>
  <time>2026-09-01T19:53:08Z</time>
  <course>249.32</course>
  <speed>3.1019509989682303</speed>
  <fix>3d</fix>
</trkpt>
<trkpt lat="-27.2745129" lon="151.2899794">
  <ele>354.89</ele>
  <time>2026-09-01T19:53:08Z</time>
  <course>256.06</course>
  <speed>3.99</speed>
  <fix>3d</fix>
</trkpt>
<trkpt lat="-27.2745144" lon="151.289969">
  <ele>355.37</ele>
  <time>2026-09-01T19:53:08Z</time>
  <course>249.76</course>
  <speed>3.0504098085339284</speed>
  <fix>3d</fix>
</trkpt>
<trkpt lat="-27.2745144" lon="151.2899666">
  <ele>355.47</ele>
  <time>2026-09-01T19:53:08Z</time>
  <course>251.13</course>
  <speed>2.8729427422070217</speed>
  <fix>3d</fix>
</trkpt>
<trkpt lat="-27.2745141" lon="151.2899721">
  <ele>355.18</ele>
  <time>2026-09-01T19:53:08Z</time>
  <course>264.03</course>
  <speed>3.42</speed>
  <fix>3d</fix>
</trkpt>
<trkpt lat="-27.2745143" lon="151.2899658">
  <ele>355.5</ele>
  <time>2026-09-01T19:53:08Z</time>
  <course>251.58</course>
  <speed>2.8263934616397624</speed>
  <fix>3d</fix>
</trkpt>
<trkpt lat="-27.2745141" lon="151.2899637">
  <ele>355.58</ele>
  <time>2026-09-01T19:53:08Z</time>
  <course>252.82</course>
  <speed>2.674341040331244</speed>
  <fix>3d</fix>
</trkpt>
<trkpt lat="-27.2745141" lon="151.2899721">
  <ele>355.18</ele>
  <time>2026-09-01T19:53:08Z</time>
  <course>264.03</course>
  <speed>3.42</speed>
  <fix>3d</fix>
</trkpt>
<trkpt lat="-27.274514" lon="151.289963">
  <ele>355.61</ele>
  <time>2026-09-01T19:53:08Z</time>
  <course>253.25</course>
  <speed>2.633704615176121</speed>
  <fix>3d</fix>
</trkpt>
<trkpt lat="-27.2745137" lon="151.2899611">
  <ele>355.67</ele>
  <time>2026-09-01T19:53:08Z</time>
  <course>254.4</course>
  <speed>2.5034376365310163</speed>
  <fix>3d</fix>
</trkpt>
<trkpt lat="-27.2745142" lon="151.2899657">
  <ele>355.44</ele>
  <time>2026-09-01T19:53:08Z</time>
  <course>273.38</course>
  <speed>2.94</speed>
  <fix>3d</fix>
</trkpt>
<trkpt lat="-27.2745137" lon="151.289961">
  <ele>355.68</ele>
  <time>2026-09-01T19:53:08Z</time>
  <course>254.45</course>
  <speed>2.5056935167733503</speed>
  <fix>3d</fix>
</trkpt>
<trkpt lat="-27.2745132" lon="151.2899586">
  <ele>355.75</ele>
  <time>2026-09-01T19:53:08Z</time>
  <course>255.86</course>
  <speed>2.3590676124265704</speed>
  <fix>3d</fix>
</trkpt>
<trkpt lat="-27.2745142" lon="151.2899657">
  <ele>355.44</ele>
  <time>2026-09-01T19:53:08Z</time>
  <course>273.38</course>
  <speed>2.94</speed>
  <fix>3d</fix>
</trkpt>
<trkpt lat="-27.2745131" lon="151.2899586">
  <ele>355.75</ele>
  <time>2026-09-01T19:53:08Z</time>
  <course>255.9</course>
  <speed>2.3590676124265704</speed>
  <fix>3d</fix>
</trkpt>
<trkpt lat="-27.2745124" lon="151.2899564">
  <ele>355.81</ele>
  <time>2026-09-01T19:53:08Z</time>
  <course>257.16</course>
  <speed>2.225690903966676</speed>
  <fix>3d</fix>
</trkpt>
<trkpt lat="-27.2745135" lon="151.2899602">
  <ele>355.64</ele>
  <time>2026-09-01T19:53:08Z</time>
  <course>283.57</course>
  <speed>2.58</speed>
  <fix>3d</fix>
</trkpt>
<trkpt lat="-27.2745122" lon="151.2899558">
  <ele>355.82</ele>
  <time>2026-09-01T19:53:08Z</time>
  <course>257.48</course>
  <speed>2.19658826364888</speed>
  <fix>3d</fix>
</trkpt>
<trkpt lat="-27.2745115" lon="151.2899544">
  <ele>355.85</ele>
  <time>2026-09-01T19:53:08Z</time>
  <course>258.31</course>
  <speed>2.0989759407863637</speed>
  <fix>3d</fix>
</trkpt>
<trkpt lat="-27.2745135" lon="151.2899602">
  <ele>355.64</ele>
  <time>2026-09-01T19:53:08Z</time>
  <course>283.57</course>
  <speed>2.58</speed>
  <fix>3d</fix>
</trkpt>
<trkpt lat="-27.2745113" lon="151.2899538">
  <ele>355.85</ele>
  <time>2026-09-01T19:53:08Z</time>
  <course>258.62</course>
  <speed>2.0565261972559457</speed>
  <fix>3d</fix>
</trkpt>
<trkpt lat="-27.2745106" lon="151.2899525">
  <ele>355.83</ele>
  <time>2026-09-01T19:53:08Z</time>
  <course>259.43</course>
  <speed>1.9386851214160592</speed>
  <fix>3d</fix>
</trkpt>
<trkpt lat="-27.2745121" lon="151.2899555">
  <ele>355.78</ele>
  <time>2026-09-01T19:53:08Z</time>
  <course>294.03</course>
  <speed>2.29</speed>
  <fix>3d</fix>
</trkpt>
<trkpt lat="-27.2745103" lon="151.2899521">
  <ele>355.82</ele>
  <time>2026-09-01T19:53:08Z</time>
  <course>259.73</course>
  <speed>1.8902380802428036</speed>
  <fix>3d</fix>
</trkpt>
<trkpt lat="-27.2745095" lon="151.289951">
  <ele>355.75</ele>
  <time>2026-09-01T19:53:08Z</time>
  <course>260.59</course>
  <speed>1.734156855650607</speed>
  <fix>3d</fix>
</trkpt>
<trkpt lat="-27.2745121" lon="151.2899555">
  <ele>355.78</ele>
  <time>2026-09-01T19:53:08Z</time>
  <course>294.03</course>
  <speed>2.29</speed>
  <fix>3d</fix>
</trkpt>
<trkpt lat="-27.2745092" lon="151.2899506">
  <ele>355.72</ele>
  <time>2026-09-01T19:53:08Z</time>
  <course>260.94</course>
  <speed>1.6759773268156106</speed>
  <fix>3d</fix>
</trkpt>
<trkpt lat="-27.2745084" lon="151.2899498">
  <ele>355.62</ele>
  <time>2026-09-01T19:53:08Z</time>
  <course>261.97</course>
  <speed>1.5337861650177969</speed>
  <fix>3d</fix>
</trkpt>
<trkpt lat="-27.2745103" lon="151.2899518">
  <ele>355.78</ele>
  <time>2026-09-01T19:53:08Z</time>
  <course>305.68</course>
  <speed>1.97</speed>
  <fix>3d</fix>
</trkpt>
<trkpt lat="-27.2745083" lon="151.2899498">
  <ele>355.61</ele>
  <time>2026-09-01T19:53:08Z</time>
  <course>262.03</course>
  <speed>1.5310127367203712</speed>
  <fix>3d</fix>
</trkpt>
<trkpt lat="-27.2745072" lon="151.2899492">
  <ele>355.44</ele>
  <time>2026-09-01T19:53:08Z</time>
  <course>263.59</course>
  <speed>1.4261837188805655</speed>
  <fix>3d</fix>
</trkpt>
<trkpt lat="-27.2745103" lon="151.2899518">
  <ele>355.78</ele>
  <time>2026-09-01T19:53:08Z</time>
  <course>305.68</course>
  <speed>1.97</speed>
  <fix>3d</fix>
</trkpt>
<trkpt lat="-27.2745069" lon="151.2899491">
  <ele>355.4</ele>
  <time>2026-09-01T19:53:08Z</time>
  <course>263.99</course>
  <speed>1.4286357128393508</speed>
  <fix>3d</fix>
</trkpt>
<trkpt lat="-27.2745058" lon="151.289949">
  <ele>355.24</ele>
  <time>2026-09-01T19:53:08Z</time>
  <course>265.32</course>
  <speed>1.5107613974417007</speed>
  <fix>3d</fix>
</trkpt>
<trkpt lat="-27.2745081" lon="151.2899493">
  <ele>355.58</ele>
  <time>2026-09-01T19:53:08Z</time>
  <course>327.14</course>
  <speed>1.59</speed>
  <fix>3d</fix>
</trkpt>
<trkpt lat="-27.2745056" lon="151.289949">
  <ele>355.2</ele>
  <time>2026-09-01T19:53:08Z</time>
  <course>265.67</course>
  <speed>1.549322432549145</speed>
  <fix>3d</fix>
</trkpt>
<trkpt lat="-27.2745044" lon="151.2899494">
  <ele>355.03</ele>
  <time>2026-09-01T19:53:08Z</time>
  <course>267.11</course>
  <speed>1.7936833611315015</speed>
  <fix>3d</fix>
</trkpt>
<trkpt lat="-27.2745081" lon="151.2899493">
  <ele>355.58</ele>
  <time>2026-09-01T19:53:08Z</time>
  <course>327.14</course>
  <speed>1.59</speed>
  <fix>3d</fix>
</trkpt>
<trkpt lat="-27.2745041" lon="151.2899496">
  <ele>354.98</ele>
  <time>2026-09-01T19:53:08Z</time>
  <course>267.53</course>
  <speed>1.8891532494744834</speed>
  <fix>3d</fix>
</trkpt>
<trkpt lat="-27.2745029" lon="151.2899505">
  <ele>354.81</ele>
  <time>2026-09-01T19:53:08Z</time>
  <course>268.93</course>
  <speed>2.2426992665089984</speed>
  <fix>3d</fix>
</trkpt>
<trkpt lat="-27.2745054" lon="151.2899485">
  <ele>355.22</ele>
  <time>2026-09-01T19:53:08Z</time>
  <course>6.01</course>
  <speed>1.57</speed>
  <fix>3d</fix>
</trkpt>
<trkpt lat="-27.2745024" lon="151.2899508">
  <ele>354.75</ele>
  <time>2026-09-01T19:53:08Z</time>
  <course>269.42</course>
  <speed>2.381931988953505</speed>
  <fix>3d</fix>
</trkpt>
<trkpt lat="-27.2745012" lon="151.289952">
  <ele>354.59</ele>
  <time>2026-09-01T19:53:08Z</time>
  <course>270.78</course>
  <speed>2.7872925931807013</speed>
  <fix>3d</fix>
</trkpt>
<trkpt lat="-27.2745054" lon="151.2899485">
  <ele>355.22</ele>
  <time>2026-09-01T19:53:08Z</time>
  <course>6.01</course>
  <speed>1.57</speed>
  <fix>3d</fix>
</trkpt>
<trkpt lat="-27.2745012" lon="151.2899521">
  <ele>354.59</ele>
  <time>2026-09-01T19:53:08Z</time>
  <course>270.83</course>
  <speed>2.7945840477609547</speed>
  <fix>3d</fix>
</trkpt>
<trkpt lat="-27.2744994" lon="151.2899543">
  <ele>354.39</ele>
  <time>2026-09-01T19:53:08Z</time>
  <course>272.66</course>
  <speed>3.368812847280181</speed>
  <fix>3d</fix>
</trkpt>
<trkpt lat="-27.2745024" lon="151.2899501">
  <ele>354.79</ele>
  <time>2026-09-01T19:53:08Z</time>
  <course>36.73</course>
  <speed>2.28</speed>
  <fix>3d</fix>
</trkpt>
<trkpt lat="-27.2744993" lon="151.2899544">
  <ele>354.39</ele>
  <time>2026-09-01T19:53:08Z</time>
  <course>272.71</course>
  <speed>3.3766847646767384</speed>
  <fix>3d</fix>
</trkpt>
<trkpt lat="-27.2744974" lon="151.2899572">
  <ele>354.21</ele>
  <time>2026-09-01T19:53:08Z</time>
  <course>274.71</course>
  <speed>3.938933865908388</speed>
  <fix>3d</fix>
</trkpt>
<trkpt lat="-27.2745024" lon="151.2899501">
  <ele>354.79</ele>
  <time>2026-09-01T19:53:08Z</time>
  <course>36.73</course>
  <speed>2.28</speed>
  <fix>3d</fix>
</trkpt>
<trkpt lat="-27.2744968" lon="151.2899581">
  <ele>354.16</ele>
  <time>2026-09-01T19:53:08Z</time>
  <course>275.31</course>
  <speed>4.090990100208017</speed>
  <fix>3d</fix>
</trkpt>
<trkpt lat="-27.2744953" lon="151.2899607">
  <ele>354.05</ele>
  <time>2026-09-01T19:53:08Z</time>
  <course>276.94</course>
  <speed>4.488295890424338</speed>
  <fix>3d</fix>
</trkpt>
<trkpt lat="-27.2744989" lon="151.2899541">
  <ele>354.38</ele>
  <time>2026-09-01T19:53:08Z</time>
  <course>50.67</course>
  <speed>3.38</speed>
  <fix>3d</fix>
</trkpt>
<trkpt lat="-27.2744947" lon="151.2899617">
  <ele>354.01</ele>
  <time>2026-09-01T19:53:08Z</time>
  <course>277.51</course>
  <speed>4.624824320987771</speed>
  <fix>3d</fix>
</trkpt>
<trkpt lat="-27.274493" lon="151.2899647">
  <ele>353.91</ele>
  <time>2026-09-01T19:53:08Z</time>
  <course>278.95</course>
  <speed>4.978925586911297</speed>
  <fix>3d</fix>
</trkpt>
<trkpt lat="-27.2744989" lon="151.2899541">
  <ele>354.38</ele>
  <time>2026-09-01T19:53:08Z</time>
  <course>50.67</course>
  <speed>3.38</speed>
  <fix>3d</fix>
</trkpt>
<trkpt lat="-27.2744924" lon="151.2899656">
  <ele>353.89</ele>
  <time>2026-09-01T19:53:08Z</time>
  <course>279.35</course>
  <speed>5.090304509555396</speed>
  <fix>3d</fix>
</trkpt>
<trkpt lat="-27.2744905" lon="151.289969">
  <ele>353.81</ele>
  <time>2026-09-01T19:53:08Z</time>
  <course>280.45</course>
  <speed>5.381839834108778</speed>
  <fix>3d</fix>
</trkpt>
<trkpt lat="-27.2744947" lon="151.2899605">
  <ele>354.04</ele>
  <time>2026-09-01T19:53:08Z</time>
  <course>56.36</course>
  <speed>4.49</speed>
  <fix>3d</fix>
</trkpt>
<trkpt lat="-27.2744898" lon="151.2899703">
  <ele>353.79</ele>
  <time>2026-09-01T19:53:08Z</time>
  <course>280.76</course>
  <speed>5.467650318006813</speed>
  <fix>3d</fix>
</trkpt>
<trkpt lat="-27.2744879" lon="151.2899737">
  <ele>353.74</ele>
  <time>2026-09-01T19:53:08Z</time>
  <course>281.42</course>
  <speed>5.651911181184643</speed>
  <fix>3d</fix>
</trkpt>
<trkpt lat="-27.2744947" lon="151.2899605">
  <ele>354.04</ele>
  <time>2026-09-01T19:53:08Z</time>
  <course>56.36</course>
  <speed>4.49</speed>
  <fix>3d</fix>
</trkpt>
<trkpt lat="-27.2744872" lon="151.2899748">
  <ele>353.73</ele>
  <time>2026-09-01T19:53:08Z</time>
  <course>281.58</course>
  <speed>5.695489443410461</speed>
  <fix>3d</fix>
</trkpt>
<trkpt lat="-27.274485" lon="151.2899785">
  <ele>353.7</ele>
  <time>2026-09-01T19:53:08Z</time>
  <course>281.95</course>
  <speed>5.807925619358429</speed>
  <fix>3d</fix>
</trkpt>
<trkpt lat="-27.2744899" lon="151.2899689">
  <ele>353.81</ele>
  <time>2026-09-01T19:53:08Z</time>
  <course>57.73</course>
  <speed>5.36</speed>
  <fix>3d</fix>
</trkpt>
<trkpt lat="-27.2744843" lon="151.2899798">
  <ele>353.69</ele>
  <time>2026-09-01T19:53:08Z</time>
  <course>282.04</course>
  <speed>5.838261727603517</speed>
  <fix>3d</fix>
</trkpt>
<trkpt lat="-27.2744821" lon="151.2899833">
  <ele>353.68</ele>
  <time>2026-09-01T19:53:08Z</time>
  <course>282.18</course>
  <speed>5.902270749465836</speed>
  <fix>3d</fix>
</trkpt>
<trkpt lat="-27.2744899" lon="151.2899689">
  <ele>353.81</ele>
  <time>2026-09-01T19:53:08Z</time>
  <course>57.73</course>
  <speed>5.36</speed>
  <fix>3d</fix>
</trkpt>
<trkpt lat="-27.2744814" lon="151.2899844">
  <ele>353.68</ele>
  <time>2026-09-01T19:53:08Z</time>
  <course>282.19</course>
  <speed>5.913543776789007</speed>
  <fix>3d</fix>
</trkpt>
<trkpt lat="-27.274479" lon="151.2899882">
  <ele>353.67</ele>
  <time>2026-09-01T19:53:08Z</time>
  <course>282.17</course>
  <speed>5.95909389085287</speed>
  <fix>3d</fix>
</trkpt>
<trkpt lat="-27.2744845" lon="151.2899785">
  <ele>353.7</ele>
  <time>2026-09-01T19:53:08Z</time>
  <course>56.66</course>
  <speed>5.84</speed>
  <fix>3d</fix>
</trkpt>
<trkpt lat="-27.274478" lon="151.2899898">
  <ele>353.67</ele>
  <time>2026-09-01T19:53:08Z</time>
  <course>282.13</course>
  <speed>5.968199058342475</speed>
  <fix>3d</fix>
</trkpt>
<trkpt lat="-27.2744759" lon="151.289993">
  <ele>353.68</ele>
  <time>2026-09-01T19:53:08Z</time>
  <course>282.02</course>
  <speed>5.975165269680831</speed>
  <fix>3d</fix>
</trkpt>
<trkpt lat="-27.2744845" lon="151.2899785">
  <ele>353.7</ele>
  <time>2026-09-01T19:53:08Z</time>
  <course>56.66</course>
  <speed>5.84</speed>
  <fix>3d</fix>
</trkpt>
<trkpt lat="-27.2744751" lon="151.2899943">
  <ele>353.68</ele>
  <time>2026-09-01T19:53:08Z</time>
  <course>281.97</course>
  <speed>5.9729054906301675</speed>
  <fix>3d</fix>
</trkpt>
<trkpt lat="-27.2744728" lon="151.2899978">
  <ele>353.7</ele>
  <time>2026-09-01T19:53:08Z</time>
  <course>281.82</course>
  <speed>5.958263169750057</speed>
  <fix>3d</fix>
</trkpt>
<trkpt lat="-27.2744785" lon="151.2899884">
  <ele>353.67</ele>
  <time>2026-09-01T19:53:08Z</time>
  <course>55.01</course>
  <speed>6.01</speed>
  <fix>3d</fix>
</trkpt>
<trkpt lat="-27.2744726" lon="151.289998">
  <ele>353.7</ele>
  <time>2026-09-01T19:53:08Z</time>
  <course>281.81</course>
  <speed>5.958263169750057</speed>
  <fix>3d</fix>
</trkpt>
<trkpt lat="-27.2744696" lon="151.2900026">
  <ele>353.72</ele>
  <time>2026-09-01T19:53:08Z</time>
  <course>281.6</course>
  <speed>5.924027346324458</speed>
  <fix>3d</fix>
</trkpt>
<trkpt lat="-27.2744785" lon="151.2899884">
  <ele>353.67</ele>
  <time>2026-09-01T19:53:08Z</time>
  <course>55.01</course>
  <speed>6.01</speed>
  <fix>3d</fix>
</trkpt>
<trkpt lat="-27.2744695" lon="151.2900028">
  <ele>353.72</ele>
  <time>2026-09-01T19:53:08Z</time>
  <course>281.59</course>
  <speed>5.916012170372877</speed>
  <fix>3d</fix>
</trkpt>
<trkpt lat="-27.2744664" lon="151.2900074">
  <ele>353.75</ele>
  <time>2026-09-01T19:53:08Z</time>
  <course>281.38</course>
  <speed>5.862021835510339</speed>
  <fix>3d</fix>
</trkpt>
<trkpt lat="-27.2744722" lon="151.2899983">
  <ele>353.7</ele>
  <time>2026-09-01T19:53:08Z</time>
  <course>53.84</course>
  <speed>6.02</speed>
  <fix>3d</fix>
</trkpt>
<trkpt lat="-27.2744663" lon="151.2900075">
  <ele>353.75</ele>
  <time>2026-09-01T19:53:08Z</time>
  <course>281.37</course>
  <speed>5.862021835510339</speed>
  <fix>3d</fix>
</trkpt>
<trkpt lat="-27.2744632" lon="151.2900121">
  <ele>353.78</ele>
  <time>2026-09-01T19:53:08Z</time>
  <course>281.15</course>
  <speed>5.788099860921545</speed>
  <fix>3d</fix>
</trkpt>
<trkpt lat="-27.2744722" lon="151.2899983">
  <ele>353.7</ele>
  <time>2026-09-01T19:53:08Z</time>
  <course>53.84</course>
  <speed>6.02</speed>
  <fix>3d</fix>
</trkpt>
<trkpt lat="-27.2744631" lon="151.2900122">
  <ele>353.78</ele>
  <time>2026-09-01T19:53:08Z</time>
  <course>281.14</course>
  <speed>5.788099860921545</speed>
  <fix>3d</fix>
</trkpt>
<trkpt lat="-27.2744601" lon="151.2900167">
  <ele>353.81</ele>
  <time>2026-09-01T19:53:08Z</time>
  <course>280.86</course>
  <speed>5.69415489778773</speed>
  <fix>3d</fix>
</trkpt>
<trkpt lat="-27.2744658" lon="151.2900081">
  <ele>353.76</ele>
  <time>2026-09-01T19:53:08Z</time>
  <course>53.18</course>
  <speed>5.93</speed>
  <fix>3d</fix>
</trkpt>
<trkpt lat="-27.2744593" lon="151.2900177">
  <ele>353.82</ele>
  <time>2026-09-01T19:53:08Z</time>
  <course>280.78</course>
  <speed>5.680140843324222</speed>
  <fix>3d</fix>
</trkpt>
<trkpt lat="-27.274457" lon="151.2900212">
  <ele>353.84</ele>
  <time>2026-09-01T19:53:08Z</time>
  <course>280.46</course>
  <speed>5.596070049597306</speed>
  <fix>3d</fix>
</trkpt>
<trkpt lat="-27.2744658" lon="151.2900081">
  <ele>353.76</ele>
  <time>2026-09-01T19:53:08Z</time>
  <course>53.18</course>
  <speed>5.93</speed>
  <fix>3d</fix>
</trkpt>
<trkpt lat="-27.2744562" lon="151.2900223">
  <ele>353.85</ele>
  <time>2026-09-01T19:53:08Z</time>
  <course>280.33</course>
  <speed>5.568051723897687</speed>
  <fix>3d</fix>
</trkpt>
<trkpt lat="-27.2744539" lon="151.2900257">
  <ele>353.87</ele>
  <time>2026-09-01T19:53:08Z</time>
  <course>279.87</course>
  <speed>5.484013129087129</speed>
  <fix>3d</fix>
</trkpt>
<trkpt lat="-27.2744594" lon="151.2900175">
  <ele>353.82</ele>
  <time>2026-09-01T19:53:08Z</time>
  <course>53.01</course>
  <speed>5.77</speed>
  <fix>3d</fix>
</trkpt>
<trkpt lat="-27.2744531" lon="151.2900269">
  <ele>353.88</ele>
  <time>2026-09-01T19:53:08Z</time>
  <course>279.68</course>
  <speed>5.45</speed>
  <fix>3d</fix>
</trkpt>
<trkpt lat="-27.274451" lon="151.2900302">
  <ele>353.9</ele>
  <time>2026-09-01T19:53:08Z</time>
  <course>279.12</course>
  <speed>5.354073215786276</speed>
  <fix>3d</fix>
</trkpt>
<trkpt lat="-27.2744594" lon="151.2900175">
  <ele>353.82</ele>
  <time>2026-09-01T19:53:08Z</time>
  <course>53.01</course>
  <speed>5.77</speed>
  <fix>3d</fix>
</trkpt>
<trkpt lat="-27.2744503" lon="151.2900312">
  <ele>353.91</ele>
  <time>2026-09-01T19:53:08Z</time>
  <course>278.92</course>
  <speed>5.334135356362829</speed>
  <fix>3d</fix>
</trkpt>
<trkpt lat="-27.2744482" lon="151.2900345">
  <ele>353.93</ele>
  <time>2026-09-01T19:53:08Z</time>
  <course>278.24</course>
  <speed>5.232523291873625</speed>
  <fix>3d</fix>
</trkpt>
<trkpt lat="-27.2744533" lon="151.2900267">
  <ele>353.89</ele>
  <time>2026-09-01T19:53:08Z</time>
  <course>53.37</course>
  <speed>5.55</speed>
  <fix>3d</fix>
</trkpt>
<trkpt lat="-27.2744474" lon="151.2900357">
  <ele>353.94</ele>
  <time>2026-09-01T19:53:08Z</time>
  <course>278.0</course>
  <speed>5.192850854781023</speed>
  <fix>3d</fix>
</trkpt>
<trkpt lat="-27.2744454" lon="151.2900388">
  <ele>353.95</ele>
  <time>2026-09-01T19:53:08Z</time>
  <course>277.33</course>
  <speed>5.094035728182519</speed>
  <fix>3d</fix>
</trkpt>
<trkpt lat="-27.2744533" lon="151.2900267">
  <ele>353.89</ele>
  <time>2026-09-01T19:53:08Z</time>
  <course>53.37</course>
  <speed>5.55</speed>
  <fix>3d</fix>
</trkpt>
<trkpt lat="-27.2744448" lon="151.2900397">
  <ele>353.96</ele>
  <time>2026-09-01T19:53:08Z</time>
  <course>277.13</course>
  <speed>5.060405122122141</speed>
  <fix>3d</fix>
</trkpt>
<trkpt lat="-27.2744428" lon="151.290043">
  <ele>353.97</ele>
  <time>2026-09-01T19:53:08Z</time>
  <course>276.46</course>
  <speed>4.956621833466822</speed>
  <fix>3d</fix>
</trkpt>
<trkpt lat="-27.2744475" lon="151.2900356">
  <ele>353.94</ele>
  <time>2026-09-01T19:53:08Z</time>
  <course>54.36</course>
  <speed>5.3</speed>
  <fix>3d</fix>
</trkpt>
<trkpt lat="-27.2744422" lon="151.2900441">
  <ele>353.98</ele>
  <time>2026-09-01T19:53:08Z</time>
  <course>276.25</course>
  <speed>4.9175705383857995</speed>
  <fix>3d</fix>
</trkpt>
<trkpt lat="-27.2744404" lon="151.2900471">
  <ele>353.99</ele>
  <time>2026-09-01T19:53:08Z</time>
  <course>275.74</course>
  <speed>4.814862407172193</speed>
  <fix>3d</fix>
</trkpt>
<trkpt lat="-27.2744475" lon="151.2900356">
  <ele>353.94</ele>
  <time>2026-09-01T19:53:08Z</time>
  <course>54.36</course>
  <speed>5.3</speed>
  <fix>3d</fix>
</trkpt>
<trkpt lat="-27.2744403" lon="151.2900472">
  <ele>353.99</ele>
  <time>2026-09-01T19:53:08Z</time>
  <course>275.72</course>
  <speed>4.809365862564419</speed>
  <fix>3d</fix>
</trkpt>
<trkpt lat="-27.274438" lon="151.2900512">
  <ele>354.0</ele>
  <time>2026-09-01T19:53:08Z</time>
  <course>275.26</course>
  <speed>4.669325433079172</speed>
  <fix>3d</fix>
</trkpt>
<trkpt lat="-27.2744422" lon="151.2900442">
  <ele>353.98</ele>
  <time>2026-09-01T19:53:08Z</time>
  <course>55.99</course>
  <speed>5.02</speed>
  <fix>3d</fix>
</trkpt>
<trkpt lat="-27.2744375" lon="151.2900521">
  <ele>354.0</ele>
  <time>2026-09-01T19:53:08Z</time>
  <course>275.19</course>
  <speed>4.6311337704713305</speed>
  <fix>3d</fix>
</trkpt>
<trkpt lat="-27.2744359" lon="151.2900552">
  <ele>354.01</ele>
  <time>2026-09-01T19:53:08Z</time>
  <course>275.12</course>
  <speed>4.503554152000396</speed>
  <fix>3d</fix>
</trkpt>
<trkpt lat="-27.2744422" lon="151.2900442">
  <ele>353.98</ele>
  <time>2026-09-01T19:53:08Z</time>
  <course>55.99</course>
  <speed>5.02</speed>
  <fix>3d</fix>
</trkpt>
<trkpt lat="-27.2744358" lon="151.2900553">
  <ele>354.01</ele>
  <time>2026-09-01T19:53:08Z</time>
  <course>275.12</course>
  <speed>4.503554152000396</speed>
  <fix>3d</fix>
</trkpt>
<trkpt lat="-27.2744338" lon="151.2900591">
  <ele>354.01</ele>
  <time>2026-09-01T19:53:08Z</time>
  <course>275.42</course>
  <speed>4.331293109453573</speed>
  <fix>3d</fix>
</trkpt>
<trkpt lat="-27.2744374" lon="151.2900524">
  <ele>354.01</ele>
  <time>2026-09-01T19:53:08Z</time>
  <course>58.16</course>
  <speed>4.73</speed>
  <fix>3d</fix>
</trkpt>
<trkpt lat="-27.2744334" lon="151.29006">
  <ele>354.01</ele>
  <time>2026-09-01T19:53:08Z</time>
  <course>275.57</course>
  <speed>4.285440467443224</speed>
  <fix>3d</fix>
</trkpt>
<trkpt lat="-27.2744319" lon="151.2900629">
  <ele>354.01</ele>
  <time>2026-09-01T19:53:08Z</time>
  <course>276.24</course>
  <speed>4.13488814842675</speed>
  <fix>3d</fix>
</trkpt>
<trkpt lat="-27.2744374" lon="151.2900524">
  <ele>354.01</ele>
  <time>2026-09-01T19:53:08Z</time>
  <course>58.16</course>
  <speed>4.73</speed>
  <fix>3d</fix>
</trkpt>
<trkpt lat="-27.2744315" lon="151.2900639">
  <ele>354.01</ele>
  <time>2026-09-01T19:53:08Z</time>
  <course>276.55</course>
  <speed>4.075904807524337</speed>
  <fix>3d</fix>
</trkpt>
<trkpt lat="-27.2744302" lon="151.2900666">
  <ele>354.01</ele>
  <time>2026-09-01T19:53:08Z</time>
  <course>277.58</course>
  <speed>3.922562937672256</speed>
  <fix>3d</fix>
</trkpt>
<trkpt lat="-27.2744332" lon="151.2900603">
  <ele>354.02</ele>
  <time>2026-09-01T19:53:08Z</time>
  <course>60.56</course>
  <speed>4.38</speed>
  <fix>3d</fix>
</trkpt>
<trkpt lat="-27.2744297" lon="151.2900678">
  <ele>354.01</ele>
  <time>2026-09-01T19:53:08Z</time>
  <course>278.13</course>
  <speed>3.8506363110530186</speed>
  <fix>3d</fix>
</trkpt>
<trkpt lat="-27.2744286" lon="151.2900701">
  <ele>354.0</ele>
  <time>2026-09-01T19:53:08Z</time>
  <course>279.39</course>
  <speed>3.694008662686107</speed>
  <fix>3d</fix>
</trkpt>
<trkpt lat="-27.2744332" lon="151.2900603">
  <ele>354.02</ele>
  <time>2026-09-01T19:53:08Z</time>
  <course>60.56</course>
  <speed>4.38</speed>
  <fix>3d</fix>
</trkpt>
<trkpt lat="-27.2744282" lon="151.290071">
  <ele>354.0</ele>
  <time>2026-09-01T19:53:08Z</time>
  <course>279.94</course>
  <speed>3.631473530125202</speed>
  <fix>3d</fix>
</trkpt>
<trkpt lat="-27.2744272" lon="151.2900734">
  <ele>353.99</ele>
  <time>2026-09-01T19:53:08Z</time>
  <course>281.58</course>
  <speed>3.453230371695465</speed>
  <fix>3d</fix>
</trkpt>
<trkpt lat="-27.2744297" lon="151.2900678">
  <ele>354.01</ele>
  <time>2026-09-01T19:53:08Z</time>
  <course>62.92</course>
  <speed>3.97</speed>
  <fix>3d</fix>
</trkpt>
<trkpt lat="-27.2744268" lon="151.2900745">
  <ele>353.99</ele>
  <time>2026-09-01T19:53:08Z</time>
  <course>282.37</course>
  <speed>3.368590209568388</speed>
  <fix>3d</fix>
</trkpt>
<trkpt lat="-27.2744259" lon="151.2900765">
  <ele>353.98</ele>
  <time>2026-09-01T19:53:08Z</time>
  <course>284.04</course>
  <speed>3.1995312156626943</speed>
  <fix>3d</fix>
</trkpt>
<trkpt lat="-27.2744297" lon="151.2900678">
  <ele>354.01</ele>
  <time>2026-09-01T19:53:08Z</time>
  <course>62.92</course>
  <speed>3.97</speed>
  <fix>3d</fix>
</trkpt>
<trkpt lat="-27.2744255" lon="151.2900775">
  <ele>353.97</ele>
  <time>2026-09-01T19:53:08Z</time>
  <course>284.89</course>
  <speed>3.1110287687515847</speed>
  <fix>3d</fix>
</trkpt>
<trkpt lat="-27.2744248" lon="151.2900794">
  <ele>353.96</ele>
  <time>2026-09-01T19:53:08Z</time>
  <course>286.64</course>
  <speed>2.94659125092029</speed>
  <fix>3d</fix>
</trkpt>
<trkpt lat="-27.2744268" lon="151.2900746">
  <ele>353.99</ele>
  <time>2026-09-01T19:53:08Z</time>
  <course>65.12</course>
  <speed>3.5</speed>
  <fix>3d</fix>
</trkpt>
<trkpt lat="-27.2744245" lon="151.2900803">
  <ele>353.96</ele>
  <time>2026-09-01T19:53:08Z</time>
  <course>287.42</course>
  <speed>2.8624814409878714</speed>
  <fix>3d</fix>
</trkpt>
<trkpt lat="-27.2744238" lon="151.2900821">
  <ele>353.95</ele>
  <time>2026-09-01T19:53:08Z</time>
  <course>289.25</course>
  <speed>2.676153956707274</speed>
  <fix>3d</fix>
</trkpt>
<trkpt lat="-27.2744268" lon="151.2900746">
  <ele>353.99</ele>
  <time>2026-09-01T19:53:08Z</time>
  <course>65.12</course>
  <speed>3.5</speed>
  <fix>3d</fix>
</trkpt>
<trkpt lat="-27.2744237" lon="151.2900822">
  <ele>353.95</ele>
  <time>2026-09-01T19:53:08Z</time>
  <course>289.34</course>
  <speed>2.666927070618917</speed>
  <fix>3d</fix>
</trkpt>
<trkpt lat="-27.2744229" lon="151.2900846">
  <ele>353.93</ele>
  <time>2026-09-01T19:53:08Z</time>
  <course>291.76</course>
  <speed>2.404766100892143</speed>
  <fix>3d</fix>
</trkpt>
<trkpt lat="-27.2744244" lon="151.2900806">
  <ele>353.96</ele>
  <time>2026-09-01T19:53:08Z</time>
  <course>67.12</course>
  <speed>2.98</speed>
  <fix>3d</fix>
</trkpt>
<trkpt lat="-27.2744228" lon="151.2900846">
  <ele>353.93</ele>
  <time>2026-09-01T19:53:08Z</time>
  <course>291.85</course>
  <speed>2.391756676587315</speed>
  <fix>3d</fix>
</trkpt>
<trkpt lat="-27.2744221" lon="151.2900868">
  <ele>353.92</ele>
  <time>2026-09-01T19:53:08Z</time>
  <course>294.1</course>
  <speed>2.133775995740884</speed>
  <fix>3d</fix>
</trkpt>
<trkpt lat="-27.2744244" lon="151.2900806">
  <ele>353.96</ele>
  <time>2026-09-01T19:53:08Z</time>
  <course>67.12</course>
  <speed>2.98</speed>
  <fix>3d</fix>
</trkpt>
<trkpt lat="-27.2744221" lon="151.2900869">
  <ele>353.92</ele>
  <time>2026-09-01T19:53:08Z</time>
  <course>294.24</course>
  <speed>2.111516043036377</speed>
  <fix>3d</fix>
</trkpt>
<trkpt lat="-27.2744215" lon="151.2900887">
  <ele>353.9</ele>
  <time>2026-09-01T19:53:08Z</time>
  <course>296.18</course>
  <speed>1.866815470259447</speed>
  <fix>3d</fix>
</trkpt>
<trkpt lat="-27.2744226" lon="151.2900857">
  <ele>353.93</ele>
  <time>2026-09-01T19:53:08Z</time>
  <course>68.98</course>
  <speed>2.44</speed>
  <fix>3d</fix>
</trkpt>
<trkpt lat="-27.2744213" lon="151.2900892">
  <ele>353.9</ele>
  <time>2026-09-01T19:53:08Z</time>
  <course>296.69</course>
  <speed>1.8001388835309349</speed>
  <fix>3d</fix>
</trkpt>
<trkpt lat="-27.2744209" lon="151.2900905">
  <ele>353.89</ele>
  <time>2026-09-01T19:53:08Z</time>
  <course>297.98</course>
  <speed>1.6070469812671937</speed>
  <fix>3d</fix>
</trkpt>
<trkpt lat="-27.2744226" lon="151.2900857">
  <ele>353.93</ele>
  <time>2026-09-01T19:53:08Z</time>
  <course>68.98</course>
  <speed>2.44</speed>
  <fix>3d</fix>
</trkpt>
<trkpt lat="-27.2744208" lon="151.2900908">
  <ele>353.89</ele>
  <time>2026-09-01T19:53:08Z</time>
  <course>298.35</course>
  <speed>1.54042202009709</speed>
  <fix>3d</fix>
</trkpt>
<trkpt lat="-27.2744205" lon="151.2900919">
  <ele>353.88</ele>
  <time>2026-09-01T19:53:08Z</time>
  <course>299.45</course>
  <speed>1.3567977004697493</speed>
  <fix>3d</fix>
</trkpt>
<trkpt lat="-27.2744212" lon="151.2900897">
  <ele>353.9</ele>
  <time>2026-09-01T19:53:08Z</time>
  <course>70.74</course>
  <speed>1.89</speed>
  <fix>3d</fix>
</trkpt>
<trkpt lat="-27.2744203" lon="151.2900923">
  <ele>353.87</ele>
  <time>2026-09-01T19:53:08Z</time>
  <course>299.81</course>
  <speed>1.2808200498118385</speed>
  <fix>3d</fix>
</trkpt>
<trkpt lat="-27.2744201" lon="151.2900932">
  <ele>353.86</ele>
  <time>2026-09-01T19:53:08Z</time>
  <course>300.63</course>
  <speed>1.1005453193758084</speed>
  <fix>3d</fix>
</trkpt>
<trkpt lat="-27.2744212" lon="151.2900897">
  <ele>353.9</ele>
  <time>2026-09-01T19:53:08Z</time>
  <course>70.74</course>
  <speed>1.89</speed>
  <fix>3d</fix>
</trkpt>
<trkpt lat="-27.2744201" lon="151.2900932">
  <ele>353.86</ele>
  <time>2026-09-01T19:53:08Z</time>
  <course>300.67</course>
  <speed>1.0911003620199198</speed>
  <fix>3d</fix>
</trkpt>
<trkpt lat="-27.2744198" lon="151.2900942">
  <ele>353.85</ele>
  <time>2026-09-01T19:53:08Z</time>
  <course>301.49</course>
  <speed>0.8664871608973788</speed>
  <fix>3d</fix>
</trkpt>
<trkpt lat="-27.2744203" lon="151.2900929">
  <ele>353.88</ele>
  <time>2026-09-01T19:53:08Z</time>
  <course>72.45</course>
  <speed>1.36</speed>
  <fix>3d</fix>
</trkpt>
<trkpt lat="-27.2744197" lon="151.2900944">
  <ele>353.84</ele>
  <time>2026-09-01T19:53:08Z</time>
  <course>301.68</course>
  <speed>0.8032434251209282</speed>
  <fix>3d</fix>
</trkpt>
<trkpt lat="-27.2744196" lon="151.290095">
  <ele>353.83</ele>
  <time>2026-09-01T19:53:08Z</time>
  <course>302.06</course>
  <speed>0.6356886030125127</speed>
  <fix>3d</fix>
</trkpt>
<trkpt lat="-27.2744203" lon="151.2900929">
  <ele>353.88</ele>
  <time>2026-09-01T19:53:08Z</time>
  <course>72.45</course>
  <speed>1.36</speed>
  <fix>3d</fix>
</trkpt>
<trkpt lat="-27.2744195" lon="151.2900952">
  <ele>353.83</ele>
  <time>2026-09-01T19:53:08Z</time>
  <course>302.16</course>
  <speed>0.5758472019555188</speed>
  <fix>3d</fix>
</trkpt>
<trkpt lat="-27.2744194" lon="151.2900956">
  <ele>353.82</ele>
  <time>2026-09-01T19:53:08Z</time>
  <course>302.36</course>
  <speed>0.4085339643163099</speed>
  <fix>3d</fix>
</trkpt>
<trkpt lat="-27.2744197" lon="151.290095">
  <ele>353.85</ele>
  <time>2026-09-01T19:53:08Z</time>
  <course>73.97</course>
  <speed>0.86</speed>
  <fix>3d</fix>
</trkpt>
<trkpt lat="-27.2744194" lon="151.2900957">
  <ele>353.82</ele>
  <time>2026-09-01T19:53:08Z</time>
  <course>302.39</course>
  <speed>0.34928498393145957</speed>
  <fix>3d</fix>
</trkpt>
<trkpt lat="-27.2744193" lon="151.2900959">
  <ele>353.81</ele>
  <time>2026-09-01T19:53:08Z</time>
  <course>302.4</course>
  <speed>0.1972308292331602</speed>
  <fix>3d</fix>
</trkpt>
<trkpt lat="-27.2744197" lon="151.290095">
  <ele>353.85</ele>
  <time>2026-09-01T19:53:08Z</time>
  <course>73.97</course>
  <speed>0.86</speed>
  <fix>3d</fix>
</trkpt>
<trkpt lat="-27.2744193" lon="151.290096">
  <ele>353.81</ele>
  <time>2026-09-01T19:53:08Z</time>
  <course>302.38</course>
  <speed>0.15</speed>
  <fix>3d</fix>
</trkpt>
<trkpt lat="-27.2744193" lon="151.290096">
  <ele>353.8</ele>
  <time>2026-09-01T19:53:08Z</time>
  <course>302.22</course>
  <speed>0.0632455532033676</speed>
  <fix>3d</fix>
</trkpt>
<trkpt lat="-27.2744194" lon="151.2900962">
  <ele>353.83</ele>
  <time>2026-09-01T19:53:08Z</time>
  <course>74.52</course>
  <speed>0.39</speed>
  <fix>3d</fix>
</trkpt>
<trkpt lat="-27.2744192" lon="151.290096">
  <ele>353.8</ele>
  <time>2026-09-01T19:53:08Z</time>
  <course>302.14</course>
  <speed>0.09433981132056603</speed>
  <fix>3d</fix>
</trkpt>
<trkpt lat="-27.2744192" lon="151.290096">
  <ele>353.79</ele>
  <time>2026-09-01T19:53:08Z</time>
  <course>301.85</course>
  <speed>0.2220360331117452</speed>
  <fix>3d</fix>
</trkpt>
<trkpt lat="-27.2744194" lon="151.2900962">
  <ele>353.83</ele>
  <time>2026-09-01T19:53:08Z</time>
  <course>74.52</course>
  <speed>0.39</speed>
  <fix>3d</fix>
</trkpt>
<trkpt lat="-27.2744192" lon="151.290096">
  <ele>353.79</ele>
  <time>2026-09-01T19:53:08Z</time>
  <course>301.83</course>
  <speed>0.23194827009486402</speed>
  <fix>3d</fix>
</trkpt>
<trkpt lat="-27.2744192" lon="151.2900957">
  <ele>353.79</ele>
  <time>2026-09-01T19:53:08Z</time>
  <course>301.3</course>
  <speed>0.42</speed>
  <fix>3d</fix>
</trkpt>
<trkpt lat="-27.2744193" lon="151.2900967">
  <ele>353.81</ele>
  <time>2026-09-01T19:53:08Z</time>
  <course>286.85</course>
  <speed>0.04</speed>
  <fix>3d</fix>
</trkpt>
<trkpt lat="-27.2744192" lon="151.2900957">
  <ele>353.79</ele>
  <time>2026-09-01T19:53:08Z</time>
  <course>301.26</course>
  <speed>0.43</speed>
  <fix>3d</fix>
</trkpt>
<trkpt lat="-27.2744193" lon="151.2900952">
  <ele>353.78</ele>
  <time>2026-09-01T19:53:08Z</time>
  <course>300.62</course>
  <speed>0.6000833275470999</speed>
  <fix>3d</fix>
</trkpt>
<trkpt lat="-27.2744193" lon="151.2900967">
  <ele>353.81</ele>
  <time>2026-09-01T19:53:08Z</time>
  <course>286.85</course>
  <speed>0.04</speed>
  <fix>3d</fix>
</trkpt>
<trkpt lat="-27.2744193" lon="151.2900951">
  <ele>353.78</ele>
  <time>2026-09-01T19:53:08Z</time>
  <course>300.45</course>
  <speed>0.6500769185258002</speed>
  <fix>3d</fix>
</trkpt>
<trkpt lat="-27.2744193" lon="151.2900946">
  <ele>353.78</ele>
  <time>2026-09-01T19:53:08Z</time>
  <course>299.82</course>
  <speed>0.7902531240052139</speed>
  <fix>3d</fix>
</trkpt>
<trkpt lat="-27.2744193" lon="151.2900962">
  <ele>353.79</ele>
  <time>2026-09-01T19:53:08Z</time>
  <course>263.85</course>
  <speed>0.44</speed>
  <fix>3d</fix>
</trkpt>
<trkpt lat="-27.2744193" lon="151.2900944">
  <ele>353.78</ele>
  <time>2026-09-01T19:53:08Z</time>
  <course>299.59</course>
  <speed>0.8302409288875127</speed>
  <fix>3d</fix>
</trkpt>
<trkpt lat="-27.2744194" lon="151.2900938">
  <ele>353.77</ele>
  <time>2026-09-01T19:53:08Z</time>
  <course>298.94</course>
  <speed>0.9604686356149272</speed>
  <fix>3d</fix>
</trkpt>
<trkpt lat="-27.2744193" lon="151.2900962">
  <ele>353.79</ele>
  <time>2026-09-01T19:53:08Z</time>
  <course>263.85</course>
  <speed>0.44</speed>
  <fix>3d</fix>
</trkpt>
<trkpt lat="-27.2744194" lon="151.2900936">
  <ele>353.77</ele>
  <time>2026-09-01T19:53:08Z</time>
  <course>298.72</course>
  <speed>1.0004498987955368</speed>
  <fix>3d</fix>
</trkpt>
<trkpt lat="-27.2744194" lon="151.2900928">
  <ele>353.77</ele>
  <time>2026-09-01T19:53:08Z</time>
  <course>297.99</course>
  <speed>1.1307077429645558</speed>
  <fix>3d</fix>
</trkpt>
<trkpt lat="-27.2744194" lon="151.290095">
  <ele>353.78</ele>
  <time>2026-09-01T19:53:08Z</time>
  <course>264.37</course>
  <speed>0.82</speed>
  <fix>3d</fix>
</trkpt>
<trkpt lat="-27.2744194" lon="151.2900925">
  <ele>353.77</ele>
  <time>2026-09-01T19:53:08Z</time>
  <course>297.73</course>
  <speed>1.1806777714516352</speed>
  <fix>3d</fix>
</trkpt>
<trkpt lat="-27.2744195" lon="151.2900916">
  <ele>353.77</ele>
  <time>2026-09-01T19:53:08Z</time>
  <course>297.01</course>
  <speed>1.3006152390311285</speed>
  <fix>3d</fix>
</trkpt>
<trkpt lat="-27.2744194" lon="151.290095">
  <ele>353.78</ele>
  <time>2026-09-01T19:53:08Z</time>
  <course>264.37</course>
  <speed>0.82</speed>
  <fix>3d</fix>
</trkpt>
<trkpt lat="-27.2744195" lon="151.2900913">
  <ele>353.77</ele>
  <time>2026-09-01T19:53:08Z</time>
  <course>296.75</course>
  <speed>1.3405968819895113</speed>
  <fix>3d</fix>
</trkpt>
<trkpt lat="-27.2744195" lon="151.2900903">
  <ele>353.76</ele>
  <time>2026-09-01T19:53:08Z</time>
  <course>296.02</course>
  <speed>1.4608559134972896</speed>
  <fix>3d</fix>
</trkpt>
<trkpt lat="-27.2744196" lon="151.290093">
  <ele>353.77</ele>
  <time>2026-09-01T19:53:08Z</time>
  <course>265.27</course>
  <speed>1.18</speed>
  <fix>3d</fix>
</trkpt>
<trkpt lat="-27.2744195" lon="151.2900899">
  <ele>353.76</ele>
  <time>2026-09-01T19:53:08Z</time>
  <course>295.77</course>
  <speed>1.5008331019803633</speed>
  <fix>3d</fix>
</trkpt>
<trkpt lat="-27.2744196" lon="151.2900887">
  <ele>353.76</ele>
  <time>2026-09-01T19:53:08Z</time>
  <course>295.04</course>
  <speed>1.6011246047700347</speed>
  <fix>3d</fix>
</trkpt>
<trkpt lat="-27.2744196" lon="151.290093">
  <ele>353.77</ele>
  <time>2026-09-01T19:53:08Z</time>
  <course>265.27</course>
  <speed>1.18</speed>
  <fix>3d</fix>
</trkpt>
<trkpt lat="-27.2744196" lon="151.2900882">
  <ele>353.76</ele>
  <time>2026-09-01T19:53:08Z</time>
  <course>294.71</course>
  <speed>1.6510905486980416</speed>
  <fix>3d</fix>
</trkpt>
<trkpt lat="-27.2744197" lon="151.2900871">
  <ele>353.76</ele>
  <time>2026-09-01T19:53:08Z</time>
  <course>294.05</course>
  <speed>1.7414074767268</speed>
  <fix>3d</fix>
</trkpt>
<trkpt lat="-27.2744197" lon="151.2900902">
  <ele>353.76</ele>
  <time>2026-09-01T19:53:08Z</time>
  <course>265.87</course>
  <speed>1.51</speed>
  <fix>3d</fix>
</trkpt>
<trkpt lat="-27.2744197" lon="151.2900866">
  <ele>353.76</ele>
  <time>2026-09-01T19:53:08Z</time>
  <course>293.79</course>
  <speed>1.7817968458833908</speed>
  <fix>3d</fix>
</trkpt>
<trkpt lat="-27.2744198" lon="151.2900852">
  <ele>353.76</ele>
  <time>2026-09-01T19:53:08Z</time>
  <course>293.03</course>
  <speed>1.872671887971836</speed>
  <fix>3d</fix>
</trkpt>
<trkpt lat="-27.2744197" lon="151.2900902">
  <ele>353.76</ele>
  <time>2026-09-01T19:53:08Z</time>
  <course>265.87</course>
  <speed>1.51</speed>
  <fix>3d</fix>
</trkpt>
<trkpt lat="-27.2744198" lon="151.2900847">
  <ele>353.76</ele>
  <time>2026-09-01T19:53:08Z</time>
  <course>292.73</course>
  <speed>1.9031815467789719</speed>
  <fix>3d</fix>
</trkpt>
<trkpt lat="-27.2744199" lon="151.2900833">
  <ele>353.77</ele>
  <time>2026-09-01T19:53:08Z</time>
  <course>291.98</course>
  <speed>1.984263087395419</speed>
  <fix>3d</fix>
</trkpt>
<trkpt lat="-27.2744199" lon="151.2900868">
  <ele>353.76</ele>
  <time>2026-09-01T19:53:08Z</time>
  <course>265.75</course>
  <speed>1.81</speed>
  <fix>3d</fix>
</trkpt>
<trkpt lat="-27.2744199" lon="151.2900832">
  <ele>353.77</ele>
  <time>2026-09-01T19:53:08Z</time>
  <course>291.95</course>
  <speed>1.984263087395419</speed>
  <fix>3d</fix>
</trkpt>
<trkpt lat="-27.2744201" lon="151.2900813">
  <ele>353.78</ele>
  <time>2026-09-01T19:53:08Z</time>
  <course>290.86</course>
  <speed>2.076174366473105</speed>
  <fix>3d</fix>
</trkpt>
<trkpt lat="-27.2744199" lon="151.2900868">
  <ele>353.76</ele>
  <time>2026-09-01T19:53:08Z</time>
  <course>265.75</course>
  <speed>1.81</speed>
  <fix>3d</fix>
</trkpt>
<trkpt lat="-27.2744201" lon="151.2900812">
  <ele>353.78</ele>
  <time>2026-09-01T19:53:08Z</time>
  <course>290.83</course>
  <speed>2.086144769664848</speed>
  <fix>3d</fix>
</trkpt>
<trkpt lat="-27.2744203" lon="151.2900791">
  <ele>353.79</ele>
  <time>2026-09-01T19:53:08Z</time>
  <course>289.67</course>
  <speed>2.1592822881689187</speed>
  <fix>3d</fix>
</trkpt>
<trkpt lat="-27.2744202" lon="151.2900829">
  <ele>353.76</ele>
  <time>2026-09-01T19:53:08Z</time>
  <course>264.89</course>
  <speed>2.06</speed>
  <fix>3d</fix>
</trkpt>
<trkpt lat="-27.2744203" lon="151.2900785">
  <ele>353.8</ele>
  <time>2026-09-01T19:53:08Z</time>
  <course>289.34</course>
  <speed>2.1801376103356414</speed>
  <fix>3d</fix>
</trkpt>
<trkpt lat="-27.2744205" lon="151.2900769">
  <ele>353.81</ele>
  <time>2026-09-01T19:53:08Z</time>
  <course>288.42</course>
  <speed>2.234032228952841</speed>
  <fix>3d</fix>
</trkpt>
<trkpt lat="-27.2744202" lon="151.2900829">
  <ele>353.76</ele>
  <time>2026-09-01T19:53:08Z</time>
  <course>264.89</course>
  <speed>2.06</speed>
  <fix>3d</fix>
</trkpt>
<trkpt lat="-27.2744206" lon="151.2900763">
  <ele>353.81</ele>
  <time>2026-09-01T19:53:08Z</time>
  <course>288.05</course>
  <speed>2.245105788153422</speed>
  <fix>3d</fix>
</trkpt>
<trkpt lat="-27.2744208" lon="151.2900746">
  <ele>353.83</ele>
  <time>2026-09-01T19:53:08Z</time>
  <course>287.07</course>
  <speed>2.2798245546532745</speed>
  <fix>3d</fix>
</trkpt>
<trkpt lat="-27.2744206" lon="151.2900785">
  <ele>353.78</ele>
  <time>2026-09-01T19:53:08Z</time>
  <course>263.43</course>
  <speed>2.25</speed>
  <fix>3d</fix>
</trkpt>
<trkpt lat="-27.2744209" lon="151.290074">
  <ele>353.83</ele>
  <time>2026-09-01T19:53:08Z</time>
  <course>286.68</course>
  <speed>2.2924441105510076</speed>
  <fix>3d</fix>
</trkpt>
<trkpt lat="-27.2744211" lon="151.2900723">
  <ele>353.85</ele>
  <time>2026-09-01T19:53:08Z</time>
  <course>285.64</course>
  <speed>2.3181242417092314</speed>
  <fix>3d</fix>
</trkpt>
<trkpt lat="-27.2744206" lon="151.2900785">
  <ele>353.78</ele>
  <time>2026-09-01T19:53:08Z</time>
  <course>263.43</course>
  <speed>2.25</speed>
  <fix>3d</fix>
</trkpt>
<trkpt lat="-27.2744212" lon="151.2900716">
  <ele>353.86</ele>
  <time>2026-09-01T19:53:08Z</time>
  <course>285.23</course>
  <speed>2.3311799587333453</speed>
  <fix>3d</fix>
</trkpt>
<trkpt lat="-27.2744215" lon="151.2900699">
  <ele>353.88</ele>
  <time>2026-09-01T19:53:08Z</time>
  <course>284.14</course>
  <speed>2.3398504225697847</speed>
  <fix>3d</fix>
</trkpt>
<trkpt lat="-27.2744212" lon="151.2900739">
  <ele>353.82</ele>
  <time>2026-09-01T19:53:08Z</time>
  <course>261.38</course>
  <speed>2.38</speed>
  <fix>3d</fix>
</trkpt>
<trkpt lat="-27.2744215" lon="151.2900698">
  <ele>353.88</ele>
  <time>2026-09-01T19:53:08Z</time>
  <course>284.07</course>
  <speed>2.3398504225697847</speed>
  <fix>3d</fix>
</trkpt>
<trkpt lat="-27.274422" lon="151.2900675">
  <ele>353.91</ele>
  <time>2026-09-01T19:53:08Z</time>
  <course>282.55</course>
  <speed>2.353720459187964</speed>
  <fix>3d</fix>
</trkpt>
<trkpt lat="-27.2744212" lon="151.2900739">
  <ele>353.82</ele>
  <time>2026-09-01T19:53:08Z</time>
  <course>261.38</course>
  <speed>2.38</speed>
  <fix>3d</fix>
</trkpt>
<trkpt lat="-27.274422" lon="151.2900674">
  <ele>353.91</ele>
  <time>2026-09-01T19:53:08Z</time>
  <course>282.5</course>
  <speed>2.353720459187964</speed>
  <fix>3d</fix>
</trkpt>
<trkpt lat="-27.2744225" lon="151.2900652">
  <ele>353.94</ele>
  <time>2026-09-01T19:53:08Z</time>
  <course>280.92</course>
  <speed>2.3404700382615453</speed>
  <fix>3d</fix>
</trkpt>
<trkpt lat="-27.2744219" lon="151.2900691">
  <ele>353.87</ele>
  <time>2026-09-01T19:53:08Z</time>
  <course>258.71</course>
  <speed>2.44</speed>
  <fix>3d</fix>
</trkpt>
<trkpt lat="-27.2744227" lon="151.2900645">
  <ele>353.95</ele>
  <time>2026-09-01T19:53:08Z</time>
  <course>280.41</course>
  <speed>2.335743992821131</speed>
  <fix>3d</fix>
</trkpt>
<trkpt lat="-27.2744231" lon="151.2900628">
  <ele>353.96</ele>
  <time>2026-09-01T19:53:08Z</time>
  <course>279.21</course>
  <speed>2.317282891664287</speed>
  <fix>3d</fix>
</trkpt>
<trkpt lat="-27.2744219" lon="151.2900691">
  <ele>353.87</ele>
  <time>2026-09-01T19:53:08Z</time>
  <course>258.71</course>
  <speed>2.44</speed>
  <fix>3d</fix>
</trkpt>
<trkpt lat="-27.2744232" lon="151.2900623">
  <ele>353.97</ele>
  <time>2026-09-01T19:53:08Z</time>
  <course>278.8</course>
  <speed>2.3008042072284205</speed>
  <fix>3d</fix>
</trkpt>
<trkpt lat="-27.2744237" lon="151.2900605">
  <ele>353.99</ele>
  <time>2026-09-01T19:53:08Z</time>
  <course>277.36</course>
  <speed>2.2770595073471402</speed>
  <fix>3d</fix>
</trkpt>
<trkpt lat="-27.2744229" lon="151.2900642">
  <ele>353.92</ele>
  <time>2026-09-01T19:53:08Z</time>
  <course>255.54</course>
  <speed>2.44</speed>
  <fix>3d</fix>
</trkpt>
<trkpt lat="-27.2744239" lon="151.2900599">
  <ele>353.99</ele>
  <time>2026-09-01T19:53:08Z</time>
  <course>276.87</course>
  <speed>2.264199637841151</speed>
  <fix>3d</fix>
</trkpt>
<trkpt lat="-27.2744244" lon="151.2900583">
  <ele>354.0</ele>
  <time>2026-09-01T19:53:08Z</time>
  <course>275.49</course>
  <speed>2.220495440211486</speed>
  <fix>3d</fix>
</trkpt>
<trkpt lat="-27.2744229" lon="151.2900642">
  <ele>353.92</ele>
  <time>2026-09-01T19:53:08Z</time>
  <course>255.54</course>
  <speed>2.44</speed>
  <fix>3d</fix>
</trkpt>
<trkpt lat="-27.2744244" lon="151.2900581">
  <ele>354.0</ele>
  <time>2026-09-01T19:53:08Z</time>
  <course>275.36</course>
  <speed>2.220495440211486</speed>
  <fix>3d</fix>
</trkpt>
<trkpt lat="-27.2744251" lon="151.2900561">
  <ele>354.0</ele>
  <time>2026-09-01T19:53:08Z</time>
  <course>273.57</course>
  <speed>2.163353877663107</speed>
  <fix>3d</fix>
</trkpt>
<trkpt lat="-27.2744241" lon="151.2900596">
  <ele>353.96</ele>
  <time>2026-09-01T19:53:08Z</time>
  <course>252.07</course>
  <speed>2.38</speed>
  <fix>3d</fix>
</trkpt>
<trkpt lat="-27.2744252" lon="151.290056">
  <ele>354.0</ele>
  <time>2026-09-01T19:53:08Z</time>
  <course>273.49</course>
  <speed>2.1540659228538015</speed>
  <fix>3d</fix>
</trkpt>
<trkpt lat="-27.2744259" lon="151.2900541">
  <ele>353.99</ele>
  <time>2026-09-01T19:53:08Z</time>
  <course>271.57</course>
  <speed>2.103806074713161</speed>
  <fix>3d</fix>
</trkpt>
<trkpt lat="-27.2744241" lon="151.2900596">
  <ele>353.96</ele>
  <time>2026-09-01T19:53:08Z</time>
  <course>252.07</course>
  <speed>2.38</speed>
  <fix>3d</fix>
</trkpt>
<trkpt lat="-27.2744261" lon="151.2900535">
  <ele>353.98</ele>
  <time>2026-09-01T19:53:08Z</time>
  <course>270.96</course>
  <speed>2.0806249061279645</speed>
  <fix>3d</fix>
</trkpt>
<trkpt lat="-27.2744267" lon="151.2900521">
  <ele>353.96</ele>
  <time>2026-09-01T19:53:08Z</time>
  <course>269.53</course>
  <speed>2.0348218595248087</speed>
  <fix>3d</fix>
</trkpt>
<trkpt lat="-27.2744255" lon="151.2900551">
  <ele>353.97</ele>
  <time>2026-09-01T19:53:08Z</time>
  <course>248.22</course>
  <speed>2.28</speed>
  <fix>3d</fix>
</trkpt>
<trkpt lat="-27.274427" lon="151.2900515">
  <ele>353.95</ele>
  <time>2026-09-01T19:53:08Z</time>
  <course>268.91</course>
  <speed>2.0171762441591463</speed>
  <fix>3d</fix>
</trkpt>
<trkpt lat="-27.2744276" lon="151.2900502">
  <ele>353.91</ele>
  <time>2026-09-01T19:53:08Z</time>
  <course>267.45</course>
  <speed>1.9785095400325974</speed>
  <fix>3d</fix>
</trkpt>
<trkpt lat="-27.2744255" lon="151.2900551">
  <ele>353.97</ele>
  <time>2026-09-01T19:53:08Z</time>
  <course>248.22</course>
  <speed>2.28</speed>
  <fix>3d</fix>
</trkpt>
<trkpt lat="-27.2744279" lon="151.2900497">
  <ele>353.9</ele>
  <time>2026-09-01T19:53:08Z</time>
  <course>266.8</course>
  <speed>1.9622436138257655</speed>
  <fix>3d</fix>
</trkpt>
<trkpt lat="-27.2744285" lon="151.2900485">
  <ele>353.85</ele>
  <time>2026-09-01T19:53:08Z</time>
  <course>265.36</course>
  <speed>1.9313207915827966</speed>
  <fix>3d</fix>
</trkpt>
<trkpt lat="-27.2744271" lon="151.290051">
  <ele>353.93</ele>
  <time>2026-09-01T19:53:08Z</time>
  <course>243.78</course>
  <speed>2.15</speed>
  <fix>3d</fix>
</trkpt>
<trkpt lat="-27.2744288" lon="151.2900479">
  <ele>353.83</ele>
  <time>2026-09-01T19:53:08Z</time>
  <course>264.72</course>
  <speed>1.9112822920751398</speed>
  <fix>3d</fix>
</trkpt>
<trkpt lat="-27.2744295" lon="151.2900468">
  <ele>353.78</ele>
  <time>2026-09-01T19:53:08Z</time>
  <course>263.22</course>
  <speed>1.883454273402994</speed>
  <fix>3d</fix>
</trkpt>
<trkpt lat="-27.2744271" lon="151.290051">
  <ele>353.93</ele>
  <time>2026-09-01T19:53:08Z</time>
  <course>243.78</course>
  <speed>2.15</speed>
  <fix>3d</fix>
</trkpt>
<trkpt lat="-27.2744298" lon="151.2900463">
  <ele>353.76</ele>
  <time>2026-09-01T19:53:08Z</time>
  <course>262.57</course>
  <speed>1.8704277585621958</speed>
  <fix>3d</fix>
</trkpt>
<trkpt lat="-27.2744305" lon="151.2900451">
  <ele>353.69</ele>
  <time>2026-09-01T19:53:08Z</time>
  <course>261.06</course>
  <speed>1.8541305239923105</speed>
  <fix>3d</fix>
</trkpt>
<trkpt lat="-27.2744289" lon="151.2900473">
  <ele>353.82</ele>
  <time>2026-09-01T19:53:08Z</time>
  <course>238.76</course>
  <speed>2.04</speed>
  <fix>3d</fix>
</trkpt>
<trkpt lat="-27.2744308" lon="151.2900447">
  <ele>353.66</ele>
  <time>2026-09-01T19:53:08Z</time>
  <course>260.4</course>
  <speed>1.8428510520386612</speed>
  <fix>3d</fix>
</trkpt>
<trkpt lat="-27.2744316" lon="151.2900436">
  <ele>353.59</ele>
  <time>2026-09-01T19:53:08Z</time>
  <course>258.87</course>
  <speed>1.8298087331740442</speed>
  <fix>3d</fix>
</trkpt>
<trkpt lat="-27.2744289" lon="151.2900473">
  <ele>353.82</ele>
  <time>2026-09-01T19:53:08Z</time>
  <course>238.76</course>
  <speed>2.04</speed>
  <fix>3d</fix>
</trkpt>
<trkpt lat="-27.2744318" lon="151.2900432">
  <ele>353.56</ele>
  <time>2026-09-01T19:53:08Z</time>
  <course>258.31</course>
  <speed>1.8278402556022229</speed>
  <fix>3d</fix>
</trkpt>
<trkpt lat="-27.2744327" lon="151.2900421">
  <ele>353.48</ele>
  <time>2026-09-01T19:53:08Z</time>
  <course>256.68</course>
  <speed>1.824828759089466</speed>
  <fix>3d</fix>
</trkpt>
<trkpt lat="-27.2744309" lon="151.2900439">
  <ele>353.66</ele>
  <time>2026-09-01T19:53:08Z</time>
  <course>233.29</course>
  <speed>1.96</speed>
  <fix>3d</fix>
</trkpt>
<trkpt lat="-27.274433" lon="151.2900417">
  <ele>353.45</ele>
  <time>2026-09-01T19:53:08Z</time>
  <course>256.03</course>
  <speed>1.8243903091169937</speed>
  <fix>3d</fix>
</trkpt>
<trkpt lat="-27.2744339" lon="151.2900407">
  <ele>353.36</ele>
  <time>2026-09-01T19:53:08Z</time>
  <course>254.49</course>
  <speed>1.825212316416915</speed>
  <fix>3d</fix>
</trkpt>
<trkpt lat="-27.2744309" lon="151.2900439">
  <ele>353.66</ele>
  <time>2026-09-01T19:53:08Z</time>
  <course>233.29</course>
  <speed>1.96</speed>
  <fix>3d</fix>
</trkpt>
<trkpt lat="-27.2744342" lon="151.2900403">
  <ele>353.32</ele>
  <time>2026-09-01T19:53:08Z</time>
  <course>253.83</course>
  <speed>1.826307750626931</speed>
  <fix>3d</fix>
</trkpt>
<trkpt lat="-27.2744351" lon="151.2900394">
  <ele>353.23</ele>
  <time>2026-09-01T19:53:08Z</time>
  <course>252.3</course>
  <speed>1.8374166647769363</speed>
  <fix>3d</fix>
</trkpt>
<trkpt lat="-27.2744332" lon="151.2900409">
  <ele>353.45</ele>
  <time>2026-09-01T19:53:08Z</time>
  <course>227.54</course>
  <speed>1.92</speed>
  <fix>3d</fix>
</trkpt>
<trkpt lat="-27.2744352" lon="151.2900393">
  <ele>353.23</ele>
  <time>2026-09-01T19:53:08Z</time>
  <course>252.23</course>
  <speed>1.8374166647769363</speed>
  <fix>3d</fix>
</trkpt>
<trkpt lat="-27.2744364" lon="151.2900381">
  <ele>353.1</ele>
  <time>2026-09-01T19:53:08Z</time>
  <course>250.12</course>
  <speed>1.8541305239923105</speed>
  <fix>3d</fix>
</trkpt>
<trkpt lat="-27.2744332" lon="151.2900409">
  <ele>353.45</ele>
  <time>2026-09-01T19:53:08Z</time>
  <course>227.54</course>
  <speed>1.92</speed>
  <fix>3d</fix>
</trkpt>
<trkpt lat="-27.2744365" lon="151.2900381">
  <ele>353.09</ele>
  <time>2026-09-01T19:53:08Z</time>
  <course>250.05</course>
  <speed>1.856017241299229</speed>
  <fix>3d</fix>
</trkpt>
<trkpt lat="-27.2744378" lon="151.2900369">
  <ele>352.96</ele>
  <time>2026-09-01T19:53:08Z</time>
  <course>247.98</course>
  <speed>1.883454273402994</speed>
  <fix>3d</fix>
</trkpt>
<trkpt lat="-27.2744357" lon="151.2900382">
  <ele>353.2</ele>
  <time>2026-09-01T19:53:08Z</time>
  <course>221.74</course>
  <speed>1.93</speed>
  <fix>3d</fix>
</trkpt>
<trkpt lat="-27.2744383" lon="151.2900365">
  <ele>352.92</ele>
  <time>2026-09-01T19:53:08Z</time>
  <course>247.33</course>
  <speed>1.88875620449014</speed>
  <fix>3d</fix>
</trkpt>
<trkpt lat="-27.2744393" lon="151.2900357">
  <ele>352.82</ele>
  <time>2026-09-01T19:53:08Z</time>
  <course>245.83</course>
  <speed>1.903785702225962</speed>
  <fix>3d</fix>
</trkpt>
<trkpt lat="-27.2744357" lon="151.2900382">
  <ele>353.2</ele>
  <time>2026-09-01T19:53:08Z</time>
  <course>221.74</course>
  <speed>1.93</speed>
  <fix>3d</fix>
</trkpt>
<trkpt lat="-27.2744397" lon="151.2900354">
  <ele>352.77</ele>
  <time>2026-09-01T19:53:08Z</time>
  <course>245.19</course>
  <speed>1.919088325221119</speed>
  <fix>3d</fix>
</trkpt>
<trkpt lat="-27.2744408" lon="151.2900346">
  <ele>352.67</ele>
  <time>2026-09-01T19:53:08Z</time>
  <course>243.71</course>
  <speed>1.9425756098540927</speed>
  <fix>3d</fix>
</trkpt>
<trkpt lat="-27.2744384" lon="151.2900356">
  <ele>352.93</ele>
  <time>2026-09-01T19:53:08Z</time>
  <course>216.05</course>
  <speed>1.96</speed>
  <fix>3d</fix>
</trkpt>
<trkpt lat="-27.2744413" lon="151.2900343">
  <ele>352.63</ele>
  <time>2026-09-01T19:53:08Z</time>
  <course>243.08</course>
  <speed>1.9505896544378576</speed>
  <fix>3d</fix>
</trkpt>
<trkpt lat="-27.2744424" lon="151.2900336">
  <ele>352.52</ele>
  <time>2026-09-01T19:53:08Z</time>
  <course>241.62</course>
  <speed>1.9722575896672323</speed>
  <fix>3d</fix>
</trkpt>
<trkpt lat="-27.2744384" lon="151.2900356">
  <ele>352.93</ele>
  <time>2026-09-01T19:53:08Z</time>
  <course>216.05</course>
  <speed>1.96</speed>
  <fix>3d</fix>
</trkpt>
<trkpt lat="-27.2744429" lon="151.2900333">
  <ele>352.48</ele>
  <time>2026-09-01T19:53:08Z</time>
  <course>241.0</course>
  <speed>1.9815650380444243</speed>
  <fix>3d</fix>
</trkpt>
<trkpt lat="-27.2744441" lon="151.2900327">
  <ele>352.38</ele>
  <time>2026-09-01T19:53:08Z</time>
  <course>239.55</course>
  <speed>1.997223072167954</speed>
  <fix>3d</fix>
</trkpt>
<trkpt lat="-27.2744414" lon="151.2900335">
  <ele>352.64</ele>
  <time>2026-09-01T19:53:08Z</time>
  <course>210.57</course>
  <speed>2.01</speed>
  <fix>3d</fix>
</trkpt>
<trkpt lat="-27.2744446" lon="151.2900324">
  <ele>352.33</ele>
  <time>2026-09-01T19:53:08Z</time>
  <course>238.93</course>
  <speed>1.998499437077729</speed>
  <fix>3d</fix>
</trkpt>
<trkpt lat="-27.2744458" lon="151.2900318">
  <ele>352.22</ele>
  <time>2026-09-01T19:53:08Z</time>
  <course>237.52</course>
  <speed>2.0038213493223394</speed>
  <fix>3d</fix>
</trkpt>
<trkpt lat="-27.2744414" lon="151.2900335">
  <ele>352.64</ele>
  <time>2026-09-01T19:53:08Z</time>
  <course>210.57</course>
  <speed>2.01</speed>
  <fix>3d</fix>
</trkpt>
<trkpt lat="-27.2744462" lon="151.2900316">
  <ele>352.18</ele>
  <time>2026-09-01T19:53:08Z</time>
  <course>236.98</course>
  <speed>1.9932385707686877</speed>
  <fix>3d</fix>
</trkpt>
<trkpt lat="-27.2744475" lon="151.290031">
  <ele>352.06</ele>
  <time>2026-09-01T19:53:08Z</time>
  <course>235.51</course>
  <speed>1.9292485583770693</speed>
  <fix>3d</fix>
</trkpt>
<trkpt lat="-27.2744446" lon="151.2900316">
  <ele>352.35</ele>
  <time>2026-09-01T19:53:08Z</time>
  <course>205.31</course>
  <speed>2.05</speed>
  <fix>3d</fix>
</trkpt>
<trkpt lat="-27.2744479" lon="151.2900308">
  <ele>352.01</ele>
  <time>2026-09-01T19:53:08Z</time>
  <course>234.98</course>
  <speed>1.886001060445089</speed>
  <fix>3d</fix>
</trkpt>
<trkpt lat="-27.2744491" lon="151.2900305">
  <ele>351.86</ele>
  <time>2026-09-01T19:53:08Z</time>
  <course>233.46</course>
  <speed>1.7317332358074091</speed>
  <fix>3d</fix>
</trkpt>
<trkpt lat="-27.2744446" lon="151.2900316">
  <ele>352.35</ele>
  <time>2026-09-01T19:53:08Z</time>
  <course>205.31</course>
  <speed>2.05</speed>
  <fix>3d</fix>
</trkpt>
<trkpt lat="-27.2744495" lon="151.2900304">
  <ele>351.81</ele>
  <time>2026-09-01T19:53:08Z</time>
  <course>233.0</course>
  <speed>1.6901183390520322</speed>
  <fix>3d</fix>
</trkpt>
<trkpt lat="-27.2744506" lon="151.2900302">
  <ele>351.64</ele>
  <time>2026-09-01T19:53:08Z</time>
  <course>231.44</course>
  <speed>1.5402921800749363</speed>
  <fix>3d</fix>
</trkpt>
<trkpt lat="-27.274448" lon="151.29003">
  <ele>352.03</ele>
  <time>2026-09-01T19:53:08Z</time>
  <course>198.44</course>
  <speed>1.93</speed>
  <fix>3d</fix>
</trkpt>
<trkpt lat="-27.2744507" lon="151.2900302">
  <ele>351.63</ele>
  <time>2026-09-01T19:53:08Z</time>
  <course>231.35</course>
  <speed>1.530130713370593</speed>
  <fix>3d</fix>
</trkpt>
<trkpt lat="-27.2744519" lon="151.2900302">
  <ele>351.41</ele>
  <time>2026-09-01T19:53:08Z</time>
  <course>229.18</course>
  <speed>1.3865424623862048</speed>
  <fix>3d</fix>
</trkpt>
<trkpt lat="-27.274448" lon="151.29003">
  <ele>352.03</ele>
  <time>2026-09-01T19:53:08Z</time>
  <course>198.44</course>
  <speed>1.93</speed>
  <fix>3d</fix>
</trkpt>
<trkpt lat="-27.274452" lon="151.2900302">
  <ele>351.4</ele>
  <time>2026-09-01T19:53:08Z</time>
  <course>229.07</course>
  <speed>1.3807968713753664</speed>
  <fix>3d</fix>
</trkpt>
<trkpt lat="-27.2744531" lon="151.2900305">
  <ele>351.18</ele>
  <time>2026-09-01T19:53:08Z</time>
  <course>226.58</course>
  <speed>1.3148383931114882</speed>
  <fix>3d</fix>
</trkpt>
<trkpt lat="-27.2744511" lon="151.2900292">
  <ele>351.64</ele>
  <time>2026-09-01T19:53:08Z</time>
  <course>184.08</course>
  <speed>1.58</speed>
  <fix>3d</fix>
</trkpt>
<trkpt lat="-27.2744534" lon="151.2900307">
  <ele>351.12</ele>
  <time>2026-09-01T19:53:08Z</time>
  <course>225.82</course>
  <speed>1.3086252328302401</speed>
  <fix>3d</fix>
</trkpt>
<trkpt lat="-27.2744541" lon="151.2900312">
  <ele>350.97</ele>
  <time>2026-09-01T19:53:08Z</time>
  <course>223.7</course>
  <speed>1.3245754036671524</speed>
  <fix>3d</fix>
</trkpt>
<trkpt lat="-27.2744511" lon="151.2900292">
  <ele>351.64</ele>
  <time>2026-09-01T19:53:08Z</time>
  <course>184.08</course>
  <speed>1.58</speed>
  <fix>3d</fix>
</trkpt>
<trkpt lat="-27.2744544" lon="151.2900314">
  <ele>350.92</ele>
  <time>2026-09-01T19:53:08Z</time>
  <course>222.97</course>
  <speed>1.3364505228402583</speed>
  <fix>3d</fix>
</trkpt>
<trkpt lat="-27.274455" lon="151.290032">
  <ele>350.77</ele>
  <time>2026-09-01T19:53:08Z</time>
  <course>220.63</course>
  <speed>1.4042791745233567</speed>
  <fix>3d</fix>
</trkpt>
<trkpt lat="-27.2744536" lon="151.2900296">
  <ele>351.2</ele>
  <time>2026-09-01T19:53:08Z</time>
  <course>157.91</course>
  <speed>1.32</speed>
  <fix>3d</fix>
</trkpt>
<trkpt lat="-27.2744552" lon="151.2900323">
  <ele>350.72</ele>
  <time>2026-09-01T19:53:08Z</time>
  <course>219.77</course>
  <speed>1.4396180048887968</speed>
  <fix>3d</fix>
</trkpt>
<trkpt lat="-27.2744557" lon="151.2900332">
  <ele>350.58</ele>
  <time>2026-09-01T19:53:08Z</time>
  <course>217.46</course>
  <speed>1.5387332452377833</speed>
  <fix>3d</fix>
</trkpt>
<trkpt lat="-27.2744536" lon="151.2900296">
  <ele>351.2</ele>
  <time>2026-09-01T19:53:08Z</time>
  <course>157.91</course>
  <speed>1.32</speed>
  <fix>3d</fix>
</trkpt>
<trkpt lat="-27.2744559" lon="151.2900336">
  <ele>350.54</ele>
  <time>2026-09-01T19:53:08Z</time>
  <course>216.62</course>
  <speed>1.5769908052997648</speed>
  <fix>3d</fix>
</trkpt>
<trkpt lat="-27.2744563" lon="151.2900346">
  <ele>350.43</ele>
  <time>2026-09-01T19:53:08Z</time>
  <course>214.34</course>
  <speed>1.6888457596832223</speed>
  <fix>3d</fix>
</trkpt>
<trkpt lat="-27.2744555" lon="151.2900311">
  <ele>350.79</ele>
  <time>2026-09-01T19:53:08Z</time>
  <course>129.53</course>
  <speed>1.38</speed>
  <fix>3d</fix>
</trkpt>
<trkpt lat="-27.2744564" lon="151.290035">
  <ele>350.39</ele>
  <time>2026-09-01T19:53:08Z</time>
  <course>213.52</course>
  <speed>1.7280046296234277</speed>
  <fix>3d</fix>
</trkpt>
<trkpt lat="-27.2744567" lon="151.2900363">
  <ele>350.29</ele>
  <time>2026-09-01T19:53:08Z</time>
  <course>211.31</course>
  <speed>1.8417654573804993</speed>
  <fix>3d</fix>
</trkpt>
<trkpt lat="-27.2744555" lon="151.2900311">
  <ele>350.79</ele>
  <time>2026-09-01T19:53:08Z</time>
  <course>129.53</course>
  <speed>1.38</speed>
  <fix>3d</fix>
</trkpt>
<trkpt lat="-27.2744568" lon="151.2900367">
  <ele>350.26</ele>
  <time>2026-09-01T19:53:08Z</time>
  <course>210.63</course>
  <speed>1.8748866632412744</speed>
  <fix>3d</fix>
</trkpt>
<trkpt lat="-27.2744571" lon="151.290038">
  <ele>350.18</ele>
  <time>2026-09-01T19:53:08Z</time>
  <course>208.44</course>
  <speed>1.9798989873223332</speed>
  <fix>3d</fix>
</trkpt>
<trkpt lat="-27.2744567" lon="151.2900338">
  <ele>350.45</ele>
  <time>2026-09-01T19:53:08Z</time>
  <course>110.42</course>
  <speed>1.64</speed>
  <fix>3d</fix>
</trkpt>
<trkpt lat="-27.2744571" lon="151.2900381">
  <ele>350.18</ele>
  <time>2026-09-01T19:53:08Z</time>
  <course>208.35</course>
  <speed>1.9897989848223363</speed>
  <fix>3d</fix>
</trkpt>
<trkpt lat="-27.2744573" lon="151.29004">
  <ele>350.1</ele>
  <time>2026-09-01T19:53:08Z</time>
  <course>205.78</course>
  <speed>2.101547049199708</speed>
  <fix>3d</fix>
</trkpt>
<trkpt lat="-27.2744567" lon="151.2900338">
  <ele>350.45</ele>
  <time>2026-09-01T19:53:08Z</time>
  <course>110.42</course>
  <speed>1.64</speed>
  <fix>3d</fix>
</trkpt>
<trkpt lat="-27.2744574" lon="151.2900401">
  <ele>350.09</ele>
  <time>2026-09-01T19:53:08Z</time>
  <course>205.61</course>
  <speed>2.110473880435387</speed>
  <fix>3d</fix>
</trkpt>
<trkpt lat="-27.2744576" lon="151.2900421">
  <ele>350.04</ele>
  <time>2026-09-01T19:53:08Z</time>
  <course>203.35</course>
  <speed>2.205810508633958</speed>
  <fix>3d</fix>
</trkpt>
<trkpt lat="-27.2744576" lon="151.2900373">
  <ele>350.21</ele>
  <time>2026-09-01T19:53:08Z</time>
  <course>100.31</course>
  <speed>1.93</speed>
  <fix>3d</fix>
</trkpt>
<trkpt lat="-27.2744576" lon="151.2900427">
  <ele>350.03</ele>
  <time>2026-09-01T19:53:08Z</time>
  <course>202.68</course>
  <speed>2.234390297150433</speed>
  <fix>3d</fix>
</trkpt>
<trkpt lat="-27.2744577" lon="151.2900443">
  <ele>350.01</ele>
  <time>2026-09-01T19:53:08Z</time>
  <course>201.19</course>
  <speed>2.2921823662178364</speed>
  <fix>3d</fix>
</trkpt>
<trkpt lat="-27.2744576" lon="151.2900373">
  <ele>350.21</ele>
  <time>2026-09-01T19:53:08Z</time>
  <course>100.31</course>
  <speed>1.93</speed>
  <fix>3d</fix>
</trkpt>
<trkpt lat="-27.2744577" lon="151.2900443">
  <ele>350.01</ele>
  <time>2026-09-01T19:53:08Z</time>
  <course>201.14</course>
  <speed>2.2921823662178364</speed>
  <fix>3d</fix>
</trkpt>
<trkpt lat="-27.2744579" lon="151.2900464">
  <ele>349.99</ele>
  <time>2026-09-01T19:53:08Z</time>
  <course>199.35</course>
  <speed>2.3605296015936763</speed>
  <fix>3d</fix>
</trkpt>
<trkpt lat="-27.274458" lon="151.2900414">
  <ele>350.07</ele>
  <time>2026-09-01T19:53:08Z</time>
  <course>95.26</course>
  <speed>2.16</speed>
  <fix>3d</fix>
</trkpt>
<trkpt lat="-27.2744579" lon="151.2900465">
  <ele>349.99</ele>
  <time>2026-09-01T19:53:08Z</time>
  <course>199.29</course>
  <speed>2.3605296015936763</speed>
  <fix>3d</fix>
</trkpt>
<trkpt lat="-27.2744579" lon="151.2900488">
  <ele>349.98</ele>
  <time>2026-09-01T19:53:08Z</time>
  <course>197.76</course>
  <speed>2.42</speed>
  <fix>3d</fix>
</trkpt>
<trkpt lat="-27.274458" lon="151.2900414">
  <ele>350.07</ele>
  <time>2026-09-01T19:53:08Z</time>
  <course>95.26</course>
  <speed>2.16</speed>
  <fix>3d</fix>
</trkpt>
<trkpt lat="-27.2744579" lon="151.2900494">
  <ele>349.98</ele>
  <time>2026-09-01T19:53:08Z</time>
  <course>197.36</course>
  <speed>2.43</speed>
  <fix>3d</fix>
</trkpt>
<trkpt lat="-27.274458" lon="151.2900511">
  <ele>349.98</ele>
  <time>2026-09-01T19:53:08Z</time>
  <course>196.43</course>
  <speed>2.4503265088555035</speed>
  <fix>3d</fix>
</trkpt>
<trkpt lat="-27.2744583" lon="151.2900459">
  <ele>350.01</ele>
  <time>2026-09-01T19:53:08Z</time>
  <course>92.07</course>
  <speed>2.33</speed>
  <fix>3d</fix>
</trkpt>
<trkpt lat="-27.274458" lon="151.2900518">
  <ele>349.98</ele>
  <time>2026-09-01T19:53:08Z</time>
  <course>196.11</course>
  <speed>2.4605080776132398</speed>
  <fix>3d</fix>
</trkpt>
<trkpt lat="-27.274458" lon="151.2900536">
  <ele>349.97</ele>
  <time>2026-09-01T19:53:08Z</time>
  <course>195.38</course>
  <speed>2.471295206971438</speed>
  <fix>3d</fix>
</trkpt>
<trkpt lat="-27.2744583" lon="151.2900459">
  <ele>350.01</ele>
  <time>2026-09-01T19:53:08Z</time>
  <course>92.07</course>
  <speed>2.33</speed>
  <fix>3d</fix>
</trkpt>
<trkpt lat="-27.274458" lon="151.2900542">
  <ele>349.97</ele>
  <time>2026-09-01T19:53:08Z</time>
  <course>195.15</course>
  <speed>2.4820153101864624</speed>
  <fix>3d</fix>
</trkpt>
<trkpt lat="-27.274458" lon="151.290056">
  <ele>349.97</ele>
  <time>2026-09-01T19:53:08Z</time>
  <course>194.64</course>
  <speed>2.4834049206683955</speed>
  <fix>3d</fix>
</trkpt>
<trkpt lat="-27.2744584" lon="151.2900507">
  <ele>350.0</ele>
  <time>2026-09-01T19:53:08Z</time>
  <course>89.52</course>
  <speed>2.43</speed>
  <fix>3d</fix>
</trkpt>
<trkpt lat="-27.274458" lon="151.2900566">
  <ele>349.97</ele>
  <time>2026-09-01T19:53:08Z</time>
  <course>194.49</course>
  <speed>2.483948469674844</speed>
  <fix>3d</fix>
</trkpt>
<trkpt lat="-27.2744579" lon="151.2900584">
  <ele>349.96</ele>
  <time>2026-09-01T19:53:08Z</time>
  <course>194.22</course>
  <speed>2.4858197842965204</speed>
  <fix>3d</fix>
</trkpt>
<trkpt lat="-27.2744584" lon="151.2900507">
  <ele>350.0</ele>
  <time>2026-09-01T19:53:08Z</time>
  <course>89.52</course>
  <speed>2.43</speed>
  <fix>3d</fix>
</trkpt>
<trkpt lat="-27.2744578" lon="151.290059">
  <ele>349.95</ele>
  <time>2026-09-01T19:53:08Z</time>
  <course>194.16</course>
  <speed>2.475843290678956</speed>
  <fix>3d</fix>
</trkpt>
<trkpt lat="-27.2744577" lon="151.2900609">
  <ele>349.94</ele>
  <time>2026-09-01T19:53:08Z</time>
  <course>194.09</course>
  <speed>2.4681166909204273</speed>
  <fix>3d</fix>
</trkpt>
<trkpt lat="-27.2744583" lon="151.2900557">
  <ele>349.99</ele>
  <time>2026-09-01T19:53:08Z</time>
  <course>87.4</course>
  <speed>2.47</speed>
  <fix>3d</fix>
</trkpt>
<trkpt lat="-27.2744577" lon="151.2900615">
  <ele>349.94</ele>
  <time>2026-09-01T19:53:08Z</time>
  <course>194.11</course>
  <speed>2.4589835298350415</speed>
  <fix>3d</fix>
</trkpt>
<trkpt lat="-27.2744576" lon="151.2900633">
  <ele>349.92</ele>
  <time>2026-09-01T19:53:08Z</time>
  <course>194.22</course>
  <speed>2.4418230894149557</speed>
  <fix>3d</fix>
</trkpt>
<trkpt lat="-27.2744583" lon="151.2900557">
  <ele>349.99</ele>
  <time>2026-09-01T19:53:08Z</time>
  <course>87.4</course>
  <speed>2.47</speed>
  <fix>3d</fix>
</trkpt>
<trkpt lat="-27.2744575" lon="151.2900639">
  <ele>349.91</ele>
  <time>2026-09-01T19:53:08Z</time>
  <course>194.29</course>
  <speed>2.4328789530101984</speed>
  <fix>3d</fix>
</trkpt>
<trkpt lat="-27.2744574" lon="151.2900658">
  <ele>349.88</ele>
  <time>2026-09-01T19:53:08Z</time>
  <course>194.56</course>
  <speed>2.405202694161139</speed>
  <fix>3d</fix>
</trkpt>
<trkpt lat="-27.274458" lon="151.2900607">
  <ele>349.97</ele>
  <time>2026-09-01T19:53:08Z</time>
  <course>85.49</course>
  <speed>2.46</speed>
  <fix>3d</fix>
</trkpt>
<trkpt lat="-27.2744573" lon="151.2900664">
  <ele>349.87</ele>
  <time>2026-09-01T19:53:08Z</time>
  <course>194.67</course>
  <speed>2.3964139876073163</speed>
  <fix>3d</fix>
</trkpt>
<trkpt lat="-27.2744571" lon="151.2900681">
  <ele>349.84</ele>
  <time>2026-09-01T19:53:08Z</time>
  <course>194.99</course>
  <speed>2.360444873323671</speed>
  <fix>3d</fix>
</trkpt>
<trkpt lat="-27.274458" lon="151.2900607">
  <ele>349.97</ele>
  <time>2026-09-01T19:53:08Z</time>
  <course>85.49</course>
  <speed>2.46</speed>
  <fix>3d</fix>
</trkpt>
<trkpt lat="-27.2744571" lon="151.2900682">
  <ele>349.84</ele>
  <time>2026-09-01T19:53:08Z</time>
  <course>195.01</course>
  <speed>2.3505318547086316</speed>
  <fix>3d</fix>
</trkpt>
<trkpt lat="-27.2744569" lon="151.2900704">
  <ele>349.79</ele>
  <time>2026-09-01T19:53:08Z</time>
  <course>195.46</course>
  <speed>2.2938613733179256</speed>
  <fix>3d</fix>
</trkpt>
<trkpt lat="-27.2744577" lon="151.2900656">
  <ele>349.92</ele>
  <time>2026-09-01T19:53:08Z</time>
  <course>83.64</course>
  <speed>2.4</speed>
  <fix>3d</fix>
</trkpt>
<trkpt lat="-27.2744568" lon="151.290071">
  <ele>349.78</ele>
  <time>2026-09-01T19:53:08Z</time>
  <course>195.59</course>
  <speed>2.2755438910291317</speed>
  <fix>3d</fix>
</trkpt>
<trkpt lat="-27.2744566" lon="151.2900726">
  <ele>349.74</ele>
  <time>2026-09-01T19:53:08Z</time>
  <course>195.92</course>
  <speed>2.2292599668948436</speed>
  <fix>3d</fix>
</trkpt>
<trkpt lat="-27.2744577" lon="151.2900656">
  <ele>349.92</ele>
  <time>2026-09-01T19:53:08Z</time>
  <course>83.64</course>
  <speed>2.4</speed>
  <fix>3d</fix>
</trkpt>
<trkpt lat="-27.2744566" lon="151.2900727">
  <ele>349.74</ele>
  <time>2026-09-01T19:53:08Z</time>
  <course>195.93</course>
  <speed>2.2193918085818014</speed>
  <fix>3d</fix>
</trkpt>
<trkpt lat="-27.2744563" lon="151.2900748">
  <ele>349.68</ele>
  <time>2026-09-01T19:53:08Z</time>
  <course>196.31</course>
  <speed>2.143944961980134</speed>
  <fix>3d</fix>
</trkpt>
<trkpt lat="-27.2744572" lon="151.2900704">
  <ele>349.84</ele>
  <time>2026-09-01T19:53:08Z</time>
  <course>81.76</course>
  <speed>2.3</speed>
  <fix>3d</fix>
</trkpt>
<trkpt lat="-27.2744562" lon="151.2900754">
  <ele>349.66</ele>
  <time>2026-09-01T19:53:08Z</time>
  <course>196.41</course>
  <speed>2.1162466774929616</speed>
  <fix>3d</fix>
</trkpt>
<trkpt lat="-27.274456" lon="151.2900769">
  <ele>349.62</ele>
  <time>2026-09-01T19:53:08Z</time>
  <course>196.62</course>
  <speed>2.051389772812568</speed>
  <fix>3d</fix>
</trkpt>
<trkpt lat="-27.2744572" lon="151.2900704">
  <ele>349.84</ele>
  <time>2026-09-01T19:53:08Z</time>
  <course>81.76</course>
  <speed>2.3</speed>
  <fix>3d</fix>
</trkpt>
<trkpt lat="-27.2744558" lon="151.2900777">
  <ele>349.59</ele>
  <time>2026-09-01T19:53:08Z</time>
  <course>196.72</course>
  <speed>2.012212712413874</speed>
  <fix>3d</fix>
</trkpt>
<trkpt lat="-27.2744556" lon="151.2900789">
  <ele>349.55</ele>
  <time>2026-09-01T19:53:08Z</time>
  <course>196.85</course>
  <speed>1.9458674158328466</speed>
  <fix>3d</fix>
</trkpt>
<trkpt lat="-27.2744565" lon="151.2900748">
  <ele>349.72</ele>
  <time>2026-09-01T19:53:08Z</time>
  <course>79.75</course>
  <speed>2.15</speed>
  <fix>3d</fix>
</trkpt>
<trkpt lat="-27.2744555" lon="151.2900794">
  <ele>349.53</ele>
  <time>2026-09-01T19:53:08Z</time>
  <course>196.91</course>
  <speed>1.918801709400948</speed>
  <fix>3d</fix>
</trkpt>
<trkpt lat="-27.2744552" lon="151.2900807">
  <ele>349.48</ele>
  <time>2026-09-01T19:53:08Z</time>
  <course>197.02</course>
  <speed>1.8432851108821986</speed>
  <fix>3d</fix>
</trkpt>
<trkpt lat="-27.2744565" lon="151.2900748">
  <ele>349.72</ele>
  <time>2026-09-01T19:53:08Z</time>
  <course>79.75</course>
  <speed>2.15</speed>
  <fix>3d</fix>
</trkpt>
<trkpt lat="-27.2744551" lon="151.2900813">
  <ele>349.46</ele>
  <time>2026-09-01T19:53:08Z</time>
  <course>197.06</course>
  <speed>1.8069310999592652</speed>
  <fix>3d</fix>
</trkpt>
<trkpt lat="-27.2744549" lon="151.2900825">
  <ele>349.41</ele>
  <time>2026-09-01T19:53:08Z</time>
  <course>197.15</course>
  <speed>1.722556240010758</speed>
  <fix>3d</fix>
</trkpt>
<trkpt lat="-27.2744558" lon="151.2900789">
  <ele>349.59</ele>
  <time>2026-09-01T19:53:08Z</time>
  <course>77.47</course>
  <speed>1.96</speed>
  <fix>3d</fix>
</trkpt>
<trkpt lat="-27.2744547" lon="151.290083">
  <ele>349.39</ele>
  <time>2026-09-01T19:53:08Z</time>
  <course>197.19</course>
  <speed>1.6840427548016705</speed>
  <fix>3d</fix>
</trkpt>
<trkpt lat="-27.2744545" lon="151.2900841">
  <ele>349.34</ele>
  <time>2026-09-01T19:53:08Z</time>
  <course>197.26</course>
  <speed>1.600562401157793</speed>
  <fix>3d</fix>
</trkpt>
<trkpt lat="-27.2744558" lon="151.2900789">
  <ele>349.59</ele>
  <time>2026-09-01T19:53:08Z</time>
  <course>77.47</course>
  <speed>1.96</speed>
  <fix>3d</fix>
</trkpt>
<trkpt lat="-27.2744544" lon="151.2900844">
  <ele>349.32</ele>
  <time>2026-09-01T19:53:08Z</time>
  <course>197.29</course>
  <speed>1.5749285698088025</speed>
  <fix>3d</fix>
</trkpt>
<trkpt lat="-27.274454" lon="151.2900855">
  <ele>349.27</ele>
  <time>2026-09-01T19:53:08Z</time>
  <course>197.37</course>
  <speed>1.4832734070291962</speed>
  <fix>3d</fix>
</trkpt>
<trkpt lat="-27.2744549" lon="151.2900824">
  <ele>349.44</ele>
  <time>2026-09-01T19:53:08Z</time>
  <course>74.64</course>
  <speed>1.74</speed>
  <fix>3d</fix>
</trkpt>
<trkpt lat="-27.2744539" lon="151.2900859">
  <ele>349.25</ele>
  <time>2026-09-01T19:53:08Z</time>
  <course>197.41</course>
  <speed>1.4455794685869054</speed>
  <fix>3d</fix>
</trkpt>
<trkpt lat="-27.2744536" lon="151.2900869">
  <ele>349.2</ele>
  <time>2026-09-01T19:53:08Z</time>
  <course>197.5</course>
  <speed>1.3555810562264434</speed>
  <fix>3d</fix>
</trkpt>
<trkpt lat="-27.2744549" lon="151.2900824">
  <ele>349.44</ele>
  <time>2026-09-01T19:53:08Z</time>
  <course>74.64</course>
  <speed>1.74</speed>
  <fix>3d</fix>
</trkpt>
<trkpt lat="-27.2744535" lon="151.2900872">
  <ele>349.18</ele>
  <time>2026-09-01T19:53:08Z</time>
  <course>197.53</course>
  <speed>1.327742444904131</speed>
  <fix>3d</fix>
</trkpt>
<trkpt lat="-27.2744532" lon="151.2900881">
  <ele>349.13</ele>
  <time>2026-09-01T19:53:08Z</time>
  <course>197.65</course>
  <speed>1.2306502346320827</speed>
  <fix>3d</fix>
</trkpt>
<trkpt lat="-27.2744541" lon="151.2900856">
  <ele>349.3</ele>
  <time>2026-09-01T19:53:08Z</time>
  <course>70.85</course>
  <speed>1.5</speed>
  <fix>3d</fix>
</trkpt>
<trkpt lat="-27.2744531" lon="151.2900881">
  <ele>349.13</ele>
  <time>2026-09-01T19:53:08Z</time>
  <course>197.66</course>
  <speed>1.2257650672131262</speed>
  <fix>3d</fix>
</trkpt>
<trkpt lat="-27.2744527" lon="151.2900892">
  <ele>349.06</ele>
  <time>2026-09-01T19:53:08Z</time>
  <course>197.84</course>
  <speed>1.114136436887332</speed>
  <fix>3d</fix>
</trkpt>
<trkpt lat="-27.2744541" lon="151.2900856">
  <ele>349.3</ele>
  <time>2026-09-01T19:53:08Z</time>
  <course>70.85</course>
  <speed>1.5</speed>
  <fix>3d</fix>
</trkpt>
<trkpt lat="-27.2744527" lon="151.2900892">
  <ele>349.06</ele>
  <time>2026-09-01T19:53:08Z</time>
  <course>197.84</course>
  <speed>1.105350623105628</speed>
  <fix>3d</fix>
</trkpt>
<trkpt lat="-27.2744522" lon="151.2900901">
  <ele>349.0</ele>
  <time>2026-09-01T19:53:08Z</time>
  <course>198.06</course>
  <speed>0.9985990186255943</speed>
  <fix>3d</fix>
</trkpt>
<trkpt lat="-27.2744532" lon="151.2900882">
  <ele>349.16</ele>
  <time>2026-09-01T19:53:08Z</time>
  <course>65.49</course>
  <speed>1.25</speed>
  <fix>3d</fix>
</trkpt>
<trkpt lat="-27.2744522" lon="151.2900901">
  <ele>349.0</ele>
  <time>2026-09-01T19:53:08Z</time>
  <course>198.07</course>
  <speed>0.9902019995940222</speed>
  <fix>3d</fix>
</trkpt>
<trkpt lat="-27.2744517" lon="151.2900909">
  <ele>348.94</ele>
  <time>2026-09-01T19:53:08Z</time>
  <course>198.31</course>
  <speed>0.8902246907382428</speed>
  <fix>3d</fix>
</trkpt>
<trkpt lat="-27.2744532" lon="151.2900882">
  <ele>349.16</ele>
  <time>2026-09-01T19:53:08Z</time>
  <course>65.49</course>
  <speed>1.25</speed>
  <fix>3d</fix>
</trkpt>
<trkpt lat="-27.2744517" lon="151.2900909">
  <ele>348.94</ele>
  <time>2026-09-01T19:53:08Z</time>
  <course>198.32</course>
  <speed>0.8823831367382311</speed>
  <fix>3d</fix>
</trkpt>
<trkpt lat="-27.2744512" lon="151.2900915">
  <ele>348.88</ele>
  <time>2026-09-01T19:53:08Z</time>
  <course>198.6</course>
  <speed>0.7919595949289332</speed>
  <fix>3d</fix>
</trkpt>
<trkpt lat="-27.2744523" lon="151.2900902">
  <ele>349.03</ele>
  <time>2026-09-01T19:53:08Z</time>
  <course>57.64</course>
  <speed>1.01</speed>
  <fix>3d</fix>
</trkpt>
<trkpt lat="-27.2744512" lon="151.2900916">
  <ele>348.88</ele>
  <time>2026-09-01T19:53:08Z</time>
  <course>198.62</course>
  <speed>0.7849203781276163</speed>
  <fix>3d</fix>
</trkpt>
<trkpt lat="-27.2744507" lon="151.290092">
  <ele>348.83</ele>
  <time>2026-09-01T19:53:08Z</time>
  <course>198.91</course>
  <speed>0.7140028011149536</speed>
  <fix>3d</fix>
</trkpt>
<trkpt lat="-27.2744523" lon="151.2900902">
  <ele>349.03</ele>
  <time>2026-09-01T19:53:08Z</time>
  <course>57.64</course>
  <speed>1.01</speed>
  <fix>3d</fix>
</trkpt>
<trkpt lat="-27.2744506" lon="151.2900921">
  <ele>348.81</ele>
  <time>2026-09-01T19:53:08Z</time>
  <course>198.99</course>
  <speed>0.6963476143421474</speed>
  <fix>3d</fix>
</trkpt>
<trkpt lat="-27.2744502" lon="151.2900924">
  <ele>348.77</ele>
  <time>2026-09-01T19:53:08Z</time>
  <course>199.25</course>
  <speed>0.6488451279003334</speed>
  <fix>3d</fix>
</trkpt>
<trkpt lat="-27.2744513" lon="151.2900917">
  <ele>348.91</ele>
  <time>2026-09-01T19:53:08Z</time>
  <course>46.11</course>
  <speed>0.81</speed>
  <fix>3d</fix>
</trkpt>
<trkpt lat="-27.2744501" lon="151.2900925">
  <ele>348.76</ele>
  <time>2026-09-01T19:53:08Z</time>
  <course>199.33</course>
  <speed>0.6307138812488592</speed>
  <fix>3d</fix>
</trkpt>
<trkpt lat="-27.2744497" lon="151.2900927">
  <ele>348.72</ele>
  <time>2026-09-01T19:53:08Z</time>
  <course>199.59</course>
  <speed>0.5977457653551382</speed>
  <fix>3d</fix>
</trkpt>
<trkpt lat="-27.2744513" lon="151.2900917">
  <ele>348.91</ele>
  <time>2026-09-01T19:53:08Z</time>
  <course>46.11</course>
  <speed>0.81</speed>
  <fix>3d</fix>
</trkpt>
<trkpt lat="-27.2744496" lon="151.2900927">
  <ele>348.71</ele>
  <time>2026-09-01T19:53:08Z</time>
  <course>199.67</course>
  <speed>0.5894064811316551</speed>
  <fix>3d</fix>
</trkpt>
<trkpt lat="-27.2744492" lon="151.2900928">
  <ele>348.67</ele>
  <time>2026-09-01T19:53:08Z</time>
  <course>199.92</course>
  <speed>0.5742821606144493</speed>
  <fix>3d</fix>
</trkpt>
<trkpt lat="-27.2744502" lon="151.2900926">
  <ele>348.8</ele>
  <time>2026-09-01T19:53:08Z</time>
  <course>29.67</course>
  <speed>0.65</speed>
  <fix>3d</fix>
</trkpt>
<trkpt lat="-27.2744491" lon="151.2900928">
  <ele>348.66</ele>
  <time>2026-09-01T19:53:08Z</time>
  <course>200.01</course>
  <speed>0.5714017850864661</speed>
  <fix>3d</fix>
</trkpt>
<trkpt lat="-27.2744487" lon="151.2900929">
  <ele>348.62</ele>
  <time>2026-09-01T19:53:08Z</time>
  <course>200.26</course>
  <speed>0.561426753904728</speed>
  <fix>3d</fix>
</trkpt>
<trkpt lat="-27.2744502" lon="151.2900926">
  <ele>348.8</ele>
  <time>2026-09-01T19:53:08Z</time>
  <course>29.67</course>
  <speed>0.65</speed>
  <fix>3d</fix>
</trkpt>
<trkpt lat="-27.2744486" lon="151.2900928">
  <ele>348.61</ele>
  <time>2026-09-01T19:53:08Z</time>
  <course>200.34</course>
  <speed>0.5643580423808985</speed>
  <fix>3d</fix>
</trkpt>
<trkpt lat="-27.2744482" lon="151.2900928">
  <ele>348.57</ele>
  <time>2026-09-01T19:53:08Z</time>
  <course>200.59</course>
  <speed>0.570087712549569</speed>
  <fix>3d</fix>
</trkpt>
<trkpt lat="-27.2744492" lon="151.290093">
  <ele>348.7</ele>
  <time>2026-09-01T19:53:08Z</time>
  <course>8.43</course>
  <speed>0.57</speed>
  <fix>3d</fix>
</trkpt>
<trkpt lat="-27.2744481" lon="151.2900927">
  <ele>348.56</ele>
  <time>2026-09-01T19:53:08Z</time>
  <course>200.65</course>
  <speed>0.5756735185849702</speed>
  <fix>3d</fix>
</trkpt>
<trkpt lat="-27.2744477" lon="151.2900926">
  <ele>348.53</ele>
  <time>2026-09-01T19:53:08Z</time>
  <course>200.9</course>
  <speed>0.5950630218724736</speed>
  <fix>3d</fix>
</trkpt>
<trkpt lat="-27.2744492" lon="151.290093">
  <ele>348.7</ele>
  <time>2026-09-01T19:53:08Z</time>
  <course>8.43</course>
  <speed>0.57</speed>
  <fix>3d</fix>
</trkpt>
<trkpt lat="-27.2744477" lon="151.2900926">
  <ele>348.52</ele>
  <time>2026-09-01T19:53:08Z</time>
  <course>200.93</course>
  <speed>0.5993329625508679</speed>
  <fix>3d</fix>
</trkpt>
<trkpt lat="-27.2744473" lon="151.2900924">
  <ele>348.48</ele>
  <time>2026-09-01T19:53:08Z</time>
  <course>201.2</course>
  <speed>0.6351377803280167</speed>
  <fix>3d</fix>
</trkpt>
<trkpt lat="-27.2744482" lon="151.290093">
  <ele>348.61</ele>
  <time>2026-09-01T19:53:08Z</time>
  <course>346.01</course>
  <speed>0.57</speed>
  <fix>3d</fix>
</trkpt>
<trkpt lat="-27.2744471" lon="151.2900923">
  <ele>348.47</ele>
  <time>2026-09-01T19:53:08Z</time>
  <course>201.28</course>
  <speed>0.638200595424354</speed>
  <fix>3d</fix>
</trkpt>
<trkpt lat="-27.2744468" lon="151.290092">
  <ele>348.43</ele>
  <time>2026-09-01T19:53:08Z</time>
  <course>201.48</course>
  <speed>0.6735725647619565</speed>
  <fix>3d</fix>
</trkpt>
<trkpt lat="-27.2744482" lon="151.290093">
  <ele>348.61</ele>
  <time>2026-09-01T19:53:08Z</time>
  <course>346.01</course>
  <speed>0.57</speed>
  <fix>3d</fix>
</trkpt>
<trkpt lat="-27.2744468" lon="151.290092">
  <ele>348.43</ele>
  <time>2026-09-01T19:53:08Z</time>
  <course>201.49</course>
  <speed>0.6735725647619565</speed>
  <fix>3d</fix>
</trkpt>
<trkpt lat="-27.2744464" lon="151.2900915">
  <ele>348.38</ele>
  <time>2026-09-01T19:53:08Z</time>
  <course>201.76</course>
  <speed>0.7144928271158499</speed>
  <fix>3d</fix>
</trkpt>
<trkpt lat="-27.2744472" lon="151.2900925">
  <ele>348.51</ele>
  <time>2026-09-01T19:53:08Z</time>
  <course>327.21</course>
  <speed>0.62</speed>
  <fix>3d</fix>
</trkpt>
<trkpt lat="-27.2744463" lon="151.2900915">
  <ele>348.38</ele>
  <time>2026-09-01T19:53:08Z</time>
  <course>201.77</course>
  <speed>0.7144928271158499</speed>
  <fix>3d</fix>
</trkpt>
<trkpt lat="-27.2744459" lon="151.290091">
  <ele>348.34</ele>
  <time>2026-09-01T19:53:08Z</time>
  <course>202.02</course>
  <speed>0.756042326857432</speed>
  <fix>3d</fix>
</trkpt>
<trkpt lat="-27.2744472" lon="151.2900925">
  <ele>348.51</ele>
  <time>2026-09-01T19:53:08Z</time>
  <course>327.21</course>
  <speed>0.62</speed>
  <fix>3d</fix>
</trkpt>
<trkpt lat="-27.2744458" lon="151.2900908">
  <ele>348.32</ele>
  <time>2026-09-01T19:53:08Z</time>
  <course>202.08</course>
  <speed>0.7720103626247513</speed>
  <fix>3d</fix>
</trkpt>
<trkpt lat="-27.2744455" lon="151.2900904">
  <ele>348.29</ele>
  <time>2026-09-01T19:53:08Z</time>
  <course>202.26</course>
  <speed>0.8015609770940699</speed>
  <fix>3d</fix>
</trkpt>
<trkpt lat="-27.2744463" lon="151.2900917">
  <ele>348.41</ele>
  <time>2026-09-01T19:53:08Z</time>
  <course>313.29</course>
  <speed>0.71</speed>
  <fix>3d</fix>
</trkpt>
<trkpt lat="-27.2744454" lon="151.2900902">
  <ele>348.28</ele>
  <time>2026-09-01T19:53:08Z</time>
  <course>202.33</course>
  <speed>0.8130190649671138</speed>
  <fix>3d</fix>
</trkpt>
<trkpt lat="-27.2744451" lon="151.2900897">
  <ele>348.24</ele>
  <time>2026-09-01T19:53:08Z</time>
  <course>202.5</course>
  <speed>0.8459905436823747</speed>
  <fix>3d</fix>
</trkpt>
<trkpt lat="-27.2744463" lon="151.2900917">
  <ele>348.41</ele>
  <time>2026-09-01T19:53:08Z</time>
  <course>313.29</course>
  <speed>0.71</speed>
  <fix>3d</fix>
</trkpt>
<trkpt lat="-27.2744451" lon="151.2900895">
  <ele>348.23</ele>
  <time>2026-09-01T19:53:08Z</time>
  <course>202.55</course>
  <speed>0.8635392289873113</speed>
  <fix>3d</fix>
</trkpt>
<trkpt lat="-27.2744448" lon="151.2900889">
  <ele>348.2</ele>
  <time>2026-09-01T19:53:08Z</time>
  <course>202.72</course>
  <speed>0.89</speed>
  <fix>3d</fix>
</trkpt>
<trkpt lat="-27.2744455" lon="151.2900905">
  <ele>348.32</ele>
  <time>2026-09-01T19:53:08Z</time>
  <course>303.16</course>
  <speed>0.8</speed>
  <fix>3d</fix>
</trkpt>
<trkpt lat="-27.2744447" lon="151.2900887">
  <ele>348.18</ele>
  <time>2026-09-01T19:53:08Z</time>
  <course>202.78</course>
  <speed>0.9037698822156003</speed>
  <fix>3d</fix>
</trkpt>
<trkpt lat="-27.2744444" lon="151.2900881">
  <ele>348.15</ele>
  <time>2026-09-01T19:53:08Z</time>
  <course>202.93</course>
  <speed>0.9323089616645333</speed>
  <fix>3d</fix>
</trkpt>
<trkpt lat="-27.2744455" lon="151.2900905">
  <ele>348.32</ele>
  <time>2026-09-01T19:53:08Z</time>
  <course>303.16</course>
  <speed>0.8</speed>
  <fix>3d</fix>
</trkpt>
<trkpt lat="-27.2744444" lon="151.2900879">
  <ele>348.14</ele>
  <time>2026-09-01T19:53:08Z</time>
  <course>202.98</course>
  <speed>0.9377632963600143</speed>
  <fix>3d</fix>
</trkpt>
<trkpt lat="-27.2744441" lon="151.2900872">
  <ele>348.1</ele>
  <time>2026-09-01T19:53:08Z</time>
  <course>203.14</course>
  <speed>0.9679876032264049</speed>
  <fix>3d</fix>
</trkpt>
<trkpt lat="-27.2744447" lon="151.290089">
  <ele>348.22</ele>
  <time>2026-09-01T19:53:08Z</time>
  <course>295.61</course>
  <speed>0.89</speed>
  <fix>3d</fix>
</trkpt>
<trkpt lat="-27.2744441" lon="151.2900872">
  <ele>348.1</ele>
  <time>2026-09-01T19:53:08Z</time>
  <course>203.14</course>
  <speed>0.9679876032264049</speed>
  <fix>3d</fix>
</trkpt>
<trkpt lat="-27.2744438" lon="151.2900863">
  <ele>348.05</ele>
  <time>2026-09-01T19:53:08Z</time>
  <course>203.33</course>
  <speed>0.9992997548283498</speed>
  <fix>3d</fix>
</trkpt>
<trkpt lat="-27.2744447" lon="151.290089">
  <ele>348.22</ele>
  <time>2026-09-01T19:53:08Z</time>
  <course>295.61</course>
  <speed>0.89</speed>
  <fix>3d</fix>
</trkpt>
<trkpt lat="-27.2744438" lon="151.2900863">
  <ele>348.05</ele>
  <time>2026-09-01T19:53:08Z</time>
  <course>203.33</course>
  <speed>1.0057832768544126</speed>
  <fix>3d</fix>
</trkpt>
<trkpt lat="-27.2744436" lon="151.2900853">
  <ele>348.01</ele>
  <time>2026-09-01T19:53:08Z</time>
  <course>203.52</course>
  <speed>1.0288342918079665</speed>
  <fix>3d</fix>
</trkpt>
<trkpt lat="-27.2744441" lon="151.2900872">
  <ele>348.13</ele>
  <time>2026-09-01T19:53:08Z</time>
  <course>289.81</course>
  <speed>0.97</speed>
  <fix>3d</fix>
</trkpt>
<trkpt lat="-27.2744436" lon="151.2900853">
  <ele>348.01</ele>
  <time>2026-09-01T19:53:08Z</time>
  <course>203.52</course>
  <speed>1.0384603988597736</speed>
  <fix>3d</fix>
</trkpt>
<trkpt lat="-27.2744433" lon="151.2900843">
  <ele>347.96</ele>
  <time>2026-09-01T19:53:08Z</time>
  <course>203.69</course>
  <speed>1.0599056561788884</speed>
  <fix>3d</fix>
</trkpt>
<trkpt lat="-27.2744441" lon="151.2900872">
  <ele>348.13</ele>
  <time>2026-09-01T19:53:08Z</time>
  <course>289.81</course>
  <speed>0.97</speed>
  <fix>3d</fix>
</trkpt>
<trkpt lat="-27.2744433" lon="151.290084">
  <ele>347.95</ele>
  <time>2026-09-01T19:53:08Z</time>
  <course>203.74</course>
  <speed>1.0696261028976435</speed>
  <fix>3d</fix>
</trkpt>
<trkpt lat="-27.2744431" lon="151.2900832">
  <ele>347.92</ele>
  <time>2026-09-01T19:53:08Z</time>
  <course>203.87</course>
  <speed>1.084665847162157</speed>
  <fix>3d</fix>
</trkpt>
<trkpt lat="-27.2744435" lon="151.2900853">
  <ele>348.04</ele>
  <time>2026-09-01T19:53:08Z</time>
  <course>285.25</course>
  <speed>1.03</speed>
  <fix>3d</fix>
</trkpt>
<trkpt lat="-27.2744431" lon="151.290083">
  <ele>347.9</ele>
  <time>2026-09-01T19:53:08Z</time>
  <course>203.91</course>
  <speed>1.0923827168167757</speed>
  <fix>3d</fix>
</trkpt>
<trkpt lat="-27.2744429" lon="151.2900822">
  <ele>347.87</ele>
  <time>2026-09-01T19:53:08Z</time>
  <course>204.03</course>
  <speed>1.0983624174196784</speed>
  <fix>3d</fix>
</trkpt>
<trkpt lat="-27.2744435" lon="151.2900853">
  <ele>348.04</ele>
  <time>2026-09-01T19:53:08Z</time>
  <course>285.25</course>
  <speed>1.03</speed>
  <fix>3d</fix>
</trkpt>
<trkpt lat="-27.2744429" lon="151.2900819">
  <ele>347.86</ele>
  <time>2026-09-01T19:53:08Z</time>
  <course>204.06</course>
  <speed>1.1081967334368028</speed>
  <fix>3d</fix>
</trkpt>
<trkpt lat="-27.2744428" lon="151.2900811">
  <ele>347.82</ele>
  <time>2026-09-01T19:53:08Z</time>
  <course>204.18</course>
  <speed>1.1146299834474218</speed>
  <fix>3d</fix>
</trkpt>
<trkpt lat="-27.2744431" lon="151.2900832">
  <ele>347.95</ele>
  <time>2026-09-01T19:53:08Z</time>
  <course>281.59</course>
  <speed>1.09</speed>
  <fix>3d</fix>
</trkpt>
<trkpt lat="-27.2744427" lon="151.2900808">
  <ele>347.81</ele>
  <time>2026-09-01T19:53:08Z</time>
  <course>204.22</course>
  <speed>1.1229425630903835</speed>
  <fix>3d</fix>
</trkpt>
<trkpt lat="-27.2744426" lon="151.2900799">
  <ele>347.78</ele>
  <time>2026-09-01T19:53:08Z</time>
  <course>204.32</course>
  <speed>1.131370849898476</speed>
  <fix>3d</fix>
</trkpt>
<trkpt lat="-27.2744431" lon="151.2900832">
  <ele>347.95</ele>
  <time>2026-09-01T19:53:08Z</time>
  <course>281.59</course>
  <speed>1.09</speed>
  <fix>3d</fix>
</trkpt>
<trkpt lat="-27.2744426" lon="151.2900797">
  <ele>347.77</ele>
  <time>2026-09-01T19:53:08Z</time>
  <course>204.34</course>
  <speed>1.13</speed>
  <fix>3d</fix>
</trkpt>
<trkpt lat="-27.2744425" lon="151.2900788">
  <ele>347.73</ele>
  <time>2026-09-01T19:53:08Z</time>
  <course>204.43</course>
  <speed>1.138639539099183</speed>
  <fix>3d</fix>
</trkpt>
<trkpt lat="-27.2744427" lon="151.290081">
  <ele>347.85</ele>
  <time>2026-09-01T19:53:08Z</time>
  <course>278.65</course>
  <speed>1.12</speed>
  <fix>3d</fix>
</trkpt>
<trkpt lat="-27.2744425" lon="151.2900785">
  <ele>347.72</ele>
  <time>2026-09-01T19:53:08Z</time>
  <course>204.45</course>
  <speed>1.137453295744489</speed>
  <fix>3d</fix>
</trkpt>
<trkpt lat="-27.2744424" lon="151.2900777">
  <ele>347.69</ele>
  <time>2026-09-01T19:53:08Z</time>
  <course>204.52</course>
  <speed>1.1462983904725679</speed>
  <fix>3d</fix>
</trkpt>
<trkpt lat="-27.2744427" lon="151.290081">
  <ele>347.85</ele>
  <time>2026-09-01T19:53:08Z</time>
  <course>278.65</course>
  <speed>1.12</speed>
  <fix>3d</fix>
</trkpt>
<trkpt lat="-27.2744423" lon="151.2900774">
  <ele>347.68</ele>
  <time>2026-09-01T19:53:08Z</time>
  <course>204.53</course>
  <speed>1.1462983904725679</speed>
  <fix>3d</fix>
</trkpt>
<trkpt lat="-27.2744423" lon="151.2900765">
  <ele>347.64</ele>
  <time>2026-09-01T19:53:08Z</time>
  <course>204.57</course>
  <speed>1.1443775600735975</speed>
  <fix>3d</fix>
</trkpt>
<trkpt lat="-27.2744425" lon="151.2900787">
  <ele>347.76</ele>
  <time>2026-09-01T19:53:08Z</time>
  <course>276.3</course>
  <speed>1.15</speed>
  <fix>3d</fix>
</trkpt>
<trkpt lat="-27.2744422" lon="151.2900762">
  <ele>347.63</ele>
  <time>2026-09-01T19:53:08Z</time>
  <course>204.58</course>
  <speed>1.1443775600735975</speed>
  <fix>3d</fix>
</trkpt>
<trkpt lat="-27.2744422" lon="151.2900754">
  <ele>347.59</ele>
  <time>2026-09-01T19:53:08Z</time>
  <course>204.6</course>
  <speed>1.143547113152755</speed>
  <fix>3d</fix>
</trkpt>
<trkpt lat="-27.2744425" lon="151.2900787">
  <ele>347.76</ele>
  <time>2026-09-01T19:53:08Z</time>
  <course>276.3</course>
  <speed>1.15</speed>
  <fix>3d</fix>
</trkpt>
<trkpt lat="-27.2744422" lon="151.290075">
  <ele>347.58</ele>
  <time>2026-09-01T19:53:08Z</time>
  <course>204.6</course>
  <speed>1.143547113152755</speed>
  <fix>3d</fix>
</trkpt>
<trkpt lat="-27.2744421" lon="151.2900742">
  <ele>347.55</ele>
  <time>2026-09-01T19:53:08Z</time>
  <course>204.59</course>
  <speed>1.1428035701729322</speed>
  <fix>3d</fix>
</trkpt>
<trkpt lat="-27.2744422" lon="151.2900764">
  <ele>347.66</ele>
  <time>2026-09-01T19:53:08Z</time>
  <course>274.42</course>
  <speed>1.15</speed>
  <fix>3d</fix>
</trkpt>
<trkpt lat="-27.2744421" lon="151.2900742">
  <ele>347.54</ele>
  <time>2026-09-01T19:53:08Z</time>
  <course>204.59</course>
  <speed>1.1428035701729322</speed>
  <fix>3d</fix>
</trkpt>
<trkpt lat="-27.2744421" lon="151.2900731">
  <ele>347.5</ele>
  <time>2026-09-01T19:53:08Z</time>
  <course>204.55</course>
  <speed>1.1321660655575223</speed>
  <fix>3d</fix>
</trkpt>
<trkpt lat="-27.2744422" lon="151.2900764">
  <ele>347.66</ele>
  <time>2026-09-01T19:53:08Z</time>
  <course>274.42</course>
  <speed>1.15</speed>
  <fix>3d</fix>
</trkpt>
<trkpt lat="-27.274442" lon="151.2900728">
  <ele>347.49</ele>
  <time>2026-09-01T19:53:08Z</time>
  <course>204.53</course>
  <speed>1.1216059914247962</speed>
  <fix>3d</fix>
</trkpt>
<trkpt lat="-27.274442" lon="151.2900719">
  <ele>347.45</ele>
  <time>2026-09-01T19:53:08Z</time>
  <course>204.47</course>
  <speed>1.1116204388189344</speed>
  <fix>3d</fix>
</trkpt>
<trkpt lat="-27.2744421" lon="151.290074">
  <ele>347.57</ele>
  <time>2026-09-01T19:53:08Z</time>
  <course>272.93</course>
  <speed>1.15</speed>
  <fix>3d</fix>
</trkpt>
<trkpt lat="-27.274442" lon="151.2900716">
  <ele>347.44</ele>
  <time>2026-09-01T19:53:08Z</time>
  <course>204.44</course>
  <speed>1.111125555461668</speed>
  <fix>3d</fix>
</trkpt>
<trkpt lat="-27.274442" lon="151.2900708">
  <ele>347.4</ele>
  <time>2026-09-01T19:53:08Z</time>
  <course>204.35</course>
  <speed>1.101135777277262</speed>
  <fix>3d</fix>
</trkpt>
<trkpt lat="-27.2744421" lon="151.290074">
  <ele>347.57</ele>
  <time>2026-09-01T19:53:08Z</time>
  <course>272.93</course>
  <speed>1.15</speed>
  <fix>3d</fix>
</trkpt>
<trkpt lat="-27.274442" lon="151.2900706">
  <ele>347.39</ele>
  <time>2026-09-01T19:53:08Z</time>
  <course>204.32</course>
  <speed>1.101135777277262</speed>
  <fix>3d</fix>
</trkpt>
<trkpt lat="-27.2744419" lon="151.2900697">
  <ele>347.35</ele>
  <time>2026-09-01T19:53:08Z</time>
  <course>204.2</course>
  <speed>1.0807404868885038</speed>
  <fix>3d</fix>
</trkpt>
<trkpt lat="-27.2744421" lon="151.2900717">
  <ele>347.47</ele>
  <time>2026-09-01T19:53:08Z</time>
  <course>271.77</course>
  <speed>1.13</speed>
  <fix>3d</fix>
</trkpt>
<trkpt lat="-27.2744419" lon="151.2900694">
  <ele>347.34</ele>
  <time>2026-09-01T19:53:08Z</time>
  <course>204.15</course>
  <speed>1.0807404868885038</speed>
  <fix>3d</fix>
</trkpt>
<trkpt lat="-27.2744419" lon="151.2900686">
  <ele>347.31</ele>
  <time>2026-09-01T19:53:08Z</time>
  <course>204.02</course>
  <speed>1.0607544484940896</speed>
  <fix>3d</fix>
</trkpt>
<trkpt lat="-27.2744421" lon="151.2900717">
  <ele>347.47</ele>
  <time>2026-09-01T19:53:08Z</time>
  <course>271.77</course>
  <speed>1.13</speed>
  <fix>3d</fix>
</trkpt>
<trkpt lat="-27.2744419" lon="151.2900683">
  <ele>347.3</ele>
  <time>2026-09-01T19:53:08Z</time>
  <course>203.97</course>
  <speed>1.0507616285342742</speed>
  <fix>3d</fix>
</trkpt>
<trkpt lat="-27.2744419" lon="151.2900675">
  <ele>347.26</ele>
  <time>2026-09-01T19:53:08Z</time>
  <course>203.81</course>
  <speed>1.0304368005850721</speed>
  <fix>3d</fix>
</trkpt>
<trkpt lat="-27.274442" lon="151.2900695">
  <ele>347.38</ele>
  <time>2026-09-01T19:53:08Z</time>
  <course>270.92</course>
  <speed>1.09</speed>
  <fix>3d</fix>
</trkpt>
<trkpt lat="-27.2744419" lon="151.2900672">
  <ele>347.25</ele>
  <time>2026-09-01T19:53:08Z</time>
  <course>203.75</course>
  <speed>1.0304368005850721</speed>
  <fix>3d</fix>
</trkpt>
<trkpt lat="-27.2744419" lon="151.2900665">
  <ele>347.21</ele>
  <time>2026-09-01T19:53:08Z</time>
  <course>203.59</course>
  <speed>1.0104454463255303</speed>
  <fix>3d</fix>
</trkpt>
<trkpt lat="-27.274442" lon="151.2900695">
  <ele>347.38</ele>
  <time>2026-09-01T19:53:08Z</time>
  <course>270.92</course>
  <speed>1.09</speed>
  <fix>3d</fix>
</trkpt>
<trkpt lat="-27.2744419" lon="151.2900662">
  <ele>347.2</ele>
  <time>2026-09-01T19:53:08Z</time>
  <course>203.54</course>
  <speed>1.0004498987955368</speed>
  <fix>3d</fix>
</trkpt>
<trkpt lat="-27.2744419" lon="151.2900655">
  <ele>347.16</ele>
  <time>2026-09-01T19:53:08Z</time>
  <course>203.35</course>
  <speed>0.9804590761474953</speed>
  <fix>3d</fix>
</trkpt>
<trkpt lat="-27.274442" lon="151.2900673">
  <ele>347.28</ele>
  <time>2026-09-01T19:53:08Z</time>
  <course>270.35</course>
  <speed>1.04</speed>
  <fix>3d</fix>
</trkpt>
<trkpt lat="-27.2744419" lon="151.2900652">
  <ele>347.15</ele>
  <time>2026-09-01T19:53:08Z</time>
  <course>203.29</course>
  <speed>0.9704638066409278</speed>
  <fix>3d</fix>
</trkpt>
<trkpt lat="-27.2744418" lon="151.2900645">
  <ele>347.11</ele>
  <time>2026-09-01T19:53:08Z</time>
  <course>203.11</course>
  <speed>0.9404786015641186</speed>
  <fix>3d</fix>
</trkpt>
<trkpt lat="-27.274442" lon="151.2900673">
  <ele>347.28</ele>
  <time>2026-09-01T19:53:08Z</time>
  <course>270.35</course>
  <speed>1.04</speed>
  <fix>3d</fix>
</trkpt>
<trkpt lat="-27.2744418" lon="151.2900642">
  <ele>347.1</ele>
  <time>2026-09-01T19:53:08Z</time>
  <course>203.04</course>
  <speed>0.9304837451562494</speed>
  <fix>3d</fix>
</trkpt>
<trkpt lat="-27.2744418" lon="151.2900635">
  <ele>347.06</ele>
  <time>2026-09-01T19:53:08Z</time>
  <course>202.86</course>
  <speed>0.910494371207203</speed>
  <fix>3d</fix>
</trkpt>
<trkpt lat="-27.274442" lon="151.2900652">
  <ele>347.18</ele>
  <time>2026-09-01T19:53:08Z</time>
  <course>270.06</course>
  <speed>0.99</speed>
  <fix>3d</fix>
</trkpt>
<trkpt lat="-27.2744418" lon="151.2900633">
  <ele>347.04</ele>
  <time>2026-09-01T19:53:08Z</time>
  <course>202.79</course>
  <speed>0.900499861188218</speed>
  <fix>3d</fix>
</trkpt>
<trkpt lat="-27.2744418" lon="151.2900626">
  <ele>347.01</ele>
  <time>2026-09-01T19:53:08Z</time>
  <course>202.61</course>
  <speed>0.8705170877128146</speed>
  <fix>3d</fix>
</trkpt>
<trkpt lat="-27.274442" lon="151.2900652">
  <ele>347.18</ele>
  <time>2026-09-01T19:53:08Z</time>
  <course>270.06</course>
  <speed>0.99</speed>
  <fix>3d</fix>
</trkpt>
<trkpt lat="-27.2744418" lon="151.2900626">
  <ele>347.0</ele>
  <time>2026-09-01T19:53:08Z</time>
  <course>202.6</course>
  <speed>0.8705170877128146</speed>
  <fix>3d</fix>
</trkpt>
<trkpt lat="-27.2744418" lon="151.2900617">
  <ele>346.95</ele>
  <time>2026-09-01T19:53:08Z</time>
  <course>202.36</course>
  <speed>0.8305419917138447</speed>
  <fix>3d</fix>
</trkpt>
<trkpt lat="-27.274442" lon="151.2900633">
  <ele>347.08</ele>
  <time>2026-09-01T19:53:08Z</time>
  <course>270.02</course>
  <speed>0.92</speed>
  <fix>3d</fix>
</trkpt>
<trkpt lat="-27.2744418" lon="151.2900617">
  <ele>346.95</ele>
  <time>2026-09-01T19:53:08Z</time>
  <course>202.36</course>
  <speed>0.8305419917138447</speed>
  <fix>3d</fix>
</trkpt>
<trkpt lat="-27.2744418" lon="151.2900609">
  <ele>346.9</ele>
  <time>2026-09-01T19:53:08Z</time>
  <course>202.12</course>
  <speed>0.7910120100226039</speed>
  <fix>3d</fix>
</trkpt>
<trkpt lat="-27.274442" lon="151.2900633">
  <ele>347.08</ele>
  <time>2026-09-01T19:53:08Z</time>
  <course>270.02</course>
  <speed>0.92</speed>
  <fix>3d</fix>
</trkpt>
<trkpt lat="-27.2744418" lon="151.2900606">
  <ele>346.88</ele>
  <time>2026-09-01T19:53:08Z</time>
  <course>202.02</course>
  <speed>0.7710382610480494</speed>
  <fix>3d</fix>
</trkpt>
<trkpt lat="-27.2744418" lon="151.2900601">
  <ele>346.85</ele>
  <time>2026-09-01T19:53:08Z</time>
  <course>201.88</course>
  <speed>0.7510659092250159</speed>
  <fix>3d</fix>
</trkpt>
<trkpt lat="-27.274442" lon="151.2900615">
  <ele>346.97</ele>
  <time>2026-09-01T19:53:08Z</time>
  <course>270.22</course>
  <speed>0.84</speed>
  <fix>3d</fix>
</trkpt>
<trkpt lat="-27.2744418" lon="151.2900599">
  <ele>346.83</ele>
  <time>2026-09-01T19:53:08Z</time>
  <course>201.82</course>
  <speed>0.7410802925459562</speed>
  <fix>3d</fix>
</trkpt>
<trkpt lat="-27.2744418" lon="151.2900594">
  <ele>346.79</ele>
  <time>2026-09-01T19:53:08Z</time>
  <course>201.65</course>
  <speed>0.70178344238091</speed>
  <fix>3d</fix>
</trkpt>
<trkpt lat="-27.274442" lon="151.2900615">
  <ele>346.97</ele>
  <time>2026-09-01T19:53:08Z</time>
  <course>270.22</course>
  <speed>0.84</speed>
  <fix>3d</fix>
</trkpt>
<trkpt lat="-27.2744418" lon="151.2900592">
  <ele>346.78</ele>
  <time>2026-09-01T19:53:08Z</time>
  <course>201.59</course>
  <speed>0.691809222257119</speed>
  <fix>3d</fix>
</trkpt>
<trkpt lat="-27.2744418" lon="151.2900587">
  <ele>346.74</ele>
  <time>2026-09-01T19:53:08Z</time>
  <course>201.42</course>
  <speed>0.6618912297349165</speed>
  <fix>3d</fix>
</trkpt>
<trkpt lat="-27.274442" lon="151.2900599">
  <ele>346.87</ele>
  <time>2026-09-01T19:53:08Z</time>
  <course>270.69</course>
  <speed>0.76</speed>
  <fix>3d</fix>
</trkpt>
<trkpt lat="-27.2744417" lon="151.2900585">
  <ele>346.73</ele>
  <time>2026-09-01T19:53:08Z</time>
  <course>201.35</course>
  <speed>0.6519202405202649</speed>
  <fix>3d</fix>
</trkpt>
<trkpt lat="-27.2744417" lon="151.290058">
  <ele>346.69</ele>
  <time>2026-09-01T19:53:08Z</time>
  <course>201.15</course>
  <speed>0.6129437168288782</speed>
  <fix>3d</fix>
</trkpt>
<trkpt lat="-27.274442" lon="151.2900599">
  <ele>346.87</ele>
  <time>2026-09-01T19:53:08Z</time>
  <course>270.69</course>
  <speed>0.76</speed>
  <fix>3d</fix>
</trkpt>
<trkpt lat="-27.2744417" lon="151.290058">
  <ele>346.68</ele>
  <time>2026-09-01T19:53:08Z</time>
  <course>201.14</course>
  <speed>0.6129437168288782</speed>
  <fix>3d</fix>
</trkpt>
<trkpt lat="-27.2744417" lon="151.2900574">
  <ele>346.63</ele>
  <time>2026-09-01T19:53:08Z</time>
  <course>200.8</course>
  <speed>0.563205113613149</speed>
  <fix>3d</fix>
</trkpt>
<trkpt lat="-27.274442" lon="151.2900584">
  <ele>346.76</ele>
  <time>2026-09-01T19:53:08Z</time>
  <course>271.49</course>
  <speed>0.66</speed>
  <fix>3d</fix>
</trkpt>
<trkpt lat="-27.2744417" lon="151.2900572">
  <ele>346.61</ele>
  <time>2026-09-01T19:53:08Z</time>
  <course>200.68</course>
  <speed>0.5532630477449222</speed>
  <fix>3d</fix>
</trkpt>
<trkpt lat="-27.2744417" lon="151.2900568">
  <ele>346.58</ele>
  <time>2026-09-01T19:53:08Z</time>
  <course>200.36</course>
  <speed>0.5246903848937962</speed>
  <fix>3d</fix>
</trkpt>
<trkpt lat="-27.274442" lon="151.2900584">
  <ele>346.76</ele>
  <time>2026-09-01T19:53:08Z</time>
  <course>271.49</course>
  <speed>0.66</speed>
  <fix>3d</fix>
</trkpt>
<trkpt lat="-27.2744417" lon="151.2900567">
  <ele>346.57</ele>
  <time>2026-09-01T19:53:08Z</time>
  <course>200.27</course>
  <speed>0.51478150704935</speed>
  <fix>3d</fix>
</trkpt>
<trkpt lat="-27.2744416" lon="151.2900563">
  <ele>346.52</ele>
  <time>2026-09-01T19:53:08Z</time>
  <course>199.8</course>
  <speed>0.4751841748206689</speed>
  <fix>3d</fix>
</trkpt>
<trkpt lat="-27.2744419" lon="151.2900572">
  <ele>346.65</ele>
  <time>2026-09-01T19:53:08Z</time>
  <course>272.72</course>
  <speed>0.57</speed>
  <fix>3d</fix>
</trkpt>
<trkpt lat="-27.2744416" lon="151.2900562">
  <ele>346.51</ele>
  <time>2026-09-01T19:53:08Z</time>
  <course>199.65</course>
  <speed>0.46529560496527367</speed>
  <fix>3d</fix>
</trkpt>
<trkpt lat="-27.2744416" lon="151.2900559">
  <ele>346.47</ele>
  <time>2026-09-01T19:53:08Z</time>
  <course>199.11</course>
  <speed>0.42755116652863895</speed>
  <fix>3d</fix>
</trkpt>
<trkpt lat="-27.2744419" lon="151.2900572">
  <ele>346.65</ele>
  <time>2026-09-01T19:53:08Z</time>
  <course>272.72</course>
  <speed>0.57</speed>
  <fix>3d</fix>
</trkpt>
<trkpt lat="-27.2744416" lon="151.2900557">
  <ele>346.45</ele>
  <time>2026-09-01T19:53:08Z</time>
  <course>198.91</course>
  <speed>0.41773197148410846</speed>
  <fix>3d</fix>
</trkpt>
<trkpt lat="-27.2744415" lon="151.2900554">
  <ele>346.41</ele>
  <time>2026-09-01T19:53:08Z</time>
  <course>198.32</course>
  <speed>0.38078865529319544</speed>
  <fix>3d</fix>
</trkpt>
<trkpt lat="-27.2744418" lon="151.2900561">
  <ele>346.54</ele>
  <time>2026-09-01T19:53:08Z</time>
  <course>274.62</course>
  <speed>0.47</speed>
  <fix>3d</fix>
</trkpt>
<trkpt lat="-27.2744415" lon="151.2900554">
  <ele>346.41</ele>
  <time>2026-09-01T19:53:08Z</time>
  <course>198.29</course>
  <speed>0.38078865529319544</speed>
  <fix>3d</fix>
</trkpt>
<trkpt lat="-27.2744415" lon="151.2900551">
  <ele>346.35</ele>
  <time>2026-09-01T19:53:09Z</time>
  <course>197.42</course>
  <speed>0.33241540277189324</speed>
  <fix>3d</fix>
</trkpt>
<trkpt lat="-27.2744418" lon="151.2900561">
  <ele>346.54</ele>
  <time>2026-09-01T19:53:09Z</time>
  <course>274.62</course>
  <speed>0.47</speed>
  <fix>3d</fix>
</trkpt>
<trkpt lat="-27.2744415" lon="151.2900551">
  <ele>346.35</ele>
  <time>2026-09-01T19:53:09Z</time>
  <course>197.39</course>
  <speed>0.33241540277189324</speed>
  <fix>3d</fix>
</trkpt>
<trkpt lat="-27.2744414" lon="151.2900548">
  <ele>346.3</ele>
  <time>2026-09-01T19:53:09Z</time>
  <course>196.47</course>
  <speed>0.2879236009777594</speed>
  <fix>3d</fix>
</trkpt>
<trkpt lat="-27.2744418" lon="151.2900553">
  <ele>346.43</ele>
  <time>2026-09-01T19:53:09Z</time>
  <course>277.73</course>
  <speed>0.37</speed>
  <fix>3d</fix>
</trkpt>
<trkpt lat="-27.2744414" lon="151.2900547">
  <ele>346.28</ele>
  <time>2026-09-01T19:53:09Z</time>
  <course>196.19</course>
  <speed>0.2785677655436824</speed>
  <fix>3d</fix>
</trkpt>
<trkpt lat="-27.2744414" lon="151.2900545">
  <ele>346.24</ele>
  <time>2026-09-01T19:53:09Z</time>
  <course>195.44</course>
  <speed>0.24596747752497689</speed>
  <fix>3d</fix>
</trkpt>
<trkpt lat="-27.2744418" lon="151.2900553">
  <ele>346.43</ele>
  <time>2026-09-01T19:53:09Z</time>
  <course>277.73</course>
  <speed>0.37</speed>
  <fix>3d</fix>
</trkpt>
<trkpt lat="-27.2744413" lon="151.2900544">
  <ele>346.22</ele>
  <time>2026-09-01T19:53:09Z</time>
  <course>195.05</course>
  <speed>0.22825424421026652</speed>
  <fix>3d</fix>
</trkpt>
<trkpt lat="-27.2744413" lon="151.2900543">
  <ele>346.19</ele>
  <time>2026-09-01T19:53:09Z</time>
  <course>194.39</course>
  <speed>0.20248456731316586</speed>
  <fix>3d</fix>
</trkpt>
<trkpt lat="-27.2744416" lon="151.2900546">
  <ele>346.32</ele>
  <time>2026-09-01T19:53:09Z</time>
  <course>283.23</course>
  <speed>0.28</speed>
  <fix>3d</fix>
</trkpt>
<trkpt lat="-27.2744413" lon="151.2900542">
  <ele>346.17</ele>
  <time>2026-09-01T19:53:09Z</time>
  <course>194.09</course>
  <speed>0.2</speed>
  <fix>3d</fix>
</trkpt>
<trkpt lat="-27.2744412" lon="151.2900541">
  <ele>346.13</ele>
  <time>2026-09-01T19:53:09Z</time>
  <course>193.31</course>
  <speed>0.1697056274847714</speed>
  <fix>3d</fix>
</trkpt>
<trkpt lat="-27.2744416" lon="151.2900546">
  <ele>346.32</ele>
  <time>2026-09-01T19:53:09Z</time>
  <course>283.23</course>
  <speed>0.28</speed>
  <fix>3d</fix>
</trkpt>
<trkpt lat="-27.2744412" lon="151.2900541">
  <ele>346.12</ele>
  <time>2026-09-01T19:53:09Z</time>
  <course>193.05</course>
  <speed>0.16278820596099705</speed>
  <fix>3d</fix>
</trkpt>
<trkpt lat="-27.2744411" lon="151.290054">
  <ele>346.08</ele>
  <time>2026-09-01T19:53:09Z</time>
  <course>192.23</course>
  <speed>0.147648230602334</speed>
  <fix>3d</fix>
</trkpt>
<trkpt lat="-27.2744415" lon="151.2900541">
  <ele>346.21</ele>
  <time>2026-09-01T19:53:09Z</time>
  <course>294.38</course>
  <speed>0.19</speed>
  <fix>3d</fix>
</trkpt>
<trkpt lat="-27.2744411" lon="151.290054">
  <ele>346.06</ele>
  <time>2026-09-01T19:53:09Z</time>
  <course>191.77</course>
  <speed>0.1392838827718412</speed>
  <fix>3d</fix>
</trkpt>
<trkpt lat="-27.274441" lon="151.290054">
  <ele>346.03</ele>
  <time>2026-09-01T19:53:09Z</time>
  <course>191.17</course>
  <speed>0.1414213562373095</speed>
  <fix>3d</fix>
</trkpt>
<trkpt lat="-27.2744415" lon="151.2900541">
  <ele>346.21</ele>
  <time>2026-09-01T19:53:09Z</time>
  <course>294.38</course>
  <speed>0.19</speed>
  <fix>3d</fix>
</trkpt>
<trkpt lat="-27.274441" lon="151.2900539">
  <ele>346.0</ele>
  <time>2026-09-01T19:53:09Z</time>
  <course>190.76</course>
  <speed>0.14</speed>
  <fix>3d</fix>
</trkpt>
<trkpt lat="-27.2744409" lon="151.2900539">
  <ele>345.97</ele>
  <time>2026-09-01T19:53:09Z</time>
  <course>190.14</course>
  <speed>0.1414213562373095</speed>
  <fix>3d</fix>
</trkpt>
<trkpt lat="-27.2744414" lon="151.2900539">
  <ele>346.1</ele>
  <time>2026-09-01T19:53:09Z</time>
  <course>321.79</course>
  <speed>0.11</speed>
  <fix>3d</fix>
</trkpt>
<trkpt lat="-27.2744409" lon="151.290054">
  <ele>345.95</ele>
  <time>2026-09-01T19:53:09Z</time>
  <course>189.71</course>
  <speed>0.15524174696260024</speed>
  <fix>3d</fix>
</trkpt>
<trkpt lat="-27.2744408" lon="151.290054">
  <ele>345.92</ele>
  <time>2026-09-01T19:53:09Z</time>
  <course>189.15</course>
  <speed>0.1615549442140351</speed>
  <fix>3d</fix>
</trkpt>
<trkpt lat="-27.2744414" lon="151.2900539">
  <ele>346.1</ele>
  <time>2026-09-01T19:53:09Z</time>
  <course>321.79</course>
  <speed>0.11</speed>
  <fix>3d</fix>
</trkpt>
<trkpt lat="-27.2744408" lon="151.290054">
  <ele>345.9</ele>
  <time>2026-09-01T19:53:09Z</time>
  <course>188.74</course>
  <speed>0.17</speed>
  <fix>3d</fix>
</trkpt>
<trkpt lat="-27.2744407" lon="151.290054">
  <ele>345.87</ele>
  <time>2026-09-01T19:53:09Z</time>
  <course>188.21</course>
  <speed>0.18601075237738274</speed>
  <fix>3d</fix>
</trkpt>
<trkpt lat="-27.2744412" lon="151.2900539">
  <ele>346.0</ele>
  <time>2026-09-01T19:53:09Z</time>
  <course>13.4</course>
  <speed>0.1</speed>
  <fix>3d</fix>
</trkpt>
<trkpt lat="-27.2744407" lon="151.290054">
  <ele>345.84</ele>
  <time>2026-09-01T19:53:09Z</time>
  <course>187.8</course>
  <speed>0.20615528128088303</speed>
  <fix>3d</fix>
</trkpt>
<trkpt lat="-27.2744406" lon="151.2900541">
  <ele>345.81</ele>
  <time>2026-09-01T19:53:09Z</time>
  <course>187.35</course>
  <speed>0.2193171219946131</speed>
  <fix>3d</fix>
</trkpt>
<trkpt lat="-27.2744412" lon="151.2900539">
  <ele>346.0</ele>
  <time>2026-09-01T19:53:09Z</time>
  <course>13.4</course>
  <speed>0.1</speed>
  <fix>3d</fix>
</trkpt>
<trkpt lat="-27.2744406" lon="151.2900541">
  <ele>345.81</ele>
  <time>2026-09-01T19:53:09Z</time>
  <course>187.32</course>
  <speed>0.2193171219946131</speed>
  <fix>3d</fix>
</trkpt>
<trkpt lat="-27.2744405" lon="151.2900543">
  <ele>345.76</ele>
  <time>2026-09-01T19:53:09Z</time>
  <course>186.55</course>
  <speed>0.25495097567963926</speed>
  <fix>3d</fix>
</trkpt>
<trkpt lat="-27.2744409" lon="151.290054">
  <ele>345.89</ele>
  <time>2026-09-01T19:53:09Z</time>
  <course>45.07</course>
  <speed>0.16</speed>
  <fix>3d</fix>
</trkpt>
<trkpt lat="-27.2744405" lon="151.2900543">
  <ele>345.75</ele>
  <time>2026-09-01T19:53:09Z</time>
  <course>186.4</course>
  <speed>0.26248809496813374</speed>
  <fix>3d</fix>
</trkpt>
<trkpt lat="-27.2744404" lon="151.2900545">
  <ele>345.71</ele>
  <time>2026-09-01T19:53:09Z</time>
  <course>185.85</course>
  <speed>0.28600699292150183</speed>
  <fix>3d</fix>
</trkpt>
<trkpt lat="-27.2744409" lon="151.290054">
  <ele>345.89</ele>
  <time>2026-09-01T19:53:09Z</time>
  <course>45.07</course>
  <speed>0.16</speed>
  <fix>3d</fix>
</trkpt>
<trkpt lat="-27.2744403" lon="151.2900546">
  <ele>345.69</ele>
  <time>2026-09-01T19:53:09Z</time>
  <course>185.59</course>
  <speed>0.3080584360149873</speed>
  <fix>3d</fix>
</trkpt>
<trkpt lat="-27.2744402" lon="151.2900548">
  <ele>345.66</ele>
  <time>2026-09-01T19:53:09Z</time>
  <course>185.23</course>
  <speed>0.32449961479175904</speed>
  <fix>3d</fix>
</trkpt>
<trkpt lat="-27.2744408" lon="151.2900543">
  <ele>345.78</ele>
  <time>2026-09-01T19:53:09Z</time>
  <course>57.41</course>
  <speed>0.24</speed>
  <fix>3d</fix>
</trkpt>
<trkpt lat="-27.2744402" lon="151.2900548">
  <ele>345.64</ele>
  <time>2026-09-01T19:53:09Z</time>
  <course>185.06</course>
  <speed>0.3328663395418648</speed>
  <fix>3d</fix>
</trkpt>
<trkpt lat="-27.2744401" lon="151.290055">
  <ele>345.61</ele>
  <time>2026-09-01T19:53:09Z</time>
  <course>184.7</course>
  <speed>0.35510561809129404</speed>
  <fix>3d</fix>
</trkpt>
<trkpt lat="-27.2744408" lon="151.2900543">
  <ele>345.78</ele>
  <time>2026-09-01T19:53:09Z</time>
  <course>57.41</course>
  <speed>0.24</speed>
  <fix>3d</fix>
</trkpt>
<trkpt lat="-27.2744401" lon="151.2900551">
  <ele>345.59</ele>
  <time>2026-09-01T19:53:09Z</time>
  <course>184.58</course>
  <speed>0.36359317925395684</speed>
  <fix>3d</fix>
</trkpt>
<trkpt lat="-27.27444" lon="151.2900554">
  <ele>345.55</ele>
  <time>2026-09-01T19:53:09Z</time>
  <course>184.24</course>
  <speed>0.3858756276314948</speed>
  <fix>3d</fix>
</trkpt>
<trkpt lat="-27.2744405" lon="151.2900548">
  <ele>345.68</ele>
  <time>2026-09-01T19:53:09Z</time>
  <course>62.72</course>
  <speed>0.31</speed>
  <fix>3d</fix>
</trkpt>
<trkpt lat="-27.2744399" lon="151.2900555">
  <ele>345.54</ele>
  <time>2026-09-01T19:53:09Z</time>
  <course>184.11</course>
  <speed>0.3944616584663204</speed>
  <fix>3d</fix>
</trkpt>
<trkpt lat="-27.2744398" lon="151.2900557">
  <ele>345.5</ele>
  <time>2026-09-01T19:53:09Z</time>
  <course>183.84</course>
  <speed>0.4219004621945798</speed>
  <fix>3d</fix>
</trkpt>
<trkpt lat="-27.2744405" lon="151.2900548">
  <ele>345.68</ele>
  <time>2026-09-01T19:53:09Z</time>
  <course>62.72</course>
  <speed>0.31</speed>
  <fix>3d</fix>
</trkpt>
<trkpt lat="-27.2744398" lon="151.2900558">
  <ele>345.49</ele>
  <time>2026-09-01T19:53:09Z</time>
  <course>183.74</course>
  <speed>0.4304648650006177</speed>
  <fix>3d</fix>
</trkpt>
<trkpt lat="-27.2744396" lon="151.2900561">
  <ele>345.45</ele>
  <time>2026-09-01T19:53:09Z</time>
  <course>183.49</course>
  <speed>0.45793012567421243</speed>
  <fix>3d</fix>
</trkpt>
<trkpt lat="-27.2744402" lon="151.2900554">
  <ele>345.58</ele>
  <time>2026-09-01T19:53:09Z</time>
  <course>64.55</course>
  <speed>0.38</speed>
  <fix>3d</fix>
</trkpt>
<trkpt lat="-27.2744396" lon="151.2900562">
  <ele>345.43</ele>
  <time>2026-09-01T19:53:09Z</time>
  <course>183.41</course>
  <speed>0.4632493928760188</speed>
  <fix>3d</fix>
</trkpt>
<trkpt lat="-27.2744394" lon="151.2900565">
  <ele>345.39</ele>
  <time>2026-09-01T19:53:09Z</time>
  <course>183.2</course>
  <speed>0.4909175083453431</speed>
  <fix>3d</fix>
</trkpt>
<trkpt lat="-27.2744402" lon="151.2900554">
  <ele>345.58</ele>
  <time>2026-09-01T19:53:09Z</time>
  <course>64.55</course>
  <speed>0.38</speed>
  <fix>3d</fix>
</trkpt>
<trkpt lat="-27.2744394" lon="151.2900566">
  <ele>345.38</ele>
  <time>2026-09-01T19:53:09Z</time>
  <course>183.13</course>
  <speed>0.5047771785649585</speed>
  <fix>3d</fix>
</trkpt>
<trkpt lat="-27.2744392" lon="151.2900569">
  <ele>345.33</ele>
  <time>2026-09-01T19:53:09Z</time>
  <course>182.97</course>
  <speed>0.5243090691567331</speed>
  <fix>3d</fix>
</trkpt>
<trkpt lat="-27.2744399" lon="151.2900561">
  <ele>345.47</ele>
  <time>2026-09-01T19:53:09Z</time>
  <course>63.28</course>
  <speed>0.45</speed>
  <fix>3d</fix>
</trkpt>
<trkpt lat="-27.2744392" lon="151.2900571">
  <ele>345.32</ele>
  <time>2026-09-01T19:53:09Z</time>
  <course>182.92</course>
  <speed>0.532541078227774</speed>
  <fix>3d</fix>
</trkpt>
<trkpt lat="-27.274439" lon="151.2900574">
  <ele>345.28</ele>
  <time>2026-09-01T19:53:09Z</time>
  <course>182.79</course>
  <speed>0.5521775076911409</speed>
  <fix>3d</fix>
</trkpt>
<trkpt lat="-27.2744399" lon="151.2900561">
  <ele>345.47</ele>
  <time>2026-09-01T19:53:09Z</time>
  <course>63.28</course>
  <speed>0.45</speed>
  <fix>3d</fix>
</trkpt>
<trkpt lat="-27.2744389" lon="151.2900575">
  <ele>345.26</ele>
  <time>2026-09-01T19:53:09Z</time>
  <course>182.75</course>
  <speed>0.5580322571321482</speed>
  <fix>3d</fix>
</trkpt>
<trkpt lat="-27.2744387" lon="151.2900579">
  <ele>345.22</ele>
  <time>2026-09-01T19:53:09Z</time>
  <course>182.66</course>
  <speed>0.578013840664737</speed>
  <fix>3d</fix>
</trkpt>
<trkpt lat="-27.2744395" lon="151.290057">
  <ele>345.36</ele>
  <time>2026-09-01T19:53:09Z</time>
  <course>60.24</course>
  <speed>0.52</speed>
  <fix>3d</fix>
</trkpt>
<trkpt lat="-27.2744387" lon="151.2900579">
  <ele>345.22</ele>
  <time>2026-09-01T19:53:09Z</time>
  <course>182.66</course>
  <speed>0.578013840664737</speed>
  <fix>3d</fix>
</trkpt>
<trkpt lat="-27.2744384" lon="151.2900583">
  <ele>345.16</ele>
  <time>2026-09-01T19:53:09Z</time>
  <course>182.56</course>
  <speed>0.5981638571495272</speed>
  <fix>3d</fix>
</trkpt>
<trkpt lat="-27.2744395" lon="151.290057">
  <ele>345.36</ele>
  <time>2026-09-01T19:53:09Z</time>
  <course>60.24</course>
  <speed>0.52</speed>
  <fix>3d</fix>
</trkpt>
<trkpt lat="-27.2744383" lon="151.2900585">
  <ele>345.15</ele>
  <time>2026-09-01T19:53:09Z</time>
  <course>182.55</course>
  <speed>0.5981638571495272</speed>
  <fix>3d</fix>
</trkpt>
<trkpt lat="-27.2744381" lon="151.2900588">
  <ele>345.11</ele>
  <time>2026-09-01T19:53:09Z</time>
  <course>182.5</course>
  <speed>0.6122091146005587</speed>
  <fix>3d</fix>
</trkpt>
<trkpt lat="-27.274439" lon="151.2900579">
  <ele>345.24</ele>
  <time>2026-09-01T19:53:09Z</time>
  <course>57.54</course>
  <speed>0.57</speed>
  <fix>3d</fix>
</trkpt>
<trkpt lat="-27.2744381" lon="151.2900588">
  <ele>345.11</ele>
  <time>2026-09-01T19:53:09Z</time>
  <course>182.49</course>
  <speed>0.6122091146005587</speed>
  <fix>3d</fix>
</trkpt>
<trkpt lat="-27.2744378" lon="151.2900593">
  <ele>345.06</ele>
  <time>2026-09-01T19:53:09Z</time>
  <course>182.44</course>
  <speed>0.6184658438426491</speed>
  <fix>3d</fix>
</trkpt>
<trkpt lat="-27.274439" lon="151.2900579">
  <ele>345.24</ele>
  <time>2026-09-01T19:53:09Z</time>
  <course>57.54</course>
  <speed>0.57</speed>
  <fix>3d</fix>
</trkpt>
<trkpt lat="-27.2744377" lon="151.2900594">
  <ele>345.05</ele>
  <time>2026-09-01T19:53:09Z</time>
  <course>182.43</course>
  <speed>0.6184658438426491</speed>
  <fix>3d</fix>
</trkpt>
<trkpt lat="-27.2744375" lon="151.2900598">
  <ele>345.01</ele>
  <time>2026-09-01T19:53:09Z</time>
  <course>182.39</course>
  <speed>0.6184658438426491</speed>
  <fix>3d</fix>
</trkpt>
<trkpt lat="-27.2744384" lon="151.2900589">
  <ele>345.13</ele>
  <time>2026-09-01T19:53:09Z</time>
  <course>55.8</course>
  <speed>0.6</speed>
  <fix>3d</fix>
</trkpt>
<trkpt lat="-27.2744374" lon="151.29006">
  <ele>345.0</ele>
  <time>2026-09-01T19:53:09Z</time>
  <course>182.38</course>
  <speed>0.6184658438426491</speed>
  <fix>3d</fix>
</trkpt>
<trkpt lat="-27.2744372" lon="151.2900603">
  <ele>344.96</ele>
  <time>2026-09-01T19:53:09Z</time>
  <course>182.35</course>
  <speed>0.6184658438426491</speed>
  <fix>3d</fix>
</trkpt>
<trkpt lat="-27.2744384" lon="151.2900589">
  <ele>345.13</ele>
  <time>2026-09-01T19:53:09Z</time>
  <course>55.8</course>
  <speed>0.6</speed>
  <fix>3d</fix>
</trkpt>
<trkpt lat="-27.2744371" lon="151.2900604">
  <ele>344.95</ele>
  <time>2026-09-01T19:53:09Z</time>
  <course>182.34</course>
  <speed>0.6184658438426491</speed>
  <fix>3d</fix>
</trkpt>
<trkpt lat="-27.2744369" lon="151.2900608">
  <ele>344.92</ele>
  <time>2026-09-01T19:53:09Z</time>
  <course>182.31</course>
  <speed>0.5981638571495272</speed>
  <fix>3d</fix>
</trkpt>
<trkpt lat="-27.2744378" lon="151.29006">
  <ele>345.03</ele>
  <time>2026-09-01T19:53:09Z</time>
  <course>55.05</course>
  <speed>0.62</speed>
  <fix>3d</fix>
</trkpt>
<trkpt lat="-27.2744368" lon="151.2900609">
  <ele>344.91</ele>
  <time>2026-09-01T19:53:09Z</time>
  <course>182.3</course>
  <speed>0.5981638571495272</speed>
  <fix>3d</fix>
</trkpt>
<trkpt lat="-27.2744366" lon="151.2900613">
  <ele>344.88</ele>
  <time>2026-09-01T19:53:09Z</time>
  <course>182.28</course>
  <speed>0.578013840664737</speed>
  <fix>3d</fix>
</trkpt>
<trkpt lat="-27.2744378" lon="151.29006">
  <ele>345.03</ele>
  <time>2026-09-01T19:53:09Z</time>
  <course>55.05</course>
  <speed>0.62</speed>
  <fix>3d</fix>
</trkpt>
<trkpt lat="-27.2744365" lon="151.2900614">
  <ele>344.87</ele>
  <time>2026-09-01T19:53:09Z</time>
  <course>182.27</course>
  <speed>0.578013840664737</speed>
  <fix>3d</fix>
</trkpt>
<trkpt lat="-27.2744363" lon="151.2900618">
  <ele>344.85</ele>
  <time>2026-09-01T19:53:09Z</time>
  <course>182.25</course>
  <speed>0.5580322571321482</speed>
  <fix>3d</fix>
</trkpt>
<trkpt lat="-27.2744372" lon="151.2900611">
  <ele>344.94</ele>
  <time>2026-09-01T19:53:09Z</time>
  <course>55.98</course>
  <speed>0.6</speed>
  <fix>3d</fix>
</trkpt>
<trkpt lat="-27.2744362" lon="151.2900619">
  <ele>344.84</ele>
  <time>2026-09-01T19:53:09Z</time>
  <course>182.25</course>
  <speed>0.5521775076911409</speed>
  <fix>3d</fix>
</trkpt>
<trkpt lat="-27.274436" lon="151.2900623">
  <ele>344.81</ele>
  <time>2026-09-01T19:53:09Z</time>
  <course>182.23</course>
  <speed>0.5382378656319156</speed>
  <fix>3d</fix>
</trkpt>
<trkpt lat="-27.2744372" lon="151.2900611">
  <ele>344.94</ele>
  <time>2026-09-01T19:53:09Z</time>
  <course>55.98</course>
  <speed>0.6</speed>
  <fix>3d</fix>
</trkpt>
<trkpt lat="-27.274436" lon="151.2900624">
  <ele>344.8</ele>
  <time>2026-09-01T19:53:09Z</time>
  <course>182.23</course>
  <speed>0.532541078227774</speed>
  <fix>3d</fix>
</trkpt>
<trkpt lat="-27.2744358" lon="151.2900627">
  <ele>344.77</ele>
  <time>2026-09-01T19:53:09Z</time>
  <course>182.22</course>
  <speed>0.5186520991955976</speed>
  <fix>3d</fix>
</trkpt>
<trkpt lat="-27.2744366" lon="151.2900621">
  <ele>344.86</ele>
  <time>2026-09-01T19:53:09Z</time>
  <course>58.32</course>
  <speed>0.56</speed>
  <fix>3d</fix>
</trkpt>
<trkpt lat="-27.2744358" lon="151.2900628">
  <ele>344.76</ele>
  <time>2026-09-01T19:53:09Z</time>
  <course>182.22</course>
  <speed>0.5047771785649585</speed>
  <fix>3d</fix>
</trkpt>
<trkpt lat="-27.2744356" lon="151.2900632">
  <ele>344.73</ele>
  <time>2026-09-01T19:53:09Z</time>
  <course>182.22</course>
  <speed>0.4854894437575342</speed>
  <fix>3d</fix>
</trkpt>
<trkpt lat="-27.2744366" lon="151.2900621">
  <ele>344.86</ele>
  <time>2026-09-01T19:53:09Z</time>
  <course>58.32</course>
  <speed>0.56</speed>
  <fix>3d</fix>
</trkpt>
<trkpt lat="-27.2744356" lon="151.2900632">
  <ele>344.73</ele>
  <time>2026-09-01T19:53:09Z</time>
  <course>182.22</course>
  <speed>0.4854894437575342</speed>
  <fix>3d</fix>
</trkpt>
<trkpt lat="-27.2744354" lon="151.2900636">
  <ele>344.7</ele>
  <time>2026-09-01T19:53:09Z</time>
  <course>182.24</course>
  <speed>0.46647615158762407</speed>
  <fix>3d</fix>
</trkpt>
<trkpt lat="-27.2744361" lon="151.290063">
  <ele>344.78</ele>
  <time>2026-09-01T19:53:09Z</time>
  <course>60.92</course>
  <speed>0.52</speed>
  <fix>3d</fix>
</trkpt>
<trkpt lat="-27.2744354" lon="151.2900636">
  <ele>344.69</ele>
  <time>2026-09-01T19:53:09Z</time>
  <course>182.24</course>
  <speed>0.46647615158762407</speed>
  <fix>3d</fix>
</trkpt>
<trkpt lat="-27.2744352" lon="151.290064">
  <ele>344.66</ele>
  <time>2026-09-01T19:53:09Z</time>
  <course>182.26</course>
  <speed>0.439089968002003</speed>
  <fix>3d</fix>
</trkpt>
<trkpt lat="-27.2744361" lon="151.290063">
  <ele>344.78</ele>
  <time>2026-09-01T19:53:09Z</time>
  <course>60.92</course>
  <speed>0.52</speed>
  <fix>3d</fix>
</trkpt>
<trkpt lat="-27.2744352" lon="151.2900641">
  <ele>344.65</ele>
  <time>2026-09-01T19:53:09Z</time>
  <course>182.26</course>
  <speed>0.4341658669218482</speed>
  <fix>3d</fix>
</trkpt>
<trkpt lat="-27.2744351" lon="151.2900644">
  <ele>344.61</ele>
  <time>2026-09-01T19:53:09Z</time>
  <course>182.29</course>
  <speed>0.4070626487409524</speed>
  <fix>3d</fix>
</trkpt>
<trkpt lat="-27.2744357" lon="151.2900639">
  <ele>344.71</ele>
  <time>2026-09-01T19:53:09Z</time>
  <course>63.93</course>
  <speed>0.47</speed>
  <fix>3d</fix>
</trkpt>
<trkpt lat="-27.274435" lon="151.2900646">
  <ele>344.6</ele>
  <time>2026-09-01T19:53:09Z</time>
  <course>182.3</course>
  <speed>0.40249223594996214</speed>
  <fix>3d</fix>
</trkpt>
<trkpt lat="-27.274435" lon="151.2900648">
  <ele>344.57</ele>
  <time>2026-09-01T19:53:09Z</time>
  <course>182.32</course>
  <speed>0.3757658845611187</speed>
  <fix>3d</fix>
</trkpt>
<trkpt lat="-27.2744357" lon="151.2900639">
  <ele>344.71</ele>
  <time>2026-09-01T19:53:09Z</time>
  <course>63.93</course>
  <speed>0.47</speed>
  <fix>3d</fix>
</trkpt>
<trkpt lat="-27.2744349" lon="151.2900649">
  <ele>344.56</ele>
  <time>2026-09-01T19:53:09Z</time>
  <course>182.33</course>
  <speed>0.3757658845611187</speed>
  <fix>3d</fix>
</trkpt>
<trkpt lat="-27.2744349" lon="151.2900652">
  <ele>344.53</ele>
  <time>2026-09-01T19:53:09Z</time>
  <course>182.35</course>
  <speed>0.3453983207834109</speed>
  <fix>3d</fix>
</trkpt>
<trkpt lat="-27.2744353" lon="151.2900647">
  <ele>344.63</ele>
  <time>2026-09-01T19:53:09Z</time>
  <course>67.89</course>
  <speed>0.42</speed>
  <fix>3d</fix>
</trkpt>
<trkpt lat="-27.2744348" lon="151.2900653">
  <ele>344.51</ele>
  <time>2026-09-01T19:53:09Z</time>
  <course>182.36</course>
  <speed>0.3361547262794322</speed>
  <fix>3d</fix>
</trkpt>
<trkpt lat="-27.2744348" lon="151.2900655">
  <ele>344.48</ele>
  <time>2026-09-01T19:53:09Z</time>
  <course>182.38</course>
  <speed>0.3195309061734092</speed>
  <fix>3d</fix>
</trkpt>
<trkpt lat="-27.2744353" lon="151.2900647">
  <ele>344.63</ele>
  <time>2026-09-01T19:53:09Z</time>
  <course>67.89</course>
  <speed>0.42</speed>
  <fix>3d</fix>
</trkpt>
<trkpt lat="-27.2744348" lon="151.2900656">
  <ele>344.47</ele>
  <time>2026-09-01T19:53:09Z</time>
  <course>182.39</course>
  <speed>0.30675723300355934</speed>
  <fix>3d</fix>
</trkpt>
<trkpt lat="-27.2744347" lon="151.2900658">
  <ele>344.43</ele>
  <time>2026-09-01T19:53:09Z</time>
  <course>182.41</course>
  <speed>0.29120439557122074</speed>
  <fix>3d</fix>
</trkpt>
<trkpt lat="-27.2744351" lon="151.2900655">
  <ele>344.54</ele>
  <time>2026-09-01T19:53:09Z</time>
  <course>73.39</course>
  <speed>0.36</speed>
  <fix>3d</fix>
</trkpt>
<trkpt lat="-27.2744347" lon="151.2900659">
  <ele>344.42</ele>
  <time>2026-09-01T19:53:09Z</time>
  <course>182.42</course>
  <speed>0.27892651361962706</speed>
  <fix>3d</fix>
</trkpt>
<trkpt lat="-27.2744347" lon="151.2900661">
  <ele>344.38</ele>
  <time>2026-09-01T19:53:09Z</time>
  <course>182.44</course>
  <speed>0.25495097567963926</speed>
  <fix>3d</fix>
</trkpt>
<trkpt lat="-27.2744351" lon="151.2900655">
  <ele>344.54</ele>
  <time>2026-09-01T19:53:09Z</time>
  <course>73.39</course>
  <speed>0.36</speed>
  <fix>3d</fix>
</trkpt>
<trkpt lat="-27.2744347" lon="151.2900662">
  <ele>344.37</ele>
  <time>2026-09-01T19:53:09Z</time>
  <course>182.44</course>
  <speed>0.25317977802344327</speed>
  <fix>3d</fix>
</trkpt>
<trkpt lat="-27.2744347" lon="151.2900664">
  <ele>344.33</ele>
  <time>2026-09-01T19:53:09Z</time>
  <course>182.46</course>
  <speed>0.2308679276123039</speed>
  <fix>3d</fix>
</trkpt>
<trkpt lat="-27.2744349" lon="151.2900662">
  <ele>344.45</ele>
  <time>2026-09-01T19:53:09Z</time>
  <course>81.22</course>
  <speed>0.31</speed>
  <fix>3d</fix>
</trkpt>
<trkpt lat="-27.2744347" lon="151.2900665">
  <ele>344.31</ele>
  <time>2026-09-01T19:53:09Z</time>
  <course>182.47</course>
  <speed>0.22022715545545238</speed>
  <fix>3d</fix>
</trkpt>
<trkpt lat="-27.2744347" lon="151.2900667">
  <ele>344.28</ele>
  <time>2026-09-01T19:53:09Z</time>
  <course>182.49</course>
  <speed>0.2</speed>
  <fix>3d</fix>
</trkpt>
<trkpt lat="-27.2744349" lon="151.2900662">
  <ele>344.45</ele>
  <time>2026-09-01T19:53:09Z</time>
  <course>81.22</course>
  <speed>0.31</speed>
  <fix>3d</fix>
</trkpt>
<trkpt lat="-27.2744347" lon="151.2900667">
  <ele>344.27</ele>
  <time>2026-09-01T19:53:09Z</time>
  <course>182.49</course>
  <speed>0.2</speed>
  <fix>3d</fix>
</trkpt>
<trkpt lat="-27.2744348" lon="151.2900669">
  <ele>344.22</ele>
  <time>2026-09-01T19:53:09Z</time>
  <course>182.52</course>
  <speed>0.1824828759089466</speed>
  <fix>3d</fix>
</trkpt>
<trkpt lat="-27.2744349" lon="151.2900667">
  <ele>344.34</ele>
  <time>2026-09-01T19:53:09Z</time>
  <course>92.27</course>
  <speed>0.26</speed>
  <fix>3d</fix>
</trkpt>
<trkpt lat="-27.2744348" lon="151.2900669">
  <ele>344.21</ele>
  <time>2026-09-01T19:53:09Z</time>
  <course>182.52</course>
  <speed>0.17262676501632068</speed>
  <fix>3d</fix>
</trkpt>
<trkpt lat="-27.2744348" lon="151.2900671">
  <ele>344.17</ele>
  <time>2026-09-01T19:53:09Z</time>
  <course>182.54</course>
  <speed>0.15811388300841897</speed>
  <fix>3d</fix>
</trkpt>
<trkpt lat="-27.2744349" lon="151.2900667">
  <ele>344.34</ele>
  <time>2026-09-01T19:53:09Z</time>
  <course>92.27</course>
  <speed>0.26</speed>
  <fix>3d</fix>
</trkpt>
<trkpt lat="-27.2744348" lon="151.2900671">
  <ele>344.16</ele>
  <time>2026-09-01T19:53:09Z</time>
  <course>182.54</course>
  <speed>0.1615549442140351</speed>
  <fix>3d</fix>
</trkpt>
<trkpt lat="-27.2744349" lon="151.2900673">
  <ele>344.12</ele>
  <time>2026-09-01T19:53:09Z</time>
  <course>182.55</course>
  <speed>0.15264337522473748</speed>
  <fix>3d</fix>
</trkpt>
<trkpt lat="-27.274435" lon="151.2900672">
  <ele>344.24</ele>
  <time>2026-09-01T19:53:09Z</time>
  <course>107.4</course>
  <speed>0.22</speed>
  <fix>3d</fix>
</trkpt>
<trkpt lat="-27.2744349" lon="151.2900673">
  <ele>344.1</ele>
  <time>2026-09-01T19:53:09Z</time>
  <course>182.56</course>
  <speed>0.14422205101855956</speed>
  <fix>3d</fix>
</trkpt>
<trkpt lat="-27.274435" lon="151.2900674">
  <ele>344.06</ele>
  <time>2026-09-01T19:53:09Z</time>
  <course>182.57</course>
  <speed>0.1414213562373095</speed>
  <fix>3d</fix>
</trkpt>
<trkpt lat="-27.274435" lon="151.2900672">
  <ele>344.24</ele>
  <time>2026-09-01T19:53:09Z</time>
  <course>107.4</course>
  <speed>0.22</speed>
  <fix>3d</fix>
</trkpt>
<trkpt lat="-27.274435" lon="151.2900674">
  <ele>344.05</ele>
  <time>2026-09-01T19:53:09Z</time>
  <course>182.57</course>
  <speed>0.14866068747318506</speed>
  <fix>3d</fix>
</trkpt>
<trkpt lat="-27.2744351" lon="151.2900675">
  <ele>344.01</ele>
  <time>2026-09-01T19:53:09Z</time>
  <course>182.58</course>
  <speed>0.14422205101855956</speed>
  <fix>3d</fix>
</trkpt>
<trkpt lat="-27.2744351" lon="151.2900675">
  <ele>344.13</ele>
  <time>2026-09-01T19:53:09Z</time>
  <course>126.35</course>
  <speed>0.19</speed>
  <fix>3d</fix>
</trkpt>
<trkpt lat="-27.2744351" lon="151.2900676">
  <ele>344.0</ele>
  <time>2026-09-01T19:53:09Z</time>
  <course>182.58</course>
  <speed>0.147648230602334</speed>
  <fix>3d</fix>
</trkpt>
<trkpt lat="-27.2744352" lon="151.2900676">
  <ele>343.96</ele>
  <time>2026-09-01T19:53:09Z</time>
  <course>182.58</course>
  <speed>0.14866068747318506</speed>
  <fix>3d</fix>
</trkpt>
<trkpt lat="-27.2744351" lon="151.2900675">
  <ele>344.13</ele>
  <time>2026-09-01T19:53:09Z</time>
  <course>126.35</course>
  <speed>0.19</speed>
  <fix>3d</fix>
</trkpt>
<trkpt lat="-27.2744354" lon="151.2900677">
  <ele>343.9</ele>
  <time>2026-09-01T19:53:09Z</time>
  <course>182.59</course>
  <speed>0.16278820596099705</speed>
  <fix>3d</fix>
</trkpt>
<trkpt lat="-27.2744353" lon="151.2900679">
  <ele>344.02</ele>
  <time>2026-09-01T19:53:09Z</time>
  <course>146.27</course>
  <speed>0.19</speed>
  <fix>3d</fix>
</trkpt>
<trkpt lat="-27.2744356" lon="151.2900677">
  <ele>343.85</ele>
  <time>2026-09-01T19:53:09Z</time>
  <course>182.6</course>
  <speed>0.18</speed>
  <fix>3d</fix>
</trkpt>
<trkpt lat="-27.2744353" lon="151.2900679">
  <ele>344.02</ele>
  <time>2026-09-01T19:53:09Z</time>
  <course>146.27</course>
  <speed>0.19</speed>
  <fix>3d</fix>
</trkpt>
<trkpt lat="-27.2744358" lon="151.2900678">
  <ele>343.8</ele>
  <time>2026-09-01T19:53:09Z</time>
  <course>182.6</course>
  <speed>0.19026297590440447</speed>
  <fix>3d</fix>
</trkpt>
<trkpt lat="-27.2744357" lon="151.290068">
  <ele>343.91</ele>
  <time>2026-09-01T19:53:09Z</time>
  <course>163.63</course>
  <speed>0.21</speed>
  <fix>3d</fix>
</trkpt>
<trkpt lat="-27.274436" lon="151.2900678">
  <ele>343.75</ele>
  <time>2026-09-01T19:53:09Z</time>
  <course>182.61</course>
  <speed>0.21213203435596426</speed>
  <fix>3d</fix>
</trkpt>
<trkpt lat="-27.2744357" lon="151.290068">
  <ele>343.91</ele>
  <time>2026-09-01T19:53:09Z</time>
  <course>163.63</course>
  <speed>0.21</speed>
  <fix>3d</fix>
</trkpt>
<trkpt lat="-27.2744362" lon="151.2900677">
  <ele>343.7</ele>
  <time>2026-09-01T19:53:09Z</time>
  <course>182.61</course>
  <speed>0.22803508501982758</speed>
  <fix>3d</fix>
</trkpt>
<trkpt lat="-27.2744361" lon="151.290068">
  <ele>343.82</ele>
  <time>2026-09-01T19:53:09Z</time>
  <course>177.13</course>
  <speed>0.23</speed>
  <fix>3d</fix>
</trkpt>
<trkpt lat="-27.2744364" lon="151.2900677">
  <ele>343.65</ele>
  <time>2026-09-01T19:53:09Z</time>
  <course>182.61</course>
  <speed>0.24351591323771843</speed>
  <fix>3d</fix>
</trkpt>
<trkpt lat="-27.2744361" lon="151.290068">
  <ele>343.82</ele>
  <time>2026-09-01T19:53:09Z</time>
  <course>177.13</course>
  <speed>0.23</speed>
  <fix>3d</fix>
</trkpt>
<trkpt lat="-27.2744367" lon="151.2900676">
  <ele>343.6</ele>
  <time>2026-09-01T19:53:09Z</time>
  <course>182.6</course>
  <speed>0.25079872407968906</speed>
  <fix>3d</fix>
</trkpt>
<trkpt lat="-27.2744365" lon="151.290068">
  <ele>343.71</ele>
  <time>2026-09-01T19:53:09Z</time>
  <course>187.3</course>
  <speed>0.26</speed>
  <fix>3d</fix>
</trkpt>
<trkpt lat="-27.2744369" lon="151.2900675">
  <ele>343.55</ele>
  <time>2026-09-01T19:53:09Z</time>
  <course>182.6</course>
  <speed>0.2640075756488817</speed>
  <fix>3d</fix>
</trkpt>
<trkpt lat="-27.2744365" lon="151.290068">
  <ele>343.71</ele>
  <time>2026-09-01T19:53:09Z</time>
  <course>187.3</course>
  <speed>0.26</speed>
  <fix>3d</fix>
</trkpt>
<trkpt lat="-27.2744372" lon="151.2900675">
  <ele>343.5</ele>
  <time>2026-09-01T19:53:09Z</time>
  <course>182.59</course>
  <speed>0.28178005607210743</speed>
  <fix>3d</fix>
</trkpt>
<trkpt lat="-27.2744369" lon="151.290068">
  <ele>343.61</ele>
  <time>2026-09-01T19:53:09Z</time>
  <course>194.98</course>
  <speed>0.28</speed>
  <fix>3d</fix>
</trkpt>
<trkpt lat="-27.2744374" lon="151.2900674">
  <ele>343.45</ele>
  <time>2026-09-01T19:53:09Z</time>
  <course>182.58</course>
  <speed>0.291547594742265</speed>
  <fix>3d</fix>
</trkpt>
<trkpt lat="-27.2744369" lon="151.290068">
  <ele>343.61</ele>
  <time>2026-09-01T19:53:09Z</time>
  <course>194.98</course>
  <speed>0.28</speed>
  <fix>3d</fix>
</trkpt>
<trkpt lat="-27.2744377" lon="151.2900673">
  <ele>343.4</ele>
  <time>2026-09-01T19:53:09Z</time>
  <course>182.56</course>
  <speed>0.2968164415931166</speed>
  <fix>3d</fix>
</trkpt>
<trkpt lat="-27.2744375" lon="151.2900679">
  <ele>343.51</ele>
  <time>2026-09-01T19:53:09Z</time>
  <course>200.99</course>
  <speed>0.3</speed>
  <fix>3d</fix>
</trkpt>
<trkpt lat="-27.2744379" lon="151.2900672">
  <ele>343.35</ele>
  <time>2026-09-01T19:53:09Z</time>
  <course>182.55</course>
  <speed>0.3080584360149873</speed>
  <fix>3d</fix>
</trkpt>
<trkpt lat="-27.2744375" lon="151.2900679">
  <ele>343.51</ele>
  <time>2026-09-01T19:53:09Z</time>
  <course>200.99</course>
  <speed>0.3</speed>
  <fix>3d</fix>
</trkpt>
<trkpt lat="-27.2744382" lon="151.290067">
  <ele>343.3</ele>
  <time>2026-09-01T19:53:09Z</time>
  <course>182.53</course>
  <speed>0.31400636936215165</speed>
  <fix>3d</fix>
</trkpt>
<trkpt lat="-27.274438" lon="151.2900676">
  <ele>343.4</ele>
  <time>2026-09-01T19:53:09Z</time>
  <course>205.98</course>
  <speed>0.32</speed>
  <fix>3d</fix>
</trkpt>
<trkpt lat="-27.2744384" lon="151.2900668">
  <ele>343.25</ele>
  <time>2026-09-01T19:53:09Z</time>
  <course>182.52</course>
  <speed>0.31240998703626616</speed>
  <fix>3d</fix>
</trkpt>
<trkpt lat="-27.274438" lon="151.2900676">
  <ele>343.4</ele>
  <time>2026-09-01T19:53:09Z</time>
  <course>205.98</course>
  <speed>0.32</speed>
  <fix>3d</fix>
</trkpt>
<trkpt lat="-27.2744387" lon="151.2900667">
  <ele>343.2</ele>
  <time>2026-09-01T19:53:09Z</time>
  <course>182.52</course>
  <speed>0.3189043743820395</speed>
  <fix>3d</fix>
</trkpt>
<trkpt lat="-27.2744385" lon="151.2900673">
  <ele>343.31</ele>
  <time>2026-09-01T19:53:09Z</time>
  <course>210.27</course>
  <speed>0.33</speed>
  <fix>3d</fix>
</trkpt>
<trkpt lat="-27.2744389" lon="151.2900665">
  <ele>343.15</ele>
  <time>2026-09-01T19:53:09Z</time>
  <course>182.54</course>
  <speed>0.31827660925679097</speed>
  <fix>3d</fix>
</trkpt>
<trkpt lat="-27.2744385" lon="151.2900673">
  <ele>343.31</ele>
  <time>2026-09-01T19:53:09Z</time>
  <course>210.27</course>
  <speed>0.33</speed>
  <fix>3d</fix>
</trkpt>
<trkpt lat="-27.2744392" lon="151.2900663">
  <ele>343.09</ele>
  <time>2026-09-01T19:53:09Z</time>
  <course>182.58</course>
  <speed>0.31144823004794875</speed>
  <fix>3d</fix>
</trkpt>
<trkpt lat="-27.274439" lon="151.290067">
  <ele>343.21</ele>
  <time>2026-09-01T19:53:09Z</time>
  <course>214.36</course>
  <speed>0.34</speed>
  <fix>3d</fix>
</trkpt>
<trkpt lat="-27.2744393" lon="151.2900661">
  <ele>343.06</ele>
  <time>2026-09-01T19:53:09Z</time>
  <course>182.59</course>
  <speed>0.07615773105863909</speed>
  <fix>3d</fix>
</trkpt>
<trkpt lat="-27.274439" lon="151.290067">
  <ele>343.21</ele>
  <time>2026-09-01T19:53:09Z</time>
  <course>214.36</course>
  <speed>0.34</speed>
  <fix>3d</fix>
</trkpt>
<trkpt lat="-27.2744393" lon="151.2900662">
  <ele>343.06</ele>
  <time>2026-09-01T19:53:09Z</time>
  <course>182.59</course>
  <speed>0.09486832980505139</speed>
  <fix>3d</fix>
</trkpt>
<trkpt lat="-27.2744395" lon="151.2900666">
  <ele>343.11</ele>
  <time>2026-09-01T19:53:09Z</time>
  <course>216.93</course>
  <speed>0.22</speed>
  <fix>3d</fix>
</trkpt>
<trkpt lat="-27.2744393" lon="151.2900662">
  <ele>343.08</ele>
  <time>2026-09-01T19:53:09Z</time>
  <course>182.6</course>
  <speed>0.11704699910719625</speed>
  <fix>3d</fix>
</trkpt>
<trkpt lat="-27.2744395" lon="151.2900666">
  <ele>343.11</ele>
  <time>2026-09-01T19:53:09Z</time>
  <course>216.93</course>
  <speed>0.22</speed>
  <fix>3d</fix>
</trkpt>
<trkpt lat="-27.2744393" lon="151.2900662">
  <ele>343.09</ele>
  <time>2026-09-01T19:53:09Z</time>
  <course>182.6</course>
  <speed>0.07071067811865475</speed>
  <fix>3d</fix>
</trkpt>
<trkpt lat="-27.2744397" lon="151.2900664">
  <ele>343.07</ele>
  <time>2026-09-01T19:53:09Z</time>
  <course>186.85</course>
  <speed>0.0</speed>
  <fix>3d</fix>
</trkpt>
<trkpt lat="-27.2744392" lon="151.2900663">
  <ele>343.1</ele>
  <time>2026-09-01T19:53:09Z</time>
  <course>182.61</course>
  <speed>0.0412310562561766</speed>
  <fix>3d</fix>
</trkpt>
<trkpt lat="-27.2744397" lon="151.2900664">
  <ele>343.07</ele>
  <time>2026-09-01T19:53:09Z</time>
  <course>186.85</course>
  <speed>0.0</speed>
  <fix>3d</fix>
</trkpt>
<trkpt lat="-27.2744393" lon="151.2900663">
  <ele>343.09</ele>
  <time>2026-09-01T19:53:09Z</time>
  <course>182.61</course>
  <speed>0.0282842712474619</speed>
  <fix>3d</fix>
</trkpt>
<trkpt lat="-27.2744396" lon="151.2900665">
  <ele>343.09</ele>
  <time>2026-09-01T19:53:09Z</time>
  <course>40.98</course>
  <speed>0.04</speed>
  <fix>3d</fix>
</trkpt>
<trkpt lat="-27.2744393" lon="151.2900663">
  <ele>343.09</ele>
  <time>2026-09-01T19:53:09Z</time>
  <course>182.61</course>
  <speed>0.0282842712474619</speed>
  <fix>3d</fix>
</trkpt>
<trkpt lat="-27.2744396" lon="151.2900665">
  <ele>343.09</ele>
  <time>2026-09-01T19:53:09Z</time>
  <course>40.98</course>
  <speed>0.04</speed>
  <fix>3d</fix>
</trkpt>
<trkpt lat="-27.2744393" lon="151.2900663">
  <ele>343.09</ele>
  <time>2026-09-01T19:53:09Z</time>
  <course>182.61</course>
  <speed>0.0316227766016838</speed>
  <fix>3d</fix>
</trkpt>
<trkpt lat="-27.2744396" lon="151.2900665">
  <ele>343.1</ele>
  <time>2026-09-01T19:53:09Z</time>
  <course>223.32</course>
  <speed>0.0</speed>
  <fix>3d</fix>
</trkpt>
<trkpt lat="-27.2744393" lon="151.2900663">
  <ele>343.09</ele>
  <time>2026-09-01T19:53:09Z</time>
  <course>182.61</course>
  <speed>0.0316227766016838</speed>
  <fix>3d</fix>
</trkpt>
<trkpt lat="-27.2744396" lon="151.2900665">
  <ele>343.1</ele>
  <time>2026-09-01T19:53:09Z</time>
  <course>223.32</course>
  <speed>0.0</speed>
  <fix>3d</fix>
</trkpt>
<trkpt lat="-27.2744393" lon="151.2900663">
  <ele>343.09</ele>
  <time>2026-09-01T19:53:09Z</time>
  <course>182.61</course>
  <speed>0.0316227766016838</speed>
  <fix>3d</fix>
</trkpt>
<trkpt lat="-27.2744396" lon="151.2900665">
  <ele>343.1</ele>
  <time>2026-09-01T19:53:09Z</time>
  <course>219.89</course>
  <speed>0.0</speed>
  <fix>3d</fix>
</trkpt>
<trkpt lat="-27.2744393" lon="151.2900663">
  <ele>343.09</ele>
  <time>2026-09-01T19:53:09Z</time>
  <course>182.61</course>
  <speed>0.0316227766016838</speed>
  <fix>3d</fix>
</trkpt>
<trkpt lat="-27.2744396" lon="151.2900665">
  <ele>343.1</ele>
  <time>2026-09-01T19:53:09Z</time>
  <course>219.89</course>
  <speed>0.0</speed>
  <fix>3d</fix>
</trkpt>
<trkpt lat="-27.2744393" lon="151.2900663">
  <ele>343.09</ele>
  <time>2026-09-01T19:53:09Z</time>
  <course>182.61</course>
  <speed>0.0316227766016838</speed>
  <fix>3d</fix>
</trkpt>
<trkpt lat="-27.2744396" lon="151.2900665">
  <ele>343.1</ele>
  <time>2026-09-01T19:53:09Z</time>
  <course>44.75</course>
  <speed>0.0</speed>
  <fix>3d</fix>
</trkpt>
<trkpt lat="-27.2744393" lon="151.2900663">
  <ele>343.09</ele>
  <time>2026-09-01T19:53:09Z</time>
  <course>182.62</course>
  <speed>0.0316227766016838</speed>
  <fix>3d</fix>
</trkpt>
<trkpt lat="-27.2744396" lon="151.2900665">
  <ele>343.1</ele>
  <time>2026-09-01T19:53:09Z</time>
  <course>44.75</course>
  <speed>0.0</speed>
  <fix>3d</fix>
</trkpt>
<trkpt lat="-27.2744393" lon="151.2900663">
  <ele>343.09</ele>
  <time>2026-09-01T19:53:09Z</time>
  <course>182.62</course>
  <speed>0.0316227766016838</speed>
  <fix>3d</fix>
</trkpt>
<trkpt lat="-27.2744396" lon="151.2900665">
  <ele>343.1</ele>
  <time>2026-09-01T19:53:09Z</time>
  <course>45.54</course>
  <speed>0.0</speed>
  <fix>3d</fix>
</trkpt>
<trkpt lat="-27.2744393" lon="151.2900663">
  <ele>343.09</ele>
  <time>2026-09-01T19:53:09Z</time>
  <course>182.62</course>
  <speed>0.0316227766016838</speed>
  <fix>3d</fix>
</trkpt>
<trkpt lat="-27.2744396" lon="151.2900665">
  <ele>343.1</ele>
  <time>2026-09-01T19:53:09Z</time>
  <course>45.54</course>
  <speed>0.0</speed>
  <fix>3d</fix>
</trkpt>
<trkpt lat="-27.2744393" lon="151.2900663">
  <ele>343.09</ele>
  <time>2026-09-01T19:53:09Z</time>
  <course>182.62</course>
  <speed>0.0316227766016838</speed>
  <fix>3d</fix>
</trkpt>
<trkpt lat="-27.2744396" lon="151.2900665">
  <ele>343.1</ele>
  <time>2026-09-01T19:53:09Z</time>
  <course>205.06</course>
  <speed>0.0</speed>
  <fix>3d</fix>
</trkpt>
<trkpt lat="-27.2744393" lon="151.2900663">
  <ele>343.09</ele>
  <time>2026-09-01T19:53:09Z</time>
  <course>182.63</course>
  <speed>0.0316227766016838</speed>
  <fix>3d</fix>
</trkpt>
<trkpt lat="-27.2744396" lon="151.2900665">
  <ele>343.1</ele>
  <time>2026-09-01T19:53:09Z</time>
  <course>205.06</course>
  <speed>0.0</speed>
  <fix>3d</fix>
</trkpt>
<trkpt lat="-27.2744393" lon="151.2900663">
  <ele>343.09</ele>
  <time>2026-09-01T19:53:09Z</time>
  <course>182.63</course>
  <speed>0.0316227766016838</speed>
  <fix>3d</fix>
</trkpt>
<trkpt lat="-27.2744396" lon="151.2900665">
  <ele>343.1</ele>
  <time>2026-09-01T19:53:09Z</time>
  <course>123.32</course>
  <speed>0.0</speed>
  <fix>3d</fix>
</trkpt>
<trkpt lat="-27.2744393" lon="151.2900663">
  <ele>343.09</ele>
  <time>2026-09-01T19:53:09Z</time>
  <course>182.63</course>
  <speed>0.0316227766016838</speed>
  <fix>3d</fix>
</trkpt>
<trkpt lat="-27.2744396" lon="151.2900665">
  <ele>343.1</ele>
  <time>2026-09-01T19:53:09Z</time>
  <course>123.32</course>
  <speed>0.0</speed>
  <fix>3d</fix>
</trkpt>
<trkpt lat="-27.2744393" lon="151.2900663">
  <ele>343.09</ele>
  <time>2026-09-01T19:53:09Z</time>
  <course>182.63</course>
  <speed>0.0316227766016838</speed>
  <fix>3d</fix>
</trkpt>
<trkpt lat="-27.2744396" lon="151.2900665">
  <ele>343.1</ele>
  <time>2026-09-01T19:53:09Z</time>
  <course>71.78</course>
  <speed>0.0</speed>
  <fix>3d</fix>
</trkpt>
<trkpt lat="-27.2744393" lon="151.2900663">
  <ele>343.1</ele>
  <time>2026-09-01T19:53:09Z</time>
  <course>182.64</course>
  <speed>0.0316227766016838</speed>
  <fix>3d</fix>
</trkpt>
<trkpt lat="-27.2744396" lon="151.2900665">
  <ele>343.1</ele>
  <time>2026-09-01T19:53:09Z</time>
  <course>71.78</course>
  <speed>0.0</speed>
  <fix>3d</fix>
</trkpt>
<trkpt lat="-27.2744393" lon="151.2900663">
  <ele>343.1</ele>
  <time>2026-09-01T19:53:09Z</time>
  <course>182.64</course>
  <speed>0.0316227766016838</speed>
  <fix>3d</fix>
</trkpt>
<trkpt lat="-27.2744396" lon="151.2900665">
  <ele>343.1</ele>
  <time>2026-09-01T19:53:09Z</time>
  <course>84.68</course>
  <speed>0.0</speed>
  <fix>3d</fix>
</trkpt>
<trkpt lat="-27.2744393" lon="151.2900663">
  <ele>343.1</ele>
  <time>2026-09-01T19:53:09Z</time>
  <course>182.64</course>
  <speed>0.0316227766016838</speed>
  <fix>3d</fix>
</trkpt>
<trkpt lat="-27.2744396" lon="151.2900665">
  <ele>343.1</ele>
  <time>2026-09-01T19:53:09Z</time>
  <course>84.68</course>
  <speed>0.0</speed>
  <fix>3d</fix>
</trkpt>
<trkpt lat="-27.2744393" lon="151.2900663">
  <ele>343.1</ele>
  <time>2026-09-01T19:53:09Z</time>
  <course>182.64</course>
  <speed>0.0316227766016838</speed>
  <fix>3d</fix>
</trkpt>
<trkpt lat="-27.2744396" lon="151.2900665">
  <ele>343.1</ele>
  <time>2026-09-01T19:53:09Z</time>
  <course>88.7</course>
  <speed>0.0</speed>
  <fix>3d</fix>
</trkpt>
<trkpt lat="-27.2744393" lon="151.2900663">
  <ele>343.1</ele>
  <time>2026-09-01T19:53:09Z</time>
  <course>182.65</course>
  <speed>0.0316227766016838</speed>
  <fix>3d</fix>
</trkpt>
<trkpt lat="-27.2744396" lon="151.2900665">
  <ele>343.1</ele>
  <time>2026-09-01T19:53:09Z</time>
  <course>88.7</course>
  <speed>0.0</speed>
  <fix>3d</fix>
</trkpt>
<trkpt lat="-27.2744393" lon="151.2900663">
  <ele>343.1</ele>
  <time>2026-09-01T19:53:09Z</time>
  <course>182.65</course>
  <speed>0.0316227766016838</speed>
  <fix>3d</fix>
</trkpt>
<trkpt lat="-27.2744396" lon="151.2900665">
  <ele>343.1</ele>
  <time>2026-09-01T19:53:09Z</time>
  <course>85.52</course>
  <speed>0.0</speed>
  <fix>3d</fix>
</trkpt>
<trkpt lat="-27.2744393" lon="151.2900663">
  <ele>343.1</ele>
  <time>2026-09-01T19:53:09Z</time>
  <course>182.65</course>
  <speed>0.0316227766016838</speed>
  <fix>3d</fix>
</trkpt>
<trkpt lat="-27.2744396" lon="151.2900665">
  <ele>343.1</ele>
  <time>2026-09-01T19:53:09Z</time>
  <course>85.52</course>
  <speed>0.0</speed>
  <fix>3d</fix>
</trkpt>
<trkpt lat="-27.2744393" lon="151.2900663">
  <ele>343.1</ele>
  <time>2026-09-01T19:53:09Z</time>
  <course>182.65</course>
  <speed>0.022360679774997897</speed>
  <fix>3d</fix>
</trkpt>
<trkpt lat="-27.2744396" lon="151.2900665">
  <ele>343.1</ele>
  <time>2026-09-01T19:53:09Z</time>
  <course>85.42</course>
  <speed>0.0</speed>
  <fix>3d</fix>
</trkpt>
<trkpt lat="-27.2744393" lon="151.2900663">
  <ele>343.1</ele>
  <time>2026-09-01T19:53:09Z</time>
  <course>182.66</course>
  <speed>0.022360679774997897</speed>
  <fix>3d</fix>
</trkpt>
<trkpt lat="-27.2744396" lon="151.2900665">
  <ele>343.1</ele>
  <time>2026-09-01T19:53:09Z</time>
  <course>85.42</course>
  <speed>0.0</speed>
  <fix>3d</fix>
</trkpt>
<trkpt lat="-27.2744393" lon="151.2900663">
  <ele>343.1</ele>
  <time>2026-09-01T19:53:09Z</time>
  <course>182.66</course>
  <speed>0.022360679774997897</speed>
  <fix>3d</fix>
</trkpt>
<trkpt lat="-27.2744396" lon="151.2900665">
  <ele>343.1</ele>
  <time>2026-09-01T19:53:09Z</time>
  <course>85.95</course>
  <speed>0.0</speed>
  <fix>3d</fix>
</trkpt>
<trkpt lat="-27.2744393" lon="151.2900663">
  <ele>343.1</ele>
  <time>2026-09-01T19:53:09Z</time>
  <course>182.66</course>
  <speed>0.022360679774997897</speed>
  <fix>3d</fix>
</trkpt>
<trkpt lat="-27.2744396" lon="151.2900665">
  <ele>343.1</ele>
  <time>2026-09-01T19:53:09Z</time>
  <course>85.95</course>
  <speed>0.0</speed>
  <fix>3d</fix>
</trkpt>
<trkpt lat="-27.2744393" lon="151.2900663">
  <ele>343.1</ele>
  <time>2026-09-01T19:53:09Z</time>
  <course>182.66</course>
  <speed>0.022360679774997897</speed>
  <fix>3d</fix>
</trkpt>
<trkpt lat="-27.2744396" lon="151.2900665">
  <ele>343.1</ele>
  <time>2026-09-01T19:53:09Z</time>
  <course>85.83</course>
  <speed>0.0</speed>
  <fix>3d</fix>
</trkpt>
<trkpt lat="-27.2744393" lon="151.2900663">
  <ele>343.11</ele>
  <time>2026-09-01T19:53:09Z</time>
  <course>182.67</course>
  <speed>0.022360679774997897</speed>
  <fix>3d</fix>
</trkpt>
<trkpt lat="-27.2744396" lon="151.2900665">
  <ele>343.1</ele>
  <time>2026-09-01T19:53:09Z</time>
  <course>85.83</course>
  <speed>0.0</speed>
  <fix>3d</fix>
</trkpt>
<trkpt lat="-27.2744393" lon="151.2900663">
  <ele>343.11</ele>
  <time>2026-09-01T19:53:09Z</time>
  <course>182.67</course>
  <speed>0.022360679774997897</speed>
  <fix>3d</fix>
</trkpt>
<trkpt lat="-27.2744396" lon="151.2900665">
  <ele>343.1</ele>
  <time>2026-09-01T19:53:09Z</time>
  <course>85.8</course>
  <speed>0.0</speed>
  <fix>3d</fix>
</trkpt>
<trkpt lat="-27.2744393" lon="151.2900663">
  <ele>343.11</ele>
  <time>2026-09-01T19:53:09Z</time>
  <course>182.67</course>
  <speed>0.0282842712474619</speed>
  <fix>3d</fix>
</trkpt>
<trkpt lat="-27.2744396" lon="151.2900665">
  <ele>343.1</ele>
  <time>2026-09-01T19:53:09Z</time>
  <course>85.8</course>
  <speed>0.0</speed>
  <fix>3d</fix>
</trkpt>
<trkpt lat="-27.2744393" lon="151.2900663">
  <ele>343.11</ele>
  <time>2026-09-01T19:53:09Z</time>
  <course>182.67</course>
  <speed>0.0282842712474619</speed>
  <fix>3d</fix>
</trkpt>
<trkpt lat="-27.2744396" lon="151.2900665">
  <ele>343.1</ele>
  <time>2026-09-01T19:53:09Z</time>
  <course>85.76</course>
  <speed>0.0</speed>
  <fix>3d</fix>
</trkpt>
<trkpt lat="-27.2744393" lon="151.2900663">
  <ele>343.11</ele>
  <time>2026-09-01T19:53:09Z</time>
  <course>182.68</course>
  <speed>0.0282842712474619</speed>
  <fix>3d</fix>
</trkpt>
<trkpt lat="-27.2744396" lon="151.2900665">
  <ele>343.1</ele>
  <time>2026-09-01T19:53:09Z</time>
  <course>85.76</course>
  <speed>0.0</speed>
  <fix>3d</fix>
</trkpt>
<trkpt lat="-27.2744393" lon="151.2900663">
  <ele>343.11</ele>
  <time>2026-09-01T19:53:09Z</time>
  <course>182.68</course>
  <speed>0.0282842712474619</speed>
  <fix>3d</fix>
</trkpt>
<trkpt lat="-27.2744396" lon="151.2900665">
  <ele>343.1</ele>
  <time>2026-09-01T19:53:09Z</time>
  <course>85.78</course>
  <speed>0.0</speed>
  <fix>3d</fix>
</trkpt>
<trkpt lat="-27.2744393" lon="151.2900663">
  <ele>343.11</ele>
  <time>2026-09-01T19:53:09Z</time>
  <course>182.68</course>
  <speed>0.0282842712474619</speed>
  <fix>3d</fix>
</trkpt>
<trkpt lat="-27.2744396" lon="151.2900665">
  <ele>343.1</ele>
  <time>2026-09-01T19:53:09Z</time>
  <course>85.78</course>
  <speed>0.0</speed>
  <fix>3d</fix>
</trkpt>
<trkpt lat="-27.2744393" lon="151.2900663">
  <ele>343.11</ele>
  <time>2026-09-01T19:53:09Z</time>
  <course>182.69</course>
  <speed>0.0282842712474619</speed>
  <fix>3d</fix>
</trkpt>
<trkpt lat="-27.2744396" lon="151.2900665">
  <ele>343.1</ele>
  <time>2026-09-01T19:53:09Z</time>
  <course>85.84</course>
  <speed>0.0</speed>
  <fix>3d</fix>
</trkpt>
<trkpt lat="-27.2744393" lon="151.2900663">
  <ele>343.11</ele>
  <time>2026-09-01T19:53:09Z</time>
  <course>182.69</course>
  <speed>0.0282842712474619</speed>
  <fix>3d</fix>
</trkpt>
<trkpt lat="-27.2744396" lon="151.2900665">
  <ele>343.1</ele>
  <time>2026-09-01T19:53:09Z</time>
  <course>85.84</course>
  <speed>0.0</speed>
  <fix>3d</fix>
</trkpt>
<trkpt lat="-27.2744393" lon="151.2900663">
  <ele>343.11</ele>
  <time>2026-09-01T19:53:09Z</time>
  <course>182.69</course>
  <speed>0.0282842712474619</speed>
  <fix>3d</fix>
</trkpt>
<trkpt lat="-27.2744396" lon="151.2900665">
  <ele>343.1</ele>
  <time>2026-09-01T19:53:09Z</time>
  <course>85.9</course>
  <speed>0.0</speed>
  <fix>3d</fix>
</trkpt>
<trkpt lat="-27.2744393" lon="151.2900663">
  <ele>343.1</ele>
  <time>2026-09-01T19:53:09Z</time>
  <course>182.69</course>
  <speed>0.0282842712474619</speed>
  <fix>3d</fix>
</trkpt>
<trkpt lat="-27.2744396" lon="151.2900665">
  <ele>343.1</ele>
  <time>2026-09-01T19:53:09Z</time>
  <course>85.9</course>
  <speed>0.0</speed>
  <fix>3d</fix>
</trkpt>
<trkpt lat="-27.2744393" lon="151.2900663">
  <ele>343.1</ele>
  <time>2026-09-01T19:53:09Z</time>
  <course>182.7</course>
  <speed>0.0282842712474619</speed>
  <fix>3d</fix>
</trkpt>
<trkpt lat="-27.2744396" lon="151.2900665">
  <ele>343.1</ele>
  <time>2026-09-01T19:53:09Z</time>
  <course>85.96</course>
  <speed>0.0</speed>
  <fix>3d</fix>
</trkpt>
<trkpt lat="-27.2744393" lon="151.2900663">
  <ele>343.1</ele>
  <time>2026-09-01T19:53:09Z</time>
  <course>182.7</course>
  <speed>0.0282842712474619</speed>
  <fix>3d</fix>
</trkpt>
<trkpt lat="-27.2744396" lon="151.2900665">
  <ele>343.1</ele>
  <time>2026-09-01T19:53:09Z</time>
  <course>85.96</course>
  <speed>0.0</speed>
  <fix>3d</fix>
</trkpt>
<trkpt lat="-27.2744393" lon="151.2900663">
  <ele>343.1</ele>
  <time>2026-09-01T19:53:09Z</time>
  <course>182.7</course>
  <speed>0.0282842712474619</speed>
  <fix>3d</fix>
</trkpt>
<trkpt lat="-27.2744396" lon="151.2900665">
  <ele>343.1</ele>
  <time>2026-09-01T19:53:09Z</time>
  <course>85.97</course>
  <speed>0.0</speed>
  <fix>3d</fix>
</trkpt>
<trkpt lat="-27.2744393" lon="151.2900663">
  <ele>343.1</ele>
  <time>2026-09-01T19:53:09Z</time>
  <course>182.7</course>
  <speed>0.0282842712474619</speed>
  <fix>3d</fix>
</trkpt>
<trkpt lat="-27.2744396" lon="151.2900665">
  <ele>343.1</ele>
  <time>2026-09-01T19:53:09Z</time>
  <course>85.97</course>
  <speed>0.0</speed>
  <fix>3d</fix>
</trkpt>
<trkpt lat="-27.2744393" lon="151.2900663">
  <ele>343.1</ele>
  <time>2026-09-01T19:53:09Z</time>
  <course>182.71</course>
  <speed>0.0282842712474619</speed>
  <fix>3d</fix>
</trkpt>
<trkpt lat="-27.2744396" lon="151.2900665">
  <ele>343.1</ele>
  <time>2026-09-01T19:53:09Z</time>
  <course>85.95</course>
  <speed>0.0</speed>
  <fix>3d</fix>
</trkpt>
<trkpt lat="-27.2744393" lon="151.2900663">
  <ele>343.1</ele>
  <time>2026-09-01T19:53:09Z</time>
  <course>182.71</course>
  <speed>0.0282842712474619</speed>
  <fix>3d</fix>
</trkpt>
<trkpt lat="-27.2744396" lon="151.2900665">
  <ele>343.1</ele>
  <time>2026-09-01T19:53:09Z</time>
  <course>85.95</course>
  <speed>0.0</speed>
  <fix>3d</fix>
</trkpt>
<trkpt lat="-27.2744393" lon="151.2900663">
  <ele>343.1</ele>
  <time>2026-09-01T19:53:09Z</time>
  <course>182.71</course>
  <speed>0.0282842712474619</speed>
  <fix>3d</fix>
</trkpt>
<trkpt lat="-27.2744396" lon="151.2900665">
  <ele>343.1</ele>
  <time>2026-09-01T19:53:09Z</time>
  <course>85.94</course>
  <speed>0.0</speed>
  <fix>3d</fix>
</trkpt>
<trkpt lat="-27.2744393" lon="151.2900663">
  <ele>343.1</ele>
  <time>2026-09-01T19:53:09Z</time>
  <course>182.71</course>
  <speed>0.0282842712474619</speed>
  <fix>3d</fix>
</trkpt>
<trkpt lat="-27.2744396" lon="151.2900665">
  <ele>343.1</ele>
  <time>2026-09-01T19:53:09Z</time>
  <course>85.94</course>
  <speed>0.0</speed>
  <fix>3d</fix>
</trkpt>
<trkpt lat="-27.2744393" lon="151.2900663">
  <ele>343.1</ele>
  <time>2026-09-01T19:53:09Z</time>
  <course>182.72</course>
  <speed>0.0282842712474619</speed>
  <fix>3d</fix>
</trkpt>
<trkpt lat="-27.2744396" lon="151.2900665">
  <ele>343.1</ele>
  <time>2026-09-01T19:53:09Z</time>
  <course>85.97</course>
  <speed>0.0</speed>
  <fix>3d</fix>
</trkpt>
<trkpt lat="-27.2744393" lon="151.2900663">
  <ele>343.1</ele>
  <time>2026-09-01T19:53:09Z</time>
  <course>182.72</course>
  <speed>0.0282842712474619</speed>
  <fix>3d</fix>
</trkpt>
<trkpt lat="-27.2744396" lon="151.2900665">
  <ele>343.1</ele>
  <time>2026-09-01T19:53:09Z</time>
  <course>85.97</course>
  <speed>0.0</speed>
  <fix>3d</fix>
</trkpt>
<trkpt lat="-27.2744393" lon="151.2900663">
  <ele>343.11</ele>
  <time>2026-09-01T19:53:09Z</time>
  <course>182.72</course>
  <speed>0.0282842712474619</speed>
  <fix>3d</fix>
</trkpt>
<trkpt lat="-27.2744396" lon="151.2900665">
  <ele>343.1</ele>
  <time>2026-09-01T19:53:09Z</time>
  <course>85.98</course>
  <speed>0.0</speed>
  <fix>3d</fix>
</trkpt>
<trkpt lat="-27.2744393" lon="151.2900663">
  <ele>343.11</ele>
  <time>2026-09-01T19:53:09Z</time>
  <course>182.72</course>
  <speed>0.0282842712474619</speed>
  <fix>3d</fix>
</trkpt>
<trkpt lat="-27.2744396" lon="151.2900665">
  <ele>343.1</ele>
  <time>2026-09-01T19:53:09Z</time>
  <course>85.98</course>
  <speed>0.0</speed>
  <fix>3d</fix>
</trkpt>
<trkpt lat="-27.2744393" lon="151.2900663">
  <ele>343.11</ele>
  <time>2026-09-01T19:53:09Z</time>
  <course>182.73</course>
  <speed>0.0282842712474619</speed>
  <fix>3d</fix>
</trkpt>
<trkpt lat="-27.2744396" lon="151.2900665">
  <ele>343.1</ele>
  <time>2026-09-01T19:53:09Z</time>
  <course>85.97</course>
  <speed>0.0</speed>
  <fix>3d</fix>
</trkpt>
<trkpt lat="-27.2744393" lon="151.2900663">
  <ele>343.11</ele>
  <time>2026-09-01T19:53:09Z</time>
  <course>182.73</course>
  <speed>0.0282842712474619</speed>
  <fix>3d</fix>
</trkpt>
<trkpt lat="-27.2744396" lon="151.2900665">
  <ele>343.1</ele>
  <time>2026-09-01T19:53:09Z</time>
  <course>85.97</course>
  <speed>0.0</speed>
  <fix>3d</fix>
</trkpt>
<trkpt lat="-27.2744393" lon="151.2900663">
  <ele>343.11</ele>
  <time>2026-09-01T19:53:09Z</time>
  <course>182.73</course>
  <speed>0.0282842712474619</speed>
  <fix>3d</fix>
</trkpt>
<trkpt lat="-27.2744396" lon="151.2900665">
  <ele>343.1</ele>
  <time>2026-09-01T19:53:09Z</time>
  <course>85.97</course>
  <speed>0.0</speed>
  <fix>3d</fix>
</trkpt>
<trkpt lat="-27.2744393" lon="151.2900663">
  <ele>343.11</ele>
  <time>2026-09-01T19:53:09Z</time>
  <course>182.73</course>
  <speed>0.0282842712474619</speed>
  <fix>3d</fix>
</trkpt>
<trkpt lat="-27.2744396" lon="151.2900665">
  <ele>343.1</ele>
  <time>2026-09-01T19:53:09Z</time>
  <course>85.97</course>
  <speed>0.0</speed>
  <fix>3d</fix>
</trkpt>
<trkpt lat="-27.2744393" lon="151.2900663">
  <ele>343.11</ele>
  <time>2026-09-01T19:53:09Z</time>
  <course>182.74</course>
  <speed>0.0282842712474619</speed>
  <fix>3d</fix>
</trkpt>
<trkpt lat="-27.2744396" lon="151.2900665">
  <ele>343.1</ele>
  <time>2026-09-01T19:53:09Z</time>
  <course>85.98</course>
  <speed>0.0</speed>
  <fix>3d</fix>
</trkpt>
<trkpt lat="-27.2744393" lon="151.2900663">
  <ele>343.11</ele>
  <time>2026-09-01T19:53:09Z</time>
  <course>182.74</course>
  <speed>0.0282842712474619</speed>
  <fix>3d</fix>
</trkpt>
<trkpt lat="-27.2744396" lon="151.2900665">
  <ele>343.1</ele>
  <time>2026-09-01T19:53:09Z</time>
  <course>85.98</course>
  <speed>0.0</speed>
  <fix>3d</fix>
</trkpt>
<trkpt lat="-27.2744393" lon="151.2900663">
  <ele>343.11</ele>
  <time>2026-09-01T19:53:09Z</time>
  <course>182.74</course>
  <speed>0.0282842712474619</speed>
  <fix>3d</fix>
</trkpt>
<trkpt lat="-27.2744396" lon="151.2900665">
  <ele>343.1</ele>
  <time>2026-09-01T19:53:09Z</time>
  <course>85.98</course>
  <speed>0.0</speed>
  <fix>3d</fix>
</trkpt>
<trkpt lat="-27.2744393" lon="151.2900663">
  <ele>343.11</ele>
  <time>2026-09-01T19:53:09Z</time>
  <course>182.74</course>
  <speed>0.0282842712474619</speed>
  <fix>3d</fix>
</trkpt>
<trkpt lat="-27.2744396" lon="151.2900665">
  <ele>343.1</ele>
  <time>2026-09-01T19:53:09Z</time>
  <course>85.98</course>
  <speed>0.0</speed>
  <fix>3d</fix>
</trkpt>
<trkpt lat="-27.2744393" lon="151.2900663">
  <ele>343.11</ele>
  <time>2026-09-01T19:53:09Z</time>
  <course>182.74</course>
  <speed>0.0282842712474619</speed>
  <fix>3d</fix>
</trkpt>
<trkpt lat="-27.2744396" lon="151.2900665">
  <ele>343.1</ele>
  <time>2026-09-01T19:53:09Z</time>
  <course>85.67</course>
  <speed>0.0</speed>
  <fix>3d</fix>
</trkpt>
<trkpt lat="-27.2744393" lon="151.2900663">
  <ele>343.11</ele>
  <time>2026-09-01T19:53:09Z</time>
  <course>182.74</course>
  <speed>0.0282842712474619</speed>
  <fix>3d</fix>
</trkpt>
<trkpt lat="-27.2744396" lon="151.2900665">
  <ele>343.1</ele>
  <time>2026-09-01T19:53:09Z</time>
  <course>85.67</course>
  <speed>0.0</speed>
  <fix>3d</fix>
</trkpt>
<trkpt lat="-27.2744393" lon="151.2900663">
  <ele>343.11</ele>
  <time>2026-09-01T19:53:09Z</time>
  <course>182.73</course>
  <speed>0.0282842712474619</speed>
  <fix>3d</fix>
</trkpt>
<trkpt lat="-27.2744396" lon="151.2900665">
  <ele>343.1</ele>
  <time>2026-09-01T19:53:09Z</time>
  <course>85.68</course>
  <speed>0.0</speed>
  <fix>3d</fix>
</trkpt>
<trkpt lat="-27.2744393" lon="151.2900663">
  <ele>343.11</ele>
  <time>2026-09-01T19:53:09Z</time>
  <course>182.73</course>
  <speed>0.0282842712474619</speed>
  <fix>3d</fix>
</trkpt>
<trkpt lat="-27.2744396" lon="151.2900665">
  <ele>343.1</ele>
  <time>2026-09-01T19:53:09Z</time>
  <course>85.68</course>
  <speed>0.0</speed>
  <fix>3d</fix>
</trkpt>
<trkpt lat="-27.2744393" lon="151.2900663">
  <ele>343.11</ele>
  <time>2026-09-01T19:53:09Z</time>
  <course>182.73</course>
  <speed>0.0282842712474619</speed>
  <fix>3d</fix>
</trkpt>
<trkpt lat="-27.2744396" lon="151.2900665">
  <ele>343.1</ele>
  <time>2026-09-01T19:53:09Z</time>
  <course>86.01</course>
  <speed>0.0</speed>
  <fix>3d</fix>
</trkpt>
<trkpt lat="-27.2744393" lon="151.2900663">
  <ele>343.12</ele>
  <time>2026-09-01T19:53:09Z</time>
  <course>182.73</course>
  <speed>0.0282842712474619</speed>
  <fix>3d</fix>
</trkpt>
<trkpt lat="-27.2744396" lon="151.2900665">
  <ele>343.1</ele>
  <time>2026-09-01T19:53:09Z</time>
  <course>86.01</course>
  <speed>0.0</speed>
  <fix>3d</fix>
</trkpt>
<trkpt lat="-27.2744393" lon="151.2900663">
  <ele>343.1</ele>
  <time>2026-09-01T19:53:09Z</time>
  <course>182.73</course>
  <speed>0.0282842712474619</speed>
  <fix>3d</fix>
</trkpt>
<trkpt lat="-27.2744396" lon="151.2900665">
  <ele>343.1</ele>
  <time>2026-09-01T19:53:09Z</time>
  <course>86.02</course>
  <speed>0.0</speed>
  <fix>3d</fix>
</trkpt>
<trkpt lat="-27.2744393" lon="151.2900663">
  <ele>343.1</ele>
  <time>2026-09-01T19:53:09Z</time>
  <course>182.72</course>
  <speed>0.0282842712474619</speed>
  <fix>3d</fix>
</trkpt>
<trkpt lat="-27.2744396" lon="151.2900665">
  <ele>343.1</ele>
  <time>2026-09-01T19:53:09Z</time>
  <course>86.02</course>
  <speed>0.0</speed>
  <fix>3d</fix>
</trkpt>
<trkpt lat="-27.2744393" lon="151.2900663">
  <ele>343.1</ele>
  <time>2026-09-01T19:53:09Z</time>
  <course>182.72</course>
  <speed>0.0282842712474619</speed>
  <fix>3d</fix>
</trkpt>
<trkpt lat="-27.2744396" lon="151.2900665">
  <ele>343.1</ele>
  <time>2026-09-01T19:53:09Z</time>
  <course>86.01</course>
  <speed>0.0</speed>
  <fix>3d</fix>
</trkpt>
<trkpt lat="-27.2744393" lon="151.2900663">
  <ele>343.09</ele>
  <time>2026-09-01T19:53:09Z</time>
  <course>182.72</course>
  <speed>0.0282842712474619</speed>
  <fix>3d</fix>
</trkpt>
<trkpt lat="-27.2744396" lon="151.2900665">
  <ele>343.1</ele>
  <time>2026-09-01T19:53:09Z</time>
  <course>86.01</course>
  <speed>0.0</speed>
  <fix>3d</fix>
</trkpt>
<trkpt lat="-27.2744394" lon="151.2900663">
  <ele>343.09</ele>
  <time>2026-09-01T19:53:09Z</time>
  <course>182.72</course>
  <speed>0.0282842712474619</speed>
  <fix>3d</fix>
</trkpt>
<trkpt lat="-27.2744396" lon="151.2900665">
  <ele>343.1</ele>
  <time>2026-09-01T19:53:09Z</time>
  <course>86.02</course>
  <speed>0.0</speed>
  <fix>3d</fix>
</trkpt>
<trkpt lat="-27.2744394" lon="151.2900663">
  <ele>343.08</ele>
  <time>2026-09-01T19:53:09Z</time>
  <course>182.72</course>
  <speed>0.0282842712474619</speed>
  <fix>3d</fix>
</trkpt>
<trkpt lat="-27.2744396" lon="151.2900665">
  <ele>343.1</ele>
  <time>2026-09-01T19:53:09Z</time>
  <course>86.02</course>
  <speed>0.0</speed>
  <fix>3d</fix>
</trkpt>
<trkpt lat="-27.2744394" lon="151.2900663">
  <ele>343.08</ele>
  <time>2026-09-01T19:53:09Z</time>
  <course>182.71</course>
  <speed>0.0282842712474619</speed>
  <fix>3d</fix>
</trkpt>
<trkpt lat="-27.2744396" lon="151.2900665">
  <ele>343.1</ele>
  <time>2026-09-01T19:53:09Z</time>
  <course>268.45</course>
  <speed>0.0</speed>
  <fix>3d</fix>
</trkpt>
<trkpt lat="-27.2744394" lon="151.2900663">
  <ele>343.07</ele>
  <time>2026-09-01T19:53:09Z</time>
  <course>182.71</course>
  <speed>0.0282842712474619</speed>
  <fix>3d</fix>
</trkpt>
<trkpt lat="-27.2744396" lon="151.2900665">
  <ele>343.1</ele>
  <time>2026-09-01T19:53:09Z</time>
  <course>268.45</course>
  <speed>0.0</speed>
  <fix>3d</fix>
</trkpt>
<trkpt lat="-27.2744394" lon="151.2900663">
  <ele>343.07</ele>
  <time>2026-09-01T19:53:09Z</time>
  <course>182.71</course>
  <speed>0.0282842712474619</speed>
  <fix>3d</fix>
</trkpt>
<trkpt lat="-27.2744396" lon="151.2900665">
  <ele>343.1</ele>
  <time>2026-09-01T19:53:09Z</time>
  <course>267.58</course>
  <speed>0.0</speed>
  <fix>3d</fix>
</trkpt>
<trkpt lat="-27.2744394" lon="151.2900663">
  <ele>343.06</ele>
  <time>2026-09-01T19:53:09Z</time>
  <course>182.7</course>
  <speed>0.0282842712474619</speed>
  <fix>3d</fix>
</trkpt>
<trkpt lat="-27.2744396" lon="151.2900665">
  <ele>343.1</ele>
  <time>2026-09-01T19:53:09Z</time>
  <course>267.58</course>
  <speed>0.0</speed>
  <fix>3d</fix>
</trkpt>
<trkpt lat="-27.2744394" lon="151.2900663">
  <ele>343.06</ele>
  <time>2026-09-01T19:53:09Z</time>
  <course>182.7</course>
  <speed>0.0282842712474619</speed>
  <fix>3d</fix>
</trkpt>
<trkpt lat="-27.2744396" lon="151.2900665">
  <ele>343.1</ele>
  <time>2026-09-01T19:53:09Z</time>
  <course>266.87</course>
  <speed>0.0</speed>
  <fix>3d</fix>
</trkpt>
<trkpt lat="-27.2744394" lon="151.2900663">
  <ele>343.05</ele>
  <time>2026-09-01T19:53:09Z</time>
  <course>182.7</course>
  <speed>0.0282842712474619</speed>
  <fix>3d</fix>
</trkpt>
<trkpt lat="-27.2744396" lon="151.2900665">
  <ele>343.1</ele>
  <time>2026-09-01T19:53:09Z</time>
  <course>266.87</course>
  <speed>0.0</speed>
  <fix>3d</fix>
</trkpt>
<trkpt lat="-27.2744394" lon="151.2900663">
  <ele>343.05</ele>
  <time>2026-09-01T19:53:09Z</time>
  <course>182.69</course>
  <speed>0.0282842712474619</speed>
  <fix>3d</fix>
</trkpt>
<trkpt lat="-27.2744396" lon="151.2900665">
  <ele>343.1</ele>
  <time>2026-09-01T19:53:09Z</time>
  <course>264.49</course>
  <speed>0.0</speed>
  <fix>3d</fix>
</trkpt>
<trkpt lat="-27.2744394" lon="151.2900663">
  <ele>343.04</ele>
  <time>2026-09-01T19:53:09Z</time>
  <course>182.69</course>
  <speed>0.0282842712474619</speed>
  <fix>3d</fix>
</trkpt>
<trkpt lat="-27.2744396" lon="151.2900665">
  <ele>343.1</ele>
  <time>2026-09-01T19:53:09Z</time>
  <course>264.49</course>
  <speed>0.0</speed>
  <fix>3d</fix>
</trkpt>
<trkpt lat="-27.2744394" lon="151.2900663">
  <ele>343.03</ele>
  <time>2026-09-01T19:53:09Z</time>
  <course>182.68</course>
  <speed>0.0282842712474619</speed>
  <fix>3d</fix>
</trkpt>
<trkpt lat="-27.2744396" lon="151.2900665">
  <ele>343.1</ele>
  <time>2026-09-01T19:53:09Z</time>
  <course>258.65</course>
  <speed>0.0</speed>
  <fix>3d</fix>
</trkpt>
<trkpt lat="-27.2744394" lon="151.2900663">
  <ele>343.03</ele>
  <time>2026-09-01T19:53:09Z</time>
  <course>182.66</course>
  <speed>0.0282842712474619</speed>
  <fix>3d</fix>
</trkpt>
<trkpt lat="-27.2744396" lon="151.2900665">
  <ele>343.1</ele>
  <time>2026-09-01T19:53:09Z</time>
  <course>247.89</course>
  <speed>0.0</speed>
  <fix>3d</fix>
</trkpt>
<trkpt lat="-27.2744394" lon="151.2900663">
  <ele>343.03</ele>
  <time>2026-09-01T19:53:09Z</time>
  <course>182.66</course>
  <speed>0.0282842712474619</speed>
  <fix>3d</fix>
</trkpt>
<trkpt lat="-27.2744396" lon="151.2900665">
  <ele>343.1</ele>
  <time>2026-09-01T19:53:09Z</time>
  <course>239.26</course>
  <speed>0.0</speed>
  <fix>3d</fix>
</trkpt>
<trkpt lat="-27.2744394" lon="151.2900663">
  <ele>343.02</ele>
  <time>2026-09-01T19:53:09Z</time>
  <course>182.66</course>
  <speed>0.0282842712474619</speed>
  <fix>3d</fix>
</trkpt>
<trkpt lat="-27.2744396" lon="151.2900665">
  <ele>343.1</ele>
  <time>2026-09-01T19:53:09Z</time>
  <course>239.26</course>
  <speed>0.0</speed>
  <fix>3d</fix>
</trkpt>
<trkpt lat="-27.2744394" lon="151.2900663">
  <ele>343.02</ele>
  <time>2026-09-01T19:53:09Z</time>
  <course>182.65</course>
  <speed>0.0282842712474619</speed>
  <fix>3d</fix>
</trkpt>
<trkpt lat="-27.2744396" lon="151.2900665">
  <ele>343.1</ele>
  <time>2026-09-01T19:53:09Z</time>
  <course>235.2</course>
  <speed>0.0</speed>
  <fix>3d</fix>
</trkpt>
<trkpt lat="-27.2744394" lon="151.2900663">
  <ele>343.02</ele>
  <time>2026-09-01T19:53:09Z</time>
  <course>182.65</course>
  <speed>0.0282842712474619</speed>
  <fix>3d</fix>
</trkpt>
<trkpt lat="-27.2744396" lon="151.2900665">
  <ele>343.1</ele>
  <time>2026-09-01T19:53:09Z</time>
  <course>235.2</course>
  <speed>0.0</speed>
  <fix>3d</fix>
</trkpt>
<trkpt lat="-27.2744394" lon="151.2900663">
  <ele>343.02</ele>
  <time>2026-09-01T19:53:09Z</time>
  <course>182.65</course>
  <speed>0.0282842712474619</speed>
  <fix>3d</fix>
</trkpt>
<trkpt lat="-27.2744396" lon="151.2900665">
  <ele>343.1</ele>
  <time>2026-09-01T19:53:09Z</time>
  <course>225.47</course>
  <speed>0.0</speed>
  <fix>3d</fix>
</trkpt>
<trkpt lat="-27.2744394" lon="151.2900663">
  <ele>343.02</ele>
  <time>2026-09-01T19:53:09Z</time>
  <course>182.64</course>
  <speed>0.0282842712474619</speed>
  <fix>3d</fix>
</trkpt>
<trkpt lat="-27.2744396" lon="151.2900665">
  <ele>343.1</ele>
  <time>2026-09-01T19:53:09Z</time>
  <course>225.47</course>
  <speed>0.0</speed>
  <fix>3d</fix>
</trkpt>
<trkpt lat="-27.2744394" lon="151.2900663">
  <ele>343.02</ele>
  <time>2026-09-01T19:53:09Z</time>
  <course>182.64</course>
  <speed>0.0282842712474619</speed>
  <fix>3d</fix>
</trkpt>
<trkpt lat="-27.2744396" lon="151.2900665">
  <ele>343.1</ele>
  <time>2026-09-01T19:53:09Z</time>
  <course>211.89</course>
  <speed>0.0</speed>
  <fix>3d</fix>
</trkpt>
<trkpt lat="-27.2744394" lon="151.2900663">
  <ele>343.02</ele>
  <time>2026-09-01T19:53:09Z</time>
  <course>182.64</course>
  <speed>0.0282842712474619</speed>
  <fix>3d</fix>
</trkpt>
<trkpt lat="-27.2744396" lon="151.2900665">
  <ele>343.1</ele>
  <time>2026-09-01T19:53:09Z</time>
  <course>211.89</course>
  <speed>0.0</speed>
  <fix>3d</fix>
</trkpt>
<trkpt lat="-27.2744394" lon="151.2900663">
  <ele>343.02</ele>
  <time>2026-09-01T19:53:09Z</time>
  <course>182.63</course>
  <speed>0.0282842712474619</speed>
  <fix>3d</fix>
</trkpt>
<trkpt lat="-27.2744396" lon="151.2900665">
  <ele>343.1</ele>
  <time>2026-09-01T19:53:09Z</time>
  <course>203.02</course>
  <speed>0.0</speed>
  <fix>3d</fix>
</trkpt>
<trkpt lat="-27.2744394" lon="151.2900663">
  <ele>343.02</ele>
  <time>2026-09-01T19:53:09Z</time>
  <course>182.63</course>
  <speed>0.0282842712474619</speed>
  <fix>3d</fix>
</trkpt>
<trkpt lat="-27.2744396" lon="151.2900665">
  <ele>343.1</ele>
  <time>2026-09-01T19:53:09Z</time>
  <course>203.02</course>
  <speed>0.0</speed>
  <fix>3d</fix>
</trkpt>
<trkpt lat="-27.2744394" lon="151.2900663">
  <ele>343.02</ele>
  <time>2026-09-01T19:53:09Z</time>
  <course>182.63</course>
  <speed>0.0282842712474619</speed>
  <fix>3d</fix>
</trkpt>
<trkpt lat="-27.2744396" lon="151.2900665">
  <ele>343.1</ele>
  <time>2026-09-01T19:53:09Z</time>
  <course>195.72</course>
  <speed>0.0</speed>
  <fix>3d</fix>
</trkpt>
<trkpt lat="-27.2744394" lon="151.2900663">
  <ele>343.02</ele>
  <time>2026-09-01T19:53:09Z</time>
  <course>182.62</course>
  <speed>0.0282842712474619</speed>
  <fix>3d</fix>
</trkpt>
<trkpt lat="-27.2744396" lon="151.2900665">
  <ele>343.1</ele>
  <time>2026-09-01T19:53:09Z</time>
  <course>195.72</course>
  <speed>0.0</speed>
  <fix>3d</fix>
</trkpt>
<trkpt lat="-27.2744394" lon="151.2900663">
  <ele>343.02</ele>
  <time>2026-09-01T19:53:09Z</time>
  <course>182.62</course>
  <speed>0.0282842712474619</speed>
  <fix>3d</fix>
</trkpt>
<trkpt lat="-27.2744396" lon="151.2900665">
  <ele>343.1</ele>
  <time>2026-09-01T19:53:09Z</time>
  <course>187.53</course>
  <speed>0.0</speed>
  <fix>3d</fix>
</trkpt>
<trkpt lat="-27.2744394" lon="151.2900663">
  <ele>343.02</ele>
  <time>2026-09-01T19:53:09Z</time>
  <course>182.62</course>
  <speed>0.0282842712474619</speed>
  <fix>3d</fix>
</trkpt>
<trkpt lat="-27.2744396" lon="151.2900665">
  <ele>343.1</ele>
  <time>2026-09-01T19:53:09Z</time>
  <course>187.53</course>
  <speed>0.0</speed>
  <fix>3d</fix>
</trkpt>
<trkpt lat="-27.2744394" lon="151.2900663">
  <ele>343.02</ele>
  <time>2026-09-01T19:53:09Z</time>
  <course>182.61</course>
  <speed>0.0282842712474619</speed>
  <fix>3d</fix>
</trkpt>
<trkpt lat="-27.2744396" lon="151.2900665">
  <ele>343.1</ele>
  <time>2026-09-01T19:53:09Z</time>
  <course>181.27</course>
  <speed>0.0</speed>
  <fix>3d</fix>
</trkpt>
<trkpt lat="-27.2744394" lon="151.2900663">
  <ele>343.02</ele>
  <time>2026-09-01T19:53:09Z</time>
  <course>182.61</course>
  <speed>0.0282842712474619</speed>
  <fix>3d</fix>
</trkpt>
<trkpt lat="-27.2744396" lon="151.2900665">
  <ele>343.1</ele>
  <time>2026-09-01T19:53:09Z</time>
  <course>181.27</course>
  <speed>0.0</speed>
  <fix>3d</fix>
</trkpt>
<trkpt lat="-27.2744394" lon="151.2900663">
  <ele>343.02</ele>
  <time>2026-09-01T19:53:10Z</time>
  <course>182.61</course>
  <speed>0.0282842712474619</speed>
  <fix>3d</fix>
</trkpt>
<trkpt lat="-27.2744396" lon="151.2900665">
  <ele>343.1</ele>
  <time>2026-09-01T19:53:10Z</time>
  <course>177.17</course>
  <speed>0.0</speed>
  <fix>3d</fix>
</trkpt>
<trkpt lat="-27.2744394" lon="151.2900663">
  <ele>343.02</ele>
  <time>2026-09-01T19:53:10Z</time>
  <course>182.6</course>
  <speed>0.0282842712474619</speed>
  <fix>3d</fix>
</trkpt>
<trkpt lat="-27.2744396" lon="151.2900665">
  <ele>343.1</ele>
  <time>2026-09-01T19:53:10Z</time>
  <course>177.17</course>
  <speed>0.0</speed>
  <fix>3d</fix>
</trkpt>
<trkpt lat="-27.2744394" lon="151.2900663">
  <ele>343.02</ele>
  <time>2026-09-01T19:53:10Z</time>
  <course>182.6</course>
  <speed>0.0282842712474619</speed>
  <fix>3d</fix>
</trkpt>
<trkpt lat="-27.2744396" lon="151.2900665">
  <ele>343.1</ele>
  <time>2026-09-01T19:53:10Z</time>
  <course>173.77</course>
  <speed>0.0</speed>
  <fix>3d</fix>
</trkpt>
<trkpt lat="-27.2744394" lon="151.2900663">
  <ele>343.02</ele>
  <time>2026-09-01T19:53:10Z</time>
  <course>182.59</course>
  <speed>0.0282842712474619</speed>
  <fix>3d</fix>
</trkpt>
<trkpt lat="-27.2744396" lon="151.2900665">
  <ele>343.1</ele>
  <time>2026-09-01T19:53:10Z</time>
  <course>173.77</course>
  <speed>0.0</speed>
  <fix>3d</fix>
</trkpt>
<trkpt lat="-27.2744394" lon="151.2900663">
  <ele>343.02</ele>
  <time>2026-09-01T19:53:10Z</time>
  <course>182.59</course>
  <speed>0.0282842712474619</speed>
  <fix>3d</fix>
</trkpt>
<trkpt lat="-27.2744396" lon="151.2900665">
  <ele>343.1</ele>
  <time>2026-09-01T19:53:10Z</time>
  <course>170.93</course>
  <speed>0.0</speed>
  <fix>3d</fix>
</trkpt>
<trkpt lat="-27.2744394" lon="151.2900663">
  <ele>343.02</ele>
  <time>2026-09-01T19:53:10Z</time>
  <course>182.59</course>
  <speed>0.0282842712474619</speed>
  <fix>3d</fix>
</trkpt>
<trkpt lat="-27.2744396" lon="151.2900665">
  <ele>343.1</ele>
  <time>2026-09-01T19:53:10Z</time>
  <course>170.93</course>
  <speed>0.0</speed>
  <fix>3d</fix>
</trkpt>
<trkpt lat="-27.2744394" lon="151.2900663">
  <ele>343.02</ele>
  <time>2026-09-01T19:53:10Z</time>
  <course>182.58</course>
  <speed>0.0282842712474619</speed>
  <fix>3d</fix>
</trkpt>
<trkpt lat="-27.2744396" lon="151.2900665">
  <ele>343.1</ele>
  <time>2026-09-01T19:53:10Z</time>
  <course>168.9</course>
  <speed>0.0</speed>
  <fix>3d</fix>
</trkpt>
<trkpt lat="-27.2744394" lon="151.2900663">
  <ele>343.02</ele>
  <time>2026-09-01T19:53:10Z</time>
  <course>182.58</course>
  <speed>0.0282842712474619</speed>
  <fix>3d</fix>
</trkpt>
<trkpt lat="-27.2744396" lon="151.2900665">
  <ele>343.1</ele>
  <time>2026-09-01T19:53:10Z</time>
  <course>168.9</course>
  <speed>0.0</speed>
  <fix>3d</fix>
</trkpt>
<trkpt lat="-27.2744394" lon="151.2900663">
  <ele>343.02</ele>
  <time>2026-09-01T19:53:10Z</time>
  <course>182.58</course>
  <speed>0.0282842712474619</speed>
  <fix>3d</fix>
</trkpt>
<trkpt lat="-27.2744396" lon="151.2900665">
  <ele>343.1</ele>
  <time>2026-09-01T19:53:10Z</time>
  <course>167.4</course>
  <speed>0.0</speed>
  <fix>3d</fix>
</trkpt>
<trkpt lat="-27.2744394" lon="151.2900663">
  <ele>343.02</ele>
  <time>2026-09-01T19:53:10Z</time>
  <course>182.57</course>
  <speed>0.0282842712474619</speed>
  <fix>3d</fix>
</trkpt>
<trkpt lat="-27.2744396" lon="151.2900665">
  <ele>343.1</ele>
  <time>2026-09-01T19:53:10Z</time>
  <course>167.4</course>
  <speed>0.0</speed>
  <fix>3d</fix>
</trkpt>
<trkpt lat="-27.2744394" lon="151.2900663">
  <ele>343.02</ele>
  <time>2026-09-01T19:53:10Z</time>
  <course>182.57</course>
  <speed>0.0282842712474619</speed>
  <fix>3d</fix>
</trkpt>
<trkpt lat="-27.2744396" lon="151.2900665">
  <ele>343.1</ele>
  <time>2026-09-01T19:53:10Z</time>
  <course>166.18</course>
  <speed>0.0</speed>
  <fix>3d</fix>
</trkpt>
<trkpt lat="-27.2744394" lon="151.2900663">
  <ele>343.03</ele>
  <time>2026-09-01T19:53:10Z</time>
  <course>182.56</course>
  <speed>0.0282842712474619</speed>
  <fix>3d</fix>
</trkpt>
<trkpt lat="-27.2744396" lon="151.2900665">
  <ele>343.1</ele>
  <time>2026-09-01T19:53:10Z</time>
  <course>166.18</course>
  <speed>0.0</speed>
  <fix>3d</fix>
</trkpt>
<trkpt lat="-27.2744394" lon="151.2900663">
  <ele>343.03</ele>
  <time>2026-09-01T19:53:10Z</time>
  <course>182.56</course>
  <speed>0.0282842712474619</speed>
  <fix>3d</fix>
</trkpt>
<trkpt lat="-27.2744396" lon="151.2900665">
  <ele>343.1</ele>
  <time>2026-09-01T19:53:10Z</time>
  <course>165.24</course>
  <speed>0.0</speed>
  <fix>3d</fix>
</trkpt>
<trkpt lat="-27.2744394" lon="151.2900663">
  <ele>343.03</ele>
  <time>2026-09-01T19:53:10Z</time>
  <course>182.56</course>
  <speed>0.0282842712474619</speed>
  <fix>3d</fix>
</trkpt>
<trkpt lat="-27.2744396" lon="151.2900665">
  <ele>343.1</ele>
  <time>2026-09-01T19:53:10Z</time>
  <course>165.24</course>
  <speed>0.0</speed>
  <fix>3d</fix>
</trkpt>
<trkpt lat="-27.2744394" lon="151.2900663">
  <ele>343.03</ele>
  <time>2026-09-01T19:53:10Z</time>
  <course>182.55</course>
  <speed>0.0282842712474619</speed>
  <fix>3d</fix>
</trkpt>
<trkpt lat="-27.2744396" lon="151.2900665">
  <ele>343.1</ele>
  <time>2026-09-01T19:53:10Z</time>
  <course>164.53</course>
  <speed>0.0</speed>
  <fix>3d</fix>
</trkpt>
<trkpt lat="-27.2744394" lon="151.2900663">
  <ele>343.03</ele>
  <time>2026-09-01T19:53:10Z</time>
  <course>182.55</course>
  <speed>0.0282842712474619</speed>
  <fix>3d</fix>
</trkpt>
<trkpt lat="-27.2744396" lon="151.2900665">
  <ele>343.1</ele>
  <time>2026-09-01T19:53:10Z</time>
  <course>164.53</course>
  <speed>0.0</speed>
  <fix>3d</fix>
</trkpt>
<trkpt lat="-27.2744394" lon="151.2900663">
  <ele>343.03</ele>
  <time>2026-09-01T19:53:10Z</time>
  <course>182.55</course>
  <speed>0.0282842712474619</speed>
  <fix>3d</fix>
</trkpt>
<trkpt lat="-27.2744396" lon="151.2900665">
  <ele>343.1</ele>
  <time>2026-09-01T19:53:10Z</time>
  <course>163.99</course>
  <speed>0.0</speed>
  <fix>3d</fix>
</trkpt>
<trkpt lat="-27.2744394" lon="151.2900663">
  <ele>343.03</ele>
  <time>2026-09-01T19:53:10Z</time>
  <course>182.54</course>
  <speed>0.0282842712474619</speed>
  <fix>3d</fix>
</trkpt>
<trkpt lat="-27.2744396" lon="151.2900665">
  <ele>343.1</ele>
  <time>2026-09-01T19:53:10Z</time>
  <course>163.99</course>
  <speed>0.0</speed>
  <fix>3d</fix>
</trkpt>
<trkpt lat="-27.2744394" lon="151.2900663">
  <ele>343.1</ele>
  <time>2026-09-01T19:53:10Z</time>
  <course>182.54</course>
  <speed>0.0282842712474619</speed>
  <fix>3d</fix>
</trkpt>
<trkpt lat="-27.2744396" lon="151.2900665">
  <ele>343.1</ele>
  <time>2026-09-01T19:53:10Z</time>
  <course>163.56</course>
  <speed>0.0</speed>
  <fix>3d</fix>
</trkpt>
<trkpt lat="-27.2744394" lon="151.2900663">
  <ele>343.1</ele>
  <time>2026-09-01T19:53:10Z</time>
  <course>182.53</course>
  <speed>0.0282842712474619</speed>
  <fix>3d</fix>
</trkpt>
<trkpt lat="-27.2744396" lon="151.2900665">
  <ele>343.1</ele>
  <time>2026-09-01T19:53:10Z</time>
  <course>163.56</course>
  <speed>0.0</speed>
  <fix>3d</fix>
</trkpt>
<trkpt lat="-27.2744394" lon="151.2900663">
  <ele>343.1</ele>
  <time>2026-09-01T19:53:10Z</time>
  <course>182.53</course>
  <speed>0.0282842712474619</speed>
  <fix>3d</fix>
</trkpt>
<trkpt lat="-27.2744396" lon="151.2900665">
  <ele>343.1</ele>
  <time>2026-09-01T19:53:10Z</time>
  <course>163.23</course>
  <speed>0.0</speed>
  <fix>3d</fix>
</trkpt>
<trkpt lat="-27.2744394" lon="151.2900663">
  <ele>343.1</ele>
  <time>2026-09-01T19:53:10Z</time>
  <course>182.52</course>
  <speed>0.0282842712474619</speed>
  <fix>3d</fix>
</trkpt>
<trkpt lat="-27.2744396" lon="151.2900665">
  <ele>343.1</ele>
  <time>2026-09-01T19:53:10Z</time>
  <course>163.23</course>
  <speed>0.0</speed>
  <fix>3d</fix>
</trkpt>
<trkpt lat="-27.2744394" lon="151.2900663">
  <ele>343.09</ele>
  <time>2026-09-01T19:53:10Z</time>
  <course>182.52</course>
  <speed>0.0282842712474619</speed>
  <fix>3d</fix>
</trkpt>
<trkpt lat="-27.2744396" lon="151.2900665">
  <ele>343.1</ele>
  <time>2026-09-01T19:53:10Z</time>
  <course>162.98</course>
  <speed>0.0</speed>
  <fix>3d</fix>
</trkpt>
<trkpt lat="-27.2744394" lon="151.2900663">
  <ele>343.09</ele>
  <time>2026-09-01T19:53:10Z</time>
  <course>182.52</course>
  <speed>0.0282842712474619</speed>
  <fix>3d</fix>
</trkpt>
<trkpt lat="-27.2744396" lon="151.2900665">
  <ele>343.1</ele>
  <time>2026-09-01T19:53:10Z</time>
  <course>162.98</course>
  <speed>0.0</speed>
  <fix>3d</fix>
</trkpt>
<trkpt lat="-27.2744394" lon="151.2900663">
  <ele>343.09</ele>
  <time>2026-09-01T19:53:10Z</time>
  <course>182.51</course>
  <speed>0.0282842712474619</speed>
  <fix>3d</fix>
</trkpt>
<trkpt lat="-27.2744396" lon="151.2900665">
  <ele>343.1</ele>
  <time>2026-09-01T19:53:10Z</time>
  <course>162.78</course>
  <speed>0.0</speed>
  <fix>3d</fix>
</trkpt>
<trkpt lat="-27.2744394" lon="151.2900663">
  <ele>343.09</ele>
  <time>2026-09-01T19:53:10Z</time>
  <course>182.51</course>
  <speed>0.0282842712474619</speed>
  <fix>3d</fix>
</trkpt>
<trkpt lat="-27.2744396" lon="151.2900665">
  <ele>343.1</ele>
  <time>2026-09-01T19:53:10Z</time>
  <course>162.78</course>
  <speed>0.0</speed>
  <fix>3d</fix>
</trkpt>
<trkpt lat="-27.2744394" lon="151.2900663">
  <ele>343.09</ele>
  <time>2026-09-01T19:53:10Z</time>
  <course>182.5</course>
  <speed>0.0282842712474619</speed>
  <fix>3d</fix>
</trkpt>
<trkpt lat="-27.2744396" lon="151.2900665">
  <ele>343.1</ele>
  <time>2026-09-01T19:53:10Z</time>
  <course>162.62</course>
  <speed>0.0</speed>
  <fix>3d</fix>
</trkpt>
<trkpt lat="-27.2744394" lon="151.2900663">
  <ele>343.09</ele>
  <time>2026-09-01T19:53:10Z</time>
  <course>182.5</course>
  <speed>0.0282842712474619</speed>
  <fix>3d</fix>
</trkpt>
<trkpt lat="-27.2744396" lon="151.2900665">
  <ele>343.1</ele>
  <time>2026-09-01T19:53:10Z</time>
  <course>162.62</course>
  <speed>0.0</speed>
  <fix>3d</fix>
</trkpt>
<trkpt lat="-27.2744394" lon="151.2900663">
  <ele>343.09</ele>
  <time>2026-09-01T19:53:10Z</time>
  <course>182.5</course>
  <speed>0.0282842712474619</speed>
  <fix>3d</fix>
</trkpt>
<trkpt lat="-27.2744396" lon="151.2900665">
  <ele>343.1</ele>
  <time>2026-09-01T19:53:10Z</time>
  <course>330.35</course>
  <speed>0.0</speed>
  <fix>3d</fix>
</trkpt>
<trkpt lat="-27.2744394" lon="151.2900663">
  <ele>343.09</ele>
  <time>2026-09-01T19:53:10Z</time>
  <course>182.49</course>
  <speed>0.0282842712474619</speed>
  <fix>3d</fix>
</trkpt>
<trkpt lat="-27.2744396" lon="151.2900665">
  <ele>343.1</ele>
  <time>2026-09-01T19:53:10Z</time>
  <course>330.35</course>
  <speed>0.0</speed>
  <fix>3d</fix>
</trkpt>
<trkpt lat="-27.2744394" lon="151.2900663">
  <ele>343.09</ele>
  <time>2026-09-01T19:53:10Z</time>
  <course>182.49</course>
  <speed>0.0282842712474619</speed>
  <fix>3d</fix>
</trkpt>
<trkpt lat="-27.2744394" lon="151.2900663">
  <ele>343.09</ele>
  <time>2026-09-01T19:53:10Z</time>
  <course>182.49</course>
  <speed>0.0282842712474619</speed>
  <fix>3d</fix>
</trkpt>
<trkpt lat="-27.2744396" lon="151.2900665">
  <ele>343.1</ele>
  <time>2026-09-01T19:53:10Z</time>
  <course>331.2</course>
  <speed>0.0</speed>
  <fix>3d</fix>
</trkpt>
<trkpt lat="-27.2744394" lon="151.2900663">
  <ele>343.09</ele>
  <time>2026-09-01T19:53:10Z</time>
  <course>182.49</course>
  <speed>0.0282842712474619</speed>
  <fix>3d</fix>
</trkpt>
<trkpt lat="-27.2744394" lon="151.2900663">
  <ele>343.08</ele>
  <time>2026-09-01T19:53:10Z</time>
  <course>182.48</course>
  <speed>0.0282842712474619</speed>
  <fix>3d</fix>
</trkpt>
<trkpt lat="-27.2744396" lon="151.2900665">
  <ele>343.1</ele>
  <time>2026-09-01T19:53:10Z</time>
  <course>331.2</course>
  <speed>0.0</speed>
  <fix>3d</fix>
</trkpt>
<trkpt lat="-27.2744394" lon="151.2900663">
  <ele>343.08</ele>
  <time>2026-09-01T19:53:10Z</time>
  <course>182.48</course>
  <speed>0.0282842712474619</speed>
  <fix>3d</fix>
</trkpt>
<trkpt lat="-27.2744394" lon="151.2900663">
  <ele>343.08</ele>
  <time>2026-09-01T19:53:10Z</time>
  <course>182.48</course>
  <speed>0.0282842712474619</speed>
  <fix>3d</fix>
</trkpt>
<trkpt lat="-27.2744396" lon="151.2900665">
  <ele>343.1</ele>
  <time>2026-09-01T19:53:10Z</time>
  <course>330.07</course>
  <speed>0.0</speed>
  <fix>3d</fix>
</trkpt>
<trkpt lat="-27.2744394" lon="151.2900663">
  <ele>343.08</ele>
  <time>2026-09-01T19:53:10Z</time>
  <course>182.48</course>
  <speed>0.0282842712474619</speed>
  <fix>3d</fix>
</trkpt>
<trkpt lat="-27.2744394" lon="151.2900663">
  <ele>343.08</ele>
  <time>2026-09-01T19:53:10Z</time>
  <course>182.47</course>
  <speed>0.0282842712474619</speed>
  <fix>3d</fix>
</trkpt>
<trkpt lat="-27.2744396" lon="151.2900665">
  <ele>343.1</ele>
  <time>2026-09-01T19:53:10Z</time>
  <course>330.07</course>
  <speed>0.0</speed>
  <fix>3d</fix>
</trkpt>
<trkpt lat="-27.2744394" lon="151.2900663">
  <ele>343.08</ele>
  <time>2026-09-01T19:53:10Z</time>
  <course>182.47</course>
  <speed>0.0282842712474619</speed>
  <fix>3d</fix>
</trkpt>
<trkpt lat="-27.2744394" lon="151.2900663">
  <ele>343.08</ele>
  <time>2026-09-01T19:53:10Z</time>
  <course>182.47</course>
  <speed>0.0282842712474619</speed>
  <fix>3d</fix>
</trkpt>
<trkpt lat="-27.2744396" lon="151.2900665">
  <ele>343.1</ele>
  <time>2026-09-01T19:53:10Z</time>
  <course>156.28</course>
  <speed>0.0</speed>
  <fix>3d</fix>
</trkpt>
<trkpt lat="-27.2744394" lon="151.2900663">
  <ele>343.08</ele>
  <time>2026-09-01T19:53:10Z</time>
  <course>182.47</course>
  <speed>0.0282842712474619</speed>
  <fix>3d</fix>
</trkpt>
<trkpt lat="-27.2744394" lon="151.2900663">
  <ele>343.08</ele>
  <time>2026-09-01T19:53:10Z</time>
  <course>182.46</course>
  <speed>0.0282842712474619</speed>
  <fix>3d</fix>
</trkpt>
<trkpt lat="-27.2744396" lon="151.2900665">
  <ele>343.1</ele>
  <time>2026-09-01T19:53:10Z</time>
  <course>156.28</course>
  <speed>0.0</speed>
  <fix>3d</fix>
</trkpt>
<trkpt lat="-27.2744394" lon="151.2900663">
  <ele>343.08</ele>
  <time>2026-09-01T19:53:10Z</time>
  <course>182.46</course>
  <speed>0.0282842712474619</speed>
  <fix>3d</fix>
</trkpt>
<trkpt lat="-27.2744394" lon="151.2900663">
  <ele>343.08</ele>
  <time>2026-09-01T19:53:10Z</time>
  <course>182.46</course>
  <speed>0.0282842712474619</speed>
  <fix>3d</fix>
</trkpt>
<trkpt lat="-27.2744396" lon="151.2900665">
  <ele>343.1</ele>
  <time>2026-09-01T19:53:10Z</time>
  <course>152.87</course>
  <speed>0.0</speed>
  <fix>3d</fix>
</trkpt>
<trkpt lat="-27.2744394" lon="151.2900663">
  <ele>343.08</ele>
  <time>2026-09-01T19:53:10Z</time>
  <course>182.46</course>
  <speed>0.0282842712474619</speed>
  <fix>3d</fix>
</trkpt>
<trkpt lat="-27.2744394" lon="151.2900663">
  <ele>343.08</ele>
  <time>2026-09-01T19:53:10Z</time>
  <course>182.46</course>
  <speed>0.0282842712474619</speed>
  <fix>3d</fix>
</trkpt>
<trkpt lat="-27.2744396" lon="151.2900665">
  <ele>343.1</ele>
  <time>2026-09-01T19:53:10Z</time>
  <course>152.87</course>
  <speed>0.0</speed>
  <fix>3d</fix>
</trkpt>
<trkpt lat="-27.2744394" lon="151.2900663">
  <ele>343.08</ele>
  <time>2026-09-01T19:53:10Z</time>
  <course>182.46</course>
  <speed>0.0282842712474619</speed>
  <fix>3d</fix>
</trkpt>
<trkpt lat="-27.2744394" lon="151.2900663">
  <ele>343.09</ele>
  <time>2026-09-01T19:53:10Z</time>
  <course>182.45</course>
  <speed>0.0282842712474619</speed>
  <fix>3d</fix>
</trkpt>
<trkpt lat="-27.2744396" lon="151.2900665">
  <ele>343.1</ele>
  <time>2026-09-01T19:53:10Z</time>
  <course>182.88</course>
  <speed>0.0</speed>
  <fix>3d</fix>
</trkpt>
<trkpt lat="-27.2744394" lon="151.2900663">
  <ele>343.09</ele>
  <time>2026-09-01T19:53:10Z</time>
  <course>182.45</course>
  <speed>0.0282842712474619</speed>
  <fix>3d</fix>
</trkpt>
<trkpt lat="-27.2744394" lon="151.2900663">
  <ele>343.11</ele>
  <time>2026-09-01T19:53:10Z</time>
  <course>182.45</course>
  <speed>0.0282842712474619</speed>
  <fix>3d</fix>
</trkpt>
<trkpt lat="-27.2744396" lon="151.2900665">
  <ele>343.1</ele>
  <time>2026-09-01T19:53:10Z</time>
  <course>182.88</course>
  <speed>0.0</speed>
  <fix>3d</fix>
</trkpt>
<trkpt lat="-27.2744394" lon="151.2900663">
  <ele>343.12</ele>
  <time>2026-09-01T19:53:10Z</time>
  <course>182.45</course>
  <speed>0.0282842712474619</speed>
  <fix>3d</fix>
</trkpt>
<trkpt lat="-27.2744394" lon="151.2900663">
  <ele>343.15</ele>
  <time>2026-09-01T19:53:10Z</time>
  <course>182.44</course>
  <speed>0.0282842712474619</speed>
  <fix>3d</fix>
</trkpt>
<trkpt lat="-27.2744396" lon="151.2900665">
  <ele>343.12</ele>
  <time>2026-09-01T19:53:10Z</time>
  <course>183.65</course>
  <speed>0.0</speed>
  <fix>3d</fix>
</trkpt>
<trkpt lat="-27.2744394" lon="151.2900663">
  <ele>343.17</ele>
  <time>2026-09-01T19:53:10Z</time>
  <course>182.44</course>
  <speed>0.0282842712474619</speed>
  <fix>3d</fix>
</trkpt>
<trkpt lat="-27.2744394" lon="151.2900663">
  <ele>343.21</ele>
  <time>2026-09-01T19:53:10Z</time>
  <course>182.44</course>
  <speed>0.022360679774997897</speed>
  <fix>3d</fix>
</trkpt>
<trkpt lat="-27.2744396" lon="151.2900665">
  <ele>343.12</ele>
  <time>2026-09-01T19:53:10Z</time>
  <course>183.65</course>
  <speed>0.0</speed>
  <fix>3d</fix>
</trkpt>
<trkpt lat="-27.2744394" lon="151.2900663">
  <ele>343.21</ele>
  <time>2026-09-01T19:53:10Z</time>
  <course>182.44</course>
  <speed>0.022360679774997897</speed>
  <fix>3d</fix>
</trkpt>
<trkpt lat="-27.2744394" lon="151.2900663">
  <ele>343.31</ele>
  <time>2026-09-01T19:53:10Z</time>
  <course>182.46</course>
  <speed>0.02</speed>
  <fix>3d</fix>
</trkpt>
<trkpt lat="-27.2744396" lon="151.2900665">
  <ele>343.18</ele>
  <time>2026-09-01T19:53:10Z</time>
  <course>181.0</course>
  <speed>0.0</speed>
  <fix>3d</fix>
</trkpt>
<trkpt lat="-27.2744394" lon="151.2900663">
  <ele>343.36</ele>
  <time>2026-09-01T19:53:10Z</time>
  <course>182.46</course>
  <speed>0.022360679774997897</speed>
  <fix>3d</fix>
</trkpt>
<trkpt lat="-27.2744394" lon="151.2900663">
  <ele>343.48</ele>
  <time>2026-09-01T19:53:10Z</time>
  <course>182.48</course>
  <speed>0.044721359549995794</speed>
  <fix>3d</fix>
</trkpt>
<trkpt lat="-27.2744396" lon="151.2900665">
  <ele>343.18</ele>
  <time>2026-09-01T19:53:10Z</time>
  <course>181.0</course>
  <speed>0.0</speed>
  <fix>3d</fix>
</trkpt>
<trkpt lat="-27.2744394" lon="151.2900663">
  <ele>343.49</ele>
  <time>2026-09-01T19:53:10Z</time>
  <course>182.48</course>
  <speed>0.044721359549995794</speed>
  <fix>3d</fix>
</trkpt>
<trkpt lat="-27.2744395" lon="151.2900663">
  <ele>343.69</ele>
  <time>2026-09-01T19:53:10Z</time>
  <course>182.5</course>
  <speed>0.0824621125123532</speed>
  <fix>3d</fix>
</trkpt>
<trkpt lat="-27.2744396" lon="151.2900665">
  <ele>343.36</ele>
  <time>2026-09-01T19:53:10Z</time>
  <course>179.04</course>
  <speed>0.03</speed>
  <fix>3d</fix>
</trkpt>
<trkpt lat="-27.2744395" lon="151.2900663">
  <ele>343.75</ele>
  <time>2026-09-01T19:53:10Z</time>
  <course>182.5</course>
  <speed>0.09219544457292887</speed>
  <fix>3d</fix>
</trkpt>
<trkpt lat="-27.2744396" lon="151.2900663">
  <ele>343.93</ele>
  <time>2026-09-01T19:53:10Z</time>
  <course>182.5</course>
  <speed>0.12165525060596438</speed>
  <fix>3d</fix>
</trkpt>
<trkpt lat="-27.2744396" lon="151.2900665">
  <ele>343.36</ele>
  <time>2026-09-01T19:53:10Z</time>
  <course>179.04</course>
  <speed>0.03</speed>
  <fix>3d</fix>
</trkpt>
<trkpt lat="-27.2744396" lon="151.2900663">
  <ele>343.93</ele>
  <time>2026-09-01T19:53:10Z</time>
  <course>182.5</course>
  <speed>0.12165525060596438</speed>
  <fix>3d</fix>
</trkpt>
<trkpt lat="-27.2744398" lon="151.2900663">
  <ele>344.16</ele>
  <time>2026-09-01T19:53:10Z</time>
  <course>182.5</course>
  <speed>0.16124515496597097</speed>
  <fix>3d</fix>
</trkpt>
<trkpt lat="-27.2744397" lon="151.2900665">
  <ele>343.71</ele>
  <time>2026-09-01T19:53:10Z</time>
  <course>179.3</course>
  <speed>0.11</speed>
  <fix>3d</fix>
</trkpt>
<trkpt lat="-27.2744398" lon="151.2900663">
  <ele>344.17</ele>
  <time>2026-09-01T19:53:10Z</time>
  <course>182.5</course>
  <speed>0.16124515496597097</speed>
  <fix>3d</fix>
</trkpt>
<trkpt lat="-27.2744399" lon="151.2900663">
  <ele>344.39</ele>
  <time>2026-09-01T19:53:10Z</time>
  <course>182.48</course>
  <speed>0.2009975124224178</speed>
  <fix>3d</fix>
</trkpt>
<trkpt lat="-27.2744397" lon="151.2900665">
  <ele>343.71</ele>
  <time>2026-09-01T19:53:10Z</time>
  <course>179.3</course>
  <speed>0.11</speed>
  <fix>3d</fix>
</trkpt>
<trkpt lat="-27.27444" lon="151.2900663">
  <ele>344.45</ele>
  <time>2026-09-01T19:53:10Z</time>
  <course>182.48</course>
  <speed>0.2109502310972899</speed>
  <fix>3d</fix>
</trkpt>
<trkpt lat="-27.2744402" lon="151.2900663">
  <ele>344.62</ele>
  <time>2026-09-01T19:53:10Z</time>
  <course>182.46</course>
  <speed>0.24083189157584592</speed>
  <fix>3d</fix>
</trkpt>
<trkpt lat="-27.27444" lon="151.2900665">
  <ele>344.17</ele>
  <time>2026-09-01T19:53:10Z</time>
  <course>179.73</course>
  <speed>0.19</speed>
  <fix>3d</fix>
</trkpt>
<trkpt lat="-27.2744402" lon="151.2900663">
  <ele>344.68</ele>
  <time>2026-09-01T19:53:10Z</time>
  <course>182.45</course>
  <speed>0.25079872407968906</speed>
  <fix>3d</fix>
</trkpt>
<trkpt lat="-27.2744404" lon="151.2900663">
  <ele>344.85</ele>
  <time>2026-09-01T19:53:10Z</time>
  <course>182.44</course>
  <speed>0.280713376952364</speed>
  <fix>3d</fix>
</trkpt>
<trkpt lat="-27.27444" lon="151.2900665">
  <ele>344.17</ele>
  <time>2026-09-01T19:53:10Z</time>
  <course>179.73</course>
  <speed>0.19</speed>
  <fix>3d</fix>
</trkpt>
<trkpt lat="-27.2744405" lon="151.2900663">
  <ele>344.91</ele>
  <time>2026-09-01T19:53:10Z</time>
  <course>182.43</course>
  <speed>0.2906888370749727</speed>
  <fix>3d</fix>
</trkpt>
<trkpt lat="-27.2744407" lon="151.2900663">
  <ele>345.08</ele>
  <time>2026-09-01T19:53:10Z</time>
  <course>180.8</course>
  <speed>0.31064449134018135</speed>
  <fix>3d</fix>
</trkpt>
<trkpt lat="-27.2744404" lon="151.2900665">
  <ele>344.64</ele>
  <time>2026-09-01T19:53:10Z</time>
  <course>180.0</course>
  <speed>0.27</speed>
  <fix>3d</fix>
</trkpt>
<trkpt lat="-27.2744408" lon="151.2900663">
  <ele>345.14</ele>
  <time>2026-09-01T19:53:10Z</time>
  <course>181.08</course>
  <speed>0.32062439083762795</speed>
  <fix>3d</fix>
</trkpt>
<trkpt lat="-27.274441" lon="151.2900663">
  <ele>345.3</ele>
  <time>2026-09-01T19:53:10Z</time>
  <course>181.67</course>
  <speed>0.3505709628591621</speed>
  <fix>3d</fix>
</trkpt>
<trkpt lat="-27.2744404" lon="151.2900665">
  <ele>344.64</ele>
  <time>2026-09-01T19:53:10Z</time>
  <course>180.0</course>
  <speed>0.27</speed>
  <fix>3d</fix>
</trkpt>
<trkpt lat="-27.2744411" lon="151.2900663">
  <ele>345.36</ele>
  <time>2026-09-01T19:53:10Z</time>
  <course>181.82</course>
  <speed>0.3505709628591621</speed>
  <fix>3d</fix>
</trkpt>
<trkpt lat="-27.2744414" lon="151.2900663">
  <ele>345.51</ele>
  <time>2026-09-01T19:53:10Z</time>
  <course>182.04</course>
  <speed>0.3705401462729781</speed>
  <fix>3d</fix>
</trkpt>
<trkpt lat="-27.274441" lon="151.2900665">
  <ele>345.09</ele>
  <time>2026-09-01T19:53:10Z</time>
  <course>180.18</course>
  <speed>0.34</speed>
  <fix>3d</fix>
</trkpt>
<trkpt lat="-27.2744414" lon="151.2900663">
  <ele>345.52</ele>
  <time>2026-09-01T19:53:10Z</time>
  <course>182.04</course>
  <speed>0.38052595180880894</speed>
  <fix>3d</fix>
</trkpt>
<trkpt lat="-27.2744418" lon="151.2900663">
  <ele>345.71</ele>
  <time>2026-09-01T19:53:10Z</time>
  <course>181.89</course>
  <speed>0.4004996878900158</speed>
  <fix>3d</fix>
</trkpt>
<trkpt lat="-27.274441" lon="151.2900665">
  <ele>345.09</ele>
  <time>2026-09-01T19:53:10Z</time>
  <course>180.18</course>
  <speed>0.34</speed>
  <fix>3d</fix>
</trkpt>
<trkpt lat="-27.2744418" lon="151.2900663">
  <ele>345.72</ele>
  <time>2026-09-01T19:53:10Z</time>
  <course>181.87</course>
  <speed>0.4004996878900158</speed>
  <fix>3d</fix>
</trkpt>
<trkpt lat="-27.2744422" lon="151.2900663">
  <ele>345.91</ele>
  <time>2026-09-01T19:53:10Z</time>
  <course>181.42</course>
  <speed>0.4204759208325728</speed>
  <fix>3d</fix>
</trkpt>
<trkpt lat="-27.2744417" lon="151.2900665">
  <ele>345.52</ele>
  <time>2026-09-01T19:53:10Z</time>
  <course>180.25</course>
  <speed>0.4</speed>
  <fix>3d</fix>
</trkpt>
<trkpt lat="-27.2744423" lon="151.2900663">
  <ele>345.96</ele>
  <time>2026-09-01T19:53:10Z</time>
  <course>181.27</course>
  <speed>0.4304648650006177</speed>
  <fix>3d</fix>
</trkpt>
<trkpt lat="-27.2744426" lon="151.2900663">
  <ele>346.09</ele>
  <time>2026-09-01T19:53:10Z</time>
  <course>180.87</course>
  <speed>0.44045431091090476</speed>
  <fix>3d</fix>
</trkpt>
<trkpt lat="-27.2744417" lon="151.2900665">
  <ele>345.52</ele>
  <time>2026-09-01T19:53:10Z</time>
  <course>180.25</course>
  <speed>0.4</speed>
  <fix>3d</fix>
</trkpt>
<trkpt lat="-27.2744427" lon="151.2900663">
  <ele>346.14</ele>
  <time>2026-09-01T19:53:10Z</time>
  <course>180.72</course>
  <speed>0.45044422518220834</speed>
  <fix>3d</fix>
</trkpt>
<trkpt lat="-27.274443" lon="151.2900663">
  <ele>346.26</ele>
  <time>2026-09-01T19:53:10Z</time>
  <course>180.37</course>
  <speed>0.46010868281309364</speed>
  <fix>3d</fix>
</trkpt>
<trkpt lat="-27.2744425" lon="151.2900665">
  <ele>345.91</ele>
  <time>2026-09-01T19:53:10Z</time>
  <course>180.16</course>
  <speed>0.45</speed>
  <fix>3d</fix>
</trkpt>
<trkpt lat="-27.2744431" lon="151.2900663">
  <ele>346.31</ele>
  <time>2026-09-01T19:53:10Z</time>
  <course>180.26</course>
  <speed>0.46010868281309364</speed>
  <fix>3d</fix>
</trkpt>
<trkpt lat="-27.2744435" lon="151.2900663">
  <ele>346.43</ele>
  <time>2026-09-01T19:53:10Z</time>
  <course>180.01</course>
  <speed>0.47010637094172636</speed>
  <fix>3d</fix>
</trkpt>
<trkpt lat="-27.2744425" lon="151.2900665">
  <ele>345.91</ele>
  <time>2026-09-01T19:53:10Z</time>
  <course>180.16</course>
  <speed>0.45</speed>
  <fix>3d</fix>
</trkpt>
<trkpt lat="-27.2744435" lon="151.2900663">
  <ele>346.44</ele>
  <time>2026-09-01T19:53:10Z</time>
  <course>180.01</course>
  <speed>0.47010637094172636</speed>
  <fix>3d</fix>
</trkpt>
<trkpt lat="-27.2744439" lon="151.2900663">
  <ele>346.59</ele>
  <time>2026-09-01T19:53:10Z</time>
  <course>179.79</course>
  <speed>0.4901020301937138</speed>
  <fix>3d</fix>
</trkpt>
<trkpt lat="-27.2744433" lon="151.2900665">
  <ele>346.28</ele>
  <time>2026-09-01T19:53:10Z</time>
  <course>179.94</course>
  <speed>0.48</speed>
  <fix>3d</fix>
</trkpt>
<trkpt lat="-27.2744441" lon="151.2900663">
  <ele>346.65</ele>
  <time>2026-09-01T19:53:10Z</time>
  <course>179.74</course>
  <speed>0.4901020301937138</speed>
  <fix>3d</fix>
</trkpt>
<trkpt lat="-27.2744444" lon="151.2900663">
  <ele>346.74</ele>
  <time>2026-09-01T19:53:10Z</time>
  <course>179.71</course>
  <speed>0.5000999900019995</speed>
  <fix>3d</fix>
</trkpt>
<trkpt lat="-27.2744433" lon="151.2900665">
  <ele>346.28</ele>
  <time>2026-09-01T19:53:10Z</time>
  <course>179.94</course>
  <speed>0.48</speed>
  <fix>3d</fix>
</trkpt>
<trkpt lat="-27.2744445" lon="151.2900663">
  <ele>346.78</ele>
  <time>2026-09-01T19:53:10Z</time>
  <course>179.71</course>
  <speed>0.5000999900019995</speed>
  <fix>3d</fix>
</trkpt>
<trkpt lat="-27.2744449" lon="151.2900663">
  <ele>346.89</ele>
  <time>2026-09-01T19:53:10Z</time>
  <course>179.73</course>
  <speed>0.510098029794274</speed>
  <fix>3d</fix>
</trkpt>
<trkpt lat="-27.2744442" lon="151.2900665">
  <ele>346.6</ele>
  <time>2026-09-01T19:53:10Z</time>
  <course>179.64</course>
  <speed>0.51</speed>
  <fix>3d</fix>
</trkpt>
<trkpt lat="-27.274445" lon="151.2900663">
  <ele>346.92</ele>
  <time>2026-09-01T19:53:10Z</time>
  <course>179.75</course>
  <speed>0.510098029794274</speed>
  <fix>3d</fix>
</trkpt>
<trkpt lat="-27.2744454" lon="151.2900663">
  <ele>347.03</ele>
  <time>2026-09-01T19:53:10Z</time>
  <course>179.83</course>
  <speed>0.5200961449578337</speed>
  <fix>3d</fix>
</trkpt>
<trkpt lat="-27.2744442" lon="151.2900665">
  <ele>346.6</ele>
  <time>2026-09-01T19:53:10Z</time>
  <course>179.64</course>
  <speed>0.51</speed>
  <fix>3d</fix>
</trkpt>
<trkpt lat="-27.2744455" lon="151.2900663">
  <ele>347.06</ele>
  <time>2026-09-01T19:53:10Z</time>
  <course>179.86</course>
  <speed>0.5200961449578337</speed>
  <fix>3d</fix>
</trkpt>
<trkpt lat="-27.2744459" lon="151.2900663">
  <ele>347.16</ele>
  <time>2026-09-01T19:53:10Z</time>
  <course>179.95</course>
  <speed>0.5300943312279428</speed>
  <fix>3d</fix>
</trkpt>
<trkpt lat="-27.2744452" lon="151.2900665">
  <ele>346.89</ele>
  <time>2026-09-01T19:53:10Z</time>
  <course>179.36</course>
  <speed>0.54</speed>
  <fix>3d</fix>
</trkpt>
<trkpt lat="-27.274446" lon="151.2900663">
  <ele>347.2</ele>
  <time>2026-09-01T19:53:10Z</time>
  <course>179.99</course>
  <speed>0.5300943312279428</speed>
  <fix>3d</fix>
</trkpt>
<trkpt lat="-27.2744464" lon="151.2900663">
  <ele>347.29</ele>
  <time>2026-09-01T19:53:10Z</time>
  <course>180.09</course>
  <speed>0.540092584655631</speed>
  <fix>3d</fix>
</trkpt>
<trkpt lat="-27.2744452" lon="151.2900665">
  <ele>346.89</ele>
  <time>2026-09-01T19:53:10Z</time>
  <course>179.36</course>
  <speed>0.54</speed>
  <fix>3d</fix>
</trkpt>
<trkpt lat="-27.2744464" lon="151.2900663">
  <ele>347.3</ele>
  <time>2026-09-01T19:53:10Z</time>
  <course>180.1</course>
  <speed>0.540092584655631</speed>
  <fix>3d</fix>
</trkpt>
<trkpt lat="-27.2744469" lon="151.2900663">
  <ele>347.43</ele>
  <time>2026-09-01T19:53:10Z</time>
  <course>180.2</course>
  <speed>0.55</speed>
  <fix>3d</fix>
</trkpt>
<trkpt lat="-27.2744462" lon="151.2900665">
  <ele>347.16</ele>
  <time>2026-09-01T19:53:10Z</time>
  <course>179.11</course>
  <speed>0.56</speed>
  <fix>3d</fix>
</trkpt>
<trkpt lat="-27.2744469" lon="151.2900663">
  <ele>347.43</ele>
  <time>2026-09-01T19:53:10Z</time>
  <course>180.2</course>
  <speed>0.55</speed>
  <fix>3d</fix>
</trkpt>
<trkpt lat="-27.2744474" lon="151.2900663">
  <ele>347.56</ele>
  <time>2026-09-01T19:53:10Z</time>
  <course>180.27</course>
  <speed>0.56</speed>
  <fix>3d</fix>
</trkpt>
<trkpt lat="-27.2744462" lon="151.2900665">
  <ele>347.16</ele>
  <time>2026-09-01T19:53:10Z</time>
  <course>179.11</course>
  <speed>0.56</speed>
  <fix>3d</fix>
</trkpt>
<trkpt lat="-27.2744474" lon="151.2900663">
  <ele>347.56</ele>
  <time>2026-09-01T19:53:10Z</time>
  <course>180.27</course>
  <speed>0.56</speed>
  <fix>3d</fix>
</trkpt>
<trkpt lat="-27.2744479" lon="151.2900663">
  <ele>347.69</ele>
  <time>2026-09-01T19:53:10Z</time>
  <course>180.3</course>
  <speed>0.57</speed>
  <fix>3d</fix>
</trkpt>
<trkpt lat="-27.2744472" lon="151.2900665">
  <ele>347.43</ele>
  <time>2026-09-01T19:53:10Z</time>
  <course>178.9</course>
  <speed>0.58</speed>
  <fix>3d</fix>
</trkpt>
<trkpt lat="-27.274448" lon="151.2900663">
  <ele>347.69</ele>
  <time>2026-09-01T19:53:10Z</time>
  <course>180.3</course>
  <speed>0.57</speed>
  <fix>3d</fix>
</trkpt>
<trkpt lat="-27.2744485" lon="151.2900663">
  <ele>347.82</ele>
  <time>2026-09-01T19:53:10Z</time>
  <course>180.31</course>
  <speed>0.58</speed>
  <fix>3d</fix>
</trkpt>
<trkpt lat="-27.2744472" lon="151.2900665">
  <ele>347.43</ele>
  <time>2026-09-01T19:53:10Z</time>
  <course>178.9</course>
  <speed>0.58</speed>
  <fix>3d</fix>
</trkpt>
<trkpt lat="-27.2744486" lon="151.2900663">
  <ele>347.86</ele>
  <time>2026-09-01T19:53:10Z</time>
  <course>180.31</course>
  <speed>0.58</speed>
  <fix>3d</fix>
</trkpt>
<trkpt lat="-27.274449" lon="151.2900663">
  <ele>347.96</ele>
  <time>2026-09-01T19:53:10Z</time>
  <course>180.28</course>
  <speed>0.59</speed>
  <fix>3d</fix>
</trkpt>
<trkpt lat="-27.2744482" lon="151.2900665">
  <ele>347.69</ele>
  <time>2026-09-01T19:53:10Z</time>
  <course>178.72</course>
  <speed>0.6</speed>
  <fix>3d</fix>
</trkpt>
<trkpt lat="-27.2744492" lon="151.2900663">
  <ele>347.99</ele>
  <time>2026-09-01T19:53:10Z</time>
  <course>180.28</course>
  <speed>0.59</speed>
  <fix>3d</fix>
</trkpt>
<trkpt lat="-27.2744496" lon="151.2900663">
  <ele>348.1</ele>
  <time>2026-09-01T19:53:10Z</time>
  <course>180.25</course>
  <speed>0.59</speed>
  <fix>3d</fix>
</trkpt>
<trkpt lat="-27.2744482" lon="151.2900665">
  <ele>347.69</ele>
  <time>2026-09-01T19:53:10Z</time>
  <course>178.72</course>
  <speed>0.6</speed>
  <fix>3d</fix>
</trkpt>
<trkpt lat="-27.2744497" lon="151.2900663">
  <ele>348.13</ele>
  <time>2026-09-01T19:53:10Z</time>
  <course>180.24</course>
  <speed>0.6</speed>
  <fix>3d</fix>
</trkpt>
<trkpt lat="-27.2744501" lon="151.2900664">
  <ele>348.23</ele>
  <time>2026-09-01T19:53:10Z</time>
  <course>180.21</course>
  <speed>0.6</speed>
  <fix>3d</fix>
</trkpt>
<trkpt lat="-27.2744493" lon="151.2900665">
  <ele>347.96</ele>
  <time>2026-09-01T19:53:10Z</time>
  <course>178.57</course>
  <speed>0.62</speed>
  <fix>3d</fix>
</trkpt>
<trkpt lat="-27.2744503" lon="151.2900664">
  <ele>348.27</ele>
  <time>2026-09-01T19:53:10Z</time>
  <course>180.2</course>
  <speed>0.61</speed>
  <fix>3d</fix>
</trkpt>
<trkpt lat="-27.2744507" lon="151.2900664">
  <ele>348.38</ele>
  <time>2026-09-01T19:53:10Z</time>
  <course>180.18</course>
  <speed>0.61</speed>
  <fix>3d</fix>
</trkpt>
<trkpt lat="-27.2744493" lon="151.2900665">
  <ele>347.96</ele>
  <time>2026-09-01T19:53:10Z</time>
  <course>178.57</course>
  <speed>0.62</speed>
  <fix>3d</fix>
</trkpt>
<trkpt lat="-27.2744509" lon="151.2900664">
  <ele>348.41</ele>
  <time>2026-09-01T19:53:10Z</time>
  <course>180.18</course>
  <speed>0.62</speed>
  <fix>3d</fix>
</trkpt>
<trkpt lat="-27.2744513" lon="151.2900664">
  <ele>348.52</ele>
  <time>2026-09-01T19:53:10Z</time>
  <course>180.16</course>
  <speed>0.62</speed>
  <fix>3d</fix>
</trkpt>
<trkpt lat="-27.2744505" lon="151.2900665">
  <ele>348.23</ele>
  <time>2026-09-01T19:53:10Z</time>
  <course>178.42</course>
  <speed>0.64</speed>
  <fix>3d</fix>
</trkpt>
<trkpt lat="-27.2744513" lon="151.2900664">
  <ele>348.52</ele>
  <time>2026-09-01T19:53:10Z</time>
  <course>180.16</course>
  <speed>0.62</speed>
  <fix>3d</fix>
</trkpt>
<trkpt lat="-27.2744519" lon="151.2900664">
  <ele>348.66</ele>
  <time>2026-09-01T19:53:10Z</time>
  <course>180.15</course>
  <speed>0.63</speed>
  <fix>3d</fix>
</trkpt>
<trkpt lat="-27.2744505" lon="151.2900665">
  <ele>348.23</ele>
  <time>2026-09-01T19:53:10Z</time>
  <course>178.42</course>
  <speed>0.64</speed>
  <fix>3d</fix>
</trkpt>
<trkpt lat="-27.274452" lon="151.2900664">
  <ele>348.69</ele>
  <time>2026-09-01T19:53:10Z</time>
  <course>180.14</course>
  <speed>0.64</speed>
  <fix>3d</fix>
</trkpt>
<trkpt lat="-27.2744525" lon="151.2900664">
  <ele>348.8</ele>
  <time>2026-09-01T19:53:10Z</time>
  <course>180.13</course>
  <speed>0.64</speed>
  <fix>3d</fix>
</trkpt>
<trkpt lat="-27.2744517" lon="151.2900666">
  <ele>348.51</ele>
  <time>2026-09-01T19:53:10Z</time>
  <course>178.27</course>
  <speed>0.66</speed>
  <fix>3d</fix>
</trkpt>
<trkpt lat="-27.2744525" lon="151.2900664">
  <ele>348.81</ele>
  <time>2026-09-01T19:53:10Z</time>
  <course>180.13</course>
  <speed>0.64</speed>
  <fix>3d</fix>
</trkpt>
<trkpt lat="-27.2744531" lon="151.2900664">
  <ele>348.95</ele>
  <time>2026-09-01T19:53:10Z</time>
  <course>180.13</course>
  <speed>0.65</speed>
  <fix>3d</fix>
</trkpt>
<trkpt lat="-27.2744517" lon="151.2900666">
  <ele>348.51</ele>
  <time>2026-09-01T19:53:10Z</time>
  <course>178.27</course>
  <speed>0.66</speed>
  <fix>3d</fix>
</trkpt>
<trkpt lat="-27.2744531" lon="151.2900664">
  <ele>348.96</ele>
  <time>2026-09-01T19:53:10Z</time>
  <course>180.13</course>
  <speed>0.65</speed>
  <fix>3d</fix>
</trkpt>
<trkpt lat="-27.2744537" lon="151.2900664">
  <ele>349.1</ele>
  <time>2026-09-01T19:53:10Z</time>
  <course>180.13</course>
  <speed>0.66</speed>
  <fix>3d</fix>
</trkpt>
<trkpt lat="-27.2744529" lon="151.2900666">
  <ele>348.8</ele>
  <time>2026-09-01T19:53:10Z</time>
  <course>178.14</course>
  <speed>0.68</speed>
  <fix>3d</fix>
</trkpt>
<trkpt lat="-27.2744539" lon="151.2900664">
  <ele>349.13</ele>
  <time>2026-09-01T19:53:10Z</time>
  <course>180.13</course>
  <speed>0.67</speed>
  <fix>3d</fix>
</trkpt>
<trkpt lat="-27.2744544" lon="151.2900664">
  <ele>349.24</ele>
  <time>2026-09-01T19:53:10Z</time>
  <course>180.14</course>
  <speed>0.67</speed>
  <fix>3d</fix>
</trkpt>
<trkpt lat="-27.2744529" lon="151.2900666">
  <ele>348.8</ele>
  <time>2026-09-01T19:53:10Z</time>
  <course>178.14</course>
  <speed>0.68</speed>
  <fix>3d</fix>
</trkpt>
<trkpt lat="-27.2744545" lon="151.2900664">
  <ele>349.28</ele>
  <time>2026-09-01T19:53:10Z</time>
  <course>180.14</course>
  <speed>0.68</speed>
  <fix>3d</fix>
</trkpt>
<trkpt lat="-27.274455" lon="151.2900665">
  <ele>349.39</ele>
  <time>2026-09-01T19:53:10Z</time>
  <course>180.14</course>
  <speed>0.68</speed>
  <fix>3d</fix>
</trkpt>
<trkpt lat="-27.2744541" lon="151.2900666">
  <ele>349.09</ele>
  <time>2026-09-01T19:53:10Z</time>
  <course>178.06</course>
  <speed>0.7</speed>
  <fix>3d</fix>
</trkpt>
<trkpt lat="-27.2744552" lon="151.2900665">
  <ele>349.43</ele>
  <time>2026-09-01T19:53:10Z</time>
  <course>180.14</course>
  <speed>0.69</speed>
  <fix>3d</fix>
</trkpt>
<trkpt lat="-27.2744556" lon="151.2900665">
  <ele>349.54</ele>
  <time>2026-09-01T19:53:10Z</time>
  <course>180.15</course>
  <speed>0.69</speed>
  <fix>3d</fix>
</trkpt>
<trkpt lat="-27.2744541" lon="151.2900666">
  <ele>349.09</ele>
  <time>2026-09-01T19:53:10Z</time>
  <course>178.06</course>
  <speed>0.7</speed>
  <fix>3d</fix>
</trkpt>
<trkpt lat="-27.2744558" lon="151.2900665">
  <ele>349.58</ele>
  <time>2026-09-01T19:53:10Z</time>
  <course>180.15</course>
  <speed>0.7</speed>
  <fix>3d</fix>
</trkpt>
<trkpt lat="-27.2744563" lon="151.2900665">
  <ele>349.69</ele>
  <time>2026-09-01T19:53:10Z</time>
  <course>180.15</course>
  <speed>0.7</speed>
  <fix>3d</fix>
</trkpt>
<trkpt lat="-27.2744554" lon="151.2900666">
  <ele>349.38</ele>
  <time>2026-09-01T19:53:10Z</time>
  <course>177.99</course>
  <speed>0.72</speed>
  <fix>3d</fix>
</trkpt>
<trkpt lat="-27.2744565" lon="151.2900665">
  <ele>349.73</ele>
  <time>2026-09-01T19:53:10Z</time>
  <course>180.15</course>
  <speed>0.71</speed>
  <fix>3d</fix>
</trkpt>
<trkpt lat="-27.274457" lon="151.2900665">
  <ele>349.84</ele>
  <time>2026-09-01T19:53:10Z</time>
  <course>180.16</course>
  <speed>0.71</speed>
  <fix>3d</fix>
</trkpt>
<trkpt lat="-27.2744554" lon="151.2900666">
  <ele>349.38</ele>
  <time>2026-09-01T19:53:10Z</time>
  <course>177.99</course>
  <speed>0.72</speed>
  <fix>3d</fix>
</trkpt>
<trkpt lat="-27.2744572" lon="151.2900665">
  <ele>349.88</ele>
  <time>2026-09-01T19:53:10Z</time>
  <course>180.16</course>
  <speed>0.72</speed>
  <fix>3d</fix>
</trkpt>
<trkpt lat="-27.2744577" lon="151.2900665">
  <ele>349.99</ele>
  <time>2026-09-01T19:53:10Z</time>
  <course>180.15</course>
  <speed>0.72</speed>
  <fix>3d</fix>
</trkpt>
<trkpt lat="-27.2744567" lon="151.2900667">
  <ele>349.67</ele>
  <time>2026-09-01T19:53:10Z</time>
  <course>177.92</course>
  <speed>0.74</speed>
  <fix>3d</fix>
</trkpt>
<trkpt lat="-27.2744578" lon="151.2900665">
  <ele>350.02</ele>
  <time>2026-09-01T19:53:10Z</time>
  <course>180.15</course>
  <speed>0.73</speed>
  <fix>3d</fix>
</trkpt>
<trkpt lat="-27.2744583" lon="151.2900665">
  <ele>350.13</ele>
  <time>2026-09-01T19:53:10Z</time>
  <course>180.16</course>
  <speed>0.73</speed>
  <fix>3d</fix>
</trkpt>
<trkpt lat="-27.2744567" lon="151.2900667">
  <ele>349.67</ele>
  <time>2026-09-01T19:53:10Z</time>
  <course>177.92</course>
  <speed>0.74</speed>
  <fix>3d</fix>
</trkpt>
<trkpt lat="-27.2744585" lon="151.2900666">
  <ele>350.17</ele>
  <time>2026-09-01T19:53:10Z</time>
  <course>180.16</course>
  <speed>0.74</speed>
  <fix>3d</fix>
</trkpt>
<trkpt lat="-27.274459" lon="151.2900666">
  <ele>350.28</ele>
  <time>2026-09-01T19:53:10Z</time>
  <course>180.15</course>
  <speed>0.74</speed>
  <fix>3d</fix>
</trkpt>
<trkpt lat="-27.274458" lon="151.2900668">
  <ele>349.97</ele>
  <time>2026-09-01T19:53:10Z</time>
  <course>177.87</course>
  <speed>0.76</speed>
  <fix>3d</fix>
</trkpt>
<trkpt lat="-27.2744593" lon="151.2900666">
  <ele>350.32</ele>
  <time>2026-09-01T19:53:10Z</time>
  <course>180.15</course>
  <speed>0.75</speed>
  <fix>3d</fix>
</trkpt>
<trkpt lat="-27.2744597" lon="151.2900666">
  <ele>350.42</ele>
  <time>2026-09-01T19:53:10Z</time>
  <course>180.15</course>
  <speed>0.75</speed>
  <fix>3d</fix>
</trkpt>
<trkpt lat="-27.274458" lon="151.2900668">
  <ele>349.97</ele>
  <time>2026-09-01T19:53:10Z</time>
  <course>177.87</course>
  <speed>0.76</speed>
  <fix>3d</fix>
</trkpt>
<trkpt lat="-27.2744599" lon="151.2900666">
  <ele>350.46</ele>
  <time>2026-09-01T19:53:10Z</time>
  <course>180.15</course>
  <speed>0.76</speed>
  <fix>3d</fix>
</trkpt>
<trkpt lat="-27.2744605" lon="151.2900666">
  <ele>350.57</ele>
  <time>2026-09-01T19:53:10Z</time>
  <course>180.14</course>
  <speed>0.76</speed>
  <fix>3d</fix>
</trkpt>
<trkpt lat="-27.2744595" lon="151.2900668">
  <ele>350.26</ele>
  <time>2026-09-01T19:53:10Z</time>
  <course>177.81</course>
  <speed>0.78</speed>
  <fix>3d</fix>
</trkpt>
<trkpt lat="-27.2744605" lon="151.2900666">
  <ele>350.57</ele>
  <time>2026-09-01T19:53:10Z</time>
  <course>180.14</course>
  <speed>0.76</speed>
  <fix>3d</fix>
</trkpt>
<trkpt lat="-27.2744612" lon="151.2900667">
  <ele>350.71</ele>
  <time>2026-09-01T19:53:10Z</time>
  <course>180.14</course>
  <speed>0.77</speed>
  <fix>3d</fix>
</trkpt>
<trkpt lat="-27.2744595" lon="151.2900668">
  <ele>350.26</ele>
  <time>2026-09-01T19:53:10Z</time>
  <course>177.81</course>
  <speed>0.78</speed>
  <fix>3d</fix>
</trkpt>
<trkpt lat="-27.2744614" lon="151.2900667">
  <ele>350.75</ele>
  <time>2026-09-01T19:53:10Z</time>
  <course>180.14</course>
  <speed>0.78</speed>
  <fix>3d</fix>
</trkpt>
<trkpt lat="-27.2744619" lon="151.2900667">
  <ele>350.85</ele>
  <time>2026-09-01T19:53:10Z</time>
  <course>180.14</course>
  <speed>0.78</speed>
  <fix>3d</fix>
</trkpt>
<trkpt lat="-27.2744609" lon="151.2900669">
  <ele>350.54</ele>
  <time>2026-09-01T19:53:10Z</time>
  <course>177.74</course>
  <speed>0.8</speed>
  <fix>3d</fix>
</trkpt>
<trkpt lat="-27.2744621" lon="151.2900667">
  <ele>350.9</ele>
  <time>2026-09-01T19:53:10Z</time>
  <course>180.14</course>
  <speed>0.79</speed>
  <fix>3d</fix>
</trkpt>
<trkpt lat="-27.2744627" lon="151.2900667">
  <ele>351.0</ele>
  <time>2026-09-01T19:53:10Z</time>
  <course>180.15</course>
  <speed>0.79</speed>
  <fix>3d</fix>
</trkpt>
<trkpt lat="-27.2744609" lon="151.2900669">
  <ele>350.54</ele>
  <time>2026-09-01T19:53:10Z</time>
  <course>177.74</course>
  <speed>0.8</speed>
  <fix>3d</fix>
</trkpt>
<trkpt lat="-27.2744629" lon="151.2900667">
  <ele>351.04</ele>
  <time>2026-09-01T19:53:10Z</time>
  <course>180.15</course>
  <speed>0.8</speed>
  <fix>3d</fix>
</trkpt>
<trkpt lat="-27.2744634" lon="151.2900667">
  <ele>351.14</ele>
  <time>2026-09-01T19:53:10Z</time>
  <course>180.14</course>
  <speed>0.8</speed>
  <fix>3d</fix>
</trkpt>
<trkpt lat="-27.2744623" lon="151.290067">
  <ele>350.83</ele>
  <time>2026-09-01T19:53:10Z</time>
  <course>177.68</course>
  <speed>0.81</speed>
  <fix>3d</fix>
</trkpt>
<trkpt lat="-27.2744637" lon="151.2900668">
  <ele>351.18</ele>
  <time>2026-09-01T19:53:10Z</time>
  <course>180.14</course>
  <speed>0.81</speed>
  <fix>3d</fix>
</trkpt>
<trkpt lat="-27.2744642" lon="151.2900668">
  <ele>351.28</ele>
  <time>2026-09-01T19:53:10Z</time>
  <course>180.14</course>
  <speed>0.81</speed>
  <fix>3d</fix>
</trkpt>
<trkpt lat="-27.2744623" lon="151.290067">
  <ele>350.83</ele>
  <time>2026-09-01T19:53:10Z</time>
  <course>177.68</course>
  <speed>0.81</speed>
  <fix>3d</fix>
</trkpt>
<trkpt lat="-27.2744644" lon="151.2900668">
  <ele>351.31</ele>
  <time>2026-09-01T19:53:10Z</time>
  <course>180.14</course>
  <speed>0.81</speed>
  <fix>3d</fix>
</trkpt>
<trkpt lat="-27.274465" lon="151.2900668">
  <ele>351.42</ele>
  <time>2026-09-01T19:53:10Z</time>
  <course>180.14</course>
  <speed>0.82</speed>
  <fix>3d</fix>
</trkpt>
<trkpt lat="-27.2744638" lon="151.290067">
  <ele>351.12</ele>
  <time>2026-09-01T19:53:10Z</time>
  <course>177.65</course>
  <speed>0.83</speed>
  <fix>3d</fix>
</trkpt>
<trkpt lat="-27.2744652" lon="151.2900668">
  <ele>351.45</ele>
  <time>2026-09-01T19:53:10Z</time>
  <course>180.14</course>
  <speed>0.82</speed>
  <fix>3d</fix>
</trkpt>
<trkpt lat="-27.2744657" lon="151.2900669">
  <ele>351.56</ele>
  <time>2026-09-01T19:53:10Z</time>
  <course>180.15</course>
  <speed>0.8300602387778854</speed>
  <fix>3d</fix>
</trkpt>
<trkpt lat="-27.2744638" lon="151.290067">
  <ele>351.12</ele>
  <time>2026-09-01T19:53:10Z</time>
  <course>177.65</course>
  <speed>0.83</speed>
  <fix>3d</fix>
</trkpt>
<trkpt lat="-27.2744659" lon="151.2900669">
  <ele>351.6</ele>
  <time>2026-09-01T19:53:10Z</time>
  <course>180.15</course>
  <speed>0.8300602387778854</speed>
  <fix>3d</fix>
</trkpt>
<trkpt lat="-27.2744665" lon="151.2900669">
  <ele>351.7</ele>
  <time>2026-09-01T19:53:10Z</time>
  <course>180.15</course>
  <speed>0.8400595217006948</speed>
  <fix>3d</fix>
</trkpt>
<trkpt lat="-27.2744653" lon="151.2900671">
  <ele>351.4</ele>
  <time>2026-09-01T19:53:10Z</time>
  <course>177.62</course>
  <speed>0.85</speed>
  <fix>3d</fix>
</trkpt>
<trkpt lat="-27.2744667" lon="151.2900669">
  <ele>351.74</ele>
  <time>2026-09-01T19:53:10Z</time>
  <course>180.15</course>
  <speed>0.8400595217006948</speed>
  <fix>3d</fix>
</trkpt>
<trkpt lat="-27.2744673" lon="151.2900669">
  <ele>351.84</ele>
  <time>2026-09-01T19:53:10Z</time>
  <course>180.15</course>
  <speed>0.8500588214941364</speed>
  <fix>3d</fix>
</trkpt>
<trkpt lat="-27.2744653" lon="151.2900671">
  <ele>351.4</ele>
  <time>2026-09-01T19:53:10Z</time>
  <course>177.62</course>
  <speed>0.85</speed>
  <fix>3d</fix>
</trkpt>
<trkpt lat="-27.2744673" lon="151.2900669">
  <ele>351.85</ele>
  <time>2026-09-01T19:53:10Z</time>
  <course>180.15</course>
  <speed>0.8500588214941364</speed>
  <fix>3d</fix>
</trkpt>
<trkpt lat="-27.2744681" lon="151.290067">
  <ele>351.98</ele>
  <time>2026-09-01T19:53:10Z</time>
  <course>180.15</course>
  <speed>0.8600581375697809</speed>
  <fix>3d</fix>
</trkpt>
<trkpt lat="-27.2744669" lon="151.2900672">
  <ele>351.68</ele>
  <time>2026-09-01T19:53:10Z</time>
  <course>177.6</course>
  <speed>0.87</speed>
  <fix>3d</fix>
</trkpt>
<trkpt lat="-27.2744682" lon="151.290067">
  <ele>351.99</ele>
  <time>2026-09-01T19:53:10Z</time>
  <course>180.15</course>
  <speed>0.8600581375697809</speed>
  <fix>3d</fix>
</trkpt>
<trkpt lat="-27.2744689" lon="151.290067">
  <ele>352.12</ele>
  <time>2026-09-01T19:53:10Z</time>
  <course>180.16</course>
  <speed>0.8700574693662483</speed>
  <fix>3d</fix>
</trkpt>
<trkpt lat="-27.2744669" lon="151.2900672">
  <ele>351.68</ele>
  <time>2026-09-01T19:53:10Z</time>
  <course>177.6</course>
  <speed>0.87</speed>
  <fix>3d</fix>
</trkpt>
<trkpt lat="-27.2744691" lon="151.290067">
  <ele>352.16</ele>
  <time>2026-09-01T19:53:10Z</time>
  <course>180.16</course>
  <speed>0.8700574693662483</speed>
  <fix>3d</fix>
</trkpt>
<trkpt lat="-27.2744697" lon="151.290067">
  <ele>352.27</ele>
  <time>2026-09-01T19:53:10Z</time>
  <course>180.15</course>
  <speed>0.880056816347672</speed>
  <fix>3d</fix>
</trkpt>
<trkpt lat="-27.2744685" lon="151.2900673">
  <ele>351.96</ele>
  <time>2026-09-01T19:53:10Z</time>
  <course>177.58</course>
  <speed>0.89</speed>
  <fix>3d</fix>
</trkpt>
<trkpt lat="-27.27447" lon="151.2900671">
  <ele>352.31</ele>
  <time>2026-09-01T19:53:10Z</time>
  <course>180.15</course>
  <speed>0.880056816347672</speed>
  <fix>3d</fix>
</trkpt>
<trkpt lat="-27.2744706" lon="151.2900671">
  <ele>352.41</ele>
  <time>2026-09-01T19:53:10Z</time>
  <course>180.16</course>
  <speed>0.8900561780022652</speed>
  <fix>3d</fix>
</trkpt>
<trkpt lat="-27.2744685" lon="151.2900673">
  <ele>351.96</ele>
  <time>2026-09-01T19:53:10Z</time>
  <course>177.58</course>
  <speed>0.89</speed>
  <fix>3d</fix>
</trkpt>
<trkpt lat="-27.2744708" lon="151.2900671">
  <ele>352.45</ele>
  <time>2026-09-01T19:53:10Z</time>
  <course>180.16</course>
  <speed>0.8900561780022652</speed>
  <fix>3d</fix>
</trkpt>
<trkpt lat="-27.2744714" lon="151.2900671">
  <ele>352.55</ele>
  <time>2026-09-01T19:53:10Z</time>
  <course>180.16</course>
  <speed>0.9000555538409837</speed>
  <fix>3d</fix>
</trkpt>
<trkpt lat="-27.2744701" lon="151.2900673">
  <ele>352.25</ele>
  <time>2026-09-01T19:53:10Z</time>
  <course>177.56</course>
  <speed>0.91</speed>
  <fix>3d</fix>
</trkpt>
<trkpt lat="-27.2744714" lon="151.2900671">
  <ele>352.56</ele>
  <time>2026-09-01T19:53:10Z</time>
  <course>180.16</course>
  <speed>0.9000555538409837</speed>
  <fix>3d</fix>
</trkpt>
<trkpt lat="-27.2744723" lon="151.2900672">
  <ele>352.69</ele>
  <time>2026-09-01T19:53:10Z</time>
  <course>180.17</course>
  <speed>0.9100549433962765</speed>
  <fix>3d</fix>
</trkpt>
<trkpt lat="-27.2744701" lon="151.2900673">
  <ele>352.25</ele>
  <time>2026-09-01T19:53:10Z</time>
  <course>177.56</course>
  <speed>0.91</speed>
  <fix>3d</fix>
</trkpt>
<trkpt lat="-27.2744723" lon="151.2900672">
  <ele>352.7</ele>
  <time>2026-09-01T19:53:10Z</time>
  <course>180.17</course>
  <speed>0.9100549433962765</speed>
  <fix>3d</fix>
</trkpt>
<trkpt lat="-27.2744731" lon="151.2900672">
  <ele>352.84</ele>
  <time>2026-09-01T19:53:10Z</time>
  <course>180.17</course>
  <speed>0.9200543462209175</speed>
  <fix>3d</fix>
</trkpt>
<trkpt lat="-27.2744717" lon="151.2900674">
  <ele>352.54</ele>
  <time>2026-09-01T19:53:10Z</time>
  <course>177.57</course>
  <speed>0.93</speed>
  <fix>3d</fix>
</trkpt>
<trkpt lat="-27.2744733" lon="151.2900672">
  <ele>352.88</ele>
  <time>2026-09-01T19:53:10Z</time>
  <course>180.17</course>
  <speed>0.9200543462209175</speed>
  <fix>3d</fix>
</trkpt>
<trkpt lat="-27.274474" lon="151.2900672">
  <ele>352.98</ele>
  <time>2026-09-01T19:53:10Z</time>
  <course>180.17</course>
  <speed>0.9300537618869137</speed>
  <fix>3d</fix>
</trkpt>
<trkpt lat="-27.2744717" lon="151.2900674">
  <ele>352.54</ele>
  <time>2026-09-01T19:53:10Z</time>
  <course>177.57</course>
  <speed>0.93</speed>
  <fix>3d</fix>
</trkpt>
<trkpt lat="-27.2744742" lon="151.2900673">
  <ele>353.02</ele>
  <time>2026-09-01T19:53:10Z</time>
  <course>180.18</course>
  <speed>0.9300537618869137</speed>
  <fix>3d</fix>
</trkpt>
<trkpt lat="-27.2744748" lon="151.2900673">
  <ele>353.12</ele>
  <time>2026-09-01T19:53:10Z</time>
  <course>180.18</course>
  <speed>0.9400531899844816</speed>
  <fix>3d</fix>
</trkpt>
<trkpt lat="-27.2744734" lon="151.2900675">
  <ele>352.83</ele>
  <time>2026-09-01T19:53:10Z</time>
  <course>177.58</course>
  <speed>0.94</speed>
  <fix>3d</fix>
</trkpt>
<trkpt lat="-27.2744751" lon="151.2900673">
  <ele>353.16</ele>
  <time>2026-09-01T19:53:10Z</time>
  <course>180.18</course>
  <speed>0.9400531899844816</speed>
  <fix>3d</fix>
</trkpt>
<trkpt lat="-27.2744757" lon="151.2900673">
  <ele>353.26</ele>
  <time>2026-09-01T19:53:10Z</time>
  <course>180.18</course>
  <speed>0.9500526301210896</speed>
  <fix>3d</fix>
</trkpt>
<trkpt lat="-27.2744734" lon="151.2900675">
  <ele>352.83</ele>
  <time>2026-09-01T19:53:10Z</time>
  <course>177.58</course>
  <speed>0.94</speed>
  <fix>3d</fix>
</trkpt>
<trkpt lat="-27.2744759" lon="151.2900673">
  <ele>353.3</ele>
  <time>2026-09-01T19:53:10Z</time>
  <course>180.18</course>
  <speed>0.9500526301210896</speed>
  <fix>3d</fix>
</trkpt>
<trkpt lat="-27.2744766" lon="151.2900674">
  <ele>353.41</ele>
  <time>2026-09-01T19:53:10Z</time>
  <course>180.17</course>
  <speed>0.9500526301210896</speed>
  <fix>3d</fix>
</trkpt>
<trkpt lat="-27.2744751" lon="151.2900676">
  <ele>353.11</ele>
  <time>2026-09-01T19:53:10Z</time>
  <course>177.6</course>
  <speed>0.96</speed>
  <fix>3d</fix>
</trkpt>
<trkpt lat="-27.2744766" lon="151.2900674">
  <ele>353.41</ele>
  <time>2026-09-01T19:53:10Z</time>
  <course>180.17</course>
  <speed>0.9600520819205591</speed>
  <fix>3d</fix>
</trkpt>
<trkpt lat="-27.2744775" lon="151.2900674">
  <ele>353.55</ele>
  <time>2026-09-01T19:53:10Z</time>
  <course>180.17</course>
  <speed>0.9600520819205591</speed>
  <fix>3d</fix>
</trkpt>
<trkpt lat="-27.2744751" lon="151.2900676">
  <ele>353.11</ele>
  <time>2026-09-01T19:53:10Z</time>
  <course>177.6</course>
  <speed>0.96</speed>
  <fix>3d</fix>
</trkpt>
<trkpt lat="-27.2744775" lon="151.2900674">
  <ele>353.56</ele>
  <time>2026-09-01T19:53:10Z</time>
  <course>180.17</course>
  <speed>0.9600520819205591</speed>
  <fix>3d</fix>
</trkpt>
<trkpt lat="-27.2744784" lon="151.2900675">
  <ele>353.7</ele>
  <time>2026-09-01T19:53:10Z</time>
  <course>180.17</course>
  <speed>0.970051545022222</speed>
  <fix>3d</fix>
</trkpt>
<trkpt lat="-27.2744769" lon="151.2900676">
  <ele>353.4</ele>
  <time>2026-09-01T19:53:10Z</time>
  <course>177.61</course>
  <speed>0.98</speed>
  <fix>3d</fix>
</trkpt>
<trkpt lat="-27.2744786" lon="151.2900675">
  <ele>353.74</ele>
  <time>2026-09-01T19:53:10Z</time>
  <course>180.17</course>
  <speed>0.9800510190801294</speed>
  <fix>3d</fix>
</trkpt>
<trkpt lat="-27.2744793" lon="151.2900675">
  <ele>353.84</ele>
  <time>2026-09-01T19:53:10Z</time>
  <course>180.17</course>
  <speed>0.9800510190801294</speed>
  <fix>3d</fix>
</trkpt>
<trkpt lat="-27.2744769" lon="151.2900676">
  <ele>353.4</ele>
  <time>2026-09-01T19:53:10Z</time>
  <course>177.61</course>
  <speed>0.98</speed>
  <fix>3d</fix>
</trkpt>
<trkpt lat="-27.2744795" lon="151.2900675">
  <ele>353.88</ele>
  <time>2026-09-01T19:53:10Z</time>
  <course>180.17</course>
  <speed>0.9900505037623081</speed>
  <fix>3d</fix>
</trkpt>
<trkpt lat="-27.2744802" lon="151.2900675">
  <ele>353.99</ele>
  <time>2026-09-01T19:53:10Z</time>
  <course>180.17</course>
  <speed>0.9900505037623081</speed>
  <fix>3d</fix>
</trkpt>
<trkpt lat="-27.2744787" lon="151.2900677">
  <ele>353.69</ele>
  <time>2026-09-01T19:53:10Z</time>
  <course>177.61</course>
  <speed>1.0</speed>
  <fix>3d</fix>
</trkpt>
<trkpt lat="-27.2744804" lon="151.2900676">
  <ele>354.02</ele>
  <time>2026-09-01T19:53:10Z</time>
  <course>180.17</course>
  <speed>1.0000499987500624</speed>
  <fix>3d</fix>
</trkpt>
<trkpt lat="-27.2744811" lon="151.2900676">
  <ele>354.13</ele>
  <time>2026-09-01T19:53:10Z</time>
  <course>180.17</course>
  <speed>1.0000499987500624</speed>
  <fix>3d</fix>
</trkpt>
<trkpt lat="-27.2744787" lon="151.2900677">
  <ele>353.69</ele>
  <time>2026-09-01T19:53:10Z</time>
  <course>177.61</course>
  <speed>1.0</speed>
  <fix>3d</fix>
</trkpt>
<trkpt lat="-27.2744814" lon="151.2900676">
  <ele>354.17</ele>
  <time>2026-09-01T19:53:10Z</time>
  <course>180.17</course>
  <speed>1.010049503737317</speed>
  <fix>3d</fix>
</trkpt>
<trkpt lat="-27.2744821" lon="151.2900676">
  <ele>354.28</ele>
  <time>2026-09-01T19:53:10Z</time>
  <course>180.17</course>
  <speed>1.010049503737317</speed>
  <fix>3d</fix>
</trkpt>
<trkpt lat="-27.2744805" lon="151.2900678">
  <ele>353.98</ele>
  <time>2026-09-01T19:53:10Z</time>
  <course>177.61</course>
  <speed>1.02</speed>
  <fix>3d</fix>
</trkpt>
<trkpt lat="-27.2744823" lon="151.2900676">
  <ele>354.32</ele>
  <time>2026-09-01T19:53:10Z</time>
  <course>180.17</course>
  <speed>1.010049503737317</speed>
  <fix>3d</fix>
</trkpt>
<trkpt lat="-27.274483" lon="151.2900677">
  <ele>354.43</ele>
  <time>2026-09-01T19:53:10Z</time>
  <course>180.17</course>
  <speed>1.0200490184299968</speed>
  <fix>3d</fix>
</trkpt>
<trkpt lat="-27.2744805" lon="151.2900678">
  <ele>353.98</ele>
  <time>2026-09-01T19:53:10Z</time>
  <course>177.61</course>
  <speed>1.02</speed>
  <fix>3d</fix>
</trkpt>
<trkpt lat="-27.2744833" lon="151.2900677">
  <ele>354.47</ele>
  <time>2026-09-01T19:53:10Z</time>
  <course>180.17</course>
  <speed>1.020196059588548</speed>
  <fix>3d</fix>
</trkpt>
<trkpt lat="-27.274484" lon="151.2900677">
  <ele>354.57</ele>
  <time>2026-09-01T19:53:10Z</time>
  <course>180.17</course>
  <speed>1.030194156457898</speed>
  <fix>3d</fix>
</trkpt>
<trkpt lat="-27.2744823" lon="151.2900679">
  <ele>354.27</ele>
  <time>2026-09-01T19:53:10Z</time>
  <course>177.61</course>
  <speed>1.04</speed>
  <fix>3d</fix>
</trkpt>
<trkpt lat="-27.2744842" lon="151.2900677">
  <ele>354.61</ele>
  <time>2026-09-01T19:53:10Z</time>
  <course>180.17</course>
  <speed>1.030194156457898</speed>
  <fix>3d</fix>
</trkpt>
<trkpt lat="-27.2744849" lon="151.2900678">
  <ele>354.72</ele>
  <time>2026-09-01T19:53:10Z</time>
  <course>180.18</course>
  <speed>1.0401922899156675</speed>
  <fix>3d</fix>
</trkpt>
<trkpt lat="-27.2744823" lon="151.2900679">
  <ele>354.27</ele>
  <time>2026-09-01T19:53:10Z</time>
  <course>177.61</course>
  <speed>1.04</speed>
  <fix>3d</fix>
</trkpt>
<trkpt lat="-27.2744849" lon="151.2900678">
  <ele>354.73</ele>
  <time>2026-09-01T19:53:10Z</time>
  <course>180.18</course>
  <speed>1.0401922899156675</speed>
  <fix>3d</fix>
</trkpt>
<trkpt lat="-27.2744859" lon="151.2900678">
  <ele>354.87</ele>
  <time>2026-09-01T19:53:10Z</time>
  <course>180.18</course>
  <speed>1.0501904589168576</speed>
  <fix>3d</fix>
</trkpt>
<trkpt lat="-27.2744842" lon="151.290068">
  <ele>354.56</ele>
  <time>2026-09-01T19:53:10Z</time>
  <course>177.6</course>
  <speed>1.06</speed>
  <fix>3d</fix>
</trkpt>
<trkpt lat="-27.2744859" lon="151.2900678">
  <ele>354.87</ele>
  <time>2026-09-01T19:53:10Z</time>
  <course>180.18</course>
  <speed>1.0501904589168576</speed>
  <fix>3d</fix>
</trkpt>
<trkpt lat="-27.2744868" lon="151.2900678">
  <ele>355.01</ele>
  <time>2026-09-01T19:53:10Z</time>
  <course>180.18</course>
  <speed>1.0601886624558856</speed>
  <fix>3d</fix>
</trkpt>
<trkpt lat="-27.2744842" lon="151.290068">
  <ele>354.56</ele>
  <time>2026-09-01T19:53:10Z</time>
  <course>177.6</course>
  <speed>1.06</speed>
  <fix>3d</fix>
</trkpt>
<trkpt lat="-27.2744869" lon="151.2900678">
  <ele>355.02</ele>
  <time>2026-09-01T19:53:10Z</time>
  <course>180.18</course>
  <speed>1.0601886624558856</speed>
  <fix>3d</fix>
</trkpt>
<trkpt lat="-27.2744878" lon="151.2900679">
  <ele>355.16</ele>
  <time>2026-09-01T19:53:10Z</time>
  <course>180.18</course>
  <speed>1.070186899564744</speed>
  <fix>3d</fix>
</trkpt>
<trkpt lat="-27.2744862" lon="151.2900681">
  <ele>354.85</ele>
  <time>2026-09-01T19:53:10Z</time>
  <course>177.58</course>
  <speed>1.08</speed>
  <fix>3d</fix>
</trkpt>
<trkpt lat="-27.2744881" lon="151.2900679">
  <ele>355.2</ele>
  <time>2026-09-01T19:53:10Z</time>
  <course>180.18</course>
  <speed>1.070186899564744</speed>
  <fix>3d</fix>
</trkpt>
<trkpt lat="-27.2744888" lon="151.2900679">
  <ele>355.3</ele>
  <time>2026-09-01T19:53:10Z</time>
  <course>180.18</course>
  <speed>1.080185169311262</speed>
  <fix>3d</fix>
</trkpt>
<trkpt lat="-27.2744862" lon="151.2900681">
  <ele>354.85</ele>
  <time>2026-09-01T19:53:10Z</time>
  <course>177.58</course>
  <speed>1.08</speed>
  <fix>3d</fix>
</trkpt>
<trkpt lat="-27.2744891" lon="151.290068">
  <ele>355.34</ele>
  <time>2026-09-01T19:53:10Z</time>
  <course>180.18</course>
  <speed>1.080185169311262</speed>
  <fix>3d</fix>
</trkpt>
<trkpt lat="-27.2744898" lon="151.290068">
  <ele>355.45</ele>
  <time>2026-09-01T19:53:10Z</time>
  <course>180.18</course>
  <speed>1.0901834707974616</speed>
  <fix>3d</fix>
</trkpt>
<trkpt lat="-27.2744881" lon="151.2900682">
  <ele>355.14</ele>
  <time>2026-09-01T19:53:10Z</time>
  <course>177.56</course>
  <speed>1.09</speed>
  <fix>3d</fix>
</trkpt>
<trkpt lat="-27.2744901" lon="151.290068">
  <ele>355.49</ele>
  <time>2026-09-01T19:53:10Z</time>
  <course>180.18</course>
  <speed>1.0901834707974616</speed>
  <fix>3d</fix>
</trkpt>
<trkpt lat="-27.2744908" lon="151.290068">
  <ele>355.59</ele>
  <time>2026-09-01T19:53:10Z</time>
  <course>180.18</course>
  <speed>1.1001818031580053</speed>
  <fix>3d</fix>
</trkpt>
<trkpt lat="-27.2744881" lon="151.2900682">
  <ele>355.14</ele>
  <time>2026-09-01T19:53:10Z</time>
  <course>177.56</course>
  <speed>1.09</speed>
  <fix>3d</fix>
</trkpt>
<trkpt lat="-27.2744911" lon="151.2900681">
  <ele>355.64</ele>
  <time>2026-09-01T19:53:10Z</time>
  <course>180.18</course>
  <speed>1.1001818031580053</speed>
  <fix>3d</fix>
</trkpt>
<trkpt lat="-27.2744918" lon="151.2900681">
  <ele>355.74</ele>
  <time>2026-09-01T19:53:10Z</time>
  <course>180.18</course>
  <speed>1.110180165558726</speed>
  <fix>3d</fix>
</trkpt>
<trkpt lat="-27.2744901" lon="151.2900683">
  <ele>355.43</ele>
  <time>2026-09-01T19:53:10Z</time>
  <course>177.55</course>
  <speed>1.11</speed>
  <fix>3d</fix>
</trkpt>
<trkpt lat="-27.2744921" lon="151.2900681">
  <ele>355.77</ele>
  <time>2026-09-01T19:53:10Z</time>
  <course>180.18</course>
  <speed>1.110180165558726</speed>
  <fix>3d</fix>
</trkpt>
<trkpt lat="-27.2744929" lon="151.2900681">
  <ele>355.88</ele>
  <time>2026-09-01T19:53:10Z</time>
  <course>180.18</course>
  <speed>1.1201785571952356</speed>
  <fix>3d</fix>
</trkpt>
<trkpt lat="-27.2744901" lon="151.2900683">
  <ele>355.43</ele>
  <time>2026-09-01T19:53:10Z</time>
  <course>177.55</course>
  <speed>1.11</speed>
  <fix>3d</fix>
</trkpt>
<trkpt lat="-27.2744931" lon="151.2900682">
  <ele>355.92</ele>
  <time>2026-09-01T19:53:10Z</time>
  <course>180.18</course>
  <speed>1.1201785571952356</speed>
  <fix>3d</fix>
</trkpt>
<trkpt lat="-27.2744939" lon="151.2900682">
  <ele>356.02</ele>
  <time>2026-09-01T19:53:10Z</time>
  <course>180.18</course>
  <speed>1.13017697729161</speed>
  <fix>3d</fix>
</trkpt>
<trkpt lat="-27.2744921" lon="151.2900684">
  <ele>355.71</ele>
  <time>2026-09-01T19:53:10Z</time>
  <course>177.54</course>
  <speed>1.13</speed>
  <fix>3d</fix>
</trkpt>
<trkpt lat="-27.2744942" lon="151.2900682">
  <ele>356.06</ele>
  <time>2026-09-01T19:53:10Z</time>
  <course>180.18</course>
  <speed>1.13017697729161</speed>
  <fix>3d</fix>
</trkpt>
<trkpt lat="-27.2744949" lon="151.2900682">
  <ele>356.16</ele>
  <time>2026-09-01T19:53:10Z</time>
  <course>180.18</course>
  <speed>1.140175425099138</speed>
  <fix>3d</fix>
</trkpt>
<trkpt lat="-27.2744921" lon="151.2900684">
  <ele>355.71</ele>
  <time>2026-09-01T19:53:10Z</time>
  <course>177.54</course>
  <speed>1.13</speed>
  <fix>3d</fix>
</trkpt>
<trkpt lat="-27.2744952" lon="151.2900683">
  <ele>356.2</ele>
  <time>2026-09-01T19:53:10Z</time>
  <course>180.18</course>
  <speed>1.140175425099138</speed>
  <fix>3d</fix>
</trkpt>
<trkpt lat="-27.274496" lon="151.2900683">
  <ele>356.3</ele>
  <time>2026-09-01T19:53:10Z</time>
  <course>180.18</course>
  <speed>1.150173899895142</speed>
  <fix>3d</fix>
</trkpt>
<trkpt lat="-27.2744942" lon="151.2900685">
  <ele>356.0</ele>
  <time>2026-09-01T19:53:10Z</time>
  <course>177.53</course>
  <speed>1.15</speed>
  <fix>3d</fix>
</trkpt>
<trkpt lat="-27.2744963" lon="151.2900683">
  <ele>356.34</ele>
  <time>2026-09-01T19:53:10Z</time>
  <course>180.18</course>
  <speed>1.150173899895142</speed>
  <fix>3d</fix>
</trkpt>
<trkpt lat="-27.2744971" lon="151.2900684">
  <ele>356.44</ele>
  <time>2026-09-01T19:53:10Z</time>
  <course>180.19</course>
  <speed>1.1601724009818541</speed>
  <fix>3d</fix>
</trkpt>
<trkpt lat="-27.2744942" lon="151.2900685">
  <ele>356.0</ele>
  <time>2026-09-01T19:53:10Z</time>
  <course>177.53</course>
  <speed>1.15</speed>
  <fix>3d</fix>
</trkpt>
<trkpt lat="-27.2744971" lon="151.2900684">
  <ele>356.45</ele>
  <time>2026-09-01T19:53:10Z</time>
  <course>180.19</course>
  <speed>1.1601724009818541</speed>
  <fix>3d</fix>
</trkpt>
<trkpt lat="-27.2744981" lon="151.2900684">
  <ele>356.58</ele>
  <time>2026-09-01T19:53:10Z</time>
  <course>180.18</course>
  <speed>1.1701709276853531</speed>
  <fix>3d</fix>
</trkpt>
<trkpt lat="-27.2744963" lon="151.2900686">
  <ele>356.28</ele>
  <time>2026-09-01T19:53:10Z</time>
  <course>177.54</course>
  <speed>1.17</speed>
  <fix>3d</fix>
</trkpt>
<trkpt lat="-27.2744982" lon="151.2900684">
  <ele>356.59</ele>
  <time>2026-09-01T19:53:10Z</time>
  <course>180.18</course>
  <speed>1.1701709276853531</speed>
  <fix>3d</fix>
</trkpt>
<trkpt lat="-27.2744992" lon="151.2900685">
  <ele>356.72</ele>
  <time>2026-09-01T19:53:10Z</time>
  <course>180.19</course>
  <speed>1.1801694793545543</speed>
  <fix>3d</fix>
</trkpt>
<trkpt lat="-27.2744963" lon="151.2900686">
  <ele>356.28</ele>
  <time>2026-09-01T19:53:10Z</time>
  <course>177.54</course>
  <speed>1.17</speed>
  <fix>3d</fix>
</trkpt>
<trkpt lat="-27.2744995" lon="151.2900685">
  <ele>356.76</ele>
  <time>2026-09-01T19:53:10Z</time>
  <course>180.18</course>
  <speed>1.1801694793545543</speed>
  <fix>3d</fix>
</trkpt>
<trkpt lat="-27.2745003" lon="151.2900685">
  <ele>356.86</ele>
  <time>2026-09-01T19:53:10Z</time>
  <course>180.18</course>
  <speed>1.1901680553602503</speed>
  <fix>3d</fix>
</trkpt>
<trkpt lat="-27.2744984" lon="151.2900687">
  <ele>356.56</ele>
  <time>2026-09-01T19:53:10Z</time>
  <course>177.54</course>
  <speed>1.19</speed>
  <fix>3d</fix>
</trkpt>
<trkpt lat="-27.2745004" lon="151.2900685">
  <ele>356.87</ele>
  <time>2026-09-01T19:53:10Z</time>
  <course>180.18</course>
  <speed>1.1901680553602503</speed>
  <fix>3d</fix>
</trkpt>
<trkpt lat="-27.2745014" lon="151.2900686">
  <ele>357.0</ele>
  <time>2026-09-01T19:53:10Z</time>
  <course>180.19</course>
  <speed>1.2001666550941998</speed>
  <fix>3d</fix>
</trkpt>
<trkpt lat="-27.2744984" lon="151.2900687">
  <ele>356.56</ele>
  <time>2026-09-01T19:53:10Z</time>
  <course>177.54</course>
  <speed>1.19</speed>
  <fix>3d</fix>
</trkpt>
<trkpt lat="-27.2745017" lon="151.2900686">
  <ele>357.04</ele>
  <time>2026-09-01T19:53:10Z</time>
  <course>180.19</course>
  <speed>1.2001666550941998</speed>
  <fix>3d</fix>
</trkpt>
<trkpt lat="-27.2745025" lon="151.2900686">
  <ele>357.15</ele>
  <time>2026-09-01T19:53:10Z</time>
  <course>180.19</course>
  <speed>1.2101652779682617</speed>
  <fix>3d</fix>
</trkpt>
<trkpt lat="-27.2745005" lon="151.2900688">
  <ele>356.84</ele>
  <time>2026-09-01T19:53:10Z</time>
  <course>177.55</course>
  <speed>1.21</speed>
  <fix>3d</fix>
</trkpt>
<trkpt lat="-27.2745028" lon="151.2900686">
  <ele>357.18</ele>
  <time>2026-09-01T19:53:10Z</time>
  <course>180.19</course>
  <speed>1.2101652779682617</speed>
  <fix>3d</fix>
</trkpt>
<trkpt lat="-27.2745036" lon="151.2900687">
  <ele>357.29</ele>
  <time>2026-09-01T19:53:10Z</time>
  <course>180.19</course>
  <speed>1.2201639234135715</speed>
  <fix>3d</fix>
</trkpt>
<trkpt lat="-27.2745005" lon="151.2900688">
  <ele>356.84</ele>
  <time>2026-09-01T19:53:10Z</time>
  <course>177.55</course>
  <speed>1.21</speed>
  <fix>3d</fix>
</trkpt>
<trkpt lat="-27.2745039" lon="151.2900687">
  <ele>357.33</ele>
  <time>2026-09-01T19:53:10Z</time>
  <course>180.19</course>
  <speed>1.2201639234135715</speed>
  <fix>3d</fix>
</trkpt>
<trkpt lat="-27.2745047" lon="151.2900687">
  <ele>357.43</ele>
  <time>2026-09-01T19:53:10Z</time>
  <course>180.18</course>
  <speed>1.2301625908797584</speed>
  <fix>3d</fix>
</trkpt>
<trkpt lat="-27.2745028" lon="151.2900689">
  <ele>357.13</ele>
  <time>2026-09-01T19:53:10Z</time>
  <course>177.57</course>
  <speed>1.23</speed>
  <fix>3d</fix>
</trkpt>
<trkpt lat="-27.274505" lon="151.2900687">
  <ele>357.47</ele>
  <time>2026-09-01T19:53:10Z</time>
  <course>180.18</course>
  <speed>1.2301625908797584</speed>
  <fix>3d</fix>
</trkpt>
<trkpt lat="-27.2745059" lon="151.2900688">
  <ele>357.57</ele>
  <time>2026-09-01T19:53:10Z</time>
  <course>180.18</course>
  <speed>1.2401612798341997</speed>
  <fix>3d</fix>
</trkpt>
<trkpt lat="-27.2745028" lon="151.2900689">
  <ele>357.13</ele>
  <time>2026-09-01T19:53:10Z</time>
  <course>177.57</course>
  <speed>1.23</speed>
  <fix>3d</fix>
</trkpt>
<trkpt lat="-27.2745062" lon="151.2900688">
  <ele>357.61</ele>
  <time>2026-09-01T19:53:10Z</time>
  <course>180.17</course>
  <speed>1.2401612798341997</speed>
  <fix>3d</fix>
</trkpt>
<trkpt lat="-27.274507" lon="151.2900688">
  <ele>357.72</ele>
  <time>2026-09-01T19:53:10Z</time>
  <course>180.17</course>
  <speed>1.2501599897613105</speed>
  <fix>3d</fix>
</trkpt>
<trkpt lat="-27.274505" lon="151.290069">
  <ele>357.42</ele>
  <time>2026-09-01T19:53:10Z</time>
  <course>177.6</course>
  <speed>1.26</speed>
  <fix>3d</fix>
</trkpt>
<trkpt lat="-27.2745073" lon="151.2900688">
  <ele>357.75</ele>
  <time>2026-09-01T19:53:10Z</time>
  <course>180.17</course>
  <speed>1.2501599897613105</speed>
  <fix>3d</fix>
</trkpt>
<trkpt lat="-27.2745081" lon="151.2900689">
  <ele>357.86</ele>
  <time>2026-09-01T19:53:10Z</time>
  <course>180.17</course>
  <speed>1.2601587201618691</speed>
  <fix>3d</fix>
</trkpt>
<trkpt lat="-27.274505" lon="151.290069">
  <ele>357.42</ele>
  <time>2026-09-01T19:53:10Z</time>
  <course>177.6</course>
  <speed>1.26</speed>
  <fix>3d</fix>
</trkpt>
<trkpt lat="-27.2745084" lon="151.2900689">
  <ele>357.89</ele>
  <time>2026-09-01T19:53:10Z</time>
  <course>180.17</course>
  <speed>1.2601587201618691</speed>
  <fix>3d</fix>
</trkpt>
<trkpt lat="-27.2745093" lon="151.2900689">
  <ele>358.0</ele>
  <time>2026-09-01T19:53:10Z</time>
  <course>180.17</course>
  <speed>1.2701574705523722</speed>
  <fix>3d</fix>
</trkpt>
<trkpt lat="-27.2745073" lon="151.2900691">
  <ele>357.71</ele>
  <time>2026-09-01T19:53:10Z</time>
  <course>177.65</course>
  <speed>1.28</speed>
  <fix>3d</fix>
</trkpt>
<trkpt lat="-27.2745094" lon="151.2900689">
  <ele>358.0</ele>
  <time>2026-09-01T19:53:10Z</time>
  <course>180.17</course>
  <speed>1.2701574705523722</speed>
  <fix>3d</fix>
</trkpt>
<trkpt lat="-27.2745105" lon="151.290069">
  <ele>358.14</ele>
  <time>2026-09-01T19:53:10Z</time>
  <course>180.17</course>
  <speed>1.2801562404644207</speed>
  <fix>3d</fix>
</trkpt>
<trkpt lat="-27.2745073" lon="151.2900691">
  <ele>357.71</ele>
  <time>2026-09-01T19:53:10Z</time>
  <course>177.65</course>
  <speed>1.28</speed>
  <fix>3d</fix>
</trkpt>
<trkpt lat="-27.2745105" lon="151.290069">
  <ele>358.15</ele>
  <time>2026-09-01T19:53:10Z</time>
  <course>180.17</course>
  <speed>1.2801562404644207</speed>
  <fix>3d</fix>
</trkpt>
<trkpt lat="-27.2745117" lon="151.290069">
  <ele>358.29</ele>
  <time>2026-09-01T19:53:10Z</time>
  <course>180.17</course>
  <speed>1.2901550294441362</speed>
  <fix>3d</fix>
</trkpt>
<trkpt lat="-27.2745096" lon="151.2900692">
  <ele>358.0</ele>
  <time>2026-09-01T19:53:10Z</time>
  <course>177.7</course>
  <speed>1.3</speed>
  <fix>3d</fix>
</trkpt>
<trkpt lat="-27.274512" lon="151.2900691">
  <ele>358.33</ele>
  <time>2026-09-01T19:53:10Z</time>
  <course>180.17</course>
  <speed>1.2901550294441362</speed>
  <fix>3d</fix>
</trkpt>
<trkpt lat="-27.2745129" lon="151.2900691">
  <ele>358.44</ele>
  <time>2026-09-01T19:53:10Z</time>
  <course>180.17</course>
  <speed>1.3001538370516004</speed>
  <fix>3d</fix>
</trkpt>
<trkpt lat="-27.2745096" lon="151.2900692">
  <ele>358.0</ele>
  <time>2026-09-01T19:53:10Z</time>
  <course>177.7</course>
  <speed>1.3</speed>
  <fix>3d</fix>
</trkpt>
<trkpt lat="-27.2745132" lon="151.2900691">
  <ele>358.48</ele>
  <time>2026-09-01T19:53:10Z</time>
  <course>180.18</course>
  <speed>1.3001538370516004</speed>
  <fix>3d</fix>
</trkpt>
<trkpt lat="-27.2745141" lon="151.2900691">
  <ele>358.58</ele>
  <time>2026-09-01T19:53:10Z</time>
  <course>180.18</course>
  <speed>1.3101526628603246</speed>
  <fix>3d</fix>
</trkpt>
<trkpt lat="-27.274512" lon="151.2900693">
  <ele>358.29</ele>
  <time>2026-09-01T19:53:10Z</time>
  <course>177.75</course>
  <speed>1.32</speed>
  <fix>3d</fix>
</trkpt>
<trkpt lat="-27.2745144" lon="151.2900692">
  <ele>358.63</ele>
  <time>2026-09-01T19:53:10Z</time>
  <course>180.18</course>
  <speed>1.32015150645674</speed>
  <fix>3d</fix>
</trkpt>
<trkpt lat="-27.2745153" lon="151.2900692">
  <ele>358.73</ele>
  <time>2026-09-01T19:53:10Z</time>
  <course>180.19</course>
  <speed>1.32015150645674</speed>
  <fix>3d</fix>
</trkpt>
<trkpt lat="-27.274512" lon="151.2900693">
  <ele>358.29</ele>
  <time>2026-09-01T19:53:10Z</time>
  <course>177.75</course>
  <speed>1.32</speed>
  <fix>3d</fix>
</trkpt>
<trkpt lat="-27.2745156" lon="151.2900692">
  <ele>358.77</ele>
  <time>2026-09-01T19:53:10Z</time>
  <course>180.19</course>
  <speed>1.3301503674397117</speed>
  <fix>3d</fix>
</trkpt>
<trkpt lat="-27.2745165" lon="151.2900692">
  <ele>358.87</ele>
  <time>2026-09-01T19:53:10Z</time>
  <course>180.19</course>
  <speed>1.3301503674397117</speed>
  <fix>3d</fix>
</trkpt>
<trkpt lat="-27.2745144" lon="151.2900694">
  <ele>358.58</ele>
  <time>2026-09-01T19:53:10Z</time>
  <course>177.77</course>
  <speed>1.34</speed>
  <fix>3d</fix>
</trkpt>
<trkpt lat="-27.2745165" lon="151.2900692">
  <ele>358.88</ele>
  <time>2026-09-01T19:53:10Z</time>
  <course>180.19</course>
  <speed>1.3401492454200763</speed>
  <fix>3d</fix>
</trkpt>
<trkpt lat="-27.2745177" lon="151.2900693">
  <ele>359.02</ele>
  <time>2026-09-01T19:53:10Z</time>
  <course>180.19</course>
  <speed>1.350148140020198</speed>
  <fix>3d</fix>
</trkpt>
<trkpt lat="-27.2745144" lon="151.2900694">
  <ele>358.58</ele>
  <time>2026-09-01T19:53:10Z</time>
  <course>177.77</course>
  <speed>1.34</speed>
  <fix>3d</fix>
</trkpt>
<trkpt lat="-27.2745181" lon="151.2900693">
  <ele>359.06</ele>
  <time>2026-09-01T19:53:10Z</time>
  <course>180.2</course>
  <speed>1.350148140020198</speed>
  <fix>3d</fix>
</trkpt>
<trkpt lat="-27.274519" lon="151.2900693">
  <ele>359.16</ele>
  <time>2026-09-01T19:53:10Z</time>
  <course>180.2</course>
  <speed>1.3601470508735443</speed>
  <fix>3d</fix>
</trkpt>
<trkpt lat="-27.2745168" lon="151.2900695">
  <ele>358.87</ele>
  <time>2026-09-01T19:53:10Z</time>
  <course>177.76</course>
  <speed>1.36</speed>
  <fix>3d</fix>
</trkpt>
<trkpt lat="-27.2745193" lon="151.2900694">
  <ele>359.2</ele>
  <time>2026-09-01T19:53:10Z</time>
  <course>180.2</course>
  <speed>1.3601470508735443</speed>
  <fix>3d</fix>
</trkpt>
<trkpt lat="-27.2745202" lon="151.2900694">
  <ele>359.31</ele>
  <time>2026-09-01T19:53:10Z</time>
  <course>180.19</course>
  <speed>1.3701459776242821</speed>
  <fix>3d</fix>
</trkpt>
<trkpt lat="-27.2745168" lon="151.2900695">
  <ele>358.87</ele>
  <time>2026-09-01T19:53:10Z</time>
  <course>177.76</course>
  <speed>1.36</speed>
  <fix>3d</fix>
</trkpt>
<trkpt lat="-27.2745205" lon="151.2900694">
  <ele>359.34</ele>
  <time>2026-09-01T19:53:10Z</time>
  <course>180.19</course>
  <speed>1.3701459776242821</speed>
  <fix>3d</fix>
</trkpt>
<trkpt lat="-27.2745215" lon="151.2900695">
  <ele>359.45</ele>
  <time>2026-09-01T19:53:10Z</time>
  <course>180.19</course>
  <speed>1.3801449199268894</speed>
  <fix>3d</fix>
</trkpt>
<trkpt lat="-27.2745193" lon="151.2900696">
  <ele>359.16</ele>
  <time>2026-09-01T19:53:10Z</time>
  <course>177.76</course>
  <speed>1.39</speed>
  <fix>3d</fix>
</trkpt>
<trkpt lat="-27.2745218" lon="151.2900695">
  <ele>359.49</ele>
  <time>2026-09-01T19:53:10Z</time>
  <course>180.19</course>
  <speed>1.3801449199268894</speed>
  <fix>3d</fix>
</trkpt>
<trkpt lat="-27.2745228" lon="151.2900695">
  <ele>359.6</ele>
  <time>2026-09-01T19:53:10Z</time>
  <course>180.18</course>
  <speed>1.3901438774457844</speed>
  <fix>3d</fix>
</trkpt>
<trkpt lat="-27.2745193" lon="151.2900696">
  <ele>359.16</ele>
  <time>2026-09-01T19:53:10Z</time>
  <course>177.76</course>
  <speed>1.39</speed>
  <fix>3d</fix>
</trkpt>
<trkpt lat="-27.2745228" lon="151.2900695">
  <ele>359.6</ele>
  <time>2026-09-01T19:53:10Z</time>
  <course>180.18</course>
  <speed>1.3901438774457844</speed>
  <fix>3d</fix>
</trkpt>
<trkpt lat="-27.2745241" lon="151.2900696">
  <ele>359.74</ele>
  <time>2026-09-01T19:53:10Z</time>
  <course>180.18</course>
  <speed>1.400142849854971</speed>
  <fix>3d</fix>
</trkpt>
<trkpt lat="-27.2745218" lon="151.2900697">
  <ele>359.45</ele>
  <time>2026-09-01T19:53:10Z</time>
  <course>177.78</course>
  <speed>1.41</speed>
  <fix>3d</fix>
</trkpt>
<trkpt lat="-27.2745242" lon="151.2900696">
  <ele>359.75</ele>
  <time>2026-09-01T19:53:10Z</time>
  <course>180.18</course>
  <speed>1.4101418368376992</speed>
  <fix>3d</fix>
</trkpt>
<trkpt lat="-27.2745254" lon="151.2900696">
  <ele>359.88</ele>
  <time>2026-09-01T19:53:10Z</time>
  <course>180.17</course>
  <speed>1.4201408380861387</speed>
  <fix>3d</fix>
</trkpt>
<trkpt lat="-27.2745218" lon="151.2900697">
  <ele>359.45</ele>
  <time>2026-09-01T19:53:10Z</time>
  <course>177.78</course>
  <speed>1.41</speed>
  <fix>3d</fix>
</trkpt>
<trkpt lat="-27.2745257" lon="151.2900696">
  <ele>359.92</ele>
  <time>2026-09-01T19:53:10Z</time>
  <course>180.17</course>
  <speed>1.4201408380861387</speed>
  <fix>3d</fix>
</trkpt>
<trkpt lat="-27.2745267" lon="151.2900697">
  <ele>360.03</ele>
  <time>2026-09-01T19:53:10Z</time>
  <course>180.17</course>
  <speed>1.4301398533010679</speed>
  <fix>3d</fix>
</trkpt>
<trkpt lat="-27.2745244" lon="151.2900698">
  <ele>359.73</ele>
  <time>2026-09-01T19:53:10Z</time>
  <course>177.8</course>
  <speed>1.43</speed>
  <fix>3d</fix>
</trkpt>
<trkpt lat="-27.274527" lon="151.2900697">
  <ele>360.07</ele>
  <time>2026-09-01T19:53:10Z</time>
  <course>180.17</course>
  <speed>1.430314650697531</speed>
  <fix>3d</fix>
</trkpt>
<trkpt lat="-27.274528" lon="151.2900697">
  <ele>360.17</ele>
  <time>2026-09-01T19:53:10Z</time>
  <course>180.18</course>
  <speed>1.4403124660989366</speed>
  <fix>3d</fix>
</trkpt>
<trkpt lat="-27.2745244" lon="151.2900698">
  <ele>359.73</ele>
  <time>2026-09-01T19:53:10Z</time>
  <course>177.8</course>
  <speed>1.43</speed>
  <fix>3d</fix>
</trkpt>
<trkpt lat="-27.2745283" lon="151.2900697">
  <ele>360.21</ele>
  <time>2026-09-01T19:53:10Z</time>
  <course>180.18</course>
  <speed>1.4403124660989366</speed>
  <fix>3d</fix>
</trkpt>
<trkpt lat="-27.2745293" lon="151.2900698">
  <ele>360.32</ele>
  <time>2026-09-01T19:53:10Z</time>
  <course>180.18</course>
  <speed>1.4503103116229987</speed>
  <fix>3d</fix>
</trkpt>
<trkpt lat="-27.274527" lon="151.2900699">
  <ele>360.02</ele>
  <time>2026-09-01T19:53:10Z</time>
  <course>177.8</course>
  <speed>1.46</speed>
  <fix>3d</fix>
</trkpt>
<trkpt lat="-27.2745297" lon="151.2900698">
  <ele>360.35</ele>
  <time>2026-09-01T19:53:10Z</time>
  <course>180.19</course>
  <speed>1.4503103116229987</speed>
  <fix>3d</fix>
</trkpt>
<trkpt lat="-27.2745307" lon="151.2900698">
  <ele>360.46</ele>
  <time>2026-09-01T19:53:10Z</time>
  <course>180.19</course>
  <speed>1.4603081866510235</speed>
  <fix>3d</fix>
</trkpt>
<trkpt lat="-27.274527" lon="151.2900699">
  <ele>360.02</ele>
  <time>2026-09-01T19:53:10Z</time>
  <course>177.8</course>
  <speed>1.46</speed>
  <fix>3d</fix>
</trkpt>
<trkpt lat="-27.274531" lon="151.2900698">
  <ele>360.5</ele>
  <time>2026-09-01T19:53:10Z</time>
  <course>180.2</course>
  <speed>1.4703060905811416</speed>
  <fix>3d</fix>
</trkpt>
<trkpt lat="-27.274532" lon="151.2900699">
  <ele>360.6</ele>
  <time>2026-09-01T19:53:10Z</time>
  <course>180.2</course>
  <speed>1.4703060905811416</speed>
  <fix>3d</fix>
</trkpt>
<trkpt lat="-27.2745296" lon="151.2900701">
  <ele>360.31</ele>
  <time>2026-09-01T19:53:10Z</time>
  <course>177.78</course>
  <speed>1.48</speed>
  <fix>3d</fix>
</trkpt>
<trkpt lat="-27.2745324" lon="151.2900699">
  <ele>360.64</ele>
  <time>2026-09-01T19:53:10Z</time>
  <course>180.2</course>
  <speed>1.4803040228277433</speed>
  <fix>3d</fix>
</trkpt>
<trkpt lat="-27.2745334" lon="151.2900699">
  <ele>360.74</ele>
  <time>2026-09-01T19:53:10Z</time>
  <course>180.2</course>
  <speed>1.4903019828209316</speed>
  <fix>3d</fix>
</trkpt>
<trkpt lat="-27.2745296" lon="151.2900701">
  <ele>360.31</ele>
  <time>2026-09-01T19:53:10Z</time>
  <course>177.78</course>
  <speed>1.48</speed>
  <fix>3d</fix>
</trkpt>
<trkpt lat="-27.2745337" lon="151.2900699">
  <ele>360.78</ele>
  <time>2026-09-01T19:53:10Z</time>
  <course>180.2</course>
  <speed>1.4903019828209316</speed>
  <fix>3d</fix>
</trkpt>
<trkpt lat="-27.2745347" lon="151.29007">
  <ele>360.88</ele>
  <time>2026-09-01T19:53:10Z</time>
  <course>180.2</course>
  <speed>1.5002999700059985</speed>
  <fix>3d</fix>
</trkpt>
<trkpt lat="-27.2745323" lon="151.2900702">
  <ele>360.59</ele>
  <time>2026-09-01T19:53:10Z</time>
  <course>177.78</course>
  <speed>1.5</speed>
  <fix>3d</fix>
</trkpt>
<trkpt lat="-27.2745351" lon="151.29007">
  <ele>360.92</ele>
  <time>2026-09-01T19:53:10Z</time>
  <course>180.2</course>
  <speed>1.5002999700059985</speed>
  <fix>3d</fix>
</trkpt>
<trkpt lat="-27.2745361" lon="151.29007">
  <ele>361.03</ele>
  <time>2026-09-01T19:53:10Z</time>
  <course>180.2</course>
  <speed>1.5102979838429236</speed>
  <fix>3d</fix>
</trkpt>
<trkpt lat="-27.2745323" lon="151.2900702">
  <ele>360.59</ele>
  <time>2026-09-01T19:53:10Z</time>
  <course>177.78</course>
  <speed>1.5</speed>
  <fix>3d</fix>
</trkpt>
<trkpt lat="-27.2745365" lon="151.2900701">
  <ele>361.06</ele>
  <time>2026-09-01T19:53:10Z</time>
  <course>180.2</course>
  <speed>1.5102979838429236</speed>
  <fix>3d</fix>
</trkpt>
<trkpt lat="-27.2745375" lon="151.2900701">
  <ele>361.17</ele>
  <time>2026-09-01T19:53:10Z</time>
  <course>180.19</course>
  <speed>1.52029602380589</speed>
  <fix>3d</fix>
</trkpt>
<trkpt lat="-27.2745351" lon="151.2900703">
  <ele>360.88</ele>
  <time>2026-09-01T19:53:10Z</time>
  <course>177.8</course>
  <speed>1.53</speed>
  <fix>3d</fix>
</trkpt>
<trkpt lat="-27.2745375" lon="151.2900701">
  <ele>361.17</ele>
  <time>2026-09-01T19:53:10Z</time>
  <course>180.19</course>
  <speed>1.52029602380589</speed>
  <fix>3d</fix>
</trkpt>
<trkpt lat="-27.2745389" lon="151.2900702">
  <ele>361.31</ele>
  <time>2026-09-01T19:53:10Z</time>
  <course>180.19</course>
  <speed>1.5302940893828219</speed>
  <fix>3d</fix>
</trkpt>
<trkpt lat="-27.2745351" lon="151.2900703">
  <ele>360.88</ele>
  <time>2026-09-01T19:53:10Z</time>
  <course>177.8</course>
  <speed>1.53</speed>
  <fix>3d</fix>
</trkpt>
<trkpt lat="-27.2745389" lon="151.2900702">
  <ele>361.32</ele>
  <time>2026-09-01T19:53:10Z</time>
  <course>180.19</course>
  <speed>1.5402921800749363</speed>
  <fix>3d</fix>
</trkpt>
<trkpt lat="-27.2745403" lon="151.2900702">
  <ele>361.45</ele>
  <time>2026-09-01T19:53:10Z</time>
  <course>180.19</course>
  <speed>1.550290295396317</speed>
  <fix>3d</fix>
</trkpt>
<trkpt lat="-27.2745379" lon="151.2900704">
  <ele>361.17</ele>
  <time>2026-09-01T19:53:10Z</time>
  <course>177.81</course>
  <speed>1.55</speed>
  <fix>3d</fix>
</trkpt>
<trkpt lat="-27.2745407" lon="151.2900702">
  <ele>361.49</ele>
  <time>2026-09-01T19:53:10Z</time>
  <course>180.19</course>
  <speed>1.550290295396317</speed>
  <fix>3d</fix>
</trkpt>
<trkpt lat="-27.2745417" lon="151.2900703">
  <ele>361.6</ele>
  <time>2026-09-01T19:53:10Z</time>
  <course>180.19</course>
  <speed>1.560288434873501</speed>
  <fix>3d</fix>
</trkpt>
<trkpt lat="-27.2745379" lon="151.2900704">
  <ele>361.17</ele>
  <time>2026-09-01T19:53:10Z</time>
  <course>177.81</course>
  <speed>1.55</speed>
  <fix>3d</fix>
</trkpt>
<trkpt lat="-27.2745421" lon="151.2900703">
  <ele>361.64</ele>
  <time>2026-09-01T19:53:10Z</time>
  <course>180.19</course>
  <speed>1.560288434873501</speed>
  <fix>3d</fix>
</trkpt>
<trkpt lat="-27.2745431" lon="151.2900703">
  <ele>361.74</ele>
  <time>2026-09-01T19:53:10Z</time>
  <course>180.19</course>
  <speed>1.5702865980450829</speed>
  <fix>3d</fix>
</trkpt>
<trkpt lat="-27.2745406" lon="151.2900705">
  <ele>361.46</ele>
  <time>2026-09-01T19:53:10Z</time>
  <course>177.83</course>
  <speed>1.58</speed>
  <fix>3d</fix>
</trkpt>
<trkpt lat="-27.2745436" lon="151.2900704">
  <ele>361.78</ele>
  <time>2026-09-01T19:53:10Z</time>
  <course>180.19</course>
  <speed>1.5802847844613326</speed>
  <fix>3d</fix>
</trkpt>
<trkpt lat="-27.2745446" lon="151.2900704">
  <ele>361.89</ele>
  <time>2026-09-01T19:53:10Z</time>
  <course>180.18</course>
  <speed>1.5802847844613326</speed>
  <fix>3d</fix>
</trkpt>
<trkpt lat="-27.2745406" lon="151.2900705">
  <ele>361.46</ele>
  <time>2026-09-01T19:53:10Z</time>
  <course>177.83</course>
  <speed>1.58</speed>
  <fix>3d</fix>
</trkpt>
<trkpt lat="-27.274545" lon="151.2900704">
  <ele>361.93</ele>
  <time>2026-09-01T19:53:10Z</time>
  <course>180.18</course>
  <speed>1.5902829936838285</speed>
  <fix>3d</fix>
</trkpt>
<trkpt lat="-27.274546" lon="151.2900705">
  <ele>362.03</ele>
  <time>2026-09-01T19:53:10Z</time>
  <course>180.18</course>
  <speed>1.600281225285106</speed>
  <fix>3d</fix>
</trkpt>
<trkpt lat="-27.2745435" lon="151.2900707">
  <ele>361.75</ele>
  <time>2026-09-01T19:53:10Z</time>
  <course>177.87</course>
  <speed>1.6</speed>
  <fix>3d</fix>
</trkpt>
<trkpt lat="-27.2745464" lon="151.2900705">
  <ele>362.07</ele>
  <time>2026-09-01T19:53:10Z</time>
  <course>180.18</course>
  <speed>1.600281225285106</speed>
  <fix>3d</fix>
</trkpt>
<trkpt lat="-27.2745475" lon="151.2900705">
  <ele>362.18</ele>
  <time>2026-09-01T19:53:10Z</time>
  <course>180.18</course>
  <speed>1.6102794788483146</speed>
  <fix>3d</fix>
</trkpt>
<trkpt lat="-27.2745435" lon="151.2900707">
  <ele>361.75</ele>
  <time>2026-09-01T19:53:10Z</time>
  <course>177.87</course>
  <speed>1.6</speed>
  <fix>3d</fix>
</trkpt>
<trkpt lat="-27.2745478" lon="151.2900705">
  <ele>362.21</ele>
  <time>2026-09-01T19:53:10Z</time>
  <course>180.18</course>
  <speed>1.6102794788483146</speed>
  <fix>3d</fix>
</trkpt>
<trkpt lat="-27.274549" lon="151.2900706">
  <ele>362.32</ele>
  <time>2026-09-01T19:53:10Z</time>
  <course>180.18</course>
  <speed>1.620277753966893</speed>
  <fix>3d</fix>
</trkpt>
<trkpt lat="-27.2745464" lon="151.2900708">
  <ele>362.03</ele>
  <time>2026-09-01T19:53:10Z</time>
  <course>177.93</course>
  <speed>1.63</speed>
  <fix>3d</fix>
</trkpt>
<trkpt lat="-27.2745494" lon="151.2900706">
  <ele>362.37</ele>
  <time>2026-09-01T19:53:10Z</time>
  <course>180.18</course>
  <speed>1.6302760502442524</speed>
  <fix>3d</fix>
</trkpt>
<trkpt lat="-27.2745505" lon="151.2900706">
  <ele>362.47</ele>
  <time>2026-09-01T19:53:10Z</time>
  <course>180.19</course>
  <speed>1.640274367293472</speed>
  <fix>3d</fix>
</trkpt>
<trkpt lat="-27.2745464" lon="151.2900708">
  <ele>362.03</ele>
  <time>2026-09-01T19:53:10Z</time>
  <course>177.93</course>
  <speed>1.63</speed>
  <fix>3d</fix>
</trkpt>
<trkpt lat="-27.2745509" lon="151.2900707">
  <ele>362.51</ele>
  <time>2026-09-01T19:53:10Z</time>
  <course>180.19</course>
  <speed>1.640274367293472</speed>
  <fix>3d</fix>
</trkpt>
<trkpt lat="-27.274552" lon="151.2900707">
  <ele>362.61</ele>
  <time>2026-09-01T19:53:10Z</time>
  <course>180.19</course>
  <speed>1.650272704737008</speed>
  <fix>3d</fix>
</trkpt>
<trkpt lat="-27.2745494" lon="151.2900709">
  <ele>362.32</ele>
  <time>2026-09-01T19:53:10Z</time>
  <course>177.99</course>
  <speed>1.65</speed>
  <fix>3d</fix>
</trkpt>
<trkpt lat="-27.2745524" lon="151.2900707">
  <ele>362.65</ele>
  <time>2026-09-01T19:53:10Z</time>
  <course>180.2</course>
  <speed>1.650272704737008</speed>
  <fix>3d</fix>
</trkpt>
<trkpt lat="-27.2745535" lon="151.2900708">
  <ele>362.75</ele>
  <time>2026-09-01T19:53:10Z</time>
  <course>180.2</course>
  <speed>1.6602710622064096</speed>
  <fix>3d</fix>
</trkpt>
<trkpt lat="-27.2745494" lon="151.2900709">
  <ele>362.32</ele>
  <time>2026-09-01T19:53:10Z</time>
  <course>177.99</course>
  <speed>1.65</speed>
  <fix>3d</fix>
</trkpt>
<trkpt lat="-27.2745535" lon="151.2900708">
  <ele>362.76</ele>
  <time>2026-09-01T19:53:10Z</time>
  <course>180.2</course>
  <speed>1.6602710622064096</speed>
  <fix>3d</fix>
</trkpt>
<trkpt lat="-27.274555" lon="151.2900708">
  <ele>362.9</ele>
  <time>2026-09-01T19:53:10Z</time>
  <course>180.21</course>
  <speed>1.6802678357928535</speed>
  <fix>3d</fix>
</trkpt>
<trkpt lat="-27.2745524" lon="151.290071">
  <ele>362.61</ele>
  <time>2026-09-01T19:53:10Z</time>
  <course>178.03</course>
  <speed>1.68</speed>
  <fix>3d</fix>
</trkpt>
<trkpt lat="-27.2745554" lon="151.2900708">
  <ele>362.93</ele>
  <time>2026-09-01T19:53:10Z</time>
  <course>180.21</course>
  <speed>1.6802678357928535</speed>
  <fix>3d</fix>
</trkpt>
<trkpt lat="-27.2745566" lon="151.2900709">
  <ele>363.04</ele>
  <time>2026-09-01T19:53:10Z</time>
  <course>180.21</course>
  <speed>1.690266251216062</speed>
  <fix>3d</fix>
</trkpt>
<trkpt lat="-27.2745524" lon="151.290071">
  <ele>362.61</ele>
  <time>2026-09-01T19:53:10Z</time>
  <course>178.03</course>
  <speed>1.68</speed>
  <fix>3d</fix>
</trkpt>
<trkpt lat="-27.2745566" lon="151.2900709">
  <ele>363.04</ele>
  <time>2026-09-01T19:53:10Z</time>
  <course>180.21</course>
  <speed>1.690266251216062</speed>
  <fix>3d</fix>
</trkpt>
<trkpt lat="-27.2745581" lon="151.2900709">
  <ele>363.18</ele>
  <time>2026-09-01T19:53:10Z</time>
  <course>180.2</course>
  <speed>1.7002646852769718</speed>
  <fix>3d</fix>
</trkpt>
<trkpt lat="-27.2745554" lon="151.2900711">
  <ele>362.9</ele>
  <time>2026-09-01T19:53:10Z</time>
  <course>178.06</course>
  <speed>1.71</speed>
  <fix>3d</fix>
</trkpt>
<trkpt lat="-27.2745585" lon="151.290071">
  <ele>363.22</ele>
  <time>2026-09-01T19:53:10Z</time>
  <course>180.2</course>
  <speed>1.710263137648707</speed>
  <fix>3d</fix>
</trkpt>
<trkpt lat="-27.2745597" lon="151.290071">
  <ele>363.32</ele>
  <time>2026-09-01T19:53:10Z</time>
  <course>180.19</course>
  <speed>1.7202616080119908</speed>
  <fix>3d</fix>
</trkpt>
<trkpt lat="-27.2745554" lon="151.2900711">
  <ele>362.9</ele>
  <time>2026-09-01T19:53:10Z</time>
  <course>178.06</course>
  <speed>1.71</speed>
  <fix>3d</fix>
</trkpt>
<trkpt lat="-27.2745601" lon="151.290071">
  <ele>363.36</ele>
  <time>2026-09-01T19:53:10Z</time>
  <course>180.19</course>
  <speed>1.7202616080119908</speed>
  <fix>3d</fix>
</trkpt>
<trkpt lat="-27.2745613" lon="151.2900711">
  <ele>363.46</ele>
  <time>2026-09-01T19:53:10Z</time>
  <course>180.19</course>
  <speed>1.7302600960549257</speed>
  <fix>3d</fix>
</trkpt>
<trkpt lat="-27.2745585" lon="151.2900713">
  <ele>363.19</ele>
  <time>2026-09-01T19:53:10Z</time>
  <course>178.08</course>
  <speed>1.74</speed>
  <fix>3d</fix>
</trkpt>
<trkpt lat="-27.2745617" lon="151.2900711">
  <ele>363.5</ele>
  <time>2026-09-01T19:53:10Z</time>
  <course>180.18</course>
  <speed>1.740258601472781</speed>
  <fix>3d</fix>
</trkpt>
<trkpt lat="-27.2745628" lon="151.2900711">
  <ele>363.61</ele>
  <time>2026-09-01T19:53:10Z</time>
  <course>180.18</course>
  <speed>1.75025712396779</speed>
  <fix>3d</fix>
</trkpt>
<trkpt lat="-27.2745585" lon="151.2900713">
  <ele>363.19</ele>
  <time>2026-09-01T19:53:10Z</time>
  <course>178.08</course>
  <speed>1.74</speed>
  <fix>3d</fix>
</trkpt>
<trkpt lat="-27.2745633" lon="151.2900711">
  <ele>363.65</ele>
  <time>2026-09-01T19:53:10Z</time>
  <course>180.18</course>
  <speed>1.75025712396779</speed>
  <fix>3d</fix>
</trkpt>
<trkpt lat="-27.2745644" lon="151.2900712">
  <ele>363.75</ele>
  <time>2026-09-01T19:53:10Z</time>
  <course>180.18</course>
  <speed>1.7602556632489499</speed>
  <fix>3d</fix>
</trkpt>
<trkpt lat="-27.2745617" lon="151.2900714">
  <ele>363.47</ele>
  <time>2026-09-01T19:53:10Z</time>
  <course>178.09</course>
  <speed>1.76</speed>
  <fix>3d</fix>
</trkpt>
<trkpt lat="-27.2745649" lon="151.2900712">
  <ele>363.79</ele>
  <time>2026-09-01T19:53:10Z</time>
  <course>180.18</course>
  <speed>1.7702542190318318</speed>
  <fix>3d</fix>
</trkpt>
<trkpt lat="-27.2745661" lon="151.2900712">
  <ele>363.89</ele>
  <time>2026-09-01T19:53:10Z</time>
  <course>180.18</course>
  <speed>1.7802527910383963</speed>
  <fix>3d</fix>
</trkpt>
<trkpt lat="-27.2745617" lon="151.2900714">
  <ele>363.47</ele>
  <time>2026-09-01T19:53:10Z</time>
  <course>178.09</course>
  <speed>1.76</speed>
  <fix>3d</fix>
</trkpt>
<trkpt lat="-27.2745664" lon="151.2900713">
  <ele>363.93</ele>
  <time>2026-09-01T19:53:10Z</time>
  <course>180.18</course>
  <speed>1.7802527910383963</speed>
  <fix>3d</fix>
</trkpt>
<trkpt lat="-27.2745677" lon="151.2900713">
  <ele>364.04</ele>
  <time>2026-09-01T19:53:10Z</time>
  <course>180.17</course>
  <speed>1.7902513789968157</speed>
  <fix>3d</fix>
</trkpt>
<trkpt lat="-27.2745649" lon="151.2900715">
  <ele>363.76</ele>
  <time>2026-09-01T19:53:10Z</time>
  <course>178.11</course>
  <speed>1.79</speed>
  <fix>3d</fix>
</trkpt>
<trkpt lat="-27.2745681" lon="151.2900713">
  <ele>364.08</ele>
  <time>2026-09-01T19:53:10Z</time>
  <course>180.17</course>
  <speed>1.7902513789968157</speed>
  <fix>3d</fix>
</trkpt>
<trkpt lat="-27.2745693" lon="151.2900714">
  <ele>364.18</ele>
  <time>2026-09-01T19:53:10Z</time>
  <course>180.17</course>
  <speed>1.8102486017119306</speed>
  <fix>3d</fix>
</trkpt>
<trkpt lat="-27.2745649" lon="151.2900715">
  <ele>363.76</ele>
  <time>2026-09-01T19:53:10Z</time>
  <course>178.11</course>
  <speed>1.79</speed>
  <fix>3d</fix>
</trkpt>
<trkpt lat="-27.2745697" lon="151.2900714">
  <ele>364.22</ele>
  <time>2026-09-01T19:53:10Z</time>
  <course>180.16</course>
  <speed>1.8102486017119306</speed>
  <fix>3d</fix>
</trkpt>
<trkpt lat="-27.274571" lon="151.2900714">
  <ele>364.33</ele>
  <time>2026-09-01T19:53:10Z</time>
  <course>180.16</course>
  <speed>1.8202472359545008</speed>
  <fix>3d</fix>
</trkpt>
<trkpt lat="-27.2745681" lon="151.2900716">
  <ele>364.05</ele>
  <time>2026-09-01T19:53:10Z</time>
  <course>178.13</course>
  <speed>1.82</speed>
  <fix>3d</fix>
</trkpt>
<trkpt lat="-27.2745711" lon="151.2900714">
  <ele>364.33</ele>
  <time>2026-09-01T19:53:10Z</time>
  <course>180.16</course>
  <speed>1.8202472359545008</speed>
  <fix>3d</fix>
</trkpt>
<trkpt lat="-27.2745727" lon="151.2900715">
  <ele>364.47</ele>
  <time>2026-09-01T19:53:10Z</time>
  <course>180.16</course>
  <speed>1.840244548966251</speed>
  <fix>3d</fix>
</trkpt>
<trkpt lat="-27.2745681" lon="151.2900716">
  <ele>364.05</ele>
  <time>2026-09-01T19:53:10Z</time>
  <course>178.13</course>
  <speed>1.82</speed>
  <fix>3d</fix>
</trkpt>
<trkpt lat="-27.2745727" lon="151.2900715">
  <ele>364.48</ele>
  <time>2026-09-01T19:53:10Z</time>
  <course>180.16</course>
  <speed>1.840244548966251</speed>
  <fix>3d</fix>
</trkpt>
<trkpt lat="-27.2745743" lon="151.2900716">
  <ele>364.62</ele>
  <time>2026-09-01T19:53:10Z</time>
  <course>180.15</course>
  <speed>1.8502432272541898</speed>
  <fix>3d</fix>
</trkpt>
<trkpt lat="-27.2745714" lon="151.2900717">
  <ele>364.34</ele>
  <time>2026-09-01T19:53:10Z</time>
  <course>178.15</course>
  <speed>1.85</speed>
  <fix>3d</fix>
</trkpt>
<trkpt lat="-27.2745748" lon="151.2900716">
  <ele>364.66</ele>
  <time>2026-09-01T19:53:10Z</time>
  <course>180.15</course>
  <speed>1.8502432272541898</speed>
  <fix>3d</fix>
</trkpt>
<trkpt lat="-27.274576" lon="151.2900716">
  <ele>364.76</ele>
  <time>2026-09-01T19:53:10Z</time>
  <course>180.15</course>
  <speed>1.8702406262296838</speed>
  <fix>3d</fix>
</trkpt>
<trkpt lat="-27.2745714" lon="151.2900717">
  <ele>364.34</ele>
  <time>2026-09-01T19:53:10Z</time>
  <course>178.15</course>
  <speed>1.85</speed>
  <fix>3d</fix>
</trkpt>
<trkpt lat="-27.2745765" lon="151.2900716">
  <ele>364.8</ele>
  <time>2026-09-01T19:53:10Z</time>
  <course>180.15</course>
  <speed>1.8702406262296838</speed>
  <fix>3d</fix>
</trkpt>
<trkpt lat="-27.2745778" lon="151.2900717">
  <ele>364.91</ele>
  <time>2026-09-01T19:53:10Z</time>
  <course>180.16</course>
  <speed>1.880239346466295</speed>
  <fix>3d</fix>
</trkpt>
<trkpt lat="-27.2745747" lon="151.2900718">
  <ele>364.63</ele>
  <time>2026-09-01T19:53:10Z</time>
  <course>178.17</course>
  <speed>1.88</speed>
  <fix>3d</fix>
</trkpt>
<trkpt lat="-27.2745782" lon="151.2900717">
  <ele>364.95</ele>
  <time>2026-09-01T19:53:10Z</time>
  <course>180.16</course>
  <speed>1.8902380802428036</speed>
  <fix>3d</fix>
</trkpt>
<trkpt lat="-27.2745795" lon="151.2900717">
  <ele>365.05</ele>
  <time>2026-09-01T19:53:10Z</time>
  <course>180.17</course>
  <speed>1.9002368273454757</speed>
  <fix>3d</fix>
</trkpt>
<trkpt lat="-27.2745747" lon="151.2900718">
  <ele>364.63</ele>
  <time>2026-09-01T19:53:10Z</time>
  <course>178.17</course>
  <speed>1.88</speed>
  <fix>3d</fix>
</trkpt>
<trkpt lat="-27.27458" lon="151.2900718">
  <ele>365.09</ele>
  <time>2026-09-01T19:53:10Z</time>
  <course>180.17</course>
  <speed>1.9002368273454757</speed>
  <fix>3d</fix>
</trkpt>
<trkpt lat="-27.2745812" lon="151.2900718">
  <ele>365.2</ele>
  <time>2026-09-01T19:53:10Z</time>
  <course>180.18</course>
  <speed>1.9102355875650523</speed>
  <fix>3d</fix>
</trkpt>
<trkpt lat="-27.2745782" lon="151.290072">
  <ele>364.91</ele>
  <time>2026-09-01T19:53:10Z</time>
  <course>178.19</course>
  <speed>1.91</speed>
  <fix>3d</fix>
</trkpt>
<trkpt lat="-27.2745817" lon="151.2900718">
  <ele>365.24</ele>
  <time>2026-09-01T19:53:10Z</time>
  <course>180.19</course>
  <speed>1.9202343606966312</speed>
  <fix>3d</fix>
</trkpt>
<trkpt lat="-27.274583" lon="151.2900719">
  <ele>365.34</ele>
  <time>2026-09-01T19:53:10Z</time>
  <course>180.2</course>
  <speed>1.9302331465395575</speed>
  <fix>3d</fix>
</trkpt>
<trkpt lat="-27.2745782" lon="151.290072">
  <ele>364.91</ele>
  <time>2026-09-01T19:53:10Z</time>
  <course>178.19</course>
  <speed>1.91</speed>
  <fix>3d</fix>
</trkpt>
<trkpt lat="-27.2745834" lon="151.2900719">
  <ele>365.38</ele>
  <time>2026-09-01T19:53:10Z</time>
  <course>180.2</course>
  <speed>1.9302331465395575</speed>
  <fix>3d</fix>
</trkpt>
<trkpt lat="-27.2745848" lon="151.2900719">
  <ele>365.49</ele>
  <time>2026-09-01T19:53:10Z</time>
  <course>180.21</course>
  <speed>1.950230755577401</speed>
  <fix>3d</fix>
</trkpt>
<trkpt lat="-27.2745817" lon="151.2900721">
  <ele>365.2</ele>
  <time>2026-09-01T19:53:10Z</time>
  <course>178.2</course>
  <speed>1.94</speed>
  <fix>3d</fix>
</trkpt>
<trkpt lat="-27.2745852" lon="151.2900719">
  <ele>365.52</ele>
  <time>2026-09-01T19:53:10Z</time>
  <course>180.21</course>
  <speed>1.950230755577401</speed>
  <fix>3d</fix>
</trkpt>
<trkpt lat="-27.2745865" lon="151.290072">
  <ele>365.63</ele>
  <time>2026-09-01T19:53:10Z</time>
  <course>180.22</course>
  <speed>1.9602295783912658</speed>
  <fix>3d</fix>
</trkpt>
<trkpt lat="-27.2745817" lon="151.2900721">
  <ele>365.2</ele>
  <time>2026-09-01T19:53:10Z</time>
  <course>178.2</course>
  <speed>1.94</speed>
  <fix>3d</fix>
</trkpt>
<trkpt lat="-27.274587" lon="151.290072">
  <ele>365.67</ele>
  <time>2026-09-01T19:53:10Z</time>
  <course>180.22</course>
  <speed>1.9702284131541703</speed>
  <fix>3d</fix>
</trkpt>
<trkpt lat="-27.2745883" lon="151.290072">
  <ele>365.77</ele>
  <time>2026-09-01T19:53:10Z</time>
  <course>180.21</course>
  <speed>1.98022725968511</speed>
  <fix>3d</fix>
</trkpt>
<trkpt lat="-27.2745852" lon="151.2900722">
  <ele>365.49</ele>
  <time>2026-09-01T19:53:10Z</time>
  <course>178.23</course>
  <speed>1.97</speed>
  <fix>3d</fix>
</trkpt>
<trkpt lat="-27.2745888" lon="151.2900721">
  <ele>365.81</ele>
  <time>2026-09-01T19:53:10Z</time>
  <course>180.21</course>
  <speed>1.98022725968511</speed>
  <fix>3d</fix>
</trkpt>
<trkpt lat="-27.2745902" lon="151.2900721">
  <ele>365.91</ele>
  <time>2026-09-01T19:53:10Z</time>
  <course>180.2</course>
  <speed>1.990226117806718</speed>
  <fix>3d</fix>
</trkpt>
<trkpt lat="-27.2745852" lon="151.2900722">
  <ele>365.49</ele>
  <time>2026-09-01T19:53:10Z</time>
  <course>178.23</course>
  <speed>1.97</speed>
  <fix>3d</fix>
</trkpt>
<trkpt lat="-27.2745902" lon="151.2900721">
  <ele>365.92</ele>
  <time>2026-09-01T19:53:10Z</time>
  <course>180.2</course>
  <speed>1.990226117806718</speed>
  <fix>3d</fix>
</trkpt>
<trkpt lat="-27.274592" lon="151.2900722">
  <ele>366.05</ele>
  <time>2026-09-01T19:53:10Z</time>
  <course>180.19</course>
  <speed>2.0102238681301143</speed>
  <fix>3d</fix>
</trkpt>
<trkpt lat="-27.2745888" lon="151.2900723">
  <ele>365.78</ele>
  <time>2026-09-01T19:53:10Z</time>
  <course>178.29</course>
  <speed>2.01</speed>
  <fix>3d</fix>
</trkpt>
<trkpt lat="-27.2745921" lon="151.2900722">
  <ele>366.06</ele>
  <time>2026-09-01T19:53:10Z</time>
  <course>180.19</course>
  <speed>2.0102238681301143</speed>
  <fix>3d</fix>
</trkpt>
<trkpt lat="-27.2745938" lon="151.2900722">
  <ele>366.19</ele>
  <time>2026-09-01T19:53:10Z</time>
  <course>180.18</course>
  <speed>2.0302216627747818</speed>
  <fix>3d</fix>
</trkpt>
<trkpt lat="-27.2745888" lon="151.2900723">
  <ele>365.78</ele>
  <time>2026-09-01T19:53:10Z</time>
  <course>178.29</course>
  <speed>2.01</speed>
  <fix>3d</fix>
</trkpt>
<trkpt lat="-27.2745945" lon="151.2900722">
  <ele>366.24</ele>
  <time>2026-09-01T19:53:10Z</time>
  <course>180.18</course>
  <speed>2.0302216627747818</speed>
  <fix>3d</fix>
</trkpt>
<trkpt lat="-27.2745957" lon="151.2900723">
  <ele>366.34</ele>
  <time>2026-09-01T19:53:10Z</time>
  <course>180.17</course>
  <speed>2.0402205763103165</speed>
  <fix>3d</fix>
</trkpt>
<trkpt lat="-27.2745924" lon="151.2900725">
  <ele>366.07</ele>
  <time>2026-09-01T19:53:10Z</time>
  <course>178.34</course>
  <speed>2.04</speed>
  <fix>3d</fix>
</trkpt>
<trkpt lat="-27.2745963" lon="151.2900723">
  <ele>366.38</ele>
  <time>2026-09-01T19:53:10Z</time>
  <course>180.17</course>
  <speed>2.0502195004437938</speed>
  <fix>3d</fix>
</trkpt>
<trkpt lat="-27.2745976" lon="151.2900723">
  <ele>366.48</ele>
  <time>2026-09-01T19:53:10Z</time>
  <course>180.17</course>
  <speed>2.060218435020908</speed>
  <fix>3d</fix>
</trkpt>
<trkpt lat="-27.2745924" lon="151.2900725">
  <ele>366.07</ele>
  <time>2026-09-01T19:53:10Z</time>
  <course>178.34</course>
  <speed>2.04</speed>
  <fix>3d</fix>
</trkpt>
<trkpt lat="-27.274598" lon="151.2900724">
  <ele>366.51</ele>
  <time>2026-09-01T19:53:10Z</time>
  <course>180.17</course>
  <speed>2.0702173798903343</speed>
  <fix>3d</fix>
</trkpt>
<trkpt lat="-27.2745995" lon="151.2900724">
  <ele>366.62</ele>
  <time>2026-09-01T19:53:10Z</time>
  <course>180.16</course>
  <speed>2.080216334903656</speed>
  <fix>3d</fix>
</trkpt>
<trkpt lat="-27.2745961" lon="151.2900726">
  <ele>366.35</ele>
  <time>2026-09-01T19:53:10Z</time>
  <course>178.39</course>
  <speed>2.07</speed>
  <fix>3d</fix>
</trkpt>
<trkpt lat="-27.2746" lon="151.2900724">
  <ele>366.66</ele>
  <time>2026-09-01T19:53:10Z</time>
  <course>180.16</course>
  <speed>2.080216334903656</speed>
  <fix>3d</fix>
</trkpt>
<trkpt lat="-27.2746014" lon="151.2900725">
  <ele>366.76</ele>
  <time>2026-09-01T19:53:10Z</time>
  <course>180.17</course>
  <speed>2.1002142747824566</speed>
  <fix>3d</fix>
</trkpt>
<trkpt lat="-27.2745961" lon="151.2900726">
  <ele>366.35</ele>
  <time>2026-09-01T19:53:10Z</time>
  <course>178.39</course>
  <speed>2.07</speed>
  <fix>3d</fix>
</trkpt>
<trkpt lat="-27.2746019" lon="151.2900725">
  <ele>366.8</ele>
  <time>2026-09-01T19:53:10Z</time>
  <course>180.17</course>
  <speed>2.1002142747824566</speed>
  <fix>3d</fix>
</trkpt>
<trkpt lat="-27.2746033" lon="151.2900725">
  <ele>366.9</ele>
  <time>2026-09-01T19:53:10Z</time>
  <course>180.16</course>
  <speed>2.110213259365034</speed>
  <fix>3d</fix>
</trkpt>
<trkpt lat="-27.2745999" lon="151.2900727">
  <ele>366.64</ele>
  <time>2026-09-01T19:53:10Z</time>
  <course>178.44</course>
  <speed>2.11</speed>
  <fix>3d</fix>
</trkpt>
<trkpt lat="-27.2746038" lon="151.2900725">
  <ele>366.94</ele>
  <time>2026-09-01T19:53:10Z</time>
  <course>180.16</course>
  <speed>2.1202122535255756</speed>
  <fix>3d</fix>
</trkpt>
<trkpt lat="-27.2746052" lon="151.2900726">
  <ele>367.05</ele>
  <time>2026-09-01T19:53:10Z</time>
  <course>180.16</course>
  <speed>2.130211257129208</speed>
  <fix>3d</fix>
</trkpt>
<trkpt lat="-27.2745999" lon="151.2900727">
  <ele>366.64</ele>
  <time>2026-09-01T19:53:10Z</time>
  <course>178.44</course>
  <speed>2.11</speed>
  <fix>3d</fix>
</trkpt>
<trkpt lat="-27.2746053" lon="151.2900726">
  <ele>367.05</ele>
  <time>2026-09-01T19:53:10Z</time>
  <course>180.17</course>
  <speed>2.130211257129208</speed>
  <fix>3d</fix>
</trkpt>
<trkpt lat="-27.2746072" lon="151.2900726">
  <ele>367.2</ele>
  <time>2026-09-01T19:53:10Z</time>
  <course>180.16</course>
  <speed>2.1502092921387908</speed>
  <fix>3d</fix>
</trkpt>
<trkpt lat="-27.2746037" lon="151.2900728">
  <ele>366.93</ele>
  <time>2026-09-01T19:53:10Z</time>
  <course>178.48</course>
  <speed>2.14</speed>
  <fix>3d</fix>
</trkpt>
<trkpt lat="-27.2746073" lon="151.2900726">
  <ele>367.2</ele>
  <time>2026-09-01T19:53:10Z</time>
  <course>180.16</course>
  <speed>2.1502092921387908</speed>
  <fix>3d</fix>
</trkpt>
<trkpt lat="-27.2746092" lon="151.2900727">
  <ele>367.34</ele>
  <time>2026-09-01T19:53:10Z</time>
  <course>180.17</course>
  <speed>2.1702073633641557</speed>
  <fix>3d</fix>
</trkpt>
<trkpt lat="-27.2746037" lon="151.2900728">
  <ele>366.93</ele>
  <time>2026-09-01T19:53:10Z</time>
  <course>178.48</course>
  <speed>2.14</speed>
  <fix>3d</fix>
</trkpt>
<trkpt lat="-27.2746092" lon="151.2900727">
  <ele>367.35</ele>
  <time>2026-09-01T19:53:10Z</time>
  <course>180.17</course>
  <speed>2.1702073633641557</speed>
  <fix>3d</fix>
</trkpt>
<trkpt lat="-27.2746111" lon="151.2900728">
  <ele>367.48</ele>
  <time>2026-09-01T19:53:10Z</time>
  <course>180.17</course>
  <speed>2.1902054698132774</speed>
  <fix>3d</fix>
</trkpt>
<trkpt lat="-27.2746076" lon="151.2900729">
  <ele>367.21</ele>
  <time>2026-09-01T19:53:10Z</time>
  <course>178.52</course>
  <speed>2.18</speed>
  <fix>3d</fix>
</trkpt>
<trkpt lat="-27.2746112" lon="151.2900728">
  <ele>367.49</ele>
  <time>2026-09-01T19:53:10Z</time>
  <course>180.17</course>
  <speed>2.1902054698132774</speed>
  <fix>3d</fix>
</trkpt>
<trkpt lat="-27.2746131" lon="151.2900728">
  <ele>367.63</ele>
  <time>2026-09-01T19:53:10Z</time>
  <course>180.16</course>
  <speed>2.2102036105300344</speed>
  <fix>3d</fix>
</trkpt>
<trkpt lat="-27.2746076" lon="151.2900729">
  <ele>367.21</ele>
  <time>2026-09-01T19:53:10Z</time>
  <course>178.52</course>
  <speed>2.18</speed>
  <fix>3d</fix>
</trkpt>
<trkpt lat="-27.2746137" lon="151.2900728">
  <ele>367.67</ele>
  <time>2026-09-01T19:53:10Z</time>
  <course>180.16</course>
  <speed>2.2102036105300344</speed>
  <fix>3d</fix>
</trkpt>
<trkpt lat="-27.2746152" lon="151.2900729">
  <ele>367.77</ele>
  <time>2026-09-01T19:53:10Z</time>
  <course>180.16</course>
  <speed>2.230201784592596</speed>
  <fix>3d</fix>
</trkpt>
<trkpt lat="-27.2746116" lon="151.290073">
  <ele>367.5</ele>
  <time>2026-09-01T19:53:10Z</time>
  <course>178.55</course>
  <speed>2.21</speed>
  <fix>3d</fix>
</trkpt>
<trkpt lat="-27.2746158" lon="151.2900729">
  <ele>367.82</ele>
  <time>2026-09-01T19:53:10Z</time>
  <course>180.15</course>
  <speed>2.230201784592596</speed>
  <fix>3d</fix>
</trkpt>
<trkpt lat="-27.2746172" lon="151.2900729">
  <ele>367.92</ele>
  <time>2026-09-01T19:53:10Z</time>
  <course>180.15</course>
  <speed>2.240200883849482</speed>
  <fix>3d</fix>
</trkpt>
<trkpt lat="-27.2746116" lon="151.290073">
  <ele>367.5</ele>
  <time>2026-09-01T19:53:10Z</time>
  <course>178.55</course>
  <speed>2.21</speed>
  <fix>3d</fix>
</trkpt>
<trkpt lat="-27.2746178" lon="151.2900729">
  <ele>367.96</ele>
  <time>2026-09-01T19:53:10Z</time>
  <course>180.15</course>
  <speed>2.2501999911119013</speed>
  <fix>3d</fix>
</trkpt>
<trkpt lat="-27.2746193" lon="151.290073">
  <ele>368.06</ele>
  <time>2026-09-01T19:53:10Z</time>
  <course>180.15</course>
  <speed>2.2601991062736047</speed>
  <fix>3d</fix>
</trkpt>
<trkpt lat="-27.2746156" lon="151.2900732">
  <ele>367.79</ele>
  <time>2026-09-01T19:53:10Z</time>
  <course>178.58</course>
  <speed>2.25</speed>
  <fix>3d</fix>
</trkpt>
<trkpt lat="-27.2746199" lon="151.290073">
  <ele>368.11</ele>
  <time>2026-09-01T19:53:10Z</time>
  <course>180.15</course>
  <speed>2.270198229230214</speed>
  <fix>3d</fix>
</trkpt>
<trkpt lat="-27.2746214" lon="151.290073">
  <ele>368.21</ele>
  <time>2026-09-01T19:53:10Z</time>
  <course>180.16</course>
  <speed>2.2801973598791836</speed>
  <fix>3d</fix>
</trkpt>
<trkpt lat="-27.2746156" lon="151.2900732">
  <ele>367.79</ele>
  <time>2026-09-01T19:53:10Z</time>
  <course>178.58</course>
  <speed>2.25</speed>
  <fix>3d</fix>
</trkpt>
<trkpt lat="-27.2746217" lon="151.290073">
  <ele>368.23</ele>
  <time>2026-09-01T19:53:10Z</time>
  <course>180.16</course>
  <speed>2.2901964981197573</speed>
  <fix>3d</fix>
</trkpt>
<trkpt lat="-27.2746235" lon="151.2900731">
  <ele>368.35</ele>
  <time>2026-09-01T19:53:10Z</time>
  <course>180.16</course>
  <speed>2.300195643852931</speed>
  <fix>3d</fix>
</trkpt>
<trkpt lat="-27.2746197" lon="151.2900733">
  <ele>368.08</ele>
  <time>2026-09-01T19:53:10Z</time>
  <course>178.62</course>
  <speed>2.29</speed>
  <fix>3d</fix>
</trkpt>
<trkpt lat="-27.2746238" lon="151.2900731">
  <ele>368.38</ele>
  <time>2026-09-01T19:53:10Z</time>
  <course>180.16</course>
  <speed>2.3101947969814147</speed>
  <fix>3d</fix>
</trkpt>
<trkpt lat="-27.2746256" lon="151.2900731">
  <ele>368.5</ele>
  <time>2026-09-01T19:53:11Z</time>
  <course>180.16</course>
  <speed>2.3201939574095958</speed>
  <fix>3d</fix>
</trkpt>
<trkpt lat="-27.2746197" lon="151.2900733">
  <ele>368.08</ele>
  <time>2026-09-01T19:53:11Z</time>
  <course>178.62</course>
  <speed>2.29</speed>
  <fix>3d</fix>
</trkpt>
<trkpt lat="-27.2746261" lon="151.2900732">
  <ele>368.54</ele>
  <time>2026-09-01T19:53:11Z</time>
  <course>180.16</course>
  <speed>2.3301931250435017</speed>
  <fix>3d</fix>
</trkpt>
<trkpt lat="-27.2746277" lon="151.2900732">
  <ele>368.64</ele>
  <time>2026-09-01T19:53:11Z</time>
  <course>180.16</course>
  <speed>2.3401922997907674</speed>
  <fix>3d</fix>
</trkpt>
<trkpt lat="-27.2746238" lon="151.2900734">
  <ele>368.37</ele>
  <time>2026-09-01T19:53:11Z</time>
  <course>178.68</course>
  <speed>2.33</speed>
  <fix>3d</fix>
</trkpt>
<trkpt lat="-27.2746283" lon="151.2900732">
  <ele>368.68</ele>
  <time>2026-09-01T19:53:11Z</time>
  <course>180.16</course>
  <speed>2.350191481560598</speed>
  <fix>3d</fix>
</trkpt>
<trkpt lat="-27.2746298" lon="151.2900733">
  <ele>368.78</ele>
  <time>2026-09-01T19:53:11Z</time>
  <course>180.16</course>
  <speed>2.360084744241189</speed>
  <fix>3d</fix>
</trkpt>
<trkpt lat="-27.2746238" lon="151.2900734">
  <ele>368.37</ele>
  <time>2026-09-01T19:53:11Z</time>
  <course>178.68</course>
  <speed>2.33</speed>
  <fix>3d</fix>
</trkpt>
<trkpt lat="-27.2746304" lon="151.2900733">
  <ele>368.82</ele>
  <time>2026-09-01T19:53:11Z</time>
  <course>180.16</course>
  <speed>2.3700843866833097</speed>
  <fix>3d</fix>
</trkpt>
<trkpt lat="-27.274632" lon="151.2900733">
  <ele>368.93</ele>
  <time>2026-09-01T19:53:11Z</time>
  <course>180.16</course>
  <speed>2.3800840321299583</speed>
  <fix>3d</fix>
</trkpt>
<trkpt lat="-27.274628" lon="151.2900735">
  <ele>368.66</ele>
  <time>2026-09-01T19:53:11Z</time>
  <course>178.72</course>
  <speed>2.36</speed>
  <fix>3d</fix>
</trkpt>
<trkpt lat="-27.2746321" lon="151.2900733">
  <ele>368.93</ele>
  <time>2026-09-01T19:53:11Z</time>
  <course>180.16</course>
  <speed>2.3800840321299583</speed>
  <fix>3d</fix>
</trkpt>
<trkpt lat="-27.2746342" lon="151.2900734">
  <ele>369.07</ele>
  <time>2026-09-01T19:53:11Z</time>
  <course>180.16</course>
  <speed>2.4000833318866244</speed>
  <fix>3d</fix>
</trkpt>
<trkpt lat="-27.274628" lon="151.2900735">
  <ele>368.66</ele>
  <time>2026-09-01T19:53:11Z</time>
  <course>178.72</course>
  <speed>2.36</speed>
  <fix>3d</fix>
</trkpt>
<trkpt lat="-27.2746348" lon="151.2900734">
  <ele>369.11</ele>
  <time>2026-09-01T19:53:11Z</time>
  <course>180.16</course>
  <speed>2.410082986123092</speed>
  <fix>3d</fix>
</trkpt>
<trkpt lat="-27.2746364" lon="151.2900734">
  <ele>369.21</ele>
  <time>2026-09-01T19:53:11Z</time>
  <course>180.16</course>
  <speed>2.4200826432169626</speed>
  <fix>3d</fix>
</trkpt>
<trkpt lat="-27.2746323" lon="151.2900736">
  <ele>368.95</ele>
  <time>2026-09-01T19:53:11Z</time>
  <course>178.77</course>
  <speed>2.4</speed>
  <fix>3d</fix>
</trkpt>
<trkpt lat="-27.2746365" lon="151.2900734">
  <ele>369.22</ele>
  <time>2026-09-01T19:53:11Z</time>
  <course>180.16</course>
  <speed>2.4200826432169626</speed>
  <fix>3d</fix>
</trkpt>
<trkpt lat="-27.2746386" lon="151.2900735">
  <ele>369.36</ele>
  <time>2026-09-01T19:53:11Z</time>
  <course>180.16</course>
  <speed>2.4400819658363937</speed>
  <fix>3d</fix>
</trkpt>
<trkpt lat="-27.2746323" lon="151.2900736">
  <ele>368.95</ele>
  <time>2026-09-01T19:53:11Z</time>
  <course>178.77</course>
  <speed>2.4</speed>
  <fix>3d</fix>
</trkpt>
<trkpt lat="-27.274639" lon="151.2900735">
  <ele>369.39</ele>
  <time>2026-09-01T19:53:11Z</time>
  <course>180.16</course>
  <speed>2.450081631293129</speed>
  <fix>3d</fix>
</trkpt>
<trkpt lat="-27.2746408" lon="151.2900735">
  <ele>369.5</ele>
  <time>2026-09-01T19:53:11Z</time>
  <course>180.16</course>
  <speed>2.460081299469593</speed>
  <fix>3d</fix>
</trkpt>
<trkpt lat="-27.2746367" lon="151.2900737">
  <ele>369.23</ele>
  <time>2026-09-01T19:53:11Z</time>
  <course>178.82</course>
  <speed>2.44</speed>
  <fix>3d</fix>
</trkpt>
<trkpt lat="-27.2746413" lon="151.2900735">
  <ele>369.53</ele>
  <time>2026-09-01T19:53:11Z</time>
  <course>180.16</course>
  <speed>2.470080970332754</speed>
  <fix>3d</fix>
</trkpt>
<trkpt lat="-27.2746431" lon="151.2900736">
  <ele>369.64</ele>
  <time>2026-09-01T19:53:11Z</time>
  <course>180.16</course>
  <speed>2.4900803199896986</speed>
  <fix>3d</fix>
</trkpt>
<trkpt lat="-27.2746367" lon="151.2900737">
  <ele>369.23</ele>
  <time>2026-09-01T19:53:11Z</time>
  <course>178.82</course>
  <speed>2.44</speed>
  <fix>3d</fix>
</trkpt>
<trkpt lat="-27.2746434" lon="151.2900736">
  <ele>369.66</ele>
  <time>2026-09-01T19:53:11Z</time>
  <course>180.16</course>
  <speed>2.4900803199896986</speed>
  <fix>3d</fix>
</trkpt>
<trkpt lat="-27.2746453" lon="151.2900736">
  <ele>369.78</ele>
  <time>2026-09-01T19:53:11Z</time>
  <course>180.16</course>
  <speed>2.5100796800101786</speed>
  <fix>3d</fix>
</trkpt>
<trkpt lat="-27.2746411" lon="151.2900738">
  <ele>369.52</ele>
  <time>2026-09-01T19:53:11Z</time>
  <course>178.87</course>
  <speed>2.49</speed>
  <fix>3d</fix>
</trkpt>
<trkpt lat="-27.2746459" lon="151.2900736">
  <ele>369.82</ele>
  <time>2026-09-01T19:53:11Z</time>
  <course>180.16</course>
  <speed>2.5100796800101786</speed>
  <fix>3d</fix>
</trkpt>
<trkpt lat="-27.2746476" lon="151.2900737">
  <ele>369.93</ele>
  <time>2026-09-01T19:53:11Z</time>
  <course>180.16</course>
  <speed>2.5300790501484336</speed>
  <fix>3d</fix>
</trkpt>
<trkpt lat="-27.2746411" lon="151.2900738">
  <ele>369.52</ele>
  <time>2026-09-01T19:53:11Z</time>
  <course>178.87</course>
  <speed>2.49</speed>
  <fix>3d</fix>
</trkpt>
<trkpt lat="-27.2746481" lon="151.2900737">
  <ele>369.96</ele>
  <time>2026-09-01T19:53:11Z</time>
  <course>180.16</course>
  <speed>2.5300790501484336</speed>
  <fix>3d</fix>
</trkpt>
<trkpt lat="-27.2746499" lon="151.2900737">
  <ele>370.07</ele>
  <time>2026-09-01T19:53:11Z</time>
  <course>180.16</course>
  <speed>2.5500784301664137</speed>
  <fix>3d</fix>
</trkpt>
<trkpt lat="-27.2746457" lon="151.2900739">
  <ele>369.81</ele>
  <time>2026-09-01T19:53:11Z</time>
  <course>178.92</course>
  <speed>2.53</speed>
  <fix>3d</fix>
</trkpt>
<trkpt lat="-27.2746504" lon="151.2900737">
  <ele>370.1</ele>
  <time>2026-09-01T19:53:11Z</time>
  <course>180.16</course>
  <speed>2.5600781238079433</speed>
  <fix>3d</fix>
</trkpt>
<trkpt lat="-27.2746523" lon="151.2900738">
  <ele>370.22</ele>
  <time>2026-09-01T19:53:11Z</time>
  <course>180.16</course>
  <speed>2.5700778198334775</speed>
  <fix>3d</fix>
</trkpt>
<trkpt lat="-27.2746457" lon="151.2900739">
  <ele>369.81</ele>
  <time>2026-09-01T19:53:11Z</time>
  <course>178.92</course>
  <speed>2.53</speed>
  <fix>3d</fix>
</trkpt>
<trkpt lat="-27.2746527" lon="151.2900738">
  <ele>370.24</ele>
  <time>2026-09-01T19:53:11Z</time>
  <course>180.16</course>
  <speed>2.5800775182152957</speed>
  <fix>3d</fix>
</trkpt>
<trkpt lat="-27.2746546" lon="151.2900738">
  <ele>370.36</ele>
  <time>2026-09-01T19:53:11Z</time>
  <course>180.16</course>
  <speed>2.600076921939041</speed>
  <fix>3d</fix>
</trkpt>
<trkpt lat="-27.2746503" lon="151.290074">
  <ele>370.09</ele>
  <time>2026-09-01T19:53:11Z</time>
  <course>178.97</course>
  <speed>2.57</speed>
  <fix>3d</fix>
</trkpt>
<trkpt lat="-27.2746551" lon="151.2900738">
  <ele>370.39</ele>
  <time>2026-09-01T19:53:11Z</time>
  <course>180.16</course>
  <speed>2.600076921939041</speed>
  <fix>3d</fix>
</trkpt>
<trkpt lat="-27.274657" lon="151.2900739">
  <ele>370.5</ele>
  <time>2026-09-01T19:53:11Z</time>
  <course>180.16</course>
  <speed>2.6200763347658405</speed>
  <fix>3d</fix>
</trkpt>
<trkpt lat="-27.2746503" lon="151.290074">
  <ele>370.09</ele>
  <time>2026-09-01T19:53:11Z</time>
  <course>178.97</course>
  <speed>2.57</speed>
  <fix>3d</fix>
</trkpt>
<trkpt lat="-27.2746571" lon="151.2900739">
  <ele>370.51</ele>
  <time>2026-09-01T19:53:11Z</time>
  <course>180.16</course>
  <speed>2.6200763347658405</speed>
  <fix>3d</fix>
</trkpt>
<trkpt lat="-27.2746594" lon="151.2900739">
  <ele>370.65</ele>
  <time>2026-09-01T19:53:11Z</time>
  <course>180.15</course>
  <speed>2.640075756488817</speed>
  <fix>3d</fix>
</trkpt>
<trkpt lat="-27.2746549" lon="151.2900741">
  <ele>370.38</ele>
  <time>2026-09-01T19:53:11Z</time>
  <course>179.02</course>
  <speed>2.61</speed>
  <fix>3d</fix>
</trkpt>
<trkpt lat="-27.2746595" lon="151.2900739">
  <ele>370.65</ele>
  <time>2026-09-01T19:53:11Z</time>
  <course>180.15</course>
  <speed>2.640075756488817</speed>
  <fix>3d</fix>
</trkpt>
<trkpt lat="-27.2746618" lon="151.290074">
  <ele>370.79</ele>
  <time>2026-09-01T19:53:11Z</time>
  <course>180.16</course>
  <speed>2.660075186907317</speed>
  <fix>3d</fix>
</trkpt>
<trkpt lat="-27.2746549" lon="151.2900741">
  <ele>370.38</ele>
  <time>2026-09-01T19:53:11Z</time>
  <course>179.02</course>
  <speed>2.61</speed>
  <fix>3d</fix>
</trkpt>
<trkpt lat="-27.2746624" lon="151.290074">
  <ele>370.82</ele>
  <time>2026-09-01T19:53:11Z</time>
  <course>180.16</course>
  <speed>2.670074905316328</speed>
  <fix>3d</fix>
</trkpt>
<trkpt lat="-27.2746642" lon="151.290074">
  <ele>370.93</ele>
  <time>2026-09-01T19:53:11Z</time>
  <course>180.15</course>
  <speed>2.690074348414928</speed>
  <fix>3d</fix>
</trkpt>
<trkpt lat="-27.2746597" lon="151.2900742">
  <ele>370.66</ele>
  <time>2026-09-01T19:53:11Z</time>
  <course>179.07</course>
  <speed>2.66</speed>
  <fix>3d</fix>
</trkpt>
<trkpt lat="-27.2746649" lon="151.290074">
  <ele>370.97</ele>
  <time>2026-09-01T19:53:11Z</time>
  <course>180.15</course>
  <speed>2.690074348414928</speed>
  <fix>3d</fix>
</trkpt>
<trkpt lat="-27.2746667" lon="151.290074">
  <ele>371.07</ele>
  <time>2026-09-01T19:53:11Z</time>
  <course>180.16</course>
  <speed>2.710018450121696</speed>
  <fix>3d</fix>
</trkpt>
<trkpt lat="-27.2746597" lon="151.2900742">
  <ele>370.66</ele>
  <time>2026-09-01T19:53:11Z</time>
  <course>179.07</course>
  <speed>2.66</speed>
  <fix>3d</fix>
</trkpt>
<trkpt lat="-27.2746673" lon="151.2900741">
  <ele>371.11</ele>
  <time>2026-09-01T19:53:11Z</time>
  <course>180.16</course>
  <speed>2.710018450121696</speed>
  <fix>3d</fix>
</trkpt>
<trkpt lat="-27.2746692" lon="151.2900741">
  <ele>371.22</ele>
  <time>2026-09-01T19:53:11Z</time>
  <course>180.15</course>
  <speed>2.7300183149568795</speed>
  <fix>3d</fix>
</trkpt>
<trkpt lat="-27.2746645" lon="151.2900742">
  <ele>370.95</ele>
  <time>2026-09-01T19:53:11Z</time>
  <course>179.12</course>
  <speed>2.7</speed>
  <fix>3d</fix>
</trkpt>
<trkpt lat="-27.2746698" lon="151.2900741">
  <ele>371.25</ele>
  <time>2026-09-01T19:53:11Z</time>
  <course>180.15</course>
  <speed>2.7400182481144175</speed>
  <fix>3d</fix>
</trkpt>
<trkpt lat="-27.2746717" lon="151.2900741">
  <ele>371.36</ele>
  <time>2026-09-01T19:53:11Z</time>
  <course>180.16</course>
  <speed>2.760018115882575</speed>
  <fix>3d</fix>
</trkpt>
<trkpt lat="-27.2746645" lon="151.2900742">
  <ele>370.95</ele>
  <time>2026-09-01T19:53:11Z</time>
  <course>179.12</course>
  <speed>2.7</speed>
  <fix>3d</fix>
</trkpt>
<trkpt lat="-27.2746723" lon="151.2900741">
  <ele>371.4</ele>
  <time>2026-09-01T19:53:11Z</time>
  <course>180.16</course>
  <speed>2.760018115882575</speed>
  <fix>3d</fix>
</trkpt>
<trkpt lat="-27.2746742" lon="151.2900742">
  <ele>371.5</ele>
  <time>2026-09-01T19:53:11Z</time>
  <course>180.16</course>
  <speed>2.780017985553331</speed>
  <fix>3d</fix>
</trkpt>
<trkpt lat="-27.2746694" lon="151.2900743">
  <ele>371.24</ele>
  <time>2026-09-01T19:53:11Z</time>
  <course>179.17</course>
  <speed>2.75</speed>
  <fix>3d</fix>
</trkpt>
<trkpt lat="-27.2746748" lon="151.2900742">
  <ele>371.54</ele>
  <time>2026-09-01T19:53:11Z</time>
  <course>180.16</course>
  <speed>2.790017921089397</speed>
  <fix>3d</fix>
</trkpt>
<trkpt lat="-27.2746767" lon="151.2900742">
  <ele>371.65</ele>
  <time>2026-09-01T19:53:11Z</time>
  <course>180.16</course>
  <speed>2.800017857085915</speed>
  <fix>3d</fix>
</trkpt>
<trkpt lat="-27.2746694" lon="151.2900743">
  <ele>371.24</ele>
  <time>2026-09-01T19:53:11Z</time>
  <course>179.17</course>
  <speed>2.75</speed>
  <fix>3d</fix>
</trkpt>
<trkpt lat="-27.2746774" lon="151.2900742">
  <ele>371.68</ele>
  <time>2026-09-01T19:53:11Z</time>
  <course>180.16</course>
  <speed>2.8100177935379698</speed>
  <fix>3d</fix>
</trkpt>
<trkpt lat="-27.2746793" lon="151.2900742">
  <ele>371.79</ele>
  <time>2026-09-01T19:53:11Z</time>
  <course>180.15</course>
  <speed>2.830017667789373</speed>
  <fix>3d</fix>
</trkpt>
<trkpt lat="-27.2746744" lon="151.2900744">
  <ele>371.52</ele>
  <time>2026-09-01T19:53:11Z</time>
  <course>179.22</course>
  <speed>2.8</speed>
  <fix>3d</fix>
</trkpt>
<trkpt lat="-27.2746799" lon="151.2900742">
  <ele>371.83</ele>
  <time>2026-09-01T19:53:11Z</time>
  <course>180.15</course>
  <speed>2.840017605579233</speed>
  <fix>3d</fix>
</trkpt>
<trkpt lat="-27.2746818" lon="151.2900743">
  <ele>371.93</ele>
  <time>2026-09-01T19:53:11Z</time>
  <course>180.15</course>
  <speed>2.8500175438056514</speed>
  <fix>3d</fix>
</trkpt>
<trkpt lat="-27.2746744" lon="151.2900744">
  <ele>371.52</ele>
  <time>2026-09-01T19:53:11Z</time>
  <course>179.22</course>
  <speed>2.8</speed>
  <fix>3d</fix>
</trkpt>
<trkpt lat="-27.2746825" lon="151.2900743">
  <ele>371.97</ele>
  <time>2026-09-01T19:53:11Z</time>
  <course>180.15</course>
  <speed>2.860017482464049</speed>
  <fix>3d</fix>
</trkpt>
<trkpt lat="-27.2746844" lon="151.2900743">
  <ele>372.08</ele>
  <time>2026-09-01T19:53:11Z</time>
  <course>180.15</course>
  <speed>2.880017361058784</speed>
  <fix>3d</fix>
</trkpt>
<trkpt lat="-27.2746795" lon="151.2900745">
  <ele>371.81</ele>
  <time>2026-09-01T19:53:11Z</time>
  <course>179.26</course>
  <speed>2.85</speed>
  <fix>3d</fix>
</trkpt>
<trkpt lat="-27.2746845" lon="151.2900743">
  <ele>372.08</ele>
  <time>2026-09-01T19:53:11Z</time>
  <course>180.15</course>
  <speed>2.880017361058784</speed>
  <fix>3d</fix>
</trkpt>
<trkpt lat="-27.274687" lon="151.2900743">
  <ele>372.22</ele>
  <time>2026-09-01T19:53:11Z</time>
  <course>180.15</course>
  <speed>2.900017241328058</speed>
  <fix>3d</fix>
</trkpt>
<trkpt lat="-27.2746795" lon="151.2900745">
  <ele>371.81</ele>
  <time>2026-09-01T19:53:11Z</time>
  <course>179.26</course>
  <speed>2.85</speed>
  <fix>3d</fix>
</trkpt>
<trkpt lat="-27.2746871" lon="151.2900743">
  <ele>372.22</ele>
  <time>2026-09-01T19:53:11Z</time>
  <course>180.15</course>
  <speed>2.9100171820798586</speed>
  <fix>3d</fix>
</trkpt>
<trkpt lat="-27.2746897" lon="151.2900744">
  <ele>372.36</ele>
  <time>2026-09-01T19:53:11Z</time>
  <course>180.15</course>
  <speed>2.9300170647967225</speed>
  <fix>3d</fix>
</trkpt>
<trkpt lat="-27.2746847" lon="151.2900746">
  <ele>372.09</ele>
  <time>2026-09-01T19:53:11Z</time>
  <course>179.31</course>
  <speed>2.9</speed>
  <fix>3d</fix>
</trkpt>
<trkpt lat="-27.2746904" lon="151.2900744">
  <ele>372.4</ele>
  <time>2026-09-01T19:53:11Z</time>
  <course>180.14</course>
  <speed>2.940017006753532</speed>
  <fix>3d</fix>
</trkpt>
<trkpt lat="-27.2746924" lon="151.2900744">
  <ele>372.51</ele>
  <time>2026-09-01T19:53:11Z</time>
  <course>180.15</course>
  <speed>2.9600168918436935</speed>
  <fix>3d</fix>
</trkpt>
<trkpt lat="-27.2746847" lon="151.2900746">
  <ele>372.09</ele>
  <time>2026-09-01T19:53:11Z</time>
  <course>179.31</course>
  <speed>2.9</speed>
  <fix>3d</fix>
</trkpt>
<trkpt lat="-27.2746931" lon="151.2900744">
  <ele>372.55</ele>
  <time>2026-09-01T19:53:11Z</time>
  <course>180.15</course>
  <speed>2.9600168918436935</speed>
  <fix>3d</fix>
</trkpt>
<trkpt lat="-27.274695" lon="151.2900744">
  <ele>372.65</ele>
  <time>2026-09-01T19:53:11Z</time>
  <course>180.14</course>
  <speed>2.98</speed>
  <fix>3d</fix>
</trkpt>
<trkpt lat="-27.2746899" lon="151.2900746">
  <ele>372.38</ele>
  <time>2026-09-01T19:53:11Z</time>
  <course>179.35</course>
  <speed>2.95</speed>
  <fix>3d</fix>
</trkpt>
<trkpt lat="-27.2746957" lon="151.2900744">
  <ele>372.69</ele>
  <time>2026-09-01T19:53:11Z</time>
  <course>180.14</course>
  <speed>2.99</speed>
  <fix>3d</fix>
</trkpt>
<trkpt lat="-27.2746978" lon="151.2900745">
  <ele>372.79</ele>
  <time>2026-09-01T19:53:11Z</time>
  <course>180.15</course>
  <speed>3.01</speed>
  <fix>3d</fix>
</trkpt>
<trkpt lat="-27.2746899" lon="151.2900746">
  <ele>372.38</ele>
  <time>2026-09-01T19:53:11Z</time>
  <course>179.35</course>
  <speed>2.95</speed>
  <fix>3d</fix>
</trkpt>
<trkpt lat="-27.2746984" lon="151.2900745">
  <ele>372.83</ele>
  <time>2026-09-01T19:53:11Z</time>
  <course>180.15</course>
  <speed>3.02</speed>
  <fix>3d</fix>
</trkpt>
<trkpt lat="-27.2747005" lon="151.2900745">
  <ele>372.94</ele>
  <time>2026-09-01T19:53:11Z</time>
  <course>180.15</course>
  <speed>3.04</speed>
  <fix>3d</fix>
</trkpt>
<trkpt lat="-27.2746953" lon="151.2900747">
  <ele>372.67</ele>
  <time>2026-09-01T19:53:11Z</time>
  <course>179.4</course>
  <speed>3.0</speed>
  <fix>3d</fix>
</trkpt>
<trkpt lat="-27.2747006" lon="151.2900745">
  <ele>372.94</ele>
  <time>2026-09-01T19:53:11Z</time>
  <course>180.15</course>
  <speed>3.04</speed>
  <fix>3d</fix>
</trkpt>
<trkpt lat="-27.2747033" lon="151.2900745">
  <ele>373.08</ele>
  <time>2026-09-01T19:53:11Z</time>
  <course>180.15</course>
  <speed>3.06</speed>
  <fix>3d</fix>
</trkpt>
<trkpt lat="-27.2746953" lon="151.2900747">
  <ele>372.67</ele>
  <time>2026-09-01T19:53:11Z</time>
  <course>179.4</course>
  <speed>3.0</speed>
  <fix>3d</fix>
</trkpt>
<trkpt lat="-27.2747033" lon="151.2900745">
  <ele>373.08</ele>
  <time>2026-09-01T19:53:11Z</time>
  <course>180.15</course>
  <speed>3.06</speed>
  <fix>3d</fix>
</trkpt>
<trkpt lat="-27.274706" lon="151.2900746">
  <ele>373.22</ele>
  <time>2026-09-01T19:53:11Z</time>
  <course>180.15</course>
  <speed>3.09</speed>
  <fix>3d</fix>
</trkpt>
<trkpt lat="-27.2747007" lon="151.2900747">
  <ele>372.96</ele>
  <time>2026-09-01T19:53:11Z</time>
  <course>179.44</course>
  <speed>3.05</speed>
  <fix>3d</fix>
</trkpt>
<trkpt lat="-27.2747061" lon="151.2900746">
  <ele>373.22</ele>
  <time>2026-09-01T19:53:11Z</time>
  <course>180.15</course>
  <speed>3.09</speed>
  <fix>3d</fix>
</trkpt>
<trkpt lat="-27.2747089" lon="151.2900746">
  <ele>373.36</ele>
  <time>2026-09-01T19:53:11Z</time>
  <course>180.15</course>
  <speed>3.12</speed>
  <fix>3d</fix>
</trkpt>
<trkpt lat="-27.2747007" lon="151.2900747">
  <ele>372.96</ele>
  <time>2026-09-01T19:53:11Z</time>
  <course>179.44</course>
  <speed>3.05</speed>
  <fix>3d</fix>
</trkpt>
<trkpt lat="-27.274709" lon="151.2900746">
  <ele>373.37</ele>
  <time>2026-09-01T19:53:11Z</time>
  <course>180.15</course>
  <speed>3.12</speed>
  <fix>3d</fix>
</trkpt>
<trkpt lat="-27.2747117" lon="151.2900746">
  <ele>373.5</ele>
  <time>2026-09-01T19:53:11Z</time>
  <course>180.15</course>
  <speed>3.15</speed>
  <fix>3d</fix>
</trkpt>
<trkpt lat="-27.2747063" lon="151.2900748">
  <ele>373.25</ele>
  <time>2026-09-01T19:53:11Z</time>
  <course>179.49</course>
  <speed>3.11</speed>
  <fix>3d</fix>
</trkpt>
<trkpt lat="-27.2747125" lon="151.2900746">
  <ele>373.54</ele>
  <time>2026-09-01T19:53:11Z</time>
  <course>180.15</course>
  <speed>3.15</speed>
  <fix>3d</fix>
</trkpt>
<trkpt lat="-27.2747145" lon="151.2900746">
  <ele>373.65</ele>
  <time>2026-09-01T19:53:11Z</time>
  <course>180.15</course>
  <speed>3.17</speed>
  <fix>3d</fix>
</trkpt>
<trkpt lat="-27.2747063" lon="151.2900748">
  <ele>373.25</ele>
  <time>2026-09-01T19:53:11Z</time>
  <course>179.49</course>
  <speed>3.11</speed>
  <fix>3d</fix>
</trkpt>
<trkpt lat="-27.2747146" lon="151.2900746">
  <ele>373.65</ele>
  <time>2026-09-01T19:53:11Z</time>
  <course>180.15</course>
  <speed>3.17</speed>
  <fix>3d</fix>
</trkpt>
<trkpt lat="-27.2747174" lon="151.2900746">
  <ele>373.79</ele>
  <time>2026-09-01T19:53:11Z</time>
  <course>180.14</course>
  <speed>3.2</speed>
  <fix>3d</fix>
</trkpt>
<trkpt lat="-27.2747119" lon="151.2900748">
  <ele>373.53</ele>
  <time>2026-09-01T19:53:11Z</time>
  <course>179.54</course>
  <speed>3.16</speed>
  <fix>3d</fix>
</trkpt>
<trkpt lat="-27.2747175" lon="151.2900746">
  <ele>373.79</ele>
  <time>2026-09-01T19:53:11Z</time>
  <course>180.14</course>
  <speed>3.2</speed>
  <fix>3d</fix>
</trkpt>
<trkpt lat="-27.2747203" lon="151.2900747">
  <ele>373.93</ele>
  <time>2026-09-01T19:53:11Z</time>
  <course>180.14</course>
  <speed>3.23</speed>
  <fix>3d</fix>
</trkpt>
<trkpt lat="-27.2747119" lon="151.2900748">
  <ele>373.53</ele>
  <time>2026-09-01T19:53:11Z</time>
  <course>179.54</course>
  <speed>3.16</speed>
  <fix>3d</fix>
</trkpt>
<trkpt lat="-27.2747211" lon="151.2900747">
  <ele>373.97</ele>
  <time>2026-09-01T19:53:11Z</time>
  <course>180.14</course>
  <speed>3.24</speed>
  <fix>3d</fix>
</trkpt>
<trkpt lat="-27.2747233" lon="151.2900747">
  <ele>374.08</ele>
  <time>2026-09-01T19:53:11Z</time>
  <course>180.14</course>
  <speed>3.26</speed>
  <fix>3d</fix>
</trkpt>
<trkpt lat="-27.2747176" lon="151.2900749">
  <ele>373.82</ele>
  <time>2026-09-01T19:53:11Z</time>
  <course>179.58</course>
  <speed>3.22</speed>
  <fix>3d</fix>
</trkpt>
<trkpt lat="-27.2747241" lon="151.2900747">
  <ele>374.12</ele>
  <time>2026-09-01T19:53:11Z</time>
  <course>180.14</course>
  <speed>3.27</speed>
  <fix>3d</fix>
</trkpt>
<trkpt lat="-27.2747262" lon="151.2900747">
  <ele>374.22</ele>
  <time>2026-09-01T19:53:11Z</time>
  <course>180.14</course>
  <speed>3.29</speed>
  <fix>3d</fix>
</trkpt>
<trkpt lat="-27.2747176" lon="151.2900749">
  <ele>373.82</ele>
  <time>2026-09-01T19:53:11Z</time>
  <course>179.58</course>
  <speed>3.22</speed>
  <fix>3d</fix>
</trkpt>
<trkpt lat="-27.274727" lon="151.2900747">
  <ele>374.26</ele>
  <time>2026-09-01T19:53:11Z</time>
  <course>180.14</course>
  <speed>3.3</speed>
  <fix>3d</fix>
</trkpt>
<trkpt lat="-27.2747293" lon="151.2900747">
  <ele>374.37</ele>
  <time>2026-09-01T19:53:11Z</time>
  <course>180.13</course>
  <speed>3.32</speed>
  <fix>3d</fix>
</trkpt>
<trkpt lat="-27.2747234" lon="151.290075">
  <ele>374.11</ele>
  <time>2026-09-01T19:53:11Z</time>
  <course>179.63</course>
  <speed>3.28</speed>
  <fix>3d</fix>
</trkpt>
<trkpt lat="-27.2747301" lon="151.2900747">
  <ele>374.41</ele>
  <time>2026-09-01T19:53:11Z</time>
  <course>180.13</course>
  <speed>3.33</speed>
  <fix>3d</fix>
</trkpt>
<trkpt lat="-27.2747323" lon="151.2900747">
  <ele>374.51</ele>
  <time>2026-09-01T19:53:11Z</time>
  <course>180.13</course>
  <speed>3.35</speed>
  <fix>3d</fix>
</trkpt>
<trkpt lat="-27.2747234" lon="151.290075">
  <ele>374.11</ele>
  <time>2026-09-01T19:53:11Z</time>
  <course>179.63</course>
  <speed>3.28</speed>
  <fix>3d</fix>
</trkpt>
<trkpt lat="-27.2747331" lon="151.2900747">
  <ele>374.55</ele>
  <time>2026-09-01T19:53:11Z</time>
  <course>180.13</course>
  <speed>3.36</speed>
  <fix>3d</fix>
</trkpt>
<trkpt lat="-27.2747353" lon="151.2900748">
  <ele>374.66</ele>
  <time>2026-09-01T19:53:11Z</time>
  <course>180.13</course>
  <speed>3.38</speed>
  <fix>3d</fix>
</trkpt>
<trkpt lat="-27.2747294" lon="151.290075">
  <ele>374.39</ele>
  <time>2026-09-01T19:53:11Z</time>
  <course>179.67</course>
  <speed>3.34</speed>
  <fix>3d</fix>
</trkpt>
<trkpt lat="-27.2747361" lon="151.2900748">
  <ele>374.69</ele>
  <time>2026-09-01T19:53:11Z</time>
  <course>180.13</course>
  <speed>3.39</speed>
  <fix>3d</fix>
</trkpt>
<trkpt lat="-27.2747383" lon="151.2900748">
  <ele>374.8</ele>
  <time>2026-09-01T19:53:11Z</time>
  <course>180.13</course>
  <speed>3.41</speed>
  <fix>3d</fix>
</trkpt>
<trkpt lat="-27.2747294" lon="151.290075">
  <ele>374.39</ele>
  <time>2026-09-01T19:53:11Z</time>
  <course>179.67</course>
  <speed>3.34</speed>
  <fix>3d</fix>
</trkpt>
<trkpt lat="-27.2747393" lon="151.2900748">
  <ele>374.84</ele>
  <time>2026-09-01T19:53:11Z</time>
  <course>180.13</course>
  <speed>3.42</speed>
  <fix>3d</fix>
</trkpt>
<trkpt lat="-27.2747414" lon="151.2900748">
  <ele>374.94</ele>
  <time>2026-09-01T19:53:11Z</time>
  <course>180.13</course>
  <speed>3.44</speed>
  <fix>3d</fix>
</trkpt>
<trkpt lat="-27.2747355" lon="151.2900751">
  <ele>374.68</ele>
  <time>2026-09-01T19:53:11Z</time>
  <course>179.72</course>
  <speed>3.4</speed>
  <fix>3d</fix>
</trkpt>
<trkpt lat="-27.2747422" lon="151.2900748">
  <ele>374.98</ele>
  <time>2026-09-01T19:53:11Z</time>
  <course>180.13</course>
  <speed>3.45</speed>
  <fix>3d</fix>
</trkpt>
<trkpt lat="-27.2747445" lon="151.2900748">
  <ele>375.09</ele>
  <time>2026-09-01T19:53:11Z</time>
  <course>180.13</course>
  <speed>3.47</speed>
  <fix>3d</fix>
</trkpt>
<trkpt lat="-27.2747355" lon="151.2900751">
  <ele>374.68</ele>
  <time>2026-09-01T19:53:11Z</time>
  <course>179.72</course>
  <speed>3.4</speed>
  <fix>3d</fix>
</trkpt>
<trkpt lat="-27.2747454" lon="151.2900748">
  <ele>375.13</ele>
  <time>2026-09-01T19:53:11Z</time>
  <course>180.13</course>
  <speed>3.48</speed>
  <fix>3d</fix>
</trkpt>
<trkpt lat="-27.2747477" lon="151.2900748">
  <ele>375.24</ele>
  <time>2026-09-01T19:53:11Z</time>
  <course>180.13</course>
  <speed>3.5</speed>
  <fix>3d</fix>
</trkpt>
<trkpt lat="-27.2747417" lon="151.2900751">
  <ele>374.97</ele>
  <time>2026-09-01T19:53:11Z</time>
  <course>179.76</course>
  <speed>3.46</speed>
  <fix>3d</fix>
</trkpt>
<trkpt lat="-27.2747479" lon="151.2900748">
  <ele>375.25</ele>
  <time>2026-09-01T19:53:11Z</time>
  <course>180.13</course>
  <speed>3.5</speed>
  <fix>3d</fix>
</trkpt>
<trkpt lat="-27.2747508" lon="151.2900748">
  <ele>375.38</ele>
  <time>2026-09-01T19:53:11Z</time>
  <course>180.13</course>
  <speed>3.5300141642775316</speed>
  <fix>3d</fix>
</trkpt>
<trkpt lat="-27.2747417" lon="151.2900751">
  <ele>374.97</ele>
  <time>2026-09-01T19:53:11Z</time>
  <course>179.76</course>
  <speed>3.46</speed>
  <fix>3d</fix>
</trkpt>
<trkpt lat="-27.2747509" lon="151.2900748">
  <ele>375.38</ele>
  <time>2026-09-01T19:53:11Z</time>
  <course>180.13</course>
  <speed>3.5300141642775316</speed>
  <fix>3d</fix>
</trkpt>
<trkpt lat="-27.274754" lon="151.2900749">
  <ele>375.52</ele>
  <time>2026-09-01T19:53:11Z</time>
  <course>180.13</course>
  <speed>3.5600140449161155</speed>
  <fix>3d</fix>
</trkpt>
<trkpt lat="-27.2747479" lon="151.2900751">
  <ele>375.26</ele>
  <time>2026-09-01T19:53:11Z</time>
  <course>179.81</course>
  <speed>3.53</speed>
  <fix>3d</fix>
</trkpt>
<trkpt lat="-27.274755" lon="151.2900749">
  <ele>375.56</ele>
  <time>2026-09-01T19:53:11Z</time>
  <course>180.13</course>
  <speed>3.5700140055747682</speed>
  <fix>3d</fix>
</trkpt>
<trkpt lat="-27.2747572" lon="151.2900749">
  <ele>375.66</ele>
  <time>2026-09-01T19:53:11Z</time>
  <course>180.13</course>
  <speed>3.6000138888620974</speed>
  <fix>3d</fix>
</trkpt>
<trkpt lat="-27.2747479" lon="151.2900751">
  <ele>375.26</ele>
  <time>2026-09-01T19:53:11Z</time>
  <course>179.81</course>
  <speed>3.53</speed>
  <fix>3d</fix>
</trkpt>
<trkpt lat="-27.2747584" lon="151.2900749">
  <ele>375.72</ele>
  <time>2026-09-01T19:53:11Z</time>
  <course>180.13</course>
  <speed>3.6100138503889427</speed>
  <fix>3d</fix>
</trkpt>
<trkpt lat="-27.2747605" lon="151.2900749">
  <ele>375.81</ele>
  <time>2026-09-01T19:53:11Z</time>
  <course>180.12</course>
  <speed>3.6300137740785505</speed>
  <fix>3d</fix>
</trkpt>
<trkpt lat="-27.2747544" lon="151.2900752">
  <ele>375.55</ele>
  <time>2026-09-01T19:53:11Z</time>
  <course>179.86</course>
  <speed>3.59</speed>
  <fix>3d</fix>
</trkpt>
<trkpt lat="-27.2747613" lon="151.2900749">
  <ele>375.84</ele>
  <time>2026-09-01T19:53:11Z</time>
  <course>180.12</course>
  <speed>3.6400137362378184</speed>
  <fix>3d</fix>
</trkpt>
<trkpt lat="-27.2747638" lon="151.2900749">
  <ele>375.95</ele>
  <time>2026-09-01T19:53:11Z</time>
  <course>180.12</course>
  <speed>3.66001366117669</speed>
  <fix>3d</fix>
</trkpt>
<trkpt lat="-27.2747544" lon="151.2900752">
  <ele>375.55</ele>
  <time>2026-09-01T19:53:11Z</time>
  <course>179.86</course>
  <speed>3.59</speed>
  <fix>3d</fix>
</trkpt>
<trkpt lat="-27.2747646" lon="151.2900749">
  <ele>375.99</ele>
  <time>2026-09-01T19:53:11Z</time>
  <course>180.12</course>
  <speed>3.6700136239529138</speed>
  <fix>3d</fix>
</trkpt>
<trkpt lat="-27.2747671" lon="151.2900749">
  <ele>376.09</ele>
  <time>2026-09-01T19:53:11Z</time>
  <course>180.12</course>
  <speed>3.7000135134888357</speed>
  <fix>3d</fix>
</trkpt>
<trkpt lat="-27.2747608" lon="151.2900752">
  <ele>375.83</ele>
  <time>2026-09-01T19:53:11Z</time>
  <course>179.9</course>
  <speed>3.66</speed>
  <fix>3d</fix>
</trkpt>
<trkpt lat="-27.274768" lon="151.2900749">
  <ele>376.13</ele>
  <time>2026-09-01T19:53:11Z</time>
  <course>180.12</course>
  <speed>3.7000135134888357</speed>
  <fix>3d</fix>
</trkpt>
<trkpt lat="-27.2747705" lon="151.2900749">
  <ele>376.24</ele>
  <time>2026-09-01T19:53:11Z</time>
  <course>180.12</course>
  <speed>3.7300134048016504</speed>
  <fix>3d</fix>
</trkpt>
<trkpt lat="-27.2747608" lon="151.2900752">
  <ele>375.83</ele>
  <time>2026-09-01T19:53:11Z</time>
  <course>179.9</course>
  <speed>3.66</speed>
  <fix>3d</fix>
</trkpt>
<trkpt lat="-27.2747711" lon="151.2900749">
  <ele>376.27</ele>
  <time>2026-09-01T19:53:11Z</time>
  <course>180.12</course>
  <speed>3.740013368960063</speed>
  <fix>3d</fix>
</trkpt>
<trkpt lat="-27.2747738" lon="151.2900749">
  <ele>376.38</ele>
  <time>2026-09-01T19:53:11Z</time>
  <course>180.11</course>
  <speed>3.7600132978488254</speed>
  <fix>3d</fix>
</trkpt>
<trkpt lat="-27.2747675" lon="151.2900752">
  <ele>376.12</ele>
  <time>2026-09-01T19:53:11Z</time>
  <course>179.95</course>
  <speed>3.73</speed>
  <fix>3d</fix>
</trkpt>
<trkpt lat="-27.2747749" lon="151.2900749">
  <ele>376.42</ele>
  <time>2026-09-01T19:53:11Z</time>
  <course>180.11</course>
  <speed>3.770013262576141</speed>
  <fix>3d</fix>
</trkpt>
<trkpt lat="-27.2747773" lon="151.2900749">
  <ele>376.52</ele>
  <time>2026-09-01T19:53:11Z</time>
  <course>180.11</course>
  <speed>3.8000131578719567</speed>
  <fix>3d</fix>
</trkpt>
<trkpt lat="-27.2747675" lon="151.2900752">
  <ele>376.12</ele>
  <time>2026-09-01T19:53:11Z</time>
  <course>179.95</course>
  <speed>3.73</speed>
  <fix>3d</fix>
</trkpt>
<trkpt lat="-27.2747782" lon="151.2900749">
  <ele>376.56</ele>
  <time>2026-09-01T19:53:11Z</time>
  <course>180.11</course>
  <speed>3.8100131233369785</speed>
  <fix>3d</fix>
</trkpt>
<trkpt lat="-27.2747807" lon="151.2900749">
  <ele>376.66</ele>
  <time>2026-09-01T19:53:11Z</time>
  <course>180.11</course>
  <speed>3.830052218965167</speed>
  <fix>3d</fix>
</trkpt>
<trkpt lat="-27.2747743" lon="151.2900752">
  <ele>376.4</ele>
  <time>2026-09-01T19:53:11Z</time>
  <course>179.99</course>
  <speed>3.79</speed>
  <fix>3d</fix>
</trkpt>
<trkpt lat="-27.2747817" lon="151.2900749">
  <ele>376.7</ele>
  <time>2026-09-01T19:53:11Z</time>
  <course>180.11</course>
  <speed>3.840052082980125</speed>
  <fix>3d</fix>
</trkpt>
<trkpt lat="-27.2747842" lon="151.2900749">
  <ele>376.8</ele>
  <time>2026-09-01T19:53:11Z</time>
  <course>180.11</course>
  <speed>3.8700516792415063</speed>
  <fix>3d</fix>
</trkpt>
<trkpt lat="-27.2747743" lon="151.2900752">
  <ele>376.4</ele>
  <time>2026-09-01T19:53:11Z</time>
  <course>179.99</course>
  <speed>3.79</speed>
  <fix>3d</fix>
</trkpt>
<trkpt lat="-27.2747843" lon="151.2900749">
  <ele>376.81</ele>
  <time>2026-09-01T19:53:11Z</time>
  <course>180.11</course>
  <speed>3.8700516792415063</speed>
  <fix>3d</fix>
</trkpt>
<trkpt lat="-27.2747877" lon="151.2900749">
  <ele>376.95</ele>
  <time>2026-09-01T19:53:11Z</time>
  <course>180.11</course>
  <speed>3.9000512817141266</speed>
  <fix>3d</fix>
</trkpt>
<trkpt lat="-27.2747812" lon="151.2900752">
  <ele>376.68</ele>
  <time>2026-09-01T19:53:11Z</time>
  <course>180.03</course>
  <speed>3.86</speed>
  <fix>3d</fix>
</trkpt>
<trkpt lat="-27.2747878" lon="151.2900749">
  <ele>376.95</ele>
  <time>2026-09-01T19:53:11Z</time>
  <course>180.11</course>
  <speed>3.910051150560565</speed>
  <fix>3d</fix>
</trkpt>
<trkpt lat="-27.2747912" lon="151.2900749">
  <ele>377.09</ele>
  <time>2026-09-01T19:53:11Z</time>
  <course>180.11</course>
  <speed>3.9400507610943287</speed>
  <fix>3d</fix>
</trkpt>
<trkpt lat="-27.2747812" lon="151.2900752">
  <ele>376.68</ele>
  <time>2026-09-01T19:53:11Z</time>
  <course>180.03</course>
  <speed>3.86</speed>
  <fix>3d</fix>
</trkpt>
<trkpt lat="-27.2747922" lon="151.2900749">
  <ele>377.13</ele>
  <time>2026-09-01T19:53:11Z</time>
  <course>180.11</course>
  <speed>3.9500506325868785</speed>
  <fix>3d</fix>
</trkpt>
<trkpt lat="-27.2747948" lon="151.2900749">
  <ele>377.23</ele>
  <time>2026-09-01T19:53:11Z</time>
  <course>180.11</course>
  <speed>3.9800502509390507</speed>
  <fix>3d</fix>
</trkpt>
<trkpt lat="-27.2747881" lon="151.2900752">
  <ele>376.96</ele>
  <time>2026-09-01T19:53:11Z</time>
  <course>180.08</course>
  <speed>3.94</speed>
  <fix>3d</fix>
</trkpt>
<trkpt lat="-27.2747958" lon="151.2900749">
  <ele>377.27</ele>
  <time>2026-09-01T19:53:11Z</time>
  <course>180.11</course>
  <speed>3.9900501249984317</speed>
  <fix>3d</fix>
</trkpt>
<trkpt lat="-27.2747984" lon="151.2900749">
  <ele>377.37</ele>
  <time>2026-09-01T19:53:11Z</time>
  <course>180.11</course>
  <speed>4.010049875001557</speed>
  <fix>3d</fix>
</trkpt>
<trkpt lat="-27.2747881" lon="151.2900752">
  <ele>376.96</ele>
  <time>2026-09-01T19:53:11Z</time>
  <course>180.08</course>
  <speed>3.94</speed>
  <fix>3d</fix>
</trkpt>
<trkpt lat="-27.2747986" lon="151.2900749">
  <ele>377.38</ele>
  <time>2026-09-01T19:53:11Z</time>
  <course>180.11</course>
  <speed>4.010049875001557</speed>
  <fix>3d</fix>
</trkpt>
<trkpt lat="-27.2748021" lon="151.2900749">
  <ele>377.52</ele>
  <time>2026-09-01T19:53:11Z</time>
  <course>180.1</course>
  <speed>4.0500493824149855</speed>
  <fix>3d</fix>
</trkpt>
<trkpt lat="-27.2747953" lon="151.2900752">
  <ele>377.25</ele>
  <time>2026-09-01T19:53:11Z</time>
  <course>180.13</course>
  <speed>4.01</speed>
  <fix>3d</fix>
</trkpt>
<trkpt lat="-27.2748032" lon="151.2900749">
  <ele>377.56</ele>
  <time>2026-09-01T19:53:11Z</time>
  <course>180.1</course>
  <speed>4.060110835925541</speed>
  <fix>3d</fix>
</trkpt>
<trkpt lat="-27.2748058" lon="151.2900749">
  <ele>377.67</ele>
  <time>2026-09-01T19:53:11Z</time>
  <course>180.1</course>
  <speed>4.090110022970042</speed>
  <fix>3d</fix>
</trkpt>
<trkpt lat="-27.2747953" lon="151.2900752">
  <ele>377.25</ele>
  <time>2026-09-01T19:53:11Z</time>
  <course>180.13</course>
  <speed>4.01</speed>
  <fix>3d</fix>
</trkpt>
<trkpt lat="-27.2748068" lon="151.2900749">
  <ele>377.7</ele>
  <time>2026-09-01T19:53:11Z</time>
  <course>180.1</course>
  <speed>4.100109754628527</speed>
  <fix>3d</fix>
</trkpt>
<trkpt lat="-27.2748096" lon="151.2900749">
  <ele>377.81</ele>
  <time>2026-09-01T19:53:11Z</time>
  <course>180.1</course>
  <speed>4.130108957400519</speed>
  <fix>3d</fix>
</trkpt>
<trkpt lat="-27.2748026" lon="151.2900752">
  <ele>377.53</ele>
  <time>2026-09-01T19:53:11Z</time>
  <course>180.18</course>
  <speed>4.08</speed>
  <fix>3d</fix>
</trkpt>
<trkpt lat="-27.2748106" lon="151.2900749">
  <ele>377.85</ele>
  <time>2026-09-01T19:53:11Z</time>
  <course>180.1</course>
  <speed>4.14010869422531</speed>
  <fix>3d</fix>
</trkpt>
<trkpt lat="-27.2748134" lon="151.2900749">
  <ele>377.96</ele>
  <time>2026-09-01T19:53:11Z</time>
  <course>180.1</course>
  <speed>4.170107912272774</speed>
  <fix>3d</fix>
</trkpt>
<trkpt lat="-27.27481" lon="151.2900752">
  <ele>377.82</ele>
  <time>2026-09-01T19:53:11Z</time>
  <course>180.23</course>
  <speed>4.16</speed>
  <fix>3d</fix>
</trkpt>
<trkpt lat="-27.2748144" lon="151.2900749">
  <ele>378.0</ele>
  <time>2026-09-01T19:53:11Z</time>
  <course>180.1</course>
  <speed>4.1801076541160995</speed>
  <fix>3d</fix>
</trkpt>
<trkpt lat="-27.2748171" lon="151.2900749">
  <ele>378.1</ele>
  <time>2026-09-01T19:53:11Z</time>
  <course>180.09</course>
  <speed>4.2101068870041765</speed>
  <fix>3d</fix>
</trkpt>
<trkpt lat="-27.27481" lon="151.2900752">
  <ele>377.82</ele>
  <time>2026-09-01T19:53:11Z</time>
  <course>180.23</course>
  <speed>4.16</speed>
  <fix>3d</fix>
</trkpt>
<trkpt lat="-27.2748183" lon="151.2900749">
  <ele>378.14</ele>
  <time>2026-09-01T19:53:11Z</time>
  <course>180.09</course>
  <speed>4.220106633723844</speed>
  <fix>3d</fix>
</trkpt>
<trkpt lat="-27.2748209" lon="151.2900749">
  <ele>378.24</ele>
  <time>2026-09-01T19:53:11Z</time>
  <course>180.09</course>
  <speed>4.2401061307472006</speed>
  <fix>3d</fix>
</trkpt>
<trkpt lat="-27.2748176" lon="151.2900752">
  <ele>378.11</ele>
  <time>2026-09-01T19:53:11Z</time>
  <course>180.28</course>
  <speed>4.24</speed>
  <fix>3d</fix>
</trkpt>
<trkpt lat="-27.2748211" lon="151.2900749">
  <ele>378.25</ele>
  <time>2026-09-01T19:53:11Z</time>
  <course>180.09</course>
  <speed>4.250105881034024</speed>
  <fix>3d</fix>
</trkpt>
<trkpt lat="-27.2748247" lon="151.2900749">
  <ele>378.39</ele>
  <time>2026-09-01T19:53:11Z</time>
  <course>180.09</course>
  <speed>4.280186911806539</speed>
  <fix>3d</fix>
</trkpt>
<trkpt lat="-27.2748176" lon="151.2900752">
  <ele>378.11</ele>
  <time>2026-09-01T19:53:11Z</time>
  <course>180.28</course>
  <speed>4.24</speed>
  <fix>3d</fix>
</trkpt>
<trkpt lat="-27.2748249" lon="151.2900749">
  <ele>378.39</ele>
  <time>2026-09-01T19:53:11Z</time>
  <course>180.09</course>
  <speed>4.280186911806539</speed>
  <fix>3d</fix>
</trkpt>
<trkpt lat="-27.2748286" lon="151.2900749">
  <ele>378.53</ele>
  <time>2026-09-01T19:53:11Z</time>
  <course>180.09</course>
  <speed>4.320185181216194</speed>
  <fix>3d</fix>
</trkpt>
<trkpt lat="-27.2748176" lon="151.2900752">
  <ele>378.11</ele>
  <time>2026-09-01T19:53:11Z</time>
  <course>180.28</course>
  <speed>4.24</speed>
  <fix>3d</fix>
</trkpt>
<trkpt lat="-27.2748295" lon="151.2900749">
  <ele>378.56</ele>
  <time>2026-09-01T19:53:11Z</time>
  <course>180.09</course>
  <speed>4.330184753564217</speed>
  <fix>3d</fix>
</trkpt>
<trkpt lat="-27.2748326" lon="151.2900749">
  <ele>378.67</ele>
  <time>2026-09-01T19:53:11Z</time>
  <course>180.09</course>
  <speed>4.360183482377777</speed>
  <fix>3d</fix>
</trkpt>
<trkpt lat="-27.2748253" lon="151.2900751">
  <ele>378.4</ele>
  <time>2026-09-01T19:53:11Z</time>
  <course>180.33</course>
  <speed>4.31</speed>
  <fix>3d</fix>
</trkpt>
<trkpt lat="-27.2748336" lon="151.2900749">
  <ele>378.71</ele>
  <time>2026-09-01T19:53:11Z</time>
  <course>180.09</course>
  <speed>4.370183062527244</speed>
  <fix>3d</fix>
</trkpt>
<trkpt lat="-27.2748365" lon="151.2900749">
  <ele>378.81</ele>
  <time>2026-09-01T19:53:11Z</time>
  <course>180.09</course>
  <speed>4.400181814425399</speed>
  <fix>3d</fix>
</trkpt>
<trkpt lat="-27.2748253" lon="151.2900751">
  <ele>378.4</ele>
  <time>2026-09-01T19:53:11Z</time>
  <course>180.33</course>
  <speed>4.31</speed>
  <fix>3d</fix>
</trkpt>
<trkpt lat="-27.2748375" lon="151.2900749">
  <ele>378.85</ele>
  <time>2026-09-01T19:53:11Z</time>
  <course>180.09</course>
  <speed>4.410181402164768</speed>
  <fix>3d</fix>
</trkpt>
<trkpt lat="-27.2748405" lon="151.2900748">
  <ele>378.96</ele>
  <time>2026-09-01T19:53:11Z</time>
  <course>180.09</course>
  <speed>4.430180583226828</speed>
  <fix>3d</fix>
</trkpt>
<trkpt lat="-27.2748331" lon="151.290075">
  <ele>378.68</ele>
  <time>2026-09-01T19:53:11Z</time>
  <course>180.37</course>
  <speed>4.39</speed>
  <fix>3d</fix>
</trkpt>
<trkpt lat="-27.2748416" lon="151.2900748">
  <ele>378.99</ele>
  <time>2026-09-01T19:53:11Z</time>
  <course>180.09</course>
  <speed>4.440180176524372</speed>
  <fix>3d</fix>
</trkpt>
<trkpt lat="-27.2748446" lon="151.2900748">
  <ele>379.1</ele>
  <time>2026-09-01T19:53:11Z</time>
  <course>180.1</course>
  <speed>4.470279633311545</speed>
  <fix>3d</fix>
</trkpt>
<trkpt lat="-27.2748331" lon="151.290075">
  <ele>378.68</ele>
  <time>2026-09-01T19:53:11Z</time>
  <course>180.37</course>
  <speed>4.39</speed>
  <fix>3d</fix>
</trkpt>
<trkpt lat="-27.2748456" lon="151.2900748">
  <ele>379.14</ele>
  <time>2026-09-01T19:53:11Z</time>
  <course>180.1</course>
  <speed>4.48027900916896</speed>
  <fix>3d</fix>
</trkpt>
<trkpt lat="-27.2748486" lon="151.2900748">
  <ele>379.24</ele>
  <time>2026-09-01T19:53:11Z</time>
  <course>180.09</course>
  <speed>4.510277153346566</speed>
  <fix>3d</fix>
</trkpt>
<trkpt lat="-27.2748411" lon="151.290075">
  <ele>378.96</ele>
  <time>2026-09-01T19:53:11Z</time>
  <course>180.42</course>
  <speed>4.46</speed>
  <fix>3d</fix>
</trkpt>
<trkpt lat="-27.2748488" lon="151.2900748">
  <ele>379.25</ele>
  <time>2026-09-01T19:53:11Z</time>
  <course>180.09</course>
  <speed>4.510277153346566</speed>
  <fix>3d</fix>
</trkpt>
<trkpt lat="-27.2748527" lon="151.2900747">
  <ele>379.39</ele>
  <time>2026-09-01T19:53:11Z</time>
  <course>180.1</course>
  <speed>4.550274716981383</speed>
  <fix>3d</fix>
</trkpt>
<trkpt lat="-27.2748411" lon="151.290075">
  <ele>378.96</ele>
  <time>2026-09-01T19:53:11Z</time>
  <course>180.42</course>
  <speed>4.46</speed>
  <fix>3d</fix>
</trkpt>
<trkpt lat="-27.2748529" lon="151.2900747">
  <ele>379.4</ele>
  <time>2026-09-01T19:53:11Z</time>
  <course>180.1</course>
  <speed>4.550274716981383</speed>
  <fix>3d</fix>
</trkpt>
<trkpt lat="-27.2748569" lon="151.2900747">
  <ele>379.54</ele>
  <time>2026-09-01T19:53:11Z</time>
  <course>180.09</course>
  <speed>4.5802729176327475</speed>
  <fix>3d</fix>
</trkpt>
<trkpt lat="-27.2748491" lon="151.2900749">
  <ele>379.25</ele>
  <time>2026-09-01T19:53:11Z</time>
  <course>180.46</course>
  <speed>4.54</speed>
  <fix>3d</fix>
</trkpt>
<trkpt lat="-27.274857" lon="151.2900747">
  <ele>379.54</ele>
  <time>2026-09-01T19:53:11Z</time>
  <course>180.09</course>
  <speed>4.5902723230762685</speed>
  <fix>3d</fix>
</trkpt>
<trkpt lat="-27.274861" lon="151.2900747">
  <ele>379.68</ele>
  <time>2026-09-01T19:53:11Z</time>
  <course>180.1</course>
  <speed>4.620270554848493</speed>
  <fix>3d</fix>
</trkpt>
<trkpt lat="-27.2748491" lon="151.2900749">
  <ele>379.25</ele>
  <time>2026-09-01T19:53:11Z</time>
  <course>180.46</course>
  <speed>4.54</speed>
  <fix>3d</fix>
</trkpt>
<trkpt lat="-27.2748622" lon="151.2900747">
  <ele>379.72</ele>
  <time>2026-09-01T19:53:11Z</time>
  <course>180.1</course>
  <speed>4.630269970530876</speed>
  <fix>3d</fix>
</trkpt>
<trkpt lat="-27.2748652" lon="151.2900746">
  <ele>379.82</ele>
  <time>2026-09-01T19:53:11Z</time>
  <course>180.09</course>
  <speed>4.6603862500870035</speed>
  <fix>3d</fix>
</trkpt>
<trkpt lat="-27.2748573" lon="151.2900748">
  <ele>379.54</ele>
  <time>2026-09-01T19:53:11Z</time>
  <course>180.51</course>
  <speed>4.61</speed>
  <fix>3d</fix>
</trkpt>
<trkpt lat="-27.2748654" lon="151.2900746">
  <ele>379.83</ele>
  <time>2026-09-01T19:53:11Z</time>
  <course>180.09</course>
  <speed>4.6603862500870035</speed>
  <fix>3d</fix>
</trkpt>
<trkpt lat="-27.2748694" lon="151.2900746">
  <ele>379.97</ele>
  <time>2026-09-01T19:53:11Z</time>
  <course>180.1</course>
  <speed>4.690383779606952</speed>
  <fix>3d</fix>
</trkpt>
<trkpt lat="-27.2748573" lon="151.2900748">
  <ele>379.54</ele>
  <time>2026-09-01T19:53:11Z</time>
  <course>180.51</course>
  <speed>4.61</speed>
  <fix>3d</fix>
</trkpt>
<trkpt lat="-27.2748696" lon="151.2900746">
  <ele>379.97</ele>
  <time>2026-09-01T19:53:11Z</time>
  <course>180.1</course>
  <speed>4.700382963121196</speed>
  <fix>3d</fix>
</trkpt>
<trkpt lat="-27.2748737" lon="151.2900745">
  <ele>380.11</ele>
  <time>2026-09-01T19:53:11Z</time>
  <course>180.1</course>
  <speed>4.7303805343756435</speed>
  <fix>3d</fix>
</trkpt>
<trkpt lat="-27.2748657" lon="151.2900747">
  <ele>379.83</ele>
  <time>2026-09-01T19:53:11Z</time>
  <course>180.55</course>
  <speed>4.69</speed>
  <fix>3d</fix>
</trkpt>
<trkpt lat="-27.2748749" lon="151.2900745">
  <ele>380.15</ele>
  <time>2026-09-01T19:53:11Z</time>
  <course>180.1</course>
  <speed>4.740379731624883</speed>
  <fix>3d</fix>
</trkpt>
<trkpt lat="-27.274878" lon="151.2900745">
  <ele>380.25</ele>
  <time>2026-09-01T19:53:11Z</time>
  <course>180.1</course>
  <speed>4.7703773435651815</speed>
  <fix>3d</fix>
</trkpt>
<trkpt lat="-27.2748657" lon="151.2900747">
  <ele>379.83</ele>
  <time>2026-09-01T19:53:11Z</time>
  <course>180.55</course>
  <speed>4.69</speed>
  <fix>3d</fix>
</trkpt>
<trkpt lat="-27.2748792" lon="151.2900745">
  <ele>380.29</ele>
  <time>2026-09-01T19:53:11Z</time>
  <course>180.1</course>
  <speed>4.780376554205746</speed>
  <fix>3d</fix>
</trkpt>
<trkpt lat="-27.2748824" lon="151.2900744">
  <ele>380.4</ele>
  <time>2026-09-01T19:53:11Z</time>
  <course>180.09</course>
  <speed>4.800510389531513</speed>
  <fix>3d</fix>
</trkpt>
<trkpt lat="-27.2748742" lon="151.2900746">
  <ele>380.12</ele>
  <time>2026-09-01T19:53:11Z</time>
  <course>180.6</course>
  <speed>4.76</speed>
  <fix>3d</fix>
</trkpt>
<trkpt lat="-27.2748835" lon="151.2900744">
  <ele>380.44</ele>
  <time>2026-09-01T19:53:11Z</time>
  <course>180.09</course>
  <speed>4.81050932854308</speed>
  <fix>3d</fix>
</trkpt>
<trkpt lat="-27.2748867" lon="151.2900744">
  <ele>380.54</ele>
  <time>2026-09-01T19:53:11Z</time>
  <course>180.09</course>
  <speed>4.840506171879135</speed>
  <fix>3d</fix>
</trkpt>
<trkpt lat="-27.2748742" lon="151.2900746">
  <ele>380.12</ele>
  <time>2026-09-01T19:53:11Z</time>
  <course>180.6</course>
  <speed>4.76</speed>
  <fix>3d</fix>
</trkpt>
<trkpt lat="-27.2748879" lon="151.2900743">
  <ele>380.58</ele>
  <time>2026-09-01T19:53:11Z</time>
  <course>180.09</course>
  <speed>4.850505128334574</speed>
  <fix>3d</fix>
</trkpt>
<trkpt lat="-27.2748911" lon="151.2900743">
  <ele>380.68</ele>
  <time>2026-09-01T19:53:11Z</time>
  <course>180.09</course>
  <speed>4.870503054100264</speed>
  <fix>3d</fix>
</trkpt>
<trkpt lat="-27.2748828" lon="151.2900745">
  <ele>380.41</ele>
  <time>2026-09-01T19:53:11Z</time>
  <course>180.64</course>
  <speed>4.83</speed>
  <fix>3d</fix>
</trkpt>
<trkpt lat="-27.2748924" lon="151.2900743">
  <ele>380.73</ele>
  <time>2026-09-01T19:53:11Z</time>
  <course>180.09</course>
  <speed>4.8805020233578436</speed>
  <fix>3d</fix>
</trkpt>
<trkpt lat="-27.2748957" lon="151.2900742">
  <ele>380.83</ele>
  <time>2026-09-01T19:53:11Z</time>
  <course>180.09</course>
  <speed>4.910498956317983</speed>
  <fix>3d</fix>
</trkpt>
<trkpt lat="-27.2748915" lon="151.2900744">
  <ele>380.7</ele>
  <time>2026-09-01T19:53:11Z</time>
  <course>180.68</course>
  <speed>4.9</speed>
  <fix>3d</fix>
</trkpt>
<trkpt lat="-27.2748969" lon="151.2900742">
  <ele>380.87</ele>
  <time>2026-09-01T19:53:11Z</time>
  <course>180.09</course>
  <speed>4.920497942281858</speed>
  <fix>3d</fix>
</trkpt>
<trkpt lat="-27.2749001" lon="151.2900742">
  <ele>380.97</ele>
  <time>2026-09-01T19:53:11Z</time>
  <course>180.09</course>
  <speed>4.94064773081425</speed>
  <fix>3d</fix>
</trkpt>
<trkpt lat="-27.2748915" lon="151.2900744">
  <ele>380.7</ele>
  <time>2026-09-01T19:53:11Z</time>
  <course>180.68</course>
  <speed>4.9</speed>
  <fix>3d</fix>
</trkpt>
<trkpt lat="-27.2749013" lon="151.2900742">
  <ele>381.01</ele>
  <time>2026-09-01T19:53:11Z</time>
  <course>180.09</course>
  <speed>4.950646422438186</speed>
  <fix>3d</fix>
</trkpt>
<trkpt lat="-27.2749046" lon="151.2900741">
  <ele>381.12</ele>
  <time>2026-09-01T19:53:11Z</time>
  <course>180.09</course>
  <speed>4.980642528830995</speed>
  <fix>3d</fix>
</trkpt>
<trkpt lat="-27.2749005" lon="151.2900743">
  <ele>380.99</ele>
  <time>2026-09-01T19:53:11Z</time>
  <course>180.72</course>
  <speed>4.97</speed>
  <fix>3d</fix>
</trkpt>
<trkpt lat="-27.2749059" lon="151.2900741">
  <ele>381.16</ele>
  <time>2026-09-01T19:53:11Z</time>
  <course>180.09</course>
  <speed>4.9906412413636785</speed>
  <fix>3d</fix>
</trkpt>
<trkpt lat="-27.2749091" lon="151.290074">
  <ele>381.26</ele>
  <time>2026-09-01T19:53:11Z</time>
  <course>180.09</course>
  <speed>5.01063868184486</speed>
  <fix>3d</fix>
</trkpt>
<trkpt lat="-27.2749005" lon="151.2900743">
  <ele>380.99</ele>
  <time>2026-09-01T19:53:11Z</time>
  <course>180.72</course>
  <speed>4.97</speed>
  <fix>3d</fix>
</trkpt>
<trkpt lat="-27.2749093" lon="151.290074">
  <ele>381.27</ele>
  <time>2026-09-01T19:53:11Z</time>
  <course>180.09</course>
  <speed>5.01063868184486</speed>
  <fix>3d</fix>
</trkpt>
<trkpt lat="-27.2749136" lon="151.290074">
  <ele>381.41</ele>
  <time>2026-09-01T19:53:11Z</time>
  <course>180.09</course>
  <speed>5.050633623615952</speed>
  <fix>3d</fix>
</trkpt>
<trkpt lat="-27.2749095" lon="151.2900742">
  <ele>381.28</ele>
  <time>2026-09-01T19:53:11Z</time>
  <course>180.75</course>
  <speed>5.04</speed>
  <fix>3d</fix>
</trkpt>
<trkpt lat="-27.274915" lon="151.2900739">
  <ele>381.45</ele>
  <time>2026-09-01T19:53:11Z</time>
  <course>180.09</course>
  <speed>5.060632371551998</speed>
  <fix>3d</fix>
</trkpt>
<trkpt lat="-27.2749182" lon="151.2900739">
  <ele>381.55</ele>
  <time>2026-09-01T19:53:11Z</time>
  <course>180.09</course>
  <speed>5.080797181545432</speed>
  <fix>3d</fix>
</trkpt>
<trkpt lat="-27.2749095" lon="151.2900742">
  <ele>381.28</ele>
  <time>2026-09-01T19:53:11Z</time>
  <course>180.75</course>
  <speed>5.04</speed>
  <fix>3d</fix>
</trkpt>
<trkpt lat="-27.2749184" lon="151.2900739">
  <ele>381.56</ele>
  <time>2026-09-01T19:53:11Z</time>
  <course>180.09</course>
  <speed>5.080797181545432</speed>
  <fix>3d</fix>
</trkpt>
<trkpt lat="-27.2749229" lon="151.2900738">
  <ele>381.7</ele>
  <time>2026-09-01T19:53:11Z</time>
  <course>180.09</course>
  <speed>5.110792502146805</speed>
  <fix>3d</fix>
</trkpt>
<trkpt lat="-27.2749186" lon="151.290074">
  <ele>381.57</ele>
  <time>2026-09-01T19:53:11Z</time>
  <course>180.79</course>
  <speed>5.1</speed>
  <fix>3d</fix>
</trkpt>
<trkpt lat="-27.2749241" lon="151.2900738">
  <ele>381.74</ele>
  <time>2026-09-01T19:53:11Z</time>
  <course>180.09</course>
  <speed>5.1207909545303645</speed>
  <fix>3d</fix>
</trkpt>
<trkpt lat="-27.2749275" lon="151.2900737">
  <ele>381.84</ele>
  <time>2026-09-01T19:53:11Z</time>
  <course>180.09</course>
  <speed>5.150786347733713</speed>
  <fix>3d</fix>
</trkpt>
<trkpt lat="-27.2749186" lon="151.290074">
  <ele>381.57</ele>
  <time>2026-09-01T19:53:11Z</time>
  <course>180.79</course>
  <speed>5.1</speed>
  <fix>3d</fix>
</trkpt>
<trkpt lat="-27.2749289" lon="151.2900737">
  <ele>381.88</ele>
  <time>2026-09-01T19:53:11Z</time>
  <course>180.09</course>
  <speed>5.160784824035972</speed>
  <fix>3d</fix>
</trkpt>
<trkpt lat="-27.2749322" lon="151.2900737">
  <ele>381.99</ele>
  <time>2026-09-01T19:53:11Z</time>
  <course>180.09</course>
  <speed>5.180781794285492</speed>
  <fix>3d</fix>
</trkpt>
<trkpt lat="-27.2749278" lon="151.2900738">
  <ele>381.85</ele>
  <time>2026-09-01T19:53:11Z</time>
  <course>180.83</course>
  <speed>5.17</speed>
  <fix>3d</fix>
</trkpt>
<trkpt lat="-27.2749323" lon="151.2900737">
  <ele>381.99</ele>
  <time>2026-09-01T19:53:11Z</time>
  <course>180.09</course>
  <speed>5.180781794285492</speed>
  <fix>3d</fix>
</trkpt>
<trkpt lat="-27.2749369" lon="151.2900736">
  <ele>382.13</ele>
  <time>2026-09-01T19:53:11Z</time>
  <course>180.1</course>
  <speed>5.210959604525831</speed>
  <fix>3d</fix>
</trkpt>
<trkpt lat="-27.2749278" lon="151.2900738">
  <ele>381.85</ele>
  <time>2026-09-01T19:53:11Z</time>
  <course>180.83</course>
  <speed>5.17</speed>
  <fix>3d</fix>
</trkpt>
<trkpt lat="-27.274937" lon="151.2900736">
  <ele>382.14</ele>
  <time>2026-09-01T19:53:11Z</time>
  <course>180.1</course>
  <speed>5.210959604525831</speed>
  <fix>3d</fix>
</trkpt>
<trkpt lat="-27.2749415" lon="151.2900735">
  <ele>382.27</ele>
  <time>2026-09-01T19:53:11Z</time>
  <course>180.1</course>
  <speed>5.240954111609832</speed>
  <fix>3d</fix>
</trkpt>
<trkpt lat="-27.2749278" lon="151.2900738">
  <ele>381.85</ele>
  <time>2026-09-01T19:53:11Z</time>
  <course>180.83</course>
  <speed>5.17</speed>
  <fix>3d</fix>
</trkpt>
<trkpt lat="-27.2749427" lon="151.2900735">
  <ele>382.31</ele>
  <time>2026-09-01T19:53:11Z</time>
  <course>180.1</course>
  <speed>5.2509522945842875</speed>
  <fix>3d</fix>
</trkpt>
<trkpt lat="-27.2749462" lon="151.2900734">
  <ele>382.42</ele>
  <time>2026-09-01T19:53:11Z</time>
  <course>180.1</course>
  <speed>5.280946884792537</speed>
  <fix>3d</fix>
</trkpt>
<trkpt lat="-27.2749371" lon="151.2900737">
  <ele>382.14</ele>
  <time>2026-09-01T19:53:11Z</time>
  <course>180.86</course>
  <speed>5.23</speed>
  <fix>3d</fix>
</trkpt>
<trkpt lat="-27.2749475" lon="151.2900734">
  <ele>382.46</ele>
  <time>2026-09-01T19:53:11Z</time>
  <course>180.1</course>
  <speed>5.280946884792537</speed>
  <fix>3d</fix>
</trkpt>
<trkpt lat="-27.274951" lon="151.2900733">
  <ele>382.56</ele>
  <time>2026-09-01T19:53:11Z</time>
  <course>180.11</course>
  <speed>5.310941536112029</speed>
  <fix>3d</fix>
</trkpt>
<trkpt lat="-27.2749371" lon="151.2900737">
  <ele>382.14</ele>
  <time>2026-09-01T19:53:11Z</time>
  <course>180.86</course>
  <speed>5.23</speed>
  <fix>3d</fix>
</trkpt>
<trkpt lat="-27.2749523" lon="151.2900733">
  <ele>382.6</ele>
  <time>2026-09-01T19:53:11Z</time>
  <course>180.11</course>
  <speed>5.320939766620179</speed>
  <fix>3d</fix>
</trkpt>
<trkpt lat="-27.2749558" lon="151.2900732">
  <ele>382.71</ele>
  <time>2026-09-01T19:53:11Z</time>
  <course>180.11</course>
  <speed>5.341132838640132</speed>
  <fix>3d</fix>
</trkpt>
<trkpt lat="-27.2749466" lon="151.2900736">
  <ele>382.43</ele>
  <time>2026-09-01T19:53:11Z</time>
  <course>180.9</course>
  <speed>5.3</speed>
  <fix>3d</fix>
</trkpt>
<trkpt lat="-27.2749571" lon="151.2900732">
  <ele>382.75</ele>
  <time>2026-09-01T19:53:11Z</time>
  <course>180.11</course>
  <speed>5.351130721632578</speed>
  <fix>3d</fix>
</trkpt>
<trkpt lat="-27.2749606" lon="151.2900731">
  <ele>382.85</ele>
  <time>2026-09-01T19:53:11Z</time>
  <course>180.11</course>
  <speed>5.371126511263721</speed>
  <fix>3d</fix>
</trkpt>
<trkpt lat="-27.2749466" lon="151.2900736">
  <ele>382.43</ele>
  <time>2026-09-01T19:53:11Z</time>
  <course>180.9</course>
  <speed>5.3</speed>
  <fix>3d</fix>
</trkpt>
<trkpt lat="-27.2749608" lon="151.2900731">
  <ele>382.86</ele>
  <time>2026-09-01T19:53:11Z</time>
  <course>180.11</course>
  <speed>5.371126511263721</speed>
  <fix>3d</fix>
</trkpt>
<trkpt lat="-27.2749655" lon="151.290073">
  <ele>383.0</ele>
  <time>2026-09-01T19:53:11Z</time>
  <course>180.11</course>
  <speed>5.401120254169499</speed>
  <fix>3d</fix>
</trkpt>
<trkpt lat="-27.2749562" lon="151.2900733">
  <ele>382.72</ele>
  <time>2026-09-01T19:53:11Z</time>
  <course>180.93</course>
  <speed>5.36</speed>
  <fix>3d</fix>
</trkpt>
<trkpt lat="-27.2749657" lon="151.290073">
  <ele>383.0</ele>
  <time>2026-09-01T19:53:11Z</time>
  <course>180.11</course>
  <speed>5.401120254169499</speed>
  <fix>3d</fix>
</trkpt>
<trkpt lat="-27.2749704" lon="151.2900729">
  <ele>383.14</ele>
  <time>2026-09-01T19:53:11Z</time>
  <course>180.11</course>
  <speed>5.431114066193049</speed>
  <fix>3d</fix>
</trkpt>
<trkpt lat="-27.2749562" lon="151.2900733">
  <ele>382.72</ele>
  <time>2026-09-01T19:53:11Z</time>
  <course>180.93</course>
  <speed>5.36</speed>
  <fix>3d</fix>
</trkpt>
<trkpt lat="-27.2749718" lon="151.2900729">
  <ele>383.18</ele>
  <time>2026-09-01T19:53:11Z</time>
  <course>180.11</course>
  <speed>5.441112018696178</speed>
  <fix>3d</fix>
</trkpt>
<trkpt lat="-27.2749753" lon="151.2900728">
  <ele>383.29</ele>
  <time>2026-09-01T19:53:11Z</time>
  <course>180.11</course>
  <speed>5.461318522115332</speed>
  <fix>3d</fix>
</trkpt>
<trkpt lat="-27.2749659" lon="151.2900732">
  <ele>383.01</ele>
  <time>2026-09-01T19:53:11Z</time>
  <course>180.96</course>
  <speed>5.42</speed>
  <fix>3d</fix>
</trkpt>
<trkpt lat="-27.2749767" lon="151.2900728">
  <ele>383.33</ele>
  <time>2026-09-01T19:53:11Z</time>
  <course>180.11</course>
  <speed>5.471316112234789</speed>
  <fix>3d</fix>
</trkpt>
<trkpt lat="-27.2749803" lon="151.2900727">
  <ele>383.43</ele>
  <time>2026-09-01T19:53:11Z</time>
  <course>180.11</course>
  <speed>5.49131131880173</speed>
  <fix>3d</fix>
</trkpt>
<trkpt lat="-27.2749659" lon="151.2900732">
  <ele>383.01</ele>
  <time>2026-09-01T19:53:11Z</time>
  <course>180.96</course>
  <speed>5.42</speed>
  <fix>3d</fix>
</trkpt>
<trkpt lat="-27.2749816" lon="151.2900727">
  <ele>383.47</ele>
  <time>2026-09-01T19:53:11Z</time>
  <course>180.11</course>
  <speed>5.501308935153524</speed>
  <fix>3d</fix>
</trkpt>
<trkpt lat="-27.2749853" lon="151.2900726">
  <ele>383.58</ele>
  <time>2026-09-01T19:53:11Z</time>
  <course>180.11</course>
  <speed>5.521304193757123</speed>
  <fix>3d</fix>
</trkpt>
<trkpt lat="-27.2749757" lon="151.290073">
  <ele>383.3</ele>
  <time>2026-09-01T19:53:11Z</time>
  <course>180.99</course>
  <speed>5.48</speed>
  <fix>3d</fix>
</trkpt>
<trkpt lat="-27.2749854" lon="151.2900726">
  <ele>383.58</ele>
  <time>2026-09-01T19:53:11Z</time>
  <course>180.11</course>
  <speed>5.521304193757123</speed>
  <fix>3d</fix>
</trkpt>
<trkpt lat="-27.2749903" lon="151.2900725">
  <ele>383.72</ele>
  <time>2026-09-01T19:53:11Z</time>
  <course>180.12</course>
  <speed>5.5512971457128835</speed>
  <fix>3d</fix>
</trkpt>
<trkpt lat="-27.2749757" lon="151.290073">
  <ele>383.3</ele>
  <time>2026-09-01T19:53:11Z</time>
  <course>180.99</course>
  <speed>5.48</speed>
  <fix>3d</fix>
</trkpt>
<trkpt lat="-27.2749914" lon="151.2900725">
  <ele>383.76</ele>
  <time>2026-09-01T19:53:11Z</time>
  <course>180.12</course>
  <speed>5.5512971457128835</speed>
  <fix>3d</fix>
</trkpt>
<trkpt lat="-27.2749955" lon="151.2900724">
  <ele>383.87</ele>
  <time>2026-09-01T19:53:11Z</time>
  <course>180.13</course>
  <speed>5.581514131487978</speed>
  <fix>3d</fix>
</trkpt>
<trkpt lat="-27.2749856" lon="151.2900728">
  <ele>383.58</ele>
  <time>2026-09-01T19:53:11Z</time>
  <course>181.02</course>
  <speed>5.54</speed>
  <fix>3d</fix>
</trkpt>
<trkpt lat="-27.2749968" lon="151.2900724">
  <ele>383.91</ele>
  <time>2026-09-01T19:53:11Z</time>
  <course>180.13</course>
  <speed>5.581514131487978</speed>
  <fix>3d</fix>
</trkpt>
<trkpt lat="-27.2750005" lon="151.2900723">
  <ele>384.01</ele>
  <time>2026-09-01T19:53:11Z</time>
  <course>180.14</course>
  <speed>5.6015087253346305</speed>
  <fix>3d</fix>
</trkpt>
<trkpt lat="-27.2749956" lon="151.2900726">
  <ele>383.87</ele>
  <time>2026-09-01T19:53:11Z</time>
  <course>181.05</course>
  <speed>5.59</speed>
  <fix>3d</fix>
</trkpt>
<trkpt lat="-27.2750019" lon="151.2900723">
  <ele>384.05</ele>
  <time>2026-09-01T19:53:11Z</time>
  <course>180.14</course>
  <speed>5.6115060367070795</speed>
  <fix>3d</fix>
</trkpt>
<trkpt lat="-27.2750055" lon="151.2900722">
  <ele>384.16</ele>
  <time>2026-09-01T19:53:11Z</time>
  <course>180.14</course>
  <speed>5.631500688093716</speed>
  <fix>3d</fix>
</trkpt>
<trkpt lat="-27.2749956" lon="151.2900726">
  <ele>383.87</ele>
  <time>2026-09-01T19:53:11Z</time>
  <course>181.05</course>
  <speed>5.59</speed>
  <fix>3d</fix>
</trkpt>
<trkpt lat="-27.2750069" lon="151.2900722">
  <ele>384.2</ele>
  <time>2026-09-01T19:53:11Z</time>
  <course>180.14</course>
  <speed>5.641498028006391</speed>
  <fix>3d</fix>
</trkpt>
<trkpt lat="-27.2750106" lon="151.2900721">
  <ele>384.31</ele>
  <time>2026-09-01T19:53:11Z</time>
  <course>180.14</course>
  <speed>5.661492736019362</speed>
  <fix>3d</fix>
</trkpt>
<trkpt lat="-27.2750057" lon="151.2900723">
  <ele>384.15</ele>
  <time>2026-09-01T19:53:11Z</time>
  <course>181.08</course>
  <speed>5.65</speed>
  <fix>3d</fix>
</trkpt>
<trkpt lat="-27.2750108" lon="151.2900721">
  <ele>384.31</ele>
  <time>2026-09-01T19:53:11Z</time>
  <course>180.14</course>
  <speed>5.661492736019362</speed>
  <fix>3d</fix>
</trkpt>
<trkpt lat="-27.2750158" lon="151.290072">
  <ele>384.45</ele>
  <time>2026-09-01T19:53:11Z</time>
  <course>180.14</course>
  <speed>5.681725090146477</speed>
  <fix>3d</fix>
</trkpt>
<trkpt lat="-27.2750057" lon="151.2900723">
  <ele>384.15</ele>
  <time>2026-09-01T19:53:11Z</time>
  <course>181.08</course>
  <speed>5.65</speed>
  <fix>3d</fix>
</trkpt>
<trkpt lat="-27.275016" lon="151.290072">
  <ele>384.46</ele>
  <time>2026-09-01T19:53:11Z</time>
  <course>180.14</course>
  <speed>5.691722059271694</speed>
  <fix>3d</fix>
</trkpt>
<trkpt lat="-27.2750209" lon="151.2900718">
  <ele>384.6</ele>
  <time>2026-09-01T19:53:11Z</time>
  <course>180.14</course>
  <speed>5.711716029355801</speed>
  <fix>3d</fix>
</trkpt>
<trkpt lat="-27.2750159" lon="151.2900722">
  <ele>384.44</ele>
  <time>2026-09-01T19:53:11Z</time>
  <course>181.11</course>
  <speed>5.7</speed>
  <fix>3d</fix>
</trkpt>
<trkpt lat="-27.2750223" lon="151.2900718">
  <ele>384.64</ele>
  <time>2026-09-01T19:53:11Z</time>
  <course>180.14</course>
  <speed>5.721713030203455</speed>
  <fix>3d</fix>
</trkpt>
<trkpt lat="-27.2750261" lon="151.2900717">
  <ele>384.75</ele>
  <time>2026-09-01T19:53:11Z</time>
  <course>180.14</course>
  <speed>5.741707063234766</speed>
  <fix>3d</fix>
</trkpt>
<trkpt lat="-27.2750159" lon="151.2900722">
  <ele>384.44</ele>
  <time>2026-09-01T19:53:11Z</time>
  <course>181.11</course>
  <speed>5.7</speed>
  <fix>3d</fix>
</trkpt>
<trkpt lat="-27.2750275" lon="151.2900717">
  <ele>384.78</ele>
  <time>2026-09-01T19:53:11Z</time>
  <course>180.14</course>
  <speed>5.741707063234766</speed>
  <fix>3d</fix>
</trkpt>
<trkpt lat="-27.2750312" lon="151.2900716">
  <ele>384.89</ele>
  <time>2026-09-01T19:53:11Z</time>
  <course>180.14</course>
  <speed>5.7617011376849465</speed>
  <fix>3d</fix>
</trkpt>
<trkpt lat="-27.2750262" lon="151.290072">
  <ele>384.72</ele>
  <time>2026-09-01T19:53:11Z</time>
  <course>181.14</course>
  <speed>5.75</speed>
  <fix>3d</fix>
</trkpt>
<trkpt lat="-27.2750314" lon="151.2900716">
  <ele>384.9</ele>
  <time>2026-09-01T19:53:11Z</time>
  <course>180.14</course>
  <speed>5.7617011376849465</speed>
  <fix>3d</fix>
</trkpt>
<trkpt lat="-27.2750364" lon="151.2900715">
  <ele>385.03</ele>
  <time>2026-09-01T19:53:11Z</time>
  <course>180.15</course>
  <speed>5.791942679274373</speed>
  <fix>3d</fix>
</trkpt>
<trkpt lat="-27.2750262" lon="151.290072">
  <ele>384.72</ele>
  <time>2026-09-01T19:53:11Z</time>
  <course>181.14</course>
  <speed>5.75</speed>
  <fix>3d</fix>
</trkpt>
<trkpt lat="-27.2750366" lon="151.2900715">
  <ele>385.04</ele>
  <time>2026-09-01T19:53:11Z</time>
  <course>180.15</course>
  <speed>5.791942679274373</speed>
  <fix>3d</fix>
</trkpt>
<trkpt lat="-27.2750416" lon="151.2900714">
  <ele>385.18</ele>
  <time>2026-09-01T19:53:11Z</time>
  <course>180.16</course>
  <speed>5.811935994141711</speed>
  <fix>3d</fix>
</trkpt>
<trkpt lat="-27.2750366" lon="151.2900717">
  <ele>385.01</ele>
  <time>2026-09-01T19:53:11Z</time>
  <course>181.17</course>
  <speed>5.81</speed>
  <fix>3d</fix>
</trkpt>
<trkpt lat="-27.275043" lon="151.2900713">
  <ele>385.22</ele>
  <time>2026-09-01T19:53:11Z</time>
  <course>180.16</course>
  <speed>5.821932668796506</speed>
  <fix>3d</fix>
</trkpt>
<trkpt lat="-27.2750468" lon="151.2900712">
  <ele>385.32</ele>
  <time>2026-09-01T19:53:11Z</time>
  <course>180.17</course>
  <speed>5.831929354853332</speed>
  <fix>3d</fix>
</trkpt>
<trkpt lat="-27.2750366" lon="151.2900717">
  <ele>385.01</ele>
  <time>2026-09-01T19:53:11Z</time>
  <course>181.17</course>
  <speed>5.81</speed>
  <fix>3d</fix>
</trkpt>
<trkpt lat="-27.2750482" lon="151.2900712">
  <ele>385.36</ele>
  <time>2026-09-01T19:53:11Z</time>
  <course>180.18</course>
  <speed>5.841926052253657</speed>
  <fix>3d</fix>
</trkpt>
<trkpt lat="-27.2750521" lon="151.2900711">
  <ele>385.47</ele>
  <time>2026-09-01T19:53:11Z</time>
  <course>180.18</course>
  <speed>5.861919480852667</speed>
  <fix>3d</fix>
</trkpt>
<trkpt lat="-27.2750471" lon="151.2900715">
  <ele>385.3</ele>
  <time>2026-09-01T19:53:11Z</time>
  <course>181.19</course>
  <speed>5.86</speed>
  <fix>3d</fix>
</trkpt>
<trkpt lat="-27.2750535" lon="151.2900711">
  <ele>385.5</ele>
  <time>2026-09-01T19:53:11Z</time>
  <course>180.18</course>
  <speed>5.861919480852667</speed>
  <fix>3d</fix>
</trkpt>
<trkpt lat="-27.2750574" lon="151.290071">
  <ele>385.61</ele>
  <time>2026-09-01T19:53:11Z</time>
  <course>180.19</course>
  <speed>5.881912954133204</speed>
  <fix>3d</fix>
</trkpt>
<trkpt lat="-27.2750471" lon="151.2900715">
  <ele>385.3</ele>
  <time>2026-09-01T19:53:11Z</time>
  <course>181.19</course>
  <speed>5.86</speed>
  <fix>3d</fix>
</trkpt>
<trkpt lat="-27.2750591" lon="151.2900709">
  <ele>385.65</ele>
  <time>2026-09-01T19:53:11Z</time>
  <course>180.19</course>
  <speed>5.891909707386901</speed>
  <fix>3d</fix>
</trkpt>
<trkpt lat="-27.2750626" lon="151.2900708">
  <ele>385.75</ele>
  <time>2026-09-01T19:53:11Z</time>
  <course>180.19</course>
  <speed>5.901906471641176</speed>
  <fix>3d</fix>
</trkpt>
<trkpt lat="-27.2750577" lon="151.2900712">
  <ele>385.58</ele>
  <time>2026-09-01T19:53:11Z</time>
  <course>181.21</course>
  <speed>5.91</speed>
  <fix>3d</fix>
</trkpt>
<trkpt lat="-27.2750641" lon="151.2900708">
  <ele>385.79</ele>
  <time>2026-09-01T19:53:11Z</time>
  <course>180.19</course>
  <speed>5.911903246840226</speed>
  <fix>3d</fix>
</trkpt>
<trkpt lat="-27.275068" lon="151.2900707">
  <ele>385.89</ele>
  <time>2026-09-01T19:53:11Z</time>
  <course>180.2</course>
  <speed>5.922161767462959</speed>
  <fix>3d</fix>
</trkpt>
<trkpt lat="-27.2750577" lon="151.2900712">
  <ele>385.58</ele>
  <time>2026-09-01T19:53:11Z</time>
  <course>181.21</course>
  <speed>5.91</speed>
  <fix>3d</fix>
</trkpt>
<trkpt lat="-27.2750681" lon="151.2900707">
  <ele>385.9</ele>
  <time>2026-09-01T19:53:11Z</time>
  <course>180.2</course>
  <speed>5.922161767462959</speed>
  <fix>3d</fix>
</trkpt>
<trkpt lat="-27.2750733" lon="151.2900706">
  <ele>386.03</ele>
  <time>2026-09-01T19:53:11Z</time>
  <course>180.21</course>
  <speed>5.9521508717437595</speed>
  <fix>3d</fix>
</trkpt>
<trkpt lat="-27.2750683" lon="151.290071">
  <ele>385.86</ele>
  <time>2026-09-01T19:53:11Z</time>
  <course>181.23</course>
  <speed>5.95</speed>
  <fix>3d</fix>
</trkpt>
<trkpt lat="-27.2750735" lon="151.2900706">
  <ele>386.04</ele>
  <time>2026-09-01T19:53:11Z</time>
  <course>180.21</course>
  <speed>5.9521508717437595</speed>
  <fix>3d</fix>
</trkpt>
<trkpt lat="-27.2750786" lon="151.2900705">
  <ele>386.17</ele>
  <time>2026-09-01T19:53:11Z</time>
  <course>180.22</course>
  <speed>5.9721436687340335</speed>
  <fix>3d</fix>
</trkpt>
<trkpt lat="-27.2750683" lon="151.290071">
  <ele>385.86</ele>
  <time>2026-09-01T19:53:11Z</time>
  <course>181.23</course>
  <speed>5.95</speed>
  <fix>3d</fix>
</trkpt>
<trkpt lat="-27.2750803" lon="151.2900704">
  <ele>386.21</ele>
  <time>2026-09-01T19:53:11Z</time>
  <course>180.22</course>
  <speed>5.9721436687340335</speed>
  <fix>3d</fix>
</trkpt>
<trkpt lat="-27.2750838" lon="151.2900703">
  <ele>386.31</ele>
  <time>2026-09-01T19:53:11Z</time>
  <course>180.23</course>
  <speed>5.99213651379873</speed>
  <fix>3d</fix>
</trkpt>
<trkpt lat="-27.2750683" lon="151.290071">
  <ele>385.86</ele>
  <time>2026-09-01T19:53:11Z</time>
  <course>181.23</course>
  <speed>5.95</speed>
  <fix>3d</fix>
</trkpt>
<trkpt lat="-27.2750857" lon="151.2900703">
  <ele>386.35</ele>
  <time>2026-09-01T19:53:11Z</time>
  <course>180.23</course>
  <speed>6.002132954208862</speed>
  <fix>3d</fix>
</trkpt>
<trkpt lat="-27.2750893" lon="151.2900702">
  <ele>386.45</ele>
  <time>2026-09-01T19:53:11Z</time>
  <course>180.24</course>
  <speed>6.012129406458248</speed>
  <fix>3d</fix>
</trkpt>
<trkpt lat="-27.2750791" lon="151.2900707">
  <ele>386.14</ele>
  <time>2026-09-01T19:53:11Z</time>
  <course>181.24</course>
  <speed>6.0</speed>
  <fix>3d</fix>
</trkpt>
<trkpt lat="-27.2750909" lon="151.2900702">
  <ele>386.49</ele>
  <time>2026-09-01T19:53:11Z</time>
  <course>180.24</course>
  <speed>6.022125870487929</speed>
  <fix>3d</fix>
</trkpt>
<trkpt lat="-27.2750947" lon="151.2900701">
  <ele>386.59</ele>
  <time>2026-09-01T19:53:11Z</time>
  <course>180.25</course>
  <speed>6.0321223462393405</speed>
  <fix>3d</fix>
</trkpt>
<trkpt lat="-27.2750791" lon="151.2900707">
  <ele>386.14</ele>
  <time>2026-09-01T19:53:11Z</time>
  <course>181.24</course>
  <speed>6.0</speed>
  <fix>3d</fix>
</trkpt>
<trkpt lat="-27.2750956" lon="151.29007">
  <ele>386.61</ele>
  <time>2026-09-01T19:53:11Z</time>
  <course>180.25</course>
  <speed>6.042118833654301</speed>
  <fix>3d</fix>
</trkpt>
<trkpt lat="-27.2751002" lon="151.2900699">
  <ele>386.73</ele>
  <time>2026-09-01T19:53:11Z</time>
  <course>180.26</course>
  <speed>6.062384019509157</speed>
  <fix>3d</fix>
</trkpt>
<trkpt lat="-27.2750899" lon="151.2900704">
  <ele>386.43</ele>
  <time>2026-09-01T19:53:11Z</time>
  <course>181.26</course>
  <speed>6.04</speed>
  <fix>3d</fix>
</trkpt>
<trkpt lat="-27.2751018" lon="151.2900699">
  <ele>386.77</ele>
  <time>2026-09-01T19:53:11Z</time>
  <course>180.26</course>
  <speed>6.062384019509157</speed>
  <fix>3d</fix>
</trkpt>
<trkpt lat="-27.2751058" lon="151.2900698">
  <ele>386.87</ele>
  <time>2026-09-01T19:53:11Z</time>
  <course>180.27</course>
  <speed>6.082376180408443</speed>
  <fix>3d</fix>
</trkpt>
<trkpt lat="-27.2751008" lon="151.2900702">
  <ele>386.71</ele>
  <time>2026-09-01T19:53:11Z</time>
  <course>181.28</course>
  <speed>6.09</speed>
  <fix>3d</fix>
</trkpt>
<trkpt lat="-27.2751073" lon="151.2900697">
  <ele>386.91</ele>
  <time>2026-09-01T19:53:11Z</time>
  <course>180.27</course>
  <speed>6.092372280154915</speed>
  <fix>3d</fix>
</trkpt>
<trkpt lat="-27.2751113" lon="151.2900696">
  <ele>387.02</ele>
  <time>2026-09-01T19:53:11Z</time>
  <course>180.28</course>
  <speed>6.102368392681647</speed>
  <fix>3d</fix>
</trkpt>
<trkpt lat="-27.2751008" lon="151.2900702">
  <ele>386.71</ele>
  <time>2026-09-01T19:53:11Z</time>
  <course>181.28</course>
  <speed>6.09</speed>
  <fix>3d</fix>
</trkpt>
<trkpt lat="-27.2751128" lon="151.2900696">
  <ele>387.06</ele>
  <time>2026-09-01T19:53:11Z</time>
  <course>180.28</course>
  <speed>6.112364517925939</speed>
  <fix>3d</fix>
</trkpt>
<trkpt lat="-27.2751168" lon="151.2900695">
  <ele>387.16</ele>
  <time>2026-09-01T19:53:11Z</time>
  <course>180.28</course>
  <speed>6.122360655825496</speed>
  <fix>3d</fix>
</trkpt>
<trkpt lat="-27.2751118" lon="151.2900699">
  <ele>386.99</ele>
  <time>2026-09-01T19:53:11Z</time>
  <course>181.3</course>
  <speed>6.13</speed>
  <fix>3d</fix>
</trkpt>
<trkpt lat="-27.2751185" lon="151.2900694">
  <ele>387.2</ele>
  <time>2026-09-01T19:53:11Z</time>
  <course>180.28</course>
  <speed>6.132356806318432</speed>
  <fix>3d</fix>
</trkpt>
<trkpt lat="-27.2751224" lon="151.2900693">
  <ele>387.3</ele>
  <time>2026-09-01T19:53:11Z</time>
  <course>180.29</course>
  <speed>6.1523491448389045</speed>
  <fix>3d</fix>
</trkpt>
<trkpt lat="-27.2751118" lon="151.2900699">
  <ele>386.99</ele>
  <time>2026-09-01T19:53:11Z</time>
  <course>181.3</course>
  <speed>6.13</speed>
  <fix>3d</fix>
</trkpt>
<trkpt lat="-27.2751226" lon="151.2900693">
  <ele>387.31</ele>
  <time>2026-09-01T19:53:11Z</time>
  <course>180.29</course>
  <speed>6.1523491448389045</speed>
  <fix>3d</fix>
</trkpt>
<trkpt lat="-27.2751279" lon="151.2900692">
  <ele>387.44</ele>
  <time>2026-09-01T19:53:11Z</time>
  <course>180.29</course>
  <speed>6.17234153300026</speed>
  <fix>3d</fix>
</trkpt>
<trkpt lat="-27.2751228" lon="151.2900696">
  <ele>387.28</ele>
  <time>2026-09-01T19:53:11Z</time>
  <course>181.32</course>
  <speed>6.18</speed>
  <fix>3d</fix>
</trkpt>
<trkpt lat="-27.2751282" lon="151.2900692">
  <ele>387.45</ele>
  <time>2026-09-01T19:53:11Z</time>
  <course>180.29</course>
  <speed>6.17234153300026</speed>
  <fix>3d</fix>
</trkpt>
<trkpt lat="-27.2751336" lon="151.290069">
  <ele>387.59</ele>
  <time>2026-09-01T19:53:11Z</time>
  <course>180.3</course>
  <speed>6.192333970321691</speed>
  <fix>3d</fix>
</trkpt>
<trkpt lat="-27.2751228" lon="151.2900696">
  <ele>387.28</ele>
  <time>2026-09-01T19:53:11Z</time>
  <course>181.32</course>
  <speed>6.18</speed>
  <fix>3d</fix>
</trkpt>
<trkpt lat="-27.2751349" lon="151.290069">
  <ele>387.62</ele>
  <time>2026-09-01T19:53:11Z</time>
  <course>180.31</course>
  <speed>6.2023302072688775</speed>
  <fix>3d</fix>
</trkpt>
<trkpt lat="-27.2751392" lon="151.2900689">
  <ele>387.73</ele>
  <time>2026-09-01T19:53:11Z</time>
  <course>180.31</course>
  <speed>6.2223227174424185</speed>
  <fix>3d</fix>
</trkpt>
<trkpt lat="-27.275134" lon="151.2900693">
  <ele>387.57</ele>
  <time>2026-09-01T19:53:11Z</time>
  <course>181.33</course>
  <speed>6.22</speed>
  <fix>3d</fix>
</trkpt>
<trkpt lat="-27.2751394" lon="151.2900689">
  <ele>387.73</ele>
  <time>2026-09-01T19:53:11Z</time>
  <course>180.31</course>
  <speed>6.2223227174424185</speed>
  <fix>3d</fix>
</trkpt>
<trkpt lat="-27.2751448" lon="151.2900688">
  <ele>387.87</ele>
  <time>2026-09-01T19:53:11Z</time>
  <course>180.32</course>
  <speed>6.2425956140054435</speed>
  <fix>3d</fix>
</trkpt>
<trkpt lat="-27.275134" lon="151.2900693">
  <ele>387.57</ele>
  <time>2026-09-01T19:53:11Z</time>
  <course>181.33</course>
  <speed>6.22</speed>
  <fix>3d</fix>
</trkpt>
<trkpt lat="-27.275145" lon="151.2900687">
  <ele>387.88</ele>
  <time>2026-09-01T19:53:11Z</time>
  <course>180.32</course>
  <speed>6.2425956140054435</speed>
  <fix>3d</fix>
</trkpt>
<trkpt lat="-27.2751505" lon="151.2900686">
  <ele>388.01</ele>
  <time>2026-09-01T19:53:11Z</time>
  <course>180.32</course>
  <speed>6.262587324740471</speed>
  <fix>3d</fix>
</trkpt>
<trkpt lat="-27.2751452" lon="151.290069">
  <ele>387.85</ele>
  <time>2026-09-01T19:53:11Z</time>
  <course>181.33</course>
  <speed>6.27</speed>
  <fix>3d</fix>
</trkpt>
<trkpt lat="-27.2751514" lon="151.2900686">
  <ele>388.04</ele>
  <time>2026-09-01T19:53:11Z</time>
  <course>180.32</course>
  <speed>6.272583199926487</speed>
  <fix>3d</fix>
</trkpt>
<trkpt lat="-27.2751562" lon="151.2900685">
  <ele>388.16</ele>
  <time>2026-09-01T19:53:11Z</time>
  <course>180.33</course>
  <speed>6.292574989620704</speed>
  <fix>3d</fix>
</trkpt>
<trkpt lat="-27.2751452" lon="151.290069">
  <ele>387.85</ele>
  <time>2026-09-01T19:53:11Z</time>
  <course>181.33</course>
  <speed>6.27</speed>
  <fix>3d</fix>
</trkpt>
<trkpt lat="-27.2751573" lon="151.2900684">
  <ele>388.19</ele>
  <time>2026-09-01T19:53:11Z</time>
  <course>180.34</course>
  <speed>6.292574989620704</speed>
  <fix>3d</fix>
</trkpt>
<trkpt lat="-27.2751618" lon="151.2900683">
  <ele>388.3</ele>
  <time>2026-09-01T19:53:11Z</time>
  <course>180.34</course>
  <speed>6.312566831329392</speed>
  <fix>3d</fix>
</trkpt>
<trkpt lat="-27.2751565" lon="151.2900687">
  <ele>388.14</ele>
  <time>2026-09-01T19:53:11Z</time>
  <course>181.34</course>
  <speed>6.31</speed>
  <fix>3d</fix>
</trkpt>
<trkpt lat="-27.275163" lon="151.2900683">
  <ele>388.33</ele>
  <time>2026-09-01T19:53:11Z</time>
  <course>180.34</course>
  <speed>6.312566831329392</speed>
  <fix>3d</fix>
</trkpt>
<trkpt lat="-27.2751675" lon="151.2900681">
  <ele>388.45</ele>
  <time>2026-09-01T19:53:11Z</time>
  <course>180.35</course>
  <speed>6.332558724559923</speed>
  <fix>3d</fix>
</trkpt>
<trkpt lat="-27.2751565" lon="151.2900687">
  <ele>388.14</ele>
  <time>2026-09-01T19:53:11Z</time>
  <course>181.34</course>
  <speed>6.31</speed>
  <fix>3d</fix>
</trkpt>
<trkpt lat="-27.2751687" lon="151.2900681">
  <ele>388.47</ele>
  <time>2026-09-01T19:53:11Z</time>
  <course>180.35</course>
  <speed>6.332558724559923</speed>
  <fix>3d</fix>
</trkpt>
<trkpt lat="-27.2751733" lon="151.290068">
  <ele>388.59</ele>
  <time>2026-09-01T19:53:11Z</time>
  <course>180.36</course>
  <speed>6.352550668825869</speed>
  <fix>3d</fix>
</trkpt>
<trkpt lat="-27.2751679" lon="151.2900684">
  <ele>388.43</ele>
  <time>2026-09-01T19:53:11Z</time>
  <course>181.35</course>
  <speed>6.36</speed>
  <fix>3d</fix>
</trkpt>
<trkpt lat="-27.2751744" lon="151.290068">
  <ele>388.62</ele>
  <time>2026-09-01T19:53:11Z</time>
  <course>180.36</course>
  <speed>6.352550668825869</speed>
  <fix>3d</fix>
</trkpt>
<trkpt lat="-27.275179" lon="151.2900678">
  <ele>388.73</ele>
  <time>2026-09-01T19:53:11Z</time>
  <course>180.38</course>
  <speed>6.372542663646906</speed>
  <fix>3d</fix>
</trkpt>
<trkpt lat="-27.2751679" lon="151.2900684">
  <ele>388.43</ele>
  <time>2026-09-01T19:53:11Z</time>
  <course>181.35</course>
  <speed>6.36</speed>
  <fix>3d</fix>
</trkpt>
<trkpt lat="-27.2751802" lon="151.2900678">
  <ele>388.76</ele>
  <time>2026-09-01T19:53:11Z</time>
  <course>180.38</course>
  <speed>6.372542663646906</speed>
  <fix>3d</fix>
</trkpt>
<trkpt lat="-27.2751848" lon="151.2900677">
  <ele>388.88</ele>
  <time>2026-09-01T19:53:11Z</time>
  <course>180.38</course>
  <speed>6.392534708548714</speed>
  <fix>3d</fix>
</trkpt>
<trkpt lat="-27.2751794" lon="151.2900681">
  <ele>388.72</ele>
  <time>2026-09-01T19:53:11Z</time>
  <course>181.36</course>
  <speed>6.4</speed>
  <fix>3d</fix>
</trkpt>
<trkpt lat="-27.275185" lon="151.2900677">
  <ele>388.88</ele>
  <time>2026-09-01T19:53:11Z</time>
  <course>180.38</course>
  <speed>6.392534708548714</speed>
  <fix>3d</fix>
</trkpt>
<trkpt lat="-27.2751906" lon="151.2900675">
  <ele>389.02</ele>
  <time>2026-09-01T19:53:11Z</time>
  <course>180.4</course>
  <speed>6.412526803062892</speed>
  <fix>3d</fix>
</trkpt>
<trkpt lat="-27.2751794" lon="151.2900681">
  <ele>388.72</ele>
  <time>2026-09-01T19:53:11Z</time>
  <course>181.36</course>
  <speed>6.4</speed>
  <fix>3d</fix>
</trkpt>
<trkpt lat="-27.2751908" lon="151.2900675">
  <ele>389.03</ele>
  <time>2026-09-01T19:53:11Z</time>
  <course>180.4</course>
  <speed>6.412526803062892</speed>
  <fix>3d</fix>
</trkpt>
<trkpt lat="-27.2751964" lon="151.2900674">
  <ele>389.17</ele>
  <time>2026-09-01T19:53:11Z</time>
  <course>180.41</course>
  <speed>6.432518946726857</speed>
  <fix>3d</fix>
</trkpt>
<trkpt lat="-27.2751909" lon="151.2900678">
  <ele>389.01</ele>
  <time>2026-09-01T19:53:11Z</time>
  <course>181.36</course>
  <speed>6.44</speed>
  <fix>3d</fix>
</trkpt>
<trkpt lat="-27.2751966" lon="151.2900674">
  <ele>389.17</ele>
  <time>2026-09-01T19:53:11Z</time>
  <course>180.41</course>
  <speed>6.432518946726857</speed>
  <fix>3d</fix>
</trkpt>
<trkpt lat="-27.2752022" lon="151.2900672">
  <ele>389.31</ele>
  <time>2026-09-01T19:53:11Z</time>
  <course>180.42</course>
  <speed>6.452511139083759</speed>
  <fix>3d</fix>
</trkpt>
<trkpt lat="-27.2751909" lon="151.2900678">
  <ele>389.01</ele>
  <time>2026-09-01T19:53:11Z</time>
  <course>181.36</course>
  <speed>6.44</speed>
  <fix>3d</fix>
</trkpt>
<trkpt lat="-27.2752026" lon="151.2900672">
  <ele>389.32</ele>
  <time>2026-09-01T19:53:11Z</time>
  <course>180.42</course>
  <speed>6.452511139083759</speed>
  <fix>3d</fix>
</trkpt>
<trkpt lat="-27.275208" lon="151.2900671">
  <ele>389.45</ele>
  <time>2026-09-01T19:53:11Z</time>
  <course>180.42</course>
  <speed>6.472503379682393</speed>
  <fix>3d</fix>
</trkpt>
<trkpt lat="-27.2752025" lon="151.2900675">
  <ele>389.3</ele>
  <time>2026-09-01T19:53:11Z</time>
  <course>181.36</course>
  <speed>6.48</speed>
  <fix>3d</fix>
</trkpt>
<trkpt lat="-27.2752095" lon="151.290067">
  <ele>389.49</ele>
  <time>2026-09-01T19:53:11Z</time>
  <course>180.42</course>
  <speed>6.482499517932878</speed>
  <fix>3d</fix>
</trkpt>
<trkpt lat="-27.2752139" lon="151.2900669">
  <ele>389.6</ele>
  <time>2026-09-01T19:53:11Z</time>
  <course>180.42</course>
  <speed>6.492495668077107</speed>
  <fix>3d</fix>
</trkpt>
<trkpt lat="-27.2752025" lon="151.2900675">
  <ele>389.3</ele>
  <time>2026-09-01T19:53:11Z</time>
  <course>181.36</course>
  <speed>6.48</speed>
  <fix>3d</fix>
</trkpt>
<trkpt lat="-27.2752154" lon="151.2900669">
  <ele>389.63</ele>
  <time>2026-09-01T19:53:11Z</time>
  <course>180.42</course>
  <speed>6.502491830060227</speed>
  <fix>3d</fix>
</trkpt>
<trkpt lat="-27.2752197" lon="151.2900667">
  <ele>389.74</ele>
  <time>2026-09-01T19:53:11Z</time>
  <course>180.41</course>
  <speed>6.512488003827723</speed>
  <fix>3d</fix>
</trkpt>
<trkpt lat="-27.2752142" lon="151.2900672">
  <ele>389.59</ele>
  <time>2026-09-01T19:53:11Z</time>
  <course>181.35</course>
  <speed>6.52</speed>
  <fix>3d</fix>
</trkpt>
<trkpt lat="-27.2752213" lon="151.2900667">
  <ele>389.78</ele>
  <time>2026-09-01T19:53:11Z</time>
  <course>180.41</course>
  <speed>6.522484189325414</speed>
  <fix>3d</fix>
</trkpt>
<trkpt lat="-27.2752256" lon="151.2900666">
  <ele>389.89</ele>
  <time>2026-09-01T19:53:11Z</time>
  <course>180.42</course>
  <speed>6.53248038649945</speed>
  <fix>3d</fix>
</trkpt>
<trkpt lat="-27.2752142" lon="151.2900672">
  <ele>389.59</ele>
  <time>2026-09-01T19:53:11Z</time>
  <course>181.35</course>
  <speed>6.52</speed>
  <fix>3d</fix>
</trkpt>
<trkpt lat="-27.2752272" lon="151.2900666">
  <ele>389.92</ele>
  <time>2026-09-01T19:53:11Z</time>
  <course>180.42</course>
  <speed>6.542476595296311</speed>
  <fix>3d</fix>
</trkpt>
<trkpt lat="-27.2752315" lon="151.2900664">
  <ele>390.03</ele>
  <time>2026-09-01T19:53:11Z</time>
  <course>180.41</course>
  <speed>6.552472815662801</speed>
  <fix>3d</fix>
</trkpt>
<trkpt lat="-27.2752259" lon="151.2900669">
  <ele>389.88</ele>
  <time>2026-09-01T19:53:11Z</time>
  <course>181.34</course>
  <speed>6.56</speed>
  <fix>3d</fix>
</trkpt>
<trkpt lat="-27.2752331" lon="151.2900664">
  <ele>390.07</ele>
  <time>2026-09-01T19:53:11Z</time>
  <course>180.42</course>
  <speed>6.552472815662801</speed>
  <fix>3d</fix>
</trkpt>
<trkpt lat="-27.2752375" lon="151.2900663">
  <ele>390.17</ele>
  <time>2026-09-01T19:53:11Z</time>
  <course>180.42</course>
  <speed>6.5724652908935175</speed>
  <fix>3d</fix>
</trkpt>
<trkpt lat="-27.2752259" lon="151.2900669">
  <ele>389.88</ele>
  <time>2026-09-01T19:53:11Z</time>
  <course>181.34</course>
  <speed>6.56</speed>
  <fix>3d</fix>
</trkpt>
<trkpt lat="-27.275239" lon="151.2900663">
  <ele>390.21</ele>
  <time>2026-09-01T19:53:11Z</time>
  <course>180.42</course>
  <speed>6.5724652908935175</speed>
  <fix>3d</fix>
</trkpt>
<trkpt lat="-27.2752434" lon="151.2900661">
  <ele>390.31</ele>
  <time>2026-09-01T19:53:11Z</time>
  <course>180.42</course>
  <speed>6.592457811772481</speed>
  <fix>3d</fix>
</trkpt>
<trkpt lat="-27.2752378" lon="151.2900665">
  <ele>390.17</ele>
  <time>2026-09-01T19:53:11Z</time>
  <course>181.33</course>
  <speed>6.59</speed>
  <fix>3d</fix>
</trkpt>
<trkpt lat="-27.2752446" lon="151.2900661">
  <ele>390.34</ele>
  <time>2026-09-01T19:53:11Z</time>
  <course>180.43</course>
  <speed>6.592457811772481</speed>
  <fix>3d</fix>
</trkpt>
<trkpt lat="-27.2752493" lon="151.290066">
  <ele>390.46</ele>
  <time>2026-09-01T19:53:11Z</time>
  <course>180.44</course>
  <speed>6.6124503778856445</speed>
  <fix>3d</fix>
</trkpt>
<trkpt lat="-27.2752378" lon="151.2900665">
  <ele>390.17</ele>
  <time>2026-09-01T19:53:11Z</time>
  <course>181.33</course>
  <speed>6.59</speed>
  <fix>3d</fix>
</trkpt>
<trkpt lat="-27.2752496" lon="151.290066">
  <ele>390.46</ele>
  <time>2026-09-01T19:53:11Z</time>
  <course>180.44</course>
  <speed>6.6124503778856445</speed>
  <fix>3d</fix>
</trkpt>
<trkpt lat="-27.2752554" lon="151.2900658">
  <ele>390.6</ele>
  <time>2026-09-01T19:53:11Z</time>
  <course>180.44</course>
  <speed>6.632442988823953</speed>
  <fix>3d</fix>
</trkpt>
<trkpt lat="-27.2752496" lon="151.2900662">
  <ele>390.46</ele>
  <time>2026-09-01T19:53:11Z</time>
  <course>181.32</course>
  <speed>6.63</speed>
  <fix>3d</fix>
</trkpt>
<trkpt lat="-27.2752556" lon="151.2900658">
  <ele>390.61</ele>
  <time>2026-09-01T19:53:11Z</time>
  <course>180.44</course>
  <speed>6.632442988823953</speed>
  <fix>3d</fix>
</trkpt>
<trkpt lat="-27.2752614" lon="151.2900657">
  <ele>390.75</ele>
  <time>2026-09-01T19:53:11Z</time>
  <course>180.46</course>
  <speed>6.652435644183264</speed>
  <fix>3d</fix>
</trkpt>
<trkpt lat="-27.2752496" lon="151.2900662">
  <ele>390.46</ele>
  <time>2026-09-01T19:53:11Z</time>
  <course>181.32</course>
  <speed>6.63</speed>
  <fix>3d</fix>
</trkpt>
<trkpt lat="-27.2752615" lon="151.2900657">
  <ele>390.75</ele>
  <time>2026-09-01T19:53:11Z</time>
  <course>180.46</course>
  <speed>6.652435644183264</speed>
  <fix>3d</fix>
</trkpt>
<trkpt lat="-27.2752673" lon="151.2900655">
  <ele>390.89</ele>
  <time>2026-09-01T19:53:11Z</time>
  <course>180.45</course>
  <speed>6.662431988395829</speed>
  <fix>3d</fix>
</trkpt>
<trkpt lat="-27.2752616" lon="151.2900659">
  <ele>390.75</ele>
  <time>2026-09-01T19:53:11Z</time>
  <course>181.3</course>
  <speed>6.67</speed>
  <fix>3d</fix>
</trkpt>
<trkpt lat="-27.275269" lon="151.2900655">
  <ele>390.93</ele>
  <time>2026-09-01T19:53:11Z</time>
  <course>180.45</course>
  <speed>6.672428343564283</speed>
  <fix>3d</fix>
</trkpt>
<trkpt lat="-27.2752734" lon="151.2900654">
  <ele>391.03</ele>
  <time>2026-09-01T19:53:11Z</time>
  <course>180.46</course>
  <speed>6.6824247096394584</speed>
  <fix>3d</fix>
</trkpt>
<trkpt lat="-27.2752616" lon="151.2900659">
  <ele>390.75</ele>
  <time>2026-09-01T19:53:11Z</time>
  <course>181.3</course>
  <speed>6.67</speed>
  <fix>3d</fix>
</trkpt>
<trkpt lat="-27.275275" lon="151.2900653">
  <ele>391.07</ele>
  <time>2026-09-01T19:53:11Z</time>
  <course>180.46</course>
  <speed>6.692421086572482</speed>
  <fix>3d</fix>
</trkpt>
<trkpt lat="-27.2752794" lon="151.2900652">
  <ele>391.17</ele>
  <time>2026-09-01T19:53:11Z</time>
  <course>180.46</course>
  <speed>6.702417474314772</speed>
  <fix>3d</fix>
</trkpt>
<trkpt lat="-27.2752736" lon="151.2900656">
  <ele>391.04</ele>
  <time>2026-09-01T19:53:11Z</time>
  <course>181.28</course>
  <speed>6.7</speed>
  <fix>3d</fix>
</trkpt>
<trkpt lat="-27.275281" lon="151.2900652">
  <ele>391.21</ele>
  <time>2026-09-01T19:53:11Z</time>
  <course>180.46</course>
  <speed>6.7124138728180345</speed>
  <fix>3d</fix>
</trkpt>
<trkpt lat="-27.2752855" lon="151.2900651">
  <ele>391.32</ele>
  <time>2026-09-01T19:53:11Z</time>
  <course>180.47</course>
  <speed>6.722410282034264</speed>
  <fix>3d</fix>
</trkpt>
<trkpt lat="-27.2752736" lon="151.2900656">
  <ele>391.04</ele>
  <time>2026-09-01T19:53:11Z</time>
  <course>181.28</course>
  <speed>6.7</speed>
  <fix>3d</fix>
</trkpt>
<trkpt lat="-27.2752871" lon="151.290065">
  <ele>391.36</ele>
  <time>2026-09-01T19:53:11Z</time>
  <course>180.47</course>
  <speed>6.722410282034264</speed>
  <fix>3d</fix>
</trkpt>
<trkpt lat="-27.2752915" lon="151.2900649">
  <ele>391.46</ele>
  <time>2026-09-01T19:53:11Z</time>
  <course>180.48</course>
  <speed>6.74214357604464</speed>
  <fix>3d</fix>
</trkpt>
<trkpt lat="-27.2752857" lon="151.2900653">
  <ele>391.33</ele>
  <time>2026-09-01T19:53:11Z</time>
  <course>181.27</course>
  <speed>6.74</speed>
  <fix>3d</fix>
</trkpt>
<trkpt lat="-27.2752931" lon="151.2900649">
  <ele>391.5</ele>
  <time>2026-09-01T19:53:11Z</time>
  <course>180.48</course>
  <speed>6.74214357604464</speed>
  <fix>3d</fix>
</trkpt>
<trkpt lat="-27.2752976" lon="151.2900648">
  <ele>391.61</ele>
  <time>2026-09-01T19:53:11Z</time>
  <course>180.49</course>
  <speed>6.752140401383846</speed>
  <fix>3d</fix>
</trkpt>
<trkpt lat="-27.2752857" lon="151.2900653">
  <ele>391.33</ele>
  <time>2026-09-01T19:53:11Z</time>
  <course>181.27</course>
  <speed>6.74</speed>
  <fix>3d</fix>
</trkpt>
<trkpt lat="-27.2752992" lon="151.2900647">
  <ele>391.64</ele>
  <time>2026-09-01T19:53:11Z</time>
  <course>180.49</course>
  <speed>6.76213723611108</speed>
  <fix>3d</fix>
</trkpt>
<trkpt lat="-27.2753037" lon="151.2900646">
  <ele>391.75</ele>
  <time>2026-09-01T19:53:11Z</time>
  <course>180.48</course>
  <speed>6.772134080184768</speed>
  <fix>3d</fix>
</trkpt>
<trkpt lat="-27.2752979" lon="151.290065">
  <ele>391.62</ele>
  <time>2026-09-01T19:53:11Z</time>
  <course>181.25</course>
  <speed>6.78</speed>
  <fix>3d</fix>
</trkpt>
<trkpt lat="-27.2753039" lon="151.2900646">
  <ele>391.75</ele>
  <time>2026-09-01T19:53:11Z</time>
  <course>180.48</course>
  <speed>6.772134080184768</speed>
  <fix>3d</fix>
</trkpt>
<trkpt lat="-27.2753098" lon="151.2900645">
  <ele>391.89</ele>
  <time>2026-09-01T19:53:11Z</time>
  <course>180.48</course>
  <speed>6.792127796206429</speed>
  <fix>3d</fix>
</trkpt>
<trkpt lat="-27.2752979" lon="151.290065">
  <ele>391.62</ele>
  <time>2026-09-01T19:53:11Z</time>
  <course>181.25</course>
  <speed>6.78</speed>
  <fix>3d</fix>
</trkpt>
<trkpt lat="-27.27531" lon="151.2900645">
  <ele>391.9</ele>
  <time>2026-09-01T19:53:11Z</time>
  <course>180.48</course>
  <speed>6.792127796206429</speed>
  <fix>3d</fix>
</trkpt>
<trkpt lat="-27.2753159" lon="151.2900643">
  <ele>392.04</ele>
  <time>2026-09-01T19:53:11Z</time>
  <course>180.48</course>
  <speed>6.812121549121096</speed>
  <fix>3d</fix>
</trkpt>
<trkpt lat="-27.2753101" lon="151.2900647">
  <ele>391.91</ele>
  <time>2026-09-01T19:53:11Z</time>
  <course>181.23</course>
  <speed>6.81</speed>
  <fix>3d</fix>
</trkpt>
<trkpt lat="-27.2753161" lon="151.2900643">
  <ele>392.04</ele>
  <time>2026-09-01T19:53:11Z</time>
  <course>180.48</course>
  <speed>6.812121549121096</speed>
  <fix>3d</fix>
</trkpt>
<trkpt lat="-27.2753221" lon="151.2900642">
  <ele>392.19</ele>
  <time>2026-09-01T19:53:11Z</time>
  <course>180.48</course>
  <speed>6.822118439311941</speed>
  <fix>3d</fix>
</trkpt>
<trkpt lat="-27.2753101" lon="151.2900647">
  <ele>391.91</ele>
  <time>2026-09-01T19:53:11Z</time>
  <course>181.23</course>
  <speed>6.81</speed>
  <fix>3d</fix>
</trkpt>
<trkpt lat="-27.2753223" lon="151.2900642">
  <ele>392.19</ele>
  <time>2026-09-01T19:53:11Z</time>
  <course>180.48</course>
  <speed>6.822118439311941</speed>
  <fix>3d</fix>
</trkpt>
<trkpt lat="-27.2753282" lon="151.290064">
  <ele>392.33</ele>
  <time>2026-09-01T19:53:11Z</time>
  <course>180.48</course>
  <speed>6.842112246959998</speed>
  <fix>3d</fix>
</trkpt>
<trkpt lat="-27.2753223" lon="151.2900644">
  <ele>392.2</ele>
  <time>2026-09-01T19:53:11Z</time>
  <course>181.21</course>
  <speed>6.84</speed>
  <fix>3d</fix>
</trkpt>
<trkpt lat="-27.2753298" lon="151.290064">
  <ele>392.37</ele>
  <time>2026-09-01T19:53:11Z</time>
  <course>180.48</course>
  <speed>6.842112246959998</speed>
  <fix>3d</fix>
</trkpt>
<trkpt lat="-27.2753344" lon="151.2900639">
  <ele>392.48</ele>
  <time>2026-09-01T19:53:11Z</time>
  <course>180.48</course>
  <speed>6.8621060906983935</speed>
  <fix>3d</fix>
</trkpt>
<trkpt lat="-27.2753223" lon="151.2900644">
  <ele>392.2</ele>
  <time>2026-09-01T19:53:11Z</time>
  <course>181.21</course>
  <speed>6.84</speed>
  <fix>3d</fix>
</trkpt>
<trkpt lat="-27.275336" lon="151.2900638">
  <ele>392.52</ele>
  <time>2026-09-01T19:53:11Z</time>
  <course>180.49</course>
  <speed>6.8621060906983935</speed>
  <fix>3d</fix>
</trkpt>
<trkpt lat="-27.2753406" lon="151.2900637">
  <ele>392.63</ele>
  <time>2026-09-01T19:53:11Z</time>
  <course>180.48</course>
  <speed>6.872103026003029</speed>
  <fix>3d</fix>
</trkpt>
<trkpt lat="-27.2753347" lon="151.2900641">
  <ele>392.49</ele>
  <time>2026-09-01T19:53:11Z</time>
  <course>181.2</course>
  <speed>6.88</speed>
  <fix>3d</fix>
</trkpt>
<trkpt lat="-27.2753422" lon="151.2900637">
  <ele>392.66</ele>
  <time>2026-09-01T19:53:11Z</time>
  <course>180.49</course>
  <speed>6.88209997021258</speed>
  <fix>3d</fix>
</trkpt>
<trkpt lat="-27.2753468" lon="151.2900636">
  <ele>392.77</ele>
  <time>2026-09-01T19:53:11Z</time>
  <course>180.5</course>
  <speed>6.892096923288296</speed>
  <fix>3d</fix>
</trkpt>
<trkpt lat="-27.2753347" lon="151.2900641">
  <ele>392.49</ele>
  <time>2026-09-01T19:53:11Z</time>
  <course>181.2</course>
  <speed>6.88</speed>
  <fix>3d</fix>
</trkpt>
<trkpt lat="-27.2753484" lon="151.2900636">
  <ele>392.81</ele>
  <time>2026-09-01T19:53:11Z</time>
  <course>180.5</course>
  <speed>6.892096923288296</speed>
  <fix>3d</fix>
</trkpt>
<trkpt lat="-27.275353" lon="151.2900634">
  <ele>392.92</ele>
  <time>2026-09-01T19:53:11Z</time>
  <course>180.51</course>
  <speed>6.9118521396222015</speed>
  <fix>3d</fix>
</trkpt>
<trkpt lat="-27.2753471" lon="151.2900638">
  <ele>392.78</ele>
  <time>2026-09-01T19:53:11Z</time>
  <course>181.17</course>
  <speed>6.91</speed>
  <fix>3d</fix>
</trkpt>
<trkpt lat="-27.2753547" lon="151.2900634">
  <ele>392.95</ele>
  <time>2026-09-01T19:53:11Z</time>
  <course>180.51</course>
  <speed>6.9118521396222015</speed>
  <fix>3d</fix>
</trkpt>
<trkpt lat="-27.2753593" lon="151.2900633">
  <ele>393.06</ele>
  <time>2026-09-01T19:53:11Z</time>
  <course>180.52</course>
  <speed>6.921849463835515</speed>
  <fix>3d</fix>
</trkpt>
<trkpt lat="-27.2753471" lon="151.2900638">
  <ele>392.78</ele>
  <time>2026-09-01T19:53:11Z</time>
  <course>181.17</course>
  <speed>6.91</speed>
  <fix>3d</fix>
</trkpt>
<trkpt lat="-27.2753616" lon="151.2900633">
  <ele>393.11</ele>
  <time>2026-09-01T19:53:11Z</time>
  <course>180.52</course>
  <speed>6.931846795768066</speed>
  <fix>3d</fix>
</trkpt>
<trkpt lat="-27.2753655" lon="151.2900632">
  <ele>393.2</ele>
  <time>2026-09-01T19:53:11Z</time>
  <course>180.51</course>
  <speed>6.941844135386504</speed>
  <fix>3d</fix>
</trkpt>
<trkpt lat="-27.2753595" lon="151.2900636">
  <ele>393.07</ele>
  <time>2026-09-01T19:53:11Z</time>
  <course>181.15</course>
  <speed>6.94</speed>
  <fix>3d</fix>
</trkpt>
<trkpt lat="-27.2753718" lon="151.290063">
  <ele>393.35</ele>
  <time>2026-09-01T19:53:11Z</time>
  <course>180.52</course>
  <speed>6.95184148265767</speed>
  <fix>3d</fix>
</trkpt>
<trkpt lat="-27.2753595" lon="151.2900636">
  <ele>393.07</ele>
  <time>2026-09-01T19:53:11Z</time>
  <course>181.15</course>
  <speed>6.94</speed>
  <fix>3d</fix>
</trkpt>
<trkpt lat="-27.2753781" lon="151.2900629">
  <ele>393.49</ele>
  <time>2026-09-01T19:53:11Z</time>
  <course>180.52</course>
  <speed>6.971836200026504</speed>
  <fix>3d</fix>
</trkpt>
<trkpt lat="-27.2753721" lon="151.2900633">
  <ele>393.36</ele>
  <time>2026-09-01T19:53:11Z</time>
  <course>181.12</course>
  <speed>6.98</speed>
  <fix>3d</fix>
</trkpt>
<trkpt lat="-27.2753843" lon="151.2900628">
  <ele>393.63</ele>
  <time>2026-09-01T19:53:11Z</time>
  <course>180.52</course>
  <speed>6.981833570058799</speed>
  <fix>3d</fix>
</trkpt>
<trkpt lat="-27.2753721" lon="151.2900633">
  <ele>393.36</ele>
  <time>2026-09-01T19:53:11Z</time>
  <course>181.12</course>
  <speed>6.98</speed>
  <fix>3d</fix>
</trkpt>
<trkpt lat="-27.2753906" lon="151.2900626">
  <ele>393.77</ele>
  <time>2026-09-01T19:53:11Z</time>
  <course>180.52</course>
  <speed>6.991830947613079</speed>
  <fix>3d</fix>
</trkpt>
<trkpt lat="-27.2753846" lon="151.290063">
  <ele>393.64</ele>
  <time>2026-09-01T19:53:11Z</time>
  <course>181.1</course>
  <speed>7.0</speed>
  <fix>3d</fix>
</trkpt>
<trkpt lat="-27.2753969" lon="151.2900625">
  <ele>393.91</ele>
  <time>2026-09-01T19:53:11Z</time>
  <course>180.53</course>
  <speed>7.011604666551017</speed>
  <fix>3d</fix>
</trkpt>
<trkpt lat="-27.2753846" lon="151.290063">
  <ele>393.64</ele>
  <time>2026-09-01T19:53:11Z</time>
  <course>181.1</course>
  <speed>7.0</speed>
  <fix>3d</fix>
</trkpt>
<trkpt lat="-27.2754033" lon="151.2900624">
  <ele>394.04</ele>
  <time>2026-09-01T19:53:11Z</time>
  <course>180.55</course>
  <speed>7.081588804781029</speed>
  <fix>3d</fix>
</trkpt>
<trkpt lat="-27.2753972" lon="151.2900627">
  <ele>393.91</ele>
  <time>2026-09-01T19:53:11Z</time>
  <course>181.07</course>
  <speed>7.05</speed>
  <fix>3d</fix>
</trkpt>
<trkpt lat="-27.2754098" lon="151.2900622">
  <ele>394.18</ele>
  <time>2026-09-01T19:53:11Z</time>
  <course>180.6</course>
  <speed>7.201562330494682</speed>
  <fix>3d</fix>
</trkpt>
<trkpt lat="-27.2753972" lon="151.2900627">
  <ele>393.91</ele>
  <time>2026-09-01T19:53:11Z</time>
  <course>181.07</course>
  <speed>7.05</speed>
  <fix>3d</fix>
</trkpt>
<trkpt lat="-27.2754164" lon="151.2900621">
  <ele>394.31</ele>
  <time>2026-09-01T19:53:11Z</time>
  <course>180.67</course>
  <speed>7.371526300570324</speed>
  <fix>3d</fix>
</trkpt>
<trkpt lat="-27.2754101" lon="151.2900624">
  <ele>394.19</ele>
  <time>2026-09-01T19:53:11Z</time>
  <course>181.05</course>
  <speed>7.24</speed>
  <fix>3d</fix>
</trkpt>
<trkpt lat="-27.2754231" lon="151.290062">
  <ele>394.43</ele>
  <time>2026-09-01T19:53:11Z</time>
  <course>180.75</course>
  <speed>7.6016840239515355</speed>
  <fix>3d</fix>
</trkpt>
<trkpt lat="-27.2754101" lon="151.2900624">
  <ele>394.19</ele>
  <time>2026-09-01T19:53:11Z</time>
  <course>181.05</course>
  <speed>7.24</speed>
  <fix>3d</fix>
</trkpt>
<trkpt lat="-27.2754301" lon="151.2900618">
  <ele>394.54</ele>
  <time>2026-09-01T19:53:11Z</time>
  <course>180.79</course>
  <speed>7.891622139965901</speed>
  <fix>3d</fix>
</trkpt>
<trkpt lat="-27.2754234" lon="151.2900622">
  <ele>394.44</ele>
  <time>2026-09-01T19:53:11Z</time>
  <course>181.04</course>
  <speed>7.63</speed>
  <fix>3d</fix>
</trkpt>
<trkpt lat="-27.2754374" lon="151.2900617">
  <ele>394.64</ele>
  <time>2026-09-01T19:53:11Z</time>
  <course>180.79</course>
  <speed>8.231555138611416</speed>
  <fix>3d</fix>
</trkpt>
<trkpt lat="-27.2754234" lon="151.2900622">
  <ele>394.44</ele>
  <time>2026-09-01T19:53:11Z</time>
  <course>181.04</course>
  <speed>7.63</speed>
  <fix>3d</fix>
</trkpt>
<trkpt lat="-27.275445" lon="151.2900615">
  <ele>394.73</ele>
  <time>2026-09-01T19:53:11Z</time>
  <course>180.74</course>
  <speed>8.621676171139809</speed>
  <fix>3d</fix>
</trkpt>
<trkpt lat="-27.2754375" lon="151.2900619">
  <ele>394.65</ele>
  <time>2026-09-01T19:53:11Z</time>
  <course>181.06</course>
  <speed>8.25</speed>
  <fix>3d</fix>
</trkpt>
<trkpt lat="-27.2754529" lon="151.2900614">
  <ele>394.81</ele>
  <time>2026-09-01T19:53:11Z</time>
  <course>180.68</course>
  <speed>9.061787903057542</speed>
  <fix>3d</fix>
</trkpt>
<trkpt lat="-27.2754375" lon="151.2900619">
  <ele>394.65</ele>
  <time>2026-09-01T19:53:11Z</time>
  <course>181.06</course>
  <speed>8.25</speed>
  <fix>3d</fix>
</trkpt>
<trkpt lat="-27.2754613" lon="151.2900612">
  <ele>394.87</ele>
  <time>2026-09-01T19:53:11Z</time>
  <course>180.64</course>
  <speed>9.511703317492614</speed>
  <fix>3d</fix>
</trkpt>
<trkpt lat="-27.2754531" lon="151.2900616">
  <ele>394.81</ele>
  <time>2026-09-01T19:53:11Z</time>
  <course>181.06</course>
  <speed>9.05</speed>
  <fix>3d</fix>
</trkpt>
<trkpt lat="-27.2754701" lon="151.2900611">
  <ele>394.93</ele>
  <time>2026-09-01T19:53:11Z</time>
  <course>180.58</course>
  <speed>9.961626373238458</speed>
  <fix>3d</fix>
</trkpt>
<trkpt lat="-27.2754531" lon="151.2900616">
  <ele>394.81</ele>
  <time>2026-09-01T19:53:11Z</time>
  <course>181.06</course>
  <speed>9.05</speed>
  <fix>3d</fix>
</trkpt>
<trkpt lat="-27.2754792" lon="151.2900609">
  <ele>394.97</ele>
  <time>2026-09-01T19:53:11Z</time>
  <course>180.54</course>
  <speed>10.401557575671058</speed>
  <fix>3d</fix>
</trkpt>
<trkpt lat="-27.2754702" lon="151.2900612">
  <ele>394.94</ele>
  <time>2026-09-01T19:53:11Z</time>
  <course>181.04</course>
  <speed>9.94</speed>
  <fix>3d</fix>
</trkpt>
<trkpt lat="-27.2754888" lon="151.2900607">
  <ele>395.01</ele>
  <time>2026-09-01T19:53:11Z</time>
  <course>180.54</course>
  <speed>10.8314957415862</speed>
  <fix>3d</fix>
</trkpt>
<trkpt lat="-27.2754702" lon="151.2900612">
  <ele>394.94</ele>
  <time>2026-09-01T19:53:11Z</time>
  <course>181.04</course>
  <speed>9.94</speed>
  <fix>3d</fix>
</trkpt>
<trkpt lat="-27.2754988" lon="151.2900606">
  <ele>395.04</ele>
  <time>2026-09-01T19:53:11Z</time>
  <course>180.51</course>
  <speed>11.271601483374047</speed>
  <fix>3d</fix>
</trkpt>
<trkpt lat="-27.2754889" lon="151.2900609">
  <ele>395.02</ele>
  <time>2026-09-01T19:53:11Z</time>
  <course>181.04</course>
  <speed>10.82</speed>
  <fix>3d</fix>
</trkpt>
<trkpt lat="-27.2755091" lon="151.2900604">
  <ele>395.06</ele>
  <time>2026-09-01T19:53:11Z</time>
  <course>180.57</course>
  <speed>11.691543952789127</speed>
  <fix>3d</fix>
</trkpt>
<trkpt lat="-27.2754889" lon="151.2900609">
  <ele>395.02</ele>
  <time>2026-09-01T19:53:11Z</time>
  <course>181.04</course>
  <speed>10.82</speed>
  <fix>3d</fix>
</trkpt>
<trkpt lat="-27.2755198" lon="151.2900602">
  <ele>395.08</ele>
  <time>2026-09-01T19:53:11Z</time>
  <course>180.68</course>
  <speed>12.111490412001324</speed>
  <fix>3d</fix>
</trkpt>
<trkpt lat="-27.2755091" lon="151.2900604">
  <ele>395.08</ele>
  <time>2026-09-01T19:53:11Z</time>
  <course>181.05</course>
  <speed>11.68</speed>
  <fix>3d</fix>
</trkpt>
<trkpt lat="-27.2755309" lon="151.29006">
  <ele>395.1</ele>
  <time>2026-09-01T19:53:11Z</time>
  <course>180.7</course>
  <speed>12.531596067540638</speed>
  <fix>3d</fix>
</trkpt>
<trkpt lat="-27.2755091" lon="151.2900604">
  <ele>395.08</ele>
  <time>2026-09-01T19:53:11Z</time>
  <course>181.05</course>
  <speed>11.68</speed>
  <fix>3d</fix>
</trkpt>
<trkpt lat="-27.2755424" lon="151.2900598">
  <ele>395.11</ele>
  <time>2026-09-01T19:53:11Z</time>
  <course>180.65</course>
  <speed>12.941703906364108</speed>
  <fix>3d</fix>
</trkpt>
<trkpt lat="-27.2755308" lon="151.2900599">
  <ele>395.12</ele>
  <time>2026-09-01T19:53:11Z</time>
  <course>181.06</course>
  <speed>12.51</speed>
  <fix>3d</fix>
</trkpt>
<trkpt lat="-27.2755542" lon="151.2900596">
  <ele>395.12</ele>
  <time>2026-09-01T19:53:11Z</time>
  <course>180.54</course>
  <speed>13.331654060918321</speed>
  <fix>3d</fix>
</trkpt>
<trkpt lat="-27.2755308" lon="151.2900599">
  <ele>395.12</ele>
  <time>2026-09-01T19:53:11Z</time>
  <course>181.06</course>
  <speed>12.51</speed>
  <fix>3d</fix>
</trkpt>
<trkpt lat="-27.2755663" lon="151.2900593">
  <ele>395.13</ele>
  <time>2026-09-01T19:53:11Z</time>
  <course>180.52</course>
  <speed>13.73176245061063</speed>
  <fix>3d</fix>
</trkpt>
<trkpt lat="-27.275554" lon="151.2900595">
  <ele>395.14</ele>
  <time>2026-09-01T19:53:12Z</time>
  <course>181.04</course>
  <speed>13.32</speed>
  <fix>3d</fix>
</trkpt>
<trkpt lat="-27.2755788" lon="151.2900591">
  <ele>395.13</ele>
  <time>2026-09-01T19:53:12Z</time>
  <course>180.51</course>
  <speed>14.111714991453022</speed>
  <fix>3d</fix>
</trkpt>
<trkpt lat="-27.275554" lon="151.2900595">
  <ele>395.14</ele>
  <time>2026-09-01T19:53:12Z</time>
  <course>181.04</course>
  <speed>13.32</speed>
  <fix>3d</fix>
</trkpt>
<trkpt lat="-27.2755917" lon="151.2900588">
  <ele>395.14</ele>
  <time>2026-09-01T19:53:12Z</time>
  <course>180.43</course>
  <speed>14.491670021084525</speed>
  <fix>3d</fix>
</trkpt>
<trkpt lat="-27.2755786" lon="151.290059">
  <ele>395.16</ele>
  <time>2026-09-01T19:53:12Z</time>
  <course>180.99</course>
  <speed>14.1</speed>
  <fix>3d</fix>
</trkpt>
<trkpt lat="-27.2756049" lon="151.2900586">
  <ele>395.14</ele>
  <time>2026-09-01T19:53:12Z</time>
  <course>180.4</course>
  <speed>14.86162844374734</speed>
  <fix>3d</fix>
</trkpt>
<trkpt lat="-27.2755786" lon="151.290059">
  <ele>395.16</ele>
  <time>2026-09-01T19:53:12Z</time>
  <course>180.99</course>
  <speed>14.1</speed>
  <fix>3d</fix>
</trkpt>
<trkpt lat="-27.2756185" lon="151.2900583">
  <ele>395.14</ele>
  <time>2026-09-01T19:53:12Z</time>
  <course>180.46</course>
  <speed>15.231588886258715</speed>
  <fix>3d</fix>
</trkpt>
<trkpt lat="-27.2756047" lon="151.2900585">
  <ele>395.17</ele>
  <time>2026-09-01T19:53:12Z</time>
  <course>180.95</course>
  <speed>14.86</speed>
  <fix>3d</fix>
</trkpt>
<trkpt lat="-27.2756323" lon="151.2900581">
  <ele>395.14</ele>
  <time>2026-09-01T19:53:12Z</time>
  <course>180.61</course>
  <speed>15.591696508077625</speed>
  <fix>3d</fix>
</trkpt>
<trkpt lat="-27.2756047" lon="151.2900585">
  <ele>395.17</ele>
  <time>2026-09-01T19:53:12Z</time>
  <course>180.95</course>
  <speed>14.86</speed>
  <fix>3d</fix>
</trkpt>
<trkpt lat="-27.2756465" lon="151.2900578">
  <ele>395.14</ele>
  <time>2026-09-01T19:53:12Z</time>
  <course>180.79</course>
  <speed>15.941806673021723</speed>
  <fix>3d</fix>
</trkpt>
<trkpt lat="-27.2756321" lon="151.290058">
  <ele>395.17</ele>
  <time>2026-09-01T19:53:12Z</time>
  <course>180.92</course>
  <speed>15.58</speed>
  <fix>3d</fix>
</trkpt>
<trkpt lat="-27.275661" lon="151.2900576">
  <ele>395.14</ele>
  <time>2026-09-01T19:53:12Z</time>
  <course>180.74</course>
  <speed>16.29176785987328</speed>
  <fix>3d</fix>
</trkpt>
<trkpt lat="-27.2756321" lon="151.290058">
  <ele>395.17</ele>
  <time>2026-09-01T19:53:12Z</time>
  <course>180.92</course>
  <speed>15.58</speed>
  <fix>3d</fix>
</trkpt>
<trkpt lat="-27.2756758" lon="151.2900573">
  <ele>395.14</ele>
  <time>2026-09-01T19:53:12Z</time>
  <course>180.68</course>
  <speed>16.621880158393637</speed>
  <fix>3d</fix>
</trkpt>
<trkpt lat="-27.2756607" lon="151.2900575">
  <ele>395.17</ele>
  <time>2026-09-01T19:53:12Z</time>
  <course>180.91</course>
  <speed>16.28</speed>
  <fix>3d</fix>
</trkpt>
<trkpt lat="-27.2756909" lon="151.290057">
  <ele>395.14</ele>
  <time>2026-09-01T19:53:12Z</time>
  <course>180.6</course>
  <speed>16.951993983009785</speed>
  <fix>3d</fix>
</trkpt>
<trkpt lat="-27.2756607" lon="151.2900575">
  <ele>395.17</ele>
  <time>2026-09-01T19:53:12Z</time>
  <course>180.91</course>
  <speed>16.28</speed>
  <fix>3d</fix>
</trkpt>
<trkpt lat="-27.2757063" lon="151.2900568">
  <ele>395.14</ele>
  <time>2026-09-01T19:53:12Z</time>
  <course>180.49</course>
  <speed>17.27195704024301</speed>
  <fix>3d</fix>
</trkpt>
<trkpt lat="-27.2756905" lon="151.2900569">
  <ele>395.17</ele>
  <time>2026-09-01T19:53:12Z</time>
  <course>180.91</course>
  <speed>16.95</speed>
  <fix>3d</fix>
</trkpt>
<trkpt lat="-27.2757221" lon="151.2900565">
  <ele>395.14</ele>
  <time>2026-09-01T19:53:12Z</time>
  <course>180.54</course>
  <speed>17.591921441388944</speed>
  <fix>3d</fix>
</trkpt>
<trkpt lat="-27.2756905" lon="151.2900569">
  <ele>395.17</ele>
  <time>2026-09-01T19:53:12Z</time>
  <course>180.91</course>
  <speed>16.95</speed>
  <fix>3d</fix>
</trkpt>
<trkpt lat="-27.275738" lon="151.2900562">
  <ele>395.14</ele>
  <time>2026-09-01T19:53:12Z</time>
  <course>180.57</course>
  <speed>17.901888168570377</speed>
  <fix>3d</fix>
</trkpt>
<trkpt lat="-27.2757216" lon="151.2900563">
  <ele>395.16</ele>
  <time>2026-09-01T19:53:12Z</time>
  <course>180.89</course>
  <speed>17.59</speed>
  <fix>3d</fix>
</trkpt>
<trkpt lat="-27.2757542" lon="151.2900559">
  <ele>395.14</ele>
  <time>2026-09-01T19:53:12Z</time>
  <course>180.55</course>
  <speed>18.202002637072656</speed>
  <fix>3d</fix>
</trkpt>
<trkpt lat="-27.2757216" lon="151.2900563">
  <ele>395.16</ele>
  <time>2026-09-01T19:53:12Z</time>
  <course>180.89</course>
  <speed>17.59</speed>
  <fix>3d</fix>
</trkpt>
<trkpt lat="-27.2757707" lon="151.2900556">
  <ele>395.14</ele>
  <time>2026-09-01T19:53:12Z</time>
  <course>180.53</course>
  <speed>18.49197123078013</speed>
  <fix>3d</fix>
</trkpt>
<trkpt lat="-27.2757537" lon="151.2900558">
  <ele>395.16</ele>
  <time>2026-09-01T19:53:12Z</time>
  <course>180.86</course>
  <speed>18.2</speed>
  <fix>3d</fix>
</trkpt>
<trkpt lat="-27.2757875" lon="151.2900553">
  <ele>395.14</ele>
  <time>2026-09-01T19:53:12Z</time>
  <course>180.46</course>
  <speed>18.78194079428428</speed>
  <fix>3d</fix>
</trkpt>
<trkpt lat="-27.2757537" lon="151.2900558">
  <ele>395.16</ele>
  <time>2026-09-01T19:53:12Z</time>
  <course>180.86</course>
  <speed>18.2</speed>
  <fix>3d</fix>
</trkpt>
<trkpt lat="-27.2758045" lon="151.2900551">
  <ele>395.13</ele>
  <time>2026-09-01T19:53:12Z</time>
  <course>180.49</course>
  <speed>19.061773264835566</speed>
  <fix>3d</fix>
</trkpt>
<trkpt lat="-27.275787" lon="151.2900553">
  <ele>395.15</ele>
  <time>2026-09-01T19:53:12Z</time>
  <course>180.82</course>
  <speed>18.78</speed>
  <fix>3d</fix>
</trkpt>
<trkpt lat="-27.2758217" lon="151.2900548">
  <ele>395.13</ele>
  <time>2026-09-01T19:53:12Z</time>
  <course>180.58</course>
  <speed>19.331748498260573</speed>
  <fix>3d</fix>
</trkpt>
<trkpt lat="-27.275787" lon="151.2900553">
  <ele>395.15</ele>
  <time>2026-09-01T19:53:12Z</time>
  <course>180.82</course>
  <speed>18.78</speed>
  <fix>3d</fix>
</trkpt>
<trkpt lat="-27.2758392" lon="151.2900545">
  <ele>395.13</ele>
  <time>2026-09-01T19:53:12Z</time>
  <course>180.61</course>
  <speed>19.591725294113328</speed>
  <fix>3d</fix>
</trkpt>
<trkpt lat="-27.2758212" lon="151.2900547">
  <ele>395.14</ele>
  <time>2026-09-01T19:53:12Z</time>
  <course>180.79</course>
  <speed>19.33</speed>
  <fix>3d</fix>
</trkpt>
<trkpt lat="-27.2758569" lon="151.2900542">
  <ele>395.13</ele>
  <time>2026-09-01T19:53:12Z</time>
  <course>180.58</course>
  <speed>19.851836187113776</speed>
  <fix>3d</fix>
</trkpt>
<trkpt lat="-27.2758212" lon="151.2900547">
  <ele>395.14</ele>
  <time>2026-09-01T19:53:12Z</time>
  <course>180.79</course>
  <speed>19.33</speed>
  <fix>3d</fix>
</trkpt>
<trkpt lat="-27.2758749" lon="151.290054">
  <ele>395.13</ele>
  <time>2026-09-01T19:53:12Z</time>
  <course>180.55</course>
  <speed>20.101813351038757</speed>
  <fix>3d</fix>
</trkpt>
<trkpt lat="-27.2758565" lon="151.2900541">
  <ele>395.14</ele>
  <time>2026-09-01T19:53:12Z</time>
  <course>180.78</course>
  <speed>19.86</speed>
  <fix>3d</fix>
</trkpt>
<trkpt lat="-27.2758929" lon="151.2900537">
  <ele>395.14</ele>
  <time>2026-09-01T19:53:12Z</time>
  <course>180.51</course>
  <speed>20.341927145676244</speed>
  <fix>3d</fix>
</trkpt>
<trkpt lat="-27.2758565" lon="151.2900541">
  <ele>395.14</ele>
  <time>2026-09-01T19:53:12Z</time>
  <course>180.78</course>
  <speed>19.86</speed>
  <fix>3d</fix>
</trkpt>
<trkpt lat="-27.2759113" lon="151.2900534">
  <ele>395.15</ele>
  <time>2026-09-01T19:53:12Z</time>
  <course>180.47</course>
  <speed>20.581904673766225</speed>
  <fix>3d</fix>
</trkpt>
<trkpt lat="-27.2758926" lon="151.2900536">
  <ele>395.15</ele>
  <time>2026-09-01T19:53:12Z</time>
  <course>180.77</course>
  <speed>20.35</speed>
  <fix>3d</fix>
</trkpt>
<trkpt lat="-27.2759299" lon="151.2900531">
  <ele>395.16</ele>
  <time>2026-09-01T19:53:12Z</time>
  <course>180.52</course>
  <speed>20.80188453001314</speed>
  <fix>3d</fix>
</trkpt>
<trkpt lat="-27.2758926" lon="151.2900536">
  <ele>395.15</ele>
  <time>2026-09-01T19:53:12Z</time>
  <course>180.77</course>
  <speed>20.35</speed>
  <fix>3d</fix>
</trkpt>
<trkpt lat="-27.2759487" lon="151.2900528">
  <ele>395.18</ele>
  <time>2026-09-01T19:53:12Z</time>
  <course>180.56</course>
  <speed>21.03186392120299</speed>
  <fix>3d</fix>
</trkpt>
<trkpt lat="-27.2759296" lon="151.2900531">
  <ele>395.17</ele>
  <time>2026-09-01T19:53:12Z</time>
  <course>180.75</course>
  <speed>20.82</speed>
  <fix>3d</fix>
</trkpt>
<trkpt lat="-27.2759678" lon="151.2900525">
  <ele>395.2</ele>
  <time>2026-09-01T19:53:12Z</time>
  <course>180.57</course>
  <speed>21.241845494212598</speed>
  <fix>3d</fix>
</trkpt>
<trkpt lat="-27.2759296" lon="151.2900531">
  <ele>395.17</ele>
  <time>2026-09-01T19:53:12Z</time>
  <course>180.75</course>
  <speed>20.82</speed>
  <fix>3d</fix>
</trkpt>
<trkpt lat="-27.275987" lon="151.2900522">
  <ele>395.23</ele>
  <time>2026-09-01T19:53:12Z</time>
  <course>180.58</course>
  <speed>21.451960283386693</speed>
  <fix>3d</fix>
</trkpt>
<trkpt lat="-27.2759674" lon="151.2900525">
  <ele>395.21</ele>
  <time>2026-09-01T19:53:12Z</time>
  <course>180.73</course>
  <speed>21.26</speed>
  <fix>3d</fix>
</trkpt>
<trkpt lat="-27.2760064" lon="151.2900519">
  <ele>395.26</ele>
  <time>2026-09-01T19:53:12Z</time>
  <course>180.53</course>
  <speed>21.641943073578215</speed>
  <fix>3d</fix>
</trkpt>
<trkpt lat="-27.2759674" lon="151.2900525">
  <ele>395.21</ele>
  <time>2026-09-01T19:53:12Z</time>
  <course>180.73</course>
  <speed>21.26</speed>
  <fix>3d</fix>
</trkpt>
<trkpt lat="-27.2760259" lon="151.2900516">
  <ele>395.29</ele>
  <time>2026-09-01T19:53:12Z</time>
  <course>180.48</course>
  <speed>21.84192528143982</speed>
  <fix>3d</fix>
</trkpt>
<trkpt lat="-27.2760059" lon="151.290052">
  <ele>395.27</ele>
  <time>2026-09-01T19:53:12Z</time>
  <course>180.72</course>
  <speed>21.67</speed>
  <fix>3d</fix>
</trkpt>
<trkpt lat="-27.2760457" lon="151.2900514">
  <ele>395.33</ele>
  <time>2026-09-01T19:53:12Z</time>
  <course>180.51</course>
  <speed>22.031908678096865</speed>
  <fix>3d</fix>
</trkpt>
<trkpt lat="-27.2760059" lon="151.290052">
  <ele>395.27</ele>
  <time>2026-09-01T19:53:12Z</time>
  <course>180.72</course>
  <speed>21.67</speed>
  <fix>3d</fix>
</trkpt>
<trkpt lat="-27.2760655" lon="151.2900511">
  <ele>395.37</ele>
  <time>2026-09-01T19:53:12Z</time>
  <course>180.51</course>
  <speed>22.221892358662885</speed>
  <fix>3d</fix>
</trkpt>
<trkpt lat="-27.2760452" lon="151.2900514">
  <ele>395.34</ele>
  <time>2026-09-01T19:53:12Z</time>
  <course>180.71</course>
  <speed>22.06</speed>
  <fix>3d</fix>
</trkpt>
<trkpt lat="-27.2760856" lon="151.2900508">
  <ele>395.42</ele>
  <time>2026-09-01T19:53:12Z</time>
  <course>180.51</course>
  <speed>22.401877153488723</speed>
  <fix>3d</fix>
</trkpt>
<trkpt lat="-27.2760452" lon="151.2900514">
  <ele>395.34</ele>
  <time>2026-09-01T19:53:12Z</time>
  <course>180.71</course>
  <speed>22.06</speed>
  <fix>3d</fix>
</trkpt>
<trkpt lat="-27.2761058" lon="151.2900505">
  <ele>395.47</ele>
  <time>2026-09-01T19:53:12Z</time>
  <course>180.51</course>
  <speed>22.561863841447142</speed>
  <fix>3d</fix>
</trkpt>
<trkpt lat="-27.2760851" lon="151.2900508">
  <ele>395.43</ele>
  <time>2026-09-01T19:53:12Z</time>
  <course>180.69</course>
  <speed>22.42</speed>
  <fix>3d</fix>
</trkpt>
<trkpt lat="-27.2761262" lon="151.2900502">
  <ele>395.52</ele>
  <time>2026-09-01T19:53:12Z</time>
  <course>180.48</course>
  <speed>22.73184990272459</speed>
  <fix>3d</fix>
</trkpt>
<trkpt lat="-27.2760851" lon="151.2900508">
  <ele>395.43</ele>
  <time>2026-09-01T19:53:12Z</time>
  <course>180.69</course>
  <speed>22.42</speed>
  <fix>3d</fix>
</trkpt>
<trkpt lat="-27.2761467" lon="151.2900499">
  <ele>395.57</ele>
  <time>2026-09-01T19:53:12Z</time>
  <course>180.45</course>
  <speed>22.90183617092743</speed>
  <fix>3d</fix>
</trkpt>
<trkpt lat="-27.2761257" lon="151.2900503">
  <ele>395.53</ele>
  <time>2026-09-01T19:53:12Z</time>
  <course>180.67</course>
  <speed>22.76</speed>
  <fix>3d</fix>
</trkpt>
<trkpt lat="-27.2761673" lon="151.2900497">
  <ele>395.63</ele>
  <time>2026-09-01T19:53:12Z</time>
  <course>180.42</course>
  <speed>23.051824222824536</speed>
  <fix>3d</fix>
</trkpt>
<trkpt lat="-27.2761257" lon="151.2900503">
  <ele>395.53</ele>
  <time>2026-09-01T19:53:12Z</time>
  <course>180.67</course>
  <speed>22.76</speed>
  <fix>3d</fix>
</trkpt>
<trkpt lat="-27.2761881" lon="151.2900494">
  <ele>395.7</ele>
  <time>2026-09-01T19:53:12Z</time>
  <course>180.47</course>
  <speed>23.20181242920475</speed>
  <fix>3d</fix>
</trkpt>
<trkpt lat="-27.276167" lon="151.2900498">
  <ele>395.65</ele>
  <time>2026-09-01T19:53:12Z</time>
  <course>180.66</course>
  <speed>23.08</speed>
  <fix>3d</fix>
</trkpt>
<trkpt lat="-27.2762091" lon="151.2900491">
  <ele>395.77</ele>
  <time>2026-09-01T19:53:12Z</time>
  <course>180.47</course>
  <speed>23.351927115336757</speed>
  <fix>3d</fix>
</trkpt>
<trkpt lat="-27.276167" lon="151.2900498">
  <ele>395.65</ele>
  <time>2026-09-01T19:53:12Z</time>
  <course>180.66</course>
  <speed>23.08</speed>
  <fix>3d</fix>
</trkpt>
<trkpt lat="-27.2762301" lon="151.2900488">
  <ele>395.84</ele>
  <time>2026-09-01T19:53:12Z</time>
  <course>180.5</course>
  <speed>23.491915630701556</speed>
  <fix>3d</fix>
</trkpt>
<trkpt lat="-27.2762088" lon="151.2900492">
  <ele>395.78</ele>
  <time>2026-09-01T19:53:12Z</time>
  <course>180.65</course>
  <speed>23.38</speed>
  <fix>3d</fix>
</trkpt>
<trkpt lat="-27.2762515" lon="151.2900485">
  <ele>395.91</ele>
  <time>2026-09-01T19:53:12Z</time>
  <course>180.56</course>
  <speed>23.631904282135203</speed>
  <fix>3d</fix>
</trkpt>
<trkpt lat="-27.2762088" lon="151.2900492">
  <ele>395.78</ele>
  <time>2026-09-01T19:53:12Z</time>
  <course>180.65</course>
  <speed>23.38</speed>
  <fix>3d</fix>
</trkpt>
<trkpt lat="-27.2762728" lon="151.2900482">
  <ele>395.99</ele>
  <time>2026-09-01T19:53:12Z</time>
  <course>180.53</course>
  <speed>23.77202136966901</speed>
  <fix>3d</fix>
</trkpt>
<trkpt lat="-27.276251" lon="151.2900487">
  <ele>395.93</ele>
  <time>2026-09-01T19:53:12Z</time>
  <course>180.65</course>
  <speed>23.66</speed>
  <fix>3d</fix>
</trkpt>
<trkpt lat="-27.276294" lon="151.2900479">
  <ele>396.07</ele>
  <time>2026-09-01T19:53:12Z</time>
  <course>180.5</course>
  <speed>23.89201121714118</speed>
  <fix>3d</fix>
</trkpt>
<trkpt lat="-27.276251" lon="151.2900487">
  <ele>395.93</ele>
  <time>2026-09-01T19:53:12Z</time>
  <course>180.65</course>
  <speed>23.66</speed>
  <fix>3d</fix>
</trkpt>
<trkpt lat="-27.2763154" lon="151.2900476">
  <ele>396.16</ele>
  <time>2026-09-01T19:53:12Z</time>
  <course>180.49</course>
  <speed>24.012132350126677</speed>
  <fix>3d</fix>
</trkpt>
<trkpt lat="-27.2762938" lon="151.2900482">
  <ele>396.09</ele>
  <time>2026-09-01T19:53:12Z</time>
  <course>180.66</course>
  <speed>23.92</speed>
  <fix>3d</fix>
</trkpt>
<trkpt lat="-27.2763369" lon="151.2900474">
  <ele>396.24</ele>
  <time>2026-09-01T19:53:12Z</time>
  <course>180.49</course>
  <speed>24.122122626336182</speed>
  <fix>3d</fix>
</trkpt>
<trkpt lat="-27.2762938" lon="151.2900482">
  <ele>396.09</ele>
  <time>2026-09-01T19:53:12Z</time>
  <course>180.66</course>
  <speed>23.92</speed>
  <fix>3d</fix>
</trkpt>
<trkpt lat="-27.2763586" lon="151.2900471">
  <ele>396.33</ele>
  <time>2026-09-01T19:53:12Z</time>
  <course>180.45</course>
  <speed>24.232112990822735</speed>
  <fix>3d</fix>
</trkpt>
<trkpt lat="-27.276337" lon="151.2900475">
  <ele>396.25</ele>
  <time>2026-09-01T19:53:12Z</time>
  <course>180.66</course>
  <speed>24.17</speed>
  <fix>3d</fix>
</trkpt>
<trkpt lat="-27.2763803" lon="151.2900468">
  <ele>396.42</ele>
  <time>2026-09-01T19:53:12Z</time>
  <course>180.5</course>
  <speed>24.34210344238969</speed>
  <fix>3d</fix>
</trkpt>
<trkpt lat="-27.276337" lon="151.2900475">
  <ele>396.25</ele>
  <time>2026-09-01T19:53:12Z</time>
  <course>180.66</course>
  <speed>24.17</speed>
  <fix>3d</fix>
</trkpt>
<trkpt lat="-27.2764023" lon="151.2900465">
  <ele>396.51</ele>
  <time>2026-09-01T19:53:12Z</time>
  <course>180.53</course>
  <speed>24.44209483657242</speed>
  <fix>3d</fix>
</trkpt>
<trkpt lat="-27.2763806" lon="151.290047">
  <ele>396.42</ele>
  <time>2026-09-01T19:53:12Z</time>
  <course>180.65</course>
  <speed>24.4</speed>
  <fix>3d</fix>
</trkpt>
<trkpt lat="-27.2764242" lon="151.2900462">
  <ele>396.61</ele>
  <time>2026-09-01T19:53:12Z</time>
  <course>180.55</course>
  <speed>24.54221872610543</speed>
  <fix>3d</fix>
</trkpt>
<trkpt lat="-27.2763806" lon="151.290047">
  <ele>396.42</ele>
  <time>2026-09-01T19:53:12Z</time>
  <course>180.65</course>
  <speed>24.4</speed>
  <fix>3d</fix>
</trkpt>
<trkpt lat="-27.2764462" lon="151.2900459">
  <ele>396.7</ele>
  <time>2026-09-01T19:53:12Z</time>
  <course>180.45</course>
  <speed>24.6422097223443</speed>
  <fix>3d</fix>
</trkpt>
<trkpt lat="-27.2764247" lon="151.2900465">
  <ele>396.6</ele>
  <time>2026-09-01T19:53:12Z</time>
  <course>180.65</course>
  <speed>24.61</speed>
  <fix>3d</fix>
</trkpt>
<trkpt lat="-27.2764683" lon="151.2900456">
  <ele>396.79</ele>
  <time>2026-09-01T19:53:12Z</time>
  <course>180.4</course>
  <speed>24.73207027323026</speed>
  <fix>3d</fix>
</trkpt>
<trkpt lat="-27.2764247" lon="151.2900465">
  <ele>396.6</ele>
  <time>2026-09-01T19:53:12Z</time>
  <course>180.65</course>
  <speed>24.61</speed>
  <fix>3d</fix>
</trkpt>
<trkpt lat="-27.2764905" lon="151.2900453">
  <ele>396.89</ele>
  <time>2026-09-01T19:53:12Z</time>
  <course>180.41</course>
  <speed>24.822062766820974</speed>
  <fix>3d</fix>
</trkpt>
<trkpt lat="-27.276469" lon="151.2900459">
  <ele>396.79</ele>
  <time>2026-09-01T19:53:12Z</time>
  <course>180.64</course>
  <speed>24.81</speed>
  <fix>3d</fix>
</trkpt>
<trkpt lat="-27.2765128" lon="151.290045">
  <ele>396.99</ele>
  <time>2026-09-01T19:53:12Z</time>
  <course>180.45</course>
  <speed>24.91205531464636</speed>
  <fix>3d</fix>
</trkpt>
<trkpt lat="-27.276469" lon="151.2900459">
  <ele>396.79</ele>
  <time>2026-09-01T19:53:12Z</time>
  <course>180.64</course>
  <speed>24.81</speed>
  <fix>3d</fix>
</trkpt>
<trkpt lat="-27.2765351" lon="151.2900447">
  <ele>397.09</ele>
  <time>2026-09-01T19:53:12Z</time>
  <course>180.42</course>
  <speed>25.001921926124</speed>
  <fix>3d</fix>
</trkpt>
<trkpt lat="-27.2765137" lon="151.2900453">
  <ele>396.97</ele>
  <time>2026-09-01T19:53:12Z</time>
  <course>180.62</course>
  <speed>25.0</speed>
  <fix>3d</fix>
</trkpt>
<trkpt lat="-27.2765576" lon="151.2900444">
  <ele>397.18</ele>
  <time>2026-09-01T19:53:12Z</time>
  <course>180.38</course>
  <speed>25.09191503253588</speed>
  <fix>3d</fix>
</trkpt>
<trkpt lat="-27.2765137" lon="151.2900453">
  <ele>396.97</ele>
  <time>2026-09-01T19:53:12Z</time>
  <course>180.62</course>
  <speed>25.0</speed>
  <fix>3d</fix>
</trkpt>
<trkpt lat="-27.2765801" lon="151.2900442">
  <ele>397.28</ele>
  <time>2026-09-01T19:53:12Z</time>
  <course>180.41</course>
  <speed>25.17190894628375</speed>
  <fix>3d</fix>
</trkpt>
<trkpt lat="-27.2765588" lon="151.2900447">
  <ele>397.17</ele>
  <time>2026-09-01T19:53:12Z</time>
  <course>180.6</course>
  <speed>25.18</speed>
  <fix>3d</fix>
</trkpt>
<trkpt lat="-27.2766028" lon="151.2900439">
  <ele>397.38</ele>
  <time>2026-09-01T19:53:12Z</time>
  <course>180.45</course>
  <speed>25.251902898593602</speed>
  <fix>3d</fix>
</trkpt>
<trkpt lat="-27.2765588" lon="151.2900447">
  <ele>397.17</ele>
  <time>2026-09-01T19:53:12Z</time>
  <course>180.6</course>
  <speed>25.18</speed>
  <fix>3d</fix>
</trkpt>
<trkpt lat="-27.2766255" lon="151.2900436">
  <ele>397.48</ele>
  <time>2026-09-01T19:53:12Z</time>
  <course>180.44</course>
  <speed>25.33189688910011</speed>
  <fix>3d</fix>
</trkpt>
<trkpt lat="-27.2766042" lon="151.2900442">
  <ele>397.37</ele>
  <time>2026-09-01T19:53:12Z</time>
  <course>180.59</course>
  <speed>25.35</speed>
  <fix>3d</fix>
</trkpt>
<trkpt lat="-27.2766483" lon="151.2900433">
  <ele>397.58</ele>
  <time>2026-09-01T19:53:12Z</time>
  <course>180.44</course>
  <speed>25.411770894607088</speed>
  <fix>3d</fix>
</trkpt>
<trkpt lat="-27.2766042" lon="151.2900442">
  <ele>397.37</ele>
  <time>2026-09-01T19:53:12Z</time>
  <course>180.59</course>
  <speed>25.35</speed>
  <fix>3d</fix>
</trkpt>
<trkpt lat="-27.2766712" lon="151.2900431">
  <ele>397.69</ele>
  <time>2026-09-01T19:53:12Z</time>
  <course>180.51</course>
  <speed>25.481885722999387</speed>
  <fix>3d</fix>
</trkpt>
<trkpt lat="-27.2766499" lon="151.2900437">
  <ele>397.57</ele>
  <time>2026-09-01T19:53:12Z</time>
  <course>180.59</course>
  <speed>25.51</speed>
  <fix>3d</fix>
</trkpt>
<trkpt lat="-27.2766942" lon="151.2900428">
  <ele>397.79</ele>
  <time>2026-09-01T19:53:12Z</time>
  <course>180.55</course>
  <speed>25.552003835315933</speed>
  <fix>3d</fix>
</trkpt>
<trkpt lat="-27.2766499" lon="151.2900437">
  <ele>397.57</ele>
  <time>2026-09-01T19:53:12Z</time>
  <course>180.59</course>
  <speed>25.51</speed>
  <fix>3d</fix>
</trkpt>
<trkpt lat="-27.2767172" lon="151.2900425">
  <ele>397.9</ele>
  <time>2026-09-01T19:53:12Z</time>
  <course>180.53</course>
  <speed>25.631997581148447</speed>
  <fix>3d</fix>
</trkpt>
<trkpt lat="-27.276696" lon="151.2900432">
  <ele>397.78</ele>
  <time>2026-09-01T19:53:12Z</time>
  <course>180.6</course>
  <speed>25.66</speed>
  <fix>3d</fix>
</trkpt>
<trkpt lat="-27.2767404" lon="151.2900422">
  <ele>398.01</ele>
  <time>2026-09-01T19:53:12Z</time>
  <course>180.5</course>
  <speed>25.702118589719408</speed>
  <fix>3d</fix>
</trkpt>
<trkpt lat="-27.276696" lon="151.2900432">
  <ele>397.78</ele>
  <time>2026-09-01T19:53:12Z</time>
  <course>180.6</course>
  <speed>25.66</speed>
  <fix>3d</fix>
</trkpt>
<trkpt lat="-27.2767636" lon="151.2900419">
  <ele>398.12</ele>
  <time>2026-09-01T19:53:12Z</time>
  <course>180.57</course>
  <speed>25.762113655521357</speed>
  <fix>3d</fix>
</trkpt>
<trkpt lat="-27.2767423" lon="151.2900426">
  <ele>398.01</ele>
  <time>2026-09-01T19:53:12Z</time>
  <course>180.61</course>
  <speed>25.79</speed>
  <fix>3d</fix>
</trkpt>
<trkpt lat="-27.2767868" lon="151.2900416">
  <ele>398.23</ele>
  <time>2026-09-01T19:53:12Z</time>
  <course>180.54</course>
  <speed>25.832107927925666</speed>
  <fix>3d</fix>
</trkpt>
<trkpt lat="-27.2767423" lon="151.2900426">
  <ele>398.01</ele>
  <time>2026-09-01T19:53:12Z</time>
  <course>180.61</course>
  <speed>25.79</speed>
  <fix>3d</fix>
</trkpt>
<trkpt lat="-27.2768101" lon="151.2900414">
  <ele>398.34</ele>
  <time>2026-09-01T19:53:12Z</time>
  <course>180.49</course>
  <speed>25.90210223128617</speed>
  <fix>3d</fix>
</trkpt>
<trkpt lat="-27.2767887" lon="151.2900421">
  <ele>398.22</ele>
  <time>2026-09-01T19:53:12Z</time>
  <course>180.61</course>
  <speed>25.92</speed>
  <fix>3d</fix>
</trkpt>
<trkpt lat="-27.2768335" lon="151.2900411">
  <ele>398.45</ele>
  <time>2026-09-01T19:53:12Z</time>
  <course>180.44</course>
  <speed>25.961972190109133</speed>
  <fix>3d</fix>
</trkpt>
<trkpt lat="-27.2767887" lon="151.2900421">
  <ele>398.22</ele>
  <time>2026-09-01T19:53:12Z</time>
  <course>180.61</course>
  <speed>25.92</speed>
  <fix>3d</fix>
</trkpt>
<trkpt lat="-27.2768568" lon="151.2900408">
  <ele>398.56</ele>
  <time>2026-09-01T19:53:12Z</time>
  <course>180.45</course>
  <speed>26.021967642743697</speed>
  <fix>3d</fix>
</trkpt>
<trkpt lat="-27.2768354" lon="151.2900414">
  <ele>398.45</ele>
  <time>2026-09-01T19:53:12Z</time>
  <course>180.59</course>
  <speed>26.04</speed>
  <fix>3d</fix>
</trkpt>
<trkpt lat="-27.2768807" lon="151.2900405">
  <ele>398.68</ele>
  <time>2026-09-01T19:53:12Z</time>
  <course>180.5</course>
  <speed>26.081842342902082</speed>
  <fix>3d</fix>
</trkpt>
<trkpt lat="-27.2768354" lon="151.2900414">
  <ele>398.45</ele>
  <time>2026-09-01T19:53:12Z</time>
  <course>180.59</course>
  <speed>26.04</speed>
  <fix>3d</fix>
</trkpt>
<trkpt lat="-27.2769042" lon="151.2900403">
  <ele>398.79</ele>
  <time>2026-09-01T19:53:12Z</time>
  <course>180.56</course>
  <speed>26.14183811440963</speed>
  <fix>3d</fix>
</trkpt>
<trkpt lat="-27.2768822" lon="151.2900409">
  <ele>398.68</ele>
  <time>2026-09-01T19:53:12Z</time>
  <course>180.58</course>
  <speed>26.16</speed>
  <fix>3d</fix>
</trkpt>
<trkpt lat="-27.2769278" lon="151.29004">
  <ele>398.88</ele>
  <time>2026-09-01T19:53:12Z</time>
  <course>180.57</course>
  <speed>26.221832506520208</speed>
  <fix>3d</fix>
</trkpt>
<trkpt lat="-27.2768822" lon="151.2900409">
  <ele>398.68</ele>
  <time>2026-09-01T19:53:12Z</time>
  <course>180.58</course>
  <speed>26.16</speed>
  <fix>3d</fix>
</trkpt>
<trkpt lat="-27.2769515" lon="151.2900397">
  <ele>398.96</ele>
  <time>2026-09-01T19:53:12Z</time>
  <course>180.5</course>
  <speed>26.301710970961565</speed>
  <fix>3d</fix>
</trkpt>
<trkpt lat="-27.2769294" lon="151.2900404">
  <ele>398.88</ele>
  <time>2026-09-01T19:53:12Z</time>
  <course>180.56</course>
  <speed>26.29</speed>
  <fix>3d</fix>
</trkpt>
<trkpt lat="-27.2769752" lon="151.2900395">
  <ele>399.01</ele>
  <time>2026-09-01T19:53:12Z</time>
  <course>180.5</course>
  <speed>26.38159396245799</speed>
  <fix>3d</fix>
</trkpt>
<trkpt lat="-27.2769294" lon="151.2900404">
  <ele>398.88</ele>
  <time>2026-09-01T19:53:12Z</time>
  <course>180.56</course>
  <speed>26.29</speed>
  <fix>3d</fix>
</trkpt>
<trkpt lat="-27.276999" lon="151.2900392">
  <ele>399.06</ele>
  <time>2026-09-01T19:53:12Z</time>
  <course>180.48</course>
  <speed>26.451589744285695</speed>
  <fix>3d</fix>
</trkpt>
<trkpt lat="-27.2769767" lon="151.2900399">
  <ele>399.02</ele>
  <time>2026-09-01T19:53:12Z</time>
  <course>180.54</course>
  <speed>26.43</speed>
  <fix>3d</fix>
</trkpt>
<trkpt lat="-27.2770229" lon="151.290039">
  <ele>399.11</ele>
  <time>2026-09-01T19:53:12Z</time>
  <course>180.49</course>
  <speed>26.521478088522894</speed>
  <fix>3d</fix>
</trkpt>
<trkpt lat="-27.2769767" lon="151.2900399">
  <ele>399.02</ele>
  <time>2026-09-01T19:53:12Z</time>
  <course>180.54</course>
  <speed>26.43</speed>
  <fix>3d</fix>
</trkpt>
<trkpt lat="-27.2770468" lon="151.2900388">
  <ele>399.15</ele>
  <time>2026-09-01T19:53:12Z</time>
  <course>180.52</course>
  <speed>26.591474197569415</speed>
  <fix>3d</fix>
</trkpt>
<trkpt lat="-27.2770243" lon="151.2900394">
  <ele>399.12</ele>
  <time>2026-09-01T19:53:12Z</time>
  <course>180.52</course>
  <speed>26.57</speed>
  <fix>3d</fix>
</trkpt>
<trkpt lat="-27.2770708" lon="151.2900385">
  <ele>399.19</ele>
  <time>2026-09-01T19:53:12Z</time>
  <course>180.55</course>
  <speed>26.661470327046853</speed>
  <fix>3d</fix>
</trkpt>
<trkpt lat="-27.2770243" lon="151.2900394">
  <ele>399.12</ele>
  <time>2026-09-01T19:53:12Z</time>
  <course>180.52</course>
  <speed>26.57</speed>
  <fix>3d</fix>
</trkpt>
<trkpt lat="-27.2770948" lon="151.2900383">
  <ele>399.23</ele>
  <time>2026-09-01T19:53:12Z</time>
  <course>180.52</course>
  <speed>26.731363601582316</speed>
  <fix>3d</fix>
</trkpt>
<trkpt lat="-27.2770722" lon="151.2900389">
  <ele>399.21</ele>
  <time>2026-09-01T19:53:12Z</time>
  <course>180.51</course>
  <speed>26.71</speed>
  <fix>3d</fix>
</trkpt>
<trkpt lat="-27.2771189" lon="151.2900381">
  <ele>399.27</ele>
  <time>2026-09-01T19:53:12Z</time>
  <course>180.46</course>
  <speed>26.801360040117366</speed>
  <fix>3d</fix>
</trkpt>
<trkpt lat="-27.2770722" lon="151.2900389">
  <ele>399.21</ele>
  <time>2026-09-01T19:53:12Z</time>
  <course>180.51</course>
  <speed>26.71</speed>
  <fix>3d</fix>
</trkpt>
<trkpt lat="-27.2771431" lon="151.2900378">
  <ele>399.32</ele>
  <time>2026-09-01T19:53:12Z</time>
  <course>180.45</course>
  <speed>26.861163414863476</speed>
  <fix>3d</fix>
</trkpt>
<trkpt lat="-27.2771204" lon="151.2900384">
  <ele>399.3</ele>
  <time>2026-09-01T19:53:12Z</time>
  <course>180.48</course>
  <speed>26.83</speed>
  <fix>3d</fix>
</trkpt>
<trkpt lat="-27.2771673" lon="151.2900376">
  <ele>399.36</ele>
  <time>2026-09-01T19:53:12Z</time>
  <course>180.49</course>
  <speed>26.91116125327928</speed>
  <fix>3d</fix>
</trkpt>
<trkpt lat="-27.2771204" lon="151.2900384">
  <ele>399.3</ele>
  <time>2026-09-01T19:53:12Z</time>
  <course>180.48</course>
  <speed>26.83</speed>
  <fix>3d</fix>
</trkpt>
<trkpt lat="-27.2771915" lon="151.2900374">
  <ele>399.41</ele>
  <time>2026-09-01T19:53:12Z</time>
  <course>180.48</course>
  <speed>26.971067832030677</speed>
  <fix>3d</fix>
</trkpt>
<trkpt lat="-27.2771688" lon="151.2900379">
  <ele>399.4</ele>
  <time>2026-09-01T19:53:12Z</time>
  <course>180.45</course>
  <speed>26.95</speed>
  <fix>3d</fix>
</trkpt>
<trkpt lat="-27.2772158" lon="151.2900372">
  <ele>399.46</ele>
  <time>2026-09-01T19:53:12Z</time>
  <course>180.54</course>
  <speed>27.020978886783507</speed>
  <fix>3d</fix>
</trkpt>
<trkpt lat="-27.2771688" lon="151.2900379">
  <ele>399.4</ele>
  <time>2026-09-01T19:53:12Z</time>
  <course>180.45</course>
  <speed>26.95</speed>
  <fix>3d</fix>
</trkpt>
<trkpt lat="-27.2772402" lon="151.290037">
  <ele>399.52</ele>
  <time>2026-09-01T19:53:12Z</time>
  <course>180.51</course>
  <speed>27.0709770787831</speed>
  <fix>3d</fix>
</trkpt>
<trkpt lat="-27.2772173" lon="151.2900376">
  <ele>399.5</ele>
  <time>2026-09-01T19:53:12Z</time>
  <course>180.43</course>
  <speed>27.05</speed>
  <fix>3d</fix>
</trkpt>
<trkpt lat="-27.2772645" lon="151.2900368">
  <ele>399.58</ele>
  <time>2026-09-01T19:53:12Z</time>
  <course>180.43</course>
  <speed>27.110892644839268</speed>
  <fix>3d</fix>
</trkpt>
<trkpt lat="-27.2772173" lon="151.2900376">
  <ele>399.5</ele>
  <time>2026-09-01T19:53:12Z</time>
  <course>180.43</course>
  <speed>27.05</speed>
  <fix>3d</fix>
</trkpt>
<trkpt lat="-27.277289" lon="151.2900367">
  <ele>399.64</ele>
  <time>2026-09-01T19:53:12Z</time>
  <course>180.42</course>
  <speed>27.160811843536635</speed>
  <fix>3d</fix>
</trkpt>
<trkpt lat="-27.2772659" lon="151.2900371">
  <ele>399.62</ele>
  <time>2026-09-01T19:53:12Z</time>
  <course>180.41</course>
  <speed>27.14</speed>
  <fix>3d</fix>
</trkpt>
<trkpt lat="-27.2773134" lon="151.2900365">
  <ele>399.7</ele>
  <time>2026-09-01T19:53:12Z</time>
  <course>180.45</course>
  <speed>27.20081064968469</speed>
  <fix>3d</fix>
</trkpt>
<trkpt lat="-27.2772659" lon="151.2900371">
  <ele>399.62</ele>
  <time>2026-09-01T19:53:12Z</time>
  <course>180.41</course>
  <speed>27.14</speed>
  <fix>3d</fix>
</trkpt>
<trkpt lat="-27.2773379" lon="151.2900363">
  <ele>399.77</ele>
  <time>2026-09-01T19:53:12Z</time>
  <course>180.46</course>
  <speed>27.24073420449603</speed>
  <fix>3d</fix>
</trkpt>
<trkpt lat="-27.2773147" lon="151.2900368">
  <ele>399.75</ele>
  <time>2026-09-01T19:53:12Z</time>
  <course>180.38</course>
  <speed>27.22</speed>
  <fix>3d</fix>
</trkpt>
<trkpt lat="-27.2773622" lon="151.2900361">
  <ele>399.84</ele>
  <time>2026-09-01T19:53:12Z</time>
  <course>180.55</course>
  <speed>27.280733127978802</speed>
  <fix>3d</fix>
</trkpt>
<trkpt lat="-27.2773147" lon="151.2900368">
  <ele>399.75</ele>
  <time>2026-09-01T19:53:12Z</time>
  <course>180.38</course>
  <speed>27.22</speed>
  <fix>3d</fix>
</trkpt>
<trkpt lat="-27.2773868" lon="151.290036">
  <ele>399.91</ele>
  <time>2026-09-01T19:53:12Z</time>
  <course>180.54</course>
  <speed>27.320732054613764</speed>
  <fix>3d</fix>
</trkpt>
<trkpt lat="-27.2773637" lon="151.2900364">
  <ele>399.89</ele>
  <time>2026-09-01T19:53:12Z</time>
  <course>180.37</course>
  <speed>27.3</speed>
  <fix>3d</fix>
</trkpt>
<trkpt lat="-27.2774114" lon="151.2900358">
  <ele>399.98</ele>
  <time>2026-09-01T19:53:12Z</time>
  <course>180.5</course>
  <speed>27.360730984387096</speed>
  <fix>3d</fix>
</trkpt>
<trkpt lat="-27.2773637" lon="151.2900364">
  <ele>399.89</ele>
  <time>2026-09-01T19:53:12Z</time>
  <course>180.37</course>
  <speed>27.3</speed>
  <fix>3d</fix>
</trkpt>
<trkpt lat="-27.277436" lon="151.2900356">
  <ele>400.05</ele>
  <time>2026-09-01T19:53:12Z</time>
  <course>180.52</course>
  <speed>27.39073018376838</speed>
  <fix>3d</fix>
</trkpt>
<trkpt lat="-27.2774128" lon="151.2900361">
  <ele>400.03</ele>
  <time>2026-09-01T19:53:12Z</time>
  <course>180.37</course>
  <speed>27.38</speed>
  <fix>3d</fix>
</trkpt>
<trkpt lat="-27.2774609" lon="151.2900355">
  <ele>400.12</ele>
  <time>2026-09-01T19:53:12Z</time>
  <course>180.58</course>
  <speed>27.43072911900083</speed>
  <fix>3d</fix>
</trkpt>
<trkpt lat="-27.2774128" lon="151.2900361">
  <ele>400.03</ele>
  <time>2026-09-01T19:53:12Z</time>
  <course>180.37</course>
  <speed>27.38</speed>
  <fix>3d</fix>
</trkpt>
<trkpt lat="-27.2774855" lon="151.2900353">
  <ele>400.19</ele>
  <time>2026-09-01T19:53:12Z</time>
  <course>180.58</course>
  <speed>27.460728322460785</speed>
  <fix>3d</fix>
</trkpt>
<trkpt lat="-27.277462" lon="151.2900357">
  <ele>400.17</ele>
  <time>2026-09-01T19:53:12Z</time>
  <course>180.37</course>
  <speed>27.44</speed>
  <fix>3d</fix>
</trkpt>
<trkpt lat="-27.2775102" lon="151.2900351">
  <ele>400.27</ele>
  <time>2026-09-01T19:53:12Z</time>
  <course>180.55</course>
  <speed>27.490727527659214</speed>
  <fix>3d</fix>
</trkpt>
<trkpt lat="-27.277462" lon="151.2900357">
  <ele>400.17</ele>
  <time>2026-09-01T19:53:12Z</time>
  <course>180.37</course>
  <speed>27.44</speed>
  <fix>3d</fix>
</trkpt>
<trkpt lat="-27.277535" lon="151.290035">
  <ele>400.35</ele>
  <time>2026-09-01T19:53:12Z</time>
  <course>180.56</course>
  <speed>27.52065587881219</speed>
  <fix>3d</fix>
</trkpt>
<trkpt lat="-27.2775114" lon="151.2900354">
  <ele>400.32</ele>
  <time>2026-09-01T19:53:12Z</time>
  <course>180.37</course>
  <speed>27.51</speed>
  <fix>3d</fix>
</trkpt>
<trkpt lat="-27.2775599" lon="151.2900348">
  <ele>400.42</ele>
  <time>2026-09-01T19:53:12Z</time>
  <course>180.61</course>
  <speed>27.550725943248754</speed>
  <fix>3d</fix>
</trkpt>
<trkpt lat="-27.2775114" lon="151.2900354">
  <ele>400.32</ele>
  <time>2026-09-01T19:53:12Z</time>
  <course>180.37</course>
  <speed>27.51</speed>
  <fix>3d</fix>
</trkpt>
<trkpt lat="-27.2775847" lon="151.2900346">
  <ele>400.5</ele>
  <time>2026-09-01T19:53:12Z</time>
  <course>180.59</course>
  <speed>27.580725153628578</speed>
  <fix>3d</fix>
</trkpt>
<trkpt lat="-27.2775608" lon="151.290035">
  <ele>400.47</ele>
  <time>2026-09-01T19:53:12Z</time>
  <course>180.38</course>
  <speed>27.56</speed>
  <fix>3d</fix>
</trkpt>
<trkpt lat="-27.2776095" lon="151.2900344">
  <ele>400.57</ele>
  <time>2026-09-01T19:53:12Z</time>
  <course>180.51</course>
  <speed>27.60072462816873</speed>
  <fix>3d</fix>
</trkpt>
<trkpt lat="-27.2775608" lon="151.290035">
  <ele>400.47</ele>
  <time>2026-09-01T19:53:12Z</time>
  <course>180.38</course>
  <speed>27.56</speed>
  <fix>3d</fix>
</trkpt>
<trkpt lat="-27.2776343" lon="151.2900342">
  <ele>400.65</ele>
  <time>2026-09-01T19:53:12Z</time>
  <course>180.5</course>
  <speed>27.620724103469843</speed>
  <fix>3d</fix>
</trkpt>
<trkpt lat="-27.2776104" lon="151.2900346">
  <ele>400.64</ele>
  <time>2026-09-01T19:53:12Z</time>
  <course>180.38</course>
  <speed>27.61</speed>
  <fix>3d</fix>
</trkpt>
<trkpt lat="-27.2776592" lon="151.2900341">
  <ele>400.73</ele>
  <time>2026-09-01T19:53:12Z</time>
  <course>180.5</course>
  <speed>27.65072331784469</speed>
  <fix>3d</fix>
</trkpt>
<trkpt lat="-27.2776104" lon="151.2900346">
  <ele>400.64</ele>
  <time>2026-09-01T19:53:12Z</time>
  <course>180.38</course>
  <speed>27.61</speed>
  <fix>3d</fix>
</trkpt>
<trkpt lat="-27.2776841" lon="151.2900339">
  <ele>400.82</ele>
  <time>2026-09-01T19:53:12Z</time>
  <course>180.48</course>
  <speed>27.67072279504097</speed>
  <fix>3d</fix>
</trkpt>
<trkpt lat="-27.2776601" lon="151.2900343">
  <ele>400.8</ele>
  <time>2026-09-01T19:53:12Z</time>
  <course>180.38</course>
  <speed>27.66</speed>
  <fix>3d</fix>
</trkpt>
<trkpt lat="-27.277709" lon="151.2900337">
  <ele>400.9</ele>
  <time>2026-09-01T19:53:12Z</time>
  <course>180.6</course>
  <speed>27.70072201225087</speed>
  <fix>3d</fix>
</trkpt>
<trkpt lat="-27.2776601" lon="151.2900343">
  <ele>400.8</ele>
  <time>2026-09-01T19:53:12Z</time>
  <course>180.38</course>
  <speed>27.66</speed>
  <fix>3d</fix>
</trkpt>
<trkpt lat="-27.2777339" lon="151.2900335">
  <ele>400.98</ele>
  <time>2026-09-01T19:53:12Z</time>
  <course>180.61</course>
  <speed>27.720721491332075</speed>
  <fix>3d</fix>
</trkpt>
<trkpt lat="-27.27771" lon="151.2900338">
  <ele>400.96</ele>
  <time>2026-09-01T19:53:12Z</time>
  <course>180.37</course>
  <speed>27.7</speed>
  <fix>3d</fix>
</trkpt>
<trkpt lat="-27.2777589" lon="151.2900333">
  <ele>401.06</ele>
  <time>2026-09-01T19:53:12Z</time>
  <course>180.56</course>
  <speed>27.740720971164393</speed>
  <fix>3d</fix>
</trkpt>
<trkpt lat="-27.27771" lon="151.2900338">
  <ele>400.96</ele>
  <time>2026-09-01T19:53:12Z</time>
  <course>180.37</course>
  <speed>27.7</speed>
  <fix>3d</fix>
</trkpt>
<trkpt lat="-27.2777839" lon="151.2900331">
  <ele>401.15</ele>
  <time>2026-09-01T19:53:12Z</time>
  <course>180.54</course>
  <speed>27.760794296993737</speed>
  <fix>3d</fix>
</trkpt>
<trkpt lat="-27.2777598" lon="151.2900335">
  <ele>401.12</ele>
  <time>2026-09-01T19:53:12Z</time>
  <course>180.38</course>
  <speed>27.74</speed>
  <fix>3d</fix>
</trkpt>
<trkpt lat="-27.2778089" lon="151.290033">
  <ele>401.23</ele>
  <time>2026-09-01T19:53:12Z</time>
  <course>180.53</course>
  <speed>27.780793725161992</speed>
  <fix>3d</fix>
</trkpt>
<trkpt lat="-27.2777598" lon="151.2900335">
  <ele>401.12</ele>
  <time>2026-09-01T19:53:12Z</time>
  <course>180.38</course>
  <speed>27.74</speed>
  <fix>3d</fix>
</trkpt>
<trkpt lat="-27.2778339" lon="151.2900328">
  <ele>401.32</ele>
  <time>2026-09-01T19:53:12Z</time>
  <course>180.57</course>
  <speed>27.80071941515183</speed>
  <fix>3d</fix>
</trkpt>
<trkpt lat="-27.2778096" lon="151.2900331">
  <ele>401.29</ele>
  <time>2026-09-01T19:53:12Z</time>
  <course>180.39</course>
  <speed>27.78</speed>
  <fix>3d</fix>
</trkpt>
<trkpt lat="-27.277859" lon="151.2900326">
  <ele>401.41</ele>
  <time>2026-09-01T19:53:12Z</time>
  <course>180.56</course>
  <speed>27.820718897972423</speed>
  <fix>3d</fix>
</trkpt>
<trkpt lat="-27.2778096" lon="151.2900331">
  <ele>401.29</ele>
  <time>2026-09-01T19:53:12Z</time>
  <course>180.39</course>
  <speed>27.78</speed>
  <fix>3d</fix>
</trkpt>
<trkpt lat="-27.2778838" lon="151.2900324">
  <ele>401.5</ele>
  <time>2026-09-01T19:53:12Z</time>
  <course>180.57</course>
  <speed>27.830648573110903</speed>
  <fix>3d</fix>
</trkpt>
<trkpt lat="-27.2778596" lon="151.2900328">
  <ele>401.47</ele>
  <time>2026-09-01T19:53:12Z</time>
  <course>180.37</course>
  <speed>27.81</speed>
  <fix>3d</fix>
</trkpt>
<trkpt lat="-27.2779088" lon="151.2900322">
  <ele>401.59</ele>
  <time>2026-09-01T19:53:12Z</time>
  <course>180.63</course>
  <speed>27.84064834015185</speed>
  <fix>3d</fix>
</trkpt>
<trkpt lat="-27.2778596" lon="151.2900328">
  <ele>401.47</ele>
  <time>2026-09-01T19:53:12Z</time>
  <course>180.37</course>
  <speed>27.81</speed>
  <fix>3d</fix>
</trkpt>
<trkpt lat="-27.2779339" lon="151.290032">
  <ele>401.69</ele>
  <time>2026-09-01T19:53:12Z</time>
  <course>180.59</course>
  <speed>27.85064810736009</speed>
  <fix>3d</fix>
</trkpt>
<trkpt lat="-27.2779096" lon="151.2900323">
  <ele>401.65</ele>
  <time>2026-09-01T19:53:12Z</time>
  <course>180.36</course>
  <speed>27.84</speed>
  <fix>3d</fix>
</trkpt>
<trkpt lat="-27.277959" lon="151.2900319">
  <ele>401.79</ele>
  <time>2026-09-01T19:53:12Z</time>
  <course>180.61</course>
  <speed>27.870581264121494</speed>
  <fix>3d</fix>
</trkpt>
<trkpt lat="-27.2779096" lon="151.2900323">
  <ele>401.65</ele>
  <time>2026-09-01T19:53:12Z</time>
  <course>180.36</course>
  <speed>27.84</speed>
  <fix>3d</fix>
</trkpt>
<trkpt lat="-27.2779842" lon="151.2900317">
  <ele>401.89</ele>
  <time>2026-09-01T19:53:12Z</time>
  <course>180.65</course>
  <speed>27.88058105563799</speed>
  <fix>3d</fix>
</trkpt>
<trkpt lat="-27.2779596" lon="151.290032">
  <ele>401.84</ele>
  <time>2026-09-01T19:53:12Z</time>
  <course>180.35</course>
  <speed>27.86</speed>
  <fix>3d</fix>
</trkpt>
<trkpt lat="-27.2780093" lon="151.2900315">
  <ele>401.99</ele>
  <time>2026-09-01T19:53:12Z</time>
  <course>180.61</course>
  <speed>27.890580847303987</speed>
  <fix>3d</fix>
</trkpt>
<trkpt lat="-27.2779596" lon="151.290032">
  <ele>401.84</ele>
  <time>2026-09-01T19:53:12Z</time>
  <course>180.35</course>
  <speed>27.86</speed>
  <fix>3d</fix>
</trkpt>
<trkpt lat="-27.2780344" lon="151.2900314">
  <ele>402.08</ele>
  <time>2026-09-01T19:53:12Z</time>
  <course>180.58</course>
  <speed>27.910580431083837</speed>
  <fix>3d</fix>
</trkpt>
<trkpt lat="-27.2780096" lon="151.2900316">
  <ele>402.03</ele>
  <time>2026-09-01T19:53:12Z</time>
  <course>180.34</course>
  <speed>27.88</speed>
  <fix>3d</fix>
</trkpt>
<trkpt lat="-27.2780595" lon="151.2900312">
  <ele>402.18</ele>
  <time>2026-09-01T19:53:12Z</time>
  <course>180.56</course>
  <speed>27.920580223197366</speed>
  <fix>3d</fix>
</trkpt>
<trkpt lat="-27.2780096" lon="151.2900316">
  <ele>402.03</ele>
  <time>2026-09-01T19:53:12Z</time>
  <course>180.34</course>
  <speed>27.88</speed>
  <fix>3d</fix>
</trkpt>
<trkpt lat="-27.2780846" lon="151.290031">
  <ele>402.28</ele>
  <time>2026-09-01T19:53:12Z</time>
  <course>180.57</course>
  <speed>27.930517360049024</speed>
  <fix>3d</fix>
</trkpt>
<trkpt lat="-27.2780597" lon="151.2900313">
  <ele>402.22</ele>
  <time>2026-09-01T19:53:12Z</time>
  <course>180.32</course>
  <speed>27.91</speed>
  <fix>3d</fix>
</trkpt>
<trkpt lat="-27.2781097" lon="151.2900309">
  <ele>402.37</ele>
  <time>2026-09-01T19:53:12Z</time>
  <course>180.61</course>
  <speed>27.940517174884217</speed>
  <fix>3d</fix>
</trkpt>
<trkpt lat="-27.2780597" lon="151.2900313">
  <ele>402.22</ele>
  <time>2026-09-01T19:53:12Z</time>
  <course>180.32</course>
  <speed>27.91</speed>
  <fix>3d</fix>
</trkpt>
<trkpt lat="-27.2781348" lon="151.2900307">
  <ele>402.47</ele>
  <time>2026-09-01T19:53:12Z</time>
  <course>180.62</course>
  <speed>27.960516804951943</speed>
  <fix>3d</fix>
</trkpt>
<trkpt lat="-27.2781098" lon="151.290031">
  <ele>402.42</ele>
  <time>2026-09-01T19:53:12Z</time>
  <course>180.31</course>
  <speed>27.93</speed>
  <fix>3d</fix>
</trkpt>
<trkpt lat="-27.27816" lon="151.2900306">
  <ele>402.57</ele>
  <time>2026-09-01T19:53:12Z</time>
  <course>180.64</course>
  <speed>27.97051662018419</speed>
  <fix>3d</fix>
</trkpt>
<trkpt lat="-27.2781098" lon="151.290031">
  <ele>402.42</ele>
  <time>2026-09-01T19:53:12Z</time>
  <course>180.31</course>
  <speed>27.93</speed>
  <fix>3d</fix>
</trkpt>
<trkpt lat="-27.2781851" lon="151.2900304">
  <ele>402.66</ele>
  <time>2026-09-01T19:53:12Z</time>
  <course>180.63</course>
  <speed>27.97051662018419</speed>
  <fix>3d</fix>
</trkpt>
<trkpt lat="-27.2781602" lon="151.2900307">
  <ele>402.61</ele>
  <time>2026-09-01T19:53:12Z</time>
  <course>180.32</course>
  <speed>27.95</speed>
  <fix>3d</fix>
</trkpt>
<trkpt lat="-27.2782102" lon="151.2900302">
  <ele>402.76</ele>
  <time>2026-09-01T19:53:12Z</time>
  <course>180.59</course>
  <speed>27.980516435548505</speed>
  <fix>3d</fix>
</trkpt>
<trkpt lat="-27.2781602" lon="151.2900307">
  <ele>402.61</ele>
  <time>2026-09-01T19:53:12Z</time>
  <course>180.32</course>
  <speed>27.95</speed>
  <fix>3d</fix>
</trkpt>
<trkpt lat="-27.2782354" lon="151.2900301">
  <ele>402.86</ele>
  <time>2026-09-01T19:53:12Z</time>
  <course>180.59</course>
  <speed>27.990516251044745</speed>
  <fix>3d</fix>
</trkpt>
<trkpt lat="-27.2782105" lon="151.2900304">
  <ele>402.81</ele>
  <time>2026-09-01T19:53:12Z</time>
  <course>180.31</course>
  <speed>27.97</speed>
  <fix>3d</fix>
</trkpt>
<trkpt lat="-27.2782607" lon="151.2900299">
  <ele>402.96</ele>
  <time>2026-09-01T19:53:12Z</time>
  <course>180.63</course>
  <speed>27.990516251044745</speed>
  <fix>3d</fix>
</trkpt>
<trkpt lat="-27.2782105" lon="151.2900304">
  <ele>402.81</ele>
  <time>2026-09-01T19:53:12Z</time>
  <course>180.31</course>
  <speed>27.97</speed>
  <fix>3d</fix>
</trkpt>
<trkpt lat="-27.2782859" lon="151.2900298">
  <ele>403.06</ele>
  <time>2026-09-01T19:53:12Z</time>
  <course>180.6</course>
  <speed>28.000516066672773</speed>
  <fix>3d</fix>
</trkpt>
<trkpt lat="-27.2782608" lon="151.2900301">
  <ele>403.01</ele>
  <time>2026-09-01T19:53:12Z</time>
  <course>180.31</course>
  <speed>27.98</speed>
  <fix>3d</fix>
</trkpt>
<trkpt lat="-27.2783111" lon="151.2900296">
  <ele>403.16</ele>
  <time>2026-09-01T19:53:12Z</time>
  <course>180.61</course>
  <speed>28.010515882432443</speed>
  <fix>3d</fix>
</trkpt>
<trkpt lat="-27.2782608" lon="151.2900301">
  <ele>403.01</ele>
  <time>2026-09-01T19:53:12Z</time>
  <course>180.31</course>
  <speed>27.98</speed>
  <fix>3d</fix>
</trkpt>
<trkpt lat="-27.2783362" lon="151.2900295">
  <ele>403.26</ele>
  <time>2026-09-01T19:53:12Z</time>
  <course>180.6</course>
  <speed>27.860459436269174</speed>
  <fix>3d</fix>
</trkpt>
<trkpt lat="-27.278311" lon="151.2900298">
  <ele>403.21</ele>
  <time>2026-09-01T19:53:12Z</time>
  <course>180.31</course>
  <speed>27.92</speed>
  <fix>3d</fix>
</trkpt>
<trkpt lat="-27.278361" lon="151.2900293">
  <ele>403.36</ele>
  <time>2026-09-01T19:53:12Z</time>
  <course>180.63</course>
  <speed>27.47046595891668</speed>
  <fix>3d</fix>
</trkpt>
<trkpt lat="-27.278311" lon="151.2900298">
  <ele>403.21</ele>
  <time>2026-09-01T19:53:12Z</time>
  <course>180.31</course>
  <speed>27.92</speed>
  <fix>3d</fix>
</trkpt>
<trkpt lat="-27.2783854" lon="151.2900292">
  <ele>403.46</ele>
  <time>2026-09-01T19:53:12Z</time>
  <course>180.63</course>
  <speed>27.02041635504531</speed>
  <fix>3d</fix>
</trkpt>
<trkpt lat="-27.2783608" lon="151.2900294">
  <ele>403.41</ele>
  <time>2026-09-01T19:53:12Z</time>
  <course>180.3</course>
  <speed>27.45</speed>
  <fix>3d</fix>
</trkpt>
<trkpt lat="-27.2784092" lon="151.2900291">
  <ele>403.54</ele>
  <time>2026-09-01T19:53:12Z</time>
  <course>180.62</course>
  <speed>26.570423406487148</speed>
  <fix>3d</fix>
</trkpt>
<trkpt lat="-27.2783608" lon="151.2900294">
  <ele>403.41</ele>
  <time>2026-09-01T19:53:12Z</time>
  <course>180.3</course>
  <speed>27.45</speed>
  <fix>3d</fix>
</trkpt>
<trkpt lat="-27.2784328" lon="151.2900289">
  <ele>403.62</ele>
  <time>2026-09-01T19:53:12Z</time>
  <course>180.61</course>
  <speed>26.1403749016727</speed>
  <fix>3d</fix>
</trkpt>
<trkpt lat="-27.2784094" lon="151.2900292">
  <ele>403.59</ele>
  <time>2026-09-01T19:53:12Z</time>
  <course>180.3</course>
  <speed>26.6</speed>
  <fix>3d</fix>
</trkpt>
<trkpt lat="-27.2784559" lon="151.2900288">
  <ele>403.68</ele>
  <time>2026-09-01T19:53:12Z</time>
  <course>180.61</course>
  <speed>25.730328408320016</speed>
  <fix>3d</fix>
</trkpt>
<trkpt lat="-27.2784094" lon="151.2900292">
  <ele>403.59</ele>
  <time>2026-09-01T19:53:12Z</time>
  <course>180.3</course>
  <speed>26.6</speed>
  <fix>3d</fix>
</trkpt>
<trkpt lat="-27.2784788" lon="151.2900287">
  <ele>403.72</ele>
  <time>2026-09-01T19:53:12Z</time>
  <course>180.61</course>
  <speed>25.33033359432915</speed>
  <fix>3d</fix>
</trkpt>
<trkpt lat="-27.2784564" lon="151.2900289">
  <ele>403.73</ele>
  <time>2026-09-01T19:53:12Z</time>
  <course>180.3</course>
  <speed>25.77</speed>
  <fix>3d</fix>
</trkpt>
<trkpt lat="-27.2785015" lon="151.2900286">
  <ele>403.75</ele>
  <time>2026-09-01T19:53:12Z</time>
  <course>180.61</course>
  <speed>24.950288575485455</speed>
  <fix>3d</fix>
</trkpt>
<trkpt lat="-27.2784564" lon="151.2900289">
  <ele>403.73</ele>
  <time>2026-09-01T19:53:12Z</time>
  <course>180.3</course>
  <speed>25.77</speed>
  <fix>3d</fix>
</trkpt>
<trkpt lat="-27.2785236" lon="151.2900284">
  <ele>403.75</ele>
  <time>2026-09-01T19:53:12Z</time>
  <course>180.61</course>
  <speed>24.590292800208786</speed>
  <fix>3d</fix>
</trkpt>
<trkpt lat="-27.2785019" lon="151.2900286">
  <ele>403.8</ele>
  <time>2026-09-01T19:53:12Z</time>
  <course>180.29</course>
  <speed>25.0</speed>
  <fix>3d</fix>
</trkpt>
<trkpt lat="-27.2785455" lon="151.2900283">
  <ele>403.75</ele>
  <time>2026-09-01T19:53:12Z</time>
  <course>180.61</course>
  <speed>24.240249586173817</speed>
  <fix>3d</fix>
</trkpt>
<trkpt lat="-27.2785019" lon="151.2900286">
  <ele>403.8</ele>
  <time>2026-09-01T19:53:12Z</time>
  <course>180.29</course>
  <speed>25.0</speed>
  <fix>3d</fix>
</trkpt>
<trkpt lat="-27.278567" lon="151.2900282">
  <ele>403.72</ele>
  <time>2026-09-01T19:53:12Z</time>
  <course>180.61</course>
  <speed>23.910253030865235</speed>
  <fix>3d</fix>
</trkpt>
<trkpt lat="-27.2785462" lon="151.2900283">
  <ele>403.8</ele>
  <time>2026-09-01T19:53:12Z</time>
  <course>180.29</course>
  <speed>24.29</speed>
  <fix>3d</fix>
</trkpt>
<trkpt lat="-27.2785883" lon="151.2900281">
  <ele>403.68</ele>
  <time>2026-09-01T19:53:12Z</time>
  <course>180.61</course>
  <speed>23.590256463209553</speed>
  <fix>3d</fix>
</trkpt>
<trkpt lat="-27.2785462" lon="151.2900283">
  <ele>403.8</ele>
  <time>2026-09-01T19:53:12Z</time>
  <course>180.29</course>
  <speed>24.29</speed>
  <fix>3d</fix>
</trkpt>
<trkpt lat="-27.2786093" lon="151.290028">
  <ele>403.63</ele>
  <time>2026-09-01T19:53:12Z</time>
  <course>180.61</course>
  <speed>23.280214775641568</speed>
  <fix>3d</fix>
</trkpt>
<trkpt lat="-27.2785893" lon="151.2900281">
  <ele>403.75</ele>
  <time>2026-09-01T19:53:12Z</time>
  <course>180.28</course>
  <speed>23.64</speed>
  <fix>3d</fix>
</trkpt>
<trkpt lat="-27.2786301" lon="151.2900279">
  <ele>403.57</ele>
  <time>2026-09-01T19:53:12Z</time>
  <course>180.61</course>
  <speed>22.99021748483472</speed>
  <fix>3d</fix>
</trkpt>
<trkpt lat="-27.2785893" lon="151.2900281">
  <ele>403.75</ele>
  <time>2026-09-01T19:53:12Z</time>
  <course>180.28</course>
  <speed>23.64</speed>
  <fix>3d</fix>
</trkpt>
<trkpt lat="-27.2786506" lon="151.2900278">
  <ele>403.5</ele>
  <time>2026-09-01T19:53:12Z</time>
  <course>180.61</course>
  <speed>22.700220263248546</speed>
  <fix>3d</fix>
</trkpt>
<trkpt lat="-27.2786313" lon="151.2900278">
  <ele>403.64</ele>
  <time>2026-09-01T19:53:12Z</time>
  <course>180.28</course>
  <speed>23.04</speed>
  <fix>3d</fix>
</trkpt>
<trkpt lat="-27.2786708" lon="151.2900277">
  <ele>403.41</ele>
  <time>2026-09-01T19:53:12Z</time>
  <course>180.61</course>
  <speed>22.4301805610209</speed>
  <fix>3d</fix>
</trkpt>
<trkpt lat="-27.2786313" lon="151.2900278">
  <ele>403.64</ele>
  <time>2026-09-01T19:53:12Z</time>
  <course>180.28</course>
  <speed>23.04</speed>
  <fix>3d</fix>
</trkpt>
<trkpt lat="-27.2786908" lon="151.2900276">
  <ele>403.32</ele>
  <time>2026-09-01T19:53:12Z</time>
  <course>180.61</course>
  <speed>22.17018267854372</speed>
  <fix>3d</fix>
</trkpt>
<trkpt lat="-27.2786722" lon="151.2900277">
  <ele>403.48</ele>
  <time>2026-09-01T19:53:12Z</time>
  <course>180.27</course>
  <speed>22.49</speed>
  <fix>3d</fix>
</trkpt>
<trkpt lat="-27.2787107" lon="151.2900275">
  <ele>403.22</ele>
  <time>2026-09-01T19:53:12Z</time>
  <course>180.6</course>
  <speed>21.920184761995053</speed>
  <fix>3d</fix>
</trkpt>
<trkpt lat="-27.2786722" lon="151.2900277">
  <ele>403.48</ele>
  <time>2026-09-01T19:53:12Z</time>
  <course>180.27</course>
  <speed>22.49</speed>
  <fix>3d</fix>
</trkpt>
<trkpt lat="-27.2787302" lon="151.2900274">
  <ele>403.12</ele>
  <time>2026-09-01T19:53:12Z</time>
  <course>180.6</course>
  <speed>21.680186807313262</speed>
  <fix>3d</fix>
</trkpt>
<trkpt lat="-27.2787122" lon="151.2900275">
  <ele>403.3</ele>
  <time>2026-09-01T19:53:12Z</time>
  <course>180.27</course>
  <speed>21.97</speed>
  <fix>3d</fix>
</trkpt>
<trkpt lat="-27.2787496" lon="151.2900273">
  <ele>403.01</ele>
  <time>2026-09-01T19:53:12Z</time>
  <course>180.6</course>
  <speed>21.4501491836304</speed>
  <fix>3d</fix>
</trkpt>
<trkpt lat="-27.2787122" lon="151.2900275">
  <ele>403.3</ele>
  <time>2026-09-01T19:53:12Z</time>
  <course>180.27</course>
  <speed>21.97</speed>
  <fix>3d</fix>
</trkpt>
<trkpt lat="-27.2787688" lon="151.2900272">
  <ele>402.89</ele>
  <time>2026-09-01T19:53:12Z</time>
  <course>180.6</course>
  <speed>21.220150800595174</speed>
  <fix>3d</fix>
</trkpt>
<trkpt lat="-27.2787512" lon="151.2900273">
  <ele>403.09</ele>
  <time>2026-09-01T19:53:12Z</time>
  <course>180.26</course>
  <speed>21.5</speed>
  <fix>3d</fix>
</trkpt>
<trkpt lat="-27.2787878" lon="151.2900271">
  <ele>402.77</ele>
  <time>2026-09-01T19:53:12Z</time>
  <course>180.6</course>
  <speed>21.010152307872495</speed>
  <fix>3d</fix>
</trkpt>
<trkpt lat="-27.2787512" lon="151.2900273">
  <ele>403.09</ele>
  <time>2026-09-01T19:53:12Z</time>
  <course>180.26</course>
  <speed>21.5</speed>
  <fix>3d</fix>
</trkpt>
<trkpt lat="-27.2788066" lon="151.290027">
  <ele>402.64</ele>
  <time>2026-09-01T19:53:12Z</time>
  <course>180.6</course>
  <speed>20.80015384558489</speed>
  <fix>3d</fix>
</trkpt>
<trkpt lat="-27.2787894" lon="151.290027">
  <ele>402.85</ele>
  <time>2026-09-01T19:53:12Z</time>
  <course>180.25</course>
  <speed>21.06</speed>
  <fix>3d</fix>
</trkpt>
<trkpt lat="-27.2788253" lon="151.290027">
  <ele>402.51</ele>
  <time>2026-09-01T19:53:12Z</time>
  <course>180.6</course>
  <speed>20.600155339220137</speed>
  <fix>3d</fix>
</trkpt>
<trkpt lat="-27.2787894" lon="151.290027">
  <ele>402.85</ele>
  <time>2026-09-01T19:53:12Z</time>
  <course>180.25</course>
  <speed>21.06</speed>
  <fix>3d</fix>
</trkpt>
<trkpt lat="-27.2788437" lon="151.2900269">
  <ele>402.37</ele>
  <time>2026-09-01T19:53:12Z</time>
  <course>180.59</course>
  <speed>20.410120038843477</speed>
  <fix>3d</fix>
</trkpt>
<trkpt lat="-27.2788269" lon="151.2900268">
  <ele>402.59</ele>
  <time>2026-09-01T19:53:12Z</time>
  <course>180.25</course>
  <speed>20.65</speed>
  <fix>3d</fix>
</trkpt>
<trkpt lat="-27.278862" lon="151.2900268">
  <ele>402.23</ele>
  <time>2026-09-01T19:53:12Z</time>
  <course>180.59</course>
  <speed>20.220121166798187</speed>
  <fix>3d</fix>
</trkpt>
<trkpt lat="-27.2788269" lon="151.2900268">
  <ele>402.59</ele>
  <time>2026-09-01T19:53:12Z</time>
  <course>180.25</course>
  <speed>20.65</speed>
  <fix>3d</fix>
</trkpt>
<trkpt lat="-27.2788801" lon="151.2900267">
  <ele>402.08</ele>
  <time>2026-09-01T19:53:12Z</time>
  <course>180.59</course>
  <speed>20.04012225511611</speed>
  <fix>3d</fix>
</trkpt>
<trkpt lat="-27.2788636" lon="151.2900267">
  <ele>402.32</ele>
  <time>2026-09-01T19:53:12Z</time>
  <course>180.24</course>
  <speed>20.26</speed>
  <fix>3d</fix>
</trkpt>
<trkpt lat="-27.2788981" lon="151.2900266">
  <ele>401.94</ele>
  <time>2026-09-01T19:53:12Z</time>
  <course>180.59</course>
  <speed>19.870123301076923</speed>
  <fix>3d</fix>
</trkpt>
<trkpt lat="-27.2788636" lon="151.2900267">
  <ele>402.32</ele>
  <time>2026-09-01T19:53:12Z</time>
  <course>180.24</course>
  <speed>20.26</speed>
  <fix>3d</fix>
</trkpt>
<trkpt lat="-27.2789161" lon="151.2900265">
  <ele>401.79</ele>
  <time>2026-09-01T19:53:12Z</time>
  <course>180.59</course>
  <speed>19.70012436508968</speed>
  <fix>3d</fix>
</trkpt>
<trkpt lat="-27.2788996" lon="151.2900265">
  <ele>402.03</ele>
  <time>2026-09-01T19:53:12Z</time>
  <course>180.24</course>
  <speed>19.9</speed>
  <fix>3d</fix>
</trkpt>
<trkpt lat="-27.2789338" lon="151.2900264">
  <ele>401.63</ele>
  <time>2026-09-01T19:53:12Z</time>
  <course>180.59</course>
  <speed>19.530125447625778</speed>
  <fix>3d</fix>
</trkpt>
<trkpt lat="-27.2788996" lon="151.2900265">
  <ele>402.03</ele>
  <time>2026-09-01T19:53:12Z</time>
  <course>180.24</course>
  <speed>19.9</speed>
  <fix>3d</fix>
</trkpt>
<trkpt lat="-27.2789513" lon="151.2900264">
  <ele>401.47</ele>
  <time>2026-09-01T19:53:12Z</time>
  <course>180.58</course>
  <speed>19.380126418576324</speed>
  <fix>3d</fix>
</trkpt>
<trkpt lat="-27.2789351" lon="151.2900263">
  <ele>401.72</ele>
  <time>2026-09-01T19:53:12Z</time>
  <course>180.23</course>
  <speed>19.57</speed>
  <fix>3d</fix>
</trkpt>
<trkpt lat="-27.2789687" lon="151.2900263">
  <ele>401.31</ele>
  <time>2026-09-01T19:53:12Z</time>
  <course>180.58</course>
  <speed>19.230127404674157</speed>
  <fix>3d</fix>
</trkpt>
<trkpt lat="-27.2789351" lon="151.2900263">
  <ele>401.72</ele>
  <time>2026-09-01T19:53:12Z</time>
  <course>180.23</course>
  <speed>19.57</speed>
  <fix>3d</fix>
</trkpt>
<trkpt lat="-27.278986" lon="151.2900262">
  <ele>401.15</ele>
  <time>2026-09-01T19:53:12Z</time>
  <course>180.58</course>
  <speed>19.080128406276515</speed>
  <fix>3d</fix>
</trkpt>
<trkpt lat="-27.27897" lon="151.2900262">
  <ele>401.41</ele>
  <time>2026-09-01T19:53:12Z</time>
  <course>180.23</course>
  <speed>19.26</speed>
  <fix>3d</fix>
</trkpt>
<trkpt lat="-27.2790032" lon="151.2900261">
  <ele>400.98</ele>
  <time>2026-09-01T19:53:12Z</time>
  <course>180.58</course>
  <speed>18.94012935541888</speed>
  <fix>3d</fix>
</trkpt>
<trkpt lat="-27.27897" lon="151.2900262">
  <ele>401.41</ele>
  <time>2026-09-01T19:53:12Z</time>
  <course>180.23</course>
  <speed>19.26</speed>
  <fix>3d</fix>
</trkpt>
<trkpt lat="-27.2790202" lon="151.290026">
  <ele>400.82</ele>
  <time>2026-09-01T19:53:12Z</time>
  <course>180.58</course>
  <speed>18.80013031869726</speed>
  <fix>3d</fix>
</trkpt>
<trkpt lat="-27.2790043" lon="151.290026">
  <ele>401.09</ele>
  <time>2026-09-01T19:53:12Z</time>
  <course>180.22</course>
  <speed>18.96</speed>
  <fix>3d</fix>
</trkpt>
<trkpt lat="-27.2790371" lon="151.290026">
  <ele>400.65</ele>
  <time>2026-09-01T19:53:12Z</time>
  <course>180.58</course>
  <speed>18.67013122610551</speed>
  <fix>3d</fix>
</trkpt>
<trkpt lat="-27.2790043" lon="151.290026">
  <ele>401.09</ele>
  <time>2026-09-01T19:53:12Z</time>
  <course>180.22</course>
  <speed>18.96</speed>
  <fix>3d</fix>
</trkpt>
<trkpt lat="-27.2790539" lon="151.2900259">
  <ele>400.48</ele>
  <time>2026-09-01T19:53:12Z</time>
  <course>180.58</course>
  <speed>18.54013214623887</speed>
  <fix>3d</fix>
</trkpt>
<trkpt lat="-27.2790382" lon="151.2900259">
  <ele>400.76</ele>
  <time>2026-09-01T19:53:12Z</time>
  <course>180.22</course>
  <speed>18.68</speed>
  <fix>3d</fix>
</trkpt>
<trkpt lat="-27.2790706" lon="151.2900258">
  <ele>400.31</ele>
  <time>2026-09-01T19:53:12Z</time>
  <course>180.58</course>
  <speed>18.420133007120224</speed>
  <fix>3d</fix>
</trkpt>
<trkpt lat="-27.2790382" lon="151.2900259">
  <ele>400.76</ele>
  <time>2026-09-01T19:53:12Z</time>
  <course>180.22</course>
  <speed>18.68</speed>
  <fix>3d</fix>
</trkpt>
<trkpt lat="-27.2790871" lon="151.2900257">
  <ele>400.14</ele>
  <time>2026-09-01T19:53:12Z</time>
  <course>180.58</course>
  <speed>18.29013395248925</speed>
  <fix>3d</fix>
</trkpt>
<trkpt lat="-27.2790716" lon="151.2900257">
  <ele>400.41</ele>
  <time>2026-09-01T19:53:12Z</time>
  <course>180.21</course>
  <speed>18.42</speed>
  <fix>3d</fix>
</trkpt>
<trkpt lat="-27.2791036" lon="151.2900257">
  <ele>399.96</ele>
  <time>2026-09-01T19:53:12Z</time>
  <course>180.58</course>
  <speed>18.180134762976866</speed>
  <fix>3d</fix>
</trkpt>
<trkpt lat="-27.2790716" lon="151.2900257">
  <ele>400.41</ele>
  <time>2026-09-01T19:53:12Z</time>
  <course>180.21</course>
  <speed>18.42</speed>
  <fix>3d</fix>
</trkpt>
<trkpt lat="-27.2791199" lon="151.2900256">
  <ele>399.78</ele>
  <time>2026-09-01T19:53:12Z</time>
  <course>180.58</course>
  <speed>18.060135658405226</speed>
  <fix>3d</fix>
</trkpt>
<trkpt lat="-27.2791045" lon="151.2900256">
  <ele>400.06</ele>
  <time>2026-09-01T19:53:12Z</time>
  <course>180.21</course>
  <speed>18.18</speed>
  <fix>3d</fix>
</trkpt>
<trkpt lat="-27.2791362" lon="151.2900255">
  <ele>399.6</ele>
  <time>2026-09-01T19:53:12Z</time>
  <course>180.58</course>
  <speed>17.95013648973177</speed>
  <fix>3d</fix>
</trkpt>
<trkpt lat="-27.2791045" lon="151.2900256">
  <ele>400.06</ele>
  <time>2026-09-01T19:53:12Z</time>
  <course>180.21</course>
  <speed>18.18</speed>
  <fix>3d</fix>
</trkpt>
<trkpt lat="-27.2791523" lon="151.2900254">
  <ele>399.42</ele>
  <time>2026-09-01T19:53:12Z</time>
  <course>180.58</course>
  <speed>17.850137254374264</speed>
  <fix>3d</fix>
</trkpt>
<trkpt lat="-27.2791369" lon="151.2900255">
  <ele>399.71</ele>
  <time>2026-09-01T19:53:12Z</time>
  <course>180.2</course>
  <speed>17.95</speed>
  <fix>3d</fix>
</trkpt>
<trkpt lat="-27.2791684" lon="151.2900254">
  <ele>399.23</ele>
  <time>2026-09-01T19:53:12Z</time>
  <course>180.58</course>
  <speed>17.740138105437623</speed>
  <fix>3d</fix>
</trkpt>
<trkpt lat="-27.2791369" lon="151.2900255">
  <ele>399.71</ele>
  <time>2026-09-01T19:53:12Z</time>
  <course>180.2</course>
  <speed>17.95</speed>
  <fix>3d</fix>
</trkpt>
<trkpt lat="-27.2791843" lon="151.2900253">
  <ele>399.04</ele>
  <time>2026-09-01T19:53:12Z</time>
  <course>180.58</course>
  <speed>17.640138888342122</speed>
  <fix>3d</fix>
</trkpt>
<trkpt lat="-27.2791689" lon="151.2900253">
  <ele>399.34</ele>
  <time>2026-09-01T19:53:12Z</time>
  <course>180.2</course>
  <speed>17.73</speed>
  <fix>3d</fix>
</trkpt>
<trkpt lat="-27.2792001" lon="151.2900252">
  <ele>398.85</ele>
  <time>2026-09-01T19:53:12Z</time>
  <course>180.58</course>
  <speed>17.550139600584377</speed>
  <fix>3d</fix>
</trkpt>
<trkpt lat="-27.2791689" lon="151.2900253">
  <ele>399.34</ele>
  <time>2026-09-01T19:53:12Z</time>
  <course>180.2</course>
  <speed>17.73</speed>
  <fix>3d</fix>
</trkpt>
<trkpt lat="-27.2792159" lon="151.2900252">
  <ele>398.67</ele>
  <time>2026-09-01T19:53:12Z</time>
  <course>180.58</course>
  <speed>17.460140320169252</speed>
  <fix>3d</fix>
</trkpt>
<trkpt lat="-27.2792006" lon="151.2900252">
  <ele>398.97</ele>
  <time>2026-09-01T19:53:12Z</time>
  <course>180.19</course>
  <speed>17.54</speed>
  <fix>3d</fix>
</trkpt>
<trkpt lat="-27.2792316" lon="151.2900251">
  <ele>398.5</ele>
  <time>2026-09-01T19:53:12Z</time>
  <course>180.58</course>
  <speed>17.360141128458604</speed>
  <fix>3d</fix>
</trkpt>
<trkpt lat="-27.2792006" lon="151.2900252">
  <ele>398.97</ele>
  <time>2026-09-01T19:53:12Z</time>
  <course>180.19</course>
  <speed>17.54</speed>
  <fix>3d</fix>
</trkpt>
<trkpt lat="-27.2792471" lon="151.290025">
  <ele>398.35</ele>
  <time>2026-09-01T19:53:12Z</time>
  <course>180.58</course>
  <speed>17.25010434751048</speed>
  <fix>3d</fix>
</trkpt>
<trkpt lat="-27.279232" lon="151.2900251">
  <ele>398.63</ele>
  <time>2026-09-01T19:53:12Z</time>
  <course>180.18</course>
  <speed>17.34</speed>
  <fix>3d</fix>
</trkpt>
<trkpt lat="-27.2792625" lon="151.290025">
  <ele>398.22</ele>
  <time>2026-09-01T19:53:12Z</time>
  <course>180.58</course>
  <speed>17.140105017181195</speed>
  <fix>3d</fix>
</trkpt>
<trkpt lat="-27.279232" lon="151.2900251">
  <ele>398.63</ele>
  <time>2026-09-01T19:53:12Z</time>
  <course>180.18</course>
  <speed>17.34</speed>
  <fix>3d</fix>
</trkpt>
<trkpt lat="-27.2792779" lon="151.2900249">
  <ele>398.09</ele>
  <time>2026-09-01T19:53:12Z</time>
  <course>180.58</course>
  <speed>17.02010575760327</speed>
  <fix>3d</fix>
</trkpt>
<trkpt lat="-27.2792629" lon="151.290025">
  <ele>398.34</ele>
  <time>2026-09-01T19:53:12Z</time>
  <course>180.17</course>
  <speed>17.12</speed>
  <fix>3d</fix>
</trkpt>
<trkpt lat="-27.2792931" lon="151.2900248">
  <ele>397.97</ele>
  <time>2026-09-01T19:53:12Z</time>
  <course>180.58</course>
  <speed>16.900106508540116</speed>
  <fix>3d</fix>
</trkpt>
<trkpt lat="-27.2792629" lon="151.290025">
  <ele>398.34</ele>
  <time>2026-09-01T19:53:12Z</time>
  <course>180.17</course>
  <speed>17.12</speed>
  <fix>3d</fix>
</trkpt>
<trkpt lat="-27.2793085" lon="151.2900248">
  <ele>397.87</ele>
  <time>2026-09-01T19:53:12Z</time>
  <course>180.57</course>
  <speed>16.780107270217314</speed>
  <fix>3d</fix>
</trkpt>
<trkpt lat="-27.2792935" lon="151.2900249">
  <ele>398.09</ele>
  <time>2026-09-01T19:53:12Z</time>
  <course>180.16</course>
  <speed>16.88</speed>
  <fix>3d</fix>
</trkpt>
<trkpt lat="-27.2793235" lon="151.2900247">
  <ele>397.77</ele>
  <time>2026-09-01T19:53:12Z</time>
  <course>180.57</course>
  <speed>16.650108107757138</speed>
  <fix>3d</fix>
</trkpt>
<trkpt lat="-27.2792935" lon="151.2900249">
  <ele>398.09</ele>
  <time>2026-09-01T19:53:12Z</time>
  <course>180.16</course>
  <speed>16.88</speed>
  <fix>3d</fix>
</trkpt>
<trkpt lat="-27.2793385" lon="151.2900247">
  <ele>397.68</ele>
  <time>2026-09-01T19:53:12Z</time>
  <course>180.57</course>
  <speed>16.520108958478453</speed>
  <fix>3d</fix>
</trkpt>
<trkpt lat="-27.2793236" lon="151.2900248">
  <ele>397.9</ele>
  <time>2026-09-01T19:53:12Z</time>
  <course>180.15</course>
  <speed>16.63</speed>
  <fix>3d</fix>
</trkpt>
<trkpt lat="-27.2793533" lon="151.2900246">
  <ele>397.61</ele>
  <time>2026-09-01T19:53:12Z</time>
  <course>180.57</course>
  <speed>16.390109822694907</speed>
  <fix>3d</fix>
</trkpt>
<trkpt lat="-27.2793236" lon="151.2900248">
  <ele>397.9</ele>
  <time>2026-09-01T19:53:12Z</time>
  <course>180.15</course>
  <speed>16.63</speed>
  <fix>3d</fix>
</trkpt>
<trkpt lat="-27.279368" lon="151.2900246">
  <ele>397.54</ele>
  <time>2026-09-01T19:53:12Z</time>
  <course>180.56</course>
  <speed>16.26007687558703</speed>
  <fix>3d</fix>
</trkpt>
<trkpt lat="-27.2793533" lon="151.2900247">
  <ele>397.74</ele>
  <time>2026-09-01T19:53:12Z</time>
  <course>180.13</course>
  <speed>16.37</speed>
  <fix>3d</fix>
</trkpt>
<trkpt lat="-27.2793825" lon="151.2900245">
  <ele>397.49</ele>
  <time>2026-09-01T19:53:13Z</time>
  <course>180.56</course>
  <speed>16.120077543237812</speed>
  <fix>3d</fix>
</trkpt>
<trkpt lat="-27.2793533" lon="151.2900247">
  <ele>397.74</ele>
  <time>2026-09-01T19:53:13Z</time>
  <course>180.13</course>
  <speed>16.37</speed>
  <fix>3d</fix>
</trkpt>
<trkpt lat="-27.279397" lon="151.2900245">
  <ele>397.44</ele>
  <time>2026-09-01T19:53:13Z</time>
  <course>180.56</course>
  <speed>15.990078173667568</speed>
  <fix>3d</fix>
</trkpt>
<trkpt lat="-27.2793825" lon="151.2900246">
  <ele>397.62</ele>
  <time>2026-09-01T19:53:13Z</time>
  <course>180.12</course>
  <speed>16.1</speed>
  <fix>3d</fix>
</trkpt>
<trkpt lat="-27.2794112" lon="151.2900245">
  <ele>397.4</ele>
  <time>2026-09-01T19:53:13Z</time>
  <course>180.55</course>
  <speed>15.850078864157112</speed>
  <fix>3d</fix>
</trkpt>
<trkpt lat="-27.2793825" lon="151.2900246">
  <ele>397.62</ele>
  <time>2026-09-01T19:53:13Z</time>
  <course>180.12</course>
  <speed>16.1</speed>
  <fix>3d</fix>
</trkpt>
<trkpt lat="-27.2794254" lon="151.2900244">
  <ele>397.36</ele>
  <time>2026-09-01T19:53:13Z</time>
  <course>180.55</course>
  <speed>15.710079566953187</speed>
  <fix>3d</fix>
</trkpt>
<trkpt lat="-27.2794112" lon="151.2900245">
  <ele>397.53</ele>
  <time>2026-09-01T19:53:13Z</time>
  <course>180.1</course>
  <speed>15.83</speed>
  <fix>3d</fix>
</trkpt>
<trkpt lat="-27.2794394" lon="151.2900244">
  <ele>397.33</ele>
  <time>2026-09-01T19:53:13Z</time>
  <course>180.54</course>
  <speed>15.570051380775851</speed>
  <fix>3d</fix>
</trkpt>
<trkpt lat="-27.2794112" lon="151.2900245">
  <ele>397.53</ele>
  <time>2026-09-01T19:53:13Z</time>
  <course>180.1</course>
  <speed>15.83</speed>
  <fix>3d</fix>
</trkpt>
<trkpt lat="-27.2794532" lon="151.2900243">
  <ele>397.31</ele>
  <time>2026-09-01T19:53:13Z</time>
  <course>180.54</course>
  <speed>15.420051880587174</speed>
  <fix>3d</fix>
</trkpt>
<trkpt lat="-27.2794394" lon="151.2900245">
  <ele>397.46</ele>
  <time>2026-09-01T19:53:13Z</time>
  <course>180.09</course>
  <speed>15.56</speed>
  <fix>3d</fix>
</trkpt>
<trkpt lat="-27.279467" lon="151.2900243">
  <ele>397.29</ele>
  <time>2026-09-01T19:53:13Z</time>
  <course>180.53</course>
  <speed>15.290052321689421</speed>
  <fix>3d</fix>
</trkpt>
<trkpt lat="-27.2794394" lon="151.2900245">
  <ele>397.46</ele>
  <time>2026-09-01T19:53:13Z</time>
  <course>180.09</course>
  <speed>15.56</speed>
  <fix>3d</fix>
</trkpt>
<trkpt lat="-27.2794806" lon="151.2900243">
  <ele>397.27</ele>
  <time>2026-09-01T19:53:13Z</time>
  <course>180.53</course>
  <speed>15.19005266613648</speed>
  <fix>3d</fix>
</trkpt>
<trkpt lat="-27.2794671" lon="151.2900244">
  <ele>397.41</ele>
  <time>2026-09-01T19:53:13Z</time>
  <course>180.07</course>
  <speed>15.31</speed>
  <fix>3d</fix>
</trkpt>
<trkpt lat="-27.2794942" lon="151.2900243">
  <ele>397.25</ele>
  <time>2026-09-01T19:53:13Z</time>
  <course>180.53</course>
  <speed>15.150052805188501</speed>
  <fix>3d</fix>
</trkpt>
<trkpt lat="-27.2794671" lon="151.2900244">
  <ele>397.41</ele>
  <time>2026-09-01T19:53:13Z</time>
  <course>180.07</course>
  <speed>15.31</speed>
  <fix>3d</fix>
</trkpt>
<trkpt lat="-27.2795077" lon="151.2900242">
  <ele>397.24</ele>
  <time>2026-09-01T19:53:13Z</time>
  <course>180.56</course>
  <speed>15.180052700830784</speed>
  <fix>3d</fix>
</trkpt>
<trkpt lat="-27.2794945" lon="151.2900244">
  <ele>397.38</ele>
  <time>2026-09-01T19:53:13Z</time>
  <course>180.06</course>
  <speed>15.18</speed>
  <fix>3d</fix>
</trkpt>
<trkpt lat="-27.2795214" lon="151.2900242">
  <ele>397.24</ele>
  <time>2026-09-01T19:53:13Z</time>
  <course>180.57</course>
  <speed>15.260052424549531</speed>
  <fix>3d</fix>
</trkpt>
<trkpt lat="-27.2794945" lon="151.2900244">
  <ele>397.38</ele>
  <time>2026-09-01T19:53:13Z</time>
  <course>180.06</course>
  <speed>15.18</speed>
  <fix>3d</fix>
</trkpt>
<trkpt lat="-27.2795351" lon="151.2900242">
  <ele>397.24</ele>
  <time>2026-09-01T19:53:13Z</time>
  <course>180.56</course>
  <speed>15.39005198171858</speed>
  <fix>3d</fix>
</trkpt>
<trkpt lat="-27.2795218" lon="151.2900244">
  <ele>397.36</ele>
  <time>2026-09-01T19:53:13Z</time>
  <course>180.04</course>
  <speed>15.28</speed>
  <fix>3d</fix>
</trkpt>
<trkpt lat="-27.279549" lon="151.2900242">
  <ele>397.24</ele>
  <time>2026-09-01T19:53:13Z</time>
  <course>180.56</course>
  <speed>15.590051314861025</speed>
  <fix>3d</fix>
</trkpt>
<trkpt lat="-27.2795218" lon="151.2900244">
  <ele>397.36</ele>
  <time>2026-09-01T19:53:13Z</time>
  <course>180.04</course>
  <speed>15.28</speed>
  <fix>3d</fix>
</trkpt>
<trkpt lat="-27.2795629" lon="151.2900241">
  <ele>397.25</ele>
  <time>2026-09-01T19:53:13Z</time>
  <course>180.57</course>
  <speed>15.840050504969987</speed>
  <fix>3d</fix>
</trkpt>
<trkpt lat="-27.2795495" lon="151.2900244">
  <ele>397.36</ele>
  <time>2026-09-01T19:53:13Z</time>
  <course>180.03</course>
  <speed>15.61</speed>
  <fix>3d</fix>
</trkpt>
<trkpt lat="-27.2795772" lon="151.2900241">
  <ele>397.26</ele>
  <time>2026-09-01T19:53:13Z</time>
  <course>180.64</course>
  <speed>16.14007744715</speed>
  <fix>3d</fix>
</trkpt>
<trkpt lat="-27.2795495" lon="151.2900244">
  <ele>397.36</ele>
  <time>2026-09-01T19:53:13Z</time>
  <course>180.03</course>
  <speed>15.61</speed>
  <fix>3d</fix>
</trkpt>
<trkpt lat="-27.2795919" lon="151.2900241">
  <ele>397.28</ele>
  <time>2026-09-01T19:53:13Z</time>
  <course>180.61</course>
  <speed>16.460075941501607</speed>
  <fix>3d</fix>
</trkpt>
<trkpt lat="-27.2795781" lon="151.2900244">
  <ele>397.38</ele>
  <time>2026-09-01T19:53:13Z</time>
  <course>180.03</course>
  <speed>16.15</speed>
  <fix>3d</fix>
</trkpt>
<trkpt lat="-27.2796068" lon="151.2900241">
  <ele>397.3</ele>
  <time>2026-09-01T19:53:13Z</time>
  <course>180.54</course>
  <speed>16.780074493279223</speed>
  <fix>3d</fix>
</trkpt>
<trkpt lat="-27.2795781" lon="151.2900244">
  <ele>397.38</ele>
  <time>2026-09-01T19:53:13Z</time>
  <course>180.03</course>
  <speed>16.15</speed>
  <fix>3d</fix>
</trkpt>
<trkpt lat="-27.2796221" lon="151.290024">
  <ele>397.32</ele>
  <time>2026-09-01T19:53:13Z</time>
  <course>180.48</course>
  <speed>17.090105324426762</speed>
  <fix>3d</fix>
</trkpt>
<trkpt lat="-27.2796076" lon="151.2900243">
  <ele>397.41</ele>
  <time>2026-09-01T19:53:13Z</time>
  <course>180.03</course>
  <speed>16.77</speed>
  <fix>3d</fix>
</trkpt>
<trkpt lat="-27.2796375" lon="151.290024">
  <ele>397.34</ele>
  <time>2026-09-01T19:53:13Z</time>
  <course>180.4</course>
  <speed>17.390071880242473</speed>
  <fix>3d</fix>
</trkpt>
<trkpt lat="-27.2796076" lon="151.2900243">
  <ele>397.41</ele>
  <time>2026-09-01T19:53:13Z</time>
  <course>180.03</course>
  <speed>16.77</speed>
  <fix>3d</fix>
</trkpt>
<trkpt lat="-27.2796532" lon="151.290024">
  <ele>397.36</ele>
  <time>2026-09-01T19:53:13Z</time>
  <course>180.43</course>
  <speed>17.69007066124949</speed>
  <fix>3d</fix>
</trkpt>
<trkpt lat="-27.2796383" lon="151.2900243">
  <ele>397.46</ele>
  <time>2026-09-01T19:53:13Z</time>
  <course>180.02</course>
  <speed>17.39</speed>
  <fix>3d</fix>
</trkpt>
<trkpt lat="-27.2796698" lon="151.290024">
  <ele>397.39</ele>
  <time>2026-09-01T19:53:13Z</time>
  <course>180.5</course>
  <speed>17.990069482911952</speed>
  <fix>3d</fix>
</trkpt>
<trkpt lat="-27.2796383" lon="151.2900243">
  <ele>397.46</ele>
  <time>2026-09-01T19:53:13Z</time>
  <course>180.02</course>
  <speed>17.39</speed>
  <fix>3d</fix>
</trkpt>
<trkpt lat="-27.2796859" lon="151.290024">
  <ele>397.42</ele>
  <time>2026-09-01T19:53:13Z</time>
  <course>180.51</course>
  <speed>18.27006841804376</speed>
  <fix>3d</fix>
</trkpt>
<trkpt lat="-27.2796701" lon="151.2900243">
  <ele>397.5</ele>
  <time>2026-09-01T19:53:13Z</time>
  <course>179.99</course>
  <speed>17.99</speed>
  <fix>3d</fix>
</trkpt>
<trkpt lat="-27.2797024" lon="151.290024">
  <ele>397.44</ele>
  <time>2026-09-01T19:53:13Z</time>
  <course>180.48</course>
  <speed>18.55006738532235</speed>
  <fix>3d</fix>
</trkpt>
<trkpt lat="-27.2796701" lon="151.2900243">
  <ele>397.5</ele>
  <time>2026-09-01T19:53:13Z</time>
  <course>179.99</course>
  <speed>17.99</speed>
  <fix>3d</fix>
</trkpt>
<trkpt lat="-27.2797189" lon="151.2900239">
  <ele>397.47</ele>
  <time>2026-09-01T19:53:13Z</time>
  <course>180.43</course>
  <speed>18.820066418586308</speed>
  <fix>3d</fix>
</trkpt>
<trkpt lat="-27.279703" lon="151.2900243">
  <ele>397.56</ele>
  <time>2026-09-01T19:53:13Z</time>
  <course>179.99</course>
  <speed>18.55</speed>
  <fix>3d</fix>
</trkpt>
<trkpt lat="-27.2797359" lon="151.2900239">
  <ele>397.49</ele>
  <time>2026-09-01T19:53:13Z</time>
  <course>180.33</course>
  <speed>19.08006551351436</speed>
  <fix>3d</fix>
</trkpt>
<trkpt lat="-27.279703" lon="151.2900243">
  <ele>397.56</ele>
  <time>2026-09-01T19:53:13Z</time>
  <course>179.99</course>
  <speed>18.55</speed>
  <fix>3d</fix>
</trkpt>
<trkpt lat="-27.2797531" lon="151.2900239">
  <ele>397.52</ele>
  <time>2026-09-01T19:53:13Z</time>
  <course>180.24</course>
  <speed>19.330041386401632</speed>
  <fix>3d</fix>
</trkpt>
<trkpt lat="-27.2797368" lon="151.2900243">
  <ele>397.61</ele>
  <time>2026-09-01T19:53:13Z</time>
  <course>179.97</course>
  <speed>19.09</speed>
  <fix>3d</fix>
</trkpt>
<trkpt lat="-27.2797706" lon="151.2900239">
  <ele>397.55</ele>
  <time>2026-09-01T19:53:13Z</time>
  <course>180.22</course>
  <speed>19.590022970890054</speed>
  <fix>3d</fix>
</trkpt>
<trkpt lat="-27.2797368" lon="151.2900243">
  <ele>397.61</ele>
  <time>2026-09-01T19:53:13Z</time>
  <course>179.97</course>
  <speed>19.09</speed>
  <fix>3d</fix>
</trkpt>
<trkpt lat="-27.2797883" lon="151.290024">
  <ele>397.57</ele>
  <time>2026-09-01T19:53:13Z</time>
  <course>180.21</course>
  <speed>19.83001008572613</speed>
  <fix>3d</fix>
</trkpt>
<trkpt lat="-27.2797716" lon="151.2900243">
  <ele>397.66</ele>
  <time>2026-09-01T19:53:13Z</time>
  <course>179.92</course>
  <speed>19.6</speed>
  <fix>3d</fix>
</trkpt>
<trkpt lat="-27.2798062" lon="151.290024">
  <ele>397.6</ele>
  <time>2026-09-01T19:53:13Z</time>
  <course>180.3</course>
  <speed>20.070002491280363</speed>
  <fix>3d</fix>
</trkpt>
<trkpt lat="-27.2797716" lon="151.2900243">
  <ele>397.66</ele>
  <time>2026-09-01T19:53:13Z</time>
  <course>179.92</course>
  <speed>19.6</speed>
  <fix>3d</fix>
</trkpt>
<trkpt lat="-27.2798243" lon="151.290024">
  <ele>397.64</ele>
  <time>2026-09-01T19:53:13Z</time>
  <course>180.41</course>
  <speed>20.310002461841307</speed>
  <fix>3d</fix>
</trkpt>
<trkpt lat="-27.2798073" lon="151.2900243">
  <ele>397.72</ele>
  <time>2026-09-01T19:53:13Z</time>
  <course>179.88</course>
  <speed>20.1</speed>
  <fix>3d</fix>
</trkpt>
<trkpt lat="-27.2798426" lon="151.2900241">
  <ele>397.67</ele>
  <time>2026-09-01T19:53:13Z</time>
  <course>180.36</course>
  <speed>20.530002435460155</speed>
  <fix>3d</fix>
</trkpt>
<trkpt lat="-27.2798073" lon="151.2900243">
  <ele>397.72</ele>
  <time>2026-09-01T19:53:13Z</time>
  <course>179.88</course>
  <speed>20.1</speed>
  <fix>3d</fix>
</trkpt>
<trkpt lat="-27.2798612" lon="151.2900241">
  <ele>397.72</ele>
  <time>2026-09-01T19:53:13Z</time>
  <course>180.32</course>
  <speed>20.750002409638412</speed>
  <fix>3d</fix>
</trkpt>
<trkpt lat="-27.2798438" lon="151.2900244">
  <ele>397.78</ele>
  <time>2026-09-01T19:53:13Z</time>
  <course>179.86</course>
  <speed>20.56</speed>
  <fix>3d</fix>
</trkpt>
<trkpt lat="-27.2798799" lon="151.2900241">
  <ele>397.76</ele>
  <time>2026-09-01T19:53:13Z</time>
  <course>180.31</course>
  <speed>20.970002384358473</speed>
  <fix>3d</fix>
</trkpt>
<trkpt lat="-27.2798438" lon="151.2900244">
  <ele>397.78</ele>
  <time>2026-09-01T19:53:13Z</time>
  <course>179.86</course>
  <speed>20.56</speed>
  <fix>3d</fix>
</trkpt>
<trkpt lat="-27.2798987" lon="151.2900241">
  <ele>397.81</ele>
  <time>2026-09-01T19:53:13Z</time>
  <course>180.27</course>
  <speed>21.170002361832648</speed>
  <fix>3d</fix>
</trkpt>
<trkpt lat="-27.2798811" lon="151.2900245">
  <ele>397.87</ele>
  <time>2026-09-01T19:53:13Z</time>
  <course>179.87</course>
  <speed>21.0</speed>
  <fix>3d</fix>
</trkpt>
<trkpt lat="-27.2799178" lon="151.2900241">
  <ele>397.86</ele>
  <time>2026-09-01T19:53:13Z</time>
  <course>180.31</course>
  <speed>21.37000233972846</speed>
  <fix>3d</fix>
</trkpt>
<trkpt lat="-27.2798811" lon="151.2900245">
  <ele>397.87</ele>
  <time>2026-09-01T19:53:13Z</time>
  <course>179.87</course>
  <speed>21.0</speed>
  <fix>3d</fix>
</trkpt>
<trkpt lat="-27.2799371" lon="151.2900242">
  <ele>397.91</ele>
  <time>2026-09-01T19:53:13Z</time>
  <course>180.3</course>
  <speed>21.57000231803418</speed>
  <fix>3d</fix>
</trkpt>
<trkpt lat="-27.2799192" lon="151.2900246">
  <ele>397.96</ele>
  <time>2026-09-01T19:53:13Z</time>
  <course>179.87</course>
  <speed>21.41</speed>
  <fix>3d</fix>
</trkpt>
<trkpt lat="-27.2799565" lon="151.2900242">
  <ele>397.97</ele>
  <time>2026-09-01T19:53:13Z</time>
  <course>180.31</course>
  <speed>21.760009191174532</speed>
  <fix>3d</fix>
</trkpt>
<trkpt lat="-27.2799192" lon="151.2900246">
  <ele>397.96</ele>
  <time>2026-09-01T19:53:13Z</time>
  <course>179.87</course>
  <speed>21.41</speed>
  <fix>3d</fix>
</trkpt>
<trkpt lat="-27.2799761" lon="151.2900242">
  <ele>398.03</ele>
  <time>2026-09-01T19:53:13Z</time>
  <course>180.26</course>
  <speed>21.94000227894245</speed>
  <fix>3d</fix>
</trkpt>
<trkpt lat="-27.2799581" lon="151.2900247">
  <ele>398.07</ele>
  <time>2026-09-01T19:53:13Z</time>
  <course>179.89</course>
  <speed>21.8</speed>
  <fix>3d</fix>
</trkpt>
<trkpt lat="-27.2799961" lon="151.2900243">
  <ele>398.1</ele>
  <time>2026-09-01T19:53:13Z</time>
  <course>180.19</course>
  <speed>22.130002259376298</speed>
  <fix>3d</fix>
</trkpt>
<trkpt lat="-27.2799581" lon="151.2900247">
  <ele>398.07</ele>
  <time>2026-09-01T19:53:13Z</time>
  <course>179.89</course>
  <speed>21.8</speed>
  <fix>3d</fix>
</trkpt>
<trkpt lat="-27.2800161" lon="151.2900243">
  <ele>398.16</ele>
  <time>2026-09-01T19:53:13Z</time>
  <course>180.21</course>
  <speed>22.300002242152356</speed>
  <fix>3d</fix>
</trkpt>
<trkpt lat="-27.2799976" lon="151.2900247">
  <ele>398.19</ele>
  <time>2026-09-01T19:53:13Z</time>
  <course>179.89</course>
  <speed>22.17</speed>
  <fix>3d</fix>
</trkpt>
<trkpt lat="-27.2800369" lon="151.2900244">
  <ele>398.24</ele>
  <time>2026-09-01T19:53:13Z</time>
  <course>180.24</course>
  <speed>22.47000222518903</speed>
  <fix>3d</fix>
</trkpt>
<trkpt lat="-27.2799976" lon="151.2900247">
  <ele>398.19</ele>
  <time>2026-09-01T19:53:13Z</time>
  <course>179.89</course>
  <speed>22.17</speed>
  <fix>3d</fix>
</trkpt>
<trkpt lat="-27.2800572" lon="151.2900244">
  <ele>398.31</ele>
  <time>2026-09-01T19:53:13Z</time>
  <course>180.21</course>
  <speed>22.64</speed>
  <fix>3d</fix>
</trkpt>
<trkpt lat="-27.2800378" lon="151.2900248">
  <ele>398.32</ele>
  <time>2026-09-01T19:53:13Z</time>
  <course>179.89</course>
  <speed>22.51</speed>
  <fix>3d</fix>
</trkpt>
<trkpt lat="-27.2800775" lon="151.2900245">
  <ele>398.38</ele>
  <time>2026-09-01T19:53:13Z</time>
  <course>180.2</course>
  <speed>22.79</speed>
  <fix>3d</fix>
</trkpt>
<trkpt lat="-27.2800378" lon="151.2900248">
  <ele>398.32</ele>
  <time>2026-09-01T19:53:13Z</time>
  <course>179.89</course>
  <speed>22.51</speed>
  <fix>3d</fix>
</trkpt>
<trkpt lat="-27.2800981" lon="151.2900245">
  <ele>398.46</ele>
  <time>2026-09-01T19:53:13Z</time>
  <course>180.19</course>
  <speed>22.95</speed>
  <fix>3d</fix>
</trkpt>
<trkpt lat="-27.2800785" lon="151.2900249">
  <ele>398.46</ele>
  <time>2026-09-01T19:53:13Z</time>
  <course>179.88</course>
  <speed>22.84</speed>
  <fix>3d</fix>
</trkpt>
<trkpt lat="-27.2801188" lon="151.2900246">
  <ele>398.54</ele>
  <time>2026-09-01T19:53:13Z</time>
  <course>180.16</course>
  <speed>23.1</speed>
  <fix>3d</fix>
</trkpt>
<trkpt lat="-27.2800785" lon="151.2900249">
  <ele>398.46</ele>
  <time>2026-09-01T19:53:13Z</time>
  <course>179.88</course>
  <speed>22.84</speed>
  <fix>3d</fix>
</trkpt>
<trkpt lat="-27.2801397" lon="151.2900246">
  <ele>398.62</ele>
  <time>2026-09-01T19:53:13Z</time>
  <course>180.12</course>
  <speed>23.25</speed>
  <fix>3d</fix>
</trkpt>
<trkpt lat="-27.2801199" lon="151.290025">
  <ele>398.61</ele>
  <time>2026-09-01T19:53:13Z</time>
  <course>179.88</course>
  <speed>23.14</speed>
  <fix>3d</fix>
</trkpt>
<trkpt lat="-27.2801609" lon="151.2900247">
  <ele>398.7</ele>
  <time>2026-09-01T19:53:13Z</time>
  <course>180.09</course>
  <speed>23.39</speed>
  <fix>3d</fix>
</trkpt>
<trkpt lat="-27.2801199" lon="151.290025">
  <ele>398.61</ele>
  <time>2026-09-01T19:53:13Z</time>
  <course>179.88</course>
  <speed>23.14</speed>
  <fix>3d</fix>
</trkpt>
<trkpt lat="-27.2801821" lon="151.2900247">
  <ele>398.78</ele>
  <time>2026-09-01T19:53:13Z</time>
  <course>180.15</course>
  <speed>23.530002124946783</speed>
  <fix>3d</fix>
</trkpt>
<trkpt lat="-27.2801617" lon="151.2900251">
  <ele>398.77</ele>
  <time>2026-09-01T19:53:13Z</time>
  <course>179.87</course>
  <speed>23.43</speed>
  <fix>3d</fix>
</trkpt>
<trkpt lat="-27.2802033" lon="151.2900248">
  <ele>398.87</ele>
  <time>2026-09-01T19:53:13Z</time>
  <course>180.16</course>
  <speed>23.660002113271247</speed>
  <fix>3d</fix>
</trkpt>
<trkpt lat="-27.2801617" lon="151.2900251">
  <ele>398.77</ele>
  <time>2026-09-01T19:53:13Z</time>
  <course>179.87</course>
  <speed>23.43</speed>
  <fix>3d</fix>
</trkpt>
<trkpt lat="-27.2802247" lon="151.2900248">
  <ele>398.96</ele>
  <time>2026-09-01T19:53:13Z</time>
  <course>180.14</course>
  <speed>23.79000210172332</speed>
  <fix>3d</fix>
</trkpt>
<trkpt lat="-27.280204" lon="151.2900252">
  <ele>398.94</ele>
  <time>2026-09-01T19:53:13Z</time>
  <course>179.86</course>
  <speed>23.69</speed>
  <fix>3d</fix>
</trkpt>
<trkpt lat="-27.2802462" lon="151.2900249">
  <ele>399.05</ele>
  <time>2026-09-01T19:53:13Z</time>
  <course>180.16</course>
  <speed>23.910002091175148</speed>
  <fix>3d</fix>
</trkpt>
<trkpt lat="-27.280204" lon="151.2900252">
  <ele>398.94</ele>
  <time>2026-09-01T19:53:13Z</time>
  <course>179.86</course>
  <speed>23.69</speed>
  <fix>3d</fix>
</trkpt>
<trkpt lat="-27.2802672" lon="151.290025">
  <ele>399.14</ele>
  <time>2026-09-01T19:53:13Z</time>
  <course>180.14</course>
  <speed>24.03000208073233</speed>
  <fix>3d</fix>
</trkpt>
<trkpt lat="-27.2802468" lon="151.2900253">
  <ele>399.12</ele>
  <time>2026-09-01T19:53:13Z</time>
  <course>179.87</course>
  <speed>23.95</speed>
  <fix>3d</fix>
</trkpt>
<trkpt lat="-27.2802889" lon="151.290025">
  <ele>399.24</ele>
  <time>2026-09-01T19:53:13Z</time>
  <course>180.17</course>
  <speed>24.150002070393285</speed>
  <fix>3d</fix>
</trkpt>
<trkpt lat="-27.2802468" lon="151.2900253">
  <ele>399.12</ele>
  <time>2026-09-01T19:53:13Z</time>
  <course>179.87</course>
  <speed>23.95</speed>
  <fix>3d</fix>
</trkpt>
<trkpt lat="-27.2803107" lon="151.2900251">
  <ele>399.34</ele>
  <time>2026-09-01T19:53:13Z</time>
  <course>180.21</course>
  <speed>24.270002060156486</speed>
  <fix>3d</fix>
</trkpt>
<trkpt lat="-27.2802901" lon="151.2900254">
  <ele>399.3</ele>
  <time>2026-09-01T19:53:13Z</time>
  <course>179.87</course>
  <speed>24.19</speed>
  <fix>3d</fix>
</trkpt>
<trkpt lat="-27.2803325" lon="151.2900251">
  <ele>399.43</ele>
  <time>2026-09-01T19:53:13Z</time>
  <course>180.18</course>
  <speed>24.380002050861275</speed>
  <fix>3d</fix>
</trkpt>
<trkpt lat="-27.2802901" lon="151.2900254">
  <ele>399.3</ele>
  <time>2026-09-01T19:53:13Z</time>
  <course>179.87</course>
  <speed>24.19</speed>
  <fix>3d</fix>
</trkpt>
<trkpt lat="-27.2803545" lon="151.2900252">
  <ele>399.53</ele>
  <time>2026-09-01T19:53:13Z</time>
  <course>180.07</course>
  <speed>24.490002041649568</speed>
  <fix>3d</fix>
</trkpt>
<trkpt lat="-27.2803337" lon="151.2900255">
  <ele>399.49</ele>
  <time>2026-09-01T19:53:13Z</time>
  <course>179.87</course>
  <speed>24.42</speed>
  <fix>3d</fix>
</trkpt>
<trkpt lat="-27.2803766" lon="151.2900253">
  <ele>399.63</ele>
  <time>2026-09-01T19:53:13Z</time>
  <course>179.97</course>
  <speed>24.60000813007996</speed>
  <fix>3d</fix>
</trkpt>
<trkpt lat="-27.2803337" lon="151.2900255">
  <ele>399.49</ele>
  <time>2026-09-01T19:53:13Z</time>
  <course>179.87</course>
  <speed>24.42</speed>
  <fix>3d</fix>
</trkpt>
<trkpt lat="-27.2803988" lon="151.2900253">
  <ele>399.74</ele>
  <time>2026-09-01T19:53:13Z</time>
  <course>180.03</course>
  <speed>24.700018218616766</speed>
  <fix>3d</fix>
</trkpt>
<trkpt lat="-27.2803777" lon="151.2900257">
  <ele>399.69</ele>
  <time>2026-09-01T19:53:13Z</time>
  <course>179.86</course>
  <speed>24.63</speed>
  <fix>3d</fix>
</trkpt>
<trkpt lat="-27.2804214" lon="151.2900254">
  <ele>399.84</ele>
  <time>2026-09-01T19:53:13Z</time>
  <course>180.01</course>
  <speed>24.81003224504152</speed>
  <fix>3d</fix>
</trkpt>
<trkpt lat="-27.2803777" lon="151.2900257">
  <ele>399.69</ele>
  <time>2026-09-01T19:53:13Z</time>
  <course>179.86</course>
  <speed>24.63</speed>
  <fix>3d</fix>
</trkpt>
<trkpt lat="-27.2804437" lon="151.2900255">
  <ele>399.95</ele>
  <time>2026-09-01T19:53:13Z</time>
  <course>180.03</course>
  <speed>24.90003212849333</speed>
  <fix>3d</fix>
</trkpt>
<trkpt lat="-27.2804221" lon="151.2900258">
  <ele>399.89</ele>
  <time>2026-09-01T19:53:13Z</time>
  <course>179.83</course>
  <speed>24.83</speed>
  <fix>3d</fix>
</trkpt>
<trkpt lat="-27.2804662" lon="151.2900256">
  <ele>400.05</ele>
  <time>2026-09-01T19:53:13Z</time>
  <course>180.08</course>
  <speed>25.00003199997952</speed>
  <fix>3d</fix>
</trkpt>
<trkpt lat="-27.2804221" lon="151.2900258">
  <ele>399.89</ele>
  <time>2026-09-01T19:53:13Z</time>
  <course>179.83</course>
  <speed>24.83</speed>
  <fix>3d</fix>
</trkpt>
<trkpt lat="-27.2804895" lon="151.2900256">
  <ele>400.16</ele>
  <time>2026-09-01T19:53:13Z</time>
  <course>180.13</course>
  <speed>25.09001793542603</speed>
  <fix>3d</fix>
</trkpt>
<trkpt lat="-27.280467" lon="151.2900259">
  <ele>400.1</ele>
  <time>2026-09-01T19:53:13Z</time>
  <course>179.83</course>
  <speed>25.01</speed>
  <fix>3d</fix>
</trkpt>
<trkpt lat="-27.280512" lon="151.2900257">
  <ele>400.27</ele>
  <time>2026-09-01T19:53:13Z</time>
  <course>180.11</course>
  <speed>25.180017871320107</speed>
  <fix>3d</fix>
</trkpt>
<trkpt lat="-27.280467" lon="151.2900259">
  <ele>400.1</ele>
  <time>2026-09-01T19:53:13Z</time>
  <course>179.83</course>
  <speed>25.01</speed>
  <fix>3d</fix>
</trkpt>
<trkpt lat="-27.2805347" lon="151.2900258">
  <ele>400.38</ele>
  <time>2026-09-01T19:53:13Z</time>
  <course>180.07</course>
  <speed>25.26001781472056</speed>
  <fix>3d</fix>
</trkpt>
<trkpt lat="-27.2805122" lon="151.290026">
  <ele>400.31</ele>
  <time>2026-09-01T19:53:13Z</time>
  <course>179.83</course>
  <speed>25.18</speed>
  <fix>3d</fix>
</trkpt>
<trkpt lat="-27.2805575" lon="151.2900259">
  <ele>400.49</ele>
  <time>2026-09-01T19:53:13Z</time>
  <course>179.99</course>
  <speed>25.34001775847839</speed>
  <fix>3d</fix>
</trkpt>
<trkpt lat="-27.2805122" lon="151.290026">
  <ele>400.31</ele>
  <time>2026-09-01T19:53:13Z</time>
  <course>179.83</course>
  <speed>25.18</speed>
  <fix>3d</fix>
</trkpt>
<trkpt lat="-27.2805803" lon="151.2900259">
  <ele>400.6</ele>
  <time>2026-09-01T19:53:13Z</time>
  <course>180.05</course>
  <speed>25.420017702590215</speed>
  <fix>3d</fix>
</trkpt>
<trkpt lat="-27.2805576" lon="151.2900262">
  <ele>400.52</ele>
  <time>2026-09-01T19:53:13Z</time>
  <course>179.83</course>
  <speed>25.34</speed>
  <fix>3d</fix>
</trkpt>
<trkpt lat="-27.2806032" lon="151.290026">
  <ele>400.7</ele>
  <time>2026-09-01T19:53:13Z</time>
  <course>180.12</course>
  <speed>25.50003137252972</speed>
  <fix>3d</fix>
</trkpt>
<trkpt lat="-27.2805576" lon="151.2900262">
  <ele>400.52</ele>
  <time>2026-09-01T19:53:13Z</time>
  <course>179.83</course>
  <speed>25.34</speed>
  <fix>3d</fix>
</trkpt>
<trkpt lat="-27.2806264" lon="151.2900261">
  <ele>400.81</ele>
  <time>2026-09-01T19:53:13Z</time>
  <course>180.14</course>
  <speed>25.570017598742478</speed>
  <fix>3d</fix>
</trkpt>
<trkpt lat="-27.2806033" lon="151.2900263">
  <ele>400.74</ele>
  <time>2026-09-01T19:53:13Z</time>
  <course>179.84</course>
  <speed>25.5</speed>
  <fix>3d</fix>
</trkpt>
<trkpt lat="-27.2806495" lon="151.2900261">
  <ele>400.92</ele>
  <time>2026-09-01T19:53:13Z</time>
  <course>180.07</course>
  <speed>25.64001755069602</speed>
  <fix>3d</fix>
</trkpt>
<trkpt lat="-27.2806033" lon="151.2900263">
  <ele>400.74</ele>
  <time>2026-09-01T19:53:13Z</time>
  <course>179.84</course>
  <speed>25.5</speed>
  <fix>3d</fix>
</trkpt>
<trkpt lat="-27.2806726" lon="151.2900262">
  <ele>401.03</ele>
  <time>2026-09-01T19:53:13Z</time>
  <course>180.05</course>
  <speed>25.720007776048593</speed>
  <fix>3d</fix>
</trkpt>
<trkpt lat="-27.2806492" lon="151.2900265">
  <ele>400.96</ele>
  <time>2026-09-01T19:53:13Z</time>
  <course>179.86</course>
  <speed>25.64</speed>
  <fix>3d</fix>
</trkpt>
<trkpt lat="-27.2806958" lon="151.2900262">
  <ele>401.15</ele>
  <time>2026-09-01T19:53:13Z</time>
  <course>180.03</course>
  <speed>25.790017448617597</speed>
  <fix>3d</fix>
</trkpt>
<trkpt lat="-27.2806492" lon="151.2900265">
  <ele>400.96</ele>
  <time>2026-09-01T19:53:13Z</time>
  <course>179.86</course>
  <speed>25.64</speed>
  <fix>3d</fix>
</trkpt>
<trkpt lat="-27.280719" lon="151.2900263">
  <ele>401.26</ele>
  <time>2026-09-01T19:53:13Z</time>
  <course>180.06</course>
  <speed>25.850017408117928</speed>
  <fix>3d</fix>
</trkpt>
<trkpt lat="-27.2806954" lon="151.2900266">
  <ele>401.19</ele>
  <time>2026-09-01T19:53:13Z</time>
  <course>179.86</course>
  <speed>25.78</speed>
  <fix>3d</fix>
</trkpt>
<trkpt lat="-27.2807424" lon="151.2900264">
  <ele>401.37</ele>
  <time>2026-09-01T19:53:13Z</time>
  <course>180.13</course>
  <speed>25.910017367805835</speed>
  <fix>3d</fix>
</trkpt>
<trkpt lat="-27.2806954" lon="151.2900266">
  <ele>401.19</ele>
  <time>2026-09-01T19:53:13Z</time>
  <course>179.86</course>
  <speed>25.78</speed>
  <fix>3d</fix>
</trkpt>
<trkpt lat="-27.2807657" lon="151.2900264">
  <ele>401.48</ele>
  <time>2026-09-01T19:53:13Z</time>
  <course>180.07</course>
  <speed>25.97001732768001</speed>
  <fix>3d</fix>
</trkpt>
<trkpt lat="-27.2807418" lon="151.2900267">
  <ele>401.41</ele>
  <time>2026-09-01T19:53:13Z</time>
  <course>179.86</course>
  <speed>25.9</speed>
  <fix>3d</fix>
</trkpt>
<trkpt lat="-27.2807892" lon="151.2900265">
  <ele>401.6</ele>
  <time>2026-09-01T19:53:13Z</time>
  <course>180.07</course>
  <speed>26.04001728110026</speed>
  <fix>3d</fix>
</trkpt>
<trkpt lat="-27.2807418" lon="151.2900267">
  <ele>401.41</ele>
  <time>2026-09-01T19:53:13Z</time>
  <course>179.86</course>
  <speed>25.9</speed>
  <fix>3d</fix>
</trkpt>
<trkpt lat="-27.2808126" lon="151.2900266">
  <ele>401.71</ele>
  <time>2026-09-01T19:53:13Z</time>
  <course>180.08</course>
  <speed>26.100017241373617</speed>
  <fix>3d</fix>
</trkpt>
<trkpt lat="-27.2807885" lon="151.2900268">
  <ele>401.64</ele>
  <time>2026-09-01T19:53:13Z</time>
  <course>179.86</course>
  <speed>26.02</speed>
  <fix>3d</fix>
</trkpt>
<trkpt lat="-27.2808362" lon="151.2900266">
  <ele>401.81</ele>
  <time>2026-09-01T19:53:13Z</time>
  <course>180.1</course>
  <speed>26.180017188688016</speed>
  <fix>3d</fix>
</trkpt>
<trkpt lat="-27.2807885" lon="151.2900268">
  <ele>401.64</ele>
  <time>2026-09-01T19:53:13Z</time>
  <course>179.86</course>
  <speed>26.02</speed>
  <fix>3d</fix>
</trkpt>
<trkpt lat="-27.2808598" lon="151.2900267">
  <ele>401.88</ele>
  <time>2026-09-01T19:53:13Z</time>
  <course>180.11</course>
  <speed>26.260007616145128</speed>
  <fix>3d</fix>
</trkpt>
<trkpt lat="-27.2808353" lon="151.290027">
  <ele>401.84</ele>
  <time>2026-09-01T19:53:13Z</time>
  <course>179.87</course>
  <speed>26.16</speed>
  <fix>3d</fix>
</trkpt>
<trkpt lat="-27.2808827" lon="151.2900267">
  <ele>401.93</ele>
  <time>2026-09-01T19:53:13Z</time>
  <course>180.05</course>
  <speed>26.340007593013333</speed>
  <fix>3d</fix>
</trkpt>
<trkpt lat="-27.2808353" lon="151.290027">
  <ele>401.84</ele>
  <time>2026-09-01T19:53:13Z</time>
  <course>179.87</course>
  <speed>26.16</speed>
  <fix>3d</fix>
</trkpt>
<trkpt lat="-27.2809066" lon="151.2900268">
  <ele>401.98</ele>
  <time>2026-09-01T19:53:13Z</time>
  <course>180.07</course>
  <speed>26.420007570021625</speed>
  <fix>3d</fix>
</trkpt>
<trkpt lat="-27.2808824" lon="151.2900271">
  <ele>401.97</ele>
  <time>2026-09-01T19:53:13Z</time>
  <course>179.88</course>
  <speed>26.32</speed>
  <fix>3d</fix>
</trkpt>
<trkpt lat="-27.2809303" lon="151.2900268">
  <ele>402.02</ele>
  <time>2026-09-01T19:53:13Z</time>
  <course>180.11</course>
  <speed>26.40000757575649</speed>
  <fix>3d</fix>
</trkpt>
<trkpt lat="-27.2808824" lon="151.2900271">
  <ele>401.97</ele>
  <time>2026-09-01T19:53:13Z</time>
  <course>179.88</course>
  <speed>26.32</speed>
  <fix>3d</fix>
</trkpt>
<trkpt lat="-27.2809539" lon="151.2900269">
  <ele>402.05</ele>
  <time>2026-09-01T19:53:13Z</time>
  <course>180.13</course>
  <speed>26.220001906941196</speed>
  <fix>3d</fix>
</trkpt>
<trkpt lat="-27.2809298" lon="151.2900272">
  <ele>402.06</ele>
  <time>2026-09-01T19:53:13Z</time>
  <course>179.89</course>
  <speed>26.31</speed>
  <fix>3d</fix>
</trkpt>
<trkpt lat="-27.280978" lon="151.2900269">
  <ele>402.09</ele>
  <time>2026-09-01T19:53:13Z</time>
  <course>180.13</course>
  <speed>25.99000192381678</speed>
  <fix>3d</fix>
</trkpt>
<trkpt lat="-27.2809298" lon="151.2900272">
  <ele>402.06</ele>
  <time>2026-09-01T19:53:13Z</time>
  <course>179.89</course>
  <speed>26.31</speed>
  <fix>3d</fix>
</trkpt>
<trkpt lat="-27.281001" lon="151.290027">
  <ele>402.13</ele>
  <time>2026-09-01T19:53:13Z</time>
  <course>180.13</course>
  <speed>25.78</speed>
  <fix>3d</fix>
</trkpt>
<trkpt lat="-27.2809769" lon="151.2900273">
  <ele>402.13</ele>
  <time>2026-09-01T19:53:13Z</time>
  <course>179.91</course>
  <speed>26.0</speed>
  <fix>3d</fix>
</trkpt>
<trkpt lat="-27.2810239" lon="151.290027">
  <ele>402.15</ele>
  <time>2026-09-01T19:53:13Z</time>
  <course>180.14</course>
  <speed>25.56</speed>
  <fix>3d</fix>
</trkpt>
<trkpt lat="-27.2809769" lon="151.2900273">
  <ele>402.13</ele>
  <time>2026-09-01T19:53:13Z</time>
  <course>179.91</course>
  <speed>26.0</speed>
  <fix>3d</fix>
</trkpt>
<trkpt lat="-27.2810467" lon="151.2900271">
  <ele>402.18</ele>
  <time>2026-09-01T19:53:13Z</time>
  <course>180.14</course>
  <speed>25.36</speed>
  <fix>3d</fix>
</trkpt>
<trkpt lat="-27.2810233" lon="151.2900273">
  <ele>402.19</ele>
  <time>2026-09-01T19:53:13Z</time>
  <course>179.93</course>
  <speed>25.58</speed>
  <fix>3d</fix>
</trkpt>
<trkpt lat="-27.2810693" lon="151.2900271">
  <ele>402.19</ele>
  <time>2026-09-01T19:53:13Z</time>
  <course>180.08</course>
  <speed>25.17</speed>
  <fix>3d</fix>
</trkpt>
<trkpt lat="-27.2810233" lon="151.2900273">
  <ele>402.19</ele>
  <time>2026-09-01T19:53:13Z</time>
  <course>179.93</course>
  <speed>25.58</speed>
  <fix>3d</fix>
</trkpt>
<trkpt lat="-27.281092" lon="151.2900271">
  <ele>402.2</ele>
  <time>2026-09-01T19:53:13Z</time>
  <course>179.84</course>
  <speed>24.98</speed>
  <fix>3d</fix>
</trkpt>
<trkpt lat="-27.2810689" lon="151.2900274">
  <ele>402.23</ele>
  <time>2026-09-01T19:53:13Z</time>
  <course>179.93</course>
  <speed>25.19</speed>
  <fix>3d</fix>
</trkpt>
<trkpt lat="-27.2811143" lon="151.2900272">
  <ele>402.21</ele>
  <time>2026-09-01T19:53:13Z</time>
  <course>179.31</course>
  <speed>24.80003225804354</speed>
  <fix>3d</fix>
</trkpt>
<trkpt lat="-27.2810689" lon="151.2900274">
  <ele>402.23</ele>
  <time>2026-09-01T19:53:13Z</time>
  <course>179.93</course>
  <speed>25.19</speed>
  <fix>3d</fix>
</trkpt>
<trkpt lat="-27.2811365" lon="151.2900273">
  <ele>402.2</ele>
  <time>2026-09-01T19:53:13Z</time>
  <course>178.6</course>
  <speed>24.6305196859506</speed>
  <fix>3d</fix>
</trkpt>
<trkpt lat="-27.2811139" lon="151.2900275">
  <ele>402.25</ele>
  <time>2026-09-01T19:53:13Z</time>
  <course>179.78</course>
  <speed>24.83</speed>
  <fix>3d</fix>
</trkpt>
<trkpt lat="-27.2811585" lon="151.2900276">
  <ele>402.19</ele>
  <time>2026-09-01T19:53:13Z</time>
  <course>177.92</course>
  <speed>24.463435981071836</speed>
  <fix>3d</fix>
</trkpt>
<trkpt lat="-27.2811139" lon="151.2900275">
  <ele>402.25</ele>
  <time>2026-09-01T19:53:13Z</time>
  <course>179.78</course>
  <speed>24.83</speed>
  <fix>3d</fix>
</trkpt>
<trkpt lat="-27.2811803" lon="151.2900282">
  <ele>402.18</ele>
  <time>2026-09-01T19:53:13Z</time>
  <course>177.33</course>
  <speed>24.30350180529547</speed>
  <fix>3d</fix>
</trkpt>
<trkpt lat="-27.2811582" lon="151.290028">
  <ele>402.23</ele>
  <time>2026-09-01T19:53:13Z</time>
  <course>178.88</course>
  <speed>24.49</speed>
  <fix>3d</fix>
</trkpt>
<trkpt lat="-27.2812021" lon="151.2900294">
  <ele>402.15</ele>
  <time>2026-09-01T19:53:13Z</time>
  <course>176.68</course>
  <speed>24.148327064208814</speed>
  <fix>3d</fix>
</trkpt>
<trkpt lat="-27.2811582" lon="151.290028">
  <ele>402.23</ele>
  <time>2026-09-01T19:53:13Z</time>
  <course>178.88</course>
  <speed>24.49</speed>
  <fix>3d</fix>
</trkpt>
<trkpt lat="-27.2812236" lon="151.2900311">
  <ele>402.11</ele>
  <time>2026-09-01T19:53:13Z</time>
  <course>175.7</course>
  <speed>23.99943749340805</speed>
  <fix>3d</fix>
</trkpt>
<trkpt lat="-27.2812018" lon="151.2900298">
  <ele>402.19</ele>
  <time>2026-09-01T19:53:13Z</time>
  <course>176.66</course>
  <speed>24.18</speed>
  <fix>3d</fix>
</trkpt>
<trkpt lat="-27.281245" lon="151.2900337">
  <ele>402.06</ele>
  <time>2026-09-01T19:53:13Z</time>
  <course>174.08</course>
  <speed>23.861810492919435</speed>
  <fix>3d</fix>
</trkpt>
<trkpt lat="-27.2812018" lon="151.2900298">
  <ele>402.19</ele>
  <time>2026-09-01T19:53:13Z</time>
  <course>176.66</course>
  <speed>24.18</speed>
  <fix>3d</fix>
</trkpt>
<trkpt lat="-27.2812661" lon="151.2900372">
  <ele>402.0</ele>
  <time>2026-09-01T19:53:13Z</time>
  <course>171.65</course>
  <speed>23.72619859986003</speed>
  <fix>3d</fix>
</trkpt>
<trkpt lat="-27.2812448" lon="151.2900341">
  <ele>402.1</ele>
  <time>2026-09-01T19:53:13Z</time>
  <course>172.87</course>
  <speed>23.87</speed>
  <fix>3d</fix>
</trkpt>
<trkpt lat="-27.2812869" lon="151.2900419">
  <ele>401.93</ele>
  <time>2026-09-01T19:53:13Z</time>
  <course>168.51</course>
  <speed>23.580500418778225</speed>
  <fix>3d</fix>
</trkpt>
<trkpt lat="-27.2812448" lon="151.2900341">
  <ele>402.1</ele>
  <time>2026-09-01T19:53:13Z</time>
  <course>172.87</course>
  <speed>23.87</speed>
  <fix>3d</fix>
</trkpt>
<trkpt lat="-27.2813074" lon="151.2900478">
  <ele>401.88</ele>
  <time>2026-09-01T19:53:13Z</time>
  <course>164.92</course>
  <speed>23.43400307245862</speed>
  <fix>3d</fix>
</trkpt>
<trkpt lat="-27.2812868" lon="151.2900422">
  <ele>401.99</ele>
  <time>2026-09-01T19:53:13Z</time>
  <course>167.32</course>
  <speed>23.57</speed>
  <fix>3d</fix>
</trkpt>
<trkpt lat="-27.2813273" lon="151.2900552">
  <ele>401.83</ele>
  <time>2026-09-01T19:53:13Z</time>
  <course>161.09</course>
  <speed>23.279538225660747</speed>
  <fix>3d</fix>
</trkpt>
<trkpt lat="-27.2812868" lon="151.2900422">
  <ele>401.99</ele>
  <time>2026-09-01T19:53:13Z</time>
  <course>167.32</course>
  <speed>23.57</speed>
  <fix>3d</fix>
</trkpt>
<trkpt lat="-27.2813466" lon="151.290064">
  <ele>401.8</ele>
  <time>2026-09-01T19:53:13Z</time>
  <course>157.2</course>
  <speed>23.116474644720373</speed>
  <fix>3d</fix>
</trkpt>
<trkpt lat="-27.2813272" lon="151.2900553">
  <ele>401.89</ele>
  <time>2026-09-01T19:53:13Z</time>
  <course>160.31</course>
  <speed>23.25</speed>
  <fix>3d</fix>
</trkpt>
<trkpt lat="-27.2813652" lon="151.290074">
  <ele>401.78</ele>
  <time>2026-09-01T19:53:13Z</time>
  <course>153.31</course>
  <speed>22.950629620992974</speed>
  <fix>3d</fix>
</trkpt>
<trkpt lat="-27.2813272" lon="151.2900553">
  <ele>401.89</ele>
  <time>2026-09-01T19:53:13Z</time>
  <course>160.31</course>
  <speed>23.25</speed>
  <fix>3d</fix>
</trkpt>
<trkpt lat="-27.2813831" lon="151.2900854">
  <ele>401.78</ele>
  <time>2026-09-01T19:53:13Z</time>
  <course>149.54</course>
  <speed>22.7878410561422</speed>
  <fix>3d</fix>
</trkpt>
<trkpt lat="-27.2813652" lon="151.2900739">
  <ele>401.84</ele>
  <time>2026-09-01T19:53:13Z</time>
  <course>152.71</course>
  <speed>22.92</speed>
  <fix>3d</fix>
</trkpt>
<trkpt lat="-27.2814001" lon="151.290098">
  <ele>401.8</ele>
  <time>2026-09-01T19:53:13Z</time>
  <course>145.8</course>
  <speed>22.619924845144823</speed>
  <fix>3d</fix>
</trkpt>
<trkpt lat="-27.2813652" lon="151.2900739">
  <ele>401.84</ele>
  <time>2026-09-01T19:53:13Z</time>
  <course>152.71</course>
  <speed>22.92</speed>
  <fix>3d</fix>
</trkpt>
<trkpt lat="-27.2814163" lon="151.2901117">
  <ele>401.82</ele>
  <time>2026-09-01T19:53:13Z</time>
  <course>141.97</course>
  <speed>22.457969632181804</speed>
  <fix>3d</fix>
</trkpt>
<trkpt lat="-27.2814002" lon="151.2900977">
  <ele>401.85</ele>
  <time>2026-09-01T19:53:13Z</time>
  <course>145.15</course>
  <speed>22.59</speed>
  <fix>3d</fix>
</trkpt>
<trkpt lat="-27.2814315" lon="151.2901264">
  <ele>401.84</ele>
  <time>2026-09-01T19:53:13Z</time>
  <course>138.12</course>
  <speed>22.292245288440554</speed>
  <fix>3d</fix>
</trkpt>
<trkpt lat="-27.2814002" lon="151.2900977">
  <ele>401.85</ele>
  <time>2026-09-01T19:53:13Z</time>
  <course>145.15</course>
  <speed>22.59</speed>
  <fix>3d</fix>
</trkpt>
<trkpt lat="-27.2814457" lon="151.2901421">
  <ele>401.86</ele>
  <time>2026-09-01T19:53:13Z</time>
  <course>134.14</course>
  <speed>22.133533382630077</speed>
  <fix>3d</fix>
</trkpt>
<trkpt lat="-27.2814317" lon="151.2901261">
  <ele>401.89</ele>
  <time>2026-09-01T19:53:13Z</time>
  <course>137.6</course>
  <speed>22.26</speed>
  <fix>3d</fix>
</trkpt>
<trkpt lat="-27.2814588" lon="151.2901587">
  <ele>401.89</ele>
  <time>2026-09-01T19:53:13Z</time>
  <course>130.0</course>
  <speed>21.96641072182709</speed>
  <fix>3d</fix>
</trkpt>
<trkpt lat="-27.2814317" lon="151.2901261">
  <ele>401.89</ele>
  <time>2026-09-01T19:53:13Z</time>
  <course>137.6</course>
  <speed>22.26</speed>
  <fix>3d</fix>
</trkpt>
<trkpt lat="-27.2814708" lon="151.2901762">
  <ele>401.92</ele>
  <time>2026-09-01T19:53:13Z</time>
  <course>125.66</course>
  <speed>21.808255317654368</speed>
  <fix>3d</fix>
</trkpt>
<trkpt lat="-27.2814591" lon="151.2901583">
  <ele>401.95</ele>
  <time>2026-09-01T19:53:13Z</time>
  <course>129.71</course>
  <speed>21.93</speed>
  <fix>3d</fix>
</trkpt>
<trkpt lat="-27.2814816" lon="151.2901947">
  <ele>401.94</ele>
  <time>2026-09-01T19:53:13Z</time>
  <course>121.18</course>
  <speed>21.646551688432965</speed>
  <fix>3d</fix>
</trkpt>
<trkpt lat="-27.2814591" lon="151.2901583">
  <ele>401.95</ele>
  <time>2026-09-01T19:53:13Z</time>
  <course>129.71</course>
  <speed>21.93</speed>
  <fix>3d</fix>
</trkpt>
<trkpt lat="-27.2814909" lon="151.2902137">
  <ele>401.97</ele>
  <time>2026-09-01T19:53:13Z</time>
  <course>116.63</course>
  <speed>21.48414298965635</speed>
  <fix>3d</fix>
</trkpt>
<trkpt lat="-27.2814818" lon="151.2901941">
  <ele>402.01</ele>
  <time>2026-09-01T19:53:13Z</time>
  <course>121.29</course>
  <speed>21.6</speed>
  <fix>3d</fix>
</trkpt>
<trkpt lat="-27.2814988" lon="151.2902334">
  <ele>402.01</ele>
  <time>2026-09-01T19:53:13Z</time>
  <course>111.98</course>
  <speed>21.31426048447377</speed>
  <fix>3d</fix>
</trkpt>
<trkpt lat="-27.2814818" lon="151.2901941">
  <ele>402.01</ele>
  <time>2026-09-01T19:53:13Z</time>
  <course>121.29</course>
  <speed>21.6</speed>
  <fix>3d</fix>
</trkpt>
<trkpt lat="-27.2815053" lon="151.2902535">
  <ele>402.05</ele>
  <time>2026-09-01T19:53:13Z</time>
  <course>107.36</course>
  <speed>21.15249394279549</speed>
  <fix>3d</fix>
</trkpt>
<trkpt lat="-27.2814992" lon="151.2902327">
  <ele>402.08</ele>
  <time>2026-09-01T19:53:13Z</time>
  <course>112.4</course>
  <speed>21.27</speed>
  <fix>3d</fix>
</trkpt>
<trkpt lat="-27.2815103" lon="151.2902739">
  <ele>402.09</ele>
  <time>2026-09-01T19:53:13Z</time>
  <course>102.85</course>
  <speed>20.99065744563519</speed>
  <fix>3d</fix>
</trkpt>
<trkpt lat="-27.2814992" lon="151.2902327">
  <ele>402.08</ele>
  <time>2026-09-01T19:53:13Z</time>
  <course>112.4</course>
  <speed>21.27</speed>
  <fix>3d</fix>
</trkpt>
<trkpt lat="-27.2815138" lon="151.2902946">
  <ele>402.14</ele>
  <time>2026-09-01T19:53:13Z</time>
  <course>98.33</course>
  <speed>20.831538589360125</speed>
  <fix>3d</fix>
</trkpt>
<trkpt lat="-27.2815108" lon="151.2902732">
  <ele>402.16</ele>
  <time>2026-09-01T19:53:13Z</time>
  <course>103.32</course>
  <speed>20.95</speed>
  <fix>3d</fix>
</trkpt>
<trkpt lat="-27.2815159" lon="151.2903154">
  <ele>402.19</ele>
  <time>2026-09-01T19:53:13Z</time>
  <course>93.81</course>
  <speed>20.67677440995089</speed>
  <fix>3d</fix>
</trkpt>
<trkpt lat="-27.2815108" lon="151.2902732">
  <ele>402.16</ele>
  <time>2026-09-01T19:53:13Z</time>
  <course>103.32</course>
  <speed>20.95</speed>
  <fix>3d</fix>
</trkpt>
<trkpt lat="-27.2815164" lon="151.2903361">
  <ele>402.23</ele>
  <time>2026-09-01T19:53:13Z</time>
  <course>89.29</course>
  <speed>20.53164630515537</speed>
  <fix>3d</fix>
</trkpt>
<trkpt lat="-27.2815165" lon="151.2903147">
  <ele>402.25</ele>
  <time>2026-09-01T19:53:13Z</time>
  <course>94.22</course>
  <speed>20.64</speed>
  <fix>3d</fix>
</trkpt>
<trkpt lat="-27.2815155" lon="151.2903567">
  <ele>402.27</ele>
  <time>2026-09-01T19:53:13Z</time>
  <course>84.76</course>
  <speed>20.383488415872293</speed>
  <fix>3d</fix>
</trkpt>
<trkpt lat="-27.2815165" lon="151.2903147">
  <ele>402.25</ele>
  <time>2026-09-01T19:53:13Z</time>
  <course>94.22</course>
  <speed>20.64</speed>
  <fix>3d</fix>
</trkpt>
<trkpt lat="-27.2815131" lon="151.290377">
  <ele>402.3</ele>
  <time>2026-09-01T19:53:13Z</time>
  <course>80.18</course>
  <speed>20.245419234977575</speed>
  <fix>3d</fix>
</trkpt>
<trkpt lat="-27.2815163" lon="151.2903561">
  <ele>402.33</ele>
  <time>2026-09-01T19:53:13Z</time>
  <course>84.82</course>
  <speed>20.34</speed>
  <fix>3d</fix>
</trkpt>
<trkpt lat="-27.2815091" lon="151.2903967">
  <ele>402.31</ele>
  <time>2026-09-01T19:53:13Z</time>
  <course>75.31</course>
  <speed>20.089362856994743</speed>
  <fix>3d</fix>
</trkpt>
<trkpt lat="-27.2815163" lon="151.2903561">
  <ele>402.33</ele>
  <time>2026-09-01T19:53:13Z</time>
  <course>84.82</course>
  <speed>20.34</speed>
  <fix>3d</fix>
</trkpt>
<trkpt lat="-27.2815035" lon="151.2904159">
  <ele>402.32</ele>
  <time>2026-09-01T19:53:13Z</time>
  <course>69.99</course>
  <speed>19.93486393231717</speed>
  <fix>3d</fix>
</trkpt>
<trkpt lat="-27.2815099" lon="151.2903963">
  <ele>402.38</ele>
  <time>2026-09-01T19:53:13Z</time>
  <course>74.77</course>
  <speed>20.04</speed>
  <fix>3d</fix>
</trkpt>
<trkpt lat="-27.2814965" lon="151.2904342">
  <ele>402.33</ele>
  <time>2026-09-01T19:53:13Z</time>
  <course>64.15</course>
  <speed>19.762393579726115</speed>
  <fix>3d</fix>
</trkpt>
<trkpt lat="-27.2815099" lon="151.2903963">
  <ele>402.38</ele>
  <time>2026-09-01T19:53:13Z</time>
  <course>74.77</course>
  <speed>20.04</speed>
  <fix>3d</fix>
</trkpt>
<trkpt lat="-27.281488" lon="151.2904515">
  <ele>402.32</ele>
  <time>2026-09-01T19:53:13Z</time>
  <course>57.79</course>
  <speed>19.592205082634266</speed>
  <fix>3d</fix>
</trkpt>
<trkpt lat="-27.2814974" lon="151.2904338">
  <ele>402.39</ele>
  <time>2026-09-01T19:53:13Z</time>
  <course>63.89</course>
  <speed>19.7</speed>
  <fix>3d</fix>
</trkpt>
<trkpt lat="-27.281478" lon="151.2904675">
  <ele>402.3</ele>
  <time>2026-09-01T19:53:13Z</time>
  <course>51.14</course>
  <speed>19.41723461258065</speed>
  <fix>3d</fix>
</trkpt>
<trkpt lat="-27.2814974" lon="151.2904338">
  <ele>402.39</ele>
  <time>2026-09-01T19:53:13Z</time>
  <course>63.89</course>
  <speed>19.7</speed>
  <fix>3d</fix>
</trkpt>
<trkpt lat="-27.2814665" lon="151.2904821">
  <ele>402.27</ele>
  <time>2026-09-01T19:53:13Z</time>
  <course>44.47</course>
  <speed>19.247701161437433</speed>
  <fix>3d</fix>
</trkpt>
<trkpt lat="-27.2814789" lon="151.2904672">
  <ele>402.36</ele>
  <time>2026-09-01T19:53:13Z</time>
  <course>52.05</course>
  <speed>19.34</speed>
  <fix>3d</fix>
</trkpt>
<trkpt lat="-27.2814539" lon="151.2904951">
  <ele>402.22</ele>
  <time>2026-09-01T19:53:13Z</time>
  <course>37.9</course>
  <speed>19.098759121995336</speed>
  <fix>3d</fix>
</trkpt>
<trkpt lat="-27.2814789" lon="151.2904672">
  <ele>402.36</ele>
  <time>2026-09-01T19:53:13Z</time>
  <course>52.05</course>
  <speed>19.34</speed>
  <fix>3d</fix>
</trkpt>
<trkpt lat="-27.2814401" lon="151.2905063">
  <ele>402.15</ele>
  <time>2026-09-01T19:53:13Z</time>
  <course>31.4</course>
  <speed>18.957175422514823</speed>
  <fix>3d</fix>
</trkpt>
<trkpt lat="-27.2814549" lon="151.290495">
  <ele>402.28</ele>
  <time>2026-09-01T19:53:13Z</time>
  <course>39.54</course>
  <speed>19.02</speed>
  <fix>3d</fix>
</trkpt>
<trkpt lat="-27.2814255" lon="151.2905158">
  <ele>402.04</ele>
  <time>2026-09-01T19:53:13Z</time>
  <course>24.95</course>
  <speed>18.8322542463721</speed>
  <fix>3d</fix>
</trkpt>
<trkpt lat="-27.2814549" lon="151.290495">
  <ele>402.28</ele>
  <time>2026-09-01T19:53:13Z</time>
  <course>39.54</course>
  <speed>19.02</speed>
  <fix>3d</fix>
</trkpt>
<trkpt lat="-27.2814101" lon="151.2905232">
  <ele>401.91</ele>
  <time>2026-09-01T19:53:13Z</time>
  <course>18.39</course>
  <speed>18.71049170919888</speed>
  <fix>3d</fix>
</trkpt>
<trkpt lat="-27.2814265" lon="151.2905159">
  <ele>402.1</ele>
  <time>2026-09-01T19:53:13Z</time>
  <course>26.82</course>
  <speed>18.74</speed>
  <fix>3d</fix>
</trkpt>
<trkpt lat="-27.2813942" lon="151.2905285">
  <ele>401.76</ele>
  <time>2026-09-01T19:53:13Z</time>
  <course>12.75</course>
  <speed>18.593162721817933</speed>
  <fix>3d</fix>
</trkpt>
<trkpt lat="-27.2814265" lon="151.2905159">
  <ele>402.1</ele>
  <time>2026-09-01T19:53:13Z</time>
  <course>26.82</course>
  <speed>18.74</speed>
  <fix>3d</fix>
</trkpt>
<trkpt lat="-27.281378" lon="151.2905316">
  <ele>401.68</ele>
  <time>2026-09-01T19:53:13Z</time>
  <course>11.31</course>
  <speed>18.490151432587023</speed>
  <fix>3d</fix>
</trkpt>
<trkpt lat="-27.2813952" lon="151.2905288">
  <ele>401.87</ele>
  <time>2026-09-01T19:53:13Z</time>
  <course>13.81</course>
  <speed>18.49</speed>
  <fix>3d</fix>
</trkpt>
<trkpt lat="-27.2813617" lon="151.2905334">
  <ele>401.7</ele>
  <time>2026-09-01T19:53:13Z</time>
  <course>11.55</course>
  <speed>18.352618341806163</speed>
  <fix>3d</fix>
</trkpt>
<trkpt lat="-27.2813952" lon="151.2905288">
  <ele>401.87</ele>
  <time>2026-09-01T19:53:13Z</time>
  <course>13.81</course>
  <speed>18.49</speed>
  <fix>3d</fix>
</trkpt>
<trkpt lat="-27.2813454" lon="151.2905347">
  <ele>401.8</ele>
  <time>2026-09-01T19:53:13Z</time>
  <course>11.97</course>
  <speed>18.15240204490855</speed>
  <fix>3d</fix>
</trkpt>
<trkpt lat="-27.2813625" lon="151.2905345">
  <ele>401.8</ele>
  <time>2026-09-01T19:53:13Z</time>
  <course>5.49</course>
  <speed>18.34</speed>
  <fix>3d</fix>
</trkpt>
<trkpt lat="-27.2813294" lon="151.2905366">
  <ele>401.98</ele>
  <time>2026-09-01T19:53:13Z</time>
  <course>12.19</course>
  <speed>17.94181986310196</speed>
  <fix>3d</fix>
</trkpt>
<trkpt lat="-27.2813625" lon="151.2905345">
  <ele>401.8</ele>
  <time>2026-09-01T19:53:13Z</time>
  <course>5.49</course>
  <speed>18.34</speed>
  <fix>3d</fix>
</trkpt>
<trkpt lat="-27.2813135" lon="151.2905394">
  <ele>402.18</ele>
  <time>2026-09-01T19:53:13Z</time>
  <course>14.04</course>
  <speed>17.791967288638993</speed>
  <fix>3d</fix>
</trkpt>
<trkpt lat="-27.28133" lon="151.290538">
  <ele>402.03</ele>
  <time>2026-09-01T19:53:13Z</time>
  <course>6.86</course>
  <speed>17.98</speed>
  <fix>3d</fix>
</trkpt>
<trkpt lat="-27.2812979" lon="151.2905436">
  <ele>402.34</ele>
  <time>2026-09-01T19:53:13Z</time>
  <course>19.13</course>
  <speed>17.676340118927335</speed>
  <fix>3d</fix>
</trkpt>
<trkpt lat="-27.28133" lon="151.290538">
  <ele>402.03</ele>
  <time>2026-09-01T19:53:13Z</time>
  <course>6.86</course>
  <speed>17.98</speed>
  <fix>3d</fix>
</trkpt>
<trkpt lat="-27.2812829" lon="151.2905492">
  <ele>402.48</ele>
  <time>2026-09-01T19:53:13Z</time>
  <course>25.12</course>
  <speed>17.541111709352975</speed>
  <fix>3d</fix>
</trkpt>
<trkpt lat="-27.2812986" lon="151.2905445">
  <ele>402.37</ele>
  <time>2026-09-01T19:53:13Z</time>
  <course>14.78</course>
  <speed>17.64</speed>
  <fix>3d</fix>
</trkpt>
<trkpt lat="-27.2812685" lon="151.2905563">
  <ele>402.59</ele>
  <time>2026-09-01T19:53:13Z</time>
  <course>31.21</course>
  <speed>17.39221952483351</speed>
  <fix>3d</fix>
</trkpt>
<trkpt lat="-27.2812986" lon="151.2905445">
  <ele>402.37</ele>
  <time>2026-09-01T19:53:13Z</time>
  <course>14.78</course>
  <speed>17.64</speed>
  <fix>3d</fix>
</trkpt>
<trkpt lat="-27.281255" lon="151.2905649">
  <ele>402.7</ele>
  <time>2026-09-01T19:53:13Z</time>
  <course>35.11</course>
  <speed>17.25359382853323</speed>
  <fix>3d</fix>
</trkpt>
<trkpt lat="-27.2812691" lon="151.2905567">
  <ele>402.64</ele>
  <time>2026-09-01T19:53:13Z</time>
  <course>25.46</course>
  <speed>17.35</speed>
  <fix>3d</fix>
</trkpt>
<trkpt lat="-27.2812423" lon="151.2905747">
  <ele>402.81</ele>
  <time>2026-09-01T19:53:13Z</time>
  <course>36.17</course>
  <speed>17.122692545274532</speed>
  <fix>3d</fix>
</trkpt>
<trkpt lat="-27.2812691" lon="151.2905567">
  <ele>402.64</ele>
  <time>2026-09-01T19:53:13Z</time>
  <course>25.46</course>
  <speed>17.35</speed>
  <fix>3d</fix>
</trkpt>
<trkpt lat="-27.2812302" lon="151.2905853">
  <ele>402.93</ele>
  <time>2026-09-01T19:53:13Z</time>
  <course>35.52</course>
  <speed>17.041951179369104</speed>
  <fix>3d</fix>
</trkpt>
<trkpt lat="-27.2812425" lon="151.2905744">
  <ele>402.86</ele>
  <time>2026-09-01T19:53:13Z</time>
  <course>35.16</course>
  <speed>17.16</speed>
  <fix>3d</fix>
</trkpt>
<trkpt lat="-27.2812186" lon="151.2905964">
  <ele>403.07</ele>
  <time>2026-09-01T19:53:13Z</time>
  <course>34.55</course>
  <speed>17.01867797450789</speed>
  <fix>3d</fix>
</trkpt>
<trkpt lat="-27.2812425" lon="151.2905744">
  <ele>402.86</ele>
  <time>2026-09-01T19:53:13Z</time>
  <course>35.16</course>
  <speed>17.16</speed>
  <fix>3d</fix>
</trkpt>
<trkpt lat="-27.2812071" lon="151.2906079">
  <ele>403.21</ele>
  <time>2026-09-01T19:53:13Z</time>
  <course>34.14</course>
  <speed>17.06705891476326</speed>
  <fix>3d</fix>
</trkpt>
<trkpt lat="-27.2812184" lon="151.2905958">
  <ele>403.11</ele>
  <time>2026-09-01T19:53:13Z</time>
  <course>40.55</course>
  <speed>17.11</speed>
  <fix>3d</fix>
</trkpt>
<trkpt lat="-27.2811957" lon="151.2906195">
  <ele>403.35</ele>
  <time>2026-09-01T19:53:13Z</time>
  <course>34.26</course>
  <speed>17.18429515575195</speed>
  <fix>3d</fix>
</trkpt>
<trkpt lat="-27.2812184" lon="151.2905958">
  <ele>403.11</ele>
  <time>2026-09-01T19:53:13Z</time>
  <course>40.55</course>
  <speed>17.11</speed>
  <fix>3d</fix>
</trkpt>
<trkpt lat="-27.2811842" lon="151.2906312">
  <ele>403.5</ele>
  <time>2026-09-01T19:53:13Z</time>
  <course>34.62</course>
  <speed>17.365048229129684</speed>
  <fix>3d</fix>
</trkpt>
<trkpt lat="-27.2811953" lon="151.2906188">
  <ele>403.39</ele>
  <time>2026-09-01T19:53:13Z</time>
  <course>42.11</course>
  <speed>17.27</speed>
  <fix>3d</fix>
</trkpt>
<trkpt lat="-27.2811724" lon="151.290643">
  <ele>403.63</ele>
  <time>2026-09-01T19:53:13Z</time>
  <course>35.23</course>
  <speed>17.57243580156149</speed>
  <fix>3d</fix>
</trkpt>
<trkpt lat="-27.2811953" lon="151.2906188">
  <ele>403.39</ele>
  <time>2026-09-01T19:53:13Z</time>
  <course>42.11</course>
  <speed>17.27</speed>
  <fix>3d</fix>
</trkpt>
<trkpt lat="-27.2811604" lon="151.2906548">
  <ele>403.75</ele>
  <time>2026-09-01T19:53:13Z</time>
  <course>35.89</course>
  <speed>17.807060397494023</speed>
  <fix>3d</fix>
</trkpt>
<trkpt lat="-27.281172" lon="151.2906425">
  <ele>403.67</ele>
  <time>2026-09-01T19:53:13Z</time>
  <course>41.53</course>
  <speed>17.63</speed>
  <fix>3d</fix>
</trkpt>
<trkpt lat="-27.2811481" lon="151.2906665">
  <ele>403.86</ele>
  <time>2026-09-01T19:53:13Z</time>
  <course>36.55</course>
  <speed>18.047074555173754</speed>
  <fix>3d</fix>
</trkpt>
<trkpt lat="-27.281172" lon="151.2906425">
  <ele>403.67</ele>
  <time>2026-09-01T19:53:13Z</time>
  <course>41.53</course>
  <speed>17.63</speed>
  <fix>3d</fix>
</trkpt>
<trkpt lat="-27.2811355" lon="151.2906782">
  <ele>403.95</ele>
  <time>2026-09-01T19:53:13Z</time>
  <course>37.26</course>
  <speed>18.29706260578457</speed>
  <fix>3d</fix>
</trkpt>
<trkpt lat="-27.2811476" lon="151.2906661">
  <ele>403.91</ele>
  <time>2026-09-01T19:53:13Z</time>
  <course>40.12</course>
  <speed>18.09</speed>
  <fix>3d</fix>
</trkpt>
<trkpt lat="-27.2811225" lon="151.29069">
  <ele>404.04</ele>
  <time>2026-09-01T19:53:13Z</time>
  <course>37.83</course>
  <speed>18.54094927451127</speed>
  <fix>3d</fix>
</trkpt>
<trkpt lat="-27.2811476" lon="151.2906661">
  <ele>403.91</ele>
  <time>2026-09-01T19:53:13Z</time>
  <course>40.12</course>
  <speed>18.09</speed>
  <fix>3d</fix>
</trkpt>
<trkpt lat="-27.2811093" lon="151.2907017">
  <ele>404.1</ele>
  <time>2026-09-01T19:53:13Z</time>
  <course>38.13</course>
  <speed>18.798087668696517</speed>
  <fix>3d</fix>
</trkpt>
<trkpt lat="-27.2811222" lon="151.2906896">
  <ele>404.09</ele>
  <time>2026-09-01T19:53:13Z</time>
  <course>38.71</course>
  <speed>18.58</speed>
  <fix>3d</fix>
</trkpt>
<trkpt lat="-27.2810959" lon="151.2907133">
  <ele>404.17</ele>
  <time>2026-09-01T19:53:13Z</time>
  <course>38.21</course>
  <speed>19.053461627746284</speed>
  <fix>3d</fix>
</trkpt>
<trkpt lat="-27.2811222" lon="151.2906896">
  <ele>404.09</ele>
  <time>2026-09-01T19:53:13Z</time>
  <course>38.71</course>
  <speed>18.58</speed>
  <fix>3d</fix>
</trkpt>
<trkpt lat="-27.2810821" lon="151.2907251">
  <ele>404.22</ele>
  <time>2026-09-01T19:53:13Z</time>
  <course>38.13</course>
  <speed>19.300259065618782</speed>
  <fix>3d</fix>
</trkpt>
<trkpt lat="-27.2810956" lon="151.2907131">
  <ele>404.22</ele>
  <time>2026-09-01T19:53:13Z</time>
  <course>37.63</course>
  <speed>19.08</speed>
  <fix>3d</fix>
</trkpt>
<trkpt lat="-27.2810681" lon="151.2907369">
  <ele>404.27</ele>
  <time>2026-09-01T19:53:13Z</time>
  <course>37.88</course>
  <speed>19.552005012274318</speed>
  <fix>3d</fix>
</trkpt>
<trkpt lat="-27.2810956" lon="151.2907131">
  <ele>404.22</ele>
  <time>2026-09-01T19:53:13Z</time>
  <course>37.63</course>
  <speed>19.08</speed>
  <fix>3d</fix>
</trkpt>
<trkpt lat="-27.2810539" lon="151.2907488">
  <ele>404.32</ele>
  <time>2026-09-01T19:53:13Z</time>
  <course>37.59</course>
  <speed>19.7803058621448</speed>
  <fix>3d</fix>
</trkpt>
<trkpt lat="-27.2810679" lon="151.2907368">
  <ele>404.33</ele>
  <time>2026-09-01T19:53:13Z</time>
  <course>36.89</course>
  <speed>19.57</speed>
  <fix>3d</fix>
</trkpt>
<trkpt lat="-27.2810394" lon="151.2907608">
  <ele>404.36</ele>
  <time>2026-09-01T19:53:13Z</time>
  <course>37.3</course>
  <speed>20.020901578100823</speed>
  <fix>3d</fix>
</trkpt>
<trkpt lat="-27.2810679" lon="151.2907368">
  <ele>404.33</ele>
  <time>2026-09-01T19:53:13Z</time>
  <course>36.89</course>
  <speed>19.57</speed>
  <fix>3d</fix>
</trkpt>
<trkpt lat="-27.2810248" lon="151.2907729">
  <ele>404.41</ele>
  <time>2026-09-01T19:53:13Z</time>
  <course>36.98</course>
  <speed>20.251543151078636</speed>
  <fix>3d</fix>
</trkpt>
<trkpt lat="-27.2810394" lon="151.2907607">
  <ele>404.42</ele>
  <time>2026-09-01T19:53:13Z</time>
  <course>36.4</course>
  <speed>20.04</speed>
  <fix>3d</fix>
</trkpt>
<trkpt lat="-27.2810099" lon="151.290785">
  <ele>404.45</ele>
  <time>2026-09-01T19:53:13Z</time>
  <course>36.82</course>
  <speed>20.474257007276236</speed>
  <fix>3d</fix>
</trkpt>
<trkpt lat="-27.2810394" lon="151.2907607">
  <ele>404.42</ele>
  <time>2026-09-01T19:53:13Z</time>
  <course>36.4</course>
  <speed>20.04</speed>
  <fix>3d</fix>
</trkpt>
<trkpt lat="-27.280995" lon="151.2907973">
  <ele>404.5</ele>
  <time>2026-09-01T19:53:13Z</time>
  <course>36.65</course>
  <speed>20.68676146717992</speed>
  <fix>3d</fix>
</trkpt>
<trkpt lat="-27.28101" lon="151.2907849">
  <ele>404.51</ele>
  <time>2026-09-01T19:53:13Z</time>
  <course>36.1</course>
  <speed>20.48</speed>
  <fix>3d</fix>
</trkpt>
<trkpt lat="-27.2809798" lon="151.2908096">
  <ele>404.55</ele>
  <time>2026-09-01T19:53:13Z</time>
  <course>36.37</course>
  <speed>20.899310993427513</speed>
  <fix>3d</fix>
</trkpt>
<trkpt lat="-27.28101" lon="151.2907849">
  <ele>404.51</ele>
  <time>2026-09-01T19:53:13Z</time>
  <course>36.1</course>
  <speed>20.48</speed>
  <fix>3d</fix>
</trkpt>
<trkpt lat="-27.2809645" lon="151.2908221">
  <ele>404.6</ele>
  <time>2026-09-01T19:53:13Z</time>
  <course>36.23</course>
  <speed>21.109639977981622</speed>
  <fix>3d</fix>
</trkpt>
<trkpt lat="-27.28098" lon="151.2908095">
  <ele>404.61</ele>
  <time>2026-09-01T19:53:13Z</time>
  <course>35.91</course>
  <speed>20.91</speed>
  <fix>3d</fix>
</trkpt>
<trkpt lat="-27.280949" lon="151.2908346">
  <ele>404.65</ele>
  <time>2026-09-01T19:53:13Z</time>
  <course>36.15</course>
  <speed>21.30602262272337</speed>
  <fix>3d</fix>
</trkpt>
<trkpt lat="-27.28098" lon="151.2908095">
  <ele>404.61</ele>
  <time>2026-09-01T19:53:13Z</time>
  <course>35.91</course>
  <speed>20.91</speed>
  <fix>3d</fix>
</trkpt>
<trkpt lat="-27.2809334" lon="151.2908473">
  <ele>404.71</ele>
  <time>2026-09-01T19:53:13Z</time>
  <course>36.05</course>
  <speed>21.508258878858605</speed>
  <fix>3d</fix>
</trkpt>
<trkpt lat="-27.2809492" lon="151.2908345">
  <ele>404.71</ele>
  <time>2026-09-01T19:53:13Z</time>
  <course>35.81</course>
  <speed>21.32</speed>
  <fix>3d</fix>
</trkpt>
<trkpt lat="-27.2809174" lon="151.2908602">
  <ele>404.77</ele>
  <time>2026-09-01T19:53:13Z</time>
  <course>36.05</course>
  <speed>21.702380053809765</speed>
  <fix>3d</fix>
</trkpt>
<trkpt lat="-27.2809492" lon="151.2908345">
  <ele>404.71</ele>
  <time>2026-09-01T19:53:13Z</time>
  <course>35.81</course>
  <speed>21.32</speed>
  <fix>3d</fix>
</trkpt>
<trkpt lat="-27.2809015" lon="151.2908731">
  <ele>404.83</ele>
  <time>2026-09-01T19:53:13Z</time>
  <course>36.05</course>
  <speed>21.882545555762018</speed>
  <fix>3d</fix>
</trkpt>
<trkpt lat="-27.2809179" lon="151.2908598">
  <ele>404.81</ele>
  <time>2026-09-01T19:53:13Z</time>
  <course>35.76</course>
  <speed>21.71</speed>
  <fix>3d</fix>
</trkpt>
<trkpt lat="-27.2808855" lon="151.2908861">
  <ele>404.89</ele>
  <time>2026-09-01T19:53:13Z</time>
  <course>36.02</course>
  <speed>22.06042837299403</speed>
  <fix>3d</fix>
</trkpt>
<trkpt lat="-27.2809179" lon="151.2908598">
  <ele>404.81</ele>
  <time>2026-09-01T19:53:13Z</time>
  <course>35.76</course>
  <speed>21.71</speed>
  <fix>3d</fix>
</trkpt>
<trkpt lat="-27.2808693" lon="151.2908992">
  <ele>404.96</ele>
  <time>2026-09-01T19:53:13Z</time>
  <course>36.0</course>
  <speed>22.24059351726028</speed>
  <fix>3d</fix>
</trkpt>
<trkpt lat="-27.2808859" lon="151.2908858">
  <ele>404.93</ele>
  <time>2026-09-01T19:53:13Z</time>
  <course>35.75</course>
  <speed>22.07</speed>
  <fix>3d</fix>
</trkpt>
<trkpt lat="-27.280853" lon="151.2909124">
  <ele>405.03</ele>
  <time>2026-09-01T19:53:13Z</time>
  <course>35.97</course>
  <speed>22.410359211757406</speed>
  <fix>3d</fix>
</trkpt>
<trkpt lat="-27.2808859" lon="151.2908858">
  <ele>404.93</ele>
  <time>2026-09-01T19:53:13Z</time>
  <course>35.75</course>
  <speed>22.07</speed>
  <fix>3d</fix>
</trkpt>
<trkpt lat="-27.2808365" lon="151.2909257">
  <ele>405.1</ele>
  <time>2026-09-01T19:53:13Z</time>
  <course>35.94</course>
  <speed>22.58240465495205</speed>
  <fix>3d</fix>
</trkpt>
<trkpt lat="-27.2808534" lon="151.2909121">
  <ele>405.06</ele>
  <time>2026-09-01T19:53:13Z</time>
  <course>35.77</course>
  <speed>22.42</speed>
  <fix>3d</fix>
</trkpt>
<trkpt lat="-27.2808201" lon="151.2909391">
  <ele>405.17</ele>
  <time>2026-09-01T19:53:13Z</time>
  <course>35.92</course>
  <speed>22.732375590773614</speed>
  <fix>3d</fix>
</trkpt>
<trkpt lat="-27.2808534" lon="151.2909121">
  <ele>405.06</ele>
  <time>2026-09-01T19:53:13Z</time>
  <course>35.77</course>
  <speed>22.42</speed>
  <fix>3d</fix>
</trkpt>
<trkpt lat="-27.2808035" lon="151.2909525">
  <ele>405.25</ele>
  <time>2026-09-01T19:53:13Z</time>
  <course>35.91</course>
  <speed>22.882346907605434</speed>
  <fix>3d</fix>
</trkpt>
<trkpt lat="-27.2808205" lon="151.2909388">
  <ele>405.2</ele>
  <time>2026-09-01T19:53:13Z</time>
  <course>35.79</course>
  <speed>22.75</speed>
  <fix>3d</fix>
</trkpt>
<trkpt lat="-27.2807868" lon="151.290966">
  <ele>405.34</ele>
  <time>2026-09-01T19:53:13Z</time>
  <course>35.9</course>
  <speed>23.026476065607607</speed>
  <fix>3d</fix>
</trkpt>
<trkpt lat="-27.2808205" lon="151.2909388">
  <ele>405.2</ele>
  <time>2026-09-01T19:53:13Z</time>
  <course>35.79</course>
  <speed>22.75</speed>
  <fix>3d</fix>
</trkpt>
<trkpt lat="-27.2807702" lon="151.2909795">
  <ele>405.42</ele>
  <time>2026-09-01T19:53:13Z</time>
  <course>35.97</course>
  <speed>23.16248907177292</speed>
  <fix>3d</fix>
</trkpt>
<trkpt lat="-27.2807871" lon="151.2909659">
  <ele>405.36</ele>
  <time>2026-09-01T19:53:13Z</time>
  <course>35.79</course>
  <speed>23.05</speed>
  <fix>3d</fix>
</trkpt>
<trkpt lat="-27.2807533" lon="151.2909932">
  <ele>405.51</ele>
  <time>2026-09-01T19:53:13Z</time>
  <course>35.98</course>
  <speed>23.304345088416454</speed>
  <fix>3d</fix>
</trkpt>
<trkpt lat="-27.2807871" lon="151.2909659">
  <ele>405.36</ele>
  <time>2026-09-01T19:53:13Z</time>
  <course>35.79</course>
  <speed>23.05</speed>
  <fix>3d</fix>
</trkpt>
<trkpt lat="-27.2807363" lon="151.2910069">
  <ele>405.6</ele>
  <time>2026-09-01T19:53:13Z</time>
  <course>35.98</course>
  <speed>23.43451514326678</speed>
  <fix>3d</fix>
</trkpt>
<trkpt lat="-27.2807533" lon="151.2909933">
  <ele>405.52</ele>
  <time>2026-09-01T19:53:13Z</time>
  <course>35.79</course>
  <speed>23.34</speed>
  <fix>3d</fix>
</trkpt>
<trkpt lat="-27.2807193" lon="151.2910208">
  <ele>405.69</ele>
  <time>2026-09-01T19:53:13Z</time>
  <course>36.0</course>
  <speed>23.56241286456037</speed>
  <fix>3d</fix>
</trkpt>
<trkpt lat="-27.2807533" lon="151.2909933">
  <ele>405.52</ele>
  <time>2026-09-01T19:53:13Z</time>
  <course>35.79</course>
  <speed>23.34</speed>
  <fix>3d</fix>
</trkpt>
<trkpt lat="-27.2807019" lon="151.2910348">
  <ele>405.78</ele>
  <time>2026-09-01T19:53:13Z</time>
  <course>36.02</course>
  <speed>23.690312366028436</speed>
  <fix>3d</fix>
</trkpt>
<trkpt lat="-27.2807191" lon="151.2910211">
  <ele>405.69</ele>
  <time>2026-09-01T19:53:13Z</time>
  <course>35.81</course>
  <speed>23.61</speed>
  <fix>3d</fix>
</trkpt>
<trkpt lat="-27.2806847" lon="151.2910488">
  <ele>405.87</ele>
  <time>2026-09-01T19:53:13Z</time>
  <course>36.01</course>
  <speed>23.812366535059045</speed>
  <fix>3d</fix>
</trkpt>
<trkpt lat="-27.2807191" lon="151.2910211">
  <ele>405.69</ele>
  <time>2026-09-01T19:53:13Z</time>
  <course>35.81</course>
  <speed>23.61</speed>
  <fix>3d</fix>
</trkpt>
<trkpt lat="-27.2806673" lon="151.2910629">
  <ele>405.96</ele>
  <time>2026-09-01T19:53:13Z</time>
  <course>35.98</course>
  <speed>23.92630769675923</speed>
  <fix>3d</fix>
</trkpt>
<trkpt lat="-27.2806845" lon="151.2910491">
  <ele>405.87</ele>
  <time>2026-09-01T19:53:13Z</time>
  <course>35.82</course>
  <speed>23.86</speed>
  <fix>3d</fix>
</trkpt>
<trkpt lat="-27.2806499" lon="151.2910771">
  <ele>406.06</ele>
  <time>2026-09-01T19:53:13Z</time>
  <course>36.03</course>
  <speed>24.048361690560128</speed>
  <fix>3d</fix>
</trkpt>
<trkpt lat="-27.2806845" lon="151.2910491">
  <ele>405.87</ele>
  <time>2026-09-01T19:53:13Z</time>
  <course>35.82</course>
  <speed>23.86</speed>
  <fix>3d</fix>
</trkpt>
<trkpt lat="-27.2806324" lon="151.2910913">
  <ele>406.16</ele>
  <time>2026-09-01T19:53:13Z</time>
  <course>36.02</course>
  <speed>24.148343628497585</speed>
  <fix>3d</fix>
</trkpt>
<trkpt lat="-27.2806496" lon="151.2910775">
  <ele>406.05</ele>
  <time>2026-09-01T19:53:13Z</time>
  <course>35.83</course>
  <speed>24.1</speed>
  <fix>3d</fix>
</trkpt>
<trkpt lat="-27.2806147" lon="151.2911056">
  <ele>406.26</ele>
  <time>2026-09-01T19:53:13Z</time>
  <course>35.98</course>
  <speed>24.270397606961446</speed>
  <fix>3d</fix>
</trkpt>
<trkpt lat="-27.2806496" lon="151.2910775">
  <ele>406.05</ele>
  <time>2026-09-01T19:53:13Z</time>
  <course>35.83</course>
  <speed>24.1</speed>
  <fix>3d</fix>
</trkpt>
<trkpt lat="-27.280597" lon="151.29112">
  <ele>406.36</ele>
  <time>2026-09-01T19:53:13Z</time>
  <course>36.03</course>
  <speed>24.364533650369754</speed>
  <fix>3d</fix>
</trkpt>
<trkpt lat="-27.2806144" lon="151.2911062">
  <ele>406.25</ele>
  <time>2026-09-01T19:53:13Z</time>
  <course>35.82</course>
  <speed>24.32</speed>
  <fix>3d</fix>
</trkpt>
<trkpt lat="-27.2805793" lon="151.2911345">
  <ele>406.45</ele>
  <time>2026-09-01T19:53:13Z</time>
  <course>35.98</course>
  <speed>24.47847421715659</speed>
  <fix>3d</fix>
</trkpt>
<trkpt lat="-27.2806144" lon="151.2911062">
  <ele>406.25</ele>
  <time>2026-09-01T19:53:13Z</time>
  <course>35.82</course>
  <speed>24.32</speed>
  <fix>3d</fix>
</trkpt>
<trkpt lat="-27.2805614" lon="151.291149">
  <ele>406.55</ele>
  <time>2026-09-01T19:53:13Z</time>
  <course>35.91</course>
  <speed>24.572610768902845</speed>
  <fix>3d</fix>
</trkpt>
<trkpt lat="-27.2805788" lon="151.2911351">
  <ele>406.45</ele>
  <time>2026-09-01T19:53:13Z</time>
  <course>35.81</course>
  <speed>24.53</speed>
  <fix>3d</fix>
</trkpt>
<trkpt lat="-27.2805434" lon="151.2911635">
  <ele>406.65</ele>
  <time>2026-09-01T19:53:13Z</time>
  <course>35.96</course>
  <speed>24.674865754447378</speed>
  <fix>3d</fix>
</trkpt>
<trkpt lat="-27.2805788" lon="151.2911351">
  <ele>406.45</ele>
  <time>2026-09-01T19:53:13Z</time>
  <course>35.81</course>
  <speed>24.53</speed>
  <fix>3d</fix>
</trkpt>
<trkpt lat="-27.2805254" lon="151.2911781">
  <ele>406.76</ele>
  <time>2026-09-01T19:53:13Z</time>
  <course>35.98</course>
  <speed>24.774846114557405</speed>
  <fix>3d</fix>
</trkpt>
<trkpt lat="-27.2805429" lon="151.2911641">
  <ele>406.65</ele>
  <time>2026-09-01T19:53:13Z</time>
  <course>35.79</course>
  <speed>24.74</speed>
  <fix>3d</fix>
</trkpt>
<trkpt lat="-27.2805073" lon="151.2911928">
  <ele>406.86</ele>
  <time>2026-09-01T19:53:13Z</time>
  <course>35.96</course>
  <speed>24.86898671035875</speed>
  <fix>3d</fix>
</trkpt>
<trkpt lat="-27.2805429" lon="151.2911641">
  <ele>406.65</ele>
  <time>2026-09-01T19:53:13Z</time>
  <course>35.79</course>
  <speed>24.74</speed>
  <fix>3d</fix>
</trkpt>
<trkpt lat="-27.2804891" lon="151.2912075">
  <ele>406.97</ele>
  <time>2026-09-01T19:53:14Z</time>
  <course>35.98</course>
  <speed>24.9491723309612</speed>
  <fix>3d</fix>
</trkpt>
<trkpt lat="-27.2805066" lon="151.2911935">
  <ele>406.85</ele>
  <time>2026-09-01T19:53:14Z</time>
  <course>35.76</course>
  <speed>24.93</speed>
  <fix>3d</fix>
</trkpt>
<trkpt lat="-27.2804709" lon="151.2912223">
  <ele>407.07</ele>
  <time>2026-09-01T19:53:14Z</time>
  <course>36.03</course>
  <speed>25.049151682242655</speed>
  <fix>3d</fix>
</trkpt>
<trkpt lat="-27.2805066" lon="151.2911935">
  <ele>406.85</ele>
  <time>2026-09-01T19:53:14Z</time>
  <course>35.76</course>
  <speed>24.93</speed>
  <fix>3d</fix>
</trkpt>
<trkpt lat="-27.2804524" lon="151.2912373">
  <ele>407.17</ele>
  <time>2026-09-01T19:53:14Z</time>
  <course>35.99</course>
  <speed>25.143295328973885</speed>
  <fix>3d</fix>
</trkpt>
<trkpt lat="-27.2804701" lon="151.2912232">
  <ele>407.06</ele>
  <time>2026-09-01T19:53:14Z</time>
  <course>35.74</course>
  <speed>25.11</speed>
  <fix>3d</fix>
</trkpt>
<trkpt lat="-27.280434" lon="151.2912521">
  <ele>407.24</ele>
  <time>2026-09-01T19:53:14Z</time>
  <course>35.93</course>
  <speed>25.25368883945472</speed>
  <fix>3d</fix>
</trkpt>
<trkpt lat="-27.2804701" lon="151.2912232">
  <ele>407.06</ele>
  <time>2026-09-01T19:53:14Z</time>
  <course>35.74</course>
  <speed>25.11</speed>
  <fix>3d</fix>
</trkpt>
<trkpt lat="-27.2804155" lon="151.2912671">
  <ele>407.29</ele>
  <time>2026-09-01T19:53:14Z</time>
  <course>36.0</course>
  <speed>25.37222497141313</speed>
  <fix>3d</fix>
</trkpt>
<trkpt lat="-27.2804333" lon="151.2912529">
  <ele>407.22</ele>
  <time>2026-09-01T19:53:14Z</time>
  <course>35.67</course>
  <speed>25.32</speed>
  <fix>3d</fix>
</trkpt>
<trkpt lat="-27.2803971" lon="151.291282">
  <ele>407.32</ele>
  <time>2026-09-01T19:53:14Z</time>
  <course>36.07</course>
  <speed>25.476832613180154</speed>
  <fix>3d</fix>
</trkpt>
<trkpt lat="-27.2804333" lon="151.2912529">
  <ele>407.22</ele>
  <time>2026-09-01T19:53:14Z</time>
  <course>35.67</course>
  <speed>25.32</speed>
  <fix>3d</fix>
</trkpt>
<trkpt lat="-27.2803784" lon="151.291297">
  <ele>407.34</ele>
  <time>2026-09-01T19:53:14Z</time>
  <course>36.17</course>
  <speed>25.58380737888714</speed>
  <fix>3d</fix>
</trkpt>
<trkpt lat="-27.2803961" lon="151.2912829">
  <ele>407.32</ele>
  <time>2026-09-01T19:53:14Z</time>
  <course>35.54</course>
  <speed>25.54</speed>
  <fix>3d</fix>
</trkpt>
<trkpt lat="-27.2803595" lon="151.2913121">
  <ele>407.37</ele>
  <time>2026-09-01T19:53:14Z</time>
  <course>36.14</course>
  <speed>25.594306007391566</speed>
  <fix>3d</fix>
</trkpt>
<trkpt lat="-27.2803961" lon="151.2912829">
  <ele>407.32</ele>
  <time>2026-09-01T19:53:14Z</time>
  <course>35.54</course>
  <speed>25.54</speed>
  <fix>3d</fix>
</trkpt>
<trkpt lat="-27.2803408" lon="151.2913271">
  <ele>407.39</ele>
  <time>2026-09-01T19:53:14Z</time>
  <course>36.06</course>
  <speed>25.440929621379794</speed>
  <fix>3d</fix>
</trkpt>
<trkpt lat="-27.2803587" lon="151.2913128">
  <ele>407.37</ele>
  <time>2026-09-01T19:53:14Z</time>
  <course>35.41</course>
  <speed>25.58</speed>
  <fix>3d</fix>
</trkpt>
<trkpt lat="-27.280322" lon="151.2913421">
  <ele>407.42</ele>
  <time>2026-09-01T19:53:14Z</time>
  <course>35.98</course>
  <speed>25.25153856698637</speed>
  <fix>3d</fix>
</trkpt>
<trkpt lat="-27.2803587" lon="151.2913128">
  <ele>407.37</ele>
  <time>2026-09-01T19:53:14Z</time>
  <course>35.41</course>
  <speed>25.58</speed>
  <fix>3d</fix>
</trkpt>
<trkpt lat="-27.2803035" lon="151.2913568">
  <ele>407.44</ele>
  <time>2026-09-01T19:53:14Z</time>
  <course>35.93</course>
  <speed>25.059778530545714</speed>
  <fix>3d</fix>
</trkpt>
<trkpt lat="-27.2803214" lon="151.2913427">
  <ele>407.42</ele>
  <time>2026-09-01T19:53:14Z</time>
  <course>35.33</course>
  <speed>25.32</speed>
  <fix>3d</fix>
</trkpt>
<trkpt lat="-27.2802851" lon="151.2913715">
  <ele>407.46</ele>
  <time>2026-09-01T19:53:14Z</time>
  <course>35.87</course>
  <speed>24.89012856535699</speed>
  <fix>3d</fix>
</trkpt>
<trkpt lat="-27.2803214" lon="151.2913427">
  <ele>407.42</ele>
  <time>2026-09-01T19:53:14Z</time>
  <course>35.33</course>
  <speed>25.32</speed>
  <fix>3d</fix>
</trkpt>
<trkpt lat="-27.2802668" lon="151.291386">
  <ele>407.44</ele>
  <time>2026-09-01T19:53:14Z</time>
  <course>35.85</course>
  <speed>24.732021753184675</speed>
  <fix>3d</fix>
</trkpt>
<trkpt lat="-27.2802846" lon="151.291372">
  <ele>407.45</ele>
  <time>2026-09-01T19:53:14Z</time>
  <course>35.28</course>
  <speed>24.95</speed>
  <fix>3d</fix>
</trkpt>
<trkpt lat="-27.2802486" lon="151.2914005">
  <ele>407.35</ele>
  <time>2026-09-01T19:53:14Z</time>
  <course>35.83</course>
  <speed>24.582082906051713</speed>
  <fix>3d</fix>
</trkpt>
<trkpt lat="-27.2802846" lon="151.291372">
  <ele>407.45</ele>
  <time>2026-09-01T19:53:14Z</time>
  <course>35.28</course>
  <speed>24.95</speed>
  <fix>3d</fix>
</trkpt>
<trkpt lat="-27.2802306" lon="151.2914148">
  <ele>407.16</ele>
  <time>2026-09-01T19:53:14Z</time>
  <course>35.84</course>
  <speed>24.41003891844501</speed>
  <fix>3d</fix>
</trkpt>
<trkpt lat="-27.2802482" lon="151.291401">
  <ele>407.33</ele>
  <time>2026-09-01T19:53:14Z</time>
  <course>35.26</course>
  <speed>24.62</speed>
  <fix>3d</fix>
</trkpt>
<trkpt lat="-27.2802127" lon="151.2914291">
  <ele>406.86</ele>
  <time>2026-09-01T19:53:14Z</time>
  <course>35.85</course>
  <speed>24.235597785076397</speed>
  <fix>3d</fix>
</trkpt>
<trkpt lat="-27.2802482" lon="151.291401">
  <ele>407.33</ele>
  <time>2026-09-01T19:53:14Z</time>
  <course>35.26</course>
  <speed>24.62</speed>
  <fix>3d</fix>
</trkpt>
<trkpt lat="-27.2801949" lon="151.2914432">
  <ele>406.43</ele>
  <time>2026-09-01T19:53:14Z</time>
  <course>35.87</course>
  <speed>24.0414496235148</speed>
  <fix>3d</fix>
</trkpt>
<trkpt lat="-27.2802123" lon="151.2914295">
  <ele>406.85</ele>
  <time>2026-09-01T19:53:14Z</time>
  <course>35.27</course>
  <speed>24.27</speed>
  <fix>3d</fix>
</trkpt>
<trkpt lat="-27.2801772" lon="151.2914573">
  <ele>405.89</ele>
  <time>2026-09-01T19:53:14Z</time>
  <course>35.93</course>
  <speed>23.855466878684226</speed>
  <fix>3d</fix>
</trkpt>
<trkpt lat="-27.2802123" lon="151.2914295">
  <ele>406.85</ele>
  <time>2026-09-01T19:53:14Z</time>
  <course>35.27</course>
  <speed>24.27</speed>
  <fix>3d</fix>
</trkpt>
<trkpt lat="-27.2801598" lon="151.2914712">
  <ele>405.24</ele>
  <time>2026-09-01T19:53:14Z</time>
  <course>35.94</course>
  <speed>23.675257126375627</speed>
  <fix>3d</fix>
</trkpt>
<trkpt lat="-27.280177" lon="151.2914576">
  <ele>405.91</ele>
  <time>2026-09-01T19:53:14Z</time>
  <course>35.29</course>
  <speed>23.89</speed>
  <fix>3d</fix>
</trkpt>
<trkpt lat="-27.2801424" lon="151.2914851">
  <ele>404.49</ele>
  <time>2026-09-01T19:53:14Z</time>
  <course>35.94</course>
  <speed>23.539254448686346</speed>
  <fix>3d</fix>
</trkpt>
<trkpt lat="-27.280177" lon="151.2914576">
  <ele>405.91</ele>
  <time>2026-09-01T19:53:14Z</time>
  <course>35.29</course>
  <speed>23.89</speed>
  <fix>3d</fix>
</trkpt>
<trkpt lat="-27.2801251" lon="151.2914988">
  <ele>403.65</ele>
  <time>2026-09-01T19:53:14Z</time>
  <course>35.91</course>
  <speed>23.431128867384942</speed>
  <fix>3d</fix>
</trkpt>
<trkpt lat="-27.2801422" lon="151.2914854">
  <ele>404.55</ele>
  <time>2026-09-01T19:53:14Z</time>
  <course>35.3</course>
  <speed>23.57</speed>
  <fix>3d</fix>
</trkpt>
<trkpt lat="-27.2801079" lon="151.2915126">
  <ele>402.74</ele>
  <time>2026-09-01T19:53:14Z</time>
  <course>35.9</course>
  <speed>23.381148389247265</speed>
  <fix>3d</fix>
</trkpt>
<trkpt lat="-27.2801422" lon="151.2914854">
  <ele>404.55</ele>
  <time>2026-09-01T19:53:14Z</time>
  <course>35.3</course>
  <speed>23.57</speed>
  <fix>3d</fix>
</trkpt>
<trkpt lat="-27.2800907" lon="151.2915262">
  <ele>401.77</ele>
  <time>2026-09-01T19:53:14Z</time>
  <course>35.9</course>
  <speed>23.367209931868203</speed>
  <fix>3d</fix>
</trkpt>
<trkpt lat="-27.2801077" lon="151.2915128">
  <ele>402.84</ele>
  <time>2026-09-01T19:53:14Z</time>
  <course>35.3</course>
  <speed>23.41</speed>
  <fix>3d</fix>
</trkpt>
<trkpt lat="-27.2800735" lon="151.2915399">
  <ele>400.75</ele>
  <time>2026-09-01T19:53:14Z</time>
  <course>35.92</course>
  <speed>23.397480633606687</speed>
  <fix>3d</fix>
</trkpt>
<trkpt lat="-27.2801077" lon="151.2915128">
  <ele>402.84</ele>
  <time>2026-09-01T19:53:14Z</time>
  <course>35.3</course>
  <speed>23.41</speed>
  <fix>3d</fix>
</trkpt>
<trkpt lat="-27.2800562" lon="151.2915536">
  <ele>399.69</ele>
  <time>2026-09-01T19:53:14Z</time>
  <course>35.91</course>
  <speed>23.44746041685538</speed>
  <fix>3d</fix>
</trkpt>
<trkpt lat="-27.2800734" lon="151.2915401">
  <ele>400.89</ele>
  <time>2026-09-01T19:53:14Z</time>
  <course>35.28</course>
  <speed>23.4</speed>
  <fix>3d</fix>
</trkpt>
<trkpt lat="-27.280039" lon="151.2915674">
  <ele>398.59</ele>
  <time>2026-09-01T19:53:14Z</time>
  <course>35.87</course>
  <speed>23.491670864372335</speed>
  <fix>3d</fix>
</trkpt>
<trkpt lat="-27.2800734" lon="151.2915401">
  <ele>400.89</ele>
  <time>2026-09-01T19:53:14Z</time>
  <course>35.28</course>
  <speed>23.4</speed>
  <fix>3d</fix>
</trkpt>
<trkpt lat="-27.2800217" lon="151.2915812">
  <ele>397.44</ele>
  <time>2026-09-01T19:53:14Z</time>
  <course>35.87</course>
  <speed>23.541650324478105</speed>
  <fix>3d</fix>
</trkpt>
<trkpt lat="-27.280039" lon="151.2915676">
  <ele>398.75</ele>
  <time>2026-09-01T19:53:14Z</time>
  <course>35.26</course>
  <speed>23.48</speed>
  <fix>3d</fix>
</trkpt>
<trkpt lat="-27.2800043" lon="151.2915949">
  <ele>396.25</ele>
  <time>2026-09-01T19:53:14Z</time>
  <course>35.86</course>
  <speed>23.585862290787674</speed>
  <fix>3d</fix>
</trkpt>
<trkpt lat="-27.280039" lon="151.2915676">
  <ele>398.75</ele>
  <time>2026-09-01T19:53:14Z</time>
  <course>35.26</course>
  <speed>23.48</speed>
  <fix>3d</fix>
</trkpt>
<trkpt lat="-27.279987" lon="151.2916087">
  <ele>395.02</ele>
  <time>2026-09-01T19:53:14Z</time>
  <course>35.87</course>
  <speed>23.63584142779774</speed>
  <fix>3d</fix>
</trkpt>
<trkpt lat="-27.2800046" lon="151.2915949">
  <ele>396.44</ele>
  <time>2026-09-01T19:53:14Z</time>
  <course>35.24</course>
  <speed>23.57</speed>
  <fix>3d</fix>
</trkpt>
<trkpt lat="-27.2799696" lon="151.2916226">
  <ele>393.74</ele>
  <time>2026-09-01T19:53:14Z</time>
  <course>35.89</course>
  <speed>23.6939907993567</speed>
  <fix>3d</fix>
</trkpt>
<trkpt lat="-27.2800046" lon="151.2915949">
  <ele>396.44</ele>
  <time>2026-09-01T19:53:14Z</time>
  <course>35.24</course>
  <speed>23.57</speed>
  <fix>3d</fix>
</trkpt>
<trkpt lat="-27.279952" lon="151.2916365">
  <ele>392.42</ele>
  <time>2026-09-01T19:53:14Z</time>
  <course>35.87</course>
  <speed>23.7660766640184</speed>
  <fix>3d</fix>
</trkpt>
<trkpt lat="-27.2799699" lon="151.2916225">
  <ele>393.96</ele>
  <time>2026-09-01T19:53:14Z</time>
  <course>35.22</course>
  <speed>23.68</speed>
  <fix>3d</fix>
</trkpt>
<trkpt lat="-27.2799345" lon="151.2916504">
  <ele>391.07</ele>
  <time>2026-09-01T19:53:14Z</time>
  <course>35.82</course>
  <speed>23.82422716480012</speed>
  <fix>3d</fix>
</trkpt>
<trkpt lat="-27.2799699" lon="151.2916225">
  <ele>393.96</ele>
  <time>2026-09-01T19:53:14Z</time>
  <course>35.22</course>
  <speed>23.68</speed>
  <fix>3d</fix>
</trkpt>
<trkpt lat="-27.279917" lon="151.2916644">
  <ele>389.68</ele>
  <time>2026-09-01T19:53:14Z</time>
  <course>35.78</course>
  <speed>23.896313523219433</speed>
  <fix>3d</fix>
</trkpt>
<trkpt lat="-27.279935" lon="151.2916502">
  <ele>391.34</ele>
  <time>2026-09-01T19:53:14Z</time>
  <course>35.2</course>
  <speed>23.81</speed>
  <fix>3d</fix>
</trkpt>
<trkpt lat="-27.2798994" lon="151.2916783">
  <ele>388.26</ele>
  <time>2026-09-01T19:53:14Z</time>
  <course>35.77</course>
  <speed>23.976573983786757</speed>
  <fix>3d</fix>
</trkpt>
<trkpt lat="-27.279935" lon="151.2916502">
  <ele>391.34</ele>
  <time>2026-09-01T19:53:14Z</time>
  <course>35.2</course>
  <speed>23.81</speed>
  <fix>3d</fix>
</trkpt>
<trkpt lat="-27.2798817" lon="151.2916923">
  <ele>386.79</ele>
  <time>2026-09-01T19:53:14Z</time>
  <course>35.76</course>
  <speed>24.034726959131447</speed>
  <fix>3d</fix>
</trkpt>
<trkpt lat="-27.2799" lon="151.291678">
  <ele>388.56</ele>
  <time>2026-09-01T19:53:14Z</time>
  <course>35.17</course>
  <speed>23.95</speed>
  <fix>3d</fix>
</trkpt>
<trkpt lat="-27.279864" lon="151.2917064">
  <ele>385.3</ele>
  <time>2026-09-01T19:53:14Z</time>
  <course>35.77</course>
  <speed>24.10681438929665</speed>
  <fix>3d</fix>
</trkpt>
<trkpt lat="-27.2799" lon="151.291678">
  <ele>388.56</ele>
  <time>2026-09-01T19:53:14Z</time>
  <course>35.17</course>
  <speed>23.95</speed>
  <fix>3d</fix>
</trkpt>
<trkpt lat="-27.2798463" lon="151.2917205">
  <ele>383.77</ele>
  <time>2026-09-01T19:53:14Z</time>
  <course>35.78</course>
  <speed>24.18707919530591</speed>
  <fix>3d</fix>
</trkpt>
<trkpt lat="-27.2798648" lon="151.2917059">
  <ele>385.65</ele>
  <time>2026-09-01T19:53:14Z</time>
  <course>35.15</course>
  <speed>24.09</speed>
  <fix>3d</fix>
</trkpt>
<trkpt lat="-27.2798284" lon="151.2917346">
  <ele>382.21</ele>
  <time>2026-09-01T19:53:14Z</time>
  <course>35.78</course>
  <speed>24.273100337616537</speed>
  <fix>3d</fix>
</trkpt>
<trkpt lat="-27.2798648" lon="151.2917059">
  <ele>385.65</ele>
  <time>2026-09-01T19:53:14Z</time>
  <course>35.15</course>
  <speed>24.09</speed>
  <fix>3d</fix>
</trkpt>
<trkpt lat="-27.2798105" lon="151.2917487">
  <ele>380.61</ele>
  <time>2026-09-01T19:53:14Z</time>
  <course>35.76</course>
  <speed>24.353367323637197</speed>
  <fix>3d</fix>
</trkpt>
<trkpt lat="-27.2798292" lon="151.291734">
  <ele>382.6</ele>
  <time>2026-09-01T19:53:14Z</time>
  <course>35.13</course>
  <speed>24.25</speed>
  <fix>3d</fix>
</trkpt>
<trkpt lat="-27.2797927" lon="151.2917629">
  <ele>378.99</ele>
  <time>2026-09-01T19:53:14Z</time>
  <course>35.75</course>
  <speed>24.425455983461188</speed>
  <fix>3d</fix>
</trkpt>
<trkpt lat="-27.2798292" lon="151.291734">
  <ele>382.6</ele>
  <time>2026-09-01T19:53:14Z</time>
  <course>35.13</course>
  <speed>24.25</speed>
  <fix>3d</fix>
</trkpt>
<trkpt lat="-27.2797748" lon="151.2917771">
  <ele>377.33</ele>
  <time>2026-09-01T19:53:14Z</time>
  <course>35.75</course>
  <speed>24.519657420119064</speed>
  <fix>3d</fix>
</trkpt>
<trkpt lat="-27.2797935" lon="151.2917623">
  <ele>379.41</ele>
  <time>2026-09-01T19:53:14Z</time>
  <course>35.1</course>
  <speed>24.41</speed>
  <fix>3d</fix>
</trkpt>
<trkpt lat="-27.2797568" lon="151.2917913">
  <ele>375.65</ele>
  <time>2026-09-01T19:53:14Z</time>
  <course>35.79</course>
  <speed>24.60567820646283</speed>
  <fix>3d</fix>
</trkpt>
<trkpt lat="-27.2797935" lon="151.2917623">
  <ele>379.41</ele>
  <time>2026-09-01T19:53:14Z</time>
  <course>35.1</course>
  <speed>24.41</speed>
  <fix>3d</fix>
</trkpt>
<trkpt lat="-27.2797388" lon="151.2918055">
  <ele>373.94</ele>
  <time>2026-09-01T19:53:14Z</time>
  <course>35.79</course>
  <speed>24.68351879291119</speed>
  <fix>3d</fix>
</trkpt>
<trkpt lat="-27.2797574" lon="151.2917909">
  <ele>376.11</ele>
  <time>2026-09-01T19:53:14Z</time>
  <course>35.09</course>
  <speed>24.59</speed>
  <fix>3d</fix>
</trkpt>
<trkpt lat="-27.2797205" lon="151.29182">
  <ele>372.24</ele>
  <time>2026-09-01T19:53:14Z</time>
  <course>35.72</course>
  <speed>25.574020020325314</speed>
  <fix>3d</fix>
</trkpt>
<trkpt lat="-27.2797574" lon="151.2917909">
  <ele>376.11</ele>
  <time>2026-09-01T19:53:14Z</time>
  <course>35.09</course>
  <speed>24.59</speed>
  <fix>3d</fix>
</trkpt>
<trkpt lat="-27.2797012" lon="151.2918352">
  <ele>370.77</ele>
  <time>2026-09-01T19:53:14Z</time>
  <course>35.7</course>
  <speed>27.130576846060606</speed>
  <fix>3d</fix>
</trkpt>
<trkpt lat="-27.2797204" lon="151.2918201">
  <ele>372.84</ele>
  <time>2026-09-01T19:53:14Z</time>
  <course>35.07</course>
  <speed>25.89</speed>
  <fix>3d</fix>
</trkpt>
<trkpt lat="-27.2796809" lon="151.2918513">
  <ele>369.6</ele>
  <time>2026-09-01T19:53:14Z</time>
  <course>35.68</course>
  <speed>28.24309650162319</speed>
  <fix>3d</fix>
</trkpt>
<trkpt lat="-27.2797204" lon="151.2918201">
  <ele>372.84</ele>
  <time>2026-09-01T19:53:14Z</time>
  <course>35.07</course>
  <speed>25.89</speed>
  <fix>3d</fix>
</trkpt>
<trkpt lat="-27.2796599" lon="151.291868">
  <ele>368.71</ele>
  <time>2026-09-01T19:53:14Z</time>
  <course>35.67</course>
  <speed>28.881288059918656</speed>
  <fix>3d</fix>
</trkpt>
<trkpt lat="-27.2796809" lon="151.2918513">
  <ele>370.22</ele>
  <time>2026-09-01T19:53:14Z</time>
  <course>35.05</course>
  <speed>28.0</speed>
  <fix>3d</fix>
</trkpt>
<trkpt lat="-27.2796386" lon="151.2918848">
  <ele>368.04</ele>
  <time>2026-09-01T19:53:14Z</time>
  <course>35.64</course>
  <speed>29.161462583347905</speed>
  <fix>3d</fix>
</trkpt>
<trkpt lat="-27.2796809" lon="151.2918513">
  <ele>370.22</ele>
  <time>2026-09-01T19:53:14Z</time>
  <course>35.05</course>
  <speed>28.0</speed>
  <fix>3d</fix>
</trkpt>
<trkpt lat="-27.2796173" lon="151.2919017">
  <ele>367.57</ele>
  <time>2026-09-01T19:53:14Z</time>
  <course>35.63</course>
  <speed>29.191753972654674</speed>
  <fix>3d</fix>
</trkpt>
<trkpt lat="-27.2796387" lon="151.2918846">
  <ele>368.62</ele>
  <time>2026-09-01T19:53:14Z</time>
  <course>35.03</course>
  <speed>29.1</speed>
  <fix>3d</fix>
</trkpt>
<trkpt lat="-27.2795959" lon="151.2919185">
  <ele>367.26</ele>
  <time>2026-09-01T19:53:14Z</time>
  <course>35.62</course>
  <speed>29.06968868082354</speed>
  <fix>3d</fix>
</trkpt>
<trkpt lat="-27.2796387" lon="151.2918846">
  <ele>368.62</ele>
  <time>2026-09-01T19:53:14Z</time>
  <course>35.03</course>
  <speed>29.1</speed>
  <fix>3d</fix>
</trkpt>
<trkpt lat="-27.2795749" lon="151.2919352">
  <ele>367.09</ele>
  <time>2026-09-01T19:53:14Z</time>
  <course>35.62</course>
  <speed>28.84192087916476</speed>
  <fix>3d</fix>
</trkpt>
<trkpt lat="-27.2795958" lon="151.2919185">
  <ele>367.81</ele>
  <time>2026-09-01T19:53:14Z</time>
  <course>35.03</course>
  <speed>29.12</speed>
  <fix>3d</fix>
</trkpt>
<trkpt lat="-27.2795538" lon="151.2919518">
  <ele>367.03</ele>
  <time>2026-09-01T19:53:14Z</time>
  <course>35.65</course>
  <speed>28.542067199136085</speed>
  <fix>3d</fix>
</trkpt>
<trkpt lat="-27.2795958" lon="151.2919185">
  <ele>367.81</ele>
  <time>2026-09-01T19:53:14Z</time>
  <course>35.03</course>
  <speed>29.12</speed>
  <fix>3d</fix>
</trkpt>
<trkpt lat="-27.279533" lon="151.2919682">
  <ele>367.07</ele>
  <time>2026-09-01T19:53:14Z</time>
  <course>35.65</course>
  <speed>28.19798574366616</speed>
  <fix>3d</fix>
</trkpt>
<trkpt lat="-27.2795532" lon="151.291952">
  <ele>367.57</ele>
  <time>2026-09-01T19:53:14Z</time>
  <course>35.02</course>
  <speed>28.65</speed>
  <fix>3d</fix>
</trkpt>
<trkpt lat="-27.2795124" lon="151.2919844">
  <ele>367.2</ele>
  <time>2026-09-01T19:53:14Z</time>
  <course>35.65</course>
  <speed>27.839974856310487</speed>
  <fix>3d</fix>
</trkpt>
<trkpt lat="-27.2795532" lon="151.291952">
  <ele>367.57</ele>
  <time>2026-09-01T19:53:14Z</time>
  <course>35.02</course>
  <speed>28.65</speed>
  <fix>3d</fix>
</trkpt>
<trkpt lat="-27.279492" lon="151.2920005">
  <ele>367.41</ele>
  <time>2026-09-01T19:53:14Z</time>
  <course>35.68</course>
  <speed>27.531939633814396</speed>
  <fix>3d</fix>
</trkpt>
<trkpt lat="-27.2795116" lon="151.2919849">
  <ele>367.74</ele>
  <time>2026-09-01T19:53:14Z</time>
  <course>35.03</course>
  <speed>28.01</speed>
  <fix>3d</fix>
</trkpt>
<trkpt lat="-27.2794717" lon="151.2920165">
  <ele>367.67</ele>
  <time>2026-09-01T19:53:14Z</time>
  <course>35.66</course>
  <speed>27.27387944535944</speed>
  <fix>3d</fix>
</trkpt>
<trkpt lat="-27.2795116" lon="151.2919849">
  <ele>367.74</ele>
  <time>2026-09-01T19:53:14Z</time>
  <course>35.03</course>
  <speed>28.01</speed>
  <fix>3d</fix>
</trkpt>
<trkpt lat="-27.2794517" lon="151.2920323">
  <ele>367.97</ele>
  <time>2026-09-01T19:53:14Z</time>
  <course>35.61</course>
  <speed>27.096099350275495</speed>
  <fix>3d</fix>
</trkpt>
<trkpt lat="-27.2794709" lon="151.2920171">
  <ele>368.19</ele>
  <time>2026-09-01T19:53:14Z</time>
  <course>35.03</course>
  <speed>27.45</speed>
  <fix>3d</fix>
</trkpt>
<trkpt lat="-27.2794317" lon="151.292048">
  <ele>368.29</ele>
  <time>2026-09-01T19:53:14Z</time>
  <course>35.59</course>
  <speed>26.996151577586016</speed>
  <fix>3d</fix>
</trkpt>
<trkpt lat="-27.2794709" lon="151.2920171">
  <ele>368.19</ele>
  <time>2026-09-01T19:53:14Z</time>
  <course>35.03</course>
  <speed>27.45</speed>
  <fix>3d</fix>
</trkpt>
<trkpt lat="-27.2794117" lon="151.2920638">
  <ele>368.62</ele>
  <time>2026-09-01T19:53:14Z</time>
  <course>35.61</course>
  <speed>26.932250184490712</speed>
  <fix>3d</fix>
</trkpt>
<trkpt lat="-27.2794307" lon="151.2920487">
  <ele>368.78</ele>
  <time>2026-09-01T19:53:14Z</time>
  <course>35.02</course>
  <speed>27.14</speed>
  <fix>3d</fix>
</trkpt>
<trkpt lat="-27.2793918" lon="151.2920794">
  <ele>368.95</ele>
  <time>2026-09-01T19:53:14Z</time>
  <course>35.66</course>
  <speed>26.890468571596145</speed>
  <fix>3d</fix>
</trkpt>
<trkpt lat="-27.2794307" lon="151.2920487">
  <ele>368.78</ele>
  <time>2026-09-01T19:53:14Z</time>
  <course>35.02</course>
  <speed>27.14</speed>
  <fix>3d</fix>
</trkpt>
<trkpt lat="-27.2793719" lon="151.292095">
  <ele>369.27</ele>
  <time>2026-09-01T19:53:14Z</time>
  <course>35.67</course>
  <speed>26.868349409667875</speed>
  <fix>3d</fix>
</trkpt>
<trkpt lat="-27.2793909" lon="151.2920801">
  <ele>369.43</ele>
  <time>2026-09-01T19:53:14Z</time>
  <course>35.02</course>
  <speed>27.01</speed>
  <fix>3d</fix>
</trkpt>
<trkpt lat="-27.2793521" lon="151.2921107">
  <ele>369.59</ele>
  <time>2026-09-01T19:53:14Z</time>
  <course>35.7</course>
  <speed>26.838040166897432</speed>
  <fix>3d</fix>
</trkpt>
<trkpt lat="-27.2793909" lon="151.2920801">
  <ele>369.43</ele>
  <time>2026-09-01T19:53:14Z</time>
  <course>35.02</course>
  <speed>27.01</speed>
  <fix>3d</fix>
</trkpt>
<trkpt lat="-27.2793323" lon="151.2921263">
  <ele>369.9</ele>
  <time>2026-09-01T19:53:14Z</time>
  <course>35.68</course>
  <speed>26.824112287268708</speed>
  <fix>3d</fix>
</trkpt>
<trkpt lat="-27.2793512" lon="151.2921114">
  <ele>370.05</ele>
  <time>2026-09-01T19:53:14Z</time>
  <course>35.03</course>
  <speed>26.94</speed>
  <fix>3d</fix>
</trkpt>
<trkpt lat="-27.2793124" lon="151.2921419">
  <ele>370.19</ele>
  <time>2026-09-01T19:53:14Z</time>
  <course>35.65</course>
  <speed>26.818376162624013</speed>
  <fix>3d</fix>
</trkpt>
<trkpt lat="-27.2793512" lon="151.2921114">
  <ele>370.05</ele>
  <time>2026-09-01T19:53:14Z</time>
  <course>35.03</course>
  <speed>26.94</speed>
  <fix>3d</fix>
</trkpt>
<trkpt lat="-27.2792926" lon="151.2921575">
  <ele>370.47</ele>
  <time>2026-09-01T19:53:14Z</time>
  <course>35.68</course>
  <speed>26.810184631964024</speed>
  <fix>3d</fix>
</trkpt>
<trkpt lat="-27.2793115" lon="151.2921427">
  <ele>370.63</ele>
  <time>2026-09-01T19:53:14Z</time>
  <course>35.03</course>
  <speed>26.9</speed>
  <fix>3d</fix>
</trkpt>
<trkpt lat="-27.2792728" lon="151.2921732">
  <ele>370.74</ele>
  <time>2026-09-01T19:53:14Z</time>
  <course>35.66</course>
  <speed>26.810184631964024</speed>
  <fix>3d</fix>
</trkpt>
<trkpt lat="-27.2793115" lon="151.2921427">
  <ele>370.63</ele>
  <time>2026-09-01T19:53:14Z</time>
  <course>35.03</course>
  <speed>26.9</speed>
  <fix>3d</fix>
</trkpt>
<trkpt lat="-27.279253" lon="151.2921888">
  <ele>371.0</ele>
  <time>2026-09-01T19:53:14Z</time>
  <course>35.7</course>
  <speed>26.810184631964024</speed>
  <fix>3d</fix>
</trkpt>
<trkpt lat="-27.2792719" lon="151.2921739">
  <ele>371.16</ele>
  <time>2026-09-01T19:53:14Z</time>
  <course>35.02</course>
  <speed>26.88</speed>
  <fix>3d</fix>
</trkpt>
<trkpt lat="-27.2792332" lon="151.2922044">
  <ele>371.25</ele>
  <time>2026-09-01T19:53:14Z</time>
  <course>35.65</course>
  <speed>26.824112287268708</speed>
  <fix>3d</fix>
</trkpt>
<trkpt lat="-27.2792719" lon="151.2921739">
  <ele>371.16</ele>
  <time>2026-09-01T19:53:14Z</time>
  <course>35.02</course>
  <speed>26.88</speed>
  <fix>3d</fix>
</trkpt>
<trkpt lat="-27.2792134" lon="151.29222">
  <ele>371.48</ele>
  <time>2026-09-01T19:53:14Z</time>
  <course>35.65</course>
  <speed>26.818376162624013</speed>
  <fix>3d</fix>
</trkpt>
<trkpt lat="-27.2792324" lon="151.2922051">
  <ele>371.64</ele>
  <time>2026-09-01T19:53:14Z</time>
  <course>35.02</course>
  <speed>26.87</speed>
  <fix>3d</fix>
</trkpt>
<trkpt lat="-27.2791936" lon="151.2922356">
  <ele>371.71</ele>
  <time>2026-09-01T19:53:14Z</time>
  <course>35.65</course>
  <speed>26.832303292859525</speed>
  <fix>3d</fix>
</trkpt>
<trkpt lat="-27.2792324" lon="151.2922051">
  <ele>371.64</ele>
  <time>2026-09-01T19:53:14Z</time>
  <course>35.02</course>
  <speed>26.87</speed>
  <fix>3d</fix>
</trkpt>
<trkpt lat="-27.2791737" lon="151.2922512">
  <ele>371.93</ele>
  <time>2026-09-01T19:53:14Z</time>
  <course>35.68</course>
  <speed>26.840495524486872</speed>
  <fix>3d</fix>
</trkpt>
<trkpt lat="-27.2791929" lon="151.2922363">
  <ele>372.09</ele>
  <time>2026-09-01T19:53:14Z</time>
  <course>35.01</course>
  <speed>26.87</speed>
  <fix>3d</fix>
</trkpt>
<trkpt lat="-27.2791541" lon="151.2922667">
  <ele>372.15</ele>
  <time>2026-09-01T19:53:14Z</time>
  <course>35.63</course>
  <speed>26.854422354614147</speed>
  <fix>3d</fix>
</trkpt>
<trkpt lat="-27.2791929" lon="151.2922363">
  <ele>372.09</ele>
  <time>2026-09-01T19:53:14Z</time>
  <course>35.01</course>
  <speed>26.87</speed>
  <fix>3d</fix>
</trkpt>
<trkpt lat="-27.2791343" lon="151.2922824">
  <ele>372.36</ele>
  <time>2026-09-01T19:53:14Z</time>
  <course>35.59</course>
  <speed>26.870809440729545</speed>
  <fix>3d</fix>
</trkpt>
<trkpt lat="-27.2791534" lon="151.2922674">
  <ele>372.51</ele>
  <time>2026-09-01T19:53:14Z</time>
  <course>34.99</course>
  <speed>26.88</speed>
  <fix>3d</fix>
</trkpt>
<trkpt lat="-27.2791144" lon="151.292298">
  <ele>372.56</ele>
  <time>2026-09-01T19:53:14Z</time>
  <course>35.63</course>
  <speed>26.87900481788714</speed>
  <fix>3d</fix>
</trkpt>
<trkpt lat="-27.2791534" lon="151.2922674">
  <ele>372.51</ele>
  <time>2026-09-01T19:53:14Z</time>
  <course>34.99</course>
  <speed>26.88</speed>
  <fix>3d</fix>
</trkpt>
<trkpt lat="-27.2790946" lon="151.2923136">
  <ele>372.76</ele>
  <time>2026-09-01T19:53:14Z</time>
  <course>35.63</course>
  <speed>26.892930297756692</speed>
  <fix>3d</fix>
</trkpt>
<trkpt lat="-27.2791138" lon="151.2922985">
  <ele>372.9</ele>
  <time>2026-09-01T19:53:14Z</time>
  <course>34.97</course>
  <speed>26.9</speed>
  <fix>3d</fix>
</trkpt>
<trkpt lat="-27.2790746" lon="151.2923293">
  <ele>372.95</ele>
  <time>2026-09-01T19:53:14Z</time>
  <course>35.64</course>
  <speed>26.901126370470067</speed>
  <fix>3d</fix>
</trkpt>
<trkpt lat="-27.2791138" lon="151.2922985">
  <ele>372.9</ele>
  <time>2026-09-01T19:53:14Z</time>
  <course>34.97</course>
  <speed>26.9</speed>
  <fix>3d</fix>
</trkpt>
<trkpt lat="-27.2790547" lon="151.292345">
  <ele>373.14</ele>
  <time>2026-09-01T19:53:14Z</time>
  <course>35.7</course>
  <speed>26.915051551130272</speed>
  <fix>3d</fix>
</trkpt>
<trkpt lat="-27.2790741" lon="151.2923297">
  <ele>373.27</ele>
  <time>2026-09-01T19:53:14Z</time>
  <course>34.96</course>
  <speed>26.91</speed>
  <fix>3d</fix>
</trkpt>
<trkpt lat="-27.2790349" lon="151.2923606">
  <ele>373.32</ele>
  <time>2026-09-01T19:53:14Z</time>
  <course>35.76</course>
  <speed>26.928976957916543</speed>
  <fix>3d</fix>
</trkpt>
<trkpt lat="-27.2790741" lon="151.2923297">
  <ele>373.27</ele>
  <time>2026-09-01T19:53:14Z</time>
  <course>34.96</course>
  <speed>26.91</speed>
  <fix>3d</fix>
</trkpt>
<trkpt lat="-27.279015" lon="151.2923762">
  <ele>373.5</ele>
  <time>2026-09-01T19:53:14Z</time>
  <course>35.72</course>
  <speed>26.948634473753955</speed>
  <fix>3d</fix>
</trkpt>
<trkpt lat="-27.2790345" lon="151.2923609">
  <ele>373.63</ele>
  <time>2026-09-01T19:53:14Z</time>
  <course>34.97</course>
  <speed>26.94</speed>
  <fix>3d</fix>
</trkpt>
<trkpt lat="-27.2789951" lon="151.2923919">
  <ele>373.68</ele>
  <time>2026-09-01T19:53:14Z</time>
  <course>35.71</course>
  <speed>26.9625610801348</speed>
  <fix>3d</fix>
</trkpt>
<trkpt lat="-27.2790345" lon="151.2923609">
  <ele>373.63</ele>
  <time>2026-09-01T19:53:14Z</time>
  <course>34.97</course>
  <speed>26.94</speed>
  <fix>3d</fix>
</trkpt>
<trkpt lat="-27.2789753" lon="151.2924075">
  <ele>373.85</ele>
  <time>2026-09-01T19:53:14Z</time>
  <course>35.72</course>
  <speed>26.976487910771485</speed>
  <fix>3d</fix>
</trkpt>
<trkpt lat="-27.2789949" lon="151.2923922">
  <ele>373.97</ele>
  <time>2026-09-01T19:53:14Z</time>
  <course>34.99</course>
  <speed>26.97</speed>
  <fix>3d</fix>
</trkpt>
<trkpt lat="-27.2789554" lon="151.2924232">
  <ele>374.03</ele>
  <time>2026-09-01T19:53:14Z</time>
  <course>35.69</course>
  <speed>26.990414965316855</speed>
  <fix>3d</fix>
</trkpt>
<trkpt lat="-27.2789949" lon="151.2923922">
  <ele>373.97</ele>
  <time>2026-09-01T19:53:14Z</time>
  <course>34.99</course>
  <speed>26.97</speed>
  <fix>3d</fix>
</trkpt>
<trkpt lat="-27.2789355" lon="151.2924389">
  <ele>374.19</ele>
  <time>2026-09-01T19:53:14Z</time>
  <course>35.7</course>
  <speed>27.00434224342448</speed>
  <fix>3d</fix>
</trkpt>
<trkpt lat="-27.2789552" lon="151.2924234">
  <ele>374.31</ele>
  <time>2026-09-01T19:53:14Z</time>
  <course>35.0</course>
  <speed>26.99</speed>
  <fix>3d</fix>
</trkpt>
<trkpt lat="-27.2789156" lon="151.2924546">
  <ele>374.36</ele>
  <time>2026-09-01T19:53:14Z</time>
  <course>35.76</course>
  <speed>27.018269744748647</speed>
  <fix>3d</fix>
</trkpt>
<trkpt lat="-27.2789552" lon="151.2924234">
  <ele>374.31</ele>
  <time>2026-09-01T19:53:14Z</time>
  <course>35.0</course>
  <speed>26.99</speed>
  <fix>3d</fix>
</trkpt>
<trkpt lat="-27.2788957" lon="151.2924702">
  <ele>374.52</ele>
  <time>2026-09-01T19:53:14Z</time>
  <course>35.73</course>
  <speed>27.024007844877488</speed>
  <fix>3d</fix>
</trkpt>
<trkpt lat="-27.2789154" lon="151.2924548">
  <ele>374.63</ele>
  <time>2026-09-01T19:53:14Z</time>
  <course>35.01</course>
  <speed>27.02</speed>
  <fix>3d</fix>
</trkpt>
<trkpt lat="-27.2788758" lon="151.2924859">
  <ele>374.68</ele>
  <time>2026-09-01T19:53:14Z</time>
  <course>35.72</course>
  <speed>27.037936311782378</speed>
  <fix>3d</fix>
</trkpt>
<trkpt lat="-27.2789154" lon="151.2924548">
  <ele>374.63</ele>
  <time>2026-09-01T19:53:14Z</time>
  <course>35.01</course>
  <speed>27.02</speed>
  <fix>3d</fix>
</trkpt>
<trkpt lat="-27.2788558" lon="151.2925018">
  <ele>374.84</ele>
  <time>2026-09-01T19:53:14Z</time>
  <course>35.72</course>
  <speed>27.05186500040247</speed>
  <fix>3d</fix>
</trkpt>
<trkpt lat="-27.2788755" lon="151.2924862">
  <ele>374.95</ele>
  <time>2026-09-01T19:53:14Z</time>
  <course>35.02</course>
  <speed>27.04</speed>
  <fix>3d</fix>
</trkpt>
<trkpt lat="-27.2788358" lon="151.2925175">
  <ele>375.01</ele>
  <time>2026-09-01T19:53:14Z</time>
  <course>35.73</course>
  <speed>27.06579391039546</speed>
  <fix>3d</fix>
</trkpt>
<trkpt lat="-27.2788755" lon="151.2924862">
  <ele>374.95</ele>
  <time>2026-09-01T19:53:14Z</time>
  <course>35.02</course>
  <speed>27.04</speed>
  <fix>3d</fix>
</trkpt>
<trkpt lat="-27.2788159" lon="151.2925332">
  <ele>375.16</ele>
  <time>2026-09-01T19:53:14Z</time>
  <course>35.72</course>
  <speed>27.079723041419758</speed>
  <fix>3d</fix>
</trkpt>
<trkpt lat="-27.2788357" lon="151.2925176">
  <ele>375.26</ele>
  <time>2026-09-01T19:53:14Z</time>
  <course>35.01</course>
  <speed>27.07</speed>
  <fix>3d</fix>
</trkpt>
<trkpt lat="-27.2787959" lon="151.292549">
  <ele>375.32</ele>
  <time>2026-09-01T19:53:14Z</time>
  <course>35.68</course>
  <speed>27.093652393134448</speed>
  <fix>3d</fix>
</trkpt>
<trkpt lat="-27.2788357" lon="151.2925176">
  <ele>375.26</ele>
  <time>2026-09-01T19:53:14Z</time>
  <course>35.01</course>
  <speed>27.07</speed>
  <fix>3d</fix>
</trkpt>
<trkpt lat="-27.278776" lon="151.2925647">
  <ele>375.48</ele>
  <time>2026-09-01T19:53:14Z</time>
  <course>35.68</course>
  <speed>27.11576847518801</speed>
  <fix>3d</fix>
</trkpt>
<trkpt lat="-27.2787959" lon="151.292549">
  <ele>375.57</ele>
  <time>2026-09-01T19:53:14Z</time>
  <course>35.01</course>
  <speed>27.1</speed>
  <fix>3d</fix>
</trkpt>
<trkpt lat="-27.2787559" lon="151.2925805">
  <ele>375.63</ele>
  <time>2026-09-01T19:53:14Z</time>
  <course>35.72</course>
  <speed>27.129697749882876</speed>
  <fix>3d</fix>
</trkpt>
<trkpt lat="-27.2787959" lon="151.292549">
  <ele>375.57</ele>
  <time>2026-09-01T19:53:14Z</time>
  <course>35.01</course>
  <speed>27.1</speed>
  <fix>3d</fix>
</trkpt>
<trkpt lat="-27.2787361" lon="151.2925962">
  <ele>375.78</ele>
  <time>2026-09-01T19:53:14Z</time>
  <course>35.7</course>
  <speed>27.15181393572076</speed>
  <fix>3d</fix>
</trkpt>
<trkpt lat="-27.278756" lon="151.2925804">
  <ele>375.86</ele>
  <time>2026-09-01T19:53:14Z</time>
  <course>35.0</course>
  <speed>27.13</speed>
  <fix>3d</fix>
</trkpt>
<trkpt lat="-27.278716" lon="151.292612">
  <ele>375.93</ele>
  <time>2026-09-01T19:53:14Z</time>
  <course>35.68</course>
  <speed>27.16574313358646</speed>
  <fix>3d</fix>
</trkpt>
<trkpt lat="-27.278756" lon="151.2925804">
  <ele>375.86</ele>
  <time>2026-09-01T19:53:14Z</time>
  <course>35.0</course>
  <speed>27.13</speed>
  <fix>3d</fix>
</trkpt>
<trkpt lat="-27.278696" lon="151.2926278">
  <ele>376.09</ele>
  <time>2026-09-01T19:53:14Z</time>
  <course>35.69</course>
  <speed>27.182119122687986</speed>
  <fix>3d</fix>
</trkpt>
<trkpt lat="-27.278716" lon="151.2926119">
  <ele>376.16</ele>
  <time>2026-09-01T19:53:14Z</time>
  <course>34.99</course>
  <speed>27.16</speed>
  <fix>3d</fix>
</trkpt>
<trkpt lat="-27.2786759" lon="151.2926436">
  <ele>376.24</ele>
  <time>2026-09-01T19:53:14Z</time>
  <course>35.67</course>
  <speed>27.19604750694483</speed>
  <fix>3d</fix>
</trkpt>
<trkpt lat="-27.278716" lon="151.2926119">
  <ele>376.16</ele>
  <time>2026-09-01T19:53:14Z</time>
  <course>34.99</course>
  <speed>27.16</speed>
  <fix>3d</fix>
</trkpt>
<trkpt lat="-27.2786556" lon="151.2926596">
  <ele>376.39</ele>
  <time>2026-09-01T19:53:14Z</time>
  <course>35.64</course>
  <speed>27.218164890381573</speed>
  <fix>3d</fix>
</trkpt>
<trkpt lat="-27.2786761" lon="151.2926434">
  <ele>376.45</ele>
  <time>2026-09-01T19:53:14Z</time>
  <course>34.98</course>
  <speed>27.18</speed>
  <fix>3d</fix>
</trkpt>
<trkpt lat="-27.2786355" lon="151.2926754">
  <ele>376.54</ele>
  <time>2026-09-01T19:53:14Z</time>
  <course>35.63</course>
  <speed>27.234546076628487</speed>
  <fix>3d</fix>
</trkpt>
<trkpt lat="-27.2786761" lon="151.2926434">
  <ele>376.45</ele>
  <time>2026-09-01T19:53:14Z</time>
  <course>34.98</course>
  <speed>27.18</speed>
  <fix>3d</fix>
</trkpt>
<trkpt lat="-27.2786154" lon="151.2926913">
  <ele>376.69</ele>
  <time>2026-09-01T19:53:14Z</time>
  <course>35.69</course>
  <speed>27.248473351731104</speed>
  <fix>3d</fix>
</trkpt>
<trkpt lat="-27.278636" lon="151.2926749">
  <ele>376.74</ele>
  <time>2026-09-01T19:53:14Z</time>
  <course>34.96</course>
  <speed>27.21</speed>
  <fix>3d</fix>
</trkpt>
<trkpt lat="-27.2785953" lon="151.2927071">
  <ele>376.84</ele>
  <time>2026-09-01T19:53:14Z</time>
  <course>35.71</course>
  <speed>27.27632856525966</speed>
  <fix>3d</fix>
</trkpt>
<trkpt lat="-27.278636" lon="151.2926749">
  <ele>376.74</ele>
  <time>2026-09-01T19:53:14Z</time>
  <course>34.96</course>
  <speed>27.21</speed>
  <fix>3d</fix>
</trkpt>
<trkpt lat="-27.2785752" lon="151.2927229">
  <ele>376.99</ele>
  <time>2026-09-01T19:53:14Z</time>
  <course>35.73</course>
  <speed>27.28206737034421</speed>
  <fix>3d</fix>
</trkpt>
<trkpt lat="-27.2785959" lon="151.2927064">
  <ele>377.03</ele>
  <time>2026-09-01T19:53:14Z</time>
  <course>34.96</course>
  <speed>27.24</speed>
  <fix>3d</fix>
</trkpt>
<trkpt lat="-27.278555" lon="151.2927388">
  <ele>377.13</ele>
  <time>2026-09-01T19:53:14Z</time>
  <course>35.76</course>
  <speed>27.3041846609636</speed>
  <fix>3d</fix>
</trkpt>
<trkpt lat="-27.2785959" lon="151.2927064">
  <ele>377.03</ele>
  <time>2026-09-01T19:53:14Z</time>
  <course>34.96</course>
  <speed>27.24</speed>
  <fix>3d</fix>
</trkpt>
<trkpt lat="-27.2785349" lon="151.2927546">
  <ele>377.28</ele>
  <time>2026-09-01T19:53:14Z</time>
  <course>35.76</course>
  <speed>27.31811303878802</speed>
  <fix>3d</fix>
</trkpt>
<trkpt lat="-27.2785558" lon="151.2927379">
  <ele>377.32</ele>
  <time>2026-09-01T19:53:14Z</time>
  <course>34.97</course>
  <speed>27.26</speed>
  <fix>3d</fix>
</trkpt>
<trkpt lat="-27.2785148" lon="151.2927705">
  <ele>377.43</ele>
  <time>2026-09-01T19:53:14Z</time>
  <course>35.71</course>
  <speed>27.33204163614566</speed>
  <fix>3d</fix>
</trkpt>
<trkpt lat="-27.2785558" lon="151.2927379">
  <ele>377.32</ele>
  <time>2026-09-01T19:53:14Z</time>
  <course>34.97</course>
  <speed>27.26</speed>
  <fix>3d</fix>
</trkpt>
<trkpt lat="-27.2784946" lon="151.2927864">
  <ele>377.57</ele>
  <time>2026-09-01T19:53:14Z</time>
  <course>35.7</course>
  <speed>27.35415873317986</speed>
  <fix>3d</fix>
</trkpt>
<trkpt lat="-27.2785156" lon="151.2927697">
  <ele>377.59</ele>
  <time>2026-09-01T19:53:14Z</time>
  <course>34.97</course>
  <speed>27.3</speed>
  <fix>3d</fix>
</trkpt>
<trkpt lat="-27.2784744" lon="151.2928023">
  <ele>377.68</ele>
  <time>2026-09-01T19:53:14Z</time>
  <course>35.69</course>
  <speed>27.398394113524247</speed>
  <fix>3d</fix>
</trkpt>
<trkpt lat="-27.2785156" lon="151.2927697">
  <ele>377.59</ele>
  <time>2026-09-01T19:53:14Z</time>
  <course>34.97</course>
  <speed>27.3</speed>
  <fix>3d</fix>
</trkpt>
<trkpt lat="-27.2784542" lon="151.2928182">
  <ele>377.77</ele>
  <time>2026-09-01T19:53:14Z</time>
  <course>35.74</course>
  <speed>27.44017857084753</speed>
  <fix>3d</fix>
</trkpt>
<trkpt lat="-27.2784753" lon="151.2928014">
  <ele>377.83</ele>
  <time>2026-09-01T19:53:14Z</time>
  <course>34.97</course>
  <speed>27.35</speed>
  <fix>3d</fix>
</trkpt>
<trkpt lat="-27.278434" lon="151.2928341">
  <ele>377.84</ele>
  <time>2026-09-01T19:53:14Z</time>
  <course>35.77</course>
  <speed>27.484413764895912</speed>
  <fix>3d</fix>
</trkpt>
<trkpt lat="-27.2784753" lon="151.2928014">
  <ele>377.83</ele>
  <time>2026-09-01T19:53:14Z</time>
  <course>34.97</course>
  <speed>27.35</speed>
  <fix>3d</fix>
</trkpt>
<trkpt lat="-27.2784137" lon="151.2928501">
  <ele>377.9</ele>
  <time>2026-09-01T19:53:14Z</time>
  <course>35.73</course>
  <speed>27.52045966185885</speed>
  <fix>3d</fix>
</trkpt>
<trkpt lat="-27.278435" lon="151.2928331">
  <ele>377.99</ele>
  <time>2026-09-01T19:53:14Z</time>
  <course>34.96</course>
  <speed>27.44</speed>
  <fix>3d</fix>
</trkpt>
<trkpt lat="-27.2783935" lon="151.292866">
  <ele>377.95</ele>
  <time>2026-09-01T19:53:14Z</time>
  <course>35.73</course>
  <speed>27.462295971021796</speed>
  <fix>3d</fix>
</trkpt>
<trkpt lat="-27.278435" lon="151.2928331">
  <ele>377.99</ele>
  <time>2026-09-01T19:53:14Z</time>
  <course>34.96</course>
  <speed>27.44</speed>
  <fix>3d</fix>
</trkpt>
<trkpt lat="-27.2783733" lon="151.2928818">
  <ele>378.01</ele>
  <time>2026-09-01T19:53:14Z</time>
  <course>35.72</course>
  <speed>27.248473351731104</speed>
  <fix>3d</fix>
</trkpt>
<trkpt lat="-27.2783946" lon="151.2928648">
  <ele>378.09</ele>
  <time>2026-09-01T19:53:14Z</time>
  <course>34.95</course>
  <speed>27.34</speed>
  <fix>3d</fix>
</trkpt>
<trkpt lat="-27.2783533" lon="151.2928976">
  <ele>378.06</ele>
  <time>2026-09-01T19:53:14Z</time>
  <course>35.7</course>
  <speed>27.14033529638129</speed>
  <fix>3d</fix>
</trkpt>
<trkpt lat="-27.2783946" lon="151.2928648">
  <ele>378.09</ele>
  <time>2026-09-01T19:53:14Z</time>
  <course>34.95</course>
  <speed>27.34</speed>
  <fix>3d</fix>
</trkpt>
<trkpt lat="-27.2783333" lon="151.2929133">
  <ele>378.11</ele>
  <time>2026-09-01T19:53:14Z</time>
  <course>35.73</course>
  <speed>27.248473351731104</speed>
  <fix>3d</fix>
</trkpt>
<trkpt lat="-27.2783545" lon="151.2928964">
  <ele>378.2</ele>
  <time>2026-09-01T19:53:14Z</time>
  <course>34.95</course>
  <speed>27.2</speed>
  <fix>3d</fix>
</trkpt>
<trkpt lat="-27.2783132" lon="151.2929291">
  <ele>378.16</ele>
  <time>2026-09-01T19:53:14Z</time>
  <course>35.69</course>
  <speed>27.41232204684601</speed>
  <fix>3d</fix>
</trkpt>
<trkpt lat="-27.2783545" lon="151.2928964">
  <ele>378.2</ele>
  <time>2026-09-01T19:53:14Z</time>
  <course>34.95</course>
  <speed>27.2</speed>
  <fix>3d</fix>
</trkpt>
<trkpt lat="-27.278293" lon="151.292945">
  <ele>378.2</ele>
  <time>2026-09-01T19:53:14Z</time>
  <course>35.75</course>
  <speed>27.57043343874013</speed>
  <fix>3d</fix>
</trkpt>
<trkpt lat="-27.2783144" lon="151.2929279">
  <ele>378.28</ele>
  <time>2026-09-01T19:53:14Z</time>
  <course>34.94</course>
  <speed>27.36</speed>
  <fix>3d</fix>
</trkpt>
<trkpt lat="-27.2782727" lon="151.292961">
  <ele>378.24</ele>
  <time>2026-09-01T19:53:14Z</time>
  <course>35.77</course>
  <speed>27.734283837878348</speed>
  <fix>3d</fix>
</trkpt>
<trkpt lat="-27.2783144" lon="151.2929279">
  <ele>378.28</ele>
  <time>2026-09-01T19:53:14Z</time>
  <course>34.94</course>
  <speed>27.36</speed>
  <fix>3d</fix>
</trkpt>
<trkpt lat="-27.2782523" lon="151.292977">
  <ele>378.28</ele>
  <time>2026-09-01T19:53:14Z</time>
  <course>35.71</course>
  <speed>27.892395020865457</speed>
  <fix>3d</fix>
</trkpt>
<trkpt lat="-27.2782739" lon="151.2929598">
  <ele>378.37</ele>
  <time>2026-09-01T19:53:14Z</time>
  <course>34.95</course>
  <speed>27.68</speed>
  <fix>3d</fix>
</trkpt>
<trkpt lat="-27.2782318" lon="151.2929932">
  <ele>378.33</ele>
  <time>2026-09-01T19:53:14Z</time>
  <course>35.75</course>
  <speed>28.020201640958977</speed>
  <fix>3d</fix>
</trkpt>
<trkpt lat="-27.2782739" lon="151.2929598">
  <ele>378.37</ele>
  <time>2026-09-01T19:53:14Z</time>
  <course>34.95</course>
  <speed>27.68</speed>
  <fix>3d</fix>
</trkpt>
<trkpt lat="-27.2782112" lon="151.2930094">
  <ele>378.39</ele>
  <time>2026-09-01T19:53:14Z</time>
  <course>35.75</course>
  <speed>28.156196476086752</speed>
  <fix>3d</fix>
</trkpt>
<trkpt lat="-27.2782329" lon="151.2929921">
  <ele>378.45</ele>
  <time>2026-09-01T19:53:14Z</time>
  <course>34.97</course>
  <speed>27.99</speed>
  <fix>3d</fix>
</trkpt>
<trkpt lat="-27.2781906" lon="151.2930257">
  <ele>378.44</ele>
  <time>2026-09-01T19:53:14Z</time>
  <course>35.81</course>
  <speed>28.29219150225023</speed>
  <fix>3d</fix>
</trkpt>
<trkpt lat="-27.2782329" lon="151.2929921">
  <ele>378.45</ele>
  <time>2026-09-01T19:53:14Z</time>
  <course>34.97</course>
  <speed>27.99</speed>
  <fix>3d</fix>
</trkpt>
<trkpt lat="-27.2781698" lon="151.293042">
  <ele>378.51</ele>
  <time>2026-09-01T19:53:14Z</time>
  <course>35.84</course>
  <speed>28.414256984830693</speed>
  <fix>3d</fix>
</trkpt>
<trkpt lat="-27.2781915" lon="151.2930247">
  <ele>378.55</ele>
  <time>2026-09-01T19:53:14Z</time>
  <course>34.98</course>
  <speed>28.27</speed>
  <fix>3d</fix>
</trkpt>
<trkpt lat="-27.278149" lon="151.2930585">
  <ele>378.57</ele>
  <time>2026-09-01T19:53:14Z</time>
  <course>35.82</course>
  <speed>28.53632246804062</speed>
  <fix>3d</fix>
</trkpt>
<trkpt lat="-27.2781915" lon="151.2930247">
  <ele>378.55</ele>
  <time>2026-09-01T19:53:14Z</time>
  <course>34.98</course>
  <speed>28.27</speed>
  <fix>3d</fix>
</trkpt>
<trkpt lat="-27.278128" lon="151.293075">
  <ele>378.65</ele>
  <time>2026-09-01T19:53:14Z</time>
  <course>35.75</course>
  <speed>28.644458451854174</speed>
  <fix>3d</fix>
</trkpt>
<trkpt lat="-27.2781497" lon="151.2930576">
  <ele>378.67</ele>
  <time>2026-09-01T19:53:14Z</time>
  <course>34.98</course>
  <speed>28.53</speed>
  <fix>3d</fix>
</trkpt>
<trkpt lat="-27.278107" lon="151.2930915">
  <ele>378.72</ele>
  <time>2026-09-01T19:53:14Z</time>
  <course>35.77</course>
  <speed>28.758337921375084</speed>
  <fix>3d</fix>
</trkpt>
<trkpt lat="-27.2781497" lon="151.2930576">
  <ele>378.67</ele>
  <time>2026-09-01T19:53:14Z</time>
  <course>34.98</course>
  <speed>28.53</speed>
  <fix>3d</fix>
</trkpt>
<trkpt lat="-27.2780858" lon="151.2931082">
  <ele>378.8</ele>
  <time>2026-09-01T19:53:14Z</time>
  <course>35.77</course>
  <speed>28.868919273156035</speed>
  <fix>3d</fix>
</trkpt>
<trkpt lat="-27.2781074" lon="151.2930908">
  <ele>378.81</ele>
  <time>2026-09-01T19:53:14Z</time>
  <course>34.97</course>
  <speed>28.76</speed>
  <fix>3d</fix>
</trkpt>
<trkpt lat="-27.2780646" lon="151.2931249">
  <ele>378.89</ele>
  <time>2026-09-01T19:53:14Z</time>
  <course>35.76</course>
  <speed>28.954939129620012</speed>
  <fix>3d</fix>
</trkpt>
<trkpt lat="-27.2781074" lon="151.2930908">
  <ele>378.81</ele>
  <time>2026-09-01T19:53:14Z</time>
  <course>34.97</course>
  <speed>28.76</speed>
  <fix>3d</fix>
</trkpt>
<trkpt lat="-27.2780433" lon="151.2931416">
  <ele>378.97</ele>
  <time>2026-09-01T19:53:14Z</time>
  <course>35.81</course>
  <speed>29.06307623084659</speed>
  <fix>3d</fix>
</trkpt>
<trkpt lat="-27.2780648" lon="151.2931243">
  <ele>378.97</ele>
  <time>2026-09-01T19:53:14Z</time>
  <course>34.96</course>
  <speed>28.98</speed>
  <fix>3d</fix>
</trkpt>
<trkpt lat="-27.2780219" lon="151.2931585">
  <ele>379.07</ele>
  <time>2026-09-01T19:53:14Z</time>
  <course>35.8</course>
  <speed>29.14909604087235</speed>
  <fix>3d</fix>
</trkpt>
<trkpt lat="-27.2780648" lon="151.2931243">
  <ele>378.97</ele>
  <time>2026-09-01T19:53:14Z</time>
  <course>34.96</course>
  <speed>28.98</speed>
  <fix>3d</fix>
</trkpt>
<trkpt lat="-27.2780005" lon="151.2931753">
  <ele>379.16</ele>
  <time>2026-09-01T19:53:14Z</time>
  <course>35.79</course>
  <speed>29.240856690596466</speed>
  <fix>3d</fix>
</trkpt>
<trkpt lat="-27.2780221" lon="151.293158">
  <ele>379.14</ele>
  <time>2026-09-01T19:53:14Z</time>
  <course>34.96</course>
  <speed>29.17</speed>
  <fix>3d</fix>
</trkpt>
<trkpt lat="-27.277979" lon="151.2931923">
  <ele>379.26</ele>
  <time>2026-09-01T19:53:14Z</time>
  <course>35.76</course>
  <speed>29.326876751539704</speed>
  <fix>3d</fix>
</trkpt>
<trkpt lat="-27.2780221" lon="151.293158">
  <ele>379.14</ele>
  <time>2026-09-01T19:53:14Z</time>
  <course>34.96</course>
  <speed>29.17</speed>
  <fix>3d</fix>
</trkpt>
<trkpt lat="-27.2779574" lon="151.2932093">
  <ele>379.36</ele>
  <time>2026-09-01T19:53:14Z</time>
  <course>35.7</course>
  <speed>29.412896831152146</speed>
  <fix>3d</fix>
</trkpt>
<trkpt lat="-27.277979" lon="151.2931919">
  <ele>379.32</ele>
  <time>2026-09-01T19:53:14Z</time>
  <course>34.96</course>
  <speed>29.36</speed>
  <fix>3d</fix>
</trkpt>
<trkpt lat="-27.2779357" lon="151.2932263">
  <ele>379.45</ele>
  <time>2026-09-01T19:53:14Z</time>
  <course>35.77</course>
  <speed>29.493175481795785</speed>
  <fix>3d</fix>
</trkpt>
<trkpt lat="-27.277979" lon="151.2931919">
  <ele>379.32</ele>
  <time>2026-09-01T19:53:14Z</time>
  <course>34.96</course>
  <speed>29.36</speed>
  <fix>3d</fix>
</trkpt>
<trkpt lat="-27.277914" lon="151.2932434">
  <ele>379.55</ele>
  <time>2026-09-01T19:53:14Z</time>
  <course>35.82</course>
  <speed>29.568566079537913</speed>
  <fix>3d</fix>
</trkpt>
<trkpt lat="-27.2779356" lon="151.293226">
  <ele>379.52</ele>
  <time>2026-09-01T19:53:14Z</time>
  <course>34.97</course>
  <speed>29.53</speed>
  <fix>3d</fix>
</trkpt>
<trkpt lat="-27.2778922" lon="151.2932606">
  <ele>379.66</ele>
  <time>2026-09-01T19:53:14Z</time>
  <course>35.84</course>
  <speed>29.646402817205328</speed>
  <fix>3d</fix>
</trkpt>
<trkpt lat="-27.2779356" lon="151.293226">
  <ele>379.52</ele>
  <time>2026-09-01T19:53:14Z</time>
  <course>34.97</course>
  <speed>29.53</speed>
  <fix>3d</fix>
</trkpt>
<trkpt lat="-27.2778704" lon="151.2932778">
  <ele>379.76</ele>
  <time>2026-09-01T19:53:14Z</time>
  <course>35.86</course>
  <speed>29.718492559347624</speed>
  <fix>3d</fix>
</trkpt>
<trkpt lat="-27.277892" lon="151.2932603">
  <ele>379.72</ele>
  <time>2026-09-01T19:53:14Z</time>
  <course>34.99</course>
  <speed>29.69</speed>
  <fix>3d</fix>
</trkpt>
<trkpt lat="-27.2778485" lon="151.293295">
  <ele>379.87</ele>
  <time>2026-09-01T19:53:14Z</time>
  <course>35.86</course>
  <speed>29.774217034205954</speed>
  <fix>3d</fix>
</trkpt>
<trkpt lat="-27.277892" lon="151.2932603">
  <ele>379.72</ele>
  <time>2026-09-01T19:53:14Z</time>
  <course>34.99</course>
  <speed>29.69</speed>
  <fix>3d</fix>
</trkpt>
<trkpt lat="-27.2778266" lon="151.2933123">
  <ele>379.98</ele>
  <time>2026-09-01T19:53:14Z</time>
  <course>35.85</course>
  <speed>29.846306304130835</speed>
  <fix>3d</fix>
</trkpt>
<trkpt lat="-27.2778483" lon="151.2932948">
  <ele>379.92</ele>
  <time>2026-09-01T19:53:14Z</time>
  <course>35.02</course>
  <speed>29.83</speed>
  <fix>3d</fix>
</trkpt>
<trkpt lat="-27.2778046" lon="151.2933297">
  <ele>380.09</ele>
  <time>2026-09-01T19:53:14Z</time>
  <course>35.86</course>
  <speed>29.910213974493733</speed>
  <fix>3d</fix>
</trkpt>
<trkpt lat="-27.2778483" lon="151.2932948">
  <ele>379.92</ele>
  <time>2026-09-01T19:53:14Z</time>
  <course>35.02</course>
  <speed>29.83</speed>
  <fix>3d</fix>
</trkpt>
<trkpt lat="-27.2777828" lon="151.2933469">
  <ele>380.21</ele>
  <time>2026-09-01T19:53:14Z</time>
  <course>35.71</course>
  <speed>29.96837166080266</speed>
  <fix>3d</fix>
</trkpt>
<trkpt lat="-27.2778043" lon="151.2933295">
  <ele>380.14</ele>
  <time>2026-09-01T19:53:14Z</time>
  <course>35.02</course>
  <speed>29.96</speed>
  <fix>3d</fix>
</trkpt>
<trkpt lat="-27.2777607" lon="151.2933643">
  <ele>380.33</ele>
  <time>2026-09-01T19:53:14Z</time>
  <course>35.74</course>
  <speed>30.026529936041563</speed>
  <fix>3d</fix>
</trkpt>
<trkpt lat="-27.2778043" lon="151.2933295">
  <ele>380.14</ele>
  <time>2026-09-01T19:53:14Z</time>
  <course>35.02</course>
  <speed>29.96</speed>
  <fix>3d</fix>
</trkpt>
<trkpt lat="-27.2777386" lon="151.2933817">
  <ele>380.46</ele>
  <time>2026-09-01T19:53:14Z</time>
  <course>35.79</course>
  <speed>30.087128477141185</speed>
  <fix>3d</fix>
</trkpt>
<trkpt lat="-27.2777601" lon="151.2933643">
  <ele>380.38</ele>
  <time>2026-09-01T19:53:14Z</time>
  <course>35.0</course>
  <speed>30.08</speed>
  <fix>3d</fix>
</trkpt>
<trkpt lat="-27.277716" lon="151.2933995">
  <ele>380.58</ele>
  <time>2026-09-01T19:53:14Z</time>
  <course>35.72</course>
  <speed>30.145289847669407</speed>
  <fix>3d</fix>
</trkpt>
<trkpt lat="-27.2777601" lon="151.2933643">
  <ele>380.38</ele>
  <time>2026-09-01T19:53:14Z</time>
  <course>35.0</course>
  <speed>30.08</speed>
  <fix>3d</fix>
</trkpt>
<trkpt lat="-27.2776938" lon="151.293417">
  <ele>380.7</ele>
  <time>2026-09-01T19:53:14Z</time>
  <course>35.69</course>
  <speed>30.197711833845958</speed>
  <fix>3d</fix>
</trkpt>
<trkpt lat="-27.2777158" lon="151.2933992">
  <ele>380.62</ele>
  <time>2026-09-01T19:53:14Z</time>
  <course>34.97</course>
  <speed>30.2</speed>
  <fix>3d</fix>
</trkpt>
<trkpt lat="-27.2776715" lon="151.2934345">
  <ele>380.83</ele>
  <time>2026-09-01T19:53:14Z</time>
  <course>35.69</course>
  <speed>30.25587546246183</speed>
  <fix>3d</fix>
</trkpt>
<trkpt lat="-27.2777158" lon="151.2933992">
  <ele>380.62</ele>
  <time>2026-09-01T19:53:14Z</time>
  <course>34.97</course>
  <speed>30.2</speed>
  <fix>3d</fix>
</trkpt>
<trkpt lat="-27.2776492" lon="151.293452">
  <ele>380.95</ele>
  <time>2026-09-01T19:53:14Z</time>
  <course>35.71</course>
  <speed>30.294377366105415</speed>
  <fix>3d</fix>
</trkpt>
<trkpt lat="-27.2776713" lon="151.2934343">
  <ele>380.87</ele>
  <time>2026-09-01T19:53:14Z</time>
  <course>34.94</course>
  <speed>30.3</speed>
  <fix>3d</fix>
</trkpt>
<trkpt lat="-27.2776268" lon="151.2934696">
  <ele>381.08</ele>
  <time>2026-09-01T19:53:14Z</time>
  <course>35.65</course>
  <speed>30.33861730534205</speed>
  <fix>3d</fix>
</trkpt>
<trkpt lat="-27.2776713" lon="151.2934343">
  <ele>380.87</ele>
  <time>2026-09-01T19:53:14Z</time>
  <course>34.94</course>
  <speed>30.3</speed>
  <fix>3d</fix>
</trkpt>
<trkpt lat="-27.2776045" lon="151.2934871">
  <ele>381.2</ele>
  <time>2026-09-01T19:53:14Z</time>
  <course>35.67</course>
  <speed>30.382858654181963</speed>
  <fix>3d</fix>
</trkpt>
<trkpt lat="-27.2776265" lon="151.2934694">
  <ele>381.11</ele>
  <time>2026-09-01T19:53:14Z</time>
  <course>34.91</course>
  <speed>30.4</speed>
  <fix>3d</fix>
</trkpt>
<trkpt lat="-27.277582" lon="151.2935047">
  <ele>381.33</ele>
  <time>2026-09-01T19:53:14Z</time>
  <course>35.7</course>
  <speed>30.418905305746954</speed>
  <fix>3d</fix>
</trkpt>
<trkpt lat="-27.2776265" lon="151.2934694">
  <ele>381.11</ele>
  <time>2026-09-01T19:53:14Z</time>
  <course>34.91</course>
  <speed>30.4</speed>
  <fix>3d</fix>
</trkpt>
<trkpt lat="-27.2775596" lon="151.2935223">
  <ele>381.47</ele>
  <time>2026-09-01T19:53:14Z</time>
  <course>35.66</course>
  <speed>30.45495197829082</speed>
  <fix>3d</fix>
</trkpt>
<trkpt lat="-27.2775815" lon="151.2935048">
  <ele>381.37</ele>
  <time>2026-09-01T19:53:14Z</time>
  <course>34.9</course>
  <speed>30.48</speed>
  <fix>3d</fix>
</trkpt>
<trkpt lat="-27.2775371" lon="151.29354">
  <ele>381.6</ele>
  <time>2026-09-01T19:53:14Z</time>
  <course>35.64</course>
  <speed>30.49099867173917</speed>
  <fix>3d</fix>
</trkpt>
<trkpt lat="-27.2775815" lon="151.2935048">
  <ele>381.37</ele>
  <time>2026-09-01T19:53:14Z</time>
  <course>34.9</course>
  <speed>30.48</speed>
  <fix>3d</fix>
</trkpt>
<trkpt lat="-27.2775146" lon="151.2935576">
  <ele>381.74</ele>
  <time>2026-09-01T19:53:14Z</time>
  <course>35.59</course>
  <speed>30.527045386017953</speed>
  <fix>3d</fix>
</trkpt>
<trkpt lat="-27.2775366" lon="151.29354">
  <ele>381.65</ele>
  <time>2026-09-01T19:53:14Z</time>
  <course>34.89</course>
  <speed>30.55</speed>
  <fix>3d</fix>
</trkpt>
<trkpt lat="-27.2774921" lon="151.2935753">
  <ele>381.89</ele>
  <time>2026-09-01T19:53:14Z</time>
  <course>35.6</course>
  <speed>30.55736408789214</speed>
  <fix>3d</fix>
</trkpt>
<trkpt lat="-27.2775366" lon="151.29354">
  <ele>381.65</ele>
  <time>2026-09-01T19:53:14Z</time>
  <course>34.89</course>
  <speed>30.55</speed>
  <fix>3d</fix>
</trkpt>
<trkpt lat="-27.2774695" lon="151.293593">
  <ele>382.03</ele>
  <time>2026-09-01T19:53:14Z</time>
  <course>35.65</course>
  <speed>30.585213747822653</speed>
  <fix>3d</fix>
</trkpt>
<trkpt lat="-27.2774915" lon="151.2935753">
  <ele>381.93</ele>
  <time>2026-09-01T19:53:14Z</time>
  <course>34.89</course>
  <speed>30.61</speed>
  <fix>3d</fix>
</trkpt>
<trkpt lat="-27.2774469" lon="151.2936107">
  <ele>382.17</ele>
  <time>2026-09-01T19:53:14Z</time>
  <course>35.64</course>
  <speed>30.621260588029358</speed>
  <fix>3d</fix>
</trkpt>
<trkpt lat="-27.2774915" lon="151.2935753">
  <ele>381.93</ele>
  <time>2026-09-01T19:53:14Z</time>
  <course>34.89</course>
  <speed>30.61</speed>
  <fix>3d</fix>
</trkpt>
<trkpt lat="-27.2774243" lon="151.2936284">
  <ele>382.3</ele>
  <time>2026-09-01T19:53:14Z</time>
  <course>35.69</course>
  <speed>30.651580709646932</speed>
  <fix>3d</fix>
</trkpt>
<trkpt lat="-27.2774464" lon="151.2936108">
  <ele>382.21</ele>
  <time>2026-09-01T19:53:14Z</time>
  <course>34.88</course>
  <speed>30.68</speed>
  <fix>3d</fix>
</trkpt>
<trkpt lat="-27.2774017" lon="151.2936462">
  <ele>382.45</ele>
  <time>2026-09-01T19:53:14Z</time>
  <course>35.67</course>
  <speed>30.687627800141218</speed>
  <fix>3d</fix>
</trkpt>
<trkpt lat="-27.2774464" lon="151.2936108">
  <ele>382.21</ele>
  <time>2026-09-01T19:53:14Z</time>
  <course>34.88</course>
  <speed>30.68</speed>
  <fix>3d</fix>
</trkpt>
<trkpt lat="-27.277379" lon="151.293664">
  <ele>382.59</ele>
  <time>2026-09-01T19:53:14Z</time>
  <course>35.69</course>
  <speed>30.715476554987713</speed>
  <fix>3d</fix>
</trkpt>
<trkpt lat="-27.2774011" lon="151.2936463">
  <ele>382.49</ele>
  <time>2026-09-01T19:53:14Z</time>
  <course>34.88</course>
  <speed>30.74</speed>
  <fix>3d</fix>
</trkpt>
<trkpt lat="-27.2773563" lon="151.2936818">
  <ele>382.73</ele>
  <time>2026-09-01T19:53:14Z</time>
  <course>35.74</course>
  <speed>30.743326105026437</speed>
  <fix>3d</fix>
</trkpt>
<trkpt lat="-27.2774011" lon="151.2936463">
  <ele>382.49</ele>
  <time>2026-09-01T19:53:14Z</time>
  <course>34.88</course>
  <speed>30.74</speed>
  <fix>3d</fix>
</trkpt>
<trkpt lat="-27.2773337" lon="151.2936996">
  <ele>382.87</ele>
  <time>2026-09-01T19:53:14Z</time>
  <course>35.8</course>
  <speed>30.77690692711014</speed>
  <fix>3d</fix>
</trkpt>
<trkpt lat="-27.2773558" lon="151.2936819">
  <ele>382.77</ele>
  <time>2026-09-01T19:53:14Z</time>
  <course>34.9</course>
  <speed>30.8</speed>
  <fix>3d</fix>
</trkpt>
<trkpt lat="-27.2773111" lon="151.2937173">
  <ele>383.01</ele>
  <time>2026-09-01T19:53:14Z</time>
  <course>35.74</course>
  <speed>30.804759372538523</speed>
  <fix>3d</fix>
</trkpt>
<trkpt lat="-27.2773558" lon="151.2936819">
  <ele>382.77</ele>
  <time>2026-09-01T19:53:14Z</time>
  <course>34.9</course>
  <speed>30.8</speed>
  <fix>3d</fix>
</trkpt>
<trkpt lat="-27.2772884" lon="151.2937351">
  <ele>383.15</ele>
  <time>2026-09-01T19:53:14Z</time>
  <course>35.75</course>
  <speed>30.826879504743907</speed>
  <fix>3d</fix>
</trkpt>
<trkpt lat="-27.2773104" lon="151.2937175">
  <ele>383.05</ele>
  <time>2026-09-01T19:53:14Z</time>
  <course>34.92</course>
  <speed>30.85</speed>
  <fix>3d</fix>
</trkpt>
<trkpt lat="-27.2772656" lon="151.293753">
  <ele>383.29</ele>
  <time>2026-09-01T19:53:14Z</time>
  <course>35.76</course>
  <speed>30.85473221403809</speed>
  <fix>3d</fix>
</trkpt>
<trkpt lat="-27.2773104" lon="151.2937175">
  <ele>383.05</ele>
  <time>2026-09-01T19:53:14Z</time>
  <course>34.92</course>
  <speed>30.85</speed>
  <fix>3d</fix>
</trkpt>
<trkpt lat="-27.2772429" lon="151.2937709">
  <ele>383.44</ele>
  <time>2026-09-01T19:53:14Z</time>
  <course>35.71</course>
  <speed>30.88258570780627</speed>
  <fix>3d</fix>
</trkpt>
<trkpt lat="-27.2772649" lon="151.2937533">
  <ele>383.34</ele>
  <time>2026-09-01T19:53:14Z</time>
  <course>34.94</course>
  <speed>30.89</speed>
  <fix>3d</fix>
</trkpt>
<trkpt lat="-27.2772199" lon="151.293789">
  <ele>383.58</ele>
  <time>2026-09-01T19:53:14Z</time>
  <course>35.71</course>
  <speed>30.896512748205097</speed>
  <fix>3d</fix>
</trkpt>
<trkpt lat="-27.2772649" lon="151.2937533">
  <ele>383.34</ele>
  <time>2026-09-01T19:53:14Z</time>
  <course>34.94</course>
  <speed>30.89</speed>
  <fix>3d</fix>
</trkpt>
<trkpt lat="-27.2771971" lon="151.2938069">
  <ele>383.73</ele>
  <time>2026-09-01T19:53:14Z</time>
  <course>35.69</course>
  <speed>30.912898602363384</speed>
  <fix>3d</fix>
</trkpt>
<trkpt lat="-27.2772194" lon="151.293789">
  <ele>383.63</ele>
  <time>2026-09-01T19:53:14Z</time>
  <course>34.94</course>
  <speed>30.94</speed>
  <fix>3d</fix>
</trkpt>
<trkpt lat="-27.2771743" lon="151.2938248">
  <ele>383.87</ele>
  <time>2026-09-01T19:53:14Z</time>
  <course>35.67</course>
  <speed>30.935018991427825</speed>
  <fix>3d</fix>
</trkpt>
<trkpt lat="-27.2772194" lon="151.293789">
  <ele>383.63</ele>
  <time>2026-09-01T19:53:14Z</time>
  <course>34.94</course>
  <speed>30.94</speed>
  <fix>3d</fix>
</trkpt>
<trkpt lat="-27.2771507" lon="151.2938433">
  <ele>384.02</ele>
  <time>2026-09-01T19:53:14Z</time>
  <course>35.66</course>
  <speed>30.965335457572554</speed>
  <fix>3d</fix>
</trkpt>
<trkpt lat="-27.2771738" lon="151.2938249">
  <ele>383.92</ele>
  <time>2026-09-01T19:53:14Z</time>
  <course>34.92</course>
  <speed>30.97</speed>
  <fix>3d</fix>
</trkpt>
<trkpt lat="-27.277128" lon="151.2938611">
  <ele>384.17</ele>
  <time>2026-09-01T19:53:14Z</time>
  <course>35.7</course>
  <speed>30.981730100173554</speed>
  <fix>3d</fix>
</trkpt>
<trkpt lat="-27.2771738" lon="151.2938249">
  <ele>383.92</ele>
  <time>2026-09-01T19:53:14Z</time>
  <course>34.92</course>
  <speed>30.97</speed>
  <fix>3d</fix>
</trkpt>
<trkpt lat="-27.2771052" lon="151.293879">
  <ele>384.31</ele>
  <time>2026-09-01T19:53:15Z</time>
  <course>35.72</course>
  <speed>31.00385298636284</speed>
  <fix>3d</fix>
</trkpt>
<trkpt lat="-27.277128" lon="151.2938608">
  <ele>384.22</ele>
  <time>2026-09-01T19:53:15Z</time>
  <course>34.9</course>
  <speed>31.02</speed>
  <fix>3d</fix>
</trkpt>
<trkpt lat="-27.2770826" lon="151.2938967">
  <ele>384.47</ele>
  <time>2026-09-01T19:53:15Z</time>
  <course>35.74</course>
  <speed>31.006329998888937</speed>
  <fix>3d</fix>
</trkpt>
<trkpt lat="-27.277128" lon="151.2938608">
  <ele>384.22</ele>
  <time>2026-09-01T19:53:15Z</time>
  <course>34.9</course>
  <speed>31.02</speed>
  <fix>3d</fix>
</trkpt>
<trkpt lat="-27.2770598" lon="151.2939146">
  <ele>384.68</ele>
  <time>2026-09-01T19:53:15Z</time>
  <course>35.8</course>
  <speed>30.926034340018447</speed>
  <fix>3d</fix>
</trkpt>
<trkpt lat="-27.2770822" lon="151.2938967">
  <ele>384.55</ele>
  <time>2026-09-01T19:53:15Z</time>
  <course>34.88</course>
  <speed>31.0</speed>
  <fix>3d</fix>
</trkpt>
<trkpt lat="-27.277037" lon="151.2939325">
  <ele>385.0</ele>
  <time>2026-09-01T19:53:15Z</time>
  <course>35.7</course>
  <speed>30.753998114066402</speed>
  <fix>3d</fix>
</trkpt>
<trkpt lat="-27.2770822" lon="151.2938967">
  <ele>384.55</ele>
  <time>2026-09-01T19:53:15Z</time>
  <course>34.88</course>
  <speed>31.0</speed>
  <fix>3d</fix>
</trkpt>
<trkpt lat="-27.2770144" lon="151.2939502">
  <ele>385.43</ele>
  <time>2026-09-01T19:53:15Z</time>
  <course>35.64</course>
  <speed>30.504145619898946</speed>
  <fix>3d</fix>
</trkpt>
<trkpt lat="-27.2770367" lon="151.2939324">
  <ele>385.09</ele>
  <time>2026-09-01T19:53:15Z</time>
  <course>34.88</course>
  <speed>30.76</speed>
  <fix>3d</fix>
</trkpt>
<trkpt lat="-27.2769919" lon="151.2939678">
  <ele>385.98</ele>
  <time>2026-09-01T19:53:15Z</time>
  <course>35.7</course>
  <speed>30.17399708358175</speed>
  <fix>3d</fix>
</trkpt>
<trkpt lat="-27.2770367" lon="151.2939324">
  <ele>385.09</ele>
  <time>2026-09-01T19:53:15Z</time>
  <course>34.88</course>
  <speed>30.76</speed>
  <fix>3d</fix>
</trkpt>
<trkpt lat="-27.2769698" lon="151.2939851">
  <ele>386.63</ele>
  <time>2026-09-01T19:53:15Z</time>
  <course>35.69</course>
  <speed>29.771753391427925</speed>
  <fix>3d</fix>
</trkpt>
<trkpt lat="-27.2769918" lon="151.2939677">
  <ele>386.04</ele>
  <time>2026-09-01T19:53:15Z</time>
  <course>34.87</course>
  <speed>30.19</speed>
  <fix>3d</fix>
</trkpt>
<trkpt lat="-27.2769479" lon="151.2940022">
  <ele>387.4</ele>
  <time>2026-09-01T19:53:15Z</time>
  <course>35.74</course>
  <speed>29.29989931723316</speed>
  <fix>3d</fix>
</trkpt>
<trkpt lat="-27.2769918" lon="151.2939677">
  <ele>386.04</ele>
  <time>2026-09-01T19:53:15Z</time>
  <course>34.87</course>
  <speed>30.19</speed>
  <fix>3d</fix>
</trkpt>
<trkpt lat="-27.2769265" lon="151.2940191">
  <ele>388.26</ele>
  <time>2026-09-01T19:53:15Z</time>
  <course>35.72</course>
  <speed>28.76166893627698</speed>
  <fix>3d</fix>
</trkpt>
<trkpt lat="-27.2769479" lon="151.2940021">
  <ele>387.43</ele>
  <time>2026-09-01T19:53:15Z</time>
  <course>34.88</course>
  <speed>29.33</speed>
  <fix>3d</fix>
</trkpt>
<trkpt lat="-27.2769054" lon="151.2940355">
  <ele>389.24</ele>
  <time>2026-09-01T19:53:15Z</time>
  <course>35.78</course>
  <speed>28.151342774368686</speed>
  <fix>3d</fix>
</trkpt>
<trkpt lat="-27.2769479" lon="151.2940021">
  <ele>387.43</ele>
  <time>2026-09-01T19:53:15Z</time>
  <course>34.88</course>
  <speed>29.33</speed>
  <fix>3d</fix>
</trkpt>
<trkpt lat="-27.2768849" lon="151.2940516">
  <ele>390.31</ele>
  <time>2026-09-01T19:53:16Z</time>
  <course>35.65</course>
  <speed>27.491047633729785</speed>
  <fix>3d</fix>
</trkpt>
<trkpt lat="-27.2769055" lon="151.2940353">
  <ele>389.25</ele>
  <time>2026-09-01T19:53:16Z</time>
  <course>34.89</course>
  <speed>28.19</speed>
  <fix>3d</fix>
</trkpt>
<trkpt lat="-27.2768648" lon="151.2940673">
  <ele>391.48</ele>
  <time>2026-09-01T19:53:16Z</time>
  <course>35.67</course>
  <speed>26.79720134640929</speed>
  <fix>3d</fix>
</trkpt>
<trkpt lat="-27.2769055" lon="151.2940353">
  <ele>389.25</ele>
  <time>2026-09-01T19:53:16Z</time>
  <course>34.89</course>
  <speed>28.19</speed>
  <fix>3d</fix>
</trkpt>
<trkpt lat="-27.2768454" lon="151.2940825">
  <ele>392.72</ele>
  <time>2026-09-01T19:53:16Z</time>
  <course>35.69</course>
  <speed>26.059103975386414</speed>
  <fix>3d</fix>
</trkpt>
<trkpt lat="-27.276865" lon="151.2940672">
  <ele>391.47</ele>
  <time>2026-09-01T19:53:16Z</time>
  <course>34.9</course>
  <speed>26.84</speed>
  <fix>3d</fix>
</trkpt>
<trkpt lat="-27.2768264" lon="151.2940973">
  <ele>394.06</ele>
  <time>2026-09-01T19:53:16Z</time>
  <course>35.72</course>
  <speed>25.284961933924283</speed>
  <fix>3d</fix>
</trkpt>
<trkpt lat="-27.276865" lon="151.2940672">
  <ele>391.47</ele>
  <time>2026-09-01T19:53:16Z</time>
  <course>34.9</course>
  <speed>26.84</speed>
  <fix>3d</fix>
</trkpt>
<trkpt lat="-27.276808" lon="151.2941117">
  <ele>395.47</ele>
  <time>2026-09-01T19:53:16Z</time>
  <course>35.76</course>
  <speed>24.466558809934835</speed>
  <fix>3d</fix>
</trkpt>
<trkpt lat="-27.2768265" lon="151.2940974">
  <ele>394.02</ele>
  <time>2026-09-01T19:53:16Z</time>
  <course>34.9</course>
  <speed>25.33</speed>
  <fix>3d</fix>
</trkpt>
<trkpt lat="-27.2767903" lon="151.2941256">
  <ele>396.95</ele>
  <time>2026-09-01T19:53:16Z</time>
  <course>35.72</course>
  <speed>23.63423999201159</speed>
  <fix>3d</fix>
</trkpt>
<trkpt lat="-27.2768265" lon="151.2940974">
  <ele>394.02</ele>
  <time>2026-09-01T19:53:16Z</time>
  <course>34.9</course>
  <speed>25.33</speed>
  <fix>3d</fix>
</trkpt>
<trkpt lat="-27.276773" lon="151.2941391">
  <ele>398.51</ele>
  <time>2026-09-01T19:53:16Z</time>
  <course>35.79</course>
  <speed>22.76335651875619</speed>
  <fix>3d</fix>
</trkpt>
<trkpt lat="-27.2767904" lon="151.2941258">
  <ele>396.88</ele>
  <time>2026-09-01T19:53:16Z</time>
  <course>34.93</course>
  <speed>23.69</speed>
  <fix>3d</fix>
</trkpt>
<trkpt lat="-27.2767565" lon="151.2941521">
  <ele>400.12</ele>
  <time>2026-09-01T19:53:16Z</time>
  <course>35.7</course>
  <speed>21.886772260888538</speed>
  <fix>3d</fix>
</trkpt>
<trkpt lat="-27.2767904" lon="151.2941258">
  <ele>396.88</ele>
  <time>2026-09-01T19:53:16Z</time>
  <course>34.93</course>
  <speed>23.69</speed>
  <fix>3d</fix>
</trkpt>
<trkpt lat="-27.2767406" lon="151.2941645">
  <ele>401.78</ele>
  <time>2026-09-01T19:53:16Z</time>
  <course>35.69</course>
  <speed>21.010188004870397</speed>
  <fix>3d</fix>
</trkpt>
<trkpt lat="-27.2767568" lon="151.2941522">
  <ele>399.99</ele>
  <time>2026-09-01T19:53:16Z</time>
  <course>34.98</course>
  <speed>21.96</speed>
  <fix>3d</fix>
</trkpt>
<trkpt lat="-27.2767249" lon="151.2941768">
  <ele>403.53</ele>
  <time>2026-09-01T19:53:16Z</time>
  <course>35.81</course>
  <speed>20.0918540707422</speed>
  <fix>3d</fix>
</trkpt>
<trkpt lat="-27.2767568" lon="151.2941522">
  <ele>399.99</ele>
  <time>2026-09-01T19:53:16Z</time>
  <course>34.98</course>
  <speed>21.96</speed>
  <fix>3d</fix>
</trkpt>
<trkpt lat="-27.2767106" lon="151.2941881">
  <ele>405.26</ele>
  <time>2026-09-01T19:53:16Z</time>
  <course>35.85</course>
  <speed>19.193136794177235</speed>
  <fix>3d</fix>
</trkpt>
<trkpt lat="-27.2767258" lon="151.2941767">
  <ele>403.3</ele>
  <time>2026-09-01T19:53:16Z</time>
  <course>35.03</course>
  <speed>20.19</speed>
  <fix>3d</fix>
</trkpt>
<trkpt lat="-27.2766967" lon="151.294199">
  <ele>407.04</ele>
  <time>2026-09-01T19:53:16Z</time>
  <course>35.86</course>
  <speed>18.30833689880105</speed>
  <fix>3d</fix>
</trkpt>
<trkpt lat="-27.2767258" lon="151.2941767">
  <ele>403.3</ele>
  <time>2026-09-01T19:53:16Z</time>
  <course>35.03</course>
  <speed>20.19</speed>
  <fix>3d</fix>
</trkpt>
<trkpt lat="-27.2766836" lon="151.2942094">
  <ele>408.84</ele>
  <time>2026-09-01T19:53:16Z</time>
  <course>35.97</course>
  <speed>17.437456809982354</speed>
  <fix>3d</fix>
</trkpt>
<trkpt lat="-27.2766973" lon="151.2941991">
  <ele>406.77</ele>
  <time>2026-09-01T19:53:16Z</time>
  <course>35.11</course>
  <speed>18.4</speed>
  <fix>3d</fix>
</trkpt>
<trkpt lat="-27.276671" lon="151.2942193">
  <ele>410.65</ele>
  <time>2026-09-01T19:53:16Z</time>
  <course>36.03</course>
  <speed>16.58050059557913</speed>
  <fix>3d</fix>
</trkpt>
<trkpt lat="-27.2766973" lon="151.2941991">
  <ele>406.77</ele>
  <time>2026-09-01T19:53:16Z</time>
  <course>35.11</course>
  <speed>18.4</speed>
  <fix>3d</fix>
</trkpt>
<trkpt lat="-27.276659" lon="151.2942288">
  <ele>412.5</ele>
  <time>2026-09-01T19:53:16Z</time>
  <course>36.03</course>
  <speed>15.737474384411241</speed>
  <fix>3d</fix>
</trkpt>
<trkpt lat="-27.2766716" lon="151.2942196">
  <ele>410.35</ele>
  <time>2026-09-01T19:53:16Z</time>
  <course>35.22</course>
  <speed>16.67</speed>
  <fix>3d</fix>
</trkpt>
<trkpt lat="-27.2766477" lon="151.2942378">
  <ele>414.34</ele>
  <time>2026-09-01T19:53:16Z</time>
  <course>35.96</course>
  <speed>14.91658472975634</speed>
  <fix>3d</fix>
</trkpt>
<trkpt lat="-27.2766716" lon="151.2942196">
  <ele>410.35</ele>
  <time>2026-09-01T19:53:16Z</time>
  <course>35.22</course>
  <speed>16.67</speed>
  <fix>3d</fix>
</trkpt>
<trkpt lat="-27.2766371" lon="151.2942463">
  <ele>416.19</ele>
  <time>2026-09-01T19:53:16Z</time>
  <course>36.06</course>
  <speed>14.117825611615977</speed>
  <fix>3d</fix>
</trkpt>
<trkpt lat="-27.2766484" lon="151.294238">
  <ele>413.98</ele>
  <time>2026-09-01T19:53:16Z</time>
  <course>35.33</course>
  <speed>15.01</speed>
  <fix>3d</fix>
</trkpt>
<trkpt lat="-27.276627" lon="151.2942544">
  <ele>418.03</ele>
  <time>2026-09-01T19:53:16Z</time>
  <course>36.27</course>
  <speed>13.330555127225573</speed>
  <fix>3d</fix>
</trkpt>
<trkpt lat="-27.2766484" lon="151.294238">
  <ele>413.98</ele>
  <time>2026-09-01T19:53:16Z</time>
  <course>35.33</course>
  <speed>15.01</speed>
  <fix>3d</fix>
</trkpt>
<trkpt lat="-27.2766175" lon="151.294262">
  <ele>419.88</ele>
  <time>2026-09-01T19:53:16Z</time>
  <course>36.23</course>
  <speed>12.562117655873154</speed>
  <fix>3d</fix>
</trkpt>
<trkpt lat="-27.2766276" lon="151.2942547">
  <ele>417.64</ele>
  <time>2026-09-01T19:53:16Z</time>
  <course>35.46</course>
  <speed>13.42</speed>
  <fix>3d</fix>
</trkpt>
<trkpt lat="-27.2766087" lon="151.2942691">
  <ele>421.67</ele>
  <time>2026-09-01T19:53:16Z</time>
  <course>36.28</course>
  <speed>11.841233043902143</speed>
  <fix>3d</fix>
</trkpt>
<trkpt lat="-27.2766276" lon="151.2942547">
  <ele>417.64</ele>
  <time>2026-09-01T19:53:16Z</time>
  <course>35.46</course>
  <speed>13.42</speed>
  <fix>3d</fix>
</trkpt>
<trkpt lat="-27.2766003" lon="151.2942758">
  <ele>423.5</ele>
  <time>2026-09-01T19:53:16Z</time>
  <course>36.21</course>
  <speed>11.114607505440755</speed>
  <fix>3d</fix>
</trkpt>
<trkpt lat="-27.2766091" lon="151.2942696">
  <ele>421.28</ele>
  <time>2026-09-01T19:53:16Z</time>
  <course>35.62</course>
  <speed>11.91</speed>
  <fix>3d</fix>
</trkpt>
<trkpt lat="-27.2765925" lon="151.2942822">
  <ele>425.31</ele>
  <time>2026-09-01T19:53:16Z</time>
  <course>36.14</course>
  <speed>10.418262811044842</speed>
  <fix>3d</fix>
</trkpt>
<trkpt lat="-27.2766091" lon="151.2942696">
  <ele>421.28</ele>
  <time>2026-09-01T19:53:16Z</time>
  <course>35.62</course>
  <speed>11.91</speed>
  <fix>3d</fix>
</trkpt>
<trkpt lat="-27.2765851" lon="151.2942882">
  <ele>427.1</ele>
  <time>2026-09-01T19:53:16Z</time>
  <course>36.21</course>
  <speed>9.73825959810068</speed>
  <fix>3d</fix>
</trkpt>
<trkpt lat="-27.2765927" lon="151.2942827">
  <ele>424.89</ele>
  <time>2026-09-01T19:53:16Z</time>
  <course>35.71</course>
  <speed>10.48</speed>
  <fix>3d</fix>
</trkpt>
<trkpt lat="-27.2765782" lon="151.2942938">
  <ele>428.88</ele>
  <time>2026-09-01T19:53:16Z</time>
  <course>36.19</course>
  <speed>9.08372170423555</speed>
  <fix>3d</fix>
</trkpt>
<trkpt lat="-27.2765927" lon="151.2942827">
  <ele>424.89</ele>
  <time>2026-09-01T19:53:16Z</time>
  <course>35.71</course>
  <speed>10.48</speed>
  <fix>3d</fix>
</trkpt>
<trkpt lat="-27.2765718" lon="151.294299">
  <ele>430.64</ele>
  <time>2026-09-01T19:53:16Z</time>
  <course>36.14</course>
  <speed>8.483984912763578</speed>
  <fix>3d</fix>
</trkpt>
<trkpt lat="-27.2765784" lon="151.2942943">
  <ele>428.43</ele>
  <time>2026-09-01T19:53:16Z</time>
  <course>35.69</course>
  <speed>9.16</speed>
  <fix>3d</fix>
</trkpt>
<trkpt lat="-27.2765658" lon="151.2943039">
  <ele>432.37</ele>
  <time>2026-09-01T19:53:16Z</time>
  <course>36.24</course>
  <speed>7.909702902132292</speed>
  <fix>3d</fix>
</trkpt>
<trkpt lat="-27.2765784" lon="151.2942943">
  <ele>428.43</ele>
  <time>2026-09-01T19:53:16Z</time>
  <course>35.69</course>
  <speed>9.16</speed>
  <fix>3d</fix>
</trkpt>
<trkpt lat="-27.2765602" lon="151.2943084">
  <ele>434.07</ele>
  <time>2026-09-01T19:53:16Z</time>
  <course>36.27</course>
  <speed>7.371465254615258</speed>
  <fix>3d</fix>
</trkpt>
<trkpt lat="-27.276566" lon="151.2943043">
  <ele>431.89</ele>
  <time>2026-09-01T19:53:16Z</time>
  <course>35.65</course>
  <speed>7.97</speed>
  <fix>3d</fix>
</trkpt>
<trkpt lat="-27.2765549" lon="151.2943127">
  <ele>435.76</ele>
  <time>2026-09-01T19:53:16Z</time>
  <course>36.35</course>
  <speed>6.847159995209693</speed>
  <fix>3d</fix>
</trkpt>
<trkpt lat="-27.276566" lon="151.2943043">
  <ele>431.89</ele>
  <time>2026-09-01T19:53:16Z</time>
  <course>35.65</course>
  <speed>7.97</speed>
  <fix>3d</fix>
</trkpt>
<trkpt lat="-27.2765501" lon="151.2943166">
  <ele>437.4</ele>
  <time>2026-09-01T19:53:16Z</time>
  <course>36.28</course>
  <speed>6.339219194822025</speed>
  <fix>3d</fix>
</trkpt>
<trkpt lat="-27.2765551" lon="151.2943131">
  <ele>435.24</ele>
  <time>2026-09-01T19:53:16Z</time>
  <course>35.62</course>
  <speed>6.9</speed>
  <fix>3d</fix>
</trkpt>
<trkpt lat="-27.2765455" lon="151.2943203">
  <ele>439.07</ele>
  <time>2026-09-01T19:53:16Z</time>
  <course>36.27</course>
  <speed>5.845220269587794</speed>
  <fix>3d</fix>
</trkpt>
<trkpt lat="-27.2765551" lon="151.2943131">
  <ele>435.24</ele>
  <time>2026-09-01T19:53:16Z</time>
  <course>35.62</course>
  <speed>6.9</speed>
  <fix>3d</fix>
</trkpt>
<trkpt lat="-27.2765413" lon="151.2943237">
  <ele>440.65</ele>
  <time>2026-09-01T19:53:16Z</time>
  <course>36.31</course>
  <speed>5.900932129757129</speed>
  <fix>3d</fix>
</trkpt>
<trkpt lat="-27.2765457" lon="151.2943207">
  <ele>438.47</ele>
  <time>2026-09-01T19:53:16Z</time>
  <course>35.55</course>
  <speed>6.11</speed>
  <fix>3d</fix>
</trkpt>
<trkpt lat="-27.2765364" lon="151.2943276">
  <ele>442.12</ele>
  <time>2026-09-01T19:53:16Z</time>
  <course>36.29</course>
  <speed>7.430585441269079</speed>
  <fix>3d</fix>
</trkpt>
<trkpt lat="-27.2765457" lon="151.2943207">
  <ele>438.47</ele>
  <time>2026-09-01T19:53:16Z</time>
  <course>35.55</course>
  <speed>6.11</speed>
  <fix>3d</fix>
</trkpt>
<trkpt lat="-27.2765304" lon="151.2943326">
  <ele>443.46</ele>
  <time>2026-09-01T19:53:16Z</time>
  <course>36.29</course>
  <speed>9.162641540516578</speed>
  <fix>3d</fix>
</trkpt>
<trkpt lat="-27.276536" lon="151.2943285">
  <ele>441.47</ele>
  <time>2026-09-01T19:53:16Z</time>
  <course>35.59</course>
  <speed>7.46</speed>
  <fix>3d</fix>
</trkpt>
<trkpt lat="-27.2765231" lon="151.2943385">
  <ele>444.65</ele>
  <time>2026-09-01T19:53:16Z</time>
  <course>36.29</course>
  <speed>10.628532353998835</speed>
  <fix>3d</fix>
</trkpt>
<trkpt lat="-27.276536" lon="151.2943285">
  <ele>441.47</ele>
  <time>2026-09-01T19:53:16Z</time>
  <course>35.59</course>
  <speed>7.46</speed>
  <fix>3d</fix>
</trkpt>
<trkpt lat="-27.2765149" lon="151.2943452">
  <ele>445.69</ele>
  <time>2026-09-01T19:53:16Z</time>
  <course>36.26</course>
  <speed>11.844513497818305</speed>
  <fix>3d</fix>
</trkpt>
<trkpt lat="-27.2765229" lon="151.2943391">
  <ele>443.99</ele>
  <time>2026-09-01T19:53:16Z</time>
  <course>35.68</course>
  <speed>10.42</speed>
  <fix>3d</fix>
</trkpt>
<trkpt lat="-27.2765058" lon="151.2943526">
  <ele>446.61</ele>
  <time>2026-09-01T19:53:16Z</time>
  <course>36.24</course>
  <speed>12.888463833987352</speed>
  <fix>3d</fix>
</trkpt>
<trkpt lat="-27.2765229" lon="151.2943391">
  <ele>443.99</ele>
  <time>2026-09-01T19:53:16Z</time>
  <course>35.68</course>
  <speed>10.42</speed>
  <fix>3d</fix>
</trkpt>
<trkpt lat="-27.2764961" lon="151.2943605">
  <ele>447.41</ele>
  <time>2026-09-01T19:53:16Z</time>
  <course>36.27</course>
  <speed>13.782452611926514</speed>
  <fix>3d</fix>
</trkpt>
<trkpt lat="-27.2765059" lon="151.2943528">
  <ele>445.96</ele>
  <time>2026-09-01T19:53:16Z</time>
  <course>35.74</course>
  <speed>12.75</speed>
  <fix>3d</fix>
</trkpt>
<trkpt lat="-27.2764857" lon="151.2943689">
  <ele>448.12</ele>
  <time>2026-09-01T19:53:16Z</time>
  <course>36.31</course>
  <speed>14.58231805989706</speed>
  <fix>3d</fix>
</trkpt>
<trkpt lat="-27.2765059" lon="151.2943528">
  <ele>445.96</ele>
  <time>2026-09-01T19:53:16Z</time>
  <course>35.74</course>
  <speed>12.75</speed>
  <fix>3d</fix>
</trkpt>
<trkpt lat="-27.2764749" lon="151.2943778">
  <ele>448.73</ele>
  <time>2026-09-01T19:53:16Z</time>
  <course>36.33</course>
  <speed>15.304277179925878</speed>
  <fix>3d</fix>
</trkpt>
<trkpt lat="-27.276486" lon="151.294369">
  <ele>447.49</ele>
  <time>2026-09-01T19:53:16Z</time>
  <course>35.78</course>
  <speed>14.49</speed>
  <fix>3d</fix>
</trkpt>
<trkpt lat="-27.2764635" lon="151.2943871">
  <ele>449.26</ele>
  <time>2026-09-01T19:53:16Z</time>
  <course>36.26</course>
  <speed>15.962283671204442</speed>
  <fix>3d</fix>
</trkpt>
<trkpt lat="-27.276486" lon="151.294369">
  <ele>447.49</ele>
  <time>2026-09-01T19:53:16Z</time>
  <course>35.78</course>
  <speed>14.49</speed>
  <fix>3d</fix>
</trkpt>
<trkpt lat="-27.2764517" lon="151.2943967">
  <ele>449.73</ele>
  <time>2026-09-01T19:53:16Z</time>
  <course>36.31</course>
  <speed>16.57029872995656</speed>
  <fix>3d</fix>
</trkpt>
<trkpt lat="-27.2764638" lon="151.2943869">
  <ele>448.66</ele>
  <time>2026-09-01T19:53:16Z</time>
  <course>35.8</course>
  <speed>15.89</speed>
  <fix>3d</fix>
</trkpt>
<trkpt lat="-27.2764395" lon="151.2944067">
  <ele>450.14</ele>
  <time>2026-09-01T19:53:16Z</time>
  <course>36.3</course>
  <speed>17.142286895277422</speed>
  <fix>3d</fix>
</trkpt>
<trkpt lat="-27.2764638" lon="151.2943869">
  <ele>448.66</ele>
  <time>2026-09-01T19:53:16Z</time>
  <course>35.8</course>
  <speed>15.89</speed>
  <fix>3d</fix>
</trkpt>
<trkpt lat="-27.2764269" lon="151.294417">
  <ele>450.51</ele>
  <time>2026-09-01T19:53:16Z</time>
  <course>36.23</course>
  <speed>17.6782493477154</speed>
  <fix>3d</fix>
</trkpt>
<trkpt lat="-27.2764397" lon="151.2944064">
  <ele>449.56</ele>
  <time>2026-09-01T19:53:16Z</time>
  <course>35.81</course>
  <speed>17.08</speed>
  <fix>3d</fix>
</trkpt>
<trkpt lat="-27.2764139" lon="151.2944276">
  <ele>450.83</ele>
  <time>2026-09-01T19:53:16Z</time>
  <course>36.13</course>
  <speed>18.2142142295516</speed>
  <fix>3d</fix>
</trkpt>
<trkpt lat="-27.2764397" lon="151.2944064">
  <ele>449.56</ele>
  <time>2026-09-01T19:53:16Z</time>
  <course>35.81</course>
  <speed>17.08</speed>
  <fix>3d</fix>
</trkpt>
<trkpt lat="-27.2764004" lon="151.2944385">
  <ele>451.1</ele>
  <time>2026-09-01T19:53:16Z</time>
  <course>36.03</course>
  <speed>18.710502398385778</speed>
  <fix>3d</fix>
</trkpt>
<trkpt lat="-27.276414" lon="151.2944273">
  <ele>450.26</ele>
  <time>2026-09-01T19:53:16Z</time>
  <course>35.79</course>
  <speed>18.16</speed>
  <fix>3d</fix>
</trkpt>
<trkpt lat="-27.2763867" lon="151.2944497">
  <ele>451.33</ele>
  <time>2026-09-01T19:53:16Z</time>
  <course>36.02</course>
  <speed>19.15457386631193</speed>
  <fix>3d</fix>
</trkpt>
<trkpt lat="-27.276414" lon="151.2944273">
  <ele>450.26</ele>
  <time>2026-09-01T19:53:16Z</time>
  <course>35.79</course>
  <speed>18.16</speed>
  <fix>3d</fix>
</trkpt>
<trkpt lat="-27.2763725" lon="151.2944613">
  <ele>451.53</ele>
  <time>2026-09-01T19:53:16Z</time>
  <course>36.08</course>
  <speed>19.548652127448584</speed>
  <fix>3d</fix>
</trkpt>
<trkpt lat="-27.2763869" lon="151.2944494">
  <ele>450.79</ele>
  <time>2026-09-01T19:53:16Z</time>
  <course>35.76</course>
  <speed>19.1</speed>
  <fix>3d</fix>
</trkpt>
<trkpt lat="-27.2763587" lon="151.2944725">
  <ele>451.68</ele>
  <time>2026-09-01T19:53:16Z</time>
  <course>36.09</course>
  <speed>19.906702388894047</speed>
  <fix>3d</fix>
</trkpt>
<trkpt lat="-27.2763869" lon="151.2944494">
  <ele>450.79</ele>
  <time>2026-09-01T19:53:16Z</time>
  <course>35.76</course>
  <speed>19.1</speed>
  <fix>3d</fix>
</trkpt>
<trkpt lat="-27.2763441" lon="151.2944844">
  <ele>451.82</ele>
  <time>2026-09-01T19:53:16Z</time>
  <course>36.06</course>
  <speed>20.250787639003082</speed>
  <fix>3d</fix>
</trkpt>
<trkpt lat="-27.2763585" lon="151.2944724">
  <ele>451.16</ele>
  <time>2026-09-01T19:53:16Z</time>
  <course>35.74</course>
  <speed>19.88</speed>
  <fix>3d</fix>
</trkpt>
<trkpt lat="-27.2763292" lon="151.2944965">
  <ele>451.94</ele>
  <time>2026-09-01T19:53:16Z</time>
  <course>36.08</course>
  <speed>20.586774880976378</speed>
  <fix>3d</fix>
</trkpt>
<trkpt lat="-27.2763585" lon="151.2944724">
  <ele>451.16</ele>
  <time>2026-09-01T19:53:16Z</time>
  <course>35.74</course>
  <speed>19.88</speed>
  <fix>3d</fix>
</trkpt>
<trkpt lat="-27.2763136" lon="151.2945092">
  <ele>452.06</ele>
  <time>2026-09-01T19:53:16Z</time>
  <course>36.09</course>
  <speed>20.9227627238852</speed>
  <fix>3d</fix>
</trkpt>
<trkpt lat="-27.2763289" lon="151.2944964">
  <ele>451.46</ele>
  <time>2026-09-01T19:53:16Z</time>
  <course>35.73</course>
  <speed>20.58</speed>
  <fix>3d</fix>
</trkpt>
<trkpt lat="-27.2762984" lon="151.2945215">
  <ele>452.17</ele>
  <time>2026-09-01T19:53:16Z</time>
  <course>36.09</course>
  <speed>21.23081957909303</speed>
  <fix>3d</fix>
</trkpt>
<trkpt lat="-27.2763289" lon="151.2944964">
  <ele>451.46</ele>
  <time>2026-09-01T19:53:16Z</time>
  <course>35.73</course>
  <speed>20.58</speed>
  <fix>3d</fix>
</trkpt>
<trkpt lat="-27.2762829" lon="151.2945342">
  <ele>452.27</ele>
  <time>2026-09-01T19:53:16Z</time>
  <course>36.01</course>
  <speed>21.51681435528968</speed>
  <fix>3d</fix>
</trkpt>
<trkpt lat="-27.2762984" lon="151.2945211">
  <ele>451.71</ele>
  <time>2026-09-01T19:53:16Z</time>
  <course>35.72</course>
  <speed>21.21</speed>
  <fix>3d</fix>
</trkpt>
<trkpt lat="-27.2762671" lon="151.294547">
  <ele>452.37</ele>
  <time>2026-09-01T19:53:16Z</time>
  <course>35.97</course>
  <speed>21.810905529115477</speed>
  <fix>3d</fix>
</trkpt>
<trkpt lat="-27.2762984" lon="151.2945211">
  <ele>451.71</ele>
  <time>2026-09-01T19:53:16Z</time>
  <course>35.72</course>
  <speed>21.21</speed>
  <fix>3d</fix>
</trkpt>
<trkpt lat="-27.2762511" lon="151.29456">
  <ele>452.48</ele>
  <time>2026-09-01T19:53:16Z</time>
  <course>36.0</course>
  <speed>22.08293458759501</speed>
  <fix>3d</fix>
</trkpt>
<trkpt lat="-27.276267" lon="151.2945464">
  <ele>451.94</ele>
  <time>2026-09-01T19:53:16Z</time>
  <course>35.71</course>
  <speed>21.8</speed>
  <fix>3d</fix>
</trkpt>
<trkpt lat="-27.2762349" lon="151.2945731">
  <ele>452.58</ele>
  <time>2026-09-01T19:53:16Z</time>
  <course>36.04</course>
  <speed>22.3409981871894</speed>
  <fix>3d</fix>
</trkpt>
<trkpt lat="-27.276267" lon="151.2945464">
  <ele>451.94</ele>
  <time>2026-09-01T19:53:16Z</time>
  <course>35.71</course>
  <speed>21.8</speed>
  <fix>3d</fix>
</trkpt>
<trkpt lat="-27.2762184" lon="151.2945865">
  <ele>452.68</ele>
  <time>2026-09-01T19:53:16Z</time>
  <course>35.96</course>
  <speed>22.599061927434068</speed>
  <fix>3d</fix>
</trkpt>
<trkpt lat="-27.2762348" lon="151.2945725">
  <ele>452.16</ele>
  <time>2026-09-01T19:53:16Z</time>
  <course>35.69</course>
  <speed>22.34</speed>
  <fix>3d</fix>
</trkpt>
<trkpt lat="-27.2762018" lon="151.2945999">
  <ele>452.79</ele>
  <time>2026-09-01T19:53:16Z</time>
  <course>35.95</course>
  <speed>22.84316090211685</speed>
  <fix>3d</fix>
</trkpt>
<trkpt lat="-27.2762348" lon="151.2945725">
  <ele>452.16</ele>
  <time>2026-09-01T19:53:16Z</time>
  <course>35.69</course>
  <speed>22.34</speed>
  <fix>3d</fix>
</trkpt>
<trkpt lat="-27.2761851" lon="151.2946135">
  <ele>452.89</ele>
  <time>2026-09-01T19:53:16Z</time>
  <course>35.92</course>
  <speed>23.07329625346149</speed>
  <fix>3d</fix>
</trkpt>
<trkpt lat="-27.2762018" lon="151.2945991">
  <ele>452.4</ele>
  <time>2026-09-01T19:53:16Z</time>
  <course>35.68</course>
  <speed>22.84</speed>
  <fix>3d</fix>
</trkpt>
<trkpt lat="-27.2761681" lon="151.2946272">
  <ele>453.0</ele>
  <time>2026-09-01T19:53:16Z</time>
  <course>35.89</course>
  <speed>23.303433223454434</speed>
  <fix>3d</fix>
</trkpt>
<trkpt lat="-27.2762018" lon="151.2945991">
  <ele>452.4</ele>
  <time>2026-09-01T19:53:16Z</time>
  <course>35.68</course>
  <speed>22.84</speed>
  <fix>3d</fix>
</trkpt>
<trkpt lat="-27.276151" lon="151.294641">
  <ele>453.11</ele>
  <time>2026-09-01T19:53:16Z</time>
  <course>35.93</course>
  <speed>23.519608840284736</speed>
  <fix>3d</fix>
</trkpt>
<trkpt lat="-27.2761682" lon="151.2946263">
  <ele>452.64</ele>
  <time>2026-09-01T19:53:16Z</time>
  <course>35.65</course>
  <speed>23.3</speed>
  <fix>3d</fix>
</trkpt>
<trkpt lat="-27.2761337" lon="151.294655">
  <ele>453.22</ele>
  <time>2026-09-01T19:53:16Z</time>
  <course>35.94</course>
  <speed>23.727682145544687</speed>
  <fix>3d</fix>
</trkpt>
<trkpt lat="-27.2761682" lon="151.2946263">
  <ele>452.64</ele>
  <time>2026-09-01T19:53:16Z</time>
  <course>35.65</course>
  <speed>23.3</speed>
  <fix>3d</fix>
</trkpt>
<trkpt lat="-27.2761163" lon="151.2946691">
  <ele>453.32</ele>
  <time>2026-09-01T19:53:16Z</time>
  <course>35.9</course>
  <speed>23.921793411030034</speed>
  <fix>3d</fix>
</trkpt>
<trkpt lat="-27.2761338" lon="151.294654">
  <ele>452.88</ele>
  <time>2026-09-01T19:53:16Z</time>
  <course>35.64</course>
  <speed>23.73</speed>
  <fix>3d</fix>
</trkpt>
<trkpt lat="-27.2760987" lon="151.2946832">
  <ele>453.43</ele>
  <time>2026-09-01T19:53:16Z</time>
  <course>35.87</course>
  <speed>24.12401293317511</speed>
  <fix>3d</fix>
</trkpt>
<trkpt lat="-27.2761338" lon="151.294654">
  <ele>452.88</ele>
  <time>2026-09-01T19:53:16Z</time>
  <course>35.64</course>
  <speed>23.73</speed>
  <fix>3d</fix>
</trkpt>
<trkpt lat="-27.276081" lon="151.2946975">
  <ele>453.54</ele>
  <time>2026-09-01T19:53:16Z</time>
  <course>35.84</course>
  <speed>24.310018510893816</speed>
  <fix>3d</fix>
</trkpt>
<trkpt lat="-27.2760989" lon="151.2946822">
  <ele>453.12</ele>
  <time>2026-09-01T19:53:16Z</time>
  <course>35.62</course>
  <speed>24.12</speed>
  <fix>3d</fix>
</trkpt>
<trkpt lat="-27.2760631" lon="151.2947119">
  <ele>453.65</ele>
  <time>2026-09-01T19:53:16Z</time>
  <course>35.75</course>
  <speed>24.490171497970366</speed>
  <fix>3d</fix>
</trkpt>
<trkpt lat="-27.2760989" lon="151.2946822">
  <ele>453.12</ele>
  <time>2026-09-01T19:53:16Z</time>
  <course>35.62</course>
  <speed>24.12</speed>
  <fix>3d</fix>
</trkpt>
<trkpt lat="-27.2760451" lon="151.2947264">
  <ele>453.76</ele>
  <time>2026-09-01T19:53:16Z</time>
  <course>35.69</course>
  <speed>24.664478506548644</speed>
  <fix>3d</fix>
</trkpt>
<trkpt lat="-27.2760634" lon="151.2947108">
  <ele>453.36</ele>
  <time>2026-09-01T19:53:16Z</time>
  <course>35.61</course>
  <speed>24.49</speed>
  <fix>3d</fix>
</trkpt>
<trkpt lat="-27.276027" lon="151.294741">
  <ele>453.87</ele>
  <time>2026-09-01T19:53:16Z</time>
  <course>35.67</course>
  <speed>24.83067860530598</speed>
  <fix>3d</fix>
</trkpt>
<trkpt lat="-27.2760634" lon="151.2947108">
  <ele>453.36</ele>
  <time>2026-09-01T19:53:16Z</time>
  <course>35.61</course>
  <speed>24.49</speed>
  <fix>3d</fix>
</trkpt>
<trkpt lat="-27.2760088" lon="151.2947557">
  <ele>453.98</ele>
  <time>2026-09-01T19:53:16Z</time>
  <course>35.69</course>
  <speed>24.977085498512434</speed>
  <fix>3d</fix>
</trkpt>
<trkpt lat="-27.2760273" lon="151.2947398">
  <ele>453.6</ele>
  <time>2026-09-01T19:53:16Z</time>
  <course>35.58</course>
  <speed>24.82</speed>
  <fix>3d</fix>
</trkpt>
<trkpt lat="-27.2759904" lon="151.2947704">
  <ele>454.09</ele>
  <time>2026-09-01T19:53:16Z</time>
  <course>35.66</course>
  <speed>25.12705513982886</speed>
  <fix>3d</fix>
</trkpt>
<trkpt lat="-27.2760273" lon="151.2947398">
  <ele>453.6</ele>
  <time>2026-09-01T19:53:16Z</time>
  <course>35.58</course>
  <speed>24.82</speed>
  <fix>3d</fix>
</trkpt>
<trkpt lat="-27.275972" lon="151.2947852">
  <ele>454.2</ele>
  <time>2026-09-01T19:53:16Z</time>
  <course>35.6</course>
  <speed>25.26535176877615</speed>
  <fix>3d</fix>
</trkpt>
<trkpt lat="-27.2759908" lon="151.2947692">
  <ele>453.84</ele>
  <time>2026-09-01T19:53:16Z</time>
  <course>35.54</course>
  <speed>25.12</speed>
  <fix>3d</fix>
</trkpt>
<trkpt lat="-27.2759534" lon="151.2948001">
  <ele>454.31</ele>
  <time>2026-09-01T19:53:16Z</time>
  <course>35.51</course>
  <speed>25.403655248802288</speed>
  <fix>3d</fix>
</trkpt>
<trkpt lat="-27.2759908" lon="151.2947692">
  <ele>453.84</ele>
  <time>2026-09-01T19:53:16Z</time>
  <course>35.54</course>
  <speed>25.12</speed>
  <fix>3d</fix>
</trkpt>
<trkpt lat="-27.2759347" lon="151.2948151">
  <ele>454.41</ele>
  <time>2026-09-01T19:53:16Z</time>
  <course>35.54</course>
  <speed>25.541965468616546</speed>
  <fix>3d</fix>
</trkpt>
<trkpt lat="-27.2759908" lon="151.2947692">
  <ele>453.84</ele>
  <time>2026-09-01T19:53:16Z</time>
  <course>35.54</course>
  <speed>25.12</speed>
  <fix>3d</fix>
</trkpt>
<trkpt lat="-27.2759162" lon="151.2948299">
  <ele>454.52</ele>
  <time>2026-09-01T19:53:16Z</time>
  <course>35.53</course>
  <speed>25.658199469175543</speed>
  <fix>3d</fix>
</trkpt>
<trkpt lat="-27.2759538" lon="151.2947989">
  <ele>454.07</ele>
  <time>2026-09-01T19:53:16Z</time>
  <course>35.5</course>
  <speed>25.41</speed>
  <fix>3d</fix>
</trkpt>
<trkpt lat="-27.2758975" lon="151.2948449">
  <ele>454.62</ele>
  <time>2026-09-01T19:53:16Z</time>
  <course>35.53</course>
  <speed>25.76048524387691</speed>
  <fix>3d</fix>
</trkpt>
<trkpt lat="-27.2759164" lon="151.2948289">
  <ele>454.3</ele>
  <time>2026-09-01T19:53:16Z</time>
  <course>35.45</course>
  <speed>25.66</speed>
  <fix>3d</fix>
</trkpt>
<trkpt lat="-27.2758786" lon="151.2948599">
  <ele>454.72</ele>
  <time>2026-09-01T19:53:16Z</time>
  <course>35.56</course>
  <speed>25.87441207061525</speed>
  <fix>3d</fix>
</trkpt>
<trkpt lat="-27.2759164" lon="151.2948289">
  <ele>454.3</ele>
  <time>2026-09-01T19:53:16Z</time>
  <course>35.45</course>
  <speed>25.66</speed>
  <fix>3d</fix>
</trkpt>
<trkpt lat="-27.2758595" lon="151.2948752">
  <ele>454.82</ele>
  <time>2026-09-01T19:53:16Z</time>
  <course>35.49</course>
  <speed>25.98251912344144</speed>
  <fix>3d</fix>
</trkpt>
<trkpt lat="-27.2758787" lon="151.2948592">
  <ele>454.52</ele>
  <time>2026-09-01T19:53:16Z</time>
  <course>35.44</course>
  <speed>25.9</speed>
  <fix>3d</fix>
</trkpt>
<trkpt lat="-27.2758404" lon="151.2948905">
  <ele>454.92</ele>
  <time>2026-09-01T19:53:16Z</time>
  <course>35.47</course>
  <speed>26.08480975587133</speed>
  <fix>3d</fix>
</trkpt>
<trkpt lat="-27.2758787" lon="151.2948592">
  <ele>454.52</ele>
  <time>2026-09-01T19:53:16Z</time>
  <course>35.44</course>
  <speed>25.9</speed>
  <fix>3d</fix>
</trkpt>
<trkpt lat="-27.2758213" lon="151.2949058">
  <ele>455.02</ele>
  <time>2026-09-01T19:53:16Z</time>
  <course>35.49</course>
  <speed>26.187105605622016</speed>
  <fix>3d</fix>
</trkpt>
<trkpt lat="-27.2758406" lon="151.2948897">
  <ele>454.73</ele>
  <time>2026-09-01T19:53:16Z</time>
  <course>35.43</course>
  <speed>26.12</speed>
  <fix>3d</fix>
</trkpt>
<trkpt lat="-27.275802" lon="151.2949212">
  <ele>455.11</ele>
  <time>2026-09-01T19:53:16Z</time>
  <course>35.48</course>
  <speed>26.29521629498415</speed>
  <fix>3d</fix>
</trkpt>
<trkpt lat="-27.2758406" lon="151.2948897">
  <ele>454.73</ele>
  <time>2026-09-01T19:53:16Z</time>
  <course>35.43</course>
  <speed>26.12</speed>
  <fix>3d</fix>
</trkpt>
<trkpt lat="-27.2757826" lon="151.2949367">
  <ele>455.2</ele>
  <time>2026-09-01T19:53:16Z</time>
  <course>35.51</course>
  <speed>26.381239546313967</speed>
  <fix>3d</fix>
</trkpt>
<trkpt lat="-27.2758022" lon="151.2949204">
  <ele>454.93</ele>
  <time>2026-09-01T19:53:16Z</time>
  <course>35.41</course>
  <speed>26.31</speed>
  <fix>3d</fix>
</trkpt>
<trkpt lat="-27.2757631" lon="151.2949523">
  <ele>455.29</ele>
  <time>2026-09-01T19:53:17Z</time>
  <course>35.55</course>
  <speed>26.47540179109658</speed>
  <fix>3d</fix>
</trkpt>
<trkpt lat="-27.2758022" lon="151.2949204">
  <ele>454.93</ele>
  <time>2026-09-01T19:53:17Z</time>
  <course>35.41</course>
  <speed>26.31</speed>
  <fix>3d</fix>
</trkpt>
<trkpt lat="-27.2757436" lon="151.2949679">
  <ele>455.38</ele>
  <time>2026-09-01T19:53:17Z</time>
  <course>35.53</course>
  <speed>26.56142503707209</speed>
  <fix>3d</fix>
</trkpt>
<trkpt lat="-27.2757636" lon="151.2949512">
  <ele>455.12</ele>
  <time>2026-09-01T19:53:17Z</time>
  <course>35.41</course>
  <speed>26.49</speed>
  <fix>3d</fix>
</trkpt>
<trkpt lat="-27.2757241" lon="151.2949835">
  <ele>455.46</ele>
  <time>2026-09-01T19:53:17Z</time>
  <course>35.56</course>
  <speed>26.64744828309082</speed>
  <fix>3d</fix>
</trkpt>
<trkpt lat="-27.2757636" lon="151.2949512">
  <ele>455.12</ele>
  <time>2026-09-01T19:53:17Z</time>
  <course>35.41</course>
  <speed>26.49</speed>
  <fix>3d</fix>
</trkpt>
<trkpt lat="-27.2757044" lon="151.2949992">
  <ele>455.55</ele>
  <time>2026-09-01T19:53:17Z</time>
  <course>35.57</course>
  <speed>26.73347152915236</speed>
  <fix>3d</fix>
</trkpt>
<trkpt lat="-27.2757247" lon="151.2949823">
  <ele>455.31</ele>
  <time>2026-09-01T19:53:17Z</time>
  <course>35.41</course>
  <speed>26.66</speed>
  <fix>3d</fix>
</trkpt>
<trkpt lat="-27.2756847" lon="151.2950149">
  <ele>455.63</ele>
  <time>2026-09-01T19:53:17Z</time>
  <course>35.58</course>
  <speed>26.803218090371164</speed>
  <fix>3d</fix>
</trkpt>
<trkpt lat="-27.2757247" lon="151.2949823">
  <ele>455.31</ele>
  <time>2026-09-01T19:53:17Z</time>
  <course>35.41</course>
  <speed>26.66</speed>
  <fix>3d</fix>
</trkpt>
<trkpt lat="-27.275665" lon="151.2950307">
  <ele>455.71</ele>
  <time>2026-09-01T19:53:17Z</time>
  <course>35.54</course>
  <speed>26.869480828627857</speed>
  <fix>3d</fix>
</trkpt>
<trkpt lat="-27.2756855" lon="151.2950137">
  <ele>455.48</ele>
  <time>2026-09-01T19:53:17Z</time>
  <course>35.43</course>
  <speed>26.81</speed>
  <fix>3d</fix>
</trkpt>
<trkpt lat="-27.2756453" lon="151.2950464">
  <ele>455.78</ele>
  <time>2026-09-01T19:53:17Z</time>
  <course>35.53</course>
  <speed>26.933416047727775</speed>
  <fix>3d</fix>
</trkpt>
<trkpt lat="-27.2756855" lon="151.2950137">
  <ele>455.48</ele>
  <time>2026-09-01T19:53:17Z</time>
  <course>35.43</course>
  <speed>26.81</speed>
  <fix>3d</fix>
</trkpt>
<trkpt lat="-27.2756256" lon="151.2950622">
  <ele>455.86</ele>
  <time>2026-09-01T19:53:17Z</time>
  <course>35.52</course>
  <speed>26.991541267589742</speed>
  <fix>3d</fix>
</trkpt>
<trkpt lat="-27.2756462" lon="151.2950452">
  <ele>455.65</ele>
  <time>2026-09-01T19:53:17Z</time>
  <course>35.44</course>
  <speed>26.94</speed>
  <fix>3d</fix>
</trkpt>
<trkpt lat="-27.2756059" lon="151.295078">
  <ele>455.93</ele>
  <time>2026-09-01T19:53:17Z</time>
  <course>35.52</course>
  <speed>27.04966728076336</speed>
  <fix>3d</fix>
</trkpt>
<trkpt lat="-27.2756462" lon="151.2950452">
  <ele>455.65</ele>
  <time>2026-09-01T19:53:17Z</time>
  <course>35.44</course>
  <speed>26.94</speed>
  <fix>3d</fix>
</trkpt>
<trkpt lat="-27.2755861" lon="151.2950938">
  <ele>456.0</ele>
  <time>2026-09-01T19:53:17Z</time>
  <course>35.51</course>
  <speed>27.099653134311517</speed>
  <fix>3d</fix>
</trkpt>
<trkpt lat="-27.2756067" lon="151.2950768">
  <ele>455.8</ele>
  <time>2026-09-01T19:53:17Z</time>
  <course>35.43</course>
  <speed>27.06</speed>
  <fix>3d</fix>
</trkpt>
<trkpt lat="-27.2755663" lon="151.2951096">
  <ele>456.06</ele>
  <time>2026-09-01T19:53:17Z</time>
  <course>35.53</course>
  <speed>27.143831711827275</speed>
  <fix>3d</fix>
</trkpt>
<trkpt lat="-27.2756067" lon="151.2950768">
  <ele>455.8</ele>
  <time>2026-09-01T19:53:17Z</time>
  <course>35.43</course>
  <speed>27.06</speed>
  <fix>3d</fix>
</trkpt>
<trkpt lat="-27.2755465" lon="151.2951255">
  <ele>456.13</ele>
  <time>2026-09-01T19:53:17Z</time>
  <course>35.53</course>
  <speed>27.185676375621043</speed>
  <fix>3d</fix>
</trkpt>
<trkpt lat="-27.2756067" lon="151.2950768">
  <ele>455.8</ele>
  <time>2026-09-01T19:53:17Z</time>
  <course>35.43</course>
  <speed>27.06</speed>
  <fix>3d</fix>
</trkpt>
<trkpt lat="-27.2755268" lon="151.2951412">
  <ele>456.19</ele>
  <time>2026-09-01T19:53:17Z</time>
  <course>35.45</course>
  <speed>27.207765435625173</speed>
  <fix>3d</fix>
</trkpt>
<trkpt lat="-27.2755669" lon="151.2951087">
  <ele>455.95</ele>
  <time>2026-09-01T19:53:17Z</time>
  <course>35.43</course>
  <speed>27.16</speed>
  <fix>3d</fix>
</trkpt>
<trkpt lat="-27.275507" lon="151.2951571">
  <ele>456.26</ele>
  <time>2026-09-01T19:53:17Z</time>
  <course>35.44</course>
  <speed>27.237997356633986</speed>
  <fix>3d</fix>
</trkpt>
<trkpt lat="-27.2755669" lon="151.2951087">
  <ele>455.95</ele>
  <time>2026-09-01T19:53:17Z</time>
  <course>35.43</course>
  <speed>27.16</speed>
  <fix>3d</fix>
</trkpt>
<trkpt lat="-27.2754873" lon="151.2951728">
  <ele>456.33</ele>
  <time>2026-09-01T19:53:17Z</time>
  <course>35.46</course>
  <speed>27.262432026508566</speed>
  <fix>3d</fix>
</trkpt>
<trkpt lat="-27.275527" lon="151.2951406">
  <ele>456.09</ele>
  <time>2026-09-01T19:53:17Z</time>
  <course>35.42</course>
  <speed>27.25</speed>
  <fix>3d</fix>
</trkpt>
<trkpt lat="-27.2754674" lon="151.2951887">
  <ele>456.41</ele>
  <time>2026-09-01T19:53:17Z</time>
  <course>35.46</course>
  <speed>27.284524917982353</speed>
  <fix>3d</fix>
</trkpt>
<trkpt lat="-27.275527" lon="151.2951406">
  <ele>456.09</ele>
  <time>2026-09-01T19:53:17Z</time>
  <course>35.42</course>
  <speed>27.25</speed>
  <fix>3d</fix>
</trkpt>
<trkpt lat="-27.2754478" lon="151.2952043">
  <ele>456.49</ele>
  <time>2026-09-01T19:53:17Z</time>
  <course>35.42</course>
  <speed>27.306618245399775</speed>
  <fix>3d</fix>
</trkpt>
<trkpt lat="-27.2754871" lon="151.2951726">
  <ele>456.24</ele>
  <time>2026-09-01T19:53:17Z</time>
  <course>35.4</course>
  <speed>27.33</speed>
  <fix>3d</fix>
</trkpt>
<trkpt lat="-27.275428" lon="151.2952202">
  <ele>456.57</ele>
  <time>2026-09-01T19:53:17Z</time>
  <course>35.41</course>
  <speed>27.328712007703547</speed>
  <fix>3d</fix>
</trkpt>
<trkpt lat="-27.2754871" lon="151.2951726">
  <ele>456.24</ele>
  <time>2026-09-01T19:53:17Z</time>
  <course>35.4</course>
  <speed>27.33</speed>
  <fix>3d</fix>
</trkpt>
<trkpt lat="-27.2754081" lon="151.295236">
  <ele>456.65</ele>
  <time>2026-09-01T19:53:17Z</time>
  <course>35.46</course>
  <speed>27.23689409606022</speed>
  <fix>3d</fix>
</trkpt>
<trkpt lat="-27.275447" lon="151.2952046">
  <ele>456.4</ele>
  <time>2026-09-01T19:53:17Z</time>
  <course>35.37</course>
  <speed>27.4</speed>
  <fix>3d</fix>
</trkpt>
<trkpt lat="-27.2753884" lon="151.2952517">
  <ele>456.74</ele>
  <time>2026-09-01T19:53:17Z</time>
  <course>35.46</course>
  <speed>27.006713980045777</speed>
  <fix>3d</fix>
</trkpt>
<trkpt lat="-27.275447" lon="151.2952046">
  <ele>456.4</ele>
  <time>2026-09-01T19:53:17Z</time>
  <course>35.37</course>
  <speed>27.4</speed>
  <fix>3d</fix>
</trkpt>
<trkpt lat="-27.2753687" lon="151.2952675">
  <ele>456.82</ele>
  <time>2026-09-01T19:53:17Z</time>
  <course>35.44</course>
  <speed>26.74864482548602</speed>
  <fix>3d</fix>
</trkpt>
<trkpt lat="-27.2754069" lon="151.2952366">
  <ele>456.58</ele>
  <time>2026-09-01T19:53:17Z</time>
  <course>35.36</course>
  <speed>27.29</speed>
  <fix>3d</fix>
</trkpt>
<trkpt lat="-27.2753491" lon="151.2952831">
  <ele>456.9</ele>
  <time>2026-09-01T19:53:17Z</time>
  <course>35.44</course>
  <speed>26.47663120565001</speed>
  <fix>3d</fix>
</trkpt>
<trkpt lat="-27.2753672" lon="151.2952684">
  <ele>456.75</ele>
  <time>2026-09-01T19:53:17Z</time>
  <course>35.37</course>
  <speed>26.9</speed>
  <fix>3d</fix>
</trkpt>
<trkpt lat="-27.2753298" lon="151.2952985">
  <ele>456.97</ele>
  <time>2026-09-01T19:53:17Z</time>
  <course>35.44</course>
  <speed>26.23250655198622</speed>
  <fix>3d</fix>
</trkpt>
<trkpt lat="-27.2753672" lon="151.2952684">
  <ele>456.75</ele>
  <time>2026-09-01T19:53:17Z</time>
  <course>35.37</course>
  <speed>26.9</speed>
  <fix>3d</fix>
</trkpt>
<trkpt lat="-27.2753106" lon="151.2953138">
  <ele>457.04</ele>
  <time>2026-09-01T19:53:17Z</time>
  <course>35.45</course>
  <speed>26.01047673534647</speed>
  <fix>3d</fix>
</trkpt>
<trkpt lat="-27.2753281" lon="151.2952995">
  <ele>456.91</ele>
  <time>2026-09-01T19:53:17Z</time>
  <course>35.37</course>
  <speed>26.41</speed>
  <fix>3d</fix>
</trkpt>
<trkpt lat="-27.2752915" lon="151.295329">
  <ele>457.09</ele>
  <time>2026-09-01T19:53:17Z</time>
  <course>35.46</course>
  <speed>25.838430679900046</speed>
  <fix>3d</fix>
</trkpt>
<trkpt lat="-27.2753281" lon="151.2952995">
  <ele>456.91</ele>
  <time>2026-09-01T19:53:17Z</time>
  <course>35.37</course>
  <speed>26.41</speed>
  <fix>3d</fix>
</trkpt>
<trkpt lat="-27.2752726" lon="151.2953442">
  <ele>457.14</ele>
  <time>2026-09-01T19:53:17Z</time>
  <course>35.53</course>
  <speed>25.69427368111424</speed>
  <fix>3d</fix>
</trkpt>
<trkpt lat="-27.2752897" lon="151.2953302">
  <ele>457.04</ele>
  <time>2026-09-01T19:53:17Z</time>
  <course>35.37</course>
  <speed>26.01</speed>
  <fix>3d</fix>
</trkpt>
<trkpt lat="-27.2752719" lon="151.2953447">
  <ele>457.14</ele>
  <time>2026-09-01T19:53:17Z</time>
  <course>35.53</course>
  <speed>25.69427368111424</speed>
  <fix>3d</fix>
</trkpt>
<trkpt lat="-27.2752537" lon="151.2953593">
  <ele>457.16</ele>
  <time>2026-09-01T19:53:17Z</time>
  <course>35.63</course>
  <speed>25.52222756735783</speed>
  <fix>3d</fix>
</trkpt>
<trkpt lat="-27.2752897" lon="151.2953302">
  <ele>457.04</ele>
  <time>2026-09-01T19:53:17Z</time>
  <course>35.37</course>
  <speed>26.01</speed>
  <fix>3d</fix>
</trkpt>
<trkpt lat="-27.275253" lon="151.2953598">
  <ele>457.16</ele>
  <time>2026-09-01T19:53:17Z</time>
  <course>35.64</course>
  <speed>25.52222756735783</speed>
  <fix>3d</fix>
</trkpt>
<trkpt lat="-27.2752349" lon="151.2953742">
  <ele>457.14</ele>
  <time>2026-09-01T19:53:17Z</time>
  <course>35.71</course>
  <speed>25.317592697569015</speed>
  <fix>3d</fix>
</trkpt>
<trkpt lat="-27.275252" lon="151.2953604">
  <ele>457.11</ele>
  <time>2026-09-01T19:53:17Z</time>
  <course>35.4</course>
  <speed>25.65</speed>
  <fix>3d</fix>
</trkpt>
<trkpt lat="-27.2752343" lon="151.2953748">
  <ele>457.14</ele>
  <time>2026-09-01T19:53:17Z</time>
  <course>35.71</course>
  <speed>25.3094488284514</speed>
  <fix>3d</fix>
</trkpt>
<trkpt lat="-27.2752163" lon="151.2953892">
  <ele>457.11</ele>
  <time>2026-09-01T19:53:17Z</time>
  <course>35.57</course>
  <speed>25.122286918192778</speed>
  <fix>3d</fix>
</trkpt>
<trkpt lat="-27.275252" lon="151.2953604">
  <ele>457.11</ele>
  <time>2026-09-01T19:53:17Z</time>
  <course>35.4</course>
  <speed>25.65</speed>
  <fix>3d</fix>
</trkpt>
<trkpt lat="-27.2752102" lon="151.2953941">
  <ele>457.09</ele>
  <time>2026-09-01T19:53:17Z</time>
  <course>35.45</course>
  <speed>25.05373425260195</speed>
  <fix>3d</fix>
</trkpt>
<trkpt lat="-27.2751979" lon="151.295404">
  <ele>457.05</ele>
  <time>2026-09-01T19:53:17Z</time>
  <course>35.07</course>
  <speed>24.94105250385396</speed>
  <fix>3d</fix>
</trkpt>
<trkpt lat="-27.2752147" lon="151.2953903">
  <ele>457.07</ele>
  <time>2026-09-01T19:53:17Z</time>
  <course>35.55</course>
  <speed>25.26</speed>
  <fix>3d</fix>
</trkpt>
<trkpt lat="-27.2751973" lon="151.2954045">
  <ele>457.05</ele>
  <time>2026-09-01T19:53:17Z</time>
  <course>35.05</course>
  <speed>24.932934043148634</speed>
  <fix>3d</fix>
</trkpt>
<trkpt lat="-27.2751796" lon="151.2954188">
  <ele>456.97</ele>
  <time>2026-09-01T19:53:17Z</time>
  <course>34.34</course>
  <speed>24.78524762837765</speed>
  <fix>3d</fix>
</trkpt>
<trkpt lat="-27.2752147" lon="151.2953903">
  <ele>457.07</ele>
  <time>2026-09-01T19:53:17Z</time>
  <course>35.55</course>
  <speed>25.26</speed>
  <fix>3d</fix>
</trkpt>
<trkpt lat="-27.275179" lon="151.2954193">
  <ele>456.97</ele>
  <time>2026-09-01T19:53:17Z</time>
  <course>34.32</course>
  <speed>24.78524762837765</speed>
  <fix>3d</fix>
</trkpt>
<trkpt lat="-27.2751614" lon="151.2954335">
  <ele>456.88</ele>
  <time>2026-09-01T19:53:17Z</time>
  <course>33.67</course>
  <speed>24.661997080528575</speed>
  <fix>3d</fix>
</trkpt>
<trkpt lat="-27.2751781" lon="151.2954198">
  <ele>456.95</ele>
  <time>2026-09-01T19:53:17Z</time>
  <course>35.54</course>
  <speed>24.91</speed>
  <fix>3d</fix>
</trkpt>
<trkpt lat="-27.2751558" lon="151.2954378">
  <ele>456.85</ele>
  <time>2026-09-01T19:53:17Z</time>
  <course>33.51</course>
  <speed>24.62389489906095</speed>
  <fix>3d</fix>
</trkpt>
<trkpt lat="-27.2751431" lon="151.2954479">
  <ele>456.77</ele>
  <time>2026-09-01T19:53:17Z</time>
  <course>33.23</course>
  <speed>24.552574203125832</speed>
  <fix>3d</fix>
</trkpt>
<trkpt lat="-27.2751781" lon="151.2954198">
  <ele>456.95</ele>
  <time>2026-09-01T19:53:17Z</time>
  <course>35.54</course>
  <speed>24.91</speed>
  <fix>3d</fix>
</trkpt>
<trkpt lat="-27.275137" lon="151.2954526">
  <ele>456.73</ele>
  <time>2026-09-01T19:53:17Z</time>
  <course>33.15</course>
  <speed>24.531214808891956</speed>
  <fix>3d</fix>
</trkpt>
<trkpt lat="-27.2751247" lon="151.295462">
  <ele>456.64</ele>
  <time>2026-09-01T19:53:17Z</time>
  <course>32.99</course>
  <speed>24.47897056659042</speed>
  <fix>3d</fix>
</trkpt>
<trkpt lat="-27.2751781" lon="151.2954198">
  <ele>456.95</ele>
  <time>2026-09-01T19:53:17Z</time>
  <course>35.54</course>
  <speed>24.91</speed>
  <fix>3d</fix>
</trkpt>
<trkpt lat="-27.2751198" lon="151.2954656">
  <ele>456.6</ele>
  <time>2026-09-01T19:53:17Z</time>
  <course>32.92</course>
  <speed>24.456902911039247</speed>
  <fix>3d</fix>
</trkpt>
<trkpt lat="-27.2751062" lon="151.2954755">
  <ele>456.49</ele>
  <time>2026-09-01T19:53:17Z</time>
  <course>32.61</course>
  <speed>24.409428506214564</speed>
  <fix>3d</fix>
</trkpt>
<trkpt lat="-27.2751416" lon="151.2954487">
  <ele>456.76</ele>
  <time>2026-09-01T19:53:17Z</time>
  <course>34.64</course>
  <speed>24.66</speed>
  <fix>3d</fix>
</trkpt>
<trkpt lat="-27.2751007" lon="151.2954795">
  <ele>456.44</ele>
  <time>2026-09-01T19:53:17Z</time>
  <course>32.41</course>
  <speed>24.394794526701798</speed>
  <fix>3d</fix>
</trkpt>
<trkpt lat="-27.2750875" lon="151.2954885">
  <ele>456.32</ele>
  <time>2026-09-01T19:53:17Z</time>
  <course>31.75</course>
  <speed>24.373448668581965</speed>
  <fix>3d</fix>
</trkpt>
<trkpt lat="-27.2751416" lon="151.2954487">
  <ele>456.76</ele>
  <time>2026-09-01T19:53:17Z</time>
  <course>34.64</course>
  <speed>24.66</speed>
  <fix>3d</fix>
</trkpt>
<trkpt lat="-27.2750819" lon="151.2954923">
  <ele>456.27</ele>
  <time>2026-09-01T19:53:17Z</time>
  <course>31.35</course>
  <speed>24.37872022892096</speed>
  <fix>3d</fix>
</trkpt>
<trkpt lat="-27.2750685" lon="151.2955007">
  <ele>456.15</ele>
  <time>2026-09-01T19:53:17Z</time>
  <course>30.1</course>
  <speed>24.38641630088357</speed>
  <fix>3d</fix>
</trkpt>
<trkpt lat="-27.2751048" lon="151.2954763">
  <ele>456.5</ele>
  <time>2026-09-01T19:53:17Z</time>
  <course>32.41</course>
  <speed>24.49</speed>
  <fix>3d</fix>
</trkpt>
<trkpt lat="-27.2750634" lon="151.2955039">
  <ele>456.1</ele>
  <time>2026-09-01T19:53:17Z</time>
  <course>29.51</course>
  <speed>24.38647576014214</speed>
  <fix>3d</fix>
</trkpt>
<trkpt lat="-27.2750492" lon="151.295512">
  <ele>455.97</ele>
  <time>2026-09-01T19:53:17Z</time>
  <course>27.67</course>
  <speed>24.42278034950157</speed>
  <fix>3d</fix>
</trkpt>
<trkpt lat="-27.2751048" lon="151.2954763">
  <ele>456.5</ele>
  <time>2026-09-01T19:53:17Z</time>
  <course>32.41</course>
  <speed>24.49</speed>
  <fix>3d</fix>
</trkpt>
<trkpt lat="-27.2750484" lon="151.2955125">
  <ele>455.96</ele>
  <time>2026-09-01T19:53:17Z</time>
  <course>27.56</course>
  <speed>24.41869161114084</speed>
  <fix>3d</fix>
</trkpt>
<trkpt lat="-27.2750294" lon="151.2955223">
  <ele>455.79</ele>
  <time>2026-09-01T19:53:17Z</time>
  <course>24.78</course>
  <speed>24.47555515202873</speed>
  <fix>3d</fix>
</trkpt>
<trkpt lat="-27.275067" lon="151.2955015">
  <ele>456.16</ele>
  <time>2026-09-01T19:53:17Z</time>
  <course>28.66</course>
  <speed>24.44</speed>
  <fix>3d</fix>
</trkpt>
<trkpt lat="-27.2750286" lon="151.2955228">
  <ele>455.79</ele>
  <time>2026-09-01T19:53:17Z</time>
  <course>24.65</course>
  <speed>24.474208873832875</speed>
  <fix>3d</fix>
</trkpt>
<trkpt lat="-27.2750091" lon="151.2955315">
  <ele>455.64</ele>
  <time>2026-09-01T19:53:17Z</time>
  <course>21.69</course>
  <speed>24.556941992031497</speed>
  <fix>3d</fix>
</trkpt>
<trkpt lat="-27.275067" lon="151.2955015">
  <ele>456.16</ele>
  <time>2026-09-01T19:53:17Z</time>
  <course>28.66</course>
  <speed>24.44</speed>
  <fix>3d</fix>
</trkpt>
<trkpt lat="-27.275002" lon="151.2955343">
  <ele>455.59</ele>
  <time>2026-09-01T19:53:17Z</time>
  <course>20.63</course>
  <speed>24.585267946475586</speed>
  <fix>3d</fix>
</trkpt>
<trkpt lat="-27.2749884" lon="151.2955394">
  <ele>455.51</ele>
  <time>2026-09-01T19:53:17Z</time>
  <course>18.55</course>
  <speed>24.631908168065262</speed>
  <fix>3d</fix>
</trkpt>
<trkpt lat="-27.2750276" lon="151.2955232">
  <ele>455.83</ele>
  <time>2026-09-01T19:53:17Z</time>
  <course>23.38</course>
  <speed>24.52</speed>
  <fix>3d</fix>
</trkpt>
<trkpt lat="-27.2749812" lon="151.2955418">
  <ele>455.47</ele>
  <time>2026-09-01T19:53:17Z</time>
  <course>17.45</course>
  <speed>24.653480484507657</speed>
  <fix>3d</fix>
</trkpt>
<trkpt lat="-27.274967" lon="151.2955461">
  <ele>455.4</ele>
  <time>2026-09-01T19:53:17Z</time>
  <course>15.25</course>
  <speed>24.699935222587122</speed>
  <fix>3d</fix>
</trkpt>
<trkpt lat="-27.2750276" lon="151.2955232">
  <ele>455.83</ele>
  <time>2026-09-01T19:53:17Z</time>
  <course>23.38</course>
  <speed>24.52</speed>
  <fix>3d</fix>
</trkpt>
<trkpt lat="-27.2749606" lon="151.2955478">
  <ele>455.37</ele>
  <time>2026-09-01T19:53:17Z</time>
  <course>14.27</course>
  <speed>24.716573387102027</speed>
  <fix>3d</fix>
</trkpt>
<trkpt lat="-27.2749456" lon="151.2955515">
  <ele>455.32</ele>
  <time>2026-09-01T19:53:17Z</time>
  <course>12.06</course>
  <speed>24.77458375028731</speed>
  <fix>3d</fix>
</trkpt>
<trkpt lat="-27.2749862" lon="151.2955405">
  <ele>455.55</ele>
  <time>2026-09-01T19:53:17Z</time>
  <course>17.23</course>
  <speed>24.68</speed>
  <fix>3d</fix>
</trkpt>
<trkpt lat="-27.274939" lon="151.2955528">
  <ele>455.3</ele>
  <time>2026-09-01T19:53:17Z</time>
  <course>11.13</course>
  <speed>24.803356627682476</speed>
  <fix>3d</fix>
</trkpt>
<trkpt lat="-27.2749237" lon="151.2955555">
  <ele>455.26</ele>
  <time>2026-09-01T19:53:17Z</time>
  <course>8.98</course>
  <speed>24.882483798849343</speed>
  <fix>3d</fix>
</trkpt>
<trkpt lat="-27.2749862" lon="151.2955405">
  <ele>455.55</ele>
  <time>2026-09-01T19:53:17Z</time>
  <course>17.23</course>
  <speed>24.68</speed>
  <fix>3d</fix>
</trkpt>
<trkpt lat="-27.274923" lon="151.2955556">
  <ele>455.26</ele>
  <time>2026-09-01T19:53:17Z</time>
  <course>8.88</course>
  <speed>24.88709103129572</speed>
  <fix>3d</fix>
</trkpt>
<trkpt lat="-27.2749017" lon="151.2955583">
  <ele>455.22</ele>
  <time>2026-09-01T19:53:17Z</time>
  <course>5.96</course>
  <speed>25.041605379847354</speed>
  <fix>3d</fix>
</trkpt>
<trkpt lat="-27.274943" lon="151.2955527">
  <ele>455.37</ele>
  <time>2026-09-01T19:53:17Z</time>
  <course>10.97</course>
  <speed>24.87</speed>
  <fix>3d</fix>
</trkpt>
<trkpt lat="-27.2748943" lon="151.295559">
  <ele>455.21</ele>
  <time>2026-09-01T19:53:17Z</time>
  <course>4.95</course>
  <speed>25.0997788834882</speed>
  <fix>3d</fix>
</trkpt>
<trkpt lat="-27.2748793" lon="151.2955598">
  <ele>455.2</ele>
  <time>2026-09-01T19:53:17Z</time>
  <course>2.86</course>
  <speed>25.209172933676346</speed>
  <fix>3d</fix>
</trkpt>
<trkpt lat="-27.274943" lon="151.2955527">
  <ele>455.37</ele>
  <time>2026-09-01T19:53:17Z</time>
  <course>10.97</course>
  <speed>24.87</speed>
  <fix>3d</fix>
</trkpt>
<trkpt lat="-27.2748726" lon="151.29556">
  <ele>455.2</ele>
  <time>2026-09-01T19:53:17Z</time>
  <course>1.9</course>
  <speed>25.26144295166054</speed>
  <fix>3d</fix>
</trkpt>
<trkpt lat="-27.2748567" lon="151.2955599">
  <ele>455.2</ele>
  <time>2026-09-01T19:53:17Z</time>
  <course>359.6</course>
  <speed>25.389929105848246</speed>
  <fix>3d</fix>
</trkpt>
<trkpt lat="-27.2748986" lon="151.2955596">
  <ele>455.27</ele>
  <time>2026-09-01T19:53:17Z</time>
  <course>4.79</course>
  <speed>25.15</speed>
  <fix>3d</fix>
</trkpt>
<trkpt lat="-27.2748498" lon="151.2955597">
  <ele>455.2</ele>
  <time>2026-09-01T19:53:17Z</time>
  <course>358.6</course>
  <speed>25.436009907216185</speed>
  <fix>3d</fix>
</trkpt>
<trkpt lat="-27.2748339" lon="151.2955586">
  <ele>455.22</ele>
  <time>2026-09-01T19:53:17Z</time>
  <course>356.29</course>
  <speed>25.544911430654835</speed>
  <fix>3d</fix>
</trkpt>
<trkpt lat="-27.2748986" lon="151.2955596">
  <ele>455.27</ele>
  <time>2026-09-01T19:53:17Z</time>
  <course>4.79</course>
  <speed>25.15</speed>
  <fix>3d</fix>
</trkpt>
<trkpt lat="-27.274827" lon="151.295558">
  <ele>455.22</ele>
  <time>2026-09-01T19:53:17Z</time>
  <course>355.31</course>
  <speed>25.598578085510923</speed>
  <fix>3d</fix>
</trkpt>
<trkpt lat="-27.2748109" lon="151.2955558">
  <ele>455.25</ele>
  <time>2026-09-01T19:53:17Z</time>
  <course>352.94</course>
  <speed>25.710542584706378</speed>
  <fix>3d</fix>
</trkpt>
<trkpt lat="-27.2748532" lon="151.295561">
  <ele>455.26</ele>
  <time>2026-09-01T19:53:17Z</time>
  <course>358.49</course>
  <speed>25.49</speed>
  <fix>3d</fix>
</trkpt>
<trkpt lat="-27.2748104" lon="151.2955557">
  <ele>455.25</ele>
  <time>2026-09-01T19:53:17Z</time>
  <course>352.85</course>
  <speed>25.716360551213306</speed>
  <fix>3d</fix>
</trkpt>
<trkpt lat="-27.2747879" lon="151.2955513">
  <ele>455.31</ele>
  <time>2026-09-01T19:53:17Z</time>
  <course>349.2</course>
  <speed>25.872858365476358</speed>
  <fix>3d</fix>
</trkpt>
<trkpt lat="-27.2748073" lon="151.2955567">
  <ele>455.31</ele>
  <time>2026-09-01T19:53:17Z</time>
  <course>351.79</course>
  <speed>25.81</speed>
  <fix>3d</fix>
</trkpt>
<trkpt lat="-27.2747871" lon="151.2955512">
  <ele>455.31</ele>
  <time>2026-09-01T19:53:17Z</time>
  <course>349.08</course>
  <speed>25.875480671863855</speed>
  <fix>3d</fix>
</trkpt>
<trkpt lat="-27.274765" lon="151.2955452">
  <ele>455.38</ele>
  <time>2026-09-01T19:53:17Z</time>
  <course>345.44</course>
  <speed>26.00697214210066</speed>
  <fix>3d</fix>
</trkpt>
<trkpt lat="-27.2748073" lon="151.2955567">
  <ele>455.31</ele>
  <time>2026-09-01T19:53:17Z</time>
  <course>351.79</course>
  <speed>25.81</speed>
  <fix>3d</fix>
</trkpt>
<trkpt lat="-27.2747642" lon="151.295545">
  <ele>455.39</ele>
  <time>2026-09-01T19:53:17Z</time>
  <course>345.32</course>
  <speed>26.013536860642386</speed>
  <fix>3d</fix>
</trkpt>
<trkpt lat="-27.2747424" lon="151.2955374">
  <ele>455.49</ele>
  <time>2026-09-01T19:53:17Z</time>
  <course>341.73</course>
  <speed>26.130277457386477</speed>
  <fix>3d</fix>
</trkpt>
<trkpt lat="-27.2747616" lon="151.2955461">
  <ele>455.45</ele>
  <time>2026-09-01T19:53:17Z</time>
  <course>344.6</course>
  <speed>26.08</speed>
  <fix>3d</fix>
</trkpt>
<trkpt lat="-27.2747417" lon="151.2955371">
  <ele>455.49</ele>
  <time>2026-09-01T19:53:17Z</time>
  <course>341.6</course>
  <speed>26.14082056860496</speed>
  <fix>3d</fix>
</trkpt>
<trkpt lat="-27.2747201" lon="151.2955278">
  <ele>455.62</ele>
  <time>2026-09-01T19:53:17Z</time>
  <course>338.08</course>
  <speed>26.253418824983537</speed>
  <fix>3d</fix>
</trkpt>
<trkpt lat="-27.2747616" lon="151.2955461">
  <ele>455.45</ele>
  <time>2026-09-01T19:53:17Z</time>
  <course>344.6</course>
  <speed>26.08</speed>
  <fix>3d</fix>
</trkpt>
<trkpt lat="-27.2747136" lon="151.2955246">
  <ele>455.66</ele>
  <time>2026-09-01T19:53:17Z</time>
  <course>337.03</course>
  <speed>26.28158290514481</speed>
  <fix>3d</fix>
</trkpt>
<trkpt lat="-27.2746984" lon="151.2955166">
  <ele>455.78</ele>
  <time>2026-09-01T19:53:17Z</time>
  <course>334.58</course>
  <speed>26.345629618591392</speed>
  <fix>3d</fix>
</trkpt>
<trkpt lat="-27.2747616" lon="151.2955461">
  <ele>455.45</ele>
  <time>2026-09-01T19:53:17Z</time>
  <course>344.6</course>
  <speed>26.08</speed>
  <fix>3d</fix>
</trkpt>
<trkpt lat="-27.2746921" lon="151.295513">
  <ele>455.83</ele>
  <time>2026-09-01T19:53:17Z</time>
  <course>333.53</course>
  <speed>26.361314458880837</speed>
  <fix>3d</fix>
</trkpt>
<trkpt lat="-27.2746775" lon="151.2955041">
  <ele>455.96</ele>
  <time>2026-09-01T19:53:17Z</time>
  <course>331.05</course>
  <speed>26.408672817845275</speed>
  <fix>3d</fix>
</trkpt>
<trkpt lat="-27.2747171" lon="151.2955286">
  <ele>455.68</ele>
  <time>2026-09-01T19:53:17Z</time>
  <course>337.11</course>
  <speed>26.29</speed>
  <fix>3d</fix>
</trkpt>
<trkpt lat="-27.2746714" lon="151.2955">
  <ele>456.02</ele>
  <time>2026-09-01T19:53:17Z</time>
  <course>330.01</course>
  <speed>26.418554086096382</speed>
  <fix>3d</fix>
</trkpt>
<trkpt lat="-27.2746573" lon="151.2954901">
  <ele>456.16</ele>
  <time>2026-09-01T19:53:17Z</time>
  <course>327.62</course>
  <speed>26.45381068957741</speed>
  <fix>3d</fix>
</trkpt>
<trkpt lat="-27.2747171" lon="151.2955286">
  <ele>455.68</ele>
  <time>2026-09-01T19:53:17Z</time>
  <course>337.11</course>
  <speed>26.29</speed>
  <fix>3d</fix>
</trkpt>
<trkpt lat="-27.2746521" lon="151.2954861">
  <ele>456.22</ele>
  <time>2026-09-01T19:53:17Z</time>
  <course>326.72</course>
  <speed>26.453135919962307</speed>
  <fix>3d</fix>
</trkpt>
<trkpt lat="-27.274638" lon="151.2954749">
  <ele>456.38</ele>
  <time>2026-09-01T19:53:17Z</time>
  <course>324.3</course>
  <speed>26.47462558753192</speed>
  <fix>3d</fix>
</trkpt>
<trkpt lat="-27.2746747" lon="151.2955048">
  <ele>456.01</ele>
  <time>2026-09-01T19:53:17Z</time>
  <course>329.81</course>
  <speed>26.43</speed>
  <fix>3d</fix>
</trkpt>
<trkpt lat="-27.2746324" lon="151.2954701">
  <ele>456.46</ele>
  <time>2026-09-01T19:53:17Z</time>
  <course>323.37</course>
  <speed>26.46583646892726</speed>
  <fix>3d</fix>
</trkpt>
<trkpt lat="-27.2746195" lon="151.2954584">
  <ele>456.62</ele>
  <time>2026-09-01T19:53:17Z</time>
  <course>321.23</course>
  <speed>26.469877219209007</speed>
  <fix>3d</fix>
</trkpt>
<trkpt lat="-27.2746747" lon="151.2955048">
  <ele>456.01</ele>
  <time>2026-09-01T19:53:17Z</time>
  <course>329.81</course>
  <speed>26.43</speed>
  <fix>3d</fix>
</trkpt>
<trkpt lat="-27.2746189" lon="151.2954579">
  <ele>456.63</ele>
  <time>2026-09-01T19:53:17Z</time>
  <course>321.13</course>
  <speed>26.465524744467093</speed>
  <fix>3d</fix>
</trkpt>
<trkpt lat="-27.2746021" lon="151.2954411">
  <ele>456.87</ele>
  <time>2026-09-01T19:53:17Z</time>
  <course>318.32</course>
  <speed>26.460689711343502</speed>
  <fix>3d</fix>
</trkpt>
<trkpt lat="-27.2746352" lon="151.2954752">
  <ele>456.42</ele>
  <time>2026-09-01T19:53:17Z</time>
  <course>322.9</course>
  <speed>26.51</speed>
  <fix>3d</fix>
</trkpt>
<trkpt lat="-27.2746014" lon="151.2954404">
  <ele>456.88</ele>
  <time>2026-09-01T19:53:17Z</time>
  <course>318.2</course>
  <speed>26.45937452019605</speed>
  <fix>3d</fix>
</trkpt>
<trkpt lat="-27.2745854" lon="151.2954226">
  <ele>457.13</ele>
  <time>2026-09-01T19:53:17Z</time>
  <course>315.49</course>
  <speed>26.427353253778556</speed>
  <fix>3d</fix>
</trkpt>
<trkpt lat="-27.2746352" lon="151.2954752">
  <ele>456.42</ele>
  <time>2026-09-01T19:53:17Z</time>
  <course>322.9</course>
  <speed>26.51</speed>
  <fix>3d</fix>
</trkpt>
<trkpt lat="-27.2745842" lon="151.2954212">
  <ele>457.15</ele>
  <time>2026-09-01T19:53:17Z</time>
  <course>315.28</course>
  <speed>26.42339304480028</speed>
  <fix>3d</fix>
</trkpt>
<trkpt lat="-27.2745695" lon="151.2954032">
  <ele>457.39</ele>
  <time>2026-09-01T19:53:17Z</time>
  <course>312.86</course>
  <speed>26.395018469400625</speed>
  <fix>3d</fix>
</trkpt>
<trkpt lat="-27.2745989" lon="151.2954404">
  <ele>456.88</ele>
  <time>2026-09-01T19:53:17Z</time>
  <course>316.49</course>
  <speed>26.54</speed>
  <fix>3d</fix>
</trkpt>
<trkpt lat="-27.2745642" lon="151.2953963">
  <ele>457.48</ele>
  <time>2026-09-01T19:53:17Z</time>
  <course>312.0</course>
  <speed>26.380744871970542</speed>
  <fix>3d</fix>
</trkpt>
<trkpt lat="-27.2745544" lon="151.2953828">
  <ele>457.65</ele>
  <time>2026-09-01T19:53:17Z</time>
  <course>310.41</course>
  <speed>26.359169182658242</speed>
  <fix>3d</fix>
</trkpt>
<trkpt lat="-27.2745989" lon="151.2954404">
  <ele>456.88</ele>
  <time>2026-09-01T19:53:17Z</time>
  <course>316.49</course>
  <speed>26.54</speed>
  <fix>3d</fix>
</trkpt>
<trkpt lat="-27.2745495" lon="151.2953757">
  <ele>457.74</ele>
  <time>2026-09-01T19:53:17Z</time>
  <course>309.62</course>
  <speed>26.332301456576104</speed>
  <fix>3d</fix>
</trkpt>
<trkpt lat="-27.27454" lon="151.2953616">
  <ele>457.91</ele>
  <time>2026-09-01T19:53:17Z</time>
  <course>308.14</course>
  <speed>26.30684321616716</speed>
  <fix>3d</fix>
</trkpt>
<trkpt lat="-27.2745661" lon="151.2954016">
  <ele>457.37</ele>
  <time>2026-09-01T19:53:17Z</time>
  <course>310.68</course>
  <speed>26.52</speed>
  <fix>3d</fix>
</trkpt>
<trkpt lat="-27.2745354" lon="151.2953544">
  <ele>458.0</ele>
  <time>2026-09-01T19:53:17Z</time>
  <course>307.4</course>
  <speed>26.289315320106763</speed>
  <fix>3d</fix>
</trkpt>
<trkpt lat="-27.2745266" lon="151.2953399">
  <ele>458.17</ele>
  <time>2026-09-01T19:53:17Z</time>
  <course>306.01</course>
  <speed>26.249032363117696</speed>
  <fix>3d</fix>
</trkpt>
<trkpt lat="-27.2745661" lon="151.2954016">
  <ele>457.37</ele>
  <time>2026-09-01T19:53:17Z</time>
  <course>310.68</course>
  <speed>26.52</speed>
  <fix>3d</fix>
</trkpt>
<trkpt lat="-27.2745227" lon="151.2953332">
  <ele>458.24</ele>
  <time>2026-09-01T19:53:17Z</time>
  <course>305.43</course>
  <speed>26.23036408439654</speed>
  <fix>3d</fix>
</trkpt>
<trkpt lat="-27.2745138" lon="151.2953176">
  <ele>458.41</ele>
  <time>2026-09-01T19:53:17Z</time>
  <course>304.19</course>
  <speed>26.17451050163116</speed>
  <fix>3d</fix>
</trkpt>
<trkpt lat="-27.2745368" lon="151.2953595">
  <ele>457.87</ele>
  <time>2026-09-01T19:53:17Z</time>
  <course>305.56</course>
  <speed>26.45</speed>
  <fix>3d</fix>
</trkpt>
<trkpt lat="-27.2745101" lon="151.2953109">
  <ele>458.48</ele>
  <time>2026-09-01T19:53:17Z</time>
  <course>303.7</course>
  <speed>26.15893155310438</speed>
  <fix>3d</fix>
</trkpt>
<trkpt lat="-27.2745018" lon="151.295295">
  <ele>458.64</ele>
  <time>2026-09-01T19:53:17Z</time>
  <course>302.59</course>
  <speed>26.11082917105468</speed>
  <fix>3d</fix>
</trkpt>
<trkpt lat="-27.2745368" lon="151.2953595">
  <ele>457.87</ele>
  <time>2026-09-01T19:53:17Z</time>
  <course>305.56</course>
  <speed>26.45</speed>
  <fix>3d</fix>
</trkpt>
<trkpt lat="-27.2744983" lon="151.2952881">
  <ele>458.7</ele>
  <time>2026-09-01T19:53:17Z</time>
  <course>302.15</course>
  <speed>26.091663419567563</speed>
  <fix>3d</fix>
</trkpt>
<trkpt lat="-27.2744904" lon="151.2952719">
  <ele>458.84</ele>
  <time>2026-09-01T19:53:17Z</time>
  <course>301.18</course>
  <speed>26.025994697609544</speed>
  <fix>3d</fix>
</trkpt>
<trkpt lat="-27.2745107" lon="151.2953149">
  <ele>458.34</ele>
  <time>2026-09-01T19:53:17Z</time>
  <course>301.26</course>
  <speed>26.33</speed>
  <fix>3d</fix>
</trkpt>
<trkpt lat="-27.2744857" lon="151.2952621">
  <ele>458.92</ele>
  <time>2026-09-01T19:53:17Z</time>
  <course>300.61</course>
  <speed>25.994160882782886</speed>
  <fix>3d</fix>
</trkpt>
<trkpt lat="-27.2744796" lon="151.2952486">
  <ele>459.02</ele>
  <time>2026-09-01T19:53:17Z</time>
  <course>299.9</course>
  <speed>25.94734668516224</speed>
  <fix>3d</fix>
</trkpt>
<trkpt lat="-27.2745107" lon="151.2953149">
  <ele>458.34</ele>
  <time>2026-09-01T19:53:17Z</time>
  <course>301.26</course>
  <speed>26.33</speed>
  <fix>3d</fix>
</trkpt>
<trkpt lat="-27.2744762" lon="151.295241">
  <ele>459.07</ele>
  <time>2026-09-01T19:53:17Z</time>
  <course>299.5</course>
  <speed>25.921388851679993</speed>
  <fix>3d</fix>
</trkpt>
<trkpt lat="-27.2744693" lon="151.2952251">
  <ele>459.16</ele>
  <time>2026-09-01T19:53:17Z</time>
  <course>298.69</course>
  <speed>25.86452589938582</speed>
  <fix>3d</fix>
</trkpt>
<trkpt lat="-27.2744875" lon="151.2952687">
  <ele>458.75</ele>
  <time>2026-09-01T19:53:17Z</time>
  <course>297.8</course>
  <speed>26.19</speed>
  <fix>3d</fix>
</trkpt>
<trkpt lat="-27.2744663" lon="151.295218">
  <ele>459.2</ele>
  <time>2026-09-01T19:53:17Z</time>
  <course>298.36</course>
  <speed>25.832911179346397</speed>
  <fix>3d</fix>
</trkpt>
<trkpt lat="-27.2744595" lon="151.2952014">
  <ele>459.28</ele>
  <time>2026-09-01T19:53:17Z</time>
  <course>297.61</course>
  <speed>25.76958090462474</speed>
  <fix>3d</fix>
</trkpt>
<trkpt lat="-27.2744875" lon="151.2952687">
  <ele>458.75</ele>
  <time>2026-09-01T19:53:17Z</time>
  <course>297.8</course>
  <speed>26.19</speed>
  <fix>3d</fix>
</trkpt>
<trkpt lat="-27.2744592" lon="151.2952008">
  <ele>459.28</ele>
  <time>2026-09-01T19:53:17Z</time>
  <course>297.59</course>
  <speed>25.765496308047318</speed>
  <fix>3d</fix>
</trkpt>
<trkpt lat="-27.2744501" lon="151.2951776">
  <ele>459.36</ele>
  <time>2026-09-01T19:53:17Z</time>
  <course>296.63</course>
  <speed>25.680942350311057</speed>
  <fix>3d</fix>
</trkpt>
<trkpt lat="-27.2744667" lon="151.2952215">
  <ele>459.06</ele>
  <time>2026-09-01T19:53:17Z</time>
  <course>295.07</course>
  <speed>26.02</speed>
  <fix>3d</fix>
</trkpt>
<trkpt lat="-27.274447" lon="151.2951696">
  <ele>459.37</ele>
  <time>2026-09-01T19:53:17Z</time>
  <course>296.3</course>
  <speed>25.650095516391357</speed>
  <fix>3d</fix>
</trkpt>
<trkpt lat="-27.2744411" lon="151.2951537">
  <ele>459.4</ele>
  <time>2026-09-01T19:53:17Z</time>
  <course>295.66</course>
  <speed>25.589304406333518</speed>
  <fix>3d</fix>
</trkpt>
<trkpt lat="-27.2744667" lon="151.2952215">
  <ele>459.06</ele>
  <time>2026-09-01T19:53:17Z</time>
  <course>295.07</course>
  <speed>26.02</speed>
  <fix>3d</fix>
</trkpt>
<trkpt lat="-27.2744388" lon="151.2951473">
  <ele>459.4</ele>
  <time>2026-09-01T19:53:17Z</time>
  <course>295.41</course>
  <speed>25.557302283300558</speed>
  <fix>3d</fix>
</trkpt>
<trkpt lat="-27.2744325" lon="151.2951297">
  <ele>459.4</ele>
  <time>2026-09-01T19:53:17Z</time>
  <course>294.75</course>
  <speed>25.487742151865863</speed>
  <fix>3d</fix>
</trkpt>
<trkpt lat="-27.2744478" lon="151.2951736">
  <ele>459.24</ele>
  <time>2026-09-01T19:53:17Z</time>
  <course>292.86</course>
  <speed>25.83</speed>
  <fix>3d</fix>
</trkpt>
<trkpt lat="-27.27443" lon="151.2951224">
  <ele>459.39</ele>
  <time>2026-09-01T19:53:17Z</time>
  <course>294.49</course>
  <speed>25.46310664471246</speed>
  <fix>3d</fix>
</trkpt>
<trkpt lat="-27.2744243" lon="151.2951056">
  <ele>459.36</ele>
  <time>2026-09-01T19:53:17Z</time>
  <course>293.84</course>
  <speed>25.399151560632887</speed>
  <fix>3d</fix>
</trkpt>
<trkpt lat="-27.2744478" lon="151.2951736">
  <ele>459.24</ele>
  <time>2026-09-01T19:53:17Z</time>
  <course>292.86</course>
  <speed>25.83</speed>
  <fix>3d</fix>
</trkpt>
<trkpt lat="-27.2744222" lon="151.2950992">
  <ele>459.34</ele>
  <time>2026-09-01T19:53:17Z</time>
  <course>293.6</course>
  <speed>25.37033109756355</speed>
  <fix>3d</fix>
</trkpt>
<trkpt lat="-27.2744164" lon="151.2950814">
  <ele>459.28</ele>
  <time>2026-09-01T19:53:17Z</time>
  <course>292.95</course>
  <speed>25.309990122479306</speed>
  <fix>3d</fix>
</trkpt>
<trkpt lat="-27.2744305" lon="151.2951251">
  <ele>459.28</ele>
  <time>2026-09-01T19:53:17Z</time>
  <course>290.99</course>
  <speed>25.64</speed>
  <fix>3d</fix>
</trkpt>
<trkpt lat="-27.2744141" lon="151.2950742">
  <ele>459.25</ele>
  <time>2026-09-01T19:53:17Z</time>
  <course>292.67</course>
  <speed>25.288811755398868</speed>
  <fix>3d</fix>
</trkpt>
<trkpt lat="-27.2744089" lon="151.2950573">
  <ele>459.17</ele>
  <time>2026-09-01T19:53:17Z</time>
  <course>292.0</course>
  <speed>25.222783351565308</speed>
  <fix>3d</fix>
</trkpt>
<trkpt lat="-27.2744305" lon="151.2951251">
  <ele>459.28</ele>
  <time>2026-09-01T19:53:17Z</time>
  <course>290.99</course>
  <speed>25.64</speed>
  <fix>3d</fix>
</trkpt>
<trkpt lat="-27.2744067" lon="151.29505">
  <ele>459.13</ele>
  <time>2026-09-01T19:53:17Z</time>
  <course>291.72</course>
  <speed>25.206548752258804</speed>
  <fix>3d</fix>
</trkpt>
<trkpt lat="-27.2744018" lon="151.2950331">
  <ele>459.02</ele>
  <time>2026-09-01T19:53:17Z</time>
  <course>291.05</course>
  <speed>25.14108191784912</speed>
  <fix>3d</fix>
</trkpt>
<trkpt lat="-27.2744147" lon="151.2950766">
  <ele>459.16</ele>
  <time>2026-09-01T19:53:17Z</time>
  <course>289.29</course>
  <speed>25.46</speed>
  <fix>3d</fix>
</trkpt>
<trkpt lat="-27.2743996" lon="151.2950257">
  <ele>458.97</ele>
  <time>2026-09-01T19:53:17Z</time>
  <course>290.74</course>
  <speed>25.123455176388457</speed>
  <fix>3d</fix>
</trkpt>
<trkpt lat="-27.2743949" lon="151.2950088">
  <ele>458.84</ele>
  <time>2026-09-01T19:53:17Z</time>
  <course>290.02</course>
  <speed>25.071565567391282</speed>
  <fix>3d</fix>
</trkpt>
<trkpt lat="-27.2744147" lon="151.2950766">
  <ele>459.16</ele>
  <time>2026-09-01T19:53:17Z</time>
  <course>289.29</course>
  <speed>25.46</speed>
  <fix>3d</fix>
</trkpt>
<trkpt lat="-27.2743929" lon="151.2950015">
  <ele>458.78</ele>
  <time>2026-09-01T19:53:17Z</time>
  <course>289.73</course>
  <speed>25.058685121131155</speed>
  <fix>3d</fix>
</trkpt>
<trkpt lat="-27.2743885" lon="151.2949844">
  <ele>458.63</ele>
  <time>2026-09-01T19:53:17Z</time>
  <course>289.07</course>
  <speed>25.01764377394482</speed>
  <fix>3d</fix>
</trkpt>
<trkpt lat="-27.2744002" lon="151.295028">
  <ele>458.9</ele>
  <time>2026-09-01T19:53:17Z</time>
  <course>287.61</course>
  <speed>25.29</speed>
  <fix>3d</fix>
</trkpt>
<trkpt lat="-27.2743866" lon="151.2949773">
  <ele>458.56</ele>
  <time>2026-09-01T19:53:17Z</time>
  <course>288.8</course>
  <speed>25.00649915521963</speed>
  <fix>3d</fix>
</trkpt>
<trkpt lat="-27.2743824" lon="151.2949602">
  <ele>458.39</ele>
  <time>2026-09-01T19:53:17Z</time>
  <course>288.12</course>
  <speed>24.96984180967112</speed>
  <fix>3d</fix>
</trkpt>
<trkpt lat="-27.2744002" lon="151.295028">
  <ele>458.9</ele>
  <time>2026-09-01T19:53:17Z</time>
  <course>287.61</course>
  <speed>25.29</speed>
  <fix>3d</fix>
</trkpt>
<trkpt lat="-27.2743822" lon="151.2949592">
  <ele>458.38</ele>
  <time>2026-09-01T19:53:17Z</time>
  <course>288.08</course>
  <speed>24.964586918272854</speed>
  <fix>3d</fix>
</trkpt>
<trkpt lat="-27.2743767" lon="151.2949357">
  <ele>458.13</ele>
  <time>2026-09-01T19:53:17Z</time>
  <course>287.11</course>
  <speed>24.945095710379622</speed>
  <fix>3d</fix>
</trkpt>
<trkpt lat="-27.2743872" lon="151.2949792">
  <ele>458.51</ele>
  <time>2026-09-01T19:53:17Z</time>
  <course>285.86</course>
  <speed>25.16</speed>
  <fix>3d</fix>
</trkpt>
<trkpt lat="-27.2743764" lon="151.2949347">
  <ele>458.12</ele>
  <time>2026-09-01T19:53:17Z</time>
  <course>287.07</course>
  <speed>24.940156374810485</speed>
  <fix>3d</fix>
</trkpt>
<trkpt lat="-27.2743713" lon="151.2949111">
  <ele>457.85</ele>
  <time>2026-09-01T19:53:17Z</time>
  <course>286.09</course>
  <speed>24.91495936179708</speed>
  <fix>3d</fix>
</trkpt>
<trkpt lat="-27.2743872" lon="151.2949792">
  <ele>458.51</ele>
  <time>2026-09-01T19:53:17Z</time>
  <course>285.86</course>
  <speed>25.16</speed>
  <fix>3d</fix>
</trkpt>
<trkpt lat="-27.274369" lon="151.2949002">
  <ele>457.72</ele>
  <time>2026-09-01T19:53:17Z</time>
  <course>285.62</course>
  <speed>24.912944426542598</speed>
  <fix>3d</fix>
</trkpt>
<trkpt lat="-27.2743662" lon="151.2948864">
  <ele>457.55</ele>
  <time>2026-09-01T19:53:17Z</time>
  <course>285.04</course>
  <speed>24.91342007834332</speed>
  <fix>3d</fix>
</trkpt>
<trkpt lat="-27.2743755" lon="151.2949302">
  <ele>458.02</ele>
  <time>2026-09-01T19:53:17Z</time>
  <course>284.03</course>
  <speed>25.08</speed>
  <fix>3d</fix>
</trkpt>
<trkpt lat="-27.2743648" lon="151.2948789">
  <ele>457.46</ele>
  <time>2026-09-01T19:53:17Z</time>
  <course>284.73</course>
  <speed>24.90743061819103</speed>
  <fix>3d</fix>
</trkpt>
<trkpt lat="-27.2743616" lon="151.2948614">
  <ele>457.24</ele>
  <time>2026-09-01T19:53:17Z</time>
  <course>284.02</course>
  <speed>24.91663901893672</speed>
  <fix>3d</fix>
</trkpt>
<trkpt lat="-27.2743755" lon="151.2949302">
  <ele>458.02</ele>
  <time>2026-09-01T19:53:17Z</time>
  <course>284.03</course>
  <speed>25.08</speed>
  <fix>3d</fix>
</trkpt>
<trkpt lat="-27.2743595" lon="151.2948498">
  <ele>457.09</ele>
  <time>2026-09-01T19:53:17Z</time>
  <course>283.56</course>
  <speed>24.918852301019</speed>
  <fix>3d</fix>
</trkpt>
<trkpt lat="-27.2743573" lon="151.2948366">
  <ele>456.92</ele>
  <time>2026-09-01T19:53:17Z</time>
  <course>283.03</course>
  <speed>24.917094533673062</speed>
  <fix>3d</fix>
</trkpt>
<trkpt lat="-27.2743654" lon="151.2948808">
  <ele>457.46</ele>
  <time>2026-09-01T19:53:17Z</time>
  <course>282.15</course>
  <speed>25.04</speed>
  <fix>3d</fix>
</trkpt>
<trkpt lat="-27.274356" lon="151.2948283">
  <ele>456.82</ele>
  <time>2026-09-01T19:53:17Z</time>
  <course>282.7</course>
  <speed>24.923262226281693</speed>
  <fix>3d</fix>
</trkpt>
<trkpt lat="-27.2743534" lon="151.2948118">
  <ele>456.6</ele>
  <time>2026-09-01T19:53:17Z</time>
  <course>282.04</course>
  <speed>24.92621110397647</speed>
  <fix>3d</fix>
</trkpt>
<trkpt lat="-27.2743654" lon="151.2948808">
  <ele>457.46</ele>
  <time>2026-09-01T19:53:17Z</time>
  <course>282.15</course>
  <speed>25.04</speed>
  <fix>3d</fix>
</trkpt>
<trkpt lat="-27.2743517" lon="151.2948002">
  <ele>456.45</ele>
  <time>2026-09-01T19:53:17Z</time>
  <course>281.59</course>
  <speed>24.93643920049533</speed>
  <fix>3d</fix>
</trkpt>
<trkpt lat="-27.2743499" lon="151.2947869">
  <ele>456.28</ele>
  <time>2026-09-01T19:53:17Z</time>
  <course>281.08</course>
  <speed>24.953384539977737</speed>
  <fix>3d</fix>
</trkpt>
<trkpt lat="-27.2743566" lon="151.2948312">
  <ele>456.85</ele>
  <time>2026-09-01T19:53:17Z</time>
  <course>280.26</course>
  <speed>25.04</speed>
  <fix>3d</fix>
</trkpt>
<trkpt lat="-27.2743485" lon="151.294776">
  <ele>456.14</ele>
  <time>2026-09-01T19:53:17Z</time>
  <course>280.67</course>
  <speed>24.959529242355515</speed>
  <fix>3d</fix>
</trkpt>
<trkpt lat="-27.2743467" lon="151.2947619">
  <ele>455.95</ele>
  <time>2026-09-01T19:53:17Z</time>
  <course>280.12</course>
  <speed>24.969821785507403</speed>
  <fix>3d</fix>
</trkpt>
<trkpt lat="-27.2743566" lon="151.2948312">
  <ele>456.85</ele>
  <time>2026-09-01T19:53:17Z</time>
  <course>280.26</course>
  <speed>25.04</speed>
  <fix>3d</fix>
</trkpt>
<trkpt lat="-27.2743455" lon="151.2947518">
  <ele>455.82</ele>
  <time>2026-09-01T19:53:17Z</time>
  <course>279.76</course>
  <speed>24.981002782114253</speed>
  <fix>3d</fix>
</trkpt>
<trkpt lat="-27.2743438" lon="151.2947367">
  <ele>455.61</ele>
  <time>2026-09-01T19:53:17Z</time>
  <course>279.24</course>
  <speed>25.003055813240106</speed>
  <fix>3d</fix>
</trkpt>
<trkpt lat="-27.2743493" lon="151.2947812">
  <ele>456.21</ele>
  <time>2026-09-01T19:53:17Z</time>
  <course>278.45</course>
  <speed>25.07</speed>
  <fix>3d</fix>
</trkpt>
<trkpt lat="-27.274343" lon="151.2947291">
  <ele>455.51</ele>
  <time>2026-09-01T19:53:17Z</time>
  <course>278.99</course>
  <speed>25.011037563443864</speed>
  <fix>3d</fix>
</trkpt>
<trkpt lat="-27.2743413" lon="151.2947114">
  <ele>455.28</ele>
  <time>2026-09-01T19:53:17Z</time>
  <course>278.4</course>
  <speed>25.032798485187385</speed>
  <fix>3d</fix>
</trkpt>
<trkpt lat="-27.2743493" lon="151.2947812">
  <ele>456.21</ele>
  <time>2026-09-01T19:53:17Z</time>
  <course>278.45</course>
  <speed>25.07</speed>
  <fix>3d</fix>
</trkpt>
<trkpt lat="-27.2743405" lon="151.2947031">
  <ele>455.17</ele>
  <time>2026-09-01T19:53:17Z</time>
  <course>278.12</course>
  <speed>25.05114767830009</speed>
  <fix>3d</fix>
</trkpt>
<trkpt lat="-27.274339" lon="151.294686">
  <ele>454.94</ele>
  <time>2026-09-01T19:53:17Z</time>
  <course>277.56</course>
  <speed>25.07940390041199</speed>
  <fix>3d</fix>
</trkpt>
<trkpt lat="-27.2743433" lon="151.294731">
  <ele>455.56</ele>
  <time>2026-09-01T19:53:17Z</time>
  <course>276.75</course>
  <speed>25.12</speed>
  <fix>3d</fix>
</trkpt>
<trkpt lat="-27.2743389" lon="151.2946853">
  <ele>454.93</ele>
  <time>2026-09-01T19:53:17Z</time>
  <course>277.54</course>
  <speed>25.07847284026681</speed>
  <fix>3d</fix>
</trkpt>
<trkpt lat="-27.274337" lon="151.2946605">
  <ele>454.61</ele>
  <time>2026-09-01T19:53:17Z</time>
  <course>276.71</course>
  <speed>25.120543385842595</speed>
  <fix>3d</fix>
</trkpt>
<trkpt lat="-27.2743433" lon="151.294731">
  <ele>455.56</ele>
  <time>2026-09-01T19:53:17Z</time>
  <course>276.75</course>
  <speed>25.12</speed>
  <fix>3d</fix>
</trkpt>
<trkpt lat="-27.2743368" lon="151.2946571">
  <ele>454.56</ele>
  <time>2026-09-01T19:53:17Z</time>
  <course>276.59</course>
  <speed>25.127343671785123</speed>
  <fix>3d</fix>
</trkpt>
<trkpt lat="-27.2743354" lon="151.2946349">
  <ele>454.28</ele>
  <time>2026-09-01T19:53:17Z</time>
  <course>275.9</course>
  <speed>25.177458171944203</speed>
  <fix>3d</fix>
</trkpt>
<trkpt lat="-27.2743387" lon="151.2946804">
  <ele>454.91</ele>
  <time>2026-09-01T19:53:17Z</time>
  <course>275.16</course>
  <speed>25.19</speed>
  <fix>3d</fix>
</trkpt>
<trkpt lat="-27.274335" lon="151.2946281">
  <ele>454.19</ele>
  <time>2026-09-01T19:53:17Z</time>
  <course>275.7</course>
  <speed>25.192141631866075</speed>
  <fix>3d</fix>
</trkpt>
<trkpt lat="-27.274334" lon="151.2946093">
  <ele>453.95</ele>
  <time>2026-09-01T19:53:17Z</time>
  <course>275.19</course>
  <speed>25.22887433081389</speed>
  <fix>3d</fix>
</trkpt>
<trkpt lat="-27.2743387" lon="151.2946804">
  <ele>454.91</ele>
  <time>2026-09-01T19:53:17Z</time>
  <course>275.16</course>
  <speed>25.19</speed>
  <fix>3d</fix>
</trkpt>
<trkpt lat="-27.2743336" lon="151.2946016">
  <ele>453.86</ele>
  <time>2026-09-01T19:53:17Z</time>
  <course>275.0</course>
  <speed>25.244534061851883</speed>
  <fix>3d</fix>
</trkpt>
<trkpt lat="-27.2743328" lon="151.2945835">
  <ele>453.63</ele>
  <time>2026-09-01T19:53:17Z</time>
  <course>274.57</course>
  <speed>25.275272501003823</speed>
  <fix>3d</fix>
</trkpt>
<trkpt lat="-27.2743352" lon="151.2946296">
  <ele>454.28</ele>
  <time>2026-09-01T19:53:17Z</time>
  <course>273.7</course>
  <speed>25.27</speed>
  <fix>3d</fix>
</trkpt>
<trkpt lat="-27.2743325" lon="151.294575">
  <ele>453.53</ele>
  <time>2026-09-01T19:53:17Z</time>
  <course>274.37</course>
  <speed>25.291804996875964</speed>
  <fix>3d</fix>
</trkpt>
<trkpt lat="-27.2743319" lon="151.2945578">
  <ele>453.32</ele>
  <time>2026-09-01T19:53:17Z</time>
  <course>273.94</course>
  <speed>25.325643131024336</speed>
  <fix>3d</fix>
</trkpt>
<trkpt lat="-27.2743352" lon="151.2946296">
  <ele>454.28</ele>
  <time>2026-09-01T19:53:17Z</time>
  <course>273.7</course>
  <speed>25.27</speed>
  <fix>3d</fix>
</trkpt>
<trkpt lat="-27.2743317" lon="151.29455">
  <ele>453.23</ele>
  <time>2026-09-01T19:53:17Z</time>
  <course>273.75</course>
  <speed>25.333274561335333</speed>
  <fix>3d</fix>
</trkpt>
<trkpt lat="-27.2743313" lon="151.294532">
  <ele>453.01</ele>
  <time>2026-09-01T19:53:17Z</time>
  <course>273.32</course>
  <speed>25.368328679674583</speed>
  <fix>3d</fix>
</trkpt>
<trkpt lat="-27.2743327" lon="151.2945783">
  <ele>453.66</ele>
  <time>2026-09-01T19:53:17Z</time>
  <course>272.42</course>
  <speed>25.36</speed>
  <fix>3d</fix>
</trkpt>
<trkpt lat="-27.2743311" lon="151.2945234">
  <ele>452.91</ele>
  <time>2026-09-01T19:53:17Z</time>
  <course>273.14</course>
  <speed>25.38662640052829</speed>
  <fix>3d</fix>
</trkpt>
<trkpt lat="-27.2743308" lon="151.2945061">
  <ele>452.71</ele>
  <time>2026-09-01T19:53:17Z</time>
  <course>272.79</course>
  <speed>25.41380923828618</speed>
  <fix>3d</fix>
</trkpt>
<trkpt lat="-27.2743327" lon="151.2945783">
  <ele>453.66</ele>
  <time>2026-09-01T19:53:17Z</time>
  <course>272.42</course>
  <speed>25.36</speed>
  <fix>3d</fix>
</trkpt>
<trkpt lat="-27.2743307" lon="151.2944975">
  <ele>452.61</ele>
  <time>2026-09-01T19:53:17Z</time>
  <course>272.61</course>
  <speed>25.42284012458089</speed>
  <fix>3d</fix>
</trkpt>
<trkpt lat="-27.2743305" lon="151.2944802">
  <ele>452.42</ele>
  <time>2026-09-01T19:53:17Z</time>
  <course>272.27</course>
  <speed>25.46122738596865</speed>
  <fix>3d</fix>
</trkpt>
<trkpt lat="-27.2743313" lon="151.2945269">
  <ele>453.07</ele>
  <time>2026-09-01T19:53:17Z</time>
  <course>271.34</course>
  <speed>25.44</speed>
  <fix>3d</fix>
</trkpt>
<trkpt lat="-27.2743304" lon="151.2944716">
  <ele>452.32</ele>
  <time>2026-09-01T19:53:17Z</time>
  <course>272.1</course>
  <speed>25.47070866701592</speed>
  <fix>3d</fix>
</trkpt>
<trkpt lat="-27.2743303" lon="151.2944543">
  <ele>452.13</ele>
  <time>2026-09-01T19:53:17Z</time>
  <course>271.79</course>
  <speed>25.500096078250372</speed>
  <fix>3d</fix>
</trkpt>
<trkpt lat="-27.2743313" lon="151.2945269">
  <ele>453.07</ele>
  <time>2026-09-01T19:53:17Z</time>
  <course>271.34</course>
  <speed>25.44</speed>
  <fix>3d</fix>
</trkpt>
<trkpt lat="-27.2743303" lon="151.2944456">
  <ele>452.04</ele>
  <time>2026-09-01T19:53:17Z</time>
  <course>271.64</course>
  <speed>25.510001960015607</speed>
  <fix>3d</fix>
</trkpt>
<trkpt lat="-27.2743304" lon="151.2944283">
  <ele>451.85</ele>
  <time>2026-09-01T19:53:17Z</time>
  <course>271.36</course>
  <speed>25.540158574292366</speed>
  <fix>3d</fix>
</trkpt>
<trkpt lat="-27.2743306" lon="151.2944755">
  <ele>452.5</ele>
  <time>2026-09-01T19:53:17Z</time>
  <course>270.42</course>
  <speed>25.51</speed>
  <fix>3d</fix>
</trkpt>
<trkpt lat="-27.2743304" lon="151.2944274">
  <ele>451.84</ele>
  <time>2026-09-01T19:53:17Z</time>
  <course>271.35</course>
  <speed>25.540195770588763</speed>
  <fix>3d</fix>
</trkpt>
<trkpt lat="-27.2743306" lon="151.2944023">
  <ele>451.58</ele>
  <time>2026-09-01T19:53:17Z</time>
  <course>270.95</course>
  <speed>25.571126295100886</speed>
  <fix>3d</fix>
</trkpt>
<trkpt lat="-27.2743306" lon="151.2944755">
  <ele>452.5</ele>
  <time>2026-09-01T19:53:17Z</time>
  <course>270.42</course>
  <speed>25.51</speed>
  <fix>3d</fix>
</trkpt>
<trkpt lat="-27.2743306" lon="151.2944015">
  <ele>451.57</ele>
  <time>2026-09-01T19:53:17Z</time>
  <course>270.94</course>
  <speed>25.57122210610983</speed>
  <fix>3d</fix>
</trkpt>
<trkpt lat="-27.2743309" lon="151.2943763">
  <ele>451.31</ele>
  <time>2026-09-01T19:53:17Z</time>
  <course>270.59</course>
  <speed>25.602673688503707</speed>
  <fix>3d</fix>
</trkpt>
<trkpt lat="-27.2743305" lon="151.2944239">
  <ele>451.95</ele>
  <time>2026-09-01T19:53:17Z</time>
  <course>269.66</course>
  <speed>25.58</speed>
  <fix>3d</fix>
</trkpt>
<trkpt lat="-27.2743309" lon="151.2943754">
  <ele>451.31</ele>
  <time>2026-09-01T19:53:17Z</time>
  <course>270.58</course>
  <speed>25.602820157162373</speed>
  <fix>3d</fix>
</trkpt>
<trkpt lat="-27.2743312" lon="151.2943503">
  <ele>451.06</ele>
  <time>2026-09-01T19:53:17Z</time>
  <course>270.24</course>
  <speed>25.63468353617809</speed>
  <fix>3d</fix>
</trkpt>
<trkpt lat="-27.2743305" lon="151.2944239">
  <ele>451.95</ele>
  <time>2026-09-01T19:53:17Z</time>
  <course>269.66</course>
  <speed>25.58</speed>
  <fix>3d</fix>
</trkpt>
<trkpt lat="-27.2743313" lon="151.2943427">
  <ele>450.98</ele>
  <time>2026-09-01T19:53:17Z</time>
  <course>270.14</course>
  <speed>25.645272468819666</speed>
  <fix>3d</fix>
</trkpt>
<trkpt lat="-27.2743317" lon="151.2943241">
  <ele>450.81</ele>
  <time>2026-09-01T19:53:17Z</time>
  <course>269.93</course>
  <speed>25.657252386021383</speed>
  <fix>3d</fix>
</trkpt>
<trkpt lat="-27.2743309" lon="151.2943721">
  <ele>451.43</ele>
  <time>2026-09-01T19:53:17Z</time>
  <course>269.03</course>
  <speed>25.64</speed>
  <fix>3d</fix>
</trkpt>
<trkpt lat="-27.2743319" lon="151.2943164">
  <ele>450.73</ele>
  <time>2026-09-01T19:53:17Z</time>
  <course>269.83</course>
  <speed>25.657983163140475</speed>
  <fix>3d</fix>
</trkpt>
<trkpt lat="-27.2743323" lon="151.2942982">
  <ele>450.56</ele>
  <time>2026-09-01T19:53:17Z</time>
  <course>269.61</course>
  <speed>25.669820801867704</speed>
  <fix>3d</fix>
</trkpt>
<trkpt lat="-27.2743309" lon="151.2943721">
  <ele>451.43</ele>
  <time>2026-09-01T19:53:17Z</time>
  <course>269.03</course>
  <speed>25.64</speed>
  <fix>3d</fix>
</trkpt>
<trkpt lat="-27.2743325" lon="151.2942913">
  <ele>450.5</ele>
  <time>2026-09-01T19:53:17Z</time>
  <course>269.54</course>
  <speed>25.680377723078763</speed>
  <fix>3d</fix>
</trkpt>
<trkpt lat="-27.274333" lon="151.2942724">
  <ele>450.33</ele>
  <time>2026-09-01T19:53:17Z</time>
  <course>269.38</course>
  <speed>25.682462888126597</speed>
  <fix>3d</fix>
</trkpt>
<trkpt lat="-27.274332" lon="151.2943202">
  <ele>450.93</ele>
  <time>2026-09-01T19:53:17Z</time>
  <course>268.53</course>
  <speed>25.69</speed>
  <fix>3d</fix>
</trkpt>
<trkpt lat="-27.2743332" lon="151.2942655">
  <ele>450.26</ele>
  <time>2026-09-01T19:53:17Z</time>
  <course>269.33</course>
  <speed>25.683093661005874</speed>
  <fix>3d</fix>
</trkpt>
<trkpt lat="-27.2743338" lon="151.2942465">
  <ele>450.09</ele>
  <time>2026-09-01T19:53:17Z</time>
  <course>269.18</course>
  <speed>25.69473292330551</speed>
  <fix>3d</fix>
</trkpt>
<trkpt lat="-27.274332" lon="151.2943202">
  <ele>450.93</ele>
  <time>2026-09-01T19:53:17Z</time>
  <course>268.53</course>
  <speed>25.69</speed>
  <fix>3d</fix>
</trkpt>
<trkpt lat="-27.274334" lon="151.2942388">
  <ele>450.02</ele>
  <time>2026-09-01T19:53:17Z</time>
  <course>269.12</course>
  <speed>25.69541787945859</speed>
  <fix>3d</fix>
</trkpt>
<trkpt lat="-27.2743346" lon="151.2942207">
  <ele>449.86</ele>
  <time>2026-09-01T19:53:17Z</time>
  <course>269.0</course>
  <speed>25.697198290864318</speed>
  <fix>3d</fix>
</trkpt>
<trkpt lat="-27.2743333" lon="151.2942683">
  <ele>450.46</ele>
  <time>2026-09-01T19:53:17Z</time>
  <course>268.12</course>
  <speed>25.73</speed>
  <fix>3d</fix>
</trkpt>
<trkpt lat="-27.2743348" lon="151.2942149">
  <ele>449.81</ele>
  <time>2026-09-01T19:53:17Z</time>
  <course>268.96</course>
  <speed>25.697566032603167</speed>
  <fix>3d</fix>
</trkpt>
<trkpt lat="-27.2743355" lon="151.2941948">
  <ele>449.64</ele>
  <time>2026-09-01T19:53:17Z</time>
  <course>268.83</course>
  <speed>25.699075858870877</speed>
  <fix>3d</fix>
</trkpt>
<trkpt lat="-27.2743333" lon="151.2942683">
  <ele>450.46</ele>
  <time>2026-09-01T19:53:17Z</time>
  <course>268.12</course>
  <speed>25.73</speed>
  <fix>3d</fix>
</trkpt>
<trkpt lat="-27.2743357" lon="151.2941896">
  <ele>449.6</ele>
  <time>2026-09-01T19:53:17Z</time>
  <course>268.79</course>
  <speed>25.699463029409777</speed>
  <fix>3d</fix>
</trkpt>
<trkpt lat="-27.2743364" lon="151.2941688">
  <ele>449.42</ele>
  <time>2026-09-01T19:53:17Z</time>
  <course>268.68</course>
  <speed>25.711042374824093</speed>
  <fix>3d</fix>
</trkpt>
<trkpt lat="-27.274335" lon="151.2942163">
  <ele>450.0</ele>
  <time>2026-09-01T19:53:17Z</time>
  <course>267.81</course>
  <speed>25.76</speed>
  <fix>3d</fix>
</trkpt>
<trkpt lat="-27.2743366" lon="151.294163">
  <ele>449.37</ele>
  <time>2026-09-01T19:53:17Z</time>
  <course>268.65</course>
  <speed>25.71144881176477</speed>
  <fix>3d</fix>
</trkpt>
<trkpt lat="-27.2743374" lon="151.2941428">
  <ele>449.2</ele>
  <time>2026-09-01T19:53:17Z</time>
  <course>268.54</course>
  <speed>25.71269141883051</speed>
  <fix>3d</fix>
</trkpt>
<trkpt lat="-27.274335" lon="151.2942163">
  <ele>450.0</ele>
  <time>2026-09-01T19:53:17Z</time>
  <course>267.81</course>
  <speed>25.76</speed>
  <fix>3d</fix>
</trkpt>
<trkpt lat="-27.2743376" lon="151.2941376">
  <ele>449.16</ele>
  <time>2026-09-01T19:53:17Z</time>
  <course>268.51</course>
  <speed>25.71311338597487</speed>
  <fix>3d</fix>
</trkpt>
<trkpt lat="-27.2743384" lon="151.2941168">
  <ele>448.99</ele>
  <time>2026-09-01T19:53:17Z</time>
  <course>268.39</course>
  <speed>25.724393092938072</speed>
  <fix>3d</fix>
</trkpt>
<trkpt lat="-27.2743368" lon="151.2941642">
  <ele>449.56</ele>
  <time>2026-09-01T19:53:17Z</time>
  <course>267.58</course>
  <speed>25.78</speed>
  <fix>3d</fix>
</trkpt>
<trkpt lat="-27.2743384" lon="151.2941159">
  <ele>448.98</ele>
  <time>2026-09-01T19:53:17Z</time>
  <course>268.39</course>
  <speed>25.724393092938072</speed>
  <fix>3d</fix>
</trkpt>
<trkpt lat="-27.2743395" lon="151.2940907">
  <ele>448.78</ele>
  <time>2026-09-01T19:53:17Z</time>
  <course>268.34</course>
  <speed>25.725716705273737</speed>
  <fix>3d</fix>
</trkpt>
<trkpt lat="-27.2743368" lon="151.2941642">
  <ele>449.56</ele>
  <time>2026-09-01T19:53:17Z</time>
  <course>267.58</course>
  <speed>25.78</speed>
  <fix>3d</fix>
</trkpt>
<trkpt lat="-27.2743397" lon="151.2940846">
  <ele>448.73</ele>
  <time>2026-09-01T19:53:17Z</time>
  <course>268.33</course>
  <speed>25.726165668439595</speed>
  <fix>3d</fix>
</trkpt>
<trkpt lat="-27.2743405" lon="151.2940646">
  <ele>448.57</ele>
  <time>2026-09-01T19:53:17Z</time>
  <course>268.3</course>
  <speed>25.726618510795387</speed>
  <fix>3d</fix>
</trkpt>
<trkpt lat="-27.2743388" lon="151.2941122">
  <ele>449.14</ele>
  <time>2026-09-01T19:53:17Z</time>
  <course>267.42</course>
  <speed>25.78</speed>
  <fix>3d</fix>
</trkpt>
<trkpt lat="-27.2743406" lon="151.2940637">
  <ele>448.56</ele>
  <time>2026-09-01T19:53:17Z</time>
  <course>268.29</course>
  <speed>25.726618510795387</speed>
  <fix>3d</fix>
</trkpt>
<trkpt lat="-27.2743416" lon="151.2940385">
  <ele>448.37</ele>
  <time>2026-09-01T19:53:17Z</time>
  <course>268.22</course>
  <speed>25.72753583225568</speed>
  <fix>3d</fix>
</trkpt>
<trkpt lat="-27.2743388" lon="151.2941122">
  <ele>449.14</ele>
  <time>2026-09-01T19:53:17Z</time>
  <course>267.42</course>
  <speed>25.78</speed>
  <fix>3d</fix>
</trkpt>
<trkpt lat="-27.2743418" lon="151.2940333">
  <ele>448.33</ele>
  <time>2026-09-01T19:53:17Z</time>
  <course>268.2</course>
  <speed>25.72753583225568</speed>
  <fix>3d</fix>
</trkpt>
<trkpt lat="-27.2743427" lon="151.2940123">
  <ele>448.16</ele>
  <time>2026-09-01T19:53:17Z</time>
  <course>268.13</course>
  <speed>25.728468667994992</speed>
  <fix>3d</fix>
</trkpt>
<trkpt lat="-27.274341" lon="151.29406">
  <ele>448.74</ele>
  <time>2026-09-01T19:53:17Z</time>
  <course>267.32</course>
  <speed>25.78</speed>
  <fix>3d</fix>
</trkpt>
<trkpt lat="-27.274343" lon="151.2940062">
  <ele>448.12</ele>
  <time>2026-09-01T19:53:17Z</time>
  <course>268.12</course>
  <speed>25.728468667994992</speed>
  <fix>3d</fix>
</trkpt>
<trkpt lat="-27.2743438" lon="151.2939863">
  <ele>447.97</ele>
  <time>2026-09-01T19:53:17Z</time>
  <course>268.09</course>
  <speed>25.728468667994992</speed>
  <fix>3d</fix>
</trkpt>
<trkpt lat="-27.274341" lon="151.29406">
  <ele>448.74</ele>
  <time>2026-09-01T19:53:17Z</time>
  <course>267.32</course>
  <speed>25.78</speed>
  <fix>3d</fix>
</trkpt>
<trkpt lat="-27.2743441" lon="151.2939802">
  <ele>447.92</ele>
  <time>2026-09-01T19:53:17Z</time>
  <course>268.08</course>
  <speed>25.728940903193042</speed>
  <fix>3d</fix>
</trkpt>
<trkpt lat="-27.274345" lon="151.2939601">
  <ele>447.77</ele>
  <time>2026-09-01T19:53:17Z</time>
  <course>268.09</course>
  <speed>25.728940903193042</speed>
  <fix>3d</fix>
</trkpt>
<trkpt lat="-27.2743431" lon="151.2940079">
  <ele>448.34</ele>
  <time>2026-09-01T19:53:17Z</time>
  <course>267.26</course>
  <speed>25.78</speed>
  <fix>3d</fix>
</trkpt>
<trkpt lat="-27.2743452" lon="151.2939534">
  <ele>447.72</ele>
  <time>2026-09-01T19:53:17Z</time>
  <course>268.1</course>
  <speed>25.728940903193042</speed>
  <fix>3d</fix>
</trkpt>
<trkpt lat="-27.2743461" lon="151.293934">
  <ele>447.58</ele>
  <time>2026-09-01T19:53:17Z</time>
  <course>268.1</course>
  <speed>25.718952155949122</speed>
  <fix>3d</fix>
</trkpt>
<trkpt lat="-27.2743431" lon="151.2940079">
  <ele>448.34</ele>
  <time>2026-09-01T19:53:17Z</time>
  <course>267.26</course>
  <speed>25.78</speed>
  <fix>3d</fix>
</trkpt>
<trkpt lat="-27.2743463" lon="151.2939279">
  <ele>447.54</ele>
  <time>2026-09-01T19:53:17Z</time>
  <course>268.09</course>
  <speed>25.718479737340616</speed>
  <fix>3d</fix>
</trkpt>
<trkpt lat="-27.2743472" lon="151.2939079">
  <ele>447.39</ele>
  <time>2026-09-01T19:53:17Z</time>
  <course>268.05</course>
  <speed>25.718479737340616</speed>
  <fix>3d</fix>
</trkpt>
<trkpt lat="-27.2743454" lon="151.2939559">
  <ele>447.96</ele>
  <time>2026-09-01T19:53:17Z</time>
  <course>267.25</course>
  <speed>25.76</speed>
  <fix>3d</fix>
</trkpt>
<trkpt lat="-27.2743475" lon="151.293901">
  <ele>447.34</ele>
  <time>2026-09-01T19:53:17Z</time>
  <course>268.05</course>
  <speed>25.70849081529291</speed>
  <fix>3d</fix>
</trkpt>
<trkpt lat="-27.2743483" lon="151.2938819">
  <ele>447.19</ele>
  <time>2026-09-01T19:53:17Z</time>
  <course>268.03</course>
  <speed>25.70849081529291</speed>
  <fix>3d</fix>
</trkpt>
<trkpt lat="-27.2743454" lon="151.2939559">
  <ele>447.96</ele>
  <time>2026-09-01T19:53:17Z</time>
  <course>267.25</course>
  <speed>25.76</speed>
  <fix>3d</fix>
</trkpt>
<trkpt lat="-27.2743485" lon="151.2938766">
  <ele>447.16</ele>
  <time>2026-09-01T19:53:17Z</time>
  <course>268.02</course>
  <speed>25.70849081529291</speed>
  <fix>3d</fix>
</trkpt>
<trkpt lat="-27.2743494" lon="151.2938558">
  <ele>447.0</ele>
  <time>2026-09-01T19:53:17Z</time>
  <course>268.01</course>
  <speed>25.698501901861906</speed>
  <fix>3d</fix>
</trkpt>
<trkpt lat="-27.2743476" lon="151.2939038">
  <ele>447.58</ele>
  <time>2026-09-01T19:53:17Z</time>
  <course>267.26</course>
  <speed>25.75</speed>
  <fix>3d</fix>
</trkpt>
<trkpt lat="-27.2743497" lon="151.2938497">
  <ele>446.95</ele>
  <time>2026-09-01T19:53:17Z</time>
  <course>268.0</course>
  <speed>25.698501901861906</speed>
  <fix>3d</fix>
</trkpt>
<trkpt lat="-27.2743505" lon="151.2938297">
  <ele>446.81</ele>
  <time>2026-09-01T19:53:17Z</time>
  <course>267.98</course>
  <speed>25.698501901861906</speed>
  <fix>3d</fix>
</trkpt>
<trkpt lat="-27.2743476" lon="151.2939038">
  <ele>447.58</ele>
  <time>2026-09-01T19:53:17Z</time>
  <course>267.26</course>
  <speed>25.75</speed>
  <fix>3d</fix>
</trkpt>
<trkpt lat="-27.2743506" lon="151.2938289">
  <ele>446.8</ele>
  <time>2026-09-01T19:53:17Z</time>
  <course>267.97</course>
  <speed>25.698501901861906</speed>
  <fix>3d</fix>
</trkpt>
<trkpt lat="-27.2743516" lon="151.2938037">
  <ele>446.62</ele>
  <time>2026-09-01T19:53:17Z</time>
  <course>267.99</course>
  <speed>25.688512997057657</speed>
  <fix>3d</fix>
</trkpt>
<trkpt lat="-27.2743497" lon="151.2938519">
  <ele>447.2</ele>
  <time>2026-09-01T19:53:17Z</time>
  <course>267.28</course>
  <speed>25.73</speed>
  <fix>3d</fix>
</trkpt>
<trkpt lat="-27.2743517" lon="151.2938028">
  <ele>446.61</ele>
  <time>2026-09-01T19:53:17Z</time>
  <course>267.99</course>
  <speed>25.688512997057657</speed>
  <fix>3d</fix>
</trkpt>
<trkpt lat="-27.2743527" lon="151.2937779">
  <ele>446.43</ele>
  <time>2026-09-01T19:53:17Z</time>
  <course>268.02</course>
  <speed>25.678054832872366</speed>
  <fix>3d</fix>
</trkpt>
<trkpt lat="-27.2743497" lon="151.2938519">
  <ele>447.2</ele>
  <time>2026-09-01T19:53:17Z</time>
  <course>267.28</course>
  <speed>25.73</speed>
  <fix>3d</fix>
</trkpt>
<trkpt lat="-27.2743533" lon="151.2937649">
  <ele>446.33</ele>
  <time>2026-09-01T19:53:17Z</time>
  <course>268.02</course>
  <speed>25.66806576273327</speed>
  <fix>3d</fix>
</trkpt>
<trkpt lat="-27.2743538" lon="151.293752">
  <ele>446.24</ele>
  <time>2026-09-01T19:53:17Z</time>
  <course>268.02</course>
  <speed>25.66806576273327</speed>
  <fix>3d</fix>
</trkpt>
<trkpt lat="-27.274352" lon="151.2938">
  <ele>446.82</ele>
  <time>2026-09-01T19:53:17Z</time>
  <course>267.3</course>
  <speed>25.71</speed>
  <fix>3d</fix>
</trkpt>
<trkpt lat="-27.2743543" lon="151.2937406">
  <ele>446.16</ele>
  <time>2026-09-01T19:53:17Z</time>
  <course>268.02</course>
  <speed>25.657610956595317</speed>
  <fix>3d</fix>
</trkpt>
<trkpt lat="-27.2743549" lon="151.2937261">
  <ele>446.05</ele>
  <time>2026-09-01T19:53:17Z</time>
  <course>268.05</course>
  <speed>25.647621722101253</speed>
  <fix>3d</fix>
</trkpt>
<trkpt lat="-27.274352" lon="151.2938">
  <ele>446.82</ele>
  <time>2026-09-01T19:53:17Z</time>
  <course>267.3</course>
  <speed>25.71</speed>
  <fix>3d</fix>
</trkpt>
<trkpt lat="-27.2743552" lon="151.2937184">
  <ele>445.99</ele>
  <time>2026-09-01T19:53:17Z</time>
  <course>268.07</course>
  <speed>25.637632496000876</speed>
  <fix>3d</fix>
</trkpt>
<trkpt lat="-27.274356" lon="151.2937004">
  <ele>445.86</ele>
  <time>2026-09-01T19:53:17Z</time>
  <course>268.09</course>
  <speed>25.627180882804883</speed>
  <fix>3d</fix>
</trkpt>
<trkpt lat="-27.2743541" lon="151.2937481">
  <ele>446.44</ele>
  <time>2026-09-01T19:53:17Z</time>
  <course>267.33</course>
  <speed>25.68</speed>
  <fix>3d</fix>
</trkpt>
<trkpt lat="-27.2743563" lon="151.2936924">
  <ele>445.8</ele>
  <time>2026-09-01T19:53:17Z</time>
  <course>268.1</course>
  <speed>25.61673281275346</speed>
  <fix>3d</fix>
</trkpt>
<trkpt lat="-27.274357" lon="151.2936744">
  <ele>445.66</ele>
  <time>2026-09-01T19:53:17Z</time>
  <course>268.12</course>
  <speed>25.60628829018372</speed>
  <fix>3d</fix>
</trkpt>
<trkpt lat="-27.2743541" lon="151.2937481">
  <ele>446.44</ele>
  <time>2026-09-01T19:53:17Z</time>
  <course>267.33</course>
  <speed>25.68</speed>
  <fix>3d</fix>
</trkpt>
<trkpt lat="-27.2743573" lon="151.2936676">
  <ele>445.61</ele>
  <time>2026-09-01T19:53:17Z</time>
  <course>268.12</course>
  <speed>25.596298560534102</speed>
  <fix>3d</fix>
</trkpt>
<trkpt lat="-27.2743581" lon="151.2936487">
  <ele>445.47</ele>
  <time>2026-09-01T19:53:17Z</time>
  <course>268.12</course>
  <speed>25.575867531718256</speed>
  <fix>3d</fix>
</trkpt>
<trkpt lat="-27.2743562" lon="151.2936963">
  <ele>446.06</ele>
  <time>2026-09-01T19:53:17Z</time>
  <course>267.38</course>
  <speed>25.65</speed>
  <fix>3d</fix>
</trkpt>
<trkpt lat="-27.2743584" lon="151.293641">
  <ele>445.41</ele>
  <time>2026-09-01T19:53:17Z</time>
  <course>268.11</course>
  <speed>25.575867531718256</speed>
  <fix>3d</fix>
</trkpt>
<trkpt lat="-27.2743591" lon="151.293623">
  <ele>445.27</ele>
  <time>2026-09-01T19:53:17Z</time>
  <course>268.14</course>
  <speed>25.55543973403706</speed>
  <fix>3d</fix>
</trkpt>
<trkpt lat="-27.2743562" lon="151.2936963">
  <ele>446.06</ele>
  <time>2026-09-01T19:53:17Z</time>
  <course>267.38</course>
  <speed>25.65</speed>
  <fix>3d</fix>
</trkpt>
<trkpt lat="-27.2743594" lon="151.2936153">
  <ele>445.21</ele>
  <time>2026-09-01T19:53:17Z</time>
  <course>268.15</course>
  <speed>25.55499559773001</speed>
  <fix>3d</fix>
</trkpt>
<trkpt lat="-27.2743601" lon="151.2935972">
  <ele>445.07</ele>
  <time>2026-09-01T19:53:17Z</time>
  <course>268.17</course>
  <speed>25.53501517524515</speed>
  <fix>3d</fix>
</trkpt>
<trkpt lat="-27.2743583" lon="151.2936446">
  <ele>445.68</ele>
  <time>2026-09-01T19:53:17Z</time>
  <course>267.44</course>
  <speed>25.62</speed>
  <fix>3d</fix>
</trkpt>
<trkpt lat="-27.2743604" lon="151.2935888">
  <ele>445.01</ele>
  <time>2026-09-01T19:53:17Z</time>
  <course>268.18</course>
  <speed>25.524584227759714</speed>
  <fix>3d</fix>
</trkpt>
<trkpt lat="-27.2743611" lon="151.2935715">
  <ele>444.88</ele>
  <time>2026-09-01T19:53:17Z</time>
  <course>268.23</course>
  <speed>25.514156854577813</speed>
  <fix>3d</fix>
</trkpt>
<trkpt lat="-27.2743583" lon="151.2936446">
  <ele>445.68</ele>
  <time>2026-09-01T19:53:17Z</time>
  <course>267.44</course>
  <speed>25.62</speed>
  <fix>3d</fix>
</trkpt>
<trkpt lat="-27.2743614" lon="151.2935638">
  <ele>444.82</ele>
  <time>2026-09-01T19:53:17Z</time>
  <course>268.25</course>
  <speed>25.504166326308336</speed>
  <fix>3d</fix>
</trkpt>
<trkpt lat="-27.2743621" lon="151.2935458">
  <ele>444.68</ele>
  <time>2026-09-01T19:53:17Z</time>
  <course>268.3</course>
  <speed>25.493742369452157</speed>
  <fix>3d</fix>
</trkpt>
<trkpt lat="-27.2743604" lon="151.2935929">
  <ele>445.28</ele>
  <time>2026-09-01T19:53:17Z</time>
  <course>267.5</course>
  <speed>25.59</speed>
  <fix>3d</fix>
</trkpt>
<trkpt lat="-27.2743621" lon="151.293545">
  <ele>444.67</ele>
  <time>2026-09-01T19:53:17Z</time>
  <course>268.3</course>
  <speed>25.493742369452157</speed>
  <fix>3d</fix>
</trkpt>
<trkpt lat="-27.2743631" lon="151.2935202">
  <ele>444.47</ele>
  <time>2026-09-01T19:53:17Z</time>
  <course>268.39</course>
  <speed>25.482896224722968</speed>
  <fix>3d</fix>
</trkpt>
<trkpt lat="-27.2743604" lon="151.2935929">
  <ele>445.28</ele>
  <time>2026-09-01T19:53:17Z</time>
  <course>267.5</course>
  <speed>25.59</speed>
  <fix>3d</fix>
</trkpt>
<trkpt lat="-27.2743631" lon="151.2935193">
  <ele>444.47</ele>
  <time>2026-09-01T19:53:17Z</time>
  <course>268.39</course>
  <speed>25.482896224722968</speed>
  <fix>3d</fix>
</trkpt>
<trkpt lat="-27.274364" lon="151.2934945">
  <ele>444.27</ele>
  <time>2026-09-01T19:53:17Z</time>
  <course>268.44</course>
  <speed>25.462073756864346</speed>
  <fix>3d</fix>
</trkpt>
<trkpt lat="-27.2743623" lon="151.2935412">
  <ele>444.89</ele>
  <time>2026-09-01T19:53:17Z</time>
  <course>267.57</course>
  <speed>25.56</speed>
  <fix>3d</fix>
</trkpt>
<trkpt lat="-27.2743641" lon="151.2934937">
  <ele>444.26</ele>
  <time>2026-09-01T19:53:17Z</time>
  <course>268.44</course>
  <speed>25.462073756864346</speed>
  <fix>3d</fix>
</trkpt>
<trkpt lat="-27.274365" lon="151.2934688">
  <ele>444.06</ele>
  <time>2026-09-01T19:53:17Z</time>
  <course>268.42</course>
  <speed>25.451257336328197</speed>
  <fix>3d</fix>
</trkpt>
<trkpt lat="-27.2743623" lon="151.2935412">
  <ele>444.89</ele>
  <time>2026-09-01T19:53:17Z</time>
  <course>267.57</course>
  <speed>25.56</speed>
  <fix>3d</fix>
</trkpt>
<trkpt lat="-27.274365" lon="151.293468">
  <ele>444.05</ele>
  <time>2026-09-01T19:53:17Z</time>
  <course>268.42</course>
  <speed>25.451257336328197</speed>
  <fix>3d</fix>
</trkpt>
<trkpt lat="-27.2743659" lon="151.2934432">
  <ele>443.85</ele>
  <time>2026-09-01T19:53:17Z</time>
  <course>268.43</course>
  <speed>25.430464014641966</speed>
  <fix>3d</fix>
</trkpt>
<trkpt lat="-27.2743642" lon="151.2934895">
  <ele>444.47</ele>
  <time>2026-09-01T19:53:17Z</time>
  <course>267.65</course>
  <speed>25.54</speed>
  <fix>3d</fix>
</trkpt>
<trkpt lat="-27.2743662" lon="151.2934355">
  <ele>443.79</ele>
  <time>2026-09-01T19:53:17Z</time>
  <course>268.44</course>
  <speed>25.430464014641966</speed>
  <fix>3d</fix>
</trkpt>
<trkpt lat="-27.2743668" lon="151.2934175">
  <ele>443.64</ele>
  <time>2026-09-01T19:53:17Z</time>
  <course>268.46</course>
  <speed>25.420072777236495</speed>
  <fix>3d</fix>
</trkpt>
<trkpt lat="-27.2743642" lon="151.2934895">
  <ele>444.47</ele>
  <time>2026-09-01T19:53:17Z</time>
  <course>267.65</course>
  <speed>25.54</speed>
  <fix>3d</fix>
</trkpt>
<trkpt lat="-27.2743671" lon="151.2934098">
  <ele>443.58</ele>
  <time>2026-09-01T19:53:17Z</time>
  <course>268.46</course>
  <speed>25.419677417308034</speed>
  <fix>3d</fix>
</trkpt>
<trkpt lat="-27.2743677" lon="151.2933918">
  <ele>443.43</ele>
  <time>2026-09-01T19:53:17Z</time>
  <course>268.46</course>
  <speed>25.409293575383003</speed>
  <fix>3d</fix>
</trkpt>
<trkpt lat="-27.2743661" lon="151.2934378">
  <ele>444.06</ele>
  <time>2026-09-01T19:53:17Z</time>
  <course>267.73</course>
  <speed>25.51</speed>
  <fix>3d</fix>
</trkpt>
<trkpt lat="-27.274368" lon="151.2933841">
  <ele>443.37</ele>
  <time>2026-09-01T19:53:17Z</time>
  <course>268.47</course>
  <speed>25.39930117148895</speed>
  <fix>3d</fix>
</trkpt>
<trkpt lat="-27.2743686" lon="151.2933661">
  <ele>443.22</ele>
  <time>2026-09-01T19:53:17Z</time>
  <course>268.51</course>
  <speed>25.38853678335953</speed>
  <fix>3d</fix>
</trkpt>
<trkpt lat="-27.2743661" lon="151.2934378">
  <ele>444.06</ele>
  <time>2026-09-01T19:53:17Z</time>
  <course>267.73</course>
  <speed>25.51</speed>
  <fix>3d</fix>
</trkpt>
<trkpt lat="-27.2743688" lon="151.2933584">
  <ele>443.15</ele>
  <time>2026-09-01T19:53:17Z</time>
  <course>268.53</course>
  <speed>25.38853678335953</speed>
  <fix>3d</fix>
</trkpt>
<trkpt lat="-27.2743694" lon="151.2933405">
  <ele>443.0</ele>
  <time>2026-09-01T19:53:17Z</time>
  <course>268.56</course>
  <speed>25.37816384216951</speed>
  <fix>3d</fix>
</trkpt>
<trkpt lat="-27.2743679" lon="151.2933863">
  <ele>443.64</ele>
  <time>2026-09-01T19:53:17Z</time>
  <course>267.81</course>
  <speed>25.49</speed>
  <fix>3d</fix>
</trkpt>
<trkpt lat="-27.2743697" lon="151.2933328">
  <ele>442.94</ele>
  <time>2026-09-01T19:53:17Z</time>
  <course>268.57</course>
  <speed>25.37816384216951</speed>
  <fix>3d</fix>
</trkpt>
<trkpt lat="-27.2743703" lon="151.2933148">
  <ele>442.79</ele>
  <time>2026-09-01T19:53:17Z</time>
  <course>268.6</course>
  <speed>25.36779454347579</speed>
  <fix>3d</fix>
</trkpt>
<trkpt lat="-27.2743679" lon="151.2933863">
  <ele>443.64</ele>
  <time>2026-09-01T19:53:17Z</time>
  <course>267.81</course>
  <speed>25.49</speed>
  <fix>3d</fix>
</trkpt>
<trkpt lat="-27.2743705" lon="151.2933071">
  <ele>442.72</ele>
  <time>2026-09-01T19:53:17Z</time>
  <course>268.61</course>
  <speed>25.367422021167226</speed>
  <fix>3d</fix>
</trkpt>
<trkpt lat="-27.2743711" lon="151.2932891">
  <ele>442.57</ele>
  <time>2026-09-01T19:53:17Z</time>
  <course>268.67</course>
  <speed>25.36705343550961</speed>
  <fix>3d</fix>
</trkpt>
<trkpt lat="-27.2743696" lon="151.2933349">
  <ele>443.21</ele>
  <time>2026-09-01T19:53:17Z</time>
  <course>267.87</course>
  <speed>25.46</speed>
  <fix>3d</fix>
</trkpt>
<trkpt lat="-27.2743714" lon="151.2932814">
  <ele>442.51</ele>
  <time>2026-09-01T19:53:17Z</time>
  <course>268.69</course>
  <speed>25.356695368284882</speed>
  <fix>3d</fix>
</trkpt>
<trkpt lat="-27.2743719" lon="151.2932637">
  <ele>442.35</ele>
  <time>2026-09-01T19:53:17Z</time>
  <course>268.71</course>
  <speed>25.34634095880508</speed>
  <fix>3d</fix>
</trkpt>
<trkpt lat="-27.2743696" lon="151.2933349">
  <ele>443.21</ele>
  <time>2026-09-01T19:53:17Z</time>
  <course>267.87</course>
  <speed>25.46</speed>
  <fix>3d</fix>
</trkpt>
<trkpt lat="-27.274372" lon="151.2932626">
  <ele>442.35</ele>
  <time>2026-09-01T19:53:17Z</time>
  <course>268.71</course>
  <speed>25.34634095880508</speed>
  <fix>3d</fix>
</trkpt>
<trkpt lat="-27.2743727" lon="151.2932382">
  <ele>442.13</ele>
  <time>2026-09-01T19:53:17Z</time>
  <course>268.75</course>
  <speed>25.335990211554787</speed>
  <fix>3d</fix>
</trkpt>
<trkpt lat="-27.2743713" lon="151.2932835">
  <ele>442.77</ele>
  <time>2026-09-01T19:53:17Z</time>
  <course>267.94</course>
  <speed>25.44</speed>
  <fix>3d</fix>
</trkpt>
<trkpt lat="-27.2743728" lon="151.2932363">
  <ele>442.12</ele>
  <time>2026-09-01T19:53:17Z</time>
  <course>268.75</course>
  <speed>25.335990211554787</speed>
  <fix>3d</fix>
</trkpt>
<trkpt lat="-27.2743735" lon="151.2932127">
  <ele>441.91</ele>
  <time>2026-09-01T19:53:17Z</time>
  <course>268.76</course>
  <speed>25.315299721709792</speed>
  <fix>3d</fix>
</trkpt>
<trkpt lat="-27.2743713" lon="151.2932835">
  <ele>442.77</ele>
  <time>2026-09-01T19:53:17Z</time>
  <course>267.94</course>
  <speed>25.44</speed>
  <fix>3d</fix>
</trkpt>
<trkpt lat="-27.2743738" lon="151.293205">
  <ele>441.84</ele>
  <time>2026-09-01T19:53:17Z</time>
  <course>268.77</course>
  <speed>25.315299721709792</speed>
  <fix>3d</fix>
</trkpt>
<trkpt lat="-27.2743743" lon="151.2931872">
  <ele>441.68</ele>
  <time>2026-09-01T19:53:17Z</time>
  <course>268.78</course>
  <speed>25.30461815558575</speed>
  <fix>3d</fix>
</trkpt>
<trkpt lat="-27.2743728" lon="151.2932321">
  <ele>442.33</ele>
  <time>2026-09-01T19:53:17Z</time>
  <course>268.01</course>
  <speed>25.42</speed>
  <fix>3d</fix>
</trkpt>
<trkpt lat="-27.2743745" lon="151.2931796">
  <ele>441.61</ele>
  <time>2026-09-01T19:53:17Z</time>
  <course>268.78</course>
  <speed>25.30461815558575</speed>
  <fix>3d</fix>
</trkpt>
<trkpt lat="-27.2743751" lon="151.2931618">
  <ele>441.45</ele>
  <time>2026-09-01T19:53:17Z</time>
  <course>268.78</course>
  <speed>25.294285915992965</speed>
  <fix>3d</fix>
</trkpt>
<trkpt lat="-27.2743728" lon="151.2932321">
  <ele>442.33</ele>
  <time>2026-09-01T19:53:17Z</time>
  <course>268.01</course>
  <speed>25.42</speed>
  <fix>3d</fix>
</trkpt>
<trkpt lat="-27.2743753" lon="151.293154">
  <ele>441.38</ele>
  <time>2026-09-01T19:53:17Z</time>
  <course>268.78</course>
  <speed>25.284291566108788</speed>
  <fix>3d</fix>
</trkpt>
<trkpt lat="-27.2743758" lon="151.2931362">
  <ele>441.23</ele>
  <time>2026-09-01T19:53:17Z</time>
  <course>268.82</course>
  <speed>25.27429722069439</speed>
  <fix>3d</fix>
</trkpt>
<trkpt lat="-27.2743744" lon="151.2931808">
  <ele>441.88</ele>
  <time>2026-09-01T19:53:17Z</time>
  <course>268.07</course>
  <speed>25.4</speed>
  <fix>3d</fix>
</trkpt>
<trkpt lat="-27.274376" lon="151.2931286">
  <ele>441.16</ele>
  <time>2026-09-01T19:53:17Z</time>
  <course>268.83</course>
  <speed>25.273962886733848</speed>
  <fix>3d</fix>
</trkpt>
<trkpt lat="-27.2743765" lon="151.2931108">
  <ele>441.0</ele>
  <time>2026-09-01T19:53:17Z</time>
  <course>268.83</course>
  <speed>25.263968413533135</speed>
  <fix>3d</fix>
</trkpt>
<trkpt lat="-27.2743744" lon="151.2931808">
  <ele>441.88</ele>
  <time>2026-09-01T19:53:17Z</time>
  <course>268.07</course>
  <speed>25.4</speed>
  <fix>3d</fix>
</trkpt>
<trkpt lat="-27.2743768" lon="151.2931023">
  <ele>440.92</ele>
  <time>2026-09-01T19:53:17Z</time>
  <course>268.83</course>
  <speed>25.253973944708186</speed>
  <fix>3d</fix>
</trkpt>
<trkpt lat="-27.2743773" lon="151.2930854">
  <ele>440.77</ele>
  <time>2026-09-01T19:53:17Z</time>
  <course>268.85</course>
  <speed>25.25364330151196</speed>
  <fix>3d</fix>
</trkpt>
<trkpt lat="-27.2743759" lon="151.2931295">
  <ele>441.43</ele>
  <time>2026-09-01T19:53:17Z</time>
  <course>268.12</course>
  <speed>25.38</speed>
  <fix>3d</fix>
</trkpt>
<trkpt lat="-27.2743775" lon="151.293077">
  <ele>440.69</ele>
  <time>2026-09-01T19:53:17Z</time>
  <course>268.87</course>
  <speed>25.243648706159732</speed>
  <fix>3d</fix>
</trkpt>
<trkpt lat="-27.274378" lon="151.29306">
  <ele>440.54</ele>
  <time>2026-09-01T19:53:17Z</time>
  <course>268.87</course>
  <speed>25.23332716864742</speed>
  <fix>3d</fix>
</trkpt>
<trkpt lat="-27.2743759" lon="151.2931295">
  <ele>441.43</ele>
  <time>2026-09-01T19:53:17Z</time>
  <course>268.12</course>
  <speed>25.38</speed>
  <fix>3d</fix>
</trkpt>
<trkpt lat="-27.2743782" lon="151.2930524">
  <ele>440.47</ele>
  <time>2026-09-01T19:53:17Z</time>
  <course>268.87</course>
  <speed>25.23332716864742</speed>
  <fix>3d</fix>
</trkpt>
<trkpt lat="-27.2743787" lon="151.2930345">
  <ele>440.31</ele>
  <time>2026-09-01T19:53:17Z</time>
  <course>268.89</course>
  <speed>25.23332716864742</speed>
  <fix>3d</fix>
</trkpt>
<trkpt lat="-27.2743774" lon="151.2930784">
  <ele>440.97</ele>
  <time>2026-09-01T19:53:17Z</time>
  <course>268.15</course>
  <speed>25.36</speed>
  <fix>3d</fix>
</trkpt>
<trkpt lat="-27.274379" lon="151.2930268">
  <ele>440.24</ele>
  <time>2026-09-01T19:53:17Z</time>
  <course>268.9</course>
  <speed>25.223009336714764</speed>
  <fix>3d</fix>
</trkpt>
<trkpt lat="-27.2743795" lon="151.293009">
  <ele>440.07</ele>
  <time>2026-09-01T19:53:17Z</time>
  <course>268.92</course>
  <speed>25.223009336714764</speed>
  <fix>3d</fix>
</trkpt>
<trkpt lat="-27.2743774" lon="151.2930784">
  <ele>440.97</ele>
  <time>2026-09-01T19:53:17Z</time>
  <course>268.15</course>
  <speed>25.36</speed>
  <fix>3d</fix>
</trkpt>
<trkpt lat="-27.2743798" lon="151.2929981">
  <ele>439.97</ele>
  <time>2026-09-01T19:53:17Z</time>
  <course>268.94</course>
  <speed>25.223009336714764</speed>
  <fix>3d</fix>
</trkpt>
<trkpt lat="-27.2743802" lon="151.2929834">
  <ele>439.84</ele>
  <time>2026-09-01T19:53:17Z</time>
  <course>268.96</course>
  <speed>25.223009336714764</speed>
  <fix>3d</fix>
</trkpt>
<trkpt lat="-27.2743789" lon="151.2930271">
  <ele>440.5</ele>
  <time>2026-09-01T19:53:17Z</time>
  <course>268.17</course>
  <speed>25.35</speed>
  <fix>3d</fix>
</trkpt>
<trkpt lat="-27.2743802" lon="151.2929827">
  <ele>439.83</ele>
  <time>2026-09-01T19:53:17Z</time>
  <course>268.96</course>
  <speed>25.223009336714764</speed>
  <fix>3d</fix>
</trkpt>
<trkpt lat="-27.2743809" lon="151.2929578">
  <ele>439.6</ele>
  <time>2026-09-01T19:53:17Z</time>
  <course>268.98</course>
  <speed>25.223009336714764</speed>
  <fix>3d</fix>
</trkpt>
<trkpt lat="-27.2743789" lon="151.2930271">
  <ele>440.5</ele>
  <time>2026-09-01T19:53:17Z</time>
  <course>268.17</course>
  <speed>25.35</speed>
  <fix>3d</fix>
</trkpt>
<trkpt lat="-27.2743809" lon="151.2929561">
  <ele>439.58</ele>
  <time>2026-09-01T19:53:17Z</time>
  <course>268.98</course>
  <speed>25.223009336714764</speed>
  <fix>3d</fix>
</trkpt>
<trkpt lat="-27.2743816" lon="151.2929321">
  <ele>439.36</ele>
  <time>2026-09-01T19:53:17Z</time>
  <course>268.96</course>
  <speed>25.23268515239708</speed>
  <fix>3d</fix>
</trkpt>
<trkpt lat="-27.2743803" lon="151.2929758">
  <ele>440.03</ele>
  <time>2026-09-01T19:53:17Z</time>
  <course>268.19</course>
  <speed>25.33</speed>
  <fix>3d</fix>
</trkpt>
<trkpt lat="-27.2743819" lon="151.2929227">
  <ele>439.27</ele>
  <time>2026-09-01T19:53:17Z</time>
  <course>268.95</course>
  <speed>25.23268515239708</speed>
  <fix>3d</fix>
</trkpt>
<trkpt lat="-27.2743823" lon="151.2929064">
  <ele>439.12</ele>
  <time>2026-09-01T19:53:17Z</time>
  <course>268.97</course>
  <speed>25.23237008289154</speed>
  <fix>3d</fix>
</trkpt>
<trkpt lat="-27.2743803" lon="151.2929758">
  <ele>440.03</ele>
  <time>2026-09-01T19:53:17Z</time>
  <course>268.19</course>
  <speed>25.33</speed>
  <fix>3d</fix>
</trkpt>
<trkpt lat="-27.2743826" lon="151.292897">
  <ele>439.03</ele>
  <time>2026-09-01T19:53:17Z</time>
  <course>268.97</course>
  <speed>25.23237008289154</speed>
  <fix>3d</fix>
</trkpt>
<trkpt lat="-27.274383" lon="151.2928805">
  <ele>438.88</ele>
  <time>2026-09-01T19:53:17Z</time>
  <course>268.98</course>
  <speed>25.23237008289154</speed>
  <fix>3d</fix>
</trkpt>
<trkpt lat="-27.2743817" lon="151.2929246">
  <ele>439.56</ele>
  <time>2026-09-01T19:53:17Z</time>
  <course>268.21</course>
  <speed>25.32</speed>
  <fix>3d</fix>
</trkpt>
<trkpt lat="-27.2743833" lon="151.2928713">
  <ele>438.79</ele>
  <time>2026-09-01T19:53:17Z</time>
  <course>268.99</course>
  <speed>25.23237008289154</speed>
  <fix>3d</fix>
</trkpt>
<trkpt lat="-27.2743837" lon="151.2928549">
  <ele>438.63</ele>
  <time>2026-09-01T19:53:17Z</time>
  <course>269.01</course>
  <speed>25.23205897266412</speed>
  <fix>3d</fix>
</trkpt>
<trkpt lat="-27.2743817" lon="151.2929246">
  <ele>439.56</ele>
  <time>2026-09-01T19:53:17Z</time>
  <course>268.21</course>
  <speed>25.32</speed>
  <fix>3d</fix>
</trkpt>
<trkpt lat="-27.274384" lon="151.2928446">
  <ele>438.54</ele>
  <time>2026-09-01T19:53:17Z</time>
  <course>269.02</course>
  <speed>25.23205897266412</speed>
  <fix>3d</fix>
</trkpt>
<trkpt lat="-27.2743844" lon="151.2928292">
  <ele>438.39</ele>
  <time>2026-09-01T19:53:17Z</time>
  <course>269.02</course>
  <speed>25.23205897266412</speed>
  <fix>3d</fix>
</trkpt>
<trkpt lat="-27.2743832" lon="151.2928734">
  <ele>439.09</ele>
  <time>2026-09-01T19:53:17Z</time>
  <course>268.23</course>
  <speed>25.31</speed>
  <fix>3d</fix>
</trkpt>
<trkpt lat="-27.2743847" lon="151.2928181">
  <ele>438.28</ele>
  <time>2026-09-01T19:53:17Z</time>
  <course>269.02</course>
  <speed>25.241747166153136</speed>
  <fix>3d</fix>
</trkpt>
<trkpt lat="-27.2743851" lon="151.2928036">
  <ele>438.14</ele>
  <time>2026-09-01T19:53:17Z</time>
  <course>269.02</course>
  <speed>25.241747166153136</speed>
  <fix>3d</fix>
</trkpt>
<trkpt lat="-27.2743832" lon="151.2928734">
  <ele>439.09</ele>
  <time>2026-09-01T19:53:17Z</time>
  <course>268.23</course>
  <speed>25.31</speed>
  <fix>3d</fix>
</trkpt>
<trkpt lat="-27.2743854" lon="151.2927942">
  <ele>438.06</ele>
  <time>2026-09-01T19:53:17Z</time>
  <course>269.02</course>
  <speed>25.241747166153136</speed>
  <fix>3d</fix>
</trkpt>
<trkpt lat="-27.2743858" lon="151.2927779">
  <ele>437.9</ele>
  <time>2026-09-01T19:53:17Z</time>
  <course>269.06</course>
  <speed>25.241444094979983</speed>
  <fix>3d</fix>
</trkpt>
<trkpt lat="-27.2743845" lon="151.2928223">
  <ele>438.61</ele>
  <time>2026-09-01T19:53:17Z</time>
  <course>268.26</course>
  <speed>25.3</speed>
  <fix>3d</fix>
</trkpt>
<trkpt lat="-27.2743861" lon="151.2927659">
  <ele>437.79</ele>
  <time>2026-09-01T19:53:17Z</time>
  <course>269.08</course>
  <speed>25.241444094979983</speed>
  <fix>3d</fix>
</trkpt>
<trkpt lat="-27.2743865" lon="151.2927523">
  <ele>437.66</ele>
  <time>2026-09-01T19:53:17Z</time>
  <course>269.09</course>
  <speed>25.24114498195357</speed>
  <fix>3d</fix>
</trkpt>
<trkpt lat="-27.2743845" lon="151.2928223">
  <ele>438.61</ele>
  <time>2026-09-01T19:53:17Z</time>
  <course>268.26</course>
  <speed>25.3</speed>
  <fix>3d</fix>
</trkpt>
<trkpt lat="-27.2743868" lon="151.2927403">
  <ele>437.55</ele>
  <time>2026-09-01T19:53:17Z</time>
  <course>269.1</course>
  <speed>25.240849827214614</speed>
  <fix>3d</fix>
</trkpt>
<trkpt lat="-27.2743871" lon="151.2927269">
  <ele>437.42</ele>
  <time>2026-09-01T19:53:17Z</time>
  <course>269.09</course>
  <speed>25.240849827214614</speed>
  <fix>3d</fix>
</trkpt>
<trkpt lat="-27.2743859" lon="151.2927712">
  <ele>438.13</ele>
  <time>2026-09-01T19:53:17Z</time>
  <course>268.29</course>
  <speed>25.3</speed>
  <fix>3d</fix>
</trkpt>
<trkpt lat="-27.2743872" lon="151.2927259">
  <ele>437.41</ele>
  <time>2026-09-01T19:53:17Z</time>
  <course>269.09</course>
  <speed>25.240849827214614</speed>
  <fix>3d</fix>
</trkpt>
<trkpt lat="-27.2743878" lon="151.2927015">
  <ele>437.17</ele>
  <time>2026-09-01T19:53:17Z</time>
  <course>269.11</course>
  <speed>25.240558630901972</speed>
  <fix>3d</fix>
</trkpt>
<trkpt lat="-27.2743859" lon="151.2927712">
  <ele>438.13</ele>
  <time>2026-09-01T19:53:17Z</time>
  <course>268.29</course>
  <speed>25.3</speed>
  <fix>3d</fix>
</trkpt>
<trkpt lat="-27.2743879" lon="151.2926964">
  <ele>437.12</ele>
  <time>2026-09-01T19:53:17Z</time>
  <course>269.11</course>
  <speed>25.240558630901972</speed>
  <fix>3d</fix>
</trkpt>
<trkpt lat="-27.2743884" lon="151.292676">
  <ele>436.93</ele>
  <time>2026-09-01T19:53:17Z</time>
  <course>269.1</course>
  <speed>25.240271393152646</speed>
  <fix>3d</fix>
</trkpt>
<trkpt lat="-27.2743872" lon="151.2927201">
  <ele>437.65</ele>
  <time>2026-09-01T19:53:17Z</time>
  <course>268.33</course>
  <speed>25.29</speed>
  <fix>3d</fix>
</trkpt>
<trkpt lat="-27.2743887" lon="151.292664">
  <ele>436.82</ele>
  <time>2026-09-01T19:53:17Z</time>
  <course>269.12</course>
  <speed>25.23027546421164</speed>
  <fix>3d</fix>
</trkpt>
<trkpt lat="-27.274389" lon="151.2926506">
  <ele>436.69</ele>
  <time>2026-09-01T19:53:17Z</time>
  <course>269.15</course>
  <speed>25.229992072927807</speed>
  <fix>3d</fix>
</trkpt>
<trkpt lat="-27.2743872" lon="151.2927201">
  <ele>437.65</ele>
  <time>2026-09-01T19:53:17Z</time>
  <course>268.33</course>
  <speed>25.29</speed>
  <fix>3d</fix>
</trkpt>
<trkpt lat="-27.2743893" lon="151.2926394">
  <ele>436.58</ele>
  <time>2026-09-01T19:53:17Z</time>
  <course>269.17</course>
  <speed>25.229992072927807</speed>
  <fix>3d</fix>
</trkpt>
<trkpt lat="-27.2743897" lon="151.292625">
  <ele>436.45</ele>
  <time>2026-09-01T19:53:17Z</time>
  <course>269.2</course>
  <speed>25.229712642041722</speed>
  <fix>3d</fix>
</trkpt>
<trkpt lat="-27.2743885" lon="151.292669">
  <ele>437.16</ele>
  <time>2026-09-01T19:53:17Z</time>
  <course>268.37</course>
  <speed>25.29</speed>
  <fix>3d</fix>
</trkpt>
<trkpt lat="-27.2743897" lon="151.2926233">
  <ele>436.43</ele>
  <time>2026-09-01T19:53:17Z</time>
  <course>269.2</course>
  <speed>25.229712642041722</speed>
  <fix>3d</fix>
</trkpt>
<trkpt lat="-27.2743903" lon="151.2925996">
  <ele>436.2</ele>
  <time>2026-09-01T19:53:17Z</time>
  <course>269.22</course>
  <speed>25.219716493251862</speed>
  <fix>3d</fix>
</trkpt>
<trkpt lat="-27.2743885" lon="151.292669">
  <ele>437.16</ele>
  <time>2026-09-01T19:53:17Z</time>
  <course>268.37</course>
  <speed>25.29</speed>
  <fix>3d</fix>
</trkpt>
<trkpt lat="-27.2743904" lon="151.2925954">
  <ele>436.16</ele>
  <time>2026-09-01T19:53:17Z</time>
  <course>269.22</course>
  <speed>25.21944091370782</speed>
  <fix>3d</fix>
</trkpt>
<trkpt lat="-27.2743909" lon="151.2925742">
  <ele>435.96</ele>
  <time>2026-09-01T19:53:17Z</time>
  <course>269.21</course>
  <speed>25.21944091370782</speed>
  <fix>3d</fix>
</trkpt>
<trkpt lat="-27.2743898" lon="151.2926179">
  <ele>436.69</ele>
  <time>2026-09-01T19:53:17Z</time>
  <course>268.4</course>
  <speed>25.28</speed>
  <fix>3d</fix>
</trkpt>
<trkpt lat="-27.2743912" lon="151.2925615">
  <ele>435.83</ele>
  <time>2026-09-01T19:53:17Z</time>
  <course>269.21</course>
  <speed>25.20944465869885</speed>
  <fix>3d</fix>
</trkpt>
<trkpt lat="-27.2743915" lon="151.2925488">
  <ele>435.71</ele>
  <time>2026-09-01T19:53:17Z</time>
  <course>269.22</course>
  <speed>25.209172933676346</speed>
  <fix>3d</fix>
</trkpt>
<trkpt lat="-27.2743898" lon="151.2926179">
  <ele>436.69</ele>
  <time>2026-09-01T19:53:17Z</time>
  <course>268.4</course>
  <speed>25.28</speed>
  <fix>3d</fix>
</trkpt>
<trkpt lat="-27.2743918" lon="151.292537">
  <ele>435.59</ele>
  <time>2026-09-01T19:53:17Z</time>
  <course>269.22</course>
  <speed>25.209172933676346</speed>
  <fix>3d</fix>
</trkpt>
<trkpt lat="-27.2743921" lon="151.2925235">
  <ele>435.46</ele>
  <time>2026-09-01T19:53:17Z</time>
  <course>269.23</course>
  <speed>25.209172933676346</speed>
  <fix>3d</fix>
</trkpt>
<trkpt lat="-27.2743911" lon="151.2925669">
  <ele>436.2</ele>
  <time>2026-09-01T19:53:17Z</time>
  <course>268.42</course>
  <speed>25.28</speed>
  <fix>3d</fix>
</trkpt>
<trkpt lat="-27.2743924" lon="151.2925133">
  <ele>435.36</ele>
  <time>2026-09-01T19:53:17Z</time>
  <course>269.24</course>
  <speed>25.209172933676346</speed>
  <fix>3d</fix>
</trkpt>
<trkpt lat="-27.2743927" lon="151.2924981">
  <ele>435.22</ele>
  <time>2026-09-01T19:53:17Z</time>
  <course>269.26</course>
  <speed>25.208905172577406</speed>
  <fix>3d</fix>
</trkpt>
<trkpt lat="-27.2743911" lon="151.2925669">
  <ele>436.2</ele>
  <time>2026-09-01T19:53:17Z</time>
  <course>268.42</course>
  <speed>25.28</speed>
  <fix>3d</fix>
</trkpt>
<trkpt lat="-27.274393" lon="151.2924879">
  <ele>435.12</ele>
  <time>2026-09-01T19:53:17Z</time>
  <course>269.27</course>
  <speed>25.208905172577406</speed>
  <fix>3d</fix>
</trkpt>
<trkpt lat="-27.2743933" lon="151.2924725">
  <ele>434.97</ele>
  <time>2026-09-01T19:53:17Z</time>
  <course>269.28</course>
  <speed>25.208905172577406</speed>
  <fix>3d</fix>
</trkpt>
<trkpt lat="-27.2743923" lon="151.2925158">
  <ele>435.71</ele>
  <time>2026-09-01T19:53:17Z</time>
  <course>268.44</course>
  <speed>25.27</speed>
  <fix>3d</fix>
</trkpt>
<trkpt lat="-27.2743936" lon="151.2924617">
  <ele>434.86</ele>
  <time>2026-09-01T19:53:17Z</time>
  <course>269.3</course>
  <speed>25.208905172577406</speed>
  <fix>3d</fix>
</trkpt>
<trkpt lat="-27.2743939" lon="151.292447">
  <ele>434.72</ele>
  <time>2026-09-01T19:53:17Z</time>
  <course>269.31</course>
  <speed>25.218637948945617</speed>
  <fix>3d</fix>
</trkpt>
<trkpt lat="-27.2743923" lon="151.2925158">
  <ele>435.71</ele>
  <time>2026-09-01T19:53:17Z</time>
  <course>268.44</course>
  <speed>25.27</speed>
  <fix>3d</fix>
</trkpt>
<trkpt lat="-27.274394" lon="151.2924463">
  <ele>434.71</ele>
  <time>2026-09-01T19:53:17Z</time>
  <course>269.31</course>
  <speed>25.218637948945617</speed>
  <fix>3d</fix>
</trkpt>
<trkpt lat="-27.2743945" lon="151.2924213">
  <ele>434.47</ele>
  <time>2026-09-01T19:53:17Z</time>
  <course>269.28</course>
  <speed>25.218378219068725</speed>
  <fix>3d</fix>
</trkpt>
<trkpt lat="-27.2743935" lon="151.2924648">
  <ele>435.22</ele>
  <time>2026-09-01T19:53:17Z</time>
  <course>268.46</course>
  <speed>25.27</speed>
  <fix>3d</fix>
</trkpt>
<trkpt lat="-27.2743947" lon="151.2924156">
  <ele>434.41</ele>
  <time>2026-09-01T19:53:17Z</time>
  <course>269.27</course>
  <speed>25.22837489811819</speed>
  <fix>3d</fix>
</trkpt>
<trkpt lat="-27.2743951" lon="151.2923957">
  <ele>434.22</ele>
  <time>2026-09-01T19:53:17Z</time>
  <course>269.23</course>
  <speed>25.22837489811819</speed>
  <fix>3d</fix>
</trkpt>
<trkpt lat="-27.2743935" lon="151.2924648">
  <ele>435.22</ele>
  <time>2026-09-01T19:53:17Z</time>
  <course>268.46</course>
  <speed>25.27</speed>
  <fix>3d</fix>
</trkpt>
<trkpt lat="-27.2743954" lon="151.2923837">
  <ele>434.11</ele>
  <time>2026-09-01T19:53:17Z</time>
  <course>269.23</course>
  <speed>25.22837489811819</speed>
  <fix>3d</fix>
</trkpt>
<trkpt lat="-27.2743957" lon="151.29237">
  <ele>433.97</ele>
  <time>2026-09-01T19:53:17Z</time>
  <course>269.26</course>
  <speed>25.238116015265483</speed>
  <fix>3d</fix>
</trkpt>
<trkpt lat="-27.2743948" lon="151.2924136">
  <ele>434.72</ele>
  <time>2026-09-01T19:53:17Z</time>
  <course>268.48</course>
  <speed>25.27</speed>
  <fix>3d</fix>
</trkpt>
<trkpt lat="-27.274396" lon="151.2923581">
  <ele>433.86</ele>
  <time>2026-09-01T19:53:17Z</time>
  <course>269.28</course>
  <speed>25.238116015265483</speed>
  <fix>3d</fix>
</trkpt>
<trkpt lat="-27.2743963" lon="151.2923444">
  <ele>433.73</ele>
  <time>2026-09-01T19:53:17Z</time>
  <course>269.3</course>
  <speed>25.24811280076196</speed>
  <fix>3d</fix>
</trkpt>
<trkpt lat="-27.2743948" lon="151.2924136">
  <ele>434.72</ele>
  <time>2026-09-01T19:53:17Z</time>
  <course>268.48</course>
  <speed>25.27</speed>
  <fix>3d</fix>
</trkpt>
<trkpt lat="-27.2743966" lon="151.2923332">
  <ele>433.62</ele>
  <time>2026-09-01T19:53:17Z</time>
  <course>269.31</course>
  <speed>25.24811280076196</speed>
  <fix>3d</fix>
</trkpt>
<trkpt lat="-27.2743969" lon="151.2923187">
  <ele>433.48</ele>
  <time>2026-09-01T19:53:17Z</time>
  <course>269.33</course>
  <speed>25.258109588803354</speed>
  <fix>3d</fix>
</trkpt>
<trkpt lat="-27.274396" lon="151.2923624">
  <ele>434.23</ele>
  <time>2026-09-01T19:53:17Z</time>
  <course>268.5</course>
  <speed>25.27</speed>
  <fix>3d</fix>
</trkpt>
<trkpt lat="-27.2743971" lon="151.2923093">
  <ele>433.38</ele>
  <time>2026-09-01T19:53:17Z</time>
  <course>269.33</course>
  <speed>25.258109588803354</speed>
  <fix>3d</fix>
</trkpt>
<trkpt lat="-27.2743975" lon="151.292293">
  <ele>433.23</ele>
  <time>2026-09-01T19:53:17Z</time>
  <course>269.35</course>
  <speed>25.258109588803354</speed>
  <fix>3d</fix>
</trkpt>
<trkpt lat="-27.274396" lon="151.2923624">
  <ele>434.23</ele>
  <time>2026-09-01T19:53:17Z</time>
  <course>268.5</course>
  <speed>25.27</speed>
  <fix>3d</fix>
</trkpt>
<trkpt lat="-27.2743977" lon="151.2922838">
  <ele>433.14</ele>
  <time>2026-09-01T19:53:17Z</time>
  <course>269.36</course>
  <speed>25.268106379386644</speed>
  <fix>3d</fix>
</trkpt>
<trkpt lat="-27.2743981" lon="151.2922673">
  <ele>432.97</ele>
  <time>2026-09-01T19:53:17Z</time>
  <course>269.4</course>
  <speed>25.267855073195268</speed>
  <fix>3d</fix>
</trkpt>
<trkpt lat="-27.2743971" lon="151.2923114">
  <ele>433.73</ele>
  <time>2026-09-01T19:53:17Z</time>
  <course>268.5</course>
  <speed>25.27</speed>
  <fix>3d</fix>
</trkpt>
<trkpt lat="-27.2743981" lon="151.2922647">
  <ele>432.95</ele>
  <time>2026-09-01T19:53:17Z</time>
  <course>269.4</course>
  <speed>25.267855073195268</speed>
  <fix>3d</fix>
</trkpt>
<trkpt lat="-27.2743986" lon="151.2922416">
  <ele>432.72</ele>
  <time>2026-09-01T19:53:17Z</time>
  <course>269.42</course>
  <speed>25.2778519657031</speed>
  <fix>3d</fix>
</trkpt>
<trkpt lat="-27.2743971" lon="151.2923114">
  <ele>433.73</ele>
  <time>2026-09-01T19:53:17Z</time>
  <course>268.5</course>
  <speed>25.27</speed>
  <fix>3d</fix>
</trkpt>
<trkpt lat="-27.2743987" lon="151.2922365">
  <ele>432.67</ele>
  <time>2026-09-01T19:53:17Z</time>
  <course>269.41</course>
  <speed>25.27760471247226</speed>
  <fix>3d</fix>
</trkpt>
<trkpt lat="-27.2743992" lon="151.2922159">
  <ele>432.48</ele>
  <time>2026-09-01T19:53:17Z</time>
  <course>269.39</course>
  <speed>25.287601705183512</speed>
  <fix>3d</fix>
</trkpt>
<trkpt lat="-27.2743983" lon="151.2922603">
  <ele>433.23</ele>
  <time>2026-09-01T19:53:17Z</time>
  <course>268.52</course>
  <speed>25.27</speed>
  <fix>3d</fix>
</trkpt>
<trkpt lat="-27.2743995" lon="151.2922048">
  <ele>432.37</ele>
  <time>2026-09-01T19:53:17Z</time>
  <course>269.38</course>
  <speed>25.287601705183512</speed>
  <fix>3d</fix>
</trkpt>
<trkpt lat="-27.2743998" lon="151.2921902">
  <ele>432.23</ele>
  <time>2026-09-01T19:53:17Z</time>
  <course>269.35</course>
  <speed>25.28735850182854</speed>
  <fix>3d</fix>
</trkpt>
<trkpt lat="-27.2743983" lon="151.2922603">
  <ele>433.23</ele>
  <time>2026-09-01T19:53:17Z</time>
  <course>268.52</course>
  <speed>25.27</speed>
  <fix>3d</fix>
</trkpt>
<trkpt lat="-27.2744" lon="151.2921806">
  <ele>432.14</ele>
  <time>2026-09-01T19:53:17Z</time>
  <course>269.33</course>
  <speed>25.28735850182854</speed>
  <fix>3d</fix>
</trkpt>
<trkpt lat="-27.2744003" lon="151.2921646">
  <ele>431.98</ele>
  <time>2026-09-01T19:53:17Z</time>
  <course>269.32</course>
  <speed>25.297355593025923</speed>
  <fix>3d</fix>
</trkpt>
<trkpt lat="-27.2743995" lon="151.2922092">
  <ele>432.73</ele>
  <time>2026-09-01T19:53:17Z</time>
  <course>268.53</course>
  <speed>25.27</speed>
  <fix>3d</fix>
</trkpt>
<trkpt lat="-27.2744004" lon="151.2921635">
  <ele>431.97</ele>
  <time>2026-09-01T19:53:17Z</time>
  <course>269.32</course>
  <speed>25.297355593025923</speed>
  <fix>3d</fix>
</trkpt>
<trkpt lat="-27.2744009" lon="151.2921389">
  <ele>431.74</ele>
  <time>2026-09-01T19:53:17Z</time>
  <course>269.32</course>
  <speed>25.297355593025923</speed>
  <fix>3d</fix>
</trkpt>
<trkpt lat="-27.2743995" lon="151.2922092">
  <ele>432.73</ele>
  <time>2026-09-01T19:53:17Z</time>
  <course>268.53</course>
  <speed>25.27</speed>
  <fix>3d</fix>
</trkpt>
<trkpt lat="-27.274401" lon="151.2921327">
  <ele>431.68</ele>
  <time>2026-09-01T19:53:17Z</time>
  <course>269.34</course>
  <speed>25.297355593025923</speed>
  <fix>3d</fix>
</trkpt>
<trkpt lat="-27.2744015" lon="151.2921134">
  <ele>431.49</ele>
  <time>2026-09-01T19:53:17Z</time>
  <course>269.38</course>
  <speed>25.297355593025923</speed>
  <fix>3d</fix>
</trkpt>
<trkpt lat="-27.2744006" lon="151.2921582">
  <ele>432.23</ele>
  <time>2026-09-01T19:53:17Z</time>
  <course>268.54</course>
  <speed>25.27</speed>
  <fix>3d</fix>
</trkpt>
<trkpt lat="-27.2744018" lon="151.2920996">
  <ele>431.36</ele>
  <time>2026-09-01T19:53:17Z</time>
  <course>269.41</course>
  <speed>25.28735850182854</speed>
  <fix>3d</fix>
</trkpt>
<trkpt lat="-27.274402" lon="151.2920877">
  <ele>431.25</ele>
  <time>2026-09-01T19:53:17Z</time>
  <course>269.42</course>
  <speed>25.28711925071735</speed>
  <fix>3d</fix>
</trkpt>
<trkpt lat="-27.2744006" lon="151.2921582">
  <ele>432.23</ele>
  <time>2026-09-01T19:53:17Z</time>
  <course>268.54</course>
  <speed>25.27</speed>
  <fix>3d</fix>
</trkpt>
<trkpt lat="-27.2744023" lon="151.2920749">
  <ele>431.12</ele>
  <time>2026-09-01T19:53:17Z</time>
  <course>269.43</course>
  <speed>25.28711925071735</speed>
  <fix>3d</fix>
</trkpt>
<trkpt lat="-27.2744026" lon="151.2920622">
  <ele>431.0</ele>
  <time>2026-09-01T19:53:17Z</time>
  <course>269.43</course>
  <speed>25.28711925071735</speed>
  <fix>3d</fix>
</trkpt>
<trkpt lat="-27.2744018" lon="151.2921071">
  <ele>431.74</ele>
  <time>2026-09-01T19:53:17Z</time>
  <course>268.55</course>
  <speed>25.27</speed>
  <fix>3d</fix>
</trkpt>
<trkpt lat="-27.2744028" lon="151.2920521">
  <ele>430.9</ele>
  <time>2026-09-01T19:53:17Z</time>
  <course>269.42</course>
  <speed>25.277122067197443</speed>
  <fix>3d</fix>
</trkpt>
<trkpt lat="-27.2744031" lon="151.2920368">
  <ele>430.75</ele>
  <time>2026-09-01T19:53:17Z</time>
  <course>269.41</course>
  <speed>25.277122067197443</speed>
  <fix>3d</fix>
</trkpt>
<trkpt lat="-27.2744018" lon="151.2921071">
  <ele>431.74</ele>
  <time>2026-09-01T19:53:17Z</time>
  <course>268.55</course>
  <speed>25.27</speed>
  <fix>3d</fix>
</trkpt>
<trkpt lat="-27.2744033" lon="151.2920283">
  <ele>430.67</ele>
  <time>2026-09-01T19:53:17Z</time>
  <course>269.41</course>
  <speed>25.277122067197443</speed>
  <fix>3d</fix>
</trkpt>
<trkpt lat="-27.2744037" lon="151.2920115">
  <ele>430.51</ele>
  <time>2026-09-01T19:53:17Z</time>
  <course>269.41</course>
  <speed>25.26688940095318</speed>
  <fix>3d</fix>
</trkpt>
<trkpt lat="-27.2744029" lon="151.2920561">
  <ele>431.25</ele>
  <time>2026-09-01T19:53:17Z</time>
  <course>268.56</course>
  <speed>25.26</speed>
  <fix>3d</fix>
</trkpt>
<trkpt lat="-27.2744039" lon="151.2920013">
  <ele>430.41</ele>
  <time>2026-09-01T19:53:17Z</time>
  <course>269.41</course>
  <speed>25.26688940095318</speed>
  <fix>3d</fix>
</trkpt>
<trkpt lat="-27.2744043" lon="151.2919861">
  <ele>430.26</ele>
  <time>2026-09-01T19:53:17Z</time>
  <course>269.42</course>
  <speed>25.26688940095318</speed>
  <fix>3d</fix>
</trkpt>
<trkpt lat="-27.2744029" lon="151.2920561">
  <ele>431.25</ele>
  <time>2026-09-01T19:53:17Z</time>
  <course>268.56</course>
  <speed>25.26</speed>
  <fix>3d</fix>
</trkpt>
<trkpt lat="-27.2744044" lon="151.2919778">
  <ele>430.18</ele>
  <time>2026-09-01T19:53:17Z</time>
  <course>269.44</course>
  <speed>25.26688940095318</speed>
  <fix>3d</fix>
</trkpt>
<trkpt lat="-27.2744048" lon="151.2919606">
  <ele>430.01</ele>
  <time>2026-09-01T19:53:17Z</time>
  <course>269.5</course>
  <speed>25.26688940095318</speed>
  <fix>3d</fix>
</trkpt>
<trkpt lat="-27.274404" lon="151.292005">
  <ele>430.76</ele>
  <time>2026-09-01T19:53:17Z</time>
  <course>268.56</course>
  <speed>25.26</speed>
  <fix>3d</fix>
</trkpt>
<trkpt lat="-27.2744051" lon="151.2919478">
  <ele>429.89</ele>
  <time>2026-09-01T19:53:17Z</time>
  <course>269.53</course>
  <speed>25.2568921286844</speed>
  <fix>3d</fix>
</trkpt>
<trkpt lat="-27.2744054" lon="151.2919351">
  <ele>429.76</ele>
  <time>2026-09-01T19:53:17Z</time>
  <course>269.52</course>
  <speed>25.25666050767599</speed>
  <fix>3d</fix>
</trkpt>
<trkpt lat="-27.274404" lon="151.292005">
  <ele>430.76</ele>
  <time>2026-09-01T19:53:17Z</time>
  <course>268.56</course>
  <speed>25.26</speed>
  <fix>3d</fix>
</trkpt>
<trkpt lat="-27.2744056" lon="151.2919242">
  <ele>429.66</ele>
  <time>2026-09-01T19:53:17Z</time>
  <course>269.51</course>
  <speed>25.25666050767599</speed>
  <fix>3d</fix>
</trkpt>
<trkpt lat="-27.2744059" lon="151.2919095">
  <ele>429.51</ele>
  <time>2026-09-01T19:53:17Z</time>
  <course>269.51</course>
  <speed>25.25666050767599</speed>
  <fix>3d</fix>
</trkpt>
<trkpt lat="-27.2744052" lon="151.2919541">
  <ele>430.26</ele>
  <time>2026-09-01T19:53:17Z</time>
  <course>268.58</course>
  <speed>25.25</speed>
  <fix>3d</fix>
</trkpt>
<trkpt lat="-27.274406" lon="151.2919063">
  <ele>429.48</ele>
  <time>2026-09-01T19:53:17Z</time>
  <course>269.5</course>
  <speed>25.25666050767599</speed>
  <fix>3d</fix>
</trkpt>
<trkpt lat="-27.2744064" lon="151.291884">
  <ele>429.26</ele>
  <time>2026-09-01T19:53:17Z</time>
  <course>269.46</course>
  <speed>25.25643284393107</speed>
  <fix>3d</fix>
</trkpt>
<trkpt lat="-27.2744052" lon="151.2919541">
  <ele>430.26</ele>
  <time>2026-09-01T19:53:17Z</time>
  <course>268.58</course>
  <speed>25.25</speed>
  <fix>3d</fix>
</trkpt>
<trkpt lat="-27.2744065" lon="151.2918833">
  <ele>429.25</ele>
  <time>2026-09-01T19:53:17Z</time>
  <course>269.46</course>
  <speed>25.25643284393107</speed>
  <fix>3d</fix>
</trkpt>
<trkpt lat="-27.274407" lon="151.2918584">
  <ele>429.01</ele>
  <time>2026-09-01T19:53:17Z</time>
  <course>269.43</course>
  <speed>25.25643284393107</speed>
  <fix>3d</fix>
</trkpt>
<trkpt lat="-27.2744063" lon="151.291903">
  <ele>429.76</ele>
  <time>2026-09-01T19:53:17Z</time>
  <course>268.6</course>
  <speed>25.24</speed>
  <fix>3d</fix>
</trkpt>
<trkpt lat="-27.2744071" lon="151.2918533">
  <ele>428.96</ele>
  <time>2026-09-01T19:53:17Z</time>
  <course>269.41</course>
  <speed>25.26643029792693</speed>
  <fix>3d</fix>
</trkpt>
<trkpt lat="-27.2744075" lon="151.2918328">
  <ele>428.75</ele>
  <time>2026-09-01T19:53:17Z</time>
  <course>269.4</course>
  <speed>25.26665787159038</speed>
  <fix>3d</fix>
</trkpt>
<trkpt lat="-27.2744063" lon="151.291903">
  <ele>429.76</ele>
  <time>2026-09-01T19:53:17Z</time>
  <course>268.6</course>
  <speed>25.24</speed>
  <fix>3d</fix>
</trkpt>
<trkpt lat="-27.2744078" lon="151.2918208">
  <ele>428.64</ele>
  <time>2026-09-01T19:53:17Z</time>
  <course>269.41</course>
  <speed>25.26665787159038</speed>
  <fix>3d</fix>
</trkpt>
<trkpt lat="-27.2744081" lon="151.2918072">
  <ele>428.5</ele>
  <time>2026-09-01T19:53:17Z</time>
  <course>269.43</course>
  <speed>25.26665787159038</speed>
  <fix>3d</fix>
</trkpt>
<trkpt lat="-27.2744074" lon="151.2918518">
  <ele>429.26</ele>
  <time>2026-09-01T19:53:17Z</time>
  <course>268.6</course>
  <speed>25.24</speed>
  <fix>3d</fix>
</trkpt>
<trkpt lat="-27.2744083" lon="151.2917952">
  <ele>428.38</ele>
  <time>2026-09-01T19:53:17Z</time>
  <course>269.44</course>
  <speed>25.276655237590276</speed>
  <fix>3d</fix>
</trkpt>
<trkpt lat="-27.2744086" lon="151.2917816">
  <ele>428.25</ele>
  <time>2026-09-01T19:53:17Z</time>
  <course>269.44</course>
  <speed>25.276655237590276</speed>
  <fix>3d</fix>
</trkpt>
<trkpt lat="-27.2744074" lon="151.2918518">
  <ele>429.26</ele>
  <time>2026-09-01T19:53:17Z</time>
  <course>268.6</course>
  <speed>25.24</speed>
  <fix>3d</fix>
</trkpt>
<trkpt lat="-27.2744088" lon="151.291773">
  <ele>428.16</ele>
  <time>2026-09-01T19:53:17Z</time>
  <course>269.45</course>
  <speed>25.276655237590276</speed>
  <fix>3d</fix>
</trkpt>
<trkpt lat="-27.2744092" lon="151.291756">
  <ele>427.99</ele>
  <time>2026-09-01T19:53:17Z</time>
  <course>269.47</course>
  <speed>25.276655237590276</speed>
  <fix>3d</fix>
</trkpt>
<trkpt lat="-27.2744085" lon="151.2918009">
  <ele>428.76</ele>
  <time>2026-09-01T19:53:17Z</time>
  <course>268.59</course>
  <speed>25.24</speed>
  <fix>3d</fix>
</trkpt>
<trkpt lat="-27.2744094" lon="151.2917468">
  <ele>427.9</ele>
  <time>2026-09-01T19:53:17Z</time>
  <course>269.48</course>
  <speed>25.276655237590276</speed>
  <fix>3d</fix>
</trkpt>
<trkpt lat="-27.2744098" lon="151.2917303">
  <ele>427.74</ele>
  <time>2026-09-01T19:53:17Z</time>
  <course>269.48</course>
  <speed>25.286652605673215</speed>
  <fix>3d</fix>
</trkpt>
<trkpt lat="-27.2744085" lon="151.2918009">
  <ele>428.76</ele>
  <time>2026-09-01T19:53:17Z</time>
  <course>268.59</course>
  <speed>25.24</speed>
  <fix>3d</fix>
</trkpt>
<trkpt lat="-27.2744099" lon="151.2917227">
  <ele>427.66</ele>
  <time>2026-09-01T19:53:17Z</time>
  <course>269.47</course>
  <speed>25.286652605673215</speed>
  <fix>3d</fix>
</trkpt>
<trkpt lat="-27.2744103" lon="151.2917047">
  <ele>427.49</ele>
  <time>2026-09-01T19:53:17Z</time>
  <course>269.48</course>
  <speed>25.286652605673215</speed>
  <fix>3d</fix>
</trkpt>
<trkpt lat="-27.2744096" lon="151.2917499">
  <ele>428.25</ele>
  <time>2026-09-01T19:53:17Z</time>
  <course>268.58</course>
  <speed>25.24</speed>
  <fix>3d</fix>
</trkpt>
<trkpt lat="-27.2744105" lon="151.2916971">
  <ele>427.41</ele>
  <time>2026-09-01T19:53:17Z</time>
  <course>269.49</course>
  <speed>25.286652605673215</speed>
  <fix>3d</fix>
</trkpt>
<trkpt lat="-27.2744109" lon="151.2916791">
  <ele>427.24</ele>
  <time>2026-09-01T19:53:17Z</time>
  <course>269.5</course>
  <speed>25.286883951962132</speed>
  <fix>3d</fix>
</trkpt>
<trkpt lat="-27.2744096" lon="151.2917499">
  <ele>428.25</ele>
  <time>2026-09-01T19:53:17Z</time>
  <course>268.58</course>
  <speed>25.24</speed>
  <fix>3d</fix>
</trkpt>
<trkpt lat="-27.274411" lon="151.2916715">
  <ele>427.16</ele>
  <time>2026-09-01T19:53:17Z</time>
  <course>269.5</course>
  <speed>25.286652605673215</speed>
  <fix>3d</fix>
</trkpt>
<trkpt lat="-27.2744114" lon="151.2916535">
  <ele>426.98</ele>
  <time>2026-09-01T19:53:17Z</time>
  <course>269.47</course>
  <speed>25.296649975836722</speed>
  <fix>3d</fix>
</trkpt>
<trkpt lat="-27.2744107" lon="151.2916988">
  <ele>427.74</ele>
  <time>2026-09-01T19:53:17Z</time>
  <course>268.57</course>
  <speed>25.24</speed>
  <fix>3d</fix>
</trkpt>
<trkpt lat="-27.2744116" lon="151.291645">
  <ele>426.9</ele>
  <time>2026-09-01T19:53:17Z</time>
  <course>269.46</course>
  <speed>25.296649975836722</speed>
  <fix>3d</fix>
</trkpt>
<trkpt lat="-27.274412" lon="151.2916279">
  <ele>426.73</ele>
  <time>2026-09-01T19:53:17Z</time>
  <course>269.45</course>
  <speed>25.296881230697196</speed>
  <fix>3d</fix>
</trkpt>
<trkpt lat="-27.2744107" lon="151.2916988">
  <ele>427.74</ele>
  <time>2026-09-01T19:53:17Z</time>
  <course>268.57</course>
  <speed>25.24</speed>
  <fix>3d</fix>
</trkpt>
<trkpt lat="-27.2744121" lon="151.2916203">
  <ele>426.65</ele>
  <time>2026-09-01T19:53:17Z</time>
  <course>269.44</course>
  <speed>25.296881230697196</speed>
  <fix>3d</fix>
</trkpt>
<trkpt lat="-27.2744125" lon="151.2916023">
  <ele>426.47</ele>
  <time>2026-09-01T19:53:17Z</time>
  <course>269.45</course>
  <speed>25.30687851158258</speed>
  <fix>3d</fix>
</trkpt>
<trkpt lat="-27.2744118" lon="151.2916478">
  <ele>427.23</ele>
  <time>2026-09-01T19:53:17Z</time>
  <course>268.57</course>
  <speed>25.24</speed>
  <fix>3d</fix>
</trkpt>
<trkpt lat="-27.2744126" lon="151.2916015">
  <ele>426.47</ele>
  <time>2026-09-01T19:53:17Z</time>
  <course>269.45</course>
  <speed>25.30687851158258</speed>
  <fix>3d</fix>
</trkpt>
<trkpt lat="-27.2744131" lon="151.2915767">
  <ele>426.22</ele>
  <time>2026-09-01T19:53:17Z</time>
  <course>269.47</course>
  <speed>25.30687851158258</speed>
  <fix>3d</fix>
</trkpt>
<trkpt lat="-27.2744118" lon="151.2916478">
  <ele>427.23</ele>
  <time>2026-09-01T19:53:17Z</time>
  <course>268.57</course>
  <speed>25.24</speed>
  <fix>3d</fix>
</trkpt>
<trkpt lat="-27.2744131" lon="151.291575">
  <ele>426.2</ele>
  <time>2026-09-01T19:53:17Z</time>
  <course>269.47</course>
  <speed>25.30687851158258</speed>
  <fix>3d</fix>
</trkpt>
<trkpt lat="-27.2744137" lon="151.2915515">
  <ele>425.97</ele>
  <time>2026-09-01T19:53:17Z</time>
  <course>269.48</course>
  <speed>25.30687851158258</speed>
  <fix>3d</fix>
</trkpt>
<trkpt lat="-27.274413" lon="151.2915969">
  <ele>426.73</ele>
  <time>2026-09-01T19:53:18Z</time>
  <course>268.56</course>
  <speed>25.25</speed>
  <fix>3d</fix>
</trkpt>
<trkpt lat="-27.2744138" lon="151.2915439">
  <ele>425.89</ele>
  <time>2026-09-01T19:53:18Z</time>
  <course>269.48</course>
  <speed>25.30687851158258</speed>
  <fix>3d</fix>
</trkpt>
<trkpt lat="-27.2744142" lon="151.291526">
  <ele>425.71</ele>
  <time>2026-09-01T19:53:18Z</time>
  <course>269.49</course>
  <speed>25.30687851158258</speed>
  <fix>3d</fix>
</trkpt>
<trkpt lat="-27.274413" lon="151.2915969">
  <ele>426.73</ele>
  <time>2026-09-01T19:53:18Z</time>
  <course>268.56</course>
  <speed>25.25</speed>
  <fix>3d</fix>
</trkpt>
<trkpt lat="-27.2744142" lon="151.291525">
  <ele>425.7</ele>
  <time>2026-09-01T19:53:18Z</time>
  <course>269.49</course>
  <speed>25.30687851158258</speed>
  <fix>3d</fix>
</trkpt>
<trkpt lat="-27.2744148" lon="151.2915007">
  <ele>425.45</ele>
  <time>2026-09-01T19:53:18Z</time>
  <course>269.48</course>
  <speed>25.296881230697196</speed>
  <fix>3d</fix>
</trkpt>
<trkpt lat="-27.2744141" lon="151.2915459">
  <ele>426.22</ele>
  <time>2026-09-01T19:53:18Z</time>
  <course>268.56</course>
  <speed>25.25</speed>
  <fix>3d</fix>
</trkpt>
<trkpt lat="-27.2744148" lon="151.2914996">
  <ele>425.44</ele>
  <time>2026-09-01T19:53:18Z</time>
  <course>269.48</course>
  <speed>25.296881230697196</speed>
  <fix>3d</fix>
</trkpt>
<trkpt lat="-27.2744153" lon="151.2914749">
  <ele>425.19</ele>
  <time>2026-09-01T19:53:18Z</time>
  <course>269.46</course>
  <speed>25.286883951962132</speed>
  <fix>3d</fix>
</trkpt>
<trkpt lat="-27.2744141" lon="151.2915459">
  <ele>426.22</ele>
  <time>2026-09-01T19:53:18Z</time>
  <course>268.56</course>
  <speed>25.25</speed>
  <fix>3d</fix>
</trkpt>
<trkpt lat="-27.2744155" lon="151.2914673">
  <ele>425.11</ele>
  <time>2026-09-01T19:53:18Z</time>
  <course>269.45</course>
  <speed>25.286883951962132</speed>
  <fix>3d</fix>
</trkpt>
<trkpt lat="-27.2744159" lon="151.2914496">
  <ele>424.93</ele>
  <time>2026-09-01T19:53:18Z</time>
  <course>269.41</course>
  <speed>25.286883951962132</speed>
  <fix>3d</fix>
</trkpt>
<trkpt lat="-27.2744153" lon="151.2914948">
  <ele>425.71</ele>
  <time>2026-09-01T19:53:18Z</time>
  <course>268.56</course>
  <speed>25.25</speed>
  <fix>3d</fix>
</trkpt>
<trkpt lat="-27.2744161" lon="151.2914388">
  <ele>424.82</ele>
  <time>2026-09-01T19:53:18Z</time>
  <course>269.39</course>
  <speed>25.27688667537994</speed>
  <fix>3d</fix>
</trkpt>
<trkpt lat="-27.2744165" lon="151.2914242">
  <ele>424.67</ele>
  <time>2026-09-01T19:53:18Z</time>
  <course>269.34</course>
  <speed>25.27688667537994</speed>
  <fix>3d</fix>
</trkpt>
<trkpt lat="-27.2744153" lon="151.2914948">
  <ele>425.71</ele>
  <time>2026-09-01T19:53:18Z</time>
  <course>268.56</course>
  <speed>25.25</speed>
  <fix>3d</fix>
</trkpt>
<trkpt lat="-27.2744166" lon="151.2914166">
  <ele>424.6</ele>
  <time>2026-09-01T19:53:18Z</time>
  <course>269.31</course>
  <speed>25.277122067197443</speed>
  <fix>3d</fix>
</trkpt>
<trkpt lat="-27.274417" lon="151.2913987">
  <ele>424.41</ele>
  <time>2026-09-01T19:53:18Z</time>
  <course>269.26</course>
  <speed>25.277361412932322</speed>
  <fix>3d</fix>
</trkpt>
<trkpt lat="-27.2744164" lon="151.2914438">
  <ele>425.19</ele>
  <time>2026-09-01T19:53:18Z</time>
  <course>268.55</course>
  <speed>25.26</speed>
  <fix>3d</fix>
</trkpt>
<trkpt lat="-27.2744172" lon="151.2913911">
  <ele>424.33</ele>
  <time>2026-09-01T19:53:18Z</time>
  <course>269.22</course>
  <speed>25.27760471247226</speed>
  <fix>3d</fix>
</trkpt>
<trkpt lat="-27.2744176" lon="151.2913732">
  <ele>424.15</ele>
  <time>2026-09-01T19:53:18Z</time>
  <course>269.13</course>
  <speed>25.278103172508807</speed>
  <fix>3d</fix>
</trkpt>
<trkpt lat="-27.2744164" lon="151.2914438">
  <ele>425.19</ele>
  <time>2026-09-01T19:53:18Z</time>
  <course>268.55</course>
  <speed>25.26</speed>
  <fix>3d</fix>
</trkpt>
<trkpt lat="-27.2744178" lon="151.2913656">
  <ele>424.07</ele>
  <time>2026-09-01T19:53:18Z</time>
  <course>269.08</course>
  <speed>25.27861744637155</speed>
  <fix>3d</fix>
</trkpt>
<trkpt lat="-27.2744183" lon="151.2913476">
  <ele>423.88</ele>
  <time>2026-09-01T19:53:18Z</time>
  <course>268.99</course>
  <speed>25.27969343168544</speed>
  <fix>3d</fix>
</trkpt>
<trkpt lat="-27.2744176" lon="151.2913927">
  <ele>424.67</ele>
  <time>2026-09-01T19:53:18Z</time>
  <course>268.49</course>
  <speed>25.26</speed>
  <fix>3d</fix>
</trkpt>
<trkpt lat="-27.2744185" lon="151.29134">
  <ele>423.8</ele>
  <time>2026-09-01T19:53:18Z</time>
  <course>268.93</course>
  <speed>25.280255141117546</speed>
  <fix>3d</fix>
</trkpt>
<trkpt lat="-27.274419" lon="151.2913221">
  <ele>423.61</ele>
  <time>2026-09-01T19:53:18Z</time>
  <course>268.81</course>
  <speed>25.272350504058778</speed>
  <fix>3d</fix>
</trkpt>
<trkpt lat="-27.2744176" lon="151.2913927">
  <ele>424.67</ele>
  <time>2026-09-01T19:53:18Z</time>
  <course>268.49</course>
  <speed>25.26</speed>
  <fix>3d</fix>
</trkpt>
<trkpt lat="-27.274419" lon="151.2913212">
  <ele>423.6</ele>
  <time>2026-09-01T19:53:18Z</time>
  <course>268.8</course>
  <speed>25.272350504058778</speed>
  <fix>3d</fix>
</trkpt>
<trkpt lat="-27.2744198" lon="151.2912964">
  <ele>423.34</ele>
  <time>2026-09-01T19:53:18Z</time>
  <course>268.59</course>
  <speed>25.276386213222807</speed>
  <fix>3d</fix>
</trkpt>
<trkpt lat="-27.2744188" lon="151.2913416">
  <ele>424.14</ele>
  <time>2026-09-01T19:53:18Z</time>
  <course>268.28</course>
  <speed>25.25</speed>
  <fix>3d</fix>
</trkpt>
<trkpt lat="-27.2744198" lon="151.2912956">
  <ele>423.33</ele>
  <time>2026-09-01T19:53:18Z</time>
  <course>268.58</course>
  <speed>25.276748208580944</speed>
  <fix>3d</fix>
</trkpt>
<trkpt lat="-27.2744207" lon="151.2912708">
  <ele>423.06</ele>
  <time>2026-09-01T19:53:18Z</time>
  <course>268.39</course>
  <speed>25.282652155183406</speed>
  <fix>3d</fix>
</trkpt>
<trkpt lat="-27.2744188" lon="151.2913416">
  <ele>424.14</ele>
  <time>2026-09-01T19:53:18Z</time>
  <course>268.28</course>
  <speed>25.25</speed>
  <fix>3d</fix>
</trkpt>
<trkpt lat="-27.274421" lon="151.2912631">
  <ele>422.97</ele>
  <time>2026-09-01T19:53:18Z</time>
  <course>268.34</course>
  <speed>25.2848175789346</speed>
  <fix>3d</fix>
</trkpt>
<trkpt lat="-27.2744218" lon="151.2912452">
  <ele>422.77</ele>
  <time>2026-09-01T19:53:18Z</time>
  <course>268.22</course>
  <speed>25.291405654886006</speed>
  <fix>3d</fix>
</trkpt>
<trkpt lat="-27.2744204" lon="151.2912906">
  <ele>423.6</ele>
  <time>2026-09-01T19:53:18Z</time>
  <course>267.8</course>
  <speed>25.25</speed>
  <fix>3d</fix>
</trkpt>
<trkpt lat="-27.2744222" lon="151.2912375">
  <ele>422.68</ele>
  <time>2026-09-01T19:53:18Z</time>
  <course>268.16</course>
  <speed>25.294989622452903</speed>
  <fix>3d</fix>
</trkpt>
<trkpt lat="-27.2744231" lon="151.2912196">
  <ele>422.48</ele>
  <time>2026-09-01T19:53:18Z</time>
  <course>267.97</course>
  <speed>25.293337067298967</speed>
  <fix>3d</fix>
</trkpt>
<trkpt lat="-27.2744204" lon="151.2912906">
  <ele>423.6</ele>
  <time>2026-09-01T19:53:18Z</time>
  <course>267.8</course>
  <speed>25.25</speed>
  <fix>3d</fix>
</trkpt>
<trkpt lat="-27.2744234" lon="151.291213">
  <ele>422.4</ele>
  <time>2026-09-01T19:53:18Z</time>
  <course>267.89</course>
  <speed>25.296918784705777</speed>
  <fix>3d</fix>
</trkpt>
<trkpt lat="-27.2744245" lon="151.2911941">
  <ele>422.18</ele>
  <time>2026-09-01T19:53:18Z</time>
  <course>267.56</course>
  <speed>25.299219355545343</speed>
  <fix>3d</fix>
</trkpt>
<trkpt lat="-27.2744224" lon="151.2912395">
  <ele>423.03</ele>
  <time>2026-09-01T19:53:18Z</time>
  <course>267.02</course>
  <speed>25.24</speed>
  <fix>3d</fix>
</trkpt>
<trkpt lat="-27.274425" lon="151.2911865">
  <ele>422.09</ele>
  <time>2026-09-01T19:53:18Z</time>
  <course>267.4</course>
  <speed>25.29484137131522</speed>
  <fix>3d</fix>
</trkpt>
<trkpt lat="-27.2744263" lon="151.2911687">
  <ele>421.87</ele>
  <time>2026-09-01T19:53:18Z</time>
  <course>267.01</course>
  <speed>25.300766786799173</speed>
  <fix>3d</fix>
</trkpt>
<trkpt lat="-27.2744224" lon="151.2912395">
  <ele>423.03</ele>
  <time>2026-09-01T19:53:18Z</time>
  <course>267.02</course>
  <speed>25.24</speed>
  <fix>3d</fix>
</trkpt>
<trkpt lat="-27.2744268" lon="151.2911611">
  <ele>421.78</ele>
  <time>2026-09-01T19:53:18Z</time>
  <course>266.84</course>
  <speed>25.308111347945346</speed>
  <fix>3d</fix>
</trkpt>
<trkpt lat="-27.2744282" lon="151.2911433">
  <ele>421.56</ele>
  <time>2026-09-01T19:53:18Z</time>
  <course>266.42</course>
  <speed>25.308409669514994</speed>
  <fix>3d</fix>
</trkpt>
<trkpt lat="-27.2744252" lon="151.2911886">
  <ele>422.44</ele>
  <time>2026-09-01T19:53:18Z</time>
  <course>265.95</course>
  <speed>25.24</speed>
  <fix>3d</fix>
</trkpt>
<trkpt lat="-27.2744283" lon="151.2911425">
  <ele>421.55</ele>
  <time>2026-09-01T19:53:18Z</time>
  <course>266.4</course>
  <speed>25.309336222034744</speed>
  <fix>3d</fix>
</trkpt>
<trkpt lat="-27.2744305" lon="151.291118">
  <ele>421.24</ele>
  <time>2026-09-01T19:53:18Z</time>
  <course>265.78</course>
  <speed>25.313336405934322</speed>
  <fix>3d</fix>
</trkpt>
<trkpt lat="-27.2744252" lon="151.2911886">
  <ele>422.44</ele>
  <time>2026-09-01T19:53:18Z</time>
  <course>265.95</course>
  <speed>25.24</speed>
  <fix>3d</fix>
</trkpt>
<trkpt lat="-27.2744312" lon="151.2911104">
  <ele>421.14</ele>
  <time>2026-09-01T19:53:18Z</time>
  <course>265.57</course>
  <speed>25.315323422780917</speed>
  <fix>3d</fix>
</trkpt>
<trkpt lat="-27.2744331" lon="151.2910927">
  <ele>420.91</ele>
  <time>2026-09-01T19:53:18Z</time>
  <course>265.04</course>
  <speed>25.3168283953579</speed>
  <fix>3d</fix>
</trkpt>
<trkpt lat="-27.2744289" lon="151.2911378">
  <ele>421.82</ele>
  <time>2026-09-01T19:53:18Z</time>
  <course>264.57</course>
  <speed>25.25</speed>
  <fix>3d</fix>
</trkpt>
<trkpt lat="-27.274434" lon="151.2910843">
  <ele>420.8</ele>
  <time>2026-09-01T19:53:18Z</time>
  <course>264.77</course>
  <speed>25.323001401887574</speed>
  <fix>3d</fix>
</trkpt>
<trkpt lat="-27.274436" lon="151.2910674">
  <ele>420.58</ele>
  <time>2026-09-01T19:53:18Z</time>
  <course>264.18</course>
  <speed>25.341469965256557</speed>
  <fix>3d</fix>
</trkpt>
<trkpt lat="-27.2744289" lon="151.2911378">
  <ele>421.82</ele>
  <time>2026-09-01T19:53:18Z</time>
  <course>264.57</course>
  <speed>25.25</speed>
  <fix>3d</fix>
</trkpt>
<trkpt lat="-27.2744369" lon="151.2910607">
  <ele>420.49</ele>
  <time>2026-09-01T19:53:18Z</time>
  <course>263.94</course>
  <speed>25.348376673862177</speed>
  <fix>3d</fix>
</trkpt>
<trkpt lat="-27.2744394" lon="151.2910421">
  <ele>420.24</ele>
  <time>2026-09-01T19:53:18Z</time>
  <course>263.28</course>
  <speed>25.367837905505468</speed>
  <fix>3d</fix>
</trkpt>
<trkpt lat="-27.2744338" lon="151.2910871">
  <ele>421.18</ele>
  <time>2026-09-01T19:53:18Z</time>
  <course>262.9</course>
  <speed>25.27</speed>
  <fix>3d</fix>
</trkpt>
<trkpt lat="-27.2744395" lon="151.2910412">
  <ele>420.23</ele>
  <time>2026-09-01T19:53:18Z</time>
  <course>263.25</course>
  <speed>25.370951893848996</speed>
  <fix>3d</fix>
</trkpt>
<trkpt lat="-27.2744431" lon="151.291017">
  <ele>419.91</ele>
  <time>2026-09-01T19:53:18Z</time>
  <course>262.28</course>
  <speed>25.399311014277533</speed>
  <fix>3d</fix>
</trkpt>
<trkpt lat="-27.2744338" lon="151.2910871">
  <ele>421.18</ele>
  <time>2026-09-01T19:53:18Z</time>
  <course>262.9</course>
  <speed>25.27</speed>
  <fix>3d</fix>
</trkpt>
<trkpt lat="-27.2744433" lon="151.2910159">
  <ele>419.89</ele>
  <time>2026-09-01T19:53:18Z</time>
  <course>262.23</course>
  <speed>25.392961623253008</speed>
  <fix>3d</fix>
</trkpt>
<trkpt lat="-27.2744473" lon="151.2909916">
  <ele>419.56</ele>
  <time>2026-09-01T19:53:18Z</time>
  <course>261.18</course>
  <speed>25.42648422413134</speed>
  <fix>3d</fix>
</trkpt>
<trkpt lat="-27.2744402" lon="151.2910365">
  <ele>420.52</ele>
  <time>2026-09-01T19:53:18Z</time>
  <course>260.92</course>
  <speed>25.3</speed>
  <fix>3d</fix>
</trkpt>
<trkpt lat="-27.274449" lon="151.2909822">
  <ele>419.43</ele>
  <time>2026-09-01T19:53:18Z</time>
  <course>260.72</course>
  <speed>25.438822692884195</speed>
  <fix>3d</fix>
</trkpt>
<trkpt lat="-27.274452" lon="151.2909664">
  <ele>419.22</ele>
  <time>2026-09-01T19:53:18Z</time>
  <course>259.92</course>
  <speed>25.465466812921377</speed>
  <fix>3d</fix>
</trkpt>
<trkpt lat="-27.2744402" lon="151.2910365">
  <ele>420.52</ele>
  <time>2026-09-01T19:53:18Z</time>
  <course>260.92</course>
  <speed>25.3</speed>
  <fix>3d</fix>
</trkpt>
<trkpt lat="-27.2744536" lon="151.2909588">
  <ele>419.11</ele>
  <time>2026-09-01T19:53:18Z</time>
  <course>259.52</course>
  <speed>25.475849347960903</speed>
  <fix>3d</fix>
</trkpt>
<trkpt lat="-27.2744573" lon="151.2909412">
  <ele>418.87</ele>
  <time>2026-09-01T19:53:18Z</time>
  <course>258.6</course>
  <speed>25.50513673752799</speed>
  <fix>3d</fix>
</trkpt>
<trkpt lat="-27.2744483" lon="151.2909861">
  <ele>419.83</ele>
  <time>2026-09-01T19:53:18Z</time>
  <course>258.6</course>
  <speed>25.34</speed>
  <fix>3d</fix>
</trkpt>
<trkpt lat="-27.2744588" lon="151.2909343">
  <ele>418.77</ele>
  <time>2026-09-01T19:53:18Z</time>
  <course>258.23</course>
  <speed>25.50769491741659</speed>
  <fix>3d</fix>
</trkpt>
<trkpt lat="-27.2744631" lon="151.290916">
  <ele>418.51</ele>
  <time>2026-09-01T19:53:18Z</time>
  <course>257.23</course>
  <speed>25.53819492446559</speed>
  <fix>3d</fix>
</trkpt>
<trkpt lat="-27.2744483" lon="151.2909861">
  <ele>419.83</ele>
  <time>2026-09-01T19:53:18Z</time>
  <course>258.6</course>
  <speed>25.34</speed>
  <fix>3d</fix>
</trkpt>
<trkpt lat="-27.2744652" lon="151.2909076">
  <ele>418.39</ele>
  <time>2026-09-01T19:53:18Z</time>
  <course>256.75</course>
  <speed>25.558736275489053</speed>
  <fix>3d</fix>
</trkpt>
<trkpt lat="-27.2744695" lon="151.290891">
  <ele>418.15</ele>
  <time>2026-09-01T19:53:18Z</time>
  <course>255.78</course>
  <speed>25.586484713613945</speed>
  <fix>3d</fix>
</trkpt>
<trkpt lat="-27.2744583" lon="151.290936">
  <ele>419.13</ele>
  <time>2026-09-01T19:53:18Z</time>
  <course>255.94</course>
  <speed>25.4</speed>
  <fix>3d</fix>
</trkpt>
<trkpt lat="-27.2744706" lon="151.2908869">
  <ele>418.09</ele>
  <time>2026-09-01T19:53:18Z</time>
  <course>255.53</course>
  <speed>25.589880812539946</speed>
  <fix>3d</fix>
</trkpt>
<trkpt lat="-27.2744765" lon="151.2908663">
  <ele>417.8</ele>
  <time>2026-09-01T19:53:18Z</time>
  <course>254.22</course>
  <speed>25.630265312711845</speed>
  <fix>3d</fix>
</trkpt>
<trkpt lat="-27.2744583" lon="151.290936">
  <ele>419.13</ele>
  <time>2026-09-01T19:53:18Z</time>
  <course>255.94</course>
  <speed>25.4</speed>
  <fix>3d</fix>
</trkpt>
<trkpt lat="-27.2744784" lon="151.2908598">
  <ele>417.7</ele>
  <time>2026-09-01T19:53:18Z</time>
  <course>253.78</course>
  <speed>25.634078879491653</speed>
  <fix>3d</fix>
</trkpt>
<trkpt lat="-27.2744843" lon="151.290841">
  <ele>417.43</ele>
  <time>2026-09-01T19:53:18Z</time>
  <course>252.5</course>
  <speed>25.676078360995863</speed>
  <fix>3d</fix>
</trkpt>
<trkpt lat="-27.2744705" lon="151.2908866">
  <ele>418.42</ele>
  <time>2026-09-01T19:53:18Z</time>
  <course>253.0</course>
  <speed>25.46</speed>
  <fix>3d</fix>
</trkpt>
<trkpt lat="-27.2744875" lon="151.2908312">
  <ele>417.28</ele>
  <time>2026-09-01T19:53:18Z</time>
  <course>251.83</course>
  <speed>25.693088564826144</speed>
  <fix>3d</fix>
</trkpt>
<trkpt lat="-27.2744925" lon="151.2908169">
  <ele>417.07</ele>
  <time>2026-09-01T19:53:18Z</time>
  <course>250.8</course>
  <speed>25.71323589126814</speed>
  <fix>3d</fix>
</trkpt>
<trkpt lat="-27.2744705" lon="151.2908866">
  <ele>418.42</ele>
  <time>2026-09-01T19:53:18Z</time>
  <course>253.0</course>
  <speed>25.46</speed>
  <fix>3d</fix>
</trkpt>
<trkpt lat="-27.2744951" lon="151.2908097">
  <ele>416.97</ele>
  <time>2026-09-01T19:53:18Z</time>
  <course>250.28</course>
  <speed>25.725633131178714</speed>
  <fix>3d</fix>
</trkpt>
<trkpt lat="-27.2745014" lon="151.290793">
  <ele>416.72</ele>
  <time>2026-09-01T19:53:18Z</time>
  <course>249.05</course>
  <speed>25.75375894893792</speed>
  <fix>3d</fix>
</trkpt>
<trkpt lat="-27.2744851" lon="151.2908377">
  <ele>417.71</ele>
  <time>2026-09-01T19:53:18Z</time>
  <course>249.74</course>
  <speed>25.53</speed>
  <fix>3d</fix>
</trkpt>
<trkpt lat="-27.2745017" lon="151.290792">
  <ele>416.7</ele>
  <time>2026-09-01T19:53:18Z</time>
  <course>248.98</course>
  <speed>25.747465894724474</speed>
  <fix>3d</fix>
</trkpt>
<trkpt lat="-27.2745107" lon="151.2907698">
  <ele>416.37</ele>
  <time>2026-09-01T19:53:18Z</time>
  <course>247.25</course>
  <speed>25.791735110302294</speed>
  <fix>3d</fix>
</trkpt>
<trkpt lat="-27.2744851" lon="151.2908377">
  <ele>417.71</ele>
  <time>2026-09-01T19:53:18Z</time>
  <course>249.74</course>
  <speed>25.53</speed>
  <fix>3d</fix>
</trkpt>
<trkpt lat="-27.2745111" lon="151.290769">
  <ele>416.35</ele>
  <time>2026-09-01T19:53:18Z</time>
  <course>247.19</course>
  <speed>25.791287288539902</speed>
  <fix>3d</fix>
</trkpt>
<trkpt lat="-27.2745209" lon="151.2907465">
  <ele>416.01</ele>
  <time>2026-09-01T19:53:18Z</time>
  <course>245.39</course>
  <speed>25.82390365533453</speed>
  <fix>3d</fix>
</trkpt>
<trkpt lat="-27.2745023" lon="151.2907897">
  <ele>417.0</ele>
  <time>2026-09-01T19:53:18Z</time>
  <course>246.21</course>
  <speed>25.6</speed>
  <fix>3d</fix>
</trkpt>
<trkpt lat="-27.2745241" lon="151.2907395">
  <ele>415.9</ele>
  <time>2026-09-01T19:53:18Z</time>
  <course>244.83</course>
  <speed>25.832634399147135</speed>
  <fix>3d</fix>
</trkpt>
<trkpt lat="-27.2745319" lon="151.2907235">
  <ele>415.65</ele>
  <time>2026-09-01T19:53:18Z</time>
  <course>243.52</course>
  <speed>25.856614240847545</speed>
  <fix>3d</fix>
</trkpt>
<trkpt lat="-27.2745023" lon="151.2907897">
  <ele>417.0</ele>
  <time>2026-09-01T19:53:18Z</time>
  <course>246.21</course>
  <speed>25.6</speed>
  <fix>3d</fix>
</trkpt>
<trkpt lat="-27.2745353" lon="151.2907167">
  <ele>415.54</ele>
  <time>2026-09-01T19:53:18Z</time>
  <course>242.96</course>
  <speed>25.864976319339636</speed>
  <fix>3d</fix>
</trkpt>
<trkpt lat="-27.2745435" lon="151.2907009">
  <ele>415.29</ele>
  <time>2026-09-01T19:53:18Z</time>
  <course>241.62</course>
  <speed>25.891150997976123</speed>
  <fix>3d</fix>
</trkpt>
<trkpt lat="-27.2745223" lon="151.290743">
  <ele>416.28</ele>
  <time>2026-09-01T19:53:18Z</time>
  <course>242.53</course>
  <speed>25.67</speed>
  <fix>3d</fix>
</trkpt>
<trkpt lat="-27.2745475" lon="151.2906935">
  <ele>415.17</ele>
  <time>2026-09-01T19:53:18Z</time>
  <course>240.98</course>
  <speed>25.901555937819644</speed>
  <fix>3d</fix>
</trkpt>
<trkpt lat="-27.2745558" lon="151.2906787">
  <ele>414.93</ele>
  <time>2026-09-01T19:53:18Z</time>
  <course>239.69</course>
  <speed>25.920503467332573</speed>
  <fix>3d</fix>
</trkpt>
<trkpt lat="-27.2745223" lon="151.290743">
  <ele>416.28</ele>
  <time>2026-09-01T19:53:18Z</time>
  <course>242.53</course>
  <speed>25.67</speed>
  <fix>3d</fix>
</trkpt>
<trkpt lat="-27.2745596" lon="151.2906722">
  <ele>414.83</ele>
  <time>2026-09-01T19:53:18Z</time>
  <course>239.1</course>
  <speed>25.937873852727407</speed>
  <fix>3d</fix>
</trkpt>
<trkpt lat="-27.2745687" lon="151.290657">
  <ele>414.58</ele>
  <time>2026-09-01T19:53:18Z</time>
  <course>237.76</course>
  <speed>25.951680099754622</speed>
  <fix>3d</fix>
</trkpt>
<trkpt lat="-27.2745449" lon="151.2906977">
  <ele>415.56</ele>
  <time>2026-09-01T19:53:18Z</time>
  <course>238.71</course>
  <speed>25.74</speed>
  <fix>3d</fix>
</trkpt>
<trkpt lat="-27.2745732" lon="151.2906499">
  <ele>414.46</ele>
  <time>2026-09-01T19:53:18Z</time>
  <course>237.13</course>
  <speed>25.95926231617532</speed>
  <fix>3d</fix>
</trkpt>
<trkpt lat="-27.2745823" lon="151.2906358">
  <ele>414.23</ele>
  <time>2026-09-01T19:53:18Z</time>
  <course>235.92</course>
  <speed>25.97003080475647</speed>
  <fix>3d</fix>
</trkpt>
<trkpt lat="-27.2745449" lon="151.2906977">
  <ele>415.56</ele>
  <time>2026-09-01T19:53:18Z</time>
  <course>238.71</course>
  <speed>25.74</speed>
  <fix>3d</fix>
</trkpt>
<trkpt lat="-27.2745865" lon="151.2906296">
  <ele>414.12</ele>
  <time>2026-09-01T19:53:18Z</time>
  <course>235.39</course>
  <speed>25.976914751371073</speed>
  <fix>3d</fix>
</trkpt>
<trkpt lat="-27.2745966" lon="151.2906151">
  <ele>413.88</ele>
  <time>2026-09-01T19:53:18Z</time>
  <course>234.12</course>
  <speed>25.99043862654111</speed>
  <fix>3d</fix>
</trkpt>
<trkpt lat="-27.2745703" lon="151.2906542">
  <ele>414.85</ele>
  <time>2026-09-01T19:53:18Z</time>
  <course>234.85</course>
  <speed>25.8</speed>
  <fix>3d</fix>
</trkpt>
<trkpt lat="-27.2746009" lon="151.290609">
  <ele>413.77</ele>
  <time>2026-09-01T19:53:18Z</time>
  <course>233.59</course>
  <speed>25.985303538731273</speed>
  <fix>3d</fix>
</trkpt>
<trkpt lat="-27.2746114" lon="151.2905949">
  <ele>413.53</ele>
  <time>2026-09-01T19:53:18Z</time>
  <course>232.4</course>
  <speed>26.00463420238785</speed>
  <fix>3d</fix>
</trkpt>
<trkpt lat="-27.2745703" lon="151.2906542">
  <ele>414.85</ele>
  <time>2026-09-01T19:53:18Z</time>
  <course>234.85</course>
  <speed>25.8</speed>
  <fix>3d</fix>
</trkpt>
<trkpt lat="-27.2746154" lon="151.2905896">
  <ele>413.44</ele>
  <time>2026-09-01T19:53:18Z</time>
  <course>231.97</course>
  <speed>26.002757546075763</speed>
  <fix>3d</fix>
</trkpt>
<trkpt lat="-27.2746268" lon="151.2905752">
  <ele>413.2</ele>
  <time>2026-09-01T19:53:18Z</time>
  <course>230.83</course>
  <speed>25.997538345004894</speed>
  <fix>3d</fix>
</trkpt>
<trkpt lat="-27.2745983" lon="151.2906125">
  <ele>414.15</ele>
  <time>2026-09-01T19:53:18Z</time>
  <course>231.07</course>
  <speed>25.85</speed>
  <fix>3d</fix>
</trkpt>
<trkpt lat="-27.2746315" lon="151.2905694">
  <ele>413.1</ele>
  <time>2026-09-01T19:53:18Z</time>
  <course>230.39</course>
  <speed>26.001326889218557</speed>
  <fix>3d</fix>
</trkpt>
<trkpt lat="-27.2746427" lon="151.290556">
  <ele>412.87</ele>
  <time>2026-09-01T19:53:18Z</time>
  <course>229.42</course>
  <speed>25.99280092641037</speed>
  <fix>3d</fix>
</trkpt>
<trkpt lat="-27.2745983" lon="151.2906125">
  <ele>414.15</ele>
  <time>2026-09-01T19:53:18Z</time>
  <course>231.07</course>
  <speed>25.85</speed>
  <fix>3d</fix>
</trkpt>
<trkpt lat="-27.2746432" lon="151.2905554">
  <ele>412.86</ele>
  <time>2026-09-01T19:53:18Z</time>
  <course>229.38</course>
  <speed>25.992485452530314</speed>
  <fix>3d</fix>
</trkpt>
<trkpt lat="-27.2746588" lon="151.2905375">
  <ele>412.56</ele>
  <time>2026-09-01T19:53:18Z</time>
  <course>228.24</course>
  <speed>25.964964856513863</speed>
  <fix>3d</fix>
</trkpt>
<trkpt lat="-27.2746286" lon="151.2905728">
  <ele>413.47</ele>
  <time>2026-09-01T19:53:18Z</time>
  <course>227.58</course>
  <speed>25.88</speed>
  <fix>3d</fix>
</trkpt>
<trkpt lat="-27.2746594" lon="151.2905368">
  <ele>412.54</ele>
  <time>2026-09-01T19:53:18Z</time>
  <course>228.2</course>
  <speed>25.964976410541954</speed>
  <fix>3d</fix>
</trkpt>
<trkpt lat="-27.2746753" lon="151.2905193">
  <ele>412.25</ele>
  <time>2026-09-01T19:53:18Z</time>
  <course>227.31</course>
  <speed>25.927259785793023</speed>
  <fix>3d</fix>
</trkpt>
<trkpt lat="-27.2746286" lon="151.2905728">
  <ele>413.47</ele>
  <time>2026-09-01T19:53:18Z</time>
  <course>227.58</course>
  <speed>25.88</speed>
  <fix>3d</fix>
</trkpt>
<trkpt lat="-27.2746803" lon="151.2905139">
  <ele>412.16</ele>
  <time>2026-09-01T19:53:18Z</time>
  <course>227.07</course>
  <speed>25.908625976689695</speed>
  <fix>3d</fix>
</trkpt>
<trkpt lat="-27.274692" lon="151.2905015">
  <ele>411.95</ele>
  <time>2026-09-01T19:53:18Z</time>
  <course>226.59</course>
  <speed>25.865745688071705</speed>
  <fix>3d</fix>
</trkpt>
<trkpt lat="-27.2746608" lon="151.2905352">
  <ele>412.82</ele>
  <time>2026-09-01T19:53:18Z</time>
  <course>224.71</course>
  <speed>25.86</speed>
  <fix>3d</fix>
</trkpt>
<trkpt lat="-27.2746971" lon="151.2904962">
  <ele>411.86</ele>
  <time>2026-09-01T19:53:18Z</time>
  <course>226.41</course>
  <speed>25.83989551062465</speed>
  <fix>3d</fix>
</trkpt>
<trkpt lat="-27.2747089" lon="151.2904839">
  <ele>411.66</ele>
  <time>2026-09-01T19:53:18Z</time>
  <course>226.03</course>
  <speed>25.795567448691646</speed>
  <fix>3d</fix>
</trkpt>
<trkpt lat="-27.2746608" lon="151.2905352">
  <ele>412.82</ele>
  <time>2026-09-01T19:53:18Z</time>
  <course>224.71</course>
  <speed>25.86</speed>
  <fix>3d</fix>
</trkpt>
<trkpt lat="-27.274714" lon="151.2904787">
  <ele>411.57</ele>
  <time>2026-09-01T19:53:18Z</time>
  <course>225.88</course>
  <speed>25.761711899638968</speed>
  <fix>3d</fix>
</trkpt>
<trkpt lat="-27.2747259" lon="151.2904663">
  <ele>411.36</ele>
  <time>2026-09-01T19:53:18Z</time>
  <course>225.55</course>
  <speed>25.69965174861325</speed>
  <fix>3d</fix>
</trkpt>
<trkpt lat="-27.2746943" lon="151.2904992">
  <ele>412.21</ele>
  <time>2026-09-01T19:53:18Z</time>
  <course>222.85</course>
  <speed>25.8</speed>
  <fix>3d</fix>
</trkpt>
<trkpt lat="-27.274731" lon="151.2904611">
  <ele>411.27</ele>
  <time>2026-09-01T19:53:18Z</time>
  <course>225.41</course>
  <speed>25.67815024490666</speed>
  <fix>3d</fix>
</trkpt>
<trkpt lat="-27.2747428" lon="151.290449">
  <ele>411.06</ele>
  <time>2026-09-01T19:53:18Z</time>
  <course>225.09</course>
  <speed>25.619820452142125</speed>
  <fix>3d</fix>
</trkpt>
<trkpt lat="-27.2746943" lon="151.2904992">
  <ele>412.21</ele>
  <time>2026-09-01T19:53:18Z</time>
  <course>222.85</course>
  <speed>25.8</speed>
  <fix>3d</fix>
</trkpt>
<trkpt lat="-27.2747478" lon="151.2904438">
  <ele>410.96</ele>
  <time>2026-09-01T19:53:18Z</time>
  <course>224.96</course>
  <speed>25.59038882080536</speed>
  <fix>3d</fix>
</trkpt>
<trkpt lat="-27.2747595" lon="151.2904317">
  <ele>410.74</ele>
  <time>2026-09-01T19:53:18Z</time>
  <course>224.67</course>
  <speed>25.52948099746644</speed>
  <fix>3d</fix>
</trkpt>
<trkpt lat="-27.2747285" lon="151.2904641">
  <ele>411.61</ele>
  <time>2026-09-01T19:53:18Z</time>
  <course>222.15</course>
  <speed>25.68</speed>
  <fix>3d</fix>
</trkpt>
<trkpt lat="-27.2747646" lon="151.2904264">
  <ele>410.64</ele>
  <time>2026-09-01T19:53:18Z</time>
  <course>224.56</course>
  <speed>25.513341607872533</speed>
  <fix>3d</fix>
</trkpt>
<trkpt lat="-27.2747767" lon="151.2904136">
  <ele>410.4</ele>
  <time>2026-09-01T19:53:18Z</time>
  <course>224.36</course>
  <speed>25.451137499137438</speed>
  <fix>3d</fix>
</trkpt>
<trkpt lat="-27.2747285" lon="151.2904641">
  <ele>411.61</ele>
  <time>2026-09-01T19:53:18Z</time>
  <course>222.15</course>
  <speed>25.68</speed>
  <fix>3d</fix>
</trkpt>
<trkpt lat="-27.2747811" lon="151.290409">
  <ele>410.31</ele>
  <time>2026-09-01T19:53:18Z</time>
  <course>224.32</course>
  <speed>25.442069491297286</speed>
  <fix>3d</fix>
</trkpt>
<trkpt lat="-27.274793" lon="151.2903962">
  <ele>410.07</ele>
  <time>2026-09-01T19:53:18Z</time>
  <course>224.31</course>
  <speed>25.394969974386658</speed>
  <fix>3d</fix>
</trkpt>
<trkpt lat="-27.2747626" lon="151.2904292">
  <ele>410.98</ele>
  <time>2026-09-01T19:53:18Z</time>
  <course>222.51</course>
  <speed>25.55</speed>
  <fix>3d</fix>
</trkpt>
<trkpt lat="-27.2747979" lon="151.2903909">
  <ele>409.97</ele>
  <time>2026-09-01T19:53:18Z</time>
  <course>224.37</course>
  <speed>25.379410946670923</speed>
  <fix>3d</fix>
</trkpt>
<trkpt lat="-27.2748092" lon="151.2903784">
  <ele>409.73</ele>
  <time>2026-09-01T19:53:18Z</time>
  <course>224.65</course>
  <speed>25.349802760573898</speed>
  <fix>3d</fix>
</trkpt>
<trkpt lat="-27.2747626" lon="151.2904292">
  <ele>410.98</ele>
  <time>2026-09-01T19:53:18Z</time>
  <course>222.51</course>
  <speed>25.55</speed>
  <fix>3d</fix>
</trkpt>
<trkpt lat="-27.2748099" lon="151.2903776">
  <ele>409.71</ele>
  <time>2026-09-01T19:53:18Z</time>
  <course>224.68</course>
  <speed>25.349826429386063</speed>
  <fix>3d</fix>
</trkpt>
<trkpt lat="-27.2748252" lon="151.2903601">
  <ele>409.39</ele>
  <time>2026-09-01T19:53:18Z</time>
  <course>225.42</course>
  <speed>25.334265333733285</speed>
  <fix>3d</fix>
</trkpt>
<trkpt lat="-27.2747961" lon="151.2903939">
  <ele>410.32</ele>
  <time>2026-09-01T19:53:18Z</time>
  <course>223.73</course>
  <speed>25.44</speed>
  <fix>3d</fix>
</trkpt>
<trkpt lat="-27.2748258" lon="151.2903593">
  <ele>409.37</ele>
  <time>2026-09-01T19:53:18Z</time>
  <course>225.46</course>
  <speed>25.334881093070084</speed>
  <fix>3d</fix>
</trkpt>
<trkpt lat="-27.2748408" lon="151.2903415">
  <ele>409.05</ele>
  <time>2026-09-01T19:53:18Z</time>
  <course>226.53</course>
  <speed>25.326199872858936</speed>
  <fix>3d</fix>
</trkpt>
<trkpt lat="-27.2747961" lon="151.2903939">
  <ele>410.32</ele>
  <time>2026-09-01T19:53:18Z</time>
  <course>223.73</course>
  <speed>25.44</speed>
  <fix>3d</fix>
</trkpt>
<trkpt lat="-27.2748461" lon="151.290335">
  <ele>408.94</ele>
  <time>2026-09-01T19:53:18Z</time>
  <course>226.97</course>
  <speed>25.33076587867015</speed>
  <fix>3d</fix>
</trkpt>
<trkpt lat="-27.2748562" lon="151.2903222">
  <ele>408.72</ele>
  <time>2026-09-01T19:53:18Z</time>
  <course>227.92</course>
  <speed>25.33878055471494</speed>
  <fix>3d</fix>
</trkpt>
<trkpt lat="-27.2748286" lon="151.2903578">
  <ele>409.64</ele>
  <time>2026-09-01T19:53:18Z</time>
  <course>225.79</course>
  <speed>25.39</speed>
  <fix>3d</fix>
</trkpt>
<trkpt lat="-27.2748612" lon="151.2903157">
  <ele>408.62</ele>
  <time>2026-09-01T19:53:18Z</time>
  <course>228.43</course>
  <speed>25.34326340469988</speed>
  <fix>3d</fix>
</trkpt>
<trkpt lat="-27.274871" lon="151.2903026">
  <ele>408.41</ele>
  <time>2026-09-01T19:53:18Z</time>
  <course>229.54</course>
  <speed>25.36340671124445</speed>
  <fix>3d</fix>
</trkpt>
<trkpt lat="-27.2748286" lon="151.2903578">
  <ele>409.64</ele>
  <time>2026-09-01T19:53:18Z</time>
  <course>225.79</course>
  <speed>25.39</speed>
  <fix>3d</fix>
</trkpt>
<trkpt lat="-27.2748754" lon="151.2902966">
  <ele>408.32</ele>
  <time>2026-09-01T19:53:18Z</time>
  <course>230.06</course>
  <speed>25.36732741145586</speed>
  <fix>3d</fix>
</trkpt>
<trkpt lat="-27.2748853" lon="151.2902824">
  <ele>408.11</ele>
  <time>2026-09-01T19:53:18Z</time>
  <course>231.35</course>
  <speed>25.390569115323114</speed>
  <fix>3d</fix>
</trkpt>
<trkpt lat="-27.2748595" lon="151.2903202">
  <ele>408.99</ele>
  <time>2026-09-01T19:53:18Z</time>
  <course>228.68</course>
  <speed>25.39</speed>
  <fix>3d</fix>
</trkpt>
<trkpt lat="-27.2748895" lon="151.2902763">
  <ele>408.03</ele>
  <time>2026-09-01T19:53:18Z</time>
  <course>231.93</course>
  <speed>25.398145601598554</speed>
  <fix>3d</fix>
</trkpt>
<trkpt lat="-27.274899" lon="151.2902617">
  <ele>407.84</ele>
  <time>2026-09-01T19:53:18Z</time>
  <course>233.38</course>
  <speed>25.41203258301075</speed>
  <fix>3d</fix>
</trkpt>
<trkpt lat="-27.2748595" lon="151.2903202">
  <ele>408.99</ele>
  <time>2026-09-01T19:53:18Z</time>
  <course>228.68</course>
  <speed>25.39</speed>
  <fix>3d</fix>
</trkpt>
<trkpt lat="-27.2748999" lon="151.2902603">
  <ele>407.82</ele>
  <time>2026-09-01T19:53:18Z</time>
  <course>233.52</course>
  <speed>25.421663989597533</speed>
  <fix>3d</fix>
</trkpt>
<trkpt lat="-27.2749121" lon="151.2902405">
  <ele>407.58</ele>
  <time>2026-09-01T19:53:18Z</time>
  <course>235.57</course>
  <speed>25.439695359811207</speed>
  <fix>3d</fix>
</trkpt>
<trkpt lat="-27.2748886" lon="151.2902806">
  <ele>408.39</ele>
  <time>2026-09-01T19:53:18Z</time>
  <course>232.23</course>
  <speed>25.43</speed>
  <fix>3d</fix>
</trkpt>
<trkpt lat="-27.2749124" lon="151.2902399">
  <ele>407.57</ele>
  <time>2026-09-01T19:53:18Z</time>
  <course>235.62</course>
  <speed>25.445520234414545</speed>
  <fix>3d</fix>
</trkpt>
<trkpt lat="-27.2749241" lon="151.2902192">
  <ele>407.35</ele>
  <time>2026-09-01T19:53:18Z</time>
  <course>237.7</course>
  <speed>25.472685370804548</speed>
  <fix>3d</fix>
</trkpt>
<trkpt lat="-27.2748886" lon="151.2902806">
  <ele>408.39</ele>
  <time>2026-09-01T19:53:18Z</time>
  <course>232.23</course>
  <speed>25.43</speed>
  <fix>3d</fix>
</trkpt>
<trkpt lat="-27.2749277" lon="151.2902126">
  <ele>407.28</ele>
  <time>2026-09-01T19:53:18Z</time>
  <course>238.39</course>
  <speed>25.477882565079852</speed>
  <fix>3d</fix>
</trkpt>
<trkpt lat="-27.2749356" lon="151.2901971">
  <ele>407.13</ele>
  <time>2026-09-01T19:53:18Z</time>
  <course>240.02</course>
  <speed>25.490102000580542</speed>
  <fix>3d</fix>
</trkpt>
<trkpt lat="-27.2749153" lon="151.2902389">
  <ele>407.86</ele>
  <time>2026-09-01T19:53:18Z</time>
  <course>236.34</course>
  <speed>25.48</speed>
  <fix>3d</fix>
</trkpt>
<trkpt lat="-27.2749389" lon="151.2901904">
  <ele>407.06</ele>
  <time>2026-09-01T19:53:18Z</time>
  <course>240.73</course>
  <speed>25.49417384423351</speed>
  <fix>3d</fix>
</trkpt>
<trkpt lat="-27.2749463" lon="151.2901746">
  <ele>406.92</ele>
  <time>2026-09-01T19:53:18Z</time>
  <course>242.44</course>
  <speed>25.496074207610864</speed>
  <fix>3d</fix>
</trkpt>
<trkpt lat="-27.2749153" lon="151.2902389">
  <ele>407.86</ele>
  <time>2026-09-01T19:53:18Z</time>
  <course>236.34</course>
  <speed>25.48</speed>
  <fix>3d</fix>
</trkpt>
<trkpt lat="-27.2749493" lon="151.2901677">
  <ele>406.87</ele>
  <time>2026-09-01T19:53:18Z</time>
  <course>243.17</course>
  <speed>25.504525088697495</speed>
  <fix>3d</fix>
</trkpt>
<trkpt lat="-27.2749561" lon="151.2901516">
  <ele>406.74</ele>
  <time>2026-09-01T19:53:18Z</time>
  <course>244.9</course>
  <speed>25.50873183833332</speed>
  <fix>3d</fix>
</trkpt>
<trkpt lat="-27.2749392" lon="151.2901949">
  <ele>407.41</ele>
  <time>2026-09-01T19:53:18Z</time>
  <course>240.91</course>
  <speed>25.54</speed>
  <fix>3d</fix>
</trkpt>
<trkpt lat="-27.2749564" lon="151.2901508">
  <ele>406.74</ele>
  <time>2026-09-01T19:53:18Z</time>
  <course>244.99</course>
  <speed>25.51498579266702</speed>
  <fix>3d</fix>
</trkpt>
<trkpt lat="-27.274965" lon="151.2901283">
  <ele>406.58</ele>
  <time>2026-09-01T19:53:18Z</time>
  <course>247.39</course>
  <speed>25.521396905341994</speed>
  <fix>3d</fix>
</trkpt>
<trkpt lat="-27.2749392" lon="151.2901949">
  <ele>407.41</ele>
  <time>2026-09-01T19:53:18Z</time>
  <course>240.91</course>
  <speed>25.54</speed>
  <fix>3d</fix>
</trkpt>
<trkpt lat="-27.2749653" lon="151.2901273">
  <ele>406.58</ele>
  <time>2026-09-01T19:53:18Z</time>
  <course>247.49</course>
  <speed>25.521994436172108</speed>
  <fix>3d</fix>
</trkpt>
<trkpt lat="-27.2749729" lon="151.2901045">
  <ele>406.44</ele>
  <time>2026-09-01T19:53:18Z</time>
  <course>249.94</course>
  <speed>25.52603768703635</speed>
  <fix>3d</fix>
</trkpt>
<trkpt lat="-27.2749598" lon="151.2901488">
  <ele>407.04</ele>
  <time>2026-09-01T19:53:18Z</time>
  <course>245.83</course>
  <speed>25.59</speed>
  <fix>3d</fix>
</trkpt>
<trkpt lat="-27.2749755" lon="151.2900963">
  <ele>406.39</ele>
  <time>2026-09-01T19:53:18Z</time>
  <course>250.81</course>
  <speed>25.531065391009438</speed>
  <fix>3d</fix>
</trkpt>
<trkpt lat="-27.2749799" lon="151.2900802">
  <ele>406.31</ele>
  <time>2026-09-01T19:53:18Z</time>
  <course>252.51</course>
  <speed>25.52709344990142</speed>
  <fix>3d</fix>
</trkpt>
<trkpt lat="-27.2749598" lon="151.2901488">
  <ele>407.04</ele>
  <time>2026-09-01T19:53:18Z</time>
  <course>245.83</course>
  <speed>25.59</speed>
  <fix>3d</fix>
</trkpt>
<trkpt lat="-27.2749818" lon="151.2900729">
  <ele>406.28</ele>
  <time>2026-09-01T19:53:18Z</time>
  <course>253.28</course>
  <speed>25.53467446434358</speed>
  <fix>3d</fix>
</trkpt>
<trkpt lat="-27.274986" lon="151.2900557">
  <ele>406.2</ele>
  <time>2026-09-01T19:53:18Z</time>
  <course>255.05</course>
  <speed>25.53338402954062</speed>
  <fix>3d</fix>
</trkpt>
<trkpt lat="-27.2749766" lon="151.2901006">
  <ele>406.75</ele>
  <time>2026-09-01T19:53:18Z</time>
  <course>251.0</course>
  <speed>25.64</speed>
  <fix>3d</fix>
</trkpt>
<trkpt lat="-27.2749877" lon="151.290048">
  <ele>406.17</ele>
  <time>2026-09-01T19:53:18Z</time>
  <course>255.85</course>
  <speed>25.5327241006517</speed>
  <fix>3d</fix>
</trkpt>
<trkpt lat="-27.274991" lon="151.2900306">
  <ele>406.11</ele>
  <time>2026-09-01T19:53:18Z</time>
  <course>257.7</course>
  <speed>25.52771043395784</speed>
  <fix>3d</fix>
</trkpt>
<trkpt lat="-27.2749766" lon="151.2901006">
  <ele>406.75</ele>
  <time>2026-09-01T19:53:18Z</time>
  <course>251.0</course>
  <speed>25.64</speed>
  <fix>3d</fix>
</trkpt>
<trkpt lat="-27.2749923" lon="151.290023">
  <ele>406.08</ele>
  <time>2026-09-01T19:53:18Z</time>
  <course>258.48</course>
  <speed>25.52559499796234</speed>
  <fix>3d</fix>
</trkpt>
<trkpt lat="-27.2749951" lon="151.2900054">
  <ele>406.03</ele>
  <time>2026-09-01T19:53:18Z</time>
  <course>260.27</course>
  <speed>25.51665534508784</speed>
  <fix>3d</fix>
</trkpt>
<trkpt lat="-27.2749897" lon="151.2900508">
  <ele>406.52</ele>
  <time>2026-09-01T19:53:18Z</time>
  <course>256.26</course>
  <speed>25.68</speed>
  <fix>3d</fix>
</trkpt>
<trkpt lat="-27.2749961" lon="151.2899978">
  <ele>406.01</ele>
  <time>2026-09-01T19:53:18Z</time>
  <course>261.03</course>
  <speed>25.520364417460815</speed>
  <fix>3d</fix>
</trkpt>
<trkpt lat="-27.2749981" lon="151.28998">
  <ele>405.97</ele>
  <time>2026-09-01T19:53:18Z</time>
  <course>262.82</course>
  <speed>25.509860838507134</speed>
  <fix>3d</fix>
</trkpt>
<trkpt lat="-27.2749897" lon="151.2900508">
  <ele>406.52</ele>
  <time>2026-09-01T19:53:18Z</time>
  <course>256.26</course>
  <speed>25.68</speed>
  <fix>3d</fix>
</trkpt>
<trkpt lat="-27.2749988" lon="151.2899724">
  <ele>405.95</ele>
  <time>2026-09-01T19:53:18Z</time>
  <course>263.57</course>
  <speed>25.50908269616922</speed>
  <fix>3d</fix>
</trkpt>
<trkpt lat="-27.2750002" lon="151.2899535">
  <ele>405.92</ele>
  <time>2026-09-01T19:53:18Z</time>
  <course>265.38</course>
  <speed>25.513141711674788</speed>
  <fix>3d</fix>
</trkpt>
<trkpt lat="-27.2749985" lon="151.2899999">
  <ele>406.36</ele>
  <time>2026-09-01T19:53:18Z</time>
  <course>261.52</course>
  <speed>25.7</speed>
  <fix>3d</fix>
</trkpt>
<trkpt lat="-27.2750006" lon="151.2899458">
  <ele>405.9</ele>
  <time>2026-09-01T19:53:18Z</time>
  <course>266.11</course>
  <speed>25.50844958048215</speed>
  <fix>3d</fix>
</trkpt>
<trkpt lat="-27.2750011" lon="151.289928">
  <ele>405.88</ele>
  <time>2026-09-01T19:53:18Z</time>
  <course>267.81</course>
  <speed>25.500784301664133</speed>
  <fix>3d</fix>
</trkpt>
<trkpt lat="-27.2749985" lon="151.2899999">
  <ele>406.36</ele>
  <time>2026-09-01T19:53:18Z</time>
  <course>261.52</course>
  <speed>25.7</speed>
  <fix>3d</fix>
</trkpt>
<trkpt lat="-27.2750012" lon="151.2899202">
  <ele>405.87</ele>
  <time>2026-09-01T19:53:18Z</time>
  <course>268.56</course>
  <speed>25.50033137039595</speed>
  <fix>3d</fix>
</trkpt>
<trkpt lat="-27.2750012" lon="151.2899021">
  <ele>405.84</ele>
  <time>2026-09-01T19:53:18Z</time>
  <course>270.3</course>
  <speed>25.50588363495764</speed>
  <fix>3d</fix>
</trkpt>
<trkpt lat="-27.2750033" lon="151.2899481">
  <ele>406.25</ele>
  <time>2026-09-01T19:53:18Z</time>
  <course>266.7</course>
  <speed>25.7</speed>
  <fix>3d</fix>
</trkpt>
<trkpt lat="-27.2750011" lon="151.2899001">
  <ele>405.84</ele>
  <time>2026-09-01T19:53:18Z</time>
  <course>270.49</course>
  <speed>25.49883918926507</speed>
  <fix>3d</fix>
</trkpt>
<trkpt lat="-27.2750001" lon="151.2898762">
  <ele>405.82</ele>
  <time>2026-09-01T19:53:18Z</time>
  <course>272.75</course>
  <speed>25.49934312879451</speed>
  <fix>3d</fix>
</trkpt>
<trkpt lat="-27.2750033" lon="151.2899481">
  <ele>406.25</ele>
  <time>2026-09-01T19:53:18Z</time>
  <course>266.7</course>
  <speed>25.7</speed>
  <fix>3d</fix>
</trkpt>
<trkpt lat="-27.275" lon="151.2898752">
  <ele>405.81</ele>
  <time>2026-09-01T19:53:18Z</time>
  <course>272.85</course>
  <speed>25.493365803675278</speed>
  <fix>3d</fix>
</trkpt>
<trkpt lat="-27.2749982" lon="151.2898504">
  <ele>405.79</ele>
  <time>2026-09-01T19:53:18Z</time>
  <course>275.2</course>
  <speed>25.49913920115736</speed>
  <fix>3d</fix>
</trkpt>
<trkpt lat="-27.2750039" lon="151.2898961">
  <ele>406.17</ele>
  <time>2026-09-01T19:53:18Z</time>
  <course>271.79</course>
  <speed>25.68</speed>
  <fix>3d</fix>
</trkpt>
<trkpt lat="-27.2749974" lon="151.2898427">
  <ele>405.79</ele>
  <time>2026-09-01T19:53:18Z</time>
  <course>275.92</course>
  <speed>25.490468806987447</speed>
  <fix>3d</fix>
</trkpt>
<trkpt lat="-27.2749951" lon="151.2898245">
  <ele>405.78</ele>
  <time>2026-09-01T19:53:18Z</time>
  <course>277.62</course>
  <speed>25.48677500194954</speed>
  <fix>3d</fix>
</trkpt>
<trkpt lat="-27.2750039" lon="151.2898961">
  <ele>406.17</ele>
  <time>2026-09-01T19:53:18Z</time>
  <course>271.79</course>
  <speed>25.68</speed>
  <fix>3d</fix>
</trkpt>
<trkpt lat="-27.274994" lon="151.2898168">
  <ele>405.78</ele>
  <time>2026-09-01T19:53:18Z</time>
  <course>278.36</course>
  <speed>25.482278155612384</speed>
  <fix>3d</fix>
</trkpt>
<trkpt lat="-27.2749912" lon="151.2897989">
  <ele>405.77</ele>
  <time>2026-09-01T19:53:18Z</time>
  <course>280.05</course>
  <speed>25.476801212083124</speed>
  <fix>3d</fix>
</trkpt>
<trkpt lat="-27.2750004" lon="151.2898444">
  <ele>406.11</ele>
  <time>2026-09-01T19:53:18Z</time>
  <course>276.8</course>
  <speed>25.66</speed>
  <fix>3d</fix>
</trkpt>
<trkpt lat="-27.2749896" lon="151.2897905">
  <ele>405.77</ele>
  <time>2026-09-01T19:53:18Z</time>
  <course>280.85</course>
  <speed>25.47317216210027</speed>
  <fix>3d</fix>
</trkpt>
<trkpt lat="-27.2749863" lon="151.2897736">
  <ele>405.76</ele>
  <time>2026-09-01T19:53:18Z</time>
  <course>282.44</course>
  <speed>25.46171439632453</speed>
  <fix>3d</fix>
</trkpt>
<trkpt lat="-27.2750004" lon="151.2898444">
  <ele>406.11</ele>
  <time>2026-09-01T19:53:18Z</time>
  <course>276.8</course>
  <speed>25.66</speed>
  <fix>3d</fix>
</trkpt>
<trkpt lat="-27.2749861" lon="151.2897728">
  <ele>405.76</ele>
  <time>2026-09-01T19:53:18Z</time>
  <course>282.52</course>
  <speed>25.45946778705321</speed>
  <fix>3d</fix>
</trkpt>
<trkpt lat="-27.2749805" lon="151.2897485">
  <ele>405.76</ele>
  <time>2026-09-01T19:53:18Z</time>
  <course>284.79</course>
  <speed>25.452318165542405</speed>
  <fix>3d</fix>
</trkpt>
<trkpt lat="-27.274993" lon="151.2897933">
  <ele>406.07</ele>
  <time>2026-09-01T19:53:18Z</time>
  <course>281.75</course>
  <speed>25.63</speed>
  <fix>3d</fix>
</trkpt>
<trkpt lat="-27.2749803" lon="151.2897477">
  <ele>405.76</ele>
  <time>2026-09-01T19:53:18Z</time>
  <course>284.87</course>
  <speed>25.4513752084244</speed>
  <fix>3d</fix>
</trkpt>
<trkpt lat="-27.2749737" lon="151.2897239">
  <ele>405.75</ele>
  <time>2026-09-01T19:53:18Z</time>
  <course>287.16</course>
  <speed>25.426305276229183</speed>
  <fix>3d</fix>
</trkpt>
<trkpt lat="-27.274993" lon="151.2897933">
  <ele>406.07</ele>
  <time>2026-09-01T19:53:18Z</time>
  <course>281.75</course>
  <speed>25.63</speed>
  <fix>3d</fix>
</trkpt>
<trkpt lat="-27.2749717" lon="151.2897173">
  <ele>405.75</ele>
  <time>2026-09-01T19:53:18Z</time>
  <course>287.78</course>
  <speed>25.421669890076064</speed>
  <fix>3d</fix>
</trkpt>
<trkpt lat="-27.2749661" lon="151.2896996">
  <ele>405.74</ele>
  <time>2026-09-01T19:53:18Z</time>
  <course>289.47</course>
  <speed>25.405528925806678</speed>
  <fix>3d</fix>
</trkpt>
<trkpt lat="-27.2749818" lon="151.2897431">
  <ele>406.03</ele>
  <time>2026-09-01T19:53:18Z</time>
  <course>286.63</course>
  <speed>25.58</speed>
  <fix>3d</fix>
</trkpt>
<trkpt lat="-27.2749634" lon="151.2896918">
  <ele>405.74</ele>
  <time>2026-09-01T19:53:18Z</time>
  <course>290.23</course>
  <speed>25.399970472423785</speed>
  <fix>3d</fix>
</trkpt>
<trkpt lat="-27.2749576" lon="151.2896758">
  <ele>405.74</ele>
  <time>2026-09-01T19:53:18Z</time>
  <course>291.82</course>
  <speed>25.378756864748127</speed>
  <fix>3d</fix>
</trkpt>
<trkpt lat="-27.2749818" lon="151.2897431">
  <ele>406.03</ele>
  <time>2026-09-01T19:53:18Z</time>
  <course>286.63</course>
  <speed>25.58</speed>
  <fix>3d</fix>
</trkpt>
<trkpt lat="-27.2749548" lon="151.2896688">
  <ele>405.73</ele>
  <time>2026-09-01T19:53:18Z</time>
  <course>292.53</course>
  <speed>25.36943436499915</speed>
  <fix>3d</fix>
</trkpt>
<trkpt lat="-27.2749483" lon="151.2896525">
  <ele>405.73</ele>
  <time>2026-09-01T19:53:18Z</time>
  <course>294.15</course>
  <speed>25.349013787522384</speed>
  <fix>3d</fix>
</trkpt>
<trkpt lat="-27.2749668" lon="151.2896943">
  <ele>406.0</ele>
  <time>2026-09-01T19:53:18Z</time>
  <course>291.41</course>
  <speed>25.54</speed>
  <fix>3d</fix>
</trkpt>
<trkpt lat="-27.2749446" lon="151.2896441">
  <ele>405.72</ele>
  <time>2026-09-01T19:53:18Z</time>
  <course>294.98</course>
  <speed>25.326217641013827</speed>
  <fix>3d</fix>
</trkpt>
<trkpt lat="-27.2749381" lon="151.2896297">
  <ele>405.72</ele>
  <time>2026-09-01T19:53:18Z</time>
  <course>296.41</course>
  <speed>25.311534919873985</speed>
  <fix>3d</fix>
</trkpt>
<trkpt lat="-27.2749668" lon="151.2896943">
  <ele>406.0</ele>
  <time>2026-09-01T19:53:18Z</time>
  <course>291.41</course>
  <speed>25.54</speed>
  <fix>3d</fix>
</trkpt>
<trkpt lat="-27.2749377" lon="151.2896289">
  <ele>405.72</ele>
  <time>2026-09-01T19:53:18Z</time>
  <course>296.48</course>
  <speed>25.308221984169492</speed>
  <fix>3d</fix>
</trkpt>
<trkpt lat="-27.2749272" lon="151.2896074">
  <ele>405.71</ele>
  <time>2026-09-01T19:53:18Z</time>
  <course>298.65</course>
  <speed>25.277596800328944</speed>
  <fix>3d</fix>
</trkpt>
<trkpt lat="-27.2749483" lon="151.2896472">
  <ele>405.96</ele>
  <time>2026-09-01T19:53:18Z</time>
  <course>296.13</course>
  <speed>25.48</speed>
  <fix>3d</fix>
</trkpt>
<trkpt lat="-27.2749268" lon="151.2896066">
  <ele>405.71</ele>
  <time>2026-09-01T19:53:18Z</time>
  <course>298.72</course>
  <speed>25.275699792488435</speed>
  <fix>3d</fix>
</trkpt>
<trkpt lat="-27.2749155" lon="151.2895856">
  <ele>405.69</ele>
  <time>2026-09-01T19:53:18Z</time>
  <course>300.91</course>
  <speed>25.24143419063188</speed>
  <fix>3d</fix>
</trkpt>
<trkpt lat="-27.2749483" lon="151.2896472">
  <ele>405.96</ele>
  <time>2026-09-01T19:53:18Z</time>
  <course>296.13</course>
  <speed>25.48</speed>
  <fix>3d</fix>
</trkpt>
<trkpt lat="-27.2749122" lon="151.2895799">
  <ele>405.69</ele>
  <time>2026-09-01T19:53:18Z</time>
  <course>301.51</course>
  <speed>25.236261609041858</speed>
  <fix>3d</fix>
</trkpt>
<trkpt lat="-27.2749031" lon="151.2895644">
  <ele>405.67</ele>
  <time>2026-09-01T19:53:18Z</time>
  <course>303.16</course>
  <speed>25.207824182185973</speed>
  <fix>3d</fix>
</trkpt>
<trkpt lat="-27.2749266" lon="151.289602">
  <ele>405.91</ele>
  <time>2026-09-01T19:53:18Z</time>
  <course>300.75</course>
  <speed>25.43</speed>
  <fix>3d</fix>
</trkpt>
<trkpt lat="-27.2748991" lon="151.289558">
  <ele>405.66</ele>
  <time>2026-09-01T19:53:18Z</time>
  <course>303.84</course>
  <speed>25.2004206314101</speed>
  <fix>3d</fix>
</trkpt>
<trkpt lat="-27.2748904" lon="151.2895445">
  <ele>405.64</ele>
  <time>2026-09-01T19:53:18Z</time>
  <course>305.34</course>
  <speed>25.182615034979985</speed>
  <fix>3d</fix>
</trkpt>
<trkpt lat="-27.2749266" lon="151.289602">
  <ele>405.91</ele>
  <time>2026-09-01T19:53:18Z</time>
  <course>300.75</course>
  <speed>25.43</speed>
  <fix>3d</fix>
</trkpt>
<trkpt lat="-27.2748898" lon="151.2895436">
  <ele>405.64</ele>
  <time>2026-09-01T19:53:18Z</time>
  <course>305.43</course>
  <speed>25.176943817707503</speed>
  <fix>3d</fix>
</trkpt>
<trkpt lat="-27.2748764" lon="151.2895243">
  <ele>405.6</ele>
  <time>2026-09-01T19:53:18Z</time>
  <course>307.61</course>
  <speed>25.153133005651604</speed>
  <fix>3d</fix>
</trkpt>
<trkpt lat="-27.2749017" lon="151.2895589">
  <ele>405.85</ele>
  <time>2026-09-01T19:53:18Z</time>
  <course>305.28</course>
  <speed>25.38</speed>
  <fix>3d</fix>
</trkpt>
<trkpt lat="-27.2748721" lon="151.2895184">
  <ele>405.59</ele>
  <time>2026-09-01T19:53:18Z</time>
  <course>308.26</course>
  <speed>25.14066228244594</speed>
  <fix>3d</fix>
</trkpt>
<trkpt lat="-27.2748618" lon="151.2895049">
  <ele>405.56</ele>
  <time>2026-09-01T19:53:18Z</time>
  <course>309.85</course>
  <speed>25.127184482150007</speed>
  <fix>3d</fix>
</trkpt>
<trkpt lat="-27.2749017" lon="151.2895589">
  <ele>405.85</ele>
  <time>2026-09-01T19:53:18Z</time>
  <course>305.28</course>
  <speed>25.38</speed>
  <fix>3d</fix>
</trkpt>
<trkpt lat="-27.2748573" lon="151.2894992">
  <ele>405.55</ele>
  <time>2026-09-01T19:53:18Z</time>
  <course>310.53</course>
  <speed>25.11976313582594</speed>
  <fix>3d</fix>
</trkpt>
<trkpt lat="-27.274846" lon="151.2894854">
  <ele>405.51</ele>
  <time>2026-09-01T19:53:18Z</time>
  <course>312.15</course>
  <speed>25.112158409822122</speed>
  <fix>3d</fix>
</trkpt>
<trkpt lat="-27.2748739" lon="151.2895183">
  <ele>405.76</ele>
  <time>2026-09-01T19:53:18Z</time>
  <course>309.8</course>
  <speed>25.33</speed>
  <fix>3d</fix>
</trkpt>
<trkpt lat="-27.2748413" lon="151.2894799">
  <ele>405.5</ele>
  <time>2026-09-01T19:53:18Z</time>
  <course>312.81</course>
  <speed>25.102434144919094</speed>
  <fix>3d</fix>
</trkpt>
<trkpt lat="-27.27483" lon="151.2894674">
  <ele>405.46</ele>
  <time>2026-09-01T19:53:18Z</time>
  <course>314.39</course>
  <speed>25.09551752803675</speed>
  <fix>3d</fix>
</trkpt>
<trkpt lat="-27.2748739" lon="151.2895183">
  <ele>405.76</ele>
  <time>2026-09-01T19:53:18Z</time>
  <course>309.8</course>
  <speed>25.33</speed>
  <fix>3d</fix>
</trkpt>
<trkpt lat="-27.2748252" lon="151.2894622">
  <ele>405.44</ele>
  <time>2026-09-01T19:53:18Z</time>
  <course>315.04</course>
  <speed>25.089830609232894</speed>
  <fix>3d</fix>
</trkpt>
<trkpt lat="-27.2748136" lon="151.2894502">
  <ele>405.4</ele>
  <time>2026-09-01T19:53:18Z</time>
  <course>316.6</course>
  <speed>25.081642689425266</speed>
  <fix>3d</fix>
</trkpt>
<trkpt lat="-27.2748434" lon="151.2894803">
  <ele>405.65</ele>
  <time>2026-09-01T19:53:18Z</time>
  <course>314.35</course>
  <speed>25.29</speed>
  <fix>3d</fix>
</trkpt>
<trkpt lat="-27.2748085" lon="151.2894451">
  <ele>405.38</ele>
  <time>2026-09-01T19:53:18Z</time>
  <course>317.28</course>
  <speed>25.073942649691134</speed>
  <fix>3d</fix>
</trkpt>
<trkpt lat="-27.2747964" lon="151.2894336">
  <ele>405.34</ele>
  <time>2026-09-01T19:53:18Z</time>
  <course>318.86</course>
  <speed>25.057328269390574</speed>
  <fix>3d</fix>
</trkpt>
<trkpt lat="-27.2748434" lon="151.2894803">
  <ele>405.65</ele>
  <time>2026-09-01T19:53:18Z</time>
  <course>314.35</course>
  <speed>25.29</speed>
  <fix>3d</fix>
</trkpt>
<trkpt lat="-27.2747957" lon="151.289433">
  <ele>405.33</ele>
  <time>2026-09-01T19:53:18Z</time>
  <course>318.95</course>
  <speed>25.061709837918084</speed>
  <fix>3d</fix>
</trkpt>
<trkpt lat="-27.2747788" lon="151.2894179">
  <ele>405.27</ele>
  <time>2026-09-01T19:53:18Z</time>
  <course>321.06</course>
  <speed>25.048003912487715</speed>
  <fix>3d</fix>
</trkpt>
<trkpt lat="-27.2748104" lon="151.2894452">
  <ele>405.52</ele>
  <time>2026-09-01T19:53:18Z</time>
  <course>318.89</course>
  <speed>25.26</speed>
  <fix>3d</fix>
</trkpt>
<trkpt lat="-27.274778" lon="151.2894172">
  <ele>405.27</ele>
  <time>2026-09-01T19:53:18Z</time>
  <course>321.15</course>
  <speed>25.04600966221965</speed>
  <fix>3d</fix>
</trkpt>
<trkpt lat="-27.2747606" lon="151.2894029">
  <ele>405.2</ele>
  <time>2026-09-01T19:53:18Z</time>
  <course>323.33</course>
  <speed>25.034490208510338</speed>
  <fix>3d</fix>
</trkpt>
<trkpt lat="-27.2748104" lon="151.2894452">
  <ele>405.52</ele>
  <time>2026-09-01T19:53:18Z</time>
  <course>318.89</course>
  <speed>25.26</speed>
  <fix>3d</fix>
</trkpt>
<trkpt lat="-27.2747555" lon="151.289399">
  <ele>405.18</ele>
  <time>2026-09-01T19:53:18Z</time>
  <course>323.95</course>
  <speed>25.02585263282752</speed>
  <fix>3d</fix>
</trkpt>
<trkpt lat="-27.2747417" lon="151.2893886">
  <ele>405.12</ele>
  <time>2026-09-01T19:53:18Z</time>
  <course>325.6</course>
  <speed>25.023005415017597</speed>
  <fix>3d</fix>
</trkpt>
<trkpt lat="-27.2747751" lon="151.2894132">
  <ele>405.37</ele>
  <time>2026-09-01T19:53:18Z</time>
  <course>323.37</course>
  <speed>25.23</speed>
  <fix>3d</fix>
</trkpt>
<trkpt lat="-27.274736" lon="151.2893846">
  <ele>405.09</ele>
  <time>2026-09-01T19:53:18Z</time>
  <course>326.29</course>
  <speed>25.01196713575324</speed>
  <fix>3d</fix>
</trkpt>
<trkpt lat="-27.2747225" lon="151.2893754">
  <ele>405.04</ele>
  <time>2026-09-01T19:53:18Z</time>
  <course>327.9</course>
  <speed>25.012207019773363</speed>
  <fix>3d</fix>
</trkpt>
<trkpt lat="-27.2747751" lon="151.2894132">
  <ele>405.37</ele>
  <time>2026-09-01T19:53:18Z</time>
  <course>323.37</course>
  <speed>25.23</speed>
  <fix>3d</fix>
</trkpt>
<trkpt lat="-27.2747219" lon="151.2893749">
  <ele>405.03</ele>
  <time>2026-09-01T19:53:18Z</time>
  <course>327.98</course>
  <speed>25.005809325034853</speed>
  <fix>3d</fix>
</trkpt>
<trkpt lat="-27.2747027" lon="151.2893628">
  <ele>404.95</ele>
  <time>2026-09-01T19:53:18Z</time>
  <course>330.11</course>
  <speed>25.010161934701664</speed>
  <fix>3d</fix>
</trkpt>
<trkpt lat="-27.2747377" lon="151.2893844">
  <ele>405.21</ele>
  <time>2026-09-01T19:53:18Z</time>
  <course>327.86</course>
  <speed>25.2</speed>
  <fix>3d</fix>
</trkpt>
<trkpt lat="-27.2747021" lon="151.2893624">
  <ele>404.94</ele>
  <time>2026-09-01T19:53:18Z</time>
  <course>330.18</course>
  <speed>25.01384616567392</speed>
  <fix>3d</fix>
</trkpt>
<trkpt lat="-27.2746826" lon="151.2893513">
  <ele>404.85</ele>
  <time>2026-09-01T19:53:18Z</time>
  <course>332.31</course>
  <speed>25.016188758481977</speed>
  <fix>3d</fix>
</trkpt>
<trkpt lat="-27.2747377" lon="151.2893844">
  <ele>405.21</ele>
  <time>2026-09-01T19:53:18Z</time>
  <course>327.86</course>
  <speed>25.2</speed>
  <fix>3d</fix>
</trkpt>
<trkpt lat="-27.2746619" lon="151.2893405">
  <ele>404.76</ele>
  <time>2026-09-01T19:53:18Z</time>
  <course>334.65</course>
  <speed>25.030982801320448</speed>
  <fix>3d</fix>
</trkpt>
<trkpt lat="-27.2746984" lon="151.2893591">
  <ele>405.03</ele>
  <time>2026-09-01T19:53:18Z</time>
  <course>332.38</course>
  <speed>25.19</speed>
  <fix>3d</fix>
</trkpt>
<trkpt lat="-27.2746408" lon="151.2893308">
  <ele>404.66</ele>
  <time>2026-09-01T19:53:18Z</time>
  <course>336.96</course>
  <speed>25.038090981542506</speed>
  <fix>3d</fix>
</trkpt>
<trkpt lat="-27.2746984" lon="151.2893591">
  <ele>405.03</ele>
  <time>2026-09-01T19:53:18Z</time>
  <course>332.38</course>
  <speed>25.19</speed>
  <fix>3d</fix>
</trkpt>
<trkpt lat="-27.2746194" lon="151.289322">
  <ele>404.57</ele>
  <time>2026-09-01T19:53:18Z</time>
  <course>339.28</course>
  <speed>25.058092505216756</speed>
  <fix>3d</fix>
</trkpt>
<trkpt lat="-27.2746575" lon="151.2893373">
  <ele>404.84</ele>
  <time>2026-09-01T19:53:18Z</time>
  <course>336.96</course>
  <speed>25.19</speed>
  <fix>3d</fix>
</trkpt>
<trkpt lat="-27.2745977" lon="151.2893141">
  <ele>404.47</ele>
  <time>2026-09-01T19:53:18Z</time>
  <course>341.58</course>
  <speed>25.07161941319308</speed>
  <fix>3d</fix>
</trkpt>
<trkpt lat="-27.2746575" lon="151.2893373">
  <ele>404.84</ele>
  <time>2026-09-01T19:53:18Z</time>
  <course>336.96</course>
  <speed>25.19</speed>
  <fix>3d</fix>
</trkpt>
<trkpt lat="-27.2745757" lon="151.2893073">
  <ele>404.37</ele>
  <time>2026-09-01T19:53:18Z</time>
  <course>343.85</course>
  <speed>25.080610040427647</speed>
  <fix>3d</fix>
</trkpt>
<trkpt lat="-27.2746152" lon="151.2893193">
  <ele>404.65</ele>
  <time>2026-09-01T19:53:18Z</time>
  <course>341.58</course>
  <speed>25.19</speed>
  <fix>3d</fix>
</trkpt>
<trkpt lat="-27.2745535" lon="151.2893015">
  <ele>404.28</ele>
  <time>2026-09-01T19:53:18Z</time>
  <course>346.13</course>
  <speed>25.097794723839783</speed>
  <fix>3d</fix>
</trkpt>
<trkpt lat="-27.2746152" lon="151.2893193">
  <ele>404.65</ele>
  <time>2026-09-01T19:53:18Z</time>
  <course>341.58</course>
  <speed>25.19</speed>
  <fix>3d</fix>
</trkpt>
<trkpt lat="-27.2745311" lon="151.2892966">
  <ele>404.18</ele>
  <time>2026-09-01T19:53:18Z</time>
  <course>348.39</course>
  <speed>25.111945364706415</speed>
  <fix>3d</fix>
</trkpt>
<trkpt lat="-27.2745717" lon="151.2893052">
  <ele>404.45</ele>
  <time>2026-09-01T19:53:18Z</time>
  <course>346.18</course>
  <speed>25.2</speed>
  <fix>3d</fix>
</trkpt>
<trkpt lat="-27.2745086" lon="151.2892928">
  <ele>404.08</ele>
  <time>2026-09-01T19:53:18Z</time>
  <course>350.67</course>
  <speed>25.128219196751687</speed>
  <fix>3d</fix>
</trkpt>
<trkpt lat="-27.2745717" lon="151.2893052">
  <ele>404.45</ele>
  <time>2026-09-01T19:53:18Z</time>
  <course>346.18</course>
  <speed>25.2</speed>
  <fix>3d</fix>
</trkpt>
<trkpt lat="-27.2744861" lon="151.28929">
  <ele>403.99</ele>
  <time>2026-09-01T19:53:18Z</time>
  <course>352.87</course>
  <speed>25.142953287153837</speed>
  <fix>3d</fix>
</trkpt>
<trkpt lat="-27.2745274" lon="151.2892949">
  <ele>404.26</ele>
  <time>2026-09-01T19:53:18Z</time>
  <course>350.74</course>
  <speed>25.21</speed>
  <fix>3d</fix>
</trkpt>
<trkpt lat="-27.2744635" lon="151.2892882">
  <ele>403.9</ele>
  <time>2026-09-01T19:53:18Z</time>
  <course>355.0</course>
  <speed>25.148646086817475</speed>
  <fix>3d</fix>
</trkpt>
<trkpt lat="-27.2745274" lon="151.2892949">
  <ele>404.26</ele>
  <time>2026-09-01T19:53:18Z</time>
  <course>350.74</course>
  <speed>25.21</speed>
  <fix>3d</fix>
</trkpt>
<trkpt lat="-27.2744409" lon="151.2892874">
  <ele>403.8</ele>
  <time>2026-09-01T19:53:18Z</time>
  <course>357.11</course>
  <speed>25.151343900475776</speed>
  <fix>3d</fix>
</trkpt>
<trkpt lat="-27.2744825" lon="151.2892888">
  <ele>404.07</ele>
  <time>2026-09-01T19:53:18Z</time>
  <course>355.25</course>
  <speed>25.22</speed>
  <fix>3d</fix>
</trkpt>
<trkpt lat="-27.2744183" lon="151.2892875">
  <ele>403.71</ele>
  <time>2026-09-01T19:53:18Z</time>
  <course>359.12</course>
  <speed>25.148401539660526</speed>
  <fix>3d</fix>
</trkpt>
<trkpt lat="-27.2744825" lon="151.2892888">
  <ele>404.07</ele>
  <time>2026-09-01T19:53:18Z</time>
  <course>355.25</course>
  <speed>25.22</speed>
  <fix>3d</fix>
</trkpt>
<trkpt lat="-27.2743957" lon="151.2892885">
  <ele>403.6</ele>
  <time>2026-09-01T19:53:18Z</time>
  <course>0.98</course>
  <speed>25.145981786361016</speed>
  <fix>3d</fix>
</trkpt>
<trkpt lat="-27.2744371" lon="151.2892865">
  <ele>403.88</ele>
  <time>2026-09-01T19:53:18Z</time>
  <course>359.61</course>
  <speed>25.22</speed>
  <fix>3d</fix>
</trkpt>
<trkpt lat="-27.2743732" lon="151.2892904">
  <ele>403.49</ele>
  <time>2026-09-01T19:53:18Z</time>
  <course>2.88</course>
  <speed>25.140075576656486</speed>
  <fix>3d</fix>
</trkpt>
<trkpt lat="-27.2744371" lon="151.2892865">
  <ele>403.88</ele>
  <time>2026-09-01T19:53:18Z</time>
  <course>359.61</course>
  <speed>25.22</speed>
  <fix>3d</fix>
</trkpt>
<trkpt lat="-27.2743508" lon="151.2892931">
  <ele>403.37</ele>
  <time>2026-09-01T19:53:18Z</time>
  <course>4.75</course>
  <speed>25.14191719022239</speed>
  <fix>3d</fix>
</trkpt>
<trkpt lat="-27.2743917" lon="151.289288">
  <ele>403.68</ele>
  <time>2026-09-01T19:53:18Z</time>
  <course>3.68</course>
  <speed>25.23</speed>
  <fix>3d</fix>
</trkpt>
<trkpt lat="-27.2743285" lon="151.2892966">
  <ele>403.24</ele>
  <time>2026-09-01T19:53:18Z</time>
  <course>6.54</course>
  <speed>25.137080180482382</speed>
  <fix>3d</fix>
</trkpt>
<trkpt lat="-27.2743917" lon="151.289288">
  <ele>403.68</ele>
  <time>2026-09-01T19:53:18Z</time>
  <course>3.68</course>
  <speed>25.23</speed>
  <fix>3d</fix>
</trkpt>
<trkpt lat="-27.2743061" lon="151.2893009">
  <ele>403.1</ele>
  <time>2026-09-01T19:53:18Z</time>
  <course>8.3</course>
  <speed>25.142764366711944</speed>
  <fix>3d</fix>
</trkpt>
<trkpt lat="-27.2743467" lon="151.2892929">
  <ele>403.44</ele>
  <time>2026-09-01T19:53:18Z</time>
  <course>7.5</course>
  <speed>25.22</speed>
  <fix>3d</fix>
</trkpt>
<trkpt lat="-27.2742837" lon="151.2893061">
  <ele>402.94</ele>
  <time>2026-09-01T19:53:18Z</time>
  <course>10.06</course>
  <speed>25.15317077427814</speed>
  <fix>3d</fix>
</trkpt>
<trkpt lat="-27.2743467" lon="151.2892929">
  <ele>403.44</ele>
  <time>2026-09-01T19:53:18Z</time>
  <course>7.5</course>
  <speed>25.22</speed>
  <fix>3d</fix>
</trkpt>
<trkpt lat="-27.2742616" lon="151.289312">
  <ele>402.76</ele>
  <time>2026-09-01T19:53:18Z</time>
  <course>11.77</course>
  <speed>25.16366030608425</speed>
  <fix>3d</fix>
</trkpt>
<trkpt lat="-27.274302" lon="151.2893012">
  <ele>403.16</ele>
  <time>2026-09-01T19:53:18Z</time>
  <course>11.14</course>
  <speed>25.22</speed>
  <fix>3d</fix>
</trkpt>
<trkpt lat="-27.2742396" lon="151.2893187">
  <ele>402.57</ele>
  <time>2026-09-01T19:53:18Z</time>
  <course>13.44</course>
  <speed>25.170071513605198</speed>
  <fix>3d</fix>
</trkpt>
<trkpt lat="-27.274302" lon="151.2893012">
  <ele>403.16</ele>
  <time>2026-09-01T19:53:18Z</time>
  <course>11.14</course>
  <speed>25.22</speed>
  <fix>3d</fix>
</trkpt>
<trkpt lat="-27.2742178" lon="151.2893262">
  <ele>402.36</ele>
  <time>2026-09-01T19:53:18Z</time>
  <course>15.15</course>
  <speed>25.182519730956233</speed>
  <fix>3d</fix>
</trkpt>
<trkpt lat="-27.2742578" lon="151.2893126">
  <ele>402.84</ele>
  <time>2026-09-01T19:53:18Z</time>
  <course>14.64</course>
  <speed>25.22</speed>
  <fix>3d</fix>
</trkpt>
<trkpt lat="-27.2741962" lon="151.2893343">
  <ele>402.14</ele>
  <time>2026-09-01T19:53:18Z</time>
  <course>16.9</course>
  <speed>25.19900990118461</speed>
  <fix>3d</fix>
</trkpt>
<trkpt lat="-27.2742578" lon="151.2893126">
  <ele>402.84</ele>
  <time>2026-09-01T19:53:18Z</time>
  <course>14.64</course>
  <speed>25.22</speed>
  <fix>3d</fix>
</trkpt>
<trkpt lat="-27.2741748" lon="151.2893433">
  <ele>401.9</ele>
  <time>2026-09-01T19:53:18Z</time>
  <course>18.69</course>
  <speed>25.216443048138252</speed>
  <fix>3d</fix>
</trkpt>
<trkpt lat="-27.2742143" lon="151.289327">
  <ele>402.44</ele>
  <time>2026-09-01T19:53:18Z</time>
  <course>18.08</course>
  <speed>25.22</speed>
  <fix>3d</fix>
</trkpt>
<trkpt lat="-27.2741537" lon="151.2893529">
  <ele>401.64</ele>
  <time>2026-09-01T19:53:18Z</time>
  <course>20.45</course>
  <speed>25.23319440736745</speed>
  <fix>3d</fix>
</trkpt>
<trkpt lat="-27.2742143" lon="151.289327">
  <ele>402.44</ele>
  <time>2026-09-01T19:53:18Z</time>
  <course>18.08</course>
  <speed>25.22</speed>
  <fix>3d</fix>
</trkpt>
<trkpt lat="-27.2741329" lon="151.2893633">
  <ele>401.37</ele>
  <time>2026-09-01T19:53:18Z</time>
  <course>22.18</course>
  <speed>25.260855092415223</speed>
  <fix>3d</fix>
</trkpt>
<trkpt lat="-27.2741717" lon="151.2893442">
  <ele>401.99</ele>
  <time>2026-09-01T19:53:18Z</time>
  <course>21.55</course>
  <speed>25.24</speed>
  <fix>3d</fix>
</trkpt>
<trkpt lat="-27.2741123" lon="151.2893744">
  <ele>401.09</ele>
  <time>2026-09-01T19:53:18Z</time>
  <course>23.99</course>
  <speed>25.285482000547272</speed>
  <fix>3d</fix>
</trkpt>
<trkpt lat="-27.2741717" lon="151.2893442">
  <ele>401.99</ele>
  <time>2026-09-01T19:53:18Z</time>
  <course>21.55</course>
  <speed>25.24</speed>
  <fix>3d</fix>
</trkpt>
<trkpt lat="-27.274092" lon="151.2893863">
  <ele>400.8</ele>
  <time>2026-09-01T19:53:18Z</time>
  <course>25.88</course>
  <speed>25.312988760713342</speed>
  <fix>3d</fix>
</trkpt>
<trkpt lat="-27.2741301" lon="151.2893644">
  <ele>401.49</ele>
  <time>2026-09-01T19:53:18Z</time>
  <course>25.06</course>
  <speed>25.26</speed>
  <fix>3d</fix>
</trkpt>
<trkpt lat="-27.2740721" lon="151.2893989">
  <ele>400.5</ele>
  <time>2026-09-01T19:53:18Z</time>
  <course>27.74</course>
  <speed>25.35410223218326</speed>
  <fix>3d</fix>
</trkpt>
<trkpt lat="-27.2741301" lon="151.2893644">
  <ele>401.49</ele>
  <time>2026-09-01T19:53:18Z</time>
  <course>25.06</course>
  <speed>25.26</speed>
  <fix>3d</fix>
</trkpt>
<trkpt lat="-27.2740525" lon="151.2894123">
  <ele>400.19</ele>
  <time>2026-09-01T19:53:18Z</time>
  <course>29.63</course>
  <speed>25.386045379302388</speed>
  <fix>3d</fix>
</trkpt>
<trkpt lat="-27.2740896" lon="151.2893875">
  <ele>400.93</ele>
  <time>2026-09-01T19:53:18Z</time>
  <course>28.67</course>
  <speed>25.3</speed>
  <fix>3d</fix>
</trkpt>
<trkpt lat="-27.2740334" lon="151.2894263">
  <ele>399.87</ele>
  <time>2026-09-01T19:53:18Z</time>
  <course>31.59</course>
  <speed>25.42538298629934</speed>
  <fix>3d</fix>
</trkpt>
<trkpt lat="-27.2740896" lon="151.2893875">
  <ele>400.93</ele>
  <time>2026-09-01T19:53:18Z</time>
  <course>28.67</course>
  <speed>25.3</speed>
  <fix>3d</fix>
</trkpt>
<trkpt lat="-27.2740147" lon="151.289441">
  <ele>399.55</ele>
  <time>2026-09-01T19:53:18Z</time>
  <course>33.56</course>
  <speed>25.454602727208293</speed>
  <fix>3d</fix>
</trkpt>
<trkpt lat="-27.2740504" lon="151.2894135">
  <ele>400.34</ele>
  <time>2026-09-01T19:53:18Z</time>
  <course>32.39</course>
  <speed>25.35</speed>
  <fix>3d</fix>
</trkpt>
<trkpt lat="-27.2739965" lon="151.2894565">
  <ele>399.22</ele>
  <time>2026-09-01T19:53:18Z</time>
  <course>35.52</course>
  <speed>25.48914278668469</speed>
  <fix>3d</fix>
</trkpt>
<trkpt lat="-27.2740504" lon="151.2894135">
  <ele>400.34</ele>
  <time>2026-09-01T19:53:18Z</time>
  <course>32.39</course>
  <speed>25.35</speed>
  <fix>3d</fix>
</trkpt>
<trkpt lat="-27.2739788" lon="151.2894726">
  <ele>398.89</ele>
  <time>2026-09-01T19:53:18Z</time>
  <course>37.53</course>
  <speed>25.51665534508784</speed>
  <fix>3d</fix>
</trkpt>
<trkpt lat="-27.2740128" lon="151.2894424">
  <ele>399.71</ele>
  <time>2026-09-01T19:53:18Z</time>
  <course>36.22</course>
  <speed>25.41</speed>
  <fix>3d</fix>
</trkpt>
<trkpt lat="-27.2739616" lon="151.2894894">
  <ele>398.56</ele>
  <time>2026-09-01T19:53:18Z</time>
  <course>39.6</course>
  <speed>25.54629131596209</speed>
  <fix>3d</fix>
</trkpt>
<trkpt lat="-27.2740128" lon="151.2894424">
  <ele>399.71</ele>
  <time>2026-09-01T19:53:18Z</time>
  <course>36.22</course>
  <speed>25.41</speed>
  <fix>3d</fix>
</trkpt>
<trkpt lat="-27.2739449" lon="151.2895069">
  <ele>398.22</ele>
  <time>2026-09-01T19:53:18Z</time>
  <course>41.63</course>
  <speed>25.579454646258586</speed>
  <fix>3d</fix>
</trkpt>
<trkpt lat="-27.2739768" lon="151.2894743">
  <ele>399.05</ele>
  <time>2026-09-01T19:53:18Z</time>
  <course>40.19</course>
  <speed>25.48</speed>
  <fix>3d</fix>
</trkpt>
<trkpt lat="-27.2739288" lon="151.2895251">
  <ele>397.88</ele>
  <time>2026-09-01T19:53:18Z</time>
  <course>43.67</course>
  <speed>25.602050699113928</speed>
  <fix>3d</fix>
</trkpt>
<trkpt lat="-27.2739768" lon="151.2894743">
  <ele>399.05</ele>
  <time>2026-09-01T19:53:18Z</time>
  <course>40.19</course>
  <speed>25.48</speed>
  <fix>3d</fix>
</trkpt>
<trkpt lat="-27.2739132" lon="151.2895439">
  <ele>397.53</ele>
  <time>2026-09-01T19:53:18Z</time>
  <course>45.77</course>
  <speed>25.62885288107917</speed>
  <fix>3d</fix>
</trkpt>
<trkpt lat="-27.2739428" lon="151.289509">
  <ele>398.37</ele>
  <time>2026-09-01T19:53:18Z</time>
  <course>44.22</course>
  <speed>25.55</speed>
  <fix>3d</fix>
</trkpt>
<trkpt lat="-27.2738982" lon="151.2895634">
  <ele>397.18</ele>
  <time>2026-09-01T19:53:18Z</time>
  <course>47.84</course>
  <speed>25.6534695509204</speed>
  <fix>3d</fix>
</trkpt>
<trkpt lat="-27.2739428" lon="151.289509">
  <ele>398.37</ele>
  <time>2026-09-01T19:53:18Z</time>
  <course>44.22</course>
  <speed>25.55</speed>
  <fix>3d</fix>
</trkpt>
<trkpt lat="-27.2738839" lon="151.2895834">
  <ele>396.83</ele>
  <time>2026-09-01T19:53:18Z</time>
  <course>49.88</course>
  <speed>25.69699009611826</speed>
  <fix>3d</fix>
</trkpt>
<trkpt lat="-27.273911" lon="151.2895464">
  <ele>397.68</ele>
  <time>2026-09-01T19:53:18Z</time>
  <course>48.3</course>
  <speed>25.61</speed>
  <fix>3d</fix>
</trkpt>
<trkpt lat="-27.2738701" lon="151.2896042">
  <ele>396.47</ele>
  <time>2026-09-01T19:53:18Z</time>
  <course>51.97</course>
  <speed>25.727965329578627</speed>
  <fix>3d</fix>
</trkpt>
<trkpt lat="-27.273911" lon="151.2895464">
  <ele>397.68</ele>
  <time>2026-09-01T19:53:18Z</time>
  <course>48.3</course>
  <speed>25.61</speed>
  <fix>3d</fix>
</trkpt>
<trkpt lat="-27.2738569" lon="151.2896257">
  <ele>396.11</ele>
  <time>2026-09-01T19:53:18Z</time>
  <course>54.03</course>
  <speed>25.77145707949009</speed>
  <fix>3d</fix>
</trkpt>
<trkpt lat="-27.2738816" lon="151.2895863">
  <ele>396.98</ele>
  <time>2026-09-01T19:53:18Z</time>
  <course>52.44</course>
  <speed>25.68</speed>
  <fix>3d</fix>
</trkpt>
<trkpt lat="-27.2738444" lon="151.2896477">
  <ele>395.74</ele>
  <time>2026-09-01T19:53:18Z</time>
  <course>56.12</course>
  <speed>25.804670119960843</speed>
  <fix>3d</fix>
</trkpt>
<trkpt lat="-27.2738816" lon="151.2895863">
  <ele>396.98</ele>
  <time>2026-09-01T19:53:18Z</time>
  <course>52.44</course>
  <speed>25.68</speed>
  <fix>3d</fix>
</trkpt>
<trkpt lat="-27.2738324" lon="151.2896707">
  <ele>395.37</ele>
  <time>2026-09-01T19:53:18Z</time>
  <course>58.25</course>
  <speed>25.83458921678454</speed>
  <fix>3d</fix>
</trkpt>
<trkpt lat="-27.2738548" lon="151.2896286">
  <ele>396.27</ele>
  <time>2026-09-01T19:53:18Z</time>
  <course>56.61</course>
  <speed>25.74</speed>
  <fix>3d</fix>
</trkpt>
<trkpt lat="-27.2738214" lon="151.2896937">
  <ele>395.0</ele>
  <time>2026-09-01T19:53:18Z</time>
  <course>60.33</course>
  <speed>25.86862191922871</speed>
  <fix>3d</fix>
</trkpt>
<trkpt lat="-27.2738548" lon="151.2896286">
  <ele>396.27</ele>
  <time>2026-09-01T19:53:18Z</time>
  <course>56.61</course>
  <speed>25.74</speed>
  <fix>3d</fix>
</trkpt>
<trkpt lat="-27.2738111" lon="151.2897171">
  <ele>394.63</ele>
  <time>2026-09-01T19:53:18Z</time>
  <course>62.38</course>
  <speed>25.88793155120741</speed>
  <fix>3d</fix>
</trkpt>
<trkpt lat="-27.2738308" lon="151.2896731">
  <ele>395.55</ele>
  <time>2026-09-01T19:53:18Z</time>
  <course>60.78</course>
  <speed>25.79</speed>
  <fix>3d</fix>
</trkpt>
<trkpt lat="-27.2738015" lon="151.289741">
  <ele>394.27</ele>
  <time>2026-09-01T19:53:18Z</time>
  <course>64.44</course>
  <speed>25.900218145799467</speed>
  <fix>3d</fix>
</trkpt>
<trkpt lat="-27.2738308" lon="151.2896731">
  <ele>395.55</ele>
  <time>2026-09-01T19:53:18Z</time>
  <course>60.78</course>
  <speed>25.79</speed>
  <fix>3d</fix>
</trkpt>
<trkpt lat="-27.2737928" lon="151.2897651">
  <ele>393.9</ele>
  <time>2026-09-01T19:53:18Z</time>
  <course>66.53</course>
  <speed>25.91398850042193</speed>
  <fix>3d</fix>
</trkpt>
<trkpt lat="-27.2738097" lon="151.2897195">
  <ele>394.82</ele>
  <time>2026-09-01T19:53:18Z</time>
  <course>64.94</course>
  <speed>25.83</speed>
  <fix>3d</fix>
</trkpt>
<trkpt lat="-27.2737848" lon="151.2897896">
  <ele>393.54</ele>
  <time>2026-09-01T19:53:18Z</time>
  <course>68.58</course>
  <speed>25.925713104946603</speed>
  <fix>3d</fix>
</trkpt>
<trkpt lat="-27.2738097" lon="151.2897195">
  <ele>394.82</ele>
  <time>2026-09-01T19:53:18Z</time>
  <course>64.94</course>
  <speed>25.83</speed>
  <fix>3d</fix>
</trkpt>
<trkpt lat="-27.2737776" lon="151.2898144">
  <ele>393.17</ele>
  <time>2026-09-01T19:53:18Z</time>
  <course>70.67</course>
  <speed>25.929614343449074</speed>
  <fix>3d</fix>
</trkpt>
<trkpt lat="-27.2737916" lon="151.2897676">
  <ele>394.09</ele>
  <time>2026-09-01T19:53:18Z</time>
  <course>69.05</course>
  <speed>25.86</speed>
  <fix>3d</fix>
</trkpt>
<trkpt lat="-27.2737712" lon="151.2898395">
  <ele>392.8</ele>
  <time>2026-09-01T19:53:18Z</time>
  <course>72.84</course>
  <speed>25.939554737890163</speed>
  <fix>3d</fix>
</trkpt>
<trkpt lat="-27.2737916" lon="151.2897676">
  <ele>394.09</ele>
  <time>2026-09-01T19:53:18Z</time>
  <course>69.05</course>
  <speed>25.86</speed>
  <fix>3d</fix>
</trkpt>
<trkpt lat="-27.2737656" lon="151.2898647">
  <ele>392.44</ele>
  <time>2026-09-01T19:53:18Z</time>
  <course>75.0</course>
  <speed>25.938550460656046</speed>
  <fix>3d</fix>
</trkpt>
<trkpt lat="-27.2737765" lon="151.289817">
  <ele>393.36</ele>
  <time>2026-09-01T19:53:18Z</time>
  <course>73.17</course>
  <speed>25.89</speed>
  <fix>3d</fix>
</trkpt>
<trkpt lat="-27.2737609" lon="151.2898901">
  <ele>392.09</ele>
  <time>2026-09-01T19:53:18Z</time>
  <course>77.17</course>
  <speed>25.94413999345517</speed>
  <fix>3d</fix>
</trkpt>
<trkpt lat="-27.2737765" lon="151.289817">
  <ele>393.36</ele>
  <time>2026-09-01T19:53:18Z</time>
  <course>73.17</course>
  <speed>25.89</speed>
  <fix>3d</fix>
</trkpt>
<trkpt lat="-27.2737571" lon="151.2899156">
  <ele>391.74</ele>
  <time>2026-09-01T19:53:18Z</time>
  <course>79.39</course>
  <speed>25.941312611354114</speed>
  <fix>3d</fix>
</trkpt>
<trkpt lat="-27.2737647" lon="151.2898676">
  <ele>392.62</ele>
  <time>2026-09-01T19:53:18Z</time>
  <course>77.39</course>
  <speed>25.91</speed>
  <fix>3d</fix>
</trkpt>
<trkpt lat="-27.2737541" lon="151.2899412">
  <ele>391.4</ele>
  <time>2026-09-01T19:53:18Z</time>
  <course>81.65</course>
  <speed>25.934866492812333</speed>
  <fix>3d</fix>
</trkpt>
<trkpt lat="-27.2737647" lon="151.2898676">
  <ele>392.62</ele>
  <time>2026-09-01T19:53:18Z</time>
  <course>77.39</course>
  <speed>25.91</speed>
  <fix>3d</fix>
</trkpt>
<trkpt lat="-27.273752" lon="151.289967">
  <ele>391.06</ele>
  <time>2026-09-01T19:53:18Z</time>
  <course>83.92</course>
  <speed>25.93394108113921</speed>
  <fix>3d</fix>
</trkpt>
<trkpt lat="-27.2737563" lon="151.2899192">
  <ele>391.91</ele>
  <time>2026-09-01T19:53:18Z</time>
  <course>81.72</course>
  <speed>25.93</speed>
  <fix>3d</fix>
</trkpt>
<trkpt lat="-27.2737508" lon="151.2899929">
  <ele>390.74</ele>
  <time>2026-09-01T19:53:18Z</time>
  <course>86.27</course>
  <speed>25.922347501721365</speed>
  <fix>3d</fix>
</trkpt>
<trkpt lat="-27.2737563" lon="151.2899192">
  <ele>391.91</ele>
  <time>2026-09-01T19:53:18Z</time>
  <course>81.72</course>
  <speed>25.93</speed>
  <fix>3d</fix>
</trkpt>
<trkpt lat="-27.2737505" lon="151.2900188">
  <ele>390.42</ele>
  <time>2026-09-01T19:53:18Z</time>
  <course>88.78</course>
  <speed>25.901304986428773</speed>
  <fix>3d</fix>
</trkpt>
<trkpt lat="-27.2737513" lon="151.2899714">
  <ele>391.22</ele>
  <time>2026-09-01T19:53:18Z</time>
  <course>86.15</course>
  <speed>25.94</speed>
  <fix>3d</fix>
</trkpt>
<trkpt lat="-27.2737512" lon="151.2900446">
  <ele>390.12</ele>
  <time>2026-09-01T19:53:18Z</time>
  <course>91.17</course>
  <speed>25.88575090662815</speed>
  <fix>3d</fix>
</trkpt>
<trkpt lat="-27.2737513" lon="151.2899714">
  <ele>391.22</ele>
  <time>2026-09-01T19:53:18Z</time>
  <course>86.15</course>
  <speed>25.94</speed>
  <fix>3d</fix>
</trkpt>
<trkpt lat="-27.2737527" lon="151.2900703">
  <ele>389.85</ele>
  <time>2026-09-01T19:53:18Z</time>
  <course>93.54</course>
  <speed>25.867239899146565</speed>
  <fix>3d</fix>
</trkpt>
<trkpt lat="-27.2737501" lon="151.2900239">
  <ele>390.56</ele>
  <time>2026-09-01T19:53:18Z</time>
  <course>90.81</course>
  <speed>25.94</speed>
  <fix>3d</fix>
</trkpt>
<trkpt lat="-27.2737553" lon="151.290096">
  <ele>389.59</ele>
  <time>2026-09-01T19:53:18Z</time>
  <course>95.97</course>
  <speed>25.850495159667638</speed>
  <fix>3d</fix>
</trkpt>
<trkpt lat="-27.2737501" lon="151.2900239">
  <ele>390.56</ele>
  <time>2026-09-01T19:53:18Z</time>
  <course>90.81</course>
  <speed>25.94</speed>
  <fix>3d</fix>
</trkpt>
<trkpt lat="-27.273759" lon="151.2901217">
  <ele>389.35</ele>
  <time>2026-09-01T19:53:18Z</time>
  <course>98.43</course>
  <speed>25.836658065624512</speed>
  <fix>3d</fix>
</trkpt>
<trkpt lat="-27.2737526" lon="151.2900761">
  <ele>389.97</ele>
  <time>2026-09-01T19:53:18Z</time>
  <course>95.7</course>
  <speed>25.93</speed>
  <fix>3d</fix>
</trkpt>
<trkpt lat="-27.2737637" lon="151.2901473">
  <ele>389.13</ele>
  <time>2026-09-01T19:53:18Z</time>
  <course>100.86</course>
  <speed>25.823673247623006</speed>
  <fix>3d</fix>
</trkpt>
<trkpt lat="-27.2737526" lon="151.2900761">
  <ele>389.97</ele>
  <time>2026-09-01T19:53:18Z</time>
  <course>95.7</course>
  <speed>25.93</speed>
  <fix>3d</fix>
</trkpt>
<trkpt lat="-27.2737694" lon="151.2901726">
  <ele>388.94</ele>
  <time>2026-09-01T19:53:18Z</time>
  <course>103.28</course>
  <speed>25.808979057684557</speed>
  <fix>3d</fix>
</trkpt>
<trkpt lat="-27.2737593" lon="151.290128">
  <ele>389.47</ele>
  <time>2026-09-01T19:53:18Z</time>
  <course>100.76</course>
  <speed>25.91</speed>
  <fix>3d</fix>
</trkpt>
<trkpt lat="-27.2737761" lon="151.2901978">
  <ele>388.77</ele>
  <time>2026-09-01T19:53:18Z</time>
  <course>105.7</course>
  <speed>25.77911169920329</speed>
  <fix>3d</fix>
</trkpt>
<trkpt lat="-27.2737593" lon="151.290128">
  <ele>389.47</ele>
  <time>2026-09-01T19:53:18Z</time>
  <course>100.76</course>
  <speed>25.91</speed>
  <fix>3d</fix>
</trkpt>
<trkpt lat="-27.2737838" lon="151.2902225">
  <ele>388.62</ele>
  <time>2026-09-01T19:53:18Z</time>
  <course>108.05</course>
  <speed>25.753764773329745</speed>
  <fix>3d</fix>
</trkpt>
<trkpt lat="-27.27377" lon="151.2901789">
  <ele>389.06</ele>
  <time>2026-09-01T19:53:18Z</time>
  <course>105.87</course>
  <speed>25.87</speed>
  <fix>3d</fix>
</trkpt>
<trkpt lat="-27.2737923" lon="151.2902468">
  <ele>388.5</ele>
  <time>2026-09-01T19:53:18Z</time>
  <course>110.3</course>
  <speed>25.723020817936604</speed>
  <fix>3d</fix>
</trkpt>
<trkpt lat="-27.27377" lon="151.2901789">
  <ele>389.06</ele>
  <time>2026-09-01T19:53:18Z</time>
  <course>105.87</course>
  <speed>25.87</speed>
  <fix>3d</fix>
</trkpt>
<trkpt lat="-27.2738017" lon="151.2902707">
  <ele>388.4</ele>
  <time>2026-09-01T19:53:18Z</time>
  <course>112.5</course>
  <speed>25.693742428848314</speed>
  <fix>3d</fix>
</trkpt>
<trkpt lat="-27.2737847" lon="151.2902284">
  <ele>388.75</ele>
  <time>2026-09-01T19:53:18Z</time>
  <course>110.83</course>
  <speed>25.82</speed>
  <fix>3d</fix>
</trkpt>
<trkpt lat="-27.273812" lon="151.290294">
  <ele>388.32</ele>
  <time>2026-09-01T19:53:18Z</time>
  <course>114.62</course>
  <speed>25.651598390743608</speed>
  <fix>3d</fix>
</trkpt>
<trkpt lat="-27.2737847" lon="151.2902284">
  <ele>388.75</ele>
  <time>2026-09-01T19:53:18Z</time>
  <course>110.83</course>
  <speed>25.82</speed>
  <fix>3d</fix>
</trkpt>
<trkpt lat="-27.2738229" lon="151.2903169">
  <ele>388.26</ele>
  <time>2026-09-01T19:53:18Z</time>
  <course>116.66</course>
  <speed>25.609468951932605</speed>
  <fix>3d</fix>
</trkpt>
<trkpt lat="-27.2738029" lon="151.2902763">
  <ele>388.53</ele>
  <time>2026-09-01T19:53:18Z</time>
  <course>115.54</course>
  <speed>25.74</speed>
  <fix>3d</fix>
</trkpt>
<trkpt lat="-27.2738346" lon="151.2903393">
  <ele>388.21</ele>
  <time>2026-09-01T19:53:18Z</time>
  <course>118.62</course>
  <speed>25.56423478221087</speed>
  <fix>3d</fix>
</trkpt>
<trkpt lat="-27.2738029" lon="151.2902763">
  <ele>388.53</ele>
  <time>2026-09-01T19:53:18Z</time>
  <course>115.54</course>
  <speed>25.74</speed>
  <fix>3d</fix>
</trkpt>
<trkpt lat="-27.2738471" lon="151.2903614">
  <ele>388.17</ele>
  <time>2026-09-01T19:53:18Z</time>
  <course>120.56</course>
  <speed>25.51621641231317</speed>
  <fix>3d</fix>
</trkpt>
<trkpt lat="-27.2738244" lon="151.2903222">
  <ele>388.39</ele>
  <time>2026-09-01T19:53:18Z</time>
  <course>119.92</course>
  <speed>25.65</speed>
  <fix>3d</fix>
</trkpt>
<trkpt lat="-27.2738601" lon="151.2903827">
  <ele>388.14</ele>
  <time>2026-09-01T19:53:18Z</time>
  <course>122.42</course>
  <speed>25.464070766474084</speed>
  <fix>3d</fix>
</trkpt>
<trkpt lat="-27.2738244" lon="151.2903222">
  <ele>388.39</ele>
  <time>2026-09-01T19:53:18Z</time>
  <course>119.92</course>
  <speed>25.65</speed>
  <fix>3d</fix>
</trkpt>
<trkpt lat="-27.2738737" lon="151.2904035">
  <ele>388.12</ele>
  <time>2026-09-01T19:53:18Z</time>
  <course>124.21</course>
  <speed>25.415249359390515</speed>
  <fix>3d</fix>
</trkpt>
<trkpt lat="-27.2738488" lon="151.2903662">
  <ele>388.31</ele>
  <time>2026-09-01T19:53:18Z</time>
  <course>123.97</course>
  <speed>25.56</speed>
  <fix>3d</fix>
</trkpt>
<trkpt lat="-27.2738878" lon="151.2904238">
  <ele>388.11</ele>
  <time>2026-09-01T19:53:18Z</time>
  <course>125.97</course>
  <speed>25.36683858899252</speed>
  <fix>3d</fix>
</trkpt>
<trkpt lat="-27.2738488" lon="151.2903662">
  <ele>388.31</ele>
  <time>2026-09-01T19:53:18Z</time>
  <course>123.97</course>
  <speed>25.56</speed>
  <fix>3d</fix>
</trkpt>
<trkpt lat="-27.2739025" lon="151.2904435">
  <ele>388.1</ele>
  <time>2026-09-01T19:53:18Z</time>
  <course>127.68</course>
  <speed>25.32263809321612</speed>
  <fix>3d</fix>
</trkpt>
<trkpt lat="-27.2738757" lon="151.2904079">
  <ele>388.26</ele>
  <time>2026-09-01T19:53:18Z</time>
  <course>127.72</course>
  <speed>25.45</speed>
  <fix>3d</fix>
</trkpt>
<trkpt lat="-27.2739176" lon="151.2904627">
  <ele>388.09</ele>
  <time>2026-09-01T19:53:18Z</time>
  <course>129.38</course>
  <speed>25.273347621555796</speed>
  <fix>3d</fix>
</trkpt>
<trkpt lat="-27.2738757" lon="151.2904079">
  <ele>388.26</ele>
  <time>2026-09-01T19:53:18Z</time>
  <course>127.72</course>
  <speed>25.45</speed>
  <fix>3d</fix>
</trkpt>
<trkpt lat="-27.2739332" lon="151.2904814">
  <ele>388.08</ele>
  <time>2026-09-01T19:53:18Z</time>
  <course>131.02</course>
  <speed>25.23204708302519</speed>
  <fix>3d</fix>
</trkpt>
<trkpt lat="-27.2739047" lon="151.2904476">
  <ele>388.24</ele>
  <time>2026-09-01T19:53:18Z</time>
  <course>131.22</course>
  <speed>25.34</speed>
  <fix>3d</fix>
</trkpt>
<trkpt lat="-27.2739492" lon="151.2904995">
  <ele>388.08</ele>
  <time>2026-09-01T19:53:18Z</time>
  <course>132.64</course>
  <speed>25.189624848337857</speed>
  <fix>3d</fix>
</trkpt>
<trkpt lat="-27.2739047" lon="151.2904476">
  <ele>388.24</ele>
  <time>2026-09-01T19:53:18Z</time>
  <course>131.22</course>
  <speed>25.34</speed>
  <fix>3d</fix>
</trkpt>
<trkpt lat="-27.2739657" lon="151.2905171">
  <ele>388.07</ele>
  <time>2026-09-01T19:53:18Z</time>
  <course>134.23</course>
  <speed>25.144997514416264</speed>
  <fix>3d</fix>
</trkpt>
<trkpt lat="-27.2739357" lon="151.2904851">
  <ele>388.23</ele>
  <time>2026-09-01T19:53:18Z</time>
  <course>134.55</course>
  <speed>25.24</speed>
  <fix>3d</fix>
</trkpt>
<trkpt lat="-27.2739824" lon="151.290534">
  <ele>388.07</ele>
  <time>2026-09-01T19:53:18Z</time>
  <course>135.85</course>
  <speed>25.10411121708952</speed>
  <fix>3d</fix>
</trkpt>
<trkpt lat="-27.2739357" lon="151.2904851">
  <ele>388.23</ele>
  <time>2026-09-01T19:53:18Z</time>
  <course>134.55</course>
  <speed>25.24</speed>
  <fix>3d</fix>
</trkpt>
<trkpt lat="-27.2739996" lon="151.2905505">
  <ele>388.06</ele>
  <time>2026-09-01T19:53:18Z</time>
  <course>137.46</course>
  <speed>25.060953692946324</speed>
  <fix>3d</fix>
</trkpt>
<trkpt lat="-27.2739683" lon="151.2905204">
  <ele>388.22</ele>
  <time>2026-09-01T19:53:18Z</time>
  <course>137.74</course>
  <speed>25.14</speed>
  <fix>3d</fix>
</trkpt>
<trkpt lat="-27.2740172" lon="151.2905663">
  <ele>388.04</ele>
  <time>2026-09-01T19:53:18Z</time>
  <course>139.03</course>
  <speed>25.014605733451006</speed>
  <fix>3d</fix>
</trkpt>
<trkpt lat="-27.2739683" lon="151.2905204">
  <ele>388.22</ele>
  <time>2026-09-01T19:53:18Z</time>
  <course>137.74</course>
  <speed>25.14</speed>
  <fix>3d</fix>
</trkpt>
<trkpt lat="-27.2740351" lon="151.2905817">
  <ele>388.03</ele>
  <time>2026-09-01T19:53:18Z</time>
  <course>140.64</course>
  <speed>24.97072285697793</speed>
  <fix>3d</fix>
</trkpt>
<trkpt lat="-27.2740025" lon="151.2905534">
  <ele>388.21</ele>
  <time>2026-09-01T19:53:18Z</time>
  <course>140.87</course>
  <speed>25.04</speed>
  <fix>3d</fix>
</trkpt>
<trkpt lat="-27.2740535" lon="151.2905965">
  <ele>388.01</ele>
  <time>2026-09-01T19:53:18Z</time>
  <course>142.22</course>
  <speed>24.927679394600695</speed>
  <fix>3d</fix>
</trkpt>
<trkpt lat="-27.2740025" lon="151.2905534">
  <ele>388.21</ele>
  <time>2026-09-01T19:53:18Z</time>
  <course>140.87</course>
  <speed>25.04</speed>
  <fix>3d</fix>
</trkpt>
<trkpt lat="-27.2740721" lon="151.2906106">
  <ele>387.99</ele>
  <time>2026-09-01T19:53:18Z</time>
  <course>143.79</course>
  <speed>24.884444940564777</speed>
  <fix>3d</fix>
</trkpt>
<trkpt lat="-27.2740381" lon="151.2905841">
  <ele>388.18</ele>
  <time>2026-09-01T19:53:18Z</time>
  <course>143.98</course>
  <speed>24.95</speed>
  <fix>3d</fix>
</trkpt>
<trkpt lat="-27.2740909" lon="151.2906241">
  <ele>387.97</ele>
  <time>2026-09-01T19:53:18Z</time>
  <course>145.4</course>
  <speed>24.840299917674102</speed>
  <fix>3d</fix>
</trkpt>
<trkpt lat="-27.2740381" lon="151.2905841">
  <ele>388.18</ele>
  <time>2026-09-01T19:53:18Z</time>
  <course>143.98</course>
  <speed>24.95</speed>
  <fix>3d</fix>
</trkpt>
<trkpt lat="-27.27411" lon="151.290637">
  <ele>387.94</ele>
  <time>2026-09-01T19:53:18Z</time>
  <course>147.03</course>
  <speed>24.792662220907218</speed>
  <fix>3d</fix>
</trkpt>
<trkpt lat="-27.274075" lon="151.2906126">
  <ele>388.15</ele>
  <time>2026-09-01T19:53:18Z</time>
  <course>147.1</course>
  <speed>24.86</speed>
  <fix>3d</fix>
</trkpt>
<trkpt lat="-27.2741293" lon="151.2906492">
  <ele>387.91</ele>
  <time>2026-09-01T19:53:18Z</time>
  <course>148.69</course>
  <speed>24.750282826666847</speed>
  <fix>3d</fix>
</trkpt>
<trkpt lat="-27.274075" lon="151.2906126">
  <ele>388.15</ele>
  <time>2026-09-01T19:53:18Z</time>
  <course>147.1</course>
  <speed>24.86</speed>
  <fix>3d</fix>
</trkpt>
<trkpt lat="-27.274149" lon="151.2906608">
  <ele>387.88</ele>
  <time>2026-09-01T19:53:18Z</time>
  <course>150.38</course>
  <speed>24.704519829375354</speed>
  <fix>3d</fix>
</trkpt>
<trkpt lat="-27.2741131" lon="151.2906387">
  <ele>388.1</ele>
  <time>2026-09-01T19:53:18Z</time>
  <course>150.25</course>
  <speed>24.77</speed>
  <fix>3d</fix>
</trkpt>
<trkpt lat="-27.274169" lon="151.2906718">
  <ele>387.84</ele>
  <time>2026-09-01T19:53:19Z</time>
  <course>152.07</course>
  <speed>24.66589751053061</speed>
  <fix>3d</fix>
</trkpt>
<trkpt lat="-27.2741131" lon="151.2906387">
  <ele>388.1</ele>
  <time>2026-09-01T19:53:19Z</time>
  <course>150.25</course>
  <speed>24.77</speed>
  <fix>3d</fix>
</trkpt>
<trkpt lat="-27.2741892" lon="151.290682">
  <ele>387.8</ele>
  <time>2026-09-01T19:53:19Z</time>
  <course>153.8</course>
  <speed>24.634912218232074</speed>
  <fix>3d</fix>
</trkpt>
<trkpt lat="-27.2741522" lon="151.2906623">
  <ele>388.03</ele>
  <time>2026-09-01T19:53:19Z</time>
  <course>153.48</course>
  <speed>24.69</speed>
  <fix>3d</fix>
</trkpt>
<trkpt lat="-27.2742097" lon="151.2906916">
  <ele>387.76</ele>
  <time>2026-09-01T19:53:19Z</time>
  <course>155.53</course>
  <speed>24.604635742071046</speed>
  <fix>3d</fix>
</trkpt>
<trkpt lat="-27.2741522" lon="151.2906623">
  <ele>388.03</ele>
  <time>2026-09-01T19:53:19Z</time>
  <course>153.48</course>
  <speed>24.69</speed>
  <fix>3d</fix>
</trkpt>
<trkpt lat="-27.2742304" lon="151.2907005">
  <ele>387.72</ele>
  <time>2026-09-01T19:53:19Z</time>
  <course>157.25</course>
  <speed>24.571351204197136</speed>
  <fix>3d</fix>
</trkpt>
<trkpt lat="-27.2741924" lon="151.2906832">
  <ele>387.96</ele>
  <time>2026-09-01T19:53:19Z</time>
  <course>156.83</course>
  <speed>24.61</speed>
  <fix>3d</fix>
</trkpt>
<trkpt lat="-27.2742513" lon="151.2907086">
  <ele>387.67</ele>
  <time>2026-09-01T19:53:19Z</time>
  <course>159.01</course>
  <speed>24.533002262258893</speed>
  <fix>3d</fix>
</trkpt>
<trkpt lat="-27.2741924" lon="151.2906832">
  <ele>387.96</ele>
  <time>2026-09-01T19:53:19Z</time>
  <course>156.83</course>
  <speed>24.61</speed>
  <fix>3d</fix>
</trkpt>
<trkpt lat="-27.2742724" lon="151.290716">
  <ele>387.62</ele>
  <time>2026-09-01T19:53:19Z</time>
  <course>160.8</course>
  <speed>24.49942244217198</speed>
  <fix>3d</fix>
</trkpt>
<trkpt lat="-27.2742335" lon="151.2907014">
  <ele>387.87</ele>
  <time>2026-09-01T19:53:19Z</time>
  <course>160.29</course>
  <speed>24.54</speed>
  <fix>3d</fix>
</trkpt>
<trkpt lat="-27.2742936" lon="151.2907227">
  <ele>387.58</ele>
  <time>2026-09-01T19:53:19Z</time>
  <course>162.62</course>
  <speed>24.471064545703772</speed>
  <fix>3d</fix>
</trkpt>
<trkpt lat="-27.2742335" lon="151.2907014">
  <ele>387.87</ele>
  <time>2026-09-01T19:53:19Z</time>
  <course>160.29</course>
  <speed>24.54</speed>
  <fix>3d</fix>
</trkpt>
<trkpt lat="-27.274315" lon="151.2907285">
  <ele>387.52</ele>
  <time>2026-09-01T19:53:19Z</time>
  <course>164.47</course>
  <speed>24.44304604585934</speed>
  <fix>3d</fix>
</trkpt>
<trkpt lat="-27.2742755" lon="151.2907167">
  <ele>387.78</ele>
  <time>2026-09-01T19:53:19Z</time>
  <course>163.85</course>
  <speed>24.47</speed>
  <fix>3d</fix>
</trkpt>
<trkpt lat="-27.2743365" lon="151.2907336">
  <ele>387.47</ele>
  <time>2026-09-01T19:53:19Z</time>
  <course>166.35</course>
  <speed>24.407050210953393</speed>
  <fix>3d</fix>
</trkpt>
<trkpt lat="-27.2742755" lon="151.2907167">
  <ele>387.78</ele>
  <time>2026-09-01T19:53:19Z</time>
  <course>163.85</course>
  <speed>24.47</speed>
  <fix>3d</fix>
</trkpt>
<trkpt lat="-27.2743584" lon="151.2907379">
  <ele>387.42</ele>
  <time>2026-09-01T19:53:19Z</time>
  <course>168.27</course>
  <speed>24.384257216491136</speed>
  <fix>3d</fix>
</trkpt>
<trkpt lat="-27.2743181" lon="151.2907289">
  <ele>387.68</ele>
  <time>2026-09-01T19:53:19Z</time>
  <course>167.51</course>
  <speed>24.4</speed>
  <fix>3d</fix>
</trkpt>
<trkpt lat="-27.2743801" lon="151.2907413">
  <ele>387.37</ele>
  <time>2026-09-01T19:53:19Z</time>
  <course>170.21</course>
  <speed>24.35794121020904</speed>
  <fix>3d</fix>
</trkpt>
<trkpt lat="-27.2743181" lon="151.2907289">
  <ele>387.68</ele>
  <time>2026-09-01T19:53:19Z</time>
  <course>167.51</course>
  <speed>24.4</speed>
  <fix>3d</fix>
</trkpt>
<trkpt lat="-27.2744016" lon="151.2907439">
  <ele>387.32</ele>
  <time>2026-09-01T19:53:19Z</time>
  <course>172.17</course>
  <speed>24.319712169349373</speed>
  <fix>3d</fix>
</trkpt>
<trkpt lat="-27.2743611" lon="151.2907379">
  <ele>387.58</ele>
  <time>2026-09-01T19:53:19Z</time>
  <course>171.28</course>
  <speed>24.33</speed>
  <fix>3d</fix>
</trkpt>
<trkpt lat="-27.2744233" lon="151.2907457">
  <ele>387.27</ele>
  <time>2026-09-01T19:53:19Z</time>
  <course>174.15</course>
  <speed>24.288668139690163</speed>
  <fix>3d</fix>
</trkpt>
<trkpt lat="-27.2743611" lon="151.2907379">
  <ele>387.58</ele>
  <time>2026-09-01T19:53:19Z</time>
  <course>171.28</course>
  <speed>24.33</speed>
  <fix>3d</fix>
</trkpt>
<trkpt lat="-27.2744451" lon="151.2907466">
  <ele>387.21</ele>
  <time>2026-09-01T19:53:19Z</time>
  <course>176.14</course>
  <speed>24.265572319646616</speed>
  <fix>3d</fix>
</trkpt>
<trkpt lat="-27.2744044" lon="151.2907437">
  <ele>387.47</ele>
  <time>2026-09-01T19:53:19Z</time>
  <course>175.15</course>
  <speed>24.27</speed>
  <fix>3d</fix>
</trkpt>
<trkpt lat="-27.2744669" lon="151.2907466">
  <ele>387.16</ele>
  <time>2026-09-01T19:53:19Z</time>
  <course>178.15</course>
  <speed>24.232112990822735</speed>
  <fix>3d</fix>
</trkpt>
<trkpt lat="-27.2744044" lon="151.2907437">
  <ele>387.47</ele>
  <time>2026-09-01T19:53:19Z</time>
  <course>175.15</course>
  <speed>24.27</speed>
  <fix>3d</fix>
</trkpt>
<trkpt lat="-27.2744889" lon="151.2907458">
  <ele>387.11</ele>
  <time>2026-09-01T19:53:19Z</time>
  <course>180.16</course>
  <speed>24.20926475546087</speed>
  <fix>3d</fix>
</trkpt>
<trkpt lat="-27.2744479" lon="151.2907462">
  <ele>387.37</ele>
  <time>2026-09-01T19:53:19Z</time>
  <course>179.11</course>
  <speed>24.22</speed>
  <fix>3d</fix>
</trkpt>
<trkpt lat="-27.2745106" lon="151.2907441">
  <ele>387.06</ele>
  <time>2026-09-01T19:53:19Z</time>
  <course>182.16</course>
  <speed>24.186186140026294</speed>
  <fix>3d</fix>
</trkpt>
<trkpt lat="-27.2744479" lon="151.2907462">
  <ele>387.37</ele>
  <time>2026-09-01T19:53:19Z</time>
  <course>179.11</course>
  <speed>24.22</speed>
  <fix>3d</fix>
</trkpt>
<trkpt lat="-27.2745322" lon="151.2907415">
  <ele>387.01</ele>
  <time>2026-09-01T19:53:19Z</time>
  <course>184.18</course>
  <speed>24.1634476016979</speed>
  <fix>3d</fix>
</trkpt>
<trkpt lat="-27.2744913" lon="151.2907452">
  <ele>387.27</ele>
  <time>2026-09-01T19:53:19Z</time>
  <course>183.14</course>
  <speed>24.16</speed>
  <fix>3d</fix>
</trkpt>
<trkpt lat="-27.2745538" lon="151.2907381">
  <ele>386.96</ele>
  <time>2026-09-01T19:53:19Z</time>
  <course>186.23</course>
  <speed>24.143011411172385</speed>
  <fix>3d</fix>
</trkpt>
<trkpt lat="-27.2744913" lon="151.2907452">
  <ele>387.27</ele>
  <time>2026-09-01T19:53:19Z</time>
  <course>183.14</course>
  <speed>24.16</speed>
  <fix>3d</fix>
</trkpt>
<trkpt lat="-27.2745752" lon="151.2907339">
  <ele>386.91</ele>
  <time>2026-09-01T19:53:19Z</time>
  <course>188.26</course>
  <speed>24.122653253736413</speed>
  <fix>3d</fix>
</trkpt>
<trkpt lat="-27.2745345" lon="151.2907409">
  <ele>387.16</ele>
  <time>2026-09-01T19:53:19Z</time>
  <course>187.2</course>
  <speed>24.11</speed>
  <fix>3d</fix>
</trkpt>
<trkpt lat="-27.2745964" lon="151.2907288">
  <ele>386.86</ele>
  <time>2026-09-01T19:53:19Z</time>
  <course>190.33</course>
  <speed>24.09446824480673</speed>
  <fix>3d</fix>
</trkpt>
<trkpt lat="-27.2745345" lon="151.2907409">
  <ele>387.16</ele>
  <time>2026-09-01T19:53:19Z</time>
  <course>187.2</course>
  <speed>24.11</speed>
  <fix>3d</fix>
</trkpt>
<trkpt lat="-27.2746174" lon="151.2907228">
  <ele>386.81</ele>
  <time>2026-09-01T19:53:19Z</time>
  <course>192.41</course>
  <speed>24.076164561657244</speed>
  <fix>3d</fix>
</trkpt>
<trkpt lat="-27.2745772" lon="151.290733">
  <ele>387.07</ele>
  <time>2026-09-01T19:53:19Z</time>
  <course>191.3</course>
  <speed>24.06</speed>
  <fix>3d</fix>
</trkpt>
<trkpt lat="-27.2746382" lon="151.290716">
  <ele>386.77</ele>
  <time>2026-09-01T19:53:19Z</time>
  <course>194.51</course>
  <speed>24.06070032230982</speed>
  <fix>3d</fix>
</trkpt>
<trkpt lat="-27.2745772" lon="151.290733">
  <ele>387.07</ele>
  <time>2026-09-01T19:53:19Z</time>
  <course>191.3</course>
  <speed>24.06</speed>
  <fix>3d</fix>
</trkpt>
<trkpt lat="-27.2746587" lon="151.2907083">
  <ele>386.72</ele>
  <time>2026-09-01T19:53:19Z</time>
  <course>196.55</course>
  <speed>24.036305872575344</speed>
  <fix>3d</fix>
</trkpt>
<trkpt lat="-27.2746191" lon="151.2907218">
  <ele>386.98</ele>
  <time>2026-09-01T19:53:19Z</time>
  <course>195.45</course>
  <speed>24.02</speed>
  <fix>3d</fix>
</trkpt>
<trkpt lat="-27.2746789" lon="151.2906998">
  <ele>386.67</ele>
  <time>2026-09-01T19:53:19Z</time>
  <course>198.6</course>
  <speed>24.018378379899005</speed>
  <fix>3d</fix>
</trkpt>
<trkpt lat="-27.2746191" lon="151.2907218">
  <ele>386.98</ele>
  <time>2026-09-01T19:53:19Z</time>
  <course>195.45</course>
  <speed>24.02</speed>
  <fix>3d</fix>
</trkpt>
<trkpt lat="-27.2746987" lon="151.2906905">
  <ele>386.63</ele>
  <time>2026-09-01T19:53:19Z</time>
  <course>200.69</course>
  <speed>23.99135052472036</speed>
  <fix>3d</fix>
</trkpt>
<trkpt lat="-27.2746603" lon="151.2907072">
  <ele>386.89</ele>
  <time>2026-09-01T19:53:19Z</time>
  <course>199.61</course>
  <speed>23.98</speed>
  <fix>3d</fix>
</trkpt>
<trkpt lat="-27.2747183" lon="151.2906804">
  <ele>386.59</ele>
  <time>2026-09-01T19:53:19Z</time>
  <course>202.78</course>
  <speed>23.974027613231783</speed>
  <fix>3d</fix>
</trkpt>
<trkpt lat="-27.2746603" lon="151.2907072">
  <ele>386.89</ele>
  <time>2026-09-01T19:53:19Z</time>
  <course>199.61</course>
  <speed>23.98</speed>
  <fix>3d</fix>
</trkpt>
<trkpt lat="-27.2747374" lon="151.2906696">
  <ele>386.55</ele>
  <time>2026-09-01T19:53:19Z</time>
  <course>204.84</course>
  <speed>23.944036835922216</speed>
  <fix>3d</fix>
</trkpt>
<trkpt lat="-27.2747003" lon="151.2906893">
  <ele>386.81</ele>
  <time>2026-09-01T19:53:19Z</time>
  <course>203.79</course>
  <speed>23.94</speed>
  <fix>3d</fix>
</trkpt>
<trkpt lat="-27.2747561" lon="151.290658">
  <ele>386.51</ele>
  <time>2026-09-01T19:53:19Z</time>
  <course>206.94</course>
  <speed>23.91886284922425</speed>
  <fix>3d</fix>
</trkpt>
<trkpt lat="-27.2747003" lon="151.2906893">
  <ele>386.81</ele>
  <time>2026-09-01T19:53:19Z</time>
  <course>203.79</course>
  <speed>23.94</speed>
  <fix>3d</fix>
</trkpt>
<trkpt lat="-27.2747743" lon="151.2906457">
  <ele>386.48</ele>
  <time>2026-09-01T19:53:19Z</time>
  <course>209.04</course>
  <speed>23.88924862778233</speed>
  <fix>3d</fix>
</trkpt>
<trkpt lat="-27.2747391" lon="151.2906681">
  <ele>386.72</ele>
  <time>2026-09-01T19:53:19Z</time>
  <course>207.98</course>
  <speed>23.9</speed>
  <fix>3d</fix>
</trkpt>
<trkpt lat="-27.2747921" lon="151.2906327">
  <ele>386.44</ele>
  <time>2026-09-01T19:53:19Z</time>
  <course>211.13</course>
  <speed>23.8689945326568</speed>
  <fix>3d</fix>
</trkpt>
<trkpt lat="-27.2747391" lon="151.2906681">
  <ele>386.72</ele>
  <time>2026-09-01T19:53:19Z</time>
  <course>207.98</course>
  <speed>23.9</speed>
  <fix>3d</fix>
</trkpt>
<trkpt lat="-27.2748095" lon="151.2906191">
  <ele>386.41</ele>
  <time>2026-09-01T19:53:19Z</time>
  <course>213.22</course>
  <speed>23.84448154185786</speed>
  <fix>3d</fix>
</trkpt>
<trkpt lat="-27.2747762" lon="151.2906439">
  <ele>386.65</ele>
  <time>2026-09-01T19:53:19Z</time>
  <course>212.16</course>
  <speed>23.87</speed>
  <fix>3d</fix>
</trkpt>
<trkpt lat="-27.2748263" lon="151.2906047">
  <ele>386.38</ele>
  <time>2026-09-01T19:53:19Z</time>
  <course>215.28</course>
  <speed>23.80972280393033</speed>
  <fix>3d</fix>
</trkpt>
<trkpt lat="-27.2747762" lon="151.2906439">
  <ele>386.65</ele>
  <time>2026-09-01T19:53:19Z</time>
  <course>212.16</course>
  <speed>23.87</speed>
  <fix>3d</fix>
</trkpt>
<trkpt lat="-27.2748427" lon="151.2905897">
  <ele>386.35</ele>
  <time>2026-09-01T19:53:19Z</time>
  <course>217.3</course>
  <speed>23.785949634185304</speed>
  <fix>3d</fix>
</trkpt>
<trkpt lat="-27.2748116" lon="151.2906168">
  <ele>386.57</ele>
  <time>2026-09-01T19:53:19Z</time>
  <course>216.33</course>
  <speed>23.84</speed>
  <fix>3d</fix>
</trkpt>
<trkpt lat="-27.2748585" lon="151.290574">
  <ele>386.32</ele>
  <time>2026-09-01T19:53:19Z</time>
  <course>219.35</course>
  <speed>23.75813544872577</speed>
  <fix>3d</fix>
</trkpt>
<trkpt lat="-27.2748116" lon="151.2906168">
  <ele>386.57</ele>
  <time>2026-09-01T19:53:19Z</time>
  <course>216.33</course>
  <speed>23.84</speed>
  <fix>3d</fix>
</trkpt>
<trkpt lat="-27.2748739" lon="151.2905577">
  <ele>386.29</ele>
  <time>2026-09-01T19:53:19Z</time>
  <course>221.43</course>
  <speed>23.732361871503645</speed>
  <fix>3d</fix>
</trkpt>
<trkpt lat="-27.2748451" lon="151.2905869">
  <ele>386.49</ele>
  <time>2026-09-01T19:53:19Z</time>
  <course>220.48</course>
  <speed>23.81</speed>
  <fix>3d</fix>
</trkpt>
<trkpt lat="-27.2748888" lon="151.2905407">
  <ele>386.27</ele>
  <time>2026-09-01T19:53:19Z</time>
  <course>223.54</course>
  <speed>23.70896876711427</speed>
  <fix>3d</fix>
</trkpt>
<trkpt lat="-27.2748451" lon="151.2905869">
  <ele>386.49</ele>
  <time>2026-09-01T19:53:19Z</time>
  <course>220.48</course>
  <speed>23.81</speed>
  <fix>3d</fix>
</trkpt>
<trkpt lat="-27.2749031" lon="151.2905232">
  <ele>386.23</ele>
  <time>2026-09-01T19:53:19Z</time>
  <course>225.56</course>
  <speed>23.687904086263096</speed>
  <fix>3d</fix>
</trkpt>
<trkpt lat="-27.2748766" lon="151.2905544">
  <ele>386.42</ele>
  <time>2026-09-01T19:53:19Z</time>
  <course>224.59</course>
  <speed>23.79</speed>
  <fix>3d</fix>
</trkpt>
<trkpt lat="-27.2749169" lon="151.290505">
  <ele>386.2</ele>
  <time>2026-09-01T19:53:19Z</time>
  <course>227.59</course>
  <speed>23.675567575033973</speed>
  <fix>3d</fix>
</trkpt>
<trkpt lat="-27.2748766" lon="151.2905544">
  <ele>386.42</ele>
  <time>2026-09-01T19:53:19Z</time>
  <course>224.59</course>
  <speed>23.79</speed>
  <fix>3d</fix>
</trkpt>
<trkpt lat="-27.2749302" lon="151.2904863">
  <ele>386.17</ele>
  <time>2026-09-01T19:53:19Z</time>
  <course>229.62</course>
  <speed>23.663495092652735</speed>
  <fix>3d</fix>
</trkpt>
<trkpt lat="-27.2749059" lon="151.2905194">
  <ele>386.35</ele>
  <time>2026-09-01T19:53:19Z</time>
  <course>228.68</course>
  <speed>23.76</speed>
  <fix>3d</fix>
</trkpt>
<trkpt lat="-27.2749429" lon="151.290467">
  <ele>386.13</ele>
  <time>2026-09-01T19:53:19Z</time>
  <course>231.63</course>
  <speed>23.652917367631417</speed>
  <fix>3d</fix>
</trkpt>
<trkpt lat="-27.2749059" lon="151.2905194">
  <ele>386.35</ele>
  <time>2026-09-01T19:53:19Z</time>
  <course>228.68</course>
  <speed>23.76</speed>
  <fix>3d</fix>
</trkpt>
<trkpt lat="-27.2749549" lon="151.2904473">
  <ele>386.1</ele>
  <time>2026-09-01T19:53:19Z</time>
  <course>233.66</course>
  <speed>23.644318556473564</speed>
  <fix>3d</fix>
</trkpt>
<trkpt lat="-27.2749329" lon="151.2904823">
  <ele>386.27</ele>
  <time>2026-09-01T19:53:19Z</time>
  <course>232.74</course>
  <speed>23.74</speed>
  <fix>3d</fix>
</trkpt>
<trkpt lat="-27.2749663" lon="151.2904272">
  <ele>386.06</ele>
  <time>2026-09-01T19:53:19Z</time>
  <course>235.69</course>
  <speed>23.634959276461636</speed>
  <fix>3d</fix>
</trkpt>
<trkpt lat="-27.2749329" lon="151.2904823">
  <ele>386.27</ele>
  <time>2026-09-01T19:53:19Z</time>
  <course>232.74</course>
  <speed>23.74</speed>
  <fix>3d</fix>
</trkpt>
<trkpt lat="-27.274977" lon="151.2904066">
  <ele>386.03</ele>
  <time>2026-09-01T19:53:19Z</time>
  <course>237.69</course>
  <speed>23.62406400262241</speed>
  <fix>3d</fix>
</trkpt>
<trkpt lat="-27.2749575" lon="151.2904431">
  <ele>386.2</ele>
  <time>2026-09-01T19:53:19Z</time>
  <course>236.8</course>
  <speed>23.72</speed>
  <fix>3d</fix>
</trkpt>
<trkpt lat="-27.2749871" lon="151.2903857">
  <ele>386.0</ele>
  <time>2026-09-01T19:53:19Z</time>
  <course>239.7</course>
  <speed>23.61525989693952</speed>
  <fix>3d</fix>
</trkpt>
<trkpt lat="-27.2749575" lon="151.2904431">
  <ele>386.2</ele>
  <time>2026-09-01T19:53:19Z</time>
  <course>236.8</course>
  <speed>23.72</speed>
  <fix>3d</fix>
</trkpt>
<trkpt lat="-27.2749965" lon="151.2903644">
  <ele>385.97</ele>
  <time>2026-09-01T19:53:19Z</time>
  <course>241.73</course>
  <speed>23.59993220329245</speed>
  <fix>3d</fix>
</trkpt>
<trkpt lat="-27.2749795" lon="151.2904021">
  <ele>386.12</ele>
  <time>2026-09-01T19:53:19Z</time>
  <course>240.84</course>
  <speed>23.71</speed>
  <fix>3d</fix>
</trkpt>
<trkpt lat="-27.2750053" lon="151.2903427">
  <ele>385.94</ele>
  <time>2026-09-01T19:53:19Z</time>
  <course>243.7</course>
  <speed>23.586693282442116</speed>
  <fix>3d</fix>
</trkpt>
<trkpt lat="-27.2749795" lon="151.2904021">
  <ele>386.12</ele>
  <time>2026-09-01T19:53:19Z</time>
  <course>240.84</course>
  <speed>23.71</speed>
  <fix>3d</fix>
</trkpt>
<trkpt lat="-27.2750134" lon="151.2903208">
  <ele>385.91</ele>
  <time>2026-09-01T19:53:19Z</time>
  <course>245.71</course>
  <speed>23.583926729872616</speed>
  <fix>3d</fix>
</trkpt>
<trkpt lat="-27.2749989" lon="151.2903595">
  <ele>386.05</ele>
  <time>2026-09-01T19:53:19Z</time>
  <course>244.85</course>
  <speed>23.69</speed>
  <fix>3d</fix>
</trkpt>
<trkpt lat="-27.2750208" lon="151.2902985">
  <ele>385.87</ele>
  <time>2026-09-01T19:53:19Z</time>
  <course>247.71</course>
  <speed>23.578093646433757</speed>
  <fix>3d</fix>
</trkpt>
<trkpt lat="-27.2749989" lon="151.2903595">
  <ele>386.05</ele>
  <time>2026-09-01T19:53:19Z</time>
  <course>244.85</course>
  <speed>23.69</speed>
  <fix>3d</fix>
</trkpt>
<trkpt lat="-27.2750276" lon="151.2902758">
  <ele>385.84</ele>
  <time>2026-09-01T19:53:19Z</time>
  <course>249.69</course>
  <speed>23.578644999236065</speed>
  <fix>3d</fix>
</trkpt>
<trkpt lat="-27.2750157" lon="151.2903154">
  <ele>385.97</ele>
  <time>2026-09-01T19:53:19Z</time>
  <course>248.86</course>
  <speed>23.68</speed>
  <fix>3d</fix>
</trkpt>
<trkpt lat="-27.2750336" lon="151.2902529">
  <ele>385.8</ele>
  <time>2026-09-01T19:53:19Z</time>
  <course>251.69</course>
  <speed>23.57892703241604</speed>
  <fix>3d</fix>
</trkpt>
<trkpt lat="-27.2750157" lon="151.2903154">
  <ele>385.97</ele>
  <time>2026-09-01T19:53:19Z</time>
  <course>248.86</course>
  <speed>23.68</speed>
  <fix>3d</fix>
</trkpt>
<trkpt lat="-27.275039" lon="151.2902296">
  <ele>385.76</ele>
  <time>2026-09-01T19:53:19Z</time>
  <course>253.68</course>
  <speed>23.583140164108762</speed>
  <fix>3d</fix>
</trkpt>
<trkpt lat="-27.2750296" lon="151.2902701">
  <ele>385.9</ele>
  <time>2026-09-01T19:53:19Z</time>
  <course>252.85</course>
  <speed>23.67</speed>
  <fix>3d</fix>
</trkpt>
<trkpt lat="-27.2750436" lon="151.2902062">
  <ele>385.73</ele>
  <time>2026-09-01T19:53:19Z</time>
  <course>255.62</course>
  <speed>23.586930703251745</speed>
  <fix>3d</fix>
</trkpt>
<trkpt lat="-27.2750296" lon="151.2902701">
  <ele>385.9</ele>
  <time>2026-09-01T19:53:19Z</time>
  <course>252.85</course>
  <speed>23.67</speed>
  <fix>3d</fix>
</trkpt>
<trkpt lat="-27.2750476" lon="151.2901825">
  <ele>385.69</ele>
  <time>2026-09-01T19:53:19Z</time>
  <course>257.58</course>
  <speed>23.589612120592403</speed>
  <fix>3d</fix>
</trkpt>
<trkpt lat="-27.2750407" lon="151.290224">
  <ele>385.83</ele>
  <time>2026-09-01T19:53:19Z</time>
  <course>256.83</course>
  <speed>23.66</speed>
  <fix>3d</fix>
</trkpt>
<trkpt lat="-27.2750508" lon="151.2901588">
  <ele>385.65</ele>
  <time>2026-09-01T19:53:19Z</time>
  <course>259.56</course>
  <speed>23.600527536476807</speed>
  <fix>3d</fix>
</trkpt>
<trkpt lat="-27.2750407" lon="151.290224">
  <ele>385.83</ele>
  <time>2026-09-01T19:53:19Z</time>
  <course>256.83</course>
  <speed>23.66</speed>
  <fix>3d</fix>
</trkpt>
<trkpt lat="-27.2750532" lon="151.2901349">
  <ele>385.61</ele>
  <time>2026-09-01T19:53:19Z</time>
  <course>261.51</course>
  <speed>23.608422225976895</speed>
  <fix>3d</fix>
</trkpt>
<trkpt lat="-27.275049" lon="151.2901771">
  <ele>385.76</ele>
  <time>2026-09-01T19:53:19Z</time>
  <course>260.81</course>
  <speed>23.66</speed>
  <fix>3d</fix>
</trkpt>
<trkpt lat="-27.275055" lon="151.2901109">
  <ele>385.58</ele>
  <time>2026-09-01T19:53:19Z</time>
  <course>263.47</course>
  <speed>23.614559068506868</speed>
  <fix>3d</fix>
</trkpt>
<trkpt lat="-27.275049" lon="151.2901771">
  <ele>385.76</ele>
  <time>2026-09-01T19:53:19Z</time>
  <course>260.81</course>
  <speed>23.66</speed>
  <fix>3d</fix>
</trkpt>
<trkpt lat="-27.275056" lon="151.2900871">
  <ele>385.55</ele>
  <time>2026-09-01T19:53:19Z</time>
  <course>265.41</course>
  <speed>23.618672697677148</speed>
  <fix>3d</fix>
</trkpt>
<trkpt lat="-27.2750543" lon="151.2901296">
  <ele>385.7</ele>
  <time>2026-09-01T19:53:19Z</time>
  <course>264.77</course>
  <speed>23.65</speed>
  <fix>3d</fix>
</trkpt>
<trkpt lat="-27.2750563" lon="151.2900632">
  <ele>385.52</ele>
  <time>2026-09-01T19:53:19Z</time>
  <course>267.4</course>
  <speed>23.620541907416097</speed>
  <fix>3d</fix>
</trkpt>
<trkpt lat="-27.2750543" lon="151.2901296">
  <ele>385.7</ele>
  <time>2026-09-01T19:53:19Z</time>
  <course>264.77</course>
  <speed>23.65</speed>
  <fix>3d</fix>
</trkpt>
<trkpt lat="-27.2750559" lon="151.2900393">
  <ele>385.49</ele>
  <time>2026-09-01T19:53:19Z</time>
  <course>269.36</course>
  <speed>23.619925910129353</speed>
  <fix>3d</fix>
</trkpt>
<trkpt lat="-27.2750567" lon="151.2900819">
  <ele>385.63</ele>
  <time>2026-09-01T19:53:19Z</time>
  <course>268.72</course>
  <speed>23.65</speed>
  <fix>3d</fix>
</trkpt>
<trkpt lat="-27.2750547" lon="151.2900155">
  <ele>385.46</ele>
  <time>2026-09-01T19:53:19Z</time>
  <course>271.35</course>
  <speed>23.617173836003325</speed>
  <fix>3d</fix>
</trkpt>
<trkpt lat="-27.2750567" lon="151.2900819">
  <ele>385.63</ele>
  <time>2026-09-01T19:53:19Z</time>
  <course>268.72</course>
  <speed>23.65</speed>
  <fix>3d</fix>
</trkpt>
<trkpt lat="-27.2750528" lon="151.2899915">
  <ele>385.43</ele>
  <time>2026-09-01T19:53:19Z</time>
  <course>273.34</course>
  <speed>23.6235137098612</speed>
  <fix>3d</fix>
</trkpt>
<trkpt lat="-27.2750562" lon="151.2900341">
  <ele>385.57</ele>
  <time>2026-09-01T19:53:19Z</time>
  <course>272.67</course>
  <speed>23.64</speed>
  <fix>3d</fix>
</trkpt>
<trkpt lat="-27.2750502" lon="151.2899679">
  <ele>385.4</ele>
  <time>2026-09-01T19:53:19Z</time>
  <course>275.28</course>
  <speed>23.625926436861686</speed>
  <fix>3d</fix>
</trkpt>
<trkpt lat="-27.2750562" lon="151.2900341">
  <ele>385.57</ele>
  <time>2026-09-01T19:53:19Z</time>
  <course>272.67</course>
  <speed>23.64</speed>
  <fix>3d</fix>
</trkpt>
<trkpt lat="-27.2750468" lon="151.2899443">
  <ele>385.38</ele>
  <time>2026-09-01T19:53:19Z</time>
  <course>277.21</course>
  <speed>23.616468830034687</speed>
  <fix>3d</fix>
</trkpt>
<trkpt lat="-27.2750528" lon="151.2899865">
  <ele>385.52</ele>
  <time>2026-09-01T19:53:19Z</time>
  <course>276.62</course>
  <speed>23.65</speed>
  <fix>3d</fix>
</trkpt>
<trkpt lat="-27.2750427" lon="151.2899207">
  <ele>385.36</ele>
  <time>2026-09-01T19:53:19Z</time>
  <course>279.17</course>
  <speed>23.61538481583563</speed>
  <fix>3d</fix>
</trkpt>
<trkpt lat="-27.2750528" lon="151.2899865">
  <ele>385.52</ele>
  <time>2026-09-01T19:53:19Z</time>
  <course>276.62</course>
  <speed>23.65</speed>
  <fix>3d</fix>
</trkpt>
<trkpt lat="-27.2750379" lon="151.2898974">
  <ele>385.33</ele>
  <time>2026-09-01T19:53:19Z</time>
  <course>280.83</course>
  <speed>23.627875486382603</speed>
  <fix>3d</fix>
</trkpt>
<trkpt lat="-27.2750465" lon="151.2899392">
  <ele>385.46</ele>
  <time>2026-09-01T19:53:19Z</time>
  <course>280.57</course>
  <speed>23.65</speed>
  <fix>3d</fix>
</trkpt>
<trkpt lat="-27.2750324" lon="151.2898742">
  <ele>385.3</ele>
  <time>2026-09-01T19:53:19Z</time>
  <course>281.94</course>
  <speed>23.624701056309686</speed>
  <fix>3d</fix>
</trkpt>
<trkpt lat="-27.2750465" lon="151.2899392">
  <ele>385.46</ele>
  <time>2026-09-01T19:53:19Z</time>
  <course>280.57</course>
  <speed>23.65</speed>
  <fix>3d</fix>
</trkpt>
<trkpt lat="-27.2750263" lon="151.2898512">
  <ele>385.26</ele>
  <time>2026-09-01T19:53:19Z</time>
  <course>283.52</course>
  <speed>23.600720327989993</speed>
  <fix>3d</fix>
</trkpt>
<trkpt lat="-27.2750373" lon="151.2898926">
  <ele>385.41</ele>
  <time>2026-09-01T19:53:19Z</time>
  <course>284.36</course>
  <speed>23.65</speed>
  <fix>3d</fix>
</trkpt>
<trkpt lat="-27.2750197" lon="151.2898284">
  <ele>385.22</ele>
  <time>2026-09-01T19:53:19Z</time>
  <course>285.29</course>
  <speed>23.509189692543636</speed>
  <fix>3d</fix>
</trkpt>
<trkpt lat="-27.2750373" lon="151.2898926">
  <ele>385.41</ele>
  <time>2026-09-01T19:53:19Z</time>
  <course>284.36</course>
  <speed>23.65</speed>
  <fix>3d</fix>
</trkpt>
<trkpt lat="-27.2750127" lon="151.289806">
  <ele>385.18</ele>
  <time>2026-09-01T19:53:19Z</time>
  <course>287.01</course>
  <speed>23.339556551057264</speed>
  <fix>3d</fix>
</trkpt>
<trkpt lat="-27.2750255" lon="151.2898466">
  <ele>385.35</ele>
  <time>2026-09-01T19:53:19Z</time>
  <course>287.74</course>
  <speed>23.59</speed>
  <fix>3d</fix>
</trkpt>
<trkpt lat="-27.2750052" lon="151.2897839">
  <ele>385.15</ele>
  <time>2026-09-01T19:53:19Z</time>
  <course>288.47</course>
  <speed>23.097673042971234</speed>
  <fix>3d</fix>
</trkpt>
<trkpt lat="-27.2750255" lon="151.2898466">
  <ele>385.35</ele>
  <time>2026-09-01T19:53:19Z</time>
  <course>287.74</course>
  <speed>23.59</speed>
  <fix>3d</fix>
</trkpt>
<trkpt lat="-27.2749976" lon="151.2897622">
  <ele>385.13</ele>
  <time>2026-09-01T19:53:19Z</time>
  <course>289.57</course>
  <speed>22.83538044351353</speed>
  <fix>3d</fix>
</trkpt>
<trkpt lat="-27.2750116" lon="151.2898017">
  <ele>385.28</ele>
  <time>2026-09-01T19:53:19Z</time>
  <course>290.51</course>
  <speed>23.32</speed>
  <fix>3d</fix>
</trkpt>
<trkpt lat="-27.2749898" lon="151.2897409">
  <ele>385.1</ele>
  <time>2026-09-01T19:53:19Z</time>
  <course>290.37</course>
  <speed>22.561640011311233</speed>
  <fix>3d</fix>
</trkpt>
<trkpt lat="-27.2750116" lon="151.2898017">
  <ele>385.28</ele>
  <time>2026-09-01T19:53:19Z</time>
  <course>290.51</course>
  <speed>23.32</speed>
  <fix>3d</fix>
</trkpt>
<trkpt lat="-27.2749818" lon="151.2897199">
  <ele>385.06</ele>
  <time>2026-09-01T19:53:19Z</time>
  <course>290.97</course>
  <speed>22.284086250057463</speed>
  <fix>3d</fix>
</trkpt>
<trkpt lat="-27.2749963" lon="151.2897583">
  <ele>385.22</ele>
  <time>2026-09-01T19:53:19Z</time>
  <course>292.5</course>
  <speed>22.84</speed>
  <fix>3d</fix>
</trkpt>
<trkpt lat="-27.2749738" lon="151.2896992">
  <ele>385.02</ele>
  <time>2026-09-01T19:53:19Z</time>
  <course>291.48</course>
  <speed>22.01992052665041</speed>
  <fix>3d</fix>
</trkpt>
<trkpt lat="-27.2749963" lon="151.2897583">
  <ele>385.22</ele>
  <time>2026-09-01T19:53:19Z</time>
  <course>292.5</course>
  <speed>22.84</speed>
  <fix>3d</fix>
</trkpt>
<trkpt lat="-27.2749658" lon="151.289679">
  <ele>384.98</ele>
  <time>2026-09-01T19:53:19Z</time>
  <course>291.99</course>
  <speed>21.75297680778426</speed>
  <fix>3d</fix>
</trkpt>
<trkpt lat="-27.2749803" lon="151.2897164">
  <ele>385.16</ele>
  <time>2026-09-01T19:53:19Z</time>
  <course>293.77</course>
  <speed>22.29</speed>
  <fix>3d</fix>
</trkpt>
<trkpt lat="-27.2749577" lon="151.2896591">
  <ele>384.94</ele>
  <time>2026-09-01T19:53:19Z</time>
  <course>292.54</course>
  <speed>21.49218695247182</speed>
  <fix>3d</fix>
</trkpt>
<trkpt lat="-27.2749803" lon="151.2897164">
  <ele>385.16</ele>
  <time>2026-09-01T19:53:19Z</time>
  <course>293.77</course>
  <speed>22.29</speed>
  <fix>3d</fix>
</trkpt>
<trkpt lat="-27.2749496" lon="151.2896395">
  <ele>384.91</ele>
  <time>2026-09-01T19:53:19Z</time>
  <course>293.1</course>
  <speed>21.224024123619913</speed>
  <fix>3d</fix>
</trkpt>
<trkpt lat="-27.2749641" lon="151.2896758">
  <ele>385.08</ele>
  <time>2026-09-01T19:53:19Z</time>
  <course>294.69</course>
  <speed>21.74</speed>
  <fix>3d</fix>
</trkpt>
<trkpt lat="-27.2749416" lon="151.2896204">
  <ele>384.89</ele>
  <time>2026-09-01T19:53:19Z</time>
  <course>293.66</course>
  <speed>20.96149088209138</speed>
  <fix>3d</fix>
</trkpt>
<trkpt lat="-27.2749641" lon="151.2896758">
  <ele>385.08</ele>
  <time>2026-09-01T19:53:19Z</time>
  <course>294.69</course>
  <speed>21.74</speed>
  <fix>3d</fix>
</trkpt>
<trkpt lat="-27.2749334" lon="151.2896014">
  <ele>384.9</ele>
  <time>2026-09-01T19:53:19Z</time>
  <course>294.19</course>
  <speed>20.6953642152053</speed>
  <fix>3d</fix>
</trkpt>
<trkpt lat="-27.2749478" lon="151.2896366">
  <ele>385.02</ele>
  <time>2026-09-01T19:53:19Z</time>
  <course>295.44</course>
  <speed>21.2</speed>
  <fix>3d</fix>
</trkpt>
<trkpt lat="-27.2749253" lon="151.2895826">
  <ele>384.92</ele>
  <time>2026-09-01T19:53:19Z</time>
  <course>294.68</course>
  <speed>20.416525169577707</speed>
  <fix>3d</fix>
</trkpt>
<trkpt lat="-27.2749478" lon="151.2896366">
  <ele>385.02</ele>
  <time>2026-09-01T19:53:19Z</time>
  <course>295.44</course>
  <speed>21.2</speed>
  <fix>3d</fix>
</trkpt>
<trkpt lat="-27.2749172" lon="151.2895642">
  <ele>384.97</ele>
  <time>2026-09-01T19:53:19Z</time>
  <course>295.13</course>
  <speed>20.133891824483413</speed>
  <fix>3d</fix>
</trkpt>
<trkpt lat="-27.2749314" lon="151.2895985">
  <ele>385.01</ele>
  <time>2026-09-01T19:53:19Z</time>
  <course>296.1</course>
  <speed>20.66</speed>
  <fix>3d</fix>
</trkpt>
<trkpt lat="-27.274909" lon="151.2895459">
  <ele>385.04</ele>
  <time>2026-09-01T19:53:19Z</time>
  <course>295.52</course>
  <speed>19.83393556508642</speed>
  <fix>3d</fix>
</trkpt>
<trkpt lat="-27.2749314" lon="151.2895985">
  <ele>385.01</ele>
  <time>2026-09-01T19:53:19Z</time>
  <course>296.1</course>
  <speed>20.66</speed>
  <fix>3d</fix>
</trkpt>
<trkpt lat="-27.274901" lon="151.289528">
  <ele>385.14</ele>
  <time>2026-09-01T19:53:19Z</time>
  <course>295.85</course>
  <speed>19.529918074584952</speed>
  <fix>3d</fix>
</trkpt>
<trkpt lat="-27.2749152" lon="151.2895616">
  <ele>385.09</ele>
  <time>2026-09-01T19:53:19Z</time>
  <course>296.69</course>
  <speed>20.08</speed>
  <fix>3d</fix>
</trkpt>
<trkpt lat="-27.274893" lon="151.2895105">
  <ele>385.25</ele>
  <time>2026-09-01T19:53:19Z</time>
  <course>296.14</course>
  <speed>19.230652615031037</speed>
  <fix>3d</fix>
</trkpt>
<trkpt lat="-27.2749152" lon="151.2895616">
  <ele>385.09</ele>
  <time>2026-09-01T19:53:19Z</time>
  <course>296.69</course>
  <speed>20.08</speed>
  <fix>3d</fix>
</trkpt>
<trkpt lat="-27.2748851" lon="151.2894933">
  <ele>385.37</ele>
  <time>2026-09-01T19:53:19Z</time>
  <course>296.38</course>
  <speed>18.931439459269864</speed>
  <fix>3d</fix>
</trkpt>
<trkpt lat="-27.2748991" lon="151.2895259">
  <ele>385.26</ele>
  <time>2026-09-01T19:53:19Z</time>
  <course>297.17</course>
  <speed>19.47</speed>
  <fix>3d</fix>
</trkpt>
<trkpt lat="-27.2748772" lon="151.2894764">
  <ele>385.51</ele>
  <time>2026-09-01T19:53:19Z</time>
  <course>296.57</course>
  <speed>18.64125800475923</speed>
  <fix>3d</fix>
</trkpt>
<trkpt lat="-27.2748991" lon="151.2895259">
  <ele>385.26</ele>
  <time>2026-09-01T19:53:19Z</time>
  <course>297.17</course>
  <speed>19.47</speed>
  <fix>3d</fix>
</trkpt>
<trkpt lat="-27.2748695" lon="151.2894597">
  <ele>385.64</ele>
  <time>2026-09-01T19:53:19Z</time>
  <course>296.73</course>
  <speed>18.355478746140076</speed>
  <fix>3d</fix>
</trkpt>
<trkpt lat="-27.2748832" lon="151.2894916">
  <ele>385.5</ele>
  <time>2026-09-01T19:53:19Z</time>
  <course>297.52</course>
  <speed>18.86</speed>
  <fix>3d</fix>
</trkpt>
<trkpt lat="-27.2748618" lon="151.2894434">
  <ele>385.78</ele>
  <time>2026-09-01T19:53:19Z</time>
  <course>296.85</course>
  <speed>18.07402832796275</speed>
  <fix>3d</fix>
</trkpt>
<trkpt lat="-27.2748832" lon="151.2894916">
  <ele>385.5</ele>
  <time>2026-09-01T19:53:19Z</time>
  <course>297.52</course>
  <speed>18.86</speed>
  <fix>3d</fix>
</trkpt>
<trkpt lat="-27.2748543" lon="151.2894273">
  <ele>385.91</ele>
  <time>2026-09-01T19:53:19Z</time>
  <course>296.94</course>
  <speed>17.8014746580164</speed>
  <fix>3d</fix>
</trkpt>
<trkpt lat="-27.2748677" lon="151.2894583">
  <ele>385.77</ele>
  <time>2026-09-01T19:53:19Z</time>
  <course>297.74</course>
  <speed>18.27</speed>
  <fix>3d</fix>
</trkpt>
<trkpt lat="-27.2748468" lon="151.2894115">
  <ele>386.05</ele>
  <time>2026-09-01T19:53:19Z</time>
  <course>296.99</course>
  <speed>17.537804879744787</speed>
  <fix>3d</fix>
</trkpt>
<trkpt lat="-27.2748677" lon="151.2894583">
  <ele>385.77</ele>
  <time>2026-09-01T19:53:19Z</time>
  <course>297.74</course>
  <speed>18.27</speed>
  <fix>3d</fix>
</trkpt>
<trkpt lat="-27.2748395" lon="151.2893959">
  <ele>386.18</ele>
  <time>2026-09-01T19:53:19Z</time>
  <course>297.02</course>
  <speed>17.27838244743992</speed>
  <fix>3d</fix>
</trkpt>
<trkpt lat="-27.2748526" lon="151.289426">
  <ele>386.04</ele>
  <time>2026-09-01T19:53:19Z</time>
  <course>297.83</course>
  <speed>17.71</speed>
  <fix>3d</fix>
</trkpt>
<trkpt lat="-27.2748322" lon="151.2893804">
  <ele>386.3</ele>
  <time>2026-09-01T19:53:19Z</time>
  <course>297.01</course>
  <speed>17.014338071168094</speed>
  <fix>3d</fix>
</trkpt>
<trkpt lat="-27.2748526" lon="151.289426">
  <ele>386.04</ele>
  <time>2026-09-01T19:53:19Z</time>
  <course>297.83</course>
  <speed>17.71</speed>
  <fix>3d</fix>
</trkpt>
<trkpt lat="-27.2748251" lon="151.2893653">
  <ele>386.42</ele>
  <time>2026-09-01T19:53:19Z</time>
  <course>296.98</course>
  <speed>16.768044012346817</speed>
  <fix>3d</fix>
</trkpt>
<trkpt lat="-27.274838" lon="151.2893949">
  <ele>386.3</ele>
  <time>2026-09-01T19:53:19Z</time>
  <course>297.82</course>
  <speed>17.17</speed>
  <fix>3d</fix>
</trkpt>
<trkpt lat="-27.2748181" lon="151.2893504">
  <ele>386.53</ele>
  <time>2026-09-01T19:53:19Z</time>
  <course>296.91</course>
  <speed>16.521770486240268</speed>
  <fix>3d</fix>
</trkpt>
<trkpt lat="-27.274838" lon="151.2893949">
  <ele>386.3</ele>
  <time>2026-09-01T19:53:19Z</time>
  <course>297.82</course>
  <speed>17.17</speed>
  <fix>3d</fix>
</trkpt>
<trkpt lat="-27.2748113" lon="151.2893358">
  <ele>386.65</ele>
  <time>2026-09-01T19:53:19Z</time>
  <course>296.82</course>
  <speed>16.270931135002694</speed>
  <fix>3d</fix>
</trkpt>
<trkpt lat="-27.2748238" lon="151.2893647">
  <ele>386.55</ele>
  <time>2026-09-01T19:53:19Z</time>
  <course>297.69</course>
  <speed>16.66</speed>
  <fix>3d</fix>
</trkpt>
<trkpt lat="-27.2748047" lon="151.2893214">
  <ele>386.76</ele>
  <time>2026-09-01T19:53:19Z</time>
  <course>296.7</course>
  <speed>16.033371448326147</speed>
  <fix>3d</fix>
</trkpt>
<trkpt lat="-27.2748238" lon="151.2893647">
  <ele>386.55</ele>
  <time>2026-09-01T19:53:19Z</time>
  <course>297.69</course>
  <speed>16.66</speed>
  <fix>3d</fix>
</trkpt>
<trkpt lat="-27.2747982" lon="151.2893073">
  <ele>386.86</ele>
  <time>2026-09-01T19:53:19Z</time>
  <course>296.56</course>
  <speed>15.787035820571257</speed>
  <fix>3d</fix>
</trkpt>
<trkpt lat="-27.2748102" lon="151.2893353">
  <ele>386.78</ele>
  <time>2026-09-01T19:53:19Z</time>
  <course>297.45</course>
  <speed>16.17</speed>
  <fix>3d</fix>
</trkpt>
<trkpt lat="-27.2747918" lon="151.2892934">
  <ele>386.97</ele>
  <time>2026-09-01T19:53:19Z</time>
  <course>296.4</course>
  <speed>15.549742763145634</speed>
  <fix>3d</fix>
</trkpt>
<trkpt lat="-27.2748102" lon="151.2893353">
  <ele>386.78</ele>
  <time>2026-09-01T19:53:19Z</time>
  <course>297.45</course>
  <speed>16.17</speed>
  <fix>3d</fix>
</trkpt>
<trkpt lat="-27.2747856" lon="151.2892796">
  <ele>387.07</ele>
  <time>2026-09-01T19:53:19Z</time>
  <course>296.2</course>
  <speed>15.321540392532338</speed>
  <fix>3d</fix>
</trkpt>
<trkpt lat="-27.2747971" lon="151.2893066">
  <ele>387.0</ele>
  <time>2026-09-01T19:53:19Z</time>
  <course>297.11</course>
  <speed>15.69</speed>
  <fix>3d</fix>
</trkpt>
<trkpt lat="-27.2747795" lon="151.289266">
  <ele>387.18</ele>
  <time>2026-09-01T19:53:19Z</time>
  <course>295.99</course>
  <speed>15.08908214571052</speed>
  <fix>3d</fix>
</trkpt>
<trkpt lat="-27.2747971" lon="151.2893066">
  <ele>387.0</ele>
  <time>2026-09-01T19:53:19Z</time>
  <course>297.11</course>
  <speed>15.69</speed>
  <fix>3d</fix>
</trkpt>
<trkpt lat="-27.2747735" lon="151.2892525">
  <ele>387.28</ele>
  <time>2026-09-01T19:53:19Z</time>
  <course>295.75</course>
  <speed>14.86587030751984</speed>
  <fix>3d</fix>
</trkpt>
<trkpt lat="-27.2747845" lon="151.2892787">
  <ele>387.21</ele>
  <time>2026-09-01T19:53:19Z</time>
  <course>296.67</course>
  <speed>15.23</speed>
  <fix>3d</fix>
</trkpt>
<trkpt lat="-27.2747676" lon="151.2892391">
  <ele>387.38</ele>
  <time>2026-09-01T19:53:19Z</time>
  <course>295.49</course>
  <speed>14.633977586425367</speed>
  <fix>3d</fix>
</trkpt>
<trkpt lat="-27.2747845" lon="151.2892787">
  <ele>387.21</ele>
  <time>2026-09-01T19:53:19Z</time>
  <course>296.67</course>
  <speed>15.23</speed>
  <fix>3d</fix>
</trkpt>
<trkpt lat="-27.2747619" lon="151.2892258">
  <ele>387.48</ele>
  <time>2026-09-01T19:53:19Z</time>
  <course>295.2</course>
  <speed>14.41139826664991</speed>
  <fix>3d</fix>
</trkpt>
<trkpt lat="-27.2747725" lon="151.2892516">
  <ele>387.41</ele>
  <time>2026-09-01T19:53:19Z</time>
  <course>296.14</course>
  <speed>14.77</speed>
  <fix>3d</fix>
</trkpt>
<trkpt lat="-27.2747564" lon="151.2892128">
  <ele>387.59</ele>
  <time>2026-09-01T19:53:19Z</time>
  <course>294.91</course>
  <speed>14.184900422632511</speed>
  <fix>3d</fix>
</trkpt>
<trkpt lat="-27.2747725" lon="151.2892516">
  <ele>387.41</ele>
  <time>2026-09-01T19:53:19Z</time>
  <course>296.14</course>
  <speed>14.77</speed>
  <fix>3d</fix>
</trkpt>
<trkpt lat="-27.274751" lon="151.2892">
  <ele>387.69</ele>
  <time>2026-09-01T19:53:19Z</time>
  <course>294.59</course>
  <speed>13.963083470351382</speed>
  <fix>3d</fix>
</trkpt>
<trkpt lat="-27.2747611" lon="151.2892251">
  <ele>387.61</ele>
  <time>2026-09-01T19:53:19Z</time>
  <course>295.53</course>
  <speed>14.32</speed>
  <fix>3d</fix>
</trkpt>
<trkpt lat="-27.2747457" lon="151.2891873">
  <ele>387.8</ele>
  <time>2026-09-01T19:53:19Z</time>
  <course>294.27</course>
  <speed>13.737485213822797</speed>
  <fix>3d</fix>
</trkpt>
<trkpt lat="-27.2747611" lon="151.2892251">
  <ele>387.61</ele>
  <time>2026-09-01T19:53:19Z</time>
  <course>295.53</course>
  <speed>14.32</speed>
  <fix>3d</fix>
</trkpt>
<trkpt lat="-27.2747407" lon="151.2891748">
  <ele>387.9</ele>
  <time>2026-09-01T19:53:19Z</time>
  <course>293.93</course>
  <speed>13.512398010715936</speed>
  <fix>3d</fix>
</trkpt>
<trkpt lat="-27.2747503" lon="151.2891993">
  <ele>387.81</ele>
  <time>2026-09-01T19:53:19Z</time>
  <course>294.85</course>
  <speed>13.88</speed>
  <fix>3d</fix>
</trkpt>
<trkpt lat="-27.2747357" lon="151.2891625">
  <ele>388.0</ele>
  <time>2026-09-01T19:53:19Z</time>
  <course>293.58</course>
  <speed>13.287847831759663</speed>
  <fix>3d</fix>
</trkpt>
<trkpt lat="-27.2747503" lon="151.2891993">
  <ele>387.81</ele>
  <time>2026-09-01T19:53:19Z</time>
  <course>294.85</course>
  <speed>13.88</speed>
  <fix>3d</fix>
</trkpt>
<trkpt lat="-27.274731" lon="151.2891503">
  <ele>388.11</ele>
  <time>2026-09-01T19:53:19Z</time>
  <course>293.22</course>
  <speed>13.067853687580069</speed>
  <fix>3d</fix>
</trkpt>
<trkpt lat="-27.2747402" lon="151.2891742">
  <ele>388.01</ele>
  <time>2026-09-01T19:53:19Z</time>
  <course>294.11</course>
  <speed>13.43</speed>
  <fix>3d</fix>
</trkpt>
<trkpt lat="-27.2747264" lon="151.2891383">
  <ele>388.22</ele>
  <time>2026-09-01T19:53:19Z</time>
  <course>292.85</course>
  <speed>12.844399557783929</speed>
  <fix>3d</fix>
</trkpt>
<trkpt lat="-27.2747402" lon="151.2891742">
  <ele>388.01</ele>
  <time>2026-09-01T19:53:19Z</time>
  <course>294.11</course>
  <speed>13.43</speed>
  <fix>3d</fix>
</trkpt>
<trkpt lat="-27.2747219" lon="151.2891265">
  <ele>388.33</ele>
  <time>2026-09-01T19:53:19Z</time>
  <course>292.47</course>
  <speed>12.612347124940703</speed>
  <fix>3d</fix>
</trkpt>
<trkpt lat="-27.2747306" lon="151.2891498">
  <ele>388.22</ele>
  <time>2026-09-01T19:53:19Z</time>
  <course>293.33</course>
  <speed>12.99</speed>
  <fix>3d</fix>
</trkpt>
<trkpt lat="-27.2747176" lon="151.2891149">
  <ele>388.43</ele>
  <time>2026-09-01T19:53:19Z</time>
  <course>292.09</course>
  <speed>12.393950137062841</speed>
  <fix>3d</fix>
</trkpt>
<trkpt lat="-27.2747306" lon="151.2891498">
  <ele>388.22</ele>
  <time>2026-09-01T19:53:19Z</time>
  <course>293.33</course>
  <speed>12.99</speed>
  <fix>3d</fix>
</trkpt>
<trkpt lat="-27.2747135" lon="151.2891034">
  <ele>388.54</ele>
  <time>2026-09-01T19:53:19Z</time>
  <course>291.7</course>
  <speed>12.163095823021374</speed>
  <fix>3d</fix>
</trkpt>
<trkpt lat="-27.2747217" lon="151.289126">
  <ele>388.43</ele>
  <time>2026-09-01T19:53:19Z</time>
  <course>292.52</course>
  <speed>12.54</speed>
  <fix>3d</fix>
</trkpt>
<trkpt lat="-27.2747095" lon="151.2890922">
  <ele>388.65</ele>
  <time>2026-09-01T19:53:19Z</time>
  <course>291.31</course>
  <speed>11.936586614271269</speed>
  <fix>3d</fix>
</trkpt>
<trkpt lat="-27.2747217" lon="151.289126">
  <ele>388.43</ele>
  <time>2026-09-01T19:53:19Z</time>
  <course>292.52</course>
  <speed>12.54</speed>
  <fix>3d</fix>
</trkpt>
<trkpt lat="-27.2747056" lon="151.2890811">
  <ele>388.76</ele>
  <time>2026-09-01T19:53:19Z</time>
  <course>290.91</course>
  <speed>11.710648999948722</speed>
  <fix>3d</fix>
</trkpt>
<trkpt lat="-27.2747133" lon="151.2891029">
  <ele>388.64</ele>
  <time>2026-09-01T19:53:19Z</time>
  <course>291.68</course>
  <speed>12.1</speed>
  <fix>3d</fix>
</trkpt>
<trkpt lat="-27.274702" lon="151.2890703">
  <ele>388.87</ele>
  <time>2026-09-01T19:53:19Z</time>
  <course>290.5</course>
  <speed>11.485316713090675</speed>
  <fix>3d</fix>
</trkpt>
<trkpt lat="-27.2747133" lon="151.2891029">
  <ele>388.64</ele>
  <time>2026-09-01T19:53:19Z</time>
  <course>291.68</course>
  <speed>12.1</speed>
  <fix>3d</fix>
</trkpt>
<trkpt lat="-27.2746984" lon="151.2890596">
  <ele>388.97</ele>
  <time>2026-09-01T19:53:19Z</time>
  <course>290.1</course>
  <speed>11.251248819575542</speed>
  <fix>3d</fix>
</trkpt>
<trkpt lat="-27.2747056" lon="151.2890804">
  <ele>388.85</ele>
  <time>2026-09-01T19:53:19Z</time>
  <course>290.82</course>
  <speed>11.65</speed>
  <fix>3d</fix>
</trkpt>
<trkpt lat="-27.274695" lon="151.2890491">
  <ele>389.08</ele>
  <time>2026-09-01T19:53:19Z</time>
  <course>289.69</course>
  <speed>11.021215903882837</speed>
  <fix>3d</fix>
</trkpt>
<trkpt lat="-27.2747056" lon="151.2890804">
  <ele>388.85</ele>
  <time>2026-09-01T19:53:19Z</time>
  <course>290.82</course>
  <speed>11.65</speed>
  <fix>3d</fix>
</trkpt>
<trkpt lat="-27.2746918" lon="151.2890389">
  <ele>389.18</ele>
  <time>2026-09-01T19:53:19Z</time>
  <course>289.28</course>
  <speed>10.78836873674607</speed>
  <fix>3d</fix>
</trkpt>
<trkpt lat="-27.2746984" lon="151.2890588">
  <ele>389.06</ele>
  <time>2026-09-01T19:53:19Z</time>
  <course>289.95</course>
  <speed>11.21</speed>
  <fix>3d</fix>
</trkpt>
<trkpt lat="-27.2746887" lon="151.2890288">
  <ele>389.28</ele>
  <time>2026-09-01T19:53:19Z</time>
  <course>288.86</course>
  <speed>10.559493359058473</speed>
  <fix>3d</fix>
</trkpt>
<trkpt lat="-27.2746984" lon="151.2890588">
  <ele>389.06</ele>
  <time>2026-09-01T19:53:19Z</time>
  <course>289.95</course>
  <speed>11.21</speed>
  <fix>3d</fix>
</trkpt>
<trkpt lat="-27.2746857" lon="151.2890188">
  <ele>389.38</ele>
  <time>2026-09-01T19:53:19Z</time>
  <course>288.45</course>
  <speed>10.334418222619018</speed>
  <fix>3d</fix>
</trkpt>
<trkpt lat="-27.2746918" lon="151.2890379">
  <ele>389.27</ele>
  <time>2026-09-01T19:53:19Z</time>
  <course>289.07</course>
  <speed>10.76</speed>
  <fix>3d</fix>
</trkpt>
<trkpt lat="-27.2746828" lon="151.289009">
  <ele>389.48</ele>
  <time>2026-09-01T19:53:19Z</time>
  <course>288.03</course>
  <speed>10.106710641944787</speed>
  <fix>3d</fix>
</trkpt>
<trkpt lat="-27.2746918" lon="151.2890379">
  <ele>389.27</ele>
  <time>2026-09-01T19:53:19Z</time>
  <course>289.07</course>
  <speed>10.76</speed>
  <fix>3d</fix>
</trkpt>
<trkpt lat="-27.2746801" lon="151.2889993">
  <ele>389.57</ele>
  <time>2026-09-01T19:53:19Z</time>
  <course>287.61</course>
  <speed>9.882737475011668</speed>
  <fix>3d</fix>
</trkpt>
<trkpt lat="-27.2746858" lon="151.2890178">
  <ele>389.46</ele>
  <time>2026-09-01T19:53:19Z</time>
  <course>288.18</course>
  <speed>10.31</speed>
  <fix>3d</fix>
</trkpt>
<trkpt lat="-27.2746775" lon="151.2889899">
  <ele>389.66</ele>
  <time>2026-09-01T19:53:19Z</time>
  <course>287.18</course>
  <speed>9.659337451399034</speed>
  <fix>3d</fix>
</trkpt>
<trkpt lat="-27.2746858" lon="151.2890178">
  <ele>389.46</ele>
  <time>2026-09-01T19:53:19Z</time>
  <course>288.18</course>
  <speed>10.31</speed>
  <fix>3d</fix>
</trkpt>
<trkpt lat="-27.274675" lon="151.2889807">
  <ele>389.75</ele>
  <time>2026-09-01T19:53:19Z</time>
  <course>286.75</course>
  <speed>9.439459730302366</speed>
  <fix>3d</fix>
</trkpt>
<trkpt lat="-27.2746803" lon="151.2889983">
  <ele>389.65</ele>
  <time>2026-09-01T19:53:19Z</time>
  <course>287.28</course>
  <speed>9.87</speed>
  <fix>3d</fix>
</trkpt>
<trkpt lat="-27.2746727" lon="151.2889716">
  <ele>389.84</ele>
  <time>2026-09-01T19:53:19Z</time>
  <course>286.32</course>
  <speed>9.220086767487603</speed>
  <fix>3d</fix>
</trkpt>
<trkpt lat="-27.2746803" lon="151.2889983">
  <ele>389.65</ele>
  <time>2026-09-01T19:53:19Z</time>
  <course>287.28</course>
  <speed>9.87</speed>
  <fix>3d</fix>
</trkpt>
<trkpt lat="-27.2746704" lon="151.2889628">
  <ele>389.92</ele>
  <time>2026-09-01T19:53:19Z</time>
  <course>285.89</course>
  <speed>8.991646122929883</speed>
  <fix>3d</fix>
</trkpt>
<trkpt lat="-27.2746753" lon="151.2889796">
  <ele>389.83</ele>
  <time>2026-09-01T19:53:19Z</time>
  <course>286.38</course>
  <speed>9.43</speed>
  <fix>3d</fix>
</trkpt>
<trkpt lat="-27.2746683" lon="151.2889541">
  <ele>390.0</ele>
  <time>2026-09-01T19:53:19Z</time>
  <course>285.45</course>
  <speed>8.773374493317837</speed>
  <fix>3d</fix>
</trkpt>
<trkpt lat="-27.2746753" lon="151.2889796">
  <ele>389.83</ele>
  <time>2026-09-01T19:53:19Z</time>
  <course>286.38</course>
  <speed>9.43</speed>
  <fix>3d</fix>
</trkpt>
<trkpt lat="-27.2746663" lon="151.2889456">
  <ele>390.07</ele>
  <time>2026-09-01T19:53:19Z</time>
  <course>285.02</course>
  <speed>8.558340960723637</speed>
  <fix>3d</fix>
</trkpt>
<trkpt lat="-27.2746707" lon="151.2889617">
  <ele>389.99</ele>
  <time>2026-09-01T19:53:19Z</time>
  <course>285.47</course>
  <speed>8.99</speed>
  <fix>3d</fix>
</trkpt>
<trkpt lat="-27.2746644" lon="151.2889373">
  <ele>390.14</ele>
  <time>2026-09-01T19:53:19Z</time>
  <course>284.58</course>
  <speed>8.343818070883378</speed>
  <fix>3d</fix>
</trkpt>
<trkpt lat="-27.2746707" lon="151.2889617">
  <ele>389.99</ele>
  <time>2026-09-01T19:53:19Z</time>
  <course>285.47</course>
  <speed>8.99</speed>
  <fix>3d</fix>
</trkpt>
<trkpt lat="-27.2746626" lon="151.2889292">
  <ele>390.2</ele>
  <time>2026-09-01T19:53:19Z</time>
  <course>284.14</course>
  <speed>8.129846247008611</speed>
  <fix>3d</fix>
</trkpt>
<trkpt lat="-27.2746666" lon="151.2889446">
  <ele>390.14</ele>
  <time>2026-09-01T19:53:19Z</time>
  <course>284.55</course>
  <speed>8.56</speed>
  <fix>3d</fix>
</trkpt>
<trkpt lat="-27.2746609" lon="151.2889213">
  <ele>390.25</ele>
  <time>2026-09-01T19:53:19Z</time>
  <course>283.7</course>
  <speed>7.9188509267443585</speed>
  <fix>3d</fix>
</trkpt>
<trkpt lat="-27.2746666" lon="151.2889446">
  <ele>390.14</ele>
  <time>2026-09-01T19:53:19Z</time>
  <course>284.55</course>
  <speed>8.56</speed>
  <fix>3d</fix>
</trkpt>
<trkpt lat="-27.2746593" lon="151.2889136">
  <ele>390.3</ele>
  <time>2026-09-01T19:53:19Z</time>
  <course>283.26</course>
  <speed>7.708333153153151</speed>
  <fix>3d</fix>
</trkpt>
<trkpt lat="-27.2746629" lon="151.2889282">
  <ele>390.26</ele>
  <time>2026-09-01T19:53:19Z</time>
  <course>283.62</course>
  <speed>8.13</speed>
  <fix>3d</fix>
</trkpt>
<trkpt lat="-27.2746578" lon="151.2889061">
  <ele>390.34</ele>
  <time>2026-09-01T19:53:19Z</time>
  <course>282.82</course>
  <speed>7.498333148106984</speed>
  <fix>3d</fix>
</trkpt>
<trkpt lat="-27.2746629" lon="151.2889282">
  <ele>390.26</ele>
  <time>2026-09-01T19:53:19Z</time>
  <course>283.62</course>
  <speed>8.13</speed>
  <fix>3d</fix>
</trkpt>
<trkpt lat="-27.2746564" lon="151.2888987">
  <ele>390.38</ele>
  <time>2026-09-01T19:53:19Z</time>
  <course>282.36</course>
  <speed>7.30080817444206</speed>
  <fix>3d</fix>
</trkpt>
<trkpt lat="-27.2746597" lon="151.2889126">
  <ele>390.36</ele>
  <time>2026-09-01T19:53:19Z</time>
  <course>282.68</course>
  <speed>7.71</speed>
  <fix>3d</fix>
</trkpt>
<trkpt lat="-27.2746551" lon="151.2888916">
  <ele>390.41</ele>
  <time>2026-09-01T19:53:19Z</time>
  <course>281.91</course>
  <speed>7.093976317975695</speed>
  <fix>3d</fix>
</trkpt>
<trkpt lat="-27.2746597" lon="151.2889126">
  <ele>390.36</ele>
  <time>2026-09-01T19:53:19Z</time>
  <course>282.68</course>
  <speed>7.71</speed>
  <fix>3d</fix>
</trkpt>
<trkpt lat="-27.2746539" lon="151.2888846">
  <ele>390.43</ele>
  <time>2026-09-01T19:53:19Z</time>
  <course>281.44</course>
  <speed>6.897427056518974</speed>
  <fix>3d</fix>
</trkpt>
<trkpt lat="-27.2746568" lon="151.2888978">
  <ele>390.44</ele>
  <time>2026-09-01T19:53:19Z</time>
  <course>281.71</course>
  <speed>7.3</speed>
  <fix>3d</fix>
</trkpt>
<trkpt lat="-27.2746528" lon="151.2888779">
  <ele>390.45</ele>
  <time>2026-09-01T19:53:19Z</time>
  <course>280.96</course>
  <speed>6.713158720006552</speed>
  <fix>3d</fix>
</trkpt>
<trkpt lat="-27.2746568" lon="151.2888978">
  <ele>390.44</ele>
  <time>2026-09-01T19:53:19Z</time>
  <course>281.71</course>
  <speed>7.3</speed>
  <fix>3d</fix>
</trkpt>
<trkpt lat="-27.2746517" lon="151.2888713">
  <ele>390.45</ele>
  <time>2026-09-01T19:53:19Z</time>
  <course>280.47</course>
  <speed>6.519524522539968</speed>
  <fix>3d</fix>
</trkpt>
<trkpt lat="-27.2746544" lon="151.2888836">
  <ele>390.49</ele>
  <time>2026-09-01T19:53:19Z</time>
  <course>280.73</course>
  <speed>6.91</speed>
  <fix>3d</fix>
</trkpt>
<trkpt lat="-27.2746508" lon="151.2888649">
  <ele>390.43</ele>
  <time>2026-09-01T19:53:19Z</time>
  <course>279.95</course>
  <speed>6.329873616431849</speed>
  <fix>3d</fix>
</trkpt>
<trkpt lat="-27.2746544" lon="151.2888836">
  <ele>390.49</ele>
  <time>2026-09-01T19:53:19Z</time>
  <course>280.73</course>
  <speed>6.91</speed>
  <fix>3d</fix>
</trkpt>
<trkpt lat="-27.2746499" lon="151.2888587">
  <ele>390.35</ele>
  <time>2026-09-01T19:53:19Z</time>
  <course>279.38</course>
  <speed>6.092913917002274</speed>
  <fix>3d</fix>
</trkpt>
<trkpt lat="-27.2746522" lon="151.2888702">
  <ele>390.5</ele>
  <time>2026-09-01T19:53:19Z</time>
  <course>279.81</course>
  <speed>6.53</speed>
  <fix>3d</fix>
</trkpt>
<trkpt lat="-27.274649" lon="151.2888528">
  <ele>390.18</ele>
  <time>2026-09-01T19:53:19Z</time>
  <course>278.79</course>
  <speed>5.785334908196758</speed>
  <fix>3d</fix>
</trkpt>
<trkpt lat="-27.2746522" lon="151.2888702">
  <ele>390.5</ele>
  <time>2026-09-01T19:53:19Z</time>
  <course>279.81</course>
  <speed>6.53</speed>
  <fix>3d</fix>
</trkpt>
<trkpt lat="-27.2746482" lon="151.2888472">
  <ele>389.96</ele>
  <time>2026-09-01T19:53:19Z</time>
  <course>278.17</course>
  <speed>5.416982554891607</speed>
  <fix>3d</fix>
</trkpt>
<trkpt lat="-27.2746504" lon="151.2888577">
  <ele>390.37</ele>
  <time>2026-09-01T19:53:19Z</time>
  <course>279.26</course>
  <speed>6.08</speed>
  <fix>3d</fix>
</trkpt>
<trkpt lat="-27.2746475" lon="151.2888421">
  <ele>389.68</ele>
  <time>2026-09-01T19:53:19Z</time>
  <course>277.48</course>
  <speed>4.997729484475926</speed>
  <fix>3d</fix>
</trkpt>
<trkpt lat="-27.2746504" lon="151.2888577">
  <ele>390.37</ele>
  <time>2026-09-01T19:53:19Z</time>
  <course>279.26</course>
  <speed>6.08</speed>
  <fix>3d</fix>
</trkpt>
<trkpt lat="-27.2746469" lon="151.2888373">
  <ele>389.35</ele>
  <time>2026-09-01T19:53:19Z</time>
  <course>276.75</course>
  <speed>4.516159873166583</speed>
  <fix>3d</fix>
</trkpt>
<trkpt lat="-27.2746487" lon="151.2888462">
  <ele>390.0</ele>
  <time>2026-09-01T19:53:19Z</time>
  <course>278.87</course>
  <speed>5.42</speed>
  <fix>3d</fix>
</trkpt>
<trkpt lat="-27.2746464" lon="151.288833">
  <ele>388.99</ele>
  <time>2026-09-01T19:53:19Z</time>
  <course>275.99</course>
  <speed>3.9824615503479754</speed>
  <fix>3d</fix>
</trkpt>
<trkpt lat="-27.2746487" lon="151.2888462">
  <ele>390.0</ele>
  <time>2026-09-01T19:53:19Z</time>
  <course>278.87</course>
  <speed>5.42</speed>
  <fix>3d</fix>
</trkpt>
<trkpt lat="-27.274646" lon="151.2888292">
  <ele>388.61</ele>
  <time>2026-09-01T19:53:19Z</time>
  <course>275.16</course>
  <speed>3.421067084989711</speed>
  <fix>3d</fix>
</trkpt>
<trkpt lat="-27.2746474" lon="151.2888362">
  <ele>389.4</ele>
  <time>2026-09-01T19:53:19Z</time>
  <course>278.06</course>
  <speed>4.52</speed>
  <fix>3d</fix>
</trkpt>
<trkpt lat="-27.2746457" lon="151.288826">
  <ele>388.22</ele>
  <time>2026-09-01T19:53:19Z</time>
  <course>274.14</course>
  <speed>2.859108252585061</speed>
  <fix>3d</fix>
</trkpt>
<trkpt lat="-27.2746474" lon="151.2888362">
  <ele>389.4</ele>
  <time>2026-09-01T19:53:19Z</time>
  <course>278.06</course>
  <speed>4.52</speed>
  <fix>3d</fix>
</trkpt>
<trkpt lat="-27.2746455" lon="151.2888233">
  <ele>387.83</ele>
  <time>2026-09-01T19:53:19Z</time>
  <course>272.83</course>
  <speed>2.3313729860320507</speed>
  <fix>3d</fix>
</trkpt>
<trkpt lat="-27.2746464" lon="151.2888282">
  <ele>388.68</ele>
  <time>2026-09-01T19:53:19Z</time>
  <course>276.51</course>
  <speed>3.45</speed>
  <fix>3d</fix>
</trkpt>
<trkpt lat="-27.2746453" lon="151.2888211">
  <ele>387.45</ele>
  <time>2026-09-01T19:53:19Z</time>
  <course>271.01</course>
  <speed>1.8353473785635241</speed>
  <fix>3d</fix>
</trkpt>
<trkpt lat="-27.2746464" lon="151.2888282">
  <ele>388.68</ele>
  <time>2026-09-01T19:53:19Z</time>
  <course>276.51</course>
  <speed>3.45</speed>
  <fix>3d</fix>
</trkpt>
<trkpt lat="-27.2746453" lon="151.2888194">
  <ele>387.08</ele>
  <time>2026-09-01T19:53:19Z</time>
  <course>268.55</course>
  <speed>1.3823168956501979</speed>
  <fix>3d</fix>
</trkpt>
<trkpt lat="-27.2746459" lon="151.2888223">
  <ele>387.91</ele>
  <time>2026-09-01T19:53:19Z</time>
  <course>274.12</course>
  <speed>2.39</speed>
  <fix>3d</fix>
</trkpt>
<trkpt lat="-27.2746453" lon="151.2888182">
  <ele>386.73</ele>
  <time>2026-09-01T19:53:19Z</time>
  <course>265.59</course>
  <speed>0.9600520819205591</speed>
  <fix>3d</fix>
</trkpt>
<trkpt lat="-27.2746459" lon="151.2888223">
  <ele>387.91</ele>
  <time>2026-09-01T19:53:19Z</time>
  <course>274.12</course>
  <speed>2.39</speed>
  <fix>3d</fix>
</trkpt>
<trkpt lat="-27.2746454" lon="151.2888173">
  <ele>386.39</ele>
  <time>2026-09-01T19:53:19Z</time>
  <course>262.53</course>
  <speed>0.5953990258641678</speed>
  <fix>3d</fix>
</trkpt>
<trkpt lat="-27.2746458" lon="151.2888185">
  <ele>387.17</ele>
  <time>2026-09-01T19:53:19Z</time>
  <course>270.39</course>
  <speed>1.44</speed>
  <fix>3d</fix>
</trkpt>
<trkpt lat="-27.2746456" lon="151.2888168">
  <ele>386.08</ele>
  <time>2026-09-01T19:53:19Z</time>
  <course>259.75</course>
  <speed>0.31240998703626616</speed>
  <fix>3d</fix>
</trkpt>
<trkpt lat="-27.2746458" lon="151.2888185">
  <ele>387.17</ele>
  <time>2026-09-01T19:53:19Z</time>
  <course>270.39</course>
  <speed>1.44</speed>
  <fix>3d</fix>
</trkpt>
<trkpt lat="-27.2746458" lon="151.2888166">
  <ele>385.78</ele>
  <time>2026-09-01T19:53:19Z</time>
  <course>257.49</course>
  <speed>0.35510561809129404</speed>
  <fix>3d</fix>
</trkpt>
<trkpt lat="-27.2746459" lon="151.2888164">
  <ele>386.49</ele>
  <time>2026-09-01T19:53:19Z</time>
  <course>255.75</course>
  <speed>0.66</speed>
  <fix>3d</fix>
</trkpt>
<trkpt lat="-27.2746462" lon="151.2888168">
  <ele>385.5</ele>
  <time>2026-09-01T19:53:19Z</time>
  <course>255.87</course>
  <speed>0.6129437168288782</speed>
  <fix>3d</fix>
</trkpt>
<trkpt lat="-27.2746459" lon="151.2888164">
  <ele>386.49</ele>
  <time>2026-09-01T19:53:19Z</time>
  <course>255.75</course>
  <speed>0.66</speed>
  <fix>3d</fix>
</trkpt>
<trkpt lat="-27.2746468" lon="151.2888172">
  <ele>385.24</ele>
  <time>2026-09-01T19:53:19Z</time>
  <course>254.87</course>
  <speed>0.9002777349240623</speed>
  <fix>3d</fix>
</trkpt>
<trkpt lat="-27.2746464" lon="151.2888158">
  <ele>385.89</ele>
  <time>2026-09-01T19:53:19Z</time>
  <course>177.63</course>
  <speed>0.42</speed>
  <fix>3d</fix>
</trkpt>
<trkpt lat="-27.2746476" lon="151.2888178">
  <ele>385.0</ele>
  <time>2026-09-01T19:53:19Z</time>
  <course>254.41</course>
  <speed>1.153126185636247</speed>
  <fix>3d</fix>
</trkpt>
<trkpt lat="-27.2746464" lon="151.2888158">
  <ele>385.89</ele>
  <time>2026-09-01T19:53:19Z</time>
  <course>177.63</course>
  <speed>0.42</speed>
  <fix>3d</fix>
</trkpt>
<trkpt lat="-27.2746484" lon="151.2888186">
  <ele>384.78</ele>
  <time>2026-09-01T19:53:20Z</time>
  <course>254.39</course>
  <speed>1.3720787149431333</speed>
  <fix>3d</fix>
</trkpt>
<trkpt lat="-27.2746474" lon="151.2888164">
  <ele>385.36</ele>
  <time>2026-09-01T19:53:20Z</time>
  <course>143.48</course>
  <speed>0.91</speed>
  <fix>3d</fix>
</trkpt>
<trkpt lat="-27.2746494" lon="151.2888194">
  <ele>384.57</ele>
  <time>2026-09-01T19:53:20Z</time>
  <course>254.59</course>
  <speed>1.5425303886795876</speed>
  <fix>3d</fix>
</trkpt>
<trkpt lat="-27.2746474" lon="151.2888164">
  <ele>385.36</ele>
  <time>2026-09-01T19:53:20Z</time>
  <course>143.48</course>
  <speed>0.91</speed>
  <fix>3d</fix>
</trkpt>
<trkpt lat="-27.2746505" lon="151.2888204">
  <ele>384.38</ele>
  <time>2026-09-01T19:53:20Z</time>
  <course>254.72</course>
  <speed>1.6635203635663738</speed>
  <fix>3d</fix>
</trkpt>
<trkpt lat="-27.274649" lon="151.2888178">
  <ele>384.91</ele>
  <time>2026-09-01T19:53:20Z</time>
  <course>138.93</course>
  <speed>1.37</speed>
  <fix>3d</fix>
</trkpt>
<trkpt lat="-27.2746517" lon="151.2888215">
  <ele>384.2</ele>
  <time>2026-09-01T19:53:20Z</time>
  <course>254.5</course>
  <speed>1.7281782315490495</speed>
  <fix>3d</fix>
</trkpt>
<trkpt lat="-27.274649" lon="151.2888178">
  <ele>384.91</ele>
  <time>2026-09-01T19:53:20Z</time>
  <course>138.93</course>
  <speed>1.37</speed>
  <fix>3d</fix>
</trkpt>
<trkpt lat="-27.2746529" lon="151.2888226">
  <ele>384.02</ele>
  <time>2026-09-01T19:53:20Z</time>
  <course>253.67</course>
  <speed>1.7638877515306919</speed>
  <fix>3d</fix>
</trkpt>
<trkpt lat="-27.274651" lon="151.2888199">
  <ele>384.52</ele>
  <time>2026-09-01T19:53:20Z</time>
  <course>139.21</course>
  <speed>1.67</speed>
  <fix>3d</fix>
</trkpt>
<trkpt lat="-27.2746541" lon="151.2888237">
  <ele>383.86</ele>
  <time>2026-09-01T19:53:20Z</time>
  <course>252.05</course>
  <speed>1.7698022488402483</speed>
  <fix>3d</fix>
</trkpt>
<trkpt lat="-27.274651" lon="151.2888199">
  <ele>384.52</ele>
  <time>2026-09-01T19:53:20Z</time>
  <course>139.21</course>
  <speed>1.67</speed>
  <fix>3d</fix>
</trkpt>
<trkpt lat="-27.2746553" lon="151.2888249">
  <ele>383.69</ele>
  <time>2026-09-01T19:53:20Z</time>
  <course>249.53</course>
  <speed>1.7469115604403103</speed>
  <fix>3d</fix>
</trkpt>
<trkpt lat="-27.2746534" lon="151.2888221">
  <ele>384.16</ele>
  <time>2026-09-01T19:53:20Z</time>
  <course>139.33</course>
  <speed>1.78</speed>
  <fix>3d</fix>
</trkpt>
<trkpt lat="-27.2746564" lon="151.288826">
  <ele>383.52</ele>
  <time>2026-09-01T19:53:20Z</time>
  <course>245.99</course>
  <speed>1.7186331778480246</speed>
  <fix>3d</fix>
</trkpt>
<trkpt lat="-27.2746534" lon="151.2888221">
  <ele>384.16</ele>
  <time>2026-09-01T19:53:20Z</time>
  <course>139.33</course>
  <speed>1.78</speed>
  <fix>3d</fix>
</trkpt>
<trkpt lat="-27.2746575" lon="151.2888273">
  <ele>383.34</ele>
  <time>2026-09-01T19:53:20Z</time>
  <course>241.43</course>
  <speed>1.6867127793432999</speed>
  <fix>3d</fix>
</trkpt>
<trkpt lat="-27.2746559" lon="151.2888245">
  <ele>383.83</ele>
  <time>2026-09-01T19:53:20Z</time>
  <course>137.14</course>
  <speed>1.77</speed>
  <fix>3d</fix>
</trkpt>
<trkpt lat="-27.2746585" lon="151.2888285">
  <ele>383.16</ele>
  <time>2026-09-01T19:53:20Z</time>
  <course>235.91</course>
  <speed>1.6602710622064096</speed>
  <fix>3d</fix>
</trkpt>
<trkpt lat="-27.2746559" lon="151.2888245">
  <ele>383.83</ele>
  <time>2026-09-01T19:53:20Z</time>
  <course>137.14</course>
  <speed>1.77</speed>
  <fix>3d</fix>
</trkpt>
<trkpt lat="-27.2746594" lon="151.2888298">
  <ele>382.97</ele>
  <time>2026-09-01T19:53:20Z</time>
  <course>229.52</course>
  <speed>1.647573974060042</speed>
  <fix>3d</fix>
</trkpt>
<trkpt lat="-27.274658" lon="151.2888271">
  <ele>383.49</ele>
  <time>2026-09-01T19:53:20Z</time>
  <course>132.32</course>
  <speed>1.71</speed>
  <fix>3d</fix>
</trkpt>
<trkpt lat="-27.2746603" lon="151.2888312">
  <ele>382.77</ele>
  <time>2026-09-01T19:53:20Z</time>
  <course>222.56</course>
  <speed>1.6635504200354134</speed>
  <fix>3d</fix>
</trkpt>
<trkpt lat="-27.274658" lon="151.2888271">
  <ele>383.49</ele>
  <time>2026-09-01T19:53:20Z</time>
  <course>132.32</course>
  <speed>1.71</speed>
  <fix>3d</fix>
</trkpt>
<trkpt lat="-27.2746611" lon="151.2888327">
  <ele>382.57</ele>
  <time>2026-09-01T19:53:20Z</time>
  <course>215.23</course>
  <speed>1.7084495895401772</speed>
  <fix>3d</fix>
</trkpt>
<trkpt lat="-27.27466" lon="151.2888297">
  <ele>383.12</ele>
  <time>2026-09-01T19:53:20Z</time>
  <course>125.59</course>
  <speed>1.68</speed>
  <fix>3d</fix>
</trkpt>
<trkpt lat="-27.2746618" lon="151.2888343">
  <ele>382.36</ele>
  <time>2026-09-01T19:53:20Z</time>
  <course>207.53</course>
  <speed>1.7962739212046697</speed>
  <fix>3d</fix>
</trkpt>
<trkpt lat="-27.27466" lon="151.2888297">
  <ele>383.12</ele>
  <time>2026-09-01T19:53:20Z</time>
  <course>125.59</course>
  <speed>1.68</speed>
  <fix>3d</fix>
</trkpt>
<trkpt lat="-27.2746624" lon="151.288836">
  <ele>382.15</ele>
  <time>2026-09-01T19:53:20Z</time>
  <course>200.22</course>
  <speed>1.9137659209004638</speed>
  <fix>3d</fix>
</trkpt>
<trkpt lat="-27.2746616" lon="151.2888326">
  <ele>382.72</ele>
  <time>2026-09-01T19:53:20Z</time>
  <course>118.04</course>
  <speed>1.73</speed>
  <fix>3d</fix>
</trkpt>
<trkpt lat="-27.274663" lon="151.2888379">
  <ele>381.95</ele>
  <time>2026-09-01T19:53:20Z</time>
  <course>193.06</course>
  <speed>2.060412580043133</speed>
  <fix>3d</fix>
</trkpt>
<trkpt lat="-27.2746616" lon="151.2888326">
  <ele>382.72</ele>
  <time>2026-09-01T19:53:20Z</time>
  <course>118.04</course>
  <speed>1.73</speed>
  <fix>3d</fix>
</trkpt>
<trkpt lat="-27.2746636" lon="151.28884">
  <ele>381.74</ele>
  <time>2026-09-01T19:53:20Z</time>
  <course>186.26</course>
  <speed>2.2322186272854188</speed>
  <fix>3d</fix>
</trkpt>
<trkpt lat="-27.274663" lon="151.288836">
  <ele>382.32</ele>
  <time>2026-09-01T19:53:20Z</time>
  <course>110.41</course>
  <speed>1.92</speed>
  <fix>3d</fix>
</trkpt>
<trkpt lat="-27.274664" lon="151.2888423">
  <ele>381.52</ele>
  <time>2026-09-01T19:53:20Z</time>
  <course>179.57</course>
  <speed>2.4253865671269805</speed>
  <fix>3d</fix>
</trkpt>
<trkpt lat="-27.274663" lon="151.288836">
  <ele>382.32</ele>
  <time>2026-09-01T19:53:20Z</time>
  <course>110.41</course>
  <speed>1.92</speed>
  <fix>3d</fix>
</trkpt>
<trkpt lat="-27.2746643" lon="151.2888448">
  <ele>381.31</ele>
  <time>2026-09-01T19:53:20Z</time>
  <course>173.07</course>
  <speed>2.6161995336747537</speed>
  <fix>3d</fix>
</trkpt>
<trkpt lat="-27.274664" lon="151.28884">
  <ele>381.9</ele>
  <time>2026-09-01T19:53:20Z</time>
  <course>102.53</course>
  <speed>2.22</speed>
  <fix>3d</fix>
</trkpt>
<trkpt lat="-27.2746644" lon="151.2888475">
  <ele>381.09</ele>
  <time>2026-09-01T19:53:20Z</time>
  <course>166.69</course>
  <speed>2.8100177935379698</speed>
  <fix>3d</fix>
</trkpt>
<trkpt lat="-27.274664" lon="151.28884">
  <ele>381.9</ele>
  <time>2026-09-01T19:53:20Z</time>
  <course>102.53</course>
  <speed>2.22</speed>
  <fix>3d</fix>
</trkpt>
<trkpt lat="-27.2746643" lon="151.2888503">
  <ele>380.87</ele>
  <time>2026-09-01T19:53:20Z</time>
  <course>160.32</course>
  <speed>2.987390165344996</speed>
  <fix>3d</fix>
</trkpt>
<trkpt lat="-27.2746646" lon="151.2888448">
  <ele>381.47</ele>
  <time>2026-09-01T19:53:20Z</time>
  <course>94.08</course>
  <speed>2.59</speed>
  <fix>3d</fix>
</trkpt>
<trkpt lat="-27.2746642" lon="151.2888534">
  <ele>380.63</ele>
  <time>2026-09-01T19:53:20Z</time>
  <course>153.89</course>
  <speed>3.154203544478384</speed>
  <fix>3d</fix>
</trkpt>
<trkpt lat="-27.2746646" lon="151.2888448">
  <ele>381.47</ele>
  <time>2026-09-01T19:53:20Z</time>
  <course>94.08</course>
  <speed>2.59</speed>
  <fix>3d</fix>
</trkpt>
<trkpt lat="-27.2746638" lon="151.2888565">
  <ele>380.4</ele>
  <time>2026-09-01T19:53:20Z</time>
  <course>147.38</course>
  <speed>3.3241540277189325</speed>
  <fix>3d</fix>
</trkpt>
<trkpt lat="-27.2746646" lon="151.2888504">
  <ele>381.03</ele>
  <time>2026-09-01T19:53:20Z</time>
  <course>86.24</course>
  <speed>2.95</speed>
  <fix>3d</fix>
</trkpt>
<trkpt lat="-27.2746633" lon="151.2888598">
  <ele>380.15</ele>
  <time>2026-09-01T19:53:20Z</time>
  <course>140.82</course>
  <speed>3.5046397817750115</speed>
  <fix>3d</fix>
</trkpt>
<trkpt lat="-27.2746646" lon="151.2888504">
  <ele>381.03</ele>
  <time>2026-09-01T19:53:20Z</time>
  <course>86.24</course>
  <speed>2.95</speed>
  <fix>3d</fix>
</trkpt>
<trkpt lat="-27.2746627" lon="151.2888633">
  <ele>379.91</ele>
  <time>2026-09-01T19:53:20Z</time>
  <course>134.28</course>
  <speed>3.718494318941472</speed>
  <fix>3d</fix>
</trkpt>
<trkpt lat="-27.274664" lon="151.2888567">
  <ele>380.56</ele>
  <time>2026-09-01T19:53:20Z</time>
  <course>80.72</course>
  <speed>3.31</speed>
  <fix>3d</fix>
</trkpt>
<trkpt lat="-27.274662" lon="151.2888671">
  <ele>379.68</ele>
  <time>2026-09-01T19:53:20Z</time>
  <course>127.9</course>
  <speed>4.059605892201853</speed>
  <fix>3d</fix>
</trkpt>
<trkpt lat="-27.274664" lon="151.2888567">
  <ele>380.56</ele>
  <time>2026-09-01T19:53:20Z</time>
  <course>80.72</course>
  <speed>3.31</speed>
  <fix>3d</fix>
</trkpt>
<trkpt lat="-27.2746613" lon="151.2888712">
  <ele>379.47</ele>
  <time>2026-09-01T19:53:20Z</time>
  <course>121.62</course>
  <speed>4.3537799668793555</speed>
  <fix>3d</fix>
</trkpt>
<trkpt lat="-27.2746629" lon="151.2888636">
  <ele>380.08</ele>
  <time>2026-09-01T19:53:20Z</time>
  <course>78.48</course>
  <speed>3.77</speed>
  <fix>3d</fix>
</trkpt>
<trkpt lat="-27.2746606" lon="151.2888755">
  <ele>379.27</ele>
  <time>2026-09-01T19:53:20Z</time>
  <course>115.65</course>
  <speed>4.618538729944786</speed>
  <fix>3d</fix>
</trkpt>
<trkpt lat="-27.2746629" lon="151.2888636">
  <ele>380.08</ele>
  <time>2026-09-01T19:53:20Z</time>
  <course>78.48</course>
  <speed>3.77</speed>
  <fix>3d</fix>
</trkpt>
<trkpt lat="-27.2746598" lon="151.2888801">
  <ele>379.07</ele>
  <time>2026-09-01T19:53:20Z</time>
  <course>109.95</course>
  <speed>4.863681733008442</speed>
  <fix>3d</fix>
</trkpt>
<trkpt lat="-27.2746614" lon="151.2888716">
  <ele>379.64</ele>
  <time>2026-09-01T19:53:20Z</time>
  <course>78.31</course>
  <speed>4.32</speed>
  <fix>3d</fix>
</trkpt>
<trkpt lat="-27.2746589" lon="151.288885">
  <ele>378.88</ele>
  <time>2026-09-01T19:53:20Z</time>
  <course>104.53</course>
  <speed>5.087258593781134</speed>
  <fix>3d</fix>
</trkpt>
<trkpt lat="-27.2746614" lon="151.2888716">
  <ele>379.64</ele>
  <time>2026-09-01T19:53:20Z</time>
  <course>78.31</course>
  <speed>4.32</speed>
  <fix>3d</fix>
</trkpt>
<trkpt lat="-27.274658" lon="151.2888901">
  <ele>378.7</ele>
  <time>2026-09-01T19:53:20Z</time>
  <course>99.38</course>
  <speed>5.302980294136496</speed>
  <fix>3d</fix>
</trkpt>
<trkpt lat="-27.2746597" lon="151.2888807">
  <ele>379.23</ele>
  <time>2026-09-01T19:53:20Z</time>
  <course>78.38</course>
  <speed>4.84</speed>
  <fix>3d</fix>
</trkpt>
<trkpt lat="-27.2746571" lon="151.2888955">
  <ele>378.52</ele>
  <time>2026-09-01T19:53:20Z</time>
  <course>94.48</course>
  <speed>5.5187136182266245</speed>
  <fix>3d</fix>
</trkpt>
<trkpt lat="-27.2746597" lon="151.2888807">
  <ele>379.23</ele>
  <time>2026-09-01T19:53:20Z</time>
  <course>78.38</course>
  <speed>4.84</speed>
  <fix>3d</fix>
</trkpt>
<trkpt lat="-27.2746561" lon="151.288901">
  <ele>378.34</ele>
  <time>2026-09-01T19:53:20Z</time>
  <course>90.02</course>
  <speed>5.714857828502822</speed>
  <fix>3d</fix>
</trkpt>
<trkpt lat="-27.2746579" lon="151.2888908">
  <ele>378.86</ele>
  <time>2026-09-01T19:53:20Z</time>
  <course>78.32</course>
  <speed>5.29</speed>
  <fix>3d</fix>
</trkpt>
<trkpt lat="-27.274655" lon="151.2889067">
  <ele>378.17</ele>
  <time>2026-09-01T19:53:20Z</time>
  <course>86.1</course>
  <speed>5.901228685621326</speed>
  <fix>3d</fix>
</trkpt>
<trkpt lat="-27.2746579" lon="151.2888908">
  <ele>378.86</ele>
  <time>2026-09-01T19:53:20Z</time>
  <course>78.32</course>
  <speed>5.29</speed>
  <fix>3d</fix>
</trkpt>
<trkpt lat="-27.2746539" lon="151.2889128">
  <ele>377.99</ele>
  <time>2026-09-01T19:53:20Z</time>
  <course>82.78</course>
  <speed>6.077836786225836</speed>
  <fix>3d</fix>
</trkpt>
<trkpt lat="-27.2746558" lon="151.2889017">
  <ele>378.5</ele>
  <time>2026-09-01T19:53:20Z</time>
  <course>78.16</course>
  <speed>5.7</speed>
  <fix>3d</fix>
</trkpt>
<trkpt lat="-27.2746528" lon="151.2889188">
  <ele>377.81</ele>
  <time>2026-09-01T19:53:20Z</time>
  <course>80.38</course>
  <speed>6.242635661321266</speed>
  <fix>3d</fix>
</trkpt>
<trkpt lat="-27.2746558" lon="151.2889017">
  <ele>378.5</ele>
  <time>2026-09-01T19:53:20Z</time>
  <course>78.16</course>
  <speed>5.7</speed>
  <fix>3d</fix>
</trkpt>
<trkpt lat="-27.2746516" lon="151.288925">
  <ele>377.64</ele>
  <time>2026-09-01T19:53:20Z</time>
  <course>78.77</course>
  <speed>6.395600050034399</speed>
  <fix>3d</fix>
</trkpt>
<trkpt lat="-27.2746537" lon="151.2889134">
  <ele>378.15</ele>
  <time>2026-09-01T19:53:20Z</time>
  <course>77.99</course>
  <speed>6.06</speed>
  <fix>3d</fix>
</trkpt>
<trkpt lat="-27.2746504" lon="151.2889314">
  <ele>377.47</ele>
  <time>2026-09-01T19:53:20Z</time>
  <course>77.92</course>
  <speed>6.538776643990832</speed>
  <fix>3d</fix>
</trkpt>
<trkpt lat="-27.2746537" lon="151.2889134">
  <ele>378.15</ele>
  <time>2026-09-01T19:53:20Z</time>
  <course>77.99</course>
  <speed>6.06</speed>
  <fix>3d</fix>
</trkpt>
<trkpt lat="-27.2746492" lon="151.2889379">
  <ele>377.3</ele>
  <time>2026-09-01T19:53:20Z</time>
  <course>77.69</course>
  <speed>6.660330322138686</speed>
  <fix>3d</fix>
</trkpt>
<trkpt lat="-27.2746514" lon="151.2889257">
  <ele>377.81</ele>
  <time>2026-09-01T19:53:20Z</time>
  <course>77.92</course>
  <speed>6.38</speed>
  <fix>3d</fix>
</trkpt>
<trkpt lat="-27.2746479" lon="151.2889445">
  <ele>377.13</ele>
  <time>2026-09-01T19:53:20Z</time>
  <course>77.87</course>
  <speed>6.779859880558004</speed>
  <fix>3d</fix>
</trkpt>
<trkpt lat="-27.2746514" lon="151.2889257">
  <ele>377.81</ele>
  <time>2026-09-01T19:53:20Z</time>
  <course>77.92</course>
  <speed>6.38</speed>
  <fix>3d</fix>
</trkpt>
<trkpt lat="-27.2746467" lon="151.2889513">
  <ele>376.96</ele>
  <time>2026-09-01T19:53:20Z</time>
  <course>78.27</course>
  <speed>6.887626586858495</speed>
  <fix>3d</fix>
</trkpt>
<trkpt lat="-27.2746489" lon="151.2889386">
  <ele>377.47</ele>
  <time>2026-09-01T19:53:20Z</time>
  <course>78.03</course>
  <speed>6.65</speed>
  <fix>3d</fix>
</trkpt>
<trkpt lat="-27.2746455" lon="151.2889581">
  <ele>376.79</ele>
  <time>2026-09-01T19:53:20Z</time>
  <course>78.74</course>
  <speed>6.985656733622116</speed>
  <fix>3d</fix>
</trkpt>
<trkpt lat="-27.2746489" lon="151.2889386">
  <ele>377.47</ele>
  <time>2026-09-01T19:53:20Z</time>
  <course>78.03</course>
  <speed>6.65</speed>
  <fix>3d</fix>
</trkpt>
<trkpt lat="-27.2746442" lon="151.2889651">
  <ele>376.62</ele>
  <time>2026-09-01T19:53:20Z</time>
  <course>79.2</course>
  <speed>7.083741948998425</speed>
  <fix>3d</fix>
</trkpt>
<trkpt lat="-27.2746464" lon="151.288952">
  <ele>377.13</ele>
  <time>2026-09-01T19:53:20Z</time>
  <course>78.29</course>
  <speed>6.88</speed>
  <fix>3d</fix>
</trkpt>
<trkpt lat="-27.274643" lon="151.2889721">
  <ele>376.45</ele>
  <time>2026-09-01T19:53:20Z</time>
  <course>79.59</course>
  <speed>7.170160388722138</speed>
  <fix>3d</fix>
</trkpt>
<trkpt lat="-27.2746464" lon="151.288952">
  <ele>377.13</ele>
  <time>2026-09-01T19:53:20Z</time>
  <course>78.29</course>
  <speed>6.88</speed>
  <fix>3d</fix>
</trkpt>
<trkpt lat="-27.2746418" lon="151.288979">
  <ele>376.28</ele>
  <time>2026-09-01T19:53:20Z</time>
  <course>79.88</course>
  <speed>7.237029777470865</speed>
  <fix>3d</fix>
</trkpt>
<trkpt lat="-27.2746439" lon="151.2889657">
  <ele>376.78</ele>
  <time>2026-09-01T19:53:20Z</time>
  <course>78.65</course>
  <speed>7.07</speed>
  <fix>3d</fix>
</trkpt>
<trkpt lat="-27.2746406" lon="151.2889862">
  <ele>376.11</ele>
  <time>2026-09-01T19:53:20Z</time>
  <course>80.11</course>
  <speed>7.313802020837041</speed>
  <fix>3d</fix>
</trkpt>
<trkpt lat="-27.2746439" lon="151.2889657">
  <ele>376.78</ele>
  <time>2026-09-01T19:53:20Z</time>
  <course>78.65</course>
  <speed>7.07</speed>
  <fix>3d</fix>
</trkpt>
<trkpt lat="-27.2746393" lon="151.2889934">
  <ele>375.93</ele>
  <time>2026-09-01T19:53:20Z</time>
  <course>80.27</course>
  <speed>7.382628258283089</speed>
  <fix>3d</fix>
</trkpt>
<trkpt lat="-27.2746414" lon="151.2889799">
  <ele>376.44</ele>
  <time>2026-09-01T19:53:20Z</time>
  <course>79.03</course>
  <speed>7.23</speed>
  <fix>3d</fix>
</trkpt>
<trkpt lat="-27.2746381" lon="151.2890008">
  <ele>375.76</ele>
  <time>2026-09-01T19:53:20Z</time>
  <course>80.38</course>
  <speed>7.459524113507509</speed>
  <fix>3d</fix>
</trkpt>
<trkpt lat="-27.2746414" lon="151.2889799">
  <ele>376.44</ele>
  <time>2026-09-01T19:53:20Z</time>
  <course>79.03</course>
  <speed>7.23</speed>
  <fix>3d</fix>
</trkpt>
<trkpt lat="-27.2746369" lon="151.2890081">
  <ele>375.58</ele>
  <time>2026-09-01T19:53:20Z</time>
  <course>80.45</course>
  <speed>7.526652642443386</speed>
  <fix>3d</fix>
</trkpt>
<trkpt lat="-27.2746389" lon="151.2889945">
  <ele>376.09</ele>
  <time>2026-09-01T19:53:20Z</time>
  <course>79.38</course>
  <speed>7.38</speed>
  <fix>3d</fix>
</trkpt>
<trkpt lat="-27.2746357" lon="151.2890156">
  <ele>375.4</ele>
  <time>2026-09-01T19:53:20Z</time>
  <course>80.5</course>
  <speed>7.59557766071811</speed>
  <fix>3d</fix>
</trkpt>
<trkpt lat="-27.2746389" lon="151.2889945">
  <ele>376.09</ele>
  <time>2026-09-01T19:53:20Z</time>
  <course>79.38</course>
  <speed>7.38</speed>
  <fix>3d</fix>
</trkpt>
<trkpt lat="-27.2746345" lon="151.2890232">
  <ele>375.22</ele>
  <time>2026-09-01T19:53:20Z</time>
  <course>80.53</course>
  <speed>7.664522163840353</speed>
  <fix>3d</fix>
</trkpt>
<trkpt lat="-27.2746365" lon="151.2890093">
  <ele>375.74</ele>
  <time>2026-09-01T19:53:20Z</time>
  <course>79.7</course>
  <speed>7.52</speed>
  <fix>3d</fix>
</trkpt>
<trkpt lat="-27.2746333" lon="151.2890309">
  <ele>375.03</ele>
  <time>2026-09-01T19:53:20Z</time>
  <course>80.56</course>
  <speed>7.731785046158487</speed>
  <fix>3d</fix>
</trkpt>
<trkpt lat="-27.2746365" lon="151.2890093">
  <ele>375.74</ele>
  <time>2026-09-01T19:53:20Z</time>
  <course>79.7</course>
  <speed>7.52</speed>
  <fix>3d</fix>
</trkpt>
<trkpt lat="-27.2746321" lon="151.2890387">
  <ele>374.85</ele>
  <time>2026-09-01T19:53:20Z</time>
  <course>80.57</course>
  <speed>7.8007820120805835</speed>
  <fix>3d</fix>
</trkpt>
<trkpt lat="-27.2746341" lon="151.2890244">
  <ele>375.38</ele>
  <time>2026-09-01T19:53:20Z</time>
  <course>79.96</course>
  <speed>7.66</speed>
  <fix>3d</fix>
</trkpt>
<trkpt lat="-27.2746309" lon="151.2890465">
  <ele>374.66</ele>
  <time>2026-09-01T19:53:20Z</time>
  <course>80.57</course>
  <speed>7.881326030561101</speed>
  <fix>3d</fix>
</trkpt>
<trkpt lat="-27.2746341" lon="151.2890244">
  <ele>375.38</ele>
  <time>2026-09-01T19:53:20Z</time>
  <course>79.96</course>
  <speed>7.66</speed>
  <fix>3d</fix>
</trkpt>
<trkpt lat="-27.2746297" lon="151.2890544">
  <ele>374.48</ele>
  <time>2026-09-01T19:53:20Z</time>
  <course>80.55</course>
  <speed>7.950345904424537</speed>
  <fix>3d</fix>
</trkpt>
<trkpt lat="-27.2746317" lon="151.2890398">
  <ele>375.01</ele>
  <time>2026-09-01T19:53:20Z</time>
  <course>80.17</course>
  <speed>7.8</speed>
  <fix>3d</fix>
</trkpt>
<trkpt lat="-27.2746284" lon="151.2890626">
  <ele>374.29</ele>
  <time>2026-09-01T19:53:20Z</time>
  <course>80.54</course>
  <speed>8.009519336389669</speed>
  <fix>3d</fix>
</trkpt>
<trkpt lat="-27.2746317" lon="151.2890398">
  <ele>375.01</ele>
  <time>2026-09-01T19:53:20Z</time>
  <course>80.17</course>
  <speed>7.8</speed>
  <fix>3d</fix>
</trkpt>
<trkpt lat="-27.2746272" lon="151.2890705">
  <ele>374.13</ele>
  <time>2026-09-01T19:53:20Z</time>
  <course>80.53</course>
  <speed>8.058839866879104</speed>
  <fix>3d</fix>
</trkpt>
<trkpt lat="-27.2746293" lon="151.2890555">
  <ele>374.65</ele>
  <time>2026-09-01T19:53:20Z</time>
  <course>80.34</course>
  <speed>7.93</speed>
  <fix>3d</fix>
</trkpt>
<trkpt lat="-27.274626" lon="151.2890785">
  <ele>373.97</ele>
  <time>2026-09-01T19:53:20Z</time>
  <course>80.52</course>
  <speed>8.088436190018438</speed>
  <fix>3d</fix>
</trkpt>
<trkpt lat="-27.2746293" lon="151.2890555">
  <ele>374.65</ele>
  <time>2026-09-01T19:53:20Z</time>
  <course>80.34</course>
  <speed>7.93</speed>
  <fix>3d</fix>
</trkpt>
<trkpt lat="-27.2746249" lon="151.2890865">
  <ele>373.82</ele>
  <time>2026-09-01T19:53:20Z</time>
  <course>80.53</course>
  <speed>8.108168720494167</speed>
  <fix>3d</fix>
</trkpt>
<trkpt lat="-27.2746269" lon="151.2890714">
  <ele>374.3</ele>
  <time>2026-09-01T19:53:20Z</time>
  <course>80.46</course>
  <speed>8.04</speed>
  <fix>3d</fix>
</trkpt>
<trkpt lat="-27.2746237" lon="151.2890945">
  <ele>373.68</ele>
  <time>2026-09-01T19:53:20Z</time>
  <course>80.54</course>
  <speed>8.108168720494167</speed>
  <fix>3d</fix>
</trkpt>
<trkpt lat="-27.2746269" lon="151.2890714">
  <ele>374.3</ele>
  <time>2026-09-01T19:53:20Z</time>
  <course>80.46</course>
  <speed>8.04</speed>
  <fix>3d</fix>
</trkpt>
<trkpt lat="-27.2746225" lon="151.2891026">
  <ele>373.56</ele>
  <time>2026-09-01T19:53:20Z</time>
  <course>80.55</course>
  <speed>8.096678331266471</speed>
  <fix>3d</fix>
</trkpt>
<trkpt lat="-27.2746246" lon="151.2890875">
  <ele>374.0</ele>
  <time>2026-09-01T19:53:20Z</time>
  <course>80.54</course>
  <speed>8.1</speed>
  <fix>3d</fix>
</trkpt>
<trkpt lat="-27.2746213" lon="151.2891106">
  <ele>373.44</ele>
  <time>2026-09-01T19:53:20Z</time>
  <course>80.57</course>
  <speed>8.076942490819158</speed>
  <fix>3d</fix>
</trkpt>
<trkpt lat="-27.2746246" lon="151.2890875">
  <ele>374.0</ele>
  <time>2026-09-01T19:53:20Z</time>
  <course>80.54</course>
  <speed>8.1</speed>
  <fix>3d</fix>
</trkpt>
<trkpt lat="-27.2746201" lon="151.2891186">
  <ele>373.33</ele>
  <time>2026-09-01T19:53:20Z</time>
  <course>80.59</course>
  <speed>8.045719358764634</speed>
  <fix>3d</fix>
</trkpt>
<trkpt lat="-27.2746222" lon="151.2891037">
  <ele>373.73</ele>
  <time>2026-09-01T19:53:20Z</time>
  <course>80.59</course>
  <speed>8.1</speed>
  <fix>3d</fix>
</trkpt>
<trkpt lat="-27.2746189" lon="151.2891266">
  <ele>373.23</ele>
  <time>2026-09-01T19:53:20Z</time>
  <course>80.6</course>
  <speed>8.004629910245695</speed>
  <fix>3d</fix>
</trkpt>
<trkpt lat="-27.2746222" lon="151.2891037">
  <ele>373.73</ele>
  <time>2026-09-01T19:53:20Z</time>
  <course>80.59</course>
  <speed>8.1</speed>
  <fix>3d</fix>
</trkpt>
<trkpt lat="-27.2746178" lon="151.2891346">
  <ele>373.14</ele>
  <time>2026-09-01T19:53:20Z</time>
  <course>80.61</course>
  <speed>7.955287549799818</speed>
  <fix>3d</fix>
</trkpt>
<trkpt lat="-27.2746198" lon="151.2891198">
  <ele>373.51</ele>
  <time>2026-09-01T19:53:20Z</time>
  <course>80.61</course>
  <speed>8.05</speed>
  <fix>3d</fix>
</trkpt>
<trkpt lat="-27.2746166" lon="151.2891425">
  <ele>373.05</ele>
  <time>2026-09-01T19:53:20Z</time>
  <course>80.62</course>
  <speed>7.904327928419974</speed>
  <fix>3d</fix>
</trkpt>
<trkpt lat="-27.2746198" lon="151.2891198">
  <ele>373.51</ele>
  <time>2026-09-01T19:53:20Z</time>
  <course>80.61</course>
  <speed>8.05</speed>
  <fix>3d</fix>
</trkpt>
<trkpt lat="-27.2746154" lon="151.2891504">
  <ele>372.96</ele>
  <time>2026-09-01T19:53:20Z</time>
  <course>80.62</course>
  <speed>7.843500494039636</speed>
  <fix>3d</fix>
</trkpt>
<trkpt lat="-27.2746174" lon="151.2891358">
  <ele>373.32</ele>
  <time>2026-09-01T19:53:20Z</time>
  <course>80.61</course>
  <speed>7.96</speed>
  <fix>3d</fix>
</trkpt>
<trkpt lat="-27.2746143" lon="151.2891582">
  <ele>372.88</ele>
  <time>2026-09-01T19:53:20Z</time>
  <course>80.62</course>
  <speed>7.782673062643709</speed>
  <fix>3d</fix>
</trkpt>
<trkpt lat="-27.2746174" lon="151.2891358">
  <ele>373.32</ele>
  <time>2026-09-01T19:53:20Z</time>
  <course>80.61</course>
  <speed>7.96</speed>
  <fix>3d</fix>
</trkpt>
<trkpt lat="-27.2746131" lon="151.289166">
  <ele>372.81</ele>
  <time>2026-09-01T19:53:20Z</time>
  <course>80.62</course>
  <speed>7.711977697063186</speed>
  <fix>3d</fix>
</trkpt>
<trkpt lat="-27.2746151" lon="151.2891516">
  <ele>373.14</ele>
  <time>2026-09-01T19:53:20Z</time>
  <course>80.6</course>
  <speed>7.85</speed>
  <fix>3d</fix>
</trkpt>
<trkpt lat="-27.274612" lon="151.2891737">
  <ele>372.73</ele>
  <time>2026-09-01T19:53:20Z</time>
  <course>80.6</course>
  <speed>7.641282614849421</speed>
  <fix>3d</fix>
</trkpt>
<trkpt lat="-27.2746151" lon="151.2891516">
  <ele>373.14</ele>
  <time>2026-09-01T19:53:20Z</time>
  <course>80.6</course>
  <speed>7.85</speed>
  <fix>3d</fix>
</trkpt>
<trkpt lat="-27.2746108" lon="151.2891813">
  <ele>372.66</ele>
  <time>2026-09-01T19:53:20Z</time>
  <course>80.59</course>
  <speed>7.572218961440564</speed>
  <fix>3d</fix>
</trkpt>
<trkpt lat="-27.2746128" lon="151.289167">
  <ele>372.98</ele>
  <time>2026-09-01T19:53:20Z</time>
  <course>80.57</course>
  <speed>7.71</speed>
  <fix>3d</fix>
</trkpt>
<trkpt lat="-27.2746097" lon="151.2891889">
  <ele>372.59</ele>
  <time>2026-09-01T19:53:20Z</time>
  <course>80.57</course>
  <speed>7.501526511317547</speed>
  <fix>3d</fix>
</trkpt>
<trkpt lat="-27.2746128" lon="151.289167">
  <ele>372.98</ele>
  <time>2026-09-01T19:53:20Z</time>
  <course>80.57</course>
  <speed>7.71</speed>
  <fix>3d</fix>
</trkpt>
<trkpt lat="-27.2746086" lon="151.2891961">
  <ele>372.52</ele>
  <time>2026-09-01T19:53:20Z</time>
  <course>80.55</course>
  <speed>7.4406988919052495</speed>
  <fix>3d</fix>
</trkpt>
<trkpt lat="-27.2746106" lon="151.2891823">
  <ele>372.84</ele>
  <time>2026-09-01T19:53:20Z</time>
  <course>80.53</course>
  <speed>7.57</speed>
  <fix>3d</fix>
</trkpt>
<trkpt lat="-27.2746075" lon="151.2892036">
  <ele>372.45</ele>
  <time>2026-09-01T19:53:20Z</time>
  <course>80.52</course>
  <speed>7.370006784257393</speed>
  <fix>3d</fix>
</trkpt>
<trkpt lat="-27.2746106" lon="151.2891823">
  <ele>372.84</ele>
  <time>2026-09-01T19:53:20Z</time>
  <course>80.53</course>
  <speed>7.57</speed>
  <fix>3d</fix>
</trkpt>
<trkpt lat="-27.2746064" lon="151.2892109">
  <ele>372.38</ele>
  <time>2026-09-01T19:53:20Z</time>
  <course>80.48</course>
  <speed>7.300965689550938</speed>
  <fix>3d</fix>
</trkpt>
<trkpt lat="-27.2746084" lon="151.2891973">
  <ele>372.69</ele>
  <time>2026-09-01T19:53:20Z</time>
  <course>80.47</course>
  <speed>7.43</speed>
  <fix>3d</fix>
</trkpt>
<trkpt lat="-27.2746053" lon="151.2892181">
  <ele>372.3</ele>
  <time>2026-09-01T19:53:20Z</time>
  <course>80.45</course>
  <speed>7.230276619881152</speed>
  <fix>3d</fix>
</trkpt>
<trkpt lat="-27.2746084" lon="151.2891973">
  <ele>372.69</ele>
  <time>2026-09-01T19:53:20Z</time>
  <course>80.47</course>
  <speed>7.43</speed>
  <fix>3d</fix>
</trkpt>
<trkpt lat="-27.2746042" lon="151.2892255">
  <ele>372.22</ele>
  <time>2026-09-01T19:53:20Z</time>
  <course>80.41</course>
  <speed>7.159587976971859</speed>
  <fix>3d</fix>
</trkpt>
<trkpt lat="-27.2746062" lon="151.289212">
  <ele>372.54</ele>
  <time>2026-09-01T19:53:20Z</time>
  <course>80.4</course>
  <speed>7.29</speed>
  <fix>3d</fix>
</trkpt>
<trkpt lat="-27.2746032" lon="151.2892325">
  <ele>372.15</ele>
  <time>2026-09-01T19:53:20Z</time>
  <course>80.36</course>
  <speed>7.0905712040709385</speed>
  <fix>3d</fix>
</trkpt>
<trkpt lat="-27.2746062" lon="151.289212">
  <ele>372.54</ele>
  <time>2026-09-01T19:53:20Z</time>
  <course>80.4</course>
  <speed>7.29</speed>
  <fix>3d</fix>
</trkpt>
<trkpt lat="-27.2746021" lon="151.2892396">
  <ele>372.06</ele>
  <time>2026-09-01T19:53:20Z</time>
  <course>80.31</course>
  <speed>7.0215738976386195</speed>
  <fix>3d</fix>
</trkpt>
<trkpt lat="-27.2746039" lon="151.2892264">
  <ele>372.39</ele>
  <time>2026-09-01T19:53:20Z</time>
  <course>80.3</course>
  <speed>7.15</speed>
  <fix>3d</fix>
</trkpt>
<trkpt lat="-27.274601" lon="151.2892465">
  <ele>371.98</ele>
  <time>2026-09-01T19:53:20Z</time>
  <course>80.26</course>
  <speed>6.96074708634066</speed>
  <fix>3d</fix>
</trkpt>
<trkpt lat="-27.2746039" lon="151.2892264">
  <ele>372.39</ele>
  <time>2026-09-01T19:53:20Z</time>
  <course>80.3</course>
  <speed>7.15</speed>
  <fix>3d</fix>
</trkpt>
<trkpt lat="-27.2745999" lon="151.2892535">
  <ele>371.89</ele>
  <time>2026-09-01T19:53:20Z</time>
  <course>80.2</course>
  <speed>6.901622997527466</speed>
  <fix>3d</fix>
</trkpt>
<trkpt lat="-27.2746018" lon="151.2892405">
  <ele>372.22</ele>
  <time>2026-09-01T19:53:20Z</time>
  <course>80.2</course>
  <speed>7.02</speed>
  <fix>3d</fix>
</trkpt>
<trkpt lat="-27.2745988" lon="151.2892604">
  <ele>371.8</ele>
  <time>2026-09-01T19:53:20Z</time>
  <course>80.14</course>
  <speed>6.842514157822401</speed>
  <fix>3d</fix>
</trkpt>
<trkpt lat="-27.2746018" lon="151.2892405">
  <ele>372.22</ele>
  <time>2026-09-01T19:53:20Z</time>
  <course>80.2</course>
  <speed>7.02</speed>
  <fix>3d</fix>
</trkpt>
<trkpt lat="-27.2745978" lon="151.2892672">
  <ele>371.71</ele>
  <time>2026-09-01T19:53:20Z</time>
  <course>80.07</course>
  <speed>6.793268727203422</speed>
  <fix>3d</fix>
</trkpt>
<trkpt lat="-27.2745996" lon="151.2892544">
  <ele>372.06</ele>
  <time>2026-09-01T19:53:20Z</time>
  <course>80.07</course>
  <speed>6.9</speed>
  <fix>3d</fix>
</trkpt>
<trkpt lat="-27.2745967" lon="151.2892739">
  <ele>371.6</ele>
  <time>2026-09-01T19:53:20Z</time>
  <course>80.0</course>
  <speed>6.732443835636507</speed>
  <fix>3d</fix>
</trkpt>
<trkpt lat="-27.2745996" lon="151.2892544">
  <ele>372.06</ele>
  <time>2026-09-01T19:53:20Z</time>
  <course>80.07</course>
  <speed>6.9</speed>
  <fix>3d</fix>
</trkpt>
<trkpt lat="-27.2745956" lon="151.2892806">
  <ele>371.47</ele>
  <time>2026-09-01T19:53:20Z</time>
  <course>79.92</course>
  <speed>6.6125411151840865</speed>
  <fix>3d</fix>
</trkpt>
<trkpt lat="-27.2745975" lon="151.289268">
  <ele>371.87</ele>
  <time>2026-09-01T19:53:20Z</time>
  <course>79.94</course>
  <speed>6.78</speed>
  <fix>3d</fix>
</trkpt>
<trkpt lat="-27.2745946" lon="151.2892871">
  <ele>371.29</ele>
  <time>2026-09-01T19:53:20Z</time>
  <course>79.85</course>
  <speed>6.347802769462832</speed>
  <fix>3d</fix>
</trkpt>
<trkpt lat="-27.2745975" lon="151.289268">
  <ele>371.87</ele>
  <time>2026-09-01T19:53:20Z</time>
  <course>79.94</course>
  <speed>6.78</speed>
  <fix>3d</fix>
</trkpt>
<trkpt lat="-27.2745936" lon="151.2892933">
  <ele>371.05</ele>
  <time>2026-09-01T19:53:20Z</time>
  <course>79.85</course>
  <speed>6.004306787631691</speed>
  <fix>3d</fix>
</trkpt>
<trkpt lat="-27.2745954" lon="151.2892814">
  <ele>371.61</ele>
  <time>2026-09-01T19:53:20Z</time>
  <course>79.84</course>
  <speed>6.54</speed>
  <fix>3d</fix>
</trkpt>
<trkpt lat="-27.2745927" lon="151.2892991">
  <ele>370.79</ele>
  <time>2026-09-01T19:53:20Z</time>
  <course>79.9</course>
  <speed>5.619688603472616</speed>
  <fix>3d</fix>
</trkpt>
<trkpt lat="-27.2745954" lon="151.2892814">
  <ele>371.61</ele>
  <time>2026-09-01T19:53:20Z</time>
  <course>79.84</course>
  <speed>6.54</speed>
  <fix>3d</fix>
</trkpt>
<trkpt lat="-27.2745918" lon="151.2893045">
  <ele>370.51</ele>
  <time>2026-09-01T19:53:20Z</time>
  <course>79.97</course>
  <speed>5.2350835714437265</speed>
  <fix>3d</fix>
</trkpt>
<trkpt lat="-27.2745934" lon="151.2892939">
  <ele>371.21</ele>
  <time>2026-09-01T19:53:20Z</time>
  <course>79.73</course>
  <speed>6.0</speed>
  <fix>3d</fix>
</trkpt>
<trkpt lat="-27.2745909" lon="151.2893095">
  <ele>370.22</ele>
  <time>2026-09-01T19:53:20Z</time>
  <course>80.04</course>
  <speed>4.862149730314771</speed>
  <fix>3d</fix>
</trkpt>
<trkpt lat="-27.2745934" lon="151.2892939">
  <ele>371.21</ele>
  <time>2026-09-01T19:53:20Z</time>
  <course>79.73</course>
  <speed>6.0</speed>
  <fix>3d</fix>
</trkpt>
<trkpt lat="-27.2745902" lon="151.2893142">
  <ele>369.93</ele>
  <time>2026-09-01T19:53:20Z</time>
  <course>80.06</course>
  <speed>4.518760892103055</speed>
  <fix>3d</fix>
</trkpt>
<trkpt lat="-27.2745916" lon="151.289305">
  <ele>370.67</ele>
  <time>2026-09-01T19:53:20Z</time>
  <course>79.51</course>
  <speed>5.25</speed>
  <fix>3d</fix>
</trkpt>
<trkpt lat="-27.2745894" lon="151.2893185">
  <ele>369.65</ele>
  <time>2026-09-01T19:53:20Z</time>
  <course>80.04</course>
  <speed>4.204878119517854</speed>
  <fix>3d</fix>
</trkpt>
<trkpt lat="-27.2745916" lon="151.289305">
  <ele>370.67</ele>
  <time>2026-09-01T19:53:20Z</time>
  <course>79.51</course>
  <speed>5.25</speed>
  <fix>3d</fix>
</trkpt>
<trkpt lat="-27.2745887" lon="151.2893226">
  <ele>369.38</ele>
  <time>2026-09-01T19:53:20Z</time>
  <course>79.94</course>
  <speed>3.9223717314910376</speed>
  <fix>3d</fix>
</trkpt>
<trkpt lat="-27.2745899" lon="151.2893148">
  <ele>370.1</ele>
  <time>2026-09-01T19:53:20Z</time>
  <course>79.17</course>
  <speed>4.54</speed>
  <fix>3d</fix>
</trkpt>
<trkpt lat="-27.274588" lon="151.2893264">
  <ele>369.13</ele>
  <time>2026-09-01T19:53:20Z</time>
  <course>79.79</course>
  <speed>3.6811003789627903</speed>
  <fix>3d</fix>
</trkpt>
<trkpt lat="-27.2745899" lon="151.2893148">
  <ele>370.1</ele>
  <time>2026-09-01T19:53:20Z</time>
  <course>79.17</course>
  <speed>4.54</speed>
  <fix>3d</fix>
</trkpt>
<trkpt lat="-27.2745874" lon="151.28933">
  <ele>368.88</ele>
  <time>2026-09-01T19:53:20Z</time>
  <course>79.56</course>
  <speed>3.4713109915419564</speed>
  <fix>3d</fix>
</trkpt>
<trkpt lat="-27.2745885" lon="151.2893231">
  <ele>369.55</ele>
  <time>2026-09-01T19:53:20Z</time>
  <course>78.7</course>
  <speed>3.94</speed>
  <fix>3d</fix>
</trkpt>
<trkpt lat="-27.2745867" lon="151.2893333">
  <ele>368.66</ele>
  <time>2026-09-01T19:53:20Z</time>
  <course>79.28</course>
  <speed>3.2812345237730267</speed>
  <fix>3d</fix>
</trkpt>
<trkpt lat="-27.2745885" lon="151.2893231">
  <ele>369.55</ele>
  <time>2026-09-01T19:53:20Z</time>
  <course>78.7</course>
  <speed>3.94</speed>
  <fix>3d</fix>
</trkpt>
<trkpt lat="-27.2745861" lon="151.2893365">
  <ele>368.45</ele>
  <time>2026-09-01T19:53:20Z</time>
  <course>78.95</course>
  <speed>3.132491021535417</speed>
  <fix>3d</fix>
</trkpt>
<trkpt lat="-27.2745872" lon="151.2893305">
  <ele>369.05</ele>
  <time>2026-09-01T19:53:20Z</time>
  <course>78.12</course>
  <speed>3.48</speed>
  <fix>3d</fix>
</trkpt>
<trkpt lat="-27.2745855" lon="151.2893395">
  <ele>368.26</ele>
  <time>2026-09-01T19:53:20Z</time>
  <course>78.57</course>
  <speed>3.0034147232774897</speed>
  <fix>3d</fix>
</trkpt>
<trkpt lat="-27.2745872" lon="151.2893305">
  <ele>369.05</ele>
  <time>2026-09-01T19:53:20Z</time>
  <course>78.12</course>
  <speed>3.48</speed>
  <fix>3d</fix>
</trkpt>
<trkpt lat="-27.2745849" lon="151.2893424">
  <ele>368.08</ele>
  <time>2026-09-01T19:53:20Z</time>
  <course>78.16</course>
  <speed>2.903687310989253</speed>
  <fix>3d</fix>
</trkpt>
<trkpt lat="-27.2745859" lon="151.2893371">
  <ele>368.62</ele>
  <time>2026-09-01T19:53:20Z</time>
  <course>77.44</course>
  <speed>3.14</speed>
  <fix>3d</fix>
</trkpt>
<trkpt lat="-27.2745843" lon="151.2893453">
  <ele>367.91</ele>
  <time>2026-09-01T19:53:20Z</time>
  <course>77.73</course>
  <speed>2.8257742301889586</speed>
  <fix>3d</fix>
</trkpt>
<trkpt lat="-27.2745859" lon="151.2893371">
  <ele>368.62</ele>
  <time>2026-09-01T19:53:20Z</time>
  <course>77.44</course>
  <speed>3.14</speed>
  <fix>3d</fix>
</trkpt>
<trkpt lat="-27.2745837" lon="151.289348">
  <ele>367.75</ele>
  <time>2026-09-01T19:53:20Z</time>
  <course>77.28</course>
  <speed>2.757698315624826</speed>
  <fix>3d</fix>
</trkpt>
<trkpt lat="-27.2745847" lon="151.289343">
  <ele>368.24</ele>
  <time>2026-09-01T19:53:20Z</time>
  <course>76.7</course>
  <speed>2.9</speed>
  <fix>3d</fix>
</trkpt>
<trkpt lat="-27.2745831" lon="151.2893507">
  <ele>367.6</ele>
  <time>2026-09-01T19:53:20Z</time>
  <course>76.82</course>
  <speed>2.721249712907656</speed>
  <fix>3d</fix>
</trkpt>
<trkpt lat="-27.2745847" lon="151.289343">
  <ele>368.24</ele>
  <time>2026-09-01T19:53:20Z</time>
  <course>76.7</course>
  <speed>2.9</speed>
  <fix>3d</fix>
</trkpt>
<trkpt lat="-27.2745825" lon="151.2893534">
  <ele>367.45</ele>
  <time>2026-09-01T19:53:20Z</time>
  <course>76.36</course>
  <speed>2.7140007369195756</speed>
  <fix>3d</fix>
</trkpt>
<trkpt lat="-27.2745835" lon="151.2893485">
  <ele>367.91</ele>
  <time>2026-09-01T19:53:20Z</time>
  <course>75.98</course>
  <speed>2.76</speed>
  <fix>3d</fix>
</trkpt>
<trkpt lat="-27.2745819" lon="151.2893561">
  <ele>367.31</ele>
  <time>2026-09-01T19:53:20Z</time>
  <course>75.92</course>
  <speed>2.738357171736368</speed>
  <fix>3d</fix>
</trkpt>
<trkpt lat="-27.2745835" lon="151.2893485">
  <ele>367.91</ele>
  <time>2026-09-01T19:53:20Z</time>
  <course>75.98</course>
  <speed>2.76</speed>
  <fix>3d</fix>
</trkpt>
<trkpt lat="-27.2745812" lon="151.2893588">
  <ele>367.18</ele>
  <time>2026-09-01T19:53:20Z</time>
  <course>75.5</course>
  <speed>2.7943514453268046</speed>
  <fix>3d</fix>
</trkpt>
<trkpt lat="-27.2745823" lon="151.2893539">
  <ele>367.62</ele>
  <time>2026-09-01T19:53:20Z</time>
  <course>75.32</course>
  <speed>2.72</speed>
  <fix>3d</fix>
</trkpt>
<trkpt lat="-27.2745806" lon="151.2893616">
  <ele>367.05</ele>
  <time>2026-09-01T19:53:20Z</time>
  <course>75.12</course>
  <speed>2.847823730500187</speed>
  <fix>3d</fix>
</trkpt>
<trkpt lat="-27.2745823" lon="151.2893539">
  <ele>367.62</ele>
  <time>2026-09-01T19:53:20Z</time>
  <course>75.32</course>
  <speed>2.72</speed>
  <fix>3d</fix>
</trkpt>
<trkpt lat="-27.2745799" lon="151.2893644">
  <ele>366.92</ele>
  <time>2026-09-01T19:53:20Z</time>
  <course>74.77</course>
  <speed>2.913588852257641</speed>
  <fix>3d</fix>
</trkpt>
<trkpt lat="-27.274581" lon="151.2893593">
  <ele>367.35</ele>
  <time>2026-09-01T19:53:20Z</time>
  <course>74.78</course>
  <speed>2.78</speed>
  <fix>3d</fix>
</trkpt>
<trkpt lat="-27.2745792" lon="151.2893673">
  <ele>366.79</ele>
  <time>2026-09-01T19:53:20Z</time>
  <course>74.47</course>
  <speed>2.976743186773088</speed>
  <fix>3d</fix>
</trkpt>
<trkpt lat="-27.274581" lon="151.2893593">
  <ele>367.35</ele>
  <time>2026-09-01T19:53:20Z</time>
  <course>74.78</course>
  <speed>2.78</speed>
  <fix>3d</fix>
</trkpt>
<trkpt lat="-27.2745784" lon="151.2893702">
  <ele>366.65</ele>
  <time>2026-09-01T19:53:20Z</time>
  <course>74.22</course>
  <speed>3.052212312405544</speed>
  <fix>3d</fix>
</trkpt>
<trkpt lat="-27.2745796" lon="151.2893649">
  <ele>367.1</ele>
  <time>2026-09-01T19:53:20Z</time>
  <course>74.37</course>
  <speed>2.9</speed>
  <fix>3d</fix>
</trkpt>
<trkpt lat="-27.2745776" lon="151.2893733">
  <ele>366.5</ele>
  <time>2026-09-01T19:53:20Z</time>
  <course>74.03</course>
  <speed>3.127714820759719</speed>
  <fix>3d</fix>
</trkpt>
<trkpt lat="-27.2745796" lon="151.2893649">
  <ele>367.1</ele>
  <time>2026-09-01T19:53:20Z</time>
  <course>74.37</course>
  <speed>2.9</speed>
  <fix>3d</fix>
</trkpt>
<trkpt lat="-27.2745769" lon="151.2893764">
  <ele>366.34</ele>
  <time>2026-09-01T19:53:20Z</time>
  <course>73.87</course>
  <speed>3.210140183854904</speed>
  <fix>3d</fix>
</trkpt>
<trkpt lat="-27.2745782" lon="151.2893706">
  <ele>366.83</ele>
  <time>2026-09-01T19:53:20Z</time>
  <course>74.1</course>
  <speed>3.04</speed>
  <fix>3d</fix>
</trkpt>
<trkpt lat="-27.274576" lon="151.2893795">
  <ele>366.18</ele>
  <time>2026-09-01T19:53:20Z</time>
  <course>73.76</course>
  <speed>3.285665838152139</speed>
  <fix>3d</fix>
</trkpt>
<trkpt lat="-27.2745782" lon="151.2893706">
  <ele>366.83</ele>
  <time>2026-09-01T19:53:20Z</time>
  <course>74.1</course>
  <speed>3.04</speed>
  <fix>3d</fix>
</trkpt>
<trkpt lat="-27.2745752" lon="151.2893828">
  <ele>365.99</ele>
  <time>2026-09-01T19:53:20Z</time>
  <course>73.69</course>
  <speed>3.3584669121490536</speed>
  <fix>3d</fix>
</trkpt>
<trkpt lat="-27.2745767" lon="151.2893767">
  <ele>366.52</ele>
  <time>2026-09-01T19:53:20Z</time>
  <course>73.93</course>
  <speed>3.19</speed>
  <fix>3d</fix>
</trkpt>
<trkpt lat="-27.2745744" lon="151.2893861">
  <ele>365.8</ele>
  <time>2026-09-01T19:53:20Z</time>
  <course>73.64</course>
  <speed>3.399676455193935</speed>
  <fix>3d</fix>
</trkpt>
<trkpt lat="-27.2745767" lon="151.2893767">
  <ele>366.52</ele>
  <time>2026-09-01T19:53:20Z</time>
  <course>73.93</course>
  <speed>3.19</speed>
  <fix>3d</fix>
</trkpt>
<trkpt lat="-27.2745735" lon="151.2893893">
  <ele>365.59</ele>
  <time>2026-09-01T19:53:20Z</time>
  <course>73.63</course>
  <speed>3.3900589965367858</speed>
  <fix>3d</fix>
</trkpt>
<trkpt lat="-27.274575" lon="151.289383">
  <ele>366.17</ele>
  <time>2026-09-01T19:53:20Z</time>
  <course>73.84</course>
  <speed>3.33</speed>
  <fix>3d</fix>
</trkpt>
<trkpt lat="-27.2745727" lon="151.2893926">
  <ele>365.36</ele>
  <time>2026-09-01T19:53:20Z</time>
  <course>73.62</course>
  <speed>3.3804437578519186</speed>
  <fix>3d</fix>
</trkpt>
<trkpt lat="-27.274575" lon="151.289383">
  <ele>366.17</ele>
  <time>2026-09-01T19:53:20Z</time>
  <course>73.84</course>
  <speed>3.33</speed>
  <fix>3d</fix>
</trkpt>
<trkpt lat="-27.2745718" lon="151.2893959">
  <ele>365.12</ele>
  <time>2026-09-01T19:53:20Z</time>
  <course>73.64</course>
  <speed>3.368085509603341</speed>
  <fix>3d</fix>
</trkpt>
<trkpt lat="-27.2745733" lon="151.2893896">
  <ele>365.77</ele>
  <time>2026-09-01T19:53:20Z</time>
  <course>73.83</course>
  <speed>3.38</speed>
  <fix>3d</fix>
</trkpt>
<trkpt lat="-27.274571" lon="151.2893991">
  <ele>364.88</ele>
  <time>2026-09-01T19:53:20Z</time>
  <course>73.65</course>
  <speed>3.3584669121490536</speed>
  <fix>3d</fix>
</trkpt>
<trkpt lat="-27.2745733" lon="151.2893896">
  <ele>365.77</ele>
  <time>2026-09-01T19:53:20Z</time>
  <course>73.83</course>
  <speed>3.38</speed>
  <fix>3d</fix>
</trkpt>
<trkpt lat="-27.2745702" lon="151.2894023">
  <ele>364.63</ele>
  <time>2026-09-01T19:53:20Z</time>
  <course>73.67</course>
  <speed>3.3653677362214074</speed>
  <fix>3d</fix>
</trkpt>
<trkpt lat="-27.2745716" lon="151.2893962">
  <ele>365.31</ele>
  <time>2026-09-01T19:53:20Z</time>
  <course>73.88</course>
  <speed>3.37</speed>
  <fix>3d</fix>
</trkpt>
<trkpt lat="-27.2745694" lon="151.2894056">
  <ele>364.39</ele>
  <time>2026-09-01T19:53:20Z</time>
  <course>73.69</course>
  <speed>3.374996296294264</speed>
  <fix>3d</fix>
</trkpt>
<trkpt lat="-27.2745716" lon="151.2893962">
  <ele>365.31</ele>
  <time>2026-09-01T19:53:20Z</time>
  <course>73.88</course>
  <speed>3.37</speed>
  <fix>3d</fix>
</trkpt>
<trkpt lat="-27.2745685" lon="151.2894089">
  <ele>364.15</ele>
  <time>2026-09-01T19:53:20Z</time>
  <course>73.72</course>
  <speed>3.406581864567473</speed>
  <fix>3d</fix>
</trkpt>
<trkpt lat="-27.27457" lon="151.2894027">
  <ele>364.82</ele>
  <time>2026-09-01T19:53:20Z</time>
  <course>73.98</course>
  <speed>3.38</speed>
  <fix>3d</fix>
</trkpt>
<trkpt lat="-27.2745677" lon="151.2894122">
  <ele>363.92</ele>
  <time>2026-09-01T19:53:20Z</time>
  <course>73.76</course>
  <speed>3.4670592726401437</speed>
  <fix>3d</fix>
</trkpt>
<trkpt lat="-27.27457" lon="151.2894027">
  <ele>364.82</ele>
  <time>2026-09-01T19:53:20Z</time>
  <course>73.98</course>
  <speed>3.38</speed>
  <fix>3d</fix>
</trkpt>
<trkpt lat="-27.2745668" lon="151.2894156">
  <ele>363.7</ele>
  <time>2026-09-01T19:53:20Z</time>
  <course>73.8</course>
  <speed>3.6099861495579177</speed>
  <fix>3d</fix>
</trkpt>
<trkpt lat="-27.2745683" lon="151.2894093">
  <ele>364.34</ele>
  <time>2026-09-01T19:53:20Z</time>
  <course>74.13</course>
  <speed>3.44</speed>
  <fix>3d</fix>
</trkpt>
<trkpt lat="-27.2745659" lon="151.2894192">
  <ele>363.51</ele>
  <time>2026-09-01T19:53:20Z</time>
  <course>73.87</course>
  <speed>3.784507894033252</speed>
  <fix>3d</fix>
</trkpt>
<trkpt lat="-27.2745683" lon="151.2894093">
  <ele>364.34</ele>
  <time>2026-09-01T19:53:20Z</time>
  <course>74.13</course>
  <speed>3.44</speed>
  <fix>3d</fix>
</trkpt>
<trkpt lat="-27.274565" lon="151.289423">
  <ele>363.33</ele>
  <time>2026-09-01T19:53:20Z</time>
  <course>73.95</course>
  <speed>3.927467377331096</speed>
  <fix>3d</fix>
</trkpt>
<trkpt lat="-27.2745666" lon="151.2894162">
  <ele>363.91</ele>
  <time>2026-09-01T19:53:20Z</time>
  <course>74.33</course>
  <speed>3.64</speed>
  <fix>3d</fix>
</trkpt>
<trkpt lat="-27.2745641" lon="151.2894269">
  <ele>363.17</ele>
  <time>2026-09-01T19:53:20Z</time>
  <course>74.06</course>
  <speed>4.051135643248693</speed>
  <fix>3d</fix>
</trkpt>
<trkpt lat="-27.2745666" lon="151.2894162">
  <ele>363.91</ele>
  <time>2026-09-01T19:53:20Z</time>
  <course>74.33</course>
  <speed>3.64</speed>
  <fix>3d</fix>
</trkpt>
<trkpt lat="-27.2745631" lon="151.2894309">
  <ele>363.02</ele>
  <time>2026-09-01T19:53:20Z</time>
  <course>74.19</course>
  <speed>4.1625472970285875</speed>
  <fix>3d</fix>
</trkpt>
<trkpt lat="-27.2745647" lon="151.2894236">
  <ele>363.53</ele>
  <time>2026-09-01T19:53:20Z</time>
  <course>74.54</course>
  <speed>3.94</speed>
  <fix>3d</fix>
</trkpt>
<trkpt lat="-27.2745621" lon="151.2894351">
  <ele>362.86</ele>
  <time>2026-09-01T19:53:20Z</time>
  <course>74.33</course>
  <speed>4.264317061382749</speed>
  <fix>3d</fix>
</trkpt>
<trkpt lat="-27.2745647" lon="151.2894236">
  <ele>363.53</ele>
  <time>2026-09-01T19:53:20Z</time>
  <course>74.54</course>
  <speed>3.94</speed>
  <fix>3d</fix>
</trkpt>
<trkpt lat="-27.2745611" lon="151.2894393">
  <ele>362.7</ele>
  <time>2026-09-01T19:53:20Z</time>
  <course>74.48</course>
  <speed>4.366096654908135</speed>
  <fix>3d</fix>
</trkpt>
<trkpt lat="-27.2745628" lon="151.2894315">
  <ele>363.21</ele>
  <time>2026-09-01T19:53:20Z</time>
  <course>74.74</course>
  <speed>4.18</speed>
  <fix>3d</fix>
</trkpt>
<trkpt lat="-27.27456" lon="151.2894437">
  <ele>362.55</ele>
  <time>2026-09-01T19:53:20Z</time>
  <course>74.63</course>
  <speed>4.45821713244207</speed>
  <fix>3d</fix>
</trkpt>
<trkpt lat="-27.2745628" lon="151.2894315">
  <ele>363.21</ele>
  <time>2026-09-01T19:53:20Z</time>
  <course>74.74</course>
  <speed>4.18</speed>
  <fix>3d</fix>
</trkpt>
<trkpt lat="-27.274559" lon="151.2894481">
  <ele>362.39</ele>
  <time>2026-09-01T19:53:20Z</time>
  <course>74.77</course>
  <speed>4.557477372406801</speed>
  <fix>3d</fix>
</trkpt>
<trkpt lat="-27.2745608" lon="151.2894399">
  <ele>362.89</ele>
  <time>2026-09-01T19:53:20Z</time>
  <course>74.95</course>
  <speed>4.39</speed>
  <fix>3d</fix>
</trkpt>
<trkpt lat="-27.2745579" lon="151.2894526">
  <ele>362.22</ele>
  <time>2026-09-01T19:53:20Z</time>
  <course>74.92</course>
  <speed>4.649612887112216</speed>
  <fix>3d</fix>
</trkpt>
<trkpt lat="-27.2745608" lon="151.2894399">
  <ele>362.89</ele>
  <time>2026-09-01T19:53:20Z</time>
  <course>74.95</course>
  <speed>4.39</speed>
  <fix>3d</fix>
</trkpt>
<trkpt lat="-27.2745568" lon="151.2894572">
  <ele>362.05</ele>
  <time>2026-09-01T19:53:20Z</time>
  <course>75.06</course>
  <speed>4.751431363284121</speed>
  <fix>3d</fix>
</trkpt>
<trkpt lat="-27.2745587" lon="151.2894486">
  <ele>362.57</ele>
  <time>2026-09-01T19:53:20Z</time>
  <course>75.17</course>
  <speed>4.58</speed>
  <fix>3d</fix>
</trkpt>
<trkpt lat="-27.2745557" lon="151.289462">
  <ele>361.87</ele>
  <time>2026-09-01T19:53:20Z</time>
  <course>75.19</course>
  <speed>4.850773134253961</speed>
  <fix>3d</fix>
</trkpt>
<trkpt lat="-27.2745587" lon="151.2894486">
  <ele>362.57</ele>
  <time>2026-09-01T19:53:20Z</time>
  <course>75.17</course>
  <speed>4.58</speed>
  <fix>3d</fix>
</trkpt>
<trkpt lat="-27.2745546" lon="151.2894668">
  <ele>361.69</ele>
  <time>2026-09-01T19:53:20Z</time>
  <course>75.31</course>
  <speed>4.952615470637712</speed>
  <fix>3d</fix>
</trkpt>
<trkpt lat="-27.2745565" lon="151.2894578">
  <ele>362.23</ele>
  <time>2026-09-01T19:53:20Z</time>
  <course>75.38</course>
  <speed>4.78</speed>
  <fix>3d</fix>
</trkpt>
<trkpt lat="-27.2745535" lon="151.2894717">
  <ele>361.5</ele>
  <time>2026-09-01T19:53:20Z</time>
  <course>75.44</course>
  <speed>5.064158370351386</speed>
  <fix>3d</fix>
</trkpt>
<trkpt lat="-27.2745565" lon="151.2894578">
  <ele>362.23</ele>
  <time>2026-09-01T19:53:20Z</time>
  <course>75.38</course>
  <speed>4.78</speed>
  <fix>3d</fix>
</trkpt>
<trkpt lat="-27.2745524" lon="151.2894767">
  <ele>361.31</ele>
  <time>2026-09-01T19:53:20Z</time>
  <course>75.56</course>
  <speed>5.163584026623369</speed>
  <fix>3d</fix>
</trkpt>
<trkpt lat="-27.2745544" lon="151.2894673">
  <ele>361.87</ele>
  <time>2026-09-01T19:53:20Z</time>
  <course>75.59</course>
  <speed>4.99</speed>
  <fix>3d</fix>
</trkpt>
<trkpt lat="-27.2745512" lon="151.2894818">
  <ele>361.11</ele>
  <time>2026-09-01T19:53:20Z</time>
  <course>75.68</course>
  <speed>5.275158765383274</speed>
  <fix>3d</fix>
</trkpt>
<trkpt lat="-27.2745544" lon="151.2894673">
  <ele>361.87</ele>
  <time>2026-09-01T19:53:20Z</time>
  <course>75.59</course>
  <speed>4.99</speed>
  <fix>3d</fix>
</trkpt>
<trkpt lat="-27.2745501" lon="151.289487">
  <ele>360.92</ele>
  <time>2026-09-01T19:53:20Z</time>
  <course>75.8</course>
  <speed>5.377034498680477</speed>
  <fix>3d</fix>
</trkpt>
<trkpt lat="-27.2745521" lon="151.2894774">
  <ele>361.5</ele>
  <time>2026-09-01T19:53:20Z</time>
  <course>75.8</course>
  <speed>5.2</speed>
  <fix>3d</fix>
</trkpt>
<trkpt lat="-27.2745489" lon="151.2894924">
  <ele>360.72</ele>
  <time>2026-09-01T19:53:20Z</time>
  <course>75.92</course>
  <speed>5.476531749200401</speed>
  <fix>3d</fix>
</trkpt>
<trkpt lat="-27.2745521" lon="151.2894774">
  <ele>361.5</ele>
  <time>2026-09-01T19:53:20Z</time>
  <course>75.8</course>
  <speed>5.2</speed>
  <fix>3d</fix>
</trkpt>
<trkpt lat="-27.2745477" lon="151.2894978">
  <ele>360.52</ele>
  <time>2026-09-01T19:53:20Z</time>
  <course>76.03</course>
  <speed>5.588139225180417</speed>
  <fix>3d</fix>
</trkpt>
<trkpt lat="-27.2745498" lon="151.2894878">
  <ele>361.11</ele>
  <time>2026-09-01T19:53:20Z</time>
  <course>76.02</course>
  <speed>5.42</speed>
  <fix>3d</fix>
</trkpt>
<trkpt lat="-27.2745465" lon="151.2895033">
  <ele>360.32</ele>
  <time>2026-09-01T19:53:20Z</time>
  <course>76.15</course>
  <speed>5.687688458416126</speed>
  <fix>3d</fix>
</trkpt>
<trkpt lat="-27.2745498" lon="151.2894878">
  <ele>361.11</ele>
  <time>2026-09-01T19:53:20Z</time>
  <course>76.02</course>
  <speed>5.42</speed>
  <fix>3d</fix>
</trkpt>
<trkpt lat="-27.2745453" lon="151.289509">
  <ele>360.12</ele>
  <time>2026-09-01T19:53:20Z</time>
  <course>76.27</course>
  <speed>5.787270513808734</speed>
  <fix>3d</fix>
</trkpt>
<trkpt lat="-27.2745474" lon="151.2894987">
  <ele>360.7</ele>
  <time>2026-09-01T19:53:20Z</time>
  <course>76.23</course>
  <speed>5.64</speed>
  <fix>3d</fix>
</trkpt>
<trkpt lat="-27.2745441" lon="151.2895147">
  <ele>359.92</ele>
  <time>2026-09-01T19:53:20Z</time>
  <course>76.38</course>
  <speed>5.889185003037348</speed>
  <fix>3d</fix>
</trkpt>
<trkpt lat="-27.2745474" lon="151.2894987">
  <ele>360.7</ele>
  <time>2026-09-01T19:53:20Z</time>
  <course>76.23</course>
  <speed>5.64</speed>
  <fix>3d</fix>
</trkpt>
<trkpt lat="-27.2745428" lon="151.2895206">
  <ele>359.72</ele>
  <time>2026-09-01T19:53:20Z</time>
  <course>76.5</course>
  <speed>5.9790718343234515</speed>
  <fix>3d</fix>
</trkpt>
<trkpt lat="-27.274545" lon="151.28951">
  <ele>360.3</ele>
  <time>2026-09-01T19:53:20Z</time>
  <course>76.43</course>
  <speed>5.84</speed>
  <fix>3d</fix>
</trkpt>
<trkpt lat="-27.2745416" lon="151.2895266">
  <ele>359.52</ele>
  <time>2026-09-01T19:53:20Z</time>
  <course>76.61</course>
  <speed>6.068978497243173</speed>
  <fix>3d</fix>
</trkpt>
<trkpt lat="-27.274545" lon="151.28951">
  <ele>360.3</ele>
  <time>2026-09-01T19:53:20Z</time>
  <course>76.43</course>
  <speed>5.84</speed>
  <fix>3d</fix>
</trkpt>
<trkpt lat="-27.2745403" lon="151.2895327">
  <ele>359.34</ele>
  <time>2026-09-01T19:53:20Z</time>
  <course>76.73</course>
  <speed>6.137165469498114</speed>
  <fix>3d</fix>
</trkpt>
<trkpt lat="-27.2745425" lon="151.2895217">
  <ele>359.9</ele>
  <time>2026-09-01T19:53:20Z</time>
  <course>76.63</course>
  <speed>6.03</speed>
  <fix>3d</fix>
</trkpt>
<trkpt lat="-27.274539" lon="151.2895388">
  <ele>359.16</ele>
  <time>2026-09-01T19:53:20Z</time>
  <course>76.84</course>
  <speed>6.195643630810281</speed>
  <fix>3d</fix>
</trkpt>
<trkpt lat="-27.2745425" lon="151.2895217">
  <ele>359.9</ele>
  <time>2026-09-01T19:53:20Z</time>
  <course>76.63</course>
  <speed>6.03</speed>
  <fix>3d</fix>
</trkpt>
<trkpt lat="-27.2745378" lon="151.289545">
  <ele>358.99</ele>
  <time>2026-09-01T19:53:20Z</time>
  <course>76.95</course>
  <speed>6.244397488949594</speed>
  <fix>3d</fix>
</trkpt>
<trkpt lat="-27.27454" lon="151.2895337">
  <ele>359.52</ele>
  <time>2026-09-01T19:53:20Z</time>
  <course>76.84</course>
  <speed>6.19</speed>
  <fix>3d</fix>
</trkpt>
<trkpt lat="-27.2745365" lon="151.2895513">
  <ele>358.83</ele>
  <time>2026-09-01T19:53:20Z</time>
  <course>77.05</course>
  <speed>6.263904533116704</speed>
  <fix>3d</fix>
</trkpt>
<trkpt lat="-27.27454" lon="151.2895337">
  <ele>359.52</ele>
  <time>2026-09-01T19:53:20Z</time>
  <course>76.84</course>
  <speed>6.19</speed>
  <fix>3d</fix>
</trkpt>
<trkpt lat="-27.2745352" lon="151.2895575">
  <ele>358.69</ele>
  <time>2026-09-01T19:53:20Z</time>
  <course>77.15</course>
  <speed>6.2714671329761424</speed>
  <fix>3d</fix>
</trkpt>
<trkpt lat="-27.2745374" lon="151.289546">
  <ele>359.17</ele>
  <time>2026-09-01T19:53:20Z</time>
  <course>77.05</course>
  <speed>6.29</speed>
  <fix>3d</fix>
</trkpt>
<trkpt lat="-27.274534" lon="151.2895638">
  <ele>358.56</ele>
  <time>2026-09-01T19:53:20Z</time>
  <course>77.25</course>
  <speed>6.257363662118417</speed>
  <fix>3d</fix>
</trkpt>
<trkpt lat="-27.2745374" lon="151.289546">
  <ele>359.17</ele>
  <time>2026-09-01T19:53:20Z</time>
  <course>77.05</course>
  <speed>6.29</speed>
  <fix>3d</fix>
</trkpt>
<trkpt lat="-27.2745328" lon="151.28957">
  <ele>358.44</ele>
  <time>2026-09-01T19:53:20Z</time>
  <course>77.35</course>
  <speed>6.223768954580496</speed>
  <fix>3d</fix>
</trkpt>
<trkpt lat="-27.2745349" lon="151.2895585">
  <ele>358.87</ele>
  <time>2026-09-01T19:53:20Z</time>
  <course>77.26</course>
  <speed>6.32</speed>
  <fix>3d</fix>
</trkpt>
<trkpt lat="-27.2745315" lon="151.2895761">
  <ele>358.34</ele>
  <time>2026-09-01T19:53:20Z</time>
  <course>77.45</course>
  <speed>6.170656367032603</speed>
  <fix>3d</fix>
</trkpt>
<trkpt lat="-27.2745349" lon="151.2895585">
  <ele>358.87</ele>
  <time>2026-09-01T19:53:20Z</time>
  <course>77.26</course>
  <speed>6.32</speed>
  <fix>3d</fix>
</trkpt>
<trkpt lat="-27.2745304" lon="151.2895822">
  <ele>358.25</ele>
  <time>2026-09-01T19:53:20Z</time>
  <course>77.54</course>
  <speed>6.1077819214507</speed>
  <fix>3d</fix>
</trkpt>
<trkpt lat="-27.2745324" lon="151.2895709">
  <ele>358.62</ele>
  <time>2026-09-01T19:53:20Z</time>
  <course>77.47</course>
  <speed>6.28</speed>
  <fix>3d</fix>
</trkpt>
<trkpt lat="-27.2745292" lon="151.2895883">
  <ele>358.17</ele>
  <time>2026-09-01T19:53:20Z</time>
  <course>77.62</course>
  <speed>6.033042350257456</speed>
  <fix>3d</fix>
</trkpt>
<trkpt lat="-27.2745324" lon="151.2895709">
  <ele>358.62</ele>
  <time>2026-09-01T19:53:20Z</time>
  <course>77.47</course>
  <speed>6.28</speed>
  <fix>3d</fix>
</trkpt>
<trkpt lat="-27.274528" lon="151.2895942">
  <ele>358.09</ele>
  <time>2026-09-01T19:53:20Z</time>
  <course>77.71</course>
  <speed>5.950630218724736</speed>
  <fix>3d</fix>
</trkpt>
<trkpt lat="-27.27453" lon="151.2895831">
  <ele>358.41</ele>
  <time>2026-09-01T19:53:20Z</time>
  <course>77.66</course>
  <speed>6.17</speed>
  <fix>3d</fix>
</trkpt>
<trkpt lat="-27.2745269" lon="151.2896">
  <ele>358.03</ele>
  <time>2026-09-01T19:53:20Z</time>
  <course>77.79</course>
  <speed>5.856364059721698</speed>
  <fix>3d</fix>
</trkpt>
<trkpt lat="-27.27453" lon="151.2895831">
  <ele>358.41</ele>
  <time>2026-09-01T19:53:20Z</time>
  <course>77.66</course>
  <speed>6.17</speed>
  <fix>3d</fix>
</trkpt>
<trkpt lat="-27.2745258" lon="151.2896058">
  <ele>357.98</ele>
  <time>2026-09-01T19:53:20Z</time>
  <course>77.86</course>
  <speed>5.762117666275134</speed>
  <fix>3d</fix>
</trkpt>
<trkpt lat="-27.2745277" lon="151.2895952">
  <ele>358.27</ele>
  <time>2026-09-01T19:53:20Z</time>
  <course>77.85</course>
  <speed>6.02</speed>
  <fix>3d</fix>
</trkpt>
<trkpt lat="-27.2745248" lon="151.2896114">
  <ele>357.94</ele>
  <time>2026-09-01T19:53:20Z</time>
  <course>77.93</course>
  <speed>5.667892024377316</speed>
  <fix>3d</fix>
</trkpt>
<trkpt lat="-27.2745277" lon="151.2895952">
  <ele>358.27</ele>
  <time>2026-09-01T19:53:20Z</time>
  <course>77.85</course>
  <speed>6.02</speed>
  <fix>3d</fix>
</trkpt>
<trkpt lat="-27.2745237" lon="151.2896171">
  <ele>357.9</ele>
  <time>2026-09-01T19:53:20Z</time>
  <course>77.99</course>
  <speed>5.575706233294577</speed>
  <fix>3d</fix>
</trkpt>
<trkpt lat="-27.2745254" lon="151.289607">
  <ele>358.15</ele>
  <time>2026-09-01T19:53:20Z</time>
  <course>78.02</course>
  <speed>5.84</speed>
  <fix>3d</fix>
</trkpt>
<trkpt lat="-27.2745227" lon="151.2896226">
  <ele>357.87</ele>
  <time>2026-09-01T19:53:20Z</time>
  <course>78.05</course>
  <speed>5.47170905659283</speed>
  <fix>3d</fix>
</trkpt>
<trkpt lat="-27.2745254" lon="151.289607">
  <ele>358.15</ele>
  <time>2026-09-01T19:53:20Z</time>
  <course>78.02</course>
  <speed>5.84</speed>
  <fix>3d</fix>
</trkpt>
<trkpt lat="-27.2745217" lon="151.289628">
  <ele>357.85</ele>
  <time>2026-09-01T19:53:20Z</time>
  <course>78.11</course>
  <speed>5.3795260014242885</speed>
  <fix>3d</fix>
</trkpt>
<trkpt lat="-27.2745233" lon="151.2896185">
  <ele>358.08</ele>
  <time>2026-09-01T19:53:20Z</time>
  <course>78.17</course>
  <speed>5.66</speed>
  <fix>3d</fix>
</trkpt>
<trkpt lat="-27.2745207" lon="151.2896334">
  <ele>357.83</ele>
  <time>2026-09-01T19:53:20Z</time>
  <course>78.16</course>
  <speed>5.285347670683548</speed>
  <fix>3d</fix>
</trkpt>
<trkpt lat="-27.2745233" lon="151.2896185">
  <ele>358.08</ele>
  <time>2026-09-01T19:53:20Z</time>
  <course>78.17</course>
  <speed>5.66</speed>
  <fix>3d</fix>
</trkpt>
<trkpt lat="-27.2745197" lon="151.2896386">
  <ele>357.81</ele>
  <time>2026-09-01T19:53:20Z</time>
  <course>78.2</course>
  <speed>5.202970305508192</speed>
  <fix>3d</fix>
</trkpt>
<trkpt lat="-27.2745212" lon="151.2896295">
  <ele>358.03</ele>
  <time>2026-09-01T19:53:20Z</time>
  <course>78.32</course>
  <speed>5.47</speed>
  <fix>3d</fix>
</trkpt>
<trkpt lat="-27.2745188" lon="151.2896438">
  <ele>357.8</ele>
  <time>2026-09-01T19:53:20Z</time>
  <course>78.24</course>
  <speed>5.120595668474518</speed>
  <fix>3d</fix>
</trkpt>
<trkpt lat="-27.2745212" lon="151.2896295">
  <ele>358.03</ele>
  <time>2026-09-01T19:53:20Z</time>
  <course>78.32</course>
  <speed>5.47</speed>
  <fix>3d</fix>
</trkpt>
<trkpt lat="-27.2745179" lon="151.2896489">
  <ele>357.8</ele>
  <time>2026-09-01T19:53:20Z</time>
  <course>78.28</course>
  <speed>5.038223893397355</speed>
  <fix>3d</fix>
</trkpt>
<trkpt lat="-27.2745193" lon="151.28964">
  <ele>357.99</ele>
  <time>2026-09-01T19:53:20Z</time>
  <course>78.44</course>
  <speed>5.28</speed>
  <fix>3d</fix>
</trkpt>
<trkpt lat="-27.274517" lon="151.2896539">
  <ele>357.8</ele>
  <time>2026-09-01T19:53:21Z</time>
  <course>78.31</course>
  <speed>4.955855122983318</speed>
  <fix>3d</fix>
</trkpt>
<trkpt lat="-27.2745193" lon="151.28964">
  <ele>357.99</ele>
  <time>2026-09-01T19:53:21Z</time>
  <course>78.44</course>
  <speed>5.28</speed>
  <fix>3d</fix>
</trkpt>
<trkpt lat="-27.2745161" lon="151.2896589">
  <ele>357.8</ele>
  <time>2026-09-01T19:53:21Z</time>
  <course>78.34</course>
  <speed>4.883298065856722</speed>
  <fix>3d</fix>
</trkpt>
<trkpt lat="-27.2745175" lon="151.2896503">
  <ele>357.98</ele>
  <time>2026-09-01T19:53:21Z</time>
  <course>78.55</course>
  <speed>5.11</speed>
  <fix>3d</fix>
</trkpt>
<trkpt lat="-27.2745152" lon="151.2896638">
  <ele>357.8</ele>
  <time>2026-09-01T19:53:21Z</time>
  <course>78.37</course>
  <speed>4.810748382528439</speed>
  <fix>3d</fix>
</trkpt>
<trkpt lat="-27.2745175" lon="151.2896503">
  <ele>357.98</ele>
  <time>2026-09-01T19:53:21Z</time>
  <course>78.55</course>
  <speed>5.11</speed>
  <fix>3d</fix>
</trkpt>
<trkpt lat="-27.2745143" lon="151.2896686">
  <ele>357.81</ele>
  <time>2026-09-01T19:53:21Z</time>
  <course>78.39</course>
  <speed>4.749947368129462</speed>
  <fix>3d</fix>
</trkpt>
<trkpt lat="-27.2745157" lon="151.2896604">
  <ele>357.98</ele>
  <time>2026-09-01T19:53:21Z</time>
  <course>78.64</course>
  <speed>4.95</speed>
  <fix>3d</fix>
</trkpt>
<trkpt lat="-27.2745135" lon="151.2896733">
  <ele>357.82</ele>
  <time>2026-09-01T19:53:21Z</time>
  <course>78.4</course>
  <speed>4.6872166581031856</speed>
  <fix>3d</fix>
</trkpt>
<trkpt lat="-27.2745157" lon="151.2896604">
  <ele>357.98</ele>
  <time>2026-09-01T19:53:21Z</time>
  <course>78.64</course>
  <speed>4.95</speed>
  <fix>3d</fix>
</trkpt>
<trkpt lat="-27.2745127" lon="151.289678">
  <ele>357.83</ele>
  <time>2026-09-01T19:53:21Z</time>
  <course>78.42</course>
  <speed>4.626413297577293</speed>
  <fix>3d</fix>
</trkpt>
<trkpt lat="-27.2745139" lon="151.28967">
  <ele>357.99</ele>
  <time>2026-09-01T19:53:21Z</time>
  <course>78.7</course>
  <speed>4.82</speed>
  <fix>3d</fix>
</trkpt>
<trkpt lat="-27.2745118" lon="151.2896826">
  <ele>357.84</ele>
  <time>2026-09-01T19:53:21Z</time>
  <course>78.43</course>
  <speed>4.575423477668488</speed>
  <fix>3d</fix>
</trkpt>
<trkpt lat="-27.2745139" lon="151.28967">
  <ele>357.99</ele>
  <time>2026-09-01T19:53:21Z</time>
  <course>78.7</course>
  <speed>4.82</speed>
  <fix>3d</fix>
</trkpt>
<trkpt lat="-27.274511" lon="151.2896872">
  <ele>357.85</ele>
  <time>2026-09-01T19:53:21Z</time>
  <course>78.43</course>
  <speed>4.534247456855437</speed>
  <fix>3d</fix>
</trkpt>
<trkpt lat="-27.2745123" lon="151.2896794">
  <ele>358.0</ele>
  <time>2026-09-01T19:53:21Z</time>
  <course>78.74</course>
  <speed>4.7</speed>
  <fix>3d</fix>
</trkpt>
<trkpt lat="-27.2745102" lon="151.2896918">
  <ele>357.86</ele>
  <time>2026-09-01T19:53:21Z</time>
  <course>78.43</course>
  <speed>4.4930724454430955</speed>
  <fix>3d</fix>
</trkpt>
<trkpt lat="-27.2745123" lon="151.2896794">
  <ele>358.0</ele>
  <time>2026-09-01T19:53:21Z</time>
  <course>78.74</course>
  <speed>4.7</speed>
  <fix>3d</fix>
</trkpt>
<trkpt lat="-27.2745094" lon="151.2896963">
  <ele>357.87</ele>
  <time>2026-09-01T19:53:21Z</time>
  <course>78.42</course>
  <speed>4.463630809105968</speed>
  <fix>3d</fix>
</trkpt>
<trkpt lat="-27.2745107" lon="151.2896887">
  <ele>358.02</ele>
  <time>2026-09-01T19:53:21Z</time>
  <course>78.76</course>
  <speed>4.6</speed>
  <fix>3d</fix>
</trkpt>
<trkpt lat="-27.2745086" lon="151.2897008">
  <ele>357.89</ele>
  <time>2026-09-01T19:53:21Z</time>
  <course>78.41</course>
  <speed>4.4224540698575945</speed>
  <fix>3d</fix>
</trkpt>
<trkpt lat="-27.2745107" lon="151.2896887">
  <ele>358.02</ele>
  <time>2026-09-01T19:53:21Z</time>
  <course>78.76</course>
  <speed>4.6</speed>
  <fix>3d</fix>
</trkpt>
<trkpt lat="-27.2745078" lon="151.2897053">
  <ele>357.9</ele>
  <time>2026-09-01T19:53:21Z</time>
  <course>78.39</course>
  <speed>4.402828636229214</speed>
  <fix>3d</fix>
</trkpt>
<trkpt lat="-27.274509" lon="151.2896977">
  <ele>358.05</ele>
  <time>2026-09-01T19:53:21Z</time>
  <course>78.76</course>
  <speed>4.52</speed>
  <fix>3d</fix>
</trkpt>
<trkpt lat="-27.274507" lon="151.2897097">
  <ele>357.91</ele>
  <time>2026-09-01T19:53:21Z</time>
  <course>78.38</course>
  <speed>4.371464285568395</speed>
  <fix>3d</fix>
</trkpt>
<trkpt lat="-27.274509" lon="151.2896977">
  <ele>358.05</ele>
  <time>2026-09-01T19:53:21Z</time>
  <course>78.76</course>
  <speed>4.52</speed>
  <fix>3d</fix>
</trkpt>
<trkpt lat="-27.2745063" lon="151.2897141">
  <ele>357.92</ele>
  <time>2026-09-01T19:53:21Z</time>
  <course>78.36</course>
  <speed>4.361651063530874</speed>
  <fix>3d</fix>
</trkpt>
<trkpt lat="-27.2745075" lon="151.2897066">
  <ele>358.07</ele>
  <time>2026-09-01T19:53:21Z</time>
  <course>78.74</course>
  <speed>4.45</speed>
  <fix>3d</fix>
</trkpt>
<trkpt lat="-27.2745055" lon="151.2897185">
  <ele>357.93</ele>
  <time>2026-09-01T19:53:21Z</time>
  <course>78.33</course>
  <speed>4.34202717633135</speed>
  <fix>3d</fix>
</trkpt>
<trkpt lat="-27.2745075" lon="151.2897066">
  <ele>358.07</ele>
  <time>2026-09-01T19:53:21Z</time>
  <course>78.74</course>
  <speed>4.45</speed>
  <fix>3d</fix>
</trkpt>
<trkpt lat="-27.2745047" lon="151.2897229">
  <ele>357.95</ele>
  <time>2026-09-01T19:53:21Z</time>
  <course>78.3</course>
  <speed>4.332216522751374</speed>
  <fix>3d</fix>
</trkpt>
<trkpt lat="-27.274506" lon="151.2897154">
  <ele>358.09</ele>
  <time>2026-09-01T19:53:21Z</time>
  <course>78.7</course>
  <speed>4.4</speed>
  <fix>3d</fix>
</trkpt>
<trkpt lat="-27.2745039" lon="151.2897273">
  <ele>357.95</ele>
  <time>2026-09-01T19:53:21Z</time>
  <course>78.27</course>
  <speed>4.322406736992714</speed>
  <fix>3d</fix>
</trkpt>
<trkpt lat="-27.274506" lon="151.2897154">
  <ele>358.09</ele>
  <time>2026-09-01T19:53:21Z</time>
  <course>78.7</course>
  <speed>4.4</speed>
  <fix>3d</fix>
</trkpt>
<trkpt lat="-27.2745032" lon="151.2897316">
  <ele>357.96</ele>
  <time>2026-09-01T19:53:21Z</time>
  <course>78.23</course>
  <speed>4.3125978249774235</speed>
  <fix>3d</fix>
</trkpt>
<trkpt lat="-27.2745044" lon="151.2897241">
  <ele>358.1</ele>
  <time>2026-09-01T19:53:21Z</time>
  <course>78.65</course>
  <speed>4.37</speed>
  <fix>3d</fix>
</trkpt>
<trkpt lat="-27.2745024" lon="151.2897359">
  <ele>357.97</ele>
  <time>2026-09-01T19:53:21Z</time>
  <course>78.2</course>
  <speed>4.302789792681023</speed>
  <fix>3d</fix>
</trkpt>
<trkpt lat="-27.2745044" lon="151.2897241">
  <ele>358.1</ele>
  <time>2026-09-01T19:53:21Z</time>
  <course>78.65</course>
  <speed>4.37</speed>
  <fix>3d</fix>
</trkpt>
<trkpt lat="-27.2745016" lon="151.2897402">
  <ele>357.98</ele>
  <time>2026-09-01T19:53:21Z</time>
  <course>78.16</course>
  <speed>4.302789792681023</speed>
  <fix>3d</fix>
</trkpt>
<trkpt lat="-27.2745029" lon="151.2897328">
  <ele>358.11</ele>
  <time>2026-09-01T19:53:21Z</time>
  <course>78.59</course>
  <speed>4.35</speed>
  <fix>3d</fix>
</trkpt>
<trkpt lat="-27.2745008" lon="151.2897445">
  <ele>357.98</ele>
  <time>2026-09-01T19:53:21Z</time>
  <course>78.12</course>
  <speed>4.304753186885399</speed>
  <fix>3d</fix>
</trkpt>
<trkpt lat="-27.2745029" lon="151.2897328">
  <ele>358.11</ele>
  <time>2026-09-01T19:53:21Z</time>
  <course>78.59</course>
  <speed>4.35</speed>
  <fix>3d</fix>
</trkpt>
<trkpt lat="-27.2745001" lon="151.2897489">
  <ele>357.99</ele>
  <time>2026-09-01T19:53:21Z</time>
  <course>78.08</course>
  <speed>4.304753186885399</speed>
  <fix>3d</fix>
</trkpt>
<trkpt lat="-27.2745013" lon="151.2897414">
  <ele>358.12</ele>
  <time>2026-09-01T19:53:21Z</time>
  <course>78.52</course>
  <speed>4.34</speed>
  <fix>3d</fix>
</trkpt>
<trkpt lat="-27.2744993" lon="151.2897533">
  <ele>357.99</ele>
  <time>2026-09-01T19:53:21Z</time>
  <course>78.04</course>
  <speed>4.314556755913636</speed>
  <fix>3d</fix>
</trkpt>
<trkpt lat="-27.2745013" lon="151.2897414">
  <ele>358.12</ele>
  <time>2026-09-01T19:53:21Z</time>
  <course>78.52</course>
  <speed>4.34</speed>
  <fix>3d</fix>
</trkpt>
<trkpt lat="-27.2744985" lon="151.2897576">
  <ele>358.0</ele>
  <time>2026-09-01T19:53:21Z</time>
  <course>77.99</course>
  <speed>4.326337943341921</speed>
  <fix>3d</fix>
</trkpt>
<trkpt lat="-27.2744998" lon="151.28975">
  <ele>358.13</ele>
  <time>2026-09-01T19:53:21Z</time>
  <course>78.43</course>
  <speed>4.34</speed>
  <fix>3d</fix>
</trkpt>
<trkpt lat="-27.2744977" lon="151.289762">
  <ele>358.0</ele>
  <time>2026-09-01T19:53:21Z</time>
  <course>77.95</course>
  <speed>4.3361388354156745</speed>
  <fix>3d</fix>
</trkpt>
<trkpt lat="-27.2744998" lon="151.28975">
  <ele>358.13</ele>
  <time>2026-09-01T19:53:21Z</time>
  <course>78.43</course>
  <speed>4.34</speed>
  <fix>3d</fix>
</trkpt>
<trkpt lat="-27.2744969" lon="151.2897663">
  <ele>358.0</ele>
  <time>2026-09-01T19:53:21Z</time>
  <course>77.9</course>
  <speed>4.347930542223507</speed>
  <fix>3d</fix>
</trkpt>
<trkpt lat="-27.2744981" lon="151.2897586">
  <ele>358.14</ele>
  <time>2026-09-01T19:53:21Z</time>
  <course>78.34</course>
  <speed>4.35</speed>
  <fix>3d</fix>
</trkpt>
<trkpt lat="-27.2744961" lon="151.2897707">
  <ele>358.0</ele>
  <time>2026-09-01T19:53:21Z</time>
  <course>77.86</course>
  <speed>4.359736230553404</speed>
  <fix>3d</fix>
</trkpt>
<trkpt lat="-27.2744981" lon="151.2897586">
  <ele>358.14</ele>
  <time>2026-09-01T19:53:21Z</time>
  <course>78.34</course>
  <speed>4.35</speed>
  <fix>3d</fix>
</trkpt>
<trkpt lat="-27.2744953" lon="151.2897751">
  <ele>358.01</ele>
  <time>2026-09-01T19:53:21Z</time>
  <course>77.81</course>
  <speed>4.369530867267103</speed>
  <fix>3d</fix>
</trkpt>
<trkpt lat="-27.2744966" lon="151.2897672">
  <ele>358.15</ele>
  <time>2026-09-01T19:53:21Z</time>
  <course>78.25</course>
  <speed>4.37</speed>
  <fix>3d</fix>
</trkpt>
<trkpt lat="-27.2744944" lon="151.2897794">
  <ele>358.01</ele>
  <time>2026-09-01T19:53:21Z</time>
  <course>77.76</course>
  <speed>4.391138804456084</speed>
  <fix>3d</fix>
</trkpt>
<trkpt lat="-27.2744966" lon="151.2897672">
  <ele>358.15</ele>
  <time>2026-09-01T19:53:21Z</time>
  <course>78.25</course>
  <speed>4.37</speed>
  <fix>3d</fix>
</trkpt>
<trkpt lat="-27.2744936" lon="151.2897839">
  <ele>358.01</ele>
  <time>2026-09-01T19:53:21Z</time>
  <course>77.71</course>
  <speed>4.400931719533944</speed>
  <fix>3d</fix>
</trkpt>
<trkpt lat="-27.274495" lon="151.2897759">
  <ele>358.15</ele>
  <time>2026-09-01T19:53:21Z</time>
  <course>78.16</course>
  <speed>4.4</speed>
  <fix>3d</fix>
</trkpt>
<trkpt lat="-27.2744928" lon="151.2897883">
  <ele>358.01</ele>
  <time>2026-09-01T19:53:21Z</time>
  <course>77.66</course>
  <speed>4.422544516452039</speed>
  <fix>3d</fix>
</trkpt>
<trkpt lat="-27.274495" lon="151.2897759">
  <ele>358.15</ele>
  <time>2026-09-01T19:53:21Z</time>
  <course>78.16</course>
  <speed>4.4</speed>
  <fix>3d</fix>
</trkpt>
<trkpt lat="-27.274492" lon="151.2897927">
  <ele>358.01</ele>
  <time>2026-09-01T19:53:21Z</time>
  <course>77.62</course>
  <speed>4.444164713419159</speed>
  <fix>3d</fix>
</trkpt>
<trkpt lat="-27.2744933" lon="151.2897846">
  <ele>358.15</ele>
  <time>2026-09-01T19:53:21Z</time>
  <course>78.06</course>
  <speed>4.43</speed>
  <fix>3d</fix>
</trkpt>
<trkpt lat="-27.2744911" lon="151.2897971">
  <ele>358.01</ele>
  <time>2026-09-01T19:53:21Z</time>
  <course>77.57</course>
  <speed>4.456007181322759</speed>
  <fix>3d</fix>
</trkpt>
<trkpt lat="-27.2744933" lon="151.2897846">
  <ele>358.15</ele>
  <time>2026-09-01T19:53:21Z</time>
  <course>78.06</course>
  <speed>4.43</speed>
  <fix>3d</fix>
</trkpt>
<trkpt lat="-27.2744903" lon="151.2898016">
  <ele>358.02</ele>
  <time>2026-09-01T19:53:21Z</time>
  <course>77.53</course>
  <speed>4.4755781749400825</speed>
  <fix>3d</fix>
</trkpt>
<trkpt lat="-27.2744917" lon="151.2897935">
  <ele>358.15</ele>
  <time>2026-09-01T19:53:21Z</time>
  <course>77.97</course>
  <speed>4.46</speed>
  <fix>3d</fix>
</trkpt>
<trkpt lat="-27.2744894" lon="151.289806">
  <ele>358.02</ele>
  <time>2026-09-01T19:53:21Z</time>
  <course>77.48</course>
  <speed>4.49721024636385</speed>
  <fix>3d</fix>
</trkpt>
<trkpt lat="-27.2744917" lon="151.2897935">
  <ele>358.15</ele>
  <time>2026-09-01T19:53:21Z</time>
  <course>77.97</course>
  <speed>4.46</speed>
  <fix>3d</fix>
</trkpt>
<trkpt lat="-27.2744886" lon="151.2898105">
  <ele>358.02</ele>
  <time>2026-09-01T19:53:21Z</time>
  <course>77.44</course>
  <speed>4.518849411078001</speed>
  <fix>3d</fix>
</trkpt>
<trkpt lat="-27.27449" lon="151.2898023">
  <ele>358.15</ele>
  <time>2026-09-01T19:53:21Z</time>
  <course>77.89</course>
  <speed>4.5</speed>
  <fix>3d</fix>
</trkpt>
<trkpt lat="-27.2744877" lon="151.289815">
  <ele>358.02</ele>
  <time>2026-09-01T19:53:21Z</time>
  <course>77.4</course>
  <speed>4.538413819827364</speed>
  <fix>3d</fix>
</trkpt>
<trkpt lat="-27.27449" lon="151.2898023">
  <ele>358.15</ele>
  <time>2026-09-01T19:53:21Z</time>
  <course>77.89</course>
  <speed>4.5</speed>
  <fix>3d</fix>
</trkpt>
<trkpt lat="-27.2744868" lon="151.2898195">
  <ele>358.02</ele>
  <time>2026-09-01T19:53:21Z</time>
  <course>77.36</course>
  <speed>4.560054824231831</speed>
  <fix>3d</fix>
</trkpt>
<trkpt lat="-27.2744883" lon="151.2898113">
  <ele>358.15</ele>
  <time>2026-09-01T19:53:21Z</time>
  <course>77.82</course>
  <speed>4.54</speed>
  <fix>3d</fix>
</trkpt>
<trkpt lat="-27.274486" lon="151.2898241">
  <ele>358.02</ele>
  <time>2026-09-01T19:53:21Z</time>
  <course>77.32</course>
  <speed>4.581702740248433</speed>
  <fix>3d</fix>
</trkpt>
<trkpt lat="-27.2744883" lon="151.2898113">
  <ele>358.15</ele>
  <time>2026-09-01T19:53:21Z</time>
  <course>77.82</course>
  <speed>4.54</speed>
  <fix>3d</fix>
</trkpt>
<trkpt lat="-27.2744851" lon="151.2898287">
  <ele>358.02</ele>
  <time>2026-09-01T19:53:21Z</time>
  <course>77.27</course>
  <speed>4.603357470368774</speed>
  <fix>3d</fix>
</trkpt>
<trkpt lat="-27.2744866" lon="151.2898202">
  <ele>358.15</ele>
  <time>2026-09-01T19:53:21Z</time>
  <course>77.74</course>
  <speed>4.58</speed>
  <fix>3d</fix>
</trkpt>
<trkpt lat="-27.2744842" lon="151.2898332">
  <ele>358.02</ele>
  <time>2026-09-01T19:53:21Z</time>
  <course>77.24</course>
  <speed>4.622910338736844</speed>
  <fix>3d</fix>
</trkpt>
<trkpt lat="-27.2744866" lon="151.2898202">
  <ele>358.15</ele>
  <time>2026-09-01T19:53:21Z</time>
  <course>77.74</course>
  <speed>4.58</speed>
  <fix>3d</fix>
</trkpt>
<trkpt lat="-27.2744833" lon="151.2898379">
  <ele>358.02</ele>
  <time>2026-09-01T19:53:21Z</time>
  <course>77.2</course>
  <speed>4.634792336232553</speed>
  <fix>3d</fix>
</trkpt>
<trkpt lat="-27.2744848" lon="151.2898293">
  <ele>358.15</ele>
  <time>2026-09-01T19:53:21Z</time>
  <course>77.66</course>
  <speed>4.62</speed>
  <fix>3d</fix>
</trkpt>
<trkpt lat="-27.2744824" lon="151.2898425">
  <ele>358.02</ele>
  <time>2026-09-01T19:53:21Z</time>
  <course>77.17</course>
  <speed>4.634792336232553</speed>
  <fix>3d</fix>
</trkpt>
<trkpt lat="-27.2744848" lon="151.2898293">
  <ele>358.15</ele>
  <time>2026-09-01T19:53:21Z</time>
  <course>77.66</course>
  <speed>4.62</speed>
  <fix>3d</fix>
</trkpt>
<trkpt lat="-27.2744815" lon="151.2898471">
  <ele>358.02</ele>
  <time>2026-09-01T19:53:21Z</time>
  <course>77.14</course>
  <speed>4.634792336232553</speed>
  <fix>3d</fix>
</trkpt>
<trkpt lat="-27.274483" lon="151.2898386">
  <ele>358.15</ele>
  <time>2026-09-01T19:53:21Z</time>
  <course>77.6</course>
  <speed>4.65</speed>
  <fix>3d</fix>
</trkpt>
<trkpt lat="-27.2744806" lon="151.2898518">
  <ele>358.02</ele>
  <time>2026-09-01T19:53:21Z</time>
  <course>77.11</course>
  <speed>4.634792336232553</speed>
  <fix>3d</fix>
</trkpt>
<trkpt lat="-27.274483" lon="151.2898386">
  <ele>358.15</ele>
  <time>2026-09-01T19:53:21Z</time>
  <course>77.6</course>
  <speed>4.65</speed>
  <fix>3d</fix>
</trkpt>
<trkpt lat="-27.2744797" lon="151.2898564">
  <ele>358.03</ele>
  <time>2026-09-01T19:53:21Z</time>
  <course>77.08</course>
  <speed>4.625018918880224</speed>
  <fix>3d</fix>
</trkpt>
<trkpt lat="-27.2744812" lon="151.2898478">
  <ele>358.16</ele>
  <time>2026-09-01T19:53:21Z</time>
  <course>77.55</course>
  <speed>4.66</speed>
  <fix>3d</fix>
</trkpt>
<trkpt lat="-27.2744788" lon="151.289861">
  <ele>358.04</ele>
  <time>2026-09-01T19:53:21Z</time>
  <course>77.05</course>
  <speed>4.6054750026463065</speed>
  <fix>3d</fix>
</trkpt>
<trkpt lat="-27.2744812" lon="151.2898478">
  <ele>358.16</ele>
  <time>2026-09-01T19:53:21Z</time>
  <course>77.55</course>
  <speed>4.66</speed>
  <fix>3d</fix>
</trkpt>
<trkpt lat="-27.2744779" lon="151.2898655">
  <ele>358.04</ele>
  <time>2026-09-01T19:53:21Z</time>
  <course>77.03</course>
  <speed>4.583808460221697</speed>
  <fix>3d</fix>
</trkpt>
<trkpt lat="-27.2744794" lon="151.2898569">
  <ele>358.16</ele>
  <time>2026-09-01T19:53:21Z</time>
  <course>77.52</course>
  <speed>4.64</speed>
  <fix>3d</fix>
</trkpt>
<trkpt lat="-27.274477" lon="151.2898701">
  <ele>358.05</ele>
  <time>2026-09-01T19:53:21Z</time>
  <course>77.0</course>
  <speed>4.564263357870578</speed>
  <fix>3d</fix>
</trkpt>
<trkpt lat="-27.2744794" lon="151.2898569">
  <ele>358.16</ele>
  <time>2026-09-01T19:53:21Z</time>
  <course>77.52</course>
  <speed>4.64</speed>
  <fix>3d</fix>
</trkpt>
<trkpt lat="-27.2744761" lon="151.2898745">
  <ele>358.06</ele>
  <time>2026-09-01T19:53:21Z</time>
  <course>76.98</course>
  <speed>4.532824726370964</speed>
  <fix>3d</fix>
</trkpt>
<trkpt lat="-27.2744776" lon="151.289866">
  <ele>358.17</ele>
  <time>2026-09-01T19:53:21Z</time>
  <course>77.49</course>
  <speed>4.61</speed>
  <fix>3d</fix>
</trkpt>
<trkpt lat="-27.2744752" lon="151.289879">
  <ele>358.06</ele>
  <time>2026-09-01T19:53:21Z</time>
  <course>76.96</course>
  <speed>4.503509742412022</speed>
  <fix>3d</fix>
</trkpt>
<trkpt lat="-27.2744776" lon="151.289866">
  <ele>358.17</ele>
  <time>2026-09-01T19:53:21Z</time>
  <course>77.49</course>
  <speed>4.61</speed>
  <fix>3d</fix>
</trkpt>
<trkpt lat="-27.2744743" lon="151.2898834">
  <ele>358.07</ele>
  <time>2026-09-01T19:53:21Z</time>
  <course>76.94</course>
  <speed>4.462297614458274</speed>
  <fix>3d</fix>
</trkpt>
<trkpt lat="-27.2744758" lon="151.2898751">
  <ele>358.18</ele>
  <time>2026-09-01T19:53:21Z</time>
  <course>77.48</course>
  <speed>4.56</speed>
  <fix>3d</fix>
</trkpt>
<trkpt lat="-27.2744735" lon="151.2898878">
  <ele>358.07</ele>
  <time>2026-09-01T19:53:21Z</time>
  <course>76.91</course>
  <speed>4.430857704779065</speed>
  <fix>3d</fix>
</trkpt>
<trkpt lat="-27.2744758" lon="151.2898751">
  <ele>358.18</ele>
  <time>2026-09-01T19:53:21Z</time>
  <course>77.48</course>
  <speed>4.56</speed>
  <fix>3d</fix>
</trkpt>
<trkpt lat="-27.2744726" lon="151.2898922">
  <ele>358.07</ele>
  <time>2026-09-01T19:53:21Z</time>
  <course>76.89</course>
  <speed>4.389646910629601</speed>
  <fix>3d</fix>
</trkpt>
<trkpt lat="-27.2744741" lon="151.289884">
  <ele>358.19</ele>
  <time>2026-09-01T19:53:21Z</time>
  <course>77.47</course>
  <speed>4.49</speed>
  <fix>3d</fix>
</trkpt>
<trkpt lat="-27.2744718" lon="151.2898965">
  <ele>358.08</ele>
  <time>2026-09-01T19:53:21Z</time>
  <course>76.87</course>
  <speed>4.340794858087629</speed>
  <fix>3d</fix>
</trkpt>
<trkpt lat="-27.2744741" lon="151.289884">
  <ele>358.19</ele>
  <time>2026-09-01T19:53:21Z</time>
  <course>77.47</course>
  <speed>4.49</speed>
  <fix>3d</fix>
</trkpt>
<trkpt lat="-27.2744709" lon="151.2899007">
  <ele>358.08</ele>
  <time>2026-09-01T19:53:21Z</time>
  <course>76.85</course>
  <speed>4.2995813749712894</speed>
  <fix>3d</fix>
</trkpt>
<trkpt lat="-27.2744723" lon="151.2898928">
  <ele>358.19</ele>
  <time>2026-09-01T19:53:21Z</time>
  <course>77.46</course>
  <speed>4.42</speed>
  <fix>3d</fix>
</trkpt>
<trkpt lat="-27.2744701" lon="151.289905">
  <ele>358.08</ele>
  <time>2026-09-01T19:53:21Z</time>
  <course>76.83</course>
  <speed>4.248599769335775</speed>
  <fix>3d</fix>
</trkpt>
<trkpt lat="-27.2744723" lon="151.2898928">
  <ele>358.19</ele>
  <time>2026-09-01T19:53:21Z</time>
  <course>77.46</course>
  <speed>4.42</speed>
  <fix>3d</fix>
</trkpt>
<trkpt lat="-27.2744692" lon="151.2899092">
  <ele>358.08</ele>
  <time>2026-09-01T19:53:21Z</time>
  <course>76.8</course>
  <speed>4.207386362101774</speed>
  <fix>3d</fix>
</trkpt>
<trkpt lat="-27.2744706" lon="151.2899014">
  <ele>358.19</ele>
  <time>2026-09-01T19:53:21Z</time>
  <course>77.47</course>
  <speed>4.33</speed>
  <fix>3d</fix>
</trkpt>
<trkpt lat="-27.2744684" lon="151.2899133">
  <ele>358.08</ele>
  <time>2026-09-01T19:53:21Z</time>
  <course>76.78</course>
  <speed>4.154274906647368</speed>
  <fix>3d</fix>
</trkpt>
<trkpt lat="-27.2744706" lon="151.2899014">
  <ele>358.19</ele>
  <time>2026-09-01T19:53:21Z</time>
  <course>77.47</course>
  <speed>4.33</speed>
  <fix>3d</fix>
</trkpt>
<trkpt lat="-27.2744676" lon="151.2899174">
  <ele>358.07</ele>
  <time>2026-09-01T19:53:21Z</time>
  <course>76.76</course>
  <speed>4.103291361821629</speed>
  <fix>3d</fix>
</trkpt>
<trkpt lat="-27.2744689" lon="151.28991">
  <ele>358.19</ele>
  <time>2026-09-01T19:53:21Z</time>
  <course>77.48</course>
  <speed>4.24</speed>
  <fix>3d</fix>
</trkpt>
<trkpt lat="-27.2744668" lon="151.2899215">
  <ele>358.07</ele>
  <time>2026-09-01T19:53:21Z</time>
  <course>76.74</course>
  <speed>4.052307984346698</speed>
  <fix>3d</fix>
</trkpt>
<trkpt lat="-27.2744689" lon="151.28991">
  <ele>358.19</ele>
  <time>2026-09-01T19:53:21Z</time>
  <course>77.48</course>
  <speed>4.24</speed>
  <fix>3d</fix>
</trkpt>
<trkpt lat="-27.274466" lon="151.2899255">
  <ele>358.06</ele>
  <time>2026-09-01T19:53:21Z</time>
  <course>76.72</course>
  <speed>3.9915535822534065</speed>
  <fix>3d</fix>
</trkpt>
<trkpt lat="-27.2744673" lon="151.2899183">
  <ele>358.18</ele>
  <time>2026-09-01T19:53:21Z</time>
  <course>77.48</course>
  <speed>4.14</speed>
  <fix>3d</fix>
</trkpt>
<trkpt lat="-27.2744652" lon="151.2899295">
  <ele>358.05</ele>
  <time>2026-09-01T19:53:21Z</time>
  <course>76.69</course>
  <speed>3.9405710246105197</speed>
  <fix>3d</fix>
</trkpt>
<trkpt lat="-27.2744673" lon="151.2899183">
  <ele>358.18</ele>
  <time>2026-09-01T19:53:21Z</time>
  <course>77.48</course>
  <speed>4.14</speed>
  <fix>3d</fix>
</trkpt>
<trkpt lat="-27.2744645" lon="151.2899334">
  <ele>358.05</ele>
  <time>2026-09-01T19:53:21Z</time>
  <course>76.67</course>
  <speed>3.8776926128820475</speed>
  <fix>3d</fix>
</trkpt>
<trkpt lat="-27.2744657" lon="151.2899263">
  <ele>358.17</ele>
  <time>2026-09-01T19:53:21Z</time>
  <course>77.5</course>
  <speed>4.03</speed>
  <fix>3d</fix>
</trkpt>
<trkpt lat="-27.2744637" lon="151.2899373">
  <ele>358.04</ele>
  <time>2026-09-01T19:53:21Z</time>
  <course>76.65</course>
  <speed>3.826708768641794</speed>
  <fix>3d</fix>
</trkpt>
<trkpt lat="-27.2744657" lon="151.2899263">
  <ele>358.17</ele>
  <time>2026-09-01T19:53:21Z</time>
  <course>77.5</course>
  <speed>4.03</speed>
  <fix>3d</fix>
</trkpt>
<trkpt lat="-27.2744629" lon="151.2899411">
  <ele>358.04</ele>
  <time>2026-09-01T19:53:21Z</time>
  <course>76.63</course>
  <speed>3.775725095925285</speed>
  <fix>3d</fix>
</trkpt>
<trkpt lat="-27.2744641" lon="151.2899342">
  <ele>358.16</ele>
  <time>2026-09-01T19:53:21Z</time>
  <course>77.52</course>
  <speed>3.92</speed>
  <fix>3d</fix>
</trkpt>
<trkpt lat="-27.2744622" lon="151.2899448">
  <ele>358.04</ele>
  <time>2026-09-01T19:53:21Z</time>
  <course>76.6</course>
  <speed>3.73451469403991</speed>
  <fix>3d</fix>
</trkpt>
<trkpt lat="-27.2744641" lon="151.2899342">
  <ele>358.16</ele>
  <time>2026-09-01T19:53:21Z</time>
  <course>77.52</course>
  <speed>3.92</speed>
  <fix>3d</fix>
</trkpt>
<trkpt lat="-27.2744615" lon="151.2899485">
  <ele>358.03</ele>
  <time>2026-09-01T19:53:21Z</time>
  <course>76.58</course>
  <speed>3.6835309147609987</speed>
  <fix>3d</fix>
</trkpt>
<trkpt lat="-27.2744626" lon="151.2899418">
  <ele>358.15</ele>
  <time>2026-09-01T19:53:21Z</time>
  <course>77.54</course>
  <speed>3.81</speed>
  <fix>3d</fix>
</trkpt>
<trkpt lat="-27.2744607" lon="151.2899522">
  <ele>358.03</ele>
  <time>2026-09-01T19:53:21Z</time>
  <course>76.56</course>
  <speed>3.6423206887916937</speed>
  <fix>3d</fix>
</trkpt>
<trkpt lat="-27.2744626" lon="151.2899418">
  <ele>358.15</ele>
  <time>2026-09-01T19:53:21Z</time>
  <course>77.54</course>
  <speed>3.81</speed>
  <fix>3d</fix>
</trkpt>
<trkpt lat="-27.27446" lon="151.2899559">
  <ele>358.02</ele>
  <time>2026-09-01T19:53:21Z</time>
  <course>76.54</course>
  <speed>3.610886317789581</speed>
  <fix>3d</fix>
</trkpt>
<trkpt lat="-27.2744612" lon="151.2899492">
  <ele>358.14</ele>
  <time>2026-09-01T19:53:21Z</time>
  <course>77.56</course>
  <speed>3.72</speed>
  <fix>3d</fix>
</trkpt>
<trkpt lat="-27.2744593" lon="151.2899595">
  <ele>358.02</ele>
  <time>2026-09-01T19:53:21Z</time>
  <course>76.52</course>
  <speed>3.5696778566139553</speed>
  <fix>3d</fix>
</trkpt>
<trkpt lat="-27.2744612" lon="151.2899492">
  <ele>358.14</ele>
  <time>2026-09-01T19:53:21Z</time>
  <course>77.56</course>
  <speed>3.72</speed>
  <fix>3d</fix>
</trkpt>
<trkpt lat="-27.2744586" lon="151.2899631">
  <ele>358.01</ele>
  <time>2026-09-01T19:53:21Z</time>
  <course>76.51</course>
  <speed>3.540353089735542</speed>
  <fix>3d</fix>
</trkpt>
<trkpt lat="-27.2744598" lon="151.2899565">
  <ele>358.13</ele>
  <time>2026-09-01T19:53:21Z</time>
  <course>77.59</course>
  <speed>3.64</speed>
  <fix>3d</fix>
</trkpt>
<trkpt lat="-27.2744579" lon="151.2899666">
  <ele>358.01</ele>
  <time>2026-09-01T19:53:21Z</time>
  <course>76.49</course>
  <speed>3.5089172119045497</speed>
  <fix>3d</fix>
</trkpt>
<trkpt lat="-27.2744598" lon="151.2899565">
  <ele>358.13</ele>
  <time>2026-09-01T19:53:21Z</time>
  <course>77.59</course>
  <speed>3.64</speed>
  <fix>3d</fix>
</trkpt>
<trkpt lat="-27.2744573" lon="151.28997">
  <ele>358.0</ele>
  <time>2026-09-01T19:53:21Z</time>
  <course>76.48</course>
  <speed>3.4774847231871484</speed>
  <fix>3d</fix>
</trkpt>
<trkpt lat="-27.2744584" lon="151.2899636">
  <ele>358.12</ele>
  <time>2026-09-01T19:53:21Z</time>
  <course>77.62</course>
  <speed>3.57</speed>
  <fix>3d</fix>
</trkpt>
<trkpt lat="-27.2744566" lon="151.2899735">
  <ele>358.0</ele>
  <time>2026-09-01T19:53:21Z</time>
  <course>76.47</course>
  <speed>3.446055716322648</speed>
  <fix>3d</fix>
</trkpt>
<trkpt lat="-27.2744584" lon="151.2899636">
  <ele>358.12</ele>
  <time>2026-09-01T19:53:21Z</time>
  <course>77.62</course>
  <speed>3.57</speed>
  <fix>3d</fix>
</trkpt>
<trkpt lat="-27.2744559" lon="151.2899769">
  <ele>357.99</ele>
  <time>2026-09-01T19:53:21Z</time>
  <course>76.46</course>
  <speed>3.426499671676622</speed>
  <fix>3d</fix>
</trkpt>
<trkpt lat="-27.274457" lon="151.2899706">
  <ele>358.11</ele>
  <time>2026-09-01T19:53:21Z</time>
  <course>77.65</course>
  <speed>3.5</speed>
  <fix>3d</fix>
</trkpt>
<trkpt lat="-27.2744553" lon="151.2899802">
  <ele>357.99</ele>
  <time>2026-09-01T19:53:21Z</time>
  <course>76.45</course>
  <speed>3.404849482723135</speed>
  <fix>3d</fix>
</trkpt>
<trkpt lat="-27.274457" lon="151.2899706">
  <ele>358.11</ele>
  <time>2026-09-01T19:53:21Z</time>
  <course>77.65</course>
  <speed>3.5</speed>
  <fix>3d</fix>
</trkpt>
<trkpt lat="-27.2744546" lon="151.2899836">
  <ele>357.99</ele>
  <time>2026-09-01T19:53:21Z</time>
  <course>76.45</course>
  <speed>3.3950699550966545</speed>
  <fix>3d</fix>
</trkpt>
<trkpt lat="-27.2744557" lon="151.2899775">
  <ele>358.11</ele>
  <time>2026-09-01T19:53:21Z</time>
  <course>77.67</course>
  <speed>3.46</speed>
  <fix>3d</fix>
</trkpt>
<trkpt lat="-27.274454" lon="151.289987">
  <ele>357.99</ele>
  <time>2026-09-01T19:53:21Z</time>
  <course>76.45</course>
  <speed>3.3734255586865998</speed>
  <fix>3d</fix>
</trkpt>
<trkpt lat="-27.2744557" lon="151.2899775">
  <ele>358.11</ele>
  <time>2026-09-01T19:53:21Z</time>
  <course>77.67</course>
  <speed>3.46</speed>
  <fix>3d</fix>
</trkpt>
<trkpt lat="-27.2744533" lon="151.2899903">
  <ele>357.99</ele>
  <time>2026-09-01T19:53:21Z</time>
  <course>76.45</course>
  <speed>3.3538634438509867</speed>
  <fix>3d</fix>
</trkpt>
<trkpt lat="-27.2744543" lon="151.2899843">
  <ele>358.11</ele>
  <time>2026-09-01T19:53:21Z</time>
  <course>77.71</course>
  <speed>3.42</speed>
  <fix>3d</fix>
</trkpt>
<trkpt lat="-27.2744527" lon="151.2899936">
  <ele>357.99</ele>
  <time>2026-09-01T19:53:21Z</time>
  <course>76.44</course>
  <speed>3.312657543423407</speed>
  <fix>3d</fix>
</trkpt>
<trkpt lat="-27.2744543" lon="151.2899843">
  <ele>358.11</ele>
  <time>2026-09-01T19:53:21Z</time>
  <course>77.71</course>
  <speed>3.42</speed>
  <fix>3d</fix>
</trkpt>
<trkpt lat="-27.2744521" lon="151.2899969">
  <ele>357.99</ele>
  <time>2026-09-01T19:53:21Z</time>
  <course>76.44</course>
  <speed>3.2616713507035007</speed>
  <fix>3d</fix>
</trkpt>
<trkpt lat="-27.2744531" lon="151.289991">
  <ele>358.11</ele>
  <time>2026-09-01T19:53:21Z</time>
  <course>77.75</course>
  <speed>3.38</speed>
  <fix>3d</fix>
</trkpt>
<trkpt lat="-27.2744514" lon="151.2900001">
  <ele>358.0</ele>
  <time>2026-09-01T19:53:21Z</time>
  <course>76.44</course>
  <speed>3.198827910344663</speed>
  <fix>3d</fix>
</trkpt>
<trkpt lat="-27.2744531" lon="151.289991">
  <ele>358.11</ele>
  <time>2026-09-01T19:53:21Z</time>
  <course>77.75</course>
  <speed>3.38</speed>
  <fix>3d</fix>
</trkpt>
<trkpt lat="-27.2744508" lon="151.2900033">
  <ele>358.0</ele>
  <time>2026-09-01T19:53:21Z</time>
  <course>76.43</course>
  <speed>3.1164242329952447</speed>
  <fix>3d</fix>
</trkpt>
<trkpt lat="-27.2744518" lon="151.2899976">
  <ele>358.11</ele>
  <time>2026-09-01T19:53:21Z</time>
  <course>77.8</course>
  <speed>3.29</speed>
  <fix>3d</fix>
</trkpt>
<trkpt lat="-27.2744503" lon="151.2900063">
  <ele>358.01</ele>
  <time>2026-09-01T19:53:21Z</time>
  <course>76.42</course>
  <speed>3.0242354405700627</speed>
  <fix>3d</fix>
</trkpt>
<trkpt lat="-27.2744518" lon="151.2899976">
  <ele>358.11</ele>
  <time>2026-09-01T19:53:21Z</time>
  <course>77.8</course>
  <speed>3.29</speed>
  <fix>3d</fix>
</trkpt>
<trkpt lat="-27.2744497" lon="151.2900093">
  <ele>358.02</ele>
  <time>2026-09-01T19:53:21Z</time>
  <course>76.41</course>
  <speed>2.932047066470796</speed>
  <fix>3d</fix>
</trkpt>
<trkpt lat="-27.2744506" lon="151.290004">
  <ele>358.11</ele>
  <time>2026-09-01T19:53:21Z</time>
  <course>77.87</course>
  <speed>3.15</speed>
  <fix>3d</fix>
</trkpt>
<trkpt lat="-27.2744491" lon="151.2900122">
  <ele>358.02</ele>
  <time>2026-09-01T19:53:21Z</time>
  <course>76.4</course>
  <speed>2.8182441342083906</speed>
  <fix>3d</fix>
</trkpt>
<trkpt lat="-27.2744506" lon="151.290004">
  <ele>358.11</ele>
  <time>2026-09-01T19:53:21Z</time>
  <course>77.87</course>
  <speed>3.15</speed>
  <fix>3d</fix>
</trkpt>
<trkpt lat="-27.2744486" lon="151.290015">
  <ele>358.03</ele>
  <time>2026-09-01T19:53:21Z</time>
  <course>76.39</course>
  <speed>2.716265819097976</speed>
  <fix>3d</fix>
</trkpt>
<trkpt lat="-27.2744494" lon="151.2900101">
  <ele>358.13</ele>
  <time>2026-09-01T19:53:21Z</time>
  <course>77.95</course>
  <speed>2.96</speed>
  <fix>3d</fix>
</trkpt>
<trkpt lat="-27.2744481" lon="151.2900176">
  <ele>358.03</ele>
  <time>2026-09-01T19:53:21Z</time>
  <course>76.37</course>
  <speed>2.614287665885298</speed>
  <fix>3d</fix>
</trkpt>
<trkpt lat="-27.2744494" lon="151.2900101">
  <ele>358.13</ele>
  <time>2026-09-01T19:53:21Z</time>
  <course>77.95</course>
  <speed>2.96</speed>
  <fix>3d</fix>
</trkpt>
<trkpt lat="-27.2744476" lon="151.2900202">
  <ele>358.03</ele>
  <time>2026-09-01T19:53:21Z</time>
  <course>76.36</course>
  <speed>2.5004999500099974</speed>
  <fix>3d</fix>
</trkpt>
<trkpt lat="-27.2744484" lon="151.2900157">
  <ele>358.14</ele>
  <time>2026-09-01T19:53:21Z</time>
  <course>78.03</course>
  <speed>2.76</speed>
  <fix>3d</fix>
</trkpt>
<trkpt lat="-27.2744472" lon="151.2900227">
  <ele>358.03</ele>
  <time>2026-09-01T19:53:21Z</time>
  <course>76.35</course>
  <speed>2.3887235084873257</speed>
  <fix>3d</fix>
</trkpt>
<trkpt lat="-27.2744484" lon="151.2900157">
  <ele>358.14</ele>
  <time>2026-09-01T19:53:21Z</time>
  <course>78.03</course>
  <speed>2.76</speed>
  <fix>3d</fix>
</trkpt>
<trkpt lat="-27.2744467" lon="151.290025">
  <ele>358.03</ele>
  <time>2026-09-01T19:53:21Z</time>
  <course>76.33</course>
  <speed>2.28475381605984</speed>
  <fix>3d</fix>
</trkpt>
<trkpt lat="-27.2744474" lon="151.290021">
  <ele>358.15</ele>
  <time>2026-09-01T19:53:21Z</time>
  <course>78.13</course>
  <speed>2.54</speed>
  <fix>3d</fix>
</trkpt>
<trkpt lat="-27.2744463" lon="151.2900273">
  <ele>358.03</ele>
  <time>2026-09-01T19:53:21Z</time>
  <course>76.32</course>
  <speed>2.1827734651126764</speed>
  <fix>3d</fix>
</trkpt>
<trkpt lat="-27.2744474" lon="151.290021">
  <ele>358.15</ele>
  <time>2026-09-01T19:53:21Z</time>
  <course>78.13</course>
  <speed>2.54</speed>
  <fix>3d</fix>
</trkpt>
<trkpt lat="-27.2744459" lon="151.2900294">
  <ele>358.03</ele>
  <time>2026-09-01T19:53:21Z</time>
  <course>76.31</course>
  <speed>2.070990101376634</speed>
  <fix>3d</fix>
</trkpt>
<trkpt lat="-27.2744464" lon="151.2900258">
  <ele>358.15</ele>
  <time>2026-09-01T19:53:21Z</time>
  <course>78.24</course>
  <speed>2.32</speed>
  <fix>3d</fix>
</trkpt>
<trkpt lat="-27.2744456" lon="151.2900315">
  <ele>358.03</ele>
  <time>2026-09-01T19:53:21Z</time>
  <course>76.3</course>
  <speed>1.9670536342458993</speed>
  <fix>3d</fix>
</trkpt>
<trkpt lat="-27.2744464" lon="151.2900258">
  <ele>358.15</ele>
  <time>2026-09-01T19:53:21Z</time>
  <course>78.24</course>
  <speed>2.32</speed>
  <fix>3d</fix>
</trkpt>
<trkpt lat="-27.2744452" lon="151.2900334">
  <ele>358.02</ele>
  <time>2026-09-01T19:53:21Z</time>
  <course>76.28</course>
  <speed>1.8650737250843463</speed>
  <fix>3d</fix>
</trkpt>
<trkpt lat="-27.2744457" lon="151.2900302">
  <ele>358.14</ele>
  <time>2026-09-01T19:53:21Z</time>
  <course>78.35</course>
  <speed>2.11</speed>
  <fix>3d</fix>
</trkpt>
<trkpt lat="-27.2744449" lon="151.2900353">
  <ele>358.02</ele>
  <time>2026-09-01T19:53:21Z</time>
  <course>76.27</course>
  <speed>1.7729072169744249</speed>
  <fix>3d</fix>
</trkpt>
<trkpt lat="-27.2744457" lon="151.2900302">
  <ele>358.14</ele>
  <time>2026-09-01T19:53:21Z</time>
  <course>78.35</course>
  <speed>2.11</speed>
  <fix>3d</fix>
</trkpt>
<trkpt lat="-27.2744446" lon="151.290037">
  <ele>358.02</ele>
  <time>2026-09-01T19:53:21Z</time>
  <course>76.26</course>
  <speed>1.6709278859364338</speed>
  <fix>3d</fix>
</trkpt>
<trkpt lat="-27.2744449" lon="151.2900341">
  <ele>358.14</ele>
  <time>2026-09-01T19:53:21Z</time>
  <course>78.49</course>
  <speed>1.9</speed>
  <fix>3d</fix>
</trkpt>
<trkpt lat="-27.2744443" lon="151.2900386">
  <ele>358.01</ele>
  <time>2026-09-01T19:53:21Z</time>
  <course>76.25</course>
  <speed>1.5787653403846944</speed>
  <fix>3d</fix>
</trkpt>
<trkpt lat="-27.2744449" lon="151.2900341">
  <ele>358.14</ele>
  <time>2026-09-01T19:53:21Z</time>
  <course>78.49</course>
  <speed>1.9</speed>
  <fix>3d</fix>
</trkpt>
<trkpt lat="-27.274444" lon="151.2900402">
  <ele>358.01</ele>
  <time>2026-09-01T19:53:21Z</time>
  <course>76.24</course>
  <speed>1.4866068747318506</speed>
  <fix>3d</fix>
</trkpt>
<trkpt lat="-27.2744443" lon="151.2900378">
  <ele>358.13</ele>
  <time>2026-09-01T19:53:21Z</time>
  <course>78.63</course>
  <speed>1.7</speed>
  <fix>3d</fix>
</trkpt>
<trkpt lat="-27.2744437" lon="151.2900417">
  <ele>358.0</ele>
  <time>2026-09-01T19:53:21Z</time>
  <course>76.23</course>
  <speed>1.3944532978913278</speed>
  <fix>3d</fix>
</trkpt>
<trkpt lat="-27.2744443" lon="151.2900378">
  <ele>358.13</ele>
  <time>2026-09-01T19:53:21Z</time>
  <course>78.63</course>
  <speed>1.7</speed>
  <fix>3d</fix>
</trkpt>
<trkpt lat="-27.2744435" lon="151.2900431">
  <ele>358.0</ele>
  <time>2026-09-01T19:53:21Z</time>
  <course>76.21</course>
  <speed>1.3121356637177422</speed>
  <fix>3d</fix>
</trkpt>
<trkpt lat="-27.2744437" lon="151.290041">
  <ele>358.12</ele>
  <time>2026-09-01T19:53:21Z</time>
  <course>78.78</course>
  <speed>1.52</speed>
  <fix>3d</fix>
</trkpt>
<trkpt lat="-27.2744432" lon="151.2900444">
  <ele>358.0</ele>
  <time>2026-09-01T19:53:21Z</time>
  <course>76.21</course>
  <speed>1.2298373876248843</speed>
  <fix>3d</fix>
</trkpt>
<trkpt lat="-27.2744437" lon="151.290041">
  <ele>358.12</ele>
  <time>2026-09-01T19:53:21Z</time>
  <course>78.78</course>
  <speed>1.52</speed>
  <fix>3d</fix>
</trkpt>
<trkpt lat="-27.274443" lon="151.2900456">
  <ele>358.0</ele>
  <time>2026-09-01T19:53:21Z</time>
  <course>76.2</course>
  <speed>1.1475626344561765</speed>
  <fix>3d</fix>
</trkpt>
<trkpt lat="-27.2744432" lon="151.2900438">
  <ele>358.11</ele>
  <time>2026-09-01T19:53:21Z</time>
  <course>78.94</course>
  <speed>1.34</speed>
  <fix>3d</fix>
</trkpt>
<trkpt lat="-27.2744428" lon="151.2900468">
  <ele>358.0</ele>
  <time>2026-09-01T19:53:21Z</time>
  <course>76.19</course>
  <speed>1.067052013727541</speed>
  <fix>3d</fix>
</trkpt>
<trkpt lat="-27.2744432" lon="151.2900438">
  <ele>358.11</ele>
  <time>2026-09-01T19:53:21Z</time>
  <course>78.94</course>
  <speed>1.34</speed>
  <fix>3d</fix>
</trkpt>
<trkpt lat="-27.2744426" lon="151.2900478">
  <ele>358.0</ele>
  <time>2026-09-01T19:53:21Z</time>
  <course>76.18</course>
  <speed>0.9946356116689167</speed>
  <fix>3d</fix>
</trkpt>
<trkpt lat="-27.2744428" lon="151.2900463">
  <ele>358.11</ele>
  <time>2026-09-01T19:53:21Z</time>
  <course>79.11</course>
  <speed>1.18</speed>
  <fix>3d</fix>
</trkpt>
<trkpt lat="-27.2744425" lon="151.2900488">
  <ele>358.0</ele>
  <time>2026-09-01T19:53:21Z</time>
  <course>76.17</course>
  <speed>0.9338094023943002</speed>
  <fix>3d</fix>
</trkpt>
<trkpt lat="-27.2744428" lon="151.2900463">
  <ele>358.11</ele>
  <time>2026-09-01T19:53:21Z</time>
  <course>79.11</course>
  <speed>1.18</speed>
  <fix>3d</fix>
</trkpt>
<trkpt lat="-27.2744423" lon="151.2900498">
  <ele>357.99</ele>
  <time>2026-09-01T19:53:21Z</time>
  <course>76.16</course>
  <speed>0.8729833904490967</speed>
  <fix>3d</fix>
</trkpt>
<trkpt lat="-27.2744424" lon="151.2900484">
  <ele>358.11</ele>
  <time>2026-09-01T19:53:21Z</time>
  <course>79.27</course>
  <speed>1.03</speed>
  <fix>3d</fix>
</trkpt>
<trkpt lat="-27.2744422" lon="151.2900507">
  <ele>357.98</ele>
  <time>2026-09-01T19:53:21Z</time>
  <course>76.15</course>
  <speed>0.8121576201698781</speed>
  <fix>3d</fix>
</trkpt>
<trkpt lat="-27.2744424" lon="151.2900484">
  <ele>358.11</ele>
  <time>2026-09-01T19:53:21Z</time>
  <course>79.27</course>
  <speed>1.03</speed>
  <fix>3d</fix>
</trkpt>
<trkpt lat="-27.274442" lon="151.2900515">
  <ele>357.95</ele>
  <time>2026-09-01T19:53:21Z</time>
  <course>76.15</course>
  <speed>0.7710382610480494</speed>
  <fix>3d</fix>
</trkpt>
<trkpt lat="-27.2744421" lon="151.2900503">
  <ele>358.09</ele>
  <time>2026-09-01T19:53:21Z</time>
  <course>79.41</course>
  <speed>0.9</speed>
  <fix>3d</fix>
</trkpt>
<trkpt lat="-27.2744419" lon="151.2900523">
  <ele>357.91</ele>
  <time>2026-09-01T19:53:21Z</time>
  <course>76.14</course>
  <speed>0.7200694410957876</speed>
  <fix>3d</fix>
</trkpt>
<trkpt lat="-27.2744421" lon="151.2900503">
  <ele>358.09</ele>
  <time>2026-09-01T19:53:21Z</time>
  <course>79.41</course>
  <speed>0.9</speed>
  <fix>3d</fix>
</trkpt>
<trkpt lat="-27.2744418" lon="151.290053">
  <ele>357.85</ele>
  <time>2026-09-01T19:53:21Z</time>
  <course>76.14</course>
  <speed>0.6789698078707183</speed>
  <fix>3d</fix>
</trkpt>
<trkpt lat="-27.2744418" lon="151.2900521">
  <ele>358.05</ele>
  <time>2026-09-01T19:53:21Z</time>
  <course>79.51</course>
  <speed>0.79</speed>
  <fix>3d</fix>
</trkpt>
<trkpt lat="-27.2744417" lon="151.2900537">
  <ele>357.77</ele>
  <time>2026-09-01T19:53:21Z</time>
  <course>76.14</course>
  <speed>0.6280127387243033</speed>
  <fix>3d</fix>
</trkpt>
<trkpt lat="-27.2744418" lon="151.2900521">
  <ele>358.05</ele>
  <time>2026-09-01T19:53:21Z</time>
  <course>79.51</course>
  <speed>0.79</speed>
  <fix>3d</fix>
</trkpt>
<trkpt lat="-27.2744416" lon="151.2900544">
  <ele>357.68</ele>
  <time>2026-09-01T19:53:21Z</time>
  <course>76.15</course>
  <speed>0.5869412236331676</speed>
  <fix>3d</fix>
</trkpt>
<trkpt lat="-27.2744415" lon="151.2900536">
  <ele>357.95</ele>
  <time>2026-09-01T19:53:21Z</time>
  <course>79.57</course>
  <speed>0.69</speed>
  <fix>3d</fix>
</trkpt>
<trkpt lat="-27.2744415" lon="151.290055">
  <ele>357.56</ele>
  <time>2026-09-01T19:53:21Z</time>
  <course>76.15</course>
  <speed>0.5375872022286245</speed>
  <fix>3d</fix>
</trkpt>
<trkpt lat="-27.2744415" lon="151.2900536">
  <ele>357.95</ele>
  <time>2026-09-01T19:53:21Z</time>
  <course>79.57</course>
  <speed>0.69</speed>
  <fix>3d</fix>
</trkpt>
<trkpt lat="-27.2744414" lon="151.2900555">
  <ele>357.44</ele>
  <time>2026-09-01T19:53:21Z</time>
  <course>76.16</course>
  <speed>0.49648766349225637</speed>
  <fix>3d</fix>
</trkpt>
<trkpt lat="-27.2744414" lon="151.2900548">
  <ele>357.78</ele>
  <time>2026-09-01T19:53:21Z</time>
  <course>79.59</course>
  <speed>0.6</speed>
  <fix>3d</fix>
</trkpt>
<trkpt lat="-27.2744413" lon="151.290056">
  <ele>357.3</ele>
  <time>2026-09-01T19:53:21Z</time>
  <course>76.17</course>
  <speed>0.455411901469428</speed>
  <fix>3d</fix>
</trkpt>
<trkpt lat="-27.2744414" lon="151.2900548">
  <ele>357.78</ele>
  <time>2026-09-01T19:53:21Z</time>
  <course>79.59</course>
  <speed>0.6</speed>
  <fix>3d</fix>
</trkpt>
<trkpt lat="-27.2744412" lon="151.2900565">
  <ele>357.15</ele>
  <time>2026-09-01T19:53:21Z</time>
  <course>76.18</course>
  <speed>0.4143669871020132</speed>
  <fix>3d</fix>
</trkpt>
<trkpt lat="-27.2744412" lon="151.290056">
  <ele>357.55</ele>
  <time>2026-09-01T19:53:21Z</time>
  <course>79.56</course>
  <speed>0.51</speed>
  <fix>3d</fix>
</trkpt>
<trkpt lat="-27.2744411" lon="151.2900569">
  <ele>357.0</ele>
  <time>2026-09-01T19:53:21Z</time>
  <course>76.19</course>
  <speed>0.37483329627982626</speed>
  <fix>3d</fix>
</trkpt>
<trkpt lat="-27.2744412" lon="151.290056">
  <ele>357.55</ele>
  <time>2026-09-01T19:53:21Z</time>
  <course>79.56</course>
  <speed>0.51</speed>
  <fix>3d</fix>
</trkpt>
<trkpt lat="-27.2744411" lon="151.2900573">
  <ele>356.84</ele>
  <time>2026-09-01T19:53:21Z</time>
  <course>76.2</course>
  <speed>0.34365680554879163</speed>
  <fix>3d</fix>
</trkpt>
<trkpt lat="-27.274441" lon="151.2900569">
  <ele>357.26</ele>
  <time>2026-09-01T19:53:21Z</time>
  <course>79.4</course>
  <speed>0.43</speed>
  <fix>3d</fix>
</trkpt>
<trkpt lat="-27.274441" lon="151.2900577">
  <ele>356.67</ele>
  <time>2026-09-01T19:53:21Z</time>
  <course>76.2</course>
  <speed>0.31400636936215165</speed>
  <fix>3d</fix>
</trkpt>
<trkpt lat="-27.274441" lon="151.2900569">
  <ele>357.26</ele>
  <time>2026-09-01T19:53:21Z</time>
  <course>79.4</course>
  <speed>0.43</speed>
  <fix>3d</fix>
</trkpt>
<trkpt lat="-27.2744409" lon="151.290058">
  <ele>356.51</ele>
  <time>2026-09-01T19:53:21Z</time>
  <course>76.2</course>
  <speed>0.282842712474619</speed>
  <fix>3d</fix>
</trkpt>
<trkpt lat="-27.2744409" lon="151.2900577">
  <ele>356.95</ele>
  <time>2026-09-01T19:53:21Z</time>
  <course>79.06</course>
  <speed>0.35</speed>
  <fix>3d</fix>
</trkpt>
<trkpt lat="-27.2744409" lon="151.2900583">
  <ele>356.35</ele>
  <time>2026-09-01T19:53:21Z</time>
  <course>76.19</course>
  <speed>0.25317977802344327</speed>
  <fix>3d</fix>
</trkpt>
<trkpt lat="-27.2744409" lon="151.2900577">
  <ele>356.95</ele>
  <time>2026-09-01T19:53:21Z</time>
  <course>79.06</course>
  <speed>0.35</speed>
  <fix>3d</fix>
</trkpt>
<trkpt lat="-27.2744409" lon="151.2900586">
  <ele>356.19</ele>
  <time>2026-09-01T19:53:21Z</time>
  <course>76.17</course>
  <speed>0.23194827009486402</speed>
  <fix>3d</fix>
</trkpt>
<trkpt lat="-27.2744408" lon="151.2900584">
  <ele>356.62</ele>
  <time>2026-09-01T19:53:21Z</time>
  <course>78.48</course>
  <speed>0.29</speed>
  <fix>3d</fix>
</trkpt>
<trkpt lat="-27.2744408" lon="151.2900588">
  <ele>356.03</ele>
  <time>2026-09-01T19:53:21Z</time>
  <course>76.15</course>
  <speed>0.21213203435596426</speed>
  <fix>3d</fix>
</trkpt>
<trkpt lat="-27.2744408" lon="151.2900584">
  <ele>356.62</ele>
  <time>2026-09-01T19:53:21Z</time>
  <course>78.48</course>
  <speed>0.29</speed>
  <fix>3d</fix>
</trkpt>
<trkpt lat="-27.2744408" lon="151.2900591">
  <ele>355.87</ele>
  <time>2026-09-01T19:53:21Z</time>
  <course>76.13</course>
  <speed>0.20223748416156684</speed>
  <fix>3d</fix>
</trkpt>
<trkpt lat="-27.2744407" lon="151.2900589">
  <ele>356.3</ele>
  <time>2026-09-01T19:53:21Z</time>
  <course>77.67</course>
  <speed>0.25</speed>
  <fix>3d</fix>
</trkpt>
<trkpt lat="-27.2744407" lon="151.2900593">
  <ele>355.71</ele>
  <time>2026-09-01T19:53:21Z</time>
  <course>76.11</course>
  <speed>0.1824828759089466</speed>
  <fix>3d</fix>
</trkpt>
<trkpt lat="-27.2744407" lon="151.2900589">
  <ele>356.3</ele>
  <time>2026-09-01T19:53:21Z</time>
  <course>77.67</course>
  <speed>0.25</speed>
  <fix>3d</fix>
</trkpt>
<trkpt lat="-27.2744407" lon="151.2900595">
  <ele>355.56</ele>
  <time>2026-09-01T19:53:21Z</time>
  <course>76.08</course>
  <speed>0.1711724276862369</speed>
  <fix>3d</fix>
</trkpt>
<trkpt lat="-27.2744406" lon="151.2900593">
  <ele>355.98</ele>
  <time>2026-09-01T19:53:21Z</time>
  <course>76.7</course>
  <speed>0.21</speed>
  <fix>3d</fix>
</trkpt>
<trkpt lat="-27.2744406" lon="151.2900597">
  <ele>355.41</ele>
  <time>2026-09-01T19:53:21Z</time>
  <course>76.06</course>
  <speed>0.16124515496597097</speed>
  <fix>3d</fix>
</trkpt>
<trkpt lat="-27.2744406" lon="151.2900593">
  <ele>355.98</ele>
  <time>2026-09-01T19:53:21Z</time>
  <course>76.7</course>
  <speed>0.21</speed>
  <fix>3d</fix>
</trkpt>
<trkpt lat="-27.2744406" lon="151.2900599">
  <ele>355.26</ele>
  <time>2026-09-01T19:53:21Z</time>
  <course>76.05</course>
  <speed>0.15132745950421556</speed>
  <fix>3d</fix>
</trkpt>
<trkpt lat="-27.2744405" lon="151.2900597">
  <ele>355.68</ele>
  <time>2026-09-01T19:53:21Z</time>
  <course>75.64</course>
  <speed>0.19</speed>
  <fix>3d</fix>
</trkpt>
<trkpt lat="-27.2744406" lon="151.29006">
  <ele>355.11</ele>
  <time>2026-09-01T19:53:21Z</time>
  <course>76.03</course>
  <speed>0.15132745950421556</speed>
  <fix>3d</fix>
</trkpt>
<trkpt lat="-27.2744405" lon="151.2900597">
  <ele>355.68</ele>
  <time>2026-09-01T19:53:21Z</time>
  <course>75.64</course>
  <speed>0.19</speed>
  <fix>3d</fix>
</trkpt>
<trkpt lat="-27.2744405" lon="151.2900602">
  <ele>354.97</ele>
  <time>2026-09-01T19:53:21Z</time>
  <course>76.02</course>
  <speed>0.1414213562373095</speed>
  <fix>3d</fix>
</trkpt>
<trkpt lat="-27.2744404" lon="151.2900601">
  <ele>355.38</ele>
  <time>2026-09-01T19:53:21Z</time>
  <course>74.57</course>
  <speed>0.17</speed>
  <fix>3d</fix>
</trkpt>
<trkpt lat="-27.2744405" lon="151.2900604">
  <ele>354.82</ele>
  <time>2026-09-01T19:53:21Z</time>
  <course>76.01</course>
  <speed>0.1414213562373095</speed>
  <fix>3d</fix>
</trkpt>
<trkpt lat="-27.2744404" lon="151.2900601">
  <ele>355.38</ele>
  <time>2026-09-01T19:53:21Z</time>
  <course>74.57</course>
  <speed>0.17</speed>
  <fix>3d</fix>
</trkpt>
<trkpt lat="-27.2744405" lon="151.2900605">
  <ele>354.68</ele>
  <time>2026-09-01T19:53:21Z</time>
  <course>76.0</course>
  <speed>0.1414213562373095</speed>
  <fix>3d</fix>
</trkpt>
<trkpt lat="-27.2744403" lon="151.2900604">
  <ele>355.09</ele>
  <time>2026-09-01T19:53:21Z</time>
  <course>73.63</course>
  <speed>0.16</speed>
  <fix>3d</fix>
</trkpt>
<trkpt lat="-27.2744404" lon="151.2900607">
  <ele>354.54</ele>
  <time>2026-09-01T19:53:21Z</time>
  <course>75.99</course>
  <speed>0.13152946437965907</speed>
  <fix>3d</fix>
</trkpt>
<trkpt lat="-27.2744403" lon="151.2900604">
  <ele>355.09</ele>
  <time>2026-09-01T19:53:21Z</time>
  <course>73.63</course>
  <speed>0.16</speed>
  <fix>3d</fix>
</trkpt>
<trkpt lat="-27.2744404" lon="151.2900608">
  <ele>354.4</ele>
  <time>2026-09-01T19:53:21Z</time>
  <course>75.98</course>
  <speed>0.13152946437965907</speed>
  <fix>3d</fix>
</trkpt>
<trkpt lat="-27.2744403" lon="151.2900607">
  <ele>354.81</ele>
  <time>2026-09-01T19:53:21Z</time>
  <course>72.85</course>
  <speed>0.15</speed>
  <fix>3d</fix>
</trkpt>
<trkpt lat="-27.2744403" lon="151.290061">
  <ele>354.25</ele>
  <time>2026-09-01T19:53:21Z</time>
  <course>75.98</course>
  <speed>0.13152946437965907</speed>
  <fix>3d</fix>
</trkpt>
<trkpt lat="-27.2744403" lon="151.2900607">
  <ele>354.81</ele>
  <time>2026-09-01T19:53:21Z</time>
  <course>72.85</course>
  <speed>0.15</speed>
  <fix>3d</fix>
</trkpt>
<trkpt lat="-27.2744403" lon="151.2900611">
  <ele>354.11</ele>
  <time>2026-09-01T19:53:21Z</time>
  <course>75.97</course>
  <speed>0.13152946437965907</speed>
  <fix>3d</fix>
</trkpt>
<trkpt lat="-27.2744402" lon="151.290061">
  <ele>354.52</ele>
  <time>2026-09-01T19:53:21Z</time>
  <course>72.16</course>
  <speed>0.15</speed>
  <fix>3d</fix>
</trkpt>
<trkpt lat="-27.2744403" lon="151.2900613">
  <ele>353.98</ele>
  <time>2026-09-01T19:53:21Z</time>
  <course>75.96</course>
  <speed>0.1414213562373095</speed>
  <fix>3d</fix>
</trkpt>
<trkpt lat="-27.2744402" lon="151.290061">
  <ele>354.52</ele>
  <time>2026-09-01T19:53:21Z</time>
  <course>72.16</course>
  <speed>0.15</speed>
  <fix>3d</fix>
</trkpt>
<trkpt lat="-27.2744402" lon="151.2900614">
  <ele>353.84</ele>
  <time>2026-09-01T19:53:21Z</time>
  <course>75.96</course>
  <speed>0.1414213562373095</speed>
  <fix>3d</fix>
</trkpt>
<trkpt lat="-27.2744401" lon="151.2900613">
  <ele>354.24</ele>
  <time>2026-09-01T19:53:21Z</time>
  <course>71.57</course>
  <speed>0.15</speed>
  <fix>3d</fix>
</trkpt>
<trkpt lat="-27.2744402" lon="151.2900616">
  <ele>353.7</ele>
  <time>2026-09-01T19:53:21Z</time>
  <course>75.96</course>
  <speed>0.1414213562373095</speed>
  <fix>3d</fix>
</trkpt>
<trkpt lat="-27.2744401" lon="151.2900613">
  <ele>354.24</ele>
  <time>2026-09-01T19:53:21Z</time>
  <course>71.57</course>
  <speed>0.15</speed>
  <fix>3d</fix>
</trkpt>
<trkpt lat="-27.2744401" lon="151.2900617">
  <ele>353.57</ele>
  <time>2026-09-01T19:53:21Z</time>
  <course>75.96</course>
  <speed>0.1414213562373095</speed>
  <fix>3d</fix>
</trkpt>
<trkpt lat="-27.27444" lon="151.2900616">
  <ele>353.96</ele>
  <time>2026-09-01T19:53:21Z</time>
  <course>71.21</course>
  <speed>0.16</speed>
  <fix>3d</fix>
</trkpt>
<trkpt lat="-27.2744401" lon="151.2900619">
  <ele>353.43</ele>
  <time>2026-09-01T19:53:21Z</time>
  <course>75.96</course>
  <speed>0.1414213562373095</speed>
  <fix>3d</fix>
</trkpt>
<trkpt lat="-27.27444" lon="151.2900616">
  <ele>353.96</ele>
  <time>2026-09-01T19:53:21Z</time>
  <course>71.21</course>
  <speed>0.16</speed>
  <fix>3d</fix>
</trkpt>
<trkpt lat="-27.27444" lon="151.2900621">
  <ele>353.3</ele>
  <time>2026-09-01T19:53:21Z</time>
  <course>75.96</course>
  <speed>0.14317821063276354</speed>
  <fix>3d</fix>
</trkpt>
<trkpt lat="-27.2744399" lon="151.2900619">
  <ele>353.69</ele>
  <time>2026-09-01T19:53:21Z</time>
  <course>71.03</course>
  <speed>0.16</speed>
  <fix>3d</fix>
</trkpt>
<trkpt lat="-27.27444" lon="151.2900622">
  <ele>353.17</ele>
  <time>2026-09-01T19:53:21Z</time>
  <course>75.96</course>
  <speed>0.15297058540778355</speed>
  <fix>3d</fix>
</trkpt>
<trkpt lat="-27.2744399" lon="151.2900619">
  <ele>353.69</ele>
  <time>2026-09-01T19:53:21Z</time>
  <course>71.03</course>
  <speed>0.16</speed>
  <fix>3d</fix>
</trkpt>
<trkpt lat="-27.2744399" lon="151.2900624">
  <ele>353.04</ele>
  <time>2026-09-01T19:53:21Z</time>
  <course>75.97</course>
  <speed>0.15297058540778355</speed>
  <fix>3d</fix>
</trkpt>
<trkpt lat="-27.2744398" lon="151.2900623">
  <ele>353.42</ele>
  <time>2026-09-01T19:53:21Z</time>
  <course>71.0</course>
  <speed>0.17</speed>
  <fix>3d</fix>
</trkpt>
<trkpt lat="-27.2744399" lon="151.2900626">
  <ele>352.91</ele>
  <time>2026-09-01T19:53:21Z</time>
  <course>75.97</course>
  <speed>0.15297058540778355</speed>
  <fix>3d</fix>
</trkpt>
<trkpt lat="-27.2744398" lon="151.2900623">
  <ele>353.42</ele>
  <time>2026-09-01T19:53:21Z</time>
  <course>71.0</course>
  <speed>0.17</speed>
  <fix>3d</fix>
</trkpt>
<trkpt lat="-27.2744398" lon="151.2900627">
  <ele>352.79</ele>
  <time>2026-09-01T19:53:21Z</time>
  <course>75.97</course>
  <speed>0.15297058540778355</speed>
  <fix>3d</fix>
</trkpt>
<trkpt lat="-27.2744397" lon="151.2900626">
  <ele>353.16</ele>
  <time>2026-09-01T19:53:21Z</time>
  <course>71.08</course>
  <speed>0.18</speed>
  <fix>3d</fix>
</trkpt>
<trkpt lat="-27.2744398" lon="151.2900629">
  <ele>352.67</ele>
  <time>2026-09-01T19:53:21Z</time>
  <course>75.98</course>
  <speed>0.16278820596099705</speed>
  <fix>3d</fix>
</trkpt>
<trkpt lat="-27.2744397" lon="151.2900626">
  <ele>353.16</ele>
  <time>2026-09-01T19:53:21Z</time>
  <course>71.08</course>
  <speed>0.18</speed>
  <fix>3d</fix>
</trkpt>
<trkpt lat="-27.2744397" lon="151.2900631">
  <ele>352.55</ele>
  <time>2026-09-01T19:53:21Z</time>
  <course>75.98</course>
  <speed>0.16278820596099705</speed>
  <fix>3d</fix>
</trkpt>
<trkpt lat="-27.2744396" lon="151.2900629">
  <ele>352.9</ele>
  <time>2026-09-01T19:53:21Z</time>
  <course>71.23</course>
  <speed>0.18</speed>
  <fix>3d</fix>
</trkpt>
<trkpt lat="-27.2744397" lon="151.2900633">
  <ele>352.43</ele>
  <time>2026-09-01T19:53:21Z</time>
  <course>75.99</course>
  <speed>0.16278820596099705</speed>
  <fix>3d</fix>
</trkpt>
<trkpt lat="-27.2744396" lon="151.2900629">
  <ele>352.9</ele>
  <time>2026-09-01T19:53:21Z</time>
  <course>71.23</course>
  <speed>0.18</speed>
  <fix>3d</fix>
</trkpt>
<trkpt lat="-27.2744396" lon="151.2900634">
  <ele>352.31</ele>
  <time>2026-09-01T19:53:21Z</time>
  <course>75.99</course>
  <speed>0.16278820596099705</speed>
  <fix>3d</fix>
</trkpt>
<trkpt lat="-27.2744395" lon="151.2900633">
  <ele>352.66</ele>
  <time>2026-09-01T19:53:21Z</time>
  <course>71.39</course>
  <speed>0.19</speed>
  <fix>3d</fix>
</trkpt>
<trkpt lat="-27.2744396" lon="151.2900636">
  <ele>352.19</ele>
  <time>2026-09-01T19:53:21Z</time>
  <course>76.0</course>
  <speed>0.16278820596099705</speed>
  <fix>3d</fix>
</trkpt>
<trkpt lat="-27.2744395" lon="151.2900633">
  <ele>352.66</ele>
  <time>2026-09-01T19:53:21Z</time>
  <course>71.39</course>
  <speed>0.19</speed>
  <fix>3d</fix>
</trkpt>
<trkpt lat="-27.2744395" lon="151.2900638">
  <ele>352.08</ele>
  <time>2026-09-01T19:53:21Z</time>
  <course>76.0</course>
  <speed>0.16278820596099705</speed>
  <fix>3d</fix>
</trkpt>
<trkpt lat="-27.2744394" lon="151.2900637">
  <ele>352.42</ele>
  <time>2026-09-01T19:53:21Z</time>
  <course>71.57</course>
  <speed>0.19</speed>
  <fix>3d</fix>
</trkpt>
<trkpt lat="-27.2744395" lon="151.290064">
  <ele>351.97</ele>
  <time>2026-09-01T19:53:21Z</time>
  <course>76.0</course>
  <speed>0.16278820596099705</speed>
  <fix>3d</fix>
</trkpt>
<trkpt lat="-27.2744394" lon="151.2900637">
  <ele>352.42</ele>
  <time>2026-09-01T19:53:22Z</time>
  <course>71.57</course>
  <speed>0.19</speed>
  <fix>3d</fix>
</trkpt>
<trkpt lat="-27.2744394" lon="151.2900642">
  <ele>351.86</ele>
  <time>2026-09-01T19:53:22Z</time>
  <course>76.0</course>
  <speed>0.16278820596099705</speed>
  <fix>3d</fix>
</trkpt>
<trkpt lat="-27.2744392" lon="151.2900641">
  <ele>352.2</ele>
  <time>2026-09-01T19:53:22Z</time>
  <course>71.78</course>
  <speed>0.19</speed>
  <fix>3d</fix>
</trkpt>
<trkpt lat="-27.2744394" lon="151.2900644">
  <ele>351.76</ele>
  <time>2026-09-01T19:53:22Z</time>
  <course>76.0</course>
  <speed>0.16278820596099705</speed>
  <fix>3d</fix>
</trkpt>
<trkpt lat="-27.2744392" lon="151.2900641">
  <ele>352.2</ele>
  <time>2026-09-01T19:53:22Z</time>
  <course>71.78</course>
  <speed>0.19</speed>
  <fix>3d</fix>
</trkpt>
<trkpt lat="-27.2744393" lon="151.2900645">
  <ele>351.65</ele>
  <time>2026-09-01T19:53:22Z</time>
  <course>76.0</course>
  <speed>0.16278820596099705</speed>
  <fix>3d</fix>
</trkpt>
<trkpt lat="-27.2744391" lon="151.2900644">
  <ele>351.98</ele>
  <time>2026-09-01T19:53:22Z</time>
  <course>72.03</course>
  <speed>0.19</speed>
  <fix>3d</fix>
</trkpt>
<trkpt lat="-27.2744393" lon="151.2900647">
  <ele>351.55</ele>
  <time>2026-09-01T19:53:22Z</time>
  <course>76.01</course>
  <speed>0.15132745950421556</speed>
  <fix>3d</fix>
</trkpt>
<trkpt lat="-27.2744391" lon="151.2900644">
  <ele>351.98</ele>
  <time>2026-09-01T19:53:22Z</time>
  <course>72.03</course>
  <speed>0.19</speed>
  <fix>3d</fix>
</trkpt>
<trkpt lat="-27.2744392" lon="151.2900649">
  <ele>351.45</ele>
  <time>2026-09-01T19:53:22Z</time>
  <course>76.01</course>
  <speed>0.15132745950421556</speed>
  <fix>3d</fix>
</trkpt>
<trkpt lat="-27.274439" lon="151.2900648">
  <ele>351.77</ele>
  <time>2026-09-01T19:53:22Z</time>
  <course>72.28</course>
  <speed>0.19</speed>
  <fix>3d</fix>
</trkpt>
<trkpt lat="-27.2744392" lon="151.2900651">
  <ele>351.35</ele>
  <time>2026-09-01T19:53:22Z</time>
  <course>76.01</course>
  <speed>0.15132745950421556</speed>
  <fix>3d</fix>
</trkpt>
<trkpt lat="-27.274439" lon="151.2900648">
  <ele>351.77</ele>
  <time>2026-09-01T19:53:22Z</time>
  <course>72.28</course>
  <speed>0.19</speed>
  <fix>3d</fix>
</trkpt>
<trkpt lat="-27.2744391" lon="151.2900653">
  <ele>351.26</ele>
  <time>2026-09-01T19:53:22Z</time>
  <course>76.02</course>
  <speed>0.15132745950421556</speed>
  <fix>3d</fix>
</trkpt>
<trkpt lat="-27.2744389" lon="151.2900652">
  <ele>351.57</ele>
  <time>2026-09-01T19:53:22Z</time>
  <course>72.66</course>
  <speed>0.19</speed>
  <fix>3d</fix>
</trkpt>
<trkpt lat="-27.2744391" lon="151.2900654">
  <ele>351.16</ele>
  <time>2026-09-01T19:53:22Z</time>
  <course>76.02</course>
  <speed>0.1414213562373095</speed>
  <fix>3d</fix>
</trkpt>
<trkpt lat="-27.2744389" lon="151.2900652">
  <ele>351.57</ele>
  <time>2026-09-01T19:53:22Z</time>
  <course>72.66</course>
  <speed>0.19</speed>
  <fix>3d</fix>
</trkpt>
<trkpt lat="-27.274439" lon="151.2900656">
  <ele>351.07</ele>
  <time>2026-09-01T19:53:22Z</time>
  <course>76.02</course>
  <speed>0.1414213562373095</speed>
  <fix>3d</fix>
</trkpt>
<trkpt lat="-27.2744388" lon="151.2900656">
  <ele>351.37</ele>
  <time>2026-09-01T19:53:22Z</time>
  <course>73.1</course>
  <speed>0.18</speed>
  <fix>3d</fix>
</trkpt>
<trkpt lat="-27.274439" lon="151.2900658">
  <ele>350.98</ele>
  <time>2026-09-01T19:53:22Z</time>
  <course>76.03</course>
  <speed>0.13152946437965907</speed>
  <fix>3d</fix>
</trkpt>
<trkpt lat="-27.2744388" lon="151.2900656">
  <ele>351.37</ele>
  <time>2026-09-01T19:53:22Z</time>
  <course>73.1</course>
  <speed>0.18</speed>
  <fix>3d</fix>
</trkpt>
<trkpt lat="-27.2744389" lon="151.2900659">
  <ele>350.89</ele>
  <time>2026-09-01T19:53:22Z</time>
  <course>76.03</course>
  <speed>0.130384048104053</speed>
  <fix>3d</fix>
</trkpt>
<trkpt lat="-27.2744387" lon="151.2900659">
  <ele>351.19</ele>
  <time>2026-09-01T19:53:22Z</time>
  <course>73.48</course>
  <speed>0.17</speed>
  <fix>3d</fix>
</trkpt>
<trkpt lat="-27.2744389" lon="151.2900661">
  <ele>350.81</ele>
  <time>2026-09-01T19:53:22Z</time>
  <course>76.03</course>
  <speed>0.130384048104053</speed>
  <fix>3d</fix>
</trkpt>
<trkpt lat="-27.2744387" lon="151.2900659">
  <ele>351.19</ele>
  <time>2026-09-01T19:53:22Z</time>
  <course>73.48</course>
  <speed>0.17</speed>
  <fix>3d</fix>
</trkpt>
<trkpt lat="-27.2744388" lon="151.2900662">
  <ele>350.72</ele>
  <time>2026-09-01T19:53:22Z</time>
  <course>76.03</course>
  <speed>0.12041594578792296</speed>
  <fix>3d</fix>
</trkpt>
<trkpt lat="-27.2744386" lon="151.2900662">
  <ele>351.01</ele>
  <time>2026-09-01T19:53:22Z</time>
  <course>73.97</course>
  <speed>0.17</speed>
  <fix>3d</fix>
</trkpt>
<trkpt lat="-27.2744388" lon="151.2900664">
  <ele>350.64</ele>
  <time>2026-09-01T19:53:22Z</time>
  <course>76.03</course>
  <speed>0.11045361017187261</speed>
  <fix>3d</fix>
</trkpt>
<trkpt lat="-27.2744386" lon="151.2900662">
  <ele>351.01</ele>
  <time>2026-09-01T19:53:22Z</time>
  <course>73.97</course>
  <speed>0.17</speed>
  <fix>3d</fix>
</trkpt>
<trkpt lat="-27.2744388" lon="151.2900665">
  <ele>350.55</ele>
  <time>2026-09-01T19:53:22Z</time>
  <course>76.03</course>
  <speed>0.11045361017187261</speed>
  <fix>3d</fix>
</trkpt>
<trkpt lat="-27.2744386" lon="151.2900666">
  <ele>350.84</ele>
  <time>2026-09-01T19:53:22Z</time>
  <course>74.62</course>
  <speed>0.15</speed>
  <fix>3d</fix>
</trkpt>
<trkpt lat="-27.2744387" lon="151.2900667">
  <ele>350.47</ele>
  <time>2026-09-01T19:53:22Z</time>
  <course>76.03</course>
  <speed>0.1</speed>
  <fix>3d</fix>
</trkpt>
<trkpt lat="-27.2744386" lon="151.2900666">
  <ele>350.84</ele>
  <time>2026-09-01T19:53:22Z</time>
  <course>74.62</course>
  <speed>0.15</speed>
  <fix>3d</fix>
</trkpt>
<trkpt lat="-27.2744387" lon="151.2900668">
  <ele>350.39</ele>
  <time>2026-09-01T19:53:22Z</time>
  <course>76.04</course>
  <speed>0.1</speed>
  <fix>3d</fix>
</trkpt>
<trkpt lat="-27.2744385" lon="151.2900669">
  <ele>350.67</ele>
  <time>2026-09-01T19:53:22Z</time>
  <course>75.44</course>
  <speed>0.14</speed>
  <fix>3d</fix>
</trkpt>
<trkpt lat="-27.2744387" lon="151.2900669">
  <ele>350.31</ele>
  <time>2026-09-01T19:53:22Z</time>
  <course>76.04</course>
  <speed>0.09</speed>
  <fix>3d</fix>
</trkpt>
<trkpt lat="-27.2744385" lon="151.2900669">
  <ele>350.67</ele>
  <time>2026-09-01T19:53:22Z</time>
  <course>75.44</course>
  <speed>0.14</speed>
  <fix>3d</fix>
</trkpt>
<trkpt lat="-27.2744386" lon="151.2900671">
  <ele>350.24</ele>
  <time>2026-09-01T19:53:22Z</time>
  <course>76.04</course>
  <speed>0.09</speed>
  <fix>3d</fix>
</trkpt>
<trkpt lat="-27.2744384" lon="151.2900672">
  <ele>350.51</ele>
  <time>2026-09-01T19:53:22Z</time>
  <course>76.35</course>
  <speed>0.13</speed>
  <fix>3d</fix>
</trkpt>
<trkpt lat="-27.2744386" lon="151.2900672">
  <ele>350.16</ele>
  <time>2026-09-01T19:53:22Z</time>
  <course>76.04</course>
  <speed>0.08</speed>
  <fix>3d</fix>
</trkpt>
<trkpt lat="-27.2744384" lon="151.2900672">
  <ele>350.51</ele>
  <time>2026-09-01T19:53:22Z</time>
  <course>76.35</course>
  <speed>0.13</speed>
  <fix>3d</fix>
</trkpt>
<trkpt lat="-27.2744386" lon="151.2900673">
  <ele>350.09</ele>
  <time>2026-09-01T19:53:22Z</time>
  <course>76.04</course>
  <speed>0.07</speed>
  <fix>3d</fix>
</trkpt>
<trkpt lat="-27.2744384" lon="151.2900674">
  <ele>350.35</ele>
  <time>2026-09-01T19:53:22Z</time>
  <course>77.4</course>
  <speed>0.12</speed>
  <fix>3d</fix>
</trkpt>
<trkpt lat="-27.2744386" lon="151.2900674">
  <ele>350.01</ele>
  <time>2026-09-01T19:53:22Z</time>
  <course>76.04</course>
  <speed>0.06</speed>
  <fix>3d</fix>
</trkpt>
<trkpt lat="-27.2744384" lon="151.2900674">
  <ele>350.35</ele>
  <time>2026-09-01T19:53:22Z</time>
  <course>77.4</course>
  <speed>0.12</speed>
  <fix>3d</fix>
</trkpt>
<trkpt lat="-27.2744386" lon="151.2900675">
  <ele>349.94</ele>
  <time>2026-09-01T19:53:22Z</time>
  <course>76.04</course>
  <speed>0.06</speed>
  <fix>3d</fix>
</trkpt>
<trkpt lat="-27.2744384" lon="151.2900677">
  <ele>350.2</ele>
  <time>2026-09-01T19:53:22Z</time>
  <course>78.67</course>
  <speed>0.1</speed>
  <fix>3d</fix>
</trkpt>
<trkpt lat="-27.2744386" lon="151.2900676">
  <ele>349.87</ele>
  <time>2026-09-01T19:53:22Z</time>
  <course>76.03</course>
  <speed>0.05099019513592785</speed>
  <fix>3d</fix>
</trkpt>
<trkpt lat="-27.2744384" lon="151.2900677">
  <ele>350.2</ele>
  <time>2026-09-01T19:53:22Z</time>
  <course>78.67</course>
  <speed>0.1</speed>
  <fix>3d</fix>
</trkpt>
<trkpt lat="-27.2744385" lon="151.2900677">
  <ele>349.8</ele>
  <time>2026-09-01T19:53:22Z</time>
  <course>76.03</course>
  <speed>0.0412310562561766</speed>
  <fix>3d</fix>
</trkpt>
<trkpt lat="-27.2744383" lon="151.2900679">
  <ele>350.06</ele>
  <time>2026-09-01T19:53:22Z</time>
  <course>80.21</course>
  <speed>0.09</speed>
  <fix>3d</fix>
</trkpt>
<trkpt lat="-27.2744385" lon="151.2900677">
  <ele>349.73</ele>
  <time>2026-09-01T19:53:22Z</time>
  <course>76.03</course>
  <speed>0.0316227766016838</speed>
  <fix>3d</fix>
</trkpt>
<trkpt lat="-27.2744383" lon="151.2900679">
  <ele>350.06</ele>
  <time>2026-09-01T19:53:22Z</time>
  <course>80.21</course>
  <speed>0.09</speed>
  <fix>3d</fix>
</trkpt>
<trkpt lat="-27.2744385" lon="151.2900678">
  <ele>349.67</ele>
  <time>2026-09-01T19:53:22Z</time>
  <course>76.03</course>
  <speed>0.0316227766016838</speed>
  <fix>3d</fix>
</trkpt>
<trkpt lat="-27.2744383" lon="151.290068">
  <ele>349.91</ele>
  <time>2026-09-01T19:53:22Z</time>
  <course>82.14</course>
  <speed>0.07</speed>
  <fix>3d</fix>
</trkpt>
<trkpt lat="-27.2744385" lon="151.2900679">
  <ele>349.6</ele>
  <time>2026-09-01T19:53:22Z</time>
  <course>76.04</course>
  <speed>0.0282842712474619</speed>
  <fix>3d</fix>
</trkpt>
<trkpt lat="-27.2744383" lon="151.290068">
  <ele>349.91</ele>
  <time>2026-09-01T19:53:22Z</time>
  <course>82.14</course>
  <speed>0.07</speed>
  <fix>3d</fix>
</trkpt>
<trkpt lat="-27.2744385" lon="151.2900679">
  <ele>349.54</ele>
  <time>2026-09-01T19:53:22Z</time>
  <course>76.04</course>
  <speed>0.022360679774997897</speed>
  <fix>3d</fix>
</trkpt>
<trkpt lat="-27.2744383" lon="151.2900681">
  <ele>349.78</ele>
  <time>2026-09-01T19:53:22Z</time>
  <course>84.66</course>
  <speed>0.06</speed>
  <fix>3d</fix>
</trkpt>
<trkpt lat="-27.2744385" lon="151.290068">
  <ele>349.47</ele>
  <time>2026-09-01T19:53:22Z</time>
  <course>76.05</course>
  <speed>0.022360679774997897</speed>
  <fix>3d</fix>
</trkpt>
<trkpt lat="-27.2744383" lon="151.2900681">
  <ele>349.78</ele>
  <time>2026-09-01T19:53:22Z</time>
  <course>84.66</course>
  <speed>0.06</speed>
  <fix>3d</fix>
</trkpt>
<trkpt lat="-27.2744385" lon="151.290068">
  <ele>349.41</ele>
  <time>2026-09-01T19:53:22Z</time>
  <course>76.07</course>
  <speed>0.02</speed>
  <fix>3d</fix>
</trkpt>
<trkpt lat="-27.2744383" lon="151.2900682">
  <ele>349.65</ele>
  <time>2026-09-01T19:53:22Z</time>
  <course>87.79</course>
  <speed>0.04</speed>
  <fix>3d</fix>
</trkpt>
<trkpt lat="-27.2744385" lon="151.290068">
  <ele>349.35</ele>
  <time>2026-09-01T19:53:22Z</time>
  <course>76.09</course>
  <speed>0.02</speed>
  <fix>3d</fix>
</trkpt>
<trkpt lat="-27.2744383" lon="151.2900682">
  <ele>349.65</ele>
  <time>2026-09-01T19:53:22Z</time>
  <course>87.79</course>
  <speed>0.04</speed>
  <fix>3d</fix>
</trkpt>
<trkpt lat="-27.2744385" lon="151.290068">
  <ele>349.28</ele>
  <time>2026-09-01T19:53:22Z</time>
  <course>76.11</course>
  <speed>0.02</speed>
  <fix>3d</fix>
</trkpt>
<trkpt lat="-27.2744383" lon="151.2900683">
  <ele>349.52</ele>
  <time>2026-09-01T19:53:22Z</time>
  <course>92.39</course>
  <speed>0.03</speed>
  <fix>3d</fix>
</trkpt>
<trkpt lat="-27.2744385" lon="151.2900681">
  <ele>349.22</ele>
  <time>2026-09-01T19:53:22Z</time>
  <course>76.13</course>
  <speed>0.0316227766016838</speed>
  <fix>3d</fix>
</trkpt>
<trkpt lat="-27.2744383" lon="151.2900683">
  <ele>349.52</ele>
  <time>2026-09-01T19:53:22Z</time>
  <course>92.39</course>
  <speed>0.03</speed>
  <fix>3d</fix>
</trkpt>
<trkpt lat="-27.2744385" lon="151.2900681">
  <ele>349.17</ele>
  <time>2026-09-01T19:53:22Z</time>
  <course>76.15</course>
  <speed>0.03605551275463989</speed>
  <fix>3d</fix>
</trkpt>
<trkpt lat="-27.2744383" lon="151.2900684">
  <ele>349.4</ele>
  <time>2026-09-01T19:53:22Z</time>
  <course>102.15</course>
  <speed>0.01</speed>
  <fix>3d</fix>
</trkpt>
<trkpt lat="-27.2744385" lon="151.2900681">
  <ele>349.11</ele>
  <time>2026-09-01T19:53:22Z</time>
  <course>76.19</course>
  <speed>0.0282842712474619</speed>
  <fix>3d</fix>
</trkpt>
<trkpt lat="-27.2744383" lon="151.2900684">
  <ele>349.4</ele>
  <time>2026-09-01T19:53:22Z</time>
  <course>102.15</course>
  <speed>0.01</speed>
  <fix>3d</fix>
</trkpt>
<trkpt lat="-27.2744385" lon="151.2900681">
  <ele>349.05</ele>
  <time>2026-09-01T19:53:22Z</time>
  <course>76.26</course>
  <speed>0.03605551275463989</speed>
  <fix>3d</fix>
</trkpt>
<trkpt lat="-27.2744383" lon="151.2900684">
  <ele>349.28</ele>
  <time>2026-09-01T19:53:22Z</time>
  <course>127.88</course>
  <speed>0.0</speed>
  <fix>3d</fix>
</trkpt>
<trkpt lat="-27.2744385" lon="151.2900681">
  <ele>349.0</ele>
  <time>2026-09-01T19:53:22Z</time>
  <course>76.33</course>
  <speed>0.044721359549995794</speed>
  <fix>3d</fix>
</trkpt>
<trkpt lat="-27.2744383" lon="151.2900684">
  <ele>349.28</ele>
  <time>2026-09-01T19:53:22Z</time>
  <course>127.88</course>
  <speed>0.0</speed>
  <fix>3d</fix>
</trkpt>
<trkpt lat="-27.2744385" lon="151.290068">
  <ele>348.94</ele>
  <time>2026-09-01T19:53:22Z</time>
  <course>76.36</course>
  <speed>0.044721359549995794</speed>
  <fix>3d</fix>
</trkpt>
<trkpt lat="-27.2744383" lon="151.2900684">
  <ele>349.16</ele>
  <time>2026-09-01T19:53:22Z</time>
  <course>237.69</course>
  <speed>0.0</speed>
  <fix>3d</fix>
</trkpt>
<trkpt lat="-27.2744385" lon="151.290068">
  <ele>348.89</ele>
  <time>2026-09-01T19:53:22Z</time>
  <course>76.35</course>
  <speed>0.053851648071345036</speed>
  <fix>3d</fix>
</trkpt>
<trkpt lat="-27.2744383" lon="151.2900684">
  <ele>349.16</ele>
  <time>2026-09-01T19:53:22Z</time>
  <course>237.69</course>
  <speed>0.0</speed>
  <fix>3d</fix>
</trkpt>
<trkpt lat="-27.2744385" lon="151.290068">
  <ele>348.84</ele>
  <time>2026-09-01T19:53:22Z</time>
  <course>76.32</course>
  <speed>0.053851648071345036</speed>
  <fix>3d</fix>
</trkpt>
<trkpt lat="-27.2744383" lon="151.2900684">
  <ele>349.06</ele>
  <time>2026-09-01T19:53:22Z</time>
  <course>258.23</course>
  <speed>0.01</speed>
  <fix>3d</fix>
</trkpt>
<trkpt lat="-27.2744385" lon="151.290068">
  <ele>348.79</ele>
  <time>2026-09-01T19:53:22Z</time>
  <course>76.28</course>
  <speed>0.05830951894845301</speed>
  <fix>3d</fix>
</trkpt>
<trkpt lat="-27.2744383" lon="151.2900684">
  <ele>349.06</ele>
  <time>2026-09-01T19:53:22Z</time>
  <course>258.23</course>
  <speed>0.01</speed>
  <fix>3d</fix>
</trkpt>
<trkpt lat="-27.2744385" lon="151.290068">
  <ele>348.74</ele>
  <time>2026-09-01T19:53:22Z</time>
  <course>76.23</course>
  <speed>0.05830951894845301</speed>
  <fix>3d</fix>
</trkpt>
<trkpt lat="-27.2744383" lon="151.2900684">
  <ele>348.95</ele>
  <time>2026-09-01T19:53:22Z</time>
  <course>258.12</course>
  <speed>0.02</speed>
  <fix>3d</fix>
</trkpt>
<trkpt lat="-27.2744385" lon="151.290068">
  <ele>348.69</ele>
  <time>2026-09-01T19:53:22Z</time>
  <course>76.2</course>
  <speed>0.0670820393249937</speed>
  <fix>3d</fix>
</trkpt>
<trkpt lat="-27.2744383" lon="151.2900684">
  <ele>348.95</ele>
  <time>2026-09-01T19:53:22Z</time>
  <course>258.12</course>
  <speed>0.02</speed>
  <fix>3d</fix>
</trkpt>
<trkpt lat="-27.2744385" lon="151.290068">
  <ele>348.64</ele>
  <time>2026-09-01T19:53:22Z</time>
  <course>76.18</course>
  <speed>0.0670820393249937</speed>
  <fix>3d</fix>
</trkpt>
<trkpt lat="-27.2744383" lon="151.2900684">
  <ele>348.84</ele>
  <time>2026-09-01T19:53:22Z</time>
  <course>257.84</course>
  <speed>0.03</speed>
  <fix>3d</fix>
</trkpt>
<trkpt lat="-27.2744385" lon="151.290068">
  <ele>348.59</ele>
  <time>2026-09-01T19:53:22Z</time>
  <course>76.17</course>
  <speed>0.0670820393249937</speed>
  <fix>3d</fix>
</trkpt>
<trkpt lat="-27.2744383" lon="151.2900684">
  <ele>348.84</ele>
  <time>2026-09-01T19:53:22Z</time>
  <course>257.84</course>
  <speed>0.03</speed>
  <fix>3d</fix>
</trkpt>
<trkpt lat="-27.2744385" lon="151.2900679">
  <ele>348.54</ele>
  <time>2026-09-01T19:53:22Z</time>
  <course>76.16</course>
  <speed>0.07615773105863909</speed>
  <fix>3d</fix>
</trkpt>
<trkpt lat="-27.2744383" lon="151.2900683">
  <ele>348.75</ele>
  <time>2026-09-01T19:53:22Z</time>
  <course>257.44</course>
  <speed>0.03</speed>
  <fix>3d</fix>
</trkpt>
<trkpt lat="-27.2744385" lon="151.2900679">
  <ele>348.49</ele>
  <time>2026-09-01T19:53:22Z</time>
  <course>76.16</course>
  <speed>0.07615773105863909</speed>
  <fix>3d</fix>
</trkpt>
<trkpt lat="-27.2744383" lon="151.2900683">
  <ele>348.75</ele>
  <time>2026-09-01T19:53:22Z</time>
  <course>257.44</course>
  <speed>0.03</speed>
  <fix>3d</fix>
</trkpt>
<trkpt lat="-27.2744385" lon="151.2900678">
  <ele>348.44</ele>
  <time>2026-09-01T19:53:22Z</time>
  <course>76.15</course>
  <speed>0.07615773105863909</speed>
  <fix>3d</fix>
</trkpt>
<trkpt lat="-27.2744383" lon="151.2900682">
  <ele>348.65</ele>
  <time>2026-09-01T19:53:22Z</time>
  <course>256.95</course>
  <speed>0.04</speed>
  <fix>3d</fix>
</trkpt>
<trkpt lat="-27.2744385" lon="151.2900678">
  <ele>348.39</ele>
  <time>2026-09-01T19:53:22Z</time>
  <course>76.15</course>
  <speed>0.07615773105863909</speed>
  <fix>3d</fix>
</trkpt>
<trkpt lat="-27.2744383" lon="151.2900682">
  <ele>348.65</ele>
  <time>2026-09-01T19:53:22Z</time>
  <course>256.95</course>
  <speed>0.04</speed>
  <fix>3d</fix>
</trkpt>
<trkpt lat="-27.2744385" lon="151.2900678">
  <ele>348.34</ele>
  <time>2026-09-01T19:53:22Z</time>
  <course>76.15</course>
  <speed>0.07615773105863909</speed>
  <fix>3d</fix>
</trkpt>
<trkpt lat="-27.2744383" lon="151.2900681">
  <ele>348.55</ele>
  <time>2026-09-01T19:53:22Z</time>
  <course>256.71</course>
  <speed>0.05</speed>
  <fix>3d</fix>
</trkpt>
<trkpt lat="-27.2744385" lon="151.2900677">
  <ele>348.29</ele>
  <time>2026-09-01T19:53:22Z</time>
  <course>76.15</course>
  <speed>0.0854400374531753</speed>
  <fix>3d</fix>
</trkpt>
<trkpt lat="-27.2744383" lon="151.2900681">
  <ele>348.55</ele>
  <time>2026-09-01T19:53:22Z</time>
  <course>256.71</course>
  <speed>0.05</speed>
  <fix>3d</fix>
</trkpt>
<trkpt lat="-27.2744385" lon="151.2900676">
  <ele>348.24</ele>
  <time>2026-09-01T19:53:22Z</time>
  <course>76.15</course>
  <speed>0.0854400374531753</speed>
  <fix>3d</fix>
</trkpt>
<trkpt lat="-27.2744383" lon="151.290068">
  <ele>348.45</ele>
  <time>2026-09-01T19:53:22Z</time>
  <course>256.66</course>
  <speed>0.05</speed>
  <fix>3d</fix>
</trkpt>
<trkpt lat="-27.2744385" lon="151.2900676">
  <ele>348.18</ele>
  <time>2026-09-01T19:53:22Z</time>
  <course>76.16</course>
  <speed>0.0854400374531753</speed>
  <fix>3d</fix>
</trkpt>
<trkpt lat="-27.2744383" lon="151.290068">
  <ele>348.45</ele>
  <time>2026-09-01T19:53:22Z</time>
  <course>256.66</course>
  <speed>0.05</speed>
  <fix>3d</fix>
</trkpt>
<trkpt lat="-27.2744385" lon="151.2900675">
  <ele>348.13</ele>
  <time>2026-09-01T19:53:22Z</time>
  <course>76.16</course>
  <speed>0.0854400374531753</speed>
  <fix>3d</fix>
</trkpt>
<trkpt lat="-27.2744383" lon="151.2900679">
  <ele>348.34</ele>
  <time>2026-09-01T19:53:22Z</time>
  <course>256.72</course>
  <speed>0.05</speed>
  <fix>3d</fix>
</trkpt>
<trkpt lat="-27.2744386" lon="151.2900675">
  <ele>348.08</ele>
  <time>2026-09-01T19:53:22Z</time>
  <course>76.17</course>
  <speed>0.0854400374531753</speed>
  <fix>3d</fix>
</trkpt>
<trkpt lat="-27.2744383" lon="151.2900679">
  <ele>348.34</ele>
  <time>2026-09-01T19:53:22Z</time>
  <course>256.72</course>
  <speed>0.05</speed>
  <fix>3d</fix>
</trkpt>
<trkpt lat="-27.2744386" lon="151.2900674">
  <ele>348.03</ele>
  <time>2026-09-01T19:53:22Z</time>
  <course>76.18</course>
  <speed>0.0854400374531753</speed>
  <fix>3d</fix>
</trkpt>
<trkpt lat="-27.2744384" lon="151.2900678">
  <ele>348.25</ele>
  <time>2026-09-01T19:53:22Z</time>
  <course>256.81</course>
  <speed>0.06</speed>
  <fix>3d</fix>
</trkpt>
<trkpt lat="-27.2744386" lon="151.2900674">
  <ele>347.98</ele>
  <time>2026-09-01T19:53:22Z</time>
  <course>76.18</course>
  <speed>0.0854400374531753</speed>
  <fix>3d</fix>
</trkpt>
<trkpt lat="-27.2744384" lon="151.2900678">
  <ele>348.25</ele>
  <time>2026-09-01T19:53:22Z</time>
  <course>256.81</course>
  <speed>0.06</speed>
  <fix>3d</fix>
</trkpt>
<trkpt lat="-27.2744386" lon="151.2900673">
  <ele>347.93</ele>
  <time>2026-09-01T19:53:22Z</time>
  <course>76.18</course>
  <speed>0.0854400374531753</speed>
  <fix>3d</fix>
</trkpt>
<trkpt lat="-27.2744384" lon="151.2900677">
  <ele>348.15</ele>
  <time>2026-09-01T19:53:22Z</time>
  <course>256.78</course>
  <speed>0.06</speed>
  <fix>3d</fix>
</trkpt>
<trkpt lat="-27.2744386" lon="151.2900673">
  <ele>347.88</ele>
  <time>2026-09-01T19:53:22Z</time>
  <course>76.19</course>
  <speed>0.0854400374531753</speed>
  <fix>3d</fix>
</trkpt>
<trkpt lat="-27.2744384" lon="151.2900677">
  <ele>348.15</ele>
  <time>2026-09-01T19:53:22Z</time>
  <course>256.78</course>
  <speed>0.06</speed>
  <fix>3d</fix>
</trkpt>
<trkpt lat="-27.2744386" lon="151.2900672">
  <ele>347.83</ele>
  <time>2026-09-01T19:53:22Z</time>
  <course>76.21</course>
  <speed>0.0854400374531753</speed>
  <fix>3d</fix>
</trkpt>
<trkpt lat="-27.2744384" lon="151.2900675">
  <ele>348.05</ele>
  <time>2026-09-01T19:53:22Z</time>
  <course>256.9</course>
  <speed>0.06</speed>
  <fix>3d</fix>
</trkpt>
<trkpt lat="-27.2744386" lon="151.2900672">
  <ele>347.78</ele>
  <time>2026-09-01T19:53:22Z</time>
  <course>76.23</course>
  <speed>0.0854400374531753</speed>
  <fix>3d</fix>
</trkpt>
<trkpt lat="-27.2744384" lon="151.2900675">
  <ele>348.05</ele>
  <time>2026-09-01T19:53:22Z</time>
  <course>256.9</course>
  <speed>0.06</speed>
  <fix>3d</fix>
</trkpt>
<trkpt lat="-27.2744386" lon="151.2900671">
  <ele>347.73</ele>
  <time>2026-09-01T19:53:22Z</time>
  <course>76.24</course>
  <speed>0.07615773105863909</speed>
  <fix>3d</fix>
</trkpt>
<trkpt lat="-27.2744384" lon="151.2900674">
  <ele>347.95</ele>
  <time>2026-09-01T19:53:22Z</time>
  <course>257.13</course>
  <speed>0.06</speed>
  <fix>3d</fix>
</trkpt>
<trkpt lat="-27.2744386" lon="151.290067">
  <ele>347.68</ele>
  <time>2026-09-01T19:53:22Z</time>
  <course>76.24</course>
  <speed>0.07615773105863909</speed>
  <fix>3d</fix>
</trkpt>
<trkpt lat="-27.2744384" lon="151.2900674">
  <ele>347.95</ele>
  <time>2026-09-01T19:53:22Z</time>
  <course>257.13</course>
  <speed>0.06</speed>
  <fix>3d</fix>
</trkpt>
<trkpt lat="-27.2744386" lon="151.290067">
  <ele>347.63</ele>
  <time>2026-09-01T19:53:22Z</time>
  <course>76.24</course>
  <speed>0.07615773105863909</speed>
  <fix>3d</fix>
</trkpt>
<trkpt lat="-27.2744385" lon="151.2900673">
  <ele>347.84</ele>
  <time>2026-09-01T19:53:22Z</time>
  <course>257.27</course>
  <speed>0.05</speed>
  <fix>3d</fix>
</trkpt>
<trkpt lat="-27.2744386" lon="151.2900669">
  <ele>347.58</ele>
  <time>2026-09-01T19:53:22Z</time>
  <course>76.23</course>
  <speed>0.07615773105863909</speed>
  <fix>3d</fix>
</trkpt>
<trkpt lat="-27.2744385" lon="151.2900673">
  <ele>347.84</ele>
  <time>2026-09-01T19:53:22Z</time>
  <course>257.27</course>
  <speed>0.05</speed>
  <fix>3d</fix>
</trkpt>
<trkpt lat="-27.2744386" lon="151.2900669">
  <ele>347.53</ele>
  <time>2026-09-01T19:53:22Z</time>
  <course>76.23</course>
  <speed>0.07615773105863909</speed>
  <fix>3d</fix>
</trkpt>
<trkpt lat="-27.2744385" lon="151.2900672">
  <ele>347.75</ele>
  <time>2026-09-01T19:53:22Z</time>
  <course>257.48</course>
  <speed>0.05</speed>
  <fix>3d</fix>
</trkpt>
<trkpt lat="-27.2744386" lon="151.2900668">
  <ele>347.48</ele>
  <time>2026-09-01T19:53:22Z</time>
  <course>76.23</course>
  <speed>0.07280109889280519</speed>
  <fix>3d</fix>
</trkpt>
<trkpt lat="-27.2744385" lon="151.2900672">
  <ele>347.75</ele>
  <time>2026-09-01T19:53:22Z</time>
  <course>257.48</course>
  <speed>0.05</speed>
  <fix>3d</fix>
</trkpt>
<trkpt lat="-27.2744387" lon="151.2900668">
  <ele>347.42</ele>
  <time>2026-09-01T19:53:22Z</time>
  <course>76.24</course>
  <speed>0.0632455532033676</speed>
  <fix>3d</fix>
</trkpt>
<trkpt lat="-27.2744385" lon="151.2900671">
  <ele>347.65</ele>
  <time>2026-09-01T19:53:22Z</time>
  <course>257.7</course>
  <speed>0.05</speed>
  <fix>3d</fix>
</trkpt>
<trkpt lat="-27.2744387" lon="151.2900667">
  <ele>347.37</ele>
  <time>2026-09-01T19:53:22Z</time>
  <course>76.25</course>
  <speed>0.0632455532033676</speed>
  <fix>3d</fix>
</trkpt>
<trkpt lat="-27.2744385" lon="151.2900671">
  <ele>347.65</ele>
  <time>2026-09-01T19:53:22Z</time>
  <course>257.7</course>
  <speed>0.05</speed>
  <fix>3d</fix>
</trkpt>
<trkpt lat="-27.2744387" lon="151.2900667">
  <ele>347.32</ele>
  <time>2026-09-01T19:53:22Z</time>
  <course>76.26</course>
  <speed>0.0632455532033676</speed>
  <fix>3d</fix>
</trkpt>
<trkpt lat="-27.2744385" lon="151.290067">
  <ele>347.55</ele>
  <time>2026-09-01T19:53:22Z</time>
  <course>257.83</course>
  <speed>0.04</speed>
  <fix>3d</fix>
</trkpt>
<trkpt lat="-27.2744387" lon="151.2900667">
  <ele>347.27</ele>
  <time>2026-09-01T19:53:22Z</time>
  <course>76.26</course>
  <speed>0.0632455532033676</speed>
  <fix>3d</fix>
</trkpt>
<trkpt lat="-27.2744385" lon="151.290067">
  <ele>347.55</ele>
  <time>2026-09-01T19:53:22Z</time>
  <course>257.83</course>
  <speed>0.04</speed>
  <fix>3d</fix>
</trkpt>
<trkpt lat="-27.2744387" lon="151.2900666">
  <ele>347.22</ele>
  <time>2026-09-01T19:53:22Z</time>
  <course>76.27</course>
  <speed>0.053851648071345036</speed>
  <fix>3d</fix>
</trkpt>
<trkpt lat="-27.2744385" lon="151.2900669">
  <ele>347.45</ele>
  <time>2026-09-01T19:53:22Z</time>
  <course>258.09</course>
  <speed>0.04</speed>
  <fix>3d</fix>
</trkpt>
<trkpt lat="-27.2744387" lon="151.2900666">
  <ele>347.18</ele>
  <time>2026-09-01T19:53:22Z</time>
  <course>76.28</course>
  <speed>0.053851648071345036</speed>
  <fix>3d</fix>
</trkpt>
<trkpt lat="-27.2744385" lon="151.2900669">
  <ele>347.45</ele>
  <time>2026-09-01T19:53:22Z</time>
  <course>258.09</course>
  <speed>0.04</speed>
  <fix>3d</fix>
</trkpt>
<trkpt lat="-27.2744387" lon="151.2900666">
  <ele>347.13</ele>
  <time>2026-09-01T19:53:22Z</time>
  <course>76.3</course>
  <speed>0.053851648071345036</speed>
  <fix>3d</fix>
</trkpt>
<trkpt lat="-27.2744386" lon="151.2900668">
  <ele>347.34</ele>
  <time>2026-09-01T19:53:22Z</time>
  <course>258.71</course>
  <speed>0.03</speed>
  <fix>3d</fix>
</trkpt>
<trkpt lat="-27.2744387" lon="151.2900665">
  <ele>347.08</ele>
  <time>2026-09-01T19:53:22Z</time>
  <course>76.31</course>
  <speed>0.053851648071345036</speed>
  <fix>3d</fix>
</trkpt>
<trkpt lat="-27.2744386" lon="151.2900668">
  <ele>347.34</ele>
  <time>2026-09-01T19:53:22Z</time>
  <course>258.71</course>
  <speed>0.03</speed>
  <fix>3d</fix>
</trkpt>
<trkpt lat="-27.2744387" lon="151.2900665">
  <ele>347.03</ele>
  <time>2026-09-01T19:53:22Z</time>
  <course>76.33</course>
  <speed>0.044721359549995794</speed>
  <fix>3d</fix>
</trkpt>
<trkpt lat="-27.2744386" lon="151.2900667">
  <ele>347.25</ele>
  <time>2026-09-01T19:53:22Z</time>
  <course>258.86</course>
  <speed>0.03</speed>
  <fix>3d</fix>
</trkpt>
<trkpt lat="-27.2744387" lon="151.2900665">
  <ele>346.98</ele>
  <time>2026-09-01T19:53:22Z</time>
  <course>76.34</course>
  <speed>0.044721359549995794</speed>
  <fix>3d</fix>
</trkpt>
<trkpt lat="-27.2744386" lon="151.2900667">
  <ele>347.25</ele>
  <time>2026-09-01T19:53:22Z</time>
  <course>258.86</course>
  <speed>0.03</speed>
  <fix>3d</fix>
</trkpt>
<trkpt lat="-27.2744387" lon="151.2900665">
  <ele>346.93</ele>
  <time>2026-09-01T19:53:22Z</time>
  <course>76.35</course>
  <speed>0.044721359549995794</speed>
  <fix>3d</fix>
</trkpt>
<trkpt lat="-27.2744386" lon="151.2900666">
  <ele>347.15</ele>
  <time>2026-09-01T19:53:22Z</time>
  <course>257.77</course>
  <speed>0.02</speed>
  <fix>3d</fix>
</trkpt>
<trkpt lat="-27.2744387" lon="151.2900664">
  <ele>346.88</ele>
  <time>2026-09-01T19:53:22Z</time>
  <course>76.35</course>
  <speed>0.044721359549995794</speed>
  <fix>3d</fix>
</trkpt>
<trkpt lat="-27.2744386" lon="151.2900666">
  <ele>347.15</ele>
  <time>2026-09-01T19:53:22Z</time>
  <course>257.77</course>
  <speed>0.02</speed>
  <fix>3d</fix>
</trkpt>
<trkpt lat="-27.2744387" lon="151.2900664">
  <ele>346.83</ele>
  <time>2026-09-01T19:53:22Z</time>
  <course>76.34</course>
  <speed>0.03605551275463989</speed>
  <fix>3d</fix>
</trkpt>
<trkpt lat="-27.2744386" lon="151.2900666">
  <ele>347.05</ele>
  <time>2026-09-01T19:53:22Z</time>
  <course>256.05</course>
  <speed>0.02</speed>
  <fix>3d</fix>
</trkpt>
<trkpt lat="-27.2744387" lon="151.2900664">
  <ele>346.78</ele>
  <time>2026-09-01T19:53:22Z</time>
  <course>76.32</course>
  <speed>0.03605551275463989</speed>
  <fix>3d</fix>
</trkpt>
<trkpt lat="-27.2744386" lon="151.2900666">
  <ele>347.05</ele>
  <time>2026-09-01T19:53:22Z</time>
  <course>256.05</course>
  <speed>0.02</speed>
  <fix>3d</fix>
</trkpt>
<trkpt lat="-27.2744387" lon="151.2900664">
  <ele>346.73</ele>
  <time>2026-09-01T19:53:22Z</time>
  <course>76.31</course>
  <speed>0.03605551275463989</speed>
  <fix>3d</fix>
</trkpt>
<trkpt lat="-27.2744386" lon="151.2900666">
  <ele>346.95</ele>
  <time>2026-09-01T19:53:22Z</time>
  <course>253.73</course>
  <speed>0.01</speed>
  <fix>3d</fix>
</trkpt>
<trkpt lat="-27.2744387" lon="151.2900664">
  <ele>346.68</ele>
  <time>2026-09-01T19:53:22Z</time>
  <course>76.29</course>
  <speed>0.03605551275463989</speed>
  <fix>3d</fix>
</trkpt>
<trkpt lat="-27.2744386" lon="151.2900666">
  <ele>346.95</ele>
  <time>2026-09-01T19:53:22Z</time>
  <course>253.73</course>
  <speed>0.01</speed>
  <fix>3d</fix>
</trkpt>
<trkpt lat="-27.2744387" lon="151.2900664">
  <ele>346.63</ele>
  <time>2026-09-01T19:53:22Z</time>
  <course>76.27</course>
  <speed>0.0282842712474619</speed>
  <fix>3d</fix>
</trkpt>
<trkpt lat="-27.2744386" lon="151.2900666">
  <ele>346.84</ele>
  <time>2026-09-01T19:53:22Z</time>
  <course>249.43</course>
  <speed>0.01</speed>
  <fix>3d</fix>
</trkpt>
<trkpt lat="-27.2744387" lon="151.2900664">
  <ele>346.58</ele>
  <time>2026-09-01T19:53:22Z</time>
  <course>76.25</course>
  <speed>0.0282842712474619</speed>
  <fix>3d</fix>
</trkpt>
<trkpt lat="-27.2744386" lon="151.2900666">
  <ele>346.84</ele>
  <time>2026-09-01T19:53:22Z</time>
  <course>249.43</course>
  <speed>0.01</speed>
  <fix>3d</fix>
</trkpt>
<trkpt lat="-27.2744387" lon="151.2900664">
  <ele>346.54</ele>
  <time>2026-09-01T19:53:22Z</time>
  <course>76.22</course>
  <speed>0.0282842712474619</speed>
  <fix>3d</fix>
</trkpt>
<trkpt lat="-27.2744386" lon="151.2900666">
  <ele>346.75</ele>
  <time>2026-09-01T19:53:22Z</time>
  <course>235.02</course>
  <speed>0.0</speed>
  <fix>3d</fix>
</trkpt>
<trkpt lat="-27.2744387" lon="151.2900664">
  <ele>346.48</ele>
  <time>2026-09-01T19:53:22Z</time>
  <course>76.17</course>
  <speed>0.022360679774997897</speed>
  <fix>3d</fix>
</trkpt>
<trkpt lat="-27.2744386" lon="151.2900666">
  <ele>346.75</ele>
  <time>2026-09-01T19:53:22Z</time>
  <course>235.02</course>
  <speed>0.0</speed>
  <fix>3d</fix>
</trkpt>
<trkpt lat="-27.2744388" lon="151.2900664">
  <ele>346.44</ele>
  <time>2026-09-01T19:53:22Z</time>
  <course>76.12</course>
  <speed>0.0316227766016838</speed>
  <fix>3d</fix>
</trkpt>
<trkpt lat="-27.2744386" lon="151.2900666">
  <ele>346.65</ele>
  <time>2026-09-01T19:53:22Z</time>
  <course>180.52</course>
  <speed>0.0</speed>
  <fix>3d</fix>
</trkpt>
<trkpt lat="-27.2744388" lon="151.2900664">
  <ele>346.39</ele>
  <time>2026-09-01T19:53:22Z</time>
  <course>76.06</course>
  <speed>0.0316227766016838</speed>
  <fix>3d</fix>
</trkpt>
<trkpt lat="-27.2744386" lon="151.2900666">
  <ele>346.65</ele>
  <time>2026-09-01T19:53:22Z</time>
  <course>180.52</course>
  <speed>0.0</speed>
  <fix>3d</fix>
</trkpt>
<trkpt lat="-27.2744388" lon="151.2900664">
  <ele>346.34</ele>
  <time>2026-09-01T19:53:22Z</time>
  <course>76.01</course>
  <speed>0.03</speed>
  <fix>3d</fix>
</trkpt>
<trkpt lat="-27.2744386" lon="151.2900666">
  <ele>346.55</ele>
  <time>2026-09-01T19:53:22Z</time>
  <course>150.19</course>
  <speed>0.01</speed>
  <fix>3d</fix>
</trkpt>
<trkpt lat="-27.2744388" lon="151.2900664">
  <ele>346.29</ele>
  <time>2026-09-01T19:53:22Z</time>
  <course>75.98</course>
  <speed>0.03</speed>
  <fix>3d</fix>
</trkpt>
<trkpt lat="-27.2744386" lon="151.2900666">
  <ele>346.55</ele>
  <time>2026-09-01T19:53:22Z</time>
  <course>150.19</course>
  <speed>0.01</speed>
  <fix>3d</fix>
</trkpt>
<trkpt lat="-27.2744388" lon="151.2900664">
  <ele>346.24</ele>
  <time>2026-09-01T19:53:22Z</time>
  <course>75.95</course>
  <speed>0.03</speed>
  <fix>3d</fix>
</trkpt>
<trkpt lat="-27.2744387" lon="151.2900666">
  <ele>346.45</ele>
  <time>2026-09-01T19:53:22Z</time>
  <course>142.71</course>
  <speed>0.01</speed>
  <fix>3d</fix>
</trkpt>
<trkpt lat="-27.2744388" lon="151.2900664">
  <ele>346.19</ele>
  <time>2026-09-01T19:53:22Z</time>
  <course>75.94</course>
  <speed>0.04</speed>
  <fix>3d</fix>
</trkpt>
<trkpt lat="-27.2744387" lon="151.2900666">
  <ele>346.45</ele>
  <time>2026-09-01T19:53:22Z</time>
  <course>142.71</course>
  <speed>0.01</speed>
  <fix>3d</fix>
</trkpt>
<trkpt lat="-27.2744388" lon="151.2900664">
  <ele>346.13</ele>
  <time>2026-09-01T19:53:22Z</time>
  <course>75.94</course>
  <speed>0.04</speed>
  <fix>3d</fix>
</trkpt>
<trkpt lat="-27.2744387" lon="151.2900666">
  <ele>346.34</ele>
  <time>2026-09-01T19:53:22Z</time>
  <course>140.61</course>
  <speed>0.02</speed>
  <fix>3d</fix>
</trkpt>
<trkpt lat="-27.2744389" lon="151.2900664">
  <ele>346.08</ele>
  <time>2026-09-01T19:53:22Z</time>
  <course>75.95</course>
  <speed>0.04</speed>
  <fix>3d</fix>
</trkpt>
<trkpt lat="-27.2744387" lon="151.2900666">
  <ele>346.34</ele>
  <time>2026-09-01T19:53:22Z</time>
  <course>140.61</course>
  <speed>0.02</speed>
  <fix>3d</fix>
</trkpt>
<trkpt lat="-27.2744389" lon="151.2900664">
  <ele>346.03</ele>
  <time>2026-09-01T19:53:22Z</time>
  <course>75.96</course>
  <speed>0.04</speed>
  <fix>3d</fix>
</trkpt>
<trkpt lat="-27.2744387" lon="151.2900666">
  <ele>346.24</ele>
  <time>2026-09-01T19:53:22Z</time>
  <course>140.19</course>
  <speed>0.02</speed>
  <fix>3d</fix>
</trkpt>
<trkpt lat="-27.2744389" lon="151.2900664">
  <ele>345.98</ele>
  <time>2026-09-01T19:53:22Z</time>
  <course>75.98</course>
  <speed>0.04</speed>
  <fix>3d</fix>
</trkpt>
<trkpt lat="-27.2744387" lon="151.2900666">
  <ele>346.24</ele>
  <time>2026-09-01T19:53:22Z</time>
  <course>140.19</course>
  <speed>0.02</speed>
  <fix>3d</fix>
</trkpt>
<trkpt lat="-27.2744389" lon="151.2900665">
  <ele>345.93</ele>
  <time>2026-09-01T19:53:22Z</time>
  <course>75.99</course>
  <speed>0.04</speed>
  <fix>3d</fix>
</trkpt>
<trkpt lat="-27.2744388" lon="151.2900666">
  <ele>346.14</ele>
  <time>2026-09-01T19:53:22Z</time>
  <course>139.23</course>
  <speed>0.03</speed>
  <fix>3d</fix>
</trkpt>
<trkpt lat="-27.2744389" lon="151.2900665">
  <ele>345.88</ele>
  <time>2026-09-01T19:53:22Z</time>
  <course>76.01</course>
  <speed>0.04</speed>
  <fix>3d</fix>
</trkpt>
<trkpt lat="-27.2744388" lon="151.2900666">
  <ele>346.14</ele>
  <time>2026-09-01T19:53:22Z</time>
  <course>139.23</course>
  <speed>0.03</speed>
  <fix>3d</fix>
</trkpt>
<trkpt lat="-27.274439" lon="151.2900665">
  <ele>345.83</ele>
  <time>2026-09-01T19:53:22Z</time>
  <course>76.01</course>
  <speed>0.04</speed>
  <fix>3d</fix>
</trkpt>
<trkpt lat="-27.2744388" lon="151.2900666">
  <ele>346.03</ele>
  <time>2026-09-01T19:53:22Z</time>
  <course>138.18</course>
  <speed>0.03</speed>
  <fix>3d</fix>
</trkpt>
<trkpt lat="-27.274439" lon="151.2900665">
  <ele>345.78</ele>
  <time>2026-09-01T19:53:22Z</time>
  <course>76.01</course>
  <speed>0.04</speed>
  <fix>3d</fix>
</trkpt>
<trkpt lat="-27.2744388" lon="151.2900666">
  <ele>346.03</ele>
  <time>2026-09-01T19:53:22Z</time>
  <course>138.18</course>
  <speed>0.03</speed>
  <fix>3d</fix>
</trkpt>
<trkpt lat="-27.274439" lon="151.2900665">
  <ele>345.73</ele>
  <time>2026-09-01T19:53:22Z</time>
  <course>76.0</course>
  <speed>0.04</speed>
  <fix>3d</fix>
</trkpt>
<trkpt lat="-27.2744388" lon="151.2900666">
  <ele>345.94</ele>
  <time>2026-09-01T19:53:22Z</time>
  <course>137.82</course>
  <speed>0.03</speed>
  <fix>3d</fix>
</trkpt>
<trkpt lat="-27.274439" lon="151.2900665">
  <ele>345.68</ele>
  <time>2026-09-01T19:53:22Z</time>
  <course>75.99</course>
  <speed>0.04</speed>
  <fix>3d</fix>
</trkpt>
<trkpt lat="-27.2744388" lon="151.2900666">
  <ele>345.94</ele>
  <time>2026-09-01T19:53:22Z</time>
  <course>137.82</course>
  <speed>0.03</speed>
  <fix>3d</fix>
</trkpt>
<trkpt lat="-27.274439" lon="151.2900665">
  <ele>345.62</ele>
  <time>2026-09-01T19:53:22Z</time>
  <course>75.98</course>
  <speed>0.04</speed>
  <fix>3d</fix>
</trkpt>
<trkpt lat="-27.2744389" lon="151.2900666">
  <ele>345.84</ele>
  <time>2026-09-01T19:53:22Z</time>
  <course>137.14</course>
  <speed>0.03</speed>
  <fix>3d</fix>
</trkpt>
<trkpt lat="-27.2744391" lon="151.2900665">
  <ele>345.57</ele>
  <time>2026-09-01T19:53:22Z</time>
  <course>75.98</course>
  <speed>0.04</speed>
  <fix>3d</fix>
</trkpt>
<trkpt lat="-27.2744389" lon="151.2900666">
  <ele>345.84</ele>
  <time>2026-09-01T19:53:22Z</time>
  <course>137.14</course>
  <speed>0.03</speed>
  <fix>3d</fix>
</trkpt>
<trkpt lat="-27.2744391" lon="151.2900666">
  <ele>345.52</ele>
  <time>2026-09-01T19:53:22Z</time>
  <course>75.97</course>
  <speed>0.04</speed>
  <fix>3d</fix>
</trkpt>
<trkpt lat="-27.2744389" lon="151.2900667">
  <ele>345.74</ele>
  <time>2026-09-01T19:53:22Z</time>
  <course>136.13</course>
  <speed>0.03</speed>
  <fix>3d</fix>
</trkpt>
<trkpt lat="-27.2744391" lon="151.2900666">
  <ele>345.47</ele>
  <time>2026-09-01T19:53:22Z</time>
  <course>75.96</course>
  <speed>0.04</speed>
  <fix>3d</fix>
</trkpt>
<trkpt lat="-27.2744389" lon="151.2900667">
  <ele>345.74</ele>
  <time>2026-09-01T19:53:22Z</time>
  <course>136.13</course>
  <speed>0.03</speed>
  <fix>3d</fix>
</trkpt>
<trkpt lat="-27.2744391" lon="151.2900666">
  <ele>345.42</ele>
  <time>2026-09-01T19:53:22Z</time>
  <course>75.95</course>
  <speed>0.04</speed>
  <fix>3d</fix>
</trkpt>
<trkpt lat="-27.274439" lon="151.2900668">
  <ele>345.64</ele>
  <time>2026-09-01T19:53:22Z</time>
  <course>135.01</course>
  <speed>0.03</speed>
  <fix>3d</fix>
</trkpt>
<trkpt lat="-27.2744392" lon="151.2900666">
  <ele>345.37</ele>
  <time>2026-09-01T19:53:22Z</time>
  <course>75.94</course>
  <speed>0.04</speed>
  <fix>3d</fix>
</trkpt>
<trkpt lat="-27.274439" lon="151.2900668">
  <ele>345.64</ele>
  <time>2026-09-01T19:53:22Z</time>
  <course>135.01</course>
  <speed>0.03</speed>
  <fix>3d</fix>
</trkpt>
<trkpt lat="-27.2744392" lon="151.2900666">
  <ele>345.32</ele>
  <time>2026-09-01T19:53:22Z</time>
  <course>75.93</course>
  <speed>0.04</speed>
  <fix>3d</fix>
</trkpt>
<trkpt lat="-27.274439" lon="151.2900668">
  <ele>345.53</ele>
  <time>2026-09-01T19:53:22Z</time>
  <course>133.89</course>
  <speed>0.03</speed>
  <fix>3d</fix>
</trkpt>
<trkpt lat="-27.2744392" lon="151.2900666">
  <ele>345.27</ele>
  <time>2026-09-01T19:53:22Z</time>
  <course>75.92</course>
  <speed>0.04</speed>
  <fix>3d</fix>
</trkpt>
<trkpt lat="-27.274439" lon="151.2900668">
  <ele>345.53</ele>
  <time>2026-09-01T19:53:22Z</time>
  <course>133.89</course>
  <speed>0.03</speed>
  <fix>3d</fix>
</trkpt>
<trkpt lat="-27.2744392" lon="151.2900667">
  <ele>345.22</ele>
  <time>2026-09-01T19:53:22Z</time>
  <course>75.92</course>
  <speed>0.03</speed>
  <fix>3d</fix>
</trkpt>
<trkpt lat="-27.2744391" lon="151.2900669">
  <ele>345.44</ele>
  <time>2026-09-01T19:53:22Z</time>
  <course>133.0</course>
  <speed>0.03</speed>
  <fix>3d</fix>
</trkpt>
<trkpt lat="-27.2744392" lon="151.2900667">
  <ele>345.17</ele>
  <time>2026-09-01T19:53:22Z</time>
  <course>75.92</course>
  <speed>0.03</speed>
  <fix>3d</fix>
</trkpt>
<trkpt lat="-27.2744391" lon="151.2900669">
  <ele>345.44</ele>
  <time>2026-09-01T19:53:22Z</time>
  <course>133.0</course>
  <speed>0.03</speed>
  <fix>3d</fix>
</trkpt>
<trkpt lat="-27.2744392" lon="151.2900667">
  <ele>345.12</ele>
  <time>2026-09-01T19:53:22Z</time>
  <course>75.93</course>
  <speed>0.03</speed>
  <fix>3d</fix>
</trkpt>
<trkpt lat="-27.2744391" lon="151.2900669">
  <ele>345.34</ele>
  <time>2026-09-01T19:53:22Z</time>
  <course>132.09</course>
  <speed>0.03</speed>
  <fix>3d</fix>
</trkpt>
<trkpt lat="-27.2744393" lon="151.2900667">
  <ele>345.07</ele>
  <time>2026-09-01T19:53:22Z</time>
  <course>75.94</course>
  <speed>0.03</speed>
  <fix>3d</fix>
</trkpt>
<trkpt lat="-27.2744391" lon="151.2900669">
  <ele>345.34</ele>
  <time>2026-09-01T19:53:22Z</time>
  <course>132.09</course>
  <speed>0.03</speed>
  <fix>3d</fix>
</trkpt>
<trkpt lat="-27.2744393" lon="151.2900667">
  <ele>345.02</ele>
  <time>2026-09-01T19:53:22Z</time>
  <course>75.95</course>
  <speed>0.03</speed>
  <fix>3d</fix>
</trkpt>
<trkpt lat="-27.2744391" lon="151.290067">
  <ele>345.24</ele>
  <time>2026-09-01T19:53:22Z</time>
  <course>130.39</course>
  <speed>0.02</speed>
  <fix>3d</fix>
</trkpt>
<trkpt lat="-27.2744393" lon="151.2900668">
  <ele>344.98</ele>
  <time>2026-09-01T19:53:22Z</time>
  <course>75.95</course>
  <speed>0.03</speed>
  <fix>3d</fix>
</trkpt>
<trkpt lat="-27.2744391" lon="151.290067">
  <ele>345.24</ele>
  <time>2026-09-01T19:53:22Z</time>
  <course>130.39</course>
  <speed>0.02</speed>
  <fix>3d</fix>
</trkpt>
<trkpt lat="-27.2744393" lon="151.2900668">
  <ele>344.93</ele>
  <time>2026-09-01T19:53:22Z</time>
  <course>75.94</course>
  <speed>0.02</speed>
  <fix>3d</fix>
</trkpt>
<trkpt lat="-27.2744392" lon="151.290067">
  <ele>345.14</ele>
  <time>2026-09-01T19:53:22Z</time>
  <course>126.8</course>
  <speed>0.02</speed>
  <fix>3d</fix>
</trkpt>
<trkpt lat="-27.2744393" lon="151.2900668">
  <ele>344.88</ele>
  <time>2026-09-01T19:53:22Z</time>
  <course>75.93</course>
  <speed>0.02</speed>
  <fix>3d</fix>
</trkpt>
<trkpt lat="-27.2744392" lon="151.290067">
  <ele>345.14</ele>
  <time>2026-09-01T19:53:22Z</time>
  <course>126.8</course>
  <speed>0.02</speed>
  <fix>3d</fix>
</trkpt>
<trkpt lat="-27.2744393" lon="151.2900668">
  <ele>344.83</ele>
  <time>2026-09-01T19:53:22Z</time>
  <course>75.91</course>
  <speed>0.02</speed>
  <fix>3d</fix>
</trkpt>
<trkpt lat="-27.2744392" lon="151.290067">
  <ele>345.04</ele>
  <time>2026-09-01T19:53:22Z</time>
  <course>122.12</course>
  <speed>0.02</speed>
  <fix>3d</fix>
</trkpt>
<trkpt lat="-27.2744393" lon="151.2900668">
  <ele>344.78</ele>
  <time>2026-09-01T19:53:22Z</time>
  <course>75.9</course>
  <speed>0.02</speed>
  <fix>3d</fix>
</trkpt>
<trkpt lat="-27.2744392" lon="151.290067">
  <ele>345.04</ele>
  <time>2026-09-01T19:53:22Z</time>
  <course>122.12</course>
  <speed>0.02</speed>
  <fix>3d</fix>
</trkpt>
<trkpt lat="-27.2744393" lon="151.2900668">
  <ele>344.73</ele>
  <time>2026-09-01T19:53:22Z</time>
  <course>75.9</course>
  <speed>0.022360679774997897</speed>
  <fix>3d</fix>
</trkpt>
<trkpt lat="-27.2744392" lon="151.290067">
  <ele>344.95</ele>
  <time>2026-09-01T19:53:22Z</time>
  <course>118.52</course>
  <speed>0.01</speed>
  <fix>3d</fix>
</trkpt>
<trkpt lat="-27.2744393" lon="151.2900668">
  <ele>344.68</ele>
  <time>2026-09-01T19:53:22Z</time>
  <course>75.91</course>
  <speed>0.022360679774997897</speed>
  <fix>3d</fix>
</trkpt>
<trkpt lat="-27.2744392" lon="151.290067">
  <ele>344.95</ele>
  <time>2026-09-01T19:53:22Z</time>
  <course>118.52</course>
  <speed>0.01</speed>
  <fix>3d</fix>
</trkpt>
<trkpt lat="-27.2744393" lon="151.2900668">
  <ele>344.63</ele>
  <time>2026-09-01T19:53:22Z</time>
  <course>75.91</course>
  <speed>0.022360679774997897</speed>
  <fix>3d</fix>
</trkpt>
<trkpt lat="-27.2744392" lon="151.2900671">
  <ele>344.84</ele>
  <time>2026-09-01T19:53:22Z</time>
  <course>115.68</course>
  <speed>0.01</speed>
  <fix>3d</fix>
</trkpt>
<trkpt lat="-27.2744393" lon="151.2900668">
  <ele>344.58</ele>
  <time>2026-09-01T19:53:22Z</time>
  <course>75.91</course>
  <speed>0.01414213562373095</speed>
  <fix>3d</fix>
</trkpt>
<trkpt lat="-27.2744392" lon="151.2900671">
  <ele>344.84</ele>
  <time>2026-09-01T19:53:22Z</time>
  <course>115.68</course>
  <speed>0.01</speed>
  <fix>3d</fix>
</trkpt>
<trkpt lat="-27.2744393" lon="151.2900669">
  <ele>344.53</ele>
  <time>2026-09-01T19:53:22Z</time>
  <course>75.9</course>
  <speed>0.01414213562373095</speed>
  <fix>3d</fix>
</trkpt>
<trkpt lat="-27.2744393" lon="151.2900671">
  <ele>344.75</ele>
  <time>2026-09-01T19:53:22Z</time>
  <course>112.06</course>
  <speed>0.01</speed>
  <fix>3d</fix>
</trkpt>
<trkpt lat="-27.2744393" lon="151.2900669">
  <ele>344.48</ele>
  <time>2026-09-01T19:53:22Z</time>
  <course>75.9</course>
  <speed>0.01414213562373095</speed>
  <fix>3d</fix>
</trkpt>
<trkpt lat="-27.2744393" lon="151.2900671">
  <ele>344.75</ele>
  <time>2026-09-01T19:53:22Z</time>
  <course>112.06</course>
  <speed>0.01</speed>
  <fix>3d</fix>
</trkpt>
<trkpt lat="-27.2744393" lon="151.2900669">
  <ele>344.43</ele>
  <time>2026-09-01T19:53:22Z</time>
  <course>75.89</course>
  <speed>0.01414213562373095</speed>
  <fix>3d</fix>
</trkpt>
<trkpt lat="-27.2744393" lon="151.2900671">
  <ele>344.65</ele>
  <time>2026-09-01T19:53:22Z</time>
  <course>106.61</course>
  <speed>0.0</speed>
  <fix>3d</fix>
</trkpt>
<trkpt lat="-27.2744393" lon="151.2900669">
  <ele>344.38</ele>
  <time>2026-09-01T19:53:22Z</time>
  <course>75.89</course>
  <speed>0.01414213562373095</speed>
  <fix>3d</fix>
</trkpt>
<trkpt lat="-27.2744393" lon="151.2900671">
  <ele>344.65</ele>
  <time>2026-09-01T19:53:22Z</time>
  <course>106.61</course>
  <speed>0.0</speed>
  <fix>3d</fix>
</trkpt>
<trkpt lat="-27.2744393" lon="151.2900669">
  <ele>344.33</ele>
  <time>2026-09-01T19:53:22Z</time>
  <course>75.88</course>
  <speed>0.01414213562373095</speed>
  <fix>3d</fix>
</trkpt>
<trkpt lat="-27.2744393" lon="151.2900671">
  <ele>344.55</ele>
  <time>2026-09-01T19:53:22Z</time>
  <course>97.78</course>
  <speed>0.0</speed>
  <fix>3d</fix>
</trkpt>
<trkpt lat="-27.2744394" lon="151.2900669">
  <ele>344.28</ele>
  <time>2026-09-01T19:53:22Z</time>
  <course>75.87</course>
  <speed>0.022360679774997897</speed>
  <fix>3d</fix>
</trkpt>
<trkpt lat="-27.2744393" lon="151.2900671">
  <ele>344.55</ele>
  <time>2026-09-01T19:53:22Z</time>
  <course>97.78</course>
  <speed>0.0</speed>
  <fix>3d</fix>
</trkpt>
<trkpt lat="-27.2744394" lon="151.2900669">
  <ele>344.23</ele>
  <time>2026-09-01T19:53:22Z</time>
  <course>75.85</course>
  <speed>0.022360679774997897</speed>
  <fix>3d</fix>
</trkpt>
<trkpt lat="-27.2744393" lon="151.2900671">
  <ele>344.45</ele>
  <time>2026-09-01T19:53:22Z</time>
  <course>85.02</course>
  <speed>0.0</speed>
  <fix>3d</fix>
</trkpt>
<trkpt lat="-27.2744394" lon="151.2900669">
  <ele>344.18</ele>
  <time>2026-09-01T19:53:22Z</time>
  <course>75.83</course>
  <speed>0.022360679774997897</speed>
  <fix>3d</fix>
</trkpt>
<trkpt lat="-27.2744393" lon="151.2900671">
  <ele>344.45</ele>
  <time>2026-09-01T19:53:22Z</time>
  <course>85.02</course>
  <speed>0.0</speed>
  <fix>3d</fix>
</trkpt>
<trkpt lat="-27.2744394" lon="151.2900669">
  <ele>344.13</ele>
  <time>2026-09-01T19:53:22Z</time>
  <course>75.81</course>
  <speed>0.022360679774997897</speed>
  <fix>3d</fix>
</trkpt>
<trkpt lat="-27.2744393" lon="151.2900671">
  <ele>344.34</ele>
  <time>2026-09-01T19:53:22Z</time>
  <course>73.9</course>
  <speed>0.0</speed>
  <fix>3d</fix>
</trkpt>
<trkpt lat="-27.2744394" lon="151.2900669">
  <ele>344.08</ele>
  <time>2026-09-01T19:53:22Z</time>
  <course>75.78</course>
  <speed>0.022360679774997897</speed>
  <fix>3d</fix>
</trkpt>
<trkpt lat="-27.2744393" lon="151.2900671">
  <ele>344.34</ele>
  <time>2026-09-01T19:53:22Z</time>
  <course>73.9</course>
  <speed>0.0</speed>
  <fix>3d</fix>
</trkpt>
<trkpt lat="-27.2744394" lon="151.2900669">
  <ele>344.03</ele>
  <time>2026-09-01T19:53:22Z</time>
  <course>75.75</course>
  <speed>0.022360679774997897</speed>
  <fix>3d</fix>
</trkpt>
<trkpt lat="-27.2744393" lon="151.2900671">
  <ele>344.24</ele>
  <time>2026-09-01T19:53:22Z</time>
  <course>71.24</course>
  <speed>0.0</speed>
  <fix>3d</fix>
</trkpt>
<trkpt lat="-27.2744394" lon="151.2900669">
  <ele>343.98</ele>
  <time>2026-09-01T19:53:22Z</time>
  <course>75.71</course>
  <speed>0.022360679774997897</speed>
  <fix>3d</fix>
</trkpt>
<trkpt lat="-27.2744393" lon="151.2900671">
  <ele>344.24</ele>
  <time>2026-09-01T19:53:22Z</time>
  <course>71.24</course>
  <speed>0.0</speed>
  <fix>3d</fix>
</trkpt>
<trkpt lat="-27.2744394" lon="151.2900669">
  <ele>343.93</ele>
  <time>2026-09-01T19:53:22Z</time>
  <course>75.69</course>
  <speed>0.022360679774997897</speed>
  <fix>3d</fix>
</trkpt>
<trkpt lat="-27.2744393" lon="151.2900671">
  <ele>344.14</ele>
  <time>2026-09-01T19:53:22Z</time>
  <course>83.32</course>
  <speed>0.0</speed>
  <fix>3d</fix>
</trkpt>
<trkpt lat="-27.2744394" lon="151.2900669">
  <ele>343.88</ele>
  <time>2026-09-01T19:53:22Z</time>
  <course>75.69</course>
  <speed>0.022360679774997897</speed>
  <fix>3d</fix>
</trkpt>
<trkpt lat="-27.2744393" lon="151.2900671">
  <ele>344.14</ele>
  <time>2026-09-01T19:53:22Z</time>
  <course>83.32</course>
  <speed>0.0</speed>
  <fix>3d</fix>
</trkpt>
<trkpt lat="-27.2744394" lon="151.2900669">
  <ele>343.83</ele>
  <time>2026-09-01T19:53:22Z</time>
  <course>75.71</course>
  <speed>0.022360679774997897</speed>
  <fix>3d</fix>
</trkpt>
<trkpt lat="-27.2744393" lon="151.2900671">
  <ele>344.03</ele>
  <time>2026-09-01T19:53:22Z</time>
  <course>174.23</course>
  <speed>0.0</speed>
  <fix>3d</fix>
</trkpt>
<trkpt lat="-27.2744394" lon="151.2900669">
  <ele>343.78</ele>
  <time>2026-09-01T19:53:22Z</time>
  <course>75.73</course>
  <speed>0.022360679774997897</speed>
  <fix>3d</fix>
</trkpt>
<trkpt lat="-27.2744393" lon="151.2900671">
  <ele>344.03</ele>
  <time>2026-09-01T19:53:22Z</time>
  <course>174.23</course>
  <speed>0.0</speed>
  <fix>3d</fix>
</trkpt>
<trkpt lat="-27.2744394" lon="151.2900669">
  <ele>343.73</ele>
  <time>2026-09-01T19:53:22Z</time>
  <course>75.74</course>
  <speed>0.022360679774997897</speed>
  <fix>3d</fix>
</trkpt>
<trkpt lat="-27.2744393" lon="151.2900671">
  <ele>343.94</ele>
  <time>2026-09-01T19:53:22Z</time>
  <course>240.62</course>
  <speed>0.0</speed>
  <fix>3d</fix>
</trkpt>
<trkpt lat="-27.2744394" lon="151.2900669">
  <ele>343.68</ele>
  <time>2026-09-01T19:53:22Z</time>
  <course>75.74</course>
  <speed>0.022360679774997897</speed>
  <fix>3d</fix>
</trkpt>
<trkpt lat="-27.2744393" lon="151.2900671">
  <ele>343.94</ele>
  <time>2026-09-01T19:53:22Z</time>
  <course>240.62</course>
  <speed>0.0</speed>
  <fix>3d</fix>
</trkpt>
<trkpt lat="-27.2744394" lon="151.2900669">
  <ele>343.62</ele>
  <time>2026-09-01T19:53:22Z</time>
  <course>75.73</course>
  <speed>0.022360679774997897</speed>
  <fix>3d</fix>
</trkpt>
<trkpt lat="-27.2744393" lon="151.2900671">
  <ele>343.84</ele>
  <time>2026-09-01T19:53:22Z</time>
  <course>242.31</course>
  <speed>0.0</speed>
  <fix>3d</fix>
</trkpt>
<trkpt lat="-27.2744394" lon="151.2900669">
  <ele>343.57</ele>
  <time>2026-09-01T19:53:22Z</time>
  <course>75.71</course>
  <speed>0.022360679774997897</speed>
  <fix>3d</fix>
</trkpt>
<trkpt lat="-27.2744393" lon="151.2900671">
  <ele>343.84</ele>
  <time>2026-09-01T19:53:22Z</time>
  <course>242.31</course>
  <speed>0.0</speed>
  <fix>3d</fix>
</trkpt>
<trkpt lat="-27.2744394" lon="151.2900669">
  <ele>343.52</ele>
  <time>2026-09-01T19:53:22Z</time>
  <course>75.7</course>
  <speed>0.022360679774997897</speed>
  <fix>3d</fix>
</trkpt>
<trkpt lat="-27.2744393" lon="151.2900671">
  <ele>343.74</ele>
  <time>2026-09-01T19:53:22Z</time>
  <course>245.16</course>
  <speed>0.0</speed>
  <fix>3d</fix>
</trkpt>
<trkpt lat="-27.2744394" lon="151.2900669">
  <ele>343.47</ele>
  <time>2026-09-01T19:53:22Z</time>
  <course>75.69</course>
  <speed>0.022360679774997897</speed>
  <fix>3d</fix>
</trkpt>
<trkpt lat="-27.2744393" lon="151.2900671">
  <ele>343.74</ele>
  <time>2026-09-01T19:53:22Z</time>
  <course>245.16</course>
  <speed>0.0</speed>
  <fix>3d</fix>
</trkpt>
<trkpt lat="-27.2744394" lon="151.2900669">
  <ele>343.42</ele>
  <time>2026-09-01T19:53:22Z</time>
  <course>75.68</course>
  <speed>0.022360679774997897</speed>
  <fix>3d</fix>
</trkpt>
<trkpt lat="-27.2744393" lon="151.2900671">
  <ele>343.64</ele>
  <time>2026-09-01T19:53:22Z</time>
  <course>248.89</course>
  <speed>0.0</speed>
  <fix>3d</fix>
</trkpt>
<trkpt lat="-27.2744394" lon="151.2900669">
  <ele>343.37</ele>
  <time>2026-09-01T19:53:22Z</time>
  <course>75.68</course>
  <speed>0.022360679774997897</speed>
  <fix>3d</fix>
</trkpt>
<trkpt lat="-27.2744393" lon="151.2900671">
  <ele>343.64</ele>
  <time>2026-09-01T19:53:22Z</time>
  <course>248.89</course>
  <speed>0.0</speed>
  <fix>3d</fix>
</trkpt>
<trkpt lat="-27.2744394" lon="151.2900669">
  <ele>343.32</ele>
  <time>2026-09-01T19:53:22Z</time>
  <course>75.68</course>
  <speed>0.022360679774997897</speed>
  <fix>3d</fix>
</trkpt>
<trkpt lat="-27.2744393" lon="151.2900671">
  <ele>343.53</ele>
  <time>2026-09-01T19:53:22Z</time>
  <course>250.5</course>
  <speed>0.0</speed>
  <fix>3d</fix>
</trkpt>
<trkpt lat="-27.2744394" lon="151.2900669">
  <ele>343.28</ele>
  <time>2026-09-01T19:53:22Z</time>
  <course>75.69</course>
  <speed>0.022360679774997897</speed>
  <fix>3d</fix>
</trkpt>
<trkpt lat="-27.2744393" lon="151.2900671">
  <ele>343.53</ele>
  <time>2026-09-01T19:53:22Z</time>
  <course>250.5</course>
  <speed>0.0</speed>
  <fix>3d</fix>
</trkpt>
<trkpt lat="-27.2744394" lon="151.2900669">
  <ele>343.23</ele>
  <time>2026-09-01T19:53:22Z</time>
  <course>75.71</course>
  <speed>0.022360679774997897</speed>
  <fix>3d</fix>
</trkpt>
<trkpt lat="-27.2744393" lon="151.2900671">
  <ele>343.44</ele>
  <time>2026-09-01T19:53:22Z</time>
  <course>251.62</course>
  <speed>0.0</speed>
  <fix>3d</fix>
</trkpt>
<trkpt lat="-27.2744394" lon="151.2900669">
  <ele>343.18</ele>
  <time>2026-09-01T19:53:22Z</time>
  <course>75.72</course>
  <speed>0.022360679774997897</speed>
  <fix>3d</fix>
</trkpt>
<trkpt lat="-27.2744393" lon="151.2900671">
  <ele>343.44</ele>
  <time>2026-09-01T19:53:22Z</time>
  <course>251.62</course>
  <speed>0.0</speed>
  <fix>3d</fix>
</trkpt>
<trkpt lat="-27.2744394" lon="151.2900669">
  <ele>343.13</ele>
  <time>2026-09-01T19:53:22Z</time>
  <course>75.73</course>
  <speed>0.022360679774997897</speed>
  <fix>3d</fix>
</trkpt>
<trkpt lat="-27.2744393" lon="151.2900671">
  <ele>343.34</ele>
  <time>2026-09-01T19:53:22Z</time>
  <course>251.54</course>
  <speed>0.0</speed>
  <fix>3d</fix>
</trkpt>
<trkpt lat="-27.2744394" lon="151.2900669">
  <ele>343.08</ele>
  <time>2026-09-01T19:53:22Z</time>
  <course>75.73</course>
  <speed>0.022360679774997897</speed>
  <fix>3d</fix>
</trkpt>
<trkpt lat="-27.2744393" lon="151.2900671">
  <ele>343.34</ele>
  <time>2026-09-01T19:53:22Z</time>
  <course>251.54</course>
  <speed>0.0</speed>
  <fix>3d</fix>
</trkpt>
<trkpt lat="-27.2744394" lon="151.2900669">
  <ele>343.03</ele>
  <time>2026-09-01T19:53:22Z</time>
  <course>75.72</course>
  <speed>0.022360679774997897</speed>
  <fix>3d</fix>
</trkpt>
<trkpt lat="-27.2744393" lon="151.2900671">
  <ele>343.25</ele>
  <time>2026-09-01T19:53:22Z</time>
  <course>251.14</course>
  <speed>0.0</speed>
  <fix>3d</fix>
</trkpt>
<trkpt lat="-27.2744394" lon="151.2900669">
  <ele>342.98</ele>
  <time>2026-09-01T19:53:22Z</time>
  <course>75.71</course>
  <speed>0.022360679774997897</speed>
  <fix>3d</fix>
</trkpt>
<trkpt lat="-27.2744393" lon="151.2900671">
  <ele>343.25</ele>
  <time>2026-09-01T19:53:22Z</time>
  <course>251.14</course>
  <speed>0.0</speed>
  <fix>3d</fix>
</trkpt>
<trkpt lat="-27.2744394" lon="151.2900669">
  <ele>342.95</ele>
  <time>2026-09-01T19:53:22Z</time>
  <course>75.71</course>
  <speed>0.01414213562373095</speed>
  <fix>3d</fix>
</trkpt>
<trkpt lat="-27.2744393" lon="151.2900671">
  <ele>343.15</ele>
  <time>2026-09-01T19:53:22Z</time>
  <course>251.0</course>
  <speed>0.01</speed>
  <fix>3d</fix>
</trkpt>
<trkpt lat="-27.2744394" lon="151.2900669">
  <ele>342.96</ele>
  <time>2026-09-01T19:53:22Z</time>
  <course>75.71</course>
  <speed>0.01</speed>
  <fix>3d</fix>
</trkpt>
<trkpt lat="-27.2744393" lon="151.2900671">
  <ele>343.15</ele>
  <time>2026-09-01T19:53:22Z</time>
  <course>251.0</course>
  <speed>0.01</speed>
  <fix>3d</fix>
</trkpt>
<trkpt lat="-27.2744394" lon="151.2900669">
  <ele>342.97</ele>
  <time>2026-09-01T19:53:22Z</time>
  <course>75.71</course>
  <speed>0.01</speed>
  <fix>3d</fix>
</trkpt>
<trkpt lat="-27.2744393" lon="151.2900671">
  <ele>343.09</ele>
  <time>2026-09-01T19:53:22Z</time>
  <course>250.85</course>
  <speed>0.0</speed>
  <fix>3d</fix>
</trkpt>
<trkpt lat="-27.2744394" lon="151.2900669">
  <ele>342.97</ele>
  <time>2026-09-01T19:53:22Z</time>
  <course>75.71</course>
  <speed>0.01</speed>
  <fix>3d</fix>
</trkpt>
<trkpt lat="-27.2744393" lon="151.2900671">
  <ele>343.09</ele>
  <time>2026-09-01T19:53:22Z</time>
  <course>250.85</course>
  <speed>0.0</speed>
  <fix>3d</fix>
</trkpt>
<trkpt lat="-27.2744394" lon="151.2900669">
  <ele>342.97</ele>
  <time>2026-09-01T19:53:22Z</time>
  <course>75.71</course>
  <speed>0.01</speed>
  <fix>3d</fix>
</trkpt>
<trkpt lat="-27.2744393" lon="151.2900671">
  <ele>343.09</ele>
  <time>2026-09-01T19:53:22Z</time>
  <course>70.71</course>
  <speed>0.0</speed>
  <fix>3d</fix>
</trkpt>
<trkpt lat="-27.2744394" lon="151.2900669">
  <ele>342.96</ele>
  <time>2026-09-01T19:53:22Z</time>
  <course>75.71</course>
  <speed>0.01</speed>
  <fix>3d</fix>
</trkpt>
<trkpt lat="-27.2744393" lon="151.2900671">
  <ele>343.09</ele>
  <time>2026-09-01T19:53:22Z</time>
  <course>70.71</course>
  <speed>0.0</speed>
  <fix>3d</fix>
</trkpt>
<trkpt lat="-27.2744394" lon="151.2900669">
  <ele>342.96</ele>
  <time>2026-09-01T19:53:22Z</time>
  <course>75.71</course>
  <speed>0.01</speed>
  <fix>3d</fix>
</trkpt>
<trkpt lat="-27.2744393" lon="151.2900671">
  <ele>343.1</ele>
  <time>2026-09-01T19:53:22Z</time>
  <course>70.7</course>
  <speed>0.0</speed>
  <fix>3d</fix>
</trkpt>
<trkpt lat="-27.2744394" lon="151.2900669">
  <ele>342.96</ele>
  <time>2026-09-01T19:53:22Z</time>
  <course>75.71</course>
  <speed>0.01</speed>
  <fix>3d</fix>
</trkpt>
<trkpt lat="-27.2744393" lon="151.2900671">
  <ele>343.1</ele>
  <time>2026-09-01T19:53:22Z</time>
  <course>70.7</course>
  <speed>0.0</speed>
  <fix>3d</fix>
</trkpt>
<trkpt lat="-27.2744394" lon="151.2900669">
  <ele>342.96</ele>
  <time>2026-09-01T19:53:23Z</time>
  <course>75.71</course>
  <speed>0.01</speed>
  <fix>3d</fix>
</trkpt>
<trkpt lat="-27.2744393" lon="151.2900671">
  <ele>343.1</ele>
  <time>2026-09-01T19:53:23Z</time>
  <course>250.7</course>
  <speed>0.0</speed>
  <fix>3d</fix>
</trkpt>
<trkpt lat="-27.2744394" lon="151.2900669">
  <ele>342.96</ele>
  <time>2026-09-01T19:53:23Z</time>
  <course>75.7</course>
  <speed>0.01</speed>
  <fix>3d</fix>
</trkpt>
<trkpt lat="-27.2744393" lon="151.2900671">
  <ele>343.1</ele>
  <time>2026-09-01T19:53:23Z</time>
  <course>250.7</course>
  <speed>0.0</speed>
  <fix>3d</fix>
</trkpt>
<trkpt lat="-27.2744394" lon="151.2900669">
  <ele>342.96</ele>
  <time>2026-09-01T19:53:23Z</time>
  <course>75.7</course>
  <speed>0.01</speed>
  <fix>3d</fix>
</trkpt>
<trkpt lat="-27.2744393" lon="151.2900671">
  <ele>343.1</ele>
  <time>2026-09-01T19:53:23Z</time>
  <course>249.45</course>
  <speed>0.0</speed>
  <fix>3d</fix>
</trkpt>
<trkpt lat="-27.2744394" lon="151.2900669">
  <ele>342.96</ele>
  <time>2026-09-01T19:53:23Z</time>
  <course>75.7</course>
  <speed>0.0</speed>
  <fix>3d</fix>
</trkpt>
<trkpt lat="-27.2744393" lon="151.2900671">
  <ele>343.1</ele>
  <time>2026-09-01T19:53:23Z</time>
  <course>249.45</course>
  <speed>0.0</speed>
  <fix>3d</fix>
</trkpt>
<trkpt lat="-27.2744394" lon="151.2900669">
  <ele>342.96</ele>
  <time>2026-09-01T19:53:23Z</time>
  <course>75.7</course>
  <speed>0.0</speed>
  <fix>3d</fix>
</trkpt>
<trkpt lat="-27.2744393" lon="151.2900671">
  <ele>343.1</ele>
  <time>2026-09-01T19:53:23Z</time>
  <course>70.84</course>
  <speed>0.0</speed>
  <fix>3d</fix>
</trkpt>
<trkpt lat="-27.2744394" lon="151.2900669">
  <ele>342.96</ele>
  <time>2026-09-01T19:53:23Z</time>
  <course>75.7</course>
  <speed>0.0</speed>
  <fix>3d</fix>
</trkpt>
<trkpt lat="-27.2744393" lon="151.2900671">
  <ele>343.1</ele>
  <time>2026-09-01T19:53:23Z</time>
  <course>70.84</course>
  <speed>0.0</speed>
  <fix>3d</fix>
</trkpt>
<trkpt lat="-27.2744394" lon="151.2900669">
  <ele>342.96</ele>
  <time>2026-09-01T19:53:23Z</time>
  <course>75.7</course>
  <speed>0.0</speed>
  <fix>3d</fix>
</trkpt>
<trkpt lat="-27.2744393" lon="151.2900671">
  <ele>343.1</ele>
  <time>2026-09-01T19:53:23Z</time>
  <course>249.81</course>
  <speed>0.0</speed>
  <fix>3d</fix>
</trkpt>
<trkpt lat="-27.2744394" lon="151.2900669">
  <ele>342.96</ele>
  <time>2026-09-01T19:53:23Z</time>
  <course>75.7</course>
  <speed>0.0</speed>
  <fix>3d</fix>
</trkpt>
<trkpt lat="-27.2744393" lon="151.2900671">
  <ele>343.1</ele>
  <time>2026-09-01T19:53:23Z</time>
  <course>249.81</course>
  <speed>0.0</speed>
  <fix>3d</fix>
</trkpt>
<trkpt lat="-27.2744394" lon="151.2900669">
  <ele>342.96</ele>
  <time>2026-09-01T19:53:23Z</time>
  <course>75.7</course>
  <speed>0.0</speed>
  <fix>3d</fix>
</trkpt>
<trkpt lat="-27.2744393" lon="151.2900671">
  <ele>343.1</ele>
  <time>2026-09-01T19:53:23Z</time>
  <course>250.43</course>
  <speed>0.0</speed>
  <fix>3d</fix>
</trkpt>
<trkpt lat="-27.2744394" lon="151.2900669">
  <ele>342.96</ele>
  <time>2026-09-01T19:53:23Z</time>
  <course>75.69</course>
  <speed>0.0</speed>
  <fix>3d</fix>
</trkpt>
<trkpt lat="-27.2744393" lon="151.2900671">
  <ele>343.1</ele>
  <time>2026-09-01T19:53:23Z</time>
  <course>250.43</course>
  <speed>0.0</speed>
  <fix>3d</fix>
</trkpt>
<trkpt lat="-27.2744394" lon="151.2900669">
  <ele>342.96</ele>
  <time>2026-09-01T19:53:23Z</time>
  <course>75.69</course>
  <speed>0.0</speed>
  <fix>3d</fix>
</trkpt>
<trkpt lat="-27.2744393" lon="151.2900671">
  <ele>343.1</ele>
  <time>2026-09-01T19:53:23Z</time>
  <course>71.93</course>
  <speed>0.0</speed>
  <fix>3d</fix>
</trkpt>
<trkpt lat="-27.2744394" lon="151.2900669">
  <ele>342.96</ele>
  <time>2026-09-01T19:53:23Z</time>
  <course>75.69</course>
  <speed>0.0</speed>
  <fix>3d</fix>
</trkpt>
<trkpt lat="-27.2744393" lon="151.2900671">
  <ele>343.1</ele>
  <time>2026-09-01T19:53:23Z</time>
  <course>71.93</course>
  <speed>0.0</speed>
  <fix>3d</fix>
</trkpt>
<trkpt lat="-27.2744394" lon="151.2900669">
  <ele>342.97</ele>
  <time>2026-09-01T19:53:23Z</time>
  <course>75.69</course>
  <speed>0.0</speed>
  <fix>3d</fix>
</trkpt>
<trkpt lat="-27.2744393" lon="151.2900671">
  <ele>343.1</ele>
  <time>2026-09-01T19:53:23Z</time>
  <course>75.29</course>
  <speed>0.0</speed>
  <fix>3d</fix>
</trkpt>
<trkpt lat="-27.2744394" lon="151.2900669">
  <ele>342.97</ele>
  <time>2026-09-01T19:53:23Z</time>
  <course>75.69</course>
  <speed>0.0</speed>
  <fix>3d</fix>
</trkpt>
<trkpt lat="-27.2744393" lon="151.2900671">
  <ele>343.1</ele>
  <time>2026-09-01T19:53:23Z</time>
  <course>75.29</course>
  <speed>0.0</speed>
  <fix>3d</fix>
</trkpt>
<trkpt lat="-27.2744394" lon="151.2900669">
  <ele>342.97</ele>
  <time>2026-09-01T19:53:23Z</time>
  <course>75.69</course>
  <speed>0.0</speed>
  <fix>3d</fix>
</trkpt>
<trkpt lat="-27.2744393" lon="151.2900671">
  <ele>343.1</ele>
  <time>2026-09-01T19:53:23Z</time>
  <course>229.06</course>
  <speed>0.0</speed>
  <fix>3d</fix>
</trkpt>
<trkpt lat="-27.2744394" lon="151.2900669">
  <ele>342.97</ele>
  <time>2026-09-01T19:53:23Z</time>
  <course>75.69</course>
  <speed>0.0</speed>
  <fix>3d</fix>
</trkpt>
<trkpt lat="-27.2744393" lon="151.2900671">
  <ele>343.1</ele>
  <time>2026-09-01T19:53:23Z</time>
  <course>229.06</course>
  <speed>0.0</speed>
  <fix>3d</fix>
</trkpt>
<trkpt lat="-27.2744394" lon="151.2900669">
  <ele>342.97</ele>
  <time>2026-09-01T19:53:23Z</time>
  <course>75.69</course>
  <speed>0.0</speed>
  <fix>3d</fix>
</trkpt>
<trkpt lat="-27.2744393" lon="151.2900671">
  <ele>343.1</ele>
  <time>2026-09-01T19:53:23Z</time>
  <course>255.68</course>
  <speed>0.0</speed>
  <fix>3d</fix>
</trkpt>
<trkpt lat="-27.2744394" lon="151.2900669">
  <ele>342.97</ele>
  <time>2026-09-01T19:53:23Z</time>
  <course>75.69</course>
  <speed>0.0</speed>
  <fix>3d</fix>
</trkpt>
<trkpt lat="-27.2744393" lon="151.2900671">
  <ele>343.1</ele>
  <time>2026-09-01T19:53:23Z</time>
  <course>255.68</course>
  <speed>0.0</speed>
  <fix>3d</fix>
</trkpt>
<trkpt lat="-27.2744394" lon="151.290067">
  <ele>342.98</ele>
  <time>2026-09-01T19:53:23Z</time>
  <course>75.68</course>
  <speed>0.0</speed>
  <fix>3d</fix>
</trkpt>
<trkpt lat="-27.2744393" lon="151.2900671">
  <ele>343.1</ele>
  <time>2026-09-01T19:53:23Z</time>
  <course>268.9</course>
  <speed>0.0</speed>
  <fix>3d</fix>
</trkpt>
<trkpt lat="-27.2744394" lon="151.290067">
  <ele>342.98</ele>
  <time>2026-09-01T19:53:23Z</time>
  <course>75.68</course>
  <speed>0.0</speed>
  <fix>3d</fix>
</trkpt>
<trkpt lat="-27.2744393" lon="151.2900671">
  <ele>343.1</ele>
  <time>2026-09-01T19:53:23Z</time>
  <course>268.9</course>
  <speed>0.0</speed>
  <fix>3d</fix>
</trkpt>
<trkpt lat="-27.2744394" lon="151.290067">
  <ele>342.98</ele>
  <time>2026-09-01T19:53:23Z</time>
  <course>75.68</course>
  <speed>0.0</speed>
  <fix>3d</fix>
</trkpt>
<trkpt lat="-27.2744393" lon="151.2900671">
  <ele>343.1</ele>
  <time>2026-09-01T19:53:23Z</time>
  <course>256.46</course>
  <speed>0.0</speed>
  <fix>3d</fix>
</trkpt>
<trkpt lat="-27.2744394" lon="151.290067">
  <ele>342.98</ele>
  <time>2026-09-01T19:53:23Z</time>
  <course>75.68</course>
  <speed>0.0</speed>
  <fix>3d</fix>
</trkpt>
<trkpt lat="-27.2744393" lon="151.2900671">
  <ele>343.1</ele>
  <time>2026-09-01T19:53:23Z</time>
  <course>256.46</course>
  <speed>0.0</speed>
  <fix>3d</fix>
</trkpt>
<trkpt lat="-27.2744394" lon="151.290067">
  <ele>342.98</ele>
  <time>2026-09-01T19:53:23Z</time>
  <course>75.68</course>
  <speed>0.0</speed>
  <fix>3d</fix>
</trkpt>
<trkpt lat="-27.2744393" lon="151.2900671">
  <ele>343.1</ele>
  <time>2026-09-01T19:53:23Z</time>
  <course>244.03</course>
  <speed>0.0</speed>
  <fix>3d</fix>
</trkpt>
<trkpt lat="-27.2744394" lon="151.290067">
  <ele>342.98</ele>
  <time>2026-09-01T19:53:23Z</time>
  <course>75.68</course>
  <speed>0.0</speed>
  <fix>3d</fix>
</trkpt>
<trkpt lat="-27.2744393" lon="151.2900671">
  <ele>343.1</ele>
  <time>2026-09-01T19:53:23Z</time>
  <course>244.03</course>
  <speed>0.0</speed>
  <fix>3d</fix>
</trkpt>
<trkpt lat="-27.2744394" lon="151.290067">
  <ele>342.98</ele>
  <time>2026-09-01T19:53:23Z</time>
  <course>75.68</course>
  <speed>0.0</speed>
  <fix>3d</fix>
</trkpt>
<trkpt lat="-27.2744393" lon="151.2900671">
  <ele>343.1</ele>
  <time>2026-09-01T19:53:23Z</time>
  <course>244.71</course>
  <speed>0.0</speed>
  <fix>3d</fix>
</trkpt>
<trkpt lat="-27.2744394" lon="151.290067">
  <ele>342.98</ele>
  <time>2026-09-01T19:53:23Z</time>
  <course>75.67</course>
  <speed>0.0</speed>
  <fix>3d</fix>
</trkpt>
<trkpt lat="-27.2744393" lon="151.2900671">
  <ele>343.1</ele>
  <time>2026-09-01T19:53:23Z</time>
  <course>244.71</course>
  <speed>0.0</speed>
  <fix>3d</fix>
</trkpt>
<trkpt lat="-27.2744394" lon="151.290067">
  <ele>342.98</ele>
  <time>2026-09-01T19:53:23Z</time>
  <course>75.67</course>
  <speed>0.0</speed>
  <fix>3d</fix>
</trkpt>
<trkpt lat="-27.2744393" lon="151.2900671">
  <ele>343.1</ele>
  <time>2026-09-01T19:53:23Z</time>
  <course>204.6</course>
  <speed>0.0</speed>
  <fix>3d</fix>
</trkpt>
<trkpt lat="-27.2744394" lon="151.290067">
  <ele>342.98</ele>
  <time>2026-09-01T19:53:23Z</time>
  <course>75.67</course>
  <speed>0.0</speed>
  <fix>3d</fix>
</trkpt>
<trkpt lat="-27.2744393" lon="151.2900671">
  <ele>343.1</ele>
  <time>2026-09-01T19:53:23Z</time>
  <course>204.6</course>
  <speed>0.0</speed>
  <fix>3d</fix>
</trkpt>
<trkpt lat="-27.2744394" lon="151.290067">
  <ele>342.98</ele>
  <time>2026-09-01T19:53:23Z</time>
  <course>75.67</course>
  <speed>0.0</speed>
  <fix>3d</fix>
</trkpt>
<trkpt lat="-27.2744393" lon="151.2900671">
  <ele>343.1</ele>
  <time>2026-09-01T19:53:23Z</time>
  <course>207.47</course>
  <speed>0.0</speed>
  <fix>3d</fix>
</trkpt>
<trkpt lat="-27.2744394" lon="151.290067">
  <ele>342.98</ele>
  <time>2026-09-01T19:53:23Z</time>
  <course>75.67</course>
  <speed>0.0</speed>
  <fix>3d</fix>
</trkpt>
<trkpt lat="-27.2744393" lon="151.2900671">
  <ele>343.1</ele>
  <time>2026-09-01T19:53:23Z</time>
  <course>207.47</course>
  <speed>0.0</speed>
  <fix>3d</fix>
</trkpt>
<trkpt lat="-27.2744394" lon="151.290067">
  <ele>342.98</ele>
  <time>2026-09-01T19:53:23Z</time>
  <course>75.67</course>
  <speed>0.0</speed>
  <fix>3d</fix>
</trkpt>
<trkpt lat="-27.2744393" lon="151.2900671">
  <ele>343.1</ele>
  <time>2026-09-01T19:53:23Z</time>
  <course>269.43</course>
  <speed>0.0</speed>
  <fix>3d</fix>
</trkpt>
<trkpt lat="-27.2744394" lon="151.290067">
  <ele>342.98</ele>
  <time>2026-09-01T19:53:23Z</time>
  <course>75.67</course>
  <speed>0.0</speed>
  <fix>3d</fix>
</trkpt>
<trkpt lat="-27.2744393" lon="151.2900671">
  <ele>343.1</ele>
  <time>2026-09-01T19:53:23Z</time>
  <course>269.43</course>
  <speed>0.0</speed>
  <fix>3d</fix>
</trkpt>
<trkpt lat="-27.2744394" lon="151.290067">
  <ele>342.98</ele>
  <time>2026-09-01T19:53:23Z</time>
  <course>75.67</course>
  <speed>0.0</speed>
  <fix>3d</fix>
</trkpt>
<trkpt lat="-27.2744393" lon="151.2900671">
  <ele>343.1</ele>
  <time>2026-09-01T19:53:23Z</time>
  <course>300.69</course>
  <speed>0.0</speed>
  <fix>3d</fix>
</trkpt>
<trkpt lat="-27.2744394" lon="151.290067">
  <ele>342.98</ele>
  <time>2026-09-01T19:53:23Z</time>
  <course>75.67</course>
  <speed>0.0</speed>
  <fix>3d</fix>
</trkpt>
<trkpt lat="-27.2744393" lon="151.2900671">
  <ele>343.1</ele>
  <time>2026-09-01T19:53:23Z</time>
  <course>300.69</course>
  <speed>0.0</speed>
  <fix>3d</fix>
</trkpt>
<trkpt lat="-27.2744394" lon="151.290067">
  <ele>342.98</ele>
  <time>2026-09-01T19:53:23Z</time>
  <course>75.66</course>
  <speed>0.0</speed>
  <fix>3d</fix>
</trkpt>
<trkpt lat="-27.2744393" lon="151.2900671">
  <ele>343.1</ele>
  <time>2026-09-01T19:53:23Z</time>
  <course>66.61</course>
  <speed>0.0</speed>
  <fix>3d</fix>
</trkpt>
<trkpt lat="-27.2744394" lon="151.290067">
  <ele>342.98</ele>
  <time>2026-09-01T19:53:23Z</time>
  <course>75.66</course>
  <speed>0.0</speed>
  <fix>3d</fix>
</trkpt>
<trkpt lat="-27.2744393" lon="151.2900671">
  <ele>343.1</ele>
  <time>2026-09-01T19:53:23Z</time>
  <course>66.61</course>
  <speed>0.0</speed>
  <fix>3d</fix>
</trkpt>
<trkpt lat="-27.2744394" lon="151.290067">
  <ele>342.98</ele>
  <time>2026-09-01T19:53:23Z</time>
  <course>75.66</course>
  <speed>0.0</speed>
  <fix>3d</fix>
</trkpt>
<trkpt lat="-27.2744393" lon="151.2900671">
  <ele>343.1</ele>
  <time>2026-09-01T19:53:23Z</time>
  <course>260.8</course>
  <speed>0.0</speed>
  <fix>3d</fix>
</trkpt>
<trkpt lat="-27.2744393" lon="151.290067">
  <ele>342.98</ele>
  <time>2026-09-01T19:53:23Z</time>
  <course>75.66</course>
  <speed>0.0</speed>
  <fix>3d</fix>
</trkpt>
<trkpt lat="-27.2744393" lon="151.2900671">
  <ele>343.1</ele>
  <time>2026-09-01T19:53:23Z</time>
  <course>260.8</course>
  <speed>0.0</speed>
  <fix>3d</fix>
</trkpt>
<trkpt lat="-27.2744393" lon="151.290067">
  <ele>342.98</ele>
  <time>2026-09-01T19:53:23Z</time>
  <course>75.66</course>
  <speed>0.0</speed>
  <fix>3d</fix>
</trkpt>
<trkpt lat="-27.2744393" lon="151.2900671">
  <ele>343.1</ele>
  <time>2026-09-01T19:53:23Z</time>
  <course>227.3</course>
  <speed>0.0</speed>
  <fix>3d</fix>
</trkpt>
<trkpt lat="-27.2744393" lon="151.290067">
  <ele>342.98</ele>
  <time>2026-09-01T19:53:23Z</time>
  <course>75.66</course>
  <speed>0.0</speed>
  <fix>3d</fix>
</trkpt>
<trkpt lat="-27.2744393" lon="151.2900671">
  <ele>343.1</ele>
  <time>2026-09-01T19:53:23Z</time>
  <course>227.3</course>
  <speed>0.0</speed>
  <fix>3d</fix>
</trkpt>
<trkpt lat="-27.2744393" lon="151.290067">
  <ele>342.98</ele>
  <time>2026-09-01T19:53:23Z</time>
  <course>75.66</course>
  <speed>0.0</speed>
  <fix>3d</fix>
</trkpt>
<trkpt lat="-27.2744393" lon="151.2900671">
  <ele>343.1</ele>
  <time>2026-09-01T19:53:23Z</time>
  <course>220.46</course>
  <speed>0.0</speed>
  <fix>3d</fix>
</trkpt>
<trkpt lat="-27.2744393" lon="151.290067">
  <ele>342.98</ele>
  <time>2026-09-01T19:53:23Z</time>
  <course>75.65</course>
  <speed>0.0</speed>
  <fix>3d</fix>
</trkpt>
<trkpt lat="-27.2744393" lon="151.2900671">
  <ele>343.1</ele>
  <time>2026-09-01T19:53:23Z</time>
  <course>220.46</course>
  <speed>0.0</speed>
  <fix>3d</fix>
</trkpt>
<trkpt lat="-27.2744393" lon="151.290067">
  <ele>342.98</ele>
  <time>2026-09-01T19:53:23Z</time>
  <course>75.65</course>
  <speed>0.0</speed>
  <fix>3d</fix>
</trkpt>
<trkpt lat="-27.2744393" lon="151.2900671">
  <ele>343.1</ele>
  <time>2026-09-01T19:53:23Z</time>
  <course>271.14</course>
  <speed>0.0</speed>
  <fix>3d</fix>
</trkpt>
<trkpt lat="-27.2744393" lon="151.290067">
  <ele>342.98</ele>
  <time>2026-09-01T19:53:23Z</time>
  <course>75.65</course>
  <speed>0.0</speed>
  <fix>3d</fix>
</trkpt>
<trkpt lat="-27.2744393" lon="151.2900671">
  <ele>343.1</ele>
  <time>2026-09-01T19:53:23Z</time>
  <course>271.14</course>
  <speed>0.0</speed>
  <fix>3d</fix>
</trkpt>
<trkpt lat="-27.2744393" lon="151.290067">
  <ele>342.98</ele>
  <time>2026-09-01T19:53:23Z</time>
  <course>75.65</course>
  <speed>0.0</speed>
  <fix>3d</fix>
</trkpt>
<trkpt lat="-27.2744393" lon="151.2900671">
  <ele>343.1</ele>
  <time>2026-09-01T19:53:23Z</time>
  <course>226.64</course>
  <speed>0.0</speed>
  <fix>3d</fix>
</trkpt>
<trkpt lat="-27.2744393" lon="151.290067">
  <ele>342.98</ele>
  <time>2026-09-01T19:53:23Z</time>
  <course>75.65</course>
  <speed>0.0</speed>
  <fix>3d</fix>
</trkpt>
<trkpt lat="-27.2744393" lon="151.2900671">
  <ele>343.1</ele>
  <time>2026-09-01T19:53:23Z</time>
  <course>226.64</course>
  <speed>0.0</speed>
  <fix>3d</fix>
</trkpt>
<trkpt lat="-27.2744393" lon="151.290067">
  <ele>342.98</ele>
  <time>2026-09-01T19:53:23Z</time>
  <course>75.65</course>
  <speed>0.0</speed>
  <fix>3d</fix>
</trkpt>
<trkpt lat="-27.2744393" lon="151.2900671">
  <ele>343.1</ele>
  <time>2026-09-01T19:53:23Z</time>
  <course>205.95</course>
  <speed>0.0</speed>
  <fix>3d</fix>
</trkpt>
<trkpt lat="-27.2744393" lon="151.290067">
  <ele>342.98</ele>
  <time>2026-09-01T19:53:23Z</time>
  <course>75.65</course>
  <speed>0.0</speed>
  <fix>3d</fix>
</trkpt>
<trkpt lat="-27.2744393" lon="151.2900671">
  <ele>343.1</ele>
  <time>2026-09-01T19:53:23Z</time>
  <course>205.95</course>
  <speed>0.0</speed>
  <fix>3d</fix>
</trkpt>
<trkpt lat="-27.2744393" lon="151.290067">
  <ele>342.98</ele>
  <time>2026-09-01T19:53:23Z</time>
  <course>75.65</course>
  <speed>0.0</speed>
  <fix>3d</fix>
</trkpt>
<trkpt lat="-27.2744393" lon="151.2900671">
  <ele>343.1</ele>
  <time>2026-09-01T19:53:23Z</time>
  <course>267.41</course>
  <speed>0.0</speed>
  <fix>3d</fix>
</trkpt>
<trkpt lat="-27.2744393" lon="151.290067">
  <ele>342.99</ele>
  <time>2026-09-01T19:53:23Z</time>
  <course>75.64</course>
  <speed>0.0</speed>
  <fix>3d</fix>
</trkpt>
<trkpt lat="-27.2744393" lon="151.2900671">
  <ele>343.1</ele>
  <time>2026-09-01T19:53:23Z</time>
  <course>267.41</course>
  <speed>0.0</speed>
  <fix>3d</fix>
</trkpt>
<trkpt lat="-27.2744393" lon="151.290067">
  <ele>342.99</ele>
  <time>2026-09-01T19:53:23Z</time>
  <course>75.64</course>
  <speed>0.0</speed>
  <fix>3d</fix>
</trkpt>
<trkpt lat="-27.2744393" lon="151.2900671">
  <ele>343.1</ele>
  <time>2026-09-01T19:53:23Z</time>
  <course>228.03</course>
  <speed>0.0</speed>
  <fix>3d</fix>
</trkpt>
<trkpt lat="-27.2744393" lon="151.290067">
  <ele>342.99</ele>
  <time>2026-09-01T19:53:23Z</time>
  <course>75.64</course>
  <speed>0.0</speed>
  <fix>3d</fix>
</trkpt>
<trkpt lat="-27.2744393" lon="151.2900671">
  <ele>343.1</ele>
  <time>2026-09-01T19:53:23Z</time>
  <course>228.03</course>
  <speed>0.0</speed>
  <fix>3d</fix>
</trkpt>
<trkpt lat="-27.2744393" lon="151.290067">
  <ele>342.99</ele>
  <time>2026-09-01T19:53:23Z</time>
  <course>75.64</course>
  <speed>0.0</speed>
  <fix>3d</fix>
</trkpt>
<trkpt lat="-27.2744393" lon="151.2900671">
  <ele>343.1</ele>
  <time>2026-09-01T19:53:23Z</time>
  <course>206.92</course>
  <speed>0.0</speed>
  <fix>3d</fix>
</trkpt>
<trkpt lat="-27.2744393" lon="151.290067">
  <ele>342.99</ele>
  <time>2026-09-01T19:53:23Z</time>
  <course>75.64</course>
  <speed>0.0</speed>
  <fix>3d</fix>
</trkpt>
<trkpt lat="-27.2744393" lon="151.2900671">
  <ele>343.1</ele>
  <time>2026-09-01T19:53:23Z</time>
  <course>206.92</course>
  <speed>0.0</speed>
  <fix>3d</fix>
</trkpt>
<trkpt lat="-27.2744393" lon="151.290067">
  <ele>342.99</ele>
  <time>2026-09-01T19:53:23Z</time>
  <course>75.64</course>
  <speed>0.0</speed>
  <fix>3d</fix>
</trkpt>
<trkpt lat="-27.2744393" lon="151.2900671">
  <ele>343.1</ele>
  <time>2026-09-01T19:53:23Z</time>
  <course>315.88</course>
  <speed>0.0</speed>
  <fix>3d</fix>
</trkpt>
<trkpt lat="-27.2744393" lon="151.290067">
  <ele>343.0</ele>
  <time>2026-09-01T19:53:23Z</time>
  <course>75.64</course>
  <speed>0.0</speed>
  <fix>3d</fix>
</trkpt>
<trkpt lat="-27.2744393" lon="151.2900671">
  <ele>343.1</ele>
  <time>2026-09-01T19:53:23Z</time>
  <course>315.88</course>
  <speed>0.0</speed>
  <fix>3d</fix>
</trkpt>
<trkpt lat="-27.2744393" lon="151.290067">
  <ele>343.0</ele>
  <time>2026-09-01T19:53:23Z</time>
  <course>75.64</course>
  <speed>0.0</speed>
  <fix>3d</fix>
</trkpt>
<trkpt lat="-27.2744393" lon="151.2900671">
  <ele>343.1</ele>
  <time>2026-09-01T19:53:23Z</time>
  <course>320.78</course>
  <speed>0.0</speed>
  <fix>3d</fix>
</trkpt>
<trkpt lat="-27.2744393" lon="151.290067">
  <ele>343.0</ele>
  <time>2026-09-01T19:53:23Z</time>
  <course>75.65</course>
  <speed>0.0</speed>
  <fix>3d</fix>
</trkpt>
<trkpt lat="-27.2744393" lon="151.2900671">
  <ele>343.1</ele>
  <time>2026-09-01T19:53:23Z</time>
  <course>320.78</course>
  <speed>0.0</speed>
  <fix>3d</fix>
</trkpt>
<trkpt lat="-27.2744393" lon="151.290067">
  <ele>343.1</ele>
  <time>2026-09-01T19:53:23Z</time>
  <course>75.65</course>
  <speed>0.0</speed>
  <fix>3d</fix>
</trkpt>
<trkpt lat="-27.2744393" lon="151.2900671">
  <ele>343.1</ele>
  <time>2026-09-01T19:53:23Z</time>
  <course>321.9</course>
  <speed>0.0</speed>
  <fix>3d</fix>
</trkpt>
<trkpt lat="-27.2744393" lon="151.290067">
  <ele>343.09</ele>
  <time>2026-09-01T19:53:23Z</time>
  <course>75.65</course>
  <speed>0.0</speed>
  <fix>3d</fix>
</trkpt>
<trkpt lat="-27.2744393" lon="151.2900671">
  <ele>343.1</ele>
  <time>2026-09-01T19:53:23Z</time>
  <course>321.9</course>
  <speed>0.0</speed>
  <fix>3d</fix>
</trkpt>
<trkpt lat="-27.2744393" lon="151.290067">
  <ele>343.09</ele>
  <time>2026-09-01T19:53:23Z</time>
  <course>75.66</course>
  <speed>0.0</speed>
  <fix>3d</fix>
</trkpt>
<trkpt lat="-27.2744393" lon="151.2900671">
  <ele>343.1</ele>
  <time>2026-09-01T19:53:23Z</time>
  <course>141.03</course>
  <speed>0.0</speed>
  <fix>3d</fix>
</trkpt>
<trkpt lat="-27.2744393" lon="151.290067">
  <ele>343.1</ele>
  <time>2026-09-01T19:53:23Z</time>
  <course>75.66</course>
  <speed>0.0</speed>
  <fix>3d</fix>
</trkpt>
<trkpt lat="-27.2744393" lon="151.2900671">
  <ele>343.1</ele>
  <time>2026-09-01T19:53:23Z</time>
  <course>141.03</course>
  <speed>0.0</speed>
  <fix>3d</fix>
</trkpt>
<trkpt lat="-27.2744393" lon="151.290067">
  <ele>343.1</ele>
  <time>2026-09-01T19:53:23Z</time>
  <course>75.66</course>
  <speed>0.0</speed>
  <fix>3d</fix>
</trkpt>
<trkpt lat="-27.2744393" lon="151.2900671">
  <ele>343.1</ele>
  <time>2026-09-01T19:53:23Z</time>
  <course>142.68</course>
  <speed>0.0</speed>
  <fix>3d</fix>
</trkpt>
<trkpt lat="-27.2744393" lon="151.290067">
  <ele>343.1</ele>
  <time>2026-09-01T19:53:23Z</time>
  <course>75.67</course>
  <speed>0.0</speed>
  <fix>3d</fix>
</trkpt>
<trkpt lat="-27.2744393" lon="151.2900671">
  <ele>343.1</ele>
  <time>2026-09-01T19:53:23Z</time>
  <course>142.68</course>
  <speed>0.0</speed>
  <fix>3d</fix>
</trkpt>
<trkpt lat="-27.2744393" lon="151.290067">
  <ele>343.1</ele>
  <time>2026-09-01T19:53:23Z</time>
  <course>75.67</course>
  <speed>0.0</speed>
  <fix>3d</fix>
</trkpt>
<trkpt lat="-27.2744393" lon="151.2900671">
  <ele>343.1</ele>
  <time>2026-09-01T19:53:23Z</time>
  <course>321.21</course>
  <speed>0.0</speed>
  <fix>3d</fix>
</trkpt>
<trkpt lat="-27.2744393" lon="151.290067">
  <ele>343.1</ele>
  <time>2026-09-01T19:53:23Z</time>
  <course>75.67</course>
  <speed>0.0</speed>
  <fix>3d</fix>
</trkpt>
<trkpt lat="-27.2744393" lon="151.2900671">
  <ele>343.1</ele>
  <time>2026-09-01T19:53:23Z</time>
  <course>321.21</course>
  <speed>0.0</speed>
  <fix>3d</fix>
</trkpt>
<trkpt lat="-27.2744393" lon="151.290067">
  <ele>343.11</ele>
  <time>2026-09-01T19:53:23Z</time>
  <course>75.67</course>
  <speed>0.0</speed>
  <fix>3d</fix>
</trkpt>
<trkpt lat="-27.2744393" lon="151.2900671">
  <ele>343.1</ele>
  <time>2026-09-01T19:53:23Z</time>
  <course>49.53</course>
  <speed>0.0</speed>
  <fix>3d</fix>
</trkpt>
<trkpt lat="-27.2744393" lon="151.290067">
  <ele>343.11</ele>
  <time>2026-09-01T19:53:23Z</time>
  <course>75.68</course>
  <speed>0.0</speed>
  <fix>3d</fix>
</trkpt>
<trkpt lat="-27.2744393" lon="151.2900671">
  <ele>343.1</ele>
  <time>2026-09-01T19:53:23Z</time>
  <course>49.53</course>
  <speed>0.0</speed>
  <fix>3d</fix>
</trkpt>
<trkpt lat="-27.2744393" lon="151.290067">
  <ele>343.12</ele>
  <time>2026-09-01T19:53:23Z</time>
  <course>75.68</course>
  <speed>0.0</speed>
  <fix>3d</fix>
</trkpt>
<trkpt lat="-27.2744393" lon="151.2900671">
  <ele>343.1</ele>
  <time>2026-09-01T19:53:23Z</time>
  <course>141.36</course>
  <speed>0.0</speed>
  <fix>3d</fix>
</trkpt>
<trkpt lat="-27.2744393" lon="151.290067">
  <ele>343.12</ele>
  <time>2026-09-01T19:53:23Z</time>
  <course>75.68</course>
  <speed>0.0</speed>
  <fix>3d</fix>
</trkpt>
<trkpt lat="-27.2744393" lon="151.2900671">
  <ele>343.1</ele>
  <time>2026-09-01T19:53:23Z</time>
  <course>141.36</course>
  <speed>0.0</speed>
  <fix>3d</fix>
</trkpt>
<trkpt lat="-27.2744393" lon="151.290067">
  <ele>343.13</ele>
  <time>2026-09-01T19:53:23Z</time>
  <course>75.69</course>
  <speed>0.0</speed>
  <fix>3d</fix>
</trkpt>
<trkpt lat="-27.2744393" lon="151.2900671">
  <ele>343.1</ele>
  <time>2026-09-01T19:53:23Z</time>
  <course>319.92</course>
  <speed>0.0</speed>
  <fix>3d</fix>
</trkpt>
<trkpt lat="-27.2744393" lon="151.290067">
  <ele>343.13</ele>
  <time>2026-09-01T19:53:23Z</time>
  <course>75.69</course>
  <speed>0.0</speed>
  <fix>3d</fix>
</trkpt>
<trkpt lat="-27.2744393" lon="151.2900671">
  <ele>343.1</ele>
  <time>2026-09-01T19:53:23Z</time>
  <course>319.92</course>
  <speed>0.0</speed>
  <fix>3d</fix>
</trkpt>
<trkpt lat="-27.2744393" lon="151.290067">
  <ele>343.13</ele>
  <time>2026-09-01T19:53:23Z</time>
  <course>75.69</course>
  <speed>0.0</speed>
  <fix>3d</fix>
</trkpt>
<trkpt lat="-27.2744393" lon="151.2900671">
  <ele>343.1</ele>
  <time>2026-09-01T19:53:23Z</time>
  <course>321.54</course>
  <speed>0.0</speed>
  <fix>3d</fix>
</trkpt>
<trkpt lat="-27.2744393" lon="151.290067">
  <ele>343.14</ele>
  <time>2026-09-01T19:53:23Z</time>
  <course>75.7</course>
  <speed>0.0</speed>
  <fix>3d</fix>
</trkpt>
<trkpt lat="-27.2744393" lon="151.2900671">
  <ele>343.1</ele>
  <time>2026-09-01T19:53:23Z</time>
  <course>321.54</course>
  <speed>0.0</speed>
  <fix>3d</fix>
</trkpt>
<trkpt lat="-27.2744393" lon="151.290067">
  <ele>343.14</ele>
  <time>2026-09-01T19:53:23Z</time>
  <course>75.7</course>
  <speed>0.0</speed>
  <fix>3d</fix>
</trkpt>
<trkpt lat="-27.2744393" lon="151.2900671">
  <ele>343.1</ele>
  <time>2026-09-01T19:53:23Z</time>
  <course>140.68</course>
  <speed>0.0</speed>
  <fix>3d</fix>
</trkpt>
<trkpt lat="-27.2744393" lon="151.290067">
  <ele>343.15</ele>
  <time>2026-09-01T19:53:23Z</time>
  <course>75.7</course>
  <speed>0.0</speed>
  <fix>3d</fix>
</trkpt>
<trkpt lat="-27.2744393" lon="151.2900671">
  <ele>343.1</ele>
  <time>2026-09-01T19:53:23Z</time>
  <course>140.68</course>
  <speed>0.0</speed>
  <fix>3d</fix>
</trkpt>
<trkpt lat="-27.2744393" lon="151.290067">
  <ele>343.15</ele>
  <time>2026-09-01T19:53:23Z</time>
  <course>75.71</course>
  <speed>0.0</speed>
  <fix>3d</fix>
</trkpt>
<trkpt lat="-27.2744393" lon="151.2900671">
  <ele>343.1</ele>
  <time>2026-09-01T19:53:23Z</time>
  <course>141.79</course>
  <speed>0.0</speed>
  <fix>3d</fix>
</trkpt>
<trkpt lat="-27.2744393" lon="151.290067">
  <ele>343.15</ele>
  <time>2026-09-01T19:53:23Z</time>
  <course>75.71</course>
  <speed>0.0</speed>
  <fix>3d</fix>
</trkpt>
<trkpt lat="-27.2744393" lon="151.2900671">
  <ele>343.1</ele>
  <time>2026-09-01T19:53:23Z</time>
  <course>141.79</course>
  <speed>0.0</speed>
  <fix>3d</fix>
</trkpt>
<trkpt lat="-27.2744393" lon="151.290067">
  <ele>343.15</ele>
  <time>2026-09-01T19:53:23Z</time>
  <course>75.71</course>
  <speed>0.0</speed>
  <fix>3d</fix>
</trkpt>
<trkpt lat="-27.2744393" lon="151.2900671">
  <ele>343.1</ele>
  <time>2026-09-01T19:53:23Z</time>
  <course>320.97</course>
  <speed>0.0</speed>
  <fix>3d</fix>
</trkpt>
<trkpt lat="-27.2744393" lon="151.290067">
  <ele>343.16</ele>
  <time>2026-09-01T19:53:23Z</time>
  <course>75.71</course>
  <speed>0.0</speed>
  <fix>3d</fix>
</trkpt>
<trkpt lat="-27.2744393" lon="151.2900671">
  <ele>343.1</ele>
  <time>2026-09-01T19:53:23Z</time>
  <course>320.97</course>
  <speed>0.0</speed>
  <fix>3d</fix>
</trkpt>
<trkpt lat="-27.2744393" lon="151.290067">
  <ele>343.16</ele>
  <time>2026-09-01T19:53:23Z</time>
  <course>75.72</course>
  <speed>0.0</speed>
  <fix>3d</fix>
</trkpt>
<trkpt lat="-27.2744393" lon="151.2900671">
  <ele>343.1</ele>
  <time>2026-09-01T19:53:23Z</time>
  <course>322.33</course>
  <speed>0.0</speed>
  <fix>3d</fix>
</trkpt>
<trkpt lat="-27.2744393" lon="151.290067">
  <ele>343.17</ele>
  <time>2026-09-01T19:53:23Z</time>
  <course>75.72</course>
  <speed>0.0</speed>
  <fix>3d</fix>
</trkpt>
<trkpt lat="-27.2744393" lon="151.2900671">
  <ele>343.1</ele>
  <time>2026-09-01T19:53:23Z</time>
  <course>322.33</course>
  <speed>0.0</speed>
  <fix>3d</fix>
</trkpt>
<trkpt lat="-27.2744393" lon="151.290067">
  <ele>343.19</ele>
  <time>2026-09-01T19:53:23Z</time>
  <course>75.73</course>
  <speed>0.0</speed>
  <fix>3d</fix>
</trkpt>
<trkpt lat="-27.2744393" lon="151.2900671">
  <ele>343.1</ele>
  <time>2026-09-01T19:53:23Z</time>
  <course>146.11</course>
  <speed>0.0</speed>
  <fix>3d</fix>
</trkpt>
<trkpt lat="-27.2744393" lon="151.290067">
  <ele>343.21</ele>
  <time>2026-09-01T19:53:23Z</time>
  <course>75.75</course>
  <speed>0.0</speed>
  <fix>3d</fix>
</trkpt>
<trkpt lat="-27.2744393" lon="151.2900671">
  <ele>343.1</ele>
  <time>2026-09-01T19:53:23Z</time>
  <course>139.3</course>
  <speed>0.0</speed>
  <fix>3d</fix>
</trkpt>
<trkpt lat="-27.2744393" lon="151.2900671">
  <ele>343.21</ele>
  <time>2026-09-01T19:53:23Z</time>
  <course>75.75</course>
  <speed>0.0</speed>
  <fix>3d</fix>
</trkpt>
<trkpt lat="-27.2744393" lon="151.2900671">
  <ele>343.1</ele>
  <time>2026-09-01T19:53:23Z</time>
  <course>141.5</course>
  <speed>0.0</speed>
  <fix>3d</fix>
</trkpt>
<trkpt lat="-27.2744393" lon="151.2900671">
  <ele>343.21</ele>
  <time>2026-09-01T19:53:23Z</time>
  <course>75.75</course>
  <speed>0.0</speed>
  <fix>3d</fix>
</trkpt>
<trkpt lat="-27.2744393" lon="151.2900671">
  <ele>343.1</ele>
  <time>2026-09-01T19:53:23Z</time>
  <course>141.5</course>
  <speed>0.0</speed>
  <fix>3d</fix>
</trkpt>
<trkpt lat="-27.2744393" lon="151.2900671">
  <ele>343.22</ele>
  <time>2026-09-01T19:53:23Z</time>
  <course>75.76</course>
  <speed>0.0</speed>
  <fix>3d</fix>
</trkpt>
<trkpt lat="-27.2744393" lon="151.2900671">
  <ele>343.1</ele>
  <time>2026-09-01T19:53:23Z</time>
  <course>320.56</course>
  <speed>0.0</speed>
  <fix>3d</fix>
</trkpt>
<trkpt lat="-27.2744393" lon="151.2900671">
  <ele>343.22</ele>
  <time>2026-09-01T19:53:23Z</time>
  <course>75.76</course>
  <speed>0.0</speed>
  <fix>3d</fix>
</trkpt>
<trkpt lat="-27.2744393" lon="151.2900671">
  <ele>343.1</ele>
  <time>2026-09-01T19:53:23Z</time>
  <course>320.56</course>
  <speed>0.0</speed>
  <fix>3d</fix>
</trkpt>
<trkpt lat="-27.2744393" lon="151.2900671">
  <ele>343.22</ele>
  <time>2026-09-01T19:53:23Z</time>
  <course>75.76</course>
  <speed>0.0</speed>
  <fix>3d</fix>
</trkpt>
<trkpt lat="-27.2744393" lon="151.2900671">
  <ele>343.1</ele>
  <time>2026-09-01T19:53:23Z</time>
  <course>321.74</course>
  <speed>0.0</speed>
  <fix>3d</fix>
</trkpt>
<trkpt lat="-27.2744393" lon="151.2900671">
  <ele>343.22</ele>
  <time>2026-09-01T19:53:23Z</time>
  <course>75.77</course>
  <speed>0.0</speed>
  <fix>3d</fix>
</trkpt>
<trkpt lat="-27.2744393" lon="151.2900671">
  <ele>343.1</ele>
  <time>2026-09-01T19:53:23Z</time>
  <course>321.74</course>
  <speed>0.0</speed>
  <fix>3d</fix>
</trkpt>
<trkpt lat="-27.2744393" lon="151.2900671">
  <ele>343.22</ele>
  <time>2026-09-01T19:53:23Z</time>
  <course>75.77</course>
  <speed>0.0</speed>
  <fix>3d</fix>
</trkpt>
<trkpt lat="-27.2744393" lon="151.2900671">
  <ele>343.1</ele>
  <time>2026-09-01T19:53:23Z</time>
  <course>140.33</course>
  <speed>0.0</speed>
  <fix>3d</fix>
</trkpt>
<trkpt lat="-27.2744393" lon="151.2900671">
  <ele>343.1</ele>
  <time>2026-09-01T19:53:23Z</time>
  <course>75.25</course>
  <speed>0.0</speed>
  <fix>3d</fix>
</trkpt>
<trkpt lat="-27.2744393" lon="151.2900671">
  <ele>343.1</ele>
  <time>2026-09-01T19:53:23Z</time>
  <course>140.33</course>
  <speed>0.0</speed>
  <fix>3d</fix>
</trkpt>
<trkpt lat="-27.2744393" lon="151.2900671">
  <ele>343.1</ele>
  <time>2026-09-01T19:53:23Z</time>
  <course>75.25</course>
  <speed>0.0</speed>
  <fix>3d</fix>
</trkpt>
<trkpt lat="-27.2744393" lon="151.2900671">
  <ele>343.1</ele>
  <time>2026-09-01T19:53:23Z</time>
  <course>143.45</course>
  <speed>0.0</speed>
  <fix>3d</fix>
</trkpt>
<trkpt lat="-27.2744393" lon="151.2900671">
  <ele>343.1</ele>
  <time>2026-09-01T19:53:23Z</time>
  <course>75.25</course>
  <speed>0.0</speed>
  <fix>3d</fix>
</trkpt>
<trkpt lat="-27.2744393" lon="151.2900671">
  <ele>343.1</ele>
  <time>2026-09-01T19:53:23Z</time>
  <course>143.45</course>
  <speed>0.0</speed>
  <fix>3d</fix>
</trkpt>
<trkpt lat="-27.2744393" lon="151.2900671">
  <ele>343.1</ele>
  <time>2026-09-01T19:53:23Z</time>
  <course>75.25</course>
  <speed>0.0</speed>
  <fix>3d</fix>
</trkpt>
<trkpt lat="-27.2744393" lon="151.2900671">
  <ele>343.1</ele>
  <time>2026-09-01T19:53:23Z</time>
  <course>314.33</course>
  <speed>0.0</speed>
  <fix>3d</fix>
</trkpt>
<trkpt lat="-27.2744393" lon="151.2900671">
  <ele>343.1</ele>
  <time>2026-09-01T19:53:23Z</time>
  <course>75.25</course>
  <speed>0.0</speed>
  <fix>3d</fix>
</trkpt>
<trkpt lat="-27.2744393" lon="151.2900671">
  <ele>343.1</ele>
  <time>2026-09-01T19:53:23Z</time>
  <course>314.33</course>
  <speed>0.0</speed>
  <fix>3d</fix>
</trkpt>
<trkpt lat="-27.2744393" lon="151.2900671">
  <ele>343.1</ele>
  <time>2026-09-01T19:53:23Z</time>
  <course>75.25</course>
  <speed>0.0</speed>
  <fix>3d</fix>
</trkpt>
<trkpt lat="-27.2744393" lon="151.2900671">
  <ele>343.1</ele>
  <time>2026-09-01T19:53:23Z</time>
  <course>314.92</course>
  <speed>0.0</speed>
  <fix>3d</fix>
</trkpt>
<trkpt lat="-27.2744393" lon="151.2900671">
  <ele>343.1</ele>
  <time>2026-09-01T19:53:23Z</time>
  <course>75.25</course>
  <speed>0.0</speed>
  <fix>3d</fix>
</trkpt>
<trkpt lat="-27.2744393" lon="151.2900671">
  <ele>343.1</ele>
  <time>2026-09-01T19:53:23Z</time>
  <course>314.92</course>
  <speed>0.0</speed>
  <fix>3d</fix>
</trkpt>
<trkpt lat="-27.2744393" lon="151.2900671">
  <ele>343.1</ele>
  <time>2026-09-01T19:53:23Z</time>
  <course>75.25</course>
  <speed>0.0</speed>
  <fix>3d</fix>
</trkpt>
<trkpt lat="-27.2744393" lon="151.2900671">
  <ele>343.1</ele>
  <time>2026-09-01T19:53:23Z</time>
  <course>314.99</course>
  <speed>0.0</speed>
  <fix>3d</fix>
</trkpt>
<trkpt lat="-27.2744393" lon="151.2900671">
  <ele>343.1</ele>
  <time>2026-09-01T19:53:23Z</time>
  <course>75.25</course>
  <speed>0.0</speed>
  <fix>3d</fix>
</trkpt>
<trkpt lat="-27.2744393" lon="151.2900671">
  <ele>343.1</ele>
  <time>2026-09-01T19:53:23Z</time>
  <course>314.99</course>
  <speed>0.0</speed>
  <fix>3d</fix>
</trkpt>
<trkpt lat="-27.2744393" lon="151.2900671">
  <ele>343.1</ele>
  <time>2026-09-01T19:53:23Z</time>
  <course>75.25</course>
  <speed>0.0</speed>
  <fix>3d</fix>
</trkpt>
<trkpt lat="-27.2744393" lon="151.2900671">
  <ele>343.1</ele>
  <time>2026-09-01T19:53:23Z</time>
  <course>314.99</course>
  <speed>0.0</speed>
  <fix>3d</fix>
</trkpt>
<trkpt lat="-27.2744393" lon="151.2900671">
  <ele>343.1</ele>
  <time>2026-09-01T19:53:23Z</time>
  <course>75.25</course>
  <speed>0.0</speed>
  <fix>3d</fix>
</trkpt>
<trkpt lat="-27.2744393" lon="151.2900671">
  <ele>343.1</ele>
  <time>2026-09-01T19:53:23Z</time>
  <course>314.99</course>
  <speed>0.0</speed>
  <fix>3d</fix>
</trkpt>
<trkpt lat="-27.2744393" lon="151.2900671">
  <ele>343.1</ele>
  <time>2026-09-01T19:53:23Z</time>
  <course>75.25</course>
  <speed>0.0</speed>
  <fix>3d</fix>
</trkpt>
<trkpt lat="-27.2744393" lon="151.2900671">
  <ele>343.1</ele>
  <time>2026-09-01T19:53:23Z</time>
  <course>314.99</course>
  <speed>0.0</speed>
  <fix>3d</fix>
</trkpt>
<trkpt lat="-27.2744393" lon="151.2900671">
  <ele>343.1</ele>
  <time>2026-09-01T19:53:23Z</time>
  <course>75.25</course>
  <speed>0.0</speed>
  <fix>3d</fix>
</trkpt>
<trkpt lat="-27.2744393" lon="151.2900671">
  <ele>343.1</ele>
  <time>2026-09-01T19:53:23Z</time>
  <course>314.99</course>
  <speed>0.0</speed>
  <fix>3d</fix>
</trkpt>
<trkpt lat="-27.2744393" lon="151.2900671">
  <ele>343.1</ele>
  <time>2026-09-01T19:53:23Z</time>
  <course>75.25</course>
  <speed>0.0</speed>
  <fix>3d</fix>
</trkpt>
<trkpt lat="-27.2744393" lon="151.2900671">
  <ele>343.1</ele>
  <time>2026-09-01T19:53:23Z</time>
  <course>314.99</course>
  <speed>0.0</speed>
  <fix>3d</fix>
</trkpt>
<trkpt lat="-27.2744393" lon="151.2900671">
  <ele>343.1</ele>
  <time>2026-09-01T19:53:23Z</time>
  <course>75.25</course>
  <speed>0.0</speed>
  <fix>3d</fix>
</trkpt>
<trkpt lat="-27.2744393" lon="151.2900671">
  <ele>343.1</ele>
  <time>2026-09-01T19:53:23Z</time>
  <course>314.99</course>
  <speed>0.0</speed>
  <fix>3d</fix>
</trkpt>
<trkpt lat="-27.2744393" lon="151.2900671">
  <ele>343.1</ele>
  <time>2026-09-01T19:53:23Z</time>
  <course>75.25</course>
  <speed>0.0</speed>
  <fix>3d</fix>
</trkpt>
<trkpt lat="-27.2744393" lon="151.2900671">
  <ele>343.1</ele>
  <time>2026-09-01T19:53:23Z</time>
  <course>315.0</course>
  <speed>0.0</speed>
  <fix>3d</fix>
</trkpt>
<trkpt lat="-27.2744393" lon="151.2900671">
  <ele>343.1</ele>
  <time>2026-09-01T19:53:23Z</time>
  <course>75.25</course>
  <speed>0.0</speed>
  <fix>3d</fix>
</trkpt>
<trkpt lat="-27.2744393" lon="151.2900671">
  <ele>343.1</ele>
  <time>2026-09-01T19:53:23Z</time>
  <course>315.0</course>
  <speed>0.0</speed>
  <fix>3d</fix>
</trkpt>
<trkpt lat="-27.2744393" lon="151.2900671">
  <ele>343.1</ele>
  <time>2026-09-01T19:53:23Z</time>
  <course>75.25</course>
  <speed>0.0</speed>
  <fix>3d</fix>
</trkpt>
<trkpt lat="-27.2744393" lon="151.2900671">
  <ele>343.1</ele>
  <time>2026-09-01T19:53:23Z</time>
  <course>315.0</course>
  <speed>0.0</speed>
  <fix>3d</fix>
</trkpt>
<trkpt lat="-27.2744396" lon="151.2900639">
  <ele>343.1</ele>
  <time>2026-09-01T19:53:24Z</time>
  <course>8.0</course>
  <speed>0.0</speed>
  <fix>3d</fix>
</trkpt>
<trkpt lat="-27.2744395" lon="151.290064">
  <ele>343.1</ele>
  <time>2026-09-01T19:53:24Z</time>
  <course>8.0</course>
  <speed>0.1711724276862369</speed>
  <fix>3d</fix>
</trkpt>
<trkpt lat="-27.2744393" lon="151.290064">
  <ele>343.1</ele>
  <time>2026-09-01T19:53:24Z</time>
  <course>8.0</course>
  <speed>0.27166155414412246</speed>
  <fix>3d</fix>
</trkpt>
<trkpt lat="-27.2744391" lon="151.290064">
  <ele>343.1</ele>
  <time>2026-09-01T19:53:24Z</time>
  <course>8.0</course>
  <speed>0.18110770276274835</speed>
  <fix>3d</fix>
</trkpt>
<trkpt lat="-27.274439" lon="151.290064">
  <ele>343.1</ele>
  <time>2026-09-01T19:53:24Z</time>
  <course>8.0</course>
  <speed>0.05</speed>
  <fix>3d</fix>
</trkpt>
<trkpt lat="-27.274439" lon="151.290064">
  <ele>343.1</ele>
  <time>2026-09-01T19:53:24Z</time>
  <course>8.0</course>
  <speed>0.02</speed>
  <fix>3d</fix>
</trkpt>
<trkpt lat="-27.274439" lon="151.290064">
  <ele>343.1</ele>
  <time>2026-09-01T19:53:24Z</time>
  <course>8.0</course>
  <speed>0.03</speed>
  <fix>3d</fix>
</trkpt>
<trkpt lat="-27.274439" lon="151.290064">
  <ele>343.1</ele>
  <time>2026-09-01T19:53:24Z</time>
  <course>8.0</course>
  <speed>0.02</speed>
  <fix>3d</fix>
</trkpt>
<trkpt lat="-27.274439" lon="151.290064">
  <ele>343.1</ele>
  <time>2026-09-01T19:53:24Z</time>
  <course>8.0</course>
  <speed>0.0</speed>
  <fix>3d</fix>
</trkpt>
<trkpt lat="-27.274439" lon="151.290064">
  <ele>343.1</ele>
  <time>2026-09-01T19:53:24Z</time>
  <course>8.0</course>
  <speed>0.0</speed>
  <fix>3d</fix>
</trkpt>
<trkpt lat="-27.274439" lon="151.290064">
  <ele>343.1</ele>
  <time>2026-09-01T19:53:24Z</time>
  <course>8.0</course>
  <speed>0.0</speed>
  <fix>3d</fix>
</trkpt>
<trkpt lat="-27.274439" lon="151.290064">
  <ele>343.1</ele>
  <time>2026-09-01T19:53:24Z</time>
  <course>8.0</course>
  <speed>0.0</speed>
  <fix>3d</fix>
</trkpt>
<trkpt lat="-27.274439" lon="151.290064">
  <ele>343.1</ele>
  <time>2026-09-01T19:53:24Z</time>
  <course>8.0</course>
  <speed>0.0</speed>
  <fix>3d</fix>
</trkpt>
<trkpt lat="-27.274439" lon="151.290064">
  <ele>343.1</ele>
  <time>2026-09-01T19:53:24Z</time>
  <course>8.0</course>
  <speed>0.0</speed>
  <fix>3d</fix>
</trkpt>
<trkpt lat="-27.274439" lon="151.290064">
  <ele>343.1</ele>
  <time>2026-09-01T19:53:24Z</time>
  <course>8.0</course>
  <speed>0.0</speed>
  <fix>3d</fix>
</trkpt>
<trkpt lat="-27.274439" lon="151.290064">
  <ele>343.1</ele>
  <time>2026-09-01T19:53:24Z</time>
  <course>8.0</course>
  <speed>0.0</speed>
  <fix>3d</fix>
</trkpt>
<trkpt lat="-27.274439" lon="151.290064">
  <ele>343.1</ele>
  <time>2026-09-01T19:53:24Z</time>
  <course>8.0</course>
  <speed>0.0</speed>
  <fix>3d</fix>
</trkpt>
<trkpt lat="-27.274439" lon="151.290064">
  <ele>343.1</ele>
  <time>2026-09-01T19:53:24Z</time>
  <course>8.0</course>
  <speed>0.0</speed>
  <fix>3d</fix>
</trkpt>
<trkpt lat="-27.274439" lon="151.290064">
  <ele>343.1</ele>
  <time>2026-09-01T19:53:24Z</time>
  <course>8.0</course>
  <speed>0.0</speed>
  <fix>3d</fix>
</trkpt>
<trkpt lat="-27.274439" lon="151.290064">
  <ele>343.1</ele>
  <time>2026-09-01T19:53:24Z</time>
  <course>8.0</course>
  <speed>0.0</speed>
  <fix>3d</fix>
</trkpt>
<trkpt lat="-27.274439" lon="151.290064">
  <ele>343.1</ele>
  <time>2026-09-01T19:53:24Z</time>
  <course>8.0</course>
  <speed>0.0</speed>
  <fix>3d</fix>
</trkpt>
<trkpt lat="-27.274439" lon="151.290064">
  <ele>343.1</ele>
  <time>2026-09-01T19:53:24Z</time>
  <course>8.0</course>
  <speed>0.0</speed>
  <fix>3d</fix>
</trkpt>
<trkpt lat="-27.274439" lon="151.290064">
  <ele>343.1</ele>
  <time>2026-09-01T19:53:24Z</time>
  <course>8.0</course>
  <speed>0.0</speed>
  <fix>3d</fix>
</trkpt>
<trkpt lat="-27.274439" lon="151.290064">
  <ele>343.1</ele>
  <time>2026-09-01T19:53:24Z</time>
  <course>8.0</course>
  <speed>0.0</speed>
  <fix>3d</fix>
</trkpt>
<trkpt lat="-27.274439" lon="151.290064">
  <ele>343.1</ele>
  <time>2026-09-01T19:53:24Z</time>
  <course>8.0</course>
  <speed>0.0</speed>
  <fix>3d</fix>
</trkpt>
<trkpt lat="-27.274439" lon="151.290064">
  <ele>343.1</ele>
  <time>2026-09-01T19:53:24Z</time>
  <course>8.0</course>
  <speed>0.0</speed>
  <fix>3d</fix>
</trkpt>
<trkpt lat="-27.274439" lon="151.290064">
  <ele>343.1</ele>
  <time>2026-09-01T19:53:24Z</time>
  <course>8.0</course>
  <speed>0.0</speed>
  <fix>3d</fix>
</trkpt>
<trkpt lat="-27.274439" lon="151.290064">
  <ele>343.1</ele>
  <time>2026-09-01T19:53:24Z</time>
  <course>8.0</course>
  <speed>0.0</speed>
  <fix>3d</fix>
</trkpt>
<trkpt lat="-27.274439" lon="151.290064">
  <ele>343.1</ele>
  <time>2026-09-01T19:53:24Z</time>
  <course>8.0</course>
  <speed>0.0</speed>
  <fix>3d</fix>
</trkpt>
<trkpt lat="-27.274439" lon="151.290064">
  <ele>343.1</ele>
  <time>2026-09-01T19:53:24Z</time>
  <course>8.0</course>
  <speed>0.0</speed>
  <fix>3d</fix>
</trkpt>
<trkpt lat="-27.274439" lon="151.290064">
  <ele>343.1</ele>
  <time>2026-09-01T19:53:24Z</time>
  <course>8.0</course>
  <speed>0.0</speed>
  <fix>3d</fix>
</trkpt>
<trkpt lat="-27.274439" lon="151.290064">
  <ele>343.1</ele>
  <time>2026-09-01T19:53:24Z</time>
  <course>8.0</course>
  <speed>0.0</speed>
  <fix>3d</fix>
</trkpt>
<trkpt lat="-27.274439" lon="151.290064">
  <ele>343.1</ele>
  <time>2026-09-01T19:53:24Z</time>
  <course>8.0</course>
  <speed>0.0</speed>
  <fix>3d</fix>
</trkpt>
<trkpt lat="-27.274439" lon="151.290064">
  <ele>343.1</ele>
  <time>2026-09-01T19:53:24Z</time>
  <course>8.0</course>
  <speed>0.0</speed>
  <fix>3d</fix>
</trkpt>
<trkpt lat="-27.274439" lon="151.290064">
  <ele>343.1</ele>
  <time>2026-09-01T19:53:24Z</time>
  <course>8.0</course>
  <speed>0.0</speed>
  <fix>3d</fix>
</trkpt>
<trkpt lat="-27.274439" lon="151.290064">
  <ele>343.1</ele>
  <time>2026-09-01T19:53:24Z</time>
  <course>8.0</course>
  <speed>0.0</speed>
  <fix>3d</fix>
</trkpt>
<trkpt lat="-27.274439" lon="151.290064">
  <ele>343.1</ele>
  <time>2026-09-01T19:53:24Z</time>
  <course>8.0</course>
  <speed>0.0</speed>
  <fix>3d</fix>
</trkpt>
<trkpt lat="-27.274439" lon="151.290064">
  <ele>343.1</ele>
  <time>2026-09-01T19:53:24Z</time>
  <course>8.0</course>
  <speed>0.0</speed>
  <fix>3d</fix>
</trkpt>
<trkpt lat="-27.274439" lon="151.290064">
  <ele>343.1</ele>
  <time>2026-09-01T19:53:24Z</time>
  <course>8.0</course>
  <speed>0.0</speed>
  <fix>3d</fix>
</trkpt>
<trkpt lat="-27.274439" lon="151.290064">
  <ele>343.1</ele>
  <time>2026-09-01T19:53:24Z</time>
  <course>8.0</course>
  <speed>0.0</speed>
  <fix>3d</fix>
</trkpt>
<trkpt lat="-27.274439" lon="151.290064">
  <ele>343.1</ele>
  <time>2026-09-01T19:53:24Z</time>
  <course>8.0</course>
  <speed>0.0</speed>
  <fix>3d</fix>
</trkpt>
<trkpt lat="-27.274439" lon="151.290064">
  <ele>343.1</ele>
  <time>2026-09-01T19:53:24Z</time>
  <course>8.0</course>
  <speed>0.0</speed>
  <fix>3d</fix>
</trkpt>
<trkpt lat="-27.274439" lon="151.290064">
  <ele>343.1</ele>
  <time>2026-09-01T19:53:24Z</time>
  <course>8.0</course>
  <speed>0.0</speed>
  <fix>3d</fix>
</trkpt>
<trkpt lat="-27.274439" lon="151.290064">
  <ele>343.1</ele>
  <time>2026-09-01T19:53:24Z</time>
  <course>8.0</course>
  <speed>0.0</speed>
  <fix>3d</fix>
</trkpt>
<trkpt lat="-27.274439" lon="151.290064">
  <ele>343.1</ele>
  <time>2026-09-01T19:53:24Z</time>
  <course>8.0</course>
  <speed>0.0</speed>
  <fix>3d</fix>
</trkpt>
<trkpt lat="-27.274439" lon="151.290064">
  <ele>343.1</ele>
  <time>2026-09-01T19:53:24Z</time>
  <course>8.0</course>
  <speed>0.0</speed>
  <fix>3d</fix>
</trkpt>
<trkpt lat="-27.274439" lon="151.290064">
  <ele>343.1</ele>
  <time>2026-09-01T19:53:24Z</time>
  <course>8.0</course>
  <speed>0.0</speed>
  <fix>3d</fix>
</trkpt>
<trkpt lat="-27.274439" lon="151.290064">
  <ele>343.1</ele>
  <time>2026-09-01T19:53:24Z</time>
  <course>8.0</course>
  <speed>0.0</speed>
  <fix>3d</fix>
</trkpt>
<trkpt lat="-27.274439" lon="151.290064">
  <ele>343.1</ele>
  <time>2026-09-01T19:53:24Z</time>
  <course>8.0</course>
  <speed>0.0</speed>
  <fix>3d</fix>
</trkpt>
<trkpt lat="-27.274439" lon="151.290064">
  <ele>343.1</ele>
  <time>2026-09-01T19:53:24Z</time>
  <course>8.0</course>
  <speed>0.0</speed>
  <fix>3d</fix>
</trkpt>
<trkpt lat="-27.274439" lon="151.290064">
  <ele>343.1</ele>
  <time>2026-09-01T19:53:24Z</time>
  <course>8.0</course>
  <speed>0.0</speed>
  <fix>3d</fix>
</trkpt>
<trkpt lat="-27.274439" lon="151.290064">
  <ele>343.1</ele>
  <time>2026-09-01T19:53:24Z</time>
  <course>8.0</course>
  <speed>0.0</speed>
  <fix>3d</fix>
</trkpt>
<trkpt lat="-27.274439" lon="151.290064">
  <ele>343.1</ele>
  <time>2026-09-01T19:53:24Z</time>
  <course>8.0</course>
  <speed>0.0</speed>
  <fix>3d</fix>
</trkpt>
<trkpt lat="-27.274439" lon="151.290064">
  <ele>343.1</ele>
  <time>2026-09-01T19:53:24Z</time>
  <course>8.0</course>
  <speed>0.0</speed>
  <fix>3d</fix>
</trkpt>
<trkpt lat="-27.274439" lon="151.290064">
  <ele>343.1</ele>
  <time>2026-09-01T19:53:24Z</time>
  <course>8.0</course>
  <speed>0.0</speed>
  <fix>3d</fix>
</trkpt>
<trkpt lat="-27.274439" lon="151.290064">
  <ele>343.1</ele>
  <time>2026-09-01T19:53:24Z</time>
  <course>8.0</course>
  <speed>0.0</speed>
  <fix>3d</fix>
</trkpt>
<trkpt lat="-27.274439" lon="151.290064">
  <ele>343.1</ele>
  <time>2026-09-01T19:53:24Z</time>
  <course>8.0</course>
  <speed>0.0</speed>
  <fix>3d</fix>
</trkpt>
<trkpt lat="-27.274439" lon="151.290064">
  <ele>343.1</ele>
  <time>2026-09-01T19:53:24Z</time>
  <course>8.0</course>
  <speed>0.0</speed>
  <fix>3d</fix>
</trkpt>
<trkpt lat="-27.274439" lon="151.290064">
  <ele>343.1</ele>
  <time>2026-09-01T19:53:24Z</time>
  <course>8.0</course>
  <speed>0.0</speed>
  <fix>3d</fix>
</trkpt>
<trkpt lat="-27.274439" lon="151.290064">
  <ele>343.1</ele>
  <time>2026-09-01T19:53:24Z</time>
  <course>8.0</course>
  <speed>0.0</speed>
  <fix>3d</fix>
</trkpt>
<trkpt lat="-27.274439" lon="151.290064">
  <ele>343.1</ele>
  <time>2026-09-01T19:53:24Z</time>
  <course>8.0</course>
  <speed>0.0</speed>
  <fix>3d</fix>
</trkpt>
<trkpt lat="-27.274439" lon="151.290064">
  <ele>343.1</ele>
  <time>2026-09-01T19:53:24Z</time>
  <course>8.0</course>
  <speed>0.0</speed>
  <fix>3d</fix>
</trkpt>
<trkpt lat="-27.274439" lon="151.290064">
  <ele>343.1</ele>
  <time>2026-09-01T19:53:24Z</time>
  <course>8.0</course>
  <speed>0.0</speed>
  <fix>3d</fix>
</trkpt>
<trkpt lat="-27.274439" lon="151.290064">
  <ele>343.1</ele>
  <time>2026-09-01T19:53:24Z</time>
  <course>8.0</course>
  <speed>0.0</speed>
  <fix>3d</fix>
</trkpt>
<trkpt lat="-27.274439" lon="151.290064">
  <ele>343.1</ele>
  <time>2026-09-01T19:53:24Z</time>
  <course>8.0</course>
  <speed>0.0</speed>
  <fix>3d</fix>
</trkpt>
<trkpt lat="-27.274439" lon="151.290064">
  <ele>343.1</ele>
  <time>2026-09-01T19:53:24Z</time>
  <course>8.0</course>
  <speed>0.0</speed>
  <fix>3d</fix>
</trkpt>
<trkpt lat="-27.274439" lon="151.290064">
  <ele>343.1</ele>
  <time>2026-09-01T19:53:24Z</time>
  <course>8.0</course>
  <speed>0.0</speed>
  <fix>3d</fix>
</trkpt>
<trkpt lat="-27.274439" lon="151.290064">
  <ele>343.1</ele>
  <time>2026-09-01T19:53:24Z</time>
  <course>8.0</course>
  <speed>0.0</speed>
  <fix>3d</fix>
</trkpt>
<trkpt lat="-27.274439" lon="151.290064">
  <ele>343.1</ele>
  <time>2026-09-01T19:53:24Z</time>
  <course>8.0</course>
  <speed>0.0</speed>
  <fix>3d</fix>
</trkpt>
<trkpt lat="-27.274439" lon="151.290064">
  <ele>343.1</ele>
  <time>2026-09-01T19:53:24Z</time>
  <course>8.0</course>
  <speed>0.0</speed>
  <fix>3d</fix>
</trkpt>
<trkpt lat="-27.274439" lon="151.290064">
  <ele>343.1</ele>
  <time>2026-09-01T19:53:24Z</time>
  <course>8.0</course>
  <speed>0.0</speed>
  <fix>3d</fix>
</trkpt>
<trkpt lat="-27.274439" lon="151.290064">
  <ele>343.1</ele>
  <time>2026-09-01T19:53:24Z</time>
  <course>8.0</course>
  <speed>0.0</speed>
  <fix>3d</fix>
</trkpt>
<trkpt lat="-27.274439" lon="151.290064">
  <ele>343.1</ele>
  <time>2026-09-01T19:53:24Z</time>
  <course>8.0</course>
  <speed>0.0</speed>
  <fix>3d</fix>
</trkpt>
<trkpt lat="-27.274439" lon="151.290064">
  <ele>343.1</ele>
  <time>2026-09-01T19:53:24Z</time>
  <course>8.0</course>
  <speed>0.0</speed>
  <fix>3d</fix>
</trkpt>
<trkpt lat="-27.274439" lon="151.290064">
  <ele>343.1</ele>
  <time>2026-09-01T19:53:24Z</time>
  <course>8.0</course>
  <speed>0.0</speed>
  <fix>3d</fix>
</trkpt>
<trkpt lat="-26.9720619" lon="149.6127921">
  <ele>339.29</ele>
  <time>2026-09-01T19:53:24Z</time>
  <course>289.62</course>
  <speed>0.0</speed>
  <fix>3d</fix>
</trkpt>
<trkpt lat="-27.274439" lon="151.290064">
  <ele>343.1</ele>
  <time>2026-09-01T19:53:24Z</time>
  <course>8.0</course>
  <speed>0.0</speed>
  <fix>3d</fix>
</trkpt>
<trkpt lat="-26.9720619" lon="149.6127921">
  <ele>339.29</ele>
  <time>2026-09-01T19:53:24Z</time>
  <course>289.62</course>
  <speed>0.0</speed>
  <fix>3d</fix>
</trkpt>
<trkpt lat="-27.274439" lon="151.290064">
  <ele>343.1</ele>
  <time>2026-09-01T19:53:24Z</time>
  <course>8.0</course>
  <speed>0.0</speed>
  <fix>3d</fix>
</trkpt>
<trkpt lat="-27.274439" lon="151.290064">
  <ele>343.1</ele>
  <time>2026-09-01T19:53:24Z</time>
  <course>281.16</course>
  <speed>0.0</speed>
  <fix>3d</fix>
</trkpt>
<trkpt lat="-27.274439" lon="151.290064">
  <ele>343.1</ele>
  <time>2026-09-01T19:53:24Z</time>
  <course>8.0</course>
  <speed>0.0</speed>
  <fix>3d</fix>
</trkpt>
<trkpt lat="-27.274439" lon="151.290064">
  <ele>343.1</ele>
  <time>2026-09-01T19:53:24Z</time>
  <course>281.16</course>
  <speed>0.0</speed>
  <fix>3d</fix>
</trkpt>
<trkpt lat="-27.274439" lon="151.290064">
  <ele>343.1</ele>
  <time>2026-09-01T19:53:24Z</time>
  <course>8.0</course>
  <speed>0.0</speed>
  <fix>3d</fix>
</trkpt>
<trkpt lat="-27.274439" lon="151.290064">
  <ele>343.1</ele>
  <time>2026-09-01T19:53:24Z</time>
  <course>271.47</course>
  <speed>0.0</speed>
  <fix>3d</fix>
</trkpt>
<trkpt lat="-27.274439" lon="151.290064">
  <ele>343.1</ele>
  <time>2026-09-01T19:53:24Z</time>
  <course>8.0</course>
  <speed>0.0</speed>
  <fix>3d</fix>
</trkpt>
<trkpt lat="-27.274439" lon="151.290064">
  <ele>343.1</ele>
  <time>2026-09-01T19:53:24Z</time>
  <course>271.47</course>
  <speed>0.0</speed>
  <fix>3d</fix>
</trkpt>
<trkpt lat="-27.274439" lon="151.290064">
  <ele>343.1</ele>
  <time>2026-09-01T19:53:24Z</time>
  <course>8.0</course>
  <speed>0.0</speed>
  <fix>3d</fix>
</trkpt>
<trkpt lat="-27.274439" lon="151.290064">
  <ele>343.1</ele>
  <time>2026-09-01T19:53:24Z</time>
  <course>270.19</course>
  <speed>0.0</speed>
  <fix>3d</fix>
</trkpt>
<trkpt lat="-27.274439" lon="151.290064">
  <ele>343.1</ele>
  <time>2026-09-01T19:53:24Z</time>
  <course>8.0</course>
  <speed>0.0</speed>
  <fix>3d</fix>
</trkpt>
<trkpt lat="-27.274439" lon="151.290064">
  <ele>343.1</ele>
  <time>2026-09-01T19:53:24Z</time>
  <course>270.19</course>
  <speed>0.0</speed>
  <fix>3d</fix>
</trkpt>
<trkpt lat="-27.274439" lon="151.290064">
  <ele>343.1</ele>
  <time>2026-09-01T19:53:24Z</time>
  <course>8.0</course>
  <speed>0.0</speed>
  <fix>3d</fix>
</trkpt>
<trkpt lat="-27.274439" lon="151.290064">
  <ele>343.1</ele>
  <time>2026-09-01T19:53:24Z</time>
  <course>270.02</course>
  <speed>0.0</speed>
  <fix>3d</fix>
</trkpt>
<trkpt lat="-27.274439" lon="151.290064">
  <ele>343.1</ele>
  <time>2026-09-01T19:53:24Z</time>
  <course>8.0</course>
  <speed>0.0</speed>
  <fix>3d</fix>
</trkpt>
<trkpt lat="-27.274439" lon="151.290064">
  <ele>343.1</ele>
  <time>2026-09-01T19:53:24Z</time>
  <course>270.02</course>
  <speed>0.0</speed>
  <fix>3d</fix>
</trkpt>
<trkpt lat="-27.274439" lon="151.290064">
  <ele>343.1</ele>
  <time>2026-09-01T19:53:24Z</time>
  <course>8.0</course>
  <speed>0.0</speed>
  <fix>3d</fix>
</trkpt>
<trkpt lat="-27.274439" lon="151.290064">
  <ele>343.1</ele>
  <time>2026-09-01T19:53:24Z</time>
  <course>270.0</course>
  <speed>0.0</speed>
  <fix>3d</fix>
</trkpt>
<trkpt lat="-27.274439" lon="151.290064">
  <ele>343.1</ele>
  <time>2026-09-01T19:53:24Z</time>
  <course>8.0</course>
  <speed>0.0</speed>
  <fix>3d</fix>
</trkpt>
<trkpt lat="-27.274439" lon="151.290064">
  <ele>343.1</ele>
  <time>2026-09-01T19:53:24Z</time>
  <course>270.0</course>
  <speed>0.0</speed>
  <fix>3d</fix>
</trkpt>
<trkpt lat="-27.274439" lon="151.290064">
  <ele>343.1</ele>
  <time>2026-09-01T19:53:24Z</time>
  <course>8.0</course>
  <speed>0.0</speed>
  <fix>3d</fix>
</trkpt>
<trkpt lat="-27.274439" lon="151.290064">
  <ele>343.1</ele>
  <time>2026-09-01T19:53:24Z</time>
  <course>270.0</course>
  <speed>0.0</speed>
  <fix>3d</fix>
</trkpt>
<trkpt lat="-27.274439" lon="151.290064">
  <ele>343.1</ele>
  <time>2026-09-01T19:53:24Z</time>
  <course>8.0</course>
  <speed>0.0</speed>
  <fix>3d</fix>
</trkpt>
<trkpt lat="-27.274439" lon="151.290064">
  <ele>343.1</ele>
  <time>2026-09-01T19:53:24Z</time>
  <course>270.0</course>
  <speed>0.0</speed>
  <fix>3d</fix>
</trkpt>
<trkpt lat="-27.274439" lon="151.290064">
  <ele>343.1</ele>
  <time>2026-09-01T19:53:24Z</time>
  <course>8.0</course>
  <speed>0.0</speed>
  <fix>3d</fix>
</trkpt>
<trkpt lat="-27.274439" lon="151.290064">
  <ele>343.1</ele>
  <time>2026-09-01T19:53:24Z</time>
  <course>270.0</course>
  <speed>0.0</speed>
  <fix>3d</fix>
</trkpt>
<trkpt lat="-27.274439" lon="151.290064">
  <ele>343.1</ele>
  <time>2026-09-01T19:53:24Z</time>
  <course>8.0</course>
  <speed>0.0</speed>
  <fix>3d</fix>
</trkpt>
<trkpt lat="-27.274439" lon="151.290064">
  <ele>343.1</ele>
  <time>2026-09-01T19:53:24Z</time>
  <course>270.0</course>
  <speed>0.0</speed>
  <fix>3d</fix>
</trkpt>
<trkpt lat="-27.274439" lon="151.290064">
  <ele>343.1</ele>
  <time>2026-09-01T19:53:24Z</time>
  <course>8.0</course>
  <speed>0.0</speed>
  <fix>3d</fix>
</trkpt>
<trkpt lat="-27.274439" lon="151.290064">
  <ele>343.1</ele>
  <time>2026-09-01T19:53:24Z</time>
  <course>270.0</course>
  <speed>0.0</speed>
  <fix>3d</fix>
</trkpt>
<trkpt lat="-27.274439" lon="151.290064">
  <ele>343.1</ele>
  <time>2026-09-01T19:53:24Z</time>
  <course>8.0</course>
  <speed>0.0</speed>
  <fix>3d</fix>
</trkpt>
<trkpt lat="-27.274439" lon="151.290064">
  <ele>343.1</ele>
  <time>2026-09-01T19:53:24Z</time>
  <course>270.0</course>
  <speed>0.0</speed>
  <fix>3d</fix>
</trkpt>
<trkpt lat="-27.274439" lon="151.290064">
  <ele>343.1</ele>
  <time>2026-09-01T19:53:24Z</time>
  <course>8.0</course>
  <speed>0.0</speed>
  <fix>3d</fix>
</trkpt>
<trkpt lat="-27.274439" lon="151.290064">
  <ele>343.1</ele>
  <time>2026-09-01T19:53:24Z</time>
  <course>270.0</course>
  <speed>0.0</speed>
  <fix>3d</fix>
</trkpt>
<trkpt lat="-27.274439" lon="151.290064">
  <ele>343.1</ele>
  <time>2026-09-01T19:53:24Z</time>
  <course>8.0</course>
  <speed>0.0</speed>
  <fix>3d</fix>
</trkpt>
<trkpt lat="-27.274439" lon="151.290064">
  <ele>343.1</ele>
  <time>2026-09-01T19:53:24Z</time>
  <course>270.0</course>
  <speed>0.0</speed>
  <fix>3d</fix>
</trkpt>
<trkpt lat="-27.274439" lon="151.290064">
  <ele>343.1</ele>
  <time>2026-09-01T19:53:24Z</time>
  <course>8.0</course>
  <speed>0.0</speed>
  <fix>3d</fix>
</trkpt>
<trkpt lat="-27.274439" lon="151.290064">
  <ele>343.1</ele>
  <time>2026-09-01T19:53:24Z</time>
  <course>270.0</course>
  <speed>0.0</speed>
  <fix>3d</fix>
</trkpt>
<trkpt lat="-27.274439" lon="151.290064">
  <ele>343.1</ele>
  <time>2026-09-01T19:53:24Z</time>
  <course>8.0</course>
  <speed>0.0</speed>
  <fix>3d</fix>
</trkpt>
<trkpt lat="-27.274439" lon="151.290064">
  <ele>343.1</ele>
  <time>2026-09-01T19:53:24Z</time>
  <course>270.0</course>
  <speed>0.0</speed>
  <fix>3d</fix>
</trkpt>
<trkpt lat="-27.274439" lon="151.290064">
  <ele>343.1</ele>
  <time>2026-09-01T19:53:24Z</time>
  <course>8.0</course>
  <speed>0.0</speed>
  <fix>3d</fix>
</trkpt>
<trkpt lat="-27.274439" lon="151.290064">
  <ele>343.1</ele>
  <time>2026-09-01T19:53:24Z</time>
  <course>270.0</course>
  <speed>0.0</speed>
  <fix>3d</fix>
</trkpt>
<trkpt lat="-27.274439" lon="151.290064">
  <ele>343.1</ele>
  <time>2026-09-01T19:53:24Z</time>
  <course>8.0</course>
  <speed>0.0</speed>
  <fix>3d</fix>
</trkpt>
<trkpt lat="-27.274439" lon="151.290064">
  <ele>343.1</ele>
  <time>2026-09-01T19:53:24Z</time>
  <course>270.0</course>
  <speed>0.0</speed>
  <fix>3d</fix>
</trkpt>
<trkpt lat="-27.274439" lon="151.290064">
  <ele>343.1</ele>
  <time>2026-09-01T19:53:24Z</time>
  <course>8.0</course>
  <speed>0.0</speed>
  <fix>3d</fix>
</trkpt>
<trkpt lat="-27.274439" lon="151.290064">
  <ele>343.1</ele>
  <time>2026-09-01T19:53:24Z</time>
  <course>270.0</course>
  <speed>0.0</speed>
  <fix>3d</fix>
</trkpt>
<trkpt lat="-27.274439" lon="151.290064">
  <ele>343.1</ele>
  <time>2026-09-01T19:53:24Z</time>
  <course>8.0</course>
  <speed>0.0</speed>
  <fix>3d</fix>
</trkpt>
<trkpt lat="-27.274439" lon="151.290064">
  <ele>343.1</ele>
  <time>2026-09-01T19:53:24Z</time>
  <course>270.0</course>
  <speed>0.0</speed>
  <fix>3d</fix>
</trkpt>
<trkpt lat="-27.274439" lon="151.290064">
  <ele>343.1</ele>
  <time>2026-09-01T19:53:24Z</time>
  <course>8.0</course>
  <speed>0.0</speed>
  <fix>3d</fix>
</trkpt>
<trkpt lat="-27.274439" lon="151.290064">
  <ele>343.1</ele>
  <time>2026-09-01T19:53:24Z</time>
  <course>270.0</course>
  <speed>0.0</speed>
  <fix>3d</fix>
</trkpt>
<trkpt lat="-27.274439" lon="151.290064">
  <ele>343.1</ele>
  <time>2026-09-01T19:53:24Z</time>
  <course>8.0</course>
  <speed>0.0</speed>
  <fix>3d</fix>
</trkpt>
<trkpt lat="-27.274439" lon="151.290064">
  <ele>343.1</ele>
  <time>2026-09-01T19:53:24Z</time>
  <course>270.0</course>
  <speed>0.0</speed>
  <fix>3d</fix>
</trkpt>
<trkpt lat="-27.274439" lon="151.290064">
  <ele>343.1</ele>
  <time>2026-09-01T19:53:24Z</time>
  <course>8.0</course>
  <speed>0.0</speed>
  <fix>3d</fix>
</trkpt>
<trkpt lat="-27.274439" lon="151.290064">
  <ele>343.1</ele>
  <time>2026-09-01T19:53:24Z</time>
  <course>270.0</course>
  <speed>0.0</speed>
  <fix>3d</fix>
</trkpt>
<trkpt lat="-27.274439" lon="151.290064">
  <ele>343.1</ele>
  <time>2026-09-01T19:53:24Z</time>
  <course>8.0</course>
  <speed>0.0</speed>
  <fix>3d</fix>
</trkpt>
<trkpt lat="-27.274439" lon="151.290064">
  <ele>343.1</ele>
  <time>2026-09-01T19:53:24Z</time>
  <course>270.0</course>
  <speed>0.0</speed>
  <fix>3d</fix>
</trkpt>
<trkpt lat="-27.274439" lon="151.290064">
  <ele>343.1</ele>
  <time>2026-09-01T19:53:24Z</time>
  <course>8.0</course>
  <speed>0.0</speed>
  <fix>3d</fix>
</trkpt>
<trkpt lat="-27.274439" lon="151.290064">
  <ele>343.1</ele>
  <time>2026-09-01T19:53:24Z</time>
  <course>270.0</course>
  <speed>0.0</speed>
  <fix>3d</fix>
</trkpt>
<trkpt lat="-27.274439" lon="151.290064">
  <ele>343.1</ele>
  <time>2026-09-01T19:53:24Z</time>
  <course>8.0</course>
  <speed>0.0</speed>
  <fix>3d</fix>
</trkpt>
<trkpt lat="-27.274439" lon="151.290064">
  <ele>343.1</ele>
  <time>2026-09-01T19:53:24Z</time>
  <course>270.0</course>
  <speed>0.0</speed>
  <fix>3d</fix>
</trkpt>
<trkpt lat="-27.274439" lon="151.290064">
  <ele>343.1</ele>
  <time>2026-09-01T19:53:24Z</time>
  <course>8.0</course>
  <speed>0.0</speed>
  <fix>3d</fix>
</trkpt>
<trkpt lat="-27.274439" lon="151.290064">
  <ele>343.1</ele>
  <time>2026-09-01T19:53:24Z</time>
  <course>270.0</course>
  <speed>0.0</speed>
  <fix>3d</fix>
</trkpt>
<trkpt lat="-27.274439" lon="151.290064">
  <ele>343.1</ele>
  <time>2026-09-01T19:53:24Z</time>
  <course>8.0</course>
  <speed>0.0</speed>
  <fix>3d</fix>
</trkpt>
<trkpt lat="-27.274439" lon="151.290064">
  <ele>343.1</ele>
  <time>2026-09-01T19:53:24Z</time>
  <course>270.0</course>
  <speed>0.0</speed>
  <fix>3d</fix>
</trkpt>
<trkpt lat="-27.274439" lon="151.290064">
  <ele>343.1</ele>
  <time>2026-09-01T19:53:24Z</time>
  <course>8.0</course>
  <speed>0.0</speed>
  <fix>3d</fix>
</trkpt>
<trkpt lat="-27.274439" lon="151.290064">
  <ele>343.1</ele>
  <time>2026-09-01T19:53:24Z</time>
  <course>270.0</course>
  <speed>0.0</speed>
  <fix>3d</fix>
</trkpt>
<trkpt lat="-27.274439" lon="151.290064">
  <ele>343.1</ele>
  <time>2026-09-01T19:53:24Z</time>
  <course>8.0</course>
  <speed>0.0</speed>
  <fix>3d</fix>
</trkpt>
<trkpt lat="-27.274439" lon="151.290064">
  <ele>343.1</ele>
  <time>2026-09-01T19:53:24Z</time>
  <course>270.0</course>
  <speed>0.0</speed>
  <fix>3d</fix>
</trkpt>
<trkpt lat="-27.274439" lon="151.290064">
  <ele>343.1</ele>
  <time>2026-09-01T19:53:24Z</time>
  <course>8.0</course>
  <speed>0.0</speed>
  <fix>3d</fix>
</trkpt>
<trkpt lat="-27.274439" lon="151.290064">
  <ele>343.1</ele>
  <time>2026-09-01T19:53:24Z</time>
  <course>270.0</course>
  <speed>0.0</speed>
  <fix>3d</fix>
</trkpt>
<trkpt lat="-27.274439" lon="151.290064">
  <ele>343.1</ele>
  <time>2026-09-01T19:53:24Z</time>
  <course>8.0</course>
  <speed>0.0</speed>
  <fix>3d</fix>
</trkpt>
<trkpt lat="-27.274439" lon="151.290064">
  <ele>343.1</ele>
  <time>2026-09-01T19:53:24Z</time>
  <course>270.0</course>
  <speed>0.0</speed>
  <fix>3d</fix>
</trkpt>
<trkpt lat="-27.274439" lon="151.290064">
  <ele>343.1</ele>
  <time>2026-09-01T19:53:24Z</time>
  <course>8.0</course>
  <speed>0.0</speed>
  <fix>3d</fix>
</trkpt>
<trkpt lat="-27.274439" lon="151.290064">
  <ele>343.1</ele>
  <time>2026-09-01T19:53:24Z</time>
  <course>270.0</course>
  <speed>0.0</speed>
  <fix>3d</fix>
</trkpt>
<trkpt lat="-27.274439" lon="151.290064">
  <ele>343.1</ele>
  <time>2026-09-01T19:53:24Z</time>
  <course>8.0</course>
  <speed>0.0</speed>
  <fix>3d</fix>
</trkpt>
<trkpt lat="-27.274439" lon="151.290064">
  <ele>343.1</ele>
  <time>2026-09-01T19:53:24Z</time>
  <course>270.0</course>
  <speed>0.0</speed>
  <fix>3d</fix>
</trkpt>
<trkpt lat="-27.274439" lon="151.290064">
  <ele>343.1</ele>
  <time>2026-09-01T19:53:24Z</time>
  <course>8.0</course>
  <speed>0.0</speed>
  <fix>3d</fix>
</trkpt>
<trkpt lat="-27.274439" lon="151.290064">
  <ele>343.1</ele>
  <time>2026-09-01T19:53:24Z</time>
  <course>270.0</course>
  <speed>0.0</speed>
  <fix>3d</fix>
</trkpt>
<trkpt lat="-27.274439" lon="151.290064">
  <ele>343.1</ele>
  <time>2026-09-01T19:53:24Z</time>
  <course>8.0</course>
  <speed>0.0</speed>
  <fix>3d</fix>
</trkpt>
<trkpt lat="-27.274439" lon="151.290064">
  <ele>343.1</ele>
  <time>2026-09-01T19:53:24Z</time>
  <course>270.0</course>
  <speed>0.0</speed>
  <fix>3d</fix>
</trkpt>
<trkpt lat="-27.274439" lon="151.290064">
  <ele>343.1</ele>
  <time>2026-09-01T19:53:24Z</time>
  <course>8.0</course>
  <speed>0.0</speed>
  <fix>3d</fix>
</trkpt>
<trkpt lat="-27.274439" lon="151.290064">
  <ele>343.1</ele>
  <time>2026-09-01T19:53:24Z</time>
  <course>270.0</course>
  <speed>0.0</speed>
  <fix>3d</fix>
</trkpt>
<trkpt lat="-27.274439" lon="151.290064">
  <ele>343.1</ele>
  <time>2026-09-01T19:53:24Z</time>
  <course>8.0</course>
  <speed>0.0</speed>
  <fix>3d</fix>
</trkpt>
<trkpt lat="-27.274439" lon="151.290064">
  <ele>343.1</ele>
  <time>2026-09-01T19:53:24Z</time>
  <course>270.0</course>
  <speed>0.0</speed>
  <fix>3d</fix>
</trkpt>
<trkpt lat="-27.274439" lon="151.290064">
  <ele>343.1</ele>
  <time>2026-09-01T19:53:24Z</time>
  <course>8.0</course>
  <speed>0.0</speed>
  <fix>3d</fix>
</trkpt>
<trkpt lat="-27.274439" lon="151.290064">
  <ele>343.1</ele>
  <time>2026-09-01T19:53:24Z</time>
  <course>270.0</course>
  <speed>0.0</speed>
  <fix>3d</fix>
</trkpt>
<trkpt lat="-27.274439" lon="151.290064">
  <ele>343.1</ele>
  <time>2026-09-01T19:53:24Z</time>
  <course>8.0</course>
  <speed>0.0</speed>
  <fix>3d</fix>
</trkpt>
<trkpt lat="-27.274439" lon="151.290064">
  <ele>343.1</ele>
  <time>2026-09-01T19:53:24Z</time>
  <course>270.0</course>
  <speed>0.0</speed>
  <fix>3d</fix>
</trkpt>
<trkpt lat="-27.274439" lon="151.290064">
  <ele>343.1</ele>
  <time>2026-09-01T19:53:24Z</time>
  <course>8.0</course>
  <speed>0.0</speed>
  <fix>3d</fix>
</trkpt>
<trkpt lat="-27.274439" lon="151.290064">
  <ele>343.1</ele>
  <time>2026-09-01T19:53:24Z</time>
  <course>270.0</course>
  <speed>0.0</speed>
  <fix>3d</fix>
</trkpt>
<trkpt lat="-27.274439" lon="151.290064">
  <ele>343.1</ele>
  <time>2026-09-01T19:53:24Z</time>
  <course>8.0</course>
  <speed>0.0</speed>
  <fix>3d</fix>
</trkpt>
<trkpt lat="-27.274439" lon="151.290064">
  <ele>343.1</ele>
  <time>2026-09-01T19:53:24Z</time>
  <course>270.0</course>
  <speed>0.0</speed>
  <fix>3d</fix>
</trkpt>
<trkpt lat="-27.274439" lon="151.290064">
  <ele>343.1</ele>
  <time>2026-09-01T19:53:24Z</time>
  <course>8.0</course>
  <speed>0.0</speed>
  <fix>3d</fix>
</trkpt>
<trkpt lat="-27.274439" lon="151.290064">
  <ele>343.1</ele>
  <time>2026-09-01T19:53:24Z</time>
  <course>270.0</course>
  <speed>0.0</speed>
  <fix>3d</fix>
</trkpt>
<trkpt lat="-27.274439" lon="151.290064">
  <ele>343.1</ele>
  <time>2026-09-01T19:53:24Z</time>
  <course>8.0</course>
  <speed>0.0</speed>
  <fix>3d</fix>
</trkpt>
<trkpt lat="-27.274439" lon="151.290064">
  <ele>343.1</ele>
  <time>2026-09-01T19:53:24Z</time>
  <course>270.0</course>
  <speed>0.0</speed>
  <fix>3d</fix>
</trkpt>
<trkpt lat="-27.274439" lon="151.290064">
  <ele>343.1</ele>
  <time>2026-09-01T19:53:24Z</time>
  <course>8.0</course>
  <speed>0.0</speed>
  <fix>3d</fix>
</trkpt>
<trkpt lat="-27.274439" lon="151.290064">
  <ele>343.1</ele>
  <time>2026-09-01T19:53:24Z</time>
  <course>270.0</course>
  <speed>0.0</speed>
  <fix>3d</fix>
</trkpt>
<trkpt lat="-27.274439" lon="151.290064">
  <ele>343.1</ele>
  <time>2026-09-01T19:53:24Z</time>
  <course>8.0</course>
  <speed>0.0</speed>
  <fix>3d</fix>
</trkpt>
<trkpt lat="-27.274439" lon="151.290064">
  <ele>343.1</ele>
  <time>2026-09-01T19:53:24Z</time>
  <course>143.0</course>
  <speed>0.0</speed>
  <fix>3d</fix>
</trkpt>
<trkpt lat="-27.274439" lon="151.290064">
  <ele>343.1</ele>
  <time>2026-09-01T19:53:24Z</time>
  <course>8.0</course>
  <speed>0.0</speed>
  <fix>3d</fix>
</trkpt>
<trkpt lat="-27.274439" lon="151.290064">
  <ele>343.1</ele>
  <time>2026-09-01T19:53:24Z</time>
  <course>143.0</course>
  <speed>0.0</speed>
  <fix>3d</fix>
</trkpt>
<trkpt lat="-27.274439" lon="151.290064">
  <ele>343.1</ele>
  <time>2026-09-01T19:53:24Z</time>
  <course>8.0</course>
  <speed>0.0</speed>
  <fix>3d</fix>
</trkpt>
<trkpt lat="-27.274439" lon="151.290064">
  <ele>343.1</ele>
  <time>2026-09-01T19:53:24Z</time>
  <course>148.22</course>
  <speed>0.0</speed>
  <fix>3d</fix>
</trkpt>
<trkpt lat="-27.274439" lon="151.290064">
  <ele>343.1</ele>
  <time>2026-09-01T19:53:24Z</time>
  <course>8.0</course>
  <speed>0.0</speed>
  <fix>3d</fix>
</trkpt>
<trkpt lat="-27.274439" lon="151.290064">
  <ele>343.1</ele>
  <time>2026-09-01T19:53:24Z</time>
  <course>8.0</course>
  <speed>0.0</speed>
  <fix>3d</fix>
</trkpt>
<trkpt lat="-27.274439" lon="151.290064">
  <ele>343.1</ele>
  <time>2026-09-01T19:53:24Z</time>
  <course>148.22</course>
  <speed>0.0</speed>
  <fix>3d</fix>
</trkpt>
<trkpt lat="-27.274439" lon="151.290064">
  <ele>343.1</ele>
  <time>2026-09-01T19:53:24Z</time>
  <course>8.0</course>
  <speed>0.0</speed>
  <fix>3d</fix>
</trkpt>
<trkpt lat="-27.274439" lon="151.290064">
  <ele>343.1</ele>
  <time>2026-09-01T19:53:24Z</time>
  <course>8.0</course>
  <speed>0.0</speed>
  <fix>3d</fix>
</trkpt>
<trkpt lat="-27.274439" lon="151.290064">
  <ele>343.1</ele>
  <time>2026-09-01T19:53:24Z</time>
  <course>132.86</course>
  <speed>0.0</speed>
  <fix>3d</fix>
</trkpt>
<trkpt lat="-27.274439" lon="151.290064">
  <ele>343.1</ele>
  <time>2026-09-01T19:53:24Z</time>
  <course>8.0</course>
  <speed>0.0</speed>
  <fix>3d</fix>
</trkpt>
<trkpt lat="-27.274439" lon="151.290064">
  <ele>343.1</ele>
  <time>2026-09-01T19:53:24Z</time>
  <course>8.0</course>
  <speed>0.0</speed>
  <fix>3d</fix>
</trkpt>
<trkpt lat="-27.274439" lon="151.290064">
  <ele>343.1</ele>
  <time>2026-09-01T19:53:24Z</time>
  <course>132.86</course>
  <speed>0.0</speed>
  <fix>3d</fix>
</trkpt>
<trkpt lat="-27.274439" lon="151.290064">
  <ele>343.1</ele>
  <time>2026-09-01T19:53:24Z</time>
  <course>8.0</course>
  <speed>0.0</speed>
  <fix>3d</fix>
</trkpt>
<trkpt lat="-27.274439" lon="151.290064">
  <ele>343.1</ele>
  <time>2026-09-01T19:53:24Z</time>
  <course>8.0</course>
  <speed>0.0</speed>
  <fix>3d</fix>
</trkpt>
<trkpt lat="-27.274439" lon="151.290064">
  <ele>343.1</ele>
  <time>2026-09-01T19:53:24Z</time>
  <course>144.13</course>
  <speed>0.0</speed>
  <fix>3d</fix>
</trkpt>
<trkpt lat="-27.274439" lon="151.290064">
  <ele>343.1</ele>
  <time>2026-09-01T19:53:24Z</time>
  <course>8.0</course>
  <speed>0.0</speed>
  <fix>3d</fix>
</trkpt>
<trkpt lat="-27.274439" lon="151.290064">
  <ele>343.1</ele>
  <time>2026-09-01T19:53:24Z</time>
  <course>8.0</course>
  <speed>0.0</speed>
  <fix>3d</fix>
</trkpt>
<trkpt lat="-27.274439" lon="151.290064">
  <ele>343.1</ele>
  <time>2026-09-01T19:53:24Z</time>
  <course>144.13</course>
  <speed>0.0</speed>
  <fix>3d</fix>
</trkpt>
<trkpt lat="-27.274439" lon="151.290064">
  <ele>343.1</ele>
  <time>2026-09-01T19:53:24Z</time>
  <course>8.0</course>
  <speed>0.0</speed>
  <fix>3d</fix>
</trkpt>
<trkpt lat="-27.274439" lon="151.290064">
  <ele>343.1</ele>
  <time>2026-09-01T19:53:24Z</time>
  <course>8.0</course>
  <speed>0.0</speed>
  <fix>3d</fix>
</trkpt>
<trkpt lat="-27.274439" lon="151.290064">
  <ele>343.1</ele>
  <time>2026-09-01T19:53:24Z</time>
  <course>154.37</course>
  <speed>0.0</speed>
  <fix>3d</fix>
</trkpt>
<trkpt lat="-27.274439" lon="151.290064">
  <ele>343.1</ele>
  <time>2026-09-01T19:53:24Z</time>
  <course>8.0</course>
  <speed>0.0</speed>
  <fix>3d</fix>
</trkpt>
<trkpt lat="-27.274439" lon="151.290064">
  <ele>343.1</ele>
  <time>2026-09-01T19:53:24Z</time>
  <course>8.0</course>
  <speed>0.0</speed>
  <fix>3d</fix>
</trkpt>
<trkpt lat="-27.274439" lon="151.290064">
  <ele>343.1</ele>
  <time>2026-09-01T19:53:24Z</time>
  <course>154.37</course>
  <speed>0.0</speed>
  <fix>3d</fix>
</trkpt>
<trkpt lat="-27.274439" lon="151.290064">
  <ele>343.1</ele>
  <time>2026-09-01T19:53:24Z</time>
  <course>8.0</course>
  <speed>0.0</speed>
  <fix>3d</fix>
</trkpt>
<trkpt lat="-27.274439" lon="151.290064">
  <ele>343.1</ele>
  <time>2026-09-01T19:53:24Z</time>
  <course>8.0</course>
  <speed>0.0</speed>
  <fix>3d</fix>
</trkpt>
<trkpt lat="-27.274439" lon="151.290064">
  <ele>343.1</ele>
  <time>2026-09-01T19:53:24Z</time>
  <course>22.31</course>
  <speed>0.0</speed>
  <fix>3d</fix>
</trkpt>
<trkpt lat="-27.274439" lon="151.290064">
  <ele>343.1</ele>
  <time>2026-09-01T19:53:24Z</time>
  <course>8.0</course>
  <speed>0.0</speed>
  <fix>3d</fix>
</trkpt>
<trkpt lat="-27.274439" lon="151.290064">
  <ele>343.1</ele>
  <time>2026-09-01T19:53:24Z</time>
  <course>8.0</course>
  <speed>0.0</speed>
  <fix>3d</fix>
</trkpt>
<trkpt lat="-27.274439" lon="151.290064">
  <ele>343.1</ele>
  <time>2026-09-01T19:53:24Z</time>
  <course>22.31</course>
  <speed>0.0</speed>
  <fix>3d</fix>
</trkpt>
<trkpt lat="-27.274439" lon="151.290064">
  <ele>343.11</ele>
  <time>2026-09-01T19:53:24Z</time>
  <course>8.0</course>
  <speed>0.0</speed>
  <fix>3d</fix>
</trkpt>
<trkpt lat="-27.274439" lon="151.290064">
  <ele>343.12</ele>
  <time>2026-09-01T19:53:24Z</time>
  <course>8.0</course>
  <speed>0.0</speed>
  <fix>3d</fix>
</trkpt>
<trkpt lat="-27.274439" lon="151.290064">
  <ele>343.11</ele>
  <time>2026-09-01T19:53:24Z</time>
  <course>7.86</course>
  <speed>0.0</speed>
  <fix>3d</fix>
</trkpt>
<trkpt lat="-27.274439" lon="151.290064">
  <ele>343.13</ele>
  <time>2026-09-01T19:53:24Z</time>
  <course>8.0</course>
  <speed>0.0</speed>
  <fix>3d</fix>
</trkpt>
<trkpt lat="-27.274439" lon="151.290064">
  <ele>343.15</ele>
  <time>2026-09-01T19:53:24Z</time>
  <course>8.0</course>
  <speed>0.0</speed>
  <fix>3d</fix>
</trkpt>
<trkpt lat="-27.274439" lon="151.290064">
  <ele>343.11</ele>
  <time>2026-09-01T19:53:24Z</time>
  <course>7.86</course>
  <speed>0.0</speed>
  <fix>3d</fix>
</trkpt>
<trkpt lat="-27.274439" lon="151.290064">
  <ele>343.17</ele>
  <time>2026-09-01T19:53:24Z</time>
  <course>8.0</course>
  <speed>0.0</speed>
  <fix>3d</fix>
</trkpt>
<trkpt lat="-27.274439" lon="151.290064">
  <ele>343.2</ele>
  <time>2026-09-01T19:53:24Z</time>
  <course>8.0</course>
  <speed>0.0</speed>
  <fix>3d</fix>
</trkpt>
<trkpt lat="-27.274439" lon="151.290064">
  <ele>343.16</ele>
  <time>2026-09-01T19:53:24Z</time>
  <course>8.0</course>
  <speed>0.0</speed>
  <fix>3d</fix>
</trkpt>
<trkpt lat="-27.274439" lon="151.290064">
  <ele>343.2</ele>
  <time>2026-09-01T19:53:24Z</time>
  <course>8.0</course>
  <speed>0.0</speed>
  <fix>3d</fix>
</trkpt>
<trkpt lat="-27.274439" lon="151.290064">
  <ele>343.27</ele>
  <time>2026-09-01T19:53:24Z</time>
  <course>8.0</course>
  <speed>0.01</speed>
  <fix>3d</fix>
</trkpt>
<trkpt lat="-27.274439" lon="151.290064">
  <ele>343.16</ele>
  <time>2026-09-01T19:53:24Z</time>
  <course>8.0</course>
  <speed>0.0</speed>
  <fix>3d</fix>
</trkpt>
<trkpt lat="-27.274439" lon="151.290064">
  <ele>343.29</ele>
  <time>2026-09-01T19:53:24Z</time>
  <course>8.0</course>
  <speed>0.02</speed>
  <fix>3d</fix>
</trkpt>
<trkpt lat="-27.274439" lon="151.290064">
  <ele>343.4</ele>
  <time>2026-09-01T19:53:24Z</time>
  <course>8.0</course>
  <speed>0.04</speed>
  <fix>3d</fix>
</trkpt>
<trkpt lat="-27.274439" lon="151.290064">
  <ele>343.29</ele>
  <time>2026-09-01T19:53:24Z</time>
  <course>7.54</course>
  <speed>0.02</speed>
  <fix>3d</fix>
</trkpt>
<trkpt lat="-27.274439" lon="151.290064">
  <ele>343.46</ele>
  <time>2026-09-01T19:53:24Z</time>
  <course>8.0</course>
  <speed>0.05</speed>
  <fix>3d</fix>
</trkpt>
<trkpt lat="-27.274439" lon="151.290064">
  <ele>343.59</ele>
  <time>2026-09-01T19:53:24Z</time>
  <course>8.0</course>
  <speed>0.07071067811865475</speed>
  <fix>3d</fix>
</trkpt>
<trkpt lat="-27.274439" lon="151.290064">
  <ele>343.29</ele>
  <time>2026-09-01T19:53:24Z</time>
  <course>7.54</course>
  <speed>0.02</speed>
  <fix>3d</fix>
</trkpt>
<trkpt lat="-27.274439" lon="151.290064">
  <ele>343.68</ele>
  <time>2026-09-01T19:53:24Z</time>
  <course>7.99</course>
  <speed>0.09055385138137417</speed>
  <fix>3d</fix>
</trkpt>
<trkpt lat="-27.274439" lon="151.290064">
  <ele>343.82</ele>
  <time>2026-09-01T19:53:24Z</time>
  <course>7.99</course>
  <speed>0.11045361017187261</speed>
  <fix>3d</fix>
</trkpt>
<trkpt lat="-27.274439" lon="151.290064">
  <ele>343.59</ele>
  <time>2026-09-01T19:53:24Z</time>
  <course>7.88</course>
  <speed>0.07</speed>
  <fix>3d</fix>
</trkpt>
<trkpt lat="-27.2744389" lon="151.290064">
  <ele>343.92</ele>
  <time>2026-09-01T19:53:24Z</time>
  <course>7.99</course>
  <speed>0.130384048104053</speed>
  <fix>3d</fix>
</trkpt>
<trkpt lat="-27.2744388" lon="151.290064">
  <ele>344.05</ele>
  <time>2026-09-01T19:53:24Z</time>
  <course>7.99</course>
  <speed>0.15132745950421556</speed>
  <fix>3d</fix>
</trkpt>
<trkpt lat="-27.274439" lon="151.290064">
  <ele>343.59</ele>
  <time>2026-09-01T19:53:24Z</time>
  <course>7.88</course>
  <speed>0.07</speed>
  <fix>3d</fix>
</trkpt>
<trkpt lat="-27.2744388" lon="151.290064">
  <ele>344.14</ele>
  <time>2026-09-01T19:53:24Z</time>
  <course>7.99</course>
  <speed>0.16124515496597097</speed>
  <fix>3d</fix>
</trkpt>
<trkpt lat="-27.2744387" lon="151.290064">
  <ele>344.28</ele>
  <time>2026-09-01T19:53:24Z</time>
  <course>7.99</course>
  <speed>0.191049731745428</speed>
  <fix>3d</fix>
</trkpt>
<trkpt lat="-27.2744388" lon="151.290064">
  <ele>344.03</ele>
  <time>2026-09-01T19:53:24Z</time>
  <course>8.07</course>
  <speed>0.15</speed>
  <fix>3d</fix>
</trkpt>
<trkpt lat="-27.2744387" lon="151.290064">
  <ele>344.29</ele>
  <time>2026-09-01T19:53:24Z</time>
  <course>7.99</course>
  <speed>0.191049731745428</speed>
  <fix>3d</fix>
</trkpt>
<trkpt lat="-27.2744385" lon="151.290064">
  <ele>344.51</ele>
  <time>2026-09-01T19:53:24Z</time>
  <course>7.99</course>
  <speed>0.2220360331117452</speed>
  <fix>3d</fix>
</trkpt>
<trkpt lat="-27.2744388" lon="151.290064">
  <ele>344.03</ele>
  <time>2026-09-01T19:53:24Z</time>
  <course>8.07</course>
  <speed>0.15</speed>
  <fix>3d</fix>
</trkpt>
<trkpt lat="-27.2744385" lon="151.290064">
  <ele>344.52</ele>
  <time>2026-09-01T19:53:24Z</time>
  <course>7.99</course>
  <speed>0.2220360331117452</speed>
  <fix>3d</fix>
</trkpt>
<trkpt lat="-27.2744383" lon="151.2900641">
  <ele>344.74</ele>
  <time>2026-09-01T19:53:24Z</time>
  <course>7.99</course>
  <speed>0.261725046566048</speed>
  <fix>3d</fix>
</trkpt>
<trkpt lat="-27.2744385" lon="151.290064">
  <ele>344.5</ele>
  <time>2026-09-01T19:53:24Z</time>
  <course>8.08</course>
  <speed>0.22</speed>
  <fix>3d</fix>
</trkpt>
<trkpt lat="-27.2744382" lon="151.2900641">
  <ele>344.77</ele>
  <time>2026-09-01T19:53:24Z</time>
  <course>7.99</course>
  <speed>0.261725046566048</speed>
  <fix>3d</fix>
</trkpt>
<trkpt lat="-27.274438" lon="151.2900641">
  <ele>344.97</ele>
  <time>2026-09-01T19:53:24Z</time>
  <course>7.99</course>
  <speed>0.29274562336608895</speed>
  <fix>3d</fix>
</trkpt>
<trkpt lat="-27.2744385" lon="151.290064">
  <ele>344.5</ele>
  <time>2026-09-01T19:53:24Z</time>
  <course>8.08</course>
  <speed>0.22</speed>
  <fix>3d</fix>
</trkpt>
<trkpt lat="-27.2744379" lon="151.2900641">
  <ele>345.04</ele>
  <time>2026-09-01T19:53:24Z</time>
  <course>8.0</course>
  <speed>0.3026549190084311</speed>
  <fix>3d</fix>
</trkpt>
<trkpt lat="-27.2744377" lon="151.2900642">
  <ele>345.19</ele>
  <time>2026-09-01T19:53:24Z</time>
  <course>8.0</course>
  <speed>0.32249030993194194</speed>
  <fix>3d</fix>
</trkpt>
<trkpt lat="-27.274438" lon="151.2900641">
  <ele>344.95</ele>
  <time>2026-09-01T19:53:24Z</time>
  <course>8.04</course>
  <speed>0.29</speed>
  <fix>3d</fix>
</trkpt>
<trkpt lat="-27.2744376" lon="151.2900642">
  <ele>345.26</ele>
  <time>2026-09-01T19:53:24Z</time>
  <course>8.0</course>
  <speed>0.33241540277189324</speed>
  <fix>3d</fix>
</trkpt>
<trkpt lat="-27.2744374" lon="151.2900642">
  <ele>345.41</ele>
  <time>2026-09-01T19:53:24Z</time>
  <course>8.0</course>
  <speed>0.3522782990761707</speed>
  <fix>3d</fix>
</trkpt>
<trkpt lat="-27.274438" lon="151.2900641">
  <ele>344.95</ele>
  <time>2026-09-01T19:53:24Z</time>
  <course>8.04</course>
  <speed>0.29</speed>
  <fix>3d</fix>
</trkpt>
<trkpt lat="-27.2744374" lon="151.2900642">
  <ele>345.41</ele>
  <time>2026-09-01T19:53:24Z</time>
  <course>8.0</course>
  <speed>0.3522782990761707</speed>
  <fix>3d</fix>
</trkpt>
<trkpt lat="-27.2744371" lon="151.2900642">
  <ele>345.61</ele>
  <time>2026-09-01T19:53:24Z</time>
  <course>8.0</course>
  <speed>0.37336309405188944</speed>
  <fix>3d</fix>
</trkpt>
<trkpt lat="-27.2744374" lon="151.2900642">
  <ele>345.39</ele>
  <time>2026-09-01T19:53:24Z</time>
  <course>8.02</course>
  <speed>0.35</speed>
  <fix>3d</fix>
</trkpt>
<trkpt lat="-27.2744371" lon="151.2900642">
  <ele>345.64</ele>
  <time>2026-09-01T19:53:24Z</time>
  <course>8.0</course>
  <speed>0.37336309405188944</speed>
  <fix>3d</fix>
</trkpt>
<trkpt lat="-27.2744368" lon="151.2900642">
  <ele>345.81</ele>
  <time>2026-09-01T19:53:24Z</time>
  <course>8.0</course>
  <speed>0.39319206502675</speed>
  <fix>3d</fix>
</trkpt>
<trkpt lat="-27.2744374" lon="151.2900642">
  <ele>345.39</ele>
  <time>2026-09-01T19:53:24Z</time>
  <course>8.02</course>
  <speed>0.35</speed>
  <fix>3d</fix>
</trkpt>
<trkpt lat="-27.2744367" lon="151.2900642">
  <ele>345.86</ele>
  <time>2026-09-01T19:53:24Z</time>
  <course>8.0</course>
  <speed>0.40311288741492746</speed>
  <fix>3d</fix>
</trkpt>
<trkpt lat="-27.2744364" lon="151.2900644">
  <ele>346.0</ele>
  <time>2026-09-01T19:53:24Z</time>
  <course>8.0</course>
  <speed>0.41303752856126763</speed>
  <fix>3d</fix>
</trkpt>
<trkpt lat="-27.2744367" lon="151.2900643">
  <ele>345.79</ele>
  <time>2026-09-01T19:53:24Z</time>
  <course>8.01</course>
  <speed>0.39</speed>
  <fix>3d</fix>
</trkpt>
<trkpt lat="-27.2744363" lon="151.2900644">
  <ele>346.05</ele>
  <time>2026-09-01T19:53:24Z</time>
  <course>8.0</course>
  <speed>0.422965719651132</speed>
  <fix>3d</fix>
</trkpt>
<trkpt lat="-27.274436" lon="151.2900644">
  <ele>346.18</ele>
  <time>2026-09-01T19:53:24Z</time>
  <course>8.0</course>
  <speed>0.4341658669218482</speed>
  <fix>3d</fix>
</trkpt>
<trkpt lat="-27.2744367" lon="151.2900643">
  <ele>345.79</ele>
  <time>2026-09-01T19:53:24Z</time>
  <course>8.01</course>
  <speed>0.39</speed>
  <fix>3d</fix>
</trkpt>
<trkpt lat="-27.2744359" lon="151.2900644">
  <ele>346.22</ele>
  <time>2026-09-01T19:53:24Z</time>
  <course>8.0</course>
  <speed>0.4341658669218482</speed>
  <fix>3d</fix>
</trkpt>
<trkpt lat="-27.2744356" lon="151.2900645">
  <ele>346.34</ele>
  <time>2026-09-01T19:53:24Z</time>
  <course>8.0</course>
  <speed>0.4440720662234904</speed>
  <fix>3d</fix>
</trkpt>
<trkpt lat="-27.274436" lon="151.2900644">
  <ele>346.16</ele>
  <time>2026-09-01T19:53:24Z</time>
  <course>7.99</course>
  <speed>0.43</speed>
  <fix>3d</fix>
</trkpt>
<trkpt lat="-27.2744355" lon="151.2900645">
  <ele>346.39</ele>
  <time>2026-09-01T19:53:24Z</time>
  <course>8.0</course>
  <speed>0.4440720662234904</speed>
  <fix>3d</fix>
</trkpt>
<trkpt lat="-27.2744352" lon="151.2900646">
  <ele>346.5</ele>
  <time>2026-09-01T19:53:24Z</time>
  <course>8.0</course>
  <speed>0.45398237851264667</speed>
  <fix>3d</fix>
</trkpt>
<trkpt lat="-27.274436" lon="151.2900644">
  <ele>346.16</ele>
  <time>2026-09-01T19:53:24Z</time>
  <course>7.99</course>
  <speed>0.43</speed>
  <fix>3d</fix>
</trkpt>
<trkpt lat="-27.2744351" lon="151.2900646">
  <ele>346.55</ele>
  <time>2026-09-01T19:53:24Z</time>
  <course>8.0</course>
  <speed>0.46389654018972803</speed>
  <fix>3d</fix>
</trkpt>
<trkpt lat="-27.2744348" lon="151.2900646">
  <ele>346.66</ele>
  <time>2026-09-01T19:53:24Z</time>
  <course>8.0</course>
  <speed>0.46389654018972803</speed>
  <fix>3d</fix>
</trkpt>
<trkpt lat="-27.2744352" lon="151.2900645">
  <ele>346.49</ele>
  <time>2026-09-01T19:53:24Z</time>
  <course>7.97</course>
  <speed>0.46</speed>
  <fix>3d</fix>
</trkpt>
<trkpt lat="-27.2744347" lon="151.2900646">
  <ele>346.7</ele>
  <time>2026-09-01T19:53:24Z</time>
  <course>8.0</course>
  <speed>0.4738143096192854</speed>
  <fix>3d</fix>
</trkpt>
<trkpt lat="-27.2744344" lon="151.2900646">
  <ele>346.8</ele>
  <time>2026-09-01T19:53:24Z</time>
  <course>8.0</course>
  <speed>0.4738143096192854</speed>
  <fix>3d</fix>
</trkpt>
<trkpt lat="-27.2744352" lon="151.2900645">
  <ele>346.49</ele>
  <time>2026-09-01T19:53:24Z</time>
  <course>7.97</course>
  <speed>0.46</speed>
  <fix>3d</fix>
</trkpt>
<trkpt lat="-27.2744342" lon="151.2900646">
  <ele>346.84</ele>
  <time>2026-09-01T19:53:24Z</time>
  <course>8.0</course>
  <speed>0.48373546489791297</speed>
  <fix>3d</fix>
</trkpt>
<trkpt lat="-27.2744339" lon="151.2900647">
  <ele>346.94</ele>
  <time>2026-09-01T19:53:24Z</time>
  <course>8.0</course>
  <speed>0.48373546489791297</speed>
  <fix>3d</fix>
</trkpt>
<trkpt lat="-27.2744343" lon="151.2900646">
  <ele>346.79</ele>
  <time>2026-09-01T19:53:24Z</time>
  <course>7.97</course>
  <speed>0.48</speed>
  <fix>3d</fix>
</trkpt>
<trkpt lat="-27.2744338" lon="151.2900647">
  <ele>346.99</ele>
  <time>2026-09-01T19:53:24Z</time>
  <course>8.0</course>
  <speed>0.4936598018878993</speed>
  <fix>3d</fix>
</trkpt>
<trkpt lat="-27.2744335" lon="151.2900647">
  <ele>347.08</ele>
  <time>2026-09-01T19:53:24Z</time>
  <course>8.0</course>
  <speed>0.4936598018878993</speed>
  <fix>3d</fix>
</trkpt>
<trkpt lat="-27.2744343" lon="151.2900646">
  <ele>346.79</ele>
  <time>2026-09-01T19:53:24Z</time>
  <course>7.97</course>
  <speed>0.48</speed>
  <fix>3d</fix>
</trkpt>
<trkpt lat="-27.2744334" lon="151.2900647">
  <ele>347.1</ele>
  <time>2026-09-01T19:53:24Z</time>
  <course>8.0</course>
  <speed>0.4936598018878993</speed>
  <fix>3d</fix>
</trkpt>
<trkpt lat="-27.274433" lon="151.2900649">
  <ele>347.22</ele>
  <time>2026-09-01T19:53:24Z</time>
  <course>8.0</course>
  <speed>0.5048762224545735</speed>
  <fix>3d</fix>
</trkpt>
<trkpt lat="-27.2744335" lon="151.2900648">
  <ele>347.07</ele>
  <time>2026-09-01T19:53:24Z</time>
  <course>8.0</course>
  <speed>0.5</speed>
  <fix>3d</fix>
</trkpt>
<trkpt lat="-27.274433" lon="151.2900649">
  <ele>347.22</ele>
  <time>2026-09-01T19:53:24Z</time>
  <course>8.0</course>
  <speed>0.5048762224545735</speed>
  <fix>3d</fix>
</trkpt>
<trkpt lat="-27.2744326" lon="151.290065">
  <ele>347.35</ele>
  <time>2026-09-01T19:53:24Z</time>
  <course>8.0</course>
  <speed>0.51478150704935</speed>
  <fix>3d</fix>
</trkpt>
<trkpt lat="-27.2744335" lon="151.2900648">
  <ele>347.07</ele>
  <time>2026-09-01T19:53:24Z</time>
  <course>8.0</course>
  <speed>0.5</speed>
  <fix>3d</fix>
</trkpt>
<trkpt lat="-27.2744325" lon="151.290065">
  <ele>347.38</ele>
  <time>2026-09-01T19:53:24Z</time>
  <course>8.0</course>
  <speed>0.51478150704935</speed>
  <fix>3d</fix>
</trkpt>
<trkpt lat="-27.2744321" lon="151.290065">
  <ele>347.48</ele>
  <time>2026-09-01T19:53:24Z</time>
  <course>8.0</course>
  <speed>0.51478150704935</speed>
  <fix>3d</fix>
</trkpt>
<trkpt lat="-27.2744326" lon="151.2900649">
  <ele>347.34</ele>
  <time>2026-09-01T19:53:24Z</time>
  <course>8.01</course>
  <speed>0.51</speed>
  <fix>3d</fix>
</trkpt>
<trkpt lat="-27.2744319" lon="151.2900651">
  <ele>347.54</ele>
  <time>2026-09-01T19:53:24Z</time>
  <course>8.0</course>
  <speed>0.5246903848937962</speed>
  <fix>3d</fix>
</trkpt>
<trkpt lat="-27.2744317" lon="151.2900651">
  <ele>347.61</ele>
  <time>2026-09-01T19:53:24Z</time>
  <course>8.0</course>
  <speed>0.5246903848937962</speed>
  <fix>3d</fix>
</trkpt>
<trkpt lat="-27.2744326" lon="151.2900649">
  <ele>347.34</ele>
  <time>2026-09-01T19:53:24Z</time>
  <course>8.01</course>
  <speed>0.51</speed>
  <fix>3d</fix>
</trkpt>
<trkpt lat="-27.2744314" lon="151.2900651">
  <ele>347.67</ele>
  <time>2026-09-01T19:53:24Z</time>
  <course>8.0</course>
  <speed>0.5246903848937962</speed>
  <fix>3d</fix>
</trkpt>
<trkpt lat="-27.2744312" lon="151.2900651">
  <ele>347.75</ele>
  <time>2026-09-01T19:53:24Z</time>
  <course>8.0</course>
  <speed>0.5346026561849464</speed>
  <fix>3d</fix>
</trkpt>
<trkpt lat="-27.2744316" lon="151.2900651">
  <ele>347.6</ele>
  <time>2026-09-01T19:53:24Z</time>
  <course>8.02</course>
  <speed>0.53</speed>
  <fix>3d</fix>
</trkpt>
<trkpt lat="-27.274431" lon="151.2900651">
  <ele>347.81</ele>
  <time>2026-09-01T19:53:24Z</time>
  <course>8.0</course>
  <speed>0.5346026561849464</speed>
  <fix>3d</fix>
</trkpt>
<trkpt lat="-27.2744307" lon="151.2900652">
  <ele>347.88</ele>
  <time>2026-09-01T19:53:24Z</time>
  <course>8.0</course>
  <speed>0.5445181356024793</speed>
  <fix>3d</fix>
</trkpt>
<trkpt lat="-27.2744316" lon="151.2900651">
  <ele>347.6</ele>
  <time>2026-09-01T19:53:24Z</time>
  <course>8.02</course>
  <speed>0.53</speed>
  <fix>3d</fix>
</trkpt>
<trkpt lat="-27.2744305" lon="151.2900652">
  <ele>347.94</ele>
  <time>2026-09-01T19:53:24Z</time>
  <course>8.0</course>
  <speed>0.5445181356024793</speed>
  <fix>3d</fix>
</trkpt>
<trkpt lat="-27.2744302" lon="151.2900654">
  <ele>348.02</ele>
  <time>2026-09-01T19:53:24Z</time>
  <course>8.0</course>
  <speed>0.5445181356024793</speed>
  <fix>3d</fix>
</trkpt>
<trkpt lat="-27.2744306" lon="151.2900652">
  <ele>347.87</ele>
  <time>2026-09-01T19:53:24Z</time>
  <course>8.02</course>
  <speed>0.54</speed>
  <fix>3d</fix>
</trkpt>
<trkpt lat="-27.27443" lon="151.2900654">
  <ele>348.07</ele>
  <time>2026-09-01T19:53:24Z</time>
  <course>8.0</course>
  <speed>0.5544366510251645</speed>
  <fix>3d</fix>
</trkpt>
<trkpt lat="-27.2744297" lon="151.2900654">
  <ele>348.15</ele>
  <time>2026-09-01T19:53:24Z</time>
  <course>8.0</course>
  <speed>0.5544366510251645</speed>
  <fix>3d</fix>
</trkpt>
<trkpt lat="-27.2744306" lon="151.2900652">
  <ele>347.87</ele>
  <time>2026-09-01T19:53:24Z</time>
  <course>8.02</course>
  <speed>0.54</speed>
  <fix>3d</fix>
</trkpt>
<trkpt lat="-27.2744295" lon="151.2900655">
  <ele>348.21</ele>
  <time>2026-09-01T19:53:24Z</time>
  <course>8.0</course>
  <speed>0.5544366510251645</speed>
  <fix>3d</fix>
</trkpt>
<trkpt lat="-27.2744292" lon="151.2900655">
  <ele>348.29</ele>
  <time>2026-09-01T19:53:24Z</time>
  <course>8.01</course>
  <speed>0.5643580423808985</speed>
  <fix>3d</fix>
</trkpt>
<trkpt lat="-27.2744297" lon="151.2900654">
  <ele>348.15</ele>
  <time>2026-09-01T19:53:24Z</time>
  <course>8.02</course>
  <speed>0.56</speed>
  <fix>3d</fix>
</trkpt>
<trkpt lat="-27.274429" lon="151.2900655">
  <ele>348.36</ele>
  <time>2026-09-01T19:53:24Z</time>
  <course>8.01</course>
  <speed>0.5643580423808985</speed>
  <fix>3d</fix>
</trkpt>
<trkpt lat="-27.2744287" lon="151.2900656">
  <ele>348.44</ele>
  <time>2026-09-01T19:53:24Z</time>
  <course>8.01</course>
  <speed>0.5755866572463264</speed>
  <fix>3d</fix>
</trkpt>
<trkpt lat="-27.2744297" lon="151.2900654">
  <ele>348.15</ele>
  <time>2026-09-01T19:53:24Z</time>
  <course>8.02</course>
  <speed>0.56</speed>
  <fix>3d</fix>
</trkpt>
<trkpt lat="-27.2744285" lon="151.2900656">
  <ele>348.5</ele>
  <time>2026-09-01T19:53:24Z</time>
  <course>8.01</course>
  <speed>0.5755866572463264</speed>
  <fix>3d</fix>
</trkpt>
<trkpt lat="-27.2744282" lon="151.2900656">
  <ele>348.58</ele>
  <time>2026-09-01T19:53:24Z</time>
  <course>8.01</course>
  <speed>0.5755866572463264</speed>
  <fix>3d</fix>
</trkpt>
<trkpt lat="-27.2744287" lon="151.2900656">
  <ele>348.43</ele>
  <time>2026-09-01T19:53:24Z</time>
  <course>8.0</course>
  <speed>0.57</speed>
  <fix>3d</fix>
</trkpt>
<trkpt lat="-27.274428" lon="151.2900656">
  <ele>348.64</ele>
  <time>2026-09-01T19:53:24Z</time>
  <course>8.0</course>
  <speed>0.5854912467321779</speed>
  <fix>3d</fix>
</trkpt>
<trkpt lat="-27.2744277" lon="151.2900657">
  <ele>348.72</ele>
  <time>2026-09-01T19:53:24Z</time>
  <course>8.0</course>
  <speed>0.5854912467321779</speed>
  <fix>3d</fix>
</trkpt>
<trkpt lat="-27.2744287" lon="151.2900656">
  <ele>348.43</ele>
  <time>2026-09-01T19:53:24Z</time>
  <course>8.0</course>
  <speed>0.57</speed>
  <fix>3d</fix>
</trkpt>
<trkpt lat="-27.2744276" lon="151.2900657">
  <ele>348.73</ele>
  <time>2026-09-01T19:53:24Z</time>
  <course>8.0</course>
  <speed>0.5854912467321779</speed>
  <fix>3d</fix>
</trkpt>
<trkpt lat="-27.2744271" lon="151.2900657">
  <ele>348.87</ele>
  <time>2026-09-01T19:53:24Z</time>
  <course>8.0</course>
  <speed>0.5953990258641678</speed>
  <fix>3d</fix>
</trkpt>
<trkpt lat="-27.2744276" lon="151.2900657">
  <ele>348.71</ele>
  <time>2026-09-01T19:53:24Z</time>
  <course>7.99</course>
  <speed>0.59</speed>
  <fix>3d</fix>
</trkpt>
<trkpt lat="-27.274427" lon="151.2900659">
  <ele>348.9</ele>
  <time>2026-09-01T19:53:24Z</time>
  <course>8.0</course>
  <speed>0.5953990258641678</speed>
  <fix>3d</fix>
</trkpt>
<trkpt lat="-27.2744266" lon="151.2900659">
  <ele>349.02</ele>
  <time>2026-09-01T19:53:24Z</time>
  <course>8.0</course>
  <speed>0.6053098380168622</speed>
  <fix>3d</fix>
</trkpt>
<trkpt lat="-27.2744276" lon="151.2900657">
  <ele>348.71</ele>
  <time>2026-09-01T19:53:24Z</time>
  <course>7.99</course>
  <speed>0.59</speed>
  <fix>3d</fix>
</trkpt>
<trkpt lat="-27.2744263" lon="151.290066">
  <ele>349.08</ele>
  <time>2026-09-01T19:53:24Z</time>
  <course>8.0</course>
  <speed>0.6053098380168622</speed>
  <fix>3d</fix>
</trkpt>
<trkpt lat="-27.274426" lon="151.290066">
  <ele>349.16</ele>
  <time>2026-09-01T19:53:24Z</time>
  <course>7.99</course>
  <speed>0.6152235366108809</speed>
  <fix>3d</fix>
</trkpt>
<trkpt lat="-27.2744266" lon="151.2900659">
  <ele>349.01</ele>
  <time>2026-09-01T19:53:24Z</time>
  <course>8.0</course>
  <speed>0.6</speed>
  <fix>3d</fix>
</trkpt>
<trkpt lat="-27.2744258" lon="151.290066">
  <ele>349.23</ele>
  <time>2026-09-01T19:53:25Z</time>
  <course>7.99</course>
  <speed>0.6152235366108809</speed>
  <fix>3d</fix>
</trkpt>
<trkpt lat="-27.2744255" lon="151.2900661">
  <ele>349.31</ele>
  <time>2026-09-01T19:53:25Z</time>
  <course>7.99</course>
  <speed>0.6152235366108809</speed>
  <fix>3d</fix>
</trkpt>
<trkpt lat="-27.2744266" lon="151.2900659">
  <ele>349.01</ele>
  <time>2026-09-01T19:53:25Z</time>
  <course>8.0</course>
  <speed>0.6</speed>
  <fix>3d</fix>
</trkpt>
<trkpt lat="-27.2744252" lon="151.2900661">
  <ele>349.38</ele>
  <time>2026-09-01T19:53:25Z</time>
  <course>7.99</course>
  <speed>0.6251399843235114</speed>
  <fix>3d</fix>
</trkpt>
<trkpt lat="-27.2744249" lon="151.2900661">
  <ele>349.46</ele>
  <time>2026-09-01T19:53:25Z</time>
  <course>7.99</course>
  <speed>0.6251399843235114</speed>
  <fix>3d</fix>
</trkpt>
<trkpt lat="-27.2744255" lon="151.2900661">
  <ele>349.3</ele>
  <time>2026-09-01T19:53:25Z</time>
  <course>8.02</course>
  <speed>0.62</speed>
  <fix>3d</fix>
</trkpt>
<trkpt lat="-27.2744247" lon="151.2900661">
  <ele>349.52</ele>
  <time>2026-09-01T19:53:25Z</time>
  <course>7.99</course>
  <speed>0.6350590523722971</speed>
  <fix>3d</fix>
</trkpt>
<trkpt lat="-27.2744244" lon="151.2900663">
  <ele>349.61</ele>
  <time>2026-09-01T19:53:25Z</time>
  <course>7.99</course>
  <speed>0.6350590523722971</speed>
  <fix>3d</fix>
</trkpt>
<trkpt lat="-27.2744255" lon="151.2900661">
  <ele>349.3</ele>
  <time>2026-09-01T19:53:25Z</time>
  <course>8.02</course>
  <speed>0.62</speed>
  <fix>3d</fix>
</trkpt>
<trkpt lat="-27.2744241" lon="151.2900663">
  <ele>349.67</ele>
  <time>2026-09-01T19:53:25Z</time>
  <course>7.99</course>
  <speed>0.6363961030678928</speed>
  <fix>3d</fix>
</trkpt>
<trkpt lat="-27.2744238" lon="151.2900664">
  <ele>349.76</ele>
  <time>2026-09-01T19:53:25Z</time>
  <course>7.99</course>
  <speed>0.646297145282261</speed>
  <fix>3d</fix>
</trkpt>
<trkpt lat="-27.2744244" lon="151.2900662">
  <ele>349.6</ele>
  <time>2026-09-01T19:53:25Z</time>
  <course>8.03</course>
  <speed>0.64</speed>
  <fix>3d</fix>
</trkpt>
<trkpt lat="-27.2744236" lon="151.2900664">
  <ele>349.82</ele>
  <time>2026-09-01T19:53:25Z</time>
  <course>7.99</course>
  <speed>0.646297145282261</speed>
  <fix>3d</fix>
</trkpt>
<trkpt lat="-27.2744232" lon="151.2900665">
  <ele>349.9</ele>
  <time>2026-09-01T19:53:25Z</time>
  <course>7.99</course>
  <speed>0.6562011886609167</speed>
  <fix>3d</fix>
</trkpt>
<trkpt lat="-27.2744244" lon="151.2900662">
  <ele>349.6</ele>
  <time>2026-09-01T19:53:25Z</time>
  <course>8.03</course>
  <speed>0.64</speed>
  <fix>3d</fix>
</trkpt>
<trkpt lat="-27.2744229" lon="151.2900665">
  <ele>349.97</ele>
  <time>2026-09-01T19:53:25Z</time>
  <course>7.99</course>
  <speed>0.6562011886609167</speed>
  <fix>3d</fix>
</trkpt>
<trkpt lat="-27.2744226" lon="151.2900666">
  <ele>350.05</ele>
  <time>2026-09-01T19:53:25Z</time>
  <course>7.99</course>
  <speed>0.6562011886609167</speed>
  <fix>3d</fix>
</trkpt>
<trkpt lat="-27.2744232" lon="151.2900664">
  <ele>349.89</ele>
  <time>2026-09-01T19:53:25Z</time>
  <course>8.04</course>
  <speed>0.65</speed>
  <fix>3d</fix>
</trkpt>
<trkpt lat="-27.2744224" lon="151.2900666">
  <ele>350.11</ele>
  <time>2026-09-01T19:53:25Z</time>
  <course>7.99</course>
  <speed>0.6661080993352355</speed>
  <fix>3d</fix>
</trkpt>
<trkpt lat="-27.274422" lon="151.2900666">
  <ele>350.2</ele>
  <time>2026-09-01T19:53:25Z</time>
  <course>7.99</course>
  <speed>0.6661080993352355</speed>
  <fix>3d</fix>
</trkpt>
<trkpt lat="-27.2744232" lon="151.2900664">
  <ele>349.89</ele>
  <time>2026-09-01T19:53:25Z</time>
  <course>8.04</course>
  <speed>0.65</speed>
  <fix>3d</fix>
</trkpt>
<trkpt lat="-27.2744218" lon="151.2900666">
  <ele>350.25</ele>
  <time>2026-09-01T19:53:25Z</time>
  <course>7.99</course>
  <speed>0.6760177512462228</speed>
  <fix>3d</fix>
</trkpt>
<trkpt lat="-27.2744214" lon="151.2900666">
  <ele>350.34</ele>
  <time>2026-09-01T19:53:25Z</time>
  <course>7.99</course>
  <speed>0.6760177512462228</speed>
  <fix>3d</fix>
</trkpt>
<trkpt lat="-27.274422" lon="151.2900666">
  <ele>350.18</ele>
  <time>2026-09-01T19:53:25Z</time>
  <course>8.06</course>
  <speed>0.67</speed>
  <fix>3d</fix>
</trkpt>
<trkpt lat="-27.2744213" lon="151.2900668">
  <ele>350.37</ele>
  <time>2026-09-01T19:53:25Z</time>
  <course>7.99</course>
  <speed>0.6760177512462228</speed>
  <fix>3d</fix>
</trkpt>
<trkpt lat="-27.2744208" lon="151.2900668">
  <ele>350.49</ele>
  <time>2026-09-01T19:53:25Z</time>
  <course>8.0</course>
  <speed>0.6859300255857006</speed>
  <fix>3d</fix>
</trkpt>
<trkpt lat="-27.274422" lon="151.2900666">
  <ele>350.18</ele>
  <time>2026-09-01T19:53:25Z</time>
  <course>8.06</course>
  <speed>0.67</speed>
  <fix>3d</fix>
</trkpt>
<trkpt lat="-27.2744207" lon="151.2900669">
  <ele>350.51</ele>
  <time>2026-09-01T19:53:25Z</time>
  <course>8.0</course>
  <speed>0.6859300255857006</speed>
  <fix>3d</fix>
</trkpt>
<trkpt lat="-27.2744202" lon="151.2900669">
  <ele>350.63</ele>
  <time>2026-09-01T19:53:25Z</time>
  <course>8.0</course>
  <speed>0.6859300255857006</speed>
  <fix>3d</fix>
</trkpt>
<trkpt lat="-27.2744208" lon="151.2900667">
  <ele>350.47</ele>
  <time>2026-09-01T19:53:25Z</time>
  <course>8.07</course>
  <speed>0.68</speed>
  <fix>3d</fix>
</trkpt>
<trkpt lat="-27.2744199" lon="151.290067">
  <ele>350.7</ele>
  <time>2026-09-01T19:53:25Z</time>
  <course>8.0</course>
  <speed>0.6958448102845921</speed>
  <fix>3d</fix>
</trkpt>
<trkpt lat="-27.2744196" lon="151.290067">
  <ele>350.77</ele>
  <time>2026-09-01T19:53:25Z</time>
  <course>8.0</course>
  <speed>0.6958448102845921</speed>
  <fix>3d</fix>
</trkpt>
<trkpt lat="-27.2744208" lon="151.2900667">
  <ele>350.47</ele>
  <time>2026-09-01T19:53:25Z</time>
  <course>8.07</course>
  <speed>0.68</speed>
  <fix>3d</fix>
</trkpt>
<trkpt lat="-27.2744193" lon="151.290067">
  <ele>350.84</ele>
  <time>2026-09-01T19:53:25Z</time>
  <course>8.01</course>
  <speed>0.6958448102845921</speed>
  <fix>3d</fix>
</trkpt>
<trkpt lat="-27.2744189" lon="151.290067">
  <ele>350.92</ele>
  <time>2026-09-01T19:53:25Z</time>
  <course>8.01</course>
  <speed>0.7057619995437555</speed>
  <fix>3d</fix>
</trkpt>
<trkpt lat="-27.2744196" lon="151.290067">
  <ele>350.76</ele>
  <time>2026-09-01T19:53:25Z</time>
  <course>8.07</course>
  <speed>0.7</speed>
  <fix>3d</fix>
</trkpt>
<trkpt lat="-27.2744187" lon="151.2900671">
  <ele>350.98</ele>
  <time>2026-09-01T19:53:25Z</time>
  <course>8.01</course>
  <speed>0.7071067811865476</speed>
  <fix>3d</fix>
</trkpt>
<trkpt lat="-27.2744183" lon="151.2900671">
  <ele>351.06</ele>
  <time>2026-09-01T19:53:25Z</time>
  <course>8.01</course>
  <speed>0.717007670809734</speed>
  <fix>3d</fix>
</trkpt>
<trkpt lat="-27.2744196" lon="151.290067">
  <ele>350.76</ele>
  <time>2026-09-01T19:53:25Z</time>
  <course>8.07</course>
  <speed>0.7</speed>
  <fix>3d</fix>
</trkpt>
<trkpt lat="-27.274418" lon="151.2900673">
  <ele>351.12</ele>
  <time>2026-09-01T19:53:25Z</time>
  <course>8.01</course>
  <speed>0.717007670809734</speed>
  <fix>3d</fix>
</trkpt>
<trkpt lat="-27.2744177" lon="151.2900673">
  <ele>351.2</ele>
  <time>2026-09-01T19:53:25Z</time>
  <course>8.01</course>
  <speed>0.717007670809734</speed>
  <fix>3d</fix>
</trkpt>
<trkpt lat="-27.2744183" lon="151.2900672">
  <ele>351.05</ele>
  <time>2026-09-01T19:53:25Z</time>
  <course>8.08</course>
  <speed>0.71</speed>
  <fix>3d</fix>
</trkpt>
<trkpt lat="-27.2744174" lon="151.2900674">
  <ele>351.26</ele>
  <time>2026-09-01T19:53:25Z</time>
  <course>8.0</course>
  <speed>0.7269112738154498</speed>
  <fix>3d</fix>
</trkpt>
<trkpt lat="-27.274417" lon="151.2900674">
  <ele>351.35</ele>
  <time>2026-09-01T19:53:25Z</time>
  <course>8.0</course>
  <speed>0.7269112738154498</speed>
  <fix>3d</fix>
</trkpt>
<trkpt lat="-27.2744183" lon="151.2900672">
  <ele>351.05</ele>
  <time>2026-09-01T19:53:25Z</time>
  <course>8.08</course>
  <speed>0.71</speed>
  <fix>3d</fix>
</trkpt>
<trkpt lat="-27.2744169" lon="151.2900675">
  <ele>351.37</ele>
  <time>2026-09-01T19:53:25Z</time>
  <course>8.0</course>
  <speed>0.7269112738154498</speed>
  <fix>3d</fix>
</trkpt>
<trkpt lat="-27.2744164" lon="151.2900675">
  <ele>351.49</ele>
  <time>2026-09-01T19:53:25Z</time>
  <course>8.0</course>
  <speed>0.7368174807915459</speed>
  <fix>3d</fix>
</trkpt>
<trkpt lat="-27.274417" lon="151.2900674">
  <ele>351.34</ele>
  <time>2026-09-01T19:53:25Z</time>
  <course>8.07</course>
  <speed>0.73</speed>
  <fix>3d</fix>
</trkpt>
<trkpt lat="-27.2744161" lon="151.2900675">
  <ele>351.55</ele>
  <time>2026-09-01T19:53:25Z</time>
  <course>8.0</course>
  <speed>0.7368174807915459</speed>
  <fix>3d</fix>
</trkpt>
<trkpt lat="-27.2744157" lon="151.2900676">
  <ele>351.63</ele>
  <time>2026-09-01T19:53:25Z</time>
  <course>8.0</course>
  <speed>0.7368174807915459</speed>
  <fix>3d</fix>
</trkpt>
<trkpt lat="-27.274417" lon="151.2900674">
  <ele>351.34</ele>
  <time>2026-09-01T19:53:25Z</time>
  <course>8.07</course>
  <speed>0.73</speed>
  <fix>3d</fix>
</trkpt>
<trkpt lat="-27.2744154" lon="151.2900676">
  <ele>351.69</ele>
  <time>2026-09-01T19:53:25Z</time>
  <course>8.0</course>
  <speed>0.7467261881037789</speed>
  <fix>3d</fix>
</trkpt>
<trkpt lat="-27.274415" lon="151.2900678">
  <ele>351.77</ele>
  <time>2026-09-01T19:53:25Z</time>
  <course>8.0</course>
  <speed>0.7467261881037789</speed>
  <fix>3d</fix>
</trkpt>
<trkpt lat="-27.2744157" lon="151.2900676">
  <ele>351.62</ele>
  <time>2026-09-01T19:53:25Z</time>
  <course>8.06</course>
  <speed>0.74</speed>
  <fix>3d</fix>
</trkpt>
<trkpt lat="-27.2744148" lon="151.2900678">
  <ele>351.83</ele>
  <time>2026-09-01T19:53:25Z</time>
  <course>8.0</course>
  <speed>0.7467261881037789</speed>
  <fix>3d</fix>
</trkpt>
<trkpt lat="-27.2744144" lon="151.2900679">
  <ele>351.92</ele>
  <time>2026-09-01T19:53:25Z</time>
  <course>8.0</course>
  <speed>0.7566372975210779</speed>
  <fix>3d</fix>
</trkpt>
<trkpt lat="-27.2744157" lon="151.2900676">
  <ele>351.62</ele>
  <time>2026-09-01T19:53:25Z</time>
  <course>8.06</course>
  <speed>0.74</speed>
  <fix>3d</fix>
</trkpt>
<trkpt lat="-27.2744143" lon="151.2900679">
  <ele>351.92</ele>
  <time>2026-09-01T19:53:25Z</time>
  <course>8.0</course>
  <speed>0.7566372975210779</speed>
  <fix>3d</fix>
</trkpt>
<trkpt lat="-27.2744137" lon="151.290068">
  <ele>352.06</ele>
  <time>2026-09-01T19:53:25Z</time>
  <course>8.0</course>
  <speed>0.7566372975210779</speed>
  <fix>3d</fix>
</trkpt>
<trkpt lat="-27.2744144" lon="151.2900679">
  <ele>351.9</ele>
  <time>2026-09-01T19:53:25Z</time>
  <course>8.04</course>
  <speed>0.75</speed>
  <fix>3d</fix>
</trkpt>
<trkpt lat="-27.2744135" lon="151.290068">
  <ele>352.09</ele>
  <time>2026-09-01T19:53:25Z</time>
  <course>8.0</course>
  <speed>0.766550715869472</speed>
  <fix>3d</fix>
</trkpt>
<trkpt lat="-27.274413" lon="151.290068">
  <ele>352.2</ele>
  <time>2026-09-01T19:53:25Z</time>
  <course>8.0</course>
  <speed>0.766550715869472</speed>
  <fix>3d</fix>
</trkpt>
<trkpt lat="-27.2744144" lon="151.2900679">
  <ele>351.9</ele>
  <time>2026-09-01T19:53:25Z</time>
  <course>8.04</course>
  <speed>0.75</speed>
  <fix>3d</fix>
</trkpt>
<trkpt lat="-27.2744128" lon="151.290068">
  <ele>352.25</ele>
  <time>2026-09-01T19:53:25Z</time>
  <course>8.0</course>
  <speed>0.766550715869472</speed>
  <fix>3d</fix>
</trkpt>
<trkpt lat="-27.2744123" lon="151.2900681">
  <ele>352.35</ele>
  <time>2026-09-01T19:53:25Z</time>
  <course>8.0</course>
  <speed>0.7764663547121665</speed>
  <fix>3d</fix>
</trkpt>
<trkpt lat="-27.274413" lon="151.290068">
  <ele>352.19</ele>
  <time>2026-09-01T19:53:25Z</time>
  <course>8.04</course>
  <speed>0.77</speed>
  <fix>3d</fix>
</trkpt>
<trkpt lat="-27.274412" lon="151.2900681">
  <ele>352.4</ele>
  <time>2026-09-01T19:53:25Z</time>
  <course>8.0</course>
  <speed>0.7764663547121665</speed>
  <fix>3d</fix>
</trkpt>
<trkpt lat="-27.2744116" lon="151.2900683">
  <ele>352.49</ele>
  <time>2026-09-01T19:53:25Z</time>
  <course>8.0</course>
  <speed>0.7778174593052023</speed>
  <fix>3d</fix>
</trkpt>
<trkpt lat="-27.274413" lon="151.290068">
  <ele>352.19</ele>
  <time>2026-09-01T19:53:25Z</time>
  <course>8.04</course>
  <speed>0.77</speed>
  <fix>3d</fix>
</trkpt>
<trkpt lat="-27.2744114" lon="151.2900683">
  <ele>352.54</ele>
  <time>2026-09-01T19:53:25Z</time>
  <course>8.0</course>
  <speed>0.7877182237323191</speed>
  <fix>3d</fix>
</trkpt>
<trkpt lat="-27.2744109" lon="151.2900684">
  <ele>352.63</ele>
  <time>2026-09-01T19:53:25Z</time>
  <course>8.0</course>
  <speed>0.7877182237323191</speed>
  <fix>3d</fix>
</trkpt>
<trkpt lat="-27.2744116" lon="151.2900682">
  <ele>352.48</ele>
  <time>2026-09-01T19:53:25Z</time>
  <course>8.06</course>
  <speed>0.78</speed>
  <fix>3d</fix>
</trkpt>
<trkpt lat="-27.2744107" lon="151.2900685">
  <ele>352.68</ele>
  <time>2026-09-01T19:53:25Z</time>
  <course>8.0</course>
  <speed>0.7877182237323191</speed>
  <fix>3d</fix>
</trkpt>
<trkpt lat="-27.2744102" lon="151.2900685">
  <ele>352.78</ele>
  <time>2026-09-01T19:53:25Z</time>
  <course>8.0</course>
  <speed>0.7976214641043707</speed>
  <fix>3d</fix>
</trkpt>
<trkpt lat="-27.2744116" lon="151.2900682">
  <ele>352.48</ele>
  <time>2026-09-01T19:53:25Z</time>
  <course>8.06</course>
  <speed>0.78</speed>
  <fix>3d</fix>
</trkpt>
<trkpt lat="-27.2744099" lon="151.2900685">
  <ele>352.83</ele>
  <time>2026-09-01T19:53:25Z</time>
  <course>8.0</course>
  <speed>0.7976214641043707</speed>
  <fix>3d</fix>
</trkpt>
<trkpt lat="-27.2744095" lon="151.2900685">
  <ele>352.92</ele>
  <time>2026-09-01T19:53:25Z</time>
  <course>8.0</course>
  <speed>0.8075270893288967</speed>
  <fix>3d</fix>
</trkpt>
<trkpt lat="-27.2744102" lon="151.2900685">
  <ele>352.77</ele>
  <time>2026-09-01T19:53:25Z</time>
  <course>8.08</course>
  <speed>0.8</speed>
  <fix>3d</fix>
</trkpt>
<trkpt lat="-27.2744092" lon="151.2900687">
  <ele>352.97</ele>
  <time>2026-09-01T19:53:25Z</time>
  <course>8.0</course>
  <speed>0.8075270893288967</speed>
  <fix>3d</fix>
</trkpt>
<trkpt lat="-27.2744088" lon="151.2900688">
  <ele>353.06</ele>
  <time>2026-09-01T19:53:25Z</time>
  <course>8.0</course>
  <speed>0.8075270893288967</speed>
  <fix>3d</fix>
</trkpt>
<trkpt lat="-27.2744102" lon="151.2900685">
  <ele>352.77</ele>
  <time>2026-09-01T19:53:25Z</time>
  <course>8.08</course>
  <speed>0.8</speed>
  <fix>3d</fix>
</trkpt>
<trkpt lat="-27.2744085" lon="151.2900688">
  <ele>353.12</ele>
  <time>2026-09-01T19:53:25Z</time>
  <course>8.0</course>
  <speed>0.8174350127074322</speed>
  <fix>3d</fix>
</trkpt>
<trkpt lat="-27.274408" lon="151.2900689">
  <ele>353.21</ele>
  <time>2026-09-01T19:53:25Z</time>
  <course>8.0</course>
  <speed>0.8174350127074322</speed>
  <fix>3d</fix>
</trkpt>
<trkpt lat="-27.2744087" lon="151.2900687">
  <ele>353.05</ele>
  <time>2026-09-01T19:53:25Z</time>
  <course>8.11</course>
  <speed>0.81</speed>
  <fix>3d</fix>
</trkpt>
<trkpt lat="-27.2744073" lon="151.290069">
  <ele>353.35</ele>
  <time>2026-09-01T19:53:25Z</time>
  <course>8.0</course>
  <speed>0.8273451516749222</speed>
  <fix>3d</fix>
</trkpt>
<trkpt lat="-27.2744087" lon="151.2900687">
  <ele>353.05</ele>
  <time>2026-09-01T19:53:25Z</time>
  <course>8.11</course>
  <speed>0.81</speed>
  <fix>3d</fix>
</trkpt>
<trkpt lat="-27.2744066" lon="151.290069">
  <ele>353.49</ele>
  <time>2026-09-01T19:53:25Z</time>
  <course>8.0</course>
  <speed>0.8273451516749222</speed>
  <fix>3d</fix>
</trkpt>
<trkpt lat="-27.2744073" lon="151.290069">
  <ele>353.34</ele>
  <time>2026-09-01T19:53:25Z</time>
  <course>8.12</course>
  <speed>0.82</speed>
  <fix>3d</fix>
</trkpt>
<trkpt lat="-27.2744058" lon="151.2900692">
  <ele>353.63</ele>
  <time>2026-09-01T19:53:25Z</time>
  <course>8.0</course>
  <speed>0.8372574275573791</speed>
  <fix>3d</fix>
</trkpt>
<trkpt lat="-27.2744073" lon="151.290069">
  <ele>353.34</ele>
  <time>2026-09-01T19:53:25Z</time>
  <course>8.12</course>
  <speed>0.82</speed>
  <fix>3d</fix>
</trkpt>
<trkpt lat="-27.2744051" lon="151.2900694">
  <ele>353.76</ele>
  <time>2026-09-01T19:53:25Z</time>
  <course>8.0</course>
  <speed>0.8372574275573791</speed>
  <fix>3d</fix>
</trkpt>
<trkpt lat="-27.2744058" lon="151.2900692">
  <ele>353.62</ele>
  <time>2026-09-01T19:53:25Z</time>
  <course>8.11</course>
  <speed>0.84</speed>
  <fix>3d</fix>
</trkpt>
<trkpt lat="-27.2744043" lon="151.2900694">
  <ele>353.88</ele>
  <time>2026-09-01T19:53:25Z</time>
  <course>8.0</course>
  <speed>0.848528137423857</speed>
  <fix>3d</fix>
</trkpt>
<trkpt lat="-27.2744058" lon="151.2900692">
  <ele>353.62</ele>
  <time>2026-09-01T19:53:25Z</time>
  <course>8.11</course>
  <speed>0.84</speed>
  <fix>3d</fix>
</trkpt>
<trkpt lat="-27.2744035" lon="151.2900695">
  <ele>353.99</ele>
  <time>2026-09-01T19:53:25Z</time>
  <course>8.0</course>
  <speed>0.848528137423857</speed>
  <fix>3d</fix>
</trkpt>
<trkpt lat="-27.2744043" lon="151.2900694">
  <ele>353.87</ele>
  <time>2026-09-01T19:53:25Z</time>
  <course>8.1</course>
  <speed>0.85</speed>
  <fix>3d</fix>
</trkpt>
<trkpt lat="-27.2744028" lon="151.2900697">
  <ele>354.08</ele>
  <time>2026-09-01T19:53:25Z</time>
  <course>8.0</course>
  <speed>0.8584287972802404</speed>
  <fix>3d</fix>
</trkpt>
<trkpt lat="-27.2744043" lon="151.2900694">
  <ele>353.87</ele>
  <time>2026-09-01T19:53:25Z</time>
  <course>8.1</course>
  <speed>0.85</speed>
  <fix>3d</fix>
</trkpt>
<trkpt lat="-27.274402" lon="151.2900698">
  <ele>354.15</ele>
  <time>2026-09-01T19:53:25Z</time>
  <course>8.0</course>
  <speed>0.8584287972802404</speed>
  <fix>3d</fix>
</trkpt>
<trkpt lat="-27.2744028" lon="151.2900697">
  <ele>354.06</ele>
  <time>2026-09-01T19:53:25Z</time>
  <course>8.07</course>
  <speed>0.85</speed>
  <fix>3d</fix>
</trkpt>
<trkpt lat="-27.2744012" lon="151.2900699">
  <ele>354.2</ele>
  <time>2026-09-01T19:53:25Z</time>
  <course>8.0</course>
  <speed>0.8584287972802404</speed>
  <fix>3d</fix>
</trkpt>
<trkpt lat="-27.2744028" lon="151.2900697">
  <ele>354.06</ele>
  <time>2026-09-01T19:53:25Z</time>
  <course>8.07</course>
  <speed>0.85</speed>
  <fix>3d</fix>
</trkpt>
<trkpt lat="-27.2744005" lon="151.29007">
  <ele>354.23</ele>
  <time>2026-09-01T19:53:25Z</time>
  <course>8.0</course>
  <speed>0.8584287972802404</speed>
  <fix>3d</fix>
</trkpt>
<trkpt lat="-27.2744012" lon="151.2900699">
  <ele>354.18</ele>
  <time>2026-09-01T19:53:25Z</time>
  <course>8.05</course>
  <speed>0.86</speed>
  <fix>3d</fix>
</trkpt>
<trkpt lat="-27.2743997" lon="151.2900702">
  <ele>354.25</ele>
  <time>2026-09-01T19:53:25Z</time>
  <course>8.0</course>
  <speed>0.8683317338436964</speed>
  <fix>3d</fix>
</trkpt>
<trkpt lat="-27.2744012" lon="151.2900699">
  <ele>354.18</ele>
  <time>2026-09-01T19:53:25Z</time>
  <course>8.05</course>
  <speed>0.86</speed>
  <fix>3d</fix>
</trkpt>
<trkpt lat="-27.2743989" lon="151.2900703">
  <ele>354.26</ele>
  <time>2026-09-01T19:53:25Z</time>
  <course>8.0</course>
  <speed>0.8683317338436964</speed>
  <fix>3d</fix>
</trkpt>
<trkpt lat="-27.2743997" lon="151.2900702">
  <ele>354.24</ele>
  <time>2026-09-01T19:53:25Z</time>
  <course>8.03</course>
  <speed>0.86</speed>
  <fix>3d</fix>
</trkpt>
<trkpt lat="-27.2743982" lon="151.2900704">
  <ele>354.26</ele>
  <time>2026-09-01T19:53:25Z</time>
  <course>8.0</course>
  <speed>0.8683317338436964</speed>
  <fix>3d</fix>
</trkpt>
<trkpt lat="-27.2743997" lon="151.2900702">
  <ele>354.24</ele>
  <time>2026-09-01T19:53:25Z</time>
  <course>8.03</course>
  <speed>0.86</speed>
  <fix>3d</fix>
</trkpt>
<trkpt lat="-27.2743974" lon="151.2900706">
  <ele>354.25</ele>
  <time>2026-09-01T19:53:25Z</time>
  <course>8.0</course>
  <speed>0.8683317338436964</speed>
  <fix>3d</fix>
</trkpt>
<trkpt lat="-27.2743982" lon="151.2900704">
  <ele>354.25</ele>
  <time>2026-09-01T19:53:25Z</time>
  <course>8.02</course>
  <speed>0.87</speed>
  <fix>3d</fix>
</trkpt>
<trkpt lat="-27.2743966" lon="151.2900707">
  <ele>354.23</ele>
  <time>2026-09-01T19:53:25Z</time>
  <course>8.0</course>
  <speed>0.8683317338436964</speed>
  <fix>3d</fix>
</trkpt>
<trkpt lat="-27.2743982" lon="151.2900704">
  <ele>354.25</ele>
  <time>2026-09-01T19:53:25Z</time>
  <course>8.02</course>
  <speed>0.87</speed>
  <fix>3d</fix>
</trkpt>
<trkpt lat="-27.2743958" lon="151.2900708">
  <ele>354.21</ele>
  <time>2026-09-01T19:53:25Z</time>
  <course>8.0</course>
  <speed>0.8683317338436964</speed>
  <fix>3d</fix>
</trkpt>
<trkpt lat="-27.2743966" lon="151.2900707">
  <ele>354.22</ele>
  <time>2026-09-01T19:53:25Z</time>
  <course>8.0</course>
  <speed>0.87</speed>
  <fix>3d</fix>
</trkpt>
<trkpt lat="-27.274395" lon="151.2900709">
  <ele>354.19</ele>
  <time>2026-09-01T19:53:25Z</time>
  <course>8.0</course>
  <speed>0.8683317338436964</speed>
  <fix>3d</fix>
</trkpt>
<trkpt lat="-27.2743966" lon="151.2900707">
  <ele>354.22</ele>
  <time>2026-09-01T19:53:25Z</time>
  <course>8.0</course>
  <speed>0.87</speed>
  <fix>3d</fix>
</trkpt>
<trkpt lat="-27.2743943" lon="151.2900711">
  <ele>354.17</ele>
  <time>2026-09-01T19:53:25Z</time>
  <course>8.0</course>
  <speed>0.8683317338436964</speed>
  <fix>3d</fix>
</trkpt>
<trkpt lat="-27.2743951" lon="151.2900709">
  <ele>354.19</ele>
  <time>2026-09-01T19:53:25Z</time>
  <course>7.99</course>
  <speed>0.87</speed>
  <fix>3d</fix>
</trkpt>
<trkpt lat="-27.2743935" lon="151.2900712">
  <ele>354.15</ele>
  <time>2026-09-01T19:53:25Z</time>
  <course>8.0</course>
  <speed>0.8683317338436964</speed>
  <fix>3d</fix>
</trkpt>
<trkpt lat="-27.2743951" lon="151.2900709">
  <ele>354.19</ele>
  <time>2026-09-01T19:53:25Z</time>
  <course>7.99</course>
  <speed>0.87</speed>
  <fix>3d</fix>
</trkpt>
<trkpt lat="-27.2743927" lon="151.2900713">
  <ele>354.14</ele>
  <time>2026-09-01T19:53:25Z</time>
  <course>8.0</course>
  <speed>0.8782368700982669</speed>
  <fix>3d</fix>
</trkpt>
<trkpt lat="-27.2743935" lon="151.2900712">
  <ele>354.15</ele>
  <time>2026-09-01T19:53:25Z</time>
  <course>8.0</course>
  <speed>0.87</speed>
  <fix>3d</fix>
</trkpt>
<trkpt lat="-27.2743919" lon="151.2900713">
  <ele>354.13</ele>
  <time>2026-09-01T19:53:25Z</time>
  <course>8.0</course>
  <speed>0.8782368700982669</speed>
  <fix>3d</fix>
</trkpt>
<trkpt lat="-27.2743935" lon="151.2900712">
  <ele>354.15</ele>
  <time>2026-09-01T19:53:25Z</time>
  <course>8.0</course>
  <speed>0.87</speed>
  <fix>3d</fix>
</trkpt>
<trkpt lat="-27.2743911" lon="151.2900716">
  <ele>354.12</ele>
  <time>2026-09-01T19:53:25Z</time>
  <course>8.0</course>
  <speed>0.8782368700982669</speed>
  <fix>3d</fix>
</trkpt>
<trkpt lat="-27.2743919" lon="151.2900714">
  <ele>354.13</ele>
  <time>2026-09-01T19:53:25Z</time>
  <course>8.0</course>
  <speed>0.87</speed>
  <fix>3d</fix>
</trkpt>
<trkpt lat="-27.2743904" lon="151.2900717">
  <ele>354.12</ele>
  <time>2026-09-01T19:53:25Z</time>
  <course>8.0</course>
  <speed>0.8782368700982669</speed>
  <fix>3d</fix>
</trkpt>
<trkpt lat="-27.2743919" lon="151.2900714">
  <ele>354.13</ele>
  <time>2026-09-01T19:53:25Z</time>
  <course>8.0</course>
  <speed>0.87</speed>
  <fix>3d</fix>
</trkpt>
<trkpt lat="-27.2743896" lon="151.2900718">
  <ele>354.12</ele>
  <time>2026-09-01T19:53:25Z</time>
  <course>8.0</course>
  <speed>0.8782368700982669</speed>
  <fix>3d</fix>
</trkpt>
<trkpt lat="-27.2743904" lon="151.2900717">
  <ele>354.12</ele>
  <time>2026-09-01T19:53:25Z</time>
  <course>8.01</course>
  <speed>0.87</speed>
  <fix>3d</fix>
</trkpt>
<trkpt lat="-27.2743887" lon="151.2900718">
  <ele>354.13</ele>
  <time>2026-09-01T19:53:25Z</time>
  <course>8.0</course>
  <speed>0.8683317338436964</speed>
  <fix>3d</fix>
</trkpt>
<trkpt lat="-27.2743904" lon="151.2900717">
  <ele>354.12</ele>
  <time>2026-09-01T19:53:25Z</time>
  <course>8.01</course>
  <speed>0.87</speed>
  <fix>3d</fix>
</trkpt>
<trkpt lat="-27.274388" lon="151.2900721">
  <ele>354.14</ele>
  <time>2026-09-01T19:53:25Z</time>
  <course>7.99</course>
  <speed>0.8683317338436964</speed>
  <fix>3d</fix>
</trkpt>
<trkpt lat="-27.2743888" lon="151.2900719">
  <ele>354.13</ele>
  <time>2026-09-01T19:53:25Z</time>
  <course>8.02</course>
  <speed>0.87</speed>
  <fix>3d</fix>
</trkpt>
<trkpt lat="-27.2743872" lon="151.2900722">
  <ele>354.15</ele>
  <time>2026-09-01T19:53:25Z</time>
  <course>7.99</course>
  <speed>0.8683317338436964</speed>
  <fix>3d</fix>
</trkpt>
<trkpt lat="-27.2743888" lon="151.2900719">
  <ele>354.13</ele>
  <time>2026-09-01T19:53:25Z</time>
  <course>8.02</course>
  <speed>0.87</speed>
  <fix>3d</fix>
</trkpt>
<trkpt lat="-27.2743865" lon="151.2900723">
  <ele>354.16</ele>
  <time>2026-09-01T19:53:25Z</time>
  <course>7.99</course>
  <speed>0.8683317338436964</speed>
  <fix>3d</fix>
</trkpt>
<trkpt lat="-27.2743873" lon="151.2900722">
  <ele>354.15</ele>
  <time>2026-09-01T19:53:25Z</time>
  <course>8.02</course>
  <speed>0.87</speed>
  <fix>3d</fix>
</trkpt>
<trkpt lat="-27.2743857" lon="151.2900723">
  <ele>354.17</ele>
  <time>2026-09-01T19:53:25Z</time>
  <course>7.99</course>
  <speed>0.8683317338436964</speed>
  <fix>3d</fix>
</trkpt>
<trkpt lat="-27.2743873" lon="151.2900722">
  <ele>354.15</ele>
  <time>2026-09-01T19:53:25Z</time>
  <course>8.02</course>
  <speed>0.87</speed>
  <fix>3d</fix>
</trkpt>
<trkpt lat="-27.2743849" lon="151.2900726">
  <ele>354.18</ele>
  <time>2026-09-01T19:53:25Z</time>
  <course>7.99</course>
  <speed>0.8683317338436964</speed>
  <fix>3d</fix>
</trkpt>
<trkpt lat="-27.2743856" lon="151.2900724">
  <ele>354.16</ele>
  <time>2026-09-01T19:53:25Z</time>
  <course>8.03</course>
  <speed>0.87</speed>
  <fix>3d</fix>
</trkpt>
<trkpt lat="-27.2743841" lon="151.2900727">
  <ele>354.19</ele>
  <time>2026-09-01T19:53:25Z</time>
  <course>8.0</course>
  <speed>0.8683317338436964</speed>
  <fix>3d</fix>
</trkpt>
<trkpt lat="-27.2743856" lon="151.2900724">
  <ele>354.16</ele>
  <time>2026-09-01T19:53:25Z</time>
  <course>8.03</course>
  <speed>0.87</speed>
  <fix>3d</fix>
</trkpt>
<trkpt lat="-27.2743833" lon="151.2900728">
  <ele>354.2</ele>
  <time>2026-09-01T19:53:25Z</time>
  <course>8.0</course>
  <speed>0.8683317338436964</speed>
  <fix>3d</fix>
</trkpt>
<trkpt lat="-27.2743841" lon="151.2900727">
  <ele>354.19</ele>
  <time>2026-09-01T19:53:25Z</time>
  <course>8.04</course>
  <speed>0.87</speed>
  <fix>3d</fix>
</trkpt>
<trkpt lat="-27.2743825" lon="151.2900728">
  <ele>354.21</ele>
  <time>2026-09-01T19:53:25Z</time>
  <course>8.0</course>
  <speed>0.8683317338436964</speed>
  <fix>3d</fix>
</trkpt>
<trkpt lat="-27.2743841" lon="151.2900727">
  <ele>354.19</ele>
  <time>2026-09-01T19:53:25Z</time>
  <course>8.04</course>
  <speed>0.87</speed>
  <fix>3d</fix>
</trkpt>
<trkpt lat="-27.2743818" lon="151.2900731">
  <ele>354.22</ele>
  <time>2026-09-01T19:53:25Z</time>
  <course>8.0</course>
  <speed>0.8683317338436964</speed>
  <fix>3d</fix>
</trkpt>
<trkpt lat="-27.2743826" lon="151.2900729">
  <ele>354.21</ele>
  <time>2026-09-01T19:53:25Z</time>
  <course>8.03</course>
  <speed>0.87</speed>
  <fix>3d</fix>
</trkpt>
<trkpt lat="-27.274381" lon="151.2900732">
  <ele>354.23</ele>
  <time>2026-09-01T19:53:25Z</time>
  <course>8.0</course>
  <speed>0.8683317338436964</speed>
  <fix>3d</fix>
</trkpt>
<trkpt lat="-27.2743826" lon="151.2900729">
  <ele>354.21</ele>
  <time>2026-09-01T19:53:25Z</time>
  <course>8.03</course>
  <speed>0.87</speed>
  <fix>3d</fix>
</trkpt>
<trkpt lat="-27.2743802" lon="151.2900733">
  <ele>354.23</ele>
  <time>2026-09-01T19:53:25Z</time>
  <course>8.0</course>
  <speed>0.8683317338436964</speed>
  <fix>3d</fix>
</trkpt>
<trkpt lat="-27.274381" lon="151.2900732">
  <ele>354.22</ele>
  <time>2026-09-01T19:53:25Z</time>
  <course>8.02</course>
  <speed>0.87</speed>
  <fix>3d</fix>
</trkpt>
<trkpt lat="-27.2743794" lon="151.2900733">
  <ele>354.23</ele>
  <time>2026-09-01T19:53:25Z</time>
  <course>8.0</course>
  <speed>0.8683317338436964</speed>
  <fix>3d</fix>
</trkpt>
<trkpt lat="-27.274381" lon="151.2900732">
  <ele>354.22</ele>
  <time>2026-09-01T19:53:25Z</time>
  <course>8.02</course>
  <speed>0.87</speed>
  <fix>3d</fix>
</trkpt>
<trkpt lat="-27.2743787" lon="151.2900736">
  <ele>354.23</ele>
  <time>2026-09-01T19:53:25Z</time>
  <course>8.01</course>
  <speed>0.8683317338436964</speed>
  <fix>3d</fix>
</trkpt>
<trkpt lat="-27.2743794" lon="151.2900733">
  <ele>354.23</ele>
  <time>2026-09-01T19:53:25Z</time>
  <course>8.0</course>
  <speed>0.87</speed>
  <fix>3d</fix>
</trkpt>
<trkpt lat="-27.2743779" lon="151.2900737">
  <ele>354.23</ele>
  <time>2026-09-01T19:53:25Z</time>
  <course>8.01</course>
  <speed>0.8683317338436964</speed>
  <fix>3d</fix>
</trkpt>
<trkpt lat="-27.2743794" lon="151.2900733">
  <ele>354.23</ele>
  <time>2026-09-01T19:53:25Z</time>
  <course>8.0</course>
  <speed>0.87</speed>
  <fix>3d</fix>
</trkpt>
<trkpt lat="-27.2743771" lon="151.2900737">
  <ele>354.23</ele>
  <time>2026-09-01T19:53:25Z</time>
  <course>8.01</course>
  <speed>0.8683317338436964</speed>
  <fix>3d</fix>
</trkpt>
<trkpt lat="-27.2743779" lon="151.2900736">
  <ele>354.23</ele>
  <time>2026-09-01T19:53:25Z</time>
  <course>7.99</course>
  <speed>0.87</speed>
  <fix>3d</fix>
</trkpt>
<trkpt lat="-27.2743763" lon="151.2900738">
  <ele>354.23</ele>
  <time>2026-09-01T19:53:25Z</time>
  <course>8.0</course>
  <speed>0.8683317338436964</speed>
  <fix>3d</fix>
</trkpt>
<trkpt lat="-27.2743779" lon="151.2900736">
  <ele>354.23</ele>
  <time>2026-09-01T19:53:25Z</time>
  <course>7.99</course>
  <speed>0.87</speed>
  <fix>3d</fix>
</trkpt>
<trkpt lat="-27.2743755" lon="151.290074">
  <ele>354.23</ele>
  <time>2026-09-01T19:53:25Z</time>
  <course>8.0</course>
  <speed>0.8683317338436964</speed>
  <fix>3d</fix>
</trkpt>
<trkpt lat="-27.2743763" lon="151.2900738">
  <ele>354.23</ele>
  <time>2026-09-01T19:53:25Z</time>
  <course>7.99</course>
  <speed>0.87</speed>
  <fix>3d</fix>
</trkpt>
<trkpt lat="-27.2743748" lon="151.2900742">
  <ele>354.23</ele>
  <time>2026-09-01T19:53:25Z</time>
  <course>8.0</course>
  <speed>0.8683317338436964</speed>
  <fix>3d</fix>
</trkpt>
<trkpt lat="-27.2743763" lon="151.2900738">
  <ele>354.23</ele>
  <time>2026-09-01T19:53:25Z</time>
  <course>7.99</course>
  <speed>0.87</speed>
  <fix>3d</fix>
</trkpt>
<trkpt lat="-27.274374" lon="151.2900742">
  <ele>354.22</ele>
  <time>2026-09-01T19:53:25Z</time>
  <course>8.0</course>
  <speed>0.8683317338436964</speed>
  <fix>3d</fix>
</trkpt>
<trkpt lat="-27.2743747" lon="151.2900741">
  <ele>354.22</ele>
  <time>2026-09-01T19:53:25Z</time>
  <course>8.0</course>
  <speed>0.87</speed>
  <fix>3d</fix>
</trkpt>
<trkpt lat="-27.2743732" lon="151.2900743">
  <ele>354.22</ele>
  <time>2026-09-01T19:53:25Z</time>
  <course>8.0</course>
  <speed>0.8683317338436964</speed>
  <fix>3d</fix>
</trkpt>
<trkpt lat="-27.2743747" lon="151.2900741">
  <ele>354.22</ele>
  <time>2026-09-01T19:53:25Z</time>
  <course>8.0</course>
  <speed>0.87</speed>
  <fix>3d</fix>
</trkpt>
<trkpt lat="-27.2743724" lon="151.2900745">
  <ele>354.22</ele>
  <time>2026-09-01T19:53:25Z</time>
  <course>8.0</course>
  <speed>0.8683317338436964</speed>
  <fix>3d</fix>
</trkpt>
<trkpt lat="-27.2743732" lon="151.2900743">
  <ele>354.22</ele>
  <time>2026-09-01T19:53:25Z</time>
  <course>8.01</course>
  <speed>0.87</speed>
  <fix>3d</fix>
</trkpt>
<trkpt lat="-27.2743716" lon="151.2900747">
  <ele>354.22</ele>
  <time>2026-09-01T19:53:25Z</time>
  <course>8.0</course>
  <speed>0.8683317338436964</speed>
  <fix>3d</fix>
</trkpt>
<trkpt lat="-27.2743732" lon="151.2900743">
  <ele>354.22</ele>
  <time>2026-09-01T19:53:25Z</time>
  <course>8.01</course>
  <speed>0.87</speed>
  <fix>3d</fix>
</trkpt>
<trkpt lat="-27.2743709" lon="151.2900747">
  <ele>354.21</ele>
  <time>2026-09-01T19:53:25Z</time>
  <course>8.0</course>
  <speed>0.8683317338436964</speed>
  <fix>3d</fix>
</trkpt>
<trkpt lat="-27.2743716" lon="151.2900746">
  <ele>354.21</ele>
  <time>2026-09-01T19:53:25Z</time>
  <course>8.03</course>
  <speed>0.87</speed>
  <fix>3d</fix>
</trkpt>
<trkpt lat="-27.2743701" lon="151.2900748">
  <ele>354.21</ele>
  <time>2026-09-01T19:53:25Z</time>
  <course>8.0</course>
  <speed>0.8683317338436964</speed>
  <fix>3d</fix>
</trkpt>
<trkpt lat="-27.2743716" lon="151.2900746">
  <ele>354.21</ele>
  <time>2026-09-01T19:53:25Z</time>
  <course>8.03</course>
  <speed>0.87</speed>
  <fix>3d</fix>
</trkpt>
<trkpt lat="-27.2743693" lon="151.290075">
  <ele>354.21</ele>
  <time>2026-09-01T19:53:25Z</time>
  <course>8.01</course>
  <speed>0.8683317338436964</speed>
  <fix>3d</fix>
</trkpt>
<trkpt lat="-27.2743701" lon="151.2900748">
  <ele>354.21</ele>
  <time>2026-09-01T19:53:25Z</time>
  <course>8.05</course>
  <speed>0.87</speed>
  <fix>3d</fix>
</trkpt>
<trkpt lat="-27.2743685" lon="151.2900752">
  <ele>354.21</ele>
  <time>2026-09-01T19:53:25Z</time>
  <course>8.01</course>
  <speed>0.8683317338436964</speed>
  <fix>3d</fix>
</trkpt>
<trkpt lat="-27.2743701" lon="151.2900748">
  <ele>354.21</ele>
  <time>2026-09-01T19:53:25Z</time>
  <course>8.05</course>
  <speed>0.87</speed>
  <fix>3d</fix>
</trkpt>
<trkpt lat="-27.2743678" lon="151.2900752">
  <ele>354.21</ele>
  <time>2026-09-01T19:53:25Z</time>
  <course>8.02</course>
  <speed>0.8683317338436964</speed>
  <fix>3d</fix>
</trkpt>
<trkpt lat="-27.2743686" lon="151.2900751">
  <ele>354.21</ele>
  <time>2026-09-01T19:53:25Z</time>
  <course>8.05</course>
  <speed>0.87</speed>
  <fix>3d</fix>
</trkpt>
<trkpt lat="-27.274367" lon="151.2900754">
  <ele>354.21</ele>
  <time>2026-09-01T19:53:25Z</time>
  <course>8.02</course>
  <speed>0.8683317338436964</speed>
  <fix>3d</fix>
</trkpt>
<trkpt lat="-27.2743686" lon="151.2900751">
  <ele>354.21</ele>
  <time>2026-09-01T19:53:25Z</time>
  <course>8.05</course>
  <speed>0.87</speed>
  <fix>3d</fix>
</trkpt>
<trkpt lat="-27.2743662" lon="151.2900755">
  <ele>354.22</ele>
  <time>2026-09-01T19:53:25Z</time>
  <course>8.01</course>
  <speed>0.8683317338436964</speed>
  <fix>3d</fix>
</trkpt>
<trkpt lat="-27.274367" lon="151.2900753">
  <ele>354.21</ele>
  <time>2026-09-01T19:53:25Z</time>
  <course>8.04</course>
  <speed>0.87</speed>
  <fix>3d</fix>
</trkpt>
<trkpt lat="-27.2743655" lon="151.2900756">
  <ele>354.22</ele>
  <time>2026-09-01T19:53:25Z</time>
  <course>8.01</course>
  <speed>0.8683317338436964</speed>
  <fix>3d</fix>
</trkpt>
<trkpt lat="-27.274367" lon="151.2900753">
  <ele>354.21</ele>
  <time>2026-09-01T19:53:25Z</time>
  <course>8.04</course>
  <speed>0.87</speed>
  <fix>3d</fix>
</trkpt>
<trkpt lat="-27.2743647" lon="151.2900757">
  <ele>354.22</ele>
  <time>2026-09-01T19:53:25Z</time>
  <course>8.0</course>
  <speed>0.8683317338436964</speed>
  <fix>3d</fix>
</trkpt>
<trkpt lat="-27.2743655" lon="151.2900756">
  <ele>354.21</ele>
  <time>2026-09-01T19:53:25Z</time>
  <course>8.04</course>
  <speed>0.86</speed>
  <fix>3d</fix>
</trkpt>
<trkpt lat="-27.2743639" lon="151.2900759">
  <ele>354.22</ele>
  <time>2026-09-01T19:53:25Z</time>
  <course>7.99</course>
  <speed>0.8683317338436964</speed>
  <fix>3d</fix>
</trkpt>
<trkpt lat="-27.2743655" lon="151.2900756">
  <ele>354.21</ele>
  <time>2026-09-01T19:53:25Z</time>
  <course>8.04</course>
  <speed>0.86</speed>
  <fix>3d</fix>
</trkpt>
<trkpt lat="-27.2743631" lon="151.290076">
  <ele>354.22</ele>
  <time>2026-09-01T19:53:25Z</time>
  <course>7.99</course>
  <speed>0.8683317338436964</speed>
  <fix>3d</fix>
</trkpt>
<trkpt lat="-27.2743639" lon="151.2900758">
  <ele>354.22</ele>
  <time>2026-09-01T19:53:25Z</time>
  <course>8.06</course>
  <speed>0.86</speed>
  <fix>3d</fix>
</trkpt>
<trkpt lat="-27.2743624" lon="151.2900761">
  <ele>354.22</ele>
  <time>2026-09-01T19:53:25Z</time>
  <course>8.0</course>
  <speed>0.8584287972802404</speed>
  <fix>3d</fix>
</trkpt>
<trkpt lat="-27.2743639" lon="151.2900758">
  <ele>354.22</ele>
  <time>2026-09-01T19:53:25Z</time>
  <course>8.06</course>
  <speed>0.86</speed>
  <fix>3d</fix>
</trkpt>
<trkpt lat="-27.2743616" lon="151.2900762">
  <ele>354.22</ele>
  <time>2026-09-01T19:53:25Z</time>
  <course>8.0</course>
  <speed>0.8584287972802404</speed>
  <fix>3d</fix>
</trkpt>
<trkpt lat="-27.2743624" lon="151.2900761">
  <ele>354.22</ele>
  <time>2026-09-01T19:53:25Z</time>
  <course>8.08</course>
  <speed>0.86</speed>
  <fix>3d</fix>
</trkpt>
<trkpt lat="-27.2743608" lon="151.2900764">
  <ele>354.22</ele>
  <time>2026-09-01T19:53:25Z</time>
  <course>8.0</course>
  <speed>0.8584287972802404</speed>
  <fix>3d</fix>
</trkpt>
<trkpt lat="-27.2743624" lon="151.2900761">
  <ele>354.22</ele>
  <time>2026-09-01T19:53:25Z</time>
  <course>8.08</course>
  <speed>0.86</speed>
  <fix>3d</fix>
</trkpt>
<trkpt lat="-27.27436" lon="151.2900765">
  <ele>354.22</ele>
  <time>2026-09-01T19:53:25Z</time>
  <course>8.0</course>
  <speed>0.8584287972802404</speed>
  <fix>3d</fix>
</trkpt>
<trkpt lat="-27.2743608" lon="151.2900763">
  <ele>354.22</ele>
  <time>2026-09-01T19:53:25Z</time>
  <course>8.08</course>
  <speed>0.86</speed>
  <fix>3d</fix>
</trkpt>
<trkpt lat="-27.2743593" lon="151.2900766">
  <ele>354.22</ele>
  <time>2026-09-01T19:53:25Z</time>
  <course>8.01</course>
  <speed>0.8584287972802404</speed>
  <fix>3d</fix>
</trkpt>
<trkpt lat="-27.2743608" lon="151.2900763">
  <ele>354.22</ele>
  <time>2026-09-01T19:53:25Z</time>
  <course>8.08</course>
  <speed>0.86</speed>
  <fix>3d</fix>
</trkpt>
<trkpt lat="-27.2743585" lon="151.2900767">
  <ele>354.22</ele>
  <time>2026-09-01T19:53:25Z</time>
  <course>8.01</course>
  <speed>0.8584287972802404</speed>
  <fix>3d</fix>
</trkpt>
<trkpt lat="-27.2743593" lon="151.2900766">
  <ele>354.22</ele>
  <time>2026-09-01T19:53:25Z</time>
  <course>8.08</course>
  <speed>0.86</speed>
  <fix>3d</fix>
</trkpt>
<trkpt lat="-27.2743577" lon="151.2900769">
  <ele>354.22</ele>
  <time>2026-09-01T19:53:25Z</time>
  <course>8.02</course>
  <speed>0.8584287972802404</speed>
  <fix>3d</fix>
</trkpt>
<trkpt lat="-27.2743593" lon="151.2900766">
  <ele>354.22</ele>
  <time>2026-09-01T19:53:25Z</time>
  <course>8.08</course>
  <speed>0.86</speed>
  <fix>3d</fix>
</trkpt>
<trkpt lat="-27.274357" lon="151.290077">
  <ele>354.22</ele>
  <time>2026-09-01T19:53:25Z</time>
  <course>8.02</course>
  <speed>0.8584287972802404</speed>
  <fix>3d</fix>
</trkpt>
<trkpt lat="-27.2743577" lon="151.2900768">
  <ele>354.22</ele>
  <time>2026-09-01T19:53:25Z</time>
  <course>8.07</course>
  <speed>0.86</speed>
  <fix>3d</fix>
</trkpt>
<trkpt lat="-27.2743562" lon="151.2900771">
  <ele>354.22</ele>
  <time>2026-09-01T19:53:25Z</time>
  <course>8.02</course>
  <speed>0.8584287972802404</speed>
  <fix>3d</fix>
</trkpt>
<trkpt lat="-27.2743577" lon="151.2900768">
  <ele>354.22</ele>
  <time>2026-09-01T19:53:25Z</time>
  <course>8.07</course>
  <speed>0.86</speed>
  <fix>3d</fix>
</trkpt>
<trkpt lat="-27.2743554" lon="151.2900771">
  <ele>354.22</ele>
  <time>2026-09-01T19:53:25Z</time>
  <course>8.03</course>
  <speed>0.8584287972802404</speed>
  <fix>3d</fix>
</trkpt>
<trkpt lat="-27.2743562" lon="151.2900771">
  <ele>354.22</ele>
  <time>2026-09-01T19:53:25Z</time>
  <course>8.07</course>
  <speed>0.86</speed>
  <fix>3d</fix>
</trkpt>
<trkpt lat="-27.2743547" lon="151.2900774">
  <ele>354.22</ele>
  <time>2026-09-01T19:53:25Z</time>
  <course>8.03</course>
  <speed>0.8584287972802404</speed>
  <fix>3d</fix>
</trkpt>
<trkpt lat="-27.2743562" lon="151.2900771">
  <ele>354.22</ele>
  <time>2026-09-01T19:53:25Z</time>
  <course>8.07</course>
  <speed>0.86</speed>
  <fix>3d</fix>
</trkpt>
<trkpt lat="-27.2743539" lon="151.2900775">
  <ele>354.22</ele>
  <time>2026-09-01T19:53:25Z</time>
  <course>8.03</course>
  <speed>0.8584287972802404</speed>
  <fix>3d</fix>
</trkpt>
<trkpt lat="-27.2743546" lon="151.2900773">
  <ele>354.22</ele>
  <time>2026-09-01T19:53:25Z</time>
  <course>8.07</course>
  <speed>0.86</speed>
  <fix>3d</fix>
</trkpt>
<trkpt lat="-27.2743531" lon="151.2900776">
  <ele>354.22</ele>
  <time>2026-09-01T19:53:25Z</time>
  <course>8.03</course>
  <speed>0.8584287972802404</speed>
  <fix>3d</fix>
</trkpt>
<trkpt lat="-27.2743546" lon="151.2900773">
  <ele>354.22</ele>
  <time>2026-09-01T19:53:25Z</time>
  <course>8.07</course>
  <speed>0.86</speed>
  <fix>3d</fix>
</trkpt>
<trkpt lat="-27.2743524" lon="151.2900776">
  <ele>354.22</ele>
  <time>2026-09-01T19:53:25Z</time>
  <course>8.03</course>
  <speed>0.8584287972802404</speed>
  <fix>3d</fix>
</trkpt>
<trkpt lat="-27.2743531" lon="151.2900776">
  <ele>354.22</ele>
  <time>2026-09-01T19:53:25Z</time>
  <course>8.05</course>
  <speed>0.86</speed>
  <fix>3d</fix>
</trkpt>
<trkpt lat="-27.2743516" lon="151.2900779">
  <ele>354.22</ele>
  <time>2026-09-01T19:53:25Z</time>
  <course>8.03</course>
  <speed>0.8584287972802404</speed>
  <fix>3d</fix>
</trkpt>
<trkpt lat="-27.2743531" lon="151.2900776">
  <ele>354.22</ele>
  <time>2026-09-01T19:53:25Z</time>
  <course>8.05</course>
  <speed>0.86</speed>
  <fix>3d</fix>
</trkpt>
<trkpt lat="-27.2743507" lon="151.290078">
  <ele>354.22</ele>
  <time>2026-09-01T19:53:25Z</time>
  <course>8.02</course>
  <speed>0.8584287972802404</speed>
  <fix>3d</fix>
</trkpt>
<trkpt lat="-27.2743516" lon="151.2900778">
  <ele>354.22</ele>
  <time>2026-09-01T19:53:25Z</time>
  <course>8.06</course>
  <speed>0.86</speed>
  <fix>3d</fix>
</trkpt>
<trkpt lat="-27.2743501" lon="151.2900781">
  <ele>354.22</ele>
  <time>2026-09-01T19:53:25Z</time>
  <course>8.01</course>
  <speed>0.8584287972802404</speed>
  <fix>3d</fix>
</trkpt>
<trkpt lat="-27.2743516" lon="151.2900778">
  <ele>354.22</ele>
  <time>2026-09-01T19:53:25Z</time>
  <course>8.06</course>
  <speed>0.86</speed>
  <fix>3d</fix>
</trkpt>
<trkpt lat="-27.2743493" lon="151.2900781">
  <ele>354.22</ele>
  <time>2026-09-01T19:53:25Z</time>
  <course>8.0</course>
  <speed>0.8584287972802404</speed>
  <fix>3d</fix>
</trkpt>
<trkpt lat="-27.2743501" lon="151.2900781">
  <ele>354.22</ele>
  <time>2026-09-01T19:53:25Z</time>
  <course>8.09</course>
  <speed>0.86</speed>
  <fix>3d</fix>
</trkpt>
<trkpt lat="-27.2743485" lon="151.2900783">
  <ele>354.22</ele>
  <time>2026-09-01T19:53:25Z</time>
  <course>7.98</course>
  <speed>0.8584287972802404</speed>
  <fix>3d</fix>
</trkpt>
<trkpt lat="-27.2743501" lon="151.2900781">
  <ele>354.22</ele>
  <time>2026-09-01T19:53:25Z</time>
  <course>8.09</course>
  <speed>0.86</speed>
  <fix>3d</fix>
</trkpt>
<trkpt lat="-27.2743478" lon="151.2900785">
  <ele>354.22</ele>
  <time>2026-09-01T19:53:25Z</time>
  <course>7.97</course>
  <speed>0.8584287972802404</speed>
  <fix>3d</fix>
</trkpt>
<trkpt lat="-27.2743485" lon="151.2900783">
  <ele>354.22</ele>
  <time>2026-09-01T19:53:25Z</time>
  <course>8.13</course>
  <speed>0.85</speed>
  <fix>3d</fix>
</trkpt>
<trkpt lat="-27.274347" lon="151.2900785">
  <ele>354.22</ele>
  <time>2026-09-01T19:53:25Z</time>
  <course>7.97</course>
  <speed>0.8584287972802404</speed>
  <fix>3d</fix>
</trkpt>
<trkpt lat="-27.2743485" lon="151.2900783">
  <ele>354.22</ele>
  <time>2026-09-01T19:53:25Z</time>
  <course>8.13</course>
  <speed>0.85</speed>
  <fix>3d</fix>
</trkpt>
<trkpt lat="-27.2743462" lon="151.2900786">
  <ele>354.22</ele>
  <time>2026-09-01T19:53:25Z</time>
  <course>7.96</course>
  <speed>0.8584287972802404</speed>
  <fix>3d</fix>
</trkpt>
<trkpt lat="-27.274347" lon="151.2900785">
  <ele>354.22</ele>
  <time>2026-09-01T19:53:25Z</time>
  <course>8.13</course>
  <speed>0.85</speed>
  <fix>3d</fix>
</trkpt>
<trkpt lat="-27.2743455" lon="151.2900788">
  <ele>354.22</ele>
  <time>2026-09-01T19:53:25Z</time>
  <course>7.97</course>
  <speed>0.848528137423857</speed>
  <fix>3d</fix>
</trkpt>
<trkpt lat="-27.274347" lon="151.2900785">
  <ele>354.22</ele>
  <time>2026-09-01T19:53:25Z</time>
  <course>8.13</course>
  <speed>0.85</speed>
  <fix>3d</fix>
</trkpt>
<trkpt lat="-27.2743447" lon="151.290079">
  <ele>354.22</ele>
  <time>2026-09-01T19:53:25Z</time>
  <course>7.97</course>
  <speed>0.848528137423857</speed>
  <fix>3d</fix>
</trkpt>
<trkpt lat="-27.2743455" lon="151.2900788">
  <ele>354.22</ele>
  <time>2026-09-01T19:53:25Z</time>
  <course>8.12</course>
  <speed>0.85</speed>
  <fix>3d</fix>
</trkpt>
<trkpt lat="-27.274344" lon="151.290079">
  <ele>354.22</ele>
  <time>2026-09-01T19:53:25Z</time>
  <course>7.97</course>
  <speed>0.848528137423857</speed>
  <fix>3d</fix>
</trkpt>
<trkpt lat="-27.2743455" lon="151.2900788">
  <ele>354.22</ele>
  <time>2026-09-01T19:53:25Z</time>
  <course>8.12</course>
  <speed>0.85</speed>
  <fix>3d</fix>
</trkpt>
<trkpt lat="-27.2743431" lon="151.2900791">
  <ele>354.22</ele>
  <time>2026-09-01T19:53:25Z</time>
  <course>7.98</course>
  <speed>0.848528137423857</speed>
  <fix>3d</fix>
</trkpt>
<trkpt lat="-27.2743439" lon="151.290079">
  <ele>354.22</ele>
  <time>2026-09-01T19:53:25Z</time>
  <course>8.1</course>
  <speed>0.85</speed>
  <fix>3d</fix>
</trkpt>
<trkpt lat="-27.2743424" lon="151.2900793">
  <ele>354.22</ele>
  <time>2026-09-01T19:53:25Z</time>
  <course>7.98</course>
  <speed>0.848528137423857</speed>
  <fix>3d</fix>
</trkpt>
<trkpt lat="-27.2743439" lon="151.290079">
  <ele>354.22</ele>
  <time>2026-09-01T19:53:25Z</time>
  <course>8.1</course>
  <speed>0.85</speed>
  <fix>3d</fix>
</trkpt>
<trkpt lat="-27.2743417" lon="151.2900794">
  <ele>354.22</ele>
  <time>2026-09-01T19:53:25Z</time>
  <course>7.99</course>
  <speed>0.848528137423857</speed>
  <fix>3d</fix>
</trkpt>
<trkpt lat="-27.2743424" lon="151.2900793">
  <ele>354.22</ele>
  <time>2026-09-01T19:53:25Z</time>
  <course>8.08</course>
  <speed>0.85</speed>
  <fix>3d</fix>
</trkpt>
<trkpt lat="-27.2743409" lon="151.2900795">
  <ele>354.22</ele>
  <time>2026-09-01T19:53:25Z</time>
  <course>7.99</course>
  <speed>0.8471717653463199</speed>
  <fix>3d</fix>
</trkpt>
<trkpt lat="-27.2743424" lon="151.2900793">
  <ele>354.22</ele>
  <time>2026-09-01T19:53:25Z</time>
  <course>8.08</course>
  <speed>0.85</speed>
  <fix>3d</fix>
</trkpt>
<trkpt lat="-27.2743402" lon="151.2900797">
  <ele>354.23</ele>
  <time>2026-09-01T19:53:25Z</time>
  <course>8.0</course>
  <speed>0.8471717653463199</speed>
  <fix>3d</fix>
</trkpt>
<trkpt lat="-27.2743409" lon="151.2900795">
  <ele>354.22</ele>
  <time>2026-09-01T19:53:25Z</time>
  <course>8.06</course>
  <speed>0.85</speed>
  <fix>3d</fix>
</trkpt>
<trkpt lat="-27.2743394" lon="151.2900798">
  <ele>354.23</ele>
  <time>2026-09-01T19:53:25Z</time>
  <course>8.0</course>
  <speed>0.8471717653463199</speed>
  <fix>3d</fix>
</trkpt>
<trkpt lat="-27.2743409" lon="151.2900795">
  <ele>354.22</ele>
  <time>2026-09-01T19:53:25Z</time>
  <course>8.06</course>
  <speed>0.85</speed>
  <fix>3d</fix>
</trkpt>
<trkpt lat="-27.2743386" lon="151.2900799">
  <ele>354.23</ele>
  <time>2026-09-01T19:53:25Z</time>
  <course>8.0</course>
  <speed>0.8471717653463199</speed>
  <fix>3d</fix>
</trkpt>
<trkpt lat="-27.2743394" lon="151.2900798">
  <ele>354.23</ele>
  <time>2026-09-01T19:53:25Z</time>
  <course>8.04</course>
  <speed>0.85</speed>
  <fix>3d</fix>
</trkpt>
<trkpt lat="-27.2743379" lon="151.29008">
  <ele>354.23</ele>
  <time>2026-09-01T19:53:25Z</time>
  <course>8.0</course>
  <speed>0.8471717653463199</speed>
  <fix>3d</fix>
</trkpt>
<trkpt lat="-27.2743394" lon="151.2900798">
  <ele>354.23</ele>
  <time>2026-09-01T19:53:25Z</time>
  <course>8.04</course>
  <speed>0.85</speed>
  <fix>3d</fix>
</trkpt>
<trkpt lat="-27.2743371" lon="151.2900802">
  <ele>354.24</ele>
  <time>2026-09-01T19:53:25Z</time>
  <course>8.0</course>
  <speed>0.8471717653463199</speed>
  <fix>3d</fix>
</trkpt>
<trkpt lat="-27.2743379" lon="151.29008">
  <ele>354.23</ele>
  <time>2026-09-01T19:53:25Z</time>
  <course>8.04</course>
  <speed>0.85</speed>
  <fix>3d</fix>
</trkpt>
<trkpt lat="-27.2743364" lon="151.2900803">
  <ele>354.24</ele>
  <time>2026-09-01T19:53:25Z</time>
  <course>8.0</course>
  <speed>0.8471717653463199</speed>
  <fix>3d</fix>
</trkpt>
<trkpt lat="-27.2743379" lon="151.29008">
  <ele>354.23</ele>
  <time>2026-09-01T19:53:25Z</time>
  <course>8.04</course>
  <speed>0.85</speed>
  <fix>3d</fix>
</trkpt>
<trkpt lat="-27.2743355" lon="151.2900804">
  <ele>354.24</ele>
  <time>2026-09-01T19:53:25Z</time>
  <course>8.0</course>
  <speed>0.8471717653463199</speed>
  <fix>3d</fix>
</trkpt>
<trkpt lat="-27.2743363" lon="151.2900803">
  <ele>354.24</ele>
  <time>2026-09-01T19:53:25Z</time>
  <course>8.06</course>
  <speed>0.85</speed>
  <fix>3d</fix>
</trkpt>
<trkpt lat="-27.2743349" lon="151.2900804">
  <ele>354.25</ele>
  <time>2026-09-01T19:53:25Z</time>
  <course>8.0</course>
  <speed>0.8471717653463199</speed>
  <fix>3d</fix>
</trkpt>
<trkpt lat="-27.2743363" lon="151.2900803">
  <ele>354.24</ele>
  <time>2026-09-01T19:53:25Z</time>
  <course>8.06</course>
  <speed>0.85</speed>
  <fix>3d</fix>
</trkpt>
<trkpt lat="-27.2743341" lon="151.2900807">
  <ele>354.25</ele>
  <time>2026-09-01T19:53:25Z</time>
  <course>8.0</course>
  <speed>0.8372574275573791</speed>
  <fix>3d</fix>
</trkpt>
<trkpt lat="-27.2743348" lon="151.2900804">
  <ele>354.24</ele>
  <time>2026-09-01T19:53:25Z</time>
  <course>8.06</course>
  <speed>0.84</speed>
  <fix>3d</fix>
</trkpt>
<trkpt lat="-27.2743333" lon="151.2900808">
  <ele>354.25</ele>
  <time>2026-09-01T19:53:25Z</time>
  <course>7.99</course>
  <speed>0.8372574275573791</speed>
  <fix>3d</fix>
</trkpt>
<trkpt lat="-27.2743348" lon="151.2900804">
  <ele>354.24</ele>
  <time>2026-09-01T19:53:25Z</time>
  <course>8.06</course>
  <speed>0.84</speed>
  <fix>3d</fix>
</trkpt>
<trkpt lat="-27.2743326" lon="151.2900809">
  <ele>354.26</ele>
  <time>2026-09-01T19:53:25Z</time>
  <course>7.99</course>
  <speed>0.8372574275573791</speed>
  <fix>3d</fix>
</trkpt>
<trkpt lat="-27.2743333" lon="151.2900807">
  <ele>354.25</ele>
  <time>2026-09-01T19:53:25Z</time>
  <course>8.05</course>
  <speed>0.84</speed>
  <fix>3d</fix>
</trkpt>
<trkpt lat="-27.2743318" lon="151.2900809">
  <ele>354.26</ele>
  <time>2026-09-01T19:53:25Z</time>
  <course>7.98</course>
  <speed>0.8372574275573791</speed>
  <fix>3d</fix>
</trkpt>
<trkpt lat="-27.2743333" lon="151.2900807">
  <ele>354.25</ele>
  <time>2026-09-01T19:53:25Z</time>
  <course>8.05</course>
  <speed>0.84</speed>
  <fix>3d</fix>
</trkpt>
<trkpt lat="-27.2743311" lon="151.290081">
  <ele>354.26</ele>
  <time>2026-09-01T19:53:25Z</time>
  <course>7.98</course>
  <speed>0.8372574275573791</speed>
  <fix>3d</fix>
</trkpt>
<trkpt lat="-27.2743318" lon="151.2900809">
  <ele>354.26</ele>
  <time>2026-09-01T19:53:25Z</time>
  <course>8.04</course>
  <speed>0.84</speed>
  <fix>3d</fix>
</trkpt>
<trkpt lat="-27.2743303" lon="151.2900813">
  <ele>354.26</ele>
  <time>2026-09-01T19:53:25Z</time>
  <course>7.99</course>
  <speed>0.8372574275573791</speed>
  <fix>3d</fix>
</trkpt>
<trkpt lat="-27.2743318" lon="151.2900809">
  <ele>354.26</ele>
  <time>2026-09-01T19:53:25Z</time>
  <course>8.04</course>
  <speed>0.84</speed>
  <fix>3d</fix>
</trkpt>
<trkpt lat="-27.2743296" lon="151.2900814">
  <ele>354.26</ele>
  <time>2026-09-01T19:53:25Z</time>
  <course>7.99</course>
  <speed>0.8372574275573791</speed>
  <fix>3d</fix>
</trkpt>
<trkpt lat="-27.2743303" lon="151.2900812">
  <ele>354.26</ele>
  <time>2026-09-01T19:53:25Z</time>
  <course>8.04</course>
  <speed>0.84</speed>
  <fix>3d</fix>
</trkpt>
<trkpt lat="-27.2743288" lon="151.2900814">
  <ele>354.26</ele>
  <time>2026-09-01T19:53:25Z</time>
  <course>8.0</course>
  <speed>0.8372574275573791</speed>
  <fix>3d</fix>
</trkpt>
<trkpt lat="-27.2743303" lon="151.2900812">
  <ele>354.26</ele>
  <time>2026-09-01T19:53:25Z</time>
  <course>8.04</course>
  <speed>0.84</speed>
  <fix>3d</fix>
</trkpt>
<trkpt lat="-27.2743281" lon="151.2900815">
  <ele>354.26</ele>
  <time>2026-09-01T19:53:25Z</time>
  <course>8.01</course>
  <speed>0.8372574275573791</speed>
  <fix>3d</fix>
</trkpt>
<trkpt lat="-27.2743288" lon="151.2900814">
  <ele>354.26</ele>
  <time>2026-09-01T19:53:25Z</time>
  <course>8.04</course>
  <speed>0.84</speed>
  <fix>3d</fix>
</trkpt>
<trkpt lat="-27.2743273" lon="151.2900817">
  <ele>354.26</ele>
  <time>2026-09-01T19:53:25Z</time>
  <course>8.02</course>
  <speed>0.8372574275573791</speed>
  <fix>3d</fix>
</trkpt>
<trkpt lat="-27.2743288" lon="151.2900814">
  <ele>354.26</ele>
  <time>2026-09-01T19:53:25Z</time>
  <course>8.04</course>
  <speed>0.84</speed>
  <fix>3d</fix>
</trkpt>
<trkpt lat="-27.2743266" lon="151.2900818">
  <ele>354.26</ele>
  <time>2026-09-01T19:53:25Z</time>
  <course>8.02</course>
  <speed>0.8372574275573791</speed>
  <fix>3d</fix>
</trkpt>
<trkpt lat="-27.2743273" lon="151.2900816">
  <ele>354.26</ele>
  <time>2026-09-01T19:53:25Z</time>
  <course>8.04</course>
  <speed>0.84</speed>
  <fix>3d</fix>
</trkpt>
<trkpt lat="-27.2743258" lon="151.2900819">
  <ele>354.26</ele>
  <time>2026-09-01T19:53:25Z</time>
  <course>8.01</course>
  <speed>0.8372574275573791</speed>
  <fix>3d</fix>
</trkpt>
<trkpt lat="-27.2743273" lon="151.2900816">
  <ele>354.26</ele>
  <time>2026-09-01T19:53:25Z</time>
  <course>8.04</course>
  <speed>0.84</speed>
  <fix>3d</fix>
</trkpt>
<trkpt lat="-27.2743251" lon="151.2900821">
  <ele>354.26</ele>
  <time>2026-09-01T19:53:25Z</time>
  <course>8.01</course>
  <speed>0.8372574275573791</speed>
  <fix>3d</fix>
</trkpt>
<trkpt lat="-27.2743258" lon="151.2900819">
  <ele>354.26</ele>
  <time>2026-09-01T19:53:25Z</time>
  <course>8.04</course>
  <speed>0.84</speed>
  <fix>3d</fix>
</trkpt>
<trkpt lat="-27.2743243" lon="151.2900822">
  <ele>354.26</ele>
  <time>2026-09-01T19:53:25Z</time>
  <course>8.01</course>
  <speed>0.8372574275573791</speed>
  <fix>3d</fix>
</trkpt>
<trkpt lat="-27.2743258" lon="151.2900819">
  <ele>354.26</ele>
  <time>2026-09-01T19:53:25Z</time>
  <course>8.04</course>
  <speed>0.84</speed>
  <fix>3d</fix>
</trkpt>
<trkpt lat="-27.2743236" lon="151.2900823">
  <ele>354.26</ele>
  <time>2026-09-01T19:53:25Z</time>
  <course>8.01</course>
  <speed>0.8372574275573791</speed>
  <fix>3d</fix>
</trkpt>
<trkpt lat="-27.2743243" lon="151.2900822">
  <ele>354.26</ele>
  <time>2026-09-01T19:53:25Z</time>
  <course>8.05</course>
  <speed>0.84</speed>
  <fix>3d</fix>
</trkpt>
<trkpt lat="-27.2743228" lon="151.2900824">
  <ele>354.26</ele>
  <time>2026-09-01T19:53:25Z</time>
  <course>8.01</course>
  <speed>0.8372574275573791</speed>
  <fix>3d</fix>
</trkpt>
<trkpt lat="-27.2743243" lon="151.2900822">
  <ele>354.26</ele>
  <time>2026-09-01T19:53:25Z</time>
  <course>8.05</course>
  <speed>0.84</speed>
  <fix>3d</fix>
</trkpt>
<trkpt lat="-27.2743221" lon="151.2900826">
  <ele>354.26</ele>
  <time>2026-09-01T19:53:25Z</time>
  <course>8.01</course>
  <speed>0.8372574275573791</speed>
  <fix>3d</fix>
</trkpt>
<trkpt lat="-27.2743228" lon="151.2900824">
  <ele>354.26</ele>
  <time>2026-09-01T19:53:25Z</time>
  <course>8.05</course>
  <speed>0.84</speed>
  <fix>3d</fix>
</trkpt>
<trkpt lat="-27.2743213" lon="151.2900827">
  <ele>354.26</ele>
  <time>2026-09-01T19:53:25Z</time>
  <course>8.0</course>
  <speed>0.8372574275573791</speed>
  <fix>3d</fix>
</trkpt>
<trkpt lat="-27.2743228" lon="151.2900824">
  <ele>354.26</ele>
  <time>2026-09-01T19:53:25Z</time>
  <course>8.05</course>
  <speed>0.84</speed>
  <fix>3d</fix>
</trkpt>
<trkpt lat="-27.2743206" lon="151.2900828">
  <ele>354.26</ele>
  <time>2026-09-01T19:53:25Z</time>
  <course>8.0</course>
  <speed>0.8372574275573791</speed>
  <fix>3d</fix>
</trkpt>
<trkpt lat="-27.2743213" lon="151.2900827">
  <ele>354.26</ele>
  <time>2026-09-01T19:53:25Z</time>
  <course>8.08</course>
  <speed>0.84</speed>
  <fix>3d</fix>
</trkpt>
<trkpt lat="-27.2743198" lon="151.2900828">
  <ele>354.26</ele>
  <time>2026-09-01T19:53:25Z</time>
  <course>7.99</course>
  <speed>0.8372574275573791</speed>
  <fix>3d</fix>
</trkpt>
<trkpt lat="-27.2743213" lon="151.2900827">
  <ele>354.26</ele>
  <time>2026-09-01T19:53:25Z</time>
  <course>8.08</course>
  <speed>0.84</speed>
  <fix>3d</fix>
</trkpt>
<trkpt lat="-27.2743191" lon="151.2900829">
  <ele>354.26</ele>
  <time>2026-09-01T19:53:25Z</time>
  <course>7.98</course>
  <speed>0.8372574275573791</speed>
  <fix>3d</fix>
</trkpt>
<trkpt lat="-27.2743198" lon="151.2900828">
  <ele>354.26</ele>
  <time>2026-09-01T19:53:25Z</time>
  <course>8.11</course>
  <speed>0.84</speed>
  <fix>3d</fix>
</trkpt>
<trkpt lat="-27.2743183" lon="151.2900832">
  <ele>354.26</ele>
  <time>2026-09-01T19:53:25Z</time>
  <course>7.97</course>
  <speed>0.8372574275573791</speed>
  <fix>3d</fix>
</trkpt>
<trkpt lat="-27.2743198" lon="151.2900828">
  <ele>354.26</ele>
  <time>2026-09-01T19:53:25Z</time>
  <course>8.11</course>
  <speed>0.84</speed>
  <fix>3d</fix>
</trkpt>
<trkpt lat="-27.2743176" lon="151.2900833">
  <ele>354.26</ele>
  <time>2026-09-01T19:53:25Z</time>
  <course>7.97</course>
  <speed>0.8372574275573791</speed>
  <fix>3d</fix>
</trkpt>
<trkpt lat="-27.2743183" lon="151.2900831">
  <ele>354.26</ele>
  <time>2026-09-01T19:53:25Z</time>
  <course>8.13</course>
  <speed>0.84</speed>
  <fix>3d</fix>
</trkpt>
<trkpt lat="-27.2743168" lon="151.2900833">
  <ele>354.26</ele>
  <time>2026-09-01T19:53:25Z</time>
  <course>7.97</course>
  <speed>0.8372574275573791</speed>
  <fix>3d</fix>
</trkpt>
<trkpt lat="-27.2743183" lon="151.2900831">
  <ele>354.26</ele>
  <time>2026-09-01T19:53:25Z</time>
  <course>8.13</course>
  <speed>0.84</speed>
  <fix>3d</fix>
</trkpt>
<trkpt lat="-27.2743161" lon="151.2900834">
  <ele>354.26</ele>
  <time>2026-09-01T19:53:25Z</time>
  <course>7.97</course>
  <speed>0.8372574275573791</speed>
  <fix>3d</fix>
</trkpt>
<trkpt lat="-27.2743168" lon="151.2900833">
  <ele>354.26</ele>
  <time>2026-09-01T19:53:25Z</time>
  <course>8.13</course>
  <speed>0.83</speed>
  <fix>3d</fix>
</trkpt>
<trkpt lat="-27.2743154" lon="151.2900836">
  <ele>354.26</ele>
  <time>2026-09-01T19:53:25Z</time>
  <course>7.97</course>
  <speed>0.8273451516749222</speed>
  <fix>3d</fix>
</trkpt>
<trkpt lat="-27.2743168" lon="151.2900833">
  <ele>354.26</ele>
  <time>2026-09-01T19:53:25Z</time>
  <course>8.13</course>
  <speed>0.83</speed>
  <fix>3d</fix>
</trkpt>
<trkpt lat="-27.2743146" lon="151.2900838">
  <ele>354.26</ele>
  <time>2026-09-01T19:53:25Z</time>
  <course>7.97</course>
  <speed>0.8273451516749222</speed>
  <fix>3d</fix>
</trkpt>
<trkpt lat="-27.2743153" lon="151.2900836">
  <ele>354.26</ele>
  <time>2026-09-01T19:53:25Z</time>
  <course>8.12</course>
  <speed>0.83</speed>
  <fix>3d</fix>
</trkpt>
<trkpt lat="-27.2743139" lon="151.2900838">
  <ele>354.26</ele>
  <time>2026-09-01T19:53:25Z</time>
  <course>7.98</course>
  <speed>0.8273451516749222</speed>
  <fix>3d</fix>
</trkpt>
<trkpt lat="-27.2743153" lon="151.2900836">
  <ele>354.26</ele>
  <time>2026-09-01T19:53:25Z</time>
  <course>8.12</course>
  <speed>0.83</speed>
  <fix>3d</fix>
</trkpt>
<trkpt lat="-27.2743131" lon="151.290084">
  <ele>354.26</ele>
  <time>2026-09-01T19:53:25Z</time>
  <course>7.98</course>
  <speed>0.8273451516749222</speed>
  <fix>3d</fix>
</trkpt>
<trkpt lat="-27.2743138" lon="151.2900839">
  <ele>354.26</ele>
  <time>2026-09-01T19:53:25Z</time>
  <course>8.12</course>
  <speed>0.83</speed>
  <fix>3d</fix>
</trkpt>
<trkpt lat="-27.2743124" lon="151.2900841">
  <ele>354.25</ele>
  <time>2026-09-01T19:53:25Z</time>
  <course>7.98</course>
  <speed>0.8273451516749222</speed>
  <fix>3d</fix>
</trkpt>
<trkpt lat="-27.2743138" lon="151.2900839">
  <ele>354.26</ele>
  <time>2026-09-01T19:53:25Z</time>
  <course>8.12</course>
  <speed>0.83</speed>
  <fix>3d</fix>
</trkpt>
<trkpt lat="-27.2743116" lon="151.2900842">
  <ele>354.25</ele>
  <time>2026-09-01T19:53:25Z</time>
  <course>7.99</course>
  <speed>0.8273451516749222</speed>
  <fix>3d</fix>
</trkpt>
<trkpt lat="-27.2743124" lon="151.2900841">
  <ele>354.25</ele>
  <time>2026-09-01T19:53:25Z</time>
  <course>8.14</course>
  <speed>0.83</speed>
  <fix>3d</fix>
</trkpt>
<trkpt lat="-27.2743109" lon="151.2900843">
  <ele>354.25</ele>
  <time>2026-09-01T19:53:25Z</time>
  <course>8.0</course>
  <speed>0.8273451516749222</speed>
  <fix>3d</fix>
</trkpt>
<trkpt lat="-27.2743124" lon="151.2900841">
  <ele>354.25</ele>
  <time>2026-09-01T19:53:25Z</time>
  <course>8.14</course>
  <speed>0.83</speed>
  <fix>3d</fix>
</trkpt>
<trkpt lat="-27.2743101" lon="151.2900845">
  <ele>354.25</ele>
  <time>2026-09-01T19:53:26Z</time>
  <course>8.01</course>
  <speed>0.8273451516749222</speed>
  <fix>3d</fix>
</trkpt>
<trkpt lat="-27.2743109" lon="151.2900843">
  <ele>354.25</ele>
  <time>2026-09-01T19:53:26Z</time>
  <course>8.15</course>
  <speed>0.83</speed>
  <fix>3d</fix>
</trkpt>
<trkpt lat="-27.2743094" lon="151.2900846">
  <ele>354.25</ele>
  <time>2026-09-01T19:53:26Z</time>
  <course>8.02</course>
  <speed>0.8273451516749222</speed>
  <fix>3d</fix>
</trkpt>
<trkpt lat="-27.2743109" lon="151.2900843">
  <ele>354.25</ele>
  <time>2026-09-01T19:53:26Z</time>
  <course>8.15</course>
  <speed>0.83</speed>
  <fix>3d</fix>
</trkpt>
<trkpt lat="-27.2743087" lon="151.2900847">
  <ele>354.25</ele>
  <time>2026-09-01T19:53:26Z</time>
  <course>8.02</course>
  <speed>0.8273451516749222</speed>
  <fix>3d</fix>
</trkpt>
<trkpt lat="-27.2743094" lon="151.2900846">
  <ele>354.25</ele>
  <time>2026-09-01T19:53:26Z</time>
  <course>8.13</course>
  <speed>0.83</speed>
  <fix>3d</fix>
</trkpt>
<trkpt lat="-27.2743079" lon="151.2900848">
  <ele>354.25</ele>
  <time>2026-09-01T19:53:26Z</time>
  <course>8.01</course>
  <speed>0.8273451516749222</speed>
  <fix>3d</fix>
</trkpt>
<trkpt lat="-27.2743094" lon="151.2900846">
  <ele>354.25</ele>
  <time>2026-09-01T19:53:26Z</time>
  <course>8.13</course>
  <speed>0.83</speed>
  <fix>3d</fix>
</trkpt>
<trkpt lat="-27.2743072" lon="151.290085">
  <ele>354.25</ele>
  <time>2026-09-01T19:53:26Z</time>
  <course>8.0</course>
  <speed>0.8273451516749222</speed>
  <fix>3d</fix>
</trkpt>
<trkpt lat="-27.2743079" lon="151.2900848">
  <ele>354.25</ele>
  <time>2026-09-01T19:53:26Z</time>
  <course>8.1</course>
  <speed>0.83</speed>
  <fix>3d</fix>
</trkpt>
<trkpt lat="-27.2743064" lon="151.2900851">
  <ele>354.25</ele>
  <time>2026-09-01T19:53:26Z</time>
  <course>7.99</course>
  <speed>0.8273451516749222</speed>
  <fix>3d</fix>
</trkpt>
<trkpt lat="-27.2743079" lon="151.2900848">
  <ele>354.25</ele>
  <time>2026-09-01T19:53:26Z</time>
  <course>8.1</course>
  <speed>0.83</speed>
  <fix>3d</fix>
</trkpt>
<trkpt lat="-27.2743057" lon="151.2900852">
  <ele>354.25</ele>
  <time>2026-09-01T19:53:26Z</time>
  <course>7.98</course>
  <speed>0.8273451516749222</speed>
  <fix>3d</fix>
</trkpt>
<trkpt lat="-27.2743064" lon="151.2900851">
  <ele>354.25</ele>
  <time>2026-09-01T19:53:26Z</time>
  <course>8.08</course>
  <speed>0.83</speed>
  <fix>3d</fix>
</trkpt>
<trkpt lat="-27.274305" lon="151.2900852">
  <ele>354.25</ele>
  <time>2026-09-01T19:53:26Z</time>
  <course>7.98</course>
  <speed>0.8273451516749222</speed>
  <fix>3d</fix>
</trkpt>
<trkpt lat="-27.2743064" lon="151.2900851">
  <ele>354.25</ele>
  <time>2026-09-01T19:53:26Z</time>
  <course>8.08</course>
  <speed>0.83</speed>
  <fix>3d</fix>
</trkpt>
<trkpt lat="-27.2743042" lon="151.2900853">
  <ele>354.26</ele>
  <time>2026-09-01T19:53:26Z</time>
  <course>7.97</course>
  <speed>0.8273451516749222</speed>
  <fix>3d</fix>
</trkpt>
<trkpt lat="-27.2743049" lon="151.2900852">
  <ele>354.25</ele>
  <time>2026-09-01T19:53:26Z</time>
  <course>8.06</course>
  <speed>0.83</speed>
  <fix>3d</fix>
</trkpt>
<trkpt lat="-27.2743035" lon="151.2900855">
  <ele>354.26</ele>
  <time>2026-09-01T19:53:26Z</time>
  <course>7.97</course>
  <speed>0.8273451516749222</speed>
  <fix>3d</fix>
</trkpt>
<trkpt lat="-27.2743049" lon="151.2900852">
  <ele>354.25</ele>
  <time>2026-09-01T19:53:26Z</time>
  <course>8.06</course>
  <speed>0.83</speed>
  <fix>3d</fix>
</trkpt>
<trkpt lat="-27.2743027" lon="151.2900857">
  <ele>354.26</ele>
  <time>2026-09-01T19:53:26Z</time>
  <course>7.98</course>
  <speed>0.8273451516749222</speed>
  <fix>3d</fix>
</trkpt>
<trkpt lat="-27.2743035" lon="151.2900855">
  <ele>354.26</ele>
  <time>2026-09-01T19:53:26Z</time>
  <course>8.04</course>
  <speed>0.82</speed>
  <fix>3d</fix>
</trkpt>
<trkpt lat="-27.274302" lon="151.2900857">
  <ele>354.25</ele>
  <time>2026-09-01T19:53:26Z</time>
  <course>7.98</course>
  <speed>0.8273451516749222</speed>
  <fix>3d</fix>
</trkpt>
<trkpt lat="-27.2743035" lon="151.2900855">
  <ele>354.26</ele>
  <time>2026-09-01T19:53:26Z</time>
  <course>8.04</course>
  <speed>0.82</speed>
  <fix>3d</fix>
</trkpt>
<trkpt lat="-27.2743013" lon="151.2900858">
  <ele>354.25</ele>
  <time>2026-09-01T19:53:26Z</time>
  <course>7.98</course>
  <speed>0.8174350127074322</speed>
  <fix>3d</fix>
</trkpt>
<trkpt lat="-27.274302" lon="151.2900857">
  <ele>354.25</ele>
  <time>2026-09-01T19:53:26Z</time>
  <course>8.02</course>
  <speed>0.82</speed>
  <fix>3d</fix>
</trkpt>
<trkpt lat="-27.2743005" lon="151.290086">
  <ele>354.25</ele>
  <time>2026-09-01T19:53:26Z</time>
  <course>7.99</course>
  <speed>0.8174350127074322</speed>
  <fix>3d</fix>
</trkpt>
<trkpt lat="-27.274302" lon="151.2900857">
  <ele>354.25</ele>
  <time>2026-09-01T19:53:26Z</time>
  <course>8.02</course>
  <speed>0.82</speed>
  <fix>3d</fix>
</trkpt>
<trkpt lat="-27.2742998" lon="151.2900861">
  <ele>354.25</ele>
  <time>2026-09-01T19:53:26Z</time>
  <course>7.99</course>
  <speed>0.8174350127074322</speed>
  <fix>3d</fix>
</trkpt>
<trkpt lat="-27.2743005" lon="151.2900859">
  <ele>354.25</ele>
  <time>2026-09-01T19:53:26Z</time>
  <course>8.0</course>
  <speed>0.82</speed>
  <fix>3d</fix>
</trkpt>
<trkpt lat="-27.2742991" lon="151.2900862">
  <ele>354.25</ele>
  <time>2026-09-01T19:53:26Z</time>
  <course>7.99</course>
  <speed>0.8174350127074322</speed>
  <fix>3d</fix>
</trkpt>
<trkpt lat="-27.2743005" lon="151.2900859">
  <ele>354.25</ele>
  <time>2026-09-01T19:53:26Z</time>
  <course>8.0</course>
  <speed>0.82</speed>
  <fix>3d</fix>
</trkpt>
<trkpt lat="-27.2742983" lon="151.2900864">
  <ele>354.25</ele>
  <time>2026-09-01T19:53:26Z</time>
  <course>7.99</course>
  <speed>0.8174350127074322</speed>
  <fix>3d</fix>
</trkpt>
<trkpt lat="-27.2742991" lon="151.2900862">
  <ele>354.25</ele>
  <time>2026-09-01T19:53:26Z</time>
  <course>7.99</course>
  <speed>0.82</speed>
  <fix>3d</fix>
</trkpt>
<trkpt lat="-27.2742976" lon="151.2900865">
  <ele>354.25</ele>
  <time>2026-09-01T19:53:26Z</time>
  <course>7.98</course>
  <speed>0.8174350127074322</speed>
  <fix>3d</fix>
</trkpt>
<trkpt lat="-27.2742991" lon="151.2900862">
  <ele>354.25</ele>
  <time>2026-09-01T19:53:26Z</time>
  <course>7.99</course>
  <speed>0.82</speed>
  <fix>3d</fix>
</trkpt>
<trkpt lat="-27.2742969" lon="151.2900866">
  <ele>354.25</ele>
  <time>2026-09-01T19:53:26Z</time>
  <course>7.98</course>
  <speed>0.8174350127074322</speed>
  <fix>3d</fix>
</trkpt>
<trkpt lat="-27.2742976" lon="151.2900865">
  <ele>354.25</ele>
  <time>2026-09-01T19:53:26Z</time>
  <course>7.98</course>
  <speed>0.82</speed>
  <fix>3d</fix>
</trkpt>
<trkpt lat="-27.2742961" lon="151.2900867">
  <ele>354.25</ele>
  <time>2026-09-01T19:53:26Z</time>
  <course>7.98</course>
  <speed>0.8174350127074322</speed>
  <fix>3d</fix>
</trkpt>
<trkpt lat="-27.2742976" lon="151.2900865">
  <ele>354.25</ele>
  <time>2026-09-01T19:53:26Z</time>
  <course>7.98</course>
  <speed>0.82</speed>
  <fix>3d</fix>
</trkpt>
<trkpt lat="-27.2742954" lon="151.2900867">
  <ele>354.25</ele>
  <time>2026-09-01T19:53:26Z</time>
  <course>7.98</course>
  <speed>0.8174350127074322</speed>
  <fix>3d</fix>
</trkpt>
<trkpt lat="-27.2742961" lon="151.2900867">
  <ele>354.25</ele>
  <time>2026-09-01T19:53:26Z</time>
  <course>7.97</course>
  <speed>0.82</speed>
  <fix>3d</fix>
</trkpt>
<trkpt lat="-27.2742947" lon="151.2900869">
  <ele>354.25</ele>
  <time>2026-09-01T19:53:26Z</time>
  <course>7.98</course>
  <speed>0.8174350127074322</speed>
  <fix>3d</fix>
</trkpt>
<trkpt lat="-27.2742961" lon="151.2900867">
  <ele>354.25</ele>
  <time>2026-09-01T19:53:26Z</time>
  <course>7.97</course>
  <speed>0.82</speed>
  <fix>3d</fix>
</trkpt>
<trkpt lat="-27.2742939" lon="151.2900871">
  <ele>354.25</ele>
  <time>2026-09-01T19:53:26Z</time>
  <course>7.98</course>
  <speed>0.8174350127074322</speed>
  <fix>3d</fix>
</trkpt>
<trkpt lat="-27.2742946" lon="151.2900869">
  <ele>354.25</ele>
  <time>2026-09-01T19:53:26Z</time>
  <course>7.96</course>
  <speed>0.82</speed>
  <fix>3d</fix>
</trkpt>
<trkpt lat="-27.2742932" lon="151.2900871">
  <ele>354.25</ele>
  <time>2026-09-01T19:53:26Z</time>
  <course>7.98</course>
  <speed>0.8174350127074322</speed>
  <fix>3d</fix>
</trkpt>
<trkpt lat="-27.2742946" lon="151.2900869">
  <ele>354.25</ele>
  <time>2026-09-01T19:53:26Z</time>
  <course>7.96</course>
  <speed>0.82</speed>
  <fix>3d</fix>
</trkpt>
<trkpt lat="-27.2742925" lon="151.2900872">
  <ele>354.25</ele>
  <time>2026-09-01T19:53:26Z</time>
  <course>7.98</course>
  <speed>0.8174350127074322</speed>
  <fix>3d</fix>
</trkpt>
<trkpt lat="-27.2742932" lon="151.2900871">
  <ele>354.25</ele>
  <time>2026-09-01T19:53:26Z</time>
  <course>7.95</course>
  <speed>0.82</speed>
  <fix>3d</fix>
</trkpt>
<trkpt lat="-27.2742917" lon="151.2900874">
  <ele>354.25</ele>
  <time>2026-09-01T19:53:26Z</time>
  <course>7.98</course>
  <speed>0.8174350127074322</speed>
  <fix>3d</fix>
</trkpt>
<trkpt lat="-27.2742932" lon="151.2900871">
  <ele>354.25</ele>
  <time>2026-09-01T19:53:26Z</time>
  <course>7.95</course>
  <speed>0.82</speed>
  <fix>3d</fix>
</trkpt>
<trkpt lat="-27.274291" lon="151.2900875">
  <ele>354.25</ele>
  <time>2026-09-01T19:53:26Z</time>
  <course>7.98</course>
  <speed>0.8174350127074322</speed>
  <fix>3d</fix>
</trkpt>
<trkpt lat="-27.2742917" lon="151.2900874">
  <ele>354.25</ele>
  <time>2026-09-01T19:53:26Z</time>
  <course>7.93</course>
  <speed>0.82</speed>
  <fix>3d</fix>
</trkpt>
<trkpt lat="-27.2742903" lon="151.2900876">
  <ele>354.25</ele>
  <time>2026-09-01T19:53:26Z</time>
  <course>7.98</course>
  <speed>0.8174350127074322</speed>
  <fix>3d</fix>
</trkpt>
<trkpt lat="-27.2742917" lon="151.2900874">
  <ele>354.25</ele>
  <time>2026-09-01T19:53:26Z</time>
  <course>7.93</course>
  <speed>0.82</speed>
  <fix>3d</fix>
</trkpt>
<trkpt lat="-27.2742895" lon="151.2900876">
  <ele>354.25</ele>
  <time>2026-09-01T19:53:26Z</time>
  <course>7.97</course>
  <speed>0.8174350127074322</speed>
  <fix>3d</fix>
</trkpt>
<trkpt lat="-27.2742902" lon="151.2900876">
  <ele>354.25</ele>
  <time>2026-09-01T19:53:26Z</time>
  <course>7.91</course>
  <speed>0.82</speed>
  <fix>3d</fix>
</trkpt>
<trkpt lat="-27.2742888" lon="151.2900879">
  <ele>354.25</ele>
  <time>2026-09-01T19:53:26Z</time>
  <course>7.98</course>
  <speed>0.8174350127074322</speed>
  <fix>3d</fix>
</trkpt>
<trkpt lat="-27.2742902" lon="151.2900876">
  <ele>354.25</ele>
  <time>2026-09-01T19:53:26Z</time>
  <course>7.91</course>
  <speed>0.82</speed>
  <fix>3d</fix>
</trkpt>
<trkpt lat="-27.2742881" lon="151.290088">
  <ele>354.25</ele>
  <time>2026-09-01T19:53:26Z</time>
  <course>7.98</course>
  <speed>0.8174350127074322</speed>
  <fix>3d</fix>
</trkpt>
<trkpt lat="-27.2742888" lon="151.2900878">
  <ele>354.25</ele>
  <time>2026-09-01T19:53:26Z</time>
  <course>7.9</course>
  <speed>0.81</speed>
  <fix>3d</fix>
</trkpt>
<trkpt lat="-27.274288" lon="151.290088">
  <ele>354.25</ele>
  <time>2026-09-01T19:53:26Z</time>
  <course>7.98</course>
  <speed>0.8075270893288967</speed>
  <fix>3d</fix>
</trkpt>
<trkpt lat="-27.2742873" lon="151.2900881">
  <ele>354.25</ele>
  <time>2026-09-01T19:53:26Z</time>
  <course>7.98</course>
  <speed>0.8075270893288967</speed>
  <fix>3d</fix>
</trkpt>
<trkpt lat="-27.2742888" lon="151.2900878">
  <ele>354.25</ele>
  <time>2026-09-01T19:53:26Z</time>
  <course>7.9</course>
  <speed>0.81</speed>
  <fix>3d</fix>
</trkpt>
<trkpt lat="-27.2742873" lon="151.2900881">
  <ele>354.25</ele>
  <time>2026-09-01T19:53:26Z</time>
  <course>7.98</course>
  <speed>0.8075270893288967</speed>
  <fix>3d</fix>
</trkpt>
<trkpt lat="-27.2742866" lon="151.2900881">
  <ele>354.25</ele>
  <time>2026-09-01T19:53:26Z</time>
  <course>7.98</course>
  <speed>0.7863841300535</speed>
  <fix>3d</fix>
</trkpt>
<trkpt lat="-27.2742874" lon="151.2900881">
  <ele>354.25</ele>
  <time>2026-09-01T19:53:26Z</time>
  <course>7.91</course>
  <speed>0.8</speed>
  <fix>3d</fix>
</trkpt>
<trkpt lat="-27.2742866" lon="151.2900881">
  <ele>354.25</ele>
  <time>2026-09-01T19:53:26Z</time>
  <course>7.98</course>
  <speed>0.7863841300535</speed>
  <fix>3d</fix>
</trkpt>
<trkpt lat="-27.2742859" lon="151.2900882">
  <ele>354.25</ele>
  <time>2026-09-01T19:53:26Z</time>
  <course>7.98</course>
  <speed>0.7566372975210779</speed>
  <fix>3d</fix>
</trkpt>
<trkpt lat="-27.2742874" lon="151.2900881">
  <ele>354.25</ele>
  <time>2026-09-01T19:53:26Z</time>
  <course>7.91</course>
  <speed>0.8</speed>
  <fix>3d</fix>
</trkpt>
<trkpt lat="-27.2742857" lon="151.2900882">
  <ele>354.25</ele>
  <time>2026-09-01T19:53:26Z</time>
  <course>7.98</course>
  <speed>0.7467261881037789</speed>
  <fix>3d</fix>
</trkpt>
<trkpt lat="-27.2742853" lon="151.2900884">
  <ele>354.25</ele>
  <time>2026-09-01T19:53:26Z</time>
  <course>7.98</course>
  <speed>0.7057619995437555</speed>
  <fix>3d</fix>
</trkpt>
<trkpt lat="-27.2742859" lon="151.2900882">
  <ele>354.25</ele>
  <time>2026-09-01T19:53:26Z</time>
  <course>7.9</course>
  <speed>0.75</speed>
  <fix>3d</fix>
</trkpt>
<trkpt lat="-27.274285" lon="151.2900885">
  <ele>354.25</ele>
  <time>2026-09-01T19:53:26Z</time>
  <course>7.98</course>
  <speed>0.6859300255857006</speed>
  <fix>3d</fix>
</trkpt>
<trkpt lat="-27.2742847" lon="151.2900885">
  <ele>354.25</ele>
  <time>2026-09-01T19:53:26Z</time>
  <course>7.98</course>
  <speed>0.6449806198638839</speed>
  <fix>3d</fix>
</trkpt>
<trkpt lat="-27.2742859" lon="151.2900882">
  <ele>354.25</ele>
  <time>2026-09-01T19:53:26Z</time>
  <course>7.9</course>
  <speed>0.75</speed>
  <fix>3d</fix>
</trkpt>
<trkpt lat="-27.2742845" lon="151.2900885">
  <ele>354.25</ele>
  <time>2026-09-01T19:53:26Z</time>
  <course>7.98</course>
  <speed>0.6251399843235114</speed>
  <fix>3d</fix>
</trkpt>
<trkpt lat="-27.2742841" lon="151.2900886">
  <ele>354.25</ele>
  <time>2026-09-01T19:53:26Z</time>
  <course>7.99</course>
  <speed>0.5643580423808985</speed>
  <fix>3d</fix>
</trkpt>
<trkpt lat="-27.2742847" lon="151.2900885">
  <ele>354.25</ele>
  <time>2026-09-01T19:53:26Z</time>
  <course>7.87</course>
  <speed>0.64</speed>
  <fix>3d</fix>
</trkpt>
<trkpt lat="-27.274284" lon="151.2900886">
  <ele>354.25</ele>
  <time>2026-09-01T19:53:26Z</time>
  <course>7.99</course>
  <speed>0.5445181356024793</speed>
  <fix>3d</fix>
</trkpt>
<trkpt lat="-27.2742837" lon="151.2900886">
  <ele>354.25</ele>
  <time>2026-09-01T19:53:26Z</time>
  <course>7.99</course>
  <speed>0.4738143096192854</speed>
  <fix>3d</fix>
</trkpt>
<trkpt lat="-27.2742847" lon="151.2900885">
  <ele>354.25</ele>
  <time>2026-09-01T19:53:26Z</time>
  <course>7.87</course>
  <speed>0.64</speed>
  <fix>3d</fix>
</trkpt>
<trkpt lat="-27.2742835" lon="151.2900886">
  <ele>354.25</ele>
  <time>2026-09-01T19:53:26Z</time>
  <course>7.99</course>
  <speed>0.41303752856126763</speed>
  <fix>3d</fix>
</trkpt>
<trkpt lat="-27.2742833" lon="151.2900886">
  <ele>354.25</ele>
  <time>2026-09-01T19:53:26Z</time>
  <course>7.99</course>
  <speed>0.3622154055254967</speed>
  <fix>3d</fix>
</trkpt>
<trkpt lat="-27.2742837" lon="151.2900886">
  <ele>354.25</ele>
  <time>2026-09-01T19:53:26Z</time>
  <course>7.82</course>
  <speed>0.47</speed>
  <fix>3d</fix>
</trkpt>
<trkpt lat="-27.2742832" lon="151.2900886">
  <ele>354.25</ele>
  <time>2026-09-01T19:53:26Z</time>
  <course>7.99</course>
  <speed>0.33241540277189324</speed>
  <fix>3d</fix>
</trkpt>
<trkpt lat="-27.274283" lon="151.2900888">
  <ele>354.25</ele>
  <time>2026-09-01T19:53:26Z</time>
  <course>7.99</course>
  <speed>0.23194827009486402</speed>
  <fix>3d</fix>
</trkpt>
<trkpt lat="-27.2742837" lon="151.2900886">
  <ele>354.25</ele>
  <time>2026-09-01T19:53:26Z</time>
  <course>7.82</course>
  <speed>0.47</speed>
  <fix>3d</fix>
</trkpt>
<trkpt lat="-27.274283" lon="151.2900888">
  <ele>354.25</ele>
  <time>2026-09-01T19:53:26Z</time>
  <course>7.99</course>
  <speed>0.2220360331117452</speed>
  <fix>3d</fix>
</trkpt>
<trkpt lat="-27.2742829" lon="151.2900888">
  <ele>354.25</ele>
  <time>2026-09-01T19:53:26Z</time>
  <course>7.98</course>
  <speed>0.09055385138137417</speed>
  <fix>3d</fix>
</trkpt>
<trkpt lat="-27.2742831" lon="151.2900887">
  <ele>354.25</ele>
  <time>2026-09-01T19:53:26Z</time>
  <course>7.7</course>
  <speed>0.23</speed>
  <fix>3d</fix>
</trkpt>
<trkpt lat="-27.2742829" lon="151.2900888">
  <ele>354.25</ele>
  <time>2026-09-01T19:53:26Z</time>
  <course>7.98</course>
  <speed>0.08062257748298549</speed>
  <fix>3d</fix>
</trkpt>
<trkpt lat="-27.2742829" lon="151.2900888">
  <ele>354.25</ele>
  <time>2026-09-01T19:53:26Z</time>
  <course>7.98</course>
  <speed>0.07071067811865475</speed>
  <fix>3d</fix>
</trkpt>
<trkpt lat="-27.2742831" lon="151.2900887">
  <ele>354.25</ele>
  <time>2026-09-01T19:53:26Z</time>
  <course>7.7</course>
  <speed>0.23</speed>
  <fix>3d</fix>
</trkpt>
<trkpt lat="-27.2742829" lon="151.2900888">
  <ele>354.25</ele>
  <time>2026-09-01T19:53:26Z</time>
  <course>7.98</course>
  <speed>0.11045361017187261</speed>
  <fix>3d</fix>
</trkpt>
<trkpt lat="-27.274283" lon="151.2900888">
  <ele>354.25</ele>
  <time>2026-09-01T19:53:26Z</time>
  <course>7.97</course>
  <speed>0.24186773244895649</speed>
  <fix>3d</fix>
</trkpt>
<trkpt lat="-27.2742829" lon="151.2900888">
  <ele>354.25</ele>
  <time>2026-09-01T19:53:26Z</time>
  <course>188.68</course>
  <speed>0.07</speed>
  <fix>3d</fix>
</trkpt>
<trkpt lat="-27.274283" lon="151.2900888">
  <ele>354.25</ele>
  <time>2026-09-01T19:53:26Z</time>
  <course>7.97</course>
  <speed>0.3125699921617557</speed>
  <fix>3d</fix>
</trkpt>
<trkpt lat="-27.2742832" lon="151.2900888">
  <ele>354.25</ele>
  <time>2026-09-01T19:53:26Z</time>
  <course>7.96</course>
  <speed>0.4341658669218482</speed>
  <fix>3d</fix>
</trkpt>
<trkpt lat="-27.2742829" lon="151.2900888">
  <ele>354.25</ele>
  <time>2026-09-01T19:53:26Z</time>
  <course>188.68</course>
  <speed>0.07</speed>
  <fix>3d</fix>
</trkpt>
<trkpt lat="-27.2742833" lon="151.2900888">
  <ele>354.25</ele>
  <time>2026-09-01T19:53:26Z</time>
  <course>7.95</course>
  <speed>0.48373546489791297</speed>
  <fix>3d</fix>
</trkpt>
<trkpt lat="-27.2742837" lon="151.2900886">
  <ele>354.25</ele>
  <time>2026-09-01T19:53:26Z</time>
  <course>7.94</course>
  <speed>0.6152235366108809</speed>
  <fix>3d</fix>
</trkpt>
<trkpt lat="-27.2742833" lon="151.2900887">
  <ele>354.25</ele>
  <time>2026-09-01T19:53:26Z</time>
  <course>188.01</course>
  <speed>0.43</speed>
  <fix>3d</fix>
</trkpt>
<trkpt lat="-27.2742839" lon="151.2900886">
  <ele>354.25</ele>
  <time>2026-09-01T19:53:26Z</time>
  <course>7.93</course>
  <speed>0.6859300255857006</speed>
  <fix>3d</fix>
</trkpt>
<trkpt lat="-27.2742843" lon="151.2900886">
  <ele>354.25</ele>
  <time>2026-09-01T19:53:26Z</time>
  <course>7.92</course>
  <speed>0.7877182237323191</speed>
  <fix>3d</fix>
</trkpt>
<trkpt lat="-27.2742833" lon="151.2900887">
  <ele>354.25</ele>
  <time>2026-09-01T19:53:26Z</time>
  <course>188.01</course>
  <speed>0.43</speed>
  <fix>3d</fix>
</trkpt>
<trkpt lat="-27.2742846" lon="151.2900886">
  <ele>354.25</ele>
  <time>2026-09-01T19:53:26Z</time>
  <course>7.92</course>
  <speed>0.8471717653463199</speed>
  <fix>3d</fix>
</trkpt>
<trkpt lat="-27.2742851" lon="151.2900885">
  <ele>354.25</ele>
  <time>2026-09-01T19:53:26Z</time>
  <course>7.91</course>
  <speed>0.9390420650854785</speed>
  <fix>3d</fix>
</trkpt>
<trkpt lat="-27.2742844" lon="151.2900886">
  <ele>354.25</ele>
  <time>2026-09-01T19:53:26Z</time>
  <course>187.94</course>
  <speed>0.78</speed>
  <fix>3d</fix>
</trkpt>
<trkpt lat="-27.2742854" lon="151.2900885">
  <ele>354.25</ele>
  <time>2026-09-01T19:53:26Z</time>
  <course>7.91</course>
  <speed>0.9786725703727472</speed>
  <fix>3d</fix>
</trkpt>
<trkpt lat="-27.274286" lon="151.2900884">
  <ele>354.25</ele>
  <time>2026-09-01T19:53:26Z</time>
  <course>7.91</course>
  <speed>1.0692053123698928</speed>
  <fix>3d</fix>
</trkpt>
<trkpt lat="-27.2742844" lon="151.2900886">
  <ele>354.25</ele>
  <time>2026-09-01T19:53:26Z</time>
  <course>187.94</course>
  <speed>0.78</speed>
  <fix>3d</fix>
</trkpt>
<trkpt lat="-27.2742863" lon="151.2900882">
  <ele>354.25</ele>
  <time>2026-09-01T19:53:26Z</time>
  <course>7.9</course>
  <speed>1.1002726934719411</speed>
  <fix>3d</fix>
</trkpt>
<trkpt lat="-27.274287" lon="151.2900881">
  <ele>354.25</ele>
  <time>2026-09-01T19:53:26Z</time>
  <course>7.92</course>
  <speed>1.161077086157504</speed>
  <fix>3d</fix>
</trkpt>
<trkpt lat="-27.274286" lon="151.2900883">
  <ele>354.25</ele>
  <time>2026-09-01T19:53:26Z</time>
  <course>187.93</course>
  <speed>1.05</speed>
  <fix>3d</fix>
</trkpt>
<trkpt lat="-27.2742873" lon="151.2900881">
  <ele>354.25</ele>
  <time>2026-09-01T19:53:26Z</time>
  <course>7.95</course>
  <speed>1.180889495253472</speed>
  <fix>3d</fix>
</trkpt>
<trkpt lat="-27.2742881" lon="151.2900881">
  <ele>354.25</ele>
  <time>2026-09-01T19:53:26Z</time>
  <course>8.13</course>
  <speed>1.2218837915284744</speed>
  <fix>3d</fix>
</trkpt>
<trkpt lat="-27.274286" lon="151.2900883">
  <ele>354.25</ele>
  <time>2026-09-01T19:53:26Z</time>
  <course>187.93</course>
  <speed>1.05</speed>
  <fix>3d</fix>
</trkpt>
<trkpt lat="-27.2742892" lon="151.2900879">
  <ele>354.25</ele>
  <time>2026-09-01T19:53:26Z</time>
  <course>8.9</course>
  <speed>1.2643575443678896</speed>
  <fix>3d</fix>
</trkpt>
<trkpt lat="-27.274288" lon="151.290088">
  <ele>354.25</ele>
  <time>2026-09-01T19:53:26Z</time>
  <course>188.5</course>
  <speed>1.21</speed>
  <fix>3d</fix>
</trkpt>
<trkpt lat="-27.2742892" lon="151.2900879">
  <ele>354.25</ele>
  <time>2026-09-01T19:53:26Z</time>
  <course>8.95</course>
  <speed>1.2658988901172163</speed>
  <fix>3d</fix>
</trkpt>
<trkpt lat="-27.2742903" lon="151.2900876">
  <ele>354.25</ele>
  <time>2026-09-01T19:53:26Z</time>
  <course>10.77</course>
  <speed>1.2924782396620842</speed>
  <fix>3d</fix>
</trkpt>
<trkpt lat="-27.274288" lon="151.290088">
  <ele>354.25</ele>
  <time>2026-09-01T19:53:26Z</time>
  <course>188.5</course>
  <speed>1.21</speed>
  <fix>3d</fix>
</trkpt>
<trkpt lat="-27.2742907" lon="151.2900876">
  <ele>354.25</ele>
  <time>2026-09-01T19:53:26Z</time>
  <course>11.69</course>
  <speed>1.2943724348115577</speed>
  <fix>3d</fix>
</trkpt>
<trkpt lat="-27.2742915" lon="151.2900874">
  <ele>354.26</ele>
  <time>2026-09-01T19:53:26Z</time>
  <course>14.14</course>
  <speed>1.3004999038831184</speed>
  <fix>3d</fix>
</trkpt>
<trkpt lat="-27.2742902" lon="151.2900876">
  <ele>354.25</ele>
  <time>2026-09-01T19:53:26Z</time>
  <course>190.87</course>
  <speed>1.28</speed>
  <fix>3d</fix>
</trkpt>
<trkpt lat="-27.2742915" lon="151.2900874">
  <ele>354.26</ele>
  <time>2026-09-01T19:53:26Z</time>
  <course>14.27</course>
  <speed>1.3026895255585655</speed>
  <fix>3d</fix>
</trkpt>
<trkpt lat="-27.2742926" lon="151.290087">
  <ele>354.26</ele>
  <time>2026-09-01T19:53:26Z</time>
  <course>18.78</course>
  <speed>1.3121737689803132</speed>
  <fix>3d</fix>
</trkpt>
<trkpt lat="-27.2742902" lon="151.2900876">
  <ele>354.25</ele>
  <time>2026-09-01T19:53:26Z</time>
  <course>190.87</course>
  <speed>1.28</speed>
  <fix>3d</fix>
</trkpt>
<trkpt lat="-27.2742927" lon="151.290087">
  <ele>354.26</ele>
  <time>2026-09-01T19:53:26Z</time>
  <course>19.13</course>
  <speed>1.3121737689803132</speed>
  <fix>3d</fix>
</trkpt>
<trkpt lat="-27.2742938" lon="151.2900867">
  <ele>354.26</ele>
  <time>2026-09-01T19:53:26Z</time>
  <course>24.59</course>
  <speed>1.3104197800704933</speed>
  <fix>3d</fix>
</trkpt>
<trkpt lat="-27.2742925" lon="151.290087">
  <ele>354.26</ele>
  <time>2026-09-01T19:53:26Z</time>
  <course>194.28</course>
  <speed>1.31</speed>
  <fix>3d</fix>
</trkpt>
<trkpt lat="-27.2742938" lon="151.2900867">
  <ele>354.26</ele>
  <time>2026-09-01T19:53:26Z</time>
  <course>24.8</course>
  <speed>1.3104197800704933</speed>
  <fix>3d</fix>
</trkpt>
<trkpt lat="-27.2742949" lon="151.2900862">
  <ele>354.26</ele>
  <time>2026-09-01T19:53:26Z</time>
  <course>31.3</course>
  <speed>1.3036103712382776</speed>
  <fix>3d</fix>
</trkpt>
<trkpt lat="-27.2742925" lon="151.290087">
  <ele>354.26</ele>
  <time>2026-09-01T19:53:26Z</time>
  <course>194.28</course>
  <speed>1.31</speed>
  <fix>3d</fix>
</trkpt>
<trkpt lat="-27.2742953" lon="151.2900862">
  <ele>354.26</ele>
  <time>2026-09-01T19:53:26Z</time>
  <course>33.68</course>
  <speed>1.3036103712382776</speed>
  <fix>3d</fix>
</trkpt>
<trkpt lat="-27.274296" lon="151.2900858">
  <ele>354.26</ele>
  <time>2026-09-01T19:53:26Z</time>
  <course>38.59</course>
  <speed>1.3036103712382776</speed>
  <fix>3d</fix>
</trkpt>
<trkpt lat="-27.2742948" lon="151.2900863">
  <ele>354.26</ele>
  <time>2026-09-01T19:53:26Z</time>
  <course>196.24</course>
  <speed>1.31</speed>
  <fix>3d</fix>
</trkpt>
<trkpt lat="-27.2742964" lon="151.2900857">
  <ele>354.26</ele>
  <time>2026-09-01T19:53:26Z</time>
  <course>40.84</course>
  <speed>1.3008074415531299</speed>
  <fix>3d</fix>
</trkpt>
<trkpt lat="-27.2742971" lon="151.2900856">
  <ele>354.26</ele>
  <time>2026-09-01T19:53:26Z</time>
  <course>46.16</course>
  <speed>1.3050670480860362</speed>
  <fix>3d</fix>
</trkpt>
<trkpt lat="-27.2742948" lon="151.2900863">
  <ele>354.26</ele>
  <time>2026-09-01T19:53:26Z</time>
  <course>196.24</course>
  <speed>1.31</speed>
  <fix>3d</fix>
</trkpt>
<trkpt lat="-27.2742975" lon="151.2900855">
  <ele>354.26</ele>
  <time>2026-09-01T19:53:26Z</time>
  <course>48.45</course>
  <speed>1.3024976007655444</speed>
  <fix>3d</fix>
</trkpt>
<trkpt lat="-27.2742983" lon="151.2900852">
  <ele>354.26</ele>
  <time>2026-09-01T19:53:26Z</time>
  <course>53.57</course>
  <speed>1.3146862743635837</speed>
  <fix>3d</fix>
</trkpt>
<trkpt lat="-27.2742971" lon="151.2900856">
  <ele>354.26</ele>
  <time>2026-09-01T19:53:26Z</time>
  <course>195.05</course>
  <speed>1.31</speed>
  <fix>3d</fix>
</trkpt>
<trkpt lat="-27.2742986" lon="151.2900852">
  <ele>354.26</ele>
  <time>2026-09-01T19:53:26Z</time>
  <course>56.07</course>
  <speed>1.3200378782444084</speed>
  <fix>3d</fix>
</trkpt>
<trkpt lat="-27.2742994" lon="151.290085">
  <ele>354.26</ele>
  <time>2026-09-01T19:53:26Z</time>
  <course>60.98</course>
  <speed>1.3318032887780387</speed>
  <fix>3d</fix>
</trkpt>
<trkpt lat="-27.2742971" lon="151.2900856">
  <ele>354.26</ele>
  <time>2026-09-01T19:53:26Z</time>
  <course>195.05</course>
  <speed>1.31</speed>
  <fix>3d</fix>
</trkpt>
<trkpt lat="-27.2742998" lon="151.2900848">
  <ele>354.26</ele>
  <time>2026-09-01T19:53:26Z</time>
  <course>63.14</course>
  <speed>1.3480726983364064</speed>
  <fix>3d</fix>
</trkpt>
<trkpt lat="-27.2743006" lon="151.2900848">
  <ele>354.26</ele>
  <time>2026-09-01T19:53:26Z</time>
  <course>68.04</course>
  <speed>1.3793114224133722</speed>
  <fix>3d</fix>
</trkpt>
<trkpt lat="-27.2742994" lon="151.290085">
  <ele>354.26</ele>
  <time>2026-09-01T19:53:26Z</time>
  <course>190.18</course>
  <speed>1.34</speed>
  <fix>3d</fix>
</trkpt>
<trkpt lat="-27.274301" lon="151.2900847">
  <ele>354.26</ele>
  <time>2026-09-01T19:53:26Z</time>
  <course>70.07</course>
  <speed>1.3861096637712327</speed>
  <fix>3d</fix>
</trkpt>
<trkpt lat="-27.2743019" lon="151.2900846">
  <ele>354.25</ele>
  <time>2026-09-01T19:53:26Z</time>
  <course>74.68</course>
  <speed>1.4317122615944868</speed>
  <fix>3d</fix>
</trkpt>
<trkpt lat="-27.2742994" lon="151.290085">
  <ele>354.26</ele>
  <time>2026-09-01T19:53:26Z</time>
  <course>190.18</course>
  <speed>1.34</speed>
  <fix>3d</fix>
</trkpt>
<trkpt lat="-27.2743023" lon="151.2900846">
  <ele>354.25</ele>
  <time>2026-09-01T19:53:26Z</time>
  <course>76.59</course>
  <speed>1.450551619212498</speed>
  <fix>3d</fix>
</trkpt>
<trkpt lat="-27.2743032" lon="151.2900846">
  <ele>354.25</ele>
  <time>2026-09-01T19:53:26Z</time>
  <course>80.92</course>
  <speed>1.510132444522665</speed>
  <fix>3d</fix>
</trkpt>
<trkpt lat="-27.2743019" lon="151.2900847">
  <ele>354.25</ele>
  <time>2026-09-01T19:53:26Z</time>
  <course>182.9</course>
  <speed>1.44</speed>
  <fix>3d</fix>
</trkpt>
<trkpt lat="-27.2743036" lon="151.2900846">
  <ele>354.24</ele>
  <time>2026-09-01T19:53:26Z</time>
  <course>82.73</course>
  <speed>1.540519392932137</speed>
  <fix>3d</fix>
</trkpt>
<trkpt lat="-27.2743046" lon="151.2900846">
  <ele>354.24</ele>
  <time>2026-09-01T19:53:26Z</time>
  <course>86.85</course>
  <speed>1.6111176245079064</speed>
  <fix>3d</fix>
</trkpt>
<trkpt lat="-27.2743019" lon="151.2900847">
  <ele>354.25</ele>
  <time>2026-09-01T19:53:26Z</time>
  <course>182.9</course>
  <speed>1.44</speed>
  <fix>3d</fix>
</trkpt>
<trkpt lat="-27.2743051" lon="151.2900846">
  <ele>354.23</ele>
  <time>2026-09-01T19:53:26Z</time>
  <course>88.57</course>
  <speed>1.6407620180879372</speed>
  <fix>3d</fix>
</trkpt>
<trkpt lat="-27.2743061" lon="151.2900846">
  <ele>354.22</ele>
  <time>2026-09-01T19:53:26Z</time>
  <course>92.54</course>
  <speed>1.72</speed>
  <fix>3d</fix>
</trkpt>
<trkpt lat="-27.2743046" lon="151.2900846">
  <ele>354.23</ele>
  <time>2026-09-01T19:53:26Z</time>
  <course>179.47</course>
  <speed>1.61</speed>
  <fix>3d</fix>
</trkpt>
<trkpt lat="-27.2743062" lon="151.2900846">
  <ele>354.22</ele>
  <time>2026-09-01T19:53:26Z</time>
  <course>92.72</course>
  <speed>1.72</speed>
  <fix>3d</fix>
</trkpt>
<trkpt lat="-27.2743077" lon="151.2900846">
  <ele>354.21</ele>
  <time>2026-09-01T19:53:26Z</time>
  <course>98.11</course>
  <speed>1.820988742414406</speed>
  <fix>3d</fix>
</trkpt>
<trkpt lat="-27.2743046" lon="151.2900846">
  <ele>354.23</ele>
  <time>2026-09-01T19:53:26Z</time>
  <course>179.47</course>
  <speed>1.61</speed>
  <fix>3d</fix>
</trkpt>
<trkpt lat="-27.2743078" lon="151.2900846">
  <ele>354.21</ele>
  <time>2026-09-01T19:53:26Z</time>
  <course>98.48</course>
  <speed>1.8213456563760764</speed>
  <fix>3d</fix>
</trkpt>
<trkpt lat="-27.2743094" lon="151.2900846">
  <ele>354.2</ele>
  <time>2026-09-01T19:53:26Z</time>
  <course>103.68</course>
  <speed>1.9144189719076647</speed>
  <fix>3d</fix>
</trkpt>
<trkpt lat="-27.2743077" lon="151.2900846">
  <ele>354.21</ele>
  <time>2026-09-01T19:53:26Z</time>
  <course>181.96</course>
  <speed>1.81</speed>
  <fix>3d</fix>
</trkpt>
<trkpt lat="-27.2743099" lon="151.2900845">
  <ele>354.2</ele>
  <time>2026-09-01T19:53:26Z</time>
  <course>105.19</course>
  <speed>1.9457903278616635</speed>
  <fix>3d</fix>
</trkpt>
<trkpt lat="-27.2743112" lon="151.2900843">
  <ele>354.19</ele>
  <time>2026-09-01T19:53:26Z</time>
  <course>109.37</course>
  <speed>2.008083663595718</speed>
  <fix>3d</fix>
</trkpt>
<trkpt lat="-27.2743077" lon="151.2900846">
  <ele>354.21</ele>
  <time>2026-09-01T19:53:26Z</time>
  <course>181.96</course>
  <speed>1.81</speed>
  <fix>3d</fix>
</trkpt>
<trkpt lat="-27.2743116" lon="151.2900843">
  <ele>354.19</ele>
  <time>2026-09-01T19:53:26Z</time>
  <course>110.91</course>
  <speed>2.0298768435548005</speed>
  <fix>3d</fix>
</trkpt>
<trkpt lat="-27.274313" lon="151.2900842">
  <ele>354.19</ele>
  <time>2026-09-01T19:53:26Z</time>
  <course>115.2</course>
  <speed>2.09267771049438</speed>
  <fix>3d</fix>
</trkpt>
<trkpt lat="-27.2743111" lon="151.2900844">
  <ele>354.19</ele>
  <time>2026-09-01T19:53:26Z</time>
  <course>185.24</course>
  <speed>2.0</speed>
  <fix>3d</fix>
</trkpt>
<trkpt lat="-27.2743135" lon="151.2900841">
  <ele>354.19</ele>
  <time>2026-09-01T19:53:26Z</time>
  <course>116.77</course>
  <speed>2.123605424743495</speed>
  <fix>3d</fix>
</trkpt>
<trkpt lat="-27.2743149" lon="151.2900838">
  <ele>354.19</ele>
  <time>2026-09-01T19:53:26Z</time>
  <course>121.14</course>
  <speed>2.186732722579511</speed>
  <fix>3d</fix>
</trkpt>
<trkpt lat="-27.2743111" lon="151.2900844">
  <ele>354.19</ele>
  <time>2026-09-01T19:53:26Z</time>
  <course>185.24</course>
  <speed>2.0</speed>
  <fix>3d</fix>
</trkpt>
<trkpt lat="-27.274315" lon="151.2900838">
  <ele>354.19</ele>
  <time>2026-09-01T19:53:26Z</time>
  <course>121.34</course>
  <speed>2.186732722579511</speed>
  <fix>3d</fix>
</trkpt>
<trkpt lat="-27.2743169" lon="151.2900836">
  <ele>354.19</ele>
  <time>2026-09-01T19:53:26Z</time>
  <course>127.17</course>
  <speed>2.271255159597882</speed>
  <fix>3d</fix>
</trkpt>
<trkpt lat="-27.2743148" lon="151.2900839">
  <ele>354.19</ele>
  <time>2026-09-01T19:53:26Z</time>
  <course>187.18</course>
  <speed>2.18</speed>
  <fix>3d</fix>
</trkpt>
<trkpt lat="-27.2743175" lon="151.2900834">
  <ele>354.19</ele>
  <time>2026-09-01T19:53:26Z</time>
  <course>128.98</course>
  <speed>2.2924441105510076</speed>
  <fix>3d</fix>
</trkpt>
<trkpt lat="-27.274319" lon="151.2900833">
  <ele>354.19</ele>
  <time>2026-09-01T19:53:26Z</time>
  <course>133.22</course>
  <speed>2.3546761985462035</speed>
  <fix>3d</fix>
</trkpt>
<trkpt lat="-27.2743148" lon="151.2900839">
  <ele>354.19</ele>
  <time>2026-09-01T19:53:26Z</time>
  <course>187.18</course>
  <speed>2.18</speed>
  <fix>3d</fix>
</trkpt>
<trkpt lat="-27.2743196" lon="151.2900832">
  <ele>354.2</ele>
  <time>2026-09-01T19:53:26Z</time>
  <course>135.03</course>
  <speed>2.3759208741033446</speed>
  <fix>3d</fix>
</trkpt>
<trkpt lat="-27.2743211" lon="151.2900829">
  <ele>354.2</ele>
  <time>2026-09-01T19:53:26Z</time>
  <course>139.25</course>
  <speed>2.438237068047322</speed>
  <fix>3d</fix>
</trkpt>
<trkpt lat="-27.2743189" lon="151.2900833">
  <ele>354.19</ele>
  <time>2026-09-01T19:53:26Z</time>
  <course>188.34</course>
  <speed>2.35</speed>
  <fix>3d</fix>
</trkpt>
<trkpt lat="-27.2743217" lon="151.2900828">
  <ele>354.2</ele>
  <time>2026-09-01T19:53:26Z</time>
  <course>141.05</course>
  <speed>2.459532475898621</speed>
  <fix>3d</fix>
</trkpt>
<trkpt lat="-27.2743234" lon="151.2900824">
  <ele>354.21</ele>
  <time>2026-09-01T19:53:26Z</time>
  <course>145.43</course>
  <speed>2.5203571175529866</speed>
  <fix>3d</fix>
</trkpt>
<trkpt lat="-27.2743189" lon="151.2900833">
  <ele>354.19</ele>
  <time>2026-09-01T19:53:26Z</time>
  <course>188.34</course>
  <speed>2.35</speed>
  <fix>3d</fix>
</trkpt>
<trkpt lat="-27.274324" lon="151.2900824">
  <ele>354.21</ele>
  <time>2026-09-01T19:53:26Z</time>
  <course>147.02</course>
  <speed>2.5416726775885206</speed>
  <fix>3d</fix>
</trkpt>
<trkpt lat="-27.2743256" lon="151.2900821">
  <ele>354.22</ele>
  <time>2026-09-01T19:53:26Z</time>
  <course>151.34</course>
  <speed>2.6040929322894755</speed>
  <fix>3d</fix>
</trkpt>
<trkpt lat="-27.2743232" lon="151.2900826">
  <ele>354.21</ele>
  <time>2026-09-01T19:53:26Z</time>
  <course>189.03</course>
  <speed>2.51</speed>
  <fix>3d</fix>
</trkpt>
<trkpt lat="-27.2743257" lon="151.2900821">
  <ele>354.22</ele>
  <time>2026-09-01T19:53:26Z</time>
  <course>151.54</course>
  <speed>2.6040929322894755</speed>
  <fix>3d</fix>
</trkpt>
<trkpt lat="-27.2743279" lon="151.2900817">
  <ele>354.23</ele>
  <time>2026-09-01T19:53:26Z</time>
  <course>157.17</course>
  <speed>2.676415513331216</speed>
  <fix>3d</fix>
</trkpt>
<trkpt lat="-27.2743232" lon="151.2900826">
  <ele>354.21</ele>
  <time>2026-09-01T19:53:26Z</time>
  <course>189.03</course>
  <speed>2.51</speed>
  <fix>3d</fix>
</trkpt>
<trkpt lat="-27.2743281" lon="151.2900817">
  <ele>354.23</ele>
  <time>2026-09-01T19:53:26Z</time>
  <course>157.55</course>
  <speed>2.6862799556263677</speed>
  <fix>3d</fix>
</trkpt>
<trkpt lat="-27.2743304" lon="151.2900812">
  <ele>354.24</ele>
  <time>2026-09-01T19:53:26Z</time>
  <course>162.91</course>
  <speed>2.7586228448267445</speed>
  <fix>3d</fix>
</trkpt>
<trkpt lat="-27.2743278" lon="151.2900817">
  <ele>354.22</ele>
  <time>2026-09-01T19:53:26Z</time>
  <course>189.46</course>
  <speed>2.67</speed>
  <fix>3d</fix>
</trkpt>
<trkpt lat="-27.2743311" lon="151.290081">
  <ele>354.24</ele>
  <time>2026-09-01T19:53:26Z</time>
  <course>164.61</course>
  <speed>2.7783448310100027</speed>
  <fix>3d</fix>
</trkpt>
<trkpt lat="-27.2743329" lon="151.2900808">
  <ele>354.25</ele>
  <time>2026-09-01T19:53:26Z</time>
  <course>168.57</course>
  <speed>2.8309892264012593</speed>
  <fix>3d</fix>
</trkpt>
<trkpt lat="-27.2743278" lon="151.2900817">
  <ele>354.22</ele>
  <time>2026-09-01T19:53:26Z</time>
  <course>189.46</course>
  <speed>2.67</speed>
  <fix>3d</fix>
</trkpt>
<trkpt lat="-27.2743338" lon="151.2900805">
  <ele>354.25</ele>
  <time>2026-09-01T19:53:26Z</time>
  <course>170.61</course>
  <speed>2.8605593858544522</speed>
  <fix>3d</fix>
</trkpt>
<trkpt lat="-27.2743354" lon="151.2900803">
  <ele>354.26</ele>
  <time>2026-09-01T19:53:26Z</time>
  <course>174.08</course>
  <speed>2.9033773437154182</speed>
  <fix>3d</fix>
</trkpt>
<trkpt lat="-27.2743327" lon="151.2900808">
  <ele>354.25</ele>
  <time>2026-09-01T19:53:26Z</time>
  <course>189.78</course>
  <speed>2.83</speed>
  <fix>3d</fix>
</trkpt>
<trkpt lat="-27.2743363" lon="151.29008">
  <ele>354.26</ele>
  <time>2026-09-01T19:53:26Z</time>
  <course>175.86</course>
  <speed>2.9230805667993485</speed>
  <fix>3d</fix>
</trkpt>
<trkpt lat="-27.274338" lon="151.2900797">
  <ele>354.26</ele>
  <time>2026-09-01T19:53:26Z</time>
  <course>179.28</course>
  <speed>2.97578561055732</speed>
  <fix>3d</fix>
</trkpt>
<trkpt lat="-27.2743327" lon="151.2900808">
  <ele>354.25</ele>
  <time>2026-09-01T19:53:26Z</time>
  <course>189.78</course>
  <speed>2.83</speed>
  <fix>3d</fix>
</trkpt>
<trkpt lat="-27.2743388" lon="151.2900795">
  <ele>354.27</ele>
  <time>2026-09-01T19:53:26Z</time>
  <course>180.75</course>
  <speed>2.995479928158425</speed>
  <fix>3d</fix>
</trkpt>
<trkpt lat="-27.2743407" lon="151.2900791">
  <ele>354.27</ele>
  <time>2026-09-01T19:53:26Z</time>
  <course>183.96</course>
  <speed>3.048212591011329</speed>
  <fix>3d</fix>
</trkpt>
<trkpt lat="-27.2743379" lon="151.2900797">
  <ele>354.26</ele>
  <time>2026-09-01T19:53:26Z</time>
  <course>190.07</course>
  <speed>2.97</speed>
  <fix>3d</fix>
</trkpt>
<trkpt lat="-27.2743415" lon="151.290079">
  <ele>354.27</ele>
  <time>2026-09-01T19:53:26Z</time>
  <course>185.22</course>
  <speed>3.0678983033992506</speed>
  <fix>3d</fix>
</trkpt>
<trkpt lat="-27.2743434" lon="151.2900786">
  <ele>354.28</ele>
  <time>2026-09-01T19:53:26Z</time>
  <course>187.89</course>
  <speed>3.109035220128585</speed>
  <fix>3d</fix>
</trkpt>
<trkpt lat="-27.2743379" lon="151.2900797">
  <ele>354.26</ele>
  <time>2026-09-01T19:53:26Z</time>
  <course>190.07</course>
  <speed>2.97</speed>
  <fix>3d</fix>
</trkpt>
<trkpt lat="-27.2743441" lon="151.2900785">
  <ele>354.28</ele>
  <time>2026-09-01T19:53:26Z</time>
  <course>188.79</course>
  <speed>3.120656982111299</speed>
  <fix>3d</fix>
</trkpt>
<trkpt lat="-27.2743462" lon="151.2900781">
  <ele>354.28</ele>
  <time>2026-09-01T19:53:26Z</time>
  <course>190.91</course>
  <speed>3.169858040985432</speed>
  <fix>3d</fix>
</trkpt>
<trkpt lat="-27.2743432" lon="151.2900786">
  <ele>354.27</ele>
  <time>2026-09-01T19:53:26Z</time>
  <course>190.26</course>
  <speed>3.1</speed>
  <fix>3d</fix>
</trkpt>
<trkpt lat="-27.274347" lon="151.2900779">
  <ele>354.28</ele>
  <time>2026-09-01T19:53:26Z</time>
  <course>191.62</course>
  <speed>3.1913163428278306</speed>
  <fix>3d</fix>
</trkpt>
<trkpt lat="-27.274349" lon="151.2900775">
  <ele>354.28</ele>
  <time>2026-09-01T19:53:26Z</time>
  <course>192.92</course>
  <speed>3.220838400168503</speed>
  <fix>3d</fix>
</trkpt>
<trkpt lat="-27.2743432" lon="151.2900786">
  <ele>354.27</ele>
  <time>2026-09-01T19:53:26Z</time>
  <course>190.26</course>
  <speed>3.1</speed>
  <fix>3d</fix>
</trkpt>
<trkpt lat="-27.2743491" lon="151.2900775">
  <ele>354.28</ele>
  <time>2026-09-01T19:53:26Z</time>
  <course>192.97</course>
  <speed>3.230681042752441</speed>
  <fix>3d</fix>
</trkpt>
<trkpt lat="-27.2743519" lon="151.2900769">
  <ele>354.29</ele>
  <time>2026-09-01T19:53:26Z</time>
  <course>193.94</course>
  <speed>3.271819065902025</speed>
  <fix>3d</fix>
</trkpt>
<trkpt lat="-27.2743488" lon="151.2900775">
  <ele>354.28</ele>
  <time>2026-09-01T19:53:26Z</time>
  <course>190.28</course>
  <speed>3.22</speed>
  <fix>3d</fix>
</trkpt>
<trkpt lat="-27.2743528" lon="151.2900766">
  <ele>354.29</ele>
  <time>2026-09-01T19:53:26Z</time>
  <course>194.07</course>
  <speed>3.2915042154006127</speed>
  <fix>3d</fix>
</trkpt>
<trkpt lat="-27.2743548" lon="151.2900762">
  <ele>354.29</ele>
  <time>2026-09-01T19:53:26Z</time>
  <course>194.13</course>
  <speed>3.3210389940499043</speed>
  <fix>3d</fix>
</trkpt>
<trkpt lat="-27.2743488" lon="151.2900775">
  <ele>354.28</ele>
  <time>2026-09-01T19:53:26Z</time>
  <course>190.28</course>
  <speed>3.22</speed>
  <fix>3d</fix>
</trkpt>
<trkpt lat="-27.2743549" lon="151.2900762">
  <ele>354.29</ele>
  <time>2026-09-01T19:53:26Z</time>
  <course>194.12</course>
  <speed>3.3210389940499043</speed>
  <fix>3d</fix>
</trkpt>
<trkpt lat="-27.2743577" lon="151.2900757">
  <ele>354.29</ele>
  <time>2026-09-01T19:53:26Z</time>
  <course>193.75</course>
  <speed>3.3702818873204063</speed>
  <fix>3d</fix>
</trkpt>
<trkpt lat="-27.2743546" lon="151.2900763">
  <ele>354.29</ele>
  <time>2026-09-01T19:53:26Z</time>
  <course>190.08</course>
  <speed>3.32</speed>
  <fix>3d</fix>
</trkpt>
<trkpt lat="-27.2743579" lon="151.2900757">
  <ele>354.29</ele>
  <time>2026-09-01T19:53:26Z</time>
  <course>193.71</course>
  <speed>3.3702818873204063</speed>
  <fix>3d</fix>
</trkpt>
<trkpt lat="-27.2743607" lon="151.2900752">
  <ele>354.29</ele>
  <time>2026-09-01T19:53:26Z</time>
  <course>193.04</course>
  <speed>3.408005281686048</speed>
  <fix>3d</fix>
</trkpt>
<trkpt lat="-27.2743546" lon="151.2900763">
  <ele>354.29</ele>
  <time>2026-09-01T19:53:26Z</time>
  <course>190.08</course>
  <speed>3.32</speed>
  <fix>3d</fix>
</trkpt>
<trkpt lat="-27.2743616" lon="151.290075">
  <ele>354.29</ele>
  <time>2026-09-01T19:53:26Z</time>
  <course>192.79</course>
  <speed>3.427725193185708</speed>
  <fix>3d</fix>
</trkpt>
<trkpt lat="-27.2743637" lon="151.2900746">
  <ele>354.29</ele>
  <time>2026-09-01T19:53:26Z</time>
  <course>192.2</course>
  <speed>3.4556764894879843</speed>
  <fix>3d</fix>
</trkpt>
<trkpt lat="-27.2743606" lon="151.2900752">
  <ele>354.29</ele>
  <time>2026-09-01T19:53:26Z</time>
  <course>189.69</course>
  <speed>3.41</speed>
  <fix>3d</fix>
</trkpt>
<trkpt lat="-27.2743647" lon="151.2900743">
  <ele>354.28</ele>
  <time>2026-09-01T19:53:26Z</time>
  <course>191.95</course>
  <speed>3.4754136444457946</speed>
  <fix>3d</fix>
</trkpt>
<trkpt lat="-27.2743668" lon="151.290074">
  <ele>354.28</ele>
  <time>2026-09-01T19:53:26Z</time>
  <course>191.4</course>
  <speed>3.5050249642477582</speed>
  <fix>3d</fix>
</trkpt>
<trkpt lat="-27.2743606" lon="151.2900752">
  <ele>354.29</ele>
  <time>2026-09-01T19:53:26Z</time>
  <course>189.69</course>
  <speed>3.41</speed>
  <fix>3d</fix>
</trkpt>
<trkpt lat="-27.2743679" lon="151.2900737">
  <ele>354.28</ele>
  <time>2026-09-01T19:53:26Z</time>
  <course>191.16</course>
  <speed>3.52319457311117</speed>
  <fix>3d</fix>
</trkpt>
<trkpt lat="-27.27437" lon="151.2900735">
  <ele>354.28</ele>
  <time>2026-09-01T19:53:26Z</time>
  <course>190.74</course>
  <speed>3.542950747611375</speed>
  <fix>3d</fix>
</trkpt>
<trkpt lat="-27.2743667" lon="151.290074">
  <ele>354.28</ele>
  <time>2026-09-01T19:53:26Z</time>
  <course>189.2</course>
  <speed>3.5</speed>
  <fix>3d</fix>
</trkpt>
<trkpt lat="-27.2743708" lon="151.2900733">
  <ele>354.28</ele>
  <time>2026-09-01T19:53:26Z</time>
  <course>190.6</course>
  <speed>3.5512955382507942</speed>
  <fix>3d</fix>
</trkpt>
<trkpt lat="-27.2743731" lon="151.2900728">
  <ele>354.28</ele>
  <time>2026-09-01T19:53:26Z</time>
  <course>190.29</course>
  <speed>3.571064267133819</speed>
  <fix>3d</fix>
</trkpt>
<trkpt lat="-27.2743667" lon="151.290074">
  <ele>354.28</ele>
  <time>2026-09-01T19:53:26Z</time>
  <course>189.2</course>
  <speed>3.5</speed>
  <fix>3d</fix>
</trkpt>
<trkpt lat="-27.2743741" lon="151.2900727">
  <ele>354.28</ele>
  <time>2026-09-01T19:53:26Z</time>
  <course>190.19</course>
  <speed>3.5695657999258117</speed>
  <fix>3d</fix>
</trkpt>
<trkpt lat="-27.2743763" lon="151.2900723">
  <ele>354.28</ele>
  <time>2026-09-01T19:53:26Z</time>
  <course>190.03</course>
  <speed>3.568094729684177</speed>
  <fix>3d</fix>
</trkpt>
<trkpt lat="-27.274373" lon="151.2900729">
  <ele>354.28</ele>
  <time>2026-09-01T19:53:26Z</time>
  <course>188.72</course>
  <speed>3.56</speed>
  <fix>3d</fix>
</trkpt>
<trkpt lat="-27.2743772" lon="151.2900722">
  <ele>354.28</ele>
  <time>2026-09-01T19:53:26Z</time>
  <course>190.0</course>
  <speed>3.568094729684177</speed>
  <fix>3d</fix>
</trkpt>
<trkpt lat="-27.2743795" lon="151.2900718">
  <ele>354.28</ele>
  <time>2026-09-01T19:53:26Z</time>
  <course>189.95</course>
  <speed>3.556754138255834</speed>
  <fix>3d</fix>
</trkpt>
<trkpt lat="-27.274373" lon="151.2900729">
  <ele>354.28</ele>
  <time>2026-09-01T19:53:26Z</time>
  <course>188.72</course>
  <speed>3.56</speed>
  <fix>3d</fix>
</trkpt>
<trkpt lat="-27.2743803" lon="151.2900717">
  <ele>354.28</ele>
  <time>2026-09-01T19:53:26Z</time>
  <course>189.95</course>
  <speed>3.5454336829223023</speed>
  <fix>3d</fix>
</trkpt>
<trkpt lat="-27.2743827" lon="151.2900713">
  <ele>354.28</ele>
  <time>2026-09-01T19:53:26Z</time>
  <course>189.99</course>
  <speed>3.514327816240255</speed>
  <fix>3d</fix>
</trkpt>
<trkpt lat="-27.2743793" lon="151.2900718">
  <ele>354.28</ele>
  <time>2026-09-01T19:53:26Z</time>
  <course>188.3</course>
  <speed>3.55</speed>
  <fix>3d</fix>
</trkpt>
<trkpt lat="-27.2743836" lon="151.2900712">
  <ele>354.28</ele>
  <time>2026-09-01T19:53:26Z</time>
  <course>190.01</course>
  <speed>3.504425773218774</speed>
  <fix>3d</fix>
</trkpt>
<trkpt lat="-27.2743858" lon="151.2900708">
  <ele>354.28</ele>
  <time>2026-09-01T19:53:26Z</time>
  <course>190.1</course>
  <speed>3.4620514149850523</speed>
  <fix>3d</fix>
</trkpt>
<trkpt lat="-27.2743793" lon="151.2900718">
  <ele>354.28</ele>
  <time>2026-09-01T19:53:26Z</time>
  <course>188.3</course>
  <speed>3.55</speed>
  <fix>3d</fix>
</trkpt>
<trkpt lat="-27.2743859" lon="151.2900708">
  <ele>354.28</ele>
  <time>2026-09-01T19:53:26Z</time>
  <course>190.1</course>
  <speed>3.452144261180288</speed>
  <fix>3d</fix>
</trkpt>
<trkpt lat="-27.2743889" lon="151.2900703">
  <ele>354.28</ele>
  <time>2026-09-01T19:53:26Z</time>
  <course>190.23</course>
  <speed>3.380088756231114</speed>
  <fix>3d</fix>
</trkpt>
<trkpt lat="-27.2743856" lon="151.2900708">
  <ele>354.28</ele>
  <time>2026-09-01T19:53:26Z</time>
  <course>187.94</course>
  <speed>3.46</speed>
  <fix>3d</fix>
</trkpt>
<trkpt lat="-27.2743897" lon="151.2900702">
  <ele>354.29</ele>
  <time>2026-09-01T19:53:26Z</time>
  <course>190.26</course>
  <speed>3.3602678464670044</speed>
  <fix>3d</fix>
</trkpt>
<trkpt lat="-27.2743919" lon="151.2900699">
  <ele>354.29</ele>
  <time>2026-09-01T19:53:26Z</time>
  <course>190.35</course>
  <speed>3.298150997149767</speed>
  <fix>3d</fix>
</trkpt>
<trkpt lat="-27.2743856" lon="151.2900708">
  <ele>354.28</ele>
  <time>2026-09-01T19:53:26Z</time>
  <course>187.94</course>
  <speed>3.46</speed>
  <fix>3d</fix>
</trkpt>
<trkpt lat="-27.2743926" lon="151.2900698">
  <ele>354.29</ele>
  <time>2026-09-01T19:53:26Z</time>
  <course>190.38</course>
  <speed>3.2684093990808436</speed>
  <fix>3d</fix>
</trkpt>
<trkpt lat="-27.2743948" lon="151.2900694">
  <ele>354.29</ele>
  <time>2026-09-01T19:53:26Z</time>
  <course>190.45</course>
  <speed>3.1964042297556796</speed>
  <fix>3d</fix>
</trkpt>
<trkpt lat="-27.2743916" lon="151.2900699">
  <ele>354.28</ele>
  <time>2026-09-01T19:53:26Z</time>
  <course>187.61</course>
  <speed>3.3</speed>
  <fix>3d</fix>
</trkpt>
<trkpt lat="-27.2743956" lon="151.2900693">
  <ele>354.29</ele>
  <time>2026-09-01T19:53:26Z</time>
  <course>190.48</course>
  <speed>3.1653751752359467</speed>
  <fix>3d</fix>
</trkpt>
<trkpt lat="-27.2743976" lon="151.290069">
  <ele>354.3</ele>
  <time>2026-09-01T19:53:26Z</time>
  <course>190.52</course>
  <speed>3.0847528264027897</speed>
  <fix>3d</fix>
</trkpt>
<trkpt lat="-27.2743916" lon="151.2900699">
  <ele>354.28</ele>
  <time>2026-09-01T19:53:26Z</time>
  <course>187.61</course>
  <speed>3.3</speed>
  <fix>3d</fix>
</trkpt>
<trkpt lat="-27.2744003" lon="151.2900687">
  <ele>354.3</ele>
  <time>2026-09-01T19:53:26Z</time>
  <course>190.56</course>
  <speed>2.9718849237478895</speed>
  <fix>3d</fix>
</trkpt>
<trkpt lat="-27.2743973" lon="151.290069">
  <ele>354.29</ele>
  <time>2026-09-01T19:53:26Z</time>
  <course>187.3</course>
  <speed>3.09</speed>
  <fix>3d</fix>
</trkpt>
<trkpt lat="-27.2744004" lon="151.2900687">
  <ele>354.3</ele>
  <time>2026-09-01T19:53:26Z</time>
  <course>190.56</course>
  <speed>2.9718849237478895</speed>
  <fix>3d</fix>
</trkpt>
<trkpt lat="-27.2744029" lon="151.2900683">
  <ele>354.3</ele>
  <time>2026-09-01T19:53:26Z</time>
  <course>190.58</course>
  <speed>2.8602797066021357</speed>
  <fix>3d</fix>
</trkpt>
<trkpt lat="-27.2743973" lon="151.290069">
  <ele>354.29</ele>
  <time>2026-09-01T19:53:26Z</time>
  <course>187.3</course>
  <speed>3.09</speed>
  <fix>3d</fix>
</trkpt>
<trkpt lat="-27.274403" lon="151.2900683">
  <ele>354.3</ele>
  <time>2026-09-01T19:53:26Z</time>
  <course>190.58</course>
  <speed>2.850350855596553</speed>
  <fix>3d</fix>
</trkpt>
<trkpt lat="-27.2744054" lon="151.290068">
  <ele>354.3</ele>
  <time>2026-09-01T19:53:26Z</time>
  <course>190.57</course>
  <speed>2.73875884297979</speed>
  <fix>3d</fix>
</trkpt>
<trkpt lat="-27.2744026" lon="151.2900683">
  <ele>354.3</ele>
  <time>2026-09-01T19:53:26Z</time>
  <course>186.98</course>
  <speed>2.86</speed>
  <fix>3d</fix>
</trkpt>
<trkpt lat="-27.2744061" lon="151.2900679">
  <ele>354.3</ele>
  <time>2026-09-01T19:53:26Z</time>
  <course>190.57</course>
  <speed>2.6978695298327526</speed>
  <fix>3d</fix>
</trkpt>
<trkpt lat="-27.2744078" lon="151.2900676">
  <ele>354.3</ele>
  <time>2026-09-01T19:53:26Z</time>
  <course>190.56</course>
  <speed>2.6172504656604803</speed>
  <fix>3d</fix>
</trkpt>
<trkpt lat="-27.2744026" lon="151.2900683">
  <ele>354.3</ele>
  <time>2026-09-01T19:53:26Z</time>
  <course>186.98</course>
  <speed>2.86</speed>
  <fix>3d</fix>
</trkpt>
<trkpt lat="-27.2744085" lon="151.2900675">
  <ele>354.3</ele>
  <time>2026-09-01T19:53:26Z</time>
  <course>190.56</course>
  <speed>2.5763734201392468</speed>
  <fix>3d</fix>
</trkpt>
<trkpt lat="-27.2744101" lon="151.2900674">
  <ele>354.3</ele>
  <time>2026-09-01T19:53:26Z</time>
  <course>190.55</course>
  <speed>2.4858197842965204</speed>
  <fix>3d</fix>
</trkpt>
<trkpt lat="-27.2744075" lon="151.2900677">
  <ele>354.3</ele>
  <time>2026-09-01T19:53:26Z</time>
  <course>186.66</course>
  <speed>2.62</speed>
  <fix>3d</fix>
</trkpt>
<trkpt lat="-27.2744107" lon="151.2900673">
  <ele>354.29</ele>
  <time>2026-09-01T19:53:26Z</time>
  <course>190.55</course>
  <speed>2.4548930730278253</speed>
  <fix>3d</fix>
</trkpt>
<trkpt lat="-27.2744122" lon="151.290067">
  <ele>354.29</ele>
  <time>2026-09-01T19:53:26Z</time>
  <course>190.54</course>
  <speed>2.363260459619295</speed>
  <fix>3d</fix>
</trkpt>
<trkpt lat="-27.2744075" lon="151.2900677">
  <ele>354.3</ele>
  <time>2026-09-01T19:53:26Z</time>
  <course>186.66</course>
  <speed>2.62</speed>
  <fix>3d</fix>
</trkpt>
<trkpt lat="-27.2744128" lon="151.290067">
  <ele>354.29</ele>
  <time>2026-09-01T19:53:26Z</time>
  <course>190.54</course>
  <speed>2.323488756159582</speed>
  <fix>3d</fix>
</trkpt>
<trkpt lat="-27.2744143" lon="151.2900668">
  <ele>354.28</ele>
  <time>2026-09-01T19:53:26Z</time>
  <course>190.54</course>
  <speed>2.231882613400624</speed>
  <fix>3d</fix>
</trkpt>
<trkpt lat="-27.274412" lon="151.2900671">
  <ele>354.28</ele>
  <time>2026-09-01T19:53:26Z</time>
  <course>186.29</course>
  <speed>2.37</speed>
  <fix>3d</fix>
</trkpt>
<trkpt lat="-27.2744143" lon="151.2900668">
  <ele>354.28</ele>
  <time>2026-09-01T19:53:26Z</time>
  <course>190.54</course>
  <speed>2.231882613400624</speed>
  <fix>3d</fix>
</trkpt>
<trkpt lat="-27.2744162" lon="151.2900666">
  <ele>354.28</ele>
  <time>2026-09-01T19:53:26Z</time>
  <course>190.54</course>
  <speed>2.110473880435387</speed>
  <fix>3d</fix>
</trkpt>
<trkpt lat="-27.274412" lon="151.2900671">
  <ele>354.28</ele>
  <time>2026-09-01T19:53:26Z</time>
  <course>186.29</course>
  <speed>2.37</speed>
  <fix>3d</fix>
</trkpt>
<trkpt lat="-27.2744163" lon="151.2900666">
  <ele>354.28</ele>
  <time>2026-09-01T19:53:26Z</time>
  <course>190.54</course>
  <speed>2.100523744212381</speed>
  <fix>3d</fix>
</trkpt>
<trkpt lat="-27.2744181" lon="151.2900664">
  <ele>354.27</ele>
  <time>2026-09-01T19:53:26Z</time>
  <course>190.55</course>
  <speed>1.9791412279066898</speed>
  <fix>3d</fix>
</trkpt>
<trkpt lat="-27.274416" lon="151.2900666">
  <ele>354.27</ele>
  <time>2026-09-01T19:53:26Z</time>
  <course>185.87</course>
  <speed>2.12</speed>
  <fix>3d</fix>
</trkpt>
<trkpt lat="-27.2744186" lon="151.2900663">
  <ele>354.26</ele>
  <time>2026-09-01T19:53:26Z</time>
  <course>190.56</course>
  <speed>1.9383756085960224</speed>
  <fix>3d</fix>
</trkpt>
<trkpt lat="-27.2744198" lon="151.2900661">
  <ele>354.26</ele>
  <time>2026-09-01T19:53:26Z</time>
  <course>190.57</course>
  <speed>1.8478365728602733</speed>
  <fix>3d</fix>
</trkpt>
<trkpt lat="-27.274416" lon="151.2900666">
  <ele>354.27</ele>
  <time>2026-09-01T19:53:26Z</time>
  <course>185.87</course>
  <speed>2.12</speed>
  <fix>3d</fix>
</trkpt>
<trkpt lat="-27.2744203" lon="151.2900661">
  <ele>354.25</ele>
  <time>2026-09-01T19:53:26Z</time>
  <course>190.57</course>
  <speed>1.807097119692243</speed>
  <fix>3d</fix>
</trkpt>
<trkpt lat="-27.2744214" lon="151.2900661">
  <ele>354.25</ele>
  <time>2026-09-01T19:53:26Z</time>
  <course>190.59</course>
  <speed>1.726528308484978</speed>
  <fix>3d</fix>
</trkpt>
<trkpt lat="-27.2744196" lon="151.2900662">
  <ele>354.26</ele>
  <time>2026-09-01T19:53:26Z</time>
  <course>185.38</course>
  <speed>1.86</speed>
  <fix>3d</fix>
</trkpt>
<trkpt lat="-27.2744214" lon="151.290066">
  <ele>354.25</ele>
  <time>2026-09-01T19:53:26Z</time>
  <course>190.59</course>
  <speed>1.716566340110396</speed>
  <fix>3d</fix>
</trkpt>
<trkpt lat="-27.2744229" lon="151.2900659">
  <ele>354.24</ele>
  <time>2026-09-01T19:53:26Z</time>
  <course>190.61</course>
  <speed>1.5953056133543817</speed>
  <fix>3d</fix>
</trkpt>
<trkpt lat="-27.2744196" lon="151.2900662">
  <ele>354.26</ele>
  <time>2026-09-01T19:53:26Z</time>
  <course>185.38</course>
  <speed>1.86</speed>
  <fix>3d</fix>
</trkpt>
<trkpt lat="-27.2744229" lon="151.2900659">
  <ele>354.24</ele>
  <time>2026-09-01T19:53:26Z</time>
  <course>190.61</course>
  <speed>1.5953056133543817</speed>
  <fix>3d</fix>
</trkpt>
<trkpt lat="-27.2744242" lon="151.2900657">
  <ele>354.23</ele>
  <time>2026-09-01T19:53:26Z</time>
  <course>190.63</course>
  <speed>1.4741099009232657</speed>
  <fix>3d</fix>
</trkpt>
<trkpt lat="-27.2744227" lon="151.2900659">
  <ele>354.24</ele>
  <time>2026-09-01T19:53:26Z</time>
  <course>184.81</course>
  <speed>1.6</speed>
  <fix>3d</fix>
</trkpt>
<trkpt lat="-27.2744243" lon="151.2900657">
  <ele>354.23</ele>
  <time>2026-09-01T19:53:26Z</time>
  <course>190.63</course>
  <speed>1.464137971640651</speed>
  <fix>3d</fix>
</trkpt>
<trkpt lat="-27.2744255" lon="151.2900656">
  <ele>354.22</ele>
  <time>2026-09-01T19:53:26Z</time>
  <course>190.65</course>
  <speed>1.362974687952788</speed>
  <fix>3d</fix>
</trkpt>
<trkpt lat="-27.2744227" lon="151.2900659">
  <ele>354.24</ele>
  <time>2026-09-01T19:53:26Z</time>
  <course>184.81</course>
  <speed>1.6</speed>
  <fix>3d</fix>
</trkpt>
<trkpt lat="-27.2744259" lon="151.2900656">
  <ele>354.21</ele>
  <time>2026-09-01T19:53:26Z</time>
  <course>190.66</course>
  <speed>1.3230646242719968</speed>
  <fix>3d</fix>
</trkpt>
<trkpt lat="-27.2744267" lon="151.2900656">
  <ele>354.2</ele>
  <time>2026-09-01T19:53:26Z</time>
  <course>190.67</course>
  <speed>1.2525573839150046</speed>
  <fix>3d</fix>
</trkpt>
<trkpt lat="-27.2744254" lon="151.2900656">
  <ele>354.21</ele>
  <time>2026-09-01T19:53:26Z</time>
  <course>184.16</course>
  <speed>1.37</speed>
  <fix>3d</fix>
</trkpt>
<trkpt lat="-27.274427" lon="151.2900656">
  <ele>354.19</ele>
  <time>2026-09-01T19:53:26Z</time>
  <course>190.67</course>
  <speed>1.2220065466273085</speed>
  <fix>3d</fix>
</trkpt>
<trkpt lat="-27.2744278" lon="151.2900655">
  <ele>354.17</ele>
  <time>2026-09-01T19:53:26Z</time>
  <course>190.68</course>
  <speed>1.1515641536623134</speed>
  <fix>3d</fix>
</trkpt>
<trkpt lat="-27.2744254" lon="151.2900656">
  <ele>354.21</ele>
  <time>2026-09-01T19:53:26Z</time>
  <course>184.16</course>
  <speed>1.37</speed>
  <fix>3d</fix>
</trkpt>
<trkpt lat="-27.2744281" lon="151.2900655">
  <ele>354.16</ele>
  <time>2026-09-01T19:53:26Z</time>
  <course>190.68</course>
  <speed>1.1216059914247962</speed>
  <fix>3d</fix>
</trkpt>
<trkpt lat="-27.2744288" lon="151.2900654">
  <ele>354.12</ele>
  <time>2026-09-01T19:53:26Z</time>
  <course>190.69</course>
  <speed>1.061178590059185</speed>
  <fix>3d</fix>
</trkpt>
<trkpt lat="-27.2744276" lon="151.2900655">
  <ele>354.16</ele>
  <time>2026-09-01T19:53:26Z</time>
  <course>183.46</course>
  <speed>1.16</speed>
  <fix>3d</fix>
</trkpt>
<trkpt lat="-27.2744288" lon="151.2900654">
  <ele>354.12</ele>
  <time>2026-09-01T19:53:26Z</time>
  <course>190.69</course>
  <speed>1.0511898020814319</speed>
  <fix>3d</fix>
</trkpt>
<trkpt lat="-27.2744297" lon="151.2900654">
  <ele>354.07</ele>
  <time>2026-09-01T19:53:26Z</time>
  <course>190.7</course>
  <speed>0.9608329719571451</speed>
  <fix>3d</fix>
</trkpt>
<trkpt lat="-27.2744276" lon="151.2900655">
  <ele>354.16</ele>
  <time>2026-09-01T19:53:26Z</time>
  <course>183.46</course>
  <speed>1.16</speed>
  <fix>3d</fix>
</trkpt>
<trkpt lat="-27.2744297" lon="151.2900654">
  <ele>354.06</ele>
  <time>2026-09-01T19:53:26Z</time>
  <course>190.7</course>
  <speed>0.9508417323613851</speed>
  <fix>3d</fix>
</trkpt>
<trkpt lat="-27.2744305" lon="151.2900654">
  <ele>353.99</ele>
  <time>2026-09-01T19:53:26Z</time>
  <course>190.7</course>
  <speed>0.8705170877128146</speed>
  <fix>3d</fix>
</trkpt>
<trkpt lat="-27.2744296" lon="151.2900654">
  <ele>354.06</ele>
  <time>2026-09-01T19:53:26Z</time>
  <course>182.65</course>
  <speed>0.97</speed>
  <fix>3d</fix>
</trkpt>
<trkpt lat="-27.2744307" lon="151.2900652">
  <ele>353.97</ele>
  <time>2026-09-01T19:53:26Z</time>
  <course>190.69</course>
  <speed>0.8402380615040002</speed>
  <fix>3d</fix>
</trkpt>
<trkpt lat="-27.2744312" lon="151.2900652">
  <ele>353.9</ele>
  <time>2026-09-01T19:53:26Z</time>
  <course>190.69</course>
  <speed>0.7702596964660685</speed>
  <fix>3d</fix>
</trkpt>
<trkpt lat="-27.2744296" lon="151.2900654">
  <ele>354.06</ele>
  <time>2026-09-01T19:53:26Z</time>
  <course>182.65</course>
  <speed>0.97</speed>
  <fix>3d</fix>
</trkpt>
<trkpt lat="-27.2744314" lon="151.2900652">
  <ele>353.87</ele>
  <time>2026-09-01T19:53:26Z</time>
  <course>190.69</course>
  <speed>0.7400675644831355</speed>
  <fix>3d</fix>
</trkpt>
<trkpt lat="-27.2744319" lon="151.2900652">
  <ele>353.8</ele>
  <time>2026-09-01T19:53:26Z</time>
  <course>190.68</course>
  <speed>0.6800735254367721</speed>
  <fix>3d</fix>
</trkpt>
<trkpt lat="-27.2744312" lon="151.2900653">
  <ele>353.89</ele>
  <time>2026-09-01T19:53:26Z</time>
  <course>181.59</course>
  <speed>0.78</speed>
  <fix>3d</fix>
</trkpt>
<trkpt lat="-27.2744321" lon="151.2900652">
  <ele>353.77</ele>
  <time>2026-09-01T19:53:26Z</time>
  <course>190.67</course>
  <speed>0.65</speed>
  <fix>3d</fix>
</trkpt>
<trkpt lat="-27.2744325" lon="151.2900652">
  <ele>353.68</ele>
  <time>2026-09-01T19:53:26Z</time>
  <course>190.66</course>
  <speed>0.59</speed>
  <fix>3d</fix>
</trkpt>
<trkpt lat="-27.2744312" lon="151.2900653">
  <ele>353.89</ele>
  <time>2026-09-01T19:53:26Z</time>
  <course>181.59</course>
  <speed>0.78</speed>
  <fix>3d</fix>
</trkpt>
<trkpt lat="-27.2744326" lon="151.2900652">
  <ele>353.65</ele>
  <time>2026-09-01T19:53:26Z</time>
  <course>190.65</course>
  <speed>0.56</speed>
  <fix>3d</fix>
</trkpt>
<trkpt lat="-27.274433" lon="151.2900652">
  <ele>353.56</ele>
  <time>2026-09-01T19:53:26Z</time>
  <course>190.63</course>
  <speed>0.5</speed>
  <fix>3d</fix>
</trkpt>
<trkpt lat="-27.2744324" lon="151.2900652">
  <ele>353.68</ele>
  <time>2026-09-01T19:53:26Z</time>
  <course>180.16</course>
  <speed>0.59</speed>
  <fix>3d</fix>
</trkpt>
<trkpt lat="-27.2744331" lon="151.2900652">
  <ele>353.52</ele>
  <time>2026-09-01T19:53:26Z</time>
  <course>190.62</course>
  <speed>0.47010637094172636</speed>
  <fix>3d</fix>
</trkpt>
<trkpt lat="-27.2744334" lon="151.2900652">
  <ele>353.43</ele>
  <time>2026-09-01T19:53:26Z</time>
  <course>190.59</course>
  <speed>0.41012193308819755</speed>
  <fix>3d</fix>
</trkpt>
<trkpt lat="-27.2744324" lon="151.2900652">
  <ele>353.68</ele>
  <time>2026-09-01T19:53:26Z</time>
  <course>180.16</course>
  <speed>0.59</speed>
  <fix>3d</fix>
</trkpt>
<trkpt lat="-27.2744335" lon="151.2900652">
  <ele>353.39</ele>
  <time>2026-09-01T19:53:26Z</time>
  <course>190.58</course>
  <speed>0.3901281840626232</speed>
  <fix>3d</fix>
</trkpt>
<trkpt lat="-27.2744337" lon="151.2900652">
  <ele>353.29</ele>
  <time>2026-09-01T19:53:26Z</time>
  <course>190.55</course>
  <speed>0.3306055050963308</speed>
  <fix>3d</fix>
</trkpt>
<trkpt lat="-27.2744333" lon="151.2900652">
  <ele>353.43</ele>
  <time>2026-09-01T19:53:26Z</time>
  <course>178.13</course>
  <speed>0.42</speed>
  <fix>3d</fix>
</trkpt>
<trkpt lat="-27.2744338" lon="151.2900652">
  <ele>353.25</ele>
  <time>2026-09-01T19:53:26Z</time>
  <course>190.53</course>
  <speed>0.30066592756745814</speed>
  <fix>3d</fix>
</trkpt>
<trkpt lat="-27.274434" lon="151.2900652">
  <ele>353.16</ele>
  <time>2026-09-01T19:53:26Z</time>
  <course>190.5</course>
  <speed>0.260768096208106</speed>
  <fix>3d</fix>
</trkpt>
<trkpt lat="-27.2744333" lon="151.2900652">
  <ele>353.43</ele>
  <time>2026-09-01T19:53:26Z</time>
  <course>178.13</course>
  <speed>0.42</speed>
  <fix>3d</fix>
</trkpt>
<trkpt lat="-27.274434" lon="151.2900652">
  <ele>353.12</ele>
  <time>2026-09-01T19:53:26Z</time>
  <course>190.48</course>
  <speed>0.24083189157584592</speed>
  <fix>3d</fix>
</trkpt>
<trkpt lat="-27.2744342" lon="151.2900652">
  <ele>353.02</ele>
  <time>2026-09-01T19:53:26Z</time>
  <course>190.44</course>
  <speed>0.191049731745428</speed>
  <fix>3d</fix>
</trkpt>
<trkpt lat="-27.2744339" lon="151.2900652">
  <ele>353.16</ele>
  <time>2026-09-01T19:53:26Z</time>
  <course>175.14</course>
  <speed>0.26</speed>
  <fix>3d</fix>
</trkpt>
<trkpt lat="-27.2744342" lon="151.2900652">
  <ele>353.02</ele>
  <time>2026-09-01T19:53:26Z</time>
  <course>190.44</course>
  <speed>0.191049731745428</speed>
  <fix>3d</fix>
</trkpt>
<trkpt lat="-27.2744343" lon="151.2900652">
  <ele>352.89</ele>
  <time>2026-09-01T19:53:26Z</time>
  <course>190.37</course>
  <speed>0.13152946437965907</speed>
  <fix>3d</fix>
</trkpt>
<trkpt lat="-27.2744339" lon="151.2900652">
  <ele>353.16</ele>
  <time>2026-09-01T19:53:26Z</time>
  <course>175.14</course>
  <speed>0.26</speed>
  <fix>3d</fix>
</trkpt>
<trkpt lat="-27.2744343" lon="151.2900652">
  <ele>352.88</ele>
  <time>2026-09-01T19:53:26Z</time>
  <course>190.37</course>
  <speed>0.13152946437965907</speed>
  <fix>3d</fix>
</trkpt>
<trkpt lat="-27.2744344" lon="151.2900652">
  <ele>352.75</ele>
  <time>2026-09-01T19:53:26Z</time>
  <course>190.26</course>
  <speed>0.07071067811865475</speed>
  <fix>3d</fix>
</trkpt>
<trkpt lat="-27.2744343" lon="151.2900652">
  <ele>352.89</ele>
  <time>2026-09-01T19:53:26Z</time>
  <course>170.62</course>
  <speed>0.14</speed>
  <fix>3d</fix>
</trkpt>
<trkpt lat="-27.2744344" lon="151.2900652">
  <ele>352.74</ele>
  <time>2026-09-01T19:53:26Z</time>
  <course>190.25</course>
  <speed>0.07071067811865475</speed>
  <fix>3d</fix>
</trkpt>
<trkpt lat="-27.2744345" lon="151.2900652">
  <ele>352.63</ele>
  <time>2026-09-01T19:53:26Z</time>
  <course>190.04</course>
  <speed>0.02</speed>
  <fix>3d</fix>
</trkpt>
<trkpt lat="-27.2744343" lon="151.2900652">
  <ele>352.89</ele>
  <time>2026-09-01T19:53:26Z</time>
  <course>170.62</course>
  <speed>0.14</speed>
  <fix>3d</fix>
</trkpt>
<trkpt lat="-27.2744345" lon="151.2900652">
  <ele>352.59</ele>
  <time>2026-09-01T19:53:26Z</time>
  <course>189.94</course>
  <speed>0.01</speed>
  <fix>3d</fix>
</trkpt>
<trkpt lat="-27.2744345" lon="151.2900654">
  <ele>352.5</ele>
  <time>2026-09-01T19:53:26Z</time>
  <course>189.77</course>
  <speed>0.01</speed>
  <fix>3d</fix>
</trkpt>
<trkpt lat="-27.2744344" lon="151.2900653">
  <ele>352.63</ele>
  <time>2026-09-01T19:53:26Z</time>
  <course>160.42</course>
  <speed>0.03</speed>
  <fix>3d</fix>
</trkpt>
<trkpt lat="-27.2744345" lon="151.2900654">
  <ele>352.46</ele>
  <time>2026-09-01T19:53:26Z</time>
  <course>189.74</course>
  <speed>0.02</speed>
  <fix>3d</fix>
</trkpt>
<trkpt lat="-27.2744344" lon="151.2900654">
  <ele>352.38</ele>
  <time>2026-09-01T19:53:26Z</time>
  <course>189.74</course>
  <speed>0.04</speed>
  <fix>3d</fix>
</trkpt>
<trkpt lat="-27.2744344" lon="151.2900653">
  <ele>352.63</ele>
  <time>2026-09-01T19:53:26Z</time>
  <course>160.42</course>
  <speed>0.03</speed>
  <fix>3d</fix>
</trkpt>
<trkpt lat="-27.2744344" lon="151.2900654">
  <ele>352.35</ele>
  <time>2026-09-01T19:53:26Z</time>
  <course>189.76</course>
  <speed>0.05099019513592785</speed>
  <fix>3d</fix>
</trkpt>
<trkpt lat="-27.2744344" lon="151.2900654">
  <ele>352.27</ele>
  <time>2026-09-01T19:53:26Z</time>
  <course>189.89</course>
  <speed>0.07071067811865475</speed>
  <fix>3d</fix>
</trkpt>
<trkpt lat="-27.2744344" lon="151.2900654">
  <ele>352.39</ele>
  <time>2026-09-01T19:53:26Z</time>
  <course>12.74</course>
  <speed>0.04</speed>
  <fix>3d</fix>
</trkpt>
<trkpt lat="-27.2744344" lon="151.2900654">
  <ele>352.23</ele>
  <time>2026-09-01T19:53:26Z</time>
  <course>189.96</course>
  <speed>0.08062257748298549</speed>
  <fix>3d</fix>
</trkpt>
<trkpt lat="-27.2744344" lon="151.2900654">
  <ele>352.16</ele>
  <time>2026-09-01T19:53:26Z</time>
  <course>190.17</course>
  <speed>0.09055385138137417</speed>
  <fix>3d</fix>
</trkpt>
<trkpt lat="-27.2744344" lon="151.2900654">
  <ele>352.39</ele>
  <time>2026-09-01T19:53:26Z</time>
  <course>12.74</course>
  <speed>0.04</speed>
  <fix>3d</fix>
</trkpt>
<trkpt lat="-27.2744344" lon="151.2900654">
  <ele>352.12</ele>
  <time>2026-09-01T19:53:26Z</time>
  <course>190.27</course>
  <speed>0.1019803902718557</speed>
  <fix>3d</fix>
</trkpt>
<trkpt lat="-27.2744343" lon="151.2900654">
  <ele>352.05</ele>
  <time>2026-09-01T19:53:26Z</time>
  <course>190.52</course>
  <speed>0.1118033988749895</speed>
  <fix>3d</fix>
</trkpt>
<trkpt lat="-27.2744343" lon="151.2900654">
  <ele>352.15</ele>
  <time>2026-09-01T19:53:26Z</time>
  <course>11.2</course>
  <speed>0.09</speed>
  <fix>3d</fix>
</trkpt>
<trkpt lat="-27.2744343" lon="151.2900654">
  <ele>352.02</ele>
  <time>2026-09-01T19:53:26Z</time>
  <course>190.63</course>
  <speed>0.1118033988749895</speed>
  <fix>3d</fix>
</trkpt>
<trkpt lat="-27.2744342" lon="151.2900654">
  <ele>351.95</ele>
  <time>2026-09-01T19:53:26Z</time>
  <course>190.87</course>
  <speed>0.12165525060596438</speed>
  <fix>3d</fix>
</trkpt>
<trkpt lat="-27.2744343" lon="151.2900654">
  <ele>352.15</ele>
  <time>2026-09-01T19:53:26Z</time>
  <course>11.2</course>
  <speed>0.09</speed>
  <fix>3d</fix>
</trkpt>
<trkpt lat="-27.2744342" lon="151.2900654">
  <ele>351.92</ele>
  <time>2026-09-01T19:53:26Z</time>
  <course>190.97</course>
  <speed>0.13152946437965907</speed>
  <fix>3d</fix>
</trkpt>
<trkpt lat="-27.274434" lon="151.2900655">
  <ele>351.85</ele>
  <time>2026-09-01T19:53:26Z</time>
  <course>191.17</course>
  <speed>0.13152946437965907</speed>
  <fix>3d</fix>
</trkpt>
<trkpt lat="-27.2744342" lon="151.2900654">
  <ele>351.95</ele>
  <time>2026-09-01T19:53:26Z</time>
  <course>11.84</course>
  <speed>0.12</speed>
  <fix>3d</fix>
</trkpt>
<trkpt lat="-27.274434" lon="151.2900655">
  <ele>351.82</ele>
  <time>2026-09-01T19:53:26Z</time>
  <course>191.25</course>
  <speed>0.13341664064126335</speed>
  <fix>3d</fix>
</trkpt>
<trkpt lat="-27.274434" lon="151.2900655">
  <ele>351.75</ele>
  <time>2026-09-01T19:53:26Z</time>
  <course>191.4</course>
  <speed>0.14317821063276354</speed>
  <fix>3d</fix>
</trkpt>
<trkpt lat="-27.2744342" lon="151.2900654">
  <ele>351.95</ele>
  <time>2026-09-01T19:53:26Z</time>
  <course>11.84</course>
  <speed>0.12</speed>
  <fix>3d</fix>
</trkpt>
<trkpt lat="-27.2744339" lon="151.2900655">
  <ele>351.72</ele>
  <time>2026-09-01T19:53:26Z</time>
  <course>191.45</course>
  <speed>0.14317821063276354</speed>
  <fix>3d</fix>
</trkpt>
<trkpt lat="-27.2744338" lon="151.2900655">
  <ele>351.66</ele>
  <time>2026-09-01T19:53:26Z</time>
  <course>191.53</course>
  <speed>0.14317821063276354</speed>
  <fix>3d</fix>
</trkpt>
<trkpt lat="-27.2744339" lon="151.2900655">
  <ele>351.75</ele>
  <time>2026-09-01T19:53:26Z</time>
  <course>12.42</course>
  <speed>0.14</speed>
  <fix>3d</fix>
</trkpt>
<trkpt lat="-27.2744338" lon="151.2900655">
  <ele>351.65</ele>
  <time>2026-09-01T19:53:26Z</time>
  <course>191.53</course>
  <speed>0.14317821063276354</speed>
  <fix>3d</fix>
</trkpt>
<trkpt lat="-27.2744337" lon="151.2900656">
  <ele>351.56</ele>
  <time>2026-09-01T19:53:26Z</time>
  <course>191.56</course>
  <speed>0.14317821063276354</speed>
  <fix>3d</fix>
</trkpt>
<trkpt lat="-27.2744339" lon="151.2900655">
  <ele>351.75</ele>
  <time>2026-09-01T19:53:26Z</time>
  <course>12.42</course>
  <speed>0.14</speed>
  <fix>3d</fix>
</trkpt>
<trkpt lat="-27.2744337" lon="151.2900656">
  <ele>351.54</ele>
  <time>2026-09-01T19:53:26Z</time>
  <course>191.56</course>
  <speed>0.14317821063276354</speed>
  <fix>3d</fix>
</trkpt>
<trkpt lat="-27.2744336" lon="151.2900656">
  <ele>351.47</ele>
  <time>2026-09-01T19:53:26Z</time>
  <course>191.53</course>
  <speed>0.14317821063276354</speed>
  <fix>3d</fix>
</trkpt>
<trkpt lat="-27.2744336" lon="151.2900655">
  <ele>351.57</ele>
  <time>2026-09-01T19:53:26Z</time>
  <course>12.67</course>
  <speed>0.14</speed>
  <fix>3d</fix>
</trkpt>
<trkpt lat="-27.2744335" lon="151.2900656">
  <ele>351.45</ele>
  <time>2026-09-01T19:53:26Z</time>
  <course>191.51</course>
  <speed>0.14317821063276354</speed>
  <fix>3d</fix>
</trkpt>
<trkpt lat="-27.2744334" lon="151.2900656">
  <ele>351.38</ele>
  <time>2026-09-01T19:53:26Z</time>
  <course>191.43</course>
  <speed>0.13341664064126335</speed>
  <fix>3d</fix>
</trkpt>
<trkpt lat="-27.2744336" lon="151.2900655">
  <ele>351.57</ele>
  <time>2026-09-01T19:53:26Z</time>
  <course>12.67</course>
  <speed>0.14</speed>
  <fix>3d</fix>
</trkpt>
<trkpt lat="-27.2744334" lon="151.2900656">
  <ele>351.36</ele>
  <time>2026-09-01T19:53:26Z</time>
  <course>191.4</course>
  <speed>0.13152946437965907</speed>
  <fix>3d</fix>
</trkpt>
<trkpt lat="-27.2744333" lon="151.2900656">
  <ele>351.29</ele>
  <time>2026-09-01T19:53:26Z</time>
  <course>191.31</course>
  <speed>0.12165525060596438</speed>
  <fix>3d</fix>
</trkpt>
<trkpt lat="-27.2744334" lon="151.2900656">
  <ele>351.39</ele>
  <time>2026-09-01T19:53:26Z</time>
  <course>12.6</course>
  <speed>0.13</speed>
  <fix>3d</fix>
</trkpt>
<trkpt lat="-27.2744333" lon="151.2900656">
  <ele>351.27</ele>
  <time>2026-09-01T19:53:26Z</time>
  <course>191.27</course>
  <speed>0.12165525060596438</speed>
  <fix>3d</fix>
</trkpt>
<trkpt lat="-27.2744332" lon="151.2900656">
  <ele>351.21</ele>
  <time>2026-09-01T19:53:26Z</time>
  <course>191.17</course>
  <speed>0.1118033988749895</speed>
  <fix>3d</fix>
</trkpt>
<trkpt lat="-27.2744334" lon="151.2900656">
  <ele>351.39</ele>
  <time>2026-09-01T19:53:26Z</time>
  <course>12.6</course>
  <speed>0.13</speed>
  <fix>3d</fix>
</trkpt>
<trkpt lat="-27.2744332" lon="151.2900656">
  <ele>351.18</ele>
  <time>2026-09-01T19:53:26Z</time>
  <course>191.13</course>
  <speed>0.1118033988749895</speed>
  <fix>3d</fix>
</trkpt>
<trkpt lat="-27.2744331" lon="151.2900656">
  <ele>351.12</ele>
  <time>2026-09-01T19:53:26Z</time>
  <course>191.05</course>
  <speed>0.1019803902718557</speed>
  <fix>3d</fix>
</trkpt>
<trkpt lat="-27.2744332" lon="151.2900656">
  <ele>351.21</ele>
  <time>2026-09-01T19:53:26Z</time>
  <course>12.41</course>
  <speed>0.12</speed>
  <fix>3d</fix>
</trkpt>
<trkpt lat="-27.2744331" lon="151.2900656">
  <ele>351.09</ele>
  <time>2026-09-01T19:53:26Z</time>
  <course>191.02</course>
  <speed>0.1019803902718557</speed>
  <fix>3d</fix>
</trkpt>
<trkpt lat="-27.274433" lon="151.2900656">
  <ele>351.03</ele>
  <time>2026-09-01T19:53:26Z</time>
  <course>190.96</course>
  <speed>0.09219544457292887</speed>
  <fix>3d</fix>
</trkpt>
<trkpt lat="-27.2744332" lon="151.2900656">
  <ele>351.21</ele>
  <time>2026-09-01T19:53:26Z</time>
  <course>12.41</course>
  <speed>0.12</speed>
  <fix>3d</fix>
</trkpt>
<trkpt lat="-27.274433" lon="151.2900656">
  <ele>351.01</ele>
  <time>2026-09-01T19:53:26Z</time>
  <course>190.95</course>
  <speed>0.09055385138137417</speed>
  <fix>3d</fix>
</trkpt>
<trkpt lat="-27.2744329" lon="151.2900656">
  <ele>350.95</ele>
  <time>2026-09-01T19:53:26Z</time>
  <course>190.91</course>
  <speed>0.08062257748298549</speed>
  <fix>3d</fix>
</trkpt>
<trkpt lat="-27.274433" lon="151.2900656">
  <ele>351.03</ele>
  <time>2026-09-01T19:53:26Z</time>
  <course>12.47</course>
  <speed>0.09</speed>
  <fix>3d</fix>
</trkpt>
<trkpt lat="-27.2744329" lon="151.2900657">
  <ele>350.92</ele>
  <time>2026-09-01T19:53:26Z</time>
  <course>190.9</course>
  <speed>0.07071067811865475</speed>
  <fix>3d</fix>
</trkpt>
<trkpt lat="-27.2744329" lon="151.2900657">
  <ele>350.86</ele>
  <time>2026-09-01T19:53:26Z</time>
  <course>190.9</course>
  <speed>0.06082762530298219</speed>
  <fix>3d</fix>
</trkpt>
<trkpt lat="-27.274433" lon="151.2900656">
  <ele>351.03</ele>
  <time>2026-09-01T19:53:26Z</time>
  <course>12.47</course>
  <speed>0.09</speed>
  <fix>3d</fix>
</trkpt>
<trkpt lat="-27.2744329" lon="151.2900657">
  <ele>350.83</ele>
  <time>2026-09-01T19:53:26Z</time>
  <course>190.9</course>
  <speed>0.05099019513592785</speed>
  <fix>3d</fix>
</trkpt>
<trkpt lat="-27.2744328" lon="151.2900657">
  <ele>350.77</ele>
  <time>2026-09-01T19:53:26Z</time>
  <course>190.91</course>
  <speed>0.0412310562561766</speed>
  <fix>3d</fix>
</trkpt>
<trkpt lat="-27.2744328" lon="151.2900657">
  <ele>350.86</ele>
  <time>2026-09-01T19:53:26Z</time>
  <course>13.17</course>
  <speed>0.06</speed>
  <fix>3d</fix>
</trkpt>
<trkpt lat="-27.2744328" lon="151.2900657">
  <ele>350.75</ele>
  <time>2026-09-01T19:53:26Z</time>
  <course>190.93</course>
  <speed>0.0412310562561766</speed>
  <fix>3d</fix>
</trkpt>
<trkpt lat="-27.2744328" lon="151.2900657">
  <ele>350.69</ele>
  <time>2026-09-01T19:53:26Z</time>
  <course>190.96</course>
  <speed>0.03</speed>
  <fix>3d</fix>
</trkpt>
<trkpt lat="-27.2744328" lon="151.2900657">
  <ele>350.86</ele>
  <time>2026-09-01T19:53:26Z</time>
  <course>13.17</course>
  <speed>0.06</speed>
  <fix>3d</fix>
</trkpt>
<trkpt lat="-27.2744328" lon="151.2900657">
  <ele>350.69</ele>
  <time>2026-09-01T19:53:26Z</time>
  <course>190.96</course>
  <speed>0.03</speed>
  <fix>3d</fix>
</trkpt>
<trkpt lat="-27.2744328" lon="151.2900657">
  <ele>350.61</ele>
  <time>2026-09-01T19:53:26Z</time>
  <course>191.01</course>
  <speed>0.01</speed>
  <fix>3d</fix>
</trkpt>
<trkpt lat="-27.2744328" lon="151.2900657">
  <ele>350.69</ele>
  <time>2026-09-01T19:53:26Z</time>
  <course>15.75</course>
  <speed>0.03</speed>
  <fix>3d</fix>
</trkpt>
<trkpt lat="-27.2744328" lon="151.2900657">
  <ele>350.6</ele>
  <time>2026-09-01T19:53:26Z</time>
  <course>191.01</course>
  <speed>0.01</speed>
  <fix>3d</fix>
</trkpt>
<trkpt lat="-27.2744328" lon="151.2900657">
  <ele>350.52</ele>
  <time>2026-09-01T19:53:26Z</time>
  <course>191.04</course>
  <speed>0.0</speed>
  <fix>3d</fix>
</trkpt>
<trkpt lat="-27.2744328" lon="151.2900657">
  <ele>350.69</ele>
  <time>2026-09-01T19:53:26Z</time>
  <course>15.75</course>
  <speed>0.03</speed>
  <fix>3d</fix>
</trkpt>
<trkpt lat="-27.2744328" lon="151.2900657">
  <ele>350.5</ele>
  <time>2026-09-01T19:53:26Z</time>
  <course>191.05</course>
  <speed>0.01</speed>
  <fix>3d</fix>
</trkpt>
<trkpt lat="-27.2744328" lon="151.2900657">
  <ele>350.44</ele>
  <time>2026-09-01T19:53:26Z</time>
  <course>191.04</course>
  <speed>0.02</speed>
  <fix>3d</fix>
</trkpt>
<trkpt lat="-27.2744328" lon="151.2900657">
  <ele>350.52</ele>
  <time>2026-09-01T19:53:26Z</time>
  <course>190.19</course>
  <speed>0.0</speed>
  <fix>3d</fix>
</trkpt>
<trkpt lat="-27.2744328" lon="151.2900657">
  <ele>350.44</ele>
  <time>2026-09-01T19:53:26Z</time>
  <course>191.03</course>
  <speed>0.02</speed>
  <fix>3d</fix>
</trkpt>
<trkpt lat="-27.2744328" lon="151.2900657">
  <ele>350.36</ele>
  <time>2026-09-01T19:53:26Z</time>
  <course>190.99</course>
  <speed>0.0412310562561766</speed>
  <fix>3d</fix>
</trkpt>
<trkpt lat="-27.2744328" lon="151.2900657">
  <ele>350.52</ele>
  <time>2026-09-01T19:53:26Z</time>
  <course>190.19</course>
  <speed>0.0</speed>
  <fix>3d</fix>
</trkpt>
<trkpt lat="-27.2744328" lon="151.2900657">
  <ele>350.36</ele>
  <time>2026-09-01T19:53:26Z</time>
  <course>190.99</course>
  <speed>0.0412310562561766</speed>
  <fix>3d</fix>
</trkpt>
<trkpt lat="-27.2744328" lon="151.2900657">
  <ele>350.28</ele>
  <time>2026-09-01T19:53:26Z</time>
  <course>190.93</course>
  <speed>0.05099019513592785</speed>
  <fix>3d</fix>
</trkpt>
<trkpt lat="-27.2744328" lon="151.2900657">
  <ele>350.36</ele>
  <time>2026-09-01T19:53:26Z</time>
  <course>198.0</course>
  <speed>0.04</speed>
  <fix>3d</fix>
</trkpt>
<trkpt lat="-27.2744328" lon="151.2900657">
  <ele>350.26</ele>
  <time>2026-09-01T19:53:26Z</time>
  <course>190.91</course>
  <speed>0.0632455532033676</speed>
  <fix>3d</fix>
</trkpt>
<trkpt lat="-27.2744328" lon="151.2900657">
  <ele>350.2</ele>
  <time>2026-09-01T19:53:26Z</time>
  <course>190.86</course>
  <speed>0.07280109889280519</speed>
  <fix>3d</fix>
</trkpt>
<trkpt lat="-27.2744328" lon="151.2900657">
  <ele>350.36</ele>
  <time>2026-09-01T19:53:26Z</time>
  <course>198.0</course>
  <speed>0.04</speed>
  <fix>3d</fix>
</trkpt>
<trkpt lat="-27.2744328" lon="151.2900657">
  <ele>350.2</ele>
  <time>2026-09-01T19:53:26Z</time>
  <course>190.86</course>
  <speed>0.07280109889280519</speed>
  <fix>3d</fix>
</trkpt>
<trkpt lat="-27.2744329" lon="151.2900657">
  <ele>350.13</ele>
  <time>2026-09-01T19:53:26Z</time>
  <course>190.8</course>
  <speed>0.09486832980505139</speed>
  <fix>3d</fix>
</trkpt>
<trkpt lat="-27.2744328" lon="151.2900657">
  <ele>350.2</ele>
  <time>2026-09-01T19:53:26Z</time>
  <course>198.14</course>
  <speed>0.08</speed>
  <fix>3d</fix>
</trkpt>
<trkpt lat="-27.2744329" lon="151.2900657">
  <ele>350.1</ele>
  <time>2026-09-01T19:53:26Z</time>
  <course>190.78</course>
  <speed>0.1044030650891055</speed>
  <fix>3d</fix>
</trkpt>
<trkpt lat="-27.274433" lon="151.2900657">
  <ele>350.05</ele>
  <time>2026-09-01T19:53:26Z</time>
  <course>190.74</course>
  <speed>0.11401754250991379</speed>
  <fix>3d</fix>
</trkpt>
<trkpt lat="-27.2744328" lon="151.2900657">
  <ele>350.2</ele>
  <time>2026-09-01T19:53:26Z</time>
  <course>198.14</course>
  <speed>0.08</speed>
  <fix>3d</fix>
</trkpt>
<trkpt lat="-27.274433" lon="151.2900657">
  <ele>350.03</ele>
  <time>2026-09-01T19:53:26Z</time>
  <course>190.73</course>
  <speed>0.11401754250991379</speed>
  <fix>3d</fix>
</trkpt>
<trkpt lat="-27.2744331" lon="151.2900656">
  <ele>349.98</ele>
  <time>2026-09-01T19:53:26Z</time>
  <course>190.71</course>
  <speed>0.13601470508735444</speed>
  <fix>3d</fix>
</trkpt>
<trkpt lat="-27.274433" lon="151.2900657">
  <ele>350.05</ele>
  <time>2026-09-01T19:53:26Z</time>
  <course>198.03</course>
  <speed>0.11</speed>
  <fix>3d</fix>
</trkpt>
<trkpt lat="-27.2744331" lon="151.2900656">
  <ele>349.96</ele>
  <time>2026-09-01T19:53:26Z</time>
  <course>190.71</course>
  <speed>0.13601470508735444</speed>
  <fix>3d</fix>
</trkpt>
<trkpt lat="-27.2744332" lon="151.2900656">
  <ele>349.91</ele>
  <time>2026-09-01T19:53:26Z</time>
  <course>190.7</course>
  <speed>0.14560219778561037</speed>
  <fix>3d</fix>
</trkpt>
<trkpt lat="-27.274433" lon="151.2900657">
  <ele>350.05</ele>
  <time>2026-09-01T19:53:26Z</time>
  <course>198.03</course>
  <speed>0.11</speed>
  <fix>3d</fix>
</trkpt>
<trkpt lat="-27.2744333" lon="151.2900656">
  <ele>349.89</ele>
  <time>2026-09-01T19:53:26Z</time>
  <course>190.7</course>
  <speed>0.15524174696260024</speed>
  <fix>3d</fix>
</trkpt>
<trkpt lat="-27.2744334" lon="151.2900656">
  <ele>349.84</ele>
  <time>2026-09-01T19:53:26Z</time>
  <course>190.7</course>
  <speed>0.1676305461424021</speed>
  <fix>3d</fix>
</trkpt>
<trkpt lat="-27.2744332" lon="151.2900656">
  <ele>349.91</ele>
  <time>2026-09-01T19:53:26Z</time>
  <course>197.88</course>
  <speed>0.15</speed>
  <fix>3d</fix>
</trkpt>
<trkpt lat="-27.2744334" lon="151.2900656">
  <ele>349.84</ele>
  <time>2026-09-01T19:53:26Z</time>
  <course>190.7</course>
  <speed>0.1676305461424021</speed>
  <fix>3d</fix>
</trkpt>
<trkpt lat="-27.2744335" lon="151.2900656">
  <ele>349.77</ele>
  <time>2026-09-01T19:53:26Z</time>
  <course>190.71</course>
  <speed>0.18681541692269404</speed>
  <fix>3d</fix>
</trkpt>
<trkpt lat="-27.2744332" lon="151.2900656">
  <ele>349.91</ele>
  <time>2026-09-01T19:53:26Z</time>
  <course>197.88</course>
  <speed>0.15</speed>
  <fix>3d</fix>
</trkpt>
<trkpt lat="-27.2744335" lon="151.2900656">
  <ele>349.77</ele>
  <time>2026-09-01T19:53:26Z</time>
  <course>190.71</course>
  <speed>0.18681541692269404</speed>
  <fix>3d</fix>
</trkpt>
<trkpt lat="-27.2744337" lon="151.2900655">
  <ele>349.71</ele>
  <time>2026-09-01T19:53:26Z</time>
  <course>190.73</course>
  <speed>0.19924858845171275</speed>
  <fix>3d</fix>
</trkpt>
<trkpt lat="-27.2744335" lon="151.2900655">
  <ele>349.77</ele>
  <time>2026-09-01T19:53:26Z</time>
  <course>197.68</course>
  <speed>0.18</speed>
  <fix>3d</fix>
</trkpt>
<trkpt lat="-27.2744337" lon="151.2900655">
  <ele>349.69</ele>
  <time>2026-09-01T19:53:26Z</time>
  <course>190.74</course>
  <speed>0.208806130178211</speed>
  <fix>3d</fix>
</trkpt>
<trkpt lat="-27.2744339" lon="151.2900655">
  <ele>349.64</ele>
  <time>2026-09-01T19:53:26Z</time>
  <course>190.75</course>
  <speed>0.21840329667841554</speed>
  <fix>3d</fix>
</trkpt>
<trkpt lat="-27.2744335" lon="151.2900655">
  <ele>349.77</ele>
  <time>2026-09-01T19:53:26Z</time>
  <course>197.68</course>
  <speed>0.18</speed>
  <fix>3d</fix>
</trkpt>
<trkpt lat="-27.2744339" lon="151.2900654">
  <ele>349.62</ele>
  <time>2026-09-01T19:53:26Z</time>
  <course>190.75</course>
  <speed>0.21840329667841554</speed>
  <fix>3d</fix>
</trkpt>
<trkpt lat="-27.274434" lon="151.2900654">
  <ele>349.58</ele>
  <time>2026-09-01T19:53:26Z</time>
  <course>190.76</course>
  <speed>0.2308679276123039</speed>
  <fix>3d</fix>
</trkpt>
<trkpt lat="-27.2744339" lon="151.2900654">
  <ele>349.64</ele>
  <time>2026-09-01T19:53:26Z</time>
  <course>197.49</course>
  <speed>0.22</speed>
  <fix>3d</fix>
</trkpt>
<trkpt lat="-27.274434" lon="151.2900654">
  <ele>349.56</ele>
  <time>2026-09-01T19:53:26Z</time>
  <course>190.76</course>
  <speed>0.2308679276123039</speed>
  <fix>3d</fix>
</trkpt>
<trkpt lat="-27.2744343" lon="151.2900652">
  <ele>349.52</ele>
  <time>2026-09-01T19:53:26Z</time>
  <course>190.76</course>
  <speed>0.24041630560342614</speed>
  <fix>3d</fix>
</trkpt>
<trkpt lat="-27.2744339" lon="151.2900654">
  <ele>349.64</ele>
  <time>2026-09-01T19:53:26Z</time>
  <course>197.49</course>
  <speed>0.22</speed>
  <fix>3d</fix>
</trkpt>
<trkpt lat="-27.2744343" lon="151.2900652">
  <ele>349.5</ele>
  <time>2026-09-01T19:53:26Z</time>
  <course>190.76</course>
  <speed>0.25</speed>
  <fix>3d</fix>
</trkpt>
<trkpt lat="-27.2744345" lon="151.2900651">
  <ele>349.45</ele>
  <time>2026-09-01T19:53:26Z</time>
  <course>190.76</course>
  <speed>0.2596150997149434</speed>
  <fix>3d</fix>
</trkpt>
<trkpt lat="-27.2744342" lon="151.2900652">
  <ele>349.52</ele>
  <time>2026-09-01T19:53:26Z</time>
  <course>197.3</course>
  <speed>0.24</speed>
  <fix>3d</fix>
</trkpt>
<trkpt lat="-27.2744346" lon="151.2900651">
  <ele>349.44</ele>
  <time>2026-09-01T19:53:26Z</time>
  <course>190.76</course>
  <speed>0.2596150997149434</speed>
  <fix>3d</fix>
</trkpt>
<trkpt lat="-27.2744347" lon="151.2900651">
  <ele>349.39</ele>
  <time>2026-09-01T19:53:26Z</time>
  <course>190.75</course>
  <speed>0.2720294101747089</speed>
  <fix>3d</fix>
</trkpt>
<trkpt lat="-27.2744342" lon="151.2900652">
  <ele>349.52</ele>
  <time>2026-09-01T19:53:26Z</time>
  <course>197.3</course>
  <speed>0.24</speed>
  <fix>3d</fix>
</trkpt>
<trkpt lat="-27.2744348" lon="151.2900651">
  <ele>349.37</ele>
  <time>2026-09-01T19:53:26Z</time>
  <course>190.74</course>
  <speed>0.2720294101747089</speed>
  <fix>3d</fix>
</trkpt>
<trkpt lat="-27.274435" lon="151.2900651">
  <ele>349.34</ele>
  <time>2026-09-01T19:53:26Z</time>
  <course>190.73</course>
  <speed>0.2816025568065745</speed>
  <fix>3d</fix>
</trkpt>
<trkpt lat="-27.2744347" lon="151.2900651">
  <ele>349.4</ele>
  <time>2026-09-01T19:53:26Z</time>
  <course>197.04</course>
  <speed>0.27</speed>
  <fix>3d</fix>
</trkpt>
<trkpt lat="-27.274435" lon="151.2900651">
  <ele>349.32</ele>
  <time>2026-09-01T19:53:26Z</time>
  <course>190.73</course>
  <speed>0.2816025568065745</speed>
  <fix>3d</fix>
</trkpt>
<trkpt lat="-27.2744352" lon="151.290065">
  <ele>349.28</ele>
  <time>2026-09-01T19:53:26Z</time>
  <course>190.72</course>
  <speed>0.2816025568065745</speed>
  <fix>3d</fix>
</trkpt>
<trkpt lat="-27.2744347" lon="151.2900651">
  <ele>349.4</ele>
  <time>2026-09-01T19:53:26Z</time>
  <course>197.04</course>
  <speed>0.27</speed>
  <fix>3d</fix>
</trkpt>
<trkpt lat="-27.2744353" lon="151.290065">
  <ele>349.27</ele>
  <time>2026-09-01T19:53:26Z</time>
  <course>190.72</course>
  <speed>0.29120439557122074</speed>
  <fix>3d</fix>
</trkpt>
<trkpt lat="-27.2744355" lon="151.2900649">
  <ele>349.22</ele>
  <time>2026-09-01T19:53:26Z</time>
  <course>190.71</course>
  <speed>0.29120439557122074</speed>
  <fix>3d</fix>
</trkpt>
<trkpt lat="-27.2744352" lon="151.290065">
  <ele>349.28</ele>
  <time>2026-09-01T19:53:26Z</time>
  <course>196.81</course>
  <speed>0.29</speed>
  <fix>3d</fix>
</trkpt>
<trkpt lat="-27.2744355" lon="151.2900649">
  <ele>349.21</ele>
  <time>2026-09-01T19:53:26Z</time>
  <course>190.71</course>
  <speed>0.29120439557122074</speed>
  <fix>3d</fix>
</trkpt>
<trkpt lat="-27.2744357" lon="151.2900647">
  <ele>349.17</ele>
  <time>2026-09-01T19:53:26Z</time>
  <course>190.7</course>
  <speed>0.30083217912982646</speed>
  <fix>3d</fix>
</trkpt>
<trkpt lat="-27.2744352" lon="151.290065">
  <ele>349.28</ele>
  <time>2026-09-01T19:53:26Z</time>
  <course>196.81</course>
  <speed>0.29</speed>
  <fix>3d</fix>
</trkpt>
<trkpt lat="-27.2744357" lon="151.2900647">
  <ele>349.16</ele>
  <time>2026-09-01T19:53:26Z</time>
  <course>190.7</course>
  <speed>0.30083217912982646</speed>
  <fix>3d</fix>
</trkpt>
<trkpt lat="-27.274436" lon="151.2900646">
  <ele>349.11</ele>
  <time>2026-09-01T19:53:26Z</time>
  <course>190.7</course>
  <speed>0.30083217912982646</speed>
  <fix>3d</fix>
</trkpt>
<trkpt lat="-27.2744357" lon="151.2900647">
  <ele>349.17</ele>
  <time>2026-09-01T19:53:26Z</time>
  <course>196.68</course>
  <speed>0.3</speed>
  <fix>3d</fix>
</trkpt>
<trkpt lat="-27.274436" lon="151.2900646">
  <ele>349.1</ele>
  <time>2026-09-01T19:53:26Z</time>
  <course>190.7</course>
  <speed>0.30083217912982646</speed>
  <fix>3d</fix>
</trkpt>
<trkpt lat="-27.2744363" lon="151.2900646">
  <ele>349.06</ele>
  <time>2026-09-01T19:53:26Z</time>
  <course>190.71</course>
  <speed>0.31048349392520047</speed>
  <fix>3d</fix>
</trkpt>
<trkpt lat="-27.2744357" lon="151.2900647">
  <ele>349.17</ele>
  <time>2026-09-01T19:53:26Z</time>
  <course>196.68</course>
  <speed>0.3</speed>
  <fix>3d</fix>
</trkpt>
<trkpt lat="-27.2744363" lon="151.2900646">
  <ele>349.06</ele>
  <time>2026-09-01T19:53:26Z</time>
  <course>190.71</course>
  <speed>0.31048349392520047</speed>
  <fix>3d</fix>
</trkpt>
<trkpt lat="-27.2744365" lon="151.2900645">
  <ele>349.01</ele>
  <time>2026-09-01T19:53:26Z</time>
  <course>190.72</course>
  <speed>0.31048349392520047</speed>
  <fix>3d</fix>
</trkpt>
<trkpt lat="-27.2744362" lon="151.2900646">
  <ele>349.06</ele>
  <time>2026-09-01T19:53:26Z</time>
  <course>196.47</course>
  <speed>0.31</speed>
  <fix>3d</fix>
</trkpt>
<trkpt lat="-27.2744368" lon="151.2900645">
  <ele>348.95</ele>
  <time>2026-09-01T19:53:26Z</time>
  <course>190.72</course>
  <speed>0.31048349392520047</speed>
  <fix>3d</fix>
</trkpt>
<trkpt lat="-27.2744362" lon="151.2900646">
  <ele>349.06</ele>
  <time>2026-09-01T19:53:26Z</time>
  <course>196.47</course>
  <speed>0.31</speed>
  <fix>3d</fix>
</trkpt>
<trkpt lat="-27.2744368" lon="151.2900645">
  <ele>348.95</ele>
  <time>2026-09-01T19:53:26Z</time>
  <course>190.72</course>
  <speed>0.31048349392520047</speed>
  <fix>3d</fix>
</trkpt>
<trkpt lat="-27.2744371" lon="151.2900644">
  <ele>348.9</ele>
  <time>2026-09-01T19:53:26Z</time>
  <course>190.72</course>
  <speed>0.32015621187164245</speed>
  <fix>3d</fix>
</trkpt>
<trkpt lat="-27.2744368" lon="151.2900645">
  <ele>348.95</ele>
  <time>2026-09-01T19:53:26Z</time>
  <course>195.85</course>
  <speed>0.32</speed>
  <fix>3d</fix>
</trkpt>
<trkpt lat="-27.2744372" lon="151.2900642">
  <ele>348.89</ele>
  <time>2026-09-01T19:53:26Z</time>
  <course>190.72</course>
  <speed>0.32015621187164245</speed>
  <fix>3d</fix>
</trkpt>
<trkpt lat="-27.2744374" lon="151.2900642">
  <ele>348.85</ele>
  <time>2026-09-01T19:53:26Z</time>
  <course>190.72</course>
  <speed>0.3298484500494128</speed>
  <fix>3d</fix>
</trkpt>
<trkpt lat="-27.2744368" lon="151.2900645">
  <ele>348.95</ele>
  <time>2026-09-01T19:53:26Z</time>
  <course>195.85</course>
  <speed>0.32</speed>
  <fix>3d</fix>
</trkpt>
<trkpt lat="-27.2744377" lon="151.2900642">
  <ele>348.8</ele>
  <time>2026-09-01T19:53:26Z</time>
  <course>190.72</course>
  <speed>0.3298484500494128</speed>
  <fix>3d</fix>
</trkpt>
<trkpt lat="-27.2744374" lon="151.2900642">
  <ele>348.84</ele>
  <time>2026-09-01T19:53:26Z</time>
  <course>194.87</course>
  <speed>0.33</speed>
  <fix>3d</fix>
</trkpt>
<trkpt lat="-27.2744377" lon="151.2900642">
  <ele>348.8</ele>
  <time>2026-09-01T19:53:26Z</time>
  <course>190.72</course>
  <speed>0.3298484500494128</speed>
  <fix>3d</fix>
</trkpt>
<trkpt lat="-27.274438" lon="151.2900641">
  <ele>348.75</ele>
  <time>2026-09-01T19:53:26Z</time>
  <course>190.71</course>
  <speed>0.3298484500494128</speed>
  <fix>3d</fix>
</trkpt>
<trkpt lat="-27.2744374" lon="151.2900642">
  <ele>348.84</ele>
  <time>2026-09-01T19:53:26Z</time>
  <course>194.87</course>
  <speed>0.33</speed>
  <fix>3d</fix>
</trkpt>
<trkpt lat="-27.2744381" lon="151.2900641">
  <ele>348.73</ele>
  <time>2026-09-01T19:53:26Z</time>
  <course>190.71</course>
  <speed>0.327566787083184</speed>
  <fix>3d</fix>
</trkpt>
<trkpt lat="-27.2744383" lon="151.290064">
  <ele>348.7</ele>
  <time>2026-09-01T19:53:26Z</time>
  <course>190.71</course>
  <speed>0.327566787083184</speed>
  <fix>3d</fix>
</trkpt>
<trkpt lat="-27.2744379" lon="151.2900641">
  <ele>348.75</ele>
  <time>2026-09-01T19:53:26Z</time>
  <course>193.98</course>
  <speed>0.33</speed>
  <fix>3d</fix>
</trkpt>
<trkpt lat="-27.2744383" lon="151.290064">
  <ele>348.68</ele>
  <time>2026-09-01T19:53:26Z</time>
  <course>190.71</course>
  <speed>0.3178049716414141</speed>
  <fix>3d</fix>
</trkpt>
<trkpt lat="-27.2744385" lon="151.290064">
  <ele>348.65</ele>
  <time>2026-09-01T19:53:26Z</time>
  <course>190.7</course>
  <speed>0.3178049716414141</speed>
  <fix>3d</fix>
</trkpt>
<trkpt lat="-27.2744379" lon="151.2900641">
  <ele>348.75</ele>
  <time>2026-09-01T19:53:26Z</time>
  <course>193.98</course>
  <speed>0.33</speed>
  <fix>3d</fix>
</trkpt>
<trkpt lat="-27.2744387" lon="151.2900639">
  <ele>348.62</ele>
  <time>2026-09-01T19:53:26Z</time>
  <course>190.7</course>
  <speed>0.3080584360149873</speed>
  <fix>3d</fix>
</trkpt>
<trkpt lat="-27.2744388" lon="151.2900639">
  <ele>348.6</ele>
  <time>2026-09-01T19:53:26Z</time>
  <course>190.7</course>
  <speed>0.3080584360149873</speed>
  <fix>3d</fix>
</trkpt>
<trkpt lat="-27.2744385" lon="151.2900639">
  <ele>348.65</ele>
  <time>2026-09-01T19:53:26Z</time>
  <course>193.44</course>
  <speed>0.32</speed>
  <fix>3d</fix>
</trkpt>
<trkpt lat="-27.2744388" lon="151.2900639">
  <ele>348.6</ele>
  <time>2026-09-01T19:53:26Z</time>
  <course>190.69</course>
  <speed>0.3080584360149873</speed>
  <fix>3d</fix>
</trkpt>
<trkpt lat="-27.2744391" lon="151.2900637">
  <ele>348.55</ele>
  <time>2026-09-01T19:53:27Z</time>
  <course>190.69</course>
  <speed>0.29614185789921693</speed>
  <fix>3d</fix>
</trkpt>
<trkpt lat="-27.2744385" lon="151.2900639">
  <ele>348.65</ele>
  <time>2026-09-01T19:53:27Z</time>
  <course>193.44</course>
  <speed>0.32</speed>
  <fix>3d</fix>
</trkpt>
<trkpt lat="-27.2744392" lon="151.2900637">
  <ele>348.53</ele>
  <time>2026-09-01T19:53:27Z</time>
  <course>190.69</course>
  <speed>0.2863564212655271</speed>
  <fix>3d</fix>
</trkpt>
<trkpt lat="-27.2744393" lon="151.2900637">
  <ele>348.5</ele>
  <time>2026-09-01T19:53:27Z</time>
  <course>190.69</course>
  <speed>0.2765863337187866</speed>
  <fix>3d</fix>
</trkpt>
<trkpt lat="-27.274439" lon="151.2900638">
  <ele>348.55</ele>
  <time>2026-09-01T19:53:27Z</time>
  <course>193.11</course>
  <speed>0.29</speed>
  <fix>3d</fix>
</trkpt>
<trkpt lat="-27.2744394" lon="151.2900637">
  <ele>348.49</ele>
  <time>2026-09-01T19:53:27Z</time>
  <course>190.69</course>
  <speed>0.2765863337187866</speed>
  <fix>3d</fix>
</trkpt>
<trkpt lat="-27.2744396" lon="151.2900637">
  <ele>348.45</ele>
  <time>2026-09-01T19:53:27Z</time>
  <course>190.69</course>
  <speed>0.26476404589747454</speed>
  <fix>3d</fix>
</trkpt>
<trkpt lat="-27.274439" lon="151.2900638">
  <ele>348.55</ele>
  <time>2026-09-01T19:53:27Z</time>
  <course>193.11</course>
  <speed>0.29</speed>
  <fix>3d</fix>
</trkpt>
<trkpt lat="-27.2744397" lon="151.2900637">
  <ele>348.42</ele>
  <time>2026-09-01T19:53:27Z</time>
  <course>190.68</course>
  <speed>0.25495097567963926</speed>
  <fix>3d</fix>
</trkpt>
<trkpt lat="-27.2744398" lon="151.2900636">
  <ele>348.4</ele>
  <time>2026-09-01T19:53:27Z</time>
  <course>190.68</course>
  <speed>0.24515301344262524</speed>
  <fix>3d</fix>
</trkpt>
<trkpt lat="-27.2744395" lon="151.2900637">
  <ele>348.45</ele>
  <time>2026-09-01T19:53:27Z</time>
  <course>192.86</course>
  <speed>0.26</speed>
  <fix>3d</fix>
</trkpt>
<trkpt lat="-27.2744399" lon="151.2900636">
  <ele>348.38</ele>
  <time>2026-09-01T19:53:27Z</time>
  <course>190.67</course>
  <speed>0.2353720459187964</speed>
  <fix>3d</fix>
</trkpt>
<trkpt lat="-27.27444" lon="151.2900636">
  <ele>348.35</ele>
  <time>2026-09-01T19:53:27Z</time>
  <course>190.67</course>
  <speed>0.22561028345356957</speed>
  <fix>3d</fix>
</trkpt>
<trkpt lat="-27.2744395" lon="151.2900637">
  <ele>348.45</ele>
  <time>2026-09-01T19:53:27Z</time>
  <course>192.86</course>
  <speed>0.26</speed>
  <fix>3d</fix>
</trkpt>
<trkpt lat="-27.2744401" lon="151.2900636">
  <ele>348.33</ele>
  <time>2026-09-01T19:53:27Z</time>
  <course>190.67</course>
  <speed>0.223606797749979</speed>
  <fix>3d</fix>
</trkpt>
<trkpt lat="-27.2744402" lon="151.2900635">
  <ele>348.3</ele>
  <time>2026-09-01T19:53:27Z</time>
  <course>190.66</course>
  <speed>0.21377558326431947</speed>
  <fix>3d</fix>
</trkpt>
<trkpt lat="-27.27444" lon="151.2900635">
  <ele>348.34</ele>
  <time>2026-09-01T19:53:27Z</time>
  <course>192.64</course>
  <speed>0.23</speed>
  <fix>3d</fix>
</trkpt>
<trkpt lat="-27.2744403" lon="151.2900635">
  <ele>348.27</ele>
  <time>2026-09-01T19:53:27Z</time>
  <course>190.66</course>
  <speed>0.2039607805437114</speed>
  <fix>3d</fix>
</trkpt>
<trkpt lat="-27.2744404" lon="151.2900635">
  <ele>348.25</ele>
  <time>2026-09-01T19:53:27Z</time>
  <course>190.66</course>
  <speed>0.194164878389476</speed>
  <fix>3d</fix>
</trkpt>
<trkpt lat="-27.27444" lon="151.2900635">
  <ele>348.34</ele>
  <time>2026-09-01T19:53:27Z</time>
  <course>192.64</course>
  <speed>0.23</speed>
  <fix>3d</fix>
</trkpt>
<trkpt lat="-27.2744405" lon="151.2900635">
  <ele>348.22</ele>
  <time>2026-09-01T19:53:27Z</time>
  <course>190.66</course>
  <speed>0.18439088914585774</speed>
  <fix>3d</fix>
</trkpt>
<trkpt lat="-27.2744406" lon="151.2900633">
  <ele>348.2</ele>
  <time>2026-09-01T19:53:27Z</time>
  <course>190.66</course>
  <speed>0.17262676501632068</speed>
  <fix>3d</fix>
</trkpt>
<trkpt lat="-27.2744403" lon="151.2900634">
  <ele>348.25</ele>
  <time>2026-09-01T19:53:27Z</time>
  <course>192.43</course>
  <speed>0.19</speed>
  <fix>3d</fix>
</trkpt>
<trkpt lat="-27.2744407" lon="151.2900633">
  <ele>348.15</ele>
  <time>2026-09-01T19:53:27Z</time>
  <course>190.66</course>
  <speed>0.15297058540778355</speed>
  <fix>3d</fix>
</trkpt>
<trkpt lat="-27.2744403" lon="151.2900634">
  <ele>348.25</ele>
  <time>2026-09-01T19:53:27Z</time>
  <course>192.43</course>
  <speed>0.19</speed>
  <fix>3d</fix>
</trkpt>
<trkpt lat="-27.2744407" lon="151.2900633">
  <ele>348.15</ele>
  <time>2026-09-01T19:53:27Z</time>
  <course>190.66</course>
  <speed>0.15297058540778355</speed>
  <fix>3d</fix>
</trkpt>
<trkpt lat="-27.2744408" lon="151.2900633">
  <ele>348.1</ele>
  <time>2026-09-01T19:53:27Z</time>
  <course>190.66</course>
  <speed>0.1414213562373095</speed>
  <fix>3d</fix>
</trkpt>
<trkpt lat="-27.2744407" lon="151.2900633">
  <ele>348.15</ele>
  <time>2026-09-01T19:53:27Z</time>
  <course>192.04</course>
  <speed>0.16</speed>
  <fix>3d</fix>
</trkpt>
<trkpt lat="-27.2744409" lon="151.2900633">
  <ele>348.09</ele>
  <time>2026-09-01T19:53:27Z</time>
  <course>190.66</course>
  <speed>0.13152946437965907</speed>
  <fix>3d</fix>
</trkpt>
<trkpt lat="-27.274441" lon="151.2900632">
  <ele>348.05</ele>
  <time>2026-09-01T19:53:27Z</time>
  <course>190.66</course>
  <speed>0.12165525060596438</speed>
  <fix>3d</fix>
</trkpt>
<trkpt lat="-27.2744407" lon="151.2900633">
  <ele>348.15</ele>
  <time>2026-09-01T19:53:27Z</time>
  <course>192.04</course>
  <speed>0.16</speed>
  <fix>3d</fix>
</trkpt>
<trkpt lat="-27.274441" lon="151.2900632">
  <ele>348.04</ele>
  <time>2026-09-01T19:53:27Z</time>
  <course>190.66</course>
  <speed>0.12165525060596438</speed>
  <fix>3d</fix>
</trkpt>
<trkpt lat="-27.2744411" lon="151.2900632">
  <ele>348.0</ele>
  <time>2026-09-01T19:53:27Z</time>
  <course>190.66</course>
  <speed>0.1004987562112089</speed>
  <fix>3d</fix>
</trkpt>
<trkpt lat="-27.2744409" lon="151.2900633">
  <ele>348.05</ele>
  <time>2026-09-01T19:53:27Z</time>
  <course>191.15</course>
  <speed>0.12</speed>
  <fix>3d</fix>
</trkpt>
<trkpt lat="-27.2744411" lon="151.2900632">
  <ele>347.99</ele>
  <time>2026-09-01T19:53:27Z</time>
  <course>190.66</course>
  <speed>0.1004987562112089</speed>
  <fix>3d</fix>
</trkpt>
<trkpt lat="-27.2744412" lon="151.2900632">
  <ele>347.95</ele>
  <time>2026-09-01T19:53:27Z</time>
  <course>190.66</course>
  <speed>0.08062257748298549</speed>
  <fix>3d</fix>
</trkpt>
<trkpt lat="-27.2744409" lon="151.2900633">
  <ele>348.05</ele>
  <time>2026-09-01T19:53:27Z</time>
  <course>191.15</course>
  <speed>0.12</speed>
  <fix>3d</fix>
</trkpt>
<trkpt lat="-27.2744412" lon="151.2900632">
  <ele>347.92</ele>
  <time>2026-09-01T19:53:27Z</time>
  <course>190.66</course>
  <speed>0.08062257748298549</speed>
  <fix>3d</fix>
</trkpt>
<trkpt lat="-27.2744412" lon="151.2900632">
  <ele>347.89</ele>
  <time>2026-09-01T19:53:27Z</time>
  <course>190.66</course>
  <speed>0.07071067811865475</speed>
  <fix>3d</fix>
</trkpt>
<trkpt lat="-27.2744411" lon="151.2900632">
  <ele>347.95</ele>
  <time>2026-09-01T19:53:27Z</time>
  <course>189.36</course>
  <speed>0.09</speed>
  <fix>3d</fix>
</trkpt>
<trkpt lat="-27.2744413" lon="151.2900632">
  <ele>347.84</ele>
  <time>2026-09-01T19:53:27Z</time>
  <course>190.65</course>
  <speed>0.05</speed>
  <fix>3d</fix>
</trkpt>
<trkpt lat="-27.2744411" lon="151.2900632">
  <ele>347.95</ele>
  <time>2026-09-01T19:53:27Z</time>
  <course>189.36</course>
  <speed>0.09</speed>
  <fix>3d</fix>
</trkpt>
<trkpt lat="-27.2744413" lon="151.2900632">
  <ele>347.84</ele>
  <time>2026-09-01T19:53:27Z</time>
  <course>190.65</course>
  <speed>0.05</speed>
  <fix>3d</fix>
</trkpt>
<trkpt lat="-27.2744413" lon="151.2900632">
  <ele>347.79</ele>
  <time>2026-09-01T19:53:27Z</time>
  <course>190.64</course>
  <speed>0.04</speed>
  <fix>3d</fix>
</trkpt>
<trkpt lat="-27.2744412" lon="151.2900632">
  <ele>347.84</ele>
  <time>2026-09-01T19:53:27Z</time>
  <course>185.83</course>
  <speed>0.05</speed>
  <fix>3d</fix>
</trkpt>
<trkpt lat="-27.2744413" lon="151.2900632">
  <ele>347.79</ele>
  <time>2026-09-01T19:53:27Z</time>
  <course>190.64</course>
  <speed>0.04</speed>
  <fix>3d</fix>
</trkpt>
<trkpt lat="-27.2744414" lon="151.2900632">
  <ele>347.74</ele>
  <time>2026-09-01T19:53:27Z</time>
  <course>190.63</course>
  <speed>0.02</speed>
  <fix>3d</fix>
</trkpt>
<trkpt lat="-27.2744412" lon="151.2900632">
  <ele>347.84</ele>
  <time>2026-09-01T19:53:27Z</time>
  <course>185.83</course>
  <speed>0.05</speed>
  <fix>3d</fix>
</trkpt>
<trkpt lat="-27.2744414" lon="151.2900632">
  <ele>347.72</ele>
  <time>2026-09-01T19:53:27Z</time>
  <course>190.63</course>
  <speed>0.02</speed>
  <fix>3d</fix>
</trkpt>
<trkpt lat="-27.2744414" lon="151.2900632">
  <ele>347.69</ele>
  <time>2026-09-01T19:53:27Z</time>
  <course>190.62</course>
  <speed>0.01</speed>
  <fix>3d</fix>
</trkpt>
<trkpt lat="-27.2744413" lon="151.2900632">
  <ele>347.75</ele>
  <time>2026-09-01T19:53:27Z</time>
  <course>176.81</course>
  <speed>0.02</speed>
  <fix>3d</fix>
</trkpt>
<trkpt lat="-27.2744414" lon="151.2900632">
  <ele>347.67</ele>
  <time>2026-09-01T19:53:27Z</time>
  <course>190.61</course>
  <speed>0.0</speed>
  <fix>3d</fix>
</trkpt>
<trkpt lat="-27.2744414" lon="151.2900632">
  <ele>347.64</ele>
  <time>2026-09-01T19:53:27Z</time>
  <course>190.59</course>
  <speed>0.0</speed>
  <fix>3d</fix>
</trkpt>
<trkpt lat="-27.2744413" lon="151.2900632">
  <ele>347.75</ele>
  <time>2026-09-01T19:53:27Z</time>
  <course>176.81</course>
  <speed>0.02</speed>
  <fix>3d</fix>
</trkpt>
<trkpt lat="-27.2744414" lon="151.2900632">
  <ele>347.62</ele>
  <time>2026-09-01T19:53:27Z</time>
  <course>190.57</course>
  <speed>0.0</speed>
  <fix>3d</fix>
</trkpt>
<trkpt lat="-27.2744414" lon="151.2900632">
  <ele>347.59</ele>
  <time>2026-09-01T19:53:27Z</time>
  <course>190.53</course>
  <speed>0.01</speed>
  <fix>3d</fix>
</trkpt>
<trkpt lat="-27.2744414" lon="151.2900632">
  <ele>347.65</ele>
  <time>2026-09-01T19:53:27Z</time>
  <course>104.35</course>
  <speed>0.0</speed>
  <fix>3d</fix>
</trkpt>
<trkpt lat="-27.2744414" lon="151.2900632">
  <ele>347.57</ele>
  <time>2026-09-01T19:53:27Z</time>
  <course>190.49</course>
  <speed>0.01</speed>
  <fix>3d</fix>
</trkpt>
<trkpt lat="-27.2744414" lon="151.2900632">
  <ele>347.54</ele>
  <time>2026-09-01T19:53:27Z</time>
  <course>190.44</course>
  <speed>0.02</speed>
  <fix>3d</fix>
</trkpt>
<trkpt lat="-27.2744414" lon="151.2900632">
  <ele>347.65</ele>
  <time>2026-09-01T19:53:27Z</time>
  <course>104.35</course>
  <speed>0.0</speed>
  <fix>3d</fix>
</trkpt>
<trkpt lat="-27.2744414" lon="151.2900632">
  <ele>347.54</ele>
  <time>2026-09-01T19:53:27Z</time>
  <course>190.44</course>
  <speed>0.02</speed>
  <fix>3d</fix>
</trkpt>
<trkpt lat="-27.2744414" lon="151.2900632">
  <ele>347.49</ele>
  <time>2026-09-01T19:53:27Z</time>
  <course>190.35</course>
  <speed>0.03</speed>
  <fix>3d</fix>
</trkpt>
<trkpt lat="-27.2744414" lon="151.2900632">
  <ele>347.55</ele>
  <time>2026-09-01T19:53:27Z</time>
  <course>13.36</course>
  <speed>0.02</speed>
  <fix>3d</fix>
</trkpt>
<trkpt lat="-27.2744414" lon="151.2900632">
  <ele>347.48</ele>
  <time>2026-09-01T19:53:27Z</time>
  <course>190.34</course>
  <speed>0.03</speed>
  <fix>3d</fix>
</trkpt>
<trkpt lat="-27.2744414" lon="151.2900632">
  <ele>347.44</ele>
  <time>2026-09-01T19:53:27Z</time>
  <course>190.29</course>
  <speed>0.04</speed>
  <fix>3d</fix>
</trkpt>
<trkpt lat="-27.2744414" lon="151.2900632">
  <ele>347.55</ele>
  <time>2026-09-01T19:53:27Z</time>
  <course>13.36</course>
  <speed>0.02</speed>
  <fix>3d</fix>
</trkpt>
<trkpt lat="-27.2744414" lon="151.2900632">
  <ele>347.4</ele>
  <time>2026-09-01T19:53:27Z</time>
  <course>190.27</course>
  <speed>0.05</speed>
  <fix>3d</fix>
</trkpt>
<trkpt lat="-27.2744414" lon="151.2900632">
  <ele>347.39</ele>
  <time>2026-09-01T19:53:27Z</time>
  <course>190.27</course>
  <speed>0.05</speed>
  <fix>3d</fix>
</trkpt>
<trkpt lat="-27.2744414" lon="151.2900632">
  <ele>347.45</ele>
  <time>2026-09-01T19:53:27Z</time>
  <course>9.13</course>
  <speed>0.04</speed>
  <fix>3d</fix>
</trkpt>
<trkpt lat="-27.2744413" lon="151.2900632">
  <ele>347.34</ele>
  <time>2026-09-01T19:53:27Z</time>
  <course>190.28</course>
  <speed>0.06082762530298219</speed>
  <fix>3d</fix>
</trkpt>
<trkpt lat="-27.2744414" lon="151.2900632">
  <ele>347.45</ele>
  <time>2026-09-01T19:53:27Z</time>
  <course>9.13</course>
  <speed>0.04</speed>
  <fix>3d</fix>
</trkpt>
<trkpt lat="-27.2744413" lon="151.2900632">
  <ele>347.34</ele>
  <time>2026-09-01T19:53:27Z</time>
  <course>190.28</course>
  <speed>0.06082762530298219</speed>
  <fix>3d</fix>
</trkpt>
<trkpt lat="-27.2744412" lon="151.2900632">
  <ele>347.3</ele>
  <time>2026-09-01T19:53:27Z</time>
  <course>190.31</course>
  <speed>0.07071067811865475</speed>
  <fix>3d</fix>
</trkpt>
<trkpt lat="-27.2744413" lon="151.2900632">
  <ele>347.34</ele>
  <time>2026-09-01T19:53:27Z</time>
  <course>9.29</course>
  <speed>0.06</speed>
  <fix>3d</fix>
</trkpt>
<trkpt lat="-27.2744412" lon="151.2900632">
  <ele>347.29</ele>
  <time>2026-09-01T19:53:27Z</time>
  <course>190.31</course>
  <speed>0.07071067811865475</speed>
  <fix>3d</fix>
</trkpt>
<trkpt lat="-27.2744412" lon="151.2900632">
  <ele>347.25</ele>
  <time>2026-09-01T19:53:27Z</time>
  <course>190.35</course>
  <speed>0.08062257748298549</speed>
  <fix>3d</fix>
</trkpt>
<trkpt lat="-27.2744413" lon="151.2900632">
  <ele>347.34</ele>
  <time>2026-09-01T19:53:27Z</time>
  <course>9.29</course>
  <speed>0.06</speed>
  <fix>3d</fix>
</trkpt>
<trkpt lat="-27.2744411" lon="151.2900632">
  <ele>347.2</ele>
  <time>2026-09-01T19:53:27Z</time>
  <course>190.4</course>
  <speed>0.09055385138137417</speed>
  <fix>3d</fix>
</trkpt>
<trkpt lat="-27.2744411" lon="151.2900632">
  <ele>347.25</ele>
  <time>2026-09-01T19:53:27Z</time>
  <course>9.48</course>
  <speed>0.08</speed>
  <fix>3d</fix>
</trkpt>
<trkpt lat="-27.2744411" lon="151.2900632">
  <ele>347.19</ele>
  <time>2026-09-01T19:53:27Z</time>
  <course>190.4</course>
  <speed>0.09055385138137417</speed>
  <fix>3d</fix>
</trkpt>
<trkpt lat="-27.274441" lon="151.2900632">
  <ele>347.15</ele>
  <time>2026-09-01T19:53:27Z</time>
  <course>190.42</course>
  <speed>0.09055385138137417</speed>
  <fix>3d</fix>
</trkpt>
<trkpt lat="-27.2744411" lon="151.2900632">
  <ele>347.25</ele>
  <time>2026-09-01T19:53:27Z</time>
  <course>9.48</course>
  <speed>0.08</speed>
  <fix>3d</fix>
</trkpt>
<trkpt lat="-27.274441" lon="151.2900632">
  <ele>347.14</ele>
  <time>2026-09-01T19:53:27Z</time>
  <course>190.43</course>
  <speed>0.09055385138137417</speed>
  <fix>3d</fix>
</trkpt>
<trkpt lat="-27.2744409" lon="151.2900632">
  <ele>347.1</ele>
  <time>2026-09-01T19:53:27Z</time>
  <course>190.44</course>
  <speed>0.1004987562112089</speed>
  <fix>3d</fix>
</trkpt>
<trkpt lat="-27.2744409" lon="151.2900632">
  <ele>347.15</ele>
  <time>2026-09-01T19:53:27Z</time>
  <course>9.57</course>
  <speed>0.09</speed>
  <fix>3d</fix>
</trkpt>
<trkpt lat="-27.2744409" lon="151.2900632">
  <ele>347.09</ele>
  <time>2026-09-01T19:53:27Z</time>
  <course>190.44</course>
  <speed>0.1004987562112089</speed>
  <fix>3d</fix>
</trkpt>
<trkpt lat="-27.2744408" lon="151.2900632">
  <ele>347.05</ele>
  <time>2026-09-01T19:53:27Z</time>
  <course>190.43</course>
  <speed>0.1004987562112089</speed>
  <fix>3d</fix>
</trkpt>
<trkpt lat="-27.2744409" lon="151.2900632">
  <ele>347.15</ele>
  <time>2026-09-01T19:53:27Z</time>
  <course>9.57</course>
  <speed>0.09</speed>
  <fix>3d</fix>
</trkpt>
<trkpt lat="-27.2744408" lon="151.2900632">
  <ele>347.04</ele>
  <time>2026-09-01T19:53:27Z</time>
  <course>190.43</course>
  <speed>0.1004987562112089</speed>
  <fix>3d</fix>
</trkpt>
<trkpt lat="-27.2744407" lon="151.2900632">
  <ele>347.0</ele>
  <time>2026-09-01T19:53:27Z</time>
  <course>190.41</course>
  <speed>0.11045361017187261</speed>
  <fix>3d</fix>
</trkpt>
<trkpt lat="-27.2744408" lon="151.2900632">
  <ele>347.05</ele>
  <time>2026-09-01T19:53:27Z</time>
  <course>9.55</course>
  <speed>0.11</speed>
  <fix>3d</fix>
</trkpt>
<trkpt lat="-27.2744407" lon="151.2900632">
  <ele>346.99</ele>
  <time>2026-09-01T19:53:27Z</time>
  <course>190.41</course>
  <speed>0.11045361017187261</speed>
  <fix>3d</fix>
</trkpt>
<trkpt lat="-27.2744406" lon="151.2900633">
  <ele>346.95</ele>
  <time>2026-09-01T19:53:27Z</time>
  <course>190.38</course>
  <speed>0.11045361017187261</speed>
  <fix>3d</fix>
</trkpt>
<trkpt lat="-27.2744408" lon="151.2900632">
  <ele>347.05</ele>
  <time>2026-09-01T19:53:27Z</time>
  <course>9.55</course>
  <speed>0.11</speed>
  <fix>3d</fix>
</trkpt>
<trkpt lat="-27.2744406" lon="151.2900633">
  <ele>346.94</ele>
  <time>2026-09-01T19:53:27Z</time>
  <course>190.38</course>
  <speed>0.11045361017187261</speed>
  <fix>3d</fix>
</trkpt>
<trkpt lat="-27.2744405" lon="151.2900633">
  <ele>346.89</ele>
  <time>2026-09-01T19:53:27Z</time>
  <course>190.35</course>
  <speed>0.1118033988749895</speed>
  <fix>3d</fix>
</trkpt>
<trkpt lat="-27.2744406" lon="151.2900633">
  <ele>346.95</ele>
  <time>2026-09-01T19:53:27Z</time>
  <course>9.53</course>
  <speed>0.11</speed>
  <fix>3d</fix>
</trkpt>
<trkpt lat="-27.2744405" lon="151.2900633">
  <ele>346.89</ele>
  <time>2026-09-01T19:53:27Z</time>
  <course>190.35</course>
  <speed>0.1118033988749895</speed>
  <fix>3d</fix>
</trkpt>
<trkpt lat="-27.2744404" lon="151.2900633">
  <ele>346.84</ele>
  <time>2026-09-01T19:53:27Z</time>
  <course>190.33</course>
  <speed>0.12165525060596438</speed>
  <fix>3d</fix>
</trkpt>
<trkpt lat="-27.2744406" lon="151.2900633">
  <ele>346.95</ele>
  <time>2026-09-01T19:53:27Z</time>
  <course>9.53</course>
  <speed>0.11</speed>
  <fix>3d</fix>
</trkpt>
<trkpt lat="-27.2744404" lon="151.2900633">
  <ele>346.83</ele>
  <time>2026-09-01T19:53:27Z</time>
  <course>190.33</course>
  <speed>0.12165525060596438</speed>
  <fix>3d</fix>
</trkpt>
<trkpt lat="-27.2744403" lon="151.2900633">
  <ele>346.79</ele>
  <time>2026-09-01T19:53:27Z</time>
  <course>190.32</course>
  <speed>0.12165525060596438</speed>
  <fix>3d</fix>
</trkpt>
<trkpt lat="-27.2744403" lon="151.2900633">
  <ele>346.84</ele>
  <time>2026-09-01T19:53:27Z</time>
  <course>9.56</course>
  <speed>0.12</speed>
  <fix>3d</fix>
</trkpt>
<trkpt lat="-27.2744403" lon="151.2900633">
  <ele>346.78</ele>
  <time>2026-09-01T19:53:27Z</time>
  <course>190.32</course>
  <speed>0.12165525060596438</speed>
  <fix>3d</fix>
</trkpt>
<trkpt lat="-27.2744402" lon="151.2900633">
  <ele>346.74</ele>
  <time>2026-09-01T19:53:27Z</time>
  <course>190.32</course>
  <speed>0.12165525060596438</speed>
  <fix>3d</fix>
</trkpt>
<trkpt lat="-27.2744403" lon="151.2900633">
  <ele>346.84</ele>
  <time>2026-09-01T19:53:27Z</time>
  <course>9.56</course>
  <speed>0.12</speed>
  <fix>3d</fix>
</trkpt>
<trkpt lat="-27.2744401" lon="151.2900635">
  <ele>346.72</ele>
  <time>2026-09-01T19:53:27Z</time>
  <course>190.33</course>
  <speed>0.12165525060596438</speed>
  <fix>3d</fix>
</trkpt>
<trkpt lat="-27.2744401" lon="151.2900635">
  <ele>346.69</ele>
  <time>2026-09-01T19:53:27Z</time>
  <course>190.33</course>
  <speed>0.12165525060596438</speed>
  <fix>3d</fix>
</trkpt>
<trkpt lat="-27.2744402" lon="151.2900634">
  <ele>346.75</ele>
  <time>2026-09-01T19:53:27Z</time>
  <course>9.57</course>
  <speed>0.12</speed>
  <fix>3d</fix>
</trkpt>
<trkpt lat="-27.27444" lon="151.2900635">
  <ele>346.67</ele>
  <time>2026-09-01T19:53:27Z</time>
  <course>190.34</course>
  <speed>0.12165525060596438</speed>
  <fix>3d</fix>
</trkpt>
<trkpt lat="-27.2744399" lon="151.2900635">
  <ele>346.64</ele>
  <time>2026-09-01T19:53:27Z</time>
  <course>190.34</course>
  <speed>0.12165525060596438</speed>
  <fix>3d</fix>
</trkpt>
<trkpt lat="-27.2744402" lon="151.2900634">
  <ele>346.75</ele>
  <time>2026-09-01T19:53:27Z</time>
  <course>9.57</course>
  <speed>0.12</speed>
  <fix>3d</fix>
</trkpt>
<trkpt lat="-27.2744399" lon="151.2900635">
  <ele>346.63</ele>
  <time>2026-09-01T19:53:27Z</time>
  <course>190.35</course>
  <speed>0.12165525060596438</speed>
  <fix>3d</fix>
</trkpt>
<trkpt lat="-27.2744398" lon="151.2900635">
  <ele>346.59</ele>
  <time>2026-09-01T19:53:27Z</time>
  <course>190.36</course>
  <speed>0.12165525060596438</speed>
  <fix>3d</fix>
</trkpt>
<trkpt lat="-27.2744399" lon="151.2900635">
  <ele>346.65</ele>
  <time>2026-09-01T19:53:27Z</time>
  <course>9.58</course>
  <speed>0.12</speed>
  <fix>3d</fix>
</trkpt>
<trkpt lat="-27.2744398" lon="151.2900635">
  <ele>346.58</ele>
  <time>2026-09-01T19:53:27Z</time>
  <course>190.37</course>
  <speed>0.12165525060596438</speed>
  <fix>3d</fix>
</trkpt>
<trkpt lat="-27.2744397" lon="151.2900635">
  <ele>346.54</ele>
  <time>2026-09-01T19:53:27Z</time>
  <course>190.38</course>
  <speed>0.1118033988749895</speed>
  <fix>3d</fix>
</trkpt>
<trkpt lat="-27.2744399" lon="151.2900635">
  <ele>346.65</ele>
  <time>2026-09-01T19:53:27Z</time>
  <course>9.58</course>
  <speed>0.12</speed>
  <fix>3d</fix>
</trkpt>
<trkpt lat="-27.2744397" lon="151.2900635">
  <ele>346.53</ele>
  <time>2026-09-01T19:53:27Z</time>
  <course>190.38</course>
  <speed>0.11045361017187261</speed>
  <fix>3d</fix>
</trkpt>
<trkpt lat="-27.2744396" lon="151.2900636">
  <ele>346.49</ele>
  <time>2026-09-01T19:53:27Z</time>
  <course>190.39</course>
  <speed>0.11045361017187261</speed>
  <fix>3d</fix>
</trkpt>
<trkpt lat="-27.2744397" lon="151.2900635">
  <ele>346.55</ele>
  <time>2026-09-01T19:53:27Z</time>
  <course>9.53</course>
  <speed>0.12</speed>
  <fix>3d</fix>
</trkpt>
<trkpt lat="-27.2744396" lon="151.2900636">
  <ele>346.48</ele>
  <time>2026-09-01T19:53:27Z</time>
  <course>190.39</course>
  <speed>0.11045361017187261</speed>
  <fix>3d</fix>
</trkpt>
<trkpt lat="-27.2744395" lon="151.2900636">
  <ele>346.44</ele>
  <time>2026-09-01T19:53:27Z</time>
  <course>190.38</course>
  <speed>0.11045361017187261</speed>
  <fix>3d</fix>
</trkpt>
<trkpt lat="-27.2744397" lon="151.2900635">
  <ele>346.55</ele>
  <time>2026-09-01T19:53:27Z</time>
  <course>9.53</course>
  <speed>0.12</speed>
  <fix>3d</fix>
</trkpt>
<trkpt lat="-27.2744395" lon="151.2900636">
  <ele>346.44</ele>
  <time>2026-09-01T19:53:27Z</time>
  <course>190.38</course>
  <speed>0.11045361017187261</speed>
  <fix>3d</fix>
</trkpt>
<trkpt lat="-27.2744394" lon="151.2900636">
  <ele>346.39</ele>
  <time>2026-09-01T19:53:27Z</time>
  <course>190.37</course>
  <speed>0.11045361017187261</speed>
  <fix>3d</fix>
</trkpt>
<trkpt lat="-27.2744395" lon="151.2900635">
  <ele>346.45</ele>
  <time>2026-09-01T19:53:27Z</time>
  <course>9.44</course>
  <speed>0.11</speed>
  <fix>3d</fix>
</trkpt>
<trkpt lat="-27.2744394" lon="151.2900636">
  <ele>346.38</ele>
  <time>2026-09-01T19:53:27Z</time>
  <course>190.37</course>
  <speed>0.11045361017187261</speed>
  <fix>3d</fix>
</trkpt>
<trkpt lat="-27.2744393" lon="151.2900636">
  <ele>346.34</ele>
  <time>2026-09-01T19:53:27Z</time>
  <course>190.35</course>
  <speed>0.1004987562112089</speed>
  <fix>3d</fix>
</trkpt>
<trkpt lat="-27.2744395" lon="151.2900635">
  <ele>346.45</ele>
  <time>2026-09-01T19:53:27Z</time>
  <course>9.44</course>
  <speed>0.11</speed>
  <fix>3d</fix>
</trkpt>
<trkpt lat="-27.2744393" lon="151.2900636">
  <ele>346.33</ele>
  <time>2026-09-01T19:53:27Z</time>
  <course>190.35</course>
  <speed>0.1004987562112089</speed>
  <fix>3d</fix>
</trkpt>
<trkpt lat="-27.2744392" lon="151.2900636">
  <ele>346.29</ele>
  <time>2026-09-01T19:53:27Z</time>
  <course>190.34</course>
  <speed>0.1004987562112089</speed>
  <fix>3d</fix>
</trkpt>
<trkpt lat="-27.2744393" lon="151.2900636">
  <ele>346.34</ele>
  <time>2026-09-01T19:53:27Z</time>
  <course>9.35</course>
  <speed>0.11</speed>
  <fix>3d</fix>
</trkpt>
<trkpt lat="-27.2744392" lon="151.2900636">
  <ele>346.28</ele>
  <time>2026-09-01T19:53:27Z</time>
  <course>190.33</course>
  <speed>0.1004987562112089</speed>
  <fix>3d</fix>
</trkpt>
<trkpt lat="-27.2744391" lon="151.2900636">
  <ele>346.24</ele>
  <time>2026-09-01T19:53:27Z</time>
  <course>190.31</course>
  <speed>0.1004987562112089</speed>
  <fix>3d</fix>
</trkpt>
<trkpt lat="-27.2744393" lon="151.2900636">
  <ele>346.34</ele>
  <time>2026-09-01T19:53:27Z</time>
  <course>9.35</course>
  <speed>0.11</speed>
  <fix>3d</fix>
</trkpt>
<trkpt lat="-27.2744391" lon="151.2900636">
  <ele>346.23</ele>
  <time>2026-09-01T19:53:27Z</time>
  <course>190.31</course>
  <speed>0.1004987562112089</speed>
  <fix>3d</fix>
</trkpt>
<trkpt lat="-27.274439" lon="151.2900637">
  <ele>346.19</ele>
  <time>2026-09-01T19:53:27Z</time>
  <course>190.29</course>
  <speed>0.09055385138137417</speed>
  <fix>3d</fix>
</trkpt>
<trkpt lat="-27.2744391" lon="151.2900636">
  <ele>346.24</ele>
  <time>2026-09-01T19:53:27Z</time>
  <course>9.15</course>
  <speed>0.1</speed>
  <fix>3d</fix>
</trkpt>
<trkpt lat="-27.274439" lon="151.2900637">
  <ele>346.18</ele>
  <time>2026-09-01T19:53:27Z</time>
  <course>190.29</course>
  <speed>0.09055385138137417</speed>
  <fix>3d</fix>
</trkpt>
<trkpt lat="-27.274439" lon="151.2900637">
  <ele>346.14</ele>
  <time>2026-09-01T19:53:27Z</time>
  <course>190.28</course>
  <speed>0.09055385138137417</speed>
  <fix>3d</fix>
</trkpt>
<trkpt lat="-27.2744391" lon="151.2900636">
  <ele>346.24</ele>
  <time>2026-09-01T19:53:27Z</time>
  <course>9.15</course>
  <speed>0.1</speed>
  <fix>3d</fix>
</trkpt>
<trkpt lat="-27.2744389" lon="151.2900637">
  <ele>346.13</ele>
  <time>2026-09-01T19:53:27Z</time>
  <course>190.27</course>
  <speed>0.09055385138137417</speed>
  <fix>3d</fix>
</trkpt>
<trkpt lat="-27.2744389" lon="151.2900637">
  <ele>346.09</ele>
  <time>2026-09-01T19:53:27Z</time>
  <course>190.27</course>
  <speed>0.08062257748298549</speed>
  <fix>3d</fix>
</trkpt>
<trkpt lat="-27.2744389" lon="151.2900637">
  <ele>346.14</ele>
  <time>2026-09-01T19:53:27Z</time>
  <course>8.98</course>
  <speed>0.09</speed>
  <fix>3d</fix>
</trkpt>
<trkpt lat="-27.2744388" lon="151.2900637">
  <ele>346.07</ele>
  <time>2026-09-01T19:53:27Z</time>
  <course>190.27</course>
  <speed>0.08062257748298549</speed>
  <fix>3d</fix>
</trkpt>
<trkpt lat="-27.2744388" lon="151.2900637">
  <ele>346.04</ele>
  <time>2026-09-01T19:53:27Z</time>
  <course>190.27</course>
  <speed>0.08062257748298549</speed>
  <fix>3d</fix>
</trkpt>
<trkpt lat="-27.2744389" lon="151.2900637">
  <ele>346.14</ele>
  <time>2026-09-01T19:53:27Z</time>
  <course>8.98</course>
  <speed>0.09</speed>
  <fix>3d</fix>
</trkpt>
<trkpt lat="-27.2744388" lon="151.2900637">
  <ele>346.02</ele>
  <time>2026-09-01T19:53:27Z</time>
  <course>190.27</course>
  <speed>0.08062257748298549</speed>
  <fix>3d</fix>
</trkpt>
<trkpt lat="-27.2744387" lon="151.2900637">
  <ele>345.99</ele>
  <time>2026-09-01T19:53:27Z</time>
  <course>190.28</course>
  <speed>0.07071067811865475</speed>
  <fix>3d</fix>
</trkpt>
<trkpt lat="-27.2744388" lon="151.2900637">
  <ele>346.03</ele>
  <time>2026-09-01T19:53:27Z</time>
  <course>8.93</course>
  <speed>0.08</speed>
  <fix>3d</fix>
</trkpt>
<trkpt lat="-27.2744387" lon="151.2900637">
  <ele>345.97</ele>
  <time>2026-09-01T19:53:27Z</time>
  <course>190.28</course>
  <speed>0.07071067811865475</speed>
  <fix>3d</fix>
</trkpt>
<trkpt lat="-27.2744387" lon="151.2900637">
  <ele>345.94</ele>
  <time>2026-09-01T19:53:27Z</time>
  <course>190.29</course>
  <speed>0.07071067811865475</speed>
  <fix>3d</fix>
</trkpt>
<trkpt lat="-27.2744388" lon="151.2900637">
  <ele>346.03</ele>
  <time>2026-09-01T19:53:27Z</time>
  <course>8.93</course>
  <speed>0.08</speed>
  <fix>3d</fix>
</trkpt>
<trkpt lat="-27.2744386" lon="151.2900637">
  <ele>345.92</ele>
  <time>2026-09-01T19:53:27Z</time>
  <course>190.3</course>
  <speed>0.07071067811865475</speed>
  <fix>3d</fix>
</trkpt>
<trkpt lat="-27.2744386" lon="151.2900637">
  <ele>345.89</ele>
  <time>2026-09-01T19:53:27Z</time>
  <course>190.31</course>
  <speed>0.06082762530298219</speed>
  <fix>3d</fix>
</trkpt>
<trkpt lat="-27.2744386" lon="151.2900637">
  <ele>345.94</ele>
  <time>2026-09-01T19:53:27Z</time>
  <course>8.74</course>
  <speed>0.07</speed>
  <fix>3d</fix>
</trkpt>
<trkpt lat="-27.2744386" lon="151.2900637">
  <ele>345.89</ele>
  <time>2026-09-01T19:53:27Z</time>
  <course>190.31</course>
  <speed>0.06082762530298219</speed>
  <fix>3d</fix>
</trkpt>
<trkpt lat="-27.2744385" lon="151.2900637">
  <ele>345.84</ele>
  <time>2026-09-01T19:53:27Z</time>
  <course>190.31</course>
  <speed>0.06</speed>
  <fix>3d</fix>
</trkpt>
<trkpt lat="-27.2744386" lon="151.2900637">
  <ele>345.94</ele>
  <time>2026-09-01T19:53:27Z</time>
  <course>8.74</course>
  <speed>0.07</speed>
  <fix>3d</fix>
</trkpt>
<trkpt lat="-27.2744385" lon="151.2900637">
  <ele>345.83</ele>
  <time>2026-09-01T19:53:27Z</time>
  <course>190.31</course>
  <speed>0.06</speed>
  <fix>3d</fix>
</trkpt>
<trkpt lat="-27.2744385" lon="151.2900637">
  <ele>345.79</ele>
  <time>2026-09-01T19:53:27Z</time>
  <course>190.32</course>
  <speed>0.05</speed>
  <fix>3d</fix>
</trkpt>
<trkpt lat="-27.2744385" lon="151.2900637">
  <ele>345.84</ele>
  <time>2026-09-01T19:53:27Z</time>
  <course>8.36</course>
  <speed>0.06</speed>
  <fix>3d</fix>
</trkpt>
<trkpt lat="-27.2744385" lon="151.2900637">
  <ele>345.77</ele>
  <time>2026-09-01T19:53:27Z</time>
  <course>190.31</course>
  <speed>0.05</speed>
  <fix>3d</fix>
</trkpt>
<trkpt lat="-27.2744384" lon="151.2900637">
  <ele>345.74</ele>
  <time>2026-09-01T19:53:27Z</time>
  <course>190.31</course>
  <speed>0.05</speed>
  <fix>3d</fix>
</trkpt>
<trkpt lat="-27.2744385" lon="151.2900637">
  <ele>345.84</ele>
  <time>2026-09-01T19:53:27Z</time>
  <course>8.36</course>
  <speed>0.06</speed>
  <fix>3d</fix>
</trkpt>
<trkpt lat="-27.2744384" lon="151.2900637">
  <ele>345.73</ele>
  <time>2026-09-01T19:53:27Z</time>
  <course>190.31</course>
  <speed>0.05</speed>
  <fix>3d</fix>
</trkpt>
<trkpt lat="-27.2744384" lon="151.2900637">
  <ele>345.69</ele>
  <time>2026-09-01T19:53:27Z</time>
  <course>190.31</course>
  <speed>0.04</speed>
  <fix>3d</fix>
</trkpt>
<trkpt lat="-27.2744384" lon="151.2900637">
  <ele>345.74</ele>
  <time>2026-09-01T19:53:27Z</time>
  <course>8.05</course>
  <speed>0.05</speed>
  <fix>3d</fix>
</trkpt>
<trkpt lat="-27.2744384" lon="151.2900637">
  <ele>345.67</ele>
  <time>2026-09-01T19:53:27Z</time>
  <course>190.3</course>
  <speed>0.04</speed>
  <fix>3d</fix>
</trkpt>
<trkpt lat="-27.2744383" lon="151.2900637">
  <ele>345.64</ele>
  <time>2026-09-01T19:53:27Z</time>
  <course>190.3</course>
  <speed>0.04</speed>
  <fix>3d</fix>
</trkpt>
<trkpt lat="-27.2744384" lon="151.2900637">
  <ele>345.74</ele>
  <time>2026-09-01T19:53:27Z</time>
  <course>8.05</course>
  <speed>0.05</speed>
  <fix>3d</fix>
</trkpt>
<trkpt lat="-27.2744383" lon="151.2900637">
  <ele>345.64</ele>
  <time>2026-09-01T19:53:27Z</time>
  <course>190.3</course>
  <speed>0.04</speed>
  <fix>3d</fix>
</trkpt>
<trkpt lat="-27.2744383" lon="151.2900637">
  <ele>345.59</ele>
  <time>2026-09-01T19:53:27Z</time>
  <course>190.29</course>
  <speed>0.03</speed>
  <fix>3d</fix>
</trkpt>
<trkpt lat="-27.2744383" lon="151.2900637">
  <ele>345.64</ele>
  <time>2026-09-01T19:53:27Z</time>
  <course>8.55</course>
  <speed>0.04</speed>
  <fix>3d</fix>
</trkpt>
<trkpt lat="-27.2744383" lon="151.2900637">
  <ele>345.58</ele>
  <time>2026-09-01T19:53:27Z</time>
  <course>190.29</course>
  <speed>0.03</speed>
  <fix>3d</fix>
</trkpt>
<trkpt lat="-27.2744383" lon="151.2900637">
  <ele>345.54</ele>
  <time>2026-09-01T19:53:27Z</time>
  <course>190.29</course>
  <speed>0.03</speed>
  <fix>3d</fix>
</trkpt>
<trkpt lat="-27.2744383" lon="151.2900637">
  <ele>345.64</ele>
  <time>2026-09-01T19:53:27Z</time>
  <course>8.55</course>
  <speed>0.04</speed>
  <fix>3d</fix>
</trkpt>
<trkpt lat="-27.2744383" lon="151.2900637">
  <ele>345.53</ele>
  <time>2026-09-01T19:53:27Z</time>
  <course>190.29</course>
  <speed>0.02</speed>
  <fix>3d</fix>
</trkpt>
<trkpt lat="-27.2744382" lon="151.2900637">
  <ele>345.49</ele>
  <time>2026-09-01T19:53:27Z</time>
  <course>190.29</course>
  <speed>0.02</speed>
  <fix>3d</fix>
</trkpt>
<trkpt lat="-27.2744382" lon="151.2900637">
  <ele>345.53</ele>
  <time>2026-09-01T19:53:27Z</time>
  <course>11.33</course>
  <speed>0.03</speed>
  <fix>3d</fix>
</trkpt>
<trkpt lat="-27.2744382" lon="151.2900637">
  <ele>345.47</ele>
  <time>2026-09-01T19:53:27Z</time>
  <course>190.29</course>
  <speed>0.02</speed>
  <fix>3d</fix>
</trkpt>
<trkpt lat="-27.2744382" lon="151.2900637">
  <ele>345.44</ele>
  <time>2026-09-01T19:53:27Z</time>
  <course>190.3</course>
  <speed>0.02</speed>
  <fix>3d</fix>
</trkpt>
<trkpt lat="-27.2744382" lon="151.2900637">
  <ele>345.53</ele>
  <time>2026-09-01T19:53:27Z</time>
  <course>11.33</course>
  <speed>0.03</speed>
  <fix>3d</fix>
</trkpt>
<trkpt lat="-27.2744382" lon="151.2900637">
  <ele>345.43</ele>
  <time>2026-09-01T19:53:27Z</time>
  <course>190.3</course>
  <speed>0.01</speed>
  <fix>3d</fix>
</trkpt>
<trkpt lat="-27.2744382" lon="151.2900637">
  <ele>345.39</ele>
  <time>2026-09-01T19:53:27Z</time>
  <course>190.31</course>
  <speed>0.01</speed>
  <fix>3d</fix>
</trkpt>
<trkpt lat="-27.2744382" lon="151.2900637">
  <ele>345.44</ele>
  <time>2026-09-01T19:53:27Z</time>
  <course>18.69</course>
  <speed>0.02</speed>
  <fix>3d</fix>
</trkpt>
<trkpt lat="-27.2744382" lon="151.2900637">
  <ele>345.38</ele>
  <time>2026-09-01T19:53:27Z</time>
  <course>190.31</course>
  <speed>0.01</speed>
  <fix>3d</fix>
</trkpt>
<trkpt lat="-27.2744382" lon="151.2900637">
  <ele>345.34</ele>
  <time>2026-09-01T19:53:27Z</time>
  <course>190.33</course>
  <speed>0.01</speed>
  <fix>3d</fix>
</trkpt>
<trkpt lat="-27.2744382" lon="151.2900637">
  <ele>345.44</ele>
  <time>2026-09-01T19:53:27Z</time>
  <course>18.69</course>
  <speed>0.02</speed>
  <fix>3d</fix>
</trkpt>
<trkpt lat="-27.2744382" lon="151.2900637">
  <ele>345.34</ele>
  <time>2026-09-01T19:53:27Z</time>
  <course>190.33</course>
  <speed>0.01</speed>
  <fix>3d</fix>
</trkpt>
<trkpt lat="-27.2744382" lon="151.2900637">
  <ele>345.29</ele>
  <time>2026-09-01T19:53:27Z</time>
  <course>190.35</course>
  <speed>0.01</speed>
  <fix>3d</fix>
</trkpt>
<trkpt lat="-27.2744382" lon="151.2900637">
  <ele>345.34</ele>
  <time>2026-09-01T19:53:27Z</time>
  <course>38.32</course>
  <speed>0.01</speed>
  <fix>3d</fix>
</trkpt>
<trkpt lat="-27.2744382" lon="151.2900637">
  <ele>345.29</ele>
  <time>2026-09-01T19:53:27Z</time>
  <course>190.35</course>
  <speed>0.01</speed>
  <fix>3d</fix>
</trkpt>
<trkpt lat="-27.2744382" lon="151.2900637">
  <ele>345.24</ele>
  <time>2026-09-01T19:53:27Z</time>
  <course>190.39</course>
  <speed>0.01</speed>
  <fix>3d</fix>
</trkpt>
<trkpt lat="-27.2744382" lon="151.2900637">
  <ele>345.34</ele>
  <time>2026-09-01T19:53:27Z</time>
  <course>38.32</course>
  <speed>0.01</speed>
  <fix>3d</fix>
</trkpt>
<trkpt lat="-27.2744382" lon="151.2900637">
  <ele>345.23</ele>
  <time>2026-09-01T19:53:27Z</time>
  <course>190.4</course>
  <speed>0.01</speed>
  <fix>3d</fix>
</trkpt>
<trkpt lat="-27.2744382" lon="151.2900639">
  <ele>345.19</ele>
  <time>2026-09-01T19:53:27Z</time>
  <course>190.43</course>
  <speed>0.01</speed>
  <fix>3d</fix>
</trkpt>
<trkpt lat="-27.2744382" lon="151.2900638">
  <ele>345.24</ele>
  <time>2026-09-01T19:53:27Z</time>
  <course>82.13</course>
  <speed>0.01</speed>
  <fix>3d</fix>
</trkpt>
<trkpt lat="-27.2744382" lon="151.2900639">
  <ele>345.18</ele>
  <time>2026-09-01T19:53:27Z</time>
  <course>190.45</course>
  <speed>0.01</speed>
  <fix>3d</fix>
</trkpt>
<trkpt lat="-27.2744382" lon="151.2900639">
  <ele>345.14</ele>
  <time>2026-09-01T19:53:27Z</time>
  <course>190.49</course>
  <speed>0.01</speed>
  <fix>3d</fix>
</trkpt>
<trkpt lat="-27.2744382" lon="151.2900638">
  <ele>345.24</ele>
  <time>2026-09-01T19:53:27Z</time>
  <course>82.13</course>
  <speed>0.01</speed>
  <fix>3d</fix>
</trkpt>
<trkpt lat="-27.2744382" lon="151.2900639">
  <ele>345.13</ele>
  <time>2026-09-01T19:53:27Z</time>
  <course>190.51</course>
  <speed>0.01</speed>
  <fix>3d</fix>
</trkpt>
<trkpt lat="-27.2744382" lon="151.2900639">
  <ele>345.09</ele>
  <time>2026-09-01T19:53:27Z</time>
  <course>190.55</course>
  <speed>0.01414213562373095</speed>
  <fix>3d</fix>
</trkpt>
<trkpt lat="-27.2744382" lon="151.2900639">
  <ele>345.14</ele>
  <time>2026-09-01T19:53:27Z</time>
  <course>116.19</course>
  <speed>0.01</speed>
  <fix>3d</fix>
</trkpt>
<trkpt lat="-27.2744382" lon="151.2900639">
  <ele>345.09</ele>
  <time>2026-09-01T19:53:27Z</time>
  <course>190.55</course>
  <speed>0.01414213562373095</speed>
  <fix>3d</fix>
</trkpt>
<trkpt lat="-27.2744382" lon="151.2900639">
  <ele>345.04</ele>
  <time>2026-09-01T19:53:27Z</time>
  <course>190.6</course>
  <speed>0.01414213562373095</speed>
  <fix>3d</fix>
</trkpt>
<trkpt lat="-27.2744382" lon="151.2900639">
  <ele>345.14</ele>
  <time>2026-09-01T19:53:27Z</time>
  <course>116.19</course>
  <speed>0.01</speed>
  <fix>3d</fix>
</trkpt>
<trkpt lat="-27.2744382" lon="151.2900639">
  <ele>345.04</ele>
  <time>2026-09-01T19:53:27Z</time>
  <course>190.61</course>
  <speed>0.01414213562373095</speed>
  <fix>3d</fix>
</trkpt>
<trkpt lat="-27.2744382" lon="151.2900639">
  <ele>344.99</ele>
  <time>2026-09-01T19:53:27Z</time>
  <course>190.65</course>
  <speed>0.0282842712474619</speed>
  <fix>3d</fix>
</trkpt>
<trkpt lat="-27.2744382" lon="151.2900639">
  <ele>345.03</ele>
  <time>2026-09-01T19:53:27Z</time>
  <course>130.9</course>
  <speed>0.02</speed>
  <fix>3d</fix>
</trkpt>
<trkpt lat="-27.2744382" lon="151.2900639">
  <ele>344.98</ele>
  <time>2026-09-01T19:53:27Z</time>
  <course>190.65</course>
  <speed>0.0282842712474619</speed>
  <fix>3d</fix>
</trkpt>
<trkpt lat="-27.2744382" lon="151.2900639">
  <ele>344.94</ele>
  <time>2026-09-01T19:53:27Z</time>
  <course>190.68</course>
  <speed>0.0282842712474619</speed>
  <fix>3d</fix>
</trkpt>
<trkpt lat="-27.2744382" lon="151.2900639">
  <ele>345.03</ele>
  <time>2026-09-01T19:53:27Z</time>
  <course>130.9</course>
  <speed>0.02</speed>
  <fix>3d</fix>
</trkpt>
<trkpt lat="-27.2744382" lon="151.290064">
  <ele>344.93</ele>
  <time>2026-09-01T19:53:27Z</time>
  <course>190.68</course>
  <speed>0.0282842712474619</speed>
  <fix>3d</fix>
</trkpt>
<trkpt lat="-27.2744382" lon="151.290064">
  <ele>344.89</ele>
  <time>2026-09-01T19:53:27Z</time>
  <course>190.7</course>
  <speed>0.0282842712474619</speed>
  <fix>3d</fix>
</trkpt>
<trkpt lat="-27.2744382" lon="151.2900639">
  <ele>344.94</ele>
  <time>2026-09-01T19:53:27Z</time>
  <course>137.89</course>
  <speed>0.03</speed>
  <fix>3d</fix>
</trkpt>
<trkpt lat="-27.2744382" lon="151.290064">
  <ele>344.89</ele>
  <time>2026-09-01T19:53:27Z</time>
  <course>190.7</course>
  <speed>0.0282842712474619</speed>
  <fix>3d</fix>
</trkpt>
<trkpt lat="-27.2744382" lon="151.290064">
  <ele>344.84</ele>
  <time>2026-09-01T19:53:27Z</time>
  <course>190.71</course>
  <speed>0.03605551275463989</speed>
  <fix>3d</fix>
</trkpt>
<trkpt lat="-27.2744382" lon="151.2900639">
  <ele>344.94</ele>
  <time>2026-09-01T19:53:27Z</time>
  <course>137.89</course>
  <speed>0.03</speed>
  <fix>3d</fix>
</trkpt>
<trkpt lat="-27.2744382" lon="151.290064">
  <ele>344.83</ele>
  <time>2026-09-01T19:53:27Z</time>
  <course>190.71</course>
  <speed>0.03605551275463989</speed>
  <fix>3d</fix>
</trkpt>
<trkpt lat="-27.2744382" lon="151.290064">
  <ele>344.79</ele>
  <time>2026-09-01T19:53:27Z</time>
  <course>190.71</course>
  <speed>0.03605551275463989</speed>
  <fix>3d</fix>
</trkpt>
<trkpt lat="-27.2744382" lon="151.290064">
  <ele>344.84</ele>
  <time>2026-09-01T19:53:27Z</time>
  <course>141.51</course>
  <speed>0.04</speed>
  <fix>3d</fix>
</trkpt>
<trkpt lat="-27.2744382" lon="151.290064">
  <ele>344.79</ele>
  <time>2026-09-01T19:53:27Z</time>
  <course>190.71</course>
  <speed>0.03605551275463989</speed>
  <fix>3d</fix>
</trkpt>
<trkpt lat="-27.2744383" lon="151.2900641">
  <ele>344.74</ele>
  <time>2026-09-01T19:53:27Z</time>
  <course>190.7</course>
  <speed>0.03605551275463989</speed>
  <fix>3d</fix>
</trkpt>
<trkpt lat="-27.2744382" lon="151.290064">
  <ele>344.84</ele>
  <time>2026-09-01T19:53:27Z</time>
  <course>141.51</course>
  <speed>0.04</speed>
  <fix>3d</fix>
</trkpt>
<trkpt lat="-27.2744383" lon="151.2900641">
  <ele>344.74</ele>
  <time>2026-09-01T19:53:27Z</time>
  <course>190.7</course>
  <speed>0.03605551275463989</speed>
  <fix>3d</fix>
</trkpt>
<trkpt lat="-27.2744383" lon="151.2900641">
  <ele>344.69</ele>
  <time>2026-09-01T19:53:27Z</time>
  <course>190.69</course>
  <speed>0.044721359549995794</speed>
  <fix>3d</fix>
</trkpt>
<trkpt lat="-27.2744382" lon="151.290064">
  <ele>344.74</ele>
  <time>2026-09-01T19:53:27Z</time>
  <course>144.0</course>
  <speed>0.04</speed>
  <fix>3d</fix>
</trkpt>
<trkpt lat="-27.2744383" lon="151.2900641">
  <ele>344.68</ele>
  <time>2026-09-01T19:53:27Z</time>
  <course>190.69</course>
  <speed>0.044721359549995794</speed>
  <fix>3d</fix>
</trkpt>
<trkpt lat="-27.2744383" lon="151.2900641">
  <ele>344.64</ele>
  <time>2026-09-01T19:53:27Z</time>
  <course>190.68</course>
  <speed>0.044721359549995794</speed>
  <fix>3d</fix>
</trkpt>
<trkpt lat="-27.2744382" lon="151.290064">
  <ele>344.74</ele>
  <time>2026-09-01T19:53:27Z</time>
  <course>144.0</course>
  <speed>0.04</speed>
  <fix>3d</fix>
</trkpt>
<trkpt lat="-27.2744383" lon="151.2900641">
  <ele>344.63</ele>
  <time>2026-09-01T19:53:27Z</time>
  <course>190.68</course>
  <speed>0.044721359549995794</speed>
  <fix>3d</fix>
</trkpt>
<trkpt lat="-27.2744384" lon="151.2900641">
  <ele>344.59</ele>
  <time>2026-09-01T19:53:27Z</time>
  <course>190.67</course>
  <speed>0.044721359549995794</speed>
  <fix>3d</fix>
</trkpt>
<trkpt lat="-27.2744383" lon="151.2900641">
  <ele>344.64</ele>
  <time>2026-09-01T19:53:27Z</time>
  <course>146.45</course>
  <speed>0.05</speed>
  <fix>3d</fix>
</trkpt>
<trkpt lat="-27.2744384" lon="151.2900641">
  <ele>344.58</ele>
  <time>2026-09-01T19:53:27Z</time>
  <course>190.67</course>
  <speed>0.044721359549995794</speed>
  <fix>3d</fix>
</trkpt>
<trkpt lat="-27.2744384" lon="151.2900642">
  <ele>344.54</ele>
  <time>2026-09-01T19:53:27Z</time>
  <course>190.66</course>
  <speed>0.044721359549995794</speed>
  <fix>3d</fix>
</trkpt>
<trkpt lat="-27.2744383" lon="151.2900641">
  <ele>344.64</ele>
  <time>2026-09-01T19:53:27Z</time>
  <course>146.45</course>
  <speed>0.05</speed>
  <fix>3d</fix>
</trkpt>
<trkpt lat="-27.2744384" lon="151.2900642">
  <ele>344.53</ele>
  <time>2026-09-01T19:53:27Z</time>
  <course>190.66</course>
  <speed>0.044721359549995794</speed>
  <fix>3d</fix>
</trkpt>
<trkpt lat="-27.2744385" lon="151.2900642">
  <ele>344.49</ele>
  <time>2026-09-01T19:53:27Z</time>
  <course>190.65</course>
  <speed>0.044721359549995794</speed>
  <fix>3d</fix>
</trkpt>
<trkpt lat="-27.2744384" lon="151.2900641">
  <ele>344.53</ele>
  <time>2026-09-01T19:53:27Z</time>
  <course>149.24</course>
  <speed>0.05</speed>
  <fix>3d</fix>
</trkpt>
<trkpt lat="-27.2744385" lon="151.2900642">
  <ele>344.48</ele>
  <time>2026-09-01T19:53:27Z</time>
  <course>190.65</course>
  <speed>0.044721359549995794</speed>
  <fix>3d</fix>
</trkpt>
<trkpt lat="-27.2744385" lon="151.2900642">
  <ele>344.44</ele>
  <time>2026-09-01T19:53:27Z</time>
  <course>190.65</course>
  <speed>0.053851648071345036</speed>
  <fix>3d</fix>
</trkpt>
<trkpt lat="-27.2744384" lon="151.2900641">
  <ele>344.53</ele>
  <time>2026-09-01T19:53:27Z</time>
  <course>149.24</course>
  <speed>0.05</speed>
  <fix>3d</fix>
</trkpt>
<trkpt lat="-27.2744385" lon="151.2900642">
  <ele>344.43</ele>
  <time>2026-09-01T19:53:27Z</time>
  <course>190.65</course>
  <speed>0.053851648071345036</speed>
  <fix>3d</fix>
</trkpt>
<trkpt lat="-27.2744386" lon="151.2900642">
  <ele>344.39</ele>
  <time>2026-09-01T19:53:27Z</time>
  <course>190.65</course>
  <speed>0.053851648071345036</speed>
  <fix>3d</fix>
</trkpt>
<trkpt lat="-27.2744385" lon="151.2900642">
  <ele>344.44</ele>
  <time>2026-09-01T19:53:27Z</time>
  <course>151.94</course>
  <speed>0.05</speed>
  <fix>3d</fix>
</trkpt>
<trkpt lat="-27.2744386" lon="151.2900642">
  <ele>344.38</ele>
  <time>2026-09-01T19:53:27Z</time>
  <course>190.65</course>
  <speed>0.053851648071345036</speed>
  <fix>3d</fix>
</trkpt>
<trkpt lat="-27.2744386" lon="151.2900642">
  <ele>344.34</ele>
  <time>2026-09-01T19:53:27Z</time>
  <course>190.65</course>
  <speed>0.053851648071345036</speed>
  <fix>3d</fix>
</trkpt>
<trkpt lat="-27.2744385" lon="151.2900642">
  <ele>344.44</ele>
  <time>2026-09-01T19:53:27Z</time>
  <course>151.94</course>
  <speed>0.05</speed>
  <fix>3d</fix>
</trkpt>
<trkpt lat="-27.2744386" lon="151.2900642">
  <ele>344.33</ele>
  <time>2026-09-01T19:53:27Z</time>
  <course>190.65</course>
  <speed>0.053851648071345036</speed>
  <fix>3d</fix>
</trkpt>
<trkpt lat="-27.2744386" lon="151.2900642">
  <ele>344.29</ele>
  <time>2026-09-01T19:53:27Z</time>
  <course>190.65</course>
  <speed>0.053851648071345036</speed>
  <fix>3d</fix>
</trkpt>
<trkpt lat="-27.2744386" lon="151.2900642">
  <ele>344.34</ele>
  <time>2026-09-01T19:53:27Z</time>
  <course>153.97</course>
  <speed>0.05</speed>
  <fix>3d</fix>
</trkpt>
<trkpt lat="-27.2744387" lon="151.2900642">
  <ele>344.28</ele>
  <time>2026-09-01T19:53:27Z</time>
  <course>190.65</course>
  <speed>0.053851648071345036</speed>
  <fix>3d</fix>
</trkpt>
<trkpt lat="-27.2744387" lon="151.2900642">
  <ele>344.24</ele>
  <time>2026-09-01T19:53:27Z</time>
  <course>190.65</course>
  <speed>0.053851648071345036</speed>
  <fix>3d</fix>
</trkpt>
<trkpt lat="-27.2744386" lon="151.2900642">
  <ele>344.34</ele>
  <time>2026-09-01T19:53:27Z</time>
  <course>153.97</course>
  <speed>0.05</speed>
  <fix>3d</fix>
</trkpt>
<trkpt lat="-27.2744387" lon="151.2900642">
  <ele>344.23</ele>
  <time>2026-09-01T19:53:27Z</time>
  <course>190.65</course>
  <speed>0.053851648071345036</speed>
  <fix>3d</fix>
</trkpt>
<trkpt lat="-27.2744387" lon="151.2900642">
  <ele>344.19</ele>
  <time>2026-09-01T19:53:27Z</time>
  <course>190.66</course>
  <speed>0.053851648071345036</speed>
  <fix>3d</fix>
</trkpt>
<trkpt lat="-27.2744386" lon="151.2900642">
  <ele>344.24</ele>
  <time>2026-09-01T19:53:27Z</time>
  <course>155.3</course>
  <speed>0.05</speed>
  <fix>3d</fix>
</trkpt>
<trkpt lat="-27.2744388" lon="151.2900644">
  <ele>344.18</ele>
  <time>2026-09-01T19:53:27Z</time>
  <course>190.66</course>
  <speed>0.053851648071345036</speed>
  <fix>3d</fix>
</trkpt>
<trkpt lat="-27.2744388" lon="151.2900644">
  <ele>344.14</ele>
  <time>2026-09-01T19:53:27Z</time>
  <course>190.66</course>
  <speed>0.053851648071345036</speed>
  <fix>3d</fix>
</trkpt>
<trkpt lat="-27.2744386" lon="151.2900642">
  <ele>344.24</ele>
  <time>2026-09-01T19:53:27Z</time>
  <course>155.3</course>
  <speed>0.05</speed>
  <fix>3d</fix>
</trkpt>
<trkpt lat="-27.2744388" lon="151.2900644">
  <ele>344.13</ele>
  <time>2026-09-01T19:53:27Z</time>
  <course>190.66</course>
  <speed>0.053851648071345036</speed>
  <fix>3d</fix>
</trkpt>
<trkpt lat="-27.2744388" lon="151.2900644">
  <ele>344.09</ele>
  <time>2026-09-01T19:53:27Z</time>
  <course>190.66</course>
  <speed>0.053851648071345036</speed>
  <fix>3d</fix>
</trkpt>
<trkpt lat="-27.2744387" lon="151.2900643">
  <ele>344.14</ele>
  <time>2026-09-01T19:53:27Z</time>
  <course>156.42</course>
  <speed>0.05</speed>
  <fix>3d</fix>
</trkpt>
<trkpt lat="-27.2744388" lon="151.2900644">
  <ele>344.08</ele>
  <time>2026-09-01T19:53:27Z</time>
  <course>190.67</course>
  <speed>0.053851648071345036</speed>
  <fix>3d</fix>
</trkpt>
<trkpt lat="-27.2744389" lon="151.2900644">
  <ele>344.04</ele>
  <time>2026-09-01T19:53:27Z</time>
  <course>190.67</course>
  <speed>0.0412310562561766</speed>
  <fix>3d</fix>
</trkpt>
<trkpt lat="-27.2744387" lon="151.2900643">
  <ele>344.14</ele>
  <time>2026-09-01T19:53:27Z</time>
  <course>156.42</course>
  <speed>0.05</speed>
  <fix>3d</fix>
</trkpt>
<trkpt lat="-27.2744389" lon="151.2900644">
  <ele>343.99</ele>
  <time>2026-09-01T19:53:27Z</time>
  <course>190.68</course>
  <speed>0.0412310562561766</speed>
  <fix>3d</fix>
</trkpt>
<trkpt lat="-27.2744388" lon="151.2900644">
  <ele>344.03</ele>
  <time>2026-09-01T19:53:27Z</time>
  <course>158.36</course>
  <speed>0.05</speed>
  <fix>3d</fix>
</trkpt>
<trkpt lat="-27.274439" lon="151.2900644">
  <ele>343.94</ele>
  <time>2026-09-01T19:53:27Z</time>
  <course>190.68</course>
  <speed>0.0412310562561766</speed>
  <fix>3d</fix>
</trkpt>
<trkpt lat="-27.2744388" lon="151.2900644">
  <ele>344.03</ele>
  <time>2026-09-01T19:53:27Z</time>
  <course>158.36</course>
  <speed>0.05</speed>
  <fix>3d</fix>
</trkpt>
<trkpt lat="-27.274439" lon="151.2900645">
  <ele>343.89</ele>
  <time>2026-09-01T19:53:27Z</time>
  <course>190.69</course>
  <speed>0.0412310562561766</speed>
  <fix>3d</fix>
</trkpt>
<trkpt lat="-27.2744389" lon="151.2900644">
  <ele>343.94</ele>
  <time>2026-09-01T19:53:27Z</time>
  <course>160.98</course>
  <speed>0.05</speed>
  <fix>3d</fix>
</trkpt>
<trkpt lat="-27.274439" lon="151.2900645">
  <ele>343.84</ele>
  <time>2026-09-01T19:53:27Z</time>
  <course>190.7</course>
  <speed>0.0412310562561766</speed>
  <fix>3d</fix>
</trkpt>
<trkpt lat="-27.2744389" lon="151.2900644">
  <ele>343.94</ele>
  <time>2026-09-01T19:53:27Z</time>
  <course>160.98</course>
  <speed>0.05</speed>
  <fix>3d</fix>
</trkpt>
<trkpt lat="-27.2744391" lon="151.2900645">
  <ele>343.79</ele>
  <time>2026-09-01T19:53:27Z</time>
  <course>190.71</course>
  <speed>0.0412310562561766</speed>
  <fix>3d</fix>
</trkpt>
<trkpt lat="-27.274439" lon="151.2900645">
  <ele>343.84</ele>
  <time>2026-09-01T19:53:27Z</time>
  <course>163.26</course>
  <speed>0.04</speed>
  <fix>3d</fix>
</trkpt>
<trkpt lat="-27.2744391" lon="151.2900645">
  <ele>343.74</ele>
  <time>2026-09-01T19:53:27Z</time>
  <course>190.71</course>
  <speed>0.0316227766016838</speed>
  <fix>3d</fix>
</trkpt>
<trkpt lat="-27.274439" lon="151.2900645">
  <ele>343.84</ele>
  <time>2026-09-01T19:53:27Z</time>
  <course>163.26</course>
  <speed>0.04</speed>
  <fix>3d</fix>
</trkpt>
<trkpt lat="-27.2744392" lon="151.2900645">
  <ele>343.69</ele>
  <time>2026-09-01T19:53:27Z</time>
  <course>190.71</course>
  <speed>0.03</speed>
  <fix>3d</fix>
</trkpt>
<trkpt lat="-27.2744391" lon="151.2900645">
  <ele>343.74</ele>
  <time>2026-09-01T19:53:27Z</time>
  <course>165.36</course>
  <speed>0.04</speed>
  <fix>3d</fix>
</trkpt>
<trkpt lat="-27.2744392" lon="151.2900645">
  <ele>343.64</ele>
  <time>2026-09-01T19:53:27Z</time>
  <course>190.71</course>
  <speed>0.03</speed>
  <fix>3d</fix>
</trkpt>
<trkpt lat="-27.2744391" lon="151.2900645">
  <ele>343.74</ele>
  <time>2026-09-01T19:53:27Z</time>
  <course>165.36</course>
  <speed>0.04</speed>
  <fix>3d</fix>
</trkpt>
<trkpt lat="-27.2744392" lon="151.2900645">
  <ele>343.59</ele>
  <time>2026-09-01T19:53:27Z</time>
  <course>190.71</course>
  <speed>0.03</speed>
  <fix>3d</fix>
</trkpt>
<trkpt lat="-27.2744392" lon="151.2900645">
  <ele>343.64</ele>
  <time>2026-09-01T19:53:27Z</time>
  <course>167.71</course>
  <speed>0.03</speed>
  <fix>3d</fix>
</trkpt>
<trkpt lat="-27.2744392" lon="151.2900645">
  <ele>343.54</ele>
  <time>2026-09-01T19:53:27Z</time>
  <course>190.7</course>
  <speed>0.02</speed>
  <fix>3d</fix>
</trkpt>
<trkpt lat="-27.2744392" lon="151.2900645">
  <ele>343.64</ele>
  <time>2026-09-01T19:53:27Z</time>
  <course>167.71</course>
  <speed>0.03</speed>
  <fix>3d</fix>
</trkpt>
<trkpt lat="-27.2744393" lon="151.2900645">
  <ele>343.49</ele>
  <time>2026-09-01T19:53:27Z</time>
  <course>190.7</course>
  <speed>0.02</speed>
  <fix>3d</fix>
</trkpt>
<trkpt lat="-27.2744392" lon="151.2900645">
  <ele>343.53</ele>
  <time>2026-09-01T19:53:27Z</time>
  <course>170.93</course>
  <speed>0.03</speed>
  <fix>3d</fix>
</trkpt>
<trkpt lat="-27.2744393" lon="151.2900645">
  <ele>343.44</ele>
  <time>2026-09-01T19:53:27Z</time>
  <course>190.7</course>
  <speed>0.02</speed>
  <fix>3d</fix>
</trkpt>
<trkpt lat="-27.2744392" lon="151.2900645">
  <ele>343.53</ele>
  <time>2026-09-01T19:53:27Z</time>
  <course>170.93</course>
  <speed>0.03</speed>
  <fix>3d</fix>
</trkpt>
<trkpt lat="-27.2744393" lon="151.2900645">
  <ele>343.39</ele>
  <time>2026-09-01T19:53:27Z</time>
  <course>190.71</course>
  <speed>0.02</speed>
  <fix>3d</fix>
</trkpt>
<trkpt lat="-27.2744393" lon="151.2900645">
  <ele>343.44</ele>
  <time>2026-09-01T19:53:27Z</time>
  <course>175.68</course>
  <speed>0.02</speed>
  <fix>3d</fix>
</trkpt>
<trkpt lat="-27.2744393" lon="151.2900645">
  <ele>343.34</ele>
  <time>2026-09-01T19:53:27Z</time>
  <course>190.71</course>
  <speed>0.01</speed>
  <fix>3d</fix>
</trkpt>
<trkpt lat="-27.2744393" lon="151.2900645">
  <ele>343.44</ele>
  <time>2026-09-01T19:53:27Z</time>
  <course>175.68</course>
  <speed>0.02</speed>
  <fix>3d</fix>
</trkpt>
<trkpt lat="-27.2744393" lon="151.2900645">
  <ele>343.29</ele>
  <time>2026-09-01T19:53:27Z</time>
  <course>190.71</course>
  <speed>0.01</speed>
  <fix>3d</fix>
</trkpt>
<trkpt lat="-27.2744393" lon="151.2900645">
  <ele>343.34</ele>
  <time>2026-09-01T19:53:27Z</time>
  <course>182.51</course>
  <speed>0.01</speed>
  <fix>3d</fix>
</trkpt>
<trkpt lat="-27.2744394" lon="151.2900645">
  <ele>343.24</ele>
  <time>2026-09-01T19:53:27Z</time>
  <course>190.72</course>
  <speed>0.01</speed>
  <fix>3d</fix>
</trkpt>
<trkpt lat="-27.2744393" lon="151.2900645">
  <ele>343.34</ele>
  <time>2026-09-01T19:53:27Z</time>
  <course>182.51</course>
  <speed>0.01</speed>
  <fix>3d</fix>
</trkpt>
<trkpt lat="-27.2744394" lon="151.2900645">
  <ele>343.19</ele>
  <time>2026-09-01T19:53:27Z</time>
  <course>190.73</course>
  <speed>0.01</speed>
  <fix>3d</fix>
</trkpt>
<trkpt lat="-27.2744393" lon="151.2900645">
  <ele>343.24</ele>
  <time>2026-09-01T19:53:27Z</time>
  <course>192.37</course>
  <speed>0.01</speed>
  <fix>3d</fix>
</trkpt>
<trkpt lat="-27.2744394" lon="151.2900645">
  <ele>343.14</ele>
  <time>2026-09-01T19:53:27Z</time>
  <course>190.74</course>
  <speed>0.0</speed>
  <fix>3d</fix>
</trkpt>
<trkpt lat="-27.2744393" lon="151.2900645">
  <ele>343.24</ele>
  <time>2026-09-01T19:53:27Z</time>
  <course>192.37</course>
  <speed>0.01</speed>
  <fix>3d</fix>
</trkpt>
<trkpt lat="-27.2744394" lon="151.2900645">
  <ele>343.09</ele>
  <time>2026-09-01T19:53:27Z</time>
  <course>190.75</course>
  <speed>0.0</speed>
  <fix>3d</fix>
</trkpt>
<trkpt lat="-27.2744394" lon="151.2900645">
  <ele>343.14</ele>
  <time>2026-09-01T19:53:27Z</time>
  <course>206.9</course>
  <speed>0.01</speed>
  <fix>3d</fix>
</trkpt>
<trkpt lat="-27.2744394" lon="151.2900645">
  <ele>343.07</ele>
  <time>2026-09-01T19:53:27Z</time>
  <course>190.75</course>
  <speed>0.0</speed>
  <fix>3d</fix>
</trkpt>
<trkpt lat="-27.2744394" lon="151.2900645">
  <ele>343.14</ele>
  <time>2026-09-01T19:53:27Z</time>
  <course>206.9</course>
  <speed>0.01</speed>
  <fix>3d</fix>
</trkpt>
<trkpt lat="-27.2744394" lon="151.2900645">
  <ele>343.08</ele>
  <time>2026-09-01T19:53:27Z</time>
  <course>190.75</course>
  <speed>0.0</speed>
  <fix>3d</fix>
</trkpt>
<trkpt lat="-27.2744394" lon="151.2900645">
  <ele>343.08</ele>
  <time>2026-09-01T19:53:27Z</time>
  <course>218.21</course>
  <speed>0.0</speed>
  <fix>3d</fix>
</trkpt>
<trkpt lat="-27.2744394" lon="151.2900645">
  <ele>343.09</ele>
  <time>2026-09-01T19:53:27Z</time>
  <course>190.75</course>
  <speed>0.0</speed>
  <fix>3d</fix>
</trkpt>
<trkpt lat="-27.2744394" lon="151.2900645">
  <ele>343.08</ele>
  <time>2026-09-01T19:53:27Z</time>
  <course>218.21</course>
  <speed>0.0</speed>
  <fix>3d</fix>
</trkpt>
<trkpt lat="-27.2744394" lon="151.2900645">
  <ele>343.1</ele>
  <time>2026-09-01T19:53:27Z</time>
  <course>190.75</course>
  <speed>0.0</speed>
  <fix>3d</fix>
</trkpt>
<trkpt lat="-27.2744394" lon="151.2900645">
  <ele>343.09</ele>
  <time>2026-09-01T19:53:27Z</time>
  <course>38.23</course>
  <speed>0.0</speed>
  <fix>3d</fix>
</trkpt>
<trkpt lat="-27.2744394" lon="151.2900645">
  <ele>343.1</ele>
  <time>2026-09-01T19:53:27Z</time>
  <course>190.75</course>
  <speed>0.0</speed>
  <fix>3d</fix>
</trkpt>
<trkpt lat="-27.2744394" lon="151.2900645">
  <ele>343.09</ele>
  <time>2026-09-01T19:53:27Z</time>
  <course>38.23</course>
  <speed>0.0</speed>
  <fix>3d</fix>
</trkpt>
<trkpt lat="-27.2744394" lon="151.2900645">
  <ele>343.1</ele>
  <time>2026-09-01T19:53:27Z</time>
  <course>190.75</course>
  <speed>0.0</speed>
  <fix>3d</fix>
</trkpt>
<trkpt lat="-27.2744394" lon="151.2900645">
  <ele>343.1</ele>
  <time>2026-09-01T19:53:27Z</time>
  <course>38.22</course>
  <speed>0.0</speed>
  <fix>3d</fix>
</trkpt>
<trkpt lat="-27.2744394" lon="151.2900645">
  <ele>343.1</ele>
  <time>2026-09-01T19:53:27Z</time>
  <course>190.75</course>
  <speed>0.0</speed>
  <fix>3d</fix>
</trkpt>
<trkpt lat="-27.2744394" lon="151.2900645">
  <ele>343.1</ele>
  <time>2026-09-01T19:53:27Z</time>
  <course>38.22</course>
  <speed>0.0</speed>
  <fix>3d</fix>
</trkpt>
<trkpt lat="-27.2744394" lon="151.2900645">
  <ele>343.09</ele>
  <time>2026-09-01T19:53:27Z</time>
  <course>190.75</course>
  <speed>0.0</speed>
  <fix>3d</fix>
</trkpt>
<trkpt lat="-27.2744394" lon="151.2900645">
  <ele>343.09</ele>
  <time>2026-09-01T19:53:27Z</time>
  <course>218.2</course>
  <speed>0.0</speed>
  <fix>3d</fix>
</trkpt>
<trkpt lat="-27.2744394" lon="151.2900645">
  <ele>343.09</ele>
  <time>2026-09-01T19:53:27Z</time>
  <course>190.75</course>
  <speed>0.0</speed>
  <fix>3d</fix>
</trkpt>
<trkpt lat="-27.2744394" lon="151.2900645">
  <ele>343.09</ele>
  <time>2026-09-01T19:53:27Z</time>
  <course>218.2</course>
  <speed>0.0</speed>
  <fix>3d</fix>
</trkpt>
<trkpt lat="-27.2744394" lon="151.2900645">
  <ele>343.09</ele>
  <time>2026-09-01T19:53:27Z</time>
  <course>190.75</course>
  <speed>0.0</speed>
  <fix>3d</fix>
</trkpt>
<trkpt lat="-27.2744394" lon="151.2900645">
  <ele>343.09</ele>
  <time>2026-09-01T19:53:27Z</time>
  <course>48.91</course>
  <speed>0.0</speed>
  <fix>3d</fix>
</trkpt>
<trkpt lat="-27.2744394" lon="151.2900645">
  <ele>343.1</ele>
  <time>2026-09-01T19:53:27Z</time>
  <course>190.75</course>
  <speed>0.0</speed>
  <fix>3d</fix>
</trkpt>
<trkpt lat="-27.2744394" lon="151.2900645">
  <ele>343.09</ele>
  <time>2026-09-01T19:53:27Z</time>
  <course>48.91</course>
  <speed>0.0</speed>
  <fix>3d</fix>
</trkpt>
<trkpt lat="-27.2744394" lon="151.2900645">
  <ele>343.1</ele>
  <time>2026-09-01T19:53:27Z</time>
  <course>190.75</course>
  <speed>0.0</speed>
  <fix>3d</fix>
</trkpt>
<trkpt lat="-27.2744394" lon="151.2900645">
  <ele>343.09</ele>
  <time>2026-09-01T19:53:27Z</time>
  <course>38.64</course>
  <speed>0.0</speed>
  <fix>3d</fix>
</trkpt>
<trkpt lat="-27.2744394" lon="151.2900645">
  <ele>343.1</ele>
  <time>2026-09-01T19:53:27Z</time>
  <course>190.75</course>
  <speed>0.0</speed>
  <fix>3d</fix>
</trkpt>
<trkpt lat="-27.2744394" lon="151.2900645">
  <ele>343.09</ele>
  <time>2026-09-01T19:53:27Z</time>
  <course>38.64</course>
  <speed>0.0</speed>
  <fix>3d</fix>
</trkpt>
<trkpt lat="-27.2744394" lon="151.2900645">
  <ele>343.1</ele>
  <time>2026-09-01T19:53:27Z</time>
  <course>190.75</course>
  <speed>0.0</speed>
  <fix>3d</fix>
</trkpt>
<trkpt lat="-27.2744394" lon="151.2900645">
  <ele>343.1</ele>
  <time>2026-09-01T19:53:27Z</time>
  <course>215.93</course>
  <speed>0.0</speed>
  <fix>3d</fix>
</trkpt>
<trkpt lat="-27.2744394" lon="151.2900645">
  <ele>343.1</ele>
  <time>2026-09-01T19:53:27Z</time>
  <course>190.75</course>
  <speed>0.0</speed>
  <fix>3d</fix>
</trkpt>
<trkpt lat="-27.2744394" lon="151.2900645">
  <ele>343.1</ele>
  <time>2026-09-01T19:53:27Z</time>
  <course>215.93</course>
  <speed>0.0</speed>
  <fix>3d</fix>
</trkpt>
<trkpt lat="-27.2744394" lon="151.2900645">
  <ele>343.1</ele>
  <time>2026-09-01T19:53:27Z</time>
  <course>190.75</course>
  <speed>0.0</speed>
  <fix>3d</fix>
</trkpt>
<trkpt lat="-27.2744394" lon="151.2900645">
  <ele>343.1</ele>
  <time>2026-09-01T19:53:27Z</time>
  <course>216.78</course>
  <speed>0.0</speed>
  <fix>3d</fix>
</trkpt>
<trkpt lat="-27.2744394" lon="151.2900645">
  <ele>343.1</ele>
  <time>2026-09-01T19:53:27Z</time>
  <course>190.75</course>
  <speed>0.0</speed>
  <fix>3d</fix>
</trkpt>
<trkpt lat="-27.2744394" lon="151.2900645">
  <ele>343.1</ele>
  <time>2026-09-01T19:53:27Z</time>
  <course>216.78</course>
  <speed>0.0</speed>
  <fix>3d</fix>
</trkpt>
<trkpt lat="-27.2744394" lon="151.2900645">
  <ele>343.1</ele>
  <time>2026-09-01T19:53:27Z</time>
  <course>190.75</course>
  <speed>0.0</speed>
  <fix>3d</fix>
</trkpt>
<trkpt lat="-27.2744394" lon="151.2900645">
  <ele>343.1</ele>
  <time>2026-09-01T19:53:27Z</time>
  <course>44.49</course>
  <speed>0.0</speed>
  <fix>3d</fix>
</trkpt>
<trkpt lat="-27.2744394" lon="151.2900645">
  <ele>343.1</ele>
  <time>2026-09-01T19:53:27Z</time>
  <course>190.75</course>
  <speed>0.0</speed>
  <fix>3d</fix>
</trkpt>
<trkpt lat="-27.2744394" lon="151.2900645">
  <ele>343.1</ele>
  <time>2026-09-01T19:53:27Z</time>
  <course>44.49</course>
  <speed>0.0</speed>
  <fix>3d</fix>
</trkpt>
<trkpt lat="-27.2744394" lon="151.2900645">
  <ele>343.1</ele>
  <time>2026-09-01T19:53:27Z</time>
  <course>190.75</course>
  <speed>0.0</speed>
  <fix>3d</fix>
</trkpt>
<trkpt lat="-27.2744394" lon="151.2900645">
  <ele>343.1</ele>
  <time>2026-09-01T19:53:27Z</time>
  <course>54.99</course>
  <speed>0.0</speed>
  <fix>3d</fix>
</trkpt>
<trkpt lat="-27.2744394" lon="151.2900645">
  <ele>343.1</ele>
  <time>2026-09-01T19:53:27Z</time>
  <course>190.75</course>
  <speed>0.0</speed>
  <fix>3d</fix>
</trkpt>
<trkpt lat="-27.2744394" lon="151.2900645">
  <ele>343.1</ele>
  <time>2026-09-01T19:53:27Z</time>
  <course>54.99</course>
  <speed>0.0</speed>
  <fix>3d</fix>
</trkpt>
<trkpt lat="-27.2744394" lon="151.2900645">
  <ele>343.1</ele>
  <time>2026-09-01T19:53:27Z</time>
  <course>190.75</course>
  <speed>0.0</speed>
  <fix>3d</fix>
</trkpt>
<trkpt lat="-27.2744394" lon="151.2900645">
  <ele>343.1</ele>
  <time>2026-09-01T19:53:27Z</time>
  <course>187.51</course>
  <speed>0.0</speed>
  <fix>3d</fix>
</trkpt>
<trkpt lat="-27.2744394" lon="151.2900645">
  <ele>343.1</ele>
  <time>2026-09-01T19:53:27Z</time>
  <course>190.75</course>
  <speed>0.0</speed>
  <fix>3d</fix>
</trkpt>
<trkpt lat="-27.2744394" lon="151.2900645">
  <ele>343.1</ele>
  <time>2026-09-01T19:53:27Z</time>
  <course>187.51</course>
  <speed>0.0</speed>
  <fix>3d</fix>
</trkpt>
<trkpt lat="-27.2744394" lon="151.2900645">
  <ele>343.1</ele>
  <time>2026-09-01T19:53:27Z</time>
  <course>190.75</course>
  <speed>0.0</speed>
  <fix>3d</fix>
</trkpt>
<trkpt lat="-27.2744394" lon="151.2900645">
  <ele>343.1</ele>
  <time>2026-09-01T19:53:27Z</time>
  <course>256.34</course>
  <speed>0.0</speed>
  <fix>3d</fix>
</trkpt>
<trkpt lat="-27.2744394" lon="151.2900645">
  <ele>343.1</ele>
  <time>2026-09-01T19:53:27Z</time>
  <course>190.75</course>
  <speed>0.0</speed>
  <fix>3d</fix>
</trkpt>
<trkpt lat="-27.2744394" lon="151.2900645">
  <ele>343.1</ele>
  <time>2026-09-01T19:53:27Z</time>
  <course>256.34</course>
  <speed>0.0</speed>
  <fix>3d</fix>
</trkpt>
<trkpt lat="-27.2744394" lon="151.2900645">
  <ele>343.1</ele>
  <time>2026-09-01T19:53:27Z</time>
  <course>190.75</course>
  <speed>0.0</speed>
  <fix>3d</fix>
</trkpt>
<trkpt lat="-27.2744394" lon="151.2900645">
  <ele>343.1</ele>
  <time>2026-09-01T19:53:27Z</time>
  <course>327.77</course>
  <speed>0.0</speed>
  <fix>3d</fix>
</trkpt>
<trkpt lat="-27.2744394" lon="151.2900645">
  <ele>343.1</ele>
  <time>2026-09-01T19:53:27Z</time>
  <course>190.75</course>
  <speed>0.0</speed>
  <fix>3d</fix>
</trkpt>
<trkpt lat="-27.2744394" lon="151.2900645">
  <ele>343.1</ele>
  <time>2026-09-01T19:53:27Z</time>
  <course>327.77</course>
  <speed>0.0</speed>
  <fix>3d</fix>
</trkpt>
<trkpt lat="-27.2744394" lon="151.2900645">
  <ele>343.1</ele>
  <time>2026-09-01T19:53:27Z</time>
  <course>190.75</course>
  <speed>0.0</speed>
  <fix>3d</fix>
</trkpt>
<trkpt lat="-27.2744394" lon="151.2900645">
  <ele>343.1</ele>
  <time>2026-09-01T19:53:27Z</time>
  <course>320.69</course>
  <speed>0.0</speed>
  <fix>3d</fix>
</trkpt>
<trkpt lat="-27.2744394" lon="151.2900645">
  <ele>343.1</ele>
  <time>2026-09-01T19:53:27Z</time>
  <course>190.75</course>
  <speed>0.0</speed>
  <fix>3d</fix>
</trkpt>
<trkpt lat="-27.2744394" lon="151.2900645">
  <ele>343.1</ele>
  <time>2026-09-01T19:53:27Z</time>
  <course>320.69</course>
  <speed>0.0</speed>
  <fix>3d</fix>
</trkpt>
<trkpt lat="-27.2744394" lon="151.2900645">
  <ele>343.1</ele>
  <time>2026-09-01T19:53:28Z</time>
  <course>190.75</course>
  <speed>0.0</speed>
  <fix>3d</fix>
</trkpt>
<trkpt lat="-27.2744394" lon="151.2900645">
  <ele>343.1</ele>
  <time>2026-09-01T19:53:28Z</time>
  <course>321.43</course>
  <speed>0.0</speed>
  <fix>3d</fix>
</trkpt>
<trkpt lat="-27.2744394" lon="151.2900645">
  <ele>343.1</ele>
  <time>2026-09-01T19:53:28Z</time>
  <course>190.75</course>
  <speed>0.0</speed>
  <fix>3d</fix>
</trkpt>
<trkpt lat="-27.2744394" lon="151.2900645">
  <ele>343.1</ele>
  <time>2026-09-01T19:53:28Z</time>
  <course>321.43</course>
  <speed>0.0</speed>
  <fix>3d</fix>
</trkpt>
<trkpt lat="-27.2744394" lon="151.2900645">
  <ele>343.1</ele>
  <time>2026-09-01T19:53:28Z</time>
  <course>190.75</course>
  <speed>0.0</speed>
  <fix>3d</fix>
</trkpt>
<trkpt lat="-27.2744394" lon="151.2900645">
  <ele>343.1</ele>
  <time>2026-09-01T19:53:28Z</time>
  <course>310.37</course>
  <speed>0.0</speed>
  <fix>3d</fix>
</trkpt>
<trkpt lat="-27.2744394" lon="151.2900645">
  <ele>343.1</ele>
  <time>2026-09-01T19:53:28Z</time>
  <course>190.75</course>
  <speed>0.0</speed>
  <fix>3d</fix>
</trkpt>
<trkpt lat="-27.2744394" lon="151.2900645">
  <ele>343.1</ele>
  <time>2026-09-01T19:53:28Z</time>
  <course>310.37</course>
  <speed>0.0</speed>
  <fix>3d</fix>
</trkpt>
<trkpt lat="-27.2744394" lon="151.2900645">
  <ele>343.1</ele>
  <time>2026-09-01T19:53:28Z</time>
  <course>190.75</course>
  <speed>0.0</speed>
  <fix>3d</fix>
</trkpt>
<trkpt lat="-27.2744394" lon="151.2900645">
  <ele>343.1</ele>
  <time>2026-09-01T19:53:28Z</time>
  <course>336.28</course>
  <speed>0.0</speed>
  <fix>3d</fix>
</trkpt>
<trkpt lat="-27.2744394" lon="151.2900645">
  <ele>343.1</ele>
  <time>2026-09-01T19:53:28Z</time>
  <course>190.75</course>
  <speed>0.0</speed>
  <fix>3d</fix>
</trkpt>
<trkpt lat="-27.2744394" lon="151.2900645">
  <ele>343.1</ele>
  <time>2026-09-01T19:53:28Z</time>
  <course>336.28</course>
  <speed>0.0</speed>
  <fix>3d</fix>
</trkpt>
<trkpt lat="-27.2744394" lon="151.2900645">
  <ele>343.1</ele>
  <time>2026-09-01T19:53:28Z</time>
  <course>190.75</course>
  <speed>0.0</speed>
  <fix>3d</fix>
</trkpt>
<trkpt lat="-27.2744394" lon="151.2900645">
  <ele>343.1</ele>
  <time>2026-09-01T19:53:28Z</time>
  <course>29.23</course>
  <speed>0.0</speed>
  <fix>3d</fix>
</trkpt>
<trkpt lat="-27.2744394" lon="151.2900645">
  <ele>343.1</ele>
  <time>2026-09-01T19:53:28Z</time>
  <course>190.75</course>
  <speed>0.0</speed>
  <fix>3d</fix>
</trkpt>
<trkpt lat="-27.2744394" lon="151.2900645">
  <ele>343.1</ele>
  <time>2026-09-01T19:53:28Z</time>
  <course>29.23</course>
  <speed>0.0</speed>
  <fix>3d</fix>
</trkpt>
<trkpt lat="-27.2744394" lon="151.2900645">
  <ele>343.1</ele>
  <time>2026-09-01T19:53:28Z</time>
  <course>190.75</course>
  <speed>0.0</speed>
  <fix>3d</fix>
</trkpt>
<trkpt lat="-27.2744394" lon="151.2900645">
  <ele>343.1</ele>
  <time>2026-09-01T19:53:28Z</time>
  <course>299.51</course>
  <speed>0.0</speed>
  <fix>3d</fix>
</trkpt>
<trkpt lat="-27.2744394" lon="151.2900645">
  <ele>343.1</ele>
  <time>2026-09-01T19:53:28Z</time>
  <course>190.75</course>
  <speed>0.0</speed>
  <fix>3d</fix>
</trkpt>
<trkpt lat="-27.2744394" lon="151.2900645">
  <ele>343.1</ele>
  <time>2026-09-01T19:53:28Z</time>
  <course>299.51</course>
  <speed>0.0</speed>
  <fix>3d</fix>
</trkpt>
<trkpt lat="-27.2744394" lon="151.2900645">
  <ele>343.1</ele>
  <time>2026-09-01T19:53:28Z</time>
  <course>190.75</course>
  <speed>0.0</speed>
  <fix>3d</fix>
</trkpt>
<trkpt lat="-27.2744394" lon="151.2900645">
  <ele>343.1</ele>
  <time>2026-09-01T19:53:28Z</time>
  <course>176.17</course>
  <speed>0.0</speed>
  <fix>3d</fix>
</trkpt>
<trkpt lat="-27.2744394" lon="151.2900645">
  <ele>343.1</ele>
  <time>2026-09-01T19:53:28Z</time>
  <course>190.75</course>
  <speed>0.0</speed>
  <fix>3d</fix>
</trkpt>
<trkpt lat="-27.2744394" lon="151.2900645">
  <ele>343.1</ele>
  <time>2026-09-01T19:53:28Z</time>
  <course>176.17</course>
  <speed>0.0</speed>
  <fix>3d</fix>
</trkpt>
<trkpt lat="-27.2744394" lon="151.2900645">
  <ele>343.1</ele>
  <time>2026-09-01T19:53:28Z</time>
  <course>190.75</course>
  <speed>0.0</speed>
  <fix>3d</fix>
</trkpt>
<trkpt lat="-27.2744394" lon="151.2900645">
  <ele>343.1</ele>
  <time>2026-09-01T19:53:28Z</time>
  <course>68.48</course>
  <speed>0.0</speed>
  <fix>3d</fix>
</trkpt>
<trkpt lat="-27.2744394" lon="151.2900645">
  <ele>343.1</ele>
  <time>2026-09-01T19:53:28Z</time>
  <course>190.75</course>
  <speed>0.0</speed>
  <fix>3d</fix>
</trkpt>
<trkpt lat="-27.2744394" lon="151.2900645">
  <ele>343.1</ele>
  <time>2026-09-01T19:53:28Z</time>
  <course>68.48</course>
  <speed>0.0</speed>
  <fix>3d</fix>
</trkpt>
<trkpt lat="-27.2744394" lon="151.2900645">
  <ele>343.1</ele>
  <time>2026-09-01T19:53:28Z</time>
  <course>190.75</course>
  <speed>0.0</speed>
  <fix>3d</fix>
</trkpt>
<trkpt lat="-27.2744394" lon="151.2900645">
  <ele>343.1</ele>
  <time>2026-09-01T19:53:28Z</time>
  <course>32.43</course>
  <speed>0.0</speed>
  <fix>3d</fix>
</trkpt>
<trkpt lat="-27.2744394" lon="151.2900645">
  <ele>343.1</ele>
  <time>2026-09-01T19:53:28Z</time>
  <course>190.75</course>
  <speed>0.0</speed>
  <fix>3d</fix>
</trkpt>
<trkpt lat="-27.2744394" lon="151.2900645">
  <ele>343.1</ele>
  <time>2026-09-01T19:53:28Z</time>
  <course>32.43</course>
  <speed>0.0</speed>
  <fix>3d</fix>
</trkpt>
<trkpt lat="-27.2744394" lon="151.2900645">
  <ele>343.1</ele>
  <time>2026-09-01T19:53:28Z</time>
  <course>190.75</course>
  <speed>0.0</speed>
  <fix>3d</fix>
</trkpt>
<trkpt lat="-27.2744394" lon="151.2900645">
  <ele>343.1</ele>
  <time>2026-09-01T19:53:28Z</time>
  <course>93.14</course>
  <speed>0.0</speed>
  <fix>3d</fix>
</trkpt>
<trkpt lat="-27.2744394" lon="151.2900645">
  <ele>343.1</ele>
  <time>2026-09-01T19:53:28Z</time>
  <course>190.75</course>
  <speed>0.0</speed>
  <fix>3d</fix>
</trkpt>
<trkpt lat="-27.2744394" lon="151.2900645">
  <ele>343.1</ele>
  <time>2026-09-01T19:53:28Z</time>
  <course>93.14</course>
  <speed>0.0</speed>
  <fix>3d</fix>
</trkpt>
<trkpt lat="-27.2744394" lon="151.2900645">
  <ele>343.1</ele>
  <time>2026-09-01T19:53:28Z</time>
  <course>190.75</course>
  <speed>0.0</speed>
  <fix>3d</fix>
</trkpt>
<trkpt lat="-27.2744394" lon="151.2900645">
  <ele>343.1</ele>
  <time>2026-09-01T19:53:28Z</time>
  <course>313.57</course>
  <speed>0.0</speed>
  <fix>3d</fix>
</trkpt>
<trkpt lat="-27.2744394" lon="151.2900645">
  <ele>343.1</ele>
  <time>2026-09-01T19:53:28Z</time>
  <course>190.75</course>
  <speed>0.0</speed>
  <fix>3d</fix>
</trkpt>
<trkpt lat="-27.2744394" lon="151.2900645">
  <ele>343.1</ele>
  <time>2026-09-01T19:53:28Z</time>
  <course>313.57</course>
  <speed>0.0</speed>
  <fix>3d</fix>
</trkpt>
<trkpt lat="-27.2744394" lon="151.2900645">
  <ele>343.1</ele>
  <time>2026-09-01T19:53:28Z</time>
  <course>190.75</course>
  <speed>0.0</speed>
  <fix>3d</fix>
</trkpt>
<trkpt lat="-27.2744394" lon="151.2900645">
  <ele>343.1</ele>
  <time>2026-09-01T19:53:28Z</time>
  <course>272.96</course>
  <speed>0.0</speed>
  <fix>3d</fix>
</trkpt>
<trkpt lat="-27.2744394" lon="151.2900645">
  <ele>343.1</ele>
  <time>2026-09-01T19:53:28Z</time>
  <course>190.75</course>
  <speed>0.0</speed>
  <fix>3d</fix>
</trkpt>
<trkpt lat="-27.2744394" lon="151.2900645">
  <ele>343.1</ele>
  <time>2026-09-01T19:53:28Z</time>
  <course>272.96</course>
  <speed>0.0</speed>
  <fix>3d</fix>
</trkpt>
<trkpt lat="-27.2744394" lon="151.2900645">
  <ele>343.1</ele>
  <time>2026-09-01T19:53:28Z</time>
  <course>190.75</course>
  <speed>0.0</speed>
  <fix>3d</fix>
</trkpt>
<trkpt lat="-27.2744394" lon="151.2900645">
  <ele>343.1</ele>
  <time>2026-09-01T19:53:28Z</time>
  <course>81.9</course>
  <speed>0.0</speed>
  <fix>3d</fix>
</trkpt>
<trkpt lat="-27.2744394" lon="151.2900645">
  <ele>343.1</ele>
  <time>2026-09-01T19:53:28Z</time>
  <course>190.75</course>
  <speed>0.0</speed>
  <fix>3d</fix>
</trkpt>
<trkpt lat="-27.2744394" lon="151.2900645">
  <ele>343.1</ele>
  <time>2026-09-01T19:53:28Z</time>
  <course>81.9</course>
  <speed>0.0</speed>
  <fix>3d</fix>
</trkpt>
<trkpt lat="-27.2744394" lon="151.2900645">
  <ele>343.1</ele>
  <time>2026-09-01T19:53:28Z</time>
  <course>190.75</course>
  <speed>0.0</speed>
  <fix>3d</fix>
</trkpt>
<trkpt lat="-27.2744394" lon="151.2900645">
  <ele>343.1</ele>
  <time>2026-09-01T19:53:28Z</time>
  <course>59.51</course>
  <speed>0.0</speed>
  <fix>3d</fix>
</trkpt>
<trkpt lat="-27.2744394" lon="151.2900645">
  <ele>343.1</ele>
  <time>2026-09-01T19:53:28Z</time>
  <course>190.75</course>
  <speed>0.0</speed>
  <fix>3d</fix>
</trkpt>
<trkpt lat="-27.2744394" lon="151.2900645">
  <ele>343.1</ele>
  <time>2026-09-01T19:53:28Z</time>
  <course>59.51</course>
  <speed>0.0</speed>
  <fix>3d</fix>
</trkpt>
<trkpt lat="-27.2744394" lon="151.2900645">
  <ele>343.1</ele>
  <time>2026-09-01T19:53:28Z</time>
  <course>190.75</course>
  <speed>0.0</speed>
  <fix>3d</fix>
</trkpt>
<trkpt lat="-27.2744394" lon="151.2900645">
  <ele>343.1</ele>
  <time>2026-09-01T19:53:28Z</time>
  <course>203.48</course>
  <speed>0.0</speed>
  <fix>3d</fix>
</trkpt>
<trkpt lat="-27.2744394" lon="151.2900645">
  <ele>343.1</ele>
  <time>2026-09-01T19:53:28Z</time>
  <course>190.75</course>
  <speed>0.0</speed>
  <fix>3d</fix>
</trkpt>
<trkpt lat="-27.2744394" lon="151.2900645">
  <ele>343.1</ele>
  <time>2026-09-01T19:53:28Z</time>
  <course>203.48</course>
  <speed>0.0</speed>
  <fix>3d</fix>
</trkpt>
<trkpt lat="-27.2744394" lon="151.2900645">
  <ele>343.1</ele>
  <time>2026-09-01T19:53:28Z</time>
  <course>190.75</course>
  <speed>0.0</speed>
  <fix>3d</fix>
</trkpt>
<trkpt lat="-27.2744394" lon="151.2900645">
  <ele>343.1</ele>
  <time>2026-09-01T19:53:28Z</time>
  <course>193.2</course>
  <speed>0.0</speed>
  <fix>3d</fix>
</trkpt>
<trkpt lat="-27.2744394" lon="151.2900645">
  <ele>343.1</ele>
  <time>2026-09-01T19:53:28Z</time>
  <course>190.75</course>
  <speed>0.0</speed>
  <fix>3d</fix>
</trkpt>
<trkpt lat="-27.2744394" lon="151.2900645">
  <ele>343.1</ele>
  <time>2026-09-01T19:53:28Z</time>
  <course>193.2</course>
  <speed>0.0</speed>
  <fix>3d</fix>
</trkpt>
<trkpt lat="-27.2744394" lon="151.2900645">
  <ele>343.1</ele>
  <time>2026-09-01T19:53:28Z</time>
  <course>190.75</course>
  <speed>0.0</speed>
  <fix>3d</fix>
</trkpt>
<trkpt lat="-27.2744394" lon="151.2900645">
  <ele>343.1</ele>
  <time>2026-09-01T19:53:28Z</time>
  <course>293.81</course>
  <speed>0.0</speed>
  <fix>3d</fix>
</trkpt>
<trkpt lat="-27.2744394" lon="151.2900645">
  <ele>343.1</ele>
  <time>2026-09-01T19:53:28Z</time>
  <course>190.75</course>
  <speed>0.0</speed>
  <fix>3d</fix>
</trkpt>
<trkpt lat="-27.2744394" lon="151.2900645">
  <ele>343.1</ele>
  <time>2026-09-01T19:53:28Z</time>
  <course>293.81</course>
  <speed>0.0</speed>
  <fix>3d</fix>
</trkpt>
<trkpt lat="-27.2744394" lon="151.2900645">
  <ele>343.1</ele>
  <time>2026-09-01T19:53:28Z</time>
  <course>190.75</course>
  <speed>0.0</speed>
  <fix>3d</fix>
</trkpt>
<trkpt lat="-27.2744394" lon="151.2900645">
  <ele>343.1</ele>
  <time>2026-09-01T19:53:28Z</time>
  <course>321.95</course>
  <speed>0.0</speed>
  <fix>3d</fix>
</trkpt>
<trkpt lat="-27.2744394" lon="151.2900645">
  <ele>343.1</ele>
  <time>2026-09-01T19:53:28Z</time>
  <course>190.75</course>
  <speed>0.0</speed>
  <fix>3d</fix>
</trkpt>
<trkpt lat="-27.2744394" lon="151.2900645">
  <ele>343.1</ele>
  <time>2026-09-01T19:53:28Z</time>
  <course>321.95</course>
  <speed>0.0</speed>
  <fix>3d</fix>
</trkpt>
<trkpt lat="-27.2744394" lon="151.2900645">
  <ele>343.1</ele>
  <time>2026-09-01T19:53:28Z</time>
  <course>190.75</course>
  <speed>0.0</speed>
  <fix>3d</fix>
</trkpt>
<trkpt lat="-27.2744394" lon="151.2900645">
  <ele>343.1</ele>
  <time>2026-09-01T19:53:28Z</time>
  <course>322.34</course>
  <speed>0.0</speed>
  <fix>3d</fix>
</trkpt>
<trkpt lat="-27.2744394" lon="151.2900645">
  <ele>343.1</ele>
  <time>2026-09-01T19:53:28Z</time>
  <course>190.75</course>
  <speed>0.0</speed>
  <fix>3d</fix>
</trkpt>
<trkpt lat="-27.2744394" lon="151.2900645">
  <ele>343.1</ele>
  <time>2026-09-01T19:53:28Z</time>
  <course>322.34</course>
  <speed>0.0</speed>
  <fix>3d</fix>
</trkpt>
<trkpt lat="-27.2744394" lon="151.2900645">
  <ele>343.1</ele>
  <time>2026-09-01T19:53:28Z</time>
  <course>190.75</course>
  <speed>0.0</speed>
  <fix>3d</fix>
</trkpt>
<trkpt lat="-27.2744394" lon="151.2900645">
  <ele>343.1</ele>
  <time>2026-09-01T19:53:28Z</time>
  <course>322.43</course>
  <speed>0.0</speed>
  <fix>3d</fix>
</trkpt>
<trkpt lat="-27.2744394" lon="151.2900645">
  <ele>343.1</ele>
  <time>2026-09-01T19:53:28Z</time>
  <course>190.75</course>
  <speed>0.0</speed>
  <fix>3d</fix>
</trkpt>
<trkpt lat="-27.2744394" lon="151.2900645">
  <ele>343.1</ele>
  <time>2026-09-01T19:53:28Z</time>
  <course>322.43</course>
  <speed>0.0</speed>
  <fix>3d</fix>
</trkpt>
<trkpt lat="-27.2744394" lon="151.2900645">
  <ele>343.1</ele>
  <time>2026-09-01T19:53:28Z</time>
  <course>190.75</course>
  <speed>0.0</speed>
  <fix>3d</fix>
</trkpt>
<trkpt lat="-27.2744394" lon="151.2900645">
  <ele>343.1</ele>
  <time>2026-09-01T19:53:28Z</time>
  <course>322.43</course>
  <speed>0.0</speed>
  <fix>3d</fix>
</trkpt>
<trkpt lat="-27.2744394" lon="151.2900645">
  <ele>343.1</ele>
  <time>2026-09-01T19:53:28Z</time>
  <course>190.75</course>
  <speed>0.0</speed>
  <fix>3d</fix>
</trkpt>
<trkpt lat="-27.2744394" lon="151.2900645">
  <ele>343.1</ele>
  <time>2026-09-01T19:53:28Z</time>
  <course>142.35</course>
  <speed>0.0</speed>
  <fix>3d</fix>
</trkpt>
<trkpt lat="-27.2744394" lon="151.2900645">
  <ele>343.1</ele>
  <time>2026-09-01T19:53:28Z</time>
  <course>190.75</course>
  <speed>0.0</speed>
  <fix>3d</fix>
</trkpt>
<trkpt lat="-27.2744394" lon="151.2900645">
  <ele>343.1</ele>
  <time>2026-09-01T19:53:28Z</time>
  <course>142.35</course>
  <speed>0.0</speed>
  <fix>3d</fix>
</trkpt>
<trkpt lat="-27.2744394" lon="151.2900645">
  <ele>343.1</ele>
  <time>2026-09-01T19:53:28Z</time>
  <course>190.75</course>
  <speed>0.0</speed>
  <fix>3d</fix>
</trkpt>
<trkpt lat="-27.2744394" lon="151.2900645">
  <ele>343.1</ele>
  <time>2026-09-01T19:53:28Z</time>
  <course>142.54</course>
  <speed>0.0</speed>
  <fix>3d</fix>
</trkpt>
<trkpt lat="-27.2744394" lon="151.2900645">
  <ele>343.1</ele>
  <time>2026-09-01T19:53:28Z</time>
  <course>190.75</course>
  <speed>0.0</speed>
  <fix>3d</fix>
</trkpt>
<trkpt lat="-27.2744394" lon="151.2900645">
  <ele>343.1</ele>
  <time>2026-09-01T19:53:29Z</time>
  <course>322.37</course>
  <speed>0.0</speed>
  <fix>3d</fix>
</trkpt>
<trkpt lat="-27.2744394" lon="151.2900645">
  <ele>343.1</ele>
  <time>2026-09-01T19:53:29Z</time>
  <course>190.75</course>
  <speed>0.0</speed>
  <fix>3d</fix>
</trkpt>
<trkpt lat="-27.2744394" lon="151.2900645">
  <ele>343.1</ele>
  <time>2026-09-01T19:53:29Z</time>
  <course>322.37</course>
  <speed>0.0</speed>
  <fix>3d</fix>
</trkpt>
<trkpt lat="-27.2744394" lon="151.2900645">
  <ele>343.1</ele>
  <time>2026-09-01T19:53:29Z</time>
  <course>190.75</course>
  <speed>0.0</speed>
  <fix>3d</fix>
</trkpt>
<trkpt lat="-27.2744394" lon="151.2900645">
  <ele>343.1</ele>
  <time>2026-09-01T19:53:29Z</time>
  <course>142.11</course>
  <speed>0.0</speed>
  <fix>3d</fix>
</trkpt>
<trkpt lat="-27.2744394" lon="151.2900645">
  <ele>343.1</ele>
  <time>2026-09-01T19:53:29Z</time>
  <course>190.75</course>
  <speed>0.0</speed>
  <fix>3d</fix>
</trkpt>
<trkpt lat="-27.2744394" lon="151.2900645">
  <ele>343.1</ele>
  <time>2026-09-01T19:53:29Z</time>
  <course>142.11</course>
  <speed>0.0</speed>
  <fix>3d</fix>
</trkpt>
<trkpt lat="-27.2744394" lon="151.2900645">
  <ele>343.1</ele>
  <time>2026-09-01T19:53:29Z</time>
  <course>190.75</course>
  <speed>0.0</speed>
  <fix>3d</fix>
</trkpt>
<trkpt lat="-27.2744394" lon="151.2900645">
  <ele>343.1</ele>
  <time>2026-09-01T19:53:29Z</time>
  <course>142.38</course>
  <speed>0.0</speed>
  <fix>3d</fix>
</trkpt>
<trkpt lat="-27.2744394" lon="151.2900645">
  <ele>343.1</ele>
  <time>2026-09-01T19:53:29Z</time>
  <course>190.75</course>
  <speed>0.0</speed>
  <fix>3d</fix>
</trkpt>
<trkpt lat="-27.2744394" lon="151.2900645">
  <ele>343.1</ele>
  <time>2026-09-01T19:53:29Z</time>
  <course>142.38</course>
  <speed>0.0</speed>
  <fix>3d</fix>
</trkpt>
<trkpt lat="-27.2744394" lon="151.2900645">
  <ele>343.1</ele>
  <time>2026-09-01T19:53:29Z</time>
  <course>190.75</course>
  <speed>0.0</speed>
  <fix>3d</fix>
</trkpt>
<trkpt lat="-27.2744394" lon="151.2900645">
  <ele>343.1</ele>
  <time>2026-09-01T19:53:29Z</time>
  <course>322.3</course>
  <speed>0.0</speed>
  <fix>3d</fix>
</trkpt>
<trkpt lat="-27.2744394" lon="151.2900645">
  <ele>343.1</ele>
  <time>2026-09-01T19:53:29Z</time>
  <course>190.75</course>
  <speed>0.0</speed>
  <fix>3d</fix>
</trkpt>
<trkpt lat="-27.2744394" lon="151.2900645">
  <ele>343.1</ele>
  <time>2026-09-01T19:53:29Z</time>
  <course>322.3</course>
  <speed>0.0</speed>
  <fix>3d</fix>
</trkpt>
<trkpt lat="-27.2744394" lon="151.2900645">
  <ele>343.1</ele>
  <time>2026-09-01T19:53:29Z</time>
  <course>190.75</course>
  <speed>0.0</speed>
  <fix>3d</fix>
</trkpt>
<trkpt lat="-27.2744394" lon="151.2900645">
  <ele>343.1</ele>
  <time>2026-09-01T19:53:29Z</time>
  <course>322.39</course>
  <speed>0.0</speed>
  <fix>3d</fix>
</trkpt>
<trkpt lat="-27.2744394" lon="151.2900645">
  <ele>343.1</ele>
  <time>2026-09-01T19:53:29Z</time>
  <course>190.75</course>
  <speed>0.0</speed>
  <fix>3d</fix>
</trkpt>
<trkpt lat="-27.2744394" lon="151.2900645">
  <ele>343.1</ele>
  <time>2026-09-01T19:53:29Z</time>
  <course>322.39</course>
  <speed>0.0</speed>
  <fix>3d</fix>
</trkpt>
<trkpt lat="-27.2744394" lon="151.2900645">
  <ele>343.1</ele>
  <time>2026-09-01T19:53:29Z</time>
  <course>190.75</course>
  <speed>0.0</speed>
  <fix>3d</fix>
</trkpt>
<trkpt lat="-27.2744394" lon="151.2900645">
  <ele>343.1</ele>
  <time>2026-09-01T19:53:29Z</time>
  <course>142.33</course>
  <speed>0.0</speed>
  <fix>3d</fix>
</trkpt>
<trkpt lat="-27.2744394" lon="151.2900645">
  <ele>343.1</ele>
  <time>2026-09-01T19:53:29Z</time>
  <course>190.75</course>
  <speed>0.0</speed>
  <fix>3d</fix>
</trkpt>
<trkpt lat="-27.2744394" lon="151.2900645">
  <ele>343.1</ele>
  <time>2026-09-01T19:53:29Z</time>
  <course>142.33</course>
  <speed>0.0</speed>
  <fix>3d</fix>
</trkpt>
<trkpt lat="-27.2744394" lon="151.2900645">
  <ele>343.1</ele>
  <time>2026-09-01T19:53:29Z</time>
  <course>190.75</course>
  <speed>0.0</speed>
  <fix>3d</fix>
</trkpt>
<trkpt lat="-27.2744394" lon="151.2900645">
  <ele>343.1</ele>
  <time>2026-09-01T19:53:29Z</time>
  <course>142.42</course>
  <speed>0.0</speed>
  <fix>3d</fix>
</trkpt>
<trkpt lat="-27.2744394" lon="151.2900645">
  <ele>343.1</ele>
  <time>2026-09-01T19:53:29Z</time>
  <course>190.75</course>
  <speed>0.0</speed>
  <fix>3d</fix>
</trkpt>
<trkpt lat="-27.2744394" lon="151.2900645">
  <ele>343.1</ele>
  <time>2026-09-01T19:53:29Z</time>
  <course>142.42</course>
  <speed>0.0</speed>
  <fix>3d</fix>
</trkpt>
<trkpt lat="-27.2744394" lon="151.2900645">
  <ele>343.1</ele>
  <time>2026-09-01T19:53:29Z</time>
  <course>190.75</course>
  <speed>0.0</speed>
  <fix>3d</fix>
</trkpt>
<trkpt lat="-27.2744394" lon="151.2900645">
  <ele>343.1</ele>
  <time>2026-09-01T19:53:29Z</time>
  <course>322.35</course>
  <speed>0.0</speed>
  <fix>3d</fix>
</trkpt>
<trkpt lat="-27.2744394" lon="151.2900645">
  <ele>343.1</ele>
  <time>2026-09-01T19:53:29Z</time>
  <course>190.75</course>
  <speed>0.0</speed>
  <fix>3d</fix>
</trkpt>
<trkpt lat="-27.2744394" lon="151.2900645">
  <ele>343.1</ele>
  <time>2026-09-01T19:53:29Z</time>
  <course>322.35</course>
  <speed>0.0</speed>
  <fix>3d</fix>
</trkpt>
<trkpt lat="-27.2744394" lon="151.2900645">
  <ele>343.1</ele>
  <time>2026-09-01T19:53:29Z</time>
  <course>190.75</course>
  <speed>0.0</speed>
  <fix>3d</fix>
</trkpt>
<trkpt lat="-27.2744394" lon="151.2900645">
  <ele>343.1</ele>
  <time>2026-09-01T19:53:29Z</time>
  <course>322.48</course>
  <speed>0.0</speed>
  <fix>3d</fix>
</trkpt>
<trkpt lat="-27.2744394" lon="151.2900645">
  <ele>343.1</ele>
  <time>2026-09-01T19:53:29Z</time>
  <course>190.75</course>
  <speed>0.0</speed>
  <fix>3d</fix>
</trkpt>
<trkpt lat="-27.2744394" lon="151.2900645">
  <ele>343.1</ele>
  <time>2026-09-01T19:53:29Z</time>
  <course>322.48</course>
  <speed>0.0</speed>
  <fix>3d</fix>
</trkpt>
<trkpt lat="-27.2744394" lon="151.2900645">
  <ele>343.1</ele>
  <time>2026-09-01T19:53:29Z</time>
  <course>190.75</course>
  <speed>0.0</speed>
  <fix>3d</fix>
</trkpt>
<trkpt lat="-27.2744394" lon="151.2900645">
  <ele>343.1</ele>
  <time>2026-09-01T19:53:29Z</time>
  <course>322.48</course>
  <speed>0.0</speed>
  <fix>3d</fix>
</trkpt>
<trkpt lat="-27.2744394" lon="151.2900645">
  <ele>343.1</ele>
  <time>2026-09-01T19:53:29Z</time>
  <course>190.75</course>
  <speed>0.0</speed>
  <fix>3d</fix>
</trkpt>
<trkpt lat="-27.2744394" lon="151.2900645">
  <ele>343.1</ele>
  <time>2026-09-01T19:53:29Z</time>
  <course>142.36</course>
  <speed>0.0</speed>
  <fix>3d</fix>
</trkpt>
<trkpt lat="-27.2744394" lon="151.2900645">
  <ele>343.1</ele>
  <time>2026-09-01T19:53:29Z</time>
  <course>190.75</course>
  <speed>0.0</speed>
  <fix>3d</fix>
</trkpt>
<trkpt lat="-27.2744394" lon="151.2900645">
  <ele>343.1</ele>
  <time>2026-09-01T19:53:29Z</time>
  <course>142.36</course>
  <speed>0.0</speed>
  <fix>3d</fix>
</trkpt>
<trkpt lat="-27.2744394" lon="151.2900645">
  <ele>343.1</ele>
  <time>2026-09-01T19:53:29Z</time>
  <course>190.75</course>
  <speed>0.0</speed>
  <fix>3d</fix>
</trkpt>
<trkpt lat="-27.2744394" lon="151.2900645">
  <ele>343.1</ele>
  <time>2026-09-01T19:53:29Z</time>
  <course>321.39</course>
  <speed>0.0</speed>
  <fix>3d</fix>
</trkpt>
<trkpt lat="-27.2744394" lon="151.2900645">
  <ele>343.1</ele>
  <time>2026-09-01T19:53:29Z</time>
  <course>190.75</course>
  <speed>0.0</speed>
  <fix>3d</fix>
</trkpt>
<trkpt lat="-27.2744394" lon="151.2900645">
  <ele>343.1</ele>
  <time>2026-09-01T19:53:29Z</time>
  <course>321.39</course>
  <speed>0.0</speed>
  <fix>3d</fix>
</trkpt>
<trkpt lat="-27.2744394" lon="151.2900645">
  <ele>343.1</ele>
  <time>2026-09-01T19:53:29Z</time>
  <course>190.75</course>
  <speed>0.0</speed>
  <fix>3d</fix>
</trkpt>
<trkpt lat="-27.2744394" lon="151.2900645">
  <ele>343.1</ele>
  <time>2026-09-01T19:53:29Z</time>
  <course>322.37</course>
  <speed>0.0</speed>
  <fix>3d</fix>
</trkpt>
<trkpt lat="-27.2744394" lon="151.2900645">
  <ele>343.1</ele>
  <time>2026-09-01T19:53:29Z</time>
  <course>190.75</course>
  <speed>0.0</speed>
  <fix>3d</fix>
</trkpt>
<trkpt lat="-27.2744394" lon="151.2900645">
  <ele>343.1</ele>
  <time>2026-09-01T19:53:29Z</time>
  <course>322.37</course>
  <speed>0.0</speed>
  <fix>3d</fix>
</trkpt>
<trkpt lat="-27.2744394" lon="151.2900645">
  <ele>343.1</ele>
  <time>2026-09-01T19:53:29Z</time>
  <course>190.75</course>
  <speed>0.0</speed>
  <fix>3d</fix>
</trkpt>
<trkpt lat="-27.2744394" lon="151.2900645">
  <ele>343.1</ele>
  <time>2026-09-01T19:53:29Z</time>
  <course>142.27</course>
  <speed>0.0</speed>
  <fix>3d</fix>
</trkpt>
<trkpt lat="-27.2744394" lon="151.2900645">
  <ele>343.1</ele>
  <time>2026-09-01T19:53:29Z</time>
  <course>190.75</course>
  <speed>0.0</speed>
  <fix>3d</fix>
</trkpt>
<trkpt lat="-27.2744394" lon="151.2900645">
  <ele>343.1</ele>
  <time>2026-09-01T19:53:29Z</time>
  <course>142.27</course>
  <speed>0.0</speed>
  <fix>3d</fix>
</trkpt>
<trkpt lat="-27.2744394" lon="151.2900645">
  <ele>343.1</ele>
  <time>2026-09-01T19:53:29Z</time>
  <course>190.75</course>
  <speed>0.0</speed>
  <fix>3d</fix>
</trkpt>
<trkpt lat="-27.2744394" lon="151.2900645">
  <ele>343.1</ele>
  <time>2026-09-01T19:53:29Z</time>
  <course>142.39</course>
  <speed>0.0</speed>
  <fix>3d</fix>
</trkpt>
<trkpt lat="-27.2744394" lon="151.2900645">
  <ele>343.1</ele>
  <time>2026-09-01T19:53:29Z</time>
  <course>190.75</course>
  <speed>0.0</speed>
  <fix>3d</fix>
</trkpt>
<trkpt lat="-27.2744394" lon="151.2900645">
  <ele>343.1</ele>
  <time>2026-09-01T19:53:29Z</time>
  <course>322.56</course>
  <speed>0.0</speed>
  <fix>3d</fix>
</trkpt>
<trkpt lat="-27.2744394" lon="151.2900645">
  <ele>343.1</ele>
  <time>2026-09-01T19:53:29Z</time>
  <course>190.75</course>
  <speed>0.0</speed>
  <fix>3d</fix>
</trkpt>
<trkpt lat="-27.2744394" lon="151.2900645">
  <ele>343.1</ele>
  <time>2026-09-01T19:53:29Z</time>
  <course>322.56</course>
  <speed>0.0</speed>
  <fix>3d</fix>
</trkpt>
<trkpt lat="-27.2744394" lon="151.2900645">
  <ele>343.1</ele>
  <time>2026-09-01T19:53:29Z</time>
  <course>190.75</course>
  <speed>0.0</speed>
  <fix>3d</fix>
</trkpt>
<trkpt lat="-27.2744394" lon="151.2900645">
  <ele>343.1</ele>
  <time>2026-09-01T19:53:29Z</time>
  <course>323.07</course>
  <speed>0.0</speed>
  <fix>3d</fix>
</trkpt>
<trkpt lat="-27.2744394" lon="151.2900645">
  <ele>343.1</ele>
  <time>2026-09-01T19:53:29Z</time>
  <course>190.75</course>
  <speed>0.0</speed>
  <fix>3d</fix>
</trkpt>
<trkpt lat="-27.2744394" lon="151.2900645">
  <ele>343.1</ele>
  <time>2026-09-01T19:53:29Z</time>
  <course>323.07</course>
  <speed>0.0</speed>
  <fix>3d</fix>
</trkpt>
<trkpt lat="-27.2744396" lon="151.2900639">
  <ele>343.1</ele>
  <time>2026-09-01T19:53:29Z</time>
  <course>8.0</course>
  <speed>0.0</speed>
  <fix>3d</fix>
</trkpt>
<trkpt lat="-27.2744395" lon="151.290064">
  <ele>343.1</ele>
  <time>2026-09-01T19:53:29Z</time>
  <course>8.0</course>
  <speed>0.1711724276862369</speed>
  <fix>3d</fix>
</trkpt>
<trkpt lat="-27.2744393" lon="151.290064">
  <ele>343.1</ele>
  <time>2026-09-01T19:53:29Z</time>
  <course>8.0</course>
  <speed>0.27166155414412246</speed>
  <fix>3d</fix>
</trkpt>
<trkpt lat="-27.2744391" lon="151.290064">
  <ele>343.1</ele>
  <time>2026-09-01T19:53:29Z</time>
  <course>8.0</course>
  <speed>0.18110770276274835</speed>
  <fix>3d</fix>
</trkpt>
<trkpt lat="-27.274439" lon="151.290064">
  <ele>343.1</ele>
  <time>2026-09-01T19:53:29Z</time>
  <course>8.0</course>
  <speed>0.05</speed>
  <fix>3d</fix>
</trkpt>
<trkpt lat="-27.274439" lon="151.290064">
  <ele>343.1</ele>
  <time>2026-09-01T19:53:29Z</time>
  <course>8.0</course>
  <speed>0.02</speed>
  <fix>3d</fix>
</trkpt>
<trkpt lat="-27.274439" lon="151.290064">
  <ele>343.1</ele>
  <time>2026-09-01T19:53:29Z</time>
  <course>8.0</course>
  <speed>0.03</speed>
  <fix>3d</fix>
</trkpt>
<trkpt lat="-27.274439" lon="151.290064">
  <ele>343.1</ele>
  <time>2026-09-01T19:53:29Z</time>
  <course>8.0</course>
  <speed>0.02</speed>
  <fix>3d</fix>
</trkpt>
<trkpt lat="-27.274439" lon="151.290064">
  <ele>343.1</ele>
  <time>2026-09-01T19:53:29Z</time>
  <course>8.0</course>
  <speed>0.0</speed>
  <fix>3d</fix>
</trkpt>
<trkpt lat="-27.274439" lon="151.290064">
  <ele>343.1</ele>
  <time>2026-09-01T19:53:29Z</time>
  <course>8.0</course>
  <speed>0.0</speed>
  <fix>3d</fix>
</trkpt>
<trkpt lat="-27.274439" lon="151.290064">
  <ele>343.1</ele>
  <time>2026-09-01T19:53:29Z</time>
  <course>8.0</course>
  <speed>0.0</speed>
  <fix>3d</fix>
</trkpt>
<trkpt lat="-27.274439" lon="151.290064">
  <ele>343.1</ele>
  <time>2026-09-01T19:53:29Z</time>
  <course>8.0</course>
  <speed>0.0</speed>
  <fix>3d</fix>
</trkpt>
<trkpt lat="-27.274439" lon="151.290064">
  <ele>343.1</ele>
  <time>2026-09-01T19:53:29Z</time>
  <course>8.0</course>
  <speed>0.0</speed>
  <fix>3d</fix>
</trkpt>
<trkpt lat="-27.274439" lon="151.290064">
  <ele>343.1</ele>
  <time>2026-09-01T19:53:29Z</time>
  <course>8.0</course>
  <speed>0.0</speed>
  <fix>3d</fix>
</trkpt>
<trkpt lat="-27.274439" lon="151.290064">
  <ele>343.1</ele>
  <time>2026-09-01T19:53:29Z</time>
  <course>8.0</course>
  <speed>0.0</speed>
  <fix>3d</fix>
</trkpt>
<trkpt lat="-27.274439" lon="151.290064">
  <ele>343.1</ele>
  <time>2026-09-01T19:53:29Z</time>
  <course>8.0</course>
  <speed>0.0</speed>
  <fix>3d</fix>
</trkpt>
<trkpt lat="-27.274439" lon="151.290064">
  <ele>343.1</ele>
  <time>2026-09-01T19:53:29Z</time>
  <course>8.0</course>
  <speed>0.0</speed>
  <fix>3d</fix>
</trkpt>
<trkpt lat="-27.274439" lon="151.290064">
  <ele>343.1</ele>
  <time>2026-09-01T19:53:29Z</time>
  <course>8.0</course>
  <speed>0.0</speed>
  <fix>3d</fix>
</trkpt>
<trkpt lat="-27.274439" lon="151.290064">
  <ele>343.1</ele>
  <time>2026-09-01T19:53:29Z</time>
  <course>8.0</course>
  <speed>0.0</speed>
  <fix>3d</fix>
</trkpt>
<trkpt lat="-27.274439" lon="151.290064">
  <ele>343.1</ele>
  <time>2026-09-01T19:53:29Z</time>
  <course>8.0</course>
  <speed>0.0</speed>
  <fix>3d</fix>
</trkpt>
<trkpt lat="-27.274439" lon="151.290064">
  <ele>343.1</ele>
  <time>2026-09-01T19:53:29Z</time>
  <course>8.0</course>
  <speed>0.0</speed>
  <fix>3d</fix>
</trkpt>
<trkpt lat="-27.274439" lon="151.290064">
  <ele>343.1</ele>
  <time>2026-09-01T19:53:29Z</time>
  <course>8.0</course>
  <speed>0.0</speed>
  <fix>3d</fix>
</trkpt>
<trkpt lat="-27.274439" lon="151.290064">
  <ele>343.1</ele>
  <time>2026-09-01T19:53:29Z</time>
  <course>8.0</course>
  <speed>0.0</speed>
  <fix>3d</fix>
</trkpt>
<trkpt lat="-27.274439" lon="151.290064">
  <ele>343.1</ele>
  <time>2026-09-01T19:53:29Z</time>
  <course>8.0</course>
  <speed>0.0</speed>
  <fix>3d</fix>
</trkpt>
<trkpt lat="-27.274439" lon="151.290064">
  <ele>343.1</ele>
  <time>2026-09-01T19:53:29Z</time>
  <course>8.0</course>
  <speed>0.0</speed>
  <fix>3d</fix>
</trkpt>
<trkpt lat="-27.274439" lon="151.290064">
  <ele>343.1</ele>
  <time>2026-09-01T19:53:29Z</time>
  <course>8.0</course>
  <speed>0.0</speed>
  <fix>3d</fix>
</trkpt>
<trkpt lat="-27.274439" lon="151.290064">
  <ele>343.1</ele>
  <time>2026-09-01T19:53:29Z</time>
  <course>8.0</course>
  <speed>0.0</speed>
  <fix>3d</fix>
</trkpt>
<trkpt lat="-27.274439" lon="151.290064">
  <ele>343.1</ele>
  <time>2026-09-01T19:53:29Z</time>
  <course>8.0</course>
  <speed>0.0</speed>
  <fix>3d</fix>
</trkpt>
<trkpt lat="-27.274439" lon="151.290064">
  <ele>343.1</ele>
  <time>2026-09-01T19:53:29Z</time>
  <course>8.0</course>
  <speed>0.0</speed>
  <fix>3d</fix>
</trkpt>
<trkpt lat="-27.274439" lon="151.290064">
  <ele>343.1</ele>
  <time>2026-09-01T19:53:29Z</time>
  <course>8.0</course>
  <speed>0.0</speed>
  <fix>3d</fix>
</trkpt>
<trkpt lat="-27.274439" lon="151.290064">
  <ele>343.1</ele>
  <time>2026-09-01T19:53:29Z</time>
  <course>8.0</course>
  <speed>0.0</speed>
  <fix>3d</fix>
</trkpt>
<trkpt lat="-27.274439" lon="151.290064">
  <ele>343.1</ele>
  <time>2026-09-01T19:53:29Z</time>
  <course>8.0</course>
  <speed>0.0</speed>
  <fix>3d</fix>
</trkpt>
<trkpt lat="-27.274439" lon="151.290064">
  <ele>343.1</ele>
  <time>2026-09-01T19:53:29Z</time>
  <course>8.0</course>
  <speed>0.0</speed>
  <fix>3d</fix>
</trkpt>
<trkpt lat="-27.274439" lon="151.290064">
  <ele>343.1</ele>
  <time>2026-09-01T19:53:29Z</time>
  <course>8.0</course>
  <speed>0.0</speed>
  <fix>3d</fix>
</trkpt>
<trkpt lat="-27.274439" lon="151.290064">
  <ele>343.1</ele>
  <time>2026-09-01T19:53:29Z</time>
  <course>8.0</course>
  <speed>0.0</speed>
  <fix>3d</fix>
</trkpt>
<trkpt lat="-27.274439" lon="151.290064">
  <ele>343.1</ele>
  <time>2026-09-01T19:53:29Z</time>
  <course>8.0</course>
  <speed>0.0</speed>
  <fix>3d</fix>
</trkpt>
<trkpt lat="-27.274439" lon="151.290064">
  <ele>343.1</ele>
  <time>2026-09-01T19:53:29Z</time>
  <course>8.0</course>
  <speed>0.0</speed>
  <fix>3d</fix>
</trkpt>
<trkpt lat="-27.274439" lon="151.290064">
  <ele>343.1</ele>
  <time>2026-09-01T19:53:29Z</time>
  <course>8.0</course>
  <speed>0.0</speed>
  <fix>3d</fix>
</trkpt>
<trkpt lat="-27.274439" lon="151.290064">
  <ele>343.1</ele>
  <time>2026-09-01T19:53:29Z</time>
  <course>8.0</course>
  <speed>0.0</speed>
  <fix>3d</fix>
</trkpt>
<trkpt lat="-27.274439" lon="151.290064">
  <ele>343.1</ele>
  <time>2026-09-01T19:53:29Z</time>
  <course>8.0</course>
  <speed>0.0</speed>
  <fix>3d</fix>
</trkpt>
<trkpt lat="-27.274439" lon="151.290064">
  <ele>343.1</ele>
  <time>2026-09-01T19:53:29Z</time>
  <course>8.0</course>
  <speed>0.0</speed>
  <fix>3d</fix>
</trkpt>
<trkpt lat="-27.274439" lon="151.290064">
  <ele>343.1</ele>
  <time>2026-09-01T19:53:29Z</time>
  <course>8.0</course>
  <speed>0.0</speed>
  <fix>3d</fix>
</trkpt>
<trkpt lat="-27.274439" lon="151.290064">
  <ele>343.1</ele>
  <time>2026-09-01T19:53:29Z</time>
  <course>8.0</course>
  <speed>0.0</speed>
  <fix>3d</fix>
</trkpt>
<trkpt lat="-27.274439" lon="151.290064">
  <ele>343.1</ele>
  <time>2026-09-01T19:53:29Z</time>
  <course>8.0</course>
  <speed>0.0</speed>
  <fix>3d</fix>
</trkpt>
<trkpt lat="-27.274439" lon="151.290064">
  <ele>343.1</ele>
  <time>2026-09-01T19:53:29Z</time>
  <course>8.0</course>
  <speed>0.0</speed>
  <fix>3d</fix>
</trkpt>
<trkpt lat="-27.274439" lon="151.290064">
  <ele>343.1</ele>
  <time>2026-09-01T19:53:29Z</time>
  <course>8.0</course>
  <speed>0.0</speed>
  <fix>3d</fix>
</trkpt>
<trkpt lat="-27.274439" lon="151.290064">
  <ele>343.1</ele>
  <time>2026-09-01T19:53:29Z</time>
  <course>8.0</course>
  <speed>0.0</speed>
  <fix>3d</fix>
</trkpt>
<trkpt lat="-27.274439" lon="151.290064">
  <ele>343.1</ele>
  <time>2026-09-01T19:53:29Z</time>
  <course>8.0</course>
  <speed>0.0</speed>
  <fix>3d</fix>
</trkpt>
<trkpt lat="-27.274439" lon="151.290064">
  <ele>343.1</ele>
  <time>2026-09-01T19:53:29Z</time>
  <course>8.0</course>
  <speed>0.0</speed>
  <fix>3d</fix>
</trkpt>
<trkpt lat="-27.274439" lon="151.290064">
  <ele>343.1</ele>
  <time>2026-09-01T19:53:29Z</time>
  <course>8.0</course>
  <speed>0.0</speed>
  <fix>3d</fix>
</trkpt>
<trkpt lat="-27.274439" lon="151.290064">
  <ele>343.1</ele>
  <time>2026-09-01T19:53:29Z</time>
  <course>8.0</course>
  <speed>0.0</speed>
  <fix>3d</fix>
</trkpt>
<trkpt lat="-27.274439" lon="151.290064">
  <ele>343.1</ele>
  <time>2026-09-01T19:53:29Z</time>
  <course>8.0</course>
  <speed>0.0</speed>
  <fix>3d</fix>
</trkpt>
<trkpt lat="-27.274439" lon="151.290064">
  <ele>343.1</ele>
  <time>2026-09-01T19:53:29Z</time>
  <course>8.0</course>
  <speed>0.0</speed>
  <fix>3d</fix>
</trkpt>
<trkpt lat="-27.274439" lon="151.290064">
  <ele>343.1</ele>
  <time>2026-09-01T19:53:29Z</time>
  <course>8.0</course>
  <speed>0.0</speed>
  <fix>3d</fix>
</trkpt>
<trkpt lat="-27.274439" lon="151.290064">
  <ele>343.1</ele>
  <time>2026-09-01T19:53:30Z</time>
  <course>8.0</course>
  <speed>0.0</speed>
  <fix>3d</fix>
</trkpt>
<trkpt lat="-27.274439" lon="151.290064">
  <ele>343.1</ele>
  <time>2026-09-01T19:53:30Z</time>
  <course>8.0</course>
  <speed>0.0</speed>
  <fix>3d</fix>
</trkpt>
<trkpt lat="-27.274439" lon="151.290064">
  <ele>343.1</ele>
  <time>2026-09-01T19:53:30Z</time>
  <course>8.0</course>
  <speed>0.0</speed>
  <fix>3d</fix>
</trkpt>
<trkpt lat="-27.274439" lon="151.290064">
  <ele>343.1</ele>
  <time>2026-09-01T19:53:30Z</time>
  <course>8.0</course>
  <speed>0.0</speed>
  <fix>3d</fix>
</trkpt>
<trkpt lat="-27.274439" lon="151.290064">
  <ele>343.1</ele>
  <time>2026-09-01T19:53:30Z</time>
  <course>8.0</course>
  <speed>0.0</speed>
  <fix>3d</fix>
</trkpt>
<trkpt lat="-27.274439" lon="151.290064">
  <ele>343.1</ele>
  <time>2026-09-01T19:53:30Z</time>
  <course>8.0</course>
  <speed>0.0</speed>
  <fix>3d</fix>
</trkpt>
<trkpt lat="-27.274439" lon="151.290064">
  <ele>343.1</ele>
  <time>2026-09-01T19:53:30Z</time>
  <course>8.0</course>
  <speed>0.0</speed>
  <fix>3d</fix>
</trkpt>
<trkpt lat="-27.274439" lon="151.290064">
  <ele>343.1</ele>
  <time>2026-09-01T19:53:30Z</time>
  <course>8.0</course>
  <speed>0.0</speed>
  <fix>3d</fix>
</trkpt>
<trkpt lat="-27.274439" lon="151.290064">
  <ele>343.1</ele>
  <time>2026-09-01T19:53:30Z</time>
  <course>8.0</course>
  <speed>0.0</speed>
  <fix>3d</fix>
</trkpt>
<trkpt lat="-27.274439" lon="151.290064">
  <ele>343.1</ele>
  <time>2026-09-01T19:53:30Z</time>
  <course>8.0</course>
  <speed>0.0</speed>
  <fix>3d</fix>
</trkpt>
<trkpt lat="-27.274439" lon="151.290064">
  <ele>343.1</ele>
  <time>2026-09-01T19:53:30Z</time>
  <course>8.0</course>
  <speed>0.0</speed>
  <fix>3d</fix>
</trkpt>
<trkpt lat="-27.274439" lon="151.290064">
  <ele>343.1</ele>
  <time>2026-09-01T19:53:30Z</time>
  <course>8.0</course>
  <speed>0.0</speed>
  <fix>3d</fix>
</trkpt>
<trkpt lat="-27.274439" lon="151.290064">
  <ele>343.1</ele>
  <time>2026-09-01T19:53:30Z</time>
  <course>8.0</course>
  <speed>0.0</speed>
  <fix>3d</fix>
</trkpt>
<trkpt lat="-27.274439" lon="151.290064">
  <ele>343.1</ele>
  <time>2026-09-01T19:53:30Z</time>
  <course>8.0</course>
  <speed>0.0</speed>
  <fix>3d</fix>
</trkpt>
<trkpt lat="-27.274439" lon="151.290064">
  <ele>343.1</ele>
  <time>2026-09-01T19:53:30Z</time>
  <course>8.0</course>
  <speed>0.0</speed>
  <fix>3d</fix>
</trkpt>
<trkpt lat="-27.274439" lon="151.290064">
  <ele>343.1</ele>
  <time>2026-09-01T19:53:30Z</time>
  <course>8.0</course>
  <speed>0.0</speed>
  <fix>3d</fix>
</trkpt>
<trkpt lat="-27.274439" lon="151.290064">
  <ele>343.1</ele>
  <time>2026-09-01T19:53:30Z</time>
  <course>8.0</course>
  <speed>0.0</speed>
  <fix>3d</fix>
</trkpt>
<trkpt lat="-27.274439" lon="151.290064">
  <ele>343.1</ele>
  <time>2026-09-01T19:53:30Z</time>
  <course>8.0</course>
  <speed>0.0</speed>
  <fix>3d</fix>
</trkpt>
<trkpt lat="-27.274439" lon="151.290064">
  <ele>343.1</ele>
  <time>2026-09-01T19:53:30Z</time>
  <course>8.0</course>
  <speed>0.0</speed>
  <fix>3d</fix>
</trkpt>
<trkpt lat="-27.274439" lon="151.290064">
  <ele>343.1</ele>
  <time>2026-09-01T19:53:30Z</time>
  <course>8.0</course>
  <speed>0.0</speed>
  <fix>3d</fix>
</trkpt>
<trkpt lat="-27.274439" lon="151.290064">
  <ele>343.1</ele>
  <time>2026-09-01T19:53:30Z</time>
  <course>8.0</course>
  <speed>0.0</speed>
  <fix>3d</fix>
</trkpt>
<trkpt lat="-26.9720619" lon="149.6127921">
  <ele>339.29</ele>
  <time>2026-09-01T19:53:30Z</time>
  <course>289.62</course>
  <speed>0.0</speed>
  <fix>3d</fix>
</trkpt>
<trkpt lat="-27.274439" lon="151.290064">
  <ele>343.1</ele>
  <time>2026-09-01T19:53:30Z</time>
  <course>8.0</course>
  <speed>0.0</speed>
  <fix>3d</fix>
</trkpt>
<trkpt lat="-26.9720619" lon="149.6127921">
  <ele>339.29</ele>
  <time>2026-09-01T19:53:30Z</time>
  <course>289.62</course>
  <speed>0.0</speed>
  <fix>3d</fix>
</trkpt>
<trkpt lat="-27.274439" lon="151.290064">
  <ele>343.1</ele>
  <time>2026-09-01T19:53:30Z</time>
  <course>8.0</course>
  <speed>0.0</speed>
  <fix>3d</fix>
</trkpt>
<trkpt lat="-27.274439" lon="151.290064">
  <ele>343.1</ele>
  <time>2026-09-01T19:53:30Z</time>
  <course>281.16</course>
  <speed>0.0</speed>
  <fix>3d</fix>
</trkpt>
<trkpt lat="-27.274439" lon="151.290064">
  <ele>343.1</ele>
  <time>2026-09-01T19:53:30Z</time>
  <course>8.0</course>
  <speed>0.0</speed>
  <fix>3d</fix>
</trkpt>
<trkpt lat="-27.274439" lon="151.290064">
  <ele>343.1</ele>
  <time>2026-09-01T19:53:30Z</time>
  <course>281.16</course>
  <speed>0.0</speed>
  <fix>3d</fix>
</trkpt>
<trkpt lat="-27.274439" lon="151.290064">
  <ele>343.1</ele>
  <time>2026-09-01T19:53:30Z</time>
  <course>8.0</course>
  <speed>0.0</speed>
  <fix>3d</fix>
</trkpt>
<trkpt lat="-27.274439" lon="151.290064">
  <ele>343.1</ele>
  <time>2026-09-01T19:53:30Z</time>
  <course>271.47</course>
  <speed>0.0</speed>
  <fix>3d</fix>
</trkpt>
<trkpt lat="-27.274439" lon="151.290064">
  <ele>343.1</ele>
  <time>2026-09-01T19:53:30Z</time>
  <course>8.0</course>
  <speed>0.0</speed>
  <fix>3d</fix>
</trkpt>
<trkpt lat="-27.274439" lon="151.290064">
  <ele>343.1</ele>
  <time>2026-09-01T19:53:30Z</time>
  <course>271.47</course>
  <speed>0.0</speed>
  <fix>3d</fix>
</trkpt>
<trkpt lat="-27.274439" lon="151.290064">
  <ele>343.1</ele>
  <time>2026-09-01T19:53:30Z</time>
  <course>8.0</course>
  <speed>0.0</speed>
  <fix>3d</fix>
</trkpt>
<trkpt lat="-27.274439" lon="151.290064">
  <ele>343.1</ele>
  <time>2026-09-01T19:53:30Z</time>
  <course>270.19</course>
  <speed>0.0</speed>
  <fix>3d</fix>
</trkpt>
<trkpt lat="-27.274439" lon="151.290064">
  <ele>343.1</ele>
  <time>2026-09-01T19:53:30Z</time>
  <course>8.0</course>
  <speed>0.0</speed>
  <fix>3d</fix>
</trkpt>
<trkpt lat="-27.274439" lon="151.290064">
  <ele>343.1</ele>
  <time>2026-09-01T19:53:30Z</time>
  <course>270.19</course>
  <speed>0.0</speed>
  <fix>3d</fix>
</trkpt>
<trkpt lat="-27.274439" lon="151.290064">
  <ele>343.1</ele>
  <time>2026-09-01T19:53:30Z</time>
  <course>8.0</course>
  <speed>0.0</speed>
  <fix>3d</fix>
</trkpt>
<trkpt lat="-27.274439" lon="151.290064">
  <ele>343.1</ele>
  <time>2026-09-01T19:53:30Z</time>
  <course>270.02</course>
  <speed>0.0</speed>
  <fix>3d</fix>
</trkpt>
<trkpt lat="-27.274439" lon="151.290064">
  <ele>343.1</ele>
  <time>2026-09-01T19:53:30Z</time>
  <course>8.0</course>
  <speed>0.0</speed>
  <fix>3d</fix>
</trkpt>
<trkpt lat="-27.274439" lon="151.290064">
  <ele>343.1</ele>
  <time>2026-09-01T19:53:30Z</time>
  <course>270.02</course>
  <speed>0.0</speed>
  <fix>3d</fix>
</trkpt>
<trkpt lat="-27.274439" lon="151.290064">
  <ele>343.1</ele>
  <time>2026-09-01T19:53:30Z</time>
  <course>8.0</course>
  <speed>0.0</speed>
  <fix>3d</fix>
</trkpt>
<trkpt lat="-27.274439" lon="151.290064">
  <ele>343.1</ele>
  <time>2026-09-01T19:53:30Z</time>
  <course>270.0</course>
  <speed>0.0</speed>
  <fix>3d</fix>
</trkpt>
<trkpt lat="-27.274439" lon="151.290064">
  <ele>343.1</ele>
  <time>2026-09-01T19:53:30Z</time>
  <course>8.0</course>
  <speed>0.0</speed>
  <fix>3d</fix>
</trkpt>
<trkpt lat="-27.274439" lon="151.290064">
  <ele>343.1</ele>
  <time>2026-09-01T19:53:30Z</time>
  <course>270.0</course>
  <speed>0.0</speed>
  <fix>3d</fix>
</trkpt>
<trkpt lat="-27.274439" lon="151.290064">
  <ele>343.1</ele>
  <time>2026-09-01T19:53:30Z</time>
  <course>8.0</course>
  <speed>0.0</speed>
  <fix>3d</fix>
</trkpt>
<trkpt lat="-27.274439" lon="151.290064">
  <ele>343.1</ele>
  <time>2026-09-01T19:53:30Z</time>
  <course>270.0</course>
  <speed>0.0</speed>
  <fix>3d</fix>
</trkpt>
<trkpt lat="-27.274439" lon="151.290064">
  <ele>343.1</ele>
  <time>2026-09-01T19:53:30Z</time>
  <course>8.0</course>
  <speed>0.0</speed>
  <fix>3d</fix>
</trkpt>
<trkpt lat="-27.274439" lon="151.290064">
  <ele>343.1</ele>
  <time>2026-09-01T19:53:30Z</time>
  <course>270.0</course>
  <speed>0.0</speed>
  <fix>3d</fix>
</trkpt>
<trkpt lat="-27.274439" lon="151.290064">
  <ele>343.1</ele>
  <time>2026-09-01T19:53:30Z</time>
  <course>8.0</course>
  <speed>0.0</speed>
  <fix>3d</fix>
</trkpt>
<trkpt lat="-27.274439" lon="151.290064">
  <ele>343.1</ele>
  <time>2026-09-01T19:53:30Z</time>
  <course>270.0</course>
  <speed>0.0</speed>
  <fix>3d</fix>
</trkpt>
<trkpt lat="-27.274439" lon="151.290064">
  <ele>343.1</ele>
  <time>2026-09-01T19:53:30Z</time>
  <course>8.0</course>
  <speed>0.0</speed>
  <fix>3d</fix>
</trkpt>
<trkpt lat="-27.274439" lon="151.290064">
  <ele>343.1</ele>
  <time>2026-09-01T19:53:30Z</time>
  <course>270.0</course>
  <speed>0.0</speed>
  <fix>3d</fix>
</trkpt>
<trkpt lat="-27.274439" lon="151.290064">
  <ele>343.1</ele>
  <time>2026-09-01T19:53:30Z</time>
  <course>8.0</course>
  <speed>0.0</speed>
  <fix>3d</fix>
</trkpt>
<trkpt lat="-27.274439" lon="151.290064">
  <ele>343.1</ele>
  <time>2026-09-01T19:53:30Z</time>
  <course>270.0</course>
  <speed>0.0</speed>
  <fix>3d</fix>
</trkpt>
<trkpt lat="-27.274439" lon="151.290064">
  <ele>343.1</ele>
  <time>2026-09-01T19:53:30Z</time>
  <course>8.0</course>
  <speed>0.0</speed>
  <fix>3d</fix>
</trkpt>
<trkpt lat="-27.274439" lon="151.290064">
  <ele>343.1</ele>
  <time>2026-09-01T19:53:30Z</time>
  <course>270.0</course>
  <speed>0.0</speed>
  <fix>3d</fix>
</trkpt>
<trkpt lat="-27.274439" lon="151.290064">
  <ele>343.1</ele>
  <time>2026-09-01T19:53:30Z</time>
  <course>8.0</course>
  <speed>0.0</speed>
  <fix>3d</fix>
</trkpt>
<trkpt lat="-27.274439" lon="151.290064">
  <ele>343.1</ele>
  <time>2026-09-01T19:53:30Z</time>
  <course>270.0</course>
  <speed>0.0</speed>
  <fix>3d</fix>
</trkpt>
<trkpt lat="-27.274439" lon="151.290064">
  <ele>343.1</ele>
  <time>2026-09-01T19:53:30Z</time>
  <course>8.0</course>
  <speed>0.0</speed>
  <fix>3d</fix>
</trkpt>
<trkpt lat="-27.274439" lon="151.290064">
  <ele>343.1</ele>
  <time>2026-09-01T19:53:30Z</time>
  <course>270.0</course>
  <speed>0.0</speed>
  <fix>3d</fix>
</trkpt>
<trkpt lat="-27.274439" lon="151.290064">
  <ele>343.1</ele>
  <time>2026-09-01T19:53:30Z</time>
  <course>8.0</course>
  <speed>0.0</speed>
  <fix>3d</fix>
</trkpt>
<trkpt lat="-27.274439" lon="151.290064">
  <ele>343.1</ele>
  <time>2026-09-01T19:53:30Z</time>
  <course>270.0</course>
  <speed>0.0</speed>
  <fix>3d</fix>
</trkpt>
<trkpt lat="-27.274439" lon="151.290064">
  <ele>343.1</ele>
  <time>2026-09-01T19:53:30Z</time>
  <course>8.0</course>
  <speed>0.0</speed>
  <fix>3d</fix>
</trkpt>
<trkpt lat="-27.274439" lon="151.290064">
  <ele>343.1</ele>
  <time>2026-09-01T19:53:30Z</time>
  <course>270.0</course>
  <speed>0.0</speed>
  <fix>3d</fix>
</trkpt>
<trkpt lat="-27.274439" lon="151.290064">
  <ele>343.1</ele>
  <time>2026-09-01T19:53:30Z</time>
  <course>8.0</course>
  <speed>0.0</speed>
  <fix>3d</fix>
</trkpt>
<trkpt lat="-27.274439" lon="151.290064">
  <ele>343.1</ele>
  <time>2026-09-01T19:53:30Z</time>
  <course>270.0</course>
  <speed>0.0</speed>
  <fix>3d</fix>
</trkpt>
<trkpt lat="-27.274439" lon="151.290064">
  <ele>343.1</ele>
  <time>2026-09-01T19:53:30Z</time>
  <course>8.0</course>
  <speed>0.0</speed>
  <fix>3d</fix>
</trkpt>
<trkpt lat="-27.274439" lon="151.290064">
  <ele>343.1</ele>
  <time>2026-09-01T19:53:30Z</time>
  <course>270.0</course>
  <speed>0.0</speed>
  <fix>3d</fix>
</trkpt>
<trkpt lat="-27.274439" lon="151.290064">
  <ele>343.1</ele>
  <time>2026-09-01T19:53:30Z</time>
  <course>8.0</course>
  <speed>0.0</speed>
  <fix>3d</fix>
</trkpt>
<trkpt lat="-27.274439" lon="151.290064">
  <ele>343.1</ele>
  <time>2026-09-01T19:53:30Z</time>
  <course>270.0</course>
  <speed>0.0</speed>
  <fix>3d</fix>
</trkpt>
<trkpt lat="-27.274439" lon="151.290064">
  <ele>343.1</ele>
  <time>2026-09-01T19:53:30Z</time>
  <course>8.0</course>
  <speed>0.0</speed>
  <fix>3d</fix>
</trkpt>
<trkpt lat="-27.274439" lon="151.290064">
  <ele>343.1</ele>
  <time>2026-09-01T19:53:30Z</time>
  <course>270.0</course>
  <speed>0.0</speed>
  <fix>3d</fix>
</trkpt>
<trkpt lat="-27.274439" lon="151.290064">
  <ele>343.1</ele>
  <time>2026-09-01T19:53:30Z</time>
  <course>8.0</course>
  <speed>0.0</speed>
  <fix>3d</fix>
</trkpt>
<trkpt lat="-27.274439" lon="151.290064">
  <ele>343.1</ele>
  <time>2026-09-01T19:53:30Z</time>
  <course>270.0</course>
  <speed>0.0</speed>
  <fix>3d</fix>
</trkpt>
<trkpt lat="-27.274439" lon="151.290064">
  <ele>343.1</ele>
  <time>2026-09-01T19:53:30Z</time>
  <course>8.0</course>
  <speed>0.0</speed>
  <fix>3d</fix>
</trkpt>
<trkpt lat="-27.274439" lon="151.290064">
  <ele>343.1</ele>
  <time>2026-09-01T19:53:30Z</time>
  <course>270.0</course>
  <speed>0.0</speed>
  <fix>3d</fix>
</trkpt>
<trkpt lat="-27.274439" lon="151.290064">
  <ele>343.1</ele>
  <time>2026-09-01T19:53:30Z</time>
  <course>8.0</course>
  <speed>0.0</speed>
  <fix>3d</fix>
</trkpt>
<trkpt lat="-27.274439" lon="151.290064">
  <ele>343.1</ele>
  <time>2026-09-01T19:53:30Z</time>
  <course>270.0</course>
  <speed>0.0</speed>
  <fix>3d</fix>
</trkpt>
<trkpt lat="-27.274439" lon="151.290064">
  <ele>343.1</ele>
  <time>2026-09-01T19:53:30Z</time>
  <course>8.0</course>
  <speed>0.0</speed>
  <fix>3d</fix>
</trkpt>
<trkpt lat="-27.274439" lon="151.290064">
  <ele>343.1</ele>
  <time>2026-09-01T19:53:30Z</time>
  <course>270.0</course>
  <speed>0.0</speed>
  <fix>3d</fix>
</trkpt>
<trkpt lat="-27.274439" lon="151.290064">
  <ele>343.1</ele>
  <time>2026-09-01T19:53:30Z</time>
  <course>8.0</course>
  <speed>0.0</speed>
  <fix>3d</fix>
</trkpt>
<trkpt lat="-27.274439" lon="151.290064">
  <ele>343.1</ele>
  <time>2026-09-01T19:53:30Z</time>
  <course>270.0</course>
  <speed>0.0</speed>
  <fix>3d</fix>
</trkpt>
<trkpt lat="-27.274439" lon="151.290064">
  <ele>343.1</ele>
  <time>2026-09-01T19:53:30Z</time>
  <course>8.0</course>
  <speed>0.0</speed>
  <fix>3d</fix>
</trkpt>
<trkpt lat="-27.274439" lon="151.290064">
  <ele>343.1</ele>
  <time>2026-09-01T19:53:30Z</time>
  <course>270.0</course>
  <speed>0.0</speed>
  <fix>3d</fix>
</trkpt>
<trkpt lat="-27.274439" lon="151.290064">
  <ele>343.1</ele>
  <time>2026-09-01T19:53:30Z</time>
  <course>8.0</course>
  <speed>0.0</speed>
  <fix>3d</fix>
</trkpt>
<trkpt lat="-27.274439" lon="151.290064">
  <ele>343.1</ele>
  <time>2026-09-01T19:53:30Z</time>
  <course>270.0</course>
  <speed>0.0</speed>
  <fix>3d</fix>
</trkpt>
<trkpt lat="-27.274439" lon="151.290064">
  <ele>343.1</ele>
  <time>2026-09-01T19:53:30Z</time>
  <course>8.0</course>
  <speed>0.0</speed>
  <fix>3d</fix>
</trkpt>
<trkpt lat="-27.274439" lon="151.290064">
  <ele>343.1</ele>
  <time>2026-09-01T19:53:30Z</time>
  <course>270.0</course>
  <speed>0.0</speed>
  <fix>3d</fix>
</trkpt>
<trkpt lat="-27.274439" lon="151.290064">
  <ele>343.1</ele>
  <time>2026-09-01T19:53:30Z</time>
  <course>8.0</course>
  <speed>0.0</speed>
  <fix>3d</fix>
</trkpt>
<trkpt lat="-27.274439" lon="151.290064">
  <ele>343.1</ele>
  <time>2026-09-01T19:53:30Z</time>
  <course>270.0</course>
  <speed>0.0</speed>
  <fix>3d</fix>
</trkpt>
<trkpt lat="-27.274439" lon="151.290064">
  <ele>343.1</ele>
  <time>2026-09-01T19:53:30Z</time>
  <course>8.0</course>
  <speed>0.0</speed>
  <fix>3d</fix>
</trkpt>
<trkpt lat="-27.274439" lon="151.290064">
  <ele>343.1</ele>
  <time>2026-09-01T19:53:30Z</time>
  <course>270.0</course>
  <speed>0.0</speed>
  <fix>3d</fix>
</trkpt>
<trkpt lat="-27.274439" lon="151.290064">
  <ele>343.1</ele>
  <time>2026-09-01T19:53:30Z</time>
  <course>8.0</course>
  <speed>0.0</speed>
  <fix>3d</fix>
</trkpt>
<trkpt lat="-27.274439" lon="151.290064">
  <ele>343.1</ele>
  <time>2026-09-01T19:53:30Z</time>
  <course>270.0</course>
  <speed>0.0</speed>
  <fix>3d</fix>
</trkpt>
<trkpt lat="-27.274439" lon="151.290064">
  <ele>343.1</ele>
  <time>2026-09-01T19:53:30Z</time>
  <course>8.0</course>
  <speed>0.0</speed>
  <fix>3d</fix>
</trkpt>
<trkpt lat="-27.274439" lon="151.290064">
  <ele>343.1</ele>
  <time>2026-09-01T19:53:30Z</time>
  <course>270.0</course>
  <speed>0.0</speed>
  <fix>3d</fix>
</trkpt>
<trkpt lat="-27.274439" lon="151.290064">
  <ele>343.1</ele>
  <time>2026-09-01T19:53:30Z</time>
  <course>8.0</course>
  <speed>0.0</speed>
  <fix>3d</fix>
</trkpt>
<trkpt lat="-27.274439" lon="151.290064">
  <ele>343.1</ele>
  <time>2026-09-01T19:53:30Z</time>
  <course>270.0</course>
  <speed>0.0</speed>
  <fix>3d</fix>
</trkpt>
<trkpt lat="-27.274439" lon="151.290064">
  <ele>343.1</ele>
  <time>2026-09-01T19:53:30Z</time>
  <course>8.0</course>
  <speed>0.0</speed>
  <fix>3d</fix>
</trkpt>
<trkpt lat="-27.274439" lon="151.290064">
  <ele>343.1</ele>
  <time>2026-09-01T19:53:30Z</time>
  <course>270.0</course>
  <speed>0.0</speed>
  <fix>3d</fix>
</trkpt>
<trkpt lat="-27.274439" lon="151.290064">
  <ele>343.1</ele>
  <time>2026-09-01T19:53:30Z</time>
  <course>8.0</course>
  <speed>0.0</speed>
  <fix>3d</fix>
</trkpt>
<trkpt lat="-27.274439" lon="151.290064">
  <ele>343.1</ele>
  <time>2026-09-01T19:53:30Z</time>
  <course>270.0</course>
  <speed>0.0</speed>
  <fix>3d</fix>
</trkpt>
<trkpt lat="-27.274439" lon="151.290064">
  <ele>343.1</ele>
  <time>2026-09-01T19:53:30Z</time>
  <course>8.0</course>
  <speed>0.0</speed>
  <fix>3d</fix>
</trkpt>
<trkpt lat="-27.274439" lon="151.290064">
  <ele>343.1</ele>
  <time>2026-09-01T19:53:30Z</time>
  <course>270.0</course>
  <speed>0.0</speed>
  <fix>3d</fix>
</trkpt>
<trkpt lat="-27.274439" lon="151.290064">
  <ele>343.1</ele>
  <time>2026-09-01T19:53:30Z</time>
  <course>8.0</course>
  <speed>0.0</speed>
  <fix>3d</fix>
</trkpt>
<trkpt lat="-27.274439" lon="151.290064">
  <ele>343.1</ele>
  <time>2026-09-01T19:53:30Z</time>
  <course>270.0</course>
  <speed>0.0</speed>
  <fix>3d</fix>
</trkpt>
<trkpt lat="-27.274439" lon="151.290064">
  <ele>343.1</ele>
  <time>2026-09-01T19:53:30Z</time>
  <course>8.0</course>
  <speed>0.0</speed>
  <fix>3d</fix>
</trkpt>
<trkpt lat="-27.274439" lon="151.290064">
  <ele>343.1</ele>
  <time>2026-09-01T19:53:30Z</time>
  <course>270.0</course>
  <speed>0.0</speed>
  <fix>3d</fix>
</trkpt>
<trkpt lat="-27.274439" lon="151.290064">
  <ele>343.1</ele>
  <time>2026-09-01T19:53:30Z</time>
  <course>8.0</course>
  <speed>0.0</speed>
  <fix>3d</fix>
</trkpt>
<trkpt lat="-27.274439" lon="151.290064">
  <ele>343.1</ele>
  <time>2026-09-01T19:53:30Z</time>
  <course>270.0</course>
  <speed>0.0</speed>
  <fix>3d</fix>
</trkpt>
<trkpt lat="-27.274439" lon="151.290064">
  <ele>343.1</ele>
  <time>2026-09-01T19:53:30Z</time>
  <course>8.0</course>
  <speed>0.0</speed>
  <fix>3d</fix>
</trkpt>
<trkpt lat="-27.274439" lon="151.290064">
  <ele>343.1</ele>
  <time>2026-09-01T19:53:30Z</time>
  <course>270.0</course>
  <speed>0.0</speed>
  <fix>3d</fix>
</trkpt>
<trkpt lat="-27.274439" lon="151.290064">
  <ele>343.1</ele>
  <time>2026-09-01T19:53:30Z</time>
  <course>8.0</course>
  <speed>0.0</speed>
  <fix>3d</fix>
</trkpt>
<trkpt lat="-27.274439" lon="151.290064">
  <ele>343.1</ele>
  <time>2026-09-01T19:53:30Z</time>
  <course>270.0</course>
  <speed>0.0</speed>
  <fix>3d</fix>
</trkpt>
<trkpt lat="-27.274439" lon="151.290064">
  <ele>343.1</ele>
  <time>2026-09-01T19:53:30Z</time>
  <course>8.0</course>
  <speed>0.0</speed>
  <fix>3d</fix>
</trkpt>
<trkpt lat="-27.274439" lon="151.290064">
  <ele>343.1</ele>
  <time>2026-09-01T19:53:30Z</time>
  <course>270.0</course>
  <speed>0.0</speed>
  <fix>3d</fix>
</trkpt>
<trkpt lat="-27.274439" lon="151.290064">
  <ele>343.1</ele>
  <time>2026-09-01T19:53:30Z</time>
  <course>8.0</course>
  <speed>0.0</speed>
  <fix>3d</fix>
</trkpt>
<trkpt lat="-27.274439" lon="151.290064">
  <ele>343.1</ele>
  <time>2026-09-01T19:53:30Z</time>
  <course>270.0</course>
  <speed>0.0</speed>
  <fix>3d</fix>
</trkpt>
<trkpt lat="-27.274439" lon="151.290064">
  <ele>343.1</ele>
  <time>2026-09-01T19:53:30Z</time>
  <course>8.0</course>
  <speed>0.0</speed>
  <fix>3d</fix>
</trkpt>
<trkpt lat="-27.274439" lon="151.290064">
  <ele>343.1</ele>
  <time>2026-09-01T19:53:30Z</time>
  <course>270.0</course>
  <speed>0.0</speed>
  <fix>3d</fix>
</trkpt>
<trkpt lat="-27.274439" lon="151.290064">
  <ele>343.1</ele>
  <time>2026-09-01T19:53:30Z</time>
  <course>8.0</course>
  <speed>0.0</speed>
  <fix>3d</fix>
</trkpt>
<trkpt lat="-27.274439" lon="151.290064">
  <ele>343.1</ele>
  <time>2026-09-01T19:53:30Z</time>
  <course>270.0</course>
  <speed>0.0</speed>
  <fix>3d</fix>
</trkpt>
<trkpt lat="-27.274439" lon="151.290064">
  <ele>343.1</ele>
  <time>2026-09-01T19:53:30Z</time>
  <course>8.0</course>
  <speed>0.0</speed>
  <fix>3d</fix>
</trkpt>
<trkpt lat="-27.274439" lon="151.290064">
  <ele>343.1</ele>
  <time>2026-09-01T19:53:30Z</time>
  <course>140.9</course>
  <speed>0.0</speed>
  <fix>3d</fix>
</trkpt>
<trkpt lat="-27.274439" lon="151.290064">
  <ele>343.1</ele>
  <time>2026-09-01T19:53:30Z</time>
  <course>8.0</course>
  <speed>0.0</speed>
  <fix>3d</fix>
</trkpt>
<trkpt lat="-27.274439" lon="151.290064">
  <ele>343.1</ele>
  <time>2026-09-01T19:53:30Z</time>
  <course>140.9</course>
  <speed>0.0</speed>
  <fix>3d</fix>
</trkpt>
<trkpt lat="-27.274439" lon="151.290064">
  <ele>343.1</ele>
  <time>2026-09-01T19:53:30Z</time>
  <course>8.0</course>
  <speed>0.0</speed>
  <fix>3d</fix>
</trkpt>
<trkpt lat="-27.274439" lon="151.290064">
  <ele>343.1</ele>
  <time>2026-09-01T19:53:30Z</time>
  <course>322.13</course>
  <speed>0.0</speed>
  <fix>3d</fix>
</trkpt>
<trkpt lat="-27.274439" lon="151.290064">
  <ele>343.1</ele>
  <time>2026-09-01T19:53:30Z</time>
  <course>8.0</course>
  <speed>0.0</speed>
  <fix>3d</fix>
</trkpt>
<trkpt lat="-27.274439" lon="151.290064">
  <ele>343.1</ele>
  <time>2026-09-01T19:53:30Z</time>
  <course>8.0</course>
  <speed>0.0</speed>
  <fix>3d</fix>
</trkpt>
<trkpt lat="-27.274439" lon="151.290064">
  <ele>343.1</ele>
  <time>2026-09-01T19:53:30Z</time>
  <course>322.13</course>
  <speed>0.0</speed>
  <fix>3d</fix>
</trkpt>
<trkpt lat="-27.274439" lon="151.290064">
  <ele>343.1</ele>
  <time>2026-09-01T19:53:30Z</time>
  <course>8.0</course>
  <speed>0.0</speed>
  <fix>3d</fix>
</trkpt>
<trkpt lat="-27.274439" lon="151.290064">
  <ele>343.1</ele>
  <time>2026-09-01T19:53:30Z</time>
  <course>8.0</course>
  <speed>0.0</speed>
  <fix>3d</fix>
</trkpt>
<trkpt lat="-27.274439" lon="151.290064">
  <ele>343.1</ele>
  <time>2026-09-01T19:53:30Z</time>
  <course>321.91</course>
  <speed>0.0</speed>
  <fix>3d</fix>
</trkpt>
<trkpt lat="-27.274439" lon="151.290064">
  <ele>343.1</ele>
  <time>2026-09-01T19:53:30Z</time>
  <course>8.0</course>
  <speed>0.0</speed>
  <fix>3d</fix>
</trkpt>
<trkpt lat="-27.274439" lon="151.290064">
  <ele>343.1</ele>
  <time>2026-09-01T19:53:30Z</time>
  <course>8.0</course>
  <speed>0.0</speed>
  <fix>3d</fix>
</trkpt>
<trkpt lat="-27.274439" lon="151.290064">
  <ele>343.1</ele>
  <time>2026-09-01T19:53:30Z</time>
  <course>321.91</course>
  <speed>0.0</speed>
  <fix>3d</fix>
</trkpt>
<trkpt lat="-27.274439" lon="151.290064">
  <ele>343.1</ele>
  <time>2026-09-01T19:53:30Z</time>
  <course>8.0</course>
  <speed>0.0</speed>
  <fix>3d</fix>
</trkpt>
<trkpt lat="-27.274439" lon="151.290064">
  <ele>343.1</ele>
  <time>2026-09-01T19:53:30Z</time>
  <course>8.0</course>
  <speed>0.0</speed>
  <fix>3d</fix>
</trkpt>
<trkpt lat="-27.274439" lon="151.290064">
  <ele>343.1</ele>
  <time>2026-09-01T19:53:30Z</time>
  <course>308.01</course>
  <speed>0.0</speed>
  <fix>3d</fix>
</trkpt>
<trkpt lat="-27.274439" lon="151.290064">
  <ele>343.1</ele>
  <time>2026-09-01T19:53:30Z</time>
  <course>8.0</course>
  <speed>0.0</speed>
  <fix>3d</fix>
</trkpt>
<trkpt lat="-27.274439" lon="151.290064">
  <ele>343.1</ele>
  <time>2026-09-01T19:53:30Z</time>
  <course>8.0</course>
  <speed>0.0</speed>
  <fix>3d</fix>
</trkpt>
<trkpt lat="-27.274439" lon="151.290064">
  <ele>343.1</ele>
  <time>2026-09-01T19:53:30Z</time>
  <course>308.01</course>
  <speed>0.0</speed>
  <fix>3d</fix>
</trkpt>
<trkpt lat="-27.274439" lon="151.290064">
  <ele>343.1</ele>
  <time>2026-09-01T19:53:30Z</time>
  <course>8.0</course>
  <speed>0.0</speed>
  <fix>3d</fix>
</trkpt>
<trkpt lat="-27.274439" lon="151.290064">
  <ele>343.1</ele>
  <time>2026-09-01T19:53:30Z</time>
  <course>8.0</course>
  <speed>0.0</speed>
  <fix>3d</fix>
</trkpt>
<trkpt lat="-27.274439" lon="151.290064">
  <ele>343.1</ele>
  <time>2026-09-01T19:53:30Z</time>
  <course>143.28</course>
  <speed>0.0</speed>
  <fix>3d</fix>
</trkpt>
<trkpt lat="-27.274439" lon="151.290064">
  <ele>343.1</ele>
  <time>2026-09-01T19:53:30Z</time>
  <course>8.0</course>
  <speed>0.0</speed>
  <fix>3d</fix>
</trkpt>
<trkpt lat="-27.274439" lon="151.290064">
  <ele>343.1</ele>
  <time>2026-09-01T19:53:30Z</time>
  <course>8.0</course>
  <speed>0.0</speed>
  <fix>3d</fix>
</trkpt>
<trkpt lat="-27.274439" lon="151.290064">
  <ele>343.1</ele>
  <time>2026-09-01T19:53:30Z</time>
  <course>143.28</course>
  <speed>0.0</speed>
  <fix>3d</fix>
</trkpt>
<trkpt lat="-27.274439" lon="151.290064">
  <ele>343.1</ele>
  <time>2026-09-01T19:53:30Z</time>
  <course>8.0</course>
  <speed>0.0</speed>
  <fix>3d</fix>
</trkpt>
<trkpt lat="-27.274439" lon="151.290064">
  <ele>343.1</ele>
  <time>2026-09-01T19:53:30Z</time>
  <course>8.0</course>
  <speed>0.0</speed>
  <fix>3d</fix>
</trkpt>
<trkpt lat="-27.274439" lon="151.290064">
  <ele>343.1</ele>
  <time>2026-09-01T19:53:30Z</time>
  <course>50.78</course>
  <speed>0.0</speed>
  <fix>3d</fix>
</trkpt>
<trkpt lat="-27.274439" lon="151.290064">
  <ele>343.1</ele>
  <time>2026-09-01T19:53:30Z</time>
  <course>8.0</course>
  <speed>0.0</speed>
  <fix>3d</fix>
</trkpt>
<trkpt lat="-27.274439" lon="151.290064">
  <ele>343.1</ele>
  <time>2026-09-01T19:53:30Z</time>
  <course>8.0</course>
  <speed>0.0</speed>
  <fix>3d</fix>
</trkpt>
<trkpt lat="-27.274439" lon="151.290064">
  <ele>343.1</ele>
  <time>2026-09-01T19:53:30Z</time>
  <course>50.78</course>
  <speed>0.0</speed>
  <fix>3d</fix>
</trkpt>
<trkpt lat="-27.274439" lon="151.290064">
  <ele>343.11</ele>
  <time>2026-09-01T19:53:30Z</time>
  <course>8.0</course>
  <speed>0.0</speed>
  <fix>3d</fix>
</trkpt>
<trkpt lat="-27.274439" lon="151.290064">
  <ele>343.12</ele>
  <time>2026-09-01T19:53:30Z</time>
  <course>8.0</course>
  <speed>0.0</speed>
  <fix>3d</fix>
</trkpt>
<trkpt lat="-27.274439" lon="151.290064">
  <ele>343.11</ele>
  <time>2026-09-01T19:53:30Z</time>
  <course>9.01</course>
  <speed>0.0</speed>
  <fix>3d</fix>
</trkpt>
<trkpt lat="-27.274439" lon="151.290064">
  <ele>343.13</ele>
  <time>2026-09-01T19:53:30Z</time>
  <course>8.0</course>
  <speed>0.0</speed>
  <fix>3d</fix>
</trkpt>
<trkpt lat="-27.274439" lon="151.290064">
  <ele>343.16</ele>
  <time>2026-09-01T19:53:30Z</time>
  <course>8.0</course>
  <speed>0.0</speed>
  <fix>3d</fix>
</trkpt>
<trkpt lat="-27.274439" lon="151.290064">
  <ele>343.11</ele>
  <time>2026-09-01T19:53:30Z</time>
  <course>9.01</course>
  <speed>0.0</speed>
  <fix>3d</fix>
</trkpt>
<trkpt lat="-27.274439" lon="151.290064">
  <ele>343.17</ele>
  <time>2026-09-01T19:53:30Z</time>
  <course>8.0</course>
  <speed>0.0</speed>
  <fix>3d</fix>
</trkpt>
<trkpt lat="-27.274439" lon="151.290064">
  <ele>343.2</ele>
  <time>2026-09-01T19:53:30Z</time>
  <course>8.0</course>
  <speed>0.0</speed>
  <fix>3d</fix>
</trkpt>
<trkpt lat="-27.274439" lon="151.290064">
  <ele>343.16</ele>
  <time>2026-09-01T19:53:30Z</time>
  <course>8.08</course>
  <speed>0.0</speed>
  <fix>3d</fix>
</trkpt>
<trkpt lat="-27.274439" lon="151.290064">
  <ele>343.2</ele>
  <time>2026-09-01T19:53:30Z</time>
  <course>8.0</course>
  <speed>0.0</speed>
  <fix>3d</fix>
</trkpt>
<trkpt lat="-27.274439" lon="151.290064">
  <ele>343.27</ele>
  <time>2026-09-01T19:53:30Z</time>
  <course>8.0</course>
  <speed>0.01</speed>
  <fix>3d</fix>
</trkpt>
<trkpt lat="-27.274439" lon="151.290064">
  <ele>343.16</ele>
  <time>2026-09-01T19:53:30Z</time>
  <course>8.08</course>
  <speed>0.0</speed>
  <fix>3d</fix>
</trkpt>
<trkpt lat="-27.274439" lon="151.290064">
  <ele>343.28</ele>
  <time>2026-09-01T19:53:30Z</time>
  <course>8.0</course>
  <speed>0.01</speed>
  <fix>3d</fix>
</trkpt>
<trkpt lat="-27.274439" lon="151.290064">
  <ele>343.41</ele>
  <time>2026-09-01T19:53:30Z</time>
  <course>7.99</course>
  <speed>0.04</speed>
  <fix>3d</fix>
</trkpt>
<trkpt lat="-27.274439" lon="151.290064">
  <ele>343.3</ele>
  <time>2026-09-01T19:53:30Z</time>
  <course>8.75</course>
  <speed>0.02</speed>
  <fix>3d</fix>
</trkpt>
<trkpt lat="-27.274439" lon="151.290064">
  <ele>343.45</ele>
  <time>2026-09-01T19:53:30Z</time>
  <course>7.99</course>
  <speed>0.05</speed>
  <fix>3d</fix>
</trkpt>
<trkpt lat="-27.274439" lon="151.290064">
  <ele>343.6</ele>
  <time>2026-09-01T19:53:30Z</time>
  <course>7.99</course>
  <speed>0.07071067811865475</speed>
  <fix>3d</fix>
</trkpt>
<trkpt lat="-27.274439" lon="151.290064">
  <ele>343.3</ele>
  <time>2026-09-01T19:53:30Z</time>
  <course>8.75</course>
  <speed>0.02</speed>
  <fix>3d</fix>
</trkpt>
<trkpt lat="-27.274439" lon="151.290064">
  <ele>343.66</ele>
  <time>2026-09-01T19:53:30Z</time>
  <course>7.99</course>
  <speed>0.08062257748298549</speed>
  <fix>3d</fix>
</trkpt>
<trkpt lat="-27.2744389" lon="151.290064">
  <ele>343.83</ele>
  <time>2026-09-01T19:53:30Z</time>
  <course>8.01</course>
  <speed>0.1118033988749895</speed>
  <fix>3d</fix>
</trkpt>
<trkpt lat="-27.274439" lon="151.290064">
  <ele>343.6</ele>
  <time>2026-09-01T19:53:31Z</time>
  <course>9.65</course>
  <speed>0.07</speed>
  <fix>3d</fix>
</trkpt>
<trkpt lat="-27.2744389" lon="151.290064">
  <ele>343.89</ele>
  <time>2026-09-01T19:53:31Z</time>
  <course>8.01</course>
  <speed>0.12165525060596438</speed>
  <fix>3d</fix>
</trkpt>
<trkpt lat="-27.2744388" lon="151.290064">
  <ele>344.06</ele>
  <time>2026-09-01T19:53:31Z</time>
  <course>8.02</course>
  <speed>0.15132745950421556</speed>
  <fix>3d</fix>
</trkpt>
<trkpt lat="-27.274439" lon="151.290064">
  <ele>343.6</ele>
  <time>2026-09-01T19:53:31Z</time>
  <course>9.65</course>
  <speed>0.07</speed>
  <fix>3d</fix>
</trkpt>
<trkpt lat="-27.2744388" lon="151.290064">
  <ele>344.12</ele>
  <time>2026-09-01T19:53:31Z</time>
  <course>8.03</course>
  <speed>0.16124515496597097</speed>
  <fix>3d</fix>
</trkpt>
<trkpt lat="-27.2744387" lon="151.290064">
  <ele>344.29</ele>
  <time>2026-09-01T19:53:31Z</time>
  <course>8.04</course>
  <speed>0.1824828759089466</speed>
  <fix>3d</fix>
</trkpt>
<trkpt lat="-27.2744388" lon="151.290064">
  <ele>344.04</ele>
  <time>2026-09-01T19:53:31Z</time>
  <course>9.58</course>
  <speed>0.15</speed>
  <fix>3d</fix>
</trkpt>
<trkpt lat="-27.2744386" lon="151.290064">
  <ele>344.35</ele>
  <time>2026-09-01T19:53:31Z</time>
  <course>8.04</course>
  <speed>0.19235384061671343</speed>
  <fix>3d</fix>
</trkpt>
<trkpt lat="-27.2744385" lon="151.2900641">
  <ele>344.53</ele>
  <time>2026-09-01T19:53:31Z</time>
  <course>8.05</course>
  <speed>0.2220360331117452</speed>
  <fix>3d</fix>
</trkpt>
<trkpt lat="-27.2744388" lon="151.290064">
  <ele>344.04</ele>
  <time>2026-09-01T19:53:31Z</time>
  <course>9.58</course>
  <speed>0.15</speed>
  <fix>3d</fix>
</trkpt>
<trkpt lat="-27.2744385" lon="151.2900641">
  <ele>344.53</ele>
  <time>2026-09-01T19:53:31Z</time>
  <course>8.05</course>
  <speed>0.2220360331117452</speed>
  <fix>3d</fix>
</trkpt>
<trkpt lat="-27.2744383" lon="151.2900641">
  <ele>344.76</ele>
  <time>2026-09-01T19:53:31Z</time>
  <course>8.05</course>
  <speed>0.25317977802344327</speed>
  <fix>3d</fix>
</trkpt>
<trkpt lat="-27.2744385" lon="151.290064">
  <ele>344.51</ele>
  <time>2026-09-01T19:53:31Z</time>
  <course>9.1</course>
  <speed>0.22</speed>
  <fix>3d</fix>
</trkpt>
<trkpt lat="-27.2744382" lon="151.2900641">
  <ele>344.79</ele>
  <time>2026-09-01T19:53:31Z</time>
  <course>8.05</course>
  <speed>0.26305892875931813</speed>
  <fix>3d</fix>
</trkpt>
<trkpt lat="-27.274438" lon="151.2900641">
  <ele>344.98</ele>
  <time>2026-09-01T19:53:31Z</time>
  <course>8.05</course>
  <speed>0.29274562336608895</speed>
  <fix>3d</fix>
</trkpt>
<trkpt lat="-27.2744385" lon="151.290064">
  <ele>344.51</ele>
  <time>2026-09-01T19:53:31Z</time>
  <course>9.1</course>
  <speed>0.22</speed>
  <fix>3d</fix>
</trkpt>
<trkpt lat="-27.274438" lon="151.2900642">
  <ele>345.04</ele>
  <time>2026-09-01T19:53:31Z</time>
  <course>8.04</course>
  <speed>0.3026549190084311</speed>
  <fix>3d</fix>
</trkpt>
<trkpt lat="-27.2744377" lon="151.2900642">
  <ele>345.21</ele>
  <time>2026-09-01T19:53:31Z</time>
  <course>8.04</course>
  <speed>0.32249030993194194</speed>
  <fix>3d</fix>
</trkpt>
<trkpt lat="-27.274438" lon="151.2900641">
  <ele>344.96</ele>
  <time>2026-09-01T19:53:31Z</time>
  <course>8.8</course>
  <speed>0.29</speed>
  <fix>3d</fix>
</trkpt>
<trkpt lat="-27.2744377" lon="151.2900642">
  <ele>345.26</ele>
  <time>2026-09-01T19:53:31Z</time>
  <course>8.04</course>
  <speed>0.33376638536557274</speed>
  <fix>3d</fix>
</trkpt>
<trkpt lat="-27.2744374" lon="151.2900642">
  <ele>345.42</ele>
  <time>2026-09-01T19:53:31Z</time>
  <course>8.03</course>
  <speed>0.3535533905932738</speed>
  <fix>3d</fix>
</trkpt>
<trkpt lat="-27.274438" lon="151.2900641">
  <ele>344.96</ele>
  <time>2026-09-01T19:53:31Z</time>
  <course>8.8</course>
  <speed>0.29</speed>
  <fix>3d</fix>
</trkpt>
<trkpt lat="-27.2744374" lon="151.2900642">
  <ele>345.43</ele>
  <time>2026-09-01T19:53:31Z</time>
  <course>8.03</course>
  <speed>0.3535533905932738</speed>
  <fix>3d</fix>
</trkpt>
<trkpt lat="-27.2744371" lon="151.2900642">
  <ele>345.63</ele>
  <time>2026-09-01T19:53:31Z</time>
  <course>8.03</course>
  <speed>0.37336309405188944</speed>
  <fix>3d</fix>
</trkpt>
<trkpt lat="-27.2744374" lon="151.2900642">
  <ele>345.4</ele>
  <time>2026-09-01T19:53:31Z</time>
  <course>8.64</course>
  <speed>0.35</speed>
  <fix>3d</fix>
</trkpt>
<trkpt lat="-27.2744371" lon="151.2900642">
  <ele>345.65</ele>
  <time>2026-09-01T19:53:31Z</time>
  <course>8.03</course>
  <speed>0.37336309405188944</speed>
  <fix>3d</fix>
</trkpt>
<trkpt lat="-27.2744368" lon="151.2900644">
  <ele>345.83</ele>
  <time>2026-09-01T19:53:31Z</time>
  <course>8.03</course>
  <speed>0.39319206502675</speed>
  <fix>3d</fix>
</trkpt>
<trkpt lat="-27.2744374" lon="151.2900642">
  <ele>345.4</ele>
  <time>2026-09-01T19:53:31Z</time>
  <course>8.64</course>
  <speed>0.35</speed>
  <fix>3d</fix>
</trkpt>
<trkpt lat="-27.2744367" lon="151.2900644">
  <ele>345.88</ele>
  <time>2026-09-01T19:53:31Z</time>
  <course>8.03</course>
  <speed>0.4044749683231337</speed>
  <fix>3d</fix>
</trkpt>
<trkpt lat="-27.2744364" lon="151.2900644">
  <ele>346.01</ele>
  <time>2026-09-01T19:53:31Z</time>
  <course>8.03</course>
  <speed>0.4143669871020132</speed>
  <fix>3d</fix>
</trkpt>
<trkpt lat="-27.2744367" lon="151.2900643">
  <ele>345.81</ele>
  <time>2026-09-01T19:53:31Z</time>
  <course>8.56</course>
  <speed>0.39</speed>
  <fix>3d</fix>
</trkpt>
<trkpt lat="-27.2744363" lon="151.2900644">
  <ele>346.07</ele>
  <time>2026-09-01T19:53:31Z</time>
  <course>8.03</course>
  <speed>0.4143669871020132</speed>
  <fix>3d</fix>
</trkpt>
<trkpt lat="-27.274436" lon="151.2900645">
  <ele>346.19</ele>
  <time>2026-09-01T19:53:31Z</time>
  <course>8.03</course>
  <speed>0.4242640687119285</speed>
  <fix>3d</fix>
</trkpt>
<trkpt lat="-27.2744367" lon="151.2900643">
  <ele>345.81</ele>
  <time>2026-09-01T19:53:31Z</time>
  <course>8.56</course>
  <speed>0.39</speed>
  <fix>3d</fix>
</trkpt>
<trkpt lat="-27.2744359" lon="151.2900645">
  <ele>346.24</ele>
  <time>2026-09-01T19:53:31Z</time>
  <course>8.03</course>
  <speed>0.4341658669218482</speed>
  <fix>3d</fix>
</trkpt>
<trkpt lat="-27.2744356" lon="151.2900645">
  <ele>346.36</ele>
  <time>2026-09-01T19:53:31Z</time>
  <course>8.03</course>
  <speed>0.4440720662234904</speed>
  <fix>3d</fix>
</trkpt>
<trkpt lat="-27.274436" lon="151.2900644">
  <ele>346.17</ele>
  <time>2026-09-01T19:53:31Z</time>
  <course>8.55</course>
  <speed>0.43</speed>
  <fix>3d</fix>
</trkpt>
<trkpt lat="-27.2744355" lon="151.2900646">
  <ele>346.4</ele>
  <time>2026-09-01T19:53:31Z</time>
  <course>8.03</course>
  <speed>0.4440720662234904</speed>
  <fix>3d</fix>
</trkpt>
<trkpt lat="-27.2744352" lon="151.2900646">
  <ele>346.52</ele>
  <time>2026-09-01T19:53:31Z</time>
  <course>8.03</course>
  <speed>0.45398237851264667</speed>
  <fix>3d</fix>
</trkpt>
<trkpt lat="-27.274436" lon="151.2900644">
  <ele>346.17</ele>
  <time>2026-09-01T19:53:31Z</time>
  <course>8.55</course>
  <speed>0.43</speed>
  <fix>3d</fix>
</trkpt>
<trkpt lat="-27.2744351" lon="151.2900646">
  <ele>346.56</ele>
  <time>2026-09-01T19:53:31Z</time>
  <course>8.03</course>
  <speed>0.45398237851264667</speed>
  <fix>3d</fix>
</trkpt>
<trkpt lat="-27.2744348" lon="151.2900646">
  <ele>346.67</ele>
  <time>2026-09-01T19:53:31Z</time>
  <course>8.02</course>
  <speed>0.46389654018972803</speed>
  <fix>3d</fix>
</trkpt>
<trkpt lat="-27.2744352" lon="151.2900646">
  <ele>346.5</ele>
  <time>2026-09-01T19:53:31Z</time>
  <course>8.56</course>
  <speed>0.45</speed>
  <fix>3d</fix>
</trkpt>
<trkpt lat="-27.2744347" lon="151.2900646">
  <ele>346.71</ele>
  <time>2026-09-01T19:53:31Z</time>
  <course>8.02</course>
  <speed>0.46529560496527367</speed>
  <fix>3d</fix>
</trkpt>
<trkpt lat="-27.2744344" lon="151.2900647">
  <ele>346.82</ele>
  <time>2026-09-01T19:53:31Z</time>
  <course>8.02</course>
  <speed>0.4751841748206689</speed>
  <fix>3d</fix>
</trkpt>
<trkpt lat="-27.2744352" lon="151.2900646">
  <ele>346.5</ele>
  <time>2026-09-01T19:53:31Z</time>
  <course>8.56</course>
  <speed>0.45</speed>
  <fix>3d</fix>
</trkpt>
<trkpt lat="-27.2744343" lon="151.2900647">
  <ele>346.85</ele>
  <time>2026-09-01T19:53:31Z</time>
  <course>8.02</course>
  <speed>0.4751841748206689</speed>
  <fix>3d</fix>
</trkpt>
<trkpt lat="-27.274434" lon="151.2900647">
  <ele>346.96</ele>
  <time>2026-09-01T19:53:31Z</time>
  <course>8.02</course>
  <speed>0.4850773134253961</speed>
  <fix>3d</fix>
</trkpt>
<trkpt lat="-27.2744343" lon="151.2900647">
  <ele>346.8</ele>
  <time>2026-09-01T19:53:31Z</time>
  <course>8.55</course>
  <speed>0.47</speed>
  <fix>3d</fix>
</trkpt>
<trkpt lat="-27.2744339" lon="151.2900647">
  <ele>346.99</ele>
  <time>2026-09-01T19:53:31Z</time>
  <course>8.02</course>
  <speed>0.4850773134253961</speed>
  <fix>3d</fix>
</trkpt>
<trkpt lat="-27.2744335" lon="151.2900649">
  <ele>347.09</ele>
  <time>2026-09-01T19:53:31Z</time>
  <course>8.01</course>
  <speed>0.4949747468305833</speed>
  <fix>3d</fix>
</trkpt>
<trkpt lat="-27.2744343" lon="151.2900647">
  <ele>346.8</ele>
  <time>2026-09-01T19:53:31Z</time>
  <course>8.55</course>
  <speed>0.47</speed>
  <fix>3d</fix>
</trkpt>
<trkpt lat="-27.2744335" lon="151.2900649">
  <ele>347.1</ele>
  <time>2026-09-01T19:53:31Z</time>
  <course>8.01</course>
  <speed>0.4949747468305833</speed>
  <fix>3d</fix>
</trkpt>
<trkpt lat="-27.2744331" lon="151.290065">
  <ele>347.23</ele>
  <time>2026-09-01T19:53:31Z</time>
  <course>8.0</course>
  <speed>0.4949747468305833</speed>
  <fix>3d</fix>
</trkpt>
<trkpt lat="-27.2744335" lon="151.2900649">
  <ele>347.08</ele>
  <time>2026-09-01T19:53:31Z</time>
  <course>8.51</course>
  <speed>0.49</speed>
  <fix>3d</fix>
</trkpt>
<trkpt lat="-27.2744331" lon="151.290065">
  <ele>347.23</ele>
  <time>2026-09-01T19:53:31Z</time>
  <course>8.0</course>
  <speed>0.4949747468305833</speed>
  <fix>3d</fix>
</trkpt>
<trkpt lat="-27.2744326" lon="151.2900651">
  <ele>347.36</ele>
  <time>2026-09-01T19:53:31Z</time>
  <course>8.0</course>
  <speed>0.5048762224545735</speed>
  <fix>3d</fix>
</trkpt>
<trkpt lat="-27.2744335" lon="151.2900649">
  <ele>347.08</ele>
  <time>2026-09-01T19:53:31Z</time>
  <course>8.51</course>
  <speed>0.49</speed>
  <fix>3d</fix>
</trkpt>
<trkpt lat="-27.2744326" lon="151.2900651">
  <ele>347.38</ele>
  <time>2026-09-01T19:53:31Z</time>
  <course>8.0</course>
  <speed>0.5048762224545735</speed>
  <fix>3d</fix>
</trkpt>
<trkpt lat="-27.2744322" lon="151.2900651">
  <ele>347.49</ele>
  <time>2026-09-01T19:53:31Z</time>
  <course>8.0</course>
  <speed>0.51478150704935</speed>
  <fix>3d</fix>
</trkpt>
<trkpt lat="-27.2744326" lon="151.290065">
  <ele>347.35</ele>
  <time>2026-09-01T19:53:31Z</time>
  <course>8.46</course>
  <speed>0.51</speed>
  <fix>3d</fix>
</trkpt>
<trkpt lat="-27.2744321" lon="151.2900651">
  <ele>347.53</ele>
  <time>2026-09-01T19:53:31Z</time>
  <course>8.0</course>
  <speed>0.51478150704935</speed>
  <fix>3d</fix>
</trkpt>
<trkpt lat="-27.2744317" lon="151.2900651">
  <ele>347.62</ele>
  <time>2026-09-01T19:53:31Z</time>
  <course>8.0</course>
  <speed>0.5246903848937962</speed>
  <fix>3d</fix>
</trkpt>
<trkpt lat="-27.2744326" lon="151.290065">
  <ele>347.35</ele>
  <time>2026-09-01T19:53:31Z</time>
  <course>8.46</course>
  <speed>0.51</speed>
  <fix>3d</fix>
</trkpt>
<trkpt lat="-27.2744316" lon="151.2900651">
  <ele>347.66</ele>
  <time>2026-09-01T19:53:31Z</time>
  <course>8.0</course>
  <speed>0.5246903848937962</speed>
  <fix>3d</fix>
</trkpt>
<trkpt lat="-27.2744312" lon="151.2900652">
  <ele>347.75</ele>
  <time>2026-09-01T19:53:31Z</time>
  <course>8.0</course>
  <speed>0.5246903848937962</speed>
  <fix>3d</fix>
</trkpt>
<trkpt lat="-27.2744317" lon="151.2900651">
  <ele>347.61</ele>
  <time>2026-09-01T19:53:31Z</time>
  <course>8.44</course>
  <speed>0.52</speed>
  <fix>3d</fix>
</trkpt>
<trkpt lat="-27.2744311" lon="151.2900652">
  <ele>347.79</ele>
  <time>2026-09-01T19:53:31Z</time>
  <course>8.0</course>
  <speed>0.5346026561849464</speed>
  <fix>3d</fix>
</trkpt>
<trkpt lat="-27.2744308" lon="151.2900654">
  <ele>347.89</ele>
  <time>2026-09-01T19:53:31Z</time>
  <course>8.0</course>
  <speed>0.5346026561849464</speed>
  <fix>3d</fix>
</trkpt>
<trkpt lat="-27.2744317" lon="151.2900651">
  <ele>347.61</ele>
  <time>2026-09-01T19:53:31Z</time>
  <course>8.44</course>
  <speed>0.52</speed>
  <fix>3d</fix>
</trkpt>
<trkpt lat="-27.2744306" lon="151.2900654">
  <ele>347.93</ele>
  <time>2026-09-01T19:53:31Z</time>
  <course>8.01</course>
  <speed>0.5346026561849464</speed>
  <fix>3d</fix>
</trkpt>
<trkpt lat="-27.2744303" lon="151.2900654">
  <ele>348.03</ele>
  <time>2026-09-01T19:53:31Z</time>
  <course>8.01</course>
  <speed>0.5458937625582473</speed>
  <fix>3d</fix>
</trkpt>
<trkpt lat="-27.2744308" lon="151.2900653">
  <ele>347.88</ele>
  <time>2026-09-01T19:53:31Z</time>
  <course>8.44</course>
  <speed>0.54</speed>
  <fix>3d</fix>
</trkpt>
<trkpt lat="-27.2744301" lon="151.2900655">
  <ele>348.07</ele>
  <time>2026-09-01T19:53:31Z</time>
  <course>8.01</course>
  <speed>0.5458937625582473</speed>
  <fix>3d</fix>
</trkpt>
<trkpt lat="-27.2744298" lon="151.2900655">
  <ele>348.16</ele>
  <time>2026-09-01T19:53:31Z</time>
  <course>8.02</course>
  <speed>0.5557877292636101</speed>
  <fix>3d</fix>
</trkpt>
<trkpt lat="-27.2744308" lon="151.2900653">
  <ele>347.88</ele>
  <time>2026-09-01T19:53:31Z</time>
  <course>8.44</course>
  <speed>0.54</speed>
  <fix>3d</fix>
</trkpt>
<trkpt lat="-27.2744297" lon="151.2900655">
  <ele>348.2</ele>
  <time>2026-09-01T19:53:31Z</time>
  <course>8.02</course>
  <speed>0.5557877292636101</speed>
  <fix>3d</fix>
</trkpt>
<trkpt lat="-27.2744293" lon="151.2900656">
  <ele>348.3</ele>
  <time>2026-09-01T19:53:31Z</time>
  <course>8.02</course>
  <speed>0.5557877292636101</speed>
  <fix>3d</fix>
</trkpt>
<trkpt lat="-27.2744298" lon="151.2900655">
  <ele>348.15</ele>
  <time>2026-09-01T19:53:31Z</time>
  <course>8.45</course>
  <speed>0.55</speed>
  <fix>3d</fix>
</trkpt>
<trkpt lat="-27.2744292" lon="151.2900656">
  <ele>348.34</ele>
  <time>2026-09-01T19:53:31Z</time>
  <course>8.02</course>
  <speed>0.565685424949238</speed>
  <fix>3d</fix>
</trkpt>
<trkpt lat="-27.2744288" lon="151.2900656">
  <ele>348.45</ele>
  <time>2026-09-01T19:53:31Z</time>
  <course>8.02</course>
  <speed>0.565685424949238</speed>
  <fix>3d</fix>
</trkpt>
<trkpt lat="-27.2744298" lon="151.2900655">
  <ele>348.15</ele>
  <time>2026-09-01T19:53:31Z</time>
  <course>8.45</course>
  <speed>0.55</speed>
  <fix>3d</fix>
</trkpt>
<trkpt lat="-27.2744286" lon="151.2900656">
  <ele>348.48</ele>
  <time>2026-09-01T19:53:31Z</time>
  <course>8.02</course>
  <speed>0.565685424949238</speed>
  <fix>3d</fix>
</trkpt>
<trkpt lat="-27.2744283" lon="151.2900657">
  <ele>348.59</ele>
  <time>2026-09-01T19:53:31Z</time>
  <course>8.02</course>
  <speed>0.5755866572463264</speed>
  <fix>3d</fix>
</trkpt>
<trkpt lat="-27.2744288" lon="151.2900656">
  <ele>348.44</ele>
  <time>2026-09-01T19:53:31Z</time>
  <course>8.46</course>
  <speed>0.57</speed>
  <fix>3d</fix>
</trkpt>
<trkpt lat="-27.2744281" lon="151.2900657">
  <ele>348.63</ele>
  <time>2026-09-01T19:53:31Z</time>
  <course>8.02</course>
  <speed>0.5755866572463264</speed>
  <fix>3d</fix>
</trkpt>
<trkpt lat="-27.2744278" lon="151.2900659">
  <ele>348.73</ele>
  <time>2026-09-01T19:53:31Z</time>
  <course>8.02</course>
  <speed>0.5854912467321779</speed>
  <fix>3d</fix>
</trkpt>
<trkpt lat="-27.2744288" lon="151.2900656">
  <ele>348.44</ele>
  <time>2026-09-01T19:53:31Z</time>
  <course>8.46</course>
  <speed>0.57</speed>
  <fix>3d</fix>
</trkpt>
<trkpt lat="-27.2744277" lon="151.2900659">
  <ele>348.74</ele>
  <time>2026-09-01T19:53:31Z</time>
  <course>8.02</course>
  <speed>0.5854912467321779</speed>
  <fix>3d</fix>
</trkpt>
<trkpt lat="-27.2744272" lon="151.290066">
  <ele>348.88</ele>
  <time>2026-09-01T19:53:31Z</time>
  <course>8.02</course>
  <speed>0.5953990258641678</speed>
  <fix>3d</fix>
</trkpt>
<trkpt lat="-27.2744278" lon="151.2900659">
  <ele>348.72</ele>
  <time>2026-09-01T19:53:31Z</time>
  <course>8.45</course>
  <speed>0.58</speed>
  <fix>3d</fix>
</trkpt>
<trkpt lat="-27.2744272" lon="151.290066">
  <ele>348.89</ele>
  <time>2026-09-01T19:53:31Z</time>
  <course>8.02</course>
  <speed>0.5953990258641678</speed>
  <fix>3d</fix>
</trkpt>
<trkpt lat="-27.2744267" lon="151.290066">
  <ele>349.03</ele>
  <time>2026-09-01T19:53:31Z</time>
  <course>8.01</course>
  <speed>0.5953990258641678</speed>
  <fix>3d</fix>
</trkpt>
<trkpt lat="-27.2744278" lon="151.2900659">
  <ele>348.72</ele>
  <time>2026-09-01T19:53:31Z</time>
  <course>8.45</course>
  <speed>0.58</speed>
  <fix>3d</fix>
</trkpt>
<trkpt lat="-27.2744266" lon="151.2900661">
  <ele>349.06</ele>
  <time>2026-09-01T19:53:31Z</time>
  <course>8.01</course>
  <speed>0.6053098380168622</speed>
  <fix>3d</fix>
</trkpt>
<trkpt lat="-27.2744261" lon="151.2900661">
  <ele>349.17</ele>
  <time>2026-09-01T19:53:31Z</time>
  <course>8.01</course>
  <speed>0.6053098380168622</speed>
  <fix>3d</fix>
</trkpt>
<trkpt lat="-27.2744267" lon="151.290066">
  <ele>349.02</ele>
  <time>2026-09-01T19:53:31Z</time>
  <course>8.41</course>
  <speed>0.6</speed>
  <fix>3d</fix>
</trkpt>
<trkpt lat="-27.274426" lon="151.2900661">
  <ele>349.21</ele>
  <time>2026-09-01T19:53:31Z</time>
  <course>8.01</course>
  <speed>0.6053098380168622</speed>
  <fix>3d</fix>
</trkpt>
<trkpt lat="-27.2744256" lon="151.2900661">
  <ele>349.32</ele>
  <time>2026-09-01T19:53:31Z</time>
  <course>8.0</course>
  <speed>0.6166036003787199</speed>
  <fix>3d</fix>
</trkpt>
<trkpt lat="-27.2744267" lon="151.290066">
  <ele>349.02</ele>
  <time>2026-09-01T19:53:31Z</time>
  <course>8.41</course>
  <speed>0.6</speed>
  <fix>3d</fix>
</trkpt>
<trkpt lat="-27.2744253" lon="151.2900663">
  <ele>349.4</ele>
  <time>2026-09-01T19:53:31Z</time>
  <course>8.0</course>
  <speed>0.6166036003787199</speed>
  <fix>3d</fix>
</trkpt>
<trkpt lat="-27.274425" lon="151.2900663">
  <ele>349.47</ele>
  <time>2026-09-01T19:53:31Z</time>
  <course>8.0</course>
  <speed>0.6264982043070834</speed>
  <fix>3d</fix>
</trkpt>
<trkpt lat="-27.2744256" lon="151.2900662">
  <ele>349.31</ele>
  <time>2026-09-01T19:53:31Z</time>
  <course>8.37</course>
  <speed>0.62</speed>
  <fix>3d</fix>
</trkpt>
<trkpt lat="-27.2744249" lon="151.2900663">
  <ele>349.5</ele>
  <time>2026-09-01T19:53:31Z</time>
  <course>8.0</course>
  <speed>0.6264982043070834</speed>
  <fix>3d</fix>
</trkpt>
<trkpt lat="-27.2744245" lon="151.2900664">
  <ele>349.62</ele>
  <time>2026-09-01T19:53:31Z</time>
  <course>8.0</course>
  <speed>0.6363961030678928</speed>
  <fix>3d</fix>
</trkpt>
<trkpt lat="-27.2744256" lon="151.2900662">
  <ele>349.31</ele>
  <time>2026-09-01T19:53:31Z</time>
  <course>8.37</course>
  <speed>0.62</speed>
  <fix>3d</fix>
</trkpt>
<trkpt lat="-27.2744243" lon="151.2900664">
  <ele>349.66</ele>
  <time>2026-09-01T19:53:31Z</time>
  <course>8.0</course>
  <speed>0.6363961030678928</speed>
  <fix>3d</fix>
</trkpt>
<trkpt lat="-27.2744239" lon="151.2900665">
  <ele>349.77</ele>
  <time>2026-09-01T19:53:31Z</time>
  <course>8.0</course>
  <speed>0.6363961030678928</speed>
  <fix>3d</fix>
</trkpt>
<trkpt lat="-27.2744245" lon="151.2900664">
  <ele>349.61</ele>
  <time>2026-09-01T19:53:31Z</time>
  <course>8.33</course>
  <speed>0.63</speed>
  <fix>3d</fix>
</trkpt>
<trkpt lat="-27.2744238" lon="151.2900665">
  <ele>349.81</ele>
  <time>2026-09-01T19:53:31Z</time>
  <course>7.99</course>
  <speed>0.646297145282261</speed>
  <fix>3d</fix>
</trkpt>
<trkpt lat="-27.2744233" lon="151.2900666">
  <ele>349.91</ele>
  <time>2026-09-01T19:53:31Z</time>
  <course>7.99</course>
  <speed>0.646297145282261</speed>
  <fix>3d</fix>
</trkpt>
<trkpt lat="-27.2744245" lon="151.2900664">
  <ele>349.61</ele>
  <time>2026-09-01T19:53:31Z</time>
  <course>8.33</course>
  <speed>0.63</speed>
  <fix>3d</fix>
</trkpt>
<trkpt lat="-27.2744232" lon="151.2900666">
  <ele>349.95</ele>
  <time>2026-09-01T19:53:31Z</time>
  <course>7.99</course>
  <speed>0.646297145282261</speed>
  <fix>3d</fix>
</trkpt>
<trkpt lat="-27.2744227" lon="151.2900666">
  <ele>350.06</ele>
  <time>2026-09-01T19:53:31Z</time>
  <course>8.0</course>
  <speed>0.6562011886609167</speed>
  <fix>3d</fix>
</trkpt>
<trkpt lat="-27.2744233" lon="151.2900666">
  <ele>349.9</ele>
  <time>2026-09-01T19:53:31Z</time>
  <course>8.29</course>
  <speed>0.65</speed>
  <fix>3d</fix>
</trkpt>
<trkpt lat="-27.2744222" lon="151.2900668">
  <ele>350.21</ele>
  <time>2026-09-01T19:53:31Z</time>
  <course>8.0</course>
  <speed>0.6661080993352355</speed>
  <fix>3d</fix>
</trkpt>
<trkpt lat="-27.2744233" lon="151.2900666">
  <ele>349.9</ele>
  <time>2026-09-01T19:53:31Z</time>
  <course>8.29</course>
  <speed>0.65</speed>
  <fix>3d</fix>
</trkpt>
<trkpt lat="-27.2744221" lon="151.2900668">
  <ele>350.21</ele>
  <time>2026-09-01T19:53:31Z</time>
  <course>8.0</course>
  <speed>0.6661080993352355</speed>
  <fix>3d</fix>
</trkpt>
<trkpt lat="-27.2744216" lon="151.2900669">
  <ele>350.35</ele>
  <time>2026-09-01T19:53:31Z</time>
  <course>8.01</course>
  <speed>0.6661080993352355</speed>
  <fix>3d</fix>
</trkpt>
<trkpt lat="-27.2744222" lon="151.2900667">
  <ele>350.19</ele>
  <time>2026-09-01T19:53:31Z</time>
  <course>8.29</course>
  <speed>0.66</speed>
  <fix>3d</fix>
</trkpt>
<trkpt lat="-27.2744215" lon="151.2900669">
  <ele>350.37</ele>
  <time>2026-09-01T19:53:31Z</time>
  <course>8.01</course>
  <speed>0.6760177512462228</speed>
  <fix>3d</fix>
</trkpt>
<trkpt lat="-27.274421" lon="151.290067">
  <ele>350.5</ele>
  <time>2026-09-01T19:53:31Z</time>
  <course>8.01</course>
  <speed>0.6760177512462228</speed>
  <fix>3d</fix>
</trkpt>
<trkpt lat="-27.2744222" lon="151.2900667">
  <ele>350.19</ele>
  <time>2026-09-01T19:53:31Z</time>
  <course>8.29</course>
  <speed>0.66</speed>
  <fix>3d</fix>
</trkpt>
<trkpt lat="-27.2744209" lon="151.290067">
  <ele>350.52</ele>
  <time>2026-09-01T19:53:31Z</time>
  <course>8.01</course>
  <speed>0.6760177512462228</speed>
  <fix>3d</fix>
</trkpt>
<trkpt lat="-27.2744203" lon="151.290067">
  <ele>350.64</ele>
  <time>2026-09-01T19:53:31Z</time>
  <course>8.01</course>
  <speed>0.6859300255857006</speed>
  <fix>3d</fix>
</trkpt>
<trkpt lat="-27.274421" lon="151.290067">
  <ele>350.48</ele>
  <time>2026-09-01T19:53:31Z</time>
  <course>8.28</course>
  <speed>0.68</speed>
  <fix>3d</fix>
</trkpt>
<trkpt lat="-27.2744202" lon="151.290067">
  <ele>350.67</ele>
  <time>2026-09-01T19:53:31Z</time>
  <course>8.01</course>
  <speed>0.6859300255857006</speed>
  <fix>3d</fix>
</trkpt>
<trkpt lat="-27.2744197" lon="151.2900671">
  <ele>350.78</ele>
  <time>2026-09-01T19:53:31Z</time>
  <course>8.02</course>
  <speed>0.6972087205421343</speed>
  <fix>3d</fix>
</trkpt>
<trkpt lat="-27.274421" lon="151.290067">
  <ele>350.48</ele>
  <time>2026-09-01T19:53:31Z</time>
  <course>8.28</course>
  <speed>0.68</speed>
  <fix>3d</fix>
</trkpt>
<trkpt lat="-27.2744196" lon="151.2900671">
  <ele>350.82</ele>
  <time>2026-09-01T19:53:31Z</time>
  <course>8.02</course>
  <speed>0.6972087205421343</speed>
  <fix>3d</fix>
</trkpt>
<trkpt lat="-27.2744191" lon="151.2900673">
  <ele>350.93</ele>
  <time>2026-09-01T19:53:31Z</time>
  <course>8.02</course>
  <speed>0.6972087205421343</speed>
  <fix>3d</fix>
</trkpt>
<trkpt lat="-27.2744197" lon="151.2900672">
  <ele>350.77</ele>
  <time>2026-09-01T19:53:31Z</time>
  <course>8.26</course>
  <speed>0.69</speed>
  <fix>3d</fix>
</trkpt>
<trkpt lat="-27.2744189" lon="151.2900673">
  <ele>350.98</ele>
  <time>2026-09-01T19:53:31Z</time>
  <course>8.02</course>
  <speed>0.6972087205421343</speed>
  <fix>3d</fix>
</trkpt>
<trkpt lat="-27.2744185" lon="151.2900674">
  <ele>351.07</ele>
  <time>2026-09-01T19:53:31Z</time>
  <course>8.02</course>
  <speed>0.7071067811865476</speed>
  <fix>3d</fix>
</trkpt>
<trkpt lat="-27.2744197" lon="151.2900672">
  <ele>350.77</ele>
  <time>2026-09-01T19:53:31Z</time>
  <course>8.26</course>
  <speed>0.69</speed>
  <fix>3d</fix>
</trkpt>
<trkpt lat="-27.2744183" lon="151.2900674">
  <ele>351.11</ele>
  <time>2026-09-01T19:53:31Z</time>
  <course>8.02</course>
  <speed>0.7071067811865476</speed>
  <fix>3d</fix>
</trkpt>
<trkpt lat="-27.2744178" lon="151.2900675">
  <ele>351.21</ele>
  <time>2026-09-01T19:53:31Z</time>
  <course>8.02</course>
  <speed>0.717007670809734</speed>
  <fix>3d</fix>
</trkpt>
<trkpt lat="-27.2744185" lon="151.2900674">
  <ele>351.06</ele>
  <time>2026-09-01T19:53:31Z</time>
  <course>8.25</course>
  <speed>0.71</speed>
  <fix>3d</fix>
</trkpt>
<trkpt lat="-27.2744177" lon="151.2900675">
  <ele>351.25</ele>
  <time>2026-09-01T19:53:31Z</time>
  <course>8.02</course>
  <speed>0.717007670809734</speed>
  <fix>3d</fix>
</trkpt>
<trkpt lat="-27.2744172" lon="151.2900675">
  <ele>351.36</ele>
  <time>2026-09-01T19:53:31Z</time>
  <course>8.02</course>
  <speed>0.717007670809734</speed>
  <fix>3d</fix>
</trkpt>
<trkpt lat="-27.2744185" lon="151.2900674">
  <ele>351.06</ele>
  <time>2026-09-01T19:53:31Z</time>
  <course>8.25</course>
  <speed>0.71</speed>
  <fix>3d</fix>
</trkpt>
<trkpt lat="-27.2744172" lon="151.2900675">
  <ele>351.36</ele>
  <time>2026-09-01T19:53:31Z</time>
  <course>8.02</course>
  <speed>0.717007670809734</speed>
  <fix>3d</fix>
</trkpt>
<trkpt lat="-27.2744165" lon="151.2900676">
  <ele>351.5</ele>
  <time>2026-09-01T19:53:31Z</time>
  <course>8.02</course>
  <speed>0.7269112738154498</speed>
  <fix>3d</fix>
</trkpt>
<trkpt lat="-27.2744172" lon="151.2900675">
  <ele>351.34</ele>
  <time>2026-09-01T19:53:31Z</time>
  <course>8.24</course>
  <speed>0.72</speed>
  <fix>3d</fix>
</trkpt>
<trkpt lat="-27.2744164" lon="151.2900676">
  <ele>351.54</ele>
  <time>2026-09-01T19:53:31Z</time>
  <course>8.02</course>
  <speed>0.7269112738154498</speed>
  <fix>3d</fix>
</trkpt>
<trkpt lat="-27.2744159" lon="151.2900678">
  <ele>351.64</ele>
  <time>2026-09-01T19:53:31Z</time>
  <course>8.01</course>
  <speed>0.7368174807915459</speed>
  <fix>3d</fix>
</trkpt>
<trkpt lat="-27.2744172" lon="151.2900675">
  <ele>351.34</ele>
  <time>2026-09-01T19:53:31Z</time>
  <course>8.24</course>
  <speed>0.72</speed>
  <fix>3d</fix>
</trkpt>
<trkpt lat="-27.2744157" lon="151.2900678">
  <ele>351.68</ele>
  <time>2026-09-01T19:53:31Z</time>
  <course>8.01</course>
  <speed>0.7368174807915459</speed>
  <fix>3d</fix>
</trkpt>
<trkpt lat="-27.2744152" lon="151.2900679">
  <ele>351.78</ele>
  <time>2026-09-01T19:53:31Z</time>
  <course>8.01</course>
  <speed>0.7368174807915459</speed>
  <fix>3d</fix>
</trkpt>
<trkpt lat="-27.2744159" lon="151.2900677">
  <ele>351.63</ele>
  <time>2026-09-01T19:53:31Z</time>
  <course>8.24</course>
  <speed>0.73</speed>
  <fix>3d</fix>
</trkpt>
<trkpt lat="-27.2744151" lon="151.290068">
  <ele>351.82</ele>
  <time>2026-09-01T19:53:31Z</time>
  <course>8.01</course>
  <speed>0.7467261881037789</speed>
  <fix>3d</fix>
</trkpt>
<trkpt lat="-27.2744146" lon="151.290068">
  <ele>351.93</ele>
  <time>2026-09-01T19:53:31Z</time>
  <course>8.0</course>
  <speed>0.7467261881037789</speed>
  <fix>3d</fix>
</trkpt>
<trkpt lat="-27.2744159" lon="151.2900677">
  <ele>351.63</ele>
  <time>2026-09-01T19:53:31Z</time>
  <course>8.24</course>
  <speed>0.73</speed>
  <fix>3d</fix>
</trkpt>
<trkpt lat="-27.2744145" lon="151.290068">
  <ele>351.93</ele>
  <time>2026-09-01T19:53:31Z</time>
  <course>8.0</course>
  <speed>0.7467261881037789</speed>
  <fix>3d</fix>
</trkpt>
<trkpt lat="-27.2744139" lon="151.290068">
  <ele>352.07</ele>
  <time>2026-09-01T19:53:31Z</time>
  <course>8.0</course>
  <speed>0.7566372975210779</speed>
  <fix>3d</fix>
</trkpt>
<trkpt lat="-27.2744146" lon="151.290068">
  <ele>351.91</ele>
  <time>2026-09-01T19:53:31Z</time>
  <course>8.26</course>
  <speed>0.75</speed>
  <fix>3d</fix>
</trkpt>
<trkpt lat="-27.2744132" lon="151.2900683">
  <ele>352.21</ele>
  <time>2026-09-01T19:53:31Z</time>
  <course>8.0</course>
  <speed>0.758023746329889</speed>
  <fix>3d</fix>
</trkpt>
<trkpt lat="-27.2744146" lon="151.290068">
  <ele>351.91</ele>
  <time>2026-09-01T19:53:31Z</time>
  <course>8.26</course>
  <speed>0.75</speed>
  <fix>3d</fix>
</trkpt>
<trkpt lat="-27.2744125" lon="151.2900684">
  <ele>352.36</ele>
  <time>2026-09-01T19:53:31Z</time>
  <course>8.0</course>
  <speed>0.7679192665899195</speed>
  <fix>3d</fix>
</trkpt>
<trkpt lat="-27.2744132" lon="151.2900682">
  <ele>352.2</ele>
  <time>2026-09-01T19:53:31Z</time>
  <course>8.28</course>
  <speed>0.76</speed>
  <fix>3d</fix>
</trkpt>
<trkpt lat="-27.2744125" lon="151.2900684">
  <ele>352.36</ele>
  <time>2026-09-01T19:53:31Z</time>
  <course>8.0</course>
  <speed>0.7679192665899195</speed>
  <fix>3d</fix>
</trkpt>
<trkpt lat="-27.2744118" lon="151.2900685">
  <ele>352.5</ele>
  <time>2026-09-01T19:53:31Z</time>
  <course>8.0</course>
  <speed>0.7778174593052023</speed>
  <fix>3d</fix>
</trkpt>
<trkpt lat="-27.2744132" lon="151.2900682">
  <ele>352.2</ele>
  <time>2026-09-01T19:53:31Z</time>
  <course>8.28</course>
  <speed>0.76</speed>
  <fix>3d</fix>
</trkpt>
<trkpt lat="-27.2744116" lon="151.2900685">
  <ele>352.54</ele>
  <time>2026-09-01T19:53:31Z</time>
  <course>8.0</course>
  <speed>0.7778174593052023</speed>
  <fix>3d</fix>
</trkpt>
<trkpt lat="-27.2744111" lon="151.2900685">
  <ele>352.64</ele>
  <time>2026-09-01T19:53:31Z</time>
  <course>8.0</course>
  <speed>0.7778174593052023</speed>
  <fix>3d</fix>
</trkpt>
<trkpt lat="-27.2744118" lon="151.2900685">
  <ele>352.49</ele>
  <time>2026-09-01T19:53:31Z</time>
  <course>8.29</course>
  <speed>0.78</speed>
  <fix>3d</fix>
</trkpt>
<trkpt lat="-27.274411" lon="151.2900685">
  <ele>352.68</ele>
  <time>2026-09-01T19:53:31Z</time>
  <course>8.0</course>
  <speed>0.7877182237323191</speed>
  <fix>3d</fix>
</trkpt>
<trkpt lat="-27.2744104" lon="151.2900687">
  <ele>352.79</ele>
  <time>2026-09-01T19:53:31Z</time>
  <course>8.0</course>
  <speed>0.7877182237323191</speed>
  <fix>3d</fix>
</trkpt>
<trkpt lat="-27.2744118" lon="151.2900685">
  <ele>352.49</ele>
  <time>2026-09-01T19:53:31Z</time>
  <course>8.29</course>
  <speed>0.78</speed>
  <fix>3d</fix>
</trkpt>
<trkpt lat="-27.2744101" lon="151.2900688">
  <ele>352.86</ele>
  <time>2026-09-01T19:53:31Z</time>
  <course>8.0</course>
  <speed>0.7877182237323191</speed>
  <fix>3d</fix>
</trkpt>
<trkpt lat="-27.2744097" lon="151.2900688">
  <ele>352.93</ele>
  <time>2026-09-01T19:53:31Z</time>
  <course>8.0</course>
  <speed>0.7976214641043707</speed>
  <fix>3d</fix>
</trkpt>
<trkpt lat="-27.2744105" lon="151.2900687">
  <ele>352.78</ele>
  <time>2026-09-01T19:53:31Z</time>
  <course>8.3</course>
  <speed>0.79</speed>
  <fix>3d</fix>
</trkpt>
<trkpt lat="-27.274409" lon="151.2900689">
  <ele>353.07</ele>
  <time>2026-09-01T19:53:31Z</time>
  <course>8.0</course>
  <speed>0.7976214641043707</speed>
  <fix>3d</fix>
</trkpt>
<trkpt lat="-27.2744105" lon="151.2900687">
  <ele>352.78</ele>
  <time>2026-09-01T19:53:31Z</time>
  <course>8.3</course>
  <speed>0.79</speed>
  <fix>3d</fix>
</trkpt>
<trkpt lat="-27.2744083" lon="151.290069">
  <ele>353.22</ele>
  <time>2026-09-01T19:53:31Z</time>
  <course>8.01</course>
  <speed>0.8075270893288967</speed>
  <fix>3d</fix>
</trkpt>
<trkpt lat="-27.274409" lon="151.2900689">
  <ele>353.06</ele>
  <time>2026-09-01T19:53:31Z</time>
  <course>8.31</course>
  <speed>0.8</speed>
  <fix>3d</fix>
</trkpt>
<trkpt lat="-27.2744083" lon="151.290069">
  <ele>353.22</ele>
  <time>2026-09-01T19:53:31Z</time>
  <course>8.01</course>
  <speed>0.8075270893288967</speed>
  <fix>3d</fix>
</trkpt>
<trkpt lat="-27.2744076" lon="151.2900692">
  <ele>353.36</ele>
  <time>2026-09-01T19:53:31Z</time>
  <course>8.01</course>
  <speed>0.8174350127074322</speed>
  <fix>3d</fix>
</trkpt>
<trkpt lat="-27.274409" lon="151.2900689">
  <ele>353.06</ele>
  <time>2026-09-01T19:53:31Z</time>
  <course>8.31</course>
  <speed>0.8</speed>
  <fix>3d</fix>
</trkpt>
<trkpt lat="-27.2744068" lon="151.2900693">
  <ele>353.51</ele>
  <time>2026-09-01T19:53:31Z</time>
  <course>8.01</course>
  <speed>0.8174350127074322</speed>
  <fix>3d</fix>
</trkpt>
<trkpt lat="-27.2744075" lon="151.2900692">
  <ele>353.35</ele>
  <time>2026-09-01T19:53:31Z</time>
  <course>8.31</course>
  <speed>0.82</speed>
  <fix>3d</fix>
</trkpt>
<trkpt lat="-27.2744061" lon="151.2900694">
  <ele>353.65</ele>
  <time>2026-09-01T19:53:31Z</time>
  <course>8.02</course>
  <speed>0.8287339742040264</speed>
  <fix>3d</fix>
</trkpt>
<trkpt lat="-27.2744075" lon="151.2900692">
  <ele>353.35</ele>
  <time>2026-09-01T19:53:31Z</time>
  <course>8.31</course>
  <speed>0.82</speed>
  <fix>3d</fix>
</trkpt>
<trkpt lat="-27.2744053" lon="151.2900694">
  <ele>353.78</ele>
  <time>2026-09-01T19:53:31Z</time>
  <course>8.01</course>
  <speed>0.8386298349093002</speed>
  <fix>3d</fix>
</trkpt>
<trkpt lat="-27.2744061" lon="151.2900694">
  <ele>353.64</ele>
  <time>2026-09-01T19:53:31Z</time>
  <course>8.28</course>
  <speed>0.83</speed>
  <fix>3d</fix>
</trkpt>
<trkpt lat="-27.2744046" lon="151.2900697">
  <ele>353.91</ele>
  <time>2026-09-01T19:53:31Z</time>
  <course>8.01</course>
  <speed>0.8386298349093002</speed>
  <fix>3d</fix>
</trkpt>
<trkpt lat="-27.2744061" lon="151.2900694">
  <ele>353.64</ele>
  <time>2026-09-01T19:53:31Z</time>
  <course>8.28</course>
  <speed>0.83</speed>
  <fix>3d</fix>
</trkpt>
<trkpt lat="-27.2744038" lon="151.2900698">
  <ele>354.03</ele>
  <time>2026-09-01T19:53:31Z</time>
  <course>8.0</course>
  <speed>0.848528137423857</speed>
  <fix>3d</fix>
</trkpt>
<trkpt lat="-27.2744046" lon="151.2900696">
  <ele>353.9</ele>
  <time>2026-09-01T19:53:31Z</time>
  <course>8.26</course>
  <speed>0.84</speed>
  <fix>3d</fix>
</trkpt>
<trkpt lat="-27.2744031" lon="151.2900699">
  <ele>354.13</ele>
  <time>2026-09-01T19:53:31Z</time>
  <course>8.0</course>
  <speed>0.848528137423857</speed>
  <fix>3d</fix>
</trkpt>
<trkpt lat="-27.2744046" lon="151.2900696">
  <ele>353.9</ele>
  <time>2026-09-01T19:53:31Z</time>
  <course>8.26</course>
  <speed>0.84</speed>
  <fix>3d</fix>
</trkpt>
<trkpt lat="-27.2744023" lon="151.2900699">
  <ele>354.21</ele>
  <time>2026-09-01T19:53:31Z</time>
  <course>7.99</course>
  <speed>0.8584287972802404</speed>
  <fix>3d</fix>
</trkpt>
<trkpt lat="-27.2744031" lon="151.2900699">
  <ele>354.11</ele>
  <time>2026-09-01T19:53:31Z</time>
  <course>8.25</course>
  <speed>0.85</speed>
  <fix>3d</fix>
</trkpt>
<trkpt lat="-27.2744016" lon="151.2900702">
  <ele>354.28</ele>
  <time>2026-09-01T19:53:31Z</time>
  <course>8.0</course>
  <speed>0.8584287972802404</speed>
  <fix>3d</fix>
</trkpt>
<trkpt lat="-27.2744031" lon="151.2900699">
  <ele>354.11</ele>
  <time>2026-09-01T19:53:31Z</time>
  <course>8.25</course>
  <speed>0.85</speed>
  <fix>3d</fix>
</trkpt>
<trkpt lat="-27.2744008" lon="151.2900703">
  <ele>354.33</ele>
  <time>2026-09-01T19:53:31Z</time>
  <course>8.0</course>
  <speed>0.8584287972802404</speed>
  <fix>3d</fix>
</trkpt>
<trkpt lat="-27.2744016" lon="151.2900701">
  <ele>354.27</ele>
  <time>2026-09-01T19:53:31Z</time>
  <course>8.25</course>
  <speed>0.86</speed>
  <fix>3d</fix>
</trkpt>
<trkpt lat="-27.2744" lon="151.2900704">
  <ele>354.36</ele>
  <time>2026-09-01T19:53:31Z</time>
  <course>8.0</course>
  <speed>0.8584287972802404</speed>
  <fix>3d</fix>
</trkpt>
<trkpt lat="-27.2744016" lon="151.2900701">
  <ele>354.27</ele>
  <time>2026-09-01T19:53:31Z</time>
  <course>8.25</course>
  <speed>0.86</speed>
  <fix>3d</fix>
</trkpt>
<trkpt lat="-27.2743992" lon="151.2900704">
  <ele>354.38</ele>
  <time>2026-09-01T19:53:31Z</time>
  <course>8.0</course>
  <speed>0.8584287972802404</speed>
  <fix>3d</fix>
</trkpt>
<trkpt lat="-27.2744" lon="151.2900704">
  <ele>354.35</ele>
  <time>2026-09-01T19:53:31Z</time>
  <course>8.25</course>
  <speed>0.86</speed>
  <fix>3d</fix>
</trkpt>
<trkpt lat="-27.2743985" lon="151.2900707">
  <ele>354.38</ele>
  <time>2026-09-01T19:53:31Z</time>
  <course>8.01</course>
  <speed>0.8683317338436964</speed>
  <fix>3d</fix>
</trkpt>
<trkpt lat="-27.2744" lon="151.2900704">
  <ele>354.35</ele>
  <time>2026-09-01T19:53:31Z</time>
  <course>8.25</course>
  <speed>0.86</speed>
  <fix>3d</fix>
</trkpt>
<trkpt lat="-27.2743977" lon="151.2900708">
  <ele>354.38</ele>
  <time>2026-09-01T19:53:31Z</time>
  <course>8.0</course>
  <speed>0.8683317338436964</speed>
  <fix>3d</fix>
</trkpt>
<trkpt lat="-27.2743984" lon="151.2900706">
  <ele>354.38</ele>
  <time>2026-09-01T19:53:31Z</time>
  <course>8.25</course>
  <speed>0.86</speed>
  <fix>3d</fix>
</trkpt>
<trkpt lat="-27.2743969" lon="151.2900709">
  <ele>354.36</ele>
  <time>2026-09-01T19:53:31Z</time>
  <course>8.0</course>
  <speed>0.8683317338436964</speed>
  <fix>3d</fix>
</trkpt>
<trkpt lat="-27.2743984" lon="151.2900706">
  <ele>354.38</ele>
  <time>2026-09-01T19:53:31Z</time>
  <course>8.25</course>
  <speed>0.86</speed>
  <fix>3d</fix>
</trkpt>
<trkpt lat="-27.2743961" lon="151.2900709">
  <ele>354.35</ele>
  <time>2026-09-01T19:53:31Z</time>
  <course>7.99</course>
  <speed>0.8683317338436964</speed>
  <fix>3d</fix>
</trkpt>
<trkpt lat="-27.2743969" lon="151.2900709">
  <ele>354.36</ele>
  <time>2026-09-01T19:53:31Z</time>
  <course>8.24</course>
  <speed>0.87</speed>
  <fix>3d</fix>
</trkpt>
<trkpt lat="-27.2743954" lon="151.2900712">
  <ele>354.33</ele>
  <time>2026-09-01T19:53:31Z</time>
  <course>7.99</course>
  <speed>0.8683317338436964</speed>
  <fix>3d</fix>
</trkpt>
<trkpt lat="-27.2743969" lon="151.2900709">
  <ele>354.36</ele>
  <time>2026-09-01T19:53:31Z</time>
  <course>8.24</course>
  <speed>0.87</speed>
  <fix>3d</fix>
</trkpt>
<trkpt lat="-27.2743946" lon="151.2900713">
  <ele>354.31</ele>
  <time>2026-09-01T19:53:31Z</time>
  <course>7.99</course>
  <speed>0.8683317338436964</speed>
  <fix>3d</fix>
</trkpt>
<trkpt lat="-27.2743953" lon="151.2900711">
  <ele>354.33</ele>
  <time>2026-09-01T19:53:31Z</time>
  <course>8.23</course>
  <speed>0.87</speed>
  <fix>3d</fix>
</trkpt>
<trkpt lat="-27.2743938" lon="151.2900713">
  <ele>354.29</ele>
  <time>2026-09-01T19:53:31Z</time>
  <course>7.99</course>
  <speed>0.8683317338436964</speed>
  <fix>3d</fix>
</trkpt>
<trkpt lat="-27.2743953" lon="151.2900711">
  <ele>354.33</ele>
  <time>2026-09-01T19:53:31Z</time>
  <course>8.23</course>
  <speed>0.87</speed>
  <fix>3d</fix>
</trkpt>
<trkpt lat="-27.274393" lon="151.2900716">
  <ele>354.27</ele>
  <time>2026-09-01T19:53:31Z</time>
  <course>7.99</course>
  <speed>0.8683317338436964</speed>
  <fix>3d</fix>
</trkpt>
<trkpt lat="-27.2743938" lon="151.2900713">
  <ele>354.28</ele>
  <time>2026-09-01T19:53:31Z</time>
  <course>8.22</course>
  <speed>0.87</speed>
  <fix>3d</fix>
</trkpt>
<trkpt lat="-27.2743922" lon="151.2900717">
  <ele>354.26</ele>
  <time>2026-09-01T19:53:31Z</time>
  <course>8.0</course>
  <speed>0.8683317338436964</speed>
  <fix>3d</fix>
</trkpt>
<trkpt lat="-27.2743938" lon="151.2900713">
  <ele>354.28</ele>
  <time>2026-09-01T19:53:31Z</time>
  <course>8.22</course>
  <speed>0.87</speed>
  <fix>3d</fix>
</trkpt>
<trkpt lat="-27.2743915" lon="151.2900718">
  <ele>354.25</ele>
  <time>2026-09-01T19:53:31Z</time>
  <course>8.0</course>
  <speed>0.8782368700982669</speed>
  <fix>3d</fix>
</trkpt>
<trkpt lat="-27.2743923" lon="151.2900716">
  <ele>354.26</ele>
  <time>2026-09-01T19:53:31Z</time>
  <course>8.23</course>
  <speed>0.87</speed>
  <fix>3d</fix>
</trkpt>
<trkpt lat="-27.2743907" lon="151.2900718">
  <ele>354.24</ele>
  <time>2026-09-01T19:53:31Z</time>
  <course>8.01</course>
  <speed>0.8782368700982669</speed>
  <fix>3d</fix>
</trkpt>
<trkpt lat="-27.2743923" lon="151.2900716">
  <ele>354.26</ele>
  <time>2026-09-01T19:53:31Z</time>
  <course>8.23</course>
  <speed>0.87</speed>
  <fix>3d</fix>
</trkpt>
<trkpt lat="-27.2743899" lon="151.2900721">
  <ele>354.24</ele>
  <time>2026-09-01T19:53:31Z</time>
  <course>8.01</course>
  <speed>0.8782368700982669</speed>
  <fix>3d</fix>
</trkpt>
<trkpt lat="-27.2743907" lon="151.2900719">
  <ele>354.24</ele>
  <time>2026-09-01T19:53:31Z</time>
  <course>8.24</course>
  <speed>0.87</speed>
  <fix>3d</fix>
</trkpt>
<trkpt lat="-27.2743891" lon="151.2900722">
  <ele>354.25</ele>
  <time>2026-09-01T19:53:31Z</time>
  <course>8.0</course>
  <speed>0.8683317338436964</speed>
  <fix>3d</fix>
</trkpt>
<trkpt lat="-27.2743907" lon="151.2900719">
  <ele>354.24</ele>
  <time>2026-09-01T19:53:31Z</time>
  <course>8.24</course>
  <speed>0.87</speed>
  <fix>3d</fix>
</trkpt>
<trkpt lat="-27.2743883" lon="151.2900723">
  <ele>354.25</ele>
  <time>2026-09-01T19:53:32Z</time>
  <course>8.0</course>
  <speed>0.8683317338436964</speed>
  <fix>3d</fix>
</trkpt>
<trkpt lat="-27.2743891" lon="151.2900722">
  <ele>354.24</ele>
  <time>2026-09-01T19:53:32Z</time>
  <course>8.21</course>
  <speed>0.87</speed>
  <fix>3d</fix>
</trkpt>
<trkpt lat="-27.2743876" lon="151.2900723">
  <ele>354.26</ele>
  <time>2026-09-01T19:53:32Z</time>
  <course>8.0</course>
  <speed>0.8683317338436964</speed>
  <fix>3d</fix>
</trkpt>
<trkpt lat="-27.2743891" lon="151.2900722">
  <ele>354.24</ele>
  <time>2026-09-01T19:53:32Z</time>
  <course>8.21</course>
  <speed>0.87</speed>
  <fix>3d</fix>
</trkpt>
<trkpt lat="-27.2743868" lon="151.2900726">
  <ele>354.27</ele>
  <time>2026-09-01T19:53:32Z</time>
  <course>7.99</course>
  <speed>0.8683317338436964</speed>
  <fix>3d</fix>
</trkpt>
<trkpt lat="-27.2743876" lon="151.2900724">
  <ele>354.26</ele>
  <time>2026-09-01T19:53:32Z</time>
  <course>8.19</course>
  <speed>0.87</speed>
  <fix>3d</fix>
</trkpt>
<trkpt lat="-27.274386" lon="151.2900727">
  <ele>354.28</ele>
  <time>2026-09-01T19:53:32Z</time>
  <course>7.99</course>
  <speed>0.8683317338436964</speed>
  <fix>3d</fix>
</trkpt>
<trkpt lat="-27.2743876" lon="151.2900724">
  <ele>354.26</ele>
  <time>2026-09-01T19:53:32Z</time>
  <course>8.19</course>
  <speed>0.87</speed>
  <fix>3d</fix>
</trkpt>
<trkpt lat="-27.2743852" lon="151.2900728">
  <ele>354.29</ele>
  <time>2026-09-01T19:53:32Z</time>
  <course>7.99</course>
  <speed>0.8683317338436964</speed>
  <fix>3d</fix>
</trkpt>
<trkpt lat="-27.274386" lon="151.2900727">
  <ele>354.28</ele>
  <time>2026-09-01T19:53:32Z</time>
  <course>8.18</course>
  <speed>0.87</speed>
  <fix>3d</fix>
</trkpt>
<trkpt lat="-27.2743844" lon="151.2900728">
  <ele>354.31</ele>
  <time>2026-09-01T19:53:32Z</time>
  <course>7.99</course>
  <speed>0.8683317338436964</speed>
  <fix>3d</fix>
</trkpt>
<trkpt lat="-27.274386" lon="151.2900727">
  <ele>354.28</ele>
  <time>2026-09-01T19:53:32Z</time>
  <course>8.18</course>
  <speed>0.87</speed>
  <fix>3d</fix>
</trkpt>
<trkpt lat="-27.2743837" lon="151.2900731">
  <ele>354.32</ele>
  <time>2026-09-01T19:53:32Z</time>
  <course>7.98</course>
  <speed>0.8683317338436964</speed>
  <fix>3d</fix>
</trkpt>
<trkpt lat="-27.2743844" lon="151.2900729">
  <ele>354.3</ele>
  <time>2026-09-01T19:53:32Z</time>
  <course>8.18</course>
  <speed>0.87</speed>
  <fix>3d</fix>
</trkpt>
<trkpt lat="-27.2743829" lon="151.2900732">
  <ele>354.33</ele>
  <time>2026-09-01T19:53:32Z</time>
  <course>7.98</course>
  <speed>0.8683317338436964</speed>
  <fix>3d</fix>
</trkpt>
<trkpt lat="-27.2743844" lon="151.2900729">
  <ele>354.3</ele>
  <time>2026-09-01T19:53:32Z</time>
  <course>8.18</course>
  <speed>0.87</speed>
  <fix>3d</fix>
</trkpt>
<trkpt lat="-27.2743821" lon="151.2900733">
  <ele>354.34</ele>
  <time>2026-09-01T19:53:32Z</time>
  <course>7.98</course>
  <speed>0.8683317338436964</speed>
  <fix>3d</fix>
</trkpt>
<trkpt lat="-27.2743829" lon="151.2900732">
  <ele>354.32</ele>
  <time>2026-09-01T19:53:32Z</time>
  <course>8.16</course>
  <speed>0.87</speed>
  <fix>3d</fix>
</trkpt>
<trkpt lat="-27.2743813" lon="151.2900735">
  <ele>354.34</ele>
  <time>2026-09-01T19:53:32Z</time>
  <course>7.98</course>
  <speed>0.8683317338436964</speed>
  <fix>3d</fix>
</trkpt>
<trkpt lat="-27.2743829" lon="151.2900732">
  <ele>354.32</ele>
  <time>2026-09-01T19:53:32Z</time>
  <course>8.16</course>
  <speed>0.87</speed>
  <fix>3d</fix>
</trkpt>
<trkpt lat="-27.2743805" lon="151.2900736">
  <ele>354.35</ele>
  <time>2026-09-01T19:53:32Z</time>
  <course>7.98</course>
  <speed>0.8683317338436964</speed>
  <fix>3d</fix>
</trkpt>
<trkpt lat="-27.2743813" lon="151.2900734">
  <ele>354.34</ele>
  <time>2026-09-01T19:53:32Z</time>
  <course>8.15</course>
  <speed>0.87</speed>
  <fix>3d</fix>
</trkpt>
<trkpt lat="-27.2743798" lon="151.2900737">
  <ele>354.35</ele>
  <time>2026-09-01T19:53:32Z</time>
  <course>7.99</course>
  <speed>0.8683317338436964</speed>
  <fix>3d</fix>
</trkpt>
<trkpt lat="-27.2743813" lon="151.2900734">
  <ele>354.34</ele>
  <time>2026-09-01T19:53:32Z</time>
  <course>8.15</course>
  <speed>0.87</speed>
  <fix>3d</fix>
</trkpt>
<trkpt lat="-27.274379" lon="151.2900737">
  <ele>354.35</ele>
  <time>2026-09-01T19:53:32Z</time>
  <course>7.99</course>
  <speed>0.8683317338436964</speed>
  <fix>3d</fix>
</trkpt>
<trkpt lat="-27.2743798" lon="151.2900737">
  <ele>354.35</ele>
  <time>2026-09-01T19:53:32Z</time>
  <course>8.12</course>
  <speed>0.87</speed>
  <fix>3d</fix>
</trkpt>
<trkpt lat="-27.2743782" lon="151.290074">
  <ele>354.35</ele>
  <time>2026-09-01T19:53:32Z</time>
  <course>7.99</course>
  <speed>0.8683317338436964</speed>
  <fix>3d</fix>
</trkpt>
<trkpt lat="-27.2743798" lon="151.2900737">
  <ele>354.35</ele>
  <time>2026-09-01T19:53:32Z</time>
  <course>8.12</course>
  <speed>0.87</speed>
  <fix>3d</fix>
</trkpt>
<trkpt lat="-27.2743774" lon="151.2900741">
  <ele>354.35</ele>
  <time>2026-09-01T19:53:32Z</time>
  <course>7.99</course>
  <speed>0.8683317338436964</speed>
  <fix>3d</fix>
</trkpt>
<trkpt lat="-27.2743782" lon="151.2900739">
  <ele>354.35</ele>
  <time>2026-09-01T19:53:32Z</time>
  <course>8.09</course>
  <speed>0.87</speed>
  <fix>3d</fix>
</trkpt>
<trkpt lat="-27.2743766" lon="151.2900742">
  <ele>354.35</ele>
  <time>2026-09-01T19:53:32Z</time>
  <course>7.99</course>
  <speed>0.8683317338436964</speed>
  <fix>3d</fix>
</trkpt>
<trkpt lat="-27.2743782" lon="151.2900739">
  <ele>354.35</ele>
  <time>2026-09-01T19:53:32Z</time>
  <course>8.09</course>
  <speed>0.87</speed>
  <fix>3d</fix>
</trkpt>
<trkpt lat="-27.2743759" lon="151.2900742">
  <ele>354.35</ele>
  <time>2026-09-01T19:53:32Z</time>
  <course>7.99</course>
  <speed>0.8683317338436964</speed>
  <fix>3d</fix>
</trkpt>
<trkpt lat="-27.2743767" lon="151.2900742">
  <ele>354.35</ele>
  <time>2026-09-01T19:53:32Z</time>
  <course>8.07</course>
  <speed>0.87</speed>
  <fix>3d</fix>
</trkpt>
<trkpt lat="-27.2743751" lon="151.2900745">
  <ele>354.35</ele>
  <time>2026-09-01T19:53:32Z</time>
  <course>7.98</course>
  <speed>0.8683317338436964</speed>
  <fix>3d</fix>
</trkpt>
<trkpt lat="-27.2743767" lon="151.2900742">
  <ele>354.35</ele>
  <time>2026-09-01T19:53:32Z</time>
  <course>8.07</course>
  <speed>0.87</speed>
  <fix>3d</fix>
</trkpt>
<trkpt lat="-27.2743743" lon="151.2900746">
  <ele>354.34</ele>
  <time>2026-09-01T19:53:32Z</time>
  <course>7.98</course>
  <speed>0.8683317338436964</speed>
  <fix>3d</fix>
</trkpt>
<trkpt lat="-27.2743751" lon="151.2900744">
  <ele>354.34</ele>
  <time>2026-09-01T19:53:32Z</time>
  <course>8.05</course>
  <speed>0.87</speed>
  <fix>3d</fix>
</trkpt>
<trkpt lat="-27.2743735" lon="151.2900747">
  <ele>354.34</ele>
  <time>2026-09-01T19:53:32Z</time>
  <course>7.98</course>
  <speed>0.8683317338436964</speed>
  <fix>3d</fix>
</trkpt>
<trkpt lat="-27.2743751" lon="151.2900744">
  <ele>354.34</ele>
  <time>2026-09-01T19:53:32Z</time>
  <course>8.05</course>
  <speed>0.87</speed>
  <fix>3d</fix>
</trkpt>
<trkpt lat="-27.2743727" lon="151.2900747">
  <ele>354.34</ele>
  <time>2026-09-01T19:53:32Z</time>
  <course>7.98</course>
  <speed>0.8683317338436964</speed>
  <fix>3d</fix>
</trkpt>
<trkpt lat="-27.2743735" lon="151.2900747">
  <ele>354.34</ele>
  <time>2026-09-01T19:53:32Z</time>
  <course>8.02</course>
  <speed>0.87</speed>
  <fix>3d</fix>
</trkpt>
<trkpt lat="-27.274372" lon="151.2900748">
  <ele>354.34</ele>
  <time>2026-09-01T19:53:32Z</time>
  <course>7.98</course>
  <speed>0.8683317338436964</speed>
  <fix>3d</fix>
</trkpt>
<trkpt lat="-27.2743735" lon="151.2900747">
  <ele>354.34</ele>
  <time>2026-09-01T19:53:32Z</time>
  <course>8.02</course>
  <speed>0.87</speed>
  <fix>3d</fix>
</trkpt>
<trkpt lat="-27.2743712" lon="151.2900751">
  <ele>354.34</ele>
  <time>2026-09-01T19:53:32Z</time>
  <course>7.98</course>
  <speed>0.8683317338436964</speed>
  <fix>3d</fix>
</trkpt>
<trkpt lat="-27.274372" lon="151.2900749">
  <ele>354.34</ele>
  <time>2026-09-01T19:53:32Z</time>
  <course>8.02</course>
  <speed>0.87</speed>
  <fix>3d</fix>
</trkpt>
<trkpt lat="-27.2743704" lon="151.2900752">
  <ele>354.33</ele>
  <time>2026-09-01T19:53:32Z</time>
  <course>7.98</course>
  <speed>0.8683317338436964</speed>
  <fix>3d</fix>
</trkpt>
<trkpt lat="-27.274372" lon="151.2900749">
  <ele>354.34</ele>
  <time>2026-09-01T19:53:32Z</time>
  <course>8.02</course>
  <speed>0.87</speed>
  <fix>3d</fix>
</trkpt>
<trkpt lat="-27.2743696" lon="151.2900752">
  <ele>354.33</ele>
  <time>2026-09-01T19:53:32Z</time>
  <course>7.99</course>
  <speed>0.8683317338436964</speed>
  <fix>3d</fix>
</trkpt>
<trkpt lat="-27.2743704" lon="151.2900752">
  <ele>354.33</ele>
  <time>2026-09-01T19:53:32Z</time>
  <course>8.03</course>
  <speed>0.87</speed>
  <fix>3d</fix>
</trkpt>
<trkpt lat="-27.2743689" lon="151.2900754">
  <ele>354.33</ele>
  <time>2026-09-01T19:53:32Z</time>
  <course>8.0</course>
  <speed>0.8683317338436964</speed>
  <fix>3d</fix>
</trkpt>
<trkpt lat="-27.2743704" lon="151.2900752">
  <ele>354.33</ele>
  <time>2026-09-01T19:53:32Z</time>
  <course>8.03</course>
  <speed>0.87</speed>
  <fix>3d</fix>
</trkpt>
<trkpt lat="-27.2743681" lon="151.2900756">
  <ele>354.33</ele>
  <time>2026-09-01T19:53:32Z</time>
  <course>8.0</course>
  <speed>0.8683317338436964</speed>
  <fix>3d</fix>
</trkpt>
<trkpt lat="-27.2743689" lon="151.2900754">
  <ele>354.33</ele>
  <time>2026-09-01T19:53:32Z</time>
  <course>8.05</course>
  <speed>0.87</speed>
  <fix>3d</fix>
</trkpt>
<trkpt lat="-27.2743673" lon="151.2900757">
  <ele>354.33</ele>
  <time>2026-09-01T19:53:32Z</time>
  <course>8.01</course>
  <speed>0.8683317338436964</speed>
  <fix>3d</fix>
</trkpt>
<trkpt lat="-27.2743689" lon="151.2900754">
  <ele>354.33</ele>
  <time>2026-09-01T19:53:32Z</time>
  <course>8.05</course>
  <speed>0.87</speed>
  <fix>3d</fix>
</trkpt>
<trkpt lat="-27.2743665" lon="151.2900757">
  <ele>354.33</ele>
  <time>2026-09-01T19:53:32Z</time>
  <course>8.01</course>
  <speed>0.8683317338436964</speed>
  <fix>3d</fix>
</trkpt>
<trkpt lat="-27.2743673" lon="151.2900757">
  <ele>354.33</ele>
  <time>2026-09-01T19:53:32Z</time>
  <course>8.07</course>
  <speed>0.87</speed>
  <fix>3d</fix>
</trkpt>
<trkpt lat="-27.2743657" lon="151.2900759">
  <ele>354.34</ele>
  <time>2026-09-01T19:53:32Z</time>
  <course>8.01</course>
  <speed>0.8683317338436964</speed>
  <fix>3d</fix>
</trkpt>
<trkpt lat="-27.2743673" lon="151.2900757">
  <ele>354.33</ele>
  <time>2026-09-01T19:53:32Z</time>
  <course>8.07</course>
  <speed>0.87</speed>
  <fix>3d</fix>
</trkpt>
<trkpt lat="-27.274365" lon="151.2900761">
  <ele>354.34</ele>
  <time>2026-09-01T19:53:32Z</time>
  <course>8.01</course>
  <speed>0.8683317338436964</speed>
  <fix>3d</fix>
</trkpt>
<trkpt lat="-27.2743658" lon="151.2900759">
  <ele>354.33</ele>
  <time>2026-09-01T19:53:32Z</time>
  <course>8.1</course>
  <speed>0.87</speed>
  <fix>3d</fix>
</trkpt>
<trkpt lat="-27.2743642" lon="151.2900761">
  <ele>354.34</ele>
  <time>2026-09-01T19:53:32Z</time>
  <course>8.0</course>
  <speed>0.8683317338436964</speed>
  <fix>3d</fix>
</trkpt>
<trkpt lat="-27.2743658" lon="151.2900759">
  <ele>354.33</ele>
  <time>2026-09-01T19:53:32Z</time>
  <course>8.1</course>
  <speed>0.87</speed>
  <fix>3d</fix>
</trkpt>
<trkpt lat="-27.2743634" lon="151.2900762">
  <ele>354.34</ele>
  <time>2026-09-01T19:53:32Z</time>
  <course>7.99</course>
  <speed>0.8683317338436964</speed>
  <fix>3d</fix>
</trkpt>
<trkpt lat="-27.2743642" lon="151.2900761">
  <ele>354.34</ele>
  <time>2026-09-01T19:53:32Z</time>
  <course>8.11</course>
  <speed>0.87</speed>
  <fix>3d</fix>
</trkpt>
<trkpt lat="-27.2743627" lon="151.2900764">
  <ele>354.34</ele>
  <time>2026-09-01T19:53:32Z</time>
  <course>7.99</course>
  <speed>0.8683317338436964</speed>
  <fix>3d</fix>
</trkpt>
<trkpt lat="-27.2743642" lon="151.2900761">
  <ele>354.34</ele>
  <time>2026-09-01T19:53:32Z</time>
  <course>8.11</course>
  <speed>0.87</speed>
  <fix>3d</fix>
</trkpt>
<trkpt lat="-27.2743619" lon="151.2900766">
  <ele>354.34</ele>
  <time>2026-09-01T19:53:32Z</time>
  <course>7.99</course>
  <speed>0.8683317338436964</speed>
  <fix>3d</fix>
</trkpt>
<trkpt lat="-27.2743627" lon="151.2900764">
  <ele>354.34</ele>
  <time>2026-09-01T19:53:32Z</time>
  <course>8.12</course>
  <speed>0.86</speed>
  <fix>3d</fix>
</trkpt>
<trkpt lat="-27.2743611" lon="151.2900766">
  <ele>354.34</ele>
  <time>2026-09-01T19:53:32Z</time>
  <course>7.99</course>
  <speed>0.8584287972802404</speed>
  <fix>3d</fix>
</trkpt>
<trkpt lat="-27.2743627" lon="151.2900764">
  <ele>354.34</ele>
  <time>2026-09-01T19:53:32Z</time>
  <course>8.12</course>
  <speed>0.86</speed>
  <fix>3d</fix>
</trkpt>
<trkpt lat="-27.2743603" lon="151.2900767">
  <ele>354.34</ele>
  <time>2026-09-01T19:53:32Z</time>
  <course>7.99</course>
  <speed>0.8584287972802404</speed>
  <fix>3d</fix>
</trkpt>
<trkpt lat="-27.2743611" lon="151.2900766">
  <ele>354.34</ele>
  <time>2026-09-01T19:53:32Z</time>
  <course>8.12</course>
  <speed>0.86</speed>
  <fix>3d</fix>
</trkpt>
<trkpt lat="-27.2743596" lon="151.2900769">
  <ele>354.34</ele>
  <time>2026-09-01T19:53:32Z</time>
  <course>7.99</course>
  <speed>0.8584287972802404</speed>
  <fix>3d</fix>
</trkpt>
<trkpt lat="-27.2743611" lon="151.2900766">
  <ele>354.34</ele>
  <time>2026-09-01T19:53:32Z</time>
  <course>8.12</course>
  <speed>0.86</speed>
  <fix>3d</fix>
</trkpt>
<trkpt lat="-27.2743588" lon="151.2900771">
  <ele>354.34</ele>
  <time>2026-09-01T19:53:32Z</time>
  <course>7.99</course>
  <speed>0.8584287972802404</speed>
  <fix>3d</fix>
</trkpt>
<trkpt lat="-27.2743595" lon="151.2900768">
  <ele>354.34</ele>
  <time>2026-09-01T19:53:32Z</time>
  <course>8.11</course>
  <speed>0.86</speed>
  <fix>3d</fix>
</trkpt>
<trkpt lat="-27.274358" lon="151.2900771">
  <ele>354.34</ele>
  <time>2026-09-01T19:53:32Z</time>
  <course>8.0</course>
  <speed>0.8584287972802404</speed>
  <fix>3d</fix>
</trkpt>
<trkpt lat="-27.2743595" lon="151.2900768">
  <ele>354.34</ele>
  <time>2026-09-01T19:53:32Z</time>
  <course>8.11</course>
  <speed>0.86</speed>
  <fix>3d</fix>
</trkpt>
<trkpt lat="-27.2743572" lon="151.2900773">
  <ele>354.34</ele>
  <time>2026-09-01T19:53:32Z</time>
  <course>8.01</course>
  <speed>0.8584287972802404</speed>
  <fix>3d</fix>
</trkpt>
<trkpt lat="-27.274358" lon="151.2900771">
  <ele>354.34</ele>
  <time>2026-09-01T19:53:32Z</time>
  <course>8.12</course>
  <speed>0.86</speed>
  <fix>3d</fix>
</trkpt>
<trkpt lat="-27.2743565" lon="151.2900774">
  <ele>354.34</ele>
  <time>2026-09-01T19:53:32Z</time>
  <course>8.02</course>
  <speed>0.8584287972802404</speed>
  <fix>3d</fix>
</trkpt>
<trkpt lat="-27.274358" lon="151.2900771">
  <ele>354.34</ele>
  <time>2026-09-01T19:53:32Z</time>
  <course>8.12</course>
  <speed>0.86</speed>
  <fix>3d</fix>
</trkpt>
<trkpt lat="-27.2743557" lon="151.2900775">
  <ele>354.34</ele>
  <time>2026-09-01T19:53:32Z</time>
  <course>8.02</course>
  <speed>0.8584287972802404</speed>
  <fix>3d</fix>
</trkpt>
<trkpt lat="-27.2743564" lon="151.2900774">
  <ele>354.34</ele>
  <time>2026-09-01T19:53:32Z</time>
  <course>8.13</course>
  <speed>0.86</speed>
  <fix>3d</fix>
</trkpt>
<trkpt lat="-27.2743549" lon="151.2900776">
  <ele>354.34</ele>
  <time>2026-09-01T19:53:32Z</time>
  <course>8.03</course>
  <speed>0.8584287972802404</speed>
  <fix>3d</fix>
</trkpt>
<trkpt lat="-27.2743564" lon="151.2900774">
  <ele>354.34</ele>
  <time>2026-09-01T19:53:32Z</time>
  <course>8.13</course>
  <speed>0.86</speed>
  <fix>3d</fix>
</trkpt>
<trkpt lat="-27.2743542" lon="151.2900778">
  <ele>354.34</ele>
  <time>2026-09-01T19:53:32Z</time>
  <course>8.03</course>
  <speed>0.8584287972802404</speed>
  <fix>3d</fix>
</trkpt>
<trkpt lat="-27.2743549" lon="151.2900776">
  <ele>354.34</ele>
  <time>2026-09-01T19:53:32Z</time>
  <course>8.14</course>
  <speed>0.86</speed>
  <fix>3d</fix>
</trkpt>
<trkpt lat="-27.2743534" lon="151.2900779">
  <ele>354.34</ele>
  <time>2026-09-01T19:53:32Z</time>
  <course>8.03</course>
  <speed>0.8584287972802404</speed>
  <fix>3d</fix>
</trkpt>
<trkpt lat="-27.2743549" lon="151.2900776">
  <ele>354.34</ele>
  <time>2026-09-01T19:53:32Z</time>
  <course>8.14</course>
  <speed>0.86</speed>
  <fix>3d</fix>
</trkpt>
<trkpt lat="-27.2743526" lon="151.290078">
  <ele>354.34</ele>
  <time>2026-09-01T19:53:32Z</time>
  <course>8.03</course>
  <speed>0.8584287972802404</speed>
  <fix>3d</fix>
</trkpt>
<trkpt lat="-27.2743534" lon="151.2900779">
  <ele>354.34</ele>
  <time>2026-09-01T19:53:32Z</time>
  <course>8.16</course>
  <speed>0.86</speed>
  <fix>3d</fix>
</trkpt>
<trkpt lat="-27.2743519" lon="151.2900781">
  <ele>354.34</ele>
  <time>2026-09-01T19:53:32Z</time>
  <course>8.03</course>
  <speed>0.8584287972802404</speed>
  <fix>3d</fix>
</trkpt>
<trkpt lat="-27.2743534" lon="151.2900779">
  <ele>354.34</ele>
  <time>2026-09-01T19:53:32Z</time>
  <course>8.16</course>
  <speed>0.86</speed>
  <fix>3d</fix>
</trkpt>
<trkpt lat="-27.2743511" lon="151.2900783">
  <ele>354.34</ele>
  <time>2026-09-01T19:53:32Z</time>
  <course>8.02</course>
  <speed>0.8584287972802404</speed>
  <fix>3d</fix>
</trkpt>
<trkpt lat="-27.2743519" lon="151.2900781">
  <ele>354.34</ele>
  <time>2026-09-01T19:53:32Z</time>
  <course>8.18</course>
  <speed>0.86</speed>
  <fix>3d</fix>
</trkpt>
<trkpt lat="-27.2743503" lon="151.2900784">
  <ele>354.34</ele>
  <time>2026-09-01T19:53:32Z</time>
  <course>8.01</course>
  <speed>0.8584287972802404</speed>
  <fix>3d</fix>
</trkpt>
<trkpt lat="-27.2743519" lon="151.2900781">
  <ele>354.34</ele>
  <time>2026-09-01T19:53:32Z</time>
  <course>8.18</course>
  <speed>0.86</speed>
  <fix>3d</fix>
</trkpt>
<trkpt lat="-27.2743496" lon="151.2900785">
  <ele>354.34</ele>
  <time>2026-09-01T19:53:32Z</time>
  <course>7.99</course>
  <speed>0.8584287972802404</speed>
  <fix>3d</fix>
</trkpt>
<trkpt lat="-27.2743503" lon="151.2900784">
  <ele>354.34</ele>
  <time>2026-09-01T19:53:32Z</time>
  <course>8.2</course>
  <speed>0.86</speed>
  <fix>3d</fix>
</trkpt>
<trkpt lat="-27.2743488" lon="151.2900786">
  <ele>354.34</ele>
  <time>2026-09-01T19:53:32Z</time>
  <course>7.99</course>
  <speed>0.8584287972802404</speed>
  <fix>3d</fix>
</trkpt>
<trkpt lat="-27.2743503" lon="151.2900784">
  <ele>354.34</ele>
  <time>2026-09-01T19:53:32Z</time>
  <course>8.2</course>
  <speed>0.86</speed>
  <fix>3d</fix>
</trkpt>
<trkpt lat="-27.274348" lon="151.2900788">
  <ele>354.34</ele>
  <time>2026-09-01T19:53:32Z</time>
  <course>7.98</course>
  <speed>0.848528137423857</speed>
  <fix>3d</fix>
</trkpt>
<trkpt lat="-27.2743488" lon="151.2900786">
  <ele>354.34</ele>
  <time>2026-09-01T19:53:32Z</time>
  <course>8.24</course>
  <speed>0.85</speed>
  <fix>3d</fix>
</trkpt>
<trkpt lat="-27.2743473" lon="151.2900789">
  <ele>354.34</ele>
  <time>2026-09-01T19:53:32Z</time>
  <course>7.99</course>
  <speed>0.848528137423857</speed>
  <fix>3d</fix>
</trkpt>
<trkpt lat="-27.2743488" lon="151.2900786">
  <ele>354.34</ele>
  <time>2026-09-01T19:53:32Z</time>
  <course>8.24</course>
  <speed>0.85</speed>
  <fix>3d</fix>
</trkpt>
<trkpt lat="-27.2743465" lon="151.290079">
  <ele>354.34</ele>
  <time>2026-09-01T19:53:32Z</time>
  <course>7.99</course>
  <speed>0.848528137423857</speed>
  <fix>3d</fix>
</trkpt>
<trkpt lat="-27.2743473" lon="151.2900789">
  <ele>354.34</ele>
  <time>2026-09-01T19:53:32Z</time>
  <course>8.28</course>
  <speed>0.85</speed>
  <fix>3d</fix>
</trkpt>
<trkpt lat="-27.2743458" lon="151.2900791">
  <ele>354.34</ele>
  <time>2026-09-01T19:53:32Z</time>
  <course>7.99</course>
  <speed>0.848528137423857</speed>
  <fix>3d</fix>
</trkpt>
<trkpt lat="-27.2743473" lon="151.2900789">
  <ele>354.34</ele>
  <time>2026-09-01T19:53:32Z</time>
  <course>8.28</course>
  <speed>0.85</speed>
  <fix>3d</fix>
</trkpt>
<trkpt lat="-27.274345" lon="151.2900793">
  <ele>354.34</ele>
  <time>2026-09-01T19:53:32Z</time>
  <course>7.99</course>
  <speed>0.848528137423857</speed>
  <fix>3d</fix>
</trkpt>
<trkpt lat="-27.2743458" lon="151.2900791">
  <ele>354.34</ele>
  <time>2026-09-01T19:53:32Z</time>
  <course>8.31</course>
  <speed>0.85</speed>
  <fix>3d</fix>
</trkpt>
<trkpt lat="-27.2743442" lon="151.2900794">
  <ele>354.34</ele>
  <time>2026-09-01T19:53:32Z</time>
  <course>7.99</course>
  <speed>0.848528137423857</speed>
  <fix>3d</fix>
</trkpt>
<trkpt lat="-27.2743458" lon="151.2900791">
  <ele>354.34</ele>
  <time>2026-09-01T19:53:32Z</time>
  <course>8.31</course>
  <speed>0.85</speed>
  <fix>3d</fix>
</trkpt>
<trkpt lat="-27.2743435" lon="151.2900795">
  <ele>354.34</ele>
  <time>2026-09-01T19:53:32Z</time>
  <course>7.99</course>
  <speed>0.848528137423857</speed>
  <fix>3d</fix>
</trkpt>
<trkpt lat="-27.2743442" lon="151.2900794">
  <ele>354.34</ele>
  <time>2026-09-01T19:53:32Z</time>
  <course>8.33</course>
  <speed>0.85</speed>
  <fix>3d</fix>
</trkpt>
<trkpt lat="-27.2743427" lon="151.2900797">
  <ele>354.34</ele>
  <time>2026-09-01T19:53:32Z</time>
  <course>7.99</course>
  <speed>0.848528137423857</speed>
  <fix>3d</fix>
</trkpt>
<trkpt lat="-27.2743442" lon="151.2900794">
  <ele>354.34</ele>
  <time>2026-09-01T19:53:32Z</time>
  <course>8.33</course>
  <speed>0.85</speed>
  <fix>3d</fix>
</trkpt>
<trkpt lat="-27.274342" lon="151.2900798">
  <ele>354.34</ele>
  <time>2026-09-01T19:53:32Z</time>
  <course>7.99</course>
  <speed>0.848528137423857</speed>
  <fix>3d</fix>
</trkpt>
<trkpt lat="-27.2743427" lon="151.2900796">
  <ele>354.34</ele>
  <time>2026-09-01T19:53:32Z</time>
  <course>8.34</course>
  <speed>0.85</speed>
  <fix>3d</fix>
</trkpt>
<trkpt lat="-27.2743412" lon="151.2900799">
  <ele>354.34</ele>
  <time>2026-09-01T19:53:32Z</time>
  <course>8.0</course>
  <speed>0.848528137423857</speed>
  <fix>3d</fix>
</trkpt>
<trkpt lat="-27.2743427" lon="151.2900796">
  <ele>354.34</ele>
  <time>2026-09-01T19:53:32Z</time>
  <course>8.34</course>
  <speed>0.85</speed>
  <fix>3d</fix>
</trkpt>
<trkpt lat="-27.2743404" lon="151.29008">
  <ele>354.34</ele>
  <time>2026-09-01T19:53:32Z</time>
  <course>8.0</course>
  <speed>0.848528137423857</speed>
  <fix>3d</fix>
</trkpt>
<trkpt lat="-27.2743412" lon="151.2900799">
  <ele>354.34</ele>
  <time>2026-09-01T19:53:32Z</time>
  <course>8.34</course>
  <speed>0.85</speed>
  <fix>3d</fix>
</trkpt>
<trkpt lat="-27.2743397" lon="151.2900802">
  <ele>354.34</ele>
  <time>2026-09-01T19:53:32Z</time>
  <course>8.0</course>
  <speed>0.848528137423857</speed>
  <fix>3d</fix>
</trkpt>
<trkpt lat="-27.2743412" lon="151.2900799">
  <ele>354.34</ele>
  <time>2026-09-01T19:53:32Z</time>
  <course>8.34</course>
  <speed>0.85</speed>
  <fix>3d</fix>
</trkpt>
<trkpt lat="-27.2743389" lon="151.2900803">
  <ele>354.35</ele>
  <time>2026-09-01T19:53:32Z</time>
  <course>7.99</course>
  <speed>0.848528137423857</speed>
  <fix>3d</fix>
</trkpt>
<trkpt lat="-27.2743397" lon="151.2900801">
  <ele>354.34</ele>
  <time>2026-09-01T19:53:32Z</time>
  <course>8.32</course>
  <speed>0.85</speed>
  <fix>3d</fix>
</trkpt>
<trkpt lat="-27.2743382" lon="151.2900804">
  <ele>354.35</ele>
  <time>2026-09-01T19:53:32Z</time>
  <course>7.99</course>
  <speed>0.848528137423857</speed>
  <fix>3d</fix>
</trkpt>
<trkpt lat="-27.2743397" lon="151.2900801">
  <ele>354.34</ele>
  <time>2026-09-01T19:53:32Z</time>
  <course>8.32</course>
  <speed>0.85</speed>
  <fix>3d</fix>
</trkpt>
<trkpt lat="-27.2743374" lon="151.2900804">
  <ele>354.35</ele>
  <time>2026-09-01T19:53:32Z</time>
  <course>7.99</course>
  <speed>0.848528137423857</speed>
  <fix>3d</fix>
</trkpt>
<trkpt lat="-27.2743382" lon="151.2900804">
  <ele>354.35</ele>
  <time>2026-09-01T19:53:32Z</time>
  <course>8.28</course>
  <speed>0.85</speed>
  <fix>3d</fix>
</trkpt>
<trkpt lat="-27.2743366" lon="151.2900807">
  <ele>354.35</ele>
  <time>2026-09-01T19:53:32Z</time>
  <course>7.99</course>
  <speed>0.848528137423857</speed>
  <fix>3d</fix>
</trkpt>
<trkpt lat="-27.2743382" lon="151.2900804">
  <ele>354.35</ele>
  <time>2026-09-01T19:53:32Z</time>
  <course>8.28</course>
  <speed>0.85</speed>
  <fix>3d</fix>
</trkpt>
<trkpt lat="-27.2743359" lon="151.2900808">
  <ele>354.35</ele>
  <time>2026-09-01T19:53:32Z</time>
  <course>7.99</course>
  <speed>0.848528137423857</speed>
  <fix>3d</fix>
</trkpt>
<trkpt lat="-27.2743366" lon="151.2900806">
  <ele>354.35</ele>
  <time>2026-09-01T19:53:32Z</time>
  <course>8.25</course>
  <speed>0.85</speed>
  <fix>3d</fix>
</trkpt>
<trkpt lat="-27.2743351" lon="151.2900809">
  <ele>354.35</ele>
  <time>2026-09-01T19:53:32Z</time>
  <course>7.99</course>
  <speed>0.848528137423857</speed>
  <fix>3d</fix>
</trkpt>
<trkpt lat="-27.2743366" lon="151.2900806">
  <ele>354.35</ele>
  <time>2026-09-01T19:53:32Z</time>
  <course>8.25</course>
  <speed>0.85</speed>
  <fix>3d</fix>
</trkpt>
<trkpt lat="-27.2743344" lon="151.2900809">
  <ele>354.35</ele>
  <time>2026-09-01T19:53:32Z</time>
  <course>8.0</course>
  <speed>0.848528137423857</speed>
  <fix>3d</fix>
</trkpt>
<trkpt lat="-27.2743351" lon="151.2900809">
  <ele>354.35</ele>
  <time>2026-09-01T19:53:32Z</time>
  <course>8.24</course>
  <speed>0.85</speed>
  <fix>3d</fix>
</trkpt>
<trkpt lat="-27.2743336" lon="151.2900812">
  <ele>354.36</ele>
  <time>2026-09-01T19:53:32Z</time>
  <course>8.0</course>
  <speed>0.848528137423857</speed>
  <fix>3d</fix>
</trkpt>
<trkpt lat="-27.2743351" lon="151.2900809">
  <ele>354.35</ele>
  <time>2026-09-01T19:53:32Z</time>
  <course>8.24</course>
  <speed>0.85</speed>
  <fix>3d</fix>
</trkpt>
<trkpt lat="-27.2743329" lon="151.2900813">
  <ele>354.36</ele>
  <time>2026-09-01T19:53:32Z</time>
  <course>8.0</course>
  <speed>0.848528137423857</speed>
  <fix>3d</fix>
</trkpt>
<trkpt lat="-27.2743336" lon="151.2900811">
  <ele>354.35</ele>
  <time>2026-09-01T19:53:32Z</time>
  <course>8.2</course>
  <speed>0.85</speed>
  <fix>3d</fix>
</trkpt>
<trkpt lat="-27.2743321" lon="151.2900814">
  <ele>354.36</ele>
  <time>2026-09-01T19:53:32Z</time>
  <course>8.0</course>
  <speed>0.848528137423857</speed>
  <fix>3d</fix>
</trkpt>
<trkpt lat="-27.2743336" lon="151.2900811">
  <ele>354.35</ele>
  <time>2026-09-01T19:53:32Z</time>
  <course>8.2</course>
  <speed>0.85</speed>
  <fix>3d</fix>
</trkpt>
<trkpt lat="-27.2743314" lon="151.2900814">
  <ele>354.36</ele>
  <time>2026-09-01T19:53:32Z</time>
  <course>8.0</course>
  <speed>0.848528137423857</speed>
  <fix>3d</fix>
</trkpt>
<trkpt lat="-27.2743321" lon="151.2900814">
  <ele>354.36</ele>
  <time>2026-09-01T19:53:32Z</time>
  <course>8.17</course>
  <speed>0.85</speed>
  <fix>3d</fix>
</trkpt>
<trkpt lat="-27.2743306" lon="151.2900815">
  <ele>354.36</ele>
  <time>2026-09-01T19:53:33Z</time>
  <course>8.0</course>
  <speed>0.848528137423857</speed>
  <fix>3d</fix>
</trkpt>
<trkpt lat="-27.2743321" lon="151.2900814">
  <ele>354.36</ele>
  <time>2026-09-01T19:53:33Z</time>
  <course>8.17</course>
  <speed>0.85</speed>
  <fix>3d</fix>
</trkpt>
<trkpt lat="-27.2743298" lon="151.2900818">
  <ele>354.36</ele>
  <time>2026-09-01T19:53:33Z</time>
  <course>8.0</course>
  <speed>0.8386298349093002</speed>
  <fix>3d</fix>
</trkpt>
<trkpt lat="-27.2743306" lon="151.2900816">
  <ele>354.36</ele>
  <time>2026-09-01T19:53:33Z</time>
  <course>8.18</course>
  <speed>0.84</speed>
  <fix>3d</fix>
</trkpt>
<trkpt lat="-27.2743291" lon="151.2900819">
  <ele>354.36</ele>
  <time>2026-09-01T19:53:33Z</time>
  <course>8.0</course>
  <speed>0.8386298349093002</speed>
  <fix>3d</fix>
</trkpt>
<trkpt lat="-27.2743306" lon="151.2900816">
  <ele>354.36</ele>
  <time>2026-09-01T19:53:33Z</time>
  <course>8.18</course>
  <speed>0.84</speed>
  <fix>3d</fix>
</trkpt>
<trkpt lat="-27.2743283" lon="151.2900819">
  <ele>354.36</ele>
  <time>2026-09-01T19:53:33Z</time>
  <course>8.0</course>
  <speed>0.8386298349093002</speed>
  <fix>3d</fix>
</trkpt>
<trkpt lat="-27.2743291" lon="151.2900819">
  <ele>354.36</ele>
  <time>2026-09-01T19:53:33Z</time>
  <course>8.2</course>
  <speed>0.84</speed>
  <fix>3d</fix>
</trkpt>
<trkpt lat="-27.2743276" lon="151.2900821">
  <ele>354.36</ele>
  <time>2026-09-01T19:53:33Z</time>
  <course>8.0</course>
  <speed>0.8386298349093002</speed>
  <fix>3d</fix>
</trkpt>
<trkpt lat="-27.2743291" lon="151.2900819">
  <ele>354.36</ele>
  <time>2026-09-01T19:53:33Z</time>
  <course>8.2</course>
  <speed>0.84</speed>
  <fix>3d</fix>
</trkpt>
<trkpt lat="-27.2743268" lon="151.2900823">
  <ele>354.36</ele>
  <time>2026-09-01T19:53:33Z</time>
  <course>8.0</course>
  <speed>0.8386298349093002</speed>
  <fix>3d</fix>
</trkpt>
<trkpt lat="-27.2743276" lon="151.2900821">
  <ele>354.36</ele>
  <time>2026-09-01T19:53:33Z</time>
  <course>8.22</course>
  <speed>0.84</speed>
  <fix>3d</fix>
</trkpt>
<trkpt lat="-27.2743261" lon="151.2900824">
  <ele>354.36</ele>
  <time>2026-09-01T19:53:33Z</time>
  <course>8.0</course>
  <speed>0.8386298349093002</speed>
  <fix>3d</fix>
</trkpt>
<trkpt lat="-27.2743276" lon="151.2900821">
  <ele>354.36</ele>
  <time>2026-09-01T19:53:33Z</time>
  <course>8.22</course>
  <speed>0.84</speed>
  <fix>3d</fix>
</trkpt>
<trkpt lat="-27.2743253" lon="151.2900824">
  <ele>354.36</ele>
  <time>2026-09-01T19:53:33Z</time>
  <course>8.0</course>
  <speed>0.8386298349093002</speed>
  <fix>3d</fix>
</trkpt>
<trkpt lat="-27.2743261" lon="151.2900824">
  <ele>354.36</ele>
  <time>2026-09-01T19:53:33Z</time>
  <course>8.21</course>
  <speed>0.84</speed>
  <fix>3d</fix>
</trkpt>
<trkpt lat="-27.2743246" lon="151.2900826">
  <ele>354.36</ele>
  <time>2026-09-01T19:53:33Z</time>
  <course>8.0</course>
  <speed>0.8386298349093002</speed>
  <fix>3d</fix>
</trkpt>
<trkpt lat="-27.2743261" lon="151.2900824">
  <ele>354.36</ele>
  <time>2026-09-01T19:53:33Z</time>
  <course>8.21</course>
  <speed>0.84</speed>
  <fix>3d</fix>
</trkpt>
<trkpt lat="-27.2743238" lon="151.2900827">
  <ele>354.36</ele>
  <time>2026-09-01T19:53:33Z</time>
  <course>8.0</course>
  <speed>0.8386298349093002</speed>
  <fix>3d</fix>
</trkpt>
<trkpt lat="-27.2743246" lon="151.2900826">
  <ele>354.36</ele>
  <time>2026-09-01T19:53:33Z</time>
  <course>8.21</course>
  <speed>0.84</speed>
  <fix>3d</fix>
</trkpt>
<trkpt lat="-27.2743231" lon="151.2900828">
  <ele>354.36</ele>
  <time>2026-09-01T19:53:33Z</time>
  <course>8.0</course>
  <speed>0.8386298349093002</speed>
  <fix>3d</fix>
</trkpt>
<trkpt lat="-27.2743246" lon="151.2900826">
  <ele>354.36</ele>
  <time>2026-09-01T19:53:33Z</time>
  <course>8.21</course>
  <speed>0.84</speed>
  <fix>3d</fix>
</trkpt>
<trkpt lat="-27.2743223" lon="151.2900829">
  <ele>354.36</ele>
  <time>2026-09-01T19:53:33Z</time>
  <course>8.01</course>
  <speed>0.8386298349093002</speed>
  <fix>3d</fix>
</trkpt>
<trkpt lat="-27.2743231" lon="151.2900828">
  <ele>354.36</ele>
  <time>2026-09-01T19:53:33Z</time>
  <course>8.23</course>
  <speed>0.84</speed>
  <fix>3d</fix>
</trkpt>
<trkpt lat="-27.2743216" lon="151.2900831">
  <ele>354.36</ele>
  <time>2026-09-01T19:53:33Z</time>
  <course>8.01</course>
  <speed>0.8386298349093002</speed>
  <fix>3d</fix>
</trkpt>
<trkpt lat="-27.2743231" lon="151.2900828">
  <ele>354.36</ele>
  <time>2026-09-01T19:53:33Z</time>
  <course>8.23</course>
  <speed>0.84</speed>
  <fix>3d</fix>
</trkpt>
<trkpt lat="-27.2743208" lon="151.2900832">
  <ele>354.36</ele>
  <time>2026-09-01T19:53:33Z</time>
  <course>8.01</course>
  <speed>0.8386298349093002</speed>
  <fix>3d</fix>
</trkpt>
<trkpt lat="-27.2743216" lon="151.2900831">
  <ele>354.36</ele>
  <time>2026-09-01T19:53:33Z</time>
  <course>8.24</course>
  <speed>0.84</speed>
  <fix>3d</fix>
</trkpt>
<trkpt lat="-27.2743201" lon="151.2900833">
  <ele>354.36</ele>
  <time>2026-09-01T19:53:33Z</time>
  <course>8.01</course>
  <speed>0.8386298349093002</speed>
  <fix>3d</fix>
</trkpt>
<trkpt lat="-27.2743216" lon="151.2900831">
  <ele>354.36</ele>
  <time>2026-09-01T19:53:33Z</time>
  <course>8.24</course>
  <speed>0.84</speed>
  <fix>3d</fix>
</trkpt>
<trkpt lat="-27.2743193" lon="151.2900834">
  <ele>354.36</ele>
  <time>2026-09-01T19:53:33Z</time>
  <course>8.0</course>
  <speed>0.8386298349093002</speed>
  <fix>3d</fix>
</trkpt>
<trkpt lat="-27.27432" lon="151.2900833">
  <ele>354.36</ele>
  <time>2026-09-01T19:53:33Z</time>
  <course>8.25</course>
  <speed>0.84</speed>
  <fix>3d</fix>
</trkpt>
<trkpt lat="-27.2743186" lon="151.2900836">
  <ele>354.36</ele>
  <time>2026-09-01T19:53:33Z</time>
  <course>7.99</course>
  <speed>0.8386298349093002</speed>
  <fix>3d</fix>
</trkpt>
<trkpt lat="-27.27432" lon="151.2900833">
  <ele>354.36</ele>
  <time>2026-09-01T19:53:33Z</time>
  <course>8.25</course>
  <speed>0.84</speed>
  <fix>3d</fix>
</trkpt>
<trkpt lat="-27.2743178" lon="151.2900837">
  <ele>354.36</ele>
  <time>2026-09-01T19:53:33Z</time>
  <course>7.99</course>
  <speed>0.8386298349093002</speed>
  <fix>3d</fix>
</trkpt>
<trkpt lat="-27.2743186" lon="151.2900836">
  <ele>354.36</ele>
  <time>2026-09-01T19:53:33Z</time>
  <course>8.26</course>
  <speed>0.84</speed>
  <fix>3d</fix>
</trkpt>
<trkpt lat="-27.2743171" lon="151.2900838">
  <ele>354.36</ele>
  <time>2026-09-01T19:53:33Z</time>
  <course>7.99</course>
  <speed>0.8386298349093002</speed>
  <fix>3d</fix>
</trkpt>
<trkpt lat="-27.2743186" lon="151.2900836">
  <ele>354.36</ele>
  <time>2026-09-01T19:53:33Z</time>
  <course>8.26</course>
  <speed>0.84</speed>
  <fix>3d</fix>
</trkpt>
<trkpt lat="-27.2743163" lon="151.290084">
  <ele>354.36</ele>
  <time>2026-09-01T19:53:33Z</time>
  <course>7.99</course>
  <speed>0.8386298349093002</speed>
  <fix>3d</fix>
</trkpt>
<trkpt lat="-27.2743171" lon="151.2900838">
  <ele>354.36</ele>
  <time>2026-09-01T19:53:33Z</time>
  <course>8.28</course>
  <speed>0.84</speed>
  <fix>3d</fix>
</trkpt>
<trkpt lat="-27.2743156" lon="151.2900841">
  <ele>354.36</ele>
  <time>2026-09-01T19:53:33Z</time>
  <course>7.99</course>
  <speed>0.8386298349093002</speed>
  <fix>3d</fix>
</trkpt>
<trkpt lat="-27.2743171" lon="151.2900838">
  <ele>354.36</ele>
  <time>2026-09-01T19:53:33Z</time>
  <course>8.28</course>
  <speed>0.84</speed>
  <fix>3d</fix>
</trkpt>
<trkpt lat="-27.2743148" lon="151.2900842">
  <ele>354.36</ele>
  <time>2026-09-01T19:53:33Z</time>
  <course>7.99</course>
  <speed>0.8386298349093002</speed>
  <fix>3d</fix>
</trkpt>
<trkpt lat="-27.2743156" lon="151.2900841">
  <ele>354.36</ele>
  <time>2026-09-01T19:53:33Z</time>
  <course>8.29</course>
  <speed>0.83</speed>
  <fix>3d</fix>
</trkpt>
<trkpt lat="-27.2743141" lon="151.2900843">
  <ele>354.36</ele>
  <time>2026-09-01T19:53:33Z</time>
  <course>7.99</course>
  <speed>0.8287339742040264</speed>
  <fix>3d</fix>
</trkpt>
<trkpt lat="-27.2743156" lon="151.2900841">
  <ele>354.36</ele>
  <time>2026-09-01T19:53:33Z</time>
  <course>8.29</course>
  <speed>0.83</speed>
  <fix>3d</fix>
</trkpt>
<trkpt lat="-27.2743134" lon="151.2900845">
  <ele>354.36</ele>
  <time>2026-09-01T19:53:33Z</time>
  <course>7.99</course>
  <speed>0.8287339742040264</speed>
  <fix>3d</fix>
</trkpt>
<trkpt lat="-27.2743141" lon="151.2900843">
  <ele>354.36</ele>
  <time>2026-09-01T19:53:33Z</time>
  <course>8.28</course>
  <speed>0.83</speed>
  <fix>3d</fix>
</trkpt>
<trkpt lat="-27.2743126" lon="151.2900846">
  <ele>354.36</ele>
  <time>2026-09-01T19:53:33Z</time>
  <course>7.99</course>
  <speed>0.8287339742040264</speed>
  <fix>3d</fix>
</trkpt>
<trkpt lat="-27.2743141" lon="151.2900843">
  <ele>354.36</ele>
  <time>2026-09-01T19:53:33Z</time>
  <course>8.28</course>
  <speed>0.83</speed>
  <fix>3d</fix>
</trkpt>
<trkpt lat="-27.2743119" lon="151.2900847">
  <ele>354.36</ele>
  <time>2026-09-01T19:53:33Z</time>
  <course>7.99</course>
  <speed>0.8287339742040264</speed>
  <fix>3d</fix>
</trkpt>
<trkpt lat="-27.2743126" lon="151.2900846">
  <ele>354.36</ele>
  <time>2026-09-01T19:53:33Z</time>
  <course>8.27</course>
  <speed>0.83</speed>
  <fix>3d</fix>
</trkpt>
<trkpt lat="-27.2743111" lon="151.2900848">
  <ele>354.36</ele>
  <time>2026-09-01T19:53:33Z</time>
  <course>7.99</course>
  <speed>0.8287339742040264</speed>
  <fix>3d</fix>
</trkpt>
<trkpt lat="-27.2743126" lon="151.2900846">
  <ele>354.36</ele>
  <time>2026-09-01T19:53:33Z</time>
  <course>8.27</course>
  <speed>0.83</speed>
  <fix>3d</fix>
</trkpt>
<trkpt lat="-27.2743104" lon="151.2900848">
  <ele>354.36</ele>
  <time>2026-09-01T19:53:33Z</time>
  <course>7.99</course>
  <speed>0.8287339742040264</speed>
  <fix>3d</fix>
</trkpt>
<trkpt lat="-27.2743111" lon="151.2900848">
  <ele>354.36</ele>
  <time>2026-09-01T19:53:33Z</time>
  <course>8.27</course>
  <speed>0.83</speed>
  <fix>3d</fix>
</trkpt>
<trkpt lat="-27.2743096" lon="151.2900851">
  <ele>354.36</ele>
  <time>2026-09-01T19:53:33Z</time>
  <course>7.99</course>
  <speed>0.8287339742040264</speed>
  <fix>3d</fix>
</trkpt>
<trkpt lat="-27.2743111" lon="151.2900848">
  <ele>354.36</ele>
  <time>2026-09-01T19:53:33Z</time>
  <course>8.27</course>
  <speed>0.83</speed>
  <fix>3d</fix>
</trkpt>
<trkpt lat="-27.2743089" lon="151.2900852">
  <ele>354.35</ele>
  <time>2026-09-01T19:53:33Z</time>
  <course>8.0</course>
  <speed>0.8287339742040264</speed>
  <fix>3d</fix>
</trkpt>
<trkpt lat="-27.2743096" lon="151.290085">
  <ele>354.35</ele>
  <time>2026-09-01T19:53:33Z</time>
  <course>8.27</course>
  <speed>0.83</speed>
  <fix>3d</fix>
</trkpt>
<trkpt lat="-27.2743081" lon="151.2900852">
  <ele>354.35</ele>
  <time>2026-09-01T19:53:33Z</time>
  <course>8.0</course>
  <speed>0.8287339742040264</speed>
  <fix>3d</fix>
</trkpt>
<trkpt lat="-27.2743096" lon="151.290085">
  <ele>354.35</ele>
  <time>2026-09-01T19:53:33Z</time>
  <course>8.27</course>
  <speed>0.83</speed>
  <fix>3d</fix>
</trkpt>
<trkpt lat="-27.2743074" lon="151.2900853">
  <ele>354.35</ele>
  <time>2026-09-01T19:53:33Z</time>
  <course>8.0</course>
  <speed>0.8287339742040264</speed>
  <fix>3d</fix>
</trkpt>
<trkpt lat="-27.2743081" lon="151.2900852">
  <ele>354.35</ele>
  <time>2026-09-01T19:53:33Z</time>
  <course>8.27</course>
  <speed>0.83</speed>
  <fix>3d</fix>
</trkpt>
<trkpt lat="-27.2743067" lon="151.2900856">
  <ele>354.35</ele>
  <time>2026-09-01T19:53:33Z</time>
  <course>8.01</course>
  <speed>0.8287339742040264</speed>
  <fix>3d</fix>
</trkpt>
<trkpt lat="-27.2743081" lon="151.2900852">
  <ele>354.35</ele>
  <time>2026-09-01T19:53:33Z</time>
  <course>8.27</course>
  <speed>0.83</speed>
  <fix>3d</fix>
</trkpt>
<trkpt lat="-27.2743059" lon="151.2900857">
  <ele>354.35</ele>
  <time>2026-09-01T19:53:33Z</time>
  <course>8.02</course>
  <speed>0.8287339742040264</speed>
  <fix>3d</fix>
</trkpt>
<trkpt lat="-27.2743066" lon="151.2900855">
  <ele>354.35</ele>
  <time>2026-09-01T19:53:33Z</time>
  <course>8.28</course>
  <speed>0.83</speed>
  <fix>3d</fix>
</trkpt>
<trkpt lat="-27.2743052" lon="151.2900857">
  <ele>354.35</ele>
  <time>2026-09-01T19:53:33Z</time>
  <course>8.02</course>
  <speed>0.8287339742040264</speed>
  <fix>3d</fix>
</trkpt>
<trkpt lat="-27.2743066" lon="151.2900855">
  <ele>354.35</ele>
  <time>2026-09-01T19:53:33Z</time>
  <course>8.28</course>
  <speed>0.83</speed>
  <fix>3d</fix>
</trkpt>
<trkpt lat="-27.2743044" lon="151.2900858">
  <ele>354.36</ele>
  <time>2026-09-01T19:53:33Z</time>
  <course>8.02</course>
  <speed>0.8287339742040264</speed>
  <fix>3d</fix>
</trkpt>
<trkpt lat="-27.2743052" lon="151.2900857">
  <ele>354.35</ele>
  <time>2026-09-01T19:53:33Z</time>
  <course>8.28</course>
  <speed>0.83</speed>
  <fix>3d</fix>
</trkpt>
<trkpt lat="-27.2743037" lon="151.290086">
  <ele>354.36</ele>
  <time>2026-09-01T19:53:33Z</time>
  <course>8.02</course>
  <speed>0.8287339742040264</speed>
  <fix>3d</fix>
</trkpt>
<trkpt lat="-27.2743052" lon="151.2900857">
  <ele>354.35</ele>
  <time>2026-09-01T19:53:33Z</time>
  <course>8.28</course>
  <speed>0.83</speed>
  <fix>3d</fix>
</trkpt>
<trkpt lat="-27.274303" lon="151.2900862">
  <ele>354.36</ele>
  <time>2026-09-01T19:53:33Z</time>
  <course>8.02</course>
  <speed>0.8287339742040264</speed>
  <fix>3d</fix>
</trkpt>
<trkpt lat="-27.2743037" lon="151.290086">
  <ele>354.36</ele>
  <time>2026-09-01T19:53:33Z</time>
  <course>8.3</course>
  <speed>0.83</speed>
  <fix>3d</fix>
</trkpt>
<trkpt lat="-27.2743022" lon="151.2900862">
  <ele>354.36</ele>
  <time>2026-09-01T19:53:33Z</time>
  <course>8.01</course>
  <speed>0.8287339742040264</speed>
  <fix>3d</fix>
</trkpt>
<trkpt lat="-27.2743037" lon="151.290086">
  <ele>354.36</ele>
  <time>2026-09-01T19:53:33Z</time>
  <course>8.3</course>
  <speed>0.83</speed>
  <fix>3d</fix>
</trkpt>
<trkpt lat="-27.2743015" lon="151.2900864">
  <ele>354.36</ele>
  <time>2026-09-01T19:53:33Z</time>
  <course>8.01</course>
  <speed>0.8273451516749222</speed>
  <fix>3d</fix>
</trkpt>
<trkpt lat="-27.2743022" lon="151.2900862">
  <ele>354.36</ele>
  <time>2026-09-01T19:53:33Z</time>
  <course>8.3</course>
  <speed>0.83</speed>
  <fix>3d</fix>
</trkpt>
<trkpt lat="-27.2743007" lon="151.2900865">
  <ele>354.36</ele>
  <time>2026-09-01T19:53:33Z</time>
  <course>8.0</course>
  <speed>0.8273451516749222</speed>
  <fix>3d</fix>
</trkpt>
<trkpt lat="-27.2743022" lon="151.2900862">
  <ele>354.36</ele>
  <time>2026-09-01T19:53:33Z</time>
  <course>8.3</course>
  <speed>0.83</speed>
  <fix>3d</fix>
</trkpt>
<trkpt lat="-27.2743" lon="151.2900866">
  <ele>354.36</ele>
  <time>2026-09-01T19:53:33Z</time>
  <course>8.0</course>
  <speed>0.8273451516749222</speed>
  <fix>3d</fix>
</trkpt>
<trkpt lat="-27.2743007" lon="151.2900865">
  <ele>354.36</ele>
  <time>2026-09-01T19:53:33Z</time>
  <course>8.29</course>
  <speed>0.82</speed>
  <fix>3d</fix>
</trkpt>
<trkpt lat="-27.2742993" lon="151.2900867">
  <ele>354.36</ele>
  <time>2026-09-01T19:53:33Z</time>
  <course>8.0</course>
  <speed>0.8174350127074322</speed>
  <fix>3d</fix>
</trkpt>
<trkpt lat="-27.2743007" lon="151.2900865">
  <ele>354.36</ele>
  <time>2026-09-01T19:53:33Z</time>
  <course>8.29</course>
  <speed>0.82</speed>
  <fix>3d</fix>
</trkpt>
<trkpt lat="-27.2742985" lon="151.2900869">
  <ele>354.36</ele>
  <time>2026-09-01T19:53:33Z</time>
  <course>8.0</course>
  <speed>0.8174350127074322</speed>
  <fix>3d</fix>
</trkpt>
<trkpt lat="-27.2742993" lon="151.2900867">
  <ele>354.36</ele>
  <time>2026-09-01T19:53:33Z</time>
  <course>8.3</course>
  <speed>0.82</speed>
  <fix>3d</fix>
</trkpt>
<trkpt lat="-27.2742978" lon="151.290087">
  <ele>354.35</ele>
  <time>2026-09-01T19:53:33Z</time>
  <course>8.0</course>
  <speed>0.8174350127074322</speed>
  <fix>3d</fix>
</trkpt>
<trkpt lat="-27.2742993" lon="151.2900867">
  <ele>354.36</ele>
  <time>2026-09-01T19:53:33Z</time>
  <course>8.3</course>
  <speed>0.82</speed>
  <fix>3d</fix>
</trkpt>
<trkpt lat="-27.2742971" lon="151.2900871">
  <ele>354.35</ele>
  <time>2026-09-01T19:53:33Z</time>
  <course>7.99</course>
  <speed>0.8174350127074322</speed>
  <fix>3d</fix>
</trkpt>
<trkpt lat="-27.2742978" lon="151.290087">
  <ele>354.35</ele>
  <time>2026-09-01T19:53:33Z</time>
  <course>8.3</course>
  <speed>0.82</speed>
  <fix>3d</fix>
</trkpt>
<trkpt lat="-27.2742963" lon="151.2900871">
  <ele>354.35</ele>
  <time>2026-09-01T19:53:33Z</time>
  <course>7.99</course>
  <speed>0.8174350127074322</speed>
  <fix>3d</fix>
</trkpt>
<trkpt lat="-27.2742978" lon="151.290087">
  <ele>354.35</ele>
  <time>2026-09-01T19:53:33Z</time>
  <course>8.3</course>
  <speed>0.82</speed>
  <fix>3d</fix>
</trkpt>
<trkpt lat="-27.2742956" lon="151.2900874">
  <ele>354.35</ele>
  <time>2026-09-01T19:53:33Z</time>
  <course>7.99</course>
  <speed>0.8174350127074322</speed>
  <fix>3d</fix>
</trkpt>
<trkpt lat="-27.2742963" lon="151.2900872">
  <ele>354.35</ele>
  <time>2026-09-01T19:53:33Z</time>
  <course>8.29</course>
  <speed>0.82</speed>
  <fix>3d</fix>
</trkpt>
<trkpt lat="-27.2742949" lon="151.2900875">
  <ele>354.35</ele>
  <time>2026-09-01T19:53:33Z</time>
  <course>8.0</course>
  <speed>0.8174350127074322</speed>
  <fix>3d</fix>
</trkpt>
<trkpt lat="-27.2742963" lon="151.2900872">
  <ele>354.35</ele>
  <time>2026-09-01T19:53:33Z</time>
  <course>8.29</course>
  <speed>0.82</speed>
  <fix>3d</fix>
</trkpt>
<trkpt lat="-27.2742941" lon="151.2900876">
  <ele>354.35</ele>
  <time>2026-09-01T19:53:33Z</time>
  <course>8.0</course>
  <speed>0.8174350127074322</speed>
  <fix>3d</fix>
</trkpt>
<trkpt lat="-27.2742949" lon="151.2900875">
  <ele>354.35</ele>
  <time>2026-09-01T19:53:33Z</time>
  <course>8.27</course>
  <speed>0.82</speed>
  <fix>3d</fix>
</trkpt>
<trkpt lat="-27.2742934" lon="151.2900876">
  <ele>354.35</ele>
  <time>2026-09-01T19:53:33Z</time>
  <course>8.0</course>
  <speed>0.8174350127074322</speed>
  <fix>3d</fix>
</trkpt>
<trkpt lat="-27.2742949" lon="151.2900875">
  <ele>354.35</ele>
  <time>2026-09-01T19:53:33Z</time>
  <course>8.27</course>
  <speed>0.82</speed>
  <fix>3d</fix>
</trkpt>
<trkpt lat="-27.2742927" lon="151.2900877">
  <ele>354.35</ele>
  <time>2026-09-01T19:53:33Z</time>
  <course>8.0</course>
  <speed>0.8174350127074322</speed>
  <fix>3d</fix>
</trkpt>
<trkpt lat="-27.2742934" lon="151.2900876">
  <ele>354.35</ele>
  <time>2026-09-01T19:53:33Z</time>
  <course>8.24</course>
  <speed>0.82</speed>
  <fix>3d</fix>
</trkpt>
<trkpt lat="-27.2742919" lon="151.290088">
  <ele>354.35</ele>
  <time>2026-09-01T19:53:33Z</time>
  <course>8.0</course>
  <speed>0.8174350127074322</speed>
  <fix>3d</fix>
</trkpt>
<trkpt lat="-27.2742934" lon="151.2900876">
  <ele>354.35</ele>
  <time>2026-09-01T19:53:33Z</time>
  <course>8.24</course>
  <speed>0.82</speed>
  <fix>3d</fix>
</trkpt>
<trkpt lat="-27.2742912" lon="151.2900881">
  <ele>354.35</ele>
  <time>2026-09-01T19:53:33Z</time>
  <course>8.0</course>
  <speed>0.8174350127074322</speed>
  <fix>3d</fix>
</trkpt>
<trkpt lat="-27.2742919" lon="151.2900879">
  <ele>354.35</ele>
  <time>2026-09-01T19:53:33Z</time>
  <course>8.22</course>
  <speed>0.82</speed>
  <fix>3d</fix>
</trkpt>
<trkpt lat="-27.2742905" lon="151.2900881">
  <ele>354.35</ele>
  <time>2026-09-01T19:53:33Z</time>
  <course>7.99</course>
  <speed>0.8174350127074322</speed>
  <fix>3d</fix>
</trkpt>
<trkpt lat="-27.2742919" lon="151.2900879">
  <ele>354.35</ele>
  <time>2026-09-01T19:53:33Z</time>
  <course>8.22</course>
  <speed>0.82</speed>
  <fix>3d</fix>
</trkpt>
<trkpt lat="-27.2742897" lon="151.2900882">
  <ele>354.35</ele>
  <time>2026-09-01T19:53:33Z</time>
  <course>7.99</course>
  <speed>0.8174350127074322</speed>
  <fix>3d</fix>
</trkpt>
<trkpt lat="-27.2742919" lon="151.2900879">
  <ele>354.35</ele>
  <time>2026-09-01T19:53:33Z</time>
  <course>8.22</course>
  <speed>0.82</speed>
  <fix>3d</fix>
</trkpt>
<trkpt lat="-27.274289" lon="151.2900884">
  <ele>354.36</ele>
  <time>2026-09-01T19:53:33Z</time>
  <course>7.99</course>
  <speed>0.8174350127074322</speed>
  <fix>3d</fix>
</trkpt>
<trkpt lat="-27.2742905" lon="151.2900881">
  <ele>354.35</ele>
  <time>2026-09-01T19:53:33Z</time>
  <course>8.2</course>
  <speed>0.82</speed>
  <fix>3d</fix>
</trkpt>
<trkpt lat="-27.2742883" lon="151.2900886">
  <ele>354.36</ele>
  <time>2026-09-01T19:53:33Z</time>
  <course>7.98</course>
  <speed>0.8174350127074322</speed>
  <fix>3d</fix>
</trkpt>
<trkpt lat="-27.274289" lon="151.2900884">
  <ele>354.35</ele>
  <time>2026-09-01T19:53:33Z</time>
  <course>8.19</course>
  <speed>0.82</speed>
  <fix>3d</fix>
</trkpt>
<trkpt lat="-27.2742875" lon="151.2900886">
  <ele>354.36</ele>
  <time>2026-09-01T19:53:33Z</time>
  <course>7.98</course>
  <speed>0.8174350127074322</speed>
  <fix>3d</fix>
</trkpt>
<trkpt lat="-27.274289" lon="151.2900884">
  <ele>354.35</ele>
  <time>2026-09-01T19:53:33Z</time>
  <course>8.19</course>
  <speed>0.82</speed>
  <fix>3d</fix>
</trkpt>
<trkpt lat="-27.2742868" lon="151.2900888">
  <ele>354.36</ele>
  <time>2026-09-01T19:53:33Z</time>
  <course>7.98</course>
  <speed>0.8075270893288967</speed>
  <fix>3d</fix>
</trkpt>
<trkpt lat="-27.2742875" lon="151.2900887">
  <ele>354.36</ele>
  <time>2026-09-01T19:53:33Z</time>
  <course>8.19</course>
  <speed>0.81</speed>
  <fix>3d</fix>
</trkpt>
<trkpt lat="-27.2742861" lon="151.2900889">
  <ele>354.36</ele>
  <time>2026-09-01T19:53:33Z</time>
  <course>7.98</course>
  <speed>0.7877182237323191</speed>
  <fix>3d</fix>
</trkpt>
<trkpt lat="-27.2742875" lon="151.2900887">
  <ele>354.36</ele>
  <time>2026-09-01T19:53:33Z</time>
  <course>8.19</course>
  <speed>0.81</speed>
  <fix>3d</fix>
</trkpt>
<trkpt lat="-27.2742854" lon="151.290089">
  <ele>354.36</ele>
  <time>2026-09-01T19:53:33Z</time>
  <course>7.99</course>
  <speed>0.7566372975210779</speed>
  <fix>3d</fix>
</trkpt>
<trkpt lat="-27.2742861" lon="151.2900889">
  <ele>354.36</ele>
  <time>2026-09-01T19:53:33Z</time>
  <course>8.19</course>
  <speed>0.78</speed>
  <fix>3d</fix>
</trkpt>
<trkpt lat="-27.2742854" lon="151.290089">
  <ele>354.36</ele>
  <time>2026-09-01T19:53:33Z</time>
  <course>7.99</course>
  <speed>0.7566372975210779</speed>
  <fix>3d</fix>
</trkpt>
<trkpt lat="-27.2742848" lon="151.2900891">
  <ele>354.36</ele>
  <time>2026-09-01T19:53:33Z</time>
  <course>7.99</course>
  <speed>0.7071067811865476</speed>
  <fix>3d</fix>
</trkpt>
<trkpt lat="-27.2742861" lon="151.2900889">
  <ele>354.36</ele>
  <time>2026-09-01T19:53:33Z</time>
  <course>8.19</course>
  <speed>0.78</speed>
  <fix>3d</fix>
</trkpt>
<trkpt lat="-27.2742847" lon="151.2900891">
  <ele>354.36</ele>
  <time>2026-09-01T19:53:33Z</time>
  <course>7.99</course>
  <speed>0.7071067811865476</speed>
  <fix>3d</fix>
</trkpt>
<trkpt lat="-27.2742841" lon="151.2900891">
  <ele>354.36</ele>
  <time>2026-09-01T19:53:33Z</time>
  <course>7.99</course>
  <speed>0.646297145282261</speed>
  <fix>3d</fix>
</trkpt>
<trkpt lat="-27.2742848" lon="151.2900891">
  <ele>354.36</ele>
  <time>2026-09-01T19:53:33Z</time>
  <course>8.21</course>
  <speed>0.7</speed>
  <fix>3d</fix>
</trkpt>
<trkpt lat="-27.2742841" lon="151.2900891">
  <ele>354.36</ele>
  <time>2026-09-01T19:53:33Z</time>
  <course>7.99</course>
  <speed>0.6363961030678928</speed>
  <fix>3d</fix>
</trkpt>
<trkpt lat="-27.2742836" lon="151.2900893">
  <ele>354.36</ele>
  <time>2026-09-01T19:53:33Z</time>
  <course>7.99</course>
  <speed>0.565685424949238</speed>
  <fix>3d</fix>
</trkpt>
<trkpt lat="-27.2742848" lon="151.2900891">
  <ele>354.36</ele>
  <time>2026-09-01T19:53:33Z</time>
  <course>8.21</course>
  <speed>0.7</speed>
  <fix>3d</fix>
</trkpt>
<trkpt lat="-27.2742835" lon="151.2900893">
  <ele>354.36</ele>
  <time>2026-09-01T19:53:33Z</time>
  <course>7.98</course>
  <speed>0.5445181356024793</speed>
  <fix>3d</fix>
</trkpt>
<trkpt lat="-27.2742831" lon="151.2900894">
  <ele>354.36</ele>
  <time>2026-09-01T19:53:33Z</time>
  <course>7.98</course>
  <speed>0.4738143096192854</speed>
  <fix>3d</fix>
</trkpt>
<trkpt lat="-27.2742836" lon="151.2900892">
  <ele>354.36</ele>
  <time>2026-09-01T19:53:33Z</time>
  <course>8.21</course>
  <speed>0.57</speed>
  <fix>3d</fix>
</trkpt>
<trkpt lat="-27.274283" lon="151.2900894">
  <ele>354.36</ele>
  <time>2026-09-01T19:53:33Z</time>
  <course>7.98</course>
  <speed>0.45398237851264667</speed>
  <fix>3d</fix>
</trkpt>
<trkpt lat="-27.2742828" lon="151.2900895">
  <ele>354.36</ele>
  <time>2026-09-01T19:53:33Z</time>
  <course>7.98</course>
  <speed>0.3634556369077249</speed>
  <fix>3d</fix>
</trkpt>
<trkpt lat="-27.2742836" lon="151.2900892">
  <ele>354.36</ele>
  <time>2026-09-01T19:53:33Z</time>
  <course>8.21</course>
  <speed>0.57</speed>
  <fix>3d</fix>
</trkpt>
<trkpt lat="-27.2742826" lon="151.2900895">
  <ele>354.36</ele>
  <time>2026-09-01T19:53:33Z</time>
  <course>7.97</course>
  <speed>0.32249030993194194</speed>
  <fix>3d</fix>
</trkpt>
<trkpt lat="-27.2742825" lon="151.2900895">
  <ele>354.36</ele>
  <time>2026-09-01T19:53:33Z</time>
  <course>7.97</course>
  <speed>0.23194827009486402</speed>
  <fix>3d</fix>
</trkpt>
<trkpt lat="-27.2742828" lon="151.2900894">
  <ele>354.36</ele>
  <time>2026-09-01T19:53:33Z</time>
  <course>8.15</course>
  <speed>0.36</speed>
  <fix>3d</fix>
</trkpt>
<trkpt lat="-27.2742824" lon="151.2900895">
  <ele>354.36</ele>
  <time>2026-09-01T19:53:33Z</time>
  <course>7.97</course>
  <speed>0.2009975124224178</speed>
  <fix>3d</fix>
</trkpt>
<trkpt lat="-27.2742823" lon="151.2900895">
  <ele>354.36</ele>
  <time>2026-09-01T19:53:33Z</time>
  <course>7.96</course>
  <speed>0.09055385138137417</speed>
  <fix>3d</fix>
</trkpt>
<trkpt lat="-27.2742828" lon="151.2900894">
  <ele>354.36</ele>
  <time>2026-09-01T19:53:33Z</time>
  <course>8.15</course>
  <speed>0.36</speed>
  <fix>3d</fix>
</trkpt>
<trkpt lat="-27.2742823" lon="151.2900895">
  <ele>354.36</ele>
  <time>2026-09-01T19:53:33Z</time>
  <course>7.96</course>
  <speed>0.05</speed>
  <fix>3d</fix>
</trkpt>
<trkpt lat="-27.2742823" lon="151.2900895">
  <ele>354.35</ele>
  <time>2026-09-01T19:53:33Z</time>
  <course>7.96</course>
  <speed>0.06082762530298219</speed>
  <fix>3d</fix>
</trkpt>
<trkpt lat="-27.2742824" lon="151.2900895">
  <ele>354.35</ele>
  <time>2026-09-01T19:53:33Z</time>
  <course>7.77</course>
  <speed>0.09</speed>
  <fix>3d</fix>
</trkpt>
<trkpt lat="-27.2742823" lon="151.2900895">
  <ele>354.35</ele>
  <time>2026-09-01T19:53:33Z</time>
  <course>7.96</course>
  <speed>0.11045361017187261</speed>
  <fix>3d</fix>
</trkpt>
<trkpt lat="-27.2742824" lon="151.2900895">
  <ele>354.35</ele>
  <time>2026-09-01T19:53:33Z</time>
  <course>7.95</course>
  <speed>0.24186773244895649</speed>
  <fix>3d</fix>
</trkpt>
<trkpt lat="-27.2742824" lon="151.2900895">
  <ele>354.35</ele>
  <time>2026-09-01T19:53:33Z</time>
  <course>7.77</course>
  <speed>0.09</speed>
  <fix>3d</fix>
</trkpt>
<trkpt lat="-27.2742824" lon="151.2900895">
  <ele>354.35</ele>
  <time>2026-09-01T19:53:33Z</time>
  <course>7.95</course>
  <speed>0.282842712474619</speed>
  <fix>3d</fix>
</trkpt>
<trkpt lat="-27.2742826" lon="151.2900895">
  <ele>354.35</ele>
  <time>2026-09-01T19:53:33Z</time>
  <course>7.93</course>
  <speed>0.4341658669218482</speed>
  <fix>3d</fix>
</trkpt>
<trkpt lat="-27.2742825" lon="151.2900895">
  <ele>354.35</ele>
  <time>2026-09-01T19:53:33Z</time>
  <course>188.15</course>
  <speed>0.24</speed>
  <fix>3d</fix>
</trkpt>
<trkpt lat="-27.2742828" lon="151.2900895">
  <ele>354.35</ele>
  <time>2026-09-01T19:53:33Z</time>
  <course>7.91</course>
  <speed>0.4738143096192854</speed>
  <fix>3d</fix>
</trkpt>
<trkpt lat="-27.2742831" lon="151.2900895">
  <ele>354.35</ele>
  <time>2026-09-01T19:53:33Z</time>
  <course>7.87</course>
  <speed>0.6152235366108809</speed>
  <fix>3d</fix>
</trkpt>
<trkpt lat="-27.2742825" lon="151.2900895">
  <ele>354.35</ele>
  <time>2026-09-01T19:53:33Z</time>
  <course>188.15</course>
  <speed>0.24</speed>
  <fix>3d</fix>
</trkpt>
<trkpt lat="-27.2742833" lon="151.2900895">
  <ele>354.35</ele>
  <time>2026-09-01T19:53:33Z</time>
  <course>7.85</course>
  <speed>0.6562011886609167</speed>
  <fix>3d</fix>
</trkpt>
<trkpt lat="-27.2742838" lon="151.2900894">
  <ele>354.35</ele>
  <time>2026-09-01T19:53:33Z</time>
  <course>7.8</course>
  <speed>0.7963039620647382</speed>
  <fix>3d</fix>
</trkpt>
<trkpt lat="-27.2742832" lon="151.2900894">
  <ele>354.35</ele>
  <time>2026-09-01T19:53:33Z</time>
  <course>187.9</course>
  <speed>0.61</speed>
  <fix>3d</fix>
</trkpt>
<trkpt lat="-27.2742838" lon="151.2900894">
  <ele>354.35</ele>
  <time>2026-09-01T19:53:33Z</time>
  <course>7.79</course>
  <speed>0.7963039620647382</speed>
  <fix>3d</fix>
</trkpt>
<trkpt lat="-27.2742846" lon="151.2900893">
  <ele>354.35</ele>
  <time>2026-09-01T19:53:33Z</time>
  <course>7.72</course>
  <speed>0.9476286192385708</speed>
  <fix>3d</fix>
</trkpt>
<trkpt lat="-27.2742832" lon="151.2900894">
  <ele>354.35</ele>
  <time>2026-09-01T19:53:33Z</time>
  <course>187.9</course>
  <speed>0.61</speed>
  <fix>3d</fix>
</trkpt>
<trkpt lat="-27.2742847" lon="151.2900891">
  <ele>354.35</ele>
  <time>2026-09-01T19:53:33Z</time>
  <course>7.71</course>
  <speed>0.9687620966986684</speed>
  <fix>3d</fix>
</trkpt>
<trkpt lat="-27.2742855" lon="151.2900891">
  <ele>354.35</ele>
  <time>2026-09-01T19:53:33Z</time>
  <course>7.64</course>
  <speed>1.0692053123698928</speed>
  <fix>3d</fix>
</trkpt>
<trkpt lat="-27.2742832" lon="151.2900894">
  <ele>354.35</ele>
  <time>2026-09-01T19:53:33Z</time>
  <course>187.9</course>
  <speed>0.61</speed>
  <fix>3d</fix>
</trkpt>
<trkpt lat="-27.2742857" lon="151.2900891">
  <ele>354.35</ele>
  <time>2026-09-01T19:53:33Z</time>
  <course>7.62</course>
  <speed>1.0989540481748998</speed>
  <fix>3d</fix>
</trkpt>
<trkpt lat="-27.2742865" lon="151.290089">
  <ele>354.36</ele>
  <time>2026-09-01T19:53:33Z</time>
  <course>7.57</course>
  <speed>1.1597413504743201</speed>
  <fix>3d</fix>
</trkpt>
<trkpt lat="-27.2742845" lon="151.2900892">
  <ele>354.35</ele>
  <time>2026-09-01T19:53:33Z</time>
  <course>187.73</course>
  <speed>0.93</speed>
  <fix>3d</fix>
</trkpt>
<trkpt lat="-27.274287" lon="151.2900889">
  <ele>354.36</ele>
  <time>2026-09-01T19:53:33Z</time>
  <course>7.6</course>
  <speed>1.200708124399931</speed>
  <fix>3d</fix>
</trkpt>
<trkpt lat="-27.2742875" lon="151.2900888">
  <ele>354.36</ele>
  <time>2026-09-01T19:53:33Z</time>
  <course>7.71</course>
  <speed>1.2304470732217618</speed>
  <fix>3d</fix>
</trkpt>
<trkpt lat="-27.2742845" lon="151.2900892">
  <ele>354.35</ele>
  <time>2026-09-01T19:53:33Z</time>
  <course>187.73</course>
  <speed>0.93</speed>
  <fix>3d</fix>
</trkpt>
<trkpt lat="-27.274288" lon="151.2900886">
  <ele>354.36</ele>
  <time>2026-09-01T19:53:33Z</time>
  <course>7.94</course>
  <speed>1.2515989773086265</speed>
  <fix>3d</fix>
</trkpt>
<trkpt lat="-27.2742886" lon="151.2900886">
  <ele>354.36</ele>
  <time>2026-09-01T19:53:33Z</time>
  <course>8.43</course>
  <speed>1.274244874425634</speed>
  <fix>3d</fix>
</trkpt>
<trkpt lat="-27.2742864" lon="151.2900889">
  <ele>354.35</ele>
  <time>2026-09-01T19:53:33Z</time>
  <course>187.76</course>
  <speed>1.15</speed>
  <fix>3d</fix>
</trkpt>
<trkpt lat="-27.2742898" lon="151.2900884">
  <ele>354.36</ele>
  <time>2026-09-01T19:53:33Z</time>
  <course>10.34</course>
  <speed>1.3004999038831184</speed>
  <fix>3d</fix>
</trkpt>
<trkpt lat="-27.2742864" lon="151.2900889">
  <ele>354.35</ele>
  <time>2026-09-01T19:53:33Z</time>
  <course>187.76</course>
  <speed>1.15</speed>
  <fix>3d</fix>
</trkpt>
<trkpt lat="-27.2742905" lon="151.2900881">
  <ele>354.37</ele>
  <time>2026-09-01T19:53:34Z</time>
  <course>12.16</course>
  <speed>1.3061393493804556</speed>
  <fix>3d</fix>
</trkpt>
<trkpt lat="-27.274291" lon="151.2900881">
  <ele>354.37</ele>
  <time>2026-09-01T19:53:34Z</time>
  <course>13.67</course>
  <speed>1.310267148332736</speed>
  <fix>3d</fix>
</trkpt>
<trkpt lat="-27.2742886" lon="151.2900886">
  <ele>354.36</ele>
  <time>2026-09-01T19:53:34Z</time>
  <course>189.14</course>
  <speed>1.26</speed>
  <fix>3d</fix>
</trkpt>
<trkpt lat="-27.2742912" lon="151.2900881">
  <ele>354.37</ele>
  <time>2026-09-01T19:53:34Z</time>
  <course>14.65</course>
  <speed>1.3124404748406686</speed>
  <fix>3d</fix>
</trkpt>
<trkpt lat="-27.2742921" lon="151.2900877">
  <ele>354.37</ele>
  <time>2026-09-01T19:53:34Z</time>
  <course>18.39</course>
  <speed>1.3121737689803132</speed>
  <fix>3d</fix>
</trkpt>
<trkpt lat="-27.2742886" lon="151.2900886">
  <ele>354.36</ele>
  <time>2026-09-01T19:53:34Z</time>
  <course>189.14</course>
  <speed>1.26</speed>
  <fix>3d</fix>
</trkpt>
<trkpt lat="-27.2742924" lon="151.2900876">
  <ele>354.37</ele>
  <time>2026-09-01T19:53:34Z</time>
  <course>19.67</course>
  <speed>1.3147243057006286</speed>
  <fix>3d</fix>
</trkpt>
<trkpt lat="-27.2742933" lon="151.2900875">
  <ele>354.37</ele>
  <time>2026-09-01T19:53:34Z</time>
  <course>24.31</course>
  <speed>1.3104197800704933</speed>
  <fix>3d</fix>
</trkpt>
<trkpt lat="-27.2742909" lon="151.2900881">
  <ele>354.36</ele>
  <time>2026-09-01T19:53:34Z</time>
  <course>192.47</course>
  <speed>1.3</speed>
  <fix>3d</fix>
</trkpt>
<trkpt lat="-27.2742937" lon="151.2900872">
  <ele>354.37</ele>
  <time>2026-09-01T19:53:34Z</time>
  <course>26.95</course>
  <speed>1.313202193114221</speed>
  <fix>3d</fix>
</trkpt>
<trkpt lat="-27.2742944" lon="151.2900871">
  <ele>354.37</ele>
  <time>2026-09-01T19:53:34Z</time>
  <course>31.13</course>
  <speed>1.3064838307457156</speed>
  <fix>3d</fix>
</trkpt>
<trkpt lat="-27.2742909" lon="151.2900881">
  <ele>354.36</ele>
  <time>2026-09-01T19:53:34Z</time>
  <course>192.47</course>
  <speed>1.3</speed>
  <fix>3d</fix>
</trkpt>
<trkpt lat="-27.2742944" lon="151.2900871">
  <ele>354.37</ele>
  <time>2026-09-01T19:53:34Z</time>
  <course>31.37</course>
  <speed>1.3064838307457156</speed>
  <fix>3d</fix>
</trkpt>
<trkpt lat="-27.2742955" lon="151.2900867">
  <ele>354.37</ele>
  <time>2026-09-01T19:53:34Z</time>
  <course>38.52</course>
  <speed>1.3064838307457156</speed>
  <fix>3d</fix>
</trkpt>
<trkpt lat="-27.2742932" lon="151.2900874">
  <ele>354.37</ele>
  <time>2026-09-01T19:53:34Z</time>
  <course>195.8</course>
  <speed>1.31</speed>
  <fix>3d</fix>
</trkpt>
<trkpt lat="-27.2742956" lon="151.2900867">
  <ele>354.37</ele>
  <time>2026-09-01T19:53:34Z</time>
  <course>38.78</course>
  <speed>1.3064838307457156</speed>
  <fix>3d</fix>
</trkpt>
<trkpt lat="-27.2742966" lon="151.2900862">
  <ele>354.37</ele>
  <time>2026-09-01T19:53:34Z</time>
  <course>46.0</course>
  <speed>1.3104197800704933</speed>
  <fix>3d</fix>
</trkpt>
<trkpt lat="-27.2742954" lon="151.2900867">
  <ele>354.37</ele>
  <time>2026-09-01T19:53:34Z</time>
  <course>196.61</course>
  <speed>1.31</speed>
  <fix>3d</fix>
</trkpt>
<trkpt lat="-27.2742969" lon="151.2900862">
  <ele>354.37</ele>
  <time>2026-09-01T19:53:34Z</time>
  <course>48.05</course>
  <speed>1.3077079184588585</speed>
  <fix>3d</fix>
</trkpt>
<trkpt lat="-27.2742978" lon="151.290086">
  <ele>354.37</ele>
  <time>2026-09-01T19:53:34Z</time>
  <course>53.67</course>
  <speed>1.3193938001976513</speed>
  <fix>3d</fix>
</trkpt>
<trkpt lat="-27.2742954" lon="151.2900867">
  <ele>354.37</ele>
  <time>2026-09-01T19:53:34Z</time>
  <course>196.61</course>
  <speed>1.31</speed>
  <fix>3d</fix>
</trkpt>
<trkpt lat="-27.2742989" lon="151.2900857">
  <ele>354.37</ele>
  <time>2026-09-01T19:53:34Z</time>
  <course>61.14</course>
  <speed>1.3453624047073711</speed>
  <fix>3d</fix>
</trkpt>
<trkpt lat="-27.2742977" lon="151.2900859">
  <ele>354.37</ele>
  <time>2026-09-01T19:53:34Z</time>
  <course>193.69</course>
  <speed>1.32</speed>
  <fix>3d</fix>
</trkpt>
<trkpt lat="-27.274299" lon="151.2900857">
  <ele>354.37</ele>
  <time>2026-09-01T19:53:34Z</time>
  <course>61.38</course>
  <speed>1.3434656675925887</speed>
  <fix>3d</fix>
</trkpt>
<trkpt lat="-27.2743001" lon="151.2900855">
  <ele>354.37</ele>
  <time>2026-09-01T19:53:34Z</time>
  <course>68.24</course>
  <speed>1.381774221788784</speed>
  <fix>3d</fix>
</trkpt>
<trkpt lat="-27.2742977" lon="151.2900859">
  <ele>354.37</ele>
  <time>2026-09-01T19:53:34Z</time>
  <course>193.69</course>
  <speed>1.32</speed>
  <fix>3d</fix>
</trkpt>
<trkpt lat="-27.2743006" lon="151.2900853">
  <ele>354.37</ele>
  <time>2026-09-01T19:53:34Z</time>
  <course>70.96</course>
  <speed>1.3970325694127537</speed>
  <fix>3d</fix>
</trkpt>
<trkpt lat="-27.2743014" lon="151.2900852">
  <ele>354.37</ele>
  <time>2026-09-01T19:53:34Z</time>
  <course>74.9</course>
  <speed>1.4322360140703068</speed>
  <fix>3d</fix>
</trkpt>
<trkpt lat="-27.2743001" lon="151.2900854">
  <ele>354.37</ele>
  <time>2026-09-01T19:53:34Z</time>
  <course>187.3</course>
  <speed>1.38</speed>
  <fix>3d</fix>
</trkpt>
<trkpt lat="-27.2743027" lon="151.2900852">
  <ele>354.36</ele>
  <time>2026-09-01T19:53:34Z</time>
  <course>81.15</course>
  <speed>1.52</speed>
  <fix>3d</fix>
</trkpt>
<trkpt lat="-27.2743001" lon="151.2900854">
  <ele>354.37</ele>
  <time>2026-09-01T19:53:34Z</time>
  <course>187.3</course>
  <speed>1.38</speed>
  <fix>3d</fix>
</trkpt>
<trkpt lat="-27.2743028" lon="151.2900852">
  <ele>354.36</ele>
  <time>2026-09-01T19:53:34Z</time>
  <course>81.35</course>
  <speed>1.5200328943809078</speed>
  <fix>3d</fix>
</trkpt>
<trkpt lat="-27.2743041" lon="151.2900852">
  <ele>354.35</ele>
  <time>2026-09-01T19:53:34Z</time>
  <course>87.07</course>
  <speed>1.6107762104029226</speed>
  <fix>3d</fix>
</trkpt>
<trkpt lat="-27.2743027" lon="151.2900852">
  <ele>354.36</ele>
  <time>2026-09-01T19:53:34Z</time>
  <course>180.56</course>
  <speed>1.52</speed>
  <fix>3d</fix>
</trkpt>
<trkpt lat="-27.2743056" lon="151.2900852">
  <ele>354.33</ele>
  <time>2026-09-01T19:53:34Z</time>
  <course>92.75</course>
  <speed>1.72</speed>
  <fix>3d</fix>
</trkpt>
<trkpt lat="-27.2743027" lon="151.2900852">
  <ele>354.36</ele>
  <time>2026-09-01T19:53:34Z</time>
  <course>180.56</course>
  <speed>1.52</speed>
  <fix>3d</fix>
</trkpt>
<trkpt lat="-27.2743057" lon="151.2900852">
  <ele>354.33</ele>
  <time>2026-09-01T19:53:34Z</time>
  <course>92.93</course>
  <speed>1.72</speed>
  <fix>3d</fix>
</trkpt>
<trkpt lat="-27.2743072" lon="151.2900852">
  <ele>354.32</ele>
  <time>2026-09-01T19:53:34Z</time>
  <course>98.3</course>
  <speed>1.8213456563760764</speed>
  <fix>3d</fix>
</trkpt>
<trkpt lat="-27.2743056" lon="151.2900852">
  <ele>354.33</ele>
  <time>2026-09-01T19:53:34Z</time>
  <course>180.27</course>
  <speed>1.71</speed>
  <fix>3d</fix>
</trkpt>
<trkpt lat="-27.2743089" lon="151.2900852">
  <ele>354.31</ele>
  <time>2026-09-01T19:53:34Z</time>
  <course>103.86</course>
  <speed>1.9250974001333023</speed>
  <fix>3d</fix>
</trkpt>
<trkpt lat="-27.2743056" lon="151.2900852">
  <ele>354.33</ele>
  <time>2026-09-01T19:53:34Z</time>
  <course>180.27</course>
  <speed>1.71</speed>
  <fix>3d</fix>
</trkpt>
<trkpt lat="-27.2743107" lon="151.290085">
  <ele>354.3</ele>
  <time>2026-09-01T19:53:34Z</time>
  <course>109.54</course>
  <speed>2.019925741209315</speed>
  <fix>3d</fix>
</trkpt>
<trkpt lat="-27.2743089" lon="151.2900851">
  <ele>354.31</ele>
  <time>2026-09-01T19:53:34Z</time>
  <course>184.1</course>
  <speed>1.92</speed>
  <fix>3d</fix>
</trkpt>
<trkpt lat="-27.2743108" lon="151.290085">
  <ele>354.3</ele>
  <time>2026-09-01T19:53:34Z</time>
  <course>109.73</course>
  <speed>2.019925741209315</speed>
  <fix>3d</fix>
</trkpt>
<trkpt lat="-27.2743125" lon="151.2900848">
  <ele>354.3</ele>
  <time>2026-09-01T19:53:34Z</time>
  <course>115.35</course>
  <speed>2.103734774157617</speed>
  <fix>3d</fix>
</trkpt>
<trkpt lat="-27.2743089" lon="151.2900851">
  <ele>354.31</ele>
  <time>2026-09-01T19:53:34Z</time>
  <course>184.1</course>
  <speed>1.92</speed>
  <fix>3d</fix>
</trkpt>
<trkpt lat="-27.2743126" lon="151.2900848">
  <ele>354.3</ele>
  <time>2026-09-01T19:53:34Z</time>
  <course>115.55</course>
  <speed>2.103734774157617</speed>
  <fix>3d</fix>
</trkpt>
<trkpt lat="-27.2743145" lon="151.2900845">
  <ele>354.3</ele>
  <time>2026-09-01T19:53:34Z</time>
  <course>121.29</course>
  <speed>2.1879899451322897</speed>
  <fix>3d</fix>
</trkpt>
<trkpt lat="-27.2743089" lon="151.2900851">
  <ele>354.31</ele>
  <time>2026-09-01T19:53:34Z</time>
  <course>184.1</course>
  <speed>1.92</speed>
  <fix>3d</fix>
</trkpt>
<trkpt lat="-27.2743145" lon="151.2900845">
  <ele>354.3</ele>
  <time>2026-09-01T19:53:34Z</time>
  <course>121.49</course>
  <speed>2.1979080963497997</speed>
  <fix>3d</fix>
</trkpt>
<trkpt lat="-27.2743165" lon="151.2900842">
  <ele>354.3</ele>
  <time>2026-09-01T19:53:34Z</time>
  <course>127.32</course>
  <speed>2.2726416347501863</speed>
  <fix>3d</fix>
</trkpt>
<trkpt lat="-27.2743125" lon="151.2900847">
  <ele>354.3</ele>
  <time>2026-09-01T19:53:34Z</time>
  <course>186.62</course>
  <speed>2.1</speed>
  <fix>3d</fix>
</trkpt>
<trkpt lat="-27.2743165" lon="151.2900842">
  <ele>354.3</ele>
  <time>2026-09-01T19:53:34Z</time>
  <course>127.52</course>
  <speed>2.2825424421026654</speed>
  <fix>3d</fix>
</trkpt>
<trkpt lat="-27.2743185" lon="151.2900838">
  <ele>354.3</ele>
  <time>2026-09-01T19:53:34Z</time>
  <course>133.37</course>
  <speed>2.3561409125941513</speed>
  <fix>3d</fix>
</trkpt>
<trkpt lat="-27.2743125" lon="151.2900847">
  <ele>354.3</ele>
  <time>2026-09-01T19:53:34Z</time>
  <course>186.62</course>
  <speed>2.1</speed>
  <fix>3d</fix>
</trkpt>
<trkpt lat="-27.2743186" lon="151.2900838">
  <ele>354.3</ele>
  <time>2026-09-01T19:53:34Z</time>
  <course>133.57</course>
  <speed>2.3660304309116564</speed>
  <fix>3d</fix>
</trkpt>
<trkpt lat="-27.2743207" lon="151.2900834">
  <ele>354.31</ele>
  <time>2026-09-01T19:53:34Z</time>
  <course>139.61</course>
  <speed>2.4496530366564158</speed>
  <fix>3d</fix>
</trkpt>
<trkpt lat="-27.2743164" lon="151.2900842">
  <ele>354.3</ele>
  <time>2026-09-01T19:53:34Z</time>
  <course>188.09</course>
  <speed>2.27</speed>
  <fix>3d</fix>
</trkpt>
<trkpt lat="-27.2743209" lon="151.2900834">
  <ele>354.31</ele>
  <time>2026-09-01T19:53:34Z</time>
  <course>140.01</course>
  <speed>2.4496530366564158</speed>
  <fix>3d</fix>
</trkpt>
<trkpt lat="-27.2743229" lon="151.2900831">
  <ele>354.32</ele>
  <time>2026-09-01T19:53:34Z</time>
  <course>145.59</course>
  <speed>2.521923868795408</speed>
  <fix>3d</fix>
</trkpt>
<trkpt lat="-27.2743164" lon="151.2900842">
  <ele>354.3</ele>
  <time>2026-09-01T19:53:34Z</time>
  <course>188.09</course>
  <speed>2.27</speed>
  <fix>3d</fix>
</trkpt>
<trkpt lat="-27.2743235" lon="151.2900829">
  <ele>354.32</ele>
  <time>2026-09-01T19:53:34Z</time>
  <course>147.18</course>
  <speed>2.5432656172724073</speed>
  <fix>3d</fix>
</trkpt>
<trkpt lat="-27.2743252" lon="151.2900827">
  <ele>354.33</ele>
  <time>2026-09-01T19:53:34Z</time>
  <course>151.51</course>
  <speed>2.6057244673986544</speed>
  <fix>3d</fix>
</trkpt>
<trkpt lat="-27.2743206" lon="151.2900834">
  <ele>354.31</ele>
  <time>2026-09-01T19:53:34Z</time>
  <course>188.97</course>
  <speed>2.44</speed>
  <fix>3d</fix>
</trkpt>
<trkpt lat="-27.2743259" lon="151.2900824">
  <ele>354.33</ele>
  <time>2026-09-01T19:53:34Z</time>
  <course>153.27</course>
  <speed>2.6254523419784253</speed>
  <fix>3d</fix>
</trkpt>
<trkpt lat="-27.2743276" lon="151.2900822">
  <ele>354.34</ele>
  <time>2026-09-01T19:53:34Z</time>
  <course>157.34</course>
  <speed>2.6879360111431225</speed>
  <fix>3d</fix>
</trkpt>
<trkpt lat="-27.2743206" lon="151.2900834">
  <ele>354.31</ele>
  <time>2026-09-01T19:53:34Z</time>
  <course>188.97</course>
  <speed>2.44</speed>
  <fix>3d</fix>
</trkpt>
<trkpt lat="-27.2743284" lon="151.2900819">
  <ele>354.34</ele>
  <time>2026-09-01T19:53:34Z</time>
  <course>159.46</course>
  <speed>2.719191056178289</speed>
  <fix>3d</fix>
</trkpt>
<trkpt lat="-27.27433" lon="151.2900817">
  <ele>354.35</ele>
  <time>2026-09-01T19:53:34Z</time>
  <course>163.09</course>
  <speed>2.760307953834137</speed>
  <fix>3d</fix>
</trkpt>
<trkpt lat="-27.2743251" lon="151.2900826">
  <ele>354.33</ele>
  <time>2026-09-01T19:53:34Z</time>
  <course>189.5</course>
  <speed>2.6</speed>
  <fix>3d</fix>
</trkpt>
<trkpt lat="-27.2743305" lon="151.2900815">
  <ele>354.35</ele>
  <time>2026-09-01T19:53:34Z</time>
  <course>164.22</course>
  <speed>2.780017985553331</speed>
  <fix>3d</fix>
</trkpt>
<trkpt lat="-27.2743325" lon="151.2900812">
  <ele>354.36</ele>
  <time>2026-09-01T19:53:34Z</time>
  <course>168.74</course>
  <speed>2.8425516705945735</speed>
  <fix>3d</fix>
</trkpt>
<trkpt lat="-27.2743251" lon="151.2900826">
  <ele>354.33</ele>
  <time>2026-09-01T19:53:34Z</time>
  <course>189.5</course>
  <speed>2.6</speed>
  <fix>3d</fix>
</trkpt>
<trkpt lat="-27.2743331" lon="151.290081">
  <ele>354.36</ele>
  <time>2026-09-01T19:53:34Z</time>
  <course>170.05</course>
  <speed>2.8524024961425063</speed>
  <fix>3d</fix>
</trkpt>
<trkpt lat="-27.274335" lon="151.2900807">
  <ele>354.37</ele>
  <time>2026-09-01T19:53:34Z</time>
  <course>174.25</course>
  <speed>2.9149614062625258</speed>
  <fix>3d</fix>
</trkpt>
<trkpt lat="-27.2743298" lon="151.2900817">
  <ele>354.34</ele>
  <time>2026-09-01T19:53:34Z</time>
  <course>189.85</course>
  <speed>2.76</speed>
  <fix>3d</fix>
</trkpt>
<trkpt lat="-27.2743351" lon="151.2900807">
  <ele>354.37</ele>
  <time>2026-09-01T19:53:34Z</time>
  <course>174.43</course>
  <speed>2.9149614062625258</speed>
  <fix>3d</fix>
</trkpt>
<trkpt lat="-27.2743376" lon="151.2900802">
  <ele>354.38</ele>
  <time>2026-09-01T19:53:34Z</time>
  <course>179.44</course>
  <speed>2.987390165344996</speed>
  <fix>3d</fix>
</trkpt>
<trkpt lat="-27.2743298" lon="151.2900817">
  <ele>354.34</ele>
  <time>2026-09-01T19:53:34Z</time>
  <course>189.85</course>
  <speed>2.76</speed>
  <fix>3d</fix>
</trkpt>
<trkpt lat="-27.274338" lon="151.29008">
  <ele>354.38</ele>
  <time>2026-09-01T19:53:34Z</time>
  <course>180.11</course>
  <speed>2.997232056414718</speed>
  <fix>3d</fix>
</trkpt>
<trkpt lat="-27.2743403" lon="151.2900797">
  <ele>354.38</ele>
  <time>2026-09-01T19:53:34Z</time>
  <course>184.13</course>
  <speed>3.05</speed>
  <fix>3d</fix>
</trkpt>
<trkpt lat="-27.2743349" lon="151.2900807">
  <ele>354.36</ele>
  <time>2026-09-01T19:53:34Z</time>
  <course>190.14</course>
  <speed>2.91</speed>
  <fix>3d</fix>
</trkpt>
<trkpt lat="-27.274341" lon="151.2900795">
  <ele>354.38</ele>
  <time>2026-09-01T19:53:34Z</time>
  <course>185.25</course>
  <speed>3.0696742498187</speed>
  <fix>3d</fix>
</trkpt>
<trkpt lat="-27.274343" lon="151.290079">
  <ele>354.39</ele>
  <time>2026-09-01T19:53:34Z</time>
  <course>188.06</course>
  <speed>3.120656982111299</speed>
  <fix>3d</fix>
</trkpt>
<trkpt lat="-27.2743349" lon="151.2900807">
  <ele>354.36</ele>
  <time>2026-09-01T19:53:34Z</time>
  <course>190.14</course>
  <speed>2.91</speed>
  <fix>3d</fix>
</trkpt>
<trkpt lat="-27.2743437" lon="151.290079">
  <ele>354.39</ele>
  <time>2026-09-01T19:53:34Z</time>
  <course>188.85</course>
  <speed>3.1322994748267603</speed>
  <fix>3d</fix>
</trkpt>
<trkpt lat="-27.2743458" lon="151.2900785">
  <ele>354.39</ele>
  <time>2026-09-01T19:53:34Z</time>
  <course>191.09</course>
  <speed>3.183284467338727</speed>
  <fix>3d</fix>
</trkpt>
<trkpt lat="-27.2743402" lon="151.2900796">
  <ele>354.38</ele>
  <time>2026-09-01T19:53:34Z</time>
  <course>190.38</course>
  <speed>3.05</speed>
  <fix>3d</fix>
</trkpt>
<trkpt lat="-27.2743466" lon="151.2900784">
  <ele>354.39</ele>
  <time>2026-09-01T19:53:34Z</time>
  <course>191.73</course>
  <speed>3.1931175988365976</speed>
  <fix>3d</fix>
</trkpt>
<trkpt lat="-27.2743487" lon="151.2900779">
  <ele>354.4</ele>
  <time>2026-09-01T19:53:34Z</time>
  <course>193.11</course>
  <speed>3.234269623887285</speed>
  <fix>3d</fix>
</trkpt>
<trkpt lat="-27.2743402" lon="151.2900796">
  <ele>354.38</ele>
  <time>2026-09-01T19:53:34Z</time>
  <course>190.38</course>
  <speed>3.05</speed>
  <fix>3d</fix>
</trkpt>
<trkpt lat="-27.2743488" lon="151.2900779">
  <ele>354.4</ele>
  <time>2026-09-01T19:53:34Z</time>
  <course>193.21</course>
  <speed>3.234269623887285</speed>
  <fix>3d</fix>
</trkpt>
<trkpt lat="-27.2743515" lon="151.2900773">
  <ele>354.4</ele>
  <time>2026-09-01T19:53:34Z</time>
  <course>194.14</course>
  <speed>3.2834433145708486</speed>
  <fix>3d</fix>
</trkpt>
<trkpt lat="-27.2743457" lon="151.2900785">
  <ele>354.39</ele>
  <time>2026-09-01T19:53:34Z</time>
  <course>190.5</course>
  <speed>3.17</speed>
  <fix>3d</fix>
</trkpt>
<trkpt lat="-27.2743516" lon="151.2900773">
  <ele>354.4</ele>
  <time>2026-09-01T19:53:34Z</time>
  <course>194.16</course>
  <speed>3.2834433145708486</speed>
  <fix>3d</fix>
</trkpt>
<trkpt lat="-27.2743544" lon="151.2900766">
  <ele>354.4</ele>
  <time>2026-09-01T19:53:34Z</time>
  <course>194.34</course>
  <speed>3.332641594891356</speed>
  <fix>3d</fix>
</trkpt>
<trkpt lat="-27.2743514" lon="151.2900773">
  <ele>354.4</ele>
  <time>2026-09-01T19:53:34Z</time>
  <course>190.41</course>
  <speed>3.28</speed>
  <fix>3d</fix>
</trkpt>
<trkpt lat="-27.2743548" lon="151.2900766">
  <ele>354.4</ele>
  <time>2026-09-01T19:53:34Z</time>
  <course>194.32</course>
  <speed>3.332641594891356</speed>
  <fix>3d</fix>
</trkpt>
<trkpt lat="-27.2743574" lon="151.2900761">
  <ele>354.4</ele>
  <time>2026-09-01T19:53:34Z</time>
  <course>193.97</course>
  <speed>3.372017200430627</speed>
  <fix>3d</fix>
</trkpt>
<trkpt lat="-27.2743514" lon="151.2900773">
  <ele>354.4</ele>
  <time>2026-09-01T19:53:34Z</time>
  <course>190.41</course>
  <speed>3.28</speed>
  <fix>3d</fix>
</trkpt>
<trkpt lat="-27.2743582" lon="151.290076">
  <ele>354.4</ele>
  <time>2026-09-01T19:53:34Z</time>
  <course>193.81</course>
  <speed>3.3818633916821654</speed>
  <fix>3d</fix>
</trkpt>
<trkpt lat="-27.2743604" lon="151.2900755">
  <ele>354.4</ele>
  <time>2026-09-01T19:53:34Z</time>
  <course>193.27</course>
  <speed>3.419546753591768</speed>
  <fix>3d</fix>
</trkpt>
<trkpt lat="-27.2743573" lon="151.2900761">
  <ele>354.4</ele>
  <time>2026-09-01T19:53:34Z</time>
  <course>190.11</course>
  <speed>3.37</speed>
  <fix>3d</fix>
</trkpt>
<trkpt lat="-27.2743612" lon="151.2900754">
  <ele>354.4</ele>
  <time>2026-09-01T19:53:34Z</time>
  <course>193.05</course>
  <speed>3.4294022802815074</speed>
  <fix>3d</fix>
</trkpt>
<trkpt lat="-27.2743634" lon="151.2900748">
  <ele>354.4</ele>
  <time>2026-09-01T19:53:34Z</time>
  <course>192.43</course>
  <speed>3.4688326566728467</speed>
  <fix>3d</fix>
</trkpt>
<trkpt lat="-27.2743573" lon="151.2900761">
  <ele>354.4</ele>
  <time>2026-09-01T19:53:34Z</time>
  <course>190.11</course>
  <speed>3.37</speed>
  <fix>3d</fix>
</trkpt>
<trkpt lat="-27.2743642" lon="151.2900747">
  <ele>354.4</ele>
  <time>2026-09-01T19:53:34Z</time>
  <course>192.21</course>
  <speed>3.478692283028207</speed>
  <fix>3d</fix>
</trkpt>
<trkpt lat="-27.2743665" lon="151.2900743">
  <ele>354.39</ele>
  <time>2026-09-01T19:53:34Z</time>
  <course>191.63</course>
  <speed>3.516503945682416</speed>
  <fix>3d</fix>
</trkpt>
<trkpt lat="-27.2743573" lon="151.2900761">
  <ele>354.4</ele>
  <time>2026-09-01T19:53:34Z</time>
  <course>190.11</course>
  <speed>3.37</speed>
  <fix>3d</fix>
</trkpt>
<trkpt lat="-27.2743666" lon="151.2900742">
  <ele>354.39</ele>
  <time>2026-09-01T19:53:34Z</time>
  <course>191.61</course>
  <speed>3.516503945682416</speed>
  <fix>3d</fix>
</trkpt>
<trkpt lat="-27.2743697" lon="151.2900737">
  <ele>354.39</ele>
  <time>2026-09-01T19:53:34Z</time>
  <course>190.98</course>
  <speed>3.554391649776372</speed>
  <fix>3d</fix>
</trkpt>
<trkpt lat="-27.2743633" lon="151.290075">
  <ele>354.39</ele>
  <time>2026-09-01T19:53:34Z</time>
  <course>189.66</course>
  <speed>3.47</speed>
  <fix>3d</fix>
</trkpt>
<trkpt lat="-27.2743701" lon="151.2900737">
  <ele>354.39</ele>
  <time>2026-09-01T19:53:34Z</time>
  <course>190.91</course>
  <speed>3.564267105591274</speed>
  <fix>3d</fix>
</trkpt>
<trkpt lat="-27.2743728" lon="151.2900732">
  <ele>354.39</ele>
  <time>2026-09-01T19:53:34Z</time>
  <course>190.52</course>
  <speed>3.5824712141202197</speed>
  <fix>3d</fix>
</trkpt>
<trkpt lat="-27.2743633" lon="151.290075">
  <ele>354.39</ele>
  <time>2026-09-01T19:53:34Z</time>
  <course>189.66</course>
  <speed>3.47</speed>
  <fix>3d</fix>
</trkpt>
<trkpt lat="-27.2743737" lon="151.2900731">
  <ele>354.39</ele>
  <time>2026-09-01T19:53:34Z</time>
  <course>190.44</course>
  <speed>3.5824712141202197</speed>
  <fix>3d</fix>
</trkpt>
<trkpt lat="-27.274376" lon="151.2900727">
  <ele>354.39</ele>
  <time>2026-09-01T19:53:34Z</time>
  <course>190.27</course>
  <speed>3.5809495947304257</speed>
  <fix>3d</fix>
</trkpt>
<trkpt lat="-27.2743696" lon="151.2900737">
  <ele>354.39</ele>
  <time>2026-09-01T19:53:34Z</time>
  <course>189.17</course>
  <speed>3.55</speed>
  <fix>3d</fix>
</trkpt>
<trkpt lat="-27.2743768" lon="151.2900724">
  <ele>354.39</ele>
  <time>2026-09-01T19:53:34Z</time>
  <course>190.24</course>
  <speed>3.5809495947304257</speed>
  <fix>3d</fix>
</trkpt>
<trkpt lat="-27.2743793" lon="151.2900721">
  <ele>354.39</ele>
  <time>2026-09-01T19:53:34Z</time>
  <course>190.18</course>
  <speed>3.568094729684177</speed>
  <fix>3d</fix>
</trkpt>
<trkpt lat="-27.2743696" lon="151.2900737">
  <ele>354.39</ele>
  <time>2026-09-01T19:53:34Z</time>
  <course>189.17</course>
  <speed>3.55</speed>
  <fix>3d</fix>
</trkpt>
<trkpt lat="-27.27438" lon="151.2900719">
  <ele>354.39</ele>
  <time>2026-09-01T19:53:34Z</time>
  <course>190.18</course>
  <speed>3.5582017930409737</speed>
  <fix>3d</fix>
</trkpt>
<trkpt lat="-27.2743825" lon="151.2900716">
  <ele>354.39</ele>
  <time>2026-09-01T19:53:34Z</time>
  <course>190.22</course>
  <speed>3.5369619732193898</speed>
  <fix>3d</fix>
</trkpt>
<trkpt lat="-27.2743759" lon="151.2900726">
  <ele>354.39</ele>
  <time>2026-09-01T19:53:34Z</time>
  <course>188.72</course>
  <speed>3.58</speed>
  <fix>3d</fix>
</trkpt>
<trkpt lat="-27.2743832" lon="151.2900713">
  <ele>354.39</ele>
  <time>2026-09-01T19:53:34Z</time>
  <course>190.24</course>
  <speed>3.5256346946330104</speed>
  <fix>3d</fix>
</trkpt>
<trkpt lat="-27.2743856" lon="151.2900711">
  <ele>354.39</ele>
  <time>2026-09-01T19:53:34Z</time>
  <course>190.32</course>
  <speed>3.4747230105434306</speed>
  <fix>3d</fix>
</trkpt>
<trkpt lat="-27.2743759" lon="151.2900726">
  <ele>354.39</ele>
  <time>2026-09-01T19:53:34Z</time>
  <course>188.72</course>
  <speed>3.58</speed>
  <fix>3d</fix>
</trkpt>
<trkpt lat="-27.2743861" lon="151.2900709">
  <ele>354.39</ele>
  <time>2026-09-01T19:53:34Z</time>
  <course>190.34</course>
  <speed>3.464823227814083</speed>
  <fix>3d</fix>
</trkpt>
<trkpt lat="-27.2743887" lon="151.2900706">
  <ele>354.39</ele>
  <time>2026-09-01T19:53:34Z</time>
  <course>190.45</course>
  <speed>3.4026166401756166</speed>
  <fix>3d</fix>
</trkpt>
<trkpt lat="-27.2743822" lon="151.2900716">
  <ele>354.39</ele>
  <time>2026-09-01T19:53:34Z</time>
  <course>188.34</course>
  <speed>3.53</speed>
  <fix>3d</fix>
</trkpt>
<trkpt lat="-27.2743896" lon="151.2900704">
  <ele>354.4</ele>
  <time>2026-09-01T19:53:34Z</time>
  <course>190.49</course>
  <speed>3.3814346067904375</speed>
  <fix>3d</fix>
</trkpt>
<trkpt lat="-27.2743916" lon="151.29007">
  <ele>354.4</ele>
  <time>2026-09-01T19:53:34Z</time>
  <course>190.57</course>
  <speed>3.3107249961300016</speed>
  <fix>3d</fix>
</trkpt>
<trkpt lat="-27.2743822" lon="151.2900716">
  <ele>354.39</ele>
  <time>2026-09-01T19:53:34Z</time>
  <course>188.34</course>
  <speed>3.53</speed>
  <fix>3d</fix>
</trkpt>
<trkpt lat="-27.2743922" lon="151.2900699">
  <ele>354.4</ele>
  <time>2026-09-01T19:53:34Z</time>
  <course>190.6</course>
  <speed>3.29946965435356</speed>
  <fix>3d</fix>
</trkpt>
<trkpt lat="-27.2743946" lon="151.2900697">
  <ele>354.4</ele>
  <time>2026-09-01T19:53:34Z</time>
  <course>190.67</course>
  <speed>3.217530108639234</speed>
  <fix>3d</fix>
</trkpt>
<trkpt lat="-27.2743884" lon="151.2900705">
  <ele>354.39</ele>
  <time>2026-09-01T19:53:34Z</time>
  <course>187.99</course>
  <speed>3.4</speed>
  <fix>3d</fix>
</trkpt>
<trkpt lat="-27.2743955" lon="151.2900694">
  <ele>354.4</ele>
  <time>2026-09-01T19:53:34Z</time>
  <course>190.7</course>
  <speed>3.177876649588527</speed>
  <fix>3d</fix>
</trkpt>
<trkpt lat="-27.2743974" lon="151.2900692">
  <ele>354.41</ele>
  <time>2026-09-01T19:53:34Z</time>
  <course>190.74</course>
  <speed>3.105865418848666</speed>
  <fix>3d</fix>
</trkpt>
<trkpt lat="-27.2743884" lon="151.2900705">
  <ele>354.39</ele>
  <time>2026-09-01T19:53:34Z</time>
  <course>187.99</course>
  <speed>3.4</speed>
  <fix>3d</fix>
</trkpt>
<trkpt lat="-27.2744001" lon="151.2900688">
  <ele>354.41</ele>
  <time>2026-09-01T19:53:34Z</time>
  <course>190.78</course>
  <speed>2.9942110814035807</speed>
  <fix>3d</fix>
</trkpt>
<trkpt lat="-27.2744001" lon="151.2900688">
  <ele>354.41</ele>
  <time>2026-09-01T19:53:34Z</time>
  <course>190.78</course>
  <speed>2.9942110814035807</speed>
  <fix>3d</fix>
</trkpt>
<trkpt lat="-27.2743943" lon="151.2900697">
  <ele>354.4</ele>
  <time>2026-09-01T19:53:34Z</time>
  <course>187.67</course>
  <speed>3.22</speed>
  <fix>3d</fix>
</trkpt>
<trkpt lat="-27.2744027" lon="151.2900685">
  <ele>354.41</ele>
  <time>2026-09-01T19:53:34Z</time>
  <course>190.79</course>
  <speed>2.8714108030722456</speed>
  <fix>3d</fix>
</trkpt>
<trkpt lat="-27.2743943" lon="151.2900697">
  <ele>354.4</ele>
  <time>2026-09-01T19:53:34Z</time>
  <course>187.67</course>
  <speed>3.22</speed>
  <fix>3d</fix>
</trkpt>
<trkpt lat="-27.2744028" lon="151.2900684">
  <ele>354.41</ele>
  <time>2026-09-01T19:53:34Z</time>
  <course>190.79</course>
  <speed>2.8714108030722456</speed>
  <fix>3d</fix>
</trkpt>
<trkpt lat="-27.2744052" lon="151.290068">
  <ele>354.41</ele>
  <time>2026-09-01T19:53:34Z</time>
  <course>190.79</course>
  <speed>2.7598007174431998</speed>
  <fix>3d</fix>
</trkpt>
<trkpt lat="-27.2743999" lon="151.2900689">
  <ele>354.41</ele>
  <time>2026-09-01T19:53:34Z</time>
  <course>187.34</course>
  <speed>3.0</speed>
  <fix>3d</fix>
</trkpt>
<trkpt lat="-27.2744053" lon="151.290068">
  <ele>354.41</ele>
  <time>2026-09-01T19:53:34Z</time>
  <course>190.79</course>
  <speed>2.749872724327437</speed>
  <fix>3d</fix>
</trkpt>
<trkpt lat="-27.2744076" lon="151.2900678">
  <ele>354.41</ele>
  <time>2026-09-01T19:53:34Z</time>
  <course>190.78</course>
  <speed>2.628345487183905</speed>
  <fix>3d</fix>
</trkpt>
<trkpt lat="-27.2743999" lon="151.2900689">
  <ele>354.41</ele>
  <time>2026-09-01T19:53:34Z</time>
  <course>187.34</course>
  <speed>3.0</speed>
  <fix>3d</fix>
</trkpt>
<trkpt lat="-27.2744077" lon="151.2900678">
  <ele>354.41</ele>
  <time>2026-09-01T19:53:34Z</time>
  <course>190.78</course>
  <speed>2.628345487183905</speed>
  <fix>3d</fix>
</trkpt>
<trkpt lat="-27.2744099" lon="151.2900675">
  <ele>354.41</ele>
  <time>2026-09-01T19:53:34Z</time>
  <course>190.77</course>
  <speed>2.506830668393859</speed>
  <fix>3d</fix>
</trkpt>
<trkpt lat="-27.274405" lon="151.2900681">
  <ele>354.41</ele>
  <time>2026-09-01T19:53:34Z</time>
  <course>187.02</course>
  <speed>2.76</speed>
  <fix>3d</fix>
</trkpt>
<trkpt lat="-27.27441" lon="151.2900675">
  <ele>354.41</ele>
  <time>2026-09-01T19:53:34Z</time>
  <course>190.77</course>
  <speed>2.506830668393859</speed>
  <fix>3d</fix>
</trkpt>
<trkpt lat="-27.2744121" lon="151.2900671">
  <ele>354.4</ele>
  <time>2026-09-01T19:53:34Z</time>
  <course>190.75</course>
  <speed>2.3742788378789883</speed>
  <fix>3d</fix>
</trkpt>
<trkpt lat="-27.274405" lon="151.2900681">
  <ele>354.41</ele>
  <time>2026-09-01T19:53:34Z</time>
  <course>187.02</course>
  <speed>2.76</speed>
  <fix>3d</fix>
</trkpt>
<trkpt lat="-27.2744122" lon="151.2900671">
  <ele>354.4</ele>
  <time>2026-09-01T19:53:34Z</time>
  <course>190.75</course>
  <speed>2.3742788378789883</speed>
  <fix>3d</fix>
</trkpt>
<trkpt lat="-27.2744142" lon="151.2900669">
  <ele>354.39</ele>
  <time>2026-09-01T19:53:34Z</time>
  <course>190.75</course>
  <speed>2.252820454452596</speed>
  <fix>3d</fix>
</trkpt>
<trkpt lat="-27.2744097" lon="151.2900675">
  <ele>354.4</ele>
  <time>2026-09-01T19:53:34Z</time>
  <course>186.67</course>
  <speed>2.51</speed>
  <fix>3d</fix>
</trkpt>
<trkpt lat="-27.2744143" lon="151.2900669">
  <ele>354.39</ele>
  <time>2026-09-01T19:53:34Z</time>
  <course>190.75</course>
  <speed>2.2428776159211186</speed>
  <fix>3d</fix>
</trkpt>
<trkpt lat="-27.2744161" lon="151.2900666">
  <ele>354.39</ele>
  <time>2026-09-01T19:53:34Z</time>
  <course>190.75</course>
  <speed>2.1214381914163796</speed>
  <fix>3d</fix>
</trkpt>
<trkpt lat="-27.2744097" lon="151.2900675">
  <ele>354.4</ele>
  <time>2026-09-01T19:53:34Z</time>
  <course>186.67</course>
  <speed>2.51</speed>
  <fix>3d</fix>
</trkpt>
<trkpt lat="-27.2744162" lon="151.2900666">
  <ele>354.39</ele>
  <time>2026-09-01T19:53:34Z</time>
  <course>190.75</course>
  <speed>2.1214381914163796</speed>
  <fix>3d</fix>
</trkpt>
<trkpt lat="-27.274418" lon="151.2900665">
  <ele>354.38</ele>
  <time>2026-09-01T19:53:34Z</time>
  <course>190.76</course>
  <speed>1.9900753754569198</speed>
  <fix>3d</fix>
</trkpt>
<trkpt lat="-27.274414" lon="151.2900669">
  <ele>354.39</ele>
  <time>2026-09-01T19:53:34Z</time>
  <course>186.28</course>
  <speed>2.26</speed>
  <fix>3d</fix>
</trkpt>
<trkpt lat="-27.274418" lon="151.2900665">
  <ele>354.38</ele>
  <time>2026-09-01T19:53:34Z</time>
  <course>190.76</course>
  <speed>1.9900753754569198</speed>
  <fix>3d</fix>
</trkpt>
<trkpt lat="-27.2744197" lon="151.2900663">
  <ele>354.37</ele>
  <time>2026-09-01T19:53:34Z</time>
  <course>190.78</course>
  <speed>1.8587361297397758</speed>
  <fix>3d</fix>
</trkpt>
<trkpt lat="-27.274414" lon="151.2900669">
  <ele>354.39</ele>
  <time>2026-09-01T19:53:34Z</time>
  <course>186.28</course>
  <speed>2.26</speed>
  <fix>3d</fix>
</trkpt>
<trkpt lat="-27.2744198" lon="151.2900663">
  <ele>354.37</ele>
  <time>2026-09-01T19:53:34Z</time>
  <course>190.78</course>
  <speed>1.8587361297397758</speed>
  <fix>3d</fix>
</trkpt>
<trkpt lat="-27.2744213" lon="151.2900661">
  <ele>354.36</ele>
  <time>2026-09-01T19:53:34Z</time>
  <course>190.8</course>
  <speed>1.73738308959193</speed>
  <fix>3d</fix>
</trkpt>
<trkpt lat="-27.2744178" lon="151.2900665">
  <ele>354.38</ele>
  <time>2026-09-01T19:53:34Z</time>
  <course>185.84</course>
  <speed>2.0</speed>
  <fix>3d</fix>
</trkpt>
<trkpt lat="-27.2744214" lon="151.2900661">
  <ele>354.36</ele>
  <time>2026-09-01T19:53:34Z</time>
  <course>190.8</course>
  <speed>1.726528308484978</speed>
  <fix>3d</fix>
</trkpt>
<trkpt lat="-27.2744228" lon="151.290066">
  <ele>354.35</ele>
  <time>2026-09-01T19:53:34Z</time>
  <course>190.82</course>
  <speed>1.6061133210331082</speed>
  <fix>3d</fix>
</trkpt>
<trkpt lat="-27.2744178" lon="151.2900665">
  <ele>354.38</ele>
  <time>2026-09-01T19:53:34Z</time>
  <course>185.84</course>
  <speed>2.0</speed>
  <fix>3d</fix>
</trkpt>
<trkpt lat="-27.2744231" lon="151.2900659">
  <ele>354.35</ele>
  <time>2026-09-01T19:53:34Z</time>
  <course>190.82</course>
  <speed>1.5853390804493528</speed>
  <fix>3d</fix>
</trkpt>
<trkpt lat="-27.2744242" lon="151.2900657">
  <ele>354.34</ele>
  <time>2026-09-01T19:53:34Z</time>
  <course>190.84</course>
  <speed>1.4848568954616468</speed>
  <fix>3d</fix>
</trkpt>
<trkpt lat="-27.2744211" lon="151.2900661">
  <ele>354.36</ele>
  <time>2026-09-01T19:53:34Z</time>
  <course>185.31</course>
  <speed>1.74</speed>
  <fix>3d</fix>
</trkpt>
<trkpt lat="-27.2744243" lon="151.2900657">
  <ele>354.34</ele>
  <time>2026-09-01T19:53:34Z</time>
  <course>190.84</course>
  <speed>1.4848568954616468</speed>
  <fix>3d</fix>
</trkpt>
<trkpt lat="-27.2744255" lon="151.2900656">
  <ele>354.33</ele>
  <time>2026-09-01T19:53:34Z</time>
  <course>190.86</course>
  <speed>1.373644786689776</speed>
  <fix>3d</fix>
</trkpt>
<trkpt lat="-27.2744211" lon="151.2900661">
  <ele>354.36</ele>
  <time>2026-09-01T19:53:34Z</time>
  <course>185.31</course>
  <speed>1.74</speed>
  <fix>3d</fix>
</trkpt>
<trkpt lat="-27.2744255" lon="151.2900656">
  <ele>354.33</ele>
  <time>2026-09-01T19:53:34Z</time>
  <course>190.86</course>
  <speed>1.3636715146984628</speed>
  <fix>3d</fix>
</trkpt>
<trkpt lat="-27.2744267" lon="151.2900656">
  <ele>354.31</ele>
  <time>2026-09-01T19:53:34Z</time>
  <course>190.88</course>
  <speed>1.2625371281669304</speed>
  <fix>3d</fix>
</trkpt>
<trkpt lat="-27.274424" lon="151.2900658">
  <ele>354.34</ele>
  <time>2026-09-01T19:53:34Z</time>
  <course>184.68</course>
  <speed>1.49</speed>
  <fix>3d</fix>
</trkpt>
<trkpt lat="-27.2744267" lon="151.2900656">
  <ele>354.31</ele>
  <time>2026-09-01T19:53:34Z</time>
  <course>190.88</course>
  <speed>1.2525573839150046</speed>
  <fix>3d</fix>
</trkpt>
<trkpt lat="-27.2744278" lon="151.2900655">
  <ele>354.28</ele>
  <time>2026-09-01T19:53:34Z</time>
  <course>190.9</course>
  <speed>1.1621101496846158</speed>
  <fix>3d</fix>
</trkpt>
<trkpt lat="-27.274424" lon="151.2900658">
  <ele>354.34</ele>
  <time>2026-09-01T19:53:34Z</time>
  <course>184.68</course>
  <speed>1.49</speed>
  <fix>3d</fix>
</trkpt>
<trkpt lat="-27.2744278" lon="151.2900655">
  <ele>354.28</ele>
  <time>2026-09-01T19:53:34Z</time>
  <course>190.9</course>
  <speed>1.1621101496846158</speed>
  <fix>3d</fix>
</trkpt>
<trkpt lat="-27.2744288" lon="151.2900655">
  <ele>354.24</ele>
  <time>2026-09-01T19:53:34Z</time>
  <course>190.91</course>
  <speed>1.0616967551989598</speed>
  <fix>3d</fix>
</trkpt>
<trkpt lat="-27.2744265" lon="151.2900656">
  <ele>354.3</ele>
  <time>2026-09-01T19:53:34Z</time>
  <course>183.99</course>
  <speed>1.27</speed>
  <fix>3d</fix>
</trkpt>
<trkpt lat="-27.2744288" lon="151.2900655">
  <ele>354.23</ele>
  <time>2026-09-01T19:53:34Z</time>
  <course>190.91</course>
  <speed>1.061178590059185</speed>
  <fix>3d</fix>
</trkpt>
<trkpt lat="-27.2744297" lon="151.2900654">
  <ele>354.18</ele>
  <time>2026-09-01T19:53:34Z</time>
  <course>190.92</course>
  <speed>0.97082439194738</speed>
  <fix>3d</fix>
</trkpt>
<trkpt lat="-27.2744265" lon="151.2900656">
  <ele>354.3</ele>
  <time>2026-09-01T19:53:34Z</time>
  <course>183.99</course>
  <speed>1.27</speed>
  <fix>3d</fix>
</trkpt>
<trkpt lat="-27.2744297" lon="151.2900654">
  <ele>354.17</ele>
  <time>2026-09-01T19:53:34Z</time>
  <course>190.92</course>
  <speed>0.9608329719571451</speed>
  <fix>3d</fix>
</trkpt>
<trkpt lat="-27.2744305" lon="151.2900654">
  <ele>354.1</ele>
  <time>2026-09-01T19:53:34Z</time>
  <course>190.92</course>
  <speed>0.8705170877128146</speed>
  <fix>3d</fix>
</trkpt>
<trkpt lat="-27.2744286" lon="151.2900654">
  <ele>354.22</ele>
  <time>2026-09-01T19:53:34Z</time>
  <course>183.24</course>
  <speed>1.07</speed>
  <fix>3d</fix>
</trkpt>
<trkpt lat="-27.2744305" lon="151.2900654">
  <ele>354.1</ele>
  <time>2026-09-01T19:53:34Z</time>
  <course>190.92</course>
  <speed>0.8705170877128146</speed>
  <fix>3d</fix>
</trkpt>
<trkpt lat="-27.2744313" lon="151.2900652">
  <ele>354.01</ele>
  <time>2026-09-01T19:53:34Z</time>
  <course>190.92</course>
  <speed>0.7802563681252463</speed>
  <fix>3d</fix>
</trkpt>
<trkpt lat="-27.2744286" lon="151.2900654">
  <ele>354.22</ele>
  <time>2026-09-01T19:53:34Z</time>
  <course>183.24</course>
  <speed>1.07</speed>
  <fix>3d</fix>
</trkpt>
<trkpt lat="-27.2744313" lon="151.2900652">
  <ele>354.01</ele>
  <time>2026-09-01T19:53:34Z</time>
  <course>190.92</course>
  <speed>0.7702596964660685</speed>
  <fix>3d</fix>
</trkpt>
<trkpt lat="-27.2744319" lon="151.2900652">
  <ele>353.91</ele>
  <time>2026-09-01T19:53:34Z</time>
  <course>190.9</course>
  <speed>0.6800735254367721</speed>
  <fix>3d</fix>
</trkpt>
<trkpt lat="-27.2744304" lon="151.2900653">
  <ele>354.09</ele>
  <time>2026-09-01T19:53:34Z</time>
  <course>182.32</course>
  <speed>0.88</speed>
  <fix>3d</fix>
</trkpt>
<trkpt lat="-27.2744319" lon="151.2900652">
  <ele>353.9</ele>
  <time>2026-09-01T19:53:34Z</time>
  <course>190.9</course>
  <speed>0.6800735254367721</speed>
  <fix>3d</fix>
</trkpt>
<trkpt lat="-27.2744325" lon="151.2900652">
  <ele>353.79</ele>
  <time>2026-09-01T19:53:34Z</time>
  <course>190.88</course>
  <speed>0.59</speed>
  <fix>3d</fix>
</trkpt>
<trkpt lat="-27.2744304" lon="151.2900653">
  <ele>354.09</ele>
  <time>2026-09-01T19:53:34Z</time>
  <course>182.32</course>
  <speed>0.88</speed>
  <fix>3d</fix>
</trkpt>
<trkpt lat="-27.2744326" lon="151.2900652">
  <ele>353.77</ele>
  <time>2026-09-01T19:53:34Z</time>
  <course>190.88</course>
  <speed>0.58</speed>
  <fix>3d</fix>
</trkpt>
<trkpt lat="-27.274433" lon="151.2900652">
  <ele>353.67</ele>
  <time>2026-09-01T19:53:34Z</time>
  <course>190.85</course>
  <speed>0.5</speed>
  <fix>3d</fix>
</trkpt>
<trkpt lat="-27.2744318" lon="151.2900652">
  <ele>353.9</ele>
  <time>2026-09-01T19:53:34Z</time>
  <course>181.09</course>
  <speed>0.69</speed>
  <fix>3d</fix>
</trkpt>
<trkpt lat="-27.274433" lon="151.2900652">
  <ele>353.66</ele>
  <time>2026-09-01T19:53:34Z</time>
  <course>190.85</course>
  <speed>0.5</speed>
  <fix>3d</fix>
</trkpt>
<trkpt lat="-27.2744334" lon="151.2900652">
  <ele>353.53</ele>
  <time>2026-09-01T19:53:34Z</time>
  <course>190.81</course>
  <speed>0.41012193308819755</speed>
  <fix>3d</fix>
</trkpt>
<trkpt lat="-27.2744318" lon="151.2900652">
  <ele>353.9</ele>
  <time>2026-09-01T19:53:34Z</time>
  <course>181.09</course>
  <speed>0.69</speed>
  <fix>3d</fix>
</trkpt>
<trkpt lat="-27.2744334" lon="151.2900652">
  <ele>353.53</ele>
  <time>2026-09-01T19:53:34Z</time>
  <course>190.81</course>
  <speed>0.41012193308819755</speed>
  <fix>3d</fix>
</trkpt>
<trkpt lat="-27.2744337" lon="151.2900652">
  <ele>353.4</ele>
  <time>2026-09-01T19:53:34Z</time>
  <course>190.76</course>
  <speed>0.3301514803843835</speed>
  <fix>3d</fix>
</trkpt>
<trkpt lat="-27.2744329" lon="151.2900652">
  <ele>353.66</ele>
  <time>2026-09-01T19:53:34Z</time>
  <course>179.38</course>
  <speed>0.51</speed>
  <fix>3d</fix>
</trkpt>
<trkpt lat="-27.2744337" lon="151.2900652">
  <ele>353.39</ele>
  <time>2026-09-01T19:53:34Z</time>
  <course>190.76</course>
  <speed>0.3306055050963308</speed>
  <fix>3d</fix>
</trkpt>
<trkpt lat="-27.274434" lon="151.2900652">
  <ele>353.26</ele>
  <time>2026-09-01T19:53:34Z</time>
  <course>190.71</course>
  <speed>0.260768096208106</speed>
  <fix>3d</fix>
</trkpt>
<trkpt lat="-27.2744329" lon="151.2900652">
  <ele>353.66</ele>
  <time>2026-09-01T19:53:34Z</time>
  <course>179.38</course>
  <speed>0.51</speed>
  <fix>3d</fix>
</trkpt>
<trkpt lat="-27.274434" lon="151.2900652">
  <ele>353.25</ele>
  <time>2026-09-01T19:53:34Z</time>
  <course>190.7</course>
  <speed>0.25079872407968906</speed>
  <fix>3d</fix>
</trkpt>
<trkpt lat="-27.2744342" lon="151.2900652">
  <ele>353.12</ele>
  <time>2026-09-01T19:53:34Z</time>
  <course>190.64</course>
  <speed>0.191049731745428</speed>
  <fix>3d</fix>
</trkpt>
<trkpt lat="-27.2744337" lon="151.2900652">
  <ele>353.4</ele>
  <time>2026-09-01T19:53:34Z</time>
  <course>176.9</course>
  <speed>0.34</speed>
  <fix>3d</fix>
</trkpt>
<trkpt lat="-27.2744342" lon="151.2900652">
  <ele>353.12</ele>
  <time>2026-09-01T19:53:34Z</time>
  <course>190.64</course>
  <speed>0.191049731745428</speed>
  <fix>3d</fix>
</trkpt>
<trkpt lat="-27.2744344" lon="151.2900652">
  <ele>352.99</ele>
  <time>2026-09-01T19:53:34Z</time>
  <course>190.56</course>
  <speed>0.13152946437965907</speed>
  <fix>3d</fix>
</trkpt>
<trkpt lat="-27.2744337" lon="151.2900652">
  <ele>353.4</ele>
  <time>2026-09-01T19:53:34Z</time>
  <course>176.9</course>
  <speed>0.34</speed>
  <fix>3d</fix>
</trkpt>
<trkpt lat="-27.2744344" lon="151.2900652">
  <ele>352.98</ele>
  <time>2026-09-01T19:53:34Z</time>
  <course>190.56</course>
  <speed>0.13152946437965907</speed>
  <fix>3d</fix>
</trkpt>
<trkpt lat="-27.2744345" lon="151.2900652">
  <ele>352.85</ele>
  <time>2026-09-01T19:53:34Z</time>
  <course>190.44</course>
  <speed>0.07071067811865475</speed>
  <fix>3d</fix>
</trkpt>
<trkpt lat="-27.2744341" lon="151.2900652">
  <ele>353.13</ele>
  <time>2026-09-01T19:53:34Z</time>
  <course>173.08</course>
  <speed>0.2</speed>
  <fix>3d</fix>
</trkpt>
<trkpt lat="-27.2744345" lon="151.2900652">
  <ele>352.85</ele>
  <time>2026-09-01T19:53:34Z</time>
  <course>190.44</course>
  <speed>0.07071067811865475</speed>
  <fix>3d</fix>
</trkpt>
<trkpt lat="-27.2744345" lon="151.2900654">
  <ele>352.72</ele>
  <time>2026-09-01T19:53:34Z</time>
  <course>190.19</course>
  <speed>0.02</speed>
  <fix>3d</fix>
</trkpt>
<trkpt lat="-27.2744341" lon="151.2900652">
  <ele>353.13</ele>
  <time>2026-09-01T19:53:34Z</time>
  <course>173.08</course>
  <speed>0.2</speed>
  <fix>3d</fix>
</trkpt>
<trkpt lat="-27.2744345" lon="151.2900654">
  <ele>352.72</ele>
  <time>2026-09-01T19:53:34Z</time>
  <course>190.18</course>
  <speed>0.02</speed>
  <fix>3d</fix>
</trkpt>
<trkpt lat="-27.2744345" lon="151.2900654">
  <ele>352.6</ele>
  <time>2026-09-01T19:53:34Z</time>
  <course>189.94</course>
  <speed>0.01</speed>
  <fix>3d</fix>
</trkpt>
<trkpt lat="-27.2744343" lon="151.2900653">
  <ele>352.86</ele>
  <time>2026-09-01T19:53:34Z</time>
  <course>170.38</course>
  <speed>0.08</speed>
  <fix>3d</fix>
</trkpt>
<trkpt lat="-27.2744345" lon="151.2900654">
  <ele>352.59</ele>
  <time>2026-09-01T19:53:34Z</time>
  <course>189.93</course>
  <speed>0.01</speed>
  <fix>3d</fix>
</trkpt>
<trkpt lat="-27.2744345" lon="151.2900654">
  <ele>352.47</ele>
  <time>2026-09-01T19:53:34Z</time>
  <course>189.92</course>
  <speed>0.0412310562561766</speed>
  <fix>3d</fix>
</trkpt>
<trkpt lat="-27.2744343" lon="151.2900653">
  <ele>352.86</ele>
  <time>2026-09-01T19:53:34Z</time>
  <course>170.38</course>
  <speed>0.08</speed>
  <fix>3d</fix>
</trkpt>
<trkpt lat="-27.2744345" lon="151.2900654">
  <ele>352.47</ele>
  <time>2026-09-01T19:53:34Z</time>
  <course>189.93</course>
  <speed>0.0412310562561766</speed>
  <fix>3d</fix>
</trkpt>
<trkpt lat="-27.2744345" lon="151.2900654">
  <ele>352.36</ele>
  <time>2026-09-01T19:53:34Z</time>
  <course>190.1</course>
  <speed>0.07071067811865475</speed>
  <fix>3d</fix>
</trkpt>
<trkpt lat="-27.2744345" lon="151.2900654">
  <ele>352.6</ele>
  <time>2026-09-01T19:53:34Z</time>
  <course>38.33</course>
  <speed>0.01</speed>
  <fix>3d</fix>
</trkpt>
<trkpt lat="-27.2744345" lon="151.2900654">
  <ele>352.35</ele>
  <time>2026-09-01T19:53:34Z</time>
  <course>190.11</course>
  <speed>0.07071067811865475</speed>
  <fix>3d</fix>
</trkpt>
<trkpt lat="-27.2744344" lon="151.2900654">
  <ele>352.24</ele>
  <time>2026-09-01T19:53:34Z</time>
  <course>190.41</course>
  <speed>0.09055385138137417</speed>
  <fix>3d</fix>
</trkpt>
<trkpt lat="-27.2744345" lon="151.2900654">
  <ele>352.6</ele>
  <time>2026-09-01T19:53:34Z</time>
  <course>38.33</course>
  <speed>0.01</speed>
  <fix>3d</fix>
</trkpt>
<trkpt lat="-27.2744344" lon="151.2900654">
  <ele>352.24</ele>
  <time>2026-09-01T19:53:34Z</time>
  <course>190.43</course>
  <speed>0.09055385138137417</speed>
  <fix>3d</fix>
</trkpt>
<trkpt lat="-27.2744343" lon="151.2900654">
  <ele>352.14</ele>
  <time>2026-09-01T19:53:34Z</time>
  <course>190.79</course>
  <speed>0.1118033988749895</speed>
  <fix>3d</fix>
</trkpt>
<trkpt lat="-27.2744344" lon="151.2900654">
  <ele>352.36</ele>
  <time>2026-09-01T19:53:34Z</time>
  <course>11.79</course>
  <speed>0.07</speed>
  <fix>3d</fix>
</trkpt>
<trkpt lat="-27.2744343" lon="151.2900654">
  <ele>352.13</ele>
  <time>2026-09-01T19:53:34Z</time>
  <course>190.8</course>
  <speed>0.1118033988749895</speed>
  <fix>3d</fix>
</trkpt>
<trkpt lat="-27.2744342" lon="151.2900654">
  <ele>352.03</ele>
  <time>2026-09-01T19:53:34Z</time>
  <course>191.16</course>
  <speed>0.13152946437965907</speed>
  <fix>3d</fix>
</trkpt>
<trkpt lat="-27.2744344" lon="151.2900654">
  <ele>352.36</ele>
  <time>2026-09-01T19:53:34Z</time>
  <course>11.79</course>
  <speed>0.07</speed>
  <fix>3d</fix>
</trkpt>
<trkpt lat="-27.2744342" lon="151.2900655">
  <ele>352.03</ele>
  <time>2026-09-01T19:53:34Z</time>
  <course>191.17</course>
  <speed>0.13152946437965907</speed>
  <fix>3d</fix>
</trkpt>
<trkpt lat="-27.274434" lon="151.2900655">
  <ele>351.93</ele>
  <time>2026-09-01T19:53:34Z</time>
  <course>191.47</course>
  <speed>0.14317821063276354</speed>
  <fix>3d</fix>
</trkpt>
<trkpt lat="-27.2744343" lon="151.2900654">
  <ele>352.14</ele>
  <time>2026-09-01T19:53:34Z</time>
  <course>11.83</course>
  <speed>0.11</speed>
  <fix>3d</fix>
</trkpt>
<trkpt lat="-27.274434" lon="151.2900655">
  <ele>351.93</ele>
  <time>2026-09-01T19:53:34Z</time>
  <course>191.48</course>
  <speed>0.14317821063276354</speed>
  <fix>3d</fix>
</trkpt>
<trkpt lat="-27.274434" lon="151.2900655">
  <ele>351.83</ele>
  <time>2026-09-01T19:53:34Z</time>
  <course>191.69</course>
  <speed>0.14317821063276354</speed>
  <fix>3d</fix>
</trkpt>
<trkpt lat="-27.2744343" lon="151.2900654">
  <ele>352.14</ele>
  <time>2026-09-01T19:53:34Z</time>
  <course>11.83</course>
  <speed>0.11</speed>
  <fix>3d</fix>
</trkpt>
<trkpt lat="-27.274434" lon="151.2900655">
  <ele>351.83</ele>
  <time>2026-09-01T19:53:34Z</time>
  <course>191.69</course>
  <speed>0.14317821063276354</speed>
  <fix>3d</fix>
</trkpt>
<trkpt lat="-27.2744338" lon="151.2900655">
  <ele>351.74</ele>
  <time>2026-09-01T19:53:34Z</time>
  <course>191.8</course>
  <speed>0.14317821063276354</speed>
  <fix>3d</fix>
</trkpt>
<trkpt lat="-27.2744341" lon="151.2900654">
  <ele>351.94</ele>
  <time>2026-09-01T19:53:34Z</time>
  <course>12.49</course>
  <speed>0.14</speed>
  <fix>3d</fix>
</trkpt>
<trkpt lat="-27.2744338" lon="151.2900655">
  <ele>351.73</ele>
  <time>2026-09-01T19:53:34Z</time>
  <course>191.8</course>
  <speed>0.14317821063276354</speed>
  <fix>3d</fix>
</trkpt>
<trkpt lat="-27.2744337" lon="151.2900656">
  <ele>351.64</ele>
  <time>2026-09-01T19:53:34Z</time>
  <course>191.82</course>
  <speed>0.14317821063276354</speed>
  <fix>3d</fix>
</trkpt>
<trkpt lat="-27.2744341" lon="151.2900654">
  <ele>351.94</ele>
  <time>2026-09-01T19:53:34Z</time>
  <course>12.49</course>
  <speed>0.14</speed>
  <fix>3d</fix>
</trkpt>
<trkpt lat="-27.2744337" lon="151.2900656">
  <ele>351.64</ele>
  <time>2026-09-01T19:53:34Z</time>
  <course>191.82</course>
  <speed>0.14317821063276354</speed>
  <fix>3d</fix>
</trkpt>
<trkpt lat="-27.2744336" lon="151.2900656">
  <ele>351.55</ele>
  <time>2026-09-01T19:53:34Z</time>
  <course>191.76</course>
  <speed>0.14317821063276354</speed>
  <fix>3d</fix>
</trkpt>
<trkpt lat="-27.2744338" lon="151.2900655">
  <ele>351.74</ele>
  <time>2026-09-01T19:53:34Z</time>
  <course>12.87</course>
  <speed>0.15</speed>
  <fix>3d</fix>
</trkpt>
<trkpt lat="-27.2744336" lon="151.2900656">
  <ele>351.55</ele>
  <time>2026-09-01T19:53:34Z</time>
  <course>191.75</course>
  <speed>0.14317821063276354</speed>
  <fix>3d</fix>
</trkpt>
<trkpt lat="-27.2744335" lon="151.2900656">
  <ele>351.46</ele>
  <time>2026-09-01T19:53:35Z</time>
  <course>191.64</course>
  <speed>0.13341664064126335</speed>
  <fix>3d</fix>
</trkpt>
<trkpt lat="-27.2744338" lon="151.2900655">
  <ele>351.74</ele>
  <time>2026-09-01T19:53:35Z</time>
  <course>12.87</course>
  <speed>0.15</speed>
  <fix>3d</fix>
</trkpt>
<trkpt lat="-27.2744334" lon="151.2900656">
  <ele>351.46</ele>
  <time>2026-09-01T19:53:35Z</time>
  <course>191.64</course>
  <speed>0.13341664064126335</speed>
  <fix>3d</fix>
</trkpt>
<trkpt lat="-27.2744333" lon="151.2900656">
  <ele>351.37</ele>
  <time>2026-09-01T19:53:35Z</time>
  <course>191.5</course>
  <speed>0.13152946437965907</speed>
  <fix>3d</fix>
</trkpt>
<trkpt lat="-27.2744336" lon="151.2900656">
  <ele>351.55</ele>
  <time>2026-09-01T19:53:35Z</time>
  <course>12.85</course>
  <speed>0.14</speed>
  <fix>3d</fix>
</trkpt>
<trkpt lat="-27.2744333" lon="151.2900656">
  <ele>351.37</ele>
  <time>2026-09-01T19:53:35Z</time>
  <course>191.5</course>
  <speed>0.13152946437965907</speed>
  <fix>3d</fix>
</trkpt>
<trkpt lat="-27.2744332" lon="151.2900656">
  <ele>351.28</ele>
  <time>2026-09-01T19:53:35Z</time>
  <course>191.36</course>
  <speed>0.12165525060596438</speed>
  <fix>3d</fix>
</trkpt>
<trkpt lat="-27.2744336" lon="151.2900656">
  <ele>351.55</ele>
  <time>2026-09-01T19:53:35Z</time>
  <course>12.85</course>
  <speed>0.14</speed>
  <fix>3d</fix>
</trkpt>
<trkpt lat="-27.2744332" lon="151.2900656">
  <ele>351.28</ele>
  <time>2026-09-01T19:53:35Z</time>
  <course>191.36</course>
  <speed>0.12165525060596438</speed>
  <fix>3d</fix>
</trkpt>
<trkpt lat="-27.2744331" lon="151.2900656">
  <ele>351.19</ele>
  <time>2026-09-01T19:53:35Z</time>
  <course>191.25</course>
  <speed>0.1019803902718557</speed>
  <fix>3d</fix>
</trkpt>
<trkpt lat="-27.2744333" lon="151.2900656">
  <ele>351.37</ele>
  <time>2026-09-01T19:53:35Z</time>
  <course>12.69</course>
  <speed>0.13</speed>
  <fix>3d</fix>
</trkpt>
<trkpt lat="-27.2744331" lon="151.2900656">
  <ele>351.19</ele>
  <time>2026-09-01T19:53:35Z</time>
  <course>191.24</course>
  <speed>0.1019803902718557</speed>
  <fix>3d</fix>
</trkpt>
<trkpt lat="-27.274433" lon="151.2900657">
  <ele>351.1</ele>
  <time>2026-09-01T19:53:35Z</time>
  <course>191.16</course>
  <speed>0.09219544457292887</speed>
  <fix>3d</fix>
</trkpt>
<trkpt lat="-27.2744333" lon="151.2900656">
  <ele>351.37</ele>
  <time>2026-09-01T19:53:35Z</time>
  <course>12.69</course>
  <speed>0.13</speed>
  <fix>3d</fix>
</trkpt>
<trkpt lat="-27.274433" lon="151.2900657">
  <ele>351.1</ele>
  <time>2026-09-01T19:53:35Z</time>
  <course>191.15</course>
  <speed>0.09219544457292887</speed>
  <fix>3d</fix>
</trkpt>
<trkpt lat="-27.2744329" lon="151.2900657">
  <ele>351.01</ele>
  <time>2026-09-01T19:53:35Z</time>
  <course>191.1</course>
  <speed>0.08062257748298549</speed>
  <fix>3d</fix>
</trkpt>
<trkpt lat="-27.274433" lon="151.2900657">
  <ele>351.19</ele>
  <time>2026-09-01T19:53:35Z</time>
  <course>12.57</course>
  <speed>0.11</speed>
  <fix>3d</fix>
</trkpt>
<trkpt lat="-27.2744329" lon="151.2900657">
  <ele>351.01</ele>
  <time>2026-09-01T19:53:35Z</time>
  <course>191.1</course>
  <speed>0.08062257748298549</speed>
  <fix>3d</fix>
</trkpt>
<trkpt lat="-27.2744329" lon="151.2900657">
  <ele>350.93</ele>
  <time>2026-09-01T19:53:35Z</time>
  <course>191.08</course>
  <speed>0.06082762530298219</speed>
  <fix>3d</fix>
</trkpt>
<trkpt lat="-27.274433" lon="151.2900657">
  <ele>351.19</ele>
  <time>2026-09-01T19:53:35Z</time>
  <course>12.57</course>
  <speed>0.11</speed>
  <fix>3d</fix>
</trkpt>
<trkpt lat="-27.2744329" lon="151.2900657">
  <ele>350.92</ele>
  <time>2026-09-01T19:53:35Z</time>
  <course>191.08</course>
  <speed>0.06082762530298219</speed>
  <fix>3d</fix>
</trkpt>
<trkpt lat="-27.2744328" lon="151.2900657">
  <ele>350.84</ele>
  <time>2026-09-01T19:53:35Z</time>
  <course>191.11</course>
  <speed>0.05099019513592785</speed>
  <fix>3d</fix>
</trkpt>
<trkpt lat="-27.2744329" lon="151.2900657">
  <ele>351.02</ele>
  <time>2026-09-01T19:53:35Z</time>
  <course>12.84</course>
  <speed>0.08</speed>
  <fix>3d</fix>
</trkpt>
<trkpt lat="-27.2744328" lon="151.2900657">
  <ele>350.84</ele>
  <time>2026-09-01T19:53:35Z</time>
  <course>191.11</course>
  <speed>0.0412310562561766</speed>
  <fix>3d</fix>
</trkpt>
<trkpt lat="-27.2744328" lon="151.2900657">
  <ele>350.76</ele>
  <time>2026-09-01T19:53:35Z</time>
  <course>191.16</course>
  <speed>0.03</speed>
  <fix>3d</fix>
</trkpt>
<trkpt lat="-27.2744329" lon="151.2900657">
  <ele>351.02</ele>
  <time>2026-09-01T19:53:35Z</time>
  <course>12.84</course>
  <speed>0.08</speed>
  <fix>3d</fix>
</trkpt>
<trkpt lat="-27.2744328" lon="151.2900657">
  <ele>350.75</ele>
  <time>2026-09-01T19:53:35Z</time>
  <course>191.16</course>
  <speed>0.03</speed>
  <fix>3d</fix>
</trkpt>
<trkpt lat="-27.2744328" lon="151.2900657">
  <ele>350.67</ele>
  <time>2026-09-01T19:53:35Z</time>
  <course>191.22</course>
  <speed>0.01</speed>
  <fix>3d</fix>
</trkpt>
<trkpt lat="-27.2744328" lon="151.2900657">
  <ele>350.84</ele>
  <time>2026-09-01T19:53:35Z</time>
  <course>14.08</course>
  <speed>0.05</speed>
  <fix>3d</fix>
</trkpt>
<trkpt lat="-27.2744328" lon="151.2900657">
  <ele>350.67</ele>
  <time>2026-09-01T19:53:35Z</time>
  <course>191.22</course>
  <speed>0.01</speed>
  <fix>3d</fix>
</trkpt>
<trkpt lat="-27.2744328" lon="151.2900657">
  <ele>350.59</ele>
  <time>2026-09-01T19:53:35Z</time>
  <course>191.26</course>
  <speed>0.0</speed>
  <fix>3d</fix>
</trkpt>
<trkpt lat="-27.2744328" lon="151.2900657">
  <ele>350.84</ele>
  <time>2026-09-01T19:53:35Z</time>
  <course>14.08</course>
  <speed>0.05</speed>
  <fix>3d</fix>
</trkpt>
<trkpt lat="-27.2744328" lon="151.2900657">
  <ele>350.58</ele>
  <time>2026-09-01T19:53:35Z</time>
  <course>191.26</course>
  <speed>0.0</speed>
  <fix>3d</fix>
</trkpt>
<trkpt lat="-27.2744328" lon="151.2900657">
  <ele>350.5</ele>
  <time>2026-09-01T19:53:35Z</time>
  <course>191.26</course>
  <speed>0.02</speed>
  <fix>3d</fix>
</trkpt>
<trkpt lat="-27.2744328" lon="151.2900657">
  <ele>350.67</ele>
  <time>2026-09-01T19:53:35Z</time>
  <course>16.66</course>
  <speed>0.01</speed>
  <fix>3d</fix>
</trkpt>
<trkpt lat="-27.2744328" lon="151.2900657">
  <ele>350.5</ele>
  <time>2026-09-01T19:53:35Z</time>
  <course>191.26</course>
  <speed>0.02</speed>
  <fix>3d</fix>
</trkpt>
<trkpt lat="-27.2744328" lon="151.2900657">
  <ele>350.42</ele>
  <time>2026-09-01T19:53:35Z</time>
  <course>191.22</course>
  <speed>0.0316227766016838</speed>
  <fix>3d</fix>
</trkpt>
<trkpt lat="-27.2744328" lon="151.2900657">
  <ele>350.67</ele>
  <time>2026-09-01T19:53:35Z</time>
  <course>16.66</course>
  <speed>0.01</speed>
  <fix>3d</fix>
</trkpt>
<trkpt lat="-27.2744328" lon="151.2900657">
  <ele>350.42</ele>
  <time>2026-09-01T19:53:35Z</time>
  <course>191.22</course>
  <speed>0.0316227766016838</speed>
  <fix>3d</fix>
</trkpt>
<trkpt lat="-27.2744328" lon="151.2900657">
  <ele>350.34</ele>
  <time>2026-09-01T19:53:35Z</time>
  <course>191.15</course>
  <speed>0.05099019513592785</speed>
  <fix>3d</fix>
</trkpt>
<trkpt lat="-27.2744328" lon="151.2900657">
  <ele>350.51</ele>
  <time>2026-09-01T19:53:35Z</time>
  <course>197.32</course>
  <speed>0.02</speed>
  <fix>3d</fix>
</trkpt>
<trkpt lat="-27.2744328" lon="151.2900657">
  <ele>350.34</ele>
  <time>2026-09-01T19:53:35Z</time>
  <course>191.15</course>
  <speed>0.05099019513592785</speed>
  <fix>3d</fix>
</trkpt>
<trkpt lat="-27.2744328" lon="151.2900657">
  <ele>350.26</ele>
  <time>2026-09-01T19:53:35Z</time>
  <course>191.08</course>
  <speed>0.07280109889280519</speed>
  <fix>3d</fix>
</trkpt>
<trkpt lat="-27.2744328" lon="151.2900657">
  <ele>350.51</ele>
  <time>2026-09-01T19:53:35Z</time>
  <course>197.32</course>
  <speed>0.02</speed>
  <fix>3d</fix>
</trkpt>
<trkpt lat="-27.2744328" lon="151.2900657">
  <ele>350.26</ele>
  <time>2026-09-01T19:53:35Z</time>
  <course>191.08</course>
  <speed>0.07280109889280519</speed>
  <fix>3d</fix>
</trkpt>
<trkpt lat="-27.2744329" lon="151.2900657">
  <ele>350.19</ele>
  <time>2026-09-01T19:53:35Z</time>
  <course>191.01</course>
  <speed>0.09486832980505139</speed>
  <fix>3d</fix>
</trkpt>
<trkpt lat="-27.2744328" lon="151.2900657">
  <ele>350.34</ele>
  <time>2026-09-01T19:53:35Z</time>
  <course>198.13</course>
  <speed>0.05</speed>
  <fix>3d</fix>
</trkpt>
<trkpt lat="-27.2744329" lon="151.2900657">
  <ele>350.18</ele>
  <time>2026-09-01T19:53:35Z</time>
  <course>191.01</course>
  <speed>0.09486832980505139</speed>
  <fix>3d</fix>
</trkpt>
<trkpt lat="-27.274433" lon="151.2900657">
  <ele>350.11</ele>
  <time>2026-09-01T19:53:35Z</time>
  <course>190.95</course>
  <speed>0.11401754250991379</speed>
  <fix>3d</fix>
</trkpt>
<trkpt lat="-27.2744328" lon="151.2900657">
  <ele>350.34</ele>
  <time>2026-09-01T19:53:35Z</time>
  <course>198.13</course>
  <speed>0.05</speed>
  <fix>3d</fix>
</trkpt>
<trkpt lat="-27.274433" lon="151.2900657">
  <ele>350.11</ele>
  <time>2026-09-01T19:53:35Z</time>
  <course>190.95</course>
  <speed>0.11401754250991379</speed>
  <fix>3d</fix>
</trkpt>
<trkpt lat="-27.2744331" lon="151.2900657">
  <ele>350.04</ele>
  <time>2026-09-01T19:53:35Z</time>
  <course>190.92</course>
  <speed>0.1264911064067352</speed>
  <fix>3d</fix>
</trkpt>
<trkpt lat="-27.2744329" lon="151.2900657">
  <ele>350.19</ele>
  <time>2026-09-01T19:53:35Z</time>
  <course>198.08</course>
  <speed>0.09</speed>
  <fix>3d</fix>
</trkpt>
<trkpt lat="-27.2744331" lon="151.2900657">
  <ele>350.03</ele>
  <time>2026-09-01T19:53:35Z</time>
  <course>190.92</course>
  <speed>0.1264911064067352</speed>
  <fix>3d</fix>
</trkpt>
<trkpt lat="-27.2744332" lon="151.2900656">
  <ele>349.96</ele>
  <time>2026-09-01T19:53:35Z</time>
  <course>190.9</course>
  <speed>0.14560219778561037</speed>
  <fix>3d</fix>
</trkpt>
<trkpt lat="-27.2744329" lon="151.2900657">
  <ele>350.19</ele>
  <time>2026-09-01T19:53:35Z</time>
  <course>198.08</course>
  <speed>0.09</speed>
  <fix>3d</fix>
</trkpt>
<trkpt lat="-27.2744332" lon="151.2900656">
  <ele>349.96</ele>
  <time>2026-09-01T19:53:35Z</time>
  <course>190.9</course>
  <speed>0.14560219778561037</speed>
  <fix>3d</fix>
</trkpt>
<trkpt lat="-27.2744333" lon="151.2900656">
  <ele>349.89</ele>
  <time>2026-09-01T19:53:35Z</time>
  <course>190.9</course>
  <speed>0.1676305461424021</speed>
  <fix>3d</fix>
</trkpt>
<trkpt lat="-27.274433" lon="151.2900657">
  <ele>350.03</ele>
  <time>2026-09-01T19:53:35Z</time>
  <course>198.04</course>
  <speed>0.13</speed>
  <fix>3d</fix>
</trkpt>
<trkpt lat="-27.2744333" lon="151.2900656">
  <ele>349.89</ele>
  <time>2026-09-01T19:53:35Z</time>
  <course>190.9</course>
  <speed>0.1676305461424021</speed>
  <fix>3d</fix>
</trkpt>
<trkpt lat="-27.2744335" lon="151.2900656">
  <ele>349.82</ele>
  <time>2026-09-01T19:53:35Z</time>
  <course>190.91</course>
  <speed>0.1772004514666935</speed>
  <fix>3d</fix>
</trkpt>
<trkpt lat="-27.274433" lon="151.2900657">
  <ele>350.03</ele>
  <time>2026-09-01T19:53:35Z</time>
  <course>198.04</course>
  <speed>0.13</speed>
  <fix>3d</fix>
</trkpt>
<trkpt lat="-27.2744335" lon="151.2900656">
  <ele>349.81</ele>
  <time>2026-09-01T19:53:35Z</time>
  <course>190.92</course>
  <speed>0.18681541692269404</speed>
  <fix>3d</fix>
</trkpt>
<trkpt lat="-27.2744337" lon="151.2900656">
  <ele>349.76</ele>
  <time>2026-09-01T19:53:35Z</time>
  <course>190.94</course>
  <speed>0.19924858845171275</speed>
  <fix>3d</fix>
</trkpt>
<trkpt lat="-27.2744333" lon="151.2900656">
  <ele>349.9</ele>
  <time>2026-09-01T19:53:35Z</time>
  <course>197.94</course>
  <speed>0.16</speed>
  <fix>3d</fix>
</trkpt>
<trkpt lat="-27.2744337" lon="151.2900656">
  <ele>349.76</ele>
  <time>2026-09-01T19:53:35Z</time>
  <course>190.94</course>
  <speed>0.19924858845171275</speed>
  <fix>3d</fix>
</trkpt>
<trkpt lat="-27.2744338" lon="151.2900655">
  <ele>349.69</ele>
  <time>2026-09-01T19:53:35Z</time>
  <course>190.96</course>
  <speed>0.208806130178211</speed>
  <fix>3d</fix>
</trkpt>
<trkpt lat="-27.2744333" lon="151.2900656">
  <ele>349.9</ele>
  <time>2026-09-01T19:53:35Z</time>
  <course>197.94</course>
  <speed>0.16</speed>
  <fix>3d</fix>
</trkpt>
<trkpt lat="-27.2744338" lon="151.2900655">
  <ele>349.69</ele>
  <time>2026-09-01T19:53:35Z</time>
  <course>190.96</course>
  <speed>0.208806130178211</speed>
  <fix>3d</fix>
</trkpt>
<trkpt lat="-27.274434" lon="151.2900654">
  <ele>349.63</ele>
  <time>2026-09-01T19:53:35Z</time>
  <course>190.97</course>
  <speed>0.2308679276123039</speed>
  <fix>3d</fix>
</trkpt>
<trkpt lat="-27.2744336" lon="151.2900655">
  <ele>349.76</ele>
  <time>2026-09-01T19:53:35Z</time>
  <course>197.82</course>
  <speed>0.2</speed>
  <fix>3d</fix>
</trkpt>
<trkpt lat="-27.274434" lon="151.2900654">
  <ele>349.63</ele>
  <time>2026-09-01T19:53:35Z</time>
  <course>190.97</course>
  <speed>0.2308679276123039</speed>
  <fix>3d</fix>
</trkpt>
<trkpt lat="-27.2744342" lon="151.2900654">
  <ele>349.56</ele>
  <time>2026-09-01T19:53:35Z</time>
  <course>190.98</course>
  <speed>0.24041630560342614</speed>
  <fix>3d</fix>
</trkpt>
<trkpt lat="-27.2744336" lon="151.2900655">
  <ele>349.76</ele>
  <time>2026-09-01T19:53:35Z</time>
  <course>197.82</course>
  <speed>0.2</speed>
  <fix>3d</fix>
</trkpt>
<trkpt lat="-27.2744342" lon="151.2900654">
  <ele>349.56</ele>
  <time>2026-09-01T19:53:35Z</time>
  <course>190.98</course>
  <speed>0.24041630560342614</speed>
  <fix>3d</fix>
</trkpt>
<trkpt lat="-27.2744345" lon="151.2900652">
  <ele>349.5</ele>
  <time>2026-09-01T19:53:35Z</time>
  <course>190.98</course>
  <speed>0.25</speed>
  <fix>3d</fix>
</trkpt>
<trkpt lat="-27.274434" lon="151.2900654">
  <ele>349.63</ele>
  <time>2026-09-01T19:53:35Z</time>
  <course>197.69</course>
  <speed>0.23</speed>
  <fix>3d</fix>
</trkpt>
<trkpt lat="-27.2744345" lon="151.2900652">
  <ele>349.5</ele>
  <time>2026-09-01T19:53:35Z</time>
  <course>190.98</course>
  <speed>0.25</speed>
  <fix>3d</fix>
</trkpt>
<trkpt lat="-27.2744347" lon="151.2900651">
  <ele>349.44</ele>
  <time>2026-09-01T19:53:35Z</time>
  <course>190.98</course>
  <speed>0.26248809496813374</speed>
  <fix>3d</fix>
</trkpt>
<trkpt lat="-27.274434" lon="151.2900654">
  <ele>349.63</ele>
  <time>2026-09-01T19:53:35Z</time>
  <course>197.69</course>
  <speed>0.23</speed>
  <fix>3d</fix>
</trkpt>
<trkpt lat="-27.2744347" lon="151.2900651">
  <ele>349.44</ele>
  <time>2026-09-01T19:53:35Z</time>
  <course>190.98</course>
  <speed>0.26248809496813374</speed>
  <fix>3d</fix>
</trkpt>
<trkpt lat="-27.2744349" lon="151.2900651">
  <ele>349.38</ele>
  <time>2026-09-01T19:53:35Z</time>
  <course>190.97</course>
  <speed>0.2720294101747089</speed>
  <fix>3d</fix>
</trkpt>
<trkpt lat="-27.2744344" lon="151.2900652">
  <ele>349.51</ele>
  <time>2026-09-01T19:53:35Z</time>
  <course>197.53</course>
  <speed>0.25</speed>
  <fix>3d</fix>
</trkpt>
<trkpt lat="-27.2744349" lon="151.2900651">
  <ele>349.38</ele>
  <time>2026-09-01T19:53:35Z</time>
  <course>190.97</course>
  <speed>0.2720294101747089</speed>
  <fix>3d</fix>
</trkpt>
<trkpt lat="-27.2744352" lon="151.290065">
  <ele>349.32</ele>
  <time>2026-09-01T19:53:35Z</time>
  <course>190.97</course>
  <speed>0.2816025568065745</speed>
  <fix>3d</fix>
</trkpt>
<trkpt lat="-27.2744344" lon="151.2900652">
  <ele>349.51</ele>
  <time>2026-09-01T19:53:35Z</time>
  <course>197.53</course>
  <speed>0.25</speed>
  <fix>3d</fix>
</trkpt>
<trkpt lat="-27.2744352" lon="151.290065">
  <ele>349.32</ele>
  <time>2026-09-01T19:53:35Z</time>
  <course>190.97</course>
  <speed>0.2816025568065745</speed>
  <fix>3d</fix>
</trkpt>
<trkpt lat="-27.2744354" lon="151.2900649">
  <ele>349.27</ele>
  <time>2026-09-01T19:53:35Z</time>
  <course>190.96</course>
  <speed>0.29120439557122074</speed>
  <fix>3d</fix>
</trkpt>
<trkpt lat="-27.2744349" lon="151.2900651">
  <ele>349.39</ele>
  <time>2026-09-01T19:53:35Z</time>
  <course>197.37</course>
  <speed>0.28</speed>
  <fix>3d</fix>
</trkpt>
<trkpt lat="-27.2744354" lon="151.2900649">
  <ele>349.27</ele>
  <time>2026-09-01T19:53:35Z</time>
  <course>190.96</course>
  <speed>0.29120439557122074</speed>
  <fix>3d</fix>
</trkpt>
<trkpt lat="-27.2744357" lon="151.2900649">
  <ele>349.21</ele>
  <time>2026-09-01T19:53:35Z</time>
  <course>190.96</course>
  <speed>0.30083217912982646</speed>
  <fix>3d</fix>
</trkpt>
<trkpt lat="-27.2744349" lon="151.2900651">
  <ele>349.39</ele>
  <time>2026-09-01T19:53:35Z</time>
  <course>197.37</course>
  <speed>0.28</speed>
  <fix>3d</fix>
</trkpt>
<trkpt lat="-27.2744357" lon="151.2900647">
  <ele>349.2</ele>
  <time>2026-09-01T19:53:35Z</time>
  <course>190.96</course>
  <speed>0.30083217912982646</speed>
  <fix>3d</fix>
</trkpt>
<trkpt lat="-27.2744359" lon="151.2900647">
  <ele>349.16</ele>
  <time>2026-09-01T19:53:35Z</time>
  <course>190.95</course>
  <speed>0.30364452901377953</speed>
  <fix>3d</fix>
</trkpt>
<trkpt lat="-27.2744354" lon="151.2900649">
  <ele>349.27</ele>
  <time>2026-09-01T19:53:35Z</time>
  <course>197.21</course>
  <speed>0.29</speed>
  <fix>3d</fix>
</trkpt>
<trkpt lat="-27.2744359" lon="151.2900647">
  <ele>349.15</ele>
  <time>2026-09-01T19:53:35Z</time>
  <course>190.95</course>
  <speed>0.30364452901377953</speed>
  <fix>3d</fix>
</trkpt>
<trkpt lat="-27.2744362" lon="151.2900646">
  <ele>349.1</ele>
  <time>2026-09-01T19:53:35Z</time>
  <course>190.94</course>
  <speed>0.30364452901377953</speed>
  <fix>3d</fix>
</trkpt>
<trkpt lat="-27.2744354" lon="151.2900649">
  <ele>349.27</ele>
  <time>2026-09-01T19:53:35Z</time>
  <course>197.21</course>
  <speed>0.29</speed>
  <fix>3d</fix>
</trkpt>
<trkpt lat="-27.2744362" lon="151.2900646">
  <ele>349.1</ele>
  <time>2026-09-01T19:53:35Z</time>
  <course>190.94</course>
  <speed>0.30364452901377953</speed>
  <fix>3d</fix>
</trkpt>
<trkpt lat="-27.2744365" lon="151.2900646">
  <ele>349.05</ele>
  <time>2026-09-01T19:53:35Z</time>
  <course>190.94</course>
  <speed>0.3132091952673165</speed>
  <fix>3d</fix>
</trkpt>
<trkpt lat="-27.2744359" lon="151.2900647">
  <ele>349.15</ele>
  <time>2026-09-01T19:53:35Z</time>
  <course>197.0</course>
  <speed>0.3</speed>
  <fix>3d</fix>
</trkpt>
<trkpt lat="-27.2744365" lon="151.2900646">
  <ele>349.05</ele>
  <time>2026-09-01T19:53:35Z</time>
  <course>190.94</course>
  <speed>0.3132091952673165</speed>
  <fix>3d</fix>
</trkpt>
<trkpt lat="-27.2744367" lon="151.2900645">
  <ele>348.99</ele>
  <time>2026-09-01T19:53:35Z</time>
  <course>190.94</course>
  <speed>0.31048349392520047</speed>
  <fix>3d</fix>
</trkpt>
<trkpt lat="-27.2744359" lon="151.2900647">
  <ele>349.15</ele>
  <time>2026-09-01T19:53:35Z</time>
  <course>197.0</course>
  <speed>0.3</speed>
  <fix>3d</fix>
</trkpt>
<trkpt lat="-27.2744368" lon="151.2900645">
  <ele>348.99</ele>
  <time>2026-09-01T19:53:35Z</time>
  <course>190.94</course>
  <speed>0.31048349392520047</speed>
  <fix>3d</fix>
</trkpt>
<trkpt lat="-27.274437" lon="151.2900644">
  <ele>348.94</ele>
  <time>2026-09-01T19:53:35Z</time>
  <course>190.93</course>
  <speed>0.31048349392520047</speed>
  <fix>3d</fix>
</trkpt>
<trkpt lat="-27.2744364" lon="151.2900646">
  <ele>349.05</ele>
  <time>2026-09-01T19:53:35Z</time>
  <course>196.67</course>
  <speed>0.31</speed>
  <fix>3d</fix>
</trkpt>
<trkpt lat="-27.274437" lon="151.2900644">
  <ele>348.94</ele>
  <time>2026-09-01T19:53:35Z</time>
  <course>190.93</course>
  <speed>0.31048349392520047</speed>
  <fix>3d</fix>
</trkpt>
<trkpt lat="-27.2744373" lon="151.2900642">
  <ele>348.89</ele>
  <time>2026-09-01T19:53:35Z</time>
  <course>190.93</course>
  <speed>0.32015621187164245</speed>
  <fix>3d</fix>
</trkpt>
<trkpt lat="-27.2744364" lon="151.2900646">
  <ele>349.05</ele>
  <time>2026-09-01T19:53:35Z</time>
  <course>196.67</course>
  <speed>0.31</speed>
  <fix>3d</fix>
</trkpt>
<trkpt lat="-27.2744373" lon="151.2900642">
  <ele>348.89</ele>
  <time>2026-09-01T19:53:35Z</time>
  <course>190.93</course>
  <speed>0.32015621187164245</speed>
  <fix>3d</fix>
</trkpt>
<trkpt lat="-27.2744376" lon="151.2900642">
  <ele>348.84</ele>
  <time>2026-09-01T19:53:35Z</time>
  <course>190.93</course>
  <speed>0.32015621187164245</speed>
  <fix>3d</fix>
</trkpt>
<trkpt lat="-27.274437" lon="151.2900644">
  <ele>348.94</ele>
  <time>2026-09-01T19:53:35Z</time>
  <course>196.01</course>
  <speed>0.32</speed>
  <fix>3d</fix>
</trkpt>
<trkpt lat="-27.2744376" lon="151.2900642">
  <ele>348.84</ele>
  <time>2026-09-01T19:53:35Z</time>
  <course>190.93</course>
  <speed>0.32015621187164245</speed>
  <fix>3d</fix>
</trkpt>
<trkpt lat="-27.2744379" lon="151.2900641">
  <ele>348.79</ele>
  <time>2026-09-01T19:53:35Z</time>
  <course>190.92</course>
  <speed>0.3298484500494128</speed>
  <fix>3d</fix>
</trkpt>
<trkpt lat="-27.274437" lon="151.2900644">
  <ele>348.94</ele>
  <time>2026-09-01T19:53:35Z</time>
  <course>196.01</course>
  <speed>0.32</speed>
  <fix>3d</fix>
</trkpt>
<trkpt lat="-27.2744379" lon="151.2900641">
  <ele>348.79</ele>
  <time>2026-09-01T19:53:35Z</time>
  <course>190.92</course>
  <speed>0.3298484500494128</speed>
  <fix>3d</fix>
</trkpt>
<trkpt lat="-27.2744382" lon="151.2900641">
  <ele>348.74</ele>
  <time>2026-09-01T19:53:35Z</time>
  <course>190.92</course>
  <speed>0.32015621187164245</speed>
  <fix>3d</fix>
</trkpt>
<trkpt lat="-27.2744376" lon="151.2900642">
  <ele>348.84</ele>
  <time>2026-09-01T19:53:35Z</time>
  <course>195.01</course>
  <speed>0.32</speed>
  <fix>3d</fix>
</trkpt>
<trkpt lat="-27.2744382" lon="151.2900641">
  <ele>348.74</ele>
  <time>2026-09-01T19:53:35Z</time>
  <course>190.92</course>
  <speed>0.32015621187164245</speed>
  <fix>3d</fix>
</trkpt>
<trkpt lat="-27.2744384" lon="151.290064">
  <ele>348.69</ele>
  <time>2026-09-01T19:53:35Z</time>
  <course>190.92</course>
  <speed>0.3178049716414141</speed>
  <fix>3d</fix>
</trkpt>
<trkpt lat="-27.2744376" lon="151.2900642">
  <ele>348.84</ele>
  <time>2026-09-01T19:53:35Z</time>
  <course>195.01</course>
  <speed>0.32</speed>
  <fix>3d</fix>
</trkpt>
<trkpt lat="-27.2744385" lon="151.2900639">
  <ele>348.67</ele>
  <time>2026-09-01T19:53:35Z</time>
  <course>190.92</course>
  <speed>0.3178049716414141</speed>
  <fix>3d</fix>
</trkpt>
<trkpt lat="-27.2744387" lon="151.2900639">
  <ele>348.64</ele>
  <time>2026-09-01T19:53:35Z</time>
  <course>190.92</course>
  <speed>0.3080584360149873</speed>
  <fix>3d</fix>
</trkpt>
<trkpt lat="-27.2744381" lon="151.290064">
  <ele>348.74</ele>
  <time>2026-09-01T19:53:35Z</time>
  <course>194.16</course>
  <speed>0.32</speed>
  <fix>3d</fix>
</trkpt>
<trkpt lat="-27.2744387" lon="151.2900639">
  <ele>348.64</ele>
  <time>2026-09-01T19:53:35Z</time>
  <course>190.92</course>
  <speed>0.3080584360149873</speed>
  <fix>3d</fix>
</trkpt>
<trkpt lat="-27.274439" lon="151.2900637">
  <ele>348.59</ele>
  <time>2026-09-01T19:53:35Z</time>
  <course>190.91</course>
  <speed>0.29832867780352595</speed>
  <fix>3d</fix>
</trkpt>
<trkpt lat="-27.2744381" lon="151.290064">
  <ele>348.74</ele>
  <time>2026-09-01T19:53:35Z</time>
  <course>194.16</course>
  <speed>0.32</speed>
  <fix>3d</fix>
</trkpt>
<trkpt lat="-27.274439" lon="151.2900637">
  <ele>348.59</ele>
  <time>2026-09-01T19:53:35Z</time>
  <course>190.91</course>
  <speed>0.29832867780352595</speed>
  <fix>3d</fix>
</trkpt>
<trkpt lat="-27.2744392" lon="151.2900637">
  <ele>348.54</ele>
  <time>2026-09-01T19:53:35Z</time>
  <course>190.91</course>
  <speed>0.2863564212655271</speed>
  <fix>3d</fix>
</trkpt>
<trkpt lat="-27.2744387" lon="151.2900639">
  <ele>348.64</ele>
  <time>2026-09-01T19:53:35Z</time>
  <course>193.7</course>
  <speed>0.31</speed>
  <fix>3d</fix>
</trkpt>
<trkpt lat="-27.2744393" lon="151.2900637">
  <ele>348.54</ele>
  <time>2026-09-01T19:53:35Z</time>
  <course>190.91</course>
  <speed>0.2863564212655271</speed>
  <fix>3d</fix>
</trkpt>
<trkpt lat="-27.2744395" lon="151.2900637">
  <ele>348.49</ele>
  <time>2026-09-01T19:53:35Z</time>
  <course>190.91</course>
  <speed>0.2668332812825267</speed>
  <fix>3d</fix>
</trkpt>
<trkpt lat="-27.2744387" lon="151.2900639">
  <ele>348.64</ele>
  <time>2026-09-01T19:53:35Z</time>
  <course>193.7</course>
  <speed>0.31</speed>
  <fix>3d</fix>
</trkpt>
<trkpt lat="-27.2744395" lon="151.2900637">
  <ele>348.49</ele>
  <time>2026-09-01T19:53:35Z</time>
  <course>190.91</course>
  <speed>0.2668332812825267</speed>
  <fix>3d</fix>
</trkpt>
<trkpt lat="-27.2744397" lon="151.2900636">
  <ele>348.44</ele>
  <time>2026-09-01T19:53:35Z</time>
  <course>190.9</course>
  <speed>0.25495097567963926</speed>
  <fix>3d</fix>
</trkpt>
<trkpt lat="-27.2744392" lon="151.2900637">
  <ele>348.53</ele>
  <time>2026-09-01T19:53:35Z</time>
  <course>193.44</course>
  <speed>0.28</speed>
  <fix>3d</fix>
</trkpt>
<trkpt lat="-27.2744397" lon="151.2900636">
  <ele>348.44</ele>
  <time>2026-09-01T19:53:35Z</time>
  <course>190.9</course>
  <speed>0.24515301344262524</speed>
  <fix>3d</fix>
</trkpt>
<trkpt lat="-27.2744399" lon="151.2900636">
  <ele>348.39</ele>
  <time>2026-09-01T19:53:35Z</time>
  <course>190.89</course>
  <speed>0.2353720459187964</speed>
  <fix>3d</fix>
</trkpt>
<trkpt lat="-27.2744392" lon="151.2900637">
  <ele>348.53</ele>
  <time>2026-09-01T19:53:35Z</time>
  <course>193.44</course>
  <speed>0.28</speed>
  <fix>3d</fix>
</trkpt>
<trkpt lat="-27.2744399" lon="151.2900636">
  <ele>348.39</ele>
  <time>2026-09-01T19:53:35Z</time>
  <course>190.89</course>
  <speed>0.2353720459187964</speed>
  <fix>3d</fix>
</trkpt>
<trkpt lat="-27.2744401" lon="151.2900635">
  <ele>348.34</ele>
  <time>2026-09-01T19:53:35Z</time>
  <course>190.89</course>
  <speed>0.21377558326431947</speed>
  <fix>3d</fix>
</trkpt>
<trkpt lat="-27.2744397" lon="151.2900636">
  <ele>348.44</ele>
  <time>2026-09-01T19:53:35Z</time>
  <course>193.2</course>
  <speed>0.25</speed>
  <fix>3d</fix>
</trkpt>
<trkpt lat="-27.2744401" lon="151.2900635">
  <ele>348.34</ele>
  <time>2026-09-01T19:53:35Z</time>
  <course>190.88</course>
  <speed>0.21377558326431947</speed>
  <fix>3d</fix>
</trkpt>
<trkpt lat="-27.2744403" lon="151.2900635">
  <ele>348.29</ele>
  <time>2026-09-01T19:53:35Z</time>
  <course>190.88</course>
  <speed>0.194164878389476</speed>
  <fix>3d</fix>
</trkpt>
<trkpt lat="-27.2744397" lon="151.2900636">
  <ele>348.44</ele>
  <time>2026-09-01T19:53:35Z</time>
  <course>193.2</course>
  <speed>0.25</speed>
  <fix>3d</fix>
</trkpt>
<trkpt lat="-27.2744403" lon="151.2900635">
  <ele>348.29</ele>
  <time>2026-09-01T19:53:35Z</time>
  <course>190.88</course>
  <speed>0.194164878389476</speed>
  <fix>3d</fix>
</trkpt>
<trkpt lat="-27.2744405" lon="151.2900633">
  <ele>348.24</ele>
  <time>2026-09-01T19:53:35Z</time>
  <course>190.88</course>
  <speed>0.18439088914585774</speed>
  <fix>3d</fix>
</trkpt>
<trkpt lat="-27.2744401" lon="151.2900635">
  <ele>348.34</ele>
  <time>2026-09-01T19:53:35Z</time>
  <course>192.95</course>
  <speed>0.22</speed>
  <fix>3d</fix>
</trkpt>
<trkpt lat="-27.2744405" lon="151.2900633">
  <ele>348.23</ele>
  <time>2026-09-01T19:53:35Z</time>
  <course>190.88</course>
  <speed>0.18439088914585774</speed>
  <fix>3d</fix>
</trkpt>
<trkpt lat="-27.2744407" lon="151.2900633">
  <ele>348.19</ele>
  <time>2026-09-01T19:53:35Z</time>
  <course>190.88</course>
  <speed>0.16278820596099705</speed>
  <fix>3d</fix>
</trkpt>
<trkpt lat="-27.2744401" lon="151.2900635">
  <ele>348.34</ele>
  <time>2026-09-01T19:53:35Z</time>
  <course>192.95</course>
  <speed>0.22</speed>
  <fix>3d</fix>
</trkpt>
<trkpt lat="-27.2744407" lon="151.2900633">
  <ele>348.17</ele>
  <time>2026-09-01T19:53:35Z</time>
  <course>190.88</course>
  <speed>0.15297058540778355</speed>
  <fix>3d</fix>
</trkpt>
<trkpt lat="-27.2744408" lon="151.2900633">
  <ele>348.14</ele>
  <time>2026-09-01T19:53:35Z</time>
  <course>190.88</course>
  <speed>0.14317821063276354</speed>
  <fix>3d</fix>
</trkpt>
<trkpt lat="-27.2744404" lon="151.2900634">
  <ele>348.24</ele>
  <time>2026-09-01T19:53:35Z</time>
  <course>192.63</course>
  <speed>0.18</speed>
  <fix>3d</fix>
</trkpt>
<trkpt lat="-27.2744408" lon="151.2900633">
  <ele>348.14</ele>
  <time>2026-09-01T19:53:35Z</time>
  <course>190.88</course>
  <speed>0.14317821063276354</speed>
  <fix>3d</fix>
</trkpt>
<trkpt lat="-27.2744409" lon="151.2900632">
  <ele>348.09</ele>
  <time>2026-09-01T19:53:35Z</time>
  <course>190.88</course>
  <speed>0.12165525060596438</speed>
  <fix>3d</fix>
</trkpt>
<trkpt lat="-27.2744404" lon="151.2900634">
  <ele>348.24</ele>
  <time>2026-09-01T19:53:35Z</time>
  <course>192.63</course>
  <speed>0.18</speed>
  <fix>3d</fix>
</trkpt>
<trkpt lat="-27.2744409" lon="151.2900632">
  <ele>348.08</ele>
  <time>2026-09-01T19:53:35Z</time>
  <course>190.88</course>
  <speed>0.12165525060596438</speed>
  <fix>3d</fix>
</trkpt>
<trkpt lat="-27.274441" lon="151.2900632">
  <ele>348.04</ele>
  <time>2026-09-01T19:53:35Z</time>
  <course>190.89</course>
  <speed>0.1118033988749895</speed>
  <fix>3d</fix>
</trkpt>
<trkpt lat="-27.2744407" lon="151.2900633">
  <ele>348.14</ele>
  <time>2026-09-01T19:53:35Z</time>
  <course>191.97</course>
  <speed>0.15</speed>
  <fix>3d</fix>
</trkpt>
<trkpt lat="-27.274441" lon="151.2900632">
  <ele>348.03</ele>
  <time>2026-09-01T19:53:35Z</time>
  <course>190.89</course>
  <speed>0.1118033988749895</speed>
  <fix>3d</fix>
</trkpt>
<trkpt lat="-27.2744411" lon="151.2900632">
  <ele>347.99</ele>
  <time>2026-09-01T19:53:35Z</time>
  <course>190.89</course>
  <speed>0.09055385138137417</speed>
  <fix>3d</fix>
</trkpt>
<trkpt lat="-27.2744407" lon="151.2900633">
  <ele>348.14</ele>
  <time>2026-09-01T19:53:35Z</time>
  <course>191.97</course>
  <speed>0.15</speed>
  <fix>3d</fix>
</trkpt>
<trkpt lat="-27.2744411" lon="151.2900632">
  <ele>347.98</ele>
  <time>2026-09-01T19:53:35Z</time>
  <course>190.89</course>
  <speed>0.09055385138137417</speed>
  <fix>3d</fix>
</trkpt>
<trkpt lat="-27.2744412" lon="151.2900632">
  <ele>347.93</ele>
  <time>2026-09-01T19:53:35Z</time>
  <course>190.89</course>
  <speed>0.07071067811865475</speed>
  <fix>3d</fix>
</trkpt>
<trkpt lat="-27.2744409" lon="151.2900632">
  <ele>348.03</ele>
  <time>2026-09-01T19:53:35Z</time>
  <course>190.69</course>
  <speed>0.11</speed>
  <fix>3d</fix>
</trkpt>
<trkpt lat="-27.2744412" lon="151.2900632">
  <ele>347.93</ele>
  <time>2026-09-01T19:53:35Z</time>
  <course>190.89</course>
  <speed>0.07071067811865475</speed>
  <fix>3d</fix>
</trkpt>
<trkpt lat="-27.2744413" lon="151.2900632">
  <ele>347.88</ele>
  <time>2026-09-01T19:53:35Z</time>
  <course>190.89</course>
  <speed>0.06</speed>
  <fix>3d</fix>
</trkpt>
<trkpt lat="-27.2744409" lon="151.2900632">
  <ele>348.03</ele>
  <time>2026-09-01T19:53:35Z</time>
  <course>190.69</course>
  <speed>0.11</speed>
  <fix>3d</fix>
</trkpt>
<trkpt lat="-27.2744413" lon="151.2900632">
  <ele>347.88</ele>
  <time>2026-09-01T19:53:35Z</time>
  <course>190.89</course>
  <speed>0.06</speed>
  <fix>3d</fix>
</trkpt>
<trkpt lat="-27.2744413" lon="151.2900632">
  <ele>347.83</ele>
  <time>2026-09-01T19:53:35Z</time>
  <course>190.88</course>
  <speed>0.04</speed>
  <fix>3d</fix>
</trkpt>
<trkpt lat="-27.2744412" lon="151.2900632">
  <ele>347.94</ele>
  <time>2026-09-01T19:53:35Z</time>
  <course>188.41</course>
  <speed>0.08</speed>
  <fix>3d</fix>
</trkpt>
<trkpt lat="-27.2744413" lon="151.2900632">
  <ele>347.83</ele>
  <time>2026-09-01T19:53:35Z</time>
  <course>190.88</course>
  <speed>0.04</speed>
  <fix>3d</fix>
</trkpt>
<trkpt lat="-27.2744414" lon="151.2900632">
  <ele>347.78</ele>
  <time>2026-09-01T19:53:35Z</time>
  <course>190.87</course>
  <speed>0.03</speed>
  <fix>3d</fix>
</trkpt>
<trkpt lat="-27.2744412" lon="151.2900632">
  <ele>347.94</ele>
  <time>2026-09-01T19:53:35Z</time>
  <course>188.41</course>
  <speed>0.08</speed>
  <fix>3d</fix>
</trkpt>
<trkpt lat="-27.2744414" lon="151.2900632">
  <ele>347.78</ele>
  <time>2026-09-01T19:53:35Z</time>
  <course>190.87</course>
  <speed>0.03</speed>
  <fix>3d</fix>
</trkpt>
<trkpt lat="-27.2744414" lon="151.2900632">
  <ele>347.73</ele>
  <time>2026-09-01T19:53:35Z</time>
  <course>190.86</course>
  <speed>0.01</speed>
  <fix>3d</fix>
</trkpt>
<trkpt lat="-27.2744413" lon="151.2900632">
  <ele>347.84</ele>
  <time>2026-09-01T19:53:35Z</time>
  <course>183.77</course>
  <speed>0.04</speed>
  <fix>3d</fix>
</trkpt>
<trkpt lat="-27.2744414" lon="151.2900632">
  <ele>347.73</ele>
  <time>2026-09-01T19:53:35Z</time>
  <course>190.86</course>
  <speed>0.01</speed>
  <fix>3d</fix>
</trkpt>
<trkpt lat="-27.2744414" lon="151.2900632">
  <ele>347.68</ele>
  <time>2026-09-01T19:53:35Z</time>
  <course>190.84</course>
  <speed>0.0</speed>
  <fix>3d</fix>
</trkpt>
<trkpt lat="-27.2744413" lon="151.2900632">
  <ele>347.84</ele>
  <time>2026-09-01T19:53:35Z</time>
  <course>183.77</course>
  <speed>0.04</speed>
  <fix>3d</fix>
</trkpt>
<trkpt lat="-27.2744414" lon="151.2900632">
  <ele>347.68</ele>
  <time>2026-09-01T19:53:35Z</time>
  <course>190.84</course>
  <speed>0.0</speed>
  <fix>3d</fix>
</trkpt>
<trkpt lat="-27.2744414" lon="151.2900632">
  <ele>347.63</ele>
  <time>2026-09-01T19:53:35Z</time>
  <course>190.79</course>
  <speed>0.0</speed>
  <fix>3d</fix>
</trkpt>
<trkpt lat="-27.2744414" lon="151.2900632">
  <ele>347.74</ele>
  <time>2026-09-01T19:53:35Z</time>
  <course>169.98</course>
  <speed>0.01</speed>
  <fix>3d</fix>
</trkpt>
<trkpt lat="-27.2744414" lon="151.2900632">
  <ele>347.63</ele>
  <time>2026-09-01T19:53:35Z</time>
  <course>190.78</course>
  <speed>0.0</speed>
  <fix>3d</fix>
</trkpt>
<trkpt lat="-27.2744414" lon="151.2900632">
  <ele>347.58</ele>
  <time>2026-09-01T19:53:35Z</time>
  <course>190.69</course>
  <speed>0.02</speed>
  <fix>3d</fix>
</trkpt>
<trkpt lat="-27.2744414" lon="151.2900632">
  <ele>347.74</ele>
  <time>2026-09-01T19:53:35Z</time>
  <course>169.98</course>
  <speed>0.01</speed>
  <fix>3d</fix>
</trkpt>
<trkpt lat="-27.2744414" lon="151.2900632">
  <ele>347.58</ele>
  <time>2026-09-01T19:53:35Z</time>
  <course>190.69</course>
  <speed>0.02</speed>
  <fix>3d</fix>
</trkpt>
<trkpt lat="-27.2744414" lon="151.2900632">
  <ele>347.53</ele>
  <time>2026-09-01T19:53:35Z</time>
  <course>190.58</course>
  <speed>0.03</speed>
  <fix>3d</fix>
</trkpt>
<trkpt lat="-27.2744414" lon="151.2900632">
  <ele>347.64</ele>
  <time>2026-09-01T19:53:35Z</time>
  <course>36.83</course>
  <speed>0.01</speed>
  <fix>3d</fix>
</trkpt>
<trkpt lat="-27.2744414" lon="151.2900632">
  <ele>347.53</ele>
  <time>2026-09-01T19:53:35Z</time>
  <course>190.57</course>
  <speed>0.03</speed>
  <fix>3d</fix>
</trkpt>
<trkpt lat="-27.2744414" lon="151.2900632">
  <ele>347.48</ele>
  <time>2026-09-01T19:53:35Z</time>
  <course>190.48</course>
  <speed>0.04</speed>
  <fix>3d</fix>
</trkpt>
<trkpt lat="-27.2744414" lon="151.2900632">
  <ele>347.64</ele>
  <time>2026-09-01T19:53:35Z</time>
  <course>36.83</course>
  <speed>0.01</speed>
  <fix>3d</fix>
</trkpt>
<trkpt lat="-27.2744414" lon="151.2900632">
  <ele>347.48</ele>
  <time>2026-09-01T19:53:35Z</time>
  <course>190.48</course>
  <speed>0.04</speed>
  <fix>3d</fix>
</trkpt>
<trkpt lat="-27.2744414" lon="151.2900632">
  <ele>347.43</ele>
  <time>2026-09-01T19:53:35Z</time>
  <course>190.44</course>
  <speed>0.05</speed>
  <fix>3d</fix>
</trkpt>
<trkpt lat="-27.2744414" lon="151.2900632">
  <ele>347.53</ele>
  <time>2026-09-01T19:53:35Z</time>
  <course>11.35</course>
  <speed>0.03</speed>
  <fix>3d</fix>
</trkpt>
<trkpt lat="-27.2744414" lon="151.2900632">
  <ele>347.43</ele>
  <time>2026-09-01T19:53:35Z</time>
  <course>190.44</course>
  <speed>0.05</speed>
  <fix>3d</fix>
</trkpt>
<trkpt lat="-27.2744413" lon="151.2900632">
  <ele>347.38</ele>
  <time>2026-09-01T19:53:35Z</time>
  <course>190.43</course>
  <speed>0.06082762530298219</speed>
  <fix>3d</fix>
</trkpt>
<trkpt lat="-27.2744414" lon="151.2900632">
  <ele>347.53</ele>
  <time>2026-09-01T19:53:35Z</time>
  <course>11.35</course>
  <speed>0.03</speed>
  <fix>3d</fix>
</trkpt>
<trkpt lat="-27.2744413" lon="151.2900632">
  <ele>347.38</ele>
  <time>2026-09-01T19:53:35Z</time>
  <course>190.43</course>
  <speed>0.06082762530298219</speed>
  <fix>3d</fix>
</trkpt>
<trkpt lat="-27.2744412" lon="151.2900632">
  <ele>347.33</ele>
  <time>2026-09-01T19:53:35Z</time>
  <course>190.46</course>
  <speed>0.07071067811865475</speed>
  <fix>3d</fix>
</trkpt>
<trkpt lat="-27.2744413" lon="151.2900632">
  <ele>347.44</ele>
  <time>2026-09-01T19:53:35Z</time>
  <course>9.25</course>
  <speed>0.05</speed>
  <fix>3d</fix>
</trkpt>
<trkpt lat="-27.2744412" lon="151.2900632">
  <ele>347.33</ele>
  <time>2026-09-01T19:53:35Z</time>
  <course>190.46</course>
  <speed>0.07071067811865475</speed>
  <fix>3d</fix>
</trkpt>
<trkpt lat="-27.2744412" lon="151.2900632">
  <ele>347.28</ele>
  <time>2026-09-01T19:53:35Z</time>
  <course>190.51</course>
  <speed>0.08062257748298549</speed>
  <fix>3d</fix>
</trkpt>
<trkpt lat="-27.2744413" lon="151.2900632">
  <ele>347.44</ele>
  <time>2026-09-01T19:53:35Z</time>
  <course>9.25</course>
  <speed>0.05</speed>
  <fix>3d</fix>
</trkpt>
<trkpt lat="-27.2744412" lon="151.2900632">
  <ele>347.28</ele>
  <time>2026-09-01T19:53:35Z</time>
  <course>190.51</course>
  <speed>0.08062257748298549</speed>
  <fix>3d</fix>
</trkpt>
<trkpt lat="-27.2744411" lon="151.2900632">
  <ele>347.23</ele>
  <time>2026-09-01T19:53:35Z</time>
  <course>190.56</course>
  <speed>0.09055385138137417</speed>
  <fix>3d</fix>
</trkpt>
<trkpt lat="-27.2744412" lon="151.2900632">
  <ele>347.34</ele>
  <time>2026-09-01T19:53:35Z</time>
  <course>9.48</course>
  <speed>0.07</speed>
  <fix>3d</fix>
</trkpt>
<trkpt lat="-27.2744411" lon="151.2900632">
  <ele>347.23</ele>
  <time>2026-09-01T19:53:35Z</time>
  <course>190.56</course>
  <speed>0.09055385138137417</speed>
  <fix>3d</fix>
</trkpt>
<trkpt lat="-27.274441" lon="151.2900632">
  <ele>347.18</ele>
  <time>2026-09-01T19:53:35Z</time>
  <course>190.62</course>
  <speed>0.09055385138137417</speed>
  <fix>3d</fix>
</trkpt>
<trkpt lat="-27.2744412" lon="151.2900632">
  <ele>347.34</ele>
  <time>2026-09-01T19:53:35Z</time>
  <course>9.48</course>
  <speed>0.07</speed>
  <fix>3d</fix>
</trkpt>
<trkpt lat="-27.274441" lon="151.2900632">
  <ele>347.17</ele>
  <time>2026-09-01T19:53:35Z</time>
  <course>190.63</course>
  <speed>0.09055385138137417</speed>
  <fix>3d</fix>
</trkpt>
<trkpt lat="-27.2744409" lon="151.2900632">
  <ele>347.13</ele>
  <time>2026-09-01T19:53:35Z</time>
  <course>190.66</course>
  <speed>0.1004987562112089</speed>
  <fix>3d</fix>
</trkpt>
<trkpt lat="-27.2744411" lon="151.2900632">
  <ele>347.24</ele>
  <time>2026-09-01T19:53:35Z</time>
  <course>9.71</course>
  <speed>0.09</speed>
  <fix>3d</fix>
</trkpt>
<trkpt lat="-27.2744409" lon="151.2900632">
  <ele>347.13</ele>
  <time>2026-09-01T19:53:35Z</time>
  <course>190.66</course>
  <speed>0.1004987562112089</speed>
  <fix>3d</fix>
</trkpt>
<trkpt lat="-27.2744408" lon="151.2900632">
  <ele>347.08</ele>
  <time>2026-09-01T19:53:35Z</time>
  <course>190.68</course>
  <speed>0.1004987562112089</speed>
  <fix>3d</fix>
</trkpt>
<trkpt lat="-27.2744411" lon="151.2900632">
  <ele>347.24</ele>
  <time>2026-09-01T19:53:35Z</time>
  <course>9.71</course>
  <speed>0.09</speed>
  <fix>3d</fix>
</trkpt>
<trkpt lat="-27.2744408" lon="151.2900632">
  <ele>347.08</ele>
  <time>2026-09-01T19:53:35Z</time>
  <course>190.68</course>
  <speed>0.1004987562112089</speed>
  <fix>3d</fix>
</trkpt>
<trkpt lat="-27.2744407" lon="151.2900632">
  <ele>347.03</ele>
  <time>2026-09-01T19:53:35Z</time>
  <course>190.68</course>
  <speed>0.11045361017187261</speed>
  <fix>3d</fix>
</trkpt>
<trkpt lat="-27.2744409" lon="151.2900632">
  <ele>347.14</ele>
  <time>2026-09-01T19:53:35Z</time>
  <course>9.86</course>
  <speed>0.1</speed>
  <fix>3d</fix>
</trkpt>
<trkpt lat="-27.2744407" lon="151.2900632">
  <ele>347.03</ele>
  <time>2026-09-01T19:53:35Z</time>
  <course>190.68</course>
  <speed>0.11045361017187261</speed>
  <fix>3d</fix>
</trkpt>
<trkpt lat="-27.2744406" lon="151.2900632">
  <ele>346.98</ele>
  <time>2026-09-01T19:53:35Z</time>
  <course>190.66</course>
  <speed>0.11045361017187261</speed>
  <fix>3d</fix>
</trkpt>
<trkpt lat="-27.2744409" lon="151.2900632">
  <ele>347.14</ele>
  <time>2026-09-01T19:53:35Z</time>
  <course>9.86</course>
  <speed>0.1</speed>
  <fix>3d</fix>
</trkpt>
<trkpt lat="-27.2744406" lon="151.2900632">
  <ele>346.98</ele>
  <time>2026-09-01T19:53:35Z</time>
  <course>190.66</course>
  <speed>0.11045361017187261</speed>
  <fix>3d</fix>
</trkpt>
<trkpt lat="-27.2744405" lon="151.2900633">
  <ele>346.93</ele>
  <time>2026-09-01T19:53:35Z</time>
  <course>190.63</course>
  <speed>0.1118033988749895</speed>
  <fix>3d</fix>
</trkpt>
<trkpt lat="-27.2744407" lon="151.2900632">
  <ele>347.03</ele>
  <time>2026-09-01T19:53:35Z</time>
  <course>9.87</course>
  <speed>0.11</speed>
  <fix>3d</fix>
</trkpt>
<trkpt lat="-27.2744405" lon="151.2900633">
  <ele>346.93</ele>
  <time>2026-09-01T19:53:35Z</time>
  <course>190.63</course>
  <speed>0.1118033988749895</speed>
  <fix>3d</fix>
</trkpt>
<trkpt lat="-27.2744404" lon="151.2900633">
  <ele>346.88</ele>
  <time>2026-09-01T19:53:35Z</time>
  <course>190.58</course>
  <speed>0.1118033988749895</speed>
  <fix>3d</fix>
</trkpt>
<trkpt lat="-27.2744407" lon="151.2900632">
  <ele>347.03</ele>
  <time>2026-09-01T19:53:35Z</time>
  <course>9.87</course>
  <speed>0.11</speed>
  <fix>3d</fix>
</trkpt>
<trkpt lat="-27.2744404" lon="151.2900633">
  <ele>346.88</ele>
  <time>2026-09-01T19:53:35Z</time>
  <course>190.58</course>
  <speed>0.1118033988749895</speed>
  <fix>3d</fix>
</trkpt>
<trkpt lat="-27.2744403" lon="151.2900633">
  <ele>346.83</ele>
  <time>2026-09-01T19:53:35Z</time>
  <course>190.55</course>
  <speed>0.12165525060596438</speed>
  <fix>3d</fix>
</trkpt>
<trkpt lat="-27.2744405" lon="151.2900633">
  <ele>346.94</ele>
  <time>2026-09-01T19:53:35Z</time>
  <course>9.82</course>
  <speed>0.11</speed>
  <fix>3d</fix>
</trkpt>
<trkpt lat="-27.2744403" lon="151.2900633">
  <ele>346.83</ele>
  <time>2026-09-01T19:53:35Z</time>
  <course>190.55</course>
  <speed>0.12165525060596438</speed>
  <fix>3d</fix>
</trkpt>
<trkpt lat="-27.2744402" lon="151.2900633">
  <ele>346.78</ele>
  <time>2026-09-01T19:53:35Z</time>
  <course>190.53</course>
  <speed>0.12165525060596438</speed>
  <fix>3d</fix>
</trkpt>
<trkpt lat="-27.2744405" lon="151.2900633">
  <ele>346.94</ele>
  <time>2026-09-01T19:53:35Z</time>
  <course>9.82</course>
  <speed>0.11</speed>
  <fix>3d</fix>
</trkpt>
<trkpt lat="-27.2744402" lon="151.2900633">
  <ele>346.78</ele>
  <time>2026-09-01T19:53:36Z</time>
  <course>190.53</course>
  <speed>0.12165525060596438</speed>
  <fix>3d</fix>
</trkpt>
<trkpt lat="-27.2744401" lon="151.2900633">
  <ele>346.73</ele>
  <time>2026-09-01T19:53:36Z</time>
  <course>190.52</course>
  <speed>0.12165525060596438</speed>
  <fix>3d</fix>
</trkpt>
<trkpt lat="-27.2744403" lon="151.2900633">
  <ele>346.84</ele>
  <time>2026-09-01T19:53:36Z</time>
  <course>9.77</course>
  <speed>0.12</speed>
  <fix>3d</fix>
</trkpt>
<trkpt lat="-27.2744401" lon="151.2900633">
  <ele>346.73</ele>
  <time>2026-09-01T19:53:36Z</time>
  <course>190.52</course>
  <speed>0.12165525060596438</speed>
  <fix>3d</fix>
</trkpt>
<trkpt lat="-27.27444" lon="151.2900635">
  <ele>346.68</ele>
  <time>2026-09-01T19:53:36Z</time>
  <course>190.52</course>
  <speed>0.12165525060596438</speed>
  <fix>3d</fix>
</trkpt>
<trkpt lat="-27.2744403" lon="151.2900633">
  <ele>346.84</ele>
  <time>2026-09-01T19:53:36Z</time>
  <course>9.77</course>
  <speed>0.12</speed>
  <fix>3d</fix>
</trkpt>
<trkpt lat="-27.2744399" lon="151.2900635">
  <ele>346.67</ele>
  <time>2026-09-01T19:53:36Z</time>
  <course>190.52</course>
  <speed>0.12165525060596438</speed>
  <fix>3d</fix>
</trkpt>
<trkpt lat="-27.2744399" lon="151.2900635">
  <ele>346.63</ele>
  <time>2026-09-01T19:53:36Z</time>
  <course>190.52</course>
  <speed>0.12165525060596438</speed>
  <fix>3d</fix>
</trkpt>
<trkpt lat="-27.2744401" lon="151.2900634">
  <ele>346.74</ele>
  <time>2026-09-01T19:53:36Z</time>
  <course>9.73</course>
  <speed>0.12</speed>
  <fix>3d</fix>
</trkpt>
<trkpt lat="-27.2744399" lon="151.2900635">
  <ele>346.63</ele>
  <time>2026-09-01T19:53:36Z</time>
  <course>190.52</course>
  <speed>0.12165525060596438</speed>
  <fix>3d</fix>
</trkpt>
<trkpt lat="-27.2744398" lon="151.2900635">
  <ele>346.58</ele>
  <time>2026-09-01T19:53:36Z</time>
  <course>190.53</course>
  <speed>0.12165525060596438</speed>
  <fix>3d</fix>
</trkpt>
<trkpt lat="-27.2744401" lon="151.2900634">
  <ele>346.74</ele>
  <time>2026-09-01T19:53:36Z</time>
  <course>9.73</course>
  <speed>0.12</speed>
  <fix>3d</fix>
</trkpt>
<trkpt lat="-27.2744398" lon="151.2900635">
  <ele>346.58</ele>
  <time>2026-09-01T19:53:36Z</time>
  <course>190.53</course>
  <speed>0.12165525060596438</speed>
  <fix>3d</fix>
</trkpt>
<trkpt lat="-27.2744397" lon="151.2900635">
  <ele>346.53</ele>
  <time>2026-09-01T19:53:36Z</time>
  <course>190.56</course>
  <speed>0.1118033988749895</speed>
  <fix>3d</fix>
</trkpt>
<trkpt lat="-27.2744399" lon="151.2900635">
  <ele>346.63</ele>
  <time>2026-09-01T19:53:36Z</time>
  <course>9.73</course>
  <speed>0.12</speed>
  <fix>3d</fix>
</trkpt>
<trkpt lat="-27.2744396" lon="151.2900635">
  <ele>346.53</ele>
  <time>2026-09-01T19:53:36Z</time>
  <course>190.56</course>
  <speed>0.1118033988749895</speed>
  <fix>3d</fix>
</trkpt>
<trkpt lat="-27.2744395" lon="151.2900635">
  <ele>346.48</ele>
  <time>2026-09-01T19:53:36Z</time>
  <course>190.58</course>
  <speed>0.1118033988749895</speed>
  <fix>3d</fix>
</trkpt>
<trkpt lat="-27.2744399" lon="151.2900635">
  <ele>346.63</ele>
  <time>2026-09-01T19:53:36Z</time>
  <course>9.73</course>
  <speed>0.12</speed>
  <fix>3d</fix>
</trkpt>
<trkpt lat="-27.2744395" lon="151.2900635">
  <ele>346.48</ele>
  <time>2026-09-01T19:53:36Z</time>
  <course>190.58</course>
  <speed>0.1118033988749895</speed>
  <fix>3d</fix>
</trkpt>
<trkpt lat="-27.2744394" lon="151.2900636">
  <ele>346.43</ele>
  <time>2026-09-01T19:53:36Z</time>
  <course>190.61</course>
  <speed>0.11045361017187261</speed>
  <fix>3d</fix>
</trkpt>
<trkpt lat="-27.2744397" lon="151.2900635">
  <ele>346.53</ele>
  <time>2026-09-01T19:53:36Z</time>
  <course>9.76</course>
  <speed>0.12</speed>
  <fix>3d</fix>
</trkpt>
<trkpt lat="-27.2744394" lon="151.2900636">
  <ele>346.43</ele>
  <time>2026-09-01T19:53:36Z</time>
  <course>190.61</course>
  <speed>0.11045361017187261</speed>
  <fix>3d</fix>
</trkpt>
<trkpt lat="-27.2744393" lon="151.2900636">
  <ele>346.38</ele>
  <time>2026-09-01T19:53:36Z</time>
  <course>190.62</course>
  <speed>0.11045361017187261</speed>
  <fix>3d</fix>
</trkpt>
<trkpt lat="-27.2744397" lon="151.2900635">
  <ele>346.53</ele>
  <time>2026-09-01T19:53:36Z</time>
  <course>9.76</course>
  <speed>0.12</speed>
  <fix>3d</fix>
</trkpt>
<trkpt lat="-27.2744393" lon="151.2900636">
  <ele>346.38</ele>
  <time>2026-09-01T19:53:36Z</time>
  <course>190.62</course>
  <speed>0.11045361017187261</speed>
  <fix>3d</fix>
</trkpt>
<trkpt lat="-27.2744392" lon="151.2900636">
  <ele>346.33</ele>
  <time>2026-09-01T19:53:36Z</time>
  <course>190.61</course>
  <speed>0.1004987562112089</speed>
  <fix>3d</fix>
</trkpt>
<trkpt lat="-27.2744394" lon="151.2900635">
  <ele>346.43</ele>
  <time>2026-09-01T19:53:36Z</time>
  <course>9.71</course>
  <speed>0.11</speed>
  <fix>3d</fix>
</trkpt>
<trkpt lat="-27.2744392" lon="151.2900636">
  <ele>346.33</ele>
  <time>2026-09-01T19:53:36Z</time>
  <course>190.61</course>
  <speed>0.1004987562112089</speed>
  <fix>3d</fix>
</trkpt>
<trkpt lat="-27.2744391" lon="151.2900636">
  <ele>346.28</ele>
  <time>2026-09-01T19:53:36Z</time>
  <course>190.59</course>
  <speed>0.1004987562112089</speed>
  <fix>3d</fix>
</trkpt>
<trkpt lat="-27.2744394" lon="151.2900635">
  <ele>346.43</ele>
  <time>2026-09-01T19:53:36Z</time>
  <course>9.71</course>
  <speed>0.11</speed>
  <fix>3d</fix>
</trkpt>
<trkpt lat="-27.2744391" lon="151.2900636">
  <ele>346.28</ele>
  <time>2026-09-01T19:53:36Z</time>
  <course>190.59</course>
  <speed>0.1004987562112089</speed>
  <fix>3d</fix>
</trkpt>
<trkpt lat="-27.2744391" lon="151.2900636">
  <ele>346.23</ele>
  <time>2026-09-01T19:53:36Z</time>
  <course>190.56</course>
  <speed>0.09055385138137417</speed>
  <fix>3d</fix>
</trkpt>
<trkpt lat="-27.2744392" lon="151.2900636">
  <ele>346.33</ele>
  <time>2026-09-01T19:53:36Z</time>
  <course>9.56</course>
  <speed>0.1</speed>
  <fix>3d</fix>
</trkpt>
<trkpt lat="-27.2744391" lon="151.2900636">
  <ele>346.23</ele>
  <time>2026-09-01T19:53:36Z</time>
  <course>190.56</course>
  <speed>0.09055385138137417</speed>
  <fix>3d</fix>
</trkpt>
<trkpt lat="-27.274439" lon="151.2900637">
  <ele>346.18</ele>
  <time>2026-09-01T19:53:36Z</time>
  <course>190.53</course>
  <speed>0.09055385138137417</speed>
  <fix>3d</fix>
</trkpt>
<trkpt lat="-27.2744392" lon="151.2900636">
  <ele>346.33</ele>
  <time>2026-09-01T19:53:36Z</time>
  <course>9.56</course>
  <speed>0.1</speed>
  <fix>3d</fix>
</trkpt>
<trkpt lat="-27.274439" lon="151.2900637">
  <ele>346.18</ele>
  <time>2026-09-01T19:53:36Z</time>
  <course>190.53</course>
  <speed>0.09055385138137417</speed>
  <fix>3d</fix>
</trkpt>
<trkpt lat="-27.2744389" lon="151.2900637">
  <ele>346.13</ele>
  <time>2026-09-01T19:53:36Z</time>
  <course>190.5</course>
  <speed>0.09055385138137417</speed>
  <fix>3d</fix>
</trkpt>
<trkpt lat="-27.2744391" lon="151.2900636">
  <ele>346.22</ele>
  <time>2026-09-01T19:53:36Z</time>
  <course>9.35</course>
  <speed>0.1</speed>
  <fix>3d</fix>
</trkpt>
<trkpt lat="-27.2744389" lon="151.2900637">
  <ele>346.13</ele>
  <time>2026-09-01T19:53:36Z</time>
  <course>190.5</course>
  <speed>0.09055385138137417</speed>
  <fix>3d</fix>
</trkpt>
<trkpt lat="-27.2744388" lon="151.2900637">
  <ele>346.08</ele>
  <time>2026-09-01T19:53:36Z</time>
  <course>190.48</course>
  <speed>0.08062257748298549</speed>
  <fix>3d</fix>
</trkpt>
<trkpt lat="-27.2744391" lon="151.2900636">
  <ele>346.22</ele>
  <time>2026-09-01T19:53:36Z</time>
  <course>9.35</course>
  <speed>0.1</speed>
  <fix>3d</fix>
</trkpt>
<trkpt lat="-27.2744388" lon="151.2900637">
  <ele>346.08</ele>
  <time>2026-09-01T19:53:36Z</time>
  <course>190.48</course>
  <speed>0.08062257748298549</speed>
  <fix>3d</fix>
</trkpt>
<trkpt lat="-27.2744387" lon="151.2900637">
  <ele>346.03</ele>
  <time>2026-09-01T19:53:36Z</time>
  <course>190.46</course>
  <speed>0.08062257748298549</speed>
  <fix>3d</fix>
</trkpt>
<trkpt lat="-27.2744389" lon="151.2900637">
  <ele>346.13</ele>
  <time>2026-09-01T19:53:36Z</time>
  <course>9.14</course>
  <speed>0.09</speed>
  <fix>3d</fix>
</trkpt>
<trkpt lat="-27.2744387" lon="151.2900637">
  <ele>346.03</ele>
  <time>2026-09-01T19:53:36Z</time>
  <course>190.46</course>
  <speed>0.08062257748298549</speed>
  <fix>3d</fix>
</trkpt>
<trkpt lat="-27.2744387" lon="151.2900637">
  <ele>345.98</ele>
  <time>2026-09-01T19:53:36Z</time>
  <course>190.45</course>
  <speed>0.07071067811865475</speed>
  <fix>3d</fix>
</trkpt>
<trkpt lat="-27.2744389" lon="151.2900637">
  <ele>346.13</ele>
  <time>2026-09-01T19:53:36Z</time>
  <course>9.14</course>
  <speed>0.09</speed>
  <fix>3d</fix>
</trkpt>
<trkpt lat="-27.2744387" lon="151.2900637">
  <ele>345.98</ele>
  <time>2026-09-01T19:53:36Z</time>
  <course>190.45</course>
  <speed>0.07071067811865475</speed>
  <fix>3d</fix>
</trkpt>
<trkpt lat="-27.2744386" lon="151.2900637">
  <ele>345.93</ele>
  <time>2026-09-01T19:53:36Z</time>
  <course>190.45</course>
  <speed>0.07071067811865475</speed>
  <fix>3d</fix>
</trkpt>
<trkpt lat="-27.2744387" lon="151.2900637">
  <ele>346.03</ele>
  <time>2026-09-01T19:53:36Z</time>
  <course>8.92</course>
  <speed>0.08</speed>
  <fix>3d</fix>
</trkpt>
<trkpt lat="-27.2744386" lon="151.2900637">
  <ele>345.93</ele>
  <time>2026-09-01T19:53:36Z</time>
  <course>190.45</course>
  <speed>0.07071067811865475</speed>
  <fix>3d</fix>
</trkpt>
<trkpt lat="-27.2744385" lon="151.2900637">
  <ele>345.88</ele>
  <time>2026-09-01T19:53:36Z</time>
  <course>190.45</course>
  <speed>0.06082762530298219</speed>
  <fix>3d</fix>
</trkpt>
<trkpt lat="-27.2744387" lon="151.2900637">
  <ele>346.03</ele>
  <time>2026-09-01T19:53:36Z</time>
  <course>8.92</course>
  <speed>0.08</speed>
  <fix>3d</fix>
</trkpt>
<trkpt lat="-27.2744385" lon="151.2900637">
  <ele>345.88</ele>
  <time>2026-09-01T19:53:36Z</time>
  <course>190.45</course>
  <speed>0.06</speed>
  <fix>3d</fix>
</trkpt>
<trkpt lat="-27.2744385" lon="151.2900637">
  <ele>345.83</ele>
  <time>2026-09-01T19:53:36Z</time>
  <course>190.46</course>
  <speed>0.05</speed>
  <fix>3d</fix>
</trkpt>
<trkpt lat="-27.2744385" lon="151.2900637">
  <ele>345.93</ele>
  <time>2026-09-01T19:53:36Z</time>
  <course>8.78</course>
  <speed>0.07</speed>
  <fix>3d</fix>
</trkpt>
<trkpt lat="-27.2744385" lon="151.2900637">
  <ele>345.83</ele>
  <time>2026-09-01T19:53:36Z</time>
  <course>190.46</course>
  <speed>0.05</speed>
  <fix>3d</fix>
</trkpt>
<trkpt lat="-27.2744384" lon="151.2900637">
  <ele>345.78</ele>
  <time>2026-09-01T19:53:36Z</time>
  <course>190.47</course>
  <speed>0.05</speed>
  <fix>3d</fix>
</trkpt>
<trkpt lat="-27.2744385" lon="151.2900637">
  <ele>345.93</ele>
  <time>2026-09-01T19:53:36Z</time>
  <course>8.78</course>
  <speed>0.07</speed>
  <fix>3d</fix>
</trkpt>
<trkpt lat="-27.2744384" lon="151.2900637">
  <ele>345.78</ele>
  <time>2026-09-01T19:53:36Z</time>
  <course>190.47</course>
  <speed>0.05</speed>
  <fix>3d</fix>
</trkpt>
<trkpt lat="-27.2744384" lon="151.2900637">
  <ele>345.73</ele>
  <time>2026-09-01T19:53:36Z</time>
  <course>190.48</course>
  <speed>0.04</speed>
  <fix>3d</fix>
</trkpt>
<trkpt lat="-27.2744384" lon="151.2900637">
  <ele>345.83</ele>
  <time>2026-09-01T19:53:36Z</time>
  <course>8.93</course>
  <speed>0.06</speed>
  <fix>3d</fix>
</trkpt>
<trkpt lat="-27.2744384" lon="151.2900637">
  <ele>345.73</ele>
  <time>2026-09-01T19:53:36Z</time>
  <course>190.48</course>
  <speed>0.04</speed>
  <fix>3d</fix>
</trkpt>
<trkpt lat="-27.2744383" lon="151.2900637">
  <ele>345.68</ele>
  <time>2026-09-01T19:53:36Z</time>
  <course>190.49</course>
  <speed>0.04</speed>
  <fix>3d</fix>
</trkpt>
<trkpt lat="-27.2744384" lon="151.2900637">
  <ele>345.83</ele>
  <time>2026-09-01T19:53:36Z</time>
  <course>8.93</course>
  <speed>0.06</speed>
  <fix>3d</fix>
</trkpt>
<trkpt lat="-27.2744383" lon="151.2900637">
  <ele>345.68</ele>
  <time>2026-09-01T19:53:36Z</time>
  <course>190.49</course>
  <speed>0.04</speed>
  <fix>3d</fix>
</trkpt>
<trkpt lat="-27.2744383" lon="151.2900637">
  <ele>345.63</ele>
  <time>2026-09-01T19:53:36Z</time>
  <course>190.5</course>
  <speed>0.03</speed>
  <fix>3d</fix>
</trkpt>
<trkpt lat="-27.2744383" lon="151.2900637">
  <ele>345.72</ele>
  <time>2026-09-01T19:53:36Z</time>
  <course>9.79</course>
  <speed>0.04</speed>
  <fix>3d</fix>
</trkpt>
<trkpt lat="-27.2744383" lon="151.2900637">
  <ele>345.63</ele>
  <time>2026-09-01T19:53:36Z</time>
  <course>190.5</course>
  <speed>0.03</speed>
  <fix>3d</fix>
</trkpt>
<trkpt lat="-27.2744383" lon="151.2900637">
  <ele>345.58</ele>
  <time>2026-09-01T19:53:36Z</time>
  <course>190.51</course>
  <speed>0.03</speed>
  <fix>3d</fix>
</trkpt>
<trkpt lat="-27.2744383" lon="151.2900637">
  <ele>345.72</ele>
  <time>2026-09-01T19:53:36Z</time>
  <course>9.79</course>
  <speed>0.04</speed>
  <fix>3d</fix>
</trkpt>
<trkpt lat="-27.2744383" lon="151.2900637">
  <ele>345.58</ele>
  <time>2026-09-01T19:53:36Z</time>
  <course>190.51</course>
  <speed>0.03</speed>
  <fix>3d</fix>
</trkpt>
<trkpt lat="-27.2744382" lon="151.2900637">
  <ele>345.53</ele>
  <time>2026-09-01T19:53:36Z</time>
  <course>190.52</course>
  <speed>0.02</speed>
  <fix>3d</fix>
</trkpt>
<trkpt lat="-27.2744383" lon="151.2900637">
  <ele>345.63</ele>
  <time>2026-09-01T19:53:36Z</time>
  <course>12.05</course>
  <speed>0.03</speed>
  <fix>3d</fix>
</trkpt>
<trkpt lat="-27.2744382" lon="151.2900637">
  <ele>345.53</ele>
  <time>2026-09-01T19:53:36Z</time>
  <course>190.52</course>
  <speed>0.02</speed>
  <fix>3d</fix>
</trkpt>
<trkpt lat="-27.2744382" lon="151.2900637">
  <ele>345.48</ele>
  <time>2026-09-01T19:53:36Z</time>
  <course>190.53</course>
  <speed>0.02</speed>
  <fix>3d</fix>
</trkpt>
<trkpt lat="-27.2744383" lon="151.2900637">
  <ele>345.63</ele>
  <time>2026-09-01T19:53:36Z</time>
  <course>12.05</course>
  <speed>0.03</speed>
  <fix>3d</fix>
</trkpt>
<trkpt lat="-27.2744382" lon="151.2900637">
  <ele>345.48</ele>
  <time>2026-09-01T19:53:36Z</time>
  <course>190.53</course>
  <speed>0.02</speed>
  <fix>3d</fix>
</trkpt>
<trkpt lat="-27.2744382" lon="151.2900637">
  <ele>345.43</ele>
  <time>2026-09-01T19:53:36Z</time>
  <course>190.55</course>
  <speed>0.01</speed>
  <fix>3d</fix>
</trkpt>
<trkpt lat="-27.2744382" lon="151.2900637">
  <ele>345.53</ele>
  <time>2026-09-01T19:53:36Z</time>
  <course>16.93</course>
  <speed>0.02</speed>
  <fix>3d</fix>
</trkpt>
<trkpt lat="-27.2744382" lon="151.2900637">
  <ele>345.43</ele>
  <time>2026-09-01T19:53:36Z</time>
  <course>190.55</course>
  <speed>0.01</speed>
  <fix>3d</fix>
</trkpt>
<trkpt lat="-27.2744382" lon="151.2900637">
  <ele>345.38</ele>
  <time>2026-09-01T19:53:36Z</time>
  <course>190.57</course>
  <speed>0.01414213562373095</speed>
  <fix>3d</fix>
</trkpt>
<trkpt lat="-27.2744382" lon="151.2900637">
  <ele>345.53</ele>
  <time>2026-09-01T19:53:36Z</time>
  <course>16.93</course>
  <speed>0.02</speed>
  <fix>3d</fix>
</trkpt>
<trkpt lat="-27.2744382" lon="151.2900637">
  <ele>345.38</ele>
  <time>2026-09-01T19:53:36Z</time>
  <course>190.57</course>
  <speed>0.01414213562373095</speed>
  <fix>3d</fix>
</trkpt>
<trkpt lat="-27.2744382" lon="151.2900637">
  <ele>345.33</ele>
  <time>2026-09-01T19:53:36Z</time>
  <course>190.59</course>
  <speed>0.01</speed>
  <fix>3d</fix>
</trkpt>
<trkpt lat="-27.2744382" lon="151.2900637">
  <ele>345.43</ele>
  <time>2026-09-01T19:53:36Z</time>
  <course>28.2</course>
  <speed>0.02</speed>
  <fix>3d</fix>
</trkpt>
<trkpt lat="-27.2744382" lon="151.2900637">
  <ele>345.33</ele>
  <time>2026-09-01T19:53:36Z</time>
  <course>190.59</course>
  <speed>0.01</speed>
  <fix>3d</fix>
</trkpt>
<trkpt lat="-27.2744382" lon="151.2900637">
  <ele>345.28</ele>
  <time>2026-09-01T19:53:36Z</time>
  <course>190.62</course>
  <speed>0.01</speed>
  <fix>3d</fix>
</trkpt>
<trkpt lat="-27.2744382" lon="151.2900637">
  <ele>345.43</ele>
  <time>2026-09-01T19:53:36Z</time>
  <course>28.2</course>
  <speed>0.02</speed>
  <fix>3d</fix>
</trkpt>
<trkpt lat="-27.2744382" lon="151.2900637">
  <ele>345.28</ele>
  <time>2026-09-01T19:53:36Z</time>
  <course>190.62</course>
  <speed>0.01</speed>
  <fix>3d</fix>
</trkpt>
<trkpt lat="-27.2744382" lon="151.2900639">
  <ele>345.23</ele>
  <time>2026-09-01T19:53:36Z</time>
  <course>190.66</course>
  <speed>0.01</speed>
  <fix>3d</fix>
</trkpt>
<trkpt lat="-27.2744382" lon="151.2900637">
  <ele>345.33</ele>
  <time>2026-09-01T19:53:36Z</time>
  <course>57.44</course>
  <speed>0.01</speed>
  <fix>3d</fix>
</trkpt>
<trkpt lat="-27.2744382" lon="151.2900639">
  <ele>345.23</ele>
  <time>2026-09-01T19:53:36Z</time>
  <course>190.66</course>
  <speed>0.01</speed>
  <fix>3d</fix>
</trkpt>
<trkpt lat="-27.2744382" lon="151.2900639">
  <ele>345.18</ele>
  <time>2026-09-01T19:53:36Z</time>
  <course>190.71</course>
  <speed>0.01</speed>
  <fix>3d</fix>
</trkpt>
<trkpt lat="-27.2744382" lon="151.2900637">
  <ele>345.33</ele>
  <time>2026-09-01T19:53:36Z</time>
  <course>57.44</course>
  <speed>0.01</speed>
  <fix>3d</fix>
</trkpt>
<trkpt lat="-27.2744382" lon="151.2900639">
  <ele>345.18</ele>
  <time>2026-09-01T19:53:36Z</time>
  <course>190.71</course>
  <speed>0.01</speed>
  <fix>3d</fix>
</trkpt>
<trkpt lat="-27.2744382" lon="151.2900639">
  <ele>345.13</ele>
  <time>2026-09-01T19:53:36Z</time>
  <course>190.76</course>
  <speed>0.01414213562373095</speed>
  <fix>3d</fix>
</trkpt>
<trkpt lat="-27.2744382" lon="151.2900638">
  <ele>345.22</ele>
  <time>2026-09-01T19:53:36Z</time>
  <course>99.29</course>
  <speed>0.01</speed>
  <fix>3d</fix>
</trkpt>
<trkpt lat="-27.2744382" lon="151.2900639">
  <ele>345.13</ele>
  <time>2026-09-01T19:53:36Z</time>
  <course>190.76</course>
  <speed>0.01414213562373095</speed>
  <fix>3d</fix>
</trkpt>
<trkpt lat="-27.2744382" lon="151.2900639">
  <ele>345.08</ele>
  <time>2026-09-01T19:53:36Z</time>
  <course>190.81</course>
  <speed>0.022360679774997897</speed>
  <fix>3d</fix>
</trkpt>
<trkpt lat="-27.2744382" lon="151.2900638">
  <ele>345.22</ele>
  <time>2026-09-01T19:53:36Z</time>
  <course>99.29</course>
  <speed>0.01</speed>
  <fix>3d</fix>
</trkpt>
<trkpt lat="-27.2744382" lon="151.2900639">
  <ele>345.08</ele>
  <time>2026-09-01T19:53:36Z</time>
  <course>190.81</course>
  <speed>0.022360679774997897</speed>
  <fix>3d</fix>
</trkpt>
<trkpt lat="-27.2744382" lon="151.2900639">
  <ele>345.03</ele>
  <time>2026-09-01T19:53:36Z</time>
  <course>190.85</course>
  <speed>0.022360679774997897</speed>
  <fix>3d</fix>
</trkpt>
<trkpt lat="-27.2744382" lon="151.2900639">
  <ele>345.13</ele>
  <time>2026-09-01T19:53:36Z</time>
  <course>121.61</course>
  <speed>0.02</speed>
  <fix>3d</fix>
</trkpt>
<trkpt lat="-27.2744382" lon="151.2900639">
  <ele>345.03</ele>
  <time>2026-09-01T19:53:36Z</time>
  <course>190.85</course>
  <speed>0.0282842712474619</speed>
  <fix>3d</fix>
</trkpt>
<trkpt lat="-27.2744382" lon="151.290064">
  <ele>344.98</ele>
  <time>2026-09-01T19:53:36Z</time>
  <course>190.88</course>
  <speed>0.0282842712474619</speed>
  <fix>3d</fix>
</trkpt>
<trkpt lat="-27.2744382" lon="151.2900639">
  <ele>345.13</ele>
  <time>2026-09-01T19:53:36Z</time>
  <course>121.61</course>
  <speed>0.02</speed>
  <fix>3d</fix>
</trkpt>
<trkpt lat="-27.2744382" lon="151.290064">
  <ele>344.98</ele>
  <time>2026-09-01T19:53:36Z</time>
  <course>190.88</course>
  <speed>0.0282842712474619</speed>
  <fix>3d</fix>
</trkpt>
<trkpt lat="-27.2744382" lon="151.290064">
  <ele>344.93</ele>
  <time>2026-09-01T19:53:36Z</time>
  <course>190.91</course>
  <speed>0.0282842712474619</speed>
  <fix>3d</fix>
</trkpt>
<trkpt lat="-27.2744382" lon="151.2900639">
  <ele>345.03</ele>
  <time>2026-09-01T19:53:36Z</time>
  <course>132.33</course>
  <speed>0.02</speed>
  <fix>3d</fix>
</trkpt>
<trkpt lat="-27.2744382" lon="151.290064">
  <ele>344.93</ele>
  <time>2026-09-01T19:53:36Z</time>
  <course>190.91</course>
  <speed>0.0282842712474619</speed>
  <fix>3d</fix>
</trkpt>
<trkpt lat="-27.2744382" lon="151.290064">
  <ele>344.88</ele>
  <time>2026-09-01T19:53:36Z</time>
  <course>190.92</course>
  <speed>0.03605551275463989</speed>
  <fix>3d</fix>
</trkpt>
<trkpt lat="-27.2744382" lon="151.2900639">
  <ele>345.03</ele>
  <time>2026-09-01T19:53:36Z</time>
  <course>132.33</course>
  <speed>0.02</speed>
  <fix>3d</fix>
</trkpt>
<trkpt lat="-27.2744382" lon="151.290064">
  <ele>344.88</ele>
  <time>2026-09-01T19:53:36Z</time>
  <course>190.92</course>
  <speed>0.03605551275463989</speed>
  <fix>3d</fix>
</trkpt>
<trkpt lat="-27.2744382" lon="151.290064">
  <ele>344.83</ele>
  <time>2026-09-01T19:53:36Z</time>
  <course>190.92</course>
  <speed>0.03605551275463989</speed>
  <fix>3d</fix>
</trkpt>
<trkpt lat="-27.2744382" lon="151.290064">
  <ele>344.93</ele>
  <time>2026-09-01T19:53:36Z</time>
  <course>138.23</course>
  <speed>0.03</speed>
  <fix>3d</fix>
</trkpt>
<trkpt lat="-27.2744382" lon="151.290064">
  <ele>344.83</ele>
  <time>2026-09-01T19:53:36Z</time>
  <course>190.92</course>
  <speed>0.03605551275463989</speed>
  <fix>3d</fix>
</trkpt>
<trkpt lat="-27.2744382" lon="151.2900641">
  <ele>344.78</ele>
  <time>2026-09-01T19:53:36Z</time>
  <course>190.92</course>
  <speed>0.03605551275463989</speed>
  <fix>3d</fix>
</trkpt>
<trkpt lat="-27.2744382" lon="151.290064">
  <ele>344.93</ele>
  <time>2026-09-01T19:53:36Z</time>
  <course>138.23</course>
  <speed>0.03</speed>
  <fix>3d</fix>
</trkpt>
<trkpt lat="-27.2744382" lon="151.2900641">
  <ele>344.78</ele>
  <time>2026-09-01T19:53:36Z</time>
  <course>190.92</course>
  <speed>0.03605551275463989</speed>
  <fix>3d</fix>
</trkpt>
<trkpt lat="-27.2744383" lon="151.2900641">
  <ele>344.73</ele>
  <time>2026-09-01T19:53:36Z</time>
  <course>190.91</course>
  <speed>0.03605551275463989</speed>
  <fix>3d</fix>
</trkpt>
<trkpt lat="-27.2744382" lon="151.290064">
  <ele>344.83</ele>
  <time>2026-09-01T19:53:36Z</time>
  <course>142.02</course>
  <speed>0.04</speed>
  <fix>3d</fix>
</trkpt>
<trkpt lat="-27.2744383" lon="151.2900641">
  <ele>344.73</ele>
  <time>2026-09-01T19:53:36Z</time>
  <course>190.91</course>
  <speed>0.03605551275463989</speed>
  <fix>3d</fix>
</trkpt>
<trkpt lat="-27.2744383" lon="151.2900641">
  <ele>344.68</ele>
  <time>2026-09-01T19:53:36Z</time>
  <course>190.89</course>
  <speed>0.044721359549995794</speed>
  <fix>3d</fix>
</trkpt>
<trkpt lat="-27.2744382" lon="151.290064">
  <ele>344.83</ele>
  <time>2026-09-01T19:53:36Z</time>
  <course>142.02</course>
  <speed>0.04</speed>
  <fix>3d</fix>
</trkpt>
<trkpt lat="-27.2744384" lon="151.2900641">
  <ele>344.63</ele>
  <time>2026-09-01T19:53:36Z</time>
  <course>190.88</course>
  <speed>0.044721359549995794</speed>
  <fix>3d</fix>
</trkpt>
<trkpt lat="-27.2744382" lon="151.2900641">
  <ele>344.72</ele>
  <time>2026-09-01T19:53:36Z</time>
  <course>145.07</course>
  <speed>0.04</speed>
  <fix>3d</fix>
</trkpt>
<trkpt lat="-27.2744384" lon="151.2900641">
  <ele>344.63</ele>
  <time>2026-09-01T19:53:36Z</time>
  <course>190.88</course>
  <speed>0.044721359549995794</speed>
  <fix>3d</fix>
</trkpt>
<trkpt lat="-27.2744384" lon="151.2900642">
  <ele>344.58</ele>
  <time>2026-09-01T19:53:36Z</time>
  <course>190.87</course>
  <speed>0.044721359549995794</speed>
  <fix>3d</fix>
</trkpt>
<trkpt lat="-27.2744382" lon="151.2900641">
  <ele>344.72</ele>
  <time>2026-09-01T19:53:36Z</time>
  <course>145.07</course>
  <speed>0.04</speed>
  <fix>3d</fix>
</trkpt>
<trkpt lat="-27.2744384" lon="151.2900642">
  <ele>344.58</ele>
  <time>2026-09-01T19:53:36Z</time>
  <course>190.87</course>
  <speed>0.044721359549995794</speed>
  <fix>3d</fix>
</trkpt>
<trkpt lat="-27.2744384" lon="151.2900642">
  <ele>344.53</ele>
  <time>2026-09-01T19:53:36Z</time>
  <course>190.86</course>
  <speed>0.044721359549995794</speed>
  <fix>3d</fix>
</trkpt>
<trkpt lat="-27.2744383" lon="151.2900641">
  <ele>344.63</ele>
  <time>2026-09-01T19:53:36Z</time>
  <course>148.13</course>
  <speed>0.05</speed>
  <fix>3d</fix>
</trkpt>
<trkpt lat="-27.2744384" lon="151.2900642">
  <ele>344.53</ele>
  <time>2026-09-01T19:53:36Z</time>
  <course>190.86</course>
  <speed>0.044721359549995794</speed>
  <fix>3d</fix>
</trkpt>
<trkpt lat="-27.2744385" lon="151.2900642">
  <ele>344.48</ele>
  <time>2026-09-01T19:53:36Z</time>
  <course>190.86</course>
  <speed>0.053851648071345036</speed>
  <fix>3d</fix>
</trkpt>
<trkpt lat="-27.2744383" lon="151.2900641">
  <ele>344.63</ele>
  <time>2026-09-01T19:53:36Z</time>
  <course>148.13</course>
  <speed>0.05</speed>
  <fix>3d</fix>
</trkpt>
<trkpt lat="-27.2744385" lon="151.2900642">
  <ele>344.48</ele>
  <time>2026-09-01T19:53:36Z</time>
  <course>190.86</course>
  <speed>0.053851648071345036</speed>
  <fix>3d</fix>
</trkpt>
<trkpt lat="-27.2744385" lon="151.2900642">
  <ele>344.43</ele>
  <time>2026-09-01T19:53:36Z</time>
  <course>190.86</course>
  <speed>0.053851648071345036</speed>
  <fix>3d</fix>
</trkpt>
<trkpt lat="-27.2744384" lon="151.2900642">
  <ele>344.53</ele>
  <time>2026-09-01T19:53:36Z</time>
  <course>151.01</course>
  <speed>0.05</speed>
  <fix>3d</fix>
</trkpt>
<trkpt lat="-27.2744385" lon="151.2900642">
  <ele>344.42</ele>
  <time>2026-09-01T19:53:36Z</time>
  <course>190.86</course>
  <speed>0.053851648071345036</speed>
  <fix>3d</fix>
</trkpt>
<trkpt lat="-27.2744386" lon="151.2900642">
  <ele>344.38</ele>
  <time>2026-09-01T19:53:36Z</time>
  <course>190.86</course>
  <speed>0.053851648071345036</speed>
  <fix>3d</fix>
</trkpt>
<trkpt lat="-27.2744384" lon="151.2900642">
  <ele>344.53</ele>
  <time>2026-09-01T19:53:36Z</time>
  <course>151.01</course>
  <speed>0.05</speed>
  <fix>3d</fix>
</trkpt>
<trkpt lat="-27.2744386" lon="151.2900642">
  <ele>344.38</ele>
  <time>2026-09-01T19:53:36Z</time>
  <course>190.86</course>
  <speed>0.053851648071345036</speed>
  <fix>3d</fix>
</trkpt>
<trkpt lat="-27.2744386" lon="151.2900642">
  <ele>344.33</ele>
  <time>2026-09-01T19:53:36Z</time>
  <course>190.86</course>
  <speed>0.053851648071345036</speed>
  <fix>3d</fix>
</trkpt>
<trkpt lat="-27.2744385" lon="151.2900642">
  <ele>344.43</ele>
  <time>2026-09-01T19:53:36Z</time>
  <course>153.09</course>
  <speed>0.05</speed>
  <fix>3d</fix>
</trkpt>
<trkpt lat="-27.2744386" lon="151.2900642">
  <ele>344.33</ele>
  <time>2026-09-01T19:53:36Z</time>
  <course>190.86</course>
  <speed>0.053851648071345036</speed>
  <fix>3d</fix>
</trkpt>
<trkpt lat="-27.2744387" lon="151.2900642">
  <ele>344.28</ele>
  <time>2026-09-01T19:53:36Z</time>
  <course>190.86</course>
  <speed>0.053851648071345036</speed>
  <fix>3d</fix>
</trkpt>
<trkpt lat="-27.2744385" lon="151.2900642">
  <ele>344.43</ele>
  <time>2026-09-01T19:53:36Z</time>
  <course>153.09</course>
  <speed>0.05</speed>
  <fix>3d</fix>
</trkpt>
<trkpt lat="-27.2744387" lon="151.2900642">
  <ele>344.28</ele>
  <time>2026-09-01T19:53:36Z</time>
  <course>190.86</course>
  <speed>0.053851648071345036</speed>
  <fix>3d</fix>
</trkpt>
<trkpt lat="-27.2744387" lon="151.2900644">
  <ele>344.23</ele>
  <time>2026-09-01T19:53:36Z</time>
  <course>190.87</course>
  <speed>0.053851648071345036</speed>
  <fix>3d</fix>
</trkpt>
<trkpt lat="-27.2744386" lon="151.2900642">
  <ele>344.33</ele>
  <time>2026-09-01T19:53:36Z</time>
  <course>154.5</course>
  <speed>0.05</speed>
  <fix>3d</fix>
</trkpt>
<trkpt lat="-27.2744387" lon="151.2900644">
  <ele>344.23</ele>
  <time>2026-09-01T19:53:36Z</time>
  <course>190.87</course>
  <speed>0.053851648071345036</speed>
  <fix>3d</fix>
</trkpt>
<trkpt lat="-27.2744388" lon="151.2900644">
  <ele>344.18</ele>
  <time>2026-09-01T19:53:36Z</time>
  <course>190.87</course>
  <speed>0.053851648071345036</speed>
  <fix>3d</fix>
</trkpt>
<trkpt lat="-27.2744386" lon="151.2900642">
  <ele>344.33</ele>
  <time>2026-09-01T19:53:36Z</time>
  <course>154.5</course>
  <speed>0.05</speed>
  <fix>3d</fix>
</trkpt>
<trkpt lat="-27.2744388" lon="151.2900644">
  <ele>344.18</ele>
  <time>2026-09-01T19:53:36Z</time>
  <course>190.88</course>
  <speed>0.053851648071345036</speed>
  <fix>3d</fix>
</trkpt>
<trkpt lat="-27.2744388" lon="151.2900644">
  <ele>344.13</ele>
  <time>2026-09-01T19:53:36Z</time>
  <course>190.88</course>
  <speed>0.053851648071345036</speed>
  <fix>3d</fix>
</trkpt>
<trkpt lat="-27.2744387" lon="151.2900643">
  <ele>344.22</ele>
  <time>2026-09-01T19:53:36Z</time>
  <course>155.59</course>
  <speed>0.05</speed>
  <fix>3d</fix>
</trkpt>
<trkpt lat="-27.2744388" lon="151.2900644">
  <ele>344.13</ele>
  <time>2026-09-01T19:53:36Z</time>
  <course>190.88</course>
  <speed>0.053851648071345036</speed>
  <fix>3d</fix>
</trkpt>
<trkpt lat="-27.2744389" lon="151.2900644">
  <ele>344.08</ele>
  <time>2026-09-01T19:53:36Z</time>
  <course>190.89</course>
  <speed>0.053851648071345036</speed>
  <fix>3d</fix>
</trkpt>
<trkpt lat="-27.2744387" lon="151.2900643">
  <ele>344.22</ele>
  <time>2026-09-01T19:53:36Z</time>
  <course>155.59</course>
  <speed>0.05</speed>
  <fix>3d</fix>
</trkpt>
<trkpt lat="-27.2744389" lon="151.2900644">
  <ele>344.08</ele>
  <time>2026-09-01T19:53:36Z</time>
  <course>190.89</course>
  <speed>0.053851648071345036</speed>
  <fix>3d</fix>
</trkpt>
<trkpt lat="-27.2744389" lon="151.2900644">
  <ele>344.03</ele>
  <time>2026-09-01T19:53:36Z</time>
  <course>190.9</course>
  <speed>0.0412310562561766</speed>
  <fix>3d</fix>
</trkpt>
<trkpt lat="-27.2744388" lon="151.2900644">
  <ele>344.13</ele>
  <time>2026-09-01T19:53:36Z</time>
  <course>157.04</course>
  <speed>0.05</speed>
  <fix>3d</fix>
</trkpt>
<trkpt lat="-27.2744389" lon="151.2900645">
  <ele>343.98</ele>
  <time>2026-09-01T19:53:36Z</time>
  <course>190.9</course>
  <speed>0.0412310562561766</speed>
  <fix>3d</fix>
</trkpt>
<trkpt lat="-27.2744388" lon="151.2900644">
  <ele>344.13</ele>
  <time>2026-09-01T19:53:36Z</time>
  <course>157.04</course>
  <speed>0.05</speed>
  <fix>3d</fix>
</trkpt>
<trkpt lat="-27.274439" lon="151.2900645">
  <ele>343.93</ele>
  <time>2026-09-01T19:53:36Z</time>
  <course>190.91</course>
  <speed>0.0412310562561766</speed>
  <fix>3d</fix>
</trkpt>
<trkpt lat="-27.2744389" lon="151.2900644">
  <ele>344.03</ele>
  <time>2026-09-01T19:53:36Z</time>
  <course>159.45</course>
  <speed>0.05</speed>
  <fix>3d</fix>
</trkpt>
<trkpt lat="-27.274439" lon="151.2900645">
  <ele>343.88</ele>
  <time>2026-09-01T19:53:36Z</time>
  <course>190.91</course>
  <speed>0.0412310562561766</speed>
  <fix>3d</fix>
</trkpt>
<trkpt lat="-27.2744389" lon="151.2900644">
  <ele>344.03</ele>
  <time>2026-09-01T19:53:36Z</time>
  <course>159.45</course>
  <speed>0.05</speed>
  <fix>3d</fix>
</trkpt>
<trkpt lat="-27.2744391" lon="151.2900645">
  <ele>343.83</ele>
  <time>2026-09-01T19:53:36Z</time>
  <course>190.92</course>
  <speed>0.0412310562561766</speed>
  <fix>3d</fix>
</trkpt>
<trkpt lat="-27.2744389" lon="151.2900645">
  <ele>343.93</ele>
  <time>2026-09-01T19:53:36Z</time>
  <course>162.47</course>
  <speed>0.04</speed>
  <fix>3d</fix>
</trkpt>
<trkpt lat="-27.2744391" lon="151.2900645">
  <ele>343.78</ele>
  <time>2026-09-01T19:53:36Z</time>
  <course>190.93</course>
  <speed>0.04</speed>
  <fix>3d</fix>
</trkpt>
<trkpt lat="-27.2744389" lon="151.2900645">
  <ele>343.93</ele>
  <time>2026-09-01T19:53:36Z</time>
  <course>162.47</course>
  <speed>0.04</speed>
  <fix>3d</fix>
</trkpt>
<trkpt lat="-27.2744391" lon="151.2900645">
  <ele>343.73</ele>
  <time>2026-09-01T19:53:36Z</time>
  <course>190.93</course>
  <speed>0.03</speed>
  <fix>3d</fix>
</trkpt>
<trkpt lat="-27.274439" lon="151.2900645">
  <ele>343.83</ele>
  <time>2026-09-01T19:53:36Z</time>
  <course>165.58</course>
  <speed>0.04</speed>
  <fix>3d</fix>
</trkpt>
<trkpt lat="-27.2744392" lon="151.2900645">
  <ele>343.68</ele>
  <time>2026-09-01T19:53:36Z</time>
  <course>190.93</course>
  <speed>0.03</speed>
  <fix>3d</fix>
</trkpt>
<trkpt lat="-27.274439" lon="151.2900645">
  <ele>343.83</ele>
  <time>2026-09-01T19:53:36Z</time>
  <course>165.58</course>
  <speed>0.04</speed>
  <fix>3d</fix>
</trkpt>
<trkpt lat="-27.2744392" lon="151.2900645">
  <ele>343.63</ele>
  <time>2026-09-01T19:53:36Z</time>
  <course>190.94</course>
  <speed>0.03</speed>
  <fix>3d</fix>
</trkpt>
<trkpt lat="-27.2744391" lon="151.2900645">
  <ele>343.72</ele>
  <time>2026-09-01T19:53:36Z</time>
  <course>168.71</course>
  <speed>0.03</speed>
  <fix>3d</fix>
</trkpt>
<trkpt lat="-27.2744392" lon="151.2900645">
  <ele>343.58</ele>
  <time>2026-09-01T19:53:36Z</time>
  <course>190.93</course>
  <speed>0.03</speed>
  <fix>3d</fix>
</trkpt>
<trkpt lat="-27.2744391" lon="151.2900645">
  <ele>343.72</ele>
  <time>2026-09-01T19:53:36Z</time>
  <course>168.71</course>
  <speed>0.03</speed>
  <fix>3d</fix>
</trkpt>
<trkpt lat="-27.2744393" lon="151.2900645">
  <ele>343.53</ele>
  <time>2026-09-01T19:53:36Z</time>
  <course>190.93</course>
  <speed>0.02</speed>
  <fix>3d</fix>
</trkpt>
<trkpt lat="-27.2744392" lon="151.2900645">
  <ele>343.63</ele>
  <time>2026-09-01T19:53:36Z</time>
  <course>172.09</course>
  <speed>0.03</speed>
  <fix>3d</fix>
</trkpt>
<trkpt lat="-27.2744393" lon="151.2900645">
  <ele>343.48</ele>
  <time>2026-09-01T19:53:36Z</time>
  <course>190.93</course>
  <speed>0.02</speed>
  <fix>3d</fix>
</trkpt>
<trkpt lat="-27.2744392" lon="151.2900645">
  <ele>343.63</ele>
  <time>2026-09-01T19:53:36Z</time>
  <course>172.09</course>
  <speed>0.03</speed>
  <fix>3d</fix>
</trkpt>
<trkpt lat="-27.2744393" lon="151.2900645">
  <ele>343.43</ele>
  <time>2026-09-01T19:53:36Z</time>
  <course>190.93</course>
  <speed>0.02</speed>
  <fix>3d</fix>
</trkpt>
<trkpt lat="-27.2744392" lon="151.2900645">
  <ele>343.53</ele>
  <time>2026-09-01T19:53:36Z</time>
  <course>176.26</course>
  <speed>0.02</speed>
  <fix>3d</fix>
</trkpt>
<trkpt lat="-27.2744393" lon="151.2900645">
  <ele>343.38</ele>
  <time>2026-09-01T19:53:36Z</time>
  <course>190.93</course>
  <speed>0.02</speed>
  <fix>3d</fix>
</trkpt>
<trkpt lat="-27.2744392" lon="151.2900645">
  <ele>343.53</ele>
  <time>2026-09-01T19:53:36Z</time>
  <course>176.26</course>
  <speed>0.02</speed>
  <fix>3d</fix>
</trkpt>
<trkpt lat="-27.2744394" lon="151.2900645">
  <ele>343.33</ele>
  <time>2026-09-01T19:53:36Z</time>
  <course>190.93</course>
  <speed>0.01</speed>
  <fix>3d</fix>
</trkpt>
<trkpt lat="-27.2744393" lon="151.2900645">
  <ele>343.43</ele>
  <time>2026-09-01T19:53:36Z</time>
  <course>181.75</course>
  <speed>0.02</speed>
  <fix>3d</fix>
</trkpt>
<trkpt lat="-27.2744394" lon="151.2900645">
  <ele>343.28</ele>
  <time>2026-09-01T19:53:36Z</time>
  <course>190.94</course>
  <speed>0.01</speed>
  <fix>3d</fix>
</trkpt>
<trkpt lat="-27.2744393" lon="151.2900645">
  <ele>343.43</ele>
  <time>2026-09-01T19:53:36Z</time>
  <course>181.75</course>
  <speed>0.02</speed>
  <fix>3d</fix>
</trkpt>
<trkpt lat="-27.2744394" lon="151.2900645">
  <ele>343.23</ele>
  <time>2026-09-01T19:53:36Z</time>
  <course>190.94</course>
  <speed>0.01</speed>
  <fix>3d</fix>
</trkpt>
<trkpt lat="-27.2744393" lon="151.2900645">
  <ele>343.33</ele>
  <time>2026-09-01T19:53:36Z</time>
  <course>189.27</course>
  <speed>0.01</speed>
  <fix>3d</fix>
</trkpt>
<trkpt lat="-27.2744394" lon="151.2900645">
  <ele>343.18</ele>
  <time>2026-09-01T19:53:36Z</time>
  <course>190.95</course>
  <speed>0.01</speed>
  <fix>3d</fix>
</trkpt>
<trkpt lat="-27.2744393" lon="151.2900645">
  <ele>343.33</ele>
  <time>2026-09-01T19:53:36Z</time>
  <course>189.27</course>
  <speed>0.01</speed>
  <fix>3d</fix>
</trkpt>
<trkpt lat="-27.2744394" lon="151.2900645">
  <ele>343.13</ele>
  <time>2026-09-01T19:53:36Z</time>
  <course>190.96</course>
  <speed>0.0</speed>
  <fix>3d</fix>
</trkpt>
<trkpt lat="-27.2744394" lon="151.2900645">
  <ele>343.22</ele>
  <time>2026-09-01T19:53:36Z</time>
  <course>199.7</course>
  <speed>0.01</speed>
  <fix>3d</fix>
</trkpt>
<trkpt lat="-27.2744394" lon="151.2900645">
  <ele>343.08</ele>
  <time>2026-09-01T19:53:36Z</time>
  <course>190.97</course>
  <speed>0.0</speed>
  <fix>3d</fix>
</trkpt>
<trkpt lat="-27.2744394" lon="151.2900645">
  <ele>343.22</ele>
  <time>2026-09-01T19:53:36Z</time>
  <course>199.7</course>
  <speed>0.01</speed>
  <fix>3d</fix>
</trkpt>
<trkpt lat="-27.2744394" lon="151.2900645">
  <ele>343.07</ele>
  <time>2026-09-01T19:53:36Z</time>
  <course>190.97</course>
  <speed>0.0</speed>
  <fix>3d</fix>
</trkpt>
<trkpt lat="-27.2744394" lon="151.2900645">
  <ele>343.13</ele>
  <time>2026-09-01T19:53:36Z</time>
  <course>213.32</course>
  <speed>0.0</speed>
  <fix>3d</fix>
</trkpt>
<trkpt lat="-27.2744394" lon="151.2900645">
  <ele>343.08</ele>
  <time>2026-09-01T19:53:37Z</time>
  <course>190.97</course>
  <speed>0.0</speed>
  <fix>3d</fix>
</trkpt>
<trkpt lat="-27.2744394" lon="151.2900645">
  <ele>343.13</ele>
  <time>2026-09-01T19:53:37Z</time>
  <course>213.32</course>
  <speed>0.0</speed>
  <fix>3d</fix>
</trkpt>
<trkpt lat="-27.2744394" lon="151.2900645">
  <ele>343.09</ele>
  <time>2026-09-01T19:53:37Z</time>
  <course>190.97</course>
  <speed>0.0</speed>
  <fix>3d</fix>
</trkpt>
<trkpt lat="-27.2744394" lon="151.2900645">
  <ele>343.08</ele>
  <time>2026-09-01T19:53:37Z</time>
  <course>224.02</course>
  <speed>0.0</speed>
  <fix>3d</fix>
</trkpt>
<trkpt lat="-27.2744394" lon="151.2900645">
  <ele>343.1</ele>
  <time>2026-09-01T19:53:37Z</time>
  <course>190.97</course>
  <speed>0.0</speed>
  <fix>3d</fix>
</trkpt>
<trkpt lat="-27.2744394" lon="151.2900645">
  <ele>343.08</ele>
  <time>2026-09-01T19:53:37Z</time>
  <course>224.02</course>
  <speed>0.0</speed>
  <fix>3d</fix>
</trkpt>
<trkpt lat="-27.2744394" lon="151.2900645">
  <ele>343.1</ele>
  <time>2026-09-01T19:53:37Z</time>
  <course>190.97</course>
  <speed>0.0</speed>
  <fix>3d</fix>
</trkpt>
<trkpt lat="-27.2744394" lon="151.2900645">
  <ele>343.09</ele>
  <time>2026-09-01T19:53:37Z</time>
  <course>44.03</course>
  <speed>0.0</speed>
  <fix>3d</fix>
</trkpt>
<trkpt lat="-27.2744394" lon="151.2900645">
  <ele>343.1</ele>
  <time>2026-09-01T19:53:37Z</time>
  <course>190.97</course>
  <speed>0.0</speed>
  <fix>3d</fix>
</trkpt>
<trkpt lat="-27.2744394" lon="151.2900645">
  <ele>343.09</ele>
  <time>2026-09-01T19:53:37Z</time>
  <course>44.03</course>
  <speed>0.0</speed>
  <fix>3d</fix>
</trkpt>
<trkpt lat="-27.2744394" lon="151.2900645">
  <ele>343.1</ele>
  <time>2026-09-01T19:53:37Z</time>
  <course>190.97</course>
  <speed>0.0</speed>
  <fix>3d</fix>
</trkpt>
<trkpt lat="-27.2744394" lon="151.2900645">
  <ele>343.1</ele>
  <time>2026-09-01T19:53:37Z</time>
  <course>44.07</course>
  <speed>0.0</speed>
  <fix>3d</fix>
</trkpt>
<trkpt lat="-27.2744394" lon="151.2900645">
  <ele>343.09</ele>
  <time>2026-09-01T19:53:37Z</time>
  <course>190.97</course>
  <speed>0.0</speed>
  <fix>3d</fix>
</trkpt>
<trkpt lat="-27.2744394" lon="151.2900645">
  <ele>343.1</ele>
  <time>2026-09-01T19:53:37Z</time>
  <course>44.07</course>
  <speed>0.0</speed>
  <fix>3d</fix>
</trkpt>
<trkpt lat="-27.2744394" lon="151.2900645">
  <ele>343.09</ele>
  <time>2026-09-01T19:53:37Z</time>
  <course>190.97</course>
  <speed>0.0</speed>
  <fix>3d</fix>
</trkpt>
<trkpt lat="-27.2744394" lon="151.2900645">
  <ele>343.09</ele>
  <time>2026-09-01T19:53:37Z</time>
  <course>224.0</course>
  <speed>0.0</speed>
  <fix>3d</fix>
</trkpt>
<trkpt lat="-27.2744394" lon="151.2900645">
  <ele>343.1</ele>
  <time>2026-09-01T19:53:37Z</time>
  <course>190.97</course>
  <speed>0.0</speed>
  <fix>3d</fix>
</trkpt>
<trkpt lat="-27.2744394" lon="151.2900645">
  <ele>343.09</ele>
  <time>2026-09-01T19:53:37Z</time>
  <course>224.0</course>
  <speed>0.0</speed>
  <fix>3d</fix>
</trkpt>
<trkpt lat="-27.2744394" lon="151.2900645">
  <ele>343.1</ele>
  <time>2026-09-01T19:53:37Z</time>
  <course>190.97</course>
  <speed>0.0</speed>
  <fix>3d</fix>
</trkpt>
<trkpt lat="-27.2744394" lon="151.2900645">
  <ele>343.09</ele>
  <time>2026-09-01T19:53:37Z</time>
  <course>44.91</course>
  <speed>0.0</speed>
  <fix>3d</fix>
</trkpt>
<trkpt lat="-27.2744394" lon="151.2900645">
  <ele>343.1</ele>
  <time>2026-09-01T19:53:37Z</time>
  <course>190.97</course>
  <speed>0.0</speed>
  <fix>3d</fix>
</trkpt>
<trkpt lat="-27.2744394" lon="151.2900645">
  <ele>343.09</ele>
  <time>2026-09-01T19:53:37Z</time>
  <course>44.91</course>
  <speed>0.0</speed>
  <fix>3d</fix>
</trkpt>
<trkpt lat="-27.2744394" lon="151.2900645">
  <ele>343.1</ele>
  <time>2026-09-01T19:53:37Z</time>
  <course>190.97</course>
  <speed>0.0</speed>
  <fix>3d</fix>
</trkpt>
<trkpt lat="-27.2744394" lon="151.2900645">
  <ele>343.1</ele>
  <time>2026-09-01T19:53:37Z</time>
  <course>45.49</course>
  <speed>0.0</speed>
  <fix>3d</fix>
</trkpt>
<trkpt lat="-27.2744394" lon="151.2900645">
  <ele>343.1</ele>
  <time>2026-09-01T19:53:37Z</time>
  <course>190.97</course>
  <speed>0.0</speed>
  <fix>3d</fix>
</trkpt>
<trkpt lat="-27.2744394" lon="151.2900645">
  <ele>343.1</ele>
  <time>2026-09-01T19:53:37Z</time>
  <course>45.49</course>
  <speed>0.0</speed>
  <fix>3d</fix>
</trkpt>
<trkpt lat="-27.2744394" lon="151.2900645">
  <ele>343.1</ele>
  <time>2026-09-01T19:53:37Z</time>
  <course>190.97</course>
  <speed>0.0</speed>
  <fix>3d</fix>
</trkpt>
<trkpt lat="-27.2744394" lon="151.2900645">
  <ele>343.1</ele>
  <time>2026-09-01T19:53:37Z</time>
  <course>217.6</course>
  <speed>0.0</speed>
  <fix>3d</fix>
</trkpt>
<trkpt lat="-27.2744394" lon="151.2900645">
  <ele>343.1</ele>
  <time>2026-09-01T19:53:37Z</time>
  <course>190.97</course>
  <speed>0.0</speed>
  <fix>3d</fix>
</trkpt>
<trkpt lat="-27.2744394" lon="151.2900645">
  <ele>343.1</ele>
  <time>2026-09-01T19:53:37Z</time>
  <course>217.6</course>
  <speed>0.0</speed>
  <fix>3d</fix>
</trkpt>
<trkpt lat="-27.2744394" lon="151.2900645">
  <ele>343.1</ele>
  <time>2026-09-01T19:53:37Z</time>
  <course>190.97</course>
  <speed>0.0</speed>
  <fix>3d</fix>
</trkpt>
<trkpt lat="-27.2744394" lon="151.2900645">
  <ele>343.1</ele>
  <time>2026-09-01T19:53:37Z</time>
  <course>243.98</course>
  <speed>0.0</speed>
  <fix>3d</fix>
</trkpt>
<trkpt lat="-27.2744394" lon="151.2900645">
  <ele>343.1</ele>
  <time>2026-09-01T19:53:37Z</time>
  <course>190.97</course>
  <speed>0.0</speed>
  <fix>3d</fix>
</trkpt>
<trkpt lat="-27.2744394" lon="151.2900645">
  <ele>343.1</ele>
  <time>2026-09-01T19:53:37Z</time>
  <course>243.98</course>
  <speed>0.0</speed>
  <fix>3d</fix>
</trkpt>
<trkpt lat="-27.2744394" lon="151.2900645">
  <ele>343.1</ele>
  <time>2026-09-01T19:53:37Z</time>
  <course>190.97</course>
  <speed>0.0</speed>
  <fix>3d</fix>
</trkpt>
<trkpt lat="-27.2744394" lon="151.2900645">
  <ele>343.1</ele>
  <time>2026-09-01T19:53:37Z</time>
  <course>4.23</course>
  <speed>0.0</speed>
  <fix>3d</fix>
</trkpt>
<trkpt lat="-27.2744394" lon="151.2900645">
  <ele>343.1</ele>
  <time>2026-09-01T19:53:37Z</time>
  <course>190.97</course>
  <speed>0.0</speed>
  <fix>3d</fix>
</trkpt>
<trkpt lat="-27.2744394" lon="151.2900645">
  <ele>343.1</ele>
  <time>2026-09-01T19:53:37Z</time>
  <course>4.23</course>
  <speed>0.0</speed>
  <fix>3d</fix>
</trkpt>
<trkpt lat="-27.2744394" lon="151.2900645">
  <ele>343.1</ele>
  <time>2026-09-01T19:53:37Z</time>
  <course>190.97</course>
  <speed>0.0</speed>
  <fix>3d</fix>
</trkpt>
<trkpt lat="-27.2744394" lon="151.2900645">
  <ele>343.1</ele>
  <time>2026-09-01T19:53:37Z</time>
  <course>99.34</course>
  <speed>0.0</speed>
  <fix>3d</fix>
</trkpt>
<trkpt lat="-27.2744394" lon="151.2900645">
  <ele>343.1</ele>
  <time>2026-09-01T19:53:37Z</time>
  <course>190.97</course>
  <speed>0.0</speed>
  <fix>3d</fix>
</trkpt>
<trkpt lat="-27.2744394" lon="151.2900645">
  <ele>343.1</ele>
  <time>2026-09-01T19:53:37Z</time>
  <course>99.34</course>
  <speed>0.0</speed>
  <fix>3d</fix>
</trkpt>
<trkpt lat="-27.2744394" lon="151.2900645">
  <ele>343.1</ele>
  <time>2026-09-01T19:53:37Z</time>
  <course>190.97</course>
  <speed>0.0</speed>
  <fix>3d</fix>
</trkpt>
<trkpt lat="-27.2744394" lon="151.2900645">
  <ele>343.1</ele>
  <time>2026-09-01T19:53:37Z</time>
  <course>156.98</course>
  <speed>0.0</speed>
  <fix>3d</fix>
</trkpt>
<trkpt lat="-27.2744394" lon="151.2900645">
  <ele>343.1</ele>
  <time>2026-09-01T19:53:37Z</time>
  <course>190.97</course>
  <speed>0.0</speed>
  <fix>3d</fix>
</trkpt>
<trkpt lat="-27.2744394" lon="151.2900645">
  <ele>343.1</ele>
  <time>2026-09-01T19:53:37Z</time>
  <course>156.98</course>
  <speed>0.0</speed>
  <fix>3d</fix>
</trkpt>
<trkpt lat="-27.2744394" lon="151.2900645">
  <ele>343.1</ele>
  <time>2026-09-01T19:53:37Z</time>
  <course>190.97</course>
  <speed>0.0</speed>
  <fix>3d</fix>
</trkpt>
<trkpt lat="-27.2744394" lon="151.2900645">
  <ele>343.1</ele>
  <time>2026-09-01T19:53:37Z</time>
  <course>144.81</course>
  <speed>0.0</speed>
  <fix>3d</fix>
</trkpt>
<trkpt lat="-27.2744394" lon="151.2900645">
  <ele>343.1</ele>
  <time>2026-09-01T19:53:37Z</time>
  <course>190.97</course>
  <speed>0.0</speed>
  <fix>3d</fix>
</trkpt>
<trkpt lat="-27.2744394" lon="151.2900645">
  <ele>343.1</ele>
  <time>2026-09-01T19:53:37Z</time>
  <course>144.81</course>
  <speed>0.0</speed>
  <fix>3d</fix>
</trkpt>
<trkpt lat="-27.2744394" lon="151.2900645">
  <ele>343.1</ele>
  <time>2026-09-01T19:53:37Z</time>
  <course>190.97</course>
  <speed>0.0</speed>
  <fix>3d</fix>
</trkpt>
<trkpt lat="-27.2744394" lon="151.2900645">
  <ele>343.1</ele>
  <time>2026-09-01T19:53:37Z</time>
  <course>325.78</course>
  <speed>0.0</speed>
  <fix>3d</fix>
</trkpt>
<trkpt lat="-27.2744394" lon="151.2900645">
  <ele>343.1</ele>
  <time>2026-09-01T19:53:37Z</time>
  <course>190.97</course>
  <speed>0.0</speed>
  <fix>3d</fix>
</trkpt>
<trkpt lat="-27.2744394" lon="151.2900645">
  <ele>343.1</ele>
  <time>2026-09-01T19:53:37Z</time>
  <course>325.78</course>
  <speed>0.0</speed>
  <fix>3d</fix>
</trkpt>
<trkpt lat="-27.2744394" lon="151.2900645">
  <ele>343.1</ele>
  <time>2026-09-01T19:53:37Z</time>
  <course>190.97</course>
  <speed>0.0</speed>
  <fix>3d</fix>
</trkpt>
<trkpt lat="-27.2744394" lon="151.2900645">
  <ele>343.1</ele>
  <time>2026-09-01T19:53:37Z</time>
  <course>322.99</course>
  <speed>0.0</speed>
  <fix>3d</fix>
</trkpt>
<trkpt lat="-27.2744394" lon="151.2900645">
  <ele>343.1</ele>
  <time>2026-09-01T19:53:37Z</time>
  <course>190.97</course>
  <speed>0.0</speed>
  <fix>3d</fix>
</trkpt>
<trkpt lat="-27.2744394" lon="151.2900645">
  <ele>343.1</ele>
  <time>2026-09-01T19:53:37Z</time>
  <course>322.99</course>
  <speed>0.0</speed>
  <fix>3d</fix>
</trkpt>
<trkpt lat="-27.2744394" lon="151.2900645">
  <ele>343.1</ele>
  <time>2026-09-01T19:53:37Z</time>
  <course>190.97</course>
  <speed>0.0</speed>
  <fix>3d</fix>
</trkpt>
<trkpt lat="-27.2744394" lon="151.2900645">
  <ele>343.1</ele>
  <time>2026-09-01T19:53:37Z</time>
  <course>146.47</course>
  <speed>0.0</speed>
  <fix>3d</fix>
</trkpt>
<trkpt lat="-27.2744394" lon="151.2900645">
  <ele>343.1</ele>
  <time>2026-09-01T19:53:37Z</time>
  <course>190.97</course>
  <speed>0.0</speed>
  <fix>3d</fix>
</trkpt>
<trkpt lat="-27.2744394" lon="151.2900645">
  <ele>343.1</ele>
  <time>2026-09-01T19:53:37Z</time>
  <course>146.47</course>
  <speed>0.0</speed>
  <fix>3d</fix>
</trkpt>
<trkpt lat="-27.2744394" lon="151.2900645">
  <ele>343.1</ele>
  <time>2026-09-01T19:53:37Z</time>
  <course>190.97</course>
  <speed>0.0</speed>
  <fix>3d</fix>
</trkpt>
<trkpt lat="-27.2744394" lon="151.2900645">
  <ele>343.1</ele>
  <time>2026-09-01T19:53:37Z</time>
  <course>144.93</course>
  <speed>0.0</speed>
  <fix>3d</fix>
</trkpt>
<trkpt lat="-27.2744394" lon="151.2900645">
  <ele>343.1</ele>
  <time>2026-09-01T19:53:37Z</time>
  <course>190.97</course>
  <speed>0.0</speed>
  <fix>3d</fix>
</trkpt>
<trkpt lat="-27.2744394" lon="151.2900645">
  <ele>343.1</ele>
  <time>2026-09-01T19:53:37Z</time>
  <course>144.93</course>
  <speed>0.0</speed>
  <fix>3d</fix>
</trkpt>
<trkpt lat="-27.2744394" lon="151.2900645">
  <ele>343.1</ele>
  <time>2026-09-01T19:53:37Z</time>
  <course>190.97</course>
  <speed>0.0</speed>
  <fix>3d</fix>
</trkpt>
<trkpt lat="-27.2744394" lon="151.2900645">
  <ele>343.1</ele>
  <time>2026-09-01T19:53:37Z</time>
  <course>145.51</course>
  <speed>0.0</speed>
  <fix>3d</fix>
</trkpt>
<trkpt lat="-27.2744394" lon="151.2900645">
  <ele>343.1</ele>
  <time>2026-09-01T19:53:37Z</time>
  <course>190.97</course>
  <speed>0.0</speed>
  <fix>3d</fix>
</trkpt>
<trkpt lat="-27.2744394" lon="151.2900645">
  <ele>343.1</ele>
  <time>2026-09-01T19:53:37Z</time>
  <course>145.51</course>
  <speed>0.0</speed>
  <fix>3d</fix>
</trkpt>
<trkpt lat="-27.2744394" lon="151.2900645">
  <ele>343.1</ele>
  <time>2026-09-01T19:53:37Z</time>
  <course>190.97</course>
  <speed>0.0</speed>
  <fix>3d</fix>
</trkpt>
<trkpt lat="-27.2744394" lon="151.2900645">
  <ele>343.1</ele>
  <time>2026-09-01T19:53:37Z</time>
  <course>157.54</course>
  <speed>0.0</speed>
  <fix>3d</fix>
</trkpt>
<trkpt lat="-27.2744394" lon="151.2900645">
  <ele>343.1</ele>
  <time>2026-09-01T19:53:37Z</time>
  <course>190.97</course>
  <speed>0.0</speed>
  <fix>3d</fix>
</trkpt>
<trkpt lat="-27.2744394" lon="151.2900645">
  <ele>343.1</ele>
  <time>2026-09-01T19:53:37Z</time>
  <course>157.54</course>
  <speed>0.0</speed>
  <fix>3d</fix>
</trkpt>
<trkpt lat="-27.2744394" lon="151.2900645">
  <ele>343.1</ele>
  <time>2026-09-01T19:53:37Z</time>
  <course>190.97</course>
  <speed>0.0</speed>
  <fix>3d</fix>
</trkpt>
<trkpt lat="-27.2744394" lon="151.2900645">
  <ele>343.1</ele>
  <time>2026-09-01T19:53:37Z</time>
  <course>324.7</course>
  <speed>0.0</speed>
  <fix>3d</fix>
</trkpt>
<trkpt lat="-27.2744394" lon="151.2900645">
  <ele>343.1</ele>
  <time>2026-09-01T19:53:37Z</time>
  <course>190.97</course>
  <speed>0.0</speed>
  <fix>3d</fix>
</trkpt>
<trkpt lat="-27.2744394" lon="151.2900645">
  <ele>343.1</ele>
  <time>2026-09-01T19:53:37Z</time>
  <course>324.7</course>
  <speed>0.0</speed>
  <fix>3d</fix>
</trkpt>
<trkpt lat="-27.2744394" lon="151.2900645">
  <ele>343.1</ele>
  <time>2026-09-01T19:53:37Z</time>
  <course>190.97</course>
  <speed>0.0</speed>
  <fix>3d</fix>
</trkpt>
<trkpt lat="-27.2744394" lon="151.2900645">
  <ele>343.1</ele>
  <time>2026-09-01T19:53:37Z</time>
  <course>324.94</course>
  <speed>0.0</speed>
  <fix>3d</fix>
</trkpt>
<trkpt lat="-27.2744394" lon="151.2900645">
  <ele>343.1</ele>
  <time>2026-09-01T19:53:37Z</time>
  <course>190.97</course>
  <speed>0.0</speed>
  <fix>3d</fix>
</trkpt>
<trkpt lat="-27.2744394" lon="151.2900645">
  <ele>343.1</ele>
  <time>2026-09-01T19:53:37Z</time>
  <course>324.94</course>
  <speed>0.0</speed>
  <fix>3d</fix>
</trkpt>
<trkpt lat="-27.2744394" lon="151.2900645">
  <ele>343.1</ele>
  <time>2026-09-01T19:53:37Z</time>
  <course>190.97</course>
  <speed>0.0</speed>
  <fix>3d</fix>
</trkpt>
<trkpt lat="-27.2744394" lon="151.2900645">
  <ele>343.1</ele>
  <time>2026-09-01T19:53:37Z</time>
  <course>126.41</course>
  <speed>0.0</speed>
  <fix>3d</fix>
</trkpt>
<trkpt lat="-27.2744394" lon="151.2900645">
  <ele>343.1</ele>
  <time>2026-09-01T19:53:37Z</time>
  <course>190.97</course>
  <speed>0.0</speed>
  <fix>3d</fix>
</trkpt>
<trkpt lat="-27.2744394" lon="151.2900645">
  <ele>343.1</ele>
  <time>2026-09-01T19:53:37Z</time>
  <course>126.41</course>
  <speed>0.0</speed>
  <fix>3d</fix>
</trkpt>
<trkpt lat="-27.2744394" lon="151.2900645">
  <ele>343.1</ele>
  <time>2026-09-01T19:53:37Z</time>
  <course>190.97</course>
  <speed>0.0</speed>
  <fix>3d</fix>
</trkpt>
<trkpt lat="-27.2744394" lon="151.2900645">
  <ele>343.1</ele>
  <time>2026-09-01T19:53:37Z</time>
  <course>324.83</course>
  <speed>0.0</speed>
  <fix>3d</fix>
</trkpt>
<trkpt lat="-27.2744394" lon="151.2900645">
  <ele>343.1</ele>
  <time>2026-09-01T19:53:37Z</time>
  <course>190.97</course>
  <speed>0.0</speed>
  <fix>3d</fix>
</trkpt>
<trkpt lat="-27.2744394" lon="151.2900645">
  <ele>343.1</ele>
  <time>2026-09-01T19:53:37Z</time>
  <course>324.83</course>
  <speed>0.0</speed>
  <fix>3d</fix>
</trkpt>
<trkpt lat="-27.2744394" lon="151.2900645">
  <ele>343.1</ele>
  <time>2026-09-01T19:53:37Z</time>
  <course>190.97</course>
  <speed>0.0</speed>
  <fix>3d</fix>
</trkpt>
<trkpt lat="-27.2744394" lon="151.2900645">
  <ele>343.1</ele>
  <time>2026-09-01T19:53:37Z</time>
  <course>324.79</course>
  <speed>0.0</speed>
  <fix>3d</fix>
</trkpt>
<trkpt lat="-27.2744394" lon="151.2900645">
  <ele>343.1</ele>
  <time>2026-09-01T19:53:37Z</time>
  <course>190.97</course>
  <speed>0.0</speed>
  <fix>3d</fix>
</trkpt>
<trkpt lat="-27.2744394" lon="151.2900645">
  <ele>343.1</ele>
  <time>2026-09-01T19:53:37Z</time>
  <course>324.79</course>
  <speed>0.0</speed>
  <fix>3d</fix>
</trkpt>
<trkpt lat="-27.2744394" lon="151.2900645">
  <ele>343.1</ele>
  <time>2026-09-01T19:53:37Z</time>
  <course>190.97</course>
  <speed>0.0</speed>
  <fix>3d</fix>
</trkpt>
<trkpt lat="-27.2744394" lon="151.2900645">
  <ele>343.1</ele>
  <time>2026-09-01T19:53:37Z</time>
  <course>145.18</course>
  <speed>0.0</speed>
  <fix>3d</fix>
</trkpt>
<trkpt lat="-27.2744394" lon="151.2900645">
  <ele>343.1</ele>
  <time>2026-09-01T19:53:37Z</time>
  <course>190.97</course>
  <speed>0.0</speed>
  <fix>3d</fix>
</trkpt>
<trkpt lat="-27.2744394" lon="151.2900645">
  <ele>343.1</ele>
  <time>2026-09-01T19:53:37Z</time>
  <course>145.18</course>
  <speed>0.0</speed>
  <fix>3d</fix>
</trkpt>
<trkpt lat="-27.2744394" lon="151.2900645">
  <ele>343.1</ele>
  <time>2026-09-01T19:53:37Z</time>
  <course>190.97</course>
  <speed>0.0</speed>
  <fix>3d</fix>
</trkpt>
<trkpt lat="-27.2744394" lon="151.2900645">
  <ele>343.1</ele>
  <time>2026-09-01T19:53:37Z</time>
  <course>144.17</course>
  <speed>0.0</speed>
  <fix>3d</fix>
</trkpt>
<trkpt lat="-27.2744394" lon="151.2900645">
  <ele>343.1</ele>
  <time>2026-09-01T19:53:37Z</time>
  <course>190.97</course>
  <speed>0.0</speed>
  <fix>3d</fix>
</trkpt>
<trkpt lat="-27.2744394" lon="151.2900645">
  <ele>343.1</ele>
  <time>2026-09-01T19:53:37Z</time>
  <course>144.17</course>
  <speed>0.0</speed>
  <fix>3d</fix>
</trkpt>
<trkpt lat="-27.2744394" lon="151.2900645">
  <ele>343.1</ele>
  <time>2026-09-01T19:53:37Z</time>
  <course>190.97</course>
  <speed>0.0</speed>
  <fix>3d</fix>
</trkpt>
<trkpt lat="-27.2744394" lon="151.2900645">
  <ele>343.1</ele>
  <time>2026-09-01T19:53:37Z</time>
  <course>324.95</course>
  <speed>0.0</speed>
  <fix>3d</fix>
</trkpt>
<trkpt lat="-27.2744394" lon="151.2900645">
  <ele>343.1</ele>
  <time>2026-09-01T19:53:37Z</time>
  <course>190.97</course>
  <speed>0.0</speed>
  <fix>3d</fix>
</trkpt>
<trkpt lat="-27.2744394" lon="151.2900645">
  <ele>343.1</ele>
  <time>2026-09-01T19:53:37Z</time>
  <course>324.95</course>
  <speed>0.0</speed>
  <fix>3d</fix>
</trkpt>
<trkpt lat="-27.2744394" lon="151.2900645">
  <ele>343.1</ele>
  <time>2026-09-01T19:53:37Z</time>
  <course>190.97</course>
  <speed>0.0</speed>
  <fix>3d</fix>
</trkpt>
<trkpt lat="-27.2744394" lon="151.2900645">
  <ele>343.1</ele>
  <time>2026-09-01T19:53:37Z</time>
  <course>324.1</course>
  <speed>0.0</speed>
  <fix>3d</fix>
</trkpt>
<trkpt lat="-27.2744394" lon="151.2900645">
  <ele>343.1</ele>
  <time>2026-09-01T19:53:37Z</time>
  <course>190.97</course>
  <speed>0.0</speed>
  <fix>3d</fix>
</trkpt>
<trkpt lat="-27.2744394" lon="151.2900645">
  <ele>343.1</ele>
  <time>2026-09-01T19:53:37Z</time>
  <course>324.1</course>
  <speed>0.0</speed>
  <fix>3d</fix>
</trkpt>
<trkpt lat="-27.2744394" lon="151.2900645">
  <ele>343.1</ele>
  <time>2026-09-01T19:53:37Z</time>
  <course>190.97</course>
  <speed>0.0</speed>
  <fix>3d</fix>
</trkpt>
<trkpt lat="-27.2744394" lon="151.2900645">
  <ele>343.1</ele>
  <time>2026-09-01T19:53:37Z</time>
  <course>144.85</course>
  <speed>0.0</speed>
  <fix>3d</fix>
</trkpt>
<trkpt lat="-27.2744394" lon="151.2900645">
  <ele>343.1</ele>
  <time>2026-09-01T19:53:37Z</time>
  <course>190.97</course>
  <speed>0.0</speed>
  <fix>3d</fix>
</trkpt>
<trkpt lat="-27.2744394" lon="151.2900645">
  <ele>343.1</ele>
  <time>2026-09-01T19:53:37Z</time>
  <course>144.85</course>
  <speed>0.0</speed>
  <fix>3d</fix>
</trkpt>
<trkpt lat="-27.2744394" lon="151.2900645">
  <ele>343.1</ele>
  <time>2026-09-01T19:53:37Z</time>
  <course>190.97</course>
  <speed>0.0</speed>
  <fix>3d</fix>
</trkpt>
<trkpt lat="-27.2744394" lon="151.2900645">
  <ele>343.1</ele>
  <time>2026-09-01T19:53:37Z</time>
  <course>144.44</course>
  <speed>0.0</speed>
  <fix>3d</fix>
</trkpt>
<trkpt lat="-27.2744394" lon="151.2900645">
  <ele>343.1</ele>
  <time>2026-09-01T19:53:37Z</time>
  <course>190.97</course>
  <speed>0.0</speed>
  <fix>3d</fix>
</trkpt>
<trkpt lat="-27.2744394" lon="151.2900645">
  <ele>343.1</ele>
  <time>2026-09-01T19:53:37Z</time>
  <course>144.44</course>
  <speed>0.0</speed>
  <fix>3d</fix>
</trkpt>
<trkpt lat="-27.2744394" lon="151.2900645">
  <ele>343.1</ele>
  <time>2026-09-01T19:53:37Z</time>
  <course>190.97</course>
  <speed>0.0</speed>
  <fix>3d</fix>
</trkpt>
<trkpt lat="-27.2744394" lon="151.2900645">
  <ele>343.1</ele>
  <time>2026-09-01T19:53:37Z</time>
  <course>145.23</course>
  <speed>0.0</speed>
  <fix>3d</fix>
</trkpt>
<trkpt lat="-27.2744394" lon="151.2900645">
  <ele>343.1</ele>
  <time>2026-09-01T19:53:37Z</time>
  <course>190.97</course>
  <speed>0.0</speed>
  <fix>3d</fix>
</trkpt>
<trkpt lat="-27.2744394" lon="151.2900645">
  <ele>343.1</ele>
  <time>2026-09-01T19:53:37Z</time>
  <course>145.23</course>
  <speed>0.0</speed>
  <fix>3d</fix>
</trkpt>
<trkpt lat="-27.2744394" lon="151.2900645">
  <ele>343.1</ele>
  <time>2026-09-01T19:53:37Z</time>
  <course>190.97</course>
  <speed>0.0</speed>
  <fix>3d</fix>
</trkpt>
<trkpt lat="-27.2744394" lon="151.2900645">
  <ele>343.1</ele>
  <time>2026-09-01T19:53:37Z</time>
  <course>322.3</course>
  <speed>0.0</speed>
  <fix>3d</fix>
</trkpt>
<trkpt lat="-27.2744394" lon="151.2900645">
  <ele>343.1</ele>
  <time>2026-09-01T19:53:37Z</time>
  <course>190.97</course>
  <speed>0.0</speed>
  <fix>3d</fix>
</trkpt>
<trkpt lat="-27.2744394" lon="151.2900645">
  <ele>343.1</ele>
  <time>2026-09-01T19:53:37Z</time>
  <course>322.3</course>
  <speed>0.0</speed>
  <fix>3d</fix>
</trkpt>
<trkpt lat="-27.2744394" lon="151.2900645">
  <ele>343.1</ele>
  <time>2026-09-01T19:53:37Z</time>
  <course>190.97</course>
  <speed>0.0</speed>
  <fix>3d</fix>
</trkpt>
<trkpt lat="-27.2744394" lon="151.2900645">
  <ele>343.1</ele>
  <time>2026-09-01T19:53:37Z</time>
  <course>306.89</course>
  <speed>0.0</speed>
  <fix>3d</fix>
</trkpt>
<trkpt lat="-27.2744394" lon="151.2900645">
  <ele>343.1</ele>
  <time>2026-09-01T19:53:37Z</time>
  <course>190.97</course>
  <speed>0.0</speed>
  <fix>3d</fix>
</trkpt>
<trkpt lat="-27.2744394" lon="151.2900645">
  <ele>343.1</ele>
  <time>2026-09-01T19:53:37Z</time>
  <course>306.89</course>
  <speed>0.0</speed>
  <fix>3d</fix>
</trkpt>
<trkpt lat="-27.2744394" lon="151.2900645">
  <ele>343.1</ele>
  <time>2026-09-01T19:53:37Z</time>
  <course>190.97</course>
  <speed>0.0</speed>
  <fix>3d</fix>
</trkpt>
<trkpt lat="-27.2744394" lon="151.2900645">
  <ele>343.1</ele>
  <time>2026-09-01T19:53:37Z</time>
  <course>145.56</course>
  <speed>0.0</speed>
  <fix>3d</fix>
</trkpt>
<trkpt lat="-27.2744394" lon="151.2900645">
  <ele>343.1</ele>
  <time>2026-09-01T19:53:37Z</time>
  <course>190.97</course>
  <speed>0.0</speed>
  <fix>3d</fix>
</trkpt>
<trkpt lat="-27.2744394" lon="151.2900645">
  <ele>343.1</ele>
  <time>2026-09-01T19:53:37Z</time>
  <course>145.56</course>
  <speed>0.0</speed>
  <fix>3d</fix>
</trkpt>
<trkpt lat="-27.2744394" lon="151.2900645">
  <ele>343.1</ele>
  <time>2026-09-01T19:53:37Z</time>
  <course>190.97</course>
  <speed>0.0</speed>
  <fix>3d</fix>
</trkpt>
<trkpt lat="-27.2744394" lon="151.2900645">
  <ele>343.1</ele>
  <time>2026-09-01T19:53:37Z</time>
  <course>340.12</course>
  <speed>0.0</speed>
  <fix>3d</fix>
</trkpt>
<trkpt lat="-27.2744394" lon="151.2900645">
  <ele>343.1</ele>
  <time>2026-09-01T19:53:37Z</time>
  <course>190.97</course>
  <speed>0.0</speed>
  <fix>3d</fix>
</trkpt>
<trkpt lat="-27.2744394" lon="151.2900645">
  <ele>343.1</ele>
  <time>2026-09-01T19:53:38Z</time>
  <course>340.12</course>
  <speed>0.0</speed>
  <fix>3d</fix>
</trkpt>
<trkpt lat="-27.2744394" lon="151.2900645">
  <ele>343.1</ele>
  <time>2026-09-01T19:53:38Z</time>
  <course>190.97</course>
  <speed>0.0</speed>
  <fix>3d</fix>
</trkpt>
<trkpt lat="-27.2744394" lon="151.2900645">
  <ele>343.1</ele>
  <time>2026-09-01T19:53:38Z</time>
  <course>324.57</course>
  <speed>0.0</speed>
  <fix>3d</fix>
</trkpt>
<trkpt lat="-27.2744394" lon="151.2900645">
  <ele>343.1</ele>
  <time>2026-09-01T19:53:38Z</time>
  <course>190.97</course>
  <speed>0.0</speed>
  <fix>3d</fix>
</trkpt>
<trkpt lat="-27.2744394" lon="151.2900645">
  <ele>343.1</ele>
  <time>2026-09-01T19:53:38Z</time>
  <course>324.57</course>
  <speed>0.0</speed>
  <fix>3d</fix>
</trkpt>
<trkpt lat="-27.2744394" lon="151.2900645">
  <ele>343.1</ele>
  <time>2026-09-01T19:53:38Z</time>
  <course>190.97</course>
  <speed>0.0</speed>
  <fix>3d</fix>
</trkpt>
<trkpt lat="-27.2744394" lon="151.2900645">
  <ele>343.1</ele>
  <time>2026-09-01T19:53:38Z</time>
  <course>150.6</course>
  <speed>0.0</speed>
  <fix>3d</fix>
</trkpt>
<trkpt lat="-27.2744394" lon="151.2900645">
  <ele>343.1</ele>
  <time>2026-09-01T19:53:38Z</time>
  <course>190.97</course>
  <speed>0.0</speed>
  <fix>3d</fix>
</trkpt>
<trkpt lat="-27.2744394" lon="151.2900645">
  <ele>343.1</ele>
  <time>2026-09-01T19:53:38Z</time>
  <course>150.6</course>
  <speed>0.0</speed>
  <fix>3d</fix>
</trkpt>
<trkpt lat="-27.2744394" lon="151.2900645">
  <ele>343.1</ele>
  <time>2026-09-01T19:53:38Z</time>
  <course>190.97</course>
  <speed>0.0</speed>
  <fix>3d</fix>
</trkpt>
<trkpt lat="-27.2744394" lon="151.2900645">
  <ele>343.1</ele>
  <time>2026-09-01T19:53:38Z</time>
  <course>143.34</course>
  <speed>0.0</speed>
  <fix>3d</fix>
</trkpt>
<trkpt lat="-27.2744394" lon="151.2900645">
  <ele>343.1</ele>
  <time>2026-09-01T19:53:38Z</time>
  <course>190.97</course>
  <speed>0.0</speed>
  <fix>3d</fix>
</trkpt>
<trkpt lat="-27.2744394" lon="151.2900645">
  <ele>343.1</ele>
  <time>2026-09-01T19:53:38Z</time>
  <course>143.34</course>
  <speed>0.0</speed>
  <fix>3d</fix>
</trkpt>
<trkpt lat="-27.2744394" lon="151.2900645">
  <ele>343.1</ele>
  <time>2026-09-01T19:53:38Z</time>
  <course>190.97</course>
  <speed>0.0</speed>
  <fix>3d</fix>
</trkpt>
<trkpt lat="-27.2744394" lon="151.2900645">
  <ele>343.1</ele>
  <time>2026-09-01T19:53:38Z</time>
  <course>328.14</course>
  <speed>0.0</speed>
  <fix>3d</fix>
</trkpt>
<trkpt lat="-27.2744394" lon="151.2900645">
  <ele>343.1</ele>
  <time>2026-09-01T19:53:38Z</time>
  <course>190.97</course>
  <speed>0.0</speed>
  <fix>3d</fix>
</trkpt>
<trkpt lat="-27.2744394" lon="151.2900645">
  <ele>343.1</ele>
  <time>2026-09-01T19:53:38Z</time>
  <course>328.14</course>
  <speed>0.0</speed>
  <fix>3d</fix>
</trkpt>
<trkpt lat="-27.2744394" lon="151.2900645">
  <ele>343.1</ele>
  <time>2026-09-01T19:53:38Z</time>
  <course>190.97</course>
  <speed>0.0</speed>
  <fix>3d</fix>
</trkpt>
<trkpt lat="-27.2744394" lon="151.2900645">
  <ele>343.1</ele>
  <time>2026-09-01T19:53:38Z</time>
  <course>321.18</course>
  <speed>0.0</speed>
  <fix>3d</fix>
</trkpt>
<trkpt lat="-27.2744394" lon="151.2900645">
  <ele>343.1</ele>
  <time>2026-09-01T19:53:38Z</time>
  <course>190.97</course>
  <speed>0.0</speed>
  <fix>3d</fix>
</trkpt>
<trkpt lat="-27.2744394" lon="151.2900645">
  <ele>343.1</ele>
  <time>2026-09-01T19:53:38Z</time>
  <course>321.18</course>
  <speed>0.0</speed>
  <fix>3d</fix>
</trkpt>
<trkpt lat="-27.2744394" lon="151.2900645">
  <ele>343.1</ele>
  <time>2026-09-01T19:53:38Z</time>
  <course>190.97</course>
  <speed>0.0</speed>
  <fix>3d</fix>
</trkpt>
<trkpt lat="-27.2744394" lon="151.2900645">
  <ele>343.1</ele>
  <time>2026-09-01T19:53:38Z</time>
  <course>146.82</course>
  <speed>0.0</speed>
  <fix>3d</fix>
</trkpt>
<trkpt lat="-27.2744394" lon="151.2900645">
  <ele>343.1</ele>
  <time>2026-09-01T19:53:38Z</time>
  <course>190.97</course>
  <speed>0.0</speed>
  <fix>3d</fix>
</trkpt>
<trkpt lat="-27.2744394" lon="151.2900645">
  <ele>343.1</ele>
  <time>2026-09-01T19:53:38Z</time>
  <course>146.82</course>
  <speed>0.0</speed>
  <fix>3d</fix>
</trkpt>
<trkpt lat="-27.2744394" lon="151.2900645">
  <ele>343.1</ele>
  <time>2026-09-01T19:53:38Z</time>
  <course>190.97</course>
  <speed>0.0</speed>
  <fix>3d</fix>
</trkpt>
<trkpt lat="-27.2744394" lon="151.2900645">
  <ele>343.1</ele>
  <time>2026-09-01T19:53:38Z</time>
  <course>134.28</course>
  <speed>0.0</speed>
  <fix>3d</fix>
</trkpt>
<trkpt lat="-27.2744394" lon="151.2900645">
  <ele>343.1</ele>
  <time>2026-09-01T19:53:38Z</time>
  <course>190.97</course>
  <speed>0.0</speed>
  <fix>3d</fix>
</trkpt>
<trkpt lat="-27.2744394" lon="151.2900645">
  <ele>343.1</ele>
  <time>2026-09-01T19:53:38Z</time>
  <course>134.28</course>
  <speed>0.0</speed>
  <fix>3d</fix>
</trkpt>
<trkpt lat="-27.2744394" lon="151.2900645">
  <ele>343.1</ele>
  <time>2026-09-01T19:53:38Z</time>
  <course>190.97</course>
  <speed>0.0</speed>
  <fix>3d</fix>
</trkpt>
<trkpt lat="-27.2744394" lon="151.2900645">
  <ele>343.1</ele>
  <time>2026-09-01T19:53:38Z</time>
  <course>325.83</course>
  <speed>0.0</speed>
  <fix>3d</fix>
</trkpt>
<trkpt lat="-27.2744394" lon="151.2900645">
  <ele>343.1</ele>
  <time>2026-09-01T19:53:38Z</time>
  <course>190.97</course>
  <speed>0.0</speed>
  <fix>3d</fix>
</trkpt>
<trkpt lat="-27.2744394" lon="151.2900645">
  <ele>343.1</ele>
  <time>2026-09-01T19:53:38Z</time>
  <course>325.83</course>
  <speed>0.0</speed>
  <fix>3d</fix>
</trkpt>
<trkpt lat="-27.2744394" lon="151.2900645">
  <ele>343.1</ele>
  <time>2026-09-01T19:53:38Z</time>
  <course>190.97</course>
  <speed>0.0</speed>
  <fix>3d</fix>
</trkpt>
<trkpt lat="-27.2744394" lon="151.2900645">
  <ele>343.1</ele>
  <time>2026-09-01T19:53:38Z</time>
  <course>175.83</course>
  <speed>0.0</speed>
  <fix>3d</fix>
</trkpt>
<trkpt lat="-27.2744394" lon="151.2900645">
  <ele>343.1</ele>
  <time>2026-09-01T19:53:38Z</time>
  <course>190.97</course>
  <speed>0.0</speed>
  <fix>3d</fix>
</trkpt>
<trkpt lat="-27.2744394" lon="151.2900645">
  <ele>343.1</ele>
  <time>2026-09-01T19:53:38Z</time>
  <course>175.83</course>
  <speed>0.0</speed>
  <fix>3d</fix>
</trkpt>
<trkpt lat="-27.2744394" lon="151.2900645">
  <ele>343.1</ele>
  <time>2026-09-01T19:53:38Z</time>
  <course>190.97</course>
  <speed>0.0</speed>
  <fix>3d</fix>
</trkpt>
<trkpt lat="-27.2744394" lon="151.2900645">
  <ele>343.1</ele>
  <time>2026-09-01T19:53:38Z</time>
  <course>144.9</course>
  <speed>0.0</speed>
  <fix>3d</fix>
</trkpt>
<trkpt lat="-27.2744394" lon="151.2900645">
  <ele>343.1</ele>
  <time>2026-09-01T19:53:38Z</time>
  <course>190.97</course>
  <speed>0.0</speed>
  <fix>3d</fix>
</trkpt>
<trkpt lat="-27.2744394" lon="151.2900645">
  <ele>343.1</ele>
  <time>2026-09-01T19:53:38Z</time>
  <course>144.9</course>
  <speed>0.0</speed>
  <fix>3d</fix>
</trkpt>
<trkpt lat="-27.2744394" lon="151.2900645">
  <ele>343.1</ele>
  <time>2026-09-01T19:53:38Z</time>
  <course>190.97</course>
  <speed>0.0</speed>
  <fix>3d</fix>
</trkpt>
<trkpt lat="-27.2744394" lon="151.2900645">
  <ele>343.1</ele>
  <time>2026-09-01T19:53:38Z</time>
  <course>331.96</course>
  <speed>0.0</speed>
  <fix>3d</fix>
</trkpt>
<trkpt lat="-27.2744394" lon="151.2900645">
  <ele>343.1</ele>
  <time>2026-09-01T19:53:38Z</time>
  <course>190.97</course>
  <speed>0.0</speed>
  <fix>3d</fix>
</trkpt>
<trkpt lat="-27.2744394" lon="151.2900645">
  <ele>343.1</ele>
  <time>2026-09-01T19:53:38Z</time>
  <course>331.96</course>
  <speed>0.0</speed>
  <fix>3d</fix>
</trkpt>
<trkpt lat="-27.2744394" lon="151.2900645">
  <ele>343.1</ele>
  <time>2026-09-01T19:53:38Z</time>
  <course>190.97</course>
  <speed>0.0</speed>
  <fix>3d</fix>
</trkpt>
<trkpt lat="-27.2744394" lon="151.2900645">
  <ele>343.1</ele>
  <time>2026-09-01T19:53:38Z</time>
  <course>323.76</course>
  <speed>0.0</speed>
  <fix>3d</fix>
</trkpt>
<trkpt lat="-27.2744394" lon="151.2900645">
  <ele>343.1</ele>
  <time>2026-09-01T19:53:38Z</time>
  <course>190.97</course>
  <speed>0.0</speed>
  <fix>3d</fix>
</trkpt>
<trkpt lat="-27.2744394" lon="151.2900645">
  <ele>343.1</ele>
  <time>2026-09-01T19:53:38Z</time>
  <course>323.76</course>
  <speed>0.0</speed>
  <fix>3d</fix>
</trkpt>
<trkpt lat="-27.2744394" lon="151.2900645">
  <ele>343.1</ele>
  <time>2026-09-01T19:53:38Z</time>
  <course>190.97</course>
  <speed>0.0</speed>
  <fix>3d</fix>
</trkpt>
<trkpt lat="-27.2744394" lon="151.2900645">
  <ele>343.1</ele>
  <time>2026-09-01T19:53:38Z</time>
  <course>148.68</course>
  <speed>0.0</speed>
  <fix>3d</fix>
</trkpt>
<trkpt lat="-27.2744394" lon="151.2900645">
  <ele>343.1</ele>
  <time>2026-09-01T19:53:38Z</time>
  <course>190.97</course>
  <speed>0.0</speed>
  <fix>3d</fix>
</trkpt>
<trkpt lat="-27.2744394" lon="151.2900645">
  <ele>343.1</ele>
  <time>2026-09-01T19:53:38Z</time>
  <course>148.68</course>
  <speed>0.0</speed>
  <fix>3d</fix>
</trkpt>
<trkpt lat="-27.2744394" lon="151.2900645">
  <ele>343.1</ele>
  <time>2026-09-01T19:53:38Z</time>
  <course>190.97</course>
  <speed>0.0</speed>
  <fix>3d</fix>
</trkpt>
<trkpt lat="-27.2744394" lon="151.2900645">
  <ele>343.1</ele>
  <time>2026-09-01T19:53:38Z</time>
  <course>141.99</course>
  <speed>0.0</speed>
  <fix>3d</fix>
</trkpt>
<trkpt lat="-27.2744394" lon="151.2900645">
  <ele>343.1</ele>
  <time>2026-09-01T19:53:38Z</time>
  <course>190.97</course>
  <speed>0.0</speed>
  <fix>3d</fix>
</trkpt>
<trkpt lat="-27.2744394" lon="151.2900645">
  <ele>343.1</ele>
  <time>2026-09-01T19:53:38Z</time>
  <course>141.99</course>
  <speed>0.0</speed>
  <fix>3d</fix>
</trkpt>
<trkpt lat="-27.2744394" lon="151.2900645">
  <ele>343.1</ele>
  <time>2026-09-01T19:53:38Z</time>
  <course>190.97</course>
  <speed>0.0</speed>
  <fix>3d</fix>
</trkpt>
<trkpt lat="-27.2744394" lon="151.2900645">
  <ele>343.1</ele>
  <time>2026-09-01T19:53:38Z</time>
  <course>327.24</course>
  <speed>0.0</speed>
  <fix>3d</fix>
</trkpt>
<trkpt lat="-27.2744394" lon="151.2900645">
  <ele>343.1</ele>
  <time>2026-09-01T19:53:38Z</time>
  <course>190.97</course>
  <speed>0.0</speed>
  <fix>3d</fix>
</trkpt>
<trkpt lat="-27.2744394" lon="151.2900645">
  <ele>343.1</ele>
  <time>2026-09-01T19:53:38Z</time>
  <course>327.24</course>
  <speed>0.0</speed>
  <fix>3d</fix>
</trkpt>
<trkpt lat="-27.2744394" lon="151.2900645">
  <ele>343.1</ele>
  <time>2026-09-01T19:53:38Z</time>
  <course>190.97</course>
  <speed>0.0</speed>
  <fix>3d</fix>
</trkpt>
<trkpt lat="-27.2744394" lon="151.2900645">
  <ele>343.1</ele>
  <time>2026-09-01T19:53:38Z</time>
  <course>317.96</course>
  <speed>0.0</speed>
  <fix>3d</fix>
</trkpt>
<trkpt lat="-27.2744394" lon="151.2900645">
  <ele>343.1</ele>
  <time>2026-09-01T19:53:39Z</time>
  <course>190.97</course>
  <speed>0.0</speed>
  <fix>3d</fix>
</trkpt>
<trkpt lat="-27.2744394" lon="151.2900645">
  <ele>343.1</ele>
  <time>2026-09-01T19:53:39Z</time>
  <course>317.96</course>
  <speed>0.0</speed>
  <fix>3d</fix>
</trkpt>
<trkpt lat="-27.2744394" lon="151.2900645">
  <ele>343.1</ele>
  <time>2026-09-01T19:53:39Z</time>
  <course>190.97</course>
  <speed>0.0</speed>
  <fix>3d</fix>
</trkpt>
<trkpt lat="-27.2744394" lon="151.2900645">
  <ele>343.1</ele>
  <time>2026-09-01T19:53:39Z</time>
  <course>147.41</course>
  <speed>0.0</speed>
  <fix>3d</fix>
</trkpt>
<trkpt lat="-27.2744394" lon="151.2900645">
  <ele>343.1</ele>
  <time>2026-09-01T19:53:39Z</time>
  <course>190.97</course>
  <speed>0.0</speed>
  <fix>3d</fix>
</trkpt>
<trkpt lat="-27.2744394" lon="151.2900645">
  <ele>343.1</ele>
  <time>2026-09-01T19:53:39Z</time>
  <course>147.41</course>
  <speed>0.0</speed>
  <fix>3d</fix>
</trkpt>
<trkpt lat="-27.2744394" lon="151.2900645">
  <ele>343.1</ele>
  <time>2026-09-01T19:53:39Z</time>
  <course>190.97</course>
  <speed>0.0</speed>
  <fix>3d</fix>
</trkpt>
<trkpt lat="-27.2744394" lon="151.2900645">
  <ele>343.1</ele>
  <time>2026-09-01T19:53:39Z</time>
  <course>183.09</course>
  <speed>0.0</speed>
  <fix>3d</fix>
</trkpt>
<trkpt lat="-27.2744394" lon="151.2900645">
  <ele>343.1</ele>
  <time>2026-09-01T19:53:39Z</time>
  <course>190.97</course>
  <speed>0.0</speed>
  <fix>3d</fix>
</trkpt>
<trkpt lat="-27.2744394" lon="151.2900645">
  <ele>343.1</ele>
  <time>2026-09-01T19:53:39Z</time>
  <course>183.09</course>
  <speed>0.0</speed>
  <fix>3d</fix>
</trkpt>
<trkpt lat="-27.2744394" lon="151.2900645">
  <ele>343.1</ele>
  <time>2026-09-01T19:53:39Z</time>
  <course>190.97</course>
  <speed>0.0</speed>
  <fix>3d</fix>
</trkpt>
<trkpt lat="-27.2744394" lon="151.2900645">
  <ele>343.1</ele>
  <time>2026-09-01T19:53:39Z</time>
  <course>311.72</course>
  <speed>0.0</speed>
  <fix>3d</fix>
</trkpt>
<trkpt lat="-27.2744394" lon="151.2900645">
  <ele>343.1</ele>
  <time>2026-09-01T19:53:39Z</time>
  <course>190.97</course>
  <speed>0.0</speed>
  <fix>3d</fix>
</trkpt>
<trkpt lat="-27.2744394" lon="151.2900645">
  <ele>343.1</ele>
  <time>2026-09-01T19:53:39Z</time>
  <course>311.72</course>
  <speed>0.0</speed>
  <fix>3d</fix>
</trkpt>
<trkpt lat="-27.2744394" lon="151.2900645">
  <ele>343.1</ele>
  <time>2026-09-01T19:53:39Z</time>
  <course>190.97</course>
  <speed>0.0</speed>
  <fix>3d</fix>
</trkpt>
<trkpt lat="-27.2744394" lon="151.2900645">
  <ele>343.1</ele>
  <time>2026-09-01T19:53:39Z</time>
  <course>278.57</course>
  <speed>0.0</speed>
  <fix>3d</fix>
</trkpt>
<trkpt lat="-27.2744394" lon="151.2900645">
  <ele>343.1</ele>
  <time>2026-09-01T19:53:39Z</time>
  <course>190.97</course>
  <speed>0.0</speed>
  <fix>3d</fix>
</trkpt>
<trkpt lat="-27.2744394" lon="151.2900645">
  <ele>343.1</ele>
  <time>2026-09-01T19:53:39Z</time>
  <course>278.57</course>
  <speed>0.0</speed>
  <fix>3d</fix>
</trkpt>
<trkpt lat="-27.2744394" lon="151.2900645">
  <ele>343.1</ele>
  <time>2026-09-01T19:53:39Z</time>
  <course>190.97</course>
  <speed>0.0</speed>
  <fix>3d</fix>
</trkpt>
<trkpt lat="-27.2744394" lon="151.2900645">
  <ele>343.1</ele>
  <time>2026-09-01T19:53:39Z</time>
  <course>269.0</course>
  <speed>0.0</speed>
  <fix>3d</fix>
</trkpt>
<trkpt lat="-27.2744396" lon="151.2900639">
  <ele>343.1</ele>
  <time>2026-09-01T19:53:39Z</time>
  <course>8.0</course>
  <speed>0.0</speed>
  <fix>3d</fix>
</trkpt>
<trkpt lat="-27.2744395" lon="151.290064">
  <ele>343.1</ele>
  <time>2026-09-01T19:53:39Z</time>
  <course>8.0</course>
  <speed>0.1711724276862369</speed>
  <fix>3d</fix>
</trkpt>
<trkpt lat="-27.2744393" lon="151.290064">
  <ele>343.1</ele>
  <time>2026-09-01T19:53:39Z</time>
  <course>8.0</course>
  <speed>0.27166155414412246</speed>
  <fix>3d</fix>
</trkpt>
<trkpt lat="-27.2744391" lon="151.290064">
  <ele>343.1</ele>
  <time>2026-09-01T19:53:39Z</time>
  <course>8.0</course>
  <speed>0.18110770276274835</speed>
  <fix>3d</fix>
</trkpt>
<trkpt lat="-27.274439" lon="151.290064">
  <ele>343.1</ele>
  <time>2026-09-01T19:53:39Z</time>
  <course>8.0</course>
  <speed>0.05</speed>
  <fix>3d</fix>
</trkpt>
<trkpt lat="-27.274439" lon="151.290064">
  <ele>343.1</ele>
  <time>2026-09-01T19:53:39Z</time>
  <course>8.0</course>
  <speed>0.02</speed>
  <fix>3d</fix>
</trkpt>
<trkpt lat="-27.274439" lon="151.290064">
  <ele>343.1</ele>
  <time>2026-09-01T19:53:39Z</time>
  <course>8.0</course>
  <speed>0.03</speed>
  <fix>3d</fix>
</trkpt>
<trkpt lat="-27.274439" lon="151.290064">
  <ele>343.1</ele>
  <time>2026-09-01T19:53:39Z</time>
  <course>8.0</course>
  <speed>0.02</speed>
  <fix>3d</fix>
</trkpt>
<trkpt lat="-27.274439" lon="151.290064">
  <ele>343.1</ele>
  <time>2026-09-01T19:53:39Z</time>
  <course>8.0</course>
  <speed>0.0</speed>
  <fix>3d</fix>
</trkpt>
<trkpt lat="-27.274439" lon="151.290064">
  <ele>343.1</ele>
  <time>2026-09-01T19:53:39Z</time>
  <course>8.0</course>
  <speed>0.0</speed>
  <fix>3d</fix>
</trkpt>
<trkpt lat="-27.274439" lon="151.290064">
  <ele>343.1</ele>
  <time>2026-09-01T19:53:39Z</time>
  <course>8.0</course>
  <speed>0.0</speed>
  <fix>3d</fix>
</trkpt>
<trkpt lat="-27.274439" lon="151.290064">
  <ele>343.1</ele>
  <time>2026-09-01T19:53:39Z</time>
  <course>8.0</course>
  <speed>0.0</speed>
  <fix>3d</fix>
</trkpt>
<trkpt lat="-27.274439" lon="151.290064">
  <ele>343.1</ele>
  <time>2026-09-01T19:53:39Z</time>
  <course>8.0</course>
  <speed>0.0</speed>
  <fix>3d</fix>
</trkpt>
<trkpt lat="-27.274439" lon="151.290064">
  <ele>343.1</ele>
  <time>2026-09-01T19:53:39Z</time>
  <course>8.0</course>
  <speed>0.0</speed>
  <fix>3d</fix>
</trkpt>
<trkpt lat="-27.274439" lon="151.290064">
  <ele>343.1</ele>
  <time>2026-09-01T19:53:39Z</time>
  <course>8.0</course>
  <speed>0.0</speed>
  <fix>3d</fix>
</trkpt>
<trkpt lat="-27.274439" lon="151.290064">
  <ele>343.1</ele>
  <time>2026-09-01T19:53:39Z</time>
  <course>8.0</course>
  <speed>0.0</speed>
  <fix>3d</fix>
</trkpt>
<trkpt lat="-27.274439" lon="151.290064">
  <ele>343.1</ele>
  <time>2026-09-01T19:53:39Z</time>
  <course>8.0</course>
  <speed>0.0</speed>
  <fix>3d</fix>
</trkpt>
<trkpt lat="-27.274439" lon="151.290064">
  <ele>343.1</ele>
  <time>2026-09-01T19:53:39Z</time>
  <course>8.0</course>
  <speed>0.0</speed>
  <fix>3d</fix>
</trkpt>
<trkpt lat="-27.274439" lon="151.290064">
  <ele>343.1</ele>
  <time>2026-09-01T19:53:39Z</time>
  <course>8.0</course>
  <speed>0.0</speed>
  <fix>3d</fix>
</trkpt>
<trkpt lat="-27.274439" lon="151.290064">
  <ele>343.1</ele>
  <time>2026-09-01T19:53:39Z</time>
  <course>8.0</course>
  <speed>0.0</speed>
  <fix>3d</fix>
</trkpt>
<trkpt lat="-27.274439" lon="151.290064">
  <ele>343.1</ele>
  <time>2026-09-01T19:53:39Z</time>
  <course>8.0</course>
  <speed>0.0</speed>
  <fix>3d</fix>
</trkpt>
<trkpt lat="-27.274439" lon="151.290064">
  <ele>343.1</ele>
  <time>2026-09-01T19:53:39Z</time>
  <course>8.0</course>
  <speed>0.0</speed>
  <fix>3d</fix>
</trkpt>
<trkpt lat="-27.274439" lon="151.290064">
  <ele>343.1</ele>
  <time>2026-09-01T19:53:39Z</time>
  <course>8.0</course>
  <speed>0.0</speed>
  <fix>3d</fix>
</trkpt>
<trkpt lat="-27.274439" lon="151.290064">
  <ele>343.1</ele>
  <time>2026-09-01T19:53:39Z</time>
  <course>8.0</course>
  <speed>0.0</speed>
  <fix>3d</fix>
</trkpt>
<trkpt lat="-27.274439" lon="151.290064">
  <ele>343.1</ele>
  <time>2026-09-01T19:53:39Z</time>
  <course>8.0</course>
  <speed>0.0</speed>
  <fix>3d</fix>
</trkpt>
<trkpt lat="-27.274439" lon="151.290064">
  <ele>343.1</ele>
  <time>2026-09-01T19:53:39Z</time>
  <course>8.0</course>
  <speed>0.0</speed>
  <fix>3d</fix>
</trkpt>
<trkpt lat="-27.274439" lon="151.290064">
  <ele>343.1</ele>
  <time>2026-09-01T19:53:39Z</time>
  <course>8.0</course>
  <speed>0.0</speed>
  <fix>3d</fix>
</trkpt>
<trkpt lat="-27.274439" lon="151.290064">
  <ele>343.1</ele>
  <time>2026-09-01T19:53:39Z</time>
  <course>8.0</course>
  <speed>0.0</speed>
  <fix>3d</fix>
</trkpt>
<trkpt lat="-27.274439" lon="151.290064">
  <ele>343.1</ele>
  <time>2026-09-01T19:53:39Z</time>
  <course>8.0</course>
  <speed>0.0</speed>
  <fix>3d</fix>
</trkpt>
<trkpt lat="-27.274439" lon="151.290064">
  <ele>343.1</ele>
  <time>2026-09-01T19:53:39Z</time>
  <course>8.0</course>
  <speed>0.0</speed>
  <fix>3d</fix>
</trkpt>
<trkpt lat="-27.274439" lon="151.290064">
  <ele>343.1</ele>
  <time>2026-09-01T19:53:39Z</time>
  <course>8.0</course>
  <speed>0.0</speed>
  <fix>3d</fix>
</trkpt>
<trkpt lat="-27.274439" lon="151.290064">
  <ele>343.1</ele>
  <time>2026-09-01T19:53:39Z</time>
  <course>8.0</course>
  <speed>0.0</speed>
  <fix>3d</fix>
</trkpt>
<trkpt lat="-27.274439" lon="151.290064">
  <ele>343.1</ele>
  <time>2026-09-01T19:53:39Z</time>
  <course>8.0</course>
  <speed>0.0</speed>
  <fix>3d</fix>
</trkpt>
<trkpt lat="-27.274439" lon="151.290064">
  <ele>343.1</ele>
  <time>2026-09-01T19:53:39Z</time>
  <course>8.0</course>
  <speed>0.0</speed>
  <fix>3d</fix>
</trkpt>
<trkpt lat="-27.274439" lon="151.290064">
  <ele>343.1</ele>
  <time>2026-09-01T19:53:39Z</time>
  <course>8.0</course>
  <speed>0.0</speed>
  <fix>3d</fix>
</trkpt>
<trkpt lat="-27.274439" lon="151.290064">
  <ele>343.1</ele>
  <time>2026-09-01T19:53:39Z</time>
  <course>8.0</course>
  <speed>0.0</speed>
  <fix>3d</fix>
</trkpt>
<trkpt lat="-27.274439" lon="151.290064">
  <ele>343.1</ele>
  <time>2026-09-01T19:53:39Z</time>
  <course>8.0</course>
  <speed>0.0</speed>
  <fix>3d</fix>
</trkpt>
<trkpt lat="-27.274439" lon="151.290064">
  <ele>343.1</ele>
  <time>2026-09-01T19:53:39Z</time>
  <course>8.0</course>
  <speed>0.0</speed>
  <fix>3d</fix>
</trkpt>
<trkpt lat="-27.274439" lon="151.290064">
  <ele>343.1</ele>
  <time>2026-09-01T19:53:39Z</time>
  <course>8.0</course>
  <speed>0.0</speed>
  <fix>3d</fix>
</trkpt>
<trkpt lat="-27.274439" lon="151.290064">
  <ele>343.1</ele>
  <time>2026-09-01T19:53:39Z</time>
  <course>8.0</course>
  <speed>0.0</speed>
  <fix>3d</fix>
</trkpt>
<trkpt lat="-27.274439" lon="151.290064">
  <ele>343.1</ele>
  <time>2026-09-01T19:53:39Z</time>
  <course>8.0</course>
  <speed>0.0</speed>
  <fix>3d</fix>
</trkpt>
<trkpt lat="-27.274439" lon="151.290064">
  <ele>343.1</ele>
  <time>2026-09-01T19:53:39Z</time>
  <course>8.0</course>
  <speed>0.0</speed>
  <fix>3d</fix>
</trkpt>
<trkpt lat="-27.274439" lon="151.290064">
  <ele>343.1</ele>
  <time>2026-09-01T19:53:39Z</time>
  <course>8.0</course>
  <speed>0.0</speed>
  <fix>3d</fix>
</trkpt>
<trkpt lat="-27.274439" lon="151.290064">
  <ele>343.1</ele>
  <time>2026-09-01T19:53:39Z</time>
  <course>8.0</course>
  <speed>0.0</speed>
  <fix>3d</fix>
</trkpt>
<trkpt lat="-27.274439" lon="151.290064">
  <ele>343.1</ele>
  <time>2026-09-01T19:53:39Z</time>
  <course>8.0</course>
  <speed>0.0</speed>
  <fix>3d</fix>
</trkpt>
<trkpt lat="-27.274439" lon="151.290064">
  <ele>343.1</ele>
  <time>2026-09-01T19:53:39Z</time>
  <course>8.0</course>
  <speed>0.0</speed>
  <fix>3d</fix>
</trkpt>
<trkpt lat="-27.274439" lon="151.290064">
  <ele>343.1</ele>
  <time>2026-09-01T19:53:39Z</time>
  <course>8.0</course>
  <speed>0.0</speed>
  <fix>3d</fix>
</trkpt>
<trkpt lat="-27.274439" lon="151.290064">
  <ele>343.1</ele>
  <time>2026-09-01T19:53:39Z</time>
  <course>8.0</course>
  <speed>0.0</speed>
  <fix>3d</fix>
</trkpt>
<trkpt lat="-27.274439" lon="151.290064">
  <ele>343.1</ele>
  <time>2026-09-01T19:53:39Z</time>
  <course>8.0</course>
  <speed>0.0</speed>
  <fix>3d</fix>
</trkpt>
<trkpt lat="-27.274439" lon="151.290064">
  <ele>343.1</ele>
  <time>2026-09-01T19:53:39Z</time>
  <course>8.0</course>
  <speed>0.0</speed>
  <fix>3d</fix>
</trkpt>
<trkpt lat="-27.274439" lon="151.290064">
  <ele>343.1</ele>
  <time>2026-09-01T19:53:39Z</time>
  <course>8.0</course>
  <speed>0.0</speed>
  <fix>3d</fix>
</trkpt>
<trkpt lat="-27.274439" lon="151.290064">
  <ele>343.1</ele>
  <time>2026-09-01T19:53:39Z</time>
  <course>8.0</course>
  <speed>0.0</speed>
  <fix>3d</fix>
</trkpt>
<trkpt lat="-27.274439" lon="151.290064">
  <ele>343.1</ele>
  <time>2026-09-01T19:53:39Z</time>
  <course>8.0</course>
  <speed>0.0</speed>
  <fix>3d</fix>
</trkpt>
<trkpt lat="-27.274439" lon="151.290064">
  <ele>343.1</ele>
  <time>2026-09-01T19:53:39Z</time>
  <course>8.0</course>
  <speed>0.0</speed>
  <fix>3d</fix>
</trkpt>
<trkpt lat="-27.274439" lon="151.290064">
  <ele>343.1</ele>
  <time>2026-09-01T19:53:39Z</time>
  <course>8.0</course>
  <speed>0.0</speed>
  <fix>3d</fix>
</trkpt>
<trkpt lat="-27.274439" lon="151.290064">
  <ele>343.1</ele>
  <time>2026-09-01T19:53:39Z</time>
  <course>8.0</course>
  <speed>0.0</speed>
  <fix>3d</fix>
</trkpt>
<trkpt lat="-27.274439" lon="151.290064">
  <ele>343.1</ele>
  <time>2026-09-01T19:53:39Z</time>
  <course>8.0</course>
  <speed>0.0</speed>
  <fix>3d</fix>
</trkpt>
<trkpt lat="-27.274439" lon="151.290064">
  <ele>343.1</ele>
  <time>2026-09-01T19:53:39Z</time>
  <course>8.0</course>
  <speed>0.0</speed>
  <fix>3d</fix>
</trkpt>
<trkpt lat="-27.274439" lon="151.290064">
  <ele>343.1</ele>
  <time>2026-09-01T19:53:39Z</time>
  <course>8.0</course>
  <speed>0.0</speed>
  <fix>3d</fix>
</trkpt>
<trkpt lat="-27.274439" lon="151.290064">
  <ele>343.1</ele>
  <time>2026-09-01T19:53:39Z</time>
  <course>8.0</course>
  <speed>0.0</speed>
  <fix>3d</fix>
</trkpt>
<trkpt lat="-27.274439" lon="151.290064">
  <ele>343.1</ele>
  <time>2026-09-01T19:53:39Z</time>
  <course>8.0</course>
  <speed>0.0</speed>
  <fix>3d</fix>
</trkpt>
<trkpt lat="-27.274439" lon="151.290064">
  <ele>343.1</ele>
  <time>2026-09-01T19:53:39Z</time>
  <course>8.0</course>
  <speed>0.0</speed>
  <fix>3d</fix>
</trkpt>
<trkpt lat="-27.274439" lon="151.290064">
  <ele>343.1</ele>
  <time>2026-09-01T19:53:39Z</time>
  <course>8.0</course>
  <speed>0.0</speed>
  <fix>3d</fix>
</trkpt>
<trkpt lat="-27.274439" lon="151.290064">
  <ele>343.1</ele>
  <time>2026-09-01T19:53:39Z</time>
  <course>8.0</course>
  <speed>0.0</speed>
  <fix>3d</fix>
</trkpt>
<trkpt lat="-27.274439" lon="151.290064">
  <ele>343.1</ele>
  <time>2026-09-01T19:53:39Z</time>
  <course>8.0</course>
  <speed>0.0</speed>
  <fix>3d</fix>
</trkpt>
<trkpt lat="-27.274439" lon="151.290064">
  <ele>343.1</ele>
  <time>2026-09-01T19:53:39Z</time>
  <course>8.0</course>
  <speed>0.0</speed>
  <fix>3d</fix>
</trkpt>
<trkpt lat="-27.274439" lon="151.290064">
  <ele>343.1</ele>
  <time>2026-09-01T19:53:39Z</time>
  <course>8.0</course>
  <speed>0.0</speed>
  <fix>3d</fix>
</trkpt>
<trkpt lat="-27.274439" lon="151.290064">
  <ele>343.1</ele>
  <time>2026-09-01T19:53:39Z</time>
  <course>8.0</course>
  <speed>0.0</speed>
  <fix>3d</fix>
</trkpt>
<trkpt lat="-27.274439" lon="151.290064">
  <ele>343.1</ele>
  <time>2026-09-01T19:53:39Z</time>
  <course>8.0</course>
  <speed>0.0</speed>
  <fix>3d</fix>
</trkpt>
<trkpt lat="-27.274439" lon="151.290064">
  <ele>343.1</ele>
  <time>2026-09-01T19:53:39Z</time>
  <course>8.0</course>
  <speed>0.0</speed>
  <fix>3d</fix>
</trkpt>
<trkpt lat="-27.274439" lon="151.290064">
  <ele>343.1</ele>
  <time>2026-09-01T19:53:39Z</time>
  <course>8.0</course>
  <speed>0.0</speed>
  <fix>3d</fix>
</trkpt>
<trkpt lat="-27.274439" lon="151.290064">
  <ele>343.1</ele>
  <time>2026-09-01T19:53:39Z</time>
  <course>8.0</course>
  <speed>0.0</speed>
  <fix>3d</fix>
</trkpt>
<trkpt lat="-27.274439" lon="151.290064">
  <ele>343.1</ele>
  <time>2026-09-01T19:53:39Z</time>
  <course>8.0</course>
  <speed>0.0</speed>
  <fix>3d</fix>
</trkpt>
<trkpt lat="-27.274439" lon="151.290064">
  <ele>343.1</ele>
  <time>2026-09-01T19:53:39Z</time>
  <course>8.0</course>
  <speed>0.0</speed>
  <fix>3d</fix>
</trkpt>
<trkpt lat="-27.274439" lon="151.290064">
  <ele>343.1</ele>
  <time>2026-09-01T19:53:39Z</time>
  <course>8.0</course>
  <speed>0.0</speed>
  <fix>3d</fix>
</trkpt>
<trkpt lat="-26.9720619" lon="149.6127921">
  <ele>339.29</ele>
  <time>2026-09-01T19:53:39Z</time>
  <course>289.62</course>
  <speed>0.0</speed>
  <fix>3d</fix>
</trkpt>
<trkpt lat="-27.274439" lon="151.290064">
  <ele>343.1</ele>
  <time>2026-09-01T19:53:39Z</time>
  <course>8.0</course>
  <speed>0.0</speed>
  <fix>3d</fix>
</trkpt>
<trkpt lat="-26.9720619" lon="149.6127921">
  <ele>339.29</ele>
  <time>2026-09-01T19:53:39Z</time>
  <course>289.62</course>
  <speed>0.0</speed>
  <fix>3d</fix>
</trkpt>
<trkpt lat="-27.274439" lon="151.290064">
  <ele>343.1</ele>
  <time>2026-09-01T19:53:40Z</time>
  <course>8.0</course>
  <speed>0.0</speed>
  <fix>3d</fix>
</trkpt>
<trkpt lat="-27.274439" lon="151.290064">
  <ele>343.1</ele>
  <time>2026-09-01T19:53:40Z</time>
  <course>281.16</course>
  <speed>0.0</speed>
  <fix>3d</fix>
</trkpt>
<trkpt lat="-27.274439" lon="151.290064">
  <ele>343.1</ele>
  <time>2026-09-01T19:53:40Z</time>
  <course>8.0</course>
  <speed>0.0</speed>
  <fix>3d</fix>
</trkpt>
<trkpt lat="-27.274439" lon="151.290064">
  <ele>343.1</ele>
  <time>2026-09-01T19:53:40Z</time>
  <course>281.16</course>
  <speed>0.0</speed>
  <fix>3d</fix>
</trkpt>
<trkpt lat="-27.274439" lon="151.290064">
  <ele>343.1</ele>
  <time>2026-09-01T19:53:40Z</time>
  <course>8.0</course>
  <speed>0.0</speed>
  <fix>3d</fix>
</trkpt>
<trkpt lat="-27.274439" lon="151.290064">
  <ele>343.1</ele>
  <time>2026-09-01T19:53:40Z</time>
  <course>271.47</course>
  <speed>0.0</speed>
  <fix>3d</fix>
</trkpt>
<trkpt lat="-27.274439" lon="151.290064">
  <ele>343.1</ele>
  <time>2026-09-01T19:53:40Z</time>
  <course>8.0</course>
  <speed>0.0</speed>
  <fix>3d</fix>
</trkpt>
<trkpt lat="-27.274439" lon="151.290064">
  <ele>343.1</ele>
  <time>2026-09-01T19:53:40Z</time>
  <course>271.47</course>
  <speed>0.0</speed>
  <fix>3d</fix>
</trkpt>
<trkpt lat="-27.274439" lon="151.290064">
  <ele>343.1</ele>
  <time>2026-09-01T19:53:40Z</time>
  <course>8.0</course>
  <speed>0.0</speed>
  <fix>3d</fix>
</trkpt>
<trkpt lat="-27.274439" lon="151.290064">
  <ele>343.1</ele>
  <time>2026-09-01T19:53:40Z</time>
  <course>270.19</course>
  <speed>0.0</speed>
  <fix>3d</fix>
</trkpt>
<trkpt lat="-27.274439" lon="151.290064">
  <ele>343.1</ele>
  <time>2026-09-01T19:53:40Z</time>
  <course>8.0</course>
  <speed>0.0</speed>
  <fix>3d</fix>
</trkpt>
<trkpt lat="-27.274439" lon="151.290064">
  <ele>343.1</ele>
  <time>2026-09-01T19:53:40Z</time>
  <course>270.19</course>
  <speed>0.0</speed>
  <fix>3d</fix>
</trkpt>
<trkpt lat="-27.274439" lon="151.290064">
  <ele>343.1</ele>
  <time>2026-09-01T19:53:40Z</time>
  <course>8.0</course>
  <speed>0.0</speed>
  <fix>3d</fix>
</trkpt>
<trkpt lat="-27.274439" lon="151.290064">
  <ele>343.1</ele>
  <time>2026-09-01T19:53:40Z</time>
  <course>270.02</course>
  <speed>0.0</speed>
  <fix>3d</fix>
</trkpt>
<trkpt lat="-27.274439" lon="151.290064">
  <ele>343.1</ele>
  <time>2026-09-01T19:53:40Z</time>
  <course>8.0</course>
  <speed>0.0</speed>
  <fix>3d</fix>
</trkpt>
<trkpt lat="-27.274439" lon="151.290064">
  <ele>343.1</ele>
  <time>2026-09-01T19:53:40Z</time>
  <course>270.02</course>
  <speed>0.0</speed>
  <fix>3d</fix>
</trkpt>
<trkpt lat="-27.274439" lon="151.290064">
  <ele>343.1</ele>
  <time>2026-09-01T19:53:40Z</time>
  <course>8.0</course>
  <speed>0.0</speed>
  <fix>3d</fix>
</trkpt>
<trkpt lat="-27.274439" lon="151.290064">
  <ele>343.1</ele>
  <time>2026-09-01T19:53:40Z</time>
  <course>270.0</course>
  <speed>0.0</speed>
  <fix>3d</fix>
</trkpt>
<trkpt lat="-27.274439" lon="151.290064">
  <ele>343.1</ele>
  <time>2026-09-01T19:53:40Z</time>
  <course>8.0</course>
  <speed>0.0</speed>
  <fix>3d</fix>
</trkpt>
<trkpt lat="-27.274439" lon="151.290064">
  <ele>343.1</ele>
  <time>2026-09-01T19:53:40Z</time>
  <course>270.0</course>
  <speed>0.0</speed>
  <fix>3d</fix>
</trkpt>
<trkpt lat="-27.274439" lon="151.290064">
  <ele>343.1</ele>
  <time>2026-09-01T19:53:40Z</time>
  <course>8.0</course>
  <speed>0.0</speed>
  <fix>3d</fix>
</trkpt>
<trkpt lat="-27.274439" lon="151.290064">
  <ele>343.1</ele>
  <time>2026-09-01T19:53:40Z</time>
  <course>270.0</course>
  <speed>0.0</speed>
  <fix>3d</fix>
</trkpt>
<trkpt lat="-27.274439" lon="151.290064">
  <ele>343.1</ele>
  <time>2026-09-01T19:53:40Z</time>
  <course>8.0</course>
  <speed>0.0</speed>
  <fix>3d</fix>
</trkpt>
<trkpt lat="-27.274439" lon="151.290064">
  <ele>343.1</ele>
  <time>2026-09-01T19:53:40Z</time>
  <course>270.0</course>
  <speed>0.0</speed>
  <fix>3d</fix>
</trkpt>
<trkpt lat="-27.274439" lon="151.290064">
  <ele>343.1</ele>
  <time>2026-09-01T19:53:40Z</time>
  <course>8.0</course>
  <speed>0.0</speed>
  <fix>3d</fix>
</trkpt>
<trkpt lat="-27.274439" lon="151.290064">
  <ele>343.1</ele>
  <time>2026-09-01T19:53:40Z</time>
  <course>270.0</course>
  <speed>0.0</speed>
  <fix>3d</fix>
</trkpt>
<trkpt lat="-27.274439" lon="151.290064">
  <ele>343.1</ele>
  <time>2026-09-01T19:53:40Z</time>
  <course>8.0</course>
  <speed>0.0</speed>
  <fix>3d</fix>
</trkpt>
<trkpt lat="-27.274439" lon="151.290064">
  <ele>343.1</ele>
  <time>2026-09-01T19:53:40Z</time>
  <course>270.0</course>
  <speed>0.0</speed>
  <fix>3d</fix>
</trkpt>
<trkpt lat="-27.274439" lon="151.290064">
  <ele>343.1</ele>
  <time>2026-09-01T19:53:40Z</time>
  <course>8.0</course>
  <speed>0.0</speed>
  <fix>3d</fix>
</trkpt>
<trkpt lat="-27.274439" lon="151.290064">
  <ele>343.1</ele>
  <time>2026-09-01T19:53:40Z</time>
  <course>270.0</course>
  <speed>0.0</speed>
  <fix>3d</fix>
</trkpt>
<trkpt lat="-27.274439" lon="151.290064">
  <ele>343.1</ele>
  <time>2026-09-01T19:53:40Z</time>
  <course>8.0</course>
  <speed>0.0</speed>
  <fix>3d</fix>
</trkpt>
<trkpt lat="-27.274439" lon="151.290064">
  <ele>343.1</ele>
  <time>2026-09-01T19:53:40Z</time>
  <course>270.0</course>
  <speed>0.0</speed>
  <fix>3d</fix>
</trkpt>
<trkpt lat="-27.274439" lon="151.290064">
  <ele>343.1</ele>
  <time>2026-09-01T19:53:40Z</time>
  <course>8.0</course>
  <speed>0.0</speed>
  <fix>3d</fix>
</trkpt>
<trkpt lat="-27.274439" lon="151.290064">
  <ele>343.1</ele>
  <time>2026-09-01T19:53:40Z</time>
  <course>270.0</course>
  <speed>0.0</speed>
  <fix>3d</fix>
</trkpt>
<trkpt lat="-27.274439" lon="151.290064">
  <ele>343.1</ele>
  <time>2026-09-01T19:53:40Z</time>
  <course>8.0</course>
  <speed>0.0</speed>
  <fix>3d</fix>
</trkpt>
<trkpt lat="-27.274439" lon="151.290064">
  <ele>343.1</ele>
  <time>2026-09-01T19:53:40Z</time>
  <course>270.0</course>
  <speed>0.0</speed>
  <fix>3d</fix>
</trkpt>
<trkpt lat="-27.274439" lon="151.290064">
  <ele>343.1</ele>
  <time>2026-09-01T19:53:40Z</time>
  <course>8.0</course>
  <speed>0.0</speed>
  <fix>3d</fix>
</trkpt>
<trkpt lat="-27.274439" lon="151.290064">
  <ele>343.1</ele>
  <time>2026-09-01T19:53:40Z</time>
  <course>270.0</course>
  <speed>0.0</speed>
  <fix>3d</fix>
</trkpt>
<trkpt lat="-27.274439" lon="151.290064">
  <ele>343.1</ele>
  <time>2026-09-01T19:53:40Z</time>
  <course>8.0</course>
  <speed>0.0</speed>
  <fix>3d</fix>
</trkpt>
<trkpt lat="-27.274439" lon="151.290064">
  <ele>343.1</ele>
  <time>2026-09-01T19:53:40Z</time>
  <course>270.0</course>
  <speed>0.0</speed>
  <fix>3d</fix>
</trkpt>
<trkpt lat="-27.274439" lon="151.290064">
  <ele>343.1</ele>
  <time>2026-09-01T19:53:40Z</time>
  <course>8.0</course>
  <speed>0.0</speed>
  <fix>3d</fix>
</trkpt>
<trkpt lat="-27.274439" lon="151.290064">
  <ele>343.1</ele>
  <time>2026-09-01T19:53:40Z</time>
  <course>270.0</course>
  <speed>0.0</speed>
  <fix>3d</fix>
</trkpt>
<trkpt lat="-27.274439" lon="151.290064">
  <ele>343.1</ele>
  <time>2026-09-01T19:53:40Z</time>
  <course>8.0</course>
  <speed>0.0</speed>
  <fix>3d</fix>
</trkpt>
<trkpt lat="-27.274439" lon="151.290064">
  <ele>343.1</ele>
  <time>2026-09-01T19:53:40Z</time>
  <course>270.0</course>
  <speed>0.0</speed>
  <fix>3d</fix>
</trkpt>
<trkpt lat="-27.274439" lon="151.290064">
  <ele>343.1</ele>
  <time>2026-09-01T19:53:40Z</time>
  <course>8.0</course>
  <speed>0.0</speed>
  <fix>3d</fix>
</trkpt>
<trkpt lat="-27.274439" lon="151.290064">
  <ele>343.1</ele>
  <time>2026-09-01T19:53:40Z</time>
  <course>270.0</course>
  <speed>0.0</speed>
  <fix>3d</fix>
</trkpt>
<trkpt lat="-27.274439" lon="151.290064">
  <ele>343.1</ele>
  <time>2026-09-01T19:53:40Z</time>
  <course>8.0</course>
  <speed>0.0</speed>
  <fix>3d</fix>
</trkpt>
<trkpt lat="-27.274439" lon="151.290064">
  <ele>343.1</ele>
  <time>2026-09-01T19:53:40Z</time>
  <course>270.0</course>
  <speed>0.0</speed>
  <fix>3d</fix>
</trkpt>
<trkpt lat="-27.274439" lon="151.290064">
  <ele>343.1</ele>
  <time>2026-09-01T19:53:40Z</time>
  <course>8.0</course>
  <speed>0.0</speed>
  <fix>3d</fix>
</trkpt>
<trkpt lat="-27.274439" lon="151.290064">
  <ele>343.1</ele>
  <time>2026-09-01T19:53:40Z</time>
  <course>270.0</course>
  <speed>0.0</speed>
  <fix>3d</fix>
</trkpt>
<trkpt lat="-27.274439" lon="151.290064">
  <ele>343.1</ele>
  <time>2026-09-01T19:53:40Z</time>
  <course>8.0</course>
  <speed>0.0</speed>
  <fix>3d</fix>
</trkpt>
<trkpt lat="-27.274439" lon="151.290064">
  <ele>343.1</ele>
  <time>2026-09-01T19:53:40Z</time>
  <course>270.0</course>
  <speed>0.0</speed>
  <fix>3d</fix>
</trkpt>
<trkpt lat="-27.274439" lon="151.290064">
  <ele>343.1</ele>
  <time>2026-09-01T19:53:40Z</time>
  <course>8.0</course>
  <speed>0.0</speed>
  <fix>3d</fix>
</trkpt>
<trkpt lat="-27.274439" lon="151.290064">
  <ele>343.1</ele>
  <time>2026-09-01T19:53:40Z</time>
  <course>270.0</course>
  <speed>0.0</speed>
  <fix>3d</fix>
</trkpt>
<trkpt lat="-27.274439" lon="151.290064">
  <ele>343.1</ele>
  <time>2026-09-01T19:53:40Z</time>
  <course>8.0</course>
  <speed>0.0</speed>
  <fix>3d</fix>
</trkpt>
<trkpt lat="-27.274439" lon="151.290064">
  <ele>343.1</ele>
  <time>2026-09-01T19:53:40Z</time>
  <course>270.0</course>
  <speed>0.0</speed>
  <fix>3d</fix>
</trkpt>
<trkpt lat="-27.274439" lon="151.290064">
  <ele>343.1</ele>
  <time>2026-09-01T19:53:40Z</time>
  <course>8.0</course>
  <speed>0.0</speed>
  <fix>3d</fix>
</trkpt>
<trkpt lat="-27.274439" lon="151.290064">
  <ele>343.1</ele>
  <time>2026-09-01T19:53:40Z</time>
  <course>270.0</course>
  <speed>0.0</speed>
  <fix>3d</fix>
</trkpt>
<trkpt lat="-27.274439" lon="151.290064">
  <ele>343.1</ele>
  <time>2026-09-01T19:53:40Z</time>
  <course>8.0</course>
  <speed>0.0</speed>
  <fix>3d</fix>
</trkpt>
<trkpt lat="-27.274439" lon="151.290064">
  <ele>343.1</ele>
  <time>2026-09-01T19:53:40Z</time>
  <course>270.0</course>
  <speed>0.0</speed>
  <fix>3d</fix>
</trkpt>
<trkpt lat="-27.274439" lon="151.290064">
  <ele>343.1</ele>
  <time>2026-09-01T19:53:40Z</time>
  <course>8.0</course>
  <speed>0.0</speed>
  <fix>3d</fix>
</trkpt>
<trkpt lat="-27.274439" lon="151.290064">
  <ele>343.1</ele>
  <time>2026-09-01T19:53:40Z</time>
  <course>270.0</course>
  <speed>0.0</speed>
  <fix>3d</fix>
</trkpt>
<trkpt lat="-27.274439" lon="151.290064">
  <ele>343.1</ele>
  <time>2026-09-01T19:53:40Z</time>
  <course>8.0</course>
  <speed>0.0</speed>
  <fix>3d</fix>
</trkpt>
<trkpt lat="-27.274439" lon="151.290064">
  <ele>343.1</ele>
  <time>2026-09-01T19:53:40Z</time>
  <course>270.0</course>
  <speed>0.0</speed>
  <fix>3d</fix>
</trkpt>
<trkpt lat="-27.274439" lon="151.290064">
  <ele>343.1</ele>
  <time>2026-09-01T19:53:40Z</time>
  <course>8.0</course>
  <speed>0.0</speed>
  <fix>3d</fix>
</trkpt>
<trkpt lat="-27.274439" lon="151.290064">
  <ele>343.1</ele>
  <time>2026-09-01T19:53:40Z</time>
  <course>270.0</course>
  <speed>0.0</speed>
  <fix>3d</fix>
</trkpt>
<trkpt lat="-27.274439" lon="151.290064">
  <ele>343.1</ele>
  <time>2026-09-01T19:53:40Z</time>
  <course>8.0</course>
  <speed>0.0</speed>
  <fix>3d</fix>
</trkpt>
<trkpt lat="-27.274439" lon="151.290064">
  <ele>343.1</ele>
  <time>2026-09-01T19:53:40Z</time>
  <course>270.0</course>
  <speed>0.0</speed>
  <fix>3d</fix>
</trkpt>
<trkpt lat="-27.274439" lon="151.290064">
  <ele>343.1</ele>
  <time>2026-09-01T19:53:40Z</time>
  <course>8.0</course>
  <speed>0.0</speed>
  <fix>3d</fix>
</trkpt>
<trkpt lat="-27.274439" lon="151.290064">
  <ele>343.1</ele>
  <time>2026-09-01T19:53:40Z</time>
  <course>270.0</course>
  <speed>0.0</speed>
  <fix>3d</fix>
</trkpt>
<trkpt lat="-27.274439" lon="151.290064">
  <ele>343.1</ele>
  <time>2026-09-01T19:53:40Z</time>
  <course>8.0</course>
  <speed>0.0</speed>
  <fix>3d</fix>
</trkpt>
<trkpt lat="-27.274439" lon="151.290064">
  <ele>343.1</ele>
  <time>2026-09-01T19:53:40Z</time>
  <course>270.0</course>
  <speed>0.0</speed>
  <fix>3d</fix>
</trkpt>
<trkpt lat="-27.274439" lon="151.290064">
  <ele>343.1</ele>
  <time>2026-09-01T19:53:40Z</time>
  <course>8.0</course>
  <speed>0.0</speed>
  <fix>3d</fix>
</trkpt>
<trkpt lat="-27.274439" lon="151.290064">
  <ele>343.1</ele>
  <time>2026-09-01T19:53:40Z</time>
  <course>270.0</course>
  <speed>0.0</speed>
  <fix>3d</fix>
</trkpt>
<trkpt lat="-27.274439" lon="151.290064">
  <ele>343.1</ele>
  <time>2026-09-01T19:53:40Z</time>
  <course>8.0</course>
  <speed>0.0</speed>
  <fix>3d</fix>
</trkpt>
<trkpt lat="-27.274439" lon="151.290064">
  <ele>343.1</ele>
  <time>2026-09-01T19:53:40Z</time>
  <course>270.0</course>
  <speed>0.0</speed>
  <fix>3d</fix>
</trkpt>
<trkpt lat="-27.274439" lon="151.290064">
  <ele>343.1</ele>
  <time>2026-09-01T19:53:40Z</time>
  <course>8.0</course>
  <speed>0.0</speed>
  <fix>3d</fix>
</trkpt>
<trkpt lat="-27.274439" lon="151.290064">
  <ele>343.1</ele>
  <time>2026-09-01T19:53:40Z</time>
  <course>270.0</course>
  <speed>0.0</speed>
  <fix>3d</fix>
</trkpt>
<trkpt lat="-27.274439" lon="151.290064">
  <ele>343.1</ele>
  <time>2026-09-01T19:53:40Z</time>
  <course>8.0</course>
  <speed>0.0</speed>
  <fix>3d</fix>
</trkpt>
<trkpt lat="-27.274439" lon="151.290064">
  <ele>343.1</ele>
  <time>2026-09-01T19:53:40Z</time>
  <course>270.0</course>
  <speed>0.0</speed>
  <fix>3d</fix>
</trkpt>
<trkpt lat="-27.274439" lon="151.290064">
  <ele>343.1</ele>
  <time>2026-09-01T19:53:40Z</time>
  <course>8.0</course>
  <speed>0.0</speed>
  <fix>3d</fix>
</trkpt>
<trkpt lat="-27.274439" lon="151.290064">
  <ele>343.1</ele>
  <time>2026-09-01T19:53:40Z</time>
  <course>270.0</course>
  <speed>0.0</speed>
  <fix>3d</fix>
</trkpt>
<trkpt lat="-27.274439" lon="151.290064">
  <ele>343.1</ele>
  <time>2026-09-01T19:53:40Z</time>
  <course>8.0</course>
  <speed>0.0</speed>
  <fix>3d</fix>
</trkpt>
<trkpt lat="-27.274439" lon="151.290064">
  <ele>343.1</ele>
  <time>2026-09-01T19:53:40Z</time>
  <course>270.0</course>
  <speed>0.0</speed>
  <fix>3d</fix>
</trkpt>
<trkpt lat="-27.274439" lon="151.290064">
  <ele>343.1</ele>
  <time>2026-09-01T19:53:40Z</time>
  <course>8.0</course>
  <speed>0.0</speed>
  <fix>3d</fix>
</trkpt>
<trkpt lat="-27.274439" lon="151.290064">
  <ele>343.1</ele>
  <time>2026-09-01T19:53:40Z</time>
  <course>270.0</course>
  <speed>0.0</speed>
  <fix>3d</fix>
</trkpt>
<trkpt lat="-27.274439" lon="151.290064">
  <ele>343.1</ele>
  <time>2026-09-01T19:53:40Z</time>
  <course>8.0</course>
  <speed>0.0</speed>
  <fix>3d</fix>
</trkpt>
<trkpt lat="-27.274439" lon="151.290064">
  <ele>343.1</ele>
  <time>2026-09-01T19:53:40Z</time>
  <course>270.0</course>
  <speed>0.0</speed>
  <fix>3d</fix>
</trkpt>
<trkpt lat="-27.274439" lon="151.290064">
  <ele>343.1</ele>
  <time>2026-09-01T19:53:40Z</time>
  <course>8.0</course>
  <speed>0.0</speed>
  <fix>3d</fix>
</trkpt>
<trkpt lat="-27.274439" lon="151.290064">
  <ele>343.1</ele>
  <time>2026-09-01T19:53:40Z</time>
  <course>270.0</course>
  <speed>0.0</speed>
  <fix>3d</fix>
</trkpt>
<trkpt lat="-27.274439" lon="151.290064">
  <ele>343.1</ele>
  <time>2026-09-01T19:53:40Z</time>
  <course>8.0</course>
  <speed>0.0</speed>
  <fix>3d</fix>
</trkpt>
<trkpt lat="-27.274439" lon="151.290064">
  <ele>343.1</ele>
  <time>2026-09-01T19:53:40Z</time>
  <course>270.0</course>
  <speed>0.0</speed>
  <fix>3d</fix>
</trkpt>
<trkpt lat="-27.274439" lon="151.290064">
  <ele>343.1</ele>
  <time>2026-09-01T19:53:40Z</time>
  <course>8.0</course>
  <speed>0.0</speed>
  <fix>3d</fix>
</trkpt>
<trkpt lat="-27.274439" lon="151.290064">
  <ele>343.1</ele>
  <time>2026-09-01T19:53:40Z</time>
  <course>270.0</course>
  <speed>0.0</speed>
  <fix>3d</fix>
</trkpt>
<trkpt lat="-27.274439" lon="151.290064">
  <ele>343.1</ele>
  <time>2026-09-01T19:53:40Z</time>
  <course>8.0</course>
  <speed>0.0</speed>
  <fix>3d</fix>
</trkpt>
<trkpt lat="-27.274439" lon="151.290064">
  <ele>343.1</ele>
  <time>2026-09-01T19:53:40Z</time>
  <course>270.0</course>
  <speed>0.0</speed>
  <fix>3d</fix>
</trkpt>
<trkpt lat="-27.274439" lon="151.290064">
  <ele>343.1</ele>
  <time>2026-09-01T19:53:40Z</time>
  <course>8.0</course>
  <speed>0.0</speed>
  <fix>3d</fix>
</trkpt>
<trkpt lat="-27.274439" lon="151.290064">
  <ele>343.1</ele>
  <time>2026-09-01T19:53:40Z</time>
  <course>270.0</course>
  <speed>0.0</speed>
  <fix>3d</fix>
</trkpt>
<trkpt lat="-27.274439" lon="151.290064">
  <ele>343.1</ele>
  <time>2026-09-01T19:53:40Z</time>
  <course>8.0</course>
  <speed>0.0</speed>
  <fix>3d</fix>
</trkpt>
<trkpt lat="-27.274439" lon="151.290064">
  <ele>343.1</ele>
  <time>2026-09-01T19:53:40Z</time>
  <course>270.0</course>
  <speed>0.0</speed>
  <fix>3d</fix>
</trkpt>
<trkpt lat="-27.274439" lon="151.290064">
  <ele>343.1</ele>
  <time>2026-09-01T19:53:40Z</time>
  <course>8.0</course>
  <speed>0.0</speed>
  <fix>3d</fix>
</trkpt>
<trkpt lat="-27.274439" lon="151.290064">
  <ele>343.1</ele>
  <time>2026-09-01T19:53:40Z</time>
  <course>270.0</course>
  <speed>0.0</speed>
  <fix>3d</fix>
</trkpt>
<trkpt lat="-27.274439" lon="151.290064">
  <ele>343.1</ele>
  <time>2026-09-01T19:53:40Z</time>
  <course>8.0</course>
  <speed>0.0</speed>
  <fix>3d</fix>
</trkpt>
<trkpt lat="-27.274439" lon="151.290064">
  <ele>343.1</ele>
  <time>2026-09-01T19:53:40Z</time>
  <course>139.59</course>
  <speed>0.0</speed>
  <fix>3d</fix>
</trkpt>
<trkpt lat="-27.274439" lon="151.290064">
  <ele>343.1</ele>
  <time>2026-09-01T19:53:40Z</time>
  <course>8.0</course>
  <speed>0.0</speed>
  <fix>3d</fix>
</trkpt>
<trkpt lat="-27.274439" lon="151.290064">
  <ele>343.1</ele>
  <time>2026-09-01T19:53:40Z</time>
  <course>8.0</course>
  <speed>0.0</speed>
  <fix>3d</fix>
</trkpt>
<trkpt lat="-27.274439" lon="151.290064">
  <ele>343.1</ele>
  <time>2026-09-01T19:53:40Z</time>
  <course>139.59</course>
  <speed>0.0</speed>
  <fix>3d</fix>
</trkpt>
<trkpt lat="-27.274439" lon="151.290064">
  <ele>343.1</ele>
  <time>2026-09-01T19:53:40Z</time>
  <course>8.0</course>
  <speed>0.0</speed>
  <fix>3d</fix>
</trkpt>
<trkpt lat="-27.274439" lon="151.290064">
  <ele>343.1</ele>
  <time>2026-09-01T19:53:40Z</time>
  <course>8.0</course>
  <speed>0.0</speed>
  <fix>3d</fix>
</trkpt>
<trkpt lat="-27.274439" lon="151.290064">
  <ele>343.1</ele>
  <time>2026-09-01T19:53:40Z</time>
  <course>322.45</course>
  <speed>0.0</speed>
  <fix>3d</fix>
</trkpt>
<trkpt lat="-27.274439" lon="151.290064">
  <ele>343.1</ele>
  <time>2026-09-01T19:53:40Z</time>
  <course>8.0</course>
  <speed>0.0</speed>
  <fix>3d</fix>
</trkpt>
<trkpt lat="-27.274439" lon="151.290064">
  <ele>343.1</ele>
  <time>2026-09-01T19:53:40Z</time>
  <course>8.0</course>
  <speed>0.0</speed>
  <fix>3d</fix>
</trkpt>
<trkpt lat="-27.274439" lon="151.290064">
  <ele>343.1</ele>
  <time>2026-09-01T19:53:40Z</time>
  <course>322.45</course>
  <speed>0.0</speed>
  <fix>3d</fix>
</trkpt>
<trkpt lat="-27.274439" lon="151.290064">
  <ele>343.1</ele>
  <time>2026-09-01T19:53:40Z</time>
  <course>8.0</course>
  <speed>0.0</speed>
  <fix>3d</fix>
</trkpt>
<trkpt lat="-27.274439" lon="151.290064">
  <ele>343.1</ele>
  <time>2026-09-01T19:53:40Z</time>
  <course>8.0</course>
  <speed>0.0</speed>
  <fix>3d</fix>
</trkpt>
<trkpt lat="-27.274439" lon="151.290064">
  <ele>343.1</ele>
  <time>2026-09-01T19:53:40Z</time>
  <course>321.53</course>
  <speed>0.0</speed>
  <fix>3d</fix>
</trkpt>
<trkpt lat="-27.274439" lon="151.290064">
  <ele>343.1</ele>
  <time>2026-09-01T19:53:40Z</time>
  <course>8.0</course>
  <speed>0.0</speed>
  <fix>3d</fix>
</trkpt>
<trkpt lat="-27.274439" lon="151.290064">
  <ele>343.1</ele>
  <time>2026-09-01T19:53:40Z</time>
  <course>321.53</course>
  <speed>0.0</speed>
  <fix>3d</fix>
</trkpt>
<trkpt lat="-27.274439" lon="151.290064">
  <ele>343.1</ele>
  <time>2026-09-01T19:53:40Z</time>
  <course>8.0</course>
  <speed>0.0</speed>
  <fix>3d</fix>
</trkpt>
<trkpt lat="-27.274439" lon="151.290064">
  <ele>343.1</ele>
  <time>2026-09-01T19:53:40Z</time>
  <course>8.0</course>
  <speed>0.0</speed>
  <fix>3d</fix>
</trkpt>
<trkpt lat="-27.274439" lon="151.290064">
  <ele>343.1</ele>
  <time>2026-09-01T19:53:40Z</time>
  <course>141.02</course>
  <speed>0.0</speed>
  <fix>3d</fix>
</trkpt>
<trkpt lat="-27.274439" lon="151.290064">
  <ele>343.1</ele>
  <time>2026-09-01T19:53:40Z</time>
  <course>8.0</course>
  <speed>0.0</speed>
  <fix>3d</fix>
</trkpt>
<trkpt lat="-27.274439" lon="151.290064">
  <ele>343.1</ele>
  <time>2026-09-01T19:53:40Z</time>
  <course>8.0</course>
  <speed>0.0</speed>
  <fix>3d</fix>
</trkpt>
<trkpt lat="-27.274439" lon="151.290064">
  <ele>343.1</ele>
  <time>2026-09-01T19:53:40Z</time>
  <course>141.02</course>
  <speed>0.0</speed>
  <fix>3d</fix>
</trkpt>
<trkpt lat="-27.274439" lon="151.290064">
  <ele>343.1</ele>
  <time>2026-09-01T19:53:40Z</time>
  <course>8.0</course>
  <speed>0.0</speed>
  <fix>3d</fix>
</trkpt>
<trkpt lat="-27.274439" lon="151.290064">
  <ele>343.1</ele>
  <time>2026-09-01T19:53:40Z</time>
  <course>8.0</course>
  <speed>0.0</speed>
  <fix>3d</fix>
</trkpt>
<trkpt lat="-27.274439" lon="151.290064">
  <ele>343.1</ele>
  <time>2026-09-01T19:53:40Z</time>
  <course>126.44</course>
  <speed>0.0</speed>
  <fix>3d</fix>
</trkpt>
<trkpt lat="-27.274439" lon="151.290064">
  <ele>343.1</ele>
  <time>2026-09-01T19:53:40Z</time>
  <course>8.0</course>
  <speed>0.0</speed>
  <fix>3d</fix>
</trkpt>
<trkpt lat="-27.274439" lon="151.290064">
  <ele>343.1</ele>
  <time>2026-09-01T19:53:40Z</time>
  <course>8.0</course>
  <speed>0.0</speed>
  <fix>3d</fix>
</trkpt>
<trkpt lat="-27.274439" lon="151.290064">
  <ele>343.1</ele>
  <time>2026-09-01T19:53:40Z</time>
  <course>126.44</course>
  <speed>0.0</speed>
  <fix>3d</fix>
</trkpt>
<trkpt lat="-27.274439" lon="151.290064">
  <ele>343.1</ele>
  <time>2026-09-01T19:53:40Z</time>
  <course>8.0</course>
  <speed>0.0</speed>
  <fix>3d</fix>
</trkpt>
<trkpt lat="-27.274439" lon="151.290064">
  <ele>343.11</ele>
  <time>2026-09-01T19:53:40Z</time>
  <course>8.0</course>
  <speed>0.0</speed>
  <fix>3d</fix>
</trkpt>
<trkpt lat="-27.274439" lon="151.290064">
  <ele>343.1</ele>
  <time>2026-09-01T19:53:40Z</time>
  <course>8.02</course>
  <speed>0.0</speed>
  <fix>3d</fix>
</trkpt>
<trkpt lat="-27.274439" lon="151.290064">
  <ele>343.12</ele>
  <time>2026-09-01T19:53:40Z</time>
  <course>8.0</course>
  <speed>0.0</speed>
  <fix>3d</fix>
</trkpt>
<trkpt lat="-27.274439" lon="151.290064">
  <ele>343.14</ele>
  <time>2026-09-01T19:53:40Z</time>
  <course>8.0</course>
  <speed>0.0</speed>
  <fix>3d</fix>
</trkpt>
<trkpt lat="-27.274439" lon="151.290064">
  <ele>343.1</ele>
  <time>2026-09-01T19:53:40Z</time>
  <course>8.02</course>
  <speed>0.0</speed>
  <fix>3d</fix>
</trkpt>
<trkpt lat="-27.274439" lon="151.290064">
  <ele>343.16</ele>
  <time>2026-09-01T19:53:40Z</time>
  <course>8.0</course>
  <speed>0.0</speed>
  <fix>3d</fix>
</trkpt>
<trkpt lat="-27.274439" lon="151.290064">
  <ele>343.19</ele>
  <time>2026-09-01T19:53:40Z</time>
  <course>8.0</course>
  <speed>0.0</speed>
  <fix>3d</fix>
</trkpt>
<trkpt lat="-27.274439" lon="151.290064">
  <ele>343.15</ele>
  <time>2026-09-01T19:53:40Z</time>
  <course>7.96</course>
  <speed>0.0</speed>
  <fix>3d</fix>
</trkpt>
<trkpt lat="-27.274439" lon="151.290064">
  <ele>343.19</ele>
  <time>2026-09-01T19:53:40Z</time>
  <course>8.0</course>
  <speed>0.0</speed>
  <fix>3d</fix>
</trkpt>
<trkpt lat="-27.274439" lon="151.290064">
  <ele>343.25</ele>
  <time>2026-09-01T19:53:40Z</time>
  <course>8.0</course>
  <speed>0.01</speed>
  <fix>3d</fix>
</trkpt>
<trkpt lat="-27.274439" lon="151.290064">
  <ele>343.15</ele>
  <time>2026-09-01T19:53:40Z</time>
  <course>7.96</course>
  <speed>0.0</speed>
  <fix>3d</fix>
</trkpt>
<trkpt lat="-27.274439" lon="151.290064">
  <ele>343.25</ele>
  <time>2026-09-01T19:53:40Z</time>
  <course>8.0</course>
  <speed>0.01</speed>
  <fix>3d</fix>
</trkpt>
<trkpt lat="-27.274439" lon="151.290064">
  <ele>343.36</ele>
  <time>2026-09-01T19:53:40Z</time>
  <course>8.0</course>
  <speed>0.03</speed>
  <fix>3d</fix>
</trkpt>
<trkpt lat="-27.274439" lon="151.290064">
  <ele>343.27</ele>
  <time>2026-09-01T19:53:40Z</time>
  <course>7.25</course>
  <speed>0.01</speed>
  <fix>3d</fix>
</trkpt>
<trkpt lat="-27.274439" lon="151.290064">
  <ele>343.41</ele>
  <time>2026-09-01T19:53:40Z</time>
  <course>8.0</course>
  <speed>0.04</speed>
  <fix>3d</fix>
</trkpt>
<trkpt lat="-27.274439" lon="151.290064">
  <ele>343.54</ele>
  <time>2026-09-01T19:53:40Z</time>
  <course>8.0</course>
  <speed>0.07</speed>
  <fix>3d</fix>
</trkpt>
<trkpt lat="-27.274439" lon="151.290064">
  <ele>343.27</ele>
  <time>2026-09-01T19:53:40Z</time>
  <course>7.25</course>
  <speed>0.01</speed>
  <fix>3d</fix>
</trkpt>
<trkpt lat="-27.274439" lon="151.290064">
  <ele>343.61</ele>
  <time>2026-09-01T19:53:40Z</time>
  <course>8.0</course>
  <speed>0.08062257748298549</speed>
  <fix>3d</fix>
</trkpt>
<trkpt lat="-27.274439" lon="151.290064">
  <ele>343.76</ele>
  <time>2026-09-01T19:53:40Z</time>
  <course>7.99</course>
  <speed>0.11045361017187261</speed>
  <fix>3d</fix>
</trkpt>
<trkpt lat="-27.274439" lon="151.290064">
  <ele>343.55</ele>
  <time>2026-09-01T19:53:40Z</time>
  <course>7.14</course>
  <speed>0.07</speed>
  <fix>3d</fix>
</trkpt>
<trkpt lat="-27.2744389" lon="151.290064">
  <ele>343.83</ele>
  <time>2026-09-01T19:53:40Z</time>
  <course>7.99</course>
  <speed>0.12041594578792296</speed>
  <fix>3d</fix>
</trkpt>
<trkpt lat="-27.2744389" lon="151.290064">
  <ele>344.0</ele>
  <time>2026-09-01T19:53:40Z</time>
  <course>7.99</course>
  <speed>0.140356688476182</speed>
  <fix>3d</fix>
</trkpt>
<trkpt lat="-27.274439" lon="151.290064">
  <ele>343.55</ele>
  <time>2026-09-01T19:53:40Z</time>
  <course>7.14</course>
  <speed>0.07</speed>
  <fix>3d</fix>
</trkpt>
<trkpt lat="-27.2744388" lon="151.290064">
  <ele>344.06</ele>
  <time>2026-09-01T19:53:40Z</time>
  <course>7.99</course>
  <speed>0.15132745950421556</speed>
  <fix>3d</fix>
</trkpt>
<trkpt lat="-27.2744387" lon="151.290064">
  <ele>344.23</ele>
  <time>2026-09-01T19:53:40Z</time>
  <course>7.98</course>
  <speed>0.18110770276274835</speed>
  <fix>3d</fix>
</trkpt>
<trkpt lat="-27.2744388" lon="151.290064">
  <ele>343.98</ele>
  <time>2026-09-01T19:53:40Z</time>
  <course>7.26</course>
  <speed>0.14</speed>
  <fix>3d</fix>
</trkpt>
<trkpt lat="-27.2744387" lon="151.290064">
  <ele>344.29</ele>
  <time>2026-09-01T19:53:40Z</time>
  <course>7.98</course>
  <speed>0.191049731745428</speed>
  <fix>3d</fix>
</trkpt>
<trkpt lat="-27.2744385" lon="151.290064">
  <ele>344.46</ele>
  <time>2026-09-01T19:53:40Z</time>
  <course>7.98</course>
  <speed>0.22090722034374521</speed>
  <fix>3d</fix>
</trkpt>
<trkpt lat="-27.2744388" lon="151.290064">
  <ele>343.98</ele>
  <time>2026-09-01T19:53:40Z</time>
  <course>7.26</course>
  <speed>0.14</speed>
  <fix>3d</fix>
</trkpt>
<trkpt lat="-27.2744385" lon="151.290064">
  <ele>344.53</ele>
  <time>2026-09-01T19:53:40Z</time>
  <course>7.98</course>
  <speed>0.23194827009486402</speed>
  <fix>3d</fix>
</trkpt>
<trkpt lat="-27.2744383" lon="151.2900641">
  <ele>344.69</ele>
  <time>2026-09-01T19:53:40Z</time>
  <course>7.98</course>
  <speed>0.25179356624028343</speed>
  <fix>3d</fix>
</trkpt>
<trkpt lat="-27.2744385" lon="151.290064">
  <ele>344.45</ele>
  <time>2026-09-01T19:53:40Z</time>
  <course>7.43</course>
  <speed>0.22</speed>
  <fix>3d</fix>
</trkpt>
<trkpt lat="-27.2744382" lon="151.2900641">
  <ele>344.81</ele>
  <time>2026-09-01T19:53:40Z</time>
  <course>7.97</course>
  <speed>0.27166155414412246</speed>
  <fix>3d</fix>
</trkpt>
<trkpt lat="-27.2744381" lon="151.2900641">
  <ele>344.92</ele>
  <time>2026-09-01T19:53:40Z</time>
  <course>7.97</course>
  <speed>0.2816025568065745</speed>
  <fix>3d</fix>
</trkpt>
<trkpt lat="-27.2744385" lon="151.290064">
  <ele>344.45</ele>
  <time>2026-09-01T19:53:40Z</time>
  <course>7.43</course>
  <speed>0.22</speed>
  <fix>3d</fix>
</trkpt>
<trkpt lat="-27.2744379" lon="151.2900641">
  <ele>345.02</ele>
  <time>2026-09-01T19:53:40Z</time>
  <course>7.97</course>
  <speed>0.3026549190084311</speed>
  <fix>3d</fix>
</trkpt>
<trkpt lat="-27.2744378" lon="151.2900641">
  <ele>345.14</ele>
  <time>2026-09-01T19:53:40Z</time>
  <course>7.97</course>
  <speed>0.32249030993194194</speed>
  <fix>3d</fix>
</trkpt>
<trkpt lat="-27.274438" lon="151.2900641">
  <ele>344.9</ele>
  <time>2026-09-01T19:53:40Z</time>
  <course>7.51</course>
  <speed>0.28</speed>
  <fix>3d</fix>
</trkpt>
<trkpt lat="-27.2744375" lon="151.2900642">
  <ele>345.36</ele>
  <time>2026-09-01T19:53:40Z</time>
  <course>7.97</course>
  <speed>0.3423448553724738</speed>
  <fix>3d</fix>
</trkpt>
<trkpt lat="-27.274438" lon="151.2900641">
  <ele>344.9</ele>
  <time>2026-09-01T19:53:40Z</time>
  <course>7.51</course>
  <speed>0.28</speed>
  <fix>3d</fix>
</trkpt>
<trkpt lat="-27.2744375" lon="151.2900642">
  <ele>345.37</ele>
  <time>2026-09-01T19:53:40Z</time>
  <course>7.97</course>
  <speed>0.3522782990761707</speed>
  <fix>3d</fix>
</trkpt>
<trkpt lat="-27.2744372" lon="151.2900642">
  <ele>345.57</ele>
  <time>2026-09-01T19:53:40Z</time>
  <course>7.97</course>
  <speed>0.3721558813185679</speed>
  <fix>3d</fix>
</trkpt>
<trkpt lat="-27.2744375" lon="151.2900641">
  <ele>345.34</ele>
  <time>2026-09-01T19:53:40Z</time>
  <course>7.54</course>
  <speed>0.34</speed>
  <fix>3d</fix>
</trkpt>
<trkpt lat="-27.2744368" lon="151.2900642">
  <ele>345.77</ele>
  <time>2026-09-01T19:53:40Z</time>
  <course>7.97</course>
  <speed>0.39319206502675</speed>
  <fix>3d</fix>
</trkpt>
<trkpt lat="-27.2744375" lon="151.2900641">
  <ele>345.34</ele>
  <time>2026-09-01T19:53:40Z</time>
  <course>7.54</course>
  <speed>0.34</speed>
  <fix>3d</fix>
</trkpt>
<trkpt lat="-27.2744368" lon="151.2900642">
  <ele>345.77</ele>
  <time>2026-09-01T19:53:40Z</time>
  <course>7.97</course>
  <speed>0.39319206502675</speed>
  <fix>3d</fix>
</trkpt>
<trkpt lat="-27.2744365" lon="151.2900642">
  <ele>345.96</ele>
  <time>2026-09-01T19:53:40Z</time>
  <course>7.98</course>
  <speed>0.41303752856126763</speed>
  <fix>3d</fix>
</trkpt>
<trkpt lat="-27.2744368" lon="151.2900642">
  <ele>345.75</ele>
  <time>2026-09-01T19:53:40Z</time>
  <course>7.57</course>
  <speed>0.39</speed>
  <fix>3d</fix>
</trkpt>
<trkpt lat="-27.2744364" lon="151.2900642">
  <ele>345.96</ele>
  <time>2026-09-01T19:53:40Z</time>
  <course>7.98</course>
  <speed>0.41303752856126763</speed>
  <fix>3d</fix>
</trkpt>
<trkpt lat="-27.2744361" lon="151.2900644">
  <ele>346.14</ele>
  <time>2026-09-01T19:53:40Z</time>
  <course>7.98</course>
  <speed>0.43289721643826723</speed>
  <fix>3d</fix>
</trkpt>
<trkpt lat="-27.2744368" lon="151.2900642">
  <ele>345.75</ele>
  <time>2026-09-01T19:53:40Z</time>
  <course>7.57</course>
  <speed>0.39</speed>
  <fix>3d</fix>
</trkpt>
<trkpt lat="-27.2744361" lon="151.2900644">
  <ele>346.14</ele>
  <time>2026-09-01T19:53:40Z</time>
  <course>7.98</course>
  <speed>0.43289721643826723</speed>
  <fix>3d</fix>
</trkpt>
<trkpt lat="-27.2744357" lon="151.2900644">
  <ele>346.31</ele>
  <time>2026-09-01T19:53:40Z</time>
  <course>7.98</course>
  <speed>0.4428317965096906</speed>
  <fix>3d</fix>
</trkpt>
<trkpt lat="-27.2744361" lon="151.2900643">
  <ele>346.12</ele>
  <time>2026-09-01T19:53:40Z</time>
  <course>7.6</course>
  <speed>0.43</speed>
  <fix>3d</fix>
</trkpt>
<trkpt lat="-27.2744356" lon="151.2900645">
  <ele>346.35</ele>
  <time>2026-09-01T19:53:40Z</time>
  <course>7.98</course>
  <speed>0.4440720662234904</speed>
  <fix>3d</fix>
</trkpt>
<trkpt lat="-27.2744353" lon="151.2900645">
  <ele>346.47</ele>
  <time>2026-09-01T19:53:40Z</time>
  <course>7.98</course>
  <speed>0.45398237851264667</speed>
  <fix>3d</fix>
</trkpt>
<trkpt lat="-27.2744361" lon="151.2900643">
  <ele>346.12</ele>
  <time>2026-09-01T19:53:40Z</time>
  <course>7.6</course>
  <speed>0.43</speed>
  <fix>3d</fix>
</trkpt>
<trkpt lat="-27.274435" lon="151.2900646">
  <ele>346.58</ele>
  <time>2026-09-01T19:53:40Z</time>
  <course>7.99</course>
  <speed>0.46389654018972803</speed>
  <fix>3d</fix>
</trkpt>
<trkpt lat="-27.2744349" lon="151.2900646">
  <ele>346.62</ele>
  <time>2026-09-01T19:53:40Z</time>
  <course>7.99</course>
  <speed>0.46389654018972803</speed>
  <fix>3d</fix>
</trkpt>
<trkpt lat="-27.2744353" lon="151.2900645">
  <ele>346.46</ele>
  <time>2026-09-01T19:53:40Z</time>
  <course>7.63</course>
  <speed>0.46</speed>
  <fix>3d</fix>
</trkpt>
<trkpt lat="-27.2744344" lon="151.2900646">
  <ele>346.77</ele>
  <time>2026-09-01T19:53:40Z</time>
  <course>7.99</course>
  <speed>0.4738143096192854</speed>
  <fix>3d</fix>
</trkpt>
<trkpt lat="-27.2744353" lon="151.2900645">
  <ele>346.46</ele>
  <time>2026-09-01T19:53:40Z</time>
  <course>7.63</course>
  <speed>0.46</speed>
  <fix>3d</fix>
</trkpt>
<trkpt lat="-27.2744344" lon="151.2900646">
  <ele>346.78</ele>
  <time>2026-09-01T19:53:40Z</time>
  <course>7.99</course>
  <speed>0.48373546489791297</speed>
  <fix>3d</fix>
</trkpt>
<trkpt lat="-27.274434" lon="151.2900646">
  <ele>346.91</ele>
  <time>2026-09-01T19:53:40Z</time>
  <course>7.99</course>
  <speed>0.48373546489791297</speed>
  <fix>3d</fix>
</trkpt>
<trkpt lat="-27.2744344" lon="151.2900646">
  <ele>346.76</ele>
  <time>2026-09-01T19:53:40Z</time>
  <course>7.64</course>
  <speed>0.48</speed>
  <fix>3d</fix>
</trkpt>
<trkpt lat="-27.274434" lon="151.2900646">
  <ele>346.92</ele>
  <time>2026-09-01T19:53:40Z</time>
  <course>7.99</course>
  <speed>0.48373546489791297</speed>
  <fix>3d</fix>
</trkpt>
<trkpt lat="-27.2744336" lon="151.2900647">
  <ele>347.05</ele>
  <time>2026-09-01T19:53:40Z</time>
  <course>7.99</course>
  <speed>0.4936598018878993</speed>
  <fix>3d</fix>
</trkpt>
<trkpt lat="-27.2744344" lon="151.2900646">
  <ele>346.76</ele>
  <time>2026-09-01T19:53:40Z</time>
  <course>7.64</course>
  <speed>0.48</speed>
  <fix>3d</fix>
</trkpt>
<trkpt lat="-27.2744333" lon="151.2900647">
  <ele>347.13</ele>
  <time>2026-09-01T19:53:41Z</time>
  <course>7.99</course>
  <speed>0.5035871324805669</speed>
  <fix>3d</fix>
</trkpt>
<trkpt lat="-27.2744331" lon="151.2900647">
  <ele>347.18</ele>
  <time>2026-09-01T19:53:41Z</time>
  <course>7.99</course>
  <speed>0.5035871324805669</speed>
  <fix>3d</fix>
</trkpt>
<trkpt lat="-27.2744335" lon="151.2900647">
  <ele>347.04</ele>
  <time>2026-09-01T19:53:41Z</time>
  <course>7.66</course>
  <speed>0.5</speed>
  <fix>3d</fix>
</trkpt>
<trkpt lat="-27.2744326" lon="151.2900649">
  <ele>347.32</ele>
  <time>2026-09-01T19:53:41Z</time>
  <course>7.99</course>
  <speed>0.5135172830587107</speed>
  <fix>3d</fix>
</trkpt>
<trkpt lat="-27.2744335" lon="151.2900647">
  <ele>347.04</ele>
  <time>2026-09-01T19:53:41Z</time>
  <course>7.66</course>
  <speed>0.5</speed>
  <fix>3d</fix>
</trkpt>
<trkpt lat="-27.2744326" lon="151.2900649">
  <ele>347.32</ele>
  <time>2026-09-01T19:53:41Z</time>
  <course>7.99</course>
  <speed>0.5135172830587107</speed>
  <fix>3d</fix>
</trkpt>
<trkpt lat="-27.2744322" lon="151.290065">
  <ele>347.45</ele>
  <time>2026-09-01T19:53:41Z</time>
  <course>7.99</course>
  <speed>0.5246903848937962</speed>
  <fix>3d</fix>
</trkpt>
<trkpt lat="-27.2744326" lon="151.2900649">
  <ele>347.31</ele>
  <time>2026-09-01T19:53:41Z</time>
  <course>7.68</course>
  <speed>0.51</speed>
  <fix>3d</fix>
</trkpt>
<trkpt lat="-27.2744322" lon="151.290065">
  <ele>347.45</ele>
  <time>2026-09-01T19:53:41Z</time>
  <course>7.99</course>
  <speed>0.5246903848937962</speed>
  <fix>3d</fix>
</trkpt>
<trkpt lat="-27.2744317" lon="151.2900651">
  <ele>347.58</ele>
  <time>2026-09-01T19:53:41Z</time>
  <course>7.99</course>
  <speed>0.5246903848937962</speed>
  <fix>3d</fix>
</trkpt>
<trkpt lat="-27.2744326" lon="151.2900649">
  <ele>347.31</ele>
  <time>2026-09-01T19:53:41Z</time>
  <course>7.68</course>
  <speed>0.51</speed>
  <fix>3d</fix>
</trkpt>
<trkpt lat="-27.2744316" lon="151.2900651">
  <ele>347.6</ele>
  <time>2026-09-01T19:53:41Z</time>
  <course>7.99</course>
  <speed>0.5246903848937962</speed>
  <fix>3d</fix>
</trkpt>
<trkpt lat="-27.2744312" lon="151.2900651">
  <ele>347.71</ele>
  <time>2026-09-01T19:53:41Z</time>
  <course>8.0</course>
  <speed>0.5346026561849464</speed>
  <fix>3d</fix>
</trkpt>
<trkpt lat="-27.2744317" lon="151.290065">
  <ele>347.57</ele>
  <time>2026-09-01T19:53:41Z</time>
  <course>7.71</course>
  <speed>0.53</speed>
  <fix>3d</fix>
</trkpt>
<trkpt lat="-27.2744311" lon="151.2900651">
  <ele>347.75</ele>
  <time>2026-09-01T19:53:41Z</time>
  <course>8.0</course>
  <speed>0.5346026561849464</speed>
  <fix>3d</fix>
</trkpt>
<trkpt lat="-27.2744307" lon="151.2900651">
  <ele>347.85</ele>
  <time>2026-09-01T19:53:41Z</time>
  <course>8.0</course>
  <speed>0.5445181356024793</speed>
  <fix>3d</fix>
</trkpt>
<trkpt lat="-27.2744317" lon="151.290065">
  <ele>347.57</ele>
  <time>2026-09-01T19:53:41Z</time>
  <course>7.71</course>
  <speed>0.53</speed>
  <fix>3d</fix>
</trkpt>
<trkpt lat="-27.2744305" lon="151.2900651">
  <ele>347.91</ele>
  <time>2026-09-01T19:53:41Z</time>
  <course>8.0</course>
  <speed>0.5445181356024793</speed>
  <fix>3d</fix>
</trkpt>
<trkpt lat="-27.2744303" lon="151.2900652">
  <ele>347.98</ele>
  <time>2026-09-01T19:53:41Z</time>
  <course>8.01</course>
  <speed>0.5445181356024793</speed>
  <fix>3d</fix>
</trkpt>
<trkpt lat="-27.2744308" lon="151.2900651">
  <ele>347.84</ele>
  <time>2026-09-01T19:53:41Z</time>
  <course>7.75</course>
  <speed>0.54</speed>
  <fix>3d</fix>
</trkpt>
<trkpt lat="-27.2744298" lon="151.2900652">
  <ele>348.12</ele>
  <time>2026-09-01T19:53:41Z</time>
  <course>8.01</course>
  <speed>0.5544366510251645</speed>
  <fix>3d</fix>
</trkpt>
<trkpt lat="-27.2744298" lon="151.2900652">
  <ele>348.12</ele>
  <time>2026-09-01T19:53:41Z</time>
  <course>8.01</course>
  <speed>0.5544366510251645</speed>
  <fix>3d</fix>
</trkpt>
<trkpt lat="-27.2744308" lon="151.2900651">
  <ele>347.84</ele>
  <time>2026-09-01T19:53:41Z</time>
  <course>7.75</course>
  <speed>0.54</speed>
  <fix>3d</fix>
</trkpt>
<trkpt lat="-27.2744293" lon="151.2900654">
  <ele>348.26</ele>
  <time>2026-09-01T19:53:41Z</time>
  <course>8.01</course>
  <speed>0.5643580423808985</speed>
  <fix>3d</fix>
</trkpt>
<trkpt lat="-27.2744298" lon="151.2900653">
  <ele>348.11</ele>
  <time>2026-09-01T19:53:41Z</time>
  <course>7.79</course>
  <speed>0.56</speed>
  <fix>3d</fix>
</trkpt>
<trkpt lat="-27.2744292" lon="151.2900654">
  <ele>348.27</ele>
  <time>2026-09-01T19:53:41Z</time>
  <course>8.01</course>
  <speed>0.5643580423808985</speed>
  <fix>3d</fix>
</trkpt>
<trkpt lat="-27.2744287" lon="151.2900655">
  <ele>348.4</ele>
  <time>2026-09-01T19:53:41Z</time>
  <course>8.01</course>
  <speed>0.5742821606144493</speed>
  <fix>3d</fix>
</trkpt>
<trkpt lat="-27.2744298" lon="151.2900653">
  <ele>348.11</ele>
  <time>2026-09-01T19:53:41Z</time>
  <course>7.79</course>
  <speed>0.56</speed>
  <fix>3d</fix>
</trkpt>
<trkpt lat="-27.2744287" lon="151.2900655">
  <ele>348.41</ele>
  <time>2026-09-01T19:53:41Z</time>
  <course>8.01</course>
  <speed>0.5742821606144493</speed>
  <fix>3d</fix>
</trkpt>
<trkpt lat="-27.2744282" lon="151.2900656">
  <ele>348.55</ele>
  <time>2026-09-01T19:53:41Z</time>
  <course>8.0</course>
  <speed>0.5842088667591412</speed>
  <fix>3d</fix>
</trkpt>
<trkpt lat="-27.2744287" lon="151.2900655">
  <ele>348.39</ele>
  <time>2026-09-01T19:53:41Z</time>
  <course>7.8</course>
  <speed>0.57</speed>
  <fix>3d</fix>
</trkpt>
<trkpt lat="-27.2744282" lon="151.2900656">
  <ele>348.55</ele>
  <time>2026-09-01T19:53:41Z</time>
  <course>8.0</course>
  <speed>0.5842088667591412</speed>
  <fix>3d</fix>
</trkpt>
<trkpt lat="-27.2744277" lon="151.2900656">
  <ele>348.69</ele>
  <time>2026-09-01T19:53:41Z</time>
  <course>8.0</course>
  <speed>0.5854912467321779</speed>
  <fix>3d</fix>
</trkpt>
<trkpt lat="-27.2744287" lon="151.2900655">
  <ele>348.39</ele>
  <time>2026-09-01T19:53:41Z</time>
  <course>7.8</course>
  <speed>0.57</speed>
  <fix>3d</fix>
</trkpt>
<trkpt lat="-27.2744277" lon="151.2900656">
  <ele>348.69</ele>
  <time>2026-09-01T19:53:41Z</time>
  <course>8.0</course>
  <speed>0.5854912467321779</speed>
  <fix>3d</fix>
</trkpt>
<trkpt lat="-27.2744272" lon="151.2900656">
  <ele>348.84</ele>
  <time>2026-09-01T19:53:41Z</time>
  <course>7.99</course>
  <speed>0.5953990258641678</speed>
  <fix>3d</fix>
</trkpt>
<trkpt lat="-27.2744276" lon="151.2900656">
  <ele>348.68</ele>
  <time>2026-09-01T19:53:41Z</time>
  <course>7.79</course>
  <speed>0.59</speed>
  <fix>3d</fix>
</trkpt>
<trkpt lat="-27.2744271" lon="151.2900657">
  <ele>348.84</ele>
  <time>2026-09-01T19:53:41Z</time>
  <course>7.99</course>
  <speed>0.5953990258641678</speed>
  <fix>3d</fix>
</trkpt>
<trkpt lat="-27.2744266" lon="151.2900657">
  <ele>348.98</ele>
  <time>2026-09-01T19:53:41Z</time>
  <course>7.99</course>
  <speed>0.6053098380168622</speed>
  <fix>3d</fix>
</trkpt>
<trkpt lat="-27.2744276" lon="151.2900656">
  <ele>348.68</ele>
  <time>2026-09-01T19:53:41Z</time>
  <course>7.79</course>
  <speed>0.59</speed>
  <fix>3d</fix>
</trkpt>
<trkpt lat="-27.2744266" lon="151.2900657">
  <ele>348.99</ele>
  <time>2026-09-01T19:53:41Z</time>
  <course>7.99</course>
  <speed>0.6053098380168622</speed>
  <fix>3d</fix>
</trkpt>
<trkpt lat="-27.2744261" lon="151.2900659">
  <ele>349.13</ele>
  <time>2026-09-01T19:53:41Z</time>
  <course>7.99</course>
  <speed>0.6152235366108809</speed>
  <fix>3d</fix>
</trkpt>
<trkpt lat="-27.2744266" lon="151.2900657">
  <ele>348.97</ele>
  <time>2026-09-01T19:53:41Z</time>
  <course>7.8</course>
  <speed>0.61</speed>
  <fix>3d</fix>
</trkpt>
<trkpt lat="-27.274426" lon="151.2900659">
  <ele>349.14</ele>
  <time>2026-09-01T19:53:41Z</time>
  <course>7.99</course>
  <speed>0.6152235366108809</speed>
  <fix>3d</fix>
</trkpt>
<trkpt lat="-27.2744255" lon="151.290066">
  <ele>349.28</ele>
  <time>2026-09-01T19:53:41Z</time>
  <course>7.99</course>
  <speed>0.6251399843235114</speed>
  <fix>3d</fix>
</trkpt>
<trkpt lat="-27.2744266" lon="151.2900657">
  <ele>348.97</ele>
  <time>2026-09-01T19:53:41Z</time>
  <course>7.8</course>
  <speed>0.61</speed>
  <fix>3d</fix>
</trkpt>
<trkpt lat="-27.2744255" lon="151.290066">
  <ele>349.28</ele>
  <time>2026-09-01T19:53:41Z</time>
  <course>7.99</course>
  <speed>0.6251399843235114</speed>
  <fix>3d</fix>
</trkpt>
<trkpt lat="-27.274425" lon="151.2900661">
  <ele>349.43</ele>
  <time>2026-09-01T19:53:41Z</time>
  <course>7.99</course>
  <speed>0.6251399843235114</speed>
  <fix>3d</fix>
</trkpt>
<trkpt lat="-27.2744255" lon="151.290066">
  <ele>349.27</ele>
  <time>2026-09-01T19:53:41Z</time>
  <course>7.84</course>
  <speed>0.62</speed>
  <fix>3d</fix>
</trkpt>
<trkpt lat="-27.2744249" lon="151.2900661">
  <ele>349.43</ele>
  <time>2026-09-01T19:53:41Z</time>
  <course>7.99</course>
  <speed>0.6251399843235114</speed>
  <fix>3d</fix>
</trkpt>
<trkpt lat="-27.2744244" lon="151.2900661">
  <ele>349.57</ele>
  <time>2026-09-01T19:53:41Z</time>
  <course>7.99</course>
  <speed>0.6350590523722971</speed>
  <fix>3d</fix>
</trkpt>
<trkpt lat="-27.2744255" lon="151.290066">
  <ele>349.27</ele>
  <time>2026-09-01T19:53:41Z</time>
  <course>7.84</course>
  <speed>0.62</speed>
  <fix>3d</fix>
</trkpt>
<trkpt lat="-27.2744244" lon="151.2900661">
  <ele>349.58</ele>
  <time>2026-09-01T19:53:41Z</time>
  <course>7.99</course>
  <speed>0.6350590523722971</speed>
  <fix>3d</fix>
</trkpt>
<trkpt lat="-27.2744238" lon="151.2900663">
  <ele>349.72</ele>
  <time>2026-09-01T19:53:41Z</time>
  <course>7.99</course>
  <speed>0.6449806198638839</speed>
  <fix>3d</fix>
</trkpt>
<trkpt lat="-27.2744244" lon="151.2900662">
  <ele>349.56</ele>
  <time>2026-09-01T19:53:41Z</time>
  <course>7.88</course>
  <speed>0.64</speed>
  <fix>3d</fix>
</trkpt>
<trkpt lat="-27.2744238" lon="151.2900663">
  <ele>349.73</ele>
  <time>2026-09-01T19:53:41Z</time>
  <course>7.99</course>
  <speed>0.6449806198638839</speed>
  <fix>3d</fix>
</trkpt>
<trkpt lat="-27.2744232" lon="151.2900664">
  <ele>349.87</ele>
  <time>2026-09-01T19:53:41Z</time>
  <course>7.99</course>
  <speed>0.6562011886609167</speed>
  <fix>3d</fix>
</trkpt>
<trkpt lat="-27.2744244" lon="151.2900662">
  <ele>349.56</ele>
  <time>2026-09-01T19:53:41Z</time>
  <course>7.88</course>
  <speed>0.64</speed>
  <fix>3d</fix>
</trkpt>
<trkpt lat="-27.2744232" lon="151.2900664">
  <ele>349.87</ele>
  <time>2026-09-01T19:53:41Z</time>
  <course>7.99</course>
  <speed>0.6562011886609167</speed>
  <fix>3d</fix>
</trkpt>
<trkpt lat="-27.2744226" lon="151.2900665">
  <ele>350.02</ele>
  <time>2026-09-01T19:53:41Z</time>
  <course>7.99</course>
  <speed>0.6661080993352355</speed>
  <fix>3d</fix>
</trkpt>
<trkpt lat="-27.2744232" lon="151.2900663">
  <ele>349.86</ele>
  <time>2026-09-01T19:53:41Z</time>
  <course>7.91</course>
  <speed>0.65</speed>
  <fix>3d</fix>
</trkpt>
<trkpt lat="-27.274422" lon="151.2900665">
  <ele>350.16</ele>
  <time>2026-09-01T19:53:41Z</time>
  <course>7.98</course>
  <speed>0.6661080993352355</speed>
  <fix>3d</fix>
</trkpt>
<trkpt lat="-27.2744232" lon="151.2900663">
  <ele>349.86</ele>
  <time>2026-09-01T19:53:41Z</time>
  <course>7.91</course>
  <speed>0.65</speed>
  <fix>3d</fix>
</trkpt>
<trkpt lat="-27.274422" lon="151.2900665">
  <ele>350.17</ele>
  <time>2026-09-01T19:53:41Z</time>
  <course>7.98</course>
  <speed>0.6661080993352355</speed>
  <fix>3d</fix>
</trkpt>
<trkpt lat="-27.2744214" lon="151.2900666">
  <ele>350.31</ele>
  <time>2026-09-01T19:53:41Z</time>
  <course>7.98</course>
  <speed>0.6760177512462228</speed>
  <fix>3d</fix>
</trkpt>
<trkpt lat="-27.2744221" lon="151.2900665">
  <ele>350.15</ele>
  <time>2026-09-01T19:53:41Z</time>
  <course>7.93</course>
  <speed>0.67</speed>
  <fix>3d</fix>
</trkpt>
<trkpt lat="-27.2744214" lon="151.2900666">
  <ele>350.31</ele>
  <time>2026-09-01T19:53:41Z</time>
  <course>7.98</course>
  <speed>0.6760177512462228</speed>
  <fix>3d</fix>
</trkpt>
<trkpt lat="-27.2744208" lon="151.2900666">
  <ele>350.45</ele>
  <time>2026-09-01T19:53:41Z</time>
  <course>7.98</course>
  <speed>0.6859300255857006</speed>
  <fix>3d</fix>
</trkpt>
<trkpt lat="-27.2744221" lon="151.2900665">
  <ele>350.15</ele>
  <time>2026-09-01T19:53:41Z</time>
  <course>7.93</course>
  <speed>0.67</speed>
  <fix>3d</fix>
</trkpt>
<trkpt lat="-27.2744203" lon="151.2900668">
  <ele>350.57</ele>
  <time>2026-09-01T19:53:41Z</time>
  <course>7.99</course>
  <speed>0.6859300255857006</speed>
  <fix>3d</fix>
</trkpt>
<trkpt lat="-27.2744202" lon="151.2900668">
  <ele>350.6</ele>
  <time>2026-09-01T19:53:41Z</time>
  <course>7.99</course>
  <speed>0.6958448102845921</speed>
  <fix>3d</fix>
</trkpt>
<trkpt lat="-27.2744209" lon="151.2900667">
  <ele>350.44</ele>
  <time>2026-09-01T19:53:41Z</time>
  <course>7.93</course>
  <speed>0.68</speed>
  <fix>3d</fix>
</trkpt>
<trkpt lat="-27.2744198" lon="151.2900669">
  <ele>350.68</ele>
  <time>2026-09-01T19:53:41Z</time>
  <course>7.99</course>
  <speed>0.6958448102845921</speed>
  <fix>3d</fix>
</trkpt>
<trkpt lat="-27.2744196" lon="151.2900669">
  <ele>350.74</ele>
  <time>2026-09-01T19:53:41Z</time>
  <course>7.99</course>
  <speed>0.6958448102845921</speed>
  <fix>3d</fix>
</trkpt>
<trkpt lat="-27.2744209" lon="151.2900667">
  <ele>350.44</ele>
  <time>2026-09-01T19:53:41Z</time>
  <course>7.93</course>
  <speed>0.68</speed>
  <fix>3d</fix>
</trkpt>
<trkpt lat="-27.2744196" lon="151.2900669">
  <ele>350.75</ele>
  <time>2026-09-01T19:53:41Z</time>
  <course>7.99</course>
  <speed>0.6958448102845921</speed>
  <fix>3d</fix>
</trkpt>
<trkpt lat="-27.274419" lon="151.290067">
  <ele>350.88</ele>
  <time>2026-09-01T19:53:41Z</time>
  <course>8.0</course>
  <speed>0.7057619995437555</speed>
  <fix>3d</fix>
</trkpt>
<trkpt lat="-27.2744196" lon="151.2900669">
  <ele>350.73</ele>
  <time>2026-09-01T19:53:41Z</time>
  <course>7.93</course>
  <speed>0.7</speed>
  <fix>3d</fix>
</trkpt>
<trkpt lat="-27.2744186" lon="151.290067">
  <ele>350.96</ele>
  <time>2026-09-01T19:53:41Z</time>
  <course>8.0</course>
  <speed>0.7057619995437555</speed>
  <fix>3d</fix>
</trkpt>
<trkpt lat="-27.2744183" lon="151.290067">
  <ele>351.03</ele>
  <time>2026-09-01T19:53:41Z</time>
  <course>8.01</course>
  <speed>0.7156814934033155</speed>
  <fix>3d</fix>
</trkpt>
<trkpt lat="-27.2744196" lon="151.2900669">
  <ele>350.73</ele>
  <time>2026-09-01T19:53:41Z</time>
  <course>7.93</course>
  <speed>0.7</speed>
  <fix>3d</fix>
</trkpt>
<trkpt lat="-27.2744177" lon="151.2900671">
  <ele>351.17</ele>
  <time>2026-09-01T19:53:41Z</time>
  <course>8.01</course>
  <speed>0.717007670809734</speed>
  <fix>3d</fix>
</trkpt>
<trkpt lat="-27.2744183" lon="151.290067">
  <ele>351.02</ele>
  <time>2026-09-01T19:53:41Z</time>
  <course>7.95</course>
  <speed>0.71</speed>
  <fix>3d</fix>
</trkpt>
<trkpt lat="-27.274417" lon="151.2900673">
  <ele>351.31</ele>
  <time>2026-09-01T19:53:41Z</time>
  <course>8.01</course>
  <speed>0.7269112738154498</speed>
  <fix>3d</fix>
</trkpt>
<trkpt lat="-27.2744183" lon="151.290067">
  <ele>351.02</ele>
  <time>2026-09-01T19:53:41Z</time>
  <course>7.95</course>
  <speed>0.71</speed>
  <fix>3d</fix>
</trkpt>
<trkpt lat="-27.274417" lon="151.2900673">
  <ele>351.32</ele>
  <time>2026-09-01T19:53:41Z</time>
  <course>8.01</course>
  <speed>0.7269112738154498</speed>
  <fix>3d</fix>
</trkpt>
<trkpt lat="-27.2744164" lon="151.2900674">
  <ele>351.46</ele>
  <time>2026-09-01T19:53:41Z</time>
  <course>8.01</course>
  <speed>0.7368174807915459</speed>
  <fix>3d</fix>
</trkpt>
<trkpt lat="-27.274417" lon="151.2900672">
  <ele>351.3</ele>
  <time>2026-09-01T19:53:41Z</time>
  <course>7.96</course>
  <speed>0.73</speed>
  <fix>3d</fix>
</trkpt>
<trkpt lat="-27.2744164" lon="151.2900674">
  <ele>351.46</ele>
  <time>2026-09-01T19:53:41Z</time>
  <course>8.01</course>
  <speed>0.7368174807915459</speed>
  <fix>3d</fix>
</trkpt>
<trkpt lat="-27.2744157" lon="151.2900675">
  <ele>351.6</ele>
  <time>2026-09-01T19:53:41Z</time>
  <course>8.01</course>
  <speed>0.7368174807915459</speed>
  <fix>3d</fix>
</trkpt>
<trkpt lat="-27.274417" lon="151.2900672">
  <ele>351.3</ele>
  <time>2026-09-01T19:53:41Z</time>
  <course>7.96</course>
  <speed>0.73</speed>
  <fix>3d</fix>
</trkpt>
<trkpt lat="-27.2744155" lon="151.2900675">
  <ele>351.64</ele>
  <time>2026-09-01T19:53:41Z</time>
  <course>8.01</course>
  <speed>0.7467261881037789</speed>
  <fix>3d</fix>
</trkpt>
<trkpt lat="-27.2744151" lon="151.2900675">
  <ele>351.74</ele>
  <time>2026-09-01T19:53:41Z</time>
  <course>8.0</course>
  <speed>0.7467261881037789</speed>
  <fix>3d</fix>
</trkpt>
<trkpt lat="-27.2744157" lon="151.2900675">
  <ele>351.59</ele>
  <time>2026-09-01T19:53:41Z</time>
  <course>7.93</course>
  <speed>0.74</speed>
  <fix>3d</fix>
</trkpt>
<trkpt lat="-27.2744145" lon="151.2900676">
  <ele>351.86</ele>
  <time>2026-09-01T19:53:41Z</time>
  <course>8.0</course>
  <speed>0.7566372975210779</speed>
  <fix>3d</fix>
</trkpt>
<trkpt lat="-27.2744144" lon="151.2900676">
  <ele>351.88</ele>
  <time>2026-09-01T19:53:41Z</time>
  <course>8.0</course>
  <speed>0.7566372975210779</speed>
  <fix>3d</fix>
</trkpt>
<trkpt lat="-27.2744157" lon="151.2900675">
  <ele>351.59</ele>
  <time>2026-09-01T19:53:41Z</time>
  <course>7.93</course>
  <speed>0.74</speed>
  <fix>3d</fix>
</trkpt>
<trkpt lat="-27.2744139" lon="151.2900678">
  <ele>351.98</ele>
  <time>2026-09-01T19:53:41Z</time>
  <course>8.0</course>
  <speed>0.7566372975210779</speed>
  <fix>3d</fix>
</trkpt>
<trkpt lat="-27.2744137" lon="151.2900679">
  <ele>352.03</ele>
  <time>2026-09-01T19:53:41Z</time>
  <course>8.0</course>
  <speed>0.7566372975210779</speed>
  <fix>3d</fix>
</trkpt>
<trkpt lat="-27.2744144" lon="151.2900677">
  <ele>351.87</ele>
  <time>2026-09-01T19:53:41Z</time>
  <course>7.91</course>
  <speed>0.75</speed>
  <fix>3d</fix>
</trkpt>
<trkpt lat="-27.2744134" lon="151.2900679">
  <ele>352.09</ele>
  <time>2026-09-01T19:53:41Z</time>
  <course>7.99</course>
  <speed>0.766550715869472</speed>
  <fix>3d</fix>
</trkpt>
<trkpt lat="-27.274413" lon="151.290068">
  <ele>352.17</ele>
  <time>2026-09-01T19:53:41Z</time>
  <course>7.99</course>
  <speed>0.766550715869472</speed>
  <fix>3d</fix>
</trkpt>
<trkpt lat="-27.2744144" lon="151.2900677">
  <ele>351.87</ele>
  <time>2026-09-01T19:53:41Z</time>
  <course>7.91</course>
  <speed>0.75</speed>
  <fix>3d</fix>
</trkpt>
<trkpt lat="-27.274413" lon="151.290068">
  <ele>352.18</ele>
  <time>2026-09-01T19:53:41Z</time>
  <course>7.99</course>
  <speed>0.766550715869472</speed>
  <fix>3d</fix>
</trkpt>
<trkpt lat="-27.2744123" lon="151.290068">
  <ele>352.31</ele>
  <time>2026-09-01T19:53:41Z</time>
  <course>7.99</course>
  <speed>0.7764663547121665</speed>
  <fix>3d</fix>
</trkpt>
<trkpt lat="-27.274413" lon="151.2900679">
  <ele>352.16</ele>
  <time>2026-09-01T19:53:41Z</time>
  <course>7.92</course>
  <speed>0.77</speed>
  <fix>3d</fix>
</trkpt>
<trkpt lat="-27.2744121" lon="151.290068">
  <ele>352.36</ele>
  <time>2026-09-01T19:53:41Z</time>
  <course>8.0</course>
  <speed>0.7764663547121665</speed>
  <fix>3d</fix>
</trkpt>
<trkpt lat="-27.2744116" lon="151.2900681">
  <ele>352.46</ele>
  <time>2026-09-01T19:53:41Z</time>
  <course>8.0</course>
  <speed>0.7764663547121665</speed>
  <fix>3d</fix>
</trkpt>
<trkpt lat="-27.274413" lon="151.2900679">
  <ele>352.16</ele>
  <time>2026-09-01T19:53:41Z</time>
  <course>7.92</course>
  <speed>0.77</speed>
  <fix>3d</fix>
</trkpt>
<trkpt lat="-27.2744114" lon="151.2900681">
  <ele>352.5</ele>
  <time>2026-09-01T19:53:41Z</time>
  <course>8.0</course>
  <speed>0.7863841300535</speed>
  <fix>3d</fix>
</trkpt>
<trkpt lat="-27.2744109" lon="151.2900683">
  <ele>352.6</ele>
  <time>2026-09-01T19:53:41Z</time>
  <course>8.01</course>
  <speed>0.7877182237323191</speed>
  <fix>3d</fix>
</trkpt>
<trkpt lat="-27.2744117" lon="151.2900682">
  <ele>352.45</ele>
  <time>2026-09-01T19:53:41Z</time>
  <course>7.97</course>
  <speed>0.78</speed>
  <fix>3d</fix>
</trkpt>
<trkpt lat="-27.2744102" lon="151.2900684">
  <ele>352.74</ele>
  <time>2026-09-01T19:53:41Z</time>
  <course>8.01</course>
  <speed>0.7976214641043707</speed>
  <fix>3d</fix>
</trkpt>
<trkpt lat="-27.2744117" lon="151.2900682">
  <ele>352.45</ele>
  <time>2026-09-01T19:53:41Z</time>
  <course>7.97</course>
  <speed>0.78</speed>
  <fix>3d</fix>
</trkpt>
<trkpt lat="-27.2744102" lon="151.2900684">
  <ele>352.75</ele>
  <time>2026-09-01T19:53:41Z</time>
  <course>8.01</course>
  <speed>0.7976214641043707</speed>
  <fix>3d</fix>
</trkpt>
<trkpt lat="-27.2744095" lon="151.2900685">
  <ele>352.89</ele>
  <time>2026-09-01T19:53:41Z</time>
  <course>8.01</course>
  <speed>0.7976214641043707</speed>
  <fix>3d</fix>
</trkpt>
<trkpt lat="-27.2744102" lon="151.2900684">
  <ele>352.73</ele>
  <time>2026-09-01T19:53:41Z</time>
  <course>8.01</course>
  <speed>0.79</speed>
  <fix>3d</fix>
</trkpt>
<trkpt lat="-27.2744092" lon="151.2900685">
  <ele>352.95</ele>
  <time>2026-09-01T19:53:41Z</time>
  <course>8.0</course>
  <speed>0.8075270893288967</speed>
  <fix>3d</fix>
</trkpt>
<trkpt lat="-27.2744088" lon="151.2900685">
  <ele>353.03</ele>
  <time>2026-09-01T19:53:41Z</time>
  <course>8.0</course>
  <speed>0.8075270893288967</speed>
  <fix>3d</fix>
</trkpt>
<trkpt lat="-27.2744102" lon="151.2900684">
  <ele>352.73</ele>
  <time>2026-09-01T19:53:41Z</time>
  <course>8.01</course>
  <speed>0.79</speed>
  <fix>3d</fix>
</trkpt>
<trkpt lat="-27.2744081" lon="151.2900687">
  <ele>353.17</ele>
  <time>2026-09-01T19:53:41Z</time>
  <course>8.0</course>
  <speed>0.8174350127074322</speed>
  <fix>3d</fix>
</trkpt>
<trkpt lat="-27.2744081" lon="151.2900687">
  <ele>353.17</ele>
  <time>2026-09-01T19:53:41Z</time>
  <course>8.0</course>
  <speed>0.8174350127074322</speed>
  <fix>3d</fix>
</trkpt>
<trkpt lat="-27.2744087" lon="151.2900685">
  <ele>353.02</ele>
  <time>2026-09-01T19:53:41Z</time>
  <course>8.03</course>
  <speed>0.81</speed>
  <fix>3d</fix>
</trkpt>
<trkpt lat="-27.2744073" lon="151.2900689">
  <ele>353.32</ele>
  <time>2026-09-01T19:53:41Z</time>
  <course>8.0</course>
  <speed>0.8174350127074322</speed>
  <fix>3d</fix>
</trkpt>
<trkpt lat="-27.2744087" lon="151.2900685">
  <ele>353.02</ele>
  <time>2026-09-01T19:53:41Z</time>
  <course>8.03</course>
  <speed>0.81</speed>
  <fix>3d</fix>
</trkpt>
<trkpt lat="-27.2744066" lon="151.290069">
  <ele>353.46</ele>
  <time>2026-09-01T19:53:41Z</time>
  <course>8.0</course>
  <speed>0.8273451516749222</speed>
  <fix>3d</fix>
</trkpt>
<trkpt lat="-27.2744073" lon="151.2900688">
  <ele>353.31</ele>
  <time>2026-09-01T19:53:41Z</time>
  <course>8.05</course>
  <speed>0.82</speed>
  <fix>3d</fix>
</trkpt>
<trkpt lat="-27.2744058" lon="151.290069">
  <ele>353.6</ele>
  <time>2026-09-01T19:53:41Z</time>
  <course>8.0</course>
  <speed>0.8372574275573791</speed>
  <fix>3d</fix>
</trkpt>
<trkpt lat="-27.2744073" lon="151.2900688">
  <ele>353.31</ele>
  <time>2026-09-01T19:53:41Z</time>
  <course>8.05</course>
  <speed>0.82</speed>
  <fix>3d</fix>
</trkpt>
<trkpt lat="-27.2744051" lon="151.2900692">
  <ele>353.74</ele>
  <time>2026-09-01T19:53:41Z</time>
  <course>8.0</course>
  <speed>0.8372574275573791</speed>
  <fix>3d</fix>
</trkpt>
<trkpt lat="-27.2744058" lon="151.290069">
  <ele>353.59</ele>
  <time>2026-09-01T19:53:41Z</time>
  <course>8.07</course>
  <speed>0.84</speed>
  <fix>3d</fix>
</trkpt>
<trkpt lat="-27.2744051" lon="151.2900692">
  <ele>353.74</ele>
  <time>2026-09-01T19:53:41Z</time>
  <course>8.0</course>
  <speed>0.8372574275573791</speed>
  <fix>3d</fix>
</trkpt>
<trkpt lat="-27.2744043" lon="151.2900693">
  <ele>353.87</ele>
  <time>2026-09-01T19:53:41Z</time>
  <course>8.0</course>
  <speed>0.8471717653463199</speed>
  <fix>3d</fix>
</trkpt>
<trkpt lat="-27.2744058" lon="151.290069">
  <ele>353.59</ele>
  <time>2026-09-01T19:53:41Z</time>
  <course>8.07</course>
  <speed>0.84</speed>
  <fix>3d</fix>
</trkpt>
<trkpt lat="-27.2744043" lon="151.2900693">
  <ele>353.87</ele>
  <time>2026-09-01T19:53:41Z</time>
  <course>8.0</course>
  <speed>0.8471717653463199</speed>
  <fix>3d</fix>
</trkpt>
<trkpt lat="-27.2744036" lon="151.2900694">
  <ele>353.98</ele>
  <time>2026-09-01T19:53:41Z</time>
  <course>8.0</course>
  <speed>0.8471717653463199</speed>
  <fix>3d</fix>
</trkpt>
<trkpt lat="-27.2744043" lon="151.2900693">
  <ele>353.85</ele>
  <time>2026-09-01T19:53:41Z</time>
  <course>8.05</course>
  <speed>0.85</speed>
  <fix>3d</fix>
</trkpt>
<trkpt lat="-27.2744034" lon="151.2900694">
  <ele>354.0</ele>
  <time>2026-09-01T19:53:41Z</time>
  <course>8.0</course>
  <speed>0.8471717653463199</speed>
  <fix>3d</fix>
</trkpt>
<trkpt lat="-27.2744028" lon="151.2900695">
  <ele>354.08</ele>
  <time>2026-09-01T19:53:41Z</time>
  <course>8.0</course>
  <speed>0.8584287972802404</speed>
  <fix>3d</fix>
</trkpt>
<trkpt lat="-27.2744043" lon="151.2900693">
  <ele>353.85</ele>
  <time>2026-09-01T19:53:41Z</time>
  <course>8.05</course>
  <speed>0.85</speed>
  <fix>3d</fix>
</trkpt>
<trkpt lat="-27.2744025" lon="151.2900695">
  <ele>354.11</ele>
  <time>2026-09-01T19:53:41Z</time>
  <course>8.0</course>
  <speed>0.8584287972802404</speed>
  <fix>3d</fix>
</trkpt>
<trkpt lat="-27.274402" lon="151.2900697">
  <ele>354.16</ele>
  <time>2026-09-01T19:53:41Z</time>
  <course>8.0</course>
  <speed>0.8584287972802404</speed>
  <fix>3d</fix>
</trkpt>
<trkpt lat="-27.2744028" lon="151.2900695">
  <ele>354.06</ele>
  <time>2026-09-01T19:53:41Z</time>
  <course>8.03</course>
  <speed>0.86</speed>
  <fix>3d</fix>
</trkpt>
<trkpt lat="-27.2744018" lon="151.2900697">
  <ele>354.18</ele>
  <time>2026-09-01T19:53:41Z</time>
  <course>8.0</course>
  <speed>0.8584287972802404</speed>
  <fix>3d</fix>
</trkpt>
<trkpt lat="-27.2744013" lon="151.2900698">
  <ele>354.22</ele>
  <time>2026-09-01T19:53:41Z</time>
  <course>8.0</course>
  <speed>0.8584287972802404</speed>
  <fix>3d</fix>
</trkpt>
<trkpt lat="-27.2744028" lon="151.2900695">
  <ele>354.06</ele>
  <time>2026-09-01T19:53:41Z</time>
  <course>8.03</course>
  <speed>0.86</speed>
  <fix>3d</fix>
</trkpt>
<trkpt lat="-27.2744008" lon="151.2900699">
  <ele>354.25</ele>
  <time>2026-09-01T19:53:41Z</time>
  <course>8.0</course>
  <speed>0.8683317338436964</speed>
  <fix>3d</fix>
</trkpt>
<trkpt lat="-27.2744005" lon="151.2900699">
  <ele>354.26</ele>
  <time>2026-09-01T19:53:41Z</time>
  <course>8.0</course>
  <speed>0.8683317338436964</speed>
  <fix>3d</fix>
</trkpt>
<trkpt lat="-27.2744013" lon="151.2900698">
  <ele>354.2</ele>
  <time>2026-09-01T19:53:41Z</time>
  <course>8.01</course>
  <speed>0.86</speed>
  <fix>3d</fix>
</trkpt>
<trkpt lat="-27.2744002" lon="151.2900699">
  <ele>354.28</ele>
  <time>2026-09-01T19:53:41Z</time>
  <course>8.0</course>
  <speed>0.8683317338436964</speed>
  <fix>3d</fix>
</trkpt>
<trkpt lat="-27.2743997" lon="151.29007">
  <ele>354.29</ele>
  <time>2026-09-01T19:53:41Z</time>
  <course>8.0</course>
  <speed>0.8683317338436964</speed>
  <fix>3d</fix>
</trkpt>
<trkpt lat="-27.2744013" lon="151.2900698">
  <ele>354.2</ele>
  <time>2026-09-01T19:53:41Z</time>
  <course>8.01</course>
  <speed>0.86</speed>
  <fix>3d</fix>
</trkpt>
<trkpt lat="-27.2743994" lon="151.29007">
  <ele>354.3</ele>
  <time>2026-09-01T19:53:41Z</time>
  <course>8.0</course>
  <speed>0.8683317338436964</speed>
  <fix>3d</fix>
</trkpt>
<trkpt lat="-27.274399" lon="151.2900702">
  <ele>354.31</ele>
  <time>2026-09-01T19:53:41Z</time>
  <course>8.0</course>
  <speed>0.8683317338436964</speed>
  <fix>3d</fix>
</trkpt>
<trkpt lat="-27.2743997" lon="151.29007">
  <ele>354.28</ele>
  <time>2026-09-01T19:53:41Z</time>
  <course>8.0</course>
  <speed>0.87</speed>
  <fix>3d</fix>
</trkpt>
<trkpt lat="-27.2743987" lon="151.2900702">
  <ele>354.31</ele>
  <time>2026-09-01T19:53:41Z</time>
  <course>8.0</course>
  <speed>0.8683317338436964</speed>
  <fix>3d</fix>
</trkpt>
<trkpt lat="-27.2743982" lon="151.2900703">
  <ele>354.31</ele>
  <time>2026-09-01T19:53:41Z</time>
  <course>8.0</course>
  <speed>0.8683317338436964</speed>
  <fix>3d</fix>
</trkpt>
<trkpt lat="-27.2743997" lon="151.29007">
  <ele>354.28</ele>
  <time>2026-09-01T19:53:41Z</time>
  <course>8.0</course>
  <speed>0.87</speed>
  <fix>3d</fix>
</trkpt>
<trkpt lat="-27.2743979" lon="151.2900704">
  <ele>354.31</ele>
  <time>2026-09-01T19:53:41Z</time>
  <course>8.0</course>
  <speed>0.8683317338436964</speed>
  <fix>3d</fix>
</trkpt>
<trkpt lat="-27.2743974" lon="151.2900704">
  <ele>354.3</ele>
  <time>2026-09-01T19:53:41Z</time>
  <course>8.01</course>
  <speed>0.8683317338436964</speed>
  <fix>3d</fix>
</trkpt>
<trkpt lat="-27.2743982" lon="151.2900703">
  <ele>354.3</ele>
  <time>2026-09-01T19:53:41Z</time>
  <course>8.0</course>
  <speed>0.87</speed>
  <fix>3d</fix>
</trkpt>
<trkpt lat="-27.2743971" lon="151.2900704">
  <ele>354.3</ele>
  <time>2026-09-01T19:53:41Z</time>
  <course>8.01</course>
  <speed>0.8683317338436964</speed>
  <fix>3d</fix>
</trkpt>
<trkpt lat="-27.2743966" lon="151.2900706">
  <ele>354.29</ele>
  <time>2026-09-01T19:53:41Z</time>
  <course>8.01</course>
  <speed>0.8683317338436964</speed>
  <fix>3d</fix>
</trkpt>
<trkpt lat="-27.2743982" lon="151.2900703">
  <ele>354.3</ele>
  <time>2026-09-01T19:53:41Z</time>
  <course>8.0</course>
  <speed>0.87</speed>
  <fix>3d</fix>
</trkpt>
<trkpt lat="-27.2743963" lon="151.2900706">
  <ele>354.28</ele>
  <time>2026-09-01T19:53:41Z</time>
  <course>8.01</course>
  <speed>0.8683317338436964</speed>
  <fix>3d</fix>
</trkpt>
<trkpt lat="-27.2743958" lon="151.2900707">
  <ele>354.27</ele>
  <time>2026-09-01T19:53:41Z</time>
  <course>8.01</course>
  <speed>0.8683317338436964</speed>
  <fix>3d</fix>
</trkpt>
<trkpt lat="-27.2743966" lon="151.2900705">
  <ele>354.28</ele>
  <time>2026-09-01T19:53:41Z</time>
  <course>8.0</course>
  <speed>0.87</speed>
  <fix>3d</fix>
</trkpt>
<trkpt lat="-27.2743958" lon="151.2900707">
  <ele>354.27</ele>
  <time>2026-09-01T19:53:41Z</time>
  <course>8.01</course>
  <speed>0.8683317338436964</speed>
  <fix>3d</fix>
</trkpt>
<trkpt lat="-27.2743951" lon="151.2900708">
  <ele>354.25</ele>
  <time>2026-09-01T19:53:41Z</time>
  <course>8.01</course>
  <speed>0.8683317338436964</speed>
  <fix>3d</fix>
</trkpt>
<trkpt lat="-27.2743966" lon="151.2900705">
  <ele>354.28</ele>
  <time>2026-09-01T19:53:41Z</time>
  <course>8.0</course>
  <speed>0.87</speed>
  <fix>3d</fix>
</trkpt>
<trkpt lat="-27.274395" lon="151.2900708">
  <ele>354.25</ele>
  <time>2026-09-01T19:53:41Z</time>
  <course>8.01</course>
  <speed>0.8683317338436964</speed>
  <fix>3d</fix>
</trkpt>
<trkpt lat="-27.2743943" lon="151.2900709">
  <ele>354.23</ele>
  <time>2026-09-01T19:53:41Z</time>
  <course>8.01</course>
  <speed>0.8782368700982669</speed>
  <fix>3d</fix>
</trkpt>
<trkpt lat="-27.2743951" lon="151.2900708">
  <ele>354.25</ele>
  <time>2026-09-01T19:53:41Z</time>
  <course>8.0</course>
  <speed>0.87</speed>
  <fix>3d</fix>
</trkpt>
<trkpt lat="-27.274394" lon="151.2900709">
  <ele>354.22</ele>
  <time>2026-09-01T19:53:41Z</time>
  <course>8.0</course>
  <speed>0.8782368700982669</speed>
  <fix>3d</fix>
</trkpt>
<trkpt lat="-27.2743935" lon="151.2900711">
  <ele>354.21</ele>
  <time>2026-09-01T19:53:41Z</time>
  <course>8.0</course>
  <speed>0.8782368700982669</speed>
  <fix>3d</fix>
</trkpt>
<trkpt lat="-27.2743951" lon="151.2900708">
  <ele>354.25</ele>
  <time>2026-09-01T19:53:41Z</time>
  <course>8.0</course>
  <speed>0.87</speed>
  <fix>3d</fix>
</trkpt>
<trkpt lat="-27.2743933" lon="151.2900711">
  <ele>354.21</ele>
  <time>2026-09-01T19:53:41Z</time>
  <course>8.0</course>
  <speed>0.8782368700982669</speed>
  <fix>3d</fix>
</trkpt>
<trkpt lat="-27.2743927" lon="151.2900712">
  <ele>354.2</ele>
  <time>2026-09-01T19:53:41Z</time>
  <course>8.0</course>
  <speed>0.8782368700982669</speed>
  <fix>3d</fix>
</trkpt>
<trkpt lat="-27.2743935" lon="151.290071">
  <ele>354.21</ele>
  <time>2026-09-01T19:53:41Z</time>
  <course>8.0</course>
  <speed>0.87</speed>
  <fix>3d</fix>
</trkpt>
<trkpt lat="-27.2743925" lon="151.2900712">
  <ele>354.19</ele>
  <time>2026-09-01T19:53:41Z</time>
  <course>8.0</course>
  <speed>0.8782368700982669</speed>
  <fix>3d</fix>
</trkpt>
<trkpt lat="-27.2743919" lon="151.2900713">
  <ele>354.18</ele>
  <time>2026-09-01T19:53:41Z</time>
  <course>8.0</course>
  <speed>0.8782368700982669</speed>
  <fix>3d</fix>
</trkpt>
<trkpt lat="-27.2743935" lon="151.290071">
  <ele>354.21</ele>
  <time>2026-09-01T19:53:41Z</time>
  <course>8.0</course>
  <speed>0.87</speed>
  <fix>3d</fix>
</trkpt>
<trkpt lat="-27.2743917" lon="151.2900713">
  <ele>354.18</ele>
  <time>2026-09-01T19:53:41Z</time>
  <course>8.0</course>
  <speed>0.8782368700982669</speed>
  <fix>3d</fix>
</trkpt>
<trkpt lat="-27.2743911" lon="151.2900713">
  <ele>354.18</ele>
  <time>2026-09-01T19:53:41Z</time>
  <course>8.0</course>
  <speed>0.8782368700982669</speed>
  <fix>3d</fix>
</trkpt>
<trkpt lat="-27.274392" lon="151.2900713">
  <ele>354.19</ele>
  <time>2026-09-01T19:53:41Z</time>
  <course>8.0</course>
  <speed>0.88</speed>
  <fix>3d</fix>
</trkpt>
<trkpt lat="-27.2743906" lon="151.2900714">
  <ele>354.17</ele>
  <time>2026-09-01T19:53:41Z</time>
  <course>8.0</course>
  <speed>0.8782368700982669</speed>
  <fix>3d</fix>
</trkpt>
<trkpt lat="-27.2743904" lon="151.2900716">
  <ele>354.17</ele>
  <time>2026-09-01T19:53:41Z</time>
  <course>8.0</course>
  <speed>0.8782368700982669</speed>
  <fix>3d</fix>
</trkpt>
<trkpt lat="-27.274392" lon="151.2900713">
  <ele>354.19</ele>
  <time>2026-09-01T19:53:41Z</time>
  <course>8.0</course>
  <speed>0.88</speed>
  <fix>3d</fix>
</trkpt>
<trkpt lat="-27.2743902" lon="151.2900716">
  <ele>354.17</ele>
  <time>2026-09-01T19:53:41Z</time>
  <course>8.0</course>
  <speed>0.8782368700982669</speed>
  <fix>3d</fix>
</trkpt>
<trkpt lat="-27.2743896" lon="151.2900717">
  <ele>354.17</ele>
  <time>2026-09-01T19:53:41Z</time>
  <course>8.0</course>
  <speed>0.8782368700982669</speed>
  <fix>3d</fix>
</trkpt>
<trkpt lat="-27.2743904" lon="151.2900715">
  <ele>354.17</ele>
  <time>2026-09-01T19:53:41Z</time>
  <course>8.03</course>
  <speed>0.88</speed>
  <fix>3d</fix>
</trkpt>
<trkpt lat="-27.2743894" lon="151.2900717">
  <ele>354.17</ele>
  <time>2026-09-01T19:53:41Z</time>
  <course>8.0</course>
  <speed>0.8782368700982669</speed>
  <fix>3d</fix>
</trkpt>
<trkpt lat="-27.2743887" lon="151.2900718">
  <ele>354.17</ele>
  <time>2026-09-01T19:53:41Z</time>
  <course>8.01</course>
  <speed>0.8782368700982669</speed>
  <fix>3d</fix>
</trkpt>
<trkpt lat="-27.2743904" lon="151.2900715">
  <ele>354.17</ele>
  <time>2026-09-01T19:53:41Z</time>
  <course>8.03</course>
  <speed>0.88</speed>
  <fix>3d</fix>
</trkpt>
<trkpt lat="-27.2743886" lon="151.2900718">
  <ele>354.18</ele>
  <time>2026-09-01T19:53:41Z</time>
  <course>8.01</course>
  <speed>0.8782368700982669</speed>
  <fix>3d</fix>
</trkpt>
<trkpt lat="-27.274388" lon="151.2900718">
  <ele>354.18</ele>
  <time>2026-09-01T19:53:41Z</time>
  <course>8.01</course>
  <speed>0.8782368700982669</speed>
  <fix>3d</fix>
</trkpt>
<trkpt lat="-27.2743887" lon="151.2900718">
  <ele>354.17</ele>
  <time>2026-09-01T19:53:41Z</time>
  <course>8.06</course>
  <speed>0.88</speed>
  <fix>3d</fix>
</trkpt>
<trkpt lat="-27.274388" lon="151.2900718">
  <ele>354.18</ele>
  <time>2026-09-01T19:53:41Z</time>
  <course>8.01</course>
  <speed>0.8782368700982669</speed>
  <fix>3d</fix>
</trkpt>
<trkpt lat="-27.2743872" lon="151.2900721">
  <ele>354.19</ele>
  <time>2026-09-01T19:53:41Z</time>
  <course>8.02</course>
  <speed>0.8782368700982669</speed>
  <fix>3d</fix>
</trkpt>
<trkpt lat="-27.2743887" lon="151.2900718">
  <ele>354.17</ele>
  <time>2026-09-01T19:53:41Z</time>
  <course>8.06</course>
  <speed>0.88</speed>
  <fix>3d</fix>
</trkpt>
<trkpt lat="-27.2743871" lon="151.2900721">
  <ele>354.19</ele>
  <time>2026-09-01T19:53:41Z</time>
  <course>8.02</course>
  <speed>0.8782368700982669</speed>
  <fix>3d</fix>
</trkpt>
<trkpt lat="-27.2743864" lon="151.2900722">
  <ele>354.2</ele>
  <time>2026-09-01T19:53:41Z</time>
  <course>8.02</course>
  <speed>0.8782368700982669</speed>
  <fix>3d</fix>
</trkpt>
<trkpt lat="-27.2743872" lon="151.290072">
  <ele>354.19</ele>
  <time>2026-09-01T19:53:41Z</time>
  <course>8.09</course>
  <speed>0.88</speed>
  <fix>3d</fix>
</trkpt>
<trkpt lat="-27.2743862" lon="151.2900722">
  <ele>354.2</ele>
  <time>2026-09-01T19:53:41Z</time>
  <course>8.02</course>
  <speed>0.8782368700982669</speed>
  <fix>3d</fix>
</trkpt>
<trkpt lat="-27.2743857" lon="151.2900723">
  <ele>354.21</ele>
  <time>2026-09-01T19:53:41Z</time>
  <course>8.02</course>
  <speed>0.8782368700982669</speed>
  <fix>3d</fix>
</trkpt>
<trkpt lat="-27.2743872" lon="151.290072">
  <ele>354.19</ele>
  <time>2026-09-01T19:53:41Z</time>
  <course>8.09</course>
  <speed>0.88</speed>
  <fix>3d</fix>
</trkpt>
<trkpt lat="-27.2743854" lon="151.2900723">
  <ele>354.22</ele>
  <time>2026-09-01T19:53:41Z</time>
  <course>8.02</course>
  <speed>0.8782368700982669</speed>
  <fix>3d</fix>
</trkpt>
<trkpt lat="-27.2743849" lon="151.2900723">
  <ele>354.22</ele>
  <time>2026-09-01T19:53:41Z</time>
  <course>8.02</course>
  <speed>0.8782368700982669</speed>
  <fix>3d</fix>
</trkpt>
<trkpt lat="-27.2743856" lon="151.2900723">
  <ele>354.21</ele>
  <time>2026-09-01T19:53:41Z</time>
  <course>8.1</course>
  <speed>0.87</speed>
  <fix>3d</fix>
</trkpt>
<trkpt lat="-27.2743847" lon="151.2900724">
  <ele>354.23</ele>
  <time>2026-09-01T19:53:41Z</time>
  <course>8.01</course>
  <speed>0.8782368700982669</speed>
  <fix>3d</fix>
</trkpt>
<trkpt lat="-27.2743841" lon="151.2900726">
  <ele>354.24</ele>
  <time>2026-09-01T19:53:41Z</time>
  <course>8.01</course>
  <speed>0.8782368700982669</speed>
  <fix>3d</fix>
</trkpt>
<trkpt lat="-27.2743856" lon="151.2900723">
  <ele>354.21</ele>
  <time>2026-09-01T19:53:41Z</time>
  <course>8.1</course>
  <speed>0.87</speed>
  <fix>3d</fix>
</trkpt>
<trkpt lat="-27.2743839" lon="151.2900726">
  <ele>354.24</ele>
  <time>2026-09-01T19:53:41Z</time>
  <course>8.01</course>
  <speed>0.8782368700982669</speed>
  <fix>3d</fix>
</trkpt>
<trkpt lat="-27.2743833" lon="151.2900727">
  <ele>354.25</ele>
  <time>2026-09-01T19:53:41Z</time>
  <course>8.01</course>
  <speed>0.8782368700982669</speed>
  <fix>3d</fix>
</trkpt>
<trkpt lat="-27.2743841" lon="151.2900725">
  <ele>354.23</ele>
  <time>2026-09-01T19:53:41Z</time>
  <course>8.13</course>
  <speed>0.87</speed>
  <fix>3d</fix>
</trkpt>
<trkpt lat="-27.2743831" lon="151.2900727">
  <ele>354.25</ele>
  <time>2026-09-01T19:53:41Z</time>
  <course>8.01</course>
  <speed>0.8782368700982669</speed>
  <fix>3d</fix>
</trkpt>
<trkpt lat="-27.2743825" lon="151.2900728">
  <ele>354.26</ele>
  <time>2026-09-01T19:53:42Z</time>
  <course>8.0</course>
  <speed>0.8782368700982669</speed>
  <fix>3d</fix>
</trkpt>
<trkpt lat="-27.2743841" lon="151.2900725">
  <ele>354.23</ele>
  <time>2026-09-01T19:53:42Z</time>
  <course>8.13</course>
  <speed>0.87</speed>
  <fix>3d</fix>
</trkpt>
<trkpt lat="-27.2743824" lon="151.2900728">
  <ele>354.26</ele>
  <time>2026-09-01T19:53:42Z</time>
  <course>8.0</course>
  <speed>0.8683317338436964</speed>
  <fix>3d</fix>
</trkpt>
<trkpt lat="-27.2743818" lon="151.2900728">
  <ele>354.26</ele>
  <time>2026-09-01T19:53:42Z</time>
  <course>8.0</course>
  <speed>0.8683317338436964</speed>
  <fix>3d</fix>
</trkpt>
<trkpt lat="-27.2743825" lon="151.2900728">
  <ele>354.25</ele>
  <time>2026-09-01T19:53:42Z</time>
  <course>8.14</course>
  <speed>0.87</speed>
  <fix>3d</fix>
</trkpt>
<trkpt lat="-27.2743815" lon="151.290073">
  <ele>354.27</ele>
  <time>2026-09-01T19:53:42Z</time>
  <course>8.0</course>
  <speed>0.8683317338436964</speed>
  <fix>3d</fix>
</trkpt>
<trkpt lat="-27.274381" lon="151.2900731">
  <ele>354.27</ele>
  <time>2026-09-01T19:53:42Z</time>
  <course>8.0</course>
  <speed>0.8683317338436964</speed>
  <fix>3d</fix>
</trkpt>
<trkpt lat="-27.2743825" lon="151.2900728">
  <ele>354.25</ele>
  <time>2026-09-01T19:53:42Z</time>
  <course>8.14</course>
  <speed>0.87</speed>
  <fix>3d</fix>
</trkpt>
<trkpt lat="-27.2743807" lon="151.2900731">
  <ele>354.27</ele>
  <time>2026-09-01T19:53:42Z</time>
  <course>8.0</course>
  <speed>0.8683317338436964</speed>
  <fix>3d</fix>
</trkpt>
<trkpt lat="-27.2743802" lon="151.2900732">
  <ele>354.28</ele>
  <time>2026-09-01T19:53:42Z</time>
  <course>8.0</course>
  <speed>0.8683317338436964</speed>
  <fix>3d</fix>
</trkpt>
<trkpt lat="-27.274381" lon="151.290073">
  <ele>354.27</ele>
  <time>2026-09-01T19:53:42Z</time>
  <course>8.15</course>
  <speed>0.87</speed>
  <fix>3d</fix>
</trkpt>
<trkpt lat="-27.27438" lon="151.2900732">
  <ele>354.28</ele>
  <time>2026-09-01T19:53:42Z</time>
  <course>8.0</course>
  <speed>0.8683317338436964</speed>
  <fix>3d</fix>
</trkpt>
<trkpt lat="-27.2743794" lon="151.2900733">
  <ele>354.28</ele>
  <time>2026-09-01T19:53:42Z</time>
  <course>8.0</course>
  <speed>0.8683317338436964</speed>
  <fix>3d</fix>
</trkpt>
<trkpt lat="-27.274381" lon="151.290073">
  <ele>354.27</ele>
  <time>2026-09-01T19:53:42Z</time>
  <course>8.15</course>
  <speed>0.87</speed>
  <fix>3d</fix>
</trkpt>
<trkpt lat="-27.2743794" lon="151.2900733">
  <ele>354.28</ele>
  <time>2026-09-01T19:53:42Z</time>
  <course>8.0</course>
  <speed>0.8683317338436964</speed>
  <fix>3d</fix>
</trkpt>
<trkpt lat="-27.2743786" lon="151.2900733">
  <ele>354.28</ele>
  <time>2026-09-01T19:53:42Z</time>
  <course>8.0</course>
  <speed>0.8683317338436964</speed>
  <fix>3d</fix>
</trkpt>
<trkpt lat="-27.2743794" lon="151.2900733">
  <ele>354.28</ele>
  <time>2026-09-01T19:53:42Z</time>
  <course>8.15</course>
  <speed>0.87</speed>
  <fix>3d</fix>
</trkpt>
<trkpt lat="-27.2743784" lon="151.2900735">
  <ele>354.28</ele>
  <time>2026-09-01T19:53:42Z</time>
  <course>8.0</course>
  <speed>0.8683317338436964</speed>
  <fix>3d</fix>
</trkpt>
<trkpt lat="-27.2743779" lon="151.2900736">
  <ele>354.28</ele>
  <time>2026-09-01T19:53:42Z</time>
  <course>8.0</course>
  <speed>0.8683317338436964</speed>
  <fix>3d</fix>
</trkpt>
<trkpt lat="-27.2743794" lon="151.2900733">
  <ele>354.28</ele>
  <time>2026-09-01T19:53:42Z</time>
  <course>8.15</course>
  <speed>0.87</speed>
  <fix>3d</fix>
</trkpt>
<trkpt lat="-27.2743776" lon="151.2900736">
  <ele>354.28</ele>
  <time>2026-09-01T19:53:42Z</time>
  <course>8.0</course>
  <speed>0.8683317338436964</speed>
  <fix>3d</fix>
</trkpt>
<trkpt lat="-27.2743771" lon="151.2900737">
  <ele>354.28</ele>
  <time>2026-09-01T19:53:42Z</time>
  <course>8.0</course>
  <speed>0.8683317338436964</speed>
  <fix>3d</fix>
</trkpt>
<trkpt lat="-27.2743779" lon="151.2900735">
  <ele>354.28</ele>
  <time>2026-09-01T19:53:42Z</time>
  <course>8.15</course>
  <speed>0.87</speed>
  <fix>3d</fix>
</trkpt>
<trkpt lat="-27.2743768" lon="151.2900737">
  <ele>354.28</ele>
  <time>2026-09-01T19:53:42Z</time>
  <course>8.0</course>
  <speed>0.8683317338436964</speed>
  <fix>3d</fix>
</trkpt>
<trkpt lat="-27.2743763" lon="151.2900737">
  <ele>354.28</ele>
  <time>2026-09-01T19:53:42Z</time>
  <course>8.0</course>
  <speed>0.8683317338436964</speed>
  <fix>3d</fix>
</trkpt>
<trkpt lat="-27.2743779" lon="151.2900735">
  <ele>354.28</ele>
  <time>2026-09-01T19:53:42Z</time>
  <course>8.15</course>
  <speed>0.87</speed>
  <fix>3d</fix>
</trkpt>
<trkpt lat="-27.2743759" lon="151.2900738">
  <ele>354.28</ele>
  <time>2026-09-01T19:53:42Z</time>
  <course>8.0</course>
  <speed>0.8683317338436964</speed>
  <fix>3d</fix>
</trkpt>
<trkpt lat="-27.2743755" lon="151.2900738">
  <ele>354.28</ele>
  <time>2026-09-01T19:53:42Z</time>
  <course>8.0</course>
  <speed>0.8683317338436964</speed>
  <fix>3d</fix>
</trkpt>
<trkpt lat="-27.2743763" lon="151.2900737">
  <ele>354.28</ele>
  <time>2026-09-01T19:53:42Z</time>
  <course>8.16</course>
  <speed>0.87</speed>
  <fix>3d</fix>
</trkpt>
<trkpt lat="-27.2743753" lon="151.290074">
  <ele>354.28</ele>
  <time>2026-09-01T19:53:42Z</time>
  <course>8.0</course>
  <speed>0.8683317338436964</speed>
  <fix>3d</fix>
</trkpt>
<trkpt lat="-27.2743747" lon="151.2900741">
  <ele>354.27</ele>
  <time>2026-09-01T19:53:42Z</time>
  <course>8.0</course>
  <speed>0.8683317338436964</speed>
  <fix>3d</fix>
</trkpt>
<trkpt lat="-27.2743763" lon="151.2900737">
  <ele>354.28</ele>
  <time>2026-09-01T19:53:42Z</time>
  <course>8.16</course>
  <speed>0.87</speed>
  <fix>3d</fix>
</trkpt>
<trkpt lat="-27.2743746" lon="151.2900741">
  <ele>354.27</ele>
  <time>2026-09-01T19:53:42Z</time>
  <course>8.0</course>
  <speed>0.8683317338436964</speed>
  <fix>3d</fix>
</trkpt>
<trkpt lat="-27.274374" lon="151.2900742">
  <ele>354.27</ele>
  <time>2026-09-01T19:53:42Z</time>
  <course>8.01</course>
  <speed>0.8683317338436964</speed>
  <fix>3d</fix>
</trkpt>
<trkpt lat="-27.2743747" lon="151.290074">
  <ele>354.27</ele>
  <time>2026-09-01T19:53:42Z</time>
  <course>8.18</course>
  <speed>0.87</speed>
  <fix>3d</fix>
</trkpt>
<trkpt lat="-27.2743738" lon="151.2900742">
  <ele>354.27</ele>
  <time>2026-09-01T19:53:42Z</time>
  <course>8.01</course>
  <speed>0.8683317338436964</speed>
  <fix>3d</fix>
</trkpt>
<trkpt lat="-27.2743732" lon="151.2900742">
  <ele>354.27</ele>
  <time>2026-09-01T19:53:42Z</time>
  <course>8.01</course>
  <speed>0.8683317338436964</speed>
  <fix>3d</fix>
</trkpt>
<trkpt lat="-27.2743747" lon="151.290074">
  <ele>354.27</ele>
  <time>2026-09-01T19:53:42Z</time>
  <course>8.18</course>
  <speed>0.87</speed>
  <fix>3d</fix>
</trkpt>
<trkpt lat="-27.2743729" lon="151.2900743">
  <ele>354.27</ele>
  <time>2026-09-01T19:53:42Z</time>
  <course>8.01</course>
  <speed>0.8683317338436964</speed>
  <fix>3d</fix>
</trkpt>
<trkpt lat="-27.2743724" lon="151.2900743">
  <ele>354.27</ele>
  <time>2026-09-01T19:53:42Z</time>
  <course>8.01</course>
  <speed>0.8683317338436964</speed>
  <fix>3d</fix>
</trkpt>
<trkpt lat="-27.2743732" lon="151.2900742">
  <ele>354.27</ele>
  <time>2026-09-01T19:53:42Z</time>
  <course>8.21</course>
  <speed>0.87</speed>
  <fix>3d</fix>
</trkpt>
<trkpt lat="-27.2743722" lon="151.2900745">
  <ele>354.27</ele>
  <time>2026-09-01T19:53:42Z</time>
  <course>8.01</course>
  <speed>0.8683317338436964</speed>
  <fix>3d</fix>
</trkpt>
<trkpt lat="-27.2743716" lon="151.2900746">
  <ele>354.26</ele>
  <time>2026-09-01T19:53:42Z</time>
  <course>8.01</course>
  <speed>0.8683317338436964</speed>
  <fix>3d</fix>
</trkpt>
<trkpt lat="-27.2743732" lon="151.2900742">
  <ele>354.27</ele>
  <time>2026-09-01T19:53:42Z</time>
  <course>8.21</course>
  <speed>0.87</speed>
  <fix>3d</fix>
</trkpt>
<trkpt lat="-27.2743714" lon="151.2900746">
  <ele>354.26</ele>
  <time>2026-09-01T19:53:42Z</time>
  <course>8.01</course>
  <speed>0.8683317338436964</speed>
  <fix>3d</fix>
</trkpt>
<trkpt lat="-27.2743709" lon="151.2900747">
  <ele>354.26</ele>
  <time>2026-09-01T19:53:42Z</time>
  <course>8.01</course>
  <speed>0.8683317338436964</speed>
  <fix>3d</fix>
</trkpt>
<trkpt lat="-27.2743716" lon="151.2900745">
  <ele>354.26</ele>
  <time>2026-09-01T19:53:42Z</time>
  <course>8.25</course>
  <speed>0.87</speed>
  <fix>3d</fix>
</trkpt>
<trkpt lat="-27.2743708" lon="151.2900747">
  <ele>354.26</ele>
  <time>2026-09-01T19:53:42Z</time>
  <course>8.01</course>
  <speed>0.8683317338436964</speed>
  <fix>3d</fix>
</trkpt>
<trkpt lat="-27.2743701" lon="151.2900747">
  <ele>354.26</ele>
  <time>2026-09-01T19:53:42Z</time>
  <course>8.01</course>
  <speed>0.8683317338436964</speed>
  <fix>3d</fix>
</trkpt>
<trkpt lat="-27.2743716" lon="151.2900745">
  <ele>354.26</ele>
  <time>2026-09-01T19:53:42Z</time>
  <course>8.25</course>
  <speed>0.87</speed>
  <fix>3d</fix>
</trkpt>
<trkpt lat="-27.27437" lon="151.2900747">
  <ele>354.26</ele>
  <time>2026-09-01T19:53:42Z</time>
  <course>8.01</course>
  <speed>0.8683317338436964</speed>
  <fix>3d</fix>
</trkpt>
<trkpt lat="-27.2743693" lon="151.2900748">
  <ele>354.26</ele>
  <time>2026-09-01T19:53:42Z</time>
  <course>8.01</course>
  <speed>0.8683317338436964</speed>
  <fix>3d</fix>
</trkpt>
<trkpt lat="-27.2743701" lon="151.2900747">
  <ele>354.26</ele>
  <time>2026-09-01T19:53:42Z</time>
  <course>8.27</course>
  <speed>0.87</speed>
  <fix>3d</fix>
</trkpt>
<trkpt lat="-27.274369" lon="151.290075">
  <ele>354.26</ele>
  <time>2026-09-01T19:53:42Z</time>
  <course>8.01</course>
  <speed>0.8683317338436964</speed>
  <fix>3d</fix>
</trkpt>
<trkpt lat="-27.2743685" lon="151.2900751">
  <ele>354.26</ele>
  <time>2026-09-01T19:53:42Z</time>
  <course>8.01</course>
  <speed>0.8683317338436964</speed>
  <fix>3d</fix>
</trkpt>
<trkpt lat="-27.2743701" lon="151.2900747">
  <ele>354.26</ele>
  <time>2026-09-01T19:53:42Z</time>
  <course>8.27</course>
  <speed>0.87</speed>
  <fix>3d</fix>
</trkpt>
<trkpt lat="-27.2743683" lon="151.2900751">
  <ele>354.26</ele>
  <time>2026-09-01T19:53:42Z</time>
  <course>8.01</course>
  <speed>0.8683317338436964</speed>
  <fix>3d</fix>
</trkpt>
<trkpt lat="-27.2743678" lon="151.2900752">
  <ele>354.26</ele>
  <time>2026-09-01T19:53:42Z</time>
  <course>8.0</course>
  <speed>0.8683317338436964</speed>
  <fix>3d</fix>
</trkpt>
<trkpt lat="-27.2743686" lon="151.290075">
  <ele>354.26</ele>
  <time>2026-09-01T19:53:42Z</time>
  <course>8.28</course>
  <speed>0.87</speed>
  <fix>3d</fix>
</trkpt>
<trkpt lat="-27.2743675" lon="151.2900752">
  <ele>354.26</ele>
  <time>2026-09-01T19:53:42Z</time>
  <course>8.0</course>
  <speed>0.8683317338436964</speed>
  <fix>3d</fix>
</trkpt>
<trkpt lat="-27.274367" lon="151.2900752">
  <ele>354.26</ele>
  <time>2026-09-01T19:53:42Z</time>
  <course>8.0</course>
  <speed>0.8683317338436964</speed>
  <fix>3d</fix>
</trkpt>
<trkpt lat="-27.2743686" lon="151.290075">
  <ele>354.26</ele>
  <time>2026-09-01T19:53:42Z</time>
  <course>8.28</course>
  <speed>0.87</speed>
  <fix>3d</fix>
</trkpt>
<trkpt lat="-27.2743668" lon="151.2900754">
  <ele>354.26</ele>
  <time>2026-09-01T19:53:42Z</time>
  <course>8.0</course>
  <speed>0.8683317338436964</speed>
  <fix>3d</fix>
</trkpt>
<trkpt lat="-27.2743662" lon="151.2900755">
  <ele>354.26</ele>
  <time>2026-09-01T19:53:42Z</time>
  <course>8.0</course>
  <speed>0.8584287972802404</speed>
  <fix>3d</fix>
</trkpt>
<trkpt lat="-27.274367" lon="151.2900753">
  <ele>354.26</ele>
  <time>2026-09-01T19:53:42Z</time>
  <course>8.26</course>
  <speed>0.86</speed>
  <fix>3d</fix>
</trkpt>
<trkpt lat="-27.2743659" lon="151.2900755">
  <ele>354.26</ele>
  <time>2026-09-01T19:53:42Z</time>
  <course>7.99</course>
  <speed>0.8584287972802404</speed>
  <fix>3d</fix>
</trkpt>
<trkpt lat="-27.2743655" lon="151.2900756">
  <ele>354.26</ele>
  <time>2026-09-01T19:53:42Z</time>
  <course>7.99</course>
  <speed>0.8584287972802404</speed>
  <fix>3d</fix>
</trkpt>
<trkpt lat="-27.274367" lon="151.2900753">
  <ele>354.26</ele>
  <time>2026-09-01T19:53:42Z</time>
  <course>8.26</course>
  <speed>0.86</speed>
  <fix>3d</fix>
</trkpt>
<trkpt lat="-27.2743652" lon="151.2900756">
  <ele>354.26</ele>
  <time>2026-09-01T19:53:42Z</time>
  <course>7.99</course>
  <speed>0.8584287972802404</speed>
  <fix>3d</fix>
</trkpt>
<trkpt lat="-27.2743647" lon="151.2900757">
  <ele>354.26</ele>
  <time>2026-09-01T19:53:42Z</time>
  <course>7.99</course>
  <speed>0.8584287972802404</speed>
  <fix>3d</fix>
</trkpt>
<trkpt lat="-27.2743655" lon="151.2900755">
  <ele>354.26</ele>
  <time>2026-09-01T19:53:42Z</time>
  <course>8.25</course>
  <speed>0.86</speed>
  <fix>3d</fix>
</trkpt>
<trkpt lat="-27.2743645" lon="151.2900757">
  <ele>354.26</ele>
  <time>2026-09-01T19:53:42Z</time>
  <course>7.99</course>
  <speed>0.8584287972802404</speed>
  <fix>3d</fix>
</trkpt>
<trkpt lat="-27.2743639" lon="151.2900757">
  <ele>354.27</ele>
  <time>2026-09-01T19:53:42Z</time>
  <course>7.99</course>
  <speed>0.8584287972802404</speed>
  <fix>3d</fix>
</trkpt>
<trkpt lat="-27.2743655" lon="151.2900755">
  <ele>354.26</ele>
  <time>2026-09-01T19:53:42Z</time>
  <course>8.25</course>
  <speed>0.86</speed>
  <fix>3d</fix>
</trkpt>
<trkpt lat="-27.2743637" lon="151.2900759">
  <ele>354.27</ele>
  <time>2026-09-01T19:53:42Z</time>
  <course>7.99</course>
  <speed>0.8584287972802404</speed>
  <fix>3d</fix>
</trkpt>
<trkpt lat="-27.2743631" lon="151.290076">
  <ele>354.27</ele>
  <time>2026-09-01T19:53:42Z</time>
  <course>7.98</course>
  <speed>0.8584287972802404</speed>
  <fix>3d</fix>
</trkpt>
<trkpt lat="-27.2743639" lon="151.2900758">
  <ele>354.26</ele>
  <time>2026-09-01T19:53:42Z</time>
  <course>8.22</course>
  <speed>0.86</speed>
  <fix>3d</fix>
</trkpt>
<trkpt lat="-27.2743629" lon="151.290076">
  <ele>354.27</ele>
  <time>2026-09-01T19:53:42Z</time>
  <course>7.98</course>
  <speed>0.8584287972802404</speed>
  <fix>3d</fix>
</trkpt>
<trkpt lat="-27.2743624" lon="151.2900761">
  <ele>354.27</ele>
  <time>2026-09-01T19:53:42Z</time>
  <course>7.98</course>
  <speed>0.8584287972802404</speed>
  <fix>3d</fix>
</trkpt>
<trkpt lat="-27.2743639" lon="151.2900758">
  <ele>354.26</ele>
  <time>2026-09-01T19:53:42Z</time>
  <course>8.22</course>
  <speed>0.86</speed>
  <fix>3d</fix>
</trkpt>
<trkpt lat="-27.2743623" lon="151.2900761">
  <ele>354.27</ele>
  <time>2026-09-01T19:53:42Z</time>
  <course>7.98</course>
  <speed>0.8584287972802404</speed>
  <fix>3d</fix>
</trkpt>
<trkpt lat="-27.2743616" lon="151.2900761">
  <ele>354.27</ele>
  <time>2026-09-01T19:53:42Z</time>
  <course>7.99</course>
  <speed>0.8584287972802404</speed>
  <fix>3d</fix>
</trkpt>
<trkpt lat="-27.2743624" lon="151.290076">
  <ele>354.27</ele>
  <time>2026-09-01T19:53:42Z</time>
  <course>8.19</course>
  <speed>0.86</speed>
  <fix>3d</fix>
</trkpt>
<trkpt lat="-27.2743616" lon="151.2900761">
  <ele>354.27</ele>
  <time>2026-09-01T19:53:42Z</time>
  <course>7.99</course>
  <speed>0.8584287972802404</speed>
  <fix>3d</fix>
</trkpt>
<trkpt lat="-27.2743608" lon="151.2900762">
  <ele>354.27</ele>
  <time>2026-09-01T19:53:42Z</time>
  <course>8.0</course>
  <speed>0.8584287972802404</speed>
  <fix>3d</fix>
</trkpt>
<trkpt lat="-27.2743624" lon="151.290076">
  <ele>354.27</ele>
  <time>2026-09-01T19:53:42Z</time>
  <course>8.19</course>
  <speed>0.86</speed>
  <fix>3d</fix>
</trkpt>
<trkpt lat="-27.2743605" lon="151.2900764">
  <ele>354.27</ele>
  <time>2026-09-01T19:53:42Z</time>
  <course>8.0</course>
  <speed>0.8584287972802404</speed>
  <fix>3d</fix>
</trkpt>
<trkpt lat="-27.2743601" lon="151.2900765">
  <ele>354.27</ele>
  <time>2026-09-01T19:53:42Z</time>
  <course>8.0</course>
  <speed>0.8584287972802404</speed>
  <fix>3d</fix>
</trkpt>
<trkpt lat="-27.2743608" lon="151.2900763">
  <ele>354.27</ele>
  <time>2026-09-01T19:53:42Z</time>
  <course>8.18</course>
  <speed>0.86</speed>
  <fix>3d</fix>
</trkpt>
<trkpt lat="-27.2743599" lon="151.2900765">
  <ele>354.27</ele>
  <time>2026-09-01T19:53:42Z</time>
  <course>8.0</course>
  <speed>0.8584287972802404</speed>
  <fix>3d</fix>
</trkpt>
<trkpt lat="-27.2743593" lon="151.2900766">
  <ele>354.27</ele>
  <time>2026-09-01T19:53:42Z</time>
  <course>8.0</course>
  <speed>0.8584287972802404</speed>
  <fix>3d</fix>
</trkpt>
<trkpt lat="-27.2743608" lon="151.2900763">
  <ele>354.27</ele>
  <time>2026-09-01T19:53:42Z</time>
  <course>8.18</course>
  <speed>0.86</speed>
  <fix>3d</fix>
</trkpt>
<trkpt lat="-27.274359" lon="151.2900766">
  <ele>354.27</ele>
  <time>2026-09-01T19:53:42Z</time>
  <course>8.0</course>
  <speed>0.8584287972802404</speed>
  <fix>3d</fix>
</trkpt>
<trkpt lat="-27.2743585" lon="151.2900766">
  <ele>354.27</ele>
  <time>2026-09-01T19:53:42Z</time>
  <course>8.0</course>
  <speed>0.8584287972802404</speed>
  <fix>3d</fix>
</trkpt>
<trkpt lat="-27.2743593" lon="151.2900765">
  <ele>354.27</ele>
  <time>2026-09-01T19:53:42Z</time>
  <course>8.17</course>
  <speed>0.86</speed>
  <fix>3d</fix>
</trkpt>
<trkpt lat="-27.2743582" lon="151.2900766">
  <ele>354.27</ele>
  <time>2026-09-01T19:53:42Z</time>
  <course>8.0</course>
  <speed>0.8584287972802404</speed>
  <fix>3d</fix>
</trkpt>
<trkpt lat="-27.2743578" lon="151.2900767">
  <ele>354.27</ele>
  <time>2026-09-01T19:53:42Z</time>
  <course>8.0</course>
  <speed>0.8584287972802404</speed>
  <fix>3d</fix>
</trkpt>
<trkpt lat="-27.2743593" lon="151.2900765">
  <ele>354.27</ele>
  <time>2026-09-01T19:53:42Z</time>
  <course>8.17</course>
  <speed>0.86</speed>
  <fix>3d</fix>
</trkpt>
<trkpt lat="-27.2743575" lon="151.2900769">
  <ele>354.27</ele>
  <time>2026-09-01T19:53:42Z</time>
  <course>8.01</course>
  <speed>0.8584287972802404</speed>
  <fix>3d</fix>
</trkpt>
<trkpt lat="-27.274357" lon="151.290077">
  <ele>354.27</ele>
  <time>2026-09-01T19:53:42Z</time>
  <course>8.01</course>
  <speed>0.8584287972802404</speed>
  <fix>3d</fix>
</trkpt>
<trkpt lat="-27.2743578" lon="151.2900768">
  <ele>354.27</ele>
  <time>2026-09-01T19:53:42Z</time>
  <course>8.16</course>
  <speed>0.86</speed>
  <fix>3d</fix>
</trkpt>
<trkpt lat="-27.2743567" lon="151.290077">
  <ele>354.27</ele>
  <time>2026-09-01T19:53:42Z</time>
  <course>8.01</course>
  <speed>0.8584287972802404</speed>
  <fix>3d</fix>
</trkpt>
<trkpt lat="-27.2743562" lon="151.2900771">
  <ele>354.27</ele>
  <time>2026-09-01T19:53:42Z</time>
  <course>8.01</course>
  <speed>0.8584287972802404</speed>
  <fix>3d</fix>
</trkpt>
<trkpt lat="-27.2743578" lon="151.2900768">
  <ele>354.27</ele>
  <time>2026-09-01T19:53:42Z</time>
  <course>8.16</course>
  <speed>0.86</speed>
  <fix>3d</fix>
</trkpt>
<trkpt lat="-27.2743561" lon="151.2900771">
  <ele>354.27</ele>
  <time>2026-09-01T19:53:42Z</time>
  <course>8.01</course>
  <speed>0.8584287972802404</speed>
  <fix>3d</fix>
</trkpt>
<trkpt lat="-27.2743555" lon="151.2900771">
  <ele>354.27</ele>
  <time>2026-09-01T19:53:42Z</time>
  <course>8.02</course>
  <speed>0.8584287972802404</speed>
  <fix>3d</fix>
</trkpt>
<trkpt lat="-27.2743562" lon="151.290077">
  <ele>354.27</ele>
  <time>2026-09-01T19:53:42Z</time>
  <course>8.15</course>
  <speed>0.86</speed>
  <fix>3d</fix>
</trkpt>
<trkpt lat="-27.2743551" lon="151.2900773">
  <ele>354.27</ele>
  <time>2026-09-01T19:53:42Z</time>
  <course>8.02</course>
  <speed>0.8584287972802404</speed>
  <fix>3d</fix>
</trkpt>
<trkpt lat="-27.2743547" lon="151.2900773">
  <ele>354.27</ele>
  <time>2026-09-01T19:53:42Z</time>
  <course>8.02</course>
  <speed>0.8584287972802404</speed>
  <fix>3d</fix>
</trkpt>
<trkpt lat="-27.2743562" lon="151.290077">
  <ele>354.27</ele>
  <time>2026-09-01T19:53:42Z</time>
  <course>8.15</course>
  <speed>0.86</speed>
  <fix>3d</fix>
</trkpt>
<trkpt lat="-27.2743545" lon="151.2900774">
  <ele>354.27</ele>
  <time>2026-09-01T19:53:42Z</time>
  <course>8.02</course>
  <speed>0.8584287972802404</speed>
  <fix>3d</fix>
</trkpt>
<trkpt lat="-27.2743539" lon="151.2900774">
  <ele>354.27</ele>
  <time>2026-09-01T19:53:42Z</time>
  <course>8.02</course>
  <speed>0.8584287972802404</speed>
  <fix>3d</fix>
</trkpt>
<trkpt lat="-27.2743547" lon="151.2900773">
  <ele>354.27</ele>
  <time>2026-09-01T19:53:42Z</time>
  <course>8.13</course>
  <speed>0.86</speed>
  <fix>3d</fix>
</trkpt>
<trkpt lat="-27.2743539" lon="151.2900774">
  <ele>354.27</ele>
  <time>2026-09-01T19:53:42Z</time>
  <course>8.02</course>
  <speed>0.8584287972802404</speed>
  <fix>3d</fix>
</trkpt>
<trkpt lat="-27.2743532" lon="151.2900776">
  <ele>354.27</ele>
  <time>2026-09-01T19:53:42Z</time>
  <course>8.02</course>
  <speed>0.8584287972802404</speed>
  <fix>3d</fix>
</trkpt>
<trkpt lat="-27.2743547" lon="151.2900773">
  <ele>354.27</ele>
  <time>2026-09-01T19:53:42Z</time>
  <course>8.13</course>
  <speed>0.86</speed>
  <fix>3d</fix>
</trkpt>
<trkpt lat="-27.2743531" lon="151.2900776">
  <ele>354.27</ele>
  <time>2026-09-01T19:53:42Z</time>
  <course>8.02</course>
  <speed>0.8584287972802404</speed>
  <fix>3d</fix>
</trkpt>
<trkpt lat="-27.2743524" lon="151.2900776">
  <ele>354.27</ele>
  <time>2026-09-01T19:53:42Z</time>
  <course>8.01</course>
  <speed>0.8584287972802404</speed>
  <fix>3d</fix>
</trkpt>
<trkpt lat="-27.2743532" lon="151.2900775">
  <ele>354.27</ele>
  <time>2026-09-01T19:53:42Z</time>
  <course>8.1</course>
  <speed>0.86</speed>
  <fix>3d</fix>
</trkpt>
<trkpt lat="-27.2743519" lon="151.2900778">
  <ele>354.27</ele>
  <time>2026-09-01T19:53:42Z</time>
  <course>8.01</course>
  <speed>0.8584287972802404</speed>
  <fix>3d</fix>
</trkpt>
<trkpt lat="-27.2743516" lon="151.2900778">
  <ele>354.27</ele>
  <time>2026-09-01T19:53:42Z</time>
  <course>8.01</course>
  <speed>0.8584287972802404</speed>
  <fix>3d</fix>
</trkpt>
<trkpt lat="-27.2743532" lon="151.2900775">
  <ele>354.27</ele>
  <time>2026-09-01T19:53:42Z</time>
  <course>8.1</course>
  <speed>0.86</speed>
  <fix>3d</fix>
</trkpt>
<trkpt lat="-27.2743514" lon="151.2900778">
  <ele>354.27</ele>
  <time>2026-09-01T19:53:42Z</time>
  <course>8.01</course>
  <speed>0.8584287972802404</speed>
  <fix>3d</fix>
</trkpt>
<trkpt lat="-27.2743509" lon="151.2900779">
  <ele>354.27</ele>
  <time>2026-09-01T19:53:42Z</time>
  <course>8.0</course>
  <speed>0.8584287972802404</speed>
  <fix>3d</fix>
</trkpt>
<trkpt lat="-27.2743516" lon="151.2900778">
  <ele>354.27</ele>
  <time>2026-09-01T19:53:42Z</time>
  <course>8.1</course>
  <speed>0.85</speed>
  <fix>3d</fix>
</trkpt>
<trkpt lat="-27.2743507" lon="151.2900779">
  <ele>354.27</ele>
  <time>2026-09-01T19:53:42Z</time>
  <course>8.0</course>
  <speed>0.8584287972802404</speed>
  <fix>3d</fix>
</trkpt>
<trkpt lat="-27.2743501" lon="151.2900781">
  <ele>354.27</ele>
  <time>2026-09-01T19:53:42Z</time>
  <course>8.0</course>
  <speed>0.8584287972802404</speed>
  <fix>3d</fix>
</trkpt>
<trkpt lat="-27.2743516" lon="151.2900778">
  <ele>354.27</ele>
  <time>2026-09-01T19:53:42Z</time>
  <course>8.1</course>
  <speed>0.85</speed>
  <fix>3d</fix>
</trkpt>
<trkpt lat="-27.2743497" lon="151.2900781">
  <ele>354.27</ele>
  <time>2026-09-01T19:53:42Z</time>
  <course>7.99</course>
  <speed>0.8584287972802404</speed>
  <fix>3d</fix>
</trkpt>
<trkpt lat="-27.2743493" lon="151.2900781">
  <ele>354.27</ele>
  <time>2026-09-01T19:53:42Z</time>
  <course>7.99</course>
  <speed>0.8584287972802404</speed>
  <fix>3d</fix>
</trkpt>
<trkpt lat="-27.2743501" lon="151.290078">
  <ele>354.27</ele>
  <time>2026-09-01T19:53:42Z</time>
  <course>8.12</course>
  <speed>0.85</speed>
  <fix>3d</fix>
</trkpt>
<trkpt lat="-27.2743486" lon="151.2900783">
  <ele>354.27</ele>
  <time>2026-09-01T19:53:42Z</time>
  <course>7.98</course>
  <speed>0.848528137423857</speed>
  <fix>3d</fix>
</trkpt>
<trkpt lat="-27.2743501" lon="151.290078">
  <ele>354.27</ele>
  <time>2026-09-01T19:53:42Z</time>
  <course>8.12</course>
  <speed>0.85</speed>
  <fix>3d</fix>
</trkpt>
<trkpt lat="-27.2743485" lon="151.2900783">
  <ele>354.27</ele>
  <time>2026-09-01T19:53:42Z</time>
  <course>7.98</course>
  <speed>0.848528137423857</speed>
  <fix>3d</fix>
</trkpt>
<trkpt lat="-27.2743478" lon="151.2900784">
  <ele>354.27</ele>
  <time>2026-09-01T19:53:42Z</time>
  <course>7.97</course>
  <speed>0.848528137423857</speed>
  <fix>3d</fix>
</trkpt>
<trkpt lat="-27.2743485" lon="151.2900783">
  <ele>354.27</ele>
  <time>2026-09-01T19:53:42Z</time>
  <course>8.13</course>
  <speed>0.85</speed>
  <fix>3d</fix>
</trkpt>
<trkpt lat="-27.2743474" lon="151.2900785">
  <ele>354.27</ele>
  <time>2026-09-01T19:53:42Z</time>
  <course>7.97</course>
  <speed>0.848528137423857</speed>
  <fix>3d</fix>
</trkpt>
<trkpt lat="-27.274347" lon="151.2900785">
  <ele>354.27</ele>
  <time>2026-09-01T19:53:42Z</time>
  <course>7.97</course>
  <speed>0.848528137423857</speed>
  <fix>3d</fix>
</trkpt>
<trkpt lat="-27.2743485" lon="151.2900783">
  <ele>354.27</ele>
  <time>2026-09-01T19:53:42Z</time>
  <course>8.13</course>
  <speed>0.85</speed>
  <fix>3d</fix>
</trkpt>
<trkpt lat="-27.2743469" lon="151.2900785">
  <ele>354.27</ele>
  <time>2026-09-01T19:53:42Z</time>
  <course>7.97</course>
  <speed>0.848528137423857</speed>
  <fix>3d</fix>
</trkpt>
<trkpt lat="-27.2743463" lon="151.2900786">
  <ele>354.27</ele>
  <time>2026-09-01T19:53:42Z</time>
  <course>7.97</course>
  <speed>0.848528137423857</speed>
  <fix>3d</fix>
</trkpt>
<trkpt lat="-27.274347" lon="151.2900785">
  <ele>354.27</ele>
  <time>2026-09-01T19:53:42Z</time>
  <course>8.12</course>
  <speed>0.85</speed>
  <fix>3d</fix>
</trkpt>
<trkpt lat="-27.2743463" lon="151.2900786">
  <ele>354.27</ele>
  <time>2026-09-01T19:53:42Z</time>
  <course>7.97</course>
  <speed>0.848528137423857</speed>
  <fix>3d</fix>
</trkpt>
<trkpt lat="-27.2743455" lon="151.2900788">
  <ele>354.27</ele>
  <time>2026-09-01T19:53:42Z</time>
  <course>7.97</course>
  <speed>0.848528137423857</speed>
  <fix>3d</fix>
</trkpt>
<trkpt lat="-27.274347" lon="151.2900785">
  <ele>354.27</ele>
  <time>2026-09-01T19:53:42Z</time>
  <course>8.12</course>
  <speed>0.85</speed>
  <fix>3d</fix>
</trkpt>
<trkpt lat="-27.2743448" lon="151.2900789">
  <ele>354.27</ele>
  <time>2026-09-01T19:53:42Z</time>
  <course>7.98</course>
  <speed>0.848528137423857</speed>
  <fix>3d</fix>
</trkpt>
<trkpt lat="-27.2743455" lon="151.2900788">
  <ele>354.27</ele>
  <time>2026-09-01T19:53:42Z</time>
  <course>8.13</course>
  <speed>0.85</speed>
  <fix>3d</fix>
</trkpt>
<trkpt lat="-27.2743447" lon="151.2900789">
  <ele>354.27</ele>
  <time>2026-09-01T19:53:42Z</time>
  <course>7.98</course>
  <speed>0.848528137423857</speed>
  <fix>3d</fix>
</trkpt>
<trkpt lat="-27.274344" lon="151.290079">
  <ele>354.27</ele>
  <time>2026-09-01T19:53:42Z</time>
  <course>7.98</course>
  <speed>0.848528137423857</speed>
  <fix>3d</fix>
</trkpt>
<trkpt lat="-27.2743455" lon="151.2900788">
  <ele>354.27</ele>
  <time>2026-09-01T19:53:42Z</time>
  <course>8.13</course>
  <speed>0.85</speed>
  <fix>3d</fix>
</trkpt>
<trkpt lat="-27.274344" lon="151.290079">
  <ele>354.27</ele>
  <time>2026-09-01T19:53:42Z</time>
  <course>7.98</course>
  <speed>0.848528137423857</speed>
  <fix>3d</fix>
</trkpt>
<trkpt lat="-27.2743431" lon="151.2900791">
  <ele>354.27</ele>
  <time>2026-09-01T19:53:42Z</time>
  <course>7.99</course>
  <speed>0.848528137423857</speed>
  <fix>3d</fix>
</trkpt>
<trkpt lat="-27.274344" lon="151.290079">
  <ele>354.27</ele>
  <time>2026-09-01T19:53:42Z</time>
  <course>8.15</course>
  <speed>0.85</speed>
  <fix>3d</fix>
</trkpt>
<trkpt lat="-27.2743431" lon="151.2900791">
  <ele>354.27</ele>
  <time>2026-09-01T19:53:42Z</time>
  <course>7.99</course>
  <speed>0.848528137423857</speed>
  <fix>3d</fix>
</trkpt>
<trkpt lat="-27.2743425" lon="151.2900793">
  <ele>354.27</ele>
  <time>2026-09-01T19:53:42Z</time>
  <course>7.99</course>
  <speed>0.848528137423857</speed>
  <fix>3d</fix>
</trkpt>
<trkpt lat="-27.274344" lon="151.290079">
  <ele>354.27</ele>
  <time>2026-09-01T19:53:42Z</time>
  <course>8.15</course>
  <speed>0.85</speed>
  <fix>3d</fix>
</trkpt>
<trkpt lat="-27.2743425" lon="151.2900793">
  <ele>354.27</ele>
  <time>2026-09-01T19:53:42Z</time>
  <course>7.99</course>
  <speed>0.848528137423857</speed>
  <fix>3d</fix>
</trkpt>
<trkpt lat="-27.2743417" lon="151.2900794">
  <ele>354.27</ele>
  <time>2026-09-01T19:53:42Z</time>
  <course>7.99</course>
  <speed>0.848528137423857</speed>
  <fix>3d</fix>
</trkpt>
<trkpt lat="-27.2743425" lon="151.2900793">
  <ele>354.27</ele>
  <time>2026-09-01T19:53:42Z</time>
  <course>8.16</course>
  <speed>0.85</speed>
  <fix>3d</fix>
</trkpt>
<trkpt lat="-27.2743417" lon="151.2900794">
  <ele>354.27</ele>
  <time>2026-09-01T19:53:42Z</time>
  <course>7.99</course>
  <speed>0.848528137423857</speed>
  <fix>3d</fix>
</trkpt>
<trkpt lat="-27.274341" lon="151.2900795">
  <ele>354.27</ele>
  <time>2026-09-01T19:53:42Z</time>
  <course>8.0</course>
  <speed>0.848528137423857</speed>
  <fix>3d</fix>
</trkpt>
<trkpt lat="-27.2743425" lon="151.2900793">
  <ele>354.27</ele>
  <time>2026-09-01T19:53:42Z</time>
  <course>8.16</course>
  <speed>0.85</speed>
  <fix>3d</fix>
</trkpt>
<trkpt lat="-27.2743409" lon="151.2900795">
  <ele>354.27</ele>
  <time>2026-09-01T19:53:42Z</time>
  <course>8.0</course>
  <speed>0.848528137423857</speed>
  <fix>3d</fix>
</trkpt>
<trkpt lat="-27.2743402" lon="151.2900795">
  <ele>354.27</ele>
  <time>2026-09-01T19:53:42Z</time>
  <course>8.0</course>
  <speed>0.848528137423857</speed>
  <fix>3d</fix>
</trkpt>
<trkpt lat="-27.274341" lon="151.2900795">
  <ele>354.27</ele>
  <time>2026-09-01T19:53:42Z</time>
  <course>8.16</course>
  <speed>0.85</speed>
  <fix>3d</fix>
</trkpt>
<trkpt lat="-27.2743402" lon="151.2900797">
  <ele>354.27</ele>
  <time>2026-09-01T19:53:42Z</time>
  <course>8.0</course>
  <speed>0.848528137423857</speed>
  <fix>3d</fix>
</trkpt>
<trkpt lat="-27.2743394" lon="151.2900798">
  <ele>354.27</ele>
  <time>2026-09-01T19:53:42Z</time>
  <course>8.01</course>
  <speed>0.848528137423857</speed>
  <fix>3d</fix>
</trkpt>
<trkpt lat="-27.274341" lon="151.2900795">
  <ele>354.27</ele>
  <time>2026-09-01T19:53:42Z</time>
  <course>8.16</course>
  <speed>0.85</speed>
  <fix>3d</fix>
</trkpt>
<trkpt lat="-27.2743394" lon="151.2900798">
  <ele>354.27</ele>
  <time>2026-09-01T19:53:42Z</time>
  <course>8.01</course>
  <speed>0.848528137423857</speed>
  <fix>3d</fix>
</trkpt>
<trkpt lat="-27.2743387" lon="151.2900799">
  <ele>354.27</ele>
  <time>2026-09-01T19:53:42Z</time>
  <course>8.01</course>
  <speed>0.848528137423857</speed>
  <fix>3d</fix>
</trkpt>
<trkpt lat="-27.2743394" lon="151.2900797">
  <ele>354.27</ele>
  <time>2026-09-01T19:53:42Z</time>
  <course>8.17</course>
  <speed>0.85</speed>
  <fix>3d</fix>
</trkpt>
<trkpt lat="-27.2743383" lon="151.29008">
  <ele>354.27</ele>
  <time>2026-09-01T19:53:42Z</time>
  <course>8.02</course>
  <speed>0.848528137423857</speed>
  <fix>3d</fix>
</trkpt>
<trkpt lat="-27.2743379" lon="151.29008">
  <ele>354.27</ele>
  <time>2026-09-01T19:53:42Z</time>
  <course>8.02</course>
  <speed>0.848528137423857</speed>
  <fix>3d</fix>
</trkpt>
<trkpt lat="-27.2743394" lon="151.2900797">
  <ele>354.27</ele>
  <time>2026-09-01T19:53:42Z</time>
  <course>8.17</course>
  <speed>0.85</speed>
  <fix>3d</fix>
</trkpt>
<trkpt lat="-27.2743377" lon="151.29008">
  <ele>354.27</ele>
  <time>2026-09-01T19:53:42Z</time>
  <course>8.02</course>
  <speed>0.848528137423857</speed>
  <fix>3d</fix>
</trkpt>
<trkpt lat="-27.2743372" lon="151.29008">
  <ele>354.27</ele>
  <time>2026-09-01T19:53:42Z</time>
  <course>8.02</course>
  <speed>0.848528137423857</speed>
  <fix>3d</fix>
</trkpt>
<trkpt lat="-27.2743379" lon="151.29008">
  <ele>354.27</ele>
  <time>2026-09-01T19:53:42Z</time>
  <course>8.17</course>
  <speed>0.85</speed>
  <fix>3d</fix>
</trkpt>
<trkpt lat="-27.2743372" lon="151.29008">
  <ele>354.27</ele>
  <time>2026-09-01T19:53:42Z</time>
  <course>8.02</course>
  <speed>0.848528137423857</speed>
  <fix>3d</fix>
</trkpt>
<trkpt lat="-27.2743364" lon="151.2900803">
  <ele>354.27</ele>
  <time>2026-09-01T19:53:42Z</time>
  <course>8.02</course>
  <speed>0.848528137423857</speed>
  <fix>3d</fix>
</trkpt>
<trkpt lat="-27.2743379" lon="151.29008">
  <ele>354.27</ele>
  <time>2026-09-01T19:53:42Z</time>
  <course>8.17</course>
  <speed>0.85</speed>
  <fix>3d</fix>
</trkpt>
<trkpt lat="-27.2743363" lon="151.2900803">
  <ele>354.27</ele>
  <time>2026-09-01T19:53:42Z</time>
  <course>8.02</course>
  <speed>0.848528137423857</speed>
  <fix>3d</fix>
</trkpt>
<trkpt lat="-27.2743357" lon="151.2900804">
  <ele>354.27</ele>
  <time>2026-09-01T19:53:42Z</time>
  <course>8.02</course>
  <speed>0.8386298349093002</speed>
  <fix>3d</fix>
</trkpt>
<trkpt lat="-27.2743364" lon="151.2900802">
  <ele>354.27</ele>
  <time>2026-09-01T19:53:42Z</time>
  <course>8.17</course>
  <speed>0.84</speed>
  <fix>3d</fix>
</trkpt>
<trkpt lat="-27.2743355" lon="151.2900804">
  <ele>354.27</ele>
  <time>2026-09-01T19:53:42Z</time>
  <course>8.02</course>
  <speed>0.8386298349093002</speed>
  <fix>3d</fix>
</trkpt>
<trkpt lat="-27.2743349" lon="151.2900804">
  <ele>354.27</ele>
  <time>2026-09-01T19:53:42Z</time>
  <course>8.02</course>
  <speed>0.8386298349093002</speed>
  <fix>3d</fix>
</trkpt>
<trkpt lat="-27.2743364" lon="151.2900802">
  <ele>354.27</ele>
  <time>2026-09-01T19:53:42Z</time>
  <course>8.17</course>
  <speed>0.84</speed>
  <fix>3d</fix>
</trkpt>
<trkpt lat="-27.2743347" lon="151.2900804">
  <ele>354.27</ele>
  <time>2026-09-01T19:53:42Z</time>
  <course>8.02</course>
  <speed>0.8386298349093002</speed>
  <fix>3d</fix>
</trkpt>
<trkpt lat="-27.2743342" lon="151.2900805">
  <ele>354.27</ele>
  <time>2026-09-01T19:53:42Z</time>
  <course>8.01</course>
  <speed>0.8386298349093002</speed>
  <fix>3d</fix>
</trkpt>
<trkpt lat="-27.2743349" lon="151.2900804">
  <ele>354.27</ele>
  <time>2026-09-01T19:53:42Z</time>
  <course>8.18</course>
  <speed>0.84</speed>
  <fix>3d</fix>
</trkpt>
<trkpt lat="-27.2743339" lon="151.2900807">
  <ele>354.27</ele>
  <time>2026-09-01T19:53:42Z</time>
  <course>8.01</course>
  <speed>0.8386298349093002</speed>
  <fix>3d</fix>
</trkpt>
<trkpt lat="-27.2743334" lon="151.2900807">
  <ele>354.27</ele>
  <time>2026-09-01T19:53:42Z</time>
  <course>8.01</course>
  <speed>0.8386298349093002</speed>
  <fix>3d</fix>
</trkpt>
<trkpt lat="-27.2743349" lon="151.2900804">
  <ele>354.27</ele>
  <time>2026-09-01T19:53:42Z</time>
  <course>8.18</course>
  <speed>0.84</speed>
  <fix>3d</fix>
</trkpt>
<trkpt lat="-27.2743332" lon="151.2900808">
  <ele>354.27</ele>
  <time>2026-09-01T19:53:42Z</time>
  <course>8.01</course>
  <speed>0.8386298349093002</speed>
  <fix>3d</fix>
</trkpt>
<trkpt lat="-27.2743327" lon="151.2900809">
  <ele>354.27</ele>
  <time>2026-09-01T19:53:42Z</time>
  <course>8.01</course>
  <speed>0.8386298349093002</speed>
  <fix>3d</fix>
</trkpt>
<trkpt lat="-27.2743334" lon="151.2900807">
  <ele>354.27</ele>
  <time>2026-09-01T19:53:42Z</time>
  <course>8.17</course>
  <speed>0.84</speed>
  <fix>3d</fix>
</trkpt>
<trkpt lat="-27.2743324" lon="151.2900809">
  <ele>354.27</ele>
  <time>2026-09-01T19:53:42Z</time>
  <course>8.0</course>
  <speed>0.8372574275573791</speed>
  <fix>3d</fix>
</trkpt>
<trkpt lat="-27.2743319" lon="151.2900809">
  <ele>354.27</ele>
  <time>2026-09-01T19:53:42Z</time>
  <course>8.0</course>
  <speed>0.8372574275573791</speed>
  <fix>3d</fix>
</trkpt>
<trkpt lat="-27.2743334" lon="151.2900807">
  <ele>354.27</ele>
  <time>2026-09-01T19:53:42Z</time>
  <course>8.17</course>
  <speed>0.84</speed>
  <fix>3d</fix>
</trkpt>
<trkpt lat="-27.2743317" lon="151.2900809">
  <ele>354.27</ele>
  <time>2026-09-01T19:53:42Z</time>
  <course>7.99</course>
  <speed>0.8372574275573791</speed>
  <fix>3d</fix>
</trkpt>
<trkpt lat="-27.2743312" lon="151.290081">
  <ele>354.28</ele>
  <time>2026-09-01T19:53:42Z</time>
  <course>7.98</course>
  <speed>0.8372574275573791</speed>
  <fix>3d</fix>
</trkpt>
<trkpt lat="-27.2743319" lon="151.2900809">
  <ele>354.27</ele>
  <time>2026-09-01T19:53:42Z</time>
  <course>8.15</course>
  <speed>0.84</speed>
  <fix>3d</fix>
</trkpt>
<trkpt lat="-27.274331" lon="151.290081">
  <ele>354.28</ele>
  <time>2026-09-01T19:53:42Z</time>
  <course>7.98</course>
  <speed>0.8372574275573791</speed>
  <fix>3d</fix>
</trkpt>
<trkpt lat="-27.2743304" lon="151.2900812">
  <ele>354.28</ele>
  <time>2026-09-01T19:53:42Z</time>
  <course>7.97</course>
  <speed>0.8372574275573791</speed>
  <fix>3d</fix>
</trkpt>
<trkpt lat="-27.2743319" lon="151.2900809">
  <ele>354.27</ele>
  <time>2026-09-01T19:53:42Z</time>
  <course>8.15</course>
  <speed>0.84</speed>
  <fix>3d</fix>
</trkpt>
<trkpt lat="-27.2743301" lon="151.2900813">
  <ele>354.28</ele>
  <time>2026-09-01T19:53:42Z</time>
  <course>7.97</course>
  <speed>0.8372574275573791</speed>
  <fix>3d</fix>
</trkpt>
<trkpt lat="-27.2743297" lon="151.2900814">
  <ele>354.28</ele>
  <time>2026-09-01T19:53:42Z</time>
  <course>7.97</course>
  <speed>0.8372574275573791</speed>
  <fix>3d</fix>
</trkpt>
<trkpt lat="-27.2743304" lon="151.2900811">
  <ele>354.28</ele>
  <time>2026-09-01T19:53:42Z</time>
  <course>8.12</course>
  <speed>0.84</speed>
  <fix>3d</fix>
</trkpt>
<trkpt lat="-27.2743296" lon="151.2900814">
  <ele>354.28</ele>
  <time>2026-09-01T19:53:42Z</time>
  <course>7.97</course>
  <speed>0.8372574275573791</speed>
  <fix>3d</fix>
</trkpt>
<trkpt lat="-27.2743289" lon="151.2900814">
  <ele>354.28</ele>
  <time>2026-09-01T19:53:42Z</time>
  <course>7.97</course>
  <speed>0.8372574275573791</speed>
  <fix>3d</fix>
</trkpt>
<trkpt lat="-27.2743304" lon="151.2900811">
  <ele>354.28</ele>
  <time>2026-09-01T19:53:42Z</time>
  <course>8.12</course>
  <speed>0.84</speed>
  <fix>3d</fix>
</trkpt>
<trkpt lat="-27.2743289" lon="151.2900814">
  <ele>354.28</ele>
  <time>2026-09-01T19:53:42Z</time>
  <course>7.97</course>
  <speed>0.8372574275573791</speed>
  <fix>3d</fix>
</trkpt>
<trkpt lat="-27.2743282" lon="151.2900815">
  <ele>354.28</ele>
  <time>2026-09-01T19:53:42Z</time>
  <course>7.98</course>
  <speed>0.8372574275573791</speed>
  <fix>3d</fix>
</trkpt>
<trkpt lat="-27.2743289" lon="151.2900814">
  <ele>354.28</ele>
  <time>2026-09-01T19:53:42Z</time>
  <course>8.09</course>
  <speed>0.84</speed>
  <fix>3d</fix>
</trkpt>
<trkpt lat="-27.2743281" lon="151.2900815">
  <ele>354.28</ele>
  <time>2026-09-01T19:53:42Z</time>
  <course>7.98</course>
  <speed>0.8372574275573791</speed>
  <fix>3d</fix>
</trkpt>
<trkpt lat="-27.2743274" lon="151.2900817">
  <ele>354.28</ele>
  <time>2026-09-01T19:53:42Z</time>
  <course>7.98</course>
  <speed>0.8372574275573791</speed>
  <fix>3d</fix>
</trkpt>
<trkpt lat="-27.2743289" lon="151.2900814">
  <ele>354.28</ele>
  <time>2026-09-01T19:53:42Z</time>
  <course>8.09</course>
  <speed>0.84</speed>
  <fix>3d</fix>
</trkpt>
<trkpt lat="-27.2743267" lon="151.2900818">
  <ele>354.28</ele>
  <time>2026-09-01T19:53:42Z</time>
  <course>7.99</course>
  <speed>0.8372574275573791</speed>
  <fix>3d</fix>
</trkpt>
<trkpt lat="-27.2743274" lon="151.2900816">
  <ele>354.28</ele>
  <time>2026-09-01T19:53:42Z</time>
  <course>8.08</course>
  <speed>0.84</speed>
  <fix>3d</fix>
</trkpt>
<trkpt lat="-27.2743266" lon="151.2900818">
  <ele>354.28</ele>
  <time>2026-09-01T19:53:42Z</time>
  <course>7.99</course>
  <speed>0.8372574275573791</speed>
  <fix>3d</fix>
</trkpt>
<trkpt lat="-27.2743259" lon="151.2900819">
  <ele>354.28</ele>
  <time>2026-09-01T19:53:42Z</time>
  <course>8.0</course>
  <speed>0.8372574275573791</speed>
  <fix>3d</fix>
</trkpt>
<trkpt lat="-27.2743274" lon="151.2900816">
  <ele>354.28</ele>
  <time>2026-09-01T19:53:42Z</time>
  <course>8.08</course>
  <speed>0.84</speed>
  <fix>3d</fix>
</trkpt>
<trkpt lat="-27.2743252" lon="151.2900821">
  <ele>354.28</ele>
  <time>2026-09-01T19:53:42Z</time>
  <course>8.0</course>
  <speed>0.8372574275573791</speed>
  <fix>3d</fix>
</trkpt>
<trkpt lat="-27.2743259" lon="151.2900819">
  <ele>354.28</ele>
  <time>2026-09-01T19:53:42Z</time>
  <course>8.09</course>
  <speed>0.84</speed>
  <fix>3d</fix>
</trkpt>
<trkpt lat="-27.2743244" lon="151.2900822">
  <ele>354.28</ele>
  <time>2026-09-01T19:53:42Z</time>
  <course>8.01</course>
  <speed>0.8372574275573791</speed>
  <fix>3d</fix>
</trkpt>
<trkpt lat="-27.2743259" lon="151.2900819">
  <ele>354.28</ele>
  <time>2026-09-01T19:53:42Z</time>
  <course>8.09</course>
  <speed>0.84</speed>
  <fix>3d</fix>
</trkpt>
<trkpt lat="-27.2743237" lon="151.2900823">
  <ele>354.28</ele>
  <time>2026-09-01T19:53:42Z</time>
  <course>8.02</course>
  <speed>0.8372574275573791</speed>
  <fix>3d</fix>
</trkpt>
<trkpt lat="-27.2743244" lon="151.2900822">
  <ele>354.28</ele>
  <time>2026-09-01T19:53:42Z</time>
  <course>8.1</course>
  <speed>0.83</speed>
  <fix>3d</fix>
</trkpt>
<trkpt lat="-27.2743229" lon="151.2900824">
  <ele>354.28</ele>
  <time>2026-09-01T19:53:42Z</time>
  <course>8.02</course>
  <speed>0.8372574275573791</speed>
  <fix>3d</fix>
</trkpt>
<trkpt lat="-27.2743244" lon="151.2900822">
  <ele>354.28</ele>
  <time>2026-09-01T19:53:42Z</time>
  <course>8.1</course>
  <speed>0.83</speed>
  <fix>3d</fix>
</trkpt>
<trkpt lat="-27.2743222" lon="151.2900826">
  <ele>354.28</ele>
  <time>2026-09-01T19:53:42Z</time>
  <course>8.02</course>
  <speed>0.8273451516749222</speed>
  <fix>3d</fix>
</trkpt>
<trkpt lat="-27.2743229" lon="151.2900824">
  <ele>354.28</ele>
  <time>2026-09-01T19:53:42Z</time>
  <course>8.13</course>
  <speed>0.83</speed>
  <fix>3d</fix>
</trkpt>
<trkpt lat="-27.2743214" lon="151.2900827">
  <ele>354.28</ele>
  <time>2026-09-01T19:53:42Z</time>
  <course>8.02</course>
  <speed>0.8273451516749222</speed>
  <fix>3d</fix>
</trkpt>
<trkpt lat="-27.2743229" lon="151.2900824">
  <ele>354.28</ele>
  <time>2026-09-01T19:53:42Z</time>
  <course>8.13</course>
  <speed>0.83</speed>
  <fix>3d</fix>
</trkpt>
<trkpt lat="-27.2743207" lon="151.2900828">
  <ele>354.28</ele>
  <time>2026-09-01T19:53:42Z</time>
  <course>8.02</course>
  <speed>0.8273451516749222</speed>
  <fix>3d</fix>
</trkpt>
<trkpt lat="-27.2743214" lon="151.2900826">
  <ele>354.28</ele>
  <time>2026-09-01T19:53:42Z</time>
  <course>8.16</course>
  <speed>0.83</speed>
  <fix>3d</fix>
</trkpt>
<trkpt lat="-27.2743199" lon="151.2900828">
  <ele>354.28</ele>
  <time>2026-09-01T19:53:42Z</time>
  <course>8.02</course>
  <speed>0.8273451516749222</speed>
  <fix>3d</fix>
</trkpt>
<trkpt lat="-27.2743214" lon="151.2900826">
  <ele>354.28</ele>
  <time>2026-09-01T19:53:42Z</time>
  <course>8.16</course>
  <speed>0.83</speed>
  <fix>3d</fix>
</trkpt>
<trkpt lat="-27.2743192" lon="151.2900829">
  <ele>354.27</ele>
  <time>2026-09-01T19:53:42Z</time>
  <course>8.02</course>
  <speed>0.8273451516749222</speed>
  <fix>3d</fix>
</trkpt>
<trkpt lat="-27.2743199" lon="151.2900828">
  <ele>354.27</ele>
  <time>2026-09-01T19:53:42Z</time>
  <course>8.19</course>
  <speed>0.83</speed>
  <fix>3d</fix>
</trkpt>
<trkpt lat="-27.2743185" lon="151.2900832">
  <ele>354.27</ele>
  <time>2026-09-01T19:53:42Z</time>
  <course>8.01</course>
  <speed>0.8273451516749222</speed>
  <fix>3d</fix>
</trkpt>
<trkpt lat="-27.2743199" lon="151.2900828">
  <ele>354.27</ele>
  <time>2026-09-01T19:53:42Z</time>
  <course>8.19</course>
  <speed>0.83</speed>
  <fix>3d</fix>
</trkpt>
<trkpt lat="-27.2743177" lon="151.2900833">
  <ele>354.27</ele>
  <time>2026-09-01T19:53:43Z</time>
  <course>8.01</course>
  <speed>0.8273451516749222</speed>
  <fix>3d</fix>
</trkpt>
<trkpt lat="-27.2743184" lon="151.2900831">
  <ele>354.27</ele>
  <time>2026-09-01T19:53:43Z</time>
  <course>8.21</course>
  <speed>0.83</speed>
  <fix>3d</fix>
</trkpt>
<trkpt lat="-27.274317" lon="151.2900833">
  <ele>354.27</ele>
  <time>2026-09-01T19:53:43Z</time>
  <course>8.01</course>
  <speed>0.8273451516749222</speed>
  <fix>3d</fix>
</trkpt>
<trkpt lat="-27.2743184" lon="151.2900831">
  <ele>354.27</ele>
  <time>2026-09-01T19:53:43Z</time>
  <course>8.21</course>
  <speed>0.83</speed>
  <fix>3d</fix>
</trkpt>
<trkpt lat="-27.2743162" lon="151.2900834">
  <ele>354.27</ele>
  <time>2026-09-01T19:53:43Z</time>
  <course>8.01</course>
  <speed>0.8273451516749222</speed>
  <fix>3d</fix>
</trkpt>
<trkpt lat="-27.2743169" lon="151.2900833">
  <ele>354.27</ele>
  <time>2026-09-01T19:53:43Z</time>
  <course>8.21</course>
  <speed>0.83</speed>
  <fix>3d</fix>
</trkpt>
<trkpt lat="-27.2743155" lon="151.2900836">
  <ele>354.28</ele>
  <time>2026-09-01T19:53:43Z</time>
  <course>8.01</course>
  <speed>0.8273451516749222</speed>
  <fix>3d</fix>
</trkpt>
<trkpt lat="-27.2743169" lon="151.2900833">
  <ele>354.27</ele>
  <time>2026-09-01T19:53:43Z</time>
  <course>8.21</course>
  <speed>0.83</speed>
  <fix>3d</fix>
</trkpt>
<trkpt lat="-27.2743147" lon="151.2900838">
  <ele>354.28</ele>
  <time>2026-09-01T19:53:43Z</time>
  <course>8.01</course>
  <speed>0.8273451516749222</speed>
  <fix>3d</fix>
</trkpt>
<trkpt lat="-27.2743155" lon="151.2900836">
  <ele>354.27</ele>
  <time>2026-09-01T19:53:43Z</time>
  <course>8.18</course>
  <speed>0.83</speed>
  <fix>3d</fix>
</trkpt>
<trkpt lat="-27.274314" lon="151.2900838">
  <ele>354.28</ele>
  <time>2026-09-01T19:53:43Z</time>
  <course>8.01</course>
  <speed>0.8273451516749222</speed>
  <fix>3d</fix>
</trkpt>
<trkpt lat="-27.2743155" lon="151.2900836">
  <ele>354.27</ele>
  <time>2026-09-01T19:53:43Z</time>
  <course>8.18</course>
  <speed>0.83</speed>
  <fix>3d</fix>
</trkpt>
<trkpt lat="-27.2743133" lon="151.290084">
  <ele>354.28</ele>
  <time>2026-09-01T19:53:43Z</time>
  <course>8.01</course>
  <speed>0.8273451516749222</speed>
  <fix>3d</fix>
</trkpt>
<trkpt lat="-27.274314" lon="151.2900839">
  <ele>354.28</ele>
  <time>2026-09-01T19:53:43Z</time>
  <course>8.16</course>
  <speed>0.83</speed>
  <fix>3d</fix>
</trkpt>
<trkpt lat="-27.2743125" lon="151.2900841">
  <ele>354.28</ele>
  <time>2026-09-01T19:53:43Z</time>
  <course>8.01</course>
  <speed>0.8273451516749222</speed>
  <fix>3d</fix>
</trkpt>
<trkpt lat="-27.274314" lon="151.2900839">
  <ele>354.28</ele>
  <time>2026-09-01T19:53:43Z</time>
  <course>8.16</course>
  <speed>0.83</speed>
  <fix>3d</fix>
</trkpt>
<trkpt lat="-27.2743118" lon="151.2900842">
  <ele>354.28</ele>
  <time>2026-09-01T19:53:43Z</time>
  <course>8.01</course>
  <speed>0.8273451516749222</speed>
  <fix>3d</fix>
</trkpt>
<trkpt lat="-27.2743125" lon="151.2900841">
  <ele>354.28</ele>
  <time>2026-09-01T19:53:43Z</time>
  <course>8.14</course>
  <speed>0.83</speed>
  <fix>3d</fix>
</trkpt>
<trkpt lat="-27.274311" lon="151.2900843">
  <ele>354.28</ele>
  <time>2026-09-01T19:53:43Z</time>
  <course>8.0</course>
  <speed>0.8273451516749222</speed>
  <fix>3d</fix>
</trkpt>
<trkpt lat="-27.2743125" lon="151.2900841">
  <ele>354.28</ele>
  <time>2026-09-01T19:53:43Z</time>
  <course>8.14</course>
  <speed>0.83</speed>
  <fix>3d</fix>
</trkpt>
<trkpt lat="-27.2743103" lon="151.2900845">
  <ele>354.28</ele>
  <time>2026-09-01T19:53:43Z</time>
  <course>8.0</course>
  <speed>0.8273451516749222</speed>
  <fix>3d</fix>
</trkpt>
<trkpt lat="-27.274311" lon="151.2900843">
  <ele>354.28</ele>
  <time>2026-09-01T19:53:43Z</time>
  <course>8.12</course>
  <speed>0.83</speed>
  <fix>3d</fix>
</trkpt>
<trkpt lat="-27.2743096" lon="151.2900846">
  <ele>354.28</ele>
  <time>2026-09-01T19:53:43Z</time>
  <course>8.0</course>
  <speed>0.8273451516749222</speed>
  <fix>3d</fix>
</trkpt>
<trkpt lat="-27.274311" lon="151.2900843">
  <ele>354.28</ele>
  <time>2026-09-01T19:53:43Z</time>
  <course>8.12</course>
  <speed>0.83</speed>
  <fix>3d</fix>
</trkpt>
<trkpt lat="-27.2743088" lon="151.2900847">
  <ele>354.28</ele>
  <time>2026-09-01T19:53:43Z</time>
  <course>8.0</course>
  <speed>0.8273451516749222</speed>
  <fix>3d</fix>
</trkpt>
<trkpt lat="-27.2743095" lon="151.2900846">
  <ele>354.28</ele>
  <time>2026-09-01T19:53:43Z</time>
  <course>8.1</course>
  <speed>0.83</speed>
  <fix>3d</fix>
</trkpt>
<trkpt lat="-27.2743081" lon="151.2900848">
  <ele>354.28</ele>
  <time>2026-09-01T19:53:43Z</time>
  <course>8.01</course>
  <speed>0.8273451516749222</speed>
  <fix>3d</fix>
</trkpt>
<trkpt lat="-27.2743095" lon="151.2900846">
  <ele>354.28</ele>
  <time>2026-09-01T19:53:43Z</time>
  <course>8.1</course>
  <speed>0.83</speed>
  <fix>3d</fix>
</trkpt>
<trkpt lat="-27.2743073" lon="151.2900848">
  <ele>354.28</ele>
  <time>2026-09-01T19:53:43Z</time>
  <course>8.01</course>
  <speed>0.8273451516749222</speed>
  <fix>3d</fix>
</trkpt>
<trkpt lat="-27.2743081" lon="151.2900848">
  <ele>354.28</ele>
  <time>2026-09-01T19:53:43Z</time>
  <course>8.09</course>
  <speed>0.82</speed>
  <fix>3d</fix>
</trkpt>
<trkpt lat="-27.2743066" lon="151.2900851">
  <ele>354.27</ele>
  <time>2026-09-01T19:53:43Z</time>
  <course>8.02</course>
  <speed>0.8273451516749222</speed>
  <fix>3d</fix>
</trkpt>
<trkpt lat="-27.2743081" lon="151.2900848">
  <ele>354.28</ele>
  <time>2026-09-01T19:53:43Z</time>
  <course>8.09</course>
  <speed>0.82</speed>
  <fix>3d</fix>
</trkpt>
<trkpt lat="-27.2743059" lon="151.2900852">
  <ele>354.27</ele>
  <time>2026-09-01T19:53:43Z</time>
  <course>8.02</course>
  <speed>0.8174350127074322</speed>
  <fix>3d</fix>
</trkpt>
<trkpt lat="-27.2743066" lon="151.290085">
  <ele>354.27</ele>
  <time>2026-09-01T19:53:43Z</time>
  <course>8.08</course>
  <speed>0.82</speed>
  <fix>3d</fix>
</trkpt>
<trkpt lat="-27.2743051" lon="151.2900852">
  <ele>354.27</ele>
  <time>2026-09-01T19:53:43Z</time>
  <course>8.01</course>
  <speed>0.8174350127074322</speed>
  <fix>3d</fix>
</trkpt>
<trkpt lat="-27.2743066" lon="151.290085">
  <ele>354.27</ele>
  <time>2026-09-01T19:53:43Z</time>
  <course>8.08</course>
  <speed>0.82</speed>
  <fix>3d</fix>
</trkpt>
<trkpt lat="-27.2743044" lon="151.2900853">
  <ele>354.27</ele>
  <time>2026-09-01T19:53:43Z</time>
  <course>8.01</course>
  <speed>0.8174350127074322</speed>
  <fix>3d</fix>
</trkpt>
<trkpt lat="-27.2743051" lon="151.2900852">
  <ele>354.27</ele>
  <time>2026-09-01T19:53:43Z</time>
  <course>8.05</course>
  <speed>0.82</speed>
  <fix>3d</fix>
</trkpt>
<trkpt lat="-27.2743037" lon="151.2900855">
  <ele>354.27</ele>
  <time>2026-09-01T19:53:43Z</time>
  <course>8.0</course>
  <speed>0.8174350127074322</speed>
  <fix>3d</fix>
</trkpt>
<trkpt lat="-27.2743051" lon="151.2900852">
  <ele>354.27</ele>
  <time>2026-09-01T19:53:43Z</time>
  <course>8.05</course>
  <speed>0.82</speed>
  <fix>3d</fix>
</trkpt>
<trkpt lat="-27.2743029" lon="151.2900856">
  <ele>354.27</ele>
  <time>2026-09-01T19:53:43Z</time>
  <course>8.0</course>
  <speed>0.8174350127074322</speed>
  <fix>3d</fix>
</trkpt>
<trkpt lat="-27.2743036" lon="151.2900854">
  <ele>354.27</ele>
  <time>2026-09-01T19:53:43Z</time>
  <course>8.04</course>
  <speed>0.82</speed>
  <fix>3d</fix>
</trkpt>
<trkpt lat="-27.2743022" lon="151.2900857">
  <ele>354.27</ele>
  <time>2026-09-01T19:53:43Z</time>
  <course>8.0</course>
  <speed>0.8174350127074322</speed>
  <fix>3d</fix>
</trkpt>
<trkpt lat="-27.2743036" lon="151.2900854">
  <ele>354.27</ele>
  <time>2026-09-01T19:53:43Z</time>
  <course>8.04</course>
  <speed>0.82</speed>
  <fix>3d</fix>
</trkpt>
<trkpt lat="-27.2743015" lon="151.2900858">
  <ele>354.27</ele>
  <time>2026-09-01T19:53:43Z</time>
  <course>8.01</course>
  <speed>0.8174350127074322</speed>
  <fix>3d</fix>
</trkpt>
<trkpt lat="-27.2743022" lon="151.2900857">
  <ele>354.27</ele>
  <time>2026-09-01T19:53:43Z</time>
  <course>8.06</course>
  <speed>0.82</speed>
  <fix>3d</fix>
</trkpt>
<trkpt lat="-27.2743007" lon="151.290086">
  <ele>354.27</ele>
  <time>2026-09-01T19:53:43Z</time>
  <course>8.0</course>
  <speed>0.8174350127074322</speed>
  <fix>3d</fix>
</trkpt>
<trkpt lat="-27.2743022" lon="151.2900857">
  <ele>354.27</ele>
  <time>2026-09-01T19:53:43Z</time>
  <course>8.06</course>
  <speed>0.82</speed>
  <fix>3d</fix>
</trkpt>
<trkpt lat="-27.2743" lon="151.2900861">
  <ele>354.28</ele>
  <time>2026-09-01T19:53:43Z</time>
  <course>8.0</course>
  <speed>0.8174350127074322</speed>
  <fix>3d</fix>
</trkpt>
<trkpt lat="-27.2743007" lon="151.2900859">
  <ele>354.27</ele>
  <time>2026-09-01T19:53:43Z</time>
  <course>8.08</course>
  <speed>0.82</speed>
  <fix>3d</fix>
</trkpt>
<trkpt lat="-27.2742993" lon="151.2900862">
  <ele>354.28</ele>
  <time>2026-09-01T19:53:43Z</time>
  <course>8.0</course>
  <speed>0.8174350127074322</speed>
  <fix>3d</fix>
</trkpt>
<trkpt lat="-27.2743007" lon="151.2900859">
  <ele>354.27</ele>
  <time>2026-09-01T19:53:43Z</time>
  <course>8.08</course>
  <speed>0.82</speed>
  <fix>3d</fix>
</trkpt>
<trkpt lat="-27.2742985" lon="151.2900864">
  <ele>354.28</ele>
  <time>2026-09-01T19:53:43Z</time>
  <course>8.0</course>
  <speed>0.8174350127074322</speed>
  <fix>3d</fix>
</trkpt>
<trkpt lat="-27.2742992" lon="151.2900862">
  <ele>354.28</ele>
  <time>2026-09-01T19:53:43Z</time>
  <course>8.08</course>
  <speed>0.82</speed>
  <fix>3d</fix>
</trkpt>
<trkpt lat="-27.2742978" lon="151.2900865">
  <ele>354.28</ele>
  <time>2026-09-01T19:53:43Z</time>
  <course>8.01</course>
  <speed>0.8174350127074322</speed>
  <fix>3d</fix>
</trkpt>
<trkpt lat="-27.2742992" lon="151.2900862">
  <ele>354.28</ele>
  <time>2026-09-01T19:53:43Z</time>
  <course>8.08</course>
  <speed>0.82</speed>
  <fix>3d</fix>
</trkpt>
<trkpt lat="-27.2742971" lon="151.2900866">
  <ele>354.28</ele>
  <time>2026-09-01T19:53:43Z</time>
  <course>8.0</course>
  <speed>0.8174350127074322</speed>
  <fix>3d</fix>
</trkpt>
<trkpt lat="-27.2742978" lon="151.2900864">
  <ele>354.28</ele>
  <time>2026-09-01T19:53:43Z</time>
  <course>8.08</course>
  <speed>0.82</speed>
  <fix>3d</fix>
</trkpt>
<trkpt lat="-27.2742963" lon="151.2900867">
  <ele>354.28</ele>
  <time>2026-09-01T19:53:43Z</time>
  <course>8.0</course>
  <speed>0.8174350127074322</speed>
  <fix>3d</fix>
</trkpt>
<trkpt lat="-27.2742978" lon="151.2900864">
  <ele>354.28</ele>
  <time>2026-09-01T19:53:43Z</time>
  <course>8.08</course>
  <speed>0.82</speed>
  <fix>3d</fix>
</trkpt>
<trkpt lat="-27.2742956" lon="151.2900867">
  <ele>354.28</ele>
  <time>2026-09-01T19:53:43Z</time>
  <course>8.0</course>
  <speed>0.8174350127074322</speed>
  <fix>3d</fix>
</trkpt>
<trkpt lat="-27.2742963" lon="151.2900867">
  <ele>354.28</ele>
  <time>2026-09-01T19:53:43Z</time>
  <course>8.09</course>
  <speed>0.82</speed>
  <fix>3d</fix>
</trkpt>
<trkpt lat="-27.2742949" lon="151.2900869">
  <ele>354.28</ele>
  <time>2026-09-01T19:53:43Z</time>
  <course>8.0</course>
  <speed>0.8174350127074322</speed>
  <fix>3d</fix>
</trkpt>
<trkpt lat="-27.2742963" lon="151.2900867">
  <ele>354.28</ele>
  <time>2026-09-01T19:53:43Z</time>
  <course>8.09</course>
  <speed>0.82</speed>
  <fix>3d</fix>
</trkpt>
<trkpt lat="-27.2742941" lon="151.2900871">
  <ele>354.28</ele>
  <time>2026-09-01T19:53:43Z</time>
  <course>8.0</course>
  <speed>0.8174350127074322</speed>
  <fix>3d</fix>
</trkpt>
<trkpt lat="-27.2742949" lon="151.2900869">
  <ele>354.28</ele>
  <time>2026-09-01T19:53:43Z</time>
  <course>8.08</course>
  <speed>0.82</speed>
  <fix>3d</fix>
</trkpt>
<trkpt lat="-27.2742934" lon="151.2900871">
  <ele>354.27</ele>
  <time>2026-09-01T19:53:43Z</time>
  <course>8.0</course>
  <speed>0.8174350127074322</speed>
  <fix>3d</fix>
</trkpt>
<trkpt lat="-27.2742949" lon="151.2900869">
  <ele>354.28</ele>
  <time>2026-09-01T19:53:43Z</time>
  <course>8.08</course>
  <speed>0.82</speed>
  <fix>3d</fix>
</trkpt>
<trkpt lat="-27.2742927" lon="151.2900872">
  <ele>354.27</ele>
  <time>2026-09-01T19:53:43Z</time>
  <course>8.0</course>
  <speed>0.8174350127074322</speed>
  <fix>3d</fix>
</trkpt>
<trkpt lat="-27.2742934" lon="151.2900871">
  <ele>354.27</ele>
  <time>2026-09-01T19:53:43Z</time>
  <course>8.06</course>
  <speed>0.82</speed>
  <fix>3d</fix>
</trkpt>
<trkpt lat="-27.2742919" lon="151.2900874">
  <ele>354.27</ele>
  <time>2026-09-01T19:53:43Z</time>
  <course>8.0</course>
  <speed>0.8174350127074322</speed>
  <fix>3d</fix>
</trkpt>
<trkpt lat="-27.2742934" lon="151.2900871">
  <ele>354.27</ele>
  <time>2026-09-01T19:53:43Z</time>
  <course>8.06</course>
  <speed>0.82</speed>
  <fix>3d</fix>
</trkpt>
<trkpt lat="-27.2742912" lon="151.2900875">
  <ele>354.27</ele>
  <time>2026-09-01T19:53:43Z</time>
  <course>8.01</course>
  <speed>0.8174350127074322</speed>
  <fix>3d</fix>
</trkpt>
<trkpt lat="-27.2742919" lon="151.2900874">
  <ele>354.27</ele>
  <time>2026-09-01T19:53:43Z</time>
  <course>8.06</course>
  <speed>0.81</speed>
  <fix>3d</fix>
</trkpt>
<trkpt lat="-27.2742905" lon="151.2900876">
  <ele>354.27</ele>
  <time>2026-09-01T19:53:43Z</time>
  <course>8.01</course>
  <speed>0.8174350127074322</speed>
  <fix>3d</fix>
</trkpt>
<trkpt lat="-27.2742919" lon="151.2900874">
  <ele>354.27</ele>
  <time>2026-09-01T19:53:43Z</time>
  <course>8.06</course>
  <speed>0.81</speed>
  <fix>3d</fix>
</trkpt>
<trkpt lat="-27.2742898" lon="151.2900876">
  <ele>354.27</ele>
  <time>2026-09-01T19:53:43Z</time>
  <course>8.01</course>
  <speed>0.8075270893288967</speed>
  <fix>3d</fix>
</trkpt>
<trkpt lat="-27.2742919" lon="151.2900874">
  <ele>354.27</ele>
  <time>2026-09-01T19:53:43Z</time>
  <course>8.06</course>
  <speed>0.81</speed>
  <fix>3d</fix>
</trkpt>
<trkpt lat="-27.274289" lon="151.2900879">
  <ele>354.27</ele>
  <time>2026-09-01T19:53:43Z</time>
  <course>8.01</course>
  <speed>0.8075270893288967</speed>
  <fix>3d</fix>
</trkpt>
<trkpt lat="-27.2742905" lon="151.2900876">
  <ele>354.27</ele>
  <time>2026-09-01T19:53:43Z</time>
  <course>8.08</course>
  <speed>0.81</speed>
  <fix>3d</fix>
</trkpt>
<trkpt lat="-27.2742883" lon="151.290088">
  <ele>354.27</ele>
  <time>2026-09-01T19:53:43Z</time>
  <course>8.01</course>
  <speed>0.8075270893288967</speed>
  <fix>3d</fix>
</trkpt>
<trkpt lat="-27.274289" lon="151.2900878">
  <ele>354.27</ele>
  <time>2026-09-01T19:53:43Z</time>
  <course>8.08</course>
  <speed>0.81</speed>
  <fix>3d</fix>
</trkpt>
<trkpt lat="-27.2742876" lon="151.2900881">
  <ele>354.27</ele>
  <time>2026-09-01T19:53:43Z</time>
  <course>8.01</course>
  <speed>0.8075270893288967</speed>
  <fix>3d</fix>
</trkpt>
<trkpt lat="-27.274289" lon="151.2900878">
  <ele>354.27</ele>
  <time>2026-09-01T19:53:43Z</time>
  <course>8.08</course>
  <speed>0.81</speed>
  <fix>3d</fix>
</trkpt>
<trkpt lat="-27.2742869" lon="151.2900881">
  <ele>354.27</ele>
  <time>2026-09-01T19:53:43Z</time>
  <course>8.0</course>
  <speed>0.8075270893288967</speed>
  <fix>3d</fix>
</trkpt>
<trkpt lat="-27.2742876" lon="151.2900881">
  <ele>354.27</ele>
  <time>2026-09-01T19:53:43Z</time>
  <course>8.08</course>
  <speed>0.81</speed>
  <fix>3d</fix>
</trkpt>
<trkpt lat="-27.2742861" lon="151.2900882">
  <ele>354.27</ele>
  <time>2026-09-01T19:53:43Z</time>
  <course>7.99</course>
  <speed>0.8075270893288967</speed>
  <fix>3d</fix>
</trkpt>
<trkpt lat="-27.2742876" lon="151.2900881">
  <ele>354.27</ele>
  <time>2026-09-01T19:53:43Z</time>
  <course>8.08</course>
  <speed>0.81</speed>
  <fix>3d</fix>
</trkpt>
<trkpt lat="-27.2742854" lon="151.2900884">
  <ele>354.28</ele>
  <time>2026-09-01T19:53:43Z</time>
  <course>7.98</course>
  <speed>0.8075270893288967</speed>
  <fix>3d</fix>
</trkpt>
<trkpt lat="-27.2742861" lon="151.2900882">
  <ele>354.27</ele>
  <time>2026-09-01T19:53:43Z</time>
  <course>8.06</course>
  <speed>0.81</speed>
  <fix>3d</fix>
</trkpt>
<trkpt lat="-27.2742847" lon="151.2900886">
  <ele>354.28</ele>
  <time>2026-09-01T19:53:43Z</time>
  <course>7.97</course>
  <speed>0.8075270893288967</speed>
  <fix>3d</fix>
</trkpt>
<trkpt lat="-27.2742861" lon="151.2900882">
  <ele>354.27</ele>
  <time>2026-09-01T19:53:43Z</time>
  <course>8.06</course>
  <speed>0.81</speed>
  <fix>3d</fix>
</trkpt>
<trkpt lat="-27.274284" lon="151.2900886">
  <ele>354.28</ele>
  <time>2026-09-01T19:53:43Z</time>
  <course>7.97</course>
  <speed>0.8075270893288967</speed>
  <fix>3d</fix>
</trkpt>
<trkpt lat="-27.2742847" lon="151.2900885">
  <ele>354.28</ele>
  <time>2026-09-01T19:53:43Z</time>
  <course>8.04</course>
  <speed>0.81</speed>
  <fix>3d</fix>
</trkpt>
<trkpt lat="-27.2742832" lon="151.2900888">
  <ele>354.28</ele>
  <time>2026-09-01T19:53:43Z</time>
  <course>7.97</course>
  <speed>0.8075270893288967</speed>
  <fix>3d</fix>
</trkpt>
<trkpt lat="-27.2742847" lon="151.2900885">
  <ele>354.28</ele>
  <time>2026-09-01T19:53:43Z</time>
  <course>8.04</course>
  <speed>0.81</speed>
  <fix>3d</fix>
</trkpt>
<trkpt lat="-27.2742825" lon="151.2900889">
  <ele>354.28</ele>
  <time>2026-09-01T19:53:43Z</time>
  <course>7.98</course>
  <speed>0.8075270893288967</speed>
  <fix>3d</fix>
</trkpt>
<trkpt lat="-27.2742832" lon="151.2900887">
  <ele>354.28</ele>
  <time>2026-09-01T19:53:43Z</time>
  <course>8.02</course>
  <speed>0.81</speed>
  <fix>3d</fix>
</trkpt>
<trkpt lat="-27.2742818" lon="151.290089">
  <ele>354.28</ele>
  <time>2026-09-01T19:53:43Z</time>
  <course>7.99</course>
  <speed>0.8075270893288967</speed>
  <fix>3d</fix>
</trkpt>
<trkpt lat="-27.2742832" lon="151.2900887">
  <ele>354.28</ele>
  <time>2026-09-01T19:53:43Z</time>
  <course>8.02</course>
  <speed>0.81</speed>
  <fix>3d</fix>
</trkpt>
<trkpt lat="-27.2742811" lon="151.2900891">
  <ele>354.28</ele>
  <time>2026-09-01T19:53:43Z</time>
  <course>8.0</course>
  <speed>0.8075270893288967</speed>
  <fix>3d</fix>
</trkpt>
<trkpt lat="-27.2742818" lon="151.290089">
  <ele>354.28</ele>
  <time>2026-09-01T19:53:43Z</time>
  <course>8.01</course>
  <speed>0.81</speed>
  <fix>3d</fix>
</trkpt>
<trkpt lat="-27.2742803" lon="151.2900891">
  <ele>354.27</ele>
  <time>2026-09-01T19:53:43Z</time>
  <course>8.0</course>
  <speed>0.8075270893288967</speed>
  <fix>3d</fix>
</trkpt>
<trkpt lat="-27.2742818" lon="151.290089">
  <ele>354.28</ele>
  <time>2026-09-01T19:53:43Z</time>
  <course>8.01</course>
  <speed>0.81</speed>
  <fix>3d</fix>
</trkpt>
<trkpt lat="-27.2742796" lon="151.2900894">
  <ele>354.27</ele>
  <time>2026-09-01T19:53:43Z</time>
  <course>8.01</course>
  <speed>0.8075270893288967</speed>
  <fix>3d</fix>
</trkpt>
<trkpt lat="-27.2742803" lon="151.2900892">
  <ele>354.27</ele>
  <time>2026-09-01T19:53:43Z</time>
  <course>8.0</course>
  <speed>0.81</speed>
  <fix>3d</fix>
</trkpt>
<trkpt lat="-27.2742789" lon="151.2900895">
  <ele>354.27</ele>
  <time>2026-09-01T19:53:43Z</time>
  <course>8.01</course>
  <speed>0.8075270893288967</speed>
  <fix>3d</fix>
</trkpt>
<trkpt lat="-27.2742803" lon="151.2900892">
  <ele>354.27</ele>
  <time>2026-09-01T19:53:43Z</time>
  <course>8.0</course>
  <speed>0.81</speed>
  <fix>3d</fix>
</trkpt>
<trkpt lat="-27.2742782" lon="151.2900895">
  <ele>354.27</ele>
  <time>2026-09-01T19:53:43Z</time>
  <course>8.01</course>
  <speed>0.8075270893288967</speed>
  <fix>3d</fix>
</trkpt>
<trkpt lat="-27.2742789" lon="151.2900895">
  <ele>354.27</ele>
  <time>2026-09-01T19:53:43Z</time>
  <course>7.99</course>
  <speed>0.81</speed>
  <fix>3d</fix>
</trkpt>
<trkpt lat="-27.2742775" lon="151.2900896">
  <ele>354.27</ele>
  <time>2026-09-01T19:53:43Z</time>
  <course>8.01</course>
  <speed>0.8075270893288967</speed>
  <fix>3d</fix>
</trkpt>
<trkpt lat="-27.2742789" lon="151.2900895">
  <ele>354.27</ele>
  <time>2026-09-01T19:53:43Z</time>
  <course>7.99</course>
  <speed>0.81</speed>
  <fix>3d</fix>
</trkpt>
<trkpt lat="-27.2742767" lon="151.2900898">
  <ele>354.27</ele>
  <time>2026-09-01T19:53:43Z</time>
  <course>8.01</course>
  <speed>0.8075270893288967</speed>
  <fix>3d</fix>
</trkpt>
<trkpt lat="-27.2742774" lon="151.2900897">
  <ele>354.27</ele>
  <time>2026-09-01T19:53:43Z</time>
  <course>7.99</course>
  <speed>0.81</speed>
  <fix>3d</fix>
</trkpt>
<trkpt lat="-27.274276" lon="151.2900899">
  <ele>354.27</ele>
  <time>2026-09-01T19:53:43Z</time>
  <course>8.02</course>
  <speed>0.8075270893288967</speed>
  <fix>3d</fix>
</trkpt>
<trkpt lat="-27.2742774" lon="151.2900897">
  <ele>354.27</ele>
  <time>2026-09-01T19:53:43Z</time>
  <course>7.99</course>
  <speed>0.81</speed>
  <fix>3d</fix>
</trkpt>
<trkpt lat="-27.2742753" lon="151.29009">
  <ele>354.27</ele>
  <time>2026-09-01T19:53:43Z</time>
  <course>8.02</course>
  <speed>0.8075270893288967</speed>
  <fix>3d</fix>
</trkpt>
<trkpt lat="-27.2742774" lon="151.2900897">
  <ele>354.27</ele>
  <time>2026-09-01T19:53:43Z</time>
  <course>7.99</course>
  <speed>0.81</speed>
  <fix>3d</fix>
</trkpt>
<trkpt lat="-27.2742746" lon="151.2900901">
  <ele>354.27</ele>
  <time>2026-09-01T19:53:43Z</time>
  <course>8.02</course>
  <speed>0.8075270893288967</speed>
  <fix>3d</fix>
</trkpt>
<trkpt lat="-27.274276" lon="151.2900899">
  <ele>354.27</ele>
  <time>2026-09-01T19:53:43Z</time>
  <course>8.0</course>
  <speed>0.8</speed>
  <fix>3d</fix>
</trkpt>
<trkpt lat="-27.2742739" lon="151.2900903">
  <ele>354.27</ele>
  <time>2026-09-01T19:53:43Z</time>
  <course>8.01</course>
  <speed>0.7976214641043707</speed>
  <fix>3d</fix>
</trkpt>
<trkpt lat="-27.274276" lon="151.2900899">
  <ele>354.27</ele>
  <time>2026-09-01T19:53:43Z</time>
  <course>8.0</course>
  <speed>0.8</speed>
  <fix>3d</fix>
</trkpt>
<trkpt lat="-27.2742731" lon="151.2900904">
  <ele>354.27</ele>
  <time>2026-09-01T19:53:43Z</time>
  <course>8.0</course>
  <speed>0.7976214641043707</speed>
  <fix>3d</fix>
</trkpt>
<trkpt lat="-27.2742746" lon="151.2900901">
  <ele>354.27</ele>
  <time>2026-09-01T19:53:43Z</time>
  <course>8.03</course>
  <speed>0.8</speed>
  <fix>3d</fix>
</trkpt>
<trkpt lat="-27.2742724" lon="151.2900905">
  <ele>354.27</ele>
  <time>2026-09-01T19:53:43Z</time>
  <course>8.0</course>
  <speed>0.7976214641043707</speed>
  <fix>3d</fix>
</trkpt>
<trkpt lat="-27.2742746" lon="151.2900901">
  <ele>354.27</ele>
  <time>2026-09-01T19:53:43Z</time>
  <course>8.03</course>
  <speed>0.8</speed>
  <fix>3d</fix>
</trkpt>
<trkpt lat="-27.2742717" lon="151.2900905">
  <ele>354.27</ele>
  <time>2026-09-01T19:53:43Z</time>
  <course>7.99</course>
  <speed>0.7976214641043707</speed>
  <fix>3d</fix>
</trkpt>
<trkpt lat="-27.2742731" lon="151.2900904">
  <ele>354.27</ele>
  <time>2026-09-01T19:53:43Z</time>
  <course>8.05</course>
  <speed>0.8</speed>
  <fix>3d</fix>
</trkpt>
<trkpt lat="-27.274271" lon="151.2900906">
  <ele>354.28</ele>
  <time>2026-09-01T19:53:43Z</time>
  <course>7.98</course>
  <speed>0.7976214641043707</speed>
  <fix>3d</fix>
</trkpt>
<trkpt lat="-27.2742731" lon="151.2900904">
  <ele>354.27</ele>
  <time>2026-09-01T19:53:43Z</time>
  <course>8.05</course>
  <speed>0.8</speed>
  <fix>3d</fix>
</trkpt>
<trkpt lat="-27.2742702" lon="151.2900908">
  <ele>354.28</ele>
  <time>2026-09-01T19:53:43Z</time>
  <course>7.98</course>
  <speed>0.7976214641043707</speed>
  <fix>3d</fix>
</trkpt>
<trkpt lat="-27.2742717" lon="151.2900905">
  <ele>354.27</ele>
  <time>2026-09-01T19:53:43Z</time>
  <course>8.06</course>
  <speed>0.8</speed>
  <fix>3d</fix>
</trkpt>
<trkpt lat="-27.2742695" lon="151.290091">
  <ele>354.28</ele>
  <time>2026-09-01T19:53:43Z</time>
  <course>7.98</course>
  <speed>0.7976214641043707</speed>
  <fix>3d</fix>
</trkpt>
<trkpt lat="-27.2742717" lon="151.2900905">
  <ele>354.27</ele>
  <time>2026-09-01T19:53:43Z</time>
  <course>8.06</course>
  <speed>0.8</speed>
  <fix>3d</fix>
</trkpt>
<trkpt lat="-27.2742688" lon="151.290091">
  <ele>354.28</ele>
  <time>2026-09-01T19:53:43Z</time>
  <course>7.99</course>
  <speed>0.7976214641043707</speed>
  <fix>3d</fix>
</trkpt>
<trkpt lat="-27.2742703" lon="151.2900908">
  <ele>354.28</ele>
  <time>2026-09-01T19:53:43Z</time>
  <course>8.06</course>
  <speed>0.8</speed>
  <fix>3d</fix>
</trkpt>
<trkpt lat="-27.2742681" lon="151.2900912">
  <ele>354.28</ele>
  <time>2026-09-01T19:53:43Z</time>
  <course>7.99</course>
  <speed>0.7976214641043707</speed>
  <fix>3d</fix>
</trkpt>
<trkpt lat="-27.2742688" lon="151.290091">
  <ele>354.28</ele>
  <time>2026-09-01T19:53:43Z</time>
  <course>8.06</course>
  <speed>0.8</speed>
  <fix>3d</fix>
</trkpt>
<trkpt lat="-27.2742674" lon="151.2900913">
  <ele>354.28</ele>
  <time>2026-09-01T19:53:44Z</time>
  <course>8.0</course>
  <speed>0.7976214641043707</speed>
  <fix>3d</fix>
</trkpt>
<trkpt lat="-27.2742688" lon="151.290091">
  <ele>354.28</ele>
  <time>2026-09-01T19:53:44Z</time>
  <course>8.06</course>
  <speed>0.8</speed>
  <fix>3d</fix>
</trkpt>
<trkpt lat="-27.2742667" lon="151.2900914">
  <ele>354.27</ele>
  <time>2026-09-01T19:53:44Z</time>
  <course>8.0</course>
  <speed>0.7976214641043707</speed>
  <fix>3d</fix>
</trkpt>
<trkpt lat="-27.2742674" lon="151.2900913">
  <ele>354.27</ele>
  <time>2026-09-01T19:53:44Z</time>
  <course>8.06</course>
  <speed>0.8</speed>
  <fix>3d</fix>
</trkpt>
<trkpt lat="-27.274266" lon="151.2900915">
  <ele>354.27</ele>
  <time>2026-09-01T19:53:44Z</time>
  <course>7.99</course>
  <speed>0.7976214641043707</speed>
  <fix>3d</fix>
</trkpt>
<trkpt lat="-27.2742674" lon="151.2900913">
  <ele>354.27</ele>
  <time>2026-09-01T19:53:44Z</time>
  <course>8.06</course>
  <speed>0.8</speed>
  <fix>3d</fix>
</trkpt>
<trkpt lat="-27.2742653" lon="151.2900915">
  <ele>354.27</ele>
  <time>2026-09-01T19:53:44Z</time>
  <course>7.99</course>
  <speed>0.7976214641043707</speed>
  <fix>3d</fix>
</trkpt>
<trkpt lat="-27.274266" lon="151.2900915">
  <ele>354.27</ele>
  <time>2026-09-01T19:53:44Z</time>
  <course>8.05</course>
  <speed>0.8</speed>
  <fix>3d</fix>
</trkpt>
<trkpt lat="-27.2742646" lon="151.2900918">
  <ele>354.27</ele>
  <time>2026-09-01T19:53:44Z</time>
  <course>7.99</course>
  <speed>0.7976214641043707</speed>
  <fix>3d</fix>
</trkpt>
<trkpt lat="-27.274266" lon="151.2900915">
  <ele>354.27</ele>
  <time>2026-09-01T19:53:44Z</time>
  <course>8.05</course>
  <speed>0.8</speed>
  <fix>3d</fix>
</trkpt>
<trkpt lat="-27.2742638" lon="151.2900919">
  <ele>354.27</ele>
  <time>2026-09-01T19:53:44Z</time>
  <course>7.99</course>
  <speed>0.7976214641043707</speed>
  <fix>3d</fix>
</trkpt>
<trkpt lat="-27.2742646" lon="151.2900917">
  <ele>354.27</ele>
  <time>2026-09-01T19:53:44Z</time>
  <course>8.02</course>
  <speed>0.8</speed>
  <fix>3d</fix>
</trkpt>
<trkpt lat="-27.2742631" lon="151.2900919">
  <ele>354.27</ele>
  <time>2026-09-01T19:53:44Z</time>
  <course>7.99</course>
  <speed>0.7976214641043707</speed>
  <fix>3d</fix>
</trkpt>
<trkpt lat="-27.2742646" lon="151.2900917">
  <ele>354.27</ele>
  <time>2026-09-01T19:53:44Z</time>
  <course>8.02</course>
  <speed>0.8</speed>
  <fix>3d</fix>
</trkpt>
<trkpt lat="-27.2742624" lon="151.290092">
  <ele>354.27</ele>
  <time>2026-09-01T19:53:44Z</time>
  <course>8.0</course>
  <speed>0.7976214641043707</speed>
  <fix>3d</fix>
</trkpt>
<trkpt lat="-27.2742631" lon="151.2900919">
  <ele>354.27</ele>
  <time>2026-09-01T19:53:44Z</time>
  <course>8.0</course>
  <speed>0.8</speed>
  <fix>3d</fix>
</trkpt>
<trkpt lat="-27.2742617" lon="151.2900922">
  <ele>354.27</ele>
  <time>2026-09-01T19:53:44Z</time>
  <course>8.0</course>
  <speed>0.7976214641043707</speed>
  <fix>3d</fix>
</trkpt>
<trkpt lat="-27.2742631" lon="151.2900919">
  <ele>354.27</ele>
  <time>2026-09-01T19:53:44Z</time>
  <course>8.0</course>
  <speed>0.8</speed>
  <fix>3d</fix>
</trkpt>
<trkpt lat="-27.274261" lon="151.2900923">
  <ele>354.27</ele>
  <time>2026-09-01T19:53:44Z</time>
  <course>8.01</course>
  <speed>0.7976214641043707</speed>
  <fix>3d</fix>
</trkpt>
<trkpt lat="-27.2742616" lon="151.2900922">
  <ele>354.27</ele>
  <time>2026-09-01T19:53:44Z</time>
  <course>8.0</course>
  <speed>0.79</speed>
  <fix>3d</fix>
</trkpt>
<trkpt lat="-27.2742603" lon="151.2900924">
  <ele>354.27</ele>
  <time>2026-09-01T19:53:44Z</time>
  <course>8.01</course>
  <speed>0.7976214641043707</speed>
  <fix>3d</fix>
</trkpt>
<trkpt lat="-27.2742616" lon="151.2900922">
  <ele>354.27</ele>
  <time>2026-09-01T19:53:44Z</time>
  <course>8.0</course>
  <speed>0.79</speed>
  <fix>3d</fix>
</trkpt>
<trkpt lat="-27.2742596" lon="151.2900924">
  <ele>354.27</ele>
  <time>2026-09-01T19:53:44Z</time>
  <course>8.01</course>
  <speed>0.7877182237323191</speed>
  <fix>3d</fix>
</trkpt>
<trkpt lat="-27.2742616" lon="151.2900922">
  <ele>354.27</ele>
  <time>2026-09-01T19:53:44Z</time>
  <course>8.0</course>
  <speed>0.79</speed>
  <fix>3d</fix>
</trkpt>
<trkpt lat="-27.2742589" lon="151.2900927">
  <ele>354.27</ele>
  <time>2026-09-01T19:53:44Z</time>
  <course>8.01</course>
  <speed>0.7877182237323191</speed>
  <fix>3d</fix>
</trkpt>
<trkpt lat="-27.2742603" lon="151.2900924">
  <ele>354.27</ele>
  <time>2026-09-01T19:53:44Z</time>
  <course>8.01</course>
  <speed>0.79</speed>
  <fix>3d</fix>
</trkpt>
<trkpt lat="-27.2742582" lon="151.2900928">
  <ele>354.27</ele>
  <time>2026-09-01T19:53:44Z</time>
  <course>8.0</course>
  <speed>0.7877182237323191</speed>
  <fix>3d</fix>
</trkpt>
<trkpt lat="-27.2742603" lon="151.2900924">
  <ele>354.27</ele>
  <time>2026-09-01T19:53:44Z</time>
  <course>8.01</course>
  <speed>0.79</speed>
  <fix>3d</fix>
</trkpt>
<trkpt lat="-27.2742574" lon="151.2900929">
  <ele>354.27</ele>
  <time>2026-09-01T19:53:44Z</time>
  <course>8.0</course>
  <speed>0.7877182237323191</speed>
  <fix>3d</fix>
</trkpt>
<trkpt lat="-27.2742589" lon="151.2900926">
  <ele>354.27</ele>
  <time>2026-09-01T19:53:44Z</time>
  <course>8.03</course>
  <speed>0.79</speed>
  <fix>3d</fix>
</trkpt>
<trkpt lat="-27.2742567" lon="151.2900929">
  <ele>354.27</ele>
  <time>2026-09-01T19:53:44Z</time>
  <course>7.99</course>
  <speed>0.7877182237323191</speed>
  <fix>3d</fix>
</trkpt>
<trkpt lat="-27.2742589" lon="151.2900926">
  <ele>354.27</ele>
  <time>2026-09-01T19:53:44Z</time>
  <course>8.03</course>
  <speed>0.79</speed>
  <fix>3d</fix>
</trkpt>
<trkpt lat="-27.274256" lon="151.2900931">
  <ele>354.27</ele>
  <time>2026-09-01T19:53:44Z</time>
  <course>7.99</course>
  <speed>0.7877182237323191</speed>
  <fix>3d</fix>
</trkpt>
<trkpt lat="-27.2742575" lon="151.2900929">
  <ele>354.27</ele>
  <time>2026-09-01T19:53:44Z</time>
  <course>8.04</course>
  <speed>0.79</speed>
  <fix>3d</fix>
</trkpt>
<trkpt lat="-27.2742553" lon="151.2900932">
  <ele>354.28</ele>
  <time>2026-09-01T19:53:44Z</time>
  <course>7.98</course>
  <speed>0.7877182237323191</speed>
  <fix>3d</fix>
</trkpt>
<trkpt lat="-27.2742575" lon="151.2900929">
  <ele>354.27</ele>
  <time>2026-09-01T19:53:44Z</time>
  <course>8.04</course>
  <speed>0.79</speed>
  <fix>3d</fix>
</trkpt>
<trkpt lat="-27.2742546" lon="151.2900933">
  <ele>354.28</ele>
  <time>2026-09-01T19:53:44Z</time>
  <course>7.98</course>
  <speed>0.7877182237323191</speed>
  <fix>3d</fix>
</trkpt>
<trkpt lat="-27.2742561" lon="151.290093">
  <ele>354.27</ele>
  <time>2026-09-01T19:53:44Z</time>
  <course>8.06</course>
  <speed>0.79</speed>
  <fix>3d</fix>
</trkpt>
<trkpt lat="-27.2742539" lon="151.2900934">
  <ele>354.28</ele>
  <time>2026-09-01T19:53:44Z</time>
  <course>7.98</course>
  <speed>0.7877182237323191</speed>
  <fix>3d</fix>
</trkpt>
<trkpt lat="-27.2742561" lon="151.290093">
  <ele>354.27</ele>
  <time>2026-09-01T19:53:44Z</time>
  <course>8.06</course>
  <speed>0.79</speed>
  <fix>3d</fix>
</trkpt>
<trkpt lat="-27.2742532" lon="151.2900936">
  <ele>354.28</ele>
  <time>2026-09-01T19:53:44Z</time>
  <course>7.98</course>
  <speed>0.7877182237323191</speed>
  <fix>3d</fix>
</trkpt>
<trkpt lat="-27.2742546" lon="151.2900933">
  <ele>354.27</ele>
  <time>2026-09-01T19:53:44Z</time>
  <course>8.07</course>
  <speed>0.79</speed>
  <fix>3d</fix>
</trkpt>
<trkpt lat="-27.2742525" lon="151.2900937">
  <ele>354.28</ele>
  <time>2026-09-01T19:53:44Z</time>
  <course>7.98</course>
  <speed>0.7877182237323191</speed>
  <fix>3d</fix>
</trkpt>
<trkpt lat="-27.2742546" lon="151.2900933">
  <ele>354.27</ele>
  <time>2026-09-01T19:53:44Z</time>
  <course>8.07</course>
  <speed>0.79</speed>
  <fix>3d</fix>
</trkpt>
<trkpt lat="-27.2742518" lon="151.2900938">
  <ele>354.27</ele>
  <time>2026-09-01T19:53:44Z</time>
  <course>7.99</course>
  <speed>0.7877182237323191</speed>
  <fix>3d</fix>
</trkpt>
<trkpt lat="-27.2742531" lon="151.2900935">
  <ele>354.28</ele>
  <time>2026-09-01T19:53:44Z</time>
  <course>8.09</course>
  <speed>0.79</speed>
  <fix>3d</fix>
</trkpt>
<trkpt lat="-27.2742511" lon="151.2900938">
  <ele>354.27</ele>
  <time>2026-09-01T19:53:44Z</time>
  <course>7.99</course>
  <speed>0.7877182237323191</speed>
  <fix>3d</fix>
</trkpt>
<trkpt lat="-27.2742531" lon="151.2900935">
  <ele>354.28</ele>
  <time>2026-09-01T19:53:44Z</time>
  <course>8.09</course>
  <speed>0.79</speed>
  <fix>3d</fix>
</trkpt>
<trkpt lat="-27.2742504" lon="151.2900939">
  <ele>354.27</ele>
  <time>2026-09-01T19:53:44Z</time>
  <course>8.0</course>
  <speed>0.7877182237323191</speed>
  <fix>3d</fix>
</trkpt>
<trkpt lat="-27.2742518" lon="151.2900938">
  <ele>354.27</ele>
  <time>2026-09-01T19:53:44Z</time>
  <course>8.1</course>
  <speed>0.79</speed>
  <fix>3d</fix>
</trkpt>
<trkpt lat="-27.2742497" lon="151.2900941">
  <ele>354.27</ele>
  <time>2026-09-01T19:53:44Z</time>
  <course>8.01</course>
  <speed>0.7877182237323191</speed>
  <fix>3d</fix>
</trkpt>
<trkpt lat="-27.2742518" lon="151.2900938">
  <ele>354.27</ele>
  <time>2026-09-01T19:53:44Z</time>
  <course>8.1</course>
  <speed>0.79</speed>
  <fix>3d</fix>
</trkpt>
<trkpt lat="-27.274249" lon="151.2900942">
  <ele>354.27</ele>
  <time>2026-09-01T19:53:44Z</time>
  <course>8.01</course>
  <speed>0.7877182237323191</speed>
  <fix>3d</fix>
</trkpt>
<trkpt lat="-27.2742504" lon="151.290094">
  <ele>354.27</ele>
  <time>2026-09-01T19:53:44Z</time>
  <course>8.13</course>
  <speed>0.79</speed>
  <fix>3d</fix>
</trkpt>
<trkpt lat="-27.2742483" lon="151.2900943">
  <ele>354.27</ele>
  <time>2026-09-01T19:53:44Z</time>
  <course>8.01</course>
  <speed>0.7877182237323191</speed>
  <fix>3d</fix>
</trkpt>
<trkpt lat="-27.274249" lon="151.2900942">
  <ele>354.27</ele>
  <time>2026-09-01T19:53:44Z</time>
  <course>8.15</course>
  <speed>0.79</speed>
  <fix>3d</fix>
</trkpt>
<trkpt lat="-27.2742476" lon="151.2900944">
  <ele>354.27</ele>
  <time>2026-09-01T19:53:44Z</time>
  <course>8.02</course>
  <speed>0.7877182237323191</speed>
  <fix>3d</fix>
</trkpt>
<trkpt lat="-27.274249" lon="151.2900942">
  <ele>354.27</ele>
  <time>2026-09-01T19:53:44Z</time>
  <course>8.15</course>
  <speed>0.79</speed>
  <fix>3d</fix>
</trkpt>
<trkpt lat="-27.2742469" lon="151.2900946">
  <ele>354.27</ele>
  <time>2026-09-01T19:53:44Z</time>
  <course>8.02</course>
  <speed>0.7877182237323191</speed>
  <fix>3d</fix>
</trkpt>
<trkpt lat="-27.2742476" lon="151.2900944">
  <ele>354.27</ele>
  <time>2026-09-01T19:53:44Z</time>
  <course>8.17</course>
  <speed>0.79</speed>
  <fix>3d</fix>
</trkpt>
<trkpt lat="-27.2742462" lon="151.2900947">
  <ele>354.27</ele>
  <time>2026-09-01T19:53:44Z</time>
  <course>8.02</course>
  <speed>0.7877182237323191</speed>
  <fix>3d</fix>
</trkpt>
<trkpt lat="-27.2742476" lon="151.2900944">
  <ele>354.27</ele>
  <time>2026-09-01T19:53:44Z</time>
  <course>8.17</course>
  <speed>0.79</speed>
  <fix>3d</fix>
</trkpt>
<trkpt lat="-27.2742455" lon="151.2900948">
  <ele>354.27</ele>
  <time>2026-09-01T19:53:44Z</time>
  <course>8.02</course>
  <speed>0.7877182237323191</speed>
  <fix>3d</fix>
</trkpt>
<trkpt lat="-27.2742476" lon="151.2900944">
  <ele>354.27</ele>
  <time>2026-09-01T19:53:44Z</time>
  <course>8.17</course>
  <speed>0.79</speed>
  <fix>3d</fix>
</trkpt>
<trkpt lat="-27.2742448" lon="151.2900948">
  <ele>354.27</ele>
  <time>2026-09-01T19:53:44Z</time>
  <course>8.01</course>
  <speed>0.7778174593052023</speed>
  <fix>3d</fix>
</trkpt>
<trkpt lat="-27.2742462" lon="151.2900947">
  <ele>354.27</ele>
  <time>2026-09-01T19:53:44Z</time>
  <course>8.19</course>
  <speed>0.78</speed>
  <fix>3d</fix>
</trkpt>
<trkpt lat="-27.2742441" lon="151.2900949">
  <ele>354.27</ele>
  <time>2026-09-01T19:53:44Z</time>
  <course>8.01</course>
  <speed>0.7778174593052023</speed>
  <fix>3d</fix>
</trkpt>
<trkpt lat="-27.2742462" lon="151.2900947">
  <ele>354.27</ele>
  <time>2026-09-01T19:53:44Z</time>
  <course>8.19</course>
  <speed>0.78</speed>
  <fix>3d</fix>
</trkpt>
<trkpt lat="-27.2742434" lon="151.2900951">
  <ele>354.27</ele>
  <time>2026-09-01T19:53:44Z</time>
  <course>8.0</course>
  <speed>0.7778174593052023</speed>
  <fix>3d</fix>
</trkpt>
<trkpt lat="-27.2742448" lon="151.2900948">
  <ele>354.27</ele>
  <time>2026-09-01T19:53:44Z</time>
  <course>8.2</course>
  <speed>0.78</speed>
  <fix>3d</fix>
</trkpt>
<trkpt lat="-27.2742427" lon="151.2900953">
  <ele>354.27</ele>
  <time>2026-09-01T19:53:44Z</time>
  <course>7.99</course>
  <speed>0.7778174593052023</speed>
  <fix>3d</fix>
</trkpt>
<trkpt lat="-27.2742448" lon="151.2900948">
  <ele>354.27</ele>
  <time>2026-09-01T19:53:44Z</time>
  <course>8.2</course>
  <speed>0.78</speed>
  <fix>3d</fix>
</trkpt>
<trkpt lat="-27.274242" lon="151.2900953">
  <ele>354.27</ele>
  <time>2026-09-01T19:53:44Z</time>
  <course>7.98</course>
  <speed>0.7778174593052023</speed>
  <fix>3d</fix>
</trkpt>
<trkpt lat="-27.2742433" lon="151.2900951">
  <ele>354.27</ele>
  <time>2026-09-01T19:53:44Z</time>
  <course>8.21</course>
  <speed>0.78</speed>
  <fix>3d</fix>
</trkpt>
<trkpt lat="-27.2742413" lon="151.2900955">
  <ele>354.27</ele>
  <time>2026-09-01T19:53:44Z</time>
  <course>7.98</course>
  <speed>0.7778174593052023</speed>
  <fix>3d</fix>
</trkpt>
<trkpt lat="-27.2742433" lon="151.2900951">
  <ele>354.27</ele>
  <time>2026-09-01T19:53:44Z</time>
  <course>8.21</course>
  <speed>0.78</speed>
  <fix>3d</fix>
</trkpt>
<trkpt lat="-27.2742406" lon="151.2900956">
  <ele>354.27</ele>
  <time>2026-09-01T19:53:44Z</time>
  <course>7.97</course>
  <speed>0.7778174593052023</speed>
  <fix>3d</fix>
</trkpt>
<trkpt lat="-27.274242" lon="151.2900953">
  <ele>354.27</ele>
  <time>2026-09-01T19:53:44Z</time>
  <course>8.21</course>
  <speed>0.78</speed>
  <fix>3d</fix>
</trkpt>
<trkpt lat="-27.2742399" lon="151.2900957">
  <ele>354.27</ele>
  <time>2026-09-01T19:53:44Z</time>
  <course>7.97</course>
  <speed>0.7778174593052023</speed>
  <fix>3d</fix>
</trkpt>
<trkpt lat="-27.274242" lon="151.2900953">
  <ele>354.27</ele>
  <time>2026-09-01T19:53:44Z</time>
  <course>8.21</course>
  <speed>0.78</speed>
  <fix>3d</fix>
</trkpt>
<trkpt lat="-27.2742392" lon="151.2900958">
  <ele>354.27</ele>
  <time>2026-09-01T19:53:44Z</time>
  <course>7.98</course>
  <speed>0.7778174593052023</speed>
  <fix>3d</fix>
</trkpt>
<trkpt lat="-27.2742406" lon="151.2900956">
  <ele>354.27</ele>
  <time>2026-09-01T19:53:44Z</time>
  <course>8.21</course>
  <speed>0.78</speed>
  <fix>3d</fix>
</trkpt>
<trkpt lat="-27.2742385" lon="151.2900958">
  <ele>354.27</ele>
  <time>2026-09-01T19:53:44Z</time>
  <course>7.98</course>
  <speed>0.7778174593052023</speed>
  <fix>3d</fix>
</trkpt>
<trkpt lat="-27.2742406" lon="151.2900956">
  <ele>354.27</ele>
  <time>2026-09-01T19:53:44Z</time>
  <course>8.21</course>
  <speed>0.78</speed>
  <fix>3d</fix>
</trkpt>
<trkpt lat="-27.2742378" lon="151.2900961">
  <ele>354.28</ele>
  <time>2026-09-01T19:53:44Z</time>
  <course>7.99</course>
  <speed>0.7778174593052023</speed>
  <fix>3d</fix>
</trkpt>
<trkpt lat="-27.2742391" lon="151.2900958">
  <ele>354.27</ele>
  <time>2026-09-01T19:53:44Z</time>
  <course>8.2</course>
  <speed>0.78</speed>
  <fix>3d</fix>
</trkpt>
<trkpt lat="-27.274237" lon="151.2900962">
  <ele>354.28</ele>
  <time>2026-09-01T19:53:44Z</time>
  <course>7.99</course>
  <speed>0.7778174593052023</speed>
  <fix>3d</fix>
</trkpt>
<trkpt lat="-27.2742391" lon="151.2900958">
  <ele>354.27</ele>
  <time>2026-09-01T19:53:44Z</time>
  <course>8.2</course>
  <speed>0.78</speed>
  <fix>3d</fix>
</trkpt>
<trkpt lat="-27.2742364" lon="151.2900962">
  <ele>354.28</ele>
  <time>2026-09-01T19:53:44Z</time>
  <course>7.99</course>
  <speed>0.7778174593052023</speed>
  <fix>3d</fix>
</trkpt>
<trkpt lat="-27.2742378" lon="151.290096">
  <ele>354.27</ele>
  <time>2026-09-01T19:53:44Z</time>
  <course>8.21</course>
  <speed>0.78</speed>
  <fix>3d</fix>
</trkpt>
<trkpt lat="-27.2742357" lon="151.2900963">
  <ele>354.27</ele>
  <time>2026-09-01T19:53:44Z</time>
  <course>7.99</course>
  <speed>0.7778174593052023</speed>
  <fix>3d</fix>
</trkpt>
<trkpt lat="-27.2742378" lon="151.290096">
  <ele>354.27</ele>
  <time>2026-09-01T19:53:44Z</time>
  <course>8.21</course>
  <speed>0.78</speed>
  <fix>3d</fix>
</trkpt>
<trkpt lat="-27.274235" lon="151.2900965">
  <ele>354.27</ele>
  <time>2026-09-01T19:53:44Z</time>
  <course>8.0</course>
  <speed>0.7778174593052023</speed>
  <fix>3d</fix>
</trkpt>
<trkpt lat="-27.2742364" lon="151.2900962">
  <ele>354.28</ele>
  <time>2026-09-01T19:53:44Z</time>
  <course>8.22</course>
  <speed>0.78</speed>
  <fix>3d</fix>
</trkpt>
<trkpt lat="-27.2742343" lon="151.2900966">
  <ele>354.27</ele>
  <time>2026-09-01T19:53:44Z</time>
  <course>8.0</course>
  <speed>0.7778174593052023</speed>
  <fix>3d</fix>
</trkpt>
<trkpt lat="-27.2742364" lon="151.2900962">
  <ele>354.28</ele>
  <time>2026-09-01T19:53:44Z</time>
  <course>8.22</course>
  <speed>0.78</speed>
  <fix>3d</fix>
</trkpt>
<trkpt lat="-27.2742336" lon="151.2900967">
  <ele>354.27</ele>
  <time>2026-09-01T19:53:44Z</time>
  <course>8.0</course>
  <speed>0.7778174593052023</speed>
  <fix>3d</fix>
</trkpt>
<trkpt lat="-27.274235" lon="151.2900965">
  <ele>354.27</ele>
  <time>2026-09-01T19:53:44Z</time>
  <course>8.22</course>
  <speed>0.78</speed>
  <fix>3d</fix>
</trkpt>
<trkpt lat="-27.2742329" lon="151.2900967">
  <ele>354.27</ele>
  <time>2026-09-01T19:53:44Z</time>
  <course>8.01</course>
  <speed>0.7778174593052023</speed>
  <fix>3d</fix>
</trkpt>
<trkpt lat="-27.274235" lon="151.2900965">
  <ele>354.27</ele>
  <time>2026-09-01T19:53:44Z</time>
  <course>8.22</course>
  <speed>0.78</speed>
  <fix>3d</fix>
</trkpt>
<trkpt lat="-27.2742322" lon="151.290097">
  <ele>354.27</ele>
  <time>2026-09-01T19:53:44Z</time>
  <course>8.01</course>
  <speed>0.7778174593052023</speed>
  <fix>3d</fix>
</trkpt>
<trkpt lat="-27.2742336" lon="151.2900967">
  <ele>354.27</ele>
  <time>2026-09-01T19:53:44Z</time>
  <course>8.25</course>
  <speed>0.77</speed>
  <fix>3d</fix>
</trkpt>
<trkpt lat="-27.2742315" lon="151.2900971">
  <ele>354.27</ele>
  <time>2026-09-01T19:53:44Z</time>
  <course>8.0</course>
  <speed>0.7778174593052023</speed>
  <fix>3d</fix>
</trkpt>
<trkpt lat="-27.2742336" lon="151.2900967">
  <ele>354.27</ele>
  <time>2026-09-01T19:53:44Z</time>
  <course>8.25</course>
  <speed>0.77</speed>
  <fix>3d</fix>
</trkpt>
<trkpt lat="-27.2742308" lon="151.2900972">
  <ele>354.27</ele>
  <time>2026-09-01T19:53:44Z</time>
  <course>7.99</course>
  <speed>0.7778174593052023</speed>
  <fix>3d</fix>
</trkpt>
<trkpt lat="-27.2742323" lon="151.2900969">
  <ele>354.27</ele>
  <time>2026-09-01T19:53:44Z</time>
  <course>8.26</course>
  <speed>0.77</speed>
  <fix>3d</fix>
</trkpt>
<trkpt lat="-27.2742302" lon="151.2900972">
  <ele>354.27</ele>
  <time>2026-09-01T19:53:44Z</time>
  <course>7.99</course>
  <speed>0.7679192665899195</speed>
  <fix>3d</fix>
</trkpt>
<trkpt lat="-27.2742323" lon="151.2900969">
  <ele>354.27</ele>
  <time>2026-09-01T19:53:44Z</time>
  <course>8.26</course>
  <speed>0.77</speed>
  <fix>3d</fix>
</trkpt>
<trkpt lat="-27.2742294" lon="151.2900973">
  <ele>354.27</ele>
  <time>2026-09-01T19:53:44Z</time>
  <course>7.99</course>
  <speed>0.7679192665899195</speed>
  <fix>3d</fix>
</trkpt>
<trkpt lat="-27.2742309" lon="151.2900972">
  <ele>354.27</ele>
  <time>2026-09-01T19:53:44Z</time>
  <course>8.23</course>
  <speed>0.77</speed>
  <fix>3d</fix>
</trkpt>
<trkpt lat="-27.2742288" lon="151.2900975">
  <ele>354.27</ele>
  <time>2026-09-01T19:53:44Z</time>
  <course>7.99</course>
  <speed>0.7679192665899195</speed>
  <fix>3d</fix>
</trkpt>
<trkpt lat="-27.2742309" lon="151.2900972">
  <ele>354.27</ele>
  <time>2026-09-01T19:53:44Z</time>
  <course>8.23</course>
  <speed>0.77</speed>
  <fix>3d</fix>
</trkpt>
<trkpt lat="-27.2742281" lon="151.2900976">
  <ele>354.27</ele>
  <time>2026-09-01T19:53:44Z</time>
  <course>8.0</course>
  <speed>0.7679192665899195</speed>
  <fix>3d</fix>
</trkpt>
<trkpt lat="-27.2742294" lon="151.2900973">
  <ele>354.27</ele>
  <time>2026-09-01T19:53:44Z</time>
  <course>8.21</course>
  <speed>0.77</speed>
  <fix>3d</fix>
</trkpt>
<trkpt lat="-27.2742274" lon="151.2900977">
  <ele>354.27</ele>
  <time>2026-09-01T19:53:44Z</time>
  <course>8.0</course>
  <speed>0.7679192665899195</speed>
  <fix>3d</fix>
</trkpt>
<trkpt lat="-27.2742294" lon="151.2900973">
  <ele>354.27</ele>
  <time>2026-09-01T19:53:44Z</time>
  <course>8.21</course>
  <speed>0.77</speed>
  <fix>3d</fix>
</trkpt>
<trkpt lat="-27.2742267" lon="151.2900979">
  <ele>354.27</ele>
  <time>2026-09-01T19:53:44Z</time>
  <course>8.0</course>
  <speed>0.7679192665899195</speed>
  <fix>3d</fix>
</trkpt>
<trkpt lat="-27.2742281" lon="151.2900976">
  <ele>354.27</ele>
  <time>2026-09-01T19:53:44Z</time>
  <course>8.2</course>
  <speed>0.77</speed>
  <fix>3d</fix>
</trkpt>
<trkpt lat="-27.274226" lon="151.290098">
  <ele>354.27</ele>
  <time>2026-09-01T19:53:44Z</time>
  <course>8.0</course>
  <speed>0.7679192665899195</speed>
  <fix>3d</fix>
</trkpt>
<trkpt lat="-27.2742281" lon="151.2900976">
  <ele>354.27</ele>
  <time>2026-09-01T19:53:44Z</time>
  <course>8.2</course>
  <speed>0.77</speed>
  <fix>3d</fix>
</trkpt>
<trkpt lat="-27.2742253" lon="151.2900981">
  <ele>354.27</ele>
  <time>2026-09-01T19:53:44Z</time>
  <course>8.0</course>
  <speed>0.7679192665899195</speed>
  <fix>3d</fix>
</trkpt>
<trkpt lat="-27.2742267" lon="151.2900978">
  <ele>354.27</ele>
  <time>2026-09-01T19:53:44Z</time>
  <course>8.19</course>
  <speed>0.77</speed>
  <fix>3d</fix>
</trkpt>
<trkpt lat="-27.2742246" lon="151.2900982">
  <ele>354.27</ele>
  <time>2026-09-01T19:53:44Z</time>
  <course>7.99</course>
  <speed>0.7679192665899195</speed>
  <fix>3d</fix>
</trkpt>
<trkpt lat="-27.2742267" lon="151.2900978">
  <ele>354.27</ele>
  <time>2026-09-01T19:53:44Z</time>
  <course>8.19</course>
  <speed>0.77</speed>
  <fix>3d</fix>
</trkpt>
<trkpt lat="-27.2742239" lon="151.2900982">
  <ele>354.27</ele>
  <time>2026-09-01T19:53:44Z</time>
  <course>7.99</course>
  <speed>0.7679192665899195</speed>
  <fix>3d</fix>
</trkpt>
<trkpt lat="-27.2742253" lon="151.2900981">
  <ele>354.27</ele>
  <time>2026-09-01T19:53:44Z</time>
  <course>8.2</course>
  <speed>0.77</speed>
  <fix>3d</fix>
</trkpt>
<trkpt lat="-27.2742233" lon="151.2900984">
  <ele>354.27</ele>
  <time>2026-09-01T19:53:44Z</time>
  <course>7.99</course>
  <speed>0.7679192665899195</speed>
  <fix>3d</fix>
</trkpt>
<trkpt lat="-27.2742253" lon="151.2900981">
  <ele>354.27</ele>
  <time>2026-09-01T19:53:44Z</time>
  <course>8.2</course>
  <speed>0.77</speed>
  <fix>3d</fix>
</trkpt>
<trkpt lat="-27.2742226" lon="151.2900985">
  <ele>354.27</ele>
  <time>2026-09-01T19:53:44Z</time>
  <course>7.99</course>
  <speed>0.7679192665899195</speed>
  <fix>3d</fix>
</trkpt>
<trkpt lat="-27.2742239" lon="151.2900983">
  <ele>354.27</ele>
  <time>2026-09-01T19:53:44Z</time>
  <course>8.23</course>
  <speed>0.77</speed>
  <fix>3d</fix>
</trkpt>
<trkpt lat="-27.2742219" lon="151.2900986">
  <ele>354.27</ele>
  <time>2026-09-01T19:53:44Z</time>
  <course>7.99</course>
  <speed>0.7679192665899195</speed>
  <fix>3d</fix>
</trkpt>
<trkpt lat="-27.2742239" lon="151.2900983">
  <ele>354.27</ele>
  <time>2026-09-01T19:53:44Z</time>
  <course>8.23</course>
  <speed>0.77</speed>
  <fix>3d</fix>
</trkpt>
<trkpt lat="-27.2742212" lon="151.2900987">
  <ele>354.27</ele>
  <time>2026-09-01T19:53:44Z</time>
  <course>7.98</course>
  <speed>0.7679192665899195</speed>
  <fix>3d</fix>
</trkpt>
<trkpt lat="-27.2742226" lon="151.2900985">
  <ele>354.27</ele>
  <time>2026-09-01T19:53:44Z</time>
  <course>8.25</course>
  <speed>0.77</speed>
  <fix>3d</fix>
</trkpt>
<trkpt lat="-27.2742205" lon="151.2900989">
  <ele>354.27</ele>
  <time>2026-09-01T19:53:44Z</time>
  <course>7.98</course>
  <speed>0.7679192665899195</speed>
  <fix>3d</fix>
</trkpt>
<trkpt lat="-27.2742226" lon="151.2900985">
  <ele>354.27</ele>
  <time>2026-09-01T19:53:44Z</time>
  <course>8.25</course>
  <speed>0.77</speed>
  <fix>3d</fix>
</trkpt>
<trkpt lat="-27.2742198" lon="151.290099">
  <ele>354.27</ele>
  <time>2026-09-01T19:53:44Z</time>
  <course>7.97</course>
  <speed>0.7679192665899195</speed>
  <fix>3d</fix>
</trkpt>
<trkpt lat="-27.2742212" lon="151.2900987">
  <ele>354.27</ele>
  <time>2026-09-01T19:53:44Z</time>
  <course>8.25</course>
  <speed>0.77</speed>
  <fix>3d</fix>
</trkpt>
<trkpt lat="-27.2742191" lon="151.2900991">
  <ele>354.27</ele>
  <time>2026-09-01T19:53:44Z</time>
  <course>7.97</course>
  <speed>0.7679192665899195</speed>
  <fix>3d</fix>
</trkpt>
<trkpt lat="-27.2742212" lon="151.2900987">
  <ele>354.27</ele>
  <time>2026-09-01T19:53:44Z</time>
  <course>8.25</course>
  <speed>0.77</speed>
  <fix>3d</fix>
</trkpt>
<trkpt lat="-27.2742185" lon="151.2900991">
  <ele>354.27</ele>
  <time>2026-09-01T19:53:44Z</time>
  <course>7.97</course>
  <speed>0.7679192665899195</speed>
  <fix>3d</fix>
</trkpt>
<trkpt lat="-27.2742199" lon="151.290099">
  <ele>354.27</ele>
  <time>2026-09-01T19:53:44Z</time>
  <course>8.23</course>
  <speed>0.77</speed>
  <fix>3d</fix>
</trkpt>
<trkpt lat="-27.2742178" lon="151.2900992">
  <ele>354.27</ele>
  <time>2026-09-01T19:53:44Z</time>
  <course>7.98</course>
  <speed>0.766550715869472</speed>
  <fix>3d</fix>
</trkpt>
<trkpt lat="-27.2742199" lon="151.290099">
  <ele>354.27</ele>
  <time>2026-09-01T19:53:44Z</time>
  <course>8.23</course>
  <speed>0.77</speed>
  <fix>3d</fix>
</trkpt>
<trkpt lat="-27.2742171" lon="151.2900994">
  <ele>354.27</ele>
  <time>2026-09-01T19:53:44Z</time>
  <course>7.98</course>
  <speed>0.766550715869472</speed>
  <fix>3d</fix>
</trkpt>
<trkpt lat="-27.2742184" lon="151.2900991">
  <ele>354.27</ele>
  <time>2026-09-01T19:53:44Z</time>
  <course>8.21</course>
  <speed>0.76</speed>
  <fix>3d</fix>
</trkpt>
<trkpt lat="-27.2742164" lon="151.2900995">
  <ele>354.27</ele>
  <time>2026-09-01T19:53:44Z</time>
  <course>7.98</course>
  <speed>0.766550715869472</speed>
  <fix>3d</fix>
</trkpt>
<trkpt lat="-27.2742184" lon="151.2900991">
  <ele>354.27</ele>
  <time>2026-09-01T19:53:44Z</time>
  <course>8.21</course>
  <speed>0.76</speed>
  <fix>3d</fix>
</trkpt>
<trkpt lat="-27.2742157" lon="151.2900996">
  <ele>354.28</ele>
  <time>2026-09-01T19:53:44Z</time>
  <course>7.99</course>
  <speed>0.766550715869472</speed>
  <fix>3d</fix>
</trkpt>
<trkpt lat="-27.2742171" lon="151.2900993">
  <ele>354.27</ele>
  <time>2026-09-01T19:53:44Z</time>
  <course>8.19</course>
  <speed>0.76</speed>
  <fix>3d</fix>
</trkpt>
<trkpt lat="-27.274215" lon="151.2900998">
  <ele>354.28</ele>
  <time>2026-09-01T19:53:44Z</time>
  <course>7.99</course>
  <speed>0.766550715869472</speed>
  <fix>3d</fix>
</trkpt>
<trkpt lat="-27.2742171" lon="151.2900993">
  <ele>354.27</ele>
  <time>2026-09-01T19:53:44Z</time>
  <course>8.19</course>
  <speed>0.76</speed>
  <fix>3d</fix>
</trkpt>
<trkpt lat="-27.2742144" lon="151.2900999">
  <ele>354.27</ele>
  <time>2026-09-01T19:53:44Z</time>
  <course>8.0</course>
  <speed>0.7566372975210779</speed>
  <fix>3d</fix>
</trkpt>
<trkpt lat="-27.2742157" lon="151.2900996">
  <ele>354.27</ele>
  <time>2026-09-01T19:53:44Z</time>
  <course>8.16</course>
  <speed>0.76</speed>
  <fix>3d</fix>
</trkpt>
<trkpt lat="-27.2742137" lon="151.2901">
  <ele>354.27</ele>
  <time>2026-09-01T19:53:44Z</time>
  <course>8.0</course>
  <speed>0.7566372975210779</speed>
  <fix>3d</fix>
</trkpt>
<trkpt lat="-27.2742157" lon="151.2900996">
  <ele>354.27</ele>
  <time>2026-09-01T19:53:44Z</time>
  <course>8.16</course>
  <speed>0.76</speed>
  <fix>3d</fix>
</trkpt>
<trkpt lat="-27.274213" lon="151.2901001">
  <ele>354.27</ele>
  <time>2026-09-01T19:53:44Z</time>
  <course>8.01</course>
  <speed>0.7467261881037789</speed>
  <fix>3d</fix>
</trkpt>
<trkpt lat="-27.2742144" lon="151.2900998">
  <ele>354.27</ele>
  <time>2026-09-01T19:53:44Z</time>
  <course>8.16</course>
  <speed>0.76</speed>
  <fix>3d</fix>
</trkpt>
<trkpt lat="-27.2742123" lon="151.2901001">
  <ele>354.27</ele>
  <time>2026-09-01T19:53:44Z</time>
  <course>8.01</course>
  <speed>0.7269112738154498</speed>
  <fix>3d</fix>
</trkpt>
<trkpt lat="-27.2742144" lon="151.2900998">
  <ele>354.27</ele>
  <time>2026-09-01T19:53:44Z</time>
  <course>8.16</course>
  <speed>0.76</speed>
  <fix>3d</fix>
</trkpt>
<trkpt lat="-27.2742117" lon="151.2901003">
  <ele>354.28</ele>
  <time>2026-09-01T19:53:44Z</time>
  <course>8.0</course>
  <speed>0.6972087205421343</speed>
  <fix>3d</fix>
</trkpt>
<trkpt lat="-27.274213" lon="151.2901001">
  <ele>354.27</ele>
  <time>2026-09-01T19:53:44Z</time>
  <course>8.17</course>
  <speed>0.75</speed>
  <fix>3d</fix>
</trkpt>
<trkpt lat="-27.2742111" lon="151.2901004">
  <ele>354.28</ele>
  <time>2026-09-01T19:53:44Z</time>
  <course>8.0</course>
  <speed>0.6562011886609167</speed>
  <fix>3d</fix>
</trkpt>
<trkpt lat="-27.274213" lon="151.2901001">
  <ele>354.27</ele>
  <time>2026-09-01T19:53:44Z</time>
  <course>8.17</course>
  <speed>0.75</speed>
  <fix>3d</fix>
</trkpt>
<trkpt lat="-27.2742105" lon="151.2901005">
  <ele>354.28</ele>
  <time>2026-09-01T19:53:44Z</time>
  <course>8.0</course>
  <speed>0.5953990258641678</speed>
  <fix>3d</fix>
</trkpt>
<trkpt lat="-27.2742117" lon="151.2901003">
  <ele>354.27</ele>
  <time>2026-09-01T19:53:44Z</time>
  <course>8.17</course>
  <speed>0.7</speed>
  <fix>3d</fix>
</trkpt>
<trkpt lat="-27.27421" lon="151.2901006">
  <ele>354.28</ele>
  <time>2026-09-01T19:53:44Z</time>
  <course>8.0</course>
  <speed>0.51478150704935</speed>
  <fix>3d</fix>
</trkpt>
<trkpt lat="-27.2742117" lon="151.2901003">
  <ele>354.27</ele>
  <time>2026-09-01T19:53:44Z</time>
  <course>8.17</course>
  <speed>0.7</speed>
  <fix>3d</fix>
</trkpt>
<trkpt lat="-27.2742096" lon="151.2901006">
  <ele>354.28</ele>
  <time>2026-09-01T19:53:44Z</time>
  <course>8.0</course>
  <speed>0.4242640687119285</speed>
  <fix>3d</fix>
</trkpt>
<trkpt lat="-27.2742105" lon="151.2901005">
  <ele>354.28</ele>
  <time>2026-09-01T19:53:44Z</time>
  <course>8.2</course>
  <speed>0.59</speed>
  <fix>3d</fix>
</trkpt>
<trkpt lat="-27.2742093" lon="151.2901006">
  <ele>354.28</ele>
  <time>2026-09-01T19:53:45Z</time>
  <course>7.99</course>
  <speed>0.3125699921617557</speed>
  <fix>3d</fix>
</trkpt>
<trkpt lat="-27.2742105" lon="151.2901005">
  <ele>354.28</ele>
  <time>2026-09-01T19:53:45Z</time>
  <course>8.2</course>
  <speed>0.59</speed>
  <fix>3d</fix>
</trkpt>
<trkpt lat="-27.2742093" lon="151.2901006">
  <ele>354.28</ele>
  <time>2026-09-01T19:53:45Z</time>
  <course>7.99</course>
  <speed>0.3026549190084311</speed>
  <fix>3d</fix>
</trkpt>
<trkpt lat="-27.2742091" lon="151.2901006">
  <ele>354.28</ele>
  <time>2026-09-01T19:53:45Z</time>
  <course>7.98</course>
  <speed>0.18110770276274835</speed>
  <fix>3d</fix>
</trkpt>
<trkpt lat="-27.2742097" lon="151.2901006">
  <ele>354.28</ele>
  <time>2026-09-01T19:53:45Z</time>
  <course>8.24</course>
  <speed>0.42</speed>
  <fix>3d</fix>
</trkpt>
<trkpt lat="-27.274209" lon="151.2901006">
  <ele>354.28</ele>
  <time>2026-09-01T19:53:45Z</time>
  <course>7.98</course>
  <speed>0.1711724276862369</speed>
  <fix>3d</fix>
</trkpt>
<trkpt lat="-27.274209" lon="151.2901006">
  <ele>354.28</ele>
  <time>2026-09-01T19:53:45Z</time>
  <course>7.98</course>
  <speed>0.03</speed>
  <fix>3d</fix>
</trkpt>
<trkpt lat="-27.2742097" lon="151.2901006">
  <ele>354.28</ele>
  <time>2026-09-01T19:53:45Z</time>
  <course>8.24</course>
  <speed>0.42</speed>
  <fix>3d</fix>
</trkpt>
<trkpt lat="-27.2742089" lon="151.2901006">
  <ele>354.27</ele>
  <time>2026-09-01T19:53:45Z</time>
  <course>7.97</course>
  <speed>0.01</speed>
  <fix>3d</fix>
</trkpt>
<trkpt lat="-27.274209" lon="151.2901006">
  <ele>354.27</ele>
  <time>2026-09-01T19:53:45Z</time>
  <course>7.97</course>
  <speed>0.12041594578792296</speed>
  <fix>3d</fix>
</trkpt>
<trkpt lat="-27.2742091" lon="151.2901006">
  <ele>354.28</ele>
  <time>2026-09-01T19:53:45Z</time>
  <course>8.36</course>
  <speed>0.18</speed>
  <fix>3d</fix>
</trkpt>
<trkpt lat="-27.274209" lon="151.2901006">
  <ele>354.27</ele>
  <time>2026-09-01T19:53:45Z</time>
  <course>7.96</course>
  <speed>0.18110770276274835</speed>
  <fix>3d</fix>
</trkpt>
<trkpt lat="-27.2742092" lon="151.2901006">
  <ele>354.27</ele>
  <time>2026-09-01T19:53:45Z</time>
  <course>7.96</course>
  <speed>0.29274562336608895</speed>
  <fix>3d</fix>
</trkpt>
<trkpt lat="-27.2742091" lon="151.2901006">
  <ele>354.28</ele>
  <time>2026-09-01T19:53:45Z</time>
  <course>8.36</course>
  <speed>0.18</speed>
  <fix>3d</fix>
</trkpt>
<trkpt lat="-27.2742093" lon="151.2901006">
  <ele>354.27</ele>
  <time>2026-09-01T19:53:45Z</time>
  <course>7.96</course>
  <speed>0.3535533905932738</speed>
  <fix>3d</fix>
</trkpt>
<trkpt lat="-27.2742095" lon="151.2901006">
  <ele>354.27</ele>
  <time>2026-09-01T19:53:45Z</time>
  <course>7.95</course>
  <speed>0.48373546489791297</speed>
  <fix>3d</fix>
</trkpt>
<trkpt lat="-27.2742091" lon="151.2901006">
  <ele>354.27</ele>
  <time>2026-09-01T19:53:45Z</time>
  <course>187.78</course>
  <speed>0.12</speed>
  <fix>3d</fix>
</trkpt>
<trkpt lat="-27.2742097" lon="151.2901006">
  <ele>354.27</ele>
  <time>2026-09-01T19:53:45Z</time>
  <course>7.95</course>
  <speed>0.5445181356024793</speed>
  <fix>3d</fix>
</trkpt>
<trkpt lat="-27.27421" lon="151.2901006">
  <ele>354.27</ele>
  <time>2026-09-01T19:53:45Z</time>
  <course>7.94</course>
  <speed>0.6661080993352355</speed>
  <fix>3d</fix>
</trkpt>
<trkpt lat="-27.2742091" lon="151.2901006">
  <ele>354.27</ele>
  <time>2026-09-01T19:53:45Z</time>
  <course>187.78</course>
  <speed>0.12</speed>
  <fix>3d</fix>
</trkpt>
<trkpt lat="-27.2742102" lon="151.2901005">
  <ele>354.27</ele>
  <time>2026-09-01T19:53:45Z</time>
  <course>7.94</course>
  <speed>0.7269112738154498</speed>
  <fix>3d</fix>
</trkpt>
<trkpt lat="-27.2742106" lon="151.2901005">
  <ele>354.27</ele>
  <time>2026-09-01T19:53:45Z</time>
  <course>7.93</course>
  <speed>0.8372574275573791</speed>
  <fix>3d</fix>
</trkpt>
<trkpt lat="-27.2742096" lon="151.2901006">
  <ele>354.27</ele>
  <time>2026-09-01T19:53:45Z</time>
  <course>187.95</course>
  <speed>0.47</speed>
  <fix>3d</fix>
</trkpt>
<trkpt lat="-27.2742109" lon="151.2901005">
  <ele>354.27</ele>
  <time>2026-09-01T19:53:45Z</time>
  <course>7.92</course>
  <speed>0.8980534505250788</speed>
  <fix>3d</fix>
</trkpt>
<trkpt lat="-27.2742115" lon="151.2901004">
  <ele>354.27</ele>
  <time>2026-09-01T19:53:45Z</time>
  <course>7.91</course>
  <speed>1.009752444909147</speed>
  <fix>3d</fix>
</trkpt>
<trkpt lat="-27.2742096" lon="151.2901006">
  <ele>354.27</ele>
  <time>2026-09-01T19:53:45Z</time>
  <course>187.95</course>
  <speed>0.47</speed>
  <fix>3d</fix>
</trkpt>
<trkpt lat="-27.2742115" lon="151.2901004">
  <ele>354.27</ele>
  <time>2026-09-01T19:53:45Z</time>
  <course>7.91</course>
  <speed>1.0196568050084303</speed>
  <fix>3d</fix>
</trkpt>
<trkpt lat="-27.2742124" lon="151.2901003">
  <ele>354.27</ele>
  <time>2026-09-01T19:53:45Z</time>
  <course>7.89</course>
  <speed>1.161077086157504</speed>
  <fix>3d</fix>
</trkpt>
<trkpt lat="-27.2742107" lon="151.2901005">
  <ele>354.27</ele>
  <time>2026-09-01T19:53:45Z</time>
  <course>187.93</course>
  <speed>0.83</speed>
  <fix>3d</fix>
</trkpt>
<trkpt lat="-27.2742127" lon="151.2901001">
  <ele>354.27</ele>
  <time>2026-09-01T19:53:45Z</time>
  <course>7.89</course>
  <speed>1.1907980517283356</speed>
  <fix>3d</fix>
</trkpt>
<trkpt lat="-27.2742135" lon="151.2901001">
  <ele>354.28</ele>
  <time>2026-09-01T19:53:45Z</time>
  <course>7.94</course>
  <speed>1.2826924806827238</speed>
  <fix>3d</fix>
</trkpt>
<trkpt lat="-27.2742107" lon="151.2901005">
  <ele>354.27</ele>
  <time>2026-09-01T19:53:45Z</time>
  <course>187.93</course>
  <speed>0.83</speed>
  <fix>3d</fix>
</trkpt>
<trkpt lat="-27.274214" lon="151.2901">
  <ele>354.28</ele>
  <time>2026-09-01T19:53:45Z</time>
  <course>8.05</course>
  <speed>1.332216198670471</speed>
  <fix>3d</fix>
</trkpt>
<trkpt lat="-27.2742147" lon="151.2900999">
  <ele>354.28</ele>
  <time>2026-09-01T19:53:45Z</time>
  <course>8.34</course>
  <speed>1.38452157801892</speed>
  <fix>3d</fix>
</trkpt>
<trkpt lat="-27.2742124" lon="151.2901002">
  <ele>354.27</ele>
  <time>2026-09-01T19:53:45Z</time>
  <course>187.96</course>
  <speed>1.14</speed>
  <fix>3d</fix>
</trkpt>
<trkpt lat="-27.2742153" lon="151.2900998">
  <ele>354.28</ele>
  <time>2026-09-01T19:53:45Z</time>
  <course>8.79</course>
  <speed>1.41718029904455</speed>
  <fix>3d</fix>
</trkpt>
<trkpt lat="-27.274216" lon="151.2900996">
  <ele>354.28</ele>
  <time>2026-09-01T19:53:45Z</time>
  <course>9.59</course>
  <speed>1.4615402833996742</speed>
  <fix>3d</fix>
</trkpt>
<trkpt lat="-27.2742124" lon="151.2901002">
  <ele>354.27</ele>
  <time>2026-09-01T19:53:45Z</time>
  <course>187.96</course>
  <speed>1.14</speed>
  <fix>3d</fix>
</trkpt>
<trkpt lat="-27.274216" lon="151.2900996">
  <ele>354.28</ele>
  <time>2026-09-01T19:53:45Z</time>
  <course>9.65</course>
  <speed>1.4615402833996742</speed>
  <fix>3d</fix>
</trkpt>
<trkpt lat="-27.2742173" lon="151.2900994">
  <ele>354.28</ele>
  <time>2026-09-01T19:53:45Z</time>
  <course>12.22</course>
  <speed>1.5121177202850313</speed>
  <fix>3d</fix>
</trkpt>
<trkpt lat="-27.2742147" lon="151.2900998">
  <ele>354.28</ele>
  <time>2026-09-01T19:53:45Z</time>
  <course>188.95</course>
  <speed>1.37</speed>
  <fix>3d</fix>
</trkpt>
<trkpt lat="-27.2742176" lon="151.2900992">
  <ele>354.29</ele>
  <time>2026-09-01T19:53:45Z</time>
  <course>12.93</course>
  <speed>1.5163442880823603</speed>
  <fix>3d</fix>
</trkpt>
<trkpt lat="-27.2742186" lon="151.290099">
  <ele>354.29</ele>
  <time>2026-09-01T19:53:45Z</time>
  <course>16.37</course>
  <speed>1.547384890710776</speed>
  <fix>3d</fix>
</trkpt>
<trkpt lat="-27.2742147" lon="151.2900998">
  <ele>354.28</ele>
  <time>2026-09-01T19:53:45Z</time>
  <course>188.95</course>
  <speed>1.37</speed>
  <fix>3d</fix>
</trkpt>
<trkpt lat="-27.2742192" lon="151.2900989">
  <ele>354.29</ele>
  <time>2026-09-01T19:53:45Z</time>
  <course>18.61</course>
  <speed>1.55502411556863</speed>
  <fix>3d</fix>
</trkpt>
<trkpt lat="-27.27422" lon="151.2900986">
  <ele>354.29</ele>
  <time>2026-09-01T19:53:45Z</time>
  <course>21.89</course>
  <speed>1.5632018423735305</speed>
  <fix>3d</fix>
</trkpt>
<trkpt lat="-27.2742172" lon="151.2900993">
  <ele>354.28</ele>
  <time>2026-09-01T19:53:45Z</time>
  <course>192.08</course>
  <speed>1.5</speed>
  <fix>3d</fix>
</trkpt>
<trkpt lat="-27.2742207" lon="151.2900984">
  <ele>354.29</ele>
  <time>2026-09-01T19:53:45Z</time>
  <course>25.31</course>
  <speed>1.568948692596415</speed>
  <fix>3d</fix>
</trkpt>
<trkpt lat="-27.2742213" lon="151.2900982">
  <ele>354.29</ele>
  <time>2026-09-01T19:53:45Z</time>
  <course>28.52</course>
  <speed>1.584455742518547</speed>
  <fix>3d</fix>
</trkpt>
<trkpt lat="-27.2742172" lon="151.2900993">
  <ele>354.28</ele>
  <time>2026-09-01T19:53:45Z</time>
  <course>192.08</course>
  <speed>1.5</speed>
  <fix>3d</fix>
</trkpt>
<trkpt lat="-27.2742219" lon="151.2900979">
  <ele>354.29</ele>
  <time>2026-09-01T19:53:45Z</time>
  <course>31.64</course>
  <speed>1.5875137794677563</speed>
  <fix>3d</fix>
</trkpt>
<trkpt lat="-27.2742227" lon="151.2900977">
  <ele>354.3</ele>
  <time>2026-09-01T19:53:45Z</time>
  <course>35.89</course>
  <speed>1.5875137794677563</speed>
  <fix>3d</fix>
</trkpt>
<trkpt lat="-27.2742199" lon="151.2900986">
  <ele>354.29</ele>
  <time>2026-09-01T19:53:45Z</time>
  <course>195.96</course>
  <speed>1.56</speed>
  <fix>3d</fix>
</trkpt>
<trkpt lat="-27.2742233" lon="151.2900973">
  <ele>354.3</ele>
  <time>2026-09-01T19:53:45Z</time>
  <course>39.49</course>
  <speed>1.5970284906663375</speed>
  <fix>3d</fix>
</trkpt>
<trkpt lat="-27.2742241" lon="151.2900972">
  <ele>354.3</ele>
  <time>2026-09-01T19:53:45Z</time>
  <course>43.66</course>
  <speed>1.603527361787132</speed>
  <fix>3d</fix>
</trkpt>
<trkpt lat="-27.2742199" lon="151.2900986">
  <ele>354.29</ele>
  <time>2026-09-01T19:53:45Z</time>
  <course>195.96</course>
  <speed>1.56</speed>
  <fix>3d</fix>
</trkpt>
<trkpt lat="-27.2742245" lon="151.290097">
  <ele>354.3</ele>
  <time>2026-09-01T19:53:45Z</time>
  <course>46.02</course>
  <speed>1.6101242188104619</speed>
  <fix>3d</fix>
</trkpt>
<trkpt lat="-27.2742255" lon="151.2900967">
  <ele>354.3</ele>
  <time>2026-09-01T19:53:45Z</time>
  <course>51.49</course>
  <speed>1.6304907236779973</speed>
  <fix>3d</fix>
</trkpt>
<trkpt lat="-27.2742226" lon="151.2900977">
  <ele>354.29</ele>
  <time>2026-09-01T19:53:45Z</time>
  <course>197.6</course>
  <speed>1.59</speed>
  <fix>3d</fix>
</trkpt>
<trkpt lat="-27.274226" lon="151.2900965">
  <ele>354.3</ele>
  <time>2026-09-01T19:53:45Z</time>
  <course>54.32</course>
  <speed>1.6348700254148645</speed>
  <fix>3d</fix>
</trkpt>
<trkpt lat="-27.2742269" lon="151.2900962">
  <ele>354.3</ele>
  <time>2026-09-01T19:53:45Z</time>
  <course>59.11</course>
  <speed>1.661715980545412</speed>
  <fix>3d</fix>
</trkpt>
<trkpt lat="-27.2742226" lon="151.2900977">
  <ele>354.29</ele>
  <time>2026-09-01T19:53:45Z</time>
  <course>197.6</course>
  <speed>1.59</speed>
  <fix>3d</fix>
</trkpt>
<trkpt lat="-27.2742276" lon="151.2900961">
  <ele>354.3</ele>
  <time>2026-09-01T19:53:45Z</time>
  <course>62.77</course>
  <speed>1.690562036720333</speed>
  <fix>3d</fix>
</trkpt>
<trkpt lat="-27.2742284" lon="151.2900958">
  <ele>354.29</ele>
  <time>2026-09-01T19:53:45Z</time>
  <course>66.32</course>
  <speed>1.7213076424625553</speed>
  <fix>3d</fix>
</trkpt>
<trkpt lat="-27.2742254" lon="151.2900967">
  <ele>354.3</ele>
  <time>2026-09-01T19:53:45Z</time>
  <course>195.27</course>
  <speed>1.63</speed>
  <fix>3d</fix>
</trkpt>
<trkpt lat="-27.2742287" lon="151.2900958">
  <ele>354.29</ele>
  <time>2026-09-01T19:53:45Z</time>
  <course>67.71</course>
  <speed>1.7380736463107656</speed>
  <fix>3d</fix>
</trkpt>
<trkpt lat="-27.27423" lon="151.2900957">
  <ele>354.29</ele>
  <time>2026-09-01T19:53:45Z</time>
  <course>73.08</course>
  <speed>1.807097119692243</speed>
  <fix>3d</fix>
</trkpt>
<trkpt lat="-27.2742254" lon="151.2900967">
  <ele>354.3</ele>
  <time>2026-09-01T19:53:45Z</time>
  <course>195.27</course>
  <speed>1.63</speed>
  <fix>3d</fix>
</trkpt>
<trkpt lat="-27.2742303" lon="151.2900957">
  <ele>354.29</ele>
  <time>2026-09-01T19:53:45Z</time>
  <course>74.38</course>
  <speed>1.8346116755324544</speed>
  <fix>3d</fix>
</trkpt>
<trkpt lat="-27.2742316" lon="151.2900956">
  <ele>354.28</ele>
  <time>2026-09-01T19:53:45Z</time>
  <course>79.42</course>
  <speed>1.9304144632694815</speed>
  <fix>3d</fix>
</trkpt>
<trkpt lat="-27.2742283" lon="151.290096">
  <ele>354.29</ele>
  <time>2026-09-01T19:53:45Z</time>
  <course>188.99</course>
  <speed>1.73</speed>
  <fix>3d</fix>
</trkpt>
<trkpt lat="-27.2742317" lon="151.2900956">
  <ele>354.28</ele>
  <time>2026-09-01T19:53:45Z</time>
  <course>79.63</course>
  <speed>1.9402319448973104</speed>
  <fix>3d</fix>
</trkpt>
<trkpt lat="-27.2742335" lon="151.2900956">
  <ele>354.26</ele>
  <time>2026-09-01T19:53:45Z</time>
  <course>85.45</course>
  <speed>2.080216334903656</speed>
  <fix>3d</fix>
</trkpt>
<trkpt lat="-27.2742283" lon="151.290096">
  <ele>354.29</ele>
  <time>2026-09-01T19:53:45Z</time>
  <course>188.99</course>
  <speed>1.73</speed>
  <fix>3d</fix>
</trkpt>
<trkpt lat="-27.2742336" lon="151.2900956">
  <ele>354.26</ele>
  <time>2026-09-01T19:53:45Z</time>
  <course>85.84</course>
  <speed>2.0902152999152985</speed>
  <fix>3d</fix>
</trkpt>
<trkpt lat="-27.2742354" lon="151.2900956">
  <ele>354.24</ele>
  <time>2026-09-01T19:53:45Z</time>
  <course>91.32</course>
  <speed>2.25</speed>
  <fix>3d</fix>
</trkpt>
<trkpt lat="-27.2742316" lon="151.2900956">
  <ele>354.27</ele>
  <time>2026-09-01T19:53:45Z</time>
  <course>182.01</course>
  <speed>1.94</speed>
  <fix>3d</fix>
</trkpt>
<trkpt lat="-27.2742361" lon="151.2900956">
  <ele>354.23</ele>
  <time>2026-09-01T19:53:45Z</time>
  <course>93.23</course>
  <speed>2.3101947969814147</speed>
  <fix>3d</fix>
</trkpt>
<trkpt lat="-27.2742375" lon="151.2900956">
  <ele>354.21</ele>
  <time>2026-09-01T19:53:45Z</time>
  <course>97.03</course>
  <speed>2.4320567427590993</speed>
  <fix>3d</fix>
</trkpt>
<trkpt lat="-27.2742316" lon="151.2900956">
  <ele>354.27</ele>
  <time>2026-09-01T19:53:45Z</time>
  <course>182.01</course>
  <speed>1.94</speed>
  <fix>3d</fix>
</trkpt>
<trkpt lat="-27.274238" lon="151.2900956">
  <ele>354.21</ele>
  <time>2026-09-01T19:53:45Z</time>
  <course>98.17</course>
  <speed>2.4734186867572583</speed>
  <fix>3d</fix>
</trkpt>
<trkpt lat="-27.2742398" lon="151.2900953">
  <ele>354.19</ele>
  <time>2026-09-01T19:53:45Z</time>
  <course>102.77</course>
  <speed>2.618434646883516</speed>
  <fix>3d</fix>
</trkpt>
<trkpt lat="-27.2742354" lon="151.2900956">
  <ele>354.23</ele>
  <time>2026-09-01T19:53:45Z</time>
  <course>180.9</course>
  <speed>2.25</speed>
  <fix>3d</fix>
</trkpt>
<trkpt lat="-27.2742399" lon="151.2900953">
  <ele>354.19</ele>
  <time>2026-09-01T19:53:45Z</time>
  <course>102.96</course>
  <speed>2.618434646883516</speed>
  <fix>3d</fix>
</trkpt>
<trkpt lat="-27.2742422" lon="151.2900952">
  <ele>354.18</ele>
  <time>2026-09-01T19:53:45Z</time>
  <course>108.67</course>
  <speed>2.796140196771256</speed>
  <fix>3d</fix>
</trkpt>
<trkpt lat="-27.2742354" lon="151.2900956">
  <ele>354.23</ele>
  <time>2026-09-01T19:53:45Z</time>
  <course>180.9</course>
  <speed>2.25</speed>
  <fix>3d</fix>
</trkpt>
<trkpt lat="-27.274243" lon="151.2900951">
  <ele>354.17</ele>
  <time>2026-09-01T19:53:45Z</time>
  <course>110.48</course>
  <speed>2.839242856819402</speed>
  <fix>3d</fix>
</trkpt>
<trkpt lat="-27.2742448" lon="151.2900948">
  <ele>354.17</ele>
  <time>2026-09-01T19:53:45Z</time>
  <course>114.77</course>
  <speed>2.9644561052577587</speed>
  <fix>3d</fix>
</trkpt>
<trkpt lat="-27.2742397" lon="151.2900953">
  <ele>354.19</ele>
  <time>2026-09-01T19:53:45Z</time>
  <course>184.46</course>
  <speed>2.6</speed>
  <fix>3d</fix>
</trkpt>
<trkpt lat="-27.2742458" lon="151.2900947">
  <ele>354.17</ele>
  <time>2026-09-01T19:53:45Z</time>
  <course>117.06</course>
  <speed>3.0166372005927395</speed>
  <fix>3d</fix>
</trkpt>
<trkpt lat="-27.2742475" lon="151.2900943">
  <ele>354.16</ele>
  <time>2026-09-01T19:53:45Z</time>
  <course>121.05</course>
  <speed>3.1211696525501464</speed>
  <fix>3d</fix>
</trkpt>
<trkpt lat="-27.2742397" lon="151.2900953">
  <ele>354.19</ele>
  <time>2026-09-01T19:53:45Z</time>
  <course>184.46</course>
  <speed>2.6</speed>
  <fix>3d</fix>
</trkpt>
<trkpt lat="-27.2742483" lon="151.2900943">
  <ele>354.16</ele>
  <time>2026-09-01T19:53:45Z</time>
  <course>122.95</course>
  <speed>3.172081335653296</speed>
  <fix>3d</fix>
</trkpt>
<trkpt lat="-27.2742504" lon="151.2900938">
  <ele>354.16</ele>
  <time>2026-09-01T19:53:45Z</time>
  <course>127.41</course>
  <speed>3.2852549368351918</speed>
  <fix>3d</fix>
</trkpt>
<trkpt lat="-27.2742447" lon="151.2900948">
  <ele>354.16</ele>
  <time>2026-09-01T19:53:45Z</time>
  <course>187.22</course>
  <speed>2.95</speed>
  <fix>3d</fix>
</trkpt>
<trkpt lat="-27.2742512" lon="151.2900938">
  <ele>354.16</ele>
  <time>2026-09-01T19:53:45Z</time>
  <course>129.32</course>
  <speed>3.3262892237446824</speed>
  <fix>3d</fix>
</trkpt>
<trkpt lat="-27.2742533" lon="151.2900934">
  <ele>354.17</ele>
  <time>2026-09-01T19:53:45Z</time>
  <course>133.76</course>
  <speed>3.428148188162233</speed>
  <fix>3d</fix>
</trkpt>
<trkpt lat="-27.2742447" lon="151.2900948">
  <ele>354.16</ele>
  <time>2026-09-01T19:53:45Z</time>
  <course>187.22</course>
  <speed>2.95</speed>
  <fix>3d</fix>
</trkpt>
<trkpt lat="-27.2742543" lon="151.2900933">
  <ele>354.17</ele>
  <time>2026-09-01T19:53:45Z</time>
  <course>135.64</course>
  <speed>3.4691929897311855</speed>
  <fix>3d</fix>
</trkpt>
<trkpt lat="-27.2742565" lon="151.2900929">
  <ele>354.17</ele>
  <time>2026-09-01T19:53:45Z</time>
  <course>140.0</course>
  <speed>3.5695657999258117</speed>
  <fix>3d</fix>
</trkpt>
<trkpt lat="-27.2742503" lon="151.2900938">
  <ele>354.16</ele>
  <time>2026-09-01T19:53:45Z</time>
  <course>188.35</course>
  <speed>3.27</speed>
  <fix>3d</fix>
</trkpt>
<trkpt lat="-27.2742575" lon="151.2900927">
  <ele>354.18</ele>
  <time>2026-09-01T19:53:45Z</time>
  <course>142.04</course>
  <speed>3.610609366852083</speed>
  <fix>3d</fix>
</trkpt>
<trkpt lat="-27.2742597" lon="151.2900923">
  <ele>354.18</ele>
  <time>2026-09-01T19:53:45Z</time>
  <course>146.07</course>
  <speed>3.7025936855129</speed>
  <fix>3d</fix>
</trkpt>
<trkpt lat="-27.2742503" lon="151.2900938">
  <ele>354.16</ele>
  <time>2026-09-01T19:53:45Z</time>
  <course>188.35</course>
  <speed>3.27</speed>
  <fix>3d</fix>
</trkpt>
<trkpt lat="-27.2742598" lon="151.2900923">
  <ele>354.18</ele>
  <time>2026-09-01T19:53:45Z</time>
  <course>146.27</course>
  <speed>3.7025936855129</speed>
  <fix>3d</fix>
</trkpt>
<trkpt lat="-27.274263" lon="151.2900918">
  <ele>354.2</ele>
  <time>2026-09-01T19:53:45Z</time>
  <course>151.94</course>
  <speed>3.8242384862871717</speed>
  <fix>3d</fix>
</trkpt>
<trkpt lat="-27.2742563" lon="151.2900929">
  <ele>354.17</ele>
  <time>2026-09-01T19:53:45Z</time>
  <course>188.66</course>
  <speed>3.56</speed>
  <fix>3d</fix>
</trkpt>
<trkpt lat="-27.2742636" lon="151.2900917">
  <ele>354.2</ele>
  <time>2026-09-01T19:53:45Z</time>
  <course>152.9</course>
  <speed>3.834123107048077</speed>
  <fix>3d</fix>
</trkpt>
<trkpt lat="-27.2742665" lon="151.2900912">
  <ele>354.21</ele>
  <time>2026-09-01T19:53:45Z</time>
  <course>157.61</course>
  <speed>3.924601890638081</speed>
  <fix>3d</fix>
</trkpt>
<trkpt lat="-27.2742563" lon="151.2900929">
  <ele>354.17</ele>
  <time>2026-09-01T19:53:45Z</time>
  <course>188.66</course>
  <speed>3.56</speed>
  <fix>3d</fix>
</trkpt>
<trkpt lat="-27.2742674" lon="151.290091">
  <ele>354.22</ele>
  <time>2026-09-01T19:53:45Z</time>
  <course>159.28</course>
  <speed>3.954263521820467</speed>
  <fix>3d</fix>
</trkpt>
<trkpt lat="-27.27427" lon="151.2900905">
  <ele>354.23</ele>
  <time>2026-09-01T19:53:45Z</time>
  <course>163.1</course>
  <speed>4.024972049592394</speed>
  <fix>3d</fix>
</trkpt>
<trkpt lat="-27.2742628" lon="151.2900918">
  <ele>354.19</ele>
  <time>2026-09-01T19:53:45Z</time>
  <course>188.71</course>
  <speed>3.81</speed>
  <fix>3d</fix>
</trkpt>
<trkpt lat="-27.2742712" lon="151.2900903">
  <ele>354.23</ele>
  <time>2026-09-01T19:53:45Z</time>
  <course>164.89</course>
  <speed>4.0561311615873565</speed>
  <fix>3d</fix>
</trkpt>
<trkpt lat="-27.2742736" lon="151.2900899">
  <ele>354.25</ele>
  <time>2026-09-01T19:53:45Z</time>
  <course>168.42</course>
  <speed>4.116952756590729</speed>
  <fix>3d</fix>
</trkpt>
<trkpt lat="-27.2742628" lon="151.2900918">
  <ele>354.19</ele>
  <time>2026-09-01T19:53:45Z</time>
  <course>188.71</course>
  <speed>3.81</speed>
  <fix>3d</fix>
</trkpt>
<trkpt lat="-27.274275" lon="151.2900896">
  <ele>354.25</ele>
  <time>2026-09-01T19:53:45Z</time>
  <course>170.5</course>
  <speed>4.146613075752306</speed>
  <fix>3d</fix>
</trkpt>
<trkpt lat="-27.2742773" lon="151.2900893">
  <ele>354.27</ele>
  <time>2026-09-01T19:53:45Z</time>
  <course>173.54</course>
  <speed>4.197546902656359</speed>
  <fix>3d</fix>
</trkpt>
<trkpt lat="-27.2742698" lon="151.2900905">
  <ele>354.22</ele>
  <time>2026-09-01T19:53:45Z</time>
  <course>188.69</course>
  <speed>4.02</speed>
  <fix>3d</fix>
</trkpt>
<trkpt lat="-27.2742787" lon="151.2900891">
  <ele>354.27</ele>
  <time>2026-09-01T19:53:45Z</time>
  <course>175.34</course>
  <speed>4.21882685115187</speed>
  <fix>3d</fix>
</trkpt>
<trkpt lat="-27.2742811" lon="151.2900886">
  <ele>354.29</ele>
  <time>2026-09-01T19:53:45Z</time>
  <course>178.3</course>
  <speed>4.258368232081392</speed>
  <fix>3d</fix>
</trkpt>
<trkpt lat="-27.2742698" lon="151.2900905">
  <ele>354.22</ele>
  <time>2026-09-01T19:53:45Z</time>
  <course>188.69</course>
  <speed>4.02</speed>
  <fix>3d</fix>
</trkpt>
<trkpt lat="-27.274282" lon="151.2900885">
  <ele>354.29</ele>
  <time>2026-09-01T19:53:45Z</time>
  <course>179.34</course>
  <speed>4.279649518360119</speed>
  <fix>3d</fix>
</trkpt>
<trkpt lat="-27.2742849" lon="151.290088">
  <ele>354.3</ele>
  <time>2026-09-01T19:53:45Z</time>
  <course>182.53</course>
  <speed>4.320705960835567</speed>
  <fix>3d</fix>
</trkpt>
<trkpt lat="-27.2742771" lon="151.2900893">
  <ele>354.26</ele>
  <time>2026-09-01T19:53:45Z</time>
  <course>188.71</course>
  <speed>4.19</speed>
  <fix>3d</fix>
</trkpt>
<trkpt lat="-27.2742863" lon="151.2900876">
  <ele>354.31</ele>
  <time>2026-09-01T19:53:45Z</time>
  <course>183.91</course>
  <speed>4.340472324528749</speed>
  <fix>3d</fix>
</trkpt>
<trkpt lat="-27.2742888" lon="151.2900872">
  <ele>354.32</ele>
  <time>2026-09-01T19:53:45Z</time>
  <course>186.04</course>
  <speed>4.361765697512878</speed>
  <fix>3d</fix>
</trkpt>
<trkpt lat="-27.2742771" lon="151.2900893">
  <ele>354.26</ele>
  <time>2026-09-01T19:53:45Z</time>
  <course>188.71</course>
  <speed>4.19</speed>
  <fix>3d</fix>
</trkpt>
<trkpt lat="-27.27429" lon="151.2900871">
  <ele>354.33</ele>
  <time>2026-09-01T19:53:45Z</time>
  <course>187.02</course>
  <speed>4.381529413344158</speed>
  <fix>3d</fix>
</trkpt>
<trkpt lat="-27.2742926" lon="151.2900866">
  <ele>354.34</ele>
  <time>2026-09-01T19:53:45Z</time>
  <course>188.69</course>
  <speed>4.402828636229214</speed>
  <fix>3d</fix>
</trkpt>
<trkpt lat="-27.2742847" lon="151.2900879">
  <ele>354.3</ele>
  <time>2026-09-01T19:53:45Z</time>
  <course>188.79</course>
  <speed>4.31</speed>
  <fix>3d</fix>
</trkpt>
<trkpt lat="-27.2742941" lon="151.2900864">
  <ele>354.34</ele>
  <time>2026-09-01T19:53:45Z</time>
  <course>189.44</course>
  <speed>4.412708918566916</speed>
  <fix>3d</fix>
</trkpt>
<trkpt lat="-27.2742966" lon="151.2900858">
  <ele>354.35</ele>
  <time>2026-09-01T19:53:45Z</time>
  <course>190.44</course>
  <speed>4.4225897390556135</speed>
  <fix>3d</fix>
</trkpt>
<trkpt lat="-27.2742847" lon="151.2900879">
  <ele>354.3</ele>
  <time>2026-09-01T19:53:45Z</time>
  <course>188.79</course>
  <speed>4.31</speed>
  <fix>3d</fix>
</trkpt>
<trkpt lat="-27.2742979" lon="151.2900857">
  <ele>354.36</ele>
  <time>2026-09-01T19:53:45Z</time>
  <course>190.82</course>
  <speed>4.434016238129941</speed>
  <fix>3d</fix>
</trkpt>
<trkpt lat="-27.2743005" lon="151.2900852">
  <ele>354.36</ele>
  <time>2026-09-01T19:53:45Z</time>
  <course>191.31</course>
  <speed>4.443894688221133</speed>
  <fix>3d</fix>
</trkpt>
<trkpt lat="-27.2742925" lon="151.2900866">
  <ele>354.33</ele>
  <time>2026-09-01T19:53:45Z</time>
  <course>188.9</course>
  <speed>4.4</speed>
  <fix>3d</fix>
</trkpt>
<trkpt lat="-27.2743006" lon="151.2900852">
  <ele>354.36</ele>
  <time>2026-09-01T19:53:45Z</time>
  <course>191.33</course>
  <speed>4.443894688221133</speed>
  <fix>3d</fix>
</trkpt>
<trkpt lat="-27.2743045" lon="151.2900845">
  <ele>354.37</ele>
  <time>2026-09-01T19:53:45Z</time>
  <course>191.48</course>
  <speed>4.453773680823937</speed>
  <fix>3d</fix>
</trkpt>
<trkpt lat="-27.2742925" lon="151.2900866">
  <ele>354.33</ele>
  <time>2026-09-01T19:53:45Z</time>
  <course>188.9</course>
  <speed>4.4</speed>
  <fix>3d</fix>
</trkpt>
<trkpt lat="-27.2743051" lon="151.2900843">
  <ele>354.38</ele>
  <time>2026-09-01T19:53:45Z</time>
  <course>191.46</course>
  <speed>4.453773680823937</speed>
  <fix>3d</fix>
</trkpt>
<trkpt lat="-27.2743084" lon="151.2900838">
  <ele>354.38</ele>
  <time>2026-09-01T19:53:45Z</time>
  <course>191.18</course>
  <speed>4.443894688221133</speed>
  <fix>3d</fix>
</trkpt>
<trkpt lat="-27.2743003" lon="151.2900852">
  <ele>354.36</ele>
  <time>2026-09-01T19:53:45Z</time>
  <course>188.95</course>
  <speed>4.44</speed>
  <fix>3d</fix>
</trkpt>
<trkpt lat="-27.2743095" lon="151.2900836">
  <ele>354.38</ele>
  <time>2026-09-01T19:53:45Z</time>
  <course>191.05</course>
  <speed>4.442352980122133</speed>
  <fix>3d</fix>
</trkpt>
<trkpt lat="-27.2743124" lon="151.2900831">
  <ele>354.39</ele>
  <time>2026-09-01T19:53:45Z</time>
  <course>190.62</course>
  <speed>4.4324710940963845</speed>
  <fix>3d</fix>
</trkpt>
<trkpt lat="-27.2743003" lon="151.2900852">
  <ele>354.36</ele>
  <time>2026-09-01T19:53:45Z</time>
  <course>188.95</course>
  <speed>4.44</speed>
  <fix>3d</fix>
</trkpt>
<trkpt lat="-27.2743135" lon="151.2900828">
  <ele>354.39</ele>
  <time>2026-09-01T19:53:45Z</time>
  <course>190.44</course>
  <speed>4.4324710940963845</speed>
  <fix>3d</fix>
</trkpt>
<trkpt lat="-27.2743163" lon="151.2900824">
  <ele>354.39</ele>
  <time>2026-09-01T19:53:45Z</time>
  <course>190.0</course>
  <speed>4.421063220538698</speed>
  <fix>3d</fix>
</trkpt>
<trkpt lat="-27.2743082" lon="151.2900839">
  <ele>354.38</ele>
  <time>2026-09-01T19:53:45Z</time>
  <course>188.91</course>
  <speed>4.44</speed>
  <fix>3d</fix>
</trkpt>
<trkpt lat="-27.2743173" lon="151.2900823">
  <ele>354.39</ele>
  <time>2026-09-01T19:53:45Z</time>
  <course>189.84</course>
  <speed>4.4111789807261275</speed>
  <fix>3d</fix>
</trkpt>
<trkpt lat="-27.2743202" lon="151.2900818">
  <ele>354.4</ele>
  <time>2026-09-01T19:53:45Z</time>
  <course>189.43</course>
  <speed>4.399784085611475</speed>
  <fix>3d</fix>
</trkpt>
<trkpt lat="-27.2743082" lon="151.2900839">
  <ele>354.38</ele>
  <time>2026-09-01T19:53:45Z</time>
  <course>188.91</course>
  <speed>4.44</speed>
  <fix>3d</fix>
</trkpt>
<trkpt lat="-27.2743213" lon="151.2900815">
  <ele>354.4</ele>
  <time>2026-09-01T19:53:45Z</time>
  <course>189.3</course>
  <speed>4.389897493108466</speed>
  <fix>3d</fix>
</trkpt>
<trkpt lat="-27.2743241" lon="151.290081">
  <ele>354.4</ele>
  <time>2026-09-01T19:53:45Z</time>
  <course>188.98</course>
  <speed>4.3785157302446684</speed>
  <fix>3d</fix>
</trkpt>
<trkpt lat="-27.2743161" lon="151.2900824">
  <ele>354.39</ele>
  <time>2026-09-01T19:53:45Z</time>
  <course>188.79</course>
  <speed>4.42</speed>
  <fix>3d</fix>
</trkpt>
<trkpt lat="-27.2743253" lon="151.2900809">
  <ele>354.4</ele>
  <time>2026-09-01T19:53:45Z</time>
  <course>188.88</course>
  <speed>4.368626786531438</speed>
  <fix>3d</fix>
</trkpt>
<trkpt lat="-27.2743279" lon="151.2900804">
  <ele>354.39</ele>
  <time>2026-09-01T19:53:45Z</time>
  <course>188.67</course>
  <speed>4.35725831228767</speed>
  <fix>3d</fix>
</trkpt>
<trkpt lat="-27.2743161" lon="151.2900824">
  <ele>354.39</ele>
  <time>2026-09-01T19:53:45Z</time>
  <course>188.79</course>
  <speed>4.42</speed>
  <fix>3d</fix>
</trkpt>
<trkpt lat="-27.274329" lon="151.2900803">
  <ele>354.39</ele>
  <time>2026-09-01T19:53:45Z</time>
  <course>188.61</course>
  <speed>4.347367019242797</speed>
  <fix>3d</fix>
</trkpt>
<trkpt lat="-27.2743319" lon="151.2900798">
  <ele>354.39</ele>
  <time>2026-09-01T19:53:45Z</time>
  <course>188.47</course>
  <speed>4.326118352518803</speed>
  <fix>3d</fix>
</trkpt>
<trkpt lat="-27.2743239" lon="151.2900811">
  <ele>354.39</ele>
  <time>2026-09-01T19:53:45Z</time>
  <course>188.6</course>
  <speed>4.38</speed>
  <fix>3d</fix>
</trkpt>
<trkpt lat="-27.2743334" lon="151.2900795">
  <ele>354.39</ele>
  <time>2026-09-01T19:53:45Z</time>
  <course>188.42</course>
  <speed>4.324673398072969</speed>
  <fix>3d</fix>
</trkpt>
<trkpt lat="-27.2743357" lon="151.2900791">
  <ele>354.39</ele>
  <time>2026-09-01T19:53:45Z</time>
  <course>188.36</course>
  <speed>4.303452102672923</speed>
  <fix>3d</fix>
</trkpt>
<trkpt lat="-27.2743239" lon="151.2900811">
  <ele>354.39</ele>
  <time>2026-09-01T19:53:45Z</time>
  <course>188.6</course>
  <speed>4.38</speed>
  <fix>3d</fix>
</trkpt>
<trkpt lat="-27.2743359" lon="151.290079">
  <ele>354.38</ele>
  <time>2026-09-01T19:53:45Z</time>
  <course>188.36</course>
  <speed>4.303452102672923</speed>
  <fix>3d</fix>
</trkpt>
<trkpt lat="-27.2743395" lon="151.2900785">
  <ele>354.38</ele>
  <time>2026-09-01T19:53:45Z</time>
  <course>188.31</course>
  <speed>4.282242403227543</speed>
  <fix>3d</fix>
</trkpt>
<trkpt lat="-27.2743316" lon="151.2900798">
  <ele>354.39</ele>
  <time>2026-09-01T19:53:45Z</time>
  <course>188.38</course>
  <speed>4.33</speed>
  <fix>3d</fix>
</trkpt>
<trkpt lat="-27.2743397" lon="151.2900785">
  <ele>354.38</ele>
  <time>2026-09-01T19:53:45Z</time>
  <course>188.31</course>
  <speed>4.282242403227543</speed>
  <fix>3d</fix>
</trkpt>
<trkpt lat="-27.2743433" lon="151.2900779">
  <ele>354.37</ele>
  <time>2026-09-01T19:53:45Z</time>
  <course>188.28</course>
  <speed>4.2610444728962875</speed>
  <fix>3d</fix>
</trkpt>
<trkpt lat="-27.2743316" lon="151.2900798">
  <ele>354.39</ele>
  <time>2026-09-01T19:53:45Z</time>
  <course>188.38</course>
  <speed>4.33</speed>
  <fix>3d</fix>
</trkpt>
<trkpt lat="-27.2743435" lon="151.2900779">
  <ele>354.37</ele>
  <time>2026-09-01T19:53:45Z</time>
  <course>188.28</course>
  <speed>4.251141023301862</speed>
  <fix>3d</fix>
</trkpt>
<trkpt lat="-27.2743471" lon="151.2900773">
  <ele>354.36</ele>
  <time>2026-09-01T19:53:45Z</time>
  <course>188.26</course>
  <speed>4.229952718411874</speed>
  <fix>3d</fix>
</trkpt>
<trkpt lat="-27.2743393" lon="151.2900785">
  <ele>354.38</ele>
  <time>2026-09-01T19:53:45Z</time>
  <course>188.15</course>
  <speed>4.28</speed>
  <fix>3d</fix>
</trkpt>
<trkpt lat="-27.2743479" lon="151.2900771">
  <ele>354.36</ele>
  <time>2026-09-01T19:53:45Z</time>
  <course>188.25</course>
  <speed>4.229952718411874</speed>
  <fix>3d</fix>
</trkpt>
<trkpt lat="-27.2743509" lon="151.2900766">
  <ele>354.35</ele>
  <time>2026-09-01T19:53:45Z</time>
  <course>188.23</course>
  <speed>4.198868895309784</speed>
  <fix>3d</fix>
</trkpt>
<trkpt lat="-27.2743393" lon="151.2900785">
  <ele>354.38</ele>
  <time>2026-09-01T19:53:45Z</time>
  <course>188.15</course>
  <speed>4.28</speed>
  <fix>3d</fix>
</trkpt>
<trkpt lat="-27.274351" lon="151.2900766">
  <ele>354.35</ele>
  <time>2026-09-01T19:53:45Z</time>
  <course>188.22</course>
  <speed>4.198868895309784</speed>
  <fix>3d</fix>
</trkpt>
<trkpt lat="-27.2743546" lon="151.2900761">
  <ele>354.34</ele>
  <time>2026-09-01T19:53:45Z</time>
  <course>188.18</course>
  <speed>4.177702718001845</speed>
  <fix>3d</fix>
</trkpt>
<trkpt lat="-27.2743469" lon="151.2900773">
  <ele>354.36</ele>
  <time>2026-09-01T19:53:45Z</time>
  <course>187.94</course>
  <speed>4.23</speed>
  <fix>3d</fix>
</trkpt>
<trkpt lat="-27.274355" lon="151.2900761">
  <ele>354.34</ele>
  <time>2026-09-01T19:53:45Z</time>
  <course>188.17</course>
  <speed>4.177702718001845</speed>
  <fix>3d</fix>
</trkpt>
<trkpt lat="-27.2743583" lon="151.2900756">
  <ele>354.33</ele>
  <time>2026-09-01T19:53:45Z</time>
  <course>188.11</course>
  <speed>4.146637191749479</speed>
  <fix>3d</fix>
</trkpt>
<trkpt lat="-27.2743469" lon="151.2900773">
  <ele>354.36</ele>
  <time>2026-09-01T19:53:45Z</time>
  <course>187.94</course>
  <speed>4.23</speed>
  <fix>3d</fix>
</trkpt>
<trkpt lat="-27.2743591" lon="151.2900755">
  <ele>354.33</ele>
  <time>2026-09-01T19:53:45Z</time>
  <course>188.1</course>
  <speed>4.146637191749479</speed>
  <fix>3d</fix>
</trkpt>
<trkpt lat="-27.274362" lon="151.2900751">
  <ele>354.33</ele>
  <time>2026-09-01T19:53:45Z</time>
  <course>188.04</course>
  <speed>4.125493909824616</speed>
  <fix>3d</fix>
</trkpt>
<trkpt lat="-27.2743544" lon="151.2900761">
  <ele>354.34</ele>
  <time>2026-09-01T19:53:45Z</time>
  <course>187.75</course>
  <speed>4.18</speed>
  <fix>3d</fix>
</trkpt>
<trkpt lat="-27.2743627" lon="151.2900748">
  <ele>354.32</ele>
  <time>2026-09-01T19:53:45Z</time>
  <course>188.03</course>
  <speed>4.125493909824616</speed>
  <fix>3d</fix>
</trkpt>
<trkpt lat="-27.2743657" lon="151.2900745">
  <ele>354.32</ele>
  <time>2026-09-01T19:53:45Z</time>
  <course>187.98</course>
  <speed>4.104363531657497</speed>
  <fix>3d</fix>
</trkpt>
<trkpt lat="-27.2743544" lon="151.2900761">
  <ele>354.34</ele>
  <time>2026-09-01T19:53:45Z</time>
  <course>187.75</course>
  <speed>4.18</speed>
  <fix>3d</fix>
</trkpt>
<trkpt lat="-27.2743664" lon="151.2900743">
  <ele>354.31</ele>
  <time>2026-09-01T19:53:45Z</time>
  <course>187.97</course>
  <speed>4.09444745967023</speed>
  <fix>3d</fix>
</trkpt>
<trkpt lat="-27.2743693" lon="151.290074">
  <ele>354.31</ele>
  <time>2026-09-01T19:53:45Z</time>
  <course>187.92</course>
  <speed>4.07332787779231</speed>
  <fix>3d</fix>
</trkpt>
<trkpt lat="-27.2743618" lon="151.290075">
  <ele>354.33</ele>
  <time>2026-09-01T19:53:45Z</time>
  <course>187.58</course>
  <speed>4.13</speed>
  <fix>3d</fix>
</trkpt>
<trkpt lat="-27.2743705" lon="151.2900737">
  <ele>354.31</ele>
  <time>2026-09-01T19:53:45Z</time>
  <course>187.91</course>
  <speed>4.063409898102824</speed>
  <fix>3d</fix>
</trkpt>
<trkpt lat="-27.2743729" lon="151.2900733">
  <ele>354.3</ele>
  <time>2026-09-01T19:53:45Z</time>
  <course>187.88</course>
  <speed>4.032381430370892</speed>
  <fix>3d</fix>
</trkpt>
<trkpt lat="-27.2743618" lon="151.290075">
  <ele>354.33</ele>
  <time>2026-09-01T19:53:45Z</time>
  <course>187.58</course>
  <speed>4.13</speed>
  <fix>3d</fix>
</trkpt>
<trkpt lat="-27.2743739" lon="151.2900733">
  <ele>354.3</ele>
  <time>2026-09-01T19:53:45Z</time>
  <course>187.87</course>
  <speed>4.0224619326974365</speed>
  <fix>3d</fix>
</trkpt>
<trkpt lat="-27.2743765" lon="151.2900728">
  <ele>354.3</ele>
  <time>2026-09-01T19:53:45Z</time>
  <course>187.85</course>
  <speed>3.9815198103236913</speed>
  <fix>3d</fix>
</trkpt>
<trkpt lat="-27.2743691" lon="151.290074">
  <ele>354.31</ele>
  <time>2026-09-01T19:53:45Z</time>
  <course>187.42</course>
  <speed>4.07</speed>
  <fix>3d</fix>
</trkpt>
<trkpt lat="-27.2743776" lon="151.2900728">
  <ele>354.29</ele>
  <time>2026-09-01T19:53:45Z</time>
  <course>187.85</course>
  <speed>3.9616789370164764</speed>
  <fix>3d</fix>
</trkpt>
<trkpt lat="-27.27438" lon="151.2900723">
  <ele>354.29</ele>
  <time>2026-09-01T19:53:45Z</time>
  <course>187.84</course>
  <speed>3.9108183286877445</speed>
  <fix>3d</fix>
</trkpt>
<trkpt lat="-27.2743691" lon="151.290074">
  <ele>354.31</ele>
  <time>2026-09-01T19:53:45Z</time>
  <course>187.42</course>
  <speed>4.07</speed>
  <fix>3d</fix>
</trkpt>
<trkpt lat="-27.2743811" lon="151.2900723">
  <ele>354.29</ele>
  <time>2026-09-01T19:53:45Z</time>
  <course>187.84</course>
  <speed>3.8798066962156765</speed>
  <fix>3d</fix>
</trkpt>
<trkpt lat="-27.2743835" lon="151.2900718">
  <ele>354.29</ele>
  <time>2026-09-01T19:53:45Z</time>
  <course>187.83</course>
  <speed>3.819031290785662</speed>
  <fix>3d</fix>
</trkpt>
<trkpt lat="-27.2743763" lon="151.290073">
  <ele>354.29</ele>
  <time>2026-09-01T19:53:45Z</time>
  <course>187.27</course>
  <speed>3.98</speed>
  <fix>3d</fix>
</trkpt>
<trkpt lat="-27.2743836" lon="151.2900718">
  <ele>354.29</ele>
  <time>2026-09-01T19:53:45Z</time>
  <course>187.83</course>
  <speed>3.819031290785662</speed>
  <fix>3d</fix>
</trkpt>
<trkpt lat="-27.2743868" lon="151.2900714">
  <ele>354.29</ele>
  <time>2026-09-01T19:53:45Z</time>
  <course>187.83</course>
  <speed>3.717337757051409</speed>
  <fix>3d</fix>
</trkpt>
<trkpt lat="-27.2743763" lon="151.290073">
  <ele>354.29</ele>
  <time>2026-09-01T19:53:45Z</time>
  <course>187.27</course>
  <speed>3.98</speed>
  <fix>3d</fix>
</trkpt>
<trkpt lat="-27.2743875" lon="151.2900713">
  <ele>354.29</ele>
  <time>2026-09-01T19:53:45Z</time>
  <course>187.83</course>
  <speed>3.6974856321559924</speed>
  <fix>3d</fix>
</trkpt>
<trkpt lat="-27.2743901" lon="151.2900709">
  <ele>354.29</ele>
  <time>2026-09-01T19:53:45Z</time>
  <course>187.83</course>
  <speed>3.595803109181592</speed>
  <fix>3d</fix>
</trkpt>
<trkpt lat="-27.2743832" lon="151.2900719">
  <ele>354.29</ele>
  <time>2026-09-01T19:53:45Z</time>
  <course>187.13</course>
  <speed>3.82</speed>
  <fix>3d</fix>
</trkpt>
<trkpt lat="-27.2743907" lon="151.2900709">
  <ele>354.29</ele>
  <time>2026-09-01T19:53:45Z</time>
  <course>187.83</course>
  <speed>3.566020190632689</speed>
  <fix>3d</fix>
</trkpt>
<trkpt lat="-27.2743933" lon="151.2900706">
  <ele>354.29</ele>
  <time>2026-09-01T19:53:45Z</time>
  <course>187.83</course>
  <speed>3.4643469803124516</speed>
  <fix>3d</fix>
</trkpt>
<trkpt lat="-27.2743832" lon="151.2900719">
  <ele>354.29</ele>
  <time>2026-09-01T19:53:45Z</time>
  <course>187.13</course>
  <speed>3.82</speed>
  <fix>3d</fix>
</trkpt>
<trkpt lat="-27.2743939" lon="151.2900704">
  <ele>354.3</ele>
  <time>2026-09-01T19:53:45Z</time>
  <course>187.83</course>
  <speed>3.4345596515419556</speed>
  <fix>3d</fix>
</trkpt>
<trkpt lat="-27.2743963" lon="151.2900702">
  <ele>354.3</ele>
  <time>2026-09-01T19:53:45Z</time>
  <course>187.84</course>
  <speed>3.3229655430052234</speed>
  <fix>3d</fix>
</trkpt>
<trkpt lat="-27.2743898" lon="151.290071">
  <ele>354.29</ele>
  <time>2026-09-01T19:53:45Z</time>
  <course>187.0</course>
  <speed>3.6</speed>
  <fix>3d</fix>
</trkpt>
<trkpt lat="-27.2743973" lon="151.2900699">
  <ele>354.3</ele>
  <time>2026-09-01T19:53:45Z</time>
  <course>187.84</course>
  <speed>3.2733163611236846</speed>
  <fix>3d</fix>
</trkpt>
<trkpt lat="-27.2743992" lon="151.2900698">
  <ele>354.3</ele>
  <time>2026-09-01T19:53:45Z</time>
  <course>187.84</course>
  <speed>3.1716557190212185</speed>
  <fix>3d</fix>
</trkpt>
<trkpt lat="-27.2743898" lon="151.290071">
  <ele>354.29</ele>
  <time>2026-09-01T19:53:45Z</time>
  <course>187.0</course>
  <speed>3.6</speed>
  <fix>3d</fix>
</trkpt>
<trkpt lat="-27.2743998" lon="151.2900697">
  <ele>354.3</ele>
  <time>2026-09-01T19:53:45Z</time>
  <course>187.84</course>
  <speed>3.141862504948299</speed>
  <fix>3d</fix>
</trkpt>
<trkpt lat="-27.274402" lon="151.2900694">
  <ele>354.3</ele>
  <time>2026-09-01T19:53:45Z</time>
  <course>187.85</course>
  <speed>3.0203476621077914</speed>
  <fix>3d</fix>
</trkpt>
<trkpt lat="-27.2743961" lon="151.2900702">
  <ele>354.29</ele>
  <time>2026-09-01T19:53:45Z</time>
  <course>186.87</course>
  <speed>3.33</speed>
  <fix>3d</fix>
</trkpt>
<trkpt lat="-27.2744028" lon="151.2900693">
  <ele>354.3</ele>
  <time>2026-09-01T19:53:45Z</time>
  <course>187.85</course>
  <speed>2.9794630388712657</speed>
  <fix>3d</fix>
</trkpt>
<trkpt lat="-27.2744046" lon="151.290069">
  <ele>354.3</ele>
  <time>2026-09-01T19:53:45Z</time>
  <course>187.85</course>
  <speed>2.8690416518412554</speed>
  <fix>3d</fix>
</trkpt>
<trkpt lat="-27.2743961" lon="151.2900702">
  <ele>354.29</ele>
  <time>2026-09-01T19:53:45Z</time>
  <course>186.87</course>
  <speed>3.33</speed>
  <fix>3d</fix>
</trkpt>
<trkpt lat="-27.2744053" lon="151.290069">
  <ele>354.3</ele>
  <time>2026-09-01T19:53:45Z</time>
  <course>187.86</course>
  <speed>2.8281619472724686</speed>
  <fix>3d</fix>
</trkpt>
<trkpt lat="-27.2744071" lon="151.2900687">
  <ele>354.3</ele>
  <time>2026-09-01T19:53:45Z</time>
  <course>187.86</course>
  <speed>2.7177380300536695</speed>
  <fix>3d</fix>
</trkpt>
<trkpt lat="-27.2744018" lon="151.2900694">
  <ele>354.3</ele>
  <time>2026-09-01T19:53:45Z</time>
  <course>186.75</course>
  <speed>3.03</speed>
  <fix>3d</fix>
</trkpt>
<trkpt lat="-27.2744077" lon="151.2900685">
  <ele>354.3</ele>
  <time>2026-09-01T19:53:45Z</time>
  <course>187.86</course>
  <speed>2.67686383665662</speed>
  <fix>3d</fix>
</trkpt>
<trkpt lat="-27.2744094" lon="151.2900684">
  <ele>354.3</ele>
  <time>2026-09-01T19:53:45Z</time>
  <course>187.86</course>
  <speed>2.5664372191814864</speed>
  <fix>3d</fix>
</trkpt>
<trkpt lat="-27.2744018" lon="151.2900694">
  <ele>354.3</ele>
  <time>2026-09-01T19:53:45Z</time>
  <course>186.75</course>
  <speed>3.03</speed>
  <fix>3d</fix>
</trkpt>
<trkpt lat="-27.2744106" lon="151.2900683">
  <ele>354.29</ele>
  <time>2026-09-01T19:53:45Z</time>
  <course>187.86</course>
  <speed>2.4858197842965204</speed>
  <fix>3d</fix>
</trkpt>
<trkpt lat="-27.2744117" lon="151.290068">
  <ele>354.29</ele>
  <time>2026-09-01T19:53:45Z</time>
  <course>187.87</course>
  <speed>2.405202694161139</speed>
  <fix>3d</fix>
</trkpt>
<trkpt lat="-27.2744069" lon="151.2900687">
  <ele>354.3</ele>
  <time>2026-09-01T19:53:45Z</time>
  <course>186.63</course>
  <speed>2.72</speed>
  <fix>3d</fix>
</trkpt>
<trkpt lat="-27.2744121" lon="151.290068">
  <ele>354.29</ele>
  <time>2026-09-01T19:53:45Z</time>
  <course>187.87</course>
  <speed>2.3742788378789883</speed>
  <fix>3d</fix>
</trkpt>
<trkpt lat="-27.2744137" lon="151.2900679">
  <ele>354.28</ele>
  <time>2026-09-01T19:53:45Z</time>
  <course>187.87</course>
  <speed>2.2539077177204927</speed>
  <fix>3d</fix>
</trkpt>
<trkpt lat="-27.2744069" lon="151.2900687">
  <ele>354.3</ele>
  <time>2026-09-01T19:53:45Z</time>
  <course>186.63</course>
  <speed>2.72</speed>
  <fix>3d</fix>
</trkpt>
<trkpt lat="-27.2744141" lon="151.2900678">
  <ele>354.28</ele>
  <time>2026-09-01T19:53:45Z</time>
  <course>187.87</course>
  <speed>2.2229934772733815</speed>
  <fix>3d</fix>
</trkpt>
<trkpt lat="-27.2744157" lon="151.2900675">
  <ele>354.28</ele>
  <time>2026-09-01T19:53:45Z</time>
  <course>187.88</course>
  <speed>2.10261741645978</speed>
  <fix>3d</fix>
</trkpt>
<trkpt lat="-27.2744115" lon="151.2900681">
  <ele>354.28</ele>
  <time>2026-09-01T19:53:45Z</time>
  <course>186.5</course>
  <speed>2.42</speed>
  <fix>3d</fix>
</trkpt>
<trkpt lat="-27.2744161" lon="151.2900675">
  <ele>354.27</ele>
  <time>2026-09-01T19:53:45Z</time>
  <course>187.88</course>
  <speed>2.07171426601257</speed>
  <fix>3d</fix>
</trkpt>
<trkpt lat="-27.2744175" lon="151.2900674">
  <ele>354.27</ele>
  <time>2026-09-01T19:53:45Z</time>
  <course>187.89</course>
  <speed>1.9513328778042973</speed>
  <fix>3d</fix>
</trkpt>
<trkpt lat="-27.2744115" lon="151.2900681">
  <ele>354.28</ele>
  <time>2026-09-01T19:53:45Z</time>
  <course>186.5</course>
  <speed>2.42</speed>
  <fix>3d</fix>
</trkpt>
<trkpt lat="-27.2744179" lon="151.2900674">
  <ele>354.26</ele>
  <time>2026-09-01T19:53:45Z</time>
  <course>187.89</course>
  <speed>1.9215098230297967</speed>
  <fix>3d</fix>
</trkpt>
<trkpt lat="-27.2744192" lon="151.2900671">
  <ele>354.26</ele>
  <time>2026-09-01T19:53:45Z</time>
  <course>187.89</course>
  <speed>1.800055554698243</speed>
  <fix>3d</fix>
</trkpt>
<trkpt lat="-27.2744155" lon="151.2900676">
  <ele>354.27</ele>
  <time>2026-09-01T19:53:45Z</time>
  <course>186.37</course>
  <speed>2.11</speed>
  <fix>3d</fix>
</trkpt>
<trkpt lat="-27.2744195" lon="151.2900671">
  <ele>354.26</ele>
  <time>2026-09-01T19:53:45Z</time>
  <course>187.9</course>
  <speed>1.7702259742756008</speed>
  <fix>3d</fix>
</trkpt>
<trkpt lat="-27.2744208" lon="151.290067">
  <ele>354.25</ele>
  <time>2026-09-01T19:53:45Z</time>
  <course>187.9</course>
  <speed>1.6587344573499399</speed>
  <fix>3d</fix>
</trkpt>
<trkpt lat="-27.2744155" lon="151.2900676">
  <ele>354.27</ele>
  <time>2026-09-01T19:53:45Z</time>
  <course>186.37</course>
  <speed>2.11</speed>
  <fix>3d</fix>
</trkpt>
<trkpt lat="-27.2744211" lon="151.290067">
  <ele>354.25</ele>
  <time>2026-09-01T19:53:45Z</time>
  <course>187.91</course>
  <speed>1.6189502771858064</speed>
  <fix>3d</fix>
</trkpt>
<trkpt lat="-27.2744222" lon="151.2900668">
  <ele>354.24</ele>
  <time>2026-09-01T19:53:45Z</time>
  <course>187.91</course>
  <speed>1.508509197850646</speed>
  <fix>3d</fix>
</trkpt>
<trkpt lat="-27.274419" lon="151.2900672">
  <ele>354.26</ele>
  <time>2026-09-01T19:53:45Z</time>
  <course>186.24</course>
  <speed>1.81</speed>
  <fix>3d</fix>
</trkpt>
<trkpt lat="-27.2744223" lon="151.2900668">
  <ele>354.24</ele>
  <time>2026-09-01T19:53:45Z</time>
  <course>187.91</course>
  <speed>1.508509197850646</speed>
  <fix>3d</fix>
</trkpt>
<trkpt lat="-27.2744235" lon="151.2900666">
  <ele>354.23</ele>
  <time>2026-09-01T19:53:45Z</time>
  <course>187.92</course>
  <speed>1.3771347065556077</speed>
  <fix>3d</fix>
</trkpt>
<trkpt lat="-27.274419" lon="151.2900672">
  <ele>354.26</ele>
  <time>2026-09-01T19:53:45Z</time>
  <course>186.24</course>
  <speed>1.81</speed>
  <fix>3d</fix>
</trkpt>
<trkpt lat="-27.2744236" lon="151.2900666">
  <ele>354.23</ele>
  <time>2026-09-01T19:53:45Z</time>
  <course>187.93</course>
  <speed>1.3572398461583715</speed>
  <fix>3d</fix>
</trkpt>
<trkpt lat="-27.2744246" lon="151.2900665">
  <ele>354.22</ele>
  <time>2026-09-01T19:53:45Z</time>
  <course>187.94</course>
  <speed>1.245792920191795</speed>
  <fix>3d</fix>
</trkpt>
<trkpt lat="-27.274422" lon="151.2900668">
  <ele>354.24</ele>
  <time>2026-09-01T19:53:45Z</time>
  <course>186.1</course>
  <speed>1.52</speed>
  <fix>3d</fix>
</trkpt>
<trkpt lat="-27.2744249" lon="151.2900665">
  <ele>354.22</ele>
  <time>2026-09-01T19:53:45Z</time>
  <course>187.94</course>
  <speed>1.2159358535712317</speed>
  <fix>3d</fix>
</trkpt>
<trkpt lat="-27.2744257" lon="151.2900664">
  <ele>354.21</ele>
  <time>2026-09-01T19:53:45Z</time>
  <course>187.95</course>
  <speed>1.1253888216967503</speed>
  <fix>3d</fix>
</trkpt>
<trkpt lat="-27.274422" lon="151.2900668">
  <ele>354.24</ele>
  <time>2026-09-01T19:53:45Z</time>
  <course>186.1</course>
  <speed>1.52</speed>
  <fix>3d</fix>
</trkpt>
<trkpt lat="-27.2744259" lon="151.2900664">
  <ele>354.2</ele>
  <time>2026-09-01T19:53:45Z</time>
  <course>187.95</course>
  <speed>1.105486318323298</speed>
  <fix>3d</fix>
</trkpt>
<trkpt lat="-27.2744267" lon="151.2900663">
  <ele>354.18</ele>
  <time>2026-09-01T19:53:45Z</time>
  <course>187.96</course>
  <speed>1.0149384217774002</speed>
  <fix>3d</fix>
</trkpt>
<trkpt lat="-27.2744245" lon="151.2900665">
  <ele>354.22</ele>
  <time>2026-09-01T19:53:45Z</time>
  <course>185.97</course>
  <speed>1.26</speed>
  <fix>3d</fix>
</trkpt>
<trkpt lat="-27.2744269" lon="151.2900663">
  <ele>354.18</ele>
  <time>2026-09-01T19:53:45Z</time>
  <course>187.96</course>
  <speed>0.9950376877284599</speed>
  <fix>3d</fix>
</trkpt>
<trkpt lat="-27.2744275" lon="151.2900661">
  <ele>354.15</ele>
  <time>2026-09-01T19:53:45Z</time>
  <course>187.96</course>
  <speed>0.9144397191723465</speed>
  <fix>3d</fix>
</trkpt>
<trkpt lat="-27.2744245" lon="151.2900665">
  <ele>354.22</ele>
  <time>2026-09-01T19:53:45Z</time>
  <course>185.97</course>
  <speed>1.26</speed>
  <fix>3d</fix>
</trkpt>
<trkpt lat="-27.2744277" lon="151.2900661">
  <ele>354.14</ele>
  <time>2026-09-01T19:53:45Z</time>
  <course>187.96</course>
  <speed>0.8945389874119517</speed>
  <fix>3d</fix>
</trkpt>
<trkpt lat="-27.2744283" lon="151.2900661">
  <ele>354.1</ele>
  <time>2026-09-01T19:53:45Z</time>
  <course>187.96</course>
  <speed>0.8139410298049853</speed>
  <fix>3d</fix>
</trkpt>
<trkpt lat="-27.2744265" lon="151.2900662">
  <ele>354.18</ele>
  <time>2026-09-01T19:53:45Z</time>
  <course>185.86</course>
  <speed>1.03</speed>
  <fix>3d</fix>
</trkpt>
<trkpt lat="-27.2744283" lon="151.2900661">
  <ele>354.1</ele>
  <time>2026-09-01T19:53:45Z</time>
  <course>187.96</course>
  <speed>0.8139410298049853</speed>
  <fix>3d</fix>
</trkpt>
<trkpt lat="-27.274429" lon="151.290066">
  <ele>354.04</ele>
  <time>2026-09-01T19:53:45Z</time>
  <course>187.97</course>
  <speed>0.723394774656273</speed>
  <fix>3d</fix>
</trkpt>
<trkpt lat="-27.2744265" lon="151.2900662">
  <ele>354.18</ele>
  <time>2026-09-01T19:53:45Z</time>
  <course>185.86</course>
  <speed>1.03</speed>
  <fix>3d</fix>
</trkpt>
<trkpt lat="-27.2744291" lon="151.290066">
  <ele>354.03</ele>
  <time>2026-09-01T19:53:45Z</time>
  <course>187.96</course>
  <speed>0.7134423592694787</speed>
  <fix>3d</fix>
</trkpt>
<trkpt lat="-27.2744296" lon="151.290066">
  <ele>353.96</ele>
  <time>2026-09-01T19:53:45Z</time>
  <course>187.96</course>
  <speed>0.6228964600958975</speed>
  <fix>3d</fix>
</trkpt>
<trkpt lat="-27.2744282" lon="151.2900661">
  <ele>354.09</ele>
  <time>2026-09-01T19:53:45Z</time>
  <course>185.76</course>
  <speed>0.82</speed>
  <fix>3d</fix>
</trkpt>
<trkpt lat="-27.2744297" lon="151.290066">
  <ele>353.94</ele>
  <time>2026-09-01T19:53:45Z</time>
  <course>187.96</course>
  <speed>0.6129437168288782</speed>
  <fix>3d</fix>
</trkpt>
<trkpt lat="-27.2744301" lon="151.2900659">
  <ele>353.87</ele>
  <time>2026-09-01T19:53:45Z</time>
  <course>187.96</course>
  <speed>0.5323532661682466</speed>
  <fix>3d</fix>
</trkpt>
<trkpt lat="-27.2744282" lon="151.2900661">
  <ele>354.09</ele>
  <time>2026-09-01T19:53:45Z</time>
  <course>185.76</course>
  <speed>0.82</speed>
  <fix>3d</fix>
</trkpt>
<trkpt lat="-27.2744302" lon="151.2900659">
  <ele>353.85</ele>
  <time>2026-09-01T19:53:45Z</time>
  <course>187.95</course>
  <speed>0.5223983154643591</speed>
  <fix>3d</fix>
</trkpt>
<trkpt lat="-27.2744306" lon="151.2900659">
  <ele>353.76</ele>
  <time>2026-09-01T19:53:46Z</time>
  <course>187.95</course>
  <speed>0.45177427992306074</speed>
  <fix>3d</fix>
</trkpt>
<trkpt lat="-27.2744295" lon="151.2900659">
  <ele>353.95</ele>
  <time>2026-09-01T19:53:46Z</time>
  <course>185.66</course>
  <speed>0.63</speed>
  <fix>3d</fix>
</trkpt>
<trkpt lat="-27.2744306" lon="151.2900659">
  <ele>353.74</ele>
  <time>2026-09-01T19:53:46Z</time>
  <course>187.94</course>
  <speed>0.43185645763378366</speed>
  <fix>3d</fix>
</trkpt>
<trkpt lat="-27.2744309" lon="151.2900657">
  <ele>353.64</ele>
  <time>2026-09-01T19:53:46Z</time>
  <course>187.94</course>
  <speed>0.3712142238654117</speed>
  <fix>3d</fix>
</trkpt>
<trkpt lat="-27.2744295" lon="151.2900659">
  <ele>353.95</ele>
  <time>2026-09-01T19:53:46Z</time>
  <course>185.66</course>
  <speed>0.63</speed>
  <fix>3d</fix>
</trkpt>
<trkpt lat="-27.274431" lon="151.2900657">
  <ele>353.62</ele>
  <time>2026-09-01T19:53:46Z</time>
  <course>187.93</course>
  <speed>0.35128336140500593</speed>
  <fix>3d</fix>
</trkpt>
<trkpt lat="-27.2744312" lon="151.2900657">
  <ele>353.52</ele>
  <time>2026-09-01T19:53:46Z</time>
  <course>187.93</course>
  <speed>0.2906888370749727</speed>
  <fix>3d</fix>
</trkpt>
<trkpt lat="-27.2744305" lon="151.2900658">
  <ele>353.76</ele>
  <time>2026-09-01T19:53:46Z</time>
  <course>185.64</course>
  <speed>0.46</speed>
  <fix>3d</fix>
</trkpt>
<trkpt lat="-27.2744314" lon="151.2900657">
  <ele>353.44</ele>
  <time>2026-09-01T19:53:46Z</time>
  <course>187.92</course>
  <speed>0.25079872407968906</speed>
  <fix>3d</fix>
</trkpt>
<trkpt lat="-27.2744315" lon="151.2900657">
  <ele>353.39</ele>
  <time>2026-09-01T19:53:46Z</time>
  <course>187.92</course>
  <speed>0.22090722034374521</speed>
  <fix>3d</fix>
</trkpt>
<trkpt lat="-27.2744305" lon="151.2900658">
  <ele>353.76</ele>
  <time>2026-09-01T19:53:46Z</time>
  <course>185.64</course>
  <speed>0.46</speed>
  <fix>3d</fix>
</trkpt>
<trkpt lat="-27.2744315" lon="151.2900657">
  <ele>353.36</ele>
  <time>2026-09-01T19:53:46Z</time>
  <course>187.92</course>
  <speed>0.2109502310972899</speed>
  <fix>3d</fix>
</trkpt>
<trkpt lat="-27.2744316" lon="151.2900656">
  <ele>353.26</ele>
  <time>2026-09-01T19:53:46Z</time>
  <course>187.92</course>
  <speed>0.16031219541881397</speed>
  <fix>3d</fix>
</trkpt>
<trkpt lat="-27.2744312" lon="151.2900657">
  <ele>353.52</ele>
  <time>2026-09-01T19:53:46Z</time>
  <course>185.8</course>
  <speed>0.3</speed>
  <fix>3d</fix>
</trkpt>
<trkpt lat="-27.2744317" lon="151.2900656">
  <ele>353.23</ele>
  <time>2026-09-01T19:53:46Z</time>
  <course>187.92</course>
  <speed>0.140356688476182</speed>
  <fix>3d</fix>
</trkpt>
<trkpt lat="-27.2744318" lon="151.2900656">
  <ele>353.12</ele>
  <time>2026-09-01T19:53:46Z</time>
  <course>187.93</course>
  <speed>0.1004987562112089</speed>
  <fix>3d</fix>
</trkpt>
<trkpt lat="-27.2744312" lon="151.2900657">
  <ele>353.52</ele>
  <time>2026-09-01T19:53:46Z</time>
  <course>185.8</course>
  <speed>0.3</speed>
  <fix>3d</fix>
</trkpt>
<trkpt lat="-27.2744318" lon="151.2900656">
  <ele>353.09</ele>
  <time>2026-09-01T19:53:46Z</time>
  <course>187.93</course>
  <speed>0.09055385138137417</speed>
  <fix>3d</fix>
</trkpt>
<trkpt lat="-27.2744318" lon="151.2900656">
  <ele>352.99</ele>
  <time>2026-09-01T19:53:46Z</time>
  <course>187.97</course>
  <speed>0.05</speed>
  <fix>3d</fix>
</trkpt>
<trkpt lat="-27.2744316" lon="151.2900657">
  <ele>353.26</ele>
  <time>2026-09-01T19:53:46Z</time>
  <course>186.35</course>
  <speed>0.16</speed>
  <fix>3d</fix>
</trkpt>
<trkpt lat="-27.2744318" lon="151.2900656">
  <ele>352.96</ele>
  <time>2026-09-01T19:53:46Z</time>
  <course>187.99</course>
  <speed>0.04</speed>
  <fix>3d</fix>
</trkpt>
<trkpt lat="-27.2744319" lon="151.2900656">
  <ele>352.85</ele>
  <time>2026-09-01T19:53:46Z</time>
  <course>188.08</course>
  <speed>0.01</speed>
  <fix>3d</fix>
</trkpt>
<trkpt lat="-27.2744316" lon="151.2900657">
  <ele>353.26</ele>
  <time>2026-09-01T19:53:46Z</time>
  <course>186.35</course>
  <speed>0.16</speed>
  <fix>3d</fix>
</trkpt>
<trkpt lat="-27.2744319" lon="151.2900656">
  <ele>352.85</ele>
  <time>2026-09-01T19:53:46Z</time>
  <course>188.08</course>
  <speed>0.01</speed>
  <fix>3d</fix>
</trkpt>
<trkpt lat="-27.2744319" lon="151.2900656">
  <ele>352.72</ele>
  <time>2026-09-01T19:53:46Z</time>
  <course>188.19</course>
  <speed>0.01</speed>
  <fix>3d</fix>
</trkpt>
<trkpt lat="-27.2744318" lon="151.2900656">
  <ele>352.99</ele>
  <time>2026-09-01T19:53:46Z</time>
  <course>185.33</course>
  <speed>0.06</speed>
  <fix>3d</fix>
</trkpt>
<trkpt lat="-27.2744319" lon="151.2900656">
  <ele>352.71</ele>
  <time>2026-09-01T19:53:46Z</time>
  <course>188.2</course>
  <speed>0.02</speed>
  <fix>3d</fix>
</trkpt>
<trkpt lat="-27.2744318" lon="151.2900656">
  <ele>352.6</ele>
  <time>2026-09-01T19:53:46Z</time>
  <course>188.3</course>
  <speed>0.0412310562561766</speed>
  <fix>3d</fix>
</trkpt>
<trkpt lat="-27.2744318" lon="151.2900656">
  <ele>352.99</ele>
  <time>2026-09-01T19:53:46Z</time>
  <course>185.33</course>
  <speed>0.06</speed>
  <fix>3d</fix>
</trkpt>
<trkpt lat="-27.2744318" lon="151.2900656">
  <ele>352.57</ele>
  <time>2026-09-01T19:53:46Z</time>
  <course>188.32</course>
  <speed>0.05099019513592785</speed>
  <fix>3d</fix>
</trkpt>
<trkpt lat="-27.2744318" lon="151.2900656">
  <ele>352.47</ele>
  <time>2026-09-01T19:53:46Z</time>
  <course>188.39</course>
  <speed>0.06082762530298219</speed>
  <fix>3d</fix>
</trkpt>
<trkpt lat="-27.2744318" lon="151.2900656">
  <ele>352.72</ele>
  <time>2026-09-01T19:53:46Z</time>
  <course>25.96</course>
  <speed>0.01</speed>
  <fix>3d</fix>
</trkpt>
<trkpt lat="-27.2744318" lon="151.2900656">
  <ele>352.45</ele>
  <time>2026-09-01T19:53:46Z</time>
  <course>188.4</course>
  <speed>0.07071067811865475</speed>
  <fix>3d</fix>
</trkpt>
<trkpt lat="-27.2744317" lon="151.2900656">
  <ele>352.36</ele>
  <time>2026-09-01T19:53:46Z</time>
  <course>188.46</course>
  <speed>0.08062257748298549</speed>
  <fix>3d</fix>
</trkpt>
<trkpt lat="-27.2744318" lon="151.2900656">
  <ele>352.72</ele>
  <time>2026-09-01T19:53:46Z</time>
  <course>25.96</course>
  <speed>0.01</speed>
  <fix>3d</fix>
</trkpt>
<trkpt lat="-27.2744317" lon="151.2900656">
  <ele>352.33</ele>
  <time>2026-09-01T19:53:46Z</time>
  <course>188.47</course>
  <speed>0.08062257748298549</speed>
  <fix>3d</fix>
</trkpt>
<trkpt lat="-27.2744317" lon="151.2900656">
  <ele>352.24</ele>
  <time>2026-09-01T19:53:46Z</time>
  <course>188.5</course>
  <speed>0.09055385138137417</speed>
  <fix>3d</fix>
</trkpt>
<trkpt lat="-27.2744317" lon="151.2900656">
  <ele>352.47</ele>
  <time>2026-09-01T19:53:46Z</time>
  <course>12.43</course>
  <speed>0.06</speed>
  <fix>3d</fix>
</trkpt>
<trkpt lat="-27.2744317" lon="151.2900656">
  <ele>352.22</ele>
  <time>2026-09-01T19:53:46Z</time>
  <course>188.5</course>
  <speed>0.1004987562112089</speed>
  <fix>3d</fix>
</trkpt>
<trkpt lat="-27.2744316" lon="151.2900656">
  <ele>352.13</ele>
  <time>2026-09-01T19:53:46Z</time>
  <course>188.51</course>
  <speed>0.1019803902718557</speed>
  <fix>3d</fix>
</trkpt>
<trkpt lat="-27.2744317" lon="151.2900656">
  <ele>352.47</ele>
  <time>2026-09-01T19:53:46Z</time>
  <course>12.43</course>
  <speed>0.06</speed>
  <fix>3d</fix>
</trkpt>
<trkpt lat="-27.2744316" lon="151.2900656">
  <ele>352.11</ele>
  <time>2026-09-01T19:53:46Z</time>
  <course>188.51</course>
  <speed>0.1019803902718557</speed>
  <fix>3d</fix>
</trkpt>
<trkpt lat="-27.2744315" lon="151.2900656">
  <ele>352.02</ele>
  <time>2026-09-01T19:53:46Z</time>
  <course>188.5</course>
  <speed>0.1118033988749895</speed>
  <fix>3d</fix>
</trkpt>
<trkpt lat="-27.2744316" lon="151.2900656">
  <ele>352.25</ele>
  <time>2026-09-01T19:53:46Z</time>
  <course>11.22</course>
  <speed>0.09</speed>
  <fix>3d</fix>
</trkpt>
<trkpt lat="-27.2744315" lon="151.2900656">
  <ele>352.02</ele>
  <time>2026-09-01T19:53:46Z</time>
  <course>188.5</course>
  <speed>0.1118033988749895</speed>
  <fix>3d</fix>
</trkpt>
<trkpt lat="-27.2744314" lon="151.2900656">
  <ele>351.92</ele>
  <time>2026-09-01T19:53:46Z</time>
  <course>188.47</course>
  <speed>0.1118033988749895</speed>
  <fix>3d</fix>
</trkpt>
<trkpt lat="-27.2744316" lon="151.2900656">
  <ele>352.25</ele>
  <time>2026-09-01T19:53:46Z</time>
  <course>11.22</course>
  <speed>0.09</speed>
  <fix>3d</fix>
</trkpt>
<trkpt lat="-27.2744314" lon="151.2900656">
  <ele>351.92</ele>
  <time>2026-09-01T19:53:46Z</time>
  <course>188.47</course>
  <speed>0.1118033988749895</speed>
  <fix>3d</fix>
</trkpt>
<trkpt lat="-27.2744313" lon="151.2900657">
  <ele>351.82</ele>
  <time>2026-09-01T19:53:46Z</time>
  <course>188.43</course>
  <speed>0.1118033988749895</speed>
  <fix>3d</fix>
</trkpt>
<trkpt lat="-27.2744315" lon="151.2900656">
  <ele>352.03</ele>
  <time>2026-09-01T19:53:46Z</time>
  <course>10.8</course>
  <speed>0.11</speed>
  <fix>3d</fix>
</trkpt>
<trkpt lat="-27.2744313" lon="151.2900657">
  <ele>351.82</ele>
  <time>2026-09-01T19:53:46Z</time>
  <course>188.43</course>
  <speed>0.1118033988749895</speed>
  <fix>3d</fix>
</trkpt>
<trkpt lat="-27.2744312" lon="151.2900657">
  <ele>351.72</ele>
  <time>2026-09-01T19:53:46Z</time>
  <course>188.38</course>
  <speed>0.1004987562112089</speed>
  <fix>3d</fix>
</trkpt>
<trkpt lat="-27.2744315" lon="151.2900656">
  <ele>352.03</ele>
  <time>2026-09-01T19:53:46Z</time>
  <course>10.8</course>
  <speed>0.11</speed>
  <fix>3d</fix>
</trkpt>
<trkpt lat="-27.2744312" lon="151.2900657">
  <ele>351.69</ele>
  <time>2026-09-01T19:53:46Z</time>
  <course>188.37</course>
  <speed>0.1004987562112089</speed>
  <fix>3d</fix>
</trkpt>
<trkpt lat="-27.2744311" lon="151.2900657">
  <ele>351.63</ele>
  <time>2026-09-01T19:53:46Z</time>
  <course>188.34</course>
  <speed>0.09055385138137417</speed>
  <fix>3d</fix>
</trkpt>
<trkpt lat="-27.2744312" lon="151.2900657">
  <ele>351.83</ele>
  <time>2026-09-01T19:53:46Z</time>
  <course>10.59</course>
  <speed>0.11</speed>
  <fix>3d</fix>
</trkpt>
<trkpt lat="-27.2744311" lon="151.2900657">
  <ele>351.63</ele>
  <time>2026-09-01T19:53:46Z</time>
  <course>188.34</course>
  <speed>0.09055385138137417</speed>
  <fix>3d</fix>
</trkpt>
<trkpt lat="-27.2744311" lon="151.2900657">
  <ele>351.54</ele>
  <time>2026-09-01T19:53:46Z</time>
  <course>188.31</course>
  <speed>0.08062257748298549</speed>
  <fix>3d</fix>
</trkpt>
<trkpt lat="-27.2744312" lon="151.2900657">
  <ele>351.83</ele>
  <time>2026-09-01T19:53:46Z</time>
  <course>10.59</course>
  <speed>0.11</speed>
  <fix>3d</fix>
</trkpt>
<trkpt lat="-27.274431" lon="151.2900657">
  <ele>351.52</ele>
  <time>2026-09-01T19:53:46Z</time>
  <course>188.31</course>
  <speed>0.08062257748298549</speed>
  <fix>3d</fix>
</trkpt>
<trkpt lat="-27.274431" lon="151.2900657">
  <ele>351.44</ele>
  <time>2026-09-01T19:53:46Z</time>
  <course>188.29</course>
  <speed>0.07071067811865475</speed>
  <fix>3d</fix>
</trkpt>
<trkpt lat="-27.2744311" lon="151.2900657">
  <ele>351.63</ele>
  <time>2026-09-01T19:53:46Z</time>
  <course>10.67</course>
  <speed>0.1</speed>
  <fix>3d</fix>
</trkpt>
<trkpt lat="-27.274431" lon="151.2900657">
  <ele>351.44</ele>
  <time>2026-09-01T19:53:46Z</time>
  <course>188.29</course>
  <speed>0.07071067811865475</speed>
  <fix>3d</fix>
</trkpt>
<trkpt lat="-27.2744309" lon="151.2900657">
  <ele>351.35</ele>
  <time>2026-09-01T19:53:46Z</time>
  <course>188.29</course>
  <speed>0.06082762530298219</speed>
  <fix>3d</fix>
</trkpt>
<trkpt lat="-27.2744311" lon="151.2900657">
  <ele>351.63</ele>
  <time>2026-09-01T19:53:46Z</time>
  <course>10.67</course>
  <speed>0.1</speed>
  <fix>3d</fix>
</trkpt>
<trkpt lat="-27.2744309" lon="151.2900659">
  <ele>351.33</ele>
  <time>2026-09-01T19:53:46Z</time>
  <course>188.29</course>
  <speed>0.06082762530298219</speed>
  <fix>3d</fix>
</trkpt>
<trkpt lat="-27.2744309" lon="151.2900659">
  <ele>351.26</ele>
  <time>2026-09-01T19:53:46Z</time>
  <course>188.29</course>
  <speed>0.0412310562561766</speed>
  <fix>3d</fix>
</trkpt>
<trkpt lat="-27.274431" lon="151.2900657">
  <ele>351.45</ele>
  <time>2026-09-01T19:53:46Z</time>
  <course>11.22</course>
  <speed>0.07</speed>
  <fix>3d</fix>
</trkpt>
<trkpt lat="-27.2744309" lon="151.2900659">
  <ele>351.24</ele>
  <time>2026-09-01T19:53:46Z</time>
  <course>188.3</course>
  <speed>0.0412310562561766</speed>
  <fix>3d</fix>
</trkpt>
<trkpt lat="-27.2744308" lon="151.2900659">
  <ele>351.18</ele>
  <time>2026-09-01T19:53:46Z</time>
  <course>188.32</course>
  <speed>0.03</speed>
  <fix>3d</fix>
</trkpt>
<trkpt lat="-27.274431" lon="151.2900657">
  <ele>351.45</ele>
  <time>2026-09-01T19:53:46Z</time>
  <course>11.22</course>
  <speed>0.07</speed>
  <fix>3d</fix>
</trkpt>
<trkpt lat="-27.2744308" lon="151.2900659">
  <ele>351.16</ele>
  <time>2026-09-01T19:53:46Z</time>
  <course>188.32</course>
  <speed>0.02</speed>
  <fix>3d</fix>
</trkpt>
<trkpt lat="-27.2744308" lon="151.2900659">
  <ele>351.09</ele>
  <time>2026-09-01T19:53:46Z</time>
  <course>188.36</course>
  <speed>0.01</speed>
  <fix>3d</fix>
</trkpt>
<trkpt lat="-27.2744308" lon="151.2900658">
  <ele>351.27</ele>
  <time>2026-09-01T19:53:46Z</time>
  <course>13.06</course>
  <speed>0.04</speed>
  <fix>3d</fix>
</trkpt>
<trkpt lat="-27.2744308" lon="151.2900659">
  <ele>351.07</ele>
  <time>2026-09-01T19:53:46Z</time>
  <course>188.36</course>
  <speed>0.0</speed>
  <fix>3d</fix>
</trkpt>
<trkpt lat="-27.2744308" lon="151.2900659">
  <ele>351.0</ele>
  <time>2026-09-01T19:53:46Z</time>
  <course>188.36</course>
  <speed>0.0</speed>
  <fix>3d</fix>
</trkpt>
<trkpt lat="-27.2744308" lon="151.2900658">
  <ele>351.27</ele>
  <time>2026-09-01T19:53:46Z</time>
  <course>13.06</course>
  <speed>0.04</speed>
  <fix>3d</fix>
</trkpt>
<trkpt lat="-27.2744308" lon="151.2900659">
  <ele>350.97</ele>
  <time>2026-09-01T19:53:46Z</time>
  <course>188.35</course>
  <speed>0.01</speed>
  <fix>3d</fix>
</trkpt>
<trkpt lat="-27.2744308" lon="151.2900659">
  <ele>350.92</ele>
  <time>2026-09-01T19:53:46Z</time>
  <course>188.31</course>
  <speed>0.02</speed>
  <fix>3d</fix>
</trkpt>
<trkpt lat="-27.2744308" lon="151.2900659">
  <ele>351.09</ele>
  <time>2026-09-01T19:53:46Z</time>
  <course>17.61</course>
  <speed>0.01</speed>
  <fix>3d</fix>
</trkpt>
<trkpt lat="-27.2744308" lon="151.2900659">
  <ele>350.9</ele>
  <time>2026-09-01T19:53:46Z</time>
  <course>188.3</course>
  <speed>0.02</speed>
  <fix>3d</fix>
</trkpt>
<trkpt lat="-27.2744308" lon="151.2900659">
  <ele>350.83</ele>
  <time>2026-09-01T19:53:46Z</time>
  <course>188.22</course>
  <speed>0.0412310562561766</speed>
  <fix>3d</fix>
</trkpt>
<trkpt lat="-27.2744308" lon="151.2900659">
  <ele>351.09</ele>
  <time>2026-09-01T19:53:46Z</time>
  <course>17.61</course>
  <speed>0.01</speed>
  <fix>3d</fix>
</trkpt>
<trkpt lat="-27.2744308" lon="151.2900659">
  <ele>350.81</ele>
  <time>2026-09-01T19:53:46Z</time>
  <course>188.2</course>
  <speed>0.0412310562561766</speed>
  <fix>3d</fix>
</trkpt>
<trkpt lat="-27.2744308" lon="151.2900659">
  <ele>350.75</ele>
  <time>2026-09-01T19:53:46Z</time>
  <course>188.11</course>
  <speed>0.0632455532033676</speed>
  <fix>3d</fix>
</trkpt>
<trkpt lat="-27.2744308" lon="151.2900659">
  <ele>350.91</ele>
  <time>2026-09-01T19:53:46Z</time>
  <course>198.07</course>
  <speed>0.02</speed>
  <fix>3d</fix>
</trkpt>
<trkpt lat="-27.2744308" lon="151.2900659">
  <ele>350.7</ele>
  <time>2026-09-01T19:53:46Z</time>
  <course>188.05</course>
  <speed>0.07280109889280519</speed>
  <fix>3d</fix>
</trkpt>
<trkpt lat="-27.2744309" lon="151.2900659">
  <ele>350.66</ele>
  <time>2026-09-01T19:53:46Z</time>
  <course>188.0</course>
  <speed>0.0824621125123532</speed>
  <fix>3d</fix>
</trkpt>
<trkpt lat="-27.2744308" lon="151.2900659">
  <ele>350.91</ele>
  <time>2026-09-01T19:53:46Z</time>
  <course>198.07</course>
  <speed>0.02</speed>
  <fix>3d</fix>
</trkpt>
<trkpt lat="-27.2744309" lon="151.2900659">
  <ele>350.66</ele>
  <time>2026-09-01T19:53:46Z</time>
  <course>188.0</course>
  <speed>0.0854400374531753</speed>
  <fix>3d</fix>
</trkpt>
<trkpt lat="-27.274431" lon="151.2900659">
  <ele>350.58</ele>
  <time>2026-09-01T19:53:46Z</time>
  <course>187.92</course>
  <speed>0.1044030650891055</speed>
  <fix>3d</fix>
</trkpt>
<trkpt lat="-27.2744308" lon="151.2900659">
  <ele>350.75</ele>
  <time>2026-09-01T19:53:46Z</time>
  <course>199.26</course>
  <speed>0.06</speed>
  <fix>3d</fix>
</trkpt>
<trkpt lat="-27.274431" lon="151.2900659">
  <ele>350.57</ele>
  <time>2026-09-01T19:53:46Z</time>
  <course>187.91</course>
  <speed>0.1044030650891055</speed>
  <fix>3d</fix>
</trkpt>
<trkpt lat="-27.2744311" lon="151.2900657">
  <ele>350.5</ele>
  <time>2026-09-01T19:53:46Z</time>
  <course>187.86</course>
  <speed>0.1264911064067352</speed>
  <fix>3d</fix>
</trkpt>
<trkpt lat="-27.2744308" lon="151.2900659">
  <ele>350.75</ele>
  <time>2026-09-01T19:53:46Z</time>
  <course>199.26</course>
  <speed>0.06</speed>
  <fix>3d</fix>
</trkpt>
<trkpt lat="-27.2744311" lon="151.2900657">
  <ele>350.47</ele>
  <time>2026-09-01T19:53:46Z</time>
  <course>187.85</course>
  <speed>0.13601470508735444</speed>
  <fix>3d</fix>
</trkpt>
<trkpt lat="-27.2744312" lon="151.2900657">
  <ele>350.42</ele>
  <time>2026-09-01T19:53:46Z</time>
  <course>187.83</course>
  <speed>0.14866068747318506</speed>
  <fix>3d</fix>
</trkpt>
<trkpt lat="-27.274431" lon="151.2900658">
  <ele>350.58</ele>
  <time>2026-09-01T19:53:46Z</time>
  <course>199.13</course>
  <speed>0.11</speed>
  <fix>3d</fix>
</trkpt>
<trkpt lat="-27.2744312" lon="151.2900657">
  <ele>350.41</ele>
  <time>2026-09-01T19:53:46Z</time>
  <course>187.83</course>
  <speed>0.14866068747318506</speed>
  <fix>3d</fix>
</trkpt>
<trkpt lat="-27.2744313" lon="151.2900656">
  <ele>350.34</ele>
  <time>2026-09-01T19:53:46Z</time>
  <course>187.84</course>
  <speed>0.1676305461424021</speed>
  <fix>3d</fix>
</trkpt>
<trkpt lat="-27.274431" lon="151.2900658">
  <ele>350.58</ele>
  <time>2026-09-01T19:53:46Z</time>
  <course>199.13</course>
  <speed>0.11</speed>
  <fix>3d</fix>
</trkpt>
<trkpt lat="-27.2744314" lon="151.2900656">
  <ele>350.32</ele>
  <time>2026-09-01T19:53:46Z</time>
  <course>187.84</course>
  <speed>0.1772004514666935</speed>
  <fix>3d</fix>
</trkpt>
<trkpt lat="-27.2744315" lon="151.2900656">
  <ele>350.26</ele>
  <time>2026-09-01T19:53:46Z</time>
  <course>187.85</course>
  <speed>0.18973665961010278</speed>
  <fix>3d</fix>
</trkpt>
<trkpt lat="-27.2744312" lon="151.2900657">
  <ele>350.41</ele>
  <time>2026-09-01T19:53:46Z</time>
  <course>198.88</course>
  <speed>0.15</speed>
  <fix>3d</fix>
</trkpt>
<trkpt lat="-27.2744315" lon="151.2900656">
  <ele>350.25</ele>
  <time>2026-09-01T19:53:46Z</time>
  <course>187.86</course>
  <speed>0.19924858845171275</speed>
  <fix>3d</fix>
</trkpt>
<trkpt lat="-27.2744317" lon="151.2900656">
  <ele>350.18</ele>
  <time>2026-09-01T19:53:46Z</time>
  <course>187.88</course>
  <speed>0.208806130178211</speed>
  <fix>3d</fix>
</trkpt>
<trkpt lat="-27.2744312" lon="151.2900657">
  <ele>350.41</ele>
  <time>2026-09-01T19:53:46Z</time>
  <course>198.88</course>
  <speed>0.15</speed>
  <fix>3d</fix>
</trkpt>
<trkpt lat="-27.2744317" lon="151.2900656">
  <ele>350.16</ele>
  <time>2026-09-01T19:53:46Z</time>
  <course>187.89</course>
  <speed>0.21840329667841554</speed>
  <fix>3d</fix>
</trkpt>
<trkpt lat="-27.2744319" lon="151.2900655">
  <ele>350.11</ele>
  <time>2026-09-01T19:53:46Z</time>
  <course>187.9</course>
  <speed>0.2308679276123039</speed>
  <fix>3d</fix>
</trkpt>
<trkpt lat="-27.2744315" lon="151.2900656">
  <ele>350.26</ele>
  <time>2026-09-01T19:53:46Z</time>
  <course>198.39</course>
  <speed>0.19</speed>
  <fix>3d</fix>
</trkpt>
<trkpt lat="-27.2744319" lon="151.2900655">
  <ele>350.1</ele>
  <time>2026-09-01T19:53:46Z</time>
  <course>187.91</course>
  <speed>0.24041630560342614</speed>
  <fix>3d</fix>
</trkpt>
<trkpt lat="-27.2744321" lon="151.2900655">
  <ele>350.03</ele>
  <time>2026-09-01T19:53:46Z</time>
  <course>187.93</course>
  <speed>0.25</speed>
  <fix>3d</fix>
</trkpt>
<trkpt lat="-27.2744315" lon="151.2900656">
  <ele>350.26</ele>
  <time>2026-09-01T19:53:46Z</time>
  <course>198.39</course>
  <speed>0.19</speed>
  <fix>3d</fix>
</trkpt>
<trkpt lat="-27.2744321" lon="151.2900654">
  <ele>350.02</ele>
  <time>2026-09-01T19:53:46Z</time>
  <course>187.94</course>
  <speed>0.2596150997149434</speed>
  <fix>3d</fix>
</trkpt>
<trkpt lat="-27.2744323" lon="151.2900654">
  <ele>349.96</ele>
  <time>2026-09-01T19:53:46Z</time>
  <course>187.95</course>
  <speed>0.2720294101747089</speed>
  <fix>3d</fix>
</trkpt>
<trkpt lat="-27.2744318" lon="151.2900655">
  <ele>350.11</ele>
  <time>2026-09-01T19:53:46Z</time>
  <course>197.81</course>
  <speed>0.23</speed>
  <fix>3d</fix>
</trkpt>
<trkpt lat="-27.2744324" lon="151.2900654">
  <ele>349.94</ele>
  <time>2026-09-01T19:53:46Z</time>
  <course>187.95</course>
  <speed>0.2720294101747089</speed>
  <fix>3d</fix>
</trkpt>
<trkpt lat="-27.2744326" lon="151.2900652">
  <ele>349.89</ele>
  <time>2026-09-01T19:53:46Z</time>
  <course>187.96</course>
  <speed>0.29120439557122074</speed>
  <fix>3d</fix>
</trkpt>
<trkpt lat="-27.2744318" lon="151.2900655">
  <ele>350.11</ele>
  <time>2026-09-01T19:53:46Z</time>
  <course>197.81</course>
  <speed>0.23</speed>
  <fix>3d</fix>
</trkpt>
<trkpt lat="-27.2744326" lon="151.2900652">
  <ele>349.88</ele>
  <time>2026-09-01T19:53:46Z</time>
  <course>187.96</course>
  <speed>0.29120439557122074</speed>
  <fix>3d</fix>
</trkpt>
<trkpt lat="-27.2744328" lon="151.2900651">
  <ele>349.82</ele>
  <time>2026-09-01T19:53:46Z</time>
  <course>187.96</course>
  <speed>0.30364452901377953</speed>
  <fix>3d</fix>
</trkpt>
<trkpt lat="-27.2744323" lon="151.2900654">
  <ele>349.97</ele>
  <time>2026-09-01T19:53:46Z</time>
  <course>197.31</course>
  <speed>0.27</speed>
  <fix>3d</fix>
</trkpt>
<trkpt lat="-27.2744328" lon="151.2900651">
  <ele>349.82</ele>
  <time>2026-09-01T19:53:46Z</time>
  <course>187.96</course>
  <speed>0.30364452901377953</speed>
  <fix>3d</fix>
</trkpt>
<trkpt lat="-27.2744331" lon="151.2900651">
  <ele>349.76</ele>
  <time>2026-09-01T19:53:46Z</time>
  <course>187.95</course>
  <speed>0.32280024783137945</speed>
  <fix>3d</fix>
</trkpt>
<trkpt lat="-27.2744323" lon="151.2900654">
  <ele>349.97</ele>
  <time>2026-09-01T19:53:46Z</time>
  <course>197.31</course>
  <speed>0.27</speed>
  <fix>3d</fix>
</trkpt>
<trkpt lat="-27.2744331" lon="151.2900651">
  <ele>349.75</ele>
  <time>2026-09-01T19:53:46Z</time>
  <course>187.94</course>
  <speed>0.32280024783137945</speed>
  <fix>3d</fix>
</trkpt>
<trkpt lat="-27.2744334" lon="151.290065">
  <ele>349.69</ele>
  <time>2026-09-01T19:53:46Z</time>
  <course>187.94</course>
  <speed>0.33241540277189324</speed>
  <fix>3d</fix>
</trkpt>
<trkpt lat="-27.2744328" lon="151.2900651">
  <ele>349.83</ele>
  <time>2026-09-01T19:53:46Z</time>
  <course>196.82</course>
  <speed>0.3</speed>
  <fix>3d</fix>
</trkpt>
<trkpt lat="-27.2744334" lon="151.290065">
  <ele>349.68</ele>
  <time>2026-09-01T19:53:46Z</time>
  <course>187.93</course>
  <speed>0.33241540277189324</speed>
  <fix>3d</fix>
</trkpt>
<trkpt lat="-27.2744337" lon="151.2900649">
  <ele>349.63</ele>
  <time>2026-09-01T19:53:46Z</time>
  <course>187.93</course>
  <speed>0.3420526275297414</speed>
  <fix>3d</fix>
</trkpt>
<trkpt lat="-27.2744328" lon="151.2900651">
  <ele>349.83</ele>
  <time>2026-09-01T19:53:46Z</time>
  <course>196.82</course>
  <speed>0.3</speed>
  <fix>3d</fix>
</trkpt>
<trkpt lat="-27.2744337" lon="151.2900649">
  <ele>349.61</ele>
  <time>2026-09-01T19:53:46Z</time>
  <course>187.93</course>
  <speed>0.3420526275297414</speed>
  <fix>3d</fix>
</trkpt>
<trkpt lat="-27.274434" lon="151.2900647">
  <ele>349.56</ele>
  <time>2026-09-01T19:53:46Z</time>
  <course>187.92</course>
  <speed>0.35171010790137947</speed>
  <fix>3d</fix>
</trkpt>
<trkpt lat="-27.2744334" lon="151.290065">
  <ele>349.69</ele>
  <time>2026-09-01T19:53:46Z</time>
  <course>196.32</course>
  <speed>0.33</speed>
  <fix>3d</fix>
</trkpt>
<trkpt lat="-27.274434" lon="151.2900647">
  <ele>349.55</ele>
  <time>2026-09-01T19:53:46Z</time>
  <course>187.92</course>
  <speed>0.35171010790137947</speed>
  <fix>3d</fix>
</trkpt>
<trkpt lat="-27.2744343" lon="151.2900646">
  <ele>349.5</ele>
  <time>2026-09-01T19:53:46Z</time>
  <course>187.91</course>
  <speed>0.36138621999185305</speed>
  <fix>3d</fix>
</trkpt>
<trkpt lat="-27.2744334" lon="151.290065">
  <ele>349.69</ele>
  <time>2026-09-01T19:53:46Z</time>
  <course>196.32</course>
  <speed>0.33</speed>
  <fix>3d</fix>
</trkpt>
<trkpt lat="-27.2744344" lon="151.2900646">
  <ele>349.48</ele>
  <time>2026-09-01T19:53:46Z</time>
  <course>187.91</course>
  <speed>0.36138621999185305</speed>
  <fix>3d</fix>
</trkpt>
<trkpt lat="-27.2744346" lon="151.2900646">
  <ele>349.44</ele>
  <time>2026-09-01T19:53:46Z</time>
  <course>187.9</course>
  <speed>0.37107950630558945</speed>
  <fix>3d</fix>
</trkpt>
<trkpt lat="-27.274434" lon="151.2900647">
  <ele>349.56</ele>
  <time>2026-09-01T19:53:46Z</time>
  <course>195.85</course>
  <speed>0.35</speed>
  <fix>3d</fix>
</trkpt>
<trkpt lat="-27.2744347" lon="151.2900646">
  <ele>349.42</ele>
  <time>2026-09-01T19:53:46Z</time>
  <course>187.9</course>
  <speed>0.37107950630558945</speed>
  <fix>3d</fix>
</trkpt>
<trkpt lat="-27.274435" lon="151.2900645">
  <ele>349.38</ele>
  <time>2026-09-01T19:53:46Z</time>
  <course>187.89</course>
  <speed>0.37107950630558945</speed>
  <fix>3d</fix>
</trkpt>
<trkpt lat="-27.274434" lon="151.2900647">
  <ele>349.56</ele>
  <time>2026-09-01T19:53:46Z</time>
  <course>195.85</course>
  <speed>0.35</speed>
  <fix>3d</fix>
</trkpt>
<trkpt lat="-27.274435" lon="151.2900645">
  <ele>349.38</ele>
  <time>2026-09-01T19:53:46Z</time>
  <course>187.89</course>
  <speed>0.37107950630558945</speed>
  <fix>3d</fix>
</trkpt>
<trkpt lat="-27.2744353" lon="151.2900644">
  <ele>349.32</ele>
  <time>2026-09-01T19:53:46Z</time>
  <course>187.88</course>
  <speed>0.38078865529319544</speed>
  <fix>3d</fix>
</trkpt>
<trkpt lat="-27.2744346" lon="151.2900646">
  <ele>349.44</ele>
  <time>2026-09-01T19:53:46Z</time>
  <course>195.34</course>
  <speed>0.37</speed>
  <fix>3d</fix>
</trkpt>
<trkpt lat="-27.2744353" lon="151.2900644">
  <ele>349.32</ele>
  <time>2026-09-01T19:53:46Z</time>
  <course>187.88</course>
  <speed>0.38078865529319544</speed>
  <fix>3d</fix>
</trkpt>
<trkpt lat="-27.2744356" lon="151.2900642">
  <ele>349.27</ele>
  <time>2026-09-01T19:53:46Z</time>
  <course>187.88</course>
  <speed>0.38078865529319544</speed>
  <fix>3d</fix>
</trkpt>
<trkpt lat="-27.2744346" lon="151.2900646">
  <ele>349.44</ele>
  <time>2026-09-01T19:53:46Z</time>
  <course>195.34</course>
  <speed>0.37</speed>
  <fix>3d</fix>
</trkpt>
<trkpt lat="-27.2744359" lon="151.2900642">
  <ele>349.22</ele>
  <time>2026-09-01T19:53:46Z</time>
  <course>187.88</course>
  <speed>0.38078865529319544</speed>
  <fix>3d</fix>
</trkpt>
<trkpt lat="-27.274436" lon="151.2900642">
  <ele>349.21</ele>
  <time>2026-09-01T19:53:46Z</time>
  <course>187.88</course>
  <speed>0.38078865529319544</speed>
  <fix>3d</fix>
</trkpt>
<trkpt lat="-27.2744352" lon="151.2900644">
  <ele>349.32</ele>
  <time>2026-09-01T19:53:46Z</time>
  <course>194.82</course>
  <speed>0.38</speed>
  <fix>3d</fix>
</trkpt>
<trkpt lat="-27.274436" lon="151.2900642">
  <ele>349.2</ele>
  <time>2026-09-01T19:53:46Z</time>
  <course>187.88</course>
  <speed>0.38078865529319544</speed>
  <fix>3d</fix>
</trkpt>
<trkpt lat="-27.2744363" lon="151.2900641">
  <ele>349.15</ele>
  <time>2026-09-01T19:53:46Z</time>
  <course>187.88</course>
  <speed>0.38078865529319544</speed>
  <fix>3d</fix>
</trkpt>
<trkpt lat="-27.2744352" lon="151.2900644">
  <ele>349.32</ele>
  <time>2026-09-01T19:53:46Z</time>
  <course>194.82</course>
  <speed>0.38</speed>
  <fix>3d</fix>
</trkpt>
<trkpt lat="-27.2744363" lon="151.2900641">
  <ele>349.15</ele>
  <time>2026-09-01T19:53:46Z</time>
  <course>187.88</course>
  <speed>0.38078865529319544</speed>
  <fix>3d</fix>
</trkpt>
<trkpt lat="-27.2744366" lon="151.290064">
  <ele>349.1</ele>
  <time>2026-09-01T19:53:46Z</time>
  <course>187.88</course>
  <speed>0.38078865529319544</speed>
  <fix>3d</fix>
</trkpt>
<trkpt lat="-27.2744359" lon="151.2900642">
  <ele>349.21</ele>
  <time>2026-09-01T19:53:46Z</time>
  <course>194.34</course>
  <speed>0.38</speed>
  <fix>3d</fix>
</trkpt>
<trkpt lat="-27.2744367" lon="151.290064">
  <ele>349.09</ele>
  <time>2026-09-01T19:53:46Z</time>
  <course>187.89</course>
  <speed>0.38078865529319544</speed>
  <fix>3d</fix>
</trkpt>
<trkpt lat="-27.274437" lon="151.2900639">
  <ele>349.05</ele>
  <time>2026-09-01T19:53:46Z</time>
  <course>187.89</course>
  <speed>0.38078865529319544</speed>
  <fix>3d</fix>
</trkpt>
<trkpt lat="-27.2744359" lon="151.2900642">
  <ele>349.21</ele>
  <time>2026-09-01T19:53:46Z</time>
  <course>194.34</course>
  <speed>0.38</speed>
  <fix>3d</fix>
</trkpt>
<trkpt lat="-27.274437" lon="151.2900639">
  <ele>349.04</ele>
  <time>2026-09-01T19:53:46Z</time>
  <course>187.89</course>
  <speed>0.38078865529319544</speed>
  <fix>3d</fix>
</trkpt>
<trkpt lat="-27.2744373" lon="151.2900639">
  <ele>348.99</ele>
  <time>2026-09-01T19:53:46Z</time>
  <course>187.9</course>
  <speed>0.3687817782917155</speed>
  <fix>3d</fix>
</trkpt>
<trkpt lat="-27.2744366" lon="151.290064">
  <ele>349.1</ele>
  <time>2026-09-01T19:53:46Z</time>
  <course>193.86</course>
  <speed>0.38</speed>
  <fix>3d</fix>
</trkpt>
<trkpt lat="-27.2744373" lon="151.2900637">
  <ele>348.99</ele>
  <time>2026-09-01T19:53:46Z</time>
  <course>187.9</course>
  <speed>0.3687817782917155</speed>
  <fix>3d</fix>
</trkpt>
<trkpt lat="-27.2744376" lon="151.2900637">
  <ele>348.94</ele>
  <time>2026-09-01T19:53:46Z</time>
  <course>187.91</course>
  <speed>0.3687817782917155</speed>
  <fix>3d</fix>
</trkpt>
<trkpt lat="-27.2744366" lon="151.290064">
  <ele>349.1</ele>
  <time>2026-09-01T19:53:46Z</time>
  <course>193.86</course>
  <speed>0.38</speed>
  <fix>3d</fix>
</trkpt>
<trkpt lat="-27.2744377" lon="151.2900637">
  <ele>348.93</ele>
  <time>2026-09-01T19:53:46Z</time>
  <course>187.91</course>
  <speed>0.3687817782917155</speed>
  <fix>3d</fix>
</trkpt>
<trkpt lat="-27.274438" lon="151.2900637">
  <ele>348.89</ele>
  <time>2026-09-01T19:53:46Z</time>
  <course>187.91</course>
  <speed>0.366742416417845</speed>
  <fix>3d</fix>
</trkpt>
<trkpt lat="-27.2744373" lon="151.2900638">
  <ele>348.99</ele>
  <time>2026-09-01T19:53:46Z</time>
  <course>193.26</course>
  <speed>0.37</speed>
  <fix>3d</fix>
</trkpt>
<trkpt lat="-27.274438" lon="151.2900637">
  <ele>348.88</ele>
  <time>2026-09-01T19:53:46Z</time>
  <course>187.91</course>
  <speed>0.366742416417845</speed>
  <fix>3d</fix>
</trkpt>
<trkpt lat="-27.2744383" lon="151.2900636">
  <ele>348.84</ele>
  <time>2026-09-01T19:53:46Z</time>
  <course>187.9</course>
  <speed>0.366742416417845</speed>
  <fix>3d</fix>
</trkpt>
<trkpt lat="-27.2744373" lon="151.2900638">
  <ele>348.99</ele>
  <time>2026-09-01T19:53:46Z</time>
  <course>193.26</course>
  <speed>0.37</speed>
  <fix>3d</fix>
</trkpt>
<trkpt lat="-27.2744385" lon="151.2900636">
  <ele>348.81</ele>
  <time>2026-09-01T19:53:46Z</time>
  <course>187.9</course>
  <speed>0.366742416417845</speed>
  <fix>3d</fix>
</trkpt>
<trkpt lat="-27.2744386" lon="151.2900635">
  <ele>348.79</ele>
  <time>2026-09-01T19:53:46Z</time>
  <course>187.89</course>
  <speed>0.3649657518178932</speed>
  <fix>3d</fix>
</trkpt>
<trkpt lat="-27.2744379" lon="151.2900637">
  <ele>348.89</ele>
  <time>2026-09-01T19:53:46Z</time>
  <course>192.26</course>
  <speed>0.37</speed>
  <fix>3d</fix>
</trkpt>
<trkpt lat="-27.2744389" lon="151.2900635">
  <ele>348.75</ele>
  <time>2026-09-01T19:53:46Z</time>
  <course>187.88</course>
  <speed>0.35510561809129404</speed>
  <fix>3d</fix>
</trkpt>
<trkpt lat="-27.2744389" lon="151.2900635">
  <ele>348.74</ele>
  <time>2026-09-01T19:53:46Z</time>
  <course>187.88</course>
  <speed>0.35510561809129404</speed>
  <fix>3d</fix>
</trkpt>
<trkpt lat="-27.2744379" lon="151.2900637">
  <ele>348.89</ele>
  <time>2026-09-01T19:53:46Z</time>
  <course>192.26</course>
  <speed>0.37</speed>
  <fix>3d</fix>
</trkpt>
<trkpt lat="-27.274439" lon="151.2900633">
  <ele>348.72</ele>
  <time>2026-09-01T19:53:46Z</time>
  <course>187.88</course>
  <speed>0.35510561809129404</speed>
  <fix>3d</fix>
</trkpt>
<trkpt lat="-27.2744393" lon="151.2900633">
  <ele>348.69</ele>
  <time>2026-09-01T19:53:46Z</time>
  <course>187.87</course>
  <speed>0.34365680554879163</speed>
  <fix>3d</fix>
</trkpt>
<trkpt lat="-27.2744386" lon="151.2900635">
  <ele>348.78</ele>
  <time>2026-09-01T19:53:46Z</time>
  <course>191.04</course>
  <speed>0.36</speed>
  <fix>3d</fix>
</trkpt>
<trkpt lat="-27.2744393" lon="151.2900633">
  <ele>348.67</ele>
  <time>2026-09-01T19:53:46Z</time>
  <course>187.87</course>
  <speed>0.33376638536557274</speed>
  <fix>3d</fix>
</trkpt>
<trkpt lat="-27.2744396" lon="151.2900632">
  <ele>348.64</ele>
  <time>2026-09-01T19:53:46Z</time>
  <course>187.86</course>
  <speed>0.3238826948140329</speed>
  <fix>3d</fix>
</trkpt>
<trkpt lat="-27.2744386" lon="151.2900635">
  <ele>348.78</ele>
  <time>2026-09-01T19:53:46Z</time>
  <course>191.04</course>
  <speed>0.36</speed>
  <fix>3d</fix>
</trkpt>
<trkpt lat="-27.2744396" lon="151.2900632">
  <ele>348.63</ele>
  <time>2026-09-01T19:53:46Z</time>
  <course>187.86</course>
  <speed>0.3238826948140329</speed>
  <fix>3d</fix>
</trkpt>
<trkpt lat="-27.2744398" lon="151.2900632">
  <ele>348.59</ele>
  <time>2026-09-01T19:53:46Z</time>
  <course>187.86</course>
  <speed>0.3026549190084311</speed>
  <fix>3d</fix>
</trkpt>
<trkpt lat="-27.2744392" lon="151.2900634">
  <ele>348.69</ele>
  <time>2026-09-01T19:53:46Z</time>
  <course>189.99</course>
  <speed>0.34</speed>
  <fix>3d</fix>
</trkpt>
<trkpt lat="-27.2744399" lon="151.2900632">
  <ele>348.57</ele>
  <time>2026-09-01T19:53:46Z</time>
  <course>187.86</course>
  <speed>0.3026549190084311</speed>
  <fix>3d</fix>
</trkpt>
<trkpt lat="-27.2744401" lon="151.2900632">
  <ele>348.54</ele>
  <time>2026-09-01T19:53:46Z</time>
  <course>187.85</course>
  <speed>0.282842712474619</speed>
  <fix>3d</fix>
</trkpt>
<trkpt lat="-27.2744392" lon="151.2900634">
  <ele>348.69</ele>
  <time>2026-09-01T19:53:46Z</time>
  <course>189.99</course>
  <speed>0.34</speed>
  <fix>3d</fix>
</trkpt>
<trkpt lat="-27.2744401" lon="151.2900632">
  <ele>348.53</ele>
  <time>2026-09-01T19:53:46Z</time>
  <course>187.85</course>
  <speed>0.282842712474619</speed>
  <fix>3d</fix>
</trkpt>
<trkpt lat="-27.2744404" lon="151.2900632">
  <ele>348.49</ele>
  <time>2026-09-01T19:53:46Z</time>
  <course>187.86</course>
  <speed>0.261725046566048</speed>
  <fix>3d</fix>
</trkpt>
<trkpt lat="-27.2744398" lon="151.2900632">
  <ele>348.59</ele>
  <time>2026-09-01T19:53:46Z</time>
  <course>189.04</course>
  <speed>0.31</speed>
  <fix>3d</fix>
</trkpt>
<trkpt lat="-27.2744404" lon="151.2900632">
  <ele>348.47</ele>
  <time>2026-09-01T19:53:46Z</time>
  <course>187.86</course>
  <speed>0.25179356624028343</speed>
  <fix>3d</fix>
</trkpt>
<trkpt lat="-27.2744406" lon="151.2900632">
  <ele>348.44</ele>
  <time>2026-09-01T19:53:46Z</time>
  <course>187.86</course>
  <speed>0.24186773244895649</speed>
  <fix>3d</fix>
</trkpt>
<trkpt lat="-27.2744398" lon="151.2900632">
  <ele>348.59</ele>
  <time>2026-09-01T19:53:46Z</time>
  <course>189.04</course>
  <speed>0.31</speed>
  <fix>3d</fix>
</trkpt>
<trkpt lat="-27.2744406" lon="151.2900632">
  <ele>348.43</ele>
  <time>2026-09-01T19:53:46Z</time>
  <course>187.86</course>
  <speed>0.24186773244895649</speed>
  <fix>3d</fix>
</trkpt>
<trkpt lat="-27.2744408" lon="151.2900631">
  <ele>348.39</ele>
  <time>2026-09-01T19:53:46Z</time>
  <course>187.87</course>
  <speed>0.22090722034374521</speed>
  <fix>3d</fix>
</trkpt>
<trkpt lat="-27.2744403" lon="151.2900632">
  <ele>348.49</ele>
  <time>2026-09-01T19:53:46Z</time>
  <course>188.02</course>
  <speed>0.27</speed>
  <fix>3d</fix>
</trkpt>
<trkpt lat="-27.2744408" lon="151.2900631">
  <ele>348.38</ele>
  <time>2026-09-01T19:53:46Z</time>
  <course>187.87</course>
  <speed>0.22090722034374521</speed>
  <fix>3d</fix>
</trkpt>
<trkpt lat="-27.274441" lon="151.2900631">
  <ele>348.34</ele>
  <time>2026-09-01T19:53:46Z</time>
  <course>187.86</course>
  <speed>0.2009975124224178</speed>
  <fix>3d</fix>
</trkpt>
<trkpt lat="-27.2744403" lon="151.2900632">
  <ele>348.49</ele>
  <time>2026-09-01T19:53:46Z</time>
  <course>188.02</course>
  <speed>0.27</speed>
  <fix>3d</fix>
</trkpt>
<trkpt lat="-27.274441" lon="151.2900631">
  <ele>348.32</ele>
  <time>2026-09-01T19:53:46Z</time>
  <course>187.86</course>
  <speed>0.191049731745428</speed>
  <fix>3d</fix>
</trkpt>
<trkpt lat="-27.2744412" lon="151.2900631">
  <ele>348.29</ele>
  <time>2026-09-01T19:53:46Z</time>
  <course>187.86</course>
  <speed>0.17029386365926402</speed>
  <fix>3d</fix>
</trkpt>
<trkpt lat="-27.2744408" lon="151.2900631">
  <ele>348.39</ele>
  <time>2026-09-01T19:53:46Z</time>
  <course>186.92</course>
  <speed>0.22</speed>
  <fix>3d</fix>
</trkpt>
<trkpt lat="-27.2744412" lon="151.2900631">
  <ele>348.27</ele>
  <time>2026-09-01T19:53:46Z</time>
  <course>187.86</course>
  <speed>0.17029386365926402</speed>
  <fix>3d</fix>
</trkpt>
<trkpt lat="-27.2744413" lon="151.2900631">
  <ele>348.24</ele>
  <time>2026-09-01T19:53:46Z</time>
  <course>187.85</course>
  <speed>0.15033296378372907</speed>
  <fix>3d</fix>
</trkpt>
<trkpt lat="-27.2744408" lon="151.2900631">
  <ele>348.39</ele>
  <time>2026-09-01T19:53:46Z</time>
  <course>186.92</course>
  <speed>0.22</speed>
  <fix>3d</fix>
</trkpt>
<trkpt lat="-27.2744414" lon="151.2900631">
  <ele>348.22</ele>
  <time>2026-09-01T19:53:46Z</time>
  <course>187.85</course>
  <speed>0.140356688476182</speed>
  <fix>3d</fix>
</trkpt>
<trkpt lat="-27.2744414" lon="151.2900631">
  <ele>348.19</ele>
  <time>2026-09-01T19:53:46Z</time>
  <course>187.85</course>
  <speed>0.13</speed>
  <fix>3d</fix>
</trkpt>
<trkpt lat="-27.2744411" lon="151.2900631">
  <ele>348.28</ele>
  <time>2026-09-01T19:53:46Z</time>
  <course>185.56</course>
  <speed>0.18</speed>
  <fix>3d</fix>
</trkpt>
<trkpt lat="-27.2744415" lon="151.2900631">
  <ele>348.17</ele>
  <time>2026-09-01T19:53:46Z</time>
  <course>187.84</course>
  <speed>0.12</speed>
  <fix>3d</fix>
</trkpt>
<trkpt lat="-27.2744415" lon="151.2900631">
  <ele>348.13</ele>
  <time>2026-09-01T19:53:46Z</time>
  <course>187.84</course>
  <speed>0.11</speed>
  <fix>3d</fix>
</trkpt>
<trkpt lat="-27.2744411" lon="151.2900631">
  <ele>348.28</ele>
  <time>2026-09-01T19:53:46Z</time>
  <course>185.56</course>
  <speed>0.18</speed>
  <fix>3d</fix>
</trkpt>
<trkpt lat="-27.2744416" lon="151.2900631">
  <ele>348.12</ele>
  <time>2026-09-01T19:53:46Z</time>
  <course>187.84</course>
  <speed>0.1</speed>
  <fix>3d</fix>
</trkpt>
<trkpt lat="-27.2744416" lon="151.2900631">
  <ele>348.08</ele>
  <time>2026-09-01T19:53:46Z</time>
  <course>187.83</course>
  <speed>0.09</speed>
  <fix>3d</fix>
</trkpt>
<trkpt lat="-27.2744414" lon="151.2900631">
  <ele>348.19</ele>
  <time>2026-09-01T19:53:46Z</time>
  <course>183.52</course>
  <speed>0.13</speed>
  <fix>3d</fix>
</trkpt>
<trkpt lat="-27.2744416" lon="151.2900631">
  <ele>348.08</ele>
  <time>2026-09-01T19:53:46Z</time>
  <course>187.83</course>
  <speed>0.09</speed>
  <fix>3d</fix>
</trkpt>
<trkpt lat="-27.2744416" lon="151.2900631">
  <ele>348.03</ele>
  <time>2026-09-01T19:53:46Z</time>
  <course>187.82</course>
  <speed>0.07</speed>
  <fix>3d</fix>
</trkpt>
<trkpt lat="-27.2744414" lon="151.2900631">
  <ele>348.19</ele>
  <time>2026-09-01T19:53:46Z</time>
  <course>183.52</course>
  <speed>0.13</speed>
  <fix>3d</fix>
</trkpt>
<trkpt lat="-27.2744416" lon="151.2900631">
  <ele>348.02</ele>
  <time>2026-09-01T19:53:46Z</time>
  <course>187.82</course>
  <speed>0.06</speed>
  <fix>3d</fix>
</trkpt>
<trkpt lat="-27.2744418" lon="151.2900631">
  <ele>347.98</ele>
  <time>2026-09-01T19:53:46Z</time>
  <course>187.82</course>
  <speed>0.05</speed>
  <fix>3d</fix>
</trkpt>
<trkpt lat="-27.2744415" lon="151.2900631">
  <ele>348.09</ele>
  <time>2026-09-01T19:53:46Z</time>
  <course>179.9</course>
  <speed>0.09</speed>
  <fix>3d</fix>
</trkpt>
<trkpt lat="-27.2744418" lon="151.2900631">
  <ele>347.96</ele>
  <time>2026-09-01T19:53:46Z</time>
  <course>187.82</course>
  <speed>0.04</speed>
  <fix>3d</fix>
</trkpt>
<trkpt lat="-27.2744418" lon="151.2900631">
  <ele>347.93</ele>
  <time>2026-09-01T19:53:46Z</time>
  <course>187.81</course>
  <speed>0.0316227766016838</speed>
  <fix>3d</fix>
</trkpt>
<trkpt lat="-27.2744415" lon="151.2900631">
  <ele>348.09</ele>
  <time>2026-09-01T19:53:46Z</time>
  <course>179.9</course>
  <speed>0.09</speed>
  <fix>3d</fix>
</trkpt>
<trkpt lat="-27.2744418" lon="151.2900631">
  <ele>347.91</ele>
  <time>2026-09-01T19:53:46Z</time>
  <course>187.81</course>
  <speed>0.022360679774997897</speed>
  <fix>3d</fix>
</trkpt>
<trkpt lat="-27.2744418" lon="151.2900631">
  <ele>347.88</ele>
  <time>2026-09-01T19:53:46Z</time>
  <course>187.8</course>
  <speed>0.01414213562373095</speed>
  <fix>3d</fix>
</trkpt>
<trkpt lat="-27.2744417" lon="151.2900631">
  <ele>347.98</ele>
  <time>2026-09-01T19:53:46Z</time>
  <course>171.8</course>
  <speed>0.05</speed>
  <fix>3d</fix>
</trkpt>
<trkpt lat="-27.2744418" lon="151.2900631">
  <ele>347.86</ele>
  <time>2026-09-01T19:53:46Z</time>
  <course>187.79</course>
  <speed>0.01</speed>
  <fix>3d</fix>
</trkpt>
<trkpt lat="-27.2744418" lon="151.2900631">
  <ele>347.83</ele>
  <time>2026-09-01T19:53:46Z</time>
  <course>187.77</course>
  <speed>0.01</speed>
  <fix>3d</fix>
</trkpt>
<trkpt lat="-27.2744417" lon="151.2900631">
  <ele>347.98</ele>
  <time>2026-09-01T19:53:46Z</time>
  <course>171.8</course>
  <speed>0.05</speed>
  <fix>3d</fix>
</trkpt>
<trkpt lat="-27.2744418" lon="151.2900631">
  <ele>347.82</ele>
  <time>2026-09-01T19:53:46Z</time>
  <course>187.76</course>
  <speed>0.01</speed>
  <fix>3d</fix>
</trkpt>
<trkpt lat="-27.2744418" lon="151.2900631">
  <ele>347.78</ele>
  <time>2026-09-01T19:53:46Z</time>
  <course>187.72</course>
  <speed>0.01414213562373095</speed>
  <fix>3d</fix>
</trkpt>
<trkpt lat="-27.2744418" lon="151.2900631">
  <ele>347.88</ele>
  <time>2026-09-01T19:53:46Z</time>
  <course>142.28</course>
  <speed>0.02</speed>
  <fix>3d</fix>
</trkpt>
<trkpt lat="-27.2744418" lon="151.2900631">
  <ele>347.77</ele>
  <time>2026-09-01T19:53:46Z</time>
  <course>187.69</course>
  <speed>0.022360679774997897</speed>
  <fix>3d</fix>
</trkpt>
<trkpt lat="-27.2744418" lon="151.2900631">
  <ele>347.73</ele>
  <time>2026-09-01T19:53:46Z</time>
  <course>187.64</course>
  <speed>0.0316227766016838</speed>
  <fix>3d</fix>
</trkpt>
<trkpt lat="-27.2744418" lon="151.2900631">
  <ele>347.88</ele>
  <time>2026-09-01T19:53:46Z</time>
  <course>142.28</course>
  <speed>0.02</speed>
  <fix>3d</fix>
</trkpt>
<trkpt lat="-27.2744418" lon="151.2900631">
  <ele>347.72</ele>
  <time>2026-09-01T19:53:46Z</time>
  <course>187.62</course>
  <speed>0.0316227766016838</speed>
  <fix>3d</fix>
</trkpt>
<trkpt lat="-27.2744418" lon="151.2900631">
  <ele>347.68</ele>
  <time>2026-09-01T19:53:46Z</time>
  <course>187.56</course>
  <speed>0.0412310562561766</speed>
  <fix>3d</fix>
</trkpt>
<trkpt lat="-27.2744418" lon="151.2900631">
  <ele>347.78</ele>
  <time>2026-09-01T19:53:46Z</time>
  <course>41.89</course>
  <speed>0.02</speed>
  <fix>3d</fix>
</trkpt>
<trkpt lat="-27.2744418" lon="151.2900631">
  <ele>347.67</ele>
  <time>2026-09-01T19:53:46Z</time>
  <course>187.53</course>
  <speed>0.05099019513592785</speed>
  <fix>3d</fix>
</trkpt>
<trkpt lat="-27.2744418" lon="151.2900631">
  <ele>347.63</ele>
  <time>2026-09-01T19:53:46Z</time>
  <course>187.47</course>
  <speed>0.06082762530298219</speed>
  <fix>3d</fix>
</trkpt>
<trkpt lat="-27.2744418" lon="151.2900631">
  <ele>347.78</ele>
  <time>2026-09-01T19:53:46Z</time>
  <course>41.89</course>
  <speed>0.02</speed>
  <fix>3d</fix>
</trkpt>
<trkpt lat="-27.2744418" lon="151.2900631">
  <ele>347.61</ele>
  <time>2026-09-01T19:53:46Z</time>
  <course>187.45</course>
  <speed>0.06082762530298219</speed>
  <fix>3d</fix>
</trkpt>
<trkpt lat="-27.2744418" lon="151.2900631">
  <ele>347.58</ele>
  <time>2026-09-01T19:53:46Z</time>
  <course>187.41</course>
  <speed>0.07071067811865475</speed>
  <fix>3d</fix>
</trkpt>
<trkpt lat="-27.2744418" lon="151.2900631">
  <ele>347.68</ele>
  <time>2026-09-01T19:53:46Z</time>
  <course>17.46</course>
  <speed>0.04</speed>
  <fix>3d</fix>
</trkpt>
<trkpt lat="-27.2744416" lon="151.2900631">
  <ele>347.56</ele>
  <time>2026-09-01T19:53:46Z</time>
  <course>187.39</course>
  <speed>0.07071067811865475</speed>
  <fix>3d</fix>
</trkpt>
<trkpt lat="-27.2744416" lon="151.2900631">
  <ele>347.53</ele>
  <time>2026-09-01T19:53:46Z</time>
  <course>187.36</course>
  <speed>0.08062257748298549</speed>
  <fix>3d</fix>
</trkpt>
<trkpt lat="-27.2744418" lon="151.2900631">
  <ele>347.68</ele>
  <time>2026-09-01T19:53:47Z</time>
  <course>17.46</course>
  <speed>0.04</speed>
  <fix>3d</fix>
</trkpt>
<trkpt lat="-27.2744416" lon="151.2900631">
  <ele>347.53</ele>
  <time>2026-09-01T19:53:47Z</time>
  <course>187.36</course>
  <speed>0.08062257748298549</speed>
  <fix>3d</fix>
</trkpt>
<trkpt lat="-27.2744416" lon="151.2900631">
  <ele>347.48</ele>
  <time>2026-09-01T19:53:47Z</time>
  <course>187.34</course>
  <speed>0.09055385138137417</speed>
  <fix>3d</fix>
</trkpt>
<trkpt lat="-27.2744417" lon="151.2900631">
  <ele>347.58</ele>
  <time>2026-09-01T19:53:47Z</time>
  <course>10.96</course>
  <speed>0.07</speed>
  <fix>3d</fix>
</trkpt>
<trkpt lat="-27.2744416" lon="151.2900631">
  <ele>347.47</ele>
  <time>2026-09-01T19:53:47Z</time>
  <course>187.34</course>
  <speed>0.09055385138137417</speed>
  <fix>3d</fix>
</trkpt>
<trkpt lat="-27.2744415" lon="151.2900631">
  <ele>347.43</ele>
  <time>2026-09-01T19:53:47Z</time>
  <course>187.33</course>
  <speed>0.1004987562112089</speed>
  <fix>3d</fix>
</trkpt>
<trkpt lat="-27.2744417" lon="151.2900631">
  <ele>347.58</ele>
  <time>2026-09-01T19:53:47Z</time>
  <course>10.96</course>
  <speed>0.07</speed>
  <fix>3d</fix>
</trkpt>
<trkpt lat="-27.2744415" lon="151.2900631">
  <ele>347.41</ele>
  <time>2026-09-01T19:53:47Z</time>
  <course>187.33</course>
  <speed>0.1004987562112089</speed>
  <fix>3d</fix>
</trkpt>
<trkpt lat="-27.2744414" lon="151.2900631">
  <ele>347.38</ele>
  <time>2026-09-01T19:53:47Z</time>
  <course>187.33</course>
  <speed>0.11045361017187261</speed>
  <fix>3d</fix>
</trkpt>
<trkpt lat="-27.2744415" lon="151.2900631">
  <ele>347.47</ele>
  <time>2026-09-01T19:53:47Z</time>
  <course>8.51</course>
  <speed>0.09</speed>
  <fix>3d</fix>
</trkpt>
<trkpt lat="-27.2744414" lon="151.2900631">
  <ele>347.36</ele>
  <time>2026-09-01T19:53:47Z</time>
  <course>187.34</course>
  <speed>0.11045361017187261</speed>
  <fix>3d</fix>
</trkpt>
<trkpt lat="-27.2744413" lon="151.2900632">
  <ele>347.33</ele>
  <time>2026-09-01T19:53:47Z</time>
  <course>187.35</course>
  <speed>0.12041594578792296</speed>
  <fix>3d</fix>
</trkpt>
<trkpt lat="-27.2744415" lon="151.2900631">
  <ele>347.47</ele>
  <time>2026-09-01T19:53:47Z</time>
  <course>8.51</course>
  <speed>0.09</speed>
  <fix>3d</fix>
</trkpt>
<trkpt lat="-27.2744413" lon="151.2900632">
  <ele>347.31</ele>
  <time>2026-09-01T19:53:47Z</time>
  <course>187.36</course>
  <speed>0.12041594578792296</speed>
  <fix>3d</fix>
</trkpt>
<trkpt lat="-27.2744412" lon="151.2900632">
  <ele>347.28</ele>
  <time>2026-09-01T19:53:47Z</time>
  <course>187.38</course>
  <speed>0.12041594578792296</speed>
  <fix>3d</fix>
</trkpt>
<trkpt lat="-27.2744414" lon="151.2900631">
  <ele>347.38</ele>
  <time>2026-09-01T19:53:47Z</time>
  <course>7.37</course>
  <speed>0.11</speed>
  <fix>3d</fix>
</trkpt>
<trkpt lat="-27.2744412" lon="151.2900632">
  <ele>347.26</ele>
  <time>2026-09-01T19:53:47Z</time>
  <course>187.39</course>
  <speed>0.130384048104053</speed>
  <fix>3d</fix>
</trkpt>
<trkpt lat="-27.2744411" lon="151.2900632">
  <ele>347.23</ele>
  <time>2026-09-01T19:53:47Z</time>
  <course>187.42</course>
  <speed>0.130384048104053</speed>
  <fix>3d</fix>
</trkpt>
<trkpt lat="-27.2744414" lon="151.2900631">
  <ele>347.38</ele>
  <time>2026-09-01T19:53:47Z</time>
  <course>7.37</course>
  <speed>0.11</speed>
  <fix>3d</fix>
</trkpt>
<trkpt lat="-27.274441" lon="151.2900632">
  <ele>347.21</ele>
  <time>2026-09-01T19:53:47Z</time>
  <course>187.44</course>
  <speed>0.130384048104053</speed>
  <fix>3d</fix>
</trkpt>
<trkpt lat="-27.274441" lon="151.2900632">
  <ele>347.18</ele>
  <time>2026-09-01T19:53:47Z</time>
  <course>187.46</course>
  <speed>0.130384048104053</speed>
  <fix>3d</fix>
</trkpt>
<trkpt lat="-27.2744412" lon="151.2900632">
  <ele>347.28</ele>
  <time>2026-09-01T19:53:47Z</time>
  <course>6.76</course>
  <speed>0.12</speed>
  <fix>3d</fix>
</trkpt>
<trkpt lat="-27.2744409" lon="151.2900632">
  <ele>347.16</ele>
  <time>2026-09-01T19:53:47Z</time>
  <course>187.48</course>
  <speed>0.130384048104053</speed>
  <fix>3d</fix>
</trkpt>
<trkpt lat="-27.2744408" lon="151.2900632">
  <ele>347.13</ele>
  <time>2026-09-01T19:53:47Z</time>
  <course>187.51</course>
  <speed>0.140356688476182</speed>
  <fix>3d</fix>
</trkpt>
<trkpt lat="-27.2744412" lon="151.2900632">
  <ele>347.28</ele>
  <time>2026-09-01T19:53:47Z</time>
  <course>6.76</course>
  <speed>0.12</speed>
  <fix>3d</fix>
</trkpt>
<trkpt lat="-27.2744408" lon="151.2900632">
  <ele>347.11</ele>
  <time>2026-09-01T19:53:47Z</time>
  <course>187.53</course>
  <speed>0.140356688476182</speed>
  <fix>3d</fix>
</trkpt>
<trkpt lat="-27.2744407" lon="151.2900632">
  <ele>347.08</ele>
  <time>2026-09-01T19:53:47Z</time>
  <course>187.54</course>
  <speed>0.140356688476182</speed>
  <fix>3d</fix>
</trkpt>
<trkpt lat="-27.2744409" lon="151.2900632">
  <ele>347.18</ele>
  <time>2026-09-01T19:53:47Z</time>
  <course>6.64</course>
  <speed>0.13</speed>
  <fix>3d</fix>
</trkpt>
<trkpt lat="-27.2744407" lon="151.2900632">
  <ele>347.07</ele>
  <time>2026-09-01T19:53:47Z</time>
  <course>187.55</course>
  <speed>0.140356688476182</speed>
  <fix>3d</fix>
</trkpt>
<trkpt lat="-27.2744406" lon="151.2900632">
  <ele>347.03</ele>
  <time>2026-09-01T19:53:47Z</time>
  <course>187.56</course>
  <speed>0.140356688476182</speed>
  <fix>3d</fix>
</trkpt>
<trkpt lat="-27.2744409" lon="151.2900632">
  <ele>347.18</ele>
  <time>2026-09-01T19:53:47Z</time>
  <course>6.64</course>
  <speed>0.13</speed>
  <fix>3d</fix>
</trkpt>
<trkpt lat="-27.2744405" lon="151.2900632">
  <ele>347.01</ele>
  <time>2026-09-01T19:53:47Z</time>
  <course>187.55</course>
  <speed>0.140356688476182</speed>
  <fix>3d</fix>
</trkpt>
<trkpt lat="-27.2744404" lon="151.2900632">
  <ele>346.98</ele>
  <time>2026-09-01T19:53:47Z</time>
  <course>187.55</course>
  <speed>0.140356688476182</speed>
  <fix>3d</fix>
</trkpt>
<trkpt lat="-27.2744407" lon="151.2900632">
  <ele>347.08</ele>
  <time>2026-09-01T19:53:47Z</time>
  <course>6.67</course>
  <speed>0.14</speed>
  <fix>3d</fix>
</trkpt>
<trkpt lat="-27.2744404" lon="151.2900632">
  <ele>346.98</ele>
  <time>2026-09-01T19:53:47Z</time>
  <course>187.55</course>
  <speed>0.140356688476182</speed>
  <fix>3d</fix>
</trkpt>
<trkpt lat="-27.2744403" lon="151.2900632">
  <ele>346.93</ele>
  <time>2026-09-01T19:53:47Z</time>
  <course>187.53</course>
  <speed>0.140356688476182</speed>
  <fix>3d</fix>
</trkpt>
<trkpt lat="-27.2744407" lon="151.2900632">
  <ele>347.08</ele>
  <time>2026-09-01T19:53:47Z</time>
  <course>6.67</course>
  <speed>0.14</speed>
  <fix>3d</fix>
</trkpt>
<trkpt lat="-27.2744403" lon="151.2900632">
  <ele>346.92</ele>
  <time>2026-09-01T19:53:47Z</time>
  <course>187.53</course>
  <speed>0.140356688476182</speed>
  <fix>3d</fix>
</trkpt>
<trkpt lat="-27.2744402" lon="151.2900632">
  <ele>346.88</ele>
  <time>2026-09-01T19:53:47Z</time>
  <course>187.51</course>
  <speed>0.140356688476182</speed>
  <fix>3d</fix>
</trkpt>
<trkpt lat="-27.2744404" lon="151.2900632">
  <ele>346.97</ele>
  <time>2026-09-01T19:53:47Z</time>
  <course>6.62</course>
  <speed>0.14</speed>
  <fix>3d</fix>
</trkpt>
<trkpt lat="-27.2744401" lon="151.2900632">
  <ele>346.86</ele>
  <time>2026-09-01T19:53:47Z</time>
  <course>187.49</course>
  <speed>0.140356688476182</speed>
  <fix>3d</fix>
</trkpt>
<trkpt lat="-27.27444" lon="151.2900632">
  <ele>346.83</ele>
  <time>2026-09-01T19:53:47Z</time>
  <course>187.48</course>
  <speed>0.140356688476182</speed>
  <fix>3d</fix>
</trkpt>
<trkpt lat="-27.2744404" lon="151.2900632">
  <ele>346.97</ele>
  <time>2026-09-01T19:53:47Z</time>
  <course>6.62</course>
  <speed>0.14</speed>
  <fix>3d</fix>
</trkpt>
<trkpt lat="-27.27444" lon="151.2900632">
  <ele>346.81</ele>
  <time>2026-09-01T19:53:47Z</time>
  <course>187.46</course>
  <speed>0.140356688476182</speed>
  <fix>3d</fix>
</trkpt>
<trkpt lat="-27.2744399" lon="151.2900632">
  <ele>346.78</ele>
  <time>2026-09-01T19:53:47Z</time>
  <course>187.45</course>
  <speed>0.140356688476182</speed>
  <fix>3d</fix>
</trkpt>
<trkpt lat="-27.2744402" lon="151.2900632">
  <ele>346.88</ele>
  <time>2026-09-01T19:53:47Z</time>
  <course>6.6</course>
  <speed>0.14</speed>
  <fix>3d</fix>
</trkpt>
<trkpt lat="-27.2744399" lon="151.2900632">
  <ele>346.76</ele>
  <time>2026-09-01T19:53:47Z</time>
  <course>187.44</course>
  <speed>0.140356688476182</speed>
  <fix>3d</fix>
</trkpt>
<trkpt lat="-27.2744398" lon="151.2900633">
  <ele>346.73</ele>
  <time>2026-09-01T19:53:47Z</time>
  <course>187.43</course>
  <speed>0.140356688476182</speed>
  <fix>3d</fix>
</trkpt>
<trkpt lat="-27.2744402" lon="151.2900632">
  <ele>346.88</ele>
  <time>2026-09-01T19:53:47Z</time>
  <course>6.6</course>
  <speed>0.14</speed>
  <fix>3d</fix>
</trkpt>
<trkpt lat="-27.2744397" lon="151.2900633">
  <ele>346.71</ele>
  <time>2026-09-01T19:53:47Z</time>
  <course>187.42</course>
  <speed>0.140356688476182</speed>
  <fix>3d</fix>
</trkpt>
<trkpt lat="-27.2744397" lon="151.2900633">
  <ele>346.68</ele>
  <time>2026-09-01T19:53:47Z</time>
  <course>187.42</course>
  <speed>0.130384048104053</speed>
  <fix>3d</fix>
</trkpt>
<trkpt lat="-27.2744399" lon="151.2900633">
  <ele>346.78</ele>
  <time>2026-09-01T19:53:47Z</time>
  <course>6.76</course>
  <speed>0.14</speed>
  <fix>3d</fix>
</trkpt>
<trkpt lat="-27.2744396" lon="151.2900633">
  <ele>346.66</ele>
  <time>2026-09-01T19:53:47Z</time>
  <course>187.42</course>
  <speed>0.130384048104053</speed>
  <fix>3d</fix>
</trkpt>
<trkpt lat="-27.2744395" lon="151.2900633">
  <ele>346.63</ele>
  <time>2026-09-01T19:53:47Z</time>
  <course>187.42</course>
  <speed>0.130384048104053</speed>
  <fix>3d</fix>
</trkpt>
<trkpt lat="-27.2744399" lon="151.2900633">
  <ele>346.78</ele>
  <time>2026-09-01T19:53:47Z</time>
  <course>6.76</course>
  <speed>0.14</speed>
  <fix>3d</fix>
</trkpt>
<trkpt lat="-27.2744395" lon="151.2900633">
  <ele>346.61</ele>
  <time>2026-09-01T19:53:47Z</time>
  <course>187.43</course>
  <speed>0.130384048104053</speed>
  <fix>3d</fix>
</trkpt>
<trkpt lat="-27.2744394" lon="151.2900633">
  <ele>346.58</ele>
  <time>2026-09-01T19:53:47Z</time>
  <course>187.44</course>
  <speed>0.130384048104053</speed>
  <fix>3d</fix>
</trkpt>
<trkpt lat="-27.2744396" lon="151.2900633">
  <ele>346.68</ele>
  <time>2026-09-01T19:53:47Z</time>
  <course>7.21</course>
  <speed>0.13</speed>
  <fix>3d</fix>
</trkpt>
<trkpt lat="-27.2744394" lon="151.2900633">
  <ele>346.55</ele>
  <time>2026-09-01T19:53:47Z</time>
  <course>187.44</course>
  <speed>0.12041594578792296</speed>
  <fix>3d</fix>
</trkpt>
<trkpt lat="-27.2744393" lon="151.2900633">
  <ele>346.53</ele>
  <time>2026-09-01T19:53:47Z</time>
  <course>187.45</course>
  <speed>0.12041594578792296</speed>
  <fix>3d</fix>
</trkpt>
<trkpt lat="-27.2744396" lon="151.2900633">
  <ele>346.68</ele>
  <time>2026-09-01T19:53:47Z</time>
  <course>7.21</course>
  <speed>0.13</speed>
  <fix>3d</fix>
</trkpt>
<trkpt lat="-27.2744392" lon="151.2900633">
  <ele>346.49</ele>
  <time>2026-09-01T19:53:47Z</time>
  <course>187.46</course>
  <speed>0.12041594578792296</speed>
  <fix>3d</fix>
</trkpt>
<trkpt lat="-27.2744392" lon="151.2900633">
  <ele>346.48</ele>
  <time>2026-09-01T19:53:47Z</time>
  <course>187.47</course>
  <speed>0.12041594578792296</speed>
  <fix>3d</fix>
</trkpt>
<trkpt lat="-27.2744394" lon="151.2900633">
  <ele>346.58</ele>
  <time>2026-09-01T19:53:47Z</time>
  <course>7.93</course>
  <speed>0.13</speed>
  <fix>3d</fix>
</trkpt>
<trkpt lat="-27.2744391" lon="151.2900635">
  <ele>346.43</ele>
  <time>2026-09-01T19:53:47Z</time>
  <course>187.49</course>
  <speed>0.1118033988749895</speed>
  <fix>3d</fix>
</trkpt>
<trkpt lat="-27.2744394" lon="151.2900633">
  <ele>346.58</ele>
  <time>2026-09-01T19:53:47Z</time>
  <course>7.93</course>
  <speed>0.13</speed>
  <fix>3d</fix>
</trkpt>
<trkpt lat="-27.2744391" lon="151.2900635">
  <ele>346.43</ele>
  <time>2026-09-01T19:53:47Z</time>
  <course>187.49</course>
  <speed>0.1118033988749895</speed>
  <fix>3d</fix>
</trkpt>
<trkpt lat="-27.274439" lon="151.2900635">
  <ele>346.38</ele>
  <time>2026-09-01T19:53:47Z</time>
  <course>187.5</course>
  <speed>0.1118033988749895</speed>
  <fix>3d</fix>
</trkpt>
<trkpt lat="-27.2744391" lon="151.2900634">
  <ele>346.47</ele>
  <time>2026-09-01T19:53:47Z</time>
  <course>9.0</course>
  <speed>0.12</speed>
  <fix>3d</fix>
</trkpt>
<trkpt lat="-27.274439" lon="151.2900635">
  <ele>346.38</ele>
  <time>2026-09-01T19:53:47Z</time>
  <course>187.5</course>
  <speed>0.1118033988749895</speed>
  <fix>3d</fix>
</trkpt>
<trkpt lat="-27.2744389" lon="151.2900635">
  <ele>346.33</ele>
  <time>2026-09-01T19:53:47Z</time>
  <course>187.52</course>
  <speed>0.1019803902718557</speed>
  <fix>3d</fix>
</trkpt>
<trkpt lat="-27.2744391" lon="151.2900634">
  <ele>346.47</ele>
  <time>2026-09-01T19:53:47Z</time>
  <course>9.0</course>
  <speed>0.12</speed>
  <fix>3d</fix>
</trkpt>
<trkpt lat="-27.2744389" lon="151.2900635">
  <ele>346.32</ele>
  <time>2026-09-01T19:53:47Z</time>
  <course>187.52</course>
  <speed>0.1019803902718557</speed>
  <fix>3d</fix>
</trkpt>
<trkpt lat="-27.2744388" lon="151.2900635">
  <ele>346.28</ele>
  <time>2026-09-01T19:53:47Z</time>
  <course>187.53</course>
  <speed>0.1019803902718557</speed>
  <fix>3d</fix>
</trkpt>
<trkpt lat="-27.274439" lon="151.2900635">
  <ele>346.38</ele>
  <time>2026-09-01T19:53:47Z</time>
  <course>10.24</course>
  <speed>0.11</speed>
  <fix>3d</fix>
</trkpt>
<trkpt lat="-27.2744387" lon="151.2900635">
  <ele>346.26</ele>
  <time>2026-09-01T19:53:47Z</time>
  <course>187.54</course>
  <speed>0.1019803902718557</speed>
  <fix>3d</fix>
</trkpt>
<trkpt lat="-27.2744387" lon="151.2900636">
  <ele>346.23</ele>
  <time>2026-09-01T19:53:47Z</time>
  <course>187.54</course>
  <speed>0.09219544457292887</speed>
  <fix>3d</fix>
</trkpt>
<trkpt lat="-27.274439" lon="151.2900635">
  <ele>346.38</ele>
  <time>2026-09-01T19:53:47Z</time>
  <course>10.24</course>
  <speed>0.11</speed>
  <fix>3d</fix>
</trkpt>
<trkpt lat="-27.2744387" lon="151.2900636">
  <ele>346.22</ele>
  <time>2026-09-01T19:53:47Z</time>
  <course>187.54</course>
  <speed>0.09219544457292887</speed>
  <fix>3d</fix>
</trkpt>
<trkpt lat="-27.2744386" lon="151.2900636">
  <ele>346.18</ele>
  <time>2026-09-01T19:53:47Z</time>
  <course>187.55</course>
  <speed>0.09219544457292887</speed>
  <fix>3d</fix>
</trkpt>
<trkpt lat="-27.2744388" lon="151.2900635">
  <ele>346.28</ele>
  <time>2026-09-01T19:53:47Z</time>
  <course>11.55</course>
  <speed>0.1</speed>
  <fix>3d</fix>
</trkpt>
<trkpt lat="-27.2744386" lon="151.2900636">
  <ele>346.16</ele>
  <time>2026-09-01T19:53:47Z</time>
  <course>187.55</course>
  <speed>0.0824621125123532</speed>
  <fix>3d</fix>
</trkpt>
<trkpt lat="-27.2744385" lon="151.2900636">
  <ele>346.13</ele>
  <time>2026-09-01T19:53:47Z</time>
  <course>187.56</course>
  <speed>0.0824621125123532</speed>
  <fix>3d</fix>
</trkpt>
<trkpt lat="-27.2744388" lon="151.2900635">
  <ele>346.28</ele>
  <time>2026-09-01T19:53:47Z</time>
  <course>11.55</course>
  <speed>0.1</speed>
  <fix>3d</fix>
</trkpt>
<trkpt lat="-27.2744385" lon="151.2900636">
  <ele>346.11</ele>
  <time>2026-09-01T19:53:47Z</time>
  <course>187.56</course>
  <speed>0.0824621125123532</speed>
  <fix>3d</fix>
</trkpt>
<trkpt lat="-27.2744385" lon="151.2900636">
  <ele>346.08</ele>
  <time>2026-09-01T19:53:47Z</time>
  <course>187.57</course>
  <speed>0.07280109889280519</speed>
  <fix>3d</fix>
</trkpt>
<trkpt lat="-27.2744385" lon="151.2900635">
  <ele>346.18</ele>
  <time>2026-09-01T19:53:47Z</time>
  <course>13.07</course>
  <speed>0.09</speed>
  <fix>3d</fix>
</trkpt>
<trkpt lat="-27.2744384" lon="151.2900636">
  <ele>346.07</ele>
  <time>2026-09-01T19:53:47Z</time>
  <course>187.57</course>
  <speed>0.07280109889280519</speed>
  <fix>3d</fix>
</trkpt>
<trkpt lat="-27.2744384" lon="151.2900636">
  <ele>346.03</ele>
  <time>2026-09-01T19:53:47Z</time>
  <course>187.57</course>
  <speed>0.07280109889280519</speed>
  <fix>3d</fix>
</trkpt>
<trkpt lat="-27.2744385" lon="151.2900635">
  <ele>346.18</ele>
  <time>2026-09-01T19:53:47Z</time>
  <course>13.07</course>
  <speed>0.09</speed>
  <fix>3d</fix>
</trkpt>
<trkpt lat="-27.2744384" lon="151.2900636">
  <ele>346.02</ele>
  <time>2026-09-01T19:53:47Z</time>
  <course>187.57</course>
  <speed>0.0632455532033676</speed>
  <fix>3d</fix>
</trkpt>
<trkpt lat="-27.2744383" lon="151.2900637">
  <ele>345.98</ele>
  <time>2026-09-01T19:53:47Z</time>
  <course>187.57</course>
  <speed>0.0632455532033676</speed>
  <fix>3d</fix>
</trkpt>
<trkpt lat="-27.2744384" lon="151.2900636">
  <ele>346.08</ele>
  <time>2026-09-01T19:53:47Z</time>
  <course>14.97</course>
  <speed>0.08</speed>
  <fix>3d</fix>
</trkpt>
<trkpt lat="-27.2744383" lon="151.2900637">
  <ele>345.97</ele>
  <time>2026-09-01T19:53:47Z</time>
  <course>187.58</course>
  <speed>0.0632455532033676</speed>
  <fix>3d</fix>
</trkpt>
<trkpt lat="-27.2744383" lon="151.2900637">
  <ele>345.93</ele>
  <time>2026-09-01T19:53:47Z</time>
  <course>187.58</course>
  <speed>0.053851648071345036</speed>
  <fix>3d</fix>
</trkpt>
<trkpt lat="-27.2744384" lon="151.2900636">
  <ele>346.08</ele>
  <time>2026-09-01T19:53:47Z</time>
  <course>14.97</course>
  <speed>0.08</speed>
  <fix>3d</fix>
</trkpt>
<trkpt lat="-27.2744383" lon="151.2900637">
  <ele>345.93</ele>
  <time>2026-09-01T19:53:47Z</time>
  <course>187.58</course>
  <speed>0.053851648071345036</speed>
  <fix>3d</fix>
</trkpt>
<trkpt lat="-27.2744382" lon="151.2900637">
  <ele>345.88</ele>
  <time>2026-09-01T19:53:47Z</time>
  <course>187.59</course>
  <speed>0.053851648071345036</speed>
  <fix>3d</fix>
</trkpt>
<trkpt lat="-27.2744383" lon="151.2900636">
  <ele>345.97</ele>
  <time>2026-09-01T19:53:47Z</time>
  <course>17.65</course>
  <speed>0.06</speed>
  <fix>3d</fix>
</trkpt>
<trkpt lat="-27.2744382" lon="151.2900637">
  <ele>345.87</ele>
  <time>2026-09-01T19:53:47Z</time>
  <course>187.59</course>
  <speed>0.053851648071345036</speed>
  <fix>3d</fix>
</trkpt>
<trkpt lat="-27.2744382" lon="151.2900637">
  <ele>345.83</ele>
  <time>2026-09-01T19:53:47Z</time>
  <course>187.6</course>
  <speed>0.044721359549995794</speed>
  <fix>3d</fix>
</trkpt>
<trkpt lat="-27.2744383" lon="151.2900636">
  <ele>345.97</ele>
  <time>2026-09-01T19:53:47Z</time>
  <course>17.65</course>
  <speed>0.06</speed>
  <fix>3d</fix>
</trkpt>
<trkpt lat="-27.2744382" lon="151.2900637">
  <ele>345.83</ele>
  <time>2026-09-01T19:53:47Z</time>
  <course>187.6</course>
  <speed>0.044721359549995794</speed>
  <fix>3d</fix>
</trkpt>
<trkpt lat="-27.2744381" lon="151.2900637">
  <ele>345.78</ele>
  <time>2026-09-01T19:53:47Z</time>
  <course>187.61</course>
  <speed>0.0316227766016838</speed>
  <fix>3d</fix>
</trkpt>
<trkpt lat="-27.2744382" lon="151.2900637">
  <ele>345.88</ele>
  <time>2026-09-01T19:53:47Z</time>
  <course>21.59</course>
  <speed>0.05</speed>
  <fix>3d</fix>
</trkpt>
<trkpt lat="-27.2744381" lon="151.2900637">
  <ele>345.78</ele>
  <time>2026-09-01T19:53:47Z</time>
  <course>187.61</course>
  <speed>0.0316227766016838</speed>
  <fix>3d</fix>
</trkpt>
<trkpt lat="-27.2744381" lon="151.2900637">
  <ele>345.73</ele>
  <time>2026-09-01T19:53:47Z</time>
  <course>187.62</course>
  <speed>0.03605551275463989</speed>
  <fix>3d</fix>
</trkpt>
<trkpt lat="-27.2744382" lon="151.2900637">
  <ele>345.88</ele>
  <time>2026-09-01T19:53:47Z</time>
  <course>21.59</course>
  <speed>0.05</speed>
  <fix>3d</fix>
</trkpt>
<trkpt lat="-27.2744381" lon="151.2900637">
  <ele>345.72</ele>
  <time>2026-09-01T19:53:47Z</time>
  <course>187.63</course>
  <speed>0.03605551275463989</speed>
  <fix>3d</fix>
</trkpt>
<trkpt lat="-27.2744381" lon="151.2900637">
  <ele>345.68</ele>
  <time>2026-09-01T19:53:47Z</time>
  <course>187.64</course>
  <speed>0.0282842712474619</speed>
  <fix>3d</fix>
</trkpt>
<trkpt lat="-27.2744381" lon="151.2900637">
  <ele>345.78</ele>
  <time>2026-09-01T19:53:47Z</time>
  <course>27.72</course>
  <speed>0.04</speed>
  <fix>3d</fix>
</trkpt>
<trkpt lat="-27.2744381" lon="151.2900637">
  <ele>345.68</ele>
  <time>2026-09-01T19:53:47Z</time>
  <course>187.64</course>
  <speed>0.0282842712474619</speed>
  <fix>3d</fix>
</trkpt>
<trkpt lat="-27.2744381" lon="151.2900637">
  <ele>345.63</ele>
  <time>2026-09-01T19:53:47Z</time>
  <course>187.65</course>
  <speed>0.022360679774997897</speed>
  <fix>3d</fix>
</trkpt>
<trkpt lat="-27.2744381" lon="151.2900637">
  <ele>345.78</ele>
  <time>2026-09-01T19:53:47Z</time>
  <course>27.72</course>
  <speed>0.04</speed>
  <fix>3d</fix>
</trkpt>
<trkpt lat="-27.2744381" lon="151.2900637">
  <ele>345.63</ele>
  <time>2026-09-01T19:53:47Z</time>
  <course>187.65</course>
  <speed>0.022360679774997897</speed>
  <fix>3d</fix>
</trkpt>
<trkpt lat="-27.2744381" lon="151.2900637">
  <ele>345.58</ele>
  <time>2026-09-01T19:53:47Z</time>
  <course>187.66</course>
  <speed>0.022360679774997897</speed>
  <fix>3d</fix>
</trkpt>
<trkpt lat="-27.2744381" lon="151.2900637">
  <ele>345.68</ele>
  <time>2026-09-01T19:53:47Z</time>
  <course>38.75</course>
  <speed>0.03</speed>
  <fix>3d</fix>
</trkpt>
<trkpt lat="-27.2744381" lon="151.2900637">
  <ele>345.57</ele>
  <time>2026-09-01T19:53:47Z</time>
  <course>187.67</course>
  <speed>0.022360679774997897</speed>
  <fix>3d</fix>
</trkpt>
<trkpt lat="-27.274438" lon="151.2900637">
  <ele>345.53</ele>
  <time>2026-09-01T19:53:47Z</time>
  <course>187.69</course>
  <speed>0.02</speed>
  <fix>3d</fix>
</trkpt>
<trkpt lat="-27.2744381" lon="151.2900637">
  <ele>345.68</ele>
  <time>2026-09-01T19:53:47Z</time>
  <course>38.75</course>
  <speed>0.03</speed>
  <fix>3d</fix>
</trkpt>
<trkpt lat="-27.274438" lon="151.2900637">
  <ele>345.52</ele>
  <time>2026-09-01T19:53:47Z</time>
  <course>187.69</course>
  <speed>0.02</speed>
  <fix>3d</fix>
</trkpt>
<trkpt lat="-27.274438" lon="151.2900639">
  <ele>345.48</ele>
  <time>2026-09-01T19:53:47Z</time>
  <course>187.72</course>
  <speed>0.02</speed>
  <fix>3d</fix>
</trkpt>
<trkpt lat="-27.274438" lon="151.2900637">
  <ele>345.58</ele>
  <time>2026-09-01T19:53:47Z</time>
  <course>59.19</course>
  <speed>0.02</speed>
  <fix>3d</fix>
</trkpt>
<trkpt lat="-27.274438" lon="151.2900639">
  <ele>345.47</ele>
  <time>2026-09-01T19:53:47Z</time>
  <course>187.72</course>
  <speed>0.02</speed>
  <fix>3d</fix>
</trkpt>
<trkpt lat="-27.274438" lon="151.2900639">
  <ele>345.43</ele>
  <time>2026-09-01T19:53:47Z</time>
  <course>187.76</course>
  <speed>0.02</speed>
  <fix>3d</fix>
</trkpt>
<trkpt lat="-27.274438" lon="151.2900637">
  <ele>345.58</ele>
  <time>2026-09-01T19:53:47Z</time>
  <course>59.19</course>
  <speed>0.02</speed>
  <fix>3d</fix>
</trkpt>
<trkpt lat="-27.274438" lon="151.2900639">
  <ele>345.42</ele>
  <time>2026-09-01T19:53:47Z</time>
  <course>187.76</course>
  <speed>0.02</speed>
  <fix>3d</fix>
</trkpt>
<trkpt lat="-27.274438" lon="151.2900639">
  <ele>345.38</ele>
  <time>2026-09-01T19:53:47Z</time>
  <course>187.8</course>
  <speed>0.02</speed>
  <fix>3d</fix>
</trkpt>
<trkpt lat="-27.274438" lon="151.2900638">
  <ele>345.47</ele>
  <time>2026-09-01T19:53:47Z</time>
  <course>86.32</course>
  <speed>0.02</speed>
  <fix>3d</fix>
</trkpt>
<trkpt lat="-27.274438" lon="151.2900639">
  <ele>345.37</ele>
  <time>2026-09-01T19:53:47Z</time>
  <course>187.8</course>
  <speed>0.022360679774997897</speed>
  <fix>3d</fix>
</trkpt>
<trkpt lat="-27.274438" lon="151.2900639">
  <ele>345.33</ele>
  <time>2026-09-01T19:53:47Z</time>
  <course>187.83</course>
  <speed>0.022360679774997897</speed>
  <fix>3d</fix>
</trkpt>
<trkpt lat="-27.274438" lon="151.2900638">
  <ele>345.47</ele>
  <time>2026-09-01T19:53:47Z</time>
  <course>86.32</course>
  <speed>0.02</speed>
  <fix>3d</fix>
</trkpt>
<trkpt lat="-27.274438" lon="151.290064">
  <ele>345.32</ele>
  <time>2026-09-01T19:53:47Z</time>
  <course>187.84</course>
  <speed>0.022360679774997897</speed>
  <fix>3d</fix>
</trkpt>
<trkpt lat="-27.274438" lon="151.290064">
  <ele>345.28</ele>
  <time>2026-09-01T19:53:47Z</time>
  <course>187.86</course>
  <speed>0.022360679774997897</speed>
  <fix>3d</fix>
</trkpt>
<trkpt lat="-27.274438" lon="151.2900639">
  <ele>345.38</ele>
  <time>2026-09-01T19:53:47Z</time>
  <course>108.43</course>
  <speed>0.02</speed>
  <fix>3d</fix>
</trkpt>
<trkpt lat="-27.274438" lon="151.290064">
  <ele>345.28</ele>
  <time>2026-09-01T19:53:47Z</time>
  <course>187.86</course>
  <speed>0.022360679774997897</speed>
  <fix>3d</fix>
</trkpt>
<trkpt lat="-27.274438" lon="151.290064">
  <ele>345.23</ele>
  <time>2026-09-01T19:53:47Z</time>
  <course>187.89</course>
  <speed>0.03605551275463989</speed>
  <fix>3d</fix>
</trkpt>
<trkpt lat="-27.274438" lon="151.2900639">
  <ele>345.38</ele>
  <time>2026-09-01T19:53:47Z</time>
  <course>108.43</course>
  <speed>0.02</speed>
  <fix>3d</fix>
</trkpt>
<trkpt lat="-27.274438" lon="151.290064">
  <ele>345.23</ele>
  <time>2026-09-01T19:53:47Z</time>
  <course>187.89</course>
  <speed>0.03605551275463989</speed>
  <fix>3d</fix>
</trkpt>
<trkpt lat="-27.274438" lon="151.290064">
  <ele>345.18</ele>
  <time>2026-09-01T19:53:47Z</time>
  <course>187.9</course>
  <speed>0.03605551275463989</speed>
  <fix>3d</fix>
</trkpt>
<trkpt lat="-27.274438" lon="151.2900639">
  <ele>345.28</ele>
  <time>2026-09-01T19:53:47Z</time>
  <course>122.81</course>
  <speed>0.03</speed>
  <fix>3d</fix>
</trkpt>
<trkpt lat="-27.274438" lon="151.290064">
  <ele>345.17</ele>
  <time>2026-09-01T19:53:47Z</time>
  <course>187.91</course>
  <speed>0.03605551275463989</speed>
  <fix>3d</fix>
</trkpt>
<trkpt lat="-27.274438" lon="151.2900641">
  <ele>345.13</ele>
  <time>2026-09-01T19:53:47Z</time>
  <course>187.92</course>
  <speed>0.04242640687119285</speed>
  <fix>3d</fix>
</trkpt>
<trkpt lat="-27.274438" lon="151.2900639">
  <ele>345.28</ele>
  <time>2026-09-01T19:53:47Z</time>
  <course>122.81</course>
  <speed>0.03</speed>
  <fix>3d</fix>
</trkpt>
<trkpt lat="-27.2744381" lon="151.2900641">
  <ele>345.12</ele>
  <time>2026-09-01T19:53:47Z</time>
  <course>187.92</course>
  <speed>0.04242640687119285</speed>
  <fix>3d</fix>
</trkpt>
<trkpt lat="-27.2744381" lon="151.2900641">
  <ele>345.08</ele>
  <time>2026-09-01T19:53:47Z</time>
  <course>187.92</course>
  <speed>0.04242640687119285</speed>
  <fix>3d</fix>
</trkpt>
<trkpt lat="-27.274438" lon="151.290064">
  <ele>345.18</ele>
  <time>2026-09-01T19:53:47Z</time>
  <course>132.37</course>
  <speed>0.04</speed>
  <fix>3d</fix>
</trkpt>
<trkpt lat="-27.2744381" lon="151.2900641">
  <ele>345.07</ele>
  <time>2026-09-01T19:53:47Z</time>
  <course>187.92</course>
  <speed>0.04242640687119285</speed>
  <fix>3d</fix>
</trkpt>
<trkpt lat="-27.2744381" lon="151.2900641">
  <ele>345.03</ele>
  <time>2026-09-01T19:53:47Z</time>
  <course>187.93</course>
  <speed>0.05</speed>
  <fix>3d</fix>
</trkpt>
<trkpt lat="-27.274438" lon="151.290064">
  <ele>345.18</ele>
  <time>2026-09-01T19:53:47Z</time>
  <course>132.37</course>
  <speed>0.04</speed>
  <fix>3d</fix>
</trkpt>
<trkpt lat="-27.2744381" lon="151.2900641">
  <ele>345.02</ele>
  <time>2026-09-01T19:53:47Z</time>
  <course>187.93</course>
  <speed>0.05</speed>
  <fix>3d</fix>
</trkpt>
<trkpt lat="-27.2744382" lon="151.2900642">
  <ele>344.98</ele>
  <time>2026-09-01T19:53:47Z</time>
  <course>187.93</course>
  <speed>0.05</speed>
  <fix>3d</fix>
</trkpt>
<trkpt lat="-27.274438" lon="151.2900641">
  <ele>345.08</ele>
  <time>2026-09-01T19:53:47Z</time>
  <course>138.94</course>
  <speed>0.04</speed>
  <fix>3d</fix>
</trkpt>
<trkpt lat="-27.2744382" lon="151.2900642">
  <ele>344.97</ele>
  <time>2026-09-01T19:53:47Z</time>
  <course>187.93</course>
  <speed>0.05</speed>
  <fix>3d</fix>
</trkpt>
<trkpt lat="-27.2744382" lon="151.2900642">
  <ele>344.93</ele>
  <time>2026-09-01T19:53:47Z</time>
  <course>187.93</course>
  <speed>0.05</speed>
  <fix>3d</fix>
</trkpt>
<trkpt lat="-27.274438" lon="151.2900641">
  <ele>345.08</ele>
  <time>2026-09-01T19:53:47Z</time>
  <course>138.94</course>
  <speed>0.04</speed>
  <fix>3d</fix>
</trkpt>
<trkpt lat="-27.2744382" lon="151.2900642">
  <ele>344.93</ele>
  <time>2026-09-01T19:53:47Z</time>
  <course>187.93</course>
  <speed>0.05</speed>
  <fix>3d</fix>
</trkpt>
<trkpt lat="-27.2744382" lon="151.2900642">
  <ele>344.88</ele>
  <time>2026-09-01T19:53:47Z</time>
  <course>187.93</course>
  <speed>0.05830951894845301</speed>
  <fix>3d</fix>
</trkpt>
<trkpt lat="-27.2744381" lon="151.2900641">
  <ele>344.97</ele>
  <time>2026-09-01T19:53:47Z</time>
  <course>143.6</course>
  <speed>0.05</speed>
  <fix>3d</fix>
</trkpt>
<trkpt lat="-27.2744382" lon="151.2900642">
  <ele>344.87</ele>
  <time>2026-09-01T19:53:47Z</time>
  <course>187.93</course>
  <speed>0.05830951894845301</speed>
  <fix>3d</fix>
</trkpt>
<trkpt lat="-27.2744383" lon="151.2900642">
  <ele>344.83</ele>
  <time>2026-09-01T19:53:47Z</time>
  <course>187.93</course>
  <speed>0.05830951894845301</speed>
  <fix>3d</fix>
</trkpt>
<trkpt lat="-27.2744381" lon="151.2900641">
  <ele>344.97</ele>
  <time>2026-09-01T19:53:47Z</time>
  <course>143.6</course>
  <speed>0.05</speed>
  <fix>3d</fix>
</trkpt>
<trkpt lat="-27.2744383" lon="151.2900642">
  <ele>344.82</ele>
  <time>2026-09-01T19:53:47Z</time>
  <course>187.93</course>
  <speed>0.05830951894845301</speed>
  <fix>3d</fix>
</trkpt>
<trkpt lat="-27.2744383" lon="151.2900642">
  <ele>344.78</ele>
  <time>2026-09-01T19:53:47Z</time>
  <course>187.93</course>
  <speed>0.05830951894845301</speed>
  <fix>3d</fix>
</trkpt>
<trkpt lat="-27.2744382" lon="151.2900642">
  <ele>344.88</ele>
  <time>2026-09-01T19:53:47Z</time>
  <course>146.92</course>
  <speed>0.06</speed>
  <fix>3d</fix>
</trkpt>
<trkpt lat="-27.2744383" lon="151.2900642">
  <ele>344.77</ele>
  <time>2026-09-01T19:53:47Z</time>
  <course>187.93</course>
  <speed>0.05830951894845301</speed>
  <fix>3d</fix>
</trkpt>
<trkpt lat="-27.2744384" lon="151.2900642">
  <ele>344.73</ele>
  <time>2026-09-01T19:53:47Z</time>
  <course>187.93</course>
  <speed>0.05830951894845301</speed>
  <fix>3d</fix>
</trkpt>
<trkpt lat="-27.2744382" lon="151.2900642">
  <ele>344.88</ele>
  <time>2026-09-01T19:53:47Z</time>
  <course>146.92</course>
  <speed>0.06</speed>
  <fix>3d</fix>
</trkpt>
<trkpt lat="-27.2744384" lon="151.2900642">
  <ele>344.73</ele>
  <time>2026-09-01T19:53:47Z</time>
  <course>187.93</course>
  <speed>0.05830951894845301</speed>
  <fix>3d</fix>
</trkpt>
<trkpt lat="-27.2744384" lon="151.2900644">
  <ele>344.68</ele>
  <time>2026-09-01T19:53:47Z</time>
  <course>187.93</course>
  <speed>0.05830951894845301</speed>
  <fix>3d</fix>
</trkpt>
<trkpt lat="-27.2744383" lon="151.2900642">
  <ele>344.78</ele>
  <time>2026-09-01T19:53:47Z</time>
  <course>149.1</course>
  <speed>0.06</speed>
  <fix>3d</fix>
</trkpt>
<trkpt lat="-27.2744384" lon="151.2900644">
  <ele>344.67</ele>
  <time>2026-09-01T19:53:47Z</time>
  <course>187.93</course>
  <speed>0.05830951894845301</speed>
  <fix>3d</fix>
</trkpt>
<trkpt lat="-27.2744385" lon="151.2900644">
  <ele>344.63</ele>
  <time>2026-09-01T19:53:47Z</time>
  <course>187.93</course>
  <speed>0.05830951894845301</speed>
  <fix>3d</fix>
</trkpt>
<trkpt lat="-27.2744383" lon="151.2900642">
  <ele>344.78</ele>
  <time>2026-09-01T19:53:47Z</time>
  <course>149.1</course>
  <speed>0.06</speed>
  <fix>3d</fix>
</trkpt>
<trkpt lat="-27.2744385" lon="151.2900644">
  <ele>344.62</ele>
  <time>2026-09-01T19:53:47Z</time>
  <course>187.93</course>
  <speed>0.05830951894845301</speed>
  <fix>3d</fix>
</trkpt>
<trkpt lat="-27.2744385" lon="151.2900644">
  <ele>344.58</ele>
  <time>2026-09-01T19:53:47Z</time>
  <course>187.93</course>
  <speed>0.05830951894845301</speed>
  <fix>3d</fix>
</trkpt>
<trkpt lat="-27.2744384" lon="151.2900643">
  <ele>344.68</ele>
  <time>2026-09-01T19:53:47Z</time>
  <course>150.68</course>
  <speed>0.06</speed>
  <fix>3d</fix>
</trkpt>
<trkpt lat="-27.2744385" lon="151.2900644">
  <ele>344.57</ele>
  <time>2026-09-01T19:53:47Z</time>
  <course>187.93</course>
  <speed>0.053851648071345036</speed>
  <fix>3d</fix>
</trkpt>
<trkpt lat="-27.2744386" lon="151.2900645">
  <ele>344.53</ele>
  <time>2026-09-01T19:53:47Z</time>
  <course>187.93</course>
  <speed>0.053851648071345036</speed>
  <fix>3d</fix>
</trkpt>
<trkpt lat="-27.2744384" lon="151.2900643">
  <ele>344.68</ele>
  <time>2026-09-01T19:53:47Z</time>
  <course>150.68</course>
  <speed>0.06</speed>
  <fix>3d</fix>
</trkpt>
<trkpt lat="-27.2744386" lon="151.2900645">
  <ele>344.52</ele>
  <time>2026-09-01T19:53:47Z</time>
  <course>187.93</course>
  <speed>0.053851648071345036</speed>
  <fix>3d</fix>
</trkpt>
<trkpt lat="-27.2744386" lon="151.2900645">
  <ele>344.48</ele>
  <time>2026-09-01T19:53:47Z</time>
  <course>187.93</course>
  <speed>0.053851648071345036</speed>
  <fix>3d</fix>
</trkpt>
<trkpt lat="-27.2744385" lon="151.2900644">
  <ele>344.58</ele>
  <time>2026-09-01T19:53:47Z</time>
  <course>152.43</course>
  <speed>0.06</speed>
  <fix>3d</fix>
</trkpt>
<trkpt lat="-27.2744387" lon="151.2900645">
  <ele>344.47</ele>
  <time>2026-09-01T19:53:47Z</time>
  <course>187.93</course>
  <speed>0.053851648071345036</speed>
  <fix>3d</fix>
</trkpt>
<trkpt lat="-27.2744387" lon="151.2900645">
  <ele>344.43</ele>
  <time>2026-09-01T19:53:47Z</time>
  <course>187.94</course>
  <speed>0.053851648071345036</speed>
  <fix>3d</fix>
</trkpt>
<trkpt lat="-27.2744385" lon="151.2900644">
  <ele>344.58</ele>
  <time>2026-09-01T19:53:47Z</time>
  <course>152.43</course>
  <speed>0.06</speed>
  <fix>3d</fix>
</trkpt>
<trkpt lat="-27.2744387" lon="151.2900645">
  <ele>344.42</ele>
  <time>2026-09-01T19:53:47Z</time>
  <course>187.94</course>
  <speed>0.053851648071345036</speed>
  <fix>3d</fix>
</trkpt>
<trkpt lat="-27.2744387" lon="151.2900645">
  <ele>344.38</ele>
  <time>2026-09-01T19:53:47Z</time>
  <course>187.94</course>
  <speed>0.053851648071345036</speed>
  <fix>3d</fix>
</trkpt>
<trkpt lat="-27.2744386" lon="151.2900645">
  <ele>344.47</ele>
  <time>2026-09-01T19:53:47Z</time>
  <course>154.64</course>
  <speed>0.06</speed>
  <fix>3d</fix>
</trkpt>
<trkpt lat="-27.2744388" lon="151.2900645">
  <ele>344.37</ele>
  <time>2026-09-01T19:53:47Z</time>
  <course>187.95</course>
  <speed>0.053851648071345036</speed>
  <fix>3d</fix>
</trkpt>
<trkpt lat="-27.2744388" lon="151.2900646">
  <ele>344.33</ele>
  <time>2026-09-01T19:53:47Z</time>
  <course>187.95</course>
  <speed>0.053851648071345036</speed>
  <fix>3d</fix>
</trkpt>
<trkpt lat="-27.2744386" lon="151.2900645">
  <ele>344.47</ele>
  <time>2026-09-01T19:53:47Z</time>
  <course>154.64</course>
  <speed>0.06</speed>
  <fix>3d</fix>
</trkpt>
<trkpt lat="-27.2744388" lon="151.2900646">
  <ele>344.32</ele>
  <time>2026-09-01T19:53:47Z</time>
  <course>187.95</course>
  <speed>0.053851648071345036</speed>
  <fix>3d</fix>
</trkpt>
<trkpt lat="-27.2744388" lon="151.2900646">
  <ele>344.28</ele>
  <time>2026-09-01T19:53:47Z</time>
  <course>187.96</course>
  <speed>0.05099019513592785</speed>
  <fix>3d</fix>
</trkpt>
<trkpt lat="-27.2744387" lon="151.2900645">
  <ele>344.38</ele>
  <time>2026-09-01T19:53:47Z</time>
  <course>157.35</course>
  <speed>0.06</speed>
  <fix>3d</fix>
</trkpt>
<trkpt lat="-27.2744389" lon="151.2900646">
  <ele>344.27</ele>
  <time>2026-09-01T19:53:47Z</time>
  <course>187.97</course>
  <speed>0.05099019513592785</speed>
  <fix>3d</fix>
</trkpt>
<trkpt lat="-27.2744389" lon="151.2900646">
  <ele>344.23</ele>
  <time>2026-09-01T19:53:47Z</time>
  <course>187.98</course>
  <speed>0.05099019513592785</speed>
  <fix>3d</fix>
</trkpt>
<trkpt lat="-27.2744387" lon="151.2900645">
  <ele>344.38</ele>
  <time>2026-09-01T19:53:47Z</time>
  <course>157.35</course>
  <speed>0.06</speed>
  <fix>3d</fix>
</trkpt>
<trkpt lat="-27.2744389" lon="151.2900646">
  <ele>344.23</ele>
  <time>2026-09-01T19:53:47Z</time>
  <course>187.98</course>
  <speed>0.05099019513592785</speed>
  <fix>3d</fix>
</trkpt>
<trkpt lat="-27.2744389" lon="151.2900646">
  <ele>344.18</ele>
  <time>2026-09-01T19:53:47Z</time>
  <course>187.99</course>
  <speed>0.05099019513592785</speed>
  <fix>3d</fix>
</trkpt>
<trkpt lat="-27.2744388" lon="151.2900646">
  <ele>344.28</ele>
  <time>2026-09-01T19:53:47Z</time>
  <course>160.73</course>
  <speed>0.05</speed>
  <fix>3d</fix>
</trkpt>
<trkpt lat="-27.2744389" lon="151.2900646">
  <ele>344.17</ele>
  <time>2026-09-01T19:53:47Z</time>
  <course>187.99</course>
  <speed>0.05099019513592785</speed>
  <fix>3d</fix>
</trkpt>
<trkpt lat="-27.274439" lon="151.2900646">
  <ele>344.13</ele>
  <time>2026-09-01T19:53:47Z</time>
  <course>188.0</course>
  <speed>0.0412310562561766</speed>
  <fix>3d</fix>
</trkpt>
<trkpt lat="-27.2744388" lon="151.2900646">
  <ele>344.28</ele>
  <time>2026-09-01T19:53:47Z</time>
  <course>160.73</course>
  <speed>0.05</speed>
  <fix>3d</fix>
</trkpt>
<trkpt lat="-27.274439" lon="151.2900646">
  <ele>344.12</ele>
  <time>2026-09-01T19:53:47Z</time>
  <course>188.0</course>
  <speed>0.0412310562561766</speed>
  <fix>3d</fix>
</trkpt>
<trkpt lat="-27.274439" lon="151.2900646">
  <ele>344.08</ele>
  <time>2026-09-01T19:53:47Z</time>
  <course>188.01</course>
  <speed>0.04</speed>
  <fix>3d</fix>
</trkpt>
<trkpt lat="-27.2744389" lon="151.2900646">
  <ele>344.18</ele>
  <time>2026-09-01T19:53:47Z</time>
  <course>164.57</course>
  <speed>0.05</speed>
  <fix>3d</fix>
</trkpt>
<trkpt lat="-27.274439" lon="151.2900646">
  <ele>344.07</ele>
  <time>2026-09-01T19:53:47Z</time>
  <course>188.01</course>
  <speed>0.04</speed>
  <fix>3d</fix>
</trkpt>
<trkpt lat="-27.2744391" lon="151.2900646">
  <ele>344.03</ele>
  <time>2026-09-01T19:53:47Z</time>
  <course>188.01</course>
  <speed>0.04</speed>
  <fix>3d</fix>
</trkpt>
<trkpt lat="-27.2744389" lon="151.2900646">
  <ele>344.18</ele>
  <time>2026-09-01T19:53:47Z</time>
  <course>164.57</course>
  <speed>0.05</speed>
  <fix>3d</fix>
</trkpt>
<trkpt lat="-27.2744391" lon="151.2900646">
  <ele>343.98</ele>
  <time>2026-09-01T19:53:47Z</time>
  <course>188.01</course>
  <speed>0.04</speed>
  <fix>3d</fix>
</trkpt>
<trkpt lat="-27.274439" lon="151.2900646">
  <ele>344.08</ele>
  <time>2026-09-01T19:53:47Z</time>
  <course>168.52</course>
  <speed>0.04</speed>
  <fix>3d</fix>
</trkpt>
<trkpt lat="-27.2744391" lon="151.2900646">
  <ele>343.93</ele>
  <time>2026-09-01T19:53:47Z</time>
  <course>188.01</course>
  <speed>0.04</speed>
  <fix>3d</fix>
</trkpt>
<trkpt lat="-27.274439" lon="151.2900646">
  <ele>344.08</ele>
  <time>2026-09-01T19:53:47Z</time>
  <course>168.52</course>
  <speed>0.04</speed>
  <fix>3d</fix>
</trkpt>
<trkpt lat="-27.2744392" lon="151.2900646">
  <ele>343.88</ele>
  <time>2026-09-01T19:53:47Z</time>
  <course>188.01</course>
  <speed>0.03</speed>
  <fix>3d</fix>
</trkpt>
<trkpt lat="-27.2744391" lon="151.2900646">
  <ele>343.97</ele>
  <time>2026-09-01T19:53:47Z</time>
  <course>172.56</course>
  <speed>0.04</speed>
  <fix>3d</fix>
</trkpt>
<trkpt lat="-27.2744392" lon="151.2900646">
  <ele>343.83</ele>
  <time>2026-09-01T19:53:47Z</time>
  <course>188.0</course>
  <speed>0.03</speed>
  <fix>3d</fix>
</trkpt>
<trkpt lat="-27.2744391" lon="151.2900646">
  <ele>343.97</ele>
  <time>2026-09-01T19:53:47Z</time>
  <course>172.56</course>
  <speed>0.04</speed>
  <fix>3d</fix>
</trkpt>
<trkpt lat="-27.2744392" lon="151.2900646">
  <ele>343.78</ele>
  <time>2026-09-01T19:53:47Z</time>
  <course>188.0</course>
  <speed>0.03</speed>
  <fix>3d</fix>
</trkpt>
<trkpt lat="-27.2744391" lon="151.2900646">
  <ele>343.88</ele>
  <time>2026-09-01T19:53:47Z</time>
  <course>177.08</course>
  <speed>0.03</speed>
  <fix>3d</fix>
</trkpt>
<trkpt lat="-27.2744393" lon="151.2900646">
  <ele>343.73</ele>
  <time>2026-09-01T19:53:47Z</time>
  <course>188.0</course>
  <speed>0.03</speed>
  <fix>3d</fix>
</trkpt>
<trkpt lat="-27.2744391" lon="151.2900646">
  <ele>343.88</ele>
  <time>2026-09-01T19:53:47Z</time>
  <course>177.08</course>
  <speed>0.03</speed>
  <fix>3d</fix>
</trkpt>
<trkpt lat="-27.2744393" lon="151.2900646">
  <ele>343.68</ele>
  <time>2026-09-01T19:53:47Z</time>
  <course>188.01</course>
  <speed>0.02</speed>
  <fix>3d</fix>
</trkpt>
<trkpt lat="-27.2744392" lon="151.2900646">
  <ele>343.78</ele>
  <time>2026-09-01T19:53:47Z</time>
  <course>182.47</course>
  <speed>0.03</speed>
  <fix>3d</fix>
</trkpt>
<trkpt lat="-27.2744393" lon="151.2900646">
  <ele>343.63</ele>
  <time>2026-09-01T19:53:47Z</time>
  <course>188.02</course>
  <speed>0.02</speed>
  <fix>3d</fix>
</trkpt>
<trkpt lat="-27.2744392" lon="151.2900646">
  <ele>343.78</ele>
  <time>2026-09-01T19:53:47Z</time>
  <course>182.47</course>
  <speed>0.03</speed>
  <fix>3d</fix>
</trkpt>
<trkpt lat="-27.2744393" lon="151.2900646">
  <ele>343.58</ele>
  <time>2026-09-01T19:53:47Z</time>
  <course>188.03</course>
  <speed>0.02</speed>
  <fix>3d</fix>
</trkpt>
<trkpt lat="-27.2744393" lon="151.2900646">
  <ele>343.68</ele>
  <time>2026-09-01T19:53:47Z</time>
  <course>189.22</course>
  <speed>0.02</speed>
  <fix>3d</fix>
</trkpt>
<trkpt lat="-27.2744394" lon="151.2900646">
  <ele>343.53</ele>
  <time>2026-09-01T19:53:47Z</time>
  <course>188.04</course>
  <speed>0.01</speed>
  <fix>3d</fix>
</trkpt>
<trkpt lat="-27.2744393" lon="151.2900646">
  <ele>343.68</ele>
  <time>2026-09-01T19:53:47Z</time>
  <course>189.22</course>
  <speed>0.02</speed>
  <fix>3d</fix>
</trkpt>
<trkpt lat="-27.2744394" lon="151.2900646">
  <ele>343.48</ele>
  <time>2026-09-01T19:53:47Z</time>
  <course>188.05</course>
  <speed>0.01</speed>
  <fix>3d</fix>
</trkpt>
<trkpt lat="-27.2744393" lon="151.2900646">
  <ele>343.58</ele>
  <time>2026-09-01T19:53:47Z</time>
  <course>198.55</course>
  <speed>0.02</speed>
  <fix>3d</fix>
</trkpt>
<trkpt lat="-27.2744394" lon="151.2900646">
  <ele>343.43</ele>
  <time>2026-09-01T19:53:47Z</time>
  <course>188.07</course>
  <speed>0.01414213562373095</speed>
  <fix>3d</fix>
</trkpt>
<trkpt lat="-27.2744393" lon="151.2900646">
  <ele>343.58</ele>
  <time>2026-09-01T19:53:47Z</time>
  <course>198.55</course>
  <speed>0.02</speed>
  <fix>3d</fix>
</trkpt>
<trkpt lat="-27.2744394" lon="151.2900646">
  <ele>343.38</ele>
  <time>2026-09-01T19:53:47Z</time>
  <course>188.09</course>
  <speed>0.01414213562373095</speed>
  <fix>3d</fix>
</trkpt>
<trkpt lat="-27.2744394" lon="151.2900646">
  <ele>343.47</ele>
  <time>2026-09-01T19:53:47Z</time>
  <course>211.38</course>
  <speed>0.01</speed>
  <fix>3d</fix>
</trkpt>
<trkpt lat="-27.2744394" lon="151.2900646">
  <ele>343.33</ele>
  <time>2026-09-01T19:53:47Z</time>
  <course>188.11</course>
  <speed>0.01</speed>
  <fix>3d</fix>
</trkpt>
<trkpt lat="-27.2744394" lon="151.2900646">
  <ele>343.47</ele>
  <time>2026-09-01T19:53:47Z</time>
  <course>211.38</course>
  <speed>0.01</speed>
  <fix>3d</fix>
</trkpt>
<trkpt lat="-27.2744394" lon="151.2900646">
  <ele>343.28</ele>
  <time>2026-09-01T19:53:47Z</time>
  <course>188.14</course>
  <speed>0.01</speed>
  <fix>3d</fix>
</trkpt>
<trkpt lat="-27.2744394" lon="151.2900646">
  <ele>343.38</ele>
  <time>2026-09-01T19:53:47Z</time>
  <course>227.35</course>
  <speed>0.01</speed>
  <fix>3d</fix>
</trkpt>
<trkpt lat="-27.2744394" lon="151.2900646">
  <ele>343.23</ele>
  <time>2026-09-01T19:53:47Z</time>
  <course>188.17</course>
  <speed>0.01</speed>
  <fix>3d</fix>
</trkpt>
<trkpt lat="-27.2744394" lon="151.2900646">
  <ele>343.38</ele>
  <time>2026-09-01T19:53:47Z</time>
  <course>227.35</course>
  <speed>0.01</speed>
  <fix>3d</fix>
</trkpt>
<trkpt lat="-27.2744394" lon="151.2900646">
  <ele>343.18</ele>
  <time>2026-09-01T19:53:47Z</time>
  <course>188.19</course>
  <speed>0.01</speed>
  <fix>3d</fix>
</trkpt>
<trkpt lat="-27.2744394" lon="151.2900646">
  <ele>343.28</ele>
  <time>2026-09-01T19:53:47Z</time>
  <course>244.89</course>
  <speed>0.01</speed>
  <fix>3d</fix>
</trkpt>
<trkpt lat="-27.2744394" lon="151.2900646">
  <ele>343.13</ele>
  <time>2026-09-01T19:53:47Z</time>
  <course>188.22</course>
  <speed>0.01</speed>
  <fix>3d</fix>
</trkpt>
<trkpt lat="-27.2744394" lon="151.2900646">
  <ele>343.28</ele>
  <time>2026-09-01T19:53:47Z</time>
  <course>244.89</course>
  <speed>0.01</speed>
  <fix>3d</fix>
</trkpt>
<trkpt lat="-27.2744394" lon="151.2900646">
  <ele>343.08</ele>
  <time>2026-09-01T19:53:47Z</time>
  <course>188.23</course>
  <speed>0.0</speed>
  <fix>3d</fix>
</trkpt>
<trkpt lat="-27.2744394" lon="151.2900646">
  <ele>343.18</ele>
  <time>2026-09-01T19:53:47Z</time>
  <course>263.17</course>
  <speed>0.01</speed>
  <fix>3d</fix>
</trkpt>
<trkpt lat="-27.2744394" lon="151.2900646">
  <ele>343.07</ele>
  <time>2026-09-01T19:53:47Z</time>
  <course>188.23</course>
  <speed>0.0</speed>
  <fix>3d</fix>
</trkpt>
<trkpt lat="-27.2744394" lon="151.2900646">
  <ele>343.18</ele>
  <time>2026-09-01T19:53:47Z</time>
  <course>263.17</course>
  <speed>0.01</speed>
  <fix>3d</fix>
</trkpt>
<trkpt lat="-27.2744394" lon="151.2900646">
  <ele>343.08</ele>
  <time>2026-09-01T19:53:47Z</time>
  <course>188.23</course>
  <speed>0.0</speed>
  <fix>3d</fix>
</trkpt>
<trkpt lat="-27.2744394" lon="151.2900646">
  <ele>343.1</ele>
  <time>2026-09-01T19:53:47Z</time>
  <course>272.34</course>
  <speed>0.0</speed>
  <fix>3d</fix>
</trkpt>
<trkpt lat="-27.2744394" lon="151.2900646">
  <ele>343.09</ele>
  <time>2026-09-01T19:53:47Z</time>
  <course>188.23</course>
  <speed>0.0</speed>
  <fix>3d</fix>
</trkpt>
<trkpt lat="-27.2744394" lon="151.2900646">
  <ele>343.1</ele>
  <time>2026-09-01T19:53:47Z</time>
  <course>272.34</course>
  <speed>0.0</speed>
  <fix>3d</fix>
</trkpt>
<trkpt lat="-27.2744394" lon="151.2900646">
  <ele>343.1</ele>
  <time>2026-09-01T19:53:47Z</time>
  <course>188.23</course>
  <speed>0.0</speed>
  <fix>3d</fix>
</trkpt>
<trkpt lat="-27.2744394" lon="151.2900646">
  <ele>343.08</ele>
  <time>2026-09-01T19:53:47Z</time>
  <course>98.0</course>
  <speed>0.0</speed>
  <fix>3d</fix>
</trkpt>
<trkpt lat="-27.2744394" lon="151.2900646">
  <ele>343.1</ele>
  <time>2026-09-01T19:53:47Z</time>
  <course>188.23</course>
  <speed>0.0</speed>
  <fix>3d</fix>
</trkpt>
<trkpt lat="-27.2744394" lon="151.2900646">
  <ele>343.08</ele>
  <time>2026-09-01T19:53:47Z</time>
  <course>98.0</course>
  <speed>0.0</speed>
  <fix>3d</fix>
</trkpt>
<trkpt lat="-27.2744394" lon="151.2900646">
  <ele>343.1</ele>
  <time>2026-09-01T19:53:47Z</time>
  <course>188.23</course>
  <speed>0.0</speed>
  <fix>3d</fix>
</trkpt>
<trkpt lat="-27.2744394" lon="151.2900646">
  <ele>343.09</ele>
  <time>2026-09-01T19:53:47Z</time>
  <course>97.98</course>
  <speed>0.0</speed>
  <fix>3d</fix>
</trkpt>
<trkpt lat="-27.2744394" lon="151.2900646">
  <ele>343.1</ele>
  <time>2026-09-01T19:53:47Z</time>
  <course>188.23</course>
  <speed>0.0</speed>
  <fix>3d</fix>
</trkpt>
<trkpt lat="-27.2744394" lon="151.2900646">
  <ele>343.09</ele>
  <time>2026-09-01T19:53:47Z</time>
  <course>97.98</course>
  <speed>0.0</speed>
  <fix>3d</fix>
</trkpt>
<trkpt lat="-27.2744394" lon="151.2900646">
  <ele>343.09</ele>
  <time>2026-09-01T19:53:47Z</time>
  <course>188.23</course>
  <speed>0.0</speed>
  <fix>3d</fix>
</trkpt>
<trkpt lat="-27.2744394" lon="151.2900646">
  <ele>343.1</ele>
  <time>2026-09-01T19:53:47Z</time>
  <course>277.98</course>
  <speed>0.0</speed>
  <fix>3d</fix>
</trkpt>
<trkpt lat="-27.2744394" lon="151.2900646">
  <ele>343.09</ele>
  <time>2026-09-01T19:53:47Z</time>
  <course>188.23</course>
  <speed>0.0</speed>
  <fix>3d</fix>
</trkpt>
<trkpt lat="-27.2744394" lon="151.2900646">
  <ele>343.1</ele>
  <time>2026-09-01T19:53:47Z</time>
  <course>277.98</course>
  <speed>0.0</speed>
  <fix>3d</fix>
</trkpt>
<trkpt lat="-27.2744394" lon="151.2900646">
  <ele>343.1</ele>
  <time>2026-09-01T19:53:47Z</time>
  <course>188.23</course>
  <speed>0.0</speed>
  <fix>3d</fix>
</trkpt>
<trkpt lat="-27.2744394" lon="151.2900646">
  <ele>343.09</ele>
  <time>2026-09-01T19:53:47Z</time>
  <course>277.92</course>
  <speed>0.0</speed>
  <fix>3d</fix>
</trkpt>
<trkpt lat="-27.2744394" lon="151.2900646">
  <ele>343.1</ele>
  <time>2026-09-01T19:53:47Z</time>
  <course>188.23</course>
  <speed>0.0</speed>
  <fix>3d</fix>
</trkpt>
<trkpt lat="-27.2744394" lon="151.2900646">
  <ele>343.09</ele>
  <time>2026-09-01T19:53:47Z</time>
  <course>277.92</course>
  <speed>0.0</speed>
  <fix>3d</fix>
</trkpt>
<trkpt lat="-27.2744394" lon="151.2900646">
  <ele>343.1</ele>
  <time>2026-09-01T19:53:47Z</time>
  <course>188.23</course>
  <speed>0.0</speed>
  <fix>3d</fix>
</trkpt>
<trkpt lat="-27.2744394" lon="151.2900646">
  <ele>343.09</ele>
  <time>2026-09-01T19:53:47Z</time>
  <course>98.45</course>
  <speed>0.0</speed>
  <fix>3d</fix>
</trkpt>
<trkpt lat="-27.2744394" lon="151.2900646">
  <ele>343.1</ele>
  <time>2026-09-01T19:53:47Z</time>
  <course>188.23</course>
  <speed>0.0</speed>
  <fix>3d</fix>
</trkpt>
<trkpt lat="-27.2744394" lon="151.2900646">
  <ele>343.09</ele>
  <time>2026-09-01T19:53:47Z</time>
  <course>98.45</course>
  <speed>0.0</speed>
  <fix>3d</fix>
</trkpt>
<trkpt lat="-27.2744394" lon="151.2900646">
  <ele>343.1</ele>
  <time>2026-09-01T19:53:47Z</time>
  <course>188.23</course>
  <speed>0.0</speed>
  <fix>3d</fix>
</trkpt>
<trkpt lat="-27.2744394" lon="151.2900646">
  <ele>343.1</ele>
  <time>2026-09-01T19:53:47Z</time>
  <course>95.52</course>
  <speed>0.0</speed>
  <fix>3d</fix>
</trkpt>
<trkpt lat="-27.2744394" lon="151.2900646">
  <ele>343.1</ele>
  <time>2026-09-01T19:53:47Z</time>
  <course>188.23</course>
  <speed>0.0</speed>
  <fix>3d</fix>
</trkpt>
<trkpt lat="-27.2744394" lon="151.2900646">
  <ele>343.1</ele>
  <time>2026-09-01T19:53:47Z</time>
  <course>95.52</course>
  <speed>0.0</speed>
  <fix>3d</fix>
</trkpt>
<trkpt lat="-27.2744394" lon="151.2900646">
  <ele>343.1</ele>
  <time>2026-09-01T19:53:47Z</time>
  <course>188.23</course>
  <speed>0.0</speed>
  <fix>3d</fix>
</trkpt>
<trkpt lat="-27.2744394" lon="151.2900646">
  <ele>343.1</ele>
  <time>2026-09-01T19:53:47Z</time>
  <course>281.1</course>
  <speed>0.0</speed>
  <fix>3d</fix>
</trkpt>
<trkpt lat="-27.2744394" lon="151.2900646">
  <ele>343.1</ele>
  <time>2026-09-01T19:53:47Z</time>
  <course>188.23</course>
  <speed>0.0</speed>
  <fix>3d</fix>
</trkpt>
<trkpt lat="-27.2744394" lon="151.2900646">
  <ele>343.1</ele>
  <time>2026-09-01T19:53:47Z</time>
  <course>281.1</course>
  <speed>0.0</speed>
  <fix>3d</fix>
</trkpt>
<trkpt lat="-27.2744394" lon="151.2900646">
  <ele>343.1</ele>
  <time>2026-09-01T19:53:47Z</time>
  <course>188.23</course>
  <speed>0.0</speed>
  <fix>3d</fix>
</trkpt>
<trkpt lat="-27.2744394" lon="151.2900646">
  <ele>343.1</ele>
  <time>2026-09-01T19:53:47Z</time>
  <course>138.77</course>
  <speed>0.0</speed>
  <fix>3d</fix>
</trkpt>
<trkpt lat="-27.2744394" lon="151.2900646">
  <ele>343.1</ele>
  <time>2026-09-01T19:53:47Z</time>
  <course>188.23</course>
  <speed>0.0</speed>
  <fix>3d</fix>
</trkpt>
<trkpt lat="-27.2744394" lon="151.2900646">
  <ele>343.1</ele>
  <time>2026-09-01T19:53:47Z</time>
  <course>138.77</course>
  <speed>0.0</speed>
  <fix>3d</fix>
</trkpt>
<trkpt lat="-27.2744394" lon="151.2900646">
  <ele>343.1</ele>
  <time>2026-09-01T19:53:47Z</time>
  <course>188.23</course>
  <speed>0.0</speed>
  <fix>3d</fix>
</trkpt>
<trkpt lat="-27.2744394" lon="151.2900646">
  <ele>343.1</ele>
  <time>2026-09-01T19:53:47Z</time>
  <course>78.46</course>
  <speed>0.0</speed>
  <fix>3d</fix>
</trkpt>
<trkpt lat="-27.2744394" lon="151.2900646">
  <ele>343.1</ele>
  <time>2026-09-01T19:53:47Z</time>
  <course>188.23</course>
  <speed>0.0</speed>
  <fix>3d</fix>
</trkpt>
<trkpt lat="-27.2744394" lon="151.2900646">
  <ele>343.1</ele>
  <time>2026-09-01T19:53:47Z</time>
  <course>78.46</course>
  <speed>0.0</speed>
  <fix>3d</fix>
</trkpt>
<trkpt lat="-27.2744394" lon="151.2900646">
  <ele>343.1</ele>
  <time>2026-09-01T19:53:47Z</time>
  <course>188.23</course>
  <speed>0.0</speed>
  <fix>3d</fix>
</trkpt>
<trkpt lat="-27.2744394" lon="151.2900646">
  <ele>343.1</ele>
  <time>2026-09-01T19:53:47Z</time>
  <course>312.29</course>
  <speed>0.0</speed>
  <fix>3d</fix>
</trkpt>
<trkpt lat="-27.2744394" lon="151.2900646">
  <ele>343.1</ele>
  <time>2026-09-01T19:53:47Z</time>
  <course>188.23</course>
  <speed>0.0</speed>
  <fix>3d</fix>
</trkpt>
<trkpt lat="-27.2744394" lon="151.2900646">
  <ele>343.1</ele>
  <time>2026-09-01T19:53:47Z</time>
  <course>312.29</course>
  <speed>0.0</speed>
  <fix>3d</fix>
</trkpt>
<trkpt lat="-27.2744394" lon="151.2900646">
  <ele>343.1</ele>
  <time>2026-09-01T19:53:47Z</time>
  <course>188.23</course>
  <speed>0.0</speed>
  <fix>3d</fix>
</trkpt>
<trkpt lat="-27.2744394" lon="151.2900646">
  <ele>343.1</ele>
  <time>2026-09-01T19:53:47Z</time>
  <course>150.29</course>
  <speed>0.0</speed>
  <fix>3d</fix>
</trkpt>
<trkpt lat="-27.2744394" lon="151.2900646">
  <ele>343.1</ele>
  <time>2026-09-01T19:53:47Z</time>
  <course>188.23</course>
  <speed>0.0</speed>
  <fix>3d</fix>
</trkpt>
<trkpt lat="-27.2744394" lon="151.2900646">
  <ele>343.1</ele>
  <time>2026-09-01T19:53:47Z</time>
  <course>150.29</course>
  <speed>0.0</speed>
  <fix>3d</fix>
</trkpt>
<trkpt lat="-27.2744394" lon="151.2900646">
  <ele>343.1</ele>
  <time>2026-09-01T19:53:47Z</time>
  <course>188.23</course>
  <speed>0.0</speed>
  <fix>3d</fix>
</trkpt>
<trkpt lat="-27.2744394" lon="151.2900646">
  <ele>343.1</ele>
  <time>2026-09-01T19:53:47Z</time>
  <course>139.73</course>
  <speed>0.0</speed>
  <fix>3d</fix>
</trkpt>
<trkpt lat="-27.2744394" lon="151.2900646">
  <ele>343.1</ele>
  <time>2026-09-01T19:53:47Z</time>
  <course>188.23</course>
  <speed>0.0</speed>
  <fix>3d</fix>
</trkpt>
<trkpt lat="-27.2744394" lon="151.2900646">
  <ele>343.1</ele>
  <time>2026-09-01T19:53:47Z</time>
  <course>139.73</course>
  <speed>0.0</speed>
  <fix>3d</fix>
</trkpt>
<trkpt lat="-27.2744394" lon="151.2900646">
  <ele>343.1</ele>
  <time>2026-09-01T19:53:47Z</time>
  <course>188.23</course>
  <speed>0.0</speed>
  <fix>3d</fix>
</trkpt>
<trkpt lat="-27.2744394" lon="151.2900646">
  <ele>343.1</ele>
  <time>2026-09-01T19:53:47Z</time>
  <course>160.46</course>
  <speed>0.0</speed>
  <fix>3d</fix>
</trkpt>
<trkpt lat="-27.2744394" lon="151.2900646">
  <ele>343.1</ele>
  <time>2026-09-01T19:53:47Z</time>
  <course>188.23</course>
  <speed>0.0</speed>
  <fix>3d</fix>
</trkpt>
<trkpt lat="-27.2744394" lon="151.2900646">
  <ele>343.1</ele>
  <time>2026-09-01T19:53:47Z</time>
  <course>160.46</course>
  <speed>0.0</speed>
  <fix>3d</fix>
</trkpt>
<trkpt lat="-27.2744394" lon="151.2900646">
  <ele>343.1</ele>
  <time>2026-09-01T19:53:47Z</time>
  <course>188.23</course>
  <speed>0.0</speed>
  <fix>3d</fix>
</trkpt>
<trkpt lat="-27.2744394" lon="151.2900646">
  <ele>343.1</ele>
  <time>2026-09-01T19:53:47Z</time>
  <course>320.86</course>
  <speed>0.0</speed>
  <fix>3d</fix>
</trkpt>
<trkpt lat="-27.2744394" lon="151.2900646">
  <ele>343.1</ele>
  <time>2026-09-01T19:53:47Z</time>
  <course>188.23</course>
  <speed>0.0</speed>
  <fix>3d</fix>
</trkpt>
<trkpt lat="-27.2744394" lon="151.2900646">
  <ele>343.1</ele>
  <time>2026-09-01T19:53:47Z</time>
  <course>320.86</course>
  <speed>0.0</speed>
  <fix>3d</fix>
</trkpt>
<trkpt lat="-27.2744394" lon="151.2900646">
  <ele>343.1</ele>
  <time>2026-09-01T19:53:48Z</time>
  <course>188.23</course>
  <speed>0.0</speed>
  <fix>3d</fix>
</trkpt>
<trkpt lat="-27.2744394" lon="151.2900646">
  <ele>343.1</ele>
  <time>2026-09-01T19:53:48Z</time>
  <course>318.89</course>
  <speed>0.0</speed>
  <fix>3d</fix>
</trkpt>
<trkpt lat="-27.2744394" lon="151.2900646">
  <ele>343.1</ele>
  <time>2026-09-01T19:53:48Z</time>
  <course>188.23</course>
  <speed>0.0</speed>
  <fix>3d</fix>
</trkpt>
<trkpt lat="-27.2744394" lon="151.2900646">
  <ele>343.1</ele>
  <time>2026-09-01T19:53:48Z</time>
  <course>318.89</course>
  <speed>0.0</speed>
  <fix>3d</fix>
</trkpt>
<trkpt lat="-27.2744394" lon="151.2900646">
  <ele>343.1</ele>
  <time>2026-09-01T19:53:48Z</time>
  <course>188.23</course>
  <speed>0.0</speed>
  <fix>3d</fix>
</trkpt>
<trkpt lat="-27.2744394" lon="151.2900646">
  <ele>343.1</ele>
  <time>2026-09-01T19:53:48Z</time>
  <course>141.78</course>
  <speed>0.0</speed>
  <fix>3d</fix>
</trkpt>
<trkpt lat="-27.2744394" lon="151.2900646">
  <ele>343.1</ele>
  <time>2026-09-01T19:53:48Z</time>
  <course>188.23</course>
  <speed>0.0</speed>
  <fix>3d</fix>
</trkpt>
<trkpt lat="-27.2744394" lon="151.2900646">
  <ele>343.1</ele>
  <time>2026-09-01T19:53:48Z</time>
  <course>141.78</course>
  <speed>0.0</speed>
  <fix>3d</fix>
</trkpt>
<trkpt lat="-27.2744394" lon="151.2900646">
  <ele>343.1</ele>
  <time>2026-09-01T19:53:48Z</time>
  <course>188.23</course>
  <speed>0.0</speed>
  <fix>3d</fix>
</trkpt>
<trkpt lat="-27.2744394" lon="151.2900646">
  <ele>343.1</ele>
  <time>2026-09-01T19:53:48Z</time>
  <course>140.27</course>
  <speed>0.0</speed>
  <fix>3d</fix>
</trkpt>
<trkpt lat="-27.2744394" lon="151.2900646">
  <ele>343.1</ele>
  <time>2026-09-01T19:53:48Z</time>
  <course>188.23</course>
  <speed>0.0</speed>
  <fix>3d</fix>
</trkpt>
<trkpt lat="-27.2744394" lon="151.2900646">
  <ele>343.1</ele>
  <time>2026-09-01T19:53:48Z</time>
  <course>140.27</course>
  <speed>0.0</speed>
  <fix>3d</fix>
</trkpt>
<trkpt lat="-27.2744394" lon="151.2900646">
  <ele>343.1</ele>
  <time>2026-09-01T19:53:48Z</time>
  <course>188.23</course>
  <speed>0.0</speed>
  <fix>3d</fix>
</trkpt>
<trkpt lat="-27.2744394" lon="151.2900646">
  <ele>343.1</ele>
  <time>2026-09-01T19:53:48Z</time>
  <course>334.5</course>
  <speed>0.0</speed>
  <fix>3d</fix>
</trkpt>
<trkpt lat="-27.2744394" lon="151.2900646">
  <ele>343.1</ele>
  <time>2026-09-01T19:53:48Z</time>
  <course>188.23</course>
  <speed>0.0</speed>
  <fix>3d</fix>
</trkpt>
<trkpt lat="-27.2744394" lon="151.2900646">
  <ele>343.1</ele>
  <time>2026-09-01T19:53:48Z</time>
  <course>334.5</course>
  <speed>0.0</speed>
  <fix>3d</fix>
</trkpt>
<trkpt lat="-27.2744394" lon="151.2900646">
  <ele>343.1</ele>
  <time>2026-09-01T19:53:48Z</time>
  <course>188.23</course>
  <speed>0.0</speed>
  <fix>3d</fix>
</trkpt>
<trkpt lat="-27.2744394" lon="151.2900646">
  <ele>343.1</ele>
  <time>2026-09-01T19:53:48Z</time>
  <course>321.56</course>
  <speed>0.0</speed>
  <fix>3d</fix>
</trkpt>
<trkpt lat="-27.2744394" lon="151.2900646">
  <ele>343.1</ele>
  <time>2026-09-01T19:53:48Z</time>
  <course>188.23</course>
  <speed>0.0</speed>
  <fix>3d</fix>
</trkpt>
<trkpt lat="-27.2744394" lon="151.2900646">
  <ele>343.1</ele>
  <time>2026-09-01T19:53:48Z</time>
  <course>321.56</course>
  <speed>0.0</speed>
  <fix>3d</fix>
</trkpt>
<trkpt lat="-27.2744394" lon="151.2900646">
  <ele>343.1</ele>
  <time>2026-09-01T19:53:48Z</time>
  <course>188.23</course>
  <speed>0.0</speed>
  <fix>3d</fix>
</trkpt>
<trkpt lat="-27.2744394" lon="151.2900646">
  <ele>343.1</ele>
  <time>2026-09-01T19:53:48Z</time>
  <course>321.7</course>
  <speed>0.0</speed>
  <fix>3d</fix>
</trkpt>
<trkpt lat="-27.2744394" lon="151.2900646">
  <ele>343.1</ele>
  <time>2026-09-01T19:53:48Z</time>
  <course>188.23</course>
  <speed>0.0</speed>
  <fix>3d</fix>
</trkpt>
<trkpt lat="-27.2744394" lon="151.2900646">
  <ele>343.1</ele>
  <time>2026-09-01T19:53:48Z</time>
  <course>321.7</course>
  <speed>0.0</speed>
  <fix>3d</fix>
</trkpt>
<trkpt lat="-27.2744394" lon="151.2900646">
  <ele>343.1</ele>
  <time>2026-09-01T19:53:48Z</time>
  <course>188.23</course>
  <speed>0.0</speed>
  <fix>3d</fix>
</trkpt>
<trkpt lat="-27.2744394" lon="151.2900646">
  <ele>343.1</ele>
  <time>2026-09-01T19:53:48Z</time>
  <course>323.05</course>
  <speed>0.0</speed>
  <fix>3d</fix>
</trkpt>
<trkpt lat="-27.2744394" lon="151.2900646">
  <ele>343.1</ele>
  <time>2026-09-01T19:53:48Z</time>
  <course>188.23</course>
  <speed>0.0</speed>
  <fix>3d</fix>
</trkpt>
<trkpt lat="-27.2744394" lon="151.2900646">
  <ele>343.1</ele>
  <time>2026-09-01T19:53:48Z</time>
  <course>323.05</course>
  <speed>0.0</speed>
  <fix>3d</fix>
</trkpt>
<trkpt lat="-27.2744394" lon="151.2900646">
  <ele>343.1</ele>
  <time>2026-09-01T19:53:48Z</time>
  <course>188.23</course>
  <speed>0.0</speed>
  <fix>3d</fix>
</trkpt>
<trkpt lat="-27.2744394" lon="151.2900646">
  <ele>343.1</ele>
  <time>2026-09-01T19:53:48Z</time>
  <course>142.38</course>
  <speed>0.0</speed>
  <fix>3d</fix>
</trkpt>
<trkpt lat="-27.2744394" lon="151.2900646">
  <ele>343.1</ele>
  <time>2026-09-01T19:53:48Z</time>
  <course>188.23</course>
  <speed>0.0</speed>
  <fix>3d</fix>
</trkpt>
<trkpt lat="-27.2744394" lon="151.2900646">
  <ele>343.1</ele>
  <time>2026-09-01T19:53:48Z</time>
  <course>142.38</course>
  <speed>0.0</speed>
  <fix>3d</fix>
</trkpt>
<trkpt lat="-27.2744394" lon="151.2900646">
  <ele>343.1</ele>
  <time>2026-09-01T19:53:48Z</time>
  <course>188.23</course>
  <speed>0.0</speed>
  <fix>3d</fix>
</trkpt>
<trkpt lat="-27.2744394" lon="151.2900646">
  <ele>343.1</ele>
  <time>2026-09-01T19:53:48Z</time>
  <course>142.03</course>
  <speed>0.0</speed>
  <fix>3d</fix>
</trkpt>
<trkpt lat="-27.2744394" lon="151.2900646">
  <ele>343.1</ele>
  <time>2026-09-01T19:53:48Z</time>
  <course>188.23</course>
  <speed>0.0</speed>
  <fix>3d</fix>
</trkpt>
<trkpt lat="-27.2744394" lon="151.2900646">
  <ele>343.1</ele>
  <time>2026-09-01T19:53:48Z</time>
  <course>142.03</course>
  <speed>0.0</speed>
  <fix>3d</fix>
</trkpt>
<trkpt lat="-27.2744394" lon="151.2900646">
  <ele>343.1</ele>
  <time>2026-09-01T19:53:48Z</time>
  <course>188.23</course>
  <speed>0.0</speed>
  <fix>3d</fix>
</trkpt>
<trkpt lat="-27.2744394" lon="151.2900646">
  <ele>343.1</ele>
  <time>2026-09-01T19:53:48Z</time>
  <course>321.72</course>
  <speed>0.0</speed>
  <fix>3d</fix>
</trkpt>
<trkpt lat="-27.2744394" lon="151.2900646">
  <ele>343.1</ele>
  <time>2026-09-01T19:53:48Z</time>
  <course>188.23</course>
  <speed>0.0</speed>
  <fix>3d</fix>
</trkpt>
<trkpt lat="-27.2744394" lon="151.2900646">
  <ele>343.1</ele>
  <time>2026-09-01T19:53:48Z</time>
  <course>321.72</course>
  <speed>0.0</speed>
  <fix>3d</fix>
</trkpt>
<trkpt lat="-27.2744394" lon="151.2900646">
  <ele>343.1</ele>
  <time>2026-09-01T19:53:48Z</time>
  <course>188.23</course>
  <speed>0.0</speed>
  <fix>3d</fix>
</trkpt>
<trkpt lat="-27.2744394" lon="151.2900646">
  <ele>343.1</ele>
  <time>2026-09-01T19:53:48Z</time>
  <course>144.02</course>
  <speed>0.0</speed>
  <fix>3d</fix>
</trkpt>
<trkpt lat="-27.2744394" lon="151.2900646">
  <ele>343.1</ele>
  <time>2026-09-01T19:53:48Z</time>
  <course>188.23</course>
  <speed>0.0</speed>
  <fix>3d</fix>
</trkpt>
<trkpt lat="-27.2744394" lon="151.2900646">
  <ele>343.1</ele>
  <time>2026-09-01T19:53:48Z</time>
  <course>144.02</course>
  <speed>0.0</speed>
  <fix>3d</fix>
</trkpt>
<trkpt lat="-27.2744394" lon="151.2900646">
  <ele>343.1</ele>
  <time>2026-09-01T19:53:48Z</time>
  <course>188.23</course>
  <speed>0.0</speed>
  <fix>3d</fix>
</trkpt>
<trkpt lat="-27.2744394" lon="151.2900646">
  <ele>343.1</ele>
  <time>2026-09-01T19:53:48Z</time>
  <course>142.05</course>
  <speed>0.0</speed>
  <fix>3d</fix>
</trkpt>
<trkpt lat="-27.2744394" lon="151.2900646">
  <ele>343.1</ele>
  <time>2026-09-01T19:53:48Z</time>
  <course>188.23</course>
  <speed>0.0</speed>
  <fix>3d</fix>
</trkpt>
<trkpt lat="-27.2744394" lon="151.2900646">
  <ele>343.1</ele>
  <time>2026-09-01T19:53:48Z</time>
  <course>142.05</course>
  <speed>0.0</speed>
  <fix>3d</fix>
</trkpt>
<trkpt lat="-27.2744394" lon="151.2900646">
  <ele>343.1</ele>
  <time>2026-09-01T19:53:48Z</time>
  <course>188.23</course>
  <speed>0.0</speed>
  <fix>3d</fix>
</trkpt>
<trkpt lat="-27.2744394" lon="151.2900646">
  <ele>343.1</ele>
  <time>2026-09-01T19:53:48Z</time>
  <course>141.1</course>
  <speed>0.0</speed>
  <fix>3d</fix>
</trkpt>
<trkpt lat="-27.2744394" lon="151.2900646">
  <ele>343.1</ele>
  <time>2026-09-01T19:53:48Z</time>
  <course>188.23</course>
  <speed>0.0</speed>
  <fix>3d</fix>
</trkpt>
<trkpt lat="-27.2744394" lon="151.2900646">
  <ele>343.1</ele>
  <time>2026-09-01T19:53:48Z</time>
  <course>141.1</course>
  <speed>0.0</speed>
  <fix>3d</fix>
</trkpt>
<trkpt lat="-27.2744394" lon="151.2900646">
  <ele>343.1</ele>
  <time>2026-09-01T19:53:48Z</time>
  <course>188.23</course>
  <speed>0.0</speed>
  <fix>3d</fix>
</trkpt>
<trkpt lat="-27.2744394" lon="151.2900646">
  <ele>343.1</ele>
  <time>2026-09-01T19:53:48Z</time>
  <course>322.18</course>
  <speed>0.0</speed>
  <fix>3d</fix>
</trkpt>
<trkpt lat="-27.2744394" lon="151.2900646">
  <ele>343.1</ele>
  <time>2026-09-01T19:53:48Z</time>
  <course>188.23</course>
  <speed>0.0</speed>
  <fix>3d</fix>
</trkpt>
<trkpt lat="-27.2744394" lon="151.2900646">
  <ele>343.1</ele>
  <time>2026-09-01T19:53:48Z</time>
  <course>322.18</course>
  <speed>0.0</speed>
  <fix>3d</fix>
</trkpt>
<trkpt lat="-27.2744394" lon="151.2900646">
  <ele>343.1</ele>
  <time>2026-09-01T19:53:48Z</time>
  <course>188.23</course>
  <speed>0.0</speed>
  <fix>3d</fix>
</trkpt>
<trkpt lat="-27.2744394" lon="151.2900646">
  <ele>343.1</ele>
  <time>2026-09-01T19:53:48Z</time>
  <course>321.71</course>
  <speed>0.0</speed>
  <fix>3d</fix>
</trkpt>
<trkpt lat="-27.2744394" lon="151.2900646">
  <ele>343.1</ele>
  <time>2026-09-01T19:53:48Z</time>
  <course>188.23</course>
  <speed>0.0</speed>
  <fix>3d</fix>
</trkpt>
<trkpt lat="-27.2744394" lon="151.2900646">
  <ele>343.1</ele>
  <time>2026-09-01T19:53:48Z</time>
  <course>321.71</course>
  <speed>0.0</speed>
  <fix>3d</fix>
</trkpt>
<trkpt lat="-27.2744394" lon="151.2900646">
  <ele>343.1</ele>
  <time>2026-09-01T19:53:48Z</time>
  <course>188.23</course>
  <speed>0.0</speed>
  <fix>3d</fix>
</trkpt>
<trkpt lat="-27.2744394" lon="151.2900646">
  <ele>343.1</ele>
  <time>2026-09-01T19:53:48Z</time>
  <course>142.53</course>
  <speed>0.0</speed>
  <fix>3d</fix>
</trkpt>
<trkpt lat="-27.2744394" lon="151.2900646">
  <ele>343.1</ele>
  <time>2026-09-01T19:53:48Z</time>
  <course>188.23</course>
  <speed>0.0</speed>
  <fix>3d</fix>
</trkpt>
<trkpt lat="-27.2744394" lon="151.2900646">
  <ele>343.1</ele>
  <time>2026-09-01T19:53:48Z</time>
  <course>142.53</course>
  <speed>0.0</speed>
  <fix>3d</fix>
</trkpt>
<trkpt lat="-27.2744394" lon="151.2900646">
  <ele>343.1</ele>
  <time>2026-09-01T19:53:48Z</time>
  <course>188.23</course>
  <speed>0.0</speed>
  <fix>3d</fix>
</trkpt>
<trkpt lat="-27.2744394" lon="151.2900646">
  <ele>343.1</ele>
  <time>2026-09-01T19:53:48Z</time>
  <course>143.67</course>
  <speed>0.0</speed>
  <fix>3d</fix>
</trkpt>
<trkpt lat="-27.2744394" lon="151.2900646">
  <ele>343.1</ele>
  <time>2026-09-01T19:53:48Z</time>
  <course>188.23</course>
  <speed>0.0</speed>
  <fix>3d</fix>
</trkpt>
<trkpt lat="-27.2744394" lon="151.2900646">
  <ele>343.1</ele>
  <time>2026-09-01T19:53:48Z</time>
  <course>143.67</course>
  <speed>0.0</speed>
  <fix>3d</fix>
</trkpt>
<trkpt lat="-27.2744394" lon="151.2900646">
  <ele>343.1</ele>
  <time>2026-09-01T19:53:48Z</time>
  <course>188.23</course>
  <speed>0.0</speed>
  <fix>3d</fix>
</trkpt>
<trkpt lat="-27.2744394" lon="151.2900646">
  <ele>343.1</ele>
  <time>2026-09-01T19:53:48Z</time>
  <course>146.5</course>
  <speed>0.0</speed>
  <fix>3d</fix>
</trkpt>
<trkpt lat="-27.2744394" lon="151.2900646">
  <ele>343.1</ele>
  <time>2026-09-01T19:53:48Z</time>
  <course>188.23</course>
  <speed>0.0</speed>
  <fix>3d</fix>
</trkpt>
<trkpt lat="-27.2744394" lon="151.2900646">
  <ele>343.1</ele>
  <time>2026-09-01T19:53:48Z</time>
  <course>146.5</course>
  <speed>0.0</speed>
  <fix>3d</fix>
</trkpt>
<trkpt lat="-27.2744394" lon="151.2900646">
  <ele>343.1</ele>
  <time>2026-09-01T19:53:48Z</time>
  <course>188.23</course>
  <speed>0.0</speed>
  <fix>3d</fix>
</trkpt>
<trkpt lat="-27.2744394" lon="151.2900646">
  <ele>343.1</ele>
  <time>2026-09-01T19:53:48Z</time>
  <course>324.11</course>
  <speed>0.0</speed>
  <fix>3d</fix>
</trkpt>
<trkpt lat="-27.2744394" lon="151.2900646">
  <ele>343.1</ele>
  <time>2026-09-01T19:53:48Z</time>
  <course>188.23</course>
  <speed>0.0</speed>
  <fix>3d</fix>
</trkpt>
<trkpt lat="-27.2744394" lon="151.2900646">
  <ele>343.1</ele>
  <time>2026-09-01T19:53:48Z</time>
  <course>324.11</course>
  <speed>0.0</speed>
  <fix>3d</fix>
</trkpt>
<trkpt lat="-27.2744394" lon="151.2900646">
  <ele>343.1</ele>
  <time>2026-09-01T19:53:48Z</time>
  <course>188.23</course>
  <speed>0.0</speed>
  <fix>3d</fix>
</trkpt>
<trkpt lat="-27.2744394" lon="151.2900646">
  <ele>343.1</ele>
  <time>2026-09-01T19:53:48Z</time>
  <course>328.05</course>
  <speed>0.0</speed>
  <fix>3d</fix>
</trkpt>
<trkpt lat="-27.2744394" lon="151.2900646">
  <ele>343.1</ele>
  <time>2026-09-01T19:53:48Z</time>
  <course>188.23</course>
  <speed>0.0</speed>
  <fix>3d</fix>
</trkpt>
<trkpt lat="-27.2744394" lon="151.2900646">
  <ele>343.1</ele>
  <time>2026-09-01T19:53:48Z</time>
  <course>328.05</course>
  <speed>0.0</speed>
  <fix>3d</fix>
</trkpt>
<trkpt lat="-27.2744394" lon="151.2900646">
  <ele>343.1</ele>
  <time>2026-09-01T19:53:48Z</time>
  <course>188.23</course>
  <speed>0.0</speed>
  <fix>3d</fix>
</trkpt>
<trkpt lat="-27.2744394" lon="151.2900646">
  <ele>343.1</ele>
  <time>2026-09-01T19:53:48Z</time>
  <course>144.66</course>
  <speed>0.0</speed>
  <fix>3d</fix>
</trkpt>
<trkpt lat="-27.2744394" lon="151.2900646">
  <ele>343.1</ele>
  <time>2026-09-01T19:53:48Z</time>
  <course>188.23</course>
  <speed>0.0</speed>
  <fix>3d</fix>
</trkpt>
<trkpt lat="-27.2744394" lon="151.2900646">
  <ele>343.1</ele>
  <time>2026-09-01T19:53:48Z</time>
  <course>144.66</course>
  <speed>0.0</speed>
  <fix>3d</fix>
</trkpt>
<trkpt lat="-27.2744394" lon="151.2900646">
  <ele>343.1</ele>
  <time>2026-09-01T19:53:48Z</time>
  <course>188.23</course>
  <speed>0.0</speed>
  <fix>3d</fix>
</trkpt>
<trkpt lat="-27.2744394" lon="151.2900646">
  <ele>343.1</ele>
  <time>2026-09-01T19:53:48Z</time>
  <course>158.12</course>
  <speed>0.0</speed>
  <fix>3d</fix>
</trkpt>
<trkpt lat="-27.2744394" lon="151.2900646">
  <ele>343.1</ele>
  <time>2026-09-01T19:53:48Z</time>
  <course>188.23</course>
  <speed>0.0</speed>
  <fix>3d</fix>
</trkpt>
<trkpt lat="-27.2744394" lon="151.2900646">
  <ele>343.1</ele>
  <time>2026-09-01T19:53:48Z</time>
  <course>158.12</course>
  <speed>0.0</speed>
  <fix>3d</fix>
</trkpt>
<trkpt lat="-27.2744394" lon="151.2900646">
  <ele>343.1</ele>
  <time>2026-09-01T19:53:48Z</time>
  <course>188.23</course>
  <speed>0.0</speed>
  <fix>3d</fix>
</trkpt>
<trkpt lat="-27.2744394" lon="151.2900646">
  <ele>343.1</ele>
  <time>2026-09-01T19:53:48Z</time>
  <course>325.12</course>
  <speed>0.0</speed>
  <fix>3d</fix>
</trkpt>
<trkpt lat="-27.2744394" lon="151.2900646">
  <ele>343.1</ele>
  <time>2026-09-01T19:53:48Z</time>
  <course>188.23</course>
  <speed>0.0</speed>
  <fix>3d</fix>
</trkpt>
<trkpt lat="-27.2744394" lon="151.2900646">
  <ele>343.1</ele>
  <time>2026-09-01T19:53:48Z</time>
  <course>325.12</course>
  <speed>0.0</speed>
  <fix>3d</fix>
</trkpt>
<trkpt lat="-27.2744394" lon="151.2900646">
  <ele>343.1</ele>
  <time>2026-09-01T19:53:48Z</time>
  <course>188.23</course>
  <speed>0.0</speed>
  <fix>3d</fix>
</trkpt>
<trkpt lat="-27.2744394" lon="151.2900646">
  <ele>343.1</ele>
  <time>2026-09-01T19:53:48Z</time>
  <course>138.93</course>
  <speed>0.0</speed>
  <fix>3d</fix>
</trkpt>
<trkpt lat="-27.2744394" lon="151.2900646">
  <ele>343.1</ele>
  <time>2026-09-01T19:53:48Z</time>
  <course>188.23</course>
  <speed>0.0</speed>
  <fix>3d</fix>
</trkpt>
<trkpt lat="-27.2744394" lon="151.2900646">
  <ele>343.1</ele>
  <time>2026-09-01T19:53:48Z</time>
  <course>138.93</course>
  <speed>0.0</speed>
  <fix>3d</fix>
</trkpt>
<trkpt lat="-27.2744394" lon="151.2900646">
  <ele>343.1</ele>
  <time>2026-09-01T19:53:48Z</time>
  <course>188.23</course>
  <speed>0.0</speed>
  <fix>3d</fix>
</trkpt>
<trkpt lat="-27.2744394" lon="151.2900646">
  <ele>343.1</ele>
  <time>2026-09-01T19:53:48Z</time>
  <course>145.61</course>
  <speed>0.0</speed>
  <fix>3d</fix>
</trkpt>
<trkpt lat="-27.2744394" lon="151.2900646">
  <ele>343.1</ele>
  <time>2026-09-01T19:53:48Z</time>
  <course>188.23</course>
  <speed>0.0</speed>
  <fix>3d</fix>
</trkpt>
<trkpt lat="-27.2744394" lon="151.2900646">
  <ele>343.1</ele>
  <time>2026-09-01T19:53:48Z</time>
  <course>145.61</course>
  <speed>0.0</speed>
  <fix>3d</fix>
</trkpt>
<trkpt lat="-27.2744394" lon="151.2900646">
  <ele>343.1</ele>
  <time>2026-09-01T19:53:48Z</time>
  <course>188.23</course>
  <speed>0.0</speed>
  <fix>3d</fix>
</trkpt>
<trkpt lat="-27.2744394" lon="151.2900646">
  <ele>343.1</ele>
  <time>2026-09-01T19:53:48Z</time>
  <course>322.81</course>
  <speed>0.0</speed>
  <fix>3d</fix>
</trkpt>
<trkpt lat="-27.2744394" lon="151.2900646">
  <ele>343.1</ele>
  <time>2026-09-01T19:53:48Z</time>
  <course>188.23</course>
  <speed>0.0</speed>
  <fix>3d</fix>
</trkpt>
<trkpt lat="-27.2744394" lon="151.2900646">
  <ele>343.1</ele>
  <time>2026-09-01T19:53:48Z</time>
  <course>322.81</course>
  <speed>0.0</speed>
  <fix>3d</fix>
</trkpt>
<trkpt lat="-27.2744394" lon="151.2900646">
  <ele>343.1</ele>
  <time>2026-09-01T19:53:48Z</time>
  <course>188.23</course>
  <speed>0.0</speed>
  <fix>3d</fix>
</trkpt>
<trkpt lat="-27.2744394" lon="151.2900646">
  <ele>343.1</ele>
  <time>2026-09-01T19:53:48Z</time>
  <course>326.25</course>
  <speed>0.0</speed>
  <fix>3d</fix>
</trkpt>
<trkpt lat="-27.2744394" lon="151.2900646">
  <ele>343.1</ele>
  <time>2026-09-01T19:53:48Z</time>
  <course>188.23</course>
  <speed>0.0</speed>
  <fix>3d</fix>
</trkpt>
<trkpt lat="-27.2744394" lon="151.2900646">
  <ele>343.1</ele>
  <time>2026-09-01T19:53:48Z</time>
  <course>326.25</course>
  <speed>0.0</speed>
  <fix>3d</fix>
</trkpt>
<trkpt lat="-27.2744394" lon="151.2900646">
  <ele>343.1</ele>
  <time>2026-09-01T19:53:48Z</time>
  <course>188.23</course>
  <speed>0.0</speed>
  <fix>3d</fix>
</trkpt>
<trkpt lat="-27.2744394" lon="151.2900646">
  <ele>343.1</ele>
  <time>2026-09-01T19:53:48Z</time>
  <course>143.9</course>
  <speed>0.0</speed>
  <fix>3d</fix>
</trkpt>
<trkpt lat="-27.2744394" lon="151.2900646">
  <ele>343.1</ele>
  <time>2026-09-01T19:53:48Z</time>
  <course>188.23</course>
  <speed>0.0</speed>
  <fix>3d</fix>
</trkpt>
<trkpt lat="-27.2744394" lon="151.2900646">
  <ele>343.1</ele>
  <time>2026-09-01T19:53:48Z</time>
  <course>143.9</course>
  <speed>0.0</speed>
  <fix>3d</fix>
</trkpt>
<trkpt lat="-27.2744394" lon="151.2900646">
  <ele>343.1</ele>
  <time>2026-09-01T19:53:48Z</time>
  <course>188.23</course>
  <speed>0.0</speed>
  <fix>3d</fix>
</trkpt>
<trkpt lat="-27.2744394" lon="151.2900646">
  <ele>343.1</ele>
  <time>2026-09-01T19:53:48Z</time>
  <course>147.42</course>
  <speed>0.0</speed>
  <fix>3d</fix>
</trkpt>
<trkpt lat="-27.2744394" lon="151.2900646">
  <ele>343.1</ele>
  <time>2026-09-01T19:53:48Z</time>
  <course>188.23</course>
  <speed>0.0</speed>
  <fix>3d</fix>
</trkpt>
<trkpt lat="-27.2744394" lon="151.2900646">
  <ele>343.1</ele>
  <time>2026-09-01T19:53:48Z</time>
  <course>147.42</course>
  <speed>0.0</speed>
  <fix>3d</fix>
</trkpt>
<trkpt lat="-27.2744394" lon="151.2900646">
  <ele>343.1</ele>
  <time>2026-09-01T19:53:48Z</time>
  <course>188.23</course>
  <speed>0.0</speed>
  <fix>3d</fix>
</trkpt>
<trkpt lat="-27.2744394" lon="151.2900646">
  <ele>343.1</ele>
  <time>2026-09-01T19:53:48Z</time>
  <course>324.51</course>
  <speed>0.0</speed>
  <fix>3d</fix>
</trkpt>
<trkpt lat="-27.2744394" lon="151.2900646">
  <ele>343.1</ele>
  <time>2026-09-01T19:53:48Z</time>
  <course>188.23</course>
  <speed>0.0</speed>
  <fix>3d</fix>
</trkpt>
<trkpt lat="-27.2744394" lon="151.2900646">
  <ele>343.1</ele>
  <time>2026-09-01T19:53:48Z</time>
  <course>324.51</course>
  <speed>0.0</speed>
  <fix>3d</fix>
</trkpt>
<trkpt lat="-27.2744394" lon="151.2900646">
  <ele>343.1</ele>
  <time>2026-09-01T19:53:48Z</time>
  <course>188.23</course>
  <speed>0.0</speed>
  <fix>3d</fix>
</trkpt>
<trkpt lat="-27.2744394" lon="151.2900646">
  <ele>343.1</ele>
  <time>2026-09-01T19:53:48Z</time>
  <course>331.82</course>
  <speed>0.0</speed>
  <fix>3d</fix>
</trkpt>
<trkpt lat="-27.2744394" lon="151.2900646">
  <ele>343.1</ele>
  <time>2026-09-01T19:53:48Z</time>
  <course>188.23</course>
  <speed>0.0</speed>
  <fix>3d</fix>
</trkpt>
<trkpt lat="-27.2744394" lon="151.2900646">
  <ele>343.1</ele>
  <time>2026-09-01T19:53:48Z</time>
  <course>331.82</course>
  <speed>0.0</speed>
  <fix>3d</fix>
</trkpt>
<trkpt lat="-27.2744394" lon="151.2900646">
  <ele>343.1</ele>
  <time>2026-09-01T19:53:48Z</time>
  <course>188.23</course>
  <speed>0.0</speed>
  <fix>3d</fix>
</trkpt>
<trkpt lat="-27.2744394" lon="151.2900646">
  <ele>343.1</ele>
  <time>2026-09-01T19:53:48Z</time>
  <course>144.99</course>
  <speed>0.0</speed>
  <fix>3d</fix>
</trkpt>
<trkpt lat="-27.2744394" lon="151.2900646">
  <ele>343.1</ele>
  <time>2026-09-01T19:53:48Z</time>
  <course>188.23</course>
  <speed>0.0</speed>
  <fix>3d</fix>
</trkpt>
<trkpt lat="-27.2744394" lon="151.2900646">
  <ele>343.1</ele>
  <time>2026-09-01T19:53:48Z</time>
  <course>144.99</course>
  <speed>0.0</speed>
  <fix>3d</fix>
</trkpt>
<trkpt lat="-27.2744394" lon="151.2900646">
  <ele>343.1</ele>
  <time>2026-09-01T19:53:48Z</time>
  <course>188.23</course>
  <speed>0.0</speed>
  <fix>3d</fix>
</trkpt>
<trkpt lat="-27.2744394" lon="151.2900646">
  <ele>343.1</ele>
  <time>2026-09-01T19:53:48Z</time>
  <course>314.24</course>
  <speed>0.0</speed>
  <fix>3d</fix>
</trkpt>
<trkpt lat="-27.2744394" lon="151.2900646">
  <ele>343.1</ele>
  <time>2026-09-01T19:53:48Z</time>
  <course>188.23</course>
  <speed>0.0</speed>
  <fix>3d</fix>
</trkpt>
<trkpt lat="-27.2744394" lon="151.2900646">
  <ele>343.1</ele>
  <time>2026-09-01T19:53:48Z</time>
  <course>314.24</course>
  <speed>0.0</speed>
  <fix>3d</fix>
</trkpt>
<trkpt lat="-27.2744394" lon="151.2900646">
  <ele>343.1</ele>
  <time>2026-09-01T19:53:48Z</time>
  <course>188.23</course>
  <speed>0.0</speed>
  <fix>3d</fix>
</trkpt>
<trkpt lat="-27.2744394" lon="151.2900646">
  <ele>343.1</ele>
  <time>2026-09-01T19:53:48Z</time>
  <course>325.44</course>
  <speed>0.0</speed>
  <fix>3d</fix>
</trkpt>
<trkpt lat="-27.2744394" lon="151.2900646">
  <ele>343.1</ele>
  <time>2026-09-01T19:53:48Z</time>
  <course>188.23</course>
  <speed>0.0</speed>
  <fix>3d</fix>
</trkpt>
<trkpt lat="-27.2744394" lon="151.2900646">
  <ele>343.1</ele>
  <time>2026-09-01T19:53:48Z</time>
  <course>325.44</course>
  <speed>0.0</speed>
  <fix>3d</fix>
</trkpt>
<trkpt lat="-27.2744394" lon="151.2900646">
  <ele>343.1</ele>
  <time>2026-09-01T19:53:48Z</time>
  <course>188.23</course>
  <speed>0.0</speed>
  <fix>3d</fix>
</trkpt>
<trkpt lat="-27.2744394" lon="151.2900646">
  <ele>343.1</ele>
  <time>2026-09-01T19:53:48Z</time>
  <course>142.23</course>
  <speed>0.0</speed>
  <fix>3d</fix>
</trkpt>
<trkpt lat="-27.2744394" lon="151.2900646">
  <ele>343.1</ele>
  <time>2026-09-01T19:53:48Z</time>
  <course>188.23</course>
  <speed>0.0</speed>
  <fix>3d</fix>
</trkpt>
<trkpt lat="-27.2744394" lon="151.2900646">
  <ele>343.1</ele>
  <time>2026-09-01T19:53:48Z</time>
  <course>142.23</course>
  <speed>0.0</speed>
  <fix>3d</fix>
</trkpt>
<trkpt lat="-27.2744394" lon="151.2900646">
  <ele>343.1</ele>
  <time>2026-09-01T19:53:48Z</time>
  <course>188.23</course>
  <speed>0.0</speed>
  <fix>3d</fix>
</trkpt>
<trkpt lat="-27.2744394" lon="151.2900646">
  <ele>343.1</ele>
  <time>2026-09-01T19:53:48Z</time>
  <course>145.93</course>
  <speed>0.0</speed>
  <fix>3d</fix>
</trkpt>
<trkpt lat="-27.2744394" lon="151.2900646">
  <ele>343.1</ele>
  <time>2026-09-01T19:53:48Z</time>
  <course>188.23</course>
  <speed>0.0</speed>
  <fix>3d</fix>
</trkpt>
<trkpt lat="-27.2744394" lon="151.2900646">
  <ele>343.1</ele>
  <time>2026-09-01T19:53:48Z</time>
  <course>145.93</course>
  <speed>0.0</speed>
  <fix>3d</fix>
</trkpt>
<trkpt lat="-27.2744394" lon="151.2900646">
  <ele>343.1</ele>
  <time>2026-09-01T19:53:48Z</time>
  <course>188.23</course>
  <speed>0.0</speed>
  <fix>3d</fix>
</trkpt>
<trkpt lat="-27.2744394" lon="151.2900646">
  <ele>343.1</ele>
  <time>2026-09-01T19:53:48Z</time>
  <course>323.09</course>
  <speed>0.0</speed>
  <fix>3d</fix>
</trkpt>
<trkpt lat="-27.2744394" lon="151.2900646">
  <ele>343.1</ele>
  <time>2026-09-01T19:53:48Z</time>
  <course>188.23</course>
  <speed>0.0</speed>
  <fix>3d</fix>
</trkpt>
<trkpt lat="-27.2744394" lon="151.2900646">
  <ele>343.1</ele>
  <time>2026-09-01T19:53:48Z</time>
  <course>323.09</course>
  <speed>0.0</speed>
  <fix>3d</fix>
</trkpt>
<trkpt lat="-27.2744394" lon="151.2900646">
  <ele>343.1</ele>
  <time>2026-09-01T19:53:48Z</time>
  <course>188.23</course>
  <speed>0.0</speed>
  <fix>3d</fix>
</trkpt>
<trkpt lat="-27.2744394" lon="151.2900646">
  <ele>343.1</ele>
  <time>2026-09-01T19:53:48Z</time>
  <course>323.68</course>
  <speed>0.0</speed>
  <fix>3d</fix>
</trkpt>
<trkpt lat="-27.2744394" lon="151.2900646">
  <ele>343.1</ele>
  <time>2026-09-01T19:53:48Z</time>
  <course>188.23</course>
  <speed>0.0</speed>
  <fix>3d</fix>
</trkpt>
<trkpt lat="-27.2744394" lon="151.2900646">
  <ele>343.1</ele>
  <time>2026-09-01T19:53:48Z</time>
  <course>323.68</course>
  <speed>0.0</speed>
  <fix>3d</fix>
</trkpt>
<trkpt lat="-27.2744394" lon="151.2900646">
  <ele>343.1</ele>
  <time>2026-09-01T19:53:48Z</time>
  <course>188.23</course>
  <speed>0.0</speed>
  <fix>3d</fix>
</trkpt>
<trkpt lat="-27.2744394" lon="151.2900646">
  <ele>343.1</ele>
  <time>2026-09-01T19:53:48Z</time>
  <course>153.15</course>
  <speed>0.0</speed>
  <fix>3d</fix>
</trkpt>
<trkpt lat="-27.2744394" lon="151.2900646">
  <ele>343.1</ele>
  <time>2026-09-01T19:53:48Z</time>
  <course>188.23</course>
  <speed>0.0</speed>
  <fix>3d</fix>
</trkpt>
<trkpt lat="-27.2744394" lon="151.2900646">
  <ele>343.1</ele>
  <time>2026-09-01T19:53:48Z</time>
  <course>153.15</course>
  <speed>0.0</speed>
  <fix>3d</fix>
</trkpt>
<trkpt lat="-27.2744394" lon="151.2900646">
  <ele>343.1</ele>
  <time>2026-09-01T19:53:48Z</time>
  <course>188.23</course>
  <speed>0.0</speed>
  <fix>3d</fix>
</trkpt>
<trkpt lat="-27.2744394" lon="151.2900646">
  <ele>343.1</ele>
  <time>2026-09-01T19:53:48Z</time>
  <course>176.87</course>
  <speed>0.0</speed>
  <fix>3d</fix>
</trkpt>
<trkpt lat="-27.2744394" lon="151.2900646">
  <ele>343.1</ele>
  <time>2026-09-01T19:53:48Z</time>
  <course>188.23</course>
  <speed>0.0</speed>
  <fix>3d</fix>
</trkpt>
<trkpt lat="-27.2744394" lon="151.2900646">
  <ele>343.1</ele>
  <time>2026-09-01T19:53:48Z</time>
  <course>176.87</course>
  <speed>0.0</speed>
  <fix>3d</fix>
</trkpt>
<trkpt lat="-27.2744394" lon="151.2900646">
  <ele>343.1</ele>
  <time>2026-09-01T19:53:48Z</time>
  <course>188.23</course>
  <speed>0.0</speed>
  <fix>3d</fix>
</trkpt>
<trkpt lat="-27.2744394" lon="151.2900646">
  <ele>343.1</ele>
  <time>2026-09-01T19:53:48Z</time>
  <course>190.66</course>
  <speed>0.0</speed>
  <fix>3d</fix>
</trkpt>
<trkpt lat="-27.2744394" lon="151.2900646">
  <ele>343.1</ele>
  <time>2026-09-01T19:53:48Z</time>
  <course>188.23</course>
  <speed>0.0</speed>
  <fix>3d</fix>
</trkpt>
<trkpt lat="-27.2744394" lon="151.2900646">
  <ele>343.1</ele>
  <time>2026-09-01T19:53:48Z</time>
  <course>190.66</course>
  <speed>0.0</speed>
  <fix>3d</fix>
</trkpt>
<trkpt lat="-27.2744394" lon="151.2900646">
  <ele>343.1</ele>
  <time>2026-09-01T19:53:48Z</time>
  <course>188.23</course>
  <speed>0.0</speed>
  <fix>3d</fix>
</trkpt>
<trkpt lat="-27.2744394" lon="151.2900646">
  <ele>343.1</ele>
  <time>2026-09-01T19:53:48Z</time>
  <course>188.8</course>
  <speed>0.0</speed>
  <fix>3d</fix>
</trkpt>
<trkpt lat="-27.2744394" lon="151.2900646">
  <ele>343.1</ele>
  <time>2026-09-01T19:53:48Z</time>
  <course>188.23</course>
  <speed>0.0</speed>
  <fix>3d</fix>
</trkpt>
<trkpt lat="-27.2744394" lon="151.2900646">
  <ele>343.1</ele>
  <time>2026-09-01T19:53:48Z</time>
  <course>188.8</course>
  <speed>0.0</speed>
  <fix>3d</fix>
</trkpt>
<trkpt lat="-27.2744394" lon="151.2900646">
  <ele>343.1</ele>
  <time>2026-09-01T19:53:48Z</time>
  <course>188.23</course>
  <speed>0.0</speed>
  <fix>3d</fix>
</trkpt>
<trkpt lat="-27.2744394" lon="151.2900646">
  <ele>343.1</ele>
  <time>2026-09-01T19:53:48Z</time>
  <course>188.4</course>
  <speed>0.0</speed>
  <fix>3d</fix>
</trkpt>
<trkpt lat="-27.2744394" lon="151.2900646">
  <ele>343.1</ele>
  <time>2026-09-01T19:53:48Z</time>
  <course>188.23</course>
  <speed>0.0</speed>
  <fix>3d</fix>
</trkpt>
<trkpt lat="-27.2744394" lon="151.2900646">
  <ele>343.1</ele>
  <time>2026-09-01T19:53:48Z</time>
  <course>188.4</course>
  <speed>0.0</speed>
  <fix>3d</fix>
</trkpt>
<trkpt lat="-27.2744394" lon="151.2900646">
  <ele>343.1</ele>
  <time>2026-09-01T19:53:48Z</time>
  <course>188.23</course>
  <speed>0.0</speed>
  <fix>3d</fix>
</trkpt>
<trkpt lat="-27.2744394" lon="151.2900646">
  <ele>343.1</ele>
  <time>2026-09-01T19:53:48Z</time>
  <course>188.35</course>
  <speed>0.0</speed>
  <fix>3d</fix>
</trkpt>
<trkpt lat="-27.2744394" lon="151.2900646">
  <ele>343.1</ele>
  <time>2026-09-01T19:53:48Z</time>
  <course>188.23</course>
  <speed>0.0</speed>
  <fix>3d</fix>
</trkpt>
<trkpt lat="-27.2744394" lon="151.2900646">
  <ele>343.1</ele>
  <time>2026-09-01T19:53:48Z</time>
  <course>188.35</course>
  <speed>0.0</speed>
  <fix>3d</fix>
</trkpt>
<trkpt lat="-27.2744394" lon="151.2900646">
  <ele>343.1</ele>
  <time>2026-09-01T19:53:48Z</time>
  <course>188.23</course>
  <speed>0.0</speed>
  <fix>3d</fix>
</trkpt>
<trkpt lat="-27.2744394" lon="151.2900646">
  <ele>343.1</ele>
  <time>2026-09-01T19:53:48Z</time>
  <course>188.34</course>
  <speed>0.0</speed>
  <fix>3d</fix>
</trkpt>
<trkpt lat="-27.2744394" lon="151.2900646">
  <ele>343.1</ele>
  <time>2026-09-01T19:53:48Z</time>
  <course>188.23</course>
  <speed>0.0</speed>
  <fix>3d</fix>
</trkpt>
<trkpt lat="-27.2744394" lon="151.2900646">
  <ele>343.1</ele>
  <time>2026-09-01T19:53:48Z</time>
  <course>188.34</course>
  <speed>0.0</speed>
  <fix>3d</fix>
</trkpt>
<trkpt lat="-27.2744394" lon="151.2900646">
  <ele>343.1</ele>
  <time>2026-09-01T19:53:48Z</time>
  <course>188.23</course>
  <speed>0.0</speed>
  <fix>3d</fix>
</trkpt>
<trkpt lat="-27.2744394" lon="151.2900646">
  <ele>343.1</ele>
  <time>2026-09-01T19:53:48Z</time>
  <course>188.34</course>
  <speed>0.0</speed>
  <fix>3d</fix>
</trkpt>
<trkpt lat="-27.2744394" lon="151.2900646">
  <ele>343.1</ele>
  <time>2026-09-01T19:53:48Z</time>
  <course>188.23</course>
  <speed>0.0</speed>
  <fix>3d</fix>
</trkpt>
<trkpt lat="-27.2744394" lon="151.2900646">
  <ele>343.1</ele>
  <time>2026-09-01T19:53:48Z</time>
  <course>188.34</course>
  <speed>0.0</speed>
  <fix>3d</fix>
</trkpt>
<trkpt lat="-27.2744394" lon="151.2900646">
  <ele>343.1</ele>
  <time>2026-09-01T19:53:48Z</time>
  <course>188.23</course>
  <speed>0.0</speed>
  <fix>3d</fix>
</trkpt>
<trkpt lat="-27.2744394" lon="151.2900646">
  <ele>343.1</ele>
  <time>2026-09-01T19:53:48Z</time>
  <course>188.34</course>
  <speed>0.0</speed>
  <fix>3d</fix>
</trkpt>
<trkpt lat="-27.2744394" lon="151.2900646">
  <ele>343.1</ele>
  <time>2026-09-01T19:53:48Z</time>
  <course>188.23</course>
  <speed>0.0</speed>
  <fix>3d</fix>
</trkpt>
<trkpt lat="-27.2744394" lon="151.2900646">
  <ele>343.1</ele>
  <time>2026-09-01T19:53:48Z</time>
  <course>188.34</course>
  <speed>0.0</speed>
  <fix>3d</fix>
</trkpt>
<trkpt lat="-27.2744394" lon="151.2900646">
  <ele>343.1</ele>
  <time>2026-09-01T19:53:48Z</time>
  <course>188.23</course>
  <speed>0.0</speed>
  <fix>3d</fix>
</trkpt>
<trkpt lat="-27.2744394" lon="151.2900646">
  <ele>343.1</ele>
  <time>2026-09-01T19:53:48Z</time>
  <course>188.34</course>
  <speed>0.0</speed>
  <fix>3d</fix>
</trkpt>
<trkpt lat="-27.2744394" lon="151.2900646">
  <ele>343.1</ele>
  <time>2026-09-01T19:53:48Z</time>
  <course>188.23</course>
  <speed>0.0</speed>
  <fix>3d</fix>
</trkpt>
<trkpt lat="-27.2744394" lon="151.2900646">
  <ele>343.1</ele>
  <time>2026-09-01T19:53:48Z</time>
  <course>188.34</course>
  <speed>0.0</speed>
  <fix>3d</fix>
</trkpt>
<trkpt lat="-27.2744394" lon="151.2900646">
  <ele>343.1</ele>
  <time>2026-09-01T19:53:48Z</time>
  <course>188.23</course>
  <speed>0.0</speed>
  <fix>3d</fix>
</trkpt>
<trkpt lat="-27.2744394" lon="151.2900646">
  <ele>343.1</ele>
  <time>2026-09-01T19:53:48Z</time>
  <course>188.34</course>
  <speed>0.0</speed>
  <fix>3d</fix>
</trkpt>
<trkpt lat="-27.2744394" lon="151.2900646">
  <ele>343.1</ele>
  <time>2026-09-01T19:53:48Z</time>
  <course>188.23</course>
  <speed>0.0</speed>
  <fix>3d</fix>
</trkpt>
<trkpt lat="-27.2744394" lon="151.2900646">
  <ele>343.1</ele>
  <time>2026-09-01T19:53:48Z</time>
  <course>188.34</course>
  <speed>0.0</speed>
  <fix>3d</fix>
</trkpt>
<trkpt lat="-27.2744394" lon="151.2900646">
  <ele>343.1</ele>
  <time>2026-09-01T19:53:48Z</time>
  <course>188.23</course>
  <speed>0.0</speed>
  <fix>3d</fix>
</trkpt>
<trkpt lat="-27.2744394" lon="151.2900646">
  <ele>343.1</ele>
  <time>2026-09-01T19:53:48Z</time>
  <course>188.34</course>
  <speed>0.0</speed>
  <fix>3d</fix>
</trkpt>
<trkpt lat="-27.2744394" lon="151.2900646">
  <ele>343.1</ele>
  <time>2026-09-01T19:53:48Z</time>
  <course>188.23</course>
  <speed>0.0</speed>
  <fix>3d</fix>
</trkpt>
<trkpt lat="-27.2744394" lon="151.2900646">
  <ele>343.1</ele>
  <time>2026-09-01T19:53:48Z</time>
  <course>188.34</course>
  <speed>0.0</speed>
  <fix>3d</fix>
</trkpt>
<trkpt lat="-27.2744394" lon="151.2900646">
  <ele>343.1</ele>
  <time>2026-09-01T19:53:48Z</time>
  <course>188.23</course>
  <speed>0.0</speed>
  <fix>3d</fix>
</trkpt>
<trkpt lat="-27.2744394" lon="151.2900646">
  <ele>343.1</ele>
  <time>2026-09-01T19:53:48Z</time>
  <course>188.34</course>
  <speed>0.0</speed>
  <fix>3d</fix>
</trkpt>
<trkpt lat="-27.2744394" lon="151.2900646">
  <ele>343.1</ele>
  <time>2026-09-01T19:53:48Z</time>
  <course>188.23</course>
  <speed>0.0</speed>
  <fix>3d</fix>
</trkpt>
<trkpt lat="-27.2744394" lon="151.2900646">
  <ele>343.1</ele>
  <time>2026-09-01T19:53:48Z</time>
  <course>188.34</course>
  <speed>0.0</speed>
  <fix>3d</fix>
</trkpt>
<trkpt lat="-27.2744394" lon="151.2900646">
  <ele>343.1</ele>
  <time>2026-09-01T19:53:48Z</time>
  <course>188.23</course>
  <speed>0.0</speed>
  <fix>3d</fix>
</trkpt>
<trkpt lat="-27.2744394" lon="151.2900646">
  <ele>343.1</ele>
  <time>2026-09-01T19:53:48Z</time>
  <course>188.34</course>
  <speed>0.0</speed>
  <fix>3d</fix>
</trkpt>
<trkpt lat="-27.2744394" lon="151.2900646">
  <ele>343.1</ele>
  <time>2026-09-01T19:53:48Z</time>
  <course>188.23</course>
  <speed>0.0</speed>
  <fix>3d</fix>
</trkpt>
<trkpt lat="-27.2744394" lon="151.2900646">
  <ele>343.1</ele>
  <time>2026-09-01T19:53:48Z</time>
  <course>188.34</course>
  <speed>0.0</speed>
  <fix>3d</fix>
</trkpt>
<trkpt lat="-27.2744394" lon="151.2900646">
  <ele>343.1</ele>
  <time>2026-09-01T19:53:48Z</time>
  <course>188.23</course>
  <speed>0.0</speed>
  <fix>3d</fix>
</trkpt>
<trkpt lat="-27.2744394" lon="151.2900646">
  <ele>343.1</ele>
  <time>2026-09-01T19:53:48Z</time>
  <course>188.34</course>
  <speed>0.0</speed>
  <fix>3d</fix>
</trkpt>
<trkpt lat="-27.2744394" lon="151.2900646">
  <ele>343.1</ele>
  <time>2026-09-01T19:53:48Z</time>
  <course>188.23</course>
  <speed>0.0</speed>
  <fix>3d</fix>
</trkpt>
<trkpt lat="-27.2744394" lon="151.2900646">
  <ele>343.1</ele>
  <time>2026-09-01T19:53:48Z</time>
  <course>188.34</course>
  <speed>0.0</speed>
  <fix>3d</fix>
</trkpt>
<trkpt lat="-27.2744394" lon="151.2900646">
  <ele>343.1</ele>
  <time>2026-09-01T19:53:48Z</time>
  <course>188.23</course>
  <speed>0.0</speed>
  <fix>3d</fix>
</trkpt>
<trkpt lat="-27.2744394" lon="151.2900646">
  <ele>343.1</ele>
  <time>2026-09-01T19:53:48Z</time>
  <course>188.34</course>
  <speed>0.0</speed>
  <fix>3d</fix>
</trkpt>
<trkpt lat="-27.2744394" lon="151.2900646">
  <ele>343.1</ele>
  <time>2026-09-01T19:53:48Z</time>
  <course>188.23</course>
  <speed>0.0</speed>
  <fix>3d</fix>
</trkpt>
<trkpt lat="-27.2744394" lon="151.2900646">
  <ele>343.1</ele>
  <time>2026-09-01T19:53:48Z</time>
  <course>188.34</course>
  <speed>0.0</speed>
  <fix>3d</fix>
</trkpt>
<trkpt lat="-27.2744394" lon="151.2900646">
  <ele>343.1</ele>
  <time>2026-09-01T19:53:48Z</time>
  <course>188.23</course>
  <speed>0.0</speed>
  <fix>3d</fix>
</trkpt>
<trkpt lat="-27.2744394" lon="151.2900646">
  <ele>343.1</ele>
  <time>2026-09-01T19:53:48Z</time>
  <course>188.34</course>
  <speed>0.0</speed>
  <fix>3d</fix>
</trkpt>
<trkpt lat="-27.2744394" lon="151.2900646">
  <ele>343.1</ele>
  <time>2026-09-01T19:53:48Z</time>
  <course>188.23</course>
  <speed>0.0</speed>
  <fix>3d</fix>
</trkpt>
<trkpt lat="-27.2744394" lon="151.2900646">
  <ele>343.1</ele>
  <time>2026-09-01T19:53:48Z</time>
  <course>188.34</course>
  <speed>0.0</speed>
  <fix>3d</fix>
</trkpt>
<trkpt lat="-27.2744394" lon="151.2900646">
  <ele>343.1</ele>
  <time>2026-09-01T19:53:48Z</time>
  <course>188.23</course>
  <speed>0.0</speed>
  <fix>3d</fix>
</trkpt>
<trkpt lat="-27.2744394" lon="151.2900646">
  <ele>343.1</ele>
  <time>2026-09-01T19:53:48Z</time>
  <course>188.34</course>
  <speed>0.0</speed>
  <fix>3d</fix>
</trkpt>
<trkpt lat="-27.2744394" lon="151.2900646">
  <ele>343.1</ele>
  <time>2026-09-01T19:53:48Z</time>
  <course>188.23</course>
  <speed>0.0</speed>
  <fix>3d</fix>
</trkpt>
<trkpt lat="-27.2744394" lon="151.2900646">
  <ele>343.1</ele>
  <time>2026-09-01T19:53:48Z</time>
  <course>188.34</course>
  <speed>0.0</speed>
  <fix>3d</fix>
</trkpt>
<trkpt lat="-27.2744394" lon="151.2900646">
  <ele>343.1</ele>
  <time>2026-09-01T19:53:48Z</time>
  <course>188.23</course>
  <speed>0.0</speed>
  <fix>3d</fix>
</trkpt>
<trkpt lat="-27.2744394" lon="151.2900646">
  <ele>343.1</ele>
  <time>2026-09-01T19:53:48Z</time>
  <course>188.34</course>
  <speed>0.0</speed>
  <fix>3d</fix>
</trkpt>
<trkpt lat="-27.2744394" lon="151.2900646">
  <ele>343.1</ele>
  <time>2026-09-01T19:53:48Z</time>
  <course>188.23</course>
  <speed>0.0</speed>
  <fix>3d</fix>
</trkpt>
<trkpt lat="-27.2744394" lon="151.2900646">
  <ele>343.1</ele>
  <time>2026-09-01T19:53:48Z</time>
  <course>188.34</course>
  <speed>0.0</speed>
  <fix>3d</fix>
</trkpt>
<trkpt lat="-27.2744394" lon="151.2900646">
  <ele>343.1</ele>
  <time>2026-09-01T19:53:48Z</time>
  <course>188.23</course>
  <speed>0.0</speed>
  <fix>3d</fix>
</trkpt>
<trkpt lat="-27.2744394" lon="151.2900646">
  <ele>343.1</ele>
  <time>2026-09-01T19:53:48Z</time>
  <course>188.34</course>
  <speed>0.0</speed>
  <fix>3d</fix>
</trkpt>
<trkpt lat="-27.2744394" lon="151.2900646">
  <ele>343.1</ele>
  <time>2026-09-01T19:53:48Z</time>
  <course>188.23</course>
  <speed>0.0</speed>
  <fix>3d</fix>
</trkpt>
<trkpt lat="-27.2744394" lon="151.2900646">
  <ele>343.1</ele>
  <time>2026-09-01T19:53:48Z</time>
  <course>188.34</course>
  <speed>0.0</speed>
  <fix>3d</fix>
</trkpt>
<trkpt lat="-27.2744394" lon="151.2900646">
  <ele>343.1</ele>
  <time>2026-09-01T19:53:48Z</time>
  <course>188.23</course>
  <speed>0.0</speed>
  <fix>3d</fix>
</trkpt>
<trkpt lat="-27.2744394" lon="151.2900646">
  <ele>343.1</ele>
  <time>2026-09-01T19:53:48Z</time>
  <course>188.34</course>
  <speed>0.0</speed>
  <fix>3d</fix>
</trkpt>
<trkpt lat="-27.2744394" lon="151.2900646">
  <ele>343.1</ele>
  <time>2026-09-01T19:53:48Z</time>
  <course>188.23</course>
  <speed>0.0</speed>
  <fix>3d</fix>
</trkpt>
<trkpt lat="-27.2744394" lon="151.2900646">
  <ele>343.1</ele>
  <time>2026-09-01T19:53:48Z</time>
  <course>188.34</course>
  <speed>0.0</speed>
  <fix>3d</fix>
</trkpt>
<trkpt lat="-27.2744394" lon="151.2900646">
  <ele>343.1</ele>
  <time>2026-09-01T19:53:48Z</time>
  <course>188.23</course>
  <speed>0.0</speed>
  <fix>3d</fix>
</trkpt>
<trkpt lat="-27.2744394" lon="151.2900646">
  <ele>343.1</ele>
  <time>2026-09-01T19:53:48Z</time>
  <course>188.34</course>
  <speed>0.0</speed>
  <fix>3d</fix>
</trkpt>
<trkpt lat="-27.2744394" lon="151.2900646">
  <ele>343.1</ele>
  <time>2026-09-01T19:53:48Z</time>
  <course>188.23</course>
  <speed>0.0</speed>
  <fix>3d</fix>
</trkpt>
<trkpt lat="-27.2744394" lon="151.2900646">
  <ele>343.1</ele>
  <time>2026-09-01T19:53:48Z</time>
  <course>188.34</course>
  <speed>0.0</speed>
  <fix>3d</fix>
</trkpt>
<trkpt lat="-27.2744394" lon="151.2900646">
  <ele>343.1</ele>
  <time>2026-09-01T19:53:48Z</time>
  <course>188.23</course>
  <speed>0.0</speed>
  <fix>3d</fix>
</trkpt>
<trkpt lat="-27.2744394" lon="151.2900646">
  <ele>343.1</ele>
  <time>2026-09-01T19:53:48Z</time>
  <course>142.29</course>
  <speed>0.0</speed>
  <fix>3d</fix>
</trkpt>
<trkpt lat="-27.2744394" lon="151.2900646">
  <ele>343.1</ele>
  <time>2026-09-01T19:53:48Z</time>
  <course>188.23</course>
  <speed>0.0</speed>
  <fix>3d</fix>
</trkpt>
<trkpt lat="-27.2744394" lon="151.2900646">
  <ele>343.1</ele>
  <time>2026-09-01T19:53:48Z</time>
  <course>142.29</course>
  <speed>0.0</speed>
  <fix>3d</fix>
</trkpt>
<trkpt lat="-27.2744394" lon="151.2900646">
  <ele>343.1</ele>
  <time>2026-09-01T19:53:48Z</time>
  <course>188.23</course>
  <speed>0.0</speed>
  <fix>3d</fix>
</trkpt>
<trkpt lat="-27.2744394" lon="151.2900646">
  <ele>343.1</ele>
  <time>2026-09-01T19:53:48Z</time>
  <course>143.28</course>
  <speed>0.0</speed>
  <fix>3d</fix>
</trkpt>
<trkpt lat="-27.2744394" lon="151.2900646">
  <ele>343.1</ele>
  <time>2026-09-01T19:53:48Z</time>
  <course>188.23</course>
  <speed>0.0</speed>
  <fix>3d</fix>
</trkpt>
<trkpt lat="-27.2744394" lon="151.2900646">
  <ele>343.1</ele>
  <time>2026-09-01T19:53:48Z</time>
  <course>143.28</course>
  <speed>0.0</speed>
  <fix>3d</fix>
</trkpt>
<trkpt lat="-27.2744394" lon="151.2900646">
  <ele>343.1</ele>
  <time>2026-09-01T19:53:49Z</time>
  <course>188.23</course>
  <speed>0.0</speed>
  <fix>3d</fix>
</trkpt>
<trkpt lat="-27.2744394" lon="151.2900646">
  <ele>343.1</ele>
  <time>2026-09-01T19:53:49Z</time>
  <course>321.42</course>
  <speed>0.0</speed>
  <fix>3d</fix>
</trkpt>
<trkpt lat="-27.2744394" lon="151.2900646">
  <ele>343.1</ele>
  <time>2026-09-01T19:53:49Z</time>
  <course>188.23</course>
  <speed>0.0</speed>
  <fix>3d</fix>
</trkpt>
<trkpt lat="-27.2744394" lon="151.2900646">
  <ele>343.1</ele>
  <time>2026-09-01T19:53:49Z</time>
  <course>321.42</course>
  <speed>0.0</speed>
  <fix>3d</fix>
</trkpt>
<trkpt lat="-27.2744394" lon="151.2900646">
  <ele>343.1</ele>
  <time>2026-09-01T19:53:49Z</time>
  <course>188.23</course>
  <speed>0.0</speed>
  <fix>3d</fix>
</trkpt>
<trkpt lat="-27.2744394" lon="151.2900646">
  <ele>343.1</ele>
  <time>2026-09-01T19:53:49Z</time>
  <course>320.47</course>
  <speed>0.0</speed>
  <fix>3d</fix>
</trkpt>
<trkpt lat="-27.2744394" lon="151.2900646">
  <ele>343.1</ele>
  <time>2026-09-01T19:53:49Z</time>
  <course>188.23</course>
  <speed>0.0</speed>
  <fix>3d</fix>
</trkpt>
<trkpt lat="-27.2744394" lon="151.2900646">
  <ele>343.1</ele>
  <time>2026-09-01T19:53:49Z</time>
  <course>320.47</course>
  <speed>0.0</speed>
  <fix>3d</fix>
</trkpt>
<trkpt lat="-27.2744394" lon="151.2900646">
  <ele>343.1</ele>
  <time>2026-09-01T19:53:49Z</time>
  <course>188.23</course>
  <speed>0.0</speed>
  <fix>3d</fix>
</trkpt>
<trkpt lat="-27.2744394" lon="151.2900646">
  <ele>343.1</ele>
  <time>2026-09-01T19:53:49Z</time>
  <course>320.89</course>
  <speed>0.0</speed>
  <fix>3d</fix>
</trkpt>
<trkpt lat="-27.2744394" lon="151.2900646">
  <ele>343.1</ele>
  <time>2026-09-01T19:53:49Z</time>
  <course>188.23</course>
  <speed>0.0</speed>
  <fix>3d</fix>
</trkpt>
<trkpt lat="-27.2744394" lon="151.2900646">
  <ele>343.1</ele>
  <time>2026-09-01T19:53:49Z</time>
  <course>320.89</course>
  <speed>0.0</speed>
  <fix>3d</fix>
</trkpt>
<trkpt lat="-27.2744394" lon="151.2900646">
  <ele>343.11</ele>
  <time>2026-09-01T19:53:49Z</time>
  <course>188.23</course>
  <speed>0.0</speed>
  <fix>3d</fix>
</trkpt>
<trkpt lat="-27.2744394" lon="151.2900646">
  <ele>343.1</ele>
  <time>2026-09-01T19:53:49Z</time>
  <course>193.67</course>
  <speed>0.0</speed>
  <fix>3d</fix>
</trkpt>
<trkpt lat="-27.2744394" lon="151.2900646">
  <ele>343.14</ele>
  <time>2026-09-01T19:53:49Z</time>
  <course>188.23</course>
  <speed>0.0</speed>
  <fix>3d</fix>
</trkpt>
<trkpt lat="-27.2744394" lon="151.2900646">
  <ele>343.1</ele>
  <time>2026-09-01T19:53:49Z</time>
  <course>193.67</course>
  <speed>0.0</speed>
  <fix>3d</fix>
</trkpt>
<trkpt lat="-27.2744394" lon="151.2900646">
  <ele>343.19</ele>
  <time>2026-09-01T19:53:49Z</time>
  <course>188.23</course>
  <speed>0.0</speed>
  <fix>3d</fix>
</trkpt>
<trkpt lat="-27.2744394" lon="151.2900646">
  <ele>343.12</ele>
  <time>2026-09-01T19:53:49Z</time>
  <course>188.26</course>
  <speed>0.0</speed>
  <fix>3d</fix>
</trkpt>
<trkpt lat="-27.2744394" lon="151.2900646">
  <ele>343.27</ele>
  <time>2026-09-01T19:53:49Z</time>
  <course>188.23</course>
  <speed>0.01</speed>
  <fix>3d</fix>
</trkpt>
<trkpt lat="-27.2744394" lon="151.2900646">
  <ele>343.12</ele>
  <time>2026-09-01T19:53:49Z</time>
  <course>188.26</course>
  <speed>0.0</speed>
  <fix>3d</fix>
</trkpt>
<trkpt lat="-27.2744395" lon="151.2900646">
  <ele>343.4</ele>
  <time>2026-09-01T19:53:49Z</time>
  <course>188.23</course>
  <speed>0.04</speed>
  <fix>3d</fix>
</trkpt>
<trkpt lat="-27.2744394" lon="151.2900646">
  <ele>343.2</ele>
  <time>2026-09-01T19:53:49Z</time>
  <course>189.43</course>
  <speed>0.0</speed>
  <fix>3d</fix>
</trkpt>
<trkpt lat="-27.2744395" lon="151.2900646">
  <ele>343.6</ele>
  <time>2026-09-01T19:53:49Z</time>
  <course>188.22</course>
  <speed>0.08062257748298549</speed>
  <fix>3d</fix>
</trkpt>
<trkpt lat="-27.2744394" lon="151.2900646">
  <ele>343.2</ele>
  <time>2026-09-01T19:53:49Z</time>
  <course>189.43</course>
  <speed>0.0</speed>
  <fix>3d</fix>
</trkpt>
<trkpt lat="-27.2744396" lon="151.2900646">
  <ele>343.85</ele>
  <time>2026-09-01T19:53:49Z</time>
  <course>188.22</course>
  <speed>0.12041594578792296</speed>
  <fix>3d</fix>
</trkpt>
<trkpt lat="-27.2744394" lon="151.2900646">
  <ele>343.42</ele>
  <time>2026-09-01T19:53:49Z</time>
  <course>188.34</course>
  <speed>0.04</speed>
  <fix>3d</fix>
</trkpt>
<trkpt lat="-27.2744397" lon="151.2900646">
  <ele>344.11</ele>
  <time>2026-09-01T19:53:49Z</time>
  <course>188.23</course>
  <speed>0.16124515496597097</speed>
  <fix>3d</fix>
</trkpt>
<trkpt lat="-27.2744394" lon="151.2900646">
  <ele>343.42</ele>
  <time>2026-09-01T19:53:49Z</time>
  <course>188.34</course>
  <speed>0.04</speed>
  <fix>3d</fix>
</trkpt>
<trkpt lat="-27.2744399" lon="151.2900646">
  <ele>344.39</ele>
  <time>2026-09-01T19:53:49Z</time>
  <course>188.23</course>
  <speed>0.2009975124224178</speed>
  <fix>3d</fix>
</trkpt>
<trkpt lat="-27.2744396" lon="151.2900646">
  <ele>343.84</ele>
  <time>2026-09-01T19:53:49Z</time>
  <course>188.02</course>
  <speed>0.12</speed>
  <fix>3d</fix>
</trkpt>
<trkpt lat="-27.2744401" lon="151.2900645">
  <ele>344.69</ele>
  <time>2026-09-01T19:53:49Z</time>
  <course>188.23</course>
  <speed>0.24186773244895649</speed>
  <fix>3d</fix>
</trkpt>
<trkpt lat="-27.2744396" lon="151.2900646">
  <ele>343.84</ele>
  <time>2026-09-01T19:53:49Z</time>
  <course>188.02</course>
  <speed>0.12</speed>
  <fix>3d</fix>
</trkpt>
<trkpt lat="-27.2744403" lon="151.2900645">
  <ele>344.99</ele>
  <time>2026-09-01T19:53:49Z</time>
  <course>188.24</course>
  <speed>0.282842712474619</speed>
  <fix>3d</fix>
</trkpt>
<trkpt lat="-27.2744399" lon="151.2900645">
  <ele>344.38</ele>
  <time>2026-09-01T19:53:49Z</time>
  <course>188.04</course>
  <speed>0.2</speed>
  <fix>3d</fix>
</trkpt>
<trkpt lat="-27.2744406" lon="151.2900644">
  <ele>345.31</ele>
  <time>2026-09-01T19:53:49Z</time>
  <course>188.23</course>
  <speed>0.32249030993194194</speed>
  <fix>3d</fix>
</trkpt>
<trkpt lat="-27.2744399" lon="151.2900645">
  <ele>344.38</ele>
  <time>2026-09-01T19:53:49Z</time>
  <course>188.04</course>
  <speed>0.2</speed>
  <fix>3d</fix>
</trkpt>
<trkpt lat="-27.2744409" lon="151.2900644">
  <ele>345.64</ele>
  <time>2026-09-01T19:53:49Z</time>
  <course>188.23</course>
  <speed>0.3535533905932738</speed>
  <fix>3d</fix>
</trkpt>
<trkpt lat="-27.2744403" lon="151.2900644">
  <ele>344.98</ele>
  <time>2026-09-01T19:53:49Z</time>
  <course>188.13</course>
  <speed>0.28</speed>
  <fix>3d</fix>
</trkpt>
<trkpt lat="-27.2744412" lon="151.2900642">
  <ele>345.97</ele>
  <time>2026-09-01T19:53:49Z</time>
  <course>188.24</course>
  <speed>0.383275357934736</speed>
  <fix>3d</fix>
</trkpt>
<trkpt lat="-27.2744403" lon="151.2900644">
  <ele>344.98</ele>
  <time>2026-09-01T19:53:49Z</time>
  <course>188.13</course>
  <speed>0.28</speed>
  <fix>3d</fix>
</trkpt>
<trkpt lat="-27.2744416" lon="151.2900642">
  <ele>346.31</ele>
  <time>2026-09-01T19:53:49Z</time>
  <course>188.24</course>
  <speed>0.4143669871020132</speed>
  <fix>3d</fix>
</trkpt>
<trkpt lat="-27.2744409" lon="151.2900643">
  <ele>345.63</ele>
  <time>2026-09-01T19:53:49Z</time>
  <course>188.24</course>
  <speed>0.35</speed>
  <fix>3d</fix>
</trkpt>
<trkpt lat="-27.274442" lon="151.2900642">
  <ele>346.64</ele>
  <time>2026-09-01T19:53:49Z</time>
  <course>188.24</course>
  <speed>0.4341658669218482</speed>
  <fix>3d</fix>
</trkpt>
<trkpt lat="-27.2744409" lon="151.2900643">
  <ele>345.63</ele>
  <time>2026-09-01T19:53:49Z</time>
  <course>188.24</course>
  <speed>0.35</speed>
  <fix>3d</fix>
</trkpt>
<trkpt lat="-27.2744424" lon="151.2900642">
  <ele>346.97</ele>
  <time>2026-09-01T19:53:49Z</time>
  <course>188.25</course>
  <speed>0.4440720662234904</speed>
  <fix>3d</fix>
</trkpt>
<trkpt lat="-27.2744416" lon="151.2900642">
  <ele>346.28</ele>
  <time>2026-09-01T19:53:49Z</time>
  <course>188.33</course>
  <speed>0.41</speed>
  <fix>3d</fix>
</trkpt>
<trkpt lat="-27.2744428" lon="151.2900641">
  <ele>347.29</ele>
  <time>2026-09-01T19:53:49Z</time>
  <course>188.26</course>
  <speed>0.45398237851264667</speed>
  <fix>3d</fix>
</trkpt>
<trkpt lat="-27.2744416" lon="151.2900642">
  <ele>346.28</ele>
  <time>2026-09-01T19:53:49Z</time>
  <course>188.33</course>
  <speed>0.41</speed>
  <fix>3d</fix>
</trkpt>
<trkpt lat="-27.2744432" lon="151.290064">
  <ele>347.61</ele>
  <time>2026-09-01T19:53:49Z</time>
  <course>188.26</course>
  <speed>0.45398237851264667</speed>
  <fix>3d</fix>
</trkpt>
<trkpt lat="-27.2744424" lon="151.2900641">
  <ele>346.95</ele>
  <time>2026-09-01T19:53:49Z</time>
  <course>188.38</course>
  <speed>0.44</speed>
  <fix>3d</fix>
</trkpt>
<trkpt lat="-27.2744436" lon="151.2900639">
  <ele>347.92</ele>
  <time>2026-09-01T19:53:49Z</time>
  <course>188.26</course>
  <speed>0.4440720662234904</speed>
  <fix>3d</fix>
</trkpt>
<trkpt lat="-27.2744424" lon="151.2900641">
  <ele>346.95</ele>
  <time>2026-09-01T19:53:49Z</time>
  <course>188.38</course>
  <speed>0.44</speed>
  <fix>3d</fix>
</trkpt>
<trkpt lat="-27.274444" lon="151.2900639">
  <ele>348.22</ele>
  <time>2026-09-01T19:53:49Z</time>
  <course>188.26</course>
  <speed>0.4341658669218482</speed>
  <fix>3d</fix>
</trkpt>
<trkpt lat="-27.2744432" lon="151.290064">
  <ele>347.59</ele>
  <time>2026-09-01T19:53:49Z</time>
  <course>188.43</course>
  <speed>0.45</speed>
  <fix>3d</fix>
</trkpt>
<trkpt lat="-27.2744444" lon="151.2900637">
  <ele>348.52</ele>
  <time>2026-09-01T19:53:49Z</time>
  <course>188.25</course>
  <speed>0.4242640687119285</speed>
  <fix>3d</fix>
</trkpt>
<trkpt lat="-27.2744432" lon="151.290064">
  <ele>347.59</ele>
  <time>2026-09-01T19:53:49Z</time>
  <course>188.43</course>
  <speed>0.45</speed>
  <fix>3d</fix>
</trkpt>
<trkpt lat="-27.2744447" lon="151.2900637">
  <ele>348.8</ele>
  <time>2026-09-01T19:53:49Z</time>
  <course>188.24</course>
  <speed>0.39319206502675</speed>
  <fix>3d</fix>
</trkpt>
<trkpt lat="-27.274444" lon="151.2900639">
  <ele>348.21</ele>
  <time>2026-09-01T19:53:49Z</time>
  <course>188.45</course>
  <speed>0.43</speed>
  <fix>3d</fix>
</trkpt>
<trkpt lat="-27.2744451" lon="151.2900637">
  <ele>349.08</ele>
  <time>2026-09-01T19:53:49Z</time>
  <course>188.24</course>
  <speed>0.37336309405188944</speed>
  <fix>3d</fix>
</trkpt>
<trkpt lat="-27.274444" lon="151.2900639">
  <ele>348.21</ele>
  <time>2026-09-01T19:53:49Z</time>
  <course>188.45</course>
  <speed>0.43</speed>
  <fix>3d</fix>
</trkpt>
<trkpt lat="-27.2744454" lon="151.2900636">
  <ele>349.35</ele>
  <time>2026-09-01T19:53:49Z</time>
  <course>188.24</course>
  <speed>0.34365680554879163</speed>
  <fix>3d</fix>
</trkpt>
<trkpt lat="-27.2744447" lon="151.2900637">
  <ele>348.79</ele>
  <time>2026-09-01T19:53:49Z</time>
  <course>188.43</course>
  <speed>0.4</speed>
  <fix>3d</fix>
</trkpt>
<trkpt lat="-27.2744457" lon="151.2900636">
  <ele>349.62</ele>
  <time>2026-09-01T19:53:49Z</time>
  <course>188.24</course>
  <speed>0.3125699921617557</speed>
  <fix>3d</fix>
</trkpt>
<trkpt lat="-27.2744447" lon="151.2900637">
  <ele>348.79</ele>
  <time>2026-09-01T19:53:49Z</time>
  <course>188.43</course>
  <speed>0.4</speed>
  <fix>3d</fix>
</trkpt>
<trkpt lat="-27.274446" lon="151.2900636">
  <ele>349.87</ele>
  <time>2026-09-01T19:53:49Z</time>
  <course>188.24</course>
  <speed>0.282842712474619</speed>
  <fix>3d</fix>
</trkpt>
<trkpt lat="-27.2744454" lon="151.2900636">
  <ele>349.33</ele>
  <time>2026-09-01T19:53:49Z</time>
  <course>188.4</course>
  <speed>0.34</speed>
  <fix>3d</fix>
</trkpt>
<trkpt lat="-27.2744462" lon="151.2900635">
  <ele>350.12</ele>
  <time>2026-09-01T19:53:49Z</time>
  <course>188.24</course>
  <speed>0.24186773244895649</speed>
  <fix>3d</fix>
</trkpt>
<trkpt lat="-27.2744454" lon="151.2900636">
  <ele>349.33</ele>
  <time>2026-09-01T19:53:49Z</time>
  <course>188.4</course>
  <speed>0.34</speed>
  <fix>3d</fix>
</trkpt>
<trkpt lat="-27.2744464" lon="151.2900635">
  <ele>350.37</ele>
  <time>2026-09-01T19:53:49Z</time>
  <course>188.24</course>
  <speed>0.20223748416156684</speed>
  <fix>3d</fix>
</trkpt>
<trkpt lat="-27.2744459" lon="151.2900635">
  <ele>349.85</ele>
  <time>2026-09-01T19:53:49Z</time>
  <course>188.36</course>
  <speed>0.28</speed>
  <fix>3d</fix>
</trkpt>
<trkpt lat="-27.2744466" lon="151.2900635">
  <ele>350.62</ele>
  <time>2026-09-01T19:53:49Z</time>
  <course>188.23</course>
  <speed>0.16124515496597097</speed>
  <fix>3d</fix>
</trkpt>
<trkpt lat="-27.2744459" lon="151.2900635">
  <ele>349.85</ele>
  <time>2026-09-01T19:53:49Z</time>
  <course>188.36</course>
  <speed>0.28</speed>
  <fix>3d</fix>
</trkpt>
<trkpt lat="-27.2744467" lon="151.2900633">
  <ele>350.86</ele>
  <time>2026-09-01T19:53:49Z</time>
  <course>188.23</course>
  <speed>0.12041594578792296</speed>
  <fix>3d</fix>
</trkpt>
<trkpt lat="-27.2744464" lon="151.2900635">
  <ele>350.36</ele>
  <time>2026-09-01T19:53:49Z</time>
  <course>188.36</course>
  <speed>0.2</speed>
  <fix>3d</fix>
</trkpt>
<trkpt lat="-27.2744468" lon="151.2900633">
  <ele>351.1</ele>
  <time>2026-09-01T19:53:49Z</time>
  <course>188.23</course>
  <speed>0.09055385138137417</speed>
  <fix>3d</fix>
</trkpt>
<trkpt lat="-27.2744464" lon="151.2900635">
  <ele>350.36</ele>
  <time>2026-09-01T19:53:49Z</time>
  <course>188.36</course>
  <speed>0.2</speed>
  <fix>3d</fix>
</trkpt>
<trkpt lat="-27.2744469" lon="151.2900633">
  <ele>351.34</ele>
  <time>2026-09-01T19:53:49Z</time>
  <course>188.23</course>
  <speed>0.05</speed>
  <fix>3d</fix>
</trkpt>
<trkpt lat="-27.2744467" lon="151.2900634">
  <ele>350.84</ele>
  <time>2026-09-01T19:53:49Z</time>
  <course>188.35</course>
  <speed>0.13</speed>
  <fix>3d</fix>
</trkpt>
<trkpt lat="-27.2744469" lon="151.2900633">
  <ele>351.58</ele>
  <time>2026-09-01T19:53:49Z</time>
  <course>188.23</course>
  <speed>0.01</speed>
  <fix>3d</fix>
</trkpt>
<trkpt lat="-27.2744467" lon="151.2900634">
  <ele>350.84</ele>
  <time>2026-09-01T19:53:49Z</time>
  <course>188.35</course>
  <speed>0.13</speed>
  <fix>3d</fix>
</trkpt>
<trkpt lat="-27.2744469" lon="151.2900633">
  <ele>351.82</ele>
  <time>2026-09-01T19:53:49Z</time>
  <course>188.23</course>
  <speed>0.01</speed>
  <fix>3d</fix>
</trkpt>
<trkpt lat="-27.2744468" lon="151.2900633">
  <ele>351.33</ele>
  <time>2026-09-01T19:53:49Z</time>
  <course>187.86</course>
  <speed>0.05</speed>
  <fix>3d</fix>
</trkpt>
<trkpt lat="-27.2744469" lon="151.2900633">
  <ele>352.06</ele>
  <time>2026-09-01T19:53:49Z</time>
  <course>188.23</course>
  <speed>0.04</speed>
  <fix>3d</fix>
</trkpt>
<trkpt lat="-27.2744468" lon="151.2900633">
  <ele>351.33</ele>
  <time>2026-09-01T19:53:49Z</time>
  <course>187.86</course>
  <speed>0.05</speed>
  <fix>3d</fix>
</trkpt>
<trkpt lat="-27.2744468" lon="151.2900633">
  <ele>352.3</ele>
  <time>2026-09-01T19:53:49Z</time>
  <course>188.23</course>
  <speed>0.07071067811865475</speed>
  <fix>3d</fix>
</trkpt>
<trkpt lat="-27.2744469" lon="151.2900633">
  <ele>351.81</ele>
  <time>2026-09-01T19:53:49Z</time>
  <course>13.08</course>
  <speed>0.01</speed>
  <fix>3d</fix>
</trkpt>
<trkpt lat="-27.2744468" lon="151.2900633">
  <ele>352.54</ele>
  <time>2026-09-01T19:53:49Z</time>
  <course>188.23</course>
  <speed>0.09055385138137417</speed>
  <fix>3d</fix>
</trkpt>
<trkpt lat="-27.2744469" lon="151.2900633">
  <ele>351.81</ele>
  <time>2026-09-01T19:53:49Z</time>
  <course>13.08</course>
  <speed>0.01</speed>
  <fix>3d</fix>
</trkpt>
<trkpt lat="-27.2744467" lon="151.2900633">
  <ele>352.78</ele>
  <time>2026-09-01T19:53:49Z</time>
  <course>188.22</course>
  <speed>0.12041594578792296</speed>
  <fix>3d</fix>
</trkpt>
<trkpt lat="-27.2744468" lon="151.2900633">
  <ele>352.28</ele>
  <time>2026-09-01T19:53:49Z</time>
  <course>9.27</course>
  <speed>0.07</speed>
  <fix>3d</fix>
</trkpt>
<trkpt lat="-27.2744466" lon="151.2900633">
  <ele>353.03</ele>
  <time>2026-09-01T19:53:49Z</time>
  <course>188.22</course>
  <speed>0.1414213562373095</speed>
  <fix>3d</fix>
</trkpt>
<trkpt lat="-27.2744468" lon="151.2900633">
  <ele>352.28</ele>
  <time>2026-09-01T19:53:49Z</time>
  <course>9.27</course>
  <speed>0.07</speed>
  <fix>3d</fix>
</trkpt>
<trkpt lat="-27.2744465" lon="151.2900633">
  <ele>353.27</ele>
  <time>2026-09-01T19:53:49Z</time>
  <course>188.2</course>
  <speed>0.16124515496597097</speed>
  <fix>3d</fix>
</trkpt>
<trkpt lat="-27.2744467" lon="151.2900633">
  <ele>352.77</ele>
  <time>2026-09-01T19:53:49Z</time>
  <course>8.75</course>
  <speed>0.12</speed>
  <fix>3d</fix>
</trkpt>
<trkpt lat="-27.2744463" lon="151.2900633">
  <ele>353.52</ele>
  <time>2026-09-01T19:53:49Z</time>
  <course>188.2</course>
  <speed>0.16124515496597097</speed>
  <fix>3d</fix>
</trkpt>
<trkpt lat="-27.2744467" lon="151.2900633">
  <ele>352.77</ele>
  <time>2026-09-01T19:53:49Z</time>
  <course>8.75</course>
  <speed>0.12</speed>
  <fix>3d</fix>
</trkpt>
<trkpt lat="-27.2744462" lon="151.2900633">
  <ele>353.77</ele>
  <time>2026-09-01T19:53:49Z</time>
  <course>188.2</course>
  <speed>0.11045361017187261</speed>
  <fix>3d</fix>
</trkpt>
<trkpt lat="-27.2744464" lon="151.2900633">
  <ele>353.26</ele>
  <time>2026-09-01T19:53:49Z</time>
  <course>8.38</course>
  <speed>0.15</speed>
  <fix>3d</fix>
</trkpt>
<trkpt lat="-27.2744461" lon="151.2900635">
  <ele>354.02</ele>
  <time>2026-09-01T19:53:49Z</time>
  <course>188.2</course>
  <speed>0.01</speed>
  <fix>3d</fix>
</trkpt>
<trkpt lat="-27.2744464" lon="151.2900633">
  <ele>353.26</ele>
  <time>2026-09-01T19:53:49Z</time>
  <course>8.38</course>
  <speed>0.15</speed>
  <fix>3d</fix>
</trkpt>
<trkpt lat="-27.2744462" lon="151.2900633">
  <ele>354.27</ele>
  <time>2026-09-01T19:53:49Z</time>
  <course>188.16</course>
  <speed>0.140356688476182</speed>
  <fix>3d</fix>
</trkpt>
<trkpt lat="-27.2744462" lon="151.2900633">
  <ele>353.76</ele>
  <time>2026-09-01T19:53:49Z</time>
  <course>9.43</course>
  <speed>0.09</speed>
  <fix>3d</fix>
</trkpt>
<trkpt lat="-27.2744464" lon="151.2900633">
  <ele>354.53</ele>
  <time>2026-09-01T19:53:49Z</time>
  <course>188.13</course>
  <speed>0.3721558813185679</speed>
  <fix>3d</fix>
</trkpt>
<trkpt lat="-27.2744462" lon="151.2900633">
  <ele>353.76</ele>
  <time>2026-09-01T19:53:49Z</time>
  <course>9.43</course>
  <speed>0.09</speed>
  <fix>3d</fix>
</trkpt>
<trkpt lat="-27.2744468" lon="151.2900633">
  <ele>354.78</ele>
  <time>2026-09-01T19:53:49Z</time>
  <course>188.12</course>
  <speed>0.6549045732013177</speed>
  <fix>3d</fix>
</trkpt>
<trkpt lat="-27.2744462" lon="151.2900633">
  <ele>354.26</ele>
  <time>2026-09-01T19:53:49Z</time>
  <course>186.46</course>
  <speed>0.17</speed>
  <fix>3d</fix>
</trkpt>
<trkpt lat="-27.2744475" lon="151.2900632">
  <ele>355.04</ele>
  <time>2026-09-01T19:53:49Z</time>
  <course>188.12</course>
  <speed>0.9984988733093293</speed>
  <fix>3d</fix>
</trkpt>
<trkpt lat="-27.2744462" lon="151.2900633">
  <ele>354.26</ele>
  <time>2026-09-01T19:53:49Z</time>
  <course>186.46</course>
  <speed>0.17</speed>
  <fix>3d</fix>
</trkpt>
<trkpt lat="-27.2744486" lon="151.2900632">
  <ele>355.3</ele>
  <time>2026-09-01T19:53:49Z</time>
  <course>188.05</course>
  <speed>1.411523999087511</speed>
  <fix>3d</fix>
</trkpt>
<trkpt lat="-27.2744469" lon="151.2900633">
  <ele>354.77</ele>
  <time>2026-09-01T19:53:49Z</time>
  <course>187.42</course>
  <speed>0.67</speed>
  <fix>3d</fix>
</trkpt>
<trkpt lat="-27.2744501" lon="151.290063">
  <ele>355.56</ele>
  <time>2026-09-01T19:53:49Z</time>
  <course>187.9</course>
  <speed>1.8853381659532593</speed>
  <fix>3d</fix>
</trkpt>
<trkpt lat="-27.2744469" lon="151.2900633">
  <ele>354.77</ele>
  <time>2026-09-01T19:53:49Z</time>
  <course>187.42</course>
  <speed>0.67</speed>
  <fix>3d</fix>
</trkpt>
<trkpt lat="-27.274452" lon="151.2900627">
  <ele>355.82</ele>
  <time>2026-09-01T19:53:49Z</time>
  <course>187.75</course>
  <speed>2.427385424690525</speed>
  <fix>3d</fix>
</trkpt>
<trkpt lat="-27.2744487" lon="151.2900631">
  <ele>355.28</ele>
  <time>2026-09-01T19:53:49Z</time>
  <course>187.38</course>
  <speed>1.42</speed>
  <fix>3d</fix>
</trkpt>
<trkpt lat="-27.2744544" lon="151.2900623">
  <ele>356.07</ele>
  <time>2026-09-01T19:53:49Z</time>
  <course>187.52</course>
  <speed>3.0215227948834014</speed>
  <fix>3d</fix>
</trkpt>
<trkpt lat="-27.2744487" lon="151.2900631">
  <ele>355.28</ele>
  <time>2026-09-01T19:53:49Z</time>
  <course>187.38</course>
  <speed>1.42</speed>
  <fix>3d</fix>
</trkpt>
<trkpt lat="-27.2744574" lon="151.290062">
  <ele>356.32</ele>
  <time>2026-09-01T19:53:49Z</time>
  <course>187.18</course>
  <speed>3.653080891521566</speed>
  <fix>3d</fix>
</trkpt>
<trkpt lat="-27.2744521" lon="151.2900627">
  <ele>355.8</ele>
  <time>2026-09-01T19:53:49Z</time>
  <course>187.04</course>
  <speed>2.43</speed>
  <fix>3d</fix>
</trkpt>
<trkpt lat="-27.274461" lon="151.2900615">
  <ele>356.57</ele>
  <time>2026-09-01T19:53:49Z</time>
  <course>186.72</course>
  <speed>4.30359152336743</speed>
  <fix>3d</fix>
</trkpt>
<trkpt lat="-27.2744521" lon="151.2900627">
  <ele>355.8</ele>
  <time>2026-09-01T19:53:49Z</time>
  <course>187.04</course>
  <speed>2.43</speed>
  <fix>3d</fix>
</trkpt>
<trkpt lat="-27.2744651" lon="151.2900611">
  <ele>356.8</ele>
  <time>2026-09-01T19:53:49Z</time>
  <course>186.28</course>
  <speed>4.982218381404011</speed>
  <fix>3d</fix>
</trkpt>
<trkpt lat="-27.2744575" lon="151.2900619">
  <ele>356.31</ele>
  <time>2026-09-01T19:53:49Z</time>
  <course>186.37</course>
  <speed>3.64</speed>
  <fix>3d</fix>
</trkpt>
<trkpt lat="-27.2744699" lon="151.2900606">
  <ele>357.03</ele>
  <time>2026-09-01T19:53:49Z</time>
  <course>185.68</course>
  <speed>5.649584055485855</speed>
  <fix>3d</fix>
</trkpt>
<trkpt lat="-27.2744575" lon="151.2900619">
  <ele>356.31</ele>
  <time>2026-09-01T19:53:49Z</time>
  <course>186.37</course>
  <speed>3.64</speed>
  <fix>3d</fix>
</trkpt>
<trkpt lat="-27.2744752" lon="151.2900601">
  <ele>357.25</ele>
  <time>2026-09-01T19:53:49Z</time>
  <course>184.97</course>
  <speed>6.3367183936166835</speed>
  <fix>3d</fix>
</trkpt>
<trkpt lat="-27.2744652" lon="151.290061">
  <ele>356.78</ele>
  <time>2026-09-01T19:53:49Z</time>
  <course>185.37</course>
  <speed>4.95</speed>
  <fix>3d</fix>
</trkpt>
<trkpt lat="-27.2744812" lon="151.2900597">
  <ele>357.45</ele>
  <time>2026-09-01T19:53:49Z</time>
  <course>184.24</course>
  <speed>6.991451923599275</speed>
  <fix>3d</fix>
</trkpt>
<trkpt lat="-27.2744652" lon="151.290061">
  <ele>356.78</ele>
  <time>2026-09-01T19:53:49Z</time>
  <course>185.37</course>
  <speed>4.95</speed>
  <fix>3d</fix>
</trkpt>
<trkpt lat="-27.2744878" lon="151.2900593">
  <ele>357.66</ele>
  <time>2026-09-01T19:53:49Z</time>
  <course>183.36</course>
  <speed>7.626303167328191</speed>
  <fix>3d</fix>
</trkpt>
<trkpt lat="-27.2744753" lon="151.2900601">
  <ele>357.22</ele>
  <time>2026-09-01T19:53:49Z</time>
  <course>184.04</course>
  <speed>6.29</speed>
  <fix>3d</fix>
</trkpt>
<trkpt lat="-27.2744949" lon="151.2900589">
  <ele>357.86</ele>
  <time>2026-09-01T19:53:49Z</time>
  <course>182.26</course>
  <speed>8.251751329263383</speed>
  <fix>3d</fix>
</trkpt>
<trkpt lat="-27.2744753" lon="151.2900601">
  <ele>357.22</ele>
  <time>2026-09-01T19:53:49Z</time>
  <course>184.04</course>
  <speed>6.29</speed>
  <fix>3d</fix>
</trkpt>
<trkpt lat="-27.2745026" lon="151.2900589">
  <ele>358.07</ele>
  <time>2026-09-01T19:53:49Z</time>
  <course>181.08</course>
  <speed>8.86</speed>
  <fix>3d</fix>
</trkpt>
<trkpt lat="-27.2744877" lon="151.2900594">
  <ele>357.65</ele>
  <time>2026-09-01T19:53:49Z</time>
  <course>182.22</course>
  <speed>7.59</speed>
  <fix>3d</fix>
</trkpt>
<trkpt lat="-27.2745108" lon="151.2900589">
  <ele>358.29</ele>
  <time>2026-09-01T19:53:49Z</time>
  <course>179.93</course>
  <speed>9.462795570020521</speed>
  <fix>3d</fix>
</trkpt>
<trkpt lat="-27.2744877" lon="151.2900594">
  <ele>357.65</ele>
  <time>2026-09-01T19:53:49Z</time>
  <course>182.22</course>
  <speed>7.59</speed>
  <fix>3d</fix>
</trkpt>
<trkpt lat="-27.2745196" lon="151.2900593">
  <ele>358.51</ele>
  <time>2026-09-01T19:53:49Z</time>
  <course>178.84</course>
  <speed>10.062430123980986</speed>
  <fix>3d</fix>
</trkpt>
<trkpt lat="-27.2745026" lon="151.290059">
  <ele>358.07</ele>
  <time>2026-09-01T19:53:49Z</time>
  <course>179.85</course>
  <speed>8.83</speed>
  <fix>3d</fix>
</trkpt>
<trkpt lat="-27.2745289" lon="151.2900599">
  <ele>358.74</ele>
  <time>2026-09-01T19:53:49Z</time>
  <course>177.67</course>
  <speed>10.640117480554432</speed>
  <fix>3d</fix>
</trkpt>
<trkpt lat="-27.2745026" lon="151.290059">
  <ele>358.07</ele>
  <time>2026-09-01T19:53:49Z</time>
  <course>179.85</course>
  <speed>8.83</speed>
  <fix>3d</fix>
</trkpt>
<trkpt lat="-27.2745387" lon="151.2900609">
  <ele>358.97</ele>
  <time>2026-09-01T19:53:49Z</time>
  <course>176.35</course>
  <speed>11.208126516059677</speed>
  <fix>3d</fix>
</trkpt>
<trkpt lat="-27.2745196" lon="151.2900594">
  <ele>358.5</ele>
  <time>2026-09-01T19:53:49Z</time>
  <course>177.07</course>
  <speed>10.03</speed>
  <fix>3d</fix>
</trkpt>
<trkpt lat="-27.2745489" lon="151.2900623">
  <ele>359.21</ele>
  <time>2026-09-01T19:53:49Z</time>
  <course>175.13</course>
  <speed>11.756087784633117</speed>
  <fix>3d</fix>
</trkpt>
<trkpt lat="-27.2745196" lon="151.2900594">
  <ele>358.5</ele>
  <time>2026-09-01T19:53:49Z</time>
  <course>177.07</course>
  <speed>10.03</speed>
  <fix>3d</fix>
</trkpt>
<trkpt lat="-27.2745596" lon="151.2900641">
  <ele>359.45</ele>
  <time>2026-09-01T19:53:49Z</time>
  <course>173.88</course>
  <speed>12.296121339674555</speed>
  <fix>3d</fix>
</trkpt>
<trkpt lat="-27.2745386" lon="151.2900611">
  <ele>358.96</ele>
  <time>2026-09-01T19:53:49Z</time>
  <course>174.11</course>
  <speed>11.17</speed>
  <fix>3d</fix>
</trkpt>
<trkpt lat="-27.2745707" lon="151.2900661">
  <ele>359.7</ele>
  <time>2026-09-01T19:53:49Z</time>
  <course>172.51</course>
  <speed>12.829672638068361</speed>
  <fix>3d</fix>
</trkpt>
<trkpt lat="-27.2745386" lon="151.2900611">
  <ele>358.96</ele>
  <time>2026-09-01T19:53:49Z</time>
  <course>174.11</course>
  <speed>11.17</speed>
  <fix>3d</fix>
</trkpt>
<trkpt lat="-27.2745823" lon="151.2900687">
  <ele>359.95</ele>
  <time>2026-09-01T19:53:49Z</time>
  <course>171.24</course>
  <speed>13.34433213015923</speed>
  <fix>3d</fix>
</trkpt>
<trkpt lat="-27.2745595" lon="151.2900642">
  <ele>359.44</ele>
  <time>2026-09-01T19:53:49Z</time>
  <course>171.1</course>
  <speed>12.27</speed>
  <fix>3d</fix>
</trkpt>
<trkpt lat="-27.2745942" lon="151.2900717">
  <ele>360.2</ele>
  <time>2026-09-01T19:53:49Z</time>
  <course>169.88</course>
  <speed>13.85231027662895</speed>
  <fix>3d</fix>
</trkpt>
<trkpt lat="-27.2745595" lon="151.2900642">
  <ele>359.44</ele>
  <time>2026-09-01T19:53:49Z</time>
  <course>171.1</course>
  <speed>12.27</speed>
  <fix>3d</fix>
</trkpt>
<trkpt lat="-27.2746066" lon="151.2900752">
  <ele>360.46</ele>
  <time>2026-09-01T19:53:49Z</time>
  <course>168.72</course>
  <speed>14.354441821262155</speed>
  <fix>3d</fix>
</trkpt>
<trkpt lat="-27.274582" lon="151.2900688">
  <ele>359.94</ele>
  <time>2026-09-01T19:53:49Z</time>
  <course>168.13</course>
  <speed>13.32</speed>
  <fix>3d</fix>
</trkpt>
<trkpt lat="-27.2746192" lon="151.2900791">
  <ele>360.72</ele>
  <time>2026-09-01T19:53:49Z</time>
  <course>167.55</course>
  <speed>14.836421401402697</speed>
  <fix>3d</fix>
</trkpt>
<trkpt lat="-27.274582" lon="151.2900688">
  <ele>359.94</ele>
  <time>2026-09-01T19:53:49Z</time>
  <course>168.13</course>
  <speed>13.32</speed>
  <fix>3d</fix>
</trkpt>
<trkpt lat="-27.2746322" lon="151.2900836">
  <ele>360.98</ele>
  <time>2026-09-01T19:53:49Z</time>
  <course>166.28</course>
  <speed>15.314052370290497</speed>
  <fix>3d</fix>
</trkpt>
<trkpt lat="-27.2746062" lon="151.2900753">
  <ele>360.45</ele>
  <time>2026-09-01T19:53:49Z</time>
  <course>165.25</course>
  <speed>14.32</speed>
  <fix>3d</fix>
</trkpt>
<trkpt lat="-27.2746455" lon="151.2900885">
  <ele>361.25</ele>
  <time>2026-09-01T19:53:49Z</time>
  <course>164.97</course>
  <speed>15.786304190658434</speed>
  <fix>3d</fix>
</trkpt>
<trkpt lat="-27.2746062" lon="151.2900753">
  <ele>360.45</ele>
  <time>2026-09-01T19:53:49Z</time>
  <course>165.25</course>
  <speed>14.32</speed>
  <fix>3d</fix>
</trkpt>
<trkpt lat="-27.274659" lon="151.2900938">
  <ele>361.51</ele>
  <time>2026-09-01T19:53:49Z</time>
  <course>163.72</course>
  <speed>16.23792166504076</speed>
  <fix>3d</fix>
</trkpt>
<trkpt lat="-27.2746318" lon="151.2900836">
  <ele>360.97</ele>
  <time>2026-09-01T19:53:49Z</time>
  <course>162.56</course>
  <speed>15.29</speed>
  <fix>3d</fix>
</trkpt>
<trkpt lat="-27.2746729" lon="151.2900996">
  <ele>361.77</ele>
  <time>2026-09-01T19:53:49Z</time>
  <course>162.61</course>
  <speed>16.665293276747335</speed>
  <fix>3d</fix>
</trkpt>
<trkpt lat="-27.2746318" lon="151.2900836">
  <ele>360.97</ele>
  <time>2026-09-01T19:53:49Z</time>
  <course>162.56</course>
  <speed>15.29</speed>
  <fix>3d</fix>
</trkpt>
<trkpt lat="-27.2746869" lon="151.2901059">
  <ele>362.03</ele>
  <time>2026-09-01T19:53:49Z</time>
  <course>161.48</course>
  <speed>17.080986505468587</speed>
  <fix>3d</fix>
</trkpt>
<trkpt lat="-27.2746586" lon="151.2900938">
  <ele>361.49</ele>
  <time>2026-09-01T19:53:49Z</time>
  <course>160.04</course>
  <speed>16.2</speed>
  <fix>3d</fix>
</trkpt>
<trkpt lat="-27.2747012" lon="151.2901128">
  <ele>362.28</ele>
  <time>2026-09-01T19:53:49Z</time>
  <course>160.29</course>
  <speed>17.475768938733427</speed>
  <fix>3d</fix>
</trkpt>
<trkpt lat="-27.2746586" lon="151.2900938">
  <ele>361.49</ele>
  <time>2026-09-01T19:53:49Z</time>
  <course>160.04</course>
  <speed>16.2</speed>
  <fix>3d</fix>
</trkpt>
<trkpt lat="-27.2747157" lon="151.2901201">
  <ele>362.53</ele>
  <time>2026-09-01T19:53:49Z</time>
  <course>159.13</course>
  <speed>17.8589613359792</speed>
  <fix>3d</fix>
</trkpt>
<trkpt lat="-27.2746864" lon="151.2901059">
  <ele>362.01</ele>
  <time>2026-09-01T19:53:49Z</time>
  <course>157.67</course>
  <speed>17.05</speed>
  <fix>3d</fix>
</trkpt>
<trkpt lat="-27.2747304" lon="151.2901278">
  <ele>362.78</ele>
  <time>2026-09-01T19:53:49Z</time>
  <course>157.84</course>
  <speed>18.234938990849408</speed>
  <fix>3d</fix>
</trkpt>
<trkpt lat="-27.2746864" lon="151.2901059">
  <ele>362.01</ele>
  <time>2026-09-01T19:53:49Z</time>
  <course>157.67</course>
  <speed>17.05</speed>
  <fix>3d</fix>
</trkpt>
<trkpt lat="-27.2747452" lon="151.290136">
  <ele>363.02</ele>
  <time>2026-09-01T19:53:49Z</time>
  <course>156.54</course>
  <speed>18.586457435455525</speed>
  <fix>3d</fix>
</trkpt>
<trkpt lat="-27.2747152" lon="151.29012">
  <ele>362.52</ele>
  <time>2026-09-01T19:53:49Z</time>
  <course>155.42</course>
  <speed>17.84</speed>
  <fix>3d</fix>
</trkpt>
<trkpt lat="-27.2747602" lon="151.2901448">
  <ele>363.26</ele>
  <time>2026-09-01T19:53:49Z</time>
  <course>155.18</course>
  <speed>18.92823552262598</speed>
  <fix>3d</fix>
</trkpt>
<trkpt lat="-27.2747152" lon="151.29012">
  <ele>362.52</ele>
  <time>2026-09-01T19:53:49Z</time>
  <course>155.42</course>
  <speed>17.84</speed>
  <fix>3d</fix>
</trkpt>
<trkpt lat="-27.2747751" lon="151.2901541">
  <ele>363.5</ele>
  <time>2026-09-01T19:53:49Z</time>
  <course>153.73</course>
  <speed>19.253103645906027</speed>
  <fix>3d</fix>
</trkpt>
<trkpt lat="-27.2747447" lon="151.290136">
  <ele>363.01</ele>
  <time>2026-09-01T19:53:49Z</time>
  <course>153.12</course>
  <speed>18.56</speed>
  <fix>3d</fix>
</trkpt>
<trkpt lat="-27.2747903" lon="151.2901638">
  <ele>363.74</ele>
  <time>2026-09-01T19:53:49Z</time>
  <course>152.31</course>
  <speed>19.5767438559123</speed>
  <fix>3d</fix>
</trkpt>
<trkpt lat="-27.2747447" lon="151.290136">
  <ele>363.01</ele>
  <time>2026-09-01T19:53:49Z</time>
  <course>153.12</course>
  <speed>18.56</speed>
  <fix>3d</fix>
</trkpt>
<trkpt lat="-27.2748055" lon="151.2901743">
  <ele>363.97</ele>
  <time>2026-09-01T19:53:49Z</time>
  <course>150.86</course>
  <speed>19.882416855100892</speed>
  <fix>3d</fix>
</trkpt>
<trkpt lat="-27.2747747" lon="151.290154">
  <ele>363.49</ele>
  <time>2026-09-01T19:53:49Z</time>
  <course>150.62</course>
  <speed>19.23</speed>
  <fix>3d</fix>
</trkpt>
<trkpt lat="-27.2748206" lon="151.2901853">
  <ele>364.19</ele>
  <time>2026-09-01T19:53:49Z</time>
  <course>149.27</course>
  <speed>20.18</speed>
  <fix>3d</fix>
</trkpt>
<trkpt lat="-27.2747747" lon="151.290154">
  <ele>363.49</ele>
  <time>2026-09-01T19:53:49Z</time>
  <course>150.62</course>
  <speed>19.23</speed>
  <fix>3d</fix>
</trkpt>
<trkpt lat="-27.2748356" lon="151.2901968">
  <ele>364.41</ele>
  <time>2026-09-01T19:53:49Z</time>
  <course>147.7</course>
  <speed>20.46216508583586</speed>
  <fix>3d</fix>
</trkpt>
<trkpt lat="-27.2748049" lon="151.2901743">
  <ele>363.95</ele>
  <time>2026-09-01T19:53:49Z</time>
  <course>147.85</course>
  <speed>19.86</speed>
  <fix>3d</fix>
</trkpt>
<trkpt lat="-27.2748506" lon="151.2902092">
  <ele>364.62</ele>
  <time>2026-09-01T19:53:49Z</time>
  <course>146.09</course>
  <speed>20.73003859137749</speed>
  <fix>3d</fix>
</trkpt>
<trkpt lat="-27.2748049" lon="151.2901743">
  <ele>363.95</ele>
  <time>2026-09-01T19:53:49Z</time>
  <course>147.85</course>
  <speed>19.86</speed>
  <fix>3d</fix>
</trkpt>
<trkpt lat="-27.2748654" lon="151.2902222">
  <ele>364.82</ele>
  <time>2026-09-01T19:53:49Z</time>
  <course>144.36</course>
  <speed>20.98980943219828</speed>
  <fix>3d</fix>
</trkpt>
<trkpt lat="-27.2748351" lon="151.2901968">
  <ele>364.39</ele>
  <time>2026-09-01T19:53:49Z</time>
  <course>144.72</course>
  <speed>20.44</speed>
  <fix>3d</fix>
</trkpt>
<trkpt lat="-27.2748799" lon="151.2902358">
  <ele>365.01</ele>
  <time>2026-09-01T19:53:49Z</time>
  <course>142.52</course>
  <speed>21.245107672120657</speed>
  <fix>3d</fix>
</trkpt>
<trkpt lat="-27.2748351" lon="151.2901968">
  <ele>364.39</ele>
  <time>2026-09-01T19:53:49Z</time>
  <course>144.72</course>
  <speed>20.44</speed>
  <fix>3d</fix>
</trkpt>
<trkpt lat="-27.2748943" lon="151.2902502">
  <ele>365.2</ele>
  <time>2026-09-01T19:53:49Z</time>
  <course>140.69</course>
  <speed>21.49243820509902</speed>
  <fix>3d</fix>
</trkpt>
<trkpt lat="-27.2748647" lon="151.290222">
  <ele>364.81</ele>
  <time>2026-09-01T19:53:49Z</time>
  <course>141.2</course>
  <speed>20.97</speed>
  <fix>3d</fix>
</trkpt>
<trkpt lat="-27.2749083" lon="151.2902652">
  <ele>365.39</ele>
  <time>2026-09-01T19:53:49Z</time>
  <course>138.74</course>
  <speed>21.722545891308414</speed>
  <fix>3d</fix>
</trkpt>
<trkpt lat="-27.2748647" lon="151.290222">
  <ele>364.81</ele>
  <time>2026-09-01T19:53:49Z</time>
  <course>141.2</course>
  <speed>20.97</speed>
  <fix>3d</fix>
</trkpt>
<trkpt lat="-27.274922" lon="151.290281">
  <ele>365.57</ele>
  <time>2026-09-01T19:53:49Z</time>
  <course>136.68</course>
  <speed>21.94539587248314</speed>
  <fix>3d</fix>
</trkpt>
<trkpt lat="-27.2748936" lon="151.29025">
  <ele>365.19</ele>
  <time>2026-09-01T19:53:49Z</time>
  <course>137.33</course>
  <speed>21.46</speed>
  <fix>3d</fix>
</trkpt>
<trkpt lat="-27.2749353" lon="151.2902976">
  <ele>365.75</ele>
  <time>2026-09-01T19:53:49Z</time>
  <course>134.59</course>
  <speed>22.15686349644281</speed>
  <fix>3d</fix>
</trkpt>
<trkpt lat="-27.2748936" lon="151.29025">
  <ele>365.19</ele>
  <time>2026-09-01T19:53:49Z</time>
  <course>137.33</course>
  <speed>21.46</speed>
  <fix>3d</fix>
</trkpt>
<trkpt lat="-27.2749481" lon="151.2903149">
  <ele>365.92</ele>
  <time>2026-09-01T19:53:49Z</time>
  <course>132.42</course>
  <speed>22.365815433379577</speed>
  <fix>3d</fix>
</trkpt>
<trkpt lat="-27.2749213" lon="151.2902808">
  <ele>365.56</ele>
  <time>2026-09-01T19:53:49Z</time>
  <course>133.21</course>
  <speed>21.92</speed>
  <fix>3d</fix>
</trkpt>
<trkpt lat="-27.2749605" lon="151.2903327">
  <ele>366.09</ele>
  <time>2026-09-01T19:53:49Z</time>
  <course>130.21</course>
  <speed>22.554134875893602</speed>
  <fix>3d</fix>
</trkpt>
<trkpt lat="-27.2749213" lon="151.2902808">
  <ele>365.56</ele>
  <time>2026-09-01T19:53:49Z</time>
  <course>133.21</course>
  <speed>21.92</speed>
  <fix>3d</fix>
</trkpt>
<trkpt lat="-27.2749723" lon="151.2903514">
  <ele>366.26</ele>
  <time>2026-09-01T19:53:49Z</time>
  <course>128.04</course>
  <speed>22.74201838008227</speed>
  <fix>3d</fix>
</trkpt>
<trkpt lat="-27.2749474" lon="151.2903145">
  <ele>365.91</ele>
  <time>2026-09-01T19:53:49Z</time>
  <course>128.91</course>
  <speed>22.34</speed>
  <fix>3d</fix>
</trkpt>
<trkpt lat="-27.2749836" lon="151.2903706">
  <ele>366.43</ele>
  <time>2026-09-01T19:53:49Z</time>
  <course>125.83</course>
  <speed>22.919434984309714</speed>
  <fix>3d</fix>
</trkpt>
<trkpt lat="-27.2749474" lon="151.2903145">
  <ele>365.91</ele>
  <time>2026-09-01T19:53:49Z</time>
  <course>128.91</course>
  <speed>22.34</speed>
  <fix>3d</fix>
</trkpt>
<trkpt lat="-27.2749943" lon="151.2903907">
  <ele>366.6</ele>
  <time>2026-09-01T19:53:49Z</time>
  <course>123.59</course>
  <speed>23.07684987167876</speed>
  <fix>3d</fix>
</trkpt>
<trkpt lat="-27.2749716" lon="151.2903511">
  <ele>366.26</ele>
  <time>2026-09-01T19:53:49Z</time>
  <course>124.5</course>
  <speed>22.72</speed>
  <fix>3d</fix>
</trkpt>
<trkpt lat="-27.2750044" lon="151.2904113">
  <ele>366.76</ele>
  <time>2026-09-01T19:53:49Z</time>
  <course>121.39</course>
  <speed>23.237953868617605</speed>
  <fix>3d</fix>
</trkpt>
<trkpt lat="-27.2749716" lon="151.2903511">
  <ele>366.26</ele>
  <time>2026-09-01T19:53:49Z</time>
  <course>124.5</course>
  <speed>22.72</speed>
  <fix>3d</fix>
</trkpt>
<trkpt lat="-27.2750138" lon="151.2904323">
  <ele>366.93</ele>
  <time>2026-09-01T19:53:49Z</time>
  <course>119.21</course>
  <speed>23.388418073910003</speed>
  <fix>3d</fix>
</trkpt>
<trkpt lat="-27.2749936" lon="151.2903902">
  <ele>366.59</ele>
  <time>2026-09-01T19:53:49Z</time>
  <course>120.06</course>
  <speed>23.06</speed>
  <fix>3d</fix>
</trkpt>
<trkpt lat="-27.2750225" lon="151.2904539">
  <ele>367.1</ele>
  <time>2026-09-01T19:53:49Z</time>
  <course>117.0</course>
  <speed>23.519715134329328</speed>
  <fix>3d</fix>
</trkpt>
<trkpt lat="-27.2749936" lon="151.2903902">
  <ele>366.59</ele>
  <time>2026-09-01T19:53:49Z</time>
  <course>120.06</course>
  <speed>23.06</speed>
  <fix>3d</fix>
</trkpt>
<trkpt lat="-27.2750305" lon="151.2904759">
  <ele>367.26</ele>
  <time>2026-09-01T19:53:49Z</time>
  <course>114.83</course>
  <speed>23.64030668159785</speed>
  <fix>3d</fix>
</trkpt>
<trkpt lat="-27.275013" lon="151.2904317">
  <ele>366.92</ele>
  <time>2026-09-01T19:53:49Z</time>
  <course>115.64</course>
  <speed>23.35</speed>
  <fix>3d</fix>
</trkpt>
<trkpt lat="-27.2750378" lon="151.2904984">
  <ele>367.43</ele>
  <time>2026-09-01T19:53:49Z</time>
  <course>112.62</course>
  <speed>23.75005263152063</speed>
  <fix>3d</fix>
</trkpt>
<trkpt lat="-27.275013" lon="151.2904317">
  <ele>366.92</ele>
  <time>2026-09-01T19:53:49Z</time>
  <course>115.64</course>
  <speed>23.35</speed>
  <fix>3d</fix>
</trkpt>
<trkpt lat="-27.2750444" lon="151.2905213">
  <ele>367.6</ele>
  <time>2026-09-01T19:53:49Z</time>
  <course>110.51</course>
  <speed>23.851960087171033</speed>
  <fix>3d</fix>
</trkpt>
<trkpt lat="-27.2750298" lon="151.2904753">
  <ele>367.25</ele>
  <time>2026-09-01T19:53:49Z</time>
  <course>111.27</course>
  <speed>23.61</speed>
  <fix>3d</fix>
</trkpt>
<trkpt lat="-27.2750503" lon="151.2905444">
  <ele>367.77</ele>
  <time>2026-09-01T19:53:49Z</time>
  <course>108.38</course>
  <speed>23.945289724703688</speed>
  <fix>3d</fix>
</trkpt>
<trkpt lat="-27.2750298" lon="151.2904753">
  <ele>367.25</ele>
  <time>2026-09-01T19:53:49Z</time>
  <course>111.27</course>
  <speed>23.61</speed>
  <fix>3d</fix>
</trkpt>
<trkpt lat="-27.2750554" lon="151.2905681">
  <ele>367.94</ele>
  <time>2026-09-01T19:53:49Z</time>
  <course>106.38</course>
  <speed>24.02417532403558</speed>
  <fix>3d</fix>
</trkpt>
<trkpt lat="-27.2750438" lon="151.2905207">
  <ele>367.59</ele>
  <time>2026-09-01T19:53:49Z</time>
  <course>106.99</course>
  <speed>23.83</speed>
  <fix>3d</fix>
</trkpt>
<trkpt lat="-27.2750598" lon="151.2905918">
  <ele>368.11</ele>
  <time>2026-09-01T19:53:49Z</time>
  <course>104.39</course>
  <speed>24.09770321005718</speed>
  <fix>3d</fix>
</trkpt>
<trkpt lat="-27.2750438" lon="151.2905207">
  <ele>367.59</ele>
  <time>2026-09-01T19:53:49Z</time>
  <course>106.99</course>
  <speed>23.83</speed>
  <fix>3d</fix>
</trkpt>
<trkpt lat="-27.2750635" lon="151.2906159">
  <ele>368.29</ele>
  <time>2026-09-01T19:53:49Z</time>
  <course>102.43</course>
  <speed>24.169553160950244</speed>
  <fix>3d</fix>
</trkpt>
<trkpt lat="-27.2750549" lon="151.2905673">
  <ele>367.93</ele>
  <time>2026-09-01T19:53:49Z</time>
  <course>102.88</course>
  <speed>24.01</speed>
  <fix>3d</fix>
</trkpt>
<trkpt lat="-27.2750665" lon="151.2906401">
  <ele>368.46</ele>
  <time>2026-09-01T19:53:49Z</time>
  <course>100.54</course>
  <speed>24.220324110135277</speed>
  <fix>3d</fix>
</trkpt>
<trkpt lat="-27.2750549" lon="151.2905673">
  <ele>367.93</ele>
  <time>2026-09-01T19:53:49Z</time>
  <course>102.88</course>
  <speed>24.01</speed>
  <fix>3d</fix>
</trkpt>
<trkpt lat="-27.2750688" lon="151.2906645">
  <ele>368.64</ele>
  <time>2026-09-01T19:53:49Z</time>
  <course>98.65</course>
  <speed>24.258153268540454</speed>
  <fix>3d</fix>
</trkpt>
<trkpt lat="-27.275063" lon="151.2906152">
  <ele>368.28</ele>
  <time>2026-09-01T19:53:49Z</time>
  <course>98.96</course>
  <speed>24.15</speed>
  <fix>3d</fix>
</trkpt>
<trkpt lat="-27.2750705" lon="151.2906889">
  <ele>368.83</ele>
  <time>2026-09-01T19:53:49Z</time>
  <course>96.87</course>
  <speed>24.302699438539744</speed>
  <fix>3d</fix>
</trkpt>
<trkpt lat="-27.275063" lon="151.2906152">
  <ele>368.28</ele>
  <time>2026-09-01T19:53:49Z</time>
  <course>98.96</course>
  <speed>24.15</speed>
  <fix>3d</fix>
</trkpt>
<trkpt lat="-27.2750714" lon="151.2907134">
  <ele>369.01</ele>
  <time>2026-09-01T19:53:49Z</time>
  <course>95.14</course>
  <speed>24.33065556042418</speed>
  <fix>3d</fix>
</trkpt>
<trkpt lat="-27.2750684" lon="151.2906636">
  <ele>368.64</ele>
  <time>2026-09-01T19:53:49Z</time>
  <course>95.25</course>
  <speed>24.25</speed>
  <fix>3d</fix>
</trkpt>
<trkpt lat="-27.2750718" lon="151.2907381">
  <ele>369.2</ele>
  <time>2026-09-01T19:53:49Z</time>
  <course>93.54</course>
  <speed>24.35003285418728</speed>
  <fix>3d</fix>
</trkpt>
<trkpt lat="-27.2750684" lon="151.2906636">
  <ele>368.64</ele>
  <time>2026-09-01T19:53:49Z</time>
  <course>95.25</course>
  <speed>24.25</speed>
  <fix>3d</fix>
</trkpt>
<trkpt lat="-27.2750715" lon="151.2907626">
  <ele>369.39</ele>
  <time>2026-09-01T19:53:49Z</time>
  <course>92.07</course>
  <speed>24.377140931618705</speed>
  <fix>3d</fix>
</trkpt>
<trkpt lat="-27.2750711" lon="151.2907126">
  <ele>369.0</ele>
  <time>2026-09-01T19:53:49Z</time>
  <course>91.81</course>
  <speed>24.32</speed>
  <fix>3d</fix>
</trkpt>
<trkpt lat="-27.2750706" lon="151.2907873">
  <ele>369.57</ele>
  <time>2026-09-01T19:53:49Z</time>
  <course>90.7</course>
  <speed>24.389048771938604</speed>
  <fix>3d</fix>
</trkpt>
<trkpt lat="-27.2750711" lon="151.2907126">
  <ele>369.0</ele>
  <time>2026-09-01T19:53:49Z</time>
  <course>91.81</course>
  <speed>24.32</speed>
  <fix>3d</fix>
</trkpt>
<trkpt lat="-27.2750695" lon="151.2908119">
  <ele>369.75</ele>
  <time>2026-09-01T19:53:49Z</time>
  <course>89.36</course>
  <speed>24.401403648151064</speed>
  <fix>3d</fix>
</trkpt>
<trkpt lat="-27.2750712" lon="151.2907619">
  <ele>369.37</ele>
  <time>2026-09-01T19:53:49Z</time>
  <course>88.7</course>
  <speed>24.36</speed>
  <fix>3d</fix>
</trkpt>
<trkpt lat="-27.2750677" lon="151.2908364">
  <ele>369.92</ele>
  <time>2026-09-01T19:53:49Z</time>
  <course>88.11</course>
  <speed>24.412982202098945</speed>
  <fix>3d</fix>
</trkpt>
<trkpt lat="-27.2750712" lon="151.2907619">
  <ele>369.37</ele>
  <time>2026-09-01T19:53:49Z</time>
  <course>88.7</course>
  <speed>24.36</speed>
  <fix>3d</fix>
</trkpt>
<trkpt lat="-27.2750655" lon="151.2908611">
  <ele>370.09</ele>
  <time>2026-09-01T19:53:49Z</time>
  <course>86.98</course>
  <speed>24.430769533520632</speed>
  <fix>3d</fix>
</trkpt>
<trkpt lat="-27.2750692" lon="151.290811">
  <ele>369.74</ele>
  <time>2026-09-01T19:53:49Z</time>
  <course>86.0</course>
  <speed>24.4</speed>
  <fix>3d</fix>
</trkpt>
<trkpt lat="-27.2750628" lon="151.2908856">
  <ele>370.24</ele>
  <time>2026-09-01T19:53:49Z</time>
  <course>85.95</course>
  <speed>24.442528510774004</speed>
  <fix>3d</fix>
</trkpt>
<trkpt lat="-27.2750692" lon="151.290811">
  <ele>369.74</ele>
  <time>2026-09-01T19:53:49Z</time>
  <course>86.0</course>
  <speed>24.4</speed>
  <fix>3d</fix>
</trkpt>
<trkpt lat="-27.2750598" lon="151.2909101">
  <ele>370.39</ele>
  <time>2026-09-01T19:53:49Z</time>
  <course>84.87</course>
  <speed>24.460449709684408</speed>
  <fix>3d</fix>
</trkpt>
<trkpt lat="-27.2750653" lon="151.2908602">
  <ele>370.08</ele>
  <time>2026-09-01T19:53:49Z</time>
  <course>83.69</course>
  <speed>24.43</speed>
  <fix>3d</fix>
</trkpt>
<trkpt lat="-27.2750564" lon="151.2909345">
  <ele>370.52</ele>
  <time>2026-09-01T19:53:49Z</time>
  <course>83.83</course>
  <speed>24.46928891488267</speed>
  <fix>3d</fix>
</trkpt>
<trkpt lat="-27.2750653" lon="151.2908602">
  <ele>370.08</ele>
  <time>2026-09-01T19:53:49Z</time>
  <course>83.69</course>
  <speed>24.43</speed>
  <fix>3d</fix>
</trkpt>
<trkpt lat="-27.2750527" lon="151.2909589">
  <ele>370.64</ele>
  <time>2026-09-01T19:53:49Z</time>
  <course>82.78</course>
  <speed>24.48412546937301</speed>
  <fix>3d</fix>
</trkpt>
<trkpt lat="-27.2750597" lon="151.2909092">
  <ele>370.37</ele>
  <time>2026-09-01T19:53:49Z</time>
  <course>81.68</course>
  <speed>24.46</speed>
  <fix>3d</fix>
</trkpt>
<trkpt lat="-27.2750487" lon="151.2909832">
  <ele>370.75</ele>
  <time>2026-09-01T19:53:49Z</time>
  <course>81.76</course>
  <speed>24.50303246539089</speed>
  <fix>3d</fix>
</trkpt>
<trkpt lat="-27.2750597" lon="151.2909092">
  <ele>370.37</ele>
  <time>2026-09-01T19:53:49Z</time>
  <course>81.68</course>
  <speed>24.46</speed>
  <fix>3d</fix>
</trkpt>
<trkpt lat="-27.2750443" lon="151.2910075">
  <ele>370.86</ele>
  <time>2026-09-01T19:53:49Z</time>
  <course>80.74</course>
  <speed>24.508039497275178</speed>
  <fix>3d</fix>
</trkpt>
<trkpt lat="-27.2750526" lon="151.2909581">
  <ele>370.63</ele>
  <time>2026-09-01T19:53:49Z</time>
  <course>79.85</course>
  <speed>24.49</speed>
  <fix>3d</fix>
</trkpt>
<trkpt lat="-27.2750396" lon="151.2910317">
  <ele>370.97</ele>
  <time>2026-09-01T19:53:49Z</time>
  <course>79.74</course>
  <speed>24.516616813908072</speed>
  <fix>3d</fix>
</trkpt>
<trkpt lat="-27.2750526" lon="151.2909581">
  <ele>370.63</ele>
  <time>2026-09-01T19:53:49Z</time>
  <course>79.85</course>
  <speed>24.49</speed>
  <fix>3d</fix>
</trkpt>
<trkpt lat="-27.2750345" lon="151.291056">
  <ele>371.08</ele>
  <time>2026-09-01T19:53:49Z</time>
  <course>78.81</course>
  <speed>24.525969909465353</speed>
  <fix>3d</fix>
</trkpt>
<trkpt lat="-27.2750442" lon="151.2910068">
  <ele>370.86</ele>
  <time>2026-09-01T19:53:49Z</time>
  <course>78.1</course>
  <speed>24.51</speed>
  <fix>3d</fix>
</trkpt>
<trkpt lat="-27.2750292" lon="151.29108">
  <ele>371.18</ele>
  <time>2026-09-01T19:53:49Z</time>
  <course>77.79</course>
  <speed>24.525578484512856</speed>
  <fix>3d</fix>
</trkpt>
<trkpt lat="-27.2750442" lon="151.2910068">
  <ele>370.86</ele>
  <time>2026-09-01T19:53:49Z</time>
  <course>78.1</course>
  <speed>24.51</speed>
  <fix>3d</fix>
</trkpt>
<trkpt lat="-27.2750236" lon="151.291104">
  <ele>371.29</ele>
  <time>2026-09-01T19:53:49Z</time>
  <course>76.78</course>
  <speed>24.534848685084647</speed>
  <fix>3d</fix>
</trkpt>
<trkpt lat="-27.2750345" lon="151.2910551">
  <ele>371.07</ele>
  <time>2026-09-01T19:53:49Z</time>
  <course>76.45</course>
  <speed>24.52</speed>
  <fix>3d</fix>
</trkpt>
<trkpt lat="-27.2750176" lon="151.2911279">
  <ele>371.41</ele>
  <time>2026-09-01T19:53:49Z</time>
  <course>75.79</course>
  <speed>24.532617063819345</speed>
  <fix>3d</fix>
</trkpt>
<trkpt lat="-27.2750345" lon="151.2910551">
  <ele>371.07</ele>
  <time>2026-09-01T19:53:49Z</time>
  <course>76.45</course>
  <speed>24.52</speed>
  <fix>3d</fix>
</trkpt>
<trkpt lat="-27.2750114" lon="151.2911517">
  <ele>371.53</ele>
  <time>2026-09-01T19:53:49Z</time>
  <course>74.9</course>
  <speed>24.52998980839576</speed>
  <fix>3d</fix>
</trkpt>
<trkpt lat="-27.2750236" lon="151.2911031">
  <ele>371.29</ele>
  <time>2026-09-01T19:53:49Z</time>
  <course>74.82</course>
  <speed>24.53</speed>
  <fix>3d</fix>
</trkpt>
<trkpt lat="-27.2750049" lon="151.2911753">
  <ele>371.66</ele>
  <time>2026-09-01T19:53:49Z</time>
  <course>74.01</course>
  <speed>24.529182619891763</speed>
  <fix>3d</fix>
</trkpt>
<trkpt lat="-27.2750236" lon="151.2911031">
  <ele>371.29</ele>
  <time>2026-09-01T19:53:49Z</time>
  <course>74.82</course>
  <speed>24.53</speed>
  <fix>3d</fix>
</trkpt>
<trkpt lat="-27.274998" lon="151.2911988">
  <ele>371.79</ele>
  <time>2026-09-01T19:53:49Z</time>
  <course>73.17</course>
  <speed>24.529788013759923</speed>
  <fix>3d</fix>
</trkpt>
<trkpt lat="-27.2750114" lon="151.2911508">
  <ele>371.53</ele>
  <time>2026-09-01T19:53:49Z</time>
  <course>73.2</course>
  <speed>24.53</speed>
  <fix>3d</fix>
</trkpt>
<trkpt lat="-27.2749909" lon="151.2912223">
  <ele>371.91</ele>
  <time>2026-09-01T19:53:49Z</time>
  <course>72.21</course>
  <speed>24.53890176841661</speed>
  <fix>3d</fix>
</trkpt>
<trkpt lat="-27.2750114" lon="151.2911508">
  <ele>371.53</ele>
  <time>2026-09-01T19:53:49Z</time>
  <course>73.2</course>
  <speed>24.53</speed>
  <fix>3d</fix>
</trkpt>
<trkpt lat="-27.2749835" lon="151.2912457">
  <ele>372.05</ele>
  <time>2026-09-01T19:53:49Z</time>
  <course>71.07</course>
  <speed>24.53671738436093</speed>
  <fix>3d</fix>
</trkpt>
<trkpt lat="-27.2749981" lon="151.2911981">
  <ele>371.78</ele>
  <time>2026-09-01T19:53:49Z</time>
  <course>71.56</course>
  <speed>24.53</speed>
  <fix>3d</fix>
</trkpt>
<trkpt lat="-27.2749756" lon="151.2912689">
  <ele>372.19</ele>
  <time>2026-09-01T19:53:49Z</time>
  <course>69.88</course>
  <speed>24.534612285503922</speed>
  <fix>3d</fix>
</trkpt>
<trkpt lat="-27.2749981" lon="151.2911981">
  <ele>371.78</ele>
  <time>2026-09-01T19:53:49Z</time>
  <course>71.56</course>
  <speed>24.53</speed>
  <fix>3d</fix>
</trkpt>
<trkpt lat="-27.2749673" lon="151.2912917">
  <ele>372.35</ele>
  <time>2026-09-01T19:53:49Z</time>
  <course>68.71</course>
  <speed>24.525384808398012</speed>
  <fix>3d</fix>
</trkpt>
<trkpt lat="-27.2749835" lon="151.2912448">
  <ele>372.04</ele>
  <time>2026-09-01T19:53:49Z</time>
  <course>69.66</course>
  <speed>24.53</speed>
  <fix>3d</fix>
</trkpt>
<trkpt lat="-27.2749587" lon="151.2913146">
  <ele>372.51</ele>
  <time>2026-09-01T19:53:49Z</time>
  <course>67.6</course>
  <speed>24.526793512401902</speed>
  <fix>3d</fix>
</trkpt>
<trkpt lat="-27.2749835" lon="151.2912448">
  <ele>372.04</ele>
  <time>2026-09-01T19:53:49Z</time>
  <course>69.66</course>
  <speed>24.53</speed>
  <fix>3d</fix>
</trkpt>
<trkpt lat="-27.2749495" lon="151.2913371">
  <ele>372.69</ele>
  <time>2026-09-01T19:53:49Z</time>
  <course>66.49</course>
  <speed>24.534002934702684</speed>
  <fix>3d</fix>
</trkpt>
<trkpt lat="-27.2749674" lon="151.291291">
  <ele>372.34</ele>
  <time>2026-09-01T19:53:49Z</time>
  <course>67.41</course>
  <speed>24.52</speed>
  <fix>3d</fix>
</trkpt>
<trkpt lat="-27.27494" lon="151.2913595">
  <ele>372.86</ele>
  <time>2026-09-01T19:53:49Z</time>
  <course>65.38</course>
  <speed>24.54797140294896</speed>
  <fix>3d</fix>
</trkpt>
<trkpt lat="-27.2749674" lon="151.291291">
  <ele>372.34</ele>
  <time>2026-09-01T19:53:49Z</time>
  <course>67.41</course>
  <speed>24.52</speed>
  <fix>3d</fix>
</trkpt>
<trkpt lat="-27.27493" lon="151.2913817">
  <ele>373.04</ele>
  <time>2026-09-01T19:53:49Z</time>
  <course>64.29</course>
  <speed>24.58193849150225</speed>
  <fix>3d</fix>
</trkpt>
<trkpt lat="-27.2749496" lon="151.2913363">
  <ele>372.68</ele>
  <time>2026-09-01T19:53:49Z</time>
  <course>65.01</course>
  <speed>24.53</speed>
  <fix>3d</fix>
</trkpt>
<trkpt lat="-27.2749196" lon="151.2914036">
  <ele>373.21</ele>
  <time>2026-09-01T19:53:49Z</time>
  <course>63.21</course>
  <speed>24.609861844390757</speed>
  <fix>3d</fix>
</trkpt>
<trkpt lat="-27.2749496" lon="151.2913363">
  <ele>372.68</ele>
  <time>2026-09-01T19:53:49Z</time>
  <course>65.01</course>
  <speed>24.53</speed>
  <fix>3d</fix>
</trkpt>
<trkpt lat="-27.2749088" lon="151.2914252">
  <ele>373.38</ele>
  <time>2026-09-01T19:53:49Z</time>
  <course>62.03</course>
  <speed>24.658304889022684</speed>
  <fix>3d</fix>
</trkpt>
<trkpt lat="-27.2749301" lon="151.2913808">
  <ele>373.03</ele>
  <time>2026-09-01T19:53:49Z</time>
  <course>62.55</course>
  <speed>24.58</speed>
  <fix>3d</fix>
</trkpt>
<trkpt lat="-27.2748975" lon="151.2914468">
  <ele>373.54</ele>
  <time>2026-09-01T19:53:49Z</time>
  <course>60.76</course>
  <speed>24.703056491049846</speed>
  <fix>3d</fix>
</trkpt>
<trkpt lat="-27.2749301" lon="151.2913808">
  <ele>373.03</ele>
  <time>2026-09-01T19:53:49Z</time>
  <course>62.55</course>
  <speed>24.58</speed>
  <fix>3d</fix>
</trkpt>
<trkpt lat="-27.2748857" lon="151.2914679">
  <ele>373.71</ele>
  <time>2026-09-01T19:53:49Z</time>
  <course>59.5</course>
  <speed>24.75537315412555</speed>
  <fix>3d</fix>
</trkpt>
<trkpt lat="-27.2749089" lon="151.2914245">
  <ele>373.37</ele>
  <time>2026-09-01T19:53:49Z</time>
  <course>60.03</course>
  <speed>24.65</speed>
  <fix>3d</fix>
</trkpt>
<trkpt lat="-27.2748735" lon="151.2914889">
  <ele>373.87</ele>
  <time>2026-09-01T19:53:49Z</time>
  <course>58.1</course>
  <speed>24.814725466948047</speed>
  <fix>3d</fix>
</trkpt>
<trkpt lat="-27.2749089" lon="151.2914245">
  <ele>373.37</ele>
  <time>2026-09-01T19:53:49Z</time>
  <course>60.03</course>
  <speed>24.65</speed>
  <fix>3d</fix>
</trkpt>
<trkpt lat="-27.2748609" lon="151.2915095">
  <ele>374.03</ele>
  <time>2026-09-01T19:53:49Z</time>
  <course>56.68</course>
  <speed>24.879569931974306</speed>
  <fix>3d</fix>
</trkpt>
<trkpt lat="-27.2748858" lon="151.2914673">
  <ele>373.7</ele>
  <time>2026-09-01T19:53:49Z</time>
  <course>57.43</course>
  <speed>24.75</speed>
  <fix>3d</fix>
</trkpt>
<trkpt lat="-27.2748477" lon="151.29153">
  <ele>374.2</ele>
  <time>2026-09-01T19:53:49Z</time>
  <course>55.25</course>
  <speed>24.94610390421719</speed>
  <fix>3d</fix>
</trkpt>
<trkpt lat="-27.2748858" lon="151.2914673">
  <ele>373.7</ele>
  <time>2026-09-01T19:53:49Z</time>
  <course>57.43</course>
  <speed>24.75</speed>
  <fix>3d</fix>
</trkpt>
<trkpt lat="-27.2748336" lon="151.2915506">
  <ele>374.38</ele>
  <time>2026-09-01T19:53:49Z</time>
  <course>53.77</course>
  <speed>25.02290950309336</speed>
  <fix>3d</fix>
</trkpt>
<trkpt lat="-27.2748609" lon="151.2915089">
  <ele>374.03</ele>
  <time>2026-09-01T19:53:49Z</time>
  <course>54.72</course>
  <speed>24.87</speed>
  <fix>3d</fix>
</trkpt>
<trkpt lat="-27.2748195" lon="151.2915703">
  <ele>374.56</ele>
  <time>2026-09-01T19:53:50Z</time>
  <course>52.3</course>
  <speed>25.08886007773171</speed>
  <fix>3d</fix>
</trkpt>
<trkpt lat="-27.2748609" lon="151.2915089">
  <ele>374.03</ele>
  <time>2026-09-01T19:53:50Z</time>
  <course>54.72</course>
  <speed>24.87</speed>
  <fix>3d</fix>
</trkpt>
<trkpt lat="-27.2748048" lon="151.2915897">
  <ele>374.74</ele>
  <time>2026-09-01T19:53:50Z</time>
  <course>50.84</course>
  <speed>25.15676449784431</speed>
  <fix>3d</fix>
</trkpt>
<trkpt lat="-27.2748341" lon="151.2915492">
  <ele>374.36</ele>
  <time>2026-09-01T19:53:50Z</time>
  <course>51.84</course>
  <speed>25.01</speed>
  <fix>3d</fix>
</trkpt>
<trkpt lat="-27.2747897" lon="151.2916086">
  <ele>374.94</ele>
  <time>2026-09-01T19:53:50Z</time>
  <course>49.33</course>
  <speed>25.23485288247189</speed>
  <fix>3d</fix>
</trkpt>
<trkpt lat="-27.2748341" lon="151.2915492">
  <ele>374.36</ele>
  <time>2026-09-01T19:53:50Z</time>
  <course>51.84</course>
  <speed>25.01</speed>
  <fix>3d</fix>
</trkpt>
<trkpt lat="-27.274774" lon="151.2916271">
  <ele>375.15</ele>
  <time>2026-09-01T19:53:50Z</time>
  <course>47.75</course>
  <speed>25.309352026474325</speed>
  <fix>3d</fix>
</trkpt>
<trkpt lat="-27.2748054" lon="151.2915883">
  <ele>374.73</ele>
  <time>2026-09-01T19:53:50Z</time>
  <course>48.85</course>
  <speed>25.15</speed>
  <fix>3d</fix>
</trkpt>
<trkpt lat="-27.2747579" lon="151.2916452">
  <ele>375.37</ele>
  <time>2026-09-01T19:53:50Z</time>
  <course>46.16</course>
  <speed>25.373864506613884</speed>
  <fix>3d</fix>
</trkpt>
<trkpt lat="-27.2748054" lon="151.2915883">
  <ele>374.73</ele>
  <time>2026-09-01T19:53:50Z</time>
  <course>48.85</course>
  <speed>25.15</speed>
  <fix>3d</fix>
</trkpt>
<trkpt lat="-27.2747417" lon="151.2916624">
  <ele>375.59</ele>
  <time>2026-09-01T19:53:50Z</time>
  <course>44.59</course>
  <speed>25.442313180998305</speed>
  <fix>3d</fix>
</trkpt>
<trkpt lat="-27.2747747" lon="151.2916258">
  <ele>375.14</ele>
  <time>2026-09-01T19:53:50Z</time>
  <course>45.78</course>
  <speed>25.29</speed>
  <fix>3d</fix>
</trkpt>
<trkpt lat="-27.2747247" lon="151.2916794">
  <ele>375.84</ele>
  <time>2026-09-01T19:53:50Z</time>
  <course>43.03</course>
  <speed>25.509607993852043</speed>
  <fix>3d</fix>
</trkpt>
<trkpt lat="-27.2747747" lon="151.2916258">
  <ele>375.14</ele>
  <time>2026-09-01T19:53:50Z</time>
  <course>45.78</course>
  <speed>25.29</speed>
  <fix>3d</fix>
</trkpt>
<trkpt lat="-27.2747072" lon="151.2916962">
  <ele>376.09</ele>
  <time>2026-09-01T19:53:50Z</time>
  <course>41.56</course>
  <speed>25.579509377624895</speed>
  <fix>3d</fix>
</trkpt>
<trkpt lat="-27.2747421" lon="151.2916615">
  <ele>375.59</ele>
  <time>2026-09-01T19:53:50Z</time>
  <course>42.67</course>
  <speed>25.43</speed>
  <fix>3d</fix>
</trkpt>
<trkpt lat="-27.2746892" lon="151.2917124">
  <ele>376.36</ele>
  <time>2026-09-01T19:53:50Z</time>
  <course>40.08</course>
  <speed>25.640836569815736</speed>
  <fix>3d</fix>
</trkpt>
<trkpt lat="-27.2747421" lon="151.2916615">
  <ele>375.59</ele>
  <time>2026-09-01T19:53:50Z</time>
  <course>42.67</course>
  <speed>25.43</speed>
  <fix>3d</fix>
</trkpt>
<trkpt lat="-27.2746709" lon="151.2917281">
  <ele>376.65</ele>
  <time>2026-09-01T19:53:50Z</time>
  <course>38.63</course>
  <speed>25.696575647350368</speed>
  <fix>3d</fix>
</trkpt>
<trkpt lat="-27.2747076" lon="151.2916954">
  <ele>376.09</ele>
  <time>2026-09-01T19:53:50Z</time>
  <course>39.57</course>
  <speed>25.57</speed>
  <fix>3d</fix>
</trkpt>
<trkpt lat="-27.2746521" lon="151.2917432">
  <ele>376.94</ele>
  <time>2026-09-01T19:53:50Z</time>
  <course>37.16</course>
  <speed>25.747640668612725</speed>
  <fix>3d</fix>
</trkpt>
<trkpt lat="-27.2747076" lon="151.2916954">
  <ele>376.09</ele>
  <time>2026-09-01T19:53:50Z</time>
  <course>39.57</course>
  <speed>25.57</speed>
  <fix>3d</fix>
</trkpt>
<trkpt lat="-27.274633" lon="151.2917579">
  <ele>377.26</ele>
  <time>2026-09-01T19:53:50Z</time>
  <course>35.73</course>
  <speed>25.78804568012086</speed>
  <fix>3d</fix>
</trkpt>
<trkpt lat="-27.2746713" lon="151.2917273">
  <ele>376.64</ele>
  <time>2026-09-01T19:53:50Z</time>
  <course>36.54</course>
  <speed>25.68</speed>
  <fix>3d</fix>
</trkpt>
<trkpt lat="-27.2746136" lon="151.2917721">
  <ele>377.59</ele>
  <time>2026-09-01T19:53:50Z</time>
  <course>34.46</course>
  <speed>25.829241181265857</speed>
  <fix>3d</fix>
</trkpt>
<trkpt lat="-27.2746713" lon="151.2917273">
  <ele>376.64</ele>
  <time>2026-09-01T19:53:50Z</time>
  <course>36.54</course>
  <speed>25.68</speed>
  <fix>3d</fix>
</trkpt>
<trkpt lat="-27.2745938" lon="151.2917857">
  <ele>377.92</ele>
  <time>2026-09-01T19:53:50Z</time>
  <course>33.22</course>
  <speed>25.872278600849985</speed>
  <fix>3d</fix>
</trkpt>
<trkpt lat="-27.2746335" lon="151.2917572">
  <ele>377.25</ele>
  <time>2026-09-01T19:53:50Z</time>
  <course>33.68</course>
  <speed>25.78</speed>
  <fix>3d</fix>
</trkpt>
<trkpt lat="-27.2745737" lon="151.2917991">
  <ele>378.27</ele>
  <time>2026-09-01T19:53:50Z</time>
  <course>31.95</course>
  <speed>25.90713608255455</speed>
  <fix>3d</fix>
</trkpt>
<trkpt lat="-27.2746335" lon="151.2917572">
  <ele>377.25</ele>
  <time>2026-09-01T19:53:50Z</time>
  <course>33.68</course>
  <speed>25.78</speed>
  <fix>3d</fix>
</trkpt>
<trkpt lat="-27.2745534" lon="151.2918118">
  <ele>378.63</ele>
  <time>2026-09-01T19:53:50Z</time>
  <course>30.88</course>
  <speed>25.93702565831325</speed>
  <fix>3d</fix>
</trkpt>
<trkpt lat="-27.2745942" lon="151.2917851">
  <ele>377.91</ele>
  <time>2026-09-01T19:53:50Z</time>
  <course>31.06</course>
  <speed>25.86</speed>
  <fix>3d</fix>
</trkpt>
<trkpt lat="-27.2745328" lon="151.2918241">
  <ele>378.99</ele>
  <time>2026-09-01T19:53:50Z</time>
  <course>29.75</course>
  <speed>25.964225388021884</speed>
  <fix>3d</fix>
</trkpt>
<trkpt lat="-27.2745942" lon="151.2917851">
  <ele>377.91</ele>
  <time>2026-09-01T19:53:50Z</time>
  <course>31.06</course>
  <speed>25.86</speed>
  <fix>3d</fix>
</trkpt>
<trkpt lat="-27.274512" lon="151.291836">
  <ele>379.36</ele>
  <time>2026-09-01T19:53:50Z</time>
  <course>28.7</course>
  <speed>25.978656624236752</speed>
  <fix>3d</fix>
</trkpt>
<trkpt lat="-27.2745538" lon="151.2918112">
  <ele>378.62</ele>
  <time>2026-09-01T19:53:50Z</time>
  <course>28.67</course>
  <speed>25.93</speed>
  <fix>3d</fix>
</trkpt>
<trkpt lat="-27.2744911" lon="151.2918475">
  <ele>379.74</ele>
  <time>2026-09-01T19:53:50Z</time>
  <course>27.57</course>
  <speed>25.995978535150392</speed>
  <fix>3d</fix>
</trkpt>
<trkpt lat="-27.2745538" lon="151.2918112">
  <ele>378.62</ele>
  <time>2026-09-01T19:53:50Z</time>
  <course>28.67</course>
  <speed>25.93</speed>
  <fix>3d</fix>
</trkpt>
<trkpt lat="-27.2744692" lon="151.2918592">
  <ele>380.13</ele>
  <time>2026-09-01T19:53:50Z</time>
  <course>26.28</course>
  <speed>26.029177858703108</speed>
  <fix>3d</fix>
</trkpt>
<trkpt lat="-27.2745124" lon="151.2918356">
  <ele>379.35</ele>
  <time>2026-09-01T19:53:50Z</time>
  <course>26.57</course>
  <speed>25.98</speed>
  <fix>3d</fix>
</trkpt>
<trkpt lat="-27.2744479" lon="151.2918699">
  <ele>380.5</ele>
  <time>2026-09-01T19:53:50Z</time>
  <course>25.07</course>
  <speed>26.0692788546212</speed>
  <fix>3d</fix>
</trkpt>
<trkpt lat="-27.2745124" lon="151.2918356">
  <ele>379.35</ele>
  <time>2026-09-01T19:53:50Z</time>
  <course>26.57</course>
  <speed>25.98</speed>
  <fix>3d</fix>
</trkpt>
<trkpt lat="-27.2744263" lon="151.2918803">
  <ele>380.86</ele>
  <time>2026-09-01T19:53:50Z</time>
  <course>23.77</course>
  <speed>26.109241658845626</speed>
  <fix>3d</fix>
</trkpt>
<trkpt lat="-27.2744703" lon="151.2918583">
  <ele>380.1</ele>
  <time>2026-09-01T19:53:50Z</time>
  <course>24.68</course>
  <speed>26.03</speed>
  <fix>3d</fix>
</trkpt>
<trkpt lat="-27.2744045" lon="151.2918901">
  <ele>381.2</ele>
  <time>2026-09-01T19:53:50Z</time>
  <course>22.45</course>
  <speed>26.166056256149872</speed>
  <fix>3d</fix>
</trkpt>
<trkpt lat="-27.2744703" lon="151.2918583">
  <ele>380.1</ele>
  <time>2026-09-01T19:53:50Z</time>
  <course>24.68</course>
  <speed>26.03</speed>
  <fix>3d</fix>
</trkpt>
<trkpt lat="-27.2743825" lon="151.2918994">
  <ele>381.53</ele>
  <time>2026-09-01T19:53:50Z</time>
  <course>20.95</course>
  <speed>26.232335008534793</speed>
  <fix>3d</fix>
</trkpt>
<trkpt lat="-27.2744274" lon="151.2918794">
  <ele>380.83</ele>
  <time>2026-09-01T19:53:50Z</time>
  <course>22.5</course>
  <speed>26.11</speed>
  <fix>3d</fix>
</trkpt>
<trkpt lat="-27.2743601" lon="151.2919078">
  <ele>381.84</ele>
  <time>2026-09-01T19:53:50Z</time>
  <course>19.17</course>
  <speed>26.316878614303786</speed>
  <fix>3d</fix>
</trkpt>
<trkpt lat="-27.2744274" lon="151.2918794">
  <ele>380.83</ele>
  <time>2026-09-01T19:53:50Z</time>
  <course>22.5</course>
  <speed>26.11</speed>
  <fix>3d</fix>
</trkpt>
<trkpt lat="-27.2743374" lon="151.2919153">
  <ele>382.15</ele>
  <time>2026-09-01T19:53:50Z</time>
  <course>17.02</course>
  <speed>26.395942870070012</speed>
  <fix>3d</fix>
</trkpt>
<trkpt lat="-27.2743836" lon="151.2918984">
  <ele>381.5</ele>
  <time>2026-09-01T19:53:50Z</time>
  <course>19.43</course>
  <speed>26.22</speed>
  <fix>3d</fix>
</trkpt>
<trkpt lat="-27.2743143" lon="151.2919217">
  <ele>382.46</ele>
  <time>2026-09-01T19:53:50Z</time>
  <course>14.32</course>
  <speed>26.464438403261084</speed>
  <fix>3d</fix>
</trkpt>
<trkpt lat="-27.2743836" lon="151.2918984">
  <ele>381.5</ele>
  <time>2026-09-01T19:53:50Z</time>
  <course>19.43</course>
  <speed>26.22</speed>
  <fix>3d</fix>
</trkpt>
<trkpt lat="-27.274291" lon="151.2919269">
  <ele>382.78</ele>
  <time>2026-09-01T19:53:50Z</time>
  <course>11.4</course>
  <speed>26.51439608967174</speed>
  <fix>3d</fix>
</trkpt>
<trkpt lat="-27.2743385" lon="151.2919143">
  <ele>382.13</ele>
  <time>2026-09-01T19:53:50Z</time>
  <course>15.18</course>
  <speed>26.36</speed>
  <fix>3d</fix>
</trkpt>
<trkpt lat="-27.2742674" lon="151.2919307">
  <ele>383.11</ele>
  <time>2026-09-01T19:53:50Z</time>
  <course>8.38</course>
  <speed>26.55573196129227</speed>
  <fix>3d</fix>
</trkpt>
<trkpt lat="-27.2743385" lon="151.2919143">
  <ele>382.13</ele>
  <time>2026-09-01T19:53:50Z</time>
  <course>15.18</course>
  <speed>26.36</speed>
  <fix>3d</fix>
</trkpt>
<trkpt lat="-27.2742436" lon="151.291933">
  <ele>383.46</ele>
  <time>2026-09-01T19:53:50Z</time>
  <course>5.34</course>
  <speed>26.58002633557762</speed>
  <fix>3d</fix>
</trkpt>
<trkpt lat="-27.2742922" lon="151.2919259">
  <ele>382.76</ele>
  <time>2026-09-01T19:53:50Z</time>
  <course>9.75</course>
  <speed>26.47</speed>
  <fix>3d</fix>
</trkpt>
<trkpt lat="-27.2742198" lon="151.291934">
  <ele>383.82</ele>
  <time>2026-09-01T19:53:50Z</time>
  <course>2.47</course>
  <speed>26.601270646343192</speed>
  <fix>3d</fix>
</trkpt>
<trkpt lat="-27.2742922" lon="151.2919259">
  <ele>382.76</ele>
  <time>2026-09-01T19:53:50Z</time>
  <course>9.75</course>
  <speed>26.47</speed>
  <fix>3d</fix>
</trkpt>
<trkpt lat="-27.2741959" lon="151.2919336">
  <ele>384.2</ele>
  <time>2026-09-01T19:53:50Z</time>
  <course>359.79</course>
  <speed>26.64030780602957</speed>
  <fix>3d</fix>
</trkpt>
<trkpt lat="-27.274245" lon="151.2919322">
  <ele>383.44</ele>
  <time>2026-09-01T19:53:50Z</time>
  <course>3.74</course>
  <speed>26.54</speed>
  <fix>3d</fix>
</trkpt>
<trkpt lat="-27.2741726" lon="151.291932">
  <ele>384.57</ele>
  <time>2026-09-01T19:53:50Z</time>
  <course>357.31</course>
  <speed>26.665097037138267</speed>
  <fix>3d</fix>
</trkpt>
<trkpt lat="-27.274245" lon="151.2919322">
  <ele>383.44</ele>
  <time>2026-09-01T19:53:50Z</time>
  <course>3.74</course>
  <speed>26.54</speed>
  <fix>3d</fix>
</trkpt>
<trkpt lat="-27.2741487" lon="151.2919291">
  <ele>384.96</ele>
  <time>2026-09-01T19:53:50Z</time>
  <course>354.81</course>
  <speed>26.70379935514795</speed>
  <fix>3d</fix>
</trkpt>
<trkpt lat="-27.2741973" lon="151.291933">
  <ele>384.18</ele>
  <time>2026-09-01T19:53:50Z</time>
  <course>357.97</course>
  <speed>26.61</speed>
  <fix>3d</fix>
</trkpt>
<trkpt lat="-27.274125" lon="151.291925">
  <ele>385.34</ele>
  <time>2026-09-01T19:53:50Z</time>
  <course>352.43</course>
  <speed>26.74850463110041</speed>
  <fix>3d</fix>
</trkpt>
<trkpt lat="-27.2741973" lon="151.291933">
  <ele>384.18</ele>
  <time>2026-09-01T19:53:50Z</time>
  <course>357.97</course>
  <speed>26.61</speed>
  <fix>3d</fix>
</trkpt>
<trkpt lat="-27.2741014" lon="151.2919197">
  <ele>385.72</ele>
  <time>2026-09-01T19:53:50Z</time>
  <course>350.07</course>
  <speed>26.79758944382871</speed>
  <fix>3d</fix>
</trkpt>
<trkpt lat="-27.2741496" lon="151.2919286">
  <ele>384.94</ele>
  <time>2026-09-01T19:53:50Z</time>
  <course>352.69</course>
  <speed>26.68</speed>
  <fix>3d</fix>
</trkpt>
<trkpt lat="-27.274078" lon="151.2919135">
  <ele>386.1</ele>
  <time>2026-09-01T19:53:50Z</time>
  <course>347.72</course>
  <speed>26.84803530986951</speed>
  <fix>3d</fix>
</trkpt>
<trkpt lat="-27.2741496" lon="151.2919286">
  <ele>384.94</ele>
  <time>2026-09-01T19:53:50Z</time>
  <course>352.69</course>
  <speed>26.68</speed>
  <fix>3d</fix>
</trkpt>
<trkpt lat="-27.2740548" lon="151.2919061">
  <ele>386.47</ele>
  <time>2026-09-01T19:53:50Z</time>
  <course>345.37</course>
  <speed>26.902983105968005</speed>
  <fix>3d</fix>
</trkpt>
<trkpt lat="-27.2741022" lon="151.2919194">
  <ele>385.71</ele>
  <time>2026-09-01T19:53:50Z</time>
  <course>347.75</course>
  <speed>26.78</speed>
  <fix>3d</fix>
</trkpt>
<trkpt lat="-27.2740318" lon="151.2918975">
  <ele>386.83</ele>
  <time>2026-09-01T19:53:50Z</time>
  <course>343.0</course>
  <speed>26.958994788381855</speed>
  <fix>3d</fix>
</trkpt>
<trkpt lat="-27.2741022" lon="151.2919194">
  <ele>385.71</ele>
  <time>2026-09-01T19:53:50Z</time>
  <course>347.75</course>
  <speed>26.78</speed>
  <fix>3d</fix>
</trkpt>
<trkpt lat="-27.2740091" lon="151.291888">
  <ele>387.19</ele>
  <time>2026-09-01T19:53:50Z</time>
  <course>340.76</course>
  <speed>27.018697229881386</speed>
  <fix>3d</fix>
</trkpt>
<trkpt lat="-27.2740555" lon="151.2919057">
  <ele>386.45</ele>
  <time>2026-09-01T19:53:50Z</time>
  <course>343.0</course>
  <speed>26.88</speed>
  <fix>3d</fix>
</trkpt>
<trkpt lat="-27.273986" lon="151.291877">
  <ele>387.54</ele>
  <time>2026-09-01T19:53:50Z</time>
  <course>338.46</course>
  <speed>27.06915772609115</speed>
  <fix>3d</fix>
</trkpt>
<trkpt lat="-27.2740555" lon="151.2919057">
  <ele>386.45</ele>
  <time>2026-09-01T19:53:50Z</time>
  <course>343.0</course>
  <speed>26.88</speed>
  <fix>3d</fix>
</trkpt>
<trkpt lat="-27.273964" lon="151.2918652">
  <ele>387.88</ele>
  <time>2026-09-01T19:53:50Z</time>
  <course>336.22</course>
  <speed>27.114870458846006</speed>
  <fix>3d</fix>
</trkpt>
<trkpt lat="-27.2740098" lon="151.2918877">
  <ele>387.16</ele>
  <time>2026-09-01T19:53:50Z</time>
  <course>338.36</course>
  <speed>27.0</speed>
  <fix>3d</fix>
</trkpt>
<trkpt lat="-27.2739424" lon="151.2918527">
  <ele>388.21</ele>
  <time>2026-09-01T19:53:50Z</time>
  <course>334.04</course>
  <speed>27.125434558731037</speed>
  <fix>3d</fix>
</trkpt>
<trkpt lat="-27.2740098" lon="151.2918877">
  <ele>387.16</ele>
  <time>2026-09-01T19:53:50Z</time>
  <course>338.36</course>
  <speed>27.0</speed>
  <fix>3d</fix>
</trkpt>
<trkpt lat="-27.2739212" lon="151.2918392">
  <ele>388.53</ele>
  <time>2026-09-01T19:53:50Z</time>
  <course>331.96</course>
  <speed>27.129771469734134</speed>
  <fix>3d</fix>
</trkpt>
<trkpt lat="-27.2739654" lon="151.2918655">
  <ele>387.85</ele>
  <time>2026-09-01T19:53:50Z</time>
  <course>333.84</course>
  <speed>27.08</speed>
  <fix>3d</fix>
</trkpt>
<trkpt lat="-27.2739004" lon="151.2918247">
  <ele>388.83</ele>
  <time>2026-09-01T19:53:50Z</time>
  <course>329.93</course>
  <speed>27.128606672661977</speed>
  <fix>3d</fix>
</trkpt>
<trkpt lat="-27.2739654" lon="151.2918655">
  <ele>387.85</ele>
  <time>2026-09-01T19:53:50Z</time>
  <course>333.84</course>
  <speed>27.08</speed>
  <fix>3d</fix>
</trkpt>
<trkpt lat="-27.2738802" lon="151.2918095">
  <ele>389.13</ele>
  <time>2026-09-01T19:53:50Z</time>
  <course>327.92</course>
  <speed>27.1020146852591</speed>
  <fix>3d</fix>
</trkpt>
<trkpt lat="-27.2739226" lon="151.2918395">
  <ele>388.5</ele>
  <time>2026-09-01T19:53:50Z</time>
  <course>329.5</course>
  <speed>27.11</speed>
  <fix>3d</fix>
</trkpt>
<trkpt lat="-27.2738604" lon="151.2917934">
  <ele>389.41</ele>
  <time>2026-09-01T19:53:50Z</time>
  <course>326.03</course>
  <speed>27.0740853954478</speed>
  <fix>3d</fix>
</trkpt>
<trkpt lat="-27.2739226" lon="151.2918395">
  <ele>388.5</ele>
  <time>2026-09-01T19:53:50Z</time>
  <course>329.5</course>
  <speed>27.11</speed>
  <fix>3d</fix>
</trkpt>
<trkpt lat="-27.2738412" lon="151.2917767">
  <ele>389.67</ele>
  <time>2026-09-01T19:53:50Z</time>
  <course>324.29</course>
  <speed>27.039955621265356</speed>
  <fix>3d</fix>
</trkpt>
<trkpt lat="-27.2738816" lon="151.29181">
  <ele>389.1</ele>
  <time>2026-09-01T19:53:50Z</time>
  <course>325.38</course>
  <speed>27.09</speed>
  <fix>3d</fix>
</trkpt>
<trkpt lat="-27.2738225" lon="151.2917594">
  <ele>389.92</ele>
  <time>2026-09-01T19:53:50Z</time>
  <course>322.54</course>
  <speed>26.995134746839103</speed>
  <fix>3d</fix>
</trkpt>
<trkpt lat="-27.2738816" lon="151.29181">
  <ele>389.1</ele>
  <time>2026-09-01T19:53:50Z</time>
  <course>325.38</course>
  <speed>27.09</speed>
  <fix>3d</fix>
</trkpt>
<trkpt lat="-27.2738042" lon="151.2917415">
  <ele>390.15</ele>
  <time>2026-09-01T19:53:50Z</time>
  <course>320.87</course>
  <speed>26.96300057486184</speed>
  <fix>3d</fix>
</trkpt>
<trkpt lat="-27.2738426" lon="151.2917774">
  <ele>389.65</ele>
  <time>2026-09-01T19:53:50Z</time>
  <course>321.57</course>
  <speed>27.03</speed>
  <fix>3d</fix>
</trkpt>
<trkpt lat="-27.2737865" lon="151.291723">
  <ele>390.36</ele>
  <time>2026-09-01T19:53:50Z</time>
  <course>319.26</course>
  <speed>26.912772060863595</speed>
  <fix>3d</fix>
</trkpt>
<trkpt lat="-27.2738426" lon="151.2917774">
  <ele>389.65</ele>
  <time>2026-09-01T19:53:50Z</time>
  <course>321.57</course>
  <speed>27.03</speed>
  <fix>3d</fix>
</trkpt>
<trkpt lat="-27.2737693" lon="151.2917038">
  <ele>390.54</ele>
  <time>2026-09-01T19:53:50Z</time>
  <course>317.7</course>
  <speed>26.86325557336638</speed>
  <fix>3d</fix>
</trkpt>
<trkpt lat="-27.2738055" lon="151.2917422">
  <ele>390.13</ele>
  <time>2026-09-01T19:53:50Z</time>
  <course>318.09</course>
  <speed>26.95</speed>
  <fix>3d</fix>
</trkpt>
<trkpt lat="-27.2737525" lon="151.2916843">
  <ele>390.7</ele>
  <time>2026-09-01T19:53:50Z</time>
  <course>316.22</course>
  <speed>26.811896613257332</speed>
  <fix>3d</fix>
</trkpt>
<trkpt lat="-27.2738055" lon="151.2917422">
  <ele>390.13</ele>
  <time>2026-09-01T19:53:50Z</time>
  <course>318.09</course>
  <speed>26.95</speed>
  <fix>3d</fix>
</trkpt>
<trkpt lat="-27.2737363" lon="151.2916645">
  <ele>390.84</ele>
  <time>2026-09-01T19:53:50Z</time>
  <course>314.77</course>
  <speed>26.749857943548037</speed>
  <fix>3d</fix>
</trkpt>
<trkpt lat="-27.2737705" lon="151.2917048">
  <ele>390.52</ele>
  <time>2026-09-01T19:53:50Z</time>
  <course>314.88</course>
  <speed>26.86</speed>
  <fix>3d</fix>
</trkpt>
<trkpt lat="-27.2737205" lon="151.291644">
  <ele>390.95</ele>
  <time>2026-09-01T19:53:50Z</time>
  <course>313.28</course>
  <speed>26.691519252376775</speed>
  <fix>3d</fix>
</trkpt>
<trkpt lat="-27.2737705" lon="151.2917048">
  <ele>390.52</ele>
  <time>2026-09-01T19:53:50Z</time>
  <course>314.88</course>
  <speed>26.86</speed>
  <fix>3d</fix>
</trkpt>
<trkpt lat="-27.2737053" lon="151.2916233">
  <ele>391.05</ele>
  <time>2026-09-01T19:53:50Z</time>
  <course>311.85</course>
  <speed>26.63403274008651</speed>
  <fix>3d</fix>
</trkpt>
<trkpt lat="-27.2737374" lon="151.2916654">
  <ele>390.82</ele>
  <time>2026-09-01T19:53:50Z</time>
  <course>311.85</course>
  <speed>26.75</speed>
  <fix>3d</fix>
</trkpt>
<trkpt lat="-27.2736905" lon="151.2916022">
  <ele>391.12</ele>
  <time>2026-09-01T19:53:50Z</time>
  <course>310.41</course>
  <speed>26.583432810681167</speed>
  <fix>3d</fix>
</trkpt>
<trkpt lat="-27.2737374" lon="151.2916654">
  <ele>390.82</ele>
  <time>2026-09-01T19:53:50Z</time>
  <course>311.85</course>
  <speed>26.75</speed>
  <fix>3d</fix>
</trkpt>
<trkpt lat="-27.2736763" lon="151.2915807">
  <ele>391.17</ele>
  <time>2026-09-01T19:53:50Z</time>
  <course>308.98</course>
  <speed>26.52066552709415</speed>
  <fix>3d</fix>
</trkpt>
<trkpt lat="-27.2737064" lon="151.2916243">
  <ele>391.03</ele>
  <time>2026-09-01T19:53:50Z</time>
  <course>308.96</course>
  <speed>26.63</speed>
  <fix>3d</fix>
</trkpt>
<trkpt lat="-27.2736625" lon="151.2915588">
  <ele>391.19</ele>
  <time>2026-09-01T19:53:50Z</time>
  <course>307.61</course>
  <speed>26.46320464342896</speed>
  <fix>3d</fix>
</trkpt>
<trkpt lat="-27.2737064" lon="151.2916243">
  <ele>391.03</ele>
  <time>2026-09-01T19:53:50Z</time>
  <course>308.96</course>
  <speed>26.63</speed>
  <fix>3d</fix>
</trkpt>
<trkpt lat="-27.2736492" lon="151.2915367">
  <ele>391.2</ele>
  <time>2026-09-01T19:53:50Z</time>
  <course>306.28</course>
  <speed>26.41523234802223</speed>
  <fix>3d</fix>
</trkpt>
<trkpt lat="-27.2736772" lon="151.2915817">
  <ele>391.15</ele>
  <time>2026-09-01T19:53:50Z</time>
  <course>306.15</course>
  <speed>26.52</speed>
  <fix>3d</fix>
</trkpt>
<trkpt lat="-27.2736367" lon="151.2915147">
  <ele>391.18</ele>
  <time>2026-09-01T19:53:50Z</time>
  <course>304.87</course>
  <speed>26.372760568435</speed>
  <fix>3d</fix>
</trkpt>
<trkpt lat="-27.2736772" lon="151.2915817">
  <ele>391.15</ele>
  <time>2026-09-01T19:53:50Z</time>
  <course>306.15</course>
  <speed>26.52</speed>
  <fix>3d</fix>
</trkpt>
<trkpt lat="-27.273624" lon="151.2914913">
  <ele>391.15</ele>
  <time>2026-09-01T19:53:50Z</time>
  <course>303.39</course>
  <speed>26.32364906315232</speed>
  <fix>3d</fix>
</trkpt>
<trkpt lat="-27.2736501" lon="151.2915377">
  <ele>391.18</ele>
  <time>2026-09-01T19:53:50Z</time>
  <course>303.43</course>
  <speed>26.41</speed>
  <fix>3d</fix>
</trkpt>
<trkpt lat="-27.2736122" lon="151.2914683">
  <ele>391.1</ele>
  <time>2026-09-01T19:53:50Z</time>
  <course>302.01</course>
  <speed>26.277461825678675</speed>
  <fix>3d</fix>
</trkpt>
<trkpt lat="-27.2736501" lon="151.2915377">
  <ele>391.18</ele>
  <time>2026-09-01T19:53:50Z</time>
  <course>303.43</course>
  <speed>26.41</speed>
  <fix>3d</fix>
</trkpt>
<trkpt lat="-27.2736009" lon="151.2914449">
  <ele>391.04</ele>
  <time>2026-09-01T19:53:50Z</time>
  <course>300.65</course>
  <speed>26.2459234929922</speed>
  <fix>3d</fix>
</trkpt>
<trkpt lat="-27.2736249" lon="151.2914925">
  <ele>391.14</ele>
  <time>2026-09-01T19:53:50Z</time>
  <course>300.75</course>
  <speed>26.32</speed>
  <fix>3d</fix>
</trkpt>
<trkpt lat="-27.2735901" lon="151.2914214">
  <ele>390.96</ele>
  <time>2026-09-01T19:53:50Z</time>
  <course>299.32</course>
  <speed>26.202268985719538</speed>
  <fix>3d</fix>
</trkpt>
<trkpt lat="-27.2736249" lon="151.2914925">
  <ele>391.14</ele>
  <time>2026-09-01T19:53:50Z</time>
  <course>300.75</course>
  <speed>26.32</speed>
  <fix>3d</fix>
</trkpt>
<trkpt lat="-27.2735797" lon="151.2913977">
  <ele>390.87</ele>
  <time>2026-09-01T19:53:50Z</time>
  <course>298.0</course>
  <speed>26.181285300763978</speed>
  <fix>3d</fix>
</trkpt>
<trkpt lat="-27.2736017" lon="151.2914463">
  <ele>391.03</ele>
  <time>2026-09-01T19:53:50Z</time>
  <course>298.06</course>
  <speed>26.24</speed>
  <fix>3d</fix>
</trkpt>
<trkpt lat="-27.2735699" lon="151.2913736">
  <ele>390.77</ele>
  <time>2026-09-01T19:53:50Z</time>
  <course>296.66</course>
  <speed>26.151290599127222</speed>
  <fix>3d</fix>
</trkpt>
<trkpt lat="-27.2736017" lon="151.2914463">
  <ele>391.03</ele>
  <time>2026-09-01T19:53:50Z</time>
  <course>298.06</course>
  <speed>26.24</speed>
  <fix>3d</fix>
</trkpt>
<trkpt lat="-27.2735606" lon="151.2913495">
  <ele>390.66</ele>
  <time>2026-09-01T19:53:50Z</time>
  <course>295.38</course>
  <speed>26.129341744483344</speed>
  <fix>3d</fix>
</trkpt>
<trkpt lat="-27.2735806" lon="151.2913989">
  <ele>390.87</ele>
  <time>2026-09-01T19:53:50Z</time>
  <course>295.43</course>
  <speed>26.18</speed>
  <fix>3d</fix>
</trkpt>
<trkpt lat="-27.2735517" lon="151.291325">
  <ele>390.54</ele>
  <time>2026-09-01T19:53:50Z</time>
  <course>294.12</course>
  <speed>26.105296397474593</speed>
  <fix>3d</fix>
</trkpt>
<trkpt lat="-27.2735806" lon="151.2913989">
  <ele>390.87</ele>
  <time>2026-09-01T19:53:50Z</time>
  <course>295.43</course>
  <speed>26.18</speed>
  <fix>3d</fix>
</trkpt>
<trkpt lat="-27.2735434" lon="151.2913003">
  <ele>390.42</ele>
  <time>2026-09-01T19:53:50Z</time>
  <course>292.93</course>
  <speed>26.090956287572133</speed>
  <fix>3d</fix>
</trkpt>
<trkpt lat="-27.2735613" lon="151.2913507">
  <ele>390.66</ele>
  <time>2026-09-01T19:53:50Z</time>
  <course>292.88</course>
  <speed>26.13</speed>
  <fix>3d</fix>
</trkpt>
<trkpt lat="-27.2735354" lon="151.2912756">
  <ele>390.29</ele>
  <time>2026-09-01T19:53:50Z</time>
  <course>291.69</course>
  <speed>26.08166597439665</speed>
  <fix>3d</fix>
</trkpt>
<trkpt lat="-27.2735613" lon="151.2913507">
  <ele>390.66</ele>
  <time>2026-09-01T19:53:50Z</time>
  <course>292.88</course>
  <speed>26.13</speed>
  <fix>3d</fix>
</trkpt>
<trkpt lat="-27.2735279" lon="151.2912505">
  <ele>390.15</ele>
  <time>2026-09-01T19:53:50Z</time>
  <course>290.5</course>
  <speed>26.064051872262684</speed>
  <fix>3d</fix>
</trkpt>
<trkpt lat="-27.273544" lon="151.2913017">
  <ele>390.42</ele>
  <time>2026-09-01T19:53:50Z</time>
  <course>290.45</course>
  <speed>26.09</speed>
  <fix>3d</fix>
</trkpt>
<trkpt lat="-27.2735209" lon="151.2912255">
  <ele>390.02</ele>
  <time>2026-09-01T19:53:50Z</time>
  <course>289.4</course>
  <speed>26.056064553189916</speed>
  <fix>3d</fix>
</trkpt>
<trkpt lat="-27.273544" lon="151.2913017">
  <ele>390.42</ele>
  <time>2026-09-01T19:53:50Z</time>
  <course>290.45</course>
  <speed>26.09</speed>
  <fix>3d</fix>
</trkpt>
<trkpt lat="-27.2735143" lon="151.2912002">
  <ele>389.87</ele>
  <time>2026-09-01T19:53:50Z</time>
  <course>288.29</course>
  <speed>26.040816039440852</speed>
  <fix>3d</fix>
</trkpt>
<trkpt lat="-27.2735286" lon="151.2912519">
  <ele>390.15</ele>
  <time>2026-09-01T19:53:50Z</time>
  <course>288.16</course>
  <speed>26.06</speed>
  <fix>3d</fix>
</trkpt>
<trkpt lat="-27.273508" lon="151.2911748">
  <ele>389.73</ele>
  <time>2026-09-01T19:53:50Z</time>
  <course>287.28</course>
  <speed>26.041966131611492</speed>
  <fix>3d</fix>
</trkpt>
<trkpt lat="-27.2735286" lon="151.2912519">
  <ele>390.15</ele>
  <time>2026-09-01T19:53:50Z</time>
  <course>288.16</course>
  <speed>26.06</speed>
  <fix>3d</fix>
</trkpt>
<trkpt lat="-27.2735022" lon="151.2911494">
  <ele>389.58</ele>
  <time>2026-09-01T19:53:50Z</time>
  <course>286.29</course>
  <speed>26.02649803565589</speed>
  <fix>3d</fix>
</trkpt>
<trkpt lat="-27.2735148" lon="151.2912016">
  <ele>389.88</ele>
  <time>2026-09-01T19:53:50Z</time>
  <course>286.03</course>
  <speed>26.04</speed>
  <fix>3d</fix>
</trkpt>
<trkpt lat="-27.2734967" lon="151.2911239">
  <ele>389.43</ele>
  <time>2026-09-01T19:53:50Z</time>
  <course>285.32</course>
  <speed>26.022336559194677</speed>
  <fix>3d</fix>
</trkpt>
<trkpt lat="-27.2735148" lon="151.2912016">
  <ele>389.88</ele>
  <time>2026-09-01T19:53:50Z</time>
  <course>286.03</course>
  <speed>26.04</speed>
  <fix>3d</fix>
</trkpt>
<trkpt lat="-27.2734915" lon="151.2910982">
  <ele>389.28</ele>
  <time>2026-09-01T19:53:50Z</time>
  <course>284.43</course>
  <speed>26.01881818991785</speed>
  <fix>3d</fix>
</trkpt>
<trkpt lat="-27.2735027" lon="151.2911509">
  <ele>389.59</ele>
  <time>2026-09-01T19:53:50Z</time>
  <course>284.11</course>
  <speed>26.03</speed>
  <fix>3d</fix>
</trkpt>
<trkpt lat="-27.2734867" lon="151.2910724">
  <ele>389.13</ele>
  <time>2026-09-01T19:53:50Z</time>
  <course>283.63</course>
  <speed>26.00720092589743</speed>
  <fix>3d</fix>
</trkpt>
<trkpt lat="-27.2735027" lon="151.2911509">
  <ele>389.59</ele>
  <time>2026-09-01T19:53:50Z</time>
  <course>284.11</course>
  <speed>26.03</speed>
  <fix>3d</fix>
</trkpt>
<trkpt lat="-27.2734822" lon="151.2910466">
  <ele>388.98</ele>
  <time>2026-09-01T19:53:50Z</time>
  <course>282.81</course>
  <speed>26.013738677860207</speed>
  <fix>3d</fix>
</trkpt>
<trkpt lat="-27.2734919" lon="151.2910996">
  <ele>389.29</ele>
  <time>2026-09-01T19:53:50Z</time>
  <course>282.4</course>
  <speed>26.01</speed>
  <fix>3d</fix>
</trkpt>
<trkpt lat="-27.2734779" lon="151.2910209">
  <ele>388.83</ele>
  <time>2026-09-01T19:53:50Z</time>
  <course>282.05</course>
  <speed>26.008231389312115</speed>
  <fix>3d</fix>
</trkpt>
<trkpt lat="-27.2734919" lon="151.2910996">
  <ele>389.29</ele>
  <time>2026-09-01T19:53:50Z</time>
  <course>282.4</course>
  <speed>26.01</speed>
  <fix>3d</fix>
</trkpt>
<trkpt lat="-27.2734739" lon="151.2909949">
  <ele>388.68</ele>
  <time>2026-09-01T19:53:50Z</time>
  <course>281.33</course>
  <speed>25.99972499854566</speed>
  <fix>3d</fix>
</trkpt>
<trkpt lat="-27.2734825" lon="151.291048">
  <ele>388.99</ele>
  <time>2026-09-01T19:53:50Z</time>
  <course>280.89</course>
  <speed>26.01</speed>
  <fix>3d</fix>
</trkpt>
<trkpt lat="-27.2734702" lon="151.290969">
  <ele>388.53</ele>
  <time>2026-09-01T19:53:50Z</time>
  <course>280.71</course>
  <speed>25.998961517722204</speed>
  <fix>3d</fix>
</trkpt>
<trkpt lat="-27.2734825" lon="151.291048">
  <ele>388.99</ele>
  <time>2026-09-01T19:53:50Z</time>
  <course>280.89</course>
  <speed>26.01</speed>
  <fix>3d</fix>
</trkpt>
<trkpt lat="-27.2734666" lon="151.2909431">
  <ele>388.38</ele>
  <time>2026-09-01T19:53:50Z</time>
  <course>280.14</course>
  <speed>25.993710777801617</speed>
  <fix>3d</fix>
</trkpt>
<trkpt lat="-27.2734742" lon="151.2909963">
  <ele>388.69</ele>
  <time>2026-09-01T19:53:50Z</time>
  <course>279.61</course>
  <speed>26.0</speed>
  <fix>3d</fix>
</trkpt>
<trkpt lat="-27.2734633" lon="151.2909171">
  <ele>388.23</ele>
  <time>2026-09-01T19:53:50Z</time>
  <course>279.54</course>
  <speed>25.99470138316653</speed>
  <fix>3d</fix>
</trkpt>
<trkpt lat="-27.2734742" lon="151.2909963">
  <ele>388.69</ele>
  <time>2026-09-01T19:53:50Z</time>
  <course>279.61</course>
  <speed>26.0</speed>
  <fix>3d</fix>
</trkpt>
<trkpt lat="-27.2734601" lon="151.290891">
  <ele>388.08</ele>
  <time>2026-09-01T19:53:50Z</time>
  <course>279.0</course>
  <speed>25.99991153831105</speed>
  <fix>3d</fix>
</trkpt>
<trkpt lat="-27.2734668" lon="151.2909444">
  <ele>388.39</ele>
  <time>2026-09-01T19:53:50Z</time>
  <course>278.53</course>
  <speed>26.0</speed>
  <fix>3d</fix>
</trkpt>
<trkpt lat="-27.2734571" lon="151.290865">
  <ele>387.94</ele>
  <time>2026-09-01T19:53:50Z</time>
  <course>278.52</course>
  <speed>25.99900382706999</speed>
  <fix>3d</fix>
</trkpt>
<trkpt lat="-27.2734668" lon="151.2909444">
  <ele>388.39</ele>
  <time>2026-09-01T19:53:50Z</time>
  <course>278.53</course>
  <speed>26.0</speed>
  <fix>3d</fix>
</trkpt>
<trkpt lat="-27.2734542" lon="151.290839">
  <ele>387.8</ele>
  <time>2026-09-01T19:53:50Z</time>
  <course>278.04</course>
  <speed>25.990375141578852</speed>
  <fix>3d</fix>
</trkpt>
<trkpt lat="-27.2734602" lon="151.2908923">
  <ele>388.09</ele>
  <time>2026-09-01T19:53:50Z</time>
  <course>277.67</course>
  <speed>26.0</speed>
  <fix>3d</fix>
</trkpt>
<trkpt lat="-27.2734514" lon="151.2908127">
  <ele>387.66</ele>
  <time>2026-09-01T19:53:50Z</time>
  <course>277.66</course>
  <speed>25.99485526022409</speed>
  <fix>3d</fix>
</trkpt>
<trkpt lat="-27.2734602" lon="151.2908923">
  <ele>388.09</ele>
  <time>2026-09-01T19:53:50Z</time>
  <course>277.67</course>
  <speed>26.0</speed>
  <fix>3d</fix>
</trkpt>
<trkpt lat="-27.2734487" lon="151.2907866">
  <ele>387.53</ele>
  <time>2026-09-01T19:53:50Z</time>
  <course>277.34</course>
  <speed>25.993403009225243</speed>
  <fix>3d</fix>
</trkpt>
<trkpt lat="-27.2734543" lon="151.2908402">
  <ele>387.81</ele>
  <time>2026-09-01T19:53:50Z</time>
  <course>276.98</course>
  <speed>25.99</speed>
  <fix>3d</fix>
</trkpt>
<trkpt lat="-27.2734461" lon="151.2907605">
  <ele>387.4</ele>
  <time>2026-09-01T19:53:50Z</time>
  <course>277.08</course>
  <speed>25.983481291004868</speed>
  <fix>3d</fix>
</trkpt>
<trkpt lat="-27.2734543" lon="151.2908402">
  <ele>387.81</ele>
  <time>2026-09-01T19:53:50Z</time>
  <course>276.98</course>
  <speed>25.99</speed>
  <fix>3d</fix>
</trkpt>
<trkpt lat="-27.2734436" lon="151.2907344">
  <ele>387.28</ele>
  <time>2026-09-01T19:53:50Z</time>
  <course>276.86</course>
  <speed>25.985921188212664</speed>
  <fix>3d</fix>
</trkpt>
<trkpt lat="-27.2734489" lon="151.290788">
  <ele>387.54</ele>
  <time>2026-09-01T19:53:50Z</time>
  <course>276.46</course>
  <speed>25.99</speed>
  <fix>3d</fix>
</trkpt>
<trkpt lat="-27.2734412" lon="151.2907081">
  <ele>387.15</ele>
  <time>2026-09-01T19:53:50Z</time>
  <course>276.64</course>
  <speed>25.980677435355684</speed>
  <fix>3d</fix>
</trkpt>
<trkpt lat="-27.2734489" lon="151.290788">
  <ele>387.54</ele>
  <time>2026-09-01T19:53:50Z</time>
  <course>276.46</course>
  <speed>25.99</speed>
  <fix>3d</fix>
</trkpt>
<trkpt lat="-27.2734388" lon="151.2906821">
  <ele>387.03</ele>
  <time>2026-09-01T19:53:50Z</time>
  <course>276.46</course>
  <speed>25.96762984948761</speed>
  <fix>3d</fix>
</trkpt>
<trkpt lat="-27.2734438" lon="151.2907359">
  <ele>387.28</ele>
  <time>2026-09-01T19:53:50Z</time>
  <course>276.11</course>
  <speed>25.98</speed>
  <fix>3d</fix>
</trkpt>
<trkpt lat="-27.2734364" lon="151.2906559">
  <ele>386.91</ele>
  <time>2026-09-01T19:53:50Z</time>
  <course>276.29</course>
  <speed>25.965581064170316</speed>
  <fix>3d</fix>
</trkpt>
<trkpt lat="-27.2734438" lon="151.2907359">
  <ele>387.28</ele>
  <time>2026-09-01T19:53:50Z</time>
  <course>276.11</course>
  <speed>25.98</speed>
  <fix>3d</fix>
</trkpt>
<trkpt lat="-27.273434" lon="151.2906299">
  <ele>386.8</ele>
  <time>2026-09-01T19:53:50Z</time>
  <course>276.18</course>
  <speed>25.95563329992162</speed>
  <fix>3d</fix>
</trkpt>
<trkpt lat="-27.2734389" lon="151.2906837">
  <ele>387.04</ele>
  <time>2026-09-01T19:53:50Z</time>
  <course>275.92</course>
  <speed>25.97</speed>
  <fix>3d</fix>
</trkpt>
<trkpt lat="-27.2734316" lon="151.2906038">
  <ele>386.69</ele>
  <time>2026-09-01T19:53:50Z</time>
  <course>276.11</course>
  <speed>25.945685575833217</speed>
  <fix>3d</fix>
</trkpt>
<trkpt lat="-27.2734389" lon="151.2906837">
  <ele>387.04</ele>
  <time>2026-09-01T19:53:50Z</time>
  <course>275.92</course>
  <speed>25.97</speed>
  <fix>3d</fix>
</trkpt>
<trkpt lat="-27.2734292" lon="151.2905778">
  <ele>386.58</ele>
  <time>2026-09-01T19:53:50Z</time>
  <course>276.1</course>
  <speed>25.938820327840663</speed>
  <fix>3d</fix>
</trkpt>
<trkpt lat="-27.2734341" lon="151.2906315">
  <ele>386.81</ele>
  <time>2026-09-01T19:53:50Z</time>
  <course>275.87</course>
  <speed>25.96</speed>
  <fix>3d</fix>
</trkpt>
<trkpt lat="-27.2734268" lon="151.2905516">
  <ele>386.48</ele>
  <time>2026-09-01T19:53:50Z</time>
  <course>276.07</course>
  <speed>25.931991824771195</speed>
  <fix>3d</fix>
</trkpt>
<trkpt lat="-27.2734341" lon="151.2906315">
  <ele>386.81</ele>
  <time>2026-09-01T19:53:50Z</time>
  <course>275.87</course>
  <speed>25.96</speed>
  <fix>3d</fix>
</trkpt>
<trkpt lat="-27.2734243" lon="151.2905257">
  <ele>386.38</ele>
  <time>2026-09-01T19:53:50Z</time>
  <course>276.14</course>
  <speed>25.927321496830327</speed>
  <fix>3d</fix>
</trkpt>
<trkpt lat="-27.2734293" lon="151.2905793">
  <ele>386.59</ele>
  <time>2026-09-01T19:53:50Z</time>
  <course>275.94</course>
  <speed>25.94</speed>
  <fix>3d</fix>
</trkpt>
<trkpt lat="-27.2734218" lon="151.2904996">
  <ele>386.28</ele>
  <time>2026-09-01T19:53:50Z</time>
  <course>276.22</course>
  <speed>25.91280957364523</speed>
  <fix>3d</fix>
</trkpt>
<trkpt lat="-27.2734293" lon="151.2905793">
  <ele>386.59</ele>
  <time>2026-09-01T19:53:50Z</time>
  <course>275.94</course>
  <speed>25.94</speed>
  <fix>3d</fix>
</trkpt>
<trkpt lat="-27.2734193" lon="151.2904735">
  <ele>386.18</ele>
  <time>2026-09-01T19:53:50Z</time>
  <course>276.33</course>
  <speed>25.910555764012475</speed>
  <fix>3d</fix>
</trkpt>
<trkpt lat="-27.2734244" lon="151.290527">
  <ele>386.38</ele>
  <time>2026-09-01T19:53:50Z</time>
  <course>276.12</course>
  <speed>25.92</speed>
  <fix>3d</fix>
</trkpt>
<trkpt lat="-27.2734166" lon="151.2904476">
  <ele>386.08</ele>
  <time>2026-09-01T19:53:50Z</time>
  <course>276.42</course>
  <speed>25.899700770472233</speed>
  <fix>3d</fix>
</trkpt>
<trkpt lat="-27.2734244" lon="151.290527">
  <ele>386.38</ele>
  <time>2026-09-01T19:53:50Z</time>
  <course>276.12</course>
  <speed>25.92</speed>
  <fix>3d</fix>
</trkpt>
<trkpt lat="-27.273414" lon="151.2904216">
  <ele>385.99</ele>
  <time>2026-09-01T19:53:50Z</time>
  <course>276.55</course>
  <speed>25.88793155120741</speed>
  <fix>3d</fix>
</trkpt>
<trkpt lat="-27.2734194" lon="151.2904749">
  <ele>386.18</ele>
  <time>2026-09-01T19:53:50Z</time>
  <course>276.39</course>
  <speed>25.91</speed>
  <fix>3d</fix>
</trkpt>
<trkpt lat="-27.2734112" lon="151.2903955">
  <ele>385.9</ele>
  <time>2026-09-01T19:53:50Z</time>
  <course>276.75</course>
  <speed>25.878765426503637</speed>
  <fix>3d</fix>
</trkpt>
<trkpt lat="-27.2734194" lon="151.2904749">
  <ele>386.18</ele>
  <time>2026-09-01T19:53:50Z</time>
  <course>276.39</course>
  <speed>25.91</speed>
  <fix>3d</fix>
</trkpt>
<trkpt lat="-27.2734083" lon="151.2903696">
  <ele>385.8</ele>
  <time>2026-09-01T19:53:50Z</time>
  <course>276.91</course>
  <speed>25.860001933487936</speed>
  <fix>3d</fix>
</trkpt>
<trkpt lat="-27.273414" lon="151.2904229">
  <ele>385.99</ele>
  <time>2026-09-01T19:53:50Z</time>
  <course>276.73</course>
  <speed>25.89</speed>
  <fix>3d</fix>
</trkpt>
<trkpt lat="-27.2734054" lon="151.2903437">
  <ele>385.71</ele>
  <time>2026-09-01T19:53:50Z</time>
  <course>277.05</course>
  <speed>25.852769677541325</speed>
  <fix>3d</fix>
</trkpt>
<trkpt lat="-27.273414" lon="151.2904229">
  <ele>385.99</ele>
  <time>2026-09-01T19:53:50Z</time>
  <course>276.73</course>
  <speed>25.89</speed>
  <fix>3d</fix>
</trkpt>
<trkpt lat="-27.2734024" lon="151.2903179">
  <ele>385.62</ele>
  <time>2026-09-01T19:53:50Z</time>
  <course>277.21</course>
  <speed>25.836025236092336</speed>
  <fix>3d</fix>
</trkpt>
<trkpt lat="-27.2734084" lon="151.290371">
  <ele>385.8</ele>
  <time>2026-09-01T19:53:50Z</time>
  <course>277.14</course>
  <speed>25.86</speed>
  <fix>3d</fix>
</trkpt>
<trkpt lat="-27.2733993" lon="151.290292">
  <ele>385.53</ele>
  <time>2026-09-01T19:53:50Z</time>
  <course>277.34</course>
  <speed>25.8210534254511</speed>
  <fix>3d</fix>
</trkpt>
<trkpt lat="-27.2734084" lon="151.290371">
  <ele>385.8</ele>
  <time>2026-09-01T19:53:50Z</time>
  <course>277.14</course>
  <speed>25.86</speed>
  <fix>3d</fix>
</trkpt>
<trkpt lat="-27.2733961" lon="151.2902662">
  <ele>385.44</ele>
  <time>2026-09-01T19:53:50Z</time>
  <course>277.54</course>
  <speed>25.805171962224936</speed>
  <fix>3d</fix>
</trkpt>
<trkpt lat="-27.2734025" lon="151.2903192">
  <ele>385.62</ele>
  <time>2026-09-01T19:53:50Z</time>
  <course>277.59</course>
  <speed>25.84</speed>
  <fix>3d</fix>
</trkpt>
<trkpt lat="-27.2733928" lon="151.2902403">
  <ele>385.36</ele>
  <time>2026-09-01T19:53:50Z</time>
  <course>277.74</course>
  <speed>25.799598834090425</speed>
  <fix>3d</fix>
</trkpt>
<trkpt lat="-27.2734025" lon="151.2903192">
  <ele>385.62</ele>
  <time>2026-09-01T19:53:50Z</time>
  <course>277.59</course>
  <speed>25.84</speed>
  <fix>3d</fix>
</trkpt>
<trkpt lat="-27.2733894" lon="151.2902145">
  <ele>385.27</ele>
  <time>2026-09-01T19:53:50Z</time>
  <course>278.0</course>
  <speed>25.77613237085812</speed>
  <fix>3d</fix>
</trkpt>
<trkpt lat="-27.2733961" lon="151.2902675">
  <ele>385.45</ele>
  <time>2026-09-01T19:53:50Z</time>
  <course>278.06</course>
  <speed>25.81</speed>
  <fix>3d</fix>
</trkpt>
<trkpt lat="-27.2733859" lon="151.2901889">
  <ele>385.18</ele>
  <time>2026-09-01T19:53:50Z</time>
  <course>278.28</course>
  <speed>25.76305882460388</speed>
  <fix>3d</fix>
</trkpt>
<trkpt lat="-27.2733961" lon="151.2902675">
  <ele>385.45</ele>
  <time>2026-09-01T19:53:50Z</time>
  <course>278.06</course>
  <speed>25.81</speed>
  <fix>3d</fix>
</trkpt>
<trkpt lat="-27.2733823" lon="151.2901631">
  <ele>385.09</ele>
  <time>2026-09-01T19:53:50Z</time>
  <course>278.53</course>
  <speed>25.742183279589945</speed>
  <fix>3d</fix>
</trkpt>
<trkpt lat="-27.2733894" lon="151.2902159">
  <ele>385.27</ele>
  <time>2026-09-01T19:53:50Z</time>
  <course>278.54</course>
  <speed>25.78</speed>
  <fix>3d</fix>
</trkpt>
<trkpt lat="-27.2733786" lon="151.2901374">
  <ele>385.0</ele>
  <time>2026-09-01T19:53:50Z</time>
  <course>278.76</course>
  <speed>25.72028965622277</speed>
  <fix>3d</fix>
</trkpt>
<trkpt lat="-27.2733894" lon="151.2902159">
  <ele>385.27</ele>
  <time>2026-09-01T19:53:50Z</time>
  <course>278.54</course>
  <speed>25.78</speed>
  <fix>3d</fix>
</trkpt>
<trkpt lat="-27.2733748" lon="151.2901118">
  <ele>384.9</ele>
  <time>2026-09-01T19:53:50Z</time>
  <course>278.99</course>
  <speed>25.710437569205236</speed>
  <fix>3d</fix>
</trkpt>
<trkpt lat="-27.2733823" lon="151.2901644">
  <ele>385.09</ele>
  <time>2026-09-01T19:53:50Z</time>
  <course>279.06</course>
  <speed>25.74</speed>
  <fix>3d</fix>
</trkpt>
<trkpt lat="-27.2733708" lon="151.290086">
  <ele>384.8</ele>
  <time>2026-09-01T19:53:50Z</time>
  <course>279.23</course>
  <speed>25.699463029409777</speed>
  <fix>3d</fix>
</trkpt>
<trkpt lat="-27.2733823" lon="151.2901644">
  <ele>385.09</ele>
  <time>2026-09-01T19:53:50Z</time>
  <course>279.06</course>
  <speed>25.74</speed>
  <fix>3d</fix>
</trkpt>
<trkpt lat="-27.2733668" lon="151.2900604">
  <ele>384.71</ele>
  <time>2026-09-01T19:53:50Z</time>
  <course>279.46</course>
  <speed>25.680903410900484</speed>
  <fix>3d</fix>
</trkpt>
<trkpt lat="-27.2733748" lon="151.2901131">
  <ele>384.9</ele>
  <time>2026-09-01T19:53:50Z</time>
  <course>279.59</course>
  <speed>25.71</speed>
  <fix>3d</fix>
</trkpt>
<trkpt lat="-27.2733627" lon="151.2900349">
  <ele>384.61</ele>
  <time>2026-09-01T19:53:50Z</time>
  <course>279.75</course>
  <speed>25.6709836196434</speed>
  <fix>3d</fix>
</trkpt>
<trkpt lat="-27.2733748" lon="151.2901131">
  <ele>384.9</ele>
  <time>2026-09-01T19:53:50Z</time>
  <course>279.59</course>
  <speed>25.71</speed>
  <fix>3d</fix>
</trkpt>
<trkpt lat="-27.2733585" lon="151.2900094">
  <ele>384.5</ele>
  <time>2026-09-01T19:53:50Z</time>
  <course>280.03</course>
  <speed>25.65173873249141</speed>
  <fix>3d</fix>
</trkpt>
<trkpt lat="-27.2733669" lon="151.2900619">
  <ele>384.71</ele>
  <time>2026-09-01T19:53:50Z</time>
  <course>280.12</course>
  <speed>25.68</speed>
  <fix>3d</fix>
</trkpt>
<trkpt lat="-27.2733542" lon="151.289984">
  <ele>384.4</ele>
  <time>2026-09-01T19:53:50Z</time>
  <course>280.33</course>
  <speed>25.634907840676938</speed>
  <fix>3d</fix>
</trkpt>
<trkpt lat="-27.2733669" lon="151.2900619">
  <ele>384.71</ele>
  <time>2026-09-01T19:53:50Z</time>
  <course>280.12</course>
  <speed>25.68</speed>
  <fix>3d</fix>
</trkpt>
<trkpt lat="-27.2733497" lon="151.2899586">
  <ele>384.3</ele>
  <time>2026-09-01T19:53:50Z</time>
  <course>280.61</course>
  <speed>25.628499761008253</speed>
  <fix>3d</fix>
</trkpt>
<trkpt lat="-27.2733586" lon="151.2900108">
  <ele>384.51</ele>
  <time>2026-09-01T19:53:50Z</time>
  <course>280.65</course>
  <speed>25.65</speed>
  <fix>3d</fix>
</trkpt>
<trkpt lat="-27.2733452" lon="151.2899332">
  <ele>384.19</ele>
  <time>2026-09-01T19:53:50Z</time>
  <course>280.86</course>
  <speed>25.610898070938475</speed>
  <fix>3d</fix>
</trkpt>
<trkpt lat="-27.2733586" lon="151.2900108">
  <ele>384.51</ele>
  <time>2026-09-01T19:53:50Z</time>
  <course>280.65</course>
  <speed>25.65</speed>
  <fix>3d</fix>
</trkpt>
<trkpt lat="-27.2733406" lon="151.2899077">
  <ele>384.09</ele>
  <time>2026-09-01T19:53:50Z</time>
  <course>281.11</course>
  <speed>25.59381956645002</speed>
  <fix>3d</fix>
</trkpt>
<trkpt lat="-27.2733499" lon="151.2899598">
  <ele>384.3</ele>
  <time>2026-09-01T19:53:50Z</time>
  <course>281.19</course>
  <speed>25.63</speed>
  <fix>3d</fix>
</trkpt>
<trkpt lat="-27.2733359" lon="151.2898825">
  <ele>383.98</ele>
  <time>2026-09-01T19:53:50Z</time>
  <course>281.39</course>
  <speed>25.577265295570598</speed>
  <fix>3d</fix>
</trkpt>
<trkpt lat="-27.2733499" lon="151.2899598">
  <ele>384.3</ele>
  <time>2026-09-01T19:53:50Z</time>
  <course>281.19</course>
  <speed>25.63</speed>
  <fix>3d</fix>
</trkpt>
<trkpt lat="-27.273331" lon="151.2898573">
  <ele>383.87</ele>
  <time>2026-09-01T19:53:50Z</time>
  <course>281.67</course>
  <speed>25.571008975009182</speed>
  <fix>3d</fix>
</trkpt>
<trkpt lat="-27.2733407" lon="151.2899091">
  <ele>384.09</ele>
  <time>2026-09-01T19:53:50Z</time>
  <course>281.71</course>
  <speed>25.6</speed>
  <fix>3d</fix>
</trkpt>
<trkpt lat="-27.2733261" lon="151.289832">
  <ele>383.76</ele>
  <time>2026-09-01T19:53:50Z</time>
  <course>281.97</course>
  <speed>25.547900109402338</speed>
  <fix>3d</fix>
</trkpt>
<trkpt lat="-27.2733407" lon="151.2899091">
  <ele>384.09</ele>
  <time>2026-09-01T19:53:50Z</time>
  <course>281.71</course>
  <speed>25.6</speed>
  <fix>3d</fix>
</trkpt>
<trkpt lat="-27.2733211" lon="151.2898069">
  <ele>383.65</ele>
  <time>2026-09-01T19:53:50Z</time>
  <course>282.22</course>
  <speed>25.542721076659</speed>
  <fix>3d</fix>
</trkpt>
<trkpt lat="-27.2733312" lon="151.2898585">
  <ele>383.87</ele>
  <time>2026-09-01T19:53:50Z</time>
  <course>282.24</course>
  <speed>25.57</speed>
  <fix>3d</fix>
</trkpt>
<trkpt lat="-27.273316" lon="151.2897817">
  <ele>383.54</ele>
  <time>2026-09-01T19:53:50Z</time>
  <course>282.36</course>
  <speed>25.526053357305354</speed>
  <fix>3d</fix>
</trkpt>
<trkpt lat="-27.2733312" lon="151.2898585">
  <ele>383.87</ele>
  <time>2026-09-01T19:53:50Z</time>
  <course>282.24</course>
  <speed>25.57</speed>
  <fix>3d</fix>
</trkpt>
<trkpt lat="-27.2733108" lon="151.2897566">
  <ele>383.42</ele>
  <time>2026-09-01T19:53:50Z</time>
  <course>282.55</course>
  <speed>25.5098294780659</speed>
  <fix>3d</fix>
</trkpt>
<trkpt lat="-27.2733213" lon="151.2898081">
  <ele>383.65</ele>
  <time>2026-09-01T19:53:50Z</time>
  <course>282.76</course>
  <speed>25.54</speed>
  <fix>3d</fix>
</trkpt>
<trkpt lat="-27.2733055" lon="151.2897314">
  <ele>383.3</ele>
  <time>2026-09-01T19:53:50Z</time>
  <course>282.82</course>
  <speed>25.501443096421035</speed>
  <fix>3d</fix>
</trkpt>
<trkpt lat="-27.2733213" lon="151.2898081">
  <ele>383.65</ele>
  <time>2026-09-01T19:53:50Z</time>
  <course>282.76</course>
  <speed>25.54</speed>
  <fix>3d</fix>
</trkpt>
<trkpt lat="-27.2733001" lon="151.2897065">
  <ele>383.18</ele>
  <time>2026-09-01T19:53:50Z</time>
  <course>283.12</course>
  <speed>25.49340699082804</speed>
  <fix>3d</fix>
</trkpt>
<trkpt lat="-27.2733109" lon="151.2897578">
  <ele>383.42</ele>
  <time>2026-09-01T19:53:50Z</time>
  <course>283.24</course>
  <speed>25.52</speed>
  <fix>3d</fix>
</trkpt>
<trkpt lat="-27.2732946" lon="151.2896815">
  <ele>383.06</ele>
  <time>2026-09-01T19:53:50Z</time>
  <course>283.37</course>
  <speed>25.47841831825516</speed>
  <fix>3d</fix>
</trkpt>
<trkpt lat="-27.2733109" lon="151.2897578">
  <ele>383.42</ele>
  <time>2026-09-01T19:53:50Z</time>
  <course>283.24</course>
  <speed>25.52</speed>
  <fix>3d</fix>
</trkpt>
<trkpt lat="-27.2732891" lon="151.2896565">
  <ele>382.94</ele>
  <time>2026-09-01T19:53:50Z</time>
  <course>283.54</course>
  <speed>25.47112875394414</speed>
  <fix>3d</fix>
</trkpt>
<trkpt lat="-27.2733003" lon="151.2897077">
  <ele>383.19</ele>
  <time>2026-09-01T19:53:50Z</time>
  <course>283.69</course>
  <speed>25.49</speed>
  <fix>3d</fix>
</trkpt>
<trkpt lat="-27.2732834" lon="151.2896316">
  <ele>382.82</ele>
  <time>2026-09-01T19:53:50Z</time>
  <course>283.79</course>
  <speed>25.46171439632453</speed>
  <fix>3d</fix>
</trkpt>
<trkpt lat="-27.2733003" lon="151.2897077">
  <ele>383.19</ele>
  <time>2026-09-01T19:53:50Z</time>
  <course>283.69</course>
  <speed>25.49</speed>
  <fix>3d</fix>
</trkpt>
<trkpt lat="-27.2732777" lon="151.2896067">
  <ele>382.69</ele>
  <time>2026-09-01T19:53:50Z</time>
  <course>284.03</course>
  <speed>25.442902743201294</speed>
  <fix>3d</fix>
</trkpt>
<trkpt lat="-27.2732893" lon="151.2896577">
  <ele>382.94</ele>
  <time>2026-09-01T19:53:50Z</time>
  <course>284.12</course>
  <speed>25.47</speed>
  <fix>3d</fix>
</trkpt>
<trkpt lat="-27.273272" lon="151.2895817">
  <ele>382.56</ele>
  <time>2026-09-01T19:53:50Z</time>
  <course>284.2</course>
  <speed>25.436605512528594</speed>
  <fix>3d</fix>
</trkpt>
<trkpt lat="-27.2732893" lon="151.2896577">
  <ele>382.94</ele>
  <time>2026-09-01T19:53:50Z</time>
  <course>284.12</course>
  <speed>25.47</speed>
  <fix>3d</fix>
</trkpt>
<trkpt lat="-27.2732661" lon="151.2895568">
  <ele>382.44</ele>
  <time>2026-09-01T19:53:50Z</time>
  <course>284.18</course>
  <speed>25.42550884446563</speed>
  <fix>3d</fix>
</trkpt>
<trkpt lat="-27.273278" lon="151.2896079">
  <ele>382.69</ele>
  <time>2026-09-01T19:53:50Z</time>
  <course>284.52</course>
  <speed>25.45</speed>
  <fix>3d</fix>
</trkpt>
<trkpt lat="-27.2732602" lon="151.2895321">
  <ele>382.31</ele>
  <time>2026-09-01T19:53:50Z</time>
  <course>283.87</course>
  <speed>25.409441158750425</speed>
  <fix>3d</fix>
</trkpt>
<trkpt lat="-27.273278" lon="151.2896079">
  <ele>382.69</ele>
  <time>2026-09-01T19:53:50Z</time>
  <course>284.52</course>
  <speed>25.45</speed>
  <fix>3d</fix>
</trkpt>
<trkpt lat="-27.2732543" lon="151.2895073">
  <ele>382.17</ele>
  <time>2026-09-01T19:53:50Z</time>
  <course>283.4</course>
  <speed>25.38943481056638</speed>
  <fix>3d</fix>
</trkpt>
<trkpt lat="-27.2732664" lon="151.2895581">
  <ele>382.44</ele>
  <time>2026-09-01T19:53:50Z</time>
  <course>284.87</course>
  <speed>25.42</speed>
  <fix>3d</fix>
</trkpt>
<trkpt lat="-27.2732485" lon="151.2894825">
  <ele>382.03</ele>
  <time>2026-09-01T19:53:50Z</time>
  <course>282.98</course>
  <speed>25.380181244427707</speed>
  <fix>3d</fix>
</trkpt>
<trkpt lat="-27.2732664" lon="151.2895581">
  <ele>382.44</ele>
  <time>2026-09-01T19:53:50Z</time>
  <course>284.87</course>
  <speed>25.42</speed>
  <fix>3d</fix>
</trkpt>
<trkpt lat="-27.2732428" lon="151.2894576">
  <ele>381.88</ele>
  <time>2026-09-01T19:53:50Z</time>
  <course>282.76</course>
  <speed>25.357133118710404</speed>
  <fix>3d</fix>
</trkpt>
<trkpt lat="-27.2732546" lon="151.2895084">
  <ele>382.17</ele>
  <time>2026-09-01T19:53:50Z</time>
  <course>284.83</course>
  <speed>25.4</speed>
  <fix>3d</fix>
</trkpt>
<trkpt lat="-27.2732375" lon="151.2894327">
  <ele>381.72</ele>
  <time>2026-09-01T19:53:50Z</time>
  <course>282.64</course>
  <speed>25.341669242573584</speed>
  <fix>3d</fix>
</trkpt>
<trkpt lat="-27.2732546" lon="151.2895084">
  <ele>382.17</ele>
  <time>2026-09-01T19:53:50Z</time>
  <course>284.83</course>
  <speed>25.4</speed>
  <fix>3d</fix>
</trkpt>
<trkpt lat="-27.2732326" lon="151.2894076">
  <ele>381.54</ele>
  <time>2026-09-01T19:53:50Z</time>
  <course>282.36</course>
  <speed>25.331565289180215</speed>
  <fix>3d</fix>
</trkpt>
<trkpt lat="-27.2732432" lon="151.2894586">
  <ele>381.88</ele>
  <time>2026-09-01T19:53:50Z</time>
  <course>283.85</course>
  <speed>25.36</speed>
  <fix>3d</fix>
</trkpt>
<trkpt lat="-27.2732282" lon="151.2893824">
  <ele>381.35</ele>
  <time>2026-09-01T19:53:50Z</time>
  <course>281.64</course>
  <speed>25.341002347973532</speed>
  <fix>3d</fix>
</trkpt>
<trkpt lat="-27.2732432" lon="151.2894586">
  <ele>381.88</ele>
  <time>2026-09-01T19:53:50Z</time>
  <course>283.85</course>
  <speed>25.36</speed>
  <fix>3d</fix>
</trkpt>
<trkpt lat="-27.2732243" lon="151.2893571">
  <ele>381.14</ele>
  <time>2026-09-01T19:53:50Z</time>
  <course>280.45</course>
  <speed>25.366943055874902</speed>
  <fix>3d</fix>
</trkpt>
<trkpt lat="-27.273233" lon="151.2894087">
  <ele>381.54</ele>
  <time>2026-09-01T19:53:50Z</time>
  <course>281.8</course>
  <speed>25.34</speed>
  <fix>3d</fix>
</trkpt>
<trkpt lat="-27.2732212" lon="151.2893317">
  <ele>380.94</ele>
  <time>2026-09-01T19:53:50Z</time>
  <course>278.85</course>
  <speed>25.414887369414014</speed>
  <fix>3d</fix>
</trkpt>
<trkpt lat="-27.273233" lon="151.2894087">
  <ele>381.54</ele>
  <time>2026-09-01T19:53:50Z</time>
  <course>281.8</course>
  <speed>25.34</speed>
  <fix>3d</fix>
</trkpt>
<trkpt lat="-27.2732189" lon="151.2893062">
  <ele>380.73</ele>
  <time>2026-09-01T19:53:50Z</time>
  <course>276.97</course>
  <speed>25.47259900363526</speed>
  <fix>3d</fix>
</trkpt>
<trkpt lat="-27.2732248" lon="151.2893584">
  <ele>381.15</ele>
  <time>2026-09-01T19:53:50Z</time>
  <course>278.77</course>
  <speed>25.37</speed>
  <fix>3d</fix>
</trkpt>
<trkpt lat="-27.2732173" lon="151.2892805">
  <ele>380.53</ele>
  <time>2026-09-01T19:53:50Z</time>
  <course>275.02</course>
  <speed>25.53111043413506</speed>
  <fix>3d</fix>
</trkpt>
<trkpt lat="-27.2732248" lon="151.2893584">
  <ele>381.15</ele>
  <time>2026-09-01T19:53:50Z</time>
  <course>278.77</course>
  <speed>25.37</speed>
  <fix>3d</fix>
</trkpt>
<trkpt lat="-27.2732166" lon="151.2892546">
  <ele>380.33</ele>
  <time>2026-09-01T19:53:50Z</time>
  <course>273.05</course>
  <speed>25.58253310366274</speed>
  <fix>3d</fix>
</trkpt>
<trkpt lat="-27.2732194" lon="151.2893074">
  <ele>380.74</ele>
  <time>2026-09-01T19:53:50Z</time>
  <course>274.97</course>
  <speed>25.45</speed>
  <fix>3d</fix>
</trkpt>
<trkpt lat="-27.2732167" lon="151.2892288">
  <ele>380.14</ele>
  <time>2026-09-01T19:53:50Z</time>
  <course>271.1</course>
  <speed>25.62487853629749</speed>
  <fix>3d</fix>
</trkpt>
<trkpt lat="-27.2732194" lon="151.2893074">
  <ele>380.74</ele>
  <time>2026-09-01T19:53:50Z</time>
  <course>274.97</course>
  <speed>25.45</speed>
  <fix>3d</fix>
</trkpt>
<trkpt lat="-27.2732175" lon="151.2892029">
  <ele>379.96</ele>
  <time>2026-09-01T19:53:50Z</time>
  <course>269.13</course>
  <speed>25.656071406199352</speed>
  <fix>3d</fix>
</trkpt>
<trkpt lat="-27.273217" lon="151.2892559">
  <ele>380.34</ele>
  <time>2026-09-01T19:53:50Z</time>
  <course>270.95</course>
  <speed>25.56</speed>
  <fix>3d</fix>
</trkpt>
<trkpt lat="-27.273219" lon="151.2891771">
  <ele>379.77</ele>
  <time>2026-09-01T19:53:51Z</time>
  <course>267.25</course>
  <speed>25.68525257808457</speed>
  <fix>3d</fix>
</trkpt>
<trkpt lat="-27.273217" lon="151.2892559">
  <ele>380.34</ele>
  <time>2026-09-01T19:53:51Z</time>
  <course>270.95</course>
  <speed>25.56</speed>
  <fix>3d</fix>
</trkpt>
<trkpt lat="-27.2732214" lon="151.2891512">
  <ele>379.57</ele>
  <time>2026-09-01T19:53:51Z</time>
  <course>265.37</course>
  <speed>25.711542155226706</speed>
  <fix>3d</fix>
</trkpt>
<trkpt lat="-27.2732178" lon="151.2892042">
  <ele>379.96</ele>
  <time>2026-09-01T19:53:51Z</time>
  <course>267.05</course>
  <speed>25.64</speed>
  <fix>3d</fix>
</trkpt>
<trkpt lat="-27.2732245" lon="151.2891254">
  <ele>379.37</ele>
  <time>2026-09-01T19:53:51Z</time>
  <course>263.47</course>
  <speed>25.738719859386947</speed>
  <fix>3d</fix>
</trkpt>
<trkpt lat="-27.2732178" lon="151.2892042">
  <ele>379.96</ele>
  <time>2026-09-01T19:53:51Z</time>
  <course>267.05</course>
  <speed>25.64</speed>
  <fix>3d</fix>
</trkpt>
<trkpt lat="-27.2732284" lon="151.2890998">
  <ele>379.16</ele>
  <time>2026-09-01T19:53:51Z</time>
  <course>261.58</course>
  <speed>25.76724277061867</speed>
  <fix>3d</fix>
</trkpt>
<trkpt lat="-27.2732216" lon="151.2891526">
  <ele>379.58</ele>
  <time>2026-09-01T19:53:51Z</time>
  <course>263.24</course>
  <speed>25.7</speed>
  <fix>3d</fix>
</trkpt>
<trkpt lat="-27.2732331" lon="151.2890742">
  <ele>378.95</ele>
  <time>2026-09-01T19:53:51Z</time>
  <course>259.54</course>
  <speed>25.800732547739802</speed>
  <fix>3d</fix>
</trkpt>
<trkpt lat="-27.2732216" lon="151.2891526">
  <ele>379.58</ele>
  <time>2026-09-01T19:53:51Z</time>
  <course>263.24</course>
  <speed>25.7</speed>
  <fix>3d</fix>
</trkpt>
<trkpt lat="-27.2732386" lon="151.289049">
  <ele>378.72</ele>
  <time>2026-09-01T19:53:51Z</time>
  <course>257.54</course>
  <speed>25.822418554426694</speed>
  <fix>3d</fix>
</trkpt>
<trkpt lat="-27.2732286" lon="151.2891012">
  <ele>379.16</ele>
  <time>2026-09-01T19:53:51Z</time>
  <course>259.37</course>
  <speed>25.75</speed>
  <fix>3d</fix>
</trkpt>
<trkpt lat="-27.2732449" lon="151.2890239">
  <ele>378.49</ele>
  <time>2026-09-01T19:53:51Z</time>
  <course>255.53</course>
  <speed>25.855616411139767</speed>
  <fix>3d</fix>
</trkpt>
<trkpt lat="-27.2732286" lon="151.2891012">
  <ele>379.16</ele>
  <time>2026-09-01T19:53:51Z</time>
  <course>259.37</course>
  <speed>25.75</speed>
  <fix>3d</fix>
</trkpt>
<trkpt lat="-27.273252" lon="151.288999">
  <ele>378.25</ele>
  <time>2026-09-01T19:53:51Z</time>
  <course>253.5</course>
  <speed>25.871360613620613</speed>
  <fix>3d</fix>
</trkpt>
<trkpt lat="-27.2732387" lon="151.2890503">
  <ele>378.72</ele>
  <time>2026-09-01T19:53:51Z</time>
  <course>255.33</course>
  <speed>25.81</speed>
  <fix>3d</fix>
</trkpt>
<trkpt lat="-27.27326" lon="151.2889744">
  <ele>378.01</ele>
  <time>2026-09-01T19:53:51Z</time>
  <course>251.41</course>
  <speed>25.896047961030654</speed>
  <fix>3d</fix>
</trkpt>
<trkpt lat="-27.2732387" lon="151.2890503">
  <ele>378.72</ele>
  <time>2026-09-01T19:53:51Z</time>
  <course>255.33</course>
  <speed>25.81</speed>
  <fix>3d</fix>
</trkpt>
<trkpt lat="-27.2732687" lon="151.2889501">
  <ele>377.75</ele>
  <time>2026-09-01T19:53:51Z</time>
  <course>249.34</course>
  <speed>25.91997299381309</speed>
  <fix>3d</fix>
</trkpt>
<trkpt lat="-27.2732521" lon="151.2890003">
  <ele>378.26</ele>
  <time>2026-09-01T19:53:51Z</time>
  <course>251.19</course>
  <speed>25.86</speed>
  <fix>3d</fix>
</trkpt>
<trkpt lat="-27.2732782" lon="151.2889262">
  <ele>377.5</ele>
  <time>2026-09-01T19:53:51Z</time>
  <course>247.38</course>
  <speed>25.92047067473891</speed>
  <fix>3d</fix>
</trkpt>
<trkpt lat="-27.2732521" lon="151.2890003">
  <ele>378.26</ele>
  <time>2026-09-01T19:53:51Z</time>
  <course>251.19</course>
  <speed>25.86</speed>
  <fix>3d</fix>
</trkpt>
<trkpt lat="-27.2732885" lon="151.2889027">
  <ele>377.23</ele>
  <time>2026-09-01T19:53:51Z</time>
  <course>245.43</course>
  <speed>25.921352202383268</speed>
  <fix>3d</fix>
</trkpt>
<trkpt lat="-27.2732687" lon="151.2889513">
  <ele>377.76</ele>
  <time>2026-09-01T19:53:51Z</time>
  <course>247.06</course>
  <speed>25.89</speed>
  <fix>3d</fix>
</trkpt>
<trkpt lat="-27.2732994" lon="151.2888796">
  <ele>376.96</ele>
  <time>2026-09-01T19:53:51Z</time>
  <course>243.48</course>
  <speed>25.921685901962473</speed>
  <fix>3d</fix>
</trkpt>
<trkpt lat="-27.2732687" lon="151.2889513">
  <ele>377.76</ele>
  <time>2026-09-01T19:53:51Z</time>
  <course>247.06</course>
  <speed>25.89</speed>
  <fix>3d</fix>
</trkpt>
<trkpt lat="-27.273311" lon="151.2888568">
  <ele>376.67</ele>
  <time>2026-09-01T19:53:51Z</time>
  <course>241.58</course>
  <speed>25.906578315169295</speed>
  <fix>3d</fix>
</trkpt>
<trkpt lat="-27.2732883" lon="151.2889038">
  <ele>377.24</ele>
  <time>2026-09-01T19:53:51Z</time>
  <course>243.04</course>
  <speed>25.91</speed>
  <fix>3d</fix>
</trkpt>
<trkpt lat="-27.2733233" lon="151.2888347">
  <ele>376.38</ele>
  <time>2026-09-01T19:53:51Z</time>
  <course>239.73</course>
  <speed>25.901739323836924</speed>
  <fix>3d</fix>
</trkpt>
<trkpt lat="-27.2732883" lon="151.2889038">
  <ele>377.24</ele>
  <time>2026-09-01T19:53:51Z</time>
  <course>243.04</course>
  <speed>25.91</speed>
  <fix>3d</fix>
</trkpt>
<trkpt lat="-27.2733363" lon="151.2888128">
  <ele>376.08</ele>
  <time>2026-09-01T19:53:51Z</time>
  <course>237.81</course>
  <speed>25.892101112115256</speed>
  <fix>3d</fix>
</trkpt>
<trkpt lat="-27.2733108" lon="151.288858">
  <ele>376.68</ele>
  <time>2026-09-01T19:53:51Z</time>
  <course>239.15</course>
  <speed>25.9</speed>
  <fix>3d</fix>
</trkpt>
<trkpt lat="-27.2733498" lon="151.2887917">
  <ele>375.77</ele>
  <time>2026-09-01T19:53:51Z</time>
  <course>235.86</course>
  <speed>25.880233770196128</speed>
  <fix>3d</fix>
</trkpt>
<trkpt lat="-27.2733108" lon="151.288858">
  <ele>376.68</ele>
  <time>2026-09-01T19:53:51Z</time>
  <course>239.15</course>
  <speed>25.9</speed>
  <fix>3d</fix>
</trkpt>
<trkpt lat="-27.273364" lon="151.288771">
  <ele>375.45</ele>
  <time>2026-09-01T19:53:51Z</time>
  <course>233.99</course>
  <speed>25.867108458426504</speed>
  <fix>3d</fix>
</trkpt>
<trkpt lat="-27.273336" lon="151.2888141">
  <ele>376.08</ele>
  <time>2026-09-01T19:53:51Z</time>
  <course>235.33</course>
  <speed>25.88</speed>
  <fix>3d</fix>
</trkpt>
<trkpt lat="-27.2733788" lon="151.2887508">
  <ele>375.12</ele>
  <time>2026-09-01T19:53:51Z</time>
  <course>232.07</course>
  <speed>25.84843902443627</speed>
  <fix>3d</fix>
</trkpt>
<trkpt lat="-27.273336" lon="151.2888141">
  <ele>376.08</ele>
  <time>2026-09-01T19:53:51Z</time>
  <course>235.33</course>
  <speed>25.88</speed>
  <fix>3d</fix>
</trkpt>
<trkpt lat="-27.2733943" lon="151.2887311">
  <ele>374.78</ele>
  <time>2026-09-01T19:53:51Z</time>
  <course>230.06</course>
  <speed>25.843461455462965</speed>
  <fix>3d</fix>
</trkpt>
<trkpt lat="-27.2733637" lon="151.2887721">
  <ele>375.45</ele>
  <time>2026-09-01T19:53:51Z</time>
  <course>231.53</course>
  <speed>25.86</speed>
  <fix>3d</fix>
</trkpt>
<trkpt lat="-27.2734102" lon="151.2887121">
  <ele>374.44</ele>
  <time>2026-09-01T19:53:51Z</time>
  <course>228.03</course>
  <speed>25.82541383985937</speed>
  <fix>3d</fix>
</trkpt>
<trkpt lat="-27.2733637" lon="151.2887721">
  <ele>375.45</ele>
  <time>2026-09-01T19:53:51Z</time>
  <course>231.53</course>
  <speed>25.86</speed>
  <fix>3d</fix>
</trkpt>
<trkpt lat="-27.2734267" lon="151.2886936">
  <ele>374.1</ele>
  <time>2026-09-01T19:53:51Z</time>
  <course>226.02</course>
  <speed>25.801457323182348</speed>
  <fix>3d</fix>
</trkpt>
<trkpt lat="-27.2733938" lon="151.2887323">
  <ele>374.79</ele>
  <time>2026-09-01T19:53:51Z</time>
  <course>227.7</course>
  <speed>25.83</speed>
  <fix>3d</fix>
</trkpt>
<trkpt lat="-27.2734437" lon="151.2886759">
  <ele>373.75</ele>
  <time>2026-09-01T19:53:51Z</time>
  <course>223.92</course>
  <speed>25.79399154842073</speed>
  <fix>3d</fix>
</trkpt>
<trkpt lat="-27.2733938" lon="151.2887323">
  <ele>374.79</ele>
  <time>2026-09-01T19:53:51Z</time>
  <course>227.7</course>
  <speed>25.83</speed>
  <fix>3d</fix>
</trkpt>
<trkpt lat="-27.2734612" lon="151.288659">
  <ele>373.4</ele>
  <time>2026-09-01T19:53:51Z</time>
  <course>221.77</course>
  <speed>25.777699664632607</speed>
  <fix>3d</fix>
</trkpt>
<trkpt lat="-27.2734261" lon="151.2886949">
  <ele>374.11</ele>
  <time>2026-09-01T19:53:51Z</time>
  <course>223.82</course>
  <speed>25.79</speed>
  <fix>3d</fix>
</trkpt>
<trkpt lat="-27.2734793" lon="151.2886428">
  <ele>373.03</ele>
  <time>2026-09-01T19:53:51Z</time>
  <course>219.46</course>
  <speed>25.76945672690831</speed>
  <fix>3d</fix>
</trkpt>
<trkpt lat="-27.2734261" lon="151.2886949">
  <ele>374.11</ele>
  <time>2026-09-01T19:53:51Z</time>
  <course>223.82</course>
  <speed>25.79</speed>
  <fix>3d</fix>
</trkpt>
<trkpt lat="-27.273498" lon="151.2886274">
  <ele>372.66</ele>
  <time>2026-09-01T19:53:51Z</time>
  <course>217.02</course>
  <speed>25.776355444476632</speed>
  <fix>3d</fix>
</trkpt>
<trkpt lat="-27.2734606" lon="151.2886602">
  <ele>373.4</ele>
  <time>2026-09-01T19:53:51Z</time>
  <course>219.73</course>
  <speed>25.76</speed>
  <fix>3d</fix>
</trkpt>
<trkpt lat="-27.2735171" lon="151.2886129">
  <ele>372.28</ele>
  <time>2026-09-01T19:53:51Z</time>
  <course>214.4</course>
  <speed>25.8014902670369</speed>
  <fix>3d</fix>
</trkpt>
<trkpt lat="-27.2734606" lon="151.2886602">
  <ele>373.4</ele>
  <time>2026-09-01T19:53:51Z</time>
  <course>219.73</course>
  <speed>25.76</speed>
  <fix>3d</fix>
</trkpt>
<trkpt lat="-27.2735371" lon="151.2885993">
  <ele>371.9</ele>
  <time>2026-09-01T19:53:51Z</time>
  <course>211.65</course>
  <speed>25.832742788949066</speed>
  <fix>3d</fix>
</trkpt>
<trkpt lat="-27.2734973" lon="151.2886285">
  <ele>372.67</ele>
  <time>2026-09-01T19:53:51Z</time>
  <course>215.13</course>
  <speed>25.76</speed>
  <fix>3d</fix>
</trkpt>
<trkpt lat="-27.2735575" lon="151.2885868">
  <ele>371.52</ele>
  <time>2026-09-01T19:53:51Z</time>
  <course>208.76</course>
  <speed>25.87646034526361</speed>
  <fix>3d</fix>
</trkpt>
<trkpt lat="-27.2734973" lon="151.2886285">
  <ele>372.67</ele>
  <time>2026-09-01T19:53:51Z</time>
  <course>215.13</course>
  <speed>25.76</speed>
  <fix>3d</fix>
</trkpt>
<trkpt lat="-27.2735785" lon="151.2885757">
  <ele>371.14</ele>
  <time>2026-09-01T19:53:51Z</time>
  <course>205.8</course>
  <speed>25.918767331800332</speed>
  <fix>3d</fix>
</trkpt>
<trkpt lat="-27.2735364" lon="151.2886005">
  <ele>371.91</ele>
  <time>2026-09-01T19:53:51Z</time>
  <course>209.89</course>
  <speed>25.81</speed>
  <fix>3d</fix>
</trkpt>
<trkpt lat="-27.2736" lon="151.2885656">
  <ele>370.77</ele>
  <time>2026-09-01T19:53:51Z</time>
  <course>202.88</course>
  <speed>25.967835874404322</speed>
  <fix>3d</fix>
</trkpt>
<trkpt lat="-27.2735364" lon="151.2886005">
  <ele>371.91</ele>
  <time>2026-09-01T19:53:51Z</time>
  <course>209.89</course>
  <speed>25.81</speed>
  <fix>3d</fix>
</trkpt>
<trkpt lat="-27.273622" lon="151.2885567">
  <ele>370.41</ele>
  <time>2026-09-01T19:53:51Z</time>
  <course>199.96</course>
  <speed>26.003732424404003</speed>
  <fix>3d</fix>
</trkpt>
<trkpt lat="-27.2735778" lon="151.2885767">
  <ele>371.16</ele>
  <time>2026-09-01T19:53:51Z</time>
  <course>204.16</course>
  <speed>25.89</speed>
  <fix>3d</fix>
</trkpt>
<trkpt lat="-27.2736444" lon="151.2885493">
  <ele>370.04</ele>
  <time>2026-09-01T19:53:51Z</time>
  <course>197.09</course>
  <speed>26.034592372457073</speed>
  <fix>3d</fix>
</trkpt>
<trkpt lat="-27.2735778" lon="151.2885767">
  <ele>371.16</ele>
  <time>2026-09-01T19:53:51Z</time>
  <course>204.16</course>
  <speed>25.89</speed>
  <fix>3d</fix>
</trkpt>
<trkpt lat="-27.2736671" lon="151.288543">
  <ele>369.69</ele>
  <time>2026-09-01T19:53:51Z</time>
  <course>194.26</course>
  <speed>26.054537032923847</speed>
  <fix>3d</fix>
</trkpt>
<trkpt lat="-27.2736212" lon="151.2885577">
  <ele>370.42</ele>
  <time>2026-09-01T19:53:51Z</time>
  <course>198.28</course>
  <speed>25.96</speed>
  <fix>3d</fix>
</trkpt>
<trkpt lat="-27.2736901" lon="151.288538">
  <ele>369.34</ele>
  <time>2026-09-01T19:53:51Z</time>
  <course>191.58</course>
  <speed>26.063875383373055</speed>
  <fix>3d</fix>
</trkpt>
<trkpt lat="-27.2736212" lon="151.2885577">
  <ele>370.42</ele>
  <time>2026-09-01T19:53:51Z</time>
  <course>198.28</course>
  <speed>25.96</speed>
  <fix>3d</fix>
</trkpt>
<trkpt lat="-27.2737132" lon="151.2885341">
  <ele>368.98</ele>
  <time>2026-09-01T19:53:51Z</time>
  <course>188.95</course>
  <speed>26.05866074839611</speed>
  <fix>3d</fix>
</trkpt>
<trkpt lat="-27.2736662" lon="151.2885438">
  <ele>369.7</ele>
  <time>2026-09-01T19:53:51Z</time>
  <course>192.53</course>
  <speed>26.01</speed>
  <fix>3d</fix>
</trkpt>
<trkpt lat="-27.2737365" lon="151.2885317">
  <ele>368.63</ele>
  <time>2026-09-01T19:53:51Z</time>
  <course>186.36</course>
  <speed>26.061561733710434</speed>
  <fix>3d</fix>
</trkpt>
<trkpt lat="-27.2736662" lon="151.2885438">
  <ele>369.7</ele>
  <time>2026-09-01T19:53:51Z</time>
  <course>192.53</course>
  <speed>26.01</speed>
  <fix>3d</fix>
</trkpt>
<trkpt lat="-27.2737599" lon="151.2885303">
  <ele>368.27</ele>
  <time>2026-09-01T19:53:51Z</time>
  <course>183.81</course>
  <speed>26.05108826901479</speed>
  <fix>3d</fix>
</trkpt>
<trkpt lat="-27.2737123" lon="151.2885349">
  <ele>368.99</ele>
  <time>2026-09-01T19:53:51Z</time>
  <course>187.04</course>
  <speed>26.03</speed>
  <fix>3d</fix>
</trkpt>
<trkpt lat="-27.2737833" lon="151.2885301">
  <ele>367.91</ele>
  <time>2026-09-01T19:53:51Z</time>
  <course>181.26</course>
  <speed>26.043072015413237</speed>
  <fix>3d</fix>
</trkpt>
<trkpt lat="-27.2737123" lon="151.2885349">
  <ele>368.99</ele>
  <time>2026-09-01T19:53:51Z</time>
  <course>187.04</course>
  <speed>26.03</speed>
  <fix>3d</fix>
</trkpt>
<trkpt lat="-27.2738066" lon="151.2885311">
  <ele>367.55</ele>
  <time>2026-09-01T19:53:51Z</time>
  <course>178.75</course>
  <speed>26.02619641822447</speed>
  <fix>3d</fix>
</trkpt>
<trkpt lat="-27.2737589" lon="151.2885309">
  <ele>368.28</ele>
  <time>2026-09-01T19:53:51Z</time>
  <course>181.79</course>
  <speed>26.02</speed>
  <fix>3d</fix>
</trkpt>
<trkpt lat="-27.2738299" lon="151.2885332">
  <ele>367.18</ele>
  <time>2026-09-01T19:53:51Z</time>
  <course>176.27</course>
  <speed>26.008446704868785</speed>
  <fix>3d</fix>
</trkpt>
<trkpt lat="-27.2737589" lon="151.2885309">
  <ele>368.28</ele>
  <time>2026-09-01T19:53:51Z</time>
  <course>181.79</course>
  <speed>26.02</speed>
  <fix>3d</fix>
</trkpt>
<trkpt lat="-27.2738531" lon="151.2885364">
  <ele>366.81</ele>
  <time>2026-09-01T19:53:51Z</time>
  <course>173.84</course>
  <speed>25.987847159778358</speed>
  <fix>3d</fix>
</trkpt>
<trkpt lat="-27.2738056" lon="151.2885315">
  <ele>367.56</ele>
  <time>2026-09-01T19:53:51Z</time>
  <course>176.69</course>
  <speed>26.0</speed>
  <fix>3d</fix>
</trkpt>
<trkpt lat="-27.2738761" lon="151.2885408">
  <ele>366.43</ele>
  <time>2026-09-01T19:53:51Z</time>
  <course>171.37</course>
  <speed>25.964631713159346</speed>
  <fix>3d</fix>
</trkpt>
<trkpt lat="-27.2738056" lon="151.2885315">
  <ele>367.56</ele>
  <time>2026-09-01T19:53:51Z</time>
  <course>176.69</course>
  <speed>26.0</speed>
  <fix>3d</fix>
</trkpt>
<trkpt lat="-27.2738989" lon="151.2885463">
  <ele>366.05</ele>
  <time>2026-09-01T19:53:51Z</time>
  <course>168.9</course>
  <speed>25.946163492894286</speed>
  <fix>3d</fix>
</trkpt>
<trkpt lat="-27.273852" lon="151.2885368">
  <ele>366.82</ele>
  <time>2026-09-01T19:53:51Z</time>
  <course>171.71</course>
  <speed>25.97</speed>
  <fix>3d</fix>
</trkpt>
<trkpt lat="-27.2739214" lon="151.2885528">
  <ele>365.66</ele>
  <time>2026-09-01T19:53:51Z</time>
  <course>166.5</course>
  <speed>25.921485296950095</speed>
  <fix>3d</fix>
</trkpt>
<trkpt lat="-27.273852" lon="151.2885368">
  <ele>366.82</ele>
  <time>2026-09-01T19:53:51Z</time>
  <course>171.71</course>
  <speed>25.97</speed>
  <fix>3d</fix>
</trkpt>
<trkpt lat="-27.2739437" lon="151.2885605">
  <ele>365.27</ele>
  <time>2026-09-01T19:53:51Z</time>
  <course>164.12</course>
  <speed>25.89313808714579</speed>
  <fix>3d</fix>
</trkpt>
<trkpt lat="-27.2738978" lon="151.2885466">
  <ele>366.06</ele>
  <time>2026-09-01T19:53:51Z</time>
  <course>166.8</course>
  <speed>25.92</speed>
  <fix>3d</fix>
</trkpt>
<trkpt lat="-27.2739656" lon="151.2885691">
  <ele>364.88</ele>
  <time>2026-09-01T19:53:51Z</time>
  <course>161.72</course>
  <speed>25.86844602986426</speed>
  <fix>3d</fix>
</trkpt>
<trkpt lat="-27.2738978" lon="151.2885466">
  <ele>366.06</ele>
  <time>2026-09-01T19:53:51Z</time>
  <course>166.8</course>
  <speed>25.92</speed>
  <fix>3d</fix>
</trkpt>
<trkpt lat="-27.2739874" lon="151.288579">
  <ele>364.49</ele>
  <time>2026-09-01T19:53:51Z</time>
  <course>159.28</course>
  <speed>25.842695292867575</speed>
  <fix>3d</fix>
</trkpt>
<trkpt lat="-27.2739426" lon="151.2885607">
  <ele>365.28</ele>
  <time>2026-09-01T19:53:51Z</time>
  <course>161.97</course>
  <speed>25.87</speed>
  <fix>3d</fix>
</trkpt>
<trkpt lat="-27.2740085" lon="151.2885896">
  <ele>364.1</ele>
  <time>2026-09-01T19:53:51Z</time>
  <course>156.89</course>
  <speed>25.810278960135243</speed>
  <fix>3d</fix>
</trkpt>
<trkpt lat="-27.2739426" lon="151.2885607">
  <ele>365.28</ele>
  <time>2026-09-01T19:53:51Z</time>
  <course>161.97</course>
  <speed>25.87</speed>
  <fix>3d</fix>
</trkpt>
<trkpt lat="-27.2740293" lon="151.2886012">
  <ele>363.71</ele>
  <time>2026-09-01T19:53:51Z</time>
  <course>154.52</course>
  <speed>25.782344734333222</speed>
  <fix>3d</fix>
</trkpt>
<trkpt lat="-27.2739861" lon="151.2885789">
  <ele>364.51</ele>
  <time>2026-09-01T19:53:51Z</time>
  <course>157.19</course>
  <speed>25.82</speed>
  <fix>3d</fix>
</trkpt>
<trkpt lat="-27.2740495" lon="151.2886138">
  <ele>363.32</ele>
  <time>2026-09-01T19:53:51Z</time>
  <course>152.2</course>
  <speed>25.74871258917618</speed>
  <fix>3d</fix>
</trkpt>
<trkpt lat="-27.2739861" lon="151.2885789">
  <ele>364.51</ele>
  <time>2026-09-01T19:53:51Z</time>
  <course>157.19</course>
  <speed>25.82</speed>
  <fix>3d</fix>
</trkpt>
<trkpt lat="-27.2740693" lon="151.2886273">
  <ele>362.93</ele>
  <time>2026-09-01T19:53:51Z</time>
  <course>149.91</course>
  <speed>25.72023522442981</speed>
  <fix>3d</fix>
</trkpt>
<trkpt lat="-27.274028" lon="151.2886011">
  <ele>363.72</ele>
  <time>2026-09-01T19:53:51Z</time>
  <course>152.42</course>
  <speed>25.76</speed>
  <fix>3d</fix>
</trkpt>
<trkpt lat="-27.2740885" lon="151.2886417">
  <ele>362.55</ele>
  <time>2026-09-01T19:53:51Z</time>
  <course>147.63</course>
  <speed>25.68594362681659</speed>
  <fix>3d</fix>
</trkpt>
<trkpt lat="-27.274028" lon="151.2886011">
  <ele>363.72</ele>
  <time>2026-09-01T19:53:51Z</time>
  <course>152.42</course>
  <speed>25.76</speed>
  <fix>3d</fix>
</trkpt>
<trkpt lat="-27.2741072" lon="151.2886567">
  <ele>362.17</ele>
  <time>2026-09-01T19:53:51Z</time>
  <course>145.44</course>
  <speed>25.658000701535574</speed>
  <fix>3d</fix>
</trkpt>
<trkpt lat="-27.2740681" lon="151.288627">
  <ele>362.95</ele>
  <time>2026-09-01T19:53:51Z</time>
  <course>147.77</course>
  <speed>25.7</speed>
  <fix>3d</fix>
</trkpt>
<trkpt lat="-27.2741254" lon="151.2886727">
  <ele>361.8</ele>
  <time>2026-09-01T19:53:51Z</time>
  <course>143.28</course>
  <speed>25.630210689730976</speed>
  <fix>3d</fix>
</trkpt>
<trkpt lat="-27.2740681" lon="151.288627">
  <ele>362.95</ele>
  <time>2026-09-01T19:53:51Z</time>
  <course>147.77</course>
  <speed>25.7</speed>
  <fix>3d</fix>
</trkpt>
<trkpt lat="-27.274143" lon="151.2886893">
  <ele>361.43</ele>
  <time>2026-09-01T19:53:51Z</time>
  <course>141.19</course>
  <speed>25.591375500351678</speed>
  <fix>3d</fix>
</trkpt>
<trkpt lat="-27.2741062" lon="151.2886565">
  <ele>362.19</ele>
  <time>2026-09-01T19:53:51Z</time>
  <course>143.26</course>
  <speed>25.64</speed>
  <fix>3d</fix>
</trkpt>
<trkpt lat="-27.27416" lon="151.2887068">
  <ele>361.07</ele>
  <time>2026-09-01T19:53:51Z</time>
  <course>139.1</course>
  <speed>25.55297242983681</speed>
  <fix>3d</fix>
</trkpt>
<trkpt lat="-27.2741062" lon="151.2886565">
  <ele>362.19</ele>
  <time>2026-09-01T19:53:51Z</time>
  <course>143.26</course>
  <speed>25.64</speed>
  <fix>3d</fix>
</trkpt>
<trkpt lat="-27.2741764" lon="151.2887247">
  <ele>360.71</ele>
  <time>2026-09-01T19:53:51Z</time>
  <course>137.13</course>
  <speed>25.519704151890164</speed>
  <fix>3d</fix>
</trkpt>
<trkpt lat="-27.274142" lon="151.288689">
  <ele>361.45</ele>
  <time>2026-09-01T19:53:51Z</time>
  <course>138.96</course>
  <speed>25.58</speed>
  <fix>3d</fix>
</trkpt>
<trkpt lat="-27.2741923" lon="151.2887433">
  <ele>360.36</ele>
  <time>2026-09-01T19:53:51Z</time>
  <course>135.23</course>
  <speed>25.481336307187657</speed>
  <fix>3d</fix>
</trkpt>
<trkpt lat="-27.274142" lon="151.288689">
  <ele>361.45</ele>
  <time>2026-09-01T19:53:51Z</time>
  <course>138.96</course>
  <speed>25.58</speed>
  <fix>3d</fix>
</trkpt>
<trkpt lat="-27.2742076" lon="151.2887625">
  <ele>360.01</ele>
  <time>2026-09-01T19:53:51Z</time>
  <course>133.42</course>
  <speed>25.441039680013077</speed>
  <fix>3d</fix>
</trkpt>
<trkpt lat="-27.2741754" lon="151.2887243">
  <ele>360.72</ele>
  <time>2026-09-01T19:53:51Z</time>
  <course>134.89</course>
  <speed>25.51</speed>
  <fix>3d</fix>
</trkpt>
<trkpt lat="-27.2742223" lon="151.2887821">
  <ele>359.67</ele>
  <time>2026-09-01T19:53:51Z</time>
  <course>131.67</course>
  <speed>25.409047601199067</speed>
  <fix>3d</fix>
</trkpt>
<trkpt lat="-27.2741754" lon="151.2887243">
  <ele>360.72</ele>
  <time>2026-09-01T19:53:51Z</time>
  <course>134.89</course>
  <speed>25.51</speed>
  <fix>3d</fix>
</trkpt>
<trkpt lat="-27.2742364" lon="151.2888022">
  <ele>359.33</ele>
  <time>2026-09-01T19:53:51Z</time>
  <course>129.98</course>
  <speed>25.369479695098203</speed>
  <fix>3d</fix>
</trkpt>
<trkpt lat="-27.2742066" lon="151.288762">
  <ele>360.02</ele>
  <time>2026-09-01T19:53:51Z</time>
  <course>131.09</course>
  <speed>25.44</speed>
  <fix>3d</fix>
</trkpt>
<trkpt lat="-27.27425" lon="151.2888228">
  <ele>359.0</ele>
  <time>2026-09-01T19:53:51Z</time>
  <course>128.35</course>
  <speed>25.331926496024735</speed>
  <fix>3d</fix>
</trkpt>
<trkpt lat="-27.2742066" lon="151.288762">
  <ele>360.02</ele>
  <time>2026-09-01T19:53:51Z</time>
  <course>131.09</course>
  <speed>25.44</speed>
  <fix>3d</fix>
</trkpt>
<trkpt lat="-27.2742631" lon="151.2888438">
  <ele>358.67</ele>
  <time>2026-09-01T19:53:51Z</time>
  <course>126.87</course>
  <speed>25.298715382406275</speed>
  <fix>3d</fix>
</trkpt>
<trkpt lat="-27.2742356" lon="151.2888017">
  <ele>359.34</ele>
  <time>2026-09-01T19:53:51Z</time>
  <course>127.6</course>
  <speed>25.36</speed>
  <fix>3d</fix>
</trkpt>
<trkpt lat="-27.2742757" lon="151.288865">
  <ele>358.35</ele>
  <time>2026-09-01T19:53:51Z</time>
  <course>125.43</course>
  <speed>25.266123564963422</speed>
  <fix>3d</fix>
</trkpt>
<trkpt lat="-27.2742356" lon="151.2888017">
  <ele>359.34</ele>
  <time>2026-09-01T19:53:51Z</time>
  <course>127.6</course>
  <speed>25.36</speed>
  <fix>3d</fix>
</trkpt>
<trkpt lat="-27.2742877" lon="151.2888867">
  <ele>358.02</ele>
  <time>2026-09-01T19:53:51Z</time>
  <course>123.99</course>
  <speed>25.220231957696186</speed>
  <fix>3d</fix>
</trkpt>
<trkpt lat="-27.2742622" lon="151.2888431">
  <ele>358.68</ele>
  <time>2026-09-01T19:53:51Z</time>
  <course>124.46</course>
  <speed>25.29</speed>
  <fix>3d</fix>
</trkpt>
<trkpt lat="-27.2742994" lon="151.2889085">
  <ele>357.71</ele>
  <time>2026-09-01T19:53:51Z</time>
  <course>122.4</course>
  <speed>25.147508822943077</speed>
  <fix>3d</fix>
</trkpt>
<trkpt lat="-27.2742622" lon="151.2888431">
  <ele>358.68</ele>
  <time>2026-09-01T19:53:51Z</time>
  <course>124.46</course>
  <speed>25.29</speed>
  <fix>3d</fix>
</trkpt>
<trkpt lat="-27.2743104" lon="151.2889305">
  <ele>357.41</ele>
  <time>2026-09-01T19:53:51Z</time>
  <course>120.43</course>
  <speed>25.010447816862456</speed>
  <fix>3d</fix>
</trkpt>
<trkpt lat="-27.274287" lon="151.2888859">
  <ele>358.03</ele>
  <time>2026-09-01T19:53:51Z</time>
  <course>121.61</course>
  <speed>25.2</speed>
  <fix>3d</fix>
</trkpt>
<trkpt lat="-27.2743209" lon="151.2889529">
  <ele>357.14</ele>
  <time>2026-09-01T19:53:51Z</time>
  <course>118.65</course>
  <speed>24.8566530329407</speed>
  <fix>3d</fix>
</trkpt>
<trkpt lat="-27.274287" lon="151.2888859">
  <ele>358.03</ele>
  <time>2026-09-01T19:53:51Z</time>
  <course>121.61</course>
  <speed>25.2</speed>
  <fix>3d</fix>
</trkpt>
<trkpt lat="-27.2743306" lon="151.2889754">
  <ele>356.91</ele>
  <time>2026-09-01T19:53:51Z</time>
  <course>116.9</course>
  <speed>24.688252267019635</speed>
  <fix>3d</fix>
</trkpt>
<trkpt lat="-27.2743096" lon="151.2889298">
  <ele>357.43</ele>
  <time>2026-09-01T19:53:51Z</time>
  <course>118.63</course>
  <speed>25.0</speed>
  <fix>3d</fix>
</trkpt>
<trkpt lat="-27.2743398" lon="151.288998">
  <ele>356.7</ele>
  <time>2026-09-01T19:53:51Z</time>
  <course>115.18</course>
  <speed>24.528436558411137</speed>
  <fix>3d</fix>
</trkpt>
<trkpt lat="-27.2743096" lon="151.2889298">
  <ele>357.43</ele>
  <time>2026-09-01T19:53:51Z</time>
  <course>118.63</course>
  <speed>25.0</speed>
  <fix>3d</fix>
</trkpt>
<trkpt lat="-27.2743482" lon="151.2890208">
  <ele>356.53</ele>
  <time>2026-09-01T19:53:51Z</time>
  <course>113.49</course>
  <speed>24.363228439597247</speed>
  <fix>3d</fix>
</trkpt>
<trkpt lat="-27.2743299" lon="151.2889745">
  <ele>356.93</ele>
  <time>2026-09-01T19:53:51Z</time>
  <course>115.31</course>
  <speed>24.69</speed>
  <fix>3d</fix>
</trkpt>
<trkpt lat="-27.274356" lon="151.2890436">
  <ele>356.38</ele>
  <time>2026-09-01T19:53:51Z</time>
  <course>111.84</course>
  <speed>24.208300229466754</speed>
  <fix>3d</fix>
</trkpt>
<trkpt lat="-27.2743299" lon="151.2889745">
  <ele>356.93</ele>
  <time>2026-09-01T19:53:51Z</time>
  <course>115.31</course>
  <speed>24.69</speed>
  <fix>3d</fix>
</trkpt>
<trkpt lat="-27.2743632" lon="151.2890667">
  <ele>356.26</ele>
  <time>2026-09-01T19:53:51Z</time>
  <course>110.24</course>
  <speed>24.04596015966092</speed>
  <fix>3d</fix>
</trkpt>
<trkpt lat="-27.2743476" lon="151.28902">
  <ele>356.55</ele>
  <time>2026-09-01T19:53:51Z</time>
  <course>111.9</course>
  <speed>24.36</speed>
  <fix>3d</fix>
</trkpt>
<trkpt lat="-27.2743697" lon="151.2890898">
  <ele>356.17</ele>
  <time>2026-09-01T19:53:51Z</time>
  <course>108.74</course>
  <speed>23.878643177534187</speed>
  <fix>3d</fix>
</trkpt>
<trkpt lat="-27.2743476" lon="151.28902">
  <ele>356.55</ele>
  <time>2026-09-01T19:53:51Z</time>
  <course>111.9</course>
  <speed>24.36</speed>
  <fix>3d</fix>
</trkpt>
<trkpt lat="-27.2743756" lon="151.289113">
  <ele>356.09</ele>
  <time>2026-09-01T19:53:51Z</time>
  <course>107.22</course>
  <speed>23.652500924849363</speed>
  <fix>3d</fix>
</trkpt>
<trkpt lat="-27.2743626" lon="151.289066">
  <ele>356.28</ele>
  <time>2026-09-01T19:53:51Z</time>
  <course>108.53</course>
  <speed>24.04</speed>
  <fix>3d</fix>
</trkpt>
<trkpt lat="-27.2743809" lon="151.289136">
  <ele>356.05</ele>
  <time>2026-09-01T19:53:51Z</time>
  <course>105.66</course>
  <speed>23.373380157777778</speed>
  <fix>3d</fix>
</trkpt>
<trkpt lat="-27.2743626" lon="151.289066">
  <ele>356.28</ele>
  <time>2026-09-01T19:53:51Z</time>
  <course>108.53</course>
  <speed>24.04</speed>
  <fix>3d</fix>
</trkpt>
<trkpt lat="-27.2743856" lon="151.2891589">
  <ele>356.04</ele>
  <time>2026-09-01T19:53:51Z</time>
  <course>104.12</course>
  <speed>23.04568723210484</speed>
  <fix>3d</fix>
</trkpt>
<trkpt lat="-27.2743751" lon="151.289112">
  <ele>356.11</ele>
  <time>2026-09-01T19:53:51Z</time>
  <course>105.37</course>
  <speed>23.63</speed>
  <fix>3d</fix>
</trkpt>
<trkpt lat="-27.2743898" lon="151.2891816">
  <ele>356.07</ele>
  <time>2026-09-01T19:53:51Z</time>
  <course>102.79</course>
  <speed>22.702598970161986</speed>
  <fix>3d</fix>
</trkpt>
<trkpt lat="-27.2743751" lon="151.289112">
  <ele>356.11</ele>
  <time>2026-09-01T19:53:51Z</time>
  <course>105.37</course>
  <speed>23.63</speed>
  <fix>3d</fix>
</trkpt>
<trkpt lat="-27.2743935" lon="151.2892039">
  <ele>356.14</ele>
  <time>2026-09-01T19:53:51Z</time>
  <course>101.64</course>
  <speed>22.344184925836966</speed>
  <fix>3d</fix>
</trkpt>
<trkpt lat="-27.2743852" lon="151.2891578">
  <ele>356.06</ele>
  <time>2026-09-01T19:53:51Z</time>
  <course>102.51</course>
  <speed>23.04</speed>
  <fix>3d</fix>
</trkpt>
<trkpt lat="-27.2743967" lon="151.2892259">
  <ele>356.25</ele>
  <time>2026-09-01T19:53:51Z</time>
  <course>100.6</course>
  <speed>21.958588297065003</speed>
  <fix>3d</fix>
</trkpt>
<trkpt lat="-27.2743852" lon="151.2891578">
  <ele>356.06</ele>
  <time>2026-09-01T19:53:51Z</time>
  <course>102.51</course>
  <speed>23.04</speed>
  <fix>3d</fix>
</trkpt>
<trkpt lat="-27.2743996" lon="151.2892478">
  <ele>356.4</ele>
  <time>2026-09-01T19:53:51Z</time>
  <course>99.68</course>
  <speed>21.55866415156561</speed>
  <fix>3d</fix>
</trkpt>
<trkpt lat="-27.2743931" lon="151.2892028">
  <ele>356.15</ele>
  <time>2026-09-01T19:53:51Z</time>
  <course>100.02</course>
  <speed>22.34</speed>
  <fix>3d</fix>
</trkpt>
<trkpt lat="-27.274402" lon="151.2892692">
  <ele>356.59</ele>
  <time>2026-09-01T19:53:51Z</time>
  <course>98.87</course>
  <speed>21.1530517892809</speed>
  <fix>3d</fix>
</trkpt>
<trkpt lat="-27.2743931" lon="151.2892028">
  <ele>356.15</ele>
  <time>2026-09-01T19:53:51Z</time>
  <course>100.02</course>
  <speed>22.34</speed>
  <fix>3d</fix>
</trkpt>
<trkpt lat="-27.2744041" lon="151.2892901">
  <ele>356.8</ele>
  <time>2026-09-01T19:53:51Z</time>
  <course>98.15</course>
  <speed>20.757979188736076</speed>
  <fix>3d</fix>
</trkpt>
<trkpt lat="-27.2743992" lon="151.2892466">
  <ele>356.4</ele>
  <time>2026-09-01T19:53:51Z</time>
  <course>97.91</course>
  <speed>21.57</speed>
  <fix>3d</fix>
</trkpt>
<trkpt lat="-27.274406" lon="151.2893109">
  <ele>357.02</ele>
  <time>2026-09-01T19:53:51Z</time>
  <course>97.45</course>
  <speed>20.38064032360122</speed>
  <fix>3d</fix>
</trkpt>
<trkpt lat="-27.2743992" lon="151.2892466">
  <ele>356.4</ele>
  <time>2026-09-01T19:53:51Z</time>
  <course>97.91</course>
  <speed>21.57</speed>
  <fix>3d</fix>
</trkpt>
<trkpt lat="-27.2744076" lon="151.2893312">
  <ele>357.24</ele>
  <time>2026-09-01T19:53:51Z</time>
  <course>96.74</course>
  <speed>20.018943528568133</speed>
  <fix>3d</fix>
</trkpt>
<trkpt lat="-27.2744038" lon="151.2892891">
  <ele>356.79</ele>
  <time>2026-09-01T19:53:51Z</time>
  <course>96.2</course>
  <speed>20.78</speed>
  <fix>3d</fix>
</trkpt>
<trkpt lat="-27.274409" lon="151.2893512">
  <ele>357.46</ele>
  <time>2026-09-01T19:53:51Z</time>
  <course>96.11</course>
  <speed>19.671319223681973</speed>
  <fix>3d</fix>
</trkpt>
<trkpt lat="-27.2744038" lon="151.2892891">
  <ele>356.79</ele>
  <time>2026-09-01T19:53:51Z</time>
  <course>96.2</course>
  <speed>20.78</speed>
  <fix>3d</fix>
</trkpt>
<trkpt lat="-27.2744102" lon="151.2893709">
  <ele>357.67</ele>
  <time>2026-09-01T19:53:51Z</time>
  <course>95.5</course>
  <speed>19.347873268139836</speed>
  <fix>3d</fix>
</trkpt>
<trkpt lat="-27.2744074" lon="151.2893302">
  <ele>357.23</ele>
  <time>2026-09-01T19:53:51Z</time>
  <course>94.82</course>
  <speed>20.04</speed>
  <fix>3d</fix>
</trkpt>
<trkpt lat="-27.2744112" lon="151.2893902">
  <ele>357.87</ele>
  <time>2026-09-01T19:53:51Z</time>
  <course>94.9</course>
  <speed>19.037344877897233</speed>
  <fix>3d</fix>
</trkpt>
<trkpt lat="-27.2744074" lon="151.2893302">
  <ele>357.23</ele>
  <time>2026-09-01T19:53:51Z</time>
  <course>94.82</course>
  <speed>20.04</speed>
  <fix>3d</fix>
</trkpt>
<trkpt lat="-27.274412" lon="151.2894093">
  <ele>358.04</ele>
  <time>2026-09-01T19:53:51Z</time>
  <course>94.29</course>
  <speed>18.748826629952074</speed>
  <fix>3d</fix>
</trkpt>
<trkpt lat="-27.2744099" lon="151.2893699">
  <ele>357.65</ele>
  <time>2026-09-01T19:53:51Z</time>
  <course>93.65</course>
  <speed>19.37</speed>
  <fix>3d</fix>
</trkpt>
<trkpt lat="-27.2744127" lon="151.289428">
  <ele>358.2</ele>
  <time>2026-09-01T19:53:51Z</time>
  <course>93.7</course>
  <speed>18.472154720010334</speed>
  <fix>3d</fix>
</trkpt>
<trkpt lat="-27.2744099" lon="151.2893699">
  <ele>357.65</ele>
  <time>2026-09-01T19:53:51Z</time>
  <course>93.65</course>
  <speed>19.37</speed>
  <fix>3d</fix>
</trkpt>
<trkpt lat="-27.2744132" lon="151.2894466">
  <ele>358.33</ele>
  <time>2026-09-01T19:53:51Z</time>
  <course>93.18</course>
  <speed>18.2071442022081</speed>
  <fix>3d</fix>
</trkpt>
<trkpt lat="-27.2744118" lon="151.2894084">
  <ele>358.02</ele>
  <time>2026-09-01T19:53:51Z</time>
  <course>92.61</course>
  <speed>18.77</speed>
  <fix>3d</fix>
</trkpt>
<trkpt lat="-27.2744136" lon="151.2894648">
  <ele>358.45</ele>
  <time>2026-09-01T19:53:51Z</time>
  <course>92.62</course>
  <speed>17.963607655479453</speed>
  <fix>3d</fix>
</trkpt>
<trkpt lat="-27.2744118" lon="151.2894084">
  <ele>358.02</ele>
  <time>2026-09-01T19:53:51Z</time>
  <course>92.61</course>
  <speed>18.77</speed>
  <fix>3d</fix>
</trkpt>
<trkpt lat="-27.2744139" lon="151.2894829">
  <ele>358.54</ele>
  <time>2026-09-01T19:53:51Z</time>
  <course>92.06</course>
  <speed>17.721244312970803</speed>
  <fix>3d</fix>
</trkpt>
<trkpt lat="-27.2744131" lon="151.2894458">
  <ele>358.31</ele>
  <time>2026-09-01T19:53:51Z</time>
  <course>91.65</course>
  <speed>18.23</speed>
  <fix>3d</fix>
</trkpt>
<trkpt lat="-27.274414" lon="151.2895007">
  <ele>358.63</ele>
  <time>2026-09-01T19:53:51Z</time>
  <course>91.56</course>
  <speed>17.480140159621147</speed>
  <fix>3d</fix>
</trkpt>
<trkpt lat="-27.2744131" lon="151.2894458">
  <ele>358.31</ele>
  <time>2026-09-01T19:53:51Z</time>
  <course>91.65</course>
  <speed>18.23</speed>
  <fix>3d</fix>
</trkpt>
<trkpt lat="-27.274414" lon="151.2895183">
  <ele>358.7</ele>
  <time>2026-09-01T19:53:51Z</time>
  <course>91.1</course>
  <speed>17.260072421632536</speed>
  <fix>3d</fix>
</trkpt>
<trkpt lat="-27.2744138" lon="151.2894822">
  <ele>358.53</ele>
  <time>2026-09-01T19:53:51Z</time>
  <course>90.72</course>
  <speed>17.73</speed>
  <fix>3d</fix>
</trkpt>
<trkpt lat="-27.2744139" lon="151.2895356">
  <ele>358.77</ele>
  <time>2026-09-01T19:53:51Z</time>
  <course>90.67</course>
  <speed>17.03084848150555</speed>
  <fix>3d</fix>
</trkpt>
<trkpt lat="-27.2744138" lon="151.2894822">
  <ele>358.53</ele>
  <time>2026-09-01T19:53:51Z</time>
  <course>90.72</course>
  <speed>17.73</speed>
  <fix>3d</fix>
</trkpt>
<trkpt lat="-27.2744137" lon="151.2895527">
  <ele>358.82</ele>
  <time>2026-09-01T19:53:51Z</time>
  <course>90.22</course>
  <speed>16.822166923437656</speed>
  <fix>3d</fix>
</trkpt>
<trkpt lat="-27.2744139" lon="151.2895175">
  <ele>358.69</ele>
  <time>2026-09-01T19:53:51Z</time>
  <course>89.85</course>
  <speed>17.27</speed>
  <fix>3d</fix>
</trkpt>
<trkpt lat="-27.2744134" lon="151.2895696">
  <ele>358.88</ele>
  <time>2026-09-01T19:53:51Z</time>
  <course>89.82</course>
  <speed>16.604122981958426</speed>
  <fix>3d</fix>
</trkpt>
<trkpt lat="-27.2744139" lon="151.2895175">
  <ele>358.69</ele>
  <time>2026-09-01T19:53:51Z</time>
  <course>89.85</course>
  <speed>17.27</speed>
  <fix>3d</fix>
</trkpt>
<trkpt lat="-27.274413" lon="151.2895862">
  <ele>358.93</ele>
  <time>2026-09-01T19:53:51Z</time>
  <course>89.47</course>
  <speed>16.38645782345898</speed>
  <fix>3d</fix>
</trkpt>
<trkpt lat="-27.2744136" lon="151.289552">
  <ele>358.81</ele>
  <time>2026-09-01T19:53:51Z</time>
  <course>89.07</course>
  <speed>16.83</speed>
  <fix>3d</fix>
</trkpt>
<trkpt lat="-27.2744127" lon="151.2896027">
  <ele>358.99</ele>
  <time>2026-09-01T19:53:51Z</time>
  <course>89.18</course>
  <speed>16.168688876962165</speed>
  <fix>3d</fix>
</trkpt>
<trkpt lat="-27.2744136" lon="151.289552">
  <ele>358.81</ele>
  <time>2026-09-01T19:53:51Z</time>
  <course>89.07</course>
  <speed>16.83</speed>
  <fix>3d</fix>
</trkpt>
<trkpt lat="-27.2744122" lon="151.2896189">
  <ele>359.05</ele>
  <time>2026-09-01T19:53:51Z</time>
  <course>88.93</course>
  <speed>15.95054857990784</speed>
  <fix>3d</fix>
</trkpt>
<trkpt lat="-27.274413" lon="151.2895855">
  <ele>358.93</ele>
  <time>2026-09-01T19:53:51Z</time>
  <course>88.42</course>
  <speed>16.39</speed>
  <fix>3d</fix>
</trkpt>
<trkpt lat="-27.2744116" lon="151.289635">
  <ele>359.12</ele>
  <time>2026-09-01T19:53:51Z</time>
  <course>88.71</course>
  <speed>15.73222171214225</speed>
  <fix>3d</fix>
</trkpt>
<trkpt lat="-27.274413" lon="151.2895855">
  <ele>358.93</ele>
  <time>2026-09-01T19:53:51Z</time>
  <course>88.42</course>
  <speed>16.39</speed>
  <fix>3d</fix>
</trkpt>
<trkpt lat="-27.2744111" lon="151.2896508">
  <ele>359.2</ele>
  <time>2026-09-01T19:53:51Z</time>
  <course>88.57</course>
  <speed>15.503215795440635</speed>
  <fix>3d</fix>
</trkpt>
<trkpt lat="-27.2744122" lon="151.2896182">
  <ele>359.05</ele>
  <time>2026-09-01T19:53:51Z</time>
  <course>87.92</course>
  <speed>15.96</speed>
  <fix>3d</fix>
</trkpt>
<trkpt lat="-27.2744105" lon="151.2896663">
  <ele>359.29</ele>
  <time>2026-09-01T19:53:51Z</time>
  <course>88.48</course>
  <speed>15.273837107943766</speed>
  <fix>3d</fix>
</trkpt>
<trkpt lat="-27.2744122" lon="151.2896182">
  <ele>359.05</ele>
  <time>2026-09-01T19:53:51Z</time>
  <course>87.92</course>
  <speed>15.96</speed>
  <fix>3d</fix>
</trkpt>
<trkpt lat="-27.2744099" lon="151.2896817">
  <ele>359.38</ele>
  <time>2026-09-01T19:53:51Z</time>
  <course>88.44</course>
  <speed>15.04361991011472</speed>
  <fix>3d</fix>
</trkpt>
<trkpt lat="-27.2744111" lon="151.28965">
  <ele>359.2</ele>
  <time>2026-09-01T19:53:51Z</time>
  <course>87.63</course>
  <speed>15.51</speed>
  <fix>3d</fix>
</trkpt>
<trkpt lat="-27.2744093" lon="151.2896966">
  <ele>359.48</ele>
  <time>2026-09-01T19:53:51Z</time>
  <course>88.44</course>
  <speed>14.822972036673347</speed>
  <fix>3d</fix>
</trkpt>
<trkpt lat="-27.2744111" lon="151.28965">
  <ele>359.2</ele>
  <time>2026-09-01T19:53:51Z</time>
  <course>87.63</course>
  <speed>15.51</speed>
  <fix>3d</fix>
</trkpt>
<trkpt lat="-27.2744088" lon="151.2897116">
  <ele>359.57</ele>
  <time>2026-09-01T19:53:51Z</time>
  <course>88.48</course>
  <speed>14.591531790733965</speed>
  <fix>3d</fix>
</trkpt>
<trkpt lat="-27.2744099" lon="151.2896809">
  <ele>359.37</ele>
  <time>2026-09-01T19:53:51Z</time>
  <course>87.57</course>
  <speed>15.06</speed>
  <fix>3d</fix>
</trkpt>
<trkpt lat="-27.2744083" lon="151.2897262">
  <ele>359.67</ele>
  <time>2026-09-01T19:53:51Z</time>
  <course>88.55</course>
  <speed>14.380142558403238</speed>
  <fix>3d</fix>
</trkpt>
<trkpt lat="-27.2744099" lon="151.2896809">
  <ele>359.37</ele>
  <time>2026-09-01T19:53:51Z</time>
  <course>87.57</course>
  <speed>15.06</speed>
  <fix>3d</fix>
</trkpt>
<trkpt lat="-27.2744078" lon="151.2897405">
  <ele>359.77</ele>
  <time>2026-09-01T19:53:51Z</time>
  <course>88.67</course>
  <speed>14.158481557003208</speed>
  <fix>3d</fix>
</trkpt>
<trkpt lat="-27.2744088" lon="151.2897108">
  <ele>359.57</ele>
  <time>2026-09-01T19:53:51Z</time>
  <course>87.71</course>
  <speed>14.61</speed>
  <fix>3d</fix>
</trkpt>
<trkpt lat="-27.2744074" lon="151.2897548">
  <ele>359.86</ele>
  <time>2026-09-01T19:53:51Z</time>
  <course>88.82</course>
  <speed>13.946630417416245</speed>
  <fix>3d</fix>
</trkpt>
<trkpt lat="-27.2744088" lon="151.2897108">
  <ele>359.57</ele>
  <time>2026-09-01T19:53:51Z</time>
  <course>87.71</course>
  <speed>14.61</speed>
  <fix>3d</fix>
</trkpt>
<trkpt lat="-27.274407" lon="151.2897688">
  <ele>359.96</ele>
  <time>2026-09-01T19:53:51Z</time>
  <course>89.01</course>
  <speed>13.744980902132967</speed>
  <fix>3d</fix>
</trkpt>
<trkpt lat="-27.2744078" lon="151.2897399">
  <ele>359.76</ele>
  <time>2026-09-01T19:53:51Z</time>
  <course>88.0</course>
  <speed>14.17</speed>
  <fix>3d</fix>
</trkpt>
<trkpt lat="-27.2744067" lon="151.2897826">
  <ele>360.05</ele>
  <time>2026-09-01T19:53:51Z</time>
  <course>89.25</course>
  <speed>13.533325533659493</speed>
  <fix>3d</fix>
</trkpt>
<trkpt lat="-27.2744078" lon="151.2897399">
  <ele>359.76</ele>
  <time>2026-09-01T19:53:51Z</time>
  <course>88.0</course>
  <speed>14.17</speed>
  <fix>3d</fix>
</trkpt>
<trkpt lat="-27.2744065" lon="151.2897961">
  <ele>360.14</ele>
  <time>2026-09-01T19:53:51Z</time>
  <course>89.51</course>
  <speed>13.331815330254166</speed>
  <fix>3d</fix>
</trkpt>
<trkpt lat="-27.274407" lon="151.2897681">
  <ele>359.95</ele>
  <time>2026-09-01T19:53:51Z</time>
  <course>88.44</course>
  <speed>13.75</speed>
  <fix>3d</fix>
</trkpt>
<trkpt lat="-27.2744063" lon="151.2898095">
  <ele>360.22</ele>
  <time>2026-09-01T19:53:51Z</time>
  <course>89.8</course>
  <speed>13.130746361117483</speed>
  <fix>3d</fix>
</trkpt>
<trkpt lat="-27.274407" lon="151.2897681">
  <ele>359.95</ele>
  <time>2026-09-01T19:53:51Z</time>
  <course>88.44</course>
  <speed>13.75</speed>
  <fix>3d</fix>
</trkpt>
<trkpt lat="-27.2744062" lon="151.2898227">
  <ele>360.31</ele>
  <time>2026-09-01T19:53:51Z</time>
  <course>90.11</course>
  <speed>12.93013921038749</speed>
  <fix>3d</fix>
</trkpt>
<trkpt lat="-27.2744065" lon="151.2897955">
  <ele>360.13</ele>
  <time>2026-09-01T19:53:51Z</time>
  <course>89.01</course>
  <speed>13.34</speed>
  <fix>3d</fix>
</trkpt>
<trkpt lat="-27.2744062" lon="151.2898356">
  <ele>360.39</ele>
  <time>2026-09-01T19:53:51Z</time>
  <course>90.45</course>
  <speed>12.730003927729166</speed>
  <fix>3d</fix>
</trkpt>
<trkpt lat="-27.2744065" lon="151.2897955">
  <ele>360.13</ele>
  <time>2026-09-01T19:53:51Z</time>
  <course>89.01</course>
  <speed>13.34</speed>
  <fix>3d</fix>
</trkpt>
<trkpt lat="-27.2744063" lon="151.2898483">
  <ele>360.47</ele>
  <time>2026-09-01T19:53:51Z</time>
  <course>90.79</course>
  <speed>12.530399035944544</speed>
  <fix>3d</fix>
</trkpt>
<trkpt lat="-27.2744062" lon="151.2898221">
  <ele>360.3</ele>
  <time>2026-09-01T19:53:51Z</time>
  <course>89.7</course>
  <speed>12.93</speed>
  <fix>3d</fix>
</trkpt>
<trkpt lat="-27.2744064" lon="151.289861">
  <ele>360.55</ele>
  <time>2026-09-01T19:53:51Z</time>
  <course>91.17</course>
  <speed>12.341312734065205</speed>
  <fix>3d</fix>
</trkpt>
<trkpt lat="-27.2744062" lon="151.2898221">
  <ele>360.3</ele>
  <time>2026-09-01T19:53:51Z</time>
  <course>89.7</course>
  <speed>12.93</speed>
  <fix>3d</fix>
</trkpt>
<trkpt lat="-27.2744066" lon="151.2898732">
  <ele>360.62</ele>
  <time>2026-09-01T19:53:51Z</time>
  <course>91.56</course>
  <speed>12.143002099975114</speed>
  <fix>3d</fix>
</trkpt>
<trkpt lat="-27.2744063" lon="151.2898478">
  <ele>360.46</ele>
  <time>2026-09-01T19:53:51Z</time>
  <course>90.46</course>
  <speed>12.54</speed>
  <fix>3d</fix>
</trkpt>
<trkpt lat="-27.2744068" lon="151.2898855">
  <ele>360.7</ele>
  <time>2026-09-01T19:53:51Z</time>
  <course>91.97</course>
  <speed>11.95542136438528</speed>
  <fix>3d</fix>
</trkpt>
<trkpt lat="-27.2744063" lon="151.2898478">
  <ele>360.46</ele>
  <time>2026-09-01T19:53:51Z</time>
  <course>90.46</course>
  <speed>12.54</speed>
  <fix>3d</fix>
</trkpt>
<trkpt lat="-27.2744071" lon="151.2898975">
  <ele>360.77</ele>
  <time>2026-09-01T19:53:51Z</time>
  <course>92.36</course>
  <speed>11.768228413826783</speed>
  <fix>3d</fix>
</trkpt>
<trkpt lat="-27.2744066" lon="151.2898728">
  <ele>360.61</ele>
  <time>2026-09-01T19:53:51Z</time>
  <course>91.28</course>
  <speed>12.15</speed>
  <fix>3d</fix>
</trkpt>
<trkpt lat="-27.2744076" lon="151.2899093">
  <ele>360.84</ele>
  <time>2026-09-01T19:53:51Z</time>
  <course>92.75</course>
  <speed>11.58167949824204</speed>
  <fix>3d</fix>
</trkpt>
<trkpt lat="-27.2744066" lon="151.2898728">
  <ele>360.61</ele>
  <time>2026-09-01T19:53:51Z</time>
  <course>91.28</course>
  <speed>12.15</speed>
  <fix>3d</fix>
</trkpt>
<trkpt lat="-27.2744081" lon="151.2899209">
  <ele>360.9</ele>
  <time>2026-09-01T19:53:51Z</time>
  <course>93.16</course>
  <speed>11.395806246159154</speed>
  <fix>3d</fix>
</trkpt>
<trkpt lat="-27.2744072" lon="151.289897">
  <ele>360.76</ele>
  <time>2026-09-01T19:53:51Z</time>
  <course>92.13</course>
  <speed>11.78</speed>
  <fix>3d</fix>
</trkpt>
<trkpt lat="-27.2744087" lon="151.2899323">
  <ele>360.97</ele>
  <time>2026-09-01T19:53:51Z</time>
  <course>93.6</course>
  <speed>11.210040142657832</speed>
  <fix>3d</fix>
</trkpt>
<trkpt lat="-27.2744072" lon="151.289897">
  <ele>360.76</ele>
  <time>2026-09-01T19:53:51Z</time>
  <course>92.13</course>
  <speed>11.78</speed>
  <fix>3d</fix>
</trkpt>
<trkpt lat="-27.2744093" lon="151.2899435">
  <ele>361.03</ele>
  <time>2026-09-01T19:53:51Z</time>
  <course>94.02</course>
  <speed>11.025538535599974</speed>
  <fix>3d</fix>
</trkpt>
<trkpt lat="-27.2744081" lon="151.2899204">
  <ele>360.89</ele>
  <time>2026-09-01T19:53:51Z</time>
  <course>93.0</course>
  <speed>11.4</speed>
  <fix>3d</fix>
</trkpt>
<trkpt lat="-27.27441" lon="151.2899545">
  <ele>361.09</ele>
  <time>2026-09-01T19:53:51Z</time>
  <course>94.46</course>
  <speed>10.84105622160498</speed>
  <fix>3d</fix>
</trkpt>
<trkpt lat="-27.2744081" lon="151.2899204">
  <ele>360.89</ele>
  <time>2026-09-01T19:53:51Z</time>
  <course>93.0</course>
  <speed>11.4</speed>
  <fix>3d</fix>
</trkpt>
<trkpt lat="-27.2744108" lon="151.2899654">
  <ele>361.15</ele>
  <time>2026-09-01T19:53:51Z</time>
  <course>94.92</course>
  <speed>10.657227594454385</speed>
  <fix>3d</fix>
</trkpt>
<trkpt lat="-27.2744093" lon="151.289943">
  <ele>361.02</ele>
  <time>2026-09-01T19:53:51Z</time>
  <course>93.89</course>
  <speed>11.03</speed>
  <fix>3d</fix>
</trkpt>
<trkpt lat="-27.2744116" lon="151.289976">
  <ele>361.21</ele>
  <time>2026-09-01T19:53:51Z</time>
  <course>95.35</course>
  <speed>10.464129204095293</speed>
  <fix>3d</fix>
</trkpt>
<trkpt lat="-27.2744093" lon="151.289943">
  <ele>361.02</ele>
  <time>2026-09-01T19:53:51Z</time>
  <course>93.89</course>
  <speed>11.03</speed>
  <fix>3d</fix>
</trkpt>
<trkpt lat="-27.2744125" lon="151.2899864">
  <ele>361.27</ele>
  <time>2026-09-01T19:53:51Z</time>
  <course>95.77</course>
  <speed>10.280724682628165</speed>
  <fix>3d</fix>
</trkpt>
<trkpt lat="-27.2744108" lon="151.2899648">
  <ele>361.15</ele>
  <time>2026-09-01T19:53:51Z</time>
  <course>94.79</course>
  <speed>10.66</speed>
  <fix>3d</fix>
</trkpt>
<trkpt lat="-27.2744135" lon="151.2899967">
  <ele>361.33</ele>
  <time>2026-09-01T19:53:51Z</time>
  <course>96.2</course>
  <speed>10.097920578020013</speed>
  <fix>3d</fix>
</trkpt>
<trkpt lat="-27.2744108" lon="151.2899648">
  <ele>361.15</ele>
  <time>2026-09-01T19:53:51Z</time>
  <course>94.79</course>
  <speed>10.66</speed>
  <fix>3d</fix>
</trkpt>
<trkpt lat="-27.2744145" lon="151.2900067">
  <ele>361.38</ele>
  <time>2026-09-01T19:53:51Z</time>
  <course>96.65</course>
  <speed>9.914605388012172</speed>
  <fix>3d</fix>
</trkpt>
<trkpt lat="-27.2744125" lon="151.2899859">
  <ele>361.27</ele>
  <time>2026-09-01T19:53:51Z</time>
  <course>95.68</course>
  <speed>10.29</speed>
  <fix>3d</fix>
</trkpt>
<trkpt lat="-27.2744155" lon="151.2900167">
  <ele>361.44</ele>
  <time>2026-09-01T19:53:51Z</time>
  <course>97.1</course>
  <speed>9.723096214683881</speed>
  <fix>3d</fix>
</trkpt>
<trkpt lat="-27.2744125" lon="151.2899859">
  <ele>361.27</ele>
  <time>2026-09-01T19:53:51Z</time>
  <course>95.68</course>
  <speed>10.29</speed>
  <fix>3d</fix>
</trkpt>
<trkpt lat="-27.2744166" lon="151.2900263">
  <ele>361.49</ele>
  <time>2026-09-01T19:53:51Z</time>
  <course>97.54</course>
  <speed>9.531007291991754</speed>
  <fix>3d</fix>
</trkpt>
<trkpt lat="-27.2744144" lon="151.2900062">
  <ele>361.38</ele>
  <time>2026-09-01T19:53:51Z</time>
  <course>96.57</course>
  <speed>9.92</speed>
  <fix>3d</fix>
</trkpt>
<trkpt lat="-27.2744177" lon="151.2900358">
  <ele>361.54</ele>
  <time>2026-09-01T19:53:51Z</time>
  <course>97.96</course>
  <speed>9.349422442054909</speed>
  <fix>3d</fix>
</trkpt>
<trkpt lat="-27.2744144" lon="151.2900062">
  <ele>361.38</ele>
  <time>2026-09-01T19:53:51Z</time>
  <course>96.57</course>
  <speed>9.92</speed>
  <fix>3d</fix>
</trkpt>
<trkpt lat="-27.2744189" lon="151.290045">
  <ele>361.59</ele>
  <time>2026-09-01T19:53:51Z</time>
  <course>98.4</course>
  <speed>9.15710106966173</speed>
  <fix>3d</fix>
</trkpt>
<trkpt lat="-27.2744166" lon="151.2900259">
  <ele>361.48</ele>
  <time>2026-09-01T19:53:51Z</time>
  <course>97.46</course>
  <speed>9.54</speed>
  <fix>3d</fix>
</trkpt>
<trkpt lat="-27.2744201" lon="151.2900541">
  <ele>361.64</ele>
  <time>2026-09-01T19:53:51Z</time>
  <course>98.82</course>
  <speed>8.975176878479889</speed>
  <fix>3d</fix>
</trkpt>
<trkpt lat="-27.2744166" lon="151.2900259">
  <ele>361.48</ele>
  <time>2026-09-01T19:53:51Z</time>
  <course>97.46</course>
  <speed>9.54</speed>
  <fix>3d</fix>
</trkpt>
<trkpt lat="-27.2744214" lon="151.290063">
  <ele>361.68</ele>
  <time>2026-09-01T19:53:51Z</time>
  <course>99.23</course>
  <speed>8.782306075285693</speed>
  <fix>3d</fix>
</trkpt>
<trkpt lat="-27.2744189" lon="151.2900446">
  <ele>361.59</ele>
  <time>2026-09-01T19:53:51Z</time>
  <course>98.33</course>
  <speed>9.17</speed>
  <fix>3d</fix>
</trkpt>
<trkpt lat="-27.2744227" lon="151.2900716">
  <ele>361.72</ele>
  <time>2026-09-01T19:53:51Z</time>
  <course>99.66</course>
  <speed>8.601395235657993</speed>
  <fix>3d</fix>
</trkpt>
<trkpt lat="-27.2744189" lon="151.2900446">
  <ele>361.59</ele>
  <time>2026-09-01T19:53:51Z</time>
  <course>98.33</course>
  <speed>9.17</speed>
  <fix>3d</fix>
</trkpt>
<trkpt lat="-27.274424" lon="151.29008">
  <ele>361.76</ele>
  <time>2026-09-01T19:53:51Z</time>
  <course>100.05</course>
  <speed>8.407734534343957</speed>
  <fix>3d</fix>
</trkpt>
<trkpt lat="-27.2744213" lon="151.2900625">
  <ele>361.68</ele>
  <time>2026-09-01T19:53:51Z</time>
  <course>99.19</course>
  <speed>8.79</speed>
  <fix>3d</fix>
</trkpt>
<trkpt lat="-27.2744253" lon="151.2900884">
  <ele>361.8</ele>
  <time>2026-09-01T19:53:51Z</time>
  <course>100.46</course>
  <speed>8.22606831967739</speed>
  <fix>3d</fix>
</trkpt>
<trkpt lat="-27.2744213" lon="151.2900625">
  <ele>361.68</ele>
  <time>2026-09-01T19:53:51Z</time>
  <course>99.19</course>
  <speed>8.79</speed>
  <fix>3d</fix>
</trkpt>
<trkpt lat="-27.2744267" lon="151.2900963">
  <ele>361.83</ele>
  <time>2026-09-01T19:53:51Z</time>
  <course>100.85</course>
  <speed>8.033193636406383</speed>
  <fix>3d</fix>
</trkpt>
<trkpt lat="-27.2744239" lon="151.2900796">
  <ele>361.76</ele>
  <time>2026-09-01T19:53:51Z</time>
  <course>100.02</course>
  <speed>8.42</speed>
  <fix>3d</fix>
</trkpt>
<trkpt lat="-27.274428" lon="151.2901043">
  <ele>361.86</ele>
  <time>2026-09-01T19:53:51Z</time>
  <course>101.25</course>
  <speed>7.840727007108461</speed>
  <fix>3d</fix>
</trkpt>
<trkpt lat="-27.2744239" lon="151.2900796">
  <ele>361.76</ele>
  <time>2026-09-01T19:53:51Z</time>
  <course>100.02</course>
  <speed>8.42</speed>
  <fix>3d</fix>
</trkpt>
<trkpt lat="-27.2744294" lon="151.290112">
  <ele>361.89</ele>
  <time>2026-09-01T19:53:52Z</time>
  <course>101.64</course>
  <speed>7.648699235817813</speed>
  <fix>3d</fix>
</trkpt>
<trkpt lat="-27.2744266" lon="151.290096">
  <ele>361.83</ele>
  <time>2026-09-01T19:53:52Z</time>
  <course>100.84</course>
  <speed>8.04</speed>
  <fix>3d</fix>
</trkpt>
<trkpt lat="-27.2744308" lon="151.2901195">
  <ele>361.91</ele>
  <time>2026-09-01T19:53:52Z</time>
  <course>102.02</course>
  <speed>7.464824177433786</speed>
  <fix>3d</fix>
</trkpt>
<trkpt lat="-27.2744266" lon="151.290096">
  <ele>361.83</ele>
  <time>2026-09-01T19:53:52Z</time>
  <course>100.84</course>
  <speed>8.04</speed>
  <fix>3d</fix>
</trkpt>
<trkpt lat="-27.2744322" lon="151.2901268">
  <ele>361.93</ele>
  <time>2026-09-01T19:53:52Z</time>
  <course>102.38</course>
  <speed>7.279127694992031</speed>
  <fix>3d</fix>
</trkpt>
<trkpt lat="-27.2744294" lon="151.2901116">
  <ele>361.88</ele>
  <time>2026-09-01T19:53:52Z</time>
  <course>101.64</course>
  <speed>7.66</speed>
  <fix>3d</fix>
</trkpt>
<trkpt lat="-27.2744336" lon="151.2901338">
  <ele>361.94</ele>
  <time>2026-09-01T19:53:52Z</time>
  <course>102.74</course>
  <speed>7.095864993078716</speed>
  <fix>3d</fix>
</trkpt>
<trkpt lat="-27.2744294" lon="151.2901116">
  <ele>361.88</ele>
  <time>2026-09-01T19:53:52Z</time>
  <course>101.64</course>
  <speed>7.66</speed>
  <fix>3d</fix>
</trkpt>
<trkpt lat="-27.274435" lon="151.2901407">
  <ele>361.95</ele>
  <time>2026-09-01T19:53:52Z</time>
  <course>103.08</course>
  <speed>6.910701845688323</speed>
  <fix>3d</fix>
</trkpt>
<trkpt lat="-27.2744322" lon="151.2901264">
  <ele>361.92</ele>
  <time>2026-09-01T19:53:52Z</time>
  <course>102.4</course>
  <speed>7.29</speed>
  <fix>3d</fix>
</trkpt>
<trkpt lat="-27.2744364" lon="151.2901475">
  <ele>361.95</ele>
  <time>2026-09-01T19:53:52Z</time>
  <course>103.4</course>
  <speed>6.723481241142865</speed>
  <fix>3d</fix>
</trkpt>
<trkpt lat="-27.2744322" lon="151.2901264">
  <ele>361.92</ele>
  <time>2026-09-01T19:53:52Z</time>
  <course>102.4</course>
  <speed>7.29</speed>
  <fix>3d</fix>
</trkpt>
<trkpt lat="-27.2744378" lon="151.290154">
  <ele>361.94</ele>
  <time>2026-09-01T19:53:52Z</time>
  <course>103.7</course>
  <speed>6.546151541172875</speed>
  <fix>3d</fix>
</trkpt>
<trkpt lat="-27.2744349" lon="151.2901403">
  <ele>361.94</ele>
  <time>2026-09-01T19:53:52Z</time>
  <course>103.11</course>
  <speed>6.92</speed>
  <fix>3d</fix>
</trkpt>
<trkpt lat="-27.2744392" lon="151.2901603">
  <ele>361.89</ele>
  <time>2026-09-01T19:53:52Z</time>
  <course>103.99</course>
  <speed>6.332661367861067</speed>
  <fix>3d</fix>
</trkpt>
<trkpt lat="-27.2744349" lon="151.2901403">
  <ele>361.94</ele>
  <time>2026-09-01T19:53:52Z</time>
  <course>103.11</course>
  <speed>6.92</speed>
  <fix>3d</fix>
</trkpt>
<trkpt lat="-27.2744406" lon="151.2901664">
  <ele>361.76</ele>
  <time>2026-09-01T19:53:52Z</time>
  <course>104.26</course>
  <speed>6.046436967338699</speed>
  <fix>3d</fix>
</trkpt>
<trkpt lat="-27.2744378" lon="151.2901536">
  <ele>361.92</ele>
  <time>2026-09-01T19:53:52Z</time>
  <course>103.63</course>
  <speed>6.54</speed>
  <fix>3d</fix>
</trkpt>
<trkpt lat="-27.2744418" lon="151.2901721">
  <ele>361.57</ele>
  <time>2026-09-01T19:53:52Z</time>
  <course>104.58</course>
  <speed>5.6486547070961945</speed>
  <fix>3d</fix>
</trkpt>
<trkpt lat="-27.2744378" lon="151.2901536">
  <ele>361.92</ele>
  <time>2026-09-01T19:53:52Z</time>
  <course>103.63</course>
  <speed>6.54</speed>
  <fix>3d</fix>
</trkpt>
<trkpt lat="-27.274443" lon="151.2901774">
  <ele>361.33</ele>
  <time>2026-09-01T19:53:52Z</time>
  <course>105.0</course>
  <speed>5.1612401610465675</speed>
  <fix>3d</fix>
</trkpt>
<trkpt lat="-27.2744405" lon="151.290166">
  <ele>361.73</ele>
  <time>2026-09-01T19:53:52Z</time>
  <course>103.94</course>
  <speed>6.01</speed>
  <fix>3d</fix>
</trkpt>
<trkpt lat="-27.2744441" lon="151.2901822">
  <ele>361.06</ele>
  <time>2026-09-01T19:53:52Z</time>
  <course>105.54</course>
  <speed>4.606365161382671</speed>
  <fix>3d</fix>
</trkpt>
<trkpt lat="-27.2744405" lon="151.290166">
  <ele>361.73</ele>
  <time>2026-09-01T19:53:52Z</time>
  <course>103.94</course>
  <speed>6.01</speed>
  <fix>3d</fix>
</trkpt>
<trkpt lat="-27.2744452" lon="151.2901863">
  <ele>360.78</ele>
  <time>2026-09-01T19:53:52Z</time>
  <course>106.2</course>
  <speed>4.023294669794893</speed>
  <fix>3d</fix>
</trkpt>
<trkpt lat="-27.2744429" lon="151.290177">
  <ele>361.32</ele>
  <time>2026-09-01T19:53:52Z</time>
  <course>104.48</course>
  <speed>5.15</speed>
  <fix>3d</fix>
</trkpt>
<trkpt lat="-27.2744461" lon="151.2901901">
  <ele>360.5</ele>
  <time>2026-09-01T19:53:52Z</time>
  <course>106.94</course>
  <speed>3.444488350974641</speed>
  <fix>3d</fix>
</trkpt>
<trkpt lat="-27.2744429" lon="151.290177">
  <ele>361.32</ele>
  <time>2026-09-01T19:53:52Z</time>
  <course>104.48</course>
  <speed>5.15</speed>
  <fix>3d</fix>
</trkpt>
<trkpt lat="-27.274447" lon="151.290193">
  <ele>360.23</ele>
  <time>2026-09-01T19:53:52Z</time>
  <course>107.69</course>
  <speed>2.893872837565604</speed>
  <fix>3d</fix>
</trkpt>
<trkpt lat="-27.2744451" lon="151.290186">
  <ele>360.79</ele>
  <time>2026-09-01T19:53:52Z</time>
  <course>105.94</course>
  <speed>4.04</speed>
  <fix>3d</fix>
</trkpt>
<trkpt lat="-27.2744479" lon="151.2901956">
  <ele>359.98</ele>
  <time>2026-09-01T19:53:52Z</time>
  <course>108.4</course>
  <speed>2.3807771840304586</speed>
  <fix>3d</fix>
</trkpt>
<trkpt lat="-27.2744451" lon="151.290186">
  <ele>360.79</ele>
  <time>2026-09-01T19:53:52Z</time>
  <course>105.94</course>
  <speed>4.04</speed>
  <fix>3d</fix>
</trkpt>
<trkpt lat="-27.2744487" lon="151.2901976">
  <ele>359.76</ele>
  <time>2026-09-01T19:53:52Z</time>
  <course>109.04</course>
  <speed>1.9275113488641253</speed>
  <fix>3d</fix>
</trkpt>
<trkpt lat="-27.2744469" lon="151.2901927">
  <ele>360.25</ele>
  <time>2026-09-01T19:53:52Z</time>
  <course>109.3</course>
  <speed>2.93</speed>
  <fix>3d</fix>
</trkpt>
<trkpt lat="-27.2744494" lon="151.2901991">
  <ele>359.56</ele>
  <time>2026-09-01T19:53:52Z</time>
  <course>109.55</course>
  <speed>1.5448624534242523</speed>
  <fix>3d</fix>
</trkpt>
<trkpt lat="-27.2744469" lon="151.2901927">
  <ele>360.25</ele>
  <time>2026-09-01T19:53:52Z</time>
  <course>109.3</course>
  <speed>2.93</speed>
  <fix>3d</fix>
</trkpt>
<trkpt lat="-27.2744502" lon="151.2902001">
  <ele>359.39</ele>
  <time>2026-09-01T19:53:52Z</time>
  <course>109.94</course>
  <speed>1.245792920191795</speed>
  <fix>3d</fix>
</trkpt>
<trkpt lat="-27.2744486" lon="151.2901973">
  <ele>359.78</ele>
  <time>2026-09-01T19:53:52Z</time>
  <course>116.56</course>
  <speed>1.97</speed>
  <fix>3d</fix>
</trkpt>
<trkpt lat="-27.274451" lon="151.290201">
  <ele>359.26</ele>
  <time>2026-09-01T19:53:52Z</time>
  <course>110.19</course>
  <speed>1.0322790320451152</speed>
  <fix>3d</fix>
</trkpt>
<trkpt lat="-27.2744486" lon="151.2901973">
  <ele>359.78</ele>
  <time>2026-09-01T19:53:52Z</time>
  <course>116.56</course>
  <speed>1.97</speed>
  <fix>3d</fix>
</trkpt>
<trkpt lat="-27.2744517" lon="151.2902015">
  <ele>359.17</ele>
  <time>2026-09-01T19:53:52Z</time>
  <course>110.3</course>
  <speed>0.9062008607367353</speed>
  <fix>3d</fix>
</trkpt>
<trkpt lat="-27.2744501" lon="151.2902">
  <ele>359.41</ele>
  <time>2026-09-01T19:53:52Z</time>
  <course>131.35</course>
  <speed>1.28</speed>
  <fix>3d</fix>
</trkpt>
<trkpt lat="-27.2744525" lon="151.2902016">
  <ele>359.1</ele>
  <time>2026-09-01T19:53:52Z</time>
  <course>110.29</course>
  <speed>0.8515867542417507</speed>
  <fix>3d</fix>
</trkpt>
<trkpt lat="-27.2744501" lon="151.2902">
  <ele>359.41</ele>
  <time>2026-09-01T19:53:52Z</time>
  <course>131.35</course>
  <speed>1.28</speed>
  <fix>3d</fix>
</trkpt>
<trkpt lat="-27.2744532" lon="151.2902018">
  <ele>359.07</ele>
  <time>2026-09-01T19:53:52Z</time>
  <course>110.18</course>
  <speed>0.84</speed>
  <fix>3d</fix>
</trkpt>
<trkpt lat="-27.2744517" lon="151.2902013">
  <ele>359.19</ele>
  <time>2026-09-01T19:53:52Z</time>
  <course>155.43</course>
  <speed>0.92</speed>
  <fix>3d</fix>
</trkpt>
<trkpt lat="-27.274454" lon="151.2902016">
  <ele>359.07</ele>
  <time>2026-09-01T19:53:52Z</time>
  <course>109.98</course>
  <speed>0.848528137423857</speed>
  <fix>3d</fix>
</trkpt>
<trkpt lat="-27.2744517" lon="151.2902013">
  <ele>359.19</ele>
  <time>2026-09-01T19:53:52Z</time>
  <course>155.43</course>
  <speed>0.92</speed>
  <fix>3d</fix>
</trkpt>
<trkpt lat="-27.2744547" lon="151.2902015">
  <ele>359.09</ele>
  <time>2026-09-01T19:53:52Z</time>
  <course>109.71</course>
  <speed>0.8464632301523793</speed>
  <fix>3d</fix>
</trkpt>
<trkpt lat="-27.2744532" lon="151.2902016">
  <ele>359.09</ele>
  <time>2026-09-01T19:53:52Z</time>
  <course>178.78</course>
  <speed>0.84</speed>
  <fix>3d</fix>
</trkpt>
<trkpt lat="-27.2744555" lon="151.2902013">
  <ele>359.13</ele>
  <time>2026-09-01T19:53:52Z</time>
  <course>109.44</course>
  <speed>0.8475848040166837</speed>
  <fix>3d</fix>
</trkpt>
<trkpt lat="-27.2744532" lon="151.2902016">
  <ele>359.09</ele>
  <time>2026-09-01T19:53:52Z</time>
  <course>178.78</course>
  <speed>0.84</speed>
  <fix>3d</fix>
</trkpt>
<trkpt lat="-27.2744562" lon="151.290201">
  <ele>359.19</ele>
  <time>2026-09-01T19:53:52Z</time>
  <course>109.19</course>
  <speed>0.8338465086573187</speed>
  <fix>3d</fix>
</trkpt>
<trkpt lat="-27.2744547" lon="151.2902015">
  <ele>359.1</ele>
  <time>2026-09-01T19:53:52Z</time>
  <course>193.57</course>
  <speed>0.84</speed>
  <fix>3d</fix>
</trkpt>
<trkpt lat="-27.2744568" lon="151.2902006">
  <ele>359.25</ele>
  <time>2026-09-01T19:53:52Z</time>
  <course>108.99</course>
  <speed>0.8229216244576394</speed>
  <fix>3d</fix>
</trkpt>
<trkpt lat="-27.2744547" lon="151.2902015">
  <ele>359.1</ele>
  <time>2026-09-01T19:53:52Z</time>
  <course>193.57</course>
  <speed>0.84</speed>
  <fix>3d</fix>
</trkpt>
<trkpt lat="-27.2744575" lon="151.2902004">
  <ele>359.32</ele>
  <time>2026-09-01T19:53:52Z</time>
  <course>108.85</course>
  <speed>0.8006247560499239</speed>
  <fix>3d</fix>
</trkpt>
<trkpt lat="-27.2744561" lon="151.290201">
  <ele>359.19</ele>
  <time>2026-09-01T19:53:52Z</time>
  <course>202.36</course>
  <speed>0.83</speed>
  <fix>3d</fix>
</trkpt>
<trkpt lat="-27.2744582" lon="151.2902">
  <ele>359.38</ele>
  <time>2026-09-01T19:53:52Z</time>
  <course>108.75</course>
  <speed>0.7702596964660685</speed>
  <fix>3d</fix>
</trkpt>
<trkpt lat="-27.2744561" lon="151.290201">
  <ele>359.19</ele>
  <time>2026-09-01T19:53:52Z</time>
  <course>202.36</course>
  <speed>0.83</speed>
  <fix>3d</fix>
</trkpt>
<trkpt lat="-27.2744587" lon="151.2901996">
  <ele>359.44</ele>
  <time>2026-09-01T19:53:52Z</time>
  <course>108.66</course>
  <speed>0.7357309290766564</speed>
  <fix>3d</fix>
</trkpt>
<trkpt lat="-27.2744574" lon="151.2902003">
  <ele>359.31</ele>
  <time>2026-09-01T19:53:52Z</time>
  <course>207.7</course>
  <speed>0.8</speed>
  <fix>3d</fix>
</trkpt>
<trkpt lat="-27.2744593" lon="151.2901992">
  <ele>359.49</ele>
  <time>2026-09-01T19:53:52Z</time>
  <course>108.56</course>
  <speed>0.7049113419430842</speed>
  <fix>3d</fix>
</trkpt>
<trkpt lat="-27.2744574" lon="151.2902003">
  <ele>359.31</ele>
  <time>2026-09-01T19:53:52Z</time>
  <course>207.7</course>
  <speed>0.8</speed>
  <fix>3d</fix>
</trkpt>
<trkpt lat="-27.2744598" lon="151.2901987">
  <ele>359.54</ele>
  <time>2026-09-01T19:53:52Z</time>
  <course>108.44</course>
  <speed>0.6657326790837296</speed>
  <fix>3d</fix>
</trkpt>
<trkpt lat="-27.2744587" lon="151.2901996">
  <ele>359.43</ele>
  <time>2026-09-01T19:53:52Z</time>
  <course>210.9</course>
  <speed>0.74</speed>
  <fix>3d</fix>
</trkpt>
<trkpt lat="-27.2744603" lon="151.2901985">
  <ele>359.57</ele>
  <time>2026-09-01T19:53:52Z</time>
  <course>108.28</course>
  <speed>0.6212889826803627</speed>
  <fix>3d</fix>
</trkpt>
<trkpt lat="-27.2744587" lon="151.2901996">
  <ele>359.43</ele>
  <time>2026-09-01T19:53:52Z</time>
  <course>210.9</course>
  <speed>0.74</speed>
  <fix>3d</fix>
</trkpt>
<trkpt lat="-27.2744608" lon="151.2901981">
  <ele>359.59</ele>
  <time>2026-09-01T19:53:52Z</time>
  <course>108.09</course>
  <speed>0.5714017850864661</speed>
  <fix>3d</fix>
</trkpt>
<trkpt lat="-27.2744598" lon="151.2901988">
  <ele>359.53</ele>
  <time>2026-09-01T19:53:52Z</time>
  <course>212.53</course>
  <speed>0.67</speed>
  <fix>3d</fix>
</trkpt>
<trkpt lat="-27.2744612" lon="151.2901977">
  <ele>359.6</ele>
  <time>2026-09-01T19:53:52Z</time>
  <course>107.85</course>
  <speed>0.524785670536077</speed>
  <fix>3d</fix>
</trkpt>
<trkpt lat="-27.2744598" lon="151.2901988">
  <ele>359.53</ele>
  <time>2026-09-01T19:53:52Z</time>
  <course>212.53</course>
  <speed>0.67</speed>
  <fix>3d</fix>
</trkpt>
<trkpt lat="-27.2744616" lon="151.2901976">
  <ele>359.6</ele>
  <time>2026-09-01T19:53:52Z</time>
  <course>107.59</course>
  <speed>0.4606517122512408</speed>
  <fix>3d</fix>
</trkpt>
<trkpt lat="-27.2744607" lon="151.2901981">
  <ele>359.58</ele>
  <time>2026-09-01T19:53:52Z</time>
  <course>212.06</course>
  <speed>0.57</speed>
  <fix>3d</fix>
</trkpt>
<trkpt lat="-27.2744619" lon="151.2901973">
  <ele>359.6</ele>
  <time>2026-09-01T19:53:52Z</time>
  <course>107.31</course>
  <speed>0.40718546143004664</speed>
  <fix>3d</fix>
</trkpt>
<trkpt lat="-27.2744607" lon="151.2901981">
  <ele>359.58</ele>
  <time>2026-09-01T19:53:52Z</time>
  <course>212.06</course>
  <speed>0.57</speed>
  <fix>3d</fix>
</trkpt>
<trkpt lat="-27.2744623" lon="151.2901972">
  <ele>359.59</ele>
  <time>2026-09-01T19:53:52Z</time>
  <course>107.05</course>
  <speed>0.354682957019364</speed>
  <fix>3d</fix>
</trkpt>
<trkpt lat="-27.2744615" lon="151.2901976">
  <ele>359.6</ele>
  <time>2026-09-01T19:53:52Z</time>
  <course>208.51</course>
  <speed>0.47</speed>
  <fix>3d</fix>
</trkpt>
<trkpt lat="-27.2744625" lon="151.2901971">
  <ele>359.57</ele>
  <time>2026-09-01T19:53:52Z</time>
  <course>106.81</course>
  <speed>0.29410882339705485</speed>
  <fix>3d</fix>
</trkpt>
<trkpt lat="-27.2744615" lon="151.2901976">
  <ele>359.6</ele>
  <time>2026-09-01T19:53:52Z</time>
  <course>208.51</course>
  <speed>0.47</speed>
  <fix>3d</fix>
</trkpt>
<trkpt lat="-27.2744628" lon="151.290197">
  <ele>359.55</ele>
  <time>2026-09-01T19:53:52Z</time>
  <course>106.61</course>
  <speed>0.24331050121192876</speed>
  <fix>3d</fix>
</trkpt>
<trkpt lat="-27.2744622" lon="151.2901972">
  <ele>359.58</ele>
  <time>2026-09-01T19:53:52Z</time>
  <course>202.27</course>
  <speed>0.35</speed>
  <fix>3d</fix>
</trkpt>
<trkpt lat="-27.274463" lon="151.290197">
  <ele>359.53</ele>
  <time>2026-09-01T19:53:52Z</time>
  <course>106.45</course>
  <speed>0.2002498439450079</speed>
  <fix>3d</fix>
</trkpt>
<trkpt lat="-27.2744622" lon="151.2901972">
  <ele>359.58</ele>
  <time>2026-09-01T19:53:52Z</time>
  <course>202.27</course>
  <speed>0.35</speed>
  <fix>3d</fix>
</trkpt>
<trkpt lat="-27.2744631" lon="151.2901971">
  <ele>359.5</ele>
  <time>2026-09-01T19:53:52Z</time>
  <course>106.33</course>
  <speed>0.17464249196572978</speed>
  <fix>3d</fix>
</trkpt>
<trkpt lat="-27.2744627" lon="151.290197">
  <ele>359.55</ele>
  <time>2026-09-01T19:53:52Z</time>
  <course>189.54</course>
  <speed>0.25</speed>
  <fix>3d</fix>
</trkpt>
<trkpt lat="-27.2744633" lon="151.2901972">
  <ele>359.48</ele>
  <time>2026-09-01T19:53:52Z</time>
  <course>106.25</course>
  <speed>0.1769180601295413</speed>
  <fix>3d</fix>
</trkpt>
<trkpt lat="-27.2744627" lon="151.290197">
  <ele>359.55</ele>
  <time>2026-09-01T19:53:52Z</time>
  <course>189.54</course>
  <speed>0.25</speed>
  <fix>3d</fix>
</trkpt>
<trkpt lat="-27.2744634" lon="151.2901973">
  <ele>359.46</ele>
  <time>2026-09-01T19:53:52Z</time>
  <course>106.22</course>
  <speed>0.2193171219946131</speed>
  <fix>3d</fix>
</trkpt>
<trkpt lat="-27.2744631" lon="151.2901971">
  <ele>359.5</ele>
  <time>2026-09-01T19:53:52Z</time>
  <course>156.11</course>
  <speed>0.18</speed>
  <fix>3d</fix>
</trkpt>
<trkpt lat="-27.2744634" lon="151.2901975">
  <ele>359.44</ele>
  <time>2026-09-01T19:53:52Z</time>
  <course>106.21</course>
  <speed>0.28442925306655786</speed>
  <fix>3d</fix>
</trkpt>
<trkpt lat="-27.2744631" lon="151.2901971">
  <ele>359.5</ele>
  <time>2026-09-01T19:53:52Z</time>
  <course>156.11</course>
  <speed>0.18</speed>
  <fix>3d</fix>
</trkpt>
<trkpt lat="-27.2744635" lon="151.2901977">
  <ele>359.42</ele>
  <time>2026-09-01T19:53:52Z</time>
  <course>106.23</course>
  <speed>0.3505709628591621</speed>
  <fix>3d</fix>
</trkpt>
<trkpt lat="-27.2744633" lon="151.2901973">
  <ele>359.46</ele>
  <time>2026-09-01T19:53:52Z</time>
  <course>114.36</course>
  <speed>0.22</speed>
  <fix>3d</fix>
</trkpt>
<trkpt lat="-27.2744635" lon="151.2901982">
  <ele>359.41</ele>
  <time>2026-09-01T19:53:52Z</time>
  <course>106.25</course>
  <speed>0.43</speed>
  <fix>3d</fix>
</trkpt>
<trkpt lat="-27.2744633" lon="151.2901973">
  <ele>359.46</ele>
  <time>2026-09-01T19:53:52Z</time>
  <course>114.36</course>
  <speed>0.22</speed>
  <fix>3d</fix>
</trkpt>
<trkpt lat="-27.2744635" lon="151.2901987">
  <ele>359.41</ele>
  <time>2026-09-01T19:53:52Z</time>
  <course>106.28</course>
  <speed>0.5103920062069939</speed>
  <fix>3d</fix>
</trkpt>
<trkpt lat="-27.2744634" lon="151.2901978">
  <ele>359.42</ele>
  <time>2026-09-01T19:53:52Z</time>
  <course>95.06</course>
  <speed>0.35</speed>
  <fix>3d</fix>
</trkpt>
<trkpt lat="-27.2744635" lon="151.2901992">
  <ele>359.4</ele>
  <time>2026-09-01T19:53:52Z</time>
  <course>106.3</course>
  <speed>0.5913543776789008</speed>
  <fix>3d</fix>
</trkpt>
<trkpt lat="-27.2744634" lon="151.2901978">
  <ele>359.42</ele>
  <time>2026-09-01T19:53:52Z</time>
  <course>95.06</course>
  <speed>0.35</speed>
  <fix>3d</fix>
</trkpt>
<trkpt lat="-27.2744635" lon="151.2901999">
  <ele>359.4</ele>
  <time>2026-09-01T19:53:52Z</time>
  <course>106.32</course>
  <speed>0.6627216610312356</speed>
  <fix>3d</fix>
</trkpt>
<trkpt lat="-27.2744635" lon="151.2901987">
  <ele>359.4</ele>
  <time>2026-09-01T19:53:52Z</time>
  <course>87.74</course>
  <speed>0.51</speed>
  <fix>3d</fix>
</trkpt>
<trkpt lat="-27.2744634" lon="151.2902006">
  <ele>359.41</ele>
  <time>2026-09-01T19:53:52Z</time>
  <course>106.32</course>
  <speed>0.7433034373659253</speed>
  <fix>3d</fix>
</trkpt>
<trkpt lat="-27.2744635" lon="151.2901987">
  <ele>359.4</ele>
  <time>2026-09-01T19:53:52Z</time>
  <course>87.74</course>
  <speed>0.51</speed>
  <fix>3d</fix>
</trkpt>
<trkpt lat="-27.2744634" lon="151.2902014">
  <ele>359.41</ele>
  <time>2026-09-01T19:53:52Z</time>
  <course>106.3</course>
  <speed>0.8149846624323674</speed>
  <fix>3d</fix>
</trkpt>
<trkpt lat="-27.2744634" lon="151.2901999">
  <ele>359.4</ele>
  <time>2026-09-01T19:53:52Z</time>
  <course>84.82</course>
  <speed>0.66</speed>
  <fix>3d</fix>
</trkpt>
<trkpt lat="-27.2744633" lon="151.2902023">
  <ele>359.42</ele>
  <time>2026-09-01T19:53:52Z</time>
  <course>106.27</course>
  <speed>0.8856635930193812</speed>
  <fix>3d</fix>
</trkpt>
<trkpt lat="-27.2744634" lon="151.2901999">
  <ele>359.4</ele>
  <time>2026-09-01T19:53:52Z</time>
  <course>84.82</course>
  <speed>0.66</speed>
  <fix>3d</fix>
</trkpt>
<trkpt lat="-27.2744632" lon="151.2902031">
  <ele>359.43</ele>
  <time>2026-09-01T19:53:52Z</time>
  <course>106.22</course>
  <speed>0.95524865872714</speed>
  <fix>3d</fix>
</trkpt>
<trkpt lat="-27.2744633" lon="151.2902014">
  <ele>359.41</ele>
  <time>2026-09-01T19:53:52Z</time>
  <course>83.73</course>
  <speed>0.81</speed>
  <fix>3d</fix>
</trkpt>
<trkpt lat="-27.2744631" lon="151.2902042">
  <ele>359.44</ele>
  <time>2026-09-01T19:53:52Z</time>
  <course>106.17</course>
  <speed>1.0159724405711013</speed>
  <fix>3d</fix>
</trkpt>
<trkpt lat="-27.2744633" lon="151.2902014">
  <ele>359.41</ele>
  <time>2026-09-01T19:53:52Z</time>
  <course>83.73</course>
  <speed>0.81</speed>
  <fix>3d</fix>
</trkpt>
<trkpt lat="-27.274463" lon="151.2902052">
  <ele>359.45</ele>
  <time>2026-09-01T19:53:52Z</time>
  <course>106.11</course>
  <speed>1.0756393447619885</speed>
  <fix>3d</fix>
</trkpt>
<trkpt lat="-27.2744632" lon="151.2902032">
  <ele>359.43</ele>
  <time>2026-09-01T19:53:52Z</time>
  <course>83.57</course>
  <speed>0.95</speed>
  <fix>3d</fix>
</trkpt>
<trkpt lat="-27.2744629" lon="151.2902063">
  <ele>359.45</ele>
  <time>2026-09-01T19:53:52Z</time>
  <course>106.04</course>
  <speed>1.1253888216967503</speed>
  <fix>3d</fix>
</trkpt>
<trkpt lat="-27.2744632" lon="151.2902032">
  <ele>359.43</ele>
  <time>2026-09-01T19:53:52Z</time>
  <course>83.57</course>
  <speed>0.95</speed>
  <fix>3d</fix>
</trkpt>
<trkpt lat="-27.2744628" lon="151.2902074">
  <ele>359.46</ele>
  <time>2026-09-01T19:53:52Z</time>
  <course>105.97</course>
  <speed>1.175159563633807</speed>
  <fix>3d</fix>
</trkpt>
<trkpt lat="-27.274463" lon="151.2902052">
  <ele>359.44</ele>
  <time>2026-09-01T19:53:52Z</time>
  <course>83.92</course>
  <speed>1.07</speed>
  <fix>3d</fix>
</trkpt>
<trkpt lat="-27.2744627" lon="151.2902087">
  <ele>359.46</ele>
  <time>2026-09-01T19:53:52Z</time>
  <course>105.9</course>
  <speed>1.2240914998479484</speed>
  <fix>3d</fix>
</trkpt>
<trkpt lat="-27.274463" lon="151.2902052">
  <ele>359.44</ele>
  <time>2026-09-01T19:53:52Z</time>
  <course>83.92</course>
  <speed>1.07</speed>
  <fix>3d</fix>
</trkpt>
<trkpt lat="-27.2744626" lon="151.29021">
  <ele>359.47</ele>
  <time>2026-09-01T19:53:52Z</time>
  <course>105.84</course>
  <speed>1.2632101962856381</speed>
  <fix>3d</fix>
</trkpt>
<trkpt lat="-27.2744628" lon="151.2902075">
  <ele>359.45</ele>
  <time>2026-09-01T19:53:52Z</time>
  <course>84.6</course>
  <speed>1.17</speed>
  <fix>3d</fix>
</trkpt>
<trkpt lat="-27.2744625" lon="151.2902112">
  <ele>359.47</ele>
  <time>2026-09-01T19:53:52Z</time>
  <course>105.8</course>
  <speed>1.2931357237351384</speed>
  <fix>3d</fix>
</trkpt>
<trkpt lat="-27.2744628" lon="151.2902075">
  <ele>359.45</ele>
  <time>2026-09-01T19:53:52Z</time>
  <course>84.6</course>
  <speed>1.17</speed>
  <fix>3d</fix>
</trkpt>
<trkpt lat="-27.2744624" lon="151.2902126">
  <ele>359.47</ele>
  <time>2026-09-01T19:53:52Z</time>
  <course>105.76</course>
  <speed>1.3318408313308314</speed>
  <fix>3d</fix>
</trkpt>
<trkpt lat="-27.2744626" lon="151.2902099">
  <ele>359.46</ele>
  <time>2026-09-01T19:53:52Z</time>
  <course>85.5</course>
  <speed>1.26</speed>
  <fix>3d</fix>
</trkpt>
<trkpt lat="-27.2744624" lon="151.290214">
  <ele>359.47</ele>
  <time>2026-09-01T19:53:52Z</time>
  <course>105.73</course>
  <speed>1.351332675546625</speed>
  <fix>3d</fix>
</trkpt>
<trkpt lat="-27.2744626" lon="151.2902099">
  <ele>359.46</ele>
  <time>2026-09-01T19:53:52Z</time>
  <course>85.5</course>
  <speed>1.26</speed>
  <fix>3d</fix>
</trkpt>
<trkpt lat="-27.2744623" lon="151.2902154">
  <ele>359.47</ele>
  <time>2026-09-01T19:53:52Z</time>
  <course>105.72</course>
  <speed>1.3709121051329294</speed>
  <fix>3d</fix>
</trkpt>
<trkpt lat="-27.2744624" lon="151.2902125">
  <ele>359.47</ele>
  <time>2026-09-01T19:53:52Z</time>
  <course>86.57</course>
  <speed>1.32</speed>
  <fix>3d</fix>
</trkpt>
<trkpt lat="-27.2744623" lon="151.2902168">
  <ele>359.47</ele>
  <time>2026-09-01T19:53:52Z</time>
  <course>105.71</course>
  <speed>1.3803260484392808</speed>
  <fix>3d</fix>
</trkpt>
<trkpt lat="-27.2744624" lon="151.2902125">
  <ele>359.47</ele>
  <time>2026-09-01T19:53:52Z</time>
  <course>86.57</course>
  <speed>1.32</speed>
  <fix>3d</fix>
</trkpt>
<trkpt lat="-27.2744622" lon="151.2902182">
  <ele>359.46</ele>
  <time>2026-09-01T19:53:52Z</time>
  <course>105.71</course>
  <speed>1.3901438774457844</speed>
  <fix>3d</fix>
</trkpt>
<trkpt lat="-27.2744623" lon="151.2902153">
  <ele>359.47</ele>
  <time>2026-09-01T19:53:52Z</time>
  <course>87.75</course>
  <speed>1.37</speed>
  <fix>3d</fix>
</trkpt>
<trkpt lat="-27.2744622" lon="151.2902196">
  <ele>359.45</ele>
  <time>2026-09-01T19:53:52Z</time>
  <course>105.71</course>
  <speed>1.4</speed>
  <fix>3d</fix>
</trkpt>
<trkpt lat="-27.2744623" lon="151.2902153">
  <ele>359.47</ele>
  <time>2026-09-01T19:53:52Z</time>
  <course>87.75</course>
  <speed>1.37</speed>
  <fix>3d</fix>
</trkpt>
<trkpt lat="-27.2744622" lon="151.290221">
  <ele>359.43</ele>
  <time>2026-09-01T19:53:52Z</time>
  <course>105.7</course>
  <speed>1.4</speed>
  <fix>3d</fix>
</trkpt>
<trkpt lat="-27.2744622" lon="151.2902181">
  <ele>359.46</ele>
  <time>2026-09-01T19:53:52Z</time>
  <course>89.01</course>
  <speed>1.39</speed>
  <fix>3d</fix>
</trkpt>
<trkpt lat="-27.2744622" lon="151.2902224">
  <ele>359.4</ele>
  <time>2026-09-01T19:53:52Z</time>
  <course>105.69</course>
  <speed>1.3901438774457844</speed>
  <fix>3d</fix>
</trkpt>
<trkpt lat="-27.2744622" lon="151.2902181">
  <ele>359.46</ele>
  <time>2026-09-01T19:53:52Z</time>
  <course>89.01</course>
  <speed>1.39</speed>
  <fix>3d</fix>
</trkpt>
<trkpt lat="-27.2744622" lon="151.2902238">
  <ele>359.37</ele>
  <time>2026-09-01T19:53:52Z</time>
  <course>105.68</course>
  <speed>1.3805795884337855</speed>
  <fix>3d</fix>
</trkpt>
<trkpt lat="-27.2744622" lon="151.2902209">
  <ele>359.43</ele>
  <time>2026-09-01T19:53:52Z</time>
  <course>90.35</course>
  <speed>1.39</speed>
  <fix>3d</fix>
</trkpt>
<trkpt lat="-27.2744622" lon="151.2902251">
  <ele>359.34</ele>
  <time>2026-09-01T19:53:52Z</time>
  <course>105.67</course>
  <speed>1.3713132391981053</speed>
  <fix>3d</fix>
</trkpt>
<trkpt lat="-27.2744622" lon="151.2902209">
  <ele>359.43</ele>
  <time>2026-09-01T19:53:52Z</time>
  <course>90.35</course>
  <speed>1.39</speed>
  <fix>3d</fix>
</trkpt>
<trkpt lat="-27.2744623" lon="151.2902265">
  <ele>359.29</ele>
  <time>2026-09-01T19:53:52Z</time>
  <course>105.67</course>
  <speed>1.3623509092741122</speed>
  <fix>3d</fix>
</trkpt>
<trkpt lat="-27.2744622" lon="151.2902236">
  <ele>359.37</ele>
  <time>2026-09-01T19:53:52Z</time>
  <course>91.81</course>
  <speed>1.38</speed>
  <fix>3d</fix>
</trkpt>
<trkpt lat="-27.2744624" lon="151.2902279">
  <ele>359.24</ele>
  <time>2026-09-01T19:53:52Z</time>
  <course>105.67</course>
  <speed>1.343726162579266</speed>
  <fix>3d</fix>
</trkpt>
<trkpt lat="-27.2744622" lon="151.2902236">
  <ele>359.37</ele>
  <time>2026-09-01T19:53:52Z</time>
  <course>91.81</course>
  <speed>1.38</speed>
  <fix>3d</fix>
</trkpt>
<trkpt lat="-27.2744625" lon="151.2902293">
  <ele>359.19</ele>
  <time>2026-09-01T19:53:52Z</time>
  <course>105.68</course>
  <speed>1.3154847015454039</speed>
  <fix>3d</fix>
</trkpt>
<trkpt lat="-27.2744622" lon="151.2902265">
  <ele>359.28</ele>
  <time>2026-09-01T19:53:52Z</time>
  <course>93.44</course>
  <speed>1.36</speed>
  <fix>3d</fix>
</trkpt>
<trkpt lat="-27.2744626" lon="151.2902306">
  <ele>359.13</ele>
  <time>2026-09-01T19:53:52Z</time>
  <course>105.71</course>
  <speed>1.2876334882255898</speed>
  <fix>3d</fix>
</trkpt>
<trkpt lat="-27.2744622" lon="151.2902265">
  <ele>359.28</ele>
  <time>2026-09-01T19:53:52Z</time>
  <course>93.44</course>
  <speed>1.36</speed>
  <fix>3d</fix>
</trkpt>
<trkpt lat="-27.2744627" lon="151.2902318">
  <ele>359.07</ele>
  <time>2026-09-01T19:53:52Z</time>
  <course>105.73</course>
  <speed>1.239112585683803</speed>
  <fix>3d</fix>
</trkpt>
<trkpt lat="-27.2744625" lon="151.2902292">
  <ele>359.18</ele>
  <time>2026-09-01T19:53:52Z</time>
  <course>95.25</course>
  <speed>1.31</speed>
  <fix>3d</fix>
</trkpt>
<trkpt lat="-27.2744629" lon="151.2902331">
  <ele>359.01</ele>
  <time>2026-09-01T19:53:52Z</time>
  <course>105.77</course>
  <speed>1.1921828718783036</speed>
  <fix>3d</fix>
</trkpt>
<trkpt lat="-27.2744625" lon="151.2902292">
  <ele>359.18</ele>
  <time>2026-09-01T19:53:52Z</time>
  <course>95.25</course>
  <speed>1.31</speed>
  <fix>3d</fix>
</trkpt>
<trkpt lat="-27.274463" lon="151.2902342">
  <ele>358.94</ele>
  <time>2026-09-01T19:53:52Z</time>
  <course>105.8</course>
  <speed>1.1343720729989786</speed>
  <fix>3d</fix>
</trkpt>
<trkpt lat="-27.2744627" lon="151.2902318">
  <ele>359.07</ele>
  <time>2026-09-01T19:53:52Z</time>
  <course>97.17</course>
  <speed>1.24</speed>
  <fix>3d</fix>
</trkpt>
<trkpt lat="-27.2744632" lon="151.2902354">
  <ele>358.88</ele>
  <time>2026-09-01T19:53:52Z</time>
  <course>105.84</course>
  <speed>1.0806016842481785</speed>
  <fix>3d</fix>
</trkpt>
<trkpt lat="-27.2744627" lon="151.2902318">
  <ele>359.07</ele>
  <time>2026-09-01T19:53:52Z</time>
  <course>97.17</course>
  <speed>1.24</speed>
  <fix>3d</fix>
</trkpt>
<trkpt lat="-27.2744634" lon="151.2902365">
  <ele>358.81</ele>
  <time>2026-09-01T19:53:52Z</time>
  <course>105.89</course>
  <speed>1.0283968105745953</speed>
  <fix>3d</fix>
</trkpt>
<trkpt lat="-27.274463" lon="151.2902341">
  <ele>358.94</ele>
  <time>2026-09-01T19:53:52Z</time>
  <course>99.62</course>
  <speed>1.14</speed>
  <fix>3d</fix>
</trkpt>
<trkpt lat="-27.2744637" lon="151.2902374">
  <ele>358.75</ele>
  <time>2026-09-01T19:53:52Z</time>
  <course>105.97</course>
  <speed>0.9837174391053561</speed>
  <fix>3d</fix>
</trkpt>
<trkpt lat="-27.274463" lon="151.2902341">
  <ele>358.94</ele>
  <time>2026-09-01T19:53:52Z</time>
  <course>99.62</course>
  <speed>1.14</speed>
  <fix>3d</fix>
</trkpt>
<trkpt lat="-27.2744639" lon="151.2902384">
  <ele>358.69</ele>
  <time>2026-09-01T19:53:52Z</time>
  <course>106.08</course>
  <speed>0.9340770846134703</speed>
  <fix>3d</fix>
</trkpt>
<trkpt lat="-27.2744634" lon="151.2902363">
  <ele>358.81</ele>
  <time>2026-09-01T19:53:52Z</time>
  <course>104.07</course>
  <speed>1.03</speed>
  <fix>3d</fix>
</trkpt>
<trkpt lat="-27.2744643" lon="151.2902392">
  <ele>358.63</ele>
  <time>2026-09-01T19:53:52Z</time>
  <course>106.19</course>
  <speed>0.8947066558375433</speed>
  <fix>3d</fix>
</trkpt>
<trkpt lat="-27.2744634" lon="151.2902363">
  <ele>358.81</ele>
  <time>2026-09-01T19:53:52Z</time>
  <course>104.07</course>
  <speed>1.03</speed>
  <fix>3d</fix>
</trkpt>
<trkpt lat="-27.2744646" lon="151.2902399">
  <ele>358.58</ele>
  <time>2026-09-01T19:53:52Z</time>
  <course>106.27</course>
  <speed>0.8372574275573791</speed>
  <fix>3d</fix>
</trkpt>
<trkpt lat="-27.2744639" lon="151.2902383">
  <ele>358.69</ele>
  <time>2026-09-01T19:53:52Z</time>
  <course>111.07</course>
  <speed>0.94</speed>
  <fix>3d</fix>
</trkpt>
<trkpt lat="-27.274465" lon="151.2902407">
  <ele>358.53</ele>
  <time>2026-09-01T19:53:52Z</time>
  <course>106.32</course>
  <speed>0.7738862965578341</speed>
  <fix>3d</fix>
</trkpt>
<trkpt lat="-27.2744639" lon="151.2902383">
  <ele>358.69</ele>
  <time>2026-09-01T19:53:52Z</time>
  <course>111.07</course>
  <speed>0.94</speed>
  <fix>3d</fix>
</trkpt>
<trkpt lat="-27.2744654" lon="151.2902413">
  <ele>358.48</ele>
  <time>2026-09-01T19:53:52Z</time>
  <course>106.34</course>
  <speed>0.7</speed>
  <fix>3d</fix>
</trkpt>
<trkpt lat="-27.2744646" lon="151.2902399">
  <ele>358.58</ele>
  <time>2026-09-01T19:53:52Z</time>
  <course>118.9</course>
  <speed>0.84</speed>
  <fix>3d</fix>
</trkpt>
<trkpt lat="-27.2744658" lon="151.2902418">
  <ele>358.43</ele>
  <time>2026-09-01T19:53:52Z</time>
  <course>106.32</course>
  <speed>0.637808748764079</speed>
  <fix>3d</fix>
</trkpt>
<trkpt lat="-27.2744646" lon="151.2902399">
  <ele>358.58</ele>
  <time>2026-09-01T19:53:52Z</time>
  <course>118.9</course>
  <speed>0.84</speed>
  <fix>3d</fix>
</trkpt>
<trkpt lat="-27.2744662" lon="151.2902423">
  <ele>358.39</ele>
  <time>2026-09-01T19:53:52Z</time>
  <course>106.29</course>
  <speed>0.5586591089385369</speed>
  <fix>3d</fix>
</trkpt>
<trkpt lat="-27.2744653" lon="151.2902412">
  <ele>358.47</ele>
  <time>2026-09-01T19:53:52Z</time>
  <course>126.63</course>
  <speed>0.71</speed>
  <fix>3d</fix>
</trkpt>
<trkpt lat="-27.2744665" lon="151.2902426">
  <ele>358.34</ele>
  <time>2026-09-01T19:53:52Z</time>
  <course>106.24</course>
  <speed>0.498196748283246</speed>
  <fix>3d</fix>
</trkpt>
<trkpt lat="-27.2744653" lon="151.2902412">
  <ele>358.47</ele>
  <time>2026-09-01T19:53:52Z</time>
  <course>126.63</course>
  <speed>0.71</speed>
  <fix>3d</fix>
</trkpt>
<trkpt lat="-27.2744669" lon="151.2902428">
  <ele>358.3</ele>
  <time>2026-09-01T19:53:52Z</time>
  <course>106.2</course>
  <speed>0.4356604182158393</speed>
  <fix>3d</fix>
</trkpt>
<trkpt lat="-27.2744661" lon="151.2902422">
  <ele>358.39</ele>
  <time>2026-09-01T19:53:52Z</time>
  <course>135.43</course>
  <speed>0.57</speed>
  <fix>3d</fix>
</trkpt>
<trkpt lat="-27.2744672" lon="151.2902431">
  <ele>358.26</ele>
  <time>2026-09-01T19:53:52Z</time>
  <course>106.16</course>
  <speed>0.38078865529319544</speed>
  <fix>3d</fix>
</trkpt>
<trkpt lat="-27.2744661" lon="151.2902422">
  <ele>358.39</ele>
  <time>2026-09-01T19:53:52Z</time>
  <course>135.43</course>
  <speed>0.57</speed>
  <fix>3d</fix>
</trkpt>
<trkpt lat="-27.2744675" lon="151.2902432">
  <ele>358.22</ele>
  <time>2026-09-01T19:53:52Z</time>
  <course>106.12</course>
  <speed>0.33734255586865997</speed>
  <fix>3d</fix>
</trkpt>
<trkpt lat="-27.2744668" lon="151.2902428">
  <ele>358.3</ele>
  <time>2026-09-01T19:53:52Z</time>
  <course>147.56</course>
  <speed>0.44</speed>
  <fix>3d</fix>
</trkpt>
<trkpt lat="-27.2744678" lon="151.2902432">
  <ele>358.18</ele>
  <time>2026-09-01T19:53:52Z</time>
  <course>106.09</course>
  <speed>0.31</speed>
  <fix>3d</fix>
</trkpt>
<trkpt lat="-27.2744668" lon="151.2902428">
  <ele>358.3</ele>
  <time>2026-09-01T19:53:52Z</time>
  <course>147.56</course>
  <speed>0.44</speed>
  <fix>3d</fix>
</trkpt>
<trkpt lat="-27.2744681" lon="151.2902432">
  <ele>358.13</ele>
  <time>2026-09-01T19:53:52Z</time>
  <course>106.07</course>
  <speed>0.2942787793912432</speed>
  <fix>3d</fix>
</trkpt>
<trkpt lat="-27.2744675" lon="151.2902432">
  <ele>358.22</ele>
  <time>2026-09-01T19:53:52Z</time>
  <course>165.61</course>
  <speed>0.34</speed>
  <fix>3d</fix>
</trkpt>
<trkpt lat="-27.2744683" lon="151.2902432">
  <ele>358.09</ele>
  <time>2026-09-01T19:53:52Z</time>
  <course>106.07</course>
  <speed>0.291547594742265</speed>
  <fix>3d</fix>
</trkpt>
<trkpt lat="-27.2744675" lon="151.2902432">
  <ele>358.22</ele>
  <time>2026-09-01T19:53:52Z</time>
  <course>165.61</course>
  <speed>0.34</speed>
  <fix>3d</fix>
</trkpt>
<trkpt lat="-27.2744686" lon="151.290243">
  <ele>358.05</ele>
  <time>2026-09-01T19:53:52Z</time>
  <course>106.08</course>
  <speed>0.3023243291566195</speed>
  <fix>3d</fix>
</trkpt>
<trkpt lat="-27.274468" lon="151.2902432">
  <ele>358.13</ele>
  <time>2026-09-01T19:53:52Z</time>
  <course>189.6</course>
  <speed>0.29</speed>
  <fix>3d</fix>
</trkpt>
<trkpt lat="-27.2744688" lon="151.2902428">
  <ele>358.0</ele>
  <time>2026-09-01T19:53:52Z</time>
  <course>106.1</course>
  <speed>0.31827660925679097</speed>
  <fix>3d</fix>
</trkpt>
<trkpt lat="-27.274468" lon="151.2902432">
  <ele>358.13</ele>
  <time>2026-09-01T19:53:52Z</time>
  <course>189.6</course>
  <speed>0.29</speed>
  <fix>3d</fix>
</trkpt>
<trkpt lat="-27.274469" lon="151.2902427">
  <ele>357.96</ele>
  <time>2026-09-01T19:53:52Z</time>
  <course>106.14</course>
  <speed>0.33421549934136807</speed>
  <fix>3d</fix>
</trkpt>
<trkpt lat="-27.2744685" lon="151.290243">
  <ele>358.04</ele>
  <time>2026-09-01T19:53:52Z</time>
  <course>212.97</course>
  <speed>0.3</speed>
  <fix>3d</fix>
</trkpt>
<trkpt lat="-27.2744692" lon="151.2902423">
  <ele>357.91</ele>
  <time>2026-09-01T19:53:52Z</time>
  <course>106.19</course>
  <speed>0.35510561809129404</speed>
  <fix>3d</fix>
</trkpt>
<trkpt lat="-27.2744685" lon="151.290243">
  <ele>358.04</ele>
  <time>2026-09-01T19:53:52Z</time>
  <course>212.97</course>
  <speed>0.3</speed>
  <fix>3d</fix>
</trkpt>
<trkpt lat="-27.2744693" lon="151.290242">
  <ele>357.86</ele>
  <time>2026-09-01T19:53:52Z</time>
  <course>106.24</course>
  <speed>0.37589892258425</speed>
  <fix>3d</fix>
</trkpt>
<trkpt lat="-27.2744689" lon="151.2902426">
  <ele>357.95</ele>
  <time>2026-09-01T19:53:52Z</time>
  <course>229.98</course>
  <speed>0.34</speed>
  <fix>3d</fix>
</trkpt>
<trkpt lat="-27.2744695" lon="151.2902417">
  <ele>357.81</ele>
  <time>2026-09-01T19:53:52Z</time>
  <course>106.3</course>
  <speed>0.39395431207184417</speed>
  <fix>3d</fix>
</trkpt>
<trkpt lat="-27.2744689" lon="151.2902426">
  <ele>357.95</ele>
  <time>2026-09-01T19:53:52Z</time>
  <course>229.98</course>
  <speed>0.34</speed>
  <fix>3d</fix>
</trkpt>
<trkpt lat="-27.2744696" lon="151.2902413">
  <ele>357.76</ele>
  <time>2026-09-01T19:53:52Z</time>
  <course>106.36</course>
  <speed>0.4049691346263317</speed>
  <fix>3d</fix>
</trkpt>
<trkpt lat="-27.2744693" lon="151.290242">
  <ele>357.86</ele>
  <time>2026-09-01T19:53:52Z</time>
  <course>241.24</course>
  <speed>0.37</speed>
  <fix>3d</fix>
</trkpt>
<trkpt lat="-27.2744698" lon="151.2902408">
  <ele>357.71</ele>
  <time>2026-09-01T19:53:52Z</time>
  <course>106.42</course>
  <speed>0.417612260356422</speed>
  <fix>3d</fix>
</trkpt>
<trkpt lat="-27.2744693" lon="151.290242">
  <ele>357.86</ele>
  <time>2026-09-01T19:53:52Z</time>
  <course>241.24</course>
  <speed>0.37</speed>
  <fix>3d</fix>
</trkpt>
<trkpt lat="-27.2744699" lon="151.2902404">
  <ele>357.66</ele>
  <time>2026-09-01T19:53:52Z</time>
  <course>106.48</course>
  <speed>0.4341658669218482</speed>
  <fix>3d</fix>
</trkpt>
<trkpt lat="-27.2744696" lon="151.2902413">
  <ele>357.76</ele>
  <time>2026-09-01T19:53:52Z</time>
  <course>248.98</course>
  <speed>0.41</speed>
  <fix>3d</fix>
</trkpt>
<trkpt lat="-27.27447" lon="151.2902401">
  <ele>357.61</ele>
  <time>2026-09-01T19:53:52Z</time>
  <course>106.52</course>
  <speed>0.4393176527297759</speed>
  <fix>3d</fix>
</trkpt>
<trkpt lat="-27.2744696" lon="151.2902413">
  <ele>357.76</ele>
  <time>2026-09-01T19:53:52Z</time>
  <course>248.98</course>
  <speed>0.41</speed>
  <fix>3d</fix>
</trkpt>
<trkpt lat="-27.27447" lon="151.2902396">
  <ele>357.56</ele>
  <time>2026-09-01T19:53:52Z</time>
  <course>106.57</course>
  <speed>0.44553338819890925</speed>
  <fix>3d</fix>
</trkpt>
<trkpt lat="-27.2744699" lon="151.2902404">
  <ele>357.65</ele>
  <time>2026-09-01T19:53:52Z</time>
  <course>254.8</course>
  <speed>0.43</speed>
  <fix>3d</fix>
</trkpt>
<trkpt lat="-27.2744701" lon="151.2902392">
  <ele>357.5</ele>
  <time>2026-09-01T19:53:52Z</time>
  <course>106.6</course>
  <speed>0.4440720662234904</speed>
  <fix>3d</fix>
</trkpt>
<trkpt lat="-27.2744699" lon="151.2902404">
  <ele>357.65</ele>
  <time>2026-09-01T19:53:52Z</time>
  <course>254.8</course>
  <speed>0.43</speed>
  <fix>3d</fix>
</trkpt>
<trkpt lat="-27.2744702" lon="151.2902387">
  <ele>357.45</ele>
  <time>2026-09-01T19:53:52Z</time>
  <course>106.62</course>
  <speed>0.45177427992306074</speed>
  <fix>3d</fix>
</trkpt>
<trkpt lat="-27.27447" lon="151.2902396">
  <ele>357.56</ele>
  <time>2026-09-01T19:53:52Z</time>
  <course>259.59</course>
  <speed>0.44</speed>
  <fix>3d</fix>
</trkpt>
<trkpt lat="-27.2744702" lon="151.2902383">
  <ele>357.4</ele>
  <time>2026-09-01T19:53:52Z</time>
  <course>106.64</course>
  <speed>0.4509988913511872</speed>
  <fix>3d</fix>
</trkpt>
<trkpt lat="-27.27447" lon="151.2902396">
  <ele>357.56</ele>
  <time>2026-09-01T19:53:52Z</time>
  <course>259.59</course>
  <speed>0.44</speed>
  <fix>3d</fix>
</trkpt>
<trkpt lat="-27.2744702" lon="151.2902378">
  <ele>357.35</ele>
  <time>2026-09-01T19:53:52Z</time>
  <course>106.63</course>
  <speed>0.450111097397076</speed>
  <fix>3d</fix>
</trkpt>
<trkpt lat="-27.2744701" lon="151.2902387">
  <ele>357.45</ele>
  <time>2026-09-01T19:53:52Z</time>
  <course>263.83</course>
  <speed>0.45</speed>
  <fix>3d</fix>
</trkpt>
<trkpt lat="-27.2744702" lon="151.2902373">
  <ele>357.3</ele>
  <time>2026-09-01T19:53:52Z</time>
  <course>106.62</course>
  <speed>0.44</speed>
  <fix>3d</fix>
</trkpt>
<trkpt lat="-27.2744701" lon="151.2902387">
  <ele>357.45</ele>
  <time>2026-09-01T19:53:52Z</time>
  <course>263.83</course>
  <speed>0.45</speed>
  <fix>3d</fix>
</trkpt>
<trkpt lat="-27.2744702" lon="151.2902369">
  <ele>357.24</ele>
  <time>2026-09-01T19:53:52Z</time>
  <course>106.61</course>
  <speed>0.44011362169330775</speed>
  <fix>3d</fix>
</trkpt>
<trkpt lat="-27.2744702" lon="151.2902378">
  <ele>357.34</ele>
  <time>2026-09-01T19:53:52Z</time>
  <course>267.78</course>
  <speed>0.45</speed>
  <fix>3d</fix>
</trkpt>
<trkpt lat="-27.2744702" lon="151.2902364">
  <ele>357.19</ele>
  <time>2026-09-01T19:53:52Z</time>
  <course>106.59</course>
  <speed>0.4304648650006177</speed>
  <fix>3d</fix>
</trkpt>
<trkpt lat="-27.2744702" lon="151.2902378">
  <ele>357.34</ele>
  <time>2026-09-01T19:53:52Z</time>
  <course>267.78</course>
  <speed>0.45</speed>
  <fix>3d</fix>
</trkpt>
<trkpt lat="-27.2744702" lon="151.290236">
  <ele>357.14</ele>
  <time>2026-09-01T19:53:52Z</time>
  <course>106.57</course>
  <speed>0.4219004621945798</speed>
  <fix>3d</fix>
</trkpt>
<trkpt lat="-27.2744702" lon="151.2902369">
  <ele>357.25</ele>
  <time>2026-09-01T19:53:52Z</time>
  <course>271.6</course>
  <speed>0.44</speed>
  <fix>3d</fix>
</trkpt>
<trkpt lat="-27.2744701" lon="151.2902356">
  <ele>357.09</ele>
  <time>2026-09-01T19:53:52Z</time>
  <course>106.54</course>
  <speed>0.41303752856126763</speed>
  <fix>3d</fix>
</trkpt>
<trkpt lat="-27.2744702" lon="151.2902369">
  <ele>357.25</ele>
  <time>2026-09-01T19:53:52Z</time>
  <course>271.6</course>
  <speed>0.44</speed>
  <fix>3d</fix>
</trkpt>
<trkpt lat="-27.2744701" lon="151.2902351">
  <ele>357.04</ele>
  <time>2026-09-01T19:53:52Z</time>
  <course>106.51</course>
  <speed>0.4044749683231337</speed>
  <fix>3d</fix>
</trkpt>
<trkpt lat="-27.2744701" lon="151.290236">
  <ele>357.14</ele>
  <time>2026-09-01T19:53:52Z</time>
  <course>275.44</course>
  <speed>0.42</speed>
  <fix>3d</fix>
</trkpt>
<trkpt lat="-27.2744701" lon="151.2902347">
  <ele>356.99</ele>
  <time>2026-09-01T19:53:52Z</time>
  <course>106.47</course>
  <speed>0.39812058474788764</speed>
  <fix>3d</fix>
</trkpt>
<trkpt lat="-27.2744701" lon="151.290236">
  <ele>357.14</ele>
  <time>2026-09-01T19:53:52Z</time>
  <course>275.44</course>
  <speed>0.42</speed>
  <fix>3d</fix>
</trkpt>
<trkpt lat="-27.27447" lon="151.2902344">
  <ele>356.94</ele>
  <time>2026-09-01T19:53:52Z</time>
  <course>106.44</course>
  <speed>0.3905124837953327</speed>
  <fix>3d</fix>
</trkpt>
<trkpt lat="-27.2744701" lon="151.2902351">
  <ele>357.03</ele>
  <time>2026-09-01T19:53:52Z</time>
  <course>279.36</course>
  <speed>0.41</speed>
  <fix>3d</fix>
</trkpt>
<trkpt lat="-27.2744699" lon="151.290234">
  <ele>356.89</ele>
  <time>2026-09-01T19:53:52Z</time>
  <course>106.41</course>
  <speed>0.3736308338453881</speed>
  <fix>3d</fix>
</trkpt>
<trkpt lat="-27.2744701" lon="151.2902351">
  <ele>357.03</ele>
  <time>2026-09-01T19:53:52Z</time>
  <course>279.36</course>
  <speed>0.41</speed>
  <fix>3d</fix>
</trkpt>
<trkpt lat="-27.2744698" lon="151.2902336">
  <ele>356.84</ele>
  <time>2026-09-01T19:53:52Z</time>
  <course>106.3</course>
  <speed>0.3640054944640259</speed>
  <fix>3d</fix>
</trkpt>
<trkpt lat="-27.27447" lon="151.2902343">
  <ele>356.94</ele>
  <time>2026-09-01T19:53:52Z</time>
  <course>283.34</course>
  <speed>0.39</speed>
  <fix>3d</fix>
</trkpt>
<trkpt lat="-27.2744698" lon="151.2902332">
  <ele>356.79</ele>
  <time>2026-09-01T19:53:52Z</time>
  <course>106.01</course>
  <speed>0.35171010790137947</speed>
  <fix>3d</fix>
</trkpt>
<trkpt lat="-27.27447" lon="151.2902343">
  <ele>356.94</ele>
  <time>2026-09-01T19:53:52Z</time>
  <course>283.34</course>
  <speed>0.39</speed>
  <fix>3d</fix>
</trkpt>
<trkpt lat="-27.2744697" lon="151.2902329">
  <ele>356.74</ele>
  <time>2026-09-01T19:53:52Z</time>
  <course>105.61</course>
  <speed>0.3420526275297414</speed>
  <fix>3d</fix>
</trkpt>
<trkpt lat="-27.2744698" lon="151.2902336">
  <ele>356.84</ele>
  <time>2026-09-01T19:53:52Z</time>
  <course>285.58</course>
  <speed>0.37</speed>
  <fix>3d</fix>
</trkpt>
<trkpt lat="-27.2744696" lon="151.2902326">
  <ele>356.69</ele>
  <time>2026-09-01T19:53:52Z</time>
  <course>105.19</course>
  <speed>0.33241540277189324</speed>
  <fix>3d</fix>
</trkpt>
<trkpt lat="-27.2744698" lon="151.2902336">
  <ele>356.84</ele>
  <time>2026-09-01T19:53:52Z</time>
  <course>285.58</course>
  <speed>0.37</speed>
  <fix>3d</fix>
</trkpt>
<trkpt lat="-27.2744695" lon="151.2902322">
  <ele>356.64</ele>
  <time>2026-09-01T19:53:52Z</time>
  <course>104.8</course>
  <speed>0.32015621187164245</speed>
  <fix>3d</fix>
</trkpt>
<trkpt lat="-27.2744697" lon="151.2902329">
  <ele>356.74</ele>
  <time>2026-09-01T19:53:52Z</time>
  <course>285.73</course>
  <speed>0.34</speed>
  <fix>3d</fix>
</trkpt>
<trkpt lat="-27.2744694" lon="151.290232">
  <ele>356.59</ele>
  <time>2026-09-01T19:53:52Z</time>
  <course>104.51</course>
  <speed>0.30083217912982646</speed>
  <fix>3d</fix>
</trkpt>
<trkpt lat="-27.2744697" lon="151.2902329">
  <ele>356.74</ele>
  <time>2026-09-01T19:53:52Z</time>
  <course>285.73</course>
  <speed>0.34</speed>
  <fix>3d</fix>
</trkpt>
<trkpt lat="-27.2744694" lon="151.2902317">
  <ele>356.54</ele>
  <time>2026-09-01T19:53:52Z</time>
  <course>104.34</course>
  <speed>0.29120439557122074</speed>
  <fix>3d</fix>
</trkpt>
<trkpt lat="-27.2744695" lon="151.2902323">
  <ele>356.64</ele>
  <time>2026-09-01T19:53:52Z</time>
  <course>285.78</course>
  <speed>0.32</speed>
  <fix>3d</fix>
</trkpt>
<trkpt lat="-27.2744693" lon="151.2902313">
  <ele>356.49</ele>
  <time>2026-09-01T19:53:52Z</time>
  <course>104.28</course>
  <speed>0.2692582403567252</speed>
  <fix>3d</fix>
</trkpt>
<trkpt lat="-27.2744695" lon="151.2902323">
  <ele>356.64</ele>
  <time>2026-09-01T19:53:52Z</time>
  <course>285.78</course>
  <speed>0.32</speed>
  <fix>3d</fix>
</trkpt>
<trkpt lat="-27.2744692" lon="151.2902311">
  <ele>356.44</ele>
  <time>2026-09-01T19:53:52Z</time>
  <course>104.33</course>
  <speed>0.25</speed>
  <fix>3d</fix>
</trkpt>
<trkpt lat="-27.2744693" lon="151.2902317">
  <ele>356.53</ele>
  <time>2026-09-01T19:53:52Z</time>
  <course>286.13</course>
  <speed>0.29</speed>
  <fix>3d</fix>
</trkpt>
<trkpt lat="-27.2744691" lon="151.2902308">
  <ele>356.39</ele>
  <time>2026-09-01T19:53:52Z</time>
  <course>104.45</course>
  <speed>0.24041630560342614</speed>
  <fix>3d</fix>
</trkpt>
<trkpt lat="-27.2744693" lon="151.2902317">
  <ele>356.53</ele>
  <time>2026-09-01T19:53:52Z</time>
  <course>286.13</course>
  <speed>0.29</speed>
  <fix>3d</fix>
</trkpt>
<trkpt lat="-27.2744691" lon="151.2902307">
  <ele>356.34</ele>
  <time>2026-09-01T19:53:52Z</time>
  <course>104.61</course>
  <speed>0.21840329667841554</speed>
  <fix>3d</fix>
</trkpt>
<trkpt lat="-27.2744692" lon="151.2902311">
  <ele>356.44</ele>
  <time>2026-09-01T19:53:52Z</time>
  <course>286.71</course>
  <speed>0.26</speed>
  <fix>3d</fix>
</trkpt>
<trkpt lat="-27.274469" lon="151.2902305">
  <ele>356.29</ele>
  <time>2026-09-01T19:53:52Z</time>
  <course>104.78</course>
  <speed>0.208806130178211</speed>
  <fix>3d</fix>
</trkpt>
<trkpt lat="-27.2744692" lon="151.2902311">
  <ele>356.44</ele>
  <time>2026-09-01T19:53:52Z</time>
  <course>286.71</course>
  <speed>0.26</speed>
  <fix>3d</fix>
</trkpt>
<trkpt lat="-27.274469" lon="151.2902303">
  <ele>356.24</ele>
  <time>2026-09-01T19:53:52Z</time>
  <course>104.93</course>
  <speed>0.18973665961010278</speed>
  <fix>3d</fix>
</trkpt>
<trkpt lat="-27.2744691" lon="151.2902307">
  <ele>356.34</ele>
  <time>2026-09-01T19:53:52Z</time>
  <course>287.7</course>
  <speed>0.22</speed>
  <fix>3d</fix>
</trkpt>
<trkpt lat="-27.2744689" lon="151.2902301">
  <ele>356.18</ele>
  <time>2026-09-01T19:53:52Z</time>
  <course>105.05</course>
  <speed>0.1708800749063506</speed>
  <fix>3d</fix>
</trkpt>
<trkpt lat="-27.2744691" lon="151.2902307">
  <ele>356.34</ele>
  <time>2026-09-01T19:53:52Z</time>
  <course>287.7</course>
  <speed>0.22</speed>
  <fix>3d</fix>
</trkpt>
<trkpt lat="-27.2744689" lon="151.2902298">
  <ele>356.13</ele>
  <time>2026-09-01T19:53:52Z</time>
  <course>105.12</course>
  <speed>0.1615549442140351</speed>
  <fix>3d</fix>
</trkpt>
<trkpt lat="-27.2744689" lon="151.2902303">
  <ele>356.24</ele>
  <time>2026-09-01T19:53:52Z</time>
  <course>289.42</course>
  <speed>0.19</speed>
  <fix>3d</fix>
</trkpt>
<trkpt lat="-27.2744688" lon="151.2902298">
  <ele>356.08</ele>
  <time>2026-09-01T19:53:52Z</time>
  <course>105.14</course>
  <speed>0.14317821063276354</speed>
  <fix>3d</fix>
</trkpt>
<trkpt lat="-27.2744689" lon="151.2902303">
  <ele>356.24</ele>
  <time>2026-09-01T19:53:52Z</time>
  <course>289.42</course>
  <speed>0.19</speed>
  <fix>3d</fix>
</trkpt>
<trkpt lat="-27.2744687" lon="151.2902296">
  <ele>356.03</ele>
  <time>2026-09-01T19:53:52Z</time>
  <course>105.14</course>
  <speed>0.12529964086141668</speed>
  <fix>3d</fix>
</trkpt>
<trkpt lat="-27.2744688" lon="151.2902299">
  <ele>356.14</ele>
  <time>2026-09-01T19:53:52Z</time>
  <course>292.34</course>
  <speed>0.16</speed>
  <fix>3d</fix>
</trkpt>
<trkpt lat="-27.2744687" lon="151.2902294">
  <ele>355.98</ele>
  <time>2026-09-01T19:53:52Z</time>
  <course>105.11</course>
  <speed>0.11661903789690602</speed>
  <fix>3d</fix>
</trkpt>
<trkpt lat="-27.2744688" lon="151.2902299">
  <ele>356.14</ele>
  <time>2026-09-01T19:53:52Z</time>
  <course>292.34</course>
  <speed>0.16</speed>
  <fix>3d</fix>
</trkpt>
<trkpt lat="-27.2744686" lon="151.2902293">
  <ele>355.93</ele>
  <time>2026-09-01T19:53:52Z</time>
  <course>105.07</course>
  <speed>0.1</speed>
  <fix>3d</fix>
</trkpt>
<trkpt lat="-27.2744687" lon="151.2902296">
  <ele>356.03</ele>
  <time>2026-09-01T19:53:52Z</time>
  <course>297.22</course>
  <speed>0.13</speed>
  <fix>3d</fix>
</trkpt>
<trkpt lat="-27.2744686" lon="151.2902293">
  <ele>355.88</ele>
  <time>2026-09-01T19:53:52Z</time>
  <course>105.04</course>
  <speed>0.0848528137423857</speed>
  <fix>3d</fix>
</trkpt>
<trkpt lat="-27.2744687" lon="151.2902296">
  <ele>356.03</ele>
  <time>2026-09-01T19:53:52Z</time>
  <course>297.22</course>
  <speed>0.13</speed>
  <fix>3d</fix>
</trkpt>
<trkpt lat="-27.2744685" lon="151.2902293">
  <ele>355.83</ele>
  <time>2026-09-01T19:53:53Z</time>
  <course>105.02</course>
  <speed>0.07810249675906654</speed>
  <fix>3d</fix>
</trkpt>
<trkpt lat="-27.2744686" lon="151.2902294">
  <ele>355.94</ele>
  <time>2026-09-01T19:53:53Z</time>
  <course>305.12</course>
  <speed>0.1</speed>
  <fix>3d</fix>
</trkpt>
<trkpt lat="-27.2744685" lon="151.2902293">
  <ele>355.78</ele>
  <time>2026-09-01T19:53:53Z</time>
  <course>105.02</course>
  <speed>0.0670820393249937</speed>
  <fix>3d</fix>
</trkpt>
<trkpt lat="-27.2744686" lon="151.2902294">
  <ele>355.94</ele>
  <time>2026-09-01T19:53:53Z</time>
  <course>305.12</course>
  <speed>0.1</speed>
  <fix>3d</fix>
</trkpt>
<trkpt lat="-27.2744684" lon="151.2902292">
  <ele>355.73</ele>
  <time>2026-09-01T19:53:53Z</time>
  <course>105.03</course>
  <speed>0.0632455532033676</speed>
  <fix>3d</fix>
</trkpt>
<trkpt lat="-27.2744685" lon="151.2902293">
  <ele>355.84</ele>
  <time>2026-09-01T19:53:53Z</time>
  <course>318.12</course>
  <speed>0.08</speed>
  <fix>3d</fix>
</trkpt>
<trkpt lat="-27.2744684" lon="151.2902292">
  <ele>355.68</ele>
  <time>2026-09-01T19:53:53Z</time>
  <course>105.07</course>
  <speed>0.06</speed>
  <fix>3d</fix>
</trkpt>
<trkpt lat="-27.2744685" lon="151.2902293">
  <ele>355.84</ele>
  <time>2026-09-01T19:53:53Z</time>
  <course>318.12</course>
  <speed>0.08</speed>
  <fix>3d</fix>
</trkpt>
<trkpt lat="-27.2744683" lon="151.2902292">
  <ele>355.63</ele>
  <time>2026-09-01T19:53:53Z</time>
  <course>105.11</course>
  <speed>0.06</speed>
  <fix>3d</fix>
</trkpt>
<trkpt lat="-27.2744684" lon="151.2902292">
  <ele>355.74</ele>
  <time>2026-09-01T19:53:53Z</time>
  <course>339.13</course>
  <speed>0.06</speed>
  <fix>3d</fix>
</trkpt>
<trkpt lat="-27.2744683" lon="151.2902292">
  <ele>355.58</ele>
  <time>2026-09-01T19:53:53Z</time>
  <course>105.16</course>
  <speed>0.0632455532033676</speed>
  <fix>3d</fix>
</trkpt>
<trkpt lat="-27.2744684" lon="151.2902292">
  <ele>355.74</ele>
  <time>2026-09-01T19:53:53Z</time>
  <course>339.13</course>
  <speed>0.06</speed>
  <fix>3d</fix>
</trkpt>
<trkpt lat="-27.2744682" lon="151.2902293">
  <ele>355.54</ele>
  <time>2026-09-01T19:53:53Z</time>
  <course>105.21</course>
  <speed>0.0670820393249937</speed>
  <fix>3d</fix>
</trkpt>
<trkpt lat="-27.2744683" lon="151.2902292">
  <ele>355.64</ele>
  <time>2026-09-01T19:53:53Z</time>
  <course>6.23</course>
  <speed>0.06</speed>
  <fix>3d</fix>
</trkpt>
<trkpt lat="-27.2744681" lon="151.2902293">
  <ele>355.49</ele>
  <time>2026-09-01T19:53:53Z</time>
  <course>105.26</course>
  <speed>0.07211102550927978</speed>
  <fix>3d</fix>
</trkpt>
<trkpt lat="-27.2744683" lon="151.2902292">
  <ele>355.64</ele>
  <time>2026-09-01T19:53:53Z</time>
  <course>6.23</course>
  <speed>0.06</speed>
  <fix>3d</fix>
</trkpt>
<trkpt lat="-27.2744681" lon="151.2902293">
  <ele>355.44</ele>
  <time>2026-09-01T19:53:53Z</time>
  <course>105.31</course>
  <speed>0.0848528137423857</speed>
  <fix>3d</fix>
</trkpt>
<trkpt lat="-27.2744682" lon="151.2902292">
  <ele>355.53</ele>
  <time>2026-09-01T19:53:53Z</time>
  <course>29.67</course>
  <speed>0.06</speed>
  <fix>3d</fix>
</trkpt>
<trkpt lat="-27.274468" lon="151.2902293">
  <ele>355.39</ele>
  <time>2026-09-01T19:53:53Z</time>
  <course>105.34</course>
  <speed>0.08602325267042626</speed>
  <fix>3d</fix>
</trkpt>
<trkpt lat="-27.2744682" lon="151.2902292">
  <ele>355.53</ele>
  <time>2026-09-01T19:53:53Z</time>
  <course>29.67</course>
  <speed>0.06</speed>
  <fix>3d</fix>
</trkpt>
<trkpt lat="-27.274468" lon="151.2902293">
  <ele>355.34</ele>
  <time>2026-09-01T19:53:53Z</time>
  <course>105.36</course>
  <speed>0.09433981132056603</speed>
  <fix>3d</fix>
</trkpt>
<trkpt lat="-27.274468" lon="151.2902293">
  <ele>355.44</ele>
  <time>2026-09-01T19:53:53Z</time>
  <course>45.03</course>
  <speed>0.08</speed>
  <fix>3d</fix>
</trkpt>
<trkpt lat="-27.2744679" lon="151.2902294">
  <ele>355.29</ele>
  <time>2026-09-01T19:53:53Z</time>
  <course>105.36</course>
  <speed>0.10295630140987001</speed>
  <fix>3d</fix>
</trkpt>
<trkpt lat="-27.274468" lon="151.2902293">
  <ele>355.44</ele>
  <time>2026-09-01T19:53:53Z</time>
  <course>45.03</course>
  <speed>0.08</speed>
  <fix>3d</fix>
</trkpt>
<trkpt lat="-27.2744679" lon="151.2902296">
  <ele>355.24</ele>
  <time>2026-09-01T19:53:53Z</time>
  <course>105.35</course>
  <speed>0.1118033988749895</speed>
  <fix>3d</fix>
</trkpt>
<trkpt lat="-27.2744679" lon="151.2902293">
  <ele>355.34</ele>
  <time>2026-09-01T19:53:53Z</time>
  <course>54.62</course>
  <speed>0.1</speed>
  <fix>3d</fix>
</trkpt>
<trkpt lat="-27.2744678" lon="151.2902297">
  <ele>355.19</ele>
  <time>2026-09-01T19:53:53Z</time>
  <course>105.35</course>
  <speed>0.12083045973594572</speed>
  <fix>3d</fix>
</trkpt>
<trkpt lat="-27.2744679" lon="151.2902293">
  <ele>355.34</ele>
  <time>2026-09-01T19:53:53Z</time>
  <course>54.62</course>
  <speed>0.1</speed>
  <fix>3d</fix>
</trkpt>
<trkpt lat="-27.2744678" lon="151.2902298">
  <ele>355.14</ele>
  <time>2026-09-01T19:53:53Z</time>
  <course>105.34</course>
  <speed>0.13</speed>
  <fix>3d</fix>
</trkpt>
<trkpt lat="-27.2744678" lon="151.2902295">
  <ele>355.24</ele>
  <time>2026-09-01T19:53:53Z</time>
  <course>61.11</course>
  <speed>0.12</speed>
  <fix>3d</fix>
</trkpt>
<trkpt lat="-27.2744677" lon="151.2902299">
  <ele>355.09</ele>
  <time>2026-09-01T19:53:53Z</time>
  <course>105.34</course>
  <speed>0.1392838827718412</speed>
  <fix>3d</fix>
</trkpt>
<trkpt lat="-27.2744678" lon="151.2902295">
  <ele>355.24</ele>
  <time>2026-09-01T19:53:53Z</time>
  <course>61.11</course>
  <speed>0.12</speed>
  <fix>3d</fix>
</trkpt>
<trkpt lat="-27.2744677" lon="151.2902301">
  <ele>355.04</ele>
  <time>2026-09-01T19:53:53Z</time>
  <course>105.33</course>
  <speed>0.14866068747318506</speed>
  <fix>3d</fix>
</trkpt>
<trkpt lat="-27.2744677" lon="151.2902298">
  <ele>355.14</ele>
  <time>2026-09-01T19:53:53Z</time>
  <course>65.82</course>
  <speed>0.13</speed>
  <fix>3d</fix>
</trkpt>
<trkpt lat="-27.2744676" lon="151.2902303">
  <ele>354.99</ele>
  <time>2026-09-01T19:53:53Z</time>
  <course>105.33</course>
  <speed>0.14866068747318506</speed>
  <fix>3d</fix>
</trkpt>
<trkpt lat="-27.2744677" lon="151.2902298">
  <ele>355.14</ele>
  <time>2026-09-01T19:53:53Z</time>
  <course>65.82</course>
  <speed>0.13</speed>
  <fix>3d</fix>
</trkpt>
<trkpt lat="-27.2744676" lon="151.2902303">
  <ele>354.94</ele>
  <time>2026-09-01T19:53:53Z</time>
  <course>105.33</course>
  <speed>0.15524174696260024</speed>
  <fix>3d</fix>
</trkpt>
<trkpt lat="-27.2744676" lon="151.29023">
  <ele>355.03</ele>
  <time>2026-09-01T19:53:53Z</time>
  <course>69.48</course>
  <speed>0.14</speed>
  <fix>3d</fix>
</trkpt>
<trkpt lat="-27.2744675" lon="151.2902306">
  <ele>354.89</ele>
  <time>2026-09-01T19:53:53Z</time>
  <course>105.33</course>
  <speed>0.15524174696260024</speed>
  <fix>3d</fix>
</trkpt>
<trkpt lat="-27.2744676" lon="151.29023">
  <ele>355.03</ele>
  <time>2026-09-01T19:53:53Z</time>
  <course>69.48</course>
  <speed>0.14</speed>
  <fix>3d</fix>
</trkpt>
<trkpt lat="-27.2744675" lon="151.2902307">
  <ele>354.84</ele>
  <time>2026-09-01T19:53:53Z</time>
  <course>105.34</course>
  <speed>0.1649242250247064</speed>
  <fix>3d</fix>
</trkpt>
<trkpt lat="-27.2744675" lon="151.2902303">
  <ele>354.94</ele>
  <time>2026-09-01T19:53:53Z</time>
  <course>72.58</course>
  <speed>0.16</speed>
  <fix>3d</fix>
</trkpt>
<trkpt lat="-27.2744675" lon="151.2902308">
  <ele>354.79</ele>
  <time>2026-09-01T19:53:53Z</time>
  <course>105.35</course>
  <speed>0.16278820596099705</speed>
  <fix>3d</fix>
</trkpt>
<trkpt lat="-27.2744675" lon="151.2902303">
  <ele>354.94</ele>
  <time>2026-09-01T19:53:53Z</time>
  <course>72.58</course>
  <speed>0.16</speed>
  <fix>3d</fix>
</trkpt>
<trkpt lat="-27.2744674" lon="151.2902311">
  <ele>354.74</ele>
  <time>2026-09-01T19:53:53Z</time>
  <course>105.35</course>
  <speed>0.16278820596099705</speed>
  <fix>3d</fix>
</trkpt>
<trkpt lat="-27.2744675" lon="151.2902307">
  <ele>354.84</ele>
  <time>2026-09-01T19:53:53Z</time>
  <course>75.4</course>
  <speed>0.16</speed>
  <fix>3d</fix>
</trkpt>
<trkpt lat="-27.2744674" lon="151.2902312">
  <ele>354.69</ele>
  <time>2026-09-01T19:53:53Z</time>
  <course>105.36</course>
  <speed>0.16278820596099705</speed>
  <fix>3d</fix>
</trkpt>
<trkpt lat="-27.2744675" lon="151.2902307">
  <ele>354.84</ele>
  <time>2026-09-01T19:53:53Z</time>
  <course>75.4</course>
  <speed>0.16</speed>
  <fix>3d</fix>
</trkpt>
<trkpt lat="-27.2744674" lon="151.2902313">
  <ele>354.64</ele>
  <time>2026-09-01T19:53:53Z</time>
  <course>105.36</course>
  <speed>0.16124515496597097</speed>
  <fix>3d</fix>
</trkpt>
<trkpt lat="-27.2744674" lon="151.290231">
  <ele>354.74</ele>
  <time>2026-09-01T19:53:53Z</time>
  <course>78.05</course>
  <speed>0.17</speed>
  <fix>3d</fix>
</trkpt>
<trkpt lat="-27.2744674" lon="151.2902316">
  <ele>354.59</ele>
  <time>2026-09-01T19:53:53Z</time>
  <course>105.36</course>
  <speed>0.16124515496597097</speed>
  <fix>3d</fix>
</trkpt>
<trkpt lat="-27.2744674" lon="151.290231">
  <ele>354.74</ele>
  <time>2026-09-01T19:53:53Z</time>
  <course>78.05</course>
  <speed>0.17</speed>
  <fix>3d</fix>
</trkpt>
<trkpt lat="-27.2744673" lon="151.2902317">
  <ele>354.54</ele>
  <time>2026-09-01T19:53:53Z</time>
  <course>105.36</course>
  <speed>0.16124515496597097</speed>
  <fix>3d</fix>
</trkpt>
<trkpt lat="-27.2744674" lon="151.2902313">
  <ele>354.64</ele>
  <time>2026-09-01T19:53:53Z</time>
  <course>80.6</course>
  <speed>0.17</speed>
  <fix>3d</fix>
</trkpt>
<trkpt lat="-27.2744673" lon="151.2902318">
  <ele>354.49</ele>
  <time>2026-09-01T19:53:53Z</time>
  <course>105.36</course>
  <speed>0.16031219541881397</speed>
  <fix>3d</fix>
</trkpt>
<trkpt lat="-27.2744674" lon="151.2902313">
  <ele>354.64</ele>
  <time>2026-09-01T19:53:53Z</time>
  <course>80.6</course>
  <speed>0.17</speed>
  <fix>3d</fix>
</trkpt>
<trkpt lat="-27.2744673" lon="151.2902321">
  <ele>354.44</ele>
  <time>2026-09-01T19:53:53Z</time>
  <course>105.35</course>
  <speed>0.16031219541881397</speed>
  <fix>3d</fix>
</trkpt>
<trkpt lat="-27.2744673" lon="151.2902317">
  <ele>354.53</ele>
  <time>2026-09-01T19:53:53Z</time>
  <course>83.07</course>
  <speed>0.16</speed>
  <fix>3d</fix>
</trkpt>
<trkpt lat="-27.2744673" lon="151.2902322">
  <ele>354.39</ele>
  <time>2026-09-01T19:53:53Z</time>
  <course>105.35</course>
  <speed>0.15</speed>
  <fix>3d</fix>
</trkpt>
<trkpt lat="-27.2744673" lon="151.2902317">
  <ele>354.53</ele>
  <time>2026-09-01T19:53:53Z</time>
  <course>83.07</course>
  <speed>0.16</speed>
  <fix>3d</fix>
</trkpt>
<trkpt lat="-27.2744673" lon="151.2902323">
  <ele>354.34</ele>
  <time>2026-09-01T19:53:53Z</time>
  <course>105.35</course>
  <speed>0.15</speed>
  <fix>3d</fix>
</trkpt>
<trkpt lat="-27.2744673" lon="151.290232">
  <ele>354.44</ele>
  <time>2026-09-01T19:53:53Z</time>
  <course>85.55</course>
  <speed>0.16</speed>
  <fix>3d</fix>
</trkpt>
<trkpt lat="-27.2744673" lon="151.2902325">
  <ele>354.29</ele>
  <time>2026-09-01T19:53:53Z</time>
  <course>105.35</course>
  <speed>0.14</speed>
  <fix>3d</fix>
</trkpt>
<trkpt lat="-27.2744673" lon="151.290232">
  <ele>354.44</ele>
  <time>2026-09-01T19:53:53Z</time>
  <course>85.55</course>
  <speed>0.16</speed>
  <fix>3d</fix>
</trkpt>
<trkpt lat="-27.2744673" lon="151.2902327">
  <ele>354.24</ele>
  <time>2026-09-01T19:53:53Z</time>
  <course>105.35</course>
  <speed>0.14</speed>
  <fix>3d</fix>
</trkpt>
<trkpt lat="-27.2744673" lon="151.2902323">
  <ele>354.34</ele>
  <time>2026-09-01T19:53:53Z</time>
  <course>88.23</course>
  <speed>0.15</speed>
  <fix>3d</fix>
</trkpt>
<trkpt lat="-27.2744673" lon="151.2902327">
  <ele>354.19</ele>
  <time>2026-09-01T19:53:53Z</time>
  <course>105.35</course>
  <speed>0.13</speed>
  <fix>3d</fix>
</trkpt>
<trkpt lat="-27.2744673" lon="151.2902323">
  <ele>354.34</ele>
  <time>2026-09-01T19:53:53Z</time>
  <course>88.23</course>
  <speed>0.15</speed>
  <fix>3d</fix>
</trkpt>
<trkpt lat="-27.2744673" lon="151.290233">
  <ele>354.14</ele>
  <time>2026-09-01T19:53:53Z</time>
  <course>105.35</course>
  <speed>0.13</speed>
  <fix>3d</fix>
</trkpt>
<trkpt lat="-27.2744673" lon="151.2902326">
  <ele>354.24</ele>
  <time>2026-09-01T19:53:53Z</time>
  <course>91.06</course>
  <speed>0.14</speed>
  <fix>3d</fix>
</trkpt>
<trkpt lat="-27.2744673" lon="151.2902331">
  <ele>354.09</ele>
  <time>2026-09-01T19:53:53Z</time>
  <course>105.36</course>
  <speed>0.12041594578792296</speed>
  <fix>3d</fix>
</trkpt>
<trkpt lat="-27.2744673" lon="151.2902326">
  <ele>354.24</ele>
  <time>2026-09-01T19:53:53Z</time>
  <course>91.06</course>
  <speed>0.14</speed>
  <fix>3d</fix>
</trkpt>
<trkpt lat="-27.2744673" lon="151.2902332">
  <ele>354.04</ele>
  <time>2026-09-01T19:53:53Z</time>
  <course>105.35</course>
  <speed>0.11045361017187261</speed>
  <fix>3d</fix>
</trkpt>
<trkpt lat="-27.2744673" lon="151.2902329">
  <ele>354.14</ele>
  <time>2026-09-01T19:53:53Z</time>
  <course>94.17</course>
  <speed>0.13</speed>
  <fix>3d</fix>
</trkpt>
<trkpt lat="-27.2744673" lon="151.2902332">
  <ele>353.99</ele>
  <time>2026-09-01T19:53:53Z</time>
  <course>105.35</course>
  <speed>0.11045361017187261</speed>
  <fix>3d</fix>
</trkpt>
<trkpt lat="-27.2744673" lon="151.2902329">
  <ele>354.14</ele>
  <time>2026-09-01T19:53:53Z</time>
  <course>94.17</course>
  <speed>0.13</speed>
  <fix>3d</fix>
</trkpt>
<trkpt lat="-27.2744673" lon="151.2902334">
  <ele>353.94</ele>
  <time>2026-09-01T19:53:53Z</time>
  <course>105.34</course>
  <speed>0.1019803902718557</speed>
  <fix>3d</fix>
</trkpt>
<trkpt lat="-27.2744673" lon="151.2902332">
  <ele>354.03</ele>
  <time>2026-09-01T19:53:53Z</time>
  <course>97.8</course>
  <speed>0.11</speed>
  <fix>3d</fix>
</trkpt>
<trkpt lat="-27.2744673" lon="151.2902335">
  <ele>353.89</ele>
  <time>2026-09-01T19:53:53Z</time>
  <course>105.34</course>
  <speed>0.09219544457292887</speed>
  <fix>3d</fix>
</trkpt>
<trkpt lat="-27.2744673" lon="151.2902332">
  <ele>354.03</ele>
  <time>2026-09-01T19:53:53Z</time>
  <course>97.8</course>
  <speed>0.11</speed>
  <fix>3d</fix>
</trkpt>
<trkpt lat="-27.2744673" lon="151.2902336">
  <ele>353.84</ele>
  <time>2026-09-01T19:53:53Z</time>
  <course>105.34</course>
  <speed>0.0824621125123532</speed>
  <fix>3d</fix>
</trkpt>
<trkpt lat="-27.2744673" lon="151.2902333">
  <ele>353.94</ele>
  <time>2026-09-01T19:53:53Z</time>
  <course>102.17</course>
  <speed>0.1</speed>
  <fix>3d</fix>
</trkpt>
<trkpt lat="-27.2744673" lon="151.2902336">
  <ele>353.79</ele>
  <time>2026-09-01T19:53:53Z</time>
  <course>105.34</course>
  <speed>0.07615773105863909</speed>
  <fix>3d</fix>
</trkpt>
<trkpt lat="-27.2744673" lon="151.2902333">
  <ele>353.94</ele>
  <time>2026-09-01T19:53:53Z</time>
  <course>102.17</course>
  <speed>0.1</speed>
  <fix>3d</fix>
</trkpt>
<trkpt lat="-27.2744674" lon="151.2902337">
  <ele>353.74</ele>
  <time>2026-09-01T19:53:53Z</time>
  <course>105.34</course>
  <speed>0.07615773105863909</speed>
  <fix>3d</fix>
</trkpt>
<trkpt lat="-27.2744673" lon="151.2902336">
  <ele>353.84</ele>
  <time>2026-09-01T19:53:53Z</time>
  <course>107.63</course>
  <speed>0.09</speed>
  <fix>3d</fix>
</trkpt>
<trkpt lat="-27.2744674" lon="151.2902339">
  <ele>353.69</ele>
  <time>2026-09-01T19:53:53Z</time>
  <course>105.35</course>
  <speed>0.0670820393249937</speed>
  <fix>3d</fix>
</trkpt>
<trkpt lat="-27.2744673" lon="151.2902336">
  <ele>353.84</ele>
  <time>2026-09-01T19:53:53Z</time>
  <course>107.63</course>
  <speed>0.09</speed>
  <fix>3d</fix>
</trkpt>
<trkpt lat="-27.2744674" lon="151.2902339">
  <ele>353.64</ele>
  <time>2026-09-01T19:53:53Z</time>
  <course>105.35</course>
  <speed>0.05830951894845301</speed>
  <fix>3d</fix>
</trkpt>
<trkpt lat="-27.2744673" lon="151.2902338">
  <ele>353.74</ele>
  <time>2026-09-01T19:53:53Z</time>
  <course>114.6</course>
  <speed>0.07</speed>
  <fix>3d</fix>
</trkpt>
<trkpt lat="-27.2744675" lon="151.290234">
  <ele>353.59</ele>
  <time>2026-09-01T19:53:53Z</time>
  <course>105.37</course>
  <speed>0.05</speed>
  <fix>3d</fix>
</trkpt>
<trkpt lat="-27.2744673" lon="151.2902338">
  <ele>353.74</ele>
  <time>2026-09-01T19:53:53Z</time>
  <course>114.6</course>
  <speed>0.07</speed>
  <fix>3d</fix>
</trkpt>
<trkpt lat="-27.2744675" lon="151.290234">
  <ele>353.54</ele>
  <time>2026-09-01T19:53:53Z</time>
  <course>105.39</course>
  <speed>0.04242640687119285</speed>
  <fix>3d</fix>
</trkpt>
<trkpt lat="-27.2744674" lon="151.2902339">
  <ele>353.64</ele>
  <time>2026-09-01T19:53:53Z</time>
  <course>123.34</course>
  <speed>0.06</speed>
  <fix>3d</fix>
</trkpt>
<trkpt lat="-27.2744675" lon="151.2902341">
  <ele>353.49</ele>
  <time>2026-09-01T19:53:53Z</time>
  <course>105.41</course>
  <speed>0.04242640687119285</speed>
  <fix>3d</fix>
</trkpt>
<trkpt lat="-27.2744674" lon="151.2902339">
  <ele>353.64</ele>
  <time>2026-09-01T19:53:53Z</time>
  <course>123.34</course>
  <speed>0.06</speed>
  <fix>3d</fix>
</trkpt>
<trkpt lat="-27.2744676" lon="151.2902341">
  <ele>353.44</ele>
  <time>2026-09-01T19:53:53Z</time>
  <course>105.42</course>
  <speed>0.03605551275463989</speed>
  <fix>3d</fix>
</trkpt>
<trkpt lat="-27.2744675" lon="151.290234">
  <ele>353.53</ele>
  <time>2026-09-01T19:53:53Z</time>
  <course>134.47</course>
  <speed>0.05</speed>
  <fix>3d</fix>
</trkpt>
<trkpt lat="-27.2744676" lon="151.2902341">
  <ele>353.39</ele>
  <time>2026-09-01T19:53:53Z</time>
  <course>105.44</course>
  <speed>0.0316227766016838</speed>
  <fix>3d</fix>
</trkpt>
<trkpt lat="-27.2744675" lon="151.290234">
  <ele>353.53</ele>
  <time>2026-09-01T19:53:53Z</time>
  <course>134.47</course>
  <speed>0.05</speed>
  <fix>3d</fix>
</trkpt>
<trkpt lat="-27.2744676" lon="151.2902341">
  <ele>353.34</ele>
  <time>2026-09-01T19:53:53Z</time>
  <course>105.45</course>
  <speed>0.03</speed>
  <fix>3d</fix>
</trkpt>
<trkpt lat="-27.2744675" lon="151.2902341">
  <ele>353.44</ele>
  <time>2026-09-01T19:53:53Z</time>
  <course>148.97</course>
  <speed>0.04</speed>
  <fix>3d</fix>
</trkpt>
<trkpt lat="-27.2744677" lon="151.2902341">
  <ele>353.29</ele>
  <time>2026-09-01T19:53:53Z</time>
  <course>105.47</course>
  <speed>0.03</speed>
  <fix>3d</fix>
</trkpt>
<trkpt lat="-27.2744675" lon="151.2902341">
  <ele>353.44</ele>
  <time>2026-09-01T19:53:53Z</time>
  <course>148.97</course>
  <speed>0.04</speed>
  <fix>3d</fix>
</trkpt>
<trkpt lat="-27.2744677" lon="151.2902341">
  <ele>353.24</ele>
  <time>2026-09-01T19:53:53Z</time>
  <course>105.49</course>
  <speed>0.03</speed>
  <fix>3d</fix>
</trkpt>
<trkpt lat="-27.2744676" lon="151.2902341">
  <ele>353.34</ele>
  <time>2026-09-01T19:53:53Z</time>
  <course>166.94</course>
  <speed>0.03</speed>
  <fix>3d</fix>
</trkpt>
<trkpt lat="-27.2744677" lon="151.2902341">
  <ele>353.19</ele>
  <time>2026-09-01T19:53:53Z</time>
  <course>105.51</course>
  <speed>0.0316227766016838</speed>
  <fix>3d</fix>
</trkpt>
<trkpt lat="-27.2744676" lon="151.2902341">
  <ele>353.34</ele>
  <time>2026-09-01T19:53:53Z</time>
  <course>166.94</course>
  <speed>0.03</speed>
  <fix>3d</fix>
</trkpt>
<trkpt lat="-27.2744678" lon="151.2902341">
  <ele>353.14</ele>
  <time>2026-09-01T19:53:53Z</time>
  <course>105.54</course>
  <speed>0.0316227766016838</speed>
  <fix>3d</fix>
</trkpt>
<trkpt lat="-27.2744677" lon="151.2902341">
  <ele>353.24</ele>
  <time>2026-09-01T19:53:53Z</time>
  <course>186.51</course>
  <speed>0.03</speed>
  <fix>3d</fix>
</trkpt>
<trkpt lat="-27.2744678" lon="151.2902341">
  <ele>353.09</ele>
  <time>2026-09-01T19:53:53Z</time>
  <course>105.56</course>
  <speed>0.03605551275463989</speed>
  <fix>3d</fix>
</trkpt>
<trkpt lat="-27.2744677" lon="151.2902341">
  <ele>353.24</ele>
  <time>2026-09-01T19:53:53Z</time>
  <course>186.51</course>
  <speed>0.03</speed>
  <fix>3d</fix>
</trkpt>
<trkpt lat="-27.2744678" lon="151.2902341">
  <ele>353.04</ele>
  <time>2026-09-01T19:53:53Z</time>
  <course>105.58</course>
  <speed>0.0282842712474619</speed>
  <fix>3d</fix>
</trkpt>
<trkpt lat="-27.2744677" lon="151.2902341">
  <ele>353.14</ele>
  <time>2026-09-01T19:53:53Z</time>
  <course>205.67</course>
  <speed>0.03</speed>
  <fix>3d</fix>
</trkpt>
<trkpt lat="-27.2744678" lon="151.290234">
  <ele>352.99</ele>
  <time>2026-09-01T19:53:53Z</time>
  <course>105.61</course>
  <speed>0.03605551275463989</speed>
  <fix>3d</fix>
</trkpt>
<trkpt lat="-27.2744677" lon="151.2902341">
  <ele>353.14</ele>
  <time>2026-09-01T19:53:53Z</time>
  <course>205.67</course>
  <speed>0.03</speed>
  <fix>3d</fix>
</trkpt>
<trkpt lat="-27.2744679" lon="151.290234">
  <ele>352.94</ele>
  <time>2026-09-01T19:53:53Z</time>
  <course>105.62</course>
  <speed>0.03605551275463989</speed>
  <fix>3d</fix>
</trkpt>
<trkpt lat="-27.2744678" lon="151.290234">
  <ele>353.03</ele>
  <time>2026-09-01T19:53:53Z</time>
  <course>222.78</course>
  <speed>0.03</speed>
  <fix>3d</fix>
</trkpt>
<trkpt lat="-27.2744679" lon="151.290234">
  <ele>352.89</ele>
  <time>2026-09-01T19:53:53Z</time>
  <course>105.63</course>
  <speed>0.0316227766016838</speed>
  <fix>3d</fix>
</trkpt>
<trkpt lat="-27.2744678" lon="151.290234">
  <ele>353.03</ele>
  <time>2026-09-01T19:53:53Z</time>
  <course>222.78</course>
  <speed>0.03</speed>
  <fix>3d</fix>
</trkpt>
<trkpt lat="-27.2744679" lon="151.290234">
  <ele>352.84</ele>
  <time>2026-09-01T19:53:53Z</time>
  <course>105.64</course>
  <speed>0.0412310562561766</speed>
  <fix>3d</fix>
</trkpt>
<trkpt lat="-27.2744678" lon="151.290234">
  <ele>352.94</ele>
  <time>2026-09-01T19:53:53Z</time>
  <course>236.85</course>
  <speed>0.04</speed>
  <fix>3d</fix>
</trkpt>
<trkpt lat="-27.2744679" lon="151.290234">
  <ele>352.79</ele>
  <time>2026-09-01T19:53:53Z</time>
  <course>105.64</course>
  <speed>0.0412310562561766</speed>
  <fix>3d</fix>
</trkpt>
<trkpt lat="-27.2744678" lon="151.290234">
  <ele>352.94</ele>
  <time>2026-09-01T19:53:53Z</time>
  <course>236.85</course>
  <speed>0.04</speed>
  <fix>3d</fix>
</trkpt>
<trkpt lat="-27.2744679" lon="151.2902339">
  <ele>352.74</ele>
  <time>2026-09-01T19:53:53Z</time>
  <course>105.63</course>
  <speed>0.0412310562561766</speed>
  <fix>3d</fix>
</trkpt>
<trkpt lat="-27.2744679" lon="151.290234">
  <ele>352.84</ele>
  <time>2026-09-01T19:53:53Z</time>
  <course>248.26</course>
  <speed>0.04</speed>
  <fix>3d</fix>
</trkpt>
<trkpt lat="-27.2744679" lon="151.2902339">
  <ele>352.69</ele>
  <time>2026-09-01T19:53:53Z</time>
  <course>105.63</course>
  <speed>0.05</speed>
  <fix>3d</fix>
</trkpt>
<trkpt lat="-27.2744679" lon="151.290234">
  <ele>352.84</ele>
  <time>2026-09-01T19:53:53Z</time>
  <course>248.26</course>
  <speed>0.04</speed>
  <fix>3d</fix>
</trkpt>
<trkpt lat="-27.2744679" lon="151.2902337">
  <ele>352.64</ele>
  <time>2026-09-01T19:53:53Z</time>
  <course>105.63</course>
  <speed>0.05</speed>
  <fix>3d</fix>
</trkpt>
<trkpt lat="-27.2744679" lon="151.2902339">
  <ele>352.74</ele>
  <time>2026-09-01T19:53:53Z</time>
  <course>257.5</course>
  <speed>0.04</speed>
  <fix>3d</fix>
</trkpt>
<trkpt lat="-27.2744679" lon="151.2902337">
  <ele>352.59</ele>
  <time>2026-09-01T19:53:53Z</time>
  <course>105.64</course>
  <speed>0.05</speed>
  <fix>3d</fix>
</trkpt>
<trkpt lat="-27.2744679" lon="151.2902339">
  <ele>352.74</ele>
  <time>2026-09-01T19:53:53Z</time>
  <course>257.5</course>
  <speed>0.04</speed>
  <fix>3d</fix>
</trkpt>
<trkpt lat="-27.2744679" lon="151.2902336">
  <ele>352.54</ele>
  <time>2026-09-01T19:53:53Z</time>
  <course>105.64</course>
  <speed>0.05</speed>
  <fix>3d</fix>
</trkpt>
<trkpt lat="-27.2744679" lon="151.2902338">
  <ele>352.64</ele>
  <time>2026-09-01T19:53:53Z</time>
  <course>264.51</course>
  <speed>0.05</speed>
  <fix>3d</fix>
</trkpt>
<trkpt lat="-27.2744679" lon="151.2902336">
  <ele>352.49</ele>
  <time>2026-09-01T19:53:53Z</time>
  <course>105.65</course>
  <speed>0.05</speed>
  <fix>3d</fix>
</trkpt>
<trkpt lat="-27.2744679" lon="151.2902338">
  <ele>352.64</ele>
  <time>2026-09-01T19:53:53Z</time>
  <course>264.51</course>
  <speed>0.05</speed>
  <fix>3d</fix>
</trkpt>
<trkpt lat="-27.2744679" lon="151.2902336">
  <ele>352.44</ele>
  <time>2026-09-01T19:53:53Z</time>
  <course>105.65</course>
  <speed>0.05</speed>
  <fix>3d</fix>
</trkpt>
<trkpt lat="-27.2744679" lon="151.2902337">
  <ele>352.53</ele>
  <time>2026-09-01T19:53:53Z</time>
  <course>269.91</course>
  <speed>0.05</speed>
  <fix>3d</fix>
</trkpt>
<trkpt lat="-27.2744679" lon="151.2902335">
  <ele>352.39</ele>
  <time>2026-09-01T19:53:53Z</time>
  <course>105.66</course>
  <speed>0.05</speed>
  <fix>3d</fix>
</trkpt>
<trkpt lat="-27.2744679" lon="151.2902337">
  <ele>352.53</ele>
  <time>2026-09-01T19:53:53Z</time>
  <course>269.91</course>
  <speed>0.05</speed>
  <fix>3d</fix>
</trkpt>
<trkpt lat="-27.2744679" lon="151.2902335">
  <ele>352.34</ele>
  <time>2026-09-01T19:53:53Z</time>
  <course>105.67</course>
  <speed>0.05</speed>
  <fix>3d</fix>
</trkpt>
<trkpt lat="-27.2744679" lon="151.2902336">
  <ele>352.44</ele>
  <time>2026-09-01T19:53:53Z</time>
  <course>274.48</course>
  <speed>0.05</speed>
  <fix>3d</fix>
</trkpt>
<trkpt lat="-27.2744679" lon="151.2902334">
  <ele>352.29</ele>
  <time>2026-09-01T19:53:53Z</time>
  <course>105.67</course>
  <speed>0.05099019513592785</speed>
  <fix>3d</fix>
</trkpt>
<trkpt lat="-27.2744679" lon="151.2902336">
  <ele>352.44</ele>
  <time>2026-09-01T19:53:53Z</time>
  <course>274.48</course>
  <speed>0.05</speed>
  <fix>3d</fix>
</trkpt>
<trkpt lat="-27.2744679" lon="151.2902334">
  <ele>352.24</ele>
  <time>2026-09-01T19:53:53Z</time>
  <course>105.67</course>
  <speed>0.05099019513592785</speed>
  <fix>3d</fix>
</trkpt>
<trkpt lat="-27.2744679" lon="151.2902334">
  <ele>352.34</ele>
  <time>2026-09-01T19:53:53Z</time>
  <course>278.88</course>
  <speed>0.05</speed>
  <fix>3d</fix>
</trkpt>
<trkpt lat="-27.2744679" lon="151.2902332">
  <ele>352.19</ele>
  <time>2026-09-01T19:53:53Z</time>
  <course>105.67</course>
  <speed>0.05099019513592785</speed>
  <fix>3d</fix>
</trkpt>
<trkpt lat="-27.2744679" lon="151.2902334">
  <ele>352.34</ele>
  <time>2026-09-01T19:53:53Z</time>
  <course>278.88</course>
  <speed>0.05</speed>
  <fix>3d</fix>
</trkpt>
<trkpt lat="-27.2744679" lon="151.2902332">
  <ele>352.14</ele>
  <time>2026-09-01T19:53:53Z</time>
  <course>105.66</course>
  <speed>0.05099019513592785</speed>
  <fix>3d</fix>
</trkpt>
<trkpt lat="-27.2744679" lon="151.2902333">
  <ele>352.24</ele>
  <time>2026-09-01T19:53:53Z</time>
  <course>283.39</course>
  <speed>0.05</speed>
  <fix>3d</fix>
</trkpt>
<trkpt lat="-27.2744679" lon="151.2902332">
  <ele>352.09</ele>
  <time>2026-09-01T19:53:53Z</time>
  <course>105.62</course>
  <speed>0.05099019513592785</speed>
  <fix>3d</fix>
</trkpt>
<trkpt lat="-27.2744679" lon="151.2902333">
  <ele>352.24</ele>
  <time>2026-09-01T19:53:53Z</time>
  <course>283.39</course>
  <speed>0.05</speed>
  <fix>3d</fix>
</trkpt>
<trkpt lat="-27.2744679" lon="151.2902332">
  <ele>352.04</ele>
  <time>2026-09-01T19:53:53Z</time>
  <course>105.56</course>
  <speed>0.05099019513592785</speed>
  <fix>3d</fix>
</trkpt>
<trkpt lat="-27.2744679" lon="151.2902332">
  <ele>352.14</ele>
  <time>2026-09-01T19:53:53Z</time>
  <course>286.26</course>
  <speed>0.05</speed>
  <fix>3d</fix>
</trkpt>
<trkpt lat="-27.2744679" lon="151.2902331">
  <ele>351.99</ele>
  <time>2026-09-01T19:53:53Z</time>
  <course>105.5</course>
  <speed>0.0412310562561766</speed>
  <fix>3d</fix>
</trkpt>
<trkpt lat="-27.2744679" lon="151.2902332">
  <ele>352.14</ele>
  <time>2026-09-01T19:53:53Z</time>
  <course>286.26</course>
  <speed>0.05</speed>
  <fix>3d</fix>
</trkpt>
<trkpt lat="-27.2744679" lon="151.2902331">
  <ele>351.94</ele>
  <time>2026-09-01T19:53:53Z</time>
  <course>105.45</course>
  <speed>0.0412310562561766</speed>
  <fix>3d</fix>
</trkpt>
<trkpt lat="-27.2744679" lon="151.2902331">
  <ele>352.03</ele>
  <time>2026-09-01T19:53:53Z</time>
  <course>286.98</course>
  <speed>0.05</speed>
  <fix>3d</fix>
</trkpt>
<trkpt lat="-27.2744679" lon="151.290233">
  <ele>351.89</ele>
  <time>2026-09-01T19:53:53Z</time>
  <course>105.42</course>
  <speed>0.0412310562561766</speed>
  <fix>3d</fix>
</trkpt>
<trkpt lat="-27.2744679" lon="151.2902331">
  <ele>352.03</ele>
  <time>2026-09-01T19:53:53Z</time>
  <course>286.98</course>
  <speed>0.05</speed>
  <fix>3d</fix>
</trkpt>
<trkpt lat="-27.2744679" lon="151.290233">
  <ele>351.84</ele>
  <time>2026-09-01T19:53:53Z</time>
  <course>105.4</course>
  <speed>0.0412310562561766</speed>
  <fix>3d</fix>
</trkpt>
<trkpt lat="-27.2744679" lon="151.290233">
  <ele>351.94</ele>
  <time>2026-09-01T19:53:53Z</time>
  <course>287.18</course>
  <speed>0.05</speed>
  <fix>3d</fix>
</trkpt>
<trkpt lat="-27.2744679" lon="151.2902329">
  <ele>351.79</ele>
  <time>2026-09-01T19:53:53Z</time>
  <course>105.4</course>
  <speed>0.0412310562561766</speed>
  <fix>3d</fix>
</trkpt>
<trkpt lat="-27.2744679" lon="151.290233">
  <ele>351.94</ele>
  <time>2026-09-01T19:53:53Z</time>
  <course>287.18</course>
  <speed>0.05</speed>
  <fix>3d</fix>
</trkpt>
<trkpt lat="-27.2744679" lon="151.2902329">
  <ele>351.74</ele>
  <time>2026-09-01T19:53:53Z</time>
  <course>105.39</course>
  <speed>0.0316227766016838</speed>
  <fix>3d</fix>
</trkpt>
<trkpt lat="-27.2744679" lon="151.2902329">
  <ele>351.84</ele>
  <time>2026-09-01T19:53:53Z</time>
  <course>287.14</course>
  <speed>0.04</speed>
  <fix>3d</fix>
</trkpt>
<trkpt lat="-27.2744679" lon="151.2902327">
  <ele>351.69</ele>
  <time>2026-09-01T19:53:53Z</time>
  <course>105.39</course>
  <speed>0.0316227766016838</speed>
  <fix>3d</fix>
</trkpt>
<trkpt lat="-27.2744679" lon="151.2902329">
  <ele>351.84</ele>
  <time>2026-09-01T19:53:53Z</time>
  <course>287.14</course>
  <speed>0.04</speed>
  <fix>3d</fix>
</trkpt>
<trkpt lat="-27.2744679" lon="151.2902327">
  <ele>351.64</ele>
  <time>2026-09-01T19:53:53Z</time>
  <course>105.39</course>
  <speed>0.0316227766016838</speed>
  <fix>3d</fix>
</trkpt>
<trkpt lat="-27.2744679" lon="151.2902328">
  <ele>351.74</ele>
  <time>2026-09-01T19:53:53Z</time>
  <course>287.18</course>
  <speed>0.04</speed>
  <fix>3d</fix>
</trkpt>
<trkpt lat="-27.2744678" lon="151.2902327">
  <ele>351.59</ele>
  <time>2026-09-01T19:53:53Z</time>
  <course>105.4</course>
  <speed>0.0316227766016838</speed>
  <fix>3d</fix>
</trkpt>
<trkpt lat="-27.2744679" lon="151.2902328">
  <ele>351.74</ele>
  <time>2026-09-01T19:53:53Z</time>
  <course>287.18</course>
  <speed>0.04</speed>
  <fix>3d</fix>
</trkpt>
<trkpt lat="-27.2744678" lon="151.2902327">
  <ele>351.54</ele>
  <time>2026-09-01T19:53:53Z</time>
  <course>105.4</course>
  <speed>0.02</speed>
  <fix>3d</fix>
</trkpt>
<trkpt lat="-27.2744678" lon="151.2902327">
  <ele>351.64</ele>
  <time>2026-09-01T19:53:53Z</time>
  <course>287.45</course>
  <speed>0.03</speed>
  <fix>3d</fix>
</trkpt>
<trkpt lat="-27.2744678" lon="151.2902327">
  <ele>351.49</ele>
  <time>2026-09-01T19:53:53Z</time>
  <course>105.41</course>
  <speed>0.02</speed>
  <fix>3d</fix>
</trkpt>
<trkpt lat="-27.2744678" lon="151.2902327">
  <ele>351.64</ele>
  <time>2026-09-01T19:53:53Z</time>
  <course>287.45</course>
  <speed>0.03</speed>
  <fix>3d</fix>
</trkpt>
<trkpt lat="-27.2744678" lon="151.2902327">
  <ele>351.44</ele>
  <time>2026-09-01T19:53:53Z</time>
  <course>105.42</course>
  <speed>0.02</speed>
  <fix>3d</fix>
</trkpt>
<trkpt lat="-27.2744678" lon="151.2902327">
  <ele>351.53</ele>
  <time>2026-09-01T19:53:53Z</time>
  <course>287.96</course>
  <speed>0.03</speed>
  <fix>3d</fix>
</trkpt>
<trkpt lat="-27.2744678" lon="151.2902327">
  <ele>351.39</ele>
  <time>2026-09-01T19:53:53Z</time>
  <course>105.42</course>
  <speed>0.02</speed>
  <fix>3d</fix>
</trkpt>
<trkpt lat="-27.2744678" lon="151.2902327">
  <ele>351.53</ele>
  <time>2026-09-01T19:53:53Z</time>
  <course>287.96</course>
  <speed>0.03</speed>
  <fix>3d</fix>
</trkpt>
<trkpt lat="-27.2744678" lon="151.2902326">
  <ele>351.34</ele>
  <time>2026-09-01T19:53:53Z</time>
  <course>105.42</course>
  <speed>0.01</speed>
  <fix>3d</fix>
</trkpt>
<trkpt lat="-27.2744678" lon="151.2902327">
  <ele>351.44</ele>
  <time>2026-09-01T19:53:53Z</time>
  <course>288.82</course>
  <speed>0.02</speed>
  <fix>3d</fix>
</trkpt>
<trkpt lat="-27.2744678" lon="151.2902326">
  <ele>351.29</ele>
  <time>2026-09-01T19:53:53Z</time>
  <course>105.42</course>
  <speed>0.01</speed>
  <fix>3d</fix>
</trkpt>
<trkpt lat="-27.2744678" lon="151.2902327">
  <ele>351.44</ele>
  <time>2026-09-01T19:53:53Z</time>
  <course>288.82</course>
  <speed>0.02</speed>
  <fix>3d</fix>
</trkpt>
<trkpt lat="-27.2744678" lon="151.2902326">
  <ele>351.24</ele>
  <time>2026-09-01T19:53:53Z</time>
  <course>105.42</course>
  <speed>0.01</speed>
  <fix>3d</fix>
</trkpt>
<trkpt lat="-27.2744678" lon="151.2902326">
  <ele>351.34</ele>
  <time>2026-09-01T19:53:53Z</time>
  <course>289.81</course>
  <speed>0.01</speed>
  <fix>3d</fix>
</trkpt>
<trkpt lat="-27.2744678" lon="151.2902326">
  <ele>351.19</ele>
  <time>2026-09-01T19:53:53Z</time>
  <course>105.42</course>
  <speed>0.01</speed>
  <fix>3d</fix>
</trkpt>
<trkpt lat="-27.2744678" lon="151.2902326">
  <ele>351.34</ele>
  <time>2026-09-01T19:53:53Z</time>
  <course>289.81</course>
  <speed>0.01</speed>
  <fix>3d</fix>
</trkpt>
<trkpt lat="-27.2744678" lon="151.2902326">
  <ele>351.14</ele>
  <time>2026-09-01T19:53:53Z</time>
  <course>105.42</course>
  <speed>0.0</speed>
  <fix>3d</fix>
</trkpt>
<trkpt lat="-27.2744678" lon="151.2902326">
  <ele>351.24</ele>
  <time>2026-09-01T19:53:53Z</time>
  <course>291.46</course>
  <speed>0.01</speed>
  <fix>3d</fix>
</trkpt>
<trkpt lat="-27.2744678" lon="151.2902326">
  <ele>351.09</ele>
  <time>2026-09-01T19:53:53Z</time>
  <course>105.42</course>
  <speed>0.0</speed>
  <fix>3d</fix>
</trkpt>
<trkpt lat="-27.2744678" lon="151.2902326">
  <ele>351.24</ele>
  <time>2026-09-01T19:53:53Z</time>
  <course>291.46</course>
  <speed>0.01</speed>
  <fix>3d</fix>
</trkpt>
<trkpt lat="-27.2744678" lon="151.2902326">
  <ele>351.04</ele>
  <time>2026-09-01T19:53:53Z</time>
  <course>105.42</course>
  <speed>0.0</speed>
  <fix>3d</fix>
</trkpt>
<trkpt lat="-27.2744678" lon="151.2902326">
  <ele>351.14</ele>
  <time>2026-09-01T19:53:53Z</time>
  <course>294.65</course>
  <speed>0.0</speed>
  <fix>3d</fix>
</trkpt>
<trkpt lat="-27.2744678" lon="151.2902326">
  <ele>350.99</ele>
  <time>2026-09-01T19:53:53Z</time>
  <course>105.41</course>
  <speed>0.0</speed>
  <fix>3d</fix>
</trkpt>
<trkpt lat="-27.2744678" lon="151.2902326">
  <ele>351.14</ele>
  <time>2026-09-01T19:53:53Z</time>
  <course>294.65</course>
  <speed>0.0</speed>
  <fix>3d</fix>
</trkpt>
<trkpt lat="-27.2744678" lon="151.2902326">
  <ele>350.94</ele>
  <time>2026-09-01T19:53:53Z</time>
  <course>105.4</course>
  <speed>0.0</speed>
  <fix>3d</fix>
</trkpt>
<trkpt lat="-27.2744678" lon="151.2902326">
  <ele>351.03</ele>
  <time>2026-09-01T19:53:53Z</time>
  <course>303.88</course>
  <speed>0.0</speed>
  <fix>3d</fix>
</trkpt>
<trkpt lat="-27.2744678" lon="151.2902326">
  <ele>350.89</ele>
  <time>2026-09-01T19:53:53Z</time>
  <course>105.36</course>
  <speed>0.0</speed>
  <fix>3d</fix>
</trkpt>
<trkpt lat="-27.2744678" lon="151.2902326">
  <ele>351.03</ele>
  <time>2026-09-01T19:53:53Z</time>
  <course>303.88</course>
  <speed>0.0</speed>
  <fix>3d</fix>
</trkpt>
<trkpt lat="-27.2744678" lon="151.2902326">
  <ele>350.84</ele>
  <time>2026-09-01T19:53:53Z</time>
  <course>105.31</course>
  <speed>0.0</speed>
  <fix>3d</fix>
</trkpt>
<trkpt lat="-27.2744678" lon="151.2902326">
  <ele>350.94</ele>
  <time>2026-09-01T19:53:53Z</time>
  <course>109.14</course>
  <speed>0.0</speed>
  <fix>3d</fix>
</trkpt>
<trkpt lat="-27.2744678" lon="151.2902326">
  <ele>350.79</ele>
  <time>2026-09-01T19:53:53Z</time>
  <course>105.25</course>
  <speed>0.0</speed>
  <fix>3d</fix>
</trkpt>
<trkpt lat="-27.2744678" lon="151.2902326">
  <ele>350.94</ele>
  <time>2026-09-01T19:53:53Z</time>
  <course>109.14</course>
  <speed>0.0</speed>
  <fix>3d</fix>
</trkpt>
<trkpt lat="-27.2744678" lon="151.2902326">
  <ele>350.74</ele>
  <time>2026-09-01T19:53:53Z</time>
  <course>105.19</course>
  <speed>0.0</speed>
  <fix>3d</fix>
</trkpt>
<trkpt lat="-27.2744678" lon="151.2902326">
  <ele>350.84</ele>
  <time>2026-09-01T19:53:53Z</time>
  <course>144.51</course>
  <speed>0.0</speed>
  <fix>3d</fix>
</trkpt>
<trkpt lat="-27.2744678" lon="151.2902326">
  <ele>350.69</ele>
  <time>2026-09-01T19:53:53Z</time>
  <course>105.14</course>
  <speed>0.01</speed>
  <fix>3d</fix>
</trkpt>
<trkpt lat="-27.2744678" lon="151.2902326">
  <ele>350.84</ele>
  <time>2026-09-01T19:53:53Z</time>
  <course>144.51</course>
  <speed>0.0</speed>
  <fix>3d</fix>
</trkpt>
<trkpt lat="-27.2744678" lon="151.2902326">
  <ele>350.64</ele>
  <time>2026-09-01T19:53:53Z</time>
  <course>105.11</course>
  <speed>0.01</speed>
  <fix>3d</fix>
</trkpt>
<trkpt lat="-27.2744678" lon="151.2902326">
  <ele>350.74</ele>
  <time>2026-09-01T19:53:53Z</time>
  <course>148.23</course>
  <speed>0.01</speed>
  <fix>3d</fix>
</trkpt>
<trkpt lat="-27.2744678" lon="151.2902326">
  <ele>350.59</ele>
  <time>2026-09-01T19:53:53Z</time>
  <course>105.09</course>
  <speed>0.01</speed>
  <fix>3d</fix>
</trkpt>
<trkpt lat="-27.2744678" lon="151.2902326">
  <ele>350.74</ele>
  <time>2026-09-01T19:53:53Z</time>
  <course>148.23</course>
  <speed>0.01</speed>
  <fix>3d</fix>
</trkpt>
<trkpt lat="-27.2744678" lon="151.2902326">
  <ele>350.54</ele>
  <time>2026-09-01T19:53:53Z</time>
  <course>105.09</course>
  <speed>0.01414213562373095</speed>
  <fix>3d</fix>
</trkpt>
<trkpt lat="-27.2744678" lon="151.2902326">
  <ele>350.64</ele>
  <time>2026-09-01T19:53:53Z</time>
  <course>148.88</course>
  <speed>0.01</speed>
  <fix>3d</fix>
</trkpt>
<trkpt lat="-27.2744678" lon="151.2902326">
  <ele>350.49</ele>
  <time>2026-09-01T19:53:53Z</time>
  <course>105.09</course>
  <speed>0.01414213562373095</speed>
  <fix>3d</fix>
</trkpt>
<trkpt lat="-27.2744678" lon="151.2902326">
  <ele>350.64</ele>
  <time>2026-09-01T19:53:53Z</time>
  <course>148.88</course>
  <speed>0.01</speed>
  <fix>3d</fix>
</trkpt>
<trkpt lat="-27.2744678" lon="151.2902326">
  <ele>350.44</ele>
  <time>2026-09-01T19:53:53Z</time>
  <course>105.1</course>
  <speed>0.022360679774997897</speed>
  <fix>3d</fix>
</trkpt>
<trkpt lat="-27.2744678" lon="151.2902326">
  <ele>350.53</ele>
  <time>2026-09-01T19:53:53Z</time>
  <course>147.9</course>
  <speed>0.02</speed>
  <fix>3d</fix>
</trkpt>
<trkpt lat="-27.2744678" lon="151.2902326">
  <ele>350.39</ele>
  <time>2026-09-01T19:53:53Z</time>
  <course>105.11</course>
  <speed>0.022360679774997897</speed>
  <fix>3d</fix>
</trkpt>
<trkpt lat="-27.2744678" lon="151.2902326">
  <ele>350.53</ele>
  <time>2026-09-01T19:53:53Z</time>
  <course>147.9</course>
  <speed>0.02</speed>
  <fix>3d</fix>
</trkpt>
<trkpt lat="-27.2744678" lon="151.2902326">
  <ele>350.34</ele>
  <time>2026-09-01T19:53:53Z</time>
  <course>105.13</course>
  <speed>0.022360679774997897</speed>
  <fix>3d</fix>
</trkpt>
<trkpt lat="-27.2744678" lon="151.2902326">
  <ele>350.44</ele>
  <time>2026-09-01T19:53:53Z</time>
  <course>146.88</course>
  <speed>0.02</speed>
  <fix>3d</fix>
</trkpt>
<trkpt lat="-27.2744678" lon="151.2902326">
  <ele>350.29</ele>
  <time>2026-09-01T19:53:53Z</time>
  <course>105.14</course>
  <speed>0.022360679774997897</speed>
  <fix>3d</fix>
</trkpt>
<trkpt lat="-27.2744678" lon="151.2902326">
  <ele>350.44</ele>
  <time>2026-09-01T19:53:53Z</time>
  <course>146.88</course>
  <speed>0.02</speed>
  <fix>3d</fix>
</trkpt>
<trkpt lat="-27.2744679" lon="151.2902326">
  <ele>350.24</ele>
  <time>2026-09-01T19:53:53Z</time>
  <course>105.15</course>
  <speed>0.022360679774997897</speed>
  <fix>3d</fix>
</trkpt>
<trkpt lat="-27.2744678" lon="151.2902326">
  <ele>350.34</ele>
  <time>2026-09-01T19:53:53Z</time>
  <course>146.61</course>
  <speed>0.02</speed>
  <fix>3d</fix>
</trkpt>
<trkpt lat="-27.2744679" lon="151.2902326">
  <ele>350.19</ele>
  <time>2026-09-01T19:53:53Z</time>
  <course>105.16</course>
  <speed>0.022360679774997897</speed>
  <fix>3d</fix>
</trkpt>
<trkpt lat="-27.2744678" lon="151.2902326">
  <ele>350.34</ele>
  <time>2026-09-01T19:53:53Z</time>
  <course>146.61</course>
  <speed>0.02</speed>
  <fix>3d</fix>
</trkpt>
<trkpt lat="-27.2744679" lon="151.2902327">
  <ele>350.14</ele>
  <time>2026-09-01T19:53:53Z</time>
  <course>105.16</course>
  <speed>0.022360679774997897</speed>
  <fix>3d</fix>
</trkpt>
<trkpt lat="-27.2744678" lon="151.2902326">
  <ele>350.24</ele>
  <time>2026-09-01T19:53:53Z</time>
  <course>146.66</course>
  <speed>0.03</speed>
  <fix>3d</fix>
</trkpt>
<trkpt lat="-27.2744679" lon="151.2902327">
  <ele>350.09</ele>
  <time>2026-09-01T19:53:53Z</time>
  <course>105.16</course>
  <speed>0.022360679774997897</speed>
  <fix>3d</fix>
</trkpt>
<trkpt lat="-27.2744678" lon="151.2902326">
  <ele>350.24</ele>
  <time>2026-09-01T19:53:53Z</time>
  <course>146.66</course>
  <speed>0.03</speed>
  <fix>3d</fix>
</trkpt>
<trkpt lat="-27.274468" lon="151.2902327">
  <ele>350.04</ele>
  <time>2026-09-01T19:53:53Z</time>
  <course>105.16</course>
  <speed>0.022360679774997897</speed>
  <fix>3d</fix>
</trkpt>
<trkpt lat="-27.2744679" lon="151.2902326">
  <ele>350.14</ele>
  <time>2026-09-01T19:53:53Z</time>
  <course>146.47</course>
  <speed>0.03</speed>
  <fix>3d</fix>
</trkpt>
<trkpt lat="-27.274468" lon="151.2902327">
  <ele>349.99</ele>
  <time>2026-09-01T19:53:53Z</time>
  <course>105.15</course>
  <speed>0.0282842712474619</speed>
  <fix>3d</fix>
</trkpt>
<trkpt lat="-27.2744679" lon="151.2902326">
  <ele>350.14</ele>
  <time>2026-09-01T19:53:53Z</time>
  <course>146.47</course>
  <speed>0.03</speed>
  <fix>3d</fix>
</trkpt>
<trkpt lat="-27.274468" lon="151.2902327">
  <ele>349.94</ele>
  <time>2026-09-01T19:53:53Z</time>
  <course>105.15</course>
  <speed>0.0282842712474619</speed>
  <fix>3d</fix>
</trkpt>
<trkpt lat="-27.2744679" lon="151.2902327">
  <ele>350.03</ele>
  <time>2026-09-01T19:53:53Z</time>
  <course>146.01</course>
  <speed>0.03</speed>
  <fix>3d</fix>
</trkpt>
<trkpt lat="-27.274468" lon="151.2902327">
  <ele>349.89</ele>
  <time>2026-09-01T19:53:53Z</time>
  <course>105.14</course>
  <speed>0.0282842712474619</speed>
  <fix>3d</fix>
</trkpt>
<trkpt lat="-27.2744679" lon="151.2902327">
  <ele>350.03</ele>
  <time>2026-09-01T19:53:53Z</time>
  <course>146.01</course>
  <speed>0.03</speed>
  <fix>3d</fix>
</trkpt>
<trkpt lat="-27.2744681" lon="151.2902327">
  <ele>349.84</ele>
  <time>2026-09-01T19:53:53Z</time>
  <course>105.14</course>
  <speed>0.0282842712474619</speed>
  <fix>3d</fix>
</trkpt>
<trkpt lat="-27.274468" lon="151.2902327">
  <ele>349.94</ele>
  <time>2026-09-01T19:53:53Z</time>
  <course>145.49</course>
  <speed>0.03</speed>
  <fix>3d</fix>
</trkpt>
<trkpt lat="-27.2744681" lon="151.2902327">
  <ele>349.79</ele>
  <time>2026-09-01T19:53:53Z</time>
  <course>105.13</course>
  <speed>0.0282842712474619</speed>
  <fix>3d</fix>
</trkpt>
<trkpt lat="-27.274468" lon="151.2902327">
  <ele>349.94</ele>
  <time>2026-09-01T19:53:53Z</time>
  <course>145.49</course>
  <speed>0.03</speed>
  <fix>3d</fix>
</trkpt>
<trkpt lat="-27.2744681" lon="151.2902327">
  <ele>349.74</ele>
  <time>2026-09-01T19:53:53Z</time>
  <course>105.13</course>
  <speed>0.0282842712474619</speed>
  <fix>3d</fix>
</trkpt>
<trkpt lat="-27.274468" lon="151.2902327">
  <ele>349.84</ele>
  <time>2026-09-01T19:53:53Z</time>
  <course>144.73</course>
  <speed>0.03</speed>
  <fix>3d</fix>
</trkpt>
<trkpt lat="-27.2744681" lon="151.2902327">
  <ele>349.69</ele>
  <time>2026-09-01T19:53:53Z</time>
  <course>105.12</course>
  <speed>0.0282842712474619</speed>
  <fix>3d</fix>
</trkpt>
<trkpt lat="-27.274468" lon="151.2902327">
  <ele>349.84</ele>
  <time>2026-09-01T19:53:53Z</time>
  <course>144.73</course>
  <speed>0.03</speed>
  <fix>3d</fix>
</trkpt>
<trkpt lat="-27.2744682" lon="151.2902329">
  <ele>349.64</ele>
  <time>2026-09-01T19:53:53Z</time>
  <course>105.12</course>
  <speed>0.0282842712474619</speed>
  <fix>3d</fix>
</trkpt>
<trkpt lat="-27.2744681" lon="151.2902327">
  <ele>349.74</ele>
  <time>2026-09-01T19:53:53Z</time>
  <course>143.31</course>
  <speed>0.03</speed>
  <fix>3d</fix>
</trkpt>
<trkpt lat="-27.2744682" lon="151.2902329">
  <ele>349.59</ele>
  <time>2026-09-01T19:53:53Z</time>
  <course>105.11</course>
  <speed>0.0282842712474619</speed>
  <fix>3d</fix>
</trkpt>
<trkpt lat="-27.2744681" lon="151.2902327">
  <ele>349.74</ele>
  <time>2026-09-01T19:53:53Z</time>
  <course>143.31</course>
  <speed>0.03</speed>
  <fix>3d</fix>
</trkpt>
<trkpt lat="-27.2744682" lon="151.2902329">
  <ele>349.54</ele>
  <time>2026-09-01T19:53:54Z</time>
  <course>105.1</course>
  <speed>0.022360679774997897</speed>
  <fix>3d</fix>
</trkpt>
<trkpt lat="-27.2744681" lon="151.2902328">
  <ele>349.64</ele>
  <time>2026-09-01T19:53:54Z</time>
  <course>141.29</course>
  <speed>0.03</speed>
  <fix>3d</fix>
</trkpt>
<trkpt lat="-27.2744682" lon="151.2902329">
  <ele>349.49</ele>
  <time>2026-09-01T19:53:54Z</time>
  <course>105.09</course>
  <speed>0.022360679774997897</speed>
  <fix>3d</fix>
</trkpt>
<trkpt lat="-27.2744681" lon="151.2902328">
  <ele>349.64</ele>
  <time>2026-09-01T19:53:54Z</time>
  <course>141.29</course>
  <speed>0.03</speed>
  <fix>3d</fix>
</trkpt>
<trkpt lat="-27.2744683" lon="151.2902329">
  <ele>349.44</ele>
  <time>2026-09-01T19:53:54Z</time>
  <course>105.08</course>
  <speed>0.01414213562373095</speed>
  <fix>3d</fix>
</trkpt>
<trkpt lat="-27.2744682" lon="151.2902329">
  <ele>349.53</ele>
  <time>2026-09-01T19:53:54Z</time>
  <course>139.48</course>
  <speed>0.03</speed>
  <fix>3d</fix>
</trkpt>
<trkpt lat="-27.2744683" lon="151.290233">
  <ele>349.39</ele>
  <time>2026-09-01T19:53:54Z</time>
  <course>105.08</course>
  <speed>0.01414213562373095</speed>
  <fix>3d</fix>
</trkpt>
<trkpt lat="-27.2744682" lon="151.2902329">
  <ele>349.53</ele>
  <time>2026-09-01T19:53:54Z</time>
  <course>139.48</course>
  <speed>0.03</speed>
  <fix>3d</fix>
</trkpt>
<trkpt lat="-27.2744683" lon="151.290233">
  <ele>349.34</ele>
  <time>2026-09-01T19:53:54Z</time>
  <course>105.07</course>
  <speed>0.01414213562373095</speed>
  <fix>3d</fix>
</trkpt>
<trkpt lat="-27.2744682" lon="151.2902329">
  <ele>349.44</ele>
  <time>2026-09-01T19:53:54Z</time>
  <course>137.66</course>
  <speed>0.02</speed>
  <fix>3d</fix>
</trkpt>
<trkpt lat="-27.2744683" lon="151.290233">
  <ele>349.29</ele>
  <time>2026-09-01T19:53:54Z</time>
  <course>105.06</course>
  <speed>0.01414213562373095</speed>
  <fix>3d</fix>
</trkpt>
<trkpt lat="-27.2744682" lon="151.2902329">
  <ele>349.44</ele>
  <time>2026-09-01T19:53:54Z</time>
  <course>137.66</course>
  <speed>0.02</speed>
  <fix>3d</fix>
</trkpt>
<trkpt lat="-27.2744683" lon="151.290233">
  <ele>349.24</ele>
  <time>2026-09-01T19:53:54Z</time>
  <course>105.05</course>
  <speed>0.01414213562373095</speed>
  <fix>3d</fix>
</trkpt>
<trkpt lat="-27.2744683" lon="151.2902329">
  <ele>349.34</ele>
  <time>2026-09-01T19:53:54Z</time>
  <course>134.4</course>
  <speed>0.02</speed>
  <fix>3d</fix>
</trkpt>
<trkpt lat="-27.2744683" lon="151.290233">
  <ele>349.19</ele>
  <time>2026-09-01T19:53:54Z</time>
  <course>105.05</course>
  <speed>0.01414213562373095</speed>
  <fix>3d</fix>
</trkpt>
<trkpt lat="-27.2744683" lon="151.2902329">
  <ele>349.34</ele>
  <time>2026-09-01T19:53:54Z</time>
  <course>134.4</course>
  <speed>0.02</speed>
  <fix>3d</fix>
</trkpt>
<trkpt lat="-27.2744683" lon="151.290233">
  <ele>349.14</ele>
  <time>2026-09-01T19:53:54Z</time>
  <course>105.05</course>
  <speed>0.01</speed>
  <fix>3d</fix>
</trkpt>
<trkpt lat="-27.2744683" lon="151.290233">
  <ele>349.24</ele>
  <time>2026-09-01T19:53:54Z</time>
  <course>130.05</course>
  <speed>0.01</speed>
  <fix>3d</fix>
</trkpt>
<trkpt lat="-27.2744683" lon="151.290233">
  <ele>349.09</ele>
  <time>2026-09-01T19:53:54Z</time>
  <course>105.04</course>
  <speed>0.01</speed>
  <fix>3d</fix>
</trkpt>
<trkpt lat="-27.2744683" lon="151.290233">
  <ele>349.24</ele>
  <time>2026-09-01T19:53:54Z</time>
  <course>130.05</course>
  <speed>0.01</speed>
  <fix>3d</fix>
</trkpt>
<trkpt lat="-27.2744683" lon="151.290233">
  <ele>349.04</ele>
  <time>2026-09-01T19:53:54Z</time>
  <course>105.04</course>
  <speed>0.01</speed>
  <fix>3d</fix>
</trkpt>
<trkpt lat="-27.2744683" lon="151.290233">
  <ele>349.14</ele>
  <time>2026-09-01T19:53:54Z</time>
  <course>125.57</course>
  <speed>0.01</speed>
  <fix>3d</fix>
</trkpt>
<trkpt lat="-27.2744683" lon="151.2902331">
  <ele>348.99</ele>
  <time>2026-09-01T19:53:54Z</time>
  <course>105.03</course>
  <speed>0.0</speed>
  <fix>3d</fix>
</trkpt>
<trkpt lat="-27.2744683" lon="151.290233">
  <ele>349.14</ele>
  <time>2026-09-01T19:53:54Z</time>
  <course>125.57</course>
  <speed>0.01</speed>
  <fix>3d</fix>
</trkpt>
<trkpt lat="-27.2744684" lon="151.2902331">
  <ele>348.94</ele>
  <time>2026-09-01T19:53:54Z</time>
  <course>105.02</course>
  <speed>0.0</speed>
  <fix>3d</fix>
</trkpt>
<trkpt lat="-27.2744683" lon="151.290233">
  <ele>349.03</ele>
  <time>2026-09-01T19:53:54Z</time>
  <course>120.17</course>
  <speed>0.01</speed>
  <fix>3d</fix>
</trkpt>
<trkpt lat="-27.2744684" lon="151.2902331">
  <ele>348.89</ele>
  <time>2026-09-01T19:53:54Z</time>
  <course>105.02</course>
  <speed>0.0</speed>
  <fix>3d</fix>
</trkpt>
<trkpt lat="-27.2744683" lon="151.290233">
  <ele>349.03</ele>
  <time>2026-09-01T19:53:54Z</time>
  <course>120.17</course>
  <speed>0.01</speed>
  <fix>3d</fix>
</trkpt>
<trkpt lat="-27.2744684" lon="151.2902331">
  <ele>348.84</ele>
  <time>2026-09-01T19:53:54Z</time>
  <course>105.01</course>
  <speed>0.0</speed>
  <fix>3d</fix>
</trkpt>
<trkpt lat="-27.2744683" lon="151.2902331">
  <ele>348.94</ele>
  <time>2026-09-01T19:53:54Z</time>
  <course>113.88</course>
  <speed>0.0</speed>
  <fix>3d</fix>
</trkpt>
<trkpt lat="-27.2744684" lon="151.2902331">
  <ele>348.79</ele>
  <time>2026-09-01T19:53:54Z</time>
  <course>105.0</course>
  <speed>0.0</speed>
  <fix>3d</fix>
</trkpt>
<trkpt lat="-27.2744683" lon="151.2902331">
  <ele>348.94</ele>
  <time>2026-09-01T19:53:54Z</time>
  <course>113.88</course>
  <speed>0.0</speed>
  <fix>3d</fix>
</trkpt>
<trkpt lat="-27.2744684" lon="151.2902331">
  <ele>348.74</ele>
  <time>2026-09-01T19:53:54Z</time>
  <course>104.99</course>
  <speed>0.0</speed>
  <fix>3d</fix>
</trkpt>
<trkpt lat="-27.2744684" lon="151.2902331">
  <ele>348.84</ele>
  <time>2026-09-01T19:53:54Z</time>
  <course>105.83</course>
  <speed>0.0</speed>
  <fix>3d</fix>
</trkpt>
<trkpt lat="-27.2744684" lon="151.2902331">
  <ele>348.69</ele>
  <time>2026-09-01T19:53:54Z</time>
  <course>104.97</course>
  <speed>0.0</speed>
  <fix>3d</fix>
</trkpt>
<trkpt lat="-27.2744684" lon="151.2902331">
  <ele>348.84</ele>
  <time>2026-09-01T19:53:54Z</time>
  <course>105.83</course>
  <speed>0.0</speed>
  <fix>3d</fix>
</trkpt>
<trkpt lat="-27.2744684" lon="151.2902331">
  <ele>348.64</ele>
  <time>2026-09-01T19:53:54Z</time>
  <course>104.94</course>
  <speed>0.0</speed>
  <fix>3d</fix>
</trkpt>
<trkpt lat="-27.2744684" lon="151.2902331">
  <ele>348.74</ele>
  <time>2026-09-01T19:53:54Z</time>
  <course>93.33</course>
  <speed>0.0</speed>
  <fix>3d</fix>
</trkpt>
<trkpt lat="-27.2744684" lon="151.2902331">
  <ele>348.59</ele>
  <time>2026-09-01T19:53:54Z</time>
  <course>104.9</course>
  <speed>0.0</speed>
  <fix>3d</fix>
</trkpt>
<trkpt lat="-27.2744684" lon="151.2902331">
  <ele>348.74</ele>
  <time>2026-09-01T19:53:54Z</time>
  <course>93.33</course>
  <speed>0.0</speed>
  <fix>3d</fix>
</trkpt>
<trkpt lat="-27.2744684" lon="151.2902331">
  <ele>348.54</ele>
  <time>2026-09-01T19:53:54Z</time>
  <course>104.88</course>
  <speed>0.0</speed>
  <fix>3d</fix>
</trkpt>
<trkpt lat="-27.2744684" lon="151.2902331">
  <ele>348.64</ele>
  <time>2026-09-01T19:53:54Z</time>
  <course>91.71</course>
  <speed>0.0</speed>
  <fix>3d</fix>
</trkpt>
<trkpt lat="-27.2744684" lon="151.2902331">
  <ele>348.49</ele>
  <time>2026-09-01T19:53:54Z</time>
  <course>104.87</course>
  <speed>0.0</speed>
  <fix>3d</fix>
</trkpt>
<trkpt lat="-27.2744684" lon="151.2902331">
  <ele>348.64</ele>
  <time>2026-09-01T19:53:54Z</time>
  <course>91.71</course>
  <speed>0.0</speed>
  <fix>3d</fix>
</trkpt>
<trkpt lat="-27.2744684" lon="151.2902331">
  <ele>348.44</ele>
  <time>2026-09-01T19:53:54Z</time>
  <course>104.87</course>
  <speed>0.0</speed>
  <fix>3d</fix>
</trkpt>
<trkpt lat="-27.2744684" lon="151.2902331">
  <ele>348.53</ele>
  <time>2026-09-01T19:53:54Z</time>
  <course>256.06</course>
  <speed>0.0</speed>
  <fix>3d</fix>
</trkpt>
<trkpt lat="-27.2744684" lon="151.2902331">
  <ele>348.39</ele>
  <time>2026-09-01T19:53:54Z</time>
  <course>104.87</course>
  <speed>0.0</speed>
  <fix>3d</fix>
</trkpt>
<trkpt lat="-27.2744684" lon="151.2902331">
  <ele>348.53</ele>
  <time>2026-09-01T19:53:54Z</time>
  <course>256.06</course>
  <speed>0.0</speed>
  <fix>3d</fix>
</trkpt>
<trkpt lat="-27.2744684" lon="151.2902331">
  <ele>348.34</ele>
  <time>2026-09-01T19:53:54Z</time>
  <course>104.88</course>
  <speed>0.0</speed>
  <fix>3d</fix>
</trkpt>
<trkpt lat="-27.2744684" lon="151.2902331">
  <ele>348.44</ele>
  <time>2026-09-01T19:53:54Z</time>
  <course>273.0</course>
  <speed>0.0</speed>
  <fix>3d</fix>
</trkpt>
<trkpt lat="-27.2744684" lon="151.2902331">
  <ele>348.29</ele>
  <time>2026-09-01T19:53:54Z</time>
  <course>104.89</course>
  <speed>0.0</speed>
  <fix>3d</fix>
</trkpt>
<trkpt lat="-27.2744684" lon="151.2902331">
  <ele>348.44</ele>
  <time>2026-09-01T19:53:54Z</time>
  <course>273.0</course>
  <speed>0.0</speed>
  <fix>3d</fix>
</trkpt>
<trkpt lat="-27.2744684" lon="151.2902331">
  <ele>348.24</ele>
  <time>2026-09-01T19:53:54Z</time>
  <course>104.9</course>
  <speed>0.0</speed>
  <fix>3d</fix>
</trkpt>
<trkpt lat="-27.2744684" lon="151.2902331">
  <ele>348.34</ele>
  <time>2026-09-01T19:53:54Z</time>
  <course>275.12</course>
  <speed>0.0</speed>
  <fix>3d</fix>
</trkpt>
<trkpt lat="-27.2744684" lon="151.2902331">
  <ele>348.19</ele>
  <time>2026-09-01T19:53:54Z</time>
  <course>104.89</course>
  <speed>0.0</speed>
  <fix>3d</fix>
</trkpt>
<trkpt lat="-27.2744684" lon="151.2902331">
  <ele>348.34</ele>
  <time>2026-09-01T19:53:54Z</time>
  <course>275.12</course>
  <speed>0.0</speed>
  <fix>3d</fix>
</trkpt>
<trkpt lat="-27.2744684" lon="151.2902331">
  <ele>348.14</ele>
  <time>2026-09-01T19:53:54Z</time>
  <course>104.88</course>
  <speed>0.0</speed>
  <fix>3d</fix>
</trkpt>
<trkpt lat="-27.2744684" lon="151.2902331">
  <ele>348.24</ele>
  <time>2026-09-01T19:53:54Z</time>
  <course>276.17</course>
  <speed>0.0</speed>
  <fix>3d</fix>
</trkpt>
<trkpt lat="-27.2744684" lon="151.2902331">
  <ele>348.09</ele>
  <time>2026-09-01T19:53:54Z</time>
  <course>104.87</course>
  <speed>0.0</speed>
  <fix>3d</fix>
</trkpt>
<trkpt lat="-27.2744684" lon="151.2902331">
  <ele>348.24</ele>
  <time>2026-09-01T19:53:54Z</time>
  <course>276.17</course>
  <speed>0.0</speed>
  <fix>3d</fix>
</trkpt>
<trkpt lat="-27.2744684" lon="151.2902331">
  <ele>348.04</ele>
  <time>2026-09-01T19:53:54Z</time>
  <course>104.86</course>
  <speed>0.0</speed>
  <fix>3d</fix>
</trkpt>
<trkpt lat="-27.2744684" lon="151.2902331">
  <ele>348.14</ele>
  <time>2026-09-01T19:53:54Z</time>
  <course>277.43</course>
  <speed>0.0</speed>
  <fix>3d</fix>
</trkpt>
<trkpt lat="-27.2744684" lon="151.2902331">
  <ele>347.99</ele>
  <time>2026-09-01T19:53:54Z</time>
  <course>104.84</course>
  <speed>0.0</speed>
  <fix>3d</fix>
</trkpt>
<trkpt lat="-27.2744684" lon="151.2902331">
  <ele>348.14</ele>
  <time>2026-09-01T19:53:54Z</time>
  <course>277.43</course>
  <speed>0.0</speed>
  <fix>3d</fix>
</trkpt>
<trkpt lat="-27.2744684" lon="151.2902331">
  <ele>347.94</ele>
  <time>2026-09-01T19:53:54Z</time>
  <course>104.82</course>
  <speed>0.0</speed>
  <fix>3d</fix>
</trkpt>
<trkpt lat="-27.2744684" lon="151.2902331">
  <ele>348.03</ele>
  <time>2026-09-01T19:53:54Z</time>
  <course>277.85</course>
  <speed>0.0</speed>
  <fix>3d</fix>
</trkpt>
<trkpt lat="-27.2744684" lon="151.2902331">
  <ele>347.89</ele>
  <time>2026-09-01T19:53:54Z</time>
  <course>104.8</course>
  <speed>0.0</speed>
  <fix>3d</fix>
</trkpt>
<trkpt lat="-27.2744684" lon="151.2902331">
  <ele>348.03</ele>
  <time>2026-09-01T19:53:54Z</time>
  <course>277.85</course>
  <speed>0.0</speed>
  <fix>3d</fix>
</trkpt>
<trkpt lat="-27.2744684" lon="151.2902331">
  <ele>347.84</ele>
  <time>2026-09-01T19:53:54Z</time>
  <course>104.78</course>
  <speed>0.0</speed>
  <fix>3d</fix>
</trkpt>
<trkpt lat="-27.2744684" lon="151.2902331">
  <ele>347.94</ele>
  <time>2026-09-01T19:53:54Z</time>
  <course>277.87</course>
  <speed>0.0</speed>
  <fix>3d</fix>
</trkpt>
<trkpt lat="-27.2744684" lon="151.2902331">
  <ele>347.79</ele>
  <time>2026-09-01T19:53:54Z</time>
  <course>104.77</course>
  <speed>0.0</speed>
  <fix>3d</fix>
</trkpt>
<trkpt lat="-27.2744684" lon="151.2902331">
  <ele>347.94</ele>
  <time>2026-09-01T19:53:54Z</time>
  <course>277.87</course>
  <speed>0.0</speed>
  <fix>3d</fix>
</trkpt>
<trkpt lat="-27.2744684" lon="151.2902331">
  <ele>347.74</ele>
  <time>2026-09-01T19:53:54Z</time>
  <course>104.77</course>
  <speed>0.01</speed>
  <fix>3d</fix>
</trkpt>
<trkpt lat="-27.2744684" lon="151.2902331">
  <ele>347.84</ele>
  <time>2026-09-01T19:53:54Z</time>
  <course>278.17</course>
  <speed>0.0</speed>
  <fix>3d</fix>
</trkpt>
<trkpt lat="-27.2744684" lon="151.2902331">
  <ele>347.69</ele>
  <time>2026-09-01T19:53:54Z</time>
  <course>104.77</course>
  <speed>0.01</speed>
  <fix>3d</fix>
</trkpt>
<trkpt lat="-27.2744684" lon="151.2902331">
  <ele>347.84</ele>
  <time>2026-09-01T19:53:54Z</time>
  <course>278.17</course>
  <speed>0.0</speed>
  <fix>3d</fix>
</trkpt>
<trkpt lat="-27.2744684" lon="151.2902331">
  <ele>347.64</ele>
  <time>2026-09-01T19:53:54Z</time>
  <course>104.77</course>
  <speed>0.01</speed>
  <fix>3d</fix>
</trkpt>
<trkpt lat="-27.2744684" lon="151.2902331">
  <ele>347.74</ele>
  <time>2026-09-01T19:53:54Z</time>
  <course>278.36</course>
  <speed>0.01</speed>
  <fix>3d</fix>
</trkpt>
<trkpt lat="-27.2744684" lon="151.2902331">
  <ele>347.59</ele>
  <time>2026-09-01T19:53:54Z</time>
  <course>104.77</course>
  <speed>0.01</speed>
  <fix>3d</fix>
</trkpt>
<trkpt lat="-27.2744684" lon="151.2902331">
  <ele>347.74</ele>
  <time>2026-09-01T19:53:54Z</time>
  <course>278.36</course>
  <speed>0.01</speed>
  <fix>3d</fix>
</trkpt>
<trkpt lat="-27.2744684" lon="151.2902331">
  <ele>347.54</ele>
  <time>2026-09-01T19:53:54Z</time>
  <course>104.77</course>
  <speed>0.01</speed>
  <fix>3d</fix>
</trkpt>
<trkpt lat="-27.2744684" lon="151.2902331">
  <ele>347.64</ele>
  <time>2026-09-01T19:53:54Z</time>
  <course>278.65</course>
  <speed>0.01</speed>
  <fix>3d</fix>
</trkpt>
<trkpt lat="-27.2744684" lon="151.290233">
  <ele>347.49</ele>
  <time>2026-09-01T19:53:54Z</time>
  <course>104.77</course>
  <speed>0.01</speed>
  <fix>3d</fix>
</trkpt>
<trkpt lat="-27.2744684" lon="151.2902331">
  <ele>347.64</ele>
  <time>2026-09-01T19:53:54Z</time>
  <course>278.65</course>
  <speed>0.01</speed>
  <fix>3d</fix>
</trkpt>
<trkpt lat="-27.2744684" lon="151.290233">
  <ele>347.44</ele>
  <time>2026-09-01T19:53:54Z</time>
  <course>104.76</course>
  <speed>0.01</speed>
  <fix>3d</fix>
</trkpt>
<trkpt lat="-27.2744684" lon="151.290233">
  <ele>347.53</ele>
  <time>2026-09-01T19:53:54Z</time>
  <course>278.79</course>
  <speed>0.01</speed>
  <fix>3d</fix>
</trkpt>
<trkpt lat="-27.2744684" lon="151.290233">
  <ele>347.39</ele>
  <time>2026-09-01T19:53:54Z</time>
  <course>104.75</course>
  <speed>0.01</speed>
  <fix>3d</fix>
</trkpt>
<trkpt lat="-27.2744684" lon="151.290233">
  <ele>347.53</ele>
  <time>2026-09-01T19:53:54Z</time>
  <course>278.79</course>
  <speed>0.01</speed>
  <fix>3d</fix>
</trkpt>
<trkpt lat="-27.2744684" lon="151.290233">
  <ele>347.34</ele>
  <time>2026-09-01T19:53:54Z</time>
  <course>104.73</course>
  <speed>0.01</speed>
  <fix>3d</fix>
</trkpt>
<trkpt lat="-27.2744684" lon="151.290233">
  <ele>347.44</ele>
  <time>2026-09-01T19:53:54Z</time>
  <course>278.25</course>
  <speed>0.01</speed>
  <fix>3d</fix>
</trkpt>
<trkpt lat="-27.2744684" lon="151.290233">
  <ele>347.29</ele>
  <time>2026-09-01T19:53:54Z</time>
  <course>104.72</course>
  <speed>0.01</speed>
  <fix>3d</fix>
</trkpt>
<trkpt lat="-27.2744684" lon="151.290233">
  <ele>347.44</ele>
  <time>2026-09-01T19:53:54Z</time>
  <course>278.25</course>
  <speed>0.01</speed>
  <fix>3d</fix>
</trkpt>
<trkpt lat="-27.2744684" lon="151.290233">
  <ele>347.24</ele>
  <time>2026-09-01T19:53:54Z</time>
  <course>104.71</course>
  <speed>0.01</speed>
  <fix>3d</fix>
</trkpt>
<trkpt lat="-27.2744684" lon="151.290233">
  <ele>347.34</ele>
  <time>2026-09-01T19:53:54Z</time>
  <course>277.59</course>
  <speed>0.01</speed>
  <fix>3d</fix>
</trkpt>
<trkpt lat="-27.2744684" lon="151.290233">
  <ele>347.19</ele>
  <time>2026-09-01T19:53:54Z</time>
  <course>104.71</course>
  <speed>0.01</speed>
  <fix>3d</fix>
</trkpt>
<trkpt lat="-27.2744684" lon="151.290233">
  <ele>347.34</ele>
  <time>2026-09-01T19:53:54Z</time>
  <course>277.59</course>
  <speed>0.01</speed>
  <fix>3d</fix>
</trkpt>
<trkpt lat="-27.2744684" lon="151.290233">
  <ele>347.14</ele>
  <time>2026-09-01T19:53:54Z</time>
  <course>104.71</course>
  <speed>0.01</speed>
  <fix>3d</fix>
</trkpt>
<trkpt lat="-27.2744684" lon="151.290233">
  <ele>347.24</ele>
  <time>2026-09-01T19:53:54Z</time>
  <course>277.13</course>
  <speed>0.01</speed>
  <fix>3d</fix>
</trkpt>
<trkpt lat="-27.2744684" lon="151.2902329">
  <ele>347.09</ele>
  <time>2026-09-01T19:53:54Z</time>
  <course>104.72</course>
  <speed>0.01</speed>
  <fix>3d</fix>
</trkpt>
<trkpt lat="-27.2744684" lon="151.290233">
  <ele>347.24</ele>
  <time>2026-09-01T19:53:54Z</time>
  <course>277.13</course>
  <speed>0.01</speed>
  <fix>3d</fix>
</trkpt>
<trkpt lat="-27.2744684" lon="151.2902329">
  <ele>347.04</ele>
  <time>2026-09-01T19:53:54Z</time>
  <course>104.72</course>
  <speed>0.01</speed>
  <fix>3d</fix>
</trkpt>
<trkpt lat="-27.2744684" lon="151.2902329">
  <ele>347.14</ele>
  <time>2026-09-01T19:53:54Z</time>
  <course>276.54</course>
  <speed>0.01</speed>
  <fix>3d</fix>
</trkpt>
<trkpt lat="-27.2744684" lon="151.2902329">
  <ele>346.99</ele>
  <time>2026-09-01T19:53:54Z</time>
  <course>104.72</course>
  <speed>0.0</speed>
  <fix>3d</fix>
</trkpt>
<trkpt lat="-27.2744684" lon="151.2902329">
  <ele>347.14</ele>
  <time>2026-09-01T19:53:54Z</time>
  <course>276.54</course>
  <speed>0.01</speed>
  <fix>3d</fix>
</trkpt>
<trkpt lat="-27.2744684" lon="151.2902329">
  <ele>346.94</ele>
  <time>2026-09-01T19:53:54Z</time>
  <course>104.72</course>
  <speed>0.0</speed>
  <fix>3d</fix>
</trkpt>
<trkpt lat="-27.2744684" lon="151.2902329">
  <ele>347.03</ele>
  <time>2026-09-01T19:53:54Z</time>
  <course>275.55</course>
  <speed>0.01</speed>
  <fix>3d</fix>
</trkpt>
<trkpt lat="-27.2744684" lon="151.2902329">
  <ele>346.89</ele>
  <time>2026-09-01T19:53:54Z</time>
  <course>104.71</course>
  <speed>0.0</speed>
  <fix>3d</fix>
</trkpt>
<trkpt lat="-27.2744684" lon="151.2902329">
  <ele>347.03</ele>
  <time>2026-09-01T19:53:54Z</time>
  <course>275.55</course>
  <speed>0.01</speed>
  <fix>3d</fix>
</trkpt>
<trkpt lat="-27.2744684" lon="151.2902329">
  <ele>346.84</ele>
  <time>2026-09-01T19:53:54Z</time>
  <course>104.69</course>
  <speed>0.0</speed>
  <fix>3d</fix>
</trkpt>
<trkpt lat="-27.2744684" lon="151.2902329">
  <ele>346.94</ele>
  <time>2026-09-01T19:53:54Z</time>
  <course>273.84</course>
  <speed>0.0</speed>
  <fix>3d</fix>
</trkpt>
<trkpt lat="-27.2744684" lon="151.2902329">
  <ele>346.79</ele>
  <time>2026-09-01T19:53:54Z</time>
  <course>104.68</course>
  <speed>0.0</speed>
  <fix>3d</fix>
</trkpt>
<trkpt lat="-27.2744684" lon="151.2902329">
  <ele>346.94</ele>
  <time>2026-09-01T19:53:54Z</time>
  <course>273.84</course>
  <speed>0.0</speed>
  <fix>3d</fix>
</trkpt>
<trkpt lat="-27.2744684" lon="151.2902329">
  <ele>346.74</ele>
  <time>2026-09-01T19:53:54Z</time>
  <course>104.67</course>
  <speed>0.0</speed>
  <fix>3d</fix>
</trkpt>
<trkpt lat="-27.2744684" lon="151.2902329">
  <ele>346.84</ele>
  <time>2026-09-01T19:53:54Z</time>
  <course>271.21</course>
  <speed>0.0</speed>
  <fix>3d</fix>
</trkpt>
<trkpt lat="-27.2744684" lon="151.2902329">
  <ele>346.69</ele>
  <time>2026-09-01T19:53:54Z</time>
  <course>104.65</course>
  <speed>0.0</speed>
  <fix>3d</fix>
</trkpt>
<trkpt lat="-27.2744684" lon="151.2902329">
  <ele>346.84</ele>
  <time>2026-09-01T19:53:54Z</time>
  <course>271.21</course>
  <speed>0.0</speed>
  <fix>3d</fix>
</trkpt>
<trkpt lat="-27.2744684" lon="151.2902329">
  <ele>346.64</ele>
  <time>2026-09-01T19:53:54Z</time>
  <course>104.63</course>
  <speed>0.0</speed>
  <fix>3d</fix>
</trkpt>
<trkpt lat="-27.2744684" lon="151.2902329">
  <ele>346.74</ele>
  <time>2026-09-01T19:53:54Z</time>
  <course>267.18</course>
  <speed>0.0</speed>
  <fix>3d</fix>
</trkpt>
<trkpt lat="-27.2744684" lon="151.2902329">
  <ele>346.59</ele>
  <time>2026-09-01T19:53:54Z</time>
  <course>104.62</course>
  <speed>0.0</speed>
  <fix>3d</fix>
</trkpt>
<trkpt lat="-27.2744684" lon="151.2902329">
  <ele>346.74</ele>
  <time>2026-09-01T19:53:54Z</time>
  <course>267.18</course>
  <speed>0.0</speed>
  <fix>3d</fix>
</trkpt>
<trkpt lat="-27.2744684" lon="151.2902329">
  <ele>346.54</ele>
  <time>2026-09-01T19:53:54Z</time>
  <course>104.61</course>
  <speed>0.0</speed>
  <fix>3d</fix>
</trkpt>
<trkpt lat="-27.2744684" lon="151.2902329">
  <ele>346.64</ele>
  <time>2026-09-01T19:53:54Z</time>
  <course>263.98</course>
  <speed>0.0</speed>
  <fix>3d</fix>
</trkpt>
<trkpt lat="-27.2744684" lon="151.2902329">
  <ele>346.49</ele>
  <time>2026-09-01T19:53:54Z</time>
  <course>104.61</course>
  <speed>0.0</speed>
  <fix>3d</fix>
</trkpt>
<trkpt lat="-27.2744684" lon="151.2902329">
  <ele>346.64</ele>
  <time>2026-09-01T19:53:54Z</time>
  <course>263.98</course>
  <speed>0.0</speed>
  <fix>3d</fix>
</trkpt>
<trkpt lat="-27.2744684" lon="151.2902327">
  <ele>346.44</ele>
  <time>2026-09-01T19:53:54Z</time>
  <course>104.61</course>
  <speed>0.0</speed>
  <fix>3d</fix>
</trkpt>
<trkpt lat="-27.2744684" lon="151.2902329">
  <ele>346.53</ele>
  <time>2026-09-01T19:53:54Z</time>
  <course>263.0</course>
  <speed>0.0</speed>
  <fix>3d</fix>
</trkpt>
<trkpt lat="-27.2744684" lon="151.2902327">
  <ele>346.39</ele>
  <time>2026-09-01T19:53:54Z</time>
  <course>104.62</course>
  <speed>0.0</speed>
  <fix>3d</fix>
</trkpt>
<trkpt lat="-27.2744684" lon="151.2902329">
  <ele>346.53</ele>
  <time>2026-09-01T19:53:54Z</time>
  <course>263.0</course>
  <speed>0.0</speed>
  <fix>3d</fix>
</trkpt>
<trkpt lat="-27.2744684" lon="151.2902327">
  <ele>346.34</ele>
  <time>2026-09-01T19:53:54Z</time>
  <course>104.64</course>
  <speed>0.0</speed>
  <fix>3d</fix>
</trkpt>
<trkpt lat="-27.2744684" lon="151.2902328">
  <ele>346.44</ele>
  <time>2026-09-01T19:53:54Z</time>
  <course>262.44</course>
  <speed>0.0</speed>
  <fix>3d</fix>
</trkpt>
<trkpt lat="-27.2744684" lon="151.2902327">
  <ele>346.29</ele>
  <time>2026-09-01T19:53:54Z</time>
  <course>104.65</course>
  <speed>0.0</speed>
  <fix>3d</fix>
</trkpt>
<trkpt lat="-27.2744684" lon="151.2902328">
  <ele>346.44</ele>
  <time>2026-09-01T19:53:54Z</time>
  <course>262.44</course>
  <speed>0.0</speed>
  <fix>3d</fix>
</trkpt>
<trkpt lat="-27.2744684" lon="151.2902327">
  <ele>346.24</ele>
  <time>2026-09-01T19:53:54Z</time>
  <course>104.68</course>
  <speed>0.0</speed>
  <fix>3d</fix>
</trkpt>
<trkpt lat="-27.2744684" lon="151.2902327">
  <ele>346.34</ele>
  <time>2026-09-01T19:53:54Z</time>
  <course>270.97</course>
  <speed>0.0</speed>
  <fix>3d</fix>
</trkpt>
<trkpt lat="-27.2744684" lon="151.2902327">
  <ele>346.19</ele>
  <time>2026-09-01T19:53:54Z</time>
  <course>104.71</course>
  <speed>0.0</speed>
  <fix>3d</fix>
</trkpt>
<trkpt lat="-27.2744684" lon="151.2902327">
  <ele>346.34</ele>
  <time>2026-09-01T19:53:54Z</time>
  <course>270.97</course>
  <speed>0.0</speed>
  <fix>3d</fix>
</trkpt>
<trkpt lat="-27.2744684" lon="151.2902327">
  <ele>346.14</ele>
  <time>2026-09-01T19:53:54Z</time>
  <course>104.76</course>
  <speed>0.0</speed>
  <fix>3d</fix>
</trkpt>
<trkpt lat="-27.2744684" lon="151.2902327">
  <ele>346.24</ele>
  <time>2026-09-01T19:53:54Z</time>
  <course>336.23</course>
  <speed>0.0</speed>
  <fix>3d</fix>
</trkpt>
<trkpt lat="-27.2744684" lon="151.2902327">
  <ele>346.09</ele>
  <time>2026-09-01T19:53:54Z</time>
  <course>104.82</course>
  <speed>0.0</speed>
  <fix>3d</fix>
</trkpt>
<trkpt lat="-27.2744684" lon="151.2902327">
  <ele>346.24</ele>
  <time>2026-09-01T19:53:54Z</time>
  <course>336.23</course>
  <speed>0.0</speed>
  <fix>3d</fix>
</trkpt>
<trkpt lat="-27.2744684" lon="151.2902327">
  <ele>346.04</ele>
  <time>2026-09-01T19:53:54Z</time>
  <course>104.87</course>
  <speed>0.01</speed>
  <fix>3d</fix>
</trkpt>
<trkpt lat="-27.2744684" lon="151.2902327">
  <ele>346.14</ele>
  <time>2026-09-01T19:53:54Z</time>
  <course>18.02</course>
  <speed>0.0</speed>
  <fix>3d</fix>
</trkpt>
<trkpt lat="-27.2744684" lon="151.2902327">
  <ele>345.99</ele>
  <time>2026-09-01T19:53:54Z</time>
  <course>104.91</course>
  <speed>0.01</speed>
  <fix>3d</fix>
</trkpt>
<trkpt lat="-27.2744684" lon="151.2902327">
  <ele>346.14</ele>
  <time>2026-09-01T19:53:54Z</time>
  <course>18.02</course>
  <speed>0.0</speed>
  <fix>3d</fix>
</trkpt>
<trkpt lat="-27.2744684" lon="151.2902327">
  <ele>345.94</ele>
  <time>2026-09-01T19:53:54Z</time>
  <course>104.94</course>
  <speed>0.01</speed>
  <fix>3d</fix>
</trkpt>
<trkpt lat="-27.2744684" lon="151.2902327">
  <ele>346.03</ele>
  <time>2026-09-01T19:53:54Z</time>
  <course>24.85</course>
  <speed>0.01</speed>
  <fix>3d</fix>
</trkpt>
<trkpt lat="-27.2744684" lon="151.2902327">
  <ele>345.89</ele>
  <time>2026-09-01T19:53:54Z</time>
  <course>104.96</course>
  <speed>0.01</speed>
  <fix>3d</fix>
</trkpt>
<trkpt lat="-27.2744684" lon="151.2902327">
  <ele>346.03</ele>
  <time>2026-09-01T19:53:54Z</time>
  <course>24.85</course>
  <speed>0.01</speed>
  <fix>3d</fix>
</trkpt>
<trkpt lat="-27.2744683" lon="151.2902327">
  <ele>345.84</ele>
  <time>2026-09-01T19:53:54Z</time>
  <course>104.96</course>
  <speed>0.022360679774997897</speed>
  <fix>3d</fix>
</trkpt>
<trkpt lat="-27.2744684" lon="151.2902327">
  <ele>345.94</ele>
  <time>2026-09-01T19:53:54Z</time>
  <course>25.89</course>
  <speed>0.01</speed>
  <fix>3d</fix>
</trkpt>
<trkpt lat="-27.2744683" lon="151.2902327">
  <ele>345.79</ele>
  <time>2026-09-01T19:53:54Z</time>
  <course>104.96</course>
  <speed>0.022360679774997897</speed>
  <fix>3d</fix>
</trkpt>
<trkpt lat="-27.2744684" lon="151.2902327">
  <ele>345.94</ele>
  <time>2026-09-01T19:53:54Z</time>
  <course>25.89</course>
  <speed>0.01</speed>
  <fix>3d</fix>
</trkpt>
<trkpt lat="-27.2744683" lon="151.2902327">
  <ele>345.74</ele>
  <time>2026-09-01T19:53:54Z</time>
  <course>104.94</course>
  <speed>0.022360679774997897</speed>
  <fix>3d</fix>
</trkpt>
<trkpt lat="-27.2744683" lon="151.2902327">
  <ele>345.84</ele>
  <time>2026-09-01T19:53:54Z</time>
  <course>27.01</course>
  <speed>0.02</speed>
  <fix>3d</fix>
</trkpt>
<trkpt lat="-27.2744683" lon="151.2902327">
  <ele>345.69</ele>
  <time>2026-09-01T19:53:54Z</time>
  <course>104.93</course>
  <speed>0.022360679774997897</speed>
  <fix>3d</fix>
</trkpt>
<trkpt lat="-27.2744683" lon="151.2902327">
  <ele>345.84</ele>
  <time>2026-09-01T19:53:54Z</time>
  <course>27.01</course>
  <speed>0.02</speed>
  <fix>3d</fix>
</trkpt>
<trkpt lat="-27.2744683" lon="151.2902327">
  <ele>345.64</ele>
  <time>2026-09-01T19:53:54Z</time>
  <course>104.91</course>
  <speed>0.022360679774997897</speed>
  <fix>3d</fix>
</trkpt>
<trkpt lat="-27.2744683" lon="151.2902327">
  <ele>345.74</ele>
  <time>2026-09-01T19:53:54Z</time>
  <course>28.32</course>
  <speed>0.02</speed>
  <fix>3d</fix>
</trkpt>
<trkpt lat="-27.2744682" lon="151.2902327">
  <ele>345.59</ele>
  <time>2026-09-01T19:53:54Z</time>
  <course>104.9</course>
  <speed>0.022360679774997897</speed>
  <fix>3d</fix>
</trkpt>
<trkpt lat="-27.2744683" lon="151.2902327">
  <ele>345.74</ele>
  <time>2026-09-01T19:53:54Z</time>
  <course>28.32</course>
  <speed>0.02</speed>
  <fix>3d</fix>
</trkpt>
<trkpt lat="-27.2744682" lon="151.2902329">
  <ele>345.54</ele>
  <time>2026-09-01T19:53:54Z</time>
  <course>104.88</course>
  <speed>0.022360679774997897</speed>
  <fix>3d</fix>
</trkpt>
<trkpt lat="-27.2744682" lon="151.2902327">
  <ele>345.64</ele>
  <time>2026-09-01T19:53:54Z</time>
  <course>28.68</course>
  <speed>0.03</speed>
  <fix>3d</fix>
</trkpt>
<trkpt lat="-27.2744682" lon="151.2902329">
  <ele>345.49</ele>
  <time>2026-09-01T19:53:54Z</time>
  <course>104.88</course>
  <speed>0.0316227766016838</speed>
  <fix>3d</fix>
</trkpt>
<trkpt lat="-27.2744682" lon="151.2902327">
  <ele>345.64</ele>
  <time>2026-09-01T19:53:54Z</time>
  <course>28.68</course>
  <speed>0.03</speed>
  <fix>3d</fix>
</trkpt>
<trkpt lat="-27.2744682" lon="151.2902329">
  <ele>345.44</ele>
  <time>2026-09-01T19:53:54Z</time>
  <course>104.88</course>
  <speed>0.0316227766016838</speed>
  <fix>3d</fix>
</trkpt>
<trkpt lat="-27.2744682" lon="151.2902328">
  <ele>345.53</ele>
  <time>2026-09-01T19:53:54Z</time>
  <course>28.34</course>
  <speed>0.03</speed>
  <fix>3d</fix>
</trkpt>
<trkpt lat="-27.2744681" lon="151.2902329">
  <ele>345.39</ele>
  <time>2026-09-01T19:53:54Z</time>
  <course>104.89</course>
  <speed>0.0316227766016838</speed>
  <fix>3d</fix>
</trkpt>
<trkpt lat="-27.2744682" lon="151.2902328">
  <ele>345.53</ele>
  <time>2026-09-01T19:53:54Z</time>
  <course>28.34</course>
  <speed>0.03</speed>
  <fix>3d</fix>
</trkpt>
<trkpt lat="-27.2744681" lon="151.2902329">
  <ele>345.34</ele>
  <time>2026-09-01T19:53:54Z</time>
  <course>104.9</course>
  <speed>0.0316227766016838</speed>
  <fix>3d</fix>
</trkpt>
<trkpt lat="-27.2744681" lon="151.2902329">
  <ele>345.44</ele>
  <time>2026-09-01T19:53:54Z</time>
  <course>27.23</course>
  <speed>0.03</speed>
  <fix>3d</fix>
</trkpt>
<trkpt lat="-27.2744681" lon="151.2902329">
  <ele>345.29</ele>
  <time>2026-09-01T19:53:54Z</time>
  <course>104.91</course>
  <speed>0.0316227766016838</speed>
  <fix>3d</fix>
</trkpt>
<trkpt lat="-27.2744681" lon="151.2902329">
  <ele>345.44</ele>
  <time>2026-09-01T19:53:54Z</time>
  <course>27.23</course>
  <speed>0.03</speed>
  <fix>3d</fix>
</trkpt>
<trkpt lat="-27.274468" lon="151.2902329">
  <ele>345.24</ele>
  <time>2026-09-01T19:53:54Z</time>
  <course>104.91</course>
  <speed>0.0316227766016838</speed>
  <fix>3d</fix>
</trkpt>
<trkpt lat="-27.2744681" lon="151.2902329">
  <ele>345.34</ele>
  <time>2026-09-01T19:53:54Z</time>
  <course>25.6</course>
  <speed>0.03</speed>
  <fix>3d</fix>
</trkpt>
<trkpt lat="-27.274468" lon="151.290233">
  <ele>345.19</ele>
  <time>2026-09-01T19:53:54Z</time>
  <course>104.91</course>
  <speed>0.0316227766016838</speed>
  <fix>3d</fix>
</trkpt>
<trkpt lat="-27.2744681" lon="151.2902329">
  <ele>345.34</ele>
  <time>2026-09-01T19:53:54Z</time>
  <course>25.6</course>
  <speed>0.03</speed>
  <fix>3d</fix>
</trkpt>
<trkpt lat="-27.274468" lon="151.290233">
  <ele>345.14</ele>
  <time>2026-09-01T19:53:54Z</time>
  <course>104.91</course>
  <speed>0.0316227766016838</speed>
  <fix>3d</fix>
</trkpt>
<trkpt lat="-27.274468" lon="151.2902329">
  <ele>345.24</ele>
  <time>2026-09-01T19:53:54Z</time>
  <course>24.77</course>
  <speed>0.03</speed>
  <fix>3d</fix>
</trkpt>
<trkpt lat="-27.274468" lon="151.290233">
  <ele>345.09</ele>
  <time>2026-09-01T19:53:54Z</time>
  <course>104.92</course>
  <speed>0.022360679774997897</speed>
  <fix>3d</fix>
</trkpt>
<trkpt lat="-27.274468" lon="151.2902329">
  <ele>345.24</ele>
  <time>2026-09-01T19:53:54Z</time>
  <course>24.77</course>
  <speed>0.03</speed>
  <fix>3d</fix>
</trkpt>
<trkpt lat="-27.2744679" lon="151.290233">
  <ele>345.04</ele>
  <time>2026-09-01T19:53:54Z</time>
  <course>104.92</course>
  <speed>0.022360679774997897</speed>
  <fix>3d</fix>
</trkpt>
<trkpt lat="-27.274468" lon="151.290233">
  <ele>345.14</ele>
  <time>2026-09-01T19:53:54Z</time>
  <course>24.48</course>
  <speed>0.03</speed>
  <fix>3d</fix>
</trkpt>
<trkpt lat="-27.2744679" lon="151.290233">
  <ele>344.99</ele>
  <time>2026-09-01T19:53:54Z</time>
  <course>104.92</course>
  <speed>0.022360679774997897</speed>
  <fix>3d</fix>
</trkpt>
<trkpt lat="-27.274468" lon="151.290233">
  <ele>345.14</ele>
  <time>2026-09-01T19:53:54Z</time>
  <course>24.48</course>
  <speed>0.03</speed>
  <fix>3d</fix>
</trkpt>
<trkpt lat="-27.2744679" lon="151.290233">
  <ele>344.94</ele>
  <time>2026-09-01T19:53:54Z</time>
  <course>104.91</course>
  <speed>0.022360679774997897</speed>
  <fix>3d</fix>
</trkpt>
<trkpt lat="-27.2744679" lon="151.290233">
  <ele>345.03</ele>
  <time>2026-09-01T19:53:54Z</time>
  <course>24.19</course>
  <speed>0.03</speed>
  <fix>3d</fix>
</trkpt>
<trkpt lat="-27.2744679" lon="151.290233">
  <ele>344.89</ele>
  <time>2026-09-01T19:53:54Z</time>
  <course>104.91</course>
  <speed>0.022360679774997897</speed>
  <fix>3d</fix>
</trkpt>
<trkpt lat="-27.2744679" lon="151.290233">
  <ele>345.03</ele>
  <time>2026-09-01T19:53:54Z</time>
  <course>24.19</course>
  <speed>0.03</speed>
  <fix>3d</fix>
</trkpt>
<trkpt lat="-27.2744678" lon="151.2902331">
  <ele>344.84</ele>
  <time>2026-09-01T19:53:54Z</time>
  <course>104.91</course>
  <speed>0.022360679774997897</speed>
  <fix>3d</fix>
</trkpt>
<trkpt lat="-27.2744679" lon="151.290233">
  <ele>344.94</ele>
  <time>2026-09-01T19:53:54Z</time>
  <course>24.41</course>
  <speed>0.02</speed>
  <fix>3d</fix>
</trkpt>
<trkpt lat="-27.2744678" lon="151.2902331">
  <ele>344.79</ele>
  <time>2026-09-01T19:53:54Z</time>
  <course>104.91</course>
  <speed>0.022360679774997897</speed>
  <fix>3d</fix>
</trkpt>
<trkpt lat="-27.2744679" lon="151.290233">
  <ele>344.94</ele>
  <time>2026-09-01T19:53:54Z</time>
  <course>24.41</course>
  <speed>0.02</speed>
  <fix>3d</fix>
</trkpt>
<trkpt lat="-27.2744678" lon="151.2902331">
  <ele>344.74</ele>
  <time>2026-09-01T19:53:54Z</time>
  <course>104.91</course>
  <speed>0.01</speed>
  <fix>3d</fix>
</trkpt>
<trkpt lat="-27.2744678" lon="151.290233">
  <ele>344.84</ele>
  <time>2026-09-01T19:53:54Z</time>
  <course>25.08</course>
  <speed>0.02</speed>
  <fix>3d</fix>
</trkpt>
<trkpt lat="-27.2744678" lon="151.2902331">
  <ele>344.69</ele>
  <time>2026-09-01T19:53:54Z</time>
  <course>104.91</course>
  <speed>0.01</speed>
  <fix>3d</fix>
</trkpt>
<trkpt lat="-27.2744678" lon="151.290233">
  <ele>344.84</ele>
  <time>2026-09-01T19:53:54Z</time>
  <course>25.08</course>
  <speed>0.02</speed>
  <fix>3d</fix>
</trkpt>
<trkpt lat="-27.2744678" lon="151.2902331">
  <ele>344.64</ele>
  <time>2026-09-01T19:53:54Z</time>
  <course>104.91</course>
  <speed>0.01</speed>
  <fix>3d</fix>
</trkpt>
<trkpt lat="-27.2744678" lon="151.2902331">
  <ele>344.74</ele>
  <time>2026-09-01T19:53:54Z</time>
  <course>25.6</course>
  <speed>0.02</speed>
  <fix>3d</fix>
</trkpt>
<trkpt lat="-27.2744678" lon="151.2902331">
  <ele>344.59</ele>
  <time>2026-09-01T19:53:54Z</time>
  <course>104.91</course>
  <speed>0.01</speed>
  <fix>3d</fix>
</trkpt>
<trkpt lat="-27.2744678" lon="151.2902331">
  <ele>344.74</ele>
  <time>2026-09-01T19:53:54Z</time>
  <course>25.6</course>
  <speed>0.02</speed>
  <fix>3d</fix>
</trkpt>
<trkpt lat="-27.2744677" lon="151.2902331">
  <ele>344.54</ele>
  <time>2026-09-01T19:53:54Z</time>
  <course>104.91</course>
  <speed>0.01</speed>
  <fix>3d</fix>
</trkpt>
<trkpt lat="-27.2744678" lon="151.2902331">
  <ele>344.64</ele>
  <time>2026-09-01T19:53:54Z</time>
  <course>25.61</course>
  <speed>0.01</speed>
  <fix>3d</fix>
</trkpt>
<trkpt lat="-27.2744677" lon="151.2902331">
  <ele>344.49</ele>
  <time>2026-09-01T19:53:54Z</time>
  <course>104.91</course>
  <speed>0.0</speed>
  <fix>3d</fix>
</trkpt>
<trkpt lat="-27.2744678" lon="151.2902331">
  <ele>344.64</ele>
  <time>2026-09-01T19:53:54Z</time>
  <course>25.61</course>
  <speed>0.01</speed>
  <fix>3d</fix>
</trkpt>
<trkpt lat="-27.2744677" lon="151.2902331">
  <ele>344.44</ele>
  <time>2026-09-01T19:53:54Z</time>
  <course>104.91</course>
  <speed>0.0</speed>
  <fix>3d</fix>
</trkpt>
<trkpt lat="-27.2744677" lon="151.2902331">
  <ele>344.53</ele>
  <time>2026-09-01T19:53:54Z</time>
  <course>25.57</course>
  <speed>0.01</speed>
  <fix>3d</fix>
</trkpt>
<trkpt lat="-27.2744677" lon="151.2902331">
  <ele>344.39</ele>
  <time>2026-09-01T19:53:54Z</time>
  <course>104.92</course>
  <speed>0.0</speed>
  <fix>3d</fix>
</trkpt>
<trkpt lat="-27.2744677" lon="151.2902331">
  <ele>344.53</ele>
  <time>2026-09-01T19:53:54Z</time>
  <course>25.57</course>
  <speed>0.01</speed>
  <fix>3d</fix>
</trkpt>
<trkpt lat="-27.2744677" lon="151.2902331">
  <ele>344.34</ele>
  <time>2026-09-01T19:53:54Z</time>
  <course>104.92</course>
  <speed>0.0</speed>
  <fix>3d</fix>
</trkpt>
<trkpt lat="-27.2744677" lon="151.2902331">
  <ele>344.44</ele>
  <time>2026-09-01T19:53:54Z</time>
  <course>26.8</course>
  <speed>0.0</speed>
  <fix>3d</fix>
</trkpt>
<trkpt lat="-27.2744677" lon="151.2902331">
  <ele>344.29</ele>
  <time>2026-09-01T19:53:54Z</time>
  <course>104.92</course>
  <speed>0.0</speed>
  <fix>3d</fix>
</trkpt>
<trkpt lat="-27.2744677" lon="151.2902331">
  <ele>344.34</ele>
  <time>2026-09-01T19:53:54Z</time>
  <course>32.75</course>
  <speed>0.0</speed>
  <fix>3d</fix>
</trkpt>
<trkpt lat="-27.2744677" lon="151.2902331">
  <ele>344.24</ele>
  <time>2026-09-01T19:53:54Z</time>
  <course>104.92</course>
  <speed>0.0</speed>
  <fix>3d</fix>
</trkpt>
<trkpt lat="-27.2744677" lon="151.2902331">
  <ele>344.34</ele>
  <time>2026-09-01T19:53:54Z</time>
  <course>32.75</course>
  <speed>0.0</speed>
  <fix>3d</fix>
</trkpt>
<trkpt lat="-27.2744677" lon="151.2902331">
  <ele>344.19</ele>
  <time>2026-09-01T19:53:54Z</time>
  <course>104.94</course>
  <speed>0.0</speed>
  <fix>3d</fix>
</trkpt>
<trkpt lat="-27.2744677" lon="151.2902331">
  <ele>344.24</ele>
  <time>2026-09-01T19:53:54Z</time>
  <course>55.07</course>
  <speed>0.0</speed>
  <fix>3d</fix>
</trkpt>
<trkpt lat="-27.2744677" lon="151.2902331">
  <ele>344.14</ele>
  <time>2026-09-01T19:53:54Z</time>
  <course>104.97</course>
  <speed>0.0</speed>
  <fix>3d</fix>
</trkpt>
<trkpt lat="-27.2744677" lon="151.2902331">
  <ele>344.24</ele>
  <time>2026-09-01T19:53:54Z</time>
  <course>55.07</course>
  <speed>0.0</speed>
  <fix>3d</fix>
</trkpt>
<trkpt lat="-27.2744677" lon="151.2902331">
  <ele>344.09</ele>
  <time>2026-09-01T19:53:54Z</time>
  <course>105.02</course>
  <speed>0.0</speed>
  <fix>3d</fix>
</trkpt>
<trkpt lat="-27.2744677" lon="151.2902331">
  <ele>344.14</ele>
  <time>2026-09-01T19:53:54Z</time>
  <course>97.12</course>
  <speed>0.0</speed>
  <fix>3d</fix>
</trkpt>
<trkpt lat="-27.2744677" lon="151.2902331">
  <ele>344.04</ele>
  <time>2026-09-01T19:53:54Z</time>
  <course>105.07</course>
  <speed>0.0</speed>
  <fix>3d</fix>
</trkpt>
<trkpt lat="-27.2744677" lon="151.2902331">
  <ele>344.14</ele>
  <time>2026-09-01T19:53:54Z</time>
  <course>97.12</course>
  <speed>0.0</speed>
  <fix>3d</fix>
</trkpt>
<trkpt lat="-27.2744677" lon="151.2902331">
  <ele>343.99</ele>
  <time>2026-09-01T19:53:54Z</time>
  <course>105.13</course>
  <speed>0.0</speed>
  <fix>3d</fix>
</trkpt>
<trkpt lat="-27.2744677" lon="151.2902331">
  <ele>344.14</ele>
  <time>2026-09-01T19:53:54Z</time>
  <course>97.12</course>
  <speed>0.0</speed>
  <fix>3d</fix>
</trkpt>
<trkpt lat="-27.2744677" lon="151.2902331">
  <ele>343.94</ele>
  <time>2026-09-01T19:53:54Z</time>
  <course>105.18</course>
  <speed>0.0</speed>
  <fix>3d</fix>
</trkpt>
<trkpt lat="-27.2744677" lon="151.2902331">
  <ele>344.03</ele>
  <time>2026-09-01T19:53:54Z</time>
  <course>104.52</course>
  <speed>0.0</speed>
  <fix>3d</fix>
</trkpt>
<trkpt lat="-27.2744677" lon="151.2902331">
  <ele>343.89</ele>
  <time>2026-09-01T19:53:54Z</time>
  <course>105.21</course>
  <speed>0.0</speed>
  <fix>3d</fix>
</trkpt>
<trkpt lat="-27.2744677" lon="151.2902331">
  <ele>344.03</ele>
  <time>2026-09-01T19:53:54Z</time>
  <course>104.52</course>
  <speed>0.0</speed>
  <fix>3d</fix>
</trkpt>
<trkpt lat="-27.2744677" lon="151.2902331">
  <ele>343.84</ele>
  <time>2026-09-01T19:53:54Z</time>
  <course>105.23</course>
  <speed>0.0</speed>
  <fix>3d</fix>
</trkpt>
<trkpt lat="-27.2744677" lon="151.2902331">
  <ele>343.94</ele>
  <time>2026-09-01T19:53:54Z</time>
  <course>105.54</course>
  <speed>0.0</speed>
  <fix>3d</fix>
</trkpt>
<trkpt lat="-27.2744677" lon="151.2902331">
  <ele>343.79</ele>
  <time>2026-09-01T19:53:54Z</time>
  <course>105.22</course>
  <speed>0.0</speed>
  <fix>3d</fix>
</trkpt>
<trkpt lat="-27.2744677" lon="151.2902331">
  <ele>343.94</ele>
  <time>2026-09-01T19:53:54Z</time>
  <course>105.54</course>
  <speed>0.0</speed>
  <fix>3d</fix>
</trkpt>
<trkpt lat="-27.2744677" lon="151.2902331">
  <ele>343.74</ele>
  <time>2026-09-01T19:53:54Z</time>
  <course>105.2</course>
  <speed>0.0</speed>
  <fix>3d</fix>
</trkpt>
<trkpt lat="-27.2744677" lon="151.2902331">
  <ele>343.84</ele>
  <time>2026-09-01T19:53:54Z</time>
  <course>111.9</course>
  <speed>0.0</speed>
  <fix>3d</fix>
</trkpt>
<trkpt lat="-27.2744677" lon="151.2902331">
  <ele>343.69</ele>
  <time>2026-09-01T19:53:54Z</time>
  <course>105.17</course>
  <speed>0.0</speed>
  <fix>3d</fix>
</trkpt>
<trkpt lat="-27.2744677" lon="151.2902331">
  <ele>343.84</ele>
  <time>2026-09-01T19:53:54Z</time>
  <course>111.9</course>
  <speed>0.0</speed>
  <fix>3d</fix>
</trkpt>
<trkpt lat="-27.2744677" lon="151.2902331">
  <ele>343.64</ele>
  <time>2026-09-01T19:53:54Z</time>
  <course>105.15</course>
  <speed>0.0</speed>
  <fix>3d</fix>
</trkpt>
<trkpt lat="-27.2744677" lon="151.2902331">
  <ele>343.74</ele>
  <time>2026-09-01T19:53:54Z</time>
  <course>288.89</course>
  <speed>0.0</speed>
  <fix>3d</fix>
</trkpt>
<trkpt lat="-27.2744677" lon="151.2902331">
  <ele>343.59</ele>
  <time>2026-09-01T19:53:54Z</time>
  <course>105.13</course>
  <speed>0.0</speed>
  <fix>3d</fix>
</trkpt>
<trkpt lat="-27.2744677" lon="151.2902331">
  <ele>343.74</ele>
  <time>2026-09-01T19:53:54Z</time>
  <course>288.89</course>
  <speed>0.0</speed>
  <fix>3d</fix>
</trkpt>
<trkpt lat="-27.2744677" lon="151.2902331">
  <ele>343.54</ele>
  <time>2026-09-01T19:53:54Z</time>
  <course>105.13</course>
  <speed>0.0</speed>
  <fix>3d</fix>
</trkpt>
<trkpt lat="-27.2744677" lon="151.2902331">
  <ele>343.64</ele>
  <time>2026-09-01T19:53:54Z</time>
  <course>300.15</course>
  <speed>0.0</speed>
  <fix>3d</fix>
</trkpt>
<trkpt lat="-27.2744677" lon="151.2902331">
  <ele>343.49</ele>
  <time>2026-09-01T19:53:54Z</time>
  <course>105.14</course>
  <speed>0.0</speed>
  <fix>3d</fix>
</trkpt>
<trkpt lat="-27.2744677" lon="151.2902331">
  <ele>343.64</ele>
  <time>2026-09-01T19:53:54Z</time>
  <course>300.15</course>
  <speed>0.0</speed>
  <fix>3d</fix>
</trkpt>
<trkpt lat="-27.2744677" lon="151.2902331">
  <ele>343.44</ele>
  <time>2026-09-01T19:53:54Z</time>
  <course>105.16</course>
  <speed>0.0</speed>
  <fix>3d</fix>
</trkpt>
<trkpt lat="-27.2744677" lon="151.2902331">
  <ele>343.53</ele>
  <time>2026-09-01T19:53:54Z</time>
  <course>319.44</course>
  <speed>0.0</speed>
  <fix>3d</fix>
</trkpt>
<trkpt lat="-27.2744677" lon="151.2902331">
  <ele>343.39</ele>
  <time>2026-09-01T19:53:54Z</time>
  <course>105.18</course>
  <speed>0.0</speed>
  <fix>3d</fix>
</trkpt>
<trkpt lat="-27.2744677" lon="151.2902331">
  <ele>343.53</ele>
  <time>2026-09-01T19:53:54Z</time>
  <course>319.44</course>
  <speed>0.0</speed>
  <fix>3d</fix>
</trkpt>
<trkpt lat="-27.2744677" lon="151.2902331">
  <ele>343.34</ele>
  <time>2026-09-01T19:53:54Z</time>
  <course>105.19</course>
  <speed>0.0</speed>
  <fix>3d</fix>
</trkpt>
<trkpt lat="-27.2744677" lon="151.2902331">
  <ele>343.44</ele>
  <time>2026-09-01T19:53:54Z</time>
  <course>347.92</course>
  <speed>0.0</speed>
  <fix>3d</fix>
</trkpt>
<trkpt lat="-27.2744677" lon="151.2902331">
  <ele>343.29</ele>
  <time>2026-09-01T19:53:54Z</time>
  <course>105.21</course>
  <speed>0.0</speed>
  <fix>3d</fix>
</trkpt>
<trkpt lat="-27.2744677" lon="151.2902331">
  <ele>343.34</ele>
  <time>2026-09-01T19:53:54Z</time>
  <course>321.77</course>
  <speed>0.0</speed>
  <fix>3d</fix>
</trkpt>
<trkpt lat="-27.2744677" lon="151.2902331">
  <ele>343.24</ele>
  <time>2026-09-01T19:53:54Z</time>
  <course>105.22</course>
  <speed>0.0</speed>
  <fix>3d</fix>
</trkpt>
<trkpt lat="-27.2744677" lon="151.2902331">
  <ele>343.34</ele>
  <time>2026-09-01T19:53:54Z</time>
  <course>321.77</course>
  <speed>0.0</speed>
  <fix>3d</fix>
</trkpt>
<trkpt lat="-27.2744677" lon="151.2902331">
  <ele>343.19</ele>
  <time>2026-09-01T19:53:54Z</time>
  <course>105.24</course>
  <speed>0.0</speed>
  <fix>3d</fix>
</trkpt>
<trkpt lat="-27.2744677" lon="151.2902331">
  <ele>343.24</ele>
  <time>2026-09-01T19:53:54Z</time>
  <course>301.35</course>
  <speed>0.0</speed>
  <fix>3d</fix>
</trkpt>
<trkpt lat="-27.2744677" lon="151.2902331">
  <ele>343.14</ele>
  <time>2026-09-01T19:53:54Z</time>
  <course>105.24</course>
  <speed>0.0</speed>
  <fix>3d</fix>
</trkpt>
<trkpt lat="-27.2744677" lon="151.2902331">
  <ele>343.24</ele>
  <time>2026-09-01T19:53:54Z</time>
  <course>301.35</course>
  <speed>0.0</speed>
  <fix>3d</fix>
</trkpt>
<trkpt lat="-27.2744677" lon="151.2902331">
  <ele>343.13</ele>
  <time>2026-09-01T19:53:54Z</time>
  <course>105.24</course>
  <speed>0.0</speed>
  <fix>3d</fix>
</trkpt>
<trkpt lat="-27.2744677" lon="151.2902331">
  <ele>343.16</ele>
  <time>2026-09-01T19:53:54Z</time>
  <course>296.73</course>
  <speed>0.0</speed>
  <fix>3d</fix>
</trkpt>
<trkpt lat="-27.2744677" lon="151.2902331">
  <ele>343.14</ele>
  <time>2026-09-01T19:53:54Z</time>
  <course>105.24</course>
  <speed>0.0</speed>
  <fix>3d</fix>
</trkpt>
<trkpt lat="-27.2744677" lon="151.2902331">
  <ele>343.16</ele>
  <time>2026-09-01T19:53:54Z</time>
  <course>296.73</course>
  <speed>0.0</speed>
  <fix>3d</fix>
</trkpt>
<trkpt lat="-27.2744677" lon="151.2902331">
  <ele>343.15</ele>
  <time>2026-09-01T19:53:54Z</time>
  <course>105.24</course>
  <speed>0.0</speed>
  <fix>3d</fix>
</trkpt>
<trkpt lat="-27.2744677" lon="151.2902331">
  <ele>343.14</ele>
  <time>2026-09-01T19:53:54Z</time>
  <course>115.64</course>
  <speed>0.0</speed>
  <fix>3d</fix>
</trkpt>
<trkpt lat="-27.2744677" lon="151.2902331">
  <ele>343.16</ele>
  <time>2026-09-01T19:53:54Z</time>
  <course>105.24</course>
  <speed>0.0</speed>
  <fix>3d</fix>
</trkpt>
<trkpt lat="-27.2744677" lon="151.2902331">
  <ele>343.14</ele>
  <time>2026-09-01T19:53:54Z</time>
  <course>115.64</course>
  <speed>0.0</speed>
  <fix>3d</fix>
</trkpt>
<trkpt lat="-27.2744677" lon="151.2902331">
  <ele>343.16</ele>
  <time>2026-09-01T19:53:54Z</time>
  <course>105.24</course>
  <speed>0.0</speed>
  <fix>3d</fix>
</trkpt>
<trkpt lat="-27.2744677" lon="151.2902331">
  <ele>343.15</ele>
  <time>2026-09-01T19:53:54Z</time>
  <course>115.63</course>
  <speed>0.0</speed>
  <fix>3d</fix>
</trkpt>
<trkpt lat="-27.2744677" lon="151.2902331">
  <ele>343.16</ele>
  <time>2026-09-01T19:53:54Z</time>
  <course>105.24</course>
  <speed>0.0</speed>
  <fix>3d</fix>
</trkpt>
<trkpt lat="-27.2744677" lon="151.2902331">
  <ele>343.15</ele>
  <time>2026-09-01T19:53:54Z</time>
  <course>115.63</course>
  <speed>0.0</speed>
  <fix>3d</fix>
</trkpt>
<trkpt lat="-27.2744677" lon="151.2902331">
  <ele>343.15</ele>
  <time>2026-09-01T19:53:54Z</time>
  <course>105.24</course>
  <speed>0.0</speed>
  <fix>3d</fix>
</trkpt>
<trkpt lat="-27.2744677" lon="151.2902331">
  <ele>343.15</ele>
  <time>2026-09-01T19:53:54Z</time>
  <course>295.41</course>
  <speed>0.0</speed>
  <fix>3d</fix>
</trkpt>
<trkpt lat="-27.2744677" lon="151.2902331">
  <ele>343.15</ele>
  <time>2026-09-01T19:53:54Z</time>
  <course>105.24</course>
  <speed>0.0</speed>
  <fix>3d</fix>
</trkpt>
<trkpt lat="-27.2744677" lon="151.2902331">
  <ele>343.15</ele>
  <time>2026-09-01T19:53:54Z</time>
  <course>295.41</course>
  <speed>0.0</speed>
  <fix>3d</fix>
</trkpt>
<trkpt lat="-27.2744677" lon="151.2902331">
  <ele>343.15</ele>
  <time>2026-09-01T19:53:54Z</time>
  <course>105.24</course>
  <speed>0.0</speed>
  <fix>3d</fix>
</trkpt>
<trkpt lat="-27.2744677" lon="151.2902331">
  <ele>343.15</ele>
  <time>2026-09-01T19:53:54Z</time>
  <course>295.0</course>
  <speed>0.0</speed>
  <fix>3d</fix>
</trkpt>
<trkpt lat="-27.2744677" lon="151.2902331">
  <ele>343.15</ele>
  <time>2026-09-01T19:53:54Z</time>
  <course>105.24</course>
  <speed>0.0</speed>
  <fix>3d</fix>
</trkpt>
<trkpt lat="-27.2744677" lon="151.2902331">
  <ele>343.15</ele>
  <time>2026-09-01T19:53:54Z</time>
  <course>295.0</course>
  <speed>0.0</speed>
  <fix>3d</fix>
</trkpt>
<trkpt lat="-27.2744677" lon="151.2902331">
  <ele>343.15</ele>
  <time>2026-09-01T19:53:54Z</time>
  <course>105.24</course>
  <speed>0.0</speed>
  <fix>3d</fix>
</trkpt>
<trkpt lat="-27.2744677" lon="151.2902331">
  <ele>343.15</ele>
  <time>2026-09-01T19:53:54Z</time>
  <course>295.0</course>
  <speed>0.0</speed>
  <fix>3d</fix>
</trkpt>
<trkpt lat="-27.2744677" lon="151.2902331">
  <ele>343.15</ele>
  <time>2026-09-01T19:53:54Z</time>
  <course>105.24</course>
  <speed>0.0</speed>
  <fix>3d</fix>
</trkpt>
<trkpt lat="-27.2744677" lon="151.2902331">
  <ele>343.15</ele>
  <time>2026-09-01T19:53:54Z</time>
  <course>119.99</course>
  <speed>0.0</speed>
  <fix>3d</fix>
</trkpt>
<trkpt lat="-27.2744677" lon="151.2902331">
  <ele>343.15</ele>
  <time>2026-09-01T19:53:54Z</time>
  <course>105.24</course>
  <speed>0.0</speed>
  <fix>3d</fix>
</trkpt>
<trkpt lat="-27.2744677" lon="151.2902331">
  <ele>343.15</ele>
  <time>2026-09-01T19:53:54Z</time>
  <course>119.99</course>
  <speed>0.0</speed>
  <fix>3d</fix>
</trkpt>
<trkpt lat="-27.2744677" lon="151.2902331">
  <ele>343.15</ele>
  <time>2026-09-01T19:53:54Z</time>
  <course>105.24</course>
  <speed>0.0</speed>
  <fix>3d</fix>
</trkpt>
<trkpt lat="-27.2744677" lon="151.2902331">
  <ele>343.15</ele>
  <time>2026-09-01T19:53:54Z</time>
  <course>170.71</course>
  <speed>0.0</speed>
  <fix>3d</fix>
</trkpt>
<trkpt lat="-27.2744677" lon="151.2902331">
  <ele>343.15</ele>
  <time>2026-09-01T19:53:54Z</time>
  <course>105.24</course>
  <speed>0.0</speed>
  <fix>3d</fix>
</trkpt>
<trkpt lat="-27.2744677" lon="151.2902331">
  <ele>343.15</ele>
  <time>2026-09-01T19:53:54Z</time>
  <course>170.71</course>
  <speed>0.0</speed>
  <fix>3d</fix>
</trkpt>
<trkpt lat="-27.2744677" lon="151.2902331">
  <ele>343.15</ele>
  <time>2026-09-01T19:53:54Z</time>
  <course>105.24</course>
  <speed>0.0</speed>
  <fix>3d</fix>
</trkpt>
<trkpt lat="-27.2744677" lon="151.2902331">
  <ele>343.15</ele>
  <time>2026-09-01T19:53:54Z</time>
  <course>282.83</course>
  <speed>0.0</speed>
  <fix>3d</fix>
</trkpt>
<trkpt lat="-27.2744677" lon="151.2902331">
  <ele>343.15</ele>
  <time>2026-09-01T19:53:54Z</time>
  <course>105.24</course>
  <speed>0.0</speed>
  <fix>3d</fix>
</trkpt>
<trkpt lat="-27.2744677" lon="151.2902331">
  <ele>343.15</ele>
  <time>2026-09-01T19:53:55Z</time>
  <course>282.83</course>
  <speed>0.0</speed>
  <fix>3d</fix>
</trkpt>
<trkpt lat="-27.2744677" lon="151.2902331">
  <ele>343.15</ele>
  <time>2026-09-01T19:53:55Z</time>
  <course>105.24</course>
  <speed>0.0</speed>
  <fix>3d</fix>
</trkpt>
<trkpt lat="-27.2744677" lon="151.2902331">
  <ele>343.15</ele>
  <time>2026-09-01T19:53:55Z</time>
  <course>250.21</course>
  <speed>0.0</speed>
  <fix>3d</fix>
</trkpt>
<trkpt lat="-27.2744677" lon="151.2902331">
  <ele>343.15</ele>
  <time>2026-09-01T19:53:55Z</time>
  <course>105.24</course>
  <speed>0.0</speed>
  <fix>3d</fix>
</trkpt>
<trkpt lat="-27.2744677" lon="151.2902331">
  <ele>343.15</ele>
  <time>2026-09-01T19:53:55Z</time>
  <course>188.55</course>
  <speed>0.0</speed>
  <fix>3d</fix>
</trkpt>
<trkpt lat="-27.2744677" lon="151.2902331">
  <ele>343.15</ele>
  <time>2026-09-01T19:53:55Z</time>
  <course>105.24</course>
  <speed>0.0</speed>
  <fix>3d</fix>
</trkpt>
<trkpt lat="-27.2744677" lon="151.2902331">
  <ele>343.15</ele>
  <time>2026-09-01T19:53:55Z</time>
  <course>188.55</course>
  <speed>0.0</speed>
  <fix>3d</fix>
</trkpt>
<trkpt lat="-27.2744677" lon="151.2902331">
  <ele>343.15</ele>
  <time>2026-09-01T19:53:55Z</time>
  <course>105.24</course>
  <speed>0.0</speed>
  <fix>3d</fix>
</trkpt>
<trkpt lat="-27.2744677" lon="151.2902331">
  <ele>343.15</ele>
  <time>2026-09-01T19:53:55Z</time>
  <course>242.05</course>
  <speed>0.0</speed>
  <fix>3d</fix>
</trkpt>
<trkpt lat="-27.2744677" lon="151.2902331">
  <ele>343.15</ele>
  <time>2026-09-01T19:53:55Z</time>
  <course>105.24</course>
  <speed>0.0</speed>
  <fix>3d</fix>
</trkpt>
<trkpt lat="-27.2744677" lon="151.2902331">
  <ele>343.15</ele>
  <time>2026-09-01T19:53:55Z</time>
  <course>242.05</course>
  <speed>0.0</speed>
  <fix>3d</fix>
</trkpt>
<trkpt lat="-27.2744677" lon="151.2902331">
  <ele>343.15</ele>
  <time>2026-09-01T19:53:55Z</time>
  <course>105.24</course>
  <speed>0.0</speed>
  <fix>3d</fix>
</trkpt>
<trkpt lat="-27.2744677" lon="151.2902331">
  <ele>343.15</ele>
  <time>2026-09-01T19:53:55Z</time>
  <course>247.77</course>
  <speed>0.0</speed>
  <fix>3d</fix>
</trkpt>
<trkpt lat="-27.2744677" lon="151.2902331">
  <ele>343.15</ele>
  <time>2026-09-01T19:53:55Z</time>
  <course>105.24</course>
  <speed>0.0</speed>
  <fix>3d</fix>
</trkpt>
<trkpt lat="-27.2744677" lon="151.2902331">
  <ele>343.15</ele>
  <time>2026-09-01T19:53:55Z</time>
  <course>247.77</course>
  <speed>0.0</speed>
  <fix>3d</fix>
</trkpt>
<trkpt lat="-27.2744677" lon="151.2902331">
  <ele>343.15</ele>
  <time>2026-09-01T19:53:55Z</time>
  <course>105.24</course>
  <speed>0.0</speed>
  <fix>3d</fix>
</trkpt>
<trkpt lat="-27.2744677" lon="151.2902331">
  <ele>343.15</ele>
  <time>2026-09-01T19:53:55Z</time>
  <course>59.86</course>
  <speed>0.0</speed>
  <fix>3d</fix>
</trkpt>
<trkpt lat="-27.2744677" lon="151.2902331">
  <ele>343.15</ele>
  <time>2026-09-01T19:53:55Z</time>
  <course>105.24</course>
  <speed>0.0</speed>
  <fix>3d</fix>
</trkpt>
<trkpt lat="-27.2744677" lon="151.2902331">
  <ele>343.15</ele>
  <time>2026-09-01T19:53:55Z</time>
  <course>59.86</course>
  <speed>0.0</speed>
  <fix>3d</fix>
</trkpt>
<trkpt lat="-27.2744677" lon="151.2902331">
  <ele>343.15</ele>
  <time>2026-09-01T19:53:55Z</time>
  <course>105.24</course>
  <speed>0.0</speed>
  <fix>3d</fix>
</trkpt>
<trkpt lat="-27.2744677" lon="151.2902331">
  <ele>343.15</ele>
  <time>2026-09-01T19:53:55Z</time>
  <course>59.96</course>
  <speed>0.0</speed>
  <fix>3d</fix>
</trkpt>
<trkpt lat="-27.2744677" lon="151.2902331">
  <ele>343.15</ele>
  <time>2026-09-01T19:53:55Z</time>
  <course>105.24</course>
  <speed>0.0</speed>
  <fix>3d</fix>
</trkpt>
<trkpt lat="-27.2744677" lon="151.2902331">
  <ele>343.15</ele>
  <time>2026-09-01T19:53:55Z</time>
  <course>59.96</course>
  <speed>0.0</speed>
  <fix>3d</fix>
</trkpt>
<trkpt lat="-27.2744677" lon="151.2902331">
  <ele>343.15</ele>
  <time>2026-09-01T19:53:55Z</time>
  <course>105.24</course>
  <speed>0.0</speed>
  <fix>3d</fix>
</trkpt>
<trkpt lat="-27.2744677" lon="151.2902331">
  <ele>343.15</ele>
  <time>2026-09-01T19:53:55Z</time>
  <course>66.8</course>
  <speed>0.0</speed>
  <fix>3d</fix>
</trkpt>
<trkpt lat="-27.2744677" lon="151.2902331">
  <ele>343.15</ele>
  <time>2026-09-01T19:53:55Z</time>
  <course>105.24</course>
  <speed>0.0</speed>
  <fix>3d</fix>
</trkpt>
<trkpt lat="-27.2744677" lon="151.2902331">
  <ele>343.15</ele>
  <time>2026-09-01T19:53:55Z</time>
  <course>66.8</course>
  <speed>0.0</speed>
  <fix>3d</fix>
</trkpt>
<trkpt lat="-27.2744677" lon="151.2902331">
  <ele>343.15</ele>
  <time>2026-09-01T19:53:55Z</time>
  <course>105.24</course>
  <speed>0.0</speed>
  <fix>3d</fix>
</trkpt>
<trkpt lat="-27.2744677" lon="151.2902331">
  <ele>343.15</ele>
  <time>2026-09-01T19:53:55Z</time>
  <course>60.2</course>
  <speed>0.0</speed>
  <fix>3d</fix>
</trkpt>
<trkpt lat="-27.2744677" lon="151.2902331">
  <ele>343.15</ele>
  <time>2026-09-01T19:53:55Z</time>
  <course>105.24</course>
  <speed>0.0</speed>
  <fix>3d</fix>
</trkpt>
<trkpt lat="-27.2744677" lon="151.2902331">
  <ele>343.15</ele>
  <time>2026-09-01T19:53:55Z</time>
  <course>60.2</course>
  <speed>0.0</speed>
  <fix>3d</fix>
</trkpt>
<trkpt lat="-27.2744677" lon="151.2902331">
  <ele>343.15</ele>
  <time>2026-09-01T19:53:55Z</time>
  <course>105.24</course>
  <speed>0.0</speed>
  <fix>3d</fix>
</trkpt>
<trkpt lat="-27.2744677" lon="151.2902331">
  <ele>343.15</ele>
  <time>2026-09-01T19:53:55Z</time>
  <course>247.43</course>
  <speed>0.0</speed>
  <fix>3d</fix>
</trkpt>
<trkpt lat="-27.2744677" lon="151.2902331">
  <ele>343.15</ele>
  <time>2026-09-01T19:53:55Z</time>
  <course>105.24</course>
  <speed>0.0</speed>
  <fix>3d</fix>
</trkpt>
<trkpt lat="-27.2744677" lon="151.2902331">
  <ele>343.15</ele>
  <time>2026-09-01T19:53:55Z</time>
  <course>247.43</course>
  <speed>0.0</speed>
  <fix>3d</fix>
</trkpt>
<trkpt lat="-27.2744677" lon="151.2902331">
  <ele>343.15</ele>
  <time>2026-09-01T19:53:55Z</time>
  <course>105.24</course>
  <speed>0.0</speed>
  <fix>3d</fix>
</trkpt>
<trkpt lat="-27.2744677" lon="151.2902331">
  <ele>343.15</ele>
  <time>2026-09-01T19:53:55Z</time>
  <course>240.23</course>
  <speed>0.0</speed>
  <fix>3d</fix>
</trkpt>
<trkpt lat="-27.2744677" lon="151.2902331">
  <ele>343.15</ele>
  <time>2026-09-01T19:53:55Z</time>
  <course>105.24</course>
  <speed>0.0</speed>
  <fix>3d</fix>
</trkpt>
<trkpt lat="-27.2744677" lon="151.2902331">
  <ele>343.15</ele>
  <time>2026-09-01T19:53:55Z</time>
  <course>240.23</course>
  <speed>0.0</speed>
  <fix>3d</fix>
</trkpt>
<trkpt lat="-27.2744677" lon="151.2902331">
  <ele>343.15</ele>
  <time>2026-09-01T19:53:55Z</time>
  <course>105.24</course>
  <speed>0.0</speed>
  <fix>3d</fix>
</trkpt>
<trkpt lat="-27.2744677" lon="151.2902331">
  <ele>343.15</ele>
  <time>2026-09-01T19:53:55Z</time>
  <course>240.23</course>
  <speed>0.0</speed>
  <fix>3d</fix>
</trkpt>
<trkpt lat="-27.2744677" lon="151.2902331">
  <ele>343.15</ele>
  <time>2026-09-01T19:53:55Z</time>
  <course>105.24</course>
  <speed>0.0</speed>
  <fix>3d</fix>
</trkpt>
<trkpt lat="-27.2744677" lon="151.2902331">
  <ele>343.15</ele>
  <time>2026-09-01T19:53:55Z</time>
  <course>240.51</course>
  <speed>0.0</speed>
  <fix>3d</fix>
</trkpt>
<trkpt lat="-27.2744677" lon="151.2902331">
  <ele>343.15</ele>
  <time>2026-09-01T19:53:55Z</time>
  <course>105.24</course>
  <speed>0.0</speed>
  <fix>3d</fix>
</trkpt>
<trkpt lat="-27.2744677" lon="151.2902331">
  <ele>343.15</ele>
  <time>2026-09-01T19:53:55Z</time>
  <course>59.38</course>
  <speed>0.0</speed>
  <fix>3d</fix>
</trkpt>
<trkpt lat="-27.2744677" lon="151.2902331">
  <ele>343.15</ele>
  <time>2026-09-01T19:53:55Z</time>
  <course>105.24</course>
  <speed>0.0</speed>
  <fix>3d</fix>
</trkpt>
<trkpt lat="-27.2744677" lon="151.2902331">
  <ele>343.15</ele>
  <time>2026-09-01T19:53:55Z</time>
  <course>59.38</course>
  <speed>0.0</speed>
  <fix>3d</fix>
</trkpt>
<trkpt lat="-27.2744677" lon="151.2902331">
  <ele>343.15</ele>
  <time>2026-09-01T19:53:55Z</time>
  <course>105.24</course>
  <speed>0.0</speed>
  <fix>3d</fix>
</trkpt>
<trkpt lat="-27.2744677" lon="151.2902331">
  <ele>343.15</ele>
  <time>2026-09-01T19:53:55Z</time>
  <course>60.0</course>
  <speed>0.0</speed>
  <fix>3d</fix>
</trkpt>
<trkpt lat="-27.2744677" lon="151.2902331">
  <ele>343.15</ele>
  <time>2026-09-01T19:53:55Z</time>
  <course>105.24</course>
  <speed>0.0</speed>
  <fix>3d</fix>
</trkpt>
<trkpt lat="-27.2744677" lon="151.2902331">
  <ele>343.15</ele>
  <time>2026-09-01T19:53:55Z</time>
  <course>60.0</course>
  <speed>0.0</speed>
  <fix>3d</fix>
</trkpt>
<trkpt lat="-27.2744677" lon="151.2902331">
  <ele>343.15</ele>
  <time>2026-09-01T19:53:55Z</time>
  <course>105.24</course>
  <speed>0.0</speed>
  <fix>3d</fix>
</trkpt>
<trkpt lat="-27.2744677" lon="151.2902331">
  <ele>343.15</ele>
  <time>2026-09-01T19:53:55Z</time>
  <course>240.33</course>
  <speed>0.0</speed>
  <fix>3d</fix>
</trkpt>
<trkpt lat="-27.2744677" lon="151.2902331">
  <ele>343.15</ele>
  <time>2026-09-01T19:53:55Z</time>
  <course>105.24</course>
  <speed>0.0</speed>
  <fix>3d</fix>
</trkpt>
<trkpt lat="-27.2744677" lon="151.2902331">
  <ele>343.15</ele>
  <time>2026-09-01T19:53:55Z</time>
  <course>240.33</course>
  <speed>0.0</speed>
  <fix>3d</fix>
</trkpt>
<trkpt lat="-27.2744677" lon="151.2902331">
  <ele>343.15</ele>
  <time>2026-09-01T19:53:55Z</time>
  <course>105.24</course>
  <speed>0.0</speed>
  <fix>3d</fix>
</trkpt>
<trkpt lat="-27.2744677" lon="151.2902331">
  <ele>343.15</ele>
  <time>2026-09-01T19:53:55Z</time>
  <course>59.72</course>
  <speed>0.0</speed>
  <fix>3d</fix>
</trkpt>
<trkpt lat="-27.2744677" lon="151.2902331">
  <ele>343.15</ele>
  <time>2026-09-01T19:53:55Z</time>
  <course>105.24</course>
  <speed>0.0</speed>
  <fix>3d</fix>
</trkpt>
<trkpt lat="-27.2744677" lon="151.2902331">
  <ele>343.15</ele>
  <time>2026-09-01T19:53:55Z</time>
  <course>59.72</course>
  <speed>0.0</speed>
  <fix>3d</fix>
</trkpt>
<trkpt lat="-27.2744677" lon="151.2902331">
  <ele>343.15</ele>
  <time>2026-09-01T19:53:55Z</time>
  <course>105.24</course>
  <speed>0.0</speed>
  <fix>3d</fix>
</trkpt>
<trkpt lat="-27.2744677" lon="151.2902331">
  <ele>343.15</ele>
  <time>2026-09-01T19:53:55Z</time>
  <course>60.51</course>
  <speed>0.0</speed>
  <fix>3d</fix>
</trkpt>
<trkpt lat="-27.2744677" lon="151.2902331">
  <ele>343.15</ele>
  <time>2026-09-01T19:53:55Z</time>
  <course>105.24</course>
  <speed>0.0</speed>
  <fix>3d</fix>
</trkpt>
<trkpt lat="-27.2744677" lon="151.2902331">
  <ele>343.15</ele>
  <time>2026-09-01T19:53:55Z</time>
  <course>60.51</course>
  <speed>0.0</speed>
  <fix>3d</fix>
</trkpt>
<trkpt lat="-27.2744677" lon="151.2902331">
  <ele>343.15</ele>
  <time>2026-09-01T19:53:55Z</time>
  <course>105.24</course>
  <speed>0.0</speed>
  <fix>3d</fix>
</trkpt>
<trkpt lat="-27.2744677" lon="151.2902331">
  <ele>343.15</ele>
  <time>2026-09-01T19:53:55Z</time>
  <course>57.98</course>
  <speed>0.0</speed>
  <fix>3d</fix>
</trkpt>
<trkpt lat="-27.2744677" lon="151.2902331">
  <ele>343.15</ele>
  <time>2026-09-01T19:53:55Z</time>
  <course>105.24</course>
  <speed>0.0</speed>
  <fix>3d</fix>
</trkpt>
<trkpt lat="-27.2744677" lon="151.2902331">
  <ele>343.15</ele>
  <time>2026-09-01T19:53:55Z</time>
  <course>57.98</course>
  <speed>0.0</speed>
  <fix>3d</fix>
</trkpt>
<trkpt lat="-27.2744677" lon="151.2902331">
  <ele>343.15</ele>
  <time>2026-09-01T19:53:55Z</time>
  <course>105.24</course>
  <speed>0.0</speed>
  <fix>3d</fix>
</trkpt>
<trkpt lat="-27.2744677" lon="151.2902331">
  <ele>343.15</ele>
  <time>2026-09-01T19:53:55Z</time>
  <course>58.91</course>
  <speed>0.0</speed>
  <fix>3d</fix>
</trkpt>
<trkpt lat="-27.2744677" lon="151.2902331">
  <ele>343.15</ele>
  <time>2026-09-01T19:53:55Z</time>
  <course>105.24</course>
  <speed>0.0</speed>
  <fix>3d</fix>
</trkpt>
<trkpt lat="-27.2744677" lon="151.2902331">
  <ele>343.15</ele>
  <time>2026-09-01T19:53:55Z</time>
  <course>58.91</course>
  <speed>0.0</speed>
  <fix>3d</fix>
</trkpt>
<trkpt lat="-27.2744677" lon="151.2902331">
  <ele>343.15</ele>
  <time>2026-09-01T19:53:55Z</time>
  <course>105.24</course>
  <speed>0.0</speed>
  <fix>3d</fix>
</trkpt>
<trkpt lat="-27.2744677" lon="151.2902331">
  <ele>343.15</ele>
  <time>2026-09-01T19:53:55Z</time>
  <course>59.19</course>
  <speed>0.0</speed>
  <fix>3d</fix>
</trkpt>
<trkpt lat="-27.2744677" lon="151.2902331">
  <ele>343.15</ele>
  <time>2026-09-01T19:53:55Z</time>
  <course>105.24</course>
  <speed>0.0</speed>
  <fix>3d</fix>
</trkpt>
<trkpt lat="-27.2744677" lon="151.2902331">
  <ele>343.15</ele>
  <time>2026-09-01T19:53:55Z</time>
  <course>59.19</course>
  <speed>0.0</speed>
  <fix>3d</fix>
</trkpt>
<trkpt lat="-27.2744677" lon="151.2902331">
  <ele>343.15</ele>
  <time>2026-09-01T19:53:55Z</time>
  <course>105.24</course>
  <speed>0.0</speed>
  <fix>3d</fix>
</trkpt>
<trkpt lat="-27.2744677" lon="151.2902331">
  <ele>343.15</ele>
  <time>2026-09-01T19:53:55Z</time>
  <course>58.81</course>
  <speed>0.0</speed>
  <fix>3d</fix>
</trkpt>
<trkpt lat="-27.2744677" lon="151.2902331">
  <ele>343.15</ele>
  <time>2026-09-01T19:53:55Z</time>
  <course>105.24</course>
  <speed>0.0</speed>
  <fix>3d</fix>
</trkpt>
<trkpt lat="-27.2744677" lon="151.2902331">
  <ele>343.15</ele>
  <time>2026-09-01T19:53:55Z</time>
  <course>58.81</course>
  <speed>0.0</speed>
  <fix>3d</fix>
</trkpt>
<trkpt lat="-27.2744677" lon="151.2902331">
  <ele>343.15</ele>
  <time>2026-09-01T19:53:55Z</time>
  <course>105.24</course>
  <speed>0.0</speed>
  <fix>3d</fix>
</trkpt>
<trkpt lat="-27.2744677" lon="151.2902331">
  <ele>343.15</ele>
  <time>2026-09-01T19:53:55Z</time>
  <course>57.62</course>
  <speed>0.0</speed>
  <fix>3d</fix>
</trkpt>
<trkpt lat="-27.2744677" lon="151.2902331">
  <ele>343.15</ele>
  <time>2026-09-01T19:53:55Z</time>
  <course>105.24</course>
  <speed>0.0</speed>
  <fix>3d</fix>
</trkpt>
<trkpt lat="-27.2744677" lon="151.2902331">
  <ele>343.15</ele>
  <time>2026-09-01T19:53:55Z</time>
  <course>57.62</course>
  <speed>0.0</speed>
  <fix>3d</fix>
</trkpt>
<trkpt lat="-27.2744677" lon="151.2902331">
  <ele>343.15</ele>
  <time>2026-09-01T19:53:55Z</time>
  <course>105.24</course>
  <speed>0.0</speed>
  <fix>3d</fix>
</trkpt>
<trkpt lat="-27.2744677" lon="151.2902331">
  <ele>343.15</ele>
  <time>2026-09-01T19:53:55Z</time>
  <course>238.66</course>
  <speed>0.0</speed>
  <fix>3d</fix>
</trkpt>
<trkpt lat="-27.2744677" lon="151.2902331">
  <ele>343.15</ele>
  <time>2026-09-01T19:53:55Z</time>
  <course>105.24</course>
  <speed>0.0</speed>
  <fix>3d</fix>
</trkpt>
<trkpt lat="-27.2744677" lon="151.2902331">
  <ele>343.15</ele>
  <time>2026-09-01T19:53:55Z</time>
  <course>238.66</course>
  <speed>0.0</speed>
  <fix>3d</fix>
</trkpt>
<trkpt lat="-27.2744677" lon="151.2902331">
  <ele>343.15</ele>
  <time>2026-09-01T19:53:55Z</time>
  <course>105.24</course>
  <speed>0.0</speed>
  <fix>3d</fix>
</trkpt>
<trkpt lat="-27.2744677" lon="151.2902331">
  <ele>343.15</ele>
  <time>2026-09-01T19:53:55Z</time>
  <course>238.8</course>
  <speed>0.0</speed>
  <fix>3d</fix>
</trkpt>
<trkpt lat="-27.2744677" lon="151.2902331">
  <ele>343.15</ele>
  <time>2026-09-01T19:53:55Z</time>
  <course>105.24</course>
  <speed>0.0</speed>
  <fix>3d</fix>
</trkpt>
<trkpt lat="-27.2744677" lon="151.2902331">
  <ele>343.15</ele>
  <time>2026-09-01T19:53:55Z</time>
  <course>238.8</course>
  <speed>0.0</speed>
  <fix>3d</fix>
</trkpt>
<trkpt lat="-27.2744677" lon="151.2902331">
  <ele>343.15</ele>
  <time>2026-09-01T19:53:55Z</time>
  <course>105.24</course>
  <speed>0.0</speed>
  <fix>3d</fix>
</trkpt>
<trkpt lat="-27.2744677" lon="151.2902331">
  <ele>343.15</ele>
  <time>2026-09-01T19:53:55Z</time>
  <course>227.49</course>
  <speed>0.0</speed>
  <fix>3d</fix>
</trkpt>
<trkpt lat="-27.2744677" lon="151.2902331">
  <ele>343.15</ele>
  <time>2026-09-01T19:53:55Z</time>
  <course>105.24</course>
  <speed>0.0</speed>
  <fix>3d</fix>
</trkpt>
<trkpt lat="-27.2744677" lon="151.2902331">
  <ele>343.15</ele>
  <time>2026-09-01T19:53:55Z</time>
  <course>227.49</course>
  <speed>0.0</speed>
  <fix>3d</fix>
</trkpt>
<trkpt lat="-27.2744677" lon="151.2902331">
  <ele>343.15</ele>
  <time>2026-09-01T19:53:55Z</time>
  <course>105.24</course>
  <speed>0.0</speed>
  <fix>3d</fix>
</trkpt>
<trkpt lat="-27.2744677" lon="151.2902331">
  <ele>343.15</ele>
  <time>2026-09-01T19:53:55Z</time>
  <course>64.15</course>
  <speed>0.0</speed>
  <fix>3d</fix>
</trkpt>
<trkpt lat="-27.2744677" lon="151.2902331">
  <ele>343.15</ele>
  <time>2026-09-01T19:53:55Z</time>
  <course>105.24</course>
  <speed>0.0</speed>
  <fix>3d</fix>
</trkpt>
<trkpt lat="-27.2744677" lon="151.2902331">
  <ele>343.15</ele>
  <time>2026-09-01T19:53:55Z</time>
  <course>64.15</course>
  <speed>0.0</speed>
  <fix>3d</fix>
</trkpt>
<trkpt lat="-27.2744677" lon="151.2902331">
  <ele>343.15</ele>
  <time>2026-09-01T19:53:55Z</time>
  <course>105.24</course>
  <speed>0.0</speed>
  <fix>3d</fix>
</trkpt>
<trkpt lat="-27.2744677" lon="151.2902331">
  <ele>343.15</ele>
  <time>2026-09-01T19:53:55Z</time>
  <course>68.5</course>
  <speed>0.0</speed>
  <fix>3d</fix>
</trkpt>
<trkpt lat="-27.2744677" lon="151.2902331">
  <ele>343.15</ele>
  <time>2026-09-01T19:53:55Z</time>
  <course>105.24</course>
  <speed>0.0</speed>
  <fix>3d</fix>
</trkpt>
<trkpt lat="-27.2744677" lon="151.2902331">
  <ele>343.15</ele>
  <time>2026-09-01T19:53:55Z</time>
  <course>68.5</course>
  <speed>0.0</speed>
  <fix>3d</fix>
</trkpt>
<trkpt lat="-27.2744677" lon="151.2902331">
  <ele>343.15</ele>
  <time>2026-09-01T19:53:55Z</time>
  <course>105.24</course>
  <speed>0.0</speed>
  <fix>3d</fix>
</trkpt>
<trkpt lat="-27.2744677" lon="151.2902331">
  <ele>343.15</ele>
  <time>2026-09-01T19:53:55Z</time>
  <course>245.16</course>
  <speed>0.0</speed>
  <fix>3d</fix>
</trkpt>
<trkpt lat="-27.2744677" lon="151.2902331">
  <ele>343.15</ele>
  <time>2026-09-01T19:53:55Z</time>
  <course>105.24</course>
  <speed>0.0</speed>
  <fix>3d</fix>
</trkpt>
<trkpt lat="-27.2744677" lon="151.2902331">
  <ele>343.15</ele>
  <time>2026-09-01T19:53:55Z</time>
  <course>245.16</course>
  <speed>0.0</speed>
  <fix>3d</fix>
</trkpt>
<trkpt lat="-27.2744677" lon="151.2902331">
  <ele>343.15</ele>
  <time>2026-09-01T19:53:55Z</time>
  <course>105.24</course>
  <speed>0.0</speed>
  <fix>3d</fix>
</trkpt>
<trkpt lat="-27.2744677" lon="151.2902331">
  <ele>343.15</ele>
  <time>2026-09-01T19:53:55Z</time>
  <course>251.24</course>
  <speed>0.0</speed>
  <fix>3d</fix>
</trkpt>
<trkpt lat="-27.2744677" lon="151.2902331">
  <ele>343.15</ele>
  <time>2026-09-01T19:53:55Z</time>
  <course>105.24</course>
  <speed>0.0</speed>
  <fix>3d</fix>
</trkpt>
<trkpt lat="-27.2744677" lon="151.2902331">
  <ele>343.15</ele>
  <time>2026-09-01T19:53:55Z</time>
  <course>251.24</course>
  <speed>0.0</speed>
  <fix>3d</fix>
</trkpt>
<trkpt lat="-27.2744677" lon="151.2902331">
  <ele>343.15</ele>
  <time>2026-09-01T19:53:55Z</time>
  <course>105.24</course>
  <speed>0.0</speed>
  <fix>3d</fix>
</trkpt>
<trkpt lat="-27.2744677" lon="151.2902331">
  <ele>343.15</ele>
  <time>2026-09-01T19:53:55Z</time>
  <course>65.85</course>
  <speed>0.0</speed>
  <fix>3d</fix>
</trkpt>
<trkpt lat="-27.2744677" lon="151.2902331">
  <ele>343.15</ele>
  <time>2026-09-01T19:53:55Z</time>
  <course>105.24</course>
  <speed>0.0</speed>
  <fix>3d</fix>
</trkpt>
<trkpt lat="-27.2744677" lon="151.2902331">
  <ele>343.15</ele>
  <time>2026-09-01T19:53:55Z</time>
  <course>65.85</course>
  <speed>0.0</speed>
  <fix>3d</fix>
</trkpt>
<trkpt lat="-27.2744677" lon="151.2902331">
  <ele>343.15</ele>
  <time>2026-09-01T19:53:55Z</time>
  <course>105.24</course>
  <speed>0.0</speed>
  <fix>3d</fix>
</trkpt>
<trkpt lat="-27.2744677" lon="151.2902331">
  <ele>343.15</ele>
  <time>2026-09-01T19:53:55Z</time>
  <course>119.3</course>
  <speed>0.0</speed>
  <fix>3d</fix>
</trkpt>
<trkpt lat="-27.2744677" lon="151.2902331">
  <ele>343.15</ele>
  <time>2026-09-01T19:53:55Z</time>
  <course>105.24</course>
  <speed>0.0</speed>
  <fix>3d</fix>
</trkpt>
<trkpt lat="-27.2744677" lon="151.2902331">
  <ele>343.15</ele>
  <time>2026-09-01T19:53:55Z</time>
  <course>119.3</course>
  <speed>0.0</speed>
  <fix>3d</fix>
</trkpt>
<trkpt lat="-27.2744396" lon="151.2900639">
  <ele>343.1</ele>
  <time>2026-09-01T19:53:55Z</time>
  <course>8.0</course>
  <speed>0.0</speed>
  <fix>3d</fix>
</trkpt>
<trkpt lat="-27.2744395" lon="151.290064">
  <ele>343.1</ele>
  <time>2026-09-01T19:53:55Z</time>
  <course>8.0</course>
  <speed>0.1711724276862369</speed>
  <fix>3d</fix>
</trkpt>
<trkpt lat="-27.2744393" lon="151.290064">
  <ele>343.1</ele>
  <time>2026-09-01T19:53:55Z</time>
  <course>8.0</course>
  <speed>0.27166155414412246</speed>
  <fix>3d</fix>
</trkpt>
<trkpt lat="-27.2744391" lon="151.290064">
  <ele>343.1</ele>
  <time>2026-09-01T19:53:55Z</time>
  <course>8.0</course>
  <speed>0.18110770276274835</speed>
  <fix>3d</fix>
</trkpt>
<trkpt lat="-27.274439" lon="151.290064">
  <ele>343.1</ele>
  <time>2026-09-01T19:53:55Z</time>
  <course>8.0</course>
  <speed>0.05</speed>
  <fix>3d</fix>
</trkpt>
<trkpt lat="-27.274439" lon="151.290064">
  <ele>343.1</ele>
  <time>2026-09-01T19:53:55Z</time>
  <course>8.0</course>
  <speed>0.02</speed>
  <fix>3d</fix>
</trkpt>
<trkpt lat="-27.274439" lon="151.290064">
  <ele>343.1</ele>
  <time>2026-09-01T19:53:55Z</time>
  <course>8.0</course>
  <speed>0.03</speed>
  <fix>3d</fix>
</trkpt>
<trkpt lat="-27.274439" lon="151.290064">
  <ele>343.1</ele>
  <time>2026-09-01T19:53:55Z</time>
  <course>8.0</course>
  <speed>0.02</speed>
  <fix>3d</fix>
</trkpt>
<trkpt lat="-27.274439" lon="151.290064">
  <ele>343.1</ele>
  <time>2026-09-01T19:53:55Z</time>
  <course>8.0</course>
  <speed>0.0</speed>
  <fix>3d</fix>
</trkpt>
<trkpt lat="-27.274439" lon="151.290064">
  <ele>343.1</ele>
  <time>2026-09-01T19:53:55Z</time>
  <course>8.0</course>
  <speed>0.0</speed>
  <fix>3d</fix>
</trkpt>
<trkpt lat="-27.274439" lon="151.290064">
  <ele>343.1</ele>
  <time>2026-09-01T19:53:55Z</time>
  <course>8.0</course>
  <speed>0.0</speed>
  <fix>3d</fix>
</trkpt>
<trkpt lat="-27.274439" lon="151.290064">
  <ele>343.1</ele>
  <time>2026-09-01T19:53:55Z</time>
  <course>8.0</course>
  <speed>0.0</speed>
  <fix>3d</fix>
</trkpt>
<trkpt lat="-27.274439" lon="151.290064">
  <ele>343.1</ele>
  <time>2026-09-01T19:53:55Z</time>
  <course>8.0</course>
  <speed>0.0</speed>
  <fix>3d</fix>
</trkpt>
<trkpt lat="-27.274439" lon="151.290064">
  <ele>343.1</ele>
  <time>2026-09-01T19:53:55Z</time>
  <course>8.0</course>
  <speed>0.0</speed>
  <fix>3d</fix>
</trkpt>
<trkpt lat="-27.274439" lon="151.290064">
  <ele>343.1</ele>
  <time>2026-09-01T19:53:55Z</time>
  <course>8.0</course>
  <speed>0.0</speed>
  <fix>3d</fix>
</trkpt>
<trkpt lat="-26.9720619" lon="149.6127921">
  <ele>339.29</ele>
  <time>2026-09-01T19:53:56Z</time>
  <course>310.27</course>
  <speed>0.0</speed>
  <fix>3d</fix>
</trkpt>
<trkpt lat="-26.9720619" lon="149.6127921">
  <ele>339.29</ele>
  <time>2026-09-01T19:53:56Z</time>
  <course>310.27</course>
  <speed>0.0</speed>
  <fix>3d</fix>
</trkpt>
<trkpt lat="-27.274439" lon="151.290064">
  <ele>-0.01</ele>
  <time>2026-09-01T19:53:56Z</time>
  <course>0.22</course>
  <speed>0.0</speed>
  <fix>3d</fix>
</trkpt>
<trkpt lat="-27.274439" lon="151.290064">
  <ele>343.1</ele>
  <time>2026-09-01T19:53:56Z</time>
  <course>294.58</course>
  <speed>0.0</speed>
  <fix>3d</fix>
</trkpt>
<trkpt lat="-27.274439" lon="151.290064">
  <ele>0.02</ele>
  <time>2026-09-01T19:53:56Z</time>
  <course>1.2</course>
  <speed>0.0</speed>
  <fix>3d</fix>
</trkpt>
<trkpt lat="-27.274439" lon="151.290064">
  <ele>343.1</ele>
  <time>2026-09-01T19:53:56Z</time>
  <course>294.58</course>
  <speed>0.0</speed>
  <fix>3d</fix>
</trkpt>
<trkpt lat="-27.274439" lon="151.290064">
  <ele>-0.08</ele>
  <time>2026-09-01T19:53:56Z</time>
  <course>2.1</course>
  <speed>0.0</speed>
  <fix>3d</fix>
</trkpt>
<trkpt lat="-27.274439" lon="151.290064">
  <ele>343.1</ele>
  <time>2026-09-01T19:53:56Z</time>
  <course>273.33</course>
  <speed>0.0</speed>
  <fix>3d</fix>
</trkpt>
<trkpt lat="-27.274439" lon="151.290064">
  <ele>0.22</ele>
  <time>2026-09-01T19:53:56Z</time>
  <course>2.92</course>
  <speed>0.0</speed>
  <fix>3d</fix>
</trkpt>
<trkpt lat="-27.274439" lon="151.290064">
  <ele>343.1</ele>
  <time>2026-09-01T19:53:56Z</time>
  <course>273.33</course>
  <speed>0.0</speed>
  <fix>3d</fix>
</trkpt>
<trkpt lat="-27.274439" lon="151.290064">
  <ele>0.09</ele>
  <time>2026-09-01T19:53:56Z</time>
  <course>3.66</course>
  <speed>0.0</speed>
  <fix>3d</fix>
</trkpt>
<trkpt lat="-27.274439" lon="151.290064">
  <ele>343.1</ele>
  <time>2026-09-01T19:53:56Z</time>
  <course>270.44</course>
  <speed>0.0</speed>
  <fix>3d</fix>
</trkpt>
<trkpt lat="-27.274439" lon="151.290064">
  <ele>0.08</ele>
  <time>2026-09-01T19:53:56Z</time>
  <course>4.34</course>
  <speed>0.0</speed>
  <fix>3d</fix>
</trkpt>
<trkpt lat="-27.274439" lon="151.290064">
  <ele>343.1</ele>
  <time>2026-09-01T19:53:56Z</time>
  <course>270.44</course>
  <speed>0.0</speed>
  <fix>3d</fix>
</trkpt>
<trkpt lat="-27.274439" lon="151.290064">
  <ele>0.09</ele>
  <time>2026-09-01T19:53:56Z</time>
  <course>4.95</course>
  <speed>0.0</speed>
  <fix>3d</fix>
</trkpt>
<trkpt lat="-27.274439" lon="151.290064">
  <ele>343.1</ele>
  <time>2026-09-01T19:53:56Z</time>
  <course>270.05</course>
  <speed>0.0</speed>
  <fix>3d</fix>
</trkpt>
<trkpt lat="-27.274439" lon="151.290064">
  <ele>-0.05</ele>
  <time>2026-09-01T19:53:56Z</time>
  <course>5.5</course>
  <speed>0.0</speed>
  <fix>3d</fix>
</trkpt>
<trkpt lat="-27.274439" lon="151.290064">
  <ele>343.1</ele>
  <time>2026-09-01T19:53:56Z</time>
  <course>270.05</course>
  <speed>0.0</speed>
  <fix>3d</fix>
</trkpt>
<trkpt lat="-27.274439" lon="151.290064">
  <ele>343.06</ele>
  <time>2026-09-01T19:53:56Z</time>
  <course>5.98</course>
  <speed>0.0</speed>
  <fix>3d</fix>
</trkpt>
<trkpt lat="-27.274439" lon="151.290064">
  <ele>343.1</ele>
  <time>2026-09-01T19:53:56Z</time>
  <course>270.0</course>
  <speed>0.0</speed>
  <fix>3d</fix>
</trkpt>
<trkpt lat="-27.274439" lon="151.290064">
  <ele>343.18</ele>
  <time>2026-09-01T19:53:56Z</time>
  <course>6.44</course>
  <speed>0.0</speed>
  <fix>3d</fix>
</trkpt>
<trkpt lat="-27.274439" lon="151.290064">
  <ele>343.1</ele>
  <time>2026-09-01T19:53:56Z</time>
  <course>270.0</course>
  <speed>0.0</speed>
  <fix>3d</fix>
</trkpt>
<trkpt lat="-27.274439" lon="151.290064">
  <ele>342.91</ele>
  <time>2026-09-01T19:53:56Z</time>
  <course>6.85</course>
  <speed>0.0</speed>
  <fix>3d</fix>
</trkpt>
<trkpt lat="-27.274439" lon="151.290064">
  <ele>343.1</ele>
  <time>2026-09-01T19:53:56Z</time>
  <course>270.0</course>
  <speed>0.0</speed>
  <fix>3d</fix>
</trkpt>
<trkpt lat="-27.274439" lon="151.290064">
  <ele>343.06</ele>
  <time>2026-09-01T19:53:56Z</time>
  <course>7.22</course>
  <speed>0.0</speed>
  <fix>3d</fix>
</trkpt>
<trkpt lat="-27.274439" lon="151.290064">
  <ele>343.1</ele>
  <time>2026-09-01T19:53:56Z</time>
  <course>270.0</course>
  <speed>0.0</speed>
  <fix>3d</fix>
</trkpt>
<trkpt lat="-27.274439" lon="151.290064">
  <ele>343.13</ele>
  <time>2026-09-01T19:53:56Z</time>
  <course>7.56</course>
  <speed>0.0</speed>
  <fix>3d</fix>
</trkpt>
<trkpt lat="-27.274439" lon="151.290064">
  <ele>343.1</ele>
  <time>2026-09-01T19:53:56Z</time>
  <course>270.0</course>
  <speed>0.0</speed>
  <fix>3d</fix>
</trkpt>
<trkpt lat="-27.274439" lon="151.290064">
  <ele>343.04</ele>
  <time>2026-09-01T19:53:56Z</time>
  <course>7.87</course>
  <speed>0.0</speed>
  <fix>3d</fix>
</trkpt>
<trkpt lat="-27.274439" lon="151.290064">
  <ele>343.1</ele>
  <time>2026-09-01T19:53:56Z</time>
  <course>270.0</course>
  <speed>0.0</speed>
  <fix>3d</fix>
</trkpt>
<trkpt lat="-27.274439" lon="151.290064">
  <ele>342.88</ele>
  <time>2026-09-01T19:53:56Z</time>
  <course>8.14</course>
  <speed>0.0</speed>
  <fix>3d</fix>
</trkpt>
<trkpt lat="-27.274439" lon="151.290064">
  <ele>343.1</ele>
  <time>2026-09-01T19:53:56Z</time>
  <course>270.0</course>
  <speed>0.0</speed>
  <fix>3d</fix>
</trkpt>
<trkpt lat="-27.274439" lon="151.290064">
  <ele>343.02</ele>
  <time>2026-09-01T19:53:56Z</time>
  <course>8.39</course>
  <speed>0.0</speed>
  <fix>3d</fix>
</trkpt>
<trkpt lat="-27.274439" lon="151.290064">
  <ele>343.1</ele>
  <time>2026-09-01T19:53:56Z</time>
  <course>270.0</course>
  <speed>0.0</speed>
  <fix>3d</fix>
</trkpt>
<trkpt lat="-27.274439" lon="151.290064">
  <ele>343.23</ele>
  <time>2026-09-01T19:53:56Z</time>
  <course>8.63</course>
  <speed>0.0</speed>
  <fix>3d</fix>
</trkpt>
<trkpt lat="-27.274439" lon="151.290064">
  <ele>343.1</ele>
  <time>2026-09-01T19:53:56Z</time>
  <course>270.0</course>
  <speed>0.0</speed>
  <fix>3d</fix>
</trkpt>
<trkpt lat="-27.274439" lon="151.290064">
  <ele>343.17</ele>
  <time>2026-09-01T19:53:56Z</time>
  <course>8.83</course>
  <speed>0.0</speed>
  <fix>3d</fix>
</trkpt>
<trkpt lat="-27.274439" lon="151.290064">
  <ele>343.1</ele>
  <time>2026-09-01T19:53:56Z</time>
  <course>270.0</course>
  <speed>0.0</speed>
  <fix>3d</fix>
</trkpt>
<trkpt lat="-27.274439" lon="151.290064">
  <ele>343.04</ele>
  <time>2026-09-01T19:53:56Z</time>
  <course>9.01</course>
  <speed>0.0</speed>
  <fix>3d</fix>
</trkpt>
<trkpt lat="-27.274439" lon="151.290064">
  <ele>343.1</ele>
  <time>2026-09-01T19:53:56Z</time>
  <course>270.0</course>
  <speed>0.0</speed>
  <fix>3d</fix>
</trkpt>
<trkpt lat="-27.274439" lon="151.290064">
  <ele>342.89</ele>
  <time>2026-09-01T19:53:56Z</time>
  <course>9.18</course>
  <speed>0.0</speed>
  <fix>3d</fix>
</trkpt>
<trkpt lat="-27.274439" lon="151.290064">
  <ele>343.1</ele>
  <time>2026-09-01T19:53:56Z</time>
  <course>270.0</course>
  <speed>0.0</speed>
  <fix>3d</fix>
</trkpt>
<trkpt lat="-27.274439" lon="151.290064">
  <ele>343.08</ele>
  <time>2026-09-01T19:53:56Z</time>
  <course>9.33</course>
  <speed>0.0</speed>
  <fix>3d</fix>
</trkpt>
<trkpt lat="-27.274439" lon="151.290064">
  <ele>343.1</ele>
  <time>2026-09-01T19:53:56Z</time>
  <course>270.0</course>
  <speed>0.0</speed>
  <fix>3d</fix>
</trkpt>
<trkpt lat="-27.274439" lon="151.290064">
  <ele>343.19</ele>
  <time>2026-09-01T19:53:56Z</time>
  <course>9.47</course>
  <speed>0.0</speed>
  <fix>3d</fix>
</trkpt>
<trkpt lat="-27.274439" lon="151.290064">
  <ele>343.1</ele>
  <time>2026-09-01T19:53:56Z</time>
  <course>270.0</course>
  <speed>0.0</speed>
  <fix>3d</fix>
</trkpt>
<trkpt lat="-27.274439" lon="151.290064">
  <ele>342.88</ele>
  <time>2026-09-01T19:53:56Z</time>
  <course>9.59</course>
  <speed>0.0</speed>
  <fix>3d</fix>
</trkpt>
<trkpt lat="-27.274439" lon="151.290064">
  <ele>343.1</ele>
  <time>2026-09-01T19:53:56Z</time>
  <course>270.0</course>
  <speed>0.0</speed>
  <fix>3d</fix>
</trkpt>
<trkpt lat="-27.274439" lon="151.290064">
  <ele>343.17</ele>
  <time>2026-09-01T19:53:56Z</time>
  <course>9.7</course>
  <speed>0.0</speed>
  <fix>3d</fix>
</trkpt>
<trkpt lat="-27.274439" lon="151.290064">
  <ele>343.1</ele>
  <time>2026-09-01T19:53:56Z</time>
  <course>270.0</course>
  <speed>0.0</speed>
  <fix>3d</fix>
</trkpt>
<trkpt lat="-27.274439" lon="151.290064">
  <ele>342.89</ele>
  <time>2026-09-01T19:53:56Z</time>
  <course>9.8</course>
  <speed>0.0</speed>
  <fix>3d</fix>
</trkpt>
<trkpt lat="-27.274439" lon="151.290064">
  <ele>343.1</ele>
  <time>2026-09-01T19:53:56Z</time>
  <course>270.0</course>
  <speed>0.0</speed>
  <fix>3d</fix>
</trkpt>
<trkpt lat="-27.274439" lon="151.290064">
  <ele>342.99</ele>
  <time>2026-09-01T19:53:56Z</time>
  <course>9.9</course>
  <speed>0.0</speed>
  <fix>3d</fix>
</trkpt>
<trkpt lat="-27.274439" lon="151.290064">
  <ele>343.1</ele>
  <time>2026-09-01T19:53:56Z</time>
  <course>270.0</course>
  <speed>0.0</speed>
  <fix>3d</fix>
</trkpt>
<trkpt lat="-27.274439" lon="151.290064">
  <ele>342.87</ele>
  <time>2026-09-01T19:53:56Z</time>
  <course>9.98</course>
  <speed>0.0</speed>
  <fix>3d</fix>
</trkpt>
<trkpt lat="-27.274439" lon="151.290064">
  <ele>343.1</ele>
  <time>2026-09-01T19:53:56Z</time>
  <course>270.0</course>
  <speed>0.0</speed>
  <fix>3d</fix>
</trkpt>
<trkpt lat="-27.274439" lon="151.290064">
  <ele>343.09</ele>
  <time>2026-09-01T19:53:56Z</time>
  <course>10.06</course>
  <speed>0.0</speed>
  <fix>3d</fix>
</trkpt>
<trkpt lat="-27.274439" lon="151.290064">
  <ele>343.1</ele>
  <time>2026-09-01T19:53:56Z</time>
  <course>270.0</course>
  <speed>0.0</speed>
  <fix>3d</fix>
</trkpt>
<trkpt lat="-27.274439" lon="151.290064">
  <ele>343.18</ele>
  <time>2026-09-01T19:53:56Z</time>
  <course>10.13</course>
  <speed>0.0</speed>
  <fix>3d</fix>
</trkpt>
<trkpt lat="-27.274439" lon="151.290064">
  <ele>343.1</ele>
  <time>2026-09-01T19:53:56Z</time>
  <course>270.0</course>
  <speed>0.0</speed>
  <fix>3d</fix>
</trkpt>
<trkpt lat="-27.274439" lon="151.290064">
  <ele>343.05</ele>
  <time>2026-09-01T19:53:56Z</time>
  <course>10.2</course>
  <speed>0.0</speed>
  <fix>3d</fix>
</trkpt>
<trkpt lat="-27.274439" lon="151.290064">
  <ele>343.1</ele>
  <time>2026-09-01T19:53:56Z</time>
  <course>270.0</course>
  <speed>0.0</speed>
  <fix>3d</fix>
</trkpt>
<trkpt lat="-27.274439" lon="151.290064">
  <ele>342.96</ele>
  <time>2026-09-01T19:53:56Z</time>
  <course>10.25</course>
  <speed>0.0</speed>
  <fix>3d</fix>
</trkpt>
<trkpt lat="-27.274439" lon="151.290064">
  <ele>343.1</ele>
  <time>2026-09-01T19:53:56Z</time>
  <course>270.0</course>
  <speed>0.0</speed>
  <fix>3d</fix>
</trkpt>
<trkpt lat="-27.274439" lon="151.290064">
  <ele>343.1</ele>
  <time>2026-09-01T19:53:56Z</time>
  <course>10.31</course>
  <speed>0.0</speed>
  <fix>3d</fix>
</trkpt>
<trkpt lat="-27.274439" lon="151.290064">
  <ele>343.1</ele>
  <time>2026-09-01T19:53:56Z</time>
  <course>270.0</course>
  <speed>0.0</speed>
  <fix>3d</fix>
</trkpt>
<trkpt lat="-27.274439" lon="151.290064">
  <ele>343.22</ele>
  <time>2026-09-01T19:53:56Z</time>
  <course>10.35</course>
  <speed>0.0</speed>
  <fix>3d</fix>
</trkpt>
<trkpt lat="-27.274439" lon="151.290064">
  <ele>343.1</ele>
  <time>2026-09-01T19:53:56Z</time>
  <course>270.0</course>
  <speed>0.0</speed>
  <fix>3d</fix>
</trkpt>
<trkpt lat="-27.274439" lon="151.290064">
  <ele>343.17</ele>
  <time>2026-09-01T19:53:56Z</time>
  <course>10.4</course>
  <speed>0.0</speed>
  <fix>3d</fix>
</trkpt>
<trkpt lat="-27.274439" lon="151.290064">
  <ele>343.1</ele>
  <time>2026-09-01T19:53:56Z</time>
  <course>270.0</course>
  <speed>0.0</speed>
  <fix>3d</fix>
</trkpt>
<trkpt lat="-27.274439" lon="151.290064">
  <ele>343.08</ele>
  <time>2026-09-01T19:53:56Z</time>
  <course>10.44</course>
  <speed>0.0</speed>
  <fix>3d</fix>
</trkpt>
<trkpt lat="-27.274439" lon="151.290064">
  <ele>343.1</ele>
  <time>2026-09-01T19:53:56Z</time>
  <course>270.0</course>
  <speed>0.0</speed>
  <fix>3d</fix>
</trkpt>
<trkpt lat="-27.274439" lon="151.290064">
  <ele>343.04</ele>
  <time>2026-09-01T19:53:56Z</time>
  <course>10.47</course>
  <speed>0.0</speed>
  <fix>3d</fix>
</trkpt>
<trkpt lat="-27.274439" lon="151.290064">
  <ele>343.1</ele>
  <time>2026-09-01T19:53:56Z</time>
  <course>270.0</course>
  <speed>0.0</speed>
  <fix>3d</fix>
</trkpt>
<trkpt lat="-27.274439" lon="151.290064">
  <ele>343.18</ele>
  <time>2026-09-01T19:53:56Z</time>
  <course>10.5</course>
  <speed>0.0</speed>
  <fix>3d</fix>
</trkpt>
<trkpt lat="-27.274439" lon="151.290064">
  <ele>343.1</ele>
  <time>2026-09-01T19:53:56Z</time>
  <course>270.0</course>
  <speed>0.0</speed>
  <fix>3d</fix>
</trkpt>
<trkpt lat="-27.274439" lon="151.290064">
  <ele>343.12</ele>
  <time>2026-09-01T19:53:56Z</time>
  <course>10.53</course>
  <speed>0.0</speed>
  <fix>3d</fix>
</trkpt>
<trkpt lat="-27.274439" lon="151.290064">
  <ele>343.1</ele>
  <time>2026-09-01T19:53:56Z</time>
  <course>270.0</course>
  <speed>0.0</speed>
  <fix>3d</fix>
</trkpt>
<trkpt lat="-27.274439" lon="151.290064">
  <ele>343.04</ele>
  <time>2026-09-01T19:53:56Z</time>
  <course>10.56</course>
  <speed>0.0</speed>
  <fix>3d</fix>
</trkpt>
<trkpt lat="-27.274439" lon="151.290064">
  <ele>343.1</ele>
  <time>2026-09-01T19:53:56Z</time>
  <course>270.0</course>
  <speed>0.0</speed>
  <fix>3d</fix>
</trkpt>
<trkpt lat="-27.274439" lon="151.290064">
  <ele>343.07</ele>
  <time>2026-09-01T19:53:56Z</time>
  <course>10.58</course>
  <speed>0.0</speed>
  <fix>3d</fix>
</trkpt>
<trkpt lat="-27.274439" lon="151.290064">
  <ele>343.1</ele>
  <time>2026-09-01T19:53:56Z</time>
  <course>270.0</course>
  <speed>0.0</speed>
  <fix>3d</fix>
</trkpt>
<trkpt lat="-27.274439" lon="151.290064">
  <ele>343.04</ele>
  <time>2026-09-01T19:53:56Z</time>
  <course>10.6</course>
  <speed>0.0</speed>
  <fix>3d</fix>
</trkpt>
<trkpt lat="-27.274439" lon="151.290064">
  <ele>343.1</ele>
  <time>2026-09-01T19:53:56Z</time>
  <course>270.0</course>
  <speed>0.0</speed>
  <fix>3d</fix>
</trkpt>
<trkpt lat="-27.274439" lon="151.290064">
  <ele>343.01</ele>
  <time>2026-09-01T19:53:56Z</time>
  <course>10.62</course>
  <speed>0.0</speed>
  <fix>3d</fix>
</trkpt>
<trkpt lat="-27.274439" lon="151.290064">
  <ele>343.1</ele>
  <time>2026-09-01T19:53:56Z</time>
  <course>270.0</course>
  <speed>0.0</speed>
  <fix>3d</fix>
</trkpt>
<trkpt lat="-27.274439" lon="151.290064">
  <ele>343.2</ele>
  <time>2026-09-01T19:53:56Z</time>
  <course>10.64</course>
  <speed>0.0</speed>
  <fix>3d</fix>
</trkpt>
<trkpt lat="-27.274439" lon="151.290064">
  <ele>343.1</ele>
  <time>2026-09-01T19:53:56Z</time>
  <course>270.0</course>
  <speed>0.0</speed>
  <fix>3d</fix>
</trkpt>
<trkpt lat="-27.274439" lon="151.290064">
  <ele>343.24</ele>
  <time>2026-09-01T19:53:56Z</time>
  <course>10.65</course>
  <speed>0.0</speed>
  <fix>3d</fix>
</trkpt>
<trkpt lat="-27.274439" lon="151.290064">
  <ele>343.1</ele>
  <time>2026-09-01T19:53:56Z</time>
  <course>270.0</course>
  <speed>0.0</speed>
  <fix>3d</fix>
</trkpt>
<trkpt lat="-27.274439" lon="151.290064">
  <ele>342.88</ele>
  <time>2026-09-01T19:53:56Z</time>
  <course>10.67</course>
  <speed>0.0</speed>
  <fix>3d</fix>
</trkpt>
<trkpt lat="-27.274439" lon="151.290064">
  <ele>343.1</ele>
  <time>2026-09-01T19:53:56Z</time>
  <course>270.0</course>
  <speed>0.0</speed>
  <fix>3d</fix>
</trkpt>
<trkpt lat="-27.274439" lon="151.290064">
  <ele>343.21</ele>
  <time>2026-09-01T19:53:56Z</time>
  <course>10.68</course>
  <speed>0.0</speed>
  <fix>3d</fix>
</trkpt>
<trkpt lat="-27.274439" lon="151.290064">
  <ele>343.1</ele>
  <time>2026-09-01T19:53:56Z</time>
  <course>270.0</course>
  <speed>0.0</speed>
  <fix>3d</fix>
</trkpt>
<trkpt lat="-27.274439" lon="151.290064">
  <ele>343.02</ele>
  <time>2026-09-01T19:53:56Z</time>
  <course>10.69</course>
  <speed>0.0</speed>
  <fix>3d</fix>
</trkpt>
<trkpt lat="-27.274439" lon="151.290064">
  <ele>343.1</ele>
  <time>2026-09-01T19:53:56Z</time>
  <course>270.0</course>
  <speed>0.0</speed>
  <fix>3d</fix>
</trkpt>
<trkpt lat="-27.274439" lon="151.290064">
  <ele>342.93</ele>
  <time>2026-09-01T19:53:56Z</time>
  <course>10.7</course>
  <speed>0.0</speed>
  <fix>3d</fix>
</trkpt>
<trkpt lat="-27.274439" lon="151.290064">
  <ele>343.1</ele>
  <time>2026-09-01T19:53:56Z</time>
  <course>270.0</course>
  <speed>0.0</speed>
  <fix>3d</fix>
</trkpt>
<trkpt lat="-27.274439" lon="151.290064">
  <ele>343.07</ele>
  <time>2026-09-01T19:53:56Z</time>
  <course>10.71</course>
  <speed>0.0</speed>
  <fix>3d</fix>
</trkpt>
<trkpt lat="-27.274439" lon="151.290064">
  <ele>343.1</ele>
  <time>2026-09-01T19:53:56Z</time>
  <course>270.0</course>
  <speed>0.0</speed>
  <fix>3d</fix>
</trkpt>
<trkpt lat="-27.274439" lon="151.290064">
  <ele>342.94</ele>
  <time>2026-09-01T19:53:56Z</time>
  <course>10.72</course>
  <speed>0.0</speed>
  <fix>3d</fix>
</trkpt>
<trkpt lat="-27.274439" lon="151.290064">
  <ele>343.1</ele>
  <time>2026-09-01T19:53:56Z</time>
  <course>270.0</course>
  <speed>0.0</speed>
  <fix>3d</fix>
</trkpt>
<trkpt lat="-27.274439" lon="151.290064">
  <ele>343.11</ele>
  <time>2026-09-01T19:53:56Z</time>
  <course>10.73</course>
  <speed>0.0</speed>
  <fix>3d</fix>
</trkpt>
<trkpt lat="-27.274439" lon="151.290064">
  <ele>343.1</ele>
  <time>2026-09-01T19:53:56Z</time>
  <course>270.0</course>
  <speed>0.0</speed>
  <fix>3d</fix>
</trkpt>
<trkpt lat="-27.274439" lon="151.290064">
  <ele>343.24</ele>
  <time>2026-09-01T19:53:56Z</time>
  <course>10.73</course>
  <speed>0.0</speed>
  <fix>3d</fix>
</trkpt>
<trkpt lat="-27.274439" lon="151.290064">
  <ele>343.1</ele>
  <time>2026-09-01T19:53:56Z</time>
  <course>270.0</course>
  <speed>0.0</speed>
  <fix>3d</fix>
</trkpt>
<trkpt lat="-27.274439" lon="151.290064">
  <ele>343.18</ele>
  <time>2026-09-01T19:53:56Z</time>
  <course>10.74</course>
  <speed>0.0</speed>
  <fix>3d</fix>
</trkpt>
<trkpt lat="-27.274439" lon="151.290064">
  <ele>343.1</ele>
  <time>2026-09-01T19:53:56Z</time>
  <course>270.0</course>
  <speed>0.0</speed>
  <fix>3d</fix>
</trkpt>
<trkpt lat="-27.274439" lon="151.290064">
  <ele>342.89</ele>
  <time>2026-09-01T19:53:56Z</time>
  <course>10.75</course>
  <speed>0.0</speed>
  <fix>3d</fix>
</trkpt>
<trkpt lat="-27.274439" lon="151.290064">
  <ele>343.1</ele>
  <time>2026-09-01T19:53:56Z</time>
  <course>270.0</course>
  <speed>0.0</speed>
  <fix>3d</fix>
</trkpt>
<trkpt lat="-27.274439" lon="151.290064">
  <ele>343.23</ele>
  <time>2026-09-01T19:53:56Z</time>
  <course>10.75</course>
  <speed>0.0</speed>
  <fix>3d</fix>
</trkpt>
<trkpt lat="-27.274439" lon="151.290064">
  <ele>343.1</ele>
  <time>2026-09-01T19:53:56Z</time>
  <course>270.0</course>
  <speed>0.0</speed>
  <fix>3d</fix>
</trkpt>
<trkpt lat="-27.274439" lon="151.290064">
  <ele>343.23</ele>
  <time>2026-09-01T19:53:56Z</time>
  <course>10.76</course>
  <speed>0.0</speed>
  <fix>3d</fix>
</trkpt>
<trkpt lat="-27.274439" lon="151.290064">
  <ele>343.1</ele>
  <time>2026-09-01T19:53:56Z</time>
  <course>270.0</course>
  <speed>0.0</speed>
  <fix>3d</fix>
</trkpt>
<trkpt lat="-27.274439" lon="151.290064">
  <ele>342.99</ele>
  <time>2026-09-01T19:53:56Z</time>
  <course>10.76</course>
  <speed>0.0</speed>
  <fix>3d</fix>
</trkpt>
<trkpt lat="-27.274439" lon="151.290064">
  <ele>343.1</ele>
  <time>2026-09-01T19:53:56Z</time>
  <course>270.0</course>
  <speed>0.0</speed>
  <fix>3d</fix>
</trkpt>
<trkpt lat="-27.274439" lon="151.290064">
  <ele>343.13</ele>
  <time>2026-09-01T19:53:56Z</time>
  <course>10.76</course>
  <speed>0.0</speed>
  <fix>3d</fix>
</trkpt>
<trkpt lat="-27.274439" lon="151.290064">
  <ele>343.1</ele>
  <time>2026-09-01T19:53:56Z</time>
  <course>270.0</course>
  <speed>0.0</speed>
  <fix>3d</fix>
</trkpt>
<trkpt lat="-27.274439" lon="151.290064">
  <ele>343.07</ele>
  <time>2026-09-01T19:53:56Z</time>
  <course>10.77</course>
  <speed>0.0</speed>
  <fix>3d</fix>
</trkpt>
<trkpt lat="-27.274439" lon="151.290064">
  <ele>343.1</ele>
  <time>2026-09-01T19:53:56Z</time>
  <course>270.0</course>
  <speed>0.0</speed>
  <fix>3d</fix>
</trkpt>
<trkpt lat="-27.274439" lon="151.290064">
  <ele>343.19</ele>
  <time>2026-09-01T19:53:56Z</time>
  <course>10.77</course>
  <speed>0.0</speed>
  <fix>3d</fix>
</trkpt>
<trkpt lat="-27.274439" lon="151.290064">
  <ele>343.1</ele>
  <time>2026-09-01T19:53:56Z</time>
  <course>270.0</course>
  <speed>0.0</speed>
  <fix>3d</fix>
</trkpt>
<trkpt lat="-27.274439" lon="151.290064">
  <ele>342.93</ele>
  <time>2026-09-01T19:53:56Z</time>
  <course>10.77</course>
  <speed>0.0</speed>
  <fix>3d</fix>
</trkpt>
<trkpt lat="-27.274439" lon="151.290064">
  <ele>343.1</ele>
  <time>2026-09-01T19:53:56Z</time>
  <course>270.0</course>
  <speed>0.0</speed>
  <fix>3d</fix>
</trkpt>
<trkpt lat="-27.274439" lon="151.290064">
  <ele>343.19</ele>
  <time>2026-09-01T19:53:56Z</time>
  <course>10.78</course>
  <speed>0.0</speed>
  <fix>3d</fix>
</trkpt>
<trkpt lat="-27.274439" lon="151.290064">
  <ele>343.1</ele>
  <time>2026-09-01T19:53:56Z</time>
  <course>270.0</course>
  <speed>0.0</speed>
  <fix>3d</fix>
</trkpt>
<trkpt lat="-27.274439" lon="151.290064">
  <ele>343.1</ele>
  <time>2026-09-01T19:53:56Z</time>
  <course>10.78</course>
  <speed>0.0</speed>
  <fix>3d</fix>
</trkpt>
<trkpt lat="-27.274439" lon="151.290064">
  <ele>343.1</ele>
  <time>2026-09-01T19:53:56Z</time>
  <course>270.0</course>
  <speed>0.0</speed>
  <fix>3d</fix>
</trkpt>
<trkpt lat="-27.274439" lon="151.290064">
  <ele>343.01</ele>
  <time>2026-09-01T19:53:56Z</time>
  <course>10.78</course>
  <speed>0.0</speed>
  <fix>3d</fix>
</trkpt>
<trkpt lat="-27.274439" lon="151.290064">
  <ele>343.1</ele>
  <time>2026-09-01T19:53:56Z</time>
  <course>270.0</course>
  <speed>0.0</speed>
  <fix>3d</fix>
</trkpt>
<trkpt lat="-27.274439" lon="151.290064">
  <ele>343.11</ele>
  <time>2026-09-01T19:53:56Z</time>
  <course>10.78</course>
  <speed>0.0</speed>
  <fix>3d</fix>
</trkpt>
<trkpt lat="-27.274439" lon="151.290064">
  <ele>343.1</ele>
  <time>2026-09-01T19:53:56Z</time>
  <course>270.0</course>
  <speed>0.0</speed>
  <fix>3d</fix>
</trkpt>
<trkpt lat="-27.274439" lon="151.290064">
  <ele>342.96</ele>
  <time>2026-09-01T19:53:56Z</time>
  <course>10.78</course>
  <speed>0.0</speed>
  <fix>3d</fix>
</trkpt>
<trkpt lat="-27.274439" lon="151.290064">
  <ele>343.1</ele>
  <time>2026-09-01T19:53:56Z</time>
  <course>270.0</course>
  <speed>0.0</speed>
  <fix>3d</fix>
</trkpt>
<trkpt lat="-27.274439" lon="151.290064">
  <ele>343.19</ele>
  <time>2026-09-01T19:53:56Z</time>
  <course>10.79</course>
  <speed>0.0</speed>
  <fix>3d</fix>
</trkpt>
<trkpt lat="-27.274439" lon="151.290064">
  <ele>343.1</ele>
  <time>2026-09-01T19:53:56Z</time>
  <course>270.0</course>
  <speed>0.0</speed>
  <fix>3d</fix>
</trkpt>
<trkpt lat="-27.274439" lon="151.290064">
  <ele>343.0</ele>
  <time>2026-09-01T19:53:56Z</time>
  <course>10.79</course>
  <speed>0.0</speed>
  <fix>3d</fix>
</trkpt>
<trkpt lat="-27.274439" lon="151.290064">
  <ele>343.1</ele>
  <time>2026-09-01T19:53:56Z</time>
  <course>270.0</course>
  <speed>0.0</speed>
  <fix>3d</fix>
</trkpt>
<trkpt lat="-27.274439" lon="151.290064">
  <ele>343.2</ele>
  <time>2026-09-01T19:53:56Z</time>
  <course>10.79</course>
  <speed>0.0</speed>
  <fix>3d</fix>
</trkpt>
<trkpt lat="-27.274439" lon="151.290064">
  <ele>343.1</ele>
  <time>2026-09-01T19:53:56Z</time>
  <course>270.0</course>
  <speed>0.0</speed>
  <fix>3d</fix>
</trkpt>
<trkpt lat="-27.274439" lon="151.290064">
  <ele>343.2</ele>
  <time>2026-09-01T19:53:56Z</time>
  <course>10.79</course>
  <speed>0.0</speed>
  <fix>3d</fix>
</trkpt>
<trkpt lat="-27.274439" lon="151.290064">
  <ele>343.1</ele>
  <time>2026-09-01T19:53:56Z</time>
  <course>270.0</course>
  <speed>0.0</speed>
  <fix>3d</fix>
</trkpt>
<trkpt lat="-27.274439" lon="151.290064">
  <ele>343.13</ele>
  <time>2026-09-01T19:53:56Z</time>
  <course>10.79</course>
  <speed>0.0</speed>
  <fix>3d</fix>
</trkpt>
<trkpt lat="-27.274439" lon="151.290064">
  <ele>343.1</ele>
  <time>2026-09-01T19:53:56Z</time>
  <course>270.0</course>
  <speed>0.0</speed>
  <fix>3d</fix>
</trkpt>
<trkpt lat="-27.274439" lon="151.290064">
  <ele>343.1</ele>
  <time>2026-09-01T19:53:56Z</time>
  <course>10.79</course>
  <speed>0.0</speed>
  <fix>3d</fix>
</trkpt>
<trkpt lat="-27.274439" lon="151.290064">
  <ele>343.1</ele>
  <time>2026-09-01T19:53:56Z</time>
  <course>270.0</course>
  <speed>0.0</speed>
  <fix>3d</fix>
</trkpt>
<trkpt lat="-27.274439" lon="151.290064">
  <ele>343.12</ele>
  <time>2026-09-01T19:53:56Z</time>
  <course>10.79</course>
  <speed>0.0</speed>
  <fix>3d</fix>
</trkpt>
<trkpt lat="-27.274439" lon="151.290064">
  <ele>343.1</ele>
  <time>2026-09-01T19:53:56Z</time>
  <course>270.0</course>
  <speed>0.0</speed>
  <fix>3d</fix>
</trkpt>
<trkpt lat="-27.274439" lon="151.290064">
  <ele>342.94</ele>
  <time>2026-09-01T19:53:56Z</time>
  <course>10.79</course>
  <speed>0.0</speed>
  <fix>3d</fix>
</trkpt>
<trkpt lat="-27.274439" lon="151.290064">
  <ele>343.1</ele>
  <time>2026-09-01T19:53:56Z</time>
  <course>270.0</course>
  <speed>0.0</speed>
  <fix>3d</fix>
</trkpt>
<trkpt lat="-27.274439" lon="151.290064">
  <ele>343.25</ele>
  <time>2026-09-01T19:53:56Z</time>
  <course>10.79</course>
  <speed>0.0</speed>
  <fix>3d</fix>
</trkpt>
<trkpt lat="-27.274439" lon="151.290064">
  <ele>343.1</ele>
  <time>2026-09-01T19:53:56Z</time>
  <course>270.0</course>
  <speed>0.0</speed>
  <fix>3d</fix>
</trkpt>
<trkpt lat="-27.274439" lon="151.290064">
  <ele>342.93</ele>
  <time>2026-09-01T19:53:56Z</time>
  <course>10.79</course>
  <speed>0.0</speed>
  <fix>3d</fix>
</trkpt>
<trkpt lat="-27.274439" lon="151.290064">
  <ele>343.1</ele>
  <time>2026-09-01T19:53:56Z</time>
  <course>270.0</course>
  <speed>0.0</speed>
  <fix>3d</fix>
</trkpt>
<trkpt lat="-27.274439" lon="151.290064">
  <ele>343.08</ele>
  <time>2026-09-01T19:53:56Z</time>
  <course>10.79</course>
  <speed>0.0</speed>
  <fix>3d</fix>
</trkpt>
<trkpt lat="-27.274439" lon="151.290064">
  <ele>343.1</ele>
  <time>2026-09-01T19:53:56Z</time>
  <course>270.0</course>
  <speed>0.0</speed>
  <fix>3d</fix>
</trkpt>
<trkpt lat="-27.274439" lon="151.290064">
  <ele>343.23</ele>
  <time>2026-09-01T19:53:56Z</time>
  <course>10.8</course>
  <speed>0.0</speed>
  <fix>3d</fix>
</trkpt>
<trkpt lat="-27.274439" lon="151.290064">
  <ele>343.1</ele>
  <time>2026-09-01T19:53:56Z</time>
  <course>270.0</course>
  <speed>0.0</speed>
  <fix>3d</fix>
</trkpt>
<trkpt lat="-27.274439" lon="151.290064">
  <ele>343.01</ele>
  <time>2026-09-01T19:53:56Z</time>
  <course>10.8</course>
  <speed>0.0</speed>
  <fix>3d</fix>
</trkpt>
<trkpt lat="-27.274439" lon="151.290064">
  <ele>343.1</ele>
  <time>2026-09-01T19:53:56Z</time>
  <course>270.0</course>
  <speed>0.0</speed>
  <fix>3d</fix>
</trkpt>
<trkpt lat="-27.274439" lon="151.290064">
  <ele>343.1</ele>
  <time>2026-09-01T19:53:56Z</time>
  <course>10.8</course>
  <speed>0.0</speed>
  <fix>3d</fix>
</trkpt>
<trkpt lat="-27.274439" lon="151.290064">
  <ele>343.1</ele>
  <time>2026-09-01T19:53:56Z</time>
  <course>270.0</course>
  <speed>0.0</speed>
  <fix>3d</fix>
</trkpt>
<trkpt lat="-27.274439" lon="151.290064">
  <ele>342.99</ele>
  <time>2026-09-01T19:53:56Z</time>
  <course>10.8</course>
  <speed>0.0</speed>
  <fix>3d</fix>
</trkpt>
<trkpt lat="-27.274439" lon="151.290064">
  <ele>343.1</ele>
  <time>2026-09-01T19:53:56Z</time>
  <course>270.0</course>
  <speed>0.0</speed>
  <fix>3d</fix>
</trkpt>
<trkpt lat="-27.274439" lon="151.290064">
  <ele>342.87</ele>
  <time>2026-09-01T19:53:56Z</time>
  <course>10.8</course>
  <speed>0.0</speed>
  <fix>3d</fix>
</trkpt>
<trkpt lat="-27.274439" lon="151.290064">
  <ele>343.1</ele>
  <time>2026-09-01T19:53:56Z</time>
  <course>270.0</course>
  <speed>0.0</speed>
  <fix>3d</fix>
</trkpt>
<trkpt lat="-27.274439" lon="151.290064">
  <ele>343.1</ele>
  <time>2026-09-01T19:53:56Z</time>
  <course>10.8</course>
  <speed>0.0</speed>
  <fix>3d</fix>
</trkpt>
<trkpt lat="-27.274439" lon="151.290064">
  <ele>343.1</ele>
  <time>2026-09-01T19:53:56Z</time>
  <course>270.0</course>
  <speed>0.0</speed>
  <fix>3d</fix>
</trkpt>
<trkpt lat="-27.274439" lon="151.290064">
  <ele>342.99</ele>
  <time>2026-09-01T19:53:56Z</time>
  <course>10.8</course>
  <speed>0.0</speed>
  <fix>3d</fix>
</trkpt>
<trkpt lat="-27.274439" lon="151.290064">
  <ele>343.1</ele>
  <time>2026-09-01T19:53:56Z</time>
  <course>270.0</course>
  <speed>0.0</speed>
  <fix>3d</fix>
</trkpt>
<trkpt lat="-27.274439" lon="151.290064">
  <ele>342.91</ele>
  <time>2026-09-01T19:53:56Z</time>
  <course>10.8</course>
  <speed>0.0</speed>
  <fix>3d</fix>
</trkpt>
<trkpt lat="-27.274439" lon="151.290064">
  <ele>343.1</ele>
  <time>2026-09-01T19:53:56Z</time>
  <course>270.0</course>
  <speed>0.0</speed>
  <fix>3d</fix>
</trkpt>
<trkpt lat="-27.274439" lon="151.290064">
  <ele>342.9</ele>
  <time>2026-09-01T19:53:56Z</time>
  <course>10.8</course>
  <speed>0.0</speed>
  <fix>3d</fix>
</trkpt>
<trkpt lat="-27.274439" lon="151.290064">
  <ele>343.1</ele>
  <time>2026-09-01T19:53:56Z</time>
  <course>270.0</course>
  <speed>0.0</speed>
  <fix>3d</fix>
</trkpt>
<trkpt lat="-27.274439" lon="151.290064">
  <ele>342.87</ele>
  <time>2026-09-01T19:53:56Z</time>
  <course>10.8</course>
  <speed>0.0</speed>
  <fix>3d</fix>
</trkpt>
<trkpt lat="-27.274439" lon="151.290064">
  <ele>343.1</ele>
  <time>2026-09-01T19:53:56Z</time>
  <course>270.0</course>
  <speed>0.0</speed>
  <fix>3d</fix>
</trkpt>
<trkpt lat="-27.274439" lon="151.290064">
  <ele>343.12</ele>
  <time>2026-09-01T19:53:56Z</time>
  <course>10.8</course>
  <speed>0.0</speed>
  <fix>3d</fix>
</trkpt>
<trkpt lat="-27.274439" lon="151.290064">
  <ele>343.1</ele>
  <time>2026-09-01T19:53:56Z</time>
  <course>270.0</course>
  <speed>0.0</speed>
  <fix>3d</fix>
</trkpt>
<trkpt lat="-27.274439" lon="151.290064">
  <ele>342.99</ele>
  <time>2026-09-01T19:53:56Z</time>
  <course>10.8</course>
  <speed>0.0</speed>
  <fix>3d</fix>
</trkpt>
<trkpt lat="-27.274439" lon="151.290064">
  <ele>343.1</ele>
  <time>2026-09-01T19:53:56Z</time>
  <course>270.0</course>
  <speed>0.0</speed>
  <fix>3d</fix>
</trkpt>
<trkpt lat="-27.274439" lon="151.290064">
  <ele>343.13</ele>
  <time>2026-09-01T19:53:56Z</time>
  <course>10.8</course>
  <speed>0.0</speed>
  <fix>3d</fix>
</trkpt>
<trkpt lat="-27.274439" lon="151.290064">
  <ele>343.1</ele>
  <time>2026-09-01T19:53:56Z</time>
  <course>270.0</course>
  <speed>0.0</speed>
  <fix>3d</fix>
</trkpt>
<trkpt lat="-27.274439" lon="151.290064">
  <ele>343.0</ele>
  <time>2026-09-01T19:53:56Z</time>
  <course>10.8</course>
  <speed>0.0</speed>
  <fix>3d</fix>
</trkpt>
<trkpt lat="-27.274439" lon="151.290064">
  <ele>343.1</ele>
  <time>2026-09-01T19:53:56Z</time>
  <course>270.0</course>
  <speed>0.0</speed>
  <fix>3d</fix>
</trkpt>
<trkpt lat="-27.274439" lon="151.290064">
  <ele>343.17</ele>
  <time>2026-09-01T19:53:56Z</time>
  <course>10.8</course>
  <speed>0.0</speed>
  <fix>3d</fix>
</trkpt>
<trkpt lat="-27.274439" lon="151.290064">
  <ele>343.1</ele>
  <time>2026-09-01T19:53:56Z</time>
  <course>270.0</course>
  <speed>0.0</speed>
  <fix>3d</fix>
</trkpt>
<trkpt lat="-27.274439" lon="151.290064">
  <ele>343.0</ele>
  <time>2026-09-01T19:53:56Z</time>
  <course>10.8</course>
  <speed>0.0</speed>
  <fix>3d</fix>
</trkpt>
<trkpt lat="-27.274439" lon="151.290064">
  <ele>343.1</ele>
  <time>2026-09-01T19:53:56Z</time>
  <course>270.0</course>
  <speed>0.0</speed>
  <fix>3d</fix>
</trkpt>
<trkpt lat="-27.274439" lon="151.290064">
  <ele>342.99</ele>
  <time>2026-09-01T19:53:56Z</time>
  <course>10.8</course>
  <speed>0.0</speed>
  <fix>3d</fix>
</trkpt>
<trkpt lat="-27.274439" lon="151.290064">
  <ele>343.1</ele>
  <time>2026-09-01T19:53:56Z</time>
  <course>270.0</course>
  <speed>0.0</speed>
  <fix>3d</fix>
</trkpt>
<trkpt lat="-27.274439" lon="151.290064">
  <ele>343.17</ele>
  <time>2026-09-01T19:53:57Z</time>
  <course>10.8</course>
  <speed>0.0</speed>
  <fix>3d</fix>
</trkpt>
<trkpt lat="-27.274439" lon="151.290064">
  <ele>343.1</ele>
  <time>2026-09-01T19:53:57Z</time>
  <course>270.0</course>
  <speed>0.0</speed>
  <fix>3d</fix>
</trkpt>
<trkpt lat="-27.274439" lon="151.290064">
  <ele>343.16</ele>
  <time>2026-09-01T19:53:57Z</time>
  <course>10.8</course>
  <speed>0.0</speed>
  <fix>3d</fix>
</trkpt>
<trkpt lat="-27.274439" lon="151.290064">
  <ele>343.1</ele>
  <time>2026-09-01T19:53:57Z</time>
  <course>270.0</course>
  <speed>0.0</speed>
  <fix>3d</fix>
</trkpt>
<trkpt lat="-27.274439" lon="151.290064">
  <ele>342.87</ele>
  <time>2026-09-01T19:53:57Z</time>
  <course>10.8</course>
  <speed>0.0</speed>
  <fix>3d</fix>
</trkpt>
<trkpt lat="-27.274439" lon="151.290064">
  <ele>343.1</ele>
  <time>2026-09-01T19:53:57Z</time>
  <course>270.0</course>
  <speed>0.0</speed>
  <fix>3d</fix>
</trkpt>
<trkpt lat="-27.274439" lon="151.290064">
  <ele>343.19</ele>
  <time>2026-09-01T19:53:57Z</time>
  <course>10.8</course>
  <speed>0.0</speed>
  <fix>3d</fix>
</trkpt>
<trkpt lat="-27.274439" lon="151.290064">
  <ele>343.1</ele>
  <time>2026-09-01T19:53:57Z</time>
  <course>270.0</course>
  <speed>0.0</speed>
  <fix>3d</fix>
</trkpt>
<trkpt lat="-27.274439" lon="151.290064">
  <ele>343.16</ele>
  <time>2026-09-01T19:53:57Z</time>
  <course>10.8</course>
  <speed>0.0</speed>
  <fix>3d</fix>
</trkpt>
<trkpt lat="-27.274439" lon="151.290064">
  <ele>343.1</ele>
  <time>2026-09-01T19:53:57Z</time>
  <course>270.0</course>
  <speed>0.0</speed>
  <fix>3d</fix>
</trkpt>
<trkpt lat="-27.274439" lon="151.290064">
  <ele>343.21</ele>
  <time>2026-09-01T19:53:57Z</time>
  <course>10.8</course>
  <speed>0.0</speed>
  <fix>3d</fix>
</trkpt>
<trkpt lat="-27.274439" lon="151.290064">
  <ele>343.1</ele>
  <time>2026-09-01T19:53:57Z</time>
  <course>270.0</course>
  <speed>0.0</speed>
  <fix>3d</fix>
</trkpt>
<trkpt lat="-27.274439" lon="151.290064">
  <ele>343.22</ele>
  <time>2026-09-01T19:53:57Z</time>
  <course>10.8</course>
  <speed>0.0</speed>
  <fix>3d</fix>
</trkpt>
<trkpt lat="-27.274439" lon="151.290064">
  <ele>343.1</ele>
  <time>2026-09-01T19:53:57Z</time>
  <course>270.0</course>
  <speed>0.0</speed>
  <fix>3d</fix>
</trkpt>
<trkpt lat="-27.274439" lon="151.290064">
  <ele>343.24</ele>
  <time>2026-09-01T19:53:57Z</time>
  <course>10.8</course>
  <speed>0.0</speed>
  <fix>3d</fix>
</trkpt>
<trkpt lat="-27.274439" lon="151.290064">
  <ele>343.1</ele>
  <time>2026-09-01T19:53:57Z</time>
  <course>270.0</course>
  <speed>0.0</speed>
  <fix>3d</fix>
</trkpt>
<trkpt lat="-27.274439" lon="151.290064">
  <ele>343.0</ele>
  <time>2026-09-01T19:53:57Z</time>
  <course>10.8</course>
  <speed>0.0</speed>
  <fix>3d</fix>
</trkpt>
<trkpt lat="-27.274439" lon="151.290064">
  <ele>343.1</ele>
  <time>2026-09-01T19:53:57Z</time>
  <course>270.0</course>
  <speed>0.0</speed>
  <fix>3d</fix>
</trkpt>
<trkpt lat="-27.274439" lon="151.290064">
  <ele>343.1</ele>
  <time>2026-09-01T19:53:57Z</time>
  <course>10.8</course>
  <speed>0.0</speed>
  <fix>3d</fix>
</trkpt>
<trkpt lat="-27.274439" lon="151.290064">
  <ele>343.1</ele>
  <time>2026-09-01T19:53:57Z</time>
  <course>270.0</course>
  <speed>0.0</speed>
  <fix>3d</fix>
</trkpt>
<trkpt lat="-27.274439" lon="151.290064">
  <ele>343.05</ele>
  <time>2026-09-01T19:53:57Z</time>
  <course>10.8</course>
  <speed>0.0</speed>
  <fix>3d</fix>
</trkpt>
<trkpt lat="-27.274439" lon="151.290064">
  <ele>343.1</ele>
  <time>2026-09-01T19:53:57Z</time>
  <course>270.0</course>
  <speed>0.0</speed>
  <fix>3d</fix>
</trkpt>
<trkpt lat="-27.274439" lon="151.290064">
  <ele>342.87</ele>
  <time>2026-09-01T19:53:57Z</time>
  <course>10.8</course>
  <speed>0.0</speed>
  <fix>3d</fix>
</trkpt>
<trkpt lat="-27.274439" lon="151.290064">
  <ele>343.1</ele>
  <time>2026-09-01T19:53:57Z</time>
  <course>270.0</course>
  <speed>0.0</speed>
  <fix>3d</fix>
</trkpt>
<trkpt lat="-27.274439" lon="151.290064">
  <ele>342.92</ele>
  <time>2026-09-01T19:53:57Z</time>
  <course>10.8</course>
  <speed>0.0</speed>
  <fix>3d</fix>
</trkpt>
<trkpt lat="-27.274439" lon="151.290064">
  <ele>343.1</ele>
  <time>2026-09-01T19:53:57Z</time>
  <course>270.0</course>
  <speed>0.0</speed>
  <fix>3d</fix>
</trkpt>
<trkpt lat="-27.274439" lon="151.290064">
  <ele>342.96</ele>
  <time>2026-09-01T19:53:57Z</time>
  <course>10.8</course>
  <speed>0.0</speed>
  <fix>3d</fix>
</trkpt>
<trkpt lat="-27.274439" lon="151.290064">
  <ele>343.1</ele>
  <time>2026-09-01T19:53:57Z</time>
  <course>270.0</course>
  <speed>0.0</speed>
  <fix>3d</fix>
</trkpt>
<trkpt lat="-27.274439" lon="151.290064">
  <ele>343.15</ele>
  <time>2026-09-01T19:53:57Z</time>
  <course>10.8</course>
  <speed>0.0</speed>
  <fix>3d</fix>
</trkpt>
<trkpt lat="-27.274439" lon="151.290064">
  <ele>343.1</ele>
  <time>2026-09-01T19:53:57Z</time>
  <course>270.0</course>
  <speed>0.0</speed>
  <fix>3d</fix>
</trkpt>
<trkpt lat="-27.274439" lon="151.290064">
  <ele>343.16</ele>
  <time>2026-09-01T19:53:57Z</time>
  <course>10.8</course>
  <speed>0.0</speed>
  <fix>3d</fix>
</trkpt>
<trkpt lat="-27.274439" lon="151.290064">
  <ele>343.1</ele>
  <time>2026-09-01T19:53:57Z</time>
  <course>270.0</course>
  <speed>0.0</speed>
  <fix>3d</fix>
</trkpt>
<trkpt lat="-27.274439" lon="151.290064">
  <ele>343.2</ele>
  <time>2026-09-01T19:53:57Z</time>
  <course>10.81</course>
  <speed>0.0</speed>
  <fix>3d</fix>
</trkpt>
<trkpt lat="-27.274439" lon="151.290064">
  <ele>343.1</ele>
  <time>2026-09-01T19:53:57Z</time>
  <course>270.0</course>
  <speed>0.0</speed>
  <fix>3d</fix>
</trkpt>
<trkpt lat="-27.274439" lon="151.290064">
  <ele>343.13</ele>
  <time>2026-09-01T19:53:57Z</time>
  <course>10.82</course>
  <speed>0.0</speed>
  <fix>3d</fix>
</trkpt>
<trkpt lat="-27.274439" lon="151.290064">
  <ele>343.1</ele>
  <time>2026-09-01T19:53:57Z</time>
  <course>270.0</course>
  <speed>0.0</speed>
  <fix>3d</fix>
</trkpt>
<trkpt lat="-27.274439" lon="151.290064">
  <ele>343.09</ele>
  <time>2026-09-01T19:53:57Z</time>
  <course>10.71</course>
  <speed>0.0</speed>
  <fix>3d</fix>
</trkpt>
<trkpt lat="-27.274439" lon="151.290064">
  <ele>343.1</ele>
  <time>2026-09-01T19:53:57Z</time>
  <course>270.0</course>
  <speed>0.0</speed>
  <fix>3d</fix>
</trkpt>
<trkpt lat="-27.274439" lon="151.290064">
  <ele>343.09</ele>
  <time>2026-09-01T19:53:57Z</time>
  <course>10.71</course>
  <speed>0.0</speed>
  <fix>3d</fix>
</trkpt>
<trkpt lat="-27.274439" lon="151.290064">
  <ele>343.1</ele>
  <time>2026-09-01T19:53:57Z</time>
  <course>270.0</course>
  <speed>0.0</speed>
  <fix>3d</fix>
</trkpt>
<trkpt lat="-27.274439" lon="151.290064">
  <ele>343.1</ele>
  <time>2026-09-01T19:53:57Z</time>
  <course>10.71</course>
  <speed>0.0</speed>
  <fix>3d</fix>
</trkpt>
<trkpt lat="-27.274439" lon="151.290064">
  <ele>343.1</ele>
  <time>2026-09-01T19:53:57Z</time>
  <course>270.0</course>
  <speed>0.0</speed>
  <fix>3d</fix>
</trkpt>
<trkpt lat="-27.274439" lon="151.290064">
  <ele>343.1</ele>
  <time>2026-09-01T19:53:57Z</time>
  <course>10.71</course>
  <speed>0.0</speed>
  <fix>3d</fix>
</trkpt>
<trkpt lat="-27.274439" lon="151.290064">
  <ele>343.1</ele>
  <time>2026-09-01T19:53:57Z</time>
  <course>270.0</course>
  <speed>0.0</speed>
  <fix>3d</fix>
</trkpt>
<trkpt lat="-27.274439" lon="151.290064">
  <ele>343.1</ele>
  <time>2026-09-01T19:53:57Z</time>
  <course>10.71</course>
  <speed>0.0</speed>
  <fix>3d</fix>
</trkpt>
<trkpt lat="-27.274439" lon="151.290064">
  <ele>343.1</ele>
  <time>2026-09-01T19:53:57Z</time>
  <course>270.0</course>
  <speed>0.0</speed>
  <fix>3d</fix>
</trkpt>
<trkpt lat="-27.274439" lon="151.290064">
  <ele>343.1</ele>
  <time>2026-09-01T19:53:57Z</time>
  <course>10.71</course>
  <speed>0.0</speed>
  <fix>3d</fix>
</trkpt>
<trkpt lat="-27.274439" lon="151.290064">
  <ele>343.1</ele>
  <time>2026-09-01T19:53:57Z</time>
  <course>270.0</course>
  <speed>0.0</speed>
  <fix>3d</fix>
</trkpt>
<trkpt lat="-27.274439" lon="151.290064">
  <ele>343.1</ele>
  <time>2026-09-01T19:53:57Z</time>
  <course>10.71</course>
  <speed>0.0</speed>
  <fix>3d</fix>
</trkpt>
<trkpt lat="-27.274439" lon="151.290064">
  <ele>343.1</ele>
  <time>2026-09-01T19:53:57Z</time>
  <course>270.0</course>
  <speed>0.0</speed>
  <fix>3d</fix>
</trkpt>
<trkpt lat="-27.274439" lon="151.290064">
  <ele>343.11</ele>
  <time>2026-09-01T19:53:57Z</time>
  <course>10.71</course>
  <speed>0.0</speed>
  <fix>3d</fix>
</trkpt>
<trkpt lat="-27.274439" lon="151.290064">
  <ele>343.1</ele>
  <time>2026-09-01T19:53:57Z</time>
  <course>270.0</course>
  <speed>0.0</speed>
  <fix>3d</fix>
</trkpt>
<trkpt lat="-27.274439" lon="151.290064">
  <ele>343.11</ele>
  <time>2026-09-01T19:53:57Z</time>
  <course>10.71</course>
  <speed>0.0</speed>
  <fix>3d</fix>
</trkpt>
<trkpt lat="-27.274439" lon="151.290064">
  <ele>343.1</ele>
  <time>2026-09-01T19:53:57Z</time>
  <course>270.0</course>
  <speed>0.0</speed>
  <fix>3d</fix>
</trkpt>
<trkpt lat="-27.274439" lon="151.290064">
  <ele>343.11</ele>
  <time>2026-09-01T19:53:57Z</time>
  <course>10.71</course>
  <speed>0.0</speed>
  <fix>3d</fix>
</trkpt>
<trkpt lat="-27.274439" lon="151.290064">
  <ele>343.1</ele>
  <time>2026-09-01T19:53:57Z</time>
  <course>270.0</course>
  <speed>0.0</speed>
  <fix>3d</fix>
</trkpt>
<trkpt lat="-27.274439" lon="151.290064">
  <ele>343.12</ele>
  <time>2026-09-01T19:53:57Z</time>
  <course>10.71</course>
  <speed>0.0</speed>
  <fix>3d</fix>
</trkpt>
<trkpt lat="-27.274439" lon="151.290064">
  <ele>343.1</ele>
  <time>2026-09-01T19:53:57Z</time>
  <course>270.0</course>
  <speed>0.0</speed>
  <fix>3d</fix>
</trkpt>
<trkpt lat="-27.274439" lon="151.290064">
  <ele>343.12</ele>
  <time>2026-09-01T19:53:57Z</time>
  <course>10.71</course>
  <speed>0.0</speed>
  <fix>3d</fix>
</trkpt>
<trkpt lat="-27.274439" lon="151.290064">
  <ele>343.1</ele>
  <time>2026-09-01T19:53:57Z</time>
  <course>270.0</course>
  <speed>0.0</speed>
  <fix>3d</fix>
</trkpt>
<trkpt lat="-27.274439" lon="151.290064">
  <ele>343.1</ele>
  <time>2026-09-01T19:53:57Z</time>
  <course>10.71</course>
  <speed>0.0</speed>
  <fix>3d</fix>
</trkpt>
<trkpt lat="-27.274439" lon="151.290064">
  <ele>343.1</ele>
  <time>2026-09-01T19:53:57Z</time>
  <course>270.0</course>
  <speed>0.0</speed>
  <fix>3d</fix>
</trkpt>
<trkpt lat="-27.274439" lon="151.290064">
  <ele>343.1</ele>
  <time>2026-09-01T19:53:57Z</time>
  <course>10.71</course>
  <speed>0.0</speed>
  <fix>3d</fix>
</trkpt>
<trkpt lat="-27.274439" lon="151.290064">
  <ele>343.1</ele>
  <time>2026-09-01T19:53:57Z</time>
  <course>270.0</course>
  <speed>0.0</speed>
  <fix>3d</fix>
</trkpt>
<trkpt lat="-27.274439" lon="151.290064">
  <ele>343.1</ele>
  <time>2026-09-01T19:53:57Z</time>
  <course>10.71</course>
  <speed>0.0</speed>
  <fix>3d</fix>
</trkpt>
<trkpt lat="-27.274439" lon="151.290064">
  <ele>343.1</ele>
  <time>2026-09-01T19:53:57Z</time>
  <course>270.0</course>
  <speed>0.0</speed>
  <fix>3d</fix>
</trkpt>
<trkpt lat="-27.274439" lon="151.290064">
  <ele>343.09</ele>
  <time>2026-09-01T19:53:57Z</time>
  <course>10.71</course>
  <speed>0.0</speed>
  <fix>3d</fix>
</trkpt>
<trkpt lat="-27.274439" lon="151.290064">
  <ele>343.1</ele>
  <time>2026-09-01T19:53:57Z</time>
  <course>270.0</course>
  <speed>0.0</speed>
  <fix>3d</fix>
</trkpt>
<trkpt lat="-27.274439" lon="151.290064">
  <ele>343.09</ele>
  <time>2026-09-01T19:53:57Z</time>
  <course>10.71</course>
  <speed>0.0</speed>
  <fix>3d</fix>
</trkpt>
<trkpt lat="-27.274439" lon="151.290064">
  <ele>343.1</ele>
  <time>2026-09-01T19:53:57Z</time>
  <course>270.0</course>
  <speed>0.0</speed>
  <fix>3d</fix>
</trkpt>
<trkpt lat="-27.274439" lon="151.290064">
  <ele>343.09</ele>
  <time>2026-09-01T19:53:57Z</time>
  <course>10.71</course>
  <speed>0.0</speed>
  <fix>3d</fix>
</trkpt>
<trkpt lat="-27.274439" lon="151.290064">
  <ele>343.1</ele>
  <time>2026-09-01T19:53:57Z</time>
  <course>270.0</course>
  <speed>0.0</speed>
  <fix>3d</fix>
</trkpt>
<trkpt lat="-27.274439" lon="151.290064">
  <ele>343.1</ele>
  <time>2026-09-01T19:53:57Z</time>
  <course>10.71</course>
  <speed>0.0</speed>
  <fix>3d</fix>
</trkpt>
<trkpt lat="-27.274439" lon="151.290064">
  <ele>343.1</ele>
  <time>2026-09-01T19:53:57Z</time>
  <course>270.0</course>
  <speed>0.0</speed>
  <fix>3d</fix>
</trkpt>
<trkpt lat="-27.274439" lon="151.290064">
  <ele>343.1</ele>
  <time>2026-09-01T19:53:57Z</time>
  <course>10.71</course>
  <speed>0.0</speed>
  <fix>3d</fix>
</trkpt>
<trkpt lat="-27.274439" lon="151.290064">
  <ele>343.1</ele>
  <time>2026-09-01T19:53:57Z</time>
  <course>270.0</course>
  <speed>0.0</speed>
  <fix>3d</fix>
</trkpt>
<trkpt lat="-27.274439" lon="151.290064">
  <ele>343.09</ele>
  <time>2026-09-01T19:53:57Z</time>
  <course>10.71</course>
  <speed>0.0</speed>
  <fix>3d</fix>
</trkpt>
<trkpt lat="-27.274439" lon="151.290064">
  <ele>343.1</ele>
  <time>2026-09-01T19:53:57Z</time>
  <course>270.0</course>
  <speed>0.0</speed>
  <fix>3d</fix>
</trkpt>
<trkpt lat="-27.274439" lon="151.290064">
  <ele>343.09</ele>
  <time>2026-09-01T19:53:57Z</time>
  <course>10.71</course>
  <speed>0.0</speed>
  <fix>3d</fix>
</trkpt>
<trkpt lat="-27.274439" lon="151.290064">
  <ele>343.1</ele>
  <time>2026-09-01T19:53:57Z</time>
  <course>270.0</course>
  <speed>0.0</speed>
  <fix>3d</fix>
</trkpt>
<trkpt lat="-27.274439" lon="151.290064">
  <ele>343.09</ele>
  <time>2026-09-01T19:53:57Z</time>
  <course>10.71</course>
  <speed>0.0</speed>
  <fix>3d</fix>
</trkpt>
<trkpt lat="-27.274439" lon="151.290064">
  <ele>343.1</ele>
  <time>2026-09-01T19:53:57Z</time>
  <course>270.0</course>
  <speed>0.0</speed>
  <fix>3d</fix>
</trkpt>
<trkpt lat="-27.274439" lon="151.290064">
  <ele>343.09</ele>
  <time>2026-09-01T19:53:57Z</time>
  <course>10.71</course>
  <speed>0.0</speed>
  <fix>3d</fix>
</trkpt>
<trkpt lat="-27.274439" lon="151.290064">
  <ele>343.1</ele>
  <time>2026-09-01T19:53:57Z</time>
  <course>270.0</course>
  <speed>0.0</speed>
  <fix>3d</fix>
</trkpt>
<trkpt lat="-27.274439" lon="151.290064">
  <ele>343.09</ele>
  <time>2026-09-01T19:53:57Z</time>
  <course>10.71</course>
  <speed>0.0</speed>
  <fix>3d</fix>
</trkpt>
<trkpt lat="-27.274439" lon="151.290064">
  <ele>343.1</ele>
  <time>2026-09-01T19:53:57Z</time>
  <course>270.0</course>
  <speed>0.0</speed>
  <fix>3d</fix>
</trkpt>
<trkpt lat="-27.274439" lon="151.290064">
  <ele>343.09</ele>
  <time>2026-09-01T19:53:57Z</time>
  <course>10.71</course>
  <speed>0.0</speed>
  <fix>3d</fix>
</trkpt>
<trkpt lat="-27.274439" lon="151.290064">
  <ele>343.1</ele>
  <time>2026-09-01T19:53:57Z</time>
  <course>270.0</course>
  <speed>0.0</speed>
  <fix>3d</fix>
</trkpt>
<trkpt lat="-27.274439" lon="151.290064">
  <ele>343.09</ele>
  <time>2026-09-01T19:53:57Z</time>
  <course>10.71</course>
  <speed>0.0</speed>
  <fix>3d</fix>
</trkpt>
<trkpt lat="-27.274439" lon="151.290064">
  <ele>343.1</ele>
  <time>2026-09-01T19:53:57Z</time>
  <course>270.0</course>
  <speed>0.0</speed>
  <fix>3d</fix>
</trkpt>
<trkpt lat="-27.274439" lon="151.290064">
  <ele>343.09</ele>
  <time>2026-09-01T19:53:57Z</time>
  <course>10.71</course>
  <speed>0.0</speed>
  <fix>3d</fix>
</trkpt>
<trkpt lat="-27.274439" lon="151.290064">
  <ele>343.1</ele>
  <time>2026-09-01T19:53:57Z</time>
  <course>270.0</course>
  <speed>0.0</speed>
  <fix>3d</fix>
</trkpt>
<trkpt lat="-27.274439" lon="151.290064">
  <ele>343.1</ele>
  <time>2026-09-01T19:53:57Z</time>
  <course>10.71</course>
  <speed>0.0</speed>
  <fix>3d</fix>
</trkpt>
<trkpt lat="-27.274439" lon="151.290064">
  <ele>343.1</ele>
  <time>2026-09-01T19:53:57Z</time>
  <course>270.0</course>
  <speed>0.0</speed>
  <fix>3d</fix>
</trkpt>
<trkpt lat="-27.274439" lon="151.290064">
  <ele>343.1</ele>
  <time>2026-09-01T19:53:57Z</time>
  <course>10.71</course>
  <speed>0.0</speed>
  <fix>3d</fix>
</trkpt>
<trkpt lat="-27.274439" lon="151.290064">
  <ele>343.1</ele>
  <time>2026-09-01T19:53:57Z</time>
  <course>270.0</course>
  <speed>0.0</speed>
  <fix>3d</fix>
</trkpt>
<trkpt lat="-27.274439" lon="151.290064">
  <ele>343.1</ele>
  <time>2026-09-01T19:53:57Z</time>
  <course>10.71</course>
  <speed>0.0</speed>
  <fix>3d</fix>
</trkpt>
<trkpt lat="-27.274439" lon="151.290064">
  <ele>343.1</ele>
  <time>2026-09-01T19:53:57Z</time>
  <course>270.0</course>
  <speed>0.0</speed>
  <fix>3d</fix>
</trkpt>
<trkpt lat="-27.274439" lon="151.290064">
  <ele>343.1</ele>
  <time>2026-09-01T19:53:57Z</time>
  <course>10.71</course>
  <speed>0.0</speed>
  <fix>3d</fix>
</trkpt>
<trkpt lat="-27.274439" lon="151.290064">
  <ele>343.1</ele>
  <time>2026-09-01T19:53:57Z</time>
  <course>270.0</course>
  <speed>0.0</speed>
  <fix>3d</fix>
</trkpt>
<trkpt lat="-27.274439" lon="151.290064">
  <ele>343.11</ele>
  <time>2026-09-01T19:53:57Z</time>
  <course>10.71</course>
  <speed>0.0</speed>
  <fix>3d</fix>
</trkpt>
<trkpt lat="-27.274439" lon="151.290064">
  <ele>343.1</ele>
  <time>2026-09-01T19:53:57Z</time>
  <course>270.0</course>
  <speed>0.0</speed>
  <fix>3d</fix>
</trkpt>
<trkpt lat="-27.274439" lon="151.290064">
  <ele>343.11</ele>
  <time>2026-09-01T19:53:57Z</time>
  <course>10.71</course>
  <speed>0.0</speed>
  <fix>3d</fix>
</trkpt>
<trkpt lat="-27.274439" lon="151.290064">
  <ele>343.1</ele>
  <time>2026-09-01T19:53:57Z</time>
  <course>270.0</course>
  <speed>0.0</speed>
  <fix>3d</fix>
</trkpt>
<trkpt lat="-27.274439" lon="151.290064">
  <ele>343.11</ele>
  <time>2026-09-01T19:53:57Z</time>
  <course>10.71</course>
  <speed>0.0</speed>
  <fix>3d</fix>
</trkpt>
<trkpt lat="-27.274439" lon="151.290064">
  <ele>343.1</ele>
  <time>2026-09-01T19:53:57Z</time>
  <course>270.0</course>
  <speed>0.0</speed>
  <fix>3d</fix>
</trkpt>
<trkpt lat="-27.274439" lon="151.290064">
  <ele>343.11</ele>
  <time>2026-09-01T19:53:57Z</time>
  <course>10.71</course>
  <speed>0.0</speed>
  <fix>3d</fix>
</trkpt>
<trkpt lat="-27.274439" lon="151.290064">
  <ele>343.1</ele>
  <time>2026-09-01T19:53:57Z</time>
  <course>270.0</course>
  <speed>0.0</speed>
  <fix>3d</fix>
</trkpt>
<trkpt lat="-27.274439" lon="151.290064">
  <ele>343.12</ele>
  <time>2026-09-01T19:53:57Z</time>
  <course>10.71</course>
  <speed>0.0</speed>
  <fix>3d</fix>
</trkpt>
<trkpt lat="-27.274439" lon="151.290064">
  <ele>343.1</ele>
  <time>2026-09-01T19:53:57Z</time>
  <course>270.0</course>
  <speed>0.0</speed>
  <fix>3d</fix>
</trkpt>
<trkpt lat="-27.274439" lon="151.290064">
  <ele>343.12</ele>
  <time>2026-09-01T19:53:57Z</time>
  <course>10.71</course>
  <speed>0.0</speed>
  <fix>3d</fix>
</trkpt>
<trkpt lat="-27.274439" lon="151.290064">
  <ele>343.1</ele>
  <time>2026-09-01T19:53:57Z</time>
  <course>270.0</course>
  <speed>0.0</speed>
  <fix>3d</fix>
</trkpt>
<trkpt lat="-27.274439" lon="151.290064">
  <ele>343.12</ele>
  <time>2026-09-01T19:53:57Z</time>
  <course>10.71</course>
  <speed>0.0</speed>
  <fix>3d</fix>
</trkpt>
<trkpt lat="-27.274439" lon="151.290064">
  <ele>343.1</ele>
  <time>2026-09-01T19:53:57Z</time>
  <course>270.0</course>
  <speed>0.0</speed>
  <fix>3d</fix>
</trkpt>
<trkpt lat="-27.274439" lon="151.290064">
  <ele>343.12</ele>
  <time>2026-09-01T19:53:57Z</time>
  <course>10.71</course>
  <speed>0.0</speed>
  <fix>3d</fix>
</trkpt>
<trkpt lat="-27.274439" lon="151.290064">
  <ele>343.1</ele>
  <time>2026-09-01T19:53:57Z</time>
  <course>270.0</course>
  <speed>0.0</speed>
  <fix>3d</fix>
</trkpt>
<trkpt lat="-27.274439" lon="151.290064">
  <ele>343.12</ele>
  <time>2026-09-01T19:53:57Z</time>
  <course>10.71</course>
  <speed>0.0</speed>
  <fix>3d</fix>
</trkpt>
<trkpt lat="-27.274439" lon="151.290064">
  <ele>343.1</ele>
  <time>2026-09-01T19:53:57Z</time>
  <course>270.0</course>
  <speed>0.0</speed>
  <fix>3d</fix>
</trkpt>
<trkpt lat="-27.274439" lon="151.290064">
  <ele>343.13</ele>
  <time>2026-09-01T19:53:57Z</time>
  <course>10.71</course>
  <speed>0.0</speed>
  <fix>3d</fix>
</trkpt>
<trkpt lat="-27.274439" lon="151.290064">
  <ele>343.1</ele>
  <time>2026-09-01T19:53:57Z</time>
  <course>270.0</course>
  <speed>0.0</speed>
  <fix>3d</fix>
</trkpt>
<trkpt lat="-27.274439" lon="151.290064">
  <ele>343.13</ele>
  <time>2026-09-01T19:53:57Z</time>
  <course>10.71</course>
  <speed>0.0</speed>
  <fix>3d</fix>
</trkpt>
<trkpt lat="-27.274439" lon="151.290064">
  <ele>343.1</ele>
  <time>2026-09-01T19:53:57Z</time>
  <course>270.0</course>
  <speed>0.0</speed>
  <fix>3d</fix>
</trkpt>
<trkpt lat="-27.274439" lon="151.290064">
  <ele>343.13</ele>
  <time>2026-09-01T19:53:57Z</time>
  <course>10.71</course>
  <speed>0.0</speed>
  <fix>3d</fix>
</trkpt>
<trkpt lat="-27.274439" lon="151.290064">
  <ele>343.1</ele>
  <time>2026-09-01T19:53:57Z</time>
  <course>270.0</course>
  <speed>0.0</speed>
  <fix>3d</fix>
</trkpt>
<trkpt lat="-27.274439" lon="151.290064">
  <ele>343.13</ele>
  <time>2026-09-01T19:53:57Z</time>
  <course>10.71</course>
  <speed>0.0</speed>
  <fix>3d</fix>
</trkpt>
<trkpt lat="-27.274439" lon="151.290064">
  <ele>343.1</ele>
  <time>2026-09-01T19:53:57Z</time>
  <course>270.0</course>
  <speed>0.0</speed>
  <fix>3d</fix>
</trkpt>
<trkpt lat="-27.274439" lon="151.290064">
  <ele>343.14</ele>
  <time>2026-09-01T19:53:57Z</time>
  <course>10.71</course>
  <speed>0.0</speed>
  <fix>3d</fix>
</trkpt>
<trkpt lat="-27.274439" lon="151.290064">
  <ele>343.1</ele>
  <time>2026-09-01T19:53:57Z</time>
  <course>270.0</course>
  <speed>0.0</speed>
  <fix>3d</fix>
</trkpt>
<trkpt lat="-27.274439" lon="151.290064">
  <ele>343.14</ele>
  <time>2026-09-01T19:53:57Z</time>
  <course>10.71</course>
  <speed>0.0</speed>
  <fix>3d</fix>
</trkpt>
<trkpt lat="-27.274439" lon="151.290064">
  <ele>343.1</ele>
  <time>2026-09-01T19:53:57Z</time>
  <course>270.0</course>
  <speed>0.0</speed>
  <fix>3d</fix>
</trkpt>
<trkpt lat="-27.274439" lon="151.290064">
  <ele>343.14</ele>
  <time>2026-09-01T19:53:57Z</time>
  <course>10.71</course>
  <speed>0.0</speed>
  <fix>3d</fix>
</trkpt>
<trkpt lat="-27.274439" lon="151.290064">
  <ele>343.1</ele>
  <time>2026-09-01T19:53:57Z</time>
  <course>270.0</course>
  <speed>0.0</speed>
  <fix>3d</fix>
</trkpt>
<trkpt lat="-27.274439" lon="151.290064">
  <ele>343.14</ele>
  <time>2026-09-01T19:53:57Z</time>
  <course>10.71</course>
  <speed>0.0</speed>
  <fix>3d</fix>
</trkpt>
<trkpt lat="-27.274439" lon="151.290064">
  <ele>343.1</ele>
  <time>2026-09-01T19:53:57Z</time>
  <course>270.0</course>
  <speed>0.0</speed>
  <fix>3d</fix>
</trkpt>
<trkpt lat="-27.274439" lon="151.290064">
  <ele>343.14</ele>
  <time>2026-09-01T19:53:57Z</time>
  <course>10.71</course>
  <speed>0.0</speed>
  <fix>3d</fix>
</trkpt>
<trkpt lat="-27.274439" lon="151.290064">
  <ele>343.1</ele>
  <time>2026-09-01T19:53:57Z</time>
  <course>270.0</course>
  <speed>0.0</speed>
  <fix>3d</fix>
</trkpt>
<trkpt lat="-27.274439" lon="151.290064">
  <ele>343.14</ele>
  <time>2026-09-01T19:53:57Z</time>
  <course>10.71</course>
  <speed>0.0</speed>
  <fix>3d</fix>
</trkpt>
<trkpt lat="-27.274439" lon="151.290064">
  <ele>343.1</ele>
  <time>2026-09-01T19:53:57Z</time>
  <course>270.0</course>
  <speed>0.0</speed>
  <fix>3d</fix>
</trkpt>
<trkpt lat="-27.274439" lon="151.290064">
  <ele>343.14</ele>
  <time>2026-09-01T19:53:57Z</time>
  <course>10.71</course>
  <speed>0.0</speed>
  <fix>3d</fix>
</trkpt>
<trkpt lat="-27.274439" lon="151.290064">
  <ele>343.1</ele>
  <time>2026-09-01T19:53:57Z</time>
  <course>270.0</course>
  <speed>0.0</speed>
  <fix>3d</fix>
</trkpt>
<trkpt lat="-27.274439" lon="151.290064">
  <ele>343.14</ele>
  <time>2026-09-01T19:53:57Z</time>
  <course>10.71</course>
  <speed>0.0</speed>
  <fix>3d</fix>
</trkpt>
<trkpt lat="-27.274439" lon="151.290064">
  <ele>343.1</ele>
  <time>2026-09-01T19:53:57Z</time>
  <course>270.0</course>
  <speed>0.0</speed>
  <fix>3d</fix>
</trkpt>
<trkpt lat="-27.274439" lon="151.290064">
  <ele>343.13</ele>
  <time>2026-09-01T19:53:57Z</time>
  <course>10.71</course>
  <speed>0.0</speed>
  <fix>3d</fix>
</trkpt>
<trkpt lat="-27.274439" lon="151.290064">
  <ele>343.1</ele>
  <time>2026-09-01T19:53:57Z</time>
  <course>270.0</course>
  <speed>0.0</speed>
  <fix>3d</fix>
</trkpt>
<trkpt lat="-27.274439" lon="151.290064">
  <ele>343.13</ele>
  <time>2026-09-01T19:53:57Z</time>
  <course>10.71</course>
  <speed>0.0</speed>
  <fix>3d</fix>
</trkpt>
<trkpt lat="-27.274439" lon="151.290064">
  <ele>343.1</ele>
  <time>2026-09-01T19:53:57Z</time>
  <course>270.0</course>
  <speed>0.0</speed>
  <fix>3d</fix>
</trkpt>
<trkpt lat="-27.274439" lon="151.290064">
  <ele>343.13</ele>
  <time>2026-09-01T19:53:57Z</time>
  <course>10.71</course>
  <speed>0.0</speed>
  <fix>3d</fix>
</trkpt>
<trkpt lat="-27.274439" lon="151.290064">
  <ele>343.1</ele>
  <time>2026-09-01T19:53:57Z</time>
  <course>270.0</course>
  <speed>0.0</speed>
  <fix>3d</fix>
</trkpt>
<trkpt lat="-27.274439" lon="151.290064">
  <ele>343.13</ele>
  <time>2026-09-01T19:53:57Z</time>
  <course>10.71</course>
  <speed>0.0</speed>
  <fix>3d</fix>
</trkpt>
<trkpt lat="-27.274439" lon="151.290064">
  <ele>343.1</ele>
  <time>2026-09-01T19:53:57Z</time>
  <course>270.0</course>
  <speed>0.0</speed>
  <fix>3d</fix>
</trkpt>
<trkpt lat="-27.274439" lon="151.290064">
  <ele>343.13</ele>
  <time>2026-09-01T19:53:57Z</time>
  <course>10.71</course>
  <speed>0.0</speed>
  <fix>3d</fix>
</trkpt>
<trkpt lat="-27.274439" lon="151.290064">
  <ele>343.1</ele>
  <time>2026-09-01T19:53:57Z</time>
  <course>270.0</course>
  <speed>0.0</speed>
  <fix>3d</fix>
</trkpt>
<trkpt lat="-27.274439" lon="151.290064">
  <ele>343.13</ele>
  <time>2026-09-01T19:53:57Z</time>
  <course>10.71</course>
  <speed>0.0</speed>
  <fix>3d</fix>
</trkpt>
<trkpt lat="-27.274439" lon="151.290064">
  <ele>343.1</ele>
  <time>2026-09-01T19:53:57Z</time>
  <course>270.0</course>
  <speed>0.0</speed>
  <fix>3d</fix>
</trkpt>
<trkpt lat="-27.274439" lon="151.290064">
  <ele>343.13</ele>
  <time>2026-09-01T19:53:57Z</time>
  <course>10.71</course>
  <speed>0.0</speed>
  <fix>3d</fix>
</trkpt>
<trkpt lat="-27.274439" lon="151.290064">
  <ele>343.1</ele>
  <time>2026-09-01T19:53:57Z</time>
  <course>270.0</course>
  <speed>0.0</speed>
  <fix>3d</fix>
</trkpt>
<trkpt lat="-27.274439" lon="151.290064">
  <ele>343.13</ele>
  <time>2026-09-01T19:53:57Z</time>
  <course>10.71</course>
  <speed>0.0</speed>
  <fix>3d</fix>
</trkpt>
<trkpt lat="-27.274439" lon="151.290064">
  <ele>343.1</ele>
  <time>2026-09-01T19:53:57Z</time>
  <course>270.0</course>
  <speed>0.0</speed>
  <fix>3d</fix>
</trkpt>
<trkpt lat="-27.274439" lon="151.290064">
  <ele>343.14</ele>
  <time>2026-09-01T19:53:57Z</time>
  <course>10.71</course>
  <speed>0.0</speed>
  <fix>3d</fix>
</trkpt>
<trkpt lat="-27.274439" lon="151.290064">
  <ele>343.1</ele>
  <time>2026-09-01T19:53:57Z</time>
  <course>270.0</course>
  <speed>0.0</speed>
  <fix>3d</fix>
</trkpt>
<trkpt lat="-27.274439" lon="151.290064">
  <ele>343.14</ele>
  <time>2026-09-01T19:53:57Z</time>
  <course>10.71</course>
  <speed>0.0</speed>
  <fix>3d</fix>
</trkpt>
<trkpt lat="-27.274439" lon="151.290064">
  <ele>343.1</ele>
  <time>2026-09-01T19:53:57Z</time>
  <course>270.0</course>
  <speed>0.0</speed>
  <fix>3d</fix>
</trkpt>
<trkpt lat="-27.274439" lon="151.290064">
  <ele>343.14</ele>
  <time>2026-09-01T19:53:57Z</time>
  <course>10.71</course>
  <speed>0.0</speed>
  <fix>3d</fix>
</trkpt>
<trkpt lat="-27.274439" lon="151.290064">
  <ele>343.1</ele>
  <time>2026-09-01T19:53:57Z</time>
  <course>270.0</course>
  <speed>0.0</speed>
  <fix>3d</fix>
</trkpt>
<trkpt lat="-27.274439" lon="151.290064">
  <ele>343.14</ele>
  <time>2026-09-01T19:53:57Z</time>
  <course>10.71</course>
  <speed>0.0</speed>
  <fix>3d</fix>
</trkpt>
<trkpt lat="-27.274439" lon="151.290064">
  <ele>343.1</ele>
  <time>2026-09-01T19:53:57Z</time>
  <course>270.0</course>
  <speed>0.0</speed>
  <fix>3d</fix>
</trkpt>
<trkpt lat="-27.274439" lon="151.290064">
  <ele>343.14</ele>
  <time>2026-09-01T19:53:57Z</time>
  <course>10.71</course>
  <speed>0.0</speed>
  <fix>3d</fix>
</trkpt>
<trkpt lat="-27.274439" lon="151.290064">
  <ele>343.1</ele>
  <time>2026-09-01T19:53:57Z</time>
  <course>270.0</course>
  <speed>0.0</speed>
  <fix>3d</fix>
</trkpt>
<trkpt lat="-27.274439" lon="151.290064">
  <ele>343.14</ele>
  <time>2026-09-01T19:53:57Z</time>
  <course>10.71</course>
  <speed>0.0</speed>
  <fix>3d</fix>
</trkpt>
<trkpt lat="-27.274439" lon="151.290064">
  <ele>343.1</ele>
  <time>2026-09-01T19:53:57Z</time>
  <course>270.0</course>
  <speed>0.0</speed>
  <fix>3d</fix>
</trkpt>
<trkpt lat="-27.274439" lon="151.290064">
  <ele>343.15</ele>
  <time>2026-09-01T19:53:57Z</time>
  <course>10.71</course>
  <speed>0.0</speed>
  <fix>3d</fix>
</trkpt>
<trkpt lat="-27.274439" lon="151.290064">
  <ele>343.1</ele>
  <time>2026-09-01T19:53:57Z</time>
  <course>270.0</course>
  <speed>0.0</speed>
  <fix>3d</fix>
</trkpt>
<trkpt lat="-27.274439" lon="151.290064">
  <ele>343.15</ele>
  <time>2026-09-01T19:53:57Z</time>
  <course>10.71</course>
  <speed>0.0</speed>
  <fix>3d</fix>
</trkpt>
<trkpt lat="-27.274439" lon="151.290064">
  <ele>343.1</ele>
  <time>2026-09-01T19:53:57Z</time>
  <course>270.0</course>
  <speed>0.0</speed>
  <fix>3d</fix>
</trkpt>
<trkpt lat="-27.274439" lon="151.290064">
  <ele>343.15</ele>
  <time>2026-09-01T19:53:57Z</time>
  <course>10.71</course>
  <speed>0.0</speed>
  <fix>3d</fix>
</trkpt>
<trkpt lat="-27.274439" lon="151.290064">
  <ele>343.1</ele>
  <time>2026-09-01T19:53:57Z</time>
  <course>270.0</course>
  <speed>0.0</speed>
  <fix>3d</fix>
</trkpt>
<trkpt lat="-27.274439" lon="151.290064">
  <ele>343.15</ele>
  <time>2026-09-01T19:53:57Z</time>
  <course>10.71</course>
  <speed>0.0</speed>
  <fix>3d</fix>
</trkpt>
<trkpt lat="-27.274439" lon="151.290064">
  <ele>343.1</ele>
  <time>2026-09-01T19:53:57Z</time>
  <course>270.0</course>
  <speed>0.0</speed>
  <fix>3d</fix>
</trkpt>
<trkpt lat="-27.274439" lon="151.290064">
  <ele>343.15</ele>
  <time>2026-09-01T19:53:57Z</time>
  <course>10.71</course>
  <speed>0.0</speed>
  <fix>3d</fix>
</trkpt>
<trkpt lat="-27.274439" lon="151.290064">
  <ele>343.1</ele>
  <time>2026-09-01T19:53:57Z</time>
  <course>270.0</course>
  <speed>0.0</speed>
  <fix>3d</fix>
</trkpt>
<trkpt lat="-27.274439" lon="151.290064">
  <ele>343.1</ele>
  <time>2026-09-01T19:53:57Z</time>
  <course>10.71</course>
  <speed>0.0</speed>
  <fix>3d</fix>
</trkpt>
<trkpt lat="-27.274439" lon="151.290064">
  <ele>343.1</ele>
  <time>2026-09-01T19:53:57Z</time>
  <course>270.0</course>
  <speed>0.0</speed>
  <fix>3d</fix>
</trkpt>
<trkpt lat="-27.274439" lon="151.290064">
  <ele>343.1</ele>
  <time>2026-09-01T19:53:57Z</time>
  <course>10.71</course>
  <speed>0.0</speed>
  <fix>3d</fix>
</trkpt>
<trkpt lat="-27.274439" lon="151.290064">
  <ele>343.1</ele>
  <time>2026-09-01T19:53:57Z</time>
  <course>270.0</course>
  <speed>0.0</speed>
  <fix>3d</fix>
</trkpt>
<trkpt lat="-27.274439" lon="151.290064">
  <ele>343.1</ele>
  <time>2026-09-01T19:53:57Z</time>
  <course>10.71</course>
  <speed>0.0</speed>
  <fix>3d</fix>
</trkpt>
<trkpt lat="-27.274439" lon="151.290064">
  <ele>343.1</ele>
  <time>2026-09-01T19:53:57Z</time>
  <course>270.0</course>
  <speed>0.0</speed>
  <fix>3d</fix>
</trkpt>
<trkpt lat="-27.274439" lon="151.290064">
  <ele>343.1</ele>
  <time>2026-09-01T19:53:57Z</time>
  <course>10.71</course>
  <speed>0.0</speed>
  <fix>3d</fix>
</trkpt>
<trkpt lat="-27.274439" lon="151.290064">
  <ele>343.1</ele>
  <time>2026-09-01T19:53:57Z</time>
  <course>270.0</course>
  <speed>0.0</speed>
  <fix>3d</fix>
</trkpt>
<trkpt lat="-27.274439" lon="151.290064">
  <ele>343.09</ele>
  <time>2026-09-01T19:53:57Z</time>
  <course>10.71</course>
  <speed>0.0</speed>
  <fix>3d</fix>
</trkpt>
<trkpt lat="-27.274439" lon="151.290064">
  <ele>343.1</ele>
  <time>2026-09-01T19:53:57Z</time>
  <course>270.0</course>
  <speed>0.0</speed>
  <fix>3d</fix>
</trkpt>
<trkpt lat="-27.274439" lon="151.290064">
  <ele>343.09</ele>
  <time>2026-09-01T19:53:57Z</time>
  <course>10.71</course>
  <speed>0.0</speed>
  <fix>3d</fix>
</trkpt>
<trkpt lat="-27.274439" lon="151.290064">
  <ele>343.1</ele>
  <time>2026-09-01T19:53:57Z</time>
  <course>270.0</course>
  <speed>0.0</speed>
  <fix>3d</fix>
</trkpt>
<trkpt lat="-27.274439" lon="151.290064">
  <ele>343.08</ele>
  <time>2026-09-01T19:53:57Z</time>
  <course>10.71</course>
  <speed>0.0</speed>
  <fix>3d</fix>
</trkpt>
<trkpt lat="-27.274439" lon="151.290064">
  <ele>343.1</ele>
  <time>2026-09-01T19:53:57Z</time>
  <course>270.0</course>
  <speed>0.0</speed>
  <fix>3d</fix>
</trkpt>
<trkpt lat="-27.274439" lon="151.290064">
  <ele>343.08</ele>
  <time>2026-09-01T19:53:57Z</time>
  <course>10.71</course>
  <speed>0.0</speed>
  <fix>3d</fix>
</trkpt>
<trkpt lat="-27.274439" lon="151.290064">
  <ele>343.1</ele>
  <time>2026-09-01T19:53:57Z</time>
  <course>270.0</course>
  <speed>0.0</speed>
  <fix>3d</fix>
</trkpt>
<trkpt lat="-27.274439" lon="151.290064">
  <ele>343.07</ele>
  <time>2026-09-01T19:53:57Z</time>
  <course>10.71</course>
  <speed>0.0</speed>
  <fix>3d</fix>
</trkpt>
<trkpt lat="-27.274439" lon="151.290064">
  <ele>343.1</ele>
  <time>2026-09-01T19:53:57Z</time>
  <course>270.0</course>
  <speed>0.0</speed>
  <fix>3d</fix>
</trkpt>
<trkpt lat="-27.274439" lon="151.290064">
  <ele>343.07</ele>
  <time>2026-09-01T19:53:57Z</time>
  <course>10.71</course>
  <speed>0.0</speed>
  <fix>3d</fix>
</trkpt>
<trkpt lat="-27.274439" lon="151.290064">
  <ele>343.1</ele>
  <time>2026-09-01T19:53:57Z</time>
  <course>270.0</course>
  <speed>0.0</speed>
  <fix>3d</fix>
</trkpt>
<trkpt lat="-27.274439" lon="151.290064">
  <ele>343.06</ele>
  <time>2026-09-01T19:53:57Z</time>
  <course>10.71</course>
  <speed>0.0</speed>
  <fix>3d</fix>
</trkpt>
<trkpt lat="-27.274439" lon="151.290064">
  <ele>343.1</ele>
  <time>2026-09-01T19:53:57Z</time>
  <course>270.0</course>
  <speed>0.0</speed>
  <fix>3d</fix>
</trkpt>
<trkpt lat="-27.274439" lon="151.290064">
  <ele>343.06</ele>
  <time>2026-09-01T19:53:57Z</time>
  <course>10.71</course>
  <speed>0.0</speed>
  <fix>3d</fix>
</trkpt>
<trkpt lat="-27.274439" lon="151.290064">
  <ele>343.1</ele>
  <time>2026-09-01T19:53:57Z</time>
  <course>270.0</course>
  <speed>0.0</speed>
  <fix>3d</fix>
</trkpt>
<trkpt lat="-27.274439" lon="151.290064">
  <ele>343.05</ele>
  <time>2026-09-01T19:53:57Z</time>
  <course>10.71</course>
  <speed>0.0</speed>
  <fix>3d</fix>
</trkpt>
<trkpt lat="-27.274439" lon="151.290064">
  <ele>343.1</ele>
  <time>2026-09-01T19:53:57Z</time>
  <course>270.0</course>
  <speed>0.0</speed>
  <fix>3d</fix>
</trkpt>
<trkpt lat="-27.274439" lon="151.290064">
  <ele>343.05</ele>
  <time>2026-09-01T19:53:57Z</time>
  <course>10.71</course>
  <speed>0.0</speed>
  <fix>3d</fix>
</trkpt>
<trkpt lat="-27.274439" lon="151.290064">
  <ele>343.1</ele>
  <time>2026-09-01T19:53:57Z</time>
  <course>270.0</course>
  <speed>0.0</speed>
  <fix>3d</fix>
</trkpt>
<trkpt lat="-27.274439" lon="151.290064">
  <ele>343.04</ele>
  <time>2026-09-01T19:53:57Z</time>
  <course>10.71</course>
  <speed>0.0</speed>
  <fix>3d</fix>
</trkpt>
<trkpt lat="-27.274439" lon="151.290064">
  <ele>343.1</ele>
  <time>2026-09-01T19:53:57Z</time>
  <course>270.0</course>
  <speed>0.0</speed>
  <fix>3d</fix>
</trkpt>
<trkpt lat="-27.274439" lon="151.290064">
  <ele>343.03</ele>
  <time>2026-09-01T19:53:57Z</time>
  <course>10.71</course>
  <speed>0.0</speed>
  <fix>3d</fix>
</trkpt>
<trkpt lat="-27.274439" lon="151.290064">
  <ele>343.1</ele>
  <time>2026-09-01T19:53:57Z</time>
  <course>270.0</course>
  <speed>0.0</speed>
  <fix>3d</fix>
</trkpt>
<trkpt lat="-27.274439" lon="151.290064">
  <ele>343.03</ele>
  <time>2026-09-01T19:53:57Z</time>
  <course>10.71</course>
  <speed>0.0</speed>
  <fix>3d</fix>
</trkpt>
<trkpt lat="-27.274439" lon="151.290064">
  <ele>343.1</ele>
  <time>2026-09-01T19:53:57Z</time>
  <course>270.0</course>
  <speed>0.0</speed>
  <fix>3d</fix>
</trkpt>
<trkpt lat="-27.274439" lon="151.290064">
  <ele>343.02</ele>
  <time>2026-09-01T19:53:57Z</time>
  <course>10.71</course>
  <speed>0.0</speed>
  <fix>3d</fix>
</trkpt>
<trkpt lat="-27.274439" lon="151.290064">
  <ele>343.1</ele>
  <time>2026-09-01T19:53:57Z</time>
  <course>270.0</course>
  <speed>0.0</speed>
  <fix>3d</fix>
</trkpt>
<trkpt lat="-27.274439" lon="151.290064">
  <ele>343.02</ele>
  <time>2026-09-01T19:53:57Z</time>
  <course>10.71</course>
  <speed>0.0</speed>
  <fix>3d</fix>
</trkpt>
<trkpt lat="-27.274439" lon="151.290064">
  <ele>343.1</ele>
  <time>2026-09-01T19:53:57Z</time>
  <course>270.0</course>
  <speed>0.0</speed>
  <fix>3d</fix>
</trkpt>
<trkpt lat="-27.274439" lon="151.290064">
  <ele>343.01</ele>
  <time>2026-09-01T19:53:57Z</time>
  <course>10.71</course>
  <speed>0.0</speed>
  <fix>3d</fix>
</trkpt>
<trkpt lat="-27.274439" lon="151.290064">
  <ele>343.1</ele>
  <time>2026-09-01T19:53:57Z</time>
  <course>270.0</course>
  <speed>0.0</speed>
  <fix>3d</fix>
</trkpt>
<trkpt lat="-27.274439" lon="151.290064">
  <ele>343.0</ele>
  <time>2026-09-01T19:53:57Z</time>
  <course>10.71</course>
  <speed>0.0</speed>
  <fix>3d</fix>
</trkpt>
<trkpt lat="-27.274439" lon="151.290064">
  <ele>343.1</ele>
  <time>2026-09-01T19:53:57Z</time>
  <course>270.0</course>
  <speed>0.0</speed>
  <fix>3d</fix>
</trkpt>
<trkpt lat="-27.274439" lon="151.290064">
  <ele>343.0</ele>
  <time>2026-09-01T19:53:57Z</time>
  <course>10.71</course>
  <speed>0.0</speed>
  <fix>3d</fix>
</trkpt>
<trkpt lat="-27.274439" lon="151.290064">
  <ele>343.1</ele>
  <time>2026-09-01T19:53:57Z</time>
  <course>270.0</course>
  <speed>0.0</speed>
  <fix>3d</fix>
</trkpt>
<trkpt lat="-27.274439" lon="151.290064">
  <ele>342.99</ele>
  <time>2026-09-01T19:53:57Z</time>
  <course>10.71</course>
  <speed>0.0</speed>
  <fix>3d</fix>
</trkpt>
<trkpt lat="-27.274439" lon="151.290064">
  <ele>343.1</ele>
  <time>2026-09-01T19:53:57Z</time>
  <course>270.0</course>
  <speed>0.0</speed>
  <fix>3d</fix>
</trkpt>
<trkpt lat="-27.274439" lon="151.290064">
  <ele>342.99</ele>
  <time>2026-09-01T19:53:57Z</time>
  <course>10.71</course>
  <speed>0.0</speed>
  <fix>3d</fix>
</trkpt>
<trkpt lat="-27.274439" lon="151.290064">
  <ele>343.1</ele>
  <time>2026-09-01T19:53:57Z</time>
  <course>270.0</course>
  <speed>0.0</speed>
  <fix>3d</fix>
</trkpt>
<trkpt lat="-27.274439" lon="151.290064">
  <ele>342.99</ele>
  <time>2026-09-01T19:53:57Z</time>
  <course>10.71</course>
  <speed>0.0</speed>
  <fix>3d</fix>
</trkpt>
<trkpt lat="-27.274439" lon="151.290064">
  <ele>343.1</ele>
  <time>2026-09-01T19:53:57Z</time>
  <course>270.0</course>
  <speed>0.0</speed>
  <fix>3d</fix>
</trkpt>
<trkpt lat="-27.274439" lon="151.290064">
  <ele>342.99</ele>
  <time>2026-09-01T19:53:57Z</time>
  <course>10.71</course>
  <speed>0.0</speed>
  <fix>3d</fix>
</trkpt>
<trkpt lat="-27.274439" lon="151.290064">
  <ele>343.1</ele>
  <time>2026-09-01T19:53:57Z</time>
  <course>270.0</course>
  <speed>0.0</speed>
  <fix>3d</fix>
</trkpt>
<trkpt lat="-27.274439" lon="151.290064">
  <ele>342.99</ele>
  <time>2026-09-01T19:53:57Z</time>
  <course>10.71</course>
  <speed>0.0</speed>
  <fix>3d</fix>
</trkpt>
<trkpt lat="-27.274439" lon="151.290064">
  <ele>343.1</ele>
  <time>2026-09-01T19:53:57Z</time>
  <course>270.0</course>
  <speed>0.0</speed>
  <fix>3d</fix>
</trkpt>
<trkpt lat="-27.274439" lon="151.290064">
  <ele>342.98</ele>
  <time>2026-09-01T19:53:57Z</time>
  <course>10.71</course>
  <speed>0.0</speed>
  <fix>3d</fix>
</trkpt>
<trkpt lat="-27.274439" lon="151.290064">
  <ele>343.1</ele>
  <time>2026-09-01T19:53:57Z</time>
  <course>270.0</course>
  <speed>0.0</speed>
  <fix>3d</fix>
</trkpt>
<trkpt lat="-27.274439" lon="151.290064">
  <ele>342.98</ele>
  <time>2026-09-01T19:53:57Z</time>
  <course>10.71</course>
  <speed>0.0</speed>
  <fix>3d</fix>
</trkpt>
<trkpt lat="-27.274439" lon="151.290064">
  <ele>343.1</ele>
  <time>2026-09-01T19:53:57Z</time>
  <course>270.0</course>
  <speed>0.0</speed>
  <fix>3d</fix>
</trkpt>
<trkpt lat="-27.274439" lon="151.290064">
  <ele>342.98</ele>
  <time>2026-09-01T19:53:57Z</time>
  <course>10.71</course>
  <speed>0.0</speed>
  <fix>3d</fix>
</trkpt>
<trkpt lat="-27.274439" lon="151.290064">
  <ele>343.1</ele>
  <time>2026-09-01T19:53:57Z</time>
  <course>270.0</course>
  <speed>0.0</speed>
  <fix>3d</fix>
</trkpt>
<trkpt lat="-27.274439" lon="151.290064">
  <ele>342.98</ele>
  <time>2026-09-01T19:53:57Z</time>
  <course>10.71</course>
  <speed>0.0</speed>
  <fix>3d</fix>
</trkpt>
<trkpt lat="-27.274439" lon="151.290064">
  <ele>343.1</ele>
  <time>2026-09-01T19:53:57Z</time>
  <course>270.0</course>
  <speed>0.0</speed>
  <fix>3d</fix>
</trkpt>
<trkpt lat="-27.274439" lon="151.290064">
  <ele>342.97</ele>
  <time>2026-09-01T19:53:57Z</time>
  <course>10.71</course>
  <speed>0.0</speed>
  <fix>3d</fix>
</trkpt>
<trkpt lat="-27.274439" lon="151.290064">
  <ele>343.1</ele>
  <time>2026-09-01T19:53:57Z</time>
  <course>270.0</course>
  <speed>0.0</speed>
  <fix>3d</fix>
</trkpt>
<trkpt lat="-27.274439" lon="151.290064">
  <ele>342.97</ele>
  <time>2026-09-01T19:53:57Z</time>
  <course>10.71</course>
  <speed>0.0</speed>
  <fix>3d</fix>
</trkpt>
<trkpt lat="-27.274439" lon="151.290064">
  <ele>343.1</ele>
  <time>2026-09-01T19:53:57Z</time>
  <course>270.0</course>
  <speed>0.0</speed>
  <fix>3d</fix>
</trkpt>
<trkpt lat="-27.274439" lon="151.290064">
  <ele>342.97</ele>
  <time>2026-09-01T19:53:57Z</time>
  <course>10.71</course>
  <speed>0.0</speed>
  <fix>3d</fix>
</trkpt>
<trkpt lat="-27.274439" lon="151.290064">
  <ele>343.1</ele>
  <time>2026-09-01T19:53:57Z</time>
  <course>270.0</course>
  <speed>0.0</speed>
  <fix>3d</fix>
</trkpt>
<trkpt lat="-27.274439" lon="151.290064">
  <ele>342.96</ele>
  <time>2026-09-01T19:53:57Z</time>
  <course>10.71</course>
  <speed>0.0</speed>
  <fix>3d</fix>
</trkpt>
<trkpt lat="-27.274439" lon="151.290064">
  <ele>343.1</ele>
  <time>2026-09-01T19:53:57Z</time>
  <course>270.0</course>
  <speed>0.0</speed>
  <fix>3d</fix>
</trkpt>
<trkpt lat="-27.274439" lon="151.290064">
  <ele>342.96</ele>
  <time>2026-09-01T19:53:57Z</time>
  <course>10.71</course>
  <speed>0.0</speed>
  <fix>3d</fix>
</trkpt>
<trkpt lat="-27.274439" lon="151.290064">
  <ele>343.1</ele>
  <time>2026-09-01T19:53:57Z</time>
  <course>270.0</course>
  <speed>0.0</speed>
  <fix>3d</fix>
</trkpt>
<trkpt lat="-27.274439" lon="151.290064">
  <ele>342.96</ele>
  <time>2026-09-01T19:53:57Z</time>
  <course>10.71</course>
  <speed>0.0</speed>
  <fix>3d</fix>
</trkpt>
<trkpt lat="-27.274439" lon="151.290064">
  <ele>343.1</ele>
  <time>2026-09-01T19:53:57Z</time>
  <course>270.0</course>
  <speed>0.0</speed>
  <fix>3d</fix>
</trkpt>
<trkpt lat="-27.274439" lon="151.290064">
  <ele>342.96</ele>
  <time>2026-09-01T19:53:57Z</time>
  <course>10.71</course>
  <speed>0.0</speed>
  <fix>3d</fix>
</trkpt>
<trkpt lat="-27.274439" lon="151.290064">
  <ele>343.1</ele>
  <time>2026-09-01T19:53:57Z</time>
  <course>270.0</course>
  <speed>0.0</speed>
  <fix>3d</fix>
</trkpt>
<trkpt lat="-27.274439" lon="151.290064">
  <ele>342.96</ele>
  <time>2026-09-01T19:53:57Z</time>
  <course>10.71</course>
  <speed>0.0</speed>
  <fix>3d</fix>
</trkpt>
<trkpt lat="-27.274439" lon="151.290064">
  <ele>343.1</ele>
  <time>2026-09-01T19:53:57Z</time>
  <course>270.0</course>
  <speed>0.0</speed>
  <fix>3d</fix>
</trkpt>
<trkpt lat="-27.274439" lon="151.290064">
  <ele>342.96</ele>
  <time>2026-09-01T19:53:57Z</time>
  <course>10.71</course>
  <speed>0.0</speed>
  <fix>3d</fix>
</trkpt>
<trkpt lat="-27.274439" lon="151.290064">
  <ele>343.1</ele>
  <time>2026-09-01T19:53:57Z</time>
  <course>270.0</course>
  <speed>0.0</speed>
  <fix>3d</fix>
</trkpt>
<trkpt lat="-27.274439" lon="151.290064">
  <ele>342.95</ele>
  <time>2026-09-01T19:53:57Z</time>
  <course>10.71</course>
  <speed>0.0</speed>
  <fix>3d</fix>
</trkpt>
<trkpt lat="-27.274439" lon="151.290064">
  <ele>343.1</ele>
  <time>2026-09-01T19:53:57Z</time>
  <course>270.0</course>
  <speed>0.0</speed>
  <fix>3d</fix>
</trkpt>
<trkpt lat="-27.274439" lon="151.290064">
  <ele>342.95</ele>
  <time>2026-09-01T19:53:57Z</time>
  <course>10.7</course>
  <speed>0.0</speed>
  <fix>3d</fix>
</trkpt>
<trkpt lat="-27.274439" lon="151.290064">
  <ele>343.1</ele>
  <time>2026-09-01T19:53:57Z</time>
  <course>270.0</course>
  <speed>0.0</speed>
  <fix>3d</fix>
</trkpt>
<trkpt lat="-27.274439" lon="151.290064">
  <ele>342.95</ele>
  <time>2026-09-01T19:53:57Z</time>
  <course>10.7</course>
  <speed>0.0</speed>
  <fix>3d</fix>
</trkpt>
<trkpt lat="-27.274439" lon="151.290064">
  <ele>343.1</ele>
  <time>2026-09-01T19:53:57Z</time>
  <course>270.0</course>
  <speed>0.0</speed>
  <fix>3d</fix>
</trkpt>
<trkpt lat="-27.274439" lon="151.290064">
  <ele>342.95</ele>
  <time>2026-09-01T19:53:57Z</time>
  <course>10.7</course>
  <speed>0.0</speed>
  <fix>3d</fix>
</trkpt>
<trkpt lat="-27.274439" lon="151.290064">
  <ele>343.1</ele>
  <time>2026-09-01T19:53:57Z</time>
  <course>270.0</course>
  <speed>0.0</speed>
  <fix>3d</fix>
</trkpt>
<trkpt lat="-27.274439" lon="151.290064">
  <ele>342.95</ele>
  <time>2026-09-01T19:53:57Z</time>
  <course>10.7</course>
  <speed>0.0</speed>
  <fix>3d</fix>
</trkpt>
<trkpt lat="-27.274439" lon="151.290064">
  <ele>343.1</ele>
  <time>2026-09-01T19:53:57Z</time>
  <course>270.0</course>
  <speed>0.0</speed>
  <fix>3d</fix>
</trkpt>
<trkpt lat="-27.274439" lon="151.290064">
  <ele>342.95</ele>
  <time>2026-09-01T19:53:57Z</time>
  <course>10.7</course>
  <speed>0.0</speed>
  <fix>3d</fix>
</trkpt>
<trkpt lat="-27.274439" lon="151.290064">
  <ele>343.1</ele>
  <time>2026-09-01T19:53:57Z</time>
  <course>270.0</course>
  <speed>0.0</speed>
  <fix>3d</fix>
</trkpt>
<trkpt lat="-27.274439" lon="151.290064">
  <ele>342.94</ele>
  <time>2026-09-01T19:53:57Z</time>
  <course>10.7</course>
  <speed>0.0</speed>
  <fix>3d</fix>
</trkpt>
<trkpt lat="-27.274439" lon="151.290064">
  <ele>343.1</ele>
  <time>2026-09-01T19:53:57Z</time>
  <course>270.0</course>
  <speed>0.0</speed>
  <fix>3d</fix>
</trkpt>
<trkpt lat="-27.274439" lon="151.290064">
  <ele>342.94</ele>
  <time>2026-09-01T19:53:57Z</time>
  <course>10.7</course>
  <speed>0.0</speed>
  <fix>3d</fix>
</trkpt>
<trkpt lat="-27.274439" lon="151.290064">
  <ele>343.1</ele>
  <time>2026-09-01T19:53:57Z</time>
  <course>270.0</course>
  <speed>0.0</speed>
  <fix>3d</fix>
</trkpt>
<trkpt lat="-27.274439" lon="151.290064">
  <ele>342.94</ele>
  <time>2026-09-01T19:53:57Z</time>
  <course>10.7</course>
  <speed>0.0</speed>
  <fix>3d</fix>
</trkpt>
<trkpt lat="-27.274439" lon="151.290064">
  <ele>343.1</ele>
  <time>2026-09-01T19:53:57Z</time>
  <course>270.0</course>
  <speed>0.0</speed>
  <fix>3d</fix>
</trkpt>
<trkpt lat="-27.274439" lon="151.290064">
  <ele>342.94</ele>
  <time>2026-09-01T19:53:57Z</time>
  <course>10.7</course>
  <speed>0.0</speed>
  <fix>3d</fix>
</trkpt>
<trkpt lat="-27.274439" lon="151.290064">
  <ele>343.1</ele>
  <time>2026-09-01T19:53:57Z</time>
  <course>270.0</course>
  <speed>0.0</speed>
  <fix>3d</fix>
</trkpt>
<trkpt lat="-27.274439" lon="151.290064">
  <ele>342.94</ele>
  <time>2026-09-01T19:53:57Z</time>
  <course>10.7</course>
  <speed>0.0</speed>
  <fix>3d</fix>
</trkpt>
<trkpt lat="-27.274439" lon="151.290064">
  <ele>343.1</ele>
  <time>2026-09-01T19:53:57Z</time>
  <course>270.0</course>
  <speed>0.0</speed>
  <fix>3d</fix>
</trkpt>
<trkpt lat="-27.274439" lon="151.290064">
  <ele>342.93</ele>
  <time>2026-09-01T19:53:57Z</time>
  <course>10.7</course>
  <speed>0.0</speed>
  <fix>3d</fix>
</trkpt>
<trkpt lat="-27.274439" lon="151.290064">
  <ele>343.1</ele>
  <time>2026-09-01T19:53:57Z</time>
  <course>270.0</course>
  <speed>0.0</speed>
  <fix>3d</fix>
</trkpt>
<trkpt lat="-27.274439" lon="151.290064">
  <ele>342.93</ele>
  <time>2026-09-01T19:53:57Z</time>
  <course>10.7</course>
  <speed>0.0</speed>
  <fix>3d</fix>
</trkpt>
<trkpt lat="-27.274439" lon="151.290064">
  <ele>343.1</ele>
  <time>2026-09-01T19:53:57Z</time>
  <course>270.0</course>
  <speed>0.0</speed>
  <fix>3d</fix>
</trkpt>
<trkpt lat="-27.274439" lon="151.290064">
  <ele>342.93</ele>
  <time>2026-09-01T19:53:57Z</time>
  <course>10.7</course>
  <speed>0.0</speed>
  <fix>3d</fix>
</trkpt>
<trkpt lat="-27.274439" lon="151.290064">
  <ele>343.1</ele>
  <time>2026-09-01T19:53:57Z</time>
  <course>270.0</course>
  <speed>0.0</speed>
  <fix>3d</fix>
</trkpt>
<trkpt lat="-27.274439" lon="151.290064">
  <ele>342.93</ele>
  <time>2026-09-01T19:53:57Z</time>
  <course>10.7</course>
  <speed>0.0</speed>
  <fix>3d</fix>
</trkpt>
<trkpt lat="-27.274439" lon="151.290064">
  <ele>343.1</ele>
  <time>2026-09-01T19:53:57Z</time>
  <course>270.0</course>
  <speed>0.0</speed>
  <fix>3d</fix>
</trkpt>
<trkpt lat="-27.274439" lon="151.290064">
  <ele>342.93</ele>
  <time>2026-09-01T19:53:57Z</time>
  <course>10.7</course>
  <speed>0.0</speed>
  <fix>3d</fix>
</trkpt>
<trkpt lat="-27.274439" lon="151.290064">
  <ele>343.1</ele>
  <time>2026-09-01T19:53:57Z</time>
  <course>270.0</course>
  <speed>0.0</speed>
  <fix>3d</fix>
</trkpt>
<trkpt lat="-27.274439" lon="151.290064">
  <ele>342.93</ele>
  <time>2026-09-01T19:53:57Z</time>
  <course>10.7</course>
  <speed>0.0</speed>
  <fix>3d</fix>
</trkpt>
<trkpt lat="-27.274439" lon="151.290064">
  <ele>343.1</ele>
  <time>2026-09-01T19:53:57Z</time>
  <course>270.0</course>
  <speed>0.0</speed>
  <fix>3d</fix>
</trkpt>
<trkpt lat="-27.274439" lon="151.290064">
  <ele>342.93</ele>
  <time>2026-09-01T19:53:57Z</time>
  <course>10.7</course>
  <speed>0.01</speed>
  <fix>3d</fix>
</trkpt>
<trkpt lat="-27.274439" lon="151.290064">
  <ele>343.1</ele>
  <time>2026-09-01T19:53:57Z</time>
  <course>270.0</course>
  <speed>0.0</speed>
  <fix>3d</fix>
</trkpt>
<trkpt lat="-27.274439" lon="151.290064">
  <ele>342.93</ele>
  <time>2026-09-01T19:53:57Z</time>
  <course>10.7</course>
  <speed>0.01</speed>
  <fix>3d</fix>
</trkpt>
<trkpt lat="-27.274439" lon="151.290064">
  <ele>343.1</ele>
  <time>2026-09-01T19:53:57Z</time>
  <course>270.0</course>
  <speed>0.0</speed>
  <fix>3d</fix>
</trkpt>
<trkpt lat="-27.274439" lon="151.290064">
  <ele>342.92</ele>
  <time>2026-09-01T19:53:57Z</time>
  <course>10.7</course>
  <speed>0.01</speed>
  <fix>3d</fix>
</trkpt>
<trkpt lat="-27.274439" lon="151.290064">
  <ele>343.1</ele>
  <time>2026-09-01T19:53:57Z</time>
  <course>270.0</course>
  <speed>0.0</speed>
  <fix>3d</fix>
</trkpt>
<trkpt lat="-27.274439" lon="151.290064">
  <ele>343.09</ele>
  <time>2026-09-01T19:53:57Z</time>
  <course>10.7</course>
  <speed>0.01</speed>
  <fix>3d</fix>
</trkpt>
<trkpt lat="-27.274439" lon="151.290064">
  <ele>343.1</ele>
  <time>2026-09-01T19:53:57Z</time>
  <course>270.0</course>
  <speed>0.0</speed>
  <fix>3d</fix>
</trkpt>
<trkpt lat="-27.274439" lon="151.290064">
  <ele>343.09</ele>
  <time>2026-09-01T19:53:57Z</time>
  <course>10.7</course>
  <speed>0.01</speed>
  <fix>3d</fix>
</trkpt>
<trkpt lat="-27.274439" lon="151.290064">
  <ele>343.1</ele>
  <time>2026-09-01T19:53:57Z</time>
  <course>270.0</course>
  <speed>0.0</speed>
  <fix>3d</fix>
</trkpt>
<trkpt lat="-27.274439" lon="151.290064">
  <ele>343.09</ele>
  <time>2026-09-01T19:53:57Z</time>
  <course>10.7</course>
  <speed>0.01</speed>
  <fix>3d</fix>
</trkpt>
<trkpt lat="-27.274439" lon="151.290064">
  <ele>343.1</ele>
  <time>2026-09-01T19:53:57Z</time>
  <course>270.0</course>
  <speed>0.0</speed>
  <fix>3d</fix>
</trkpt>
<trkpt lat="-27.274439" lon="151.290064">
  <ele>343.09</ele>
  <time>2026-09-01T19:53:57Z</time>
  <course>10.7</course>
  <speed>0.01</speed>
  <fix>3d</fix>
</trkpt>
<trkpt lat="-27.274439" lon="151.290064">
  <ele>343.1</ele>
  <time>2026-09-01T19:53:57Z</time>
  <course>270.0</course>
  <speed>0.0</speed>
  <fix>3d</fix>
</trkpt>
<trkpt lat="-27.274439" lon="151.290064">
  <ele>343.09</ele>
  <time>2026-09-01T19:53:57Z</time>
  <course>10.7</course>
  <speed>0.01</speed>
  <fix>3d</fix>
</trkpt>
<trkpt lat="-27.274439" lon="151.290064">
  <ele>343.1</ele>
  <time>2026-09-01T19:53:57Z</time>
  <course>270.0</course>
  <speed>0.0</speed>
  <fix>3d</fix>
</trkpt>
<trkpt lat="-27.274439" lon="151.290064">
  <ele>343.08</ele>
  <time>2026-09-01T19:53:57Z</time>
  <course>10.7</course>
  <speed>0.01</speed>
  <fix>3d</fix>
</trkpt>
<trkpt lat="-27.274439" lon="151.290064">
  <ele>343.1</ele>
  <time>2026-09-01T19:53:57Z</time>
  <course>270.0</course>
  <speed>0.0</speed>
  <fix>3d</fix>
</trkpt>
<trkpt lat="-27.274439" lon="151.290064">
  <ele>343.08</ele>
  <time>2026-09-01T19:53:57Z</time>
  <course>10.7</course>
  <speed>0.01</speed>
  <fix>3d</fix>
</trkpt>
<trkpt lat="-27.274439" lon="151.290064">
  <ele>343.1</ele>
  <time>2026-09-01T19:53:57Z</time>
  <course>270.0</course>
  <speed>0.0</speed>
  <fix>3d</fix>
</trkpt>
<trkpt lat="-27.274439" lon="151.290064">
  <ele>343.07</ele>
  <time>2026-09-01T19:53:57Z</time>
  <course>10.7</course>
  <speed>0.01</speed>
  <fix>3d</fix>
</trkpt>
<trkpt lat="-27.274439" lon="151.290064">
  <ele>343.1</ele>
  <time>2026-09-01T19:53:57Z</time>
  <course>270.0</course>
  <speed>0.0</speed>
  <fix>3d</fix>
</trkpt>
<trkpt lat="-27.274439" lon="151.290064">
  <ele>343.07</ele>
  <time>2026-09-01T19:53:57Z</time>
  <course>10.7</course>
  <speed>0.01</speed>
  <fix>3d</fix>
</trkpt>
<trkpt lat="-27.274439" lon="151.290064">
  <ele>343.1</ele>
  <time>2026-09-01T19:53:57Z</time>
  <course>270.0</course>
  <speed>0.0</speed>
  <fix>3d</fix>
</trkpt>
<trkpt lat="-27.274439" lon="151.290064">
  <ele>343.07</ele>
  <time>2026-09-01T19:53:57Z</time>
  <course>10.7</course>
  <speed>0.01</speed>
  <fix>3d</fix>
</trkpt>
<trkpt lat="-27.274439" lon="151.290064">
  <ele>343.1</ele>
  <time>2026-09-01T19:53:57Z</time>
  <course>270.0</course>
  <speed>0.0</speed>
  <fix>3d</fix>
</trkpt>
<trkpt lat="-27.274439" lon="151.290064">
  <ele>343.06</ele>
  <time>2026-09-01T19:53:57Z</time>
  <course>10.7</course>
  <speed>0.01</speed>
  <fix>3d</fix>
</trkpt>
<trkpt lat="-27.274439" lon="151.290064">
  <ele>343.1</ele>
  <time>2026-09-01T19:53:57Z</time>
  <course>270.0</course>
  <speed>0.0</speed>
  <fix>3d</fix>
</trkpt>
<trkpt lat="-27.274439" lon="151.290064">
  <ele>343.06</ele>
  <time>2026-09-01T19:53:57Z</time>
  <course>10.7</course>
  <speed>0.01</speed>
  <fix>3d</fix>
</trkpt>
<trkpt lat="-27.274439" lon="151.290064">
  <ele>343.1</ele>
  <time>2026-09-01T19:53:57Z</time>
  <course>270.0</course>
  <speed>0.0</speed>
  <fix>3d</fix>
</trkpt>
<trkpt lat="-27.274439" lon="151.290064">
  <ele>343.05</ele>
  <time>2026-09-01T19:53:57Z</time>
  <course>10.7</course>
  <speed>0.01</speed>
  <fix>3d</fix>
</trkpt>
<trkpt lat="-27.274439" lon="151.290064">
  <ele>343.1</ele>
  <time>2026-09-01T19:53:57Z</time>
  <course>270.0</course>
  <speed>0.0</speed>
  <fix>3d</fix>
</trkpt>
<trkpt lat="-27.274439" lon="151.290064">
  <ele>343.05</ele>
  <time>2026-09-01T19:53:57Z</time>
  <course>10.7</course>
  <speed>0.01</speed>
  <fix>3d</fix>
</trkpt>
<trkpt lat="-27.274439" lon="151.290064">
  <ele>343.1</ele>
  <time>2026-09-01T19:53:57Z</time>
  <course>270.0</course>
  <speed>0.0</speed>
  <fix>3d</fix>
</trkpt>
<trkpt lat="-27.274439" lon="151.290064">
  <ele>343.04</ele>
  <time>2026-09-01T19:53:57Z</time>
  <course>10.7</course>
  <speed>0.01</speed>
  <fix>3d</fix>
</trkpt>
<trkpt lat="-27.274439" lon="151.290064">
  <ele>343.1</ele>
  <time>2026-09-01T19:53:57Z</time>
  <course>270.0</course>
  <speed>0.0</speed>
  <fix>3d</fix>
</trkpt>
<trkpt lat="-27.274439" lon="151.290064">
  <ele>343.04</ele>
  <time>2026-09-01T19:53:57Z</time>
  <course>10.7</course>
  <speed>0.01</speed>
  <fix>3d</fix>
</trkpt>
<trkpt lat="-27.274439" lon="151.290064">
  <ele>343.1</ele>
  <time>2026-09-01T19:53:57Z</time>
  <course>270.0</course>
  <speed>0.0</speed>
  <fix>3d</fix>
</trkpt>
<trkpt lat="-27.274439" lon="151.290064">
  <ele>343.03</ele>
  <time>2026-09-01T19:53:57Z</time>
  <course>10.7</course>
  <speed>0.01</speed>
  <fix>3d</fix>
</trkpt>
<trkpt lat="-27.274439" lon="151.290064">
  <ele>343.1</ele>
  <time>2026-09-01T19:53:57Z</time>
  <course>270.0</course>
  <speed>0.0</speed>
  <fix>3d</fix>
</trkpt>
<trkpt lat="-27.274439" lon="151.290064">
  <ele>343.03</ele>
  <time>2026-09-01T19:53:57Z</time>
  <course>10.7</course>
  <speed>0.01</speed>
  <fix>3d</fix>
</trkpt>
<trkpt lat="-27.274439" lon="151.290064">
  <ele>343.1</ele>
  <time>2026-09-01T19:53:57Z</time>
  <course>270.0</course>
  <speed>0.0</speed>
  <fix>3d</fix>
</trkpt>
<trkpt lat="-27.274439" lon="151.290064">
  <ele>343.03</ele>
  <time>2026-09-01T19:53:57Z</time>
  <course>10.7</course>
  <speed>0.01</speed>
  <fix>3d</fix>
</trkpt>
<trkpt lat="-27.274439" lon="151.290064">
  <ele>343.1</ele>
  <time>2026-09-01T19:53:57Z</time>
  <course>270.0</course>
  <speed>0.0</speed>
  <fix>3d</fix>
</trkpt>
<trkpt lat="-27.274439" lon="151.290064">
  <ele>343.02</ele>
  <time>2026-09-01T19:53:57Z</time>
  <course>10.7</course>
  <speed>0.01</speed>
  <fix>3d</fix>
</trkpt>
<trkpt lat="-27.274439" lon="151.290064">
  <ele>343.1</ele>
  <time>2026-09-01T19:53:57Z</time>
  <course>270.0</course>
  <speed>0.0</speed>
  <fix>3d</fix>
</trkpt>
<trkpt lat="-27.274439" lon="151.290064">
  <ele>343.02</ele>
  <time>2026-09-01T19:53:57Z</time>
  <course>10.7</course>
  <speed>0.01</speed>
  <fix>3d</fix>
</trkpt>
<trkpt lat="-27.274439" lon="151.290064">
  <ele>343.1</ele>
  <time>2026-09-01T19:53:57Z</time>
  <course>270.0</course>
  <speed>0.0</speed>
  <fix>3d</fix>
</trkpt>
<trkpt lat="-27.274439" lon="151.290064">
  <ele>343.02</ele>
  <time>2026-09-01T19:53:57Z</time>
  <course>10.7</course>
  <speed>0.01</speed>
  <fix>3d</fix>
</trkpt>
<trkpt lat="-27.274439" lon="151.290064">
  <ele>343.1</ele>
  <time>2026-09-01T19:53:57Z</time>
  <course>270.0</course>
  <speed>0.0</speed>
  <fix>3d</fix>
</trkpt>
<trkpt lat="-27.274439" lon="151.290064">
  <ele>343.02</ele>
  <time>2026-09-01T19:53:57Z</time>
  <course>10.7</course>
  <speed>0.01</speed>
  <fix>3d</fix>
</trkpt>
<trkpt lat="-27.274439" lon="151.290064">
  <ele>343.1</ele>
  <time>2026-09-01T19:53:57Z</time>
  <course>270.0</course>
  <speed>0.0</speed>
  <fix>3d</fix>
</trkpt>
<trkpt lat="-27.274439" lon="151.290064">
  <ele>343.02</ele>
  <time>2026-09-01T19:53:57Z</time>
  <course>10.7</course>
  <speed>0.01</speed>
  <fix>3d</fix>
</trkpt>
<trkpt lat="-27.274439" lon="151.290064">
  <ele>343.1</ele>
  <time>2026-09-01T19:53:57Z</time>
  <course>270.0</course>
  <speed>0.0</speed>
  <fix>3d</fix>
</trkpt>
<trkpt lat="-27.274439" lon="151.290064">
  <ele>343.02</ele>
  <time>2026-09-01T19:53:57Z</time>
  <course>10.7</course>
  <speed>0.01</speed>
  <fix>3d</fix>
</trkpt>
<trkpt lat="-27.274439" lon="151.290064">
  <ele>343.1</ele>
  <time>2026-09-01T19:53:57Z</time>
  <course>270.0</course>
  <speed>0.0</speed>
  <fix>3d</fix>
</trkpt>
<trkpt lat="-27.274439" lon="151.290064">
  <ele>343.02</ele>
  <time>2026-09-01T19:53:57Z</time>
  <course>10.7</course>
  <speed>0.01</speed>
  <fix>3d</fix>
</trkpt>
<trkpt lat="-27.274439" lon="151.290064">
  <ele>343.1</ele>
  <time>2026-09-01T19:53:57Z</time>
  <course>270.0</course>
  <speed>0.0</speed>
  <fix>3d</fix>
</trkpt>
<trkpt lat="-27.274439" lon="151.290064">
  <ele>343.01</ele>
  <time>2026-09-01T19:53:57Z</time>
  <course>10.7</course>
  <speed>0.01</speed>
  <fix>3d</fix>
</trkpt>
<trkpt lat="-27.274439" lon="151.290064">
  <ele>343.1</ele>
  <time>2026-09-01T19:53:57Z</time>
  <course>270.0</course>
  <speed>0.0</speed>
  <fix>3d</fix>
</trkpt>
<trkpt lat="-27.274439" lon="151.290064">
  <ele>343.01</ele>
  <time>2026-09-01T19:53:57Z</time>
  <course>10.7</course>
  <speed>0.01</speed>
  <fix>3d</fix>
</trkpt>
<trkpt lat="-27.274439" lon="151.290064">
  <ele>343.1</ele>
  <time>2026-09-01T19:53:57Z</time>
  <course>270.0</course>
  <speed>0.0</speed>
  <fix>3d</fix>
</trkpt>
<trkpt lat="-27.274439" lon="151.290064">
  <ele>343.01</ele>
  <time>2026-09-01T19:53:57Z</time>
  <course>10.7</course>
  <speed>0.01</speed>
  <fix>3d</fix>
</trkpt>
<trkpt lat="-27.274439" lon="151.290064">
  <ele>343.1</ele>
  <time>2026-09-01T19:53:57Z</time>
  <course>270.0</course>
  <speed>0.0</speed>
  <fix>3d</fix>
</trkpt>
<trkpt lat="-27.274439" lon="151.290064">
  <ele>343.01</ele>
  <time>2026-09-01T19:53:57Z</time>
  <course>10.7</course>
  <speed>0.01</speed>
  <fix>3d</fix>
</trkpt>
<trkpt lat="-27.274439" lon="151.290064">
  <ele>343.1</ele>
  <time>2026-09-01T19:53:57Z</time>
  <course>270.0</course>
  <speed>0.0</speed>
  <fix>3d</fix>
</trkpt>
<trkpt lat="-27.274439" lon="151.290064">
  <ele>343.01</ele>
  <time>2026-09-01T19:53:57Z</time>
  <course>10.7</course>
  <speed>0.01</speed>
  <fix>3d</fix>
</trkpt>
<trkpt lat="-27.274439" lon="151.290064">
  <ele>343.1</ele>
  <time>2026-09-01T19:53:57Z</time>
  <course>270.0</course>
  <speed>0.0</speed>
  <fix>3d</fix>
</trkpt>
<trkpt lat="-27.274439" lon="151.290064">
  <ele>343.0</ele>
  <time>2026-09-01T19:53:57Z</time>
  <course>10.7</course>
  <speed>0.01</speed>
  <fix>3d</fix>
</trkpt>
<trkpt lat="-27.274439" lon="151.290064">
  <ele>343.1</ele>
  <time>2026-09-01T19:53:57Z</time>
  <course>270.0</course>
  <speed>0.0</speed>
  <fix>3d</fix>
</trkpt>
<trkpt lat="-27.274439" lon="151.290064">
  <ele>343.0</ele>
  <time>2026-09-01T19:53:57Z</time>
  <course>10.7</course>
  <speed>0.01</speed>
  <fix>3d</fix>
</trkpt>
<trkpt lat="-27.274439" lon="151.290064">
  <ele>343.1</ele>
  <time>2026-09-01T19:53:57Z</time>
  <course>270.0</course>
  <speed>0.0</speed>
  <fix>3d</fix>
</trkpt>
<trkpt lat="-27.274439" lon="151.290064">
  <ele>343.0</ele>
  <time>2026-09-01T19:53:57Z</time>
  <course>10.7</course>
  <speed>0.01</speed>
  <fix>3d</fix>
</trkpt>
<trkpt lat="-27.274439" lon="151.290064">
  <ele>343.1</ele>
  <time>2026-09-01T19:53:57Z</time>
  <course>270.0</course>
  <speed>0.0</speed>
  <fix>3d</fix>
</trkpt>
<trkpt lat="-27.274439" lon="151.290064">
  <ele>342.99</ele>
  <time>2026-09-01T19:53:57Z</time>
  <course>10.7</course>
  <speed>0.01</speed>
  <fix>3d</fix>
</trkpt>
<trkpt lat="-27.274439" lon="151.290064">
  <ele>343.1</ele>
  <time>2026-09-01T19:53:57Z</time>
  <course>270.0</course>
  <speed>0.0</speed>
  <fix>3d</fix>
</trkpt>
<trkpt lat="-27.274439" lon="151.290064">
  <ele>342.99</ele>
  <time>2026-09-01T19:53:57Z</time>
  <course>10.7</course>
  <speed>0.01</speed>
  <fix>3d</fix>
</trkpt>
<trkpt lat="-27.274439" lon="151.290064">
  <ele>343.1</ele>
  <time>2026-09-01T19:53:57Z</time>
  <course>270.0</course>
  <speed>0.0</speed>
  <fix>3d</fix>
</trkpt>
<trkpt lat="-27.274439" lon="151.290064">
  <ele>342.98</ele>
  <time>2026-09-01T19:53:57Z</time>
  <course>10.7</course>
  <speed>0.01</speed>
  <fix>3d</fix>
</trkpt>
<trkpt lat="-27.274439" lon="151.290064">
  <ele>343.1</ele>
  <time>2026-09-01T19:53:57Z</time>
  <course>270.0</course>
  <speed>0.0</speed>
  <fix>3d</fix>
</trkpt>
<trkpt lat="-27.274439" lon="151.290064">
  <ele>342.98</ele>
  <time>2026-09-01T19:53:57Z</time>
  <course>10.7</course>
  <speed>0.01</speed>
  <fix>3d</fix>
</trkpt>
<trkpt lat="-27.274439" lon="151.290064">
  <ele>343.1</ele>
  <time>2026-09-01T19:53:57Z</time>
  <course>270.0</course>
  <speed>0.0</speed>
  <fix>3d</fix>
</trkpt>
<trkpt lat="-27.274439" lon="151.290064">
  <ele>342.97</ele>
  <time>2026-09-01T19:53:57Z</time>
  <course>10.7</course>
  <speed>0.01</speed>
  <fix>3d</fix>
</trkpt>
<trkpt lat="-27.274439" lon="151.290064">
  <ele>343.1</ele>
  <time>2026-09-01T19:53:57Z</time>
  <course>270.0</course>
  <speed>0.0</speed>
  <fix>3d</fix>
</trkpt>
<trkpt lat="-27.274439" lon="151.290064">
  <ele>342.97</ele>
  <time>2026-09-01T19:53:57Z</time>
  <course>10.7</course>
  <speed>0.01</speed>
  <fix>3d</fix>
</trkpt>
<trkpt lat="-27.274439" lon="151.290064">
  <ele>343.1</ele>
  <time>2026-09-01T19:53:57Z</time>
  <course>270.0</course>
  <speed>0.0</speed>
  <fix>3d</fix>
</trkpt>
<trkpt lat="-27.274439" lon="151.290064">
  <ele>342.97</ele>
  <time>2026-09-01T19:53:57Z</time>
  <course>10.7</course>
  <speed>0.01</speed>
  <fix>3d</fix>
</trkpt>
<trkpt lat="-27.274439" lon="151.290064">
  <ele>343.1</ele>
  <time>2026-09-01T19:53:57Z</time>
  <course>270.0</course>
  <speed>0.0</speed>
  <fix>3d</fix>
</trkpt>
<trkpt lat="-27.274439" lon="151.290064">
  <ele>342.96</ele>
  <time>2026-09-01T19:53:57Z</time>
  <course>10.7</course>
  <speed>0.01</speed>
  <fix>3d</fix>
</trkpt>
<trkpt lat="-27.274439" lon="151.290064">
  <ele>343.1</ele>
  <time>2026-09-01T19:53:57Z</time>
  <course>270.0</course>
  <speed>0.0</speed>
  <fix>3d</fix>
</trkpt>
<trkpt lat="-27.274439" lon="151.290064">
  <ele>342.96</ele>
  <time>2026-09-01T19:53:57Z</time>
  <course>10.7</course>
  <speed>0.01</speed>
  <fix>3d</fix>
</trkpt>
<trkpt lat="-27.274439" lon="151.290064">
  <ele>343.1</ele>
  <time>2026-09-01T19:53:57Z</time>
  <course>270.0</course>
  <speed>0.0</speed>
  <fix>3d</fix>
</trkpt>
<trkpt lat="-27.274439" lon="151.290064">
  <ele>342.96</ele>
  <time>2026-09-01T19:53:57Z</time>
  <course>10.7</course>
  <speed>0.01</speed>
  <fix>3d</fix>
</trkpt>
<trkpt lat="-27.274439" lon="151.290064">
  <ele>343.1</ele>
  <time>2026-09-01T19:53:57Z</time>
  <course>270.0</course>
  <speed>0.0</speed>
  <fix>3d</fix>
</trkpt>
<trkpt lat="-27.274439" lon="151.290064">
  <ele>342.96</ele>
  <time>2026-09-01T19:53:57Z</time>
  <course>10.7</course>
  <speed>0.01</speed>
  <fix>3d</fix>
</trkpt>
<trkpt lat="-27.274439" lon="151.290064">
  <ele>343.1</ele>
  <time>2026-09-01T19:53:58Z</time>
  <course>270.0</course>
  <speed>0.0</speed>
  <fix>3d</fix>
</trkpt>
<trkpt lat="-27.274439" lon="151.290064">
  <ele>342.95</ele>
  <time>2026-09-01T19:53:58Z</time>
  <course>10.7</course>
  <speed>0.01</speed>
  <fix>3d</fix>
</trkpt>
<trkpt lat="-27.274439" lon="151.290064">
  <ele>343.1</ele>
  <time>2026-09-01T19:53:58Z</time>
  <course>270.0</course>
  <speed>0.0</speed>
  <fix>3d</fix>
</trkpt>
<trkpt lat="-27.274439" lon="151.290064">
  <ele>342.95</ele>
  <time>2026-09-01T19:53:58Z</time>
  <course>10.7</course>
  <speed>0.01</speed>
  <fix>3d</fix>
</trkpt>
<trkpt lat="-27.274439" lon="151.290064">
  <ele>343.1</ele>
  <time>2026-09-01T19:53:58Z</time>
  <course>270.0</course>
  <speed>0.0</speed>
  <fix>3d</fix>
</trkpt>
<trkpt lat="-27.274439" lon="151.290064">
  <ele>342.95</ele>
  <time>2026-09-01T19:53:58Z</time>
  <course>10.7</course>
  <speed>0.01</speed>
  <fix>3d</fix>
</trkpt>
<trkpt lat="-27.274439" lon="151.290064">
  <ele>343.1</ele>
  <time>2026-09-01T19:53:58Z</time>
  <course>270.0</course>
  <speed>0.0</speed>
  <fix>3d</fix>
</trkpt>
<trkpt lat="-27.274439" lon="151.290064">
  <ele>342.95</ele>
  <time>2026-09-01T19:53:58Z</time>
  <course>10.7</course>
  <speed>0.01</speed>
  <fix>3d</fix>
</trkpt>
<trkpt lat="-27.274439" lon="151.290064">
  <ele>343.1</ele>
  <time>2026-09-01T19:53:58Z</time>
  <course>270.0</course>
  <speed>0.0</speed>
  <fix>3d</fix>
</trkpt>
<trkpt lat="-27.274439" lon="151.290064">
  <ele>342.95</ele>
  <time>2026-09-01T19:53:58Z</time>
  <course>10.7</course>
  <speed>0.01</speed>
  <fix>3d</fix>
</trkpt>
<trkpt lat="-27.274439" lon="151.290064">
  <ele>343.1</ele>
  <time>2026-09-01T19:53:58Z</time>
  <course>270.0</course>
  <speed>0.0</speed>
  <fix>3d</fix>
</trkpt>
<trkpt lat="-27.274439" lon="151.290064">
  <ele>342.95</ele>
  <time>2026-09-01T19:53:58Z</time>
  <course>10.7</course>
  <speed>0.01</speed>
  <fix>3d</fix>
</trkpt>
<trkpt lat="-27.274439" lon="151.290064">
  <ele>343.1</ele>
  <time>2026-09-01T19:53:58Z</time>
  <course>270.0</course>
  <speed>0.0</speed>
  <fix>3d</fix>
</trkpt>
<trkpt lat="-27.2744391" lon="151.290064">
  <ele>342.95</ele>
  <time>2026-09-01T19:53:58Z</time>
  <course>10.7</course>
  <speed>0.01</speed>
  <fix>3d</fix>
</trkpt>
<trkpt lat="-27.274439" lon="151.290064">
  <ele>343.1</ele>
  <time>2026-09-01T19:53:58Z</time>
  <course>270.0</course>
  <speed>0.0</speed>
  <fix>3d</fix>
</trkpt>
<trkpt lat="-27.2744391" lon="151.290064">
  <ele>342.95</ele>
  <time>2026-09-01T19:53:58Z</time>
  <course>10.7</course>
  <speed>0.01</speed>
  <fix>3d</fix>
</trkpt>
<trkpt lat="-27.274439" lon="151.290064">
  <ele>343.1</ele>
  <time>2026-09-01T19:53:58Z</time>
  <course>270.0</course>
  <speed>0.0</speed>
  <fix>3d</fix>
</trkpt>
<trkpt lat="-27.2744391" lon="151.290064">
  <ele>342.95</ele>
  <time>2026-09-01T19:53:58Z</time>
  <course>10.7</course>
  <speed>0.01</speed>
  <fix>3d</fix>
</trkpt>
<trkpt lat="-27.274439" lon="151.290064">
  <ele>343.1</ele>
  <time>2026-09-01T19:53:58Z</time>
  <course>270.0</course>
  <speed>0.0</speed>
  <fix>3d</fix>
</trkpt>
<trkpt lat="-27.2744391" lon="151.290064">
  <ele>342.95</ele>
  <time>2026-09-01T19:53:58Z</time>
  <course>10.7</course>
  <speed>0.01</speed>
  <fix>3d</fix>
</trkpt>
<trkpt lat="-27.274439" lon="151.290064">
  <ele>343.1</ele>
  <time>2026-09-01T19:53:58Z</time>
  <course>270.0</course>
  <speed>0.0</speed>
  <fix>3d</fix>
</trkpt>
<trkpt lat="-27.2744391" lon="151.290064">
  <ele>342.95</ele>
  <time>2026-09-01T19:53:58Z</time>
  <course>10.7</course>
  <speed>0.01</speed>
  <fix>3d</fix>
</trkpt>
<trkpt lat="-27.274439" lon="151.290064">
  <ele>343.1</ele>
  <time>2026-09-01T19:53:58Z</time>
  <course>270.0</course>
  <speed>0.0</speed>
  <fix>3d</fix>
</trkpt>
<trkpt lat="-27.2744391" lon="151.290064">
  <ele>342.95</ele>
  <time>2026-09-01T19:53:58Z</time>
  <course>10.7</course>
  <speed>0.01</speed>
  <fix>3d</fix>
</trkpt>
<trkpt lat="-27.274439" lon="151.290064">
  <ele>343.1</ele>
  <time>2026-09-01T19:53:58Z</time>
  <course>270.0</course>
  <speed>0.0</speed>
  <fix>3d</fix>
</trkpt>
<trkpt lat="-27.2744391" lon="151.290064">
  <ele>342.95</ele>
  <time>2026-09-01T19:53:58Z</time>
  <course>10.7</course>
  <speed>0.01</speed>
  <fix>3d</fix>
</trkpt>
<trkpt lat="-27.274439" lon="151.290064">
  <ele>343.1</ele>
  <time>2026-09-01T19:53:58Z</time>
  <course>270.0</course>
  <speed>0.0</speed>
  <fix>3d</fix>
</trkpt>
<trkpt lat="-27.2744391" lon="151.290064">
  <ele>342.95</ele>
  <time>2026-09-01T19:53:58Z</time>
  <course>10.7</course>
  <speed>0.01</speed>
  <fix>3d</fix>
</trkpt>
<trkpt lat="-27.274439" lon="151.290064">
  <ele>343.1</ele>
  <time>2026-09-01T19:53:58Z</time>
  <course>270.0</course>
  <speed>0.0</speed>
  <fix>3d</fix>
</trkpt>
<trkpt lat="-27.2744391" lon="151.290064">
  <ele>342.95</ele>
  <time>2026-09-01T19:53:58Z</time>
  <course>10.7</course>
  <speed>0.01</speed>
  <fix>3d</fix>
</trkpt>
<trkpt lat="-27.274439" lon="151.290064">
  <ele>343.1</ele>
  <time>2026-09-01T19:53:58Z</time>
  <course>270.0</course>
  <speed>0.0</speed>
  <fix>3d</fix>
</trkpt>
<trkpt lat="-27.2744391" lon="151.290064">
  <ele>343.1</ele>
  <time>2026-09-01T19:53:58Z</time>
  <course>10.7</course>
  <speed>0.01</speed>
  <fix>3d</fix>
</trkpt>
<trkpt lat="-27.274439" lon="151.290064">
  <ele>343.1</ele>
  <time>2026-09-01T19:53:58Z</time>
  <course>270.0</course>
  <speed>0.0</speed>
  <fix>3d</fix>
</trkpt>
<trkpt lat="-27.2744391" lon="151.290064">
  <ele>343.09</ele>
  <time>2026-09-01T19:53:58Z</time>
  <course>10.7</course>
  <speed>0.01</speed>
  <fix>3d</fix>
</trkpt>
<trkpt lat="-27.274439" lon="151.290064">
  <ele>343.1</ele>
  <time>2026-09-01T19:53:58Z</time>
  <course>270.0</course>
  <speed>0.0</speed>
  <fix>3d</fix>
</trkpt>
<trkpt lat="-27.2744391" lon="151.290064">
  <ele>343.09</ele>
  <time>2026-09-01T19:53:58Z</time>
  <course>10.7</course>
  <speed>0.01</speed>
  <fix>3d</fix>
</trkpt>
<trkpt lat="-27.274439" lon="151.290064">
  <ele>343.1</ele>
  <time>2026-09-01T19:53:58Z</time>
  <course>270.0</course>
  <speed>0.0</speed>
  <fix>3d</fix>
</trkpt>
<trkpt lat="-27.2744391" lon="151.290064">
  <ele>343.09</ele>
  <time>2026-09-01T19:53:58Z</time>
  <course>10.71</course>
  <speed>0.01414213562373095</speed>
  <fix>3d</fix>
</trkpt>
<trkpt lat="-27.274439" lon="151.290064">
  <ele>343.1</ele>
  <time>2026-09-01T19:53:58Z</time>
  <course>270.0</course>
  <speed>0.0</speed>
  <fix>3d</fix>
</trkpt>
<trkpt lat="-27.2744391" lon="151.290064">
  <ele>343.09</ele>
  <time>2026-09-01T19:53:58Z</time>
  <course>10.71</course>
  <speed>0.01</speed>
  <fix>3d</fix>
</trkpt>
<trkpt lat="-27.274439" lon="151.290064">
  <ele>343.1</ele>
  <time>2026-09-01T19:53:58Z</time>
  <course>270.0</course>
  <speed>0.0</speed>
  <fix>3d</fix>
</trkpt>
<trkpt lat="-27.2744391" lon="151.290064">
  <ele>343.09</ele>
  <time>2026-09-01T19:53:58Z</time>
  <course>10.71</course>
  <speed>0.01414213562373095</speed>
  <fix>3d</fix>
</trkpt>
<trkpt lat="-27.274439" lon="151.290064">
  <ele>343.1</ele>
  <time>2026-09-01T19:53:58Z</time>
  <course>270.0</course>
  <speed>0.0</speed>
  <fix>3d</fix>
</trkpt>
<trkpt lat="-27.2744391" lon="151.290064">
  <ele>343.09</ele>
  <time>2026-09-01T19:53:58Z</time>
  <course>10.71</course>
  <speed>0.01414213562373095</speed>
  <fix>3d</fix>
</trkpt>
<trkpt lat="-27.274439" lon="151.290064">
  <ele>343.1</ele>
  <time>2026-09-01T19:53:58Z</time>
  <course>270.0</course>
  <speed>0.0</speed>
  <fix>3d</fix>
</trkpt>
<trkpt lat="-27.2744391" lon="151.290064">
  <ele>343.09</ele>
  <time>2026-09-01T19:53:58Z</time>
  <course>10.71</course>
  <speed>0.01414213562373095</speed>
  <fix>3d</fix>
</trkpt>
<trkpt lat="-27.274439" lon="151.290064">
  <ele>343.1</ele>
  <time>2026-09-01T19:53:58Z</time>
  <course>270.0</course>
  <speed>0.0</speed>
  <fix>3d</fix>
</trkpt>
<trkpt lat="-27.2744391" lon="151.290064">
  <ele>343.09</ele>
  <time>2026-09-01T19:53:58Z</time>
  <course>10.71</course>
  <speed>0.01414213562373095</speed>
  <fix>3d</fix>
</trkpt>
<trkpt lat="-27.274439" lon="151.290064">
  <ele>343.1</ele>
  <time>2026-09-01T19:53:58Z</time>
  <course>270.0</course>
  <speed>0.0</speed>
  <fix>3d</fix>
</trkpt>
<trkpt lat="-27.2744391" lon="151.290064">
  <ele>343.09</ele>
  <time>2026-09-01T19:53:58Z</time>
  <course>10.71</course>
  <speed>0.01414213562373095</speed>
  <fix>3d</fix>
</trkpt>
<trkpt lat="-27.274439" lon="151.290064">
  <ele>343.1</ele>
  <time>2026-09-01T19:53:58Z</time>
  <course>270.0</course>
  <speed>0.0</speed>
  <fix>3d</fix>
</trkpt>
<trkpt lat="-27.2744391" lon="151.290064">
  <ele>343.08</ele>
  <time>2026-09-01T19:53:58Z</time>
  <course>10.71</course>
  <speed>0.01414213562373095</speed>
  <fix>3d</fix>
</trkpt>
<trkpt lat="-27.274439" lon="151.290064">
  <ele>343.1</ele>
  <time>2026-09-01T19:53:58Z</time>
  <course>270.0</course>
  <speed>0.0</speed>
  <fix>3d</fix>
</trkpt>
<trkpt lat="-27.2744391" lon="151.290064">
  <ele>343.08</ele>
  <time>2026-09-01T19:53:58Z</time>
  <course>10.71</course>
  <speed>0.01414213562373095</speed>
  <fix>3d</fix>
</trkpt>
<trkpt lat="-27.274439" lon="151.290064">
  <ele>343.1</ele>
  <time>2026-09-01T19:53:58Z</time>
  <course>270.0</course>
  <speed>0.0</speed>
  <fix>3d</fix>
</trkpt>
<trkpt lat="-27.2744391" lon="151.290064">
  <ele>343.08</ele>
  <time>2026-09-01T19:53:58Z</time>
  <course>10.71</course>
  <speed>0.01414213562373095</speed>
  <fix>3d</fix>
</trkpt>
<trkpt lat="-27.274439" lon="151.290064">
  <ele>343.1</ele>
  <time>2026-09-01T19:53:58Z</time>
  <course>270.0</course>
  <speed>0.0</speed>
  <fix>3d</fix>
</trkpt>
<trkpt lat="-27.2744391" lon="151.290064">
  <ele>343.08</ele>
  <time>2026-09-01T19:53:58Z</time>
  <course>10.71</course>
  <speed>0.01414213562373095</speed>
  <fix>3d</fix>
</trkpt>
<trkpt lat="-27.274439" lon="151.290064">
  <ele>343.1</ele>
  <time>2026-09-01T19:53:58Z</time>
  <course>270.0</course>
  <speed>0.0</speed>
  <fix>3d</fix>
</trkpt>
<trkpt lat="-27.2744391" lon="151.290064">
  <ele>343.08</ele>
  <time>2026-09-01T19:53:58Z</time>
  <course>10.71</course>
  <speed>0.01414213562373095</speed>
  <fix>3d</fix>
</trkpt>
<trkpt lat="-27.274439" lon="151.290064">
  <ele>343.1</ele>
  <time>2026-09-01T19:53:58Z</time>
  <course>270.0</course>
  <speed>0.0</speed>
  <fix>3d</fix>
</trkpt>
<trkpt lat="-27.2744391" lon="151.290064">
  <ele>343.07</ele>
  <time>2026-09-01T19:53:58Z</time>
  <course>10.71</course>
  <speed>0.01414213562373095</speed>
  <fix>3d</fix>
</trkpt>
<trkpt lat="-27.274439" lon="151.290064">
  <ele>343.1</ele>
  <time>2026-09-01T19:53:58Z</time>
  <course>270.0</course>
  <speed>0.0</speed>
  <fix>3d</fix>
</trkpt>
<trkpt lat="-27.2744391" lon="151.290064">
  <ele>343.07</ele>
  <time>2026-09-01T19:53:58Z</time>
  <course>10.71</course>
  <speed>0.01414213562373095</speed>
  <fix>3d</fix>
</trkpt>
<trkpt lat="-27.274439" lon="151.290064">
  <ele>343.1</ele>
  <time>2026-09-01T19:53:58Z</time>
  <course>270.0</course>
  <speed>0.0</speed>
  <fix>3d</fix>
</trkpt>
<trkpt lat="-27.2744391" lon="151.290064">
  <ele>343.07</ele>
  <time>2026-09-01T19:53:58Z</time>
  <course>10.71</course>
  <speed>0.01414213562373095</speed>
  <fix>3d</fix>
</trkpt>
<trkpt lat="-27.274439" lon="151.290064">
  <ele>343.1</ele>
  <time>2026-09-01T19:53:58Z</time>
  <course>270.0</course>
  <speed>0.0</speed>
  <fix>3d</fix>
</trkpt>
<trkpt lat="-27.2744391" lon="151.290064">
  <ele>343.07</ele>
  <time>2026-09-01T19:53:58Z</time>
  <course>10.71</course>
  <speed>0.01414213562373095</speed>
  <fix>3d</fix>
</trkpt>
<trkpt lat="-27.274439" lon="151.290064">
  <ele>343.1</ele>
  <time>2026-09-01T19:53:58Z</time>
  <course>270.0</course>
  <speed>0.0</speed>
  <fix>3d</fix>
</trkpt>
<trkpt lat="-27.2744391" lon="151.290064">
  <ele>343.07</ele>
  <time>2026-09-01T19:53:58Z</time>
  <course>10.71</course>
  <speed>0.01414213562373095</speed>
  <fix>3d</fix>
</trkpt>
<trkpt lat="-27.274439" lon="151.290064">
  <ele>343.1</ele>
  <time>2026-09-01T19:53:58Z</time>
  <course>270.0</course>
  <speed>0.0</speed>
  <fix>3d</fix>
</trkpt>
<trkpt lat="-27.2744391" lon="151.290064">
  <ele>343.07</ele>
  <time>2026-09-01T19:53:58Z</time>
  <course>10.71</course>
  <speed>0.01414213562373095</speed>
  <fix>3d</fix>
</trkpt>
<trkpt lat="-27.274439" lon="151.290064">
  <ele>343.1</ele>
  <time>2026-09-01T19:53:58Z</time>
  <course>270.0</course>
  <speed>0.0</speed>
  <fix>3d</fix>
</trkpt>
<trkpt lat="-27.2744391" lon="151.290064">
  <ele>343.07</ele>
  <time>2026-09-01T19:53:58Z</time>
  <course>10.71</course>
  <speed>0.01414213562373095</speed>
  <fix>3d</fix>
</trkpt>
<trkpt lat="-27.274439" lon="151.290064">
  <ele>343.1</ele>
  <time>2026-09-01T19:53:58Z</time>
  <course>270.0</course>
  <speed>0.0</speed>
  <fix>3d</fix>
</trkpt>
<trkpt lat="-27.2744391" lon="151.290064">
  <ele>343.07</ele>
  <time>2026-09-01T19:53:58Z</time>
  <course>10.71</course>
  <speed>0.01414213562373095</speed>
  <fix>3d</fix>
</trkpt>
<trkpt lat="-27.274439" lon="151.290064">
  <ele>343.1</ele>
  <time>2026-09-01T19:53:58Z</time>
  <course>270.0</course>
  <speed>0.0</speed>
  <fix>3d</fix>
</trkpt>
<trkpt lat="-27.2744391" lon="151.290064">
  <ele>343.07</ele>
  <time>2026-09-01T19:53:58Z</time>
  <course>10.71</course>
  <speed>0.01414213562373095</speed>
  <fix>3d</fix>
</trkpt>
<trkpt lat="-27.274439" lon="151.290064">
  <ele>343.1</ele>
  <time>2026-09-01T19:53:58Z</time>
  <course>270.0</course>
  <speed>0.0</speed>
  <fix>3d</fix>
</trkpt>
<trkpt lat="-27.2744391" lon="151.290064">
  <ele>343.07</ele>
  <time>2026-09-01T19:53:58Z</time>
  <course>10.71</course>
  <speed>0.01414213562373095</speed>
  <fix>3d</fix>
</trkpt>
<trkpt lat="-27.274439" lon="151.290064">
  <ele>343.1</ele>
  <time>2026-09-01T19:53:58Z</time>
  <course>270.0</course>
  <speed>0.0</speed>
  <fix>3d</fix>
</trkpt>
<trkpt lat="-27.2744391" lon="151.290064">
  <ele>343.06</ele>
  <time>2026-09-01T19:53:58Z</time>
  <course>10.71</course>
  <speed>0.01414213562373095</speed>
  <fix>3d</fix>
</trkpt>
<trkpt lat="-27.274439" lon="151.290064">
  <ele>343.1</ele>
  <time>2026-09-01T19:53:58Z</time>
  <course>270.0</course>
  <speed>0.0</speed>
  <fix>3d</fix>
</trkpt>
<trkpt lat="-27.2744391" lon="151.290064">
  <ele>343.06</ele>
  <time>2026-09-01T19:53:58Z</time>
  <course>10.71</course>
  <speed>0.01414213562373095</speed>
  <fix>3d</fix>
</trkpt>
<trkpt lat="-27.274439" lon="151.290064">
  <ele>343.1</ele>
  <time>2026-09-01T19:53:58Z</time>
  <course>270.0</course>
  <speed>0.0</speed>
  <fix>3d</fix>
</trkpt>
<trkpt lat="-27.2744391" lon="151.290064">
  <ele>343.06</ele>
  <time>2026-09-01T19:53:58Z</time>
  <course>10.71</course>
  <speed>0.01414213562373095</speed>
  <fix>3d</fix>
</trkpt>
<trkpt lat="-27.274439" lon="151.290064">
  <ele>343.1</ele>
  <time>2026-09-01T19:53:58Z</time>
  <course>270.0</course>
  <speed>0.0</speed>
  <fix>3d</fix>
</trkpt>
<trkpt lat="-27.2744391" lon="151.290064">
  <ele>343.06</ele>
  <time>2026-09-01T19:53:58Z</time>
  <course>10.71</course>
  <speed>0.01414213562373095</speed>
  <fix>3d</fix>
</trkpt>
<trkpt lat="-27.274439" lon="151.290064">
  <ele>343.1</ele>
  <time>2026-09-01T19:53:58Z</time>
  <course>270.0</course>
  <speed>0.0</speed>
  <fix>3d</fix>
</trkpt>
<trkpt lat="-27.2744391" lon="151.290064">
  <ele>343.06</ele>
  <time>2026-09-01T19:53:58Z</time>
  <course>10.71</course>
  <speed>0.01414213562373095</speed>
  <fix>3d</fix>
</trkpt>
<trkpt lat="-27.274439" lon="151.290064">
  <ele>343.1</ele>
  <time>2026-09-01T19:53:58Z</time>
  <course>270.0</course>
  <speed>0.0</speed>
  <fix>3d</fix>
</trkpt>
<trkpt lat="-27.2744391" lon="151.290064">
  <ele>343.06</ele>
  <time>2026-09-01T19:53:58Z</time>
  <course>10.71</course>
  <speed>0.01414213562373095</speed>
  <fix>3d</fix>
</trkpt>
<trkpt lat="-27.274439" lon="151.290064">
  <ele>343.1</ele>
  <time>2026-09-01T19:53:58Z</time>
  <course>270.0</course>
  <speed>0.0</speed>
  <fix>3d</fix>
</trkpt>
<trkpt lat="-27.2744391" lon="151.290064">
  <ele>343.07</ele>
  <time>2026-09-01T19:53:58Z</time>
  <course>10.71</course>
  <speed>0.01414213562373095</speed>
  <fix>3d</fix>
</trkpt>
<trkpt lat="-27.274439" lon="151.290064">
  <ele>343.1</ele>
  <time>2026-09-01T19:53:58Z</time>
  <course>270.0</course>
  <speed>0.0</speed>
  <fix>3d</fix>
</trkpt>
<trkpt lat="-27.2744391" lon="151.290064">
  <ele>343.07</ele>
  <time>2026-09-01T19:53:58Z</time>
  <course>10.71</course>
  <speed>0.01414213562373095</speed>
  <fix>3d</fix>
</trkpt>
<trkpt lat="-27.274439" lon="151.290064">
  <ele>343.1</ele>
  <time>2026-09-01T19:53:58Z</time>
  <course>270.0</course>
  <speed>0.0</speed>
  <fix>3d</fix>
</trkpt>
<trkpt lat="-27.2744391" lon="151.2900641">
  <ele>343.07</ele>
  <time>2026-09-01T19:53:58Z</time>
  <course>10.71</course>
  <speed>0.01414213562373095</speed>
  <fix>3d</fix>
</trkpt>
<trkpt lat="-27.274439" lon="151.290064">
  <ele>343.1</ele>
  <time>2026-09-01T19:53:58Z</time>
  <course>270.0</course>
  <speed>0.0</speed>
  <fix>3d</fix>
</trkpt>
<trkpt lat="-27.2744391" lon="151.290064">
  <ele>343.07</ele>
  <time>2026-09-01T19:53:58Z</time>
  <course>10.71</course>
  <speed>0.01414213562373095</speed>
  <fix>3d</fix>
</trkpt>
<trkpt lat="-27.274439" lon="151.290064">
  <ele>343.1</ele>
  <time>2026-09-01T19:53:58Z</time>
  <course>270.0</course>
  <speed>0.0</speed>
  <fix>3d</fix>
</trkpt>
<trkpt lat="-27.2744391" lon="151.2900641">
  <ele>343.07</ele>
  <time>2026-09-01T19:53:58Z</time>
  <course>10.71</course>
  <speed>0.01414213562373095</speed>
  <fix>3d</fix>
</trkpt>
<trkpt lat="-27.274439" lon="151.290064">
  <ele>343.1</ele>
  <time>2026-09-01T19:53:58Z</time>
  <course>270.0</course>
  <speed>0.0</speed>
  <fix>3d</fix>
</trkpt>
<trkpt lat="-27.2744391" lon="151.290064">
  <ele>343.06</ele>
  <time>2026-09-01T19:53:58Z</time>
  <course>10.71</course>
  <speed>0.01414213562373095</speed>
  <fix>3d</fix>
</trkpt>
<trkpt lat="-27.274439" lon="151.290064">
  <ele>343.1</ele>
  <time>2026-09-01T19:53:58Z</time>
  <course>270.0</course>
  <speed>0.0</speed>
  <fix>3d</fix>
</trkpt>
<trkpt lat="-27.2744391" lon="151.2900641">
  <ele>343.06</ele>
  <time>2026-09-01T19:53:58Z</time>
  <course>10.71</course>
  <speed>0.01414213562373095</speed>
  <fix>3d</fix>
</trkpt>
<trkpt lat="-27.274439" lon="151.290064">
  <ele>343.1</ele>
  <time>2026-09-01T19:53:58Z</time>
  <course>270.0</course>
  <speed>0.0</speed>
  <fix>3d</fix>
</trkpt>
<trkpt lat="-27.2744391" lon="151.290064">
  <ele>343.06</ele>
  <time>2026-09-01T19:53:58Z</time>
  <course>10.71</course>
  <speed>0.01414213562373095</speed>
  <fix>3d</fix>
</trkpt>
<trkpt lat="-27.274439" lon="151.290064">
  <ele>343.1</ele>
  <time>2026-09-01T19:53:58Z</time>
  <course>270.0</course>
  <speed>0.0</speed>
  <fix>3d</fix>
</trkpt>
<trkpt lat="-27.2744391" lon="151.2900641">
  <ele>343.06</ele>
  <time>2026-09-01T19:53:58Z</time>
  <course>10.71</course>
  <speed>0.01414213562373095</speed>
  <fix>3d</fix>
</trkpt>
<trkpt lat="-27.274439" lon="151.290064">
  <ele>343.1</ele>
  <time>2026-09-01T19:53:58Z</time>
  <course>270.0</course>
  <speed>0.0</speed>
  <fix>3d</fix>
</trkpt>
<trkpt lat="-27.2744391" lon="151.2900641">
  <ele>343.05</ele>
  <time>2026-09-01T19:53:58Z</time>
  <course>10.71</course>
  <speed>0.01414213562373095</speed>
  <fix>3d</fix>
</trkpt>
<trkpt lat="-27.274439" lon="151.290064">
  <ele>343.1</ele>
  <time>2026-09-01T19:53:58Z</time>
  <course>270.0</course>
  <speed>0.0</speed>
  <fix>3d</fix>
</trkpt>
<trkpt lat="-27.2744391" lon="151.2900641">
  <ele>343.05</ele>
  <time>2026-09-01T19:53:58Z</time>
  <course>10.71</course>
  <speed>0.01414213562373095</speed>
  <fix>3d</fix>
</trkpt>
<trkpt lat="-27.274439" lon="151.290064">
  <ele>343.1</ele>
  <time>2026-09-01T19:53:58Z</time>
  <course>270.0</course>
  <speed>0.0</speed>
  <fix>3d</fix>
</trkpt>
<trkpt lat="-27.2744391" lon="151.2900641">
  <ele>343.05</ele>
  <time>2026-09-01T19:53:58Z</time>
  <course>10.71</course>
  <speed>0.01414213562373095</speed>
  <fix>3d</fix>
</trkpt>
<trkpt lat="-27.274439" lon="151.290064">
  <ele>343.1</ele>
  <time>2026-09-01T19:53:58Z</time>
  <course>270.0</course>
  <speed>0.0</speed>
  <fix>3d</fix>
</trkpt>
<trkpt lat="-27.2744391" lon="151.2900641">
  <ele>343.04</ele>
  <time>2026-09-01T19:53:58Z</time>
  <course>10.71</course>
  <speed>0.01414213562373095</speed>
  <fix>3d</fix>
</trkpt>
<trkpt lat="-27.274439" lon="151.290064">
  <ele>343.1</ele>
  <time>2026-09-01T19:53:58Z</time>
  <course>270.0</course>
  <speed>0.0</speed>
  <fix>3d</fix>
</trkpt>
<trkpt lat="-27.2744391" lon="151.2900641">
  <ele>343.04</ele>
  <time>2026-09-01T19:53:58Z</time>
  <course>10.71</course>
  <speed>0.01414213562373095</speed>
  <fix>3d</fix>
</trkpt>
<trkpt lat="-27.274439" lon="151.290064">
  <ele>343.1</ele>
  <time>2026-09-01T19:53:58Z</time>
  <course>270.0</course>
  <speed>0.0</speed>
  <fix>3d</fix>
</trkpt>
<trkpt lat="-27.2744391" lon="151.2900641">
  <ele>343.04</ele>
  <time>2026-09-01T19:53:58Z</time>
  <course>10.71</course>
  <speed>0.01414213562373095</speed>
  <fix>3d</fix>
</trkpt>
<trkpt lat="-27.274439" lon="151.290064">
  <ele>343.1</ele>
  <time>2026-09-01T19:53:58Z</time>
  <course>270.0</course>
  <speed>0.0</speed>
  <fix>3d</fix>
</trkpt>
<trkpt lat="-27.2744391" lon="151.2900641">
  <ele>343.04</ele>
  <time>2026-09-01T19:53:58Z</time>
  <course>10.71</course>
  <speed>0.01414213562373095</speed>
  <fix>3d</fix>
</trkpt>
<trkpt lat="-27.274439" lon="151.290064">
  <ele>343.1</ele>
  <time>2026-09-01T19:53:58Z</time>
  <course>270.0</course>
  <speed>0.0</speed>
  <fix>3d</fix>
</trkpt>
<trkpt lat="-27.2744391" lon="151.2900641">
  <ele>343.04</ele>
  <time>2026-09-01T19:53:58Z</time>
  <course>10.71</course>
  <speed>0.01414213562373095</speed>
  <fix>3d</fix>
</trkpt>
<trkpt lat="-27.274439" lon="151.290064">
  <ele>343.1</ele>
  <time>2026-09-01T19:53:58Z</time>
  <course>270.0</course>
  <speed>0.0</speed>
  <fix>3d</fix>
</trkpt>
<trkpt lat="-27.2744391" lon="151.2900641">
  <ele>343.04</ele>
  <time>2026-09-01T19:53:58Z</time>
  <course>10.71</course>
  <speed>0.01414213562373095</speed>
  <fix>3d</fix>
</trkpt>
<trkpt lat="-27.274439" lon="151.290064">
  <ele>343.1</ele>
  <time>2026-09-01T19:53:58Z</time>
  <course>270.0</course>
  <speed>0.0</speed>
  <fix>3d</fix>
</trkpt>
<trkpt lat="-27.2744391" lon="151.2900641">
  <ele>343.04</ele>
  <time>2026-09-01T19:53:58Z</time>
  <course>10.71</course>
  <speed>0.01414213562373095</speed>
  <fix>3d</fix>
</trkpt>
<trkpt lat="-27.274439" lon="151.290064">
  <ele>343.1</ele>
  <time>2026-09-01T19:53:58Z</time>
  <course>270.0</course>
  <speed>0.0</speed>
  <fix>3d</fix>
</trkpt>
<trkpt lat="-27.2744391" lon="151.2900641">
  <ele>343.04</ele>
  <time>2026-09-01T19:53:58Z</time>
  <course>10.71</course>
  <speed>0.01414213562373095</speed>
  <fix>3d</fix>
</trkpt>
<trkpt lat="-27.274439" lon="151.290064">
  <ele>343.1</ele>
  <time>2026-09-01T19:53:58Z</time>
  <course>270.0</course>
  <speed>0.0</speed>
  <fix>3d</fix>
</trkpt>
<trkpt lat="-27.2744391" lon="151.2900641">
  <ele>343.04</ele>
  <time>2026-09-01T19:53:58Z</time>
  <course>10.71</course>
  <speed>0.01414213562373095</speed>
  <fix>3d</fix>
</trkpt>
<trkpt lat="-27.274439" lon="151.290064">
  <ele>343.1</ele>
  <time>2026-09-01T19:53:58Z</time>
  <course>270.0</course>
  <speed>0.0</speed>
  <fix>3d</fix>
</trkpt>
<trkpt lat="-27.2744391" lon="151.2900641">
  <ele>343.04</ele>
  <time>2026-09-01T19:53:58Z</time>
  <course>10.71</course>
  <speed>0.01414213562373095</speed>
  <fix>3d</fix>
</trkpt>
<trkpt lat="-27.274439" lon="151.290064">
  <ele>343.1</ele>
  <time>2026-09-01T19:53:58Z</time>
  <course>270.0</course>
  <speed>0.0</speed>
  <fix>3d</fix>
</trkpt>
<trkpt lat="-27.2744391" lon="151.2900641">
  <ele>343.03</ele>
  <time>2026-09-01T19:53:58Z</time>
  <course>10.71</course>
  <speed>0.01414213562373095</speed>
  <fix>3d</fix>
</trkpt>
<trkpt lat="-27.274439" lon="151.290064">
  <ele>343.1</ele>
  <time>2026-09-01T19:53:58Z</time>
  <course>270.0</course>
  <speed>0.0</speed>
  <fix>3d</fix>
</trkpt>
<trkpt lat="-27.2744391" lon="151.2900641">
  <ele>343.03</ele>
  <time>2026-09-01T19:53:58Z</time>
  <course>10.71</course>
  <speed>0.01414213562373095</speed>
  <fix>3d</fix>
</trkpt>
<trkpt lat="-27.274439" lon="151.290064">
  <ele>343.1</ele>
  <time>2026-09-01T19:53:58Z</time>
  <course>270.0</course>
  <speed>0.0</speed>
  <fix>3d</fix>
</trkpt>
<trkpt lat="-27.2744391" lon="151.2900641">
  <ele>343.03</ele>
  <time>2026-09-01T19:53:58Z</time>
  <course>10.72</course>
  <speed>0.01414213562373095</speed>
  <fix>3d</fix>
</trkpt>
<trkpt lat="-27.274439" lon="151.290064">
  <ele>343.1</ele>
  <time>2026-09-01T19:53:58Z</time>
  <course>270.0</course>
  <speed>0.0</speed>
  <fix>3d</fix>
</trkpt>
<trkpt lat="-27.2744391" lon="151.2900641">
  <ele>343.03</ele>
  <time>2026-09-01T19:53:58Z</time>
  <course>10.72</course>
  <speed>0.01414213562373095</speed>
  <fix>3d</fix>
</trkpt>
<trkpt lat="-27.274439" lon="151.290064">
  <ele>343.1</ele>
  <time>2026-09-01T19:53:58Z</time>
  <course>270.0</course>
  <speed>0.0</speed>
  <fix>3d</fix>
</trkpt>
<trkpt lat="-27.2744391" lon="151.2900641">
  <ele>343.03</ele>
  <time>2026-09-01T19:53:58Z</time>
  <course>10.72</course>
  <speed>0.01414213562373095</speed>
  <fix>3d</fix>
</trkpt>
<trkpt lat="-27.274439" lon="151.290064">
  <ele>343.1</ele>
  <time>2026-09-01T19:53:58Z</time>
  <course>270.0</course>
  <speed>0.0</speed>
  <fix>3d</fix>
</trkpt>
<trkpt lat="-27.2744391" lon="151.2900641">
  <ele>343.03</ele>
  <time>2026-09-01T19:53:58Z</time>
  <course>10.72</course>
  <speed>0.01414213562373095</speed>
  <fix>3d</fix>
</trkpt>
<trkpt lat="-27.274439" lon="151.290064">
  <ele>343.1</ele>
  <time>2026-09-01T19:53:58Z</time>
  <course>270.0</course>
  <speed>0.0</speed>
  <fix>3d</fix>
</trkpt>
<trkpt lat="-27.2744391" lon="151.2900641">
  <ele>343.03</ele>
  <time>2026-09-01T19:53:58Z</time>
  <course>10.72</course>
  <speed>0.01414213562373095</speed>
  <fix>3d</fix>
</trkpt>
<trkpt lat="-27.274439" lon="151.290064">
  <ele>343.1</ele>
  <time>2026-09-01T19:53:58Z</time>
  <course>270.0</course>
  <speed>0.0</speed>
  <fix>3d</fix>
</trkpt>
<trkpt lat="-27.2744391" lon="151.2900641">
  <ele>343.1</ele>
  <time>2026-09-01T19:53:58Z</time>
  <course>10.72</course>
  <speed>0.01414213562373095</speed>
  <fix>3d</fix>
</trkpt>
<trkpt lat="-27.274439" lon="151.290064">
  <ele>343.1</ele>
  <time>2026-09-01T19:53:58Z</time>
  <course>270.0</course>
  <speed>0.0</speed>
  <fix>3d</fix>
</trkpt>
<trkpt lat="-27.2744391" lon="151.2900641">
  <ele>343.09</ele>
  <time>2026-09-01T19:53:58Z</time>
  <course>10.72</course>
  <speed>0.01414213562373095</speed>
  <fix>3d</fix>
</trkpt>
<trkpt lat="-27.274439" lon="151.290064">
  <ele>343.1</ele>
  <time>2026-09-01T19:53:58Z</time>
  <course>270.0</course>
  <speed>0.0</speed>
  <fix>3d</fix>
</trkpt>
<trkpt lat="-27.2744391" lon="151.2900641">
  <ele>343.09</ele>
  <time>2026-09-01T19:53:58Z</time>
  <course>10.72</course>
  <speed>0.01414213562373095</speed>
  <fix>3d</fix>
</trkpt>
<trkpt lat="-27.274439" lon="151.290064">
  <ele>343.1</ele>
  <time>2026-09-01T19:53:58Z</time>
  <course>270.0</course>
  <speed>0.0</speed>
  <fix>3d</fix>
</trkpt>
<trkpt lat="-27.2744391" lon="151.2900641">
  <ele>343.09</ele>
  <time>2026-09-01T19:53:58Z</time>
  <course>10.72</course>
  <speed>0.01414213562373095</speed>
  <fix>3d</fix>
</trkpt>
<trkpt lat="-27.274439" lon="151.290064">
  <ele>343.1</ele>
  <time>2026-09-01T19:53:58Z</time>
  <course>270.0</course>
  <speed>0.0</speed>
  <fix>3d</fix>
</trkpt>
<trkpt lat="-27.2744391" lon="151.2900641">
  <ele>343.09</ele>
  <time>2026-09-01T19:53:58Z</time>
  <course>10.72</course>
  <speed>0.01414213562373095</speed>
  <fix>3d</fix>
</trkpt>
<trkpt lat="-27.274439" lon="151.290064">
  <ele>343.1</ele>
  <time>2026-09-01T19:53:58Z</time>
  <course>270.0</course>
  <speed>0.0</speed>
  <fix>3d</fix>
</trkpt>
<trkpt lat="-27.2744391" lon="151.2900641">
  <ele>343.09</ele>
  <time>2026-09-01T19:53:58Z</time>
  <course>10.72</course>
  <speed>0.01414213562373095</speed>
  <fix>3d</fix>
</trkpt>
<trkpt lat="-27.274439" lon="151.290064">
  <ele>343.1</ele>
  <time>2026-09-01T19:53:58Z</time>
  <course>270.0</course>
  <speed>0.0</speed>
  <fix>3d</fix>
</trkpt>
<trkpt lat="-27.2744391" lon="151.2900641">
  <ele>343.08</ele>
  <time>2026-09-01T19:53:58Z</time>
  <course>10.72</course>
  <speed>0.01414213562373095</speed>
  <fix>3d</fix>
</trkpt>
<trkpt lat="-27.274439" lon="151.290064">
  <ele>343.1</ele>
  <time>2026-09-01T19:53:58Z</time>
  <course>270.0</course>
  <speed>0.0</speed>
  <fix>3d</fix>
</trkpt>
<trkpt lat="-27.2744391" lon="151.2900641">
  <ele>343.08</ele>
  <time>2026-09-01T19:53:58Z</time>
  <course>10.72</course>
  <speed>0.01414213562373095</speed>
  <fix>3d</fix>
</trkpt>
<trkpt lat="-27.274439" lon="151.290064">
  <ele>343.1</ele>
  <time>2026-09-01T19:53:58Z</time>
  <course>270.0</course>
  <speed>0.0</speed>
  <fix>3d</fix>
</trkpt>
<trkpt lat="-27.2744391" lon="151.2900641">
  <ele>343.07</ele>
  <time>2026-09-01T19:53:58Z</time>
  <course>10.72</course>
  <speed>0.01414213562373095</speed>
  <fix>3d</fix>
</trkpt>
<trkpt lat="-27.274439" lon="151.290064">
  <ele>343.1</ele>
  <time>2026-09-01T19:53:58Z</time>
  <course>270.0</course>
  <speed>0.0</speed>
  <fix>3d</fix>
</trkpt>
<trkpt lat="-27.2744391" lon="151.2900641">
  <ele>343.07</ele>
  <time>2026-09-01T19:53:58Z</time>
  <course>10.72</course>
  <speed>0.01414213562373095</speed>
  <fix>3d</fix>
</trkpt>
<trkpt lat="-27.274439" lon="151.290064">
  <ele>343.1</ele>
  <time>2026-09-01T19:53:58Z</time>
  <course>270.0</course>
  <speed>0.0</speed>
  <fix>3d</fix>
</trkpt>
<trkpt lat="-27.2744391" lon="151.2900641">
  <ele>343.07</ele>
  <time>2026-09-01T19:53:58Z</time>
  <course>10.72</course>
  <speed>0.01414213562373095</speed>
  <fix>3d</fix>
</trkpt>
<trkpt lat="-27.274439" lon="151.290064">
  <ele>343.1</ele>
  <time>2026-09-01T19:53:58Z</time>
  <course>270.0</course>
  <speed>0.0</speed>
  <fix>3d</fix>
</trkpt>
<trkpt lat="-27.2744391" lon="151.2900641">
  <ele>343.06</ele>
  <time>2026-09-01T19:53:58Z</time>
  <course>10.72</course>
  <speed>0.01414213562373095</speed>
  <fix>3d</fix>
</trkpt>
<trkpt lat="-27.274439" lon="151.290064">
  <ele>343.1</ele>
  <time>2026-09-01T19:53:58Z</time>
  <course>270.0</course>
  <speed>0.0</speed>
  <fix>3d</fix>
</trkpt>
<trkpt lat="-27.2744391" lon="151.2900641">
  <ele>343.06</ele>
  <time>2026-09-01T19:53:58Z</time>
  <course>10.72</course>
  <speed>0.01414213562373095</speed>
  <fix>3d</fix>
</trkpt>
<trkpt lat="-27.274439" lon="151.290064">
  <ele>343.1</ele>
  <time>2026-09-01T19:53:58Z</time>
  <course>270.0</course>
  <speed>0.0</speed>
  <fix>3d</fix>
</trkpt>
<trkpt lat="-27.2744391" lon="151.2900641">
  <ele>343.05</ele>
  <time>2026-09-01T19:53:58Z</time>
  <course>10.72</course>
  <speed>0.01414213562373095</speed>
  <fix>3d</fix>
</trkpt>
<trkpt lat="-27.274439" lon="151.290064">
  <ele>343.1</ele>
  <time>2026-09-01T19:53:58Z</time>
  <course>270.0</course>
  <speed>0.0</speed>
  <fix>3d</fix>
</trkpt>
<trkpt lat="-27.2744391" lon="151.2900641">
  <ele>343.05</ele>
  <time>2026-09-01T19:53:58Z</time>
  <course>10.72</course>
  <speed>0.01414213562373095</speed>
  <fix>3d</fix>
</trkpt>
<trkpt lat="-27.274439" lon="151.290064">
  <ele>343.1</ele>
  <time>2026-09-01T19:53:58Z</time>
  <course>270.0</course>
  <speed>0.0</speed>
  <fix>3d</fix>
</trkpt>
<trkpt lat="-27.2744391" lon="151.2900641">
  <ele>343.05</ele>
  <time>2026-09-01T19:53:58Z</time>
  <course>10.72</course>
  <speed>0.01414213562373095</speed>
  <fix>3d</fix>
</trkpt>
<trkpt lat="-27.274439" lon="151.290064">
  <ele>343.1</ele>
  <time>2026-09-01T19:53:58Z</time>
  <course>270.0</course>
  <speed>0.0</speed>
  <fix>3d</fix>
</trkpt>
<trkpt lat="-27.2744391" lon="151.2900641">
  <ele>343.04</ele>
  <time>2026-09-01T19:53:58Z</time>
  <course>10.72</course>
  <speed>0.01414213562373095</speed>
  <fix>3d</fix>
</trkpt>
<trkpt lat="-27.274439" lon="151.290064">
  <ele>343.1</ele>
  <time>2026-09-01T19:53:58Z</time>
  <course>270.0</course>
  <speed>0.0</speed>
  <fix>3d</fix>
</trkpt>
<trkpt lat="-27.2744391" lon="151.2900641">
  <ele>343.04</ele>
  <time>2026-09-01T19:53:58Z</time>
  <course>10.72</course>
  <speed>0.01414213562373095</speed>
  <fix>3d</fix>
</trkpt>
<trkpt lat="-27.274439" lon="151.290064">
  <ele>343.1</ele>
  <time>2026-09-01T19:53:58Z</time>
  <course>270.0</course>
  <speed>0.0</speed>
  <fix>3d</fix>
</trkpt>
<trkpt lat="-27.2744391" lon="151.2900641">
  <ele>343.03</ele>
  <time>2026-09-01T19:53:58Z</time>
  <course>10.72</course>
  <speed>0.01414213562373095</speed>
  <fix>3d</fix>
</trkpt>
<trkpt lat="-27.274439" lon="151.290064">
  <ele>343.1</ele>
  <time>2026-09-01T19:53:58Z</time>
  <course>270.0</course>
  <speed>0.0</speed>
  <fix>3d</fix>
</trkpt>
<trkpt lat="-27.2744391" lon="151.2900641">
  <ele>343.03</ele>
  <time>2026-09-01T19:53:58Z</time>
  <course>10.72</course>
  <speed>0.01414213562373095</speed>
  <fix>3d</fix>
</trkpt>
<trkpt lat="-27.274439" lon="151.290064">
  <ele>343.1</ele>
  <time>2026-09-01T19:53:58Z</time>
  <course>270.0</course>
  <speed>0.0</speed>
  <fix>3d</fix>
</trkpt>
<trkpt lat="-27.2744391" lon="151.2900641">
  <ele>343.02</ele>
  <time>2026-09-01T19:53:58Z</time>
  <course>10.72</course>
  <speed>0.01414213562373095</speed>
  <fix>3d</fix>
</trkpt>
<trkpt lat="-27.274439" lon="151.290064">
  <ele>343.1</ele>
  <time>2026-09-01T19:53:58Z</time>
  <course>270.0</course>
  <speed>0.0</speed>
  <fix>3d</fix>
</trkpt>
<trkpt lat="-27.2744391" lon="151.2900641">
  <ele>343.02</ele>
  <time>2026-09-01T19:53:58Z</time>
  <course>10.72</course>
  <speed>0.01414213562373095</speed>
  <fix>3d</fix>
</trkpt>
<trkpt lat="-27.274439" lon="151.290064">
  <ele>343.1</ele>
  <time>2026-09-01T19:53:58Z</time>
  <course>270.0</course>
  <speed>0.0</speed>
  <fix>3d</fix>
</trkpt>
<trkpt lat="-27.2744391" lon="151.2900641">
  <ele>343.02</ele>
  <time>2026-09-01T19:53:58Z</time>
  <course>10.72</course>
  <speed>0.01414213562373095</speed>
  <fix>3d</fix>
</trkpt>
<trkpt lat="-27.274439" lon="151.290064">
  <ele>343.1</ele>
  <time>2026-09-01T19:53:58Z</time>
  <course>270.0</course>
  <speed>0.0</speed>
  <fix>3d</fix>
</trkpt>
<trkpt lat="-27.2744391" lon="151.2900641">
  <ele>343.02</ele>
  <time>2026-09-01T19:53:58Z</time>
  <course>10.72</course>
  <speed>0.01414213562373095</speed>
  <fix>3d</fix>
</trkpt>
<trkpt lat="-27.274439" lon="151.290064">
  <ele>343.1</ele>
  <time>2026-09-01T19:53:58Z</time>
  <course>270.0</course>
  <speed>0.0</speed>
  <fix>3d</fix>
</trkpt>
<trkpt lat="-27.2744391" lon="151.2900641">
  <ele>343.02</ele>
  <time>2026-09-01T19:53:58Z</time>
  <course>10.72</course>
  <speed>0.01414213562373095</speed>
  <fix>3d</fix>
</trkpt>
<trkpt lat="-27.274439" lon="151.290064">
  <ele>343.1</ele>
  <time>2026-09-01T19:53:58Z</time>
  <course>270.0</course>
  <speed>0.0</speed>
  <fix>3d</fix>
</trkpt>
<trkpt lat="-27.2744391" lon="151.2900641">
  <ele>343.02</ele>
  <time>2026-09-01T19:53:58Z</time>
  <course>10.72</course>
  <speed>0.01414213562373095</speed>
  <fix>3d</fix>
</trkpt>
<trkpt lat="-27.274439" lon="151.290064">
  <ele>343.1</ele>
  <time>2026-09-01T19:53:58Z</time>
  <course>270.0</course>
  <speed>0.0</speed>
  <fix>3d</fix>
</trkpt>
<trkpt lat="-27.2744391" lon="151.2900641">
  <ele>343.01</ele>
  <time>2026-09-01T19:53:58Z</time>
  <course>10.72</course>
  <speed>0.01414213562373095</speed>
  <fix>3d</fix>
</trkpt>
<trkpt lat="-27.274439" lon="151.290064">
  <ele>343.1</ele>
  <time>2026-09-01T19:53:58Z</time>
  <course>270.0</course>
  <speed>0.0</speed>
  <fix>3d</fix>
</trkpt>
<trkpt lat="-27.2744391" lon="151.2900641">
  <ele>343.01</ele>
  <time>2026-09-01T19:53:58Z</time>
  <course>10.72</course>
  <speed>0.01414213562373095</speed>
  <fix>3d</fix>
</trkpt>
<trkpt lat="-27.274439" lon="151.290064">
  <ele>343.1</ele>
  <time>2026-09-01T19:53:58Z</time>
  <course>270.0</course>
  <speed>0.0</speed>
  <fix>3d</fix>
</trkpt>
<trkpt lat="-27.2744391" lon="151.2900641">
  <ele>343.0</ele>
  <time>2026-09-01T19:53:58Z</time>
  <course>10.72</course>
  <speed>0.01414213562373095</speed>
  <fix>3d</fix>
</trkpt>
<trkpt lat="-27.274439" lon="151.290064">
  <ele>343.1</ele>
  <time>2026-09-01T19:53:58Z</time>
  <course>270.0</course>
  <speed>0.0</speed>
  <fix>3d</fix>
</trkpt>
<trkpt lat="-27.2744391" lon="151.2900641">
  <ele>343.0</ele>
  <time>2026-09-01T19:53:58Z</time>
  <course>10.73</course>
  <speed>0.01414213562373095</speed>
  <fix>3d</fix>
</trkpt>
<trkpt lat="-27.274439" lon="151.290064">
  <ele>343.1</ele>
  <time>2026-09-01T19:53:58Z</time>
  <course>270.0</course>
  <speed>0.0</speed>
  <fix>3d</fix>
</trkpt>
<trkpt lat="-27.2744391" lon="151.2900641">
  <ele>343.0</ele>
  <time>2026-09-01T19:53:58Z</time>
  <course>10.73</course>
  <speed>0.01414213562373095</speed>
  <fix>3d</fix>
</trkpt>
<trkpt lat="-27.274439" lon="151.290064">
  <ele>343.1</ele>
  <time>2026-09-01T19:53:58Z</time>
  <course>270.0</course>
  <speed>0.0</speed>
  <fix>3d</fix>
</trkpt>
<trkpt lat="-27.2744391" lon="151.2900641">
  <ele>342.99</ele>
  <time>2026-09-01T19:53:58Z</time>
  <course>10.73</course>
  <speed>0.01414213562373095</speed>
  <fix>3d</fix>
</trkpt>
<trkpt lat="-27.274439" lon="151.290064">
  <ele>343.1</ele>
  <time>2026-09-01T19:53:58Z</time>
  <course>270.0</course>
  <speed>0.0</speed>
  <fix>3d</fix>
</trkpt>
<trkpt lat="-27.2744391" lon="151.2900641">
  <ele>342.99</ele>
  <time>2026-09-01T19:53:58Z</time>
  <course>10.73</course>
  <speed>0.01414213562373095</speed>
  <fix>3d</fix>
</trkpt>
<trkpt lat="-27.274439" lon="151.290064">
  <ele>343.1</ele>
  <time>2026-09-01T19:53:58Z</time>
  <course>270.0</course>
  <speed>0.0</speed>
  <fix>3d</fix>
</trkpt>
<trkpt lat="-27.2744391" lon="151.2900641">
  <ele>342.99</ele>
  <time>2026-09-01T19:53:58Z</time>
  <course>10.73</course>
  <speed>0.01414213562373095</speed>
  <fix>3d</fix>
</trkpt>
<trkpt lat="-27.274439" lon="151.290064">
  <ele>343.1</ele>
  <time>2026-09-01T19:53:58Z</time>
  <course>270.0</course>
  <speed>0.0</speed>
  <fix>3d</fix>
</trkpt>
<trkpt lat="-27.2744391" lon="151.2900641">
  <ele>342.99</ele>
  <time>2026-09-01T19:53:58Z</time>
  <course>10.73</course>
  <speed>0.01414213562373095</speed>
  <fix>3d</fix>
</trkpt>
<trkpt lat="-27.274439" lon="151.290064">
  <ele>343.1</ele>
  <time>2026-09-01T19:53:58Z</time>
  <course>270.0</course>
  <speed>0.0</speed>
  <fix>3d</fix>
</trkpt>
<trkpt lat="-27.2744391" lon="151.2900641">
  <ele>342.99</ele>
  <time>2026-09-01T19:53:58Z</time>
  <course>10.73</course>
  <speed>0.01414213562373095</speed>
  <fix>3d</fix>
</trkpt>
<trkpt lat="-27.274439" lon="151.290064">
  <ele>343.1</ele>
  <time>2026-09-01T19:53:58Z</time>
  <course>270.0</course>
  <speed>0.0</speed>
  <fix>3d</fix>
</trkpt>
<trkpt lat="-27.2744391" lon="151.2900641">
  <ele>342.98</ele>
  <time>2026-09-01T19:53:58Z</time>
  <course>10.73</course>
  <speed>0.01414213562373095</speed>
  <fix>3d</fix>
</trkpt>
<trkpt lat="-27.274439" lon="151.290064">
  <ele>343.1</ele>
  <time>2026-09-01T19:53:58Z</time>
  <course>270.0</course>
  <speed>0.0</speed>
  <fix>3d</fix>
</trkpt>
<trkpt lat="-27.2744391" lon="151.2900641">
  <ele>342.98</ele>
  <time>2026-09-01T19:53:58Z</time>
  <course>10.73</course>
  <speed>0.01414213562373095</speed>
  <fix>3d</fix>
</trkpt>
<trkpt lat="-27.274439" lon="151.290064">
  <ele>343.1</ele>
  <time>2026-09-01T19:53:58Z</time>
  <course>270.0</course>
  <speed>0.0</speed>
  <fix>3d</fix>
</trkpt>
<trkpt lat="-27.2744391" lon="151.2900641">
  <ele>342.98</ele>
  <time>2026-09-01T19:53:58Z</time>
  <course>10.73</course>
  <speed>0.01414213562373095</speed>
  <fix>3d</fix>
</trkpt>
<trkpt lat="-27.274439" lon="151.290064">
  <ele>343.1</ele>
  <time>2026-09-01T19:53:58Z</time>
  <course>270.0</course>
  <speed>0.0</speed>
  <fix>3d</fix>
</trkpt>
<trkpt lat="-27.2744391" lon="151.2900641">
  <ele>342.98</ele>
  <time>2026-09-01T19:53:58Z</time>
  <course>10.73</course>
  <speed>0.01414213562373095</speed>
  <fix>3d</fix>
</trkpt>
<trkpt lat="-27.274439" lon="151.290064">
  <ele>343.1</ele>
  <time>2026-09-01T19:53:58Z</time>
  <course>270.0</course>
  <speed>0.0</speed>
  <fix>3d</fix>
</trkpt>
<trkpt lat="-27.2744391" lon="151.2900641">
  <ele>342.98</ele>
  <time>2026-09-01T19:53:58Z</time>
  <course>10.73</course>
  <speed>0.01414213562373095</speed>
  <fix>3d</fix>
</trkpt>
<trkpt lat="-27.274439" lon="151.290064">
  <ele>343.1</ele>
  <time>2026-09-01T19:53:58Z</time>
  <course>270.0</course>
  <speed>0.0</speed>
  <fix>3d</fix>
</trkpt>
<trkpt lat="-27.2744391" lon="151.2900641">
  <ele>342.98</ele>
  <time>2026-09-01T19:53:58Z</time>
  <course>10.73</course>
  <speed>0.01414213562373095</speed>
  <fix>3d</fix>
</trkpt>
<trkpt lat="-27.274439" lon="151.290064">
  <ele>343.1</ele>
  <time>2026-09-01T19:53:58Z</time>
  <course>270.0</course>
  <speed>0.0</speed>
  <fix>3d</fix>
</trkpt>
<trkpt lat="-27.2744391" lon="151.2900641">
  <ele>342.98</ele>
  <time>2026-09-01T19:53:58Z</time>
  <course>10.73</course>
  <speed>0.01414213562373095</speed>
  <fix>3d</fix>
</trkpt>
<trkpt lat="-27.274439" lon="151.290064">
  <ele>343.1</ele>
  <time>2026-09-01T19:53:58Z</time>
  <course>270.0</course>
  <speed>0.0</speed>
  <fix>3d</fix>
</trkpt>
<trkpt lat="-27.2744391" lon="151.2900641">
  <ele>342.98</ele>
  <time>2026-09-01T19:53:58Z</time>
  <course>10.73</course>
  <speed>0.01414213562373095</speed>
  <fix>3d</fix>
</trkpt>
<trkpt lat="-27.274439" lon="151.290064">
  <ele>343.1</ele>
  <time>2026-09-01T19:53:58Z</time>
  <course>270.0</course>
  <speed>0.0</speed>
  <fix>3d</fix>
</trkpt>
<trkpt lat="-27.2744391" lon="151.2900641">
  <ele>342.98</ele>
  <time>2026-09-01T19:53:58Z</time>
  <course>10.73</course>
  <speed>0.01414213562373095</speed>
  <fix>3d</fix>
</trkpt>
<trkpt lat="-27.274439" lon="151.290064">
  <ele>343.1</ele>
  <time>2026-09-01T19:53:58Z</time>
  <course>270.0</course>
  <speed>0.0</speed>
  <fix>3d</fix>
</trkpt>
<trkpt lat="-27.2744391" lon="151.2900641">
  <ele>342.98</ele>
  <time>2026-09-01T19:53:58Z</time>
  <course>10.73</course>
  <speed>0.01414213562373095</speed>
  <fix>3d</fix>
</trkpt>
<trkpt lat="-27.274439" lon="151.290064">
  <ele>343.1</ele>
  <time>2026-09-01T19:53:58Z</time>
  <course>270.0</course>
  <speed>0.0</speed>
  <fix>3d</fix>
</trkpt>
<trkpt lat="-27.2744391" lon="151.2900641">
  <ele>342.98</ele>
  <time>2026-09-01T19:53:58Z</time>
  <course>10.73</course>
  <speed>0.01414213562373095</speed>
  <fix>3d</fix>
</trkpt>
<trkpt lat="-27.274439" lon="151.290064">
  <ele>343.1</ele>
  <time>2026-09-01T19:53:58Z</time>
  <course>270.0</course>
  <speed>0.0</speed>
  <fix>3d</fix>
</trkpt>
<trkpt lat="-27.2744391" lon="151.2900641">
  <ele>342.97</ele>
  <time>2026-09-01T19:53:58Z</time>
  <course>10.73</course>
  <speed>0.01414213562373095</speed>
  <fix>3d</fix>
</trkpt>
<trkpt lat="-27.274439" lon="151.290064">
  <ele>343.1</ele>
  <time>2026-09-01T19:53:58Z</time>
  <course>270.0</course>
  <speed>0.0</speed>
  <fix>3d</fix>
</trkpt>
<trkpt lat="-27.2744391" lon="151.2900641">
  <ele>342.97</ele>
  <time>2026-09-01T19:53:58Z</time>
  <course>10.73</course>
  <speed>0.01414213562373095</speed>
  <fix>3d</fix>
</trkpt>
<trkpt lat="-27.274439" lon="151.290064">
  <ele>343.1</ele>
  <time>2026-09-01T19:53:58Z</time>
  <course>270.0</course>
  <speed>0.0</speed>
  <fix>3d</fix>
</trkpt>
<trkpt lat="-27.2744391" lon="151.2900641">
  <ele>342.97</ele>
  <time>2026-09-01T19:53:58Z</time>
  <course>10.73</course>
  <speed>0.01414213562373095</speed>
  <fix>3d</fix>
</trkpt>
<trkpt lat="-27.274439" lon="151.290064">
  <ele>343.1</ele>
  <time>2026-09-01T19:53:58Z</time>
  <course>270.0</course>
  <speed>0.0</speed>
  <fix>3d</fix>
</trkpt>
<trkpt lat="-27.2744391" lon="151.2900641">
  <ele>342.96</ele>
  <time>2026-09-01T19:53:58Z</time>
  <course>10.73</course>
  <speed>0.01414213562373095</speed>
  <fix>3d</fix>
</trkpt>
<trkpt lat="-27.274439" lon="151.290064">
  <ele>343.1</ele>
  <time>2026-09-01T19:53:58Z</time>
  <course>270.0</course>
  <speed>0.0</speed>
  <fix>3d</fix>
</trkpt>
<trkpt lat="-27.2744391" lon="151.2900641">
  <ele>342.96</ele>
  <time>2026-09-01T19:53:58Z</time>
  <course>10.73</course>
  <speed>0.01414213562373095</speed>
  <fix>3d</fix>
</trkpt>
<trkpt lat="-27.274439" lon="151.290064">
  <ele>343.1</ele>
  <time>2026-09-01T19:53:58Z</time>
  <course>270.0</course>
  <speed>0.0</speed>
  <fix>3d</fix>
</trkpt>
<trkpt lat="-27.2744391" lon="151.2900641">
  <ele>342.96</ele>
  <time>2026-09-01T19:53:58Z</time>
  <course>10.73</course>
  <speed>0.01414213562373095</speed>
  <fix>3d</fix>
</trkpt>
<trkpt lat="-27.274439" lon="151.290064">
  <ele>343.1</ele>
  <time>2026-09-01T19:53:58Z</time>
  <course>270.0</course>
  <speed>0.0</speed>
  <fix>3d</fix>
</trkpt>
<trkpt lat="-27.2744391" lon="151.2900641">
  <ele>342.96</ele>
  <time>2026-09-01T19:53:58Z</time>
  <course>10.73</course>
  <speed>0.01414213562373095</speed>
  <fix>3d</fix>
</trkpt>
<trkpt lat="-27.274439" lon="151.290064">
  <ele>343.1</ele>
  <time>2026-09-01T19:53:58Z</time>
  <course>270.0</course>
  <speed>0.0</speed>
  <fix>3d</fix>
</trkpt>
<trkpt lat="-27.2744391" lon="151.2900641">
  <ele>342.95</ele>
  <time>2026-09-01T19:53:58Z</time>
  <course>10.73</course>
  <speed>0.01414213562373095</speed>
  <fix>3d</fix>
</trkpt>
<trkpt lat="-27.274439" lon="151.290064">
  <ele>343.1</ele>
  <time>2026-09-01T19:53:58Z</time>
  <course>270.0</course>
  <speed>0.0</speed>
  <fix>3d</fix>
</trkpt>
<trkpt lat="-27.2744391" lon="151.2900641">
  <ele>342.95</ele>
  <time>2026-09-01T19:53:58Z</time>
  <course>10.73</course>
  <speed>0.01414213562373095</speed>
  <fix>3d</fix>
</trkpt>
<trkpt lat="-27.274439" lon="151.290064">
  <ele>343.1</ele>
  <time>2026-09-01T19:53:58Z</time>
  <course>270.0</course>
  <speed>0.0</speed>
  <fix>3d</fix>
</trkpt>
<trkpt lat="-27.2744391" lon="151.2900641">
  <ele>342.95</ele>
  <time>2026-09-01T19:53:58Z</time>
  <course>10.73</course>
  <speed>0.01414213562373095</speed>
  <fix>3d</fix>
</trkpt>
<trkpt lat="-27.274439" lon="151.290064">
  <ele>343.1</ele>
  <time>2026-09-01T19:53:58Z</time>
  <course>270.0</course>
  <speed>0.0</speed>
  <fix>3d</fix>
</trkpt>
<trkpt lat="-27.2744391" lon="151.2900641">
  <ele>342.95</ele>
  <time>2026-09-01T19:53:58Z</time>
  <course>10.73</course>
  <speed>0.01414213562373095</speed>
  <fix>3d</fix>
</trkpt>
<trkpt lat="-27.274439" lon="151.290064">
  <ele>343.1</ele>
  <time>2026-09-01T19:53:58Z</time>
  <course>270.0</course>
  <speed>0.0</speed>
  <fix>3d</fix>
</trkpt>
<trkpt lat="-27.2744391" lon="151.2900641">
  <ele>342.95</ele>
  <time>2026-09-01T19:53:58Z</time>
  <course>10.73</course>
  <speed>0.01414213562373095</speed>
  <fix>3d</fix>
</trkpt>
<trkpt lat="-27.274439" lon="151.290064">
  <ele>343.1</ele>
  <time>2026-09-01T19:53:58Z</time>
  <course>270.0</course>
  <speed>0.0</speed>
  <fix>3d</fix>
</trkpt>
<trkpt lat="-27.2744391" lon="151.2900641">
  <ele>342.95</ele>
  <time>2026-09-01T19:53:58Z</time>
  <course>10.73</course>
  <speed>0.01414213562373095</speed>
  <fix>3d</fix>
</trkpt>
<trkpt lat="-27.274439" lon="151.290064">
  <ele>343.1</ele>
  <time>2026-09-01T19:53:58Z</time>
  <course>270.0</course>
  <speed>0.0</speed>
  <fix>3d</fix>
</trkpt>
<trkpt lat="-27.2744391" lon="151.2900641">
  <ele>343.1</ele>
  <time>2026-09-01T19:53:58Z</time>
  <course>10.73</course>
  <speed>0.01414213562373095</speed>
  <fix>3d</fix>
</trkpt>
<trkpt lat="-27.274439" lon="151.290064">
  <ele>343.1</ele>
  <time>2026-09-01T19:53:58Z</time>
  <course>270.0</course>
  <speed>0.0</speed>
  <fix>3d</fix>
</trkpt>
<trkpt lat="-27.2744391" lon="151.2900641">
  <ele>343.09</ele>
  <time>2026-09-01T19:53:58Z</time>
  <course>10.74</course>
  <speed>0.01414213562373095</speed>
  <fix>3d</fix>
</trkpt>
<trkpt lat="-27.274439" lon="151.290064">
  <ele>343.1</ele>
  <time>2026-09-01T19:53:58Z</time>
  <course>270.0</course>
  <speed>0.0</speed>
  <fix>3d</fix>
</trkpt>
<trkpt lat="-27.2744391" lon="151.2900641">
  <ele>343.09</ele>
  <time>2026-09-01T19:53:58Z</time>
  <course>10.74</course>
  <speed>0.01414213562373095</speed>
  <fix>3d</fix>
</trkpt>
<trkpt lat="-27.274439" lon="151.290064">
  <ele>343.1</ele>
  <time>2026-09-01T19:53:58Z</time>
  <course>270.0</course>
  <speed>0.0</speed>
  <fix>3d</fix>
</trkpt>
<trkpt lat="-27.2744391" lon="151.2900641">
  <ele>343.09</ele>
  <time>2026-09-01T19:53:58Z</time>
  <course>10.74</course>
  <speed>0.01414213562373095</speed>
  <fix>3d</fix>
</trkpt>
<trkpt lat="-27.274439" lon="151.290064">
  <ele>343.1</ele>
  <time>2026-09-01T19:53:58Z</time>
  <course>270.0</course>
  <speed>0.0</speed>
  <fix>3d</fix>
</trkpt>
<trkpt lat="-27.2744391" lon="151.2900641">
  <ele>343.09</ele>
  <time>2026-09-01T19:53:58Z</time>
  <course>10.74</course>
  <speed>0.01414213562373095</speed>
  <fix>3d</fix>
</trkpt>
<trkpt lat="-27.274439" lon="151.290064">
  <ele>343.1</ele>
  <time>2026-09-01T19:53:58Z</time>
  <course>270.0</course>
  <speed>0.0</speed>
  <fix>3d</fix>
</trkpt>
<trkpt lat="-27.2744391" lon="151.2900641">
  <ele>343.09</ele>
  <time>2026-09-01T19:53:58Z</time>
  <course>10.74</course>
  <speed>0.01414213562373095</speed>
  <fix>3d</fix>
</trkpt>
<trkpt lat="-27.274439" lon="151.290064">
  <ele>343.1</ele>
  <time>2026-09-01T19:53:58Z</time>
  <course>270.0</course>
  <speed>0.0</speed>
  <fix>3d</fix>
</trkpt>
<trkpt lat="-27.2744391" lon="151.2900641">
  <ele>343.08</ele>
  <time>2026-09-01T19:53:58Z</time>
  <course>10.74</course>
  <speed>0.01414213562373095</speed>
  <fix>3d</fix>
</trkpt>
<trkpt lat="-27.274439" lon="151.290064">
  <ele>343.1</ele>
  <time>2026-09-01T19:53:58Z</time>
  <course>270.0</course>
  <speed>0.0</speed>
  <fix>3d</fix>
</trkpt>
<trkpt lat="-27.2744391" lon="151.2900641">
  <ele>343.08</ele>
  <time>2026-09-01T19:53:58Z</time>
  <course>10.74</course>
  <speed>0.01414213562373095</speed>
  <fix>3d</fix>
</trkpt>
<trkpt lat="-27.274439" lon="151.290064">
  <ele>343.1</ele>
  <time>2026-09-01T19:53:58Z</time>
  <course>270.0</course>
  <speed>0.0</speed>
  <fix>3d</fix>
</trkpt>
<trkpt lat="-27.2744391" lon="151.2900641">
  <ele>343.08</ele>
  <time>2026-09-01T19:53:58Z</time>
  <course>10.74</course>
  <speed>0.01414213562373095</speed>
  <fix>3d</fix>
</trkpt>
<trkpt lat="-27.274439" lon="151.290064">
  <ele>343.1</ele>
  <time>2026-09-01T19:53:58Z</time>
  <course>270.0</course>
  <speed>0.0</speed>
  <fix>3d</fix>
</trkpt>
<trkpt lat="-27.2744391" lon="151.2900641">
  <ele>343.07</ele>
  <time>2026-09-01T19:53:58Z</time>
  <course>10.74</course>
  <speed>0.01414213562373095</speed>
  <fix>3d</fix>
</trkpt>
<trkpt lat="-27.274439" lon="151.290064">
  <ele>343.1</ele>
  <time>2026-09-01T19:53:58Z</time>
  <course>270.0</course>
  <speed>0.0</speed>
  <fix>3d</fix>
</trkpt>
<trkpt lat="-27.2744391" lon="151.2900641">
  <ele>343.07</ele>
  <time>2026-09-01T19:53:58Z</time>
  <course>10.74</course>
  <speed>0.01414213562373095</speed>
  <fix>3d</fix>
</trkpt>
<trkpt lat="-27.274439" lon="151.290064">
  <ele>343.1</ele>
  <time>2026-09-01T19:53:58Z</time>
  <course>270.0</course>
  <speed>0.0</speed>
  <fix>3d</fix>
</trkpt>
<trkpt lat="-27.2744391" lon="151.2900641">
  <ele>343.07</ele>
  <time>2026-09-01T19:53:58Z</time>
  <course>10.74</course>
  <speed>0.01414213562373095</speed>
  <fix>3d</fix>
</trkpt>
<trkpt lat="-27.274439" lon="151.290064">
  <ele>343.1</ele>
  <time>2026-09-01T19:53:58Z</time>
  <course>270.0</course>
  <speed>0.0</speed>
  <fix>3d</fix>
</trkpt>
<trkpt lat="-27.2744391" lon="151.2900641">
  <ele>343.07</ele>
  <time>2026-09-01T19:53:58Z</time>
  <course>10.74</course>
  <speed>0.01414213562373095</speed>
  <fix>3d</fix>
</trkpt>
<trkpt lat="-27.274439" lon="151.290064">
  <ele>343.1</ele>
  <time>2026-09-01T19:53:58Z</time>
  <course>270.0</course>
  <speed>0.0</speed>
  <fix>3d</fix>
</trkpt>
<trkpt lat="-27.2744391" lon="151.2900641">
  <ele>343.06</ele>
  <time>2026-09-01T19:53:58Z</time>
  <course>10.74</course>
  <speed>0.01414213562373095</speed>
  <fix>3d</fix>
</trkpt>
<trkpt lat="-27.274439" lon="151.290064">
  <ele>343.1</ele>
  <time>2026-09-01T19:53:58Z</time>
  <course>270.0</course>
  <speed>0.0</speed>
  <fix>3d</fix>
</trkpt>
<trkpt lat="-27.2744391" lon="151.2900641">
  <ele>343.06</ele>
  <time>2026-09-01T19:53:58Z</time>
  <course>10.74</course>
  <speed>0.01414213562373095</speed>
  <fix>3d</fix>
</trkpt>
<trkpt lat="-27.274439" lon="151.290064">
  <ele>343.1</ele>
  <time>2026-09-01T19:53:58Z</time>
  <course>270.0</course>
  <speed>0.0</speed>
  <fix>3d</fix>
</trkpt>
<trkpt lat="-27.2744391" lon="151.2900641">
  <ele>343.06</ele>
  <time>2026-09-01T19:53:58Z</time>
  <course>10.74</course>
  <speed>0.01414213562373095</speed>
  <fix>3d</fix>
</trkpt>
<trkpt lat="-27.274439" lon="151.290064">
  <ele>343.1</ele>
  <time>2026-09-01T19:53:58Z</time>
  <course>270.0</course>
  <speed>0.0</speed>
  <fix>3d</fix>
</trkpt>
<trkpt lat="-27.2744391" lon="151.2900641">
  <ele>343.06</ele>
  <time>2026-09-01T19:53:58Z</time>
  <course>10.74</course>
  <speed>0.01414213562373095</speed>
  <fix>3d</fix>
</trkpt>
<trkpt lat="-27.274439" lon="151.290064">
  <ele>343.1</ele>
  <time>2026-09-01T19:53:58Z</time>
  <course>270.0</course>
  <speed>0.0</speed>
  <fix>3d</fix>
</trkpt>
<trkpt lat="-27.2744391" lon="151.2900641">
  <ele>343.06</ele>
  <time>2026-09-01T19:53:58Z</time>
  <course>10.74</course>
  <speed>0.022360679774997897</speed>
  <fix>3d</fix>
</trkpt>
<trkpt lat="-27.274439" lon="151.290064">
  <ele>343.1</ele>
  <time>2026-09-01T19:53:58Z</time>
  <course>270.0</course>
  <speed>0.0</speed>
  <fix>3d</fix>
</trkpt>
<trkpt lat="-27.2744391" lon="151.2900641">
  <ele>343.06</ele>
  <time>2026-09-01T19:53:58Z</time>
  <course>10.74</course>
  <speed>0.01414213562373095</speed>
  <fix>3d</fix>
</trkpt>
<trkpt lat="-27.274439" lon="151.290064">
  <ele>343.1</ele>
  <time>2026-09-01T19:53:58Z</time>
  <course>270.0</course>
  <speed>0.0</speed>
  <fix>3d</fix>
</trkpt>
<trkpt lat="-27.2744391" lon="151.2900641">
  <ele>343.06</ele>
  <time>2026-09-01T19:53:58Z</time>
  <course>10.74</course>
  <speed>0.022360679774997897</speed>
  <fix>3d</fix>
</trkpt>
<trkpt lat="-27.274439" lon="151.290064">
  <ele>343.1</ele>
  <time>2026-09-01T19:53:58Z</time>
  <course>270.0</course>
  <speed>0.0</speed>
  <fix>3d</fix>
</trkpt>
<trkpt lat="-27.2744391" lon="151.2900641">
  <ele>343.06</ele>
  <time>2026-09-01T19:53:58Z</time>
  <course>10.74</course>
  <speed>0.022360679774997897</speed>
  <fix>3d</fix>
</trkpt>
<trkpt lat="-27.274439" lon="151.290064">
  <ele>343.1</ele>
  <time>2026-09-01T19:53:58Z</time>
  <course>270.0</course>
  <speed>0.0</speed>
  <fix>3d</fix>
</trkpt>
<trkpt lat="-27.2744391" lon="151.2900641">
  <ele>343.06</ele>
  <time>2026-09-01T19:53:58Z</time>
  <course>10.74</course>
  <speed>0.022360679774997897</speed>
  <fix>3d</fix>
</trkpt>
<trkpt lat="-27.274439" lon="151.290064">
  <ele>343.1</ele>
  <time>2026-09-01T19:53:58Z</time>
  <course>270.0</course>
  <speed>0.0</speed>
  <fix>3d</fix>
</trkpt>
<trkpt lat="-27.2744391" lon="151.2900641">
  <ele>343.06</ele>
  <time>2026-09-01T19:53:58Z</time>
  <course>10.74</course>
  <speed>0.022360679774997897</speed>
  <fix>3d</fix>
</trkpt>
<trkpt lat="-27.274439" lon="151.290064">
  <ele>343.1</ele>
  <time>2026-09-01T19:53:58Z</time>
  <course>270.0</course>
  <speed>0.0</speed>
  <fix>3d</fix>
</trkpt>
<trkpt lat="-27.2744391" lon="151.2900641">
  <ele>343.06</ele>
  <time>2026-09-01T19:53:58Z</time>
  <course>10.74</course>
  <speed>0.022360679774997897</speed>
  <fix>3d</fix>
</trkpt>
<trkpt lat="-27.274439" lon="151.290064">
  <ele>343.1</ele>
  <time>2026-09-01T19:53:58Z</time>
  <course>270.0</course>
  <speed>0.0</speed>
  <fix>3d</fix>
</trkpt>
<trkpt lat="-27.2744391" lon="151.2900641">
  <ele>343.06</ele>
  <time>2026-09-01T19:53:58Z</time>
  <course>10.74</course>
  <speed>0.022360679774997897</speed>
  <fix>3d</fix>
</trkpt>
<trkpt lat="-27.274439" lon="151.290064">
  <ele>343.1</ele>
  <time>2026-09-01T19:53:58Z</time>
  <course>270.0</course>
  <speed>0.0</speed>
  <fix>3d</fix>
</trkpt>
<trkpt lat="-27.2744391" lon="151.2900641">
  <ele>343.06</ele>
  <time>2026-09-01T19:53:58Z</time>
  <course>10.74</course>
  <speed>0.022360679774997897</speed>
  <fix>3d</fix>
</trkpt>
<trkpt lat="-27.274439" lon="151.290064">
  <ele>343.1</ele>
  <time>2026-09-01T19:53:58Z</time>
  <course>270.0</course>
  <speed>0.0</speed>
  <fix>3d</fix>
</trkpt>
<trkpt lat="-27.2744391" lon="151.2900641">
  <ele>343.06</ele>
  <time>2026-09-01T19:53:58Z</time>
  <course>10.74</course>
  <speed>0.022360679774997897</speed>
  <fix>3d</fix>
</trkpt>
<trkpt lat="-27.274439" lon="151.290064">
  <ele>343.1</ele>
  <time>2026-09-01T19:53:58Z</time>
  <course>270.0</course>
  <speed>0.0</speed>
  <fix>3d</fix>
</trkpt>
<trkpt lat="-27.2744391" lon="151.2900641">
  <ele>343.06</ele>
  <time>2026-09-01T19:53:58Z</time>
  <course>10.74</course>
  <speed>0.022360679774997897</speed>
  <fix>3d</fix>
</trkpt>
<trkpt lat="-27.274439" lon="151.290064">
  <ele>343.1</ele>
  <time>2026-09-01T19:53:58Z</time>
  <course>270.0</course>
  <speed>0.0</speed>
  <fix>3d</fix>
</trkpt>
<trkpt lat="-27.2744391" lon="151.2900641">
  <ele>343.05</ele>
  <time>2026-09-01T19:53:58Z</time>
  <course>10.75</course>
  <speed>0.022360679774997897</speed>
  <fix>3d</fix>
</trkpt>
<trkpt lat="-27.274439" lon="151.290064">
  <ele>343.1</ele>
  <time>2026-09-01T19:53:58Z</time>
  <course>270.0</course>
  <speed>0.0</speed>
  <fix>3d</fix>
</trkpt>
<trkpt lat="-27.2744391" lon="151.2900641">
  <ele>343.05</ele>
  <time>2026-09-01T19:53:58Z</time>
  <course>10.75</course>
  <speed>0.022360679774997897</speed>
  <fix>3d</fix>
</trkpt>
<trkpt lat="-27.274439" lon="151.290064">
  <ele>343.1</ele>
  <time>2026-09-01T19:53:58Z</time>
  <course>270.0</course>
  <speed>0.0</speed>
  <fix>3d</fix>
</trkpt>
<trkpt lat="-27.2744391" lon="151.2900641">
  <ele>343.05</ele>
  <time>2026-09-01T19:53:58Z</time>
  <course>10.75</course>
  <speed>0.022360679774997897</speed>
  <fix>3d</fix>
</trkpt>
<trkpt lat="-27.274439" lon="151.290064">
  <ele>343.1</ele>
  <time>2026-09-01T19:53:58Z</time>
  <course>270.0</course>
  <speed>0.0</speed>
  <fix>3d</fix>
</trkpt>
<trkpt lat="-27.2744391" lon="151.2900641">
  <ele>343.04</ele>
  <time>2026-09-01T19:53:58Z</time>
  <course>10.75</course>
  <speed>0.022360679774997897</speed>
  <fix>3d</fix>
</trkpt>
<trkpt lat="-27.274439" lon="151.290064">
  <ele>343.1</ele>
  <time>2026-09-01T19:53:58Z</time>
  <course>270.0</course>
  <speed>0.0</speed>
  <fix>3d</fix>
</trkpt>
<trkpt lat="-27.2744391" lon="151.2900641">
  <ele>343.04</ele>
  <time>2026-09-01T19:53:58Z</time>
  <course>10.75</course>
  <speed>0.022360679774997897</speed>
  <fix>3d</fix>
</trkpt>
<trkpt lat="-27.274439" lon="151.290064">
  <ele>343.1</ele>
  <time>2026-09-01T19:53:58Z</time>
  <course>270.0</course>
  <speed>0.0</speed>
  <fix>3d</fix>
</trkpt>
<trkpt lat="-27.2744391" lon="151.2900641">
  <ele>343.04</ele>
  <time>2026-09-01T19:53:58Z</time>
  <course>10.75</course>
  <speed>0.022360679774997897</speed>
  <fix>3d</fix>
</trkpt>
<trkpt lat="-27.274439" lon="151.290064">
  <ele>343.1</ele>
  <time>2026-09-01T19:53:58Z</time>
  <course>270.0</course>
  <speed>0.0</speed>
  <fix>3d</fix>
</trkpt>
<trkpt lat="-27.2744391" lon="151.2900641">
  <ele>343.04</ele>
  <time>2026-09-01T19:53:58Z</time>
  <course>10.75</course>
  <speed>0.022360679774997897</speed>
  <fix>3d</fix>
</trkpt>
<trkpt lat="-27.274439" lon="151.290064">
  <ele>343.1</ele>
  <time>2026-09-01T19:53:58Z</time>
  <course>270.0</course>
  <speed>0.0</speed>
  <fix>3d</fix>
</trkpt>
<trkpt lat="-27.2744391" lon="151.2900641">
  <ele>343.04</ele>
  <time>2026-09-01T19:53:58Z</time>
  <course>10.75</course>
  <speed>0.022360679774997897</speed>
  <fix>3d</fix>
</trkpt>
<trkpt lat="-27.274439" lon="151.290064">
  <ele>343.1</ele>
  <time>2026-09-01T19:53:58Z</time>
  <course>270.0</course>
  <speed>0.0</speed>
  <fix>3d</fix>
</trkpt>
<trkpt lat="-27.2744391" lon="151.2900641">
  <ele>343.03</ele>
  <time>2026-09-01T19:53:58Z</time>
  <course>10.75</course>
  <speed>0.022360679774997897</speed>
  <fix>3d</fix>
</trkpt>
<trkpt lat="-27.274439" lon="151.290064">
  <ele>343.1</ele>
  <time>2026-09-01T19:53:58Z</time>
  <course>270.0</course>
  <speed>0.0</speed>
  <fix>3d</fix>
</trkpt>
<trkpt lat="-27.2744391" lon="151.2900641">
  <ele>343.03</ele>
  <time>2026-09-01T19:53:58Z</time>
  <course>10.75</course>
  <speed>0.022360679774997897</speed>
  <fix>3d</fix>
</trkpt>
<trkpt lat="-27.274439" lon="151.290064">
  <ele>343.1</ele>
  <time>2026-09-01T19:53:58Z</time>
  <course>270.0</course>
  <speed>0.0</speed>
  <fix>3d</fix>
</trkpt>
<trkpt lat="-27.2744391" lon="151.2900641">
  <ele>343.03</ele>
  <time>2026-09-01T19:53:58Z</time>
  <course>10.75</course>
  <speed>0.022360679774997897</speed>
  <fix>3d</fix>
</trkpt>
<trkpt lat="-27.274439" lon="151.290064">
  <ele>343.1</ele>
  <time>2026-09-01T19:53:58Z</time>
  <course>270.0</course>
  <speed>0.0</speed>
  <fix>3d</fix>
</trkpt>
<trkpt lat="-27.2744391" lon="151.2900641">
  <ele>343.03</ele>
  <time>2026-09-01T19:53:58Z</time>
  <course>10.75</course>
  <speed>0.022360679774997897</speed>
  <fix>3d</fix>
</trkpt>
<trkpt lat="-27.274439" lon="151.290064">
  <ele>343.1</ele>
  <time>2026-09-01T19:53:58Z</time>
  <course>270.0</course>
  <speed>0.0</speed>
  <fix>3d</fix>
</trkpt>
<trkpt lat="-27.2744391" lon="151.2900641">
  <ele>343.03</ele>
  <time>2026-09-01T19:53:58Z</time>
  <course>10.75</course>
  <speed>0.022360679774997897</speed>
  <fix>3d</fix>
</trkpt>
<trkpt lat="-27.274439" lon="151.290064">
  <ele>343.1</ele>
  <time>2026-09-01T19:53:58Z</time>
  <course>270.0</course>
  <speed>0.0</speed>
  <fix>3d</fix>
</trkpt>
<trkpt lat="-27.2744391" lon="151.2900641">
  <ele>343.02</ele>
  <time>2026-09-01T19:53:58Z</time>
  <course>10.75</course>
  <speed>0.022360679774997897</speed>
  <fix>3d</fix>
</trkpt>
<trkpt lat="-27.274439" lon="151.290064">
  <ele>343.1</ele>
  <time>2026-09-01T19:53:58Z</time>
  <course>270.0</course>
  <speed>0.0</speed>
  <fix>3d</fix>
</trkpt>
<trkpt lat="-27.2744391" lon="151.2900641">
  <ele>343.02</ele>
  <time>2026-09-01T19:53:58Z</time>
  <course>10.75</course>
  <speed>0.022360679774997897</speed>
  <fix>3d</fix>
</trkpt>
<trkpt lat="-27.274439" lon="151.290064">
  <ele>343.1</ele>
  <time>2026-09-01T19:53:58Z</time>
  <course>270.0</course>
  <speed>0.0</speed>
  <fix>3d</fix>
</trkpt>
<trkpt lat="-27.2744391" lon="151.2900641">
  <ele>343.02</ele>
  <time>2026-09-01T19:53:58Z</time>
  <course>10.75</course>
  <speed>0.022360679774997897</speed>
  <fix>3d</fix>
</trkpt>
<trkpt lat="-27.274439" lon="151.290064">
  <ele>343.1</ele>
  <time>2026-09-01T19:53:58Z</time>
  <course>270.0</course>
  <speed>0.0</speed>
  <fix>3d</fix>
</trkpt>
<trkpt lat="-27.2744391" lon="151.2900641">
  <ele>343.02</ele>
  <time>2026-09-01T19:53:58Z</time>
  <course>10.75</course>
  <speed>0.022360679774997897</speed>
  <fix>3d</fix>
</trkpt>
<trkpt lat="-27.274439" lon="151.290064">
  <ele>343.1</ele>
  <time>2026-09-01T19:53:58Z</time>
  <course>270.0</course>
  <speed>0.0</speed>
  <fix>3d</fix>
</trkpt>
<trkpt lat="-27.2744391" lon="151.2900641">
  <ele>343.02</ele>
  <time>2026-09-01T19:53:58Z</time>
  <course>10.75</course>
  <speed>0.022360679774997897</speed>
  <fix>3d</fix>
</trkpt>
<trkpt lat="-27.274439" lon="151.290064">
  <ele>343.1</ele>
  <time>2026-09-01T19:53:58Z</time>
  <course>270.0</course>
  <speed>0.0</speed>
  <fix>3d</fix>
</trkpt>
<trkpt lat="-27.2744391" lon="151.2900641">
  <ele>343.02</ele>
  <time>2026-09-01T19:53:58Z</time>
  <course>10.75</course>
  <speed>0.022360679774997897</speed>
  <fix>3d</fix>
</trkpt>
<trkpt lat="-27.274439" lon="151.290064">
  <ele>343.1</ele>
  <time>2026-09-01T19:53:58Z</time>
  <course>270.0</course>
  <speed>0.0</speed>
  <fix>3d</fix>
</trkpt>
<trkpt lat="-27.2744391" lon="151.2900641">
  <ele>343.02</ele>
  <time>2026-09-01T19:53:58Z</time>
  <course>10.75</course>
  <speed>0.022360679774997897</speed>
  <fix>3d</fix>
</trkpt>
<trkpt lat="-27.274439" lon="151.290064">
  <ele>343.1</ele>
  <time>2026-09-01T19:53:58Z</time>
  <course>270.0</course>
  <speed>0.0</speed>
  <fix>3d</fix>
</trkpt>
<trkpt lat="-27.2744391" lon="151.2900641">
  <ele>343.02</ele>
  <time>2026-09-01T19:53:58Z</time>
  <course>10.75</course>
  <speed>0.022360679774997897</speed>
  <fix>3d</fix>
</trkpt>
<trkpt lat="-27.274439" lon="151.290064">
  <ele>343.1</ele>
  <time>2026-09-01T19:53:58Z</time>
  <course>270.0</course>
  <speed>0.0</speed>
  <fix>3d</fix>
</trkpt>
<trkpt lat="-27.2744391" lon="151.2900641">
  <ele>343.02</ele>
  <time>2026-09-01T19:53:58Z</time>
  <course>10.75</course>
  <speed>0.022360679774997897</speed>
  <fix>3d</fix>
</trkpt>
<trkpt lat="-27.274439" lon="151.290064">
  <ele>343.1</ele>
  <time>2026-09-01T19:53:58Z</time>
  <course>270.0</course>
  <speed>0.0</speed>
  <fix>3d</fix>
</trkpt>
<trkpt lat="-27.2744391" lon="151.2900641">
  <ele>343.01</ele>
  <time>2026-09-01T19:53:58Z</time>
  <course>10.75</course>
  <speed>0.022360679774997897</speed>
  <fix>3d</fix>
</trkpt>
<trkpt lat="-27.274439" lon="151.290064">
  <ele>343.1</ele>
  <time>2026-09-01T19:53:58Z</time>
  <course>270.0</course>
  <speed>0.0</speed>
  <fix>3d</fix>
</trkpt>
<trkpt lat="-27.2744391" lon="151.2900641">
  <ele>343.01</ele>
  <time>2026-09-01T19:53:58Z</time>
  <course>10.76</course>
  <speed>0.022360679774997897</speed>
  <fix>3d</fix>
</trkpt>
<trkpt lat="-27.274439" lon="151.290064">
  <ele>343.1</ele>
  <time>2026-09-01T19:53:58Z</time>
  <course>270.0</course>
  <speed>0.0</speed>
  <fix>3d</fix>
</trkpt>
<trkpt lat="-27.2744391" lon="151.2900641">
  <ele>343.01</ele>
  <time>2026-09-01T19:53:58Z</time>
  <course>10.76</course>
  <speed>0.022360679774997897</speed>
  <fix>3d</fix>
</trkpt>
<trkpt lat="-27.274439" lon="151.290064">
  <ele>343.1</ele>
  <time>2026-09-01T19:53:58Z</time>
  <course>270.0</course>
  <speed>0.0</speed>
  <fix>3d</fix>
</trkpt>
<trkpt lat="-27.2744391" lon="151.2900641">
  <ele>343.01</ele>
  <time>2026-09-01T19:53:59Z</time>
  <course>10.76</course>
  <speed>0.022360679774997897</speed>
  <fix>3d</fix>
</trkpt>
<trkpt lat="-27.274439" lon="151.290064">
  <ele>343.1</ele>
  <time>2026-09-01T19:53:59Z</time>
  <course>270.0</course>
  <speed>0.0</speed>
  <fix>3d</fix>
</trkpt>
<trkpt lat="-27.2744391" lon="151.2900641">
  <ele>343.01</ele>
  <time>2026-09-01T19:53:59Z</time>
  <course>10.76</course>
  <speed>0.022360679774997897</speed>
  <fix>3d</fix>
</trkpt>
<trkpt lat="-27.274439" lon="151.290064">
  <ele>343.1</ele>
  <time>2026-09-01T19:53:59Z</time>
  <course>270.0</course>
  <speed>0.0</speed>
  <fix>3d</fix>
</trkpt>
<trkpt lat="-27.2744391" lon="151.2900641">
  <ele>343.01</ele>
  <time>2026-09-01T19:53:59Z</time>
  <course>10.76</course>
  <speed>0.022360679774997897</speed>
  <fix>3d</fix>
</trkpt>
<trkpt lat="-27.274439" lon="151.290064">
  <ele>343.1</ele>
  <time>2026-09-01T19:53:59Z</time>
  <course>270.0</course>
  <speed>0.0</speed>
  <fix>3d</fix>
</trkpt>
<trkpt lat="-27.2744391" lon="151.2900641">
  <ele>343.01</ele>
  <time>2026-09-01T19:53:59Z</time>
  <course>10.76</course>
  <speed>0.022360679774997897</speed>
  <fix>3d</fix>
</trkpt>
<trkpt lat="-27.274439" lon="151.290064">
  <ele>343.1</ele>
  <time>2026-09-01T19:53:59Z</time>
  <course>270.0</course>
  <speed>0.0</speed>
  <fix>3d</fix>
</trkpt>
<trkpt lat="-27.2744391" lon="151.2900641">
  <ele>343.01</ele>
  <time>2026-09-01T19:53:59Z</time>
  <course>10.76</course>
  <speed>0.022360679774997897</speed>
  <fix>3d</fix>
</trkpt>
<trkpt lat="-27.274439" lon="151.290064">
  <ele>343.1</ele>
  <time>2026-09-01T19:53:59Z</time>
  <course>270.0</course>
  <speed>0.0</speed>
  <fix>3d</fix>
</trkpt>
<trkpt lat="-27.2744391" lon="151.2900641">
  <ele>343.0</ele>
  <time>2026-09-01T19:53:59Z</time>
  <course>10.76</course>
  <speed>0.022360679774997897</speed>
  <fix>3d</fix>
</trkpt>
<trkpt lat="-27.274439" lon="151.290064">
  <ele>343.1</ele>
  <time>2026-09-01T19:53:59Z</time>
  <course>270.0</course>
  <speed>0.0</speed>
  <fix>3d</fix>
</trkpt>
<trkpt lat="-27.2744391" lon="151.2900641">
  <ele>343.0</ele>
  <time>2026-09-01T19:53:59Z</time>
  <course>10.76</course>
  <speed>0.022360679774997897</speed>
  <fix>3d</fix>
</trkpt>
<trkpt lat="-27.274439" lon="151.290064">
  <ele>343.1</ele>
  <time>2026-09-01T19:53:59Z</time>
  <course>270.0</course>
  <speed>0.0</speed>
  <fix>3d</fix>
</trkpt>
<trkpt lat="-27.2744391" lon="151.2900641">
  <ele>343.09</ele>
  <time>2026-09-01T19:53:59Z</time>
  <course>10.76</course>
  <speed>0.022360679774997897</speed>
  <fix>3d</fix>
</trkpt>
<trkpt lat="-27.274439" lon="151.290064">
  <ele>343.1</ele>
  <time>2026-09-01T19:53:59Z</time>
  <course>270.0</course>
  <speed>0.0</speed>
  <fix>3d</fix>
</trkpt>
<trkpt lat="-27.2744391" lon="151.2900641">
  <ele>343.09</ele>
  <time>2026-09-01T19:53:59Z</time>
  <course>10.76</course>
  <speed>0.022360679774997897</speed>
  <fix>3d</fix>
</trkpt>
<trkpt lat="-27.274439" lon="151.290064">
  <ele>343.1</ele>
  <time>2026-09-01T19:53:59Z</time>
  <course>270.0</course>
  <speed>0.0</speed>
  <fix>3d</fix>
</trkpt>
<trkpt lat="-27.2744391" lon="151.2900641">
  <ele>343.09</ele>
  <time>2026-09-01T19:53:59Z</time>
  <course>10.76</course>
  <speed>0.022360679774997897</speed>
  <fix>3d</fix>
</trkpt>
<trkpt lat="-27.274439" lon="151.290064">
  <ele>343.1</ele>
  <time>2026-09-01T19:53:59Z</time>
  <course>270.0</course>
  <speed>0.0</speed>
  <fix>3d</fix>
</trkpt>
<trkpt lat="-27.2744391" lon="151.2900641">
  <ele>343.09</ele>
  <time>2026-09-01T19:53:59Z</time>
  <course>10.76</course>
  <speed>0.022360679774997897</speed>
  <fix>3d</fix>
</trkpt>
<trkpt lat="-27.274439" lon="151.290064">
  <ele>343.1</ele>
  <time>2026-09-01T19:53:59Z</time>
  <course>270.0</course>
  <speed>0.0</speed>
  <fix>3d</fix>
</trkpt>
<trkpt lat="-27.2744391" lon="151.2900641">
  <ele>343.09</ele>
  <time>2026-09-01T19:53:59Z</time>
  <course>10.76</course>
  <speed>0.022360679774997897</speed>
  <fix>3d</fix>
</trkpt>
<trkpt lat="-27.274439" lon="151.290064">
  <ele>343.1</ele>
  <time>2026-09-01T19:53:59Z</time>
  <course>270.0</course>
  <speed>0.0</speed>
  <fix>3d</fix>
</trkpt>
<trkpt lat="-27.2744391" lon="151.2900641">
  <ele>343.1</ele>
  <time>2026-09-01T19:53:59Z</time>
  <course>10.76</course>
  <speed>0.022360679774997897</speed>
  <fix>3d</fix>
</trkpt>
<trkpt lat="-27.274439" lon="151.290064">
  <ele>343.1</ele>
  <time>2026-09-01T19:53:59Z</time>
  <course>270.0</course>
  <speed>0.0</speed>
  <fix>3d</fix>
</trkpt>
<trkpt lat="-27.2744391" lon="151.2900641">
  <ele>343.1</ele>
  <time>2026-09-01T19:53:59Z</time>
  <course>10.76</course>
  <speed>0.022360679774997897</speed>
  <fix>3d</fix>
</trkpt>
<trkpt lat="-27.274439" lon="151.290064">
  <ele>343.1</ele>
  <time>2026-09-01T19:53:59Z</time>
  <course>270.0</course>
  <speed>0.0</speed>
  <fix>3d</fix>
</trkpt>
<trkpt lat="-27.2744391" lon="151.2900641">
  <ele>343.1</ele>
  <time>2026-09-01T19:53:59Z</time>
  <course>10.76</course>
  <speed>0.022360679774997897</speed>
  <fix>3d</fix>
</trkpt>
<trkpt lat="-27.274439" lon="151.290064">
  <ele>343.1</ele>
  <time>2026-09-01T19:53:59Z</time>
  <course>270.0</course>
  <speed>0.0</speed>
  <fix>3d</fix>
</trkpt>
<trkpt lat="-27.2744391" lon="151.2900641">
  <ele>343.11</ele>
  <time>2026-09-01T19:53:59Z</time>
  <course>10.76</course>
  <speed>0.022360679774997897</speed>
  <fix>3d</fix>
</trkpt>
<trkpt lat="-27.274439" lon="151.290064">
  <ele>343.1</ele>
  <time>2026-09-01T19:53:59Z</time>
  <course>270.0</course>
  <speed>0.0</speed>
  <fix>3d</fix>
</trkpt>
<trkpt lat="-27.2744391" lon="151.2900641">
  <ele>343.11</ele>
  <time>2026-09-01T19:53:59Z</time>
  <course>10.76</course>
  <speed>0.022360679774997897</speed>
  <fix>3d</fix>
</trkpt>
<trkpt lat="-27.274439" lon="151.290064">
  <ele>343.1</ele>
  <time>2026-09-01T19:53:59Z</time>
  <course>270.0</course>
  <speed>0.0</speed>
  <fix>3d</fix>
</trkpt>
<trkpt lat="-27.2744391" lon="151.2900641">
  <ele>343.12</ele>
  <time>2026-09-01T19:53:59Z</time>
  <course>10.76</course>
  <speed>0.022360679774997897</speed>
  <fix>3d</fix>
</trkpt>
<trkpt lat="-27.274439" lon="151.290064">
  <ele>343.1</ele>
  <time>2026-09-01T19:53:59Z</time>
  <course>270.0</course>
  <speed>0.0</speed>
  <fix>3d</fix>
</trkpt>
<trkpt lat="-27.2744391" lon="151.2900641">
  <ele>343.12</ele>
  <time>2026-09-01T19:53:59Z</time>
  <course>10.76</course>
  <speed>0.022360679774997897</speed>
  <fix>3d</fix>
</trkpt>
<trkpt lat="-27.274439" lon="151.290064">
  <ele>343.1</ele>
  <time>2026-09-01T19:53:59Z</time>
  <course>270.0</course>
  <speed>0.0</speed>
  <fix>3d</fix>
</trkpt>
<trkpt lat="-27.2744391" lon="151.2900641">
  <ele>343.12</ele>
  <time>2026-09-01T19:53:59Z</time>
  <course>10.77</course>
  <speed>0.022360679774997897</speed>
  <fix>3d</fix>
</trkpt>
<trkpt lat="-27.274439" lon="151.290064">
  <ele>343.1</ele>
  <time>2026-09-01T19:53:59Z</time>
  <course>270.0</course>
  <speed>0.0</speed>
  <fix>3d</fix>
</trkpt>
<trkpt lat="-27.2744391" lon="151.2900641">
  <ele>343.13</ele>
  <time>2026-09-01T19:53:59Z</time>
  <course>10.77</course>
  <speed>0.022360679774997897</speed>
  <fix>3d</fix>
</trkpt>
<trkpt lat="-27.274439" lon="151.290064">
  <ele>343.1</ele>
  <time>2026-09-01T19:53:59Z</time>
  <course>270.0</course>
  <speed>0.0</speed>
  <fix>3d</fix>
</trkpt>
<trkpt lat="-27.2744391" lon="151.2900641">
  <ele>343.13</ele>
  <time>2026-09-01T19:53:59Z</time>
  <course>10.77</course>
  <speed>0.022360679774997897</speed>
  <fix>3d</fix>
</trkpt>
<trkpt lat="-27.274439" lon="151.290064">
  <ele>343.1</ele>
  <time>2026-09-01T19:53:59Z</time>
  <course>270.0</course>
  <speed>0.0</speed>
  <fix>3d</fix>
</trkpt>
<trkpt lat="-27.2744391" lon="151.2900641">
  <ele>343.13</ele>
  <time>2026-09-01T19:53:59Z</time>
  <course>10.77</course>
  <speed>0.022360679774997897</speed>
  <fix>3d</fix>
</trkpt>
<trkpt lat="-27.274439" lon="151.290064">
  <ele>343.1</ele>
  <time>2026-09-01T19:53:59Z</time>
  <course>270.0</course>
  <speed>0.0</speed>
  <fix>3d</fix>
</trkpt>
<trkpt lat="-27.2744391" lon="151.2900641">
  <ele>343.14</ele>
  <time>2026-09-01T19:53:59Z</time>
  <course>10.77</course>
  <speed>0.022360679774997897</speed>
  <fix>3d</fix>
</trkpt>
<trkpt lat="-27.274439" lon="151.290064">
  <ele>343.1</ele>
  <time>2026-09-01T19:53:59Z</time>
  <course>270.0</course>
  <speed>0.0</speed>
  <fix>3d</fix>
</trkpt>
<trkpt lat="-27.2744391" lon="151.2900641">
  <ele>343.14</ele>
  <time>2026-09-01T19:53:59Z</time>
  <course>10.77</course>
  <speed>0.022360679774997897</speed>
  <fix>3d</fix>
</trkpt>
<trkpt lat="-27.274439" lon="151.290064">
  <ele>343.1</ele>
  <time>2026-09-01T19:53:59Z</time>
  <course>270.0</course>
  <speed>0.0</speed>
  <fix>3d</fix>
</trkpt>
<trkpt lat="-27.2744391" lon="151.2900641">
  <ele>343.14</ele>
  <time>2026-09-01T19:53:59Z</time>
  <course>10.77</course>
  <speed>0.022360679774997897</speed>
  <fix>3d</fix>
</trkpt>
<trkpt lat="-27.274439" lon="151.290064">
  <ele>343.1</ele>
  <time>2026-09-01T19:53:59Z</time>
  <course>270.0</course>
  <speed>0.0</speed>
  <fix>3d</fix>
</trkpt>
<trkpt lat="-27.2744391" lon="151.2900641">
  <ele>343.15</ele>
  <time>2026-09-01T19:53:59Z</time>
  <course>10.77</course>
  <speed>0.022360679774997897</speed>
  <fix>3d</fix>
</trkpt>
<trkpt lat="-27.274439" lon="151.290064">
  <ele>343.1</ele>
  <time>2026-09-01T19:53:59Z</time>
  <course>270.0</course>
  <speed>0.0</speed>
  <fix>3d</fix>
</trkpt>
<trkpt lat="-27.2744391" lon="151.2900641">
  <ele>343.15</ele>
  <time>2026-09-01T19:53:59Z</time>
  <course>10.77</course>
  <speed>0.022360679774997897</speed>
  <fix>3d</fix>
</trkpt>
<trkpt lat="-27.274439" lon="151.290064">
  <ele>343.1</ele>
  <time>2026-09-01T19:53:59Z</time>
  <course>270.0</course>
  <speed>0.0</speed>
  <fix>3d</fix>
</trkpt>
<trkpt lat="-27.2744391" lon="151.2900641">
  <ele>343.16</ele>
  <time>2026-09-01T19:53:59Z</time>
  <course>10.77</course>
  <speed>0.022360679774997897</speed>
  <fix>3d</fix>
</trkpt>
<trkpt lat="-27.274439" lon="151.290064">
  <ele>343.1</ele>
  <time>2026-09-01T19:53:59Z</time>
  <course>270.0</course>
  <speed>0.0</speed>
  <fix>3d</fix>
</trkpt>
<trkpt lat="-27.2744391" lon="151.2900641">
  <ele>343.16</ele>
  <time>2026-09-01T19:53:59Z</time>
  <course>10.77</course>
  <speed>0.022360679774997897</speed>
  <fix>3d</fix>
</trkpt>
<trkpt lat="-27.274439" lon="151.290064">
  <ele>343.1</ele>
  <time>2026-09-01T19:53:59Z</time>
  <course>270.0</course>
  <speed>0.0</speed>
  <fix>3d</fix>
</trkpt>
<trkpt lat="-27.2744391" lon="151.2900641">
  <ele>343.17</ele>
  <time>2026-09-01T19:53:59Z</time>
  <course>10.77</course>
  <speed>0.022360679774997897</speed>
  <fix>3d</fix>
</trkpt>
<trkpt lat="-27.274439" lon="151.290064">
  <ele>343.1</ele>
  <time>2026-09-01T19:53:59Z</time>
  <course>270.0</course>
  <speed>0.0</speed>
  <fix>3d</fix>
</trkpt>
<trkpt lat="-27.2744391" lon="151.2900641">
  <ele>343.17</ele>
  <time>2026-09-01T19:53:59Z</time>
  <course>10.77</course>
  <speed>0.022360679774997897</speed>
  <fix>3d</fix>
</trkpt>
<trkpt lat="-27.274439" lon="151.290064">
  <ele>343.1</ele>
  <time>2026-09-01T19:53:59Z</time>
  <course>270.0</course>
  <speed>0.0</speed>
  <fix>3d</fix>
</trkpt>
<trkpt lat="-27.2744391" lon="151.2900641">
  <ele>343.18</ele>
  <time>2026-09-01T19:53:59Z</time>
  <course>10.77</course>
  <speed>0.022360679774997897</speed>
  <fix>3d</fix>
</trkpt>
<trkpt lat="-27.274439" lon="151.290064">
  <ele>343.1</ele>
  <time>2026-09-01T19:53:59Z</time>
  <course>270.0</course>
  <speed>0.0</speed>
  <fix>3d</fix>
</trkpt>
<trkpt lat="-27.2744391" lon="151.2900641">
  <ele>343.18</ele>
  <time>2026-09-01T19:53:59Z</time>
  <course>10.77</course>
  <speed>0.022360679774997897</speed>
  <fix>3d</fix>
</trkpt>
<trkpt lat="-27.274439" lon="151.290064">
  <ele>343.1</ele>
  <time>2026-09-01T19:53:59Z</time>
  <course>270.0</course>
  <speed>0.0</speed>
  <fix>3d</fix>
</trkpt>
<trkpt lat="-27.2744391" lon="151.2900641">
  <ele>343.18</ele>
  <time>2026-09-01T19:53:59Z</time>
  <course>10.77</course>
  <speed>0.022360679774997897</speed>
  <fix>3d</fix>
</trkpt>
<trkpt lat="-27.274439" lon="151.290064">
  <ele>343.1</ele>
  <time>2026-09-01T19:53:59Z</time>
  <course>270.0</course>
  <speed>0.0</speed>
  <fix>3d</fix>
</trkpt>
<trkpt lat="-27.2744391" lon="151.2900641">
  <ele>343.19</ele>
  <time>2026-09-01T19:53:59Z</time>
  <course>10.77</course>
  <speed>0.022360679774997897</speed>
  <fix>3d</fix>
</trkpt>
<trkpt lat="-27.274439" lon="151.290064">
  <ele>343.1</ele>
  <time>2026-09-01T19:53:59Z</time>
  <course>270.0</course>
  <speed>0.0</speed>
  <fix>3d</fix>
</trkpt>
<trkpt lat="-27.2744391" lon="151.2900641">
  <ele>343.19</ele>
  <time>2026-09-01T19:53:59Z</time>
  <course>10.77</course>
  <speed>0.022360679774997897</speed>
  <fix>3d</fix>
</trkpt>
<trkpt lat="-27.274439" lon="151.290064">
  <ele>343.1</ele>
  <time>2026-09-01T19:53:59Z</time>
  <course>270.0</course>
  <speed>0.0</speed>
  <fix>3d</fix>
</trkpt>
<trkpt lat="-27.2744391" lon="151.2900641">
  <ele>343.19</ele>
  <time>2026-09-01T19:53:59Z</time>
  <course>10.77</course>
  <speed>0.022360679774997897</speed>
  <fix>3d</fix>
</trkpt>
<trkpt lat="-27.274439" lon="151.290064">
  <ele>343.1</ele>
  <time>2026-09-01T19:53:59Z</time>
  <course>270.0</course>
  <speed>0.0</speed>
  <fix>3d</fix>
</trkpt>
<trkpt lat="-27.2744391" lon="151.2900641">
  <ele>343.19</ele>
  <time>2026-09-01T19:53:59Z</time>
  <course>10.77</course>
  <speed>0.022360679774997897</speed>
  <fix>3d</fix>
</trkpt>
<trkpt lat="-27.274439" lon="151.290064">
  <ele>343.1</ele>
  <time>2026-09-01T19:53:59Z</time>
  <course>270.0</course>
  <speed>0.0</speed>
  <fix>3d</fix>
</trkpt>
<trkpt lat="-27.2744391" lon="151.2900641">
  <ele>343.19</ele>
  <time>2026-09-01T19:53:59Z</time>
  <course>10.77</course>
  <speed>0.022360679774997897</speed>
  <fix>3d</fix>
</trkpt>
<trkpt lat="-27.274439" lon="151.290064">
  <ele>343.1</ele>
  <time>2026-09-01T19:53:59Z</time>
  <course>270.0</course>
  <speed>0.0</speed>
  <fix>3d</fix>
</trkpt>
<trkpt lat="-27.2744391" lon="151.2900641">
  <ele>343.19</ele>
  <time>2026-09-01T19:53:59Z</time>
  <course>10.77</course>
  <speed>0.022360679774997897</speed>
  <fix>3d</fix>
</trkpt>
<trkpt lat="-27.274439" lon="151.290064">
  <ele>343.1</ele>
  <time>2026-09-01T19:53:59Z</time>
  <course>270.0</course>
  <speed>0.0</speed>
  <fix>3d</fix>
</trkpt>
<trkpt lat="-27.2744391" lon="151.2900641">
  <ele>343.2</ele>
  <time>2026-09-01T19:53:59Z</time>
  <course>10.78</course>
  <speed>0.022360679774997897</speed>
  <fix>3d</fix>
</trkpt>
<trkpt lat="-27.274439" lon="151.290064">
  <ele>343.1</ele>
  <time>2026-09-01T19:53:59Z</time>
  <course>270.0</course>
  <speed>0.0</speed>
  <fix>3d</fix>
</trkpt>
<trkpt lat="-27.2744391" lon="151.2900641">
  <ele>343.2</ele>
  <time>2026-09-01T19:53:59Z</time>
  <course>10.78</course>
  <speed>0.022360679774997897</speed>
  <fix>3d</fix>
</trkpt>
<trkpt lat="-27.274439" lon="151.290064">
  <ele>343.1</ele>
  <time>2026-09-01T19:53:59Z</time>
  <course>270.0</course>
  <speed>0.0</speed>
  <fix>3d</fix>
</trkpt>
<trkpt lat="-27.2744391" lon="151.2900641">
  <ele>343.2</ele>
  <time>2026-09-01T19:53:59Z</time>
  <course>10.78</course>
  <speed>0.022360679774997897</speed>
  <fix>3d</fix>
</trkpt>
<trkpt lat="-27.274439" lon="151.290064">
  <ele>343.1</ele>
  <time>2026-09-01T19:53:59Z</time>
  <course>270.0</course>
  <speed>0.0</speed>
  <fix>3d</fix>
</trkpt>
<trkpt lat="-27.2744391" lon="151.2900641">
  <ele>343.2</ele>
  <time>2026-09-01T19:53:59Z</time>
  <course>10.78</course>
  <speed>0.022360679774997897</speed>
  <fix>3d</fix>
</trkpt>
<trkpt lat="-27.274439" lon="151.290064">
  <ele>343.1</ele>
  <time>2026-09-01T19:53:59Z</time>
  <course>270.0</course>
  <speed>0.0</speed>
  <fix>3d</fix>
</trkpt>
<trkpt lat="-27.2744391" lon="151.2900641">
  <ele>343.2</ele>
  <time>2026-09-01T19:53:59Z</time>
  <course>10.78</course>
  <speed>0.022360679774997897</speed>
  <fix>3d</fix>
</trkpt>
<trkpt lat="-27.274439" lon="151.290064">
  <ele>343.1</ele>
  <time>2026-09-01T19:53:59Z</time>
  <course>270.0</course>
  <speed>0.0</speed>
  <fix>3d</fix>
</trkpt>
<trkpt lat="-27.2744391" lon="151.2900641">
  <ele>343.2</ele>
  <time>2026-09-01T19:53:59Z</time>
  <course>10.78</course>
  <speed>0.022360679774997897</speed>
  <fix>3d</fix>
</trkpt>
<trkpt lat="-27.274439" lon="151.290064">
  <ele>343.1</ele>
  <time>2026-09-01T19:53:59Z</time>
  <course>270.0</course>
  <speed>0.0</speed>
  <fix>3d</fix>
</trkpt>
<trkpt lat="-27.2744391" lon="151.2900641">
  <ele>343.2</ele>
  <time>2026-09-01T19:53:59Z</time>
  <course>10.78</course>
  <speed>0.022360679774997897</speed>
  <fix>3d</fix>
</trkpt>
<trkpt lat="-27.274439" lon="151.290064">
  <ele>343.1</ele>
  <time>2026-09-01T19:53:59Z</time>
  <course>270.0</course>
  <speed>0.0</speed>
  <fix>3d</fix>
</trkpt>
<trkpt lat="-27.2744391" lon="151.2900641">
  <ele>343.2</ele>
  <time>2026-09-01T19:53:59Z</time>
  <course>10.78</course>
  <speed>0.022360679774997897</speed>
  <fix>3d</fix>
</trkpt>
<trkpt lat="-27.274439" lon="151.290064">
  <ele>343.1</ele>
  <time>2026-09-01T19:53:59Z</time>
  <course>270.0</course>
  <speed>0.0</speed>
  <fix>3d</fix>
</trkpt>
<trkpt lat="-27.2744391" lon="151.2900641">
  <ele>343.2</ele>
  <time>2026-09-01T19:53:59Z</time>
  <course>10.78</course>
  <speed>0.022360679774997897</speed>
  <fix>3d</fix>
</trkpt>
<trkpt lat="-27.274439" lon="151.290064">
  <ele>343.1</ele>
  <time>2026-09-01T19:53:59Z</time>
  <course>270.0</course>
  <speed>0.0</speed>
  <fix>3d</fix>
</trkpt>
<trkpt lat="-27.2744391" lon="151.2900641">
  <ele>343.2</ele>
  <time>2026-09-01T19:53:59Z</time>
  <course>10.78</course>
  <speed>0.022360679774997897</speed>
  <fix>3d</fix>
</trkpt>
<trkpt lat="-27.274439" lon="151.290064">
  <ele>343.1</ele>
  <time>2026-09-01T19:53:59Z</time>
  <course>270.0</course>
  <speed>0.0</speed>
  <fix>3d</fix>
</trkpt>
<trkpt lat="-27.2744391" lon="151.2900641">
  <ele>343.2</ele>
  <time>2026-09-01T19:53:59Z</time>
  <course>10.78</course>
  <speed>0.022360679774997897</speed>
  <fix>3d</fix>
</trkpt>
<trkpt lat="-27.274439" lon="151.290064">
  <ele>343.1</ele>
  <time>2026-09-01T19:53:59Z</time>
  <course>270.0</course>
  <speed>0.0</speed>
  <fix>3d</fix>
</trkpt>
<trkpt lat="-27.2744391" lon="151.2900641">
  <ele>343.2</ele>
  <time>2026-09-01T19:53:59Z</time>
  <course>10.78</course>
  <speed>0.022360679774997897</speed>
  <fix>3d</fix>
</trkpt>
<trkpt lat="-27.274439" lon="151.290064">
  <ele>343.1</ele>
  <time>2026-09-01T19:53:59Z</time>
  <course>270.0</course>
  <speed>0.0</speed>
  <fix>3d</fix>
</trkpt>
<trkpt lat="-27.2744391" lon="151.2900641">
  <ele>343.2</ele>
  <time>2026-09-01T19:53:59Z</time>
  <course>10.78</course>
  <speed>0.022360679774997897</speed>
  <fix>3d</fix>
</trkpt>
<trkpt lat="-27.274439" lon="151.290064">
  <ele>343.1</ele>
  <time>2026-09-01T19:53:59Z</time>
  <course>270.0</course>
  <speed>0.0</speed>
  <fix>3d</fix>
</trkpt>
<trkpt lat="-27.2744391" lon="151.2900641">
  <ele>343.2</ele>
  <time>2026-09-01T19:53:59Z</time>
  <course>10.78</course>
  <speed>0.022360679774997897</speed>
  <fix>3d</fix>
</trkpt>
<trkpt lat="-27.274439" lon="151.290064">
  <ele>343.1</ele>
  <time>2026-09-01T19:53:59Z</time>
  <course>270.0</course>
  <speed>0.0</speed>
  <fix>3d</fix>
</trkpt>
<trkpt lat="-27.2744391" lon="151.2900641">
  <ele>343.2</ele>
  <time>2026-09-01T19:53:59Z</time>
  <course>10.78</course>
  <speed>0.022360679774997897</speed>
  <fix>3d</fix>
</trkpt>
<trkpt lat="-27.274439" lon="151.290064">
  <ele>343.1</ele>
  <time>2026-09-01T19:53:59Z</time>
  <course>270.0</course>
  <speed>0.0</speed>
  <fix>3d</fix>
</trkpt>
<trkpt lat="-27.2744391" lon="151.2900641">
  <ele>343.2</ele>
  <time>2026-09-01T19:53:59Z</time>
  <course>10.78</course>
  <speed>0.022360679774997897</speed>
  <fix>3d</fix>
</trkpt>
<trkpt lat="-27.274439" lon="151.290064">
  <ele>343.1</ele>
  <time>2026-09-01T19:53:59Z</time>
  <course>270.0</course>
  <speed>0.0</speed>
  <fix>3d</fix>
</trkpt>
<trkpt lat="-27.2744391" lon="151.2900641">
  <ele>343.2</ele>
  <time>2026-09-01T19:53:59Z</time>
  <course>10.78</course>
  <speed>0.022360679774997897</speed>
  <fix>3d</fix>
</trkpt>
<trkpt lat="-27.274439" lon="151.290064">
  <ele>343.1</ele>
  <time>2026-09-01T19:53:59Z</time>
  <course>270.0</course>
  <speed>0.0</speed>
  <fix>3d</fix>
</trkpt>
<trkpt lat="-27.2744391" lon="151.2900641">
  <ele>343.2</ele>
  <time>2026-09-01T19:53:59Z</time>
  <course>10.78</course>
  <speed>0.022360679774997897</speed>
  <fix>3d</fix>
</trkpt>
<trkpt lat="-27.274439" lon="151.290064">
  <ele>343.1</ele>
  <time>2026-09-01T19:53:59Z</time>
  <course>270.0</course>
  <speed>0.0</speed>
  <fix>3d</fix>
</trkpt>
<trkpt lat="-27.2744391" lon="151.2900641">
  <ele>343.2</ele>
  <time>2026-09-01T19:53:59Z</time>
  <course>10.79</course>
  <speed>0.022360679774997897</speed>
  <fix>3d</fix>
</trkpt>
<trkpt lat="-27.274439" lon="151.290064">
  <ele>343.1</ele>
  <time>2026-09-01T19:53:59Z</time>
  <course>270.0</course>
  <speed>0.0</speed>
  <fix>3d</fix>
</trkpt>
<trkpt lat="-27.2744391" lon="151.2900641">
  <ele>343.2</ele>
  <time>2026-09-01T19:53:59Z</time>
  <course>10.79</course>
  <speed>0.022360679774997897</speed>
  <fix>3d</fix>
</trkpt>
<trkpt lat="-27.274439" lon="151.290064">
  <ele>343.1</ele>
  <time>2026-09-01T19:53:59Z</time>
  <course>270.0</course>
  <speed>0.0</speed>
  <fix>3d</fix>
</trkpt>
<trkpt lat="-27.2744391" lon="151.2900641">
  <ele>343.2</ele>
  <time>2026-09-01T19:53:59Z</time>
  <course>10.79</course>
  <speed>0.022360679774997897</speed>
  <fix>3d</fix>
</trkpt>
<trkpt lat="-27.274439" lon="151.290064">
  <ele>343.1</ele>
  <time>2026-09-01T19:53:59Z</time>
  <course>270.0</course>
  <speed>0.0</speed>
  <fix>3d</fix>
</trkpt>
<trkpt lat="-27.2744391" lon="151.2900641">
  <ele>343.2</ele>
  <time>2026-09-01T19:53:59Z</time>
  <course>10.79</course>
  <speed>0.022360679774997897</speed>
  <fix>3d</fix>
</trkpt>
<trkpt lat="-27.274439" lon="151.290064">
  <ele>343.1</ele>
  <time>2026-09-01T19:53:59Z</time>
  <course>270.0</course>
  <speed>0.0</speed>
  <fix>3d</fix>
</trkpt>
<trkpt lat="-27.2744391" lon="151.2900641">
  <ele>343.2</ele>
  <time>2026-09-01T19:53:59Z</time>
  <course>10.79</course>
  <speed>0.022360679774997897</speed>
  <fix>3d</fix>
</trkpt>
<trkpt lat="-27.274439" lon="151.290064">
  <ele>343.1</ele>
  <time>2026-09-01T19:53:59Z</time>
  <course>270.0</course>
  <speed>0.0</speed>
  <fix>3d</fix>
</trkpt>
<trkpt lat="-27.2744391" lon="151.2900641">
  <ele>343.19</ele>
  <time>2026-09-01T19:53:59Z</time>
  <course>10.79</course>
  <speed>0.022360679774997897</speed>
  <fix>3d</fix>
</trkpt>
<trkpt lat="-27.274439" lon="151.290064">
  <ele>343.1</ele>
  <time>2026-09-01T19:53:59Z</time>
  <course>270.0</course>
  <speed>0.0</speed>
  <fix>3d</fix>
</trkpt>
<trkpt lat="-27.2744391" lon="151.2900641">
  <ele>343.19</ele>
  <time>2026-09-01T19:53:59Z</time>
  <course>10.79</course>
  <speed>0.022360679774997897</speed>
  <fix>3d</fix>
</trkpt>
<trkpt lat="-27.274439" lon="151.290064">
  <ele>343.1</ele>
  <time>2026-09-01T19:53:59Z</time>
  <course>270.0</course>
  <speed>0.0</speed>
  <fix>3d</fix>
</trkpt>
<trkpt lat="-27.2744391" lon="151.2900641">
  <ele>343.19</ele>
  <time>2026-09-01T19:53:59Z</time>
  <course>10.79</course>
  <speed>0.022360679774997897</speed>
  <fix>3d</fix>
</trkpt>
<trkpt lat="-27.274439" lon="151.290064">
  <ele>343.1</ele>
  <time>2026-09-01T19:53:59Z</time>
  <course>270.0</course>
  <speed>0.0</speed>
  <fix>3d</fix>
</trkpt>
<trkpt lat="-27.2744391" lon="151.2900641">
  <ele>343.09</ele>
  <time>2026-09-01T19:53:59Z</time>
  <course>10.79</course>
  <speed>0.022360679774997897</speed>
  <fix>3d</fix>
</trkpt>
<trkpt lat="-27.274439" lon="151.290064">
  <ele>343.1</ele>
  <time>2026-09-01T19:53:59Z</time>
  <course>270.0</course>
  <speed>0.0</speed>
  <fix>3d</fix>
</trkpt>
<trkpt lat="-27.2744391" lon="151.2900641">
  <ele>343.1</ele>
  <time>2026-09-01T19:53:59Z</time>
  <course>10.79</course>
  <speed>0.022360679774997897</speed>
  <fix>3d</fix>
</trkpt>
<trkpt lat="-27.274439" lon="151.290064">
  <ele>343.1</ele>
  <time>2026-09-01T19:53:59Z</time>
  <course>270.0</course>
  <speed>0.0</speed>
  <fix>3d</fix>
</trkpt>
<trkpt lat="-27.2744391" lon="151.2900641">
  <ele>343.1</ele>
  <time>2026-09-01T19:53:59Z</time>
  <course>10.79</course>
  <speed>0.022360679774997897</speed>
  <fix>3d</fix>
</trkpt>
<trkpt lat="-27.274439" lon="151.290064">
  <ele>343.1</ele>
  <time>2026-09-01T19:53:59Z</time>
  <course>270.0</course>
  <speed>0.0</speed>
  <fix>3d</fix>
</trkpt>
<trkpt lat="-27.2744391" lon="151.2900641">
  <ele>343.1</ele>
  <time>2026-09-01T19:53:59Z</time>
  <course>10.79</course>
  <speed>0.022360679774997897</speed>
  <fix>3d</fix>
</trkpt>
<trkpt lat="-27.274439" lon="151.290064">
  <ele>343.1</ele>
  <time>2026-09-01T19:53:59Z</time>
  <course>270.0</course>
  <speed>0.0</speed>
  <fix>3d</fix>
</trkpt>
<trkpt lat="-27.2744391" lon="151.2900641">
  <ele>343.1</ele>
  <time>2026-09-01T19:53:59Z</time>
  <course>10.79</course>
  <speed>0.022360679774997897</speed>
  <fix>3d</fix>
</trkpt>
<trkpt lat="-27.274439" lon="151.290064">
  <ele>343.1</ele>
  <time>2026-09-01T19:53:59Z</time>
  <course>270.0</course>
  <speed>0.0</speed>
  <fix>3d</fix>
</trkpt>
<trkpt lat="-27.2744391" lon="151.2900641">
  <ele>343.1</ele>
  <time>2026-09-01T19:53:59Z</time>
  <course>10.79</course>
  <speed>0.022360679774997897</speed>
  <fix>3d</fix>
</trkpt>
<trkpt lat="-27.274439" lon="151.290064">
  <ele>343.1</ele>
  <time>2026-09-01T19:53:59Z</time>
  <course>270.0</course>
  <speed>0.0</speed>
  <fix>3d</fix>
</trkpt>
<trkpt lat="-27.2744391" lon="151.2900641">
  <ele>343.11</ele>
  <time>2026-09-01T19:53:59Z</time>
  <course>10.79</course>
  <speed>0.022360679774997897</speed>
  <fix>3d</fix>
</trkpt>
<trkpt lat="-27.274439" lon="151.290064">
  <ele>343.1</ele>
  <time>2026-09-01T19:53:59Z</time>
  <course>270.0</course>
  <speed>0.0</speed>
  <fix>3d</fix>
</trkpt>
<trkpt lat="-27.2744391" lon="151.2900641">
  <ele>343.11</ele>
  <time>2026-09-01T19:53:59Z</time>
  <course>10.8</course>
  <speed>0.022360679774997897</speed>
  <fix>3d</fix>
</trkpt>
<trkpt lat="-27.274439" lon="151.290064">
  <ele>343.1</ele>
  <time>2026-09-01T19:53:59Z</time>
  <course>270.0</course>
  <speed>0.0</speed>
  <fix>3d</fix>
</trkpt>
<trkpt lat="-27.2744391" lon="151.2900641">
  <ele>343.11</ele>
  <time>2026-09-01T19:53:59Z</time>
  <course>10.8</course>
  <speed>0.022360679774997897</speed>
  <fix>3d</fix>
</trkpt>
<trkpt lat="-27.274439" lon="151.290064">
  <ele>343.1</ele>
  <time>2026-09-01T19:53:59Z</time>
  <course>270.0</course>
  <speed>0.0</speed>
  <fix>3d</fix>
</trkpt>
<trkpt lat="-27.2744391" lon="151.2900641">
  <ele>343.11</ele>
  <time>2026-09-01T19:53:59Z</time>
  <course>10.8</course>
  <speed>0.022360679774997897</speed>
  <fix>3d</fix>
</trkpt>
<trkpt lat="-27.274439" lon="151.290064">
  <ele>343.1</ele>
  <time>2026-09-01T19:53:59Z</time>
  <course>270.0</course>
  <speed>0.0</speed>
  <fix>3d</fix>
</trkpt>
<trkpt lat="-27.2744391" lon="151.2900641">
  <ele>343.12</ele>
  <time>2026-09-01T19:53:59Z</time>
  <course>10.8</course>
  <speed>0.022360679774997897</speed>
  <fix>3d</fix>
</trkpt>
<trkpt lat="-27.274439" lon="151.290064">
  <ele>343.1</ele>
  <time>2026-09-01T19:53:59Z</time>
  <course>270.0</course>
  <speed>0.0</speed>
  <fix>3d</fix>
</trkpt>
<trkpt lat="-27.2744391" lon="151.2900641">
  <ele>343.12</ele>
  <time>2026-09-01T19:53:59Z</time>
  <course>10.8</course>
  <speed>0.022360679774997897</speed>
  <fix>3d</fix>
</trkpt>
<trkpt lat="-27.274439" lon="151.290064">
  <ele>343.1</ele>
  <time>2026-09-01T19:53:59Z</time>
  <course>270.0</course>
  <speed>0.0</speed>
  <fix>3d</fix>
</trkpt>
<trkpt lat="-27.2744391" lon="151.2900641">
  <ele>343.12</ele>
  <time>2026-09-01T19:53:59Z</time>
  <course>10.8</course>
  <speed>0.022360679774997897</speed>
  <fix>3d</fix>
</trkpt>
<trkpt lat="-27.274439" lon="151.290064">
  <ele>343.1</ele>
  <time>2026-09-01T19:53:59Z</time>
  <course>270.0</course>
  <speed>0.0</speed>
  <fix>3d</fix>
</trkpt>
<trkpt lat="-27.2744391" lon="151.2900641">
  <ele>343.12</ele>
  <time>2026-09-01T19:53:59Z</time>
  <course>10.8</course>
  <speed>0.022360679774997897</speed>
  <fix>3d</fix>
</trkpt>
<trkpt lat="-27.274439" lon="151.290064">
  <ele>343.1</ele>
  <time>2026-09-01T19:53:59Z</time>
  <course>270.0</course>
  <speed>0.0</speed>
  <fix>3d</fix>
</trkpt>
<trkpt lat="-27.2744391" lon="151.2900641">
  <ele>343.12</ele>
  <time>2026-09-01T19:53:59Z</time>
  <course>10.8</course>
  <speed>0.022360679774997897</speed>
  <fix>3d</fix>
</trkpt>
<trkpt lat="-27.274439" lon="151.290064">
  <ele>343.1</ele>
  <time>2026-09-01T19:53:59Z</time>
  <course>270.0</course>
  <speed>0.0</speed>
  <fix>3d</fix>
</trkpt>
<trkpt lat="-27.2744391" lon="151.2900641">
  <ele>343.12</ele>
  <time>2026-09-01T19:53:59Z</time>
  <course>10.8</course>
  <speed>0.022360679774997897</speed>
  <fix>3d</fix>
</trkpt>
<trkpt lat="-27.274439" lon="151.290064">
  <ele>343.1</ele>
  <time>2026-09-01T19:53:59Z</time>
  <course>270.0</course>
  <speed>0.0</speed>
  <fix>3d</fix>
</trkpt>
<trkpt lat="-27.2744391" lon="151.2900641">
  <ele>343.11</ele>
  <time>2026-09-01T19:53:59Z</time>
  <course>10.8</course>
  <speed>0.022360679774997897</speed>
  <fix>3d</fix>
</trkpt>
<trkpt lat="-27.274439" lon="151.290064">
  <ele>343.1</ele>
  <time>2026-09-01T19:53:59Z</time>
  <course>270.0</course>
  <speed>0.0</speed>
  <fix>3d</fix>
</trkpt>
<trkpt lat="-27.2744391" lon="151.2900641">
  <ele>343.11</ele>
  <time>2026-09-01T19:53:59Z</time>
  <course>10.8</course>
  <speed>0.022360679774997897</speed>
  <fix>3d</fix>
</trkpt>
<trkpt lat="-27.274439" lon="151.290064">
  <ele>343.1</ele>
  <time>2026-09-01T19:53:59Z</time>
  <course>270.0</course>
  <speed>0.0</speed>
  <fix>3d</fix>
</trkpt>
<trkpt lat="-27.2744391" lon="151.2900641">
  <ele>343.11</ele>
  <time>2026-09-01T19:53:59Z</time>
  <course>10.8</course>
  <speed>0.022360679774997897</speed>
  <fix>3d</fix>
</trkpt>
<trkpt lat="-27.274439" lon="151.290064">
  <ele>343.1</ele>
  <time>2026-09-01T19:53:59Z</time>
  <course>270.0</course>
  <speed>0.0</speed>
  <fix>3d</fix>
</trkpt>
<trkpt lat="-27.2744391" lon="151.2900641">
  <ele>343.11</ele>
  <time>2026-09-01T19:53:59Z</time>
  <course>10.8</course>
  <speed>0.022360679774997897</speed>
  <fix>3d</fix>
</trkpt>
<trkpt lat="-27.274439" lon="151.290064">
  <ele>343.1</ele>
  <time>2026-09-01T19:53:59Z</time>
  <course>270.0</course>
  <speed>0.0</speed>
  <fix>3d</fix>
</trkpt>
<trkpt lat="-27.2744391" lon="151.2900641">
  <ele>343.11</ele>
  <time>2026-09-01T19:53:59Z</time>
  <course>10.8</course>
  <speed>0.022360679774997897</speed>
  <fix>3d</fix>
</trkpt>
<trkpt lat="-27.274439" lon="151.290064">
  <ele>343.1</ele>
  <time>2026-09-01T19:53:59Z</time>
  <course>270.0</course>
  <speed>0.0</speed>
  <fix>3d</fix>
</trkpt>
<trkpt lat="-27.2744391" lon="151.2900641">
  <ele>343.11</ele>
  <time>2026-09-01T19:53:59Z</time>
  <course>10.8</course>
  <speed>0.022360679774997897</speed>
  <fix>3d</fix>
</trkpt>
<trkpt lat="-27.274439" lon="151.290064">
  <ele>343.1</ele>
  <time>2026-09-01T19:53:59Z</time>
  <course>270.0</course>
  <speed>0.0</speed>
  <fix>3d</fix>
</trkpt>
<trkpt lat="-27.2744391" lon="151.2900641">
  <ele>343.11</ele>
  <time>2026-09-01T19:53:59Z</time>
  <course>10.8</course>
  <speed>0.022360679774997897</speed>
  <fix>3d</fix>
</trkpt>
<trkpt lat="-27.274439" lon="151.290064">
  <ele>343.1</ele>
  <time>2026-09-01T19:53:59Z</time>
  <course>270.0</course>
  <speed>0.0</speed>
  <fix>3d</fix>
</trkpt>
<trkpt lat="-27.2744391" lon="151.2900641">
  <ele>343.11</ele>
  <time>2026-09-01T19:53:59Z</time>
  <course>10.8</course>
  <speed>0.022360679774997897</speed>
  <fix>3d</fix>
</trkpt>
<trkpt lat="-27.274439" lon="151.290064">
  <ele>343.1</ele>
  <time>2026-09-01T19:53:59Z</time>
  <course>270.0</course>
  <speed>0.0</speed>
  <fix>3d</fix>
</trkpt>
<trkpt lat="-27.2744391" lon="151.2900641">
  <ele>343.1</ele>
  <time>2026-09-01T19:53:59Z</time>
  <course>10.81</course>
  <speed>0.022360679774997897</speed>
  <fix>3d</fix>
</trkpt>
<trkpt lat="-27.274439" lon="151.290064">
  <ele>343.1</ele>
  <time>2026-09-01T19:53:59Z</time>
  <course>270.0</course>
  <speed>0.0</speed>
  <fix>3d</fix>
</trkpt>
<trkpt lat="-27.2744391" lon="151.2900641">
  <ele>343.1</ele>
  <time>2026-09-01T19:53:59Z</time>
  <course>10.81</course>
  <speed>0.022360679774997897</speed>
  <fix>3d</fix>
</trkpt>
<trkpt lat="-27.274439" lon="151.290064">
  <ele>343.1</ele>
  <time>2026-09-01T19:53:59Z</time>
  <course>270.0</course>
  <speed>0.0</speed>
  <fix>3d</fix>
</trkpt>
<trkpt lat="-27.2744391" lon="151.2900641">
  <ele>343.1</ele>
  <time>2026-09-01T19:53:59Z</time>
  <course>10.81</course>
  <speed>0.022360679774997897</speed>
  <fix>3d</fix>
</trkpt>
<trkpt lat="-27.274439" lon="151.290064">
  <ele>343.1</ele>
  <time>2026-09-01T19:53:59Z</time>
  <course>270.0</course>
  <speed>0.0</speed>
  <fix>3d</fix>
</trkpt>
<trkpt lat="-27.2744391" lon="151.2900641">
  <ele>343.1</ele>
  <time>2026-09-01T19:53:59Z</time>
  <course>10.81</course>
  <speed>0.022360679774997897</speed>
  <fix>3d</fix>
</trkpt>
<trkpt lat="-27.274439" lon="151.290064">
  <ele>343.1</ele>
  <time>2026-09-01T19:53:59Z</time>
  <course>270.0</course>
  <speed>0.0</speed>
  <fix>3d</fix>
</trkpt>
<trkpt lat="-27.2744391" lon="151.2900641">
  <ele>343.1</ele>
  <time>2026-09-01T19:53:59Z</time>
  <course>10.81</course>
  <speed>0.022360679774997897</speed>
  <fix>3d</fix>
</trkpt>
<trkpt lat="-27.274439" lon="151.290064">
  <ele>343.1</ele>
  <time>2026-09-01T19:53:59Z</time>
  <course>270.0</course>
  <speed>0.0</speed>
  <fix>3d</fix>
</trkpt>
<trkpt lat="-27.2744392" lon="151.2900641">
  <ele>343.1</ele>
  <time>2026-09-01T19:53:59Z</time>
  <course>10.81</course>
  <speed>0.022360679774997897</speed>
  <fix>3d</fix>
</trkpt>
<trkpt lat="-27.274439" lon="151.290064">
  <ele>343.1</ele>
  <time>2026-09-01T19:53:59Z</time>
  <course>270.0</course>
  <speed>0.0</speed>
  <fix>3d</fix>
</trkpt>
<trkpt lat="-27.2744391" lon="151.2900641">
  <ele>343.1</ele>
  <time>2026-09-01T19:53:59Z</time>
  <course>10.81</course>
  <speed>0.022360679774997897</speed>
  <fix>3d</fix>
</trkpt>
<trkpt lat="-27.274439" lon="151.290064">
  <ele>343.1</ele>
  <time>2026-09-01T19:53:59Z</time>
  <course>270.0</course>
  <speed>0.0</speed>
  <fix>3d</fix>
</trkpt>
<trkpt lat="-27.2744392" lon="151.2900641">
  <ele>343.1</ele>
  <time>2026-09-01T19:53:59Z</time>
  <course>10.81</course>
  <speed>0.022360679774997897</speed>
  <fix>3d</fix>
</trkpt>
<trkpt lat="-27.274439" lon="151.290064">
  <ele>343.1</ele>
  <time>2026-09-01T19:53:59Z</time>
  <course>270.0</course>
  <speed>0.0</speed>
  <fix>3d</fix>
</trkpt>
<trkpt lat="-27.2744391" lon="151.2900641">
  <ele>343.09</ele>
  <time>2026-09-01T19:53:59Z</time>
  <course>10.81</course>
  <speed>0.022360679774997897</speed>
  <fix>3d</fix>
</trkpt>
<trkpt lat="-27.274439" lon="151.290064">
  <ele>343.1</ele>
  <time>2026-09-01T19:53:59Z</time>
  <course>270.0</course>
  <speed>0.0</speed>
  <fix>3d</fix>
</trkpt>
<trkpt lat="-27.2744392" lon="151.2900641">
  <ele>343.09</ele>
  <time>2026-09-01T19:53:59Z</time>
  <course>10.81</course>
  <speed>0.022360679774997897</speed>
  <fix>3d</fix>
</trkpt>
<trkpt lat="-27.274439" lon="151.290064">
  <ele>343.1</ele>
  <time>2026-09-01T19:53:59Z</time>
  <course>270.0</course>
  <speed>0.0</speed>
  <fix>3d</fix>
</trkpt>
<trkpt lat="-27.2744391" lon="151.2900641">
  <ele>343.09</ele>
  <time>2026-09-01T19:53:59Z</time>
  <course>10.81</course>
  <speed>0.022360679774997897</speed>
  <fix>3d</fix>
</trkpt>
<trkpt lat="-27.274439" lon="151.290064">
  <ele>343.1</ele>
  <time>2026-09-01T19:53:59Z</time>
  <course>270.0</course>
  <speed>0.0</speed>
  <fix>3d</fix>
</trkpt>
<trkpt lat="-27.2744392" lon="151.2900641">
  <ele>343.09</ele>
  <time>2026-09-01T19:53:59Z</time>
  <course>10.81</course>
  <speed>0.022360679774997897</speed>
  <fix>3d</fix>
</trkpt>
<trkpt lat="-27.274439" lon="151.290064">
  <ele>343.1</ele>
  <time>2026-09-01T19:53:59Z</time>
  <course>270.0</course>
  <speed>0.0</speed>
  <fix>3d</fix>
</trkpt>
<trkpt lat="-27.2744391" lon="151.2900641">
  <ele>343.09</ele>
  <time>2026-09-01T19:53:59Z</time>
  <course>10.81</course>
  <speed>0.022360679774997897</speed>
  <fix>3d</fix>
</trkpt>
<trkpt lat="-27.274439" lon="151.290064">
  <ele>343.1</ele>
  <time>2026-09-01T19:53:59Z</time>
  <course>270.0</course>
  <speed>0.0</speed>
  <fix>3d</fix>
</trkpt>
<trkpt lat="-27.2744392" lon="151.2900641">
  <ele>343.09</ele>
  <time>2026-09-01T19:53:59Z</time>
  <course>10.81</course>
  <speed>0.022360679774997897</speed>
  <fix>3d</fix>
</trkpt>
<trkpt lat="-27.274439" lon="151.290064">
  <ele>343.1</ele>
  <time>2026-09-01T19:53:59Z</time>
  <course>270.0</course>
  <speed>0.0</speed>
  <fix>3d</fix>
</trkpt>
<trkpt lat="-27.2744391" lon="151.2900641">
  <ele>343.09</ele>
  <time>2026-09-01T19:53:59Z</time>
  <course>10.81</course>
  <speed>0.022360679774997897</speed>
  <fix>3d</fix>
</trkpt>
<trkpt lat="-27.274439" lon="151.290064">
  <ele>343.1</ele>
  <time>2026-09-01T19:53:59Z</time>
  <course>270.0</course>
  <speed>0.0</speed>
  <fix>3d</fix>
</trkpt>
<trkpt lat="-27.2744392" lon="151.2900641">
  <ele>343.09</ele>
  <time>2026-09-01T19:53:59Z</time>
  <course>10.81</course>
  <speed>0.022360679774997897</speed>
  <fix>3d</fix>
</trkpt>
<trkpt lat="-27.274439" lon="151.290064">
  <ele>343.1</ele>
  <time>2026-09-01T19:53:59Z</time>
  <course>270.0</course>
  <speed>0.0</speed>
  <fix>3d</fix>
</trkpt>
<trkpt lat="-27.2744391" lon="151.2900641">
  <ele>343.09</ele>
  <time>2026-09-01T19:53:59Z</time>
  <course>10.81</course>
  <speed>0.022360679774997897</speed>
  <fix>3d</fix>
</trkpt>
<trkpt lat="-27.274439" lon="151.290064">
  <ele>343.1</ele>
  <time>2026-09-01T19:53:59Z</time>
  <course>270.0</course>
  <speed>0.0</speed>
  <fix>3d</fix>
</trkpt>
<trkpt lat="-27.2744392" lon="151.2900641">
  <ele>343.09</ele>
  <time>2026-09-01T19:53:59Z</time>
  <course>10.81</course>
  <speed>0.022360679774997897</speed>
  <fix>3d</fix>
</trkpt>
<trkpt lat="-27.274439" lon="151.290064">
  <ele>343.1</ele>
  <time>2026-09-01T19:53:59Z</time>
  <course>270.0</course>
  <speed>0.0</speed>
  <fix>3d</fix>
</trkpt>
<trkpt lat="-27.2744391" lon="151.2900641">
  <ele>343.08</ele>
  <time>2026-09-01T19:53:59Z</time>
  <course>10.82</course>
  <speed>0.022360679774997897</speed>
  <fix>3d</fix>
</trkpt>
<trkpt lat="-27.274439" lon="151.290064">
  <ele>343.1</ele>
  <time>2026-09-01T19:53:59Z</time>
  <course>270.0</course>
  <speed>0.0</speed>
  <fix>3d</fix>
</trkpt>
<trkpt lat="-27.2744392" lon="151.2900641">
  <ele>343.08</ele>
  <time>2026-09-01T19:53:59Z</time>
  <course>10.82</course>
  <speed>0.022360679774997897</speed>
  <fix>3d</fix>
</trkpt>
<trkpt lat="-27.274439" lon="151.290064">
  <ele>343.1</ele>
  <time>2026-09-01T19:53:59Z</time>
  <course>270.0</course>
  <speed>0.0</speed>
  <fix>3d</fix>
</trkpt>
<trkpt lat="-27.2744391" lon="151.2900641">
  <ele>343.08</ele>
  <time>2026-09-01T19:53:59Z</time>
  <course>10.82</course>
  <speed>0.022360679774997897</speed>
  <fix>3d</fix>
</trkpt>
<trkpt lat="-27.274439" lon="151.290064">
  <ele>343.1</ele>
  <time>2026-09-01T19:53:59Z</time>
  <course>270.0</course>
  <speed>0.0</speed>
  <fix>3d</fix>
</trkpt>
<trkpt lat="-27.2744392" lon="151.2900641">
  <ele>343.08</ele>
  <time>2026-09-01T19:53:59Z</time>
  <course>10.82</course>
  <speed>0.022360679774997897</speed>
  <fix>3d</fix>
</trkpt>
<trkpt lat="-27.274439" lon="151.290064">
  <ele>343.1</ele>
  <time>2026-09-01T19:53:59Z</time>
  <course>270.0</course>
  <speed>0.0</speed>
  <fix>3d</fix>
</trkpt>
<trkpt lat="-27.2744391" lon="151.2900641">
  <ele>343.07</ele>
  <time>2026-09-01T19:53:59Z</time>
  <course>10.82</course>
  <speed>0.022360679774997897</speed>
  <fix>3d</fix>
</trkpt>
<trkpt lat="-27.274439" lon="151.290064">
  <ele>343.1</ele>
  <time>2026-09-01T19:53:59Z</time>
  <course>270.0</course>
  <speed>0.0</speed>
  <fix>3d</fix>
</trkpt>
<trkpt lat="-27.2744392" lon="151.2900641">
  <ele>343.07</ele>
  <time>2026-09-01T19:53:59Z</time>
  <course>10.82</course>
  <speed>0.022360679774997897</speed>
  <fix>3d</fix>
</trkpt>
<trkpt lat="-27.274439" lon="151.290064">
  <ele>343.1</ele>
  <time>2026-09-01T19:53:59Z</time>
  <course>270.0</course>
  <speed>0.0</speed>
  <fix>3d</fix>
</trkpt>
<trkpt lat="-27.2744391" lon="151.2900641">
  <ele>343.07</ele>
  <time>2026-09-01T19:53:59Z</time>
  <course>10.82</course>
  <speed>0.022360679774997897</speed>
  <fix>3d</fix>
</trkpt>
<trkpt lat="-27.274439" lon="151.290064">
  <ele>343.1</ele>
  <time>2026-09-01T19:53:59Z</time>
  <course>270.0</course>
  <speed>0.0</speed>
  <fix>3d</fix>
</trkpt>
<trkpt lat="-27.2744392" lon="151.2900641">
  <ele>343.07</ele>
  <time>2026-09-01T19:53:59Z</time>
  <course>10.82</course>
  <speed>0.022360679774997897</speed>
  <fix>3d</fix>
</trkpt>
<trkpt lat="-27.274439" lon="151.290064">
  <ele>343.1</ele>
  <time>2026-09-01T19:53:59Z</time>
  <course>270.0</course>
  <speed>0.0</speed>
  <fix>3d</fix>
</trkpt>
<trkpt lat="-27.2744391" lon="151.2900641">
  <ele>343.07</ele>
  <time>2026-09-01T19:53:59Z</time>
  <course>10.82</course>
  <speed>0.022360679774997897</speed>
  <fix>3d</fix>
</trkpt>
<trkpt lat="-27.274439" lon="151.290064">
  <ele>343.1</ele>
  <time>2026-09-01T19:53:59Z</time>
  <course>270.0</course>
  <speed>0.0</speed>
  <fix>3d</fix>
</trkpt>
<trkpt lat="-27.2744392" lon="151.2900641">
  <ele>343.07</ele>
  <time>2026-09-01T19:53:59Z</time>
  <course>10.82</course>
  <speed>0.022360679774997897</speed>
  <fix>3d</fix>
</trkpt>
<trkpt lat="-27.274439" lon="151.290064">
  <ele>343.1</ele>
  <time>2026-09-01T19:53:59Z</time>
  <course>270.0</course>
  <speed>0.0</speed>
  <fix>3d</fix>
</trkpt>
<trkpt lat="-27.2744391" lon="151.2900641">
  <ele>343.07</ele>
  <time>2026-09-01T19:53:59Z</time>
  <course>10.82</course>
  <speed>0.022360679774997897</speed>
  <fix>3d</fix>
</trkpt>
<trkpt lat="-27.274439" lon="151.290064">
  <ele>343.1</ele>
  <time>2026-09-01T19:53:59Z</time>
  <course>270.0</course>
  <speed>0.0</speed>
  <fix>3d</fix>
</trkpt>
<trkpt lat="-27.2744392" lon="151.2900641">
  <ele>343.07</ele>
  <time>2026-09-01T19:53:59Z</time>
  <course>10.82</course>
  <speed>0.022360679774997897</speed>
  <fix>3d</fix>
</trkpt>
<trkpt lat="-27.274439" lon="151.290064">
  <ele>343.1</ele>
  <time>2026-09-01T19:53:59Z</time>
  <course>270.0</course>
  <speed>0.0</speed>
  <fix>3d</fix>
</trkpt>
<trkpt lat="-27.2744391" lon="151.2900641">
  <ele>343.07</ele>
  <time>2026-09-01T19:53:59Z</time>
  <course>10.82</course>
  <speed>0.022360679774997897</speed>
  <fix>3d</fix>
</trkpt>
<trkpt lat="-27.274439" lon="151.290064">
  <ele>343.1</ele>
  <time>2026-09-01T19:53:59Z</time>
  <course>270.0</course>
  <speed>0.0</speed>
  <fix>3d</fix>
</trkpt>
<trkpt lat="-27.2744392" lon="151.2900641">
  <ele>343.07</ele>
  <time>2026-09-01T19:53:59Z</time>
  <course>10.82</course>
  <speed>0.022360679774997897</speed>
  <fix>3d</fix>
</trkpt>
<trkpt lat="-27.274439" lon="151.290064">
  <ele>343.1</ele>
  <time>2026-09-01T19:53:59Z</time>
  <course>270.0</course>
  <speed>0.0</speed>
  <fix>3d</fix>
</trkpt>
<trkpt lat="-27.2744391" lon="151.2900641">
  <ele>343.07</ele>
  <time>2026-09-01T19:53:59Z</time>
  <course>10.83</course>
  <speed>0.022360679774997897</speed>
  <fix>3d</fix>
</trkpt>
<trkpt lat="-27.274439" lon="151.290064">
  <ele>343.1</ele>
  <time>2026-09-01T19:53:59Z</time>
  <course>270.0</course>
  <speed>0.0</speed>
  <fix>3d</fix>
</trkpt>
<trkpt lat="-27.2744392" lon="151.2900641">
  <ele>343.08</ele>
  <time>2026-09-01T19:53:59Z</time>
  <course>10.83</course>
  <speed>0.022360679774997897</speed>
  <fix>3d</fix>
</trkpt>
<trkpt lat="-27.274439" lon="151.290064">
  <ele>343.1</ele>
  <time>2026-09-01T19:53:59Z</time>
  <course>270.0</course>
  <speed>0.0</speed>
  <fix>3d</fix>
</trkpt>
<trkpt lat="-27.2744391" lon="151.2900641">
  <ele>343.08</ele>
  <time>2026-09-01T19:53:59Z</time>
  <course>10.83</course>
  <speed>0.022360679774997897</speed>
  <fix>3d</fix>
</trkpt>
<trkpt lat="-27.274439" lon="151.290064">
  <ele>343.1</ele>
  <time>2026-09-01T19:53:59Z</time>
  <course>270.0</course>
  <speed>0.0</speed>
  <fix>3d</fix>
</trkpt>
<trkpt lat="-27.2744392" lon="151.2900641">
  <ele>343.08</ele>
  <time>2026-09-01T19:53:59Z</time>
  <course>10.83</course>
  <speed>0.022360679774997897</speed>
  <fix>3d</fix>
</trkpt>
<trkpt lat="-27.274439" lon="151.290064">
  <ele>343.1</ele>
  <time>2026-09-01T19:53:59Z</time>
  <course>270.0</course>
  <speed>0.0</speed>
  <fix>3d</fix>
</trkpt>
<trkpt lat="-27.2744391" lon="151.2900641">
  <ele>343.09</ele>
  <time>2026-09-01T19:53:59Z</time>
  <course>10.83</course>
  <speed>0.022360679774997897</speed>
  <fix>3d</fix>
</trkpt>
<trkpt lat="-27.274439" lon="151.290064">
  <ele>343.1</ele>
  <time>2026-09-01T19:53:59Z</time>
  <course>270.0</course>
  <speed>0.0</speed>
  <fix>3d</fix>
</trkpt>
<trkpt lat="-27.2744392" lon="151.2900641">
  <ele>343.09</ele>
  <time>2026-09-01T19:53:59Z</time>
  <course>10.83</course>
  <speed>0.022360679774997897</speed>
  <fix>3d</fix>
</trkpt>
<trkpt lat="-27.274439" lon="151.290064">
  <ele>343.1</ele>
  <time>2026-09-01T19:53:59Z</time>
  <course>270.0</course>
  <speed>0.0</speed>
  <fix>3d</fix>
</trkpt>
<trkpt lat="-27.2744391" lon="151.2900641">
  <ele>343.09</ele>
  <time>2026-09-01T19:53:59Z</time>
  <course>10.83</course>
  <speed>0.022360679774997897</speed>
  <fix>3d</fix>
</trkpt>
<trkpt lat="-27.274439" lon="151.290064">
  <ele>343.1</ele>
  <time>2026-09-01T19:53:59Z</time>
  <course>270.0</course>
  <speed>0.0</speed>
  <fix>3d</fix>
</trkpt>
<trkpt lat="-27.2744392" lon="151.2900641">
  <ele>343.09</ele>
  <time>2026-09-01T19:53:59Z</time>
  <course>10.83</course>
  <speed>0.022360679774997897</speed>
  <fix>3d</fix>
</trkpt>
<trkpt lat="-27.274439" lon="151.290064">
  <ele>343.1</ele>
  <time>2026-09-01T19:53:59Z</time>
  <course>270.0</course>
  <speed>0.0</speed>
  <fix>3d</fix>
</trkpt>
<trkpt lat="-27.2744391" lon="151.2900641">
  <ele>343.1</ele>
  <time>2026-09-01T19:53:59Z</time>
  <course>10.83</course>
  <speed>0.022360679774997897</speed>
  <fix>3d</fix>
</trkpt>
<trkpt lat="-27.274439" lon="151.290064">
  <ele>343.1</ele>
  <time>2026-09-01T19:53:59Z</time>
  <course>270.0</course>
  <speed>0.0</speed>
  <fix>3d</fix>
</trkpt>
<trkpt lat="-27.2744392" lon="151.2900641">
  <ele>343.1</ele>
  <time>2026-09-01T19:53:59Z</time>
  <course>10.83</course>
  <speed>0.022360679774997897</speed>
  <fix>3d</fix>
</trkpt>
<trkpt lat="-27.274439" lon="151.290064">
  <ele>343.1</ele>
  <time>2026-09-01T19:53:59Z</time>
  <course>270.0</course>
  <speed>0.0</speed>
  <fix>3d</fix>
</trkpt>
<trkpt lat="-27.2744391" lon="151.2900641">
  <ele>343.1</ele>
  <time>2026-09-01T19:53:59Z</time>
  <course>10.83</course>
  <speed>0.022360679774997897</speed>
  <fix>3d</fix>
</trkpt>
<trkpt lat="-27.274439" lon="151.290064">
  <ele>343.1</ele>
  <time>2026-09-01T19:53:59Z</time>
  <course>270.0</course>
  <speed>0.0</speed>
  <fix>3d</fix>
</trkpt>
<trkpt lat="-27.2744392" lon="151.2900641">
  <ele>343.1</ele>
  <time>2026-09-01T19:53:59Z</time>
  <course>10.83</course>
  <speed>0.022360679774997897</speed>
  <fix>3d</fix>
</trkpt>
<trkpt lat="-27.274439" lon="151.290064">
  <ele>343.1</ele>
  <time>2026-09-01T19:53:59Z</time>
  <course>270.0</course>
  <speed>0.0</speed>
  <fix>3d</fix>
</trkpt>
<trkpt lat="-27.2744391" lon="151.2900641">
  <ele>343.1</ele>
  <time>2026-09-01T19:53:59Z</time>
  <course>10.83</course>
  <speed>0.022360679774997897</speed>
  <fix>3d</fix>
</trkpt>
<trkpt lat="-27.274439" lon="151.290064">
  <ele>343.1</ele>
  <time>2026-09-01T19:53:59Z</time>
  <course>270.0</course>
  <speed>0.0</speed>
  <fix>3d</fix>
</trkpt>
<trkpt lat="-27.2744392" lon="151.2900641">
  <ele>343.1</ele>
  <time>2026-09-01T19:53:59Z</time>
  <course>10.83</course>
  <speed>0.022360679774997897</speed>
  <fix>3d</fix>
</trkpt>
<trkpt lat="-27.274439" lon="151.290064">
  <ele>343.1</ele>
  <time>2026-09-01T19:53:59Z</time>
  <course>270.0</course>
  <speed>0.0</speed>
  <fix>3d</fix>
</trkpt>
<trkpt lat="-27.2744392" lon="151.2900641">
  <ele>343.1</ele>
  <time>2026-09-01T19:53:59Z</time>
  <course>10.83</course>
  <speed>0.022360679774997897</speed>
  <fix>3d</fix>
</trkpt>
<trkpt lat="-27.274439" lon="151.290064">
  <ele>343.1</ele>
  <time>2026-09-01T19:53:59Z</time>
  <course>270.0</course>
  <speed>0.0</speed>
  <fix>3d</fix>
</trkpt>
<trkpt lat="-27.2744392" lon="151.2900641">
  <ele>343.1</ele>
  <time>2026-09-01T19:53:59Z</time>
  <course>10.83</course>
  <speed>0.022360679774997897</speed>
  <fix>3d</fix>
</trkpt>
<trkpt lat="-27.274439" lon="151.290064">
  <ele>343.1</ele>
  <time>2026-09-01T19:53:59Z</time>
  <course>270.0</course>
  <speed>0.0</speed>
  <fix>3d</fix>
</trkpt>
<trkpt lat="-27.2744392" lon="151.2900641">
  <ele>343.1</ele>
  <time>2026-09-01T19:53:59Z</time>
  <course>10.84</course>
  <speed>0.022360679774997897</speed>
  <fix>3d</fix>
</trkpt>
<trkpt lat="-27.274439" lon="151.290064">
  <ele>343.1</ele>
  <time>2026-09-01T19:53:59Z</time>
  <course>270.0</course>
  <speed>0.0</speed>
  <fix>3d</fix>
</trkpt>
<trkpt lat="-27.2744392" lon="151.2900641">
  <ele>343.1</ele>
  <time>2026-09-01T19:53:59Z</time>
  <course>10.84</course>
  <speed>0.022360679774997897</speed>
  <fix>3d</fix>
</trkpt>
<trkpt lat="-27.274439" lon="151.290064">
  <ele>343.1</ele>
  <time>2026-09-01T19:53:59Z</time>
  <course>270.0</course>
  <speed>0.0</speed>
  <fix>3d</fix>
</trkpt>
<trkpt lat="-27.2744392" lon="151.2900641">
  <ele>343.1</ele>
  <time>2026-09-01T19:53:59Z</time>
  <course>10.84</course>
  <speed>0.022360679774997897</speed>
  <fix>3d</fix>
</trkpt>
<trkpt lat="-27.274439" lon="151.290064">
  <ele>343.1</ele>
  <time>2026-09-01T19:53:59Z</time>
  <course>270.0</course>
  <speed>0.0</speed>
  <fix>3d</fix>
</trkpt>
<trkpt lat="-27.2744392" lon="151.2900641">
  <ele>343.1</ele>
  <time>2026-09-01T19:53:59Z</time>
  <course>10.84</course>
  <speed>0.022360679774997897</speed>
  <fix>3d</fix>
</trkpt>
<trkpt lat="-27.274439" lon="151.290064">
  <ele>343.1</ele>
  <time>2026-09-01T19:53:59Z</time>
  <course>270.0</course>
  <speed>0.0</speed>
  <fix>3d</fix>
</trkpt>
<trkpt lat="-27.2744392" lon="151.2900641">
  <ele>343.1</ele>
  <time>2026-09-01T19:53:59Z</time>
  <course>10.84</course>
  <speed>0.022360679774997897</speed>
  <fix>3d</fix>
</trkpt>
<trkpt lat="-27.274439" lon="151.290064">
  <ele>343.1</ele>
  <time>2026-09-01T19:53:59Z</time>
  <course>270.0</course>
  <speed>0.0</speed>
  <fix>3d</fix>
</trkpt>
<trkpt lat="-27.2744392" lon="151.2900641">
  <ele>343.1</ele>
  <time>2026-09-01T19:53:59Z</time>
  <course>10.84</course>
  <speed>0.022360679774997897</speed>
  <fix>3d</fix>
</trkpt>
<trkpt lat="-27.274439" lon="151.290064">
  <ele>343.1</ele>
  <time>2026-09-01T19:53:59Z</time>
  <course>270.0</course>
  <speed>0.0</speed>
  <fix>3d</fix>
</trkpt>
<trkpt lat="-27.2744392" lon="151.2900641">
  <ele>343.1</ele>
  <time>2026-09-01T19:53:59Z</time>
  <course>10.84</course>
  <speed>0.022360679774997897</speed>
  <fix>3d</fix>
</trkpt>
<trkpt lat="-27.274439" lon="151.290064">
  <ele>343.1</ele>
  <time>2026-09-01T19:53:59Z</time>
  <course>270.0</course>
  <speed>0.0</speed>
  <fix>3d</fix>
</trkpt>
<trkpt lat="-27.2744392" lon="151.2900641">
  <ele>343.11</ele>
  <time>2026-09-01T19:53:59Z</time>
  <course>10.84</course>
  <speed>0.022360679774997897</speed>
  <fix>3d</fix>
</trkpt>
<trkpt lat="-27.274439" lon="151.290064">
  <ele>343.1</ele>
  <time>2026-09-01T19:53:59Z</time>
  <course>270.0</course>
  <speed>0.0</speed>
  <fix>3d</fix>
</trkpt>
<trkpt lat="-27.2744392" lon="151.2900641">
  <ele>343.11</ele>
  <time>2026-09-01T19:53:59Z</time>
  <course>10.84</course>
  <speed>0.022360679774997897</speed>
  <fix>3d</fix>
</trkpt>
<trkpt lat="-27.274439" lon="151.290064">
  <ele>343.1</ele>
  <time>2026-09-01T19:53:59Z</time>
  <course>270.0</course>
  <speed>0.0</speed>
  <fix>3d</fix>
</trkpt>
<trkpt lat="-27.2744392" lon="151.2900641">
  <ele>343.11</ele>
  <time>2026-09-01T19:53:59Z</time>
  <course>10.84</course>
  <speed>0.022360679774997897</speed>
  <fix>3d</fix>
</trkpt>
<trkpt lat="-27.274439" lon="151.290064">
  <ele>343.1</ele>
  <time>2026-09-01T19:53:59Z</time>
  <course>270.0</course>
  <speed>0.0</speed>
  <fix>3d</fix>
</trkpt>
<trkpt lat="-27.2744392" lon="151.2900641">
  <ele>343.11</ele>
  <time>2026-09-01T19:53:59Z</time>
  <course>10.84</course>
  <speed>0.022360679774997897</speed>
  <fix>3d</fix>
</trkpt>
<trkpt lat="-27.274439" lon="151.290064">
  <ele>343.1</ele>
  <time>2026-09-01T19:53:59Z</time>
  <course>270.0</course>
  <speed>0.0</speed>
  <fix>3d</fix>
</trkpt>
<trkpt lat="-27.2744392" lon="151.2900641">
  <ele>343.11</ele>
  <time>2026-09-01T19:53:59Z</time>
  <course>10.84</course>
  <speed>0.022360679774997897</speed>
  <fix>3d</fix>
</trkpt>
<trkpt lat="-27.274439" lon="151.290064">
  <ele>343.1</ele>
  <time>2026-09-01T19:53:59Z</time>
  <course>270.0</course>
  <speed>0.0</speed>
  <fix>3d</fix>
</trkpt>
<trkpt lat="-27.2744392" lon="151.2900641">
  <ele>343.11</ele>
  <time>2026-09-01T19:53:59Z</time>
  <course>10.84</course>
  <speed>0.022360679774997897</speed>
  <fix>3d</fix>
</trkpt>
<trkpt lat="-27.274439" lon="151.290064">
  <ele>343.1</ele>
  <time>2026-09-01T19:53:59Z</time>
  <course>270.0</course>
  <speed>0.0</speed>
  <fix>3d</fix>
</trkpt>
<trkpt lat="-27.2744392" lon="151.2900641">
  <ele>343.12</ele>
  <time>2026-09-01T19:53:59Z</time>
  <course>10.84</course>
  <speed>0.022360679774997897</speed>
  <fix>3d</fix>
</trkpt>
<trkpt lat="-27.274439" lon="151.290064">
  <ele>343.1</ele>
  <time>2026-09-01T19:53:59Z</time>
  <course>270.0</course>
  <speed>0.0</speed>
  <fix>3d</fix>
</trkpt>
<trkpt lat="-27.2744392" lon="151.2900641">
  <ele>343.12</ele>
  <time>2026-09-01T19:53:59Z</time>
  <course>10.84</course>
  <speed>0.022360679774997897</speed>
  <fix>3d</fix>
</trkpt>
<trkpt lat="-27.274439" lon="151.290064">
  <ele>343.1</ele>
  <time>2026-09-01T19:53:59Z</time>
  <course>270.0</course>
  <speed>0.0</speed>
  <fix>3d</fix>
</trkpt>
<trkpt lat="-27.2744392" lon="151.2900641">
  <ele>343.12</ele>
  <time>2026-09-01T19:53:59Z</time>
  <course>10.85</course>
  <speed>0.022360679774997897</speed>
  <fix>3d</fix>
</trkpt>
<trkpt lat="-27.274439" lon="151.290064">
  <ele>343.1</ele>
  <time>2026-09-01T19:53:59Z</time>
  <course>270.0</course>
  <speed>0.0</speed>
  <fix>3d</fix>
</trkpt>
<trkpt lat="-27.2744392" lon="151.2900641">
  <ele>343.12</ele>
  <time>2026-09-01T19:53:59Z</time>
  <course>10.85</course>
  <speed>0.022360679774997897</speed>
  <fix>3d</fix>
</trkpt>
<trkpt lat="-27.274439" lon="151.290064">
  <ele>343.1</ele>
  <time>2026-09-01T19:53:59Z</time>
  <course>270.0</course>
  <speed>0.0</speed>
  <fix>3d</fix>
</trkpt>
<trkpt lat="-27.2744392" lon="151.2900641">
  <ele>343.12</ele>
  <time>2026-09-01T19:53:59Z</time>
  <course>10.85</course>
  <speed>0.022360679774997897</speed>
  <fix>3d</fix>
</trkpt>
<trkpt lat="-27.274439" lon="151.290064">
  <ele>343.1</ele>
  <time>2026-09-01T19:53:59Z</time>
  <course>270.0</course>
  <speed>0.0</speed>
  <fix>3d</fix>
</trkpt>
<trkpt lat="-27.2744392" lon="151.2900641">
  <ele>343.12</ele>
  <time>2026-09-01T19:53:59Z</time>
  <course>10.85</course>
  <speed>0.022360679774997897</speed>
  <fix>3d</fix>
</trkpt>
<trkpt lat="-27.274439" lon="151.290064">
  <ele>343.1</ele>
  <time>2026-09-01T19:53:59Z</time>
  <course>270.0</course>
  <speed>0.0</speed>
  <fix>3d</fix>
</trkpt>
<trkpt lat="-27.2744392" lon="151.2900641">
  <ele>343.12</ele>
  <time>2026-09-01T19:53:59Z</time>
  <course>10.85</course>
  <speed>0.022360679774997897</speed>
  <fix>3d</fix>
</trkpt>
<trkpt lat="-27.274439" lon="151.290064">
  <ele>343.1</ele>
  <time>2026-09-01T19:53:59Z</time>
  <course>270.0</course>
  <speed>0.0</speed>
  <fix>3d</fix>
</trkpt>
<trkpt lat="-27.2744392" lon="151.2900641">
  <ele>343.12</ele>
  <time>2026-09-01T19:53:59Z</time>
  <course>10.85</course>
  <speed>0.022360679774997897</speed>
  <fix>3d</fix>
</trkpt>
<trkpt lat="-27.274439" lon="151.290064">
  <ele>343.1</ele>
  <time>2026-09-01T19:53:59Z</time>
  <course>270.0</course>
  <speed>0.0</speed>
  <fix>3d</fix>
</trkpt>
<trkpt lat="-27.2744392" lon="151.2900641">
  <ele>343.13</ele>
  <time>2026-09-01T19:53:59Z</time>
  <course>10.85</course>
  <speed>0.022360679774997897</speed>
  <fix>3d</fix>
</trkpt>
<trkpt lat="-27.274439" lon="151.290064">
  <ele>343.1</ele>
  <time>2026-09-01T19:53:59Z</time>
  <course>270.0</course>
  <speed>0.0</speed>
  <fix>3d</fix>
</trkpt>
<trkpt lat="-27.2744392" lon="151.2900641">
  <ele>343.13</ele>
  <time>2026-09-01T19:53:59Z</time>
  <course>10.85</course>
  <speed>0.022360679774997897</speed>
  <fix>3d</fix>
</trkpt>
<trkpt lat="-27.274439" lon="151.290064">
  <ele>343.1</ele>
  <time>2026-09-01T19:53:59Z</time>
  <course>270.0</course>
  <speed>0.0</speed>
  <fix>3d</fix>
</trkpt>
<trkpt lat="-27.2744392" lon="151.2900641">
  <ele>343.13</ele>
  <time>2026-09-01T19:53:59Z</time>
  <course>10.85</course>
  <speed>0.022360679774997897</speed>
  <fix>3d</fix>
</trkpt>
<trkpt lat="-27.274439" lon="151.290064">
  <ele>343.1</ele>
  <time>2026-09-01T19:53:59Z</time>
  <course>270.0</course>
  <speed>0.0</speed>
  <fix>3d</fix>
</trkpt>
<trkpt lat="-27.2744391" lon="151.2900641">
  <ele>343.13</ele>
  <time>2026-09-01T19:53:59Z</time>
  <course>10.85</course>
  <speed>0.022360679774997897</speed>
  <fix>3d</fix>
</trkpt>
<trkpt lat="-27.274439" lon="151.290064">
  <ele>343.1</ele>
  <time>2026-09-01T19:53:59Z</time>
  <course>270.0</course>
  <speed>0.0</speed>
  <fix>3d</fix>
</trkpt>
<trkpt lat="-27.2744392" lon="151.2900641">
  <ele>343.13</ele>
  <time>2026-09-01T19:53:59Z</time>
  <course>10.85</course>
  <speed>0.022360679774997897</speed>
  <fix>3d</fix>
</trkpt>
<trkpt lat="-27.274439" lon="151.290064">
  <ele>343.1</ele>
  <time>2026-09-01T19:53:59Z</time>
  <course>270.0</course>
  <speed>0.0</speed>
  <fix>3d</fix>
</trkpt>
<trkpt lat="-27.2744391" lon="151.2900641">
  <ele>343.13</ele>
  <time>2026-09-01T19:53:59Z</time>
  <course>10.85</course>
  <speed>0.022360679774997897</speed>
  <fix>3d</fix>
</trkpt>
<trkpt lat="-27.274439" lon="151.290064">
  <ele>343.1</ele>
  <time>2026-09-01T19:53:59Z</time>
  <course>270.0</course>
  <speed>0.0</speed>
  <fix>3d</fix>
</trkpt>
<trkpt lat="-27.2744392" lon="151.2900641">
  <ele>343.14</ele>
  <time>2026-09-01T19:53:59Z</time>
  <course>10.85</course>
  <speed>0.022360679774997897</speed>
  <fix>3d</fix>
</trkpt>
<trkpt lat="-27.274439" lon="151.290064">
  <ele>343.1</ele>
  <time>2026-09-01T19:53:59Z</time>
  <course>270.0</course>
  <speed>0.0</speed>
  <fix>3d</fix>
</trkpt>
<trkpt lat="-27.2744391" lon="151.2900641">
  <ele>343.14</ele>
  <time>2026-09-01T19:53:59Z</time>
  <course>10.86</course>
  <speed>0.022360679774997897</speed>
  <fix>3d</fix>
</trkpt>
<trkpt lat="-27.274439" lon="151.290064">
  <ele>343.1</ele>
  <time>2026-09-01T19:53:59Z</time>
  <course>270.0</course>
  <speed>0.0</speed>
  <fix>3d</fix>
</trkpt>
<trkpt lat="-27.2744392" lon="151.2900641">
  <ele>343.14</ele>
  <time>2026-09-01T19:53:59Z</time>
  <course>10.86</course>
  <speed>0.022360679774997897</speed>
  <fix>3d</fix>
</trkpt>
<trkpt lat="-27.274439" lon="151.290064">
  <ele>343.1</ele>
  <time>2026-09-01T19:53:59Z</time>
  <course>270.0</course>
  <speed>0.0</speed>
  <fix>3d</fix>
</trkpt>
<trkpt lat="-27.2744392" lon="151.2900641">
  <ele>343.14</ele>
  <time>2026-09-01T19:53:59Z</time>
  <course>10.86</course>
  <speed>0.022360679774997897</speed>
  <fix>3d</fix>
</trkpt>
<trkpt lat="-27.274439" lon="151.290064">
  <ele>343.1</ele>
  <time>2026-09-01T19:53:59Z</time>
  <course>270.0</course>
  <speed>0.0</speed>
  <fix>3d</fix>
</trkpt>
<trkpt lat="-27.2744392" lon="151.2900641">
  <ele>343.14</ele>
  <time>2026-09-01T19:53:59Z</time>
  <course>10.86</course>
  <speed>0.022360679774997897</speed>
  <fix>3d</fix>
</trkpt>
<trkpt lat="-27.274439" lon="151.290064">
  <ele>343.1</ele>
  <time>2026-09-01T19:53:59Z</time>
  <course>270.0</course>
  <speed>0.0</speed>
  <fix>3d</fix>
</trkpt>
<trkpt lat="-27.2744392" lon="151.2900641">
  <ele>343.14</ele>
  <time>2026-09-01T19:53:59Z</time>
  <course>10.86</course>
  <speed>0.022360679774997897</speed>
  <fix>3d</fix>
</trkpt>
<trkpt lat="-27.274439" lon="151.290064">
  <ele>343.1</ele>
  <time>2026-09-01T19:53:59Z</time>
  <course>270.0</course>
  <speed>0.0</speed>
  <fix>3d</fix>
</trkpt>
<trkpt lat="-27.2744392" lon="151.2900641">
  <ele>343.14</ele>
  <time>2026-09-01T19:53:59Z</time>
  <course>10.86</course>
  <speed>0.022360679774997897</speed>
  <fix>3d</fix>
</trkpt>
<trkpt lat="-27.274439" lon="151.290064">
  <ele>343.1</ele>
  <time>2026-09-01T19:53:59Z</time>
  <course>270.0</course>
  <speed>0.0</speed>
  <fix>3d</fix>
</trkpt>
<trkpt lat="-27.2744391" lon="151.2900641">
  <ele>343.15</ele>
  <time>2026-09-01T19:53:59Z</time>
  <course>10.86</course>
  <speed>0.022360679774997897</speed>
  <fix>3d</fix>
</trkpt>
<trkpt lat="-27.274439" lon="151.290064">
  <ele>343.1</ele>
  <time>2026-09-01T19:53:59Z</time>
  <course>270.0</course>
  <speed>0.0</speed>
  <fix>3d</fix>
</trkpt>
<trkpt lat="-27.2744392" lon="151.2900641">
  <ele>343.15</ele>
  <time>2026-09-01T19:53:59Z</time>
  <course>10.86</course>
  <speed>0.022360679774997897</speed>
  <fix>3d</fix>
</trkpt>
<trkpt lat="-27.274439" lon="151.290064">
  <ele>343.1</ele>
  <time>2026-09-01T19:53:59Z</time>
  <course>270.0</course>
  <speed>0.0</speed>
  <fix>3d</fix>
</trkpt>
<trkpt lat="-27.2744391" lon="151.2900641">
  <ele>343.15</ele>
  <time>2026-09-01T19:53:59Z</time>
  <course>10.86</course>
  <speed>0.022360679774997897</speed>
  <fix>3d</fix>
</trkpt>
<trkpt lat="-27.274439" lon="151.290064">
  <ele>343.1</ele>
  <time>2026-09-01T19:53:59Z</time>
  <course>270.0</course>
  <speed>0.0</speed>
  <fix>3d</fix>
</trkpt>
<trkpt lat="-27.2744392" lon="151.2900641">
  <ele>343.15</ele>
  <time>2026-09-01T19:53:59Z</time>
  <course>10.86</course>
  <speed>0.022360679774997897</speed>
  <fix>3d</fix>
</trkpt>
<trkpt lat="-27.274439" lon="151.290064">
  <ele>343.1</ele>
  <time>2026-09-01T19:53:59Z</time>
  <course>270.0</course>
  <speed>0.0</speed>
  <fix>3d</fix>
</trkpt>
<trkpt lat="-27.2744391" lon="151.2900641">
  <ele>343.16</ele>
  <time>2026-09-01T19:53:59Z</time>
  <course>10.86</course>
  <speed>0.022360679774997897</speed>
  <fix>3d</fix>
</trkpt>
<trkpt lat="-27.274439" lon="151.290064">
  <ele>343.1</ele>
  <time>2026-09-01T19:53:59Z</time>
  <course>270.0</course>
  <speed>0.0</speed>
  <fix>3d</fix>
</trkpt>
<trkpt lat="-27.2744392" lon="151.2900641">
  <ele>343.16</ele>
  <time>2026-09-01T19:53:59Z</time>
  <course>10.86</course>
  <speed>0.022360679774997897</speed>
  <fix>3d</fix>
</trkpt>
<trkpt lat="-27.274439" lon="151.290064">
  <ele>343.1</ele>
  <time>2026-09-01T19:53:59Z</time>
  <course>270.0</course>
  <speed>0.0</speed>
  <fix>3d</fix>
</trkpt>
<trkpt lat="-27.2744392" lon="151.2900641">
  <ele>343.16</ele>
  <time>2026-09-01T19:53:59Z</time>
  <course>10.86</course>
  <speed>0.022360679774997897</speed>
  <fix>3d</fix>
</trkpt>
<trkpt lat="-27.274439" lon="151.290064">
  <ele>343.1</ele>
  <time>2026-09-01T19:53:59Z</time>
  <course>270.0</course>
  <speed>0.0</speed>
  <fix>3d</fix>
</trkpt>
<trkpt lat="-27.2744392" lon="151.2900641">
  <ele>343.16</ele>
  <time>2026-09-01T19:53:59Z</time>
  <course>10.86</course>
  <speed>0.022360679774997897</speed>
  <fix>3d</fix>
</trkpt>
<trkpt lat="-27.274439" lon="151.290064">
  <ele>343.1</ele>
  <time>2026-09-01T19:53:59Z</time>
  <course>270.0</course>
  <speed>0.0</speed>
  <fix>3d</fix>
</trkpt>
<trkpt lat="-27.2744392" lon="151.2900641">
  <ele>343.16</ele>
  <time>2026-09-01T19:53:59Z</time>
  <course>10.87</course>
  <speed>0.022360679774997897</speed>
  <fix>3d</fix>
</trkpt>
<trkpt lat="-27.274439" lon="151.290064">
  <ele>343.1</ele>
  <time>2026-09-01T19:53:59Z</time>
  <course>270.0</course>
  <speed>0.0</speed>
  <fix>3d</fix>
</trkpt>
<trkpt lat="-27.2744392" lon="151.2900641">
  <ele>343.16</ele>
  <time>2026-09-01T19:53:59Z</time>
  <course>10.87</course>
  <speed>0.022360679774997897</speed>
  <fix>3d</fix>
</trkpt>
<trkpt lat="-27.274439" lon="151.290064">
  <ele>343.1</ele>
  <time>2026-09-01T19:53:59Z</time>
  <course>270.0</course>
  <speed>0.0</speed>
  <fix>3d</fix>
</trkpt>
<trkpt lat="-27.2744392" lon="151.2900641">
  <ele>343.15</ele>
  <time>2026-09-01T19:53:59Z</time>
  <course>10.87</course>
  <speed>0.022360679774997897</speed>
  <fix>3d</fix>
</trkpt>
<trkpt lat="-27.274439" lon="151.290064">
  <ele>343.1</ele>
  <time>2026-09-01T19:53:59Z</time>
  <course>270.0</course>
  <speed>0.0</speed>
  <fix>3d</fix>
</trkpt>
<trkpt lat="-27.2744392" lon="151.2900641">
  <ele>343.15</ele>
  <time>2026-09-01T19:53:59Z</time>
  <course>10.87</course>
  <speed>0.022360679774997897</speed>
  <fix>3d</fix>
</trkpt>
<trkpt lat="-27.274439" lon="151.290064">
  <ele>343.1</ele>
  <time>2026-09-01T19:53:59Z</time>
  <course>270.0</course>
  <speed>0.0</speed>
  <fix>3d</fix>
</trkpt>
<trkpt lat="-27.2744392" lon="151.2900641">
  <ele>343.15</ele>
  <time>2026-09-01T19:53:59Z</time>
  <course>10.87</course>
  <speed>0.022360679774997897</speed>
  <fix>3d</fix>
</trkpt>
<trkpt lat="-27.274439" lon="151.290064">
  <ele>343.1</ele>
  <time>2026-09-01T19:53:59Z</time>
  <course>270.0</course>
  <speed>0.0</speed>
  <fix>3d</fix>
</trkpt>
<trkpt lat="-27.2744392" lon="151.2900641">
  <ele>343.15</ele>
  <time>2026-09-01T19:53:59Z</time>
  <course>10.87</course>
  <speed>0.022360679774997897</speed>
  <fix>3d</fix>
</trkpt>
<trkpt lat="-27.274439" lon="151.290064">
  <ele>343.1</ele>
  <time>2026-09-01T19:53:59Z</time>
  <course>270.0</course>
  <speed>0.0</speed>
  <fix>3d</fix>
</trkpt>
<trkpt lat="-27.2744392" lon="151.2900641">
  <ele>343.1</ele>
  <time>2026-09-01T19:54:00Z</time>
  <course>10.87</course>
  <speed>0.022360679774997897</speed>
  <fix>3d</fix>
</trkpt>
<trkpt lat="-27.274439" lon="151.290064">
  <ele>343.1</ele>
  <time>2026-09-01T19:54:00Z</time>
  <course>270.0</course>
  <speed>0.0</speed>
  <fix>3d</fix>
</trkpt>
<trkpt lat="-27.2744392" lon="151.2900641">
  <ele>343.1</ele>
  <time>2026-09-01T19:54:00Z</time>
  <course>10.87</course>
  <speed>0.022360679774997897</speed>
  <fix>3d</fix>
</trkpt>
<trkpt lat="-27.274439" lon="151.290064">
  <ele>343.1</ele>
  <time>2026-09-01T19:54:00Z</time>
  <course>270.0</course>
  <speed>0.0</speed>
  <fix>3d</fix>
</trkpt>
<trkpt lat="-27.2744392" lon="151.2900641">
  <ele>343.1</ele>
  <time>2026-09-01T19:54:00Z</time>
  <course>10.87</course>
  <speed>0.022360679774997897</speed>
  <fix>3d</fix>
</trkpt>
<trkpt lat="-27.274439" lon="151.290064">
  <ele>343.1</ele>
  <time>2026-09-01T19:54:00Z</time>
  <course>270.0</course>
  <speed>0.0</speed>
  <fix>3d</fix>
</trkpt>
<trkpt lat="-27.2744392" lon="151.2900641">
  <ele>343.1</ele>
  <time>2026-09-01T19:54:00Z</time>
  <course>10.87</course>
  <speed>0.022360679774997897</speed>
  <fix>3d</fix>
</trkpt>
<trkpt lat="-27.274439" lon="151.290064">
  <ele>343.1</ele>
  <time>2026-09-01T19:54:00Z</time>
  <course>270.0</course>
  <speed>0.0</speed>
  <fix>3d</fix>
</trkpt>
<trkpt lat="-27.2744392" lon="151.2900641">
  <ele>343.1</ele>
  <time>2026-09-01T19:54:00Z</time>
  <course>10.87</course>
  <speed>0.022360679774997897</speed>
  <fix>3d</fix>
</trkpt>
<trkpt lat="-27.274439" lon="151.290064">
  <ele>343.1</ele>
  <time>2026-09-01T19:54:00Z</time>
  <course>270.0</course>
  <speed>0.0</speed>
  <fix>3d</fix>
</trkpt>
<trkpt lat="-27.2744392" lon="151.2900641">
  <ele>343.1</ele>
  <time>2026-09-01T19:54:00Z</time>
  <course>10.87</course>
  <speed>0.022360679774997897</speed>
  <fix>3d</fix>
</trkpt>
<trkpt lat="-27.274439" lon="151.290064">
  <ele>343.1</ele>
  <time>2026-09-01T19:54:00Z</time>
  <course>270.0</course>
  <speed>0.0</speed>
  <fix>3d</fix>
</trkpt>
<trkpt lat="-27.2744392" lon="151.2900641">
  <ele>343.1</ele>
  <time>2026-09-01T19:54:00Z</time>
  <course>10.87</course>
  <speed>0.022360679774997897</speed>
  <fix>3d</fix>
</trkpt>
<trkpt lat="-27.274439" lon="151.290064">
  <ele>343.1</ele>
  <time>2026-09-01T19:54:00Z</time>
  <course>270.0</course>
  <speed>0.0</speed>
  <fix>3d</fix>
</trkpt>
<trkpt lat="-27.2744392" lon="151.2900641">
  <ele>343.1</ele>
  <time>2026-09-01T19:54:00Z</time>
  <course>10.88</course>
  <speed>0.022360679774997897</speed>
  <fix>3d</fix>
</trkpt>
<trkpt lat="-27.274439" lon="151.290064">
  <ele>343.1</ele>
  <time>2026-09-01T19:54:00Z</time>
  <course>270.0</course>
  <speed>0.0</speed>
  <fix>3d</fix>
</trkpt>
<trkpt lat="-27.2744392" lon="151.2900641">
  <ele>343.1</ele>
  <time>2026-09-01T19:54:00Z</time>
  <course>10.88</course>
  <speed>0.022360679774997897</speed>
  <fix>3d</fix>
</trkpt>
<trkpt lat="-27.274439" lon="151.290064">
  <ele>343.1</ele>
  <time>2026-09-01T19:54:00Z</time>
  <course>270.0</course>
  <speed>0.0</speed>
  <fix>3d</fix>
</trkpt>
<trkpt lat="-27.2744392" lon="151.2900641">
  <ele>343.1</ele>
  <time>2026-09-01T19:54:00Z</time>
  <course>10.88</course>
  <speed>0.022360679774997897</speed>
  <fix>3d</fix>
</trkpt>
<trkpt lat="-27.274439" lon="151.290064">
  <ele>343.1</ele>
  <time>2026-09-01T19:54:00Z</time>
  <course>270.0</course>
  <speed>0.0</speed>
  <fix>3d</fix>
</trkpt>
<trkpt lat="-27.2744392" lon="151.2900641">
  <ele>343.1</ele>
  <time>2026-09-01T19:54:00Z</time>
  <course>10.88</course>
  <speed>0.022360679774997897</speed>
  <fix>3d</fix>
</trkpt>
<trkpt lat="-27.274439" lon="151.290064">
  <ele>343.1</ele>
  <time>2026-09-01T19:54:00Z</time>
  <course>270.0</course>
  <speed>0.0</speed>
  <fix>3d</fix>
</trkpt>
<trkpt lat="-27.2744392" lon="151.2900641">
  <ele>343.11</ele>
  <time>2026-09-01T19:54:00Z</time>
  <course>10.88</course>
  <speed>0.022360679774997897</speed>
  <fix>3d</fix>
</trkpt>
<trkpt lat="-27.274439" lon="151.290064">
  <ele>343.1</ele>
  <time>2026-09-01T19:54:00Z</time>
  <course>270.0</course>
  <speed>0.0</speed>
  <fix>3d</fix>
</trkpt>
<trkpt lat="-27.2744392" lon="151.2900641">
  <ele>343.11</ele>
  <time>2026-09-01T19:54:00Z</time>
  <course>10.88</course>
  <speed>0.022360679774997897</speed>
  <fix>3d</fix>
</trkpt>
<trkpt lat="-27.274439" lon="151.290064">
  <ele>343.1</ele>
  <time>2026-09-01T19:54:00Z</time>
  <course>270.0</course>
  <speed>0.0</speed>
  <fix>3d</fix>
</trkpt>
<trkpt lat="-27.2744392" lon="151.2900641">
  <ele>343.11</ele>
  <time>2026-09-01T19:54:00Z</time>
  <course>10.88</course>
  <speed>0.022360679774997897</speed>
  <fix>3d</fix>
</trkpt>
<trkpt lat="-27.274439" lon="151.290064">
  <ele>343.1</ele>
  <time>2026-09-01T19:54:00Z</time>
  <course>270.0</course>
  <speed>0.0</speed>
  <fix>3d</fix>
</trkpt>
<trkpt lat="-27.2744392" lon="151.2900641">
  <ele>343.11</ele>
  <time>2026-09-01T19:54:00Z</time>
  <course>10.88</course>
  <speed>0.022360679774997897</speed>
  <fix>3d</fix>
</trkpt>
<trkpt lat="-27.274439" lon="151.290064">
  <ele>343.1</ele>
  <time>2026-09-01T19:54:00Z</time>
  <course>270.0</course>
  <speed>0.0</speed>
  <fix>3d</fix>
</trkpt>
<trkpt lat="-27.2744392" lon="151.2900641">
  <ele>343.1</ele>
  <time>2026-09-01T19:54:00Z</time>
  <course>10.88</course>
  <speed>0.022360679774997897</speed>
  <fix>3d</fix>
</trkpt>
<trkpt lat="-27.274439" lon="151.290064">
  <ele>343.1</ele>
  <time>2026-09-01T19:54:00Z</time>
  <course>270.0</course>
  <speed>0.0</speed>
  <fix>3d</fix>
</trkpt>
<trkpt lat="-27.2744392" lon="151.2900641">
  <ele>343.1</ele>
  <time>2026-09-01T19:54:00Z</time>
  <course>10.88</course>
  <speed>0.022360679774997897</speed>
  <fix>3d</fix>
</trkpt>
<trkpt lat="-27.274439" lon="151.290064">
  <ele>343.1</ele>
  <time>2026-09-01T19:54:00Z</time>
  <course>270.0</course>
  <speed>0.0</speed>
  <fix>3d</fix>
</trkpt>
<trkpt lat="-27.2744392" lon="151.2900641">
  <ele>343.1</ele>
  <time>2026-09-01T19:54:00Z</time>
  <course>10.88</course>
  <speed>0.022360679774997897</speed>
  <fix>3d</fix>
</trkpt>
<trkpt lat="-27.274439" lon="151.290064">
  <ele>343.1</ele>
  <time>2026-09-01T19:54:00Z</time>
  <course>270.0</course>
  <speed>0.0</speed>
  <fix>3d</fix>
</trkpt>
<trkpt lat="-27.2744392" lon="151.2900641">
  <ele>343.1</ele>
  <time>2026-09-01T19:54:00Z</time>
  <course>10.88</course>
  <speed>0.022360679774997897</speed>
  <fix>3d</fix>
</trkpt>
<trkpt lat="-27.274439" lon="151.290064">
  <ele>343.1</ele>
  <time>2026-09-01T19:54:00Z</time>
  <course>270.0</course>
  <speed>0.0</speed>
  <fix>3d</fix>
</trkpt>
<trkpt lat="-27.2744392" lon="151.2900641">
  <ele>343.1</ele>
  <time>2026-09-01T19:54:00Z</time>
  <course>10.88</course>
  <speed>0.022360679774997897</speed>
  <fix>3d</fix>
</trkpt>
<trkpt lat="-27.274439" lon="151.290064">
  <ele>343.1</ele>
  <time>2026-09-01T19:54:00Z</time>
  <course>270.0</course>
  <speed>0.0</speed>
  <fix>3d</fix>
</trkpt>
<trkpt lat="-27.2744392" lon="151.2900641">
  <ele>343.1</ele>
  <time>2026-09-01T19:54:00Z</time>
  <course>10.89</course>
  <speed>0.022360679774997897</speed>
  <fix>3d</fix>
</trkpt>
<trkpt lat="-27.274439" lon="151.290064">
  <ele>343.1</ele>
  <time>2026-09-01T19:54:00Z</time>
  <course>270.0</course>
  <speed>0.0</speed>
  <fix>3d</fix>
</trkpt>
<trkpt lat="-27.2744392" lon="151.2900641">
  <ele>343.1</ele>
  <time>2026-09-01T19:54:00Z</time>
  <course>10.89</course>
  <speed>0.022360679774997897</speed>
  <fix>3d</fix>
</trkpt>
<trkpt lat="-27.274439" lon="151.290064">
  <ele>343.1</ele>
  <time>2026-09-01T19:54:00Z</time>
  <course>270.0</course>
  <speed>0.0</speed>
  <fix>3d</fix>
</trkpt>
<trkpt lat="-27.2744392" lon="151.2900641">
  <ele>343.1</ele>
  <time>2026-09-01T19:54:00Z</time>
  <course>10.89</course>
  <speed>0.022360679774997897</speed>
  <fix>3d</fix>
</trkpt>
<trkpt lat="-27.274439" lon="151.290064">
  <ele>343.1</ele>
  <time>2026-09-01T19:54:00Z</time>
  <course>270.0</course>
  <speed>0.0</speed>
  <fix>3d</fix>
</trkpt>
<trkpt lat="-27.2744392" lon="151.2900641">
  <ele>343.1</ele>
  <time>2026-09-01T19:54:00Z</time>
  <course>10.89</course>
  <speed>0.022360679774997897</speed>
  <fix>3d</fix>
</trkpt>
<trkpt lat="-27.274439" lon="151.290064">
  <ele>343.1</ele>
  <time>2026-09-01T19:54:00Z</time>
  <course>270.0</course>
  <speed>0.0</speed>
  <fix>3d</fix>
</trkpt>
<trkpt lat="-27.2744392" lon="151.2900641">
  <ele>343.11</ele>
  <time>2026-09-01T19:54:00Z</time>
  <course>10.89</course>
  <speed>0.022360679774997897</speed>
  <fix>3d</fix>
</trkpt>
<trkpt lat="-27.274439" lon="151.290064">
  <ele>343.1</ele>
  <time>2026-09-01T19:54:00Z</time>
  <course>270.0</course>
  <speed>0.0</speed>
  <fix>3d</fix>
</trkpt>
<trkpt lat="-27.2744392" lon="151.2900641">
  <ele>343.11</ele>
  <time>2026-09-01T19:54:00Z</time>
  <course>10.89</course>
  <speed>0.022360679774997897</speed>
  <fix>3d</fix>
</trkpt>
<trkpt lat="-27.274439" lon="151.290064">
  <ele>343.1</ele>
  <time>2026-09-01T19:54:00Z</time>
  <course>270.0</course>
  <speed>0.0</speed>
  <fix>3d</fix>
</trkpt>
<trkpt lat="-27.2744392" lon="151.2900641">
  <ele>343.11</ele>
  <time>2026-09-01T19:54:00Z</time>
  <course>10.89</course>
  <speed>0.022360679774997897</speed>
  <fix>3d</fix>
</trkpt>
<trkpt lat="-27.274439" lon="151.290064">
  <ele>343.1</ele>
  <time>2026-09-01T19:54:00Z</time>
  <course>270.0</course>
  <speed>0.0</speed>
  <fix>3d</fix>
</trkpt>
<trkpt lat="-27.2744392" lon="151.2900641">
  <ele>343.11</ele>
  <time>2026-09-01T19:54:00Z</time>
  <course>10.89</course>
  <speed>0.022360679774997897</speed>
  <fix>3d</fix>
</trkpt>
<trkpt lat="-27.274439" lon="151.290064">
  <ele>343.1</ele>
  <time>2026-09-01T19:54:00Z</time>
  <course>270.0</course>
  <speed>0.0</speed>
  <fix>3d</fix>
</trkpt>
<trkpt lat="-27.2744392" lon="151.2900641">
  <ele>343.11</ele>
  <time>2026-09-01T19:54:00Z</time>
  <course>10.89</course>
  <speed>0.022360679774997897</speed>
  <fix>3d</fix>
</trkpt>
<trkpt lat="-27.274439" lon="151.290064">
  <ele>343.1</ele>
  <time>2026-09-01T19:54:00Z</time>
  <course>270.0</course>
  <speed>0.0</speed>
  <fix>3d</fix>
</trkpt>
<trkpt lat="-27.2744392" lon="151.2900641">
  <ele>343.12</ele>
  <time>2026-09-01T19:54:00Z</time>
  <course>10.89</course>
  <speed>0.022360679774997897</speed>
  <fix>3d</fix>
</trkpt>
<trkpt lat="-27.274439" lon="151.290064">
  <ele>343.1</ele>
  <time>2026-09-01T19:54:00Z</time>
  <course>270.0</course>
  <speed>0.0</speed>
  <fix>3d</fix>
</trkpt>
<trkpt lat="-27.2744392" lon="151.2900641">
  <ele>343.12</ele>
  <time>2026-09-01T19:54:00Z</time>
  <course>10.89</course>
  <speed>0.022360679774997897</speed>
  <fix>3d</fix>
</trkpt>
<trkpt lat="-27.274439" lon="151.290064">
  <ele>343.1</ele>
  <time>2026-09-01T19:54:00Z</time>
  <course>270.0</course>
  <speed>0.0</speed>
  <fix>3d</fix>
</trkpt>
<trkpt lat="-27.2744392" lon="151.2900641">
  <ele>343.12</ele>
  <time>2026-09-01T19:54:00Z</time>
  <course>10.89</course>
  <speed>0.022360679774997897</speed>
  <fix>3d</fix>
</trkpt>
<trkpt lat="-27.274439" lon="151.290064">
  <ele>343.1</ele>
  <time>2026-09-01T19:54:00Z</time>
  <course>270.0</course>
  <speed>0.0</speed>
  <fix>3d</fix>
</trkpt>
<trkpt lat="-27.2744392" lon="151.2900641">
  <ele>343.12</ele>
  <time>2026-09-01T19:54:00Z</time>
  <course>10.9</course>
  <speed>0.022360679774997897</speed>
  <fix>3d</fix>
</trkpt>
<trkpt lat="-27.274439" lon="151.290064">
  <ele>343.1</ele>
  <time>2026-09-01T19:54:00Z</time>
  <course>270.0</course>
  <speed>0.0</speed>
  <fix>3d</fix>
</trkpt>
<trkpt lat="-27.2744392" lon="151.2900641">
  <ele>343.12</ele>
  <time>2026-09-01T19:54:00Z</time>
  <course>10.9</course>
  <speed>0.022360679774997897</speed>
  <fix>3d</fix>
</trkpt>
<trkpt lat="-27.274439" lon="151.290064">
  <ele>343.1</ele>
  <time>2026-09-01T19:54:00Z</time>
  <course>270.0</course>
  <speed>0.0</speed>
  <fix>3d</fix>
</trkpt>
<trkpt lat="-27.2744392" lon="151.2900641">
  <ele>343.12</ele>
  <time>2026-09-01T19:54:00Z</time>
  <course>10.9</course>
  <speed>0.022360679774997897</speed>
  <fix>3d</fix>
</trkpt>
<trkpt lat="-27.274439" lon="151.290064">
  <ele>343.1</ele>
  <time>2026-09-01T19:54:00Z</time>
  <course>270.0</course>
  <speed>0.0</speed>
  <fix>3d</fix>
</trkpt>
<trkpt lat="-27.2744392" lon="151.2900641">
  <ele>343.12</ele>
  <time>2026-09-01T19:54:00Z</time>
  <course>10.9</course>
  <speed>0.022360679774997897</speed>
  <fix>3d</fix>
</trkpt>
<trkpt lat="-27.274439" lon="151.290064">
  <ele>343.1</ele>
  <time>2026-09-01T19:54:00Z</time>
  <course>270.0</course>
  <speed>0.0</speed>
  <fix>3d</fix>
</trkpt>
<trkpt lat="-27.2744392" lon="151.2900641">
  <ele>343.12</ele>
  <time>2026-09-01T19:54:00Z</time>
  <course>10.9</course>
  <speed>0.022360679774997897</speed>
  <fix>3d</fix>
</trkpt>
<trkpt lat="-27.274439" lon="151.290064">
  <ele>343.1</ele>
  <time>2026-09-01T19:54:00Z</time>
  <course>270.0</course>
  <speed>0.0</speed>
  <fix>3d</fix>
</trkpt>
<trkpt lat="-27.2744392" lon="151.2900641">
  <ele>343.12</ele>
  <time>2026-09-01T19:54:00Z</time>
  <course>10.9</course>
  <speed>0.022360679774997897</speed>
  <fix>3d</fix>
</trkpt>
<trkpt lat="-27.274439" lon="151.290064">
  <ele>343.1</ele>
  <time>2026-09-01T19:54:00Z</time>
  <course>270.0</course>
  <speed>0.0</speed>
  <fix>3d</fix>
</trkpt>
<trkpt lat="-27.2744392" lon="151.2900641">
  <ele>343.12</ele>
  <time>2026-09-01T19:54:00Z</time>
  <course>10.9</course>
  <speed>0.022360679774997897</speed>
  <fix>3d</fix>
</trkpt>
<trkpt lat="-27.274439" lon="151.290064">
  <ele>343.1</ele>
  <time>2026-09-01T19:54:00Z</time>
  <course>270.0</course>
  <speed>0.0</speed>
  <fix>3d</fix>
</trkpt>
<trkpt lat="-27.2744392" lon="151.2900641">
  <ele>343.12</ele>
  <time>2026-09-01T19:54:00Z</time>
  <course>10.9</course>
  <speed>0.022360679774997897</speed>
  <fix>3d</fix>
</trkpt>
<trkpt lat="-27.274439" lon="151.290064">
  <ele>343.1</ele>
  <time>2026-09-01T19:54:00Z</time>
  <course>270.0</course>
  <speed>0.0</speed>
  <fix>3d</fix>
</trkpt>
<trkpt lat="-27.2744392" lon="151.2900641">
  <ele>343.12</ele>
  <time>2026-09-01T19:54:00Z</time>
  <course>10.9</course>
  <speed>0.022360679774997897</speed>
  <fix>3d</fix>
</trkpt>
<trkpt lat="-27.274439" lon="151.290064">
  <ele>343.1</ele>
  <time>2026-09-01T19:54:00Z</time>
  <course>270.0</course>
  <speed>0.0</speed>
  <fix>3d</fix>
</trkpt>
<trkpt lat="-27.2744392" lon="151.2900641">
  <ele>343.12</ele>
  <time>2026-09-01T19:54:00Z</time>
  <course>10.9</course>
  <speed>0.022360679774997897</speed>
  <fix>3d</fix>
</trkpt>
<trkpt lat="-27.274439" lon="151.290064">
  <ele>343.1</ele>
  <time>2026-09-01T19:54:00Z</time>
  <course>270.0</course>
  <speed>0.0</speed>
  <fix>3d</fix>
</trkpt>
<trkpt lat="-27.2744392" lon="151.2900641">
  <ele>343.12</ele>
  <time>2026-09-01T19:54:00Z</time>
  <course>10.9</course>
  <speed>0.022360679774997897</speed>
  <fix>3d</fix>
</trkpt>
<trkpt lat="-27.274439" lon="151.290064">
  <ele>343.1</ele>
  <time>2026-09-01T19:54:00Z</time>
  <course>270.0</course>
  <speed>0.0</speed>
  <fix>3d</fix>
</trkpt>
<trkpt lat="-27.2744392" lon="151.2900641">
  <ele>343.13</ele>
  <time>2026-09-01T19:54:00Z</time>
  <course>10.9</course>
  <speed>0.022360679774997897</speed>
  <fix>3d</fix>
</trkpt>
<trkpt lat="-27.274439" lon="151.290064">
  <ele>343.1</ele>
  <time>2026-09-01T19:54:00Z</time>
  <course>270.0</course>
  <speed>0.0</speed>
  <fix>3d</fix>
</trkpt>
<trkpt lat="-27.2744392" lon="151.2900641">
  <ele>343.13</ele>
  <time>2026-09-01T19:54:00Z</time>
  <course>10.9</course>
  <speed>0.022360679774997897</speed>
  <fix>3d</fix>
</trkpt>
<trkpt lat="-27.274439" lon="151.290064">
  <ele>343.1</ele>
  <time>2026-09-01T19:54:00Z</time>
  <course>270.0</course>
  <speed>0.0</speed>
  <fix>3d</fix>
</trkpt>
<trkpt lat="-27.2744392" lon="151.2900641">
  <ele>343.12</ele>
  <time>2026-09-01T19:54:00Z</time>
  <course>10.91</course>
  <speed>0.022360679774997897</speed>
  <fix>3d</fix>
</trkpt>
<trkpt lat="-27.274439" lon="151.290064">
  <ele>343.1</ele>
  <time>2026-09-01T19:54:00Z</time>
  <course>270.0</course>
  <speed>0.0</speed>
  <fix>3d</fix>
</trkpt>
<trkpt lat="-27.2744392" lon="151.2900641">
  <ele>343.13</ele>
  <time>2026-09-01T19:54:00Z</time>
  <course>10.91</course>
  <speed>0.022360679774997897</speed>
  <fix>3d</fix>
</trkpt>
<trkpt lat="-27.274439" lon="151.290064">
  <ele>343.1</ele>
  <time>2026-09-01T19:54:00Z</time>
  <course>270.0</course>
  <speed>0.0</speed>
  <fix>3d</fix>
</trkpt>
<trkpt lat="-27.2744392" lon="151.2900641">
  <ele>343.13</ele>
  <time>2026-09-01T19:54:00Z</time>
  <course>10.91</course>
  <speed>0.022360679774997897</speed>
  <fix>3d</fix>
</trkpt>
<trkpt lat="-27.274439" lon="151.290064">
  <ele>343.1</ele>
  <time>2026-09-01T19:54:00Z</time>
  <course>270.0</course>
  <speed>0.0</speed>
  <fix>3d</fix>
</trkpt>
<trkpt lat="-27.2744392" lon="151.2900641">
  <ele>343.13</ele>
  <time>2026-09-01T19:54:00Z</time>
  <course>10.91</course>
  <speed>0.022360679774997897</speed>
  <fix>3d</fix>
</trkpt>
<trkpt lat="-27.274439" lon="151.290064">
  <ele>343.1</ele>
  <time>2026-09-01T19:54:00Z</time>
  <course>270.0</course>
  <speed>0.0</speed>
  <fix>3d</fix>
</trkpt>
<trkpt lat="-27.2744392" lon="151.2900641">
  <ele>343.13</ele>
  <time>2026-09-01T19:54:00Z</time>
  <course>10.91</course>
  <speed>0.022360679774997897</speed>
  <fix>3d</fix>
</trkpt>
<trkpt lat="-27.274439" lon="151.290064">
  <ele>343.1</ele>
  <time>2026-09-01T19:54:00Z</time>
  <course>270.0</course>
  <speed>0.0</speed>
  <fix>3d</fix>
</trkpt>
<trkpt lat="-27.2744392" lon="151.2900641">
  <ele>343.12</ele>
  <time>2026-09-01T19:54:00Z</time>
  <course>10.91</course>
  <speed>0.022360679774997897</speed>
  <fix>3d</fix>
</trkpt>
<trkpt lat="-27.274439" lon="151.290064">
  <ele>343.1</ele>
  <time>2026-09-01T19:54:00Z</time>
  <course>270.0</course>
  <speed>0.0</speed>
  <fix>3d</fix>
</trkpt>
<trkpt lat="-27.2744392" lon="151.2900641">
  <ele>343.12</ele>
  <time>2026-09-01T19:54:00Z</time>
  <course>10.91</course>
  <speed>0.022360679774997897</speed>
  <fix>3d</fix>
</trkpt>
<trkpt lat="-27.274439" lon="151.290064">
  <ele>343.1</ele>
  <time>2026-09-01T19:54:00Z</time>
  <course>270.0</course>
  <speed>0.0</speed>
  <fix>3d</fix>
</trkpt>
<trkpt lat="-27.2744392" lon="151.2900641">
  <ele>343.12</ele>
  <time>2026-09-01T19:54:00Z</time>
  <course>10.91</course>
  <speed>0.022360679774997897</speed>
  <fix>3d</fix>
</trkpt>
<trkpt lat="-27.274439" lon="151.290064">
  <ele>343.1</ele>
  <time>2026-09-01T19:54:00Z</time>
  <course>270.0</course>
  <speed>0.0</speed>
  <fix>3d</fix>
</trkpt>
<trkpt lat="-27.2744392" lon="151.2900641">
  <ele>343.12</ele>
  <time>2026-09-01T19:54:00Z</time>
  <course>10.91</course>
  <speed>0.022360679774997897</speed>
  <fix>3d</fix>
</trkpt>
<trkpt lat="-27.274439" lon="151.290064">
  <ele>343.1</ele>
  <time>2026-09-01T19:54:00Z</time>
  <course>270.0</course>
  <speed>0.0</speed>
  <fix>3d</fix>
</trkpt>
<trkpt lat="-27.2744392" lon="151.2900641">
  <ele>343.13</ele>
  <time>2026-09-01T19:54:00Z</time>
  <course>10.91</course>
  <speed>0.022360679774997897</speed>
  <fix>3d</fix>
</trkpt>
<trkpt lat="-27.274439" lon="151.290064">
  <ele>343.1</ele>
  <time>2026-09-01T19:54:00Z</time>
  <course>270.0</course>
  <speed>0.0</speed>
  <fix>3d</fix>
</trkpt>
<trkpt lat="-27.2744392" lon="151.2900641">
  <ele>343.13</ele>
  <time>2026-09-01T19:54:00Z</time>
  <course>10.91</course>
  <speed>0.022360679774997897</speed>
  <fix>3d</fix>
</trkpt>
<trkpt lat="-27.274439" lon="151.290064">
  <ele>343.1</ele>
  <time>2026-09-01T19:54:00Z</time>
  <course>270.0</course>
  <speed>0.0</speed>
  <fix>3d</fix>
</trkpt>
<trkpt lat="-27.2744392" lon="151.2900641">
  <ele>343.13</ele>
  <time>2026-09-01T19:54:00Z</time>
  <course>10.91</course>
  <speed>0.022360679774997897</speed>
  <fix>3d</fix>
</trkpt>
<trkpt lat="-27.274439" lon="151.290064">
  <ele>343.1</ele>
  <time>2026-09-01T19:54:00Z</time>
  <course>270.0</course>
  <speed>0.0</speed>
  <fix>3d</fix>
</trkpt>
<trkpt lat="-27.2744392" lon="151.2900641">
  <ele>343.13</ele>
  <time>2026-09-01T19:54:00Z</time>
  <course>10.92</course>
  <speed>0.022360679774997897</speed>
  <fix>3d</fix>
</trkpt>
<trkpt lat="-27.274439" lon="151.290064">
  <ele>343.1</ele>
  <time>2026-09-01T19:54:00Z</time>
  <course>270.0</course>
  <speed>0.0</speed>
  <fix>3d</fix>
</trkpt>
<trkpt lat="-27.2744392" lon="151.2900641">
  <ele>343.14</ele>
  <time>2026-09-01T19:54:00Z</time>
  <course>10.92</course>
  <speed>0.022360679774997897</speed>
  <fix>3d</fix>
</trkpt>
<trkpt lat="-27.274439" lon="151.290064">
  <ele>343.1</ele>
  <time>2026-09-01T19:54:00Z</time>
  <course>270.0</course>
  <speed>0.0</speed>
  <fix>3d</fix>
</trkpt>
<trkpt lat="-27.2744392" lon="151.2900641">
  <ele>343.14</ele>
  <time>2026-09-01T19:54:00Z</time>
  <course>10.92</course>
  <speed>0.022360679774997897</speed>
  <fix>3d</fix>
</trkpt>
<trkpt lat="-27.274439" lon="151.290064">
  <ele>343.1</ele>
  <time>2026-09-01T19:54:00Z</time>
  <course>270.0</course>
  <speed>0.0</speed>
  <fix>3d</fix>
</trkpt>
<trkpt lat="-27.2744392" lon="151.2900641">
  <ele>343.1</ele>
  <time>2026-09-01T19:54:00Z</time>
  <course>10.92</course>
  <speed>0.022360679774997897</speed>
  <fix>3d</fix>
</trkpt>
<trkpt lat="-27.274439" lon="151.290064">
  <ele>343.1</ele>
  <time>2026-09-01T19:54:00Z</time>
  <course>270.0</course>
  <speed>0.0</speed>
  <fix>3d</fix>
</trkpt>
<trkpt lat="-27.2744392" lon="151.2900641">
  <ele>343.1</ele>
  <time>2026-09-01T19:54:00Z</time>
  <course>10.92</course>
  <speed>0.022360679774997897</speed>
  <fix>3d</fix>
</trkpt>
<trkpt lat="-27.274439" lon="151.290064">
  <ele>343.1</ele>
  <time>2026-09-01T19:54:00Z</time>
  <course>270.0</course>
  <speed>0.0</speed>
  <fix>3d</fix>
</trkpt>
<trkpt lat="-27.2744392" lon="151.2900641">
  <ele>343.1</ele>
  <time>2026-09-01T19:54:00Z</time>
  <course>10.92</course>
  <speed>0.022360679774997897</speed>
  <fix>3d</fix>
</trkpt>
<trkpt lat="-27.274439" lon="151.290064">
  <ele>343.1</ele>
  <time>2026-09-01T19:54:00Z</time>
  <course>270.0</course>
  <speed>0.0</speed>
  <fix>3d</fix>
</trkpt>
<trkpt lat="-27.2744392" lon="151.2900641">
  <ele>343.1</ele>
  <time>2026-09-01T19:54:00Z</time>
  <course>10.92</course>
  <speed>0.022360679774997897</speed>
  <fix>3d</fix>
</trkpt>
<trkpt lat="-27.274439" lon="151.290064">
  <ele>343.1</ele>
  <time>2026-09-01T19:54:00Z</time>
  <course>270.0</course>
  <speed>0.0</speed>
  <fix>3d</fix>
</trkpt>
<trkpt lat="-27.2744392" lon="151.2900641">
  <ele>343.1</ele>
  <time>2026-09-01T19:54:00Z</time>
  <course>10.92</course>
  <speed>0.022360679774997897</speed>
  <fix>3d</fix>
</trkpt>
<trkpt lat="-27.274439" lon="151.290064">
  <ele>343.1</ele>
  <time>2026-09-01T19:54:00Z</time>
  <course>270.0</course>
  <speed>0.0</speed>
  <fix>3d</fix>
</trkpt>
<trkpt lat="-27.2744392" lon="151.2900641">
  <ele>343.1</ele>
  <time>2026-09-01T19:54:00Z</time>
  <course>10.92</course>
  <speed>0.022360679774997897</speed>
  <fix>3d</fix>
</trkpt>
<trkpt lat="-27.274439" lon="151.290064">
  <ele>343.1</ele>
  <time>2026-09-01T19:54:00Z</time>
  <course>270.0</course>
  <speed>0.0</speed>
  <fix>3d</fix>
</trkpt>
<trkpt lat="-27.2744392" lon="151.2900641">
  <ele>343.1</ele>
  <time>2026-09-01T19:54:00Z</time>
  <course>10.92</course>
  <speed>0.022360679774997897</speed>
  <fix>3d</fix>
</trkpt>
<trkpt lat="-27.274439" lon="151.290064">
  <ele>343.1</ele>
  <time>2026-09-01T19:54:00Z</time>
  <course>270.0</course>
  <speed>0.0</speed>
  <fix>3d</fix>
</trkpt>
<trkpt lat="-27.2744392" lon="151.2900641">
  <ele>343.1</ele>
  <time>2026-09-01T19:54:00Z</time>
  <course>10.92</course>
  <speed>0.022360679774997897</speed>
  <fix>3d</fix>
</trkpt>
<trkpt lat="-27.274439" lon="151.290064">
  <ele>343.1</ele>
  <time>2026-09-01T19:54:00Z</time>
  <course>270.0</course>
  <speed>0.0</speed>
  <fix>3d</fix>
</trkpt>
<trkpt lat="-27.2744392" lon="151.2900641">
  <ele>343.11</ele>
  <time>2026-09-01T19:54:00Z</time>
  <course>10.92</course>
  <speed>0.022360679774997897</speed>
  <fix>3d</fix>
</trkpt>
<trkpt lat="-27.274439" lon="151.290064">
  <ele>343.1</ele>
  <time>2026-09-01T19:54:00Z</time>
  <course>270.0</course>
  <speed>0.0</speed>
  <fix>3d</fix>
</trkpt>
<trkpt lat="-27.2744392" lon="151.2900641">
  <ele>343.11</ele>
  <time>2026-09-01T19:54:00Z</time>
  <course>10.93</course>
  <speed>0.022360679774997897</speed>
  <fix>3d</fix>
</trkpt>
<trkpt lat="-27.274439" lon="151.290064">
  <ele>343.1</ele>
  <time>2026-09-01T19:54:00Z</time>
  <course>270.0</course>
  <speed>0.0</speed>
  <fix>3d</fix>
</trkpt>
<trkpt lat="-27.2744392" lon="151.2900641">
  <ele>343.11</ele>
  <time>2026-09-01T19:54:00Z</time>
  <course>10.93</course>
  <speed>0.022360679774997897</speed>
  <fix>3d</fix>
</trkpt>
<trkpt lat="-27.274439" lon="151.290064">
  <ele>343.1</ele>
  <time>2026-09-01T19:54:00Z</time>
  <course>270.0</course>
  <speed>0.0</speed>
  <fix>3d</fix>
</trkpt>
<trkpt lat="-27.2744392" lon="151.2900641">
  <ele>343.11</ele>
  <time>2026-09-01T19:54:00Z</time>
  <course>10.93</course>
  <speed>0.022360679774997897</speed>
  <fix>3d</fix>
</trkpt>
<trkpt lat="-27.274439" lon="151.290064">
  <ele>343.1</ele>
  <time>2026-09-01T19:54:00Z</time>
  <course>270.0</course>
  <speed>0.0</speed>
  <fix>3d</fix>
</trkpt>
<trkpt lat="-27.2744392" lon="151.2900641">
  <ele>343.11</ele>
  <time>2026-09-01T19:54:00Z</time>
  <course>10.93</course>
  <speed>0.022360679774997897</speed>
  <fix>3d</fix>
</trkpt>
<trkpt lat="-27.274439" lon="151.290064">
  <ele>343.1</ele>
  <time>2026-09-01T19:54:00Z</time>
  <course>270.0</course>
  <speed>0.0</speed>
  <fix>3d</fix>
</trkpt>
<trkpt lat="-27.2744392" lon="151.2900641">
  <ele>343.11</ele>
  <time>2026-09-01T19:54:00Z</time>
  <course>10.93</course>
  <speed>0.022360679774997897</speed>
  <fix>3d</fix>
</trkpt>
<trkpt lat="-27.274439" lon="151.290064">
  <ele>343.1</ele>
  <time>2026-09-01T19:54:00Z</time>
  <course>270.0</course>
  <speed>0.0</speed>
  <fix>3d</fix>
</trkpt>
<trkpt lat="-27.2744392" lon="151.2900641">
  <ele>343.11</ele>
  <time>2026-09-01T19:54:00Z</time>
  <course>10.93</course>
  <speed>0.022360679774997897</speed>
  <fix>3d</fix>
</trkpt>
<trkpt lat="-27.274439" lon="151.290064">
  <ele>343.1</ele>
  <time>2026-09-01T19:54:00Z</time>
  <course>270.0</course>
  <speed>0.0</speed>
  <fix>3d</fix>
</trkpt>
<trkpt lat="-27.2744392" lon="151.2900641">
  <ele>343.11</ele>
  <time>2026-09-01T19:54:00Z</time>
  <course>10.93</course>
  <speed>0.022360679774997897</speed>
  <fix>3d</fix>
</trkpt>
<trkpt lat="-27.274439" lon="151.290064">
  <ele>343.1</ele>
  <time>2026-09-01T19:54:00Z</time>
  <course>270.0</course>
  <speed>0.0</speed>
  <fix>3d</fix>
</trkpt>
<trkpt lat="-27.2744392" lon="151.2900641">
  <ele>343.11</ele>
  <time>2026-09-01T19:54:00Z</time>
  <course>10.93</course>
  <speed>0.022360679774997897</speed>
  <fix>3d</fix>
</trkpt>
<trkpt lat="-27.274439" lon="151.290064">
  <ele>343.1</ele>
  <time>2026-09-01T19:54:00Z</time>
  <course>270.0</course>
  <speed>0.0</speed>
  <fix>3d</fix>
</trkpt>
<trkpt lat="-27.2744392" lon="151.2900641">
  <ele>343.11</ele>
  <time>2026-09-01T19:54:00Z</time>
  <course>10.93</course>
  <speed>0.022360679774997897</speed>
  <fix>3d</fix>
</trkpt>
<trkpt lat="-27.274439" lon="151.290064">
  <ele>343.1</ele>
  <time>2026-09-01T19:54:00Z</time>
  <course>270.0</course>
  <speed>0.0</speed>
  <fix>3d</fix>
</trkpt>
<trkpt lat="-27.2744392" lon="151.2900641">
  <ele>343.11</ele>
  <time>2026-09-01T19:54:00Z</time>
  <course>10.93</course>
  <speed>0.022360679774997897</speed>
  <fix>3d</fix>
</trkpt>
<trkpt lat="-27.274439" lon="151.290064">
  <ele>343.1</ele>
  <time>2026-09-01T19:54:00Z</time>
  <course>270.0</course>
  <speed>0.0</speed>
  <fix>3d</fix>
</trkpt>
<trkpt lat="-27.2744392" lon="151.2900641">
  <ele>343.11</ele>
  <time>2026-09-01T19:54:00Z</time>
  <course>10.93</course>
  <speed>0.022360679774997897</speed>
  <fix>3d</fix>
</trkpt>
<trkpt lat="-27.274439" lon="151.290064">
  <ele>343.1</ele>
  <time>2026-09-01T19:54:00Z</time>
  <course>270.0</course>
  <speed>0.0</speed>
  <fix>3d</fix>
</trkpt>
<trkpt lat="-27.2744392" lon="151.2900641">
  <ele>343.11</ele>
  <time>2026-09-01T19:54:00Z</time>
  <course>10.93</course>
  <speed>0.022360679774997897</speed>
  <fix>3d</fix>
</trkpt>
<trkpt lat="-27.274439" lon="151.290064">
  <ele>343.1</ele>
  <time>2026-09-01T19:54:00Z</time>
  <course>270.0</course>
  <speed>0.0</speed>
  <fix>3d</fix>
</trkpt>
<trkpt lat="-27.2744392" lon="151.2900641">
  <ele>343.11</ele>
  <time>2026-09-01T19:54:00Z</time>
  <course>10.94</course>
  <speed>0.022360679774997897</speed>
  <fix>3d</fix>
</trkpt>
<trkpt lat="-27.274439" lon="151.290064">
  <ele>343.1</ele>
  <time>2026-09-01T19:54:00Z</time>
  <course>270.0</course>
  <speed>0.0</speed>
  <fix>3d</fix>
</trkpt>
<trkpt lat="-27.2744392" lon="151.2900641">
  <ele>343.11</ele>
  <time>2026-09-01T19:54:00Z</time>
  <course>10.94</course>
  <speed>0.022360679774997897</speed>
  <fix>3d</fix>
</trkpt>
<trkpt lat="-27.274439" lon="151.290064">
  <ele>343.1</ele>
  <time>2026-09-01T19:54:00Z</time>
  <course>270.0</course>
  <speed>0.0</speed>
  <fix>3d</fix>
</trkpt>
<trkpt lat="-27.2744392" lon="151.2900641">
  <ele>343.1</ele>
  <time>2026-09-01T19:54:00Z</time>
  <course>10.94</course>
  <speed>0.022360679774997897</speed>
  <fix>3d</fix>
</trkpt>
<trkpt lat="-27.274439" lon="151.290064">
  <ele>343.1</ele>
  <time>2026-09-01T19:54:00Z</time>
  <course>270.0</course>
  <speed>0.0</speed>
  <fix>3d</fix>
</trkpt>
<trkpt lat="-27.2744392" lon="151.2900641">
  <ele>343.1</ele>
  <time>2026-09-01T19:54:00Z</time>
  <course>10.94</course>
  <speed>0.022360679774997897</speed>
  <fix>3d</fix>
</trkpt>
<trkpt lat="-27.274439" lon="151.290064">
  <ele>343.1</ele>
  <time>2026-09-01T19:54:00Z</time>
  <course>270.0</course>
  <speed>0.0</speed>
  <fix>3d</fix>
</trkpt>
<trkpt lat="-27.2744392" lon="151.2900641">
  <ele>343.1</ele>
  <time>2026-09-01T19:54:00Z</time>
  <course>10.94</course>
  <speed>0.022360679774997897</speed>
  <fix>3d</fix>
</trkpt>
<trkpt lat="-27.274439" lon="151.290064">
  <ele>343.1</ele>
  <time>2026-09-01T19:54:00Z</time>
  <course>270.0</course>
  <speed>0.0</speed>
  <fix>3d</fix>
</trkpt>
<trkpt lat="-27.2744392" lon="151.2900641">
  <ele>343.1</ele>
  <time>2026-09-01T19:54:00Z</time>
  <course>10.94</course>
  <speed>0.022360679774997897</speed>
  <fix>3d</fix>
</trkpt>
<trkpt lat="-27.274439" lon="151.290064">
  <ele>343.1</ele>
  <time>2026-09-01T19:54:00Z</time>
  <course>270.0</course>
  <speed>0.0</speed>
  <fix>3d</fix>
</trkpt>
<trkpt lat="-27.2744392" lon="151.2900641">
  <ele>343.09</ele>
  <time>2026-09-01T19:54:00Z</time>
  <course>10.94</course>
  <speed>0.022360679774997897</speed>
  <fix>3d</fix>
</trkpt>
<trkpt lat="-27.274439" lon="151.290064">
  <ele>343.1</ele>
  <time>2026-09-01T19:54:00Z</time>
  <course>270.0</course>
  <speed>0.0</speed>
  <fix>3d</fix>
</trkpt>
<trkpt lat="-27.2744392" lon="151.2900641">
  <ele>343.09</ele>
  <time>2026-09-01T19:54:00Z</time>
  <course>10.94</course>
  <speed>0.022360679774997897</speed>
  <fix>3d</fix>
</trkpt>
<trkpt lat="-27.274439" lon="151.290064">
  <ele>343.1</ele>
  <time>2026-09-01T19:54:00Z</time>
  <course>270.0</course>
  <speed>0.0</speed>
  <fix>3d</fix>
</trkpt>
<trkpt lat="-27.2744392" lon="151.2900641">
  <ele>343.09</ele>
  <time>2026-09-01T19:54:00Z</time>
  <course>10.94</course>
  <speed>0.022360679774997897</speed>
  <fix>3d</fix>
</trkpt>
<trkpt lat="-27.274439" lon="151.290064">
  <ele>343.1</ele>
  <time>2026-09-01T19:54:00Z</time>
  <course>270.0</course>
  <speed>0.0</speed>
  <fix>3d</fix>
</trkpt>
<trkpt lat="-27.2744392" lon="151.2900641">
  <ele>343.09</ele>
  <time>2026-09-01T19:54:00Z</time>
  <course>10.94</course>
  <speed>0.022360679774997897</speed>
  <fix>3d</fix>
</trkpt>
<trkpt lat="-27.274439" lon="151.290064">
  <ele>343.1</ele>
  <time>2026-09-01T19:54:00Z</time>
  <course>270.0</course>
  <speed>0.0</speed>
  <fix>3d</fix>
</trkpt>
<trkpt lat="-27.2744392" lon="151.2900641">
  <ele>343.09</ele>
  <time>2026-09-01T19:54:00Z</time>
  <course>10.94</course>
  <speed>0.022360679774997897</speed>
  <fix>3d</fix>
</trkpt>
<trkpt lat="-27.274439" lon="151.290064">
  <ele>343.1</ele>
  <time>2026-09-01T19:54:00Z</time>
  <course>270.0</course>
  <speed>0.0</speed>
  <fix>3d</fix>
</trkpt>
<trkpt lat="-27.2744392" lon="151.2900641">
  <ele>343.09</ele>
  <time>2026-09-01T19:54:00Z</time>
  <course>10.95</course>
  <speed>0.022360679774997897</speed>
  <fix>3d</fix>
</trkpt>
<trkpt lat="-27.274439" lon="151.290064">
  <ele>343.1</ele>
  <time>2026-09-01T19:54:00Z</time>
  <course>270.0</course>
  <speed>0.0</speed>
  <fix>3d</fix>
</trkpt>
<trkpt lat="-27.2744392" lon="151.2900641">
  <ele>343.09</ele>
  <time>2026-09-01T19:54:00Z</time>
  <course>10.95</course>
  <speed>0.022360679774997897</speed>
  <fix>3d</fix>
</trkpt>
<trkpt lat="-27.274439" lon="151.290064">
  <ele>343.1</ele>
  <time>2026-09-01T19:54:00Z</time>
  <course>270.0</course>
  <speed>0.0</speed>
  <fix>3d</fix>
</trkpt>
<trkpt lat="-27.2744392" lon="151.2900641">
  <ele>343.09</ele>
  <time>2026-09-01T19:54:00Z</time>
  <course>10.95</course>
  <speed>0.022360679774997897</speed>
  <fix>3d</fix>
</trkpt>
<trkpt lat="-27.274439" lon="151.290064">
  <ele>343.1</ele>
  <time>2026-09-01T19:54:00Z</time>
  <course>270.0</course>
  <speed>0.0</speed>
  <fix>3d</fix>
</trkpt>
<trkpt lat="-27.2744392" lon="151.2900641">
  <ele>343.08</ele>
  <time>2026-09-01T19:54:00Z</time>
  <course>10.95</course>
  <speed>0.022360679774997897</speed>
  <fix>3d</fix>
</trkpt>
<trkpt lat="-27.274439" lon="151.290064">
  <ele>343.1</ele>
  <time>2026-09-01T19:54:00Z</time>
  <course>270.0</course>
  <speed>0.0</speed>
  <fix>3d</fix>
</trkpt>
<trkpt lat="-27.2744392" lon="151.2900641">
  <ele>343.08</ele>
  <time>2026-09-01T19:54:00Z</time>
  <course>10.95</course>
  <speed>0.022360679774997897</speed>
  <fix>3d</fix>
</trkpt>
<trkpt lat="-27.274439" lon="151.290064">
  <ele>343.1</ele>
  <time>2026-09-01T19:54:00Z</time>
  <course>270.0</course>
  <speed>0.0</speed>
  <fix>3d</fix>
</trkpt>
<trkpt lat="-26.9720619" lon="149.6127921">
  <ele>339.29</ele>
  <time>2026-09-01T19:54:01Z</time>
  <course>105.13</course>
  <speed>0.0</speed>
  <fix>3d</fix>
</trkpt>
<trkpt lat="-26.9720619" lon="149.6127921">
  <ele>339.29</ele>
  <time>2026-09-01T19:54:01Z</time>
  <course>105.13</course>
  <speed>0.0</speed>
  <fix>3d</fix>
</trkpt>
<trkpt lat="-27.274439" lon="151.290064">
  <ele>0.09</ele>
  <time>2026-09-01T19:54:01Z</time>
  <course>337.31</course>
  <speed>0.0</speed>
  <fix>3d</fix>
</trkpt>
<trkpt lat="-27.274439" lon="151.290064">
  <ele>343.1</ele>
  <time>2026-09-01T19:54:01Z</time>
  <course>79.67</course>
  <speed>0.0</speed>
  <fix>3d</fix>
</trkpt>
<trkpt lat="-27.274439" lon="151.290064">
  <ele>0.11</ele>
  <time>2026-09-01T19:54:01Z</time>
  <course>347.12</course>
  <speed>0.0</speed>
  <fix>3d</fix>
</trkpt>
<trkpt lat="-27.274439" lon="151.290064">
  <ele>343.1</ele>
  <time>2026-09-01T19:54:01Z</time>
  <course>79.67</course>
  <speed>0.0</speed>
  <fix>3d</fix>
</trkpt>
<trkpt lat="-27.274439" lon="151.290064">
  <ele>-0.05</ele>
  <time>2026-09-01T19:54:01Z</time>
  <course>1.35</course>
  <speed>0.0</speed>
  <fix>3d</fix>
</trkpt>
<trkpt lat="-27.274439" lon="151.290064">
  <ele>343.1</ele>
  <time>2026-09-01T19:54:01Z</time>
  <course>53.54</course>
  <speed>0.0</speed>
  <fix>3d</fix>
</trkpt>
<trkpt lat="-27.274439" lon="151.290064">
  <ele>0.12</ele>
  <time>2026-09-01T19:54:01Z</time>
  <course>29.23</course>
  <speed>0.0</speed>
  <fix>3d</fix>
</trkpt>
<trkpt lat="-27.274439" lon="151.290064">
  <ele>343.1</ele>
  <time>2026-09-01T19:54:01Z</time>
  <course>53.54</course>
  <speed>0.0</speed>
  <fix>3d</fix>
</trkpt>
<trkpt lat="-27.274439" lon="151.290064">
  <ele>-0.06</ele>
  <time>2026-09-01T19:54:01Z</time>
  <course>63.28</course>
  <speed>0.0</speed>
  <fix>3d</fix>
</trkpt>
<trkpt lat="-27.274439" lon="151.290064">
  <ele>343.1</ele>
  <time>2026-09-01T19:54:01Z</time>
  <course>52.08</course>
  <speed>0.0</speed>
  <fix>3d</fix>
</trkpt>
<trkpt lat="-27.274439" lon="151.290064">
  <ele>0.21</ele>
  <time>2026-09-01T19:54:01Z</time>
  <course>88.78</course>
  <speed>0.0</speed>
  <fix>3d</fix>
</trkpt>
<trkpt lat="-27.274439" lon="151.290064">
  <ele>343.1</ele>
  <time>2026-09-01T19:54:01Z</time>
  <course>52.08</course>
  <speed>0.0</speed>
  <fix>3d</fix>
</trkpt>
<trkpt lat="-27.274439" lon="151.290064">
  <ele>-0.08</ele>
  <time>2026-09-01T19:54:01Z</time>
  <course>97.17</course>
  <speed>0.0</speed>
  <fix>3d</fix>
</trkpt>
<trkpt lat="-27.274439" lon="151.290064">
  <ele>343.1</ele>
  <time>2026-09-01T19:54:01Z</time>
  <course>52.35</course>
  <speed>0.0</speed>
  <fix>3d</fix>
</trkpt>
<trkpt lat="-27.274439" lon="151.290064">
  <ele>-0.09</ele>
  <time>2026-09-01T19:54:01Z</time>
  <course>101.77</course>
  <speed>0.0</speed>
  <fix>3d</fix>
</trkpt>
<trkpt lat="-27.274439" lon="151.290064">
  <ele>343.1</ele>
  <time>2026-09-01T19:54:01Z</time>
  <course>52.35</course>
  <speed>0.0</speed>
  <fix>3d</fix>
</trkpt>
<trkpt lat="-27.274439" lon="151.290064">
  <ele>343.06</ele>
  <time>2026-09-01T19:54:01Z</time>
  <course>101.65</course>
  <speed>0.0</speed>
  <fix>3d</fix>
</trkpt>
<trkpt lat="-27.274439" lon="151.290064">
  <ele>343.1</ele>
  <time>2026-09-01T19:54:01Z</time>
  <course>52.38</course>
  <speed>0.0</speed>
  <fix>3d</fix>
</trkpt>
<trkpt lat="-27.274439" lon="151.290064">
  <ele>343.33</ele>
  <time>2026-09-01T19:54:01Z</time>
  <course>101.19</course>
  <speed>0.0</speed>
  <fix>3d</fix>
</trkpt>
<trkpt lat="-27.274439" lon="151.290064">
  <ele>343.1</ele>
  <time>2026-09-01T19:54:01Z</time>
  <course>52.39</course>
  <speed>0.0</speed>
  <fix>3d</fix>
</trkpt>
<trkpt lat="-27.274439" lon="151.290064">
  <ele>343.21</ele>
  <time>2026-09-01T19:54:01Z</time>
  <course>98.77</course>
  <speed>0.0</speed>
  <fix>3d</fix>
</trkpt>
<trkpt lat="-27.274439" lon="151.290064">
  <ele>343.1</ele>
  <time>2026-09-01T19:54:01Z</time>
  <course>52.39</course>
  <speed>0.0</speed>
  <fix>3d</fix>
</trkpt>
<trkpt lat="-27.274439" lon="151.290064">
  <ele>343.26</ele>
  <time>2026-09-01T19:54:01Z</time>
  <course>95.63</course>
  <speed>0.0</speed>
  <fix>3d</fix>
</trkpt>
<trkpt lat="-27.274439" lon="151.290064">
  <ele>343.1</ele>
  <time>2026-09-01T19:54:01Z</time>
  <course>52.39</course>
  <speed>0.0</speed>
  <fix>3d</fix>
</trkpt>
<trkpt lat="-27.274439" lon="151.290064">
  <ele>343.05</ele>
  <time>2026-09-01T19:54:01Z</time>
  <course>92.15</course>
  <speed>0.0</speed>
  <fix>3d</fix>
</trkpt>
<trkpt lat="-27.274439" lon="151.290064">
  <ele>343.1</ele>
  <time>2026-09-01T19:54:01Z</time>
  <course>52.39</course>
  <speed>0.0</speed>
  <fix>3d</fix>
</trkpt>
<trkpt lat="-27.274439" lon="151.290064">
  <ele>343.29</ele>
  <time>2026-09-01T19:54:01Z</time>
  <course>89.2</course>
  <speed>0.0</speed>
  <fix>3d</fix>
</trkpt>
<trkpt lat="-27.274439" lon="151.290064">
  <ele>343.1</ele>
  <time>2026-09-01T19:54:01Z</time>
  <course>52.39</course>
  <speed>0.0</speed>
  <fix>3d</fix>
</trkpt>
<trkpt lat="-27.274439" lon="151.290064">
  <ele>343.29</ele>
  <time>2026-09-01T19:54:01Z</time>
  <course>84.3</course>
  <speed>0.0</speed>
  <fix>3d</fix>
</trkpt>
<trkpt lat="-27.274439" lon="151.290064">
  <ele>343.1</ele>
  <time>2026-09-01T19:54:01Z</time>
  <course>52.39</course>
  <speed>0.0</speed>
  <fix>3d</fix>
</trkpt>
<trkpt lat="-27.274439" lon="151.290064">
  <ele>343.31</ele>
  <time>2026-09-01T19:54:01Z</time>
  <course>79.73</course>
  <speed>0.0</speed>
  <fix>3d</fix>
</trkpt>
<trkpt lat="-27.274439" lon="151.290064">
  <ele>343.1</ele>
  <time>2026-09-01T19:54:01Z</time>
  <course>52.39</course>
  <speed>0.0</speed>
  <fix>3d</fix>
</trkpt>
<trkpt lat="-27.274439" lon="151.290064">
  <ele>343.19</ele>
  <time>2026-09-01T19:54:01Z</time>
  <course>78.66</course>
  <speed>0.0</speed>
  <fix>3d</fix>
</trkpt>
<trkpt lat="-27.274439" lon="151.290064">
  <ele>343.1</ele>
  <time>2026-09-01T19:54:01Z</time>
  <course>52.39</course>
  <speed>0.0</speed>
  <fix>3d</fix>
</trkpt>
<trkpt lat="-27.274439" lon="151.290064">
  <ele>343.04</ele>
  <time>2026-09-01T19:54:01Z</time>
  <course>78.36</course>
  <speed>0.0</speed>
  <fix>3d</fix>
</trkpt>
<trkpt lat="-27.274439" lon="151.290064">
  <ele>343.1</ele>
  <time>2026-09-01T19:54:01Z</time>
  <course>52.39</course>
  <speed>0.0</speed>
  <fix>3d</fix>
</trkpt>
<trkpt lat="-27.274439" lon="151.290064">
  <ele>343.14</ele>
  <time>2026-09-01T19:54:01Z</time>
  <course>77.58</course>
  <speed>0.0</speed>
  <fix>3d</fix>
</trkpt>
<trkpt lat="-27.274439" lon="151.290064">
  <ele>343.1</ele>
  <time>2026-09-01T19:54:01Z</time>
  <course>52.39</course>
  <speed>0.0</speed>
  <fix>3d</fix>
</trkpt>
<trkpt lat="-27.274439" lon="151.290064">
  <ele>343.14</ele>
  <time>2026-09-01T19:54:01Z</time>
  <course>77.25</course>
  <speed>0.0</speed>
  <fix>3d</fix>
</trkpt>
<trkpt lat="-27.274439" lon="151.290064">
  <ele>343.1</ele>
  <time>2026-09-01T19:54:01Z</time>
  <course>52.39</course>
  <speed>0.0</speed>
  <fix>3d</fix>
</trkpt>
<trkpt lat="-27.274439" lon="151.290064">
  <ele>342.96</ele>
  <time>2026-09-01T19:54:01Z</time>
  <course>78.31</course>
  <speed>0.0</speed>
  <fix>3d</fix>
</trkpt>
<trkpt lat="-27.274439" lon="151.290064">
  <ele>343.1</ele>
  <time>2026-09-01T19:54:01Z</time>
  <course>52.39</course>
  <speed>0.0</speed>
  <fix>3d</fix>
</trkpt>
<trkpt lat="-27.274439" lon="151.290064">
  <ele>343.24</ele>
  <time>2026-09-01T19:54:01Z</time>
  <course>79.52</course>
  <speed>0.0</speed>
  <fix>3d</fix>
</trkpt>
<trkpt lat="-27.274439" lon="151.290064">
  <ele>343.1</ele>
  <time>2026-09-01T19:54:01Z</time>
  <course>52.39</course>
  <speed>0.0</speed>
  <fix>3d</fix>
</trkpt>
<trkpt lat="-27.274439" lon="151.290064">
  <ele>343.16</ele>
  <time>2026-09-01T19:54:01Z</time>
  <course>82.88</course>
  <speed>0.0</speed>
  <fix>3d</fix>
</trkpt>
<trkpt lat="-27.274439" lon="151.290064">
  <ele>343.1</ele>
  <time>2026-09-01T19:54:01Z</time>
  <course>52.39</course>
  <speed>0.0</speed>
  <fix>3d</fix>
</trkpt>
<trkpt lat="-27.274439" lon="151.290064">
  <ele>343.24</ele>
  <time>2026-09-01T19:54:01Z</time>
  <course>86.44</course>
  <speed>0.0</speed>
  <fix>3d</fix>
</trkpt>
<trkpt lat="-27.274439" lon="151.290064">
  <ele>343.1</ele>
  <time>2026-09-01T19:54:01Z</time>
  <course>52.39</course>
  <speed>0.0</speed>
  <fix>3d</fix>
</trkpt>
<trkpt lat="-27.274439" lon="151.290064">
  <ele>343.0</ele>
  <time>2026-09-01T19:54:01Z</time>
  <course>85.01</course>
  <speed>0.0</speed>
  <fix>3d</fix>
</trkpt>
<trkpt lat="-27.274439" lon="151.290064">
  <ele>343.1</ele>
  <time>2026-09-01T19:54:01Z</time>
  <course>52.39</course>
  <speed>0.0</speed>
  <fix>3d</fix>
</trkpt>
<trkpt lat="-27.274439" lon="151.290064">
  <ele>343.28</ele>
  <time>2026-09-01T19:54:01Z</time>
  <course>83.42</course>
  <speed>0.0</speed>
  <fix>3d</fix>
</trkpt>
<trkpt lat="-27.274439" lon="151.290064">
  <ele>343.1</ele>
  <time>2026-09-01T19:54:01Z</time>
  <course>52.39</course>
  <speed>0.0</speed>
  <fix>3d</fix>
</trkpt>
<trkpt lat="-27.274439" lon="151.290064">
  <ele>343.09</ele>
  <time>2026-09-01T19:54:01Z</time>
  <course>82.2</course>
  <speed>0.0</speed>
  <fix>3d</fix>
</trkpt>
<trkpt lat="-27.274439" lon="151.290064">
  <ele>343.1</ele>
  <time>2026-09-01T19:54:01Z</time>
  <course>52.39</course>
  <speed>0.0</speed>
  <fix>3d</fix>
</trkpt>
<trkpt lat="-27.274439" lon="151.290064">
  <ele>343.05</ele>
  <time>2026-09-01T19:54:01Z</time>
  <course>81.69</course>
  <speed>0.0</speed>
  <fix>3d</fix>
</trkpt>
<trkpt lat="-27.274439" lon="151.290064">
  <ele>343.1</ele>
  <time>2026-09-01T19:54:01Z</time>
  <course>52.39</course>
  <speed>0.0</speed>
  <fix>3d</fix>
</trkpt>
<trkpt lat="-27.274439" lon="151.290064">
  <ele>343.14</ele>
  <time>2026-09-01T19:54:01Z</time>
  <course>82.1</course>
  <speed>0.0</speed>
  <fix>3d</fix>
</trkpt>
<trkpt lat="-27.274439" lon="151.290064">
  <ele>343.1</ele>
  <time>2026-09-01T19:54:01Z</time>
  <course>52.39</course>
  <speed>0.0</speed>
  <fix>3d</fix>
</trkpt>
<trkpt lat="-27.274439" lon="151.290064">
  <ele>343.16</ele>
  <time>2026-09-01T19:54:01Z</time>
  <course>82.64</course>
  <speed>0.0</speed>
  <fix>3d</fix>
</trkpt>
<trkpt lat="-27.274439" lon="151.290064">
  <ele>343.1</ele>
  <time>2026-09-01T19:54:01Z</time>
  <course>52.39</course>
  <speed>0.0</speed>
  <fix>3d</fix>
</trkpt>
<trkpt lat="-27.274439" lon="151.290064">
  <ele>342.96</ele>
  <time>2026-09-01T19:54:01Z</time>
  <course>81.92</course>
  <speed>0.0</speed>
  <fix>3d</fix>
</trkpt>
<trkpt lat="-27.274439" lon="151.290064">
  <ele>343.1</ele>
  <time>2026-09-01T19:54:01Z</time>
  <course>52.39</course>
  <speed>0.0</speed>
  <fix>3d</fix>
</trkpt>
<trkpt lat="-27.274439" lon="151.290064">
  <ele>343.24</ele>
  <time>2026-09-01T19:54:01Z</time>
  <course>81.35</course>
  <speed>0.0</speed>
  <fix>3d</fix>
</trkpt>
<trkpt lat="-27.274439" lon="151.290064">
  <ele>343.1</ele>
  <time>2026-09-01T19:54:01Z</time>
  <course>52.39</course>
  <speed>0.0</speed>
  <fix>3d</fix>
</trkpt>
<trkpt lat="-27.274439" lon="151.290064">
  <ele>343.26</ele>
  <time>2026-09-01T19:54:01Z</time>
  <course>82.03</course>
  <speed>0.0</speed>
  <fix>3d</fix>
</trkpt>
<trkpt lat="-27.274439" lon="151.290064">
  <ele>343.1</ele>
  <time>2026-09-01T19:54:01Z</time>
  <course>52.39</course>
  <speed>0.0</speed>
  <fix>3d</fix>
</trkpt>
<trkpt lat="-27.274439" lon="151.290064">
  <ele>343.16</ele>
  <time>2026-09-01T19:54:01Z</time>
  <course>84.76</course>
  <speed>0.0</speed>
  <fix>3d</fix>
</trkpt>
<trkpt lat="-27.274439" lon="151.290064">
  <ele>343.1</ele>
  <time>2026-09-01T19:54:01Z</time>
  <course>52.39</course>
  <speed>0.0</speed>
  <fix>3d</fix>
</trkpt>
<trkpt lat="-27.274439" lon="151.290064">
  <ele>343.2</ele>
  <time>2026-09-01T19:54:01Z</time>
  <course>87.14</course>
  <speed>0.0</speed>
  <fix>3d</fix>
</trkpt>
<trkpt lat="-27.274439" lon="151.290064">
  <ele>343.1</ele>
  <time>2026-09-01T19:54:01Z</time>
  <course>52.39</course>
  <speed>0.0</speed>
  <fix>3d</fix>
</trkpt>
<trkpt lat="-27.274439" lon="151.290064">
  <ele>343.22</ele>
  <time>2026-09-01T19:54:01Z</time>
  <course>88.31</course>
  <speed>0.0</speed>
  <fix>3d</fix>
</trkpt>
<trkpt lat="-27.274439" lon="151.290064">
  <ele>343.1</ele>
  <time>2026-09-01T19:54:01Z</time>
  <course>52.39</course>
  <speed>0.0</speed>
  <fix>3d</fix>
</trkpt>
<trkpt lat="-27.274439" lon="151.290064">
  <ele>343.34</ele>
  <time>2026-09-01T19:54:01Z</time>
  <course>89.22</course>
  <speed>0.0</speed>
  <fix>3d</fix>
</trkpt>
<trkpt lat="-27.274439" lon="151.290064">
  <ele>343.1</ele>
  <time>2026-09-01T19:54:01Z</time>
  <course>52.39</course>
  <speed>0.0</speed>
  <fix>3d</fix>
</trkpt>
<trkpt lat="-27.274439" lon="151.290064">
  <ele>343.05</ele>
  <time>2026-09-01T19:54:01Z</time>
  <course>90.61</course>
  <speed>0.0</speed>
  <fix>3d</fix>
</trkpt>
<trkpt lat="-27.274439" lon="151.290064">
  <ele>343.1</ele>
  <time>2026-09-01T19:54:01Z</time>
  <course>52.39</course>
  <speed>0.0</speed>
  <fix>3d</fix>
</trkpt>
<trkpt lat="-27.274439" lon="151.290064">
  <ele>343.29</ele>
  <time>2026-09-01T19:54:01Z</time>
  <course>91.44</course>
  <speed>0.0</speed>
  <fix>3d</fix>
</trkpt>
<trkpt lat="-27.274439" lon="151.290064">
  <ele>343.1</ele>
  <time>2026-09-01T19:54:01Z</time>
  <course>52.39</course>
  <speed>0.0</speed>
  <fix>3d</fix>
</trkpt>
<trkpt lat="-27.274439" lon="151.290064">
  <ele>342.98</ele>
  <time>2026-09-01T19:54:01Z</time>
  <course>91.87</course>
  <speed>0.0</speed>
  <fix>3d</fix>
</trkpt>
<trkpt lat="-27.274439" lon="151.290064">
  <ele>343.1</ele>
  <time>2026-09-01T19:54:01Z</time>
  <course>52.39</course>
  <speed>0.0</speed>
  <fix>3d</fix>
</trkpt>
<trkpt lat="-27.274439" lon="151.290064">
  <ele>343.2</ele>
  <time>2026-09-01T19:54:01Z</time>
  <course>91.42</course>
  <speed>0.0</speed>
  <fix>3d</fix>
</trkpt>
<trkpt lat="-27.274439" lon="151.290064">
  <ele>343.1</ele>
  <time>2026-09-01T19:54:01Z</time>
  <course>52.39</course>
  <speed>0.0</speed>
  <fix>3d</fix>
</trkpt>
<trkpt lat="-27.274439" lon="151.290064">
  <ele>343.04</ele>
  <time>2026-09-01T19:54:01Z</time>
  <course>91.27</course>
  <speed>0.0</speed>
  <fix>3d</fix>
</trkpt>
<trkpt lat="-27.274439" lon="151.290064">
  <ele>343.1</ele>
  <time>2026-09-01T19:54:01Z</time>
  <course>52.39</course>
  <speed>0.0</speed>
  <fix>3d</fix>
</trkpt>
<trkpt lat="-27.274439" lon="151.290064">
  <ele>343.21</ele>
  <time>2026-09-01T19:54:01Z</time>
  <course>90.2</course>
  <speed>0.0</speed>
  <fix>3d</fix>
</trkpt>
<trkpt lat="-27.274439" lon="151.290064">
  <ele>343.1</ele>
  <time>2026-09-01T19:54:01Z</time>
  <course>52.39</course>
  <speed>0.0</speed>
  <fix>3d</fix>
</trkpt>
<trkpt lat="-27.274439" lon="151.290064">
  <ele>343.12</ele>
  <time>2026-09-01T19:54:01Z</time>
  <course>89.03</course>
  <speed>0.0</speed>
  <fix>3d</fix>
</trkpt>
<trkpt lat="-27.274439" lon="151.290064">
  <ele>343.1</ele>
  <time>2026-09-01T19:54:01Z</time>
  <course>52.39</course>
  <speed>0.0</speed>
  <fix>3d</fix>
</trkpt>
<trkpt lat="-27.274439" lon="151.290064">
  <ele>343.03</ele>
  <time>2026-09-01T19:54:01Z</time>
  <course>88.81</course>
  <speed>0.0</speed>
  <fix>3d</fix>
</trkpt>
<trkpt lat="-27.274439" lon="151.290064">
  <ele>343.1</ele>
  <time>2026-09-01T19:54:01Z</time>
  <course>52.39</course>
  <speed>0.0</speed>
  <fix>3d</fix>
</trkpt>
<trkpt lat="-27.274439" lon="151.290064">
  <ele>343.12</ele>
  <time>2026-09-01T19:54:01Z</time>
  <course>88.54</course>
  <speed>0.0</speed>
  <fix>3d</fix>
</trkpt>
<trkpt lat="-27.274439" lon="151.290064">
  <ele>343.1</ele>
  <time>2026-09-01T19:54:01Z</time>
  <course>52.39</course>
  <speed>0.0</speed>
  <fix>3d</fix>
</trkpt>
<trkpt lat="-27.274439" lon="151.290064">
  <ele>343.1</ele>
  <time>2026-09-01T19:54:01Z</time>
  <course>88.97</course>
  <speed>0.0</speed>
  <fix>3d</fix>
</trkpt>
<trkpt lat="-27.274439" lon="151.290064">
  <ele>343.1</ele>
  <time>2026-09-01T19:54:01Z</time>
  <course>52.39</course>
  <speed>0.0</speed>
  <fix>3d</fix>
</trkpt>
<trkpt lat="-27.274439" lon="151.290064">
  <ele>343.31</ele>
  <time>2026-09-01T19:54:01Z</time>
  <course>90.27</course>
  <speed>0.0</speed>
  <fix>3d</fix>
</trkpt>
<trkpt lat="-27.274439" lon="151.290064">
  <ele>343.1</ele>
  <time>2026-09-01T19:54:01Z</time>
  <course>52.39</course>
  <speed>0.0</speed>
  <fix>3d</fix>
</trkpt>
<trkpt lat="-27.274439" lon="151.290064">
  <ele>343.02</ele>
  <time>2026-09-01T19:54:01Z</time>
  <course>91.41</course>
  <speed>0.0</speed>
  <fix>3d</fix>
</trkpt>
<trkpt lat="-27.274439" lon="151.290064">
  <ele>343.1</ele>
  <time>2026-09-01T19:54:01Z</time>
  <course>52.39</course>
  <speed>0.0</speed>
  <fix>3d</fix>
</trkpt>
<trkpt lat="-27.274439" lon="151.290064">
  <ele>343.12</ele>
  <time>2026-09-01T19:54:01Z</time>
  <course>92.27</course>
  <speed>0.0</speed>
  <fix>3d</fix>
</trkpt>
<trkpt lat="-27.274439" lon="151.290064">
  <ele>343.1</ele>
  <time>2026-09-01T19:54:01Z</time>
  <course>52.39</course>
  <speed>0.0</speed>
  <fix>3d</fix>
</trkpt>
<trkpt lat="-27.274439" lon="151.290064">
  <ele>343.14</ele>
  <time>2026-09-01T19:54:01Z</time>
  <course>92.83</course>
  <speed>0.0</speed>
  <fix>3d</fix>
</trkpt>
<trkpt lat="-27.274439" lon="151.290064">
  <ele>343.1</ele>
  <time>2026-09-01T19:54:01Z</time>
  <course>52.39</course>
  <speed>0.0</speed>
  <fix>3d</fix>
</trkpt>
<trkpt lat="-27.274439" lon="151.290064">
  <ele>343.06</ele>
  <time>2026-09-01T19:54:01Z</time>
  <course>93.1</course>
  <speed>0.0</speed>
  <fix>3d</fix>
</trkpt>
<trkpt lat="-27.274439" lon="151.290064">
  <ele>343.1</ele>
  <time>2026-09-01T19:54:01Z</time>
  <course>52.39</course>
  <speed>0.0</speed>
  <fix>3d</fix>
</trkpt>
<trkpt lat="-27.274439" lon="151.290064">
  <ele>343.05</ele>
  <time>2026-09-01T19:54:01Z</time>
  <course>91.57</course>
  <speed>0.0</speed>
  <fix>3d</fix>
</trkpt>
<trkpt lat="-27.274439" lon="151.290064">
  <ele>343.1</ele>
  <time>2026-09-01T19:54:01Z</time>
  <course>52.39</course>
  <speed>0.0</speed>
  <fix>3d</fix>
</trkpt>
<trkpt lat="-27.274439" lon="151.290064">
  <ele>342.97</ele>
  <time>2026-09-01T19:54:01Z</time>
  <course>89.02</course>
  <speed>0.0</speed>
  <fix>3d</fix>
</trkpt>
<trkpt lat="-27.274439" lon="151.290064">
  <ele>343.1</ele>
  <time>2026-09-01T19:54:01Z</time>
  <course>52.39</course>
  <speed>0.0</speed>
  <fix>3d</fix>
</trkpt>
<trkpt lat="-27.274439" lon="151.290064">
  <ele>343.19</ele>
  <time>2026-09-01T19:54:01Z</time>
  <course>87.66</course>
  <speed>0.0</speed>
  <fix>3d</fix>
</trkpt>
<trkpt lat="-27.274439" lon="151.290064">
  <ele>343.1</ele>
  <time>2026-09-01T19:54:01Z</time>
  <course>52.39</course>
  <speed>0.0</speed>
  <fix>3d</fix>
</trkpt>
<trkpt lat="-27.274439" lon="151.290064">
  <ele>343.09</ele>
  <time>2026-09-01T19:54:01Z</time>
  <course>87.29</course>
  <speed>0.0</speed>
  <fix>3d</fix>
</trkpt>
<trkpt lat="-27.274439" lon="151.290064">
  <ele>343.1</ele>
  <time>2026-09-01T19:54:01Z</time>
  <course>52.39</course>
  <speed>0.0</speed>
  <fix>3d</fix>
</trkpt>
<trkpt lat="-27.274439" lon="151.290064">
  <ele>343.25</ele>
  <time>2026-09-01T19:54:01Z</time>
  <course>86.24</course>
  <speed>0.0</speed>
  <fix>3d</fix>
</trkpt>
<trkpt lat="-27.274439" lon="151.290064">
  <ele>343.1</ele>
  <time>2026-09-01T19:54:01Z</time>
  <course>52.39</course>
  <speed>0.0</speed>
  <fix>3d</fix>
</trkpt>
<trkpt lat="-27.274439" lon="151.290064">
  <ele>343.17</ele>
  <time>2026-09-01T19:54:01Z</time>
  <course>85.47</course>
  <speed>0.0</speed>
  <fix>3d</fix>
</trkpt>
<trkpt lat="-27.274439" lon="151.290064">
  <ele>343.1</ele>
  <time>2026-09-01T19:54:01Z</time>
  <course>52.39</course>
  <speed>0.0</speed>
  <fix>3d</fix>
</trkpt>
<trkpt lat="-27.274439" lon="151.290064">
  <ele>343.16</ele>
  <time>2026-09-01T19:54:01Z</time>
  <course>86.76</course>
  <speed>0.0</speed>
  <fix>3d</fix>
</trkpt>
<trkpt lat="-27.274439" lon="151.290064">
  <ele>343.1</ele>
  <time>2026-09-01T19:54:01Z</time>
  <course>52.39</course>
  <speed>0.0</speed>
  <fix>3d</fix>
</trkpt>
<trkpt lat="-27.274439" lon="151.290064">
  <ele>343.08</ele>
  <time>2026-09-01T19:54:01Z</time>
  <course>88.11</course>
  <speed>0.0</speed>
  <fix>3d</fix>
</trkpt>
<trkpt lat="-27.274439" lon="151.290064">
  <ele>343.1</ele>
  <time>2026-09-01T19:54:01Z</time>
  <course>52.39</course>
  <speed>0.0</speed>
  <fix>3d</fix>
</trkpt>
<trkpt lat="-27.274439" lon="151.290064">
  <ele>343.07</ele>
  <time>2026-09-01T19:54:01Z</time>
  <course>87.83</course>
  <speed>0.0</speed>
  <fix>3d</fix>
</trkpt>
<trkpt lat="-27.274439" lon="151.290064">
  <ele>343.1</ele>
  <time>2026-09-01T19:54:01Z</time>
  <course>52.39</course>
  <speed>0.0</speed>
  <fix>3d</fix>
</trkpt>
<trkpt lat="-27.274439" lon="151.290064">
  <ele>343.22</ele>
  <time>2026-09-01T19:54:01Z</time>
  <course>88.38</course>
  <speed>0.0</speed>
  <fix>3d</fix>
</trkpt>
<trkpt lat="-27.274439" lon="151.290064">
  <ele>343.1</ele>
  <time>2026-09-01T19:54:01Z</time>
  <course>52.39</course>
  <speed>0.0</speed>
  <fix>3d</fix>
</trkpt>
<trkpt lat="-27.274439" lon="151.290064">
  <ele>342.98</ele>
  <time>2026-09-01T19:54:01Z</time>
  <course>89.22</course>
  <speed>0.0</speed>
  <fix>3d</fix>
</trkpt>
<trkpt lat="-27.274439" lon="151.290064">
  <ele>343.1</ele>
  <time>2026-09-01T19:54:01Z</time>
  <course>52.39</course>
  <speed>0.0</speed>
  <fix>3d</fix>
</trkpt>
<trkpt lat="-27.274439" lon="151.290064">
  <ele>343.03</ele>
  <time>2026-09-01T19:54:01Z</time>
  <course>89.34</course>
  <speed>0.0</speed>
  <fix>3d</fix>
</trkpt>
<trkpt lat="-27.274439" lon="151.290064">
  <ele>343.1</ele>
  <time>2026-09-01T19:54:01Z</time>
  <course>52.39</course>
  <speed>0.0</speed>
  <fix>3d</fix>
</trkpt>
<trkpt lat="-27.274439" lon="151.290064">
  <ele>343.14</ele>
  <time>2026-09-01T19:54:01Z</time>
  <course>90.8</course>
  <speed>0.0</speed>
  <fix>3d</fix>
</trkpt>
<trkpt lat="-27.274439" lon="151.290064">
  <ele>343.1</ele>
  <time>2026-09-01T19:54:01Z</time>
  <course>52.39</course>
  <speed>0.0</speed>
  <fix>3d</fix>
</trkpt>
<trkpt lat="-27.274439" lon="151.290064">
  <ele>342.98</ele>
  <time>2026-09-01T19:54:01Z</time>
  <course>92.43</course>
  <speed>0.0</speed>
  <fix>3d</fix>
</trkpt>
<trkpt lat="-27.274439" lon="151.290064">
  <ele>343.1</ele>
  <time>2026-09-01T19:54:01Z</time>
  <course>52.39</course>
  <speed>0.0</speed>
  <fix>3d</fix>
</trkpt>
<trkpt lat="-27.274439" lon="151.290064">
  <ele>343.24</ele>
  <time>2026-09-01T19:54:01Z</time>
  <course>92.54</course>
  <speed>0.0</speed>
  <fix>3d</fix>
</trkpt>
<trkpt lat="-27.274439" lon="151.290064">
  <ele>343.1</ele>
  <time>2026-09-01T19:54:01Z</time>
  <course>52.39</course>
  <speed>0.0</speed>
  <fix>3d</fix>
</trkpt>
<trkpt lat="-27.274439" lon="151.290064">
  <ele>342.96</ele>
  <time>2026-09-01T19:54:01Z</time>
  <course>92.94</course>
  <speed>0.0</speed>
  <fix>3d</fix>
</trkpt>
<trkpt lat="-27.274439" lon="151.290064">
  <ele>343.1</ele>
  <time>2026-09-01T19:54:01Z</time>
  <course>52.39</course>
  <speed>0.0</speed>
  <fix>3d</fix>
</trkpt>
<trkpt lat="-27.274439" lon="151.290064">
  <ele>342.93</ele>
  <time>2026-09-01T19:54:01Z</time>
  <course>92.87</course>
  <speed>0.0</speed>
  <fix>3d</fix>
</trkpt>
<trkpt lat="-27.274439" lon="151.290064">
  <ele>343.1</ele>
  <time>2026-09-01T19:54:01Z</time>
  <course>52.39</course>
  <speed>0.0</speed>
  <fix>3d</fix>
</trkpt>
<trkpt lat="-27.274439" lon="151.290064">
  <ele>343.0</ele>
  <time>2026-09-01T19:54:01Z</time>
  <course>92.6</course>
  <speed>0.0</speed>
  <fix>3d</fix>
</trkpt>
<trkpt lat="-27.274439" lon="151.290064">
  <ele>343.1</ele>
  <time>2026-09-01T19:54:01Z</time>
  <course>52.39</course>
  <speed>0.0</speed>
  <fix>3d</fix>
</trkpt>
<trkpt lat="-27.274439" lon="151.290064">
  <ele>342.9</ele>
  <time>2026-09-01T19:54:01Z</time>
  <course>92.88</course>
  <speed>0.0</speed>
  <fix>3d</fix>
</trkpt>
<trkpt lat="-27.274439" lon="151.290064">
  <ele>343.1</ele>
  <time>2026-09-01T19:54:01Z</time>
  <course>52.39</course>
  <speed>0.0</speed>
  <fix>3d</fix>
</trkpt>
<trkpt lat="-27.274439" lon="151.290064">
  <ele>343.05</ele>
  <time>2026-09-01T19:54:01Z</time>
  <course>93.49</course>
  <speed>0.0</speed>
  <fix>3d</fix>
</trkpt>
<trkpt lat="-27.274439" lon="151.290064">
  <ele>343.1</ele>
  <time>2026-09-01T19:54:01Z</time>
  <course>52.39</course>
  <speed>0.0</speed>
  <fix>3d</fix>
</trkpt>
<trkpt lat="-27.274439" lon="151.290064">
  <ele>342.95</ele>
  <time>2026-09-01T19:54:01Z</time>
  <course>94.25</course>
  <speed>0.0</speed>
  <fix>3d</fix>
</trkpt>
<trkpt lat="-27.274439" lon="151.290064">
  <ele>343.1</ele>
  <time>2026-09-01T19:54:01Z</time>
  <course>52.39</course>
  <speed>0.0</speed>
  <fix>3d</fix>
</trkpt>
<trkpt lat="-27.274439" lon="151.290064">
  <ele>342.95</ele>
  <time>2026-09-01T19:54:01Z</time>
  <course>94.01</course>
  <speed>0.0</speed>
  <fix>3d</fix>
</trkpt>
<trkpt lat="-27.274439" lon="151.290064">
  <ele>343.1</ele>
  <time>2026-09-01T19:54:01Z</time>
  <course>52.39</course>
  <speed>0.0</speed>
  <fix>3d</fix>
</trkpt>
<trkpt lat="-27.274439" lon="151.290064">
  <ele>343.04</ele>
  <time>2026-09-01T19:54:01Z</time>
  <course>96.33</course>
  <speed>0.0</speed>
  <fix>3d</fix>
</trkpt>
<trkpt lat="-27.274439" lon="151.290064">
  <ele>343.1</ele>
  <time>2026-09-01T19:54:01Z</time>
  <course>52.39</course>
  <speed>0.0</speed>
  <fix>3d</fix>
</trkpt>
<trkpt lat="-27.274439" lon="151.290064">
  <ele>343.02</ele>
  <time>2026-09-01T19:54:01Z</time>
  <course>99.25</course>
  <speed>0.0</speed>
  <fix>3d</fix>
</trkpt>
<trkpt lat="-27.274439" lon="151.290064">
  <ele>343.1</ele>
  <time>2026-09-01T19:54:01Z</time>
  <course>52.39</course>
  <speed>0.0</speed>
  <fix>3d</fix>
</trkpt>
<trkpt lat="-27.274439" lon="151.290064">
  <ele>343.23</ele>
  <time>2026-09-01T19:54:01Z</time>
  <course>98.16</course>
  <speed>0.0</speed>
  <fix>3d</fix>
</trkpt>
<trkpt lat="-27.274439" lon="151.290064">
  <ele>343.1</ele>
  <time>2026-09-01T19:54:01Z</time>
  <course>52.39</course>
  <speed>0.0</speed>
  <fix>3d</fix>
</trkpt>
<trkpt lat="-27.274439" lon="151.290064">
  <ele>343.08</ele>
  <time>2026-09-01T19:54:01Z</time>
  <course>96.87</course>
  <speed>0.0</speed>
  <fix>3d</fix>
</trkpt>
<trkpt lat="-27.274439" lon="151.290064">
  <ele>343.1</ele>
  <time>2026-09-01T19:54:01Z</time>
  <course>52.39</course>
  <speed>0.0</speed>
  <fix>3d</fix>
</trkpt>
<trkpt lat="-27.274439" lon="151.290064">
  <ele>343.04</ele>
  <time>2026-09-01T19:54:01Z</time>
  <course>97.72</course>
  <speed>0.0</speed>
  <fix>3d</fix>
</trkpt>
<trkpt lat="-27.274439" lon="151.290064">
  <ele>343.1</ele>
  <time>2026-09-01T19:54:01Z</time>
  <course>52.39</course>
  <speed>0.0</speed>
  <fix>3d</fix>
</trkpt>
<trkpt lat="-27.274439" lon="151.290064">
  <ele>343.02</ele>
  <time>2026-09-01T19:54:01Z</time>
  <course>98.47</course>
  <speed>0.0</speed>
  <fix>3d</fix>
</trkpt>
<trkpt lat="-27.274439" lon="151.290064">
  <ele>343.1</ele>
  <time>2026-09-01T19:54:01Z</time>
  <course>52.39</course>
  <speed>0.0</speed>
  <fix>3d</fix>
</trkpt>
<trkpt lat="-27.274439" lon="151.290064">
  <ele>343.17</ele>
  <time>2026-09-01T19:54:01Z</time>
  <course>96.44</course>
  <speed>0.0</speed>
  <fix>3d</fix>
</trkpt>
<trkpt lat="-27.274439" lon="151.290064">
  <ele>343.1</ele>
  <time>2026-09-01T19:54:01Z</time>
  <course>52.39</course>
  <speed>0.0</speed>
  <fix>3d</fix>
</trkpt>
<trkpt lat="-27.274439" lon="151.290064">
  <ele>343.06</ele>
  <time>2026-09-01T19:54:01Z</time>
  <course>95.18</course>
  <speed>0.0</speed>
  <fix>3d</fix>
</trkpt>
<trkpt lat="-27.274439" lon="151.290064">
  <ele>343.1</ele>
  <time>2026-09-01T19:54:01Z</time>
  <course>52.39</course>
  <speed>0.0</speed>
  <fix>3d</fix>
</trkpt>
<trkpt lat="-27.274439" lon="151.290064">
  <ele>343.08</ele>
  <time>2026-09-01T19:54:01Z</time>
  <course>96.33</course>
  <speed>0.0</speed>
  <fix>3d</fix>
</trkpt>
<trkpt lat="-27.274439" lon="151.290064">
  <ele>343.1</ele>
  <time>2026-09-01T19:54:01Z</time>
  <course>52.39</course>
  <speed>0.0</speed>
  <fix>3d</fix>
</trkpt>
<trkpt lat="-27.274439" lon="151.290064">
  <ele>343.05</ele>
  <time>2026-09-01T19:54:02Z</time>
  <course>97.63</course>
  <speed>0.0</speed>
  <fix>3d</fix>
</trkpt>
<trkpt lat="-27.274439" lon="151.290064">
  <ele>343.1</ele>
  <time>2026-09-01T19:54:02Z</time>
  <course>52.39</course>
  <speed>0.0</speed>
  <fix>3d</fix>
</trkpt>
<trkpt lat="-27.274439" lon="151.290064">
  <ele>343.07</ele>
  <time>2026-09-01T19:54:02Z</time>
  <course>97.29</course>
  <speed>0.0</speed>
  <fix>3d</fix>
</trkpt>
<trkpt lat="-27.274439" lon="151.290064">
  <ele>343.1</ele>
  <time>2026-09-01T19:54:02Z</time>
  <course>52.39</course>
  <speed>0.0</speed>
  <fix>3d</fix>
</trkpt>
<trkpt lat="-27.274439" lon="151.290064">
  <ele>342.9</ele>
  <time>2026-09-01T19:54:02Z</time>
  <course>97.89</course>
  <speed>0.0</speed>
  <fix>3d</fix>
</trkpt>
<trkpt lat="-27.274439" lon="151.290064">
  <ele>343.1</ele>
  <time>2026-09-01T19:54:02Z</time>
  <course>52.39</course>
  <speed>0.0</speed>
  <fix>3d</fix>
</trkpt>
<trkpt lat="-27.274439" lon="151.290064">
  <ele>343.14</ele>
  <time>2026-09-01T19:54:02Z</time>
  <course>96.53</course>
  <speed>0.0</speed>
  <fix>3d</fix>
</trkpt>
<trkpt lat="-27.274439" lon="151.290064">
  <ele>343.1</ele>
  <time>2026-09-01T19:54:02Z</time>
  <course>52.39</course>
  <speed>0.0</speed>
  <fix>3d</fix>
</trkpt>
<trkpt lat="-27.274439" lon="151.290064">
  <ele>343.02</ele>
  <time>2026-09-01T19:54:02Z</time>
  <course>94.8</course>
  <speed>0.0</speed>
  <fix>3d</fix>
</trkpt>
<trkpt lat="-27.274439" lon="151.290064">
  <ele>343.1</ele>
  <time>2026-09-01T19:54:02Z</time>
  <course>52.39</course>
  <speed>0.0</speed>
  <fix>3d</fix>
</trkpt>
<trkpt lat="-27.274439" lon="151.290064">
  <ele>343.18</ele>
  <time>2026-09-01T19:54:02Z</time>
  <course>94.2</course>
  <speed>0.0</speed>
  <fix>3d</fix>
</trkpt>
<trkpt lat="-27.274439" lon="151.290064">
  <ele>343.1</ele>
  <time>2026-09-01T19:54:02Z</time>
  <course>52.39</course>
  <speed>0.0</speed>
  <fix>3d</fix>
</trkpt>
<trkpt lat="-27.274439" lon="151.290064">
  <ele>343.05</ele>
  <time>2026-09-01T19:54:02Z</time>
  <course>93.67</course>
  <speed>0.0</speed>
  <fix>3d</fix>
</trkpt>
<trkpt lat="-27.274439" lon="151.290064">
  <ele>343.1</ele>
  <time>2026-09-01T19:54:02Z</time>
  <course>52.39</course>
  <speed>0.0</speed>
  <fix>3d</fix>
</trkpt>
<trkpt lat="-27.274439" lon="151.290064">
  <ele>342.91</ele>
  <time>2026-09-01T19:54:02Z</time>
  <course>92.99</course>
  <speed>0.0</speed>
  <fix>3d</fix>
</trkpt>
<trkpt lat="-27.274439" lon="151.290064">
  <ele>343.1</ele>
  <time>2026-09-01T19:54:02Z</time>
  <course>52.39</course>
  <speed>0.0</speed>
  <fix>3d</fix>
</trkpt>
<trkpt lat="-27.274439" lon="151.290064">
  <ele>343.04</ele>
  <time>2026-09-01T19:54:02Z</time>
  <course>91.66</course>
  <speed>0.0</speed>
  <fix>3d</fix>
</trkpt>
<trkpt lat="-27.274439" lon="151.290064">
  <ele>343.1</ele>
  <time>2026-09-01T19:54:02Z</time>
  <course>52.39</course>
  <speed>0.0</speed>
  <fix>3d</fix>
</trkpt>
<trkpt lat="-27.274439" lon="151.290064">
  <ele>342.98</ele>
  <time>2026-09-01T19:54:02Z</time>
  <course>91.7</course>
  <speed>0.0</speed>
  <fix>3d</fix>
</trkpt>
<trkpt lat="-27.274439" lon="151.290064">
  <ele>343.1</ele>
  <time>2026-09-01T19:54:02Z</time>
  <course>52.39</course>
  <speed>0.0</speed>
  <fix>3d</fix>
</trkpt>
<trkpt lat="-27.274439" lon="151.290064">
  <ele>343.24</ele>
  <time>2026-09-01T19:54:02Z</time>
  <course>92.49</course>
  <speed>0.0</speed>
  <fix>3d</fix>
</trkpt>
<trkpt lat="-27.274439" lon="151.290064">
  <ele>343.1</ele>
  <time>2026-09-01T19:54:02Z</time>
  <course>52.39</course>
  <speed>0.0</speed>
  <fix>3d</fix>
</trkpt>
<trkpt lat="-27.274439" lon="151.290064">
  <ele>343.08</ele>
  <time>2026-09-01T19:54:02Z</time>
  <course>92.23</course>
  <speed>0.0</speed>
  <fix>3d</fix>
</trkpt>
<trkpt lat="-27.274439" lon="151.290064">
  <ele>343.1</ele>
  <time>2026-09-01T19:54:02Z</time>
  <course>52.39</course>
  <speed>0.0</speed>
  <fix>3d</fix>
</trkpt>
<trkpt lat="-27.274439" lon="151.290064">
  <ele>343.24</ele>
  <time>2026-09-01T19:54:02Z</time>
  <course>91.88</course>
  <speed>0.0</speed>
  <fix>3d</fix>
</trkpt>
<trkpt lat="-27.274439" lon="151.290064">
  <ele>343.1</ele>
  <time>2026-09-01T19:54:02Z</time>
  <course>52.39</course>
  <speed>0.0</speed>
  <fix>3d</fix>
</trkpt>
<trkpt lat="-27.274439" lon="151.290064">
  <ele>343.21</ele>
  <time>2026-09-01T19:54:02Z</time>
  <course>93.23</course>
  <speed>0.0</speed>
  <fix>3d</fix>
</trkpt>
<trkpt lat="-27.274439" lon="151.290064">
  <ele>343.1</ele>
  <time>2026-09-01T19:54:02Z</time>
  <course>52.39</course>
  <speed>0.0</speed>
  <fix>3d</fix>
</trkpt>
<trkpt lat="-27.274439" lon="151.290064">
  <ele>342.94</ele>
  <time>2026-09-01T19:54:02Z</time>
  <course>94.65</course>
  <speed>0.0</speed>
  <fix>3d</fix>
</trkpt>
<trkpt lat="-27.274439" lon="151.290064">
  <ele>343.1</ele>
  <time>2026-09-01T19:54:02Z</time>
  <course>52.39</course>
  <speed>0.0</speed>
  <fix>3d</fix>
</trkpt>
<trkpt lat="-27.274439" lon="151.290064">
  <ele>342.95</ele>
  <time>2026-09-01T19:54:02Z</time>
  <course>95.5</course>
  <speed>0.0</speed>
  <fix>3d</fix>
</trkpt>
<trkpt lat="-27.274439" lon="151.290064">
  <ele>343.1</ele>
  <time>2026-09-01T19:54:02Z</time>
  <course>52.39</course>
  <speed>0.0</speed>
  <fix>3d</fix>
</trkpt>
<trkpt lat="-27.274439" lon="151.290064">
  <ele>343.09</ele>
  <time>2026-09-01T19:54:02Z</time>
  <course>95.54</course>
  <speed>0.0</speed>
  <fix>3d</fix>
</trkpt>
<trkpt lat="-27.274439" lon="151.290064">
  <ele>343.1</ele>
  <time>2026-09-01T19:54:02Z</time>
  <course>52.39</course>
  <speed>0.0</speed>
  <fix>3d</fix>
</trkpt>
<trkpt lat="-27.274439" lon="151.290064">
  <ele>342.92</ele>
  <time>2026-09-01T19:54:02Z</time>
  <course>95.44</course>
  <speed>0.0</speed>
  <fix>3d</fix>
</trkpt>
<trkpt lat="-27.274439" lon="151.290064">
  <ele>343.1</ele>
  <time>2026-09-01T19:54:02Z</time>
  <course>52.39</course>
  <speed>0.0</speed>
  <fix>3d</fix>
</trkpt>
<trkpt lat="-27.274439" lon="151.290064">
  <ele>342.97</ele>
  <time>2026-09-01T19:54:02Z</time>
  <course>94.77</course>
  <speed>0.0</speed>
  <fix>3d</fix>
</trkpt>
<trkpt lat="-27.274439" lon="151.290064">
  <ele>343.1</ele>
  <time>2026-09-01T19:54:02Z</time>
  <course>52.39</course>
  <speed>0.0</speed>
  <fix>3d</fix>
</trkpt>
<trkpt lat="-27.274439" lon="151.290064">
  <ele>342.99</ele>
  <time>2026-09-01T19:54:02Z</time>
  <course>94.65</course>
  <speed>0.0</speed>
  <fix>3d</fix>
</trkpt>
<trkpt lat="-27.274439" lon="151.290064">
  <ele>343.1</ele>
  <time>2026-09-01T19:54:02Z</time>
  <course>52.39</course>
  <speed>0.0</speed>
  <fix>3d</fix>
</trkpt>
<trkpt lat="-27.274439" lon="151.290064">
  <ele>342.9</ele>
  <time>2026-09-01T19:54:02Z</time>
  <course>95.57</course>
  <speed>0.0</speed>
  <fix>3d</fix>
</trkpt>
<trkpt lat="-27.274439" lon="151.290064">
  <ele>343.1</ele>
  <time>2026-09-01T19:54:02Z</time>
  <course>52.39</course>
  <speed>0.0</speed>
  <fix>3d</fix>
</trkpt>
<trkpt lat="-27.274439" lon="151.290064">
  <ele>343.2</ele>
  <time>2026-09-01T19:54:02Z</time>
  <course>95.9</course>
  <speed>0.0</speed>
  <fix>3d</fix>
</trkpt>
<trkpt lat="-27.274439" lon="151.290064">
  <ele>343.1</ele>
  <time>2026-09-01T19:54:02Z</time>
  <course>52.39</course>
  <speed>0.0</speed>
  <fix>3d</fix>
</trkpt>
<trkpt lat="-27.274439" lon="151.290064">
  <ele>343.04</ele>
  <time>2026-09-01T19:54:02Z</time>
  <course>96.06</course>
  <speed>0.0</speed>
  <fix>3d</fix>
</trkpt>
<trkpt lat="-27.274439" lon="151.290064">
  <ele>343.1</ele>
  <time>2026-09-01T19:54:02Z</time>
  <course>52.39</course>
  <speed>0.0</speed>
  <fix>3d</fix>
</trkpt>
<trkpt lat="-27.274439" lon="151.290064">
  <ele>343.17</ele>
  <time>2026-09-01T19:54:02Z</time>
  <course>97.62</course>
  <speed>0.0</speed>
  <fix>3d</fix>
</trkpt>
<trkpt lat="-27.274439" lon="151.290064">
  <ele>343.1</ele>
  <time>2026-09-01T19:54:02Z</time>
  <course>52.39</course>
  <speed>0.0</speed>
  <fix>3d</fix>
</trkpt>
<trkpt lat="-27.274439" lon="151.290064">
  <ele>343.01</ele>
  <time>2026-09-01T19:54:02Z</time>
  <course>99.31</course>
  <speed>0.0</speed>
  <fix>3d</fix>
</trkpt>
<trkpt lat="-27.274439" lon="151.290064">
  <ele>343.1</ele>
  <time>2026-09-01T19:54:02Z</time>
  <course>52.39</course>
  <speed>0.0</speed>
  <fix>3d</fix>
</trkpt>
<trkpt lat="-27.274439" lon="151.290064">
  <ele>343.23</ele>
  <time>2026-09-01T19:54:02Z</time>
  <course>100.74</course>
  <speed>0.0</speed>
  <fix>3d</fix>
</trkpt>
<trkpt lat="-27.274439" lon="151.290064">
  <ele>343.1</ele>
  <time>2026-09-01T19:54:02Z</time>
  <course>52.39</course>
  <speed>0.0</speed>
  <fix>3d</fix>
</trkpt>
<trkpt lat="-27.274439" lon="151.290064">
  <ele>342.96</ele>
  <time>2026-09-01T19:54:02Z</time>
  <course>101.58</course>
  <speed>0.0</speed>
  <fix>3d</fix>
</trkpt>
<trkpt lat="-27.274439" lon="151.290064">
  <ele>343.1</ele>
  <time>2026-09-01T19:54:02Z</time>
  <course>52.39</course>
  <speed>0.0</speed>
  <fix>3d</fix>
</trkpt>
<trkpt lat="-27.274439" lon="151.290064">
  <ele>343.29</ele>
  <time>2026-09-01T19:54:02Z</time>
  <course>103.66</course>
  <speed>0.0</speed>
  <fix>3d</fix>
</trkpt>
<trkpt lat="-27.274439" lon="151.290064">
  <ele>343.1</ele>
  <time>2026-09-01T19:54:02Z</time>
  <course>52.39</course>
  <speed>0.0</speed>
  <fix>3d</fix>
</trkpt>
<trkpt lat="-27.274439" lon="151.290064">
  <ele>343.23</ele>
  <time>2026-09-01T19:54:02Z</time>
  <course>106.62</course>
  <speed>0.0</speed>
  <fix>3d</fix>
</trkpt>
<trkpt lat="-27.274439" lon="151.290064">
  <ele>343.1</ele>
  <time>2026-09-01T19:54:02Z</time>
  <course>52.39</course>
  <speed>0.0</speed>
  <fix>3d</fix>
</trkpt>
<trkpt lat="-27.274439" lon="151.290064">
  <ele>343.09</ele>
  <time>2026-09-01T19:54:02Z</time>
  <course>100.5</course>
  <speed>0.0</speed>
  <fix>3d</fix>
</trkpt>
<trkpt lat="-27.274439" lon="151.290064">
  <ele>343.1</ele>
  <time>2026-09-01T19:54:02Z</time>
  <course>52.39</course>
  <speed>0.0</speed>
  <fix>3d</fix>
</trkpt>
<trkpt lat="-27.274439" lon="151.290064">
  <ele>343.1</ele>
  <time>2026-09-01T19:54:02Z</time>
  <course>100.78</course>
  <speed>0.0</speed>
  <fix>3d</fix>
</trkpt>
<trkpt lat="-27.274439" lon="151.290064">
  <ele>343.1</ele>
  <time>2026-09-01T19:54:02Z</time>
  <course>52.39</course>
  <speed>0.0</speed>
  <fix>3d</fix>
</trkpt>
<trkpt lat="-27.274439" lon="151.290064">
  <ele>343.1</ele>
  <time>2026-09-01T19:54:02Z</time>
  <course>101.75</course>
  <speed>0.0</speed>
  <fix>3d</fix>
</trkpt>
<trkpt lat="-27.274439" lon="151.290064">
  <ele>343.1</ele>
  <time>2026-09-01T19:54:02Z</time>
  <course>52.39</course>
  <speed>0.0</speed>
  <fix>3d</fix>
</trkpt>
<trkpt lat="-27.274439" lon="151.290064">
  <ele>343.09</ele>
  <time>2026-09-01T19:54:02Z</time>
  <course>103.42</course>
  <speed>0.0</speed>
  <fix>3d</fix>
</trkpt>
<trkpt lat="-27.274439" lon="151.290064">
  <ele>343.1</ele>
  <time>2026-09-01T19:54:02Z</time>
  <course>52.39</course>
  <speed>0.0</speed>
  <fix>3d</fix>
</trkpt>
<trkpt lat="-27.274439" lon="151.290064">
  <ele>343.09</ele>
  <time>2026-09-01T19:54:02Z</time>
  <course>104.49</course>
  <speed>0.0</speed>
  <fix>3d</fix>
</trkpt>
<trkpt lat="-27.274439" lon="151.290064">
  <ele>343.1</ele>
  <time>2026-09-01T19:54:02Z</time>
  <course>52.39</course>
  <speed>0.0</speed>
  <fix>3d</fix>
</trkpt>
<trkpt lat="-27.274439" lon="151.290064">
  <ele>343.08</ele>
  <time>2026-09-01T19:54:02Z</time>
  <course>104.81</course>
  <speed>0.0</speed>
  <fix>3d</fix>
</trkpt>
<trkpt lat="-27.274439" lon="151.290064">
  <ele>343.1</ele>
  <time>2026-09-01T19:54:02Z</time>
  <course>52.39</course>
  <speed>0.0</speed>
  <fix>3d</fix>
</trkpt>
<trkpt lat="-27.274439" lon="151.290064">
  <ele>343.07</ele>
  <time>2026-09-01T19:54:02Z</time>
  <course>105.11</course>
  <speed>0.0</speed>
  <fix>3d</fix>
</trkpt>
<trkpt lat="-27.274439" lon="151.290064">
  <ele>343.1</ele>
  <time>2026-09-01T19:54:02Z</time>
  <course>52.39</course>
  <speed>0.0</speed>
  <fix>3d</fix>
</trkpt>
<trkpt lat="-27.274439" lon="151.290064">
  <ele>343.07</ele>
  <time>2026-09-01T19:54:02Z</time>
  <course>104.91</course>
  <speed>0.0</speed>
  <fix>3d</fix>
</trkpt>
<trkpt lat="-27.274439" lon="151.290064">
  <ele>343.1</ele>
  <time>2026-09-01T19:54:02Z</time>
  <course>52.39</course>
  <speed>0.0</speed>
  <fix>3d</fix>
</trkpt>
<trkpt lat="-27.274439" lon="151.290064">
  <ele>343.06</ele>
  <time>2026-09-01T19:54:02Z</time>
  <course>105.4</course>
  <speed>0.0</speed>
  <fix>3d</fix>
</trkpt>
<trkpt lat="-27.274439" lon="151.290064">
  <ele>343.1</ele>
  <time>2026-09-01T19:54:02Z</time>
  <course>52.39</course>
  <speed>0.0</speed>
  <fix>3d</fix>
</trkpt>
<trkpt lat="-27.274439" lon="151.290064">
  <ele>343.06</ele>
  <time>2026-09-01T19:54:02Z</time>
  <course>105.32</course>
  <speed>0.0</speed>
  <fix>3d</fix>
</trkpt>
<trkpt lat="-27.274439" lon="151.290064">
  <ele>343.1</ele>
  <time>2026-09-01T19:54:02Z</time>
  <course>52.39</course>
  <speed>0.0</speed>
  <fix>3d</fix>
</trkpt>
<trkpt lat="-27.274439" lon="151.290064">
  <ele>343.06</ele>
  <time>2026-09-01T19:54:02Z</time>
  <course>105.14</course>
  <speed>0.0</speed>
  <fix>3d</fix>
</trkpt>
<trkpt lat="-27.274439" lon="151.290064">
  <ele>343.1</ele>
  <time>2026-09-01T19:54:02Z</time>
  <course>52.39</course>
  <speed>0.0</speed>
  <fix>3d</fix>
</trkpt>
<trkpt lat="-27.274439" lon="151.290064">
  <ele>343.05</ele>
  <time>2026-09-01T19:54:02Z</time>
  <course>104.8</course>
  <speed>0.0</speed>
  <fix>3d</fix>
</trkpt>
<trkpt lat="-27.274439" lon="151.290064">
  <ele>343.1</ele>
  <time>2026-09-01T19:54:02Z</time>
  <course>52.39</course>
  <speed>0.0</speed>
  <fix>3d</fix>
</trkpt>
<trkpt lat="-27.274439" lon="151.290064">
  <ele>343.09</ele>
  <time>2026-09-01T19:54:02Z</time>
  <course>104.14</course>
  <speed>0.0</speed>
  <fix>3d</fix>
</trkpt>
<trkpt lat="-27.274439" lon="151.290064">
  <ele>343.1</ele>
  <time>2026-09-01T19:54:02Z</time>
  <course>52.39</course>
  <speed>0.0</speed>
  <fix>3d</fix>
</trkpt>
<trkpt lat="-27.274439" lon="151.290064">
  <ele>343.09</ele>
  <time>2026-09-01T19:54:02Z</time>
  <course>104.43</course>
  <speed>0.0</speed>
  <fix>3d</fix>
</trkpt>
<trkpt lat="-27.274439" lon="151.290064">
  <ele>343.1</ele>
  <time>2026-09-01T19:54:02Z</time>
  <course>52.39</course>
  <speed>0.0</speed>
  <fix>3d</fix>
</trkpt>
<trkpt lat="-27.274439" lon="151.290064">
  <ele>343.09</ele>
  <time>2026-09-01T19:54:02Z</time>
  <course>104.04</course>
  <speed>0.0</speed>
  <fix>3d</fix>
</trkpt>
<trkpt lat="-27.274439" lon="151.290064">
  <ele>343.1</ele>
  <time>2026-09-01T19:54:02Z</time>
  <course>52.39</course>
  <speed>0.0</speed>
  <fix>3d</fix>
</trkpt>
<trkpt lat="-27.274439" lon="151.290064">
  <ele>343.08</ele>
  <time>2026-09-01T19:54:02Z</time>
  <course>103.66</course>
  <speed>0.0</speed>
  <fix>3d</fix>
</trkpt>
<trkpt lat="-27.274439" lon="151.290064">
  <ele>343.1</ele>
  <time>2026-09-01T19:54:02Z</time>
  <course>52.39</course>
  <speed>0.0</speed>
  <fix>3d</fix>
</trkpt>
<trkpt lat="-27.274439" lon="151.290064">
  <ele>343.08</ele>
  <time>2026-09-01T19:54:02Z</time>
  <course>103.33</course>
  <speed>0.0</speed>
  <fix>3d</fix>
</trkpt>
<trkpt lat="-27.274439" lon="151.290064">
  <ele>343.1</ele>
  <time>2026-09-01T19:54:02Z</time>
  <course>52.39</course>
  <speed>0.0</speed>
  <fix>3d</fix>
</trkpt>
<trkpt lat="-27.274439" lon="151.290064">
  <ele>343.08</ele>
  <time>2026-09-01T19:54:02Z</time>
  <course>103.02</course>
  <speed>0.0</speed>
  <fix>3d</fix>
</trkpt>
<trkpt lat="-27.274439" lon="151.290064">
  <ele>343.1</ele>
  <time>2026-09-01T19:54:02Z</time>
  <course>52.39</course>
  <speed>0.0</speed>
  <fix>3d</fix>
</trkpt>
<trkpt lat="-27.274439" lon="151.290064">
  <ele>343.08</ele>
  <time>2026-09-01T19:54:02Z</time>
  <course>102.34</course>
  <speed>0.0</speed>
  <fix>3d</fix>
</trkpt>
<trkpt lat="-27.274439" lon="151.290064">
  <ele>343.1</ele>
  <time>2026-09-01T19:54:02Z</time>
  <course>52.39</course>
  <speed>0.0</speed>
  <fix>3d</fix>
</trkpt>
<trkpt lat="-27.274439" lon="151.290064">
  <ele>343.08</ele>
  <time>2026-09-01T19:54:02Z</time>
  <course>102.28</course>
  <speed>0.0</speed>
  <fix>3d</fix>
</trkpt>
<trkpt lat="-27.274439" lon="151.290064">
  <ele>343.1</ele>
  <time>2026-09-01T19:54:02Z</time>
  <course>52.39</course>
  <speed>0.0</speed>
  <fix>3d</fix>
</trkpt>
<trkpt lat="-27.274439" lon="151.290064">
  <ele>343.08</ele>
  <time>2026-09-01T19:54:02Z</time>
  <course>101.83</course>
  <speed>0.0</speed>
  <fix>3d</fix>
</trkpt>
<trkpt lat="-27.274439" lon="151.290064">
  <ele>343.1</ele>
  <time>2026-09-01T19:54:02Z</time>
  <course>52.39</course>
  <speed>0.0</speed>
  <fix>3d</fix>
</trkpt>
<trkpt lat="-27.274439" lon="151.290064">
  <ele>343.08</ele>
  <time>2026-09-01T19:54:02Z</time>
  <course>101.17</course>
  <speed>0.0</speed>
  <fix>3d</fix>
</trkpt>
<trkpt lat="-27.274439" lon="151.290064">
  <ele>343.1</ele>
  <time>2026-09-01T19:54:02Z</time>
  <course>52.39</course>
  <speed>0.0</speed>
  <fix>3d</fix>
</trkpt>
<trkpt lat="-27.274439" lon="151.290064">
  <ele>343.09</ele>
  <time>2026-09-01T19:54:02Z</time>
  <course>100.78</course>
  <speed>0.0</speed>
  <fix>3d</fix>
</trkpt>
<trkpt lat="-27.274439" lon="151.290064">
  <ele>343.1</ele>
  <time>2026-09-01T19:54:02Z</time>
  <course>52.39</course>
  <speed>0.0</speed>
  <fix>3d</fix>
</trkpt>
<trkpt lat="-27.274439" lon="151.290064">
  <ele>343.09</ele>
  <time>2026-09-01T19:54:02Z</time>
  <course>100.29</course>
  <speed>0.0</speed>
  <fix>3d</fix>
</trkpt>
<trkpt lat="-27.274439" lon="151.290064">
  <ele>343.1</ele>
  <time>2026-09-01T19:54:02Z</time>
  <course>52.39</course>
  <speed>0.0</speed>
  <fix>3d</fix>
</trkpt>
<trkpt lat="-27.274439" lon="151.290064">
  <ele>343.09</ele>
  <time>2026-09-01T19:54:02Z</time>
  <course>99.16</course>
  <speed>0.0</speed>
  <fix>3d</fix>
</trkpt>
<trkpt lat="-27.274439" lon="151.290064">
  <ele>343.1</ele>
  <time>2026-09-01T19:54:02Z</time>
  <course>52.39</course>
  <speed>0.0</speed>
  <fix>3d</fix>
</trkpt>
<trkpt lat="-27.274439" lon="151.290064">
  <ele>343.09</ele>
  <time>2026-09-01T19:54:02Z</time>
  <course>99.1</course>
  <speed>0.0</speed>
  <fix>3d</fix>
</trkpt>
<trkpt lat="-27.274439" lon="151.290064">
  <ele>343.1</ele>
  <time>2026-09-01T19:54:02Z</time>
  <course>52.39</course>
  <speed>0.0</speed>
  <fix>3d</fix>
</trkpt>
<trkpt lat="-27.274439" lon="151.290064">
  <ele>343.1</ele>
  <time>2026-09-01T19:54:02Z</time>
  <course>99.06</course>
  <speed>0.0</speed>
  <fix>3d</fix>
</trkpt>
<trkpt lat="-27.274439" lon="151.290064">
  <ele>343.1</ele>
  <time>2026-09-01T19:54:02Z</time>
  <course>52.39</course>
  <speed>0.0</speed>
  <fix>3d</fix>
</trkpt>
<trkpt lat="-27.274439" lon="151.290064">
  <ele>343.1</ele>
  <time>2026-09-01T19:54:02Z</time>
  <course>99.56</course>
  <speed>0.0</speed>
  <fix>3d</fix>
</trkpt>
<trkpt lat="-27.274439" lon="151.290064">
  <ele>343.1</ele>
  <time>2026-09-01T19:54:02Z</time>
  <course>171.07</course>
  <speed>0.0</speed>
  <fix>3d</fix>
</trkpt>
<trkpt lat="-27.274439" lon="151.290064">
  <ele>343.11</ele>
  <time>2026-09-01T19:54:02Z</time>
  <course>99.24</course>
  <speed>0.0</speed>
  <fix>3d</fix>
</trkpt>
<trkpt lat="-27.274439" lon="151.290064">
  <ele>343.1</ele>
  <time>2026-09-01T19:54:02Z</time>
  <course>171.07</course>
  <speed>0.0</speed>
  <fix>3d</fix>
</trkpt>
<trkpt lat="-27.274439" lon="151.290064">
  <ele>343.11</ele>
  <time>2026-09-01T19:54:02Z</time>
  <course>99.34</course>
  <speed>0.0</speed>
  <fix>3d</fix>
</trkpt>
<trkpt lat="-27.274439" lon="151.290064">
  <ele>343.11</ele>
  <time>2026-09-01T19:54:02Z</time>
  <course>100.16</course>
  <speed>0.0</speed>
  <fix>3d</fix>
</trkpt>
<trkpt lat="-27.274439" lon="151.290064">
  <ele>343.1</ele>
  <time>2026-09-01T19:54:02Z</time>
  <course>153.2</course>
  <speed>0.0</speed>
  <fix>3d</fix>
</trkpt>
<trkpt lat="-27.274439" lon="151.290064">
  <ele>343.11</ele>
  <time>2026-09-01T19:54:02Z</time>
  <course>100.25</course>
  <speed>0.0</speed>
  <fix>3d</fix>
</trkpt>
<trkpt lat="-27.274439" lon="151.290064">
  <ele>343.11</ele>
  <time>2026-09-01T19:54:02Z</time>
  <course>100.6</course>
  <speed>0.0</speed>
  <fix>3d</fix>
</trkpt>
<trkpt lat="-27.274439" lon="151.290064">
  <ele>343.1</ele>
  <time>2026-09-01T19:54:02Z</time>
  <course>153.2</course>
  <speed>0.0</speed>
  <fix>3d</fix>
</trkpt>
<trkpt lat="-27.274439" lon="151.290064">
  <ele>343.11</ele>
  <time>2026-09-01T19:54:02Z</time>
  <course>100.7</course>
  <speed>0.0</speed>
  <fix>3d</fix>
</trkpt>
<trkpt lat="-27.274439" lon="151.290064">
  <ele>343.12</ele>
  <time>2026-09-01T19:54:02Z</time>
  <course>101.21</course>
  <speed>0.0</speed>
  <fix>3d</fix>
</trkpt>
<trkpt lat="-27.274439" lon="151.290064">
  <ele>343.1</ele>
  <time>2026-09-01T19:54:02Z</time>
  <course>25.02</course>
  <speed>0.0</speed>
  <fix>3d</fix>
</trkpt>
<trkpt lat="-27.274439" lon="151.290064">
  <ele>343.12</ele>
  <time>2026-09-01T19:54:02Z</time>
  <course>101.06</course>
  <speed>0.0</speed>
  <fix>3d</fix>
</trkpt>
<trkpt lat="-27.274439" lon="151.290064">
  <ele>343.12</ele>
  <time>2026-09-01T19:54:02Z</time>
  <course>101.07</course>
  <speed>0.0</speed>
  <fix>3d</fix>
</trkpt>
<trkpt lat="-27.274439" lon="151.290064">
  <ele>343.1</ele>
  <time>2026-09-01T19:54:02Z</time>
  <course>25.02</course>
  <speed>0.0</speed>
  <fix>3d</fix>
</trkpt>
<trkpt lat="-27.274439" lon="151.290064">
  <ele>343.12</ele>
  <time>2026-09-01T19:54:02Z</time>
  <course>101.05</course>
  <speed>0.0</speed>
  <fix>3d</fix>
</trkpt>
<trkpt lat="-27.274439" lon="151.290064">
  <ele>343.12</ele>
  <time>2026-09-01T19:54:02Z</time>
  <course>101.58</course>
  <speed>0.0</speed>
  <fix>3d</fix>
</trkpt>
<trkpt lat="-27.274439" lon="151.290064">
  <ele>343.1</ele>
  <time>2026-09-01T19:54:02Z</time>
  <course>190.08</course>
  <speed>0.0</speed>
  <fix>3d</fix>
</trkpt>
<trkpt lat="-27.274439" lon="151.290064">
  <ele>343.12</ele>
  <time>2026-09-01T19:54:02Z</time>
  <course>101.73</course>
  <speed>0.0</speed>
  <fix>3d</fix>
</trkpt>
<trkpt lat="-27.274439" lon="151.290064">
  <ele>343.12</ele>
  <time>2026-09-01T19:54:02Z</time>
  <course>102.21</course>
  <speed>0.0</speed>
  <fix>3d</fix>
</trkpt>
<trkpt lat="-27.274439" lon="151.290064">
  <ele>343.1</ele>
  <time>2026-09-01T19:54:02Z</time>
  <course>190.08</course>
  <speed>0.0</speed>
  <fix>3d</fix>
</trkpt>
<trkpt lat="-27.274439" lon="151.290064">
  <ele>343.12</ele>
  <time>2026-09-01T19:54:02Z</time>
  <course>102.64</course>
  <speed>0.0</speed>
  <fix>3d</fix>
</trkpt>
<trkpt lat="-27.274439" lon="151.290064">
  <ele>343.13</ele>
  <time>2026-09-01T19:54:02Z</time>
  <course>103.38</course>
  <speed>0.0</speed>
  <fix>3d</fix>
</trkpt>
<trkpt lat="-27.274439" lon="151.290064">
  <ele>343.1</ele>
  <time>2026-09-01T19:54:02Z</time>
  <course>298.07</course>
  <speed>0.0</speed>
  <fix>3d</fix>
</trkpt>
<trkpt lat="-27.274439" lon="151.290064">
  <ele>343.13</ele>
  <time>2026-09-01T19:54:02Z</time>
  <course>103.51</course>
  <speed>0.0</speed>
  <fix>3d</fix>
</trkpt>
<trkpt lat="-27.274439" lon="151.290064">
  <ele>343.13</ele>
  <time>2026-09-01T19:54:02Z</time>
  <course>104.04</course>
  <speed>0.0</speed>
  <fix>3d</fix>
</trkpt>
<trkpt lat="-27.274439" lon="151.290064">
  <ele>343.1</ele>
  <time>2026-09-01T19:54:02Z</time>
  <course>298.07</course>
  <speed>0.0</speed>
  <fix>3d</fix>
</trkpt>
<trkpt lat="-27.274439" lon="151.290064">
  <ele>343.13</ele>
  <time>2026-09-01T19:54:02Z</time>
  <course>104.05</course>
  <speed>0.0</speed>
  <fix>3d</fix>
</trkpt>
<trkpt lat="-27.274439" lon="151.290064">
  <ele>343.16</ele>
  <time>2026-09-01T19:54:02Z</time>
  <course>104.68</course>
  <speed>0.0</speed>
  <fix>3d</fix>
</trkpt>
<trkpt lat="-27.274439" lon="151.290064">
  <ele>343.11</ele>
  <time>2026-09-01T19:54:02Z</time>
  <course>180.02</course>
  <speed>0.0</speed>
  <fix>3d</fix>
</trkpt>
<trkpt lat="-27.274439" lon="151.290064">
  <ele>343.16</ele>
  <time>2026-09-01T19:54:02Z</time>
  <course>104.8</course>
  <speed>0.0</speed>
  <fix>3d</fix>
</trkpt>
<trkpt lat="-27.274439" lon="151.290064">
  <ele>343.21</ele>
  <time>2026-09-01T19:54:02Z</time>
  <course>105.4</course>
  <speed>0.0</speed>
  <fix>3d</fix>
</trkpt>
<trkpt lat="-27.274439" lon="151.290064">
  <ele>343.11</ele>
  <time>2026-09-01T19:54:02Z</time>
  <course>180.02</course>
  <speed>0.0</speed>
  <fix>3d</fix>
</trkpt>
<trkpt lat="-27.274439" lon="151.290064">
  <ele>343.22</ele>
  <time>2026-09-01T19:54:02Z</time>
  <course>105.71</course>
  <speed>0.0</speed>
  <fix>3d</fix>
</trkpt>
<trkpt lat="-27.274439" lon="151.290064">
  <ele>343.27</ele>
  <time>2026-09-01T19:54:02Z</time>
  <course>86.5</course>
  <speed>0.0</speed>
  <fix>3d</fix>
</trkpt>
<trkpt lat="-27.274439" lon="151.290064">
  <ele>343.16</ele>
  <time>2026-09-01T19:54:02Z</time>
  <course>180.38</course>
  <speed>0.0</speed>
  <fix>3d</fix>
</trkpt>
<trkpt lat="-27.274439" lon="151.290064">
  <ele>343.27</ele>
  <time>2026-09-01T19:54:02Z</time>
  <course>90.05</course>
  <speed>0.0</speed>
  <fix>3d</fix>
</trkpt>
<trkpt lat="-27.274439" lon="151.290064">
  <ele>343.38</ele>
  <time>2026-09-01T19:54:02Z</time>
  <course>74.57</course>
  <speed>0.01</speed>
  <fix>3d</fix>
</trkpt>
<trkpt lat="-27.274439" lon="151.290064">
  <ele>343.16</ele>
  <time>2026-09-01T19:54:02Z</time>
  <course>180.38</course>
  <speed>0.0</speed>
  <fix>3d</fix>
</trkpt>
<trkpt lat="-27.274439" lon="151.290064">
  <ele>343.39</ele>
  <time>2026-09-01T19:54:02Z</time>
  <course>94.57</course>
  <speed>0.01</speed>
  <fix>3d</fix>
</trkpt>
<trkpt lat="-27.274439" lon="151.290064">
  <ele>343.57</ele>
  <time>2026-09-01T19:54:02Z</time>
  <course>194.59</course>
  <speed>0.02</speed>
  <fix>3d</fix>
</trkpt>
<trkpt lat="-27.274439" lon="151.290064">
  <ele>343.36</ele>
  <time>2026-09-01T19:54:02Z</time>
  <course>181.54</course>
  <speed>0.01</speed>
  <fix>3d</fix>
</trkpt>
<trkpt lat="-27.274439" lon="151.290064">
  <ele>343.63</ele>
  <time>2026-09-01T19:54:02Z</time>
  <course>1.58</course>
  <speed>0.02</speed>
  <fix>3d</fix>
</trkpt>
<trkpt lat="-27.274439" lon="151.290064">
  <ele>343.81</ele>
  <time>2026-09-01T19:54:02Z</time>
  <course>186.03</course>
  <speed>0.03</speed>
  <fix>3d</fix>
</trkpt>
<trkpt lat="-27.274439" lon="151.290064">
  <ele>343.36</ele>
  <time>2026-09-01T19:54:02Z</time>
  <course>181.54</course>
  <speed>0.01</speed>
  <fix>3d</fix>
</trkpt>
<trkpt lat="-27.274439" lon="151.290064">
  <ele>343.88</ele>
  <time>2026-09-01T19:54:02Z</time>
  <course>0.62</course>
  <speed>0.04</speed>
  <fix>3d</fix>
</trkpt>
<trkpt lat="-27.274439" lon="151.290064">
  <ele>344.08</ele>
  <time>2026-09-01T19:54:02Z</time>
  <course>184.15</course>
  <speed>0.05</speed>
  <fix>3d</fix>
</trkpt>
<trkpt lat="-27.274439" lon="151.290064">
  <ele>343.74</ele>
  <time>2026-09-01T19:54:02Z</time>
  <course>181.78</course>
  <speed>0.03</speed>
  <fix>3d</fix>
</trkpt>
<trkpt lat="-27.2744391" lon="151.290064">
  <ele>344.15</ele>
  <time>2026-09-01T19:54:02Z</time>
  <course>3.04</course>
  <speed>0.05</speed>
  <fix>3d</fix>
</trkpt>
<trkpt lat="-27.2744391" lon="151.290064">
  <ele>344.34</ele>
  <time>2026-09-01T19:54:02Z</time>
  <course>182.26</course>
  <speed>0.05</speed>
  <fix>3d</fix>
</trkpt>
<trkpt lat="-27.274439" lon="151.290064">
  <ele>343.74</ele>
  <time>2026-09-01T19:54:02Z</time>
  <course>181.78</course>
  <speed>0.03</speed>
  <fix>3d</fix>
</trkpt>
<trkpt lat="-27.2744391" lon="151.290064">
  <ele>344.41</ele>
  <time>2026-09-01T19:54:02Z</time>
  <course>0.14</course>
  <speed>0.06</speed>
  <fix>3d</fix>
</trkpt>
<trkpt lat="-27.2744391" lon="151.290064">
  <ele>344.6</ele>
  <time>2026-09-01T19:54:02Z</time>
  <course>1.32</course>
  <speed>0.07</speed>
  <fix>3d</fix>
</trkpt>
<trkpt lat="-27.274439" lon="151.290064">
  <ele>344.25</ele>
  <time>2026-09-01T19:54:02Z</time>
  <course>181.67</course>
  <speed>0.06</speed>
  <fix>3d</fix>
</trkpt>
<trkpt lat="-27.2744392" lon="151.290064">
  <ele>344.66</ele>
  <time>2026-09-01T19:54:02Z</time>
  <course>180.32</course>
  <speed>0.07</speed>
  <fix>3d</fix>
</trkpt>
<trkpt lat="-27.2744392" lon="151.290064">
  <ele>344.85</ele>
  <time>2026-09-01T19:54:02Z</time>
  <course>179.83</course>
  <speed>0.07</speed>
  <fix>3d</fix>
</trkpt>
<trkpt lat="-27.274439" lon="151.290064">
  <ele>344.25</ele>
  <time>2026-09-01T19:54:02Z</time>
  <course>181.67</course>
  <speed>0.06</speed>
  <fix>3d</fix>
</trkpt>
<trkpt lat="-27.2744392" lon="151.290064">
  <ele>344.91</ele>
  <time>2026-09-01T19:54:02Z</time>
  <course>1.24</course>
  <speed>0.07</speed>
  <fix>3d</fix>
</trkpt>
<trkpt lat="-27.2744393" lon="151.290064">
  <ele>345.1</ele>
  <time>2026-09-01T19:54:02Z</time>
  <course>7.12</course>
  <speed>0.08</speed>
  <fix>3d</fix>
</trkpt>
<trkpt lat="-27.2744391" lon="151.290064">
  <ele>344.76</ele>
  <time>2026-09-01T19:54:02Z</time>
  <course>181.23</course>
  <speed>0.07</speed>
  <fix>3d</fix>
</trkpt>
<trkpt lat="-27.2744393" lon="151.290064">
  <ele>345.19</ele>
  <time>2026-09-01T19:54:02Z</time>
  <course>6.3</course>
  <speed>0.08</speed>
  <fix>3d</fix>
</trkpt>
<trkpt lat="-27.2744393" lon="151.290064">
  <ele>345.38</ele>
  <time>2026-09-01T19:54:02Z</time>
  <course>0.63</course>
  <speed>0.08</speed>
  <fix>3d</fix>
</trkpt>
<trkpt lat="-27.2744391" lon="151.290064">
  <ele>344.76</ele>
  <time>2026-09-01T19:54:02Z</time>
  <course>181.23</course>
  <speed>0.07</speed>
  <fix>3d</fix>
</trkpt>
<trkpt lat="-27.2744393" lon="151.290064">
  <ele>345.47</ele>
  <time>2026-09-01T19:54:02Z</time>
  <course>6.23</course>
  <speed>0.08</speed>
  <fix>3d</fix>
</trkpt>
<trkpt lat="-27.2744394" lon="151.290064">
  <ele>345.67</ele>
  <time>2026-09-01T19:54:02Z</time>
  <course>4.85</course>
  <speed>0.08</speed>
  <fix>3d</fix>
</trkpt>
<trkpt lat="-27.2744393" lon="151.290064">
  <ele>345.28</ele>
  <time>2026-09-01T19:54:02Z</time>
  <course>180.6</course>
  <speed>0.07</speed>
  <fix>3d</fix>
</trkpt>
<trkpt lat="-27.2744394" lon="151.290064">
  <ele>345.74</ele>
  <time>2026-09-01T19:54:02Z</time>
  <course>359.2</course>
  <speed>0.08</speed>
  <fix>3d</fix>
</trkpt>
<trkpt lat="-27.2744395" lon="151.290064">
  <ele>345.95</ele>
  <time>2026-09-01T19:54:02Z</time>
  <course>14.8</course>
  <speed>0.08</speed>
  <fix>3d</fix>
</trkpt>
<trkpt lat="-27.2744393" lon="151.290064">
  <ele>345.28</ele>
  <time>2026-09-01T19:54:02Z</time>
  <course>180.6</course>
  <speed>0.07</speed>
  <fix>3d</fix>
</trkpt>
<trkpt lat="-27.2744395" lon="151.290064">
  <ele>345.97</ele>
  <time>2026-09-01T19:54:02Z</time>
  <course>8.6</course>
  <speed>0.08</speed>
  <fix>3d</fix>
</trkpt>
<trkpt lat="-27.2744395" lon="151.290064">
  <ele>346.23</ele>
  <time>2026-09-01T19:54:02Z</time>
  <course>26.55</course>
  <speed>0.08</speed>
  <fix>3d</fix>
</trkpt>
<trkpt lat="-27.2744395" lon="151.290064">
  <ele>345.82</ele>
  <time>2026-09-01T19:54:02Z</time>
  <course>180.14</course>
  <speed>0.07</speed>
  <fix>3d</fix>
</trkpt>
<trkpt lat="-27.2744395" lon="151.290064">
  <ele>346.24</ele>
  <time>2026-09-01T19:54:02Z</time>
  <course>28.41</course>
  <speed>0.08</speed>
  <fix>3d</fix>
</trkpt>
<trkpt lat="-27.2744396" lon="151.290064">
  <ele>346.51</ele>
  <time>2026-09-01T19:54:02Z</time>
  <course>23.62</course>
  <speed>0.08</speed>
  <fix>3d</fix>
</trkpt>
<trkpt lat="-27.2744395" lon="151.290064">
  <ele>345.82</ele>
  <time>2026-09-01T19:54:02Z</time>
  <course>180.14</course>
  <speed>0.07</speed>
  <fix>3d</fix>
</trkpt>
<trkpt lat="-27.2744396" lon="151.290064">
  <ele>346.58</ele>
  <time>2026-09-01T19:54:02Z</time>
  <course>345.47</course>
  <speed>0.08</speed>
  <fix>3d</fix>
</trkpt>
<trkpt lat="-27.2744397" lon="151.290064">
  <ele>346.78</ele>
  <time>2026-09-01T19:54:02Z</time>
  <course>331.98</course>
  <speed>0.08</speed>
  <fix>3d</fix>
</trkpt>
<trkpt lat="-27.2744396" lon="151.290064">
  <ele>346.36</ele>
  <time>2026-09-01T19:54:02Z</time>
  <course>180.23</course>
  <speed>0.06</speed>
  <fix>3d</fix>
</trkpt>
<trkpt lat="-27.2744397" lon="151.290064">
  <ele>346.84</ele>
  <time>2026-09-01T19:54:02Z</time>
  <course>59.17</course>
  <speed>0.08</speed>
  <fix>3d</fix>
</trkpt>
<trkpt lat="-27.2744397" lon="151.290064">
  <ele>347.04</ele>
  <time>2026-09-01T19:54:02Z</time>
  <course>298.54</course>
  <speed>0.08</speed>
  <fix>3d</fix>
</trkpt>
<trkpt lat="-27.2744396" lon="151.290064">
  <ele>346.36</ele>
  <time>2026-09-01T19:54:02Z</time>
  <course>180.23</course>
  <speed>0.06</speed>
  <fix>3d</fix>
</trkpt>
<trkpt lat="-27.2744397" lon="151.290064">
  <ele>347.1</ele>
  <time>2026-09-01T19:54:02Z</time>
  <course>58.07</course>
  <speed>0.08</speed>
  <fix>3d</fix>
</trkpt>
<trkpt lat="-27.2744398" lon="151.290064">
  <ele>347.29</ele>
  <time>2026-09-01T19:54:02Z</time>
  <course>54.03</course>
  <speed>0.08</speed>
  <fix>3d</fix>
</trkpt>
<trkpt lat="-27.2744397" lon="151.290064">
  <ele>346.88</ele>
  <time>2026-09-01T19:54:02Z</time>
  <course>179.39</course>
  <speed>0.06</speed>
  <fix>3d</fix>
</trkpt>
<trkpt lat="-27.2744398" lon="151.290064">
  <ele>347.36</ele>
  <time>2026-09-01T19:54:02Z</time>
  <course>310.91</course>
  <speed>0.07</speed>
  <fix>3d</fix>
</trkpt>
<trkpt lat="-27.2744398" lon="151.290064">
  <ele>347.54</ele>
  <time>2026-09-01T19:54:02Z</time>
  <course>67.37</course>
  <speed>0.07</speed>
  <fix>3d</fix>
</trkpt>
<trkpt lat="-27.2744397" lon="151.290064">
  <ele>346.88</ele>
  <time>2026-09-01T19:54:02Z</time>
  <course>179.39</course>
  <speed>0.06</speed>
  <fix>3d</fix>
</trkpt>
<trkpt lat="-27.2744399" lon="151.290064">
  <ele>347.6</ele>
  <time>2026-09-01T19:54:02Z</time>
  <course>312.22</course>
  <speed>0.07</speed>
  <fix>3d</fix>
</trkpt>
<trkpt lat="-27.2744399" lon="151.290064">
  <ele>347.77</ele>
  <time>2026-09-01T19:54:02Z</time>
  <course>313.41</course>
  <speed>0.06</speed>
  <fix>3d</fix>
</trkpt>
<trkpt lat="-27.2744398" lon="151.290064">
  <ele>347.36</ele>
  <time>2026-09-01T19:54:02Z</time>
  <course>179.27</course>
  <speed>0.05</speed>
  <fix>3d</fix>
</trkpt>
<trkpt lat="-27.2744399" lon="151.290064">
  <ele>347.83</ele>
  <time>2026-09-01T19:54:02Z</time>
  <course>60.84</course>
  <speed>0.06</speed>
  <fix>3d</fix>
</trkpt>
<trkpt lat="-27.2744399" lon="151.290064">
  <ele>348.0</ele>
  <time>2026-09-01T19:54:02Z</time>
  <course>18.43</course>
  <speed>0.06</speed>
  <fix>3d</fix>
</trkpt>
<trkpt lat="-27.2744398" lon="151.290064">
  <ele>347.36</ele>
  <time>2026-09-01T19:54:02Z</time>
  <course>179.27</course>
  <speed>0.05</speed>
  <fix>3d</fix>
</trkpt>
<trkpt lat="-27.2744399" lon="151.290064">
  <ele>348.06</ele>
  <time>2026-09-01T19:54:02Z</time>
  <course>348.05</course>
  <speed>0.06</speed>
  <fix>3d</fix>
</trkpt>
<trkpt lat="-27.27444" lon="151.290064">
  <ele>348.23</ele>
  <time>2026-09-01T19:54:02Z</time>
  <course>6.38</course>
  <speed>0.05</speed>
  <fix>3d</fix>
</trkpt>
<trkpt lat="-27.2744399" lon="151.290064">
  <ele>347.81</ele>
  <time>2026-09-01T19:54:02Z</time>
  <course>180.53</course>
  <speed>0.04</speed>
  <fix>3d</fix>
</trkpt>
<trkpt lat="-27.27444" lon="151.290064">
  <ele>348.28</ele>
  <time>2026-09-01T19:54:02Z</time>
  <course>15.87</course>
  <speed>0.05</speed>
  <fix>3d</fix>
</trkpt>
<trkpt lat="-27.27444" lon="151.290064">
  <ele>348.45</ele>
  <time>2026-09-01T19:54:02Z</time>
  <course>10.13</course>
  <speed>0.04</speed>
  <fix>3d</fix>
</trkpt>
<trkpt lat="-27.2744399" lon="151.290064">
  <ele>347.81</ele>
  <time>2026-09-01T19:54:02Z</time>
  <course>180.53</course>
  <speed>0.04</speed>
  <fix>3d</fix>
</trkpt>
<trkpt lat="-27.27444" lon="151.290064">
  <ele>348.52</ele>
  <time>2026-09-01T19:54:02Z</time>
  <course>174.14</course>
  <speed>0.04</speed>
  <fix>3d</fix>
</trkpt>
<trkpt lat="-27.27444" lon="151.290064">
  <ele>348.67</ele>
  <time>2026-09-01T19:54:02Z</time>
  <course>173.45</course>
  <speed>0.04</speed>
  <fix>3d</fix>
</trkpt>
<trkpt lat="-27.27444" lon="151.290064">
  <ele>348.25</ele>
  <time>2026-09-01T19:54:02Z</time>
  <course>179.16</course>
  <speed>0.03</speed>
  <fix>3d</fix>
</trkpt>
<trkpt lat="-27.27444" lon="151.290064">
  <ele>348.68</ele>
  <time>2026-09-01T19:54:02Z</time>
  <course>12.48</course>
  <speed>0.04</speed>
  <fix>3d</fix>
</trkpt>
<trkpt lat="-27.27444" lon="151.290064">
  <ele>348.88</ele>
  <time>2026-09-01T19:54:02Z</time>
  <course>170.22</course>
  <speed>0.03</speed>
  <fix>3d</fix>
</trkpt>
<trkpt lat="-27.27444" lon="151.290064">
  <ele>348.25</ele>
  <time>2026-09-01T19:54:02Z</time>
  <course>179.16</course>
  <speed>0.03</speed>
  <fix>3d</fix>
</trkpt>
<trkpt lat="-27.27444" lon="151.290064">
  <ele>348.89</ele>
  <time>2026-09-01T19:54:02Z</time>
  <course>177.2</course>
  <speed>0.03</speed>
  <fix>3d</fix>
</trkpt>
<trkpt lat="-27.27444" lon="151.290064">
  <ele>349.08</ele>
  <time>2026-09-01T19:54:02Z</time>
  <course>4.45</course>
  <speed>0.02</speed>
  <fix>3d</fix>
</trkpt>
<trkpt lat="-27.27444" lon="151.290064">
  <ele>348.66</ele>
  <time>2026-09-01T19:54:02Z</time>
  <course>173.37</course>
  <speed>0.02</speed>
  <fix>3d</fix>
</trkpt>
<trkpt lat="-27.27444" lon="151.290064">
  <ele>349.13</ele>
  <time>2026-09-01T19:54:02Z</time>
  <course>169.51</course>
  <speed>0.02</speed>
  <fix>3d</fix>
</trkpt>
<trkpt lat="-27.2744401" lon="151.290064">
  <ele>349.28</ele>
  <time>2026-09-01T19:54:02Z</time>
  <course>10.39</course>
  <speed>0.02</speed>
  <fix>3d</fix>
</trkpt>
<trkpt lat="-27.27444" lon="151.290064">
  <ele>348.66</ele>
  <time>2026-09-01T19:54:02Z</time>
  <course>173.37</course>
  <speed>0.02</speed>
  <fix>3d</fix>
</trkpt>
<trkpt lat="-27.2744401" lon="151.290064">
  <ele>349.34</ele>
  <time>2026-09-01T19:54:02Z</time>
  <course>5.49</course>
  <speed>0.02</speed>
  <fix>3d</fix>
</trkpt>
<trkpt lat="-27.2744401" lon="151.290064">
  <ele>349.49</ele>
  <time>2026-09-01T19:54:02Z</time>
  <course>6.6</course>
  <speed>0.01</speed>
  <fix>3d</fix>
</trkpt>
<trkpt lat="-27.2744401" lon="151.290064">
  <ele>349.07</ele>
  <time>2026-09-01T19:54:02Z</time>
  <course>151.5</course>
  <speed>0.0</speed>
  <fix>3d</fix>
</trkpt>
<trkpt lat="-27.2744401" lon="151.290064">
  <ele>349.55</ele>
  <time>2026-09-01T19:54:02Z</time>
  <course>7.24</course>
  <speed>0.01</speed>
  <fix>3d</fix>
</trkpt>
<trkpt lat="-27.2744401" lon="151.290064">
  <ele>349.71</ele>
  <time>2026-09-01T19:54:02Z</time>
  <course>6.25</course>
  <speed>0.01</speed>
  <fix>3d</fix>
</trkpt>
<trkpt lat="-27.2744401" lon="151.290064">
  <ele>349.07</ele>
  <time>2026-09-01T19:54:02Z</time>
  <course>151.5</course>
  <speed>0.0</speed>
  <fix>3d</fix>
</trkpt>
<trkpt lat="-27.2744401" lon="151.290064">
  <ele>349.76</ele>
  <time>2026-09-01T19:54:02Z</time>
  <course>5.65</course>
  <speed>0.01</speed>
  <fix>3d</fix>
</trkpt>
<trkpt lat="-27.2744401" lon="151.290064">
  <ele>349.94</ele>
  <time>2026-09-01T19:54:02Z</time>
  <course>5.76</course>
  <speed>0.01</speed>
  <fix>3d</fix>
</trkpt>
<trkpt lat="-27.2744401" lon="151.290064">
  <ele>349.5</ele>
  <time>2026-09-01T19:54:02Z</time>
  <course>103.3</course>
  <speed>0.0</speed>
  <fix>3d</fix>
</trkpt>
<trkpt lat="-27.2744401" lon="151.290064">
  <ele>349.99</ele>
  <time>2026-09-01T19:54:02Z</time>
  <course>4.59</course>
  <speed>0.01</speed>
  <fix>3d</fix>
</trkpt>
<trkpt lat="-27.2744401" lon="151.290064">
  <ele>350.18</ele>
  <time>2026-09-01T19:54:02Z</time>
  <course>4.81</course>
  <speed>0.01</speed>
  <fix>3d</fix>
</trkpt>
<trkpt lat="-27.2744401" lon="151.290064">
  <ele>349.5</ele>
  <time>2026-09-01T19:54:02Z</time>
  <course>103.3</course>
  <speed>0.0</speed>
  <fix>3d</fix>
</trkpt>
<trkpt lat="-27.2744401" lon="151.290064">
  <ele>350.24</ele>
  <time>2026-09-01T19:54:02Z</time>
  <course>3.32</course>
  <speed>0.01</speed>
  <fix>3d</fix>
</trkpt>
<trkpt lat="-27.2744401" lon="151.290064">
  <ele>350.42</ele>
  <time>2026-09-01T19:54:02Z</time>
  <course>3.53</course>
  <speed>0.01</speed>
  <fix>3d</fix>
</trkpt>
<trkpt lat="-27.2744401" lon="151.290064">
  <ele>349.95</ele>
  <time>2026-09-01T19:54:02Z</time>
  <course>81.74</course>
  <speed>0.0</speed>
  <fix>3d</fix>
</trkpt>
<trkpt lat="-27.2744401" lon="151.290064">
  <ele>350.47</ele>
  <time>2026-09-01T19:54:02Z</time>
  <course>3.43</course>
  <speed>0.01</speed>
  <fix>3d</fix>
</trkpt>
<trkpt lat="-27.2744401" lon="151.290064">
  <ele>350.66</ele>
  <time>2026-09-01T19:54:02Z</time>
  <course>1.2</course>
  <speed>0.01</speed>
  <fix>3d</fix>
</trkpt>
<trkpt lat="-27.2744401" lon="151.290064">
  <ele>349.95</ele>
  <time>2026-09-01T19:54:02Z</time>
  <course>81.74</course>
  <speed>0.0</speed>
  <fix>3d</fix>
</trkpt>
<trkpt lat="-27.2744401" lon="151.290064">
  <ele>350.72</ele>
  <time>2026-09-01T19:54:02Z</time>
  <course>4.24</course>
  <speed>0.01</speed>
  <fix>3d</fix>
</trkpt>
<trkpt lat="-27.2744401" lon="151.290064">
  <ele>350.92</ele>
  <time>2026-09-01T19:54:02Z</time>
  <course>357.97</course>
  <speed>0.01</speed>
  <fix>3d</fix>
</trkpt>
<trkpt lat="-27.2744401" lon="151.290064">
  <ele>350.44</ele>
  <time>2026-09-01T19:54:02Z</time>
  <course>82.57</course>
  <speed>0.0</speed>
  <fix>3d</fix>
</trkpt>
<trkpt lat="-27.2744401" lon="151.290064">
  <ele>350.98</ele>
  <time>2026-09-01T19:54:02Z</time>
  <course>5.85</course>
  <speed>0.01</speed>
  <fix>3d</fix>
</trkpt>
<trkpt lat="-27.2744401" lon="151.290064">
  <ele>351.17</ele>
  <time>2026-09-01T19:54:02Z</time>
  <course>355.73</course>
  <speed>0.01</speed>
  <fix>3d</fix>
</trkpt>
<trkpt lat="-27.2744401" lon="151.290064">
  <ele>350.44</ele>
  <time>2026-09-01T19:54:02Z</time>
  <course>82.57</course>
  <speed>0.0</speed>
  <fix>3d</fix>
</trkpt>
<trkpt lat="-27.2744401" lon="151.290064">
  <ele>351.18</ele>
  <time>2026-09-01T19:54:02Z</time>
  <course>354.49</course>
  <speed>0.01</speed>
  <fix>3d</fix>
</trkpt>
<trkpt lat="-27.2744401" lon="151.290064">
  <ele>351.43</ele>
  <time>2026-09-01T19:54:02Z</time>
  <course>359.49</course>
  <speed>0.01</speed>
  <fix>3d</fix>
</trkpt>
<trkpt lat="-27.2744401" lon="151.290064">
  <ele>350.94</ele>
  <time>2026-09-01T19:54:02Z</time>
  <course>98.69</course>
  <speed>0.0</speed>
  <fix>3d</fix>
</trkpt>
<trkpt lat="-27.2744401" lon="151.290064">
  <ele>351.44</ele>
  <time>2026-09-01T19:54:02Z</time>
  <course>354.83</course>
  <speed>0.01</speed>
  <fix>3d</fix>
</trkpt>
<trkpt lat="-27.2744401" lon="151.290064">
  <ele>351.7</ele>
  <time>2026-09-01T19:54:02Z</time>
  <course>15.12</course>
  <speed>0.01</speed>
  <fix>3d</fix>
</trkpt>
<trkpt lat="-27.2744401" lon="151.290064">
  <ele>350.94</ele>
  <time>2026-09-01T19:54:02Z</time>
  <course>98.69</course>
  <speed>0.0</speed>
  <fix>3d</fix>
</trkpt>
<trkpt lat="-27.2744401" lon="151.290064">
  <ele>351.77</ele>
  <time>2026-09-01T19:54:02Z</time>
  <course>342.93</course>
  <speed>0.01</speed>
  <fix>3d</fix>
</trkpt>
<trkpt lat="-27.2744401" lon="151.290064">
  <ele>351.96</ele>
  <time>2026-09-01T19:54:02Z</time>
  <course>38.28</course>
  <speed>0.01</speed>
  <fix>3d</fix>
</trkpt>
<trkpt lat="-27.2744401" lon="151.290064">
  <ele>351.46</ele>
  <time>2026-09-01T19:54:02Z</time>
  <course>127.94</course>
  <speed>0.0</speed>
  <fix>3d</fix>
</trkpt>
<trkpt lat="-27.2744401" lon="151.290064">
  <ele>352.03</ele>
  <time>2026-09-01T19:54:02Z</time>
  <course>323.37</course>
  <speed>0.01</speed>
  <fix>3d</fix>
</trkpt>
<trkpt lat="-27.2744401" lon="151.290064">
  <ele>352.22</ele>
  <time>2026-09-01T19:54:02Z</time>
  <course>52.89</course>
  <speed>0.01</speed>
  <fix>3d</fix>
</trkpt>
<trkpt lat="-27.2744401" lon="151.290064">
  <ele>351.46</ele>
  <time>2026-09-01T19:54:02Z</time>
  <course>127.94</course>
  <speed>0.0</speed>
  <fix>3d</fix>
</trkpt>
<trkpt lat="-27.2744401" lon="151.290064">
  <ele>352.29</ele>
  <time>2026-09-01T19:54:02Z</time>
  <course>322.29</course>
  <speed>0.01</speed>
  <fix>3d</fix>
</trkpt>
<trkpt lat="-27.2744401" lon="151.290064">
  <ele>352.48</ele>
  <time>2026-09-01T19:54:02Z</time>
  <course>279.52</course>
  <speed>0.01</speed>
  <fix>3d</fix>
</trkpt>
<trkpt lat="-27.2744401" lon="151.290064">
  <ele>351.97</ele>
  <time>2026-09-01T19:54:02Z</time>
  <course>170.32</course>
  <speed>0.0</speed>
  <fix>3d</fix>
</trkpt>
<trkpt lat="-27.2744401" lon="151.290064">
  <ele>352.55</ele>
  <time>2026-09-01T19:54:02Z</time>
  <course>31.03</course>
  <speed>0.01</speed>
  <fix>3d</fix>
</trkpt>
<trkpt lat="-27.2744401" lon="151.290064">
  <ele>352.73</ele>
  <time>2026-09-01T19:54:02Z</time>
  <course>356.84</course>
  <speed>0.01</speed>
  <fix>3d</fix>
</trkpt>
<trkpt lat="-27.2744401" lon="151.290064">
  <ele>351.97</ele>
  <time>2026-09-01T19:54:02Z</time>
  <course>170.32</course>
  <speed>0.0</speed>
  <fix>3d</fix>
</trkpt>
<trkpt lat="-27.2744401" lon="151.290064">
  <ele>352.74</ele>
  <time>2026-09-01T19:54:02Z</time>
  <course>288.07</course>
  <speed>0.01</speed>
  <fix>3d</fix>
</trkpt>
<trkpt lat="-27.2744401" lon="151.290064">
  <ele>352.96</ele>
  <time>2026-09-01T19:54:02Z</time>
  <course>9.72</course>
  <speed>0.01</speed>
  <fix>3d</fix>
</trkpt>
<trkpt lat="-27.2744401" lon="151.290064">
  <ele>352.47</ele>
  <time>2026-09-01T19:54:02Z</time>
  <course>189.38</course>
  <speed>0.0</speed>
  <fix>3d</fix>
</trkpt>
<trkpt lat="-27.2744401" lon="151.290064">
  <ele>352.97</ele>
  <time>2026-09-01T19:54:02Z</time>
  <course>11.09</course>
  <speed>0.0</speed>
  <fix>3d</fix>
</trkpt>
<trkpt lat="-27.2744401" lon="151.290064">
  <ele>353.18</ele>
  <time>2026-09-01T19:54:02Z</time>
  <course>307.53</course>
  <speed>0.0</speed>
  <fix>3d</fix>
</trkpt>
<trkpt lat="-27.2744401" lon="151.290064">
  <ele>352.47</ele>
  <time>2026-09-01T19:54:02Z</time>
  <course>189.38</course>
  <speed>0.0</speed>
  <fix>3d</fix>
</trkpt>
<trkpt lat="-27.2744401" lon="151.290064">
  <ele>353.19</ele>
  <time>2026-09-01T19:54:02Z</time>
  <course>344.03</course>
  <speed>0.0</speed>
  <fix>3d</fix>
</trkpt>
<trkpt lat="-27.2744401" lon="151.290064">
  <ele>353.42</ele>
  <time>2026-09-01T19:54:02Z</time>
  <course>6.07</course>
  <speed>0.0</speed>
  <fix>3d</fix>
</trkpt>
<trkpt lat="-27.2744401" lon="151.290064">
  <ele>352.94</ele>
  <time>2026-09-01T19:54:02Z</time>
  <course>337.41</course>
  <speed>0.0</speed>
  <fix>3d</fix>
</trkpt>
<trkpt lat="-27.2744401" lon="151.290064">
  <ele>353.48</ele>
  <time>2026-09-01T19:54:02Z</time>
  <course>358.01</course>
  <speed>0.0</speed>
  <fix>3d</fix>
</trkpt>
<trkpt lat="-27.2744401" lon="151.290064">
  <ele>353.66</ele>
  <time>2026-09-01T19:54:02Z</time>
  <course>1.75</course>
  <speed>0.0</speed>
  <fix>3d</fix>
</trkpt>
<trkpt lat="-27.2744401" lon="151.290064">
  <ele>352.94</ele>
  <time>2026-09-01T19:54:02Z</time>
  <course>337.41</course>
  <speed>0.0</speed>
  <fix>3d</fix>
</trkpt>
<trkpt lat="-27.2744401" lon="151.290064">
  <ele>353.71</ele>
  <time>2026-09-01T19:54:02Z</time>
  <course>3.46</course>
  <speed>0.0</speed>
  <fix>3d</fix>
</trkpt>
<trkpt lat="-27.2744401" lon="151.290064">
  <ele>353.9</ele>
  <time>2026-09-01T19:54:02Z</time>
  <course>3.0</course>
  <speed>0.0</speed>
  <fix>3d</fix>
</trkpt>
<trkpt lat="-27.2744401" lon="151.290064">
  <ele>353.4</ele>
  <time>2026-09-01T19:54:02Z</time>
  <course>354.36</course>
  <speed>0.0</speed>
  <fix>3d</fix>
</trkpt>
<trkpt lat="-27.2744401" lon="151.290064">
  <ele>353.91</ele>
  <time>2026-09-01T19:54:02Z</time>
  <course>2.96</course>
  <speed>0.0</speed>
  <fix>3d</fix>
</trkpt>
<trkpt lat="-27.2744401" lon="151.290064">
  <ele>354.15</ele>
  <time>2026-09-01T19:54:02Z</time>
  <course>3.05</course>
  <speed>0.0</speed>
  <fix>3d</fix>
</trkpt>
<trkpt lat="-27.2744401" lon="151.290064">
  <ele>353.4</ele>
  <time>2026-09-01T19:54:02Z</time>
  <course>354.36</course>
  <speed>0.0</speed>
  <fix>3d</fix>
</trkpt>
<trkpt lat="-27.2744401" lon="151.290064">
  <ele>354.16</ele>
  <time>2026-09-01T19:54:02Z</time>
  <course>3.05</course>
  <speed>0.0</speed>
  <fix>3d</fix>
</trkpt>
<trkpt lat="-27.2744401" lon="151.290064">
  <ele>354.4</ele>
  <time>2026-09-01T19:54:02Z</time>
  <course>3.04</course>
  <speed>0.0</speed>
  <fix>3d</fix>
</trkpt>
<trkpt lat="-27.2744401" lon="151.290064">
  <ele>353.89</ele>
  <time>2026-09-01T19:54:02Z</time>
  <course>353.88</course>
  <speed>0.01</speed>
  <fix>3d</fix>
</trkpt>
<trkpt lat="-27.2744401" lon="151.290064">
  <ele>354.47</ele>
  <time>2026-09-01T19:54:02Z</time>
  <course>3.01</course>
  <speed>0.0</speed>
  <fix>3d</fix>
</trkpt>
<trkpt lat="-27.2744401" lon="151.290064">
  <ele>354.65</ele>
  <time>2026-09-01T19:54:02Z</time>
  <course>3.07</course>
  <speed>0.0</speed>
  <fix>3d</fix>
</trkpt>
<trkpt lat="-27.2744401" lon="151.290064">
  <ele>353.89</ele>
  <time>2026-09-01T19:54:02Z</time>
  <course>353.88</course>
  <speed>0.01</speed>
  <fix>3d</fix>
</trkpt>
<trkpt lat="-27.2744401" lon="151.290064">
  <ele>354.71</ele>
  <time>2026-09-01T19:54:02Z</time>
  <course>2.94</course>
  <speed>0.0</speed>
  <fix>3d</fix>
</trkpt>
<trkpt lat="-27.2744401" lon="151.290064">
  <ele>354.9</ele>
  <time>2026-09-01T19:54:02Z</time>
  <course>2.65</course>
  <speed>0.0</speed>
  <fix>3d</fix>
</trkpt>
<trkpt lat="-27.2744401" lon="151.290064">
  <ele>354.39</ele>
  <time>2026-09-01T19:54:02Z</time>
  <course>351.73</course>
  <speed>0.01</speed>
  <fix>3d</fix>
</trkpt>
<trkpt lat="-27.2744401" lon="151.290064">
  <ele>354.97</ele>
  <time>2026-09-01T19:54:02Z</time>
  <course>2.92</course>
  <speed>0.0</speed>
  <fix>3d</fix>
</trkpt>
<trkpt lat="-27.2744401" lon="151.290064">
  <ele>355.16</ele>
  <time>2026-09-01T19:54:02Z</time>
  <course>2.45</course>
  <speed>0.0</speed>
  <fix>3d</fix>
</trkpt>
<trkpt lat="-27.2744401" lon="151.290064">
  <ele>354.39</ele>
  <time>2026-09-01T19:54:02Z</time>
  <course>351.73</course>
  <speed>0.01</speed>
  <fix>3d</fix>
</trkpt>
<trkpt lat="-27.2744401" lon="151.290064">
  <ele>355.23</ele>
  <time>2026-09-01T19:54:02Z</time>
  <course>2.77</course>
  <speed>0.0</speed>
  <fix>3d</fix>
</trkpt>
<trkpt lat="-27.2744401" lon="151.290064">
  <ele>355.42</ele>
  <time>2026-09-01T19:54:02Z</time>
  <course>2.54</course>
  <speed>0.0</speed>
  <fix>3d</fix>
</trkpt>
<trkpt lat="-27.2744401" lon="151.290064">
  <ele>354.89</ele>
  <time>2026-09-01T19:54:02Z</time>
  <course>348.1</course>
  <speed>0.01</speed>
  <fix>3d</fix>
</trkpt>
<trkpt lat="-27.2744401" lon="151.290064">
  <ele>355.49</ele>
  <time>2026-09-01T19:54:02Z</time>
  <course>2.48</course>
  <speed>0.0</speed>
  <fix>3d</fix>
</trkpt>
<trkpt lat="-27.2744401" lon="151.290064">
  <ele>355.68</ele>
  <time>2026-09-01T19:54:02Z</time>
  <course>3.06</course>
  <speed>0.0</speed>
  <fix>3d</fix>
</trkpt>
<trkpt lat="-27.2744401" lon="151.290064">
  <ele>354.89</ele>
  <time>2026-09-01T19:54:02Z</time>
  <course>348.1</course>
  <speed>0.01</speed>
  <fix>3d</fix>
</trkpt>
<trkpt lat="-27.2744401" lon="151.290064">
  <ele>355.75</ele>
  <time>2026-09-01T19:54:02Z</time>
  <course>1.64</course>
  <speed>0.0</speed>
  <fix>3d</fix>
</trkpt>
<trkpt lat="-27.2744401" lon="151.290064">
  <ele>355.94</ele>
  <time>2026-09-01T19:54:02Z</time>
  <course>4.4</course>
  <speed>0.0</speed>
  <fix>3d</fix>
</trkpt>
<trkpt lat="-27.2744401" lon="151.290064">
  <ele>355.41</ele>
  <time>2026-09-01T19:54:02Z</time>
  <course>343.88</course>
  <speed>0.01</speed>
  <fix>3d</fix>
</trkpt>
<trkpt lat="-27.2744401" lon="151.290064">
  <ele>356.0</ele>
  <time>2026-09-01T19:54:02Z</time>
  <course>0.25</course>
  <speed>0.0</speed>
  <fix>3d</fix>
</trkpt>
<trkpt lat="-27.2744401" lon="151.290064">
  <ele>356.19</ele>
  <time>2026-09-01T19:54:02Z</time>
  <course>5.51</course>
  <speed>0.0</speed>
  <fix>3d</fix>
</trkpt>
<trkpt lat="-27.2744401" lon="151.290064">
  <ele>355.41</ele>
  <time>2026-09-01T19:54:02Z</time>
  <course>343.88</course>
  <speed>0.01</speed>
  <fix>3d</fix>
</trkpt>
<trkpt lat="-27.2744401" lon="151.290064">
  <ele>356.26</ele>
  <time>2026-09-01T19:54:02Z</time>
  <course>359.84</course>
  <speed>0.0</speed>
  <fix>3d</fix>
</trkpt>
<trkpt lat="-27.2744401" lon="151.290064">
  <ele>356.45</ele>
  <time>2026-09-01T19:54:02Z</time>
  <course>4.3</course>
  <speed>0.0</speed>
  <fix>3d</fix>
</trkpt>
<trkpt lat="-27.2744401" lon="151.290064">
  <ele>355.92</ele>
  <time>2026-09-01T19:54:02Z</time>
  <course>340.64</course>
  <speed>0.01</speed>
  <fix>3d</fix>
</trkpt>
<trkpt lat="-27.2744401" lon="151.290064">
  <ele>356.51</ele>
  <time>2026-09-01T19:54:02Z</time>
  <course>4.05</course>
  <speed>0.0</speed>
  <fix>3d</fix>
</trkpt>
<trkpt lat="-27.2744401" lon="151.290064">
  <ele>356.7</ele>
  <time>2026-09-01T19:54:02Z</time>
  <course>351.59</course>
  <speed>0.0</speed>
  <fix>3d</fix>
</trkpt>
<trkpt lat="-27.2744401" lon="151.290064">
  <ele>355.92</ele>
  <time>2026-09-01T19:54:02Z</time>
  <course>340.64</course>
  <speed>0.01</speed>
  <fix>3d</fix>
</trkpt>
<trkpt lat="-27.2744401" lon="151.290064">
  <ele>356.71</ele>
  <time>2026-09-01T19:54:02Z</time>
  <course>340.86</course>
  <speed>0.0</speed>
  <fix>3d</fix>
</trkpt>
<trkpt lat="-27.2744401" lon="151.290064">
  <ele>356.94</ele>
  <time>2026-09-01T19:54:02Z</time>
  <course>1.19</course>
  <speed>0.0</speed>
  <fix>3d</fix>
</trkpt>
<trkpt lat="-27.27444" lon="151.290064">
  <ele>356.41</ele>
  <time>2026-09-01T19:54:02Z</time>
  <course>337.97</course>
  <speed>0.01</speed>
  <fix>3d</fix>
</trkpt>
<trkpt lat="-27.2744401" lon="151.290064">
  <ele>356.95</ele>
  <time>2026-09-01T19:54:02Z</time>
  <course>357.85</course>
  <speed>0.0</speed>
  <fix>3d</fix>
</trkpt>
<trkpt lat="-27.2744401" lon="151.290064">
  <ele>357.18</ele>
  <time>2026-09-01T19:54:02Z</time>
  <course>83.85</course>
  <speed>0.0</speed>
  <fix>3d</fix>
</trkpt>
<trkpt lat="-27.27444" lon="151.290064">
  <ele>356.41</ele>
  <time>2026-09-01T19:54:02Z</time>
  <course>337.97</course>
  <speed>0.01</speed>
  <fix>3d</fix>
</trkpt>
<trkpt lat="-27.2744401" lon="151.290064">
  <ele>357.19</ele>
  <time>2026-09-01T19:54:02Z</time>
  <course>44.86</course>
  <speed>0.0</speed>
  <fix>3d</fix>
</trkpt>
<trkpt lat="-27.2744401" lon="151.290064">
  <ele>357.41</ele>
  <time>2026-09-01T19:54:02Z</time>
  <course>53.18</course>
  <speed>0.01</speed>
  <fix>3d</fix>
</trkpt>
<trkpt lat="-27.27444" lon="151.290064">
  <ele>356.89</ele>
  <time>2026-09-01T19:54:02Z</time>
  <course>341.11</course>
  <speed>0.01</speed>
  <fix>3d</fix>
</trkpt>
<trkpt lat="-27.2744401" lon="151.290064">
  <ele>357.47</ele>
  <time>2026-09-01T19:54:02Z</time>
  <course>306.45</course>
  <speed>0.01</speed>
  <fix>3d</fix>
</trkpt>
<trkpt lat="-27.27444" lon="151.290064">
  <ele>357.64</ele>
  <time>2026-09-01T19:54:02Z</time>
  <course>320.12</course>
  <speed>0.01</speed>
  <fix>3d</fix>
</trkpt>
<trkpt lat="-27.27444" lon="151.290064">
  <ele>356.89</ele>
  <time>2026-09-01T19:54:02Z</time>
  <course>341.11</course>
  <speed>0.01</speed>
  <fix>3d</fix>
</trkpt>
<trkpt lat="-27.27444" lon="151.290064">
  <ele>357.69</ele>
  <time>2026-09-01T19:54:02Z</time>
  <course>59.9</course>
  <speed>0.01</speed>
  <fix>3d</fix>
</trkpt>
<trkpt lat="-27.27444" lon="151.290064">
  <ele>357.85</ele>
  <time>2026-09-01T19:54:02Z</time>
  <course>327.87</course>
  <speed>0.01</speed>
  <fix>3d</fix>
</trkpt>
<trkpt lat="-27.2744399" lon="151.290064">
  <ele>357.34</ele>
  <time>2026-09-01T19:54:02Z</time>
  <course>351.52</course>
  <speed>0.02</speed>
  <fix>3d</fix>
</trkpt>
<trkpt lat="-27.27444" lon="151.290064">
  <ele>357.9</ele>
  <time>2026-09-01T19:54:02Z</time>
  <course>343.4</course>
  <speed>0.01</speed>
  <fix>3d</fix>
</trkpt>
<trkpt lat="-27.27444" lon="151.290064">
  <ele>358.07</ele>
  <time>2026-09-01T19:54:02Z</time>
  <course>55.92</course>
  <speed>0.02</speed>
  <fix>3d</fix>
</trkpt>
<trkpt lat="-27.2744399" lon="151.290064">
  <ele>357.34</ele>
  <time>2026-09-01T19:54:02Z</time>
  <course>351.52</course>
  <speed>0.02</speed>
  <fix>3d</fix>
</trkpt>
<trkpt lat="-27.27444" lon="151.290064">
  <ele>358.15</ele>
  <time>2026-09-01T19:54:02Z</time>
  <course>321.68</course>
  <speed>0.02</speed>
  <fix>3d</fix>
</trkpt>
<trkpt lat="-27.27444" lon="151.290064">
  <ele>358.29</ele>
  <time>2026-09-01T19:54:02Z</time>
  <course>331.48</course>
  <speed>0.03</speed>
  <fix>3d</fix>
</trkpt>
<trkpt lat="-27.2744399" lon="151.290064">
  <ele>357.77</ele>
  <time>2026-09-01T19:54:02Z</time>
  <course>352.39</course>
  <speed>0.03</speed>
  <fix>3d</fix>
</trkpt>
<trkpt lat="-27.27444" lon="151.290064">
  <ele>358.35</ele>
  <time>2026-09-01T19:54:02Z</time>
  <course>17.4</course>
  <speed>0.03</speed>
  <fix>3d</fix>
</trkpt>
<trkpt lat="-27.2744399" lon="151.290064">
  <ele>358.52</ele>
  <time>2026-09-01T19:54:02Z</time>
  <course>359.52</course>
  <speed>0.03</speed>
  <fix>3d</fix>
</trkpt>
<trkpt lat="-27.2744399" lon="151.290064">
  <ele>357.77</ele>
  <time>2026-09-01T19:54:02Z</time>
  <course>352.39</course>
  <speed>0.03</speed>
  <fix>3d</fix>
</trkpt>
<trkpt lat="-27.2744399" lon="151.290064">
  <ele>358.58</ele>
  <time>2026-09-01T19:54:02Z</time>
  <course>347.5</course>
  <speed>0.03</speed>
  <fix>3d</fix>
</trkpt>
<trkpt lat="-27.2744399" lon="151.290064">
  <ele>358.76</ele>
  <time>2026-09-01T19:54:02Z</time>
  <course>349.41</course>
  <speed>0.0316227766016838</speed>
  <fix>3d</fix>
</trkpt>
<trkpt lat="-27.2744398" lon="151.290064">
  <ele>358.22</ele>
  <time>2026-09-01T19:54:02Z</time>
  <course>344.11</course>
  <speed>0.04</speed>
  <fix>3d</fix>
</trkpt>
<trkpt lat="-27.2744399" lon="151.290064">
  <ele>358.77</ele>
  <time>2026-09-01T19:54:02Z</time>
  <course>349.61</course>
  <speed>0.0316227766016838</speed>
  <fix>3d</fix>
</trkpt>
<trkpt lat="-27.2744398" lon="151.290064">
  <ele>359.0</ele>
  <time>2026-09-01T19:54:02Z</time>
  <course>351.1</course>
  <speed>0.0316227766016838</speed>
  <fix>3d</fix>
</trkpt>
<trkpt lat="-27.2744398" lon="151.290064">
  <ele>358.22</ele>
  <time>2026-09-01T19:54:02Z</time>
  <course>344.11</course>
  <speed>0.04</speed>
  <fix>3d</fix>
</trkpt>
<trkpt lat="-27.2744398" lon="151.290064">
  <ele>359.01</ele>
  <time>2026-09-01T19:54:02Z</time>
  <course>351.14</course>
  <speed>0.0316227766016838</speed>
  <fix>3d</fix>
</trkpt>
<trkpt lat="-27.2744398" lon="151.290064">
  <ele>359.25</ele>
  <time>2026-09-01T19:54:02Z</time>
  <course>352.24</course>
  <speed>0.03605551275463989</speed>
  <fix>3d</fix>
</trkpt>
<trkpt lat="-27.2744397" lon="151.290064">
  <ele>358.69</ele>
  <time>2026-09-01T19:54:02Z</time>
  <course>335.09</course>
  <speed>0.05</speed>
  <fix>3d</fix>
</trkpt>
<trkpt lat="-27.2744398" lon="151.290064">
  <ele>359.26</ele>
  <time>2026-09-01T19:54:02Z</time>
  <course>352.3</course>
  <speed>0.03605551275463989</speed>
  <fix>3d</fix>
</trkpt>
<trkpt lat="-27.2744398" lon="151.2900639">
  <ele>359.51</ele>
  <time>2026-09-01T19:54:02Z</time>
  <course>354.63</course>
  <speed>0.03605551275463989</speed>
  <fix>3d</fix>
</trkpt>
<trkpt lat="-27.2744397" lon="151.290064">
  <ele>358.69</ele>
  <time>2026-09-01T19:54:02Z</time>
  <course>335.09</course>
  <speed>0.05</speed>
  <fix>3d</fix>
</trkpt>
<trkpt lat="-27.2744398" lon="151.2900639">
  <ele>359.51</ele>
  <time>2026-09-01T19:54:02Z</time>
  <course>354.72</course>
  <speed>0.03605551275463989</speed>
  <fix>3d</fix>
</trkpt>
<trkpt lat="-27.2744397" lon="151.2900639">
  <ele>359.76</ele>
  <time>2026-09-01T19:54:02Z</time>
  <course>357.49</course>
  <speed>0.03605551275463989</speed>
  <fix>3d</fix>
</trkpt>
<trkpt lat="-27.2744396" lon="151.2900639">
  <ele>359.19</ele>
  <time>2026-09-01T19:54:02Z</time>
  <course>326.62</course>
  <speed>0.05</speed>
  <fix>3d</fix>
</trkpt>
<trkpt lat="-27.2744397" lon="151.2900639">
  <ele>359.77</ele>
  <time>2026-09-01T19:54:02Z</time>
  <course>357.57</course>
  <speed>0.03605551275463989</speed>
  <fix>3d</fix>
</trkpt>
<trkpt lat="-27.2744397" lon="151.2900639">
  <ele>360.02</ele>
  <time>2026-09-01T19:54:02Z</time>
  <course>0.35</course>
  <speed>0.0282842712474619</speed>
  <fix>3d</fix>
</trkpt>
<trkpt lat="-27.2744396" lon="151.2900639">
  <ele>359.19</ele>
  <time>2026-09-01T19:54:02Z</time>
  <course>326.62</course>
  <speed>0.05</speed>
  <fix>3d</fix>
</trkpt>
<trkpt lat="-27.2744397" lon="151.2900639">
  <ele>360.03</ele>
  <time>2026-09-01T19:54:02Z</time>
  <course>0.46</course>
  <speed>0.0282842712474619</speed>
  <fix>3d</fix>
</trkpt>
<trkpt lat="-27.2744396" lon="151.2900639">
  <ele>360.28</ele>
  <time>2026-09-01T19:54:02Z</time>
  <course>2.86</course>
  <speed>0.0282842712474619</speed>
  <fix>3d</fix>
</trkpt>
<trkpt lat="-27.2744396" lon="151.2900638">
  <ele>359.71</ele>
  <time>2026-09-01T19:54:02Z</time>
  <course>319.82</course>
  <speed>0.05</speed>
  <fix>3d</fix>
</trkpt>
<trkpt lat="-27.2744396" lon="151.2900639">
  <ele>360.29</ele>
  <time>2026-09-01T19:54:02Z</time>
  <course>2.99</course>
  <speed>0.0282842712474619</speed>
  <fix>3d</fix>
</trkpt>
<trkpt lat="-27.2744396" lon="151.2900638">
  <ele>360.54</ele>
  <time>2026-09-01T19:54:02Z</time>
  <course>6.71</course>
  <speed>0.0282842712474619</speed>
  <fix>3d</fix>
</trkpt>
<trkpt lat="-27.2744396" lon="151.2900638">
  <ele>359.71</ele>
  <time>2026-09-01T19:54:02Z</time>
  <course>319.82</course>
  <speed>0.05</speed>
  <fix>3d</fix>
</trkpt>
<trkpt lat="-27.2744396" lon="151.2900638">
  <ele>360.55</ele>
  <time>2026-09-01T19:54:02Z</time>
  <course>5.83</course>
  <speed>0.0282842712474619</speed>
  <fix>3d</fix>
</trkpt>
<trkpt lat="-27.2744396" lon="151.2900638">
  <ele>360.8</ele>
  <time>2026-09-01T19:54:02Z</time>
  <course>175.6</course>
  <speed>0.0282842712474619</speed>
  <fix>3d</fix>
</trkpt>
<trkpt lat="-27.2744395" lon="151.2900637">
  <ele>360.22</ele>
  <time>2026-09-01T19:54:02Z</time>
  <course>315.98</course>
  <speed>0.05</speed>
  <fix>3d</fix>
</trkpt>
<trkpt lat="-27.2744396" lon="151.2900638">
  <ele>360.81</ele>
  <time>2026-09-01T19:54:02Z</time>
  <course>177.7</course>
  <speed>0.022360679774997897</speed>
  <fix>3d</fix>
</trkpt>
<trkpt lat="-27.2744396" lon="151.2900638">
  <ele>361.04</ele>
  <time>2026-09-01T19:54:02Z</time>
  <course>4.99</course>
  <speed>0.022360679774997897</speed>
  <fix>3d</fix>
</trkpt>
<trkpt lat="-27.2744395" lon="151.2900637">
  <ele>360.22</ele>
  <time>2026-09-01T19:54:02Z</time>
  <course>315.98</course>
  <speed>0.05</speed>
  <fix>3d</fix>
</trkpt>
<trkpt lat="-27.2744396" lon="151.2900638">
  <ele>361.05</ele>
  <time>2026-09-01T19:54:02Z</time>
  <course>5.31</course>
  <speed>0.0282842712474619</speed>
  <fix>3d</fix>
</trkpt>
<trkpt lat="-27.2744395" lon="151.2900637">
  <ele>361.28</ele>
  <time>2026-09-01T19:54:02Z</time>
  <course>10.12</course>
  <speed>0.022360679774997897</speed>
  <fix>3d</fix>
</trkpt>
<trkpt lat="-27.2744394" lon="151.2900637">
  <ele>360.72</ele>
  <time>2026-09-01T19:54:02Z</time>
  <course>314.1</course>
  <speed>0.04</speed>
  <fix>3d</fix>
</trkpt>
<trkpt lat="-27.2744395" lon="151.2900637">
  <ele>361.29</ele>
  <time>2026-09-01T19:54:02Z</time>
  <course>7.73</course>
  <speed>0.022360679774997897</speed>
  <fix>3d</fix>
</trkpt>
<trkpt lat="-27.2744395" lon="151.2900637">
  <ele>361.52</ele>
  <time>2026-09-01T19:54:02Z</time>
  <course>14.17</course>
  <speed>0.022360679774997897</speed>
  <fix>3d</fix>
</trkpt>
<trkpt lat="-27.2744394" lon="151.2900637">
  <ele>360.72</ele>
  <time>2026-09-01T19:54:02Z</time>
  <course>314.1</course>
  <speed>0.04</speed>
  <fix>3d</fix>
</trkpt>
<trkpt lat="-27.2744395" lon="151.2900637">
  <ele>361.53</ele>
  <time>2026-09-01T19:54:02Z</time>
  <course>14.48</course>
  <speed>0.022360679774997897</speed>
  <fix>3d</fix>
</trkpt>
<trkpt lat="-27.2744395" lon="151.2900637">
  <ele>361.77</ele>
  <time>2026-09-01T19:54:02Z</time>
  <course>16.09</course>
  <speed>0.01414213562373095</speed>
  <fix>3d</fix>
</trkpt>
<trkpt lat="-27.2744394" lon="151.2900636">
  <ele>361.21</ele>
  <time>2026-09-01T19:54:02Z</time>
  <course>317.09</course>
  <speed>0.03</speed>
  <fix>3d</fix>
</trkpt>
<trkpt lat="-27.2744395" lon="151.2900637">
  <ele>361.77</ele>
  <time>2026-09-01T19:54:02Z</time>
  <course>15.49</course>
  <speed>0.01414213562373095</speed>
  <fix>3d</fix>
</trkpt>
<trkpt lat="-27.2744395" lon="151.2900637">
  <ele>362.01</ele>
  <time>2026-09-01T19:54:02Z</time>
  <course>18.71</course>
  <speed>0.01414213562373095</speed>
  <fix>3d</fix>
</trkpt>
<trkpt lat="-27.2744394" lon="151.2900636">
  <ele>361.21</ele>
  <time>2026-09-01T19:54:02Z</time>
  <course>317.09</course>
  <speed>0.03</speed>
  <fix>3d</fix>
</trkpt>
<trkpt lat="-27.2744395" lon="151.2900637">
  <ele>362.02</ele>
  <time>2026-09-01T19:54:02Z</time>
  <course>19.3</course>
  <speed>0.01414213562373095</speed>
  <fix>3d</fix>
</trkpt>
<trkpt lat="-27.2744394" lon="151.2900636">
  <ele>362.26</ele>
  <time>2026-09-01T19:54:02Z</time>
  <course>17.46</course>
  <speed>0.01</speed>
  <fix>3d</fix>
</trkpt>
<trkpt lat="-27.2744393" lon="151.2900636">
  <ele>361.7</ele>
  <time>2026-09-01T19:54:02Z</time>
  <course>325.63</course>
  <speed>0.03</speed>
  <fix>3d</fix>
</trkpt>
<trkpt lat="-27.2744394" lon="151.2900636">
  <ele>362.27</ele>
  <time>2026-09-01T19:54:02Z</time>
  <course>20.56</course>
  <speed>0.01</speed>
  <fix>3d</fix>
</trkpt>
<trkpt lat="-27.2744394" lon="151.2900636">
  <ele>362.52</ele>
  <time>2026-09-01T19:54:02Z</time>
  <course>8.86</course>
  <speed>0.01</speed>
  <fix>3d</fix>
</trkpt>
<trkpt lat="-27.2744393" lon="151.2900636">
  <ele>361.7</ele>
  <time>2026-09-01T19:54:02Z</time>
  <course>325.63</course>
  <speed>0.03</speed>
  <fix>3d</fix>
</trkpt>
<trkpt lat="-27.2744394" lon="151.2900636">
  <ele>362.52</ele>
  <time>2026-09-01T19:54:02Z</time>
  <course>15.4</course>
  <speed>0.01</speed>
  <fix>3d</fix>
</trkpt>
<trkpt lat="-27.2744394" lon="151.2900636">
  <ele>362.77</ele>
  <time>2026-09-01T19:54:02Z</time>
  <course>347.93</course>
  <speed>0.01</speed>
  <fix>3d</fix>
</trkpt>
<trkpt lat="-27.2744393" lon="151.2900636">
  <ele>362.2</ele>
  <time>2026-09-01T19:54:02Z</time>
  <course>334.98</course>
  <speed>0.03</speed>
  <fix>3d</fix>
</trkpt>
<trkpt lat="-27.2744394" lon="151.2900636">
  <ele>362.78</ele>
  <time>2026-09-01T19:54:02Z</time>
  <course>354.7</course>
  <speed>0.01</speed>
  <fix>3d</fix>
</trkpt>
<trkpt lat="-27.2744394" lon="151.2900636">
  <ele>363.02</ele>
  <time>2026-09-01T19:54:02Z</time>
  <course>327.91</course>
  <speed>0.01</speed>
  <fix>3d</fix>
</trkpt>
<trkpt lat="-27.2744393" lon="151.2900636">
  <ele>362.2</ele>
  <time>2026-09-01T19:54:02Z</time>
  <course>334.98</course>
  <speed>0.03</speed>
  <fix>3d</fix>
</trkpt>
<trkpt lat="-27.2744394" lon="151.2900636">
  <ele>363.03</ele>
  <time>2026-09-01T19:54:02Z</time>
  <course>326.42</course>
  <speed>0.01</speed>
  <fix>3d</fix>
</trkpt>
<trkpt lat="-27.2744393" lon="151.2900636">
  <ele>363.27</ele>
  <time>2026-09-01T19:54:02Z</time>
  <course>2.71</course>
  <speed>0.0</speed>
  <fix>3d</fix>
</trkpt>
<trkpt lat="-27.2744392" lon="151.2900636">
  <ele>362.71</ele>
  <time>2026-09-01T19:54:02Z</time>
  <course>347.56</course>
  <speed>0.02</speed>
  <fix>3d</fix>
</trkpt>
<trkpt lat="-27.2744393" lon="151.2900636">
  <ele>363.29</ele>
  <time>2026-09-01T19:54:02Z</time>
  <course>314.66</course>
  <speed>0.0</speed>
  <fix>3d</fix>
</trkpt>
<trkpt lat="-27.2744393" lon="151.2900636">
  <ele>363.51</ele>
  <time>2026-09-01T19:54:02Z</time>
  <course>63.75</course>
  <speed>0.0</speed>
  <fix>3d</fix>
</trkpt>
<trkpt lat="-27.2744392" lon="151.2900636">
  <ele>362.71</ele>
  <time>2026-09-01T19:54:02Z</time>
  <course>347.56</course>
  <speed>0.02</speed>
  <fix>3d</fix>
</trkpt>
<trkpt lat="-27.2744393" lon="151.2900636">
  <ele>363.52</ele>
  <time>2026-09-01T19:54:02Z</time>
  <course>64.12</course>
  <speed>0.0</speed>
  <fix>3d</fix>
</trkpt>
<trkpt lat="-27.2744393" lon="151.2900636">
  <ele>363.75</ele>
  <time>2026-09-01T19:54:02Z</time>
  <course>325.22</course>
  <speed>0.0</speed>
  <fix>3d</fix>
</trkpt>
<trkpt lat="-27.2744392" lon="151.2900636">
  <ele>363.2</ele>
  <time>2026-09-01T19:54:02Z</time>
  <course>352.97</course>
  <speed>0.02</speed>
  <fix>3d</fix>
</trkpt>
<trkpt lat="-27.2744393" lon="151.2900636">
  <ele>363.76</ele>
  <time>2026-09-01T19:54:02Z</time>
  <course>355.03</course>
  <speed>0.01</speed>
  <fix>3d</fix>
</trkpt>
<trkpt lat="-27.2744393" lon="151.2900636">
  <ele>363.98</ele>
  <time>2026-09-01T19:54:02Z</time>
  <course>334.89</course>
  <speed>0.01</speed>
  <fix>3d</fix>
</trkpt>
<trkpt lat="-27.2744392" lon="151.2900636">
  <ele>363.2</ele>
  <time>2026-09-01T19:54:02Z</time>
  <course>352.97</course>
  <speed>0.02</speed>
  <fix>3d</fix>
</trkpt>
<trkpt lat="-27.2744393" lon="151.2900636">
  <ele>363.99</ele>
  <time>2026-09-01T19:54:02Z</time>
  <course>322.2</course>
  <speed>0.01</speed>
  <fix>3d</fix>
</trkpt>
<trkpt lat="-27.2744393" lon="151.2900636">
  <ele>364.22</ele>
  <time>2026-09-01T19:54:02Z</time>
  <course>28.71</course>
  <speed>0.01</speed>
  <fix>3d</fix>
</trkpt>
<trkpt lat="-27.2744391" lon="151.2900636">
  <ele>363.67</ele>
  <time>2026-09-01T19:54:02Z</time>
  <course>350.62</course>
  <speed>0.02</speed>
  <fix>3d</fix>
</trkpt>
<trkpt lat="-27.2744393" lon="151.2900636">
  <ele>364.23</ele>
  <time>2026-09-01T19:54:02Z</time>
  <course>30.82</course>
  <speed>0.01</speed>
  <fix>3d</fix>
</trkpt>
<trkpt lat="-27.2744392" lon="151.2900636">
  <ele>364.46</ele>
  <time>2026-09-01T19:54:02Z</time>
  <course>353.94</course>
  <speed>0.01</speed>
  <fix>3d</fix>
</trkpt>
<trkpt lat="-27.2744391" lon="151.2900636">
  <ele>363.67</ele>
  <time>2026-09-01T19:54:02Z</time>
  <course>350.62</course>
  <speed>0.02</speed>
  <fix>3d</fix>
</trkpt>
<trkpt lat="-27.2744392" lon="151.2900636">
  <ele>364.47</ele>
  <time>2026-09-01T19:54:02Z</time>
  <course>356.22</course>
  <speed>0.01</speed>
  <fix>3d</fix>
</trkpt>
<trkpt lat="-27.2744392" lon="151.2900636">
  <ele>364.7</ele>
  <time>2026-09-01T19:54:02Z</time>
  <course>208.22</course>
  <speed>0.01</speed>
  <fix>3d</fix>
</trkpt>
<trkpt lat="-27.2744391" lon="151.2900635">
  <ele>364.15</ele>
  <time>2026-09-01T19:54:02Z</time>
  <course>347.73</course>
  <speed>0.02</speed>
  <fix>3d</fix>
</trkpt>
<trkpt lat="-27.2744392" lon="151.2900636">
  <ele>364.71</ele>
  <time>2026-09-01T19:54:02Z</time>
  <course>341.4</course>
  <speed>0.01</speed>
  <fix>3d</fix>
</trkpt>
<trkpt lat="-27.2744392" lon="151.2900636">
  <ele>364.93</ele>
  <time>2026-09-01T19:54:02Z</time>
  <course>358.57</course>
  <speed>0.01</speed>
  <fix>3d</fix>
</trkpt>
<trkpt lat="-27.2744391" lon="151.2900635">
  <ele>364.15</ele>
  <time>2026-09-01T19:54:02Z</time>
  <course>347.73</course>
  <speed>0.02</speed>
  <fix>3d</fix>
</trkpt>
<trkpt lat="-27.2744392" lon="151.2900636">
  <ele>364.94</ele>
  <time>2026-09-01T19:54:02Z</time>
  <course>317.51</course>
  <speed>0.01</speed>
  <fix>3d</fix>
</trkpt>
<trkpt lat="-27.2744392" lon="151.2900636">
  <ele>365.16</ele>
  <time>2026-09-01T19:54:02Z</time>
  <course>2.83</course>
  <speed>0.01</speed>
  <fix>3d</fix>
</trkpt>
<trkpt lat="-27.274439" lon="151.2900635">
  <ele>364.63</ele>
  <time>2026-09-01T19:54:02Z</time>
  <course>343.35</course>
  <speed>0.03</speed>
  <fix>3d</fix>
</trkpt>
<trkpt lat="-27.2744392" lon="151.2900636">
  <ele>365.17</ele>
  <time>2026-09-01T19:54:02Z</time>
  <course>2.86</course>
  <speed>0.02</speed>
  <fix>3d</fix>
</trkpt>
<trkpt lat="-27.2744391" lon="151.2900636">
  <ele>365.39</ele>
  <time>2026-09-01T19:54:02Z</time>
  <course>7.73</course>
  <speed>0.02</speed>
  <fix>3d</fix>
</trkpt>
<trkpt lat="-27.274439" lon="151.2900635">
  <ele>364.63</ele>
  <time>2026-09-01T19:54:02Z</time>
  <course>343.35</course>
  <speed>0.03</speed>
  <fix>3d</fix>
</trkpt>
<trkpt lat="-27.2744391" lon="151.2900636">
  <ele>365.4</ele>
  <time>2026-09-01T19:54:02Z</time>
  <course>7.11</course>
  <speed>0.01</speed>
  <fix>3d</fix>
</trkpt>
<trkpt lat="-27.2744391" lon="151.2900636">
  <ele>365.63</ele>
  <time>2026-09-01T19:54:02Z</time>
  <course>7.82</course>
  <speed>0.01</speed>
  <fix>3d</fix>
</trkpt>
<trkpt lat="-27.274439" lon="151.2900635">
  <ele>365.09</ele>
  <time>2026-09-01T19:54:02Z</time>
  <course>343.84</course>
  <speed>0.03</speed>
  <fix>3d</fix>
</trkpt>
<trkpt lat="-27.2744391" lon="151.2900636">
  <ele>365.64</ele>
  <time>2026-09-01T19:54:02Z</time>
  <course>7.97</course>
  <speed>0.01</speed>
  <fix>3d</fix>
</trkpt>
<trkpt lat="-27.2744391" lon="151.2900636">
  <ele>365.87</ele>
  <time>2026-09-01T19:54:02Z</time>
  <course>10.76</course>
  <speed>0.01</speed>
  <fix>3d</fix>
</trkpt>
<trkpt lat="-27.274439" lon="151.2900635">
  <ele>365.09</ele>
  <time>2026-09-01T19:54:02Z</time>
  <course>343.84</course>
  <speed>0.03</speed>
  <fix>3d</fix>
</trkpt>
<trkpt lat="-27.2744391" lon="151.2900636">
  <ele>365.88</ele>
  <time>2026-09-01T19:54:02Z</time>
  <course>10.81</course>
  <speed>0.01</speed>
  <fix>3d</fix>
</trkpt>
<trkpt lat="-27.274439" lon="151.2900636">
  <ele>366.12</ele>
  <time>2026-09-01T19:54:02Z</time>
  <course>12.55</course>
  <speed>0.01</speed>
  <fix>3d</fix>
</trkpt>
<trkpt lat="-27.2744389" lon="151.2900635">
  <ele>365.57</ele>
  <time>2026-09-01T19:54:02Z</time>
  <course>348.16</course>
  <speed>0.02</speed>
  <fix>3d</fix>
</trkpt>
<trkpt lat="-27.274439" lon="151.2900636">
  <ele>366.13</ele>
  <time>2026-09-01T19:54:02Z</time>
  <course>12.6</course>
  <speed>0.01</speed>
  <fix>3d</fix>
</trkpt>
<trkpt lat="-27.274439" lon="151.2900636">
  <ele>366.38</ele>
  <time>2026-09-01T19:54:02Z</time>
  <course>13.45</course>
  <speed>0.01</speed>
  <fix>3d</fix>
</trkpt>
<trkpt lat="-27.2744389" lon="151.2900635">
  <ele>365.57</ele>
  <time>2026-09-01T19:54:02Z</time>
  <course>348.16</course>
  <speed>0.02</speed>
  <fix>3d</fix>
</trkpt>
<trkpt lat="-27.274439" lon="151.2900636">
  <ele>366.38</ele>
  <time>2026-09-01T19:54:02Z</time>
  <course>13.49</course>
  <speed>0.01</speed>
  <fix>3d</fix>
</trkpt>
<trkpt lat="-27.274439" lon="151.2900636">
  <ele>366.63</ele>
  <time>2026-09-01T19:54:02Z</time>
  <course>13.73</course>
  <speed>0.01</speed>
  <fix>3d</fix>
</trkpt>
<trkpt lat="-27.2744389" lon="151.2900635">
  <ele>366.07</ele>
  <time>2026-09-01T19:54:02Z</time>
  <course>357.33</course>
  <speed>0.02</speed>
  <fix>3d</fix>
</trkpt>
<trkpt lat="-27.274439" lon="151.2900636">
  <ele>366.65</ele>
  <time>2026-09-01T19:54:02Z</time>
  <course>13.75</course>
  <speed>0.01</speed>
  <fix>3d</fix>
</trkpt>
<trkpt lat="-27.274439" lon="151.2900636">
  <ele>366.89</ele>
  <time>2026-09-01T19:54:02Z</time>
  <course>13.63</course>
  <speed>0.01</speed>
  <fix>3d</fix>
</trkpt>
<trkpt lat="-27.2744389" lon="151.2900635">
  <ele>366.07</ele>
  <time>2026-09-01T19:54:02Z</time>
  <course>357.33</course>
  <speed>0.02</speed>
  <fix>3d</fix>
</trkpt>
<trkpt lat="-27.274439" lon="151.2900636">
  <ele>366.9</ele>
  <time>2026-09-01T19:54:02Z</time>
  <course>13.46</course>
  <speed>0.01</speed>
  <fix>3d</fix>
</trkpt>
<trkpt lat="-27.274439" lon="151.2900636">
  <ele>367.15</ele>
  <time>2026-09-01T19:54:02Z</time>
  <course>13.88</course>
  <speed>0.01</speed>
  <fix>3d</fix>
</trkpt>
<trkpt lat="-27.2744389" lon="151.2900635">
  <ele>366.58</ele>
  <time>2026-09-01T19:54:02Z</time>
  <course>15.07</course>
  <speed>0.01</speed>
  <fix>3d</fix>
</trkpt>
<trkpt lat="-27.274439" lon="151.2900636">
  <ele>367.16</ele>
  <time>2026-09-01T19:54:02Z</time>
  <course>13.46</course>
  <speed>0.01</speed>
  <fix>3d</fix>
</trkpt>
<trkpt lat="-27.274439" lon="151.2900636">
  <ele>367.41</ele>
  <time>2026-09-01T19:54:02Z</time>
  <course>14.69</course>
  <speed>0.01</speed>
  <fix>3d</fix>
</trkpt>
<trkpt lat="-27.2744389" lon="151.2900635">
  <ele>366.58</ele>
  <time>2026-09-01T19:54:02Z</time>
  <course>15.07</course>
  <speed>0.01</speed>
  <fix>3d</fix>
</trkpt>
<trkpt lat="-27.274439" lon="151.2900636">
  <ele>367.42</ele>
  <time>2026-09-01T19:54:02Z</time>
  <course>14.12</course>
  <speed>0.01</speed>
  <fix>3d</fix>
</trkpt>
<trkpt lat="-27.274439" lon="151.2900636">
  <ele>367.66</ele>
  <time>2026-09-01T19:54:02Z</time>
  <course>16.28</course>
  <speed>0.01</speed>
  <fix>3d</fix>
</trkpt>
<trkpt lat="-27.2744388" lon="151.2900635">
  <ele>367.09</ele>
  <time>2026-09-01T19:54:02Z</time>
  <course>40.53</course>
  <speed>0.01</speed>
  <fix>3d</fix>
</trkpt>
<trkpt lat="-27.274439" lon="151.2900636">
  <ele>367.67</ele>
  <time>2026-09-01T19:54:02Z</time>
  <course>16.2</course>
  <speed>0.01</speed>
  <fix>3d</fix>
</trkpt>
<trkpt lat="-27.2744389" lon="151.2900636">
  <ele>367.92</ele>
  <time>2026-09-01T19:54:02Z</time>
  <course>16.14</course>
  <speed>0.02</speed>
  <fix>3d</fix>
</trkpt>
<trkpt lat="-27.2744388" lon="151.2900635">
  <ele>367.09</ele>
  <time>2026-09-01T19:54:02Z</time>
  <course>40.53</course>
  <speed>0.01</speed>
  <fix>3d</fix>
</trkpt>
<trkpt lat="-27.2744389" lon="151.2900636">
  <ele>367.93</ele>
  <time>2026-09-01T19:54:02Z</time>
  <course>17.85</course>
  <speed>0.02</speed>
  <fix>3d</fix>
</trkpt>
<trkpt lat="-27.2744389" lon="151.2900636">
  <ele>368.17</ele>
  <time>2026-09-01T19:54:02Z</time>
  <course>9.61</course>
  <speed>0.02</speed>
  <fix>3d</fix>
</trkpt>
<trkpt lat="-27.2744388" lon="151.2900635">
  <ele>367.6</ele>
  <time>2026-09-01T19:54:02Z</time>
  <course>62.14</course>
  <speed>0.01</speed>
  <fix>3d</fix>
</trkpt>
<trkpt lat="-27.2744389" lon="151.2900636">
  <ele>368.18</ele>
  <time>2026-09-01T19:54:02Z</time>
  <course>14.23</course>
  <speed>0.02</speed>
  <fix>3d</fix>
</trkpt>
<trkpt lat="-27.2744389" lon="151.2900636">
  <ele>368.43</ele>
  <time>2026-09-01T19:54:02Z</time>
  <course>354.42</course>
  <speed>0.02</speed>
  <fix>3d</fix>
</trkpt>
<trkpt lat="-27.2744388" lon="151.2900635">
  <ele>367.6</ele>
  <time>2026-09-01T19:54:02Z</time>
  <course>62.14</course>
  <speed>0.01</speed>
  <fix>3d</fix>
</trkpt>
<trkpt lat="-27.2744389" lon="151.2900636">
  <ele>368.43</ele>
  <time>2026-09-01T19:54:02Z</time>
  <course>359.68</course>
  <speed>0.02</speed>
  <fix>3d</fix>
</trkpt>
<trkpt lat="-27.2744389" lon="151.2900636">
  <ele>368.68</ele>
  <time>2026-09-01T19:54:02Z</time>
  <course>347.01</course>
  <speed>0.02</speed>
  <fix>3d</fix>
</trkpt>
<trkpt lat="-27.2744388" lon="151.2900635">
  <ele>368.11</ele>
  <time>2026-09-01T19:54:02Z</time>
  <course>73.67</course>
  <speed>0.01</speed>
  <fix>3d</fix>
</trkpt>
<trkpt lat="-27.2744389" lon="151.2900636">
  <ele>368.69</ele>
  <time>2026-09-01T19:54:02Z</time>
  <course>344.36</course>
  <speed>0.02</speed>
  <fix>3d</fix>
</trkpt>
<trkpt lat="-27.2744389" lon="151.2900636">
  <ele>368.92</ele>
  <time>2026-09-01T19:54:02Z</time>
  <course>34.94</course>
  <speed>0.022360679774997897</speed>
  <fix>3d</fix>
</trkpt>
<trkpt lat="-27.2744388" lon="151.2900635">
  <ele>368.11</ele>
  <time>2026-09-01T19:54:02Z</time>
  <course>73.67</course>
  <speed>0.01</speed>
  <fix>3d</fix>
</trkpt>
<trkpt lat="-27.2744389" lon="151.2900636">
  <ele>368.93</ele>
  <time>2026-09-01T19:54:02Z</time>
  <course>17.99</course>
  <speed>0.022360679774997897</speed>
  <fix>3d</fix>
</trkpt>
<trkpt lat="-27.2744389" lon="151.2900636">
  <ele>369.15</ele>
  <time>2026-09-01T19:54:02Z</time>
  <course>100.31</course>
  <speed>0.022360679774997897</speed>
  <fix>3d</fix>
</trkpt>
<trkpt lat="-27.2744388" lon="151.2900635">
  <ele>368.6</ele>
  <time>2026-09-01T19:54:02Z</time>
  <course>79.31</course>
  <speed>0.02</speed>
  <fix>3d</fix>
</trkpt>
<trkpt lat="-27.2744389" lon="151.2900636">
  <ele>369.16</ele>
  <time>2026-09-01T19:54:02Z</time>
  <course>86.39</course>
  <speed>0.022360679774997897</speed>
  <fix>3d</fix>
</trkpt>
<trkpt lat="-27.2744389" lon="151.2900636">
  <ele>369.36</ele>
  <time>2026-09-01T19:54:02Z</time>
  <course>302.81</course>
  <speed>0.02</speed>
  <fix>3d</fix>
</trkpt>
<trkpt lat="-27.2744388" lon="151.2900635">
  <ele>368.6</ele>
  <time>2026-09-01T19:54:02Z</time>
  <course>79.31</course>
  <speed>0.02</speed>
  <fix>3d</fix>
</trkpt>
<trkpt lat="-27.2744389" lon="151.2900636">
  <ele>369.37</ele>
  <time>2026-09-01T19:54:02Z</time>
  <course>301.17</course>
  <speed>0.02</speed>
  <fix>3d</fix>
</trkpt>
<trkpt lat="-27.2744389" lon="151.2900636">
  <ele>369.57</ele>
  <time>2026-09-01T19:54:02Z</time>
  <course>0.23</course>
  <speed>0.02</speed>
  <fix>3d</fix>
</trkpt>
<trkpt lat="-27.2744388" lon="151.2900635">
  <ele>369.05</ele>
  <time>2026-09-01T19:54:02Z</time>
  <course>75.51</course>
  <speed>0.02</speed>
  <fix>3d</fix>
</trkpt>
<trkpt lat="-27.2744389" lon="151.2900636">
  <ele>369.58</ele>
  <time>2026-09-01T19:54:02Z</time>
  <course>331.5</course>
  <speed>0.02</speed>
  <fix>3d</fix>
</trkpt>
<trkpt lat="-27.2744389" lon="151.2900637">
  <ele>369.77</ele>
  <time>2026-09-01T19:54:02Z</time>
  <course>51.88</course>
  <speed>0.02</speed>
  <fix>3d</fix>
</trkpt>
<trkpt lat="-27.2744388" lon="151.2900635">
  <ele>369.05</ele>
  <time>2026-09-01T19:54:02Z</time>
  <course>75.51</course>
  <speed>0.02</speed>
  <fix>3d</fix>
</trkpt>
<trkpt lat="-27.2744389" lon="151.2900637">
  <ele>369.78</ele>
  <time>2026-09-01T19:54:02Z</time>
  <course>53.87</course>
  <speed>0.02</speed>
  <fix>3d</fix>
</trkpt>
<trkpt lat="-27.2744389" lon="151.2900637">
  <ele>369.99</ele>
  <time>2026-09-01T19:54:02Z</time>
  <course>345.01</course>
  <speed>0.02</speed>
  <fix>3d</fix>
</trkpt>
<trkpt lat="-27.2744388" lon="151.2900636">
  <ele>369.46</ele>
  <time>2026-09-01T19:54:02Z</time>
  <course>60.13</course>
  <speed>0.02</speed>
  <fix>3d</fix>
</trkpt>
<trkpt lat="-27.2744389" lon="151.2900637">
  <ele>370.0</ele>
  <time>2026-09-01T19:54:02Z</time>
  <course>349.55</course>
  <speed>0.02</speed>
  <fix>3d</fix>
</trkpt>
<trkpt lat="-27.2744389" lon="151.2900637">
  <ele>370.21</ele>
  <time>2026-09-01T19:54:02Z</time>
  <course>10.42</course>
  <speed>0.02</speed>
  <fix>3d</fix>
</trkpt>
<trkpt lat="-27.2744388" lon="151.2900636">
  <ele>369.46</ele>
  <time>2026-09-01T19:54:02Z</time>
  <course>60.13</course>
  <speed>0.02</speed>
  <fix>3d</fix>
</trkpt>
<trkpt lat="-27.2744389" lon="151.2900637">
  <ele>370.21</ele>
  <time>2026-09-01T19:54:02Z</time>
  <course>10.21</course>
  <speed>0.02</speed>
  <fix>3d</fix>
</trkpt>
<trkpt lat="-27.2744389" lon="151.2900637">
  <ele>370.44</ele>
  <time>2026-09-01T19:54:02Z</time>
  <course>4.35</course>
  <speed>0.02</speed>
  <fix>3d</fix>
</trkpt>
<trkpt lat="-27.2744387" lon="151.2900636">
  <ele>369.89</ele>
  <time>2026-09-01T19:54:02Z</time>
  <course>48.65</course>
  <speed>0.02</speed>
  <fix>3d</fix>
</trkpt>
<trkpt lat="-27.2744389" lon="151.2900637">
  <ele>370.44</ele>
  <time>2026-09-01T19:54:02Z</time>
  <course>4.32</course>
  <speed>0.02</speed>
  <fix>3d</fix>
</trkpt>
<trkpt lat="-27.2744388" lon="151.2900637">
  <ele>370.68</ele>
  <time>2026-09-01T19:54:02Z</time>
  <course>4.83</course>
  <speed>0.02</speed>
  <fix>3d</fix>
</trkpt>
<trkpt lat="-27.2744387" lon="151.2900636">
  <ele>369.89</ele>
  <time>2026-09-01T19:54:02Z</time>
  <course>48.65</course>
  <speed>0.02</speed>
  <fix>3d</fix>
</trkpt>
<trkpt lat="-27.2744388" lon="151.2900637">
  <ele>370.68</ele>
  <time>2026-09-01T19:54:02Z</time>
  <course>4.83</course>
  <speed>0.02</speed>
  <fix>3d</fix>
</trkpt>
<trkpt lat="-27.2744388" lon="151.2900637">
  <ele>370.93</ele>
  <time>2026-09-01T19:54:02Z</time>
  <course>4.63</course>
  <speed>0.02</speed>
  <fix>3d</fix>
</trkpt>
<trkpt lat="-27.2744387" lon="151.2900637">
  <ele>370.36</ele>
  <time>2026-09-01T19:54:02Z</time>
  <course>47.65</course>
  <speed>0.02</speed>
  <fix>3d</fix>
</trkpt>
<trkpt lat="-27.2744388" lon="151.2900637">
  <ele>370.93</ele>
  <time>2026-09-01T19:54:02Z</time>
  <course>4.63</course>
  <speed>0.02</speed>
  <fix>3d</fix>
</trkpt>
<trkpt lat="-27.2744388" lon="151.2900638">
  <ele>371.18</ele>
  <time>2026-09-01T19:54:02Z</time>
  <course>4.63</course>
  <speed>0.02</speed>
  <fix>3d</fix>
</trkpt>
<trkpt lat="-27.2744387" lon="151.2900637">
  <ele>370.36</ele>
  <time>2026-09-01T19:54:02Z</time>
  <course>47.65</course>
  <speed>0.02</speed>
  <fix>3d</fix>
</trkpt>
<trkpt lat="-27.2744388" lon="151.2900638">
  <ele>371.19</ele>
  <time>2026-09-01T19:54:02Z</time>
  <course>4.63</course>
  <speed>0.02</speed>
  <fix>3d</fix>
</trkpt>
<trkpt lat="-27.2744388" lon="151.2900638">
  <ele>371.44</ele>
  <time>2026-09-01T19:54:02Z</time>
  <course>4.79</course>
  <speed>0.02</speed>
  <fix>3d</fix>
</trkpt>
<trkpt lat="-27.2744387" lon="151.2900637">
  <ele>370.86</ele>
  <time>2026-09-01T19:54:02Z</time>
  <course>55.22</course>
  <speed>0.02</speed>
  <fix>3d</fix>
</trkpt>
<trkpt lat="-27.2744388" lon="151.2900638">
  <ele>371.45</ele>
  <time>2026-09-01T19:54:02Z</time>
  <course>4.8</course>
  <speed>0.02</speed>
  <fix>3d</fix>
</trkpt>
<trkpt lat="-27.2744388" lon="151.2900638">
  <ele>371.7</ele>
  <time>2026-09-01T19:54:02Z</time>
  <course>4.86</course>
  <speed>0.02</speed>
  <fix>3d</fix>
</trkpt>
<trkpt lat="-27.2744387" lon="151.2900637">
  <ele>370.86</ele>
  <time>2026-09-01T19:54:02Z</time>
  <course>55.22</course>
  <speed>0.02</speed>
  <fix>3d</fix>
</trkpt>
<trkpt lat="-27.2744388" lon="151.2900638">
  <ele>371.71</ele>
  <time>2026-09-01T19:54:02Z</time>
  <course>4.85</course>
  <speed>0.02</speed>
  <fix>3d</fix>
</trkpt>
<trkpt lat="-27.2744388" lon="151.2900638">
  <ele>371.97</ele>
  <time>2026-09-01T19:54:02Z</time>
  <course>4.94</course>
  <speed>0.02</speed>
  <fix>3d</fix>
</trkpt>
<trkpt lat="-27.2744387" lon="151.2900637">
  <ele>371.38</ele>
  <time>2026-09-01T19:54:02Z</time>
  <course>71.54</course>
  <speed>0.02</speed>
  <fix>3d</fix>
</trkpt>
<trkpt lat="-27.2744388" lon="151.2900638">
  <ele>371.98</ele>
  <time>2026-09-01T19:54:02Z</time>
  <course>4.95</course>
  <speed>0.02</speed>
  <fix>3d</fix>
</trkpt>
<trkpt lat="-27.2744388" lon="151.2900638">
  <ele>372.24</ele>
  <time>2026-09-01T19:54:02Z</time>
  <course>4.98</course>
  <speed>0.022360679774997897</speed>
  <fix>3d</fix>
</trkpt>
<trkpt lat="-27.2744387" lon="151.2900637">
  <ele>371.38</ele>
  <time>2026-09-01T19:54:02Z</time>
  <course>71.54</course>
  <speed>0.02</speed>
  <fix>3d</fix>
</trkpt>
<trkpt lat="-27.2744388" lon="151.2900638">
  <ele>372.25</ele>
  <time>2026-09-01T19:54:02Z</time>
  <course>4.99</course>
  <speed>0.022360679774997897</speed>
  <fix>3d</fix>
</trkpt>
<trkpt lat="-27.2744388" lon="151.2900638">
  <ele>372.51</ele>
  <time>2026-09-01T19:54:02Z</time>
  <course>4.87</course>
  <speed>0.022360679774997897</speed>
  <fix>3d</fix>
</trkpt>
<trkpt lat="-27.2744387" lon="151.2900637">
  <ele>371.91</ele>
  <time>2026-09-01T19:54:02Z</time>
  <course>92.25</course>
  <speed>0.02</speed>
  <fix>3d</fix>
</trkpt>
<trkpt lat="-27.2744388" lon="151.2900638">
  <ele>372.51</ele>
  <time>2026-09-01T19:54:02Z</time>
  <course>4.89</course>
  <speed>0.022360679774997897</speed>
  <fix>3d</fix>
</trkpt>
<trkpt lat="-27.2744388" lon="151.2900638">
  <ele>372.77</ele>
  <time>2026-09-01T19:54:03Z</time>
  <course>4.74</course>
  <speed>0.022360679774997897</speed>
  <fix>3d</fix>
</trkpt>
<trkpt lat="-27.2744387" lon="151.2900637">
  <ele>371.91</ele>
  <time>2026-09-01T19:54:03Z</time>
  <course>92.25</course>
  <speed>0.02</speed>
  <fix>3d</fix>
</trkpt>
<trkpt lat="-27.2744388" lon="151.2900638">
  <ele>372.78</ele>
  <time>2026-09-01T19:54:03Z</time>
  <course>4.62</course>
  <speed>0.022360679774997897</speed>
  <fix>3d</fix>
</trkpt>
<trkpt lat="-27.2744388" lon="151.2900638">
  <ele>373.04</ele>
  <time>2026-09-01T19:54:03Z</time>
  <course>4.39</course>
  <speed>0.0282842712474619</speed>
  <fix>3d</fix>
</trkpt>
<trkpt lat="-27.2744387" lon="151.2900638">
  <ele>372.44</ele>
  <time>2026-09-01T19:54:03Z</time>
  <course>110.03</course>
  <speed>0.02</speed>
  <fix>3d</fix>
</trkpt>
<trkpt lat="-27.2744388" lon="151.2900638">
  <ele>373.05</ele>
  <time>2026-09-01T19:54:03Z</time>
  <course>4.21</course>
  <speed>0.0282842712474619</speed>
  <fix>3d</fix>
</trkpt>
<trkpt lat="-27.2744388" lon="151.2900639">
  <ele>373.29</ele>
  <time>2026-09-01T19:54:03Z</time>
  <course>181.94</course>
  <speed>0.0282842712474619</speed>
  <fix>3d</fix>
</trkpt>
<trkpt lat="-27.2744387" lon="151.2900638">
  <ele>372.44</ele>
  <time>2026-09-01T19:54:03Z</time>
  <course>110.03</course>
  <speed>0.02</speed>
  <fix>3d</fix>
</trkpt>
<trkpt lat="-27.2744388" lon="151.2900639">
  <ele>373.3</ele>
  <time>2026-09-01T19:54:03Z</time>
  <course>181.49</course>
  <speed>0.0282842712474619</speed>
  <fix>3d</fix>
</trkpt>
<trkpt lat="-27.2744388" lon="151.2900639">
  <ele>373.54</ele>
  <time>2026-09-01T19:54:03Z</time>
  <course>3.18</course>
  <speed>0.0282842712474619</speed>
  <fix>3d</fix>
</trkpt>
<trkpt lat="-27.2744387" lon="151.2900639">
  <ele>372.96</ele>
  <time>2026-09-01T19:54:03Z</time>
  <course>117.53</course>
  <speed>0.02</speed>
  <fix>3d</fix>
</trkpt>
<trkpt lat="-27.2744388" lon="151.2900639">
  <ele>373.55</ele>
  <time>2026-09-01T19:54:03Z</time>
  <course>13.31</course>
  <speed>0.0282842712474619</speed>
  <fix>3d</fix>
</trkpt>
<trkpt lat="-27.2744388" lon="151.2900639">
  <ele>373.77</ele>
  <time>2026-09-01T19:54:03Z</time>
  <course>1.9</course>
  <speed>0.0282842712474619</speed>
  <fix>3d</fix>
</trkpt>
<trkpt lat="-27.2744387" lon="151.2900639">
  <ele>372.96</ele>
  <time>2026-09-01T19:54:03Z</time>
  <course>117.53</course>
  <speed>0.02</speed>
  <fix>3d</fix>
</trkpt>
<trkpt lat="-27.2744388" lon="151.2900639">
  <ele>373.78</ele>
  <time>2026-09-01T19:54:03Z</time>
  <course>1.77</course>
  <speed>0.0282842712474619</speed>
  <fix>3d</fix>
</trkpt>
<trkpt lat="-27.2744388" lon="151.2900639">
  <ele>374.01</ele>
  <time>2026-09-01T19:54:03Z</time>
  <course>4.41</course>
  <speed>0.022360679774997897</speed>
  <fix>3d</fix>
</trkpt>
<trkpt lat="-27.2744387" lon="151.2900639">
  <ele>373.45</ele>
  <time>2026-09-01T19:54:03Z</time>
  <course>115.47</course>
  <speed>0.02</speed>
  <fix>3d</fix>
</trkpt>
<trkpt lat="-27.2744388" lon="151.2900639">
  <ele>374.02</ele>
  <time>2026-09-01T19:54:03Z</time>
  <course>3.28</course>
  <speed>0.022360679774997897</speed>
  <fix>3d</fix>
</trkpt>
<trkpt lat="-27.2744388" lon="151.2900639">
  <ele>374.26</ele>
  <time>2026-09-01T19:54:03Z</time>
  <course>5.52</course>
  <speed>0.022360679774997897</speed>
  <fix>3d</fix>
</trkpt>
<trkpt lat="-27.2744387" lon="151.2900639">
  <ele>373.45</ele>
  <time>2026-09-01T19:54:03Z</time>
  <course>115.47</course>
  <speed>0.02</speed>
  <fix>3d</fix>
</trkpt>
<trkpt lat="-27.2744388" lon="151.2900639">
  <ele>374.26</ele>
  <time>2026-09-01T19:54:03Z</time>
  <course>3.9</course>
  <speed>0.022360679774997897</speed>
  <fix>3d</fix>
</trkpt>
<trkpt lat="-27.2744388" lon="151.290064">
  <ele>374.5</ele>
  <time>2026-09-01T19:54:03Z</time>
  <course>11.54</course>
  <speed>0.022360679774997897</speed>
  <fix>3d</fix>
</trkpt>
<trkpt lat="-27.2744387" lon="151.290064">
  <ele>373.93</ele>
  <time>2026-09-01T19:54:03Z</time>
  <course>108.43</course>
  <speed>0.02</speed>
  <fix>3d</fix>
</trkpt>
<trkpt lat="-27.2744388" lon="151.290064">
  <ele>374.51</ele>
  <time>2026-09-01T19:54:03Z</time>
  <course>9.43</course>
  <speed>0.022360679774997897</speed>
  <fix>3d</fix>
</trkpt>
<trkpt lat="-27.2744388" lon="151.290064">
  <ele>374.74</ele>
  <time>2026-09-01T19:54:03Z</time>
  <course>17.06</course>
  <speed>0.022360679774997897</speed>
  <fix>3d</fix>
</trkpt>
<trkpt lat="-27.2744387" lon="151.290064">
  <ele>373.93</ele>
  <time>2026-09-01T19:54:03Z</time>
  <course>108.43</course>
  <speed>0.02</speed>
  <fix>3d</fix>
</trkpt>
<trkpt lat="-27.2744388" lon="151.290064">
  <ele>374.75</ele>
  <time>2026-09-01T19:54:03Z</time>
  <course>18.59</course>
  <speed>0.022360679774997897</speed>
  <fix>3d</fix>
</trkpt>
<trkpt lat="-27.2744388" lon="151.290064">
  <ele>374.99</ele>
  <time>2026-09-01T19:54:03Z</time>
  <course>12.26</course>
  <speed>0.022360679774997897</speed>
  <fix>3d</fix>
</trkpt>
<trkpt lat="-27.2744387" lon="151.290064">
  <ele>374.43</ele>
  <time>2026-09-01T19:54:03Z</time>
  <course>102.17</course>
  <speed>0.02</speed>
  <fix>3d</fix>
</trkpt>
<trkpt lat="-27.2744388" lon="151.290064">
  <ele>375.0</ele>
  <time>2026-09-01T19:54:03Z</time>
  <course>23.4</course>
  <speed>0.022360679774997897</speed>
  <fix>3d</fix>
</trkpt>
<trkpt lat="-27.2744388" lon="151.290064">
  <ele>375.24</ele>
  <time>2026-09-01T19:54:03Z</time>
  <course>338.78</course>
  <speed>0.022360679774997897</speed>
  <fix>3d</fix>
</trkpt>
<trkpt lat="-27.2744387" lon="151.290064">
  <ele>374.43</ele>
  <time>2026-09-01T19:54:03Z</time>
  <course>102.17</course>
  <speed>0.02</speed>
  <fix>3d</fix>
</trkpt>
<trkpt lat="-27.2744388" lon="151.290064">
  <ele>375.25</ele>
  <time>2026-09-01T19:54:03Z</time>
  <course>2.37</course>
  <speed>0.022360679774997897</speed>
  <fix>3d</fix>
</trkpt>
<trkpt lat="-27.2744388" lon="151.2900641">
  <ele>375.49</ele>
  <time>2026-09-01T19:54:03Z</time>
  <course>304.15</course>
  <speed>0.022360679774997897</speed>
  <fix>3d</fix>
</trkpt>
<trkpt lat="-27.2744387" lon="151.2900641">
  <ele>374.93</ele>
  <time>2026-09-01T19:54:03Z</time>
  <course>101.56</course>
  <speed>0.02</speed>
  <fix>3d</fix>
</trkpt>
<trkpt lat="-27.2744388" lon="151.2900641">
  <ele>375.5</ele>
  <time>2026-09-01T19:54:03Z</time>
  <course>305.11</course>
  <speed>0.022360679774997897</speed>
  <fix>3d</fix>
</trkpt>
<trkpt lat="-27.2744388" lon="151.2900641">
  <ele>375.74</ele>
  <time>2026-09-01T19:54:03Z</time>
  <course>19.74</course>
  <speed>0.0316227766016838</speed>
  <fix>3d</fix>
</trkpt>
<trkpt lat="-27.2744387" lon="151.2900641">
  <ele>374.93</ele>
  <time>2026-09-01T19:54:03Z</time>
  <course>101.56</course>
  <speed>0.02</speed>
  <fix>3d</fix>
</trkpt>
<trkpt lat="-27.2744388" lon="151.2900641">
  <ele>375.75</ele>
  <time>2026-09-01T19:54:03Z</time>
  <course>344.55</course>
  <speed>0.0316227766016838</speed>
  <fix>3d</fix>
</trkpt>
<trkpt lat="-27.2744388" lon="151.2900641">
  <ele>375.98</ele>
  <time>2026-09-01T19:54:03Z</time>
  <course>64.2</course>
  <speed>0.022360679774997897</speed>
  <fix>3d</fix>
</trkpt>
<trkpt lat="-27.2744387" lon="151.2900641">
  <ele>375.42</ele>
  <time>2026-09-01T19:54:03Z</time>
  <course>104.07</course>
  <speed>0.02</speed>
  <fix>3d</fix>
</trkpt>
<trkpt lat="-27.2744388" lon="151.2900641">
  <ele>375.98</ele>
  <time>2026-09-01T19:54:03Z</time>
  <course>65.01</course>
  <speed>0.022360679774997897</speed>
  <fix>3d</fix>
</trkpt>
<trkpt lat="-27.2744388" lon="151.2900642">
  <ele>376.21</ele>
  <time>2026-09-01T19:54:03Z</time>
  <course>322.31</course>
  <speed>0.022360679774997897</speed>
  <fix>3d</fix>
</trkpt>
<trkpt lat="-27.2744387" lon="151.2900641">
  <ele>375.42</ele>
  <time>2026-09-01T19:54:03Z</time>
  <course>104.07</course>
  <speed>0.02</speed>
  <fix>3d</fix>
</trkpt>
<trkpt lat="-27.2744388" lon="151.2900642">
  <ele>376.22</ele>
  <time>2026-09-01T19:54:03Z</time>
  <course>335.36</course>
  <speed>0.022360679774997897</speed>
  <fix>3d</fix>
</trkpt>
<trkpt lat="-27.2744388" lon="151.2900642">
  <ele>376.45</ele>
  <time>2026-09-01T19:54:03Z</time>
  <course>351.99</course>
  <speed>0.02</speed>
  <fix>3d</fix>
</trkpt>
<trkpt lat="-27.2744387" lon="151.2900642">
  <ele>375.9</ele>
  <time>2026-09-01T19:54:03Z</time>
  <course>103.67</course>
  <speed>0.02</speed>
  <fix>3d</fix>
</trkpt>
<trkpt lat="-27.2744388" lon="151.2900642">
  <ele>376.46</ele>
  <time>2026-09-01T19:54:03Z</time>
  <course>339.47</course>
  <speed>0.02</speed>
  <fix>3d</fix>
</trkpt>
<trkpt lat="-27.2744388" lon="151.2900642">
  <ele>376.69</ele>
  <time>2026-09-01T19:54:03Z</time>
  <course>358.91</course>
  <speed>0.02</speed>
  <fix>3d</fix>
</trkpt>
<trkpt lat="-27.2744387" lon="151.2900642">
  <ele>375.9</ele>
  <time>2026-09-01T19:54:03Z</time>
  <course>103.67</course>
  <speed>0.02</speed>
  <fix>3d</fix>
</trkpt>
<trkpt lat="-27.2744388" lon="151.2900642">
  <ele>376.7</ele>
  <time>2026-09-01T19:54:03Z</time>
  <course>2.77</course>
  <speed>0.02</speed>
  <fix>3d</fix>
</trkpt>
<trkpt lat="-27.2744388" lon="151.2900642">
  <ele>376.94</ele>
  <time>2026-09-01T19:54:03Z</time>
  <course>353.5</course>
  <speed>0.01</speed>
  <fix>3d</fix>
</trkpt>
<trkpt lat="-27.2744387" lon="151.2900642">
  <ele>376.38</ele>
  <time>2026-09-01T19:54:03Z</time>
  <course>104.21</course>
  <speed>0.01</speed>
  <fix>3d</fix>
</trkpt>
<trkpt lat="-27.2744388" lon="151.2900642">
  <ele>376.95</ele>
  <time>2026-09-01T19:54:03Z</time>
  <course>357.92</course>
  <speed>0.01</speed>
  <fix>3d</fix>
</trkpt>
<trkpt lat="-27.2744388" lon="151.2900642">
  <ele>377.18</ele>
  <time>2026-09-01T19:54:03Z</time>
  <course>201.06</course>
  <speed>0.01414213562373095</speed>
  <fix>3d</fix>
</trkpt>
<trkpt lat="-27.2744387" lon="151.2900642">
  <ele>376.38</ele>
  <time>2026-09-01T19:54:03Z</time>
  <course>104.21</course>
  <speed>0.01</speed>
  <fix>3d</fix>
</trkpt>
<trkpt lat="-27.2744388" lon="151.2900642">
  <ele>377.19</ele>
  <time>2026-09-01T19:54:03Z</time>
  <course>212.29</course>
  <speed>0.01414213562373095</speed>
  <fix>3d</fix>
</trkpt>
<trkpt lat="-27.2744388" lon="151.2900642">
  <ele>377.42</ele>
  <time>2026-09-01T19:54:03Z</time>
  <course>354.74</course>
  <speed>0.01</speed>
  <fix>3d</fix>
</trkpt>
<trkpt lat="-27.2744387" lon="151.2900642">
  <ele>376.86</ele>
  <time>2026-09-01T19:54:03Z</time>
  <course>108.61</course>
  <speed>0.01</speed>
  <fix>3d</fix>
</trkpt>
<trkpt lat="-27.2744388" lon="151.2900642">
  <ele>377.42</ele>
  <time>2026-09-01T19:54:03Z</time>
  <course>341.55</course>
  <speed>0.01</speed>
  <fix>3d</fix>
</trkpt>
<trkpt lat="-27.2744388" lon="151.2900642">
  <ele>377.64</ele>
  <time>2026-09-01T19:54:03Z</time>
  <course>358.85</course>
  <speed>0.01</speed>
  <fix>3d</fix>
</trkpt>
<trkpt lat="-27.2744387" lon="151.2900642">
  <ele>376.86</ele>
  <time>2026-09-01T19:54:03Z</time>
  <course>108.61</course>
  <speed>0.01</speed>
  <fix>3d</fix>
</trkpt>
<trkpt lat="-27.2744388" lon="151.2900642">
  <ele>377.65</ele>
  <time>2026-09-01T19:54:03Z</time>
  <course>358.95</course>
  <speed>0.01</speed>
  <fix>3d</fix>
</trkpt>
<trkpt lat="-27.2744388" lon="151.2900642">
  <ele>377.88</ele>
  <time>2026-09-01T19:54:03Z</time>
  <course>352.24</course>
  <speed>0.0</speed>
  <fix>3d</fix>
</trkpt>
<trkpt lat="-27.2744387" lon="151.2900642">
  <ele>377.33</ele>
  <time>2026-09-01T19:54:03Z</time>
  <course>105.8</course>
  <speed>0.0</speed>
  <fix>3d</fix>
</trkpt>
<trkpt lat="-27.2744388" lon="151.2900642">
  <ele>377.89</ele>
  <time>2026-09-01T19:54:03Z</time>
  <course>352.81</course>
  <speed>0.0</speed>
  <fix>3d</fix>
</trkpt>
<trkpt lat="-27.2744388" lon="151.2900642">
  <ele>378.12</ele>
  <time>2026-09-01T19:54:03Z</time>
  <course>356.88</course>
  <speed>0.0</speed>
  <fix>3d</fix>
</trkpt>
<trkpt lat="-27.2744387" lon="151.2900642">
  <ele>377.33</ele>
  <time>2026-09-01T19:54:03Z</time>
  <course>105.8</course>
  <speed>0.0</speed>
  <fix>3d</fix>
</trkpt>
<trkpt lat="-27.2744388" lon="151.2900642">
  <ele>378.13</ele>
  <time>2026-09-01T19:54:03Z</time>
  <course>356.91</course>
  <speed>0.0</speed>
  <fix>3d</fix>
</trkpt>
<trkpt lat="-27.2744388" lon="151.2900642">
  <ele>378.37</ele>
  <time>2026-09-01T19:54:03Z</time>
  <course>357.2</course>
  <speed>0.0</speed>
  <fix>3d</fix>
</trkpt>
<trkpt lat="-27.2744387" lon="151.2900642">
  <ele>377.81</ele>
  <time>2026-09-01T19:54:03Z</time>
  <course>102.7</course>
  <speed>0.0</speed>
  <fix>3d</fix>
</trkpt>
<trkpt lat="-27.2744388" lon="151.2900642">
  <ele>378.38</ele>
  <time>2026-09-01T19:54:03Z</time>
  <course>357.21</course>
  <speed>0.0</speed>
  <fix>3d</fix>
</trkpt>
<trkpt lat="-27.2744388" lon="151.2900642">
  <ele>378.62</ele>
  <time>2026-09-01T19:54:03Z</time>
  <course>357.7</course>
  <speed>0.0</speed>
  <fix>3d</fix>
</trkpt>
<trkpt lat="-27.2744387" lon="151.2900642">
  <ele>377.81</ele>
  <time>2026-09-01T19:54:03Z</time>
  <course>102.7</course>
  <speed>0.0</speed>
  <fix>3d</fix>
</trkpt>
<trkpt lat="-27.2744388" lon="151.2900642">
  <ele>378.63</ele>
  <time>2026-09-01T19:54:03Z</time>
  <course>357.61</course>
  <speed>0.0</speed>
  <fix>3d</fix>
</trkpt>
<trkpt lat="-27.2744388" lon="151.2900642">
  <ele>378.87</ele>
  <time>2026-09-01T19:54:03Z</time>
  <course>358.09</course>
  <speed>0.0</speed>
  <fix>3d</fix>
</trkpt>
<trkpt lat="-27.2744387" lon="151.2900642">
  <ele>378.31</ele>
  <time>2026-09-01T19:54:03Z</time>
  <course>154.35</course>
  <speed>0.0</speed>
  <fix>3d</fix>
</trkpt>
<trkpt lat="-27.2744388" lon="151.2900642">
  <ele>378.88</ele>
  <time>2026-09-01T19:54:03Z</time>
  <course>357.91</course>
  <speed>0.0</speed>
  <fix>3d</fix>
</trkpt>
<trkpt lat="-27.2744388" lon="151.2900642">
  <ele>379.13</ele>
  <time>2026-09-01T19:54:03Z</time>
  <course>358.7</course>
  <speed>0.0</speed>
  <fix>3d</fix>
</trkpt>
<trkpt lat="-27.2744387" lon="151.2900642">
  <ele>378.31</ele>
  <time>2026-09-01T19:54:03Z</time>
  <course>154.35</course>
  <speed>0.0</speed>
  <fix>3d</fix>
</trkpt>
<trkpt lat="-27.2744388" lon="151.2900642">
  <ele>379.14</ele>
  <time>2026-09-01T19:54:03Z</time>
  <course>358.53</course>
  <speed>0.0</speed>
  <fix>3d</fix>
</trkpt>
<trkpt lat="-27.2744388" lon="151.2900642">
  <ele>379.39</ele>
  <time>2026-09-01T19:54:03Z</time>
  <course>359.33</course>
  <speed>0.0</speed>
  <fix>3d</fix>
</trkpt>
<trkpt lat="-27.2744387" lon="151.2900642">
  <ele>378.82</ele>
  <time>2026-09-01T19:54:03Z</time>
  <course>188.62</course>
  <speed>0.0</speed>
  <fix>3d</fix>
</trkpt>
<trkpt lat="-27.2744388" lon="151.2900642">
  <ele>379.4</ele>
  <time>2026-09-01T19:54:03Z</time>
  <course>359.5</course>
  <speed>0.0</speed>
  <fix>3d</fix>
</trkpt>
<trkpt lat="-27.2744388" lon="151.2900642">
  <ele>379.64</ele>
  <time>2026-09-01T19:54:03Z</time>
  <course>358.65</course>
  <speed>0.01</speed>
  <fix>3d</fix>
</trkpt>
<trkpt lat="-27.2744387" lon="151.2900642">
  <ele>378.82</ele>
  <time>2026-09-01T19:54:03Z</time>
  <course>188.62</course>
  <speed>0.0</speed>
  <fix>3d</fix>
</trkpt>
<trkpt lat="-27.2744388" lon="151.2900642">
  <ele>379.66</ele>
  <time>2026-09-01T19:54:03Z</time>
  <course>359.87</course>
  <speed>0.01</speed>
  <fix>3d</fix>
</trkpt>
<trkpt lat="-27.2744388" lon="151.2900642">
  <ele>379.9</ele>
  <time>2026-09-01T19:54:03Z</time>
  <course>355.5</course>
  <speed>0.01</speed>
  <fix>3d</fix>
</trkpt>
<trkpt lat="-27.2744387" lon="151.2900642">
  <ele>379.34</ele>
  <time>2026-09-01T19:54:03Z</time>
  <course>195.39</course>
  <speed>0.01</speed>
  <fix>3d</fix>
</trkpt>
<trkpt lat="-27.2744388" lon="151.2900642">
  <ele>379.91</ele>
  <time>2026-09-01T19:54:03Z</time>
  <course>357.76</course>
  <speed>0.01</speed>
  <fix>3d</fix>
</trkpt>
<trkpt lat="-27.2744388" lon="151.2900642">
  <ele>380.16</ele>
  <time>2026-09-01T19:54:03Z</time>
  <course>349.34</course>
  <speed>0.01</speed>
  <fix>3d</fix>
</trkpt>
<trkpt lat="-27.2744387" lon="151.2900642">
  <ele>379.34</ele>
  <time>2026-09-01T19:54:03Z</time>
  <course>195.39</course>
  <speed>0.01</speed>
  <fix>3d</fix>
</trkpt>
<trkpt lat="-27.2744388" lon="151.2900642">
  <ele>380.17</ele>
  <time>2026-09-01T19:54:03Z</time>
  <course>351.08</course>
  <speed>0.01</speed>
  <fix>3d</fix>
</trkpt>
<trkpt lat="-27.2744388" lon="151.2900642">
  <ele>380.42</ele>
  <time>2026-09-01T19:54:03Z</time>
  <course>344.61</course>
  <speed>0.01</speed>
  <fix>3d</fix>
</trkpt>
<trkpt lat="-27.2744387" lon="151.2900642">
  <ele>379.85</ele>
  <time>2026-09-01T19:54:03Z</time>
  <course>198.31</course>
  <speed>0.01</speed>
  <fix>3d</fix>
</trkpt>
<trkpt lat="-27.2744388" lon="151.2900642">
  <ele>380.43</ele>
  <time>2026-09-01T19:54:03Z</time>
  <course>341.98</course>
  <speed>0.01</speed>
  <fix>3d</fix>
</trkpt>
<trkpt lat="-27.2744388" lon="151.2900642">
  <ele>380.67</ele>
  <time>2026-09-01T19:54:03Z</time>
  <course>350.44</course>
  <speed>0.01</speed>
  <fix>3d</fix>
</trkpt>
<trkpt lat="-27.2744387" lon="151.2900642">
  <ele>379.85</ele>
  <time>2026-09-01T19:54:03Z</time>
  <course>198.31</course>
  <speed>0.01</speed>
  <fix>3d</fix>
</trkpt>
<trkpt lat="-27.2744388" lon="151.2900642">
  <ele>380.68</ele>
  <time>2026-09-01T19:54:03Z</time>
  <course>340.02</course>
  <speed>0.01</speed>
  <fix>3d</fix>
</trkpt>
<trkpt lat="-27.2744388" lon="151.2900642">
  <ele>380.92</ele>
  <time>2026-09-01T19:54:03Z</time>
  <course>24.17</course>
  <speed>0.01</speed>
  <fix>3d</fix>
</trkpt>
<trkpt lat="-27.2744388" lon="151.2900642">
  <ele>380.36</ele>
  <time>2026-09-01T19:54:03Z</time>
  <course>200.0</course>
  <speed>0.01</speed>
  <fix>3d</fix>
</trkpt>
<trkpt lat="-27.2744388" lon="151.2900642">
  <ele>380.93</ele>
  <time>2026-09-01T19:54:03Z</time>
  <course>2.95</course>
  <speed>0.01</speed>
  <fix>3d</fix>
</trkpt>
<trkpt lat="-27.2744388" lon="151.2900642">
  <ele>381.17</ele>
  <time>2026-09-01T19:54:03Z</time>
  <course>61.69</course>
  <speed>0.01</speed>
  <fix>3d</fix>
</trkpt>
<trkpt lat="-27.2744388" lon="151.2900642">
  <ele>380.36</ele>
  <time>2026-09-01T19:54:03Z</time>
  <course>200.0</course>
  <speed>0.01</speed>
  <fix>3d</fix>
</trkpt>
<trkpt lat="-27.2744388" lon="151.2900642">
  <ele>381.17</ele>
  <time>2026-09-01T19:54:03Z</time>
  <course>57.4</course>
  <speed>0.01</speed>
  <fix>3d</fix>
</trkpt>
<trkpt lat="-27.2744388" lon="151.2900642">
  <ele>381.41</ele>
  <time>2026-09-01T19:54:03Z</time>
  <course>19.08</course>
  <speed>0.01</speed>
  <fix>3d</fix>
</trkpt>
<trkpt lat="-27.2744388" lon="151.2900642">
  <ele>380.86</ele>
  <time>2026-09-01T19:54:03Z</time>
  <course>206.03</course>
  <speed>0.02</speed>
  <fix>3d</fix>
</trkpt>
<trkpt lat="-27.2744388" lon="151.2900642">
  <ele>381.42</ele>
  <time>2026-09-01T19:54:03Z</time>
  <course>31.35</course>
  <speed>0.01</speed>
  <fix>3d</fix>
</trkpt>
<trkpt lat="-27.2744388" lon="151.2900642">
  <ele>381.64</ele>
  <time>2026-09-01T19:54:03Z</time>
  <course>270.33</course>
  <speed>0.01</speed>
  <fix>3d</fix>
</trkpt>
<trkpt lat="-27.2744388" lon="151.2900642">
  <ele>380.86</ele>
  <time>2026-09-01T19:54:03Z</time>
  <course>206.03</course>
  <speed>0.02</speed>
  <fix>3d</fix>
</trkpt>
<trkpt lat="-27.2744388" lon="151.2900642">
  <ele>381.65</ele>
  <time>2026-09-01T19:54:03Z</time>
  <course>288.28</course>
  <speed>0.01</speed>
  <fix>3d</fix>
</trkpt>
<trkpt lat="-27.2744388" lon="151.2900642">
  <ele>381.86</ele>
  <time>2026-09-01T19:54:03Z</time>
  <course>81.91</course>
  <speed>0.01</speed>
  <fix>3d</fix>
</trkpt>
<trkpt lat="-27.2744388" lon="151.2900642">
  <ele>381.33</ele>
  <time>2026-09-01T19:54:03Z</time>
  <course>219.07</course>
  <speed>0.02</speed>
  <fix>3d</fix>
</trkpt>
<trkpt lat="-27.2744388" lon="151.2900642">
  <ele>381.87</ele>
  <time>2026-09-01T19:54:03Z</time>
  <course>127.6</course>
  <speed>0.01</speed>
  <fix>3d</fix>
</trkpt>
<trkpt lat="-27.2744388" lon="151.2900642">
  <ele>382.06</ele>
  <time>2026-09-01T19:54:03Z</time>
  <course>356.24</course>
  <speed>0.01</speed>
  <fix>3d</fix>
</trkpt>
<trkpt lat="-27.2744388" lon="151.2900642">
  <ele>381.33</ele>
  <time>2026-09-01T19:54:03Z</time>
  <course>219.07</course>
  <speed>0.02</speed>
  <fix>3d</fix>
</trkpt>
<trkpt lat="-27.2744388" lon="151.2900642">
  <ele>382.07</ele>
  <time>2026-09-01T19:54:03Z</time>
  <course>359.93</course>
  <speed>0.01</speed>
  <fix>3d</fix>
</trkpt>
<trkpt lat="-27.2744388" lon="151.2900642">
  <ele>382.27</ele>
  <time>2026-09-01T19:54:03Z</time>
  <course>9.4</course>
  <speed>0.0</speed>
  <fix>3d</fix>
</trkpt>
<trkpt lat="-27.2744389" lon="151.2900642">
  <ele>381.77</ele>
  <time>2026-09-01T19:54:03Z</time>
  <course>241.27</course>
  <speed>0.01</speed>
  <fix>3d</fix>
</trkpt>
<trkpt lat="-27.2744388" lon="151.2900642">
  <ele>382.28</ele>
  <time>2026-09-01T19:54:03Z</time>
  <course>4.78</course>
  <speed>0.0</speed>
  <fix>3d</fix>
</trkpt>
<trkpt lat="-27.2744388" lon="151.2900642">
  <ele>382.49</ele>
  <time>2026-09-01T19:54:03Z</time>
  <course>5.43</course>
  <speed>0.0</speed>
  <fix>3d</fix>
</trkpt>
<trkpt lat="-27.2744389" lon="151.2900642">
  <ele>381.77</ele>
  <time>2026-09-01T19:54:03Z</time>
  <course>241.27</course>
  <speed>0.01</speed>
  <fix>3d</fix>
</trkpt>
<trkpt lat="-27.2744388" lon="151.2900642">
  <ele>382.5</ele>
  <time>2026-09-01T19:54:03Z</time>
  <course>6.0</course>
  <speed>0.0</speed>
  <fix>3d</fix>
</trkpt>
<trkpt lat="-27.2744388" lon="151.2900642">
  <ele>382.71</ele>
  <time>2026-09-01T19:54:03Z</time>
  <course>8.19</course>
  <speed>0.0</speed>
  <fix>3d</fix>
</trkpt>
<trkpt lat="-27.2744389" lon="151.2900642">
  <ele>382.2</ele>
  <time>2026-09-01T19:54:03Z</time>
  <course>261.16</course>
  <speed>0.01</speed>
  <fix>3d</fix>
</trkpt>
<trkpt lat="-27.2744388" lon="151.2900642">
  <ele>382.72</ele>
  <time>2026-09-01T19:54:03Z</time>
  <course>8.13</course>
  <speed>0.0</speed>
  <fix>3d</fix>
</trkpt>
<trkpt lat="-27.2744388" lon="151.2900642">
  <ele>382.95</ele>
  <time>2026-09-01T19:54:03Z</time>
  <course>8.21</course>
  <speed>0.0</speed>
  <fix>3d</fix>
</trkpt>
<trkpt lat="-27.2744389" lon="151.2900642">
  <ele>382.2</ele>
  <time>2026-09-01T19:54:03Z</time>
  <course>261.16</course>
  <speed>0.01</speed>
  <fix>3d</fix>
</trkpt>
<trkpt lat="-27.2744388" lon="151.2900642">
  <ele>382.96</ele>
  <time>2026-09-01T19:54:03Z</time>
  <course>8.21</course>
  <speed>0.0</speed>
  <fix>3d</fix>
</trkpt>
<trkpt lat="-27.2744388" lon="151.2900642">
  <ele>383.19</ele>
  <time>2026-09-01T19:54:03Z</time>
  <course>7.56</course>
  <speed>0.0</speed>
  <fix>3d</fix>
</trkpt>
<trkpt lat="-27.2744389" lon="151.2900642">
  <ele>382.66</ele>
  <time>2026-09-01T19:54:03Z</time>
  <course>267.77</course>
  <speed>0.01</speed>
  <fix>3d</fix>
</trkpt>
<trkpt lat="-27.2744388" lon="151.2900642">
  <ele>383.2</ele>
  <time>2026-09-01T19:54:03Z</time>
  <course>7.52</course>
  <speed>0.0</speed>
  <fix>3d</fix>
</trkpt>
<trkpt lat="-27.2744388" lon="151.2900642">
  <ele>383.44</ele>
  <time>2026-09-01T19:54:03Z</time>
  <course>6.37</course>
  <speed>0.0</speed>
  <fix>3d</fix>
</trkpt>
<trkpt lat="-27.2744389" lon="151.2900642">
  <ele>382.66</ele>
  <time>2026-09-01T19:54:03Z</time>
  <course>267.77</course>
  <speed>0.01</speed>
  <fix>3d</fix>
</trkpt>
<trkpt lat="-27.2744388" lon="151.2900642">
  <ele>383.45</ele>
  <time>2026-09-01T19:54:03Z</time>
  <course>6.33</course>
  <speed>0.0</speed>
  <fix>3d</fix>
</trkpt>
<trkpt lat="-27.2744388" lon="151.2900642">
  <ele>383.7</ele>
  <time>2026-09-01T19:54:03Z</time>
  <course>4.94</course>
  <speed>0.0</speed>
  <fix>3d</fix>
</trkpt>
<trkpt lat="-27.2744389" lon="151.2900642">
  <ele>383.15</ele>
  <time>2026-09-01T19:54:03Z</time>
  <course>254.96</course>
  <speed>0.0</speed>
  <fix>3d</fix>
</trkpt>
<trkpt lat="-27.2744388" lon="151.2900642">
  <ele>383.72</ele>
  <time>2026-09-01T19:54:03Z</time>
  <course>4.86</course>
  <speed>0.0</speed>
  <fix>3d</fix>
</trkpt>
<trkpt lat="-27.2744388" lon="151.2900642">
  <ele>383.96</ele>
  <time>2026-09-01T19:54:03Z</time>
  <course>3.43</course>
  <speed>0.0</speed>
  <fix>3d</fix>
</trkpt>
<trkpt lat="-27.2744389" lon="151.2900642">
  <ele>383.15</ele>
  <time>2026-09-01T19:54:03Z</time>
  <course>254.96</course>
  <speed>0.0</speed>
  <fix>3d</fix>
</trkpt>
<trkpt lat="-27.2744388" lon="151.2900642">
  <ele>383.97</ele>
  <time>2026-09-01T19:54:03Z</time>
  <course>3.37</course>
  <speed>0.0</speed>
  <fix>3d</fix>
</trkpt>
<trkpt lat="-27.2744389" lon="151.2900642">
  <ele>384.22</ele>
  <time>2026-09-01T19:54:03Z</time>
  <course>2.18</course>
  <speed>0.01</speed>
  <fix>3d</fix>
</trkpt>
<trkpt lat="-27.2744389" lon="151.2900642">
  <ele>383.66</ele>
  <time>2026-09-01T19:54:03Z</time>
  <course>229.61</course>
  <speed>0.01</speed>
  <fix>3d</fix>
</trkpt>
<trkpt lat="-27.2744389" lon="151.2900642">
  <ele>384.23</ele>
  <time>2026-09-01T19:54:03Z</time>
  <course>2.13</course>
  <speed>0.01</speed>
  <fix>3d</fix>
</trkpt>
<trkpt lat="-27.2744389" lon="151.2900642">
  <ele>384.49</ele>
  <time>2026-09-01T19:54:03Z</time>
  <course>1.11</course>
  <speed>0.01</speed>
  <fix>3d</fix>
</trkpt>
<trkpt lat="-27.2744389" lon="151.2900642">
  <ele>383.66</ele>
  <time>2026-09-01T19:54:03Z</time>
  <course>229.61</course>
  <speed>0.01</speed>
  <fix>3d</fix>
</trkpt>
<trkpt lat="-27.2744389" lon="151.2900642">
  <ele>384.5</ele>
  <time>2026-09-01T19:54:03Z</time>
  <course>1.06</course>
  <speed>0.01</speed>
  <fix>3d</fix>
</trkpt>
<trkpt lat="-27.2744389" lon="151.2900642">
  <ele>384.75</ele>
  <time>2026-09-01T19:54:03Z</time>
  <course>0.44</course>
  <speed>0.01</speed>
  <fix>3d</fix>
</trkpt>
<trkpt lat="-27.2744389" lon="151.2900642">
  <ele>384.2</ele>
  <time>2026-09-01T19:54:03Z</time>
  <course>215.22</course>
  <speed>0.01</speed>
  <fix>3d</fix>
</trkpt>
<trkpt lat="-27.2744389" lon="151.2900642">
  <ele>384.76</ele>
  <time>2026-09-01T19:54:03Z</time>
  <course>0.4</course>
  <speed>0.01</speed>
  <fix>3d</fix>
</trkpt>
<trkpt lat="-27.2744389" lon="151.2900642">
  <ele>385.02</ele>
  <time>2026-09-01T19:54:03Z</time>
  <course>0.0</course>
  <speed>0.01</speed>
  <fix>3d</fix>
</trkpt>
<trkpt lat="-27.2744389" lon="151.2900642">
  <ele>384.2</ele>
  <time>2026-09-01T19:54:03Z</time>
  <course>215.22</course>
  <speed>0.01</speed>
  <fix>3d</fix>
</trkpt>
<trkpt lat="-27.2744389" lon="151.2900642">
  <ele>385.03</ele>
  <time>2026-09-01T19:54:03Z</time>
  <course>0.0</course>
  <speed>0.01</speed>
  <fix>3d</fix>
</trkpt>
<trkpt lat="-27.2744389" lon="151.2900642">
  <ele>385.28</ele>
  <time>2026-09-01T19:54:03Z</time>
  <course>0.66</course>
  <speed>0.02</speed>
  <fix>3d</fix>
</trkpt>
<trkpt lat="-27.2744389" lon="151.2900642">
  <ele>384.73</ele>
  <time>2026-09-01T19:54:03Z</time>
  <course>211.48</course>
  <speed>0.01</speed>
  <fix>3d</fix>
</trkpt>
<trkpt lat="-27.2744389" lon="151.2900642">
  <ele>385.29</ele>
  <time>2026-09-01T19:54:03Z</time>
  <course>0.66</course>
  <speed>0.02</speed>
  <fix>3d</fix>
</trkpt>
<trkpt lat="-27.2744389" lon="151.2900642">
  <ele>385.54</ele>
  <time>2026-09-01T19:54:03Z</time>
  <course>2.29</course>
  <speed>0.02</speed>
  <fix>3d</fix>
</trkpt>
<trkpt lat="-27.2744389" lon="151.2900642">
  <ele>384.73</ele>
  <time>2026-09-01T19:54:03Z</time>
  <course>211.48</course>
  <speed>0.01</speed>
  <fix>3d</fix>
</trkpt>
<trkpt lat="-27.2744389" lon="151.2900642">
  <ele>385.56</ele>
  <time>2026-09-01T19:54:03Z</time>
  <course>2.32</course>
  <speed>0.02</speed>
  <fix>3d</fix>
</trkpt>
<trkpt lat="-27.2744389" lon="151.2900642">
  <ele>385.8</ele>
  <time>2026-09-01T19:54:03Z</time>
  <course>345.94</course>
  <speed>0.02</speed>
  <fix>3d</fix>
</trkpt>
<trkpt lat="-27.274439" lon="151.2900642">
  <ele>385.26</ele>
  <time>2026-09-01T19:54:03Z</time>
  <course>211.63</course>
  <speed>0.02</speed>
  <fix>3d</fix>
</trkpt>
<trkpt lat="-27.2744389" lon="151.2900642">
  <ele>385.81</ele>
  <time>2026-09-01T19:54:03Z</time>
  <course>357.93</course>
  <speed>0.02</speed>
  <fix>3d</fix>
</trkpt>
<trkpt lat="-27.274439" lon="151.2900642">
  <ele>386.04</ele>
  <time>2026-09-01T19:54:03Z</time>
  <course>199.59</course>
  <speed>0.01</speed>
  <fix>3d</fix>
</trkpt>
<trkpt lat="-27.274439" lon="151.2900642">
  <ele>385.26</ele>
  <time>2026-09-01T19:54:03Z</time>
  <course>211.63</course>
  <speed>0.02</speed>
  <fix>3d</fix>
</trkpt>
<trkpt lat="-27.274439" lon="151.2900642">
  <ele>386.05</ele>
  <time>2026-09-01T19:54:03Z</time>
  <course>191.08</course>
  <speed>0.01</speed>
  <fix>3d</fix>
</trkpt>
<trkpt lat="-27.274439" lon="151.2900642">
  <ele>386.28</ele>
  <time>2026-09-01T19:54:03Z</time>
  <course>0.02</course>
  <speed>0.01</speed>
  <fix>3d</fix>
</trkpt>
<trkpt lat="-27.274439" lon="151.2900641">
  <ele>385.76</ele>
  <time>2026-09-01T19:54:03Z</time>
  <course>222.49</course>
  <speed>0.01</speed>
  <fix>3d</fix>
</trkpt>
<trkpt lat="-27.274439" lon="151.2900642">
  <ele>386.29</ele>
  <time>2026-09-01T19:54:03Z</time>
  <course>359.63</course>
  <speed>0.01</speed>
  <fix>3d</fix>
</trkpt>
<trkpt lat="-27.274439" lon="151.2900642">
  <ele>386.53</ele>
  <time>2026-09-01T19:54:03Z</time>
  <course>0.79</course>
  <speed>0.01</speed>
  <fix>3d</fix>
</trkpt>
<trkpt lat="-27.274439" lon="151.2900641">
  <ele>385.76</ele>
  <time>2026-09-01T19:54:03Z</time>
  <course>222.49</course>
  <speed>0.01</speed>
  <fix>3d</fix>
</trkpt>
<trkpt lat="-27.274439" lon="151.2900642">
  <ele>386.54</ele>
  <time>2026-09-01T19:54:03Z</time>
  <course>0.08</course>
  <speed>0.01</speed>
  <fix>3d</fix>
</trkpt>
<trkpt lat="-27.274439" lon="151.2900642">
  <ele>386.78</ele>
  <time>2026-09-01T19:54:03Z</time>
  <course>3.2</course>
  <speed>0.01</speed>
  <fix>3d</fix>
</trkpt>
<trkpt lat="-27.274439" lon="151.2900641">
  <ele>386.24</ele>
  <time>2026-09-01T19:54:03Z</time>
  <course>245.29</course>
  <speed>0.01</speed>
  <fix>3d</fix>
</trkpt>
<trkpt lat="-27.274439" lon="151.2900642">
  <ele>386.79</ele>
  <time>2026-09-01T19:54:03Z</time>
  <course>3.26</course>
  <speed>0.01</speed>
  <fix>3d</fix>
</trkpt>
<trkpt lat="-27.274439" lon="151.2900642">
  <ele>387.02</ele>
  <time>2026-09-01T19:54:03Z</time>
  <course>3.36</course>
  <speed>0.0</speed>
  <fix>3d</fix>
</trkpt>
<trkpt lat="-27.274439" lon="151.2900641">
  <ele>386.24</ele>
  <time>2026-09-01T19:54:03Z</time>
  <course>245.29</course>
  <speed>0.01</speed>
  <fix>3d</fix>
</trkpt>
<trkpt lat="-27.274439" lon="151.2900642">
  <ele>387.03</ele>
  <time>2026-09-01T19:54:03Z</time>
  <course>6.29</course>
  <speed>0.0</speed>
  <fix>3d</fix>
</trkpt>
<trkpt lat="-27.274439" lon="151.2900642">
  <ele>387.27</ele>
  <time>2026-09-01T19:54:03Z</time>
  <course>355.37</course>
  <speed>0.0</speed>
  <fix>3d</fix>
</trkpt>
<trkpt lat="-27.274439" lon="151.2900641">
  <ele>386.74</ele>
  <time>2026-09-01T19:54:03Z</time>
  <course>258.71</course>
  <speed>0.01</speed>
  <fix>3d</fix>
</trkpt>
<trkpt lat="-27.274439" lon="151.2900642">
  <ele>387.28</ele>
  <time>2026-09-01T19:54:03Z</time>
  <course>2.72</course>
  <speed>0.0</speed>
  <fix>3d</fix>
</trkpt>
<trkpt lat="-27.274439" lon="151.2900642">
  <ele>387.52</ele>
  <time>2026-09-01T19:54:03Z</time>
  <course>336.2</course>
  <speed>0.0</speed>
  <fix>3d</fix>
</trkpt>
<trkpt lat="-27.274439" lon="151.2900641">
  <ele>386.74</ele>
  <time>2026-09-01T19:54:03Z</time>
  <course>258.71</course>
  <speed>0.01</speed>
  <fix>3d</fix>
</trkpt>
<trkpt lat="-27.274439" lon="151.2900642">
  <ele>387.53</ele>
  <time>2026-09-01T19:54:03Z</time>
  <course>343.62</course>
  <speed>0.0</speed>
  <fix>3d</fix>
</trkpt>
<trkpt lat="-27.274439" lon="151.2900642">
  <ele>387.77</ele>
  <time>2026-09-01T19:54:03Z</time>
  <course>318.71</course>
  <speed>0.0</speed>
  <fix>3d</fix>
</trkpt>
<trkpt lat="-27.274439" lon="151.2900641">
  <ele>387.24</ele>
  <time>2026-09-01T19:54:03Z</time>
  <course>265.79</course>
  <speed>0.01</speed>
  <fix>3d</fix>
</trkpt>
<trkpt lat="-27.274439" lon="151.2900642">
  <ele>387.78</ele>
  <time>2026-09-01T19:54:03Z</time>
  <course>317.81</course>
  <speed>0.0</speed>
  <fix>3d</fix>
</trkpt>
<trkpt lat="-27.274439" lon="151.2900642">
  <ele>388.02</ele>
  <time>2026-09-01T19:54:03Z</time>
  <course>343.93</course>
  <speed>0.0</speed>
  <fix>3d</fix>
</trkpt>
<trkpt lat="-27.274439" lon="151.2900641">
  <ele>387.24</ele>
  <time>2026-09-01T19:54:03Z</time>
  <course>265.79</course>
  <speed>0.01</speed>
  <fix>3d</fix>
</trkpt>
<trkpt lat="-27.274439" lon="151.2900642">
  <ele>388.03</ele>
  <time>2026-09-01T19:54:03Z</time>
  <course>321.84</course>
  <speed>0.0</speed>
  <fix>3d</fix>
</trkpt>
<trkpt lat="-27.274439" lon="151.2900642">
  <ele>388.26</ele>
  <time>2026-09-01T19:54:03Z</time>
  <course>61.41</course>
  <speed>0.0</speed>
  <fix>3d</fix>
</trkpt>
<trkpt lat="-27.274439" lon="151.290064">
  <ele>387.73</ele>
  <time>2026-09-01T19:54:03Z</time>
  <course>267.65</course>
  <speed>0.01</speed>
  <fix>3d</fix>
</trkpt>
<trkpt lat="-27.274439" lon="151.2900642">
  <ele>388.27</ele>
  <time>2026-09-01T19:54:03Z</time>
  <course>59.73</course>
  <speed>0.0</speed>
  <fix>3d</fix>
</trkpt>
<trkpt lat="-27.274439" lon="151.2900641">
  <ele>388.5</ele>
  <time>2026-09-01T19:54:03Z</time>
  <course>343.8</course>
  <speed>0.0</speed>
  <fix>3d</fix>
</trkpt>
<trkpt lat="-27.274439" lon="151.290064">
  <ele>387.73</ele>
  <time>2026-09-01T19:54:03Z</time>
  <course>267.65</course>
  <speed>0.01</speed>
  <fix>3d</fix>
</trkpt>
<trkpt lat="-27.274439" lon="151.2900641">
  <ele>388.51</ele>
  <time>2026-09-01T19:54:03Z</time>
  <course>16.59</course>
  <speed>0.0</speed>
  <fix>3d</fix>
</trkpt>
<trkpt lat="-27.274439" lon="151.2900641">
  <ele>388.74</ele>
  <time>2026-09-01T19:54:03Z</time>
  <course>310.21</course>
  <speed>0.0</speed>
  <fix>3d</fix>
</trkpt>
<trkpt lat="-27.274439" lon="151.290064">
  <ele>388.22</ele>
  <time>2026-09-01T19:54:03Z</time>
  <course>272.09</course>
  <speed>0.02</speed>
  <fix>3d</fix>
</trkpt>
<trkpt lat="-27.274439" lon="151.2900641">
  <ele>388.74</ele>
  <time>2026-09-01T19:54:03Z</time>
  <course>309.02</course>
  <speed>0.0</speed>
  <fix>3d</fix>
</trkpt>
<trkpt lat="-27.274439" lon="151.2900641">
  <ele>388.98</ele>
  <time>2026-09-01T19:54:03Z</time>
  <course>36.54</course>
  <speed>0.0</speed>
  <fix>3d</fix>
</trkpt>
<trkpt lat="-27.274439" lon="151.290064">
  <ele>388.22</ele>
  <time>2026-09-01T19:54:03Z</time>
  <course>272.09</course>
  <speed>0.02</speed>
  <fix>3d</fix>
</trkpt>
<trkpt lat="-27.274439" lon="151.2900641">
  <ele>388.98</ele>
  <time>2026-09-01T19:54:03Z</time>
  <course>31.4</course>
  <speed>0.0</speed>
  <fix>3d</fix>
</trkpt>
<trkpt lat="-27.274439" lon="151.2900641">
  <ele>389.22</ele>
  <time>2026-09-01T19:54:03Z</time>
  <course>342.0</course>
  <speed>0.01</speed>
  <fix>3d</fix>
</trkpt>
<trkpt lat="-27.274439" lon="151.2900639">
  <ele>388.69</ele>
  <time>2026-09-01T19:54:03Z</time>
  <course>280.5</course>
  <speed>0.02</speed>
  <fix>3d</fix>
</trkpt>
<trkpt lat="-27.274439" lon="151.2900641">
  <ele>389.23</ele>
  <time>2026-09-01T19:54:03Z</time>
  <course>346.42</course>
  <speed>0.01</speed>
  <fix>3d</fix>
</trkpt>
<trkpt lat="-27.274439" lon="151.2900641">
  <ele>389.47</ele>
  <time>2026-09-01T19:54:03Z</time>
  <course>220.69</course>
  <speed>0.01</speed>
  <fix>3d</fix>
</trkpt>
<trkpt lat="-27.274439" lon="151.2900639">
  <ele>388.69</ele>
  <time>2026-09-01T19:54:03Z</time>
  <course>280.5</course>
  <speed>0.02</speed>
  <fix>3d</fix>
</trkpt>
<trkpt lat="-27.274439" lon="151.2900641">
  <ele>389.47</ele>
  <time>2026-09-01T19:54:03Z</time>
  <course>335.63</course>
  <speed>0.01</speed>
  <fix>3d</fix>
</trkpt>
<trkpt lat="-27.274439" lon="151.290064">
  <ele>389.7</ele>
  <time>2026-09-01T19:54:03Z</time>
  <course>355.04</course>
  <speed>0.01</speed>
  <fix>3d</fix>
</trkpt>
<trkpt lat="-27.274439" lon="151.2900639">
  <ele>389.17</ele>
  <time>2026-09-01T19:54:03Z</time>
  <course>283.65</course>
  <speed>0.03</speed>
  <fix>3d</fix>
</trkpt>
<trkpt lat="-27.274439" lon="151.290064">
  <ele>389.71</ele>
  <time>2026-09-01T19:54:03Z</time>
  <course>306.18</course>
  <speed>0.01</speed>
  <fix>3d</fix>
</trkpt>
<trkpt lat="-27.274439" lon="151.290064">
  <ele>389.93</ele>
  <time>2026-09-01T19:54:03Z</time>
  <course>1.63</course>
  <speed>0.01</speed>
  <fix>3d</fix>
</trkpt>
<trkpt lat="-27.274439" lon="151.2900639">
  <ele>389.17</ele>
  <time>2026-09-01T19:54:03Z</time>
  <course>283.65</course>
  <speed>0.03</speed>
  <fix>3d</fix>
</trkpt>
<trkpt lat="-27.274439" lon="151.290064">
  <ele>389.94</ele>
  <time>2026-09-01T19:54:03Z</time>
  <course>1.66</course>
  <speed>0.01</speed>
  <fix>3d</fix>
</trkpt>
<trkpt lat="-27.274439" lon="151.290064">
  <ele>390.16</ele>
  <time>2026-09-01T19:54:03Z</time>
  <course>357.34</course>
  <speed>0.01</speed>
  <fix>3d</fix>
</trkpt>
<trkpt lat="-27.274439" lon="151.2900638">
  <ele>389.65</ele>
  <time>2026-09-01T19:54:03Z</time>
  <course>286.61</course>
  <speed>0.03</speed>
  <fix>3d</fix>
</trkpt>
<trkpt lat="-27.274439" lon="151.290064">
  <ele>390.17</ele>
  <time>2026-09-01T19:54:03Z</time>
  <course>358.88</course>
  <speed>0.01</speed>
  <fix>3d</fix>
</trkpt>
<trkpt lat="-27.274439" lon="151.2900639">
  <ele>390.4</ele>
  <time>2026-09-01T19:54:03Z</time>
  <course>1.52</course>
  <speed>0.01</speed>
  <fix>3d</fix>
</trkpt>
<trkpt lat="-27.274439" lon="151.2900638">
  <ele>389.65</ele>
  <time>2026-09-01T19:54:03Z</time>
  <course>286.61</course>
  <speed>0.03</speed>
  <fix>3d</fix>
</trkpt>
<trkpt lat="-27.274439" lon="151.2900639">
  <ele>390.41</ele>
  <time>2026-09-01T19:54:03Z</time>
  <course>1.56</course>
  <speed>0.01</speed>
  <fix>3d</fix>
</trkpt>
<trkpt lat="-27.274439" lon="151.2900639">
  <ele>390.65</ele>
  <time>2026-09-01T19:54:03Z</time>
  <course>2.74</course>
  <speed>0.01</speed>
  <fix>3d</fix>
</trkpt>
<trkpt lat="-27.274439" lon="151.2900637">
  <ele>390.12</ele>
  <time>2026-09-01T19:54:03Z</time>
  <course>291.37</course>
  <speed>0.03</speed>
  <fix>3d</fix>
</trkpt>
<trkpt lat="-27.274439" lon="151.2900639">
  <ele>390.66</ele>
  <time>2026-09-01T19:54:03Z</time>
  <course>2.81</course>
  <speed>0.01</speed>
  <fix>3d</fix>
</trkpt>
<trkpt lat="-27.274439" lon="151.2900639">
  <ele>390.9</ele>
  <time>2026-09-01T19:54:03Z</time>
  <course>3.73</course>
  <speed>0.01</speed>
  <fix>3d</fix>
</trkpt>
<trkpt lat="-27.274439" lon="151.2900637">
  <ele>390.12</ele>
  <time>2026-09-01T19:54:03Z</time>
  <course>291.37</course>
  <speed>0.03</speed>
  <fix>3d</fix>
</trkpt>
<trkpt lat="-27.274439" lon="151.2900639">
  <ele>390.91</ele>
  <time>2026-09-01T19:54:03Z</time>
  <course>3.83</course>
  <speed>0.01</speed>
  <fix>3d</fix>
</trkpt>
<trkpt lat="-27.274439" lon="151.2900638">
  <ele>391.15</ele>
  <time>2026-09-01T19:54:03Z</time>
  <course>4.47</course>
  <speed>0.01</speed>
  <fix>3d</fix>
</trkpt>
<trkpt lat="-27.274439" lon="151.2900637">
  <ele>390.62</ele>
  <time>2026-09-01T19:54:03Z</time>
  <course>292.86</course>
  <speed>0.03</speed>
  <fix>3d</fix>
</trkpt>
<trkpt lat="-27.274439" lon="151.2900638">
  <ele>391.16</ele>
  <time>2026-09-01T19:54:03Z</time>
  <course>4.61</course>
  <speed>0.01</speed>
  <fix>3d</fix>
</trkpt>
<trkpt lat="-27.274439" lon="151.2900638">
  <ele>391.41</ele>
  <time>2026-09-01T19:54:03Z</time>
  <course>4.7</course>
  <speed>0.01</speed>
  <fix>3d</fix>
</trkpt>
<trkpt lat="-27.274439" lon="151.2900637">
  <ele>390.62</ele>
  <time>2026-09-01T19:54:03Z</time>
  <course>292.86</course>
  <speed>0.03</speed>
  <fix>3d</fix>
</trkpt>
<trkpt lat="-27.274439" lon="151.2900638">
  <ele>391.42</ele>
  <time>2026-09-01T19:54:03Z</time>
  <course>4.7</course>
  <speed>0.01</speed>
  <fix>3d</fix>
</trkpt>
<trkpt lat="-27.274439" lon="151.2900638">
  <ele>391.67</ele>
  <time>2026-09-01T19:54:03Z</time>
  <course>4.47</course>
  <speed>0.01</speed>
  <fix>3d</fix>
</trkpt>
<trkpt lat="-27.274439" lon="151.2900636">
  <ele>391.12</ele>
  <time>2026-09-01T19:54:03Z</time>
  <course>289.98</course>
  <speed>0.02</speed>
  <fix>3d</fix>
</trkpt>
<trkpt lat="-27.274439" lon="151.2900638">
  <ele>391.68</ele>
  <time>2026-09-01T19:54:03Z</time>
  <course>4.33</course>
  <speed>0.01</speed>
  <fix>3d</fix>
</trkpt>
<trkpt lat="-27.274439" lon="151.2900638">
  <ele>391.93</ele>
  <time>2026-09-01T19:54:03Z</time>
  <course>5.34</course>
  <speed>0.01</speed>
  <fix>3d</fix>
</trkpt>
<trkpt lat="-27.274439" lon="151.2900636">
  <ele>391.12</ele>
  <time>2026-09-01T19:54:03Z</time>
  <course>289.98</course>
  <speed>0.02</speed>
  <fix>3d</fix>
</trkpt>
<trkpt lat="-27.274439" lon="151.2900638">
  <ele>391.94</ele>
  <time>2026-09-01T19:54:03Z</time>
  <course>4.34</course>
  <speed>0.01</speed>
  <fix>3d</fix>
</trkpt>
<trkpt lat="-27.274439" lon="151.2900637">
  <ele>392.19</ele>
  <time>2026-09-01T19:54:03Z</time>
  <course>8.35</course>
  <speed>0.0</speed>
  <fix>3d</fix>
</trkpt>
<trkpt lat="-27.274439" lon="151.2900636">
  <ele>391.64</ele>
  <time>2026-09-01T19:54:03Z</time>
  <course>284.9</course>
  <speed>0.02</speed>
  <fix>3d</fix>
</trkpt>
<trkpt lat="-27.274439" lon="151.2900637">
  <ele>392.2</ele>
  <time>2026-09-01T19:54:03Z</time>
  <course>6.51</course>
  <speed>0.0</speed>
  <fix>3d</fix>
</trkpt>
<trkpt lat="-27.274439" lon="151.2900637">
  <ele>392.45</ele>
  <time>2026-09-01T19:54:03Z</time>
  <course>13.69</course>
  <speed>0.0</speed>
  <fix>3d</fix>
</trkpt>
<trkpt lat="-27.274439" lon="151.2900636">
  <ele>391.64</ele>
  <time>2026-09-01T19:54:03Z</time>
  <course>284.9</course>
  <speed>0.02</speed>
  <fix>3d</fix>
</trkpt>
<trkpt lat="-27.274439" lon="151.2900637">
  <ele>392.46</ele>
  <time>2026-09-01T19:54:03Z</time>
  <course>12.61</course>
  <speed>0.0</speed>
  <fix>3d</fix>
</trkpt>
<trkpt lat="-27.274439" lon="151.2900637">
  <ele>392.7</ele>
  <time>2026-09-01T19:54:03Z</time>
  <course>17.05</course>
  <speed>0.01</speed>
  <fix>3d</fix>
</trkpt>
<trkpt lat="-27.274439" lon="151.2900635">
  <ele>392.15</ele>
  <time>2026-09-01T19:54:03Z</time>
  <course>279.99</course>
  <speed>0.02</speed>
  <fix>3d</fix>
</trkpt>
<trkpt lat="-27.274439" lon="151.2900637">
  <ele>392.71</ele>
  <time>2026-09-01T19:54:03Z</time>
  <course>20.33</course>
  <speed>0.01</speed>
  <fix>3d</fix>
</trkpt>
<trkpt lat="-27.274439" lon="151.2900637">
  <ele>392.96</ele>
  <time>2026-09-01T19:54:03Z</time>
  <course>10.24</course>
  <speed>0.01</speed>
  <fix>3d</fix>
</trkpt>
<trkpt lat="-27.274439" lon="151.2900635">
  <ele>392.15</ele>
  <time>2026-09-01T19:54:03Z</time>
  <course>279.99</course>
  <speed>0.02</speed>
  <fix>3d</fix>
</trkpt>
<trkpt lat="-27.274439" lon="151.2900637">
  <ele>392.97</ele>
  <time>2026-09-01T19:54:03Z</time>
  <course>19.6</course>
  <speed>0.01</speed>
  <fix>3d</fix>
</trkpt>
<trkpt lat="-27.274439" lon="151.2900636">
  <ele>393.22</ele>
  <time>2026-09-01T19:54:03Z</time>
  <course>345.0</course>
  <speed>0.01</speed>
  <fix>3d</fix>
</trkpt>
<trkpt lat="-27.274439" lon="151.2900635">
  <ele>392.66</ele>
  <time>2026-09-01T19:54:03Z</time>
  <course>277.51</course>
  <speed>0.01</speed>
  <fix>3d</fix>
</trkpt>
<trkpt lat="-27.274439" lon="151.2900636">
  <ele>393.22</ele>
  <time>2026-09-01T19:54:03Z</time>
  <course>358.63</course>
  <speed>0.01</speed>
  <fix>3d</fix>
</trkpt>
<trkpt lat="-27.274439" lon="151.2900636">
  <ele>393.47</ele>
  <time>2026-09-01T19:54:03Z</time>
  <course>324.52</course>
  <speed>0.01</speed>
  <fix>3d</fix>
</trkpt>
<trkpt lat="-27.274439" lon="151.2900635">
  <ele>392.66</ele>
  <time>2026-09-01T19:54:03Z</time>
  <course>277.51</course>
  <speed>0.01</speed>
  <fix>3d</fix>
</trkpt>
<trkpt lat="-27.274439" lon="151.2900636">
  <ele>393.48</ele>
  <time>2026-09-01T19:54:03Z</time>
  <course>321.67</course>
  <speed>0.01</speed>
  <fix>3d</fix>
</trkpt>
<trkpt lat="-27.274439" lon="151.2900636">
  <ele>393.71</ele>
  <time>2026-09-01T19:54:03Z</time>
  <course>10.99</course>
  <speed>0.01</speed>
  <fix>3d</fix>
</trkpt>
<trkpt lat="-27.274439" lon="151.2900635">
  <ele>393.16</ele>
  <time>2026-09-01T19:54:03Z</time>
  <course>274.75</course>
  <speed>0.01</speed>
  <fix>3d</fix>
</trkpt>
<trkpt lat="-27.274439" lon="151.2900636">
  <ele>393.71</ele>
  <time>2026-09-01T19:54:03Z</time>
  <course>1.77</course>
  <speed>0.01</speed>
  <fix>3d</fix>
</trkpt>
<trkpt lat="-27.274439" lon="151.2900636">
  <ele>393.92</ele>
  <time>2026-09-01T19:54:03Z</time>
  <course>71.74</course>
  <speed>0.01</speed>
  <fix>3d</fix>
</trkpt>
<trkpt lat="-27.274439" lon="151.2900635">
  <ele>393.16</ele>
  <time>2026-09-01T19:54:03Z</time>
  <course>274.75</course>
  <speed>0.01</speed>
  <fix>3d</fix>
</trkpt>
<trkpt lat="-27.274439" lon="151.2900636">
  <ele>393.93</ele>
  <time>2026-09-01T19:54:03Z</time>
  <course>60.91</course>
  <speed>0.01</speed>
  <fix>3d</fix>
</trkpt>
<trkpt lat="-27.274439" lon="151.2900636">
  <ele>394.13</ele>
  <time>2026-09-01T19:54:03Z</time>
  <course>297.72</course>
  <speed>0.0</speed>
  <fix>3d</fix>
</trkpt>
<trkpt lat="-27.274439" lon="151.2900634">
  <ele>393.62</ele>
  <time>2026-09-01T19:54:03Z</time>
  <course>290.13</course>
  <speed>0.01</speed>
  <fix>3d</fix>
</trkpt>
<trkpt lat="-27.274439" lon="151.2900636">
  <ele>394.14</ele>
  <time>2026-09-01T19:54:03Z</time>
  <course>83.16</course>
  <speed>0.0</speed>
  <fix>3d</fix>
</trkpt>
<trkpt lat="-27.274439" lon="151.2900636">
  <ele>394.32</ele>
  <time>2026-09-01T19:54:03Z</time>
  <course>348.04</course>
  <speed>0.0</speed>
  <fix>3d</fix>
</trkpt>
<trkpt lat="-27.274439" lon="151.2900634">
  <ele>393.62</ele>
  <time>2026-09-01T19:54:03Z</time>
  <course>290.13</course>
  <speed>0.01</speed>
  <fix>3d</fix>
</trkpt>
<trkpt lat="-27.274439" lon="151.2900636">
  <ele>394.33</ele>
  <time>2026-09-01T19:54:03Z</time>
  <course>340.91</course>
  <speed>0.0</speed>
  <fix>3d</fix>
</trkpt>
<trkpt lat="-27.274439" lon="151.2900636">
  <ele>394.53</ele>
  <time>2026-09-01T19:54:03Z</time>
  <course>30.02</course>
  <speed>0.0</speed>
  <fix>3d</fix>
</trkpt>
<trkpt lat="-27.274439" lon="151.2900633">
  <ele>394.03</ele>
  <time>2026-09-01T19:54:03Z</time>
  <course>324.22</course>
  <speed>0.02</speed>
  <fix>3d</fix>
</trkpt>
<trkpt lat="-27.274439" lon="151.2900636">
  <ele>394.54</ele>
  <time>2026-09-01T19:54:03Z</time>
  <course>31.7</course>
  <speed>0.0</speed>
  <fix>3d</fix>
</trkpt>
<trkpt lat="-27.274439" lon="151.2900635">
  <ele>394.75</ele>
  <time>2026-09-01T19:54:03Z</time>
  <course>9.56</course>
  <speed>0.0</speed>
  <fix>3d</fix>
</trkpt>
<trkpt lat="-27.274439" lon="151.2900633">
  <ele>394.03</ele>
  <time>2026-09-01T19:54:03Z</time>
  <course>324.22</course>
  <speed>0.02</speed>
  <fix>3d</fix>
</trkpt>
<trkpt lat="-27.274439" lon="151.2900635">
  <ele>394.76</ele>
  <time>2026-09-01T19:54:03Z</time>
  <course>9.21</course>
  <speed>0.0</speed>
  <fix>3d</fix>
</trkpt>
<trkpt lat="-27.274439" lon="151.2900635">
  <ele>394.97</ele>
  <time>2026-09-01T19:54:03Z</time>
  <course>16.13</course>
  <speed>0.01414213562373095</speed>
  <fix>3d</fix>
</trkpt>
<trkpt lat="-27.2744389" lon="151.2900633">
  <ele>394.46</ele>
  <time>2026-09-01T19:54:03Z</time>
  <course>349.62</course>
  <speed>0.02</speed>
  <fix>3d</fix>
</trkpt>
<trkpt lat="-27.274439" lon="151.2900635">
  <ele>394.98</ele>
  <time>2026-09-01T19:54:03Z</time>
  <course>16.2</course>
  <speed>0.01414213562373095</speed>
  <fix>3d</fix>
</trkpt>
<trkpt lat="-27.274439" lon="151.2900635">
  <ele>395.21</ele>
  <time>2026-09-01T19:54:03Z</time>
  <course>14.5</course>
  <speed>0.01414213562373095</speed>
  <fix>3d</fix>
</trkpt>
<trkpt lat="-27.2744389" lon="151.2900633">
  <ele>394.46</ele>
  <time>2026-09-01T19:54:03Z</time>
  <course>349.62</course>
  <speed>0.02</speed>
  <fix>3d</fix>
</trkpt>
<trkpt lat="-27.274439" lon="151.2900635">
  <ele>395.21</ele>
  <time>2026-09-01T19:54:03Z</time>
  <course>14.48</course>
  <speed>0.01414213562373095</speed>
  <fix>3d</fix>
</trkpt>
<trkpt lat="-27.274439" lon="151.2900635">
  <ele>395.45</ele>
  <time>2026-09-01T19:54:03Z</time>
  <course>14.03</course>
  <speed>0.01414213562373095</speed>
  <fix>3d</fix>
</trkpt>
<trkpt lat="-27.2744389" lon="151.2900633">
  <ele>394.93</ele>
  <time>2026-09-01T19:54:03Z</time>
  <course>6.21</course>
  <speed>0.03</speed>
  <fix>3d</fix>
</trkpt>
<trkpt lat="-27.274439" lon="151.2900635">
  <ele>395.46</ele>
  <time>2026-09-01T19:54:03Z</time>
  <course>13.98</course>
  <speed>0.022360679774997897</speed>
  <fix>3d</fix>
</trkpt>
<trkpt lat="-27.274439" lon="151.2900635">
  <ele>395.7</ele>
  <time>2026-09-01T19:54:03Z</time>
  <course>12.53</course>
  <speed>0.02</speed>
  <fix>3d</fix>
</trkpt>
<trkpt lat="-27.2744389" lon="151.2900633">
  <ele>394.93</ele>
  <time>2026-09-01T19:54:03Z</time>
  <course>6.21</course>
  <speed>0.03</speed>
  <fix>3d</fix>
</trkpt>
<trkpt lat="-27.274439" lon="151.2900635">
  <ele>395.71</ele>
  <time>2026-09-01T19:54:03Z</time>
  <course>12.48</course>
  <speed>0.02</speed>
  <fix>3d</fix>
</trkpt>
<trkpt lat="-27.274439" lon="151.2900635">
  <ele>395.95</ele>
  <time>2026-09-01T19:54:03Z</time>
  <course>11.0</course>
  <speed>0.02</speed>
  <fix>3d</fix>
</trkpt>
<trkpt lat="-27.2744388" lon="151.2900633">
  <ele>395.42</ele>
  <time>2026-09-01T19:54:03Z</time>
  <course>20.28</course>
  <speed>0.02</speed>
  <fix>3d</fix>
</trkpt>
<trkpt lat="-27.274439" lon="151.2900635">
  <ele>395.96</ele>
  <time>2026-09-01T19:54:03Z</time>
  <course>10.96</course>
  <speed>0.02</speed>
  <fix>3d</fix>
</trkpt>
<trkpt lat="-27.274439" lon="151.2900635">
  <ele>396.22</ele>
  <time>2026-09-01T19:54:03Z</time>
  <course>9.63</course>
  <speed>0.02</speed>
  <fix>3d</fix>
</trkpt>
<trkpt lat="-27.2744388" lon="151.2900633">
  <ele>395.42</ele>
  <time>2026-09-01T19:54:03Z</time>
  <course>20.28</course>
  <speed>0.02</speed>
  <fix>3d</fix>
</trkpt>
<trkpt lat="-27.274439" lon="151.2900635">
  <ele>396.23</ele>
  <time>2026-09-01T19:54:03Z</time>
  <course>9.57</course>
  <speed>0.02</speed>
  <fix>3d</fix>
</trkpt>
<trkpt lat="-27.274439" lon="151.2900635">
  <ele>396.48</ele>
  <time>2026-09-01T19:54:03Z</time>
  <course>8.74</course>
  <speed>0.02</speed>
  <fix>3d</fix>
</trkpt>
<trkpt lat="-27.2744388" lon="151.2900633">
  <ele>395.94</ele>
  <time>2026-09-01T19:54:03Z</time>
  <course>36.21</course>
  <speed>0.02</speed>
  <fix>3d</fix>
</trkpt>
<trkpt lat="-27.274439" lon="151.2900635">
  <ele>396.49</ele>
  <time>2026-09-01T19:54:03Z</time>
  <course>8.7</course>
  <speed>0.02</speed>
  <fix>3d</fix>
</trkpt>
<trkpt lat="-27.2744389" lon="151.2900635">
  <ele>396.76</ele>
  <time>2026-09-01T19:54:03Z</time>
  <course>7.84</course>
  <speed>0.02</speed>
  <fix>3d</fix>
</trkpt>
<trkpt lat="-27.2744388" lon="151.2900633">
  <ele>395.94</ele>
  <time>2026-09-01T19:54:03Z</time>
  <course>36.21</course>
  <speed>0.02</speed>
  <fix>3d</fix>
</trkpt>
<trkpt lat="-27.2744389" lon="151.2900635">
  <ele>396.76</ele>
  <time>2026-09-01T19:54:03Z</time>
  <course>7.87</course>
  <speed>0.02</speed>
  <fix>3d</fix>
</trkpt>
<trkpt lat="-27.2744389" lon="151.2900635">
  <ele>397.03</ele>
  <time>2026-09-01T19:54:03Z</time>
  <course>7.09</course>
  <speed>0.022360679774997897</speed>
  <fix>3d</fix>
</trkpt>
<trkpt lat="-27.2744387" lon="151.2900633">
  <ele>396.47</ele>
  <time>2026-09-01T19:54:03Z</time>
  <course>55.43</course>
  <speed>0.02</speed>
  <fix>3d</fix>
</trkpt>
<trkpt lat="-27.2744389" lon="151.2900635">
  <ele>397.04</ele>
  <time>2026-09-01T19:54:03Z</time>
  <course>7.42</course>
  <speed>0.022360679774997897</speed>
  <fix>3d</fix>
</trkpt>
<trkpt lat="-27.2744389" lon="151.2900635">
  <ele>397.3</ele>
  <time>2026-09-01T19:54:03Z</time>
  <course>6.02</course>
  <speed>0.022360679774997897</speed>
  <fix>3d</fix>
</trkpt>
<trkpt lat="-27.2744387" lon="151.2900633">
  <ele>396.47</ele>
  <time>2026-09-01T19:54:03Z</time>
  <course>55.43</course>
  <speed>0.02</speed>
  <fix>3d</fix>
</trkpt>
<trkpt lat="-27.2744389" lon="151.2900635">
  <ele>397.31</ele>
  <time>2026-09-01T19:54:03Z</time>
  <course>6.65</course>
  <speed>0.022360679774997897</speed>
  <fix>3d</fix>
</trkpt>
<trkpt lat="-27.2744389" lon="151.2900635">
  <ele>397.57</ele>
  <time>2026-09-01T19:54:03Z</time>
  <course>184.78</course>
  <speed>0.0282842712474619</speed>
  <fix>3d</fix>
</trkpt>
<trkpt lat="-27.2744387" lon="151.2900633">
  <ele>397.02</ele>
  <time>2026-09-01T19:54:03Z</time>
  <course>74.38</course>
  <speed>0.02</speed>
  <fix>3d</fix>
</trkpt>
<trkpt lat="-27.2744389" lon="151.2900635">
  <ele>397.59</ele>
  <time>2026-09-01T19:54:03Z</time>
  <course>185.39</course>
  <speed>0.0282842712474619</speed>
  <fix>3d</fix>
</trkpt>
<trkpt lat="-27.2744389" lon="151.2900635">
  <ele>397.83</ele>
  <time>2026-09-01T19:54:03Z</time>
  <course>4.6</course>
  <speed>0.022360679774997897</speed>
  <fix>3d</fix>
</trkpt>
<trkpt lat="-27.2744387" lon="151.2900633">
  <ele>397.02</ele>
  <time>2026-09-01T19:54:03Z</time>
  <course>74.38</course>
  <speed>0.02</speed>
  <fix>3d</fix>
</trkpt>
<trkpt lat="-27.2744389" lon="151.2900635">
  <ele>397.84</ele>
  <time>2026-09-01T19:54:03Z</time>
  <course>5.42</course>
  <speed>0.022360679774997897</speed>
  <fix>3d</fix>
</trkpt>
<trkpt lat="-27.2744389" lon="151.2900635">
  <ele>398.08</ele>
  <time>2026-09-01T19:54:03Z</time>
  <course>3.1</course>
  <speed>0.0282842712474619</speed>
  <fix>3d</fix>
</trkpt>
<trkpt lat="-27.2744387" lon="151.2900634">
  <ele>397.54</ele>
  <time>2026-09-01T19:54:03Z</time>
  <course>92.05</course>
  <speed>0.02</speed>
  <fix>3d</fix>
</trkpt>
<trkpt lat="-27.2744389" lon="151.2900635">
  <ele>398.08</ele>
  <time>2026-09-01T19:54:03Z</time>
  <course>3.32</course>
  <speed>0.0282842712474619</speed>
  <fix>3d</fix>
</trkpt>
<trkpt lat="-27.2744389" lon="151.2900635">
  <ele>398.32</ele>
  <time>2026-09-01T19:54:03Z</time>
  <course>4.72</course>
  <speed>0.0282842712474619</speed>
  <fix>3d</fix>
</trkpt>
<trkpt lat="-27.2744387" lon="151.2900634">
  <ele>397.54</ele>
  <time>2026-09-01T19:54:03Z</time>
  <course>92.05</course>
  <speed>0.02</speed>
  <fix>3d</fix>
</trkpt>
<trkpt lat="-27.2744389" lon="151.2900635">
  <ele>398.33</ele>
  <time>2026-09-01T19:54:03Z</time>
  <course>7.03</course>
  <speed>0.0282842712474619</speed>
  <fix>3d</fix>
</trkpt>
<trkpt lat="-27.2744389" lon="151.2900636">
  <ele>398.57</ele>
  <time>2026-09-01T19:54:03Z</time>
  <course>357.45</course>
  <speed>0.0316227766016838</speed>
  <fix>3d</fix>
</trkpt>
<trkpt lat="-27.2744387" lon="151.2900635">
  <ele>398.04</ele>
  <time>2026-09-01T19:54:03Z</time>
  <course>92.88</course>
  <speed>0.02</speed>
  <fix>3d</fix>
</trkpt>
<trkpt lat="-27.2744389" lon="151.2900636">
  <ele>398.58</ele>
  <time>2026-09-01T19:54:03Z</time>
  <course>358.66</course>
  <speed>0.0316227766016838</speed>
  <fix>3d</fix>
</trkpt>
<trkpt lat="-27.2744389" lon="151.2900636">
  <ele>398.82</ele>
  <time>2026-09-01T19:54:03Z</time>
  <course>351.84</course>
  <speed>0.0316227766016838</speed>
  <fix>3d</fix>
</trkpt>
<trkpt lat="-27.2744387" lon="151.2900635">
  <ele>398.04</ele>
  <time>2026-09-01T19:54:03Z</time>
  <course>92.88</course>
  <speed>0.02</speed>
  <fix>3d</fix>
</trkpt>
<trkpt lat="-27.2744389" lon="151.2900636">
  <ele>398.83</ele>
  <time>2026-09-01T19:54:03Z</time>
  <course>350.89</course>
  <speed>0.0316227766016838</speed>
  <fix>3d</fix>
</trkpt>
<trkpt lat="-27.2744389" lon="151.2900636">
  <ele>399.07</ele>
  <time>2026-09-01T19:54:03Z</time>
  <course>354.21</course>
  <speed>0.0316227766016838</speed>
  <fix>3d</fix>
</trkpt>
<trkpt lat="-27.2744387" lon="151.2900635">
  <ele>398.54</ele>
  <time>2026-09-01T19:54:03Z</time>
  <course>81.76</course>
  <speed>0.02</speed>
  <fix>3d</fix>
</trkpt>
<trkpt lat="-27.2744389" lon="151.2900636">
  <ele>399.07</ele>
  <time>2026-09-01T19:54:03Z</time>
  <course>348.37</course>
  <speed>0.0316227766016838</speed>
  <fix>3d</fix>
</trkpt>
<trkpt lat="-27.2744389" lon="151.2900636">
  <ele>399.32</ele>
  <time>2026-09-01T19:54:03Z</time>
  <course>19.97</course>
  <speed>0.0316227766016838</speed>
  <fix>3d</fix>
</trkpt>
<trkpt lat="-27.2744387" lon="151.2900635">
  <ele>398.54</ele>
  <time>2026-09-01T19:54:03Z</time>
  <course>81.76</course>
  <speed>0.02</speed>
  <fix>3d</fix>
</trkpt>
<trkpt lat="-27.2744389" lon="151.2900636">
  <ele>399.32</ele>
  <time>2026-09-01T19:54:03Z</time>
  <course>7.71</course>
  <speed>0.0316227766016838</speed>
  <fix>3d</fix>
</trkpt>
<trkpt lat="-27.2744389" lon="151.2900636">
  <ele>399.57</ele>
  <time>2026-09-01T19:54:03Z</time>
  <course>58.56</course>
  <speed>0.0316227766016838</speed>
  <fix>3d</fix>
</trkpt>
<trkpt lat="-27.2744387" lon="151.2900636">
  <ele>399.04</ele>
  <time>2026-09-01T19:54:03Z</time>
  <course>76.92</course>
  <speed>0.02</speed>
  <fix>3d</fix>
</trkpt>
<trkpt lat="-27.2744389" lon="151.2900636">
  <ele>399.57</ele>
  <time>2026-09-01T19:54:03Z</time>
  <course>57.09</course>
  <speed>0.0316227766016838</speed>
  <fix>3d</fix>
</trkpt>
<trkpt lat="-27.2744389" lon="151.2900637">
  <ele>399.81</ele>
  <time>2026-09-01T19:54:03Z</time>
  <course>339.8</course>
  <speed>0.0316227766016838</speed>
  <fix>3d</fix>
</trkpt>
<trkpt lat="-27.2744387" lon="151.2900636">
  <ele>399.04</ele>
  <time>2026-09-01T19:54:03Z</time>
  <course>76.92</course>
  <speed>0.02</speed>
  <fix>3d</fix>
</trkpt>
<trkpt lat="-27.2744389" lon="151.2900637">
  <ele>399.82</ele>
  <time>2026-09-01T19:54:03Z</time>
  <course>4.98</course>
  <speed>0.0316227766016838</speed>
  <fix>3d</fix>
</trkpt>
<trkpt lat="-27.2744389" lon="151.2900637">
  <ele>400.05</ele>
  <time>2026-09-01T19:54:03Z</time>
  <course>311.79</course>
  <speed>0.0316227766016838</speed>
  <fix>3d</fix>
</trkpt>
<trkpt lat="-27.2744387" lon="151.2900636">
  <ele>399.53</ele>
  <time>2026-09-01T19:54:03Z</time>
  <course>75.4</course>
  <speed>0.02</speed>
  <fix>3d</fix>
</trkpt>
<trkpt lat="-27.2744389" lon="151.2900637">
  <ele>400.05</ele>
  <time>2026-09-01T19:54:03Z</time>
  <course>307.28</course>
  <speed>0.0316227766016838</speed>
  <fix>3d</fix>
</trkpt>
<trkpt lat="-27.2744389" lon="151.2900637">
  <ele>400.28</ele>
  <time>2026-09-01T19:54:03Z</time>
  <course>50.16</course>
  <speed>0.03</speed>
  <fix>3d</fix>
</trkpt>
<trkpt lat="-27.2744387" lon="151.2900636">
  <ele>399.53</ele>
  <time>2026-09-01T19:54:03Z</time>
  <course>75.4</course>
  <speed>0.02</speed>
  <fix>3d</fix>
</trkpt>
<trkpt lat="-27.2744389" lon="151.2900637">
  <ele>400.29</ele>
  <time>2026-09-01T19:54:03Z</time>
  <course>39.54</course>
  <speed>0.03</speed>
  <fix>3d</fix>
</trkpt>
<trkpt lat="-27.2744389" lon="151.2900637">
  <ele>400.51</ele>
  <time>2026-09-01T19:54:03Z</time>
  <course>340.05</course>
  <speed>0.02</speed>
  <fix>3d</fix>
</trkpt>
<trkpt lat="-27.2744387" lon="151.2900637">
  <ele>400.0</ele>
  <time>2026-09-01T19:54:03Z</time>
  <course>68.4</course>
  <speed>0.02</speed>
  <fix>3d</fix>
</trkpt>
<trkpt lat="-27.2744389" lon="151.2900637">
  <ele>400.52</ele>
  <time>2026-09-01T19:54:03Z</time>
  <course>347.33</course>
  <speed>0.02</speed>
  <fix>3d</fix>
</trkpt>
<trkpt lat="-27.2744389" lon="151.2900637">
  <ele>400.75</ele>
  <time>2026-09-01T19:54:03Z</time>
  <course>353.71</course>
  <speed>0.02</speed>
  <fix>3d</fix>
</trkpt>
<trkpt lat="-27.2744387" lon="151.2900637">
  <ele>400.0</ele>
  <time>2026-09-01T19:54:03Z</time>
  <course>68.4</course>
  <speed>0.02</speed>
  <fix>3d</fix>
</trkpt>
<trkpt lat="-27.2744389" lon="151.2900637">
  <ele>400.76</ele>
  <time>2026-09-01T19:54:03Z</time>
  <course>351.9</course>
  <speed>0.02</speed>
  <fix>3d</fix>
</trkpt>
<trkpt lat="-27.2744389" lon="151.2900638">
  <ele>401.0</ele>
  <time>2026-09-01T19:54:03Z</time>
  <course>348.19</course>
  <speed>0.01</speed>
  <fix>3d</fix>
</trkpt>
<trkpt lat="-27.2744387" lon="151.2900637">
  <ele>400.47</ele>
  <time>2026-09-01T19:54:03Z</time>
  <course>52.12</course>
  <speed>0.02</speed>
  <fix>3d</fix>
</trkpt>
<trkpt lat="-27.2744389" lon="151.2900638">
  <ele>401.01</ele>
  <time>2026-09-01T19:54:03Z</time>
  <course>348.78</course>
  <speed>0.01</speed>
  <fix>3d</fix>
</trkpt>
<trkpt lat="-27.2744388" lon="151.2900638">
  <ele>401.24</ele>
  <time>2026-09-01T19:54:03Z</time>
  <course>349.68</course>
  <speed>0.01</speed>
  <fix>3d</fix>
</trkpt>
<trkpt lat="-27.2744387" lon="151.2900637">
  <ele>400.47</ele>
  <time>2026-09-01T19:54:03Z</time>
  <course>52.12</course>
  <speed>0.02</speed>
  <fix>3d</fix>
</trkpt>
<trkpt lat="-27.2744388" lon="151.2900638">
  <ele>401.25</ele>
  <time>2026-09-01T19:54:03Z</time>
  <course>350.17</course>
  <speed>0.01</speed>
  <fix>3d</fix>
</trkpt>
<trkpt lat="-27.2744388" lon="151.2900638">
  <ele>401.48</ele>
  <time>2026-09-01T19:54:03Z</time>
  <course>354.68</course>
  <speed>0.0</speed>
  <fix>3d</fix>
</trkpt>
<trkpt lat="-27.2744386" lon="151.2900637">
  <ele>400.96</ele>
  <time>2026-09-01T19:54:03Z</time>
  <course>31.24</course>
  <speed>0.01</speed>
  <fix>3d</fix>
</trkpt>
<trkpt lat="-27.2744388" lon="151.2900638">
  <ele>401.49</ele>
  <time>2026-09-01T19:54:03Z</time>
  <course>355.2</course>
  <speed>0.0</speed>
  <fix>3d</fix>
</trkpt>
<trkpt lat="-27.2744388" lon="151.2900638">
  <ele>401.71</ele>
  <time>2026-09-01T19:54:03Z</time>
  <course>357.21</course>
  <speed>0.0</speed>
  <fix>3d</fix>
</trkpt>
<trkpt lat="-27.2744386" lon="151.2900637">
  <ele>400.96</ele>
  <time>2026-09-01T19:54:03Z</time>
  <course>31.24</course>
  <speed>0.01</speed>
  <fix>3d</fix>
</trkpt>
<trkpt lat="-27.2744388" lon="151.2900638">
  <ele>401.72</ele>
  <time>2026-09-01T19:54:03Z</time>
  <course>358.73</course>
  <speed>0.0</speed>
  <fix>3d</fix>
</trkpt>
<trkpt lat="-27.2744388" lon="151.2900638">
  <ele>401.93</ele>
  <time>2026-09-01T19:54:03Z</time>
  <course>199.15</course>
  <speed>0.0</speed>
  <fix>3d</fix>
</trkpt>
<trkpt lat="-27.2744386" lon="151.2900637">
  <ele>401.43</ele>
  <time>2026-09-01T19:54:03Z</time>
  <course>1.76</course>
  <speed>0.01</speed>
  <fix>3d</fix>
</trkpt>
<trkpt lat="-27.2744388" lon="151.2900638">
  <ele>401.94</ele>
  <time>2026-09-01T19:54:03Z</time>
  <course>206.55</course>
  <speed>0.0</speed>
  <fix>3d</fix>
</trkpt>
<trkpt lat="-27.2744388" lon="151.2900638">
  <ele>402.14</ele>
  <time>2026-09-01T19:54:03Z</time>
  <course>355.73</course>
  <speed>0.0</speed>
  <fix>3d</fix>
</trkpt>
<trkpt lat="-27.2744386" lon="151.2900637">
  <ele>401.43</ele>
  <time>2026-09-01T19:54:03Z</time>
  <course>1.76</course>
  <speed>0.01</speed>
  <fix>3d</fix>
</trkpt>
<trkpt lat="-27.2744388" lon="151.2900638">
  <ele>402.15</ele>
  <time>2026-09-01T19:54:03Z</time>
  <course>351.04</course>
  <speed>0.0</speed>
  <fix>3d</fix>
</trkpt>
<trkpt lat="-27.2744388" lon="151.2900638">
  <ele>402.33</ele>
  <time>2026-09-01T19:54:03Z</time>
  <course>358.81</course>
  <speed>0.0</speed>
  <fix>3d</fix>
</trkpt>
<trkpt lat="-27.2744386" lon="151.2900637">
  <ele>401.86</ele>
  <time>2026-09-01T19:54:03Z</time>
  <course>346.41</course>
  <speed>0.01</speed>
  <fix>3d</fix>
</trkpt>
<trkpt lat="-27.2744388" lon="151.2900638">
  <ele>402.51</ele>
  <time>2026-09-01T19:54:03Z</time>
  <course>0.3</course>
  <speed>0.0</speed>
  <fix>3d</fix>
</trkpt>
<trkpt lat="-27.2744386" lon="151.2900637">
  <ele>401.86</ele>
  <time>2026-09-01T19:54:03Z</time>
  <course>346.41</course>
  <speed>0.01</speed>
  <fix>3d</fix>
</trkpt>
<trkpt lat="-27.2744387" lon="151.2900638">
  <ele>402.66</ele>
  <time>2026-09-01T19:54:03Z</time>
  <course>2.21</course>
  <speed>0.01</speed>
  <fix>3d</fix>
</trkpt>
<trkpt lat="-27.2744386" lon="151.2900637">
  <ele>402.22</ele>
  <time>2026-09-01T19:54:03Z</time>
  <course>349.18</course>
  <speed>0.02</speed>
  <fix>3d</fix>
</trkpt>
<trkpt lat="-27.2744387" lon="151.2900638">
  <ele>402.8</ele>
  <time>2026-09-01T19:54:03Z</time>
  <course>3.34</course>
  <speed>0.03</speed>
  <fix>3d</fix>
</trkpt>
<trkpt lat="-27.2744386" lon="151.2900637">
  <ele>402.22</ele>
  <time>2026-09-01T19:54:03Z</time>
  <course>349.18</course>
  <speed>0.02</speed>
  <fix>3d</fix>
</trkpt>
<trkpt lat="-27.2744386" lon="151.2900638">
  <ele>402.94</ele>
  <time>2026-09-01T19:54:03Z</time>
  <course>3.86</course>
  <speed>0.06</speed>
  <fix>3d</fix>
</trkpt>
<trkpt lat="-27.2744385" lon="151.2900637">
  <ele>402.52</ele>
  <time>2026-09-01T19:54:03Z</time>
  <course>356.51</course>
  <speed>0.05</speed>
  <fix>3d</fix>
</trkpt>
<trkpt lat="-27.2744385" lon="151.2900638">
  <ele>403.07</ele>
  <time>2026-09-01T19:54:03Z</time>
  <course>3.97</course>
  <speed>0.12041594578792296</speed>
  <fix>3d</fix>
</trkpt>
<trkpt lat="-27.2744385" lon="151.2900637">
  <ele>402.52</ele>
  <time>2026-09-01T19:54:03Z</time>
  <course>356.51</course>
  <speed>0.05</speed>
  <fix>3d</fix>
</trkpt>
<trkpt lat="-27.2744384" lon="151.2900638">
  <ele>403.22</ele>
  <time>2026-09-01T19:54:03Z</time>
  <course>3.83</course>
  <speed>0.2009975124224178</speed>
  <fix>3d</fix>
</trkpt>
<trkpt lat="-27.2744383" lon="151.2900637">
  <ele>402.79</ele>
  <time>2026-09-01T19:54:03Z</time>
  <course>359.97</course>
  <speed>0.14</speed>
  <fix>3d</fix>
</trkpt>
<trkpt lat="-27.2744381" lon="151.2900638">
  <ele>403.38</ele>
  <time>2026-09-01T19:54:03Z</time>
  <course>3.33</course>
  <speed>0.32140317359976395</speed>
  <fix>3d</fix>
</trkpt>
<trkpt lat="-27.2744383" lon="151.2900637">
  <ele>402.79</ele>
  <time>2026-09-01T19:54:03Z</time>
  <course>359.97</course>
  <speed>0.14</speed>
  <fix>3d</fix>
</trkpt>
<trkpt lat="-27.2744378" lon="151.2900638">
  <ele>403.57</ele>
  <time>2026-09-01T19:54:03Z</time>
  <course>2.62</course>
  <speed>0.4617358552246078</speed>
  <fix>3d</fix>
</trkpt>
<trkpt lat="-27.2744379" lon="151.2900637">
  <ele>403.1</ele>
  <time>2026-09-01T19:54:03Z</time>
  <course>0.85</course>
  <speed>0.34</speed>
  <fix>3d</fix>
</trkpt>
<trkpt lat="-27.2744372" lon="151.2900638">
  <ele>403.79</ele>
  <time>2026-09-01T19:54:03Z</time>
  <course>2.39</course>
  <speed>0.6419501538281613</speed>
  <fix>3d</fix>
</trkpt>
<trkpt lat="-27.2744379" lon="151.2900637">
  <ele>403.1</ele>
  <time>2026-09-01T19:54:03Z</time>
  <course>0.85</course>
  <speed>0.34</speed>
  <fix>3d</fix>
</trkpt>
<trkpt lat="-27.2744365" lon="151.2900639">
  <ele>404.04</ele>
  <time>2026-09-01T19:54:03Z</time>
  <course>3.88</course>
  <speed>0.8628441342444185</speed>
  <fix>3d</fix>
</trkpt>
<trkpt lat="-27.274437" lon="151.2900637">
  <ele>403.51</ele>
  <time>2026-09-01T19:54:03Z</time>
  <course>0.9</course>
  <speed>0.66</speed>
  <fix>3d</fix>
</trkpt>
<trkpt lat="-27.2744356" lon="151.2900639">
  <ele>404.34</ele>
  <time>2026-09-01T19:54:03Z</time>
  <course>9.1</course>
  <speed>1.1236102527122116</speed>
  <fix>3d</fix>
</trkpt>
<trkpt lat="-27.274437" lon="151.2900637">
  <ele>403.51</ele>
  <time>2026-09-01T19:54:03Z</time>
  <course>0.9</course>
  <speed>0.66</speed>
  <fix>3d</fix>
</trkpt>
<trkpt lat="-27.2744345" lon="151.290064">
  <ele>404.69</ele>
  <time>2026-09-01T19:54:03Z</time>
  <course>6.5</course>
  <speed>1.4135416513141734</speed>
  <fix>3d</fix>
</trkpt>
<trkpt lat="-27.2744355" lon="151.2900637">
  <ele>404.06</ele>
  <time>2026-09-01T19:54:03Z</time>
  <course>0.61</course>
  <speed>1.12</speed>
  <fix>3d</fix>
</trkpt>
<trkpt lat="-27.274433" lon="151.2900641">
  <ele>405.09</ele>
  <time>2026-09-01T19:54:03Z</time>
  <course>358.98</course>
  <speed>1.7241809649801845</speed>
  <fix>3d</fix>
</trkpt>
<trkpt lat="-27.2744355" lon="151.2900637">
  <ele>404.06</ele>
  <time>2026-09-01T19:54:03Z</time>
  <course>0.61</course>
  <speed>1.12</speed>
  <fix>3d</fix>
</trkpt>
<trkpt lat="-27.2744314" lon="151.2900642">
  <ele>405.54</ele>
  <time>2026-09-01T19:54:03Z</time>
  <course>3.65</course>
  <speed>2.044798278559526</speed>
  <fix>3d</fix>
</trkpt>
<trkpt lat="-27.2744329" lon="151.2900638">
  <ele>404.8</ele>
  <time>2026-09-01T19:54:03Z</time>
  <course>0.53</course>
  <speed>1.71</speed>
  <fix>3d</fix>
</trkpt>
<trkpt lat="-27.2744294" lon="151.2900643">
  <ele>406.04</ele>
  <time>2026-09-01T19:54:03Z</time>
  <course>4.16</course>
  <speed>2.3747420912595962</speed>
  <fix>3d</fix>
</trkpt>
<trkpt lat="-27.2744329" lon="151.2900638">
  <ele>404.8</ele>
  <time>2026-09-01T19:54:03Z</time>
  <course>0.53</course>
  <speed>1.71</speed>
  <fix>3d</fix>
</trkpt>
<trkpt lat="-27.2744271" lon="151.2900644">
  <ele>406.58</ele>
  <time>2026-09-01T19:54:03Z</time>
  <course>3.63</course>
  <speed>2.7346846253270227</speed>
  <fix>3d</fix>
</trkpt>
<trkpt lat="-27.2744292" lon="151.2900639">
  <ele>405.75</ele>
  <time>2026-09-01T19:54:03Z</time>
  <course>0.51</course>
  <speed>2.37</speed>
  <fix>3d</fix>
</trkpt>
<trkpt lat="-27.2744244" lon="151.2900644">
  <ele>407.18</ele>
  <time>2026-09-01T19:54:03Z</time>
  <course>3.49</course>
  <speed>3.124627977855924</speed>
  <fix>3d</fix>
</trkpt>
<trkpt lat="-27.2744292" lon="151.2900639">
  <ele>405.75</ele>
  <time>2026-09-01T19:54:03Z</time>
  <course>0.51</course>
  <speed>2.37</speed>
  <fix>3d</fix>
</trkpt>
<trkpt lat="-27.2744214" lon="151.2900645">
  <ele>407.82</ele>
  <time>2026-09-01T19:54:03Z</time>
  <course>3.43</course>
  <speed>3.5251241112902676</speed>
  <fix>3d</fix>
</trkpt>
<trkpt lat="-27.2744243" lon="151.2900639">
  <ele>406.88</ele>
  <time>2026-09-01T19:54:03Z</time>
  <course>0.64</course>
  <speed>3.11</speed>
  <fix>3d</fix>
</trkpt>
<trkpt lat="-27.2744181" lon="151.2900646">
  <ele>408.5</ele>
  <time>2026-09-01T19:54:03Z</time>
  <course>3.35</course>
  <speed>3.935085767807355</speed>
  <fix>3d</fix>
</trkpt>
<trkpt lat="-27.2744243" lon="151.2900639">
  <ele>406.88</ele>
  <time>2026-09-01T19:54:03Z</time>
  <course>0.64</course>
  <speed>3.11</speed>
  <fix>3d</fix>
</trkpt>
<trkpt lat="-27.2744144" lon="151.2900647">
  <ele>409.22</ele>
  <time>2026-09-01T19:54:03Z</time>
  <course>3.36</course>
  <speed>4.365546930225353</speed>
  <fix>3d</fix>
</trkpt>
<trkpt lat="-27.274418" lon="151.290064">
  <ele>408.19</ele>
  <time>2026-09-01T19:54:03Z</time>
  <course>0.98</course>
  <speed>3.93</speed>
  <fix>3d</fix>
</trkpt>
<trkpt lat="-27.2744103" lon="151.2900648">
  <ele>409.98</ele>
  <time>2026-09-01T19:54:03Z</time>
  <course>3.34</course>
  <speed>4.8154958207852285</speed>
  <fix>3d</fix>
</trkpt>
<trkpt lat="-27.274418" lon="151.290064">
  <ele>408.19</ele>
  <time>2026-09-01T19:54:03Z</time>
  <course>0.98</course>
  <speed>3.93</speed>
  <fix>3d</fix>
</trkpt>
<trkpt lat="-27.2744057" lon="151.2900649">
  <ele>410.78</ele>
  <time>2026-09-01T19:54:03Z</time>
  <course>3.38</course>
  <speed>5.2859152471450015</speed>
  <fix>3d</fix>
</trkpt>
<trkpt lat="-27.2744101" lon="151.2900642">
  <ele>409.66</ele>
  <time>2026-09-01T19:54:03Z</time>
  <course>1.36</course>
  <speed>4.81</speed>
  <fix>3d</fix>
</trkpt>
<trkpt lat="-27.2744008" lon="151.290065">
  <ele>411.6</ele>
  <time>2026-09-01T19:54:03Z</time>
  <course>3.41</course>
  <speed>5.7763137033925025</speed>
  <fix>3d</fix>
</trkpt>
<trkpt lat="-27.2744101" lon="151.2900642">
  <ele>409.66</ele>
  <time>2026-09-01T19:54:03Z</time>
  <course>1.36</course>
  <speed>4.81</speed>
  <fix>3d</fix>
</trkpt>
<trkpt lat="-27.2743954" lon="151.2900651">
  <ele>412.45</ele>
  <time>2026-09-01T19:54:03Z</time>
  <course>3.49</course>
  <speed>6.287161521704369</speed>
  <fix>3d</fix>
</trkpt>
<trkpt lat="-27.2744006" lon="151.2900644">
  <ele>411.27</ele>
  <time>2026-09-01T19:54:03Z</time>
  <course>1.76</course>
  <speed>5.77</speed>
  <fix>3d</fix>
</trkpt>
<trkpt lat="-27.2743895" lon="151.2900653">
  <ele>413.32</ele>
  <time>2026-09-01T19:54:03Z</time>
  <course>3.53</course>
  <speed>6.837492230342934</speed>
  <fix>3d</fix>
</trkpt>
<trkpt lat="-27.2744006" lon="151.2900644">
  <ele>411.27</ele>
  <time>2026-09-01T19:54:03Z</time>
  <course>1.76</course>
  <speed>5.77</speed>
  <fix>3d</fix>
</trkpt>
<trkpt lat="-27.2743832" lon="151.2900655">
  <ele>414.23</ele>
  <time>2026-09-01T19:54:03Z</time>
  <course>3.59</course>
  <speed>7.398763410192273</speed>
  <fix>3d</fix>
</trkpt>
<trkpt lat="-27.2743893" lon="151.2900649">
  <ele>412.97</ele>
  <time>2026-09-01T19:54:03Z</time>
  <course>2.15</course>
  <speed>6.83</speed>
  <fix>3d</fix>
</trkpt>
<trkpt lat="-27.2743763" lon="151.2900658">
  <ele>415.15</ele>
  <time>2026-09-01T19:54:03Z</time>
  <course>3.61</course>
  <speed>7.9900187734447785</speed>
  <fix>3d</fix>
</trkpt>
<trkpt lat="-27.2743893" lon="151.2900649">
  <ele>412.97</ele>
  <time>2026-09-01T19:54:03Z</time>
  <course>2.15</course>
  <speed>6.83</speed>
  <fix>3d</fix>
</trkpt>
<trkpt lat="-27.2743688" lon="151.2900661">
  <ele>416.1</ele>
  <time>2026-09-01T19:54:03Z</time>
  <course>3.64</course>
  <speed>8.611248457686028</speed>
  <fix>3d</fix>
</trkpt>
<trkpt lat="-27.274376" lon="151.2900655">
  <ele>414.78</ele>
  <time>2026-09-01T19:54:03Z</time>
  <course>2.5</course>
  <speed>7.99</speed>
  <fix>3d</fix>
</trkpt>
<trkpt lat="-27.2743608" lon="151.2900665">
  <ele>417.05</ele>
  <time>2026-09-01T19:54:03Z</time>
  <course>3.52</course>
  <speed>9.152595260361949</speed>
  <fix>3d</fix>
</trkpt>
<trkpt lat="-27.274376" lon="151.2900655">
  <ele>414.78</ele>
  <time>2026-09-01T19:54:03Z</time>
  <course>2.5</course>
  <speed>7.99</speed>
  <fix>3d</fix>
</trkpt>
<trkpt lat="-27.2743522" lon="151.2900669">
  <ele>417.94</ele>
  <time>2026-09-01T19:54:03Z</time>
  <course>3.33</course>
  <speed>10.003524378937655</speed>
  <fix>3d</fix>
</trkpt>
<trkpt lat="-27.2743606" lon="151.2900663">
  <ele>416.62</ele>
  <time>2026-09-01T19:54:03Z</time>
  <course>2.76</course>
  <speed>9.28</speed>
  <fix>3d</fix>
</trkpt>
<trkpt lat="-27.2743427" lon="151.2900674">
  <ele>418.7</ele>
  <time>2026-09-01T19:54:03Z</time>
  <course>3.16</course>
  <speed>10.964310283825425</speed>
  <fix>3d</fix>
</trkpt>
<trkpt lat="-27.2743606" lon="151.2900663">
  <ele>416.62</ele>
  <time>2026-09-01T19:54:03Z</time>
  <course>2.76</course>
  <speed>9.28</speed>
  <fix>3d</fix>
</trkpt>
<trkpt lat="-27.2743325" lon="151.290068">
  <ele>419.3</ele>
  <time>2026-09-01T19:54:03Z</time>
  <course>3.08</course>
  <speed>11.734841285675746</speed>
  <fix>3d</fix>
</trkpt>
<trkpt lat="-27.2743426" lon="151.2900673">
  <ele>418.22</ele>
  <time>2026-09-01T19:54:03Z</time>
  <course>2.82</course>
  <speed>10.84</speed>
  <fix>3d</fix>
</trkpt>
<trkpt lat="-27.2743217" lon="151.2900685">
  <ele>419.78</ele>
  <time>2026-09-01T19:54:03Z</time>
  <course>3.04</course>
  <speed>12.31511672701481</speed>
  <fix>3d</fix>
</trkpt>
<trkpt lat="-27.2743426" lon="151.2900673">
  <ele>418.22</ele>
  <time>2026-09-01T19:54:03Z</time>
  <course>2.82</course>
  <speed>10.84</speed>
  <fix>3d</fix>
</trkpt>
<trkpt lat="-27.2743105" lon="151.2900691">
  <ele>420.15</ele>
  <time>2026-09-01T19:54:03Z</time>
  <course>3.04</course>
  <speed>12.735591859038198</speed>
  <fix>3d</fix>
</trkpt>
<trkpt lat="-27.2743218" lon="151.2900685">
  <ele>419.32</ele>
  <time>2026-09-01T19:54:03Z</time>
  <course>2.8</course>
  <speed>12.23</speed>
  <fix>3d</fix>
</trkpt>
<trkpt lat="-27.274299" lon="151.2900697">
  <ele>420.47</ele>
  <time>2026-09-01T19:54:03Z</time>
  <course>3.02</course>
  <speed>13.046202512608794</speed>
  <fix>3d</fix>
</trkpt>
<trkpt lat="-27.2743218" lon="151.2900685">
  <ele>419.32</ele>
  <time>2026-09-01T19:54:03Z</time>
  <course>2.8</course>
  <speed>12.23</speed>
  <fix>3d</fix>
</trkpt>
<trkpt lat="-27.2742872" lon="151.2900704">
  <ele>420.74</ele>
  <time>2026-09-01T19:54:03Z</time>
  <course>2.92</course>
  <speed>13.286903326208105</speed>
  <fix>3d</fix>
</trkpt>
<trkpt lat="-27.274299" lon="151.2900697">
  <ele>420.03</ele>
  <time>2026-09-01T19:54:03Z</time>
  <course>2.84</course>
  <speed>13.02</speed>
  <fix>3d</fix>
</trkpt>
<trkpt lat="-27.2742752" lon="151.290071">
  <ele>421.0</ele>
  <time>2026-09-01T19:54:03Z</time>
  <course>2.5</course>
  <speed>13.517621832260287</speed>
  <fix>3d</fix>
</trkpt>
<trkpt lat="-27.274299" lon="151.2900697">
  <ele>420.03</ele>
  <time>2026-09-01T19:54:03Z</time>
  <course>2.84</course>
  <speed>13.02</speed>
  <fix>3d</fix>
</trkpt>
<trkpt lat="-27.274263" lon="151.2900717">
  <ele>421.27</ele>
  <time>2026-09-01T19:54:03Z</time>
  <course>2.07</course>
  <speed>13.78829213499627</speed>
  <fix>3d</fix>
</trkpt>
<trkpt lat="-27.274275" lon="151.290071">
  <ele>420.58</ele>
  <time>2026-09-01T19:54:03Z</time>
  <course>2.93</course>
  <speed>13.56</speed>
  <fix>3d</fix>
</trkpt>
<trkpt lat="-27.2742505" lon="151.2900724">
  <ele>421.55</ele>
  <time>2026-09-01T19:54:03Z</time>
  <course>2.59</course>
  <speed>14.019019223897226</speed>
  <fix>3d</fix>
</trkpt>
<trkpt lat="-27.274275" lon="151.290071">
  <ele>420.58</ele>
  <time>2026-09-01T19:54:03Z</time>
  <course>2.93</course>
  <speed>13.56</speed>
  <fix>3d</fix>
</trkpt>
<trkpt lat="-27.2742378" lon="151.2900732">
  <ele>421.86</ele>
  <time>2026-09-01T19:54:03Z</time>
  <course>3.29</course>
  <speed>14.199820421399702</speed>
  <fix>3d</fix>
</trkpt>
<trkpt lat="-27.2742503" lon="151.2900725">
  <ele>421.13</ele>
  <time>2026-09-01T19:54:03Z</time>
  <course>3.01</course>
  <speed>14.02</speed>
  <fix>3d</fix>
</trkpt>
<trkpt lat="-27.274225" lon="151.2900739">
  <ele>422.19</ele>
  <time>2026-09-01T19:54:03Z</time>
  <course>3.79</course>
  <speed>14.340686873368375</speed>
  <fix>3d</fix>
</trkpt>
<trkpt lat="-27.2742503" lon="151.2900725">
  <ele>421.13</ele>
  <time>2026-09-01T19:54:03Z</time>
  <course>3.01</course>
  <speed>14.02</speed>
  <fix>3d</fix>
</trkpt>
<trkpt lat="-27.2742121" lon="151.2900747">
  <ele>422.55</ele>
  <time>2026-09-01T19:54:03Z</time>
  <course>3.8</course>
  <speed>14.441080292000317</speed>
  <fix>3d</fix>
</trkpt>
<trkpt lat="-27.2742249" lon="151.290074">
  <ele>421.76</ele>
  <time>2026-09-01T19:54:03Z</time>
  <course>3.09</course>
  <speed>14.36</speed>
  <fix>3d</fix>
</trkpt>
<trkpt lat="-27.2741991" lon="151.2900755">
  <ele>422.93</ele>
  <time>2026-09-01T19:54:03Z</time>
  <course>3.39</course>
  <speed>14.52205219657332</speed>
  <fix>3d</fix>
</trkpt>
<trkpt lat="-27.2742249" lon="151.290074">
  <ele>421.76</ele>
  <time>2026-09-01T19:54:03Z</time>
  <course>3.09</course>
  <speed>14.36</speed>
  <fix>3d</fix>
</trkpt>
<trkpt lat="-27.2741861" lon="151.2900763">
  <ele>423.33</ele>
  <time>2026-09-01T19:54:03Z</time>
  <course>3.03</course>
  <speed>14.573088210808304</speed>
  <fix>3d</fix>
</trkpt>
<trkpt lat="-27.2741989" lon="151.2900757">
  <ele>422.5</ele>
  <time>2026-09-01T19:54:03Z</time>
  <course>3.21</course>
  <speed>14.56</speed>
  <fix>3d</fix>
</trkpt>
<trkpt lat="-27.274173" lon="151.2900772">
  <ele>423.75</ele>
  <time>2026-09-01T19:54:03Z</time>
  <course>2.9</course>
  <speed>14.624722219584207</speed>
  <fix>3d</fix>
</trkpt>
<trkpt lat="-27.2741989" lon="151.2900757">
  <ele>422.5</ele>
  <time>2026-09-01T19:54:03Z</time>
  <course>3.21</course>
  <speed>14.56</speed>
  <fix>3d</fix>
</trkpt>
<trkpt lat="-27.2741599" lon="151.2900781">
  <ele>424.18</ele>
  <time>2026-09-01T19:54:03Z</time>
  <course>3.16</course>
  <speed>14.655845250274718</speed>
  <fix>3d</fix>
</trkpt>
<trkpt lat="-27.2741726" lon="151.2900774">
  <ele>423.31</ele>
  <time>2026-09-01T19:54:03Z</time>
  <course>3.35</course>
  <speed>14.67</speed>
  <fix>3d</fix>
</trkpt>
<trkpt lat="-27.2741467" lon="151.290079">
  <ele>424.61</ele>
  <time>2026-09-01T19:54:03Z</time>
  <course>3.7</course>
  <speed>14.677009232129002</speed>
  <fix>3d</fix>
</trkpt>
<trkpt lat="-27.2741726" lon="151.2900774">
  <ele>423.31</ele>
  <time>2026-09-01T19:54:03Z</time>
  <course>3.35</course>
  <speed>14.67</speed>
  <fix>3d</fix>
</trkpt>
<trkpt lat="-27.2741335" lon="151.2900799">
  <ele>425.05</ele>
  <time>2026-09-01T19:54:03Z</time>
  <course>4.11</course>
  <speed>14.687600212424083</speed>
  <fix>3d</fix>
</trkpt>
<trkpt lat="-27.2741463" lon="151.2900791">
  <ele>424.16</ele>
  <time>2026-09-01T19:54:03Z</time>
  <course>3.48</course>
  <speed>14.72</speed>
  <fix>3d</fix>
</trkpt>
<trkpt lat="-27.2741202" lon="151.2900808">
  <ele>425.49</ele>
  <time>2026-09-01T19:54:03Z</time>
  <course>4.24</course>
  <speed>14.69819716836048</speed>
  <fix>3d</fix>
</trkpt>
<trkpt lat="-27.2741463" lon="151.2900791">
  <ele>424.16</ele>
  <time>2026-09-01T19:54:03Z</time>
  <course>3.48</course>
  <speed>14.72</speed>
  <fix>3d</fix>
</trkpt>
<trkpt lat="-27.274107" lon="151.2900818">
  <ele>425.91</ele>
  <time>2026-09-01T19:54:03Z</time>
  <course>4.03</course>
  <speed>14.709428948806952</speed>
  <fix>3d</fix>
</trkpt>
<trkpt lat="-27.2741199" lon="151.2900809">
  <ele>425.03</ele>
  <time>2026-09-01T19:54:03Z</time>
  <course>3.58</course>
  <speed>14.75</speed>
  <fix>3d</fix>
</trkpt>
<trkpt lat="-27.2740938" lon="151.2900827">
  <ele>426.32</ele>
  <time>2026-09-01T19:54:03Z</time>
  <course>3.69</course>
  <speed>14.720044157542464</speed>
  <fix>3d</fix>
</trkpt>
<trkpt lat="-27.2741199" lon="151.2900809">
  <ele>425.03</ele>
  <time>2026-09-01T19:54:03Z</time>
  <course>3.58</course>
  <speed>14.75</speed>
  <fix>3d</fix>
</trkpt>
<trkpt lat="-27.2740805" lon="151.2900837">
  <ele>426.72</ele>
  <time>2026-09-01T19:54:03Z</time>
  <course>3.38</course>
  <speed>14.730665293869112</speed>
  <fix>3d</fix>
</trkpt>
<trkpt lat="-27.2740934" lon="151.2900828">
  <ele>425.87</ele>
  <time>2026-09-01T19:54:03Z</time>
  <course>3.67</course>
  <speed>14.77</speed>
  <fix>3d</fix>
</trkpt>
<trkpt lat="-27.2740673" lon="151.2900847">
  <ele>427.09</ele>
  <time>2026-09-01T19:54:04Z</time>
  <course>3.31</course>
  <speed>14.741292344974372</speed>
  <fix>3d</fix>
</trkpt>
<trkpt lat="-27.2740934" lon="151.2900828">
  <ele>425.87</ele>
  <time>2026-09-01T19:54:04Z</time>
  <course>3.67</course>
  <speed>14.77</speed>
  <fix>3d</fix>
</trkpt>
<trkpt lat="-27.274054" lon="151.2900857">
  <ele>427.44</ele>
  <time>2026-09-01T19:54:04Z</time>
  <course>4.54</course>
  <speed>14.751925298075502</speed>
  <fix>3d</fix>
</trkpt>
<trkpt lat="-27.2740669" lon="151.2900848">
  <ele>426.63</ele>
  <time>2026-09-01T19:54:04Z</time>
  <course>3.75</course>
  <speed>14.79</speed>
  <fix>3d</fix>
</trkpt>
<trkpt lat="-27.2740409" lon="151.2900867">
  <ele>427.76</ele>
  <time>2026-09-01T19:54:04Z</time>
  <course>2.65</course>
  <speed>14.4519202876296</speed>
  <fix>3d</fix>
</trkpt>
<trkpt lat="-27.2740669" lon="151.2900848">
  <ele>426.63</ele>
  <time>2026-09-01T19:54:04Z</time>
  <course>3.75</course>
  <speed>14.79</speed>
  <fix>3d</fix>
</trkpt>
<trkpt lat="-27.274028" lon="151.2900876">
  <ele>428.06</ele>
  <time>2026-09-01T19:54:04Z</time>
  <course>5.07</course>
  <speed>14.372097967937737</speed>
  <fix>3d</fix>
</trkpt>
<trkpt lat="-27.2740406" lon="151.2900867">
  <ele>427.31</ele>
  <time>2026-09-01T19:54:04Z</time>
  <course>3.79</course>
  <speed>14.61</speed>
  <fix>3d</fix>
</trkpt>
<trkpt lat="-27.274015" lon="151.2900886">
  <ele>428.32</ele>
  <time>2026-09-01T19:54:04Z</time>
  <course>7.52</course>
  <speed>14.475980104987709</speed>
  <fix>3d</fix>
</trkpt>
<trkpt lat="-27.2740406" lon="151.2900867">
  <ele>427.31</ele>
  <time>2026-09-01T19:54:04Z</time>
  <course>3.79</course>
  <speed>14.61</speed>
  <fix>3d</fix>
</trkpt>
<trkpt lat="-27.2740021" lon="151.2900897">
  <ele>428.53</ele>
  <time>2026-09-01T19:54:04Z</time>
  <course>7.4</course>
  <speed>14.241773063772644</speed>
  <fix>3d</fix>
</trkpt>
<trkpt lat="-27.2740145" lon="151.2900887">
  <ele>427.86</ele>
  <time>2026-09-01T19:54:04Z</time>
  <course>4.08</course>
  <speed>14.36</speed>
  <fix>3d</fix>
</trkpt>
<trkpt lat="-27.2739892" lon="151.2900909">
  <ele>428.73</ele>
  <time>2026-09-01T19:54:04Z</time>
  <course>9.77</course>
  <speed>14.272238787240074</speed>
  <fix>3d</fix>
</trkpt>
<trkpt lat="-27.2740145" lon="151.2900887">
  <ele>427.86</ele>
  <time>2026-09-01T19:54:04Z</time>
  <course>4.08</course>
  <speed>14.36</speed>
  <fix>3d</fix>
</trkpt>
<trkpt lat="-27.2739765" lon="151.2900922">
  <ele>428.87</ele>
  <time>2026-09-01T19:54:04Z</time>
  <course>8.36</course>
  <speed>14.065902032930557</speed>
  <fix>3d</fix>
</trkpt>
<trkpt lat="-27.2739888" lon="151.290091">
  <ele>428.26</ele>
  <time>2026-09-01T19:54:04Z</time>
  <course>4.91</course>
  <speed>14.21</speed>
  <fix>3d</fix>
</trkpt>
<trkpt lat="-27.2739639" lon="151.2900937">
  <ele>428.99</ele>
  <time>2026-09-01T19:54:04Z</time>
  <course>10.61</course>
  <speed>14.14192349010558</speed>
  <fix>3d</fix>
</trkpt>
<trkpt lat="-27.2739888" lon="151.290091">
  <ele>428.26</ele>
  <time>2026-09-01T19:54:04Z</time>
  <course>4.91</course>
  <speed>14.21</speed>
  <fix>3d</fix>
</trkpt>
<trkpt lat="-27.2739513" lon="151.2900953">
  <ele>429.06</ele>
  <time>2026-09-01T19:54:04Z</time>
  <course>9.32</course>
  <speed>13.972580291413609</speed>
  <fix>3d</fix>
</trkpt>
<trkpt lat="-27.2739635" lon="151.2900938">
  <ele>428.52</ele>
  <time>2026-09-01T19:54:04Z</time>
  <course>6.15</course>
  <speed>14.07</speed>
  <fix>3d</fix>
</trkpt>
<trkpt lat="-27.273939" lon="151.2900971">
  <ele>429.09</ele>
  <time>2026-09-01T19:54:04Z</time>
  <course>7.78</course>
  <speed>13.814434479919907</speed>
  <fix>3d</fix>
</trkpt>
<trkpt lat="-27.2739635" lon="151.2900938">
  <ele>428.52</ele>
  <time>2026-09-01T19:54:04Z</time>
  <course>6.15</course>
  <speed>14.07</speed>
  <fix>3d</fix>
</trkpt>
<trkpt lat="-27.2739266" lon="151.290099">
  <ele>429.1</ele>
  <time>2026-09-01T19:54:04Z</time>
  <course>9.51</course>
  <speed>13.934277878670281</speed>
  <fix>3d</fix>
</trkpt>
<trkpt lat="-27.2739385" lon="151.2900971">
  <ele>428.64</ele>
  <time>2026-09-01T19:54:04Z</time>
  <course>7.49</course>
  <speed>14.0</speed>
  <fix>3d</fix>
</trkpt>
<trkpt lat="-27.2739142" lon="151.2901011">
  <ele>429.03</ele>
  <time>2026-09-01T19:54:04Z</time>
  <course>11.05</course>
  <speed>14.132957935266063</speed>
  <fix>3d</fix>
</trkpt>
<trkpt lat="-27.2739385" lon="151.2900971">
  <ele>428.64</ele>
  <time>2026-09-01T19:54:04Z</time>
  <course>7.49</course>
  <speed>14.0</speed>
  <fix>3d</fix>
</trkpt>
<trkpt lat="-27.2739017" lon="151.2901034">
  <ele>428.9</ele>
  <time>2026-09-01T19:54:04Z</time>
  <course>11.61</course>
  <speed>14.056144563855339</speed>
  <fix>3d</fix>
</trkpt>
<trkpt lat="-27.2739135" lon="151.2901011">
  <ele>428.58</ele>
  <time>2026-09-01T19:54:04Z</time>
  <course>8.8</course>
  <speed>14.04</speed>
  <fix>3d</fix>
</trkpt>
<trkpt lat="-27.2738892" lon="151.2901059">
  <ele>428.75</ele>
  <time>2026-09-01T19:54:04Z</time>
  <course>11.1</course>
  <speed>13.99552071199925</speed>
  <fix>3d</fix>
</trkpt>
<trkpt lat="-27.2739135" lon="151.2901011">
  <ele>428.58</ele>
  <time>2026-09-01T19:54:04Z</time>
  <course>8.8</course>
  <speed>14.04</speed>
  <fix>3d</fix>
</trkpt>
<trkpt lat="-27.2738768" lon="151.2901086">
  <ele>428.57</ele>
  <time>2026-09-01T19:54:04Z</time>
  <course>12.32</course>
  <speed>14.11283104129005</speed>
  <fix>3d</fix>
</trkpt>
<trkpt lat="-27.2738886" lon="151.2901059">
  <ele>428.32</ele>
  <time>2026-09-01T19:54:04Z</time>
  <course>10.51</course>
  <speed>14.13</speed>
  <fix>3d</fix>
</trkpt>
<trkpt lat="-27.2738641" lon="151.2901117">
  <ele>428.32</ele>
  <time>2026-09-01T19:54:04Z</time>
  <course>13.6</course>
  <speed>14.378163999621092</speed>
  <fix>3d</fix>
</trkpt>
<trkpt lat="-27.2738886" lon="151.2901059">
  <ele>428.32</ele>
  <time>2026-09-01T19:54:04Z</time>
  <course>10.51</course>
  <speed>14.13</speed>
  <fix>3d</fix>
</trkpt>
<trkpt lat="-27.2738514" lon="151.2901149">
  <ele>428.01</ele>
  <time>2026-09-01T19:54:04Z</time>
  <course>14.7</course>
  <speed>14.638476696705844</speed>
  <fix>3d</fix>
</trkpt>
<trkpt lat="-27.2738635" lon="151.2901117">
  <ele>427.89</ele>
  <time>2026-09-01T19:54:04Z</time>
  <course>12.34</course>
  <speed>14.41</speed>
  <fix>3d</fix>
</trkpt>
<trkpt lat="-27.2738386" lon="151.2901185">
  <ele>427.65</ele>
  <time>2026-09-01T19:54:04Z</time>
  <course>17.6</course>
  <speed>14.652706234685795</speed>
  <fix>3d</fix>
</trkpt>
<trkpt lat="-27.2738635" lon="151.2901117">
  <ele>427.89</ele>
  <time>2026-09-01T19:54:04Z</time>
  <course>12.34</course>
  <speed>14.41</speed>
  <fix>3d</fix>
</trkpt>
<trkpt lat="-27.2738257" lon="151.2901225">
  <ele>427.27</ele>
  <time>2026-09-01T19:54:04Z</time>
  <course>18.99</course>
  <speed>14.89725478066345</speed>
  <fix>3d</fix>
</trkpt>
<trkpt lat="-27.2738381" lon="151.2901185">
  <ele>427.27</ele>
  <time>2026-09-01T19:54:04Z</time>
  <course>14.69</course>
  <speed>14.79</speed>
  <fix>3d</fix>
</trkpt>
<trkpt lat="-27.2738128" lon="151.290127">
  <ele>426.86</ele>
  <time>2026-09-01T19:54:04Z</time>
  <course>20.5</course>
  <speed>15.182822530741774</speed>
  <fix>3d</fix>
</trkpt>
<trkpt lat="-27.2738381" lon="151.2901185">
  <ele>427.27</ele>
  <time>2026-09-01T19:54:04Z</time>
  <course>14.69</course>
  <speed>14.79</speed>
  <fix>3d</fix>
</trkpt>
<trkpt lat="-27.2737997" lon="151.2901319">
  <ele>426.39</ele>
  <time>2026-09-01T19:54:04Z</time>
  <course>21.91</course>
  <speed>15.487301249733603</speed>
  <fix>3d</fix>
</trkpt>
<trkpt lat="-27.2738122" lon="151.2901269">
  <ele>426.47</ele>
  <time>2026-09-01T19:54:04Z</time>
  <course>17.7</course>
  <speed>15.21</speed>
  <fix>3d</fix>
</trkpt>
<trkpt lat="-27.2737864" lon="151.2901373">
  <ele>425.87</ele>
  <time>2026-09-01T19:54:04Z</time>
  <course>23.34</course>
  <speed>15.808874090206425</speed>
  <fix>3d</fix>
</trkpt>
<trkpt lat="-27.2738122" lon="151.2901269">
  <ele>426.47</ele>
  <time>2026-09-01T19:54:04Z</time>
  <course>17.7</course>
  <speed>15.21</speed>
  <fix>3d</fix>
</trkpt>
<trkpt lat="-27.273773" lon="151.2901433">
  <ele>425.31</ele>
  <time>2026-09-01T19:54:04Z</time>
  <course>25.37</course>
  <speed>16.128564722255977</speed>
  <fix>3d</fix>
</trkpt>
<trkpt lat="-27.2737859" lon="151.2901373">
  <ele>425.52</ele>
  <time>2026-09-01T19:54:04Z</time>
  <course>20.69</course>
  <speed>15.81</speed>
  <fix>3d</fix>
</trkpt>
<trkpt lat="-27.2737596" lon="151.2901496">
  <ele>424.7</ele>
  <time>2026-09-01T19:54:04Z</time>
  <course>25.64</course>
  <speed>16.057537171060822</speed>
  <fix>3d</fix>
</trkpt>
<trkpt lat="-27.2737859" lon="151.2901373">
  <ele>425.52</ele>
  <time>2026-09-01T19:54:04Z</time>
  <course>20.69</course>
  <speed>15.81</speed>
  <fix>3d</fix>
</trkpt>
<trkpt lat="-27.2737464" lon="151.2901562">
  <ele>424.01</ele>
  <time>2026-09-01T19:54:04Z</time>
  <course>29.42</course>
  <speed>16.243475613303946</speed>
  <fix>3d</fix>
</trkpt>
<trkpt lat="-27.2737592" lon="151.2901493">
  <ele>424.34</ele>
  <time>2026-09-01T19:54:04Z</time>
  <course>23.31</course>
  <speed>16.19</speed>
  <fix>3d</fix>
</trkpt>
<trkpt lat="-27.273733" lon="151.2901633">
  <ele>423.26</ele>
  <time>2026-09-01T19:54:04Z</time>
  <course>33.26</course>
  <speed>16.596183296167826</speed>
  <fix>3d</fix>
</trkpt>
<trkpt lat="-27.2737592" lon="151.2901493">
  <ele>424.34</ele>
  <time>2026-09-01T19:54:04Z</time>
  <course>23.31</course>
  <speed>16.19</speed>
  <fix>3d</fix>
</trkpt>
<trkpt lat="-27.2737197" lon="151.2901713">
  <ele>422.49</ele>
  <time>2026-09-01T19:54:04Z</time>
  <course>36.89</course>
  <speed>17.02405650836486</speed>
  <fix>3d</fix>
</trkpt>
<trkpt lat="-27.2737326" lon="151.2901633">
  <ele>422.96</ele>
  <time>2026-09-01T19:54:04Z</time>
  <course>26.85</course>
  <speed>16.62</speed>
  <fix>3d</fix>
</trkpt>
<trkpt lat="-27.2737063" lon="151.2901803">
  <ele>421.7</ele>
  <time>2026-09-01T19:54:04Z</time>
  <course>40.3</course>
  <speed>17.48526808487648</speed>
  <fix>3d</fix>
</trkpt>
<trkpt lat="-27.2737326" lon="151.2901633">
  <ele>422.96</ele>
  <time>2026-09-01T19:54:04Z</time>
  <course>26.85</course>
  <speed>16.62</speed>
  <fix>3d</fix>
</trkpt>
<trkpt lat="-27.2736931" lon="151.2901903">
  <ele>420.9</ele>
  <time>2026-09-01T19:54:04Z</time>
  <course>44.17</course>
  <speed>17.94529743414692</speed>
  <fix>3d</fix>
</trkpt>
<trkpt lat="-27.273706" lon="151.2901803">
  <ele>421.42</ele>
  <time>2026-09-01T19:54:04Z</time>
  <course>32.43</course>
  <speed>17.44</speed>
  <fix>3d</fix>
</trkpt>
<trkpt lat="-27.2736802" lon="151.2902015">
  <ele>420.13</ele>
  <time>2026-09-01T19:54:04Z</time>
  <course>48.5</course>
  <speed>18.23760126771062</speed>
  <fix>3d</fix>
</trkpt>
<trkpt lat="-27.273706" lon="151.2901803">
  <ele>421.42</ele>
  <time>2026-09-01T19:54:04Z</time>
  <course>32.43</course>
  <speed>17.44</speed>
  <fix>3d</fix>
</trkpt>
<trkpt lat="-27.2736679" lon="151.2902139">
  <ele>419.42</ele>
  <time>2026-09-01T19:54:04Z</time>
  <course>47.78</course>
  <speed>18.495872512536412</speed>
  <fix>3d</fix>
</trkpt>
<trkpt lat="-27.2736801" lon="151.2902014">
  <ele>419.91</ele>
  <time>2026-09-01T19:54:04Z</time>
  <course>39.51</course>
  <speed>18.16</speed>
  <fix>3d</fix>
</trkpt>
<trkpt lat="-27.2736562" lon="151.2902272">
  <ele>418.73</ele>
  <time>2026-09-01T19:54:04Z</time>
  <course>47.17</course>
  <speed>18.666925295827376</speed>
  <fix>3d</fix>
</trkpt>
<trkpt lat="-27.2736801" lon="151.2902014">
  <ele>419.91</ele>
  <time>2026-09-01T19:54:04Z</time>
  <course>39.51</course>
  <speed>18.16</speed>
  <fix>3d</fix>
</trkpt>
<trkpt lat="-27.2736448" lon="151.2902412">
  <ele>418.06</ele>
  <time>2026-09-01T19:54:04Z</time>
  <course>48.72</course>
  <speed>18.85246137776179</speed>
  <fix>3d</fix>
</trkpt>
<trkpt lat="-27.2736559" lon="151.2902267">
  <ele>418.51</ele>
  <time>2026-09-01T19:54:04Z</time>
  <course>46.2</course>
  <speed>18.64</speed>
  <fix>3d</fix>
</trkpt>
<trkpt lat="-27.273634" lon="151.2902559">
  <ele>417.39</ele>
  <time>2026-09-01T19:54:04Z</time>
  <course>51.9</course>
  <speed>19.107741886471043</speed>
  <fix>3d</fix>
</trkpt>
<trkpt lat="-27.2736559" lon="151.2902267">
  <ele>418.51</ele>
  <time>2026-09-01T19:54:04Z</time>
  <course>46.2</course>
  <speed>18.64</speed>
  <fix>3d</fix>
</trkpt>
<trkpt lat="-27.2736239" lon="151.2902717">
  <ele>416.76</ele>
  <time>2026-09-01T19:54:04Z</time>
  <course>55.41</course>
  <speed>19.412289921593484</speed>
  <fix>3d</fix>
</trkpt>
<trkpt lat="-27.2736338" lon="151.2902556">
  <ele>417.22</ele>
  <time>2026-09-01T19:54:04Z</time>
  <course>52.32</course>
  <speed>19.09</speed>
  <fix>3d</fix>
</trkpt>
<trkpt lat="-27.2736144" lon="151.2902883">
  <ele>416.16</ele>
  <time>2026-09-01T19:54:04Z</time>
  <course>58.58</course>
  <speed>19.72775962951698</speed>
  <fix>3d</fix>
</trkpt>
<trkpt lat="-27.2736338" lon="151.2902556">
  <ele>417.22</ele>
  <time>2026-09-01T19:54:04Z</time>
  <course>52.32</course>
  <speed>19.09</speed>
  <fix>3d</fix>
</trkpt>
<trkpt lat="-27.2736057" lon="151.290306">
  <ele>415.57</ele>
  <time>2026-09-01T19:54:04Z</time>
  <course>61.52</course>
  <speed>20.01064716594643</speed>
  <fix>3d</fix>
</trkpt>
<trkpt lat="-27.2736142" lon="151.2902879">
  <ele>416.0</ele>
  <time>2026-09-01T19:54:04Z</time>
  <course>59.0</course>
  <speed>19.67</speed>
  <fix>3d</fix>
</trkpt>
<trkpt lat="-27.2735978" lon="151.2903242">
  <ele>415.0</ele>
  <time>2026-09-01T19:54:04Z</time>
  <course>64.39</course>
  <speed>20.290413992819367</speed>
  <fix>3d</fix>
</trkpt>
<trkpt lat="-27.2736142" lon="151.2902879">
  <ele>416.0</ele>
  <time>2026-09-01T19:54:04Z</time>
  <course>59.0</course>
  <speed>19.67</speed>
  <fix>3d</fix>
</trkpt>
<trkpt lat="-27.2735906" lon="151.2903432">
  <ele>414.45</ele>
  <time>2026-09-01T19:54:04Z</time>
  <course>67.29</course>
  <speed>20.547374528148357</speed>
  <fix>3d</fix>
</trkpt>
<trkpt lat="-27.2735975" lon="151.2903236">
  <ele>414.87</ele>
  <time>2026-09-01T19:54:04Z</time>
  <course>65.28</course>
  <speed>20.24</speed>
  <fix>3d</fix>
</trkpt>
<trkpt lat="-27.2735842" lon="151.2903627">
  <ele>413.9</ele>
  <time>2026-09-01T19:54:04Z</time>
  <course>70.21</course>
  <speed>20.792125913431747</speed>
  <fix>3d</fix>
</trkpt>
<trkpt lat="-27.2735975" lon="151.2903236">
  <ele>414.87</ele>
  <time>2026-09-01T19:54:04Z</time>
  <course>65.28</course>
  <speed>20.24</speed>
  <fix>3d</fix>
</trkpt>
<trkpt lat="-27.2735786" lon="151.2903828">
  <ele>413.36</ele>
  <time>2026-09-01T19:54:04Z</time>
  <course>73.09</course>
  <speed>21.0354581599736</speed>
  <fix>3d</fix>
</trkpt>
<trkpt lat="-27.2735839" lon="151.2903621">
  <ele>413.78</ele>
  <time>2026-09-01T19:54:04Z</time>
  <course>71.12</course>
  <speed>20.76</speed>
  <fix>3d</fix>
</trkpt>
<trkpt lat="-27.2735738" lon="151.2904034">
  <ele>412.83</ele>
  <time>2026-09-01T19:54:04Z</time>
  <course>75.93</course>
  <speed>21.271713612212817</speed>
  <fix>3d</fix>
</trkpt>
<trkpt lat="-27.2735839" lon="151.2903621">
  <ele>413.78</ele>
  <time>2026-09-01T19:54:04Z</time>
  <course>71.12</course>
  <speed>20.76</speed>
  <fix>3d</fix>
</trkpt>
<trkpt lat="-27.27357" lon="151.2904246">
  <ele>412.3</ele>
  <time>2026-09-01T19:54:04Z</time>
  <course>78.81</course>
  <speed>21.511159894343212</speed>
  <fix>3d</fix>
</trkpt>
<trkpt lat="-27.2735735" lon="151.2904029">
  <ele>412.72</ele>
  <time>2026-09-01T19:54:04Z</time>
  <course>76.87</course>
  <speed>21.24</speed>
  <fix>3d</fix>
</trkpt>
<trkpt lat="-27.273567" lon="151.2904461">
  <ele>411.78</ele>
  <time>2026-09-01T19:54:04Z</time>
  <course>81.79</course>
  <speed>21.758173176992596</speed>
  <fix>3d</fix>
</trkpt>
<trkpt lat="-27.2735735" lon="151.2904029">
  <ele>412.72</ele>
  <time>2026-09-01T19:54:04Z</time>
  <course>76.87</course>
  <speed>21.24</speed>
  <fix>3d</fix>
</trkpt>
<trkpt lat="-27.2735651" lon="151.2904681">
  <ele>411.26</ele>
  <time>2026-09-01T19:54:04Z</time>
  <course>84.88</course>
  <speed>22.015340106389452</speed>
  <fix>3d</fix>
</trkpt>
<trkpt lat="-27.2735666" lon="151.2904457">
  <ele>411.69</ele>
  <time>2026-09-01T19:54:04Z</time>
  <course>82.75</course>
  <speed>21.73</speed>
  <fix>3d</fix>
</trkpt>
<trkpt lat="-27.2735641" lon="151.2904903">
  <ele>410.76</ele>
  <time>2026-09-01T19:54:04Z</time>
  <course>88.08</course>
  <speed>22.262910860891484</speed>
  <fix>3d</fix>
</trkpt>
<trkpt lat="-27.2735666" lon="151.2904457">
  <ele>411.69</ele>
  <time>2026-09-01T19:54:04Z</time>
  <course>82.75</course>
  <speed>21.73</speed>
  <fix>3d</fix>
</trkpt>
<trkpt lat="-27.2735644" lon="151.2905129">
  <ele>410.27</ele>
  <time>2026-09-01T19:54:04Z</time>
  <course>91.37</course>
  <speed>22.517992805754247</speed>
  <fix>3d</fix>
</trkpt>
<trkpt lat="-27.2735638" lon="151.2904901">
  <ele>410.69</ele>
  <time>2026-09-01T19:54:04Z</time>
  <course>88.97</course>
  <speed>22.24</speed>
  <fix>3d</fix>
</trkpt>
<trkpt lat="-27.2735656" lon="151.2905357">
  <ele>409.79</ele>
  <time>2026-09-01T19:54:04Z</time>
  <course>94.71</course>
  <speed>22.758534662846813</speed>
  <fix>3d</fix>
</trkpt>
<trkpt lat="-27.2735638" lon="151.2904901">
  <ele>410.69</ele>
  <time>2026-09-01T19:54:04Z</time>
  <course>88.97</course>
  <speed>22.24</speed>
  <fix>3d</fix>
</trkpt>
<trkpt lat="-27.2735682" lon="151.2905586">
  <ele>409.34</ele>
  <time>2026-09-01T19:54:04Z</time>
  <course>98.07</course>
  <speed>23.010199912212844</speed>
  <fix>3d</fix>
</trkpt>
<trkpt lat="-27.2735654" lon="151.2905354">
  <ele>409.73</ele>
  <time>2026-09-01T19:54:04Z</time>
  <course>95.49</course>
  <speed>22.73</speed>
  <fix>3d</fix>
</trkpt>
<trkpt lat="-27.273572" lon="151.2905815">
  <ele>408.9</ele>
  <time>2026-09-01T19:54:04Z</time>
  <course>101.46</course>
  <speed>23.257241882906065</speed>
  <fix>3d</fix>
</trkpt>
<trkpt lat="-27.2735654" lon="151.2905354">
  <ele>409.73</ele>
  <time>2026-09-01T19:54:04Z</time>
  <course>95.49</course>
  <speed>22.73</speed>
  <fix>3d</fix>
</trkpt>
<trkpt lat="-27.2735771" lon="151.2906044">
  <ele>408.48</ele>
  <time>2026-09-01T19:54:04Z</time>
  <course>104.9</course>
  <speed>23.514867637305553</speed>
  <fix>3d</fix>
</trkpt>
<trkpt lat="-27.2735717" lon="151.2905814">
  <ele>408.84</ele>
  <time>2026-09-01T19:54:04Z</time>
  <course>102.22</course>
  <speed>23.24</speed>
  <fix>3d</fix>
</trkpt>
<trkpt lat="-27.2735834" lon="151.2906272">
  <ele>408.09</ele>
  <time>2026-09-01T19:54:04Z</time>
  <course>108.37</course>
  <speed>23.782430489754407</speed>
  <fix>3d</fix>
</trkpt>
<trkpt lat="-27.2735717" lon="151.2905814">
  <ele>408.84</ele>
  <time>2026-09-01T19:54:04Z</time>
  <course>102.22</course>
  <speed>23.24</speed>
  <fix>3d</fix>
</trkpt>
<trkpt lat="-27.2735911" lon="151.2906497">
  <ele>407.71</ele>
  <time>2026-09-01T19:54:04Z</time>
  <course>111.93</course>
  <speed>24.039244996463594</speed>
  <fix>3d</fix>
</trkpt>
<trkpt lat="-27.273583" lon="151.2906271">
  <ele>408.05</ele>
  <time>2026-09-01T19:54:04Z</time>
  <course>109.09</course>
  <speed>23.76</speed>
  <fix>3d</fix>
</trkpt>
<trkpt lat="-27.2736" lon="151.2906719">
  <ele>407.37</ele>
  <time>2026-09-01T19:54:04Z</time>
  <course>115.45</course>
  <speed>24.293038097364438</speed>
  <fix>3d</fix>
</trkpt>
<trkpt lat="-27.273583" lon="151.2906271">
  <ele>408.05</ele>
  <time>2026-09-01T19:54:04Z</time>
  <course>109.09</course>
  <speed>23.76</speed>
  <fix>3d</fix>
</trkpt>
<trkpt lat="-27.2736103" lon="151.2906937">
  <ele>407.04</ele>
  <time>2026-09-01T19:54:04Z</time>
  <course>118.95</course>
  <speed>24.541517882967224</speed>
  <fix>3d</fix>
</trkpt>
<trkpt lat="-27.2735996" lon="151.2906718">
  <ele>407.33</ele>
  <time>2026-09-01T19:54:04Z</time>
  <course>116.09</course>
  <speed>24.27</speed>
  <fix>3d</fix>
</trkpt>
<trkpt lat="-27.2736218" lon="151.2907149">
  <ele>406.75</ele>
  <time>2026-09-01T19:54:04Z</time>
  <course>122.52</course>
  <speed>24.79276104027141</speed>
  <fix>3d</fix>
</trkpt>
<trkpt lat="-27.2735996" lon="151.2906718">
  <ele>407.33</ele>
  <time>2026-09-01T19:54:04Z</time>
  <course>116.09</course>
  <speed>24.27</speed>
  <fix>3d</fix>
</trkpt>
<trkpt lat="-27.2736346" lon="151.2907355">
  <ele>406.47</ele>
  <time>2026-09-01T19:54:04Z</time>
  <course>126.15</course>
  <speed>25.030031961625617</speed>
  <fix>3d</fix>
</trkpt>
<trkpt lat="-27.2736214" lon="151.2907148">
  <ele>406.71</ele>
  <time>2026-09-01T19:54:04Z</time>
  <course>123.22</course>
  <speed>24.77</speed>
  <fix>3d</fix>
</trkpt>
<trkpt lat="-27.2736486" lon="151.2907551">
  <ele>406.23</ele>
  <time>2026-09-01T19:54:04Z</time>
  <course>129.74</course>
  <speed>25.248540551881412</speed>
  <fix>3d</fix>
</trkpt>
<trkpt lat="-27.2736214" lon="151.2907148">
  <ele>406.71</ele>
  <time>2026-09-01T19:54:04Z</time>
  <course>123.22</course>
  <speed>24.77</speed>
  <fix>3d</fix>
</trkpt>
<trkpt lat="-27.2736639" lon="151.2907741">
  <ele>406.02</ele>
  <time>2026-09-01T19:54:04Z</time>
  <course>133.28</course>
  <speed>25.458499563014314</speed>
  <fix>3d</fix>
</trkpt>
<trkpt lat="-27.2736483" lon="151.2907553">
  <ele>406.19</ele>
  <time>2026-09-01T19:54:04Z</time>
  <course>130.43</course>
  <speed>25.23</speed>
  <fix>3d</fix>
</trkpt>
<trkpt lat="-27.2736804" lon="151.290792">
  <ele>405.82</ele>
  <time>2026-09-01T19:54:04Z</time>
  <course>136.79</course>
  <speed>25.655751791752273</speed>
  <fix>3d</fix>
</trkpt>
<trkpt lat="-27.2736483" lon="151.2907553">
  <ele>406.19</ele>
  <time>2026-09-01T19:54:04Z</time>
  <course>130.43</course>
  <speed>25.23</speed>
  <fix>3d</fix>
</trkpt>
<trkpt lat="-27.2736979" lon="151.2908089">
  <ele>405.66</ele>
  <time>2026-09-01T19:54:04Z</time>
  <course>140.29</course>
  <speed>25.840510830864005</speed>
  <fix>3d</fix>
</trkpt>
<trkpt lat="-27.2736801" lon="151.2907922">
  <ele>405.78</ele>
  <time>2026-09-01T19:54:04Z</time>
  <course>137.64</course>
  <speed>25.65</speed>
  <fix>3d</fix>
</trkpt>
<trkpt lat="-27.2737168" lon="151.2908249">
  <ele>405.51</ele>
  <time>2026-09-01T19:54:04Z</time>
  <course>143.74</course>
  <speed>26.006554942936983</speed>
  <fix>3d</fix>
</trkpt>
<trkpt lat="-27.2736801" lon="151.2907922">
  <ele>405.78</ele>
  <time>2026-09-01T19:54:04Z</time>
  <course>137.64</course>
  <speed>25.65</speed>
  <fix>3d</fix>
</trkpt>
<trkpt lat="-27.2737363" lon="151.2908394">
  <ele>405.4</ele>
  <time>2026-09-01T19:54:04Z</time>
  <course>146.98</course>
  <speed>26.140024866093757</speed>
  <fix>3d</fix>
</trkpt>
<trkpt lat="-27.2737162" lon="151.2908249">
  <ele>405.47</ele>
  <time>2026-09-01T19:54:04Z</time>
  <course>144.68</course>
  <speed>26.0</speed>
  <fix>3d</fix>
</trkpt>
<trkpt lat="-27.2737566" lon="151.2908527">
  <ele>405.31</ele>
  <time>2026-09-01T19:54:04Z</time>
  <course>150.04</course>
  <speed>26.238079197990082</speed>
  <fix>3d</fix>
</trkpt>
<trkpt lat="-27.2737162" lon="151.2908249">
  <ele>405.47</ele>
  <time>2026-09-01T19:54:04Z</time>
  <course>144.68</course>
  <speed>26.0</speed>
  <fix>3d</fix>
</trkpt>
<trkpt lat="-27.2737777" lon="151.2908647">
  <ele>405.25</ele>
  <time>2026-09-01T19:54:04Z</time>
  <course>152.89</course>
  <speed>26.306860321976853</speed>
  <fix>3d</fix>
</trkpt>
<trkpt lat="-27.2737562" lon="151.2908528">
  <ele>405.27</ele>
  <time>2026-09-01T19:54:04Z</time>
  <course>151.35</course>
  <speed>26.24</speed>
  <fix>3d</fix>
</trkpt>
<trkpt lat="-27.2737992" lon="151.2908755">
  <ele>405.2</ele>
  <time>2026-09-01T19:54:04Z</time>
  <course>155.54</course>
  <speed>26.34085230208013</speed>
  <fix>3d</fix>
</trkpt>
<trkpt lat="-27.2737562" lon="151.2908528">
  <ele>405.27</ele>
  <time>2026-09-01T19:54:04Z</time>
  <course>151.35</course>
  <speed>26.24</speed>
  <fix>3d</fix>
</trkpt>
<trkpt lat="-27.2738212" lon="151.2908852">
  <ele>405.16</ele>
  <time>2026-09-01T19:54:04Z</time>
  <course>157.95</course>
  <speed>26.343348306545998</speed>
  <fix>3d</fix>
</trkpt>
<trkpt lat="-27.2737989" lon="151.2908759">
  <ele>405.14</ele>
  <time>2026-09-01T19:54:04Z</time>
  <course>157.29</course>
  <speed>26.36</speed>
  <fix>3d</fix>
</trkpt>
<trkpt lat="-27.2738436" lon="151.2908937">
  <ele>405.14</ele>
  <time>2026-09-01T19:54:04Z</time>
  <course>160.14</course>
  <speed>26.323413532442938</speed>
  <fix>3d</fix>
</trkpt>
<trkpt lat="-27.2737989" lon="151.2908759">
  <ele>405.14</ele>
  <time>2026-09-01T19:54:04Z</time>
  <course>157.29</course>
  <speed>26.36</speed>
  <fix>3d</fix>
</trkpt>
<trkpt lat="-27.2738662" lon="151.2909013">
  <ele>405.12</ele>
  <time>2026-09-01T19:54:04Z</time>
  <course>162.11</course>
  <speed>26.273165016799936</speed>
  <fix>3d</fix>
</trkpt>
<trkpt lat="-27.2738433" lon="151.2908942">
  <ele>405.07</ele>
  <time>2026-09-01T19:54:04Z</time>
  <course>162.32</course>
  <speed>26.36</speed>
  <fix>3d</fix>
</trkpt>
<trkpt lat="-27.273889" lon="151.2909079">
  <ele>405.1</ele>
  <time>2026-09-01T19:54:04Z</time>
  <course>163.83</course>
  <speed>26.205085384329507</speed>
  <fix>3d</fix>
</trkpt>
<trkpt lat="-27.2738433" lon="151.2908942">
  <ele>405.07</ele>
  <time>2026-09-01T19:54:04Z</time>
  <course>162.32</course>
  <speed>26.36</speed>
  <fix>3d</fix>
</trkpt>
<trkpt lat="-27.2739119" lon="151.2909138">
  <ele>405.08</ele>
  <time>2026-09-01T19:54:04Z</time>
  <course>165.35</course>
  <speed>26.125322964510886</speed>
  <fix>3d</fix>
</trkpt>
<trkpt lat="-27.2738888" lon="151.2909085">
  <ele>405.02</ele>
  <time>2026-09-01T19:54:04Z</time>
  <course>166.42</course>
  <speed>26.26</speed>
  <fix>3d</fix>
</trkpt>
<trkpt lat="-27.2739349" lon="151.2909189">
  <ele>405.04</ele>
  <time>2026-09-01T19:54:04Z</time>
  <course>166.67</course>
  <speed>26.028726438302737</speed>
  <fix>3d</fix>
</trkpt>
<trkpt lat="-27.2738888" lon="151.2909085">
  <ele>405.02</ele>
  <time>2026-09-01T19:54:04Z</time>
  <course>166.42</course>
  <speed>26.26</speed>
  <fix>3d</fix>
</trkpt>
<trkpt lat="-27.2739579" lon="151.2909233">
  <ele>404.99</ele>
  <time>2026-09-01T19:54:04Z</time>
  <course>167.85</course>
  <speed>25.929822598698976</speed>
  <fix>3d</fix>
</trkpt>
<trkpt lat="-27.2739349" lon="151.2909194">
  <ele>404.95</ele>
  <time>2026-09-01T19:54:04Z</time>
  <course>169.61</course>
  <speed>26.1</speed>
  <fix>3d</fix>
</trkpt>
<trkpt lat="-27.2739809" lon="151.2909273">
  <ele>404.9</ele>
  <time>2026-09-01T19:54:04Z</time>
  <course>168.91</course>
  <speed>25.826536740337446</speed>
  <fix>3d</fix>
</trkpt>
<trkpt lat="-27.2739349" lon="151.2909194">
  <ele>404.95</ele>
  <time>2026-09-01T19:54:04Z</time>
  <course>169.61</course>
  <speed>26.1</speed>
  <fix>3d</fix>
</trkpt>
<trkpt lat="-27.2740039" lon="151.2909307">
  <ele>404.8</ele>
  <time>2026-09-01T19:54:04Z</time>
  <course>169.89</course>
  <speed>25.718728584438228</speed>
  <fix>3d</fix>
</trkpt>
<trkpt lat="-27.273981" lon="151.2909277">
  <ele>404.8</ele>
  <time>2026-09-01T19:54:04Z</time>
  <course>172.04</course>
  <speed>25.9</speed>
  <fix>3d</fix>
</trkpt>
<trkpt lat="-27.2740268" lon="151.2909337">
  <ele>404.66</ele>
  <time>2026-09-01T19:54:04Z</time>
  <course>170.85</course>
  <speed>25.622654038955446</speed>
  <fix>3d</fix>
</trkpt>
<trkpt lat="-27.273981" lon="151.2909277">
  <ele>404.8</ele>
  <time>2026-09-01T19:54:04Z</time>
  <course>172.04</course>
  <speed>25.9</speed>
  <fix>3d</fix>
</trkpt>
<trkpt lat="-27.2740497" lon="151.2909363">
  <ele>404.49</ele>
  <time>2026-09-01T19:54:04Z</time>
  <course>171.81</course>
  <speed>25.52474289782367</speed>
  <fix>3d</fix>
</trkpt>
<trkpt lat="-27.274027" lon="151.290934">
  <ele>404.55</ele>
  <time>2026-09-01T19:54:04Z</time>
  <course>173.97</course>
  <speed>25.69</speed>
  <fix>3d</fix>
</trkpt>
<trkpt lat="-27.2740725" lon="151.2909385">
  <ele>404.29</ele>
  <time>2026-09-01T19:54:04Z</time>
  <course>172.83</course>
  <speed>25.45327680280085</speed>
  <fix>3d</fix>
</trkpt>
<trkpt lat="-27.274027" lon="151.290934">
  <ele>404.55</ele>
  <time>2026-09-01T19:54:04Z</time>
  <course>173.97</course>
  <speed>25.69</speed>
  <fix>3d</fix>
</trkpt>
<trkpt lat="-27.2740951" lon="151.2909402">
  <ele>404.06</ele>
  <time>2026-09-01T19:54:04Z</time>
  <course>173.85</course>
  <speed>25.386752450835456</speed>
  <fix>3d</fix>
</trkpt>
<trkpt lat="-27.2740728" lon="151.2909386">
  <ele>404.18</ele>
  <time>2026-09-01T19:54:04Z</time>
  <course>175.72</course>
  <speed>25.53</speed>
  <fix>3d</fix>
</trkpt>
<trkpt lat="-27.274118" lon="151.2909416">
  <ele>403.81</ele>
  <time>2026-09-01T19:54:04Z</time>
  <course>174.92</course>
  <speed>25.355192762035944</speed>
  <fix>3d</fix>
</trkpt>
<trkpt lat="-27.2740728" lon="151.2909386">
  <ele>404.18</ele>
  <time>2026-09-01T19:54:04Z</time>
  <course>175.72</course>
  <speed>25.53</speed>
  <fix>3d</fix>
</trkpt>
<trkpt lat="-27.2741407" lon="151.2909425">
  <ele>403.53</ele>
  <time>2026-09-01T19:54:04Z</time>
  <course>176.05</course>
  <speed>25.33967047930971</speed>
  <fix>3d</fix>
</trkpt>
<trkpt lat="-27.2741185" lon="151.2909417">
  <ele>403.7</ele>
  <time>2026-09-01T19:54:04Z</time>
  <course>177.54</course>
  <speed>25.43</speed>
  <fix>3d</fix>
</trkpt>
<trkpt lat="-27.2741636" lon="151.290943">
  <ele>403.23</ele>
  <time>2026-09-01T19:54:04Z</time>
  <course>177.24</course>
  <speed>25.351043371033075</speed>
  <fix>3d</fix>
</trkpt>
<trkpt lat="-27.2741185" lon="151.2909417">
  <ele>403.7</ele>
  <time>2026-09-01T19:54:04Z</time>
  <course>177.54</course>
  <speed>25.43</speed>
  <fix>3d</fix>
</trkpt>
<trkpt lat="-27.2741866" lon="151.290943">
  <ele>402.92</ele>
  <time>2026-09-01T19:54:04Z</time>
  <course>178.47</course>
  <speed>25.391435563984956</speed>
  <fix>3d</fix>
</trkpt>
<trkpt lat="-27.2741641" lon="151.2909429">
  <ele>403.14</ele>
  <time>2026-09-01T19:54:04Z</time>
  <course>179.58</course>
  <speed>25.42</speed>
  <fix>3d</fix>
</trkpt>
<trkpt lat="-27.2742095" lon="151.2909424">
  <ele>402.61</ele>
  <time>2026-09-01T19:54:04Z</time>
  <course>179.73</course>
  <speed>25.46257056936711</speed>
  <fix>3d</fix>
</trkpt>
<trkpt lat="-27.2741641" lon="151.2909429">
  <ele>403.14</ele>
  <time>2026-09-01T19:54:04Z</time>
  <course>179.58</course>
  <speed>25.42</speed>
  <fix>3d</fix>
</trkpt>
<trkpt lat="-27.2742324" lon="151.2909413">
  <ele>402.29</ele>
  <time>2026-09-01T19:54:04Z</time>
  <course>181.09</course>
  <speed>25.546226727248783</speed>
  <fix>3d</fix>
</trkpt>
<trkpt lat="-27.2742098" lon="151.2909424">
  <ele>402.52</ele>
  <time>2026-09-01T19:54:04Z</time>
  <course>181.89</course>
  <speed>25.52</speed>
  <fix>3d</fix>
</trkpt>
<trkpt lat="-27.2742554" lon="151.2909396">
  <ele>401.98</ele>
  <time>2026-09-01T19:54:04Z</time>
  <course>182.53</course>
  <speed>25.654980023379476</speed>
  <fix>3d</fix>
</trkpt>
<trkpt lat="-27.2742098" lon="151.2909424">
  <ele>402.52</ele>
  <time>2026-09-01T19:54:04Z</time>
  <course>181.89</course>
  <speed>25.52</speed>
  <fix>3d</fix>
</trkpt>
<trkpt lat="-27.2742785" lon="151.2909374">
  <ele>401.67</ele>
  <time>2026-09-01T19:54:04Z</time>
  <course>184.07</course>
  <speed>25.782447517642694</speed>
  <fix>3d</fix>
</trkpt>
<trkpt lat="-27.2742558" lon="151.2909395">
  <ele>401.9</ele>
  <time>2026-09-01T19:54:04Z</time>
  <course>184.49</course>
  <speed>25.71</speed>
  <fix>3d</fix>
</trkpt>
<trkpt lat="-27.2743016" lon="151.2909344">
  <ele>401.38</ele>
  <time>2026-09-01T19:54:04Z</time>
  <course>185.62</course>
  <speed>25.920920122557376</speed>
  <fix>3d</fix>
</trkpt>
<trkpt lat="-27.2742558" lon="151.2909395">
  <ele>401.9</ele>
  <time>2026-09-01T19:54:04Z</time>
  <course>184.49</course>
  <speed>25.71</speed>
  <fix>3d</fix>
</trkpt>
<trkpt lat="-27.2743249" lon="151.2909306">
  <ele>401.1</ele>
  <time>2026-09-01T19:54:04Z</time>
  <course>187.19</course>
  <speed>26.07178551614753</speed>
  <fix>3d</fix>
</trkpt>
<trkpt lat="-27.2743021" lon="151.2909341">
  <ele>401.3</ele>
  <time>2026-09-01T19:54:04Z</time>
  <course>187.38</course>
  <speed>25.96</speed>
  <fix>3d</fix>
</trkpt>
<trkpt lat="-27.2743481" lon="151.2909261">
  <ele>400.85</ele>
  <time>2026-09-01T19:54:04Z</time>
  <course>188.75</course>
  <speed>26.225592462325803</speed>
  <fix>3d</fix>
</trkpt>
<trkpt lat="-27.2743021" lon="151.2909341">
  <ele>401.3</ele>
  <time>2026-09-01T19:54:04Z</time>
  <course>187.38</course>
  <speed>25.96</speed>
  <fix>3d</fix>
</trkpt>
<trkpt lat="-27.2743713" lon="151.2909209">
  <ele>400.62</ele>
  <time>2026-09-01T19:54:04Z</time>
  <course>190.35</course>
  <speed>26.360166919046623</speed>
  <fix>3d</fix>
</trkpt>
<trkpt lat="-27.2743484" lon="151.2909259">
  <ele>400.77</ele>
  <time>2026-09-01T19:54:04Z</time>
  <course>190.48</course>
  <speed>26.24</speed>
  <fix>3d</fix>
</trkpt>
<trkpt lat="-27.2743945" lon="151.2909149">
  <ele>400.41</ele>
  <time>2026-09-01T19:54:04Z</time>
  <course>191.99</course>
  <speed>26.497641404472212</speed>
  <fix>3d</fix>
</trkpt>
<trkpt lat="-27.2743484" lon="151.2909259">
  <ele>400.77</ele>
  <time>2026-09-01T19:54:04Z</time>
  <course>190.48</course>
  <speed>26.24</speed>
  <fix>3d</fix>
</trkpt>
<trkpt lat="-27.2744177" lon="151.2909082">
  <ele>400.22</ele>
  <time>2026-09-01T19:54:04Z</time>
  <course>193.65</course>
  <speed>26.63187000569055</speed>
  <fix>3d</fix>
</trkpt>
<trkpt lat="-27.2743947" lon="151.2909148">
  <ele>400.33</ele>
  <time>2026-09-01T19:54:04Z</time>
  <course>193.67</course>
  <speed>26.52</speed>
  <fix>3d</fix>
</trkpt>
<trkpt lat="-27.2744408" lon="151.2909007">
  <ele>400.07</ele>
  <time>2026-09-01T19:54:04Z</time>
  <course>195.27</course>
  <speed>26.75609089534568</speed>
  <fix>3d</fix>
</trkpt>
<trkpt lat="-27.2743947" lon="151.2909148">
  <ele>400.33</ele>
  <time>2026-09-01T19:54:04Z</time>
  <course>193.67</course>
  <speed>26.52</speed>
  <fix>3d</fix>
</trkpt>
<trkpt lat="-27.2744638" lon="151.2908924">
  <ele>399.94</ele>
  <time>2026-09-01T19:54:04Z</time>
  <course>196.8</course>
  <speed>26.86989579436437</speed>
  <fix>3d</fix>
</trkpt>
<trkpt lat="-27.2744409" lon="151.2909005">
  <ele>399.99</ele>
  <time>2026-09-01T19:54:04Z</time>
  <course>196.89</course>
  <speed>26.77</speed>
  <fix>3d</fix>
</trkpt>
<trkpt lat="-27.2744867" lon="151.2908833">
  <ele>399.83</ele>
  <time>2026-09-01T19:54:04Z</time>
  <course>198.3</course>
  <speed>26.960155785900053</speed>
  <fix>3d</fix>
</trkpt>
<trkpt lat="-27.2744409" lon="151.2909005">
  <ele>399.99</ele>
  <time>2026-09-01T19:54:04Z</time>
  <course>196.89</course>
  <speed>26.77</speed>
  <fix>3d</fix>
</trkpt>
<trkpt lat="-27.2745095" lon="151.2908736">
  <ele>399.75</ele>
  <time>2026-09-01T19:54:04Z</time>
  <course>199.87</course>
  <speed>27.04847500322338</speed>
  <fix>3d</fix>
</trkpt>
<trkpt lat="-27.2744867" lon="151.2908833">
  <ele>399.75</ele>
  <time>2026-09-01T19:54:04Z</time>
  <course>200.06</course>
  <speed>26.97</speed>
  <fix>3d</fix>
</trkpt>
<trkpt lat="-27.274532" lon="151.2908631">
  <ele>399.69</ele>
  <time>2026-09-01T19:54:04Z</time>
  <course>201.37</course>
  <speed>27.108214622139908</speed>
  <fix>3d</fix>
</trkpt>
<trkpt lat="-27.2744867" lon="151.2908833">
  <ele>399.75</ele>
  <time>2026-09-01T19:54:04Z</time>
  <course>200.06</course>
  <speed>26.97</speed>
  <fix>3d</fix>
</trkpt>
<trkpt lat="-27.2745543" lon="151.2908519">
  <ele>399.66</ele>
  <time>2026-09-01T19:54:04Z</time>
  <course>202.8</course>
  <speed>27.16059645884088</speed>
  <fix>3d</fix>
</trkpt>
<trkpt lat="-27.2745318" lon="151.2908632">
  <ele>399.61</ele>
  <time>2026-09-01T19:54:04Z</time>
  <course>203.14</course>
  <speed>27.11</speed>
  <fix>3d</fix>
</trkpt>
<trkpt lat="-27.2745763" lon="151.2908402">
  <ele>399.64</ele>
  <time>2026-09-01T19:54:04Z</time>
  <course>204.24</course>
  <speed>27.191331339233834</speed>
  <fix>3d</fix>
</trkpt>
<trkpt lat="-27.2745318" lon="151.2908632">
  <ele>399.61</ele>
  <time>2026-09-01T19:54:04Z</time>
  <course>203.14</course>
  <speed>27.11</speed>
  <fix>3d</fix>
</trkpt>
<trkpt lat="-27.2745981" lon="151.2908278">
  <ele>399.63</ele>
  <time>2026-09-01T19:54:04Z</time>
  <course>205.62</course>
  <speed>27.221625594368902</speed>
  <fix>3d</fix>
</trkpt>
<trkpt lat="-27.2745761" lon="151.2908403">
  <ele>399.55</ele>
  <time>2026-09-01T19:54:04Z</time>
  <course>206.1</course>
  <speed>27.19</speed>
  <fix>3d</fix>
</trkpt>
<trkpt lat="-27.2746197" lon="151.2908147">
  <ele>399.64</ele>
  <time>2026-09-01T19:54:04Z</time>
  <course>207.02</course>
  <speed>27.228082929211155</speed>
  <fix>3d</fix>
</trkpt>
<trkpt lat="-27.2745761" lon="151.2908403">
  <ele>399.55</ele>
  <time>2026-09-01T19:54:04Z</time>
  <course>206.1</course>
  <speed>27.19</speed>
  <fix>3d</fix>
</trkpt>
<trkpt lat="-27.2746409" lon="151.2908011">
  <ele>399.66</ele>
  <time>2026-09-01T19:54:04Z</time>
  <course>208.37</course>
  <speed>27.23716027782632</speed>
  <fix>3d</fix>
</trkpt>
<trkpt lat="-27.2746195" lon="151.2908149">
  <ele>399.55</ele>
  <time>2026-09-01T19:54:04Z</time>
  <course>208.94</course>
  <speed>27.23</speed>
  <fix>3d</fix>
</trkpt>
<trkpt lat="-27.2746621" lon="151.2907868">
  <ele>399.7</ele>
  <time>2026-09-01T19:54:04Z</time>
  <course>209.71</course>
  <speed>27.22103782003912</speed>
  <fix>3d</fix>
</trkpt>
<trkpt lat="-27.2746195" lon="151.2908149">
  <ele>399.55</ele>
  <time>2026-09-01T19:54:04Z</time>
  <course>208.94</course>
  <speed>27.23</speed>
  <fix>3d</fix>
</trkpt>
<trkpt lat="-27.2746827" lon="151.290772">
  <ele>399.74</ele>
  <time>2026-09-01T19:54:04Z</time>
  <course>211.04</course>
  <speed>27.201224237155213</speed>
  <fix>3d</fix>
</trkpt>
<trkpt lat="-27.2746616" lon="151.2907871">
  <ele>399.6</ele>
  <time>2026-09-01T19:54:04Z</time>
  <course>211.69</course>
  <speed>27.22</speed>
  <fix>3d</fix>
</trkpt>
<trkpt lat="-27.2747031" lon="151.2907567">
  <ele>399.78</ele>
  <time>2026-09-01T19:54:04Z</time>
  <course>212.41</course>
  <speed>27.18259185581831</speed>
  <fix>3d</fix>
</trkpt>
<trkpt lat="-27.2746616" lon="151.2907871">
  <ele>399.6</ele>
  <time>2026-09-01T19:54:04Z</time>
  <course>211.69</course>
  <speed>27.22</speed>
  <fix>3d</fix>
</trkpt>
<trkpt lat="-27.274723" lon="151.2907409">
  <ele>399.82</ele>
  <time>2026-09-01T19:54:04Z</time>
  <course>213.75</course>
  <speed>27.16271341379576</speed>
  <fix>3d</fix>
</trkpt>
<trkpt lat="-27.2747027" lon="151.2907571">
  <ele>399.67</ele>
  <time>2026-09-01T19:54:04Z</time>
  <course>214.41</course>
  <speed>27.18</speed>
  <fix>3d</fix>
</trkpt>
<trkpt lat="-27.2747427" lon="151.2907246">
  <ele>399.87</ele>
  <time>2026-09-01T19:54:04Z</time>
  <course>215.11</course>
  <speed>27.13640359369679</speed>
  <fix>3d</fix>
</trkpt>
<trkpt lat="-27.2747027" lon="151.2907571">
  <ele>399.67</ele>
  <time>2026-09-01T19:54:04Z</time>
  <course>214.41</course>
  <speed>27.18</speed>
  <fix>3d</fix>
</trkpt>
<trkpt lat="-27.2747619" lon="151.2907077">
  <ele>399.92</ele>
  <time>2026-09-01T19:54:04Z</time>
  <course>216.52</course>
  <speed>27.102407642126558</speed>
  <fix>3d</fix>
</trkpt>
<trkpt lat="-27.2747424" lon="151.2907249">
  <ele>399.76</ele>
  <time>2026-09-01T19:54:04Z</time>
  <course>217.16</course>
  <speed>27.13</speed>
  <fix>3d</fix>
</trkpt>
<trkpt lat="-27.2747808" lon="151.2906904">
  <ele>399.97</ele>
  <time>2026-09-01T19:54:04Z</time>
  <course>217.89</course>
  <speed>27.077468493195592</speed>
  <fix>3d</fix>
</trkpt>
<trkpt lat="-27.2747424" lon="151.2907249">
  <ele>399.76</ele>
  <time>2026-09-01T19:54:04Z</time>
  <course>217.16</course>
  <speed>27.13</speed>
  <fix>3d</fix>
</trkpt>
<trkpt lat="-27.2747992" lon="151.2906725">
  <ele>400.02</ele>
  <time>2026-09-01T19:54:04Z</time>
  <course>219.29</course>
  <speed>27.042242880352955</speed>
  <fix>3d</fix>
</trkpt>
<trkpt lat="-27.2747804" lon="151.2906908">
  <ele>399.86</ele>
  <time>2026-09-01T19:54:04Z</time>
  <course>219.98</course>
  <speed>27.07</speed>
  <fix>3d</fix>
</trkpt>
<trkpt lat="-27.2748172" lon="151.2906542">
  <ele>400.07</ele>
  <time>2026-09-01T19:54:04Z</time>
  <course>220.77</course>
  <speed>27.015480747156804</speed>
  <fix>3d</fix>
</trkpt>
<trkpt lat="-27.2747804" lon="151.2906908">
  <ele>399.86</ele>
  <time>2026-09-01T19:54:04Z</time>
  <course>219.98</course>
  <speed>27.07</speed>
  <fix>3d</fix>
</trkpt>
<trkpt lat="-27.2748348" lon="151.2906353">
  <ele>400.13</ele>
  <time>2026-09-01T19:54:04Z</time>
  <course>222.29</course>
  <speed>26.984677133514126</speed>
  <fix>3d</fix>
</trkpt>
<trkpt lat="-27.2748168" lon="151.2906546">
  <ele>399.97</ele>
  <time>2026-09-01T19:54:04Z</time>
  <course>222.88</course>
  <speed>27.0</speed>
  <fix>3d</fix>
</trkpt>
<trkpt lat="-27.2748518" lon="151.290616">
  <ele>400.18</ele>
  <time>2026-09-01T19:54:04Z</time>
  <course>223.81</course>
  <speed>26.95847547618374</speed>
  <fix>3d</fix>
</trkpt>
<trkpt lat="-27.2748168" lon="151.2906546">
  <ele>399.97</ele>
  <time>2026-09-01T19:54:04Z</time>
  <course>222.88</course>
  <speed>27.0</speed>
  <fix>3d</fix>
</trkpt>
<trkpt lat="-27.2748684" lon="151.2905962">
  <ele>400.23</ele>
  <time>2026-09-01T19:54:04Z</time>
  <course>225.4</course>
  <speed>26.931314487042773</speed>
  <fix>3d</fix>
</trkpt>
<trkpt lat="-27.2748514" lon="151.2906165">
  <ele>400.07</ele>
  <time>2026-09-01T19:54:04Z</time>
  <course>225.91</course>
  <speed>26.94</speed>
  <fix>3d</fix>
</trkpt>
<trkpt lat="-27.2748845" lon="151.2905758">
  <ele>400.29</ele>
  <time>2026-09-01T19:54:04Z</time>
  <course>226.98</course>
  <speed>26.905064578997017</speed>
  <fix>3d</fix>
</trkpt>
<trkpt lat="-27.2748514" lon="151.2906165">
  <ele>400.07</ele>
  <time>2026-09-01T19:54:04Z</time>
  <course>225.91</course>
  <speed>26.94</speed>
  <fix>3d</fix>
</trkpt>
<trkpt lat="-27.2749002" lon="151.2905548">
  <ele>400.34</ele>
  <time>2026-09-01T19:54:04Z</time>
  <course>228.62</course>
  <speed>26.888021496569806</speed>
  <fix>3d</fix>
</trkpt>
<trkpt lat="-27.2748841" lon="151.2905764">
  <ele>400.17</ele>
  <time>2026-09-01T19:54:04Z</time>
  <course>229.1</course>
  <speed>26.89</speed>
  <fix>3d</fix>
</trkpt>
<trkpt lat="-27.2749152" lon="151.2905335">
  <ele>400.4</ele>
  <time>2026-09-01T19:54:04Z</time>
  <course>230.32</course>
  <speed>26.859609081295286</speed>
  <fix>3d</fix>
</trkpt>
<trkpt lat="-27.2748841" lon="151.2905764">
  <ele>400.17</ele>
  <time>2026-09-01T19:54:04Z</time>
  <course>229.1</course>
  <speed>26.89</speed>
  <fix>3d</fix>
</trkpt>
<trkpt lat="-27.2749296" lon="151.2905117">
  <ele>400.46</ele>
  <time>2026-09-01T19:54:04Z</time>
  <course>232.07</course>
  <speed>26.842959970912297</speed>
  <fix>3d</fix>
</trkpt>
<trkpt lat="-27.2749146" lon="151.2905343">
  <ele>400.28</ele>
  <time>2026-09-01T19:54:04Z</time>
  <course>232.44</course>
  <speed>26.84</speed>
  <fix>3d</fix>
</trkpt>
<trkpt lat="-27.2749434" lon="151.2904895">
  <ele>400.52</ele>
  <time>2026-09-01T19:54:04Z</time>
  <course>233.78</course>
  <speed>26.831282116216514</speed>
  <fix>3d</fix>
</trkpt>
<trkpt lat="-27.2749146" lon="151.2905343">
  <ele>400.28</ele>
  <time>2026-09-01T19:54:04Z</time>
  <course>232.44</course>
  <speed>26.84</speed>
  <fix>3d</fix>
</trkpt>
<trkpt lat="-27.2749564" lon="151.2904669">
  <ele>400.58</ele>
  <time>2026-09-01T19:54:04Z</time>
  <course>235.54</course>
  <speed>26.82025540519702</speed>
  <fix>3d</fix>
</trkpt>
<trkpt lat="-27.2749428" lon="151.2904904">
  <ele>400.4</ele>
  <time>2026-09-01T19:54:04Z</time>
  <course>235.92</course>
  <speed>26.8</speed>
  <fix>3d</fix>
</trkpt>
<trkpt lat="-27.2749689" lon="151.2904437">
  <ele>400.64</ele>
  <time>2026-09-01T19:54:04Z</time>
  <course>237.37</course>
  <speed>26.803134145095793</speed>
  <fix>3d</fix>
</trkpt>
<trkpt lat="-27.2749428" lon="151.2904904">
  <ele>400.4</ele>
  <time>2026-09-01T19:54:04Z</time>
  <course>235.92</course>
  <speed>26.8</speed>
  <fix>3d</fix>
</trkpt>
<trkpt lat="-27.2749808" lon="151.2904201">
  <ele>400.71</ele>
  <time>2026-09-01T19:54:04Z</time>
  <course>239.25</course>
  <speed>26.79021649781875</speed>
  <fix>3d</fix>
</trkpt>
<trkpt lat="-27.2749685" lon="151.2904446">
  <ele>400.52</ele>
  <time>2026-09-01T19:54:04Z</time>
  <course>239.55</course>
  <speed>26.77</speed>
  <fix>3d</fix>
</trkpt>
<trkpt lat="-27.2749919" lon="151.2903961">
  <ele>400.78</ele>
  <time>2026-09-01T19:54:04Z</time>
  <course>241.14</course>
  <speed>26.770224130552215</speed>
  <fix>3d</fix>
</trkpt>
<trkpt lat="-27.2749685" lon="151.2904446">
  <ele>400.52</ele>
  <time>2026-09-01T19:54:04Z</time>
  <course>239.55</course>
  <speed>26.77</speed>
  <fix>3d</fix>
</trkpt>
<trkpt lat="-27.2750024" lon="151.2903715">
  <ele>400.85</ele>
  <time>2026-09-01T19:54:04Z</time>
  <course>243.09</course>
  <speed>26.757587708909785</speed>
  <fix>3d</fix>
</trkpt>
<trkpt lat="-27.2749915" lon="151.2903971">
  <ele>400.65</ele>
  <time>2026-09-01T19:54:04Z</time>
  <course>243.3</course>
  <speed>26.73</speed>
  <fix>3d</fix>
</trkpt>
<trkpt lat="-27.2750121" lon="151.2903469">
  <ele>400.93</ele>
  <time>2026-09-01T19:54:04Z</time>
  <course>245.03</course>
  <speed>26.721624202132624</speed>
  <fix>3d</fix>
</trkpt>
<trkpt lat="-27.2749915" lon="151.2903971">
  <ele>400.65</ele>
  <time>2026-09-01T19:54:04Z</time>
  <course>243.3</course>
  <speed>26.73</speed>
  <fix>3d</fix>
</trkpt>
<trkpt lat="-27.2750209" lon="151.290322">
  <ele>401.0</ele>
  <time>2026-09-01T19:54:04Z</time>
  <course>246.98</course>
  <speed>26.69031472276039</speed>
  <fix>3d</fix>
</trkpt>
<trkpt lat="-27.2750116" lon="151.2903481">
  <ele>400.78</ele>
  <time>2026-09-01T19:54:04Z</time>
  <course>247.15</course>
  <speed>26.69</speed>
  <fix>3d</fix>
</trkpt>
<trkpt lat="-27.275029" lon="151.2902968">
  <ele>401.08</ele>
  <time>2026-09-01T19:54:04Z</time>
  <course>248.97</course>
  <speed>26.658675886097566</speed>
  <fix>3d</fix>
</trkpt>
<trkpt lat="-27.2750116" lon="151.2903481">
  <ele>400.78</ele>
  <time>2026-09-01T19:54:04Z</time>
  <course>247.15</course>
  <speed>26.69</speed>
  <fix>3d</fix>
</trkpt>
<trkpt lat="-27.2750363" lon="151.2902713">
  <ele>401.17</ele>
  <time>2026-09-01T19:54:04Z</time>
  <course>250.96</course>
  <speed>26.6305125748642</speed>
  <fix>3d</fix>
</trkpt>
<trkpt lat="-27.2750287" lon="151.2902977">
  <ele>400.93</ele>
  <time>2026-09-01T19:54:04Z</time>
  <course>251.09</course>
  <speed>26.64</speed>
  <fix>3d</fix>
</trkpt>
<trkpt lat="-27.2750428" lon="151.2902456">
  <ele>401.25</ele>
  <time>2026-09-01T19:54:04Z</time>
  <course>252.96</course>
  <speed>26.58695356749246</speed>
  <fix>3d</fix>
</trkpt>
<trkpt lat="-27.2750287" lon="151.2902977">
  <ele>400.93</ele>
  <time>2026-09-01T19:54:04Z</time>
  <course>251.09</course>
  <speed>26.64</speed>
  <fix>3d</fix>
</trkpt>
<trkpt lat="-27.2750485" lon="151.2902197">
  <ele>401.33</ele>
  <time>2026-09-01T19:54:04Z</time>
  <course>254.98</course>
  <speed>26.553758679328244</speed>
  <fix>3d</fix>
</trkpt>
<trkpt lat="-27.2750426" lon="151.2902462">
  <ele>401.09</ele>
  <time>2026-09-01T19:54:04Z</time>
  <course>255.09</course>
  <speed>26.59</speed>
  <fix>3d</fix>
</trkpt>
<trkpt lat="-27.2750533" lon="151.2901936">
  <ele>401.42</ele>
  <time>2026-09-01T19:54:04Z</time>
  <course>256.95</course>
  <speed>26.511921846595733</speed>
  <fix>3d</fix>
</trkpt>
<trkpt lat="-27.2750426" lon="151.2902462">
  <ele>401.09</ele>
  <time>2026-09-01T19:54:04Z</time>
  <course>255.09</course>
  <speed>26.59</speed>
  <fix>3d</fix>
</trkpt>
<trkpt lat="-27.2750574" lon="151.2901673">
  <ele>401.5</ele>
  <time>2026-09-01T19:54:04Z</time>
  <course>258.91</course>
  <speed>26.474714351622378</speed>
  <fix>3d</fix>
</trkpt>
<trkpt lat="-27.2750533" lon="151.2901938">
  <ele>401.24</ele>
  <time>2026-09-01T19:54:04Z</time>
  <course>259.1</course>
  <speed>26.52</speed>
  <fix>3d</fix>
</trkpt>
<trkpt lat="-27.2750606" lon="151.2901409">
  <ele>401.57</ele>
  <time>2026-09-01T19:54:04Z</time>
  <course>260.97</course>
  <speed>26.42720567899679</speed>
  <fix>3d</fix>
</trkpt>
<trkpt lat="-27.2750533" lon="151.2901938">
  <ele>401.24</ele>
  <time>2026-09-01T19:54:04Z</time>
  <course>259.1</course>
  <speed>26.52</speed>
  <fix>3d</fix>
</trkpt>
<trkpt lat="-27.275063" lon="151.2901144">
  <ele>401.65</ele>
  <time>2026-09-01T19:54:04Z</time>
  <course>263.02</course>
  <speed>26.39185480408681</speed>
  <fix>3d</fix>
</trkpt>
<trkpt lat="-27.2750606" lon="151.2901409">
  <ele>401.39</ele>
  <time>2026-09-01T19:54:04Z</time>
  <course>263.13</course>
  <speed>26.45</speed>
  <fix>3d</fix>
</trkpt>
<trkpt lat="-27.2750646" lon="151.2900879">
  <ele>401.72</ele>
  <time>2026-09-01T19:54:04Z</time>
  <course>265.07</course>
  <speed>26.349666032039192</speed>
  <fix>3d</fix>
</trkpt>
<trkpt lat="-27.2750606" lon="151.2901409">
  <ele>401.39</ele>
  <time>2026-09-01T19:54:04Z</time>
  <course>263.13</course>
  <speed>26.45</speed>
  <fix>3d</fix>
</trkpt>
<trkpt lat="-27.2750653" lon="151.2900614">
  <ele>401.8</ele>
  <time>2026-09-01T19:54:04Z</time>
  <course>267.12</course>
  <speed>26.31182623840466</speed>
  <fix>3d</fix>
</trkpt>
<trkpt lat="-27.2750645" lon="151.2900877">
  <ele>401.53</ele>
  <time>2026-09-01T19:54:04Z</time>
  <course>267.2</course>
  <speed>26.38</speed>
  <fix>3d</fix>
</trkpt>
<trkpt lat="-27.2750651" lon="151.2900349">
  <ele>401.87</ele>
  <time>2026-09-01T19:54:04Z</time>
  <course>269.14</course>
  <speed>26.267318096828994</speed>
  <fix>3d</fix>
</trkpt>
<trkpt lat="-27.2750645" lon="151.2900877">
  <ele>401.53</ele>
  <time>2026-09-01T19:54:04Z</time>
  <course>267.2</course>
  <speed>26.38</speed>
  <fix>3d</fix>
</trkpt>
<trkpt lat="-27.2750643" lon="151.2900084">
  <ele>401.93</ele>
  <time>2026-09-01T19:54:04Z</time>
  <course>271.19</course>
  <speed>26.225844123688375</speed>
  <fix>3d</fix>
</trkpt>
<trkpt lat="-27.2750652" lon="151.2900346">
  <ele>401.66</ele>
  <time>2026-09-01T19:54:04Z</time>
  <course>271.3</course>
  <speed>26.31</speed>
  <fix>3d</fix>
</trkpt>
<trkpt lat="-27.2750625" lon="151.2899821">
  <ele>402.0</ele>
  <time>2026-09-01T19:54:04Z</time>
  <course>273.26</course>
  <speed>26.18769367470148</speed>
  <fix>3d</fix>
</trkpt>
<trkpt lat="-27.2750652" lon="151.2900346">
  <ele>401.66</ele>
  <time>2026-09-01T19:54:04Z</time>
  <course>271.3</course>
  <speed>26.31</speed>
  <fix>3d</fix>
</trkpt>
<trkpt lat="-27.2750598" lon="151.2899558">
  <ele>402.05</ele>
  <time>2026-09-01T19:54:04Z</time>
  <course>275.32</course>
  <speed>26.14334523353888</speed>
  <fix>3d</fix>
</trkpt>
<trkpt lat="-27.2750625" lon="151.2899815">
  <ele>401.78</ele>
  <time>2026-09-01T19:54:04Z</time>
  <course>275.4</course>
  <speed>26.23</speed>
  <fix>3d</fix>
</trkpt>
<trkpt lat="-27.2750564" lon="151.2899298">
  <ele>402.11</ele>
  <time>2026-09-01T19:54:04Z</time>
  <course>277.38</course>
  <speed>26.10165703552171</speed>
  <fix>3d</fix>
</trkpt>
<trkpt lat="-27.2750625" lon="151.2899815">
  <ele>401.78</ele>
  <time>2026-09-01T19:54:04Z</time>
  <course>275.4</course>
  <speed>26.23</speed>
  <fix>3d</fix>
</trkpt>
<trkpt lat="-27.2750521" lon="151.2899039">
  <ele>402.15</ele>
  <time>2026-09-01T19:54:04Z</time>
  <course>279.46</course>
  <speed>26.06220443477489</speed>
  <fix>3d</fix>
</trkpt>
<trkpt lat="-27.2750563" lon="151.2899291">
  <ele>401.89</ele>
  <time>2026-09-01T19:54:04Z</time>
  <course>279.5</course>
  <speed>26.15</speed>
  <fix>3d</fix>
</trkpt>
<trkpt lat="-27.275047" lon="151.2898782">
  <ele>402.19</ele>
  <time>2026-09-01T19:54:04Z</time>
  <course>281.51</course>
  <speed>26.02940068461047</speed>
  <fix>3d</fix>
</trkpt>
<trkpt lat="-27.2750563" lon="151.2899291">
  <ele>401.89</ele>
  <time>2026-09-01T19:54:04Z</time>
  <course>279.5</course>
  <speed>26.15</speed>
  <fix>3d</fix>
</trkpt>
<trkpt lat="-27.2750411" lon="151.2898528">
  <ele>402.23</ele>
  <time>2026-09-01T19:54:04Z</time>
  <course>283.6</course>
  <speed>25.9873757813289</speed>
  <fix>3d</fix>
</trkpt>
<trkpt lat="-27.275047" lon="151.2898773">
  <ele>401.97</ele>
  <time>2026-09-01T19:54:04Z</time>
  <course>283.64</course>
  <speed>26.08</speed>
  <fix>3d</fix>
</trkpt>
<trkpt lat="-27.2750343" lon="151.2898274">
  <ele>402.27</ele>
  <time>2026-09-01T19:54:04Z</time>
  <course>285.71</course>
  <speed>25.95094603285206</speed>
  <fix>3d</fix>
</trkpt>
<trkpt lat="-27.275047" lon="151.2898773">
  <ele>401.97</ele>
  <time>2026-09-01T19:54:04Z</time>
  <course>283.64</course>
  <speed>26.08</speed>
  <fix>3d</fix>
</trkpt>
<trkpt lat="-27.2750267" lon="151.2898026">
  <ele>402.3</ele>
  <time>2026-09-01T19:54:04Z</time>
  <course>287.75</course>
  <speed>25.92378251721766</speed>
  <fix>3d</fix>
</trkpt>
<trkpt lat="-27.2750343" lon="151.2898267">
  <ele>402.05</ele>
  <time>2026-09-01T19:54:04Z</time>
  <course>287.8</course>
  <speed>26.01</speed>
  <fix>3d</fix>
</trkpt>
<trkpt lat="-27.2750184" lon="151.2897782">
  <ele>402.32</ele>
  <time>2026-09-01T19:54:04Z</time>
  <course>289.84</course>
  <speed>25.886096654381863</speed>
  <fix>3d</fix>
</trkpt>
<trkpt lat="-27.2750343" lon="151.2898267">
  <ele>402.05</ele>
  <time>2026-09-01T19:54:04Z</time>
  <course>287.8</course>
  <speed>26.01</speed>
  <fix>3d</fix>
</trkpt>
<trkpt lat="-27.2750094" lon="151.2897541">
  <ele>402.34</ele>
  <time>2026-09-01T19:54:04Z</time>
  <course>291.93</course>
  <speed>25.863984611811073</speed>
  <fix>3d</fix>
</trkpt>
<trkpt lat="-27.2750184" lon="151.2897773">
  <ele>402.09</ele>
  <time>2026-09-01T19:54:04Z</time>
  <course>291.96</course>
  <speed>25.95</speed>
  <fix>3d</fix>
</trkpt>
<trkpt lat="-27.2749995" lon="151.2897304">
  <ele>402.36</ele>
  <time>2026-09-01T19:54:04Z</time>
  <course>294.0</course>
  <speed>25.840590163539222</speed>
  <fix>3d</fix>
</trkpt>
<trkpt lat="-27.2750184" lon="151.2897773">
  <ele>402.09</ele>
  <time>2026-09-01T19:54:04Z</time>
  <course>291.96</course>
  <speed>25.95</speed>
  <fix>3d</fix>
</trkpt>
<trkpt lat="-27.274989" lon="151.2897072">
  <ele>402.37</ele>
  <time>2026-09-01T19:54:04Z</time>
  <course>296.1</course>
  <speed>25.806613493443884</speed>
  <fix>3d</fix>
</trkpt>
<trkpt lat="-27.2749994" lon="151.2897294">
  <ele>402.13</ele>
  <time>2026-09-01T19:54:04Z</time>
  <course>296.13</course>
  <speed>25.89</speed>
  <fix>3d</fix>
</trkpt>
<trkpt lat="-27.2749776" lon="151.2896844">
  <ele>402.37</ele>
  <time>2026-09-01T19:54:04Z</time>
  <course>298.22</course>
  <speed>25.784557393913122</speed>
  <fix>3d</fix>
</trkpt>
<trkpt lat="-27.2749994" lon="151.2897294">
  <ele>402.13</ele>
  <time>2026-09-01T19:54:04Z</time>
  <course>296.13</course>
  <speed>25.89</speed>
  <fix>3d</fix>
</trkpt>
<trkpt lat="-27.2749656" lon="151.2896621">
  <ele>402.38</ele>
  <time>2026-09-01T19:54:04Z</time>
  <course>300.33</course>
  <speed>25.977105304479174</speed>
  <fix>3d</fix>
</trkpt>
<trkpt lat="-27.2749774" lon="151.2896832">
  <ele>402.15</ele>
  <time>2026-09-01T19:54:04Z</time>
  <course>300.33</course>
  <speed>25.94</speed>
  <fix>3d</fix>
</trkpt>
<trkpt lat="-27.2749526" lon="151.28964">
  <ele>402.38</ele>
  <time>2026-09-01T19:54:04Z</time>
  <course>302.44</course>
  <speed>26.23494044208982</speed>
  <fix>3d</fix>
</trkpt>
<trkpt lat="-27.2749774" lon="151.2896832">
  <ele>402.15</ele>
  <time>2026-09-01T19:54:04Z</time>
  <course>300.33</course>
  <speed>25.94</speed>
  <fix>3d</fix>
</trkpt>
<trkpt lat="-27.2749388" lon="151.2896183">
  <ele>402.39</ele>
  <time>2026-09-01T19:54:04Z</time>
  <course>304.59</course>
  <speed>26.562132820991614</speed>
  <fix>3d</fix>
</trkpt>
<trkpt lat="-27.2749523" lon="151.2896388">
  <ele>402.16</ele>
  <time>2026-09-01T19:54:04Z</time>
  <course>304.57</course>
  <speed>26.3</speed>
  <fix>3d</fix>
</trkpt>
<trkpt lat="-27.2749241" lon="151.2895968">
  <ele>402.41</ele>
  <time>2026-09-01T19:54:04Z</time>
  <course>306.86</course>
  <speed>26.913524481197182</speed>
  <fix>3d</fix>
</trkpt>
<trkpt lat="-27.2749523" lon="151.2896388">
  <ele>402.16</ele>
  <time>2026-09-01T19:54:04Z</time>
  <course>304.57</course>
  <speed>26.3</speed>
  <fix>3d</fix>
</trkpt>
<trkpt lat="-27.2749085" lon="151.2895758">
  <ele>402.45</ele>
  <time>2026-09-01T19:54:04Z</time>
  <course>309.26</course>
  <speed>27.25570215569579</speed>
  <fix>3d</fix>
</trkpt>
<trkpt lat="-27.2749237" lon="151.2895957">
  <ele>402.2</ele>
  <time>2026-09-01T19:54:04Z</time>
  <course>308.84</course>
  <speed>26.94</speed>
  <fix>3d</fix>
</trkpt>
<trkpt lat="-27.2748921" lon="151.2895551">
  <ele>402.55</ele>
  <time>2026-09-01T19:54:04Z</time>
  <course>311.59</course>
  <speed>27.53690251280997</speed>
  <fix>3d</fix>
</trkpt>
<trkpt lat="-27.2749237" lon="151.2895957">
  <ele>402.2</ele>
  <time>2026-09-01T19:54:04Z</time>
  <course>308.84</course>
  <speed>26.94</speed>
  <fix>3d</fix>
</trkpt>
<trkpt lat="-27.2748748" lon="151.289535">
  <ele>402.73</ele>
  <time>2026-09-01T19:54:04Z</time>
  <course>313.7</course>
  <speed>27.761102283590976</speed>
  <fix>3d</fix>
</trkpt>
<trkpt lat="-27.2748915" lon="151.2895541">
  <ele>402.37</ele>
  <time>2026-09-01T19:54:04Z</time>
  <course>312.94</course>
  <speed>27.54</speed>
  <fix>3d</fix>
</trkpt>
<trkpt lat="-27.274857" lon="151.2895153">
  <ele>402.99</ele>
  <time>2026-09-01T19:54:04Z</time>
  <course>315.47</course>
  <speed>27.89587783167972</speed>
  <fix>3d</fix>
</trkpt>
<trkpt lat="-27.2748915" lon="151.2895541">
  <ele>402.37</ele>
  <time>2026-09-01T19:54:04Z</time>
  <course>312.94</course>
  <speed>27.54</speed>
  <fix>3d</fix>
</trkpt>
<trkpt lat="-27.2748387" lon="151.289496">
  <ele>403.37</ele>
  <time>2026-09-01T19:54:04Z</time>
  <course>316.96</course>
  <speed>27.914798942496432</speed>
  <fix>3d</fix>
</trkpt>
<trkpt lat="-27.2748565" lon="151.2895143">
  <ele>402.81</ele>
  <time>2026-09-01T19:54:04Z</time>
  <course>316.23</course>
  <speed>27.89</speed>
  <fix>3d</fix>
</trkpt>
<trkpt lat="-27.2748201" lon="151.2894771">
  <ele>403.87</ele>
  <time>2026-09-01T19:54:04Z</time>
  <course>318.08</course>
  <speed>27.810278675338726</speed>
  <fix>3d</fix>
</trkpt>
<trkpt lat="-27.2748565" lon="151.2895143">
  <ele>402.81</ele>
  <time>2026-09-01T19:54:04Z</time>
  <course>316.23</course>
  <speed>27.89</speed>
  <fix>3d</fix>
</trkpt>
<trkpt lat="-27.2748014" lon="151.2894586">
  <ele>404.52</ele>
  <time>2026-09-01T19:54:04Z</time>
  <course>318.91</course>
  <speed>27.541846343337262</speed>
  <fix>3d</fix>
</trkpt>
<trkpt lat="-27.2748197" lon="151.2894761">
  <ele>403.69</ele>
  <time>2026-09-01T19:54:04Z</time>
  <course>318.4</course>
  <speed>27.8</speed>
  <fix>3d</fix>
</trkpt>
<trkpt lat="-27.2747828" lon="151.2894406">
  <ele>405.32</ele>
  <time>2026-09-01T19:54:04Z</time>
  <course>319.65</course>
  <speed>27.082018019342648</speed>
  <fix>3d</fix>
</trkpt>
<trkpt lat="-27.2748197" lon="151.2894761">
  <ele>403.69</ele>
  <time>2026-09-01T19:54:04Z</time>
  <course>318.4</course>
  <speed>27.8</speed>
  <fix>3d</fix>
</trkpt>
<trkpt lat="-27.2747644" lon="151.2894232">
  <ele>406.29</ele>
  <time>2026-09-01T19:54:04Z</time>
  <course>320.31</course>
  <speed>26.42429374647504</speed>
  <fix>3d</fix>
</trkpt>
<trkpt lat="-27.2747823" lon="151.2894398">
  <ele>405.13</ele>
  <time>2026-09-01T19:54:04Z</time>
  <course>319.84</course>
  <speed>27.06</speed>
  <fix>3d</fix>
</trkpt>
<trkpt lat="-27.2747465" lon="151.2894066">
  <ele>407.41</ele>
  <time>2026-09-01T19:54:04Z</time>
  <course>320.93</course>
  <speed>25.5618035357445</speed>
  <fix>3d</fix>
</trkpt>
<trkpt lat="-27.2747823" lon="151.2894398">
  <ele>405.13</ele>
  <time>2026-09-01T19:54:04Z</time>
  <course>319.84</course>
  <speed>27.06</speed>
  <fix>3d</fix>
</trkpt>
<trkpt lat="-27.2747289" lon="151.2893907">
  <ele>408.73</ele>
  <time>2026-09-01T19:54:04Z</time>
  <course>321.78</course>
  <speed>24.73801932249225</speed>
  <fix>3d</fix>
</trkpt>
<trkpt lat="-27.2747458" lon="151.2894059">
  <ele>407.21</ele>
  <time>2026-09-01T19:54:04Z</time>
  <course>321.06</course>
  <speed>25.68</speed>
  <fix>3d</fix>
</trkpt>
<trkpt lat="-27.2747118" lon="151.2893756">
  <ele>410.21</ele>
  <time>2026-09-01T19:54:04Z</time>
  <course>321.38</course>
  <speed>23.548148547178823</speed>
  <fix>3d</fix>
</trkpt>
<trkpt lat="-27.2747458" lon="151.2894059">
  <ele>407.21</ele>
  <time>2026-09-01T19:54:04Z</time>
  <course>321.06</course>
  <speed>25.68</speed>
  <fix>3d</fix>
</trkpt>
<trkpt lat="-27.2746955" lon="151.2893613">
  <ele>411.79</ele>
  <time>2026-09-01T19:54:04Z</time>
  <course>320.15</course>
  <speed>22.578239523931003</speed>
  <fix>3d</fix>
</trkpt>
<trkpt lat="-27.2747458" lon="151.2894059">
  <ele>407.21</ele>
  <time>2026-09-01T19:54:04Z</time>
  <course>321.06</course>
  <speed>25.68</speed>
  <fix>3d</fix>
</trkpt>
<trkpt lat="-27.2746797" lon="151.2893476">
  <ele>413.41</ele>
  <time>2026-09-01T19:54:04Z</time>
  <course>319.14</course>
  <speed>21.716100018189266</speed>
  <fix>3d</fix>
</trkpt>
<trkpt lat="-27.2747109" lon="151.2893748">
  <ele>409.94</ele>
  <time>2026-09-01T19:54:04Z</time>
  <course>322.12</course>
  <speed>23.75</speed>
  <fix>3d</fix>
</trkpt>
<trkpt lat="-27.2746645" lon="151.2893344">
  <ele>415.09</ele>
  <time>2026-09-01T19:54:04Z</time>
  <course>318.63</course>
  <speed>20.764404638708044</speed>
  <fix>3d</fix>
</trkpt>
<trkpt lat="-27.2747109" lon="151.2893748">
  <ele>409.94</ele>
  <time>2026-09-01T19:54:04Z</time>
  <course>322.12</course>
  <speed>23.75</speed>
  <fix>3d</fix>
</trkpt>
<trkpt lat="-27.2746501" lon="151.2893219">
  <ele>416.78</ele>
  <time>2026-09-01T19:54:04Z</time>
  <course>318.93</course>
  <speed>19.614545623082886</speed>
  <fix>3d</fix>
</trkpt>
<trkpt lat="-27.2746785" lon="151.2893467">
  <ele>413.09</ele>
  <time>2026-09-01T19:54:04Z</time>
  <course>322.55</course>
  <speed>21.76</speed>
  <fix>3d</fix>
</trkpt>
<trkpt lat="-27.2746366" lon="151.2893102">
  <ele>418.54</ele>
  <time>2026-09-01T19:54:04Z</time>
  <course>318.79</course>
  <speed>18.218276537587194</speed>
  <fix>3d</fix>
</trkpt>
<trkpt lat="-27.274649" lon="151.2893212">
  <ele>416.42</ele>
  <time>2026-09-01T19:54:04Z</time>
  <course>322.53</course>
  <speed>19.59</speed>
  <fix>3d</fix>
</trkpt>
<trkpt lat="-27.2746242" lon="151.2892994">
  <ele>420.32</ele>
  <time>2026-09-01T19:54:04Z</time>
  <course>317.99</course>
  <speed>16.629939867600243</speed>
  <fix>3d</fix>
</trkpt>
<trkpt lat="-27.274649" lon="151.2893212">
  <ele>416.42</ele>
  <time>2026-09-01T19:54:04Z</time>
  <course>322.53</course>
  <speed>19.59</speed>
  <fix>3d</fix>
</trkpt>
<trkpt lat="-27.2746129" lon="151.2892897">
  <ele>422.15</ele>
  <time>2026-09-01T19:54:04Z</time>
  <course>317.21</course>
  <speed>14.901342221424215</speed>
  <fix>3d</fix>
</trkpt>
<trkpt lat="-27.274623" lon="151.2892989">
  <ele>419.91</ele>
  <time>2026-09-01T19:54:04Z</time>
  <course>322.6</course>
  <speed>16.67</speed>
  <fix>3d</fix>
</trkpt>
<trkpt lat="-27.2746029" lon="151.2892811">
  <ele>424.0</ele>
  <time>2026-09-01T19:54:04Z</time>
  <course>317.23</course>
  <speed>13.104567905886864</speed>
  <fix>3d</fix>
</trkpt>
<trkpt lat="-27.274623" lon="151.2892989">
  <ele>419.91</ele>
  <time>2026-09-01T19:54:04Z</time>
  <course>322.6</course>
  <speed>16.67</speed>
  <fix>3d</fix>
</trkpt>
<trkpt lat="-27.2745941" lon="151.2892736">
  <ele>425.89</ele>
  <time>2026-09-01T19:54:04Z</time>
  <course>318.3</course>
  <speed>11.25402150344489</speed>
  <fix>3d</fix>
</trkpt>
<trkpt lat="-27.2746016" lon="151.2892806">
  <ele>423.55</ele>
  <time>2026-09-01T19:54:04Z</time>
  <course>323.0</course>
  <speed>13.19</speed>
  <fix>3d</fix>
</trkpt>
<trkpt lat="-27.2745865" lon="151.2892674">
  <ele>427.78</ele>
  <time>2026-09-01T19:54:04Z</time>
  <course>318.88</course>
  <speed>9.38441260814975</speed>
  <fix>3d</fix>
</trkpt>
<trkpt lat="-27.2746016" lon="151.2892806">
  <ele>423.55</ele>
  <time>2026-09-01T19:54:04Z</time>
  <course>323.0</course>
  <speed>13.19</speed>
  <fix>3d</fix>
</trkpt>
<trkpt lat="-27.2745803" lon="151.2892624">
  <ele>429.67</ele>
  <time>2026-09-01T19:54:04Z</time>
  <course>318.1</course>
  <speed>7.502666192761077</speed>
  <fix>3d</fix>
</trkpt>
<trkpt lat="-27.2745853" lon="151.289267">
  <ele>427.27</ele>
  <time>2026-09-01T19:54:04Z</time>
  <course>324.1</course>
  <speed>9.48</speed>
  <fix>3d</fix>
</trkpt>
<trkpt lat="-27.2745753" lon="151.2892586">
  <ele>431.52</ele>
  <time>2026-09-01T19:54:04Z</time>
  <course>318.82</course>
  <speed>5.59422023163193</speed>
  <fix>3d</fix>
</trkpt>
<trkpt lat="-27.2745853" lon="151.289267">
  <ele>427.27</ele>
  <time>2026-09-01T19:54:04Z</time>
  <course>324.1</course>
  <speed>9.48</speed>
  <fix>3d</fix>
</trkpt>
<trkpt lat="-27.2745717" lon="151.2892563">
  <ele>433.35</ele>
  <time>2026-09-01T19:54:04Z</time>
  <course>338.54</course>
  <speed>3.3590028282214943</speed>
  <fix>3d</fix>
</trkpt>
<trkpt lat="-27.2745741" lon="151.2892583">
  <ele>430.97</ele>
  <time>2026-09-01T19:54:04Z</time>
  <course>327.62</course>
  <speed>5.53</speed>
  <fix>3d</fix>
</trkpt>
<trkpt lat="-27.2745697" lon="151.2892555">
  <ele>435.11</ele>
  <time>2026-09-01T19:54:04Z</time>
  <course>82.74</course>
  <speed>1.3006152390311285</speed>
  <fix>3d</fix>
</trkpt>
<trkpt lat="-27.2745741" lon="151.2892583">
  <ele>430.97</ele>
  <time>2026-09-01T19:54:04Z</time>
  <course>327.62</course>
  <speed>5.53</speed>
  <fix>3d</fix>
</trkpt>
<trkpt lat="-27.274569" lon="151.2892563">
  <ele>436.79</ele>
  <time>2026-09-01T19:54:04Z</time>
  <course>89.14</course>
  <speed>1.3500370365289984</speed>
  <fix>3d</fix>
</trkpt>
<trkpt lat="-27.2745686" lon="151.2892552">
  <ele>434.51</ele>
  <time>2026-09-01T19:54:04Z</time>
  <course>355.68</course>
  <speed>1.59</speed>
  <fix>3d</fix>
</trkpt>
<trkpt lat="-27.2745692" lon="151.2892581">
  <ele>438.37</ele>
  <time>2026-09-01T19:54:04Z</time>
  <course>88.91</course>
  <speed>2.3622235287965445</speed>
  <fix>3d</fix>
</trkpt>
<trkpt lat="-27.2745686" lon="151.2892552">
  <ele>434.51</ele>
  <time>2026-09-01T19:54:04Z</time>
  <course>355.68</course>
  <speed>1.59</speed>
  <fix>3d</fix>
</trkpt>
<trkpt lat="-27.27457" lon="151.2892606">
  <ele>439.85</ele>
  <time>2026-09-01T19:54:04Z</time>
  <course>89.4</course>
  <speed>3.0324412607666447</speed>
  <fix>3d</fix>
</trkpt>
<trkpt lat="-27.2745679" lon="151.2892574">
  <ele>437.74</ele>
  <time>2026-09-01T19:54:04Z</time>
  <course>104.18</course>
  <speed>2.14</speed>
  <fix>3d</fix>
</trkpt>
<trkpt lat="-27.2745709" lon="151.2892635">
  <ele>441.25</ele>
  <time>2026-09-01T19:54:04Z</time>
  <course>89.48</course>
  <speed>3.3854098717880525</speed>
  <fix>3d</fix>
</trkpt>
<trkpt lat="-27.2745679" lon="151.2892574">
  <ele>437.74</ele>
  <time>2026-09-01T19:54:04Z</time>
  <course>104.18</course>
  <speed>2.14</speed>
  <fix>3d</fix>
</trkpt>
<trkpt lat="-27.2745719" lon="151.2892667">
  <ele>442.55</ele>
  <time>2026-09-01T19:54:04Z</time>
  <course>87.99</course>
  <speed>3.55613554297358</speed>
  <fix>3d</fix>
</trkpt>
<trkpt lat="-27.2745695" lon="151.2892627">
  <ele>440.6</ele>
  <time>2026-09-01T19:54:04Z</time>
  <course>111.62</course>
  <speed>3.32</speed>
  <fix>3d</fix>
</trkpt>
<trkpt lat="-27.2745728" lon="151.2892699">
  <ele>443.78</ele>
  <time>2026-09-01T19:54:04Z</time>
  <course>86.09</course>
  <speed>3.6156465535226197</speed>
  <fix>3d</fix>
</trkpt>
<trkpt lat="-27.2745695" lon="151.2892627">
  <ele>440.6</ele>
  <time>2026-09-01T19:54:04Z</time>
  <course>111.62</course>
  <speed>3.32</speed>
  <fix>3d</fix>
</trkpt>
<trkpt lat="-27.2745738" lon="151.2892733">
  <ele>444.93</ele>
  <time>2026-09-01T19:54:04Z</time>
  <course>86.89</course>
  <speed>3.627133854712285</speed>
  <fix>3d</fix>
</trkpt>
<trkpt lat="-27.2745717" lon="151.2892694">
  <ele>443.12</ele>
  <time>2026-09-01T19:54:04Z</time>
  <course>110.09</course>
  <speed>3.64</speed>
  <fix>3d</fix>
</trkpt>
<trkpt lat="-27.2745746" lon="151.2892767">
  <ele>446.01</ele>
  <time>2026-09-01T19:54:04Z</time>
  <course>91.06</course>
  <speed>3.6062445840513924</speed>
  <fix>3d</fix>
</trkpt>
<trkpt lat="-27.2745717" lon="151.2892694">
  <ele>443.12</ele>
  <time>2026-09-01T19:54:04Z</time>
  <course>110.09</course>
  <speed>3.64</speed>
  <fix>3d</fix>
</trkpt>
<trkpt lat="-27.2745755" lon="151.2892801">
  <ele>447.02</ele>
  <time>2026-09-01T19:54:04Z</time>
  <course>94.11</course>
  <speed>3.5468295701936396</speed>
  <fix>3d</fix>
</trkpt>
<trkpt lat="-27.2745717" lon="151.2892694">
  <ele>443.12</ele>
  <time>2026-09-01T19:54:04Z</time>
  <course>110.09</course>
  <speed>3.64</speed>
  <fix>3d</fix>
</trkpt>
<trkpt lat="-27.2745762" lon="151.2892835">
  <ele>447.96</ele>
  <time>2026-09-01T19:54:04Z</time>
  <course>94.88</course>
  <speed>3.470705980056507</speed>
  <fix>3d</fix>
</trkpt>
<trkpt lat="-27.2745739" lon="151.2892764">
  <ele>445.33</ele>
  <time>2026-09-01T19:54:04Z</time>
  <course>107.35</course>
  <speed>3.66</speed>
  <fix>3d</fix>
</trkpt>
<trkpt lat="-27.2745768" lon="151.2892868">
  <ele>448.82</ele>
  <time>2026-09-01T19:54:04Z</time>
  <course>94.53</course>
  <speed>3.3895427420228823</speed>
  <fix>3d</fix>
</trkpt>
<trkpt lat="-27.2745739" lon="151.2892764">
  <ele>445.33</ele>
  <time>2026-09-01T19:54:04Z</time>
  <course>107.35</course>
  <speed>3.66</speed>
  <fix>3d</fix>
</trkpt>
<trkpt lat="-27.2745774" lon="151.2892902">
  <ele>449.65</ele>
  <time>2026-09-01T19:54:04Z</time>
  <course>95.44</course>
  <speed>3.2889664029904595</speed>
  <fix>3d</fix>
</trkpt>
<trkpt lat="-27.2745757" lon="151.2892834">
  <ele>447.24</ele>
  <time>2026-09-01T19:54:04Z</time>
  <course>104.55</course>
  <speed>3.55</speed>
  <fix>3d</fix>
</trkpt>
<trkpt lat="-27.2745779" lon="151.2892934">
  <ele>450.38</ele>
  <time>2026-09-01T19:54:04Z</time>
  <course>98.05</course>
  <speed>3.2041379495895614</speed>
  <fix>3d</fix>
</trkpt>
<trkpt lat="-27.2745757" lon="151.2892834">
  <ele>447.24</ele>
  <time>2026-09-01T19:54:04Z</time>
  <course>104.55</course>
  <speed>3.55</speed>
  <fix>3d</fix>
</trkpt>
<trkpt lat="-27.2745783" lon="151.2892965">
  <ele>451.03</ele>
  <time>2026-09-01T19:54:04Z</time>
  <course>102.16</course>
  <speed>3.1098713799769917</speed>
  <fix>3d</fix>
</trkpt>
<trkpt lat="-27.2745771" lon="151.2892902">
  <ele>448.88</ele>
  <time>2026-09-01T19:54:04Z</time>
  <course>101.8</course>
  <speed>3.38</speed>
  <fix>3d</fix>
</trkpt>
<trkpt lat="-27.2745786" lon="151.2892996">
  <ele>451.63</ele>
  <time>2026-09-01T19:54:04Z</time>
  <course>102.66</course>
  <speed>3.009269014229203</speed>
  <fix>3d</fix>
</trkpt>
<trkpt lat="-27.2745771" lon="151.2892902">
  <ele>448.88</ele>
  <time>2026-09-01T19:54:04Z</time>
  <course>101.8</course>
  <speed>3.38</speed>
  <fix>3d</fix>
</trkpt>
<trkpt lat="-27.2745789" lon="151.2893025">
  <ele>452.16</ele>
  <time>2026-09-01T19:54:04Z</time>
  <course>101.27</course>
  <speed>2.9207190895394235</speed>
  <fix>3d</fix>
</trkpt>
<trkpt lat="-27.2745781" lon="151.2892968">
  <ele>450.25</ele>
  <time>2026-09-01T19:54:05Z</time>
  <course>99.02</course>
  <speed>3.2</speed>
  <fix>3d</fix>
</trkpt>
<trkpt lat="-27.274579" lon="151.2893055">
  <ele>452.62</ele>
  <time>2026-09-01T19:54:05Z</time>
  <course>101.3</course>
  <speed>2.8345193596093146</speed>
  <fix>3d</fix>
</trkpt>
<trkpt lat="-27.2745781" lon="151.2892968">
  <ele>450.25</ele>
  <time>2026-09-01T19:54:05Z</time>
  <course>99.02</course>
  <speed>3.2</speed>
  <fix>3d</fix>
</trkpt>
<trkpt lat="-27.2745792" lon="151.2893083">
  <ele>453.01</ele>
  <time>2026-09-01T19:54:05Z</time>
  <course>105.08</course>
  <speed>2.761159176867571</speed>
  <fix>3d</fix>
</trkpt>
<trkpt lat="-27.2745789" lon="151.289303">
  <ele>451.36</ele>
  <time>2026-09-01T19:54:05Z</time>
  <course>96.13</course>
  <speed>3.02</speed>
  <fix>3d</fix>
</trkpt>
<trkpt lat="-27.2745792" lon="151.289311">
  <ele>453.34</ele>
  <time>2026-09-01T19:54:05Z</time>
  <course>107.54</course>
  <speed>2.69</speed>
  <fix>3d</fix>
</trkpt>
<trkpt lat="-27.2745793" lon="151.289309">
  <ele>452.22</ele>
  <time>2026-09-01T19:54:05Z</time>
  <course>93.14</course>
  <speed>2.86</speed>
  <fix>3d</fix>
</trkpt>
<trkpt lat="-27.2745792" lon="151.2893138">
  <ele>453.61</ele>
  <time>2026-09-01T19:54:05Z</time>
  <course>106.55</course>
  <speed>2.6404734423962686</speed>
  <fix>3d</fix>
</trkpt>
<trkpt lat="-27.2745793" lon="151.289309">
  <ele>452.22</ele>
  <time>2026-09-01T19:54:05Z</time>
  <course>93.14</course>
  <speed>2.86</speed>
  <fix>3d</fix>
</trkpt>
<trkpt lat="-27.2745792" lon="151.2893165">
  <ele>453.82</ele>
  <time>2026-09-01T19:54:05Z</time>
  <course>105.36</course>
  <speed>2.6112257658042517</speed>
  <fix>3d</fix>
</trkpt>
<trkpt lat="-27.2745795" lon="151.2893146">
  <ele>452.84</ele>
  <time>2026-09-01T19:54:05Z</time>
  <course>90.64</course>
  <speed>2.74</speed>
  <fix>3d</fix>
</trkpt>
<trkpt lat="-27.2745791" lon="151.2893192">
  <ele>453.96</ele>
  <time>2026-09-01T19:54:05Z</time>
  <course>107.29</course>
  <speed>2.5919297829995314</speed>
  <fix>3d</fix>
</trkpt>
<trkpt lat="-27.2745795" lon="151.2893146">
  <ele>452.84</ele>
  <time>2026-09-01T19:54:05Z</time>
  <course>90.64</course>
  <speed>2.74</speed>
  <fix>3d</fix>
</trkpt>
<trkpt lat="-27.274579" lon="151.2893219">
  <ele>454.03</ele>
  <time>2026-09-01T19:54:05Z</time>
  <course>110.79</course>
  <speed>2.5628109567426156</speed>
  <fix>3d</fix>
</trkpt>
<trkpt lat="-27.2745795" lon="151.2893201">
  <ele>453.2</ele>
  <time>2026-09-01T19:54:05Z</time>
  <course>89.22</course>
  <speed>2.67</speed>
  <fix>3d</fix>
</trkpt>
<trkpt lat="-27.2745789" lon="151.2893245">
  <ele>454.04</ele>
  <time>2026-09-01T19:54:05Z</time>
  <course>112.03</course>
  <speed>2.515094431626773</speed>
  <fix>3d</fix>
</trkpt>
<trkpt lat="-27.2745795" lon="151.2893201">
  <ele>453.2</ele>
  <time>2026-09-01T19:54:05Z</time>
  <course>89.22</course>
  <speed>2.67</speed>
  <fix>3d</fix>
</trkpt>
<trkpt lat="-27.2745788" lon="151.2893271">
  <ele>453.98</ele>
  <time>2026-09-01T19:54:05Z</time>
  <course>110.78</course>
  <speed>2.4299794237811976</speed>
  <fix>3d</fix>
</trkpt>
<trkpt lat="-27.2745794" lon="151.2893254">
  <ele>453.3</ele>
  <time>2026-09-01T19:54:05Z</time>
  <course>87.61</course>
  <speed>2.58</speed>
  <fix>3d</fix>
</trkpt>
<trkpt lat="-27.2745787" lon="151.2893295">
  <ele>453.88</ele>
  <time>2026-09-01T19:54:05Z</time>
  <course>109.47</course>
  <speed>2.322154172315008</speed>
  <fix>3d</fix>
</trkpt>
<trkpt lat="-27.2745794" lon="151.2893254">
  <ele>453.3</ele>
  <time>2026-09-01T19:54:05Z</time>
  <course>87.61</course>
  <speed>2.58</speed>
  <fix>3d</fix>
</trkpt>
<trkpt lat="-27.2745784" lon="151.2893319">
  <ele>453.73</ele>
  <time>2026-09-01T19:54:05Z</time>
  <course>112.3</course>
  <speed>2.2043593173527767</speed>
  <fix>3d</fix>
</trkpt>
<trkpt lat="-27.2745791" lon="151.2893305">
  <ele>453.17</ele>
  <time>2026-09-01T19:54:05Z</time>
  <course>83.67</course>
  <speed>2.39</speed>
  <fix>3d</fix>
</trkpt>
<trkpt lat="-27.274578" lon="151.2893341">
  <ele>453.54</ele>
  <time>2026-09-01T19:54:05Z</time>
  <course>116.39</course>
  <speed>2.1005951537600005</speed>
  <fix>3d</fix>
</trkpt>
<trkpt lat="-27.2745791" lon="151.2893305">
  <ele>453.17</ele>
  <time>2026-09-01T19:54:05Z</time>
  <course>83.67</course>
  <speed>2.39</speed>
  <fix>3d</fix>
</trkpt>
<trkpt lat="-27.2745775" lon="151.2893361">
  <ele>453.34</ele>
  <time>2026-09-01T19:54:05Z</time>
  <course>117.1</course>
  <speed>2.020717694285869</speed>
  <fix>3d</fix>
</trkpt>
<trkpt lat="-27.2745791" lon="151.2893305">
  <ele>453.17</ele>
  <time>2026-09-01T19:54:05Z</time>
  <course>83.67</course>
  <speed>2.39</speed>
  <fix>3d</fix>
</trkpt>
<trkpt lat="-27.2745769" lon="151.2893381">
  <ele>453.13</ele>
  <time>2026-09-01T19:54:05Z</time>
  <course>115.98</course>
  <speed>1.9593111034238537</speed>
  <fix>3d</fix>
</trkpt>
<trkpt lat="-27.2745784" lon="151.289335">
  <ele>452.88</ele>
  <time>2026-09-01T19:54:05Z</time>
  <course>77.6</course>
  <speed>2.17</speed>
  <fix>3d</fix>
</trkpt>
<trkpt lat="-27.2745763" lon="151.28934">
  <ele>452.91</ele>
  <time>2026-09-01T19:54:05Z</time>
  <course>116.1</course>
  <speed>1.909240686765291</speed>
  <fix>3d</fix>
</trkpt>
<trkpt lat="-27.2745784" lon="151.289335">
  <ele>452.88</ele>
  <time>2026-09-01T19:54:05Z</time>
  <course>77.6</course>
  <speed>2.17</speed>
  <fix>3d</fix>
</trkpt>
<trkpt lat="-27.2745757" lon="151.2893419">
  <ele>452.68</ele>
  <time>2026-09-01T19:54:05Z</time>
  <course>118.86</course>
  <speed>1.8844893207444822</speed>
  <fix>3d</fix>
</trkpt>
<trkpt lat="-27.2745775" lon="151.2893391">
  <ele>452.49</ele>
  <time>2026-09-01T19:54:05Z</time>
  <course>72.14</course>
  <speed>2.02</speed>
  <fix>3d</fix>
</trkpt>
<trkpt lat="-27.274575" lon="151.2893437">
  <ele>452.45</ele>
  <time>2026-09-01T19:54:05Z</time>
  <course>121.41</course>
  <speed>1.8522418848519757</speed>
  <fix>3d</fix>
</trkpt>
<trkpt lat="-27.2745775" lon="151.2893391">
  <ele>452.49</ele>
  <time>2026-09-01T19:54:05Z</time>
  <course>72.14</course>
  <speed>2.02</speed>
  <fix>3d</fix>
</trkpt>
<trkpt lat="-27.2745744" lon="151.2893455">
  <ele>452.22</ele>
  <time>2026-09-01T19:54:05Z</time>
  <course>122.23</course>
  <speed>1.8250753409106155</speed>
  <fix>3d</fix>
</trkpt>
<trkpt lat="-27.2745763" lon="151.2893429">
  <ele>452.07</ele>
  <time>2026-09-01T19:54:05Z</time>
  <course>68.87</course>
  <speed>1.92</speed>
  <fix>3d</fix>
</trkpt>
<trkpt lat="-27.2745737" lon="151.2893472">
  <ele>452.0</ele>
  <time>2026-09-01T19:54:05Z</time>
  <course>120.74</course>
  <speed>1.7979988876526036</speed>
  <fix>3d</fix>
</trkpt>
<trkpt lat="-27.2745763" lon="151.2893429">
  <ele>452.07</ele>
  <time>2026-09-01T19:54:05Z</time>
  <course>68.87</course>
  <speed>1.92</speed>
  <fix>3d</fix>
</trkpt>
<trkpt lat="-27.2745731" lon="151.2893489">
  <ele>451.77</ele>
  <time>2026-09-01T19:54:05Z</time>
  <course>120.83</course>
  <speed>1.766635219845908</speed>
  <fix>3d</fix>
</trkpt>
<trkpt lat="-27.274575" lon="151.2893464">
  <ele>451.65</ele>
  <time>2026-09-01T19:54:05Z</time>
  <course>67.43</course>
  <speed>1.86</speed>
  <fix>3d</fix>
</trkpt>
<trkpt lat="-27.2745725" lon="151.2893505">
  <ele>451.54</ele>
  <time>2026-09-01T19:54:05Z</time>
  <course>123.42</course>
  <speed>1.735280957078709</speed>
  <fix>3d</fix>
</trkpt>
<trkpt lat="-27.274575" lon="151.2893464">
  <ele>451.65</ele>
  <time>2026-09-01T19:54:05Z</time>
  <course>67.43</course>
  <speed>1.86</speed>
  <fix>3d</fix>
</trkpt>
<trkpt lat="-27.2745719" lon="151.2893522">
  <ele>451.3</ele>
  <time>2026-09-01T19:54:05Z</time>
  <course>124.54</course>
  <speed>1.6995587662684688</speed>
  <fix>3d</fix>
</trkpt>
<trkpt lat="-27.2745737" lon="151.2893498">
  <ele>451.22</ele>
  <time>2026-09-01T19:54:05Z</time>
  <course>66.97</course>
  <speed>1.8</speed>
  <fix>3d</fix>
</trkpt>
<trkpt lat="-27.2745713" lon="151.2893538">
  <ele>451.05</ele>
  <time>2026-09-01T19:54:05Z</time>
  <course>124.39</course>
  <speed>1.654841382127</speed>
  <fix>3d</fix>
</trkpt>
<trkpt lat="-27.2745737" lon="151.2893498">
  <ele>451.22</ele>
  <time>2026-09-01T19:54:05Z</time>
  <course>66.97</course>
  <speed>1.8</speed>
  <fix>3d</fix>
</trkpt>
<trkpt lat="-27.2745707" lon="151.2893554">
  <ele>450.8</ele>
  <time>2026-09-01T19:54:05Z</time>
  <course>124.37</course>
  <speed>1.605801980320114</speed>
  <fix>3d</fix>
</trkpt>
<trkpt lat="-27.2745725" lon="151.2893531">
  <ele>450.77</ele>
  <time>2026-09-01T19:54:05Z</time>
  <course>66.9</course>
  <speed>1.73</speed>
  <fix>3d</fix>
</trkpt>
<trkpt lat="-27.2745701" lon="151.2893569">
  <ele>450.55</ele>
  <time>2026-09-01T19:54:05Z</time>
  <course>124.98</course>
  <speed>1.5610893632332519</speed>
  <fix>3d</fix>
</trkpt>
<trkpt lat="-27.2745725" lon="151.2893531">
  <ele>450.77</ele>
  <time>2026-09-01T19:54:05Z</time>
  <course>66.9</course>
  <speed>1.73</speed>
  <fix>3d</fix>
</trkpt>
<trkpt lat="-27.2745696" lon="151.2893583">
  <ele>450.28</ele>
  <time>2026-09-01T19:54:05Z</time>
  <course>125.73</course>
  <speed>1.5079124643028852</speed>
  <fix>3d</fix>
</trkpt>
<trkpt lat="-27.2745713" lon="151.2893563">
  <ele>450.3</ele>
  <time>2026-09-01T19:54:05Z</time>
  <course>67.2</course>
  <speed>1.64</speed>
  <fix>3d</fix>
</trkpt>
<trkpt lat="-27.2745691" lon="151.2893598">
  <ele>450.01</ele>
  <time>2026-09-01T19:54:05Z</time>
  <course>125.8</course>
  <speed>1.464137971640651</speed>
  <fix>3d</fix>
</trkpt>
<trkpt lat="-27.2745713" lon="151.2893563">
  <ele>450.3</ele>
  <time>2026-09-01T19:54:05Z</time>
  <course>67.2</course>
  <speed>1.64</speed>
  <fix>3d</fix>
</trkpt>
<trkpt lat="-27.2745687" lon="151.2893612">
  <ele>449.74</ele>
  <time>2026-09-01T19:54:05Z</time>
  <course>126.05</course>
  <speed>1.4169333082400175</speed>
  <fix>3d</fix>
</trkpt>
<trkpt lat="-27.2745702" lon="151.2893592">
  <ele>449.8</ele>
  <time>2026-09-01T19:54:05Z</time>
  <course>68.12</course>
  <speed>1.54</speed>
  <fix>3d</fix>
</trkpt>
<trkpt lat="-27.2745683" lon="151.2893626">
  <ele>449.47</ele>
  <time>2026-09-01T19:54:05Z</time>
  <course>126.6</course>
  <speed>1.38351002887583</speed>
  <fix>3d</fix>
</trkpt>
<trkpt lat="-27.2745702" lon="151.2893592">
  <ele>449.8</ele>
  <time>2026-09-01T19:54:05Z</time>
  <course>68.12</course>
  <speed>1.54</speed>
  <fix>3d</fix>
</trkpt>
<trkpt lat="-27.2745679" lon="151.2893639">
  <ele>449.2</ele>
  <time>2026-09-01T19:54:05Z</time>
  <course>126.55</course>
  <speed>1.3440610105199837</speed>
  <fix>3d</fix>
</trkpt>
<trkpt lat="-27.2745692" lon="151.289362">
  <ele>449.28</ele>
  <time>2026-09-01T19:54:05Z</time>
  <course>70.07</course>
  <speed>1.44</speed>
  <fix>3d</fix>
</trkpt>
<trkpt lat="-27.2745676" lon="151.2893652">
  <ele>448.93</ele>
  <time>2026-09-01T19:54:05Z</time>
  <course>128.81</course>
  <speed>1.3189768762188365</speed>
  <fix>3d</fix>
</trkpt>
<trkpt lat="-27.2745684" lon="151.2893647">
  <ele>448.76</ele>
  <time>2026-09-01T19:54:05Z</time>
  <course>73.2</course>
  <speed>1.37</speed>
  <fix>3d</fix>
</trkpt>
<trkpt lat="-27.2745673" lon="151.2893666">
  <ele>448.67</ele>
  <time>2026-09-01T19:54:05Z</time>
  <course>131.56</course>
  <speed>1.295414991421668</speed>
  <fix>3d</fix>
</trkpt>
<trkpt lat="-27.2745684" lon="151.2893647">
  <ele>448.76</ele>
  <time>2026-09-01T19:54:05Z</time>
  <course>73.2</course>
  <speed>1.37</speed>
  <fix>3d</fix>
</trkpt>
<trkpt lat="-27.2745671" lon="151.2893679">
  <ele>448.4</ele>
  <time>2026-09-01T19:54:05Z</time>
  <course>131.42</course>
  <speed>1.26372465355393</speed>
  <fix>3d</fix>
</trkpt>
<trkpt lat="-27.2745678" lon="151.2893674">
  <ele>448.25</ele>
  <time>2026-09-01T19:54:05Z</time>
  <course>76.9</course>
  <speed>1.31</speed>
  <fix>3d</fix>
</trkpt>
<trkpt lat="-27.2745669" lon="151.2893692">
  <ele>448.15</ele>
  <time>2026-09-01T19:54:05Z</time>
  <course>130.97</course>
  <speed>1.235556554755791</speed>
  <fix>3d</fix>
</trkpt>
<trkpt lat="-27.2745678" lon="151.2893674">
  <ele>448.25</ele>
  <time>2026-09-01T19:54:05Z</time>
  <course>76.9</course>
  <speed>1.31</speed>
  <fix>3d</fix>
</trkpt>
<trkpt lat="-27.2745667" lon="151.2893705">
  <ele>447.89</ele>
  <time>2026-09-01T19:54:05Z</time>
  <course>134.02</course>
  <speed>1.1968291440301746</speed>
  <fix>3d</fix>
</trkpt>
<trkpt lat="-27.2745678" lon="151.2893674">
  <ele>448.25</ele>
  <time>2026-09-01T19:54:05Z</time>
  <course>76.9</course>
  <speed>1.31</speed>
  <fix>3d</fix>
</trkpt>
<trkpt lat="-27.2745666" lon="151.2893717">
  <ele>447.64</ele>
  <time>2026-09-01T19:54:05Z</time>
  <course>137.04</course>
  <speed>1.161077086157504</speed>
  <fix>3d</fix>
</trkpt>
<trkpt lat="-27.2745674" lon="151.2893699">
  <ele>447.75</ele>
  <time>2026-09-01T19:54:05Z</time>
  <course>80.49</course>
  <speed>1.24</speed>
  <fix>3d</fix>
</trkpt>
<trkpt lat="-27.2745665" lon="151.2893729">
  <ele>447.4</ele>
  <time>2026-09-01T19:54:05Z</time>
  <course>138.73</course>
  <speed>1.105486318323298</speed>
  <fix>3d</fix>
</trkpt>
<trkpt lat="-27.2745674" lon="151.2893699">
  <ele>447.75</ele>
  <time>2026-09-01T19:54:05Z</time>
  <course>80.49</course>
  <speed>1.24</speed>
  <fix>3d</fix>
</trkpt>
<trkpt lat="-27.2745665" lon="151.289374">
  <ele>447.16</ele>
  <time>2026-09-01T19:54:05Z</time>
  <course>141.54</course>
  <speed>1.0412012293500235</speed>
  <fix>3d</fix>
</trkpt>
<trkpt lat="-27.2745671" lon="151.2893723">
  <ele>447.27</ele>
  <time>2026-09-01T19:54:05Z</time>
  <course>84.06</course>
  <speed>1.16</speed>
  <fix>3d</fix>
</trkpt>
<trkpt lat="-27.2745665" lon="151.2893751">
  <ele>446.93</ele>
  <time>2026-09-01T19:54:05Z</time>
  <course>154.51</course>
  <speed>0.98</speed>
  <fix>3d</fix>
</trkpt>
<trkpt lat="-27.2745671" lon="151.2893723">
  <ele>447.27</ele>
  <time>2026-09-01T19:54:05Z</time>
  <course>84.06</course>
  <speed>1.16</speed>
  <fix>3d</fix>
</trkpt>
<trkpt lat="-27.2745666" lon="151.2893761">
  <ele>446.71</ele>
  <time>2026-09-01T19:54:05Z</time>
  <course>152.89</course>
  <speed>0.9126883367283708</speed>
  <fix>3d</fix>
</trkpt>
<trkpt lat="-27.274567" lon="151.2893745">
  <ele>446.81</ele>
  <time>2026-09-01T19:54:05Z</time>
  <course>88.86</course>
  <speed>1.04</speed>
  <fix>3d</fix>
</trkpt>
<trkpt lat="-27.2745666" lon="151.289377">
  <ele>446.5</ele>
  <time>2026-09-01T19:54:05Z</time>
  <course>147.39</course>
  <speed>0.8614522621712709</speed>
  <fix>3d</fix>
</trkpt>
<trkpt lat="-27.274567" lon="151.2893745">
  <ele>446.81</ele>
  <time>2026-09-01T19:54:05Z</time>
  <course>88.86</course>
  <speed>1.04</speed>
  <fix>3d</fix>
</trkpt>
<trkpt lat="-27.2745669" lon="151.2893778">
  <ele>446.29</ele>
  <time>2026-09-01T19:54:05Z</time>
  <course>148.94</course>
  <speed>0.8077747210701756</speed>
  <fix>3d</fix>
</trkpt>
<trkpt lat="-27.274567" lon="151.2893766">
  <ele>446.38</ele>
  <time>2026-09-01T19:54:05Z</time>
  <course>96.37</course>
  <speed>0.92</speed>
  <fix>3d</fix>
</trkpt>
<trkpt lat="-27.2745671" lon="151.2893786">
  <ele>446.1</ele>
  <time>2026-09-01T19:54:05Z</time>
  <course>167.56</course>
  <speed>0.7669419795525605</speed>
  <fix>3d</fix>
</trkpt>
<trkpt lat="-27.274567" lon="151.2893766">
  <ele>446.38</ele>
  <time>2026-09-01T19:54:05Z</time>
  <course>96.37</course>
  <speed>0.92</speed>
  <fix>3d</fix>
</trkpt>
<trkpt lat="-27.2745675" lon="151.2893793">
  <ele>445.91</ele>
  <time>2026-09-01T19:54:05Z</time>
  <course>164.49</course>
  <speed>0.7392563831310488</speed>
  <fix>3d</fix>
</trkpt>
<trkpt lat="-27.2745673" lon="151.2893783">
  <ele>445.99</ele>
  <time>2026-09-01T19:54:05Z</time>
  <course>107.49</course>
  <speed>0.81</speed>
  <fix>3d</fix>
</trkpt>
<trkpt lat="-27.2745679" lon="151.28938">
  <ele>445.73</ele>
  <time>2026-09-01T19:54:05Z</time>
  <course>155.86</course>
  <speed>0.7200694410957876</speed>
  <fix>3d</fix>
</trkpt>
<trkpt lat="-27.2745673" lon="151.2893783">
  <ele>445.99</ele>
  <time>2026-09-01T19:54:05Z</time>
  <course>107.49</course>
  <speed>0.81</speed>
  <fix>3d</fix>
</trkpt>
<trkpt lat="-27.2745683" lon="151.2893805">
  <ele>445.56</ele>
  <time>2026-09-01T19:54:05Z</time>
  <course>165.51</course>
  <speed>0.7142128534267639</speed>
  <fix>3d</fix>
</trkpt>
<trkpt lat="-27.2745678" lon="151.2893797">
  <ele>445.62</ele>
  <time>2026-09-01T19:54:05Z</time>
  <course>121.72</course>
  <speed>0.74</speed>
  <fix>3d</fix>
</trkpt>
<trkpt lat="-27.2745688" lon="151.2893811">
  <ele>445.4</ele>
  <time>2026-09-01T19:54:05Z</time>
  <course>166.77</course>
  <speed>0.7283543093852057</speed>
  <fix>3d</fix>
</trkpt>
<trkpt lat="-27.2745678" lon="151.2893797">
  <ele>445.62</ele>
  <time>2026-09-01T19:54:05Z</time>
  <course>121.72</course>
  <speed>0.74</speed>
  <fix>3d</fix>
</trkpt>
<trkpt lat="-27.2745693" lon="151.2893816">
  <ele>445.24</ele>
  <time>2026-09-01T19:54:05Z</time>
  <course>171.67</course>
  <speed>0.7353910524340094</speed>
  <fix>3d</fix>
</trkpt>
<trkpt lat="-27.2745686" lon="151.2893809">
  <ele>445.28</ele>
  <time>2026-09-01T19:54:05Z</time>
  <course>133.42</course>
  <speed>0.72</speed>
  <fix>3d</fix>
</trkpt>
<trkpt lat="-27.2745698" lon="151.2893822">
  <ele>445.1</ele>
  <time>2026-09-01T19:54:05Z</time>
  <course>176.08</course>
  <speed>0.7355270219373317</speed>
  <fix>3d</fix>
</trkpt>
<trkpt lat="-27.2745686" lon="151.2893809">
  <ele>445.28</ele>
  <time>2026-09-01T19:54:05Z</time>
  <course>133.42</course>
  <speed>0.72</speed>
  <fix>3d</fix>
</trkpt>
<trkpt lat="-27.2745703" lon="151.2893827">
  <ele>444.95</ele>
  <time>2026-09-01T19:54:05Z</time>
  <course>168.87</course>
  <speed>0.7359347797189639</speed>
  <fix>3d</fix>
</trkpt>
<trkpt lat="-27.2745696" lon="151.2893819">
  <ele>444.97</ele>
  <time>2026-09-01T19:54:05Z</time>
  <course>137.89</course>
  <speed>0.73</speed>
  <fix>3d</fix>
</trkpt>
<trkpt lat="-27.2745708" lon="151.2893832">
  <ele>444.81</ele>
  <time>2026-09-01T19:54:05Z</time>
  <course>180.22</course>
  <speed>0.7234638899074369</speed>
  <fix>3d</fix>
</trkpt>
<trkpt lat="-27.2745696" lon="151.2893819">
  <ele>444.97</ele>
  <time>2026-09-01T19:54:05Z</time>
  <course>137.89</course>
  <speed>0.73</speed>
  <fix>3d</fix>
</trkpt>
<trkpt lat="-27.2745713" lon="151.2893837">
  <ele>444.68</ele>
  <time>2026-09-01T19:54:05Z</time>
  <course>195.33</course>
  <speed>0.7140028011149536</speed>
  <fix>3d</fix>
</trkpt>
<trkpt lat="-27.2745705" lon="151.2893828">
  <ele>444.7</ele>
  <time>2026-09-01T19:54:05Z</time>
  <course>140.53</course>
  <speed>0.72</speed>
  <fix>3d</fix>
</trkpt>
<trkpt lat="-27.2745719" lon="151.2893841">
  <ele>444.55</ele>
  <time>2026-09-01T19:54:05Z</time>
  <course>189.29</course>
  <speed>0.6989277502002621</speed>
  <fix>3d</fix>
</trkpt>
<trkpt lat="-27.2745705" lon="151.2893828">
  <ele>444.7</ele>
  <time>2026-09-01T19:54:05Z</time>
  <course>140.53</course>
  <speed>0.72</speed>
  <fix>3d</fix>
</trkpt>
<trkpt lat="-27.2745724" lon="151.2893844">
  <ele>444.42</ele>
  <time>2026-09-01T19:54:05Z</time>
  <course>195.55</course>
  <speed>0.6946221994724903</speed>
  <fix>3d</fix>
</trkpt>
<trkpt lat="-27.2745716" lon="151.2893837">
  <ele>444.44</ele>
  <time>2026-09-01T19:54:05Z</time>
  <course>145.83</course>
  <speed>0.7</speed>
  <fix>3d</fix>
</trkpt>
<trkpt lat="-27.274573" lon="151.2893848">
  <ele>444.3</ele>
  <time>2026-09-01T19:54:05Z</time>
  <course>200.16</course>
  <speed>0.6708203932499369</speed>
  <fix>3d</fix>
</trkpt>
<trkpt lat="-27.2745716" lon="151.2893837">
  <ele>444.44</ele>
  <time>2026-09-01T19:54:05Z</time>
  <course>145.83</course>
  <speed>0.7</speed>
  <fix>3d</fix>
</trkpt>
<trkpt lat="-27.2745735" lon="151.289385">
  <ele>444.18</ele>
  <time>2026-09-01T19:54:05Z</time>
  <course>203.18</course>
  <speed>0.6592419889539803</speed>
  <fix>3d</fix>
</trkpt>
<trkpt lat="-27.2745726" lon="151.2893844">
  <ele>444.2</ele>
  <time>2026-09-01T19:54:05Z</time>
  <course>152.97</course>
  <speed>0.68</speed>
  <fix>3d</fix>
</trkpt>
<trkpt lat="-27.2745741" lon="151.2893852">
  <ele>444.07</ele>
  <time>2026-09-01T19:54:05Z</time>
  <course>206.65</course>
  <speed>0.6451356446515725</speed>
  <fix>3d</fix>
</trkpt>
<trkpt lat="-27.2745726" lon="151.2893844">
  <ele>444.2</ele>
  <time>2026-09-01T19:54:05Z</time>
  <course>152.97</course>
  <speed>0.68</speed>
  <fix>3d</fix>
</trkpt>
<trkpt lat="-27.2745746" lon="151.2893854">
  <ele>443.95</ele>
  <time>2026-09-01T19:54:05Z</time>
  <course>210.04</course>
  <speed>0.6306346010171024</speed>
  <fix>3d</fix>
</trkpt>
<trkpt lat="-27.2745738" lon="151.2893849">
  <ele>443.96</ele>
  <time>2026-09-01T19:54:05Z</time>
  <course>160.96</course>
  <speed>0.65</speed>
  <fix>3d</fix>
</trkpt>
<trkpt lat="-27.2745752" lon="151.2893855">
  <ele>443.83</ele>
  <time>2026-09-01T19:54:05Z</time>
  <course>213.46</course>
  <speed>0.6198386886924694</speed>
  <fix>3d</fix>
</trkpt>
<trkpt lat="-27.2745738" lon="151.2893849">
  <ele>443.96</ele>
  <time>2026-09-01T19:54:05Z</time>
  <course>160.96</course>
  <speed>0.65</speed>
  <fix>3d</fix>
</trkpt>
<trkpt lat="-27.2745758" lon="151.2893856">
  <ele>443.71</ele>
  <time>2026-09-01T19:54:05Z</time>
  <course>217.29</course>
  <speed>0.6040695324215583</speed>
  <fix>3d</fix>
</trkpt>
<trkpt lat="-27.2745749" lon="151.2893853">
  <ele>443.74</ele>
  <time>2026-09-01T19:54:05Z</time>
  <course>169.15</course>
  <speed>0.63</speed>
  <fix>3d</fix>
</trkpt>
<trkpt lat="-27.2745763" lon="151.2893856">
  <ele>443.59</ele>
  <time>2026-09-01T19:54:05Z</time>
  <course>219.36</course>
  <speed>0.5907622195096772</speed>
  <fix>3d</fix>
</trkpt>
<trkpt lat="-27.2745749" lon="151.2893853">
  <ele>443.74</ele>
  <time>2026-09-01T19:54:05Z</time>
  <course>169.15</course>
  <speed>0.63</speed>
  <fix>3d</fix>
</trkpt>
<trkpt lat="-27.2745769" lon="151.2893856">
  <ele>443.47</ele>
  <time>2026-09-01T19:54:05Z</time>
  <course>247.13</course>
  <speed>0.58</speed>
  <fix>3d</fix>
</trkpt>
<trkpt lat="-27.274576" lon="151.2893854">
  <ele>443.51</ele>
  <time>2026-09-01T19:54:05Z</time>
  <course>177.26</course>
  <speed>0.6</speed>
  <fix>3d</fix>
</trkpt>
<trkpt lat="-27.2745774" lon="151.2893856">
  <ele>443.34</ele>
  <time>2026-09-01T19:54:05Z</time>
  <course>245.06</course>
  <speed>0.5707889277132134</speed>
  <fix>3d</fix>
</trkpt>
<trkpt lat="-27.274576" lon="151.2893854">
  <ele>443.51</ele>
  <time>2026-09-01T19:54:05Z</time>
  <course>177.26</course>
  <speed>0.6</speed>
  <fix>3d</fix>
</trkpt>
<trkpt lat="-27.2745779" lon="151.2893855">
  <ele>443.21</ele>
  <time>2026-09-01T19:54:05Z</time>
  <course>209.86</course>
  <speed>0.5532630477449222</speed>
  <fix>3d</fix>
</trkpt>
<trkpt lat="-27.2745771" lon="151.2893854">
  <ele>443.27</ele>
  <time>2026-09-01T19:54:05Z</time>
  <course>184.85</course>
  <speed>0.58</speed>
  <fix>3d</fix>
</trkpt>
<trkpt lat="-27.2745784" lon="151.2893854">
  <ele>443.08</ele>
  <time>2026-09-01T19:54:05Z</time>
  <course>251.45</course>
  <speed>0.5474486277268398</speed>
  <fix>3d</fix>
</trkpt>
<trkpt lat="-27.2745771" lon="151.2893854">
  <ele>443.27</ele>
  <time>2026-09-01T19:54:05Z</time>
  <course>184.85</course>
  <speed>0.58</speed>
  <fix>3d</fix>
</trkpt>
<trkpt lat="-27.2745789" lon="151.2893853">
  <ele>442.95</ele>
  <time>2026-09-01T19:54:05Z</time>
  <course>281.35</course>
  <speed>0.5315072906367324</speed>
  <fix>3d</fix>
</trkpt>
<trkpt lat="-27.2745781" lon="151.2893853">
  <ele>443.02</ele>
  <time>2026-09-01T19:54:05Z</time>
  <course>191.84</course>
  <speed>0.56</speed>
  <fix>3d</fix>
</trkpt>
<trkpt lat="-27.2745794" lon="151.2893852">
  <ele>442.82</ele>
  <time>2026-09-01T19:54:05Z</time>
  <course>250.4</course>
  <speed>0.5288667128870941</speed>
  <fix>3d</fix>
</trkpt>
<trkpt lat="-27.2745781" lon="151.2893853">
  <ele>443.02</ele>
  <time>2026-09-01T19:54:05Z</time>
  <course>191.84</course>
  <speed>0.56</speed>
  <fix>3d</fix>
</trkpt>
<trkpt lat="-27.2745798" lon="151.289385">
  <ele>442.68</ele>
  <time>2026-09-01T19:54:05Z</time>
  <course>245.04</course>
  <speed>0.5124451190127582</speed>
  <fix>3d</fix>
</trkpt>
<trkpt lat="-27.274579" lon="151.289385">
  <ele>442.77</ele>
  <time>2026-09-01T19:54:05Z</time>
  <course>198.22</course>
  <speed>0.55</speed>
  <fix>3d</fix>
</trkpt>
<trkpt lat="-27.2745803" lon="151.2893848">
  <ele>442.54</ele>
  <time>2026-09-01T19:54:05Z</time>
  <course>286.07</course>
  <speed>0.49040799340956914</speed>
  <fix>3d</fix>
</trkpt>
<trkpt lat="-27.274579" lon="151.289385">
  <ele>442.77</ele>
  <time>2026-09-01T19:54:05Z</time>
  <course>198.22</course>
  <speed>0.55</speed>
  <fix>3d</fix>
</trkpt>
<trkpt lat="-27.2745807" lon="151.2893845">
  <ele>442.4</ele>
  <time>2026-09-01T19:54:05Z</time>
  <course>285.75</course>
  <speed>0.4753945729601885</speed>
  <fix>3d</fix>
</trkpt>
<trkpt lat="-27.27458" lon="151.2893846">
  <ele>442.51</ele>
  <time>2026-09-01T19:54:05Z</time>
  <course>203.8</course>
  <speed>0.52</speed>
  <fix>3d</fix>
</trkpt>
<trkpt lat="-27.2745811" lon="151.2893843">
  <ele>442.26</ele>
  <time>2026-09-01T19:54:05Z</time>
  <course>269.01</course>
  <speed>0.4609772228646444</speed>
  <fix>3d</fix>
</trkpt>
<trkpt lat="-27.27458" lon="151.2893846">
  <ele>442.51</ele>
  <time>2026-09-01T19:54:05Z</time>
  <course>203.8</course>
  <speed>0.52</speed>
  <fix>3d</fix>
</trkpt>
<trkpt lat="-27.2745815" lon="151.2893841">
  <ele>442.12</ele>
  <time>2026-09-01T19:54:05Z</time>
  <course>285.89</course>
  <speed>0.4382921400162225</speed>
  <fix>3d</fix>
</trkpt>
<trkpt lat="-27.2745808" lon="151.2893842">
  <ele>442.24</ele>
  <time>2026-09-01T19:54:05Z</time>
  <course>209.02</course>
  <speed>0.5</speed>
  <fix>3d</fix>
</trkpt>
<trkpt lat="-27.2745818" lon="151.2893838">
  <ele>441.97</ele>
  <time>2026-09-01T19:54:05Z</time>
  <course>285.52</course>
  <speed>0.4205948168962618</speed>
  <fix>3d</fix>
</trkpt>
<trkpt lat="-27.2745808" lon="151.2893842">
  <ele>442.24</ele>
  <time>2026-09-01T19:54:05Z</time>
  <course>209.02</course>
  <speed>0.5</speed>
  <fix>3d</fix>
</trkpt>
<trkpt lat="-27.2745821" lon="151.2893836">
  <ele>441.83</ele>
  <time>2026-09-01T19:54:05Z</time>
  <course>290.85</course>
  <speed>0.408166632639171</speed>
  <fix>3d</fix>
</trkpt>
<trkpt lat="-27.2745815" lon="151.2893836">
  <ele>441.96</ele>
  <time>2026-09-01T19:54:05Z</time>
  <course>213.85</course>
  <speed>0.46</speed>
  <fix>3d</fix>
</trkpt>
<trkpt lat="-27.2745824" lon="151.2893833">
  <ele>441.68</ele>
  <time>2026-09-01T19:54:05Z</time>
  <course>294.45</course>
  <speed>0.38013155617496425</speed>
  <fix>3d</fix>
</trkpt>
<trkpt lat="-27.2745815" lon="151.2893836">
  <ele>441.96</ele>
  <time>2026-09-01T19:54:05Z</time>
  <course>213.85</course>
  <speed>0.46</speed>
  <fix>3d</fix>
</trkpt>
<trkpt lat="-27.2745827" lon="151.289383">
  <ele>441.54</ele>
  <time>2026-09-01T19:54:05Z</time>
  <course>297.44</course>
  <speed>0.354682957019364</speed>
  <fix>3d</fix>
</trkpt>
<trkpt lat="-27.2745822" lon="151.2893831">
  <ele>441.68</ele>
  <time>2026-09-01T19:54:05Z</time>
  <course>219.36</course>
  <speed>0.43</speed>
  <fix>3d</fix>
</trkpt>
<trkpt lat="-27.2745829" lon="151.2893827">
  <ele>441.39</ele>
  <time>2026-09-01T19:54:05Z</time>
  <course>298.79</course>
  <speed>0.33241540277189324</speed>
  <fix>3d</fix>
</trkpt>
<trkpt lat="-27.2745822" lon="151.2893831">
  <ele>441.68</ele>
  <time>2026-09-01T19:54:05Z</time>
  <course>219.36</course>
  <speed>0.43</speed>
  <fix>3d</fix>
</trkpt>
<trkpt lat="-27.2745831" lon="151.2893824">
  <ele>441.24</ele>
  <time>2026-09-01T19:54:05Z</time>
  <course>293.1</course>
  <speed>0.31240998703626616</speed>
  <fix>3d</fix>
</trkpt>
<trkpt lat="-27.2745827" lon="151.2893826">
  <ele>441.39</ele>
  <time>2026-09-01T19:54:05Z</time>
  <course>227.68</course>
  <speed>0.39</speed>
  <fix>3d</fix>
</trkpt>
<trkpt lat="-27.2745833" lon="151.2893822">
  <ele>441.09</ele>
  <time>2026-09-01T19:54:05Z</time>
  <course>306.01</course>
  <speed>0.2884441020371191</speed>
  <fix>3d</fix>
</trkpt>
<trkpt lat="-27.2745827" lon="151.2893826">
  <ele>441.39</ele>
  <time>2026-09-01T19:54:05Z</time>
  <course>227.68</course>
  <speed>0.39</speed>
  <fix>3d</fix>
</trkpt>
<trkpt lat="-27.2745834" lon="151.2893819">
  <ele>440.94</ele>
  <time>2026-09-01T19:54:05Z</time>
  <course>307.85</course>
  <speed>0.2641968962724581</speed>
  <fix>3d</fix>
</trkpt>
<trkpt lat="-27.2745831" lon="151.289382">
  <ele>441.1</ele>
  <time>2026-09-01T19:54:05Z</time>
  <course>237.85</course>
  <speed>0.35</speed>
  <fix>3d</fix>
</trkpt>
<trkpt lat="-27.2745835" lon="151.2893816">
  <ele>440.79</ele>
  <time>2026-09-01T19:54:05Z</time>
  <course>308.47</course>
  <speed>0.23769728648009425</speed>
  <fix>3d</fix>
</trkpt>
<trkpt lat="-27.2745831" lon="151.289382">
  <ele>441.1</ele>
  <time>2026-09-01T19:54:05Z</time>
  <course>237.85</course>
  <speed>0.35</speed>
  <fix>3d</fix>
</trkpt>
<trkpt lat="-27.2745836" lon="151.2893813">
  <ele>440.64</ele>
  <time>2026-09-01T19:54:05Z</time>
  <course>311.07</course>
  <speed>0.215870331449229</speed>
  <fix>3d</fix>
</trkpt>
<trkpt lat="-27.2745834" lon="151.2893814">
  <ele>440.8</ele>
  <time>2026-09-01T19:54:05Z</time>
  <course>248.24</course>
  <speed>0.31</speed>
  <fix>3d</fix>
</trkpt>
<trkpt lat="-27.2745836" lon="151.2893811">
  <ele>440.48</ele>
  <time>2026-09-01T19:54:05Z</time>
  <course>312.57</course>
  <speed>0.2002498439450079</speed>
  <fix>3d</fix>
</trkpt>
<trkpt lat="-27.2745834" lon="151.2893814">
  <ele>440.8</ele>
  <time>2026-09-01T19:54:05Z</time>
  <course>248.24</course>
  <speed>0.31</speed>
  <fix>3d</fix>
</trkpt>
<trkpt lat="-27.2745836" lon="151.2893808">
  <ele>440.32</ele>
  <time>2026-09-01T19:54:05Z</time>
  <course>312.38</course>
  <speed>0.18027756377319945</speed>
  <fix>3d</fix>
</trkpt>
<trkpt lat="-27.2745836" lon="151.2893808">
  <ele>440.5</ele>
  <time>2026-09-01T19:54:05Z</time>
  <course>260.87</course>
  <speed>0.27</speed>
  <fix>3d</fix>
</trkpt>
<trkpt lat="-27.2745835" lon="151.2893806">
  <ele>440.17</ele>
  <time>2026-09-01T19:54:05Z</time>
  <course>305.74</course>
  <speed>0.1772004514666935</speed>
  <fix>3d</fix>
</trkpt>
<trkpt lat="-27.2745836" lon="151.2893808">
  <ele>440.5</ele>
  <time>2026-09-01T19:54:05Z</time>
  <course>260.87</course>
  <speed>0.27</speed>
  <fix>3d</fix>
</trkpt>
<trkpt lat="-27.2745835" lon="151.2893804">
  <ele>440.01</ele>
  <time>2026-09-01T19:54:05Z</time>
  <course>293.42</course>
  <speed>0.17492855684535902</speed>
  <fix>3d</fix>
</trkpt>
<trkpt lat="-27.2745836" lon="151.2893802">
  <ele>440.19</ele>
  <time>2026-09-01T19:54:05Z</time>
  <course>277.45</course>
  <speed>0.24</speed>
  <fix>3d</fix>
</trkpt>
<trkpt lat="-27.2745834" lon="151.2893802">
  <ele>439.85</ele>
  <time>2026-09-01T19:54:05Z</time>
  <course>296.38</course>
  <speed>0.1769180601295413</speed>
  <fix>3d</fix>
</trkpt>
<trkpt lat="-27.2745836" lon="151.2893802">
  <ele>440.19</ele>
  <time>2026-09-01T19:54:05Z</time>
  <course>277.45</course>
  <speed>0.24</speed>
  <fix>3d</fix>
</trkpt>
<trkpt lat="-27.2745833" lon="151.28938">
  <ele>439.7</ele>
  <time>2026-09-01T19:54:05Z</time>
  <course>325.49</course>
  <speed>0.19849433241279207</speed>
  <fix>3d</fix>
</trkpt>
<trkpt lat="-27.2745835" lon="151.2893798">
  <ele>439.89</ele>
  <time>2026-09-01T19:54:05Z</time>
  <course>296.59</course>
  <speed>0.23</speed>
  <fix>3d</fix>
</trkpt>
<trkpt lat="-27.2745832" lon="151.2893798">
  <ele>439.54</ele>
  <time>2026-09-01T19:54:05Z</time>
  <course>308.41</course>
  <speed>0.2</speed>
  <fix>3d</fix>
</trkpt>
<trkpt lat="-27.2745835" lon="151.2893798">
  <ele>439.89</ele>
  <time>2026-09-01T19:54:05Z</time>
  <course>296.59</course>
  <speed>0.23</speed>
  <fix>3d</fix>
</trkpt>
<trkpt lat="-27.274583" lon="151.2893796">
  <ele>439.39</ele>
  <time>2026-09-01T19:54:05Z</time>
  <course>286.05</course>
  <speed>0.21633307652783937</speed>
  <fix>3d</fix>
</trkpt>
<trkpt lat="-27.2745833" lon="151.2893793">
  <ele>439.58</ele>
  <time>2026-09-01T19:54:05Z</time>
  <course>310.84</course>
  <speed>0.25</speed>
  <fix>3d</fix>
</trkpt>
<trkpt lat="-27.2745828" lon="151.2893794">
  <ele>439.24</ele>
  <time>2026-09-01T19:54:05Z</time>
  <course>306.32</course>
  <speed>0.22825424421026652</speed>
  <fix>3d</fix>
</trkpt>
<trkpt lat="-27.2745833" lon="151.2893793">
  <ele>439.58</ele>
  <time>2026-09-01T19:54:05Z</time>
  <course>310.84</course>
  <speed>0.25</speed>
  <fix>3d</fix>
</trkpt>
<trkpt lat="-27.2745827" lon="151.2893792">
  <ele>439.08</ele>
  <time>2026-09-01T19:54:05Z</time>
  <course>298.84</course>
  <speed>0.23706539182259395</speed>
  <fix>3d</fix>
</trkpt>
<trkpt lat="-27.274583" lon="151.289379">
  <ele>439.27</ele>
  <time>2026-09-01T19:54:05Z</time>
  <course>318.42</course>
  <speed>0.27</speed>
  <fix>3d</fix>
</trkpt>
<trkpt lat="-27.2745825" lon="151.2893791">
  <ele>438.93</ele>
  <time>2026-09-01T19:54:05Z</time>
  <course>296.28</course>
  <speed>0.24596747752497689</speed>
  <fix>3d</fix>
</trkpt>
<trkpt lat="-27.274583" lon="151.289379">
  <ele>439.27</ele>
  <time>2026-09-01T19:54:05Z</time>
  <course>318.42</course>
  <speed>0.27</speed>
  <fix>3d</fix>
</trkpt>
<trkpt lat="-27.2745823" lon="151.2893789">
  <ele>438.78</ele>
  <time>2026-09-01T19:54:05Z</time>
  <course>289.66</course>
  <speed>0.25059928172283336</speed>
  <fix>3d</fix>
</trkpt>
<trkpt lat="-27.2745826" lon="151.2893786">
  <ele>438.97</ele>
  <time>2026-09-01T19:54:05Z</time>
  <course>322.83</course>
  <speed>0.28</speed>
  <fix>3d</fix>
</trkpt>
<trkpt lat="-27.274582" lon="151.2893787">
  <ele>438.62</ele>
  <time>2026-09-01T19:54:05Z</time>
  <course>300.06</course>
  <speed>0.260768096208106</speed>
  <fix>3d</fix>
</trkpt>
<trkpt lat="-27.2745826" lon="151.2893786">
  <ele>438.97</ele>
  <time>2026-09-01T19:54:05Z</time>
  <course>322.83</course>
  <speed>0.28</speed>
  <fix>3d</fix>
</trkpt>
<trkpt lat="-27.2745818" lon="151.2893785">
  <ele>438.47</ele>
  <time>2026-09-01T19:54:05Z</time>
  <course>301.47</course>
  <speed>0.266270539113887</speed>
  <fix>3d</fix>
</trkpt>
<trkpt lat="-27.2745822" lon="151.2893783">
  <ele>438.66</ele>
  <time>2026-09-01T19:54:05Z</time>
  <course>322.06</course>
  <speed>0.3</speed>
  <fix>3d</fix>
</trkpt>
<trkpt lat="-27.2745816" lon="151.2893783">
  <ele>438.32</ele>
  <time>2026-09-01T19:54:05Z</time>
  <course>300.47</course>
  <speed>0.2780287754891569</speed>
  <fix>3d</fix>
</trkpt>
<trkpt lat="-27.2745822" lon="151.2893783">
  <ele>438.66</ele>
  <time>2026-09-01T19:54:05Z</time>
  <course>322.06</course>
  <speed>0.3</speed>
  <fix>3d</fix>
</trkpt>
<trkpt lat="-27.2745814" lon="151.289378">
  <ele>438.17</ele>
  <time>2026-09-01T19:54:05Z</time>
  <course>302.89</course>
  <speed>0.2842534080710379</speed>
  <fix>3d</fix>
</trkpt>
<trkpt lat="-27.2745817" lon="151.2893778">
  <ele>438.37</ele>
  <time>2026-09-01T19:54:05Z</time>
  <course>318.22</course>
  <speed>0.32</speed>
  <fix>3d</fix>
</trkpt>
<trkpt lat="-27.2745812" lon="151.2893778">
  <ele>438.02</ele>
  <time>2026-09-01T19:54:05Z</time>
  <course>303.21</course>
  <speed>0.2920616373302047</speed>
  <fix>3d</fix>
</trkpt>
<trkpt lat="-27.2745817" lon="151.2893778">
  <ele>438.37</ele>
  <time>2026-09-01T19:54:05Z</time>
  <course>318.22</course>
  <speed>0.32</speed>
  <fix>3d</fix>
</trkpt>
<trkpt lat="-27.274581" lon="151.2893775">
  <ele>437.87</ele>
  <time>2026-09-01T19:54:05Z</time>
  <course>302.34</course>
  <speed>0.3</speed>
  <fix>3d</fix>
</trkpt>
<trkpt lat="-27.2745813" lon="151.2893774">
  <ele>438.07</ele>
  <time>2026-09-01T19:54:05Z</time>
  <course>316.59</course>
  <speed>0.33</speed>
  <fix>3d</fix>
</trkpt>
<trkpt lat="-27.2745808" lon="151.2893773">
  <ele>437.72</ele>
  <time>2026-09-01T19:54:05Z</time>
  <course>301.68</course>
  <speed>0.30610455730027936</speed>
  <fix>3d</fix>
</trkpt>
<trkpt lat="-27.2745813" lon="151.2893774">
  <ele>438.07</ele>
  <time>2026-09-01T19:54:05Z</time>
  <course>316.59</course>
  <speed>0.33</speed>
  <fix>3d</fix>
</trkpt>
<trkpt lat="-27.2745805" lon="151.289377">
  <ele>437.57</ele>
  <time>2026-09-01T19:54:05Z</time>
  <course>305.28</course>
  <speed>0.30610455730027936</speed>
  <fix>3d</fix>
</trkpt>
<trkpt lat="-27.2745808" lon="151.2893769">
  <ele>437.77</ele>
  <time>2026-09-01T19:54:05Z</time>
  <course>316.74</course>
  <speed>0.35</speed>
  <fix>3d</fix>
</trkpt>
<trkpt lat="-27.2745803" lon="151.2893768">
  <ele>437.42</ele>
  <time>2026-09-01T19:54:05Z</time>
  <course>319.15</course>
  <speed>0.31240998703626616</speed>
  <fix>3d</fix>
</trkpt>
<trkpt lat="-27.2745808" lon="151.2893769">
  <ele>437.77</ele>
  <time>2026-09-01T19:54:05Z</time>
  <course>316.74</course>
  <speed>0.35</speed>
  <fix>3d</fix>
</trkpt>
<trkpt lat="-27.2745801" lon="151.2893765">
  <ele>437.27</ele>
  <time>2026-09-01T19:54:05Z</time>
  <course>318.13</course>
  <speed>0.32015621187164245</speed>
  <fix>3d</fix>
</trkpt>
<trkpt lat="-27.2745804" lon="151.2893764">
  <ele>437.47</ele>
  <time>2026-09-01T19:54:05Z</time>
  <course>316.59</course>
  <speed>0.36</speed>
  <fix>3d</fix>
</trkpt>
<trkpt lat="-27.2745798" lon="151.2893762">
  <ele>437.12</ele>
  <time>2026-09-01T19:54:05Z</time>
  <course>289.59</course>
  <speed>0.32015621187164245</speed>
  <fix>3d</fix>
</trkpt>
<trkpt lat="-27.2745804" lon="151.2893764">
  <ele>437.47</ele>
  <time>2026-09-01T19:54:05Z</time>
  <course>316.59</course>
  <speed>0.36</speed>
  <fix>3d</fix>
</trkpt>
<trkpt lat="-27.2745796" lon="151.289376">
  <ele>436.97</ele>
  <time>2026-09-01T19:54:05Z</time>
  <course>300.55</course>
  <speed>0.32202484376209234</speed>
  <fix>3d</fix>
</trkpt>
<trkpt lat="-27.2745799" lon="151.2893759">
  <ele>437.18</ele>
  <time>2026-09-01T19:54:05Z</time>
  <course>316.78</course>
  <speed>0.37</speed>
  <fix>3d</fix>
</trkpt>
<trkpt lat="-27.2745793" lon="151.2893757">
  <ele>436.83</ele>
  <time>2026-09-01T19:54:05Z</time>
  <course>309.58</course>
  <speed>0.32449961479175904</speed>
  <fix>3d</fix>
</trkpt>
<trkpt lat="-27.2745799" lon="151.2893759">
  <ele>437.18</ele>
  <time>2026-09-01T19:54:05Z</time>
  <course>316.78</course>
  <speed>0.37</speed>
  <fix>3d</fix>
</trkpt>
<trkpt lat="-27.2745791" lon="151.2893755">
  <ele>436.68</ele>
  <time>2026-09-01T19:54:05Z</time>
  <course>295.45</course>
  <speed>0.327566787083184</speed>
  <fix>3d</fix>
</trkpt>
<trkpt lat="-27.2745794" lon="151.2893754">
  <ele>436.89</ele>
  <time>2026-09-01T19:54:05Z</time>
  <course>319.2</course>
  <speed>0.37</speed>
  <fix>3d</fix>
</trkpt>
<trkpt lat="-27.2745788" lon="151.2893753">
  <ele>436.53</ele>
  <time>2026-09-01T19:54:05Z</time>
  <course>288.81</course>
  <speed>0.3328663395418648</speed>
  <fix>3d</fix>
</trkpt>
<trkpt lat="-27.2745794" lon="151.2893754">
  <ele>436.89</ele>
  <time>2026-09-01T19:54:05Z</time>
  <course>319.2</course>
  <speed>0.37</speed>
  <fix>3d</fix>
</trkpt>
<trkpt lat="-27.2745785" lon="151.289375">
  <ele>436.38</ele>
  <time>2026-09-01T19:54:05Z</time>
  <course>300.04</course>
  <speed>0.3301514803843835</speed>
  <fix>3d</fix>
</trkpt>
<trkpt lat="-27.2745789" lon="151.289375">
  <ele>436.59</ele>
  <time>2026-09-01T19:54:05Z</time>
  <course>322.25</course>
  <speed>0.37</speed>
  <fix>3d</fix>
</trkpt>
<trkpt lat="-27.2745783" lon="151.2893748">
  <ele>436.23</ele>
  <time>2026-09-01T19:54:05Z</time>
  <course>302.2</course>
  <speed>0.3280243893371345</speed>
  <fix>3d</fix>
</trkpt>
<trkpt lat="-27.2745789" lon="151.289375">
  <ele>436.59</ele>
  <time>2026-09-01T19:54:05Z</time>
  <course>322.25</course>
  <speed>0.37</speed>
  <fix>3d</fix>
</trkpt>
<trkpt lat="-27.274578" lon="151.2893745">
  <ele>436.08</ele>
  <time>2026-09-01T19:54:05Z</time>
  <course>299.06</course>
  <speed>0.33421549934136807</speed>
  <fix>3d</fix>
</trkpt>
<trkpt lat="-27.2745783" lon="151.2893745">
  <ele>436.3</ele>
  <time>2026-09-01T19:54:05Z</time>
  <course>320.91</course>
  <speed>0.38</speed>
  <fix>3d</fix>
</trkpt>
<trkpt lat="-27.2745778" lon="151.2893742">
  <ele>435.93</ele>
  <time>2026-09-01T19:54:05Z</time>
  <course>302.07</course>
  <speed>0.32649655434629016</speed>
  <fix>3d</fix>
</trkpt>
<trkpt lat="-27.2745783" lon="151.2893745">
  <ele>436.3</ele>
  <time>2026-09-01T19:54:05Z</time>
  <course>320.91</course>
  <speed>0.38</speed>
  <fix>3d</fix>
</trkpt>
<trkpt lat="-27.2745775" lon="151.289374">
  <ele>435.78</ele>
  <time>2026-09-01T19:54:05Z</time>
  <course>303.23</course>
  <speed>0.32649655434629016</speed>
  <fix>3d</fix>
</trkpt>
<trkpt lat="-27.2745778" lon="151.289374">
  <ele>436.0</ele>
  <time>2026-09-01T19:54:05Z</time>
  <course>317.34</course>
  <speed>0.38</speed>
  <fix>3d</fix>
</trkpt>
<trkpt lat="-27.2745773" lon="151.2893737">
  <ele>435.63</ele>
  <time>2026-09-01T19:54:05Z</time>
  <course>304.33</course>
  <speed>0.32649655434629016</speed>
  <fix>3d</fix>
</trkpt>
<trkpt lat="-27.2745778" lon="151.289374">
  <ele>436.0</ele>
  <time>2026-09-01T19:54:05Z</time>
  <course>317.34</course>
  <speed>0.38</speed>
  <fix>3d</fix>
</trkpt>
<trkpt lat="-27.2745771" lon="151.2893735">
  <ele>435.48</ele>
  <time>2026-09-01T19:54:05Z</time>
  <course>304.89</course>
  <speed>0.32649655434629016</speed>
  <fix>3d</fix>
</trkpt>
<trkpt lat="-27.2745773" lon="151.2893735">
  <ele>435.71</ele>
  <time>2026-09-01T19:54:05Z</time>
  <course>316.3</course>
  <speed>0.38</speed>
  <fix>3d</fix>
</trkpt>
<trkpt lat="-27.2745768" lon="151.2893732">
  <ele>435.34</ele>
  <time>2026-09-01T19:54:05Z</time>
  <course>305.08</course>
  <speed>0.3280243893371345</speed>
  <fix>3d</fix>
</trkpt>
<trkpt lat="-27.2745773" lon="151.2893735">
  <ele>435.71</ele>
  <time>2026-09-01T19:54:05Z</time>
  <course>316.3</course>
  <speed>0.38</speed>
  <fix>3d</fix>
</trkpt>
<trkpt lat="-27.2745766" lon="151.2893729">
  <ele>435.19</ele>
  <time>2026-09-01T19:54:05Z</time>
  <course>304.85</course>
  <speed>0.32649655434629016</speed>
  <fix>3d</fix>
</trkpt>
<trkpt lat="-27.2745768" lon="151.2893729">
  <ele>435.41</ele>
  <time>2026-09-01T19:54:05Z</time>
  <course>317.03</course>
  <speed>0.38</speed>
  <fix>3d</fix>
</trkpt>
<trkpt lat="-27.2745763" lon="151.2893727">
  <ele>435.04</ele>
  <time>2026-09-01T19:54:05Z</time>
  <course>304.32</course>
  <speed>0.32015621187164245</speed>
  <fix>3d</fix>
</trkpt>
<trkpt lat="-27.2745768" lon="151.2893729">
  <ele>435.41</ele>
  <time>2026-09-01T19:54:05Z</time>
  <course>317.03</course>
  <speed>0.38</speed>
  <fix>3d</fix>
</trkpt>
<trkpt lat="-27.2745761" lon="151.2893724">
  <ele>434.89</ele>
  <time>2026-09-01T19:54:05Z</time>
  <course>303.81</course>
  <speed>0.3280243893371345</speed>
  <fix>3d</fix>
</trkpt>
<trkpt lat="-27.2745763" lon="151.2893724">
  <ele>435.12</ele>
  <time>2026-09-01T19:54:05Z</time>
  <course>317.88</course>
  <speed>0.37</speed>
  <fix>3d</fix>
</trkpt>
<trkpt lat="-27.2745758" lon="151.2893722">
  <ele>434.74</ele>
  <time>2026-09-01T19:54:05Z</time>
  <course>304.6</course>
  <speed>0.32015621187164245</speed>
  <fix>3d</fix>
</trkpt>
<trkpt lat="-27.2745763" lon="151.2893724">
  <ele>435.12</ele>
  <time>2026-09-01T19:54:05Z</time>
  <course>317.88</course>
  <speed>0.37</speed>
  <fix>3d</fix>
</trkpt>
<trkpt lat="-27.2745756" lon="151.2893719">
  <ele>434.59</ele>
  <time>2026-09-01T19:54:05Z</time>
  <course>308.5</course>
  <speed>0.32015621187164245</speed>
  <fix>3d</fix>
</trkpt>
<trkpt lat="-27.2745758" lon="151.2893719">
  <ele>434.83</ele>
  <time>2026-09-01T19:54:05Z</time>
  <course>318.24</course>
  <speed>0.37</speed>
  <fix>3d</fix>
</trkpt>
<trkpt lat="-27.2745753" lon="151.2893717">
  <ele>434.44</ele>
  <time>2026-09-01T19:54:05Z</time>
  <course>313.47</course>
  <speed>0.31400636936215165</speed>
  <fix>3d</fix>
</trkpt>
<trkpt lat="-27.2745758" lon="151.2893719">
  <ele>434.83</ele>
  <time>2026-09-01T19:54:05Z</time>
  <course>318.24</course>
  <speed>0.37</speed>
  <fix>3d</fix>
</trkpt>
<trkpt lat="-27.2745751" lon="151.2893714">
  <ele>434.29</ele>
  <time>2026-09-01T19:54:05Z</time>
  <course>314.06</course>
  <speed>0.31400636936215165</speed>
  <fix>3d</fix>
</trkpt>
<trkpt lat="-27.2745753" lon="151.2893714">
  <ele>434.53</ele>
  <time>2026-09-01T19:54:05Z</time>
  <course>318.34</course>
  <speed>0.36</speed>
  <fix>3d</fix>
</trkpt>
<trkpt lat="-27.2745748" lon="151.2893712">
  <ele>434.14</ele>
  <time>2026-09-01T19:54:05Z</time>
  <course>297.0</course>
  <speed>0.30610455730027936</speed>
  <fix>3d</fix>
</trkpt>
<trkpt lat="-27.2745753" lon="151.2893714">
  <ele>434.53</ele>
  <time>2026-09-01T19:54:05Z</time>
  <course>318.34</course>
  <speed>0.36</speed>
  <fix>3d</fix>
</trkpt>
<trkpt lat="-27.2745746" lon="151.289371">
  <ele>433.99</ele>
  <time>2026-09-01T19:54:05Z</time>
  <course>278.02</course>
  <speed>0.30610455730027936</speed>
  <fix>3d</fix>
</trkpt>
<trkpt lat="-27.2745748" lon="151.2893709">
  <ele>434.24</ele>
  <time>2026-09-01T19:54:05Z</time>
  <course>317.92</course>
  <speed>0.35</speed>
  <fix>3d</fix>
</trkpt>
<trkpt lat="-27.2745744" lon="151.2893707">
  <ele>433.85</ele>
  <time>2026-09-01T19:54:05Z</time>
  <course>328.36</course>
  <speed>0.29832867780352595</speed>
  <fix>3d</fix>
</trkpt>
<trkpt lat="-27.2745748" lon="151.2893709">
  <ele>434.24</ele>
  <time>2026-09-01T19:54:05Z</time>
  <course>317.92</course>
  <speed>0.35</speed>
  <fix>3d</fix>
</trkpt>
<trkpt lat="-27.2745741" lon="151.2893705">
  <ele>433.7</ele>
  <time>2026-09-01T19:54:05Z</time>
  <course>308.35</course>
  <speed>0.2920616373302047</speed>
  <fix>3d</fix>
</trkpt>
<trkpt lat="-27.2745744" lon="151.2893704">
  <ele>433.95</ele>
  <time>2026-09-01T19:54:05Z</time>
  <course>317.22</course>
  <speed>0.34</speed>
  <fix>3d</fix>
</trkpt>
<trkpt lat="-27.2745739" lon="151.2893702">
  <ele>433.55</ele>
  <time>2026-09-01T19:54:05Z</time>
  <course>291.9</course>
  <speed>0.28600699292150183</speed>
  <fix>3d</fix>
</trkpt>
<trkpt lat="-27.2745744" lon="151.2893704">
  <ele>433.95</ele>
  <time>2026-09-01T19:54:05Z</time>
  <course>317.22</course>
  <speed>0.34</speed>
  <fix>3d</fix>
</trkpt>
<trkpt lat="-27.2745737" lon="151.28937">
  <ele>433.4</ele>
  <time>2026-09-01T19:54:05Z</time>
  <course>304.21</course>
  <speed>0.2884441020371191</speed>
  <fix>3d</fix>
</trkpt>
<trkpt lat="-27.2745739" lon="151.28937">
  <ele>433.65</ele>
  <time>2026-09-01T19:54:05Z</time>
  <course>317.82</course>
  <speed>0.34</speed>
  <fix>3d</fix>
</trkpt>
<trkpt lat="-27.2745735" lon="151.2893698">
  <ele>433.25</ele>
  <time>2026-09-01T19:54:05Z</time>
  <course>297.94</course>
  <speed>0.2830194339616981</speed>
  <fix>3d</fix>
</trkpt>
<trkpt lat="-27.2745739" lon="151.28937">
  <ele>433.65</ele>
  <time>2026-09-01T19:54:05Z</time>
  <course>317.82</course>
  <speed>0.34</speed>
  <fix>3d</fix>
</trkpt>
<trkpt lat="-27.2745732" lon="151.2893696">
  <ele>433.11</ele>
  <time>2026-09-01T19:54:05Z</time>
  <course>298.21</course>
  <speed>0.2745906043549196</speed>
  <fix>3d</fix>
</trkpt>
<trkpt lat="-27.2745734" lon="151.2893695">
  <ele>433.36</ele>
  <time>2026-09-01T19:54:05Z</time>
  <course>320.3</course>
  <speed>0.33</speed>
  <fix>3d</fix>
</trkpt>
<trkpt lat="-27.274573" lon="151.2893694">
  <ele>432.96</ele>
  <time>2026-09-01T19:54:05Z</time>
  <course>297.31</course>
  <speed>0.2745906043549196</speed>
  <fix>3d</fix>
</trkpt>
<trkpt lat="-27.2745734" lon="151.2893695">
  <ele>433.36</ele>
  <time>2026-09-01T19:54:05Z</time>
  <course>320.3</course>
  <speed>0.33</speed>
  <fix>3d</fix>
</trkpt>
<trkpt lat="-27.2745728" lon="151.2893692">
  <ele>432.81</ele>
  <time>2026-09-01T19:54:05Z</time>
  <course>296.92</course>
  <speed>0.266270539113887</speed>
  <fix>3d</fix>
</trkpt>
<trkpt lat="-27.2745729" lon="151.289369">
  <ele>433.06</ele>
  <time>2026-09-01T19:54:05Z</time>
  <course>321.71</course>
  <speed>0.31</speed>
  <fix>3d</fix>
</trkpt>
<trkpt lat="-27.2745725" lon="151.289369">
  <ele>432.66</ele>
  <time>2026-09-01T19:54:05Z</time>
  <course>296.61</course>
  <speed>0.266270539113887</speed>
  <fix>3d</fix>
</trkpt>
<trkpt lat="-27.2745729" lon="151.289369">
  <ele>433.06</ele>
  <time>2026-09-01T19:54:05Z</time>
  <course>321.71</course>
  <speed>0.31</speed>
  <fix>3d</fix>
</trkpt>
<trkpt lat="-27.2745723" lon="151.2893688">
  <ele>432.51</ele>
  <time>2026-09-01T19:54:05Z</time>
  <course>296.43</course>
  <speed>0.260768096208106</speed>
  <fix>3d</fix>
</trkpt>
<trkpt lat="-27.2745726" lon="151.2893687">
  <ele>432.77</ele>
  <time>2026-09-01T19:54:05Z</time>
  <course>321.26</course>
  <speed>0.3</speed>
  <fix>3d</fix>
</trkpt>
<trkpt lat="-27.2745721" lon="151.2893686">
  <ele>432.37</ele>
  <time>2026-09-01T19:54:05Z</time>
  <course>296.18</course>
  <speed>0.25238858928247926</speed>
  <fix>3d</fix>
</trkpt>
<trkpt lat="-27.2745726" lon="151.2893687">
  <ele>432.77</ele>
  <time>2026-09-01T19:54:05Z</time>
  <course>321.26</course>
  <speed>0.3</speed>
  <fix>3d</fix>
</trkpt>
<trkpt lat="-27.2745719" lon="151.2893684">
  <ele>432.22</ele>
  <time>2026-09-01T19:54:05Z</time>
  <course>295.79</course>
  <speed>0.24698178070456936</speed>
  <fix>3d</fix>
</trkpt>
<trkpt lat="-27.2745722" lon="151.2893683">
  <ele>432.47</ele>
  <time>2026-09-01T19:54:05Z</time>
  <course>321.04</course>
  <speed>0.29</speed>
  <fix>3d</fix>
</trkpt>
<trkpt lat="-27.2745717" lon="151.2893683">
  <ele>432.07</ele>
  <time>2026-09-01T19:54:05Z</time>
  <course>295.06</course>
  <speed>0.23853720883753127</speed>
  <fix>3d</fix>
</trkpt>
<trkpt lat="-27.2745722" lon="151.2893683">
  <ele>432.47</ele>
  <time>2026-09-01T19:54:05Z</time>
  <course>321.04</course>
  <speed>0.29</speed>
  <fix>3d</fix>
</trkpt>
<trkpt lat="-27.2745715" lon="151.2893681">
  <ele>431.92</ele>
  <time>2026-09-01T19:54:05Z</time>
  <course>294.4</course>
  <speed>0.23853720883753127</speed>
  <fix>3d</fix>
</trkpt>
<trkpt lat="-27.2745717" lon="151.2893679">
  <ele>432.16</ele>
  <time>2026-09-01T19:54:05Z</time>
  <course>321.05</course>
  <speed>0.28</speed>
  <fix>3d</fix>
</trkpt>
<trkpt lat="-27.2745713" lon="151.2893679">
  <ele>431.77</ele>
  <time>2026-09-01T19:54:05Z</time>
  <course>296.6</course>
  <speed>0.22472205054244232</speed>
  <fix>3d</fix>
</trkpt>
<trkpt lat="-27.2745717" lon="151.2893679">
  <ele>432.16</ele>
  <time>2026-09-01T19:54:05Z</time>
  <course>321.05</course>
  <speed>0.28</speed>
  <fix>3d</fix>
</trkpt>
<trkpt lat="-27.2745712" lon="151.2893677">
  <ele>431.62</ele>
  <time>2026-09-01T19:54:05Z</time>
  <course>301.98</course>
  <speed>0.21633307652783937</speed>
  <fix>3d</fix>
</trkpt>
<trkpt lat="-27.2745714" lon="151.2893676">
  <ele>431.87</ele>
  <time>2026-09-01T19:54:05Z</time>
  <course>321.11</course>
  <speed>0.27</speed>
  <fix>3d</fix>
</trkpt>
<trkpt lat="-27.274571" lon="151.2893676">
  <ele>431.47</ele>
  <time>2026-09-01T19:54:05Z</time>
  <course>275.85</course>
  <speed>0.21633307652783937</speed>
  <fix>3d</fix>
</trkpt>
<trkpt lat="-27.2745714" lon="151.2893676">
  <ele>431.87</ele>
  <time>2026-09-01T19:54:05Z</time>
  <course>321.11</course>
  <speed>0.27</speed>
  <fix>3d</fix>
</trkpt>
<trkpt lat="-27.2745708" lon="151.2893674">
  <ele>431.32</ele>
  <time>2026-09-01T19:54:05Z</time>
  <course>281.33</course>
  <speed>0.20808652046684814</speed>
  <fix>3d</fix>
</trkpt>
<trkpt lat="-27.274571" lon="151.2893672">
  <ele>431.58</ele>
  <time>2026-09-01T19:54:05Z</time>
  <course>320.68</course>
  <speed>0.25</speed>
  <fix>3d</fix>
</trkpt>
<trkpt lat="-27.2745707" lon="151.2893672">
  <ele>431.18</ele>
  <time>2026-09-01T19:54:05Z</time>
  <course>281.33</course>
  <speed>0.2</speed>
  <fix>3d</fix>
</trkpt>
<trkpt lat="-27.274571" lon="151.2893672">
  <ele>431.58</ele>
  <time>2026-09-01T19:54:05Z</time>
  <course>320.68</course>
  <speed>0.25</speed>
  <fix>3d</fix>
</trkpt>
<trkpt lat="-27.2745705" lon="151.289367">
  <ele>431.03</ele>
  <time>2026-09-01T19:54:05Z</time>
  <course>283.27</course>
  <speed>0.19849433241279207</speed>
  <fix>3d</fix>
</trkpt>
<trkpt lat="-27.2745706" lon="151.2893669">
  <ele>431.28</ele>
  <time>2026-09-01T19:54:05Z</time>
  <course>318.12</course>
  <speed>0.24</speed>
  <fix>3d</fix>
</trkpt>
<trkpt lat="-27.2745704" lon="151.2893669">
  <ele>430.88</ele>
  <time>2026-09-01T19:54:05Z</time>
  <course>333.54</course>
  <speed>0.19209372712298545</speed>
  <fix>3d</fix>
</trkpt>
<trkpt lat="-27.2745706" lon="151.2893669">
  <ele>431.28</ele>
  <time>2026-09-01T19:54:05Z</time>
  <course>318.12</course>
  <speed>0.24</speed>
  <fix>3d</fix>
</trkpt>
<trkpt lat="-27.2745702" lon="151.2893667">
  <ele>430.73</ele>
  <time>2026-09-01T19:54:05Z</time>
  <course>280.54</course>
  <speed>0.18601075237738274</speed>
  <fix>3d</fix>
</trkpt>
<trkpt lat="-27.2745703" lon="151.2893666">
  <ele>430.97</ele>
  <time>2026-09-01T19:54:05Z</time>
  <course>315.18</course>
  <speed>0.23</speed>
  <fix>3d</fix>
</trkpt>
<trkpt lat="-27.2745701" lon="151.2893666">
  <ele>430.58</ele>
  <time>2026-09-01T19:54:05Z</time>
  <course>273.62</course>
  <speed>0.18027756377319945</speed>
  <fix>3d</fix>
</trkpt>
<trkpt lat="-27.2745703" lon="151.2893666">
  <ele>430.97</ele>
  <time>2026-09-01T19:54:05Z</time>
  <course>315.18</course>
  <speed>0.23</speed>
  <fix>3d</fix>
</trkpt>
<trkpt lat="-27.2745699" lon="151.2893664">
  <ele>430.43</ele>
  <time>2026-09-01T19:54:05Z</time>
  <course>305.86</course>
  <speed>0.1835755975068582</speed>
  <fix>3d</fix>
</trkpt>
<trkpt lat="-27.27457" lon="151.2893663">
  <ele>430.68</ele>
  <time>2026-09-01T19:54:05Z</time>
  <course>316.03</course>
  <speed>0.22</speed>
  <fix>3d</fix>
</trkpt>
<trkpt lat="-27.2745698" lon="151.2893663">
  <ele>430.28</ele>
  <time>2026-09-01T19:54:05Z</time>
  <course>281.58</course>
  <speed>0.17464249196572978</speed>
  <fix>3d</fix>
</trkpt>
<trkpt lat="-27.27457" lon="151.2893663">
  <ele>430.68</ele>
  <time>2026-09-01T19:54:05Z</time>
  <course>316.03</course>
  <speed>0.22</speed>
  <fix>3d</fix>
</trkpt>
<trkpt lat="-27.2745696" lon="151.2893662">
  <ele>430.13</ele>
  <time>2026-09-01T19:54:05Z</time>
  <course>284.57</course>
  <speed>0.17464249196572978</speed>
  <fix>3d</fix>
</trkpt>
<trkpt lat="-27.2745697" lon="151.289366">
  <ele>430.37</ele>
  <time>2026-09-01T19:54:05Z</time>
  <course>321.73</course>
  <speed>0.2</speed>
  <fix>3d</fix>
</trkpt>
<trkpt lat="-27.2745694" lon="151.2893661">
  <ele>429.98</ele>
  <time>2026-09-01T19:54:05Z</time>
  <course>280.27</course>
  <speed>0.1615549442140351</speed>
  <fix>3d</fix>
</trkpt>
<trkpt lat="-27.2745697" lon="151.289366">
  <ele>430.37</ele>
  <time>2026-09-01T19:54:05Z</time>
  <course>321.73</course>
  <speed>0.2</speed>
  <fix>3d</fix>
</trkpt>
<trkpt lat="-27.2745693" lon="151.289366">
  <ele>429.83</ele>
  <time>2026-09-01T19:54:05Z</time>
  <course>278.42</course>
  <speed>0.1615549442140351</speed>
  <fix>3d</fix>
</trkpt>
<trkpt lat="-27.2745694" lon="151.2893657">
  <ele>430.07</ele>
  <time>2026-09-01T19:54:05Z</time>
  <course>326.15</course>
  <speed>0.19</speed>
  <fix>3d</fix>
</trkpt>
<trkpt lat="-27.2745691" lon="151.2893659">
  <ele>429.68</ele>
  <time>2026-09-01T19:54:05Z</time>
  <course>276.33</course>
  <speed>0.14866068747318506</speed>
  <fix>3d</fix>
</trkpt>
<trkpt lat="-27.2745694" lon="151.2893657">
  <ele>430.07</ele>
  <time>2026-09-01T19:54:05Z</time>
  <course>326.15</course>
  <speed>0.19</speed>
  <fix>3d</fix>
</trkpt>
<trkpt lat="-27.274569" lon="151.2893658">
  <ele>429.53</ele>
  <time>2026-09-01T19:54:05Z</time>
  <course>274.03</course>
  <speed>0.14866068747318506</speed>
  <fix>3d</fix>
</trkpt>
<trkpt lat="-27.2745692" lon="151.2893656">
  <ele>429.77</ele>
  <time>2026-09-01T19:54:05Z</time>
  <course>326.26</course>
  <speed>0.18</speed>
  <fix>3d</fix>
</trkpt>
<trkpt lat="-27.2745689" lon="151.2893657">
  <ele>429.37</ele>
  <time>2026-09-01T19:54:05Z</time>
  <course>271.57</course>
  <speed>0.1392838827718412</speed>
  <fix>3d</fix>
</trkpt>
<trkpt lat="-27.2745692" lon="151.2893656">
  <ele>429.77</ele>
  <time>2026-09-01T19:54:05Z</time>
  <course>326.26</course>
  <speed>0.18</speed>
  <fix>3d</fix>
</trkpt>
<trkpt lat="-27.2745688" lon="151.2893656">
  <ele>429.22</ele>
  <time>2026-09-01T19:54:05Z</time>
  <course>279.39</course>
  <speed>0.13601470508735444</speed>
  <fix>3d</fix>
</trkpt>
<trkpt lat="-27.2745689" lon="151.2893654">
  <ele>429.47</ele>
  <time>2026-09-01T19:54:05Z</time>
  <course>326.34</course>
  <speed>0.16</speed>
  <fix>3d</fix>
</trkpt>
<trkpt lat="-27.2745686" lon="151.2893655">
  <ele>429.07</ele>
  <time>2026-09-01T19:54:05Z</time>
  <course>203.42</course>
  <speed>0.1264911064067352</speed>
  <fix>3d</fix>
</trkpt>
<trkpt lat="-27.2745689" lon="151.2893654">
  <ele>429.47</ele>
  <time>2026-09-01T19:54:05Z</time>
  <course>326.34</course>
  <speed>0.16</speed>
  <fix>3d</fix>
</trkpt>
<trkpt lat="-27.2745685" lon="151.2893654">
  <ele>428.92</ele>
  <time>2026-09-01T19:54:05Z</time>
  <course>271.22</course>
  <speed>0.1264911064067352</speed>
  <fix>3d</fix>
</trkpt>
<trkpt lat="-27.2745686" lon="151.2893652">
  <ele>429.16</ele>
  <time>2026-09-01T19:54:05Z</time>
  <course>326.48</course>
  <speed>0.15</speed>
  <fix>3d</fix>
</trkpt>
<trkpt lat="-27.2745684" lon="151.2893654">
  <ele>428.77</ele>
  <time>2026-09-01T19:54:05Z</time>
  <course>284.78</course>
  <speed>0.11704699910719625</speed>
  <fix>3d</fix>
</trkpt>
<trkpt lat="-27.2745686" lon="151.2893652">
  <ele>429.16</ele>
  <time>2026-09-01T19:54:05Z</time>
  <course>326.48</course>
  <speed>0.15</speed>
  <fix>3d</fix>
</trkpt>
<trkpt lat="-27.2745683" lon="151.2893653">
  <ele>428.62</ele>
  <time>2026-09-01T19:54:05Z</time>
  <course>249.97</course>
  <speed>0.11401754250991379</speed>
  <fix>3d</fix>
</trkpt>
<trkpt lat="-27.2745685" lon="151.2893649">
  <ele>428.86</ele>
  <time>2026-09-01T19:54:05Z</time>
  <course>325.58</course>
  <speed>0.14</speed>
  <fix>3d</fix>
</trkpt>
<trkpt lat="-27.2745682" lon="151.2893652">
  <ele>428.47</ele>
  <time>2026-09-01T19:54:05Z</time>
  <course>262.31</course>
  <speed>0.11401754250991379</speed>
  <fix>3d</fix>
</trkpt>
<trkpt lat="-27.2745685" lon="151.2893649">
  <ele>428.86</ele>
  <time>2026-09-01T19:54:05Z</time>
  <course>325.58</course>
  <speed>0.14</speed>
  <fix>3d</fix>
</trkpt>
<trkpt lat="-27.2745681" lon="151.2893651">
  <ele>428.31</ele>
  <time>2026-09-01T19:54:05Z</time>
  <course>257.97</course>
  <speed>0.11401754250991379</speed>
  <fix>3d</fix>
</trkpt>
<trkpt lat="-27.2745683" lon="151.2893648">
  <ele>428.56</ele>
  <time>2026-09-01T19:54:05Z</time>
  <course>324.57</course>
  <speed>0.13</speed>
  <fix>3d</fix>
</trkpt>
<trkpt lat="-27.274568" lon="151.2893651">
  <ele>428.16</ele>
  <time>2026-09-01T19:54:05Z</time>
  <course>255.93</course>
  <speed>0.1019803902718557</speed>
  <fix>3d</fix>
</trkpt>
<trkpt lat="-27.2745683" lon="151.2893648">
  <ele>428.56</ele>
  <time>2026-09-01T19:54:05Z</time>
  <course>324.57</course>
  <speed>0.13</speed>
  <fix>3d</fix>
</trkpt>
<trkpt lat="-27.2745679" lon="151.289365">
  <ele>428.01</ele>
  <time>2026-09-01T19:54:05Z</time>
  <course>255.23</course>
  <speed>0.1019803902718557</speed>
  <fix>3d</fix>
</trkpt>
<trkpt lat="-27.274568" lon="151.2893647">
  <ele>428.26</ele>
  <time>2026-09-01T19:54:05Z</time>
  <course>325.54</course>
  <speed>0.12</speed>
  <fix>3d</fix>
</trkpt>
<trkpt lat="-27.2745678" lon="151.2893649">
  <ele>427.85</ele>
  <time>2026-09-01T19:54:05Z</time>
  <course>255.59</course>
  <speed>0.1019803902718557</speed>
  <fix>3d</fix>
</trkpt>
<trkpt lat="-27.274568" lon="151.2893647">
  <ele>428.26</ele>
  <time>2026-09-01T19:54:05Z</time>
  <course>325.54</course>
  <speed>0.12</speed>
  <fix>3d</fix>
</trkpt>
<trkpt lat="-27.2745677" lon="151.2893649">
  <ele>427.7</ele>
  <time>2026-09-01T19:54:05Z</time>
  <course>250.31</course>
  <speed>0.09055385138137417</speed>
  <fix>3d</fix>
</trkpt>
<trkpt lat="-27.2745679" lon="151.2893645">
  <ele>427.96</ele>
  <time>2026-09-01T19:54:05Z</time>
  <course>327.35</course>
  <speed>0.11</speed>
  <fix>3d</fix>
</trkpt>
<trkpt lat="-27.2745677" lon="151.2893648">
  <ele>427.55</ele>
  <time>2026-09-01T19:54:05Z</time>
  <course>237.62</course>
  <speed>0.08062257748298549</speed>
  <fix>3d</fix>
</trkpt>
<trkpt lat="-27.2745679" lon="151.2893645">
  <ele>427.96</ele>
  <time>2026-09-01T19:54:05Z</time>
  <course>327.35</course>
  <speed>0.11</speed>
  <fix>3d</fix>
</trkpt>
<trkpt lat="-27.2745676" lon="151.2893647">
  <ele>427.4</ele>
  <time>2026-09-01T19:54:05Z</time>
  <course>231.69</course>
  <speed>0.07280109889280519</speed>
  <fix>3d</fix>
</trkpt>
<trkpt lat="-27.2745677" lon="151.2893644">
  <ele>427.66</ele>
  <time>2026-09-01T19:54:05Z</time>
  <course>326.78</course>
  <speed>0.1</speed>
  <fix>3d</fix>
</trkpt>
<trkpt lat="-27.2745675" lon="151.2893647">
  <ele>427.25</ele>
  <time>2026-09-01T19:54:05Z</time>
  <course>259.12</course>
  <speed>0.07071067811865475</speed>
  <fix>3d</fix>
</trkpt>
<trkpt lat="-27.2745677" lon="151.2893644">
  <ele>427.66</ele>
  <time>2026-09-01T19:54:05Z</time>
  <course>326.78</course>
  <speed>0.1</speed>
  <fix>3d</fix>
</trkpt>
<trkpt lat="-27.2745675" lon="151.2893646">
  <ele>427.1</ele>
  <time>2026-09-01T19:54:05Z</time>
  <course>240.04</course>
  <speed>0.07071067811865475</speed>
  <fix>3d</fix>
</trkpt>
<trkpt lat="-27.2745675" lon="151.2893643">
  <ele>427.36</ele>
  <time>2026-09-01T19:54:05Z</time>
  <course>322.55</course>
  <speed>0.09</speed>
  <fix>3d</fix>
</trkpt>
<trkpt lat="-27.2745674" lon="151.2893646">
  <ele>426.95</ele>
  <time>2026-09-01T19:54:05Z</time>
  <course>229.07</course>
  <speed>0.06</speed>
  <fix>3d</fix>
</trkpt>
<trkpt lat="-27.2745675" lon="151.2893643">
  <ele>427.36</ele>
  <time>2026-09-01T19:54:05Z</time>
  <course>322.55</course>
  <speed>0.09</speed>
  <fix>3d</fix>
</trkpt>
<trkpt lat="-27.2745673" lon="151.2893645">
  <ele>426.8</ele>
  <time>2026-09-01T19:54:05Z</time>
  <course>221.04</course>
  <speed>0.07</speed>
  <fix>3d</fix>
</trkpt>
<trkpt lat="-27.2745674" lon="151.2893642">
  <ele>427.06</ele>
  <time>2026-09-01T19:54:05Z</time>
  <course>322.31</course>
  <speed>0.08</speed>
  <fix>3d</fix>
</trkpt>
<trkpt lat="-27.2745673" lon="151.2893645">
  <ele>426.65</ele>
  <time>2026-09-01T19:54:05Z</time>
  <course>225.24</course>
  <speed>0.07071067811865475</speed>
  <fix>3d</fix>
</trkpt>
<trkpt lat="-27.2745674" lon="151.2893642">
  <ele>427.06</ele>
  <time>2026-09-01T19:54:05Z</time>
  <course>322.31</course>
  <speed>0.08</speed>
  <fix>3d</fix>
</trkpt>
<trkpt lat="-27.2745672" lon="151.2893645">
  <ele>426.51</ele>
  <time>2026-09-01T19:54:05Z</time>
  <course>270.95</course>
  <speed>0.07280109889280519</speed>
  <fix>3d</fix>
</trkpt>
<trkpt lat="-27.2745673" lon="151.2893641">
  <ele>426.76</ele>
  <time>2026-09-01T19:54:05Z</time>
  <course>333.22</course>
  <speed>0.07</speed>
  <fix>3d</fix>
</trkpt>
<trkpt lat="-27.2745671" lon="151.2893645">
  <ele>426.36</ele>
  <time>2026-09-01T19:54:06Z</time>
  <course>205.03</course>
  <speed>0.07280109889280519</speed>
  <fix>3d</fix>
</trkpt>
<trkpt lat="-27.2745673" lon="151.2893641">
  <ele>426.76</ele>
  <time>2026-09-01T19:54:06Z</time>
  <course>333.22</course>
  <speed>0.07</speed>
  <fix>3d</fix>
</trkpt>
<trkpt lat="-27.2745671" lon="151.2893645">
  <ele>426.2</ele>
  <time>2026-09-01T19:54:06Z</time>
  <course>195.44</course>
  <speed>0.0632455532033676</speed>
  <fix>3d</fix>
</trkpt>
<trkpt lat="-27.2745671" lon="151.2893641">
  <ele>426.46</ele>
  <time>2026-09-01T19:54:06Z</time>
  <course>346.12</course>
  <speed>0.07</speed>
  <fix>3d</fix>
</trkpt>
<trkpt lat="-27.274567" lon="151.2893645">
  <ele>426.05</ele>
  <time>2026-09-01T19:54:06Z</time>
  <course>226.29</course>
  <speed>0.0632455532033676</speed>
  <fix>3d</fix>
</trkpt>
<trkpt lat="-27.2745671" lon="151.2893641">
  <ele>426.46</ele>
  <time>2026-09-01T19:54:06Z</time>
  <course>346.12</course>
  <speed>0.07</speed>
  <fix>3d</fix>
</trkpt>
<trkpt lat="-27.274567" lon="151.2893644">
  <ele>425.9</ele>
  <time>2026-09-01T19:54:06Z</time>
  <course>210.57</course>
  <speed>0.053851648071345036</speed>
  <fix>3d</fix>
</trkpt>
<trkpt lat="-27.274567" lon="151.289364">
  <ele>426.16</ele>
  <time>2026-09-01T19:54:06Z</time>
  <course>351.65</course>
  <speed>0.06</speed>
  <fix>3d</fix>
</trkpt>
<trkpt lat="-27.2745669" lon="151.2893644">
  <ele>425.75</ele>
  <time>2026-09-01T19:54:06Z</time>
  <course>211.75</course>
  <speed>0.05830951894845301</speed>
  <fix>3d</fix>
</trkpt>
<trkpt lat="-27.274567" lon="151.289364">
  <ele>426.16</ele>
  <time>2026-09-01T19:54:06Z</time>
  <course>351.65</course>
  <speed>0.06</speed>
  <fix>3d</fix>
</trkpt>
<trkpt lat="-27.2745669" lon="151.2893644">
  <ele>425.61</ele>
  <time>2026-09-01T19:54:06Z</time>
  <course>209.6</course>
  <speed>0.0670820393249937</speed>
  <fix>3d</fix>
</trkpt>
<trkpt lat="-27.2745669" lon="151.289364">
  <ele>425.86</ele>
  <time>2026-09-01T19:54:06Z</time>
  <course>354.07</course>
  <speed>0.06</speed>
  <fix>3d</fix>
</trkpt>
<trkpt lat="-27.2745668" lon="151.2893644">
  <ele>425.46</ele>
  <time>2026-09-01T19:54:06Z</time>
  <course>207.98</course>
  <speed>0.05830951894845301</speed>
  <fix>3d</fix>
</trkpt>
<trkpt lat="-27.2745669" lon="151.289364">
  <ele>425.86</ele>
  <time>2026-09-01T19:54:06Z</time>
  <course>354.07</course>
  <speed>0.06</speed>
  <fix>3d</fix>
</trkpt>
<trkpt lat="-27.2745668" lon="151.2893644">
  <ele>425.31</ele>
  <time>2026-09-01T19:54:06Z</time>
  <course>206.07</course>
  <speed>0.05830951894845301</speed>
  <fix>3d</fix>
</trkpt>
<trkpt lat="-27.2745668" lon="151.289364">
  <ele>425.56</ele>
  <time>2026-09-01T19:54:06Z</time>
  <course>358.63</course>
  <speed>0.05</speed>
  <fix>3d</fix>
</trkpt>
<trkpt lat="-27.2745667" lon="151.2893644">
  <ele>425.17</ele>
  <time>2026-09-01T19:54:06Z</time>
  <course>202.04</course>
  <speed>0.06403124237432849</speed>
  <fix>3d</fix>
</trkpt>
<trkpt lat="-27.2745668" lon="151.289364">
  <ele>425.56</ele>
  <time>2026-09-01T19:54:06Z</time>
  <course>358.63</course>
  <speed>0.05</speed>
  <fix>3d</fix>
</trkpt>
<trkpt lat="-27.2745667" lon="151.2893644">
  <ele>425.02</ele>
  <time>2026-09-01T19:54:06Z</time>
  <course>193.92</course>
  <speed>0.05</speed>
  <fix>3d</fix>
</trkpt>
<trkpt lat="-27.2745667" lon="151.289364">
  <ele>425.26</ele>
  <time>2026-09-01T19:54:06Z</time>
  <course>2.63</course>
  <speed>0.05</speed>
  <fix>3d</fix>
</trkpt>
<trkpt lat="-27.2745666" lon="151.2893644">
  <ele>424.87</ele>
  <time>2026-09-01T19:54:06Z</time>
  <course>181.4</course>
  <speed>0.04242640687119285</speed>
  <fix>3d</fix>
</trkpt>
<trkpt lat="-27.2745667" lon="151.289364">
  <ele>425.26</ele>
  <time>2026-09-01T19:54:06Z</time>
  <course>2.63</course>
  <speed>0.05</speed>
  <fix>3d</fix>
</trkpt>
<trkpt lat="-27.2745666" lon="151.2893644">
  <ele>424.72</ele>
  <time>2026-09-01T19:54:06Z</time>
  <course>207.37</course>
  <speed>0.03605551275463989</speed>
  <fix>3d</fix>
</trkpt>
<trkpt lat="-27.2745666" lon="151.289364">
  <ele>424.96</ele>
  <time>2026-09-01T19:54:06Z</time>
  <course>5.04</course>
  <speed>0.04</speed>
  <fix>3d</fix>
</trkpt>
<trkpt lat="-27.2745666" lon="151.2893644">
  <ele>424.57</ele>
  <time>2026-09-01T19:54:06Z</time>
  <course>207.31</course>
  <speed>0.0412310562561766</speed>
  <fix>3d</fix>
</trkpt>
<trkpt lat="-27.2745666" lon="151.289364">
  <ele>424.96</ele>
  <time>2026-09-01T19:54:06Z</time>
  <course>5.04</course>
  <speed>0.04</speed>
  <fix>3d</fix>
</trkpt>
<trkpt lat="-27.2745666" lon="151.2893644">
  <ele>424.42</ele>
  <time>2026-09-01T19:54:06Z</time>
  <course>167.93</course>
  <speed>0.06</speed>
  <fix>3d</fix>
</trkpt>
<trkpt lat="-27.2745666" lon="151.289364">
  <ele>424.66</ele>
  <time>2026-09-01T19:54:06Z</time>
  <course>11.84</course>
  <speed>0.02</speed>
  <fix>3d</fix>
</trkpt>
<trkpt lat="-27.2745666" lon="151.2893644">
  <ele>424.27</ele>
  <time>2026-09-01T19:54:06Z</time>
  <course>179.97</course>
  <speed>0.0824621125123532</speed>
  <fix>3d</fix>
</trkpt>
<trkpt lat="-27.2745666" lon="151.289364">
  <ele>424.66</ele>
  <time>2026-09-01T19:54:06Z</time>
  <course>11.84</course>
  <speed>0.02</speed>
  <fix>3d</fix>
</trkpt>
<trkpt lat="-27.2745666" lon="151.2893644">
  <ele>424.12</ele>
  <time>2026-09-01T19:54:06Z</time>
  <course>201.29</course>
  <speed>0.1044030650891055</speed>
  <fix>3d</fix>
</trkpt>
<trkpt lat="-27.2745666" lon="151.289364">
  <ele>424.35</ele>
  <time>2026-09-01T19:54:06Z</time>
  <course>101.98</course>
  <speed>0.02</speed>
  <fix>3d</fix>
</trkpt>
<trkpt lat="-27.2745666" lon="151.2893645">
  <ele>423.96</ele>
  <time>2026-09-01T19:54:06Z</time>
  <course>242.89</course>
  <speed>0.13341664064126335</speed>
  <fix>3d</fix>
</trkpt>
<trkpt lat="-27.2745666" lon="151.289364">
  <ele>424.35</ele>
  <time>2026-09-01T19:54:06Z</time>
  <course>101.98</course>
  <speed>0.02</speed>
  <fix>3d</fix>
</trkpt>
<trkpt lat="-27.2745666" lon="151.2893646">
  <ele>423.81</ele>
  <time>2026-09-01T19:54:06Z</time>
  <course>184.33</course>
  <speed>0.14560219778561037</speed>
  <fix>3d</fix>
</trkpt>
<trkpt lat="-27.2745666" lon="151.289364">
  <ele>424.04</ele>
  <time>2026-09-01T19:54:06Z</time>
  <course>115.1</course>
  <speed>0.07</speed>
  <fix>3d</fix>
</trkpt>
<trkpt lat="-27.2745666" lon="151.2893647">
  <ele>423.66</ele>
  <time>2026-09-01T19:54:06Z</time>
  <course>196.66</course>
  <speed>0.15524174696260024</speed>
  <fix>3d</fix>
</trkpt>
<trkpt lat="-27.2745666" lon="151.289364">
  <ele>424.04</ele>
  <time>2026-09-01T19:54:06Z</time>
  <course>115.1</course>
  <speed>0.07</speed>
  <fix>3d</fix>
</trkpt>
<trkpt lat="-27.2745667" lon="151.2893648">
  <ele>423.5</ele>
  <time>2026-09-01T19:54:06Z</time>
  <course>212.62</course>
  <speed>0.1649242250247064</speed>
  <fix>3d</fix>
</trkpt>
<trkpt lat="-27.2745666" lon="151.2893642">
  <ele>423.73</ele>
  <time>2026-09-01T19:54:06Z</time>
  <course>111.92</course>
  <speed>0.11</speed>
  <fix>3d</fix>
</trkpt>
<trkpt lat="-27.2745667" lon="151.289365">
  <ele>423.35</ele>
  <time>2026-09-01T19:54:06Z</time>
  <course>207.85</course>
  <speed>0.1649242250247064</speed>
  <fix>3d</fix>
</trkpt>
<trkpt lat="-27.2745666" lon="151.2893642">
  <ele>423.73</ele>
  <time>2026-09-01T19:54:06Z</time>
  <course>111.92</course>
  <speed>0.11</speed>
  <fix>3d</fix>
</trkpt>
<trkpt lat="-27.2745668" lon="151.2893651">
  <ele>423.19</ele>
  <time>2026-09-01T19:54:06Z</time>
  <course>210.62</course>
  <speed>0.1772004514666935</speed>
  <fix>3d</fix>
</trkpt>
<trkpt lat="-27.2745666" lon="151.2893644">
  <ele>423.42</ele>
  <time>2026-09-01T19:54:06Z</time>
  <course>110.89</course>
  <speed>0.13</speed>
  <fix>3d</fix>
</trkpt>
<trkpt lat="-27.2745668" lon="151.2893652">
  <ele>423.04</ele>
  <time>2026-09-01T19:54:06Z</time>
  <course>211.22</course>
  <speed>0.1772004514666935</speed>
  <fix>3d</fix>
</trkpt>
<trkpt lat="-27.2745666" lon="151.2893644">
  <ele>423.42</ele>
  <time>2026-09-01T19:54:06Z</time>
  <course>110.89</course>
  <speed>0.13</speed>
  <fix>3d</fix>
</trkpt>
<trkpt lat="-27.2745668" lon="151.2893653">
  <ele>422.89</ele>
  <time>2026-09-01T19:54:06Z</time>
  <course>212.01</course>
  <speed>0.1772004514666935</speed>
  <fix>3d</fix>
</trkpt>
<trkpt lat="-27.2745667" lon="151.2893647">
  <ele>423.11</ele>
  <time>2026-09-01T19:54:06Z</time>
  <course>111.6</course>
  <speed>0.14</speed>
  <fix>3d</fix>
</trkpt>
<trkpt lat="-27.2745669" lon="151.2893655">
  <ele>422.74</ele>
  <time>2026-09-01T19:54:06Z</time>
  <course>212.58</course>
  <speed>0.1772004514666935</speed>
  <fix>3d</fix>
</trkpt>
<trkpt lat="-27.2745667" lon="151.2893647">
  <ele>423.11</ele>
  <time>2026-09-01T19:54:06Z</time>
  <course>111.6</course>
  <speed>0.14</speed>
  <fix>3d</fix>
</trkpt>
<trkpt lat="-27.2745669" lon="151.2893656">
  <ele>422.59</ele>
  <time>2026-09-01T19:54:06Z</time>
  <course>213.06</course>
  <speed>0.1772004514666935</speed>
  <fix>3d</fix>
</trkpt>
<trkpt lat="-27.2745668" lon="151.289365">
  <ele>422.81</ele>
  <time>2026-09-01T19:54:06Z</time>
  <course>112.78</course>
  <speed>0.15</speed>
  <fix>3d</fix>
</trkpt>
<trkpt lat="-27.274567" lon="151.2893657">
  <ele>422.44</ele>
  <time>2026-09-01T19:54:06Z</time>
  <course>213.13</course>
  <speed>0.18027756377319945</speed>
  <fix>3d</fix>
</trkpt>
<trkpt lat="-27.2745668" lon="151.289365">
  <ele>422.81</ele>
  <time>2026-09-01T19:54:06Z</time>
  <course>112.78</course>
  <speed>0.15</speed>
  <fix>3d</fix>
</trkpt>
<trkpt lat="-27.274567" lon="151.2893659">
  <ele>422.28</ele>
  <time>2026-09-01T19:54:06Z</time>
  <course>212.23</course>
  <speed>0.18027756377319945</speed>
  <fix>3d</fix>
</trkpt>
<trkpt lat="-27.2745669" lon="151.2893653">
  <ele>422.5</ele>
  <time>2026-09-01T19:54:06Z</time>
  <course>114.25</course>
  <speed>0.15</speed>
  <fix>3d</fix>
</trkpt>
<trkpt lat="-27.2745671" lon="151.289366">
  <ele>422.13</ele>
  <time>2026-09-01T19:54:06Z</time>
  <course>209.27</course>
  <speed>0.17464249196572978</speed>
  <fix>3d</fix>
</trkpt>
<trkpt lat="-27.2745669" lon="151.2893653">
  <ele>422.5</ele>
  <time>2026-09-01T19:54:06Z</time>
  <course>114.25</course>
  <speed>0.15</speed>
  <fix>3d</fix>
</trkpt>
<trkpt lat="-27.2745672" lon="151.2893661">
  <ele>421.98</ele>
  <time>2026-09-01T19:54:06Z</time>
  <course>205.68</course>
  <speed>0.16552945357246848</speed>
  <fix>3d</fix>
</trkpt>
<trkpt lat="-27.274567" lon="151.2893656">
  <ele>422.2</ele>
  <time>2026-09-01T19:54:06Z</time>
  <course>117.1</course>
  <speed>0.15</speed>
  <fix>3d</fix>
</trkpt>
<trkpt lat="-27.2745672" lon="151.2893663">
  <ele>421.83</ele>
  <time>2026-09-01T19:54:06Z</time>
  <course>221.82</course>
  <speed>0.1664331697709324</speed>
  <fix>3d</fix>
</trkpt>
<trkpt lat="-27.274567" lon="151.2893656">
  <ele>422.2</ele>
  <time>2026-09-01T19:54:06Z</time>
  <course>117.1</course>
  <speed>0.15</speed>
  <fix>3d</fix>
</trkpt>
<trkpt lat="-27.2745673" lon="151.2893664">
  <ele>421.67</ele>
  <time>2026-09-01T19:54:06Z</time>
  <course>225.19</course>
  <speed>0.1664331697709324</speed>
  <fix>3d</fix>
</trkpt>
<trkpt lat="-27.2745672" lon="151.2893658">
  <ele>421.9</ele>
  <time>2026-09-01T19:54:06Z</time>
  <course>123.58</course>
  <speed>0.15</speed>
  <fix>3d</fix>
</trkpt>
<trkpt lat="-27.2745674" lon="151.2893665">
  <ele>421.52</ele>
  <time>2026-09-01T19:54:06Z</time>
  <course>260.15</course>
  <speed>0.1664331697709324</speed>
  <fix>3d</fix>
</trkpt>
<trkpt lat="-27.2745672" lon="151.2893658">
  <ele>421.9</ele>
  <time>2026-09-01T19:54:06Z</time>
  <course>123.58</course>
  <speed>0.15</speed>
  <fix>3d</fix>
</trkpt>
<trkpt lat="-27.2745675" lon="151.2893666">
  <ele>421.37</ele>
  <time>2026-09-01T19:54:06Z</time>
  <course>193.23</course>
  <speed>0.17492855684535902</speed>
  <fix>3d</fix>
</trkpt>
<trkpt lat="-27.2745674" lon="151.2893661">
  <ele>421.6</ele>
  <time>2026-09-01T19:54:06Z</time>
  <course>128.75</course>
  <speed>0.15</speed>
  <fix>3d</fix>
</trkpt>
<trkpt lat="-27.2745676" lon="151.2893667">
  <ele>421.22</ele>
  <time>2026-09-01T19:54:06Z</time>
  <course>195.86</course>
  <speed>0.17492855684535902</speed>
  <fix>3d</fix>
</trkpt>
<trkpt lat="-27.2745674" lon="151.2893661">
  <ele>421.6</ele>
  <time>2026-09-01T19:54:06Z</time>
  <course>128.75</course>
  <speed>0.15</speed>
  <fix>3d</fix>
</trkpt>
<trkpt lat="-27.2745676" lon="151.2893668">
  <ele>421.08</ele>
  <time>2026-09-01T19:54:06Z</time>
  <course>231.48</course>
  <speed>0.17492855684535902</speed>
  <fix>3d</fix>
</trkpt>
<trkpt lat="-27.2745675" lon="151.2893663">
  <ele>421.3</ele>
  <time>2026-09-01T19:54:06Z</time>
  <course>128.63</course>
  <speed>0.15</speed>
  <fix>3d</fix>
</trkpt>
<trkpt lat="-27.2745677" lon="151.289367">
  <ele>420.93</ele>
  <time>2026-09-01T19:54:06Z</time>
  <course>214.38</course>
  <speed>0.1664331697709324</speed>
  <fix>3d</fix>
</trkpt>
<trkpt lat="-27.2745675" lon="151.2893663">
  <ele>421.3</ele>
  <time>2026-09-01T19:54:06Z</time>
  <course>128.63</course>
  <speed>0.15</speed>
  <fix>3d</fix>
</trkpt>
<trkpt lat="-27.2745678" lon="151.2893671">
  <ele>420.78</ele>
  <time>2026-09-01T19:54:06Z</time>
  <course>219.46</course>
  <speed>0.1664331697709324</speed>
  <fix>3d</fix>
</trkpt>
<trkpt lat="-27.2745677" lon="151.2893666">
  <ele>421.0</ele>
  <time>2026-09-01T19:54:06Z</time>
  <course>128.33</course>
  <speed>0.15</speed>
  <fix>3d</fix>
</trkpt>
<trkpt lat="-27.2745679" lon="151.2893672">
  <ele>420.63</ele>
  <time>2026-09-01T19:54:06Z</time>
  <course>220.04</course>
  <speed>0.1664331697709324</speed>
  <fix>3d</fix>
</trkpt>
<trkpt lat="-27.2745677" lon="151.2893666">
  <ele>421.0</ele>
  <time>2026-09-01T19:54:06Z</time>
  <course>128.33</course>
  <speed>0.15</speed>
  <fix>3d</fix>
</trkpt>
<trkpt lat="-27.274568" lon="151.2893673">
  <ele>420.47</ele>
  <time>2026-09-01T19:54:06Z</time>
  <course>221.07</course>
  <speed>0.15811388300841897</speed>
  <fix>3d</fix>
</trkpt>
<trkpt lat="-27.2745679" lon="151.2893668">
  <ele>420.7</ele>
  <time>2026-09-01T19:54:06Z</time>
  <course>129.32</course>
  <speed>0.15</speed>
  <fix>3d</fix>
</trkpt>
<trkpt lat="-27.2745681" lon="151.2893674">
  <ele>420.32</ele>
  <time>2026-09-01T19:54:06Z</time>
  <course>221.9</course>
  <speed>0.15811388300841897</speed>
  <fix>3d</fix>
</trkpt>
<trkpt lat="-27.2745679" lon="151.2893668">
  <ele>420.7</ele>
  <time>2026-09-01T19:54:06Z</time>
  <course>129.32</course>
  <speed>0.15</speed>
  <fix>3d</fix>
</trkpt>
<trkpt lat="-27.2745681" lon="151.2893675">
  <ele>420.17</ele>
  <time>2026-09-01T19:54:06Z</time>
  <course>222.72</course>
  <speed>0.15811388300841897</speed>
  <fix>3d</fix>
</trkpt>
<trkpt lat="-27.274568" lon="151.2893671">
  <ele>420.4</ele>
  <time>2026-09-01T19:54:06Z</time>
  <course>130.85</course>
  <speed>0.14</speed>
  <fix>3d</fix>
</trkpt>
<trkpt lat="-27.2745682" lon="151.2893676">
  <ele>420.02</ele>
  <time>2026-09-01T19:54:06Z</time>
  <course>223.26</course>
  <speed>0.15</speed>
  <fix>3d</fix>
</trkpt>
<trkpt lat="-27.274568" lon="151.2893671">
  <ele>420.4</ele>
  <time>2026-09-01T19:54:06Z</time>
  <course>130.85</course>
  <speed>0.14</speed>
  <fix>3d</fix>
</trkpt>
<trkpt lat="-27.2745683" lon="151.2893677">
  <ele>419.87</ele>
  <time>2026-09-01T19:54:06Z</time>
  <course>223.82</course>
  <speed>0.15</speed>
  <fix>3d</fix>
</trkpt>
<trkpt lat="-27.2745682" lon="151.2893672">
  <ele>420.1</ele>
  <time>2026-09-01T19:54:06Z</time>
  <course>132.69</course>
  <speed>0.13</speed>
  <fix>3d</fix>
</trkpt>
<trkpt lat="-27.2745684" lon="151.2893678">
  <ele>419.73</ele>
  <time>2026-09-01T19:54:06Z</time>
  <course>224.42</course>
  <speed>0.15</speed>
  <fix>3d</fix>
</trkpt>
<trkpt lat="-27.2745682" lon="151.2893672">
  <ele>420.1</ele>
  <time>2026-09-01T19:54:06Z</time>
  <course>132.69</course>
  <speed>0.13</speed>
  <fix>3d</fix>
</trkpt>
<trkpt lat="-27.2745685" lon="151.2893679">
  <ele>419.58</ele>
  <time>2026-09-01T19:54:06Z</time>
  <course>225.04</course>
  <speed>0.14212670403551894</speed>
  <fix>3d</fix>
</trkpt>
<trkpt lat="-27.2745684" lon="151.2893675">
  <ele>419.81</ele>
  <time>2026-09-01T19:54:06Z</time>
  <course>134.83</course>
  <speed>0.13</speed>
  <fix>3d</fix>
</trkpt>
<trkpt lat="-27.2745686" lon="151.289368">
  <ele>419.43</ele>
  <time>2026-09-01T19:54:06Z</time>
  <course>225.43</course>
  <speed>0.14212670403551894</speed>
  <fix>3d</fix>
</trkpt>
<trkpt lat="-27.2745684" lon="151.2893675">
  <ele>419.81</ele>
  <time>2026-09-01T19:54:06Z</time>
  <course>134.83</course>
  <speed>0.13</speed>
  <fix>3d</fix>
</trkpt>
<trkpt lat="-27.2745687" lon="151.289368">
  <ele>419.28</ele>
  <time>2026-09-01T19:54:06Z</time>
  <course>222.73</course>
  <speed>0.14212670403551894</speed>
  <fix>3d</fix>
</trkpt>
<trkpt lat="-27.2745686" lon="151.2893676">
  <ele>419.51</ele>
  <time>2026-09-01T19:54:06Z</time>
  <course>137.33</course>
  <speed>0.13</speed>
  <fix>3d</fix>
</trkpt>
<trkpt lat="-27.2745687" lon="151.2893681">
  <ele>419.14</ele>
  <time>2026-09-01T19:54:06Z</time>
  <course>206.97</course>
  <speed>0.1345362404707371</speed>
  <fix>3d</fix>
</trkpt>
<trkpt lat="-27.2745686" lon="151.2893676">
  <ele>419.51</ele>
  <time>2026-09-01T19:54:06Z</time>
  <course>137.33</course>
  <speed>0.13</speed>
  <fix>3d</fix>
</trkpt>
<trkpt lat="-27.2745688" lon="151.2893682">
  <ele>418.99</ele>
  <time>2026-09-01T19:54:06Z</time>
  <course>215.29</course>
  <speed>0.1345362404707371</speed>
  <fix>3d</fix>
</trkpt>
<trkpt lat="-27.2745687" lon="151.2893678">
  <ele>419.21</ele>
  <time>2026-09-01T19:54:06Z</time>
  <course>140.28</course>
  <speed>0.12</speed>
  <fix>3d</fix>
</trkpt>
<trkpt lat="-27.2745689" lon="151.2893683">
  <ele>418.84</ele>
  <time>2026-09-01T19:54:06Z</time>
  <course>247.14</course>
  <speed>0.1345362404707371</speed>
  <fix>3d</fix>
</trkpt>
<trkpt lat="-27.2745687" lon="151.2893678">
  <ele>419.21</ele>
  <time>2026-09-01T19:54:06Z</time>
  <course>140.28</course>
  <speed>0.12</speed>
  <fix>3d</fix>
</trkpt>
<trkpt lat="-27.274569" lon="151.2893683">
  <ele>418.69</ele>
  <time>2026-09-01T19:54:06Z</time>
  <course>254.02</course>
  <speed>0.1345362404707371</speed>
  <fix>3d</fix>
</trkpt>
<trkpt lat="-27.2745689" lon="151.289368">
  <ele>418.91</ele>
  <time>2026-09-01T19:54:06Z</time>
  <course>142.76</course>
  <speed>0.12</speed>
  <fix>3d</fix>
</trkpt>
<trkpt lat="-27.2745691" lon="151.2893684">
  <ele>418.54</ele>
  <time>2026-09-01T19:54:06Z</time>
  <course>219.97</course>
  <speed>0.12806248474865697</speed>
  <fix>3d</fix>
</trkpt>
<trkpt lat="-27.2745689" lon="151.289368">
  <ele>418.91</ele>
  <time>2026-09-01T19:54:06Z</time>
  <course>142.76</course>
  <speed>0.12</speed>
  <fix>3d</fix>
</trkpt>
<trkpt lat="-27.2745692" lon="151.2893685">
  <ele>418.39</ele>
  <time>2026-09-01T19:54:06Z</time>
  <course>231.96</course>
  <speed>0.12806248474865697</speed>
  <fix>3d</fix>
</trkpt>
<trkpt lat="-27.2745691" lon="151.2893681">
  <ele>418.62</ele>
  <time>2026-09-01T19:54:06Z</time>
  <course>147.24</course>
  <speed>0.11</speed>
  <fix>3d</fix>
</trkpt>
<trkpt lat="-27.2745693" lon="151.2893685">
  <ele>418.24</ele>
  <time>2026-09-01T19:54:06Z</time>
  <course>232.35</course>
  <speed>0.12806248474865697</speed>
  <fix>3d</fix>
</trkpt>
<trkpt lat="-27.2745691" lon="151.2893681">
  <ele>418.62</ele>
  <time>2026-09-01T19:54:06Z</time>
  <course>147.24</course>
  <speed>0.11</speed>
  <fix>3d</fix>
</trkpt>
<trkpt lat="-27.2745694" lon="151.2893686">
  <ele>418.09</ele>
  <time>2026-09-01T19:54:06Z</time>
  <course>232.41</course>
  <speed>0.12206555615733702</speed>
  <fix>3d</fix>
</trkpt>
<trkpt lat="-27.2745692" lon="151.2893682">
  <ele>418.32</ele>
  <time>2026-09-01T19:54:06Z</time>
  <course>152.57</course>
  <speed>0.11</speed>
  <fix>3d</fix>
</trkpt>
<trkpt lat="-27.2745695" lon="151.2893686">
  <ele>417.94</ele>
  <time>2026-09-01T19:54:06Z</time>
  <course>233.07</course>
  <speed>0.12206555615733702</speed>
  <fix>3d</fix>
</trkpt>
<trkpt lat="-27.2745692" lon="151.2893682">
  <ele>418.32</ele>
  <time>2026-09-01T19:54:06Z</time>
  <course>152.57</course>
  <speed>0.11</speed>
  <fix>3d</fix>
</trkpt>
<trkpt lat="-27.2745696" lon="151.2893687">
  <ele>417.79</ele>
  <time>2026-09-01T19:54:06Z</time>
  <course>233.53</course>
  <speed>0.12206555615733702</speed>
  <fix>3d</fix>
</trkpt>
<trkpt lat="-27.2745695" lon="151.2893683">
  <ele>418.02</ele>
  <time>2026-09-01T19:54:06Z</time>
  <course>155.63</course>
  <speed>0.11</speed>
  <fix>3d</fix>
</trkpt>
<trkpt lat="-27.2745697" lon="151.2893687">
  <ele>417.64</ele>
  <time>2026-09-01T19:54:06Z</time>
  <course>234.26</course>
  <speed>0.12206555615733702</speed>
  <fix>3d</fix>
</trkpt>
<trkpt lat="-27.2745695" lon="151.2893683">
  <ele>418.02</ele>
  <time>2026-09-01T19:54:06Z</time>
  <course>155.63</course>
  <speed>0.11</speed>
  <fix>3d</fix>
</trkpt>
<trkpt lat="-27.2745698" lon="151.2893687">
  <ele>417.49</ele>
  <time>2026-09-01T19:54:06Z</time>
  <course>235.09</course>
  <speed>0.11661903789690602</speed>
  <fix>3d</fix>
</trkpt>
<trkpt lat="-27.2745697" lon="151.2893684">
  <ele>417.72</ele>
  <time>2026-09-01T19:54:06Z</time>
  <course>158.25</course>
  <speed>0.11</speed>
  <fix>3d</fix>
</trkpt>
<trkpt lat="-27.2745699" lon="151.2893688">
  <ele>417.34</ele>
  <time>2026-09-01T19:54:06Z</time>
  <course>235.88</course>
  <speed>0.11661903789690602</speed>
  <fix>3d</fix>
</trkpt>
<trkpt lat="-27.2745697" lon="151.2893684">
  <ele>417.72</ele>
  <time>2026-09-01T19:54:06Z</time>
  <course>158.25</course>
  <speed>0.11</speed>
  <fix>3d</fix>
</trkpt>
<trkpt lat="-27.27457" lon="151.2893688">
  <ele>417.19</ele>
  <time>2026-09-01T19:54:06Z</time>
  <course>236.86</course>
  <speed>0.11661903789690602</speed>
  <fix>3d</fix>
</trkpt>
<trkpt lat="-27.2745698" lon="151.2893685">
  <ele>417.43</ele>
  <time>2026-09-01T19:54:06Z</time>
  <course>160.58</course>
  <speed>0.11</speed>
  <fix>3d</fix>
</trkpt>
<trkpt lat="-27.2745701" lon="151.2893688">
  <ele>417.04</ele>
  <time>2026-09-01T19:54:06Z</time>
  <course>237.65</course>
  <speed>0.11661903789690602</speed>
  <fix>3d</fix>
</trkpt>
<trkpt lat="-27.2745698" lon="151.2893685">
  <ele>417.43</ele>
  <time>2026-09-01T19:54:06Z</time>
  <course>160.58</course>
  <speed>0.11</speed>
  <fix>3d</fix>
</trkpt>
<trkpt lat="-27.2745701" lon="151.2893689">
  <ele>416.9</ele>
  <time>2026-09-01T19:54:06Z</time>
  <course>237.99</course>
  <speed>0.1118033988749895</speed>
  <fix>3d</fix>
</trkpt>
<trkpt lat="-27.27457" lon="151.2893686">
  <ele>417.13</ele>
  <time>2026-09-01T19:54:06Z</time>
  <course>162.71</course>
  <speed>0.1</speed>
  <fix>3d</fix>
</trkpt>
<trkpt lat="-27.2745702" lon="151.2893689">
  <ele>416.75</ele>
  <time>2026-09-01T19:54:06Z</time>
  <course>239.29</course>
  <speed>0.1118033988749895</speed>
  <fix>3d</fix>
</trkpt>
<trkpt lat="-27.27457" lon="151.2893686">
  <ele>417.13</ele>
  <time>2026-09-01T19:54:06Z</time>
  <course>162.71</course>
  <speed>0.1</speed>
  <fix>3d</fix>
</trkpt>
<trkpt lat="-27.2745703" lon="151.2893689">
  <ele>416.6</ele>
  <time>2026-09-01T19:54:06Z</time>
  <course>253.27</course>
  <speed>0.1118033988749895</speed>
  <fix>3d</fix>
</trkpt>
<trkpt lat="-27.2745702" lon="151.2893686">
  <ele>416.83</ele>
  <time>2026-09-01T19:54:06Z</time>
  <course>164.6</course>
  <speed>0.1</speed>
  <fix>3d</fix>
</trkpt>
<trkpt lat="-27.2745704" lon="151.2893689">
  <ele>416.45</ele>
  <time>2026-09-01T19:54:06Z</time>
  <course>203.83</course>
  <speed>0.10295630140987001</speed>
  <fix>3d</fix>
</trkpt>
<trkpt lat="-27.2745702" lon="151.2893686">
  <ele>416.83</ele>
  <time>2026-09-01T19:54:06Z</time>
  <course>164.6</course>
  <speed>0.1</speed>
  <fix>3d</fix>
</trkpt>
<trkpt lat="-27.2745705" lon="151.289369">
  <ele>416.3</ele>
  <time>2026-09-01T19:54:06Z</time>
  <course>245.22</course>
  <speed>0.10295630140987001</speed>
  <fix>3d</fix>
</trkpt>
<trkpt lat="-27.2745704" lon="151.2893687">
  <ele>416.53</ele>
  <time>2026-09-01T19:54:06Z</time>
  <course>166.38</course>
  <speed>0.1</speed>
  <fix>3d</fix>
</trkpt>
<trkpt lat="-27.2745706" lon="151.289369">
  <ele>416.14</ele>
  <time>2026-09-01T19:54:06Z</time>
  <course>263.14</course>
  <speed>0.09848857801796104</speed>
  <fix>3d</fix>
</trkpt>
<trkpt lat="-27.2745704" lon="151.2893687">
  <ele>416.53</ele>
  <time>2026-09-01T19:54:06Z</time>
  <course>166.38</course>
  <speed>0.1</speed>
  <fix>3d</fix>
</trkpt>
<trkpt lat="-27.2745707" lon="151.289369">
  <ele>415.99</ele>
  <time>2026-09-01T19:54:06Z</time>
  <course>236.85</course>
  <speed>0.08944271909999159</speed>
  <fix>3d</fix>
</trkpt>
<trkpt lat="-27.2745705" lon="151.2893688">
  <ele>416.22</ele>
  <time>2026-09-01T19:54:06Z</time>
  <course>168.03</course>
  <speed>0.09</speed>
  <fix>3d</fix>
</trkpt>
<trkpt lat="-27.2745707" lon="151.289369">
  <ele>415.84</ele>
  <time>2026-09-01T19:54:06Z</time>
  <course>248.37</course>
  <speed>0.08944271909999159</speed>
  <fix>3d</fix>
</trkpt>
<trkpt lat="-27.2745705" lon="151.2893688">
  <ele>416.22</ele>
  <time>2026-09-01T19:54:06Z</time>
  <course>168.03</course>
  <speed>0.09</speed>
  <fix>3d</fix>
</trkpt>
<trkpt lat="-27.2745708" lon="151.289369">
  <ele>415.69</ele>
  <time>2026-09-01T19:54:06Z</time>
  <course>245.79</course>
  <speed>0.08944271909999159</speed>
  <fix>3d</fix>
</trkpt>
<trkpt lat="-27.2745707" lon="151.2893688">
  <ele>415.93</ele>
  <time>2026-09-01T19:54:06Z</time>
  <course>169.55</course>
  <speed>0.08</speed>
  <fix>3d</fix>
</trkpt>
<trkpt lat="-27.2745709" lon="151.2893691">
  <ele>415.54</ele>
  <time>2026-09-01T19:54:06Z</time>
  <course>244.37</course>
  <speed>0.08062257748298549</speed>
  <fix>3d</fix>
</trkpt>
<trkpt lat="-27.2745707" lon="151.2893688">
  <ele>415.93</ele>
  <time>2026-09-01T19:54:06Z</time>
  <course>169.55</course>
  <speed>0.08</speed>
  <fix>3d</fix>
</trkpt>
<trkpt lat="-27.2745709" lon="151.2893691">
  <ele>415.39</ele>
  <time>2026-09-01T19:54:06Z</time>
  <course>243.03</course>
  <speed>0.08062257748298549</speed>
  <fix>3d</fix>
</trkpt>
<trkpt lat="-27.2745709" lon="151.2893688">
  <ele>415.63</ele>
  <time>2026-09-01T19:54:06Z</time>
  <course>170.61</course>
  <speed>0.07</speed>
  <fix>3d</fix>
</trkpt>
<trkpt lat="-27.274571" lon="151.2893691">
  <ele>415.24</ele>
  <time>2026-09-01T19:54:06Z</time>
  <course>254.75</course>
  <speed>0.07211102550927978</speed>
  <fix>3d</fix>
</trkpt>
<trkpt lat="-27.2745709" lon="151.2893688">
  <ele>415.63</ele>
  <time>2026-09-01T19:54:06Z</time>
  <course>170.61</course>
  <speed>0.07</speed>
  <fix>3d</fix>
</trkpt>
<trkpt lat="-27.2745711" lon="151.2893691">
  <ele>415.09</ele>
  <time>2026-09-01T19:54:06Z</time>
  <course>272.34</course>
  <speed>0.07211102550927978</speed>
  <fix>3d</fix>
</trkpt>
<trkpt lat="-27.274571" lon="151.2893688">
  <ele>415.33</ele>
  <time>2026-09-01T19:54:06Z</time>
  <course>170.51</course>
  <speed>0.07</speed>
  <fix>3d</fix>
</trkpt>
<trkpt lat="-27.2745711" lon="151.2893691">
  <ele>414.94</ele>
  <time>2026-09-01T19:54:06Z</time>
  <course>244.59</course>
  <speed>0.07615773105863909</speed>
  <fix>3d</fix>
</trkpt>
<trkpt lat="-27.274571" lon="151.2893688">
  <ele>415.33</ele>
  <time>2026-09-01T19:54:06Z</time>
  <course>170.51</course>
  <speed>0.07</speed>
  <fix>3d</fix>
</trkpt>
<trkpt lat="-27.2745712" lon="151.2893691">
  <ele>414.79</ele>
  <time>2026-09-01T19:54:06Z</time>
  <course>243.37</course>
  <speed>0.07211102550927978</speed>
  <fix>3d</fix>
</trkpt>
<trkpt lat="-27.2745711" lon="151.2893689">
  <ele>415.03</ele>
  <time>2026-09-01T19:54:06Z</time>
  <course>172.12</course>
  <speed>0.06</speed>
  <fix>3d</fix>
</trkpt>
<trkpt lat="-27.2745713" lon="151.2893691">
  <ele>414.64</ele>
  <time>2026-09-01T19:54:06Z</time>
  <course>258.17</course>
  <speed>0.07615773105863909</speed>
  <fix>3d</fix>
</trkpt>
<trkpt lat="-27.2745711" lon="151.2893689">
  <ele>415.03</ele>
  <time>2026-09-01T19:54:06Z</time>
  <course>172.12</course>
  <speed>0.06</speed>
  <fix>3d</fix>
</trkpt>
<trkpt lat="-27.2745713" lon="151.2893691">
  <ele>414.49</ele>
  <time>2026-09-01T19:54:06Z</time>
  <course>248.13</course>
  <speed>0.07615773105863909</speed>
  <fix>3d</fix>
</trkpt>
<trkpt lat="-27.2745712" lon="151.2893689">
  <ele>414.72</ele>
  <time>2026-09-01T19:54:06Z</time>
  <course>175.03</course>
  <speed>0.06</speed>
  <fix>3d</fix>
</trkpt>
<trkpt lat="-27.2745714" lon="151.2893691">
  <ele>414.34</ele>
  <time>2026-09-01T19:54:06Z</time>
  <course>242.73</course>
  <speed>0.07615773105863909</speed>
  <fix>3d</fix>
</trkpt>
<trkpt lat="-27.2745712" lon="151.2893689">
  <ele>414.72</ele>
  <time>2026-09-01T19:54:06Z</time>
  <course>175.03</course>
  <speed>0.06</speed>
  <fix>3d</fix>
</trkpt>
<trkpt lat="-27.2745714" lon="151.2893691">
  <ele>414.19</ele>
  <time>2026-09-01T19:54:06Z</time>
  <course>220.27</course>
  <speed>0.0670820393249937</speed>
  <fix>3d</fix>
</trkpt>
<trkpt lat="-27.2745713" lon="151.2893689">
  <ele>414.43</ele>
  <time>2026-09-01T19:54:06Z</time>
  <course>177.08</course>
  <speed>0.06</speed>
  <fix>3d</fix>
</trkpt>
<trkpt lat="-27.2745715" lon="151.2893691">
  <ele>414.04</ele>
  <time>2026-09-01T19:54:06Z</time>
  <course>269.33</course>
  <speed>0.0632455532033676</speed>
  <fix>3d</fix>
</trkpt>
<trkpt lat="-27.2745713" lon="151.2893689">
  <ele>414.43</ele>
  <time>2026-09-01T19:54:06Z</time>
  <course>177.08</course>
  <speed>0.06</speed>
  <fix>3d</fix>
</trkpt>
<trkpt lat="-27.2745715" lon="151.2893691">
  <ele>413.89</ele>
  <time>2026-09-01T19:54:06Z</time>
  <course>266.02</course>
  <speed>0.05099019513592785</speed>
  <fix>3d</fix>
</trkpt>
<trkpt lat="-27.2745715" lon="151.2893689">
  <ele>414.13</ele>
  <time>2026-09-01T19:54:06Z</time>
  <course>184.51</course>
  <speed>0.06</speed>
  <fix>3d</fix>
</trkpt>
<trkpt lat="-27.2745716" lon="151.2893691">
  <ele>413.74</ele>
  <time>2026-09-01T19:54:06Z</time>
  <course>238.39</course>
  <speed>0.03</speed>
  <fix>3d</fix>
</trkpt>
<trkpt lat="-27.2745715" lon="151.2893689">
  <ele>414.13</ele>
  <time>2026-09-01T19:54:06Z</time>
  <course>184.51</course>
  <speed>0.06</speed>
  <fix>3d</fix>
</trkpt>
<trkpt lat="-27.2745716" lon="151.2893691">
  <ele>413.59</ele>
  <time>2026-09-01T19:54:06Z</time>
  <course>255.06</course>
  <speed>0.022360679774997897</speed>
  <fix>3d</fix>
</trkpt>
<trkpt lat="-27.2745716" lon="151.2893689">
  <ele>413.83</ele>
  <time>2026-09-01T19:54:06Z</time>
  <course>209.21</course>
  <speed>0.05</speed>
  <fix>3d</fix>
</trkpt>
<trkpt lat="-27.2745716" lon="151.2893691">
  <ele>413.44</ele>
  <time>2026-09-01T19:54:06Z</time>
  <course>252.95</course>
  <speed>0.0316227766016838</speed>
  <fix>3d</fix>
</trkpt>
<trkpt lat="-27.2745716" lon="151.2893689">
  <ele>413.83</ele>
  <time>2026-09-01T19:54:06Z</time>
  <course>209.21</course>
  <speed>0.05</speed>
  <fix>3d</fix>
</trkpt>
<trkpt lat="-27.2745716" lon="151.289369">
  <ele>413.29</ele>
  <time>2026-09-01T19:54:06Z</time>
  <course>253.03</course>
  <speed>0.03</speed>
  <fix>3d</fix>
</trkpt>
<trkpt lat="-27.2745716" lon="151.2893688">
  <ele>413.54</ele>
  <time>2026-09-01T19:54:06Z</time>
  <course>249.29</course>
  <speed>0.05</speed>
  <fix>3d</fix>
</trkpt>
<trkpt lat="-27.2745716" lon="151.289369">
  <ele>413.14</ele>
  <time>2026-09-01T19:54:06Z</time>
  <course>252.68</course>
  <speed>0.0412310562561766</speed>
  <fix>3d</fix>
</trkpt>
<trkpt lat="-27.2745716" lon="151.2893688">
  <ele>413.54</ele>
  <time>2026-09-01T19:54:06Z</time>
  <course>249.29</course>
  <speed>0.05</speed>
  <fix>3d</fix>
</trkpt>
<trkpt lat="-27.2745716" lon="151.2893689">
  <ele>413.0</ele>
  <time>2026-09-01T19:54:06Z</time>
  <course>252.29</course>
  <speed>0.0412310562561766</speed>
  <fix>3d</fix>
</trkpt>
<trkpt lat="-27.2745717" lon="151.2893687">
  <ele>413.24</ele>
  <time>2026-09-01T19:54:06Z</time>
  <course>274.08</course>
  <speed>0.07</speed>
  <fix>3d</fix>
</trkpt>
<trkpt lat="-27.2745716" lon="151.2893688">
  <ele>412.85</ele>
  <time>2026-09-01T19:54:06Z</time>
  <course>251.68</course>
  <speed>0.044721359549995794</speed>
  <fix>3d</fix>
</trkpt>
<trkpt lat="-27.2745717" lon="151.2893687">
  <ele>413.24</ele>
  <time>2026-09-01T19:54:06Z</time>
  <course>274.08</course>
  <speed>0.07</speed>
  <fix>3d</fix>
</trkpt>
<trkpt lat="-27.2745716" lon="151.2893687">
  <ele>412.7</ele>
  <time>2026-09-01T19:54:06Z</time>
  <course>250.15</course>
  <speed>0.05</speed>
  <fix>3d</fix>
</trkpt>
<trkpt lat="-27.2745717" lon="151.2893686">
  <ele>412.95</ele>
  <time>2026-09-01T19:54:06Z</time>
  <course>286.49</course>
  <speed>0.08</speed>
  <fix>3d</fix>
</trkpt>
<trkpt lat="-27.2745716" lon="151.2893687">
  <ele>412.55</ele>
  <time>2026-09-01T19:54:06Z</time>
  <course>247.17</course>
  <speed>0.05</speed>
  <fix>3d</fix>
</trkpt>
<trkpt lat="-27.2745717" lon="151.2893686">
  <ele>412.95</ele>
  <time>2026-09-01T19:54:06Z</time>
  <course>286.49</course>
  <speed>0.08</speed>
  <fix>3d</fix>
</trkpt>
<trkpt lat="-27.2745716" lon="151.2893686">
  <ele>412.4</ele>
  <time>2026-09-01T19:54:06Z</time>
  <course>243.03</course>
  <speed>0.0565685424949238</speed>
  <fix>3d</fix>
</trkpt>
<trkpt lat="-27.2745717" lon="151.2893684">
  <ele>412.65</ele>
  <time>2026-09-01T19:54:06Z</time>
  <course>294.55</course>
  <speed>0.09</speed>
  <fix>3d</fix>
</trkpt>
<trkpt lat="-27.2745716" lon="151.2893685">
  <ele>412.26</ele>
  <time>2026-09-01T19:54:06Z</time>
  <course>239.48</course>
  <speed>0.0565685424949238</speed>
  <fix>3d</fix>
</trkpt>
<trkpt lat="-27.2745717" lon="151.2893684">
  <ele>412.65</ele>
  <time>2026-09-01T19:54:06Z</time>
  <course>294.55</course>
  <speed>0.09</speed>
  <fix>3d</fix>
</trkpt>
<trkpt lat="-27.2745715" lon="151.2893684">
  <ele>412.11</ele>
  <time>2026-09-01T19:54:06Z</time>
  <course>252.62</course>
  <speed>0.06403124237432849</speed>
  <fix>3d</fix>
</trkpt>
<trkpt lat="-27.2745716" lon="151.2893682">
  <ele>412.35</ele>
  <time>2026-09-01T19:54:06Z</time>
  <course>301.32</course>
  <speed>0.09</speed>
  <fix>3d</fix>
</trkpt>
<trkpt lat="-27.2745715" lon="151.2893684">
  <ele>411.96</ele>
  <time>2026-09-01T19:54:06Z</time>
  <course>261.54</course>
  <speed>0.06403124237432849</speed>
  <fix>3d</fix>
</trkpt>
<trkpt lat="-27.2745716" lon="151.2893682">
  <ele>412.35</ele>
  <time>2026-09-01T19:54:06Z</time>
  <course>301.32</course>
  <speed>0.09</speed>
  <fix>3d</fix>
</trkpt>
<trkpt lat="-27.2745714" lon="151.2893683">
  <ele>411.81</ele>
  <time>2026-09-01T19:54:06Z</time>
  <course>241.62</course>
  <speed>0.0565685424949238</speed>
  <fix>3d</fix>
</trkpt>
<trkpt lat="-27.2745715" lon="151.2893681">
  <ele>412.05</ele>
  <time>2026-09-01T19:54:06Z</time>
  <course>305.17</course>
  <speed>0.09</speed>
  <fix>3d</fix>
</trkpt>
<trkpt lat="-27.2745714" lon="151.2893682">
  <ele>411.66</ele>
  <time>2026-09-01T19:54:06Z</time>
  <course>215.22</course>
  <speed>0.05</speed>
  <fix>3d</fix>
</trkpt>
<trkpt lat="-27.2745715" lon="151.2893681">
  <ele>412.05</ele>
  <time>2026-09-01T19:54:06Z</time>
  <course>305.17</course>
  <speed>0.09</speed>
  <fix>3d</fix>
</trkpt>
<trkpt lat="-27.2745713" lon="151.2893681">
  <ele>411.51</ele>
  <time>2026-09-01T19:54:06Z</time>
  <course>230.36</course>
  <speed>0.05</speed>
  <fix>3d</fix>
</trkpt>
<trkpt lat="-27.2745714" lon="151.2893679">
  <ele>411.75</ele>
  <time>2026-09-01T19:54:06Z</time>
  <course>306.36</course>
  <speed>0.09</speed>
  <fix>3d</fix>
</trkpt>
<trkpt lat="-27.2745713" lon="151.2893681">
  <ele>411.37</ele>
  <time>2026-09-01T19:54:06Z</time>
  <course>263.01</course>
  <speed>0.05</speed>
  <fix>3d</fix>
</trkpt>
<trkpt lat="-27.2745714" lon="151.2893679">
  <ele>411.75</ele>
  <time>2026-09-01T19:54:06Z</time>
  <course>306.36</course>
  <speed>0.09</speed>
  <fix>3d</fix>
</trkpt>
<trkpt lat="-27.2745713" lon="151.289368">
  <ele>411.22</ele>
  <time>2026-09-01T19:54:06Z</time>
  <course>237.24</course>
  <speed>0.05</speed>
  <fix>3d</fix>
</trkpt>
<trkpt lat="-27.2745713" lon="151.2893677">
  <ele>411.45</ele>
  <time>2026-09-01T19:54:06Z</time>
  <course>306.86</course>
  <speed>0.09</speed>
  <fix>3d</fix>
</trkpt>
<trkpt lat="-27.2745712" lon="151.2893679">
  <ele>411.07</ele>
  <time>2026-09-01T19:54:06Z</time>
  <course>241.83</course>
  <speed>0.05830951894845301</speed>
  <fix>3d</fix>
</trkpt>
<trkpt lat="-27.2745713" lon="151.2893677">
  <ele>411.45</ele>
  <time>2026-09-01T19:54:06Z</time>
  <course>306.86</course>
  <speed>0.09</speed>
  <fix>3d</fix>
</trkpt>
<trkpt lat="-27.2745712" lon="151.2893678">
  <ele>410.92</ele>
  <time>2026-09-01T19:54:06Z</time>
  <course>241.27</course>
  <speed>0.05830951894845301</speed>
  <fix>3d</fix>
</trkpt>
<trkpt lat="-27.2745712" lon="151.2893676">
  <ele>411.14</ele>
  <time>2026-09-01T19:54:06Z</time>
  <course>307.65</course>
  <speed>0.09</speed>
  <fix>3d</fix>
</trkpt>
<trkpt lat="-27.2745711" lon="151.2893678">
  <ele>410.77</ele>
  <time>2026-09-01T19:54:06Z</time>
  <course>241.06</course>
  <speed>0.05830951894845301</speed>
  <fix>3d</fix>
</trkpt>
<trkpt lat="-27.2745712" lon="151.2893676">
  <ele>411.14</ele>
  <time>2026-09-01T19:54:06Z</time>
  <course>307.65</course>
  <speed>0.09</speed>
  <fix>3d</fix>
</trkpt>
<trkpt lat="-27.2745711" lon="151.2893677">
  <ele>410.61</ele>
  <time>2026-09-01T19:54:06Z</time>
  <course>240.63</course>
  <speed>0.053851648071345036</speed>
  <fix>3d</fix>
</trkpt>
<trkpt lat="-27.2745711" lon="151.2893675">
  <ele>410.84</ele>
  <time>2026-09-01T19:54:06Z</time>
  <course>310.56</course>
  <speed>0.09</speed>
  <fix>3d</fix>
</trkpt>
<trkpt lat="-27.274571" lon="151.2893677">
  <ele>410.47</ele>
  <time>2026-09-01T19:54:06Z</time>
  <course>240.04</course>
  <speed>0.0632455532033676</speed>
  <fix>3d</fix>
</trkpt>
<trkpt lat="-27.2745711" lon="151.2893675">
  <ele>410.84</ele>
  <time>2026-09-01T19:54:06Z</time>
  <course>310.56</course>
  <speed>0.09</speed>
  <fix>3d</fix>
</trkpt>
<trkpt lat="-27.2745709" lon="151.2893676">
  <ele>410.31</ele>
  <time>2026-09-01T19:54:06Z</time>
  <course>239.28</course>
  <speed>0.0632455532033676</speed>
  <fix>3d</fix>
</trkpt>
<trkpt lat="-27.2745709" lon="151.2893673">
  <ele>410.54</ele>
  <time>2026-09-01T19:54:06Z</time>
  <course>315.04</course>
  <speed>0.09</speed>
  <fix>3d</fix>
</trkpt>
<trkpt lat="-27.2745709" lon="151.2893675">
  <ele>410.16</ele>
  <time>2026-09-01T19:54:06Z</time>
  <course>238.4</course>
  <speed>0.06082762530298219</speed>
  <fix>3d</fix>
</trkpt>
<trkpt lat="-27.2745709" lon="151.2893673">
  <ele>410.54</ele>
  <time>2026-09-01T19:54:06Z</time>
  <course>315.04</course>
  <speed>0.09</speed>
  <fix>3d</fix>
</trkpt>
<trkpt lat="-27.2745708" lon="151.2893675">
  <ele>410.01</ele>
  <time>2026-09-01T19:54:06Z</time>
  <course>237.76</course>
  <speed>0.06082762530298219</speed>
  <fix>3d</fix>
</trkpt>
<trkpt lat="-27.2745708" lon="151.2893672">
  <ele>410.23</ele>
  <time>2026-09-01T19:54:06Z</time>
  <course>320.5</course>
  <speed>0.09</speed>
  <fix>3d</fix>
</trkpt>
<trkpt lat="-27.2745707" lon="151.2893675">
  <ele>409.85</ele>
  <time>2026-09-01T19:54:06Z</time>
  <course>236.93</course>
  <speed>0.07</speed>
  <fix>3d</fix>
</trkpt>
<trkpt lat="-27.2745708" lon="151.2893672">
  <ele>410.23</ele>
  <time>2026-09-01T19:54:06Z</time>
  <course>320.5</course>
  <speed>0.09</speed>
  <fix>3d</fix>
</trkpt>
<trkpt lat="-27.2745707" lon="151.2893674">
  <ele>409.7</ele>
  <time>2026-09-01T19:54:06Z</time>
  <course>236.26</course>
  <speed>0.07</speed>
  <fix>3d</fix>
</trkpt>
<trkpt lat="-27.2745707" lon="151.2893671">
  <ele>409.93</ele>
  <time>2026-09-01T19:54:06Z</time>
  <course>326.32</course>
  <speed>0.08</speed>
  <fix>3d</fix>
</trkpt>
<trkpt lat="-27.2745706" lon="151.2893674">
  <ele>409.55</ele>
  <time>2026-09-01T19:54:06Z</time>
  <course>235.89</course>
  <speed>0.07</speed>
  <fix>3d</fix>
</trkpt>
<trkpt lat="-27.2745707" lon="151.2893671">
  <ele>409.93</ele>
  <time>2026-09-01T19:54:06Z</time>
  <course>326.32</course>
  <speed>0.08</speed>
  <fix>3d</fix>
</trkpt>
<trkpt lat="-27.2745705" lon="151.2893673">
  <ele>409.4</ele>
  <time>2026-09-01T19:54:06Z</time>
  <course>232.86</course>
  <speed>0.07</speed>
  <fix>3d</fix>
</trkpt>
<trkpt lat="-27.2745705" lon="151.289367">
  <ele>409.62</ele>
  <time>2026-09-01T19:54:06Z</time>
  <course>331.85</course>
  <speed>0.08</speed>
  <fix>3d</fix>
</trkpt>
<trkpt lat="-27.2745705" lon="151.2893673">
  <ele>409.25</ele>
  <time>2026-09-01T19:54:06Z</time>
  <course>244.02</course>
  <speed>0.07</speed>
  <fix>3d</fix>
</trkpt>
<trkpt lat="-27.2745705" lon="151.289367">
  <ele>409.62</ele>
  <time>2026-09-01T19:54:06Z</time>
  <course>331.85</course>
  <speed>0.08</speed>
  <fix>3d</fix>
</trkpt>
<trkpt lat="-27.2745704" lon="151.2893673">
  <ele>409.1</ele>
  <time>2026-09-01T19:54:06Z</time>
  <course>262.85</course>
  <speed>0.07</speed>
  <fix>3d</fix>
</trkpt>
<trkpt lat="-27.2745704" lon="151.2893669">
  <ele>409.32</ele>
  <time>2026-09-01T19:54:06Z</time>
  <course>336.83</course>
  <speed>0.08</speed>
  <fix>3d</fix>
</trkpt>
<trkpt lat="-27.2745703" lon="151.2893672">
  <ele>408.95</ele>
  <time>2026-09-01T19:54:06Z</time>
  <course>211.22</course>
  <speed>0.06</speed>
  <fix>3d</fix>
</trkpt>
<trkpt lat="-27.2745704" lon="151.2893669">
  <ele>409.32</ele>
  <time>2026-09-01T19:54:06Z</time>
  <course>336.83</course>
  <speed>0.08</speed>
  <fix>3d</fix>
</trkpt>
<trkpt lat="-27.2745702" lon="151.2893672">
  <ele>408.8</ele>
  <time>2026-09-01T19:54:06Z</time>
  <course>222.75</course>
  <speed>0.05</speed>
  <fix>3d</fix>
</trkpt>
<trkpt lat="-27.2745703" lon="151.2893669">
  <ele>409.02</ele>
  <time>2026-09-01T19:54:06Z</time>
  <course>336.94</course>
  <speed>0.08</speed>
  <fix>3d</fix>
</trkpt>
<trkpt lat="-27.2745702" lon="151.2893672">
  <ele>408.65</ele>
  <time>2026-09-01T19:54:06Z</time>
  <course>230.76</course>
  <speed>0.06</speed>
  <fix>3d</fix>
</trkpt>
<trkpt lat="-27.2745703" lon="151.2893669">
  <ele>409.02</ele>
  <time>2026-09-01T19:54:06Z</time>
  <course>336.94</course>
  <speed>0.08</speed>
  <fix>3d</fix>
</trkpt>
<trkpt lat="-27.2745701" lon="151.2893671">
  <ele>408.5</ele>
  <time>2026-09-01T19:54:06Z</time>
  <course>234.86</course>
  <speed>0.06</speed>
  <fix>3d</fix>
</trkpt>
<trkpt lat="-27.2745701" lon="151.2893668">
  <ele>408.72</ele>
  <time>2026-09-01T19:54:06Z</time>
  <course>332.27</course>
  <speed>0.08</speed>
  <fix>3d</fix>
</trkpt>
<trkpt lat="-27.2745701" lon="151.2893671">
  <ele>408.35</ele>
  <time>2026-09-01T19:54:06Z</time>
  <course>229.94</course>
  <speed>0.05</speed>
  <fix>3d</fix>
</trkpt>
<trkpt lat="-27.2745701" lon="151.2893668">
  <ele>408.72</ele>
  <time>2026-09-01T19:54:06Z</time>
  <course>332.27</course>
  <speed>0.08</speed>
  <fix>3d</fix>
</trkpt>
<trkpt lat="-27.27457" lon="151.2893671">
  <ele>408.2</ele>
  <time>2026-09-01T19:54:06Z</time>
  <course>228.66</course>
  <speed>0.05</speed>
  <fix>3d</fix>
</trkpt>
<trkpt lat="-27.27457" lon="151.2893667">
  <ele>408.41</ele>
  <time>2026-09-01T19:54:06Z</time>
  <course>328.86</course>
  <speed>0.07</speed>
  <fix>3d</fix>
</trkpt>
<trkpt lat="-27.27457" lon="151.289367">
  <ele>408.05</ele>
  <time>2026-09-01T19:54:06Z</time>
  <course>227.37</course>
  <speed>0.05</speed>
  <fix>3d</fix>
</trkpt>
<trkpt lat="-27.27457" lon="151.2893667">
  <ele>408.41</ele>
  <time>2026-09-01T19:54:06Z</time>
  <course>328.86</course>
  <speed>0.07</speed>
  <fix>3d</fix>
</trkpt>
<trkpt lat="-27.2745699" lon="151.289367">
  <ele>407.9</ele>
  <time>2026-09-01T19:54:06Z</time>
  <course>226.15</course>
  <speed>0.04</speed>
  <fix>3d</fix>
</trkpt>
<trkpt lat="-27.2745699" lon="151.2893666">
  <ele>408.11</ele>
  <time>2026-09-01T19:54:06Z</time>
  <course>327.77</course>
  <speed>0.07</speed>
  <fix>3d</fix>
</trkpt>
<trkpt lat="-27.2745699" lon="151.2893669">
  <ele>407.76</ele>
  <time>2026-09-01T19:54:06Z</time>
  <course>225.09</course>
  <speed>0.04</speed>
  <fix>3d</fix>
</trkpt>
<trkpt lat="-27.2745699" lon="151.2893666">
  <ele>408.11</ele>
  <time>2026-09-01T19:54:06Z</time>
  <course>327.77</course>
  <speed>0.07</speed>
  <fix>3d</fix>
</trkpt>
<trkpt lat="-27.2745698" lon="151.2893669">
  <ele>407.61</ele>
  <time>2026-09-01T19:54:06Z</time>
  <course>224.25</course>
  <speed>0.04</speed>
  <fix>3d</fix>
</trkpt>
<trkpt lat="-27.2745698" lon="151.2893666">
  <ele>407.81</ele>
  <time>2026-09-01T19:54:06Z</time>
  <course>327.46</course>
  <speed>0.06</speed>
  <fix>3d</fix>
</trkpt>
<trkpt lat="-27.2745698" lon="151.2893669">
  <ele>407.46</ele>
  <time>2026-09-01T19:54:06Z</time>
  <course>223.6</course>
  <speed>0.04</speed>
  <fix>3d</fix>
</trkpt>
<trkpt lat="-27.2745698" lon="151.2893666">
  <ele>407.81</ele>
  <time>2026-09-01T19:54:06Z</time>
  <course>327.46</course>
  <speed>0.06</speed>
  <fix>3d</fix>
</trkpt>
<trkpt lat="-27.2745697" lon="151.2893669">
  <ele>407.31</ele>
  <time>2026-09-01T19:54:06Z</time>
  <course>223.12</course>
  <speed>0.04</speed>
  <fix>3d</fix>
</trkpt>
<trkpt lat="-27.2745697" lon="151.2893665">
  <ele>407.51</ele>
  <time>2026-09-01T19:54:06Z</time>
  <course>327.16</course>
  <speed>0.05</speed>
  <fix>3d</fix>
</trkpt>
<trkpt lat="-27.2745697" lon="151.2893668">
  <ele>407.15</ele>
  <time>2026-09-01T19:54:06Z</time>
  <course>221.31</course>
  <speed>0.04</speed>
  <fix>3d</fix>
</trkpt>
<trkpt lat="-27.2745697" lon="151.2893665">
  <ele>407.51</ele>
  <time>2026-09-01T19:54:06Z</time>
  <course>327.16</course>
  <speed>0.05</speed>
  <fix>3d</fix>
</trkpt>
<trkpt lat="-27.2745696" lon="151.2893668">
  <ele>407.0</ele>
  <time>2026-09-01T19:54:06Z</time>
  <course>206.33</course>
  <speed>0.0412310562561766</speed>
  <fix>3d</fix>
</trkpt>
<trkpt lat="-27.2745696" lon="151.2893664">
  <ele>407.21</ele>
  <time>2026-09-01T19:54:06Z</time>
  <course>327.81</course>
  <speed>0.05</speed>
  <fix>3d</fix>
</trkpt>
<trkpt lat="-27.2745696" lon="151.2893668">
  <ele>406.85</ele>
  <time>2026-09-01T19:54:06Z</time>
  <course>218.86</course>
  <speed>0.0412310562561766</speed>
  <fix>3d</fix>
</trkpt>
<trkpt lat="-27.2745696" lon="151.2893664">
  <ele>407.21</ele>
  <time>2026-09-01T19:54:06Z</time>
  <course>327.81</course>
  <speed>0.05</speed>
  <fix>3d</fix>
</trkpt>
<trkpt lat="-27.2745696" lon="151.2893667">
  <ele>406.69</ele>
  <time>2026-09-01T19:54:06Z</time>
  <course>252.86</course>
  <speed>0.0412310562561766</speed>
  <fix>3d</fix>
</trkpt>
<trkpt lat="-27.2745695" lon="151.2893664">
  <ele>406.91</ele>
  <time>2026-09-01T19:54:06Z</time>
  <course>329.09</course>
  <speed>0.05</speed>
  <fix>3d</fix>
</trkpt>
<trkpt lat="-27.2745695" lon="151.2893667">
  <ele>406.54</ele>
  <time>2026-09-01T19:54:06Z</time>
  <course>217.5</course>
  <speed>0.0316227766016838</speed>
  <fix>3d</fix>
</trkpt>
<trkpt lat="-27.2745695" lon="151.2893664">
  <ele>406.91</ele>
  <time>2026-09-01T19:54:06Z</time>
  <course>329.09</course>
  <speed>0.05</speed>
  <fix>3d</fix>
</trkpt>
<trkpt lat="-27.2745695" lon="151.2893667">
  <ele>406.39</ele>
  <time>2026-09-01T19:54:06Z</time>
  <course>205.39</course>
  <speed>0.0316227766016838</speed>
  <fix>3d</fix>
</trkpt>
<trkpt lat="-27.2745695" lon="151.2893663">
  <ele>406.6</ele>
  <time>2026-09-01T19:54:06Z</time>
  <course>330.33</course>
  <speed>0.04</speed>
  <fix>3d</fix>
</trkpt>
<trkpt lat="-27.2745694" lon="151.2893667">
  <ele>406.24</ele>
  <time>2026-09-01T19:54:06Z</time>
  <course>227.45</course>
  <speed>0.0412310562561766</speed>
  <fix>3d</fix>
</trkpt>
<trkpt lat="-27.2745695" lon="151.2893663">
  <ele>406.6</ele>
  <time>2026-09-01T19:54:06Z</time>
  <course>330.33</course>
  <speed>0.04</speed>
  <fix>3d</fix>
</trkpt>
<trkpt lat="-27.2745694" lon="151.2893666">
  <ele>406.09</ele>
  <time>2026-09-01T19:54:06Z</time>
  <course>219.83</course>
  <speed>0.0316227766016838</speed>
  <fix>3d</fix>
</trkpt>
<trkpt lat="-27.2745694" lon="151.2893662">
  <ele>406.3</ele>
  <time>2026-09-01T19:54:06Z</time>
  <course>330.39</course>
  <speed>0.04</speed>
  <fix>3d</fix>
</trkpt>
<trkpt lat="-27.2745694" lon="151.2893666">
  <ele>405.94</ele>
  <time>2026-09-01T19:54:06Z</time>
  <course>220.52</course>
  <speed>0.0316227766016838</speed>
  <fix>3d</fix>
</trkpt>
<trkpt lat="-27.2745694" lon="151.2893662">
  <ele>406.3</ele>
  <time>2026-09-01T19:54:06Z</time>
  <course>330.39</course>
  <speed>0.04</speed>
  <fix>3d</fix>
</trkpt>
<trkpt lat="-27.2745693" lon="151.2893666">
  <ele>405.78</ele>
  <time>2026-09-01T19:54:06Z</time>
  <course>218.94</course>
  <speed>0.0316227766016838</speed>
  <fix>3d</fix>
</trkpt>
<trkpt lat="-27.2745693" lon="151.2893662">
  <ele>406.0</ele>
  <time>2026-09-01T19:54:06Z</time>
  <course>329.38</course>
  <speed>0.04</speed>
  <fix>3d</fix>
</trkpt>
<trkpt lat="-27.2745693" lon="151.2893666">
  <ele>405.63</ele>
  <time>2026-09-01T19:54:06Z</time>
  <course>214.79</course>
  <speed>0.0316227766016838</speed>
  <fix>3d</fix>
</trkpt>
<trkpt lat="-27.2745693" lon="151.2893662">
  <ele>406.0</ele>
  <time>2026-09-01T19:54:06Z</time>
  <course>329.38</course>
  <speed>0.04</speed>
  <fix>3d</fix>
</trkpt>
<trkpt lat="-27.2745693" lon="151.2893665">
  <ele>405.48</ele>
  <time>2026-09-01T19:54:06Z</time>
  <course>218.03</course>
  <speed>0.03</speed>
  <fix>3d</fix>
</trkpt>
<trkpt lat="-27.2745692" lon="151.2893662">
  <ele>405.7</ele>
  <time>2026-09-01T19:54:06Z</time>
  <course>327.73</course>
  <speed>0.04</speed>
  <fix>3d</fix>
</trkpt>
<trkpt lat="-27.2745692" lon="151.2893665">
  <ele>405.33</ele>
  <time>2026-09-01T19:54:06Z</time>
  <course>219.94</course>
  <speed>0.0316227766016838</speed>
  <fix>3d</fix>
</trkpt>
<trkpt lat="-27.2745692" lon="151.2893662">
  <ele>405.7</ele>
  <time>2026-09-01T19:54:06Z</time>
  <course>327.73</course>
  <speed>0.04</speed>
  <fix>3d</fix>
</trkpt>
<trkpt lat="-27.2745692" lon="151.2893665">
  <ele>405.18</ele>
  <time>2026-09-01T19:54:06Z</time>
  <course>211.19</course>
  <speed>0.022360679774997897</speed>
  <fix>3d</fix>
</trkpt>
<trkpt lat="-27.2745692" lon="151.2893661">
  <ele>405.4</ele>
  <time>2026-09-01T19:54:06Z</time>
  <course>326.45</course>
  <speed>0.04</speed>
  <fix>3d</fix>
</trkpt>
<trkpt lat="-27.2745692" lon="151.2893665">
  <ele>405.04</ele>
  <time>2026-09-01T19:54:06Z</time>
  <course>206.61</course>
  <speed>0.022360679774997897</speed>
  <fix>3d</fix>
</trkpt>
<trkpt lat="-27.2745692" lon="151.2893661">
  <ele>405.4</ele>
  <time>2026-09-01T19:54:06Z</time>
  <course>326.45</course>
  <speed>0.04</speed>
  <fix>3d</fix>
</trkpt>
<trkpt lat="-27.2745692" lon="151.2893664">
  <ele>404.89</ele>
  <time>2026-09-01T19:54:06Z</time>
  <course>218.07</course>
  <speed>0.01414213562373095</speed>
  <fix>3d</fix>
</trkpt>
<trkpt lat="-27.2745691" lon="151.2893661">
  <ele>405.1</ele>
  <time>2026-09-01T19:54:06Z</time>
  <course>319.93</course>
  <speed>0.03</speed>
  <fix>3d</fix>
</trkpt>
<trkpt lat="-27.2745691" lon="151.2893664">
  <ele>404.74</ele>
  <time>2026-09-01T19:54:06Z</time>
  <course>215.94</course>
  <speed>0.01414213562373095</speed>
  <fix>3d</fix>
</trkpt>
<trkpt lat="-27.2745691" lon="151.2893661">
  <ele>405.1</ele>
  <time>2026-09-01T19:54:06Z</time>
  <course>319.93</course>
  <speed>0.03</speed>
  <fix>3d</fix>
</trkpt>
<trkpt lat="-27.2745691" lon="151.2893664">
  <ele>404.59</ele>
  <time>2026-09-01T19:54:06Z</time>
  <course>238.61</course>
  <speed>0.02</speed>
  <fix>3d</fix>
</trkpt>
<trkpt lat="-27.2745691" lon="151.289366">
  <ele>404.8</ele>
  <time>2026-09-01T19:54:06Z</time>
  <course>306.14</course>
  <speed>0.02</speed>
  <fix>3d</fix>
</trkpt>
<trkpt lat="-27.2745691" lon="151.2893664">
  <ele>404.44</ele>
  <time>2026-09-01T19:54:06Z</time>
  <course>221.69</course>
  <speed>0.03605551275463989</speed>
  <fix>3d</fix>
</trkpt>
<trkpt lat="-27.2745691" lon="151.289366">
  <ele>404.8</ele>
  <time>2026-09-01T19:54:06Z</time>
  <course>306.14</course>
  <speed>0.02</speed>
  <fix>3d</fix>
</trkpt>
<trkpt lat="-27.2745691" lon="151.2893664">
  <ele>404.29</ele>
  <time>2026-09-01T19:54:06Z</time>
  <course>189.37</course>
  <speed>0.05</speed>
  <fix>3d</fix>
</trkpt>
<trkpt lat="-27.2745691" lon="151.289366">
  <ele>404.51</ele>
  <time>2026-09-01T19:54:06Z</time>
  <course>250.62</course>
  <speed>0.01</speed>
  <fix>3d</fix>
</trkpt>
<trkpt lat="-27.2745691" lon="151.2893664">
  <ele>404.14</ele>
  <time>2026-09-01T19:54:06Z</time>
  <course>215.7</course>
  <speed>0.07071067811865475</speed>
  <fix>3d</fix>
</trkpt>
<trkpt lat="-27.2745691" lon="151.289366">
  <ele>404.51</ele>
  <time>2026-09-01T19:54:06Z</time>
  <course>250.62</course>
  <speed>0.01</speed>
  <fix>3d</fix>
</trkpt>
<trkpt lat="-27.2745692" lon="151.2893664">
  <ele>403.99</ele>
  <time>2026-09-01T19:54:06Z</time>
  <course>216.36</course>
  <speed>0.0848528137423857</speed>
  <fix>3d</fix>
</trkpt>
<trkpt lat="-27.2745691" lon="151.289366">
  <ele>404.2</ele>
  <time>2026-09-01T19:54:06Z</time>
  <course>164.86</course>
  <speed>0.03</speed>
  <fix>3d</fix>
</trkpt>
<trkpt lat="-27.2745692" lon="151.2893664">
  <ele>403.84</ele>
  <time>2026-09-01T19:54:06Z</time>
  <course>215.48</course>
  <speed>0.09899494936611665</speed>
  <fix>3d</fix>
</trkpt>
<trkpt lat="-27.2745691" lon="151.289366">
  <ele>404.2</ele>
  <time>2026-09-01T19:54:06Z</time>
  <course>164.86</course>
  <speed>0.03</speed>
  <fix>3d</fix>
</trkpt>
<trkpt lat="-27.2745693" lon="151.2893664">
  <ele>403.68</ele>
  <time>2026-09-01T19:54:06Z</time>
  <course>218.56</course>
  <speed>0.1063014581273465</speed>
  <fix>3d</fix>
</trkpt>
<trkpt lat="-27.2745691" lon="151.289366">
  <ele>403.89</ele>
  <time>2026-09-01T19:54:06Z</time>
  <course>153.2</course>
  <speed>0.06</speed>
  <fix>3d</fix>
</trkpt>
<trkpt lat="-27.2745693" lon="151.2893665">
  <ele>403.53</ele>
  <time>2026-09-01T19:54:06Z</time>
  <course>220.28</course>
  <speed>0.1131370849898476</speed>
  <fix>3d</fix>
</trkpt>
<trkpt lat="-27.2745691" lon="151.289366">
  <ele>403.89</ele>
  <time>2026-09-01T19:54:06Z</time>
  <course>153.2</course>
  <speed>0.06</speed>
  <fix>3d</fix>
</trkpt>
<trkpt lat="-27.2745694" lon="151.2893665">
  <ele>403.38</ele>
  <time>2026-09-01T19:54:06Z</time>
  <course>221.83</course>
  <speed>0.12041594578792296</speed>
  <fix>3d</fix>
</trkpt>
<trkpt lat="-27.2745692" lon="151.289366">
  <ele>403.59</ele>
  <time>2026-09-01T19:54:06Z</time>
  <course>148.84</course>
  <speed>0.09</speed>
  <fix>3d</fix>
</trkpt>
<trkpt lat="-27.2745695" lon="151.2893666">
  <ele>403.23</ele>
  <time>2026-09-01T19:54:06Z</time>
  <course>222.92</course>
  <speed>0.12041594578792296</speed>
  <fix>3d</fix>
</trkpt>
<trkpt lat="-27.2745692" lon="151.289366">
  <ele>403.59</ele>
  <time>2026-09-01T19:54:06Z</time>
  <course>148.84</course>
  <speed>0.09</speed>
  <fix>3d</fix>
</trkpt>
<trkpt lat="-27.2745696" lon="151.2893666">
  <ele>403.07</ele>
  <time>2026-09-01T19:54:07Z</time>
  <course>223.83</course>
  <speed>0.12041594578792296</speed>
  <fix>3d</fix>
</trkpt>
<trkpt lat="-27.2745694" lon="151.2893661">
  <ele>403.28</ele>
  <time>2026-09-01T19:54:07Z</time>
  <course>146.39</course>
  <speed>0.1</speed>
  <fix>3d</fix>
</trkpt>
<trkpt lat="-27.2745696" lon="151.2893667">
  <ele>402.92</ele>
  <time>2026-09-01T19:54:07Z</time>
  <course>224.55</course>
  <speed>0.12041594578792296</speed>
  <fix>3d</fix>
</trkpt>
<trkpt lat="-27.2745694" lon="151.2893661">
  <ele>403.28</ele>
  <time>2026-09-01T19:54:07Z</time>
  <course>146.39</course>
  <speed>0.1</speed>
  <fix>3d</fix>
</trkpt>
<trkpt lat="-27.2745697" lon="151.2893667">
  <ele>402.77</ele>
  <time>2026-09-01T19:54:07Z</time>
  <course>225.21</course>
  <speed>0.12041594578792296</speed>
  <fix>3d</fix>
</trkpt>
<trkpt lat="-27.2745695" lon="151.2893662">
  <ele>402.97</ele>
  <time>2026-09-01T19:54:07Z</time>
  <course>144.64</course>
  <speed>0.1</speed>
  <fix>3d</fix>
</trkpt>
<trkpt lat="-27.2745698" lon="151.2893668">
  <ele>402.61</ele>
  <time>2026-09-01T19:54:07Z</time>
  <course>225.6</course>
  <speed>0.12806248474865697</speed>
  <fix>3d</fix>
</trkpt>
<trkpt lat="-27.2745695" lon="151.2893662">
  <ele>402.97</ele>
  <time>2026-09-01T19:54:07Z</time>
  <course>144.64</course>
  <speed>0.1</speed>
  <fix>3d</fix>
</trkpt>
<trkpt lat="-27.2745698" lon="151.2893668">
  <ele>402.47</ele>
  <time>2026-09-01T19:54:07Z</time>
  <course>225.9</course>
  <speed>0.12806248474865697</speed>
  <fix>3d</fix>
</trkpt>
<trkpt lat="-27.2745697" lon="151.2893664">
  <ele>402.68</ele>
  <time>2026-09-01T19:54:07Z</time>
  <course>143.07</course>
  <speed>0.11</speed>
  <fix>3d</fix>
</trkpt>
<trkpt lat="-27.2745699" lon="151.2893669">
  <ele>402.32</ele>
  <time>2026-09-01T19:54:07Z</time>
  <course>227.73</course>
  <speed>0.12806248474865697</speed>
  <fix>3d</fix>
</trkpt>
<trkpt lat="-27.2745697" lon="151.2893664">
  <ele>402.68</ele>
  <time>2026-09-01T19:54:07Z</time>
  <course>143.07</course>
  <speed>0.11</speed>
  <fix>3d</fix>
</trkpt>
<trkpt lat="-27.27457" lon="151.289367">
  <ele>402.17</ele>
  <time>2026-09-01T19:54:07Z</time>
  <course>221.61</course>
  <speed>0.12806248474865697</speed>
  <fix>3d</fix>
</trkpt>
<trkpt lat="-27.2745698" lon="151.2893665">
  <ele>402.38</ele>
  <time>2026-09-01T19:54:07Z</time>
  <course>141.99</course>
  <speed>0.11</speed>
  <fix>3d</fix>
</trkpt>
<trkpt lat="-27.2745701" lon="151.289367">
  <ele>402.02</ele>
  <time>2026-09-01T19:54:07Z</time>
  <course>199.65</course>
  <speed>0.12806248474865697</speed>
  <fix>3d</fix>
</trkpt>
<trkpt lat="-27.2745698" lon="151.2893665">
  <ele>402.38</ele>
  <time>2026-09-01T19:54:07Z</time>
  <course>141.99</course>
  <speed>0.11</speed>
  <fix>3d</fix>
</trkpt>
<trkpt lat="-27.2745701" lon="151.2893671">
  <ele>401.87</ele>
  <time>2026-09-01T19:54:07Z</time>
  <course>254.54</course>
  <speed>0.12041594578792296</speed>
  <fix>3d</fix>
</trkpt>
<trkpt lat="-27.27457" lon="151.2893666">
  <ele>402.08</ele>
  <time>2026-09-01T19:54:07Z</time>
  <course>141.55</course>
  <speed>0.11</speed>
  <fix>3d</fix>
</trkpt>
<trkpt lat="-27.2745702" lon="151.2893672">
  <ele>401.72</ele>
  <time>2026-09-01T19:54:07Z</time>
  <course>243.04</course>
  <speed>0.12041594578792296</speed>
  <fix>3d</fix>
</trkpt>
<trkpt lat="-27.27457" lon="151.2893666">
  <ele>402.08</ele>
  <time>2026-09-01T19:54:07Z</time>
  <course>141.55</course>
  <speed>0.11</speed>
  <fix>3d</fix>
</trkpt>
<trkpt lat="-27.2745703" lon="151.2893672">
  <ele>401.57</ele>
  <time>2026-09-01T19:54:07Z</time>
  <course>222.41</course>
  <speed>0.12041594578792296</speed>
  <fix>3d</fix>
</trkpt>
<trkpt lat="-27.2745702" lon="151.2893668">
  <ele>401.78</ele>
  <time>2026-09-01T19:54:07Z</time>
  <course>143.23</course>
  <speed>0.11</speed>
  <fix>3d</fix>
</trkpt>
<trkpt lat="-27.2745704" lon="151.2893673">
  <ele>401.42</ele>
  <time>2026-09-01T19:54:07Z</time>
  <course>233.3</course>
  <speed>0.12041594578792296</speed>
  <fix>3d</fix>
</trkpt>
<trkpt lat="-27.2745702" lon="151.2893668">
  <ele>401.78</ele>
  <time>2026-09-01T19:54:07Z</time>
  <course>143.23</course>
  <speed>0.11</speed>
  <fix>3d</fix>
</trkpt>
<trkpt lat="-27.2745705" lon="151.2893673">
  <ele>401.27</ele>
  <time>2026-09-01T19:54:07Z</time>
  <course>232.16</course>
  <speed>0.1131370849898476</speed>
  <fix>3d</fix>
</trkpt>
<trkpt lat="-27.2745704" lon="151.2893669">
  <ele>401.48</ele>
  <time>2026-09-01T19:54:07Z</time>
  <course>146.33</course>
  <speed>0.11</speed>
  <fix>3d</fix>
</trkpt>
<trkpt lat="-27.2745705" lon="151.2893674">
  <ele>401.12</ele>
  <time>2026-09-01T19:54:07Z</time>
  <course>233.54</course>
  <speed>0.1131370849898476</speed>
  <fix>3d</fix>
</trkpt>
<trkpt lat="-27.2745704" lon="151.2893669">
  <ele>401.48</ele>
  <time>2026-09-01T19:54:07Z</time>
  <course>146.33</course>
  <speed>0.11</speed>
  <fix>3d</fix>
</trkpt>
<trkpt lat="-27.2745706" lon="151.2893674">
  <ele>400.97</ele>
  <time>2026-09-01T19:54:07Z</time>
  <course>234.47</course>
  <speed>0.1131370849898476</speed>
  <fix>3d</fix>
</trkpt>
<trkpt lat="-27.2745705" lon="151.2893671">
  <ele>401.19</ele>
  <time>2026-09-01T19:54:07Z</time>
  <course>148.51</course>
  <speed>0.11</speed>
  <fix>3d</fix>
</trkpt>
<trkpt lat="-27.2745707" lon="151.2893675">
  <ele>400.82</ele>
  <time>2026-09-01T19:54:07Z</time>
  <course>235.64</course>
  <speed>0.1131370849898476</speed>
  <fix>3d</fix>
</trkpt>
<trkpt lat="-27.2745705" lon="151.2893671">
  <ele>401.19</ele>
  <time>2026-09-01T19:54:07Z</time>
  <course>148.51</course>
  <speed>0.11</speed>
  <fix>3d</fix>
</trkpt>
<trkpt lat="-27.2745708" lon="151.2893675">
  <ele>400.67</ele>
  <time>2026-09-01T19:54:07Z</time>
  <course>236.47</course>
  <speed>0.1131370849898476</speed>
  <fix>3d</fix>
</trkpt>
<trkpt lat="-27.2745707" lon="151.2893672">
  <ele>400.89</ele>
  <time>2026-09-01T19:54:07Z</time>
  <course>149.65</course>
  <speed>0.1</speed>
  <fix>3d</fix>
</trkpt>
<trkpt lat="-27.2745709" lon="151.2893676">
  <ele>400.52</ele>
  <time>2026-09-01T19:54:07Z</time>
  <course>237.46</course>
  <speed>0.1131370849898476</speed>
  <fix>3d</fix>
</trkpt>
<trkpt lat="-27.2745707" lon="151.2893672">
  <ele>400.89</ele>
  <time>2026-09-01T19:54:07Z</time>
  <course>149.65</course>
  <speed>0.1</speed>
  <fix>3d</fix>
</trkpt>
<trkpt lat="-27.2745709" lon="151.2893676">
  <ele>400.37</ele>
  <time>2026-09-01T19:54:07Z</time>
  <course>238.49</course>
  <speed>0.1063014581273465</speed>
  <fix>3d</fix>
</trkpt>
<trkpt lat="-27.2745709" lon="151.2893673">
  <ele>400.59</ele>
  <time>2026-09-01T19:54:07Z</time>
  <course>149.61</course>
  <speed>0.1</speed>
  <fix>3d</fix>
</trkpt>
<trkpt lat="-27.274571" lon="151.2893677">
  <ele>400.22</ele>
  <time>2026-09-01T19:54:07Z</time>
  <course>239.66</course>
  <speed>0.1063014581273465</speed>
  <fix>3d</fix>
</trkpt>
<trkpt lat="-27.2745709" lon="151.2893673">
  <ele>400.59</ele>
  <time>2026-09-01T19:54:07Z</time>
  <course>149.61</course>
  <speed>0.1</speed>
  <fix>3d</fix>
</trkpt>
<trkpt lat="-27.2745711" lon="151.2893677">
  <ele>400.08</ele>
  <time>2026-09-01T19:54:07Z</time>
  <course>240.04</course>
  <speed>0.09899494936611665</speed>
  <fix>3d</fix>
</trkpt>
<trkpt lat="-27.274571" lon="151.2893674">
  <ele>400.3</ele>
  <time>2026-09-01T19:54:07Z</time>
  <course>148.54</course>
  <speed>0.09</speed>
  <fix>3d</fix>
</trkpt>
<trkpt lat="-27.2745711" lon="151.2893678">
  <ele>399.93</ele>
  <time>2026-09-01T19:54:07Z</time>
  <course>235.7</course>
  <speed>0.1</speed>
  <fix>3d</fix>
</trkpt>
<trkpt lat="-27.274571" lon="151.2893674">
  <ele>400.3</ele>
  <time>2026-09-01T19:54:07Z</time>
  <course>148.54</course>
  <speed>0.09</speed>
  <fix>3d</fix>
</trkpt>
<trkpt lat="-27.2745712" lon="151.2893678">
  <ele>399.78</ele>
  <time>2026-09-01T19:54:07Z</time>
  <course>214.45</course>
  <speed>0.1</speed>
  <fix>3d</fix>
</trkpt>
<trkpt lat="-27.2745711" lon="151.2893675">
  <ele>400.0</ele>
  <time>2026-09-01T19:54:07Z</time>
  <course>146.68</course>
  <speed>0.09</speed>
  <fix>3d</fix>
</trkpt>
<trkpt lat="-27.2745713" lon="151.2893679">
  <ele>399.63</ele>
  <time>2026-09-01T19:54:07Z</time>
  <course>230.71</course>
  <speed>0.09433981132056603</speed>
  <fix>3d</fix>
</trkpt>
<trkpt lat="-27.2745711" lon="151.2893675">
  <ele>400.0</ele>
  <time>2026-09-01T19:54:07Z</time>
  <course>146.68</course>
  <speed>0.09</speed>
  <fix>3d</fix>
</trkpt>
<trkpt lat="-27.2745713" lon="151.2893679">
  <ele>399.48</ele>
  <time>2026-09-01T19:54:07Z</time>
  <course>277.55</course>
  <speed>0.08602325267042626</speed>
  <fix>3d</fix>
</trkpt>
<trkpt lat="-27.2745713" lon="151.2893676">
  <ele>399.71</ele>
  <time>2026-09-01T19:54:07Z</time>
  <course>143.87</course>
  <speed>0.08</speed>
  <fix>3d</fix>
</trkpt>
<trkpt lat="-27.2745714" lon="151.289368">
  <ele>399.34</ele>
  <time>2026-09-01T19:54:07Z</time>
  <course>246.6</course>
  <speed>0.08602325267042626</speed>
  <fix>3d</fix>
</trkpt>
<trkpt lat="-27.2745713" lon="151.2893676">
  <ele>399.71</ele>
  <time>2026-09-01T19:54:07Z</time>
  <course>143.87</course>
  <speed>0.08</speed>
  <fix>3d</fix>
</trkpt>
<trkpt lat="-27.2745714" lon="151.289368">
  <ele>399.19</ele>
  <time>2026-09-01T19:54:07Z</time>
  <course>234.99</course>
  <speed>0.08062257748298549</speed>
  <fix>3d</fix>
</trkpt>
<trkpt lat="-27.2745714" lon="151.2893677">
  <ele>399.41</ele>
  <time>2026-09-01T19:54:07Z</time>
  <course>140.92</course>
  <speed>0.07</speed>
  <fix>3d</fix>
</trkpt>
<trkpt lat="-27.2745715" lon="151.2893681">
  <ele>399.04</ele>
  <time>2026-09-01T19:54:07Z</time>
  <course>249.82</course>
  <speed>0.08944271909999159</speed>
  <fix>3d</fix>
</trkpt>
<trkpt lat="-27.2745714" lon="151.2893677">
  <ele>399.41</ele>
  <time>2026-09-01T19:54:07Z</time>
  <course>140.92</course>
  <speed>0.07</speed>
  <fix>3d</fix>
</trkpt>
<trkpt lat="-27.2745715" lon="151.2893681">
  <ele>398.9</ele>
  <time>2026-09-01T19:54:07Z</time>
  <course>263.39</course>
  <speed>0.08062257748298549</speed>
  <fix>3d</fix>
</trkpt>
<trkpt lat="-27.2745715" lon="151.2893678">
  <ele>399.11</ele>
  <time>2026-09-01T19:54:07Z</time>
  <course>136.87</course>
  <speed>0.07</speed>
  <fix>3d</fix>
</trkpt>
<trkpt lat="-27.2745715" lon="151.2893682">
  <ele>398.75</ele>
  <time>2026-09-01T19:54:07Z</time>
  <course>241.97</course>
  <speed>0.08062257748298549</speed>
  <fix>3d</fix>
</trkpt>
<trkpt lat="-27.2745715" lon="151.2893678">
  <ele>399.11</ele>
  <time>2026-09-01T19:54:07Z</time>
  <course>136.87</course>
  <speed>0.07</speed>
  <fix>3d</fix>
</trkpt>
<trkpt lat="-27.2745716" lon="151.2893682">
  <ele>398.6</ele>
  <time>2026-09-01T19:54:07Z</time>
  <course>248.65</course>
  <speed>0.08062257748298549</speed>
  <fix>3d</fix>
</trkpt>
<trkpt lat="-27.2745716" lon="151.2893679">
  <ele>398.82</ele>
  <time>2026-09-01T19:54:07Z</time>
  <course>134.24</course>
  <speed>0.06</speed>
  <fix>3d</fix>
</trkpt>
<trkpt lat="-27.2745716" lon="151.2893683">
  <ele>398.45</ele>
  <time>2026-09-01T19:54:07Z</time>
  <course>246.76</course>
  <speed>0.08062257748298549</speed>
  <fix>3d</fix>
</trkpt>
<trkpt lat="-27.2745716" lon="151.2893679">
  <ele>398.82</ele>
  <time>2026-09-01T19:54:07Z</time>
  <course>134.24</course>
  <speed>0.06</speed>
  <fix>3d</fix>
</trkpt>
<trkpt lat="-27.2745717" lon="151.2893683">
  <ele>398.3</ele>
  <time>2026-09-01T19:54:07Z</time>
  <course>247.82</course>
  <speed>0.08062257748298549</speed>
  <fix>3d</fix>
</trkpt>
<trkpt lat="-27.2745717" lon="151.289368">
  <ele>398.52</ele>
  <time>2026-09-01T19:54:07Z</time>
  <course>135.28</course>
  <speed>0.06</speed>
  <fix>3d</fix>
</trkpt>
<trkpt lat="-27.2745717" lon="151.2893684">
  <ele>398.15</ele>
  <time>2026-09-01T19:54:07Z</time>
  <course>248.33</course>
  <speed>0.08062257748298549</speed>
  <fix>3d</fix>
</trkpt>
<trkpt lat="-27.2745717" lon="151.289368">
  <ele>398.52</ele>
  <time>2026-09-01T19:54:07Z</time>
  <course>135.28</course>
  <speed>0.06</speed>
  <fix>3d</fix>
</trkpt>
<trkpt lat="-27.2745718" lon="151.2893684">
  <ele>398.0</ele>
  <time>2026-09-01T19:54:07Z</time>
  <course>249.19</course>
  <speed>0.07615773105863909</speed>
  <fix>3d</fix>
</trkpt>
<trkpt lat="-27.2745717" lon="151.2893681">
  <ele>398.22</ele>
  <time>2026-09-01T19:54:07Z</time>
  <course>135.37</course>
  <speed>0.06</speed>
  <fix>3d</fix>
</trkpt>
<trkpt lat="-27.2745718" lon="151.2893685">
  <ele>397.85</ele>
  <time>2026-09-01T19:54:07Z</time>
  <course>250.11</course>
  <speed>0.07615773105863909</speed>
  <fix>3d</fix>
</trkpt>
<trkpt lat="-27.2745717" lon="151.2893681">
  <ele>398.22</ele>
  <time>2026-09-01T19:54:07Z</time>
  <course>135.37</course>
  <speed>0.06</speed>
  <fix>3d</fix>
</trkpt>
<trkpt lat="-27.2745718" lon="151.2893685">
  <ele>397.7</ele>
  <time>2026-09-01T19:54:07Z</time>
  <course>251.55</course>
  <speed>0.07615773105863909</speed>
  <fix>3d</fix>
</trkpt>
<trkpt lat="-27.2745718" lon="151.2893681">
  <ele>397.91</ele>
  <time>2026-09-01T19:54:07Z</time>
  <course>133.65</course>
  <speed>0.06</speed>
  <fix>3d</fix>
</trkpt>
<trkpt lat="-27.2745719" lon="151.2893686">
  <ele>397.55</ele>
  <time>2026-09-01T19:54:07Z</time>
  <course>258.25</course>
  <speed>0.07615773105863909</speed>
  <fix>3d</fix>
</trkpt>
<trkpt lat="-27.2745718" lon="151.2893681">
  <ele>397.91</ele>
  <time>2026-09-01T19:54:07Z</time>
  <course>133.65</course>
  <speed>0.06</speed>
  <fix>3d</fix>
</trkpt>
<trkpt lat="-27.2745719" lon="151.2893686">
  <ele>397.4</ele>
  <time>2026-09-01T19:54:07Z</time>
  <course>271.01</course>
  <speed>0.07280109889280519</speed>
  <fix>3d</fix>
</trkpt>
<trkpt lat="-27.2745719" lon="151.2893682">
  <ele>397.62</ele>
  <time>2026-09-01T19:54:07Z</time>
  <course>129.69</course>
  <speed>0.05</speed>
  <fix>3d</fix>
</trkpt>
<trkpt lat="-27.2745719" lon="151.2893686">
  <ele>397.25</ele>
  <time>2026-09-01T19:54:07Z</time>
  <course>236.26</course>
  <speed>0.06082762530298219</speed>
  <fix>3d</fix>
</trkpt>
<trkpt lat="-27.2745719" lon="151.2893682">
  <ele>397.62</ele>
  <time>2026-09-01T19:54:07Z</time>
  <course>129.69</course>
  <speed>0.05</speed>
  <fix>3d</fix>
</trkpt>
<trkpt lat="-27.2745719" lon="151.2893687">
  <ele>397.1</ele>
  <time>2026-09-01T19:54:07Z</time>
  <course>233.73</course>
  <speed>0.05</speed>
  <fix>3d</fix>
</trkpt>
<trkpt lat="-27.274572" lon="151.2893683">
  <ele>397.32</ele>
  <time>2026-09-01T19:54:07Z</time>
  <course>122.01</course>
  <speed>0.04</speed>
  <fix>3d</fix>
</trkpt>
<trkpt lat="-27.2745719" lon="151.2893687">
  <ele>396.95</ele>
  <time>2026-09-01T19:54:07Z</time>
  <course>266.97</course>
  <speed>0.0412310562561766</speed>
  <fix>3d</fix>
</trkpt>
<trkpt lat="-27.274572" lon="151.2893683">
  <ele>397.32</ele>
  <time>2026-09-01T19:54:07Z</time>
  <course>122.01</course>
  <speed>0.04</speed>
  <fix>3d</fix>
</trkpt>
<trkpt lat="-27.2745719" lon="151.2893687">
  <ele>396.81</ele>
  <time>2026-09-01T19:54:07Z</time>
  <course>252.99</course>
  <speed>0.03605551275463989</speed>
  <fix>3d</fix>
</trkpt>
<trkpt lat="-27.274572" lon="151.2893684">
  <ele>397.02</ele>
  <time>2026-09-01T19:54:07Z</time>
  <course>90.53</course>
  <speed>0.02</speed>
  <fix>3d</fix>
</trkpt>
<trkpt lat="-27.2745719" lon="151.2893687">
  <ele>396.66</ele>
  <time>2026-09-01T19:54:07Z</time>
  <course>255.71</course>
  <speed>0.0412310562561766</speed>
  <fix>3d</fix>
</trkpt>
<trkpt lat="-27.274572" lon="151.2893684">
  <ele>397.02</ele>
  <time>2026-09-01T19:54:07Z</time>
  <course>90.53</course>
  <speed>0.02</speed>
  <fix>3d</fix>
</trkpt>
<trkpt lat="-27.2745719" lon="151.2893686">
  <ele>396.51</ele>
  <time>2026-09-01T19:54:07Z</time>
  <course>253.65</course>
  <speed>0.06</speed>
  <fix>3d</fix>
</trkpt>
<trkpt lat="-27.274572" lon="151.2893685">
  <ele>396.72</ele>
  <time>2026-09-01T19:54:07Z</time>
  <course>356.66</course>
  <speed>0.03</speed>
  <fix>3d</fix>
</trkpt>
<trkpt lat="-27.2745718" lon="151.2893686">
  <ele>396.36</ele>
  <time>2026-09-01T19:54:07Z</time>
  <course>250.12</course>
  <speed>0.07</speed>
  <fix>3d</fix>
</trkpt>
<trkpt lat="-27.274572" lon="151.2893685">
  <ele>396.72</ele>
  <time>2026-09-01T19:54:07Z</time>
  <course>356.66</course>
  <speed>0.03</speed>
  <fix>3d</fix>
</trkpt>
<trkpt lat="-27.2745718" lon="151.2893686">
  <ele>396.21</ele>
  <time>2026-09-01T19:54:07Z</time>
  <course>244.46</course>
  <speed>0.07</speed>
  <fix>3d</fix>
</trkpt>
<trkpt lat="-27.274572" lon="151.2893685">
  <ele>396.42</ele>
  <time>2026-09-01T19:54:07Z</time>
  <course>341.03</course>
  <speed>0.06</speed>
  <fix>3d</fix>
</trkpt>
<trkpt lat="-27.2745717" lon="151.2893686">
  <ele>396.06</ele>
  <time>2026-09-01T19:54:07Z</time>
  <course>241.21</course>
  <speed>0.07</speed>
  <fix>3d</fix>
</trkpt>
<trkpt lat="-27.274572" lon="151.2893685">
  <ele>396.42</ele>
  <time>2026-09-01T19:54:07Z</time>
  <course>341.03</course>
  <speed>0.06</speed>
  <fix>3d</fix>
</trkpt>
<trkpt lat="-27.2745717" lon="151.2893686">
  <ele>395.9</ele>
  <time>2026-09-01T19:54:07Z</time>
  <course>259.02</course>
  <speed>0.07071067811865475</speed>
  <fix>3d</fix>
</trkpt>
<trkpt lat="-27.2745719" lon="151.2893685">
  <ele>396.13</ele>
  <time>2026-09-01T19:54:07Z</time>
  <course>335.86</course>
  <speed>0.08</speed>
  <fix>3d</fix>
</trkpt>
<trkpt lat="-27.2745716" lon="151.2893686">
  <ele>395.75</ele>
  <time>2026-09-01T19:54:07Z</time>
  <course>256.85</course>
  <speed>0.07071067811865475</speed>
  <fix>3d</fix>
</trkpt>
<trkpt lat="-27.2745719" lon="151.2893685">
  <ele>396.13</ele>
  <time>2026-09-01T19:54:07Z</time>
  <course>335.86</course>
  <speed>0.08</speed>
  <fix>3d</fix>
</trkpt>
<trkpt lat="-27.2745716" lon="151.2893686">
  <ele>395.6</ele>
  <time>2026-09-01T19:54:07Z</time>
  <course>238.97</course>
  <speed>0.07071067811865475</speed>
  <fix>3d</fix>
</trkpt>
<trkpt lat="-27.2745717" lon="151.2893684">
  <ele>395.82</ele>
  <time>2026-09-01T19:54:07Z</time>
  <course>331.31</course>
  <speed>0.09</speed>
  <fix>3d</fix>
</trkpt>
<trkpt lat="-27.2745715" lon="151.2893685">
  <ele>395.45</ele>
  <time>2026-09-01T19:54:07Z</time>
  <course>240.94</course>
  <speed>0.07</speed>
  <fix>3d</fix>
</trkpt>
<trkpt lat="-27.2745717" lon="151.2893684">
  <ele>395.82</ele>
  <time>2026-09-01T19:54:07Z</time>
  <course>331.31</course>
  <speed>0.09</speed>
  <fix>3d</fix>
</trkpt>
<trkpt lat="-27.2745714" lon="151.2893685">
  <ele>395.3</ele>
  <time>2026-09-01T19:54:07Z</time>
  <course>241.66</course>
  <speed>0.07071067811865475</speed>
  <fix>3d</fix>
</trkpt>
<trkpt lat="-27.2745716" lon="151.2893683">
  <ele>395.52</ele>
  <time>2026-09-01T19:54:07Z</time>
  <course>330.83</course>
  <speed>0.09</speed>
  <fix>3d</fix>
</trkpt>
<trkpt lat="-27.2745714" lon="151.2893685">
  <ele>395.15</ele>
  <time>2026-09-01T19:54:07Z</time>
  <course>226.37</course>
  <speed>0.07</speed>
  <fix>3d</fix>
</trkpt>
<trkpt lat="-27.2745716" lon="151.2893683">
  <ele>395.52</ele>
  <time>2026-09-01T19:54:07Z</time>
  <course>330.83</course>
  <speed>0.09</speed>
  <fix>3d</fix>
</trkpt>
<trkpt lat="-27.2745713" lon="151.2893684">
  <ele>395.0</ele>
  <time>2026-09-01T19:54:07Z</time>
  <course>210.71</course>
  <speed>0.06082762530298219</speed>
  <fix>3d</fix>
</trkpt>
<trkpt lat="-27.2745714" lon="151.2893682">
  <ele>395.22</ele>
  <time>2026-09-01T19:54:07Z</time>
  <course>330.85</course>
  <speed>0.09</speed>
  <fix>3d</fix>
</trkpt>
<trkpt lat="-27.2745713" lon="151.2893684">
  <ele>394.85</ele>
  <time>2026-09-01T19:54:07Z</time>
  <course>253.29</course>
  <speed>0.06082762530298219</speed>
  <fix>3d</fix>
</trkpt>
<trkpt lat="-27.2745714" lon="151.2893682">
  <ele>395.22</ele>
  <time>2026-09-01T19:54:07Z</time>
  <course>330.85</course>
  <speed>0.09</speed>
  <fix>3d</fix>
</trkpt>
<trkpt lat="-27.2745712" lon="151.2893683">
  <ele>394.7</ele>
  <time>2026-09-01T19:54:07Z</time>
  <course>250.96</course>
  <speed>0.06082762530298219</speed>
  <fix>3d</fix>
</trkpt>
<trkpt lat="-27.2745713" lon="151.2893681">
  <ele>394.91</ele>
  <time>2026-09-01T19:54:07Z</time>
  <course>327.97</course>
  <speed>0.08</speed>
  <fix>3d</fix>
</trkpt>
<trkpt lat="-27.2745711" lon="151.2893683">
  <ele>394.54</ele>
  <time>2026-09-01T19:54:07Z</time>
  <course>233.63</course>
  <speed>0.06082762530298219</speed>
  <fix>3d</fix>
</trkpt>
<trkpt lat="-27.2745713" lon="151.2893681">
  <ele>394.91</ele>
  <time>2026-09-01T19:54:07Z</time>
  <course>327.97</course>
  <speed>0.08</speed>
  <fix>3d</fix>
</trkpt>
<trkpt lat="-27.2745711" lon="151.2893683">
  <ele>394.39</ele>
  <time>2026-09-01T19:54:07Z</time>
  <course>242.13</course>
  <speed>0.06082762530298219</speed>
  <fix>3d</fix>
</trkpt>
<trkpt lat="-27.2745711" lon="151.289368">
  <ele>394.62</ele>
  <time>2026-09-01T19:54:07Z</time>
  <course>325.09</course>
  <speed>0.08</speed>
  <fix>3d</fix>
</trkpt>
<trkpt lat="-27.274571" lon="151.2893682">
  <ele>394.25</ele>
  <time>2026-09-01T19:54:07Z</time>
  <course>240.34</course>
  <speed>0.06082762530298219</speed>
  <fix>3d</fix>
</trkpt>
<trkpt lat="-27.2745711" lon="151.289368">
  <ele>394.62</ele>
  <time>2026-09-01T19:54:07Z</time>
  <course>325.09</course>
  <speed>0.08</speed>
  <fix>3d</fix>
</trkpt>
<trkpt lat="-27.2745709" lon="151.2893682">
  <ele>394.09</ele>
  <time>2026-09-01T19:54:07Z</time>
  <course>240.65</course>
  <speed>0.06082762530298219</speed>
  <fix>3d</fix>
</trkpt>
<trkpt lat="-27.274571" lon="151.2893679">
  <ele>394.32</ele>
  <time>2026-09-01T19:54:07Z</time>
  <course>323.74</course>
  <speed>0.08</speed>
  <fix>3d</fix>
</trkpt>
<trkpt lat="-27.2745709" lon="151.2893681">
  <ele>393.94</ele>
  <time>2026-09-01T19:54:07Z</time>
  <course>240.06</course>
  <speed>0.06082762530298219</speed>
  <fix>3d</fix>
</trkpt>
<trkpt lat="-27.274571" lon="151.2893679">
  <ele>394.32</ele>
  <time>2026-09-01T19:54:07Z</time>
  <course>323.74</course>
  <speed>0.08</speed>
  <fix>3d</fix>
</trkpt>
<trkpt lat="-27.2745708" lon="151.2893681">
  <ele>393.79</ele>
  <time>2026-09-01T19:54:07Z</time>
  <course>239.5</course>
  <speed>0.07071067811865475</speed>
  <fix>3d</fix>
</trkpt>
<trkpt lat="-27.2745709" lon="151.2893678">
  <ele>394.02</ele>
  <time>2026-09-01T19:54:07Z</time>
  <course>323.72</course>
  <speed>0.09</speed>
  <fix>3d</fix>
</trkpt>
<trkpt lat="-27.2745708" lon="151.289368">
  <ele>393.64</ele>
  <time>2026-09-01T19:54:07Z</time>
  <course>239.03</course>
  <speed>0.07071067811865475</speed>
  <fix>3d</fix>
</trkpt>
<trkpt lat="-27.2745709" lon="151.2893678">
  <ele>394.02</ele>
  <time>2026-09-01T19:54:07Z</time>
  <course>323.72</course>
  <speed>0.09</speed>
  <fix>3d</fix>
</trkpt>
<trkpt lat="-27.2745707" lon="151.289368">
  <ele>393.49</ele>
  <time>2026-09-01T19:54:07Z</time>
  <course>239.68</course>
  <speed>0.06082762530298219</speed>
  <fix>3d</fix>
</trkpt>
<trkpt lat="-27.2745708" lon="151.2893677">
  <ele>393.71</ele>
  <time>2026-09-01T19:54:07Z</time>
  <course>324.31</course>
  <speed>0.09</speed>
  <fix>3d</fix>
</trkpt>
<trkpt lat="-27.2745706" lon="151.2893679">
  <ele>393.34</ele>
  <time>2026-09-01T19:54:07Z</time>
  <course>242.34</course>
  <speed>0.06082762530298219</speed>
  <fix>3d</fix>
</trkpt>
<trkpt lat="-27.2745708" lon="151.2893677">
  <ele>393.71</ele>
  <time>2026-09-01T19:54:07Z</time>
  <course>324.31</course>
  <speed>0.09</speed>
  <fix>3d</fix>
</trkpt>
<trkpt lat="-27.2745706" lon="151.2893679">
  <ele>393.19</ele>
  <time>2026-09-01T19:54:07Z</time>
  <course>246.12</course>
  <speed>0.06082762530298219</speed>
  <fix>3d</fix>
</trkpt>
<trkpt lat="-27.2745706" lon="151.2893676">
  <ele>393.41</ele>
  <time>2026-09-01T19:54:07Z</time>
  <course>324.76</course>
  <speed>0.09</speed>
  <fix>3d</fix>
</trkpt>
<trkpt lat="-27.2745705" lon="151.2893678">
  <ele>393.04</ele>
  <time>2026-09-01T19:54:07Z</time>
  <course>232.77</course>
  <speed>0.06082762530298219</speed>
  <fix>3d</fix>
</trkpt>
<trkpt lat="-27.2745706" lon="151.2893676">
  <ele>393.41</ele>
  <time>2026-09-01T19:54:07Z</time>
  <course>324.76</course>
  <speed>0.09</speed>
  <fix>3d</fix>
</trkpt>
<trkpt lat="-27.2745705" lon="151.2893678">
  <ele>392.89</ele>
  <time>2026-09-01T19:54:07Z</time>
  <course>232.69</course>
  <speed>0.06</speed>
  <fix>3d</fix>
</trkpt>
<trkpt lat="-27.2745705" lon="151.2893675">
  <ele>393.11</ele>
  <time>2026-09-01T19:54:07Z</time>
  <course>324.81</course>
  <speed>0.08</speed>
  <fix>3d</fix>
</trkpt>
<trkpt lat="-27.2745704" lon="151.2893677">
  <ele>392.74</ele>
  <time>2026-09-01T19:54:07Z</time>
  <course>239.89</course>
  <speed>0.06</speed>
  <fix>3d</fix>
</trkpt>
<trkpt lat="-27.2745705" lon="151.2893675">
  <ele>393.11</ele>
  <time>2026-09-01T19:54:07Z</time>
  <course>324.81</course>
  <speed>0.08</speed>
  <fix>3d</fix>
</trkpt>
<trkpt lat="-27.2745703" lon="151.2893677">
  <ele>392.59</ele>
  <time>2026-09-01T19:54:07Z</time>
  <course>214.63</course>
  <speed>0.05</speed>
  <fix>3d</fix>
</trkpt>
<trkpt lat="-27.2745704" lon="151.2893673">
  <ele>392.81</ele>
  <time>2026-09-01T19:54:07Z</time>
  <course>323.95</course>
  <speed>0.08</speed>
  <fix>3d</fix>
</trkpt>
<trkpt lat="-27.2745703" lon="151.2893676">
  <ele>392.44</ele>
  <time>2026-09-01T19:54:07Z</time>
  <course>212.29</course>
  <speed>0.05099019513592785</speed>
  <fix>3d</fix>
</trkpt>
<trkpt lat="-27.2745704" lon="151.2893673">
  <ele>392.81</ele>
  <time>2026-09-01T19:54:07Z</time>
  <course>323.95</course>
  <speed>0.08</speed>
  <fix>3d</fix>
</trkpt>
<trkpt lat="-27.2745702" lon="151.2893676">
  <ele>392.29</ele>
  <time>2026-09-01T19:54:07Z</time>
  <course>253.61</course>
  <speed>0.0412310562561766</speed>
  <fix>3d</fix>
</trkpt>
<trkpt lat="-27.2745702" lon="151.2893672">
  <ele>392.51</ele>
  <time>2026-09-01T19:54:07Z</time>
  <course>320.04</course>
  <speed>0.07</speed>
  <fix>3d</fix>
</trkpt>
<trkpt lat="-27.2745702" lon="151.2893675">
  <ele>392.14</ele>
  <time>2026-09-01T19:54:07Z</time>
  <course>230.29</course>
  <speed>0.0412310562561766</speed>
  <fix>3d</fix>
</trkpt>
<trkpt lat="-27.2745702" lon="151.2893672">
  <ele>392.51</ele>
  <time>2026-09-01T19:54:07Z</time>
  <course>320.04</course>
  <speed>0.07</speed>
  <fix>3d</fix>
</trkpt>
<trkpt lat="-27.2745702" lon="151.2893675">
  <ele>391.99</ele>
  <time>2026-09-01T19:54:07Z</time>
  <course>228.25</course>
  <speed>0.0316227766016838</speed>
  <fix>3d</fix>
</trkpt>
<trkpt lat="-27.2745701" lon="151.2893671">
  <ele>392.21</ele>
  <time>2026-09-01T19:54:07Z</time>
  <course>313.35</course>
  <speed>0.07</speed>
  <fix>3d</fix>
</trkpt>
<trkpt lat="-27.2745701" lon="151.2893674">
  <ele>391.84</ele>
  <time>2026-09-01T19:54:07Z</time>
  <course>230.66</course>
  <speed>0.03605551275463989</speed>
  <fix>3d</fix>
</trkpt>
<trkpt lat="-27.2745701" lon="151.2893671">
  <ele>392.21</ele>
  <time>2026-09-01T19:54:07Z</time>
  <course>313.35</course>
  <speed>0.07</speed>
  <fix>3d</fix>
</trkpt>
<trkpt lat="-27.2745701" lon="151.2893673">
  <ele>391.69</ele>
  <time>2026-09-01T19:54:07Z</time>
  <course>230.03</course>
  <speed>0.03605551275463989</speed>
  <fix>3d</fix>
</trkpt>
<trkpt lat="-27.2745701" lon="151.289367">
  <ele>391.91</ele>
  <time>2026-09-01T19:54:07Z</time>
  <course>307.03</course>
  <speed>0.07</speed>
  <fix>3d</fix>
</trkpt>
<trkpt lat="-27.2745701" lon="151.2893673">
  <ele>391.54</ele>
  <time>2026-09-01T19:54:07Z</time>
  <course>229.9</course>
  <speed>0.03605551275463989</speed>
  <fix>3d</fix>
</trkpt>
<trkpt lat="-27.2745701" lon="151.289367">
  <ele>391.91</ele>
  <time>2026-09-01T19:54:07Z</time>
  <course>307.03</course>
  <speed>0.07</speed>
  <fix>3d</fix>
</trkpt>
<trkpt lat="-27.27457" lon="151.2893672">
  <ele>391.39</ele>
  <time>2026-09-01T19:54:07Z</time>
  <course>229.53</course>
  <speed>0.03605551275463989</speed>
  <fix>3d</fix>
</trkpt>
<trkpt lat="-27.27457" lon="151.2893669">
  <ele>391.62</ele>
  <time>2026-09-01T19:54:07Z</time>
  <course>303.12</course>
  <speed>0.07</speed>
  <fix>3d</fix>
</trkpt>
<trkpt lat="-27.27457" lon="151.2893672">
  <ele>391.24</ele>
  <time>2026-09-01T19:54:07Z</time>
  <course>228.89</course>
  <speed>0.03605551275463989</speed>
  <fix>3d</fix>
</trkpt>
<trkpt lat="-27.27457" lon="151.2893669">
  <ele>391.62</ele>
  <time>2026-09-01T19:54:07Z</time>
  <course>303.12</course>
  <speed>0.07</speed>
  <fix>3d</fix>
</trkpt>
<trkpt lat="-27.27457" lon="151.2893671">
  <ele>391.09</ele>
  <time>2026-09-01T19:54:07Z</time>
  <course>228.23</course>
  <speed>0.0282842712474619</speed>
  <fix>3d</fix>
</trkpt>
<trkpt lat="-27.2745699" lon="151.2893668">
  <ele>391.32</ele>
  <time>2026-09-01T19:54:07Z</time>
  <course>301.05</course>
  <speed>0.06</speed>
  <fix>3d</fix>
</trkpt>
<trkpt lat="-27.2745699" lon="151.289367">
  <ele>390.94</ele>
  <time>2026-09-01T19:54:07Z</time>
  <course>227.41</course>
  <speed>0.022360679774997897</speed>
  <fix>3d</fix>
</trkpt>
<trkpt lat="-27.2745699" lon="151.2893668">
  <ele>391.32</ele>
  <time>2026-09-01T19:54:07Z</time>
  <course>301.05</course>
  <speed>0.06</speed>
  <fix>3d</fix>
</trkpt>
<trkpt lat="-27.2745699" lon="151.289367">
  <ele>390.79</ele>
  <time>2026-09-01T19:54:07Z</time>
  <course>226.63</course>
  <speed>0.022360679774997897</speed>
  <fix>3d</fix>
</trkpt>
<trkpt lat="-27.2745699" lon="151.2893667">
  <ele>391.02</ele>
  <time>2026-09-01T19:54:07Z</time>
  <course>300.15</course>
  <speed>0.06</speed>
  <fix>3d</fix>
</trkpt>
<trkpt lat="-27.2745699" lon="151.2893669">
  <ele>390.63</ele>
  <time>2026-09-01T19:54:07Z</time>
  <course>225.8</course>
  <speed>0.022360679774997897</speed>
  <fix>3d</fix>
</trkpt>
<trkpt lat="-27.2745699" lon="151.2893667">
  <ele>391.02</ele>
  <time>2026-09-01T19:54:07Z</time>
  <course>300.15</course>
  <speed>0.06</speed>
  <fix>3d</fix>
</trkpt>
<trkpt lat="-27.2745698" lon="151.2893669">
  <ele>390.48</ele>
  <time>2026-09-01T19:54:07Z</time>
  <course>225.3</course>
  <speed>0.022360679774997897</speed>
  <fix>3d</fix>
</trkpt>
<trkpt lat="-27.2745698" lon="151.2893666">
  <ele>390.72</ele>
  <time>2026-09-01T19:54:07Z</time>
  <course>300.04</course>
  <speed>0.06</speed>
  <fix>3d</fix>
</trkpt>
<trkpt lat="-27.2745698" lon="151.2893668">
  <ele>390.34</ele>
  <time>2026-09-01T19:54:07Z</time>
  <course>232.41</course>
  <speed>0.022360679774997897</speed>
  <fix>3d</fix>
</trkpt>
<trkpt lat="-27.2745698" lon="151.2893666">
  <ele>390.72</ele>
  <time>2026-09-01T19:54:07Z</time>
  <course>300.04</course>
  <speed>0.06</speed>
  <fix>3d</fix>
</trkpt>
<trkpt lat="-27.2745698" lon="151.2893668">
  <ele>390.19</ele>
  <time>2026-09-01T19:54:07Z</time>
  <course>261.9</course>
  <speed>0.022360679774997897</speed>
  <fix>3d</fix>
</trkpt>
<trkpt lat="-27.2745698" lon="151.2893664">
  <ele>390.41</ele>
  <time>2026-09-01T19:54:07Z</time>
  <course>300.19</course>
  <speed>0.06</speed>
  <fix>3d</fix>
</trkpt>
<trkpt lat="-27.2745698" lon="151.2893667">
  <ele>390.03</ele>
  <time>2026-09-01T19:54:07Z</time>
  <course>209.96</course>
  <speed>0.02</speed>
  <fix>3d</fix>
</trkpt>
<trkpt lat="-27.2745698" lon="151.2893664">
  <ele>390.41</ele>
  <time>2026-09-01T19:54:07Z</time>
  <course>300.19</course>
  <speed>0.06</speed>
  <fix>3d</fix>
</trkpt>
<trkpt lat="-27.2745697" lon="151.2893667">
  <ele>389.89</ele>
  <time>2026-09-01T19:54:07Z</time>
  <course>190.92</course>
  <speed>0.02</speed>
  <fix>3d</fix>
</trkpt>
<trkpt lat="-27.2745697" lon="151.2893663">
  <ele>390.12</ele>
  <time>2026-09-01T19:54:07Z</time>
  <course>300.4</course>
  <speed>0.05</speed>
  <fix>3d</fix>
</trkpt>
<trkpt lat="-27.2745697" lon="151.2893666">
  <ele>389.74</ele>
  <time>2026-09-01T19:54:07Z</time>
  <course>246.16</course>
  <speed>0.022360679774997897</speed>
  <fix>3d</fix>
</trkpt>
<trkpt lat="-27.2745697" lon="151.2893663">
  <ele>390.12</ele>
  <time>2026-09-01T19:54:07Z</time>
  <course>300.4</course>
  <speed>0.05</speed>
  <fix>3d</fix>
</trkpt>
<trkpt lat="-27.2745697" lon="151.2893666">
  <ele>389.59</ele>
  <time>2026-09-01T19:54:07Z</time>
  <course>225.45</course>
  <speed>0.01414213562373095</speed>
  <fix>3d</fix>
</trkpt>
<trkpt lat="-27.2745697" lon="151.2893662">
  <ele>389.82</ele>
  <time>2026-09-01T19:54:07Z</time>
  <course>297.84</course>
  <speed>0.05</speed>
  <fix>3d</fix>
</trkpt>
<trkpt lat="-27.2745697" lon="151.2893665">
  <ele>389.44</ele>
  <time>2026-09-01T19:54:07Z</time>
  <course>220.25</course>
  <speed>0.01</speed>
  <fix>3d</fix>
</trkpt>
<trkpt lat="-27.2745697" lon="151.2893662">
  <ele>389.82</ele>
  <time>2026-09-01T19:54:07Z</time>
  <course>297.84</course>
  <speed>0.05</speed>
  <fix>3d</fix>
</trkpt>
<trkpt lat="-27.2745697" lon="151.2893665">
  <ele>389.29</ele>
  <time>2026-09-01T19:54:07Z</time>
  <course>220.29</course>
  <speed>0.01</speed>
  <fix>3d</fix>
</trkpt>
<trkpt lat="-27.2745696" lon="151.2893662">
  <ele>389.52</ele>
  <time>2026-09-01T19:54:07Z</time>
  <course>295.68</course>
  <speed>0.05</speed>
  <fix>3d</fix>
</trkpt>
<trkpt lat="-27.2745697" lon="151.2893664">
  <ele>389.15</ele>
  <time>2026-09-01T19:54:07Z</time>
  <course>219.06</course>
  <speed>0.01</speed>
  <fix>3d</fix>
</trkpt>
<trkpt lat="-27.2745696" lon="151.2893662">
  <ele>389.52</ele>
  <time>2026-09-01T19:54:07Z</time>
  <course>295.68</course>
  <speed>0.05</speed>
  <fix>3d</fix>
</trkpt>
<trkpt lat="-27.2745696" lon="151.2893664">
  <ele>389.0</ele>
  <time>2026-09-01T19:54:07Z</time>
  <course>217.66</course>
  <speed>0.01</speed>
  <fix>3d</fix>
</trkpt>
<trkpt lat="-27.2745696" lon="151.2893661">
  <ele>389.22</ele>
  <time>2026-09-01T19:54:07Z</time>
  <course>296.16</course>
  <speed>0.04</speed>
  <fix>3d</fix>
</trkpt>
<trkpt lat="-27.2745696" lon="151.2893664">
  <ele>388.85</ele>
  <time>2026-09-01T19:54:07Z</time>
  <course>216.61</course>
  <speed>0.01</speed>
  <fix>3d</fix>
</trkpt>
<trkpt lat="-27.2745696" lon="151.2893661">
  <ele>389.22</ele>
  <time>2026-09-01T19:54:07Z</time>
  <course>296.16</course>
  <speed>0.04</speed>
  <fix>3d</fix>
</trkpt>
<trkpt lat="-27.2745696" lon="151.2893663">
  <ele>388.7</ele>
  <time>2026-09-01T19:54:07Z</time>
  <course>215.74</course>
  <speed>0.01</speed>
  <fix>3d</fix>
</trkpt>
<trkpt lat="-27.2745695" lon="151.289366">
  <ele>388.93</ele>
  <time>2026-09-01T19:54:07Z</time>
  <course>297.06</course>
  <speed>0.04</speed>
  <fix>3d</fix>
</trkpt>
<trkpt lat="-27.2745696" lon="151.2893663">
  <ele>388.55</ele>
  <time>2026-09-01T19:54:07Z</time>
  <course>214.93</course>
  <speed>0.01</speed>
  <fix>3d</fix>
</trkpt>
<trkpt lat="-27.2745695" lon="151.289366">
  <ele>388.93</ele>
  <time>2026-09-01T19:54:07Z</time>
  <course>297.06</course>
  <speed>0.04</speed>
  <fix>3d</fix>
</trkpt>
<trkpt lat="-27.2745696" lon="151.2893663">
  <ele>388.4</ele>
  <time>2026-09-01T19:54:07Z</time>
  <course>214.37</course>
  <speed>0.01414213562373095</speed>
  <fix>3d</fix>
</trkpt>
<trkpt lat="-27.2745695" lon="151.2893659">
  <ele>388.63</ele>
  <time>2026-09-01T19:54:07Z</time>
  <course>300.75</course>
  <speed>0.03</speed>
  <fix>3d</fix>
</trkpt>
<trkpt lat="-27.2745695" lon="151.2893663">
  <ele>388.25</ele>
  <time>2026-09-01T19:54:07Z</time>
  <course>213.37</course>
  <speed>0.01414213562373095</speed>
  <fix>3d</fix>
</trkpt>
<trkpt lat="-27.2745695" lon="151.2893659">
  <ele>388.63</ele>
  <time>2026-09-01T19:54:07Z</time>
  <course>300.75</course>
  <speed>0.03</speed>
  <fix>3d</fix>
</trkpt>
<trkpt lat="-27.2745695" lon="151.2893662">
  <ele>388.1</ele>
  <time>2026-09-01T19:54:07Z</time>
  <course>210.64</course>
  <speed>0.01414213562373095</speed>
  <fix>3d</fix>
</trkpt>
<trkpt lat="-27.2745695" lon="151.2893659">
  <ele>388.33</ele>
  <time>2026-09-01T19:54:07Z</time>
  <course>307.18</course>
  <speed>0.03</speed>
  <fix>3d</fix>
</trkpt>
<trkpt lat="-27.2745695" lon="151.2893662">
  <ele>387.95</ele>
  <time>2026-09-01T19:54:07Z</time>
  <course>205.32</course>
  <speed>0.022360679774997897</speed>
  <fix>3d</fix>
</trkpt>
<trkpt lat="-27.2745695" lon="151.2893659">
  <ele>388.33</ele>
  <time>2026-09-01T19:54:07Z</time>
  <course>307.18</course>
  <speed>0.03</speed>
  <fix>3d</fix>
</trkpt>
<trkpt lat="-27.2745695" lon="151.2893662">
  <ele>387.8</ele>
  <time>2026-09-01T19:54:07Z</time>
  <course>182.53</course>
  <speed>0.022360679774997897</speed>
  <fix>3d</fix>
</trkpt>
<trkpt lat="-27.2745694" lon="151.2893658">
  <ele>388.03</ele>
  <time>2026-09-01T19:54:07Z</time>
  <course>315.91</course>
  <speed>0.02</speed>
  <fix>3d</fix>
</trkpt>
<trkpt lat="-27.2745695" lon="151.2893662">
  <ele>387.64</ele>
  <time>2026-09-01T19:54:07Z</time>
  <course>224.42</course>
  <speed>0.03</speed>
  <fix>3d</fix>
</trkpt>
<trkpt lat="-27.2745694" lon="151.2893658">
  <ele>388.03</ele>
  <time>2026-09-01T19:54:07Z</time>
  <course>315.91</course>
  <speed>0.02</speed>
  <fix>3d</fix>
</trkpt>
<trkpt lat="-27.2745695" lon="151.2893662">
  <ele>387.49</ele>
  <time>2026-09-01T19:54:07Z</time>
  <course>237.98</course>
  <speed>0.04</speed>
  <fix>3d</fix>
</trkpt>
<trkpt lat="-27.2745694" lon="151.2893657">
  <ele>387.72</ele>
  <time>2026-09-01T19:54:07Z</time>
  <course>333.01</course>
  <speed>0.01</speed>
  <fix>3d</fix>
</trkpt>
<trkpt lat="-27.2745695" lon="151.2893662">
  <ele>387.34</ele>
  <time>2026-09-01T19:54:07Z</time>
  <course>204.63</course>
  <speed>0.06082762530298219</speed>
  <fix>3d</fix>
</trkpt>
<trkpt lat="-27.2745694" lon="151.2893657">
  <ele>387.72</ele>
  <time>2026-09-01T19:54:07Z</time>
  <course>333.01</course>
  <speed>0.01</speed>
  <fix>3d</fix>
</trkpt>
<trkpt lat="-27.2745695" lon="151.2893662">
  <ele>387.19</ele>
  <time>2026-09-01T19:54:07Z</time>
  <course>216.03</course>
  <speed>0.07280109889280519</speed>
  <fix>3d</fix>
</trkpt>
<trkpt lat="-27.2745694" lon="151.2893658">
  <ele>387.42</ele>
  <time>2026-09-01T19:54:07Z</time>
  <course>94.48</course>
  <speed>0.01</speed>
  <fix>3d</fix>
</trkpt>
<trkpt lat="-27.2745695" lon="151.2893662">
  <ele>387.04</ele>
  <time>2026-09-01T19:54:07Z</time>
  <course>213.34</course>
  <speed>0.0824621125123532</speed>
  <fix>3d</fix>
</trkpt>
<trkpt lat="-27.2745694" lon="151.2893658">
  <ele>387.42</ele>
  <time>2026-09-01T19:54:07Z</time>
  <course>94.48</course>
  <speed>0.01</speed>
  <fix>3d</fix>
</trkpt>
<trkpt lat="-27.2745695" lon="151.2893663">
  <ele>386.88</ele>
  <time>2026-09-01T19:54:07Z</time>
  <course>220.16</course>
  <speed>0.09486832980505139</speed>
  <fix>3d</fix>
</trkpt>
<trkpt lat="-27.2745694" lon="151.2893659">
  <ele>387.12</ele>
  <time>2026-09-01T19:54:07Z</time>
  <course>117.17</course>
  <speed>0.04</speed>
  <fix>3d</fix>
</trkpt>
<trkpt lat="-27.2745695" lon="151.2893663">
  <ele>386.73</ele>
  <time>2026-09-01T19:54:07Z</time>
  <course>222.94</course>
  <speed>0.10770329614269007</speed>
  <fix>3d</fix>
</trkpt>
<trkpt lat="-27.2745694" lon="151.2893659">
  <ele>387.12</ele>
  <time>2026-09-01T19:54:07Z</time>
  <course>117.17</course>
  <speed>0.04</speed>
  <fix>3d</fix>
</trkpt>
<trkpt lat="-27.2745695" lon="151.2893664">
  <ele>386.58</ele>
  <time>2026-09-01T19:54:07Z</time>
  <course>220.08</course>
  <speed>0.10770329614269007</speed>
  <fix>3d</fix>
</trkpt>
<trkpt lat="-27.2745694" lon="151.2893659">
  <ele>386.81</ele>
  <time>2026-09-01T19:54:07Z</time>
  <course>121.57</course>
  <speed>0.07</speed>
  <fix>3d</fix>
</trkpt>
<trkpt lat="-27.2745695" lon="151.2893665">
  <ele>386.43</ele>
  <time>2026-09-01T19:54:07Z</time>
  <course>221.06</course>
  <speed>0.12083045973594572</speed>
  <fix>3d</fix>
</trkpt>
<trkpt lat="-27.2745694" lon="151.2893659">
  <ele>386.81</ele>
  <time>2026-09-01T19:54:07Z</time>
  <course>121.57</course>
  <speed>0.07</speed>
  <fix>3d</fix>
</trkpt>
<trkpt lat="-27.2745696" lon="151.2893665">
  <ele>386.28</ele>
  <time>2026-09-01T19:54:07Z</time>
  <course>224.06</course>
  <speed>0.12529964086141668</speed>
  <fix>3d</fix>
</trkpt>
<trkpt lat="-27.2745694" lon="151.289366">
  <ele>386.51</ele>
  <time>2026-09-01T19:54:07Z</time>
  <course>125.69</course>
  <speed>0.08</speed>
  <fix>3d</fix>
</trkpt>
<trkpt lat="-27.2745696" lon="151.2893666">
  <ele>386.13</ele>
  <time>2026-09-01T19:54:07Z</time>
  <course>223.05</course>
  <speed>0.12529964086141668</speed>
  <fix>3d</fix>
</trkpt>
<trkpt lat="-27.2745694" lon="151.289366">
  <ele>386.51</ele>
  <time>2026-09-01T19:54:07Z</time>
  <course>125.69</course>
  <speed>0.08</speed>
  <fix>3d</fix>
</trkpt>
<trkpt lat="-27.2745697" lon="151.2893667">
  <ele>385.98</ele>
  <time>2026-09-01T19:54:07Z</time>
  <course>223.92</course>
  <speed>0.1341640786499874</speed>
  <fix>3d</fix>
</trkpt>
<trkpt lat="-27.2745695" lon="151.2893662">
  <ele>386.21</ele>
  <time>2026-09-01T19:54:07Z</time>
  <course>128.91</course>
  <speed>0.1</speed>
  <fix>3d</fix>
</trkpt>
<trkpt lat="-27.2745698" lon="151.2893668">
  <ele>385.83</ele>
  <time>2026-09-01T19:54:07Z</time>
  <course>225.23</course>
  <speed>0.13892443989449804</speed>
  <fix>3d</fix>
</trkpt>
<trkpt lat="-27.2745695" lon="151.2893662">
  <ele>386.21</ele>
  <time>2026-09-01T19:54:07Z</time>
  <course>128.91</course>
  <speed>0.1</speed>
  <fix>3d</fix>
</trkpt>
<trkpt lat="-27.2745698" lon="151.2893669">
  <ele>385.68</ele>
  <time>2026-09-01T19:54:07Z</time>
  <course>228.03</course>
  <speed>0.13892443989449804</speed>
  <fix>3d</fix>
</trkpt>
<trkpt lat="-27.2745697" lon="151.2893664">
  <ele>385.9</ele>
  <time>2026-09-01T19:54:07Z</time>
  <course>129.74</course>
  <speed>0.11</speed>
  <fix>3d</fix>
</trkpt>
<trkpt lat="-27.2745699" lon="151.289367">
  <ele>385.53</ele>
  <time>2026-09-01T19:54:07Z</time>
  <course>228.48</course>
  <speed>0.13892443989449804</speed>
  <fix>3d</fix>
</trkpt>
<trkpt lat="-27.2745697" lon="151.2893664">
  <ele>385.9</ele>
  <time>2026-09-01T19:54:07Z</time>
  <course>129.74</course>
  <speed>0.11</speed>
  <fix>3d</fix>
</trkpt>
<trkpt lat="-27.2745699" lon="151.289367">
  <ele>385.38</ele>
  <time>2026-09-01T19:54:07Z</time>
  <course>259.57</course>
  <speed>0.13892443989449804</speed>
  <fix>3d</fix>
</trkpt>
<trkpt lat="-27.2745698" lon="151.2893665">
  <ele>385.6</ele>
  <time>2026-09-01T19:54:07Z</time>
  <course>129.97</course>
  <speed>0.11</speed>
  <fix>3d</fix>
</trkpt>
<trkpt lat="-27.27457" lon="151.2893671">
  <ele>385.23</ele>
  <time>2026-09-01T19:54:07Z</time>
  <course>221.18</course>
  <speed>0.13892443989449804</speed>
  <fix>3d</fix>
</trkpt>
<trkpt lat="-27.2745698" lon="151.2893665">
  <ele>385.6</ele>
  <time>2026-09-01T19:54:07Z</time>
  <course>129.97</course>
  <speed>0.11</speed>
  <fix>3d</fix>
</trkpt>
<trkpt lat="-27.2745701" lon="151.2893672">
  <ele>385.08</ele>
  <time>2026-09-01T19:54:07Z</time>
  <course>207.79</course>
  <speed>0.1341640786499874</speed>
  <fix>3d</fix>
</trkpt>
<trkpt lat="-27.2745699" lon="151.2893666">
  <ele>385.3</ele>
  <time>2026-09-01T19:54:07Z</time>
  <course>130.02</course>
  <speed>0.11</speed>
  <fix>3d</fix>
</trkpt>
<trkpt lat="-27.2745701" lon="151.2893673">
  <ele>384.93</ele>
  <time>2026-09-01T19:54:07Z</time>
  <course>241.56</course>
  <speed>0.12529964086141668</speed>
  <fix>3d</fix>
</trkpt>
<trkpt lat="-27.2745699" lon="151.2893666">
  <ele>385.3</ele>
  <time>2026-09-01T19:54:07Z</time>
  <course>130.02</course>
  <speed>0.11</speed>
  <fix>3d</fix>
</trkpt>
<trkpt lat="-27.2745702" lon="151.2893674">
  <ele>384.78</ele>
  <time>2026-09-01T19:54:07Z</time>
  <course>230.95</course>
  <speed>0.12529964086141668</speed>
  <fix>3d</fix>
</trkpt>
<trkpt lat="-27.2745701" lon="151.2893669">
  <ele>385.0</ele>
  <time>2026-09-01T19:54:07Z</time>
  <course>130.07</course>
  <speed>0.11</speed>
  <fix>3d</fix>
</trkpt>
<trkpt lat="-27.2745702" lon="151.2893674">
  <ele>384.63</ele>
  <time>2026-09-01T19:54:07Z</time>
  <course>234.87</course>
  <speed>0.12529964086141668</speed>
  <fix>3d</fix>
</trkpt>
<trkpt lat="-27.2745701" lon="151.2893669">
  <ele>385.0</ele>
  <time>2026-09-01T19:54:07Z</time>
  <course>130.07</course>
  <speed>0.11</speed>
  <fix>3d</fix>
</trkpt>
<trkpt lat="-27.2745703" lon="151.2893675">
  <ele>384.48</ele>
  <time>2026-09-01T19:54:07Z</time>
  <course>235.39</course>
  <speed>0.11661903789690602</speed>
  <fix>3d</fix>
</trkpt>
<trkpt lat="-27.2745702" lon="151.2893671">
  <ele>384.7</ele>
  <time>2026-09-01T19:54:07Z</time>
  <course>129.97</course>
  <speed>0.1</speed>
  <fix>3d</fix>
</trkpt>
<trkpt lat="-27.2745703" lon="151.2893676">
  <ele>384.34</ele>
  <time>2026-09-01T19:54:07Z</time>
  <course>235.88</course>
  <speed>0.1118033988749895</speed>
  <fix>3d</fix>
</trkpt>
<trkpt lat="-27.2745702" lon="151.2893671">
  <ele>384.7</ele>
  <time>2026-09-01T19:54:07Z</time>
  <course>129.97</course>
  <speed>0.1</speed>
  <fix>3d</fix>
</trkpt>
<trkpt lat="-27.2745704" lon="151.2893677">
  <ele>384.19</ele>
  <time>2026-09-01T19:54:07Z</time>
  <course>235.89</course>
  <speed>0.1118033988749895</speed>
  <fix>3d</fix>
</trkpt>
<trkpt lat="-27.2745703" lon="151.2893672">
  <ele>384.4</ele>
  <time>2026-09-01T19:54:07Z</time>
  <course>129.9</course>
  <speed>0.1</speed>
  <fix>3d</fix>
</trkpt>
<trkpt lat="-27.2745704" lon="151.2893677">
  <ele>384.04</ele>
  <time>2026-09-01T19:54:07Z</time>
  <course>235.31</course>
  <speed>0.1118033988749895</speed>
  <fix>3d</fix>
</trkpt>
<trkpt lat="-27.2745703" lon="151.2893672">
  <ele>384.4</ele>
  <time>2026-09-01T19:54:07Z</time>
  <course>129.9</course>
  <speed>0.1</speed>
  <fix>3d</fix>
</trkpt>
<trkpt lat="-27.2745705" lon="151.2893678">
  <ele>383.9</ele>
  <time>2026-09-01T19:54:07Z</time>
  <course>234.9</course>
  <speed>0.1118033988749895</speed>
  <fix>3d</fix>
</trkpt>
<trkpt lat="-27.2745704" lon="151.2893674">
  <ele>384.1</ele>
  <time>2026-09-01T19:54:07Z</time>
  <course>129.97</course>
  <speed>0.09</speed>
  <fix>3d</fix>
</trkpt>
<trkpt lat="-27.2745705" lon="151.2893679">
  <ele>383.75</ele>
  <time>2026-09-01T19:54:07Z</time>
  <course>237.74</course>
  <speed>0.1118033988749895</speed>
  <fix>3d</fix>
</trkpt>
<trkpt lat="-27.2745704" lon="151.2893674">
  <ele>384.1</ele>
  <time>2026-09-01T19:54:07Z</time>
  <course>129.97</course>
  <speed>0.09</speed>
  <fix>3d</fix>
</trkpt>
<trkpt lat="-27.2745706" lon="151.2893679">
  <ele>383.6</ele>
  <time>2026-09-01T19:54:07Z</time>
  <course>252.0</course>
  <speed>0.10295630140987001</speed>
  <fix>3d</fix>
</trkpt>
<trkpt lat="-27.2745705" lon="151.2893675">
  <ele>383.81</ele>
  <time>2026-09-01T19:54:07Z</time>
  <course>129.77</course>
  <speed>0.09</speed>
  <fix>3d</fix>
</trkpt>
<trkpt lat="-27.2745706" lon="151.289368">
  <ele>383.45</ele>
  <time>2026-09-01T19:54:07Z</time>
  <course>235.18</course>
  <speed>0.10295630140987001</speed>
  <fix>3d</fix>
</trkpt>
<trkpt lat="-27.2745705" lon="151.2893675">
  <ele>383.81</ele>
  <time>2026-09-01T19:54:07Z</time>
  <course>129.77</course>
  <speed>0.09</speed>
  <fix>3d</fix>
</trkpt>
<trkpt lat="-27.2745707" lon="151.289368">
  <ele>383.3</ele>
  <time>2026-09-01T19:54:07Z</time>
  <course>235.73</course>
  <speed>0.10295630140987001</speed>
  <fix>3d</fix>
</trkpt>
<trkpt lat="-27.2745706" lon="151.2893676">
  <ele>383.51</ele>
  <time>2026-09-01T19:54:07Z</time>
  <course>131.9</course>
  <speed>0.09</speed>
  <fix>3d</fix>
</trkpt>
<trkpt lat="-27.2745707" lon="151.2893681">
  <ele>383.15</ele>
  <time>2026-09-01T19:54:07Z</time>
  <course>242.9</course>
  <speed>0.10816653826391968</speed>
  <fix>3d</fix>
</trkpt>
<trkpt lat="-27.2745706" lon="151.2893676">
  <ele>383.51</ele>
  <time>2026-09-01T19:54:07Z</time>
  <course>131.9</course>
  <speed>0.09</speed>
  <fix>3d</fix>
</trkpt>
<trkpt lat="-27.2745708" lon="151.2893682">
  <ele>383.0</ele>
  <time>2026-09-01T19:54:07Z</time>
  <course>220.71</course>
  <speed>0.1</speed>
  <fix>3d</fix>
</trkpt>
<trkpt lat="-27.2745708" lon="151.2893678">
  <ele>383.21</ele>
  <time>2026-09-01T19:54:07Z</time>
  <course>136.23</course>
  <speed>0.08</speed>
  <fix>3d</fix>
</trkpt>
<trkpt lat="-27.2745709" lon="151.2893682">
  <ele>382.85</ele>
  <time>2026-09-01T19:54:07Z</time>
  <course>266.54</course>
  <speed>0.1</speed>
  <fix>3d</fix>
</trkpt>
<trkpt lat="-27.2745708" lon="151.2893678">
  <ele>383.21</ele>
  <time>2026-09-01T19:54:07Z</time>
  <course>136.23</course>
  <speed>0.08</speed>
  <fix>3d</fix>
</trkpt>
<trkpt lat="-27.2745709" lon="151.2893683">
  <ele>382.69</ele>
  <time>2026-09-01T19:54:07Z</time>
  <course>244.91</course>
  <speed>0.1</speed>
  <fix>3d</fix>
</trkpt>
<trkpt lat="-27.2745709" lon="151.2893679">
  <ele>382.91</ele>
  <time>2026-09-01T19:54:07Z</time>
  <course>139.71</course>
  <speed>0.08</speed>
  <fix>3d</fix>
</trkpt>
<trkpt lat="-27.274571" lon="151.2893683">
  <ele>382.54</ele>
  <time>2026-09-01T19:54:07Z</time>
  <course>216.48</course>
  <speed>0.09219544457292887</speed>
  <fix>3d</fix>
</trkpt>
<trkpt lat="-27.2745709" lon="151.2893679">
  <ele>382.91</ele>
  <time>2026-09-01T19:54:07Z</time>
  <course>139.71</course>
  <speed>0.08</speed>
  <fix>3d</fix>
</trkpt>
<trkpt lat="-27.2745711" lon="151.2893684">
  <ele>382.39</ele>
  <time>2026-09-01T19:54:07Z</time>
  <course>249.26</course>
  <speed>0.09219544457292887</speed>
  <fix>3d</fix>
</trkpt>
<trkpt lat="-27.274571" lon="151.289368">
  <ele>382.61</ele>
  <time>2026-09-01T19:54:07Z</time>
  <course>143.3</course>
  <speed>0.08</speed>
  <fix>3d</fix>
</trkpt>
<trkpt lat="-27.2745711" lon="151.2893684">
  <ele>382.24</ele>
  <time>2026-09-01T19:54:07Z</time>
  <course>242.43</course>
  <speed>0.09219544457292887</speed>
  <fix>3d</fix>
</trkpt>
<trkpt lat="-27.274571" lon="151.289368">
  <ele>382.61</ele>
  <time>2026-09-01T19:54:07Z</time>
  <course>143.3</course>
  <speed>0.08</speed>
  <fix>3d</fix>
</trkpt>
<trkpt lat="-27.2745712" lon="151.2893684">
  <ele>382.09</ele>
  <time>2026-09-01T19:54:07Z</time>
  <course>245.41</course>
  <speed>0.0848528137423857</speed>
  <fix>3d</fix>
</trkpt>
<trkpt lat="-27.2745711" lon="151.2893681">
  <ele>382.3</ele>
  <time>2026-09-01T19:54:07Z</time>
  <course>147.28</course>
  <speed>0.08</speed>
  <fix>3d</fix>
</trkpt>
<trkpt lat="-27.2745712" lon="151.2893685">
  <ele>381.94</ele>
  <time>2026-09-01T19:54:07Z</time>
  <course>246.78</course>
  <speed>0.0848528137423857</speed>
  <fix>3d</fix>
</trkpt>
<trkpt lat="-27.2745711" lon="151.2893681">
  <ele>382.3</ele>
  <time>2026-09-01T19:54:07Z</time>
  <course>147.28</course>
  <speed>0.08</speed>
  <fix>3d</fix>
</trkpt>
<trkpt lat="-27.2745713" lon="151.2893685">
  <ele>381.79</ele>
  <time>2026-09-01T19:54:07Z</time>
  <course>248.03</course>
  <speed>0.07810249675906654</speed>
  <fix>3d</fix>
</trkpt>
<trkpt lat="-27.2745713" lon="151.2893682">
  <ele>382.0</ele>
  <time>2026-09-01T19:54:07Z</time>
  <course>150.56</course>
  <speed>0.07</speed>
  <fix>3d</fix>
</trkpt>
<trkpt lat="-27.2745714" lon="151.2893685">
  <ele>381.64</ele>
  <time>2026-09-01T19:54:07Z</time>
  <course>248.92</course>
  <speed>0.07810249675906654</speed>
  <fix>3d</fix>
</trkpt>
<trkpt lat="-27.2745713" lon="151.2893682">
  <ele>382.0</ele>
  <time>2026-09-01T19:54:07Z</time>
  <course>150.56</course>
  <speed>0.07</speed>
  <fix>3d</fix>
</trkpt>
<trkpt lat="-27.2745714" lon="151.2893686">
  <ele>381.49</ele>
  <time>2026-09-01T19:54:07Z</time>
  <course>249.51</course>
  <speed>0.07071067811865475</speed>
  <fix>3d</fix>
</trkpt>
<trkpt lat="-27.2745714" lon="151.2893683">
  <ele>381.71</ele>
  <time>2026-09-01T19:54:07Z</time>
  <course>152.71</course>
  <speed>0.06</speed>
  <fix>3d</fix>
</trkpt>
<trkpt lat="-27.2745715" lon="151.2893686">
  <ele>381.34</ele>
  <time>2026-09-01T19:54:07Z</time>
  <course>250.15</course>
  <speed>0.07071067811865475</speed>
  <fix>3d</fix>
</trkpt>
<trkpt lat="-27.2745714" lon="151.2893683">
  <ele>381.71</ele>
  <time>2026-09-01T19:54:07Z</time>
  <course>152.71</course>
  <speed>0.06</speed>
  <fix>3d</fix>
</trkpt>
<trkpt lat="-27.2745715" lon="151.2893686">
  <ele>381.2</ele>
  <time>2026-09-01T19:54:07Z</time>
  <course>250.7</course>
  <speed>0.07071067811865475</speed>
  <fix>3d</fix>
</trkpt>
<trkpt lat="-27.2745715" lon="151.2893683">
  <ele>381.41</ele>
  <time>2026-09-01T19:54:07Z</time>
  <course>153.77</course>
  <speed>0.06</speed>
  <fix>3d</fix>
</trkpt>
<trkpt lat="-27.2745716" lon="151.2893687">
  <ele>381.05</ele>
  <time>2026-09-01T19:54:07Z</time>
  <course>251.88</course>
  <speed>0.06403124237432849</speed>
  <fix>3d</fix>
</trkpt>
<trkpt lat="-27.2745715" lon="151.2893683">
  <ele>381.41</ele>
  <time>2026-09-01T19:54:07Z</time>
  <course>153.77</course>
  <speed>0.06</speed>
  <fix>3d</fix>
</trkpt>
<trkpt lat="-27.2745716" lon="151.2893687">
  <ele>380.9</ele>
  <time>2026-09-01T19:54:07Z</time>
  <course>255.2</course>
  <speed>0.06403124237432849</speed>
  <fix>3d</fix>
</trkpt>
<trkpt lat="-27.2745716" lon="151.2893684">
  <ele>381.11</ele>
  <time>2026-09-01T19:54:07Z</time>
  <course>153.86</course>
  <speed>0.05</speed>
  <fix>3d</fix>
</trkpt>
<trkpt lat="-27.2745716" lon="151.2893687">
  <ele>380.76</ele>
  <time>2026-09-01T19:54:07Z</time>
  <course>264.51</course>
  <speed>0.06403124237432849</speed>
  <fix>3d</fix>
</trkpt>
<trkpt lat="-27.2745716" lon="151.2893684">
  <ele>381.11</ele>
  <time>2026-09-01T19:54:07Z</time>
  <course>153.86</course>
  <speed>0.05</speed>
  <fix>3d</fix>
</trkpt>
<trkpt lat="-27.2745717" lon="151.2893687">
  <ele>380.61</ele>
  <time>2026-09-01T19:54:07Z</time>
  <course>281.75</course>
  <speed>0.05</speed>
  <fix>3d</fix>
</trkpt>
<trkpt lat="-27.2745717" lon="151.2893684">
  <ele>380.81</ele>
  <time>2026-09-01T19:54:07Z</time>
  <course>153.19</course>
  <speed>0.05</speed>
  <fix>3d</fix>
</trkpt>
<trkpt lat="-27.2745717" lon="151.2893687">
  <ele>380.46</ele>
  <time>2026-09-01T19:54:07Z</time>
  <course>253.13</course>
  <speed>0.044721359549995794</speed>
  <fix>3d</fix>
</trkpt>
<trkpt lat="-27.2745717" lon="151.2893684">
  <ele>380.81</ele>
  <time>2026-09-01T19:54:07Z</time>
  <course>153.19</course>
  <speed>0.05</speed>
  <fix>3d</fix>
</trkpt>
<trkpt lat="-27.2745717" lon="151.2893687">
  <ele>380.31</ele>
  <time>2026-09-01T19:54:07Z</time>
  <course>227.45</course>
  <speed>0.0316227766016838</speed>
  <fix>3d</fix>
</trkpt>
<trkpt lat="-27.2745717" lon="151.2893685">
  <ele>380.51</ele>
  <time>2026-09-01T19:54:07Z</time>
  <course>154.89</course>
  <speed>0.04</speed>
  <fix>3d</fix>
</trkpt>
<trkpt lat="-27.2745717" lon="151.2893687">
  <ele>380.16</ele>
  <time>2026-09-01T19:54:07Z</time>
  <course>275.39</course>
  <speed>0.01</speed>
  <fix>3d</fix>
</trkpt>
<trkpt lat="-27.2745717" lon="151.2893685">
  <ele>380.51</ele>
  <time>2026-09-01T19:54:07Z</time>
  <course>154.89</course>
  <speed>0.04</speed>
  <fix>3d</fix>
</trkpt>
<trkpt lat="-27.2745717" lon="151.2893687">
  <ele>380.02</ele>
  <time>2026-09-01T19:54:07Z</time>
  <course>259.94</course>
  <speed>0.01</speed>
  <fix>3d</fix>
</trkpt>
<trkpt lat="-27.2745718" lon="151.2893685">
  <ele>380.21</ele>
  <time>2026-09-01T19:54:07Z</time>
  <course>196.11</course>
  <speed>0.01</speed>
  <fix>3d</fix>
</trkpt>
<trkpt lat="-27.2745717" lon="151.2893687">
  <ele>379.87</ele>
  <time>2026-09-01T19:54:07Z</time>
  <course>244.21</course>
  <speed>0.022360679774997897</speed>
  <fix>3d</fix>
</trkpt>
<trkpt lat="-27.2745718" lon="151.2893685">
  <ele>380.21</ele>
  <time>2026-09-01T19:54:07Z</time>
  <course>196.11</course>
  <speed>0.01</speed>
  <fix>3d</fix>
</trkpt>
<trkpt lat="-27.2745717" lon="151.2893687">
  <ele>379.72</ele>
  <time>2026-09-01T19:54:07Z</time>
  <course>255.01</course>
  <speed>0.0316227766016838</speed>
  <fix>3d</fix>
</trkpt>
<trkpt lat="-27.2745718" lon="151.2893685">
  <ele>379.91</ele>
  <time>2026-09-01T19:54:07Z</time>
  <course>291.45</course>
  <speed>0.03</speed>
  <fix>3d</fix>
</trkpt>
<trkpt lat="-27.2745717" lon="151.2893687">
  <ele>379.57</ele>
  <time>2026-09-01T19:54:07Z</time>
  <course>248.67</course>
  <speed>0.03605551275463989</speed>
  <fix>3d</fix>
</trkpt>
<trkpt lat="-27.2745718" lon="151.2893685">
  <ele>379.91</ele>
  <time>2026-09-01T19:54:07Z</time>
  <course>291.45</course>
  <speed>0.03</speed>
  <fix>3d</fix>
</trkpt>
<trkpt lat="-27.2745717" lon="151.2893686">
  <ele>379.42</ele>
  <time>2026-09-01T19:54:07Z</time>
  <course>248.34</course>
  <speed>0.044721359549995794</speed>
  <fix>3d</fix>
</trkpt>
<trkpt lat="-27.2745718" lon="151.2893685">
  <ele>379.61</ele>
  <time>2026-09-01T19:54:07Z</time>
  <course>302.68</course>
  <speed>0.05</speed>
  <fix>3d</fix>
</trkpt>
<trkpt lat="-27.2745717" lon="151.2893686">
  <ele>379.26</ele>
  <time>2026-09-01T19:54:07Z</time>
  <course>246.96</course>
  <speed>0.044721359549995794</speed>
  <fix>3d</fix>
</trkpt>
<trkpt lat="-27.2745718" lon="151.2893685">
  <ele>379.61</ele>
  <time>2026-09-01T19:54:07Z</time>
  <course>302.68</course>
  <speed>0.05</speed>
  <fix>3d</fix>
</trkpt>
<trkpt lat="-27.2745717" lon="151.2893685">
  <ele>379.11</ele>
  <time>2026-09-01T19:54:07Z</time>
  <course>245.88</course>
  <speed>0.053851648071345036</speed>
  <fix>3d</fix>
</trkpt>
<trkpt lat="-27.2745718" lon="151.2893684">
  <ele>379.31</ele>
  <time>2026-09-01T19:54:07Z</time>
  <course>307.9</course>
  <speed>0.07</speed>
  <fix>3d</fix>
</trkpt>
<trkpt lat="-27.2745716" lon="151.2893685">
  <ele>378.96</ele>
  <time>2026-09-01T19:54:07Z</time>
  <course>245.1</course>
  <speed>0.053851648071345036</speed>
  <fix>3d</fix>
</trkpt>
<trkpt lat="-27.2745718" lon="151.2893684">
  <ele>379.31</ele>
  <time>2026-09-01T19:54:07Z</time>
  <course>307.9</course>
  <speed>0.07</speed>
  <fix>3d</fix>
</trkpt>
<trkpt lat="-27.2745716" lon="151.2893684">
  <ele>378.81</ele>
  <time>2026-09-01T19:54:07Z</time>
  <course>244.59</course>
  <speed>0.053851648071345036</speed>
  <fix>3d</fix>
</trkpt>
<trkpt lat="-27.2745717" lon="151.2893682">
  <ele>379.01</ele>
  <time>2026-09-01T19:54:07Z</time>
  <course>312.76</course>
  <speed>0.07</speed>
  <fix>3d</fix>
</trkpt>
<trkpt lat="-27.2745715" lon="151.2893684">
  <ele>378.65</ele>
  <time>2026-09-01T19:54:07Z</time>
  <course>244.2</course>
  <speed>0.0632455532033676</speed>
  <fix>3d</fix>
</trkpt>
<trkpt lat="-27.2745717" lon="151.2893682">
  <ele>379.01</ele>
  <time>2026-09-01T19:54:07Z</time>
  <course>312.76</course>
  <speed>0.07</speed>
  <fix>3d</fix>
</trkpt>
<trkpt lat="-27.2745715" lon="151.2893683">
  <ele>378.5</ele>
  <time>2026-09-01T19:54:07Z</time>
  <course>241.39</course>
  <speed>0.0632455532033676</speed>
  <fix>3d</fix>
</trkpt>
<trkpt lat="-27.2745716" lon="151.2893681">
  <ele>378.71</ele>
  <time>2026-09-01T19:54:07Z</time>
  <course>317.12</course>
  <speed>0.08</speed>
  <fix>3d</fix>
</trkpt>
<trkpt lat="-27.2745714" lon="151.2893683">
  <ele>378.35</ele>
  <time>2026-09-01T19:54:07Z</time>
  <course>217.08</course>
  <speed>0.06082762530298219</speed>
  <fix>3d</fix>
</trkpt>
<trkpt lat="-27.2745716" lon="151.2893681">
  <ele>378.71</ele>
  <time>2026-09-01T19:54:07Z</time>
  <course>317.12</course>
  <speed>0.08</speed>
  <fix>3d</fix>
</trkpt>
<trkpt lat="-27.2745714" lon="151.2893682">
  <ele>378.2</ele>
  <time>2026-09-01T19:54:07Z</time>
  <course>254.76</course>
  <speed>0.07071067811865475</speed>
  <fix>3d</fix>
</trkpt>
<trkpt lat="-27.2745715" lon="151.289368">
  <ele>378.4</ele>
  <time>2026-09-01T19:54:07Z</time>
  <course>320.93</course>
  <speed>0.08</speed>
  <fix>3d</fix>
</trkpt>
<trkpt lat="-27.2745713" lon="151.2893682">
  <ele>378.05</ele>
  <time>2026-09-01T19:54:07Z</time>
  <course>264.82</course>
  <speed>0.07071067811865475</speed>
  <fix>3d</fix>
</trkpt>
<trkpt lat="-27.2745715" lon="151.289368">
  <ele>378.4</ele>
  <time>2026-09-01T19:54:07Z</time>
  <course>320.93</course>
  <speed>0.08</speed>
  <fix>3d</fix>
</trkpt>
<trkpt lat="-27.2745712" lon="151.2893681">
  <ele>377.9</ele>
  <time>2026-09-01T19:54:07Z</time>
  <course>226.3</course>
  <speed>0.07071067811865475</speed>
  <fix>3d</fix>
</trkpt>
<trkpt lat="-27.2745714" lon="151.2893679">
  <ele>378.1</ele>
  <time>2026-09-01T19:54:07Z</time>
  <course>324.2</course>
  <speed>0.09</speed>
  <fix>3d</fix>
</trkpt>
<trkpt lat="-27.2745712" lon="151.2893681">
  <ele>377.75</ele>
  <time>2026-09-01T19:54:07Z</time>
  <course>239.29</course>
  <speed>0.07071067811865475</speed>
  <fix>3d</fix>
</trkpt>
<trkpt lat="-27.2745714" lon="151.2893679">
  <ele>378.1</ele>
  <time>2026-09-01T19:54:07Z</time>
  <course>324.2</course>
  <speed>0.09</speed>
  <fix>3d</fix>
</trkpt>
<trkpt lat="-27.2745711" lon="151.289368">
  <ele>377.6</ele>
  <time>2026-09-01T19:54:07Z</time>
  <course>244.59</course>
  <speed>0.08062257748298549</speed>
  <fix>3d</fix>
</trkpt>
<trkpt lat="-27.2745712" lon="151.2893678">
  <ele>377.8</ele>
  <time>2026-09-01T19:54:07Z</time>
  <course>326.99</course>
  <speed>0.09</speed>
  <fix>3d</fix>
</trkpt>
<trkpt lat="-27.274571" lon="151.289368">
  <ele>377.45</ele>
  <time>2026-09-01T19:54:07Z</time>
  <course>241.26</course>
  <speed>0.08062257748298549</speed>
  <fix>3d</fix>
</trkpt>
<trkpt lat="-27.2745712" lon="151.2893678">
  <ele>377.8</ele>
  <time>2026-09-01T19:54:07Z</time>
  <course>326.99</course>
  <speed>0.09</speed>
  <fix>3d</fix>
</trkpt>
<trkpt lat="-27.274571" lon="151.289368">
  <ele>377.3</ele>
  <time>2026-09-01T19:54:07Z</time>
  <course>243.37</course>
  <speed>0.08062257748298549</speed>
  <fix>3d</fix>
</trkpt>
<trkpt lat="-27.2745711" lon="151.2893677">
  <ele>377.5</ele>
  <time>2026-09-01T19:54:07Z</time>
  <course>329.69</course>
  <speed>0.1</speed>
  <fix>3d</fix>
</trkpt>
<trkpt lat="-27.2745709" lon="151.2893679">
  <ele>377.15</ele>
  <time>2026-09-01T19:54:07Z</time>
  <course>246.02</course>
  <speed>0.08</speed>
  <fix>3d</fix>
</trkpt>
<trkpt lat="-27.2745711" lon="151.2893677">
  <ele>377.5</ele>
  <time>2026-09-01T19:54:07Z</time>
  <course>329.69</course>
  <speed>0.1</speed>
  <fix>3d</fix>
</trkpt>
<trkpt lat="-27.2745708" lon="151.2893679">
  <ele>377.0</ele>
  <time>2026-09-01T19:54:07Z</time>
  <course>250.19</course>
  <speed>0.08</speed>
  <fix>3d</fix>
</trkpt>
<trkpt lat="-27.2745709" lon="151.2893676">
  <ele>377.19</ele>
  <time>2026-09-01T19:54:07Z</time>
  <course>332.22</course>
  <speed>0.1</speed>
  <fix>3d</fix>
</trkpt>
<trkpt lat="-27.2745707" lon="151.2893678">
  <ele>376.85</ele>
  <time>2026-09-01T19:54:07Z</time>
  <course>235.26</course>
  <speed>0.07071067811865475</speed>
  <fix>3d</fix>
</trkpt>
<trkpt lat="-27.2745709" lon="151.2893676">
  <ele>377.19</ele>
  <time>2026-09-01T19:54:07Z</time>
  <course>332.22</course>
  <speed>0.1</speed>
  <fix>3d</fix>
</trkpt>
<trkpt lat="-27.2745707" lon="151.2893678">
  <ele>376.69</ele>
  <time>2026-09-01T19:54:07Z</time>
  <course>234.04</course>
  <speed>0.07</speed>
  <fix>3d</fix>
</trkpt>
<trkpt lat="-27.2745708" lon="151.2893675">
  <ele>376.89</ele>
  <time>2026-09-01T19:54:07Z</time>
  <course>331.91</course>
  <speed>0.1</speed>
  <fix>3d</fix>
</trkpt>
<trkpt lat="-27.2745706" lon="151.2893677">
  <ele>376.54</ele>
  <time>2026-09-01T19:54:07Z</time>
  <course>240.6</course>
  <speed>0.07</speed>
  <fix>3d</fix>
</trkpt>
<trkpt lat="-27.2745708" lon="151.2893675">
  <ele>376.89</ele>
  <time>2026-09-01T19:54:07Z</time>
  <course>331.91</course>
  <speed>0.1</speed>
  <fix>3d</fix>
</trkpt>
<trkpt lat="-27.2745705" lon="151.2893677">
  <ele>376.39</ele>
  <time>2026-09-01T19:54:08Z</time>
  <course>237.2</course>
  <speed>0.06</speed>
  <fix>3d</fix>
</trkpt>
<trkpt lat="-27.2745705" lon="151.2893674">
  <ele>376.59</ele>
  <time>2026-09-01T19:54:08Z</time>
  <course>330.46</course>
  <speed>0.09</speed>
  <fix>3d</fix>
</trkpt>
<trkpt lat="-27.2745705" lon="151.2893677">
  <ele>376.24</ele>
  <time>2026-09-01T19:54:08Z</time>
  <course>232.4</course>
  <speed>0.06</speed>
  <fix>3d</fix>
</trkpt>
<trkpt lat="-27.2745705" lon="151.2893674">
  <ele>376.59</ele>
  <time>2026-09-01T19:54:08Z</time>
  <course>330.46</course>
  <speed>0.09</speed>
  <fix>3d</fix>
</trkpt>
<trkpt lat="-27.2745704" lon="151.2893676">
  <ele>376.09</ele>
  <time>2026-09-01T19:54:08Z</time>
  <course>233.99</course>
  <speed>0.05</speed>
  <fix>3d</fix>
</trkpt>
<trkpt lat="-27.2745704" lon="151.2893673">
  <ele>376.29</ele>
  <time>2026-09-01T19:54:08Z</time>
  <course>329.54</course>
  <speed>0.08</speed>
  <fix>3d</fix>
</trkpt>
<trkpt lat="-27.2745704" lon="151.2893676">
  <ele>375.93</ele>
  <time>2026-09-01T19:54:08Z</time>
  <course>242.4</course>
  <speed>0.05</speed>
  <fix>3d</fix>
</trkpt>
<trkpt lat="-27.2745704" lon="151.2893673">
  <ele>376.29</ele>
  <time>2026-09-01T19:54:08Z</time>
  <course>329.54</course>
  <speed>0.08</speed>
  <fix>3d</fix>
</trkpt>
<trkpt lat="-27.2745703" lon="151.2893675">
  <ele>375.78</ele>
  <time>2026-09-01T19:54:08Z</time>
  <course>256.02</course>
  <speed>0.04</speed>
  <fix>3d</fix>
</trkpt>
<trkpt lat="-27.2745703" lon="151.2893672">
  <ele>375.98</ele>
  <time>2026-09-01T19:54:08Z</time>
  <course>326.18</course>
  <speed>0.07</speed>
  <fix>3d</fix>
</trkpt>
<trkpt lat="-27.2745703" lon="151.2893675">
  <ele>375.63</ele>
  <time>2026-09-01T19:54:08Z</time>
  <course>209.42</course>
  <speed>0.04</speed>
  <fix>3d</fix>
</trkpt>
<trkpt lat="-27.2745703" lon="151.2893672">
  <ele>375.98</ele>
  <time>2026-09-01T19:54:08Z</time>
  <course>326.18</course>
  <speed>0.07</speed>
  <fix>3d</fix>
</trkpt>
<trkpt lat="-27.2745702" lon="151.2893674">
  <ele>375.48</ele>
  <time>2026-09-01T19:54:08Z</time>
  <course>211.04</course>
  <speed>0.0412310562561766</speed>
  <fix>3d</fix>
</trkpt>
<trkpt lat="-27.2745702" lon="151.2893671">
  <ele>375.68</ele>
  <time>2026-09-01T19:54:08Z</time>
  <course>320.56</course>
  <speed>0.07</speed>
  <fix>3d</fix>
</trkpt>
<trkpt lat="-27.2745702" lon="151.2893674">
  <ele>375.33</ele>
  <time>2026-09-01T19:54:08Z</time>
  <course>243.62</course>
  <speed>0.0316227766016838</speed>
  <fix>3d</fix>
</trkpt>
<trkpt lat="-27.2745702" lon="151.2893671">
  <ele>375.68</ele>
  <time>2026-09-01T19:54:08Z</time>
  <course>320.56</course>
  <speed>0.07</speed>
  <fix>3d</fix>
</trkpt>
<trkpt lat="-27.2745701" lon="151.2893673">
  <ele>375.18</ele>
  <time>2026-09-01T19:54:08Z</time>
  <course>229.3</course>
  <speed>0.0316227766016838</speed>
  <fix>3d</fix>
</trkpt>
<trkpt lat="-27.2745701" lon="151.289367">
  <ele>375.38</ele>
  <time>2026-09-01T19:54:08Z</time>
  <course>313.85</course>
  <speed>0.06</speed>
  <fix>3d</fix>
</trkpt>
<trkpt lat="-27.2745701" lon="151.2893673">
  <ele>375.03</ele>
  <time>2026-09-01T19:54:08Z</time>
  <course>229.76</course>
  <speed>0.0316227766016838</speed>
  <fix>3d</fix>
</trkpt>
<trkpt lat="-27.2745701" lon="151.289367">
  <ele>375.38</ele>
  <time>2026-09-01T19:54:08Z</time>
  <course>313.85</course>
  <speed>0.06</speed>
  <fix>3d</fix>
</trkpt>
<trkpt lat="-27.2745701" lon="151.2893672">
  <ele>374.88</ele>
  <time>2026-09-01T19:54:08Z</time>
  <course>231.44</course>
  <speed>0.0316227766016838</speed>
  <fix>3d</fix>
</trkpt>
<trkpt lat="-27.27457" lon="151.2893669">
  <ele>375.09</ele>
  <time>2026-09-01T19:54:08Z</time>
  <course>308.08</course>
  <speed>0.06</speed>
  <fix>3d</fix>
</trkpt>
<trkpt lat="-27.27457" lon="151.2893672">
  <ele>374.73</ele>
  <time>2026-09-01T19:54:08Z</time>
  <course>232.24</course>
  <speed>0.03605551275463989</speed>
  <fix>3d</fix>
</trkpt>
<trkpt lat="-27.27457" lon="151.2893669">
  <ele>375.09</ele>
  <time>2026-09-01T19:54:08Z</time>
  <course>308.08</course>
  <speed>0.06</speed>
  <fix>3d</fix>
</trkpt>
<trkpt lat="-27.27457" lon="151.2893671">
  <ele>374.58</ele>
  <time>2026-09-01T19:54:08Z</time>
  <course>234.78</course>
  <speed>0.03605551275463989</speed>
  <fix>3d</fix>
</trkpt>
<trkpt lat="-27.27457" lon="151.2893668">
  <ele>374.79</ele>
  <time>2026-09-01T19:54:08Z</time>
  <course>303.96</course>
  <speed>0.06</speed>
  <fix>3d</fix>
</trkpt>
<trkpt lat="-27.27457" lon="151.2893671">
  <ele>374.43</ele>
  <time>2026-09-01T19:54:08Z</time>
  <course>228.07</course>
  <speed>0.0282842712474619</speed>
  <fix>3d</fix>
</trkpt>
<trkpt lat="-27.27457" lon="151.2893668">
  <ele>374.79</ele>
  <time>2026-09-01T19:54:08Z</time>
  <course>303.96</course>
  <speed>0.06</speed>
  <fix>3d</fix>
</trkpt>
<trkpt lat="-27.2745699" lon="151.289367">
  <ele>374.28</ele>
  <time>2026-09-01T19:54:08Z</time>
  <course>227.67</course>
  <speed>0.0282842712474619</speed>
  <fix>3d</fix>
</trkpt>
<trkpt lat="-27.2745699" lon="151.2893667">
  <ele>374.49</ele>
  <time>2026-09-01T19:54:08Z</time>
  <course>300.44</course>
  <speed>0.06</speed>
  <fix>3d</fix>
</trkpt>
<trkpt lat="-27.2745699" lon="151.2893669">
  <ele>374.13</ele>
  <time>2026-09-01T19:54:08Z</time>
  <course>226.4</course>
  <speed>0.022360679774997897</speed>
  <fix>3d</fix>
</trkpt>
<trkpt lat="-27.2745699" lon="151.2893667">
  <ele>374.49</ele>
  <time>2026-09-01T19:54:08Z</time>
  <course>300.44</course>
  <speed>0.06</speed>
  <fix>3d</fix>
</trkpt>
<trkpt lat="-27.2745699" lon="151.2893669">
  <ele>373.98</ele>
  <time>2026-09-01T19:54:08Z</time>
  <course>225.92</course>
  <speed>0.022360679774997897</speed>
  <fix>3d</fix>
</trkpt>
<trkpt lat="-27.2745698" lon="151.2893666">
  <ele>374.19</ele>
  <time>2026-09-01T19:54:08Z</time>
  <course>297.5</course>
  <speed>0.06</speed>
  <fix>3d</fix>
</trkpt>
<trkpt lat="-27.2745699" lon="151.2893668">
  <ele>373.83</ele>
  <time>2026-09-01T19:54:08Z</time>
  <course>226.35</course>
  <speed>0.01414213562373095</speed>
  <fix>3d</fix>
</trkpt>
<trkpt lat="-27.2745698" lon="151.2893666">
  <ele>374.19</ele>
  <time>2026-09-01T19:54:08Z</time>
  <course>297.5</course>
  <speed>0.06</speed>
  <fix>3d</fix>
</trkpt>
<trkpt lat="-27.2745698" lon="151.2893668">
  <ele>373.68</ele>
  <time>2026-09-01T19:54:08Z</time>
  <course>229.15</course>
  <speed>0.01414213562373095</speed>
  <fix>3d</fix>
</trkpt>
<trkpt lat="-27.2745698" lon="151.2893665">
  <ele>373.89</ele>
  <time>2026-09-01T19:54:08Z</time>
  <course>293.22</course>
  <speed>0.06</speed>
  <fix>3d</fix>
</trkpt>
<trkpt lat="-27.2745698" lon="151.2893667">
  <ele>373.53</ele>
  <time>2026-09-01T19:54:08Z</time>
  <course>256.36</course>
  <speed>0.01414213562373095</speed>
  <fix>3d</fix>
</trkpt>
<trkpt lat="-27.2745698" lon="151.2893665">
  <ele>373.89</ele>
  <time>2026-09-01T19:54:08Z</time>
  <course>293.22</course>
  <speed>0.06</speed>
  <fix>3d</fix>
</trkpt>
<trkpt lat="-27.2745698" lon="151.2893667">
  <ele>373.38</ele>
  <time>2026-09-01T19:54:08Z</time>
  <course>224.41</course>
  <speed>0.01</speed>
  <fix>3d</fix>
</trkpt>
<trkpt lat="-27.2745698" lon="151.2893663">
  <ele>373.6</ele>
  <time>2026-09-01T19:54:08Z</time>
  <course>286.87</course>
  <speed>0.05</speed>
  <fix>3d</fix>
</trkpt>
<trkpt lat="-27.2745698" lon="151.2893666">
  <ele>373.23</ele>
  <time>2026-09-01T19:54:08Z</time>
  <course>196.6</course>
  <speed>0.01</speed>
  <fix>3d</fix>
</trkpt>
<trkpt lat="-27.2745698" lon="151.2893663">
  <ele>373.6</ele>
  <time>2026-09-01T19:54:08Z</time>
  <course>286.87</course>
  <speed>0.05</speed>
  <fix>3d</fix>
</trkpt>
<trkpt lat="-27.2745698" lon="151.2893665">
  <ele>373.08</ele>
  <time>2026-09-01T19:54:08Z</time>
  <course>229.55</course>
  <speed>0.01</speed>
  <fix>3d</fix>
</trkpt>
<trkpt lat="-27.2745697" lon="151.2893662">
  <ele>373.3</ele>
  <time>2026-09-01T19:54:08Z</time>
  <course>281.62</course>
  <speed>0.05</speed>
  <fix>3d</fix>
</trkpt>
<trkpt lat="-27.2745698" lon="151.2893665">
  <ele>372.93</ele>
  <time>2026-09-01T19:54:08Z</time>
  <course>219.55</course>
  <speed>0.01</speed>
  <fix>3d</fix>
</trkpt>
<trkpt lat="-27.2745697" lon="151.2893662">
  <ele>373.3</ele>
  <time>2026-09-01T19:54:08Z</time>
  <course>281.62</course>
  <speed>0.05</speed>
  <fix>3d</fix>
</trkpt>
<trkpt lat="-27.2745698" lon="151.2893664">
  <ele>372.78</ele>
  <time>2026-09-01T19:54:08Z</time>
  <course>220.09</course>
  <speed>0.01</speed>
  <fix>3d</fix>
</trkpt>
<trkpt lat="-27.2745697" lon="151.2893661">
  <ele>373.0</ele>
  <time>2026-09-01T19:54:08Z</time>
  <course>278.47</course>
  <speed>0.05</speed>
  <fix>3d</fix>
</trkpt>
<trkpt lat="-27.2745698" lon="151.2893664">
  <ele>372.63</ele>
  <time>2026-09-01T19:54:08Z</time>
  <course>220.0</course>
  <speed>0.01</speed>
  <fix>3d</fix>
</trkpt>
<trkpt lat="-27.2745697" lon="151.2893661">
  <ele>373.0</ele>
  <time>2026-09-01T19:54:08Z</time>
  <course>278.47</course>
  <speed>0.05</speed>
  <fix>3d</fix>
</trkpt>
<trkpt lat="-27.2745698" lon="151.2893663">
  <ele>372.49</ele>
  <time>2026-09-01T19:54:08Z</time>
  <course>219.66</course>
  <speed>0.01</speed>
  <fix>3d</fix>
</trkpt>
<trkpt lat="-27.2745697" lon="151.289366">
  <ele>372.71</ele>
  <time>2026-09-01T19:54:08Z</time>
  <course>277.32</course>
  <speed>0.05</speed>
  <fix>3d</fix>
</trkpt>
<trkpt lat="-27.2745698" lon="151.2893663">
  <ele>372.34</ele>
  <time>2026-09-01T19:54:08Z</time>
  <course>218.98</course>
  <speed>0.01</speed>
  <fix>3d</fix>
</trkpt>
<trkpt lat="-27.2745697" lon="151.289366">
  <ele>372.71</ele>
  <time>2026-09-01T19:54:08Z</time>
  <course>277.32</course>
  <speed>0.05</speed>
  <fix>3d</fix>
</trkpt>
<trkpt lat="-27.2745697" lon="151.2893662">
  <ele>372.19</ele>
  <time>2026-09-01T19:54:08Z</time>
  <course>218.07</course>
  <speed>0.01</speed>
  <fix>3d</fix>
</trkpt>
<trkpt lat="-27.2745697" lon="151.2893659">
  <ele>372.41</ele>
  <time>2026-09-01T19:54:08Z</time>
  <course>278.07</course>
  <speed>0.05</speed>
  <fix>3d</fix>
</trkpt>
<trkpt lat="-27.2745697" lon="151.2893662">
  <ele>372.04</ele>
  <time>2026-09-01T19:54:08Z</time>
  <course>217.06</course>
  <speed>0.0</speed>
  <fix>3d</fix>
</trkpt>
<trkpt lat="-27.2745697" lon="151.2893659">
  <ele>372.41</ele>
  <time>2026-09-01T19:54:08Z</time>
  <course>278.07</course>
  <speed>0.05</speed>
  <fix>3d</fix>
</trkpt>
<trkpt lat="-27.2745697" lon="151.2893661">
  <ele>371.89</ele>
  <time>2026-09-01T19:54:08Z</time>
  <course>215.64</course>
  <speed>0.0</speed>
  <fix>3d</fix>
</trkpt>
<trkpt lat="-27.2745697" lon="151.2893658">
  <ele>372.11</ele>
  <time>2026-09-01T19:54:08Z</time>
  <course>279.77</course>
  <speed>0.04</speed>
  <fix>3d</fix>
</trkpt>
<trkpt lat="-27.2745697" lon="151.2893661">
  <ele>371.75</ele>
  <time>2026-09-01T19:54:08Z</time>
  <course>213.23</course>
  <speed>0.0</speed>
  <fix>3d</fix>
</trkpt>
<trkpt lat="-27.2745697" lon="151.2893658">
  <ele>372.11</ele>
  <time>2026-09-01T19:54:08Z</time>
  <course>279.77</course>
  <speed>0.04</speed>
  <fix>3d</fix>
</trkpt>
<trkpt lat="-27.2745697" lon="151.289366">
  <ele>371.6</ele>
  <time>2026-09-01T19:54:08Z</time>
  <course>211.78</course>
  <speed>0.0</speed>
  <fix>3d</fix>
</trkpt>
<trkpt lat="-27.2745697" lon="151.2893657">
  <ele>371.81</ele>
  <time>2026-09-01T19:54:08Z</time>
  <course>282.35</course>
  <speed>0.04</speed>
  <fix>3d</fix>
</trkpt>
<trkpt lat="-27.2745697" lon="151.289366">
  <ele>371.45</ele>
  <time>2026-09-01T19:54:08Z</time>
  <course>220.56</course>
  <speed>0.0</speed>
  <fix>3d</fix>
</trkpt>
<trkpt lat="-27.2745697" lon="151.2893657">
  <ele>371.81</ele>
  <time>2026-09-01T19:54:08Z</time>
  <course>282.35</course>
  <speed>0.04</speed>
  <fix>3d</fix>
</trkpt>
<trkpt lat="-27.2745697" lon="151.289366">
  <ele>371.3</ele>
  <time>2026-09-01T19:54:08Z</time>
  <course>229.19</course>
  <speed>0.01</speed>
  <fix>3d</fix>
</trkpt>
<trkpt lat="-27.2745697" lon="151.2893656">
  <ele>371.52</ele>
  <time>2026-09-01T19:54:08Z</time>
  <course>285.42</course>
  <speed>0.03</speed>
  <fix>3d</fix>
</trkpt>
<trkpt lat="-27.2745697" lon="151.2893659">
  <ele>371.15</ele>
  <time>2026-09-01T19:54:08Z</time>
  <course>252.39</course>
  <speed>0.01</speed>
  <fix>3d</fix>
</trkpt>
<trkpt lat="-27.2745697" lon="151.2893656">
  <ele>371.52</ele>
  <time>2026-09-01T19:54:08Z</time>
  <course>285.42</course>
  <speed>0.03</speed>
  <fix>3d</fix>
</trkpt>
<trkpt lat="-27.2745697" lon="151.2893659">
  <ele>371.0</ele>
  <time>2026-09-01T19:54:08Z</time>
  <course>174.55</course>
  <speed>0.02</speed>
  <fix>3d</fix>
</trkpt>
<trkpt lat="-27.2745696" lon="151.2893656">
  <ele>371.22</ele>
  <time>2026-09-01T19:54:08Z</time>
  <course>286.75</course>
  <speed>0.02</speed>
  <fix>3d</fix>
</trkpt>
<trkpt lat="-27.2745697" lon="151.2893659">
  <ele>370.85</ele>
  <time>2026-09-01T19:54:08Z</time>
  <course>194.73</course>
  <speed>0.0412310562561766</speed>
  <fix>3d</fix>
</trkpt>
<trkpt lat="-27.2745696" lon="151.2893656">
  <ele>371.22</ele>
  <time>2026-09-01T19:54:08Z</time>
  <course>286.75</course>
  <speed>0.02</speed>
  <fix>3d</fix>
</trkpt>
<trkpt lat="-27.2745697" lon="151.2893659">
  <ele>370.7</ele>
  <time>2026-09-01T19:54:08Z</time>
  <course>225.8</course>
  <speed>0.0632455532033676</speed>
  <fix>3d</fix>
</trkpt>
<trkpt lat="-27.2745696" lon="151.2893656">
  <ele>370.91</ele>
  <time>2026-09-01T19:54:08Z</time>
  <course>237.33</course>
  <speed>0.0</speed>
  <fix>3d</fix>
</trkpt>
<trkpt lat="-27.2745697" lon="151.289366">
  <ele>370.55</ele>
  <time>2026-09-01T19:54:08Z</time>
  <course>207.41</course>
  <speed>0.07615773105863909</speed>
  <fix>3d</fix>
</trkpt>
<trkpt lat="-27.2745696" lon="151.2893656">
  <ele>370.91</ele>
  <time>2026-09-01T19:54:08Z</time>
  <course>237.33</course>
  <speed>0.0</speed>
  <fix>3d</fix>
</trkpt>
<trkpt lat="-27.2745697" lon="151.289366">
  <ele>370.4</ele>
  <time>2026-09-01T19:54:08Z</time>
  <course>216.52</course>
  <speed>0.09848857801796104</speed>
  <fix>3d</fix>
</trkpt>
<trkpt lat="-27.2745696" lon="151.2893656">
  <ele>370.61</ele>
  <time>2026-09-01T19:54:08Z</time>
  <course>138.7</course>
  <speed>0.03</speed>
  <fix>3d</fix>
</trkpt>
<trkpt lat="-27.2745697" lon="151.289366">
  <ele>370.24</ele>
  <time>2026-09-01T19:54:08Z</time>
  <course>217.06</course>
  <speed>0.10770329614269007</speed>
  <fix>3d</fix>
</trkpt>
<trkpt lat="-27.2745696" lon="151.2893656">
  <ele>370.61</ele>
  <time>2026-09-01T19:54:08Z</time>
  <course>138.7</course>
  <speed>0.03</speed>
  <fix>3d</fix>
</trkpt>
<trkpt lat="-27.2745698" lon="151.2893661">
  <ele>370.09</ele>
  <time>2026-09-01T19:54:08Z</time>
  <course>219.03</course>
  <speed>0.12083045973594572</speed>
  <fix>3d</fix>
</trkpt>
<trkpt lat="-27.2745697" lon="151.2893656">
  <ele>370.31</ele>
  <time>2026-09-01T19:54:08Z</time>
  <course>128.34</course>
  <speed>0.06</speed>
  <fix>3d</fix>
</trkpt>
<trkpt lat="-27.2745698" lon="151.2893662">
  <ele>369.94</ele>
  <time>2026-09-01T19:54:08Z</time>
  <course>220.88</course>
  <speed>0.13</speed>
  <fix>3d</fix>
</trkpt>
<trkpt lat="-27.2745697" lon="151.2893656">
  <ele>370.31</ele>
  <time>2026-09-01T19:54:08Z</time>
  <course>128.34</course>
  <speed>0.06</speed>
  <fix>3d</fix>
</trkpt>
<trkpt lat="-27.2745698" lon="151.2893662">
  <ele>369.79</ele>
  <time>2026-09-01T19:54:08Z</time>
  <course>222.37</course>
  <speed>0.13</speed>
  <fix>3d</fix>
</trkpt>
<trkpt lat="-27.2745697" lon="151.2893657">
  <ele>370.0</ele>
  <time>2026-09-01T19:54:08Z</time>
  <course>123.66</course>
  <speed>0.09</speed>
  <fix>3d</fix>
</trkpt>
<trkpt lat="-27.2745699" lon="151.2893663">
  <ele>369.63</ele>
  <time>2026-09-01T19:54:08Z</time>
  <course>223.83</course>
  <speed>0.1392838827718412</speed>
  <fix>3d</fix>
</trkpt>
<trkpt lat="-27.2745697" lon="151.2893657">
  <ele>370.0</ele>
  <time>2026-09-01T19:54:08Z</time>
  <course>123.66</course>
  <speed>0.09</speed>
  <fix>3d</fix>
</trkpt>
<trkpt lat="-27.2745699" lon="151.2893664">
  <ele>369.48</ele>
  <time>2026-09-01T19:54:08Z</time>
  <course>225.02</course>
  <speed>0.1392838827718412</speed>
  <fix>3d</fix>
</trkpt>
<trkpt lat="-27.2745698" lon="151.2893659">
  <ele>369.69</ele>
  <time>2026-09-01T19:54:08Z</time>
  <course>120.27</course>
  <speed>0.1</speed>
  <fix>3d</fix>
</trkpt>
<trkpt lat="-27.27457" lon="151.2893665">
  <ele>369.33</ele>
  <time>2026-09-01T19:54:08Z</time>
  <course>226.48</course>
  <speed>0.14560219778561037</speed>
  <fix>3d</fix>
</trkpt>
<trkpt lat="-27.2745698" lon="151.2893659">
  <ele>369.69</ele>
  <time>2026-09-01T19:54:08Z</time>
  <course>120.27</course>
  <speed>0.1</speed>
  <fix>3d</fix>
</trkpt>
<trkpt lat="-27.27457" lon="151.2893666">
  <ele>369.17</ele>
  <time>2026-09-01T19:54:08Z</time>
  <course>230.08</course>
  <speed>0.14866068747318506</speed>
  <fix>3d</fix>
</trkpt>
<trkpt lat="-27.2745699" lon="151.2893661">
  <ele>369.39</ele>
  <time>2026-09-01T19:54:08Z</time>
  <course>117.53</course>
  <speed>0.11</speed>
  <fix>3d</fix>
</trkpt>
<trkpt lat="-27.27457" lon="151.2893667">
  <ele>369.02</ele>
  <time>2026-09-01T19:54:08Z</time>
  <course>228.23</course>
  <speed>0.1392838827718412</speed>
  <fix>3d</fix>
</trkpt>
<trkpt lat="-27.2745699" lon="151.2893661">
  <ele>369.39</ele>
  <time>2026-09-01T19:54:08Z</time>
  <course>117.53</course>
  <speed>0.11</speed>
  <fix>3d</fix>
</trkpt>
<trkpt lat="-27.2745701" lon="151.2893668">
  <ele>368.87</ele>
  <time>2026-09-01T19:54:08Z</time>
  <course>252.11</course>
  <speed>0.1341640786499874</speed>
  <fix>3d</fix>
</trkpt>
<trkpt lat="-27.27457" lon="151.2893662">
  <ele>369.09</ele>
  <time>2026-09-01T19:54:08Z</time>
  <course>118.45</course>
  <speed>0.11</speed>
  <fix>3d</fix>
</trkpt>
<trkpt lat="-27.2745702" lon="151.2893669">
  <ele>368.72</ele>
  <time>2026-09-01T19:54:08Z</time>
  <course>241.32</course>
  <speed>0.14317821063276354</speed>
  <fix>3d</fix>
</trkpt>
<trkpt lat="-27.27457" lon="151.2893662">
  <ele>369.09</ele>
  <time>2026-09-01T19:54:08Z</time>
  <course>118.45</course>
  <speed>0.11</speed>
  <fix>3d</fix>
</trkpt>
<trkpt lat="-27.2745702" lon="151.289367">
  <ele>368.57</ele>
  <time>2026-09-01T19:54:08Z</time>
  <course>200.1</course>
  <speed>0.1341640786499874</speed>
  <fix>3d</fix>
</trkpt>
<trkpt lat="-27.2745701" lon="151.2893665">
  <ele>368.79</ele>
  <time>2026-09-01T19:54:08Z</time>
  <course>122.26</course>
  <speed>0.11</speed>
  <fix>3d</fix>
</trkpt>
<trkpt lat="-27.2745703" lon="151.2893671">
  <ele>368.42</ele>
  <time>2026-09-01T19:54:08Z</time>
  <course>237.62</course>
  <speed>0.1341640786499874</speed>
  <fix>3d</fix>
</trkpt>
<trkpt lat="-27.2745701" lon="151.2893665">
  <ele>368.79</ele>
  <time>2026-09-01T19:54:08Z</time>
  <course>122.26</course>
  <speed>0.11</speed>
  <fix>3d</fix>
</trkpt>
<trkpt lat="-27.2745703" lon="151.2893672">
  <ele>368.27</ele>
  <time>2026-09-01T19:54:08Z</time>
  <course>230.43</course>
  <speed>0.1341640786499874</speed>
  <fix>3d</fix>
</trkpt>
<trkpt lat="-27.2745702" lon="151.2893666">
  <ele>368.49</ele>
  <time>2026-09-01T19:54:08Z</time>
  <course>124.49</course>
  <speed>0.11</speed>
  <fix>3d</fix>
</trkpt>
<trkpt lat="-27.2745704" lon="151.2893673">
  <ele>368.12</ele>
  <time>2026-09-01T19:54:08Z</time>
  <course>232.6</course>
  <speed>0.12529964086141668</speed>
  <fix>3d</fix>
</trkpt>
<trkpt lat="-27.2745702" lon="151.2893666">
  <ele>368.49</ele>
  <time>2026-09-01T19:54:08Z</time>
  <course>124.49</course>
  <speed>0.11</speed>
  <fix>3d</fix>
</trkpt>
<trkpt lat="-27.2745704" lon="151.2893673">
  <ele>367.97</ele>
  <time>2026-09-01T19:54:08Z</time>
  <course>233.4</course>
  <speed>0.12529964086141668</speed>
  <fix>3d</fix>
</trkpt>
<trkpt lat="-27.2745703" lon="151.2893669">
  <ele>368.19</ele>
  <time>2026-09-01T19:54:08Z</time>
  <course>125.98</course>
  <speed>0.11</speed>
  <fix>3d</fix>
</trkpt>
<trkpt lat="-27.2745705" lon="151.2893674">
  <ele>367.82</ele>
  <time>2026-09-01T19:54:08Z</time>
  <course>234.34</course>
  <speed>0.12083045973594572</speed>
  <fix>3d</fix>
</trkpt>
<trkpt lat="-27.2745703" lon="151.2893669">
  <ele>368.19</ele>
  <time>2026-09-01T19:54:08Z</time>
  <course>125.98</course>
  <speed>0.11</speed>
  <fix>3d</fix>
</trkpt>
<trkpt lat="-27.2745705" lon="151.2893675">
  <ele>367.68</ele>
  <time>2026-09-01T19:54:08Z</time>
  <course>235.14</course>
  <speed>0.1118033988749895</speed>
  <fix>3d</fix>
</trkpt>
<trkpt lat="-27.2745704" lon="151.289367">
  <ele>367.89</ele>
  <time>2026-09-01T19:54:08Z</time>
  <course>127.63</course>
  <speed>0.1</speed>
  <fix>3d</fix>
</trkpt>
<trkpt lat="-27.2745706" lon="151.2893676">
  <ele>367.53</ele>
  <time>2026-09-01T19:54:08Z</time>
  <course>235.89</course>
  <speed>0.1118033988749895</speed>
  <fix>3d</fix>
</trkpt>
<trkpt lat="-27.2745704" lon="151.289367">
  <ele>367.89</ele>
  <time>2026-09-01T19:54:08Z</time>
  <course>127.63</course>
  <speed>0.1</speed>
  <fix>3d</fix>
</trkpt>
<trkpt lat="-27.2745706" lon="151.2893676">
  <ele>367.38</ele>
  <time>2026-09-01T19:54:08Z</time>
  <course>236.57</course>
  <speed>0.1118033988749895</speed>
  <fix>3d</fix>
</trkpt>
<trkpt lat="-27.2745705" lon="151.2893671">
  <ele>367.6</ele>
  <time>2026-09-01T19:54:08Z</time>
  <course>128.84</course>
  <speed>0.1</speed>
  <fix>3d</fix>
</trkpt>
<trkpt lat="-27.2745707" lon="151.2893677">
  <ele>367.24</ele>
  <time>2026-09-01T19:54:08Z</time>
  <course>237.32</course>
  <speed>0.1118033988749895</speed>
  <fix>3d</fix>
</trkpt>
<trkpt lat="-27.2745705" lon="151.2893671">
  <ele>367.6</ele>
  <time>2026-09-01T19:54:08Z</time>
  <course>128.84</course>
  <speed>0.1</speed>
  <fix>3d</fix>
</trkpt>
<trkpt lat="-27.2745707" lon="151.2893678">
  <ele>367.09</ele>
  <time>2026-09-01T19:54:08Z</time>
  <course>238.01</course>
  <speed>0.1118033988749895</speed>
  <fix>3d</fix>
</trkpt>
<trkpt lat="-27.2745706" lon="151.2893673">
  <ele>367.3</ele>
  <time>2026-09-01T19:54:08Z</time>
  <course>129.58</course>
  <speed>0.09</speed>
  <fix>3d</fix>
</trkpt>
<trkpt lat="-27.2745707" lon="151.2893678">
  <ele>366.94</ele>
  <time>2026-09-01T19:54:08Z</time>
  <course>238.9</course>
  <speed>0.10295630140987001</speed>
  <fix>3d</fix>
</trkpt>
<trkpt lat="-27.2745706" lon="151.2893673">
  <ele>367.3</ele>
  <time>2026-09-01T19:54:08Z</time>
  <course>129.58</course>
  <speed>0.09</speed>
  <fix>3d</fix>
</trkpt>
<trkpt lat="-27.2745708" lon="151.2893679">
  <ele>366.8</ele>
  <time>2026-09-01T19:54:08Z</time>
  <course>240.64</course>
  <speed>0.10295630140987001</speed>
  <fix>3d</fix>
</trkpt>
<trkpt lat="-27.2745708" lon="151.2893675">
  <ele>367.0</ele>
  <time>2026-09-01T19:54:08Z</time>
  <course>129.85</course>
  <speed>0.09</speed>
  <fix>3d</fix>
</trkpt>
<trkpt lat="-27.2745708" lon="151.2893679">
  <ele>366.65</ele>
  <time>2026-09-01T19:54:08Z</time>
  <course>237.93</course>
  <speed>0.09848857801796104</speed>
  <fix>3d</fix>
</trkpt>
<trkpt lat="-27.2745708" lon="151.2893675">
  <ele>367.0</ele>
  <time>2026-09-01T19:54:08Z</time>
  <course>129.85</course>
  <speed>0.09</speed>
  <fix>3d</fix>
</trkpt>
<trkpt lat="-27.2745709" lon="151.289368">
  <ele>366.5</ele>
  <time>2026-09-01T19:54:08Z</time>
  <course>265.78</course>
  <speed>0.09848857801796104</speed>
  <fix>3d</fix>
</trkpt>
<trkpt lat="-27.2745709" lon="151.2893676">
  <ele>366.71</ele>
  <time>2026-09-01T19:54:08Z</time>
  <course>129.64</course>
  <speed>0.08</speed>
  <fix>3d</fix>
</trkpt>
<trkpt lat="-27.2745709" lon="151.2893681">
  <ele>366.35</ele>
  <time>2026-09-01T19:54:08Z</time>
  <course>247.43</course>
  <speed>0.09848857801796104</speed>
  <fix>3d</fix>
</trkpt>
<trkpt lat="-27.2745709" lon="151.2893676">
  <ele>366.71</ele>
  <time>2026-09-01T19:54:08Z</time>
  <course>129.64</course>
  <speed>0.08</speed>
  <fix>3d</fix>
</trkpt>
<trkpt lat="-27.274571" lon="151.2893681">
  <ele>366.2</ele>
  <time>2026-09-01T19:54:08Z</time>
  <course>214.04</course>
  <speed>0.09848857801796104</speed>
  <fix>3d</fix>
</trkpt>
<trkpt lat="-27.274571" lon="151.2893677">
  <ele>366.41</ele>
  <time>2026-09-01T19:54:08Z</time>
  <course>129.1</course>
  <speed>0.08</speed>
  <fix>3d</fix>
</trkpt>
<trkpt lat="-27.274571" lon="151.2893682">
  <ele>366.05</ele>
  <time>2026-09-01T19:54:08Z</time>
  <course>253.33</course>
  <speed>0.08944271909999159</speed>
  <fix>3d</fix>
</trkpt>
<trkpt lat="-27.274571" lon="151.2893677">
  <ele>366.41</ele>
  <time>2026-09-01T19:54:08Z</time>
  <course>129.1</course>
  <speed>0.08</speed>
  <fix>3d</fix>
</trkpt>
<trkpt lat="-27.2745711" lon="151.2893682">
  <ele>365.9</ele>
  <time>2026-09-01T19:54:08Z</time>
  <course>235.71</course>
  <speed>0.08944271909999159</speed>
  <fix>3d</fix>
</trkpt>
<trkpt lat="-27.2745711" lon="151.2893679">
  <ele>366.11</ele>
  <time>2026-09-01T19:54:08Z</time>
  <course>128.86</course>
  <speed>0.07</speed>
  <fix>3d</fix>
</trkpt>
<trkpt lat="-27.2745711" lon="151.2893683">
  <ele>365.75</ele>
  <time>2026-09-01T19:54:08Z</time>
  <course>239.44</course>
  <speed>0.0854400374531753</speed>
  <fix>3d</fix>
</trkpt>
<trkpt lat="-27.2745711" lon="151.2893679">
  <ele>366.11</ele>
  <time>2026-09-01T19:54:08Z</time>
  <course>128.86</course>
  <speed>0.07</speed>
  <fix>3d</fix>
</trkpt>
<trkpt lat="-27.2745711" lon="151.2893683">
  <ele>365.6</ele>
  <time>2026-09-01T19:54:08Z</time>
  <course>263.09</course>
  <speed>0.0854400374531753</speed>
  <fix>3d</fix>
</trkpt>
<trkpt lat="-27.2745711" lon="151.289368">
  <ele>365.82</ele>
  <time>2026-09-01T19:54:08Z</time>
  <course>127.88</course>
  <speed>0.07</speed>
  <fix>3d</fix>
</trkpt>
<trkpt lat="-27.2745712" lon="151.2893684">
  <ele>365.45</ele>
  <time>2026-09-01T19:54:08Z</time>
  <course>248.68</course>
  <speed>0.08062257748298549</speed>
  <fix>3d</fix>
</trkpt>
<trkpt lat="-27.2745711" lon="151.289368">
  <ele>365.82</ele>
  <time>2026-09-01T19:54:08Z</time>
  <course>127.88</course>
  <speed>0.07</speed>
  <fix>3d</fix>
</trkpt>
<trkpt lat="-27.2745712" lon="151.2893684">
  <ele>365.3</ele>
  <time>2026-09-01T19:54:08Z</time>
  <course>241.99</course>
  <speed>0.08062257748298549</speed>
  <fix>3d</fix>
</trkpt>
<trkpt lat="-27.2745712" lon="151.2893681">
  <ele>365.52</ele>
  <time>2026-09-01T19:54:08Z</time>
  <course>129.7</course>
  <speed>0.06</speed>
  <fix>3d</fix>
</trkpt>
<trkpt lat="-27.2745713" lon="151.2893685">
  <ele>365.15</ele>
  <time>2026-09-01T19:54:08Z</time>
  <course>249.14</course>
  <speed>0.08062257748298549</speed>
  <fix>3d</fix>
</trkpt>
<trkpt lat="-27.2745712" lon="151.2893681">
  <ele>365.52</ele>
  <time>2026-09-01T19:54:08Z</time>
  <course>129.7</course>
  <speed>0.06</speed>
  <fix>3d</fix>
</trkpt>
<trkpt lat="-27.2745713" lon="151.2893685">
  <ele>365.01</ele>
  <time>2026-09-01T19:54:08Z</time>
  <course>246.39</course>
  <speed>0.08062257748298549</speed>
  <fix>3d</fix>
</trkpt>
<trkpt lat="-27.2745713" lon="151.2893682">
  <ele>365.22</ele>
  <time>2026-09-01T19:54:08Z</time>
  <course>133.45</course>
  <speed>0.06</speed>
  <fix>3d</fix>
</trkpt>
<trkpt lat="-27.2745713" lon="151.2893686">
  <ele>364.86</ele>
  <time>2026-09-01T19:54:08Z</time>
  <course>247.26</course>
  <speed>0.08062257748298549</speed>
  <fix>3d</fix>
</trkpt>
<trkpt lat="-27.2745713" lon="151.2893682">
  <ele>365.22</ele>
  <time>2026-09-01T19:54:08Z</time>
  <course>133.45</course>
  <speed>0.06</speed>
  <fix>3d</fix>
</trkpt>
<trkpt lat="-27.2745714" lon="151.2893686">
  <ele>364.71</ele>
  <time>2026-09-01T19:54:08Z</time>
  <course>247.69</course>
  <speed>0.08062257748298549</speed>
  <fix>3d</fix>
</trkpt>
<trkpt lat="-27.2745714" lon="151.2893683">
  <ele>364.91</ele>
  <time>2026-09-01T19:54:08Z</time>
  <course>134.34</course>
  <speed>0.06</speed>
  <fix>3d</fix>
</trkpt>
<trkpt lat="-27.2745714" lon="151.2893687">
  <ele>364.56</ele>
  <time>2026-09-01T19:54:08Z</time>
  <course>247.99</course>
  <speed>0.08062257748298549</speed>
  <fix>3d</fix>
</trkpt>
<trkpt lat="-27.2745714" lon="151.2893683">
  <ele>364.91</ele>
  <time>2026-09-01T19:54:08Z</time>
  <course>134.34</course>
  <speed>0.06</speed>
  <fix>3d</fix>
</trkpt>
<trkpt lat="-27.2745715" lon="151.2893687">
  <ele>364.41</ele>
  <time>2026-09-01T19:54:08Z</time>
  <course>247.15</course>
  <speed>0.07615773105863909</speed>
  <fix>3d</fix>
</trkpt>
<trkpt lat="-27.2745715" lon="151.2893684">
  <ele>364.62</ele>
  <time>2026-09-01T19:54:08Z</time>
  <course>134.2</course>
  <speed>0.06</speed>
  <fix>3d</fix>
</trkpt>
<trkpt lat="-27.2745715" lon="151.2893688">
  <ele>364.26</ele>
  <time>2026-09-01T19:54:08Z</time>
  <course>243.55</course>
  <speed>0.07615773105863909</speed>
  <fix>3d</fix>
</trkpt>
<trkpt lat="-27.2745715" lon="151.2893684">
  <ele>364.62</ele>
  <time>2026-09-01T19:54:08Z</time>
  <course>134.2</course>
  <speed>0.06</speed>
  <fix>3d</fix>
</trkpt>
<trkpt lat="-27.2745715" lon="151.2893688">
  <ele>364.11</ele>
  <time>2026-09-01T19:54:08Z</time>
  <course>215.86</course>
  <speed>0.07615773105863909</speed>
  <fix>3d</fix>
</trkpt>
<trkpt lat="-27.2745715" lon="151.2893685">
  <ele>364.32</ele>
  <time>2026-09-01T19:54:08Z</time>
  <course>132.76</course>
  <speed>0.06</speed>
  <fix>3d</fix>
</trkpt>
<trkpt lat="-27.2745716" lon="151.2893688">
  <ele>363.96</ele>
  <time>2026-09-01T19:54:08Z</time>
  <course>261.17</course>
  <speed>0.05099019513592785</speed>
  <fix>3d</fix>
</trkpt>
<trkpt lat="-27.2745715" lon="151.2893685">
  <ele>364.32</ele>
  <time>2026-09-01T19:54:08Z</time>
  <course>132.76</course>
  <speed>0.06</speed>
  <fix>3d</fix>
</trkpt>
<trkpt lat="-27.2745716" lon="151.2893689">
  <ele>363.81</ele>
  <time>2026-09-01T19:54:08Z</time>
  <course>269.82</course>
  <speed>0.05099019513592785</speed>
  <fix>3d</fix>
</trkpt>
<trkpt lat="-27.2745716" lon="151.2893686">
  <ele>364.02</ele>
  <time>2026-09-01T19:54:08Z</time>
  <course>129.89</course>
  <speed>0.04</speed>
  <fix>3d</fix>
</trkpt>
<trkpt lat="-27.2745716" lon="151.2893689">
  <ele>363.66</ele>
  <time>2026-09-01T19:54:08Z</time>
  <course>245.51</course>
  <speed>0.03</speed>
  <fix>3d</fix>
</trkpt>
<trkpt lat="-27.2745716" lon="151.2893686">
  <ele>364.02</ele>
  <time>2026-09-01T19:54:08Z</time>
  <course>129.89</course>
  <speed>0.04</speed>
  <fix>3d</fix>
</trkpt>
<trkpt lat="-27.2745716" lon="151.2893689">
  <ele>363.51</ele>
  <time>2026-09-01T19:54:08Z</time>
  <course>252.4</course>
  <speed>0.022360679774997897</speed>
  <fix>3d</fix>
</trkpt>
<trkpt lat="-27.2745717" lon="151.2893686">
  <ele>363.72</ele>
  <time>2026-09-01T19:54:08Z</time>
  <course>118.67</course>
  <speed>0.02</speed>
  <fix>3d</fix>
</trkpt>
<trkpt lat="-27.2745716" lon="151.2893689">
  <ele>363.36</ele>
  <time>2026-09-01T19:54:08Z</time>
  <course>255.97</course>
  <speed>0.03</speed>
  <fix>3d</fix>
</trkpt>
<trkpt lat="-27.2745717" lon="151.2893686">
  <ele>363.72</ele>
  <time>2026-09-01T19:54:08Z</time>
  <course>118.67</course>
  <speed>0.02</speed>
  <fix>3d</fix>
</trkpt>
<trkpt lat="-27.2745716" lon="151.2893688">
  <ele>363.21</ele>
  <time>2026-09-01T19:54:08Z</time>
  <course>254.71</course>
  <speed>0.04</speed>
  <fix>3d</fix>
</trkpt>
<trkpt lat="-27.2745717" lon="151.2893686">
  <ele>363.41</ele>
  <time>2026-09-01T19:54:08Z</time>
  <course>334.33</course>
  <speed>0.02</speed>
  <fix>3d</fix>
</trkpt>
<trkpt lat="-27.2745716" lon="151.2893688">
  <ele>363.06</ele>
  <time>2026-09-01T19:54:08Z</time>
  <course>250.82</course>
  <speed>0.05099019513592785</speed>
  <fix>3d</fix>
</trkpt>
<trkpt lat="-27.2745717" lon="151.2893686">
  <ele>363.41</ele>
  <time>2026-09-01T19:54:08Z</time>
  <course>334.33</course>
  <speed>0.02</speed>
  <fix>3d</fix>
</trkpt>
<trkpt lat="-27.2745715" lon="151.2893688">
  <ele>362.91</ele>
  <time>2026-09-01T19:54:08Z</time>
  <course>240.56</course>
  <speed>0.05099019513592785</speed>
  <fix>3d</fix>
</trkpt>
<trkpt lat="-27.2745717" lon="151.2893686">
  <ele>363.12</ele>
  <time>2026-09-01T19:54:08Z</time>
  <course>323.89</course>
  <speed>0.05</speed>
  <fix>3d</fix>
</trkpt>
<trkpt lat="-27.2745715" lon="151.2893688">
  <ele>362.76</ele>
  <time>2026-09-01T19:54:08Z</time>
  <course>245.71</course>
  <speed>0.06082762530298219</speed>
  <fix>3d</fix>
</trkpt>
<trkpt lat="-27.2745717" lon="151.2893686">
  <ele>363.12</ele>
  <time>2026-09-01T19:54:08Z</time>
  <course>323.89</course>
  <speed>0.05</speed>
  <fix>3d</fix>
</trkpt>
<trkpt lat="-27.2745714" lon="151.2893688">
  <ele>362.61</ele>
  <time>2026-09-01T19:54:08Z</time>
  <course>263.78</course>
  <speed>0.0632455532033676</speed>
  <fix>3d</fix>
</trkpt>
<trkpt lat="-27.2745716" lon="151.2893686">
  <ele>362.82</ele>
  <time>2026-09-01T19:54:08Z</time>
  <course>324.37</course>
  <speed>0.07</speed>
  <fix>3d</fix>
</trkpt>
<trkpt lat="-27.2745714" lon="151.2893687">
  <ele>362.46</ele>
  <time>2026-09-01T19:54:08Z</time>
  <course>243.18</course>
  <speed>0.0632455532033676</speed>
  <fix>3d</fix>
</trkpt>
<trkpt lat="-27.2745716" lon="151.2893686">
  <ele>362.82</ele>
  <time>2026-09-01T19:54:08Z</time>
  <course>324.37</course>
  <speed>0.07</speed>
  <fix>3d</fix>
</trkpt>
<trkpt lat="-27.2745713" lon="151.2893687">
  <ele>362.31</ele>
  <time>2026-09-01T19:54:08Z</time>
  <course>238.96</course>
  <speed>0.0632455532033676</speed>
  <fix>3d</fix>
</trkpt>
<trkpt lat="-27.2745715" lon="151.2893685">
  <ele>362.52</ele>
  <time>2026-09-01T19:54:08Z</time>
  <course>322.78</course>
  <speed>0.08</speed>
  <fix>3d</fix>
</trkpt>
<trkpt lat="-27.2745713" lon="151.2893686">
  <ele>362.15</ele>
  <time>2026-09-01T19:54:08Z</time>
  <course>242.33</course>
  <speed>0.0632455532033676</speed>
  <fix>3d</fix>
</trkpt>
<trkpt lat="-27.2745715" lon="151.2893685">
  <ele>362.52</ele>
  <time>2026-09-01T19:54:08Z</time>
  <course>322.78</course>
  <speed>0.08</speed>
  <fix>3d</fix>
</trkpt>
<trkpt lat="-27.2745712" lon="151.2893686">
  <ele>362.0</ele>
  <time>2026-09-01T19:54:08Z</time>
  <course>238.13</course>
  <speed>0.053851648071345036</speed>
  <fix>3d</fix>
</trkpt>
<trkpt lat="-27.2745713" lon="151.2893684">
  <ele>362.22</ele>
  <time>2026-09-01T19:54:08Z</time>
  <course>318.86</course>
  <speed>0.08</speed>
  <fix>3d</fix>
</trkpt>
<trkpt lat="-27.2745712" lon="151.2893685">
  <ele>361.85</ele>
  <time>2026-09-01T19:54:08Z</time>
  <course>224.84</course>
  <speed>0.053851648071345036</speed>
  <fix>3d</fix>
</trkpt>
<trkpt lat="-27.2745713" lon="151.2893684">
  <ele>362.22</ele>
  <time>2026-09-01T19:54:08Z</time>
  <course>318.86</course>
  <speed>0.08</speed>
  <fix>3d</fix>
</trkpt>
<trkpt lat="-27.2745712" lon="151.2893685">
  <ele>361.7</ele>
  <time>2026-09-01T19:54:08Z</time>
  <course>215.43</course>
  <speed>0.05830951894845301</speed>
  <fix>3d</fix>
</trkpt>
<trkpt lat="-27.2745712" lon="151.2893683">
  <ele>361.91</ele>
  <time>2026-09-01T19:54:08Z</time>
  <course>314.95</course>
  <speed>0.08</speed>
  <fix>3d</fix>
</trkpt>
<trkpt lat="-27.2745711" lon="151.2893684">
  <ele>361.55</ele>
  <time>2026-09-01T19:54:08Z</time>
  <course>257.27</course>
  <speed>0.05</speed>
  <fix>3d</fix>
</trkpt>
<trkpt lat="-27.2745712" lon="151.2893683">
  <ele>361.91</ele>
  <time>2026-09-01T19:54:08Z</time>
  <course>314.95</course>
  <speed>0.08</speed>
  <fix>3d</fix>
</trkpt>
<trkpt lat="-27.2745711" lon="151.2893683">
  <ele>361.4</ele>
  <time>2026-09-01T19:54:08Z</time>
  <course>245.23</course>
  <speed>0.05</speed>
  <fix>3d</fix>
</trkpt>
<trkpt lat="-27.2745711" lon="151.2893682">
  <ele>361.62</ele>
  <time>2026-09-01T19:54:08Z</time>
  <course>310.21</course>
  <speed>0.08</speed>
  <fix>3d</fix>
</trkpt>
<trkpt lat="-27.274571" lon="151.2893683">
  <ele>361.25</ele>
  <time>2026-09-01T19:54:08Z</time>
  <course>233.49</course>
  <speed>0.05</speed>
  <fix>3d</fix>
</trkpt>
<trkpt lat="-27.2745711" lon="151.2893682">
  <ele>361.62</ele>
  <time>2026-09-01T19:54:08Z</time>
  <course>310.21</course>
  <speed>0.08</speed>
  <fix>3d</fix>
</trkpt>
<trkpt lat="-27.274571" lon="151.2893682">
  <ele>361.1</ele>
  <time>2026-09-01T19:54:08Z</time>
  <course>240.96</course>
  <speed>0.05</speed>
  <fix>3d</fix>
</trkpt>
<trkpt lat="-27.274571" lon="151.289368">
  <ele>361.31</ele>
  <time>2026-09-01T19:54:08Z</time>
  <course>307.2</course>
  <speed>0.08</speed>
  <fix>3d</fix>
</trkpt>
<trkpt lat="-27.2745709" lon="151.2893681">
  <ele>360.95</ele>
  <time>2026-09-01T19:54:08Z</time>
  <course>239.46</course>
  <speed>0.05</speed>
  <fix>3d</fix>
</trkpt>
<trkpt lat="-27.274571" lon="151.289368">
  <ele>361.31</ele>
  <time>2026-09-01T19:54:08Z</time>
  <course>307.2</course>
  <speed>0.08</speed>
  <fix>3d</fix>
</trkpt>
<trkpt lat="-27.2745709" lon="151.2893681">
  <ele>360.8</ele>
  <time>2026-09-01T19:54:08Z</time>
  <course>239.71</course>
  <speed>0.05</speed>
  <fix>3d</fix>
</trkpt>
<trkpt lat="-27.2745709" lon="151.2893679">
  <ele>361.01</ele>
  <time>2026-09-01T19:54:08Z</time>
  <course>306.29</course>
  <speed>0.08</speed>
  <fix>3d</fix>
</trkpt>
<trkpt lat="-27.2745708" lon="151.289368">
  <ele>360.65</ele>
  <time>2026-09-01T19:54:08Z</time>
  <course>239.06</course>
  <speed>0.05</speed>
  <fix>3d</fix>
</trkpt>
<trkpt lat="-27.2745709" lon="151.2893679">
  <ele>361.01</ele>
  <time>2026-09-01T19:54:08Z</time>
  <course>306.29</course>
  <speed>0.08</speed>
  <fix>3d</fix>
</trkpt>
<trkpt lat="-27.2745708" lon="151.2893679">
  <ele>360.5</ele>
  <time>2026-09-01T19:54:08Z</time>
  <course>237.99</course>
  <speed>0.05830951894845301</speed>
  <fix>3d</fix>
</trkpt>
<trkpt lat="-27.2745708" lon="151.2893677">
  <ele>360.71</ele>
  <time>2026-09-01T19:54:08Z</time>
  <course>306.78</course>
  <speed>0.09</speed>
  <fix>3d</fix>
</trkpt>
<trkpt lat="-27.2745707" lon="151.2893679">
  <ele>360.35</ele>
  <time>2026-09-01T19:54:08Z</time>
  <course>237.19</course>
  <speed>0.05830951894845301</speed>
  <fix>3d</fix>
</trkpt>
<trkpt lat="-27.2745708" lon="151.2893677">
  <ele>360.71</ele>
  <time>2026-09-01T19:54:08Z</time>
  <course>306.78</course>
  <speed>0.09</speed>
  <fix>3d</fix>
</trkpt>
<trkpt lat="-27.2745707" lon="151.2893678">
  <ele>360.2</ele>
  <time>2026-09-01T19:54:08Z</time>
  <course>237.8</course>
  <speed>0.05830951894845301</speed>
  <fix>3d</fix>
</trkpt>
<trkpt lat="-27.2745707" lon="151.2893676">
  <ele>360.41</ele>
  <time>2026-09-01T19:54:08Z</time>
  <course>307.91</course>
  <speed>0.08</speed>
  <fix>3d</fix>
</trkpt>
<trkpt lat="-27.2745707" lon="151.2893678">
  <ele>360.05</ele>
  <time>2026-09-01T19:54:08Z</time>
  <course>249.71</course>
  <speed>0.053851648071345036</speed>
  <fix>3d</fix>
</trkpt>
<trkpt lat="-27.2745707" lon="151.2893676">
  <ele>360.41</ele>
  <time>2026-09-01T19:54:08Z</time>
  <course>307.91</course>
  <speed>0.08</speed>
  <fix>3d</fix>
</trkpt>
<trkpt lat="-27.2745706" lon="151.2893677">
  <ele>359.9</ele>
  <time>2026-09-01T19:54:08Z</time>
  <course>237.91</course>
  <speed>0.044721359549995794</speed>
  <fix>3d</fix>
</trkpt>
<trkpt lat="-27.2745706" lon="151.2893675">
  <ele>360.11</ele>
  <time>2026-09-01T19:54:08Z</time>
  <course>309.24</course>
  <speed>0.08</speed>
  <fix>3d</fix>
</trkpt>
<trkpt lat="-27.2745706" lon="151.2893676">
  <ele>359.75</ele>
  <time>2026-09-01T19:54:08Z</time>
  <course>232.84</course>
  <speed>0.044721359549995794</speed>
  <fix>3d</fix>
</trkpt>
<trkpt lat="-27.2745706" lon="151.2893675">
  <ele>360.11</ele>
  <time>2026-09-01T19:54:08Z</time>
  <course>309.24</course>
  <speed>0.08</speed>
  <fix>3d</fix>
</trkpt>
<trkpt lat="-27.2745705" lon="151.2893676">
  <ele>359.6</ele>
  <time>2026-09-01T19:54:08Z</time>
  <course>238.41</course>
  <speed>0.044721359549995794</speed>
  <fix>3d</fix>
</trkpt>
<trkpt lat="-27.2745705" lon="151.2893673">
  <ele>359.81</ele>
  <time>2026-09-01T19:54:08Z</time>
  <course>309.54</course>
  <speed>0.08</speed>
  <fix>3d</fix>
</trkpt>
<trkpt lat="-27.2745705" lon="151.2893675">
  <ele>359.45</ele>
  <time>2026-09-01T19:54:08Z</time>
  <course>269.07</course>
  <speed>0.044721359549995794</speed>
  <fix>3d</fix>
</trkpt>
<trkpt lat="-27.2745705" lon="151.2893673">
  <ele>359.81</ele>
  <time>2026-09-01T19:54:08Z</time>
  <course>309.54</course>
  <speed>0.08</speed>
  <fix>3d</fix>
</trkpt>
<trkpt lat="-27.2745704" lon="151.2893675">
  <ele>359.3</ele>
  <time>2026-09-01T19:54:08Z</time>
  <course>207.22</course>
  <speed>0.044721359549995794</speed>
  <fix>3d</fix>
</trkpt>
<trkpt lat="-27.2745705" lon="151.2893672">
  <ele>359.51</ele>
  <time>2026-09-01T19:54:08Z</time>
  <course>307.29</course>
  <speed>0.07</speed>
  <fix>3d</fix>
</trkpt>
<trkpt lat="-27.2745704" lon="151.2893674">
  <ele>359.15</ele>
  <time>2026-09-01T19:54:08Z</time>
  <course>214.84</course>
  <speed>0.03605551275463989</speed>
  <fix>3d</fix>
</trkpt>
<trkpt lat="-27.2745705" lon="151.2893672">
  <ele>359.51</ele>
  <time>2026-09-01T19:54:08Z</time>
  <course>307.29</course>
  <speed>0.07</speed>
  <fix>3d</fix>
</trkpt>
<trkpt lat="-27.2745704" lon="151.2893674">
  <ele>359.0</ele>
  <time>2026-09-01T19:54:08Z</time>
  <course>249.73</course>
  <speed>0.03605551275463989</speed>
  <fix>3d</fix>
</trkpt>
<trkpt lat="-27.2745704" lon="151.2893671">
  <ele>359.2</ele>
  <time>2026-09-01T19:54:08Z</time>
  <course>306.02</course>
  <speed>0.07</speed>
  <fix>3d</fix>
</trkpt>
<trkpt lat="-27.2745703" lon="151.2893673">
  <ele>358.85</ele>
  <time>2026-09-01T19:54:08Z</time>
  <course>228.09</course>
  <speed>0.0316227766016838</speed>
  <fix>3d</fix>
</trkpt>
<trkpt lat="-27.2745704" lon="151.2893671">
  <ele>359.2</ele>
  <time>2026-09-01T19:54:08Z</time>
  <course>306.02</course>
  <speed>0.07</speed>
  <fix>3d</fix>
</trkpt>
<trkpt lat="-27.2745703" lon="151.2893672">
  <ele>358.7</ele>
  <time>2026-09-01T19:54:08Z</time>
  <course>231.7</course>
  <speed>0.03605551275463989</speed>
  <fix>3d</fix>
</trkpt>
<trkpt lat="-27.2745703" lon="151.2893669">
  <ele>358.9</ele>
  <time>2026-09-01T19:54:08Z</time>
  <course>306.09</course>
  <speed>0.07</speed>
  <fix>3d</fix>
</trkpt>
<trkpt lat="-27.2745703" lon="151.2893672">
  <ele>358.55</ele>
  <time>2026-09-01T19:54:08Z</time>
  <course>231.02</course>
  <speed>0.0316227766016838</speed>
  <fix>3d</fix>
</trkpt>
<trkpt lat="-27.2745703" lon="151.2893669">
  <ele>358.9</ele>
  <time>2026-09-01T19:54:08Z</time>
  <course>306.09</course>
  <speed>0.07</speed>
  <fix>3d</fix>
</trkpt>
<trkpt lat="-27.2745702" lon="151.2893671">
  <ele>358.4</ele>
  <time>2026-09-01T19:54:08Z</time>
  <course>230.59</course>
  <speed>0.0316227766016838</speed>
  <fix>3d</fix>
</trkpt>
<trkpt lat="-27.2745702" lon="151.2893668">
  <ele>358.6</ele>
  <time>2026-09-01T19:54:08Z</time>
  <course>305.18</course>
  <speed>0.07</speed>
  <fix>3d</fix>
</trkpt>
<trkpt lat="-27.2745702" lon="151.2893671">
  <ele>358.25</ele>
  <time>2026-09-01T19:54:08Z</time>
  <course>229.96</course>
  <speed>0.0316227766016838</speed>
  <fix>3d</fix>
</trkpt>
<trkpt lat="-27.2745702" lon="151.2893668">
  <ele>358.6</ele>
  <time>2026-09-01T19:54:08Z</time>
  <course>305.18</course>
  <speed>0.07</speed>
  <fix>3d</fix>
</trkpt>
<trkpt lat="-27.2745702" lon="151.289367">
  <ele>358.09</ele>
  <time>2026-09-01T19:54:08Z</time>
  <course>229.26</course>
  <speed>0.0316227766016838</speed>
  <fix>3d</fix>
</trkpt>
<trkpt lat="-27.2745702" lon="151.2893667">
  <ele>358.3</ele>
  <time>2026-09-01T19:54:08Z</time>
  <course>305.24</course>
  <speed>0.06</speed>
  <fix>3d</fix>
</trkpt>
<trkpt lat="-27.2745701" lon="151.289367">
  <ele>357.94</ele>
  <time>2026-09-01T19:54:08Z</time>
  <course>228.51</course>
  <speed>0.0316227766016838</speed>
  <fix>3d</fix>
</trkpt>
<trkpt lat="-27.2745702" lon="151.2893667">
  <ele>358.3</ele>
  <time>2026-09-01T19:54:08Z</time>
  <course>305.24</course>
  <speed>0.06</speed>
  <fix>3d</fix>
</trkpt>
<trkpt lat="-27.2745701" lon="151.2893669">
  <ele>357.79</ele>
  <time>2026-09-01T19:54:08Z</time>
  <course>227.77</course>
  <speed>0.0316227766016838</speed>
  <fix>3d</fix>
</trkpt>
<trkpt lat="-27.2745701" lon="151.2893666">
  <ele>358.0</ele>
  <time>2026-09-01T19:54:08Z</time>
  <course>306.01</course>
  <speed>0.06</speed>
  <fix>3d</fix>
</trkpt>
<trkpt lat="-27.2745701" lon="151.2893669">
  <ele>357.64</ele>
  <time>2026-09-01T19:54:08Z</time>
  <course>227.19</course>
  <speed>0.0316227766016838</speed>
  <fix>3d</fix>
</trkpt>
<trkpt lat="-27.2745701" lon="151.2893666">
  <ele>358.0</ele>
  <time>2026-09-01T19:54:08Z</time>
  <course>306.01</course>
  <speed>0.06</speed>
  <fix>3d</fix>
</trkpt>
<trkpt lat="-27.27457" lon="151.2893668">
  <ele>357.49</ele>
  <time>2026-09-01T19:54:08Z</time>
  <course>225.6</course>
  <speed>0.0316227766016838</speed>
  <fix>3d</fix>
</trkpt>
<trkpt lat="-27.27457" lon="151.2893665">
  <ele>357.7</ele>
  <time>2026-09-01T19:54:08Z</time>
  <course>307.2</course>
  <speed>0.06</speed>
  <fix>3d</fix>
</trkpt>
<trkpt lat="-27.27457" lon="151.2893668">
  <ele>357.33</ele>
  <time>2026-09-01T19:54:08Z</time>
  <course>222.23</course>
  <speed>0.03</speed>
  <fix>3d</fix>
</trkpt>
<trkpt lat="-27.27457" lon="151.2893665">
  <ele>357.7</ele>
  <time>2026-09-01T19:54:08Z</time>
  <course>307.2</course>
  <speed>0.06</speed>
  <fix>3d</fix>
</trkpt>
<trkpt lat="-27.27457" lon="151.2893667">
  <ele>357.18</ele>
  <time>2026-09-01T19:54:08Z</time>
  <course>216.97</course>
  <speed>0.03</speed>
  <fix>3d</fix>
</trkpt>
<trkpt lat="-27.2745699" lon="151.2893664">
  <ele>357.4</ele>
  <time>2026-09-01T19:54:08Z</time>
  <course>307.82</course>
  <speed>0.06</speed>
  <fix>3d</fix>
</trkpt>
<trkpt lat="-27.2745699" lon="151.2893667">
  <ele>357.04</ele>
  <time>2026-09-01T19:54:08Z</time>
  <course>180.98</course>
  <speed>0.03</speed>
  <fix>3d</fix>
</trkpt>
<trkpt lat="-27.2745699" lon="151.2893664">
  <ele>357.4</ele>
  <time>2026-09-01T19:54:08Z</time>
  <course>307.82</course>
  <speed>0.06</speed>
  <fix>3d</fix>
</trkpt>
<trkpt lat="-27.2745699" lon="151.2893666">
  <ele>356.89</ele>
  <time>2026-09-01T19:54:08Z</time>
  <course>243.78</course>
  <speed>0.03</speed>
  <fix>3d</fix>
</trkpt>
<trkpt lat="-27.2745699" lon="151.2893663">
  <ele>357.1</ele>
  <time>2026-09-01T19:54:08Z</time>
  <course>309.43</course>
  <speed>0.05</speed>
  <fix>3d</fix>
</trkpt>
<trkpt lat="-27.2745699" lon="151.2893666">
  <ele>356.74</ele>
  <time>2026-09-01T19:54:08Z</time>
  <course>248.82</course>
  <speed>0.02</speed>
  <fix>3d</fix>
</trkpt>
<trkpt lat="-27.2745699" lon="151.2893663">
  <ele>357.1</ele>
  <time>2026-09-01T19:54:08Z</time>
  <course>309.43</course>
  <speed>0.05</speed>
  <fix>3d</fix>
</trkpt>
<trkpt lat="-27.2745698" lon="151.2893666">
  <ele>356.59</ele>
  <time>2026-09-01T19:54:08Z</time>
  <course>208.8</course>
  <speed>0.02</speed>
  <fix>3d</fix>
</trkpt>
<trkpt lat="-27.2745698" lon="151.2893662">
  <ele>356.8</ele>
  <time>2026-09-01T19:54:08Z</time>
  <course>311.84</course>
  <speed>0.05</speed>
  <fix>3d</fix>
</trkpt>
<trkpt lat="-27.2745698" lon="151.2893665">
  <ele>356.44</ele>
  <time>2026-09-01T19:54:08Z</time>
  <course>223.18</course>
  <speed>0.02</speed>
  <fix>3d</fix>
</trkpt>
<trkpt lat="-27.2745698" lon="151.2893662">
  <ele>356.8</ele>
  <time>2026-09-01T19:54:08Z</time>
  <course>311.84</course>
  <speed>0.05</speed>
  <fix>3d</fix>
</trkpt>
<trkpt lat="-27.2745698" lon="151.2893665">
  <ele>356.29</ele>
  <time>2026-09-01T19:54:08Z</time>
  <course>221.22</course>
  <speed>0.02</speed>
  <fix>3d</fix>
</trkpt>
<trkpt lat="-27.2745698" lon="151.2893661">
  <ele>356.51</ele>
  <time>2026-09-01T19:54:08Z</time>
  <course>311.57</course>
  <speed>0.04</speed>
  <fix>3d</fix>
</trkpt>
<trkpt lat="-27.2745698" lon="151.2893665">
  <ele>356.15</ele>
  <time>2026-09-01T19:54:08Z</time>
  <course>220.42</course>
  <speed>0.02</speed>
  <fix>3d</fix>
</trkpt>
<trkpt lat="-27.2745698" lon="151.2893661">
  <ele>356.51</ele>
  <time>2026-09-01T19:54:08Z</time>
  <course>311.57</course>
  <speed>0.04</speed>
  <fix>3d</fix>
</trkpt>
<trkpt lat="-27.2745698" lon="151.2893664">
  <ele>356.0</ele>
  <time>2026-09-01T19:54:08Z</time>
  <course>219.89</course>
  <speed>0.02</speed>
  <fix>3d</fix>
</trkpt>
<trkpt lat="-27.2745697" lon="151.2893661">
  <ele>356.21</ele>
  <time>2026-09-01T19:54:08Z</time>
  <course>309.14</course>
  <speed>0.04</speed>
  <fix>3d</fix>
</trkpt>
<trkpt lat="-27.2745697" lon="151.2893664">
  <ele>355.85</ele>
  <time>2026-09-01T19:54:08Z</time>
  <course>219.16</course>
  <speed>0.02</speed>
  <fix>3d</fix>
</trkpt>
<trkpt lat="-27.2745697" lon="151.2893661">
  <ele>356.21</ele>
  <time>2026-09-01T19:54:08Z</time>
  <course>309.14</course>
  <speed>0.04</speed>
  <fix>3d</fix>
</trkpt>
<trkpt lat="-27.2745697" lon="151.2893664">
  <ele>355.7</ele>
  <time>2026-09-01T19:54:08Z</time>
  <course>218.63</course>
  <speed>0.01</speed>
  <fix>3d</fix>
</trkpt>
<trkpt lat="-27.2745697" lon="151.289366">
  <ele>355.91</ele>
  <time>2026-09-01T19:54:08Z</time>
  <course>306.88</course>
  <speed>0.04</speed>
  <fix>3d</fix>
</trkpt>
<trkpt lat="-27.2745697" lon="151.2893663">
  <ele>355.55</ele>
  <time>2026-09-01T19:54:08Z</time>
  <course>217.71</course>
  <speed>0.01</speed>
  <fix>3d</fix>
</trkpt>
<trkpt lat="-27.2745697" lon="151.289366">
  <ele>355.91</ele>
  <time>2026-09-01T19:54:08Z</time>
  <course>306.88</course>
  <speed>0.04</speed>
  <fix>3d</fix>
</trkpt>
<trkpt lat="-27.2745697" lon="151.2893663">
  <ele>355.4</ele>
  <time>2026-09-01T19:54:08Z</time>
  <course>216.86</course>
  <speed>0.01</speed>
  <fix>3d</fix>
</trkpt>
<trkpt lat="-27.2745696" lon="151.2893659">
  <ele>355.61</ele>
  <time>2026-09-01T19:54:08Z</time>
  <course>306.62</course>
  <speed>0.04</speed>
  <fix>3d</fix>
</trkpt>
<trkpt lat="-27.2745697" lon="151.2893663">
  <ele>355.25</ele>
  <time>2026-09-01T19:54:08Z</time>
  <course>216.09</course>
  <speed>0.01</speed>
  <fix>3d</fix>
</trkpt>
<trkpt lat="-27.2745696" lon="151.2893659">
  <ele>355.61</ele>
  <time>2026-09-01T19:54:08Z</time>
  <course>306.62</course>
  <speed>0.04</speed>
  <fix>3d</fix>
</trkpt>
<trkpt lat="-27.2745696" lon="151.2893662">
  <ele>355.1</ele>
  <time>2026-09-01T19:54:08Z</time>
  <course>215.03</course>
  <speed>0.01414213562373095</speed>
  <fix>3d</fix>
</trkpt>
<trkpt lat="-27.2745696" lon="151.2893659">
  <ele>355.31</ele>
  <time>2026-09-01T19:54:08Z</time>
  <course>308.99</course>
  <speed>0.03</speed>
  <fix>3d</fix>
</trkpt>
<trkpt lat="-27.2745696" lon="151.2893662">
  <ele>354.95</ele>
  <time>2026-09-01T19:54:08Z</time>
  <course>212.97</course>
  <speed>0.01414213562373095</speed>
  <fix>3d</fix>
</trkpt>
<trkpt lat="-27.2745696" lon="151.2893659">
  <ele>355.31</ele>
  <time>2026-09-01T19:54:08Z</time>
  <course>308.99</course>
  <speed>0.03</speed>
  <fix>3d</fix>
</trkpt>
<trkpt lat="-27.2745696" lon="151.2893662">
  <ele>354.8</ele>
  <time>2026-09-01T19:54:08Z</time>
  <course>215.18</course>
  <speed>0.01414213562373095</speed>
  <fix>3d</fix>
</trkpt>
<trkpt lat="-27.2745695" lon="151.2893658">
  <ele>355.01</ele>
  <time>2026-09-01T19:54:08Z</time>
  <course>314.15</course>
  <speed>0.03</speed>
  <fix>3d</fix>
</trkpt>
<trkpt lat="-27.2745696" lon="151.2893662">
  <ele>354.65</ele>
  <time>2026-09-01T19:54:08Z</time>
  <course>182.58</course>
  <speed>0.022360679774997897</speed>
  <fix>3d</fix>
</trkpt>
<trkpt lat="-27.2745695" lon="151.2893658">
  <ele>355.01</ele>
  <time>2026-09-01T19:54:08Z</time>
  <course>314.15</course>
  <speed>0.03</speed>
  <fix>3d</fix>
</trkpt>
<trkpt lat="-27.2745696" lon="151.2893662">
  <ele>354.49</ele>
  <time>2026-09-01T19:54:08Z</time>
  <course>205.33</course>
  <speed>0.03</speed>
  <fix>3d</fix>
</trkpt>
<trkpt lat="-27.2745695" lon="151.2893657">
  <ele>354.71</ele>
  <time>2026-09-01T19:54:08Z</time>
  <course>322.86</course>
  <speed>0.02</speed>
  <fix>3d</fix>
</trkpt>
<trkpt lat="-27.2745695" lon="151.2893662">
  <ele>354.34</ele>
  <time>2026-09-01T19:54:08Z</time>
  <course>236.97</course>
  <speed>0.04</speed>
  <fix>3d</fix>
</trkpt>
<trkpt lat="-27.2745695" lon="151.2893657">
  <ele>354.71</ele>
  <time>2026-09-01T19:54:08Z</time>
  <course>322.86</course>
  <speed>0.02</speed>
  <fix>3d</fix>
</trkpt>
<trkpt lat="-27.2745695" lon="151.2893662">
  <ele>354.19</ele>
  <time>2026-09-01T19:54:08Z</time>
  <course>205.71</course>
  <speed>0.05</speed>
  <fix>3d</fix>
</trkpt>
<trkpt lat="-27.2745695" lon="151.2893657">
  <ele>354.41</ele>
  <time>2026-09-01T19:54:08Z</time>
  <course>1.62</course>
  <speed>0.01</speed>
  <fix>3d</fix>
</trkpt>
<trkpt lat="-27.2745696" lon="151.2893662">
  <ele>354.03</ele>
  <time>2026-09-01T19:54:08Z</time>
  <course>211.08</course>
  <speed>0.06082762530298219</speed>
  <fix>3d</fix>
</trkpt>
<trkpt lat="-27.2745695" lon="151.2893657">
  <ele>354.41</ele>
  <time>2026-09-01T19:54:08Z</time>
  <course>1.62</course>
  <speed>0.01</speed>
  <fix>3d</fix>
</trkpt>
<trkpt lat="-27.2745696" lon="151.2893662">
  <ele>353.88</ele>
  <time>2026-09-01T19:54:08Z</time>
  <course>219.7</course>
  <speed>0.07615773105863909</speed>
  <fix>3d</fix>
</trkpt>
<trkpt lat="-27.2745695" lon="151.2893657">
  <ele>354.11</ele>
  <time>2026-09-01T19:54:08Z</time>
  <course>106.38</course>
  <speed>0.02</speed>
  <fix>3d</fix>
</trkpt>
<trkpt lat="-27.2745696" lon="151.2893662">
  <ele>353.73</ele>
  <time>2026-09-01T19:54:08Z</time>
  <course>220.9</course>
  <speed>0.09486832980505139</speed>
  <fix>3d</fix>
</trkpt>
<trkpt lat="-27.2745695" lon="151.2893657">
  <ele>354.11</ele>
  <time>2026-09-01T19:54:08Z</time>
  <course>106.38</course>
  <speed>0.02</speed>
  <fix>3d</fix>
</trkpt>
<trkpt lat="-27.2745696" lon="151.2893662">
  <ele>353.58</ele>
  <time>2026-09-01T19:54:08Z</time>
  <course>217.53</course>
  <speed>0.09848857801796104</speed>
  <fix>3d</fix>
</trkpt>
<trkpt lat="-27.2745695" lon="151.2893657">
  <ele>353.8</ele>
  <time>2026-09-01T19:54:08Z</time>
  <course>120.8</course>
  <speed>0.05</speed>
  <fix>3d</fix>
</trkpt>
<trkpt lat="-27.2745696" lon="151.2893663">
  <ele>353.42</ele>
  <time>2026-09-01T19:54:08Z</time>
  <course>221.14</course>
  <speed>0.1118033988749895</speed>
  <fix>3d</fix>
</trkpt>
<trkpt lat="-27.2745695" lon="151.2893657">
  <ele>353.8</ele>
  <time>2026-09-01T19:54:08Z</time>
  <course>120.8</course>
  <speed>0.05</speed>
  <fix>3d</fix>
</trkpt>
<trkpt lat="-27.2745696" lon="151.2893663">
  <ele>353.27</ele>
  <time>2026-09-01T19:54:08Z</time>
  <course>221.13</course>
  <speed>0.11661903789690602</speed>
  <fix>3d</fix>
</trkpt>
<trkpt lat="-27.2745695" lon="151.2893659">
  <ele>353.5</ele>
  <time>2026-09-01T19:54:08Z</time>
  <course>125.03</course>
  <speed>0.07</speed>
  <fix>3d</fix>
</trkpt>
<trkpt lat="-27.2745697" lon="151.2893664">
  <ele>353.12</ele>
  <time>2026-09-01T19:54:08Z</time>
  <course>221.91</course>
  <speed>0.12529964086141668</speed>
  <fix>3d</fix>
</trkpt>
<trkpt lat="-27.2745695" lon="151.2893659">
  <ele>353.5</ele>
  <time>2026-09-01T19:54:08Z</time>
  <course>125.03</course>
  <speed>0.07</speed>
  <fix>3d</fix>
</trkpt>
<trkpt lat="-27.2745697" lon="151.2893665">
  <ele>352.98</ele>
  <time>2026-09-01T19:54:08Z</time>
  <course>222.78</course>
  <speed>0.12529964086141668</speed>
  <fix>3d</fix>
</trkpt>
<trkpt lat="-27.2745695" lon="151.289366">
  <ele>353.2</ele>
  <time>2026-09-01T19:54:08Z</time>
  <course>127.4</course>
  <speed>0.09</speed>
  <fix>3d</fix>
</trkpt>
<trkpt lat="-27.2745698" lon="151.2893666">
  <ele>352.83</ele>
  <time>2026-09-01T19:54:08Z</time>
  <course>223.73</course>
  <speed>0.130384048104053</speed>
  <fix>3d</fix>
</trkpt>
<trkpt lat="-27.2745695" lon="151.289366">
  <ele>353.2</ele>
  <time>2026-09-01T19:54:08Z</time>
  <course>127.4</course>
  <speed>0.09</speed>
  <fix>3d</fix>
</trkpt>
<trkpt lat="-27.2745698" lon="151.2893667">
  <ele>352.68</ele>
  <time>2026-09-01T19:54:08Z</time>
  <course>224.92</course>
  <speed>0.130384048104053</speed>
  <fix>3d</fix>
</trkpt>
<trkpt lat="-27.2745696" lon="151.2893662">
  <ele>352.9</ele>
  <time>2026-09-01T19:54:08Z</time>
  <course>128.5</course>
  <speed>0.1</speed>
  <fix>3d</fix>
</trkpt>
<trkpt lat="-27.2745699" lon="151.2893667">
  <ele>352.55</ele>
  <time>2026-09-01T19:54:08Z</time>
  <course>226.2</course>
  <speed>0.130384048104053</speed>
  <fix>3d</fix>
</trkpt>
<trkpt lat="-27.2745696" lon="151.2893662">
  <ele>352.9</ele>
  <time>2026-09-01T19:54:08Z</time>
  <course>128.5</course>
  <speed>0.1</speed>
  <fix>3d</fix>
</trkpt>
<trkpt lat="-27.27457" lon="151.2893668">
  <ele>352.41</ele>
  <time>2026-09-01T19:54:08Z</time>
  <course>218.09</course>
  <speed>0.130384048104053</speed>
  <fix>3d</fix>
</trkpt>
<trkpt lat="-27.2745698" lon="151.2893664">
  <ele>352.62</ele>
  <time>2026-09-01T19:54:08Z</time>
  <course>130.51</course>
  <speed>0.11</speed>
  <fix>3d</fix>
</trkpt>
<trkpt lat="-27.27457" lon="151.2893669">
  <ele>352.27</ele>
  <time>2026-09-01T19:54:08Z</time>
  <course>256.52</course>
  <speed>0.12206555615733702</speed>
  <fix>3d</fix>
</trkpt>
<trkpt lat="-27.2745698" lon="151.2893664">
  <ele>352.62</ele>
  <time>2026-09-01T19:54:08Z</time>
  <course>130.51</course>
  <speed>0.11</speed>
  <fix>3d</fix>
</trkpt>
<trkpt lat="-27.2745701" lon="151.289367">
  <ele>352.13</ele>
  <time>2026-09-01T19:54:08Z</time>
  <course>248.18</course>
  <speed>0.12806248474865697</speed>
  <fix>3d</fix>
</trkpt>
<trkpt lat="-27.2745699" lon="151.2893665">
  <ele>352.34</ele>
  <time>2026-09-01T19:54:08Z</time>
  <course>134.35</course>
  <speed>0.11</speed>
  <fix>3d</fix>
</trkpt>
<trkpt lat="-27.2745701" lon="151.289367">
  <ele>352.0</ele>
  <time>2026-09-01T19:54:08Z</time>
  <course>202.51</course>
  <speed>0.12041594578792296</speed>
  <fix>3d</fix>
</trkpt>
<trkpt lat="-27.2745699" lon="151.2893665">
  <ele>352.34</ele>
  <time>2026-09-01T19:54:08Z</time>
  <course>134.35</course>
  <speed>0.11</speed>
  <fix>3d</fix>
</trkpt>
<trkpt lat="-27.2745702" lon="151.2893671">
  <ele>351.87</ele>
  <time>2026-09-01T19:54:08Z</time>
  <course>236.71</course>
  <speed>0.1131370849898476</speed>
  <fix>3d</fix>
</trkpt>
<trkpt lat="-27.2745701" lon="151.2893666">
  <ele>352.07</ele>
  <time>2026-09-01T19:54:08Z</time>
  <course>140.76</course>
  <speed>0.1</speed>
  <fix>3d</fix>
</trkpt>
<trkpt lat="-27.2745703" lon="151.2893671">
  <ele>351.75</ele>
  <time>2026-09-01T19:54:08Z</time>
  <course>230.63</course>
  <speed>0.11401754250991379</speed>
  <fix>3d</fix>
</trkpt>
<trkpt lat="-27.2745701" lon="151.2893666">
  <ele>352.07</ele>
  <time>2026-09-01T19:54:08Z</time>
  <course>140.76</course>
  <speed>0.1</speed>
  <fix>3d</fix>
</trkpt>
<trkpt lat="-27.2745704" lon="151.2893671">
  <ele>351.63</ele>
  <time>2026-09-01T19:54:08Z</time>
  <course>233.16</course>
  <speed>0.10816653826391968</speed>
  <fix>3d</fix>
</trkpt>
<trkpt lat="-27.2745702" lon="151.2893668">
  <ele>351.81</ele>
  <time>2026-09-01T19:54:08Z</time>
  <course>149.84</course>
  <speed>0.1</speed>
  <fix>3d</fix>
</trkpt>
<trkpt lat="-27.2745704" lon="151.2893672">
  <ele>351.51</ele>
  <time>2026-09-01T19:54:08Z</time>
  <course>233.42</course>
  <speed>0.10295630140987001</speed>
  <fix>3d</fix>
</trkpt>
<trkpt lat="-27.2745702" lon="151.2893668">
  <ele>351.81</ele>
  <time>2026-09-01T19:54:08Z</time>
  <course>149.84</course>
  <speed>0.1</speed>
  <fix>3d</fix>
</trkpt>
<trkpt lat="-27.2745705" lon="151.2893672">
  <ele>351.39</ele>
  <time>2026-09-01T19:54:08Z</time>
  <course>233.67</course>
  <speed>0.10770329614269007</speed>
  <fix>3d</fix>
</trkpt>
<trkpt lat="-27.2745704" lon="151.2893669">
  <ele>351.56</ele>
  <time>2026-09-01T19:54:08Z</time>
  <course>160.95</course>
  <speed>0.1</speed>
  <fix>3d</fix>
</trkpt>
<trkpt lat="-27.2745706" lon="151.2893672">
  <ele>351.28</ele>
  <time>2026-09-01T19:54:08Z</time>
  <course>234.22</course>
  <speed>0.1044030650891055</speed>
  <fix>3d</fix>
</trkpt>
<trkpt lat="-27.2745704" lon="151.2893669">
  <ele>351.56</ele>
  <time>2026-09-01T19:54:08Z</time>
  <course>160.95</course>
  <speed>0.1</speed>
  <fix>3d</fix>
</trkpt>
<trkpt lat="-27.2745707" lon="151.2893672">
  <ele>351.16</ele>
  <time>2026-09-01T19:54:08Z</time>
  <course>237.38</course>
  <speed>0.1019803902718557</speed>
  <fix>3d</fix>
</trkpt>
<trkpt lat="-27.2745705" lon="151.2893669">
  <ele>351.32</ele>
  <time>2026-09-01T19:54:08Z</time>
  <course>172.61</course>
  <speed>0.1</speed>
  <fix>3d</fix>
</trkpt>
<trkpt lat="-27.2745708" lon="151.2893672">
  <ele>351.05</ele>
  <time>2026-09-01T19:54:08Z</time>
  <course>270.36</course>
  <speed>0.11045361017187261</speed>
  <fix>3d</fix>
</trkpt>
<trkpt lat="-27.2745705" lon="151.2893669">
  <ele>351.32</ele>
  <time>2026-09-01T19:54:08Z</time>
  <course>172.61</course>
  <speed>0.1</speed>
  <fix>3d</fix>
</trkpt>
<trkpt lat="-27.2745709" lon="151.2893671">
  <ele>350.94</ele>
  <time>2026-09-01T19:54:08Z</time>
  <course>238.92</course>
  <speed>0.11</speed>
  <fix>3d</fix>
</trkpt>
<trkpt lat="-27.2745708" lon="151.2893669">
  <ele>351.09</ele>
  <time>2026-09-01T19:54:08Z</time>
  <course>183.31</course>
  <speed>0.11</speed>
  <fix>3d</fix>
</trkpt>
<trkpt lat="-27.274571" lon="151.2893671">
  <ele>350.83</ele>
  <time>2026-09-01T19:54:08Z</time>
  <course>232.7</course>
  <speed>0.12</speed>
  <fix>3d</fix>
</trkpt>
<trkpt lat="-27.2745708" lon="151.2893669">
  <ele>351.09</ele>
  <time>2026-09-01T19:54:08Z</time>
  <course>183.31</course>
  <speed>0.11</speed>
  <fix>3d</fix>
</trkpt>
<trkpt lat="-27.2745711" lon="151.2893671">
  <ele>350.73</ele>
  <time>2026-09-01T19:54:08Z</time>
  <course>234.96</course>
  <speed>0.12041594578792296</speed>
  <fix>3d</fix>
</trkpt>
<trkpt lat="-27.274571" lon="151.2893669">
  <ele>350.87</ele>
  <time>2026-09-01T19:54:08Z</time>
  <course>191.98</course>
  <speed>0.12</speed>
  <fix>3d</fix>
</trkpt>
<trkpt lat="-27.2745713" lon="151.2893671">
  <ele>350.62</ele>
  <time>2026-09-01T19:54:08Z</time>
  <course>232.32</course>
  <speed>0.13152946437965907</speed>
  <fix>3d</fix>
</trkpt>
<trkpt lat="-27.274571" lon="151.2893669">
  <ele>350.87</ele>
  <time>2026-09-01T19:54:08Z</time>
  <course>191.98</course>
  <speed>0.12</speed>
  <fix>3d</fix>
</trkpt>
<trkpt lat="-27.2745714" lon="151.2893671">
  <ele>350.52</ele>
  <time>2026-09-01T19:54:08Z</time>
  <course>216.13</course>
  <speed>0.13341664064126335</speed>
  <fix>3d</fix>
</trkpt>
<trkpt lat="-27.2745711" lon="151.2893669">
  <ele>350.65</ele>
  <time>2026-09-01T19:54:08Z</time>
  <course>199.03</course>
  <speed>0.13</speed>
  <fix>3d</fix>
</trkpt>
<trkpt lat="-27.2745715" lon="151.289367">
  <ele>350.42</ele>
  <time>2026-09-01T19:54:08Z</time>
  <course>187.63</course>
  <speed>0.13341664064126335</speed>
  <fix>3d</fix>
</trkpt>
<trkpt lat="-27.2745711" lon="151.2893669">
  <ele>350.65</ele>
  <time>2026-09-01T19:54:08Z</time>
  <course>199.03</course>
  <speed>0.13</speed>
  <fix>3d</fix>
</trkpt>
<trkpt lat="-27.2745716" lon="151.2893669">
  <ele>350.32</ele>
  <time>2026-09-01T19:54:08Z</time>
  <course>279.65</course>
  <speed>0.13601470508735444</speed>
  <fix>3d</fix>
</trkpt>
<trkpt lat="-27.2745714" lon="151.2893668">
  <ele>350.45</ele>
  <time>2026-09-01T19:54:08Z</time>
  <course>204.69</course>
  <speed>0.14</speed>
  <fix>3d</fix>
</trkpt>
<trkpt lat="-27.2745717" lon="151.2893669">
  <ele>350.22</ele>
  <time>2026-09-01T19:54:09Z</time>
  <course>248.67</course>
  <speed>0.14560219778561037</speed>
  <fix>3d</fix>
</trkpt>
<trkpt lat="-27.2745714" lon="151.2893668">
  <ele>350.45</ele>
  <time>2026-09-01T19:54:09Z</time>
  <course>204.69</course>
  <speed>0.14</speed>
  <fix>3d</fix>
</trkpt>
<trkpt lat="-27.2745719" lon="151.2893668">
  <ele>350.13</ele>
  <time>2026-09-01T19:54:09Z</time>
  <course>234.5</course>
  <speed>0.14866068747318506</speed>
  <fix>3d</fix>
</trkpt>
<trkpt lat="-27.2745717" lon="151.2893666">
  <ele>350.25</ele>
  <time>2026-09-01T19:54:09Z</time>
  <course>208.22</course>
  <speed>0.16</speed>
  <fix>3d</fix>
</trkpt>
<trkpt lat="-27.274572" lon="151.2893667">
  <ele>350.04</ele>
  <time>2026-09-01T19:54:09Z</time>
  <course>245.85</course>
  <speed>0.15231546211727817</speed>
  <fix>3d</fix>
</trkpt>
<trkpt lat="-27.2745717" lon="151.2893666">
  <ele>350.25</ele>
  <time>2026-09-01T19:54:09Z</time>
  <course>208.22</course>
  <speed>0.16</speed>
  <fix>3d</fix>
</trkpt>
<trkpt lat="-27.2745721" lon="151.2893666">
  <ele>349.95</ele>
  <time>2026-09-01T19:54:09Z</time>
  <course>250.08</course>
  <speed>0.15231546211727817</speed>
  <fix>3d</fix>
</trkpt>
<trkpt lat="-27.2745719" lon="151.2893665">
  <ele>350.05</ele>
  <time>2026-09-01T19:54:09Z</time>
  <course>211.02</course>
  <speed>0.16</speed>
  <fix>3d</fix>
</trkpt>
<trkpt lat="-27.2745723" lon="151.2893665">
  <ele>349.87</ele>
  <time>2026-09-01T19:54:09Z</time>
  <course>255.16</course>
  <speed>0.15231546211727817</speed>
  <fix>3d</fix>
</trkpt>
<trkpt lat="-27.2745719" lon="151.2893665">
  <ele>350.05</ele>
  <time>2026-09-01T19:54:09Z</time>
  <course>211.02</course>
  <speed>0.16</speed>
  <fix>3d</fix>
</trkpt>
<trkpt lat="-27.2745724" lon="151.2893664">
  <ele>349.79</ele>
  <time>2026-09-01T19:54:09Z</time>
  <course>261.26</course>
  <speed>0.147648230602334</speed>
  <fix>3d</fix>
</trkpt>
<trkpt lat="-27.2745722" lon="151.2893662">
  <ele>349.87</ele>
  <time>2026-09-01T19:54:09Z</time>
  <course>214.17</course>
  <speed>0.17</speed>
  <fix>3d</fix>
</trkpt>
<trkpt lat="-27.2745725" lon="151.2893663">
  <ele>349.71</ele>
  <time>2026-09-01T19:54:09Z</time>
  <course>267.44</course>
  <speed>0.147648230602334</speed>
  <fix>3d</fix>
</trkpt>
<trkpt lat="-27.2745722" lon="151.2893662">
  <ele>349.87</ele>
  <time>2026-09-01T19:54:09Z</time>
  <course>214.17</course>
  <speed>0.17</speed>
  <fix>3d</fix>
</trkpt>
<trkpt lat="-27.2745726" lon="151.2893662">
  <ele>349.63</ele>
  <time>2026-09-01T19:54:09Z</time>
  <course>274.35</course>
  <speed>0.147648230602334</speed>
  <fix>3d</fix>
</trkpt>
<trkpt lat="-27.2745724" lon="151.2893661">
  <ele>349.7</ele>
  <time>2026-09-01T19:54:09Z</time>
  <course>217.15</course>
  <speed>0.17</speed>
  <fix>3d</fix>
</trkpt>
<trkpt lat="-27.2745727" lon="151.2893661">
  <ele>349.55</ele>
  <time>2026-09-01T19:54:09Z</time>
  <course>281.35</course>
  <speed>0.13892443989449804</speed>
  <fix>3d</fix>
</trkpt>
<trkpt lat="-27.2745724" lon="151.2893661">
  <ele>349.7</ele>
  <time>2026-09-01T19:54:09Z</time>
  <course>217.15</course>
  <speed>0.17</speed>
  <fix>3d</fix>
</trkpt>
<trkpt lat="-27.2745728" lon="151.289366">
  <ele>349.48</ele>
  <time>2026-09-01T19:54:09Z</time>
  <course>289.7</course>
  <speed>0.130384048104053</speed>
  <fix>3d</fix>
</trkpt>
<trkpt lat="-27.2745727" lon="151.2893659">
  <ele>349.54</ele>
  <time>2026-09-01T19:54:09Z</time>
  <course>220.12</course>
  <speed>0.17</speed>
  <fix>3d</fix>
</trkpt>
<trkpt lat="-27.2745729" lon="151.2893659">
  <ele>349.4</ele>
  <time>2026-09-01T19:54:09Z</time>
  <course>301.87</course>
  <speed>0.130384048104053</speed>
  <fix>3d</fix>
</trkpt>
<trkpt lat="-27.2745727" lon="151.2893659">
  <ele>349.54</ele>
  <time>2026-09-01T19:54:09Z</time>
  <course>220.12</course>
  <speed>0.17</speed>
  <fix>3d</fix>
</trkpt>
<trkpt lat="-27.274573" lon="151.2893658">
  <ele>349.33</ele>
  <time>2026-09-01T19:54:09Z</time>
  <course>321.93</course>
  <speed>0.12206555615733702</speed>
  <fix>3d</fix>
</trkpt>
<trkpt lat="-27.2745729" lon="151.2893657">
  <ele>349.39</ele>
  <time>2026-09-01T19:54:09Z</time>
  <course>223.05</course>
  <speed>0.16</speed>
  <fix>3d</fix>
</trkpt>
<trkpt lat="-27.2745731" lon="151.2893657">
  <ele>349.25</ele>
  <time>2026-09-01T19:54:09Z</time>
  <course>346.13</course>
  <speed>0.1131370849898476</speed>
  <fix>3d</fix>
</trkpt>
<trkpt lat="-27.2745729" lon="151.2893657">
  <ele>349.39</ele>
  <time>2026-09-01T19:54:09Z</time>
  <course>223.05</course>
  <speed>0.16</speed>
  <fix>3d</fix>
</trkpt>
<trkpt lat="-27.2745732" lon="151.2893655">
  <ele>349.18</ele>
  <time>2026-09-01T19:54:09Z</time>
  <course>15.58</course>
  <speed>0.1063014581273465</speed>
  <fix>3d</fix>
</trkpt>
<trkpt lat="-27.2745731" lon="151.2893654">
  <ele>349.24</ele>
  <time>2026-09-01T19:54:09Z</time>
  <course>228.29</course>
  <speed>0.15</speed>
  <fix>3d</fix>
</trkpt>
<trkpt lat="-27.2745733" lon="151.2893654">
  <ele>349.11</ele>
  <time>2026-09-01T19:54:09Z</time>
  <course>142.61</course>
  <speed>0.1</speed>
  <fix>3d</fix>
</trkpt>
<trkpt lat="-27.2745731" lon="151.2893654">
  <ele>349.24</ele>
  <time>2026-09-01T19:54:09Z</time>
  <course>228.29</course>
  <speed>0.15</speed>
  <fix>3d</fix>
</trkpt>
<trkpt lat="-27.2745733" lon="151.2893653">
  <ele>349.04</ele>
  <time>2026-09-01T19:54:09Z</time>
  <course>279.73</course>
  <speed>0.08602325267042626</speed>
  <fix>3d</fix>
</trkpt>
<trkpt lat="-27.2745733" lon="151.2893652">
  <ele>349.09</ele>
  <time>2026-09-01T19:54:09Z</time>
  <course>236.36</course>
  <speed>0.14</speed>
  <fix>3d</fix>
</trkpt>
<trkpt lat="-27.2745734" lon="151.2893652">
  <ele>348.95</ele>
  <time>2026-09-01T19:54:09Z</time>
  <course>347.89</course>
  <speed>0.0670820393249937</speed>
  <fix>3d</fix>
</trkpt>
<trkpt lat="-27.2745733" lon="151.2893652">
  <ele>349.09</ele>
  <time>2026-09-01T19:54:09Z</time>
  <course>236.36</course>
  <speed>0.14</speed>
  <fix>3d</fix>
</trkpt>
<trkpt lat="-27.2745734" lon="151.2893651">
  <ele>348.86</ele>
  <time>2026-09-01T19:54:09Z</time>
  <course>60.91</course>
  <speed>0.0632455532033676</speed>
  <fix>3d</fix>
</trkpt>
<trkpt lat="-27.2745734" lon="151.2893649">
  <ele>348.94</ele>
  <time>2026-09-01T19:54:09Z</time>
  <course>244.22</course>
  <speed>0.12</speed>
  <fix>3d</fix>
</trkpt>
<trkpt lat="-27.2745734" lon="151.289365">
  <ele>348.77</ele>
  <time>2026-09-01T19:54:09Z</time>
  <course>241.77</course>
  <speed>0.05099019513592785</speed>
  <fix>3d</fix>
</trkpt>
<trkpt lat="-27.2745734" lon="151.2893649">
  <ele>348.94</ele>
  <time>2026-09-01T19:54:09Z</time>
  <course>244.22</course>
  <speed>0.12</speed>
  <fix>3d</fix>
</trkpt>
<trkpt lat="-27.2745734" lon="151.2893649">
  <ele>348.69</ele>
  <time>2026-09-01T19:54:09Z</time>
  <course>27.44</course>
  <speed>0.04</speed>
  <fix>3d</fix>
</trkpt>
<trkpt lat="-27.2745735" lon="151.2893647">
  <ele>348.77</ele>
  <time>2026-09-01T19:54:09Z</time>
  <course>254.05</course>
  <speed>0.1</speed>
  <fix>3d</fix>
</trkpt>
<trkpt lat="-27.2745734" lon="151.2893649">
  <ele>348.61</ele>
  <time>2026-09-01T19:54:09Z</time>
  <course>339.14</course>
  <speed>0.03</speed>
  <fix>3d</fix>
</trkpt>
<trkpt lat="-27.2745735" lon="151.2893647">
  <ele>348.77</ele>
  <time>2026-09-01T19:54:09Z</time>
  <course>254.05</course>
  <speed>0.1</speed>
  <fix>3d</fix>
</trkpt>
<trkpt lat="-27.2745734" lon="151.2893648">
  <ele>348.54</ele>
  <time>2026-09-01T19:54:09Z</time>
  <course>6.14</course>
  <speed>0.0316227766016838</speed>
  <fix>3d</fix>
</trkpt>
<trkpt lat="-27.2745735" lon="151.2893646">
  <ele>348.59</ele>
  <time>2026-09-01T19:54:09Z</time>
  <course>268.63</course>
  <speed>0.08</speed>
  <fix>3d</fix>
</trkpt>
<trkpt lat="-27.2745734" lon="151.2893647">
  <ele>348.47</ele>
  <time>2026-09-01T19:54:09Z</time>
  <course>8.76</course>
  <speed>0.0282842712474619</speed>
  <fix>3d</fix>
</trkpt>
<trkpt lat="-27.2745735" lon="151.2893646">
  <ele>348.59</ele>
  <time>2026-09-01T19:54:09Z</time>
  <course>268.63</course>
  <speed>0.08</speed>
  <fix>3d</fix>
</trkpt>
<trkpt lat="-27.2745734" lon="151.2893647">
  <ele>348.41</ele>
  <time>2026-09-01T19:54:09Z</time>
  <course>18.34</course>
  <speed>0.03605551275463989</speed>
  <fix>3d</fix>
</trkpt>
<trkpt lat="-27.2745735" lon="151.2893644">
  <ele>348.45</ele>
  <time>2026-09-01T19:54:09Z</time>
  <course>285.02</course>
  <speed>0.07</speed>
  <fix>3d</fix>
</trkpt>
<trkpt lat="-27.2745733" lon="151.2893646">
  <ele>348.36</ele>
  <time>2026-09-01T19:54:09Z</time>
  <course>26.05</course>
  <speed>0.0316227766016838</speed>
  <fix>3d</fix>
</trkpt>
<trkpt lat="-27.2745735" lon="151.2893644">
  <ele>348.45</ele>
  <time>2026-09-01T19:54:09Z</time>
  <course>285.02</course>
  <speed>0.07</speed>
  <fix>3d</fix>
</trkpt>
<trkpt lat="-27.2745733" lon="151.2893646">
  <ele>348.31</ele>
  <time>2026-09-01T19:54:09Z</time>
  <course>32.52</course>
  <speed>0.0412310562561766</speed>
  <fix>3d</fix>
</trkpt>
<trkpt lat="-27.2745734" lon="151.2893643">
  <ele>348.32</ele>
  <time>2026-09-01T19:54:09Z</time>
  <course>300.49</course>
  <speed>0.06</speed>
  <fix>3d</fix>
</trkpt>
<trkpt lat="-27.2745733" lon="151.2893645">
  <ele>348.26</ele>
  <time>2026-09-01T19:54:09Z</time>
  <course>37.14</course>
  <speed>0.0412310562561766</speed>
  <fix>3d</fix>
</trkpt>
<trkpt lat="-27.2745734" lon="151.2893643">
  <ele>348.32</ele>
  <time>2026-09-01T19:54:09Z</time>
  <course>300.49</course>
  <speed>0.06</speed>
  <fix>3d</fix>
</trkpt>
<trkpt lat="-27.2745733" lon="151.2893645">
  <ele>348.21</ele>
  <time>2026-09-01T19:54:09Z</time>
  <course>41.17</course>
  <speed>0.0412310562561766</speed>
  <fix>3d</fix>
</trkpt>
<trkpt lat="-27.2745734" lon="151.2893642">
  <ele>348.21</ele>
  <time>2026-09-01T19:54:09Z</time>
  <course>312.26</course>
  <speed>0.06</speed>
  <fix>3d</fix>
</trkpt>
<trkpt lat="-27.2745733" lon="151.2893644">
  <ele>348.17</ele>
  <time>2026-09-01T19:54:09Z</time>
  <course>45.32</course>
  <speed>0.05</speed>
  <fix>3d</fix>
</trkpt>
<trkpt lat="-27.2745734" lon="151.2893642">
  <ele>348.21</ele>
  <time>2026-09-01T19:54:09Z</time>
  <course>312.26</course>
  <speed>0.06</speed>
  <fix>3d</fix>
</trkpt>
<trkpt lat="-27.2745732" lon="151.2893644">
  <ele>348.12</ele>
  <time>2026-09-01T19:54:09Z</time>
  <course>57.01</course>
  <speed>0.05</speed>
  <fix>3d</fix>
</trkpt>
<trkpt lat="-27.2745733" lon="151.2893641">
  <ele>348.11</ele>
  <time>2026-09-01T19:54:09Z</time>
  <course>318.26</course>
  <speed>0.06</speed>
  <fix>3d</fix>
</trkpt>
<trkpt lat="-27.2745732" lon="151.2893644">
  <ele>348.08</ele>
  <time>2026-09-01T19:54:09Z</time>
  <course>94.49</course>
  <speed>0.05</speed>
  <fix>3d</fix>
</trkpt>
<trkpt lat="-27.2745733" lon="151.2893641">
  <ele>348.11</ele>
  <time>2026-09-01T19:54:09Z</time>
  <course>318.26</course>
  <speed>0.06</speed>
  <fix>3d</fix>
</trkpt>
<trkpt lat="-27.2745731" lon="151.2893643">
  <ele>348.03</ele>
  <time>2026-09-01T19:54:09Z</time>
  <course>109.93</course>
  <speed>0.05</speed>
  <fix>3d</fix>
</trkpt>
<trkpt lat="-27.2745732" lon="151.289364">
  <ele>348.02</ele>
  <time>2026-09-01T19:54:09Z</time>
  <course>323.48</course>
  <speed>0.06</speed>
  <fix>3d</fix>
</trkpt>
<trkpt lat="-27.2745731" lon="151.2893643">
  <ele>347.97</ele>
  <time>2026-09-01T19:54:09Z</time>
  <course>350.46</course>
  <speed>0.05</speed>
  <fix>3d</fix>
</trkpt>
<trkpt lat="-27.2745732" lon="151.289364">
  <ele>348.02</ele>
  <time>2026-09-01T19:54:09Z</time>
  <course>323.48</course>
  <speed>0.06</speed>
  <fix>3d</fix>
</trkpt>
<trkpt lat="-27.274573" lon="151.2893643">
  <ele>347.91</ele>
  <time>2026-09-01T19:54:09Z</time>
  <course>31.45</course>
  <speed>0.05099019513592785</speed>
  <fix>3d</fix>
</trkpt>
<trkpt lat="-27.2745731" lon="151.2893639">
  <ele>347.93</ele>
  <time>2026-09-01T19:54:09Z</time>
  <course>330.42</course>
  <speed>0.06</speed>
  <fix>3d</fix>
</trkpt>
<trkpt lat="-27.274573" lon="151.2893642">
  <ele>347.86</ele>
  <time>2026-09-01T19:54:09Z</time>
  <course>76.39</course>
  <speed>0.06082762530298219</speed>
  <fix>3d</fix>
</trkpt>
<trkpt lat="-27.2745731" lon="151.2893639">
  <ele>347.93</ele>
  <time>2026-09-01T19:54:09Z</time>
  <course>330.42</course>
  <speed>0.06</speed>
  <fix>3d</fix>
</trkpt>
<trkpt lat="-27.2745729" lon="151.2893642">
  <ele>347.81</ele>
  <time>2026-09-01T19:54:09Z</time>
  <course>75.27</course>
  <speed>0.0632455532033676</speed>
  <fix>3d</fix>
</trkpt>
<trkpt lat="-27.274573" lon="151.2893638">
  <ele>347.82</ele>
  <time>2026-09-01T19:54:09Z</time>
  <course>338.95</course>
  <speed>0.06</speed>
  <fix>3d</fix>
</trkpt>
<trkpt lat="-27.2745729" lon="151.2893642">
  <ele>347.76</ele>
  <time>2026-09-01T19:54:09Z</time>
  <course>171.61</course>
  <speed>0.0670820393249937</speed>
  <fix>3d</fix>
</trkpt>
<trkpt lat="-27.274573" lon="151.2893638">
  <ele>347.82</ele>
  <time>2026-09-01T19:54:09Z</time>
  <course>338.95</course>
  <speed>0.06</speed>
  <fix>3d</fix>
</trkpt>
<trkpt lat="-27.2745728" lon="151.2893642">
  <ele>347.72</ele>
  <time>2026-09-01T19:54:09Z</time>
  <course>54.91</course>
  <speed>0.07615773105863909</speed>
  <fix>3d</fix>
</trkpt>
<trkpt lat="-27.2745729" lon="151.2893638">
  <ele>347.72</ele>
  <time>2026-09-01T19:54:09Z</time>
  <course>350.71</course>
  <speed>0.06</speed>
  <fix>3d</fix>
</trkpt>
<trkpt lat="-27.2745727" lon="151.2893642">
  <ele>347.66</ele>
  <time>2026-09-01T19:54:09Z</time>
  <course>52.46</course>
  <speed>0.08062257748298549</speed>
  <fix>3d</fix>
</trkpt>
<trkpt lat="-27.2745729" lon="151.2893638">
  <ele>347.72</ele>
  <time>2026-09-01T19:54:09Z</time>
  <course>350.71</course>
  <speed>0.06</speed>
  <fix>3d</fix>
</trkpt>
<trkpt lat="-27.2745727" lon="151.2893642">
  <ele>347.61</ele>
  <time>2026-09-01T19:54:09Z</time>
  <course>213.13</course>
  <speed>0.08062257748298549</speed>
  <fix>3d</fix>
</trkpt>
<trkpt lat="-27.2745728" lon="151.2893638">
  <ele>347.63</ele>
  <time>2026-09-01T19:54:09Z</time>
  <course>1.2</course>
  <speed>0.07</speed>
  <fix>3d</fix>
</trkpt>
<trkpt lat="-27.2745726" lon="151.2893642">
  <ele>347.56</ele>
  <time>2026-09-01T19:54:09Z</time>
  <course>61.64</course>
  <speed>0.08602325267042626</speed>
  <fix>3d</fix>
</trkpt>
<trkpt lat="-27.2745728" lon="151.2893638">
  <ele>347.63</ele>
  <time>2026-09-01T19:54:09Z</time>
  <course>1.2</course>
  <speed>0.07</speed>
  <fix>3d</fix>
</trkpt>
<trkpt lat="-27.2745725" lon="151.2893642">
  <ele>347.51</ele>
  <time>2026-09-01T19:54:09Z</time>
  <course>59.75</course>
  <speed>0.1</speed>
  <fix>3d</fix>
</trkpt>
<trkpt lat="-27.2745727" lon="151.2893638">
  <ele>347.52</ele>
  <time>2026-09-01T19:54:09Z</time>
  <course>10.74</course>
  <speed>0.07</speed>
  <fix>3d</fix>
</trkpt>
<trkpt lat="-27.2745725" lon="151.2893642">
  <ele>347.46</ele>
  <time>2026-09-01T19:54:09Z</time>
  <course>61.96</course>
  <speed>0.1063014581273465</speed>
  <fix>3d</fix>
</trkpt>
<trkpt lat="-27.2745727" lon="151.2893638">
  <ele>347.52</ele>
  <time>2026-09-01T19:54:09Z</time>
  <course>10.74</course>
  <speed>0.07</speed>
  <fix>3d</fix>
</trkpt>
<trkpt lat="-27.2745724" lon="151.2893642">
  <ele>347.42</ele>
  <time>2026-09-01T19:54:09Z</time>
  <course>62.33</course>
  <speed>0.1063014581273465</speed>
  <fix>3d</fix>
</trkpt>
<trkpt lat="-27.2745725" lon="151.2893638">
  <ele>347.42</ele>
  <time>2026-09-01T19:54:09Z</time>
  <course>19.19</course>
  <speed>0.09</speed>
  <fix>3d</fix>
</trkpt>
<trkpt lat="-27.2745723" lon="151.2893643">
  <ele>347.38</ele>
  <time>2026-09-01T19:54:09Z</time>
  <course>63.68</course>
  <speed>0.12041594578792296</speed>
  <fix>3d</fix>
</trkpt>
<trkpt lat="-27.2745725" lon="151.2893638">
  <ele>347.42</ele>
  <time>2026-09-01T19:54:09Z</time>
  <course>19.19</course>
  <speed>0.09</speed>
  <fix>3d</fix>
</trkpt>
<trkpt lat="-27.2745722" lon="151.2893643">
  <ele>347.34</ele>
  <time>2026-09-01T19:54:09Z</time>
  <course>67.0</course>
  <speed>0.12727922061357855</speed>
  <fix>3d</fix>
</trkpt>
<trkpt lat="-27.2745723" lon="151.2893638">
  <ele>347.33</ele>
  <time>2026-09-01T19:54:09Z</time>
  <course>25.31</course>
  <speed>0.1</speed>
  <fix>3d</fix>
</trkpt>
<trkpt lat="-27.2745721" lon="151.2893644">
  <ele>347.3</ele>
  <time>2026-09-01T19:54:09Z</time>
  <course>74.94</course>
  <speed>0.12727922061357855</speed>
  <fix>3d</fix>
</trkpt>
<trkpt lat="-27.2745723" lon="151.2893638">
  <ele>347.33</ele>
  <time>2026-09-01T19:54:09Z</time>
  <course>25.31</course>
  <speed>0.1</speed>
  <fix>3d</fix>
</trkpt>
<trkpt lat="-27.2745721" lon="151.2893644">
  <ele>347.26</ele>
  <time>2026-09-01T19:54:09Z</time>
  <course>76.09</course>
  <speed>0.1345362404707371</speed>
  <fix>3d</fix>
</trkpt>
<trkpt lat="-27.2745722" lon="151.2893639">
  <ele>347.25</ele>
  <time>2026-09-01T19:54:09Z</time>
  <course>30.17</course>
  <speed>0.11</speed>
  <fix>3d</fix>
</trkpt>
<trkpt lat="-27.274572" lon="151.2893645">
  <ele>347.21</ele>
  <time>2026-09-01T19:54:09Z</time>
  <course>120.18</course>
  <speed>0.1414213562373095</speed>
  <fix>3d</fix>
</trkpt>
<trkpt lat="-27.2745722" lon="151.2893639">
  <ele>347.25</ele>
  <time>2026-09-01T19:54:09Z</time>
  <course>30.17</course>
  <speed>0.11</speed>
  <fix>3d</fix>
</trkpt>
<trkpt lat="-27.2745719" lon="151.2893646">
  <ele>347.16</ele>
  <time>2026-09-01T19:54:09Z</time>
  <course>359.55</course>
  <speed>0.1414213562373095</speed>
  <fix>3d</fix>
</trkpt>
<trkpt lat="-27.274572" lon="151.2893641">
  <ele>347.16</ele>
  <time>2026-09-01T19:54:09Z</time>
  <course>33.72</course>
  <speed>0.12</speed>
  <fix>3d</fix>
</trkpt>
<trkpt lat="-27.2745718" lon="151.2893646">
  <ele>347.1</ele>
  <time>2026-09-01T19:54:09Z</time>
  <course>29.31</course>
  <speed>0.14212670403551894</speed>
  <fix>3d</fix>
</trkpt>
<trkpt lat="-27.274572" lon="151.2893641">
  <ele>347.16</ele>
  <time>2026-09-01T19:54:09Z</time>
  <course>33.72</course>
  <speed>0.12</speed>
  <fix>3d</fix>
</trkpt>
<trkpt lat="-27.2745717" lon="151.2893647">
  <ele>347.05</ele>
  <time>2026-09-01T19:54:09Z</time>
  <course>95.61</course>
  <speed>0.14212670403551894</speed>
  <fix>3d</fix>
</trkpt>
<trkpt lat="-27.2745719" lon="151.2893643">
  <ele>347.06</ele>
  <time>2026-09-01T19:54:09Z</time>
  <course>37.76</course>
  <speed>0.13</speed>
  <fix>3d</fix>
</trkpt>
<trkpt lat="-27.2745716" lon="151.2893648">
  <ele>347.0</ele>
  <time>2026-09-01T19:54:09Z</time>
  <course>81.02</course>
  <speed>0.15</speed>
  <fix>3d</fix>
</trkpt>
<trkpt lat="-27.2745719" lon="151.2893643">
  <ele>347.06</ele>
  <time>2026-09-01T19:54:09Z</time>
  <course>37.76</course>
  <speed>0.13</speed>
  <fix>3d</fix>
</trkpt>
<trkpt lat="-27.2745715" lon="151.2893649">
  <ele>346.95</ele>
  <time>2026-09-01T19:54:09Z</time>
  <course>86.19</course>
  <speed>0.15</speed>
  <fix>3d</fix>
</trkpt>
<trkpt lat="-27.2745717" lon="151.2893644">
  <ele>346.95</ele>
  <time>2026-09-01T19:54:09Z</time>
  <course>41.53</course>
  <speed>0.13</speed>
  <fix>3d</fix>
</trkpt>
<trkpt lat="-27.2745715" lon="151.289365">
  <ele>346.9</ele>
  <time>2026-09-01T19:54:09Z</time>
  <course>89.2</course>
  <speed>0.15811388300841897</speed>
  <fix>3d</fix>
</trkpt>
<trkpt lat="-27.2745717" lon="151.2893644">
  <ele>346.95</ele>
  <time>2026-09-01T19:54:09Z</time>
  <course>41.53</course>
  <speed>0.13</speed>
  <fix>3d</fix>
</trkpt>
<trkpt lat="-27.2745714" lon="151.2893651">
  <ele>346.86</ele>
  <time>2026-09-01T19:54:09Z</time>
  <course>93.46</course>
  <speed>0.15264337522473748</speed>
  <fix>3d</fix>
</trkpt>
<trkpt lat="-27.2745715" lon="151.2893646">
  <ele>346.85</ele>
  <time>2026-09-01T19:54:09Z</time>
  <course>44.27</course>
  <speed>0.13</speed>
  <fix>3d</fix>
</trkpt>
<trkpt lat="-27.2745713" lon="151.2893652">
  <ele>346.81</ele>
  <time>2026-09-01T19:54:09Z</time>
  <course>93.95</course>
  <speed>0.16124515496597097</speed>
  <fix>3d</fix>
</trkpt>
<trkpt lat="-27.2745715" lon="151.2893646">
  <ele>346.85</ele>
  <time>2026-09-01T19:54:09Z</time>
  <course>44.27</course>
  <speed>0.13</speed>
  <fix>3d</fix>
</trkpt>
<trkpt lat="-27.2745712" lon="151.2893653">
  <ele>346.76</ele>
  <time>2026-09-01T19:54:09Z</time>
  <course>84.56</course>
  <speed>0.16124515496597097</speed>
  <fix>3d</fix>
</trkpt>
<trkpt lat="-27.2745713" lon="151.2893648">
  <ele>346.76</ele>
  <time>2026-09-01T19:54:09Z</time>
  <course>48.02</course>
  <speed>0.14</speed>
  <fix>3d</fix>
</trkpt>
<trkpt lat="-27.2745711" lon="151.2893654">
  <ele>346.72</ele>
  <time>2026-09-01T19:54:09Z</time>
  <course>71.03</course>
  <speed>0.16124515496597097</speed>
  <fix>3d</fix>
</trkpt>
<trkpt lat="-27.2745713" lon="151.2893648">
  <ele>346.76</ele>
  <time>2026-09-01T19:54:09Z</time>
  <course>48.02</course>
  <speed>0.14</speed>
  <fix>3d</fix>
</trkpt>
<trkpt lat="-27.2745711" lon="151.2893655">
  <ele>346.67</ele>
  <time>2026-09-01T19:54:09Z</time>
  <course>63.59</course>
  <speed>0.16552945357246848</speed>
  <fix>3d</fix>
</trkpt>
<trkpt lat="-27.2745711" lon="151.2893651">
  <ele>346.66</ele>
  <time>2026-09-01T19:54:09Z</time>
  <course>51.91</course>
  <speed>0.14</speed>
  <fix>3d</fix>
</trkpt>
<trkpt lat="-27.274571" lon="151.2893657">
  <ele>346.62</ele>
  <time>2026-09-01T19:54:09Z</time>
  <course>70.5</course>
  <speed>0.16552945357246848</speed>
  <fix>3d</fix>
</trkpt>
<trkpt lat="-27.2745711" lon="151.2893651">
  <ele>346.66</ele>
  <time>2026-09-01T19:54:09Z</time>
  <course>51.91</course>
  <speed>0.14</speed>
  <fix>3d</fix>
</trkpt>
<trkpt lat="-27.2745709" lon="151.2893658">
  <ele>346.57</ele>
  <time>2026-09-01T19:54:09Z</time>
  <course>217.33</course>
  <speed>0.1615549442140351</speed>
  <fix>3d</fix>
</trkpt>
<trkpt lat="-27.274571" lon="151.2893652">
  <ele>346.57</ele>
  <time>2026-09-01T19:54:09Z</time>
  <course>55.03</course>
  <speed>0.14</speed>
  <fix>3d</fix>
</trkpt>
<trkpt lat="-27.2745709" lon="151.2893659">
  <ele>346.51</ele>
  <time>2026-09-01T19:54:09Z</time>
  <course>75.44</course>
  <speed>0.1615549442140351</speed>
  <fix>3d</fix>
</trkpt>
<trkpt lat="-27.274571" lon="151.2893652">
  <ele>346.57</ele>
  <time>2026-09-01T19:54:09Z</time>
  <course>55.03</course>
  <speed>0.14</speed>
  <fix>3d</fix>
</trkpt>
<trkpt lat="-27.2745708" lon="151.289366">
  <ele>346.45</ele>
  <time>2026-09-01T19:54:09Z</time>
  <course>58.07</course>
  <speed>0.14866068747318506</speed>
  <fix>3d</fix>
</trkpt>
<trkpt lat="-27.2745708" lon="151.2893655">
  <ele>346.46</ele>
  <time>2026-09-01T19:54:09Z</time>
  <course>57.83</course>
  <speed>0.14</speed>
  <fix>3d</fix>
</trkpt>
<trkpt lat="-27.2745707" lon="151.2893661">
  <ele>346.4</ele>
  <time>2026-09-01T19:54:09Z</time>
  <course>215.25</course>
  <speed>0.14866068747318506</speed>
  <fix>3d</fix>
</trkpt>
<trkpt lat="-27.2745708" lon="151.2893655">
  <ele>346.46</ele>
  <time>2026-09-01T19:54:09Z</time>
  <course>57.83</course>
  <speed>0.14</speed>
  <fix>3d</fix>
</trkpt>
<trkpt lat="-27.2745707" lon="151.2893662">
  <ele>346.35</ele>
  <time>2026-09-01T19:54:09Z</time>
  <course>120.44</course>
  <speed>0.14866068747318506</speed>
  <fix>3d</fix>
</trkpt>
<trkpt lat="-27.2745707" lon="151.2893657">
  <ele>346.35</ele>
  <time>2026-09-01T19:54:09Z</time>
  <course>60.7</course>
  <speed>0.13</speed>
  <fix>3d</fix>
</trkpt>
<trkpt lat="-27.2745707" lon="151.2893664">
  <ele>346.29</ele>
  <time>2026-09-01T19:54:09Z</time>
  <course>319.97</course>
  <speed>0.13601470508735444</speed>
  <fix>3d</fix>
</trkpt>
<trkpt lat="-27.2745707" lon="151.2893657">
  <ele>346.35</ele>
  <time>2026-09-01T19:54:09Z</time>
  <course>60.7</course>
  <speed>0.13</speed>
  <fix>3d</fix>
</trkpt>
<trkpt lat="-27.2745706" lon="151.2893665">
  <ele>346.22</ele>
  <time>2026-09-01T19:54:09Z</time>
  <course>136.69</course>
  <speed>0.13341664064126335</speed>
  <fix>3d</fix>
</trkpt>
<trkpt lat="-27.2745706" lon="151.289366">
  <ele>346.24</ele>
  <time>2026-09-01T19:54:09Z</time>
  <course>64.12</course>
  <speed>0.12</speed>
  <fix>3d</fix>
</trkpt>
<trkpt lat="-27.2745706" lon="151.2893666">
  <ele>346.16</ele>
  <time>2026-09-01T19:54:09Z</time>
  <course>133.41</course>
  <speed>0.12369316876852982</speed>
  <fix>3d</fix>
</trkpt>
<trkpt lat="-27.2745706" lon="151.289366">
  <ele>346.24</ele>
  <time>2026-09-01T19:54:09Z</time>
  <course>64.12</course>
  <speed>0.12</speed>
  <fix>3d</fix>
</trkpt>
<trkpt lat="-27.2745705" lon="151.2893667">
  <ele>346.1</ele>
  <time>2026-09-01T19:54:09Z</time>
  <course>328.58</course>
  <speed>0.12165525060596438</speed>
  <fix>3d</fix>
</trkpt>
<trkpt lat="-27.2745705" lon="151.2893662">
  <ele>346.11</ele>
  <time>2026-09-01T19:54:09Z</time>
  <course>67.28</course>
  <speed>0.11</speed>
  <fix>3d</fix>
</trkpt>
<trkpt lat="-27.2745705" lon="151.2893667">
  <ele>346.05</ele>
  <time>2026-09-01T19:54:09Z</time>
  <course>119.14</course>
  <speed>0.1118033988749895</speed>
  <fix>3d</fix>
</trkpt>
<trkpt lat="-27.2745705" lon="151.2893662">
  <ele>346.11</ele>
  <time>2026-09-01T19:54:09Z</time>
  <course>67.28</course>
  <speed>0.11</speed>
  <fix>3d</fix>
</trkpt>
<trkpt lat="-27.2745705" lon="151.2893668">
  <ele>346.0</ele>
  <time>2026-09-01T19:54:09Z</time>
  <course>113.0</course>
  <speed>0.11045361017187261</speed>
  <fix>3d</fix>
</trkpt>
<trkpt lat="-27.2745704" lon="151.2893664">
  <ele>345.99</ele>
  <time>2026-09-01T19:54:09Z</time>
  <course>70.42</course>
  <speed>0.09</speed>
  <fix>3d</fix>
</trkpt>
<trkpt lat="-27.2745705" lon="151.2893669">
  <ele>345.95</ele>
  <time>2026-09-01T19:54:09Z</time>
  <course>113.21</course>
  <speed>0.11045361017187261</speed>
  <fix>3d</fix>
</trkpt>
<trkpt lat="-27.2745704" lon="151.2893664">
  <ele>345.99</ele>
  <time>2026-09-01T19:54:09Z</time>
  <course>70.42</course>
  <speed>0.09</speed>
  <fix>3d</fix>
</trkpt>
<trkpt lat="-27.2745705" lon="151.289367">
  <ele>345.9</ele>
  <time>2026-09-01T19:54:09Z</time>
  <course>114.34</course>
  <speed>0.1004987562112089</speed>
  <fix>3d</fix>
</trkpt>
<trkpt lat="-27.2745704" lon="151.2893666">
  <ele>345.89</ele>
  <time>2026-09-01T19:54:09Z</time>
  <course>73.41</course>
  <speed>0.08</speed>
  <fix>3d</fix>
</trkpt>
<trkpt lat="-27.2745704" lon="151.2893671">
  <ele>345.86</ele>
  <time>2026-09-01T19:54:09Z</time>
  <course>115.52</course>
  <speed>0.1004987562112089</speed>
  <fix>3d</fix>
</trkpt>
<trkpt lat="-27.2745704" lon="151.2893666">
  <ele>345.89</ele>
  <time>2026-09-01T19:54:09Z</time>
  <course>73.41</course>
  <speed>0.08</speed>
  <fix>3d</fix>
</trkpt>
<trkpt lat="-27.2745704" lon="151.2893671">
  <ele>345.82</ele>
  <time>2026-09-01T19:54:09Z</time>
  <course>114.12</course>
  <speed>0.09</speed>
  <fix>3d</fix>
</trkpt>
<trkpt lat="-27.2745704" lon="151.2893667">
  <ele>345.8</ele>
  <time>2026-09-01T19:54:09Z</time>
  <course>75.44</course>
  <speed>0.07</speed>
  <fix>3d</fix>
</trkpt>
<trkpt lat="-27.2745704" lon="151.2893672">
  <ele>345.78</ele>
  <time>2026-09-01T19:54:09Z</time>
  <course>113.66</course>
  <speed>0.09</speed>
  <fix>3d</fix>
</trkpt>
<trkpt lat="-27.2745704" lon="151.2893667">
  <ele>345.8</ele>
  <time>2026-09-01T19:54:09Z</time>
  <course>75.44</course>
  <speed>0.07</speed>
  <fix>3d</fix>
</trkpt>
<trkpt lat="-27.2745704" lon="151.2893673">
  <ele>345.74</ele>
  <time>2026-09-01T19:54:09Z</time>
  <course>119.18</course>
  <speed>0.09</speed>
  <fix>3d</fix>
</trkpt>
<trkpt lat="-27.2745703" lon="151.2893669">
  <ele>345.72</ele>
  <time>2026-09-01T19:54:09Z</time>
  <course>77.36</course>
  <speed>0.07</speed>
  <fix>3d</fix>
</trkpt>
<trkpt lat="-27.2745704" lon="151.2893673">
  <ele>345.7</ele>
  <time>2026-09-01T19:54:09Z</time>
  <course>133.12</course>
  <speed>0.08</speed>
  <fix>3d</fix>
</trkpt>
<trkpt lat="-27.2745703" lon="151.2893669">
  <ele>345.72</ele>
  <time>2026-09-01T19:54:09Z</time>
  <course>77.36</course>
  <speed>0.07</speed>
  <fix>3d</fix>
</trkpt>
<trkpt lat="-27.2745704" lon="151.2893674">
  <ele>345.66</ele>
  <time>2026-09-01T19:54:09Z</time>
  <course>152.33</course>
  <speed>0.08</speed>
  <fix>3d</fix>
</trkpt>
<trkpt lat="-27.2745703" lon="151.289367">
  <ele>345.64</ele>
  <time>2026-09-01T19:54:09Z</time>
  <course>79.54</course>
  <speed>0.06</speed>
  <fix>3d</fix>
</trkpt>
<trkpt lat="-27.2745704" lon="151.2893674">
  <ele>345.61</ele>
  <time>2026-09-01T19:54:09Z</time>
  <course>166.11</course>
  <speed>0.08</speed>
  <fix>3d</fix>
</trkpt>
<trkpt lat="-27.2745703" lon="151.289367">
  <ele>345.64</ele>
  <time>2026-09-01T19:54:09Z</time>
  <course>79.54</course>
  <speed>0.06</speed>
  <fix>3d</fix>
</trkpt>
<trkpt lat="-27.2745704" lon="151.2893675">
  <ele>345.57</ele>
  <time>2026-09-01T19:54:09Z</time>
  <course>331.57</course>
  <speed>0.07</speed>
  <fix>3d</fix>
</trkpt>
<trkpt lat="-27.2745703" lon="151.2893671">
  <ele>345.55</ele>
  <time>2026-09-01T19:54:09Z</time>
  <course>82.57</course>
  <speed>0.05</speed>
  <fix>3d</fix>
</trkpt>
<trkpt lat="-27.2745704" lon="151.2893675">
  <ele>345.52</ele>
  <time>2026-09-01T19:54:09Z</time>
  <course>326.62</course>
  <speed>0.07</speed>
  <fix>3d</fix>
</trkpt>
<trkpt lat="-27.2745703" lon="151.2893671">
  <ele>345.55</ele>
  <time>2026-09-01T19:54:09Z</time>
  <course>82.57</course>
  <speed>0.05</speed>
  <fix>3d</fix>
</trkpt>
<trkpt lat="-27.2745704" lon="151.2893676">
  <ele>345.47</ele>
  <time>2026-09-01T19:54:09Z</time>
  <course>137.42</course>
  <speed>0.06082762530298219</speed>
  <fix>3d</fix>
</trkpt>
<trkpt lat="-27.2745703" lon="151.2893672">
  <ele>345.46</ele>
  <time>2026-09-01T19:54:09Z</time>
  <course>87.57</course>
  <speed>0.04</speed>
  <fix>3d</fix>
</trkpt>
<trkpt lat="-27.2745704" lon="151.2893676">
  <ele>345.41</ele>
  <time>2026-09-01T19:54:09Z</time>
  <course>135.46</course>
  <speed>0.06082762530298219</speed>
  <fix>3d</fix>
</trkpt>
<trkpt lat="-27.2745703" lon="151.2893672">
  <ele>345.46</ele>
  <time>2026-09-01T19:54:09Z</time>
  <course>87.57</course>
  <speed>0.04</speed>
  <fix>3d</fix>
</trkpt>
<trkpt lat="-27.2745704" lon="151.2893676">
  <ele>345.36</ele>
  <time>2026-09-01T19:54:09Z</time>
  <course>321.49</course>
  <speed>0.05099019513592785</speed>
  <fix>3d</fix>
</trkpt>
<trkpt lat="-27.2745703" lon="151.2893673">
  <ele>345.36</ele>
  <time>2026-09-01T19:54:09Z</time>
  <course>96.28</course>
  <speed>0.03</speed>
  <fix>3d</fix>
</trkpt>
<trkpt lat="-27.2745704" lon="151.2893676">
  <ele>345.3</ele>
  <time>2026-09-01T19:54:09Z</time>
  <course>64.41</course>
  <speed>0.053851648071345036</speed>
  <fix>3d</fix>
</trkpt>
<trkpt lat="-27.2745703" lon="151.2893673">
  <ele>345.36</ele>
  <time>2026-09-01T19:54:09Z</time>
  <course>96.28</course>
  <speed>0.03</speed>
  <fix>3d</fix>
</trkpt>
<trkpt lat="-27.2745704" lon="151.2893677">
  <ele>345.25</ele>
  <time>2026-09-01T19:54:09Z</time>
  <course>43.46</course>
  <speed>0.053851648071345036</speed>
  <fix>3d</fix>
</trkpt>
<trkpt lat="-27.2745703" lon="151.2893674">
  <ele>345.24</ele>
  <time>2026-09-01T19:54:09Z</time>
  <course>114.56</course>
  <speed>0.02</speed>
  <fix>3d</fix>
</trkpt>
<trkpt lat="-27.2745704" lon="151.2893677">
  <ele>345.2</ele>
  <time>2026-09-01T19:54:09Z</time>
  <course>47.0</course>
  <speed>0.044721359549995794</speed>
  <fix>3d</fix>
</trkpt>
<trkpt lat="-27.2745703" lon="151.2893674">
  <ele>345.24</ele>
  <time>2026-09-01T19:54:09Z</time>
  <course>114.56</course>
  <speed>0.02</speed>
  <fix>3d</fix>
</trkpt>
<trkpt lat="-27.2745704" lon="151.2893677">
  <ele>345.14</ele>
  <time>2026-09-01T19:54:09Z</time>
  <course>226.61</course>
  <speed>0.044721359549995794</speed>
  <fix>3d</fix>
</trkpt>
<trkpt lat="-27.2745703" lon="151.2893674">
  <ele>345.13</ele>
  <time>2026-09-01T19:54:09Z</time>
  <course>131.29</course>
  <speed>0.02</speed>
  <fix>3d</fix>
</trkpt>
<trkpt lat="-27.2745704" lon="151.2893677">
  <ele>345.08</ele>
  <time>2026-09-01T19:54:09Z</time>
  <course>46.27</course>
  <speed>0.0412310562561766</speed>
  <fix>3d</fix>
</trkpt>
<trkpt lat="-27.2745703" lon="151.2893674">
  <ele>345.13</ele>
  <time>2026-09-01T19:54:09Z</time>
  <course>131.29</course>
  <speed>0.02</speed>
  <fix>3d</fix>
</trkpt>
<trkpt lat="-27.2745704" lon="151.2893677">
  <ele>345.02</ele>
  <time>2026-09-01T19:54:09Z</time>
  <course>49.95</course>
  <speed>0.0412310562561766</speed>
  <fix>3d</fix>
</trkpt>
<trkpt lat="-27.2745703" lon="151.2893675">
  <ele>345.02</ele>
  <time>2026-09-01T19:54:09Z</time>
  <course>131.95</course>
  <speed>0.02</speed>
  <fix>3d</fix>
</trkpt>
<trkpt lat="-27.2745704" lon="151.2893678">
  <ele>344.97</ele>
  <time>2026-09-01T19:54:09Z</time>
  <course>231.77</course>
  <speed>0.0412310562561766</speed>
  <fix>3d</fix>
</trkpt>
<trkpt lat="-27.2745703" lon="151.2893675">
  <ele>345.02</ele>
  <time>2026-09-01T19:54:09Z</time>
  <course>131.95</course>
  <speed>0.02</speed>
  <fix>3d</fix>
</trkpt>
<trkpt lat="-27.2745704" lon="151.2893678">
  <ele>344.92</ele>
  <time>2026-09-01T19:54:09Z</time>
  <course>46.93</course>
  <speed>0.0412310562561766</speed>
  <fix>3d</fix>
</trkpt>
<trkpt lat="-27.2745703" lon="151.2893675">
  <ele>344.91</ele>
  <time>2026-09-01T19:54:09Z</time>
  <course>131.71</course>
  <speed>0.02</speed>
  <fix>3d</fix>
</trkpt>
<trkpt lat="-27.2745704" lon="151.2893678">
  <ele>344.87</ele>
  <time>2026-09-01T19:54:09Z</time>
  <course>357.18</course>
  <speed>0.0412310562561766</speed>
  <fix>3d</fix>
</trkpt>
<trkpt lat="-27.2745703" lon="151.2893675">
  <ele>344.91</ele>
  <time>2026-09-01T19:54:09Z</time>
  <course>131.71</course>
  <speed>0.02</speed>
  <fix>3d</fix>
</trkpt>
<trkpt lat="-27.2745704" lon="151.2893678">
  <ele>344.82</ele>
  <time>2026-09-01T19:54:09Z</time>
  <course>26.48</course>
  <speed>0.0412310562561766</speed>
  <fix>3d</fix>
</trkpt>
<trkpt lat="-27.2745703" lon="151.2893675">
  <ele>344.8</ele>
  <time>2026-09-01T19:54:09Z</time>
  <course>136.66</course>
  <speed>0.01</speed>
  <fix>3d</fix>
</trkpt>
<trkpt lat="-27.2745704" lon="151.2893678">
  <ele>344.78</ele>
  <time>2026-09-01T19:54:09Z</time>
  <course>8.25</course>
  <speed>0.0412310562561766</speed>
  <fix>3d</fix>
</trkpt>
<trkpt lat="-27.2745703" lon="151.2893675">
  <ele>344.8</ele>
  <time>2026-09-01T19:54:09Z</time>
  <course>136.66</course>
  <speed>0.01</speed>
  <fix>3d</fix>
</trkpt>
<trkpt lat="-27.2745704" lon="151.2893678">
  <ele>344.73</ele>
  <time>2026-09-01T19:54:09Z</time>
  <course>339.17</course>
  <speed>0.04</speed>
  <fix>3d</fix>
</trkpt>
<trkpt lat="-27.2745703" lon="151.2893676">
  <ele>344.7</ele>
  <time>2026-09-01T19:54:09Z</time>
  <course>137.26</course>
  <speed>0.01</speed>
  <fix>3d</fix>
</trkpt>
<trkpt lat="-27.2745704" lon="151.2893678">
  <ele>344.69</ele>
  <time>2026-09-01T19:54:09Z</time>
  <course>322.8</course>
  <speed>0.04</speed>
  <fix>3d</fix>
</trkpt>
<trkpt lat="-27.2745703" lon="151.2893676">
  <ele>344.7</ele>
  <time>2026-09-01T19:54:09Z</time>
  <course>137.26</course>
  <speed>0.01</speed>
  <fix>3d</fix>
</trkpt>
<trkpt lat="-27.2745704" lon="151.2893678">
  <ele>344.64</ele>
  <time>2026-09-01T19:54:09Z</time>
  <course>317.61</course>
  <speed>0.03</speed>
  <fix>3d</fix>
</trkpt>
<trkpt lat="-27.2745703" lon="151.2893676">
  <ele>344.61</ele>
  <time>2026-09-01T19:54:09Z</time>
  <course>134.97</course>
  <speed>0.01</speed>
  <fix>3d</fix>
</trkpt>
<trkpt lat="-27.2745704" lon="151.2893679">
  <ele>344.59</ele>
  <time>2026-09-01T19:54:09Z</time>
  <course>124.99</course>
  <speed>0.04</speed>
  <fix>3d</fix>
</trkpt>
<trkpt lat="-27.2745703" lon="151.2893676">
  <ele>344.61</ele>
  <time>2026-09-01T19:54:09Z</time>
  <course>134.97</course>
  <speed>0.01</speed>
  <fix>3d</fix>
</trkpt>
<trkpt lat="-27.2745704" lon="151.2893679">
  <ele>344.53</ele>
  <time>2026-09-01T19:54:09Z</time>
  <course>132.73</course>
  <speed>0.03</speed>
  <fix>3d</fix>
</trkpt>
<trkpt lat="-27.2745704" lon="151.2893676">
  <ele>344.52</ele>
  <time>2026-09-01T19:54:09Z</time>
  <course>131.94</course>
  <speed>0.0</speed>
  <fix>3d</fix>
</trkpt>
<trkpt lat="-27.2745704" lon="151.2893679">
  <ele>344.48</ele>
  <time>2026-09-01T19:54:09Z</time>
  <course>314.74</course>
  <speed>0.03</speed>
  <fix>3d</fix>
</trkpt>
<trkpt lat="-27.2745704" lon="151.2893676">
  <ele>344.52</ele>
  <time>2026-09-01T19:54:09Z</time>
  <course>131.94</course>
  <speed>0.0</speed>
  <fix>3d</fix>
</trkpt>
<trkpt lat="-27.2745704" lon="151.2893679">
  <ele>344.43</ele>
  <time>2026-09-01T19:54:09Z</time>
  <course>48.42</course>
  <speed>0.03</speed>
  <fix>3d</fix>
</trkpt>
<trkpt lat="-27.2745704" lon="151.2893676">
  <ele>344.42</ele>
  <time>2026-09-01T19:54:09Z</time>
  <course>126.6</course>
  <speed>0.0</speed>
  <fix>3d</fix>
</trkpt>
<trkpt lat="-27.2745704" lon="151.2893679">
  <ele>344.38</ele>
  <time>2026-09-01T19:54:09Z</time>
  <course>318.8</course>
  <speed>0.02</speed>
  <fix>3d</fix>
</trkpt>
<trkpt lat="-27.2745704" lon="151.2893676">
  <ele>344.42</ele>
  <time>2026-09-01T19:54:09Z</time>
  <course>126.6</course>
  <speed>0.0</speed>
  <fix>3d</fix>
</trkpt>
<trkpt lat="-27.2745704" lon="151.2893679">
  <ele>344.33</ele>
  <time>2026-09-01T19:54:09Z</time>
  <course>306.65</course>
  <speed>0.02</speed>
  <fix>3d</fix>
</trkpt>
<trkpt lat="-27.2745704" lon="151.2893676">
  <ele>344.32</ele>
  <time>2026-09-01T19:54:09Z</time>
  <course>332.45</course>
  <speed>0.0</speed>
  <fix>3d</fix>
</trkpt>
<trkpt lat="-27.2745704" lon="151.2893679">
  <ele>344.28</ele>
  <time>2026-09-01T19:54:09Z</time>
  <course>244.72</course>
  <speed>0.02</speed>
  <fix>3d</fix>
</trkpt>
<trkpt lat="-27.2745704" lon="151.2893676">
  <ele>344.32</ele>
  <time>2026-09-01T19:54:09Z</time>
  <course>332.45</course>
  <speed>0.0</speed>
  <fix>3d</fix>
</trkpt>
<trkpt lat="-27.2745704" lon="151.2893678">
  <ele>344.24</ele>
  <time>2026-09-01T19:54:09Z</time>
  <course>149.7</course>
  <speed>0.022360679774997897</speed>
  <fix>3d</fix>
</trkpt>
<trkpt lat="-27.2745704" lon="151.2893676">
  <ele>344.22</ele>
  <time>2026-09-01T19:54:09Z</time>
  <course>319.62</course>
  <speed>0.01</speed>
  <fix>3d</fix>
</trkpt>
<trkpt lat="-27.2745704" lon="151.2893678">
  <ele>344.19</ele>
  <time>2026-09-01T19:54:09Z</time>
  <course>79.28</course>
  <speed>0.022360679774997897</speed>
  <fix>3d</fix>
</trkpt>
<trkpt lat="-27.2745704" lon="151.2893676">
  <ele>344.22</ele>
  <time>2026-09-01T19:54:09Z</time>
  <course>319.62</course>
  <speed>0.01</speed>
  <fix>3d</fix>
</trkpt>
<trkpt lat="-27.2745704" lon="151.2893678">
  <ele>344.15</ele>
  <time>2026-09-01T19:54:09Z</time>
  <course>63.8</course>
  <speed>0.022360679774997897</speed>
  <fix>3d</fix>
</trkpt>
<trkpt lat="-27.2745704" lon="151.2893676">
  <ele>344.13</ele>
  <time>2026-09-01T19:54:09Z</time>
  <course>317.8</course>
  <speed>0.01</speed>
  <fix>3d</fix>
</trkpt>
<trkpt lat="-27.2745704" lon="151.2893678">
  <ele>344.1</ele>
  <time>2026-09-01T19:54:09Z</time>
  <course>61.65</course>
  <speed>0.022360679774997897</speed>
  <fix>3d</fix>
</trkpt>
<trkpt lat="-27.2745704" lon="151.2893676">
  <ele>344.13</ele>
  <time>2026-09-01T19:54:09Z</time>
  <course>317.8</course>
  <speed>0.01</speed>
  <fix>3d</fix>
</trkpt>
<trkpt lat="-27.2745704" lon="151.2893678">
  <ele>344.06</ele>
  <time>2026-09-01T19:54:09Z</time>
  <course>82.26</course>
  <speed>0.01414213562373095</speed>
  <fix>3d</fix>
</trkpt>
<trkpt lat="-27.2745704" lon="151.2893676">
  <ele>344.04</ele>
  <time>2026-09-01T19:54:09Z</time>
  <course>316.1</course>
  <speed>0.01</speed>
  <fix>3d</fix>
</trkpt>
<trkpt lat="-27.2745704" lon="151.2893678">
  <ele>344.01</ele>
  <time>2026-09-01T19:54:09Z</time>
  <course>216.64</course>
  <speed>0.01414213562373095</speed>
  <fix>3d</fix>
</trkpt>
<trkpt lat="-27.2745704" lon="151.2893676">
  <ele>344.04</ele>
  <time>2026-09-01T19:54:09Z</time>
  <course>316.1</course>
  <speed>0.01</speed>
  <fix>3d</fix>
</trkpt>
<trkpt lat="-27.2745704" lon="151.2893678">
  <ele>343.96</ele>
  <time>2026-09-01T19:54:09Z</time>
  <course>221.85</course>
  <speed>0.01414213562373095</speed>
  <fix>3d</fix>
</trkpt>
<trkpt lat="-27.2745704" lon="151.2893676">
  <ele>343.95</ele>
  <time>2026-09-01T19:54:09Z</time>
  <course>312.41</course>
  <speed>0.02</speed>
  <fix>3d</fix>
</trkpt>
<trkpt lat="-27.2745704" lon="151.2893678">
  <ele>343.91</ele>
  <time>2026-09-01T19:54:09Z</time>
  <course>54.88</course>
  <speed>0.01414213562373095</speed>
  <fix>3d</fix>
</trkpt>
<trkpt lat="-27.2745704" lon="151.2893676">
  <ele>343.95</ele>
  <time>2026-09-01T19:54:09Z</time>
  <course>312.41</course>
  <speed>0.02</speed>
  <fix>3d</fix>
</trkpt>
<trkpt lat="-27.2745704" lon="151.2893678">
  <ele>343.85</ele>
  <time>2026-09-01T19:54:09Z</time>
  <course>84.36</course>
  <speed>0.01414213562373095</speed>
  <fix>3d</fix>
</trkpt>
<trkpt lat="-27.2745703" lon="151.2893676">
  <ele>343.84</ele>
  <time>2026-09-01T19:54:09Z</time>
  <course>309.05</course>
  <speed>0.02</speed>
  <fix>3d</fix>
</trkpt>
<trkpt lat="-27.2745703" lon="151.2893678">
  <ele>343.79</ele>
  <time>2026-09-01T19:54:09Z</time>
  <course>243.97</course>
  <speed>0.01414213562373095</speed>
  <fix>3d</fix>
</trkpt>
<trkpt lat="-27.2745703" lon="151.2893676">
  <ele>343.84</ele>
  <time>2026-09-01T19:54:09Z</time>
  <course>309.05</course>
  <speed>0.02</speed>
  <fix>3d</fix>
</trkpt>
<trkpt lat="-27.2745703" lon="151.2893678">
  <ele>343.72</ele>
  <time>2026-09-01T19:54:09Z</time>
  <course>321.62</course>
  <speed>0.022360679774997897</speed>
  <fix>3d</fix>
</trkpt>
<trkpt lat="-27.2745703" lon="151.2893675">
  <ele>343.74</ele>
  <time>2026-09-01T19:54:09Z</time>
  <course>309.7</course>
  <speed>0.02</speed>
  <fix>3d</fix>
</trkpt>
<trkpt lat="-27.2745703" lon="151.2893678">
  <ele>343.65</ele>
  <time>2026-09-01T19:54:09Z</time>
  <course>140.2</course>
  <speed>0.022360679774997897</speed>
  <fix>3d</fix>
</trkpt>
<trkpt lat="-27.2745703" lon="151.2893675">
  <ele>343.74</ele>
  <time>2026-09-01T19:54:09Z</time>
  <course>309.7</course>
  <speed>0.02</speed>
  <fix>3d</fix>
</trkpt>
<trkpt lat="-27.2745703" lon="151.2893678">
  <ele>343.58</ele>
  <time>2026-09-01T19:54:09Z</time>
  <course>291.83</course>
  <speed>0.01414213562373095</speed>
  <fix>3d</fix>
</trkpt>
<trkpt lat="-27.2745703" lon="151.2893675">
  <ele>343.61</ele>
  <time>2026-09-01T19:54:09Z</time>
  <course>316.77</course>
  <speed>0.02</speed>
  <fix>3d</fix>
</trkpt>
<trkpt lat="-27.2745703" lon="151.2893678">
  <ele>343.52</ele>
  <time>2026-09-01T19:54:09Z</time>
  <course>153.32</course>
  <speed>0.022360679774997897</speed>
  <fix>3d</fix>
</trkpt>
<trkpt lat="-27.2745703" lon="151.2893675">
  <ele>343.61</ele>
  <time>2026-09-01T19:54:09Z</time>
  <course>316.77</course>
  <speed>0.02</speed>
  <fix>3d</fix>
</trkpt>
<trkpt lat="-27.2745703" lon="151.2893678">
  <ele>343.47</ele>
  <time>2026-09-01T19:54:09Z</time>
  <course>160.81</course>
  <speed>0.022360679774997897</speed>
  <fix>3d</fix>
</trkpt>
<trkpt lat="-27.2745703" lon="151.2893675">
  <ele>343.47</ele>
  <time>2026-09-01T19:54:09Z</time>
  <course>321.3</course>
  <speed>0.02</speed>
  <fix>3d</fix>
</trkpt>
<trkpt lat="-27.2745702" lon="151.2893678">
  <ele>343.42</ele>
  <time>2026-09-01T19:54:09Z</time>
  <course>159.14</course>
  <speed>0.022360679774997897</speed>
  <fix>3d</fix>
</trkpt>
<trkpt lat="-27.2745703" lon="151.2893675">
  <ele>343.47</ele>
  <time>2026-09-01T19:54:09Z</time>
  <course>321.3</course>
  <speed>0.02</speed>
  <fix>3d</fix>
</trkpt>
<trkpt lat="-27.2745702" lon="151.2893678">
  <ele>343.38</ele>
  <time>2026-09-01T19:54:09Z</time>
  <course>160.13</course>
  <speed>0.022360679774997897</speed>
  <fix>3d</fix>
</trkpt>
<trkpt lat="-27.2745702" lon="151.2893674">
  <ele>343.36</ele>
  <time>2026-09-01T19:54:09Z</time>
  <course>319.39</course>
  <speed>0.02</speed>
  <fix>3d</fix>
</trkpt>
<trkpt lat="-27.2745702" lon="151.2893678">
  <ele>343.34</ele>
  <time>2026-09-01T19:54:09Z</time>
  <course>160.43</course>
  <speed>0.022360679774997897</speed>
  <fix>3d</fix>
</trkpt>
<trkpt lat="-27.2745702" lon="151.2893674">
  <ele>343.36</ele>
  <time>2026-09-01T19:54:09Z</time>
  <course>319.39</course>
  <speed>0.02</speed>
  <fix>3d</fix>
</trkpt>
<trkpt lat="-27.2745702" lon="151.2893677">
  <ele>343.3</ele>
  <time>2026-09-01T19:54:09Z</time>
  <course>160.13</course>
  <speed>0.022360679774997897</speed>
  <fix>3d</fix>
</trkpt>
<trkpt lat="-27.2745702" lon="151.2893674">
  <ele>343.26</ele>
  <time>2026-09-01T19:54:09Z</time>
  <course>319.11</course>
  <speed>0.02</speed>
  <fix>3d</fix>
</trkpt>
<trkpt lat="-27.2745702" lon="151.2893677">
  <ele>343.26</ele>
  <time>2026-09-01T19:54:09Z</time>
  <course>157.06</course>
  <speed>0.022360679774997897</speed>
  <fix>3d</fix>
</trkpt>
<trkpt lat="-27.2745702" lon="151.2893674">
  <ele>343.26</ele>
  <time>2026-09-01T19:54:09Z</time>
  <course>319.11</course>
  <speed>0.02</speed>
  <fix>3d</fix>
</trkpt>
<trkpt lat="-27.2745702" lon="151.2893677">
  <ele>343.22</ele>
  <time>2026-09-01T19:54:09Z</time>
  <course>155.06</course>
  <speed>0.022360679774997897</speed>
  <fix>3d</fix>
</trkpt>
<trkpt lat="-27.2745702" lon="151.2893674">
  <ele>343.18</ele>
  <time>2026-09-01T19:54:09Z</time>
  <course>317.36</course>
  <speed>0.02</speed>
  <fix>3d</fix>
</trkpt>
<trkpt lat="-27.2745702" lon="151.2893677">
  <ele>343.19</ele>
  <time>2026-09-01T19:54:09Z</time>
  <course>134.1</course>
  <speed>0.03</speed>
  <fix>3d</fix>
</trkpt>
<trkpt lat="-27.2745702" lon="151.2893674">
  <ele>343.18</ele>
  <time>2026-09-01T19:54:09Z</time>
  <course>317.36</course>
  <speed>0.02</speed>
  <fix>3d</fix>
</trkpt>
<trkpt lat="-27.2745702" lon="151.2893677">
  <ele>343.18</ele>
  <time>2026-09-01T19:54:09Z</time>
  <course>113.15</course>
  <speed>0.04</speed>
  <fix>3d</fix>
</trkpt>
<trkpt lat="-27.2745701" lon="151.2893674">
  <ele>343.1</ele>
  <time>2026-09-01T19:54:09Z</time>
  <course>314.21</course>
  <speed>0.01</speed>
  <fix>3d</fix>
</trkpt>
<trkpt lat="-27.2745702" lon="151.2893677">
  <ele>343.19</ele>
  <time>2026-09-01T19:54:09Z</time>
  <course>105.9</course>
  <speed>0.04</speed>
  <fix>3d</fix>
</trkpt>
<trkpt lat="-27.2745701" lon="151.2893674">
  <ele>343.1</ele>
  <time>2026-09-01T19:54:09Z</time>
  <course>314.21</course>
  <speed>0.01</speed>
  <fix>3d</fix>
</trkpt>
<trkpt lat="-27.2745702" lon="151.2893677">
  <ele>343.2</ele>
  <time>2026-09-01T19:54:09Z</time>
  <course>103.35</course>
  <speed>0.04</speed>
  <fix>3d</fix>
</trkpt>
<trkpt lat="-27.2745701" lon="151.2893674">
  <ele>343.07</ele>
  <time>2026-09-01T19:54:09Z</time>
  <course>311.75</course>
  <speed>0.0</speed>
  <fix>3d</fix>
</trkpt>
<trkpt lat="-27.2745702" lon="151.2893677">
  <ele>343.2</ele>
  <time>2026-09-01T19:54:09Z</time>
  <course>102.37</course>
  <speed>0.04</speed>
  <fix>3d</fix>
</trkpt>
<trkpt lat="-27.2745701" lon="151.2893674">
  <ele>343.07</ele>
  <time>2026-09-01T19:54:09Z</time>
  <course>311.75</course>
  <speed>0.0</speed>
  <fix>3d</fix>
</trkpt>
<trkpt lat="-27.2745702" lon="151.2893677">
  <ele>343.2</ele>
  <time>2026-09-01T19:54:09Z</time>
  <course>102.03</course>
  <speed>0.04</speed>
  <fix>3d</fix>
</trkpt>
<trkpt lat="-27.2745701" lon="151.2893674">
  <ele>343.07</ele>
  <time>2026-09-01T19:54:09Z</time>
  <course>131.75</course>
  <speed>0.0</speed>
  <fix>3d</fix>
</trkpt>
<trkpt lat="-27.2745702" lon="151.2893677">
  <ele>343.2</ele>
  <time>2026-09-01T19:54:09Z</time>
  <course>101.9</course>
  <speed>0.04</speed>
  <fix>3d</fix>
</trkpt>
<trkpt lat="-27.2745701" lon="151.2893674">
  <ele>343.07</ele>
  <time>2026-09-01T19:54:09Z</time>
  <course>131.75</course>
  <speed>0.0</speed>
  <fix>3d</fix>
</trkpt>
<trkpt lat="-27.2745702" lon="151.2893677">
  <ele>343.2</ele>
  <time>2026-09-01T19:54:09Z</time>
  <course>101.83</course>
  <speed>0.04</speed>
  <fix>3d</fix>
</trkpt>
<trkpt lat="-27.2745701" lon="151.2893674">
  <ele>343.08</ele>
  <time>2026-09-01T19:54:09Z</time>
  <course>131.06</course>
  <speed>0.0</speed>
  <fix>3d</fix>
</trkpt>
<trkpt lat="-27.2745702" lon="151.2893677">
  <ele>343.2</ele>
  <time>2026-09-01T19:54:09Z</time>
  <course>101.77</course>
  <speed>0.04</speed>
  <fix>3d</fix>
</trkpt>
<trkpt lat="-27.2745701" lon="151.2893674">
  <ele>343.08</ele>
  <time>2026-09-01T19:54:09Z</time>
  <course>131.06</course>
  <speed>0.0</speed>
  <fix>3d</fix>
</trkpt>
<trkpt lat="-27.2745702" lon="151.2893677">
  <ele>343.2</ele>
  <time>2026-09-01T19:54:09Z</time>
  <course>101.8</course>
  <speed>0.04</speed>
  <fix>3d</fix>
</trkpt>
<trkpt lat="-27.2745701" lon="151.2893674">
  <ele>343.08</ele>
  <time>2026-09-01T19:54:09Z</time>
  <course>311.79</course>
  <speed>0.0</speed>
  <fix>3d</fix>
</trkpt>
<trkpt lat="-27.2745702" lon="151.2893677">
  <ele>343.2</ele>
  <time>2026-09-01T19:54:09Z</time>
  <course>101.81</course>
  <speed>0.04</speed>
  <fix>3d</fix>
</trkpt>
<trkpt lat="-27.2745701" lon="151.2893674">
  <ele>343.08</ele>
  <time>2026-09-01T19:54:09Z</time>
  <course>311.79</course>
  <speed>0.0</speed>
  <fix>3d</fix>
</trkpt>
<trkpt lat="-27.2745702" lon="151.2893677">
  <ele>343.2</ele>
  <time>2026-09-01T19:54:09Z</time>
  <course>101.85</course>
  <speed>0.04</speed>
  <fix>3d</fix>
</trkpt>
<trkpt lat="-27.2745701" lon="151.2893674">
  <ele>343.08</ele>
  <time>2026-09-01T19:54:09Z</time>
  <course>131.29</course>
  <speed>0.0</speed>
  <fix>3d</fix>
</trkpt>
<trkpt lat="-27.2745702" lon="151.2893677">
  <ele>343.2</ele>
  <time>2026-09-01T19:54:09Z</time>
  <course>101.77</course>
  <speed>0.04</speed>
  <fix>3d</fix>
</trkpt>
<trkpt lat="-27.2745701" lon="151.2893674">
  <ele>343.08</ele>
  <time>2026-09-01T19:54:09Z</time>
  <course>131.29</course>
  <speed>0.0</speed>
  <fix>3d</fix>
</trkpt>
<trkpt lat="-27.2745702" lon="151.2893677">
  <ele>343.2</ele>
  <time>2026-09-01T19:54:09Z</time>
  <course>101.8</course>
  <speed>0.04</speed>
  <fix>3d</fix>
</trkpt>
<trkpt lat="-27.2745701" lon="151.2893674">
  <ele>343.08</ele>
  <time>2026-09-01T19:54:09Z</time>
  <course>131.26</course>
  <speed>0.0</speed>
  <fix>3d</fix>
</trkpt>
<trkpt lat="-27.2745702" lon="151.2893677">
  <ele>343.2</ele>
  <time>2026-09-01T19:54:09Z</time>
  <course>101.81</course>
  <speed>0.04</speed>
  <fix>3d</fix>
</trkpt>
<trkpt lat="-27.2745701" lon="151.2893674">
  <ele>343.08</ele>
  <time>2026-09-01T19:54:09Z</time>
  <course>131.26</course>
  <speed>0.0</speed>
  <fix>3d</fix>
</trkpt>
<trkpt lat="-27.2745702" lon="151.2893677">
  <ele>343.2</ele>
  <time>2026-09-01T19:54:09Z</time>
  <course>101.85</course>
  <speed>0.03</speed>
  <fix>3d</fix>
</trkpt>
<trkpt lat="-27.2745701" lon="151.2893674">
  <ele>343.08</ele>
  <time>2026-09-01T19:54:09Z</time>
  <course>313.07</course>
  <speed>0.0</speed>
  <fix>3d</fix>
</trkpt>
<trkpt lat="-27.2745702" lon="151.2893677">
  <ele>343.2</ele>
  <time>2026-09-01T19:54:09Z</time>
  <course>101.88</course>
  <speed>0.04</speed>
  <fix>3d</fix>
</trkpt>
<trkpt lat="-27.2745701" lon="151.2893674">
  <ele>343.08</ele>
  <time>2026-09-01T19:54:09Z</time>
  <course>313.07</course>
  <speed>0.0</speed>
  <fix>3d</fix>
</trkpt>
<trkpt lat="-27.2745702" lon="151.2893677">
  <ele>343.2</ele>
  <time>2026-09-01T19:54:09Z</time>
  <course>101.89</course>
  <speed>0.03</speed>
  <fix>3d</fix>
</trkpt>
<trkpt lat="-27.2745701" lon="151.2893674">
  <ele>343.08</ele>
  <time>2026-09-01T19:54:09Z</time>
  <course>313.61</course>
  <speed>0.0</speed>
  <fix>3d</fix>
</trkpt>
<trkpt lat="-27.2745702" lon="151.2893677">
  <ele>343.2</ele>
  <time>2026-09-01T19:54:09Z</time>
  <course>101.86</course>
  <speed>0.03</speed>
  <fix>3d</fix>
</trkpt>
<trkpt lat="-27.2745701" lon="151.2893674">
  <ele>343.08</ele>
  <time>2026-09-01T19:54:09Z</time>
  <course>313.61</course>
  <speed>0.0</speed>
  <fix>3d</fix>
</trkpt>
<trkpt lat="-27.2745702" lon="151.2893677">
  <ele>343.2</ele>
  <time>2026-09-01T19:54:09Z</time>
  <course>101.9</course>
  <speed>0.03</speed>
  <fix>3d</fix>
</trkpt>
<trkpt lat="-27.2745701" lon="151.2893674">
  <ele>343.08</ele>
  <time>2026-09-01T19:54:09Z</time>
  <course>127.06</course>
  <speed>0.0</speed>
  <fix>3d</fix>
</trkpt>
<trkpt lat="-27.2745702" lon="151.2893677">
  <ele>343.2</ele>
  <time>2026-09-01T19:54:09Z</time>
  <course>101.93</course>
  <speed>0.03</speed>
  <fix>3d</fix>
</trkpt>
<trkpt lat="-27.2745701" lon="151.2893674">
  <ele>343.08</ele>
  <time>2026-09-01T19:54:09Z</time>
  <course>127.06</course>
  <speed>0.0</speed>
  <fix>3d</fix>
</trkpt>
<trkpt lat="-27.2745702" lon="151.2893677">
  <ele>343.2</ele>
  <time>2026-09-01T19:54:09Z</time>
  <course>101.97</course>
  <speed>0.03</speed>
  <fix>3d</fix>
</trkpt>
<trkpt lat="-27.2745701" lon="151.2893674">
  <ele>343.08</ele>
  <time>2026-09-01T19:54:09Z</time>
  <course>109.31</course>
  <speed>0.0</speed>
  <fix>3d</fix>
</trkpt>
<trkpt lat="-27.2745702" lon="151.2893677">
  <ele>343.2</ele>
  <time>2026-09-01T19:54:09Z</time>
  <course>101.97</course>
  <speed>0.03</speed>
  <fix>3d</fix>
</trkpt>
<trkpt lat="-27.2745701" lon="151.2893674">
  <ele>343.08</ele>
  <time>2026-09-01T19:54:09Z</time>
  <course>109.31</course>
  <speed>0.0</speed>
  <fix>3d</fix>
</trkpt>
<trkpt lat="-27.2745702" lon="151.2893677">
  <ele>343.2</ele>
  <time>2026-09-01T19:54:09Z</time>
  <course>102.0</course>
  <speed>0.03</speed>
  <fix>3d</fix>
</trkpt>
<trkpt lat="-27.2745701" lon="151.2893674">
  <ele>343.08</ele>
  <time>2026-09-01T19:54:09Z</time>
  <course>352.38</course>
  <speed>0.0</speed>
  <fix>3d</fix>
</trkpt>
<trkpt lat="-27.2745702" lon="151.2893677">
  <ele>343.2</ele>
  <time>2026-09-01T19:54:09Z</time>
  <course>102.0</course>
  <speed>0.03</speed>
  <fix>3d</fix>
</trkpt>
<trkpt lat="-27.2745701" lon="151.2893674">
  <ele>343.08</ele>
  <time>2026-09-01T19:54:09Z</time>
  <course>352.38</course>
  <speed>0.0</speed>
  <fix>3d</fix>
</trkpt>
<trkpt lat="-27.2745702" lon="151.2893677">
  <ele>343.2</ele>
  <time>2026-09-01T19:54:09Z</time>
  <course>102.02</course>
  <speed>0.03</speed>
  <fix>3d</fix>
</trkpt>
<trkpt lat="-27.2745701" lon="151.2893674">
  <ele>343.08</ele>
  <time>2026-09-01T19:54:09Z</time>
  <course>116.01</course>
  <speed>0.0</speed>
  <fix>3d</fix>
</trkpt>
<trkpt lat="-27.2745702" lon="151.2893677">
  <ele>343.2</ele>
  <time>2026-09-01T19:54:09Z</time>
  <course>102.04</course>
  <speed>0.03</speed>
  <fix>3d</fix>
</trkpt>
<trkpt lat="-27.2745701" lon="151.2893674">
  <ele>343.08</ele>
  <time>2026-09-01T19:54:09Z</time>
  <course>116.01</course>
  <speed>0.0</speed>
  <fix>3d</fix>
</trkpt>
<trkpt lat="-27.2745702" lon="151.2893677">
  <ele>343.21</ele>
  <time>2026-09-01T19:54:09Z</time>
  <course>102.09</course>
  <speed>0.03</speed>
  <fix>3d</fix>
</trkpt>
<trkpt lat="-27.2745701" lon="151.2893674">
  <ele>343.08</ele>
  <time>2026-09-01T19:54:09Z</time>
  <course>125.25</course>
  <speed>0.0</speed>
  <fix>3d</fix>
</trkpt>
<trkpt lat="-27.2745702" lon="151.2893677">
  <ele>343.21</ele>
  <time>2026-09-01T19:54:09Z</time>
  <course>102.09</course>
  <speed>0.03</speed>
  <fix>3d</fix>
</trkpt>
<trkpt lat="-27.2745701" lon="151.2893674">
  <ele>343.08</ele>
  <time>2026-09-01T19:54:09Z</time>
  <course>125.25</course>
  <speed>0.0</speed>
  <fix>3d</fix>
</trkpt>
<trkpt lat="-27.2745702" lon="151.2893677">
  <ele>343.21</ele>
  <time>2026-09-01T19:54:09Z</time>
  <course>102.14</course>
  <speed>0.03</speed>
  <fix>3d</fix>
</trkpt>
<trkpt lat="-27.2745701" lon="151.2893674">
  <ele>343.08</ele>
  <time>2026-09-01T19:54:09Z</time>
  <course>122.33</course>
  <speed>0.0</speed>
  <fix>3d</fix>
</trkpt>
<trkpt lat="-27.2745702" lon="151.2893677">
  <ele>343.21</ele>
  <time>2026-09-01T19:54:09Z</time>
  <course>102.16</course>
  <speed>0.03</speed>
  <fix>3d</fix>
</trkpt>
<trkpt lat="-27.2745701" lon="151.2893674">
  <ele>343.08</ele>
  <time>2026-09-01T19:54:09Z</time>
  <course>122.33</course>
  <speed>0.0</speed>
  <fix>3d</fix>
</trkpt>
<trkpt lat="-27.2745702" lon="151.2893677">
  <ele>343.21</ele>
  <time>2026-09-01T19:54:09Z</time>
  <course>102.2</course>
  <speed>0.03</speed>
  <fix>3d</fix>
</trkpt>
<trkpt lat="-27.2745701" lon="151.2893674">
  <ele>343.08</ele>
  <time>2026-09-01T19:54:09Z</time>
  <course>117.87</course>
  <speed>0.0</speed>
  <fix>3d</fix>
</trkpt>
<trkpt lat="-27.2745702" lon="151.2893677">
  <ele>343.21</ele>
  <time>2026-09-01T19:54:09Z</time>
  <course>102.22</course>
  <speed>0.03</speed>
  <fix>3d</fix>
</trkpt>
<trkpt lat="-27.2745701" lon="151.2893674">
  <ele>343.08</ele>
  <time>2026-09-01T19:54:09Z</time>
  <course>117.87</course>
  <speed>0.0</speed>
  <fix>3d</fix>
</trkpt>
<trkpt lat="-27.2745702" lon="151.2893677">
  <ele>343.21</ele>
  <time>2026-09-01T19:54:09Z</time>
  <course>102.2</course>
  <speed>0.03</speed>
  <fix>3d</fix>
</trkpt>
<trkpt lat="-27.2745701" lon="151.2893674">
  <ele>343.08</ele>
  <time>2026-09-01T19:54:09Z</time>
  <course>117.59</course>
  <speed>0.0</speed>
  <fix>3d</fix>
</trkpt>
<trkpt lat="-27.2745702" lon="151.2893677">
  <ele>343.21</ele>
  <time>2026-09-01T19:54:09Z</time>
  <course>102.18</course>
  <speed>0.03</speed>
  <fix>3d</fix>
</trkpt>
<trkpt lat="-27.2745701" lon="151.2893674">
  <ele>343.08</ele>
  <time>2026-09-01T19:54:09Z</time>
  <course>117.59</course>
  <speed>0.0</speed>
  <fix>3d</fix>
</trkpt>
<trkpt lat="-27.2745702" lon="151.2893677">
  <ele>343.21</ele>
  <time>2026-09-01T19:54:09Z</time>
  <course>102.13</course>
  <speed>0.03</speed>
  <fix>3d</fix>
</trkpt>
<trkpt lat="-27.2745701" lon="151.2893674">
  <ele>343.08</ele>
  <time>2026-09-01T19:54:09Z</time>
  <course>278.09</course>
  <speed>0.0</speed>
  <fix>3d</fix>
</trkpt>
<trkpt lat="-27.2745702" lon="151.2893677">
  <ele>343.22</ele>
  <time>2026-09-01T19:54:09Z</time>
  <course>102.09</course>
  <speed>0.03</speed>
  <fix>3d</fix>
</trkpt>
<trkpt lat="-27.2745701" lon="151.2893674">
  <ele>343.08</ele>
  <time>2026-09-01T19:54:09Z</time>
  <course>278.09</course>
  <speed>0.0</speed>
  <fix>3d</fix>
</trkpt>
<trkpt lat="-27.2745702" lon="151.2893677">
  <ele>343.22</ele>
  <time>2026-09-01T19:54:09Z</time>
  <course>102.14</course>
  <speed>0.03</speed>
  <fix>3d</fix>
</trkpt>
<trkpt lat="-27.2745701" lon="151.2893674">
  <ele>343.08</ele>
  <time>2026-09-01T19:54:09Z</time>
  <course>280.33</course>
  <speed>0.0</speed>
  <fix>3d</fix>
</trkpt>
<trkpt lat="-27.2745702" lon="151.2893677">
  <ele>343.22</ele>
  <time>2026-09-01T19:54:09Z</time>
  <course>102.16</course>
  <speed>0.03</speed>
  <fix>3d</fix>
</trkpt>
<trkpt lat="-27.2745701" lon="151.2893674">
  <ele>343.08</ele>
  <time>2026-09-01T19:54:09Z</time>
  <course>280.33</course>
  <speed>0.0</speed>
  <fix>3d</fix>
</trkpt>
<trkpt lat="-27.2745702" lon="151.2893677">
  <ele>343.22</ele>
  <time>2026-09-01T19:54:09Z</time>
  <course>102.13</course>
  <speed>0.03</speed>
  <fix>3d</fix>
</trkpt>
<trkpt lat="-27.2745701" lon="151.2893674">
  <ele>343.08</ele>
  <time>2026-09-01T19:54:09Z</time>
  <course>98.69</course>
  <speed>0.0</speed>
  <fix>3d</fix>
</trkpt>
<trkpt lat="-27.2745702" lon="151.2893677">
  <ele>343.22</ele>
  <time>2026-09-01T19:54:09Z</time>
  <course>102.14</course>
  <speed>0.03</speed>
  <fix>3d</fix>
</trkpt>
<trkpt lat="-27.2745701" lon="151.2893674">
  <ele>343.08</ele>
  <time>2026-09-01T19:54:09Z</time>
  <course>98.69</course>
  <speed>0.0</speed>
  <fix>3d</fix>
</trkpt>
<trkpt lat="-27.2745702" lon="151.2893677">
  <ele>343.22</ele>
  <time>2026-09-01T19:54:09Z</time>
  <course>102.2</course>
  <speed>0.03</speed>
  <fix>3d</fix>
</trkpt>
<trkpt lat="-27.2745701" lon="151.2893674">
  <ele>343.08</ele>
  <time>2026-09-01T19:54:09Z</time>
  <course>100.63</course>
  <speed>0.0</speed>
  <fix>3d</fix>
</trkpt>
<trkpt lat="-27.2745702" lon="151.2893677">
  <ele>343.22</ele>
  <time>2026-09-01T19:54:09Z</time>
  <course>102.19</course>
  <speed>0.03</speed>
  <fix>3d</fix>
</trkpt>
<trkpt lat="-27.2745701" lon="151.2893674">
  <ele>343.08</ele>
  <time>2026-09-01T19:54:09Z</time>
  <course>100.63</course>
  <speed>0.0</speed>
  <fix>3d</fix>
</trkpt>
<trkpt lat="-27.2745702" lon="151.2893677">
  <ele>343.22</ele>
  <time>2026-09-01T19:54:09Z</time>
  <course>102.23</course>
  <speed>0.03</speed>
  <fix>3d</fix>
</trkpt>
<trkpt lat="-27.2745701" lon="151.2893674">
  <ele>343.08</ele>
  <time>2026-09-01T19:54:09Z</time>
  <course>279.39</course>
  <speed>0.0</speed>
  <fix>3d</fix>
</trkpt>
<trkpt lat="-27.2745702" lon="151.2893677">
  <ele>343.22</ele>
  <time>2026-09-01T19:54:09Z</time>
  <course>102.26</course>
  <speed>0.03</speed>
  <fix>3d</fix>
</trkpt>
<trkpt lat="-27.2745701" lon="151.2893674">
  <ele>343.08</ele>
  <time>2026-09-01T19:54:09Z</time>
  <course>279.39</course>
  <speed>0.0</speed>
  <fix>3d</fix>
</trkpt>
<trkpt lat="-27.2745702" lon="151.2893677">
  <ele>343.22</ele>
  <time>2026-09-01T19:54:09Z</time>
  <course>102.27</course>
  <speed>0.03</speed>
  <fix>3d</fix>
</trkpt>
<trkpt lat="-27.2745701" lon="151.2893674">
  <ele>343.08</ele>
  <time>2026-09-01T19:54:09Z</time>
  <course>281.14</course>
  <speed>0.0</speed>
  <fix>3d</fix>
</trkpt>
<trkpt lat="-27.2745702" lon="151.2893677">
  <ele>343.23</ele>
  <time>2026-09-01T19:54:09Z</time>
  <course>102.29</course>
  <speed>0.03</speed>
  <fix>3d</fix>
</trkpt>
<trkpt lat="-27.2745701" lon="151.2893674">
  <ele>343.08</ele>
  <time>2026-09-01T19:54:09Z</time>
  <course>281.14</course>
  <speed>0.0</speed>
  <fix>3d</fix>
</trkpt>
<trkpt lat="-27.2745702" lon="151.2893677">
  <ele>343.23</ele>
  <time>2026-09-01T19:54:09Z</time>
  <course>102.29</course>
  <speed>0.03</speed>
  <fix>3d</fix>
</trkpt>
<trkpt lat="-27.2745701" lon="151.2893674">
  <ele>343.08</ele>
  <time>2026-09-01T19:54:09Z</time>
  <course>99.75</course>
  <speed>0.0</speed>
  <fix>3d</fix>
</trkpt>
<trkpt lat="-27.2745702" lon="151.2893677">
  <ele>343.23</ele>
  <time>2026-09-01T19:54:09Z</time>
  <course>102.29</course>
  <speed>0.03</speed>
  <fix>3d</fix>
</trkpt>
<trkpt lat="-27.2745701" lon="151.2893674">
  <ele>343.08</ele>
  <time>2026-09-01T19:54:09Z</time>
  <course>99.75</course>
  <speed>0.0</speed>
  <fix>3d</fix>
</trkpt>
<trkpt lat="-27.2745702" lon="151.2893677">
  <ele>343.23</ele>
  <time>2026-09-01T19:54:09Z</time>
  <course>102.31</course>
  <speed>0.03</speed>
  <fix>3d</fix>
</trkpt>
<trkpt lat="-27.2745701" lon="151.2893674">
  <ele>343.08</ele>
  <time>2026-09-01T19:54:09Z</time>
  <course>102.63</course>
  <speed>0.0</speed>
  <fix>3d</fix>
</trkpt>
<trkpt lat="-27.2745702" lon="151.2893677">
  <ele>343.23</ele>
  <time>2026-09-01T19:54:09Z</time>
  <course>102.2</course>
  <speed>0.03</speed>
  <fix>3d</fix>
</trkpt>
<trkpt lat="-27.2745701" lon="151.2893674">
  <ele>343.08</ele>
  <time>2026-09-01T19:54:09Z</time>
  <course>102.63</course>
  <speed>0.0</speed>
  <fix>3d</fix>
</trkpt>
<trkpt lat="-27.2745702" lon="151.2893677">
  <ele>343.23</ele>
  <time>2026-09-01T19:54:10Z</time>
  <course>102.23</course>
  <speed>0.03</speed>
  <fix>3d</fix>
</trkpt>
<trkpt lat="-27.2745701" lon="151.2893674">
  <ele>343.08</ele>
  <time>2026-09-01T19:54:10Z</time>
  <course>280.01</course>
  <speed>0.0</speed>
  <fix>3d</fix>
</trkpt>
<trkpt lat="-27.2745702" lon="151.2893677">
  <ele>343.23</ele>
  <time>2026-09-01T19:54:10Z</time>
  <course>102.25</course>
  <speed>0.03</speed>
  <fix>3d</fix>
</trkpt>
<trkpt lat="-27.2745701" lon="151.2893674">
  <ele>343.08</ele>
  <time>2026-09-01T19:54:10Z</time>
  <course>280.01</course>
  <speed>0.0</speed>
  <fix>3d</fix>
</trkpt>
<trkpt lat="-27.2745702" lon="151.2893677">
  <ele>343.23</ele>
  <time>2026-09-01T19:54:10Z</time>
  <course>102.31</course>
  <speed>0.03</speed>
  <fix>3d</fix>
</trkpt>
<trkpt lat="-27.2745701" lon="151.2893674">
  <ele>343.08</ele>
  <time>2026-09-01T19:54:10Z</time>
  <course>87.41</course>
  <speed>0.0</speed>
  <fix>3d</fix>
</trkpt>
<trkpt lat="-27.2745702" lon="151.2893677">
  <ele>343.23</ele>
  <time>2026-09-01T19:54:10Z</time>
  <course>102.23</course>
  <speed>0.03</speed>
  <fix>3d</fix>
</trkpt>
<trkpt lat="-27.2745701" lon="151.2893674">
  <ele>343.08</ele>
  <time>2026-09-01T19:54:10Z</time>
  <course>87.41</course>
  <speed>0.0</speed>
  <fix>3d</fix>
</trkpt>
<trkpt lat="-27.2745702" lon="151.2893677">
  <ele>343.23</ele>
  <time>2026-09-01T19:54:10Z</time>
  <course>102.29</course>
  <speed>0.03</speed>
  <fix>3d</fix>
</trkpt>
<trkpt lat="-27.2745701" lon="151.2893674">
  <ele>343.08</ele>
  <time>2026-09-01T19:54:10Z</time>
  <course>100.25</course>
  <speed>0.0</speed>
  <fix>3d</fix>
</trkpt>
<trkpt lat="-27.2745702" lon="151.2893677">
  <ele>343.23</ele>
  <time>2026-09-01T19:54:10Z</time>
  <course>102.3</course>
  <speed>0.03</speed>
  <fix>3d</fix>
</trkpt>
<trkpt lat="-27.2745701" lon="151.2893674">
  <ele>343.08</ele>
  <time>2026-09-01T19:54:10Z</time>
  <course>100.25</course>
  <speed>0.0</speed>
  <fix>3d</fix>
</trkpt>
<trkpt lat="-27.2745702" lon="151.2893677">
  <ele>343.23</ele>
  <time>2026-09-01T19:54:10Z</time>
  <course>102.3</course>
  <speed>0.03</speed>
  <fix>3d</fix>
</trkpt>
<trkpt lat="-27.2745701" lon="151.2893674">
  <ele>343.08</ele>
  <time>2026-09-01T19:54:10Z</time>
  <course>278.29</course>
  <speed>0.0</speed>
  <fix>3d</fix>
</trkpt>
<trkpt lat="-27.2745702" lon="151.2893677">
  <ele>343.23</ele>
  <time>2026-09-01T19:54:10Z</time>
  <course>102.3</course>
  <speed>0.03</speed>
  <fix>3d</fix>
</trkpt>
<trkpt lat="-27.2745701" lon="151.2893674">
  <ele>343.08</ele>
  <time>2026-09-01T19:54:10Z</time>
  <course>278.29</course>
  <speed>0.0</speed>
  <fix>3d</fix>
</trkpt>
<trkpt lat="-27.2745702" lon="151.2893677">
  <ele>343.23</ele>
  <time>2026-09-01T19:54:10Z</time>
  <course>102.29</course>
  <speed>0.03</speed>
  <fix>3d</fix>
</trkpt>
<trkpt lat="-27.2745701" lon="151.2893674">
  <ele>343.08</ele>
  <time>2026-09-01T19:54:10Z</time>
  <course>280.53</course>
  <speed>0.0</speed>
  <fix>3d</fix>
</trkpt>
<trkpt lat="-27.2745702" lon="151.2893677">
  <ele>343.23</ele>
  <time>2026-09-01T19:54:10Z</time>
  <course>102.26</course>
  <speed>0.03</speed>
  <fix>3d</fix>
</trkpt>
<trkpt lat="-27.2745701" lon="151.2893674">
  <ele>343.08</ele>
  <time>2026-09-01T19:54:10Z</time>
  <course>280.53</course>
  <speed>0.0</speed>
  <fix>3d</fix>
</trkpt>
<trkpt lat="-27.2745702" lon="151.2893677">
  <ele>343.23</ele>
  <time>2026-09-01T19:54:10Z</time>
  <course>102.3</course>
  <speed>0.03</speed>
  <fix>3d</fix>
</trkpt>
<trkpt lat="-27.2745701" lon="151.2893674">
  <ele>343.08</ele>
  <time>2026-09-01T19:54:10Z</time>
  <course>99.24</course>
  <speed>0.0</speed>
  <fix>3d</fix>
</trkpt>
<trkpt lat="-27.2745702" lon="151.2893677">
  <ele>343.23</ele>
  <time>2026-09-01T19:54:10Z</time>
  <course>102.27</course>
  <speed>0.03</speed>
  <fix>3d</fix>
</trkpt>
<trkpt lat="-27.2745701" lon="151.2893674">
  <ele>343.08</ele>
  <time>2026-09-01T19:54:10Z</time>
  <course>99.24</course>
  <speed>0.0</speed>
  <fix>3d</fix>
</trkpt>
<trkpt lat="-27.2745702" lon="151.2893677">
  <ele>343.08</ele>
  <time>2026-09-01T19:54:10Z</time>
  <course>102.35</course>
  <speed>0.03</speed>
  <fix>3d</fix>
</trkpt>
<trkpt lat="-27.2745701" lon="151.2893674">
  <ele>343.08</ele>
  <time>2026-09-01T19:54:10Z</time>
  <course>100.95</course>
  <speed>0.0</speed>
  <fix>3d</fix>
</trkpt>
<trkpt lat="-27.2745702" lon="151.2893677">
  <ele>343.08</ele>
  <time>2026-09-01T19:54:10Z</time>
  <course>102.29</course>
  <speed>0.03</speed>
  <fix>3d</fix>
</trkpt>
<trkpt lat="-27.2745701" lon="151.2893674">
  <ele>343.08</ele>
  <time>2026-09-01T19:54:10Z</time>
  <course>100.95</course>
  <speed>0.0</speed>
  <fix>3d</fix>
</trkpt>
<trkpt lat="-27.2745702" lon="151.2893677">
  <ele>343.08</ele>
  <time>2026-09-01T19:54:10Z</time>
  <course>102.3</course>
  <speed>0.03</speed>
  <fix>3d</fix>
</trkpt>
<trkpt lat="-27.2745701" lon="151.2893674">
  <ele>343.08</ele>
  <time>2026-09-01T19:54:10Z</time>
  <course>279.66</course>
  <speed>0.0</speed>
  <fix>3d</fix>
</trkpt>
<trkpt lat="-27.2745702" lon="151.2893677">
  <ele>343.08</ele>
  <time>2026-09-01T19:54:10Z</time>
  <course>102.21</course>
  <speed>0.03</speed>
  <fix>3d</fix>
</trkpt>
<trkpt lat="-27.2745701" lon="151.2893674">
  <ele>343.08</ele>
  <time>2026-09-01T19:54:10Z</time>
  <course>279.66</course>
  <speed>0.0</speed>
  <fix>3d</fix>
</trkpt>
<trkpt lat="-27.2745702" lon="151.2893677">
  <ele>343.08</ele>
  <time>2026-09-01T19:54:10Z</time>
  <course>102.24</course>
  <speed>0.03</speed>
  <fix>3d</fix>
</trkpt>
<trkpt lat="-27.2745701" lon="151.2893674">
  <ele>343.08</ele>
  <time>2026-09-01T19:54:10Z</time>
  <course>281.94</course>
  <speed>0.0</speed>
  <fix>3d</fix>
</trkpt>
<trkpt lat="-27.2745702" lon="151.2893677">
  <ele>343.08</ele>
  <time>2026-09-01T19:54:10Z</time>
  <course>102.2</course>
  <speed>0.03</speed>
  <fix>3d</fix>
</trkpt>
<trkpt lat="-27.2745701" lon="151.2893674">
  <ele>343.08</ele>
  <time>2026-09-01T19:54:10Z</time>
  <course>281.94</course>
  <speed>0.0</speed>
  <fix>3d</fix>
</trkpt>
<trkpt lat="-27.2745702" lon="151.2893677">
  <ele>343.08</ele>
  <time>2026-09-01T19:54:10Z</time>
  <course>102.17</course>
  <speed>0.03</speed>
  <fix>3d</fix>
</trkpt>
<trkpt lat="-27.2745701" lon="151.2893674">
  <ele>343.08</ele>
  <time>2026-09-01T19:54:10Z</time>
  <course>99.93</course>
  <speed>0.0</speed>
  <fix>3d</fix>
</trkpt>
<trkpt lat="-27.2745702" lon="151.2893677">
  <ele>343.08</ele>
  <time>2026-09-01T19:54:10Z</time>
  <course>102.16</course>
  <speed>0.03</speed>
  <fix>3d</fix>
</trkpt>
<trkpt lat="-27.2745701" lon="151.2893674">
  <ele>343.08</ele>
  <time>2026-09-01T19:54:10Z</time>
  <course>99.93</course>
  <speed>0.0</speed>
  <fix>3d</fix>
</trkpt>
<trkpt lat="-27.2745702" lon="151.2893677">
  <ele>343.08</ele>
  <time>2026-09-01T19:54:10Z</time>
  <course>102.19</course>
  <speed>0.03</speed>
  <fix>3d</fix>
</trkpt>
<trkpt lat="-27.2745701" lon="151.2893674">
  <ele>343.08</ele>
  <time>2026-09-01T19:54:10Z</time>
  <course>114.9</course>
  <speed>0.0</speed>
  <fix>3d</fix>
</trkpt>
<trkpt lat="-27.2745702" lon="151.2893677">
  <ele>343.08</ele>
  <time>2026-09-01T19:54:10Z</time>
  <course>102.11</course>
  <speed>0.03</speed>
  <fix>3d</fix>
</trkpt>
<trkpt lat="-27.2745701" lon="151.2893674">
  <ele>343.08</ele>
  <time>2026-09-01T19:54:10Z</time>
  <course>114.9</course>
  <speed>0.0</speed>
  <fix>3d</fix>
</trkpt>
<trkpt lat="-27.2745702" lon="151.2893677">
  <ele>343.09</ele>
  <time>2026-09-01T19:54:10Z</time>
  <course>102.15</course>
  <speed>0.03</speed>
  <fix>3d</fix>
</trkpt>
<trkpt lat="-27.2745701" lon="151.2893674">
  <ele>343.08</ele>
  <time>2026-09-01T19:54:10Z</time>
  <course>280.17</course>
  <speed>0.0</speed>
  <fix>3d</fix>
</trkpt>
<trkpt lat="-27.2745702" lon="151.2893677">
  <ele>343.09</ele>
  <time>2026-09-01T19:54:10Z</time>
  <course>102.13</course>
  <speed>0.03</speed>
  <fix>3d</fix>
</trkpt>
<trkpt lat="-27.2745701" lon="151.2893674">
  <ele>343.08</ele>
  <time>2026-09-01T19:54:10Z</time>
  <course>280.17</course>
  <speed>0.0</speed>
  <fix>3d</fix>
</trkpt>
<trkpt lat="-27.2745702" lon="151.2893677">
  <ele>343.09</ele>
  <time>2026-09-01T19:54:10Z</time>
  <course>102.18</course>
  <speed>0.03</speed>
  <fix>3d</fix>
</trkpt>
<trkpt lat="-27.2745701" lon="151.2893674">
  <ele>343.08</ele>
  <time>2026-09-01T19:54:10Z</time>
  <course>97.9</course>
  <speed>0.0</speed>
  <fix>3d</fix>
</trkpt>
<trkpt lat="-27.2745702" lon="151.2893677">
  <ele>343.09</ele>
  <time>2026-09-01T19:54:10Z</time>
  <course>102.22</course>
  <speed>0.03</speed>
  <fix>3d</fix>
</trkpt>
<trkpt lat="-27.2745701" lon="151.2893674">
  <ele>343.08</ele>
  <time>2026-09-01T19:54:10Z</time>
  <course>97.9</course>
  <speed>0.0</speed>
  <fix>3d</fix>
</trkpt>
<trkpt lat="-27.2745702" lon="151.2893677">
  <ele>343.09</ele>
  <time>2026-09-01T19:54:10Z</time>
  <course>102.29</course>
  <speed>0.02</speed>
  <fix>3d</fix>
</trkpt>
<trkpt lat="-27.2745701" lon="151.2893674">
  <ele>343.08</ele>
  <time>2026-09-01T19:54:10Z</time>
  <course>100.84</course>
  <speed>0.0</speed>
  <fix>3d</fix>
</trkpt>
<trkpt lat="-27.2745702" lon="151.2893677">
  <ele>343.09</ele>
  <time>2026-09-01T19:54:10Z</time>
  <course>102.32</course>
  <speed>0.02</speed>
  <fix>3d</fix>
</trkpt>
<trkpt lat="-27.2745701" lon="151.2893674">
  <ele>343.08</ele>
  <time>2026-09-01T19:54:10Z</time>
  <course>100.84</course>
  <speed>0.0</speed>
  <fix>3d</fix>
</trkpt>
<trkpt lat="-27.2745702" lon="151.2893677">
  <ele>343.1</ele>
  <time>2026-09-01T19:54:10Z</time>
  <course>102.26</course>
  <speed>0.02</speed>
  <fix>3d</fix>
</trkpt>
<trkpt lat="-27.2745701" lon="151.2893674">
  <ele>343.08</ele>
  <time>2026-09-01T19:54:10Z</time>
  <course>276.48</course>
  <speed>0.0</speed>
  <fix>3d</fix>
</trkpt>
<trkpt lat="-27.2745702" lon="151.2893677">
  <ele>343.1</ele>
  <time>2026-09-01T19:54:10Z</time>
  <course>102.27</course>
  <speed>0.02</speed>
  <fix>3d</fix>
</trkpt>
<trkpt lat="-27.2745701" lon="151.2893674">
  <ele>343.08</ele>
  <time>2026-09-01T19:54:10Z</time>
  <course>276.48</course>
  <speed>0.0</speed>
  <fix>3d</fix>
</trkpt>
<trkpt lat="-27.2745702" lon="151.2893677">
  <ele>343.11</ele>
  <time>2026-09-01T19:54:10Z</time>
  <course>102.37</course>
  <speed>0.02</speed>
  <fix>3d</fix>
</trkpt>
<trkpt lat="-27.2745701" lon="151.2893674">
  <ele>343.08</ele>
  <time>2026-09-01T19:54:10Z</time>
  <course>277.08</course>
  <speed>0.0</speed>
  <fix>3d</fix>
</trkpt>
<trkpt lat="-27.2745702" lon="151.2893677">
  <ele>343.11</ele>
  <time>2026-09-01T19:54:10Z</time>
  <course>102.34</course>
  <speed>0.02</speed>
  <fix>3d</fix>
</trkpt>
<trkpt lat="-27.2745701" lon="151.2893674">
  <ele>343.08</ele>
  <time>2026-09-01T19:54:10Z</time>
  <course>277.08</course>
  <speed>0.0</speed>
  <fix>3d</fix>
</trkpt>
<trkpt lat="-27.2745702" lon="151.2893677">
  <ele>343.11</ele>
  <time>2026-09-01T19:54:10Z</time>
  <course>102.38</course>
  <speed>0.02</speed>
  <fix>3d</fix>
</trkpt>
<trkpt lat="-27.2745701" lon="151.2893674">
  <ele>343.08</ele>
  <time>2026-09-01T19:54:10Z</time>
  <course>95.69</course>
  <speed>0.0</speed>
  <fix>3d</fix>
</trkpt>
<trkpt lat="-27.2745702" lon="151.2893677">
  <ele>343.12</ele>
  <time>2026-09-01T19:54:10Z</time>
  <course>102.35</course>
  <speed>0.02</speed>
  <fix>3d</fix>
</trkpt>
<trkpt lat="-27.2745701" lon="151.2893674">
  <ele>343.08</ele>
  <time>2026-09-01T19:54:10Z</time>
  <course>95.69</course>
  <speed>0.0</speed>
  <fix>3d</fix>
</trkpt>
<trkpt lat="-27.2745702" lon="151.2893677">
  <ele>343.12</ele>
  <time>2026-09-01T19:54:10Z</time>
  <course>102.38</course>
  <speed>0.02</speed>
  <fix>3d</fix>
</trkpt>
<trkpt lat="-27.2745701" lon="151.2893674">
  <ele>343.08</ele>
  <time>2026-09-01T19:54:10Z</time>
  <course>95.7</course>
  <speed>0.0</speed>
  <fix>3d</fix>
</trkpt>
<trkpt lat="-27.2745702" lon="151.2893677">
  <ele>343.12</ele>
  <time>2026-09-01T19:54:10Z</time>
  <course>102.31</course>
  <speed>0.02</speed>
  <fix>3d</fix>
</trkpt>
<trkpt lat="-27.2745701" lon="151.2893674">
  <ele>343.08</ele>
  <time>2026-09-01T19:54:10Z</time>
  <course>95.7</course>
  <speed>0.0</speed>
  <fix>3d</fix>
</trkpt>
<trkpt lat="-27.2745702" lon="151.2893677">
  <ele>343.12</ele>
  <time>2026-09-01T19:54:10Z</time>
  <course>102.35</course>
  <speed>0.02</speed>
  <fix>3d</fix>
</trkpt>
<trkpt lat="-27.2745701" lon="151.2893674">
  <ele>343.08</ele>
  <time>2026-09-01T19:54:10Z</time>
  <course>95.71</course>
  <speed>0.0</speed>
  <fix>3d</fix>
</trkpt>
<trkpt lat="-27.2745702" lon="151.2893677">
  <ele>343.12</ele>
  <time>2026-09-01T19:54:10Z</time>
  <course>102.38</course>
  <speed>0.02</speed>
  <fix>3d</fix>
</trkpt>
<trkpt lat="-27.2745701" lon="151.2893674">
  <ele>343.08</ele>
  <time>2026-09-01T19:54:10Z</time>
  <course>95.71</course>
  <speed>0.0</speed>
  <fix>3d</fix>
</trkpt>
<trkpt lat="-27.2745702" lon="151.2893677">
  <ele>343.12</ele>
  <time>2026-09-01T19:54:10Z</time>
  <course>102.37</course>
  <speed>0.02</speed>
  <fix>3d</fix>
</trkpt>
<trkpt lat="-27.2745701" lon="151.2893674">
  <ele>343.08</ele>
  <time>2026-09-01T19:54:10Z</time>
  <course>95.71</course>
  <speed>0.0</speed>
  <fix>3d</fix>
</trkpt>
<trkpt lat="-26.9720619" lon="149.6127921">
  <ele>339.29</ele>
  <time>2026-09-01T19:54:11Z</time>
  <course>0.0</course>
  <speed>0.0</speed>
  <fix>3d</fix>
</trkpt>
<trkpt lat="-26.9720619" lon="149.6127921">
  <ele>339.29</ele>
  <time>2026-09-01T19:54:11Z</time>
  <course>0.0</course>
  <speed>0.0</speed>
  <fix>3d</fix>
</trkpt>
<trkpt lat="-27.274439" lon="151.290064">
  <ele>-0.01</ele>
  <time>2026-09-01T19:54:11Z</time>
  <course>0.18</course>
  <speed>0.0</speed>
  <fix>3d</fix>
</trkpt>
<trkpt lat="-27.274439" lon="151.290064">
  <ele>343.1</ele>
  <time>2026-09-01T19:54:11Z</time>
  <course>0.0</course>
  <speed>0.0</speed>
  <fix>3d</fix>
</trkpt>
<trkpt lat="-27.274439" lon="151.290064">
  <ele>0.02</ele>
  <time>2026-09-01T19:54:11Z</time>
  <course>1.16</course>
  <speed>0.0</speed>
  <fix>3d</fix>
</trkpt>
<trkpt lat="-27.274439" lon="151.290064">
  <ele>343.1</ele>
  <time>2026-09-01T19:54:11Z</time>
  <course>0.0</course>
  <speed>0.0</speed>
  <fix>3d</fix>
</trkpt>
<trkpt lat="-27.274439" lon="151.290064">
  <ele>-0.08</ele>
  <time>2026-09-01T19:54:11Z</time>
  <course>2.06</course>
  <speed>0.0</speed>
  <fix>3d</fix>
</trkpt>
<trkpt lat="-27.274439" lon="151.290064">
  <ele>343.1</ele>
  <time>2026-09-01T19:54:11Z</time>
  <course>0.0</course>
  <speed>0.0</speed>
  <fix>3d</fix>
</trkpt>
<trkpt lat="-27.274439" lon="151.290064">
  <ele>0.22</ele>
  <time>2026-09-01T19:54:11Z</time>
  <course>2.88</course>
  <speed>0.0</speed>
  <fix>3d</fix>
</trkpt>
<trkpt lat="-27.274439" lon="151.290064">
  <ele>343.1</ele>
  <time>2026-09-01T19:54:11Z</time>
  <course>0.0</course>
  <speed>0.0</speed>
  <fix>3d</fix>
</trkpt>
<trkpt lat="-27.274439" lon="151.290064">
  <ele>0.09</ele>
  <time>2026-09-01T19:54:11Z</time>
  <course>3.62</course>
  <speed>0.0</speed>
  <fix>3d</fix>
</trkpt>
<trkpt lat="-27.274439" lon="151.290064">
  <ele>343.1</ele>
  <time>2026-09-01T19:54:11Z</time>
  <course>0.0</course>
  <speed>0.0</speed>
  <fix>3d</fix>
</trkpt>
<trkpt lat="-27.274439" lon="151.290064">
  <ele>0.08</ele>
  <time>2026-09-01T19:54:11Z</time>
  <course>4.3</course>
  <speed>0.0</speed>
  <fix>3d</fix>
</trkpt>
<trkpt lat="-27.274439" lon="151.290064">
  <ele>343.1</ele>
  <time>2026-09-01T19:54:11Z</time>
  <course>0.0</course>
  <speed>0.0</speed>
  <fix>3d</fix>
</trkpt>
<trkpt lat="-27.274439" lon="151.290064">
  <ele>0.09</ele>
  <time>2026-09-01T19:54:11Z</time>
  <course>4.91</course>
  <speed>0.0</speed>
  <fix>3d</fix>
</trkpt>
<trkpt lat="-27.274439" lon="151.290064">
  <ele>343.1</ele>
  <time>2026-09-01T19:54:11Z</time>
  <course>0.0</course>
  <speed>0.0</speed>
  <fix>3d</fix>
</trkpt>
<trkpt lat="-27.274439" lon="151.290064">
  <ele>-0.05</ele>
  <time>2026-09-01T19:54:11Z</time>
  <course>5.46</course>
  <speed>0.0</speed>
  <fix>3d</fix>
</trkpt>
<trkpt lat="-27.274439" lon="151.290064">
  <ele>343.1</ele>
  <time>2026-09-01T19:54:11Z</time>
  <course>0.0</course>
  <speed>0.0</speed>
  <fix>3d</fix>
</trkpt>
<trkpt lat="-27.274439" lon="151.290064">
  <ele>343.06</ele>
  <time>2026-09-01T19:54:11Z</time>
  <course>5.94</course>
  <speed>0.0</speed>
  <fix>3d</fix>
</trkpt>
<trkpt lat="-27.274439" lon="151.290064">
  <ele>343.1</ele>
  <time>2026-09-01T19:54:11Z</time>
  <course>0.0</course>
  <speed>0.0</speed>
  <fix>3d</fix>
</trkpt>
<trkpt lat="-27.274439" lon="151.290064">
  <ele>343.18</ele>
  <time>2026-09-01T19:54:11Z</time>
  <course>6.39</course>
  <speed>0.0</speed>
  <fix>3d</fix>
</trkpt>
<trkpt lat="-27.274439" lon="151.290064">
  <ele>343.1</ele>
  <time>2026-09-01T19:54:11Z</time>
  <course>0.0</course>
  <speed>0.0</speed>
  <fix>3d</fix>
</trkpt>
<trkpt lat="-27.274439" lon="151.290064">
  <ele>342.91</ele>
  <time>2026-09-01T19:54:11Z</time>
  <course>6.8</course>
  <speed>0.0</speed>
  <fix>3d</fix>
</trkpt>
<trkpt lat="-27.274439" lon="151.290064">
  <ele>343.1</ele>
  <time>2026-09-01T19:54:11Z</time>
  <course>0.0</course>
  <speed>0.0</speed>
  <fix>3d</fix>
</trkpt>
<trkpt lat="-27.274439" lon="151.290064">
  <ele>343.06</ele>
  <time>2026-09-01T19:54:11Z</time>
  <course>7.17</course>
  <speed>0.0</speed>
  <fix>3d</fix>
</trkpt>
<trkpt lat="-27.274439" lon="151.290064">
  <ele>343.1</ele>
  <time>2026-09-01T19:54:11Z</time>
  <course>0.0</course>
  <speed>0.0</speed>
  <fix>3d</fix>
</trkpt>
<trkpt lat="-27.274439" lon="151.290064">
  <ele>343.13</ele>
  <time>2026-09-01T19:54:11Z</time>
  <course>7.51</course>
  <speed>0.0</speed>
  <fix>3d</fix>
</trkpt>
<trkpt lat="-27.274439" lon="151.290064">
  <ele>343.1</ele>
  <time>2026-09-01T19:54:11Z</time>
  <course>0.0</course>
  <speed>0.0</speed>
  <fix>3d</fix>
</trkpt>
<trkpt lat="-27.274439" lon="151.290064">
  <ele>343.04</ele>
  <time>2026-09-01T19:54:11Z</time>
  <course>7.82</course>
  <speed>0.0</speed>
  <fix>3d</fix>
</trkpt>
<trkpt lat="-27.274439" lon="151.290064">
  <ele>343.1</ele>
  <time>2026-09-01T19:54:11Z</time>
  <course>0.0</course>
  <speed>0.0</speed>
  <fix>3d</fix>
</trkpt>
<trkpt lat="-27.274439" lon="151.290064">
  <ele>342.88</ele>
  <time>2026-09-01T19:54:11Z</time>
  <course>8.09</course>
  <speed>0.0</speed>
  <fix>3d</fix>
</trkpt>
<trkpt lat="-27.274439" lon="151.290064">
  <ele>343.1</ele>
  <time>2026-09-01T19:54:11Z</time>
  <course>0.0</course>
  <speed>0.0</speed>
  <fix>3d</fix>
</trkpt>
<trkpt lat="-27.274439" lon="151.290064">
  <ele>343.02</ele>
  <time>2026-09-01T19:54:11Z</time>
  <course>8.34</course>
  <speed>0.0</speed>
  <fix>3d</fix>
</trkpt>
<trkpt lat="-27.274439" lon="151.290064">
  <ele>343.1</ele>
  <time>2026-09-01T19:54:11Z</time>
  <course>0.0</course>
  <speed>0.0</speed>
  <fix>3d</fix>
</trkpt>
<trkpt lat="-27.274439" lon="151.290064">
  <ele>343.23</ele>
  <time>2026-09-01T19:54:11Z</time>
  <course>8.58</course>
  <speed>0.0</speed>
  <fix>3d</fix>
</trkpt>
<trkpt lat="-27.274439" lon="151.290064">
  <ele>343.1</ele>
  <time>2026-09-01T19:54:11Z</time>
  <course>0.0</course>
  <speed>0.0</speed>
  <fix>3d</fix>
</trkpt>
<trkpt lat="-27.274439" lon="151.290064">
  <ele>343.17</ele>
  <time>2026-09-01T19:54:11Z</time>
  <course>8.78</course>
  <speed>0.0</speed>
  <fix>3d</fix>
</trkpt>
<trkpt lat="-27.274439" lon="151.290064">
  <ele>343.1</ele>
  <time>2026-09-01T19:54:11Z</time>
  <course>0.0</course>
  <speed>0.0</speed>
  <fix>3d</fix>
</trkpt>
<trkpt lat="-27.274439" lon="151.290064">
  <ele>343.04</ele>
  <time>2026-09-01T19:54:11Z</time>
  <course>8.96</course>
  <speed>0.0</speed>
  <fix>3d</fix>
</trkpt>
<trkpt lat="-27.274439" lon="151.290064">
  <ele>343.1</ele>
  <time>2026-09-01T19:54:11Z</time>
  <course>0.0</course>
  <speed>0.0</speed>
  <fix>3d</fix>
</trkpt>
<trkpt lat="-27.274439" lon="151.290064">
  <ele>342.89</ele>
  <time>2026-09-01T19:54:11Z</time>
  <course>9.13</course>
  <speed>0.0</speed>
  <fix>3d</fix>
</trkpt>
<trkpt lat="-27.274439" lon="151.290064">
  <ele>343.1</ele>
  <time>2026-09-01T19:54:11Z</time>
  <course>0.0</course>
  <speed>0.0</speed>
  <fix>3d</fix>
</trkpt>
<trkpt lat="-27.274439" lon="151.290064">
  <ele>343.08</ele>
  <time>2026-09-01T19:54:11Z</time>
  <course>9.28</course>
  <speed>0.0</speed>
  <fix>3d</fix>
</trkpt>
<trkpt lat="-27.274439" lon="151.290064">
  <ele>343.1</ele>
  <time>2026-09-01T19:54:11Z</time>
  <course>0.0</course>
  <speed>0.0</speed>
  <fix>3d</fix>
</trkpt>
<trkpt lat="-27.274439" lon="151.290064">
  <ele>343.19</ele>
  <time>2026-09-01T19:54:11Z</time>
  <course>9.42</course>
  <speed>0.0</speed>
  <fix>3d</fix>
</trkpt>
<trkpt lat="-27.274439" lon="151.290064">
  <ele>343.1</ele>
  <time>2026-09-01T19:54:11Z</time>
  <course>0.0</course>
  <speed>0.0</speed>
  <fix>3d</fix>
</trkpt>
<trkpt lat="-27.274439" lon="151.290064">
  <ele>342.88</ele>
  <time>2026-09-01T19:54:11Z</time>
  <course>9.54</course>
  <speed>0.0</speed>
  <fix>3d</fix>
</trkpt>
<trkpt lat="-27.274439" lon="151.290064">
  <ele>343.1</ele>
  <time>2026-09-01T19:54:11Z</time>
  <course>0.0</course>
  <speed>0.0</speed>
  <fix>3d</fix>
</trkpt>
<trkpt lat="-27.274439" lon="151.290064">
  <ele>343.17</ele>
  <time>2026-09-01T19:54:11Z</time>
  <course>9.65</course>
  <speed>0.0</speed>
  <fix>3d</fix>
</trkpt>
<trkpt lat="-27.274439" lon="151.290064">
  <ele>343.1</ele>
  <time>2026-09-01T19:54:11Z</time>
  <course>0.0</course>
  <speed>0.0</speed>
  <fix>3d</fix>
</trkpt>
<trkpt lat="-27.274439" lon="151.290064">
  <ele>342.89</ele>
  <time>2026-09-01T19:54:11Z</time>
  <course>9.75</course>
  <speed>0.0</speed>
  <fix>3d</fix>
</trkpt>
<trkpt lat="-27.274439" lon="151.290064">
  <ele>343.1</ele>
  <time>2026-09-01T19:54:11Z</time>
  <course>0.0</course>
  <speed>0.0</speed>
  <fix>3d</fix>
</trkpt>
<trkpt lat="-27.274439" lon="151.290064">
  <ele>342.99</ele>
  <time>2026-09-01T19:54:11Z</time>
  <course>9.84</course>
  <speed>0.0</speed>
  <fix>3d</fix>
</trkpt>
<trkpt lat="-27.274439" lon="151.290064">
  <ele>343.1</ele>
  <time>2026-09-01T19:54:11Z</time>
  <course>0.0</course>
  <speed>0.0</speed>
  <fix>3d</fix>
</trkpt>
<trkpt lat="-27.274439" lon="151.290064">
  <ele>342.87</ele>
  <time>2026-09-01T19:54:11Z</time>
  <course>9.93</course>
  <speed>0.0</speed>
  <fix>3d</fix>
</trkpt>
<trkpt lat="-27.274439" lon="151.290064">
  <ele>343.1</ele>
  <time>2026-09-01T19:54:11Z</time>
  <course>0.0</course>
  <speed>0.0</speed>
  <fix>3d</fix>
</trkpt>
<trkpt lat="-27.274439" lon="151.290064">
  <ele>343.09</ele>
  <time>2026-09-01T19:54:11Z</time>
  <course>10.01</course>
  <speed>0.0</speed>
  <fix>3d</fix>
</trkpt>
<trkpt lat="-27.274439" lon="151.290064">
  <ele>343.1</ele>
  <time>2026-09-01T19:54:11Z</time>
  <course>0.0</course>
  <speed>0.0</speed>
  <fix>3d</fix>
</trkpt>
<trkpt lat="-27.274439" lon="151.290064">
  <ele>343.18</ele>
  <time>2026-09-01T19:54:11Z</time>
  <course>10.08</course>
  <speed>0.0</speed>
  <fix>3d</fix>
</trkpt>
<trkpt lat="-27.274439" lon="151.290064">
  <ele>343.1</ele>
  <time>2026-09-01T19:54:11Z</time>
  <course>0.0</course>
  <speed>0.0</speed>
  <fix>3d</fix>
</trkpt>
<trkpt lat="-27.274439" lon="151.290064">
  <ele>343.05</ele>
  <time>2026-09-01T19:54:11Z</time>
  <course>10.14</course>
  <speed>0.0</speed>
  <fix>3d</fix>
</trkpt>
<trkpt lat="-27.274439" lon="151.290064">
  <ele>343.1</ele>
  <time>2026-09-01T19:54:11Z</time>
  <course>0.0</course>
  <speed>0.0</speed>
  <fix>3d</fix>
</trkpt>
<trkpt lat="-27.274439" lon="151.290064">
  <ele>342.96</ele>
  <time>2026-09-01T19:54:11Z</time>
  <course>10.2</course>
  <speed>0.0</speed>
  <fix>3d</fix>
</trkpt>
<trkpt lat="-27.274439" lon="151.290064">
  <ele>343.1</ele>
  <time>2026-09-01T19:54:11Z</time>
  <course>0.0</course>
  <speed>0.0</speed>
  <fix>3d</fix>
</trkpt>
<trkpt lat="-27.274439" lon="151.290064">
  <ele>343.1</ele>
  <time>2026-09-01T19:54:11Z</time>
  <course>10.25</course>
  <speed>0.0</speed>
  <fix>3d</fix>
</trkpt>
<trkpt lat="-27.274439" lon="151.290064">
  <ele>343.1</ele>
  <time>2026-09-01T19:54:11Z</time>
  <course>0.0</course>
  <speed>0.0</speed>
  <fix>3d</fix>
</trkpt>
<trkpt lat="-27.274439" lon="151.290064">
  <ele>343.22</ele>
  <time>2026-09-01T19:54:11Z</time>
  <course>10.3</course>
  <speed>0.0</speed>
  <fix>3d</fix>
</trkpt>
<trkpt lat="-27.274439" lon="151.290064">
  <ele>343.1</ele>
  <time>2026-09-01T19:54:11Z</time>
  <course>0.0</course>
  <speed>0.0</speed>
  <fix>3d</fix>
</trkpt>
<trkpt lat="-27.274439" lon="151.290064">
  <ele>343.17</ele>
  <time>2026-09-01T19:54:11Z</time>
  <course>10.34</course>
  <speed>0.0</speed>
  <fix>3d</fix>
</trkpt>
<trkpt lat="-27.274439" lon="151.290064">
  <ele>343.1</ele>
  <time>2026-09-01T19:54:11Z</time>
  <course>0.0</course>
  <speed>0.0</speed>
  <fix>3d</fix>
</trkpt>
<trkpt lat="-27.274439" lon="151.290064">
  <ele>343.08</ele>
  <time>2026-09-01T19:54:11Z</time>
  <course>10.38</course>
  <speed>0.0</speed>
  <fix>3d</fix>
</trkpt>
<trkpt lat="-27.274439" lon="151.290064">
  <ele>343.1</ele>
  <time>2026-09-01T19:54:11Z</time>
  <course>0.0</course>
  <speed>0.0</speed>
  <fix>3d</fix>
</trkpt>
<trkpt lat="-27.274439" lon="151.290064">
  <ele>343.04</ele>
  <time>2026-09-01T19:54:11Z</time>
  <course>10.42</course>
  <speed>0.0</speed>
  <fix>3d</fix>
</trkpt>
<trkpt lat="-27.274439" lon="151.290064">
  <ele>343.1</ele>
  <time>2026-09-01T19:54:11Z</time>
  <course>0.0</course>
  <speed>0.0</speed>
  <fix>3d</fix>
</trkpt>
<trkpt lat="-27.274439" lon="151.290064">
  <ele>343.18</ele>
  <time>2026-09-01T19:54:11Z</time>
  <course>10.45</course>
  <speed>0.0</speed>
  <fix>3d</fix>
</trkpt>
<trkpt lat="-27.274439" lon="151.290064">
  <ele>343.1</ele>
  <time>2026-09-01T19:54:11Z</time>
  <course>0.0</course>
  <speed>0.0</speed>
  <fix>3d</fix>
</trkpt>
<trkpt lat="-27.274439" lon="151.290064">
  <ele>343.12</ele>
  <time>2026-09-01T19:54:11Z</time>
  <course>10.48</course>
  <speed>0.0</speed>
  <fix>3d</fix>
</trkpt>
<trkpt lat="-27.274439" lon="151.290064">
  <ele>343.1</ele>
  <time>2026-09-01T19:54:11Z</time>
  <course>0.0</course>
  <speed>0.0</speed>
  <fix>3d</fix>
</trkpt>
<trkpt lat="-27.274439" lon="151.290064">
  <ele>343.04</ele>
  <time>2026-09-01T19:54:11Z</time>
  <course>10.5</course>
  <speed>0.0</speed>
  <fix>3d</fix>
</trkpt>
<trkpt lat="-27.274439" lon="151.290064">
  <ele>343.1</ele>
  <time>2026-09-01T19:54:11Z</time>
  <course>0.0</course>
  <speed>0.0</speed>
  <fix>3d</fix>
</trkpt>
<trkpt lat="-27.274439" lon="151.290064">
  <ele>343.07</ele>
  <time>2026-09-01T19:54:11Z</time>
  <course>10.53</course>
  <speed>0.0</speed>
  <fix>3d</fix>
</trkpt>
<trkpt lat="-27.274439" lon="151.290064">
  <ele>343.1</ele>
  <time>2026-09-01T19:54:11Z</time>
  <course>0.0</course>
  <speed>0.0</speed>
  <fix>3d</fix>
</trkpt>
<trkpt lat="-27.274439" lon="151.290064">
  <ele>343.04</ele>
  <time>2026-09-01T19:54:11Z</time>
  <course>10.55</course>
  <speed>0.0</speed>
  <fix>3d</fix>
</trkpt>
<trkpt lat="-27.274439" lon="151.290064">
  <ele>343.1</ele>
  <time>2026-09-01T19:54:11Z</time>
  <course>0.0</course>
  <speed>0.0</speed>
  <fix>3d</fix>
</trkpt>
<trkpt lat="-27.274439" lon="151.290064">
  <ele>343.01</ele>
  <time>2026-09-01T19:54:11Z</time>
  <course>10.57</course>
  <speed>0.0</speed>
  <fix>3d</fix>
</trkpt>
<trkpt lat="-27.274439" lon="151.290064">
  <ele>343.1</ele>
  <time>2026-09-01T19:54:11Z</time>
  <course>0.0</course>
  <speed>0.0</speed>
  <fix>3d</fix>
</trkpt>
<trkpt lat="-27.274439" lon="151.290064">
  <ele>343.2</ele>
  <time>2026-09-01T19:54:11Z</time>
  <course>10.58</course>
  <speed>0.0</speed>
  <fix>3d</fix>
</trkpt>
<trkpt lat="-27.274439" lon="151.290064">
  <ele>343.1</ele>
  <time>2026-09-01T19:54:11Z</time>
  <course>0.0</course>
  <speed>0.0</speed>
  <fix>3d</fix>
</trkpt>
<trkpt lat="-27.274439" lon="151.290064">
  <ele>343.24</ele>
  <time>2026-09-01T19:54:11Z</time>
  <course>10.6</course>
  <speed>0.0</speed>
  <fix>3d</fix>
</trkpt>
<trkpt lat="-27.274439" lon="151.290064">
  <ele>343.1</ele>
  <time>2026-09-01T19:54:11Z</time>
  <course>0.0</course>
  <speed>0.0</speed>
  <fix>3d</fix>
</trkpt>
<trkpt lat="-27.274439" lon="151.290064">
  <ele>342.88</ele>
  <time>2026-09-01T19:54:11Z</time>
  <course>10.61</course>
  <speed>0.0</speed>
  <fix>3d</fix>
</trkpt>
<trkpt lat="-27.274439" lon="151.290064">
  <ele>343.1</ele>
  <time>2026-09-01T19:54:11Z</time>
  <course>0.0</course>
  <speed>0.0</speed>
  <fix>3d</fix>
</trkpt>
<trkpt lat="-27.274439" lon="151.290064">
  <ele>343.21</ele>
  <time>2026-09-01T19:54:11Z</time>
  <course>10.63</course>
  <speed>0.0</speed>
  <fix>3d</fix>
</trkpt>
<trkpt lat="-27.274439" lon="151.290064">
  <ele>343.1</ele>
  <time>2026-09-01T19:54:11Z</time>
  <course>0.0</course>
  <speed>0.0</speed>
  <fix>3d</fix>
</trkpt>
<trkpt lat="-27.274439" lon="151.290064">
  <ele>343.02</ele>
  <time>2026-09-01T19:54:11Z</time>
  <course>10.64</course>
  <speed>0.0</speed>
  <fix>3d</fix>
</trkpt>
<trkpt lat="-27.274439" lon="151.290064">
  <ele>343.1</ele>
  <time>2026-09-01T19:54:11Z</time>
  <course>0.0</course>
  <speed>0.0</speed>
  <fix>3d</fix>
</trkpt>
<trkpt lat="-27.274439" lon="151.290064">
  <ele>342.93</ele>
  <time>2026-09-01T19:54:11Z</time>
  <course>10.65</course>
  <speed>0.0</speed>
  <fix>3d</fix>
</trkpt>
<trkpt lat="-27.274439" lon="151.290064">
  <ele>343.1</ele>
  <time>2026-09-01T19:54:11Z</time>
  <course>0.0</course>
  <speed>0.0</speed>
  <fix>3d</fix>
</trkpt>
<trkpt lat="-27.274439" lon="151.290064">
  <ele>343.07</ele>
  <time>2026-09-01T19:54:11Z</time>
  <course>10.66</course>
  <speed>0.0</speed>
  <fix>3d</fix>
</trkpt>
<trkpt lat="-27.274439" lon="151.290064">
  <ele>343.1</ele>
  <time>2026-09-01T19:54:11Z</time>
  <course>0.0</course>
  <speed>0.0</speed>
  <fix>3d</fix>
</trkpt>
<trkpt lat="-27.274439" lon="151.290064">
  <ele>342.94</ele>
  <time>2026-09-01T19:54:11Z</time>
  <course>10.67</course>
  <speed>0.0</speed>
  <fix>3d</fix>
</trkpt>
<trkpt lat="-27.274439" lon="151.290064">
  <ele>343.1</ele>
  <time>2026-09-01T19:54:11Z</time>
  <course>0.0</course>
  <speed>0.0</speed>
  <fix>3d</fix>
</trkpt>
<trkpt lat="-27.274439" lon="151.290064">
  <ele>343.11</ele>
  <time>2026-09-01T19:54:11Z</time>
  <course>10.68</course>
  <speed>0.0</speed>
  <fix>3d</fix>
</trkpt>
<trkpt lat="-27.274439" lon="151.290064">
  <ele>343.1</ele>
  <time>2026-09-01T19:54:11Z</time>
  <course>0.0</course>
  <speed>0.0</speed>
  <fix>3d</fix>
</trkpt>
<trkpt lat="-27.274439" lon="151.290064">
  <ele>343.24</ele>
  <time>2026-09-01T19:54:11Z</time>
  <course>10.68</course>
  <speed>0.0</speed>
  <fix>3d</fix>
</trkpt>
<trkpt lat="-27.274439" lon="151.290064">
  <ele>343.1</ele>
  <time>2026-09-01T19:54:11Z</time>
  <course>0.0</course>
  <speed>0.0</speed>
  <fix>3d</fix>
</trkpt>
<trkpt lat="-27.274439" lon="151.290064">
  <ele>343.18</ele>
  <time>2026-09-01T19:54:11Z</time>
  <course>10.69</course>
  <speed>0.0</speed>
  <fix>3d</fix>
</trkpt>
<trkpt lat="-27.274439" lon="151.290064">
  <ele>343.1</ele>
  <time>2026-09-01T19:54:11Z</time>
  <course>0.0</course>
  <speed>0.0</speed>
  <fix>3d</fix>
</trkpt>
<trkpt lat="-27.274439" lon="151.290064">
  <ele>342.89</ele>
  <time>2026-09-01T19:54:11Z</time>
  <course>10.69</course>
  <speed>0.0</speed>
  <fix>3d</fix>
</trkpt>
<trkpt lat="-27.274439" lon="151.290064">
  <ele>343.1</ele>
  <time>2026-09-01T19:54:11Z</time>
  <course>0.0</course>
  <speed>0.0</speed>
  <fix>3d</fix>
</trkpt>
<trkpt lat="-27.274439" lon="151.290064">
  <ele>343.23</ele>
  <time>2026-09-01T19:54:11Z</time>
  <course>10.7</course>
  <speed>0.0</speed>
  <fix>3d</fix>
</trkpt>
<trkpt lat="-27.274439" lon="151.290064">
  <ele>343.1</ele>
  <time>2026-09-01T19:54:11Z</time>
  <course>0.0</course>
  <speed>0.0</speed>
  <fix>3d</fix>
</trkpt>
<trkpt lat="-27.274439" lon="151.290064">
  <ele>343.23</ele>
  <time>2026-09-01T19:54:11Z</time>
  <course>10.7</course>
  <speed>0.0</speed>
  <fix>3d</fix>
</trkpt>
<trkpt lat="-27.274439" lon="151.290064">
  <ele>343.1</ele>
  <time>2026-09-01T19:54:11Z</time>
  <course>0.0</course>
  <speed>0.0</speed>
  <fix>3d</fix>
</trkpt>
<trkpt lat="-27.274439" lon="151.290064">
  <ele>342.99</ele>
  <time>2026-09-01T19:54:11Z</time>
  <course>10.71</course>
  <speed>0.0</speed>
  <fix>3d</fix>
</trkpt>
<trkpt lat="-27.274439" lon="151.290064">
  <ele>343.1</ele>
  <time>2026-09-01T19:54:11Z</time>
  <course>0.0</course>
  <speed>0.0</speed>
  <fix>3d</fix>
</trkpt>
<trkpt lat="-27.274439" lon="151.290064">
  <ele>343.13</ele>
  <time>2026-09-01T19:54:11Z</time>
  <course>10.71</course>
  <speed>0.0</speed>
  <fix>3d</fix>
</trkpt>
<trkpt lat="-27.274439" lon="151.290064">
  <ele>343.1</ele>
  <time>2026-09-01T19:54:11Z</time>
  <course>0.0</course>
  <speed>0.0</speed>
  <fix>3d</fix>
</trkpt>
<trkpt lat="-27.274439" lon="151.290064">
  <ele>343.07</ele>
  <time>2026-09-01T19:54:11Z</time>
  <course>10.71</course>
  <speed>0.0</speed>
  <fix>3d</fix>
</trkpt>
<trkpt lat="-27.274439" lon="151.290064">
  <ele>343.1</ele>
  <time>2026-09-01T19:54:11Z</time>
  <course>0.0</course>
  <speed>0.0</speed>
  <fix>3d</fix>
</trkpt>
<trkpt lat="-27.274439" lon="151.290064">
  <ele>343.19</ele>
  <time>2026-09-01T19:54:11Z</time>
  <course>10.72</course>
  <speed>0.0</speed>
  <fix>3d</fix>
</trkpt>
<trkpt lat="-27.274439" lon="151.290064">
  <ele>343.1</ele>
  <time>2026-09-01T19:54:11Z</time>
  <course>0.0</course>
  <speed>0.0</speed>
  <fix>3d</fix>
</trkpt>
<trkpt lat="-27.274439" lon="151.290064">
  <ele>342.93</ele>
  <time>2026-09-01T19:54:11Z</time>
  <course>10.72</course>
  <speed>0.0</speed>
  <fix>3d</fix>
</trkpt>
<trkpt lat="-27.274439" lon="151.290064">
  <ele>343.1</ele>
  <time>2026-09-01T19:54:11Z</time>
  <course>0.0</course>
  <speed>0.0</speed>
  <fix>3d</fix>
</trkpt>
<trkpt lat="-27.274439" lon="151.290064">
  <ele>343.19</ele>
  <time>2026-09-01T19:54:11Z</time>
  <course>10.72</course>
  <speed>0.0</speed>
  <fix>3d</fix>
</trkpt>
<trkpt lat="-27.274439" lon="151.290064">
  <ele>343.1</ele>
  <time>2026-09-01T19:54:11Z</time>
  <course>0.0</course>
  <speed>0.0</speed>
  <fix>3d</fix>
</trkpt>
<trkpt lat="-27.274439" lon="151.290064">
  <ele>343.1</ele>
  <time>2026-09-01T19:54:11Z</time>
  <course>10.72</course>
  <speed>0.0</speed>
  <fix>3d</fix>
</trkpt>
<trkpt lat="-27.274439" lon="151.290064">
  <ele>343.1</ele>
  <time>2026-09-01T19:54:11Z</time>
  <course>0.0</course>
  <speed>0.0</speed>
  <fix>3d</fix>
</trkpt>
<trkpt lat="-27.274439" lon="151.290064">
  <ele>343.01</ele>
  <time>2026-09-01T19:54:11Z</time>
  <course>10.73</course>
  <speed>0.0</speed>
  <fix>3d</fix>
</trkpt>
<trkpt lat="-27.274439" lon="151.290064">
  <ele>343.1</ele>
  <time>2026-09-01T19:54:11Z</time>
  <course>0.0</course>
  <speed>0.0</speed>
  <fix>3d</fix>
</trkpt>
<trkpt lat="-27.274439" lon="151.290064">
  <ele>343.11</ele>
  <time>2026-09-01T19:54:11Z</time>
  <course>10.73</course>
  <speed>0.0</speed>
  <fix>3d</fix>
</trkpt>
<trkpt lat="-27.274439" lon="151.290064">
  <ele>343.1</ele>
  <time>2026-09-01T19:54:11Z</time>
  <course>0.0</course>
  <speed>0.0</speed>
  <fix>3d</fix>
</trkpt>
<trkpt lat="-27.274439" lon="151.290064">
  <ele>342.96</ele>
  <time>2026-09-01T19:54:11Z</time>
  <course>10.73</course>
  <speed>0.0</speed>
  <fix>3d</fix>
</trkpt>
<trkpt lat="-27.274439" lon="151.290064">
  <ele>343.1</ele>
  <time>2026-09-01T19:54:11Z</time>
  <course>0.0</course>
  <speed>0.0</speed>
  <fix>3d</fix>
</trkpt>
<trkpt lat="-27.274439" lon="151.290064">
  <ele>343.19</ele>
  <time>2026-09-01T19:54:11Z</time>
  <course>10.73</course>
  <speed>0.0</speed>
  <fix>3d</fix>
</trkpt>
<trkpt lat="-27.274439" lon="151.290064">
  <ele>343.1</ele>
  <time>2026-09-01T19:54:11Z</time>
  <course>0.0</course>
  <speed>0.0</speed>
  <fix>3d</fix>
</trkpt>
<trkpt lat="-27.274439" lon="151.290064">
  <ele>343.0</ele>
  <time>2026-09-01T19:54:11Z</time>
  <course>10.73</course>
  <speed>0.0</speed>
  <fix>3d</fix>
</trkpt>
<trkpt lat="-27.274439" lon="151.290064">
  <ele>343.1</ele>
  <time>2026-09-01T19:54:11Z</time>
  <course>0.0</course>
  <speed>0.0</speed>
  <fix>3d</fix>
</trkpt>
<trkpt lat="-27.274439" lon="151.290064">
  <ele>343.2</ele>
  <time>2026-09-01T19:54:11Z</time>
  <course>10.73</course>
  <speed>0.0</speed>
  <fix>3d</fix>
</trkpt>
<trkpt lat="-27.274439" lon="151.290064">
  <ele>343.1</ele>
  <time>2026-09-01T19:54:11Z</time>
  <course>0.0</course>
  <speed>0.0</speed>
  <fix>3d</fix>
</trkpt>
<trkpt lat="-27.274439" lon="151.290064">
  <ele>343.2</ele>
  <time>2026-09-01T19:54:11Z</time>
  <course>10.74</course>
  <speed>0.0</speed>
  <fix>3d</fix>
</trkpt>
<trkpt lat="-27.274439" lon="151.290064">
  <ele>343.1</ele>
  <time>2026-09-01T19:54:11Z</time>
  <course>0.0</course>
  <speed>0.0</speed>
  <fix>3d</fix>
</trkpt>
<trkpt lat="-27.274439" lon="151.290064">
  <ele>343.13</ele>
  <time>2026-09-01T19:54:11Z</time>
  <course>10.74</course>
  <speed>0.0</speed>
  <fix>3d</fix>
</trkpt>
<trkpt lat="-27.274439" lon="151.290064">
  <ele>343.1</ele>
  <time>2026-09-01T19:54:11Z</time>
  <course>0.0</course>
  <speed>0.0</speed>
  <fix>3d</fix>
</trkpt>
<trkpt lat="-27.274439" lon="151.290064">
  <ele>343.1</ele>
  <time>2026-09-01T19:54:11Z</time>
  <course>10.74</course>
  <speed>0.0</speed>
  <fix>3d</fix>
</trkpt>
<trkpt lat="-27.274439" lon="151.290064">
  <ele>343.1</ele>
  <time>2026-09-01T19:54:11Z</time>
  <course>0.0</course>
  <speed>0.0</speed>
  <fix>3d</fix>
</trkpt>
<trkpt lat="-27.274439" lon="151.290064">
  <ele>343.12</ele>
  <time>2026-09-01T19:54:11Z</time>
  <course>10.74</course>
  <speed>0.0</speed>
  <fix>3d</fix>
</trkpt>
<trkpt lat="-27.274439" lon="151.290064">
  <ele>343.1</ele>
  <time>2026-09-01T19:54:11Z</time>
  <course>0.0</course>
  <speed>0.0</speed>
  <fix>3d</fix>
</trkpt>
<trkpt lat="-27.274439" lon="151.290064">
  <ele>342.94</ele>
  <time>2026-09-01T19:54:11Z</time>
  <course>10.74</course>
  <speed>0.0</speed>
  <fix>3d</fix>
</trkpt>
<trkpt lat="-27.274439" lon="151.290064">
  <ele>343.1</ele>
  <time>2026-09-01T19:54:11Z</time>
  <course>0.0</course>
  <speed>0.0</speed>
  <fix>3d</fix>
</trkpt>
<trkpt lat="-27.274439" lon="151.290064">
  <ele>343.25</ele>
  <time>2026-09-01T19:54:11Z</time>
  <course>10.74</course>
  <speed>0.0</speed>
  <fix>3d</fix>
</trkpt>
<trkpt lat="-27.274439" lon="151.290064">
  <ele>343.1</ele>
  <time>2026-09-01T19:54:11Z</time>
  <course>0.0</course>
  <speed>0.0</speed>
  <fix>3d</fix>
</trkpt>
<trkpt lat="-27.274439" lon="151.290064">
  <ele>342.93</ele>
  <time>2026-09-01T19:54:11Z</time>
  <course>10.74</course>
  <speed>0.0</speed>
  <fix>3d</fix>
</trkpt>
<trkpt lat="-27.274439" lon="151.290064">
  <ele>343.1</ele>
  <time>2026-09-01T19:54:11Z</time>
  <course>0.0</course>
  <speed>0.0</speed>
  <fix>3d</fix>
</trkpt>
<trkpt lat="-27.274439" lon="151.290064">
  <ele>343.08</ele>
  <time>2026-09-01T19:54:11Z</time>
  <course>10.74</course>
  <speed>0.0</speed>
  <fix>3d</fix>
</trkpt>
<trkpt lat="-27.274439" lon="151.290064">
  <ele>343.1</ele>
  <time>2026-09-01T19:54:11Z</time>
  <course>0.0</course>
  <speed>0.0</speed>
  <fix>3d</fix>
</trkpt>
<trkpt lat="-27.274439" lon="151.290064">
  <ele>343.23</ele>
  <time>2026-09-01T19:54:11Z</time>
  <course>10.74</course>
  <speed>0.0</speed>
  <fix>3d</fix>
</trkpt>
<trkpt lat="-27.274439" lon="151.290064">
  <ele>343.1</ele>
  <time>2026-09-01T19:54:11Z</time>
  <course>0.0</course>
  <speed>0.0</speed>
  <fix>3d</fix>
</trkpt>
<trkpt lat="-27.274439" lon="151.290064">
  <ele>343.01</ele>
  <time>2026-09-01T19:54:11Z</time>
  <course>10.74</course>
  <speed>0.0</speed>
  <fix>3d</fix>
</trkpt>
<trkpt lat="-27.274439" lon="151.290064">
  <ele>343.1</ele>
  <time>2026-09-01T19:54:11Z</time>
  <course>0.0</course>
  <speed>0.0</speed>
  <fix>3d</fix>
</trkpt>
<trkpt lat="-27.274439" lon="151.290064">
  <ele>343.1</ele>
  <time>2026-09-01T19:54:11Z</time>
  <course>10.74</course>
  <speed>0.0</speed>
  <fix>3d</fix>
</trkpt>
<trkpt lat="-27.274439" lon="151.290064">
  <ele>343.1</ele>
  <time>2026-09-01T19:54:11Z</time>
  <course>0.0</course>
  <speed>0.0</speed>
  <fix>3d</fix>
</trkpt>
<trkpt lat="-27.274439" lon="151.290064">
  <ele>342.99</ele>
  <time>2026-09-01T19:54:11Z</time>
  <course>10.75</course>
  <speed>0.0</speed>
  <fix>3d</fix>
</trkpt>
<trkpt lat="-27.274439" lon="151.290064">
  <ele>343.1</ele>
  <time>2026-09-01T19:54:11Z</time>
  <course>0.0</course>
  <speed>0.0</speed>
  <fix>3d</fix>
</trkpt>
<trkpt lat="-27.274439" lon="151.290064">
  <ele>342.87</ele>
  <time>2026-09-01T19:54:11Z</time>
  <course>10.75</course>
  <speed>0.0</speed>
  <fix>3d</fix>
</trkpt>
<trkpt lat="-27.274439" lon="151.290064">
  <ele>343.1</ele>
  <time>2026-09-01T19:54:11Z</time>
  <course>0.0</course>
  <speed>0.0</speed>
  <fix>3d</fix>
</trkpt>
<trkpt lat="-27.274439" lon="151.290064">
  <ele>343.1</ele>
  <time>2026-09-01T19:54:11Z</time>
  <course>10.75</course>
  <speed>0.0</speed>
  <fix>3d</fix>
</trkpt>
<trkpt lat="-27.274439" lon="151.290064">
  <ele>343.1</ele>
  <time>2026-09-01T19:54:11Z</time>
  <course>0.0</course>
  <speed>0.0</speed>
  <fix>3d</fix>
</trkpt>
<trkpt lat="-27.274439" lon="151.290064">
  <ele>342.99</ele>
  <time>2026-09-01T19:54:11Z</time>
  <course>10.75</course>
  <speed>0.0</speed>
  <fix>3d</fix>
</trkpt>
<trkpt lat="-27.274439" lon="151.290064">
  <ele>343.1</ele>
  <time>2026-09-01T19:54:11Z</time>
  <course>0.0</course>
  <speed>0.0</speed>
  <fix>3d</fix>
</trkpt>
<trkpt lat="-27.274439" lon="151.290064">
  <ele>342.91</ele>
  <time>2026-09-01T19:54:11Z</time>
  <course>10.75</course>
  <speed>0.0</speed>
  <fix>3d</fix>
</trkpt>
<trkpt lat="-27.274439" lon="151.290064">
  <ele>343.1</ele>
  <time>2026-09-01T19:54:11Z</time>
  <course>0.0</course>
  <speed>0.0</speed>
  <fix>3d</fix>
</trkpt>
<trkpt lat="-27.274439" lon="151.290064">
  <ele>342.9</ele>
  <time>2026-09-01T19:54:11Z</time>
  <course>10.75</course>
  <speed>0.0</speed>
  <fix>3d</fix>
</trkpt>
<trkpt lat="-27.274439" lon="151.290064">
  <ele>343.1</ele>
  <time>2026-09-01T19:54:11Z</time>
  <course>0.0</course>
  <speed>0.0</speed>
  <fix>3d</fix>
</trkpt>
<trkpt lat="-27.274439" lon="151.290064">
  <ele>342.87</ele>
  <time>2026-09-01T19:54:11Z</time>
  <course>10.75</course>
  <speed>0.0</speed>
  <fix>3d</fix>
</trkpt>
<trkpt lat="-27.274439" lon="151.290064">
  <ele>343.1</ele>
  <time>2026-09-01T19:54:11Z</time>
  <course>0.0</course>
  <speed>0.0</speed>
  <fix>3d</fix>
</trkpt>
<trkpt lat="-27.274439" lon="151.290064">
  <ele>343.12</ele>
  <time>2026-09-01T19:54:11Z</time>
  <course>10.75</course>
  <speed>0.0</speed>
  <fix>3d</fix>
</trkpt>
<trkpt lat="-27.274439" lon="151.290064">
  <ele>343.1</ele>
  <time>2026-09-01T19:54:11Z</time>
  <course>0.0</course>
  <speed>0.0</speed>
  <fix>3d</fix>
</trkpt>
<trkpt lat="-27.274439" lon="151.290064">
  <ele>342.99</ele>
  <time>2026-09-01T19:54:11Z</time>
  <course>10.75</course>
  <speed>0.0</speed>
  <fix>3d</fix>
</trkpt>
<trkpt lat="-27.274439" lon="151.290064">
  <ele>343.1</ele>
  <time>2026-09-01T19:54:11Z</time>
  <course>0.0</course>
  <speed>0.0</speed>
  <fix>3d</fix>
</trkpt>
<trkpt lat="-27.274439" lon="151.290064">
  <ele>343.13</ele>
  <time>2026-09-01T19:54:11Z</time>
  <course>10.75</course>
  <speed>0.0</speed>
  <fix>3d</fix>
</trkpt>
<trkpt lat="-27.274439" lon="151.290064">
  <ele>343.1</ele>
  <time>2026-09-01T19:54:11Z</time>
  <course>0.0</course>
  <speed>0.0</speed>
  <fix>3d</fix>
</trkpt>
<trkpt lat="-27.274439" lon="151.290064">
  <ele>343.0</ele>
  <time>2026-09-01T19:54:11Z</time>
  <course>10.75</course>
  <speed>0.0</speed>
  <fix>3d</fix>
</trkpt>
<trkpt lat="-27.274439" lon="151.290064">
  <ele>343.1</ele>
  <time>2026-09-01T19:54:11Z</time>
  <course>0.0</course>
  <speed>0.0</speed>
  <fix>3d</fix>
</trkpt>
<trkpt lat="-27.274439" lon="151.290064">
  <ele>343.17</ele>
  <time>2026-09-01T19:54:11Z</time>
  <course>10.75</course>
  <speed>0.0</speed>
  <fix>3d</fix>
</trkpt>
<trkpt lat="-27.274439" lon="151.290064">
  <ele>343.1</ele>
  <time>2026-09-01T19:54:11Z</time>
  <course>0.0</course>
  <speed>0.0</speed>
  <fix>3d</fix>
</trkpt>
<trkpt lat="-27.274439" lon="151.290064">
  <ele>343.0</ele>
  <time>2026-09-01T19:54:11Z</time>
  <course>10.75</course>
  <speed>0.0</speed>
  <fix>3d</fix>
</trkpt>
<trkpt lat="-27.274439" lon="151.290064">
  <ele>343.1</ele>
  <time>2026-09-01T19:54:11Z</time>
  <course>0.0</course>
  <speed>0.0</speed>
  <fix>3d</fix>
</trkpt>
<trkpt lat="-27.274439" lon="151.290064">
  <ele>342.99</ele>
  <time>2026-09-01T19:54:11Z</time>
  <course>10.75</course>
  <speed>0.0</speed>
  <fix>3d</fix>
</trkpt>
<trkpt lat="-27.274439" lon="151.290064">
  <ele>343.1</ele>
  <time>2026-09-01T19:54:11Z</time>
  <course>0.0</course>
  <speed>0.0</speed>
  <fix>3d</fix>
</trkpt>
<trkpt lat="-27.274439" lon="151.290064">
  <ele>343.17</ele>
  <time>2026-09-01T19:54:11Z</time>
  <course>10.75</course>
  <speed>0.0</speed>
  <fix>3d</fix>
</trkpt>
<trkpt lat="-27.274439" lon="151.290064">
  <ele>343.1</ele>
  <time>2026-09-01T19:54:11Z</time>
  <course>0.0</course>
  <speed>0.0</speed>
  <fix>3d</fix>
</trkpt>
<trkpt lat="-27.274439" lon="151.290064">
  <ele>343.16</ele>
  <time>2026-09-01T19:54:11Z</time>
  <course>10.75</course>
  <speed>0.0</speed>
  <fix>3d</fix>
</trkpt>
<trkpt lat="-27.274439" lon="151.290064">
  <ele>343.1</ele>
  <time>2026-09-01T19:54:11Z</time>
  <course>0.0</course>
  <speed>0.0</speed>
  <fix>3d</fix>
</trkpt>
<trkpt lat="-27.274439" lon="151.290064">
  <ele>342.87</ele>
  <time>2026-09-01T19:54:11Z</time>
  <course>10.75</course>
  <speed>0.0</speed>
  <fix>3d</fix>
</trkpt>
<trkpt lat="-27.274439" lon="151.290064">
  <ele>343.1</ele>
  <time>2026-09-01T19:54:11Z</time>
  <course>0.0</course>
  <speed>0.0</speed>
  <fix>3d</fix>
</trkpt>
<trkpt lat="-27.274439" lon="151.290064">
  <ele>343.19</ele>
  <time>2026-09-01T19:54:12Z</time>
  <course>10.75</course>
  <speed>0.0</speed>
  <fix>3d</fix>
</trkpt>
<trkpt lat="-27.274439" lon="151.290064">
  <ele>343.1</ele>
  <time>2026-09-01T19:54:12Z</time>
  <course>0.0</course>
  <speed>0.0</speed>
  <fix>3d</fix>
</trkpt>
<trkpt lat="-27.274439" lon="151.290064">
  <ele>343.16</ele>
  <time>2026-09-01T19:54:12Z</time>
  <course>10.75</course>
  <speed>0.0</speed>
  <fix>3d</fix>
</trkpt>
<trkpt lat="-27.274439" lon="151.290064">
  <ele>343.1</ele>
  <time>2026-09-01T19:54:12Z</time>
  <course>0.0</course>
  <speed>0.0</speed>
  <fix>3d</fix>
</trkpt>
<trkpt lat="-27.274439" lon="151.290064">
  <ele>343.21</ele>
  <time>2026-09-01T19:54:12Z</time>
  <course>10.75</course>
  <speed>0.0</speed>
  <fix>3d</fix>
</trkpt>
<trkpt lat="-27.274439" lon="151.290064">
  <ele>343.1</ele>
  <time>2026-09-01T19:54:12Z</time>
  <course>0.0</course>
  <speed>0.0</speed>
  <fix>3d</fix>
</trkpt>
<trkpt lat="-27.274439" lon="151.290064">
  <ele>343.22</ele>
  <time>2026-09-01T19:54:12Z</time>
  <course>10.75</course>
  <speed>0.0</speed>
  <fix>3d</fix>
</trkpt>
<trkpt lat="-27.274439" lon="151.290064">
  <ele>343.1</ele>
  <time>2026-09-01T19:54:12Z</time>
  <course>0.0</course>
  <speed>0.0</speed>
  <fix>3d</fix>
</trkpt>
<trkpt lat="-27.274439" lon="151.290064">
  <ele>343.24</ele>
  <time>2026-09-01T19:54:12Z</time>
  <course>10.75</course>
  <speed>0.0</speed>
  <fix>3d</fix>
</trkpt>
<trkpt lat="-27.274439" lon="151.290064">
  <ele>343.1</ele>
  <time>2026-09-01T19:54:12Z</time>
  <course>0.0</course>
  <speed>0.0</speed>
  <fix>3d</fix>
</trkpt>
<trkpt lat="-27.274439" lon="151.290064">
  <ele>343.0</ele>
  <time>2026-09-01T19:54:12Z</time>
  <course>10.75</course>
  <speed>0.0</speed>
  <fix>3d</fix>
</trkpt>
<trkpt lat="-27.274439" lon="151.290064">
  <ele>343.1</ele>
  <time>2026-09-01T19:54:12Z</time>
  <course>0.0</course>
  <speed>0.0</speed>
  <fix>3d</fix>
</trkpt>
<trkpt lat="-27.274439" lon="151.290064">
  <ele>343.1</ele>
  <time>2026-09-01T19:54:12Z</time>
  <course>10.75</course>
  <speed>0.0</speed>
  <fix>3d</fix>
</trkpt>
<trkpt lat="-27.274439" lon="151.290064">
  <ele>343.1</ele>
  <time>2026-09-01T19:54:12Z</time>
  <course>0.0</course>
  <speed>0.0</speed>
  <fix>3d</fix>
</trkpt>
<trkpt lat="-27.274439" lon="151.290064">
  <ele>343.05</ele>
  <time>2026-09-01T19:54:12Z</time>
  <course>10.75</course>
  <speed>0.0</speed>
  <fix>3d</fix>
</trkpt>
<trkpt lat="-27.274439" lon="151.290064">
  <ele>343.1</ele>
  <time>2026-09-01T19:54:12Z</time>
  <course>0.0</course>
  <speed>0.0</speed>
  <fix>3d</fix>
</trkpt>
<trkpt lat="-27.274439" lon="151.290064">
  <ele>342.87</ele>
  <time>2026-09-01T19:54:12Z</time>
  <course>10.75</course>
  <speed>0.0</speed>
  <fix>3d</fix>
</trkpt>
<trkpt lat="-27.274439" lon="151.290064">
  <ele>343.1</ele>
  <time>2026-09-01T19:54:12Z</time>
  <course>0.0</course>
  <speed>0.0</speed>
  <fix>3d</fix>
</trkpt>
<trkpt lat="-27.274439" lon="151.290064">
  <ele>342.92</ele>
  <time>2026-09-01T19:54:12Z</time>
  <course>10.75</course>
  <speed>0.0</speed>
  <fix>3d</fix>
</trkpt>
<trkpt lat="-27.274439" lon="151.290064">
  <ele>343.1</ele>
  <time>2026-09-01T19:54:12Z</time>
  <course>0.0</course>
  <speed>0.0</speed>
  <fix>3d</fix>
</trkpt>
<trkpt lat="-27.274439" lon="151.290064">
  <ele>342.96</ele>
  <time>2026-09-01T19:54:12Z</time>
  <course>10.75</course>
  <speed>0.0</speed>
  <fix>3d</fix>
</trkpt>
<trkpt lat="-27.274439" lon="151.290064">
  <ele>343.1</ele>
  <time>2026-09-01T19:54:12Z</time>
  <course>0.0</course>
  <speed>0.0</speed>
  <fix>3d</fix>
</trkpt>
<trkpt lat="-27.274439" lon="151.290064">
  <ele>343.15</ele>
  <time>2026-09-01T19:54:12Z</time>
  <course>10.75</course>
  <speed>0.0</speed>
  <fix>3d</fix>
</trkpt>
<trkpt lat="-27.274439" lon="151.290064">
  <ele>343.1</ele>
  <time>2026-09-01T19:54:12Z</time>
  <course>0.0</course>
  <speed>0.0</speed>
  <fix>3d</fix>
</trkpt>
<trkpt lat="-27.274439" lon="151.290064">
  <ele>343.16</ele>
  <time>2026-09-01T19:54:12Z</time>
  <course>10.75</course>
  <speed>0.0</speed>
  <fix>3d</fix>
</trkpt>
<trkpt lat="-27.274439" lon="151.290064">
  <ele>343.1</ele>
  <time>2026-09-01T19:54:12Z</time>
  <course>0.0</course>
  <speed>0.0</speed>
  <fix>3d</fix>
</trkpt>
<trkpt lat="-27.274439" lon="151.290064">
  <ele>343.2</ele>
  <time>2026-09-01T19:54:12Z</time>
  <course>10.76</course>
  <speed>0.0</speed>
  <fix>3d</fix>
</trkpt>
<trkpt lat="-27.274439" lon="151.290064">
  <ele>343.1</ele>
  <time>2026-09-01T19:54:12Z</time>
  <course>0.0</course>
  <speed>0.0</speed>
  <fix>3d</fix>
</trkpt>
<trkpt lat="-27.274439" lon="151.290064">
  <ele>343.13</ele>
  <time>2026-09-01T19:54:12Z</time>
  <course>10.76</course>
  <speed>0.0</speed>
  <fix>3d</fix>
</trkpt>
<trkpt lat="-27.274439" lon="151.290064">
  <ele>343.1</ele>
  <time>2026-09-01T19:54:12Z</time>
  <course>0.0</course>
  <speed>0.0</speed>
  <fix>3d</fix>
</trkpt>
<trkpt lat="-27.274439" lon="151.290064">
  <ele>343.09</ele>
  <time>2026-09-01T19:54:12Z</time>
  <course>10.71</course>
  <speed>0.0</speed>
  <fix>3d</fix>
</trkpt>
<trkpt lat="-27.274439" lon="151.290064">
  <ele>343.1</ele>
  <time>2026-09-01T19:54:12Z</time>
  <course>0.0</course>
  <speed>0.0</speed>
  <fix>3d</fix>
</trkpt>
<trkpt lat="-27.274439" lon="151.290064">
  <ele>343.09</ele>
  <time>2026-09-01T19:54:12Z</time>
  <course>10.71</course>
  <speed>0.0</speed>
  <fix>3d</fix>
</trkpt>
<trkpt lat="-27.274439" lon="151.290064">
  <ele>343.1</ele>
  <time>2026-09-01T19:54:12Z</time>
  <course>0.0</course>
  <speed>0.0</speed>
  <fix>3d</fix>
</trkpt>
<trkpt lat="-27.274439" lon="151.290064">
  <ele>343.1</ele>
  <time>2026-09-01T19:54:12Z</time>
  <course>10.71</course>
  <speed>0.0</speed>
  <fix>3d</fix>
</trkpt>
<trkpt lat="-27.274439" lon="151.290064">
  <ele>343.1</ele>
  <time>2026-09-01T19:54:12Z</time>
  <course>0.0</course>
  <speed>0.0</speed>
  <fix>3d</fix>
</trkpt>
<trkpt lat="-27.274439" lon="151.290064">
  <ele>343.1</ele>
  <time>2026-09-01T19:54:12Z</time>
  <course>10.71</course>
  <speed>0.0</speed>
  <fix>3d</fix>
</trkpt>
<trkpt lat="-27.274439" lon="151.290064">
  <ele>343.1</ele>
  <time>2026-09-01T19:54:12Z</time>
  <course>0.0</course>
  <speed>0.0</speed>
  <fix>3d</fix>
</trkpt>
<trkpt lat="-27.274439" lon="151.290064">
  <ele>343.1</ele>
  <time>2026-09-01T19:54:12Z</time>
  <course>10.71</course>
  <speed>0.0</speed>
  <fix>3d</fix>
</trkpt>
<trkpt lat="-27.274439" lon="151.290064">
  <ele>343.1</ele>
  <time>2026-09-01T19:54:12Z</time>
  <course>0.0</course>
  <speed>0.0</speed>
  <fix>3d</fix>
</trkpt>
<trkpt lat="-27.274439" lon="151.290064">
  <ele>343.1</ele>
  <time>2026-09-01T19:54:12Z</time>
  <course>10.71</course>
  <speed>0.0</speed>
  <fix>3d</fix>
</trkpt>
<trkpt lat="-27.274439" lon="151.290064">
  <ele>343.1</ele>
  <time>2026-09-01T19:54:12Z</time>
  <course>0.0</course>
  <speed>0.0</speed>
  <fix>3d</fix>
</trkpt>
<trkpt lat="-27.274439" lon="151.290064">
  <ele>343.1</ele>
  <time>2026-09-01T19:54:12Z</time>
  <course>10.71</course>
  <speed>0.0</speed>
  <fix>3d</fix>
</trkpt>
<trkpt lat="-27.274439" lon="151.290064">
  <ele>343.1</ele>
  <time>2026-09-01T19:54:12Z</time>
  <course>0.0</course>
  <speed>0.0</speed>
  <fix>3d</fix>
</trkpt>
<trkpt lat="-27.274439" lon="151.290064">
  <ele>343.11</ele>
  <time>2026-09-01T19:54:12Z</time>
  <course>10.71</course>
  <speed>0.0</speed>
  <fix>3d</fix>
</trkpt>
<trkpt lat="-27.274439" lon="151.290064">
  <ele>343.1</ele>
  <time>2026-09-01T19:54:12Z</time>
  <course>0.0</course>
  <speed>0.0</speed>
  <fix>3d</fix>
</trkpt>
<trkpt lat="-27.274439" lon="151.290064">
  <ele>343.11</ele>
  <time>2026-09-01T19:54:12Z</time>
  <course>10.71</course>
  <speed>0.0</speed>
  <fix>3d</fix>
</trkpt>
<trkpt lat="-27.274439" lon="151.290064">
  <ele>343.1</ele>
  <time>2026-09-01T19:54:12Z</time>
  <course>0.0</course>
  <speed>0.0</speed>
  <fix>3d</fix>
</trkpt>
<trkpt lat="-27.274439" lon="151.290064">
  <ele>343.11</ele>
  <time>2026-09-01T19:54:12Z</time>
  <course>10.71</course>
  <speed>0.0</speed>
  <fix>3d</fix>
</trkpt>
<trkpt lat="-27.274439" lon="151.290064">
  <ele>343.1</ele>
  <time>2026-09-01T19:54:12Z</time>
  <course>0.0</course>
  <speed>0.0</speed>
  <fix>3d</fix>
</trkpt>
<trkpt lat="-27.274439" lon="151.290064">
  <ele>343.12</ele>
  <time>2026-09-01T19:54:12Z</time>
  <course>10.71</course>
  <speed>0.0</speed>
  <fix>3d</fix>
</trkpt>
<trkpt lat="-27.274439" lon="151.290064">
  <ele>343.1</ele>
  <time>2026-09-01T19:54:12Z</time>
  <course>0.0</course>
  <speed>0.0</speed>
  <fix>3d</fix>
</trkpt>
<trkpt lat="-27.274439" lon="151.290064">
  <ele>343.12</ele>
  <time>2026-09-01T19:54:12Z</time>
  <course>10.71</course>
  <speed>0.0</speed>
  <fix>3d</fix>
</trkpt>
<trkpt lat="-27.274439" lon="151.290064">
  <ele>343.1</ele>
  <time>2026-09-01T19:54:12Z</time>
  <course>0.0</course>
  <speed>0.0</speed>
  <fix>3d</fix>
</trkpt>
<trkpt lat="-27.274439" lon="151.290064">
  <ele>343.1</ele>
  <time>2026-09-01T19:54:12Z</time>
  <course>10.71</course>
  <speed>0.0</speed>
  <fix>3d</fix>
</trkpt>
<trkpt lat="-27.274439" lon="151.290064">
  <ele>343.1</ele>
  <time>2026-09-01T19:54:12Z</time>
  <course>0.0</course>
  <speed>0.0</speed>
  <fix>3d</fix>
</trkpt>
<trkpt lat="-27.274439" lon="151.290064">
  <ele>343.1</ele>
  <time>2026-09-01T19:54:12Z</time>
  <course>10.71</course>
  <speed>0.0</speed>
  <fix>3d</fix>
</trkpt>
<trkpt lat="-27.274439" lon="151.290064">
  <ele>343.1</ele>
  <time>2026-09-01T19:54:12Z</time>
  <course>0.0</course>
  <speed>0.0</speed>
  <fix>3d</fix>
</trkpt>
<trkpt lat="-27.274439" lon="151.290064">
  <ele>343.1</ele>
  <time>2026-09-01T19:54:12Z</time>
  <course>10.71</course>
  <speed>0.0</speed>
  <fix>3d</fix>
</trkpt>
<trkpt lat="-27.274439" lon="151.290064">
  <ele>343.1</ele>
  <time>2026-09-01T19:54:12Z</time>
  <course>0.0</course>
  <speed>0.0</speed>
  <fix>3d</fix>
</trkpt>
<trkpt lat="-27.274439" lon="151.290064">
  <ele>343.09</ele>
  <time>2026-09-01T19:54:12Z</time>
  <course>10.71</course>
  <speed>0.0</speed>
  <fix>3d</fix>
</trkpt>
<trkpt lat="-27.274439" lon="151.290064">
  <ele>343.1</ele>
  <time>2026-09-01T19:54:12Z</time>
  <course>0.0</course>
  <speed>0.0</speed>
  <fix>3d</fix>
</trkpt>
<trkpt lat="-27.274439" lon="151.290064">
  <ele>343.09</ele>
  <time>2026-09-01T19:54:12Z</time>
  <course>10.71</course>
  <speed>0.0</speed>
  <fix>3d</fix>
</trkpt>
<trkpt lat="-27.274439" lon="151.290064">
  <ele>343.1</ele>
  <time>2026-09-01T19:54:12Z</time>
  <course>0.0</course>
  <speed>0.0</speed>
  <fix>3d</fix>
</trkpt>
<trkpt lat="-27.274439" lon="151.290064">
  <ele>343.09</ele>
  <time>2026-09-01T19:54:12Z</time>
  <course>10.71</course>
  <speed>0.0</speed>
  <fix>3d</fix>
</trkpt>
<trkpt lat="-27.274439" lon="151.290064">
  <ele>343.1</ele>
  <time>2026-09-01T19:54:12Z</time>
  <course>0.0</course>
  <speed>0.0</speed>
  <fix>3d</fix>
</trkpt>
<trkpt lat="-27.274439" lon="151.290064">
  <ele>343.1</ele>
  <time>2026-09-01T19:54:12Z</time>
  <course>10.71</course>
  <speed>0.0</speed>
  <fix>3d</fix>
</trkpt>
<trkpt lat="-27.274439" lon="151.290064">
  <ele>343.1</ele>
  <time>2026-09-01T19:54:12Z</time>
  <course>0.0</course>
  <speed>0.0</speed>
  <fix>3d</fix>
</trkpt>
<trkpt lat="-27.274439" lon="151.290064">
  <ele>343.1</ele>
  <time>2026-09-01T19:54:12Z</time>
  <course>10.71</course>
  <speed>0.0</speed>
  <fix>3d</fix>
</trkpt>
<trkpt lat="-27.274439" lon="151.290064">
  <ele>343.1</ele>
  <time>2026-09-01T19:54:12Z</time>
  <course>0.0</course>
  <speed>0.0</speed>
  <fix>3d</fix>
</trkpt>
<trkpt lat="-27.274439" lon="151.290064">
  <ele>343.09</ele>
  <time>2026-09-01T19:54:12Z</time>
  <course>10.71</course>
  <speed>0.0</speed>
  <fix>3d</fix>
</trkpt>
<trkpt lat="-27.274439" lon="151.290064">
  <ele>343.1</ele>
  <time>2026-09-01T19:54:12Z</time>
  <course>0.0</course>
  <speed>0.0</speed>
  <fix>3d</fix>
</trkpt>
<trkpt lat="-27.274439" lon="151.290064">
  <ele>343.1</ele>
  <time>2026-09-01T19:54:12Z</time>
  <course>10.71</course>
  <speed>0.0</speed>
  <fix>3d</fix>
</trkpt>
<trkpt lat="-27.274439" lon="151.290064">
  <ele>343.1</ele>
  <time>2026-09-01T19:54:12Z</time>
  <course>0.0</course>
  <speed>0.0</speed>
  <fix>3d</fix>
</trkpt>
<trkpt lat="-27.274439" lon="151.290064">
  <ele>343.1</ele>
  <time>2026-09-01T19:54:12Z</time>
  <course>10.71</course>
  <speed>0.0</speed>
  <fix>3d</fix>
</trkpt>
<trkpt lat="-27.274439" lon="151.290064">
  <ele>343.1</ele>
  <time>2026-09-01T19:54:12Z</time>
  <course>0.0</course>
  <speed>0.0</speed>
  <fix>3d</fix>
</trkpt>
<trkpt lat="-27.274439" lon="151.290064">
  <ele>343.1</ele>
  <time>2026-09-01T19:54:12Z</time>
  <course>10.71</course>
  <speed>0.0</speed>
  <fix>3d</fix>
</trkpt>
<trkpt lat="-27.274439" lon="151.290064">
  <ele>343.1</ele>
  <time>2026-09-01T19:54:12Z</time>
  <course>0.0</course>
  <speed>0.0</speed>
  <fix>3d</fix>
</trkpt>
<trkpt lat="-27.274439" lon="151.290064">
  <ele>343.1</ele>
  <time>2026-09-01T19:54:12Z</time>
  <course>10.71</course>
  <speed>0.0</speed>
  <fix>3d</fix>
</trkpt>
<trkpt lat="-27.274439" lon="151.290064">
  <ele>343.1</ele>
  <time>2026-09-01T19:54:12Z</time>
  <course>0.0</course>
  <speed>0.0</speed>
  <fix>3d</fix>
</trkpt>
<trkpt lat="-27.274439" lon="151.290064">
  <ele>343.1</ele>
  <time>2026-09-01T19:54:12Z</time>
  <course>10.71</course>
  <speed>0.0</speed>
  <fix>3d</fix>
</trkpt>
<trkpt lat="-27.274439" lon="151.290064">
  <ele>343.1</ele>
  <time>2026-09-01T19:54:12Z</time>
  <course>0.0</course>
  <speed>0.0</speed>
  <fix>3d</fix>
</trkpt>
<trkpt lat="-27.274439" lon="151.290064">
  <ele>343.11</ele>
  <time>2026-09-01T19:54:12Z</time>
  <course>10.71</course>
  <speed>0.0</speed>
  <fix>3d</fix>
</trkpt>
<trkpt lat="-27.274439" lon="151.290064">
  <ele>343.1</ele>
  <time>2026-09-01T19:54:12Z</time>
  <course>0.0</course>
  <speed>0.0</speed>
  <fix>3d</fix>
</trkpt>
<trkpt lat="-27.274439" lon="151.290064">
  <ele>343.11</ele>
  <time>2026-09-01T19:54:12Z</time>
  <course>10.71</course>
  <speed>0.0</speed>
  <fix>3d</fix>
</trkpt>
<trkpt lat="-27.274439" lon="151.290064">
  <ele>343.1</ele>
  <time>2026-09-01T19:54:12Z</time>
  <course>0.0</course>
  <speed>0.0</speed>
  <fix>3d</fix>
</trkpt>
<trkpt lat="-27.274439" lon="151.290064">
  <ele>343.11</ele>
  <time>2026-09-01T19:54:12Z</time>
  <course>10.71</course>
  <speed>0.0</speed>
  <fix>3d</fix>
</trkpt>
<trkpt lat="-27.274439" lon="151.290064">
  <ele>343.1</ele>
  <time>2026-09-01T19:54:12Z</time>
  <course>0.0</course>
  <speed>0.0</speed>
  <fix>3d</fix>
</trkpt>
<trkpt lat="-27.274439" lon="151.290064">
  <ele>343.12</ele>
  <time>2026-09-01T19:54:12Z</time>
  <course>10.71</course>
  <speed>0.0</speed>
  <fix>3d</fix>
</trkpt>
<trkpt lat="-27.274439" lon="151.290064">
  <ele>343.1</ele>
  <time>2026-09-01T19:54:12Z</time>
  <course>0.0</course>
  <speed>0.0</speed>
  <fix>3d</fix>
</trkpt>
<trkpt lat="-27.274439" lon="151.290064">
  <ele>343.12</ele>
  <time>2026-09-01T19:54:12Z</time>
  <course>10.71</course>
  <speed>0.0</speed>
  <fix>3d</fix>
</trkpt>
<trkpt lat="-27.274439" lon="151.290064">
  <ele>343.1</ele>
  <time>2026-09-01T19:54:12Z</time>
  <course>0.0</course>
  <speed>0.0</speed>
  <fix>3d</fix>
</trkpt>
<trkpt lat="-27.274439" lon="151.290064">
  <ele>343.13</ele>
  <time>2026-09-01T19:54:12Z</time>
  <course>10.71</course>
  <speed>0.0</speed>
  <fix>3d</fix>
</trkpt>
<trkpt lat="-27.274439" lon="151.290064">
  <ele>343.1</ele>
  <time>2026-09-01T19:54:12Z</time>
  <course>0.0</course>
  <speed>0.0</speed>
  <fix>3d</fix>
</trkpt>
<trkpt lat="-27.274439" lon="151.290064">
  <ele>343.14</ele>
  <time>2026-09-01T19:54:12Z</time>
  <course>10.71</course>
  <speed>0.0</speed>
  <fix>3d</fix>
</trkpt>
<trkpt lat="-27.274439" lon="151.290064">
  <ele>343.1</ele>
  <time>2026-09-01T19:54:12Z</time>
  <course>0.0</course>
  <speed>0.0</speed>
  <fix>3d</fix>
</trkpt>
<trkpt lat="-27.274439" lon="151.290064">
  <ele>343.14</ele>
  <time>2026-09-01T19:54:12Z</time>
  <course>10.71</course>
  <speed>0.0</speed>
  <fix>3d</fix>
</trkpt>
<trkpt lat="-27.274439" lon="151.290064">
  <ele>343.1</ele>
  <time>2026-09-01T19:54:12Z</time>
  <course>0.0</course>
  <speed>0.0</speed>
  <fix>3d</fix>
</trkpt>
<trkpt lat="-27.274439" lon="151.290064">
  <ele>343.15</ele>
  <time>2026-09-01T19:54:12Z</time>
  <course>10.71</course>
  <speed>0.0</speed>
  <fix>3d</fix>
</trkpt>
<trkpt lat="-27.274439" lon="151.290064">
  <ele>343.1</ele>
  <time>2026-09-01T19:54:12Z</time>
  <course>0.0</course>
  <speed>0.0</speed>
  <fix>3d</fix>
</trkpt>
<trkpt lat="-27.274439" lon="151.290064">
  <ele>343.15</ele>
  <time>2026-09-01T19:54:12Z</time>
  <course>10.71</course>
  <speed>0.0</speed>
  <fix>3d</fix>
</trkpt>
<trkpt lat="-27.274439" lon="151.290064">
  <ele>343.1</ele>
  <time>2026-09-01T19:54:12Z</time>
  <course>0.0</course>
  <speed>0.0</speed>
  <fix>3d</fix>
</trkpt>
<trkpt lat="-27.274439" lon="151.290064">
  <ele>343.15</ele>
  <time>2026-09-01T19:54:12Z</time>
  <course>10.71</course>
  <speed>0.0</speed>
  <fix>3d</fix>
</trkpt>
<trkpt lat="-27.274439" lon="151.290064">
  <ele>343.1</ele>
  <time>2026-09-01T19:54:12Z</time>
  <course>0.0</course>
  <speed>0.0</speed>
  <fix>3d</fix>
</trkpt>
<trkpt lat="-27.274439" lon="151.290064">
  <ele>343.16</ele>
  <time>2026-09-01T19:54:12Z</time>
  <course>10.71</course>
  <speed>0.0</speed>
  <fix>3d</fix>
</trkpt>
<trkpt lat="-27.274439" lon="151.290064">
  <ele>343.1</ele>
  <time>2026-09-01T19:54:12Z</time>
  <course>0.0</course>
  <speed>0.0</speed>
  <fix>3d</fix>
</trkpt>
<trkpt lat="-27.274439" lon="151.290064">
  <ele>343.16</ele>
  <time>2026-09-01T19:54:12Z</time>
  <course>10.71</course>
  <speed>0.0</speed>
  <fix>3d</fix>
</trkpt>
<trkpt lat="-27.274439" lon="151.290064">
  <ele>343.1</ele>
  <time>2026-09-01T19:54:12Z</time>
  <course>0.0</course>
  <speed>0.0</speed>
  <fix>3d</fix>
</trkpt>
<trkpt lat="-27.274439" lon="151.290064">
  <ele>343.17</ele>
  <time>2026-09-01T19:54:12Z</time>
  <course>10.71</course>
  <speed>0.0</speed>
  <fix>3d</fix>
</trkpt>
<trkpt lat="-27.274439" lon="151.290064">
  <ele>343.1</ele>
  <time>2026-09-01T19:54:12Z</time>
  <course>0.0</course>
  <speed>0.0</speed>
  <fix>3d</fix>
</trkpt>
<trkpt lat="-27.274439" lon="151.290064">
  <ele>343.17</ele>
  <time>2026-09-01T19:54:12Z</time>
  <course>10.71</course>
  <speed>0.0</speed>
  <fix>3d</fix>
</trkpt>
<trkpt lat="-27.274439" lon="151.290064">
  <ele>343.1</ele>
  <time>2026-09-01T19:54:12Z</time>
  <course>0.0</course>
  <speed>0.0</speed>
  <fix>3d</fix>
</trkpt>
<trkpt lat="-27.274439" lon="151.290064">
  <ele>343.18</ele>
  <time>2026-09-01T19:54:12Z</time>
  <course>10.71</course>
  <speed>0.0</speed>
  <fix>3d</fix>
</trkpt>
<trkpt lat="-27.274439" lon="151.290064">
  <ele>343.1</ele>
  <time>2026-09-01T19:54:12Z</time>
  <course>0.0</course>
  <speed>0.0</speed>
  <fix>3d</fix>
</trkpt>
<trkpt lat="-27.274439" lon="151.290064">
  <ele>343.18</ele>
  <time>2026-09-01T19:54:12Z</time>
  <course>10.71</course>
  <speed>0.01</speed>
  <fix>3d</fix>
</trkpt>
<trkpt lat="-27.274439" lon="151.290064">
  <ele>343.1</ele>
  <time>2026-09-01T19:54:12Z</time>
  <course>0.0</course>
  <speed>0.0</speed>
  <fix>3d</fix>
</trkpt>
<trkpt lat="-27.274439" lon="151.290064">
  <ele>343.19</ele>
  <time>2026-09-01T19:54:12Z</time>
  <course>10.71</course>
  <speed>0.01</speed>
  <fix>3d</fix>
</trkpt>
<trkpt lat="-27.274439" lon="151.290064">
  <ele>343.1</ele>
  <time>2026-09-01T19:54:12Z</time>
  <course>0.0</course>
  <speed>0.0</speed>
  <fix>3d</fix>
</trkpt>
<trkpt lat="-27.274439" lon="151.290064">
  <ele>343.19</ele>
  <time>2026-09-01T19:54:12Z</time>
  <course>10.71</course>
  <speed>0.0</speed>
  <fix>3d</fix>
</trkpt>
<trkpt lat="-27.274439" lon="151.290064">
  <ele>343.1</ele>
  <time>2026-09-01T19:54:12Z</time>
  <course>8.77</course>
  <speed>0.0</speed>
  <fix>3d</fix>
</trkpt>
<trkpt lat="-27.274439" lon="151.290064">
  <ele>343.19</ele>
  <time>2026-09-01T19:54:12Z</time>
  <course>10.71</course>
  <speed>0.0</speed>
  <fix>3d</fix>
</trkpt>
<trkpt lat="-27.274439" lon="151.290064">
  <ele>343.1</ele>
  <time>2026-09-01T19:54:12Z</time>
  <course>8.77</course>
  <speed>0.0</speed>
  <fix>3d</fix>
</trkpt>
<trkpt lat="-27.274439" lon="151.290064">
  <ele>343.19</ele>
  <time>2026-09-01T19:54:12Z</time>
  <course>10.71</course>
  <speed>0.0</speed>
  <fix>3d</fix>
</trkpt>
<trkpt lat="-27.274439" lon="151.290064">
  <ele>343.1</ele>
  <time>2026-09-01T19:54:12Z</time>
  <course>8.24</course>
  <speed>0.0</speed>
  <fix>3d</fix>
</trkpt>
<trkpt lat="-27.274439" lon="151.290064">
  <ele>343.19</ele>
  <time>2026-09-01T19:54:12Z</time>
  <course>10.71</course>
  <speed>0.0</speed>
  <fix>3d</fix>
</trkpt>
<trkpt lat="-27.274439" lon="151.290064">
  <ele>343.1</ele>
  <time>2026-09-01T19:54:12Z</time>
  <course>8.24</course>
  <speed>0.0</speed>
  <fix>3d</fix>
</trkpt>
<trkpt lat="-27.274439" lon="151.290064">
  <ele>343.19</ele>
  <time>2026-09-01T19:54:12Z</time>
  <course>10.71</course>
  <speed>0.0</speed>
  <fix>3d</fix>
</trkpt>
<trkpt lat="-27.274439" lon="151.290064">
  <ele>343.1</ele>
  <time>2026-09-01T19:54:12Z</time>
  <course>189.62</course>
  <speed>0.0</speed>
  <fix>3d</fix>
</trkpt>
<trkpt lat="-27.274439" lon="151.290064">
  <ele>343.2</ele>
  <time>2026-09-01T19:54:12Z</time>
  <course>10.71</course>
  <speed>0.0</speed>
  <fix>3d</fix>
</trkpt>
<trkpt lat="-27.274439" lon="151.290064">
  <ele>343.1</ele>
  <time>2026-09-01T19:54:12Z</time>
  <course>189.62</course>
  <speed>0.0</speed>
  <fix>3d</fix>
</trkpt>
<trkpt lat="-27.274439" lon="151.290064">
  <ele>343.2</ele>
  <time>2026-09-01T19:54:12Z</time>
  <course>10.71</course>
  <speed>0.0</speed>
  <fix>3d</fix>
</trkpt>
<trkpt lat="-27.274439" lon="151.290064">
  <ele>343.1</ele>
  <time>2026-09-01T19:54:12Z</time>
  <course>193.16</course>
  <speed>0.0</speed>
  <fix>3d</fix>
</trkpt>
<trkpt lat="-27.274439" lon="151.290064">
  <ele>343.2</ele>
  <time>2026-09-01T19:54:12Z</time>
  <course>10.71</course>
  <speed>0.0</speed>
  <fix>3d</fix>
</trkpt>
<trkpt lat="-27.274439" lon="151.290064">
  <ele>343.1</ele>
  <time>2026-09-01T19:54:12Z</time>
  <course>193.16</course>
  <speed>0.0</speed>
  <fix>3d</fix>
</trkpt>
<trkpt lat="-27.274439" lon="151.290064">
  <ele>343.2</ele>
  <time>2026-09-01T19:54:12Z</time>
  <course>10.71</course>
  <speed>0.0</speed>
  <fix>3d</fix>
</trkpt>
<trkpt lat="-27.274439" lon="151.290064">
  <ele>343.1</ele>
  <time>2026-09-01T19:54:12Z</time>
  <course>4.81</course>
  <speed>0.0</speed>
  <fix>3d</fix>
</trkpt>
<trkpt lat="-27.274439" lon="151.290064">
  <ele>343.2</ele>
  <time>2026-09-01T19:54:12Z</time>
  <course>10.71</course>
  <speed>0.0</speed>
  <fix>3d</fix>
</trkpt>
<trkpt lat="-27.274439" lon="151.290064">
  <ele>343.1</ele>
  <time>2026-09-01T19:54:12Z</time>
  <course>4.81</course>
  <speed>0.0</speed>
  <fix>3d</fix>
</trkpt>
<trkpt lat="-27.274439" lon="151.290064">
  <ele>343.2</ele>
  <time>2026-09-01T19:54:12Z</time>
  <course>10.71</course>
  <speed>0.0</speed>
  <fix>3d</fix>
</trkpt>
<trkpt lat="-27.274439" lon="151.290064">
  <ele>343.1</ele>
  <time>2026-09-01T19:54:12Z</time>
  <course>13.63</course>
  <speed>0.0</speed>
  <fix>3d</fix>
</trkpt>
<trkpt lat="-27.274439" lon="151.290064">
  <ele>343.2</ele>
  <time>2026-09-01T19:54:12Z</time>
  <course>10.71</course>
  <speed>0.0</speed>
  <fix>3d</fix>
</trkpt>
<trkpt lat="-27.274439" lon="151.290064">
  <ele>343.1</ele>
  <time>2026-09-01T19:54:12Z</time>
  <course>13.63</course>
  <speed>0.0</speed>
  <fix>3d</fix>
</trkpt>
<trkpt lat="-27.274439" lon="151.290064">
  <ele>343.2</ele>
  <time>2026-09-01T19:54:12Z</time>
  <course>10.71</course>
  <speed>0.0</speed>
  <fix>3d</fix>
</trkpt>
<trkpt lat="-27.274439" lon="151.290064">
  <ele>343.1</ele>
  <time>2026-09-01T19:54:12Z</time>
  <course>1.66</course>
  <speed>0.0</speed>
  <fix>3d</fix>
</trkpt>
<trkpt lat="-27.274439" lon="151.290064">
  <ele>343.2</ele>
  <time>2026-09-01T19:54:12Z</time>
  <course>10.71</course>
  <speed>0.0</speed>
  <fix>3d</fix>
</trkpt>
<trkpt lat="-27.274439" lon="151.290064">
  <ele>343.1</ele>
  <time>2026-09-01T19:54:12Z</time>
  <course>1.66</course>
  <speed>0.0</speed>
  <fix>3d</fix>
</trkpt>
<trkpt lat="-27.274439" lon="151.290064">
  <ele>343.2</ele>
  <time>2026-09-01T19:54:12Z</time>
  <course>10.71</course>
  <speed>0.0</speed>
  <fix>3d</fix>
</trkpt>
<trkpt lat="-27.274439" lon="151.290064">
  <ele>343.1</ele>
  <time>2026-09-01T19:54:12Z</time>
  <course>358.02</course>
  <speed>0.0</speed>
  <fix>3d</fix>
</trkpt>
<trkpt lat="-27.274439" lon="151.290064">
  <ele>343.2</ele>
  <time>2026-09-01T19:54:12Z</time>
  <course>10.71</course>
  <speed>0.0</speed>
  <fix>3d</fix>
</trkpt>
<trkpt lat="-27.274439" lon="151.290064">
  <ele>343.1</ele>
  <time>2026-09-01T19:54:12Z</time>
  <course>358.02</course>
  <speed>0.0</speed>
  <fix>3d</fix>
</trkpt>
<trkpt lat="-27.274439" lon="151.290064">
  <ele>343.2</ele>
  <time>2026-09-01T19:54:12Z</time>
  <course>10.71</course>
  <speed>0.0</speed>
  <fix>3d</fix>
</trkpt>
<trkpt lat="-27.274439" lon="151.290064">
  <ele>343.1</ele>
  <time>2026-09-01T19:54:12Z</time>
  <course>359.58</course>
  <speed>0.0</speed>
  <fix>3d</fix>
</trkpt>
<trkpt lat="-27.274439" lon="151.290064">
  <ele>343.2</ele>
  <time>2026-09-01T19:54:12Z</time>
  <course>10.71</course>
  <speed>0.0</speed>
  <fix>3d</fix>
</trkpt>
<trkpt lat="-27.274439" lon="151.290064">
  <ele>343.1</ele>
  <time>2026-09-01T19:54:12Z</time>
  <course>359.58</course>
  <speed>0.0</speed>
  <fix>3d</fix>
</trkpt>
<trkpt lat="-27.274439" lon="151.290064">
  <ele>343.2</ele>
  <time>2026-09-01T19:54:12Z</time>
  <course>10.71</course>
  <speed>0.0</speed>
  <fix>3d</fix>
</trkpt>
<trkpt lat="-27.274439" lon="151.290064">
  <ele>343.1</ele>
  <time>2026-09-01T19:54:12Z</time>
  <course>3.96</course>
  <speed>0.0</speed>
  <fix>3d</fix>
</trkpt>
<trkpt lat="-27.274439" lon="151.290064">
  <ele>343.21</ele>
  <time>2026-09-01T19:54:12Z</time>
  <course>10.71</course>
  <speed>0.0</speed>
  <fix>3d</fix>
</trkpt>
<trkpt lat="-27.274439" lon="151.290064">
  <ele>343.1</ele>
  <time>2026-09-01T19:54:12Z</time>
  <course>3.96</course>
  <speed>0.0</speed>
  <fix>3d</fix>
</trkpt>
<trkpt lat="-27.274439" lon="151.290064">
  <ele>343.21</ele>
  <time>2026-09-01T19:54:12Z</time>
  <course>10.71</course>
  <speed>0.0</speed>
  <fix>3d</fix>
</trkpt>
<trkpt lat="-27.274439" lon="151.290064">
  <ele>343.1</ele>
  <time>2026-09-01T19:54:12Z</time>
  <course>358.7</course>
  <speed>0.0</speed>
  <fix>3d</fix>
</trkpt>
<trkpt lat="-27.274439" lon="151.290064">
  <ele>343.21</ele>
  <time>2026-09-01T19:54:12Z</time>
  <course>10.71</course>
  <speed>0.0</speed>
  <fix>3d</fix>
</trkpt>
<trkpt lat="-27.274439" lon="151.290064">
  <ele>343.1</ele>
  <time>2026-09-01T19:54:12Z</time>
  <course>358.7</course>
  <speed>0.0</speed>
  <fix>3d</fix>
</trkpt>
<trkpt lat="-27.274439" lon="151.290064">
  <ele>343.21</ele>
  <time>2026-09-01T19:54:12Z</time>
  <course>10.71</course>
  <speed>0.0</speed>
  <fix>3d</fix>
</trkpt>
<trkpt lat="-27.274439" lon="151.290064">
  <ele>343.1</ele>
  <time>2026-09-01T19:54:12Z</time>
  <course>3.55</course>
  <speed>0.0</speed>
  <fix>3d</fix>
</trkpt>
<trkpt lat="-27.274439" lon="151.290064">
  <ele>343.21</ele>
  <time>2026-09-01T19:54:12Z</time>
  <course>10.7</course>
  <speed>0.0</speed>
  <fix>3d</fix>
</trkpt>
<trkpt lat="-27.274439" lon="151.290064">
  <ele>343.1</ele>
  <time>2026-09-01T19:54:12Z</time>
  <course>3.55</course>
  <speed>0.0</speed>
  <fix>3d</fix>
</trkpt>
<trkpt lat="-27.274439" lon="151.290064">
  <ele>343.21</ele>
  <time>2026-09-01T19:54:12Z</time>
  <course>10.7</course>
  <speed>0.0</speed>
  <fix>3d</fix>
</trkpt>
<trkpt lat="-27.274439" lon="151.290064">
  <ele>343.1</ele>
  <time>2026-09-01T19:54:12Z</time>
  <course>11.53</course>
  <speed>0.0</speed>
  <fix>3d</fix>
</trkpt>
<trkpt lat="-27.274439" lon="151.290064">
  <ele>343.21</ele>
  <time>2026-09-01T19:54:12Z</time>
  <course>10.7</course>
  <speed>0.0</speed>
  <fix>3d</fix>
</trkpt>
<trkpt lat="-27.274439" lon="151.290064">
  <ele>343.1</ele>
  <time>2026-09-01T19:54:12Z</time>
  <course>11.53</course>
  <speed>0.0</speed>
  <fix>3d</fix>
</trkpt>
<trkpt lat="-27.274439" lon="151.290064">
  <ele>343.21</ele>
  <time>2026-09-01T19:54:12Z</time>
  <course>10.7</course>
  <speed>0.0</speed>
  <fix>3d</fix>
</trkpt>
<trkpt lat="-27.274439" lon="151.290064">
  <ele>343.1</ele>
  <time>2026-09-01T19:54:12Z</time>
  <course>0.01</course>
  <speed>0.0</speed>
  <fix>3d</fix>
</trkpt>
<trkpt lat="-27.274439" lon="151.290064">
  <ele>343.21</ele>
  <time>2026-09-01T19:54:12Z</time>
  <course>10.7</course>
  <speed>0.0</speed>
  <fix>3d</fix>
</trkpt>
<trkpt lat="-27.274439" lon="151.290064">
  <ele>343.1</ele>
  <time>2026-09-01T19:54:12Z</time>
  <course>0.01</course>
  <speed>0.0</speed>
  <fix>3d</fix>
</trkpt>
<trkpt lat="-27.274439" lon="151.290064">
  <ele>343.21</ele>
  <time>2026-09-01T19:54:12Z</time>
  <course>10.7</course>
  <speed>0.0</speed>
  <fix>3d</fix>
</trkpt>
<trkpt lat="-27.274439" lon="151.290064">
  <ele>343.1</ele>
  <time>2026-09-01T19:54:12Z</time>
  <course>349.11</course>
  <speed>0.0</speed>
  <fix>3d</fix>
</trkpt>
<trkpt lat="-27.274439" lon="151.290064">
  <ele>343.22</ele>
  <time>2026-09-01T19:54:12Z</time>
  <course>10.7</course>
  <speed>0.01</speed>
  <fix>3d</fix>
</trkpt>
<trkpt lat="-27.274439" lon="151.290064">
  <ele>343.1</ele>
  <time>2026-09-01T19:54:12Z</time>
  <course>349.11</course>
  <speed>0.0</speed>
  <fix>3d</fix>
</trkpt>
<trkpt lat="-27.274439" lon="151.290064">
  <ele>343.22</ele>
  <time>2026-09-01T19:54:12Z</time>
  <course>10.7</course>
  <speed>0.0412310562561766</speed>
  <fix>3d</fix>
</trkpt>
<trkpt lat="-27.274439" lon="151.290064">
  <ele>343.1</ele>
  <time>2026-09-01T19:54:12Z</time>
  <course>7.8</course>
  <speed>0.01</speed>
  <fix>3d</fix>
</trkpt>
<trkpt lat="-27.274439" lon="151.290064">
  <ele>343.22</ele>
  <time>2026-09-01T19:54:12Z</time>
  <course>10.7</course>
  <speed>0.06082762530298219</speed>
  <fix>3d</fix>
</trkpt>
<trkpt lat="-27.274439" lon="151.290064">
  <ele>343.1</ele>
  <time>2026-09-01T19:54:12Z</time>
  <course>7.8</course>
  <speed>0.01</speed>
  <fix>3d</fix>
</trkpt>
<trkpt lat="-27.2744389" lon="151.290064">
  <ele>343.22</ele>
  <time>2026-09-01T19:54:12Z</time>
  <course>10.7</course>
  <speed>0.06082762530298219</speed>
  <fix>3d</fix>
</trkpt>
<trkpt lat="-27.2744389" lon="151.290064">
  <ele>343.1</ele>
  <time>2026-09-01T19:54:12Z</time>
  <course>8.85</course>
  <speed>0.04</speed>
  <fix>3d</fix>
</trkpt>
<trkpt lat="-27.2744389" lon="151.290064">
  <ele>343.22</ele>
  <time>2026-09-01T19:54:12Z</time>
  <course>10.7</course>
  <speed>0.06082762530298219</speed>
  <fix>3d</fix>
</trkpt>
<trkpt lat="-27.2744389" lon="151.290064">
  <ele>343.1</ele>
  <time>2026-09-01T19:54:12Z</time>
  <course>8.85</course>
  <speed>0.04</speed>
  <fix>3d</fix>
</trkpt>
<trkpt lat="-27.2744388" lon="151.290064">
  <ele>343.22</ele>
  <time>2026-09-01T19:54:12Z</time>
  <course>10.7</course>
  <speed>0.05099019513592785</speed>
  <fix>3d</fix>
</trkpt>
<trkpt lat="-27.2744388" lon="151.290064">
  <ele>343.1</ele>
  <time>2026-09-01T19:54:12Z</time>
  <course>8.49</course>
  <speed>0.06</speed>
  <fix>3d</fix>
</trkpt>
<trkpt lat="-27.2744387" lon="151.290064">
  <ele>343.22</ele>
  <time>2026-09-01T19:54:12Z</time>
  <course>10.7</course>
  <speed>0.05099019513592785</speed>
  <fix>3d</fix>
</trkpt>
<trkpt lat="-27.2744388" lon="151.290064">
  <ele>343.1</ele>
  <time>2026-09-01T19:54:12Z</time>
  <course>8.49</course>
  <speed>0.06</speed>
  <fix>3d</fix>
</trkpt>
<trkpt lat="-27.2744387" lon="151.290064">
  <ele>343.22</ele>
  <time>2026-09-01T19:54:12Z</time>
  <course>10.7</course>
  <speed>0.05099019513592785</speed>
  <fix>3d</fix>
</trkpt>
<trkpt lat="-27.2744387" lon="151.290064">
  <ele>343.1</ele>
  <time>2026-09-01T19:54:12Z</time>
  <course>7.82</course>
  <speed>0.06</speed>
  <fix>3d</fix>
</trkpt>
<trkpt lat="-27.2744386" lon="151.290064">
  <ele>343.22</ele>
  <time>2026-09-01T19:54:12Z</time>
  <course>10.7</course>
  <speed>0.06082762530298219</speed>
  <fix>3d</fix>
</trkpt>
<trkpt lat="-27.2744387" lon="151.290064">
  <ele>343.1</ele>
  <time>2026-09-01T19:54:12Z</time>
  <course>7.82</course>
  <speed>0.06</speed>
  <fix>3d</fix>
</trkpt>
<trkpt lat="-27.2744386" lon="151.290064">
  <ele>343.22</ele>
  <time>2026-09-01T19:54:12Z</time>
  <course>10.7</course>
  <speed>0.05099019513592785</speed>
  <fix>3d</fix>
</trkpt>
<trkpt lat="-27.2744386" lon="151.290064">
  <ele>343.1</ele>
  <time>2026-09-01T19:54:12Z</time>
  <course>7.32</course>
  <speed>0.06</speed>
  <fix>3d</fix>
</trkpt>
<trkpt lat="-27.2744385" lon="151.290064">
  <ele>343.22</ele>
  <time>2026-09-01T19:54:12Z</time>
  <course>10.7</course>
  <speed>0.02</speed>
  <fix>3d</fix>
</trkpt>
<trkpt lat="-27.2744386" lon="151.290064">
  <ele>343.1</ele>
  <time>2026-09-01T19:54:12Z</time>
  <course>7.32</course>
  <speed>0.06</speed>
  <fix>3d</fix>
</trkpt>
<trkpt lat="-27.2744385" lon="151.290064">
  <ele>343.23</ele>
  <time>2026-09-01T19:54:12Z</time>
  <course>10.69</course>
  <speed>0.0</speed>
  <fix>3d</fix>
</trkpt>
<trkpt lat="-27.2744385" lon="151.290064">
  <ele>343.1</ele>
  <time>2026-09-01T19:54:12Z</time>
  <course>8.36</course>
  <speed>0.04</speed>
  <fix>3d</fix>
</trkpt>
<trkpt lat="-27.2744385" lon="151.290064">
  <ele>343.23</ele>
  <time>2026-09-01T19:54:12Z</time>
  <course>10.69</course>
  <speed>0.0</speed>
  <fix>3d</fix>
</trkpt>
<trkpt lat="-27.2744385" lon="151.290064">
  <ele>343.1</ele>
  <time>2026-09-01T19:54:12Z</time>
  <course>8.36</course>
  <speed>0.04</speed>
  <fix>3d</fix>
</trkpt>
<trkpt lat="-27.2744385" lon="151.290064">
  <ele>343.23</ele>
  <time>2026-09-01T19:54:12Z</time>
  <course>10.69</course>
  <speed>0.0</speed>
  <fix>3d</fix>
</trkpt>
<trkpt lat="-27.2744384" lon="151.290064">
  <ele>343.1</ele>
  <time>2026-09-01T19:54:12Z</time>
  <course>2.63</course>
  <speed>0.01</speed>
  <fix>3d</fix>
</trkpt>
<trkpt lat="-27.2744385" lon="151.290064">
  <ele>343.23</ele>
  <time>2026-09-01T19:54:12Z</time>
  <course>10.69</course>
  <speed>0.0</speed>
  <fix>3d</fix>
</trkpt>
<trkpt lat="-27.2744384" lon="151.290064">
  <ele>343.1</ele>
  <time>2026-09-01T19:54:12Z</time>
  <course>2.63</course>
  <speed>0.01</speed>
  <fix>3d</fix>
</trkpt>
<trkpt lat="-27.2744385" lon="151.290064">
  <ele>343.22</ele>
  <time>2026-09-01T19:54:12Z</time>
  <course>10.69</course>
  <speed>0.0</speed>
  <fix>3d</fix>
</trkpt>
<trkpt lat="-27.2744384" lon="151.290064">
  <ele>343.1</ele>
  <time>2026-09-01T19:54:12Z</time>
  <course>260.44</course>
  <speed>0.0</speed>
  <fix>3d</fix>
</trkpt>
<trkpt lat="-27.2744385" lon="151.290064">
  <ele>343.22</ele>
  <time>2026-09-01T19:54:12Z</time>
  <course>10.69</course>
  <speed>0.0</speed>
  <fix>3d</fix>
</trkpt>
<trkpt lat="-27.2744384" lon="151.290064">
  <ele>343.1</ele>
  <time>2026-09-01T19:54:12Z</time>
  <course>260.44</course>
  <speed>0.0</speed>
  <fix>3d</fix>
</trkpt>
<trkpt lat="-27.2744385" lon="151.290064">
  <ele>343.22</ele>
  <time>2026-09-01T19:54:12Z</time>
  <course>10.69</course>
  <speed>0.0</speed>
  <fix>3d</fix>
</trkpt>
<trkpt lat="-27.2744384" lon="151.290064">
  <ele>343.1</ele>
  <time>2026-09-01T19:54:12Z</time>
  <course>15.26</course>
  <speed>0.0</speed>
  <fix>3d</fix>
</trkpt>
<trkpt lat="-27.2744385" lon="151.290064">
  <ele>343.22</ele>
  <time>2026-09-01T19:54:12Z</time>
  <course>10.69</course>
  <speed>0.0</speed>
  <fix>3d</fix>
</trkpt>
<trkpt lat="-27.2744384" lon="151.290064">
  <ele>343.1</ele>
  <time>2026-09-01T19:54:12Z</time>
  <course>15.26</course>
  <speed>0.0</speed>
  <fix>3d</fix>
</trkpt>
<trkpt lat="-27.2744385" lon="151.290064">
  <ele>343.22</ele>
  <time>2026-09-01T19:54:12Z</time>
  <course>10.69</course>
  <speed>0.0</speed>
  <fix>3d</fix>
</trkpt>
<trkpt lat="-27.2744384" lon="151.290064">
  <ele>343.1</ele>
  <time>2026-09-01T19:54:12Z</time>
  <course>354.27</course>
  <speed>0.0</speed>
  <fix>3d</fix>
</trkpt>
<trkpt lat="-27.2744385" lon="151.290064">
  <ele>343.22</ele>
  <time>2026-09-01T19:54:12Z</time>
  <course>10.69</course>
  <speed>0.0</speed>
  <fix>3d</fix>
</trkpt>
<trkpt lat="-27.2744384" lon="151.290064">
  <ele>343.1</ele>
  <time>2026-09-01T19:54:12Z</time>
  <course>354.27</course>
  <speed>0.0</speed>
  <fix>3d</fix>
</trkpt>
<trkpt lat="-27.2744385" lon="151.290064">
  <ele>343.22</ele>
  <time>2026-09-01T19:54:12Z</time>
  <course>10.69</course>
  <speed>0.0</speed>
  <fix>3d</fix>
</trkpt>
<trkpt lat="-27.2744384" lon="151.2900641">
  <ele>343.1</ele>
  <time>2026-09-01T19:54:12Z</time>
  <course>356.76</course>
  <speed>0.0</speed>
  <fix>3d</fix>
</trkpt>
<trkpt lat="-27.2744384" lon="151.290064">
  <ele>343.22</ele>
  <time>2026-09-01T19:54:12Z</time>
  <course>10.69</course>
  <speed>0.0</speed>
  <fix>3d</fix>
</trkpt>
<trkpt lat="-27.2744384" lon="151.2900641">
  <ele>343.1</ele>
  <time>2026-09-01T19:54:12Z</time>
  <course>356.76</course>
  <speed>0.0</speed>
  <fix>3d</fix>
</trkpt>
<trkpt lat="-27.2744384" lon="151.290064">
  <ele>343.22</ele>
  <time>2026-09-01T19:54:12Z</time>
  <course>10.69</course>
  <speed>0.0</speed>
  <fix>3d</fix>
</trkpt>
<trkpt lat="-27.2744384" lon="151.2900641">
  <ele>343.1</ele>
  <time>2026-09-01T19:54:12Z</time>
  <course>7.06</course>
  <speed>0.0</speed>
  <fix>3d</fix>
</trkpt>
<trkpt lat="-27.2744384" lon="151.290064">
  <ele>343.23</ele>
  <time>2026-09-01T19:54:12Z</time>
  <course>10.69</course>
  <speed>0.01</speed>
  <fix>3d</fix>
</trkpt>
<trkpt lat="-27.2744384" lon="151.2900641">
  <ele>343.1</ele>
  <time>2026-09-01T19:54:12Z</time>
  <course>7.06</course>
  <speed>0.0</speed>
  <fix>3d</fix>
</trkpt>
<trkpt lat="-27.2744384" lon="151.290064">
  <ele>343.23</ele>
  <time>2026-09-01T19:54:12Z</time>
  <course>10.69</course>
  <speed>0.01</speed>
  <fix>3d</fix>
</trkpt>
<trkpt lat="-27.2744384" lon="151.2900641">
  <ele>343.1</ele>
  <time>2026-09-01T19:54:12Z</time>
  <course>0.19</course>
  <speed>0.0</speed>
  <fix>3d</fix>
</trkpt>
<trkpt lat="-27.2744384" lon="151.290064">
  <ele>343.23</ele>
  <time>2026-09-01T19:54:12Z</time>
  <course>10.69</course>
  <speed>0.0</speed>
  <fix>3d</fix>
</trkpt>
<trkpt lat="-27.2744384" lon="151.2900641">
  <ele>343.1</ele>
  <time>2026-09-01T19:54:12Z</time>
  <course>0.19</course>
  <speed>0.0</speed>
  <fix>3d</fix>
</trkpt>
<trkpt lat="-27.2744384" lon="151.2900641">
  <ele>343.23</ele>
  <time>2026-09-01T19:54:12Z</time>
  <course>10.69</course>
  <speed>0.0</speed>
  <fix>3d</fix>
</trkpt>
<trkpt lat="-27.2744384" lon="151.2900641">
  <ele>343.1</ele>
  <time>2026-09-01T19:54:12Z</time>
  <course>3.04</course>
  <speed>0.0</speed>
  <fix>3d</fix>
</trkpt>
<trkpt lat="-27.2744384" lon="151.2900641">
  <ele>343.23</ele>
  <time>2026-09-01T19:54:12Z</time>
  <course>10.69</course>
  <speed>0.01</speed>
  <fix>3d</fix>
</trkpt>
<trkpt lat="-27.2744384" lon="151.2900641">
  <ele>343.1</ele>
  <time>2026-09-01T19:54:12Z</time>
  <course>3.04</course>
  <speed>0.0</speed>
  <fix>3d</fix>
</trkpt>
<trkpt lat="-27.2744384" lon="151.2900641">
  <ele>343.23</ele>
  <time>2026-09-01T19:54:12Z</time>
  <course>10.69</course>
  <speed>0.0</speed>
  <fix>3d</fix>
</trkpt>
<trkpt lat="-27.2744384" lon="151.2900641">
  <ele>343.1</ele>
  <time>2026-09-01T19:54:12Z</time>
  <course>14.77</course>
  <speed>0.0</speed>
  <fix>3d</fix>
</trkpt>
<trkpt lat="-27.2744384" lon="151.2900641">
  <ele>343.23</ele>
  <time>2026-09-01T19:54:12Z</time>
  <course>10.69</course>
  <speed>0.01</speed>
  <fix>3d</fix>
</trkpt>
<trkpt lat="-27.2744384" lon="151.2900641">
  <ele>343.1</ele>
  <time>2026-09-01T19:54:12Z</time>
  <course>14.77</course>
  <speed>0.0</speed>
  <fix>3d</fix>
</trkpt>
<trkpt lat="-27.2744384" lon="151.2900641">
  <ele>343.23</ele>
  <time>2026-09-01T19:54:12Z</time>
  <course>10.69</course>
  <speed>0.0</speed>
  <fix>3d</fix>
</trkpt>
<trkpt lat="-27.2744384" lon="151.2900641">
  <ele>343.1</ele>
  <time>2026-09-01T19:54:12Z</time>
  <course>25.06</course>
  <speed>0.0</speed>
  <fix>3d</fix>
</trkpt>
<trkpt lat="-27.2744384" lon="151.2900641">
  <ele>343.23</ele>
  <time>2026-09-01T19:54:12Z</time>
  <course>10.69</course>
  <speed>0.01</speed>
  <fix>3d</fix>
</trkpt>
<trkpt lat="-27.2744384" lon="151.2900641">
  <ele>343.1</ele>
  <time>2026-09-01T19:54:12Z</time>
  <course>25.06</course>
  <speed>0.0</speed>
  <fix>3d</fix>
</trkpt>
<trkpt lat="-27.2744384" lon="151.2900641">
  <ele>343.23</ele>
  <time>2026-09-01T19:54:12Z</time>
  <course>10.69</course>
  <speed>0.0</speed>
  <fix>3d</fix>
</trkpt>
<trkpt lat="-27.2744384" lon="151.2900641">
  <ele>343.1</ele>
  <time>2026-09-01T19:54:12Z</time>
  <course>21.21</course>
  <speed>0.0</speed>
  <fix>3d</fix>
</trkpt>
<trkpt lat="-27.2744384" lon="151.2900641">
  <ele>343.23</ele>
  <time>2026-09-01T19:54:12Z</time>
  <course>10.69</course>
  <speed>0.0</speed>
  <fix>3d</fix>
</trkpt>
<trkpt lat="-27.2744384" lon="151.2900641">
  <ele>343.1</ele>
  <time>2026-09-01T19:54:12Z</time>
  <course>21.21</course>
  <speed>0.0</speed>
  <fix>3d</fix>
</trkpt>
<trkpt lat="-27.2744384" lon="151.2900641">
  <ele>343.23</ele>
  <time>2026-09-01T19:54:12Z</time>
  <course>10.69</course>
  <speed>0.0</speed>
  <fix>3d</fix>
</trkpt>
<trkpt lat="-27.2744384" lon="151.2900641">
  <ele>343.1</ele>
  <time>2026-09-01T19:54:12Z</time>
  <course>2.55</course>
  <speed>0.0</speed>
  <fix>3d</fix>
</trkpt>
<trkpt lat="-27.2744384" lon="151.2900641">
  <ele>343.23</ele>
  <time>2026-09-01T19:54:12Z</time>
  <course>10.69</course>
  <speed>0.01</speed>
  <fix>3d</fix>
</trkpt>
<trkpt lat="-27.2744384" lon="151.2900641">
  <ele>343.1</ele>
  <time>2026-09-01T19:54:12Z</time>
  <course>2.55</course>
  <speed>0.0</speed>
  <fix>3d</fix>
</trkpt>
<trkpt lat="-27.2744384" lon="151.2900641">
  <ele>343.23</ele>
  <time>2026-09-01T19:54:12Z</time>
  <course>10.69</course>
  <speed>0.0</speed>
  <fix>3d</fix>
</trkpt>
<trkpt lat="-27.2744383" lon="151.2900641">
  <ele>343.1</ele>
  <time>2026-09-01T19:54:12Z</time>
  <course>11.6</course>
  <speed>0.0</speed>
  <fix>3d</fix>
</trkpt>
<trkpt lat="-27.2744384" lon="151.2900641">
  <ele>343.23</ele>
  <time>2026-09-01T19:54:12Z</time>
  <course>10.69</course>
  <speed>0.0</speed>
  <fix>3d</fix>
</trkpt>
<trkpt lat="-27.2744383" lon="151.2900641">
  <ele>343.1</ele>
  <time>2026-09-01T19:54:12Z</time>
  <course>11.6</course>
  <speed>0.0</speed>
  <fix>3d</fix>
</trkpt>
<trkpt lat="-27.2744384" lon="151.2900641">
  <ele>343.23</ele>
  <time>2026-09-01T19:54:12Z</time>
  <course>10.69</course>
  <speed>0.0</speed>
  <fix>3d</fix>
</trkpt>
<trkpt lat="-27.2744383" lon="151.2900641">
  <ele>343.1</ele>
  <time>2026-09-01T19:54:12Z</time>
  <course>14.16</course>
  <speed>0.0</speed>
  <fix>3d</fix>
</trkpt>
<trkpt lat="-27.2744384" lon="151.2900641">
  <ele>343.23</ele>
  <time>2026-09-01T19:54:12Z</time>
  <course>10.7</course>
  <speed>0.0</speed>
  <fix>3d</fix>
</trkpt>
<trkpt lat="-27.2744383" lon="151.2900641">
  <ele>343.1</ele>
  <time>2026-09-01T19:54:12Z</time>
  <course>14.16</course>
  <speed>0.0</speed>
  <fix>3d</fix>
</trkpt>
<trkpt lat="-27.2744384" lon="151.2900641">
  <ele>343.24</ele>
  <time>2026-09-01T19:54:12Z</time>
  <course>10.7</course>
  <speed>0.0</speed>
  <fix>3d</fix>
</trkpt>
<trkpt lat="-27.2744383" lon="151.2900641">
  <ele>343.1</ele>
  <time>2026-09-01T19:54:12Z</time>
  <course>3.08</course>
  <speed>0.0</speed>
  <fix>3d</fix>
</trkpt>
<trkpt lat="-27.2744384" lon="151.2900641">
  <ele>343.24</ele>
  <time>2026-09-01T19:54:12Z</time>
  <course>10.7</course>
  <speed>0.0</speed>
  <fix>3d</fix>
</trkpt>
<trkpt lat="-27.2744383" lon="151.2900641">
  <ele>343.1</ele>
  <time>2026-09-01T19:54:12Z</time>
  <course>3.08</course>
  <speed>0.0</speed>
  <fix>3d</fix>
</trkpt>
<trkpt lat="-27.2744384" lon="151.2900641">
  <ele>343.24</ele>
  <time>2026-09-01T19:54:12Z</time>
  <course>10.7</course>
  <speed>0.0</speed>
  <fix>3d</fix>
</trkpt>
<trkpt lat="-27.2744383" lon="151.2900641">
  <ele>343.1</ele>
  <time>2026-09-01T19:54:12Z</time>
  <course>12.08</course>
  <speed>0.0</speed>
  <fix>3d</fix>
</trkpt>
<trkpt lat="-27.2744384" lon="151.2900641">
  <ele>343.24</ele>
  <time>2026-09-01T19:54:12Z</time>
  <course>10.7</course>
  <speed>0.0</speed>
  <fix>3d</fix>
</trkpt>
<trkpt lat="-27.2744383" lon="151.2900641">
  <ele>343.1</ele>
  <time>2026-09-01T19:54:12Z</time>
  <course>12.08</course>
  <speed>0.0</speed>
  <fix>3d</fix>
</trkpt>
<trkpt lat="-27.2744384" lon="151.2900641">
  <ele>343.24</ele>
  <time>2026-09-01T19:54:12Z</time>
  <course>10.7</course>
  <speed>0.0</speed>
  <fix>3d</fix>
</trkpt>
<trkpt lat="-27.2744383" lon="151.2900641">
  <ele>343.1</ele>
  <time>2026-09-01T19:54:12Z</time>
  <course>8.86</course>
  <speed>0.0</speed>
  <fix>3d</fix>
</trkpt>
<trkpt lat="-27.2744384" lon="151.2900641">
  <ele>343.24</ele>
  <time>2026-09-01T19:54:12Z</time>
  <course>10.7</course>
  <speed>0.0</speed>
  <fix>3d</fix>
</trkpt>
<trkpt lat="-27.2744383" lon="151.2900641">
  <ele>343.1</ele>
  <time>2026-09-01T19:54:12Z</time>
  <course>8.86</course>
  <speed>0.0</speed>
  <fix>3d</fix>
</trkpt>
<trkpt lat="-27.2744384" lon="151.2900641">
  <ele>343.24</ele>
  <time>2026-09-01T19:54:12Z</time>
  <course>10.7</course>
  <speed>0.01</speed>
  <fix>3d</fix>
</trkpt>
<trkpt lat="-27.2744383" lon="151.2900641">
  <ele>343.09</ele>
  <time>2026-09-01T19:54:12Z</time>
  <course>355.91</course>
  <speed>0.0</speed>
  <fix>3d</fix>
</trkpt>
<trkpt lat="-27.2744384" lon="151.2900641">
  <ele>343.24</ele>
  <time>2026-09-01T19:54:12Z</time>
  <course>10.7</course>
  <speed>0.01</speed>
  <fix>3d</fix>
</trkpt>
<trkpt lat="-27.2744383" lon="151.2900641">
  <ele>343.09</ele>
  <time>2026-09-01T19:54:12Z</time>
  <course>355.91</course>
  <speed>0.0</speed>
  <fix>3d</fix>
</trkpt>
<trkpt lat="-27.2744384" lon="151.2900641">
  <ele>343.24</ele>
  <time>2026-09-01T19:54:12Z</time>
  <course>10.7</course>
  <speed>0.0</speed>
  <fix>3d</fix>
</trkpt>
<trkpt lat="-27.2744383" lon="151.2900641">
  <ele>343.09</ele>
  <time>2026-09-01T19:54:12Z</time>
  <course>352.8</course>
  <speed>0.0</speed>
  <fix>3d</fix>
</trkpt>
<trkpt lat="-27.2744384" lon="151.2900641">
  <ele>343.24</ele>
  <time>2026-09-01T19:54:12Z</time>
  <course>10.7</course>
  <speed>0.01</speed>
  <fix>3d</fix>
</trkpt>
<trkpt lat="-27.2744383" lon="151.2900641">
  <ele>343.09</ele>
  <time>2026-09-01T19:54:12Z</time>
  <course>352.8</course>
  <speed>0.0</speed>
  <fix>3d</fix>
</trkpt>
<trkpt lat="-27.2744384" lon="151.2900641">
  <ele>343.24</ele>
  <time>2026-09-01T19:54:12Z</time>
  <course>10.7</course>
  <speed>0.01</speed>
  <fix>3d</fix>
</trkpt>
<trkpt lat="-27.2744383" lon="151.2900641">
  <ele>343.09</ele>
  <time>2026-09-01T19:54:12Z</time>
  <course>4.71</course>
  <speed>0.0</speed>
  <fix>3d</fix>
</trkpt>
<trkpt lat="-27.2744384" lon="151.2900641">
  <ele>343.24</ele>
  <time>2026-09-01T19:54:12Z</time>
  <course>10.7</course>
  <speed>0.01</speed>
  <fix>3d</fix>
</trkpt>
<trkpt lat="-27.2744383" lon="151.2900641">
  <ele>343.09</ele>
  <time>2026-09-01T19:54:12Z</time>
  <course>4.71</course>
  <speed>0.0</speed>
  <fix>3d</fix>
</trkpt>
<trkpt lat="-27.2744384" lon="151.2900641">
  <ele>343.24</ele>
  <time>2026-09-01T19:54:12Z</time>
  <course>10.7</course>
  <speed>0.01</speed>
  <fix>3d</fix>
</trkpt>
<trkpt lat="-27.2744383" lon="151.2900641">
  <ele>343.09</ele>
  <time>2026-09-01T19:54:12Z</time>
  <course>8.17</course>
  <speed>0.0</speed>
  <fix>3d</fix>
</trkpt>
<trkpt lat="-27.2744384" lon="151.2900641">
  <ele>343.24</ele>
  <time>2026-09-01T19:54:12Z</time>
  <course>10.7</course>
  <speed>0.01</speed>
  <fix>3d</fix>
</trkpt>
<trkpt lat="-27.2744383" lon="151.2900641">
  <ele>343.09</ele>
  <time>2026-09-01T19:54:12Z</time>
  <course>8.17</course>
  <speed>0.0</speed>
  <fix>3d</fix>
</trkpt>
<trkpt lat="-27.2744384" lon="151.2900641">
  <ele>343.24</ele>
  <time>2026-09-01T19:54:12Z</time>
  <course>10.71</course>
  <speed>0.01</speed>
  <fix>3d</fix>
</trkpt>
<trkpt lat="-27.2744383" lon="151.2900641">
  <ele>343.09</ele>
  <time>2026-09-01T19:54:12Z</time>
  <course>19.98</course>
  <speed>0.0</speed>
  <fix>3d</fix>
</trkpt>
<trkpt lat="-27.2744384" lon="151.2900641">
  <ele>343.24</ele>
  <time>2026-09-01T19:54:12Z</time>
  <course>10.71</course>
  <speed>0.01</speed>
  <fix>3d</fix>
</trkpt>
<trkpt lat="-27.2744383" lon="151.2900641">
  <ele>343.09</ele>
  <time>2026-09-01T19:54:12Z</time>
  <course>19.98</course>
  <speed>0.0</speed>
  <fix>3d</fix>
</trkpt>
<trkpt lat="-27.2744384" lon="151.2900641">
  <ele>343.24</ele>
  <time>2026-09-01T19:54:12Z</time>
  <course>10.71</course>
  <speed>0.01</speed>
  <fix>3d</fix>
</trkpt>
<trkpt lat="-27.2744383" lon="151.2900641">
  <ele>343.09</ele>
  <time>2026-09-01T19:54:12Z</time>
  <course>24.15</course>
  <speed>0.0</speed>
  <fix>3d</fix>
</trkpt>
<trkpt lat="-27.2744384" lon="151.2900641">
  <ele>343.24</ele>
  <time>2026-09-01T19:54:12Z</time>
  <course>10.71</course>
  <speed>0.01</speed>
  <fix>3d</fix>
</trkpt>
<trkpt lat="-27.2744383" lon="151.2900641">
  <ele>343.09</ele>
  <time>2026-09-01T19:54:12Z</time>
  <course>24.15</course>
  <speed>0.0</speed>
  <fix>3d</fix>
</trkpt>
<trkpt lat="-27.2744384" lon="151.2900641">
  <ele>343.23</ele>
  <time>2026-09-01T19:54:12Z</time>
  <course>10.71</course>
  <speed>0.01</speed>
  <fix>3d</fix>
</trkpt>
<trkpt lat="-27.2744382" lon="151.2900641">
  <ele>343.09</ele>
  <time>2026-09-01T19:54:12Z</time>
  <course>26.08</course>
  <speed>0.0</speed>
  <fix>3d</fix>
</trkpt>
<trkpt lat="-27.2744384" lon="151.2900641">
  <ele>343.24</ele>
  <time>2026-09-01T19:54:12Z</time>
  <course>10.71</course>
  <speed>0.0</speed>
  <fix>3d</fix>
</trkpt>
<trkpt lat="-27.2744382" lon="151.2900641">
  <ele>343.09</ele>
  <time>2026-09-01T19:54:12Z</time>
  <course>26.08</course>
  <speed>0.0</speed>
  <fix>3d</fix>
</trkpt>
<trkpt lat="-27.2744384" lon="151.2900641">
  <ele>343.24</ele>
  <time>2026-09-01T19:54:12Z</time>
  <course>10.71</course>
  <speed>0.01</speed>
  <fix>3d</fix>
</trkpt>
<trkpt lat="-27.2744382" lon="151.2900641">
  <ele>343.09</ele>
  <time>2026-09-01T19:54:12Z</time>
  <course>5.14</course>
  <speed>0.0</speed>
  <fix>3d</fix>
</trkpt>
<trkpt lat="-27.2744384" lon="151.2900641">
  <ele>343.24</ele>
  <time>2026-09-01T19:54:12Z</time>
  <course>10.71</course>
  <speed>0.0</speed>
  <fix>3d</fix>
</trkpt>
<trkpt lat="-27.2744382" lon="151.2900641">
  <ele>343.09</ele>
  <time>2026-09-01T19:54:12Z</time>
  <course>5.14</course>
  <speed>0.0</speed>
  <fix>3d</fix>
</trkpt>
<trkpt lat="-27.2744384" lon="151.2900641">
  <ele>343.24</ele>
  <time>2026-09-01T19:54:12Z</time>
  <course>10.71</course>
  <speed>0.0</speed>
  <fix>3d</fix>
</trkpt>
<trkpt lat="-27.2744382" lon="151.2900641">
  <ele>343.09</ele>
  <time>2026-09-01T19:54:12Z</time>
  <course>13.97</course>
  <speed>0.0</speed>
  <fix>3d</fix>
</trkpt>
<trkpt lat="-27.2744384" lon="151.2900641">
  <ele>343.24</ele>
  <time>2026-09-01T19:54:12Z</time>
  <course>10.71</course>
  <speed>0.0</speed>
  <fix>3d</fix>
</trkpt>
<trkpt lat="-27.2744382" lon="151.2900641">
  <ele>343.09</ele>
  <time>2026-09-01T19:54:12Z</time>
  <course>13.97</course>
  <speed>0.0</speed>
  <fix>3d</fix>
</trkpt>
<trkpt lat="-27.2744383" lon="151.2900641">
  <ele>343.24</ele>
  <time>2026-09-01T19:54:12Z</time>
  <course>10.71</course>
  <speed>0.0</speed>
  <fix>3d</fix>
</trkpt>
<trkpt lat="-27.2744382" lon="151.2900641">
  <ele>343.09</ele>
  <time>2026-09-01T19:54:12Z</time>
  <course>355.45</course>
  <speed>0.0</speed>
  <fix>3d</fix>
</trkpt>
<trkpt lat="-27.2744383" lon="151.2900641">
  <ele>343.24</ele>
  <time>2026-09-01T19:54:12Z</time>
  <course>10.72</course>
  <speed>0.0</speed>
  <fix>3d</fix>
</trkpt>
<trkpt lat="-27.2744382" lon="151.2900641">
  <ele>343.09</ele>
  <time>2026-09-01T19:54:12Z</time>
  <course>355.45</course>
  <speed>0.0</speed>
  <fix>3d</fix>
</trkpt>
<trkpt lat="-27.2744383" lon="151.2900641">
  <ele>343.24</ele>
  <time>2026-09-01T19:54:12Z</time>
  <course>10.72</course>
  <speed>0.0</speed>
  <fix>3d</fix>
</trkpt>
<trkpt lat="-27.2744382" lon="151.2900641">
  <ele>343.09</ele>
  <time>2026-09-01T19:54:12Z</time>
  <course>353.84</course>
  <speed>0.0</speed>
  <fix>3d</fix>
</trkpt>
<trkpt lat="-27.2744383" lon="151.2900641">
  <ele>343.24</ele>
  <time>2026-09-01T19:54:12Z</time>
  <course>10.72</course>
  <speed>0.0</speed>
  <fix>3d</fix>
</trkpt>
<trkpt lat="-27.2744382" lon="151.2900641">
  <ele>343.09</ele>
  <time>2026-09-01T19:54:12Z</time>
  <course>353.84</course>
  <speed>0.0</speed>
  <fix>3d</fix>
</trkpt>
<trkpt lat="-27.2744383" lon="151.2900641">
  <ele>343.24</ele>
  <time>2026-09-01T19:54:12Z</time>
  <course>10.72</course>
  <speed>0.0</speed>
  <fix>3d</fix>
</trkpt>
<trkpt lat="-27.2744382" lon="151.2900641">
  <ele>343.09</ele>
  <time>2026-09-01T19:54:12Z</time>
  <course>32.97</course>
  <speed>0.0</speed>
  <fix>3d</fix>
</trkpt>
<trkpt lat="-27.2744383" lon="151.2900641">
  <ele>343.24</ele>
  <time>2026-09-01T19:54:12Z</time>
  <course>10.72</course>
  <speed>0.0</speed>
  <fix>3d</fix>
</trkpt>
<trkpt lat="-27.2744382" lon="151.2900641">
  <ele>343.09</ele>
  <time>2026-09-01T19:54:12Z</time>
  <course>32.97</course>
  <speed>0.0</speed>
  <fix>3d</fix>
</trkpt>
<trkpt lat="-27.2744383" lon="151.2900641">
  <ele>343.24</ele>
  <time>2026-09-01T19:54:12Z</time>
  <course>10.72</course>
  <speed>0.0</speed>
  <fix>3d</fix>
</trkpt>
<trkpt lat="-27.2744382" lon="151.2900641">
  <ele>343.09</ele>
  <time>2026-09-01T19:54:12Z</time>
  <course>14.89</course>
  <speed>0.0</speed>
  <fix>3d</fix>
</trkpt>
<trkpt lat="-27.2744383" lon="151.2900641">
  <ele>343.23</ele>
  <time>2026-09-01T19:54:12Z</time>
  <course>10.72</course>
  <speed>0.0</speed>
  <fix>3d</fix>
</trkpt>
<trkpt lat="-27.2744382" lon="151.2900641">
  <ele>343.09</ele>
  <time>2026-09-01T19:54:12Z</time>
  <course>14.89</course>
  <speed>0.0</speed>
  <fix>3d</fix>
</trkpt>
<trkpt lat="-27.2744383" lon="151.2900641">
  <ele>343.23</ele>
  <time>2026-09-01T19:54:12Z</time>
  <course>10.72</course>
  <speed>0.0</speed>
  <fix>3d</fix>
</trkpt>
<trkpt lat="-27.2744382" lon="151.2900641">
  <ele>343.09</ele>
  <time>2026-09-01T19:54:12Z</time>
  <course>10.01</course>
  <speed>0.0</speed>
  <fix>3d</fix>
</trkpt>
<trkpt lat="-27.2744383" lon="151.2900641">
  <ele>343.23</ele>
  <time>2026-09-01T19:54:12Z</time>
  <course>10.72</course>
  <speed>0.0</speed>
  <fix>3d</fix>
</trkpt>
<trkpt lat="-27.2744382" lon="151.2900641">
  <ele>343.09</ele>
  <time>2026-09-01T19:54:12Z</time>
  <course>10.01</course>
  <speed>0.0</speed>
  <fix>3d</fix>
</trkpt>
<trkpt lat="-27.2744382" lon="151.2900641">
  <ele>343.23</ele>
  <time>2026-09-01T19:54:12Z</time>
  <course>10.72</course>
  <speed>0.0</speed>
  <fix>3d</fix>
</trkpt>
<trkpt lat="-27.2744382" lon="151.2900641">
  <ele>343.09</ele>
  <time>2026-09-01T19:54:12Z</time>
  <course>354.48</course>
  <speed>0.0</speed>
  <fix>3d</fix>
</trkpt>
<trkpt lat="-27.2744382" lon="151.2900641">
  <ele>343.23</ele>
  <time>2026-09-01T19:54:12Z</time>
  <course>10.73</course>
  <speed>0.0</speed>
  <fix>3d</fix>
</trkpt>
<trkpt lat="-27.2744382" lon="151.2900641">
  <ele>343.09</ele>
  <time>2026-09-01T19:54:12Z</time>
  <course>354.48</course>
  <speed>0.0</speed>
  <fix>3d</fix>
</trkpt>
<trkpt lat="-27.2744382" lon="151.2900641">
  <ele>343.23</ele>
  <time>2026-09-01T19:54:12Z</time>
  <course>10.73</course>
  <speed>0.0</speed>
  <fix>3d</fix>
</trkpt>
<trkpt lat="-27.2744382" lon="151.2900641">
  <ele>343.09</ele>
  <time>2026-09-01T19:54:12Z</time>
  <course>333.68</course>
  <speed>0.0</speed>
  <fix>3d</fix>
</trkpt>
<trkpt lat="-27.2744382" lon="151.2900641">
  <ele>343.23</ele>
  <time>2026-09-01T19:54:12Z</time>
  <course>10.73</course>
  <speed>0.0</speed>
  <fix>3d</fix>
</trkpt>
<trkpt lat="-27.2744382" lon="151.2900641">
  <ele>343.09</ele>
  <time>2026-09-01T19:54:12Z</time>
  <course>333.68</course>
  <speed>0.0</speed>
  <fix>3d</fix>
</trkpt>
<trkpt lat="-27.2744382" lon="151.2900641">
  <ele>343.23</ele>
  <time>2026-09-01T19:54:12Z</time>
  <course>10.73</course>
  <speed>0.0</speed>
  <fix>3d</fix>
</trkpt>
<trkpt lat="-27.2744381" lon="151.2900641">
  <ele>343.09</ele>
  <time>2026-09-01T19:54:12Z</time>
  <course>5.85</course>
  <speed>0.0</speed>
  <fix>3d</fix>
</trkpt>
<trkpt lat="-27.2744382" lon="151.2900641">
  <ele>343.23</ele>
  <time>2026-09-01T19:54:12Z</time>
  <course>10.73</course>
  <speed>0.0</speed>
  <fix>3d</fix>
</trkpt>
<trkpt lat="-27.2744381" lon="151.2900641">
  <ele>343.09</ele>
  <time>2026-09-01T19:54:12Z</time>
  <course>5.85</course>
  <speed>0.0</speed>
  <fix>3d</fix>
</trkpt>
<trkpt lat="-27.2744382" lon="151.2900641">
  <ele>343.23</ele>
  <time>2026-09-01T19:54:12Z</time>
  <course>10.73</course>
  <speed>0.0</speed>
  <fix>3d</fix>
</trkpt>
<trkpt lat="-27.2744381" lon="151.2900641">
  <ele>343.09</ele>
  <time>2026-09-01T19:54:12Z</time>
  <course>22.13</course>
  <speed>0.0</speed>
  <fix>3d</fix>
</trkpt>
<trkpt lat="-27.2744382" lon="151.2900641">
  <ele>343.23</ele>
  <time>2026-09-01T19:54:12Z</time>
  <course>10.73</course>
  <speed>0.0</speed>
  <fix>3d</fix>
</trkpt>
<trkpt lat="-27.2744381" lon="151.2900641">
  <ele>343.09</ele>
  <time>2026-09-01T19:54:12Z</time>
  <course>22.13</course>
  <speed>0.0</speed>
  <fix>3d</fix>
</trkpt>
<trkpt lat="-27.2744382" lon="151.2900641">
  <ele>343.23</ele>
  <time>2026-09-01T19:54:12Z</time>
  <course>10.73</course>
  <speed>0.0</speed>
  <fix>3d</fix>
</trkpt>
<trkpt lat="-27.2744381" lon="151.2900641">
  <ele>343.09</ele>
  <time>2026-09-01T19:54:12Z</time>
  <course>1.5</course>
  <speed>0.0</speed>
  <fix>3d</fix>
</trkpt>
<trkpt lat="-27.2744382" lon="151.2900641">
  <ele>343.23</ele>
  <time>2026-09-01T19:54:12Z</time>
  <course>10.73</course>
  <speed>0.0</speed>
  <fix>3d</fix>
</trkpt>
<trkpt lat="-27.2744381" lon="151.2900641">
  <ele>343.09</ele>
  <time>2026-09-01T19:54:12Z</time>
  <course>1.5</course>
  <speed>0.0</speed>
  <fix>3d</fix>
</trkpt>
<trkpt lat="-27.2744382" lon="151.2900641">
  <ele>343.23</ele>
  <time>2026-09-01T19:54:12Z</time>
  <course>10.73</course>
  <speed>0.0</speed>
  <fix>3d</fix>
</trkpt>
<trkpt lat="-27.2744381" lon="151.2900641">
  <ele>343.09</ele>
  <time>2026-09-01T19:54:12Z</time>
  <course>358.9</course>
  <speed>0.0</speed>
  <fix>3d</fix>
</trkpt>
<trkpt lat="-27.2744382" lon="151.2900641">
  <ele>343.23</ele>
  <time>2026-09-01T19:54:12Z</time>
  <course>10.73</course>
  <speed>0.0</speed>
  <fix>3d</fix>
</trkpt>
<trkpt lat="-27.2744381" lon="151.2900641">
  <ele>343.09</ele>
  <time>2026-09-01T19:54:12Z</time>
  <course>358.9</course>
  <speed>0.0</speed>
  <fix>3d</fix>
</trkpt>
<trkpt lat="-27.2744382" lon="151.2900641">
  <ele>343.23</ele>
  <time>2026-09-01T19:54:12Z</time>
  <course>10.73</course>
  <speed>0.01</speed>
  <fix>3d</fix>
</trkpt>
<trkpt lat="-27.2744381" lon="151.2900641">
  <ele>343.09</ele>
  <time>2026-09-01T19:54:12Z</time>
  <course>0.11</course>
  <speed>0.0</speed>
  <fix>3d</fix>
</trkpt>
<trkpt lat="-27.2744382" lon="151.2900641">
  <ele>343.24</ele>
  <time>2026-09-01T19:54:12Z</time>
  <course>10.74</course>
  <speed>0.0</speed>
  <fix>3d</fix>
</trkpt>
<trkpt lat="-27.2744381" lon="151.2900641">
  <ele>343.09</ele>
  <time>2026-09-01T19:54:12Z</time>
  <course>0.11</course>
  <speed>0.0</speed>
  <fix>3d</fix>
</trkpt>
<trkpt lat="-27.2744382" lon="151.2900641">
  <ele>343.23</ele>
  <time>2026-09-01T19:54:12Z</time>
  <course>10.74</course>
  <speed>0.0</speed>
  <fix>3d</fix>
</trkpt>
<trkpt lat="-27.2744381" lon="151.2900641">
  <ele>343.09</ele>
  <time>2026-09-01T19:54:12Z</time>
  <course>358.15</course>
  <speed>0.0</speed>
  <fix>3d</fix>
</trkpt>
<trkpt lat="-27.2744382" lon="151.2900641">
  <ele>343.23</ele>
  <time>2026-09-01T19:54:12Z</time>
  <course>10.74</course>
  <speed>0.0</speed>
  <fix>3d</fix>
</trkpt>
<trkpt lat="-27.2744381" lon="151.2900641">
  <ele>343.09</ele>
  <time>2026-09-01T19:54:12Z</time>
  <course>358.15</course>
  <speed>0.0</speed>
  <fix>3d</fix>
</trkpt>
<trkpt lat="-27.2744382" lon="151.2900641">
  <ele>343.23</ele>
  <time>2026-09-01T19:54:13Z</time>
  <course>10.74</course>
  <speed>0.0</speed>
  <fix>3d</fix>
</trkpt>
<trkpt lat="-27.2744381" lon="151.2900641">
  <ele>343.09</ele>
  <time>2026-09-01T19:54:13Z</time>
  <course>7.36</course>
  <speed>0.0</speed>
  <fix>3d</fix>
</trkpt>
<trkpt lat="-27.2744382" lon="151.2900641">
  <ele>343.23</ele>
  <time>2026-09-01T19:54:13Z</time>
  <course>10.74</course>
  <speed>0.0</speed>
  <fix>3d</fix>
</trkpt>
<trkpt lat="-27.2744381" lon="151.2900641">
  <ele>343.09</ele>
  <time>2026-09-01T19:54:13Z</time>
  <course>7.36</course>
  <speed>0.0</speed>
  <fix>3d</fix>
</trkpt>
<trkpt lat="-27.2744382" lon="151.2900641">
  <ele>343.23</ele>
  <time>2026-09-01T19:54:13Z</time>
  <course>10.74</course>
  <speed>0.0</speed>
  <fix>3d</fix>
</trkpt>
<trkpt lat="-27.2744381" lon="151.2900641">
  <ele>343.09</ele>
  <time>2026-09-01T19:54:13Z</time>
  <course>27.91</course>
  <speed>0.0</speed>
  <fix>3d</fix>
</trkpt>
<trkpt lat="-27.2744382" lon="151.2900641">
  <ele>343.23</ele>
  <time>2026-09-01T19:54:13Z</time>
  <course>10.74</course>
  <speed>0.0</speed>
  <fix>3d</fix>
</trkpt>
<trkpt lat="-27.2744381" lon="151.2900641">
  <ele>343.09</ele>
  <time>2026-09-01T19:54:13Z</time>
  <course>27.91</course>
  <speed>0.0</speed>
  <fix>3d</fix>
</trkpt>
<trkpt lat="-27.2744382" lon="151.2900641">
  <ele>343.23</ele>
  <time>2026-09-01T19:54:13Z</time>
  <course>10.74</course>
  <speed>0.0</speed>
  <fix>3d</fix>
</trkpt>
<trkpt lat="-27.2744381" lon="151.2900641">
  <ele>343.09</ele>
  <time>2026-09-01T19:54:13Z</time>
  <course>16.89</course>
  <speed>0.0</speed>
  <fix>3d</fix>
</trkpt>
<trkpt lat="-27.2744382" lon="151.2900641">
  <ele>343.22</ele>
  <time>2026-09-01T19:54:13Z</time>
  <course>10.75</course>
  <speed>0.01</speed>
  <fix>3d</fix>
</trkpt>
<trkpt lat="-27.2744381" lon="151.2900641">
  <ele>343.09</ele>
  <time>2026-09-01T19:54:13Z</time>
  <course>16.89</course>
  <speed>0.0</speed>
  <fix>3d</fix>
</trkpt>
<trkpt lat="-27.2744382" lon="151.2900641">
  <ele>343.22</ele>
  <time>2026-09-01T19:54:13Z</time>
  <course>10.75</course>
  <speed>0.01</speed>
  <fix>3d</fix>
</trkpt>
<trkpt lat="-27.2744381" lon="151.2900641">
  <ele>343.09</ele>
  <time>2026-09-01T19:54:13Z</time>
  <course>6.49</course>
  <speed>0.0</speed>
  <fix>3d</fix>
</trkpt>
<trkpt lat="-27.2744382" lon="151.2900641">
  <ele>343.22</ele>
  <time>2026-09-01T19:54:13Z</time>
  <course>10.75</course>
  <speed>0.0</speed>
  <fix>3d</fix>
</trkpt>
<trkpt lat="-27.2744381" lon="151.2900641">
  <ele>343.09</ele>
  <time>2026-09-01T19:54:13Z</time>
  <course>6.49</course>
  <speed>0.0</speed>
  <fix>3d</fix>
</trkpt>
<trkpt lat="-27.2744382" lon="151.2900641">
  <ele>343.22</ele>
  <time>2026-09-01T19:54:13Z</time>
  <course>10.75</course>
  <speed>0.0</speed>
  <fix>3d</fix>
</trkpt>
<trkpt lat="-27.2744381" lon="151.2900641">
  <ele>343.09</ele>
  <time>2026-09-01T19:54:13Z</time>
  <course>8.09</course>
  <speed>0.0</speed>
  <fix>3d</fix>
</trkpt>
<trkpt lat="-27.2744381" lon="151.2900641">
  <ele>343.22</ele>
  <time>2026-09-01T19:54:13Z</time>
  <course>10.75</course>
  <speed>0.0</speed>
  <fix>3d</fix>
</trkpt>
<trkpt lat="-27.2744381" lon="151.2900641">
  <ele>343.09</ele>
  <time>2026-09-01T19:54:13Z</time>
  <course>8.09</course>
  <speed>0.0</speed>
  <fix>3d</fix>
</trkpt>
<trkpt lat="-27.2744381" lon="151.2900641">
  <ele>343.22</ele>
  <time>2026-09-01T19:54:13Z</time>
  <course>10.75</course>
  <speed>0.0</speed>
  <fix>3d</fix>
</trkpt>
<trkpt lat="-27.274438" lon="151.2900641">
  <ele>343.09</ele>
  <time>2026-09-01T19:54:13Z</time>
  <course>20.18</course>
  <speed>0.0</speed>
  <fix>3d</fix>
</trkpt>
<trkpt lat="-27.2744381" lon="151.2900641">
  <ele>343.22</ele>
  <time>2026-09-01T19:54:13Z</time>
  <course>10.75</course>
  <speed>0.0</speed>
  <fix>3d</fix>
</trkpt>
<trkpt lat="-27.274438" lon="151.2900641">
  <ele>343.09</ele>
  <time>2026-09-01T19:54:13Z</time>
  <course>20.18</course>
  <speed>0.0</speed>
  <fix>3d</fix>
</trkpt>
<trkpt lat="-27.2744381" lon="151.2900641">
  <ele>343.22</ele>
  <time>2026-09-01T19:54:13Z</time>
  <course>10.75</course>
  <speed>0.0</speed>
  <fix>3d</fix>
</trkpt>
<trkpt lat="-27.274438" lon="151.2900641">
  <ele>343.09</ele>
  <time>2026-09-01T19:54:13Z</time>
  <course>33.65</course>
  <speed>0.0</speed>
  <fix>3d</fix>
</trkpt>
<trkpt lat="-27.2744381" lon="151.2900641">
  <ele>343.22</ele>
  <time>2026-09-01T19:54:13Z</time>
  <course>10.75</course>
  <speed>0.01414213562373095</speed>
  <fix>3d</fix>
</trkpt>
<trkpt lat="-27.274438" lon="151.2900641">
  <ele>343.09</ele>
  <time>2026-09-01T19:54:13Z</time>
  <course>33.65</course>
  <speed>0.0</speed>
  <fix>3d</fix>
</trkpt>
<trkpt lat="-27.2744381" lon="151.2900641">
  <ele>343.22</ele>
  <time>2026-09-01T19:54:13Z</time>
  <course>10.75</course>
  <speed>0.0</speed>
  <fix>3d</fix>
</trkpt>
<trkpt lat="-27.274438" lon="151.2900641">
  <ele>343.09</ele>
  <time>2026-09-01T19:54:13Z</time>
  <course>18.05</course>
  <speed>0.0</speed>
  <fix>3d</fix>
</trkpt>
<trkpt lat="-27.2744381" lon="151.2900641">
  <ele>343.22</ele>
  <time>2026-09-01T19:54:13Z</time>
  <course>10.75</course>
  <speed>0.0</speed>
  <fix>3d</fix>
</trkpt>
<trkpt lat="-27.274438" lon="151.2900641">
  <ele>343.09</ele>
  <time>2026-09-01T19:54:13Z</time>
  <course>18.05</course>
  <speed>0.0</speed>
  <fix>3d</fix>
</trkpt>
<trkpt lat="-27.2744381" lon="151.2900641">
  <ele>343.22</ele>
  <time>2026-09-01T19:54:13Z</time>
  <course>10.75</course>
  <speed>0.0</speed>
  <fix>3d</fix>
</trkpt>
<trkpt lat="-27.274438" lon="151.2900641">
  <ele>343.09</ele>
  <time>2026-09-01T19:54:13Z</time>
  <course>6.68</course>
  <speed>0.0</speed>
  <fix>3d</fix>
</trkpt>
<trkpt lat="-27.2744381" lon="151.2900641">
  <ele>343.22</ele>
  <time>2026-09-01T19:54:13Z</time>
  <course>10.75</course>
  <speed>0.0</speed>
  <fix>3d</fix>
</trkpt>
<trkpt lat="-27.274438" lon="151.2900641">
  <ele>343.09</ele>
  <time>2026-09-01T19:54:13Z</time>
  <course>6.68</course>
  <speed>0.0</speed>
  <fix>3d</fix>
</trkpt>
<trkpt lat="-27.2744381" lon="151.2900641">
  <ele>343.22</ele>
  <time>2026-09-01T19:54:13Z</time>
  <course>10.75</course>
  <speed>0.01</speed>
  <fix>3d</fix>
</trkpt>
<trkpt lat="-27.274438" lon="151.2900641">
  <ele>343.09</ele>
  <time>2026-09-01T19:54:13Z</time>
  <course>341.98</course>
  <speed>0.0</speed>
  <fix>3d</fix>
</trkpt>
<trkpt lat="-27.2744381" lon="151.2900641">
  <ele>343.22</ele>
  <time>2026-09-01T19:54:13Z</time>
  <course>10.75</course>
  <speed>0.01</speed>
  <fix>3d</fix>
</trkpt>
<trkpt lat="-27.274438" lon="151.2900641">
  <ele>343.09</ele>
  <time>2026-09-01T19:54:13Z</time>
  <course>341.98</course>
  <speed>0.0</speed>
  <fix>3d</fix>
</trkpt>
<trkpt lat="-27.274438" lon="151.2900641">
  <ele>343.22</ele>
  <time>2026-09-01T19:54:13Z</time>
  <course>10.76</course>
  <speed>0.01</speed>
  <fix>3d</fix>
</trkpt>
<trkpt lat="-27.274438" lon="151.2900641">
  <ele>343.09</ele>
  <time>2026-09-01T19:54:13Z</time>
  <course>357.5</course>
  <speed>0.0</speed>
  <fix>3d</fix>
</trkpt>
<trkpt lat="-27.274438" lon="151.2900641">
  <ele>343.22</ele>
  <time>2026-09-01T19:54:13Z</time>
  <course>10.76</course>
  <speed>0.01</speed>
  <fix>3d</fix>
</trkpt>
<trkpt lat="-27.274438" lon="151.2900641">
  <ele>343.09</ele>
  <time>2026-09-01T19:54:13Z</time>
  <course>357.5</course>
  <speed>0.0</speed>
  <fix>3d</fix>
</trkpt>
<trkpt lat="-27.274438" lon="151.2900641">
  <ele>343.22</ele>
  <time>2026-09-01T19:54:13Z</time>
  <course>10.76</course>
  <speed>0.01</speed>
  <fix>3d</fix>
</trkpt>
<trkpt lat="-27.274438" lon="151.2900641">
  <ele>343.09</ele>
  <time>2026-09-01T19:54:13Z</time>
  <course>12.71</course>
  <speed>0.0</speed>
  <fix>3d</fix>
</trkpt>
<trkpt lat="-27.274438" lon="151.2900641">
  <ele>343.22</ele>
  <time>2026-09-01T19:54:13Z</time>
  <course>10.76</course>
  <speed>0.01</speed>
  <fix>3d</fix>
</trkpt>
<trkpt lat="-27.274438" lon="151.2900641">
  <ele>343.09</ele>
  <time>2026-09-01T19:54:13Z</time>
  <course>12.71</course>
  <speed>0.0</speed>
  <fix>3d</fix>
</trkpt>
<trkpt lat="-27.274438" lon="151.2900641">
  <ele>343.22</ele>
  <time>2026-09-01T19:54:13Z</time>
  <course>10.76</course>
  <speed>0.01</speed>
  <fix>3d</fix>
</trkpt>
<trkpt lat="-27.274438" lon="151.2900641">
  <ele>343.09</ele>
  <time>2026-09-01T19:54:13Z</time>
  <course>357.2</course>
  <speed>0.0</speed>
  <fix>3d</fix>
</trkpt>
<trkpt lat="-27.274438" lon="151.2900642">
  <ele>343.22</ele>
  <time>2026-09-01T19:54:13Z</time>
  <course>10.76</course>
  <speed>0.02</speed>
  <fix>3d</fix>
</trkpt>
<trkpt lat="-27.274438" lon="151.2900641">
  <ele>343.09</ele>
  <time>2026-09-01T19:54:13Z</time>
  <course>357.2</course>
  <speed>0.0</speed>
  <fix>3d</fix>
</trkpt>
<trkpt lat="-27.274438" lon="151.2900642">
  <ele>343.22</ele>
  <time>2026-09-01T19:54:13Z</time>
  <course>10.76</course>
  <speed>0.01</speed>
  <fix>3d</fix>
</trkpt>
<trkpt lat="-27.274438" lon="151.2900641">
  <ele>343.09</ele>
  <time>2026-09-01T19:54:13Z</time>
  <course>7.45</course>
  <speed>0.0</speed>
  <fix>3d</fix>
</trkpt>
<trkpt lat="-27.274438" lon="151.2900642">
  <ele>343.22</ele>
  <time>2026-09-01T19:54:13Z</time>
  <course>10.76</course>
  <speed>0.02</speed>
  <fix>3d</fix>
</trkpt>
<trkpt lat="-27.274438" lon="151.2900641">
  <ele>343.09</ele>
  <time>2026-09-01T19:54:13Z</time>
  <course>7.45</course>
  <speed>0.0</speed>
  <fix>3d</fix>
</trkpt>
<trkpt lat="-27.274438" lon="151.2900642">
  <ele>343.22</ele>
  <time>2026-09-01T19:54:13Z</time>
  <course>10.76</course>
  <speed>0.01</speed>
  <fix>3d</fix>
</trkpt>
<trkpt lat="-27.274438" lon="151.2900641">
  <ele>343.09</ele>
  <time>2026-09-01T19:54:13Z</time>
  <course>20.64</course>
  <speed>0.0</speed>
  <fix>3d</fix>
</trkpt>
<trkpt lat="-27.274438" lon="151.2900642">
  <ele>343.22</ele>
  <time>2026-09-01T19:54:13Z</time>
  <course>10.76</course>
  <speed>0.02</speed>
  <fix>3d</fix>
</trkpt>
<trkpt lat="-27.274438" lon="151.2900641">
  <ele>343.09</ele>
  <time>2026-09-01T19:54:13Z</time>
  <course>20.64</course>
  <speed>0.0</speed>
  <fix>3d</fix>
</trkpt>
<trkpt lat="-27.274438" lon="151.2900642">
  <ele>343.22</ele>
  <time>2026-09-01T19:54:13Z</time>
  <course>10.77</course>
  <speed>0.02</speed>
  <fix>3d</fix>
</trkpt>
<trkpt lat="-27.274438" lon="151.2900641">
  <ele>343.09</ele>
  <time>2026-09-01T19:54:13Z</time>
  <course>24.59</course>
  <speed>0.0</speed>
  <fix>3d</fix>
</trkpt>
<trkpt lat="-27.274438" lon="151.2900642">
  <ele>343.22</ele>
  <time>2026-09-01T19:54:13Z</time>
  <course>10.77</course>
  <speed>0.02</speed>
  <fix>3d</fix>
</trkpt>
<trkpt lat="-27.274438" lon="151.2900641">
  <ele>343.09</ele>
  <time>2026-09-01T19:54:13Z</time>
  <course>24.59</course>
  <speed>0.0</speed>
  <fix>3d</fix>
</trkpt>
<trkpt lat="-27.274438" lon="151.2900642">
  <ele>343.22</ele>
  <time>2026-09-01T19:54:13Z</time>
  <course>10.77</course>
  <speed>0.022360679774997897</speed>
  <fix>3d</fix>
</trkpt>
<trkpt lat="-27.274438" lon="151.2900641">
  <ele>343.09</ele>
  <time>2026-09-01T19:54:13Z</time>
  <course>24.1</course>
  <speed>0.0</speed>
  <fix>3d</fix>
</trkpt>
<trkpt lat="-27.274438" lon="151.2900642">
  <ele>343.22</ele>
  <time>2026-09-01T19:54:13Z</time>
  <course>10.77</course>
  <speed>0.02</speed>
  <fix>3d</fix>
</trkpt>
<trkpt lat="-27.274438" lon="151.2900641">
  <ele>343.09</ele>
  <time>2026-09-01T19:54:13Z</time>
  <course>24.1</course>
  <speed>0.0</speed>
  <fix>3d</fix>
</trkpt>
<trkpt lat="-27.274438" lon="151.2900642">
  <ele>343.22</ele>
  <time>2026-09-01T19:54:13Z</time>
  <course>10.77</course>
  <speed>0.02</speed>
  <fix>3d</fix>
</trkpt>
<trkpt lat="-27.2744379" lon="151.2900641">
  <ele>343.09</ele>
  <time>2026-09-01T19:54:13Z</time>
  <course>8.79</course>
  <speed>0.0</speed>
  <fix>3d</fix>
</trkpt>
<trkpt lat="-27.274438" lon="151.2900642">
  <ele>343.22</ele>
  <time>2026-09-01T19:54:13Z</time>
  <course>10.77</course>
  <speed>0.01</speed>
  <fix>3d</fix>
</trkpt>
<trkpt lat="-27.2744379" lon="151.2900641">
  <ele>343.09</ele>
  <time>2026-09-01T19:54:13Z</time>
  <course>8.79</course>
  <speed>0.0</speed>
  <fix>3d</fix>
</trkpt>
<trkpt lat="-27.274438" lon="151.2900642">
  <ele>343.23</ele>
  <time>2026-09-01T19:54:13Z</time>
  <course>10.77</course>
  <speed>0.01</speed>
  <fix>3d</fix>
</trkpt>
<trkpt lat="-27.2744379" lon="151.2900641">
  <ele>343.09</ele>
  <time>2026-09-01T19:54:13Z</time>
  <course>353.52</course>
  <speed>0.0</speed>
  <fix>3d</fix>
</trkpt>
<trkpt lat="-27.274438" lon="151.2900642">
  <ele>343.23</ele>
  <time>2026-09-01T19:54:13Z</time>
  <course>10.77</course>
  <speed>0.01</speed>
  <fix>3d</fix>
</trkpt>
<trkpt lat="-27.2744379" lon="151.2900641">
  <ele>343.09</ele>
  <time>2026-09-01T19:54:13Z</time>
  <course>353.52</course>
  <speed>0.0</speed>
  <fix>3d</fix>
</trkpt>
<trkpt lat="-27.274438" lon="151.2900642">
  <ele>343.22</ele>
  <time>2026-09-01T19:54:13Z</time>
  <course>10.77</course>
  <speed>0.01</speed>
  <fix>3d</fix>
</trkpt>
<trkpt lat="-27.2744379" lon="151.2900641">
  <ele>343.09</ele>
  <time>2026-09-01T19:54:13Z</time>
  <course>13.4</course>
  <speed>0.0</speed>
  <fix>3d</fix>
</trkpt>
<trkpt lat="-27.2744379" lon="151.2900642">
  <ele>343.22</ele>
  <time>2026-09-01T19:54:13Z</time>
  <course>10.78</course>
  <speed>0.01</speed>
  <fix>3d</fix>
</trkpt>
<trkpt lat="-27.2744379" lon="151.2900641">
  <ele>343.09</ele>
  <time>2026-09-01T19:54:13Z</time>
  <course>13.4</course>
  <speed>0.0</speed>
  <fix>3d</fix>
</trkpt>
<trkpt lat="-27.2744379" lon="151.2900642">
  <ele>343.22</ele>
  <time>2026-09-01T19:54:13Z</time>
  <course>10.78</course>
  <speed>0.01</speed>
  <fix>3d</fix>
</trkpt>
<trkpt lat="-27.2744379" lon="151.2900641">
  <ele>343.09</ele>
  <time>2026-09-01T19:54:13Z</time>
  <course>52.85</course>
  <speed>0.0</speed>
  <fix>3d</fix>
</trkpt>
<trkpt lat="-27.2744379" lon="151.2900642">
  <ele>343.23</ele>
  <time>2026-09-01T19:54:13Z</time>
  <course>10.78</course>
  <speed>0.01</speed>
  <fix>3d</fix>
</trkpt>
<trkpt lat="-27.2744379" lon="151.2900641">
  <ele>343.09</ele>
  <time>2026-09-01T19:54:13Z</time>
  <course>52.85</course>
  <speed>0.0</speed>
  <fix>3d</fix>
</trkpt>
<trkpt lat="-27.2744379" lon="151.2900642">
  <ele>343.23</ele>
  <time>2026-09-01T19:54:13Z</time>
  <course>10.78</course>
  <speed>0.01</speed>
  <fix>3d</fix>
</trkpt>
<trkpt lat="-27.2744379" lon="151.2900641">
  <ele>343.09</ele>
  <time>2026-09-01T19:54:13Z</time>
  <course>22.13</course>
  <speed>0.0</speed>
  <fix>3d</fix>
</trkpt>
<trkpt lat="-27.2744379" lon="151.2900642">
  <ele>343.23</ele>
  <time>2026-09-01T19:54:13Z</time>
  <course>10.78</course>
  <speed>0.01</speed>
  <fix>3d</fix>
</trkpt>
<trkpt lat="-27.2744379" lon="151.2900641">
  <ele>343.09</ele>
  <time>2026-09-01T19:54:13Z</time>
  <course>22.13</course>
  <speed>0.0</speed>
  <fix>3d</fix>
</trkpt>
<trkpt lat="-27.2744379" lon="151.2900642">
  <ele>343.23</ele>
  <time>2026-09-01T19:54:13Z</time>
  <course>10.78</course>
  <speed>0.01</speed>
  <fix>3d</fix>
</trkpt>
<trkpt lat="-27.2744379" lon="151.2900641">
  <ele>343.09</ele>
  <time>2026-09-01T19:54:13Z</time>
  <course>353.61</course>
  <speed>0.0</speed>
  <fix>3d</fix>
</trkpt>
<trkpt lat="-27.2744379" lon="151.2900642">
  <ele>343.23</ele>
  <time>2026-09-01T19:54:13Z</time>
  <course>10.78</course>
  <speed>0.01</speed>
  <fix>3d</fix>
</trkpt>
<trkpt lat="-27.2744379" lon="151.2900641">
  <ele>343.09</ele>
  <time>2026-09-01T19:54:13Z</time>
  <course>353.61</course>
  <speed>0.0</speed>
  <fix>3d</fix>
</trkpt>
<trkpt lat="-27.2744379" lon="151.2900642">
  <ele>343.23</ele>
  <time>2026-09-01T19:54:13Z</time>
  <course>10.78</course>
  <speed>0.0</speed>
  <fix>3d</fix>
</trkpt>
<trkpt lat="-27.2744379" lon="151.2900641">
  <ele>343.09</ele>
  <time>2026-09-01T19:54:13Z</time>
  <course>7.29</course>
  <speed>0.0</speed>
  <fix>3d</fix>
</trkpt>
<trkpt lat="-27.2744379" lon="151.2900642">
  <ele>343.23</ele>
  <time>2026-09-01T19:54:13Z</time>
  <course>10.79</course>
  <speed>0.01</speed>
  <fix>3d</fix>
</trkpt>
<trkpt lat="-27.2744379" lon="151.2900641">
  <ele>343.09</ele>
  <time>2026-09-01T19:54:13Z</time>
  <course>7.29</course>
  <speed>0.0</speed>
  <fix>3d</fix>
</trkpt>
<trkpt lat="-27.2744379" lon="151.2900642">
  <ele>343.23</ele>
  <time>2026-09-01T19:54:13Z</time>
  <course>10.79</course>
  <speed>0.01</speed>
  <fix>3d</fix>
</trkpt>
<trkpt lat="-27.2744379" lon="151.2900641">
  <ele>343.09</ele>
  <time>2026-09-01T19:54:13Z</time>
  <course>15.14</course>
  <speed>0.0</speed>
  <fix>3d</fix>
</trkpt>
<trkpt lat="-27.2744379" lon="151.2900642">
  <ele>343.23</ele>
  <time>2026-09-01T19:54:13Z</time>
  <course>10.79</course>
  <speed>0.01</speed>
  <fix>3d</fix>
</trkpt>
<trkpt lat="-27.2744379" lon="151.2900641">
  <ele>343.09</ele>
  <time>2026-09-01T19:54:13Z</time>
  <course>15.14</course>
  <speed>0.0</speed>
  <fix>3d</fix>
</trkpt>
<trkpt lat="-27.2744379" lon="151.2900642">
  <ele>343.23</ele>
  <time>2026-09-01T19:54:13Z</time>
  <course>10.79</course>
  <speed>0.01</speed>
  <fix>3d</fix>
</trkpt>
<trkpt lat="-27.2744379" lon="151.2900641">
  <ele>343.09</ele>
  <time>2026-09-01T19:54:13Z</time>
  <course>7.82</course>
  <speed>0.0</speed>
  <fix>3d</fix>
</trkpt>
<trkpt lat="-27.2744379" lon="151.2900642">
  <ele>343.23</ele>
  <time>2026-09-01T19:54:13Z</time>
  <course>10.79</course>
  <speed>0.01</speed>
  <fix>3d</fix>
</trkpt>
<trkpt lat="-27.2744379" lon="151.2900641">
  <ele>343.09</ele>
  <time>2026-09-01T19:54:13Z</time>
  <course>7.82</course>
  <speed>0.0</speed>
  <fix>3d</fix>
</trkpt>
<trkpt lat="-27.2744379" lon="151.2900642">
  <ele>343.23</ele>
  <time>2026-09-01T19:54:13Z</time>
  <course>10.79</course>
  <speed>0.01</speed>
  <fix>3d</fix>
</trkpt>
<trkpt lat="-27.2744379" lon="151.2900641">
  <ele>343.09</ele>
  <time>2026-09-01T19:54:13Z</time>
  <course>21.48</course>
  <speed>0.0</speed>
  <fix>3d</fix>
</trkpt>
<trkpt lat="-27.2744379" lon="151.2900642">
  <ele>343.23</ele>
  <time>2026-09-01T19:54:13Z</time>
  <course>10.79</course>
  <speed>0.01</speed>
  <fix>3d</fix>
</trkpt>
<trkpt lat="-27.2744379" lon="151.2900641">
  <ele>343.09</ele>
  <time>2026-09-01T19:54:13Z</time>
  <course>21.48</course>
  <speed>0.0</speed>
  <fix>3d</fix>
</trkpt>
<trkpt lat="-27.2744379" lon="151.2900642">
  <ele>343.23</ele>
  <time>2026-09-01T19:54:13Z</time>
  <course>10.8</course>
  <speed>0.01</speed>
  <fix>3d</fix>
</trkpt>
<trkpt lat="-27.2744378" lon="151.2900641">
  <ele>343.1</ele>
  <time>2026-09-01T19:54:13Z</time>
  <course>11.13</course>
  <speed>0.0</speed>
  <fix>3d</fix>
</trkpt>
<trkpt lat="-27.2744379" lon="151.2900642">
  <ele>343.23</ele>
  <time>2026-09-01T19:54:13Z</time>
  <course>10.8</course>
  <speed>0.01</speed>
  <fix>3d</fix>
</trkpt>
<trkpt lat="-27.2744378" lon="151.2900641">
  <ele>343.1</ele>
  <time>2026-09-01T19:54:13Z</time>
  <course>11.13</course>
  <speed>0.0</speed>
  <fix>3d</fix>
</trkpt>
<trkpt lat="-27.2744379" lon="151.2900642">
  <ele>343.23</ele>
  <time>2026-09-01T19:54:13Z</time>
  <course>10.8</course>
  <speed>0.01414213562373095</speed>
  <fix>3d</fix>
</trkpt>
<trkpt lat="-27.2744378" lon="151.2900641">
  <ele>343.1</ele>
  <time>2026-09-01T19:54:13Z</time>
  <course>352.57</course>
  <speed>0.0</speed>
  <fix>3d</fix>
</trkpt>
<trkpt lat="-27.2744379" lon="151.2900642">
  <ele>343.23</ele>
  <time>2026-09-01T19:54:13Z</time>
  <course>10.8</course>
  <speed>0.01</speed>
  <fix>3d</fix>
</trkpt>
<trkpt lat="-27.2744378" lon="151.2900641">
  <ele>343.1</ele>
  <time>2026-09-01T19:54:13Z</time>
  <course>352.57</course>
  <speed>0.0</speed>
  <fix>3d</fix>
</trkpt>
<trkpt lat="-27.2744379" lon="151.2900642">
  <ele>343.23</ele>
  <time>2026-09-01T19:54:13Z</time>
  <course>10.8</course>
  <speed>0.01</speed>
  <fix>3d</fix>
</trkpt>
<trkpt lat="-27.2744378" lon="151.2900641">
  <ele>343.1</ele>
  <time>2026-09-01T19:54:13Z</time>
  <course>348.61</course>
  <speed>0.0</speed>
  <fix>3d</fix>
</trkpt>
<trkpt lat="-27.2744379" lon="151.2900642">
  <ele>343.24</ele>
  <time>2026-09-01T19:54:13Z</time>
  <course>10.8</course>
  <speed>0.01</speed>
  <fix>3d</fix>
</trkpt>
<trkpt lat="-27.2744378" lon="151.2900641">
  <ele>343.1</ele>
  <time>2026-09-01T19:54:13Z</time>
  <course>348.61</course>
  <speed>0.0</speed>
  <fix>3d</fix>
</trkpt>
<trkpt lat="-27.2744379" lon="151.2900642">
  <ele>343.24</ele>
  <time>2026-09-01T19:54:13Z</time>
  <course>10.81</course>
  <speed>0.01</speed>
  <fix>3d</fix>
</trkpt>
<trkpt lat="-27.2744378" lon="151.2900641">
  <ele>343.1</ele>
  <time>2026-09-01T19:54:13Z</time>
  <course>4.35</course>
  <speed>0.0</speed>
  <fix>3d</fix>
</trkpt>
<trkpt lat="-27.2744379" lon="151.2900642">
  <ele>343.24</ele>
  <time>2026-09-01T19:54:13Z</time>
  <course>10.81</course>
  <speed>0.01</speed>
  <fix>3d</fix>
</trkpt>
<trkpt lat="-27.2744378" lon="151.2900641">
  <ele>343.1</ele>
  <time>2026-09-01T19:54:13Z</time>
  <course>4.35</course>
  <speed>0.0</speed>
  <fix>3d</fix>
</trkpt>
<trkpt lat="-27.2744379" lon="151.2900642">
  <ele>343.24</ele>
  <time>2026-09-01T19:54:13Z</time>
  <course>10.81</course>
  <speed>0.01</speed>
  <fix>3d</fix>
</trkpt>
<trkpt lat="-27.2744378" lon="151.2900641">
  <ele>343.1</ele>
  <time>2026-09-01T19:54:13Z</time>
  <course>17.53</course>
  <speed>0.0</speed>
  <fix>3d</fix>
</trkpt>
<trkpt lat="-27.2744379" lon="151.2900642">
  <ele>343.24</ele>
  <time>2026-09-01T19:54:13Z</time>
  <course>10.81</course>
  <speed>0.01</speed>
  <fix>3d</fix>
</trkpt>
<trkpt lat="-27.2744378" lon="151.2900641">
  <ele>343.1</ele>
  <time>2026-09-01T19:54:13Z</time>
  <course>17.53</course>
  <speed>0.0</speed>
  <fix>3d</fix>
</trkpt>
<trkpt lat="-27.2744379" lon="151.2900642">
  <ele>343.24</ele>
  <time>2026-09-01T19:54:13Z</time>
  <course>10.81</course>
  <speed>0.01</speed>
  <fix>3d</fix>
</trkpt>
<trkpt lat="-27.2744378" lon="151.2900641">
  <ele>343.1</ele>
  <time>2026-09-01T19:54:13Z</time>
  <course>8.46</course>
  <speed>0.0</speed>
  <fix>3d</fix>
</trkpt>
<trkpt lat="-27.2744379" lon="151.2900642">
  <ele>343.24</ele>
  <time>2026-09-01T19:54:13Z</time>
  <course>10.81</course>
  <speed>0.01</speed>
  <fix>3d</fix>
</trkpt>
<trkpt lat="-27.2744378" lon="151.2900641">
  <ele>343.1</ele>
  <time>2026-09-01T19:54:13Z</time>
  <course>8.46</course>
  <speed>0.0</speed>
  <fix>3d</fix>
</trkpt>
<trkpt lat="-27.2744379" lon="151.2900642">
  <ele>343.24</ele>
  <time>2026-09-01T19:54:13Z</time>
  <course>10.82</course>
  <speed>0.01</speed>
  <fix>3d</fix>
</trkpt>
<trkpt lat="-27.2744378" lon="151.2900641">
  <ele>343.1</ele>
  <time>2026-09-01T19:54:13Z</time>
  <course>352.69</course>
  <speed>0.0</speed>
  <fix>3d</fix>
</trkpt>
<trkpt lat="-27.2744379" lon="151.2900642">
  <ele>343.24</ele>
  <time>2026-09-01T19:54:13Z</time>
  <course>10.82</course>
  <speed>0.02</speed>
  <fix>3d</fix>
</trkpt>
<trkpt lat="-27.2744378" lon="151.2900641">
  <ele>343.1</ele>
  <time>2026-09-01T19:54:13Z</time>
  <course>352.69</course>
  <speed>0.0</speed>
  <fix>3d</fix>
</trkpt>
<trkpt lat="-27.2744379" lon="151.2900642">
  <ele>343.24</ele>
  <time>2026-09-01T19:54:13Z</time>
  <course>10.82</course>
  <speed>0.02</speed>
  <fix>3d</fix>
</trkpt>
<trkpt lat="-27.2744378" lon="151.2900641">
  <ele>343.1</ele>
  <time>2026-09-01T19:54:13Z</time>
  <course>345.28</course>
  <speed>0.0</speed>
  <fix>3d</fix>
</trkpt>
<trkpt lat="-27.2744379" lon="151.2900642">
  <ele>343.24</ele>
  <time>2026-09-01T19:54:13Z</time>
  <course>10.82</course>
  <speed>0.02</speed>
  <fix>3d</fix>
</trkpt>
<trkpt lat="-27.2744378" lon="151.2900641">
  <ele>343.1</ele>
  <time>2026-09-01T19:54:13Z</time>
  <course>345.28</course>
  <speed>0.0</speed>
  <fix>3d</fix>
</trkpt>
<trkpt lat="-27.2744379" lon="151.2900642">
  <ele>343.23</ele>
  <time>2026-09-01T19:54:13Z</time>
  <course>10.82</course>
  <speed>0.02</speed>
  <fix>3d</fix>
</trkpt>
<trkpt lat="-27.2744378" lon="151.2900641">
  <ele>343.1</ele>
  <time>2026-09-01T19:54:13Z</time>
  <course>9.37</course>
  <speed>0.0</speed>
  <fix>3d</fix>
</trkpt>
<trkpt lat="-27.2744379" lon="151.2900642">
  <ele>343.23</ele>
  <time>2026-09-01T19:54:13Z</time>
  <course>10.82</course>
  <speed>0.02</speed>
  <fix>3d</fix>
</trkpt>
<trkpt lat="-27.2744378" lon="151.2900641">
  <ele>343.1</ele>
  <time>2026-09-01T19:54:13Z</time>
  <course>9.37</course>
  <speed>0.0</speed>
  <fix>3d</fix>
</trkpt>
<trkpt lat="-27.2744379" lon="151.2900642">
  <ele>343.23</ele>
  <time>2026-09-01T19:54:13Z</time>
  <course>10.82</course>
  <speed>0.01</speed>
  <fix>3d</fix>
</trkpt>
<trkpt lat="-27.2744378" lon="151.2900642">
  <ele>343.1</ele>
  <time>2026-09-01T19:54:13Z</time>
  <course>16.38</course>
  <speed>0.0</speed>
  <fix>3d</fix>
</trkpt>
<trkpt lat="-27.2744379" lon="151.2900642">
  <ele>343.23</ele>
  <time>2026-09-01T19:54:13Z</time>
  <course>10.82</course>
  <speed>0.01414213562373095</speed>
  <fix>3d</fix>
</trkpt>
<trkpt lat="-27.2744378" lon="151.2900642">
  <ele>343.1</ele>
  <time>2026-09-01T19:54:13Z</time>
  <course>16.38</course>
  <speed>0.0</speed>
  <fix>3d</fix>
</trkpt>
<trkpt lat="-27.2744379" lon="151.2900642">
  <ele>343.23</ele>
  <time>2026-09-01T19:54:13Z</time>
  <course>10.83</course>
  <speed>0.01</speed>
  <fix>3d</fix>
</trkpt>
<trkpt lat="-27.2744378" lon="151.2900642">
  <ele>343.1</ele>
  <time>2026-09-01T19:54:13Z</time>
  <course>7.88</course>
  <speed>0.0</speed>
  <fix>3d</fix>
</trkpt>
<trkpt lat="-27.2744379" lon="151.2900642">
  <ele>343.23</ele>
  <time>2026-09-01T19:54:13Z</time>
  <course>10.83</course>
  <speed>0.01414213562373095</speed>
  <fix>3d</fix>
</trkpt>
<trkpt lat="-27.2744378" lon="151.2900642">
  <ele>343.1</ele>
  <time>2026-09-01T19:54:13Z</time>
  <course>7.88</course>
  <speed>0.0</speed>
  <fix>3d</fix>
</trkpt>
<trkpt lat="-27.2744379" lon="151.2900642">
  <ele>343.23</ele>
  <time>2026-09-01T19:54:13Z</time>
  <course>10.83</course>
  <speed>0.01</speed>
  <fix>3d</fix>
</trkpt>
<trkpt lat="-27.2744377" lon="151.2900642">
  <ele>343.1</ele>
  <time>2026-09-01T19:54:13Z</time>
  <course>25.21</course>
  <speed>0.0</speed>
  <fix>3d</fix>
</trkpt>
<trkpt lat="-27.2744379" lon="151.2900642">
  <ele>343.23</ele>
  <time>2026-09-01T19:54:13Z</time>
  <course>10.83</course>
  <speed>0.01</speed>
  <fix>3d</fix>
</trkpt>
<trkpt lat="-27.2744377" lon="151.2900642">
  <ele>343.1</ele>
  <time>2026-09-01T19:54:13Z</time>
  <course>25.21</course>
  <speed>0.0</speed>
  <fix>3d</fix>
</trkpt>
<trkpt lat="-27.2744379" lon="151.2900642">
  <ele>343.23</ele>
  <time>2026-09-01T19:54:13Z</time>
  <course>10.83</course>
  <speed>0.01414213562373095</speed>
  <fix>3d</fix>
</trkpt>
<trkpt lat="-27.2744377" lon="151.2900642">
  <ele>343.1</ele>
  <time>2026-09-01T19:54:13Z</time>
  <course>9.52</course>
  <speed>0.0</speed>
  <fix>3d</fix>
</trkpt>
<trkpt lat="-27.2744379" lon="151.2900642">
  <ele>343.23</ele>
  <time>2026-09-01T19:54:13Z</time>
  <course>10.83</course>
  <speed>0.01414213562373095</speed>
  <fix>3d</fix>
</trkpt>
<trkpt lat="-27.2744377" lon="151.2900642">
  <ele>343.1</ele>
  <time>2026-09-01T19:54:13Z</time>
  <course>9.52</course>
  <speed>0.0</speed>
  <fix>3d</fix>
</trkpt>
<trkpt lat="-27.2744379" lon="151.2900642">
  <ele>343.23</ele>
  <time>2026-09-01T19:54:13Z</time>
  <course>10.84</course>
  <speed>0.01</speed>
  <fix>3d</fix>
</trkpt>
<trkpt lat="-27.2744377" lon="151.2900642">
  <ele>343.1</ele>
  <time>2026-09-01T19:54:13Z</time>
  <course>12.05</course>
  <speed>0.0</speed>
  <fix>3d</fix>
</trkpt>
<trkpt lat="-27.2744379" lon="151.2900642">
  <ele>343.23</ele>
  <time>2026-09-01T19:54:13Z</time>
  <course>10.84</course>
  <speed>0.01</speed>
  <fix>3d</fix>
</trkpt>
<trkpt lat="-27.2744377" lon="151.2900642">
  <ele>343.1</ele>
  <time>2026-09-01T19:54:13Z</time>
  <course>12.05</course>
  <speed>0.0</speed>
  <fix>3d</fix>
</trkpt>
<trkpt lat="-27.2744379" lon="151.2900642">
  <ele>343.23</ele>
  <time>2026-09-01T19:54:13Z</time>
  <course>10.84</course>
  <speed>0.01414213562373095</speed>
  <fix>3d</fix>
</trkpt>
<trkpt lat="-27.2744377" lon="151.2900642">
  <ele>343.1</ele>
  <time>2026-09-01T19:54:13Z</time>
  <course>11.73</course>
  <speed>0.0</speed>
  <fix>3d</fix>
</trkpt>
<trkpt lat="-27.2744379" lon="151.2900642">
  <ele>343.23</ele>
  <time>2026-09-01T19:54:13Z</time>
  <course>10.84</course>
  <speed>0.01414213562373095</speed>
  <fix>3d</fix>
</trkpt>
<trkpt lat="-27.2744377" lon="151.2900642">
  <ele>343.1</ele>
  <time>2026-09-01T19:54:13Z</time>
  <course>11.73</course>
  <speed>0.0</speed>
  <fix>3d</fix>
</trkpt>
<trkpt lat="-27.2744379" lon="151.2900642">
  <ele>343.23</ele>
  <time>2026-09-01T19:54:13Z</time>
  <course>10.84</course>
  <speed>0.01414213562373095</speed>
  <fix>3d</fix>
</trkpt>
<trkpt lat="-27.2744377" lon="151.2900642">
  <ele>343.1</ele>
  <time>2026-09-01T19:54:13Z</time>
  <course>3.82</course>
  <speed>0.0</speed>
  <fix>3d</fix>
</trkpt>
<trkpt lat="-27.2744379" lon="151.2900642">
  <ele>343.23</ele>
  <time>2026-09-01T19:54:13Z</time>
  <course>10.84</course>
  <speed>0.01414213562373095</speed>
  <fix>3d</fix>
</trkpt>
<trkpt lat="-27.2744377" lon="151.2900642">
  <ele>343.1</ele>
  <time>2026-09-01T19:54:13Z</time>
  <course>3.82</course>
  <speed>0.0</speed>
  <fix>3d</fix>
</trkpt>
<trkpt lat="-27.2744379" lon="151.2900642">
  <ele>343.23</ele>
  <time>2026-09-01T19:54:13Z</time>
  <course>10.85</course>
  <speed>0.01414213562373095</speed>
  <fix>3d</fix>
</trkpt>
<trkpt lat="-27.2744377" lon="151.2900642">
  <ele>343.1</ele>
  <time>2026-09-01T19:54:13Z</time>
  <course>15.35</course>
  <speed>0.0</speed>
  <fix>3d</fix>
</trkpt>
<trkpt lat="-27.2744379" lon="151.2900642">
  <ele>343.23</ele>
  <time>2026-09-01T19:54:13Z</time>
  <course>10.85</course>
  <speed>0.022360679774997897</speed>
  <fix>3d</fix>
</trkpt>
<trkpt lat="-27.2744377" lon="151.2900642">
  <ele>343.1</ele>
  <time>2026-09-01T19:54:13Z</time>
  <course>15.35</course>
  <speed>0.0</speed>
  <fix>3d</fix>
</trkpt>
<trkpt lat="-27.2744379" lon="151.2900642">
  <ele>343.24</ele>
  <time>2026-09-01T19:54:13Z</time>
  <course>10.85</course>
  <speed>0.02</speed>
  <fix>3d</fix>
</trkpt>
<trkpt lat="-27.2744377" lon="151.2900642">
  <ele>343.1</ele>
  <time>2026-09-01T19:54:13Z</time>
  <course>26.88</course>
  <speed>0.0</speed>
  <fix>3d</fix>
</trkpt>
<trkpt lat="-27.2744379" lon="151.2900642">
  <ele>343.24</ele>
  <time>2026-09-01T19:54:13Z</time>
  <course>10.85</course>
  <speed>0.01414213562373095</speed>
  <fix>3d</fix>
</trkpt>
<trkpt lat="-27.2744377" lon="151.2900642">
  <ele>343.1</ele>
  <time>2026-09-01T19:54:13Z</time>
  <course>26.88</course>
  <speed>0.0</speed>
  <fix>3d</fix>
</trkpt>
<trkpt lat="-27.2744379" lon="151.2900642">
  <ele>343.24</ele>
  <time>2026-09-01T19:54:13Z</time>
  <course>10.85</course>
  <speed>0.01414213562373095</speed>
  <fix>3d</fix>
</trkpt>
<trkpt lat="-27.2744377" lon="151.2900642">
  <ele>343.1</ele>
  <time>2026-09-01T19:54:13Z</time>
  <course>9.91</course>
  <speed>0.0</speed>
  <fix>3d</fix>
</trkpt>
<trkpt lat="-27.2744379" lon="151.2900642">
  <ele>343.24</ele>
  <time>2026-09-01T19:54:13Z</time>
  <course>10.85</course>
  <speed>0.01414213562373095</speed>
  <fix>3d</fix>
</trkpt>
<trkpt lat="-27.2744377" lon="151.2900642">
  <ele>343.1</ele>
  <time>2026-09-01T19:54:13Z</time>
  <course>9.91</course>
  <speed>0.0</speed>
  <fix>3d</fix>
</trkpt>
<trkpt lat="-27.2744379" lon="151.2900642">
  <ele>343.24</ele>
  <time>2026-09-01T19:54:13Z</time>
  <course>10.85</course>
  <speed>0.01414213562373095</speed>
  <fix>3d</fix>
</trkpt>
<trkpt lat="-27.2744377" lon="151.2900642">
  <ele>343.1</ele>
  <time>2026-09-01T19:54:13Z</time>
  <course>14.18</course>
  <speed>0.0</speed>
  <fix>3d</fix>
</trkpt>
<trkpt lat="-27.2744379" lon="151.2900642">
  <ele>343.24</ele>
  <time>2026-09-01T19:54:13Z</time>
  <course>10.85</course>
  <speed>0.01414213562373095</speed>
  <fix>3d</fix>
</trkpt>
<trkpt lat="-27.2744377" lon="151.2900642">
  <ele>343.1</ele>
  <time>2026-09-01T19:54:13Z</time>
  <course>14.18</course>
  <speed>0.0</speed>
  <fix>3d</fix>
</trkpt>
<trkpt lat="-27.2744379" lon="151.2900642">
  <ele>343.24</ele>
  <time>2026-09-01T19:54:13Z</time>
  <course>10.85</course>
  <speed>0.01414213562373095</speed>
  <fix>3d</fix>
</trkpt>
<trkpt lat="-27.2744377" lon="151.2900642">
  <ele>343.1</ele>
  <time>2026-09-01T19:54:13Z</time>
  <course>26.97</course>
  <speed>0.0</speed>
  <fix>3d</fix>
</trkpt>
<trkpt lat="-27.2744379" lon="151.2900642">
  <ele>343.24</ele>
  <time>2026-09-01T19:54:13Z</time>
  <course>10.86</course>
  <speed>0.01414213562373095</speed>
  <fix>3d</fix>
</trkpt>
<trkpt lat="-27.2744377" lon="151.2900642">
  <ele>343.1</ele>
  <time>2026-09-01T19:54:13Z</time>
  <course>26.97</course>
  <speed>0.0</speed>
  <fix>3d</fix>
</trkpt>
<trkpt lat="-27.2744379" lon="151.2900642">
  <ele>343.24</ele>
  <time>2026-09-01T19:54:13Z</time>
  <course>10.86</course>
  <speed>0.01414213562373095</speed>
  <fix>3d</fix>
</trkpt>
<trkpt lat="-27.2744377" lon="151.2900642">
  <ele>343.1</ele>
  <time>2026-09-01T19:54:13Z</time>
  <course>13.55</course>
  <speed>0.0</speed>
  <fix>3d</fix>
</trkpt>
<trkpt lat="-27.2744379" lon="151.2900643">
  <ele>343.24</ele>
  <time>2026-09-01T19:54:13Z</time>
  <course>10.86</course>
  <speed>0.01414213562373095</speed>
  <fix>3d</fix>
</trkpt>
<trkpt lat="-27.2744377" lon="151.2900642">
  <ele>343.1</ele>
  <time>2026-09-01T19:54:13Z</time>
  <course>13.55</course>
  <speed>0.0</speed>
  <fix>3d</fix>
</trkpt>
<trkpt lat="-27.2744379" lon="151.2900643">
  <ele>343.24</ele>
  <time>2026-09-01T19:54:13Z</time>
  <course>10.86</course>
  <speed>0.01</speed>
  <fix>3d</fix>
</trkpt>
<trkpt lat="-27.2744376" lon="151.2900642">
  <ele>343.1</ele>
  <time>2026-09-01T19:54:13Z</time>
  <course>8.66</course>
  <speed>0.0</speed>
  <fix>3d</fix>
</trkpt>
<trkpt lat="-27.2744379" lon="151.2900643">
  <ele>343.24</ele>
  <time>2026-09-01T19:54:13Z</time>
  <course>10.86</course>
  <speed>0.01414213562373095</speed>
  <fix>3d</fix>
</trkpt>
<trkpt lat="-27.2744376" lon="151.2900642">
  <ele>343.1</ele>
  <time>2026-09-01T19:54:13Z</time>
  <course>8.66</course>
  <speed>0.0</speed>
  <fix>3d</fix>
</trkpt>
<trkpt lat="-27.2744378" lon="151.2900643">
  <ele>343.24</ele>
  <time>2026-09-01T19:54:13Z</time>
  <course>10.86</course>
  <speed>0.01414213562373095</speed>
  <fix>3d</fix>
</trkpt>
<trkpt lat="-27.2744376" lon="151.2900642">
  <ele>343.1</ele>
  <time>2026-09-01T19:54:13Z</time>
  <course>353.91</course>
  <speed>0.0</speed>
  <fix>3d</fix>
</trkpt>
<trkpt lat="-27.2744378" lon="151.2900643">
  <ele>343.24</ele>
  <time>2026-09-01T19:54:13Z</time>
  <course>10.86</course>
  <speed>0.01414213562373095</speed>
  <fix>3d</fix>
</trkpt>
<trkpt lat="-27.2744376" lon="151.2900642">
  <ele>343.1</ele>
  <time>2026-09-01T19:54:13Z</time>
  <course>353.91</course>
  <speed>0.0</speed>
  <fix>3d</fix>
</trkpt>
<trkpt lat="-27.2744378" lon="151.2900643">
  <ele>343.23</ele>
  <time>2026-09-01T19:54:13Z</time>
  <course>10.86</course>
  <speed>0.01</speed>
  <fix>3d</fix>
</trkpt>
<trkpt lat="-27.2744376" lon="151.2900642">
  <ele>343.1</ele>
  <time>2026-09-01T19:54:13Z</time>
  <course>10.4</course>
  <speed>0.0</speed>
  <fix>3d</fix>
</trkpt>
<trkpt lat="-27.2744378" lon="151.2900643">
  <ele>343.23</ele>
  <time>2026-09-01T19:54:13Z</time>
  <course>10.86</course>
  <speed>0.01</speed>
  <fix>3d</fix>
</trkpt>
<trkpt lat="-27.2744376" lon="151.2900642">
  <ele>343.1</ele>
  <time>2026-09-01T19:54:13Z</time>
  <course>10.4</course>
  <speed>0.0</speed>
  <fix>3d</fix>
</trkpt>
<trkpt lat="-27.2744378" lon="151.2900643">
  <ele>343.23</ele>
  <time>2026-09-01T19:54:13Z</time>
  <course>10.86</course>
  <speed>0.01</speed>
  <fix>3d</fix>
</trkpt>
<trkpt lat="-27.2744376" lon="151.2900642">
  <ele>343.1</ele>
  <time>2026-09-01T19:54:13Z</time>
  <course>8.39</course>
  <speed>0.0</speed>
  <fix>3d</fix>
</trkpt>
<trkpt lat="-27.2744378" lon="151.2900643">
  <ele>343.23</ele>
  <time>2026-09-01T19:54:13Z</time>
  <course>10.86</course>
  <speed>0.01</speed>
  <fix>3d</fix>
</trkpt>
<trkpt lat="-27.2744376" lon="151.2900642">
  <ele>343.1</ele>
  <time>2026-09-01T19:54:13Z</time>
  <course>8.39</course>
  <speed>0.0</speed>
  <fix>3d</fix>
</trkpt>
<trkpt lat="-27.2744378" lon="151.2900643">
  <ele>343.23</ele>
  <time>2026-09-01T19:54:13Z</time>
  <course>10.86</course>
  <speed>0.0</speed>
  <fix>3d</fix>
</trkpt>
<trkpt lat="-27.2744376" lon="151.2900642">
  <ele>343.1</ele>
  <time>2026-09-01T19:54:13Z</time>
  <course>3.33</course>
  <speed>0.0</speed>
  <fix>3d</fix>
</trkpt>
<trkpt lat="-27.2744378" lon="151.2900643">
  <ele>343.23</ele>
  <time>2026-09-01T19:54:13Z</time>
  <course>10.86</course>
  <speed>0.0</speed>
  <fix>3d</fix>
</trkpt>
<trkpt lat="-27.2744376" lon="151.2900642">
  <ele>343.1</ele>
  <time>2026-09-01T19:54:13Z</time>
  <course>3.33</course>
  <speed>0.0</speed>
  <fix>3d</fix>
</trkpt>
<trkpt lat="-27.2744378" lon="151.2900643">
  <ele>343.23</ele>
  <time>2026-09-01T19:54:13Z</time>
  <course>10.87</course>
  <speed>0.0</speed>
  <fix>3d</fix>
</trkpt>
<trkpt lat="-27.2744376" lon="151.2900642">
  <ele>343.09</ele>
  <time>2026-09-01T19:54:13Z</time>
  <course>5.03</course>
  <speed>0.0</speed>
  <fix>3d</fix>
</trkpt>
<trkpt lat="-27.2744378" lon="151.2900643">
  <ele>343.23</ele>
  <time>2026-09-01T19:54:13Z</time>
  <course>10.87</course>
  <speed>0.0</speed>
  <fix>3d</fix>
</trkpt>
<trkpt lat="-27.2744376" lon="151.2900642">
  <ele>343.09</ele>
  <time>2026-09-01T19:54:13Z</time>
  <course>5.03</course>
  <speed>0.0</speed>
  <fix>3d</fix>
</trkpt>
<trkpt lat="-27.2744378" lon="151.2900642">
  <ele>343.23</ele>
  <time>2026-09-01T19:54:13Z</time>
  <course>10.87</course>
  <speed>0.01</speed>
  <fix>3d</fix>
</trkpt>
<trkpt lat="-27.2744376" lon="151.2900642">
  <ele>343.09</ele>
  <time>2026-09-01T19:54:13Z</time>
  <course>345.25</course>
  <speed>0.0</speed>
  <fix>3d</fix>
</trkpt>
<trkpt lat="-27.2744377" lon="151.2900642">
  <ele>343.23</ele>
  <time>2026-09-01T19:54:13Z</time>
  <course>10.87</course>
  <speed>0.01</speed>
  <fix>3d</fix>
</trkpt>
<trkpt lat="-27.2744376" lon="151.2900642">
  <ele>343.09</ele>
  <time>2026-09-01T19:54:13Z</time>
  <course>345.25</course>
  <speed>0.0</speed>
  <fix>3d</fix>
</trkpt>
<trkpt lat="-27.2744377" lon="151.2900642">
  <ele>343.23</ele>
  <time>2026-09-01T19:54:13Z</time>
  <course>10.87</course>
  <speed>0.0</speed>
  <fix>3d</fix>
</trkpt>
<trkpt lat="-27.2744376" lon="151.2900642">
  <ele>343.09</ele>
  <time>2026-09-01T19:54:13Z</time>
  <course>347.08</course>
  <speed>0.0</speed>
  <fix>3d</fix>
</trkpt>
<trkpt lat="-27.2744377" lon="151.2900642">
  <ele>343.23</ele>
  <time>2026-09-01T19:54:13Z</time>
  <course>10.87</course>
  <speed>0.0</speed>
  <fix>3d</fix>
</trkpt>
<trkpt lat="-27.2744376" lon="151.2900642">
  <ele>343.09</ele>
  <time>2026-09-01T19:54:13Z</time>
  <course>347.08</course>
  <speed>0.0</speed>
  <fix>3d</fix>
</trkpt>
<trkpt lat="-27.2744377" lon="151.2900642">
  <ele>343.23</ele>
  <time>2026-09-01T19:54:13Z</time>
  <course>10.87</course>
  <speed>0.01</speed>
  <fix>3d</fix>
</trkpt>
<trkpt lat="-27.2744376" lon="151.2900642">
  <ele>343.09</ele>
  <time>2026-09-01T19:54:13Z</time>
  <course>359.12</course>
  <speed>0.0</speed>
  <fix>3d</fix>
</trkpt>
<trkpt lat="-27.2744377" lon="151.2900642">
  <ele>343.23</ele>
  <time>2026-09-01T19:54:13Z</time>
  <course>10.87</course>
  <speed>0.01</speed>
  <fix>3d</fix>
</trkpt>
<trkpt lat="-27.2744376" lon="151.2900642">
  <ele>343.09</ele>
  <time>2026-09-01T19:54:13Z</time>
  <course>359.12</course>
  <speed>0.0</speed>
  <fix>3d</fix>
</trkpt>
<trkpt lat="-27.2744377" lon="151.2900642">
  <ele>343.23</ele>
  <time>2026-09-01T19:54:13Z</time>
  <course>10.87</course>
  <speed>0.01414213562373095</speed>
  <fix>3d</fix>
</trkpt>
<trkpt lat="-27.2744376" lon="151.2900642">
  <ele>343.09</ele>
  <time>2026-09-01T19:54:13Z</time>
  <course>10.43</course>
  <speed>0.0</speed>
  <fix>3d</fix>
</trkpt>
<trkpt lat="-27.2744377" lon="151.2900642">
  <ele>343.22</ele>
  <time>2026-09-01T19:54:13Z</time>
  <course>10.87</course>
  <speed>0.01</speed>
  <fix>3d</fix>
</trkpt>
<trkpt lat="-27.2744376" lon="151.2900642">
  <ele>343.09</ele>
  <time>2026-09-01T19:54:13Z</time>
  <course>10.43</course>
  <speed>0.0</speed>
  <fix>3d</fix>
</trkpt>
<trkpt lat="-27.2744377" lon="151.2900642">
  <ele>343.22</ele>
  <time>2026-09-01T19:54:13Z</time>
  <course>10.87</course>
  <speed>0.01</speed>
  <fix>3d</fix>
</trkpt>
<trkpt lat="-27.2744376" lon="151.2900642">
  <ele>343.09</ele>
  <time>2026-09-01T19:54:13Z</time>
  <course>346.52</course>
  <speed>0.0</speed>
  <fix>3d</fix>
</trkpt>
<trkpt lat="-27.2744377" lon="151.2900643">
  <ele>343.22</ele>
  <time>2026-09-01T19:54:13Z</time>
  <course>10.88</course>
  <speed>0.01</speed>
  <fix>3d</fix>
</trkpt>
<trkpt lat="-27.2744376" lon="151.2900642">
  <ele>343.09</ele>
  <time>2026-09-01T19:54:13Z</time>
  <course>346.52</course>
  <speed>0.0</speed>
  <fix>3d</fix>
</trkpt>
<trkpt lat="-27.2744377" lon="151.2900643">
  <ele>343.22</ele>
  <time>2026-09-01T19:54:13Z</time>
  <course>10.88</course>
  <speed>0.01</speed>
  <fix>3d</fix>
</trkpt>
<trkpt lat="-27.2744375" lon="151.2900642">
  <ele>343.09</ele>
  <time>2026-09-01T19:54:13Z</time>
  <course>3.43</course>
  <speed>0.0</speed>
  <fix>3d</fix>
</trkpt>
<trkpt lat="-27.2744377" lon="151.2900643">
  <ele>343.22</ele>
  <time>2026-09-01T19:54:13Z</time>
  <course>10.88</course>
  <speed>0.01414213562373095</speed>
  <fix>3d</fix>
</trkpt>
<trkpt lat="-27.2744375" lon="151.2900642">
  <ele>343.09</ele>
  <time>2026-09-01T19:54:13Z</time>
  <course>3.43</course>
  <speed>0.0</speed>
  <fix>3d</fix>
</trkpt>
<trkpt lat="-27.2744377" lon="151.2900643">
  <ele>343.22</ele>
  <time>2026-09-01T19:54:13Z</time>
  <course>10.88</course>
  <speed>0.01414213562373095</speed>
  <fix>3d</fix>
</trkpt>
<trkpt lat="-27.2744375" lon="151.2900642">
  <ele>343.09</ele>
  <time>2026-09-01T19:54:13Z</time>
  <course>28.72</course>
  <speed>0.0</speed>
  <fix>3d</fix>
</trkpt>
<trkpt lat="-27.2744377" lon="151.2900643">
  <ele>343.22</ele>
  <time>2026-09-01T19:54:13Z</time>
  <course>10.88</course>
  <speed>0.01</speed>
  <fix>3d</fix>
</trkpt>
<trkpt lat="-27.2744375" lon="151.2900642">
  <ele>343.09</ele>
  <time>2026-09-01T19:54:13Z</time>
  <course>28.72</course>
  <speed>0.0</speed>
  <fix>3d</fix>
</trkpt>
<trkpt lat="-27.2744377" lon="151.2900643">
  <ele>343.22</ele>
  <time>2026-09-01T19:54:13Z</time>
  <course>10.88</course>
  <speed>0.0</speed>
  <fix>3d</fix>
</trkpt>
<trkpt lat="-27.2744375" lon="151.2900642">
  <ele>343.09</ele>
  <time>2026-09-01T19:54:13Z</time>
  <course>24.21</course>
  <speed>0.0</speed>
  <fix>3d</fix>
</trkpt>
<trkpt lat="-27.2744377" lon="151.2900643">
  <ele>343.22</ele>
  <time>2026-09-01T19:54:13Z</time>
  <course>10.88</course>
  <speed>0.01</speed>
  <fix>3d</fix>
</trkpt>
<trkpt lat="-27.2744375" lon="151.2900642">
  <ele>343.09</ele>
  <time>2026-09-01T19:54:13Z</time>
  <course>24.21</course>
  <speed>0.0</speed>
  <fix>3d</fix>
</trkpt>
<trkpt lat="-27.2744377" lon="151.2900642">
  <ele>343.22</ele>
  <time>2026-09-01T19:54:13Z</time>
  <course>10.89</course>
  <speed>0.01</speed>
  <fix>3d</fix>
</trkpt>
<trkpt lat="-27.2744375" lon="151.2900642">
  <ele>343.09</ele>
  <time>2026-09-01T19:54:13Z</time>
  <course>350.77</course>
  <speed>0.0</speed>
  <fix>3d</fix>
</trkpt>
<trkpt lat="-27.2744377" lon="151.2900643">
  <ele>343.22</ele>
  <time>2026-09-01T19:54:13Z</time>
  <course>10.89</course>
  <speed>0.01</speed>
  <fix>3d</fix>
</trkpt>
<trkpt lat="-27.2744375" lon="151.2900642">
  <ele>343.09</ele>
  <time>2026-09-01T19:54:13Z</time>
  <course>350.77</course>
  <speed>0.0</speed>
  <fix>3d</fix>
</trkpt>
<trkpt lat="-27.2744377" lon="151.2900642">
  <ele>343.22</ele>
  <time>2026-09-01T19:54:13Z</time>
  <course>10.89</course>
  <speed>0.01</speed>
  <fix>3d</fix>
</trkpt>
<trkpt lat="-27.2744375" lon="151.2900642">
  <ele>343.09</ele>
  <time>2026-09-01T19:54:13Z</time>
  <course>357.12</course>
  <speed>0.0</speed>
  <fix>3d</fix>
</trkpt>
<trkpt lat="-27.2744377" lon="151.2900642">
  <ele>343.22</ele>
  <time>2026-09-01T19:54:13Z</time>
  <course>10.89</course>
  <speed>0.01</speed>
  <fix>3d</fix>
</trkpt>
<trkpt lat="-27.2744375" lon="151.2900642">
  <ele>343.09</ele>
  <time>2026-09-01T19:54:13Z</time>
  <course>357.12</course>
  <speed>0.0</speed>
  <fix>3d</fix>
</trkpt>
<trkpt lat="-27.2744377" lon="151.2900642">
  <ele>343.22</ele>
  <time>2026-09-01T19:54:13Z</time>
  <course>10.89</course>
  <speed>0.0</speed>
  <fix>3d</fix>
</trkpt>
<trkpt lat="-27.2744375" lon="151.2900642">
  <ele>343.09</ele>
  <time>2026-09-01T19:54:13Z</time>
  <course>17.53</course>
  <speed>0.0</speed>
  <fix>3d</fix>
</trkpt>
<trkpt lat="-27.2744377" lon="151.2900642">
  <ele>343.22</ele>
  <time>2026-09-01T19:54:13Z</time>
  <course>10.89</course>
  <speed>0.0</speed>
  <fix>3d</fix>
</trkpt>
<trkpt lat="-27.2744375" lon="151.2900642">
  <ele>343.09</ele>
  <time>2026-09-01T19:54:13Z</time>
  <course>17.53</course>
  <speed>0.0</speed>
  <fix>3d</fix>
</trkpt>
<trkpt lat="-27.2744377" lon="151.2900642">
  <ele>343.22</ele>
  <time>2026-09-01T19:54:13Z</time>
  <course>10.9</course>
  <speed>0.01</speed>
  <fix>3d</fix>
</trkpt>
<trkpt lat="-27.2744375" lon="151.2900642">
  <ele>343.09</ele>
  <time>2026-09-01T19:54:13Z</time>
  <course>354.94</course>
  <speed>0.0</speed>
  <fix>3d</fix>
</trkpt>
<trkpt lat="-27.2744377" lon="151.2900642">
  <ele>343.22</ele>
  <time>2026-09-01T19:54:13Z</time>
  <course>10.9</course>
  <speed>0.0</speed>
  <fix>3d</fix>
</trkpt>
<trkpt lat="-27.2744375" lon="151.2900642">
  <ele>343.09</ele>
  <time>2026-09-01T19:54:13Z</time>
  <course>354.94</course>
  <speed>0.0</speed>
  <fix>3d</fix>
</trkpt>
<trkpt lat="-27.2744376" lon="151.2900642">
  <ele>343.22</ele>
  <time>2026-09-01T19:54:13Z</time>
  <course>10.9</course>
  <speed>0.0</speed>
  <fix>3d</fix>
</trkpt>
<trkpt lat="-27.2744375" lon="151.2900642">
  <ele>343.09</ele>
  <time>2026-09-01T19:54:13Z</time>
  <course>343.47</course>
  <speed>0.0</speed>
  <fix>3d</fix>
</trkpt>
<trkpt lat="-27.2744376" lon="151.2900642">
  <ele>343.22</ele>
  <time>2026-09-01T19:54:13Z</time>
  <course>10.9</course>
  <speed>0.0</speed>
  <fix>3d</fix>
</trkpt>
<trkpt lat="-27.2744375" lon="151.2900642">
  <ele>343.09</ele>
  <time>2026-09-01T19:54:13Z</time>
  <course>343.47</course>
  <speed>0.0</speed>
  <fix>3d</fix>
</trkpt>
<trkpt lat="-27.2744376" lon="151.2900642">
  <ele>343.22</ele>
  <time>2026-09-01T19:54:13Z</time>
  <course>10.9</course>
  <speed>0.0</speed>
  <fix>3d</fix>
</trkpt>
<trkpt lat="-27.2744375" lon="151.2900642">
  <ele>343.09</ele>
  <time>2026-09-01T19:54:13Z</time>
  <course>43.09</course>
  <speed>0.0</speed>
  <fix>3d</fix>
</trkpt>
<trkpt lat="-27.2744376" lon="151.2900642">
  <ele>343.22</ele>
  <time>2026-09-01T19:54:13Z</time>
  <course>10.9</course>
  <speed>0.0</speed>
  <fix>3d</fix>
</trkpt>
<trkpt lat="-27.2744375" lon="151.2900642">
  <ele>343.09</ele>
  <time>2026-09-01T19:54:13Z</time>
  <course>43.09</course>
  <speed>0.0</speed>
  <fix>3d</fix>
</trkpt>
<trkpt lat="-27.2744376" lon="151.2900642">
  <ele>343.21</ele>
  <time>2026-09-01T19:54:13Z</time>
  <course>10.91</course>
  <speed>0.0</speed>
  <fix>3d</fix>
</trkpt>
<trkpt lat="-27.2744375" lon="151.2900642">
  <ele>343.09</ele>
  <time>2026-09-01T19:54:13Z</time>
  <course>35.12</course>
  <speed>0.0</speed>
  <fix>3d</fix>
</trkpt>
<trkpt lat="-27.2744376" lon="151.2900642">
  <ele>343.21</ele>
  <time>2026-09-01T19:54:13Z</time>
  <course>10.91</course>
  <speed>0.0</speed>
  <fix>3d</fix>
</trkpt>
<trkpt lat="-27.2744375" lon="151.2900642">
  <ele>343.09</ele>
  <time>2026-09-01T19:54:13Z</time>
  <course>35.12</course>
  <speed>0.0</speed>
  <fix>3d</fix>
</trkpt>
<trkpt lat="-27.2744376" lon="151.2900642">
  <ele>343.21</ele>
  <time>2026-09-01T19:54:13Z</time>
  <course>10.91</course>
  <speed>0.0</speed>
  <fix>3d</fix>
</trkpt>
<trkpt lat="-27.2744374" lon="151.2900642">
  <ele>343.09</ele>
  <time>2026-09-01T19:54:13Z</time>
  <course>6.78</course>
  <speed>0.0</speed>
  <fix>3d</fix>
</trkpt>
<trkpt lat="-27.2744376" lon="151.2900642">
  <ele>343.21</ele>
  <time>2026-09-01T19:54:13Z</time>
  <course>10.91</course>
  <speed>0.0</speed>
  <fix>3d</fix>
</trkpt>
<trkpt lat="-27.2744374" lon="151.2900642">
  <ele>343.09</ele>
  <time>2026-09-01T19:54:13Z</time>
  <course>6.78</course>
  <speed>0.0</speed>
  <fix>3d</fix>
</trkpt>
<trkpt lat="-27.2744376" lon="151.2900642">
  <ele>343.21</ele>
  <time>2026-09-01T19:54:13Z</time>
  <course>10.91</course>
  <speed>0.0</speed>
  <fix>3d</fix>
</trkpt>
<trkpt lat="-27.2744374" lon="151.2900642">
  <ele>343.09</ele>
  <time>2026-09-01T19:54:13Z</time>
  <course>12.43</course>
  <speed>0.0</speed>
  <fix>3d</fix>
</trkpt>
<trkpt lat="-27.2744376" lon="151.2900642">
  <ele>343.21</ele>
  <time>2026-09-01T19:54:13Z</time>
  <course>10.91</course>
  <speed>0.0</speed>
  <fix>3d</fix>
</trkpt>
<trkpt lat="-27.2744374" lon="151.2900642">
  <ele>343.09</ele>
  <time>2026-09-01T19:54:13Z</time>
  <course>12.43</course>
  <speed>0.0</speed>
  <fix>3d</fix>
</trkpt>
<trkpt lat="-27.2744375" lon="151.2900642">
  <ele>343.21</ele>
  <time>2026-09-01T19:54:13Z</time>
  <course>10.91</course>
  <speed>0.0</speed>
  <fix>3d</fix>
</trkpt>
<trkpt lat="-27.2744374" lon="151.2900642">
  <ele>343.09</ele>
  <time>2026-09-01T19:54:13Z</time>
  <course>0.61</course>
  <speed>0.0</speed>
  <fix>3d</fix>
</trkpt>
<trkpt lat="-27.2744375" lon="151.2900642">
  <ele>343.21</ele>
  <time>2026-09-01T19:54:13Z</time>
  <course>10.91</course>
  <speed>0.0</speed>
  <fix>3d</fix>
</trkpt>
<trkpt lat="-27.2744374" lon="151.2900642">
  <ele>343.09</ele>
  <time>2026-09-01T19:54:13Z</time>
  <course>0.61</course>
  <speed>0.0</speed>
  <fix>3d</fix>
</trkpt>
<trkpt lat="-27.2744375" lon="151.2900642">
  <ele>343.21</ele>
  <time>2026-09-01T19:54:13Z</time>
  <course>10.91</course>
  <speed>0.0</speed>
  <fix>3d</fix>
</trkpt>
<trkpt lat="-27.2744374" lon="151.2900642">
  <ele>343.09</ele>
  <time>2026-09-01T19:54:13Z</time>
  <course>345.31</course>
  <speed>0.0</speed>
  <fix>3d</fix>
</trkpt>
<trkpt lat="-27.2744375" lon="151.2900642">
  <ele>343.21</ele>
  <time>2026-09-01T19:54:13Z</time>
  <course>10.91</course>
  <speed>0.0</speed>
  <fix>3d</fix>
</trkpt>
<trkpt lat="-27.2744374" lon="151.2900642">
  <ele>343.09</ele>
  <time>2026-09-01T19:54:13Z</time>
  <course>345.31</course>
  <speed>0.0</speed>
  <fix>3d</fix>
</trkpt>
<trkpt lat="-27.2744375" lon="151.2900642">
  <ele>343.21</ele>
  <time>2026-09-01T19:54:13Z</time>
  <course>10.92</course>
  <speed>0.0</speed>
  <fix>3d</fix>
</trkpt>
<trkpt lat="-27.2744374" lon="151.2900642">
  <ele>343.09</ele>
  <time>2026-09-01T19:54:13Z</time>
  <course>11.77</course>
  <speed>0.0</speed>
  <fix>3d</fix>
</trkpt>
<trkpt lat="-27.2744375" lon="151.2900642">
  <ele>343.21</ele>
  <time>2026-09-01T19:54:13Z</time>
  <course>10.92</course>
  <speed>0.0</speed>
  <fix>3d</fix>
</trkpt>
<trkpt lat="-27.2744374" lon="151.2900642">
  <ele>343.09</ele>
  <time>2026-09-01T19:54:13Z</time>
  <course>11.77</course>
  <speed>0.0</speed>
  <fix>3d</fix>
</trkpt>
<trkpt lat="-27.2744375" lon="151.2900642">
  <ele>343.21</ele>
  <time>2026-09-01T19:54:13Z</time>
  <course>10.92</course>
  <speed>0.0</speed>
  <fix>3d</fix>
</trkpt>
<trkpt lat="-27.2744374" lon="151.2900642">
  <ele>343.09</ele>
  <time>2026-09-01T19:54:13Z</time>
  <course>355.37</course>
  <speed>0.0</speed>
  <fix>3d</fix>
</trkpt>
<trkpt lat="-27.2744375" lon="151.2900642">
  <ele>343.21</ele>
  <time>2026-09-01T19:54:13Z</time>
  <course>10.92</course>
  <speed>0.0</speed>
  <fix>3d</fix>
</trkpt>
<trkpt lat="-27.2744374" lon="151.2900642">
  <ele>343.09</ele>
  <time>2026-09-01T19:54:13Z</time>
  <course>355.37</course>
  <speed>0.0</speed>
  <fix>3d</fix>
</trkpt>
<trkpt lat="-27.2744375" lon="151.2900642">
  <ele>343.21</ele>
  <time>2026-09-01T19:54:13Z</time>
  <course>10.92</course>
  <speed>0.0</speed>
  <fix>3d</fix>
</trkpt>
<trkpt lat="-27.2744374" lon="151.2900642">
  <ele>343.09</ele>
  <time>2026-09-01T19:54:13Z</time>
  <course>353.94</course>
  <speed>0.0</speed>
  <fix>3d</fix>
</trkpt>
<trkpt lat="-27.2744375" lon="151.2900642">
  <ele>343.22</ele>
  <time>2026-09-01T19:54:13Z</time>
  <course>10.92</course>
  <speed>0.0</speed>
  <fix>3d</fix>
</trkpt>
<trkpt lat="-27.2744374" lon="151.2900642">
  <ele>343.09</ele>
  <time>2026-09-01T19:54:13Z</time>
  <course>353.94</course>
  <speed>0.0</speed>
  <fix>3d</fix>
</trkpt>
<trkpt lat="-27.2744375" lon="151.2900642">
  <ele>343.22</ele>
  <time>2026-09-01T19:54:13Z</time>
  <course>10.92</course>
  <speed>0.0</speed>
  <fix>3d</fix>
</trkpt>
<trkpt lat="-27.2744374" lon="151.2900642">
  <ele>343.09</ele>
  <time>2026-09-01T19:54:13Z</time>
  <course>359.97</course>
  <speed>0.0</speed>
  <fix>3d</fix>
</trkpt>
<trkpt lat="-27.2744375" lon="151.2900642">
  <ele>343.22</ele>
  <time>2026-09-01T19:54:13Z</time>
  <course>10.92</course>
  <speed>0.0</speed>
  <fix>3d</fix>
</trkpt>
<trkpt lat="-27.2744374" lon="151.2900642">
  <ele>343.09</ele>
  <time>2026-09-01T19:54:13Z</time>
  <course>359.97</course>
  <speed>0.0</speed>
  <fix>3d</fix>
</trkpt>
<trkpt lat="-27.2744375" lon="151.2900642">
  <ele>343.22</ele>
  <time>2026-09-01T19:54:13Z</time>
  <course>10.92</course>
  <speed>0.0</speed>
  <fix>3d</fix>
</trkpt>
<trkpt lat="-27.2744374" lon="151.2900642">
  <ele>343.09</ele>
  <time>2026-09-01T19:54:13Z</time>
  <course>14.04</course>
  <speed>0.0</speed>
  <fix>3d</fix>
</trkpt>
<trkpt lat="-27.2744375" lon="151.2900642">
  <ele>343.21</ele>
  <time>2026-09-01T19:54:13Z</time>
  <course>10.92</course>
  <speed>0.0</speed>
  <fix>3d</fix>
</trkpt>
<trkpt lat="-27.2744374" lon="151.2900642">
  <ele>343.09</ele>
  <time>2026-09-01T19:54:13Z</time>
  <course>14.04</course>
  <speed>0.0</speed>
  <fix>3d</fix>
</trkpt>
<trkpt lat="-27.2744375" lon="151.2900642">
  <ele>343.21</ele>
  <time>2026-09-01T19:54:13Z</time>
  <course>10.92</course>
  <speed>0.01</speed>
  <fix>3d</fix>
</trkpt>
<trkpt lat="-27.2744374" lon="151.2900642">
  <ele>343.09</ele>
  <time>2026-09-01T19:54:13Z</time>
  <course>16.64</course>
  <speed>0.0</speed>
  <fix>3d</fix>
</trkpt>
<trkpt lat="-27.2744375" lon="151.2900642">
  <ele>343.22</ele>
  <time>2026-09-01T19:54:13Z</time>
  <course>10.92</course>
  <speed>0.0</speed>
  <fix>3d</fix>
</trkpt>
<trkpt lat="-27.2744374" lon="151.2900642">
  <ele>343.09</ele>
  <time>2026-09-01T19:54:13Z</time>
  <course>16.64</course>
  <speed>0.0</speed>
  <fix>3d</fix>
</trkpt>
<trkpt lat="-27.2744375" lon="151.2900642">
  <ele>343.22</ele>
  <time>2026-09-01T19:54:13Z</time>
  <course>10.93</course>
  <speed>0.0</speed>
  <fix>3d</fix>
</trkpt>
<trkpt lat="-27.2744374" lon="151.2900642">
  <ele>343.09</ele>
  <time>2026-09-01T19:54:13Z</time>
  <course>7.31</course>
  <speed>0.0</speed>
  <fix>3d</fix>
</trkpt>
<trkpt lat="-27.2744375" lon="151.2900642">
  <ele>343.22</ele>
  <time>2026-09-01T19:54:13Z</time>
  <course>10.93</course>
  <speed>0.01</speed>
  <fix>3d</fix>
</trkpt>
<trkpt lat="-27.2744374" lon="151.2900642">
  <ele>343.09</ele>
  <time>2026-09-01T19:54:13Z</time>
  <course>7.31</course>
  <speed>0.0</speed>
  <fix>3d</fix>
</trkpt>
<trkpt lat="-27.2744375" lon="151.2900642">
  <ele>343.22</ele>
  <time>2026-09-01T19:54:13Z</time>
  <course>10.93</course>
  <speed>0.01</speed>
  <fix>3d</fix>
</trkpt>
<trkpt lat="-27.2744373" lon="151.2900642">
  <ele>343.09</ele>
  <time>2026-09-01T19:54:13Z</time>
  <course>350.35</course>
  <speed>0.0</speed>
  <fix>3d</fix>
</trkpt>
<trkpt lat="-27.2744375" lon="151.2900642">
  <ele>343.22</ele>
  <time>2026-09-01T19:54:13Z</time>
  <course>10.93</course>
  <speed>0.01</speed>
  <fix>3d</fix>
</trkpt>
<trkpt lat="-27.2744373" lon="151.2900642">
  <ele>343.09</ele>
  <time>2026-09-01T19:54:13Z</time>
  <course>350.35</course>
  <speed>0.0</speed>
  <fix>3d</fix>
</trkpt>
<trkpt lat="-27.2744375" lon="151.2900642">
  <ele>343.22</ele>
  <time>2026-09-01T19:54:13Z</time>
  <course>10.93</course>
  <speed>0.01</speed>
  <fix>3d</fix>
</trkpt>
<trkpt lat="-27.2744373" lon="151.2900642">
  <ele>343.09</ele>
  <time>2026-09-01T19:54:13Z</time>
  <course>14.67</course>
  <speed>0.0</speed>
  <fix>3d</fix>
</trkpt>
<trkpt lat="-27.2744375" lon="151.2900642">
  <ele>343.22</ele>
  <time>2026-09-01T19:54:13Z</time>
  <course>10.93</course>
  <speed>0.01</speed>
  <fix>3d</fix>
</trkpt>
<trkpt lat="-27.2744373" lon="151.2900642">
  <ele>343.09</ele>
  <time>2026-09-01T19:54:13Z</time>
  <course>14.67</course>
  <speed>0.0</speed>
  <fix>3d</fix>
</trkpt>
<trkpt lat="-27.2744375" lon="151.2900642">
  <ele>343.22</ele>
  <time>2026-09-01T19:54:13Z</time>
  <course>10.93</course>
  <speed>0.01</speed>
  <fix>3d</fix>
</trkpt>
<trkpt lat="-27.2744373" lon="151.2900642">
  <ele>343.09</ele>
  <time>2026-09-01T19:54:13Z</time>
  <course>33.0</course>
  <speed>0.0</speed>
  <fix>3d</fix>
</trkpt>
<trkpt lat="-27.2744375" lon="151.2900642">
  <ele>343.22</ele>
  <time>2026-09-01T19:54:13Z</time>
  <course>10.93</course>
  <speed>0.01</speed>
  <fix>3d</fix>
</trkpt>
<trkpt lat="-27.2744373" lon="151.2900642">
  <ele>343.09</ele>
  <time>2026-09-01T19:54:13Z</time>
  <course>33.0</course>
  <speed>0.0</speed>
  <fix>3d</fix>
</trkpt>
<trkpt lat="-27.2744375" lon="151.2900642">
  <ele>343.22</ele>
  <time>2026-09-01T19:54:13Z</time>
  <course>10.93</course>
  <speed>0.01</speed>
  <fix>3d</fix>
</trkpt>
<trkpt lat="-27.2744373" lon="151.2900642">
  <ele>343.09</ele>
  <time>2026-09-01T19:54:13Z</time>
  <course>3.64</course>
  <speed>0.0</speed>
  <fix>3d</fix>
</trkpt>
<trkpt lat="-27.2744375" lon="151.2900642">
  <ele>343.22</ele>
  <time>2026-09-01T19:54:13Z</time>
  <course>10.93</course>
  <speed>0.01</speed>
  <fix>3d</fix>
</trkpt>
<trkpt lat="-27.2744373" lon="151.2900642">
  <ele>343.09</ele>
  <time>2026-09-01T19:54:13Z</time>
  <course>3.64</course>
  <speed>0.0</speed>
  <fix>3d</fix>
</trkpt>
<trkpt lat="-27.2744375" lon="151.2900642">
  <ele>343.22</ele>
  <time>2026-09-01T19:54:13Z</time>
  <course>10.93</course>
  <speed>0.01</speed>
  <fix>3d</fix>
</trkpt>
<trkpt lat="-27.2744373" lon="151.2900642">
  <ele>343.09</ele>
  <time>2026-09-01T19:54:13Z</time>
  <course>14.9</course>
  <speed>0.0</speed>
  <fix>3d</fix>
</trkpt>
<trkpt lat="-27.2744375" lon="151.2900642">
  <ele>343.23</ele>
  <time>2026-09-01T19:54:13Z</time>
  <course>10.93</course>
  <speed>0.01</speed>
  <fix>3d</fix>
</trkpt>
<trkpt lat="-27.2744373" lon="151.2900642">
  <ele>343.09</ele>
  <time>2026-09-01T19:54:13Z</time>
  <course>14.9</course>
  <speed>0.0</speed>
  <fix>3d</fix>
</trkpt>
<trkpt lat="-27.2744375" lon="151.2900642">
  <ele>343.23</ele>
  <time>2026-09-01T19:54:13Z</time>
  <course>10.93</course>
  <speed>0.02</speed>
  <fix>3d</fix>
</trkpt>
<trkpt lat="-27.2744373" lon="151.2900642">
  <ele>343.09</ele>
  <time>2026-09-01T19:54:13Z</time>
  <course>15.53</course>
  <speed>0.0</speed>
  <fix>3d</fix>
</trkpt>
<trkpt lat="-27.2744375" lon="151.2900642">
  <ele>343.23</ele>
  <time>2026-09-01T19:54:13Z</time>
  <course>10.93</course>
  <speed>0.02</speed>
  <fix>3d</fix>
</trkpt>
<trkpt lat="-27.2744373" lon="151.2900642">
  <ele>343.09</ele>
  <time>2026-09-01T19:54:13Z</time>
  <course>15.53</course>
  <speed>0.0</speed>
  <fix>3d</fix>
</trkpt>
<trkpt lat="-27.2744375" lon="151.2900642">
  <ele>343.23</ele>
  <time>2026-09-01T19:54:13Z</time>
  <course>10.93</course>
  <speed>0.01</speed>
  <fix>3d</fix>
</trkpt>
<trkpt lat="-27.2744373" lon="151.2900642">
  <ele>343.09</ele>
  <time>2026-09-01T19:54:13Z</time>
  <course>353.51</course>
  <speed>0.0</speed>
  <fix>3d</fix>
</trkpt>
<trkpt lat="-27.2744375" lon="151.2900642">
  <ele>343.23</ele>
  <time>2026-09-01T19:54:13Z</time>
  <course>10.93</course>
  <speed>0.01</speed>
  <fix>3d</fix>
</trkpt>
<trkpt lat="-27.2744373" lon="151.2900642">
  <ele>343.09</ele>
  <time>2026-09-01T19:54:13Z</time>
  <course>353.51</course>
  <speed>0.0</speed>
  <fix>3d</fix>
</trkpt>
<trkpt lat="-27.2744375" lon="151.2900642">
  <ele>343.23</ele>
  <time>2026-09-01T19:54:13Z</time>
  <course>10.93</course>
  <speed>0.01414213562373095</speed>
  <fix>3d</fix>
</trkpt>
<trkpt lat="-27.2744373" lon="151.2900642">
  <ele>343.09</ele>
  <time>2026-09-01T19:54:13Z</time>
  <course>1.36</course>
  <speed>0.0</speed>
  <fix>3d</fix>
</trkpt>
<trkpt lat="-27.2744375" lon="151.2900642">
  <ele>343.23</ele>
  <time>2026-09-01T19:54:13Z</time>
  <course>10.93</course>
  <speed>0.01</speed>
  <fix>3d</fix>
</trkpt>
<trkpt lat="-27.2744373" lon="151.2900642">
  <ele>343.09</ele>
  <time>2026-09-01T19:54:13Z</time>
  <course>1.36</course>
  <speed>0.0</speed>
  <fix>3d</fix>
</trkpt>
<trkpt lat="-27.2744375" lon="151.2900642">
  <ele>343.23</ele>
  <time>2026-09-01T19:54:13Z</time>
  <course>10.93</course>
  <speed>0.01</speed>
  <fix>3d</fix>
</trkpt>
<trkpt lat="-27.2744373" lon="151.2900642">
  <ele>343.09</ele>
  <time>2026-09-01T19:54:13Z</time>
  <course>2.19</course>
  <speed>0.0</speed>
  <fix>3d</fix>
</trkpt>
<trkpt lat="-27.2744375" lon="151.2900642">
  <ele>343.23</ele>
  <time>2026-09-01T19:54:13Z</time>
  <course>10.94</course>
  <speed>0.01414213562373095</speed>
  <fix>3d</fix>
</trkpt>
<trkpt lat="-27.2744373" lon="151.2900642">
  <ele>343.09</ele>
  <time>2026-09-01T19:54:13Z</time>
  <course>2.19</course>
  <speed>0.0</speed>
  <fix>3d</fix>
</trkpt>
<trkpt lat="-27.2744375" lon="151.2900642">
  <ele>343.23</ele>
  <time>2026-09-01T19:54:13Z</time>
  <course>10.94</course>
  <speed>0.01414213562373095</speed>
  <fix>3d</fix>
</trkpt>
<trkpt lat="-27.2744373" lon="151.2900642">
  <ele>343.09</ele>
  <time>2026-09-01T19:54:13Z</time>
  <course>9.37</course>
  <speed>0.0</speed>
  <fix>3d</fix>
</trkpt>
<trkpt lat="-27.2744375" lon="151.2900642">
  <ele>343.23</ele>
  <time>2026-09-01T19:54:14Z</time>
  <course>10.94</course>
  <speed>0.01414213562373095</speed>
  <fix>3d</fix>
</trkpt>
<trkpt lat="-27.2744373" lon="151.2900642">
  <ele>343.09</ele>
  <time>2026-09-01T19:54:14Z</time>
  <course>9.37</course>
  <speed>0.0</speed>
  <fix>3d</fix>
</trkpt>
<trkpt lat="-27.2744375" lon="151.2900642">
  <ele>343.23</ele>
  <time>2026-09-01T19:54:14Z</time>
  <course>10.94</course>
  <speed>0.01414213562373095</speed>
  <fix>3d</fix>
</trkpt>
<trkpt lat="-27.2744373" lon="151.2900642">
  <ele>343.09</ele>
  <time>2026-09-01T19:54:14Z</time>
  <course>11.38</course>
  <speed>0.0</speed>
  <fix>3d</fix>
</trkpt>
<trkpt lat="-27.2744375" lon="151.2900642">
  <ele>343.23</ele>
  <time>2026-09-01T19:54:14Z</time>
  <course>10.94</course>
  <speed>0.022360679774997897</speed>
  <fix>3d</fix>
</trkpt>
<trkpt lat="-27.2744373" lon="151.2900642">
  <ele>343.09</ele>
  <time>2026-09-01T19:54:14Z</time>
  <course>11.38</course>
  <speed>0.0</speed>
  <fix>3d</fix>
</trkpt>
<trkpt lat="-27.2744375" lon="151.2900642">
  <ele>343.23</ele>
  <time>2026-09-01T19:54:14Z</time>
  <course>10.94</course>
  <speed>0.01414213562373095</speed>
  <fix>3d</fix>
</trkpt>
<trkpt lat="-27.2744372" lon="151.2900642">
  <ele>343.09</ele>
  <time>2026-09-01T19:54:14Z</time>
  <course>19.29</course>
  <speed>0.0</speed>
  <fix>3d</fix>
</trkpt>
<trkpt lat="-27.2744375" lon="151.2900643">
  <ele>343.23</ele>
  <time>2026-09-01T19:54:14Z</time>
  <course>10.94</course>
  <speed>0.01414213562373095</speed>
  <fix>3d</fix>
</trkpt>
<trkpt lat="-27.2744372" lon="151.2900642">
  <ele>343.09</ele>
  <time>2026-09-01T19:54:14Z</time>
  <course>19.29</course>
  <speed>0.0</speed>
  <fix>3d</fix>
</trkpt>
<trkpt lat="-27.2744375" lon="151.2900643">
  <ele>343.23</ele>
  <time>2026-09-01T19:54:14Z</time>
  <course>10.94</course>
  <speed>0.01414213562373095</speed>
  <fix>3d</fix>
</trkpt>
<trkpt lat="-27.2744372" lon="151.2900642">
  <ele>343.09</ele>
  <time>2026-09-01T19:54:14Z</time>
  <course>28.61</course>
  <speed>0.0</speed>
  <fix>3d</fix>
</trkpt>
<trkpt lat="-27.2744374" lon="151.2900643">
  <ele>343.23</ele>
  <time>2026-09-01T19:54:14Z</time>
  <course>10.94</course>
  <speed>0.01</speed>
  <fix>3d</fix>
</trkpt>
<trkpt lat="-27.2744372" lon="151.2900642">
  <ele>343.09</ele>
  <time>2026-09-01T19:54:14Z</time>
  <course>28.61</course>
  <speed>0.0</speed>
  <fix>3d</fix>
</trkpt>
<trkpt lat="-27.2744374" lon="151.2900643">
  <ele>343.22</ele>
  <time>2026-09-01T19:54:14Z</time>
  <course>10.94</course>
  <speed>0.022360679774997897</speed>
  <fix>3d</fix>
</trkpt>
<trkpt lat="-27.2744372" lon="151.2900642">
  <ele>343.09</ele>
  <time>2026-09-01T19:54:14Z</time>
  <course>357.39</course>
  <speed>0.0</speed>
  <fix>3d</fix>
</trkpt>
<trkpt lat="-27.2744374" lon="151.2900643">
  <ele>343.22</ele>
  <time>2026-09-01T19:54:14Z</time>
  <course>10.94</course>
  <speed>0.022360679774997897</speed>
  <fix>3d</fix>
</trkpt>
<trkpt lat="-27.2744372" lon="151.2900642">
  <ele>343.09</ele>
  <time>2026-09-01T19:54:14Z</time>
  <course>357.39</course>
  <speed>0.0</speed>
  <fix>3d</fix>
</trkpt>
<trkpt lat="-27.2744374" lon="151.2900643">
  <ele>343.22</ele>
  <time>2026-09-01T19:54:14Z</time>
  <course>10.94</course>
  <speed>0.022360679774997897</speed>
  <fix>3d</fix>
</trkpt>
<trkpt lat="-27.2744372" lon="151.2900642">
  <ele>343.09</ele>
  <time>2026-09-01T19:54:14Z</time>
  <course>350.89</course>
  <speed>0.0</speed>
  <fix>3d</fix>
</trkpt>
<trkpt lat="-27.2744374" lon="151.2900643">
  <ele>343.22</ele>
  <time>2026-09-01T19:54:14Z</time>
  <course>10.94</course>
  <speed>0.02</speed>
  <fix>3d</fix>
</trkpt>
<trkpt lat="-27.2744372" lon="151.2900642">
  <ele>343.09</ele>
  <time>2026-09-01T19:54:14Z</time>
  <course>350.89</course>
  <speed>0.0</speed>
  <fix>3d</fix>
</trkpt>
<trkpt lat="-27.2744374" lon="151.2900643">
  <ele>343.22</ele>
  <time>2026-09-01T19:54:14Z</time>
  <course>10.94</course>
  <speed>0.02</speed>
  <fix>3d</fix>
</trkpt>
<trkpt lat="-27.2744372" lon="151.2900642">
  <ele>343.09</ele>
  <time>2026-09-01T19:54:14Z</time>
  <course>15.74</course>
  <speed>0.0</speed>
  <fix>3d</fix>
</trkpt>
<trkpt lat="-27.2744374" lon="151.2900643">
  <ele>343.22</ele>
  <time>2026-09-01T19:54:14Z</time>
  <course>10.94</course>
  <speed>0.022360679774997897</speed>
  <fix>3d</fix>
</trkpt>
<trkpt lat="-27.2744372" lon="151.2900642">
  <ele>343.09</ele>
  <time>2026-09-01T19:54:14Z</time>
  <course>15.74</course>
  <speed>0.0</speed>
  <fix>3d</fix>
</trkpt>
<trkpt lat="-27.2744374" lon="151.2900643">
  <ele>343.22</ele>
  <time>2026-09-01T19:54:14Z</time>
  <course>10.94</course>
  <speed>0.022360679774997897</speed>
  <fix>3d</fix>
</trkpt>
<trkpt lat="-27.2744372" lon="151.2900642">
  <ele>343.09</ele>
  <time>2026-09-01T19:54:14Z</time>
  <course>5.61</course>
  <speed>0.0</speed>
  <fix>3d</fix>
</trkpt>
<trkpt lat="-27.2744374" lon="151.2900643">
  <ele>343.22</ele>
  <time>2026-09-01T19:54:14Z</time>
  <course>10.94</course>
  <speed>0.022360679774997897</speed>
  <fix>3d</fix>
</trkpt>
<trkpt lat="-27.2744372" lon="151.2900642">
  <ele>343.09</ele>
  <time>2026-09-01T19:54:14Z</time>
  <course>5.61</course>
  <speed>0.0</speed>
  <fix>3d</fix>
</trkpt>
<trkpt lat="-27.2744374" lon="151.2900643">
  <ele>343.22</ele>
  <time>2026-09-01T19:54:14Z</time>
  <course>10.94</course>
  <speed>0.022360679774997897</speed>
  <fix>3d</fix>
</trkpt>
<trkpt lat="-27.2744372" lon="151.2900642">
  <ele>343.09</ele>
  <time>2026-09-01T19:54:14Z</time>
  <course>348.08</course>
  <speed>0.0</speed>
  <fix>3d</fix>
</trkpt>
<trkpt lat="-27.2744374" lon="151.2900643">
  <ele>343.22</ele>
  <time>2026-09-01T19:54:14Z</time>
  <course>10.94</course>
  <speed>0.022360679774997897</speed>
  <fix>3d</fix>
</trkpt>
<trkpt lat="-27.2744372" lon="151.2900642">
  <ele>343.09</ele>
  <time>2026-09-01T19:54:14Z</time>
  <course>348.08</course>
  <speed>0.0</speed>
  <fix>3d</fix>
</trkpt>
<trkpt lat="-27.2744374" lon="151.2900643">
  <ele>343.22</ele>
  <time>2026-09-01T19:54:14Z</time>
  <course>10.95</course>
  <speed>0.02</speed>
  <fix>3d</fix>
</trkpt>
<trkpt lat="-27.2744372" lon="151.2900642">
  <ele>343.09</ele>
  <time>2026-09-01T19:54:14Z</time>
  <course>5.47</course>
  <speed>0.0</speed>
  <fix>3d</fix>
</trkpt>
<trkpt lat="-27.2744374" lon="151.2900644">
  <ele>343.22</ele>
  <time>2026-09-01T19:54:14Z</time>
  <course>10.95</course>
  <speed>0.022360679774997897</speed>
  <fix>3d</fix>
</trkpt>
<trkpt lat="-27.2744372" lon="151.2900642">
  <ele>343.09</ele>
  <time>2026-09-01T19:54:14Z</time>
  <course>5.47</course>
  <speed>0.0</speed>
  <fix>3d</fix>
</trkpt>
<trkpt lat="-27.2744374" lon="151.2900644">
  <ele>343.23</ele>
  <time>2026-09-01T19:54:14Z</time>
  <course>10.95</course>
  <speed>0.022360679774997897</speed>
  <fix>3d</fix>
</trkpt>
<trkpt lat="-27.2744372" lon="151.2900642">
  <ele>343.09</ele>
  <time>2026-09-01T19:54:14Z</time>
  <course>14.61</course>
  <speed>0.0</speed>
  <fix>3d</fix>
</trkpt>
<trkpt lat="-27.2744374" lon="151.2900644">
  <ele>343.22</ele>
  <time>2026-09-01T19:54:14Z</time>
  <course>10.95</course>
  <speed>0.022360679774997897</speed>
  <fix>3d</fix>
</trkpt>
<trkpt lat="-27.2744372" lon="151.2900642">
  <ele>343.09</ele>
  <time>2026-09-01T19:54:14Z</time>
  <course>14.61</course>
  <speed>0.0</speed>
  <fix>3d</fix>
</trkpt>
<trkpt lat="-27.2744374" lon="151.2900644">
  <ele>343.22</ele>
  <time>2026-09-01T19:54:14Z</time>
  <course>10.95</course>
  <speed>0.022360679774997897</speed>
  <fix>3d</fix>
</trkpt>
<trkpt lat="-27.2744372" lon="151.2900642">
  <ele>343.09</ele>
  <time>2026-09-01T19:54:14Z</time>
  <course>12.19</course>
  <speed>0.0</speed>
  <fix>3d</fix>
</trkpt>
<trkpt lat="-27.2744374" lon="151.2900644">
  <ele>343.22</ele>
  <time>2026-09-01T19:54:14Z</time>
  <course>10.95</course>
  <speed>0.022360679774997897</speed>
  <fix>3d</fix>
</trkpt>
<trkpt lat="-27.2744372" lon="151.2900642">
  <ele>343.09</ele>
  <time>2026-09-01T19:54:14Z</time>
  <course>12.19</course>
  <speed>0.0</speed>
  <fix>3d</fix>
</trkpt>
<trkpt lat="-27.2744374" lon="151.2900644">
  <ele>343.22</ele>
  <time>2026-09-01T19:54:14Z</time>
  <course>10.95</course>
  <speed>0.022360679774997897</speed>
  <fix>3d</fix>
</trkpt>
<trkpt lat="-27.2744372" lon="151.2900642">
  <ele>343.09</ele>
  <time>2026-09-01T19:54:14Z</time>
  <course>10.69</course>
  <speed>0.0</speed>
  <fix>3d</fix>
</trkpt>
<trkpt lat="-27.2744374" lon="151.2900644">
  <ele>343.22</ele>
  <time>2026-09-01T19:54:14Z</time>
  <course>10.95</course>
  <speed>0.02</speed>
  <fix>3d</fix>
</trkpt>
<trkpt lat="-27.2744372" lon="151.2900642">
  <ele>343.09</ele>
  <time>2026-09-01T19:54:14Z</time>
  <course>10.69</course>
  <speed>0.0</speed>
  <fix>3d</fix>
</trkpt>
<trkpt lat="-27.2744373" lon="151.2900644">
  <ele>343.22</ele>
  <time>2026-09-01T19:54:14Z</time>
  <course>10.95</course>
  <speed>0.022360679774997897</speed>
  <fix>3d</fix>
</trkpt>
<trkpt lat="-27.2744371" lon="151.2900642">
  <ele>343.09</ele>
  <time>2026-09-01T19:54:14Z</time>
  <course>26.05</course>
  <speed>0.0</speed>
  <fix>3d</fix>
</trkpt>
<trkpt lat="-27.2744373" lon="151.2900644">
  <ele>343.22</ele>
  <time>2026-09-01T19:54:14Z</time>
  <course>10.96</course>
  <speed>0.022360679774997897</speed>
  <fix>3d</fix>
</trkpt>
<trkpt lat="-27.2744371" lon="151.2900642">
  <ele>343.09</ele>
  <time>2026-09-01T19:54:14Z</time>
  <course>26.05</course>
  <speed>0.0</speed>
  <fix>3d</fix>
</trkpt>
<trkpt lat="-27.2744373" lon="151.2900644">
  <ele>343.22</ele>
  <time>2026-09-01T19:54:14Z</time>
  <course>10.96</course>
  <speed>0.01414213562373095</speed>
  <fix>3d</fix>
</trkpt>
<trkpt lat="-27.2744371" lon="151.2900642">
  <ele>343.09</ele>
  <time>2026-09-01T19:54:14Z</time>
  <course>31.44</course>
  <speed>0.0</speed>
  <fix>3d</fix>
</trkpt>
<trkpt lat="-27.2744373" lon="151.2900644">
  <ele>343.22</ele>
  <time>2026-09-01T19:54:14Z</time>
  <course>10.96</course>
  <speed>0.01</speed>
  <fix>3d</fix>
</trkpt>
<trkpt lat="-27.2744371" lon="151.2900642">
  <ele>343.09</ele>
  <time>2026-09-01T19:54:14Z</time>
  <course>31.44</course>
  <speed>0.0</speed>
  <fix>3d</fix>
</trkpt>
<trkpt lat="-27.2744373" lon="151.2900644">
  <ele>343.22</ele>
  <time>2026-09-01T19:54:14Z</time>
  <course>10.96</course>
  <speed>0.01</speed>
  <fix>3d</fix>
</trkpt>
<trkpt lat="-27.2744371" lon="151.2900642">
  <ele>343.09</ele>
  <time>2026-09-01T19:54:14Z</time>
  <course>16.27</course>
  <speed>0.0</speed>
  <fix>3d</fix>
</trkpt>
<trkpt lat="-27.2744373" lon="151.2900644">
  <ele>343.22</ele>
  <time>2026-09-01T19:54:14Z</time>
  <course>10.96</course>
  <speed>0.01414213562373095</speed>
  <fix>3d</fix>
</trkpt>
<trkpt lat="-27.2744371" lon="151.2900642">
  <ele>343.09</ele>
  <time>2026-09-01T19:54:14Z</time>
  <course>16.27</course>
  <speed>0.0</speed>
  <fix>3d</fix>
</trkpt>
<trkpt lat="-27.2744373" lon="151.2900644">
  <ele>343.22</ele>
  <time>2026-09-01T19:54:14Z</time>
  <course>10.96</course>
  <speed>0.02</speed>
  <fix>3d</fix>
</trkpt>
<trkpt lat="-27.2744371" lon="151.2900642">
  <ele>343.09</ele>
  <time>2026-09-01T19:54:14Z</time>
  <course>8.85</course>
  <speed>0.0</speed>
  <fix>3d</fix>
</trkpt>
<trkpt lat="-27.2744373" lon="151.2900644">
  <ele>343.22</ele>
  <time>2026-09-01T19:54:14Z</time>
  <course>10.96</course>
  <speed>0.02</speed>
  <fix>3d</fix>
</trkpt>
<trkpt lat="-27.2744371" lon="151.2900642">
  <ele>343.09</ele>
  <time>2026-09-01T19:54:14Z</time>
  <course>8.85</course>
  <speed>0.0</speed>
  <fix>3d</fix>
</trkpt>
<trkpt lat="-27.2744373" lon="151.2900644">
  <ele>343.22</ele>
  <time>2026-09-01T19:54:14Z</time>
  <course>10.96</course>
  <speed>0.02</speed>
  <fix>3d</fix>
</trkpt>
<trkpt lat="-27.2744371" lon="151.2900642">
  <ele>343.09</ele>
  <time>2026-09-01T19:54:14Z</time>
  <course>10.27</course>
  <speed>0.0</speed>
  <fix>3d</fix>
</trkpt>
<trkpt lat="-27.2744373" lon="151.2900644">
  <ele>343.22</ele>
  <time>2026-09-01T19:54:14Z</time>
  <course>10.97</course>
  <speed>0.02</speed>
  <fix>3d</fix>
</trkpt>
<trkpt lat="-27.2744371" lon="151.2900642">
  <ele>343.09</ele>
  <time>2026-09-01T19:54:14Z</time>
  <course>10.27</course>
  <speed>0.0</speed>
  <fix>3d</fix>
</trkpt>
<trkpt lat="-27.2744373" lon="151.2900644">
  <ele>343.22</ele>
  <time>2026-09-01T19:54:14Z</time>
  <course>10.97</course>
  <speed>0.022360679774997897</speed>
  <fix>3d</fix>
</trkpt>
<trkpt lat="-27.2744371" lon="151.2900642">
  <ele>343.09</ele>
  <time>2026-09-01T19:54:14Z</time>
  <course>354.09</course>
  <speed>0.0</speed>
  <fix>3d</fix>
</trkpt>
<trkpt lat="-27.2744373" lon="151.2900644">
  <ele>343.22</ele>
  <time>2026-09-01T19:54:14Z</time>
  <course>10.97</course>
  <speed>0.02</speed>
  <fix>3d</fix>
</trkpt>
<trkpt lat="-27.2744371" lon="151.2900642">
  <ele>343.09</ele>
  <time>2026-09-01T19:54:14Z</time>
  <course>354.09</course>
  <speed>0.0</speed>
  <fix>3d</fix>
</trkpt>
<trkpt lat="-27.2744373" lon="151.2900644">
  <ele>343.22</ele>
  <time>2026-09-01T19:54:14Z</time>
  <course>10.97</course>
  <speed>0.022360679774997897</speed>
  <fix>3d</fix>
</trkpt>
<trkpt lat="-27.2744371" lon="151.2900642">
  <ele>343.09</ele>
  <time>2026-09-01T19:54:14Z</time>
  <course>351.71</course>
  <speed>0.0</speed>
  <fix>3d</fix>
</trkpt>
<trkpt lat="-27.2744373" lon="151.2900644">
  <ele>343.22</ele>
  <time>2026-09-01T19:54:14Z</time>
  <course>10.97</course>
  <speed>0.0412310562561766</speed>
  <fix>3d</fix>
</trkpt>
<trkpt lat="-27.2744371" lon="151.2900642">
  <ele>343.09</ele>
  <time>2026-09-01T19:54:14Z</time>
  <course>351.71</course>
  <speed>0.0</speed>
  <fix>3d</fix>
</trkpt>
<trkpt lat="-27.2744373" lon="151.2900643">
  <ele>343.22</ele>
  <time>2026-09-01T19:54:14Z</time>
  <course>10.97</course>
  <speed>0.07</speed>
  <fix>3d</fix>
</trkpt>
<trkpt lat="-27.2744371" lon="151.2900642">
  <ele>343.09</ele>
  <time>2026-09-01T19:54:14Z</time>
  <course>185.81</course>
  <speed>0.01</speed>
  <fix>3d</fix>
</trkpt>
<trkpt lat="-27.2744373" lon="151.2900643">
  <ele>343.22</ele>
  <time>2026-09-01T19:54:14Z</time>
  <course>10.97</course>
  <speed>0.08</speed>
  <fix>3d</fix>
</trkpt>
<trkpt lat="-27.2744371" lon="151.2900642">
  <ele>343.09</ele>
  <time>2026-09-01T19:54:14Z</time>
  <course>185.81</course>
  <speed>0.01</speed>
  <fix>3d</fix>
</trkpt>
<trkpt lat="-27.2744373" lon="151.2900643">
  <ele>343.22</ele>
  <time>2026-09-01T19:54:14Z</time>
  <course>10.97</course>
  <speed>0.07</speed>
  <fix>3d</fix>
</trkpt>
<trkpt lat="-27.2744371" lon="151.2900642">
  <ele>343.09</ele>
  <time>2026-09-01T19:54:14Z</time>
  <course>187.35</course>
  <speed>0.05</speed>
  <fix>3d</fix>
</trkpt>
<trkpt lat="-27.2744374" lon="151.2900643">
  <ele>343.22</ele>
  <time>2026-09-01T19:54:14Z</time>
  <course>10.97</course>
  <speed>0.07071067811865475</speed>
  <fix>3d</fix>
</trkpt>
<trkpt lat="-27.2744371" lon="151.2900642">
  <ele>343.09</ele>
  <time>2026-09-01T19:54:14Z</time>
  <course>187.35</course>
  <speed>0.05</speed>
  <fix>3d</fix>
</trkpt>
<trkpt lat="-27.2744374" lon="151.2900643">
  <ele>343.21</ele>
  <time>2026-09-01T19:54:14Z</time>
  <course>10.97</course>
  <speed>0.06082762530298219</speed>
  <fix>3d</fix>
</trkpt>
<trkpt lat="-27.2744372" lon="151.2900642">
  <ele>343.09</ele>
  <time>2026-09-01T19:54:14Z</time>
  <course>188.69</course>
  <speed>0.06</speed>
  <fix>3d</fix>
</trkpt>
<trkpt lat="-27.2744375" lon="151.2900643">
  <ele>343.21</ele>
  <time>2026-09-01T19:54:14Z</time>
  <course>10.97</course>
  <speed>0.06082762530298219</speed>
  <fix>3d</fix>
</trkpt>
<trkpt lat="-27.2744372" lon="151.2900642">
  <ele>343.09</ele>
  <time>2026-09-01T19:54:14Z</time>
  <course>188.69</course>
  <speed>0.06</speed>
  <fix>3d</fix>
</trkpt>
<trkpt lat="-27.2744375" lon="151.2900643">
  <ele>343.21</ele>
  <time>2026-09-01T19:54:14Z</time>
  <course>10.97</course>
  <speed>0.07071067811865475</speed>
  <fix>3d</fix>
</trkpt>
<trkpt lat="-27.2744373" lon="151.2900642">
  <ele>343.09</ele>
  <time>2026-09-01T19:54:14Z</time>
  <course>188.49</course>
  <speed>0.05</speed>
  <fix>3d</fix>
</trkpt>
<trkpt lat="-27.2744376" lon="151.2900643">
  <ele>343.22</ele>
  <time>2026-09-01T19:54:14Z</time>
  <course>10.98</course>
  <speed>0.07071067811865475</speed>
  <fix>3d</fix>
</trkpt>
<trkpt lat="-27.2744373" lon="151.2900642">
  <ele>343.09</ele>
  <time>2026-09-01T19:54:14Z</time>
  <course>188.49</course>
  <speed>0.05</speed>
  <fix>3d</fix>
</trkpt>
<trkpt lat="-27.2744376" lon="151.2900643">
  <ele>343.22</ele>
  <time>2026-09-01T19:54:14Z</time>
  <course>10.98</course>
  <speed>0.06082762530298219</speed>
  <fix>3d</fix>
</trkpt>
<trkpt lat="-27.2744374" lon="151.2900642">
  <ele>343.09</ele>
  <time>2026-09-01T19:54:14Z</time>
  <course>187.44</course>
  <speed>0.05</speed>
  <fix>3d</fix>
</trkpt>
<trkpt lat="-27.2744376" lon="151.2900643">
  <ele>343.22</ele>
  <time>2026-09-01T19:54:14Z</time>
  <course>10.98</course>
  <speed>0.022360679774997897</speed>
  <fix>3d</fix>
</trkpt>
<trkpt lat="-27.2744374" lon="151.2900642">
  <ele>343.09</ele>
  <time>2026-09-01T19:54:14Z</time>
  <course>187.44</course>
  <speed>0.05</speed>
  <fix>3d</fix>
</trkpt>
<trkpt lat="-27.2744376" lon="151.2900643">
  <ele>343.22</ele>
  <time>2026-09-01T19:54:14Z</time>
  <course>10.98</course>
  <speed>0.02</speed>
  <fix>3d</fix>
</trkpt>
<trkpt lat="-27.2744375" lon="151.2900642">
  <ele>343.09</ele>
  <time>2026-09-01T19:54:14Z</time>
  <course>187.82</course>
  <speed>0.03</speed>
  <fix>3d</fix>
</trkpt>
<trkpt lat="-27.2744376" lon="151.2900643">
  <ele>343.22</ele>
  <time>2026-09-01T19:54:14Z</time>
  <course>10.98</course>
  <speed>0.02</speed>
  <fix>3d</fix>
</trkpt>
<trkpt lat="-27.2744375" lon="151.2900642">
  <ele>343.09</ele>
  <time>2026-09-01T19:54:14Z</time>
  <course>187.82</course>
  <speed>0.03</speed>
  <fix>3d</fix>
</trkpt>
<trkpt lat="-27.2744376" lon="151.2900643">
  <ele>343.23</ele>
  <time>2026-09-01T19:54:14Z</time>
  <course>10.98</course>
  <speed>0.02</speed>
  <fix>3d</fix>
</trkpt>
<trkpt lat="-27.2744376" lon="151.2900642">
  <ele>343.09</ele>
  <time>2026-09-01T19:54:14Z</time>
  <course>191.06</course>
  <speed>0.0</speed>
  <fix>3d</fix>
</trkpt>
<trkpt lat="-27.2744376" lon="151.2900643">
  <ele>343.23</ele>
  <time>2026-09-01T19:54:14Z</time>
  <course>10.98</course>
  <speed>0.022360679774997897</speed>
  <fix>3d</fix>
</trkpt>
<trkpt lat="-27.2744376" lon="151.2900642">
  <ele>343.09</ele>
  <time>2026-09-01T19:54:14Z</time>
  <course>191.06</course>
  <speed>0.0</speed>
  <fix>3d</fix>
</trkpt>
<trkpt lat="-27.2744376" lon="151.2900643">
  <ele>343.23</ele>
  <time>2026-09-01T19:54:14Z</time>
  <course>10.98</course>
  <speed>0.01414213562373095</speed>
  <fix>3d</fix>
</trkpt>
<trkpt lat="-27.2744376" lon="151.2900642">
  <ele>343.09</ele>
  <time>2026-09-01T19:54:14Z</time>
  <course>8.14</course>
  <speed>0.0</speed>
  <fix>3d</fix>
</trkpt>
<trkpt lat="-27.2744376" lon="151.2900643">
  <ele>343.23</ele>
  <time>2026-09-01T19:54:14Z</time>
  <course>10.99</course>
  <speed>0.01414213562373095</speed>
  <fix>3d</fix>
</trkpt>
<trkpt lat="-27.2744376" lon="151.2900642">
  <ele>343.09</ele>
  <time>2026-09-01T19:54:14Z</time>
  <course>8.14</course>
  <speed>0.0</speed>
  <fix>3d</fix>
</trkpt>
<trkpt lat="-27.2744376" lon="151.2900643">
  <ele>343.23</ele>
  <time>2026-09-01T19:54:14Z</time>
  <course>10.99</course>
  <speed>0.01414213562373095</speed>
  <fix>3d</fix>
</trkpt>
<trkpt lat="-27.2744376" lon="151.2900642">
  <ele>343.09</ele>
  <time>2026-09-01T19:54:14Z</time>
  <course>174.73</course>
  <speed>0.0</speed>
  <fix>3d</fix>
</trkpt>
<trkpt lat="-27.2744376" lon="151.2900643">
  <ele>343.23</ele>
  <time>2026-09-01T19:54:14Z</time>
  <course>10.99</course>
  <speed>0.01414213562373095</speed>
  <fix>3d</fix>
</trkpt>
<trkpt lat="-27.2744376" lon="151.2900642">
  <ele>343.09</ele>
  <time>2026-09-01T19:54:14Z</time>
  <course>174.73</course>
  <speed>0.0</speed>
  <fix>3d</fix>
</trkpt>
<trkpt lat="-27.2744376" lon="151.2900643">
  <ele>343.22</ele>
  <time>2026-09-01T19:54:14Z</time>
  <course>10.99</course>
  <speed>0.01414213562373095</speed>
  <fix>3d</fix>
</trkpt>
<trkpt lat="-27.2744376" lon="151.2900642">
  <ele>343.09</ele>
  <time>2026-09-01T19:54:14Z</time>
  <course>188.1</course>
  <speed>0.0</speed>
  <fix>3d</fix>
</trkpt>
<trkpt lat="-27.2744377" lon="151.2900643">
  <ele>343.22</ele>
  <time>2026-09-01T19:54:14Z</time>
  <course>10.99</course>
  <speed>0.01414213562373095</speed>
  <fix>3d</fix>
</trkpt>
<trkpt lat="-27.2744376" lon="151.2900642">
  <ele>343.09</ele>
  <time>2026-09-01T19:54:14Z</time>
  <course>188.1</course>
  <speed>0.0</speed>
  <fix>3d</fix>
</trkpt>
<trkpt lat="-27.2744377" lon="151.2900643">
  <ele>343.22</ele>
  <time>2026-09-01T19:54:14Z</time>
  <course>10.99</course>
  <speed>0.01414213562373095</speed>
  <fix>3d</fix>
</trkpt>
<trkpt lat="-27.2744376" lon="151.2900642">
  <ele>343.09</ele>
  <time>2026-09-01T19:54:14Z</time>
  <course>11.96</course>
  <speed>0.0</speed>
  <fix>3d</fix>
</trkpt>
<trkpt lat="-27.2744377" lon="151.2900643">
  <ele>343.22</ele>
  <time>2026-09-01T19:54:14Z</time>
  <course>10.99</course>
  <speed>0.022360679774997897</speed>
  <fix>3d</fix>
</trkpt>
<trkpt lat="-27.2744376" lon="151.2900642">
  <ele>343.09</ele>
  <time>2026-09-01T19:54:14Z</time>
  <course>11.96</course>
  <speed>0.0</speed>
  <fix>3d</fix>
</trkpt>
<trkpt lat="-27.2744377" lon="151.2900643">
  <ele>343.22</ele>
  <time>2026-09-01T19:54:14Z</time>
  <course>10.99</course>
  <speed>0.022360679774997897</speed>
  <fix>3d</fix>
</trkpt>
<trkpt lat="-27.2744376" lon="151.2900642">
  <ele>343.09</ele>
  <time>2026-09-01T19:54:14Z</time>
  <course>8.05</course>
  <speed>0.0</speed>
  <fix>3d</fix>
</trkpt>
<trkpt lat="-27.2744377" lon="151.2900643">
  <ele>343.22</ele>
  <time>2026-09-01T19:54:14Z</time>
  <course>10.99</course>
  <speed>0.022360679774997897</speed>
  <fix>3d</fix>
</trkpt>
<trkpt lat="-27.2744376" lon="151.2900642">
  <ele>343.09</ele>
  <time>2026-09-01T19:54:14Z</time>
  <course>8.05</course>
  <speed>0.0</speed>
  <fix>3d</fix>
</trkpt>
<trkpt lat="-27.2744377" lon="151.2900643">
  <ele>343.21</ele>
  <time>2026-09-01T19:54:14Z</time>
  <course>10.99</course>
  <speed>0.022360679774997897</speed>
  <fix>3d</fix>
</trkpt>
<trkpt lat="-27.2744376" lon="151.2900642">
  <ele>343.09</ele>
  <time>2026-09-01T19:54:14Z</time>
  <course>188.14</course>
  <speed>0.0</speed>
  <fix>3d</fix>
</trkpt>
<trkpt lat="-27.2744377" lon="151.2900643">
  <ele>343.21</ele>
  <time>2026-09-01T19:54:14Z</time>
  <course>11.0</course>
  <speed>0.022360679774997897</speed>
  <fix>3d</fix>
</trkpt>
<trkpt lat="-27.2744376" lon="151.2900642">
  <ele>343.09</ele>
  <time>2026-09-01T19:54:14Z</time>
  <course>188.14</course>
  <speed>0.0</speed>
  <fix>3d</fix>
</trkpt>
<trkpt lat="-27.2744377" lon="151.2900643">
  <ele>343.21</ele>
  <time>2026-09-01T19:54:14Z</time>
  <course>11.0</course>
  <speed>0.022360679774997897</speed>
  <fix>3d</fix>
</trkpt>
<trkpt lat="-27.2744376" lon="151.2900642">
  <ele>343.09</ele>
  <time>2026-09-01T19:54:14Z</time>
  <course>187.8</course>
  <speed>0.0</speed>
  <fix>3d</fix>
</trkpt>
<trkpt lat="-27.2744377" lon="151.2900643">
  <ele>343.21</ele>
  <time>2026-09-01T19:54:14Z</time>
  <course>11.0</course>
  <speed>0.022360679774997897</speed>
  <fix>3d</fix>
</trkpt>
<trkpt lat="-27.2744376" lon="151.2900642">
  <ele>343.09</ele>
  <time>2026-09-01T19:54:14Z</time>
  <course>187.8</course>
  <speed>0.0</speed>
  <fix>3d</fix>
</trkpt>
<trkpt lat="-27.2744377" lon="151.2900643">
  <ele>343.21</ele>
  <time>2026-09-01T19:54:14Z</time>
  <course>11.0</course>
  <speed>0.022360679774997897</speed>
  <fix>3d</fix>
</trkpt>
<trkpt lat="-27.2744376" lon="151.2900642">
  <ele>343.09</ele>
  <time>2026-09-01T19:54:14Z</time>
  <course>188.96</course>
  <speed>0.0</speed>
  <fix>3d</fix>
</trkpt>
<trkpt lat="-27.2744377" lon="151.2900643">
  <ele>343.21</ele>
  <time>2026-09-01T19:54:14Z</time>
  <course>11.0</course>
  <speed>0.022360679774997897</speed>
  <fix>3d</fix>
</trkpt>
<trkpt lat="-27.2744376" lon="151.2900642">
  <ele>343.09</ele>
  <time>2026-09-01T19:54:14Z</time>
  <course>188.96</course>
  <speed>0.0</speed>
  <fix>3d</fix>
</trkpt>
<trkpt lat="-27.2744377" lon="151.2900643">
  <ele>343.2</ele>
  <time>2026-09-01T19:54:14Z</time>
  <course>11.0</course>
  <speed>0.022360679774997897</speed>
  <fix>3d</fix>
</trkpt>
<trkpt lat="-27.2744376" lon="151.2900642">
  <ele>343.09</ele>
  <time>2026-09-01T19:54:14Z</time>
  <course>7.86</course>
  <speed>0.0</speed>
  <fix>3d</fix>
</trkpt>
<trkpt lat="-27.2744377" lon="151.2900643">
  <ele>343.2</ele>
  <time>2026-09-01T19:54:14Z</time>
  <course>11.0</course>
  <speed>0.022360679774997897</speed>
  <fix>3d</fix>
</trkpt>
<trkpt lat="-27.2744376" lon="151.2900642">
  <ele>343.09</ele>
  <time>2026-09-01T19:54:14Z</time>
  <course>7.86</course>
  <speed>0.0</speed>
  <fix>3d</fix>
</trkpt>
<trkpt lat="-27.2744377" lon="151.2900643">
  <ele>343.2</ele>
  <time>2026-09-01T19:54:14Z</time>
  <course>11.0</course>
  <speed>0.022360679774997897</speed>
  <fix>3d</fix>
</trkpt>
<trkpt lat="-27.2744376" lon="151.2900642">
  <ele>343.09</ele>
  <time>2026-09-01T19:54:14Z</time>
  <course>186.88</course>
  <speed>0.0</speed>
  <fix>3d</fix>
</trkpt>
<trkpt lat="-27.2744377" lon="151.2900643">
  <ele>343.2</ele>
  <time>2026-09-01T19:54:14Z</time>
  <course>11.0</course>
  <speed>0.022360679774997897</speed>
  <fix>3d</fix>
</trkpt>
<trkpt lat="-27.2744376" lon="151.2900642">
  <ele>343.09</ele>
  <time>2026-09-01T19:54:14Z</time>
  <course>186.88</course>
  <speed>0.0</speed>
  <fix>3d</fix>
</trkpt>
<trkpt lat="-27.2744377" lon="151.2900643">
  <ele>343.2</ele>
  <time>2026-09-01T19:54:14Z</time>
  <course>11.0</course>
  <speed>0.022360679774997897</speed>
  <fix>3d</fix>
</trkpt>
<trkpt lat="-27.2744376" lon="151.2900642">
  <ele>343.09</ele>
  <time>2026-09-01T19:54:14Z</time>
  <course>187.91</course>
  <speed>0.0</speed>
  <fix>3d</fix>
</trkpt>
<trkpt lat="-27.2744377" lon="151.2900643">
  <ele>343.2</ele>
  <time>2026-09-01T19:54:14Z</time>
  <course>11.01</course>
  <speed>0.022360679774997897</speed>
  <fix>3d</fix>
</trkpt>
<trkpt lat="-27.2744376" lon="151.2900642">
  <ele>343.09</ele>
  <time>2026-09-01T19:54:14Z</time>
  <course>187.91</course>
  <speed>0.0</speed>
  <fix>3d</fix>
</trkpt>
<trkpt lat="-27.2744377" lon="151.2900643">
  <ele>343.2</ele>
  <time>2026-09-01T19:54:14Z</time>
  <course>11.01</course>
  <speed>0.022360679774997897</speed>
  <fix>3d</fix>
</trkpt>
<trkpt lat="-27.2744376" lon="151.2900642">
  <ele>343.09</ele>
  <time>2026-09-01T19:54:14Z</time>
  <course>7.54</course>
  <speed>0.0</speed>
  <fix>3d</fix>
</trkpt>
<trkpt lat="-27.2744378" lon="151.2900643">
  <ele>343.2</ele>
  <time>2026-09-01T19:54:14Z</time>
  <course>11.01</course>
  <speed>0.022360679774997897</speed>
  <fix>3d</fix>
</trkpt>
<trkpt lat="-27.2744376" lon="151.2900642">
  <ele>343.09</ele>
  <time>2026-09-01T19:54:14Z</time>
  <course>7.54</course>
  <speed>0.0</speed>
  <fix>3d</fix>
</trkpt>
<trkpt lat="-27.2744378" lon="151.2900643">
  <ele>343.08</ele>
  <time>2026-09-01T19:54:14Z</time>
  <course>11.01</course>
  <speed>0.02</speed>
  <fix>3d</fix>
</trkpt>
<trkpt lat="-27.2744376" lon="151.2900642">
  <ele>343.09</ele>
  <time>2026-09-01T19:54:14Z</time>
  <course>7.99</course>
  <speed>0.0</speed>
  <fix>3d</fix>
</trkpt>
<trkpt lat="-27.2744378" lon="151.2900643">
  <ele>343.08</ele>
  <time>2026-09-01T19:54:14Z</time>
  <course>11.01</course>
  <speed>0.02</speed>
  <fix>3d</fix>
</trkpt>
<trkpt lat="-27.2744376" lon="151.2900642">
  <ele>343.09</ele>
  <time>2026-09-01T19:54:14Z</time>
  <course>7.99</course>
  <speed>0.0</speed>
  <fix>3d</fix>
</trkpt>
<trkpt lat="-27.2744378" lon="151.2900643">
  <ele>343.08</ele>
  <time>2026-09-01T19:54:14Z</time>
  <course>11.01</course>
  <speed>0.02</speed>
  <fix>3d</fix>
</trkpt>
<trkpt lat="-27.2744376" lon="151.2900642">
  <ele>343.09</ele>
  <time>2026-09-01T19:54:14Z</time>
  <course>187.7</course>
  <speed>0.0</speed>
  <fix>3d</fix>
</trkpt>
<trkpt lat="-27.2744378" lon="151.2900643">
  <ele>343.08</ele>
  <time>2026-09-01T19:54:14Z</time>
  <course>11.01</course>
  <speed>0.02</speed>
  <fix>3d</fix>
</trkpt>
<trkpt lat="-27.2744376" lon="151.2900642">
  <ele>343.09</ele>
  <time>2026-09-01T19:54:14Z</time>
  <course>187.7</course>
  <speed>0.0</speed>
  <fix>3d</fix>
</trkpt>
<trkpt lat="-27.2744378" lon="151.2900643">
  <ele>343.09</ele>
  <time>2026-09-01T19:54:14Z</time>
  <course>11.01</course>
  <speed>0.02</speed>
  <fix>3d</fix>
</trkpt>
<trkpt lat="-27.2744376" lon="151.2900642">
  <ele>343.09</ele>
  <time>2026-09-01T19:54:14Z</time>
  <course>188.12</course>
  <speed>0.0</speed>
  <fix>3d</fix>
</trkpt>
<trkpt lat="-27.2744378" lon="151.2900643">
  <ele>343.09</ele>
  <time>2026-09-01T19:54:14Z</time>
  <course>11.01</course>
  <speed>0.02</speed>
  <fix>3d</fix>
</trkpt>
<trkpt lat="-27.2744376" lon="151.2900642">
  <ele>343.09</ele>
  <time>2026-09-01T19:54:14Z</time>
  <course>188.12</course>
  <speed>0.0</speed>
  <fix>3d</fix>
</trkpt>
<trkpt lat="-27.2744378" lon="151.2900643">
  <ele>343.09</ele>
  <time>2026-09-01T19:54:14Z</time>
  <course>11.02</course>
  <speed>0.02</speed>
  <fix>3d</fix>
</trkpt>
<trkpt lat="-27.2744376" lon="151.2900642">
  <ele>343.09</ele>
  <time>2026-09-01T19:54:14Z</time>
  <course>7.78</course>
  <speed>0.0</speed>
  <fix>3d</fix>
</trkpt>
<trkpt lat="-27.2744378" lon="151.2900643">
  <ele>343.09</ele>
  <time>2026-09-01T19:54:14Z</time>
  <course>11.02</course>
  <speed>0.02</speed>
  <fix>3d</fix>
</trkpt>
<trkpt lat="-27.2744376" lon="151.2900642">
  <ele>343.09</ele>
  <time>2026-09-01T19:54:14Z</time>
  <course>7.78</course>
  <speed>0.0</speed>
  <fix>3d</fix>
</trkpt>
<trkpt lat="-27.2744378" lon="151.2900643">
  <ele>343.09</ele>
  <time>2026-09-01T19:54:14Z</time>
  <course>11.02</course>
  <speed>0.02</speed>
  <fix>3d</fix>
</trkpt>
<trkpt lat="-27.2744376" lon="151.2900642">
  <ele>343.09</ele>
  <time>2026-09-01T19:54:14Z</time>
  <course>8.53</course>
  <speed>0.0</speed>
  <fix>3d</fix>
</trkpt>
<trkpt lat="-27.2744378" lon="151.2900643">
  <ele>343.1</ele>
  <time>2026-09-01T19:54:14Z</time>
  <course>11.02</course>
  <speed>0.02</speed>
  <fix>3d</fix>
</trkpt>
<trkpt lat="-27.2744376" lon="151.2900642">
  <ele>343.09</ele>
  <time>2026-09-01T19:54:14Z</time>
  <course>8.53</course>
  <speed>0.0</speed>
  <fix>3d</fix>
</trkpt>
<trkpt lat="-27.2744378" lon="151.2900643">
  <ele>343.1</ele>
  <time>2026-09-01T19:54:14Z</time>
  <course>11.02</course>
  <speed>0.02</speed>
  <fix>3d</fix>
</trkpt>
<trkpt lat="-27.2744376" lon="151.2900642">
  <ele>343.09</ele>
  <time>2026-09-01T19:54:14Z</time>
  <course>187.84</course>
  <speed>0.0</speed>
  <fix>3d</fix>
</trkpt>
<trkpt lat="-27.2744378" lon="151.2900643">
  <ele>343.11</ele>
  <time>2026-09-01T19:54:14Z</time>
  <course>11.02</course>
  <speed>0.02</speed>
  <fix>3d</fix>
</trkpt>
<trkpt lat="-27.2744376" lon="151.2900642">
  <ele>343.09</ele>
  <time>2026-09-01T19:54:14Z</time>
  <course>187.84</course>
  <speed>0.0</speed>
  <fix>3d</fix>
</trkpt>
<trkpt lat="-27.2744378" lon="151.2900643">
  <ele>343.11</ele>
  <time>2026-09-01T19:54:14Z</time>
  <course>11.02</course>
  <speed>0.02</speed>
  <fix>3d</fix>
</trkpt>
<trkpt lat="-27.2744376" lon="151.2900642">
  <ele>343.09</ele>
  <time>2026-09-01T19:54:14Z</time>
  <course>5.63</course>
  <speed>0.0</speed>
  <fix>3d</fix>
</trkpt>
<trkpt lat="-27.2744378" lon="151.2900643">
  <ele>343.12</ele>
  <time>2026-09-01T19:54:14Z</time>
  <course>11.02</course>
  <speed>0.02</speed>
  <fix>3d</fix>
</trkpt>
<trkpt lat="-27.2744376" lon="151.2900642">
  <ele>343.09</ele>
  <time>2026-09-01T19:54:14Z</time>
  <course>5.63</course>
  <speed>0.0</speed>
  <fix>3d</fix>
</trkpt>
<trkpt lat="-27.2744377" lon="151.2900643">
  <ele>343.13</ele>
  <time>2026-09-01T19:54:14Z</time>
  <course>11.03</course>
  <speed>0.02</speed>
  <fix>3d</fix>
</trkpt>
<trkpt lat="-27.2744376" lon="151.2900642">
  <ele>343.09</ele>
  <time>2026-09-01T19:54:14Z</time>
  <course>7.9</course>
  <speed>0.0</speed>
  <fix>3d</fix>
</trkpt>
<trkpt lat="-27.2744377" lon="151.2900643">
  <ele>343.13</ele>
  <time>2026-09-01T19:54:14Z</time>
  <course>11.03</course>
  <speed>0.02</speed>
  <fix>3d</fix>
</trkpt>
<trkpt lat="-27.2744376" lon="151.2900642">
  <ele>343.09</ele>
  <time>2026-09-01T19:54:14Z</time>
  <course>7.9</course>
  <speed>0.0</speed>
  <fix>3d</fix>
</trkpt>
<trkpt lat="-27.2744377" lon="151.2900643">
  <ele>343.14</ele>
  <time>2026-09-01T19:54:14Z</time>
  <course>11.03</course>
  <speed>0.02</speed>
  <fix>3d</fix>
</trkpt>
<trkpt lat="-27.2744376" lon="151.2900642">
  <ele>343.09</ele>
  <time>2026-09-01T19:54:14Z</time>
  <course>187.45</course>
  <speed>0.0</speed>
  <fix>3d</fix>
</trkpt>
<trkpt lat="-26.9720619" lon="149.6127921">
  <ele>339.29</ele>
  <time>2026-09-01T19:54:14Z</time>
  <course>187.01</course>
  <speed>0.0</speed>
  <fix>3d</fix>
</trkpt>
<trkpt lat="-26.9720619" lon="149.6127921">
  <ele>339.29</ele>
  <time>2026-09-01T19:54:14Z</time>
  <course>187.01</course>
  <speed>0.0</speed>
  <fix>3d</fix>
</trkpt>
<trkpt lat="-27.274439" lon="151.290064">
  <ele>-0.01</ele>
  <time>2026-09-01T19:54:14Z</time>
  <course>0.18</course>
  <speed>0.0</speed>
  <fix>3d</fix>
</trkpt>
<trkpt lat="-27.274439" lon="151.290064">
  <ele>343.1</ele>
  <time>2026-09-01T19:54:14Z</time>
  <course>192.9</course>
  <speed>0.0</speed>
  <fix>3d</fix>
</trkpt>
<trkpt lat="-27.274439" lon="151.290064">
  <ele>0.02</ele>
  <time>2026-09-01T19:54:14Z</time>
  <course>1.16</course>
  <speed>0.0</speed>
  <fix>3d</fix>
</trkpt>
<trkpt lat="-27.274439" lon="151.290064">
  <ele>343.1</ele>
  <time>2026-09-01T19:54:14Z</time>
  <course>192.9</course>
  <speed>0.0</speed>
  <fix>3d</fix>
</trkpt>
<trkpt lat="-27.274439" lon="151.290064">
  <ele>-0.08</ele>
  <time>2026-09-01T19:54:14Z</time>
  <course>2.06</course>
  <speed>0.0</speed>
  <fix>3d</fix>
</trkpt>
<trkpt lat="-27.274439" lon="151.290064">
  <ele>343.1</ele>
  <time>2026-09-01T19:54:14Z</time>
  <course>282.8</course>
  <speed>0.0</speed>
  <fix>3d</fix>
</trkpt>
<trkpt lat="-27.274439" lon="151.290064">
  <ele>0.22</ele>
  <time>2026-09-01T19:54:14Z</time>
  <course>2.88</course>
  <speed>0.0</speed>
  <fix>3d</fix>
</trkpt>
<trkpt lat="-27.274439" lon="151.290064">
  <ele>343.1</ele>
  <time>2026-09-01T19:54:14Z</time>
  <course>282.8</course>
  <speed>0.0</speed>
  <fix>3d</fix>
</trkpt>
<trkpt lat="-27.274439" lon="151.290064">
  <ele>0.09</ele>
  <time>2026-09-01T19:54:14Z</time>
  <course>3.62</course>
  <speed>0.0</speed>
  <fix>3d</fix>
</trkpt>
<trkpt lat="-27.274439" lon="151.290064">
  <ele>343.1</ele>
  <time>2026-09-01T19:54:14Z</time>
  <course>2.7</course>
  <speed>0.0</speed>
  <fix>3d</fix>
</trkpt>
<trkpt lat="-27.274439" lon="151.290064">
  <ele>0.08</ele>
  <time>2026-09-01T19:54:14Z</time>
  <course>4.3</course>
  <speed>0.0</speed>
  <fix>3d</fix>
</trkpt>
<trkpt lat="-27.274439" lon="151.290064">
  <ele>343.1</ele>
  <time>2026-09-01T19:54:14Z</time>
  <course>2.7</course>
  <speed>0.0</speed>
  <fix>3d</fix>
</trkpt>
<trkpt lat="-27.274439" lon="151.290064">
  <ele>0.09</ele>
  <time>2026-09-01T19:54:14Z</time>
  <course>4.9</course>
  <speed>0.0</speed>
  <fix>3d</fix>
</trkpt>
<trkpt lat="-27.274439" lon="151.290064">
  <ele>343.1</ele>
  <time>2026-09-01T19:54:14Z</time>
  <course>358.09</course>
  <speed>0.0</speed>
  <fix>3d</fix>
</trkpt>
<trkpt lat="-27.274439" lon="151.290064">
  <ele>-0.05</ele>
  <time>2026-09-01T19:54:14Z</time>
  <course>5.45</course>
  <speed>0.0</speed>
  <fix>3d</fix>
</trkpt>
<trkpt lat="-27.274439" lon="151.290064">
  <ele>343.1</ele>
  <time>2026-09-01T19:54:14Z</time>
  <course>358.09</course>
  <speed>0.0</speed>
  <fix>3d</fix>
</trkpt>
<trkpt lat="-27.274439" lon="151.290064">
  <ele>343.06</ele>
  <time>2026-09-01T19:54:14Z</time>
  <course>5.93</course>
  <speed>0.0</speed>
  <fix>3d</fix>
</trkpt>
<trkpt lat="-27.274439" lon="151.290064">
  <ele>343.1</ele>
  <time>2026-09-01T19:54:14Z</time>
  <course>6.41</course>
  <speed>0.0</speed>
  <fix>3d</fix>
</trkpt>
<trkpt lat="-27.274439" lon="151.290064">
  <ele>343.18</ele>
  <time>2026-09-01T19:54:14Z</time>
  <course>6.38</course>
  <speed>0.0</speed>
  <fix>3d</fix>
</trkpt>
<trkpt lat="-27.274439" lon="151.290064">
  <ele>343.1</ele>
  <time>2026-09-01T19:54:14Z</time>
  <course>359.2</course>
  <speed>0.0</speed>
  <fix>3d</fix>
</trkpt>
<trkpt lat="-27.274439" lon="151.290064">
  <ele>342.91</ele>
  <time>2026-09-01T19:54:14Z</time>
  <course>6.8</course>
  <speed>0.0</speed>
  <fix>3d</fix>
</trkpt>
<trkpt lat="-27.274439" lon="151.290064">
  <ele>343.1</ele>
  <time>2026-09-01T19:54:14Z</time>
  <course>359.2</course>
  <speed>0.0</speed>
  <fix>3d</fix>
</trkpt>
<trkpt lat="-27.274439" lon="151.290064">
  <ele>343.06</ele>
  <time>2026-09-01T19:54:14Z</time>
  <course>7.17</course>
  <speed>0.0</speed>
  <fix>3d</fix>
</trkpt>
<trkpt lat="-27.274439" lon="151.290064">
  <ele>343.1</ele>
  <time>2026-09-01T19:54:14Z</time>
  <course>359.2</course>
  <speed>0.0</speed>
  <fix>3d</fix>
</trkpt>
<trkpt lat="-27.274439" lon="151.290064">
  <ele>343.13</ele>
  <time>2026-09-01T19:54:14Z</time>
  <course>7.51</course>
  <speed>0.0</speed>
  <fix>3d</fix>
</trkpt>
<trkpt lat="-27.274439" lon="151.290064">
  <ele>343.1</ele>
  <time>2026-09-01T19:54:14Z</time>
  <course>344.83</course>
  <speed>0.0</speed>
  <fix>3d</fix>
</trkpt>
<trkpt lat="-27.274439" lon="151.290064">
  <ele>343.04</ele>
  <time>2026-09-01T19:54:14Z</time>
  <course>7.81</course>
  <speed>0.0</speed>
  <fix>3d</fix>
</trkpt>
<trkpt lat="-27.274439" lon="151.290064">
  <ele>343.1</ele>
  <time>2026-09-01T19:54:14Z</time>
  <course>344.83</course>
  <speed>0.0</speed>
  <fix>3d</fix>
</trkpt>
<trkpt lat="-27.274439" lon="151.290064">
  <ele>342.88</ele>
  <time>2026-09-01T19:54:14Z</time>
  <course>8.09</course>
  <speed>0.0</speed>
  <fix>3d</fix>
</trkpt>
<trkpt lat="-27.274439" lon="151.290064">
  <ele>343.1</ele>
  <time>2026-09-01T19:54:14Z</time>
  <course>14.37</course>
  <speed>0.0</speed>
  <fix>3d</fix>
</trkpt>
<trkpt lat="-27.274439" lon="151.290064">
  <ele>343.02</ele>
  <time>2026-09-01T19:54:14Z</time>
  <course>8.34</course>
  <speed>0.0</speed>
  <fix>3d</fix>
</trkpt>
<trkpt lat="-27.274439" lon="151.290064">
  <ele>343.1</ele>
  <time>2026-09-01T19:54:14Z</time>
  <course>14.37</course>
  <speed>0.0</speed>
  <fix>3d</fix>
</trkpt>
<trkpt lat="-27.274439" lon="151.290064">
  <ele>343.23</ele>
  <time>2026-09-01T19:54:14Z</time>
  <course>8.57</course>
  <speed>0.0</speed>
  <fix>3d</fix>
</trkpt>
<trkpt lat="-27.274439" lon="151.290064">
  <ele>343.1</ele>
  <time>2026-09-01T19:54:14Z</time>
  <course>21.12</course>
  <speed>0.0</speed>
  <fix>3d</fix>
</trkpt>
<trkpt lat="-27.274439" lon="151.290064">
  <ele>343.17</ele>
  <time>2026-09-01T19:54:14Z</time>
  <course>8.78</course>
  <speed>0.0</speed>
  <fix>3d</fix>
</trkpt>
<trkpt lat="-27.274439" lon="151.290064">
  <ele>343.1</ele>
  <time>2026-09-01T19:54:14Z</time>
  <course>21.12</course>
  <speed>0.0</speed>
  <fix>3d</fix>
</trkpt>
<trkpt lat="-27.274439" lon="151.290064">
  <ele>343.04</ele>
  <time>2026-09-01T19:54:14Z</time>
  <course>8.96</course>
  <speed>0.0</speed>
  <fix>3d</fix>
</trkpt>
<trkpt lat="-27.274439" lon="151.290064">
  <ele>343.1</ele>
  <time>2026-09-01T19:54:14Z</time>
  <course>17.99</course>
  <speed>0.0</speed>
  <fix>3d</fix>
</trkpt>
<trkpt lat="-27.274439" lon="151.290064">
  <ele>342.89</ele>
  <time>2026-09-01T19:54:14Z</time>
  <course>9.13</course>
  <speed>0.0</speed>
  <fix>3d</fix>
</trkpt>
<trkpt lat="-27.274439" lon="151.290064">
  <ele>343.1</ele>
  <time>2026-09-01T19:54:14Z</time>
  <course>17.99</course>
  <speed>0.0</speed>
  <fix>3d</fix>
</trkpt>
<trkpt lat="-27.274439" lon="151.290064">
  <ele>343.08</ele>
  <time>2026-09-01T19:54:15Z</time>
  <course>9.28</course>
  <speed>0.0</speed>
  <fix>3d</fix>
</trkpt>
<trkpt lat="-27.274439" lon="151.290064">
  <ele>343.1</ele>
  <time>2026-09-01T19:54:15Z</time>
  <course>10.4</course>
  <speed>0.0</speed>
  <fix>3d</fix>
</trkpt>
<trkpt lat="-27.274439" lon="151.290064">
  <ele>343.19</ele>
  <time>2026-09-01T19:54:15Z</time>
  <course>9.42</course>
  <speed>0.0</speed>
  <fix>3d</fix>
</trkpt>
<trkpt lat="-27.274439" lon="151.290064">
  <ele>343.1</ele>
  <time>2026-09-01T19:54:15Z</time>
  <course>10.4</course>
  <speed>0.0</speed>
  <fix>3d</fix>
</trkpt>
<trkpt lat="-27.274439" lon="151.290064">
  <ele>342.88</ele>
  <time>2026-09-01T19:54:15Z</time>
  <course>9.54</course>
  <speed>0.0</speed>
  <fix>3d</fix>
</trkpt>
<trkpt lat="-27.274439" lon="151.290064">
  <ele>343.1</ele>
  <time>2026-09-01T19:54:15Z</time>
  <course>358.04</course>
  <speed>0.0</speed>
  <fix>3d</fix>
</trkpt>
<trkpt lat="-27.274439" lon="151.290064">
  <ele>343.17</ele>
  <time>2026-09-01T19:54:15Z</time>
  <course>9.65</course>
  <speed>0.0</speed>
  <fix>3d</fix>
</trkpt>
<trkpt lat="-27.274439" lon="151.290064">
  <ele>343.1</ele>
  <time>2026-09-01T19:54:15Z</time>
  <course>358.04</course>
  <speed>0.0</speed>
  <fix>3d</fix>
</trkpt>
<trkpt lat="-27.274439" lon="151.290064">
  <ele>342.89</ele>
  <time>2026-09-01T19:54:15Z</time>
  <course>9.76</course>
  <speed>0.0</speed>
  <fix>3d</fix>
</trkpt>
<trkpt lat="-27.274439" lon="151.290064">
  <ele>343.1</ele>
  <time>2026-09-01T19:54:15Z</time>
  <course>25.77</course>
  <speed>0.0</speed>
  <fix>3d</fix>
</trkpt>
<trkpt lat="-27.274439" lon="151.290064">
  <ele>342.99</ele>
  <time>2026-09-01T19:54:15Z</time>
  <course>9.85</course>
  <speed>0.0</speed>
  <fix>3d</fix>
</trkpt>
<trkpt lat="-27.274439" lon="151.290064">
  <ele>343.1</ele>
  <time>2026-09-01T19:54:15Z</time>
  <course>25.77</course>
  <speed>0.0</speed>
  <fix>3d</fix>
</trkpt>
<trkpt lat="-27.274439" lon="151.290064">
  <ele>342.87</ele>
  <time>2026-09-01T19:54:15Z</time>
  <course>9.93</course>
  <speed>0.0</speed>
  <fix>3d</fix>
</trkpt>
<trkpt lat="-27.274439" lon="151.290064">
  <ele>343.1</ele>
  <time>2026-09-01T19:54:15Z</time>
  <course>37.67</course>
  <speed>0.0</speed>
  <fix>3d</fix>
</trkpt>
<trkpt lat="-27.274439" lon="151.290064">
  <ele>343.09</ele>
  <time>2026-09-01T19:54:15Z</time>
  <course>10.01</course>
  <speed>0.0</speed>
  <fix>3d</fix>
</trkpt>
<trkpt lat="-27.274439" lon="151.290064">
  <ele>343.1</ele>
  <time>2026-09-01T19:54:15Z</time>
  <course>37.67</course>
  <speed>0.0</speed>
  <fix>3d</fix>
</trkpt>
<trkpt lat="-27.274439" lon="151.290064">
  <ele>343.18</ele>
  <time>2026-09-01T19:54:15Z</time>
  <course>10.08</course>
  <speed>0.0</speed>
  <fix>3d</fix>
</trkpt>
<trkpt lat="-27.274439" lon="151.290064">
  <ele>343.1</ele>
  <time>2026-09-01T19:54:15Z</time>
  <course>0.04</course>
  <speed>0.0</speed>
  <fix>3d</fix>
</trkpt>
<trkpt lat="-27.274439" lon="151.290064">
  <ele>343.05</ele>
  <time>2026-09-01T19:54:15Z</time>
  <course>10.15</course>
  <speed>0.0</speed>
  <fix>3d</fix>
</trkpt>
<trkpt lat="-27.274439" lon="151.290064">
  <ele>343.1</ele>
  <time>2026-09-01T19:54:15Z</time>
  <course>0.04</course>
  <speed>0.0</speed>
  <fix>3d</fix>
</trkpt>
<trkpt lat="-27.274439" lon="151.290064">
  <ele>342.96</ele>
  <time>2026-09-01T19:54:15Z</time>
  <course>10.2</course>
  <speed>0.0</speed>
  <fix>3d</fix>
</trkpt>
<trkpt lat="-27.274439" lon="151.290064">
  <ele>343.1</ele>
  <time>2026-09-01T19:54:15Z</time>
  <course>346.19</course>
  <speed>0.0</speed>
  <fix>3d</fix>
</trkpt>
<trkpt lat="-27.274439" lon="151.290064">
  <ele>343.1</ele>
  <time>2026-09-01T19:54:15Z</time>
  <course>10.26</course>
  <speed>0.0</speed>
  <fix>3d</fix>
</trkpt>
<trkpt lat="-27.274439" lon="151.290064">
  <ele>343.1</ele>
  <time>2026-09-01T19:54:15Z</time>
  <course>346.19</course>
  <speed>0.0</speed>
  <fix>3d</fix>
</trkpt>
<trkpt lat="-27.274439" lon="151.290064">
  <ele>343.22</ele>
  <time>2026-09-01T19:54:15Z</time>
  <course>10.3</course>
  <speed>0.0</speed>
  <fix>3d</fix>
</trkpt>
<trkpt lat="-27.274439" lon="151.290064">
  <ele>343.1</ele>
  <time>2026-09-01T19:54:15Z</time>
  <course>344.3</course>
  <speed>0.0</speed>
  <fix>3d</fix>
</trkpt>
<trkpt lat="-27.274439" lon="151.290064">
  <ele>343.17</ele>
  <time>2026-09-01T19:54:15Z</time>
  <course>10.35</course>
  <speed>0.0</speed>
  <fix>3d</fix>
</trkpt>
<trkpt lat="-27.274439" lon="151.290064">
  <ele>343.1</ele>
  <time>2026-09-01T19:54:15Z</time>
  <course>344.3</course>
  <speed>0.0</speed>
  <fix>3d</fix>
</trkpt>
<trkpt lat="-27.274439" lon="151.290064">
  <ele>343.08</ele>
  <time>2026-09-01T19:54:15Z</time>
  <course>10.38</course>
  <speed>0.0</speed>
  <fix>3d</fix>
</trkpt>
<trkpt lat="-27.274439" lon="151.290064">
  <ele>343.1</ele>
  <time>2026-09-01T19:54:15Z</time>
  <course>353.72</course>
  <speed>0.0</speed>
  <fix>3d</fix>
</trkpt>
<trkpt lat="-27.274439" lon="151.290064">
  <ele>343.04</ele>
  <time>2026-09-01T19:54:15Z</time>
  <course>10.42</course>
  <speed>0.0</speed>
  <fix>3d</fix>
</trkpt>
<trkpt lat="-27.274439" lon="151.290064">
  <ele>343.1</ele>
  <time>2026-09-01T19:54:15Z</time>
  <course>353.72</course>
  <speed>0.0</speed>
  <fix>3d</fix>
</trkpt>
<trkpt lat="-27.274439" lon="151.290064">
  <ele>343.18</ele>
  <time>2026-09-01T19:54:15Z</time>
  <course>10.45</course>
  <speed>0.0</speed>
  <fix>3d</fix>
</trkpt>
<trkpt lat="-27.274439" lon="151.290064">
  <ele>343.1</ele>
  <time>2026-09-01T19:54:15Z</time>
  <course>357.03</course>
  <speed>0.0</speed>
  <fix>3d</fix>
</trkpt>
<trkpt lat="-27.274439" lon="151.290064">
  <ele>343.12</ele>
  <time>2026-09-01T19:54:15Z</time>
  <course>10.48</course>
  <speed>0.0</speed>
  <fix>3d</fix>
</trkpt>
<trkpt lat="-27.274439" lon="151.290064">
  <ele>343.1</ele>
  <time>2026-09-01T19:54:15Z</time>
  <course>357.03</course>
  <speed>0.0</speed>
  <fix>3d</fix>
</trkpt>
<trkpt lat="-27.274439" lon="151.290064">
  <ele>343.04</ele>
  <time>2026-09-01T19:54:15Z</time>
  <course>10.5</course>
  <speed>0.0</speed>
  <fix>3d</fix>
</trkpt>
<trkpt lat="-27.274439" lon="151.290064">
  <ele>343.1</ele>
  <time>2026-09-01T19:54:15Z</time>
  <course>5.61</course>
  <speed>0.0</speed>
  <fix>3d</fix>
</trkpt>
<trkpt lat="-27.274439" lon="151.290064">
  <ele>343.07</ele>
  <time>2026-09-01T19:54:15Z</time>
  <course>10.53</course>
  <speed>0.0</speed>
  <fix>3d</fix>
</trkpt>
<trkpt lat="-27.274439" lon="151.290064">
  <ele>343.1</ele>
  <time>2026-09-01T19:54:15Z</time>
  <course>5.61</course>
  <speed>0.0</speed>
  <fix>3d</fix>
</trkpt>
<trkpt lat="-27.274439" lon="151.290064">
  <ele>343.04</ele>
  <time>2026-09-01T19:54:15Z</time>
  <course>10.55</course>
  <speed>0.0</speed>
  <fix>3d</fix>
</trkpt>
<trkpt lat="-27.274439" lon="151.290064">
  <ele>343.1</ele>
  <time>2026-09-01T19:54:15Z</time>
  <course>357.29</course>
  <speed>0.0</speed>
  <fix>3d</fix>
</trkpt>
<trkpt lat="-27.274439" lon="151.290064">
  <ele>343.01</ele>
  <time>2026-09-01T19:54:15Z</time>
  <course>10.57</course>
  <speed>0.0</speed>
  <fix>3d</fix>
</trkpt>
<trkpt lat="-27.274439" lon="151.290064">
  <ele>343.1</ele>
  <time>2026-09-01T19:54:15Z</time>
  <course>357.29</course>
  <speed>0.0</speed>
  <fix>3d</fix>
</trkpt>
<trkpt lat="-27.274439" lon="151.290064">
  <ele>343.2</ele>
  <time>2026-09-01T19:54:15Z</time>
  <course>10.58</course>
  <speed>0.0</speed>
  <fix>3d</fix>
</trkpt>
<trkpt lat="-27.274439" lon="151.290064">
  <ele>343.1</ele>
  <time>2026-09-01T19:54:15Z</time>
  <course>188.4</course>
  <speed>0.0</speed>
  <fix>3d</fix>
</trkpt>
<trkpt lat="-27.274439" lon="151.290064">
  <ele>343.24</ele>
  <time>2026-09-01T19:54:15Z</time>
  <course>10.6</course>
  <speed>0.0</speed>
  <fix>3d</fix>
</trkpt>
<trkpt lat="-27.274439" lon="151.290064">
  <ele>343.1</ele>
  <time>2026-09-01T19:54:15Z</time>
  <course>188.4</course>
  <speed>0.0</speed>
  <fix>3d</fix>
</trkpt>
<trkpt lat="-27.274439" lon="151.290064">
  <ele>342.88</ele>
  <time>2026-09-01T19:54:15Z</time>
  <course>10.61</course>
  <speed>0.0</speed>
  <fix>3d</fix>
</trkpt>
<trkpt lat="-27.274439" lon="151.290064">
  <ele>343.1</ele>
  <time>2026-09-01T19:54:15Z</time>
  <course>187.74</course>
  <speed>0.0</speed>
  <fix>3d</fix>
</trkpt>
<trkpt lat="-27.274439" lon="151.290064">
  <ele>343.21</ele>
  <time>2026-09-01T19:54:15Z</time>
  <course>10.62</course>
  <speed>0.0</speed>
  <fix>3d</fix>
</trkpt>
<trkpt lat="-27.274439" lon="151.290064">
  <ele>343.1</ele>
  <time>2026-09-01T19:54:15Z</time>
  <course>187.74</course>
  <speed>0.0</speed>
  <fix>3d</fix>
</trkpt>
<trkpt lat="-27.274439" lon="151.290064">
  <ele>343.02</ele>
  <time>2026-09-01T19:54:15Z</time>
  <course>10.64</course>
  <speed>0.0</speed>
  <fix>3d</fix>
</trkpt>
<trkpt lat="-27.274439" lon="151.290064">
  <ele>343.1</ele>
  <time>2026-09-01T19:54:15Z</time>
  <course>188.95</course>
  <speed>0.0</speed>
  <fix>3d</fix>
</trkpt>
<trkpt lat="-27.274439" lon="151.290064">
  <ele>342.93</ele>
  <time>2026-09-01T19:54:15Z</time>
  <course>10.65</course>
  <speed>0.0</speed>
  <fix>3d</fix>
</trkpt>
<trkpt lat="-27.274439" lon="151.290064">
  <ele>343.1</ele>
  <time>2026-09-01T19:54:15Z</time>
  <course>188.95</course>
  <speed>0.0</speed>
  <fix>3d</fix>
</trkpt>
<trkpt lat="-27.274439" lon="151.290064">
  <ele>343.07</ele>
  <time>2026-09-01T19:54:15Z</time>
  <course>10.66</course>
  <speed>0.0</speed>
  <fix>3d</fix>
</trkpt>
<trkpt lat="-27.274439" lon="151.290064">
  <ele>343.1</ele>
  <time>2026-09-01T19:54:15Z</time>
  <course>8.37</course>
  <speed>0.0</speed>
  <fix>3d</fix>
</trkpt>
<trkpt lat="-27.274439" lon="151.290064">
  <ele>342.94</ele>
  <time>2026-09-01T19:54:15Z</time>
  <course>10.67</course>
  <speed>0.0</speed>
  <fix>3d</fix>
</trkpt>
<trkpt lat="-27.274439" lon="151.290064">
  <ele>343.1</ele>
  <time>2026-09-01T19:54:15Z</time>
  <course>8.37</course>
  <speed>0.0</speed>
  <fix>3d</fix>
</trkpt>
<trkpt lat="-27.274439" lon="151.290064">
  <ele>343.11</ele>
  <time>2026-09-01T19:54:15Z</time>
  <course>10.67</course>
  <speed>0.0</speed>
  <fix>3d</fix>
</trkpt>
<trkpt lat="-27.274439" lon="151.290064">
  <ele>343.1</ele>
  <time>2026-09-01T19:54:15Z</time>
  <course>21.43</course>
  <speed>0.0</speed>
  <fix>3d</fix>
</trkpt>
<trkpt lat="-27.274439" lon="151.290064">
  <ele>343.24</ele>
  <time>2026-09-01T19:54:15Z</time>
  <course>10.68</course>
  <speed>0.0</speed>
  <fix>3d</fix>
</trkpt>
<trkpt lat="-27.274439" lon="151.290064">
  <ele>343.1</ele>
  <time>2026-09-01T19:54:15Z</time>
  <course>21.43</course>
  <speed>0.0</speed>
  <fix>3d</fix>
</trkpt>
<trkpt lat="-27.274439" lon="151.290064">
  <ele>343.18</ele>
  <time>2026-09-01T19:54:15Z</time>
  <course>10.69</course>
  <speed>0.0</speed>
  <fix>3d</fix>
</trkpt>
<trkpt lat="-27.274439" lon="151.290064">
  <ele>343.1</ele>
  <time>2026-09-01T19:54:15Z</time>
  <course>191.41</course>
  <speed>0.0</speed>
  <fix>3d</fix>
</trkpt>
<trkpt lat="-27.274439" lon="151.290064">
  <ele>342.89</ele>
  <time>2026-09-01T19:54:15Z</time>
  <course>10.7</course>
  <speed>0.0</speed>
  <fix>3d</fix>
</trkpt>
<trkpt lat="-27.274439" lon="151.290064">
  <ele>343.1</ele>
  <time>2026-09-01T19:54:15Z</time>
  <course>191.41</course>
  <speed>0.0</speed>
  <fix>3d</fix>
</trkpt>
<trkpt lat="-27.274439" lon="151.290064">
  <ele>343.23</ele>
  <time>2026-09-01T19:54:15Z</time>
  <course>10.7</course>
  <speed>0.0</speed>
  <fix>3d</fix>
</trkpt>
<trkpt lat="-27.274439" lon="151.290064">
  <ele>343.1</ele>
  <time>2026-09-01T19:54:15Z</time>
  <course>1.65</course>
  <speed>0.0</speed>
  <fix>3d</fix>
</trkpt>
<trkpt lat="-27.274439" lon="151.290064">
  <ele>343.23</ele>
  <time>2026-09-01T19:54:15Z</time>
  <course>10.71</course>
  <speed>0.0</speed>
  <fix>3d</fix>
</trkpt>
<trkpt lat="-27.274439" lon="151.290064">
  <ele>343.1</ele>
  <time>2026-09-01T19:54:15Z</time>
  <course>1.65</course>
  <speed>0.0</speed>
  <fix>3d</fix>
</trkpt>
<trkpt lat="-27.274439" lon="151.290064">
  <ele>342.99</ele>
  <time>2026-09-01T19:54:15Z</time>
  <course>10.71</course>
  <speed>0.0</speed>
  <fix>3d</fix>
</trkpt>
<trkpt lat="-27.274439" lon="151.290064">
  <ele>343.1</ele>
  <time>2026-09-01T19:54:15Z</time>
  <course>16.66</course>
  <speed>0.0</speed>
  <fix>3d</fix>
</trkpt>
<trkpt lat="-27.274439" lon="151.290064">
  <ele>343.13</ele>
  <time>2026-09-01T19:54:15Z</time>
  <course>10.71</course>
  <speed>0.0</speed>
  <fix>3d</fix>
</trkpt>
<trkpt lat="-27.274439" lon="151.290064">
  <ele>343.1</ele>
  <time>2026-09-01T19:54:15Z</time>
  <course>16.66</course>
  <speed>0.0</speed>
  <fix>3d</fix>
</trkpt>
<trkpt lat="-27.274439" lon="151.290064">
  <ele>343.07</ele>
  <time>2026-09-01T19:54:15Z</time>
  <course>10.72</course>
  <speed>0.0</speed>
  <fix>3d</fix>
</trkpt>
<trkpt lat="-27.274439" lon="151.290064">
  <ele>343.1</ele>
  <time>2026-09-01T19:54:15Z</time>
  <course>3.3</course>
  <speed>0.0</speed>
  <fix>3d</fix>
</trkpt>
<trkpt lat="-27.274439" lon="151.290064">
  <ele>343.19</ele>
  <time>2026-09-01T19:54:15Z</time>
  <course>10.72</course>
  <speed>0.0</speed>
  <fix>3d</fix>
</trkpt>
<trkpt lat="-27.274439" lon="151.290064">
  <ele>343.1</ele>
  <time>2026-09-01T19:54:15Z</time>
  <course>3.3</course>
  <speed>0.0</speed>
  <fix>3d</fix>
</trkpt>
<trkpt lat="-27.274439" lon="151.290064">
  <ele>342.93</ele>
  <time>2026-09-01T19:54:15Z</time>
  <course>10.72</course>
  <speed>0.0</speed>
  <fix>3d</fix>
</trkpt>
<trkpt lat="-27.274439" lon="151.290064">
  <ele>343.1</ele>
  <time>2026-09-01T19:54:15Z</time>
  <course>354.58</course>
  <speed>0.0</speed>
  <fix>3d</fix>
</trkpt>
<trkpt lat="-27.274439" lon="151.290064">
  <ele>343.19</ele>
  <time>2026-09-01T19:54:15Z</time>
  <course>10.72</course>
  <speed>0.0</speed>
  <fix>3d</fix>
</trkpt>
<trkpt lat="-27.274439" lon="151.290064">
  <ele>343.1</ele>
  <time>2026-09-01T19:54:15Z</time>
  <course>354.58</course>
  <speed>0.0</speed>
  <fix>3d</fix>
</trkpt>
<trkpt lat="-27.274439" lon="151.290064">
  <ele>343.1</ele>
  <time>2026-09-01T19:54:15Z</time>
  <course>10.73</course>
  <speed>0.0</speed>
  <fix>3d</fix>
</trkpt>
<trkpt lat="-27.274439" lon="151.290064">
  <ele>343.1</ele>
  <time>2026-09-01T19:54:15Z</time>
  <course>6.21</course>
  <speed>0.0</speed>
  <fix>3d</fix>
</trkpt>
<trkpt lat="-27.274439" lon="151.290064">
  <ele>343.01</ele>
  <time>2026-09-01T19:54:15Z</time>
  <course>10.73</course>
  <speed>0.0</speed>
  <fix>3d</fix>
</trkpt>
<trkpt lat="-27.274439" lon="151.290064">
  <ele>343.1</ele>
  <time>2026-09-01T19:54:15Z</time>
  <course>6.21</course>
  <speed>0.0</speed>
  <fix>3d</fix>
</trkpt>
<trkpt lat="-27.274439" lon="151.290064">
  <ele>343.11</ele>
  <time>2026-09-01T19:54:15Z</time>
  <course>10.73</course>
  <speed>0.0</speed>
  <fix>3d</fix>
</trkpt>
<trkpt lat="-27.274439" lon="151.290064">
  <ele>343.1</ele>
  <time>2026-09-01T19:54:15Z</time>
  <course>356.97</course>
  <speed>0.0</speed>
  <fix>3d</fix>
</trkpt>
<trkpt lat="-27.274439" lon="151.290064">
  <ele>342.96</ele>
  <time>2026-09-01T19:54:15Z</time>
  <course>10.73</course>
  <speed>0.0</speed>
  <fix>3d</fix>
</trkpt>
<trkpt lat="-27.274439" lon="151.290064">
  <ele>343.1</ele>
  <time>2026-09-01T19:54:15Z</time>
  <course>356.97</course>
  <speed>0.0</speed>
  <fix>3d</fix>
</trkpt>
<trkpt lat="-27.274439" lon="151.290064">
  <ele>343.19</ele>
  <time>2026-09-01T19:54:15Z</time>
  <course>10.73</course>
  <speed>0.0</speed>
  <fix>3d</fix>
</trkpt>
<trkpt lat="-27.274439" lon="151.290064">
  <ele>343.1</ele>
  <time>2026-09-01T19:54:15Z</time>
  <course>0.17</course>
  <speed>0.0</speed>
  <fix>3d</fix>
</trkpt>
<trkpt lat="-27.274439" lon="151.290064">
  <ele>343.0</ele>
  <time>2026-09-01T19:54:15Z</time>
  <course>10.73</course>
  <speed>0.0</speed>
  <fix>3d</fix>
</trkpt>
<trkpt lat="-27.274439" lon="151.290064">
  <ele>343.1</ele>
  <time>2026-09-01T19:54:15Z</time>
  <course>0.17</course>
  <speed>0.0</speed>
  <fix>3d</fix>
</trkpt>
<trkpt lat="-27.274439" lon="151.290064">
  <ele>343.2</ele>
  <time>2026-09-01T19:54:15Z</time>
  <course>10.73</course>
  <speed>0.0</speed>
  <fix>3d</fix>
</trkpt>
<trkpt lat="-27.274439" lon="151.290064">
  <ele>343.1</ele>
  <time>2026-09-01T19:54:15Z</time>
  <course>10.23</course>
  <speed>0.0</speed>
  <fix>3d</fix>
</trkpt>
<trkpt lat="-27.274439" lon="151.290064">
  <ele>343.2</ele>
  <time>2026-09-01T19:54:15Z</time>
  <course>10.74</course>
  <speed>0.0</speed>
  <fix>3d</fix>
</trkpt>
<trkpt lat="-27.274439" lon="151.290064">
  <ele>343.1</ele>
  <time>2026-09-01T19:54:15Z</time>
  <course>10.23</course>
  <speed>0.0</speed>
  <fix>3d</fix>
</trkpt>
<trkpt lat="-27.274439" lon="151.290064">
  <ele>343.13</ele>
  <time>2026-09-01T19:54:15Z</time>
  <course>10.74</course>
  <speed>0.0</speed>
  <fix>3d</fix>
</trkpt>
<trkpt lat="-27.274439" lon="151.290064">
  <ele>343.1</ele>
  <time>2026-09-01T19:54:15Z</time>
  <course>15.27</course>
  <speed>0.0</speed>
  <fix>3d</fix>
</trkpt>
<trkpt lat="-27.274439" lon="151.290064">
  <ele>343.1</ele>
  <time>2026-09-01T19:54:15Z</time>
  <course>10.74</course>
  <speed>0.0</speed>
  <fix>3d</fix>
</trkpt>
<trkpt lat="-27.274439" lon="151.290064">
  <ele>343.1</ele>
  <time>2026-09-01T19:54:15Z</time>
  <course>15.27</course>
  <speed>0.0</speed>
  <fix>3d</fix>
</trkpt>
<trkpt lat="-27.274439" lon="151.290064">
  <ele>343.12</ele>
  <time>2026-09-01T19:54:15Z</time>
  <course>10.74</course>
  <speed>0.0</speed>
  <fix>3d</fix>
</trkpt>
<trkpt lat="-27.274439" lon="151.290064">
  <ele>343.1</ele>
  <time>2026-09-01T19:54:15Z</time>
  <course>15.44</course>
  <speed>0.0</speed>
  <fix>3d</fix>
</trkpt>
<trkpt lat="-27.274439" lon="151.290064">
  <ele>342.94</ele>
  <time>2026-09-01T19:54:15Z</time>
  <course>10.74</course>
  <speed>0.0</speed>
  <fix>3d</fix>
</trkpt>
<trkpt lat="-27.274439" lon="151.290064">
  <ele>343.1</ele>
  <time>2026-09-01T19:54:15Z</time>
  <course>15.44</course>
  <speed>0.0</speed>
  <fix>3d</fix>
</trkpt>
<trkpt lat="-27.274439" lon="151.290064">
  <ele>343.25</ele>
  <time>2026-09-01T19:54:15Z</time>
  <course>10.74</course>
  <speed>0.0</speed>
  <fix>3d</fix>
</trkpt>
<trkpt lat="-27.274439" lon="151.290064">
  <ele>343.1</ele>
  <time>2026-09-01T19:54:15Z</time>
  <course>40.73</course>
  <speed>0.0</speed>
  <fix>3d</fix>
</trkpt>
<trkpt lat="-27.274439" lon="151.290064">
  <ele>342.93</ele>
  <time>2026-09-01T19:54:15Z</time>
  <course>10.74</course>
  <speed>0.0</speed>
  <fix>3d</fix>
</trkpt>
<trkpt lat="-27.274439" lon="151.290064">
  <ele>343.1</ele>
  <time>2026-09-01T19:54:15Z</time>
  <course>40.73</course>
  <speed>0.0</speed>
  <fix>3d</fix>
</trkpt>
<trkpt lat="-27.274439" lon="151.290064">
  <ele>343.08</ele>
  <time>2026-09-01T19:54:15Z</time>
  <course>10.74</course>
  <speed>0.0</speed>
  <fix>3d</fix>
</trkpt>
<trkpt lat="-27.274439" lon="151.290064">
  <ele>343.1</ele>
  <time>2026-09-01T19:54:15Z</time>
  <course>18.15</course>
  <speed>0.0</speed>
  <fix>3d</fix>
</trkpt>
<trkpt lat="-27.274439" lon="151.290064">
  <ele>343.23</ele>
  <time>2026-09-01T19:54:15Z</time>
  <course>10.74</course>
  <speed>0.0</speed>
  <fix>3d</fix>
</trkpt>
<trkpt lat="-27.274439" lon="151.290064">
  <ele>343.1</ele>
  <time>2026-09-01T19:54:15Z</time>
  <course>18.15</course>
  <speed>0.0</speed>
  <fix>3d</fix>
</trkpt>
<trkpt lat="-27.274439" lon="151.290064">
  <ele>343.01</ele>
  <time>2026-09-01T19:54:15Z</time>
  <course>10.74</course>
  <speed>0.0</speed>
  <fix>3d</fix>
</trkpt>
<trkpt lat="-27.274439" lon="151.290064">
  <ele>343.1</ele>
  <time>2026-09-01T19:54:15Z</time>
  <course>8.73</course>
  <speed>0.0</speed>
  <fix>3d</fix>
</trkpt>
<trkpt lat="-27.274439" lon="151.290064">
  <ele>343.1</ele>
  <time>2026-09-01T19:54:15Z</time>
  <course>10.74</course>
  <speed>0.0</speed>
  <fix>3d</fix>
</trkpt>
<trkpt lat="-27.274439" lon="151.290064">
  <ele>343.1</ele>
  <time>2026-09-01T19:54:15Z</time>
  <course>8.73</course>
  <speed>0.0</speed>
  <fix>3d</fix>
</trkpt>
<trkpt lat="-27.274439" lon="151.290064">
  <ele>342.99</ele>
  <time>2026-09-01T19:54:15Z</time>
  <course>10.74</course>
  <speed>0.0</speed>
  <fix>3d</fix>
</trkpt>
<trkpt lat="-27.274439" lon="151.290064">
  <ele>343.1</ele>
  <time>2026-09-01T19:54:15Z</time>
  <course>13.45</course>
  <speed>0.0</speed>
  <fix>3d</fix>
</trkpt>
<trkpt lat="-27.274439" lon="151.290064">
  <ele>342.87</ele>
  <time>2026-09-01T19:54:15Z</time>
  <course>10.75</course>
  <speed>0.0</speed>
  <fix>3d</fix>
</trkpt>
<trkpt lat="-27.274439" lon="151.290064">
  <ele>343.1</ele>
  <time>2026-09-01T19:54:15Z</time>
  <course>13.45</course>
  <speed>0.0</speed>
  <fix>3d</fix>
</trkpt>
<trkpt lat="-27.274439" lon="151.290064">
  <ele>343.1</ele>
  <time>2026-09-01T19:54:15Z</time>
  <course>10.75</course>
  <speed>0.0</speed>
  <fix>3d</fix>
</trkpt>
<trkpt lat="-27.274439" lon="151.290064">
  <ele>343.1</ele>
  <time>2026-09-01T19:54:15Z</time>
  <course>3.49</course>
  <speed>0.0</speed>
  <fix>3d</fix>
</trkpt>
<trkpt lat="-27.274439" lon="151.290064">
  <ele>342.99</ele>
  <time>2026-09-01T19:54:15Z</time>
  <course>10.75</course>
  <speed>0.0</speed>
  <fix>3d</fix>
</trkpt>
<trkpt lat="-27.274439" lon="151.290064">
  <ele>343.1</ele>
  <time>2026-09-01T19:54:15Z</time>
  <course>3.49</course>
  <speed>0.0</speed>
  <fix>3d</fix>
</trkpt>
<trkpt lat="-27.274439" lon="151.290064">
  <ele>342.91</ele>
  <time>2026-09-01T19:54:15Z</time>
  <course>10.75</course>
  <speed>0.0</speed>
  <fix>3d</fix>
</trkpt>
<trkpt lat="-27.274439" lon="151.290064">
  <ele>343.1</ele>
  <time>2026-09-01T19:54:15Z</time>
  <course>6.84</course>
  <speed>0.0</speed>
  <fix>3d</fix>
</trkpt>
<trkpt lat="-27.274439" lon="151.290064">
  <ele>342.9</ele>
  <time>2026-09-01T19:54:15Z</time>
  <course>10.75</course>
  <speed>0.0</speed>
  <fix>3d</fix>
</trkpt>
<trkpt lat="-27.274439" lon="151.290064">
  <ele>343.1</ele>
  <time>2026-09-01T19:54:15Z</time>
  <course>6.84</course>
  <speed>0.0</speed>
  <fix>3d</fix>
</trkpt>
<trkpt lat="-27.274439" lon="151.290064">
  <ele>342.87</ele>
  <time>2026-09-01T19:54:15Z</time>
  <course>10.75</course>
  <speed>0.0</speed>
  <fix>3d</fix>
</trkpt>
<trkpt lat="-27.274439" lon="151.290064">
  <ele>343.1</ele>
  <time>2026-09-01T19:54:15Z</time>
  <course>0.88</course>
  <speed>0.0</speed>
  <fix>3d</fix>
</trkpt>
<trkpt lat="-27.274439" lon="151.290064">
  <ele>343.12</ele>
  <time>2026-09-01T19:54:15Z</time>
  <course>10.75</course>
  <speed>0.0</speed>
  <fix>3d</fix>
</trkpt>
<trkpt lat="-27.274439" lon="151.290064">
  <ele>343.1</ele>
  <time>2026-09-01T19:54:15Z</time>
  <course>0.88</course>
  <speed>0.0</speed>
  <fix>3d</fix>
</trkpt>
<trkpt lat="-27.274439" lon="151.290064">
  <ele>342.99</ele>
  <time>2026-09-01T19:54:15Z</time>
  <course>10.75</course>
  <speed>0.0</speed>
  <fix>3d</fix>
</trkpt>
<trkpt lat="-27.274439" lon="151.290064">
  <ele>343.1</ele>
  <time>2026-09-01T19:54:15Z</time>
  <course>355.75</course>
  <speed>0.0</speed>
  <fix>3d</fix>
</trkpt>
<trkpt lat="-27.274439" lon="151.290064">
  <ele>343.13</ele>
  <time>2026-09-01T19:54:15Z</time>
  <course>10.75</course>
  <speed>0.0</speed>
  <fix>3d</fix>
</trkpt>
<trkpt lat="-27.274439" lon="151.290064">
  <ele>343.1</ele>
  <time>2026-09-01T19:54:15Z</time>
  <course>355.75</course>
  <speed>0.0</speed>
  <fix>3d</fix>
</trkpt>
<trkpt lat="-27.274439" lon="151.290064">
  <ele>343.0</ele>
  <time>2026-09-01T19:54:15Z</time>
  <course>10.75</course>
  <speed>0.0</speed>
  <fix>3d</fix>
</trkpt>
<trkpt lat="-27.274439" lon="151.290064">
  <ele>343.1</ele>
  <time>2026-09-01T19:54:15Z</time>
  <course>2.93</course>
  <speed>0.0</speed>
  <fix>3d</fix>
</trkpt>
<trkpt lat="-27.274439" lon="151.290064">
  <ele>343.17</ele>
  <time>2026-09-01T19:54:15Z</time>
  <course>10.75</course>
  <speed>0.0</speed>
  <fix>3d</fix>
</trkpt>
<trkpt lat="-27.274439" lon="151.290064">
  <ele>343.1</ele>
  <time>2026-09-01T19:54:15Z</time>
  <course>2.93</course>
  <speed>0.0</speed>
  <fix>3d</fix>
</trkpt>
<trkpt lat="-27.274439" lon="151.290064">
  <ele>343.0</ele>
  <time>2026-09-01T19:54:15Z</time>
  <course>10.75</course>
  <speed>0.0</speed>
  <fix>3d</fix>
</trkpt>
<trkpt lat="-27.274439" lon="151.290064">
  <ele>343.1</ele>
  <time>2026-09-01T19:54:15Z</time>
  <course>15.75</course>
  <speed>0.0</speed>
  <fix>3d</fix>
</trkpt>
<trkpt lat="-27.274439" lon="151.290064">
  <ele>342.99</ele>
  <time>2026-09-01T19:54:15Z</time>
  <course>10.75</course>
  <speed>0.0</speed>
  <fix>3d</fix>
</trkpt>
<trkpt lat="-27.274439" lon="151.290064">
  <ele>343.1</ele>
  <time>2026-09-01T19:54:15Z</time>
  <course>15.75</course>
  <speed>0.0</speed>
  <fix>3d</fix>
</trkpt>
<trkpt lat="-27.274439" lon="151.290064">
  <ele>343.17</ele>
  <time>2026-09-01T19:54:15Z</time>
  <course>10.75</course>
  <speed>0.0</speed>
  <fix>3d</fix>
</trkpt>
<trkpt lat="-27.274439" lon="151.290064">
  <ele>343.1</ele>
  <time>2026-09-01T19:54:15Z</time>
  <course>7.55</course>
  <speed>0.0</speed>
  <fix>3d</fix>
</trkpt>
<trkpt lat="-27.274439" lon="151.290064">
  <ele>343.16</ele>
  <time>2026-09-01T19:54:15Z</time>
  <course>10.75</course>
  <speed>0.0</speed>
  <fix>3d</fix>
</trkpt>
<trkpt lat="-27.274439" lon="151.290064">
  <ele>343.1</ele>
  <time>2026-09-01T19:54:15Z</time>
  <course>7.55</course>
  <speed>0.0</speed>
  <fix>3d</fix>
</trkpt>
<trkpt lat="-27.274439" lon="151.290064">
  <ele>342.87</ele>
  <time>2026-09-01T19:54:15Z</time>
  <course>10.75</course>
  <speed>0.0</speed>
  <fix>3d</fix>
</trkpt>
<trkpt lat="-27.274439" lon="151.290064">
  <ele>343.1</ele>
  <time>2026-09-01T19:54:15Z</time>
  <course>356.18</course>
  <speed>0.0</speed>
  <fix>3d</fix>
</trkpt>
<trkpt lat="-27.274439" lon="151.290064">
  <ele>343.19</ele>
  <time>2026-09-01T19:54:15Z</time>
  <course>10.75</course>
  <speed>0.0</speed>
  <fix>3d</fix>
</trkpt>
<trkpt lat="-27.274439" lon="151.290064">
  <ele>343.1</ele>
  <time>2026-09-01T19:54:15Z</time>
  <course>356.18</course>
  <speed>0.0</speed>
  <fix>3d</fix>
</trkpt>
<trkpt lat="-27.274439" lon="151.290064">
  <ele>343.16</ele>
  <time>2026-09-01T19:54:15Z</time>
  <course>10.75</course>
  <speed>0.0</speed>
  <fix>3d</fix>
</trkpt>
<trkpt lat="-27.274439" lon="151.290064">
  <ele>343.1</ele>
  <time>2026-09-01T19:54:15Z</time>
  <course>10.65</course>
  <speed>0.0</speed>
  <fix>3d</fix>
</trkpt>
<trkpt lat="-27.274439" lon="151.290064">
  <ele>343.21</ele>
  <time>2026-09-01T19:54:15Z</time>
  <course>10.75</course>
  <speed>0.0</speed>
  <fix>3d</fix>
</trkpt>
<trkpt lat="-27.274439" lon="151.290064">
  <ele>343.1</ele>
  <time>2026-09-01T19:54:15Z</time>
  <course>10.65</course>
  <speed>0.0</speed>
  <fix>3d</fix>
</trkpt>
<trkpt lat="-27.274439" lon="151.290064">
  <ele>343.22</ele>
  <time>2026-09-01T19:54:15Z</time>
  <course>10.75</course>
  <speed>0.0</speed>
  <fix>3d</fix>
</trkpt>
<trkpt lat="-27.274439" lon="151.290064">
  <ele>343.1</ele>
  <time>2026-09-01T19:54:15Z</time>
  <course>31.06</course>
  <speed>0.0</speed>
  <fix>3d</fix>
</trkpt>
<trkpt lat="-27.274439" lon="151.290064">
  <ele>343.24</ele>
  <time>2026-09-01T19:54:15Z</time>
  <course>10.75</course>
  <speed>0.0</speed>
  <fix>3d</fix>
</trkpt>
<trkpt lat="-27.274439" lon="151.290064">
  <ele>343.1</ele>
  <time>2026-09-01T19:54:15Z</time>
  <course>31.06</course>
  <speed>0.0</speed>
  <fix>3d</fix>
</trkpt>
<trkpt lat="-27.274439" lon="151.290064">
  <ele>343.0</ele>
  <time>2026-09-01T19:54:15Z</time>
  <course>10.75</course>
  <speed>0.0</speed>
  <fix>3d</fix>
</trkpt>
<trkpt lat="-27.274439" lon="151.290064">
  <ele>343.1</ele>
  <time>2026-09-01T19:54:15Z</time>
  <course>350.63</course>
  <speed>0.0</speed>
  <fix>3d</fix>
</trkpt>
<trkpt lat="-27.274439" lon="151.290064">
  <ele>343.1</ele>
  <time>2026-09-01T19:54:15Z</time>
  <course>10.75</course>
  <speed>0.0</speed>
  <fix>3d</fix>
</trkpt>
<trkpt lat="-27.274439" lon="151.290064">
  <ele>343.1</ele>
  <time>2026-09-01T19:54:15Z</time>
  <course>350.63</course>
  <speed>0.0</speed>
  <fix>3d</fix>
</trkpt>
<trkpt lat="-27.274439" lon="151.290064">
  <ele>343.05</ele>
  <time>2026-09-01T19:54:15Z</time>
  <course>10.75</course>
  <speed>0.0</speed>
  <fix>3d</fix>
</trkpt>
<trkpt lat="-27.274439" lon="151.290064">
  <ele>343.1</ele>
  <time>2026-09-01T19:54:15Z</time>
  <course>7.77</course>
  <speed>0.0</speed>
  <fix>3d</fix>
</trkpt>
<trkpt lat="-27.274439" lon="151.290064">
  <ele>342.87</ele>
  <time>2026-09-01T19:54:15Z</time>
  <course>10.75</course>
  <speed>0.0</speed>
  <fix>3d</fix>
</trkpt>
<trkpt lat="-27.274439" lon="151.290064">
  <ele>343.1</ele>
  <time>2026-09-01T19:54:15Z</time>
  <course>7.77</course>
  <speed>0.0</speed>
  <fix>3d</fix>
</trkpt>
<trkpt lat="-27.274439" lon="151.290064">
  <ele>342.92</ele>
  <time>2026-09-01T19:54:15Z</time>
  <course>10.75</course>
  <speed>0.0</speed>
  <fix>3d</fix>
</trkpt>
<trkpt lat="-27.274439" lon="151.290064">
  <ele>343.1</ele>
  <time>2026-09-01T19:54:15Z</time>
  <course>23.38</course>
  <speed>0.0</speed>
  <fix>3d</fix>
</trkpt>
<trkpt lat="-27.274439" lon="151.290064">
  <ele>342.96</ele>
  <time>2026-09-01T19:54:15Z</time>
  <course>10.75</course>
  <speed>0.0</speed>
  <fix>3d</fix>
</trkpt>
<trkpt lat="-27.274439" lon="151.290064">
  <ele>343.1</ele>
  <time>2026-09-01T19:54:15Z</time>
  <course>23.38</course>
  <speed>0.0</speed>
  <fix>3d</fix>
</trkpt>
<trkpt lat="-27.274439" lon="151.290064">
  <ele>343.15</ele>
  <time>2026-09-01T19:54:15Z</time>
  <course>10.75</course>
  <speed>0.0</speed>
  <fix>3d</fix>
</trkpt>
<trkpt lat="-27.274439" lon="151.290064">
  <ele>343.1</ele>
  <time>2026-09-01T19:54:15Z</time>
  <course>0.35</course>
  <speed>0.0</speed>
  <fix>3d</fix>
</trkpt>
<trkpt lat="-27.274439" lon="151.290064">
  <ele>343.16</ele>
  <time>2026-09-01T19:54:15Z</time>
  <course>10.75</course>
  <speed>0.0</speed>
  <fix>3d</fix>
</trkpt>
<trkpt lat="-27.274439" lon="151.290064">
  <ele>343.1</ele>
  <time>2026-09-01T19:54:15Z</time>
  <course>0.35</course>
  <speed>0.0</speed>
  <fix>3d</fix>
</trkpt>
<trkpt lat="-27.274439" lon="151.290064">
  <ele>343.2</ele>
  <time>2026-09-01T19:54:15Z</time>
  <course>10.76</course>
  <speed>0.0</speed>
  <fix>3d</fix>
</trkpt>
<trkpt lat="-27.274439" lon="151.290064">
  <ele>343.1</ele>
  <time>2026-09-01T19:54:15Z</time>
  <course>348.74</course>
  <speed>0.0</speed>
  <fix>3d</fix>
</trkpt>
<trkpt lat="-27.274439" lon="151.290064">
  <ele>343.13</ele>
  <time>2026-09-01T19:54:15Z</time>
  <course>10.76</course>
  <speed>0.0</speed>
  <fix>3d</fix>
</trkpt>
<trkpt lat="-27.274439" lon="151.290064">
  <ele>343.1</ele>
  <time>2026-09-01T19:54:15Z</time>
  <course>348.74</course>
  <speed>0.0</speed>
  <fix>3d</fix>
</trkpt>
<trkpt lat="-27.274439" lon="151.290064">
  <ele>343.09</ele>
  <time>2026-09-01T19:54:15Z</time>
  <course>10.71</course>
  <speed>0.0</speed>
  <fix>3d</fix>
</trkpt>
<trkpt lat="-27.274439" lon="151.290064">
  <ele>343.1</ele>
  <time>2026-09-01T19:54:15Z</time>
  <course>19.32</course>
  <speed>0.0</speed>
  <fix>3d</fix>
</trkpt>
<trkpt lat="-27.274439" lon="151.290064">
  <ele>343.09</ele>
  <time>2026-09-01T19:54:15Z</time>
  <course>10.71</course>
  <speed>0.0</speed>
  <fix>3d</fix>
</trkpt>
<trkpt lat="-27.274439" lon="151.290064">
  <ele>343.1</ele>
  <time>2026-09-01T19:54:15Z</time>
  <course>19.32</course>
  <speed>0.0</speed>
  <fix>3d</fix>
</trkpt>
<trkpt lat="-27.274439" lon="151.290064">
  <ele>343.1</ele>
  <time>2026-09-01T19:54:15Z</time>
  <course>10.71</course>
  <speed>0.0</speed>
  <fix>3d</fix>
</trkpt>
<trkpt lat="-27.274439" lon="151.290064">
  <ele>343.1</ele>
  <time>2026-09-01T19:54:15Z</time>
  <course>13.46</course>
  <speed>0.0</speed>
  <fix>3d</fix>
</trkpt>
<trkpt lat="-27.274439" lon="151.290064">
  <ele>343.1</ele>
  <time>2026-09-01T19:54:15Z</time>
  <course>10.71</course>
  <speed>0.0</speed>
  <fix>3d</fix>
</trkpt>
<trkpt lat="-27.274439" lon="151.290064">
  <ele>343.1</ele>
  <time>2026-09-01T19:54:15Z</time>
  <course>13.46</course>
  <speed>0.0</speed>
  <fix>3d</fix>
</trkpt>
<trkpt lat="-27.274439" lon="151.290064">
  <ele>343.1</ele>
  <time>2026-09-01T19:54:15Z</time>
  <course>10.71</course>
  <speed>0.0</speed>
  <fix>3d</fix>
</trkpt>
<trkpt lat="-27.274439" lon="151.290064">
  <ele>343.1</ele>
  <time>2026-09-01T19:54:15Z</time>
  <course>352.69</course>
  <speed>0.0</speed>
  <fix>3d</fix>
</trkpt>
<trkpt lat="-27.274439" lon="151.290064">
  <ele>343.1</ele>
  <time>2026-09-01T19:54:15Z</time>
  <course>10.71</course>
  <speed>0.0</speed>
  <fix>3d</fix>
</trkpt>
<trkpt lat="-27.274439" lon="151.290064">
  <ele>343.1</ele>
  <time>2026-09-01T19:54:15Z</time>
  <course>352.69</course>
  <speed>0.0</speed>
  <fix>3d</fix>
</trkpt>
<trkpt lat="-27.274439" lon="151.290064">
  <ele>343.1</ele>
  <time>2026-09-01T19:54:15Z</time>
  <course>10.71</course>
  <speed>0.0</speed>
  <fix>3d</fix>
</trkpt>
<trkpt lat="-27.274439" lon="151.290064">
  <ele>343.1</ele>
  <time>2026-09-01T19:54:15Z</time>
  <course>357.44</course>
  <speed>0.0</speed>
  <fix>3d</fix>
</trkpt>
<trkpt lat="-27.274439" lon="151.290064">
  <ele>343.11</ele>
  <time>2026-09-01T19:54:15Z</time>
  <course>10.71</course>
  <speed>0.0</speed>
  <fix>3d</fix>
</trkpt>
<trkpt lat="-27.274439" lon="151.290064">
  <ele>343.1</ele>
  <time>2026-09-01T19:54:15Z</time>
  <course>357.44</course>
  <speed>0.0</speed>
  <fix>3d</fix>
</trkpt>
<trkpt lat="-27.274439" lon="151.290064">
  <ele>343.11</ele>
  <time>2026-09-01T19:54:15Z</time>
  <course>10.71</course>
  <speed>0.0</speed>
  <fix>3d</fix>
</trkpt>
<trkpt lat="-27.274439" lon="151.290064">
  <ele>343.1</ele>
  <time>2026-09-01T19:54:15Z</time>
  <course>25.88</course>
  <speed>0.0</speed>
  <fix>3d</fix>
</trkpt>
<trkpt lat="-27.274439" lon="151.290064">
  <ele>343.11</ele>
  <time>2026-09-01T19:54:15Z</time>
  <course>10.71</course>
  <speed>0.0</speed>
  <fix>3d</fix>
</trkpt>
<trkpt lat="-27.274439" lon="151.290064">
  <ele>343.1</ele>
  <time>2026-09-01T19:54:15Z</time>
  <course>25.88</course>
  <speed>0.0</speed>
  <fix>3d</fix>
</trkpt>
<trkpt lat="-27.274439" lon="151.290064">
  <ele>343.12</ele>
  <time>2026-09-01T19:54:15Z</time>
  <course>10.71</course>
  <speed>0.0</speed>
  <fix>3d</fix>
</trkpt>
<trkpt lat="-27.274439" lon="151.290064">
  <ele>343.1</ele>
  <time>2026-09-01T19:54:15Z</time>
  <course>12.75</course>
  <speed>0.0</speed>
  <fix>3d</fix>
</trkpt>
<trkpt lat="-27.274439" lon="151.290064">
  <ele>343.12</ele>
  <time>2026-09-01T19:54:15Z</time>
  <course>10.71</course>
  <speed>0.0</speed>
  <fix>3d</fix>
</trkpt>
<trkpt lat="-27.274439" lon="151.290064">
  <ele>343.1</ele>
  <time>2026-09-01T19:54:15Z</time>
  <course>12.75</course>
  <speed>0.0</speed>
  <fix>3d</fix>
</trkpt>
<trkpt lat="-27.274439" lon="151.290064">
  <ele>343.1</ele>
  <time>2026-09-01T19:54:15Z</time>
  <course>10.71</course>
  <speed>0.0</speed>
  <fix>3d</fix>
</trkpt>
<trkpt lat="-27.274439" lon="151.290064">
  <ele>343.1</ele>
  <time>2026-09-01T19:54:15Z</time>
  <course>358.78</course>
  <speed>0.0</speed>
  <fix>3d</fix>
</trkpt>
<trkpt lat="-27.274439" lon="151.290064">
  <ele>343.1</ele>
  <time>2026-09-01T19:54:15Z</time>
  <course>10.71</course>
  <speed>0.0</speed>
  <fix>3d</fix>
</trkpt>
<trkpt lat="-27.274439" lon="151.290064">
  <ele>343.1</ele>
  <time>2026-09-01T19:54:15Z</time>
  <course>358.78</course>
  <speed>0.0</speed>
  <fix>3d</fix>
</trkpt>
<trkpt lat="-27.274439" lon="151.290064">
  <ele>343.1</ele>
  <time>2026-09-01T19:54:15Z</time>
  <course>10.71</course>
  <speed>0.0</speed>
  <fix>3d</fix>
</trkpt>
<trkpt lat="-27.274439" lon="151.290064">
  <ele>343.1</ele>
  <time>2026-09-01T19:54:15Z</time>
  <course>332.53</course>
  <speed>0.0</speed>
  <fix>3d</fix>
</trkpt>
<trkpt lat="-27.274439" lon="151.290064">
  <ele>343.09</ele>
  <time>2026-09-01T19:54:15Z</time>
  <course>10.71</course>
  <speed>0.0</speed>
  <fix>3d</fix>
</trkpt>
<trkpt lat="-27.274439" lon="151.290064">
  <ele>343.1</ele>
  <time>2026-09-01T19:54:15Z</time>
  <course>332.53</course>
  <speed>0.0</speed>
  <fix>3d</fix>
</trkpt>
<trkpt lat="-27.274439" lon="151.290064">
  <ele>343.09</ele>
  <time>2026-09-01T19:54:15Z</time>
  <course>10.71</course>
  <speed>0.0</speed>
  <fix>3d</fix>
</trkpt>
<trkpt lat="-27.274439" lon="151.290064">
  <ele>343.1</ele>
  <time>2026-09-01T19:54:15Z</time>
  <course>0.51</course>
  <speed>0.0</speed>
  <fix>3d</fix>
</trkpt>
<trkpt lat="-27.274439" lon="151.290064">
  <ele>343.09</ele>
  <time>2026-09-01T19:54:15Z</time>
  <course>10.71</course>
  <speed>0.0</speed>
  <fix>3d</fix>
</trkpt>
<trkpt lat="-27.274439" lon="151.290064">
  <ele>343.1</ele>
  <time>2026-09-01T19:54:15Z</time>
  <course>0.51</course>
  <speed>0.0</speed>
  <fix>3d</fix>
</trkpt>
<trkpt lat="-27.274439" lon="151.290064">
  <ele>343.1</ele>
  <time>2026-09-01T19:54:15Z</time>
  <course>10.71</course>
  <speed>0.0</speed>
  <fix>3d</fix>
</trkpt>
<trkpt lat="-27.274439" lon="151.290064">
  <ele>343.1</ele>
  <time>2026-09-01T19:54:15Z</time>
  <course>9.05</course>
  <speed>0.0</speed>
  <fix>3d</fix>
</trkpt>
<trkpt lat="-27.274439" lon="151.290064">
  <ele>343.1</ele>
  <time>2026-09-01T19:54:15Z</time>
  <course>10.71</course>
  <speed>0.0</speed>
  <fix>3d</fix>
</trkpt>
<trkpt lat="-27.274439" lon="151.290064">
  <ele>343.1</ele>
  <time>2026-09-01T19:54:15Z</time>
  <course>9.05</course>
  <speed>0.0</speed>
  <fix>3d</fix>
</trkpt>
<trkpt lat="-27.274439" lon="151.290064">
  <ele>343.09</ele>
  <time>2026-09-01T19:54:15Z</time>
  <course>10.71</course>
  <speed>0.0</speed>
  <fix>3d</fix>
</trkpt>
<trkpt lat="-27.274439" lon="151.290064">
  <ele>343.1</ele>
  <time>2026-09-01T19:54:15Z</time>
  <course>6.15</course>
  <speed>0.0</speed>
  <fix>3d</fix>
</trkpt>
<trkpt lat="-27.274439" lon="151.290064">
  <ele>343.09</ele>
  <time>2026-09-01T19:54:15Z</time>
  <course>10.71</course>
  <speed>0.0</speed>
  <fix>3d</fix>
</trkpt>
<trkpt lat="-27.274439" lon="151.290064">
  <ele>343.1</ele>
  <time>2026-09-01T19:54:15Z</time>
  <course>6.15</course>
  <speed>0.0</speed>
  <fix>3d</fix>
</trkpt>
<trkpt lat="-27.274439" lon="151.290064">
  <ele>343.09</ele>
  <time>2026-09-01T19:54:15Z</time>
  <course>10.71</course>
  <speed>0.0</speed>
  <fix>3d</fix>
</trkpt>
<trkpt lat="-27.274439" lon="151.290064">
  <ele>343.1</ele>
  <time>2026-09-01T19:54:15Z</time>
  <course>22.86</course>
  <speed>0.0</speed>
  <fix>3d</fix>
</trkpt>
<trkpt lat="-27.274439" lon="151.290064">
  <ele>343.09</ele>
  <time>2026-09-01T19:54:15Z</time>
  <course>10.71</course>
  <speed>0.0</speed>
  <fix>3d</fix>
</trkpt>
<trkpt lat="-27.274439" lon="151.290064">
  <ele>343.1</ele>
  <time>2026-09-01T19:54:15Z</time>
  <course>22.86</course>
  <speed>0.0</speed>
  <fix>3d</fix>
</trkpt>
<trkpt lat="-27.274439" lon="151.290064">
  <ele>343.09</ele>
  <time>2026-09-01T19:54:15Z</time>
  <course>10.71</course>
  <speed>0.0</speed>
  <fix>3d</fix>
</trkpt>
<trkpt lat="-27.274439" lon="151.290064">
  <ele>343.1</ele>
  <time>2026-09-01T19:54:15Z</time>
  <course>4.14</course>
  <speed>0.0</speed>
  <fix>3d</fix>
</trkpt>
<trkpt lat="-27.274439" lon="151.290064">
  <ele>343.09</ele>
  <time>2026-09-01T19:54:15Z</time>
  <course>10.71</course>
  <speed>0.0</speed>
  <fix>3d</fix>
</trkpt>
<trkpt lat="-27.274439" lon="151.290064">
  <ele>343.1</ele>
  <time>2026-09-01T19:54:15Z</time>
  <course>4.14</course>
  <speed>0.0</speed>
  <fix>3d</fix>
</trkpt>
<trkpt lat="-27.274439" lon="151.290064">
  <ele>343.09</ele>
  <time>2026-09-01T19:54:15Z</time>
  <course>10.71</course>
  <speed>0.0</speed>
  <fix>3d</fix>
</trkpt>
<trkpt lat="-27.274439" lon="151.290064">
  <ele>343.1</ele>
  <time>2026-09-01T19:54:15Z</time>
  <course>0.81</course>
  <speed>0.0</speed>
  <fix>3d</fix>
</trkpt>
<trkpt lat="-27.274439" lon="151.290064">
  <ele>343.09</ele>
  <time>2026-09-01T19:54:15Z</time>
  <course>10.71</course>
  <speed>0.0</speed>
  <fix>3d</fix>
</trkpt>
<trkpt lat="-27.274439" lon="151.290064">
  <ele>343.1</ele>
  <time>2026-09-01T19:54:15Z</time>
  <course>0.81</course>
  <speed>0.0</speed>
  <fix>3d</fix>
</trkpt>
<trkpt lat="-27.274439" lon="151.290064">
  <ele>343.1</ele>
  <time>2026-09-01T19:54:15Z</time>
  <course>10.71</course>
  <speed>0.0</speed>
  <fix>3d</fix>
</trkpt>
<trkpt lat="-27.274439" lon="151.290064">
  <ele>343.1</ele>
  <time>2026-09-01T19:54:15Z</time>
  <course>3.71</course>
  <speed>0.0</speed>
  <fix>3d</fix>
</trkpt>
<trkpt lat="-27.274439" lon="151.290064">
  <ele>343.1</ele>
  <time>2026-09-01T19:54:15Z</time>
  <course>10.71</course>
  <speed>0.0</speed>
  <fix>3d</fix>
</trkpt>
<trkpt lat="-27.274439" lon="151.290064">
  <ele>343.1</ele>
  <time>2026-09-01T19:54:15Z</time>
  <course>3.71</course>
  <speed>0.0</speed>
  <fix>3d</fix>
</trkpt>
<trkpt lat="-27.274439" lon="151.290064">
  <ele>343.1</ele>
  <time>2026-09-01T19:54:15Z</time>
  <course>10.71</course>
  <speed>0.0</speed>
  <fix>3d</fix>
</trkpt>
<trkpt lat="-27.274439" lon="151.290064">
  <ele>343.1</ele>
  <time>2026-09-01T19:54:15Z</time>
  <course>13.88</course>
  <speed>0.0</speed>
  <fix>3d</fix>
</trkpt>
<trkpt lat="-27.274439" lon="151.290064">
  <ele>343.1</ele>
  <time>2026-09-01T19:54:15Z</time>
  <course>10.71</course>
  <speed>0.0</speed>
  <fix>3d</fix>
</trkpt>
<trkpt lat="-27.274439" lon="151.290064">
  <ele>343.1</ele>
  <time>2026-09-01T19:54:15Z</time>
  <course>13.88</course>
  <speed>0.0</speed>
  <fix>3d</fix>
</trkpt>
<trkpt lat="-27.274439" lon="151.290064">
  <ele>343.11</ele>
  <time>2026-09-01T19:54:15Z</time>
  <course>10.71</course>
  <speed>0.0</speed>
  <fix>3d</fix>
</trkpt>
<trkpt lat="-27.274439" lon="151.290064">
  <ele>343.1</ele>
  <time>2026-09-01T19:54:15Z</time>
  <course>7.36</course>
  <speed>0.0</speed>
  <fix>3d</fix>
</trkpt>
<trkpt lat="-27.274439" lon="151.290064">
  <ele>343.11</ele>
  <time>2026-09-01T19:54:15Z</time>
  <course>10.71</course>
  <speed>0.0</speed>
  <fix>3d</fix>
</trkpt>
<trkpt lat="-27.274439" lon="151.290064">
  <ele>343.1</ele>
  <time>2026-09-01T19:54:15Z</time>
  <course>7.36</course>
  <speed>0.0</speed>
  <fix>3d</fix>
</trkpt>
<trkpt lat="-27.274439" lon="151.290064">
  <ele>343.11</ele>
  <time>2026-09-01T19:54:15Z</time>
  <course>10.71</course>
  <speed>0.0</speed>
  <fix>3d</fix>
</trkpt>
<trkpt lat="-27.274439" lon="151.290064">
  <ele>343.1</ele>
  <time>2026-09-01T19:54:15Z</time>
  <course>326.94</course>
  <speed>0.0</speed>
  <fix>3d</fix>
</trkpt>
<trkpt lat="-27.274439" lon="151.290064">
  <ele>343.11</ele>
  <time>2026-09-01T19:54:15Z</time>
  <course>10.71</course>
  <speed>0.0</speed>
  <fix>3d</fix>
</trkpt>
<trkpt lat="-27.274439" lon="151.290064">
  <ele>343.1</ele>
  <time>2026-09-01T19:54:15Z</time>
  <course>326.94</course>
  <speed>0.0</speed>
  <fix>3d</fix>
</trkpt>
<trkpt lat="-27.274439" lon="151.290064">
  <ele>343.12</ele>
  <time>2026-09-01T19:54:15Z</time>
  <course>10.71</course>
  <speed>0.0</speed>
  <fix>3d</fix>
</trkpt>
<trkpt lat="-27.274439" lon="151.290064">
  <ele>343.1</ele>
  <time>2026-09-01T19:54:15Z</time>
  <course>326.77</course>
  <speed>0.0</speed>
  <fix>3d</fix>
</trkpt>
<trkpt lat="-27.274439" lon="151.290064">
  <ele>343.12</ele>
  <time>2026-09-01T19:54:15Z</time>
  <course>10.71</course>
  <speed>0.0</speed>
  <fix>3d</fix>
</trkpt>
<trkpt lat="-27.274439" lon="151.290064">
  <ele>343.1</ele>
  <time>2026-09-01T19:54:15Z</time>
  <course>326.77</course>
  <speed>0.0</speed>
  <fix>3d</fix>
</trkpt>
<trkpt lat="-27.274439" lon="151.290064">
  <ele>343.12</ele>
  <time>2026-09-01T19:54:15Z</time>
  <course>10.71</course>
  <speed>0.0</speed>
  <fix>3d</fix>
</trkpt>
<trkpt lat="-27.274439" lon="151.290064">
  <ele>343.1</ele>
  <time>2026-09-01T19:54:15Z</time>
  <course>28.08</course>
  <speed>0.0</speed>
  <fix>3d</fix>
</trkpt>
<trkpt lat="-27.274439" lon="151.290064">
  <ele>343.12</ele>
  <time>2026-09-01T19:54:15Z</time>
  <course>10.71</course>
  <speed>0.0</speed>
  <fix>3d</fix>
</trkpt>
<trkpt lat="-27.274439" lon="151.290064">
  <ele>343.1</ele>
  <time>2026-09-01T19:54:15Z</time>
  <course>28.08</course>
  <speed>0.0</speed>
  <fix>3d</fix>
</trkpt>
<trkpt lat="-27.274439" lon="151.290064">
  <ele>343.12</ele>
  <time>2026-09-01T19:54:15Z</time>
  <course>10.71</course>
  <speed>0.0</speed>
  <fix>3d</fix>
</trkpt>
<trkpt lat="-27.274439" lon="151.290064">
  <ele>343.1</ele>
  <time>2026-09-01T19:54:15Z</time>
  <course>19.51</course>
  <speed>0.0</speed>
  <fix>3d</fix>
</trkpt>
<trkpt lat="-27.274439" lon="151.290064">
  <ele>343.13</ele>
  <time>2026-09-01T19:54:15Z</time>
  <course>10.71</course>
  <speed>0.0</speed>
  <fix>3d</fix>
</trkpt>
<trkpt lat="-27.274439" lon="151.290064">
  <ele>343.1</ele>
  <time>2026-09-01T19:54:15Z</time>
  <course>19.51</course>
  <speed>0.0</speed>
  <fix>3d</fix>
</trkpt>
<trkpt lat="-27.274439" lon="151.290064">
  <ele>343.13</ele>
  <time>2026-09-01T19:54:15Z</time>
  <course>10.71</course>
  <speed>0.0</speed>
  <fix>3d</fix>
</trkpt>
<trkpt lat="-27.274439" lon="151.290064">
  <ele>343.1</ele>
  <time>2026-09-01T19:54:15Z</time>
  <course>346.63</course>
  <speed>0.0</speed>
  <fix>3d</fix>
</trkpt>
<trkpt lat="-27.274439" lon="151.290064">
  <ele>343.13</ele>
  <time>2026-09-01T19:54:15Z</time>
  <course>10.71</course>
  <speed>0.0</speed>
  <fix>3d</fix>
</trkpt>
<trkpt lat="-27.274439" lon="151.290064">
  <ele>343.1</ele>
  <time>2026-09-01T19:54:15Z</time>
  <course>346.63</course>
  <speed>0.0</speed>
  <fix>3d</fix>
</trkpt>
<trkpt lat="-27.274439" lon="151.290064">
  <ele>343.13</ele>
  <time>2026-09-01T19:54:15Z</time>
  <course>10.71</course>
  <speed>0.0</speed>
  <fix>3d</fix>
</trkpt>
<trkpt lat="-27.274439" lon="151.290064">
  <ele>343.1</ele>
  <time>2026-09-01T19:54:15Z</time>
  <course>27.14</course>
  <speed>0.0</speed>
  <fix>3d</fix>
</trkpt>
<trkpt lat="-27.274439" lon="151.290064">
  <ele>343.14</ele>
  <time>2026-09-01T19:54:15Z</time>
  <course>10.71</course>
  <speed>0.0</speed>
  <fix>3d</fix>
</trkpt>
<trkpt lat="-27.274439" lon="151.290064">
  <ele>343.1</ele>
  <time>2026-09-01T19:54:15Z</time>
  <course>27.14</course>
  <speed>0.0</speed>
  <fix>3d</fix>
</trkpt>
<trkpt lat="-27.274439" lon="151.290064">
  <ele>343.14</ele>
  <time>2026-09-01T19:54:15Z</time>
  <course>10.71</course>
  <speed>0.0</speed>
  <fix>3d</fix>
</trkpt>
<trkpt lat="-27.274439" lon="151.290064">
  <ele>343.1</ele>
  <time>2026-09-01T19:54:15Z</time>
  <course>31.06</course>
  <speed>0.0</speed>
  <fix>3d</fix>
</trkpt>
<trkpt lat="-27.274439" lon="151.290064">
  <ele>343.14</ele>
  <time>2026-09-01T19:54:15Z</time>
  <course>10.71</course>
  <speed>0.0</speed>
  <fix>3d</fix>
</trkpt>
<trkpt lat="-27.274439" lon="151.290064">
  <ele>343.1</ele>
  <time>2026-09-01T19:54:15Z</time>
  <course>31.06</course>
  <speed>0.0</speed>
  <fix>3d</fix>
</trkpt>
<trkpt lat="-27.274439" lon="151.290064">
  <ele>343.14</ele>
  <time>2026-09-01T19:54:15Z</time>
  <course>10.71</course>
  <speed>0.0</speed>
  <fix>3d</fix>
</trkpt>
<trkpt lat="-27.274439" lon="151.290064">
  <ele>343.1</ele>
  <time>2026-09-01T19:54:15Z</time>
  <course>2.11</course>
  <speed>0.0</speed>
  <fix>3d</fix>
</trkpt>
<trkpt lat="-27.274439" lon="151.290064">
  <ele>343.14</ele>
  <time>2026-09-01T19:54:15Z</time>
  <course>10.71</course>
  <speed>0.0</speed>
  <fix>3d</fix>
</trkpt>
<trkpt lat="-27.274439" lon="151.290064">
  <ele>343.1</ele>
  <time>2026-09-01T19:54:15Z</time>
  <course>2.11</course>
  <speed>0.0</speed>
  <fix>3d</fix>
</trkpt>
<trkpt lat="-27.274439" lon="151.290064">
  <ele>343.14</ele>
  <time>2026-09-01T19:54:15Z</time>
  <course>10.71</course>
  <speed>0.0</speed>
  <fix>3d</fix>
</trkpt>
<trkpt lat="-27.274439" lon="151.290064">
  <ele>343.1</ele>
  <time>2026-09-01T19:54:15Z</time>
  <course>356.08</course>
  <speed>0.0</speed>
  <fix>3d</fix>
</trkpt>
<trkpt lat="-27.274439" lon="151.290064">
  <ele>343.14</ele>
  <time>2026-09-01T19:54:15Z</time>
  <course>10.71</course>
  <speed>0.0</speed>
  <fix>3d</fix>
</trkpt>
<trkpt lat="-27.274439" lon="151.290064">
  <ele>343.1</ele>
  <time>2026-09-01T19:54:15Z</time>
  <course>356.08</course>
  <speed>0.0</speed>
  <fix>3d</fix>
</trkpt>
<trkpt lat="-27.274439" lon="151.290064">
  <ele>343.14</ele>
  <time>2026-09-01T19:54:15Z</time>
  <course>10.71</course>
  <speed>0.0</speed>
  <fix>3d</fix>
</trkpt>
<trkpt lat="-27.274439" lon="151.290064">
  <ele>343.1</ele>
  <time>2026-09-01T19:54:15Z</time>
  <course>1.82</course>
  <speed>0.0</speed>
  <fix>3d</fix>
</trkpt>
<trkpt lat="-27.274439" lon="151.290064">
  <ele>343.13</ele>
  <time>2026-09-01T19:54:15Z</time>
  <course>10.71</course>
  <speed>0.0</speed>
  <fix>3d</fix>
</trkpt>
<trkpt lat="-27.274439" lon="151.290064">
  <ele>343.1</ele>
  <time>2026-09-01T19:54:15Z</time>
  <course>1.82</course>
  <speed>0.0</speed>
  <fix>3d</fix>
</trkpt>
<trkpt lat="-27.274439" lon="151.290064">
  <ele>343.13</ele>
  <time>2026-09-01T19:54:15Z</time>
  <course>10.71</course>
  <speed>0.0</speed>
  <fix>3d</fix>
</trkpt>
<trkpt lat="-27.274439" lon="151.290064">
  <ele>343.1</ele>
  <time>2026-09-01T19:54:15Z</time>
  <course>15.12</course>
  <speed>0.0</speed>
  <fix>3d</fix>
</trkpt>
<trkpt lat="-27.274439" lon="151.290064">
  <ele>343.13</ele>
  <time>2026-09-01T19:54:15Z</time>
  <course>10.71</course>
  <speed>0.0</speed>
  <fix>3d</fix>
</trkpt>
<trkpt lat="-27.274439" lon="151.290064">
  <ele>343.1</ele>
  <time>2026-09-01T19:54:15Z</time>
  <course>15.12</course>
  <speed>0.0</speed>
  <fix>3d</fix>
</trkpt>
<trkpt lat="-27.274439" lon="151.290064">
  <ele>343.13</ele>
  <time>2026-09-01T19:54:15Z</time>
  <course>10.71</course>
  <speed>0.0</speed>
  <fix>3d</fix>
</trkpt>
<trkpt lat="-27.274439" lon="151.290064">
  <ele>343.1</ele>
  <time>2026-09-01T19:54:15Z</time>
  <course>2.44</course>
  <speed>0.0</speed>
  <fix>3d</fix>
</trkpt>
<trkpt lat="-27.274439" lon="151.290064">
  <ele>343.13</ele>
  <time>2026-09-01T19:54:15Z</time>
  <course>10.71</course>
  <speed>0.0</speed>
  <fix>3d</fix>
</trkpt>
<trkpt lat="-27.274439" lon="151.290064">
  <ele>343.1</ele>
  <time>2026-09-01T19:54:15Z</time>
  <course>2.44</course>
  <speed>0.0</speed>
  <fix>3d</fix>
</trkpt>
<trkpt lat="-27.274439" lon="151.290064">
  <ele>343.13</ele>
  <time>2026-09-01T19:54:15Z</time>
  <course>10.71</course>
  <speed>0.0</speed>
  <fix>3d</fix>
</trkpt>
<trkpt lat="-27.274439" lon="151.290064">
  <ele>343.1</ele>
  <time>2026-09-01T19:54:15Z</time>
  <course>358.21</course>
  <speed>0.0</speed>
  <fix>3d</fix>
</trkpt>
<trkpt lat="-27.274439" lon="151.290064">
  <ele>343.13</ele>
  <time>2026-09-01T19:54:15Z</time>
  <course>10.71</course>
  <speed>0.0</speed>
  <fix>3d</fix>
</trkpt>
<trkpt lat="-27.274439" lon="151.290064">
  <ele>343.1</ele>
  <time>2026-09-01T19:54:15Z</time>
  <course>358.21</course>
  <speed>0.0</speed>
  <fix>3d</fix>
</trkpt>
<trkpt lat="-27.274439" lon="151.290064">
  <ele>343.13</ele>
  <time>2026-09-01T19:54:15Z</time>
  <course>10.71</course>
  <speed>0.0</speed>
  <fix>3d</fix>
</trkpt>
<trkpt lat="-27.274439" lon="151.290064">
  <ele>343.1</ele>
  <time>2026-09-01T19:54:15Z</time>
  <course>359.35</course>
  <speed>0.0</speed>
  <fix>3d</fix>
</trkpt>
<trkpt lat="-27.274439" lon="151.290064">
  <ele>343.14</ele>
  <time>2026-09-01T19:54:15Z</time>
  <course>10.71</course>
  <speed>0.0</speed>
  <fix>3d</fix>
</trkpt>
<trkpt lat="-27.274439" lon="151.290064">
  <ele>343.1</ele>
  <time>2026-09-01T19:54:15Z</time>
  <course>359.35</course>
  <speed>0.0</speed>
  <fix>3d</fix>
</trkpt>
<trkpt lat="-27.274439" lon="151.290064">
  <ele>343.14</ele>
  <time>2026-09-01T19:54:15Z</time>
  <course>10.71</course>
  <speed>0.0</speed>
  <fix>3d</fix>
</trkpt>
<trkpt lat="-27.274439" lon="151.290064">
  <ele>343.1</ele>
  <time>2026-09-01T19:54:15Z</time>
  <course>3.96</course>
  <speed>0.0</speed>
  <fix>3d</fix>
</trkpt>
<trkpt lat="-27.274439" lon="151.290064">
  <ele>343.14</ele>
  <time>2026-09-01T19:54:15Z</time>
  <course>10.71</course>
  <speed>0.0</speed>
  <fix>3d</fix>
</trkpt>
<trkpt lat="-27.274439" lon="151.290064">
  <ele>343.1</ele>
  <time>2026-09-01T19:54:15Z</time>
  <course>3.96</course>
  <speed>0.0</speed>
  <fix>3d</fix>
</trkpt>
<trkpt lat="-27.274439" lon="151.290064">
  <ele>343.14</ele>
  <time>2026-09-01T19:54:15Z</time>
  <course>10.71</course>
  <speed>0.0</speed>
  <fix>3d</fix>
</trkpt>
<trkpt lat="-27.274439" lon="151.290064">
  <ele>343.1</ele>
  <time>2026-09-01T19:54:15Z</time>
  <course>358.72</course>
  <speed>0.0</speed>
  <fix>3d</fix>
</trkpt>
<trkpt lat="-27.274439" lon="151.290064">
  <ele>343.14</ele>
  <time>2026-09-01T19:54:15Z</time>
  <course>10.71</course>
  <speed>0.0</speed>
  <fix>3d</fix>
</trkpt>
<trkpt lat="-27.274439" lon="151.290064">
  <ele>343.1</ele>
  <time>2026-09-01T19:54:15Z</time>
  <course>358.72</course>
  <speed>0.0</speed>
  <fix>3d</fix>
</trkpt>
<trkpt lat="-27.274439" lon="151.290064">
  <ele>343.14</ele>
  <time>2026-09-01T19:54:15Z</time>
  <course>10.71</course>
  <speed>0.0</speed>
  <fix>3d</fix>
</trkpt>
<trkpt lat="-27.274439" lon="151.290064">
  <ele>343.1</ele>
  <time>2026-09-01T19:54:15Z</time>
  <course>3.54</course>
  <speed>0.0</speed>
  <fix>3d</fix>
</trkpt>
<trkpt lat="-27.274439" lon="151.290064">
  <ele>343.15</ele>
  <time>2026-09-01T19:54:15Z</time>
  <course>10.71</course>
  <speed>0.0</speed>
  <fix>3d</fix>
</trkpt>
<trkpt lat="-27.274439" lon="151.290064">
  <ele>343.1</ele>
  <time>2026-09-01T19:54:15Z</time>
  <course>3.54</course>
  <speed>0.0</speed>
  <fix>3d</fix>
</trkpt>
<trkpt lat="-27.274439" lon="151.290064">
  <ele>343.15</ele>
  <time>2026-09-01T19:54:15Z</time>
  <course>10.71</course>
  <speed>0.0</speed>
  <fix>3d</fix>
</trkpt>
<trkpt lat="-27.274439" lon="151.290064">
  <ele>343.1</ele>
  <time>2026-09-01T19:54:15Z</time>
  <course>11.53</course>
  <speed>0.0</speed>
  <fix>3d</fix>
</trkpt>
<trkpt lat="-27.274439" lon="151.290064">
  <ele>343.15</ele>
  <time>2026-09-01T19:54:15Z</time>
  <course>10.71</course>
  <speed>0.0</speed>
  <fix>3d</fix>
</trkpt>
<trkpt lat="-27.274439" lon="151.290064">
  <ele>343.1</ele>
  <time>2026-09-01T19:54:15Z</time>
  <course>11.53</course>
  <speed>0.0</speed>
  <fix>3d</fix>
</trkpt>
<trkpt lat="-27.274439" lon="151.290064">
  <ele>343.15</ele>
  <time>2026-09-01T19:54:15Z</time>
  <course>10.71</course>
  <speed>0.0</speed>
  <fix>3d</fix>
</trkpt>
<trkpt lat="-27.274439" lon="151.290064">
  <ele>343.1</ele>
  <time>2026-09-01T19:54:15Z</time>
  <course>0.02</course>
  <speed>0.0</speed>
  <fix>3d</fix>
</trkpt>
<trkpt lat="-27.274439" lon="151.290064">
  <ele>343.15</ele>
  <time>2026-09-01T19:54:15Z</time>
  <course>10.71</course>
  <speed>0.0</speed>
  <fix>3d</fix>
</trkpt>
<trkpt lat="-27.274439" lon="151.290064">
  <ele>343.1</ele>
  <time>2026-09-01T19:54:15Z</time>
  <course>0.02</course>
  <speed>0.0</speed>
  <fix>3d</fix>
</trkpt>
<trkpt lat="-27.274439" lon="151.290064">
  <ele>343.1</ele>
  <time>2026-09-01T19:54:15Z</time>
  <course>10.71</course>
  <speed>0.0</speed>
  <fix>3d</fix>
</trkpt>
<trkpt lat="-27.274439" lon="151.290064">
  <ele>343.1</ele>
  <time>2026-09-01T19:54:15Z</time>
  <course>349.12</course>
  <speed>0.0</speed>
  <fix>3d</fix>
</trkpt>
<trkpt lat="-27.274439" lon="151.290064">
  <ele>343.1</ele>
  <time>2026-09-01T19:54:15Z</time>
  <course>10.71</course>
  <speed>0.0</speed>
  <fix>3d</fix>
</trkpt>
<trkpt lat="-27.274439" lon="151.290064">
  <ele>343.1</ele>
  <time>2026-09-01T19:54:15Z</time>
  <course>349.12</course>
  <speed>0.0</speed>
  <fix>3d</fix>
</trkpt>
<trkpt lat="-27.274439" lon="151.290064">
  <ele>343.1</ele>
  <time>2026-09-01T19:54:15Z</time>
  <course>10.71</course>
  <speed>0.0</speed>
  <fix>3d</fix>
</trkpt>
<trkpt lat="-27.274439" lon="151.290064">
  <ele>343.1</ele>
  <time>2026-09-01T19:54:15Z</time>
  <course>0.62</course>
  <speed>0.0</speed>
  <fix>3d</fix>
</trkpt>
<trkpt lat="-27.274439" lon="151.290064">
  <ele>343.1</ele>
  <time>2026-09-01T19:54:15Z</time>
  <course>10.71</course>
  <speed>0.0</speed>
  <fix>3d</fix>
</trkpt>
<trkpt lat="-27.274439" lon="151.290064">
  <ele>343.1</ele>
  <time>2026-09-01T19:54:15Z</time>
  <course>0.62</course>
  <speed>0.0</speed>
  <fix>3d</fix>
</trkpt>
<trkpt lat="-27.274439" lon="151.290064">
  <ele>343.09</ele>
  <time>2026-09-01T19:54:15Z</time>
  <course>10.71</course>
  <speed>0.0</speed>
  <fix>3d</fix>
</trkpt>
<trkpt lat="-27.274439" lon="151.290064">
  <ele>343.1</ele>
  <time>2026-09-01T19:54:15Z</time>
  <course>46.05</course>
  <speed>0.0</speed>
  <fix>3d</fix>
</trkpt>
<trkpt lat="-27.274439" lon="151.290064">
  <ele>343.09</ele>
  <time>2026-09-01T19:54:16Z</time>
  <course>10.71</course>
  <speed>0.0</speed>
  <fix>3d</fix>
</trkpt>
<trkpt lat="-27.274439" lon="151.290064">
  <ele>343.1</ele>
  <time>2026-09-01T19:54:16Z</time>
  <course>46.05</course>
  <speed>0.0</speed>
  <fix>3d</fix>
</trkpt>
<trkpt lat="-27.274439" lon="151.290064">
  <ele>343.08</ele>
  <time>2026-09-01T19:54:16Z</time>
  <course>10.71</course>
  <speed>0.0</speed>
  <fix>3d</fix>
</trkpt>
<trkpt lat="-27.274439" lon="151.290064">
  <ele>343.1</ele>
  <time>2026-09-01T19:54:16Z</time>
  <course>39.38</course>
  <speed>0.0</speed>
  <fix>3d</fix>
</trkpt>
<trkpt lat="-27.274439" lon="151.290064">
  <ele>343.08</ele>
  <time>2026-09-01T19:54:16Z</time>
  <course>10.71</course>
  <speed>0.0</speed>
  <fix>3d</fix>
</trkpt>
<trkpt lat="-27.274439" lon="151.290064">
  <ele>343.1</ele>
  <time>2026-09-01T19:54:16Z</time>
  <course>39.38</course>
  <speed>0.0</speed>
  <fix>3d</fix>
</trkpt>
<trkpt lat="-27.274439" lon="151.290064">
  <ele>343.07</ele>
  <time>2026-09-01T19:54:16Z</time>
  <course>10.71</course>
  <speed>0.0</speed>
  <fix>3d</fix>
</trkpt>
<trkpt lat="-27.274439" lon="151.290064">
  <ele>343.1</ele>
  <time>2026-09-01T19:54:16Z</time>
  <course>359.59</course>
  <speed>0.0</speed>
  <fix>3d</fix>
</trkpt>
<trkpt lat="-27.274439" lon="151.290064">
  <ele>343.07</ele>
  <time>2026-09-01T19:54:16Z</time>
  <course>10.71</course>
  <speed>0.0</speed>
  <fix>3d</fix>
</trkpt>
<trkpt lat="-27.274439" lon="151.290064">
  <ele>343.1</ele>
  <time>2026-09-01T19:54:16Z</time>
  <course>359.59</course>
  <speed>0.0</speed>
  <fix>3d</fix>
</trkpt>
<trkpt lat="-27.274439" lon="151.290064">
  <ele>343.06</ele>
  <time>2026-09-01T19:54:16Z</time>
  <course>10.71</course>
  <speed>0.0</speed>
  <fix>3d</fix>
</trkpt>
<trkpt lat="-27.274439" lon="151.290064">
  <ele>343.1</ele>
  <time>2026-09-01T19:54:16Z</time>
  <course>358.81</course>
  <speed>0.0</speed>
  <fix>3d</fix>
</trkpt>
<trkpt lat="-27.274439" lon="151.290064">
  <ele>343.06</ele>
  <time>2026-09-01T19:54:16Z</time>
  <course>10.71</course>
  <speed>0.0</speed>
  <fix>3d</fix>
</trkpt>
<trkpt lat="-27.274439" lon="151.290064">
  <ele>343.1</ele>
  <time>2026-09-01T19:54:16Z</time>
  <course>358.81</course>
  <speed>0.0</speed>
  <fix>3d</fix>
</trkpt>
<trkpt lat="-27.274439" lon="151.290064">
  <ele>343.05</ele>
  <time>2026-09-01T19:54:16Z</time>
  <course>10.71</course>
  <speed>0.0</speed>
  <fix>3d</fix>
</trkpt>
<trkpt lat="-27.274439" lon="151.290064">
  <ele>343.1</ele>
  <time>2026-09-01T19:54:16Z</time>
  <course>12.67</course>
  <speed>0.0</speed>
  <fix>3d</fix>
</trkpt>
<trkpt lat="-27.274439" lon="151.290064">
  <ele>343.05</ele>
  <time>2026-09-01T19:54:16Z</time>
  <course>10.71</course>
  <speed>0.0</speed>
  <fix>3d</fix>
</trkpt>
<trkpt lat="-27.274439" lon="151.290064">
  <ele>343.1</ele>
  <time>2026-09-01T19:54:16Z</time>
  <course>12.67</course>
  <speed>0.0</speed>
  <fix>3d</fix>
</trkpt>
<trkpt lat="-27.274439" lon="151.290064">
  <ele>343.04</ele>
  <time>2026-09-01T19:54:16Z</time>
  <course>10.71</course>
  <speed>0.0</speed>
  <fix>3d</fix>
</trkpt>
<trkpt lat="-27.274439" lon="151.290064">
  <ele>343.1</ele>
  <time>2026-09-01T19:54:16Z</time>
  <course>354.58</course>
  <speed>0.0</speed>
  <fix>3d</fix>
</trkpt>
<trkpt lat="-27.274439" lon="151.290064">
  <ele>343.03</ele>
  <time>2026-09-01T19:54:16Z</time>
  <course>10.71</course>
  <speed>0.0</speed>
  <fix>3d</fix>
</trkpt>
<trkpt lat="-27.274439" lon="151.290064">
  <ele>343.1</ele>
  <time>2026-09-01T19:54:16Z</time>
  <course>354.58</course>
  <speed>0.0</speed>
  <fix>3d</fix>
</trkpt>
<trkpt lat="-27.274439" lon="151.290064">
  <ele>343.03</ele>
  <time>2026-09-01T19:54:16Z</time>
  <course>10.71</course>
  <speed>0.0</speed>
  <fix>3d</fix>
</trkpt>
<trkpt lat="-27.274439" lon="151.290064">
  <ele>343.1</ele>
  <time>2026-09-01T19:54:16Z</time>
  <course>356.26</course>
  <speed>0.0</speed>
  <fix>3d</fix>
</trkpt>
<trkpt lat="-27.274439" lon="151.290064">
  <ele>343.02</ele>
  <time>2026-09-01T19:54:16Z</time>
  <course>10.71</course>
  <speed>0.0</speed>
  <fix>3d</fix>
</trkpt>
<trkpt lat="-27.274439" lon="151.290064">
  <ele>343.1</ele>
  <time>2026-09-01T19:54:16Z</time>
  <course>356.26</course>
  <speed>0.0</speed>
  <fix>3d</fix>
</trkpt>
<trkpt lat="-27.274439" lon="151.290064">
  <ele>343.02</ele>
  <time>2026-09-01T19:54:16Z</time>
  <course>10.71</course>
  <speed>0.0</speed>
  <fix>3d</fix>
</trkpt>
<trkpt lat="-27.274439" lon="151.290064">
  <ele>343.1</ele>
  <time>2026-09-01T19:54:16Z</time>
  <course>14.89</course>
  <speed>0.0</speed>
  <fix>3d</fix>
</trkpt>
<trkpt lat="-27.274439" lon="151.290064">
  <ele>343.01</ele>
  <time>2026-09-01T19:54:16Z</time>
  <course>10.71</course>
  <speed>0.0</speed>
  <fix>3d</fix>
</trkpt>
<trkpt lat="-27.274439" lon="151.290064">
  <ele>343.1</ele>
  <time>2026-09-01T19:54:16Z</time>
  <course>14.89</course>
  <speed>0.0</speed>
  <fix>3d</fix>
</trkpt>
<trkpt lat="-27.274439" lon="151.290064">
  <ele>343.0</ele>
  <time>2026-09-01T19:54:16Z</time>
  <course>10.71</course>
  <speed>0.0</speed>
  <fix>3d</fix>
</trkpt>
<trkpt lat="-27.274439" lon="151.290064">
  <ele>343.1</ele>
  <time>2026-09-01T19:54:16Z</time>
  <course>352.78</course>
  <speed>0.0</speed>
  <fix>3d</fix>
</trkpt>
<trkpt lat="-27.274439" lon="151.290064">
  <ele>343.0</ele>
  <time>2026-09-01T19:54:16Z</time>
  <course>10.71</course>
  <speed>0.0</speed>
  <fix>3d</fix>
</trkpt>
<trkpt lat="-27.274439" lon="151.290064">
  <ele>343.1</ele>
  <time>2026-09-01T19:54:16Z</time>
  <course>352.78</course>
  <speed>0.0</speed>
  <fix>3d</fix>
</trkpt>
<trkpt lat="-27.274439" lon="151.290064">
  <ele>342.99</ele>
  <time>2026-09-01T19:54:16Z</time>
  <course>10.71</course>
  <speed>0.0</speed>
  <fix>3d</fix>
</trkpt>
<trkpt lat="-27.274439" lon="151.290064">
  <ele>343.1</ele>
  <time>2026-09-01T19:54:16Z</time>
  <course>356.9</course>
  <speed>0.0</speed>
  <fix>3d</fix>
</trkpt>
<trkpt lat="-27.274439" lon="151.290064">
  <ele>342.99</ele>
  <time>2026-09-01T19:54:16Z</time>
  <course>10.71</course>
  <speed>0.0</speed>
  <fix>3d</fix>
</trkpt>
<trkpt lat="-27.274439" lon="151.290064">
  <ele>343.1</ele>
  <time>2026-09-01T19:54:16Z</time>
  <course>356.9</course>
  <speed>0.0</speed>
  <fix>3d</fix>
</trkpt>
<trkpt lat="-27.274439" lon="151.290064">
  <ele>342.99</ele>
  <time>2026-09-01T19:54:16Z</time>
  <course>10.7</course>
  <speed>0.0</speed>
  <fix>3d</fix>
</trkpt>
<trkpt lat="-27.274439" lon="151.290064">
  <ele>343.1</ele>
  <time>2026-09-01T19:54:16Z</time>
  <course>7.05</course>
  <speed>0.0</speed>
  <fix>3d</fix>
</trkpt>
<trkpt lat="-27.274439" lon="151.290064">
  <ele>342.99</ele>
  <time>2026-09-01T19:54:16Z</time>
  <course>10.7</course>
  <speed>0.0</speed>
  <fix>3d</fix>
</trkpt>
<trkpt lat="-27.274439" lon="151.290064">
  <ele>343.1</ele>
  <time>2026-09-01T19:54:16Z</time>
  <course>7.05</course>
  <speed>0.0</speed>
  <fix>3d</fix>
</trkpt>
<trkpt lat="-27.274439" lon="151.290064">
  <ele>342.99</ele>
  <time>2026-09-01T19:54:16Z</time>
  <course>10.7</course>
  <speed>0.0</speed>
  <fix>3d</fix>
</trkpt>
<trkpt lat="-27.274439" lon="151.290064">
  <ele>343.1</ele>
  <time>2026-09-01T19:54:16Z</time>
  <course>0.16</course>
  <speed>0.0</speed>
  <fix>3d</fix>
</trkpt>
<trkpt lat="-27.274439" lon="151.290064">
  <ele>342.98</ele>
  <time>2026-09-01T19:54:16Z</time>
  <course>10.7</course>
  <speed>0.0</speed>
  <fix>3d</fix>
</trkpt>
<trkpt lat="-27.274439" lon="151.290064">
  <ele>343.1</ele>
  <time>2026-09-01T19:54:16Z</time>
  <course>0.16</course>
  <speed>0.0</speed>
  <fix>3d</fix>
</trkpt>
<trkpt lat="-27.274439" lon="151.290064">
  <ele>342.98</ele>
  <time>2026-09-01T19:54:16Z</time>
  <course>10.7</course>
  <speed>0.0</speed>
  <fix>3d</fix>
</trkpt>
<trkpt lat="-27.274439" lon="151.290064">
  <ele>343.1</ele>
  <time>2026-09-01T19:54:16Z</time>
  <course>2.99</course>
  <speed>0.0</speed>
  <fix>3d</fix>
</trkpt>
<trkpt lat="-27.274439" lon="151.290064">
  <ele>342.98</ele>
  <time>2026-09-01T19:54:16Z</time>
  <course>10.7</course>
  <speed>0.0</speed>
  <fix>3d</fix>
</trkpt>
<trkpt lat="-27.274439" lon="151.290064">
  <ele>343.1</ele>
  <time>2026-09-01T19:54:16Z</time>
  <course>2.99</course>
  <speed>0.0</speed>
  <fix>3d</fix>
</trkpt>
<trkpt lat="-27.274439" lon="151.290064">
  <ele>342.98</ele>
  <time>2026-09-01T19:54:16Z</time>
  <course>10.7</course>
  <speed>0.0</speed>
  <fix>3d</fix>
</trkpt>
<trkpt lat="-27.274439" lon="151.290064">
  <ele>343.1</ele>
  <time>2026-09-01T19:54:16Z</time>
  <course>14.72</course>
  <speed>0.0</speed>
  <fix>3d</fix>
</trkpt>
<trkpt lat="-27.274439" lon="151.290064">
  <ele>342.97</ele>
  <time>2026-09-01T19:54:16Z</time>
  <course>10.7</course>
  <speed>0.0</speed>
  <fix>3d</fix>
</trkpt>
<trkpt lat="-27.274439" lon="151.290064">
  <ele>343.1</ele>
  <time>2026-09-01T19:54:16Z</time>
  <course>14.72</course>
  <speed>0.0</speed>
  <fix>3d</fix>
</trkpt>
<trkpt lat="-27.274439" lon="151.290064">
  <ele>342.97</ele>
  <time>2026-09-01T19:54:16Z</time>
  <course>10.7</course>
  <speed>0.0</speed>
  <fix>3d</fix>
</trkpt>
<trkpt lat="-27.274439" lon="151.290064">
  <ele>343.1</ele>
  <time>2026-09-01T19:54:16Z</time>
  <course>25.08</course>
  <speed>0.0</speed>
  <fix>3d</fix>
</trkpt>
<trkpt lat="-27.274439" lon="151.290064">
  <ele>342.97</ele>
  <time>2026-09-01T19:54:16Z</time>
  <course>10.7</course>
  <speed>0.0</speed>
  <fix>3d</fix>
</trkpt>
<trkpt lat="-27.274439" lon="151.290064">
  <ele>343.1</ele>
  <time>2026-09-01T19:54:16Z</time>
  <course>25.08</course>
  <speed>0.0</speed>
  <fix>3d</fix>
</trkpt>
<trkpt lat="-27.274439" lon="151.290064">
  <ele>342.96</ele>
  <time>2026-09-01T19:54:16Z</time>
  <course>10.7</course>
  <speed>0.0</speed>
  <fix>3d</fix>
</trkpt>
<trkpt lat="-27.274439" lon="151.290064">
  <ele>343.1</ele>
  <time>2026-09-01T19:54:16Z</time>
  <course>21.26</course>
  <speed>0.0</speed>
  <fix>3d</fix>
</trkpt>
<trkpt lat="-27.274439" lon="151.290064">
  <ele>342.96</ele>
  <time>2026-09-01T19:54:16Z</time>
  <course>10.7</course>
  <speed>0.0</speed>
  <fix>3d</fix>
</trkpt>
<trkpt lat="-27.274439" lon="151.290064">
  <ele>343.1</ele>
  <time>2026-09-01T19:54:16Z</time>
  <course>21.26</course>
  <speed>0.0</speed>
  <fix>3d</fix>
</trkpt>
<trkpt lat="-27.274439" lon="151.290064">
  <ele>342.96</ele>
  <time>2026-09-01T19:54:16Z</time>
  <course>10.7</course>
  <speed>0.0</speed>
  <fix>3d</fix>
</trkpt>
<trkpt lat="-27.274439" lon="151.290064">
  <ele>343.1</ele>
  <time>2026-09-01T19:54:16Z</time>
  <course>2.58</course>
  <speed>0.0</speed>
  <fix>3d</fix>
</trkpt>
<trkpt lat="-27.274439" lon="151.290064">
  <ele>342.96</ele>
  <time>2026-09-01T19:54:16Z</time>
  <course>10.7</course>
  <speed>0.0</speed>
  <fix>3d</fix>
</trkpt>
<trkpt lat="-27.274439" lon="151.290064">
  <ele>343.1</ele>
  <time>2026-09-01T19:54:16Z</time>
  <course>2.58</course>
  <speed>0.0</speed>
  <fix>3d</fix>
</trkpt>
<trkpt lat="-27.274439" lon="151.290064">
  <ele>342.96</ele>
  <time>2026-09-01T19:54:16Z</time>
  <course>10.7</course>
  <speed>0.0</speed>
  <fix>3d</fix>
</trkpt>
<trkpt lat="-27.274439" lon="151.290064">
  <ele>343.1</ele>
  <time>2026-09-01T19:54:16Z</time>
  <course>11.6</course>
  <speed>0.0</speed>
  <fix>3d</fix>
</trkpt>
<trkpt lat="-27.274439" lon="151.290064">
  <ele>342.96</ele>
  <time>2026-09-01T19:54:16Z</time>
  <course>10.7</course>
  <speed>0.0</speed>
  <fix>3d</fix>
</trkpt>
<trkpt lat="-27.274439" lon="151.290064">
  <ele>343.1</ele>
  <time>2026-09-01T19:54:16Z</time>
  <course>11.6</course>
  <speed>0.0</speed>
  <fix>3d</fix>
</trkpt>
<trkpt lat="-27.274439" lon="151.290064">
  <ele>342.95</ele>
  <time>2026-09-01T19:54:16Z</time>
  <course>10.7</course>
  <speed>0.0</speed>
  <fix>3d</fix>
</trkpt>
<trkpt lat="-27.274439" lon="151.290064">
  <ele>343.1</ele>
  <time>2026-09-01T19:54:16Z</time>
  <course>14.16</course>
  <speed>0.0</speed>
  <fix>3d</fix>
</trkpt>
<trkpt lat="-27.274439" lon="151.290064">
  <ele>342.95</ele>
  <time>2026-09-01T19:54:16Z</time>
  <course>10.7</course>
  <speed>0.0</speed>
  <fix>3d</fix>
</trkpt>
<trkpt lat="-27.274439" lon="151.290064">
  <ele>343.1</ele>
  <time>2026-09-01T19:54:16Z</time>
  <course>14.16</course>
  <speed>0.0</speed>
  <fix>3d</fix>
</trkpt>
<trkpt lat="-27.274439" lon="151.290064">
  <ele>342.95</ele>
  <time>2026-09-01T19:54:16Z</time>
  <course>10.7</course>
  <speed>0.0</speed>
  <fix>3d</fix>
</trkpt>
<trkpt lat="-27.274439" lon="151.290064">
  <ele>343.1</ele>
  <time>2026-09-01T19:54:16Z</time>
  <course>3.08</course>
  <speed>0.0</speed>
  <fix>3d</fix>
</trkpt>
<trkpt lat="-27.274439" lon="151.290064">
  <ele>342.95</ele>
  <time>2026-09-01T19:54:16Z</time>
  <course>10.7</course>
  <speed>0.0</speed>
  <fix>3d</fix>
</trkpt>
<trkpt lat="-27.274439" lon="151.290064">
  <ele>343.1</ele>
  <time>2026-09-01T19:54:16Z</time>
  <course>3.08</course>
  <speed>0.0</speed>
  <fix>3d</fix>
</trkpt>
<trkpt lat="-27.274439" lon="151.290064">
  <ele>342.95</ele>
  <time>2026-09-01T19:54:16Z</time>
  <course>10.7</course>
  <speed>0.0</speed>
  <fix>3d</fix>
</trkpt>
<trkpt lat="-27.274439" lon="151.290064">
  <ele>343.1</ele>
  <time>2026-09-01T19:54:16Z</time>
  <course>12.04</course>
  <speed>0.0</speed>
  <fix>3d</fix>
</trkpt>
<trkpt lat="-27.274439" lon="151.290064">
  <ele>342.95</ele>
  <time>2026-09-01T19:54:16Z</time>
  <course>10.7</course>
  <speed>0.0</speed>
  <fix>3d</fix>
</trkpt>
<trkpt lat="-27.274439" lon="151.290064">
  <ele>343.1</ele>
  <time>2026-09-01T19:54:16Z</time>
  <course>12.04</course>
  <speed>0.0</speed>
  <fix>3d</fix>
</trkpt>
<trkpt lat="-27.274439" lon="151.290064">
  <ele>342.94</ele>
  <time>2026-09-01T19:54:16Z</time>
  <course>10.7</course>
  <speed>0.0</speed>
  <fix>3d</fix>
</trkpt>
<trkpt lat="-27.274439" lon="151.290064">
  <ele>343.1</ele>
  <time>2026-09-01T19:54:16Z</time>
  <course>8.8</course>
  <speed>0.0</speed>
  <fix>3d</fix>
</trkpt>
<trkpt lat="-27.274439" lon="151.290064">
  <ele>342.94</ele>
  <time>2026-09-01T19:54:16Z</time>
  <course>10.7</course>
  <speed>0.0</speed>
  <fix>3d</fix>
</trkpt>
<trkpt lat="-27.274439" lon="151.290064">
  <ele>343.1</ele>
  <time>2026-09-01T19:54:16Z</time>
  <course>8.8</course>
  <speed>0.0</speed>
  <fix>3d</fix>
</trkpt>
<trkpt lat="-27.274439" lon="151.290064">
  <ele>342.94</ele>
  <time>2026-09-01T19:54:16Z</time>
  <course>10.7</course>
  <speed>0.0</speed>
  <fix>3d</fix>
</trkpt>
<trkpt lat="-27.274439" lon="151.290064">
  <ele>343.1</ele>
  <time>2026-09-01T19:54:16Z</time>
  <course>355.84</course>
  <speed>0.0</speed>
  <fix>3d</fix>
</trkpt>
<trkpt lat="-27.274439" lon="151.290064">
  <ele>342.94</ele>
  <time>2026-09-01T19:54:16Z</time>
  <course>10.7</course>
  <speed>0.0</speed>
  <fix>3d</fix>
</trkpt>
<trkpt lat="-27.274439" lon="151.290064">
  <ele>343.1</ele>
  <time>2026-09-01T19:54:16Z</time>
  <course>355.84</course>
  <speed>0.0</speed>
  <fix>3d</fix>
</trkpt>
<trkpt lat="-27.274439" lon="151.290064">
  <ele>342.94</ele>
  <time>2026-09-01T19:54:16Z</time>
  <course>10.7</course>
  <speed>0.0</speed>
  <fix>3d</fix>
</trkpt>
<trkpt lat="-27.274439" lon="151.290064">
  <ele>343.1</ele>
  <time>2026-09-01T19:54:16Z</time>
  <course>352.73</course>
  <speed>0.0</speed>
  <fix>3d</fix>
</trkpt>
<trkpt lat="-27.274439" lon="151.290064">
  <ele>342.93</ele>
  <time>2026-09-01T19:54:16Z</time>
  <course>10.7</course>
  <speed>0.0</speed>
  <fix>3d</fix>
</trkpt>
<trkpt lat="-27.274439" lon="151.290064">
  <ele>343.1</ele>
  <time>2026-09-01T19:54:16Z</time>
  <course>352.73</course>
  <speed>0.0</speed>
  <fix>3d</fix>
</trkpt>
<trkpt lat="-27.274439" lon="151.290064">
  <ele>342.93</ele>
  <time>2026-09-01T19:54:16Z</time>
  <course>10.7</course>
  <speed>0.0</speed>
  <fix>3d</fix>
</trkpt>
<trkpt lat="-27.274439" lon="151.290064">
  <ele>343.1</ele>
  <time>2026-09-01T19:54:16Z</time>
  <course>4.71</course>
  <speed>0.0</speed>
  <fix>3d</fix>
</trkpt>
<trkpt lat="-27.274439" lon="151.290064">
  <ele>342.93</ele>
  <time>2026-09-01T19:54:16Z</time>
  <course>10.7</course>
  <speed>0.0</speed>
  <fix>3d</fix>
</trkpt>
<trkpt lat="-27.274439" lon="151.290064">
  <ele>343.1</ele>
  <time>2026-09-01T19:54:16Z</time>
  <course>4.71</course>
  <speed>0.0</speed>
  <fix>3d</fix>
</trkpt>
<trkpt lat="-27.274439" lon="151.290064">
  <ele>342.93</ele>
  <time>2026-09-01T19:54:16Z</time>
  <course>10.7</course>
  <speed>0.0</speed>
  <fix>3d</fix>
</trkpt>
<trkpt lat="-27.274439" lon="151.290064">
  <ele>343.1</ele>
  <time>2026-09-01T19:54:16Z</time>
  <course>8.23</course>
  <speed>0.0</speed>
  <fix>3d</fix>
</trkpt>
<trkpt lat="-27.274439" lon="151.290064">
  <ele>342.93</ele>
  <time>2026-09-01T19:54:16Z</time>
  <course>10.7</course>
  <speed>0.0</speed>
  <fix>3d</fix>
</trkpt>
<trkpt lat="-27.274439" lon="151.290064">
  <ele>343.1</ele>
  <time>2026-09-01T19:54:16Z</time>
  <course>8.23</course>
  <speed>0.0</speed>
  <fix>3d</fix>
</trkpt>
<trkpt lat="-27.274439" lon="151.290064">
  <ele>342.93</ele>
  <time>2026-09-01T19:54:16Z</time>
  <course>10.7</course>
  <speed>0.01</speed>
  <fix>3d</fix>
</trkpt>
<trkpt lat="-27.274439" lon="151.290064">
  <ele>343.1</ele>
  <time>2026-09-01T19:54:16Z</time>
  <course>20.06</course>
  <speed>0.0</speed>
  <fix>3d</fix>
</trkpt>
<trkpt lat="-27.274439" lon="151.290064">
  <ele>342.93</ele>
  <time>2026-09-01T19:54:16Z</time>
  <course>10.7</course>
  <speed>0.01</speed>
  <fix>3d</fix>
</trkpt>
<trkpt lat="-27.274439" lon="151.290064">
  <ele>343.1</ele>
  <time>2026-09-01T19:54:16Z</time>
  <course>20.06</course>
  <speed>0.0</speed>
  <fix>3d</fix>
</trkpt>
<trkpt lat="-27.274439" lon="151.290064">
  <ele>342.93</ele>
  <time>2026-09-01T19:54:16Z</time>
  <course>10.7</course>
  <speed>0.01</speed>
  <fix>3d</fix>
</trkpt>
<trkpt lat="-27.274439" lon="151.290064">
  <ele>343.1</ele>
  <time>2026-09-01T19:54:16Z</time>
  <course>24.17</course>
  <speed>0.0</speed>
  <fix>3d</fix>
</trkpt>
<trkpt lat="-27.274439" lon="151.290064">
  <ele>342.92</ele>
  <time>2026-09-01T19:54:16Z</time>
  <course>10.7</course>
  <speed>0.01</speed>
  <fix>3d</fix>
</trkpt>
<trkpt lat="-27.274439" lon="151.290064">
  <ele>343.1</ele>
  <time>2026-09-01T19:54:16Z</time>
  <course>24.17</course>
  <speed>0.0</speed>
  <fix>3d</fix>
</trkpt>
<trkpt lat="-27.274439" lon="151.290064">
  <ele>343.09</ele>
  <time>2026-09-01T19:54:16Z</time>
  <course>10.7</course>
  <speed>0.01</speed>
  <fix>3d</fix>
</trkpt>
<trkpt lat="-27.274439" lon="151.290064">
  <ele>343.1</ele>
  <time>2026-09-01T19:54:16Z</time>
  <course>26.06</course>
  <speed>0.0</speed>
  <fix>3d</fix>
</trkpt>
<trkpt lat="-27.274439" lon="151.290064">
  <ele>343.09</ele>
  <time>2026-09-01T19:54:16Z</time>
  <course>10.7</course>
  <speed>0.01</speed>
  <fix>3d</fix>
</trkpt>
<trkpt lat="-27.274439" lon="151.290064">
  <ele>343.1</ele>
  <time>2026-09-01T19:54:16Z</time>
  <course>26.06</course>
  <speed>0.0</speed>
  <fix>3d</fix>
</trkpt>
<trkpt lat="-27.274439" lon="151.290064">
  <ele>343.09</ele>
  <time>2026-09-01T19:54:16Z</time>
  <course>10.7</course>
  <speed>0.01</speed>
  <fix>3d</fix>
</trkpt>
<trkpt lat="-27.274439" lon="151.290064">
  <ele>343.1</ele>
  <time>2026-09-01T19:54:16Z</time>
  <course>5.13</course>
  <speed>0.0</speed>
  <fix>3d</fix>
</trkpt>
<trkpt lat="-27.274439" lon="151.290064">
  <ele>343.09</ele>
  <time>2026-09-01T19:54:16Z</time>
  <course>10.7</course>
  <speed>0.01</speed>
  <fix>3d</fix>
</trkpt>
<trkpt lat="-27.274439" lon="151.290064">
  <ele>343.1</ele>
  <time>2026-09-01T19:54:16Z</time>
  <course>5.13</course>
  <speed>0.0</speed>
  <fix>3d</fix>
</trkpt>
<trkpt lat="-27.274439" lon="151.290064">
  <ele>343.09</ele>
  <time>2026-09-01T19:54:16Z</time>
  <course>10.7</course>
  <speed>0.01</speed>
  <fix>3d</fix>
</trkpt>
<trkpt lat="-27.274439" lon="151.290064">
  <ele>343.1</ele>
  <time>2026-09-01T19:54:16Z</time>
  <course>13.99</course>
  <speed>0.0</speed>
  <fix>3d</fix>
</trkpt>
<trkpt lat="-27.274439" lon="151.290064">
  <ele>343.08</ele>
  <time>2026-09-01T19:54:16Z</time>
  <course>10.7</course>
  <speed>0.01</speed>
  <fix>3d</fix>
</trkpt>
<trkpt lat="-27.274439" lon="151.290064">
  <ele>343.1</ele>
  <time>2026-09-01T19:54:16Z</time>
  <course>13.99</course>
  <speed>0.0</speed>
  <fix>3d</fix>
</trkpt>
<trkpt lat="-27.274439" lon="151.290064">
  <ele>343.08</ele>
  <time>2026-09-01T19:54:16Z</time>
  <course>10.7</course>
  <speed>0.01</speed>
  <fix>3d</fix>
</trkpt>
<trkpt lat="-27.274439" lon="151.290064">
  <ele>343.1</ele>
  <time>2026-09-01T19:54:16Z</time>
  <course>355.49</course>
  <speed>0.0</speed>
  <fix>3d</fix>
</trkpt>
<trkpt lat="-27.274439" lon="151.290064">
  <ele>343.07</ele>
  <time>2026-09-01T19:54:16Z</time>
  <course>10.7</course>
  <speed>0.01</speed>
  <fix>3d</fix>
</trkpt>
<trkpt lat="-27.274439" lon="151.290064">
  <ele>343.1</ele>
  <time>2026-09-01T19:54:16Z</time>
  <course>355.49</course>
  <speed>0.0</speed>
  <fix>3d</fix>
</trkpt>
<trkpt lat="-27.274439" lon="151.290064">
  <ele>343.07</ele>
  <time>2026-09-01T19:54:16Z</time>
  <course>10.7</course>
  <speed>0.01</speed>
  <fix>3d</fix>
</trkpt>
<trkpt lat="-27.274439" lon="151.290064">
  <ele>343.1</ele>
  <time>2026-09-01T19:54:16Z</time>
  <course>353.83</course>
  <speed>0.0</speed>
  <fix>3d</fix>
</trkpt>
<trkpt lat="-27.274439" lon="151.290064">
  <ele>343.07</ele>
  <time>2026-09-01T19:54:16Z</time>
  <course>10.7</course>
  <speed>0.01</speed>
  <fix>3d</fix>
</trkpt>
<trkpt lat="-27.274439" lon="151.290064">
  <ele>343.1</ele>
  <time>2026-09-01T19:54:16Z</time>
  <course>353.83</course>
  <speed>0.0</speed>
  <fix>3d</fix>
</trkpt>
<trkpt lat="-27.274439" lon="151.290064">
  <ele>343.06</ele>
  <time>2026-09-01T19:54:16Z</time>
  <course>10.7</course>
  <speed>0.01</speed>
  <fix>3d</fix>
</trkpt>
<trkpt lat="-27.274439" lon="151.290064">
  <ele>343.1</ele>
  <time>2026-09-01T19:54:16Z</time>
  <course>32.92</course>
  <speed>0.0</speed>
  <fix>3d</fix>
</trkpt>
<trkpt lat="-27.274439" lon="151.290064">
  <ele>343.06</ele>
  <time>2026-09-01T19:54:16Z</time>
  <course>10.7</course>
  <speed>0.01</speed>
  <fix>3d</fix>
</trkpt>
<trkpt lat="-27.274439" lon="151.290064">
  <ele>343.1</ele>
  <time>2026-09-01T19:54:16Z</time>
  <course>32.92</course>
  <speed>0.0</speed>
  <fix>3d</fix>
</trkpt>
<trkpt lat="-27.274439" lon="151.290064">
  <ele>343.05</ele>
  <time>2026-09-01T19:54:16Z</time>
  <course>10.7</course>
  <speed>0.01</speed>
  <fix>3d</fix>
</trkpt>
<trkpt lat="-27.274439" lon="151.290064">
  <ele>343.1</ele>
  <time>2026-09-01T19:54:16Z</time>
  <course>14.87</course>
  <speed>0.0</speed>
  <fix>3d</fix>
</trkpt>
<trkpt lat="-27.274439" lon="151.290064">
  <ele>343.05</ele>
  <time>2026-09-01T19:54:16Z</time>
  <course>10.7</course>
  <speed>0.01</speed>
  <fix>3d</fix>
</trkpt>
<trkpt lat="-27.274439" lon="151.290064">
  <ele>343.1</ele>
  <time>2026-09-01T19:54:16Z</time>
  <course>14.87</course>
  <speed>0.0</speed>
  <fix>3d</fix>
</trkpt>
<trkpt lat="-27.274439" lon="151.290064">
  <ele>343.04</ele>
  <time>2026-09-01T19:54:16Z</time>
  <course>10.7</course>
  <speed>0.01</speed>
  <fix>3d</fix>
</trkpt>
<trkpt lat="-27.274439" lon="151.290064">
  <ele>343.1</ele>
  <time>2026-09-01T19:54:16Z</time>
  <course>10.03</course>
  <speed>0.0</speed>
  <fix>3d</fix>
</trkpt>
<trkpt lat="-27.274439" lon="151.290064">
  <ele>343.04</ele>
  <time>2026-09-01T19:54:16Z</time>
  <course>10.7</course>
  <speed>0.01</speed>
  <fix>3d</fix>
</trkpt>
<trkpt lat="-27.274439" lon="151.290064">
  <ele>343.1</ele>
  <time>2026-09-01T19:54:16Z</time>
  <course>10.03</course>
  <speed>0.0</speed>
  <fix>3d</fix>
</trkpt>
<trkpt lat="-27.274439" lon="151.290064">
  <ele>343.03</ele>
  <time>2026-09-01T19:54:16Z</time>
  <course>10.7</course>
  <speed>0.01</speed>
  <fix>3d</fix>
</trkpt>
<trkpt lat="-27.274439" lon="151.290064">
  <ele>343.1</ele>
  <time>2026-09-01T19:54:16Z</time>
  <course>354.49</course>
  <speed>0.0</speed>
  <fix>3d</fix>
</trkpt>
<trkpt lat="-27.274439" lon="151.290064">
  <ele>343.03</ele>
  <time>2026-09-01T19:54:16Z</time>
  <course>10.7</course>
  <speed>0.01</speed>
  <fix>3d</fix>
</trkpt>
<trkpt lat="-27.274439" lon="151.290064">
  <ele>343.1</ele>
  <time>2026-09-01T19:54:16Z</time>
  <course>354.49</course>
  <speed>0.0</speed>
  <fix>3d</fix>
</trkpt>
<trkpt lat="-27.274439" lon="151.290064">
  <ele>343.03</ele>
  <time>2026-09-01T19:54:16Z</time>
  <course>10.7</course>
  <speed>0.01</speed>
  <fix>3d</fix>
</trkpt>
<trkpt lat="-27.274439" lon="151.290064">
  <ele>343.1</ele>
  <time>2026-09-01T19:54:16Z</time>
  <course>333.7</course>
  <speed>0.0</speed>
  <fix>3d</fix>
</trkpt>
<trkpt lat="-27.274439" lon="151.290064">
  <ele>343.02</ele>
  <time>2026-09-01T19:54:16Z</time>
  <course>10.7</course>
  <speed>0.01</speed>
  <fix>3d</fix>
</trkpt>
<trkpt lat="-27.274439" lon="151.290064">
  <ele>343.1</ele>
  <time>2026-09-01T19:54:16Z</time>
  <course>333.7</course>
  <speed>0.0</speed>
  <fix>3d</fix>
</trkpt>
<trkpt lat="-27.274439" lon="151.290064">
  <ele>343.02</ele>
  <time>2026-09-01T19:54:16Z</time>
  <course>10.7</course>
  <speed>0.01</speed>
  <fix>3d</fix>
</trkpt>
<trkpt lat="-27.274439" lon="151.290064">
  <ele>343.1</ele>
  <time>2026-09-01T19:54:16Z</time>
  <course>5.9</course>
  <speed>0.0</speed>
  <fix>3d</fix>
</trkpt>
<trkpt lat="-27.274439" lon="151.290064">
  <ele>343.02</ele>
  <time>2026-09-01T19:54:16Z</time>
  <course>10.7</course>
  <speed>0.01</speed>
  <fix>3d</fix>
</trkpt>
<trkpt lat="-27.274439" lon="151.290064">
  <ele>343.1</ele>
  <time>2026-09-01T19:54:16Z</time>
  <course>5.9</course>
  <speed>0.0</speed>
  <fix>3d</fix>
</trkpt>
<trkpt lat="-27.274439" lon="151.290064">
  <ele>343.02</ele>
  <time>2026-09-01T19:54:16Z</time>
  <course>10.7</course>
  <speed>0.01</speed>
  <fix>3d</fix>
</trkpt>
<trkpt lat="-27.274439" lon="151.290064">
  <ele>343.1</ele>
  <time>2026-09-01T19:54:16Z</time>
  <course>22.15</course>
  <speed>0.0</speed>
  <fix>3d</fix>
</trkpt>
<trkpt lat="-27.274439" lon="151.290064">
  <ele>343.02</ele>
  <time>2026-09-01T19:54:16Z</time>
  <course>10.7</course>
  <speed>0.01</speed>
  <fix>3d</fix>
</trkpt>
<trkpt lat="-27.274439" lon="151.290064">
  <ele>343.1</ele>
  <time>2026-09-01T19:54:16Z</time>
  <course>22.15</course>
  <speed>0.0</speed>
  <fix>3d</fix>
</trkpt>
<trkpt lat="-27.274439" lon="151.290064">
  <ele>343.02</ele>
  <time>2026-09-01T19:54:16Z</time>
  <course>10.7</course>
  <speed>0.01</speed>
  <fix>3d</fix>
</trkpt>
<trkpt lat="-27.274439" lon="151.290064">
  <ele>343.1</ele>
  <time>2026-09-01T19:54:16Z</time>
  <course>1.49</course>
  <speed>0.0</speed>
  <fix>3d</fix>
</trkpt>
<trkpt lat="-27.274439" lon="151.290064">
  <ele>343.02</ele>
  <time>2026-09-01T19:54:16Z</time>
  <course>10.7</course>
  <speed>0.01</speed>
  <fix>3d</fix>
</trkpt>
<trkpt lat="-27.274439" lon="151.290064">
  <ele>343.1</ele>
  <time>2026-09-01T19:54:16Z</time>
  <course>1.49</course>
  <speed>0.0</speed>
  <fix>3d</fix>
</trkpt>
<trkpt lat="-27.274439" lon="151.290064">
  <ele>343.01</ele>
  <time>2026-09-01T19:54:16Z</time>
  <course>10.7</course>
  <speed>0.01</speed>
  <fix>3d</fix>
</trkpt>
<trkpt lat="-27.274439" lon="151.290064">
  <ele>343.1</ele>
  <time>2026-09-01T19:54:16Z</time>
  <course>358.89</course>
  <speed>0.0</speed>
  <fix>3d</fix>
</trkpt>
<trkpt lat="-27.274439" lon="151.290064">
  <ele>343.01</ele>
  <time>2026-09-01T19:54:16Z</time>
  <course>10.7</course>
  <speed>0.01</speed>
  <fix>3d</fix>
</trkpt>
<trkpt lat="-27.274439" lon="151.290064">
  <ele>343.1</ele>
  <time>2026-09-01T19:54:16Z</time>
  <course>358.89</course>
  <speed>0.0</speed>
  <fix>3d</fix>
</trkpt>
<trkpt lat="-27.274439" lon="151.290064">
  <ele>343.01</ele>
  <time>2026-09-01T19:54:16Z</time>
  <course>10.7</course>
  <speed>0.01</speed>
  <fix>3d</fix>
</trkpt>
<trkpt lat="-27.274439" lon="151.290064">
  <ele>343.1</ele>
  <time>2026-09-01T19:54:16Z</time>
  <course>0.11</course>
  <speed>0.0</speed>
  <fix>3d</fix>
</trkpt>
<trkpt lat="-27.274439" lon="151.290064">
  <ele>343.01</ele>
  <time>2026-09-01T19:54:16Z</time>
  <course>10.7</course>
  <speed>0.01</speed>
  <fix>3d</fix>
</trkpt>
<trkpt lat="-27.274439" lon="151.290064">
  <ele>343.1</ele>
  <time>2026-09-01T19:54:16Z</time>
  <course>0.11</course>
  <speed>0.0</speed>
  <fix>3d</fix>
</trkpt>
<trkpt lat="-27.274439" lon="151.290064">
  <ele>343.01</ele>
  <time>2026-09-01T19:54:16Z</time>
  <course>10.7</course>
  <speed>0.01</speed>
  <fix>3d</fix>
</trkpt>
<trkpt lat="-27.274439" lon="151.290064">
  <ele>343.1</ele>
  <time>2026-09-01T19:54:16Z</time>
  <course>358.09</course>
  <speed>0.0</speed>
  <fix>3d</fix>
</trkpt>
<trkpt lat="-27.274439" lon="151.290064">
  <ele>343.0</ele>
  <time>2026-09-01T19:54:16Z</time>
  <course>10.7</course>
  <speed>0.01</speed>
  <fix>3d</fix>
</trkpt>
<trkpt lat="-27.274439" lon="151.290064">
  <ele>343.1</ele>
  <time>2026-09-01T19:54:16Z</time>
  <course>358.09</course>
  <speed>0.0</speed>
  <fix>3d</fix>
</trkpt>
<trkpt lat="-27.274439" lon="151.290064">
  <ele>343.0</ele>
  <time>2026-09-01T19:54:16Z</time>
  <course>10.7</course>
  <speed>0.01</speed>
  <fix>3d</fix>
</trkpt>
<trkpt lat="-27.274439" lon="151.290064">
  <ele>343.1</ele>
  <time>2026-09-01T19:54:16Z</time>
  <course>7.3</course>
  <speed>0.0</speed>
  <fix>3d</fix>
</trkpt>
<trkpt lat="-27.274439" lon="151.290064">
  <ele>343.0</ele>
  <time>2026-09-01T19:54:16Z</time>
  <course>10.7</course>
  <speed>0.01</speed>
  <fix>3d</fix>
</trkpt>
<trkpt lat="-27.274439" lon="151.290064">
  <ele>343.1</ele>
  <time>2026-09-01T19:54:16Z</time>
  <course>7.3</course>
  <speed>0.0</speed>
  <fix>3d</fix>
</trkpt>
<trkpt lat="-27.274439" lon="151.290064">
  <ele>342.99</ele>
  <time>2026-09-01T19:54:16Z</time>
  <course>10.7</course>
  <speed>0.01</speed>
  <fix>3d</fix>
</trkpt>
<trkpt lat="-27.274439" lon="151.290064">
  <ele>343.1</ele>
  <time>2026-09-01T19:54:16Z</time>
  <course>27.83</course>
  <speed>0.0</speed>
  <fix>3d</fix>
</trkpt>
<trkpt lat="-27.274439" lon="151.290064">
  <ele>342.99</ele>
  <time>2026-09-01T19:54:16Z</time>
  <course>10.7</course>
  <speed>0.01</speed>
  <fix>3d</fix>
</trkpt>
<trkpt lat="-27.274439" lon="151.290064">
  <ele>343.1</ele>
  <time>2026-09-01T19:54:16Z</time>
  <course>27.83</course>
  <speed>0.0</speed>
  <fix>3d</fix>
</trkpt>
<trkpt lat="-27.274439" lon="151.290064">
  <ele>342.98</ele>
  <time>2026-09-01T19:54:16Z</time>
  <course>10.7</course>
  <speed>0.01</speed>
  <fix>3d</fix>
</trkpt>
<trkpt lat="-27.274439" lon="151.290064">
  <ele>343.1</ele>
  <time>2026-09-01T19:54:16Z</time>
  <course>16.8</course>
  <speed>0.0</speed>
  <fix>3d</fix>
</trkpt>
<trkpt lat="-27.274439" lon="151.290064">
  <ele>342.98</ele>
  <time>2026-09-01T19:54:16Z</time>
  <course>10.7</course>
  <speed>0.01</speed>
  <fix>3d</fix>
</trkpt>
<trkpt lat="-27.274439" lon="151.290064">
  <ele>343.1</ele>
  <time>2026-09-01T19:54:16Z</time>
  <course>16.8</course>
  <speed>0.0</speed>
  <fix>3d</fix>
</trkpt>
<trkpt lat="-27.274439" lon="151.290064">
  <ele>342.97</ele>
  <time>2026-09-01T19:54:16Z</time>
  <course>10.7</course>
  <speed>0.01</speed>
  <fix>3d</fix>
</trkpt>
<trkpt lat="-27.274439" lon="151.290064">
  <ele>343.1</ele>
  <time>2026-09-01T19:54:16Z</time>
  <course>6.45</course>
  <speed>0.0</speed>
  <fix>3d</fix>
</trkpt>
<trkpt lat="-27.274439" lon="151.290064">
  <ele>342.97</ele>
  <time>2026-09-01T19:54:16Z</time>
  <course>10.7</course>
  <speed>0.01</speed>
  <fix>3d</fix>
</trkpt>
<trkpt lat="-27.274439" lon="151.290064">
  <ele>343.1</ele>
  <time>2026-09-01T19:54:16Z</time>
  <course>6.45</course>
  <speed>0.0</speed>
  <fix>3d</fix>
</trkpt>
<trkpt lat="-27.274439" lon="151.290064">
  <ele>342.97</ele>
  <time>2026-09-01T19:54:16Z</time>
  <course>10.7</course>
  <speed>0.01</speed>
  <fix>3d</fix>
</trkpt>
<trkpt lat="-27.274439" lon="151.290064">
  <ele>343.1</ele>
  <time>2026-09-01T19:54:16Z</time>
  <course>8.1</course>
  <speed>0.0</speed>
  <fix>3d</fix>
</trkpt>
<trkpt lat="-27.274439" lon="151.290064">
  <ele>342.96</ele>
  <time>2026-09-01T19:54:16Z</time>
  <course>10.7</course>
  <speed>0.01</speed>
  <fix>3d</fix>
</trkpt>
<trkpt lat="-27.274439" lon="151.290064">
  <ele>343.1</ele>
  <time>2026-09-01T19:54:16Z</time>
  <course>8.1</course>
  <speed>0.0</speed>
  <fix>3d</fix>
</trkpt>
<trkpt lat="-27.274439" lon="151.290064">
  <ele>342.96</ele>
  <time>2026-09-01T19:54:16Z</time>
  <course>10.7</course>
  <speed>0.01</speed>
  <fix>3d</fix>
</trkpt>
<trkpt lat="-27.274439" lon="151.290064">
  <ele>343.1</ele>
  <time>2026-09-01T19:54:16Z</time>
  <course>20.17</course>
  <speed>0.0</speed>
  <fix>3d</fix>
</trkpt>
<trkpt lat="-27.274439" lon="151.290064">
  <ele>342.96</ele>
  <time>2026-09-01T19:54:16Z</time>
  <course>10.7</course>
  <speed>0.01</speed>
  <fix>3d</fix>
</trkpt>
<trkpt lat="-27.274439" lon="151.290064">
  <ele>343.1</ele>
  <time>2026-09-01T19:54:16Z</time>
  <course>20.17</course>
  <speed>0.0</speed>
  <fix>3d</fix>
</trkpt>
<trkpt lat="-27.274439" lon="151.290064">
  <ele>342.96</ele>
  <time>2026-09-01T19:54:16Z</time>
  <course>10.7</course>
  <speed>0.01</speed>
  <fix>3d</fix>
</trkpt>
<trkpt lat="-27.274439" lon="151.290064">
  <ele>343.1</ele>
  <time>2026-09-01T19:54:16Z</time>
  <course>33.56</course>
  <speed>0.0</speed>
  <fix>3d</fix>
</trkpt>
<trkpt lat="-27.274439" lon="151.290064">
  <ele>342.95</ele>
  <time>2026-09-01T19:54:16Z</time>
  <course>10.7</course>
  <speed>0.01</speed>
  <fix>3d</fix>
</trkpt>
<trkpt lat="-27.274439" lon="151.290064">
  <ele>343.1</ele>
  <time>2026-09-01T19:54:16Z</time>
  <course>33.56</course>
  <speed>0.0</speed>
  <fix>3d</fix>
</trkpt>
<trkpt lat="-27.274439" lon="151.290064">
  <ele>342.95</ele>
  <time>2026-09-01T19:54:16Z</time>
  <course>10.7</course>
  <speed>0.01</speed>
  <fix>3d</fix>
</trkpt>
<trkpt lat="-27.274439" lon="151.290064">
  <ele>343.1</ele>
  <time>2026-09-01T19:54:16Z</time>
  <course>18.08</course>
  <speed>0.0</speed>
  <fix>3d</fix>
</trkpt>
<trkpt lat="-27.2744391" lon="151.290064">
  <ele>342.95</ele>
  <time>2026-09-01T19:54:16Z</time>
  <course>10.7</course>
  <speed>0.01</speed>
  <fix>3d</fix>
</trkpt>
<trkpt lat="-27.274439" lon="151.290064">
  <ele>343.1</ele>
  <time>2026-09-01T19:54:16Z</time>
  <course>18.08</course>
  <speed>0.0</speed>
  <fix>3d</fix>
</trkpt>
<trkpt lat="-27.2744391" lon="151.290064">
  <ele>342.95</ele>
  <time>2026-09-01T19:54:16Z</time>
  <course>10.7</course>
  <speed>0.01</speed>
  <fix>3d</fix>
</trkpt>
<trkpt lat="-27.274439" lon="151.290064">
  <ele>343.1</ele>
  <time>2026-09-01T19:54:16Z</time>
  <course>6.74</course>
  <speed>0.0</speed>
  <fix>3d</fix>
</trkpt>
<trkpt lat="-27.2744391" lon="151.290064">
  <ele>342.95</ele>
  <time>2026-09-01T19:54:16Z</time>
  <course>10.7</course>
  <speed>0.01</speed>
  <fix>3d</fix>
</trkpt>
<trkpt lat="-27.274439" lon="151.290064">
  <ele>343.1</ele>
  <time>2026-09-01T19:54:16Z</time>
  <course>6.74</course>
  <speed>0.0</speed>
  <fix>3d</fix>
</trkpt>
<trkpt lat="-27.2744391" lon="151.290064">
  <ele>342.95</ele>
  <time>2026-09-01T19:54:16Z</time>
  <course>10.7</course>
  <speed>0.01</speed>
  <fix>3d</fix>
</trkpt>
<trkpt lat="-27.274439" lon="151.290064">
  <ele>343.1</ele>
  <time>2026-09-01T19:54:16Z</time>
  <course>342.0</course>
  <speed>0.0</speed>
  <fix>3d</fix>
</trkpt>
<trkpt lat="-27.2744391" lon="151.290064">
  <ele>342.95</ele>
  <time>2026-09-01T19:54:16Z</time>
  <course>10.7</course>
  <speed>0.01</speed>
  <fix>3d</fix>
</trkpt>
<trkpt lat="-27.274439" lon="151.290064">
  <ele>343.1</ele>
  <time>2026-09-01T19:54:16Z</time>
  <course>342.0</course>
  <speed>0.0</speed>
  <fix>3d</fix>
</trkpt>
<trkpt lat="-27.2744391" lon="151.290064">
  <ele>342.95</ele>
  <time>2026-09-01T19:54:16Z</time>
  <course>10.7</course>
  <speed>0.01</speed>
  <fix>3d</fix>
</trkpt>
<trkpt lat="-27.274439" lon="151.290064">
  <ele>343.1</ele>
  <time>2026-09-01T19:54:16Z</time>
  <course>357.48</course>
  <speed>0.0</speed>
  <fix>3d</fix>
</trkpt>
<trkpt lat="-27.2744391" lon="151.290064">
  <ele>342.95</ele>
  <time>2026-09-01T19:54:16Z</time>
  <course>10.7</course>
  <speed>0.01</speed>
  <fix>3d</fix>
</trkpt>
<trkpt lat="-27.274439" lon="151.290064">
  <ele>343.1</ele>
  <time>2026-09-01T19:54:16Z</time>
  <course>357.48</course>
  <speed>0.0</speed>
  <fix>3d</fix>
</trkpt>
<trkpt lat="-27.2744391" lon="151.290064">
  <ele>342.95</ele>
  <time>2026-09-01T19:54:16Z</time>
  <course>10.7</course>
  <speed>0.01</speed>
  <fix>3d</fix>
</trkpt>
<trkpt lat="-27.274439" lon="151.290064">
  <ele>343.1</ele>
  <time>2026-09-01T19:54:16Z</time>
  <course>12.68</course>
  <speed>0.0</speed>
  <fix>3d</fix>
</trkpt>
<trkpt lat="-27.2744391" lon="151.290064">
  <ele>342.95</ele>
  <time>2026-09-01T19:54:16Z</time>
  <course>10.7</course>
  <speed>0.01</speed>
  <fix>3d</fix>
</trkpt>
<trkpt lat="-27.274439" lon="151.290064">
  <ele>343.1</ele>
  <time>2026-09-01T19:54:16Z</time>
  <course>12.68</course>
  <speed>0.0</speed>
  <fix>3d</fix>
</trkpt>
<trkpt lat="-27.2744391" lon="151.290064">
  <ele>342.95</ele>
  <time>2026-09-01T19:54:16Z</time>
  <course>10.7</course>
  <speed>0.01</speed>
  <fix>3d</fix>
</trkpt>
<trkpt lat="-27.274439" lon="151.290064">
  <ele>343.1</ele>
  <time>2026-09-01T19:54:16Z</time>
  <course>357.22</course>
  <speed>0.0</speed>
  <fix>3d</fix>
</trkpt>
<trkpt lat="-27.2744391" lon="151.290064">
  <ele>342.95</ele>
  <time>2026-09-01T19:54:16Z</time>
  <course>10.7</course>
  <speed>0.01</speed>
  <fix>3d</fix>
</trkpt>
<trkpt lat="-27.274439" lon="151.290064">
  <ele>343.1</ele>
  <time>2026-09-01T19:54:16Z</time>
  <course>357.22</course>
  <speed>0.0</speed>
  <fix>3d</fix>
</trkpt>
<trkpt lat="-27.2744391" lon="151.290064">
  <ele>342.95</ele>
  <time>2026-09-01T19:54:16Z</time>
  <course>10.7</course>
  <speed>0.01</speed>
  <fix>3d</fix>
</trkpt>
<trkpt lat="-27.274439" lon="151.290064">
  <ele>343.1</ele>
  <time>2026-09-01T19:54:16Z</time>
  <course>7.47</course>
  <speed>0.0</speed>
  <fix>3d</fix>
</trkpt>
<trkpt lat="-27.2744391" lon="151.290064">
  <ele>342.95</ele>
  <time>2026-09-01T19:54:16Z</time>
  <course>10.7</course>
  <speed>0.01</speed>
  <fix>3d</fix>
</trkpt>
<trkpt lat="-27.274439" lon="151.290064">
  <ele>343.1</ele>
  <time>2026-09-01T19:54:16Z</time>
  <course>7.47</course>
  <speed>0.0</speed>
  <fix>3d</fix>
</trkpt>
<trkpt lat="-27.2744391" lon="151.290064">
  <ele>343.1</ele>
  <time>2026-09-01T19:54:16Z</time>
  <course>10.7</course>
  <speed>0.01</speed>
  <fix>3d</fix>
</trkpt>
<trkpt lat="-27.274439" lon="151.290064">
  <ele>343.1</ele>
  <time>2026-09-01T19:54:16Z</time>
  <course>20.63</course>
  <speed>0.0</speed>
  <fix>3d</fix>
</trkpt>
<trkpt lat="-27.2744391" lon="151.290064">
  <ele>343.09</ele>
  <time>2026-09-01T19:54:16Z</time>
  <course>10.7</course>
  <speed>0.01</speed>
  <fix>3d</fix>
</trkpt>
<trkpt lat="-27.274439" lon="151.290064">
  <ele>343.1</ele>
  <time>2026-09-01T19:54:16Z</time>
  <course>20.63</course>
  <speed>0.0</speed>
  <fix>3d</fix>
</trkpt>
<trkpt lat="-27.2744391" lon="151.290064">
  <ele>343.09</ele>
  <time>2026-09-01T19:54:16Z</time>
  <course>10.7</course>
  <speed>0.01</speed>
  <fix>3d</fix>
</trkpt>
<trkpt lat="-27.274439" lon="151.290064">
  <ele>343.1</ele>
  <time>2026-09-01T19:54:16Z</time>
  <course>24.51</course>
  <speed>0.0</speed>
  <fix>3d</fix>
</trkpt>
<trkpt lat="-27.2744391" lon="151.290064">
  <ele>343.09</ele>
  <time>2026-09-01T19:54:16Z</time>
  <course>10.7</course>
  <speed>0.01</speed>
  <fix>3d</fix>
</trkpt>
<trkpt lat="-27.274439" lon="151.290064">
  <ele>343.1</ele>
  <time>2026-09-01T19:54:16Z</time>
  <course>24.51</course>
  <speed>0.0</speed>
  <fix>3d</fix>
</trkpt>
<trkpt lat="-27.2744391" lon="151.290064">
  <ele>343.09</ele>
  <time>2026-09-01T19:54:16Z</time>
  <course>10.7</course>
  <speed>0.01</speed>
  <fix>3d</fix>
</trkpt>
<trkpt lat="-27.274439" lon="151.290064">
  <ele>343.1</ele>
  <time>2026-09-01T19:54:16Z</time>
  <course>24.02</course>
  <speed>0.0</speed>
  <fix>3d</fix>
</trkpt>
<trkpt lat="-27.2744391" lon="151.290064">
  <ele>343.09</ele>
  <time>2026-09-01T19:54:16Z</time>
  <course>10.7</course>
  <speed>0.01414213562373095</speed>
  <fix>3d</fix>
</trkpt>
<trkpt lat="-27.274439" lon="151.290064">
  <ele>343.1</ele>
  <time>2026-09-01T19:54:16Z</time>
  <course>24.02</course>
  <speed>0.0</speed>
  <fix>3d</fix>
</trkpt>
<trkpt lat="-27.2744391" lon="151.290064">
  <ele>343.09</ele>
  <time>2026-09-01T19:54:16Z</time>
  <course>10.7</course>
  <speed>0.01</speed>
  <fix>3d</fix>
</trkpt>
<trkpt lat="-27.274439" lon="151.290064">
  <ele>343.1</ele>
  <time>2026-09-01T19:54:16Z</time>
  <course>8.8</course>
  <speed>0.0</speed>
  <fix>3d</fix>
</trkpt>
<trkpt lat="-27.2744391" lon="151.290064">
  <ele>343.09</ele>
  <time>2026-09-01T19:54:16Z</time>
  <course>10.7</course>
  <speed>0.01414213562373095</speed>
  <fix>3d</fix>
</trkpt>
<trkpt lat="-27.274439" lon="151.290064">
  <ele>343.1</ele>
  <time>2026-09-01T19:54:16Z</time>
  <course>8.8</course>
  <speed>0.0</speed>
  <fix>3d</fix>
</trkpt>
<trkpt lat="-27.2744391" lon="151.290064">
  <ele>343.09</ele>
  <time>2026-09-01T19:54:16Z</time>
  <course>10.7</course>
  <speed>0.01</speed>
  <fix>3d</fix>
</trkpt>
<trkpt lat="-27.274439" lon="151.290064">
  <ele>343.1</ele>
  <time>2026-09-01T19:54:16Z</time>
  <course>353.57</course>
  <speed>0.0</speed>
  <fix>3d</fix>
</trkpt>
<trkpt lat="-27.2744391" lon="151.290064">
  <ele>343.09</ele>
  <time>2026-09-01T19:54:16Z</time>
  <course>10.7</course>
  <speed>0.01414213562373095</speed>
  <fix>3d</fix>
</trkpt>
<trkpt lat="-27.274439" lon="151.290064">
  <ele>343.1</ele>
  <time>2026-09-01T19:54:16Z</time>
  <course>353.57</course>
  <speed>0.0</speed>
  <fix>3d</fix>
</trkpt>
<trkpt lat="-27.2744391" lon="151.290064">
  <ele>343.08</ele>
  <time>2026-09-01T19:54:16Z</time>
  <course>10.71</course>
  <speed>0.01</speed>
  <fix>3d</fix>
</trkpt>
<trkpt lat="-27.274439" lon="151.290064">
  <ele>343.1</ele>
  <time>2026-09-01T19:54:16Z</time>
  <course>13.44</course>
  <speed>0.0</speed>
  <fix>3d</fix>
</trkpt>
<trkpt lat="-27.2744391" lon="151.290064">
  <ele>343.08</ele>
  <time>2026-09-01T19:54:16Z</time>
  <course>10.71</course>
  <speed>0.01414213562373095</speed>
  <fix>3d</fix>
</trkpt>
<trkpt lat="-27.274439" lon="151.290064">
  <ele>343.1</ele>
  <time>2026-09-01T19:54:16Z</time>
  <course>13.44</course>
  <speed>0.0</speed>
  <fix>3d</fix>
</trkpt>
<trkpt lat="-27.2744391" lon="151.290064">
  <ele>343.08</ele>
  <time>2026-09-01T19:54:16Z</time>
  <course>10.71</course>
  <speed>0.01414213562373095</speed>
  <fix>3d</fix>
</trkpt>
<trkpt lat="-27.274439" lon="151.290064">
  <ele>343.1</ele>
  <time>2026-09-01T19:54:16Z</time>
  <course>52.8</course>
  <speed>0.0</speed>
  <fix>3d</fix>
</trkpt>
<trkpt lat="-27.2744391" lon="151.290064">
  <ele>343.08</ele>
  <time>2026-09-01T19:54:16Z</time>
  <course>10.71</course>
  <speed>0.01414213562373095</speed>
  <fix>3d</fix>
</trkpt>
<trkpt lat="-27.274439" lon="151.290064">
  <ele>343.1</ele>
  <time>2026-09-01T19:54:16Z</time>
  <course>52.8</course>
  <speed>0.0</speed>
  <fix>3d</fix>
</trkpt>
<trkpt lat="-27.2744391" lon="151.290064">
  <ele>343.08</ele>
  <time>2026-09-01T19:54:16Z</time>
  <course>10.71</course>
  <speed>0.01414213562373095</speed>
  <fix>3d</fix>
</trkpt>
<trkpt lat="-27.274439" lon="151.290064">
  <ele>343.1</ele>
  <time>2026-09-01T19:54:16Z</time>
  <course>21.93</course>
  <speed>0.0</speed>
  <fix>3d</fix>
</trkpt>
<trkpt lat="-27.2744391" lon="151.290064">
  <ele>343.07</ele>
  <time>2026-09-01T19:54:16Z</time>
  <course>10.71</course>
  <speed>0.01414213562373095</speed>
  <fix>3d</fix>
</trkpt>
<trkpt lat="-27.274439" lon="151.290064">
  <ele>343.1</ele>
  <time>2026-09-01T19:54:16Z</time>
  <course>21.93</course>
  <speed>0.0</speed>
  <fix>3d</fix>
</trkpt>
<trkpt lat="-27.2744391" lon="151.290064">
  <ele>343.07</ele>
  <time>2026-09-01T19:54:16Z</time>
  <course>10.71</course>
  <speed>0.01414213562373095</speed>
  <fix>3d</fix>
</trkpt>
<trkpt lat="-27.274439" lon="151.290064">
  <ele>343.1</ele>
  <time>2026-09-01T19:54:16Z</time>
  <course>353.61</course>
  <speed>0.0</speed>
  <fix>3d</fix>
</trkpt>
<trkpt lat="-27.2744391" lon="151.290064">
  <ele>343.07</ele>
  <time>2026-09-01T19:54:16Z</time>
  <course>10.71</course>
  <speed>0.01414213562373095</speed>
  <fix>3d</fix>
</trkpt>
<trkpt lat="-27.274439" lon="151.290064">
  <ele>343.1</ele>
  <time>2026-09-01T19:54:16Z</time>
  <course>353.61</course>
  <speed>0.0</speed>
  <fix>3d</fix>
</trkpt>
<trkpt lat="-27.2744391" lon="151.290064">
  <ele>343.07</ele>
  <time>2026-09-01T19:54:16Z</time>
  <course>10.71</course>
  <speed>0.01414213562373095</speed>
  <fix>3d</fix>
</trkpt>
<trkpt lat="-27.274439" lon="151.290064">
  <ele>343.1</ele>
  <time>2026-09-01T19:54:16Z</time>
  <course>7.35</course>
  <speed>0.0</speed>
  <fix>3d</fix>
</trkpt>
<trkpt lat="-27.2744391" lon="151.290064">
  <ele>343.07</ele>
  <time>2026-09-01T19:54:16Z</time>
  <course>10.71</course>
  <speed>0.01414213562373095</speed>
  <fix>3d</fix>
</trkpt>
<trkpt lat="-27.274439" lon="151.290064">
  <ele>343.1</ele>
  <time>2026-09-01T19:54:16Z</time>
  <course>7.35</course>
  <speed>0.0</speed>
  <fix>3d</fix>
</trkpt>
<trkpt lat="-27.2744391" lon="151.290064">
  <ele>343.07</ele>
  <time>2026-09-01T19:54:16Z</time>
  <course>10.71</course>
  <speed>0.01414213562373095</speed>
  <fix>3d</fix>
</trkpt>
<trkpt lat="-27.274439" lon="151.290064">
  <ele>343.1</ele>
  <time>2026-09-01T19:54:16Z</time>
  <course>15.14</course>
  <speed>0.0</speed>
  <fix>3d</fix>
</trkpt>
<trkpt lat="-27.2744391" lon="151.290064">
  <ele>343.07</ele>
  <time>2026-09-01T19:54:16Z</time>
  <course>10.71</course>
  <speed>0.01414213562373095</speed>
  <fix>3d</fix>
</trkpt>
<trkpt lat="-27.274439" lon="151.290064">
  <ele>343.1</ele>
  <time>2026-09-01T19:54:16Z</time>
  <course>15.14</course>
  <speed>0.0</speed>
  <fix>3d</fix>
</trkpt>
<trkpt lat="-27.2744391" lon="151.290064">
  <ele>343.07</ele>
  <time>2026-09-01T19:54:16Z</time>
  <course>10.71</course>
  <speed>0.01414213562373095</speed>
  <fix>3d</fix>
</trkpt>
<trkpt lat="-27.274439" lon="151.290064">
  <ele>343.1</ele>
  <time>2026-09-01T19:54:16Z</time>
  <course>7.75</course>
  <speed>0.0</speed>
  <fix>3d</fix>
</trkpt>
<trkpt lat="-27.2744391" lon="151.290064">
  <ele>343.07</ele>
  <time>2026-09-01T19:54:16Z</time>
  <course>10.71</course>
  <speed>0.01</speed>
  <fix>3d</fix>
</trkpt>
<trkpt lat="-27.274439" lon="151.290064">
  <ele>343.1</ele>
  <time>2026-09-01T19:54:16Z</time>
  <course>7.75</course>
  <speed>0.0</speed>
  <fix>3d</fix>
</trkpt>
<trkpt lat="-27.2744391" lon="151.290064">
  <ele>343.07</ele>
  <time>2026-09-01T19:54:16Z</time>
  <course>10.71</course>
  <speed>0.01</speed>
  <fix>3d</fix>
</trkpt>
<trkpt lat="-27.274439" lon="151.290064">
  <ele>343.1</ele>
  <time>2026-09-01T19:54:16Z</time>
  <course>8.65</course>
  <speed>0.0</speed>
  <fix>3d</fix>
</trkpt>
<trkpt lat="-27.2744391" lon="151.2900641">
  <ele>343.06</ele>
  <time>2026-09-01T19:54:16Z</time>
  <course>10.71</course>
  <speed>0.01414213562373095</speed>
  <fix>3d</fix>
</trkpt>
<trkpt lat="-27.274439" lon="151.290064">
  <ele>343.1</ele>
  <time>2026-09-01T19:54:16Z</time>
  <course>8.65</course>
  <speed>0.0</speed>
  <fix>3d</fix>
</trkpt>
<trkpt lat="-27.2744391" lon="151.290064">
  <ele>343.06</ele>
  <time>2026-09-01T19:54:16Z</time>
  <course>10.71</course>
  <speed>0.01414213562373095</speed>
  <fix>3d</fix>
</trkpt>
<trkpt lat="-27.274439" lon="151.290064">
  <ele>343.1</ele>
  <time>2026-09-01T19:54:16Z</time>
  <course>8.23</course>
  <speed>0.0</speed>
  <fix>3d</fix>
</trkpt>
<trkpt lat="-27.2744391" lon="151.2900641">
  <ele>343.06</ele>
  <time>2026-09-01T19:54:16Z</time>
  <course>10.71</course>
  <speed>0.01414213562373095</speed>
  <fix>3d</fix>
</trkpt>
<trkpt lat="-27.274439" lon="151.290064">
  <ele>343.1</ele>
  <time>2026-09-01T19:54:16Z</time>
  <course>8.23</course>
  <speed>0.0</speed>
  <fix>3d</fix>
</trkpt>
<trkpt lat="-27.2744391" lon="151.290064">
  <ele>343.06</ele>
  <time>2026-09-01T19:54:16Z</time>
  <course>10.71</course>
  <speed>0.01414213562373095</speed>
  <fix>3d</fix>
</trkpt>
<trkpt lat="-27.274439" lon="151.290064">
  <ele>343.1</ele>
  <time>2026-09-01T19:54:16Z</time>
  <course>5.32</course>
  <speed>0.0</speed>
  <fix>3d</fix>
</trkpt>
<trkpt lat="-27.2744391" lon="151.290064">
  <ele>343.06</ele>
  <time>2026-09-01T19:54:16Z</time>
  <course>10.71</course>
  <speed>0.01414213562373095</speed>
  <fix>3d</fix>
</trkpt>
<trkpt lat="-27.274439" lon="151.290064">
  <ele>343.1</ele>
  <time>2026-09-01T19:54:16Z</time>
  <course>5.32</course>
  <speed>0.0</speed>
  <fix>3d</fix>
</trkpt>
<trkpt lat="-27.2744391" lon="151.290064">
  <ele>343.06</ele>
  <time>2026-09-01T19:54:16Z</time>
  <course>10.71</course>
  <speed>0.01414213562373095</speed>
  <fix>3d</fix>
</trkpt>
<trkpt lat="-27.274439" lon="151.290064">
  <ele>343.1</ele>
  <time>2026-09-01T19:54:16Z</time>
  <course>193.69</course>
  <speed>0.0</speed>
  <fix>3d</fix>
</trkpt>
<trkpt lat="-27.2744391" lon="151.290064">
  <ele>343.07</ele>
  <time>2026-09-01T19:54:16Z</time>
  <course>10.71</course>
  <speed>0.01414213562373095</speed>
  <fix>3d</fix>
</trkpt>
<trkpt lat="-27.274439" lon="151.290064">
  <ele>343.1</ele>
  <time>2026-09-01T19:54:16Z</time>
  <course>193.69</course>
  <speed>0.0</speed>
  <fix>3d</fix>
</trkpt>
<trkpt lat="-27.2744391" lon="151.290064">
  <ele>343.07</ele>
  <time>2026-09-01T19:54:16Z</time>
  <course>10.71</course>
  <speed>0.01414213562373095</speed>
  <fix>3d</fix>
</trkpt>
<trkpt lat="-27.274439" lon="151.290064">
  <ele>343.1</ele>
  <time>2026-09-01T19:54:16Z</time>
  <course>4.0</course>
  <speed>0.0</speed>
  <fix>3d</fix>
</trkpt>
<trkpt lat="-27.2744391" lon="151.290064">
  <ele>343.07</ele>
  <time>2026-09-01T19:54:16Z</time>
  <course>10.71</course>
  <speed>0.01414213562373095</speed>
  <fix>3d</fix>
</trkpt>
<trkpt lat="-27.274439" lon="151.290064">
  <ele>343.1</ele>
  <time>2026-09-01T19:54:16Z</time>
  <course>4.0</course>
  <speed>0.0</speed>
  <fix>3d</fix>
</trkpt>
<trkpt lat="-27.2744391" lon="151.290064">
  <ele>343.07</ele>
  <time>2026-09-01T19:54:16Z</time>
  <course>10.71</course>
  <speed>0.01414213562373095</speed>
  <fix>3d</fix>
</trkpt>
<trkpt lat="-27.274439" lon="151.290064">
  <ele>343.1</ele>
  <time>2026-09-01T19:54:16Z</time>
  <course>13.88</course>
  <speed>0.0</speed>
  <fix>3d</fix>
</trkpt>
<trkpt lat="-27.2744391" lon="151.290064">
  <ele>343.07</ele>
  <time>2026-09-01T19:54:16Z</time>
  <course>10.71</course>
  <speed>0.01414213562373095</speed>
  <fix>3d</fix>
</trkpt>
<trkpt lat="-27.274439" lon="151.290064">
  <ele>343.1</ele>
  <time>2026-09-01T19:54:16Z</time>
  <course>13.88</course>
  <speed>0.0</speed>
  <fix>3d</fix>
</trkpt>
<trkpt lat="-27.2744391" lon="151.290064">
  <ele>343.06</ele>
  <time>2026-09-01T19:54:16Z</time>
  <course>10.71</course>
  <speed>0.01414213562373095</speed>
  <fix>3d</fix>
</trkpt>
<trkpt lat="-27.274439" lon="151.290064">
  <ele>343.1</ele>
  <time>2026-09-01T19:54:16Z</time>
  <course>8.49</course>
  <speed>0.0</speed>
  <fix>3d</fix>
</trkpt>
<trkpt lat="-27.2744391" lon="151.290064">
  <ele>343.06</ele>
  <time>2026-09-01T19:54:16Z</time>
  <course>10.71</course>
  <speed>0.01414213562373095</speed>
  <fix>3d</fix>
</trkpt>
<trkpt lat="-27.274439" lon="151.290064">
  <ele>343.1</ele>
  <time>2026-09-01T19:54:16Z</time>
  <course>8.49</course>
  <speed>0.0</speed>
  <fix>3d</fix>
</trkpt>
<trkpt lat="-27.2744391" lon="151.290064">
  <ele>343.06</ele>
  <time>2026-09-01T19:54:16Z</time>
  <course>10.71</course>
  <speed>0.01414213562373095</speed>
  <fix>3d</fix>
</trkpt>
<trkpt lat="-27.274439" lon="151.290064">
  <ele>343.1</ele>
  <time>2026-09-01T19:54:16Z</time>
  <course>351.38</course>
  <speed>0.0</speed>
  <fix>3d</fix>
</trkpt>
<trkpt lat="-27.2744391" lon="151.290064">
  <ele>343.06</ele>
  <time>2026-09-01T19:54:16Z</time>
  <course>10.71</course>
  <speed>0.01414213562373095</speed>
  <fix>3d</fix>
</trkpt>
<trkpt lat="-27.274439" lon="151.290064">
  <ele>343.1</ele>
  <time>2026-09-01T19:54:16Z</time>
  <course>351.38</course>
  <speed>0.0</speed>
  <fix>3d</fix>
</trkpt>
<trkpt lat="-27.2744391" lon="151.290064">
  <ele>343.05</ele>
  <time>2026-09-01T19:54:16Z</time>
  <course>10.71</course>
  <speed>0.01414213562373095</speed>
  <fix>3d</fix>
</trkpt>
<trkpt lat="-27.274439" lon="151.290064">
  <ele>343.1</ele>
  <time>2026-09-01T19:54:16Z</time>
  <course>345.74</course>
  <speed>0.0</speed>
  <fix>3d</fix>
</trkpt>
<trkpt lat="-27.2744391" lon="151.290064">
  <ele>343.05</ele>
  <time>2026-09-01T19:54:16Z</time>
  <course>10.71</course>
  <speed>0.01414213562373095</speed>
  <fix>3d</fix>
</trkpt>
<trkpt lat="-27.274439" lon="151.290064">
  <ele>343.1</ele>
  <time>2026-09-01T19:54:16Z</time>
  <course>345.74</course>
  <speed>0.0</speed>
  <fix>3d</fix>
</trkpt>
<trkpt lat="-27.2744391" lon="151.290064">
  <ele>343.05</ele>
  <time>2026-09-01T19:54:16Z</time>
  <course>10.71</course>
  <speed>0.01414213562373095</speed>
  <fix>3d</fix>
</trkpt>
<trkpt lat="-27.274439" lon="151.290064">
  <ele>343.1</ele>
  <time>2026-09-01T19:54:16Z</time>
  <course>9.43</course>
  <speed>0.0</speed>
  <fix>3d</fix>
</trkpt>
<trkpt lat="-27.2744391" lon="151.290064">
  <ele>343.04</ele>
  <time>2026-09-01T19:54:16Z</time>
  <course>10.71</course>
  <speed>0.01414213562373095</speed>
  <fix>3d</fix>
</trkpt>
<trkpt lat="-27.274439" lon="151.290064">
  <ele>343.1</ele>
  <time>2026-09-01T19:54:16Z</time>
  <course>9.43</course>
  <speed>0.0</speed>
  <fix>3d</fix>
</trkpt>
<trkpt lat="-27.2744391" lon="151.290064">
  <ele>343.04</ele>
  <time>2026-09-01T19:54:16Z</time>
  <course>10.71</course>
  <speed>0.01414213562373095</speed>
  <fix>3d</fix>
</trkpt>
<trkpt lat="-27.274439" lon="151.290064">
  <ele>343.1</ele>
  <time>2026-09-01T19:54:16Z</time>
  <course>16.37</course>
  <speed>0.0</speed>
  <fix>3d</fix>
</trkpt>
<trkpt lat="-27.2744391" lon="151.2900641">
  <ele>343.04</ele>
  <time>2026-09-01T19:54:16Z</time>
  <course>10.71</course>
  <speed>0.01414213562373095</speed>
  <fix>3d</fix>
</trkpt>
<trkpt lat="-27.274439" lon="151.290064">
  <ele>343.1</ele>
  <time>2026-09-01T19:54:16Z</time>
  <course>16.37</course>
  <speed>0.0</speed>
  <fix>3d</fix>
</trkpt>
<trkpt lat="-27.2744391" lon="151.2900641">
  <ele>343.04</ele>
  <time>2026-09-01T19:54:16Z</time>
  <course>10.71</course>
  <speed>0.01414213562373095</speed>
  <fix>3d</fix>
</trkpt>
<trkpt lat="-27.274439" lon="151.290064">
  <ele>343.1</ele>
  <time>2026-09-01T19:54:16Z</time>
  <course>7.75</course>
  <speed>0.0</speed>
  <fix>3d</fix>
</trkpt>
<trkpt lat="-27.2744391" lon="151.2900641">
  <ele>343.04</ele>
  <time>2026-09-01T19:54:16Z</time>
  <course>10.71</course>
  <speed>0.01414213562373095</speed>
  <fix>3d</fix>
</trkpt>
<trkpt lat="-27.274439" lon="151.290064">
  <ele>343.1</ele>
  <time>2026-09-01T19:54:16Z</time>
  <course>7.75</course>
  <speed>0.0</speed>
  <fix>3d</fix>
</trkpt>
<trkpt lat="-27.2744391" lon="151.2900641">
  <ele>343.04</ele>
  <time>2026-09-01T19:54:16Z</time>
  <course>10.71</course>
  <speed>0.01414213562373095</speed>
  <fix>3d</fix>
</trkpt>
<trkpt lat="-27.274439" lon="151.290064">
  <ele>343.1</ele>
  <time>2026-09-01T19:54:16Z</time>
  <course>25.09</course>
  <speed>0.0</speed>
  <fix>3d</fix>
</trkpt>
<trkpt lat="-27.2744391" lon="151.2900641">
  <ele>343.04</ele>
  <time>2026-09-01T19:54:16Z</time>
  <course>10.71</course>
  <speed>0.01414213562373095</speed>
  <fix>3d</fix>
</trkpt>
<trkpt lat="-27.274439" lon="151.290064">
  <ele>343.1</ele>
  <time>2026-09-01T19:54:16Z</time>
  <course>25.09</course>
  <speed>0.0</speed>
  <fix>3d</fix>
</trkpt>
<trkpt lat="-27.2744391" lon="151.2900641">
  <ele>343.04</ele>
  <time>2026-09-01T19:54:16Z</time>
  <course>10.71</course>
  <speed>0.01414213562373095</speed>
  <fix>3d</fix>
</trkpt>
<trkpt lat="-27.274439" lon="151.290064">
  <ele>343.1</ele>
  <time>2026-09-01T19:54:16Z</time>
  <course>9.48</course>
  <speed>0.0</speed>
  <fix>3d</fix>
</trkpt>
<trkpt lat="-27.2744391" lon="151.2900641">
  <ele>343.04</ele>
  <time>2026-09-01T19:54:16Z</time>
  <course>10.71</course>
  <speed>0.01414213562373095</speed>
  <fix>3d</fix>
</trkpt>
<trkpt lat="-27.274439" lon="151.290064">
  <ele>343.1</ele>
  <time>2026-09-01T19:54:16Z</time>
  <course>9.48</course>
  <speed>0.0</speed>
  <fix>3d</fix>
</trkpt>
<trkpt lat="-27.2744391" lon="151.2900641">
  <ele>343.04</ele>
  <time>2026-09-01T19:54:16Z</time>
  <course>10.71</course>
  <speed>0.01414213562373095</speed>
  <fix>3d</fix>
</trkpt>
<trkpt lat="-27.274439" lon="151.290064">
  <ele>343.1</ele>
  <time>2026-09-01T19:54:16Z</time>
  <course>12.02</course>
  <speed>0.0</speed>
  <fix>3d</fix>
</trkpt>
<trkpt lat="-27.2744391" lon="151.2900641">
  <ele>343.03</ele>
  <time>2026-09-01T19:54:16Z</time>
  <course>10.71</course>
  <speed>0.01414213562373095</speed>
  <fix>3d</fix>
</trkpt>
<trkpt lat="-27.274439" lon="151.290064">
  <ele>343.1</ele>
  <time>2026-09-01T19:54:16Z</time>
  <course>12.02</course>
  <speed>0.0</speed>
  <fix>3d</fix>
</trkpt>
<trkpt lat="-27.2744391" lon="151.2900641">
  <ele>343.03</ele>
  <time>2026-09-01T19:54:16Z</time>
  <course>10.72</course>
  <speed>0.01414213562373095</speed>
  <fix>3d</fix>
</trkpt>
<trkpt lat="-27.274439" lon="151.290064">
  <ele>343.1</ele>
  <time>2026-09-01T19:54:16Z</time>
  <course>11.65</course>
  <speed>0.0</speed>
  <fix>3d</fix>
</trkpt>
<trkpt lat="-27.2744391" lon="151.2900641">
  <ele>343.03</ele>
  <time>2026-09-01T19:54:16Z</time>
  <course>10.72</course>
  <speed>0.02</speed>
  <fix>3d</fix>
</trkpt>
<trkpt lat="-27.274439" lon="151.290064">
  <ele>343.1</ele>
  <time>2026-09-01T19:54:16Z</time>
  <course>11.65</course>
  <speed>0.0</speed>
  <fix>3d</fix>
</trkpt>
<trkpt lat="-27.2744391" lon="151.2900641">
  <ele>343.03</ele>
  <time>2026-09-01T19:54:16Z</time>
  <course>10.72</course>
  <speed>0.01414213562373095</speed>
  <fix>3d</fix>
</trkpt>
<trkpt lat="-27.274439" lon="151.290064">
  <ele>343.1</ele>
  <time>2026-09-01T19:54:16Z</time>
  <course>188.23</course>
  <speed>0.0</speed>
  <fix>3d</fix>
</trkpt>
<trkpt lat="-27.2744391" lon="151.2900641">
  <ele>343.03</ele>
  <time>2026-09-01T19:54:16Z</time>
  <course>10.72</course>
  <speed>0.01414213562373095</speed>
  <fix>3d</fix>
</trkpt>
<trkpt lat="-27.274439" lon="151.290064">
  <ele>343.1</ele>
  <time>2026-09-01T19:54:16Z</time>
  <course>188.23</course>
  <speed>0.0</speed>
  <fix>3d</fix>
</trkpt>
<trkpt lat="-27.2744391" lon="151.2900641">
  <ele>343.03</ele>
  <time>2026-09-01T19:54:17Z</time>
  <course>10.72</course>
  <speed>0.01414213562373095</speed>
  <fix>3d</fix>
</trkpt>
<trkpt lat="-27.274439" lon="151.290064">
  <ele>343.1</ele>
  <time>2026-09-01T19:54:17Z</time>
  <course>187.3</course>
  <speed>0.0</speed>
  <fix>3d</fix>
</trkpt>
<trkpt lat="-27.2744391" lon="151.2900641">
  <ele>343.03</ele>
  <time>2026-09-01T19:54:17Z</time>
  <course>10.72</course>
  <speed>0.01414213562373095</speed>
  <fix>3d</fix>
</trkpt>
<trkpt lat="-27.274439" lon="151.290064">
  <ele>343.1</ele>
  <time>2026-09-01T19:54:17Z</time>
  <course>187.3</course>
  <speed>0.0</speed>
  <fix>3d</fix>
</trkpt>
<trkpt lat="-27.2744391" lon="151.2900641">
  <ele>343.1</ele>
  <time>2026-09-01T19:54:17Z</time>
  <course>10.72</course>
  <speed>0.01414213562373095</speed>
  <fix>3d</fix>
</trkpt>
<trkpt lat="-27.274439" lon="151.290064">
  <ele>343.1</ele>
  <time>2026-09-01T19:54:17Z</time>
  <course>8.62</course>
  <speed>0.0</speed>
  <fix>3d</fix>
</trkpt>
<trkpt lat="-27.2744391" lon="151.2900641">
  <ele>343.09</ele>
  <time>2026-09-01T19:54:17Z</time>
  <course>10.72</course>
  <speed>0.01414213562373095</speed>
  <fix>3d</fix>
</trkpt>
<trkpt lat="-27.274439" lon="151.290064">
  <ele>343.1</ele>
  <time>2026-09-01T19:54:17Z</time>
  <course>8.62</course>
  <speed>0.0</speed>
  <fix>3d</fix>
</trkpt>
<trkpt lat="-27.2744391" lon="151.2900641">
  <ele>343.09</ele>
  <time>2026-09-01T19:54:17Z</time>
  <course>10.72</course>
  <speed>0.01414213562373095</speed>
  <fix>3d</fix>
</trkpt>
<trkpt lat="-27.274439" lon="151.290064">
  <ele>343.1</ele>
  <time>2026-09-01T19:54:17Z</time>
  <course>8.68</course>
  <speed>0.0</speed>
  <fix>3d</fix>
</trkpt>
<trkpt lat="-27.2744391" lon="151.2900641">
  <ele>343.09</ele>
  <time>2026-09-01T19:54:17Z</time>
  <course>10.72</course>
  <speed>0.01414213562373095</speed>
  <fix>3d</fix>
</trkpt>
<trkpt lat="-27.274439" lon="151.290064">
  <ele>343.1</ele>
  <time>2026-09-01T19:54:17Z</time>
  <course>8.68</course>
  <speed>0.0</speed>
  <fix>3d</fix>
</trkpt>
<trkpt lat="-27.2744391" lon="151.2900641">
  <ele>343.09</ele>
  <time>2026-09-01T19:54:17Z</time>
  <course>10.72</course>
  <speed>0.01414213562373095</speed>
  <fix>3d</fix>
</trkpt>
<trkpt lat="-27.274439" lon="151.290064">
  <ele>343.1</ele>
  <time>2026-09-01T19:54:17Z</time>
  <course>182.4</course>
  <speed>0.0</speed>
  <fix>3d</fix>
</trkpt>
<trkpt lat="-27.2744391" lon="151.2900641">
  <ele>343.09</ele>
  <time>2026-09-01T19:54:17Z</time>
  <course>10.72</course>
  <speed>0.01414213562373095</speed>
  <fix>3d</fix>
</trkpt>
<trkpt lat="-27.274439" lon="151.290064">
  <ele>343.1</ele>
  <time>2026-09-01T19:54:17Z</time>
  <course>182.4</course>
  <speed>0.0</speed>
  <fix>3d</fix>
</trkpt>
<trkpt lat="-27.2744391" lon="151.2900641">
  <ele>343.08</ele>
  <time>2026-09-01T19:54:17Z</time>
  <course>10.72</course>
  <speed>0.01414213562373095</speed>
  <fix>3d</fix>
</trkpt>
<trkpt lat="-27.274439" lon="151.290064">
  <ele>343.1</ele>
  <time>2026-09-01T19:54:17Z</time>
  <course>23.91</course>
  <speed>0.0</speed>
  <fix>3d</fix>
</trkpt>
<trkpt lat="-27.2744391" lon="151.2900641">
  <ele>343.08</ele>
  <time>2026-09-01T19:54:17Z</time>
  <course>10.72</course>
  <speed>0.01414213562373095</speed>
  <fix>3d</fix>
</trkpt>
<trkpt lat="-27.274439" lon="151.290064">
  <ele>343.1</ele>
  <time>2026-09-01T19:54:17Z</time>
  <course>23.91</course>
  <speed>0.0</speed>
  <fix>3d</fix>
</trkpt>
<trkpt lat="-27.2744391" lon="151.2900641">
  <ele>343.07</ele>
  <time>2026-09-01T19:54:17Z</time>
  <course>10.72</course>
  <speed>0.01414213562373095</speed>
  <fix>3d</fix>
</trkpt>
<trkpt lat="-27.274439" lon="151.290064">
  <ele>343.1</ele>
  <time>2026-09-01T19:54:17Z</time>
  <course>12.3</course>
  <speed>0.0</speed>
  <fix>3d</fix>
</trkpt>
<trkpt lat="-27.2744391" lon="151.2900641">
  <ele>343.07</ele>
  <time>2026-09-01T19:54:17Z</time>
  <course>10.72</course>
  <speed>0.01414213562373095</speed>
  <fix>3d</fix>
</trkpt>
<trkpt lat="-27.274439" lon="151.290064">
  <ele>343.1</ele>
  <time>2026-09-01T19:54:17Z</time>
  <course>12.3</course>
  <speed>0.0</speed>
  <fix>3d</fix>
</trkpt>
<trkpt lat="-27.2744391" lon="151.2900641">
  <ele>343.07</ele>
  <time>2026-09-01T19:54:17Z</time>
  <course>10.72</course>
  <speed>0.01414213562373095</speed>
  <fix>3d</fix>
</trkpt>
<trkpt lat="-27.274439" lon="151.290064">
  <ele>343.1</ele>
  <time>2026-09-01T19:54:17Z</time>
  <course>8.67</course>
  <speed>0.0</speed>
  <fix>3d</fix>
</trkpt>
<trkpt lat="-27.2744391" lon="151.2900641">
  <ele>343.06</ele>
  <time>2026-09-01T19:54:17Z</time>
  <course>10.72</course>
  <speed>0.01414213562373095</speed>
  <fix>3d</fix>
</trkpt>
<trkpt lat="-27.274439" lon="151.290064">
  <ele>343.1</ele>
  <time>2026-09-01T19:54:17Z</time>
  <course>8.67</course>
  <speed>0.0</speed>
  <fix>3d</fix>
</trkpt>
<trkpt lat="-27.2744391" lon="151.2900641">
  <ele>343.06</ele>
  <time>2026-09-01T19:54:17Z</time>
  <course>10.72</course>
  <speed>0.01414213562373095</speed>
  <fix>3d</fix>
</trkpt>
<trkpt lat="-27.274439" lon="151.290064">
  <ele>343.1</ele>
  <time>2026-09-01T19:54:17Z</time>
  <course>353.38</course>
  <speed>0.0</speed>
  <fix>3d</fix>
</trkpt>
<trkpt lat="-27.2744391" lon="151.2900641">
  <ele>343.05</ele>
  <time>2026-09-01T19:54:17Z</time>
  <course>10.72</course>
  <speed>0.01414213562373095</speed>
  <fix>3d</fix>
</trkpt>
<trkpt lat="-27.274439" lon="151.290064">
  <ele>343.1</ele>
  <time>2026-09-01T19:54:17Z</time>
  <course>353.38</course>
  <speed>0.0</speed>
  <fix>3d</fix>
</trkpt>
<trkpt lat="-27.2744391" lon="151.2900641">
  <ele>343.05</ele>
  <time>2026-09-01T19:54:17Z</time>
  <course>10.72</course>
  <speed>0.01414213562373095</speed>
  <fix>3d</fix>
</trkpt>
<trkpt lat="-27.274439" lon="151.290064">
  <ele>343.1</ele>
  <time>2026-09-01T19:54:17Z</time>
  <course>10.55</course>
  <speed>0.0</speed>
  <fix>3d</fix>
</trkpt>
<trkpt lat="-27.2744391" lon="151.2900641">
  <ele>343.05</ele>
  <time>2026-09-01T19:54:17Z</time>
  <course>10.72</course>
  <speed>0.01414213562373095</speed>
  <fix>3d</fix>
</trkpt>
<trkpt lat="-27.274439" lon="151.290064">
  <ele>343.1</ele>
  <time>2026-09-01T19:54:17Z</time>
  <course>10.55</course>
  <speed>0.0</speed>
  <fix>3d</fix>
</trkpt>
<trkpt lat="-27.2744391" lon="151.2900641">
  <ele>343.04</ele>
  <time>2026-09-01T19:54:17Z</time>
  <course>10.72</course>
  <speed>0.01414213562373095</speed>
  <fix>3d</fix>
</trkpt>
<trkpt lat="-27.274439" lon="151.290064">
  <ele>343.1</ele>
  <time>2026-09-01T19:54:17Z</time>
  <course>8.51</course>
  <speed>0.0</speed>
  <fix>3d</fix>
</trkpt>
<trkpt lat="-27.2744391" lon="151.2900641">
  <ele>343.04</ele>
  <time>2026-09-01T19:54:17Z</time>
  <course>10.72</course>
  <speed>0.01414213562373095</speed>
  <fix>3d</fix>
</trkpt>
<trkpt lat="-27.274439" lon="151.290064">
  <ele>343.1</ele>
  <time>2026-09-01T19:54:17Z</time>
  <course>8.51</course>
  <speed>0.0</speed>
  <fix>3d</fix>
</trkpt>
<trkpt lat="-27.2744391" lon="151.2900641">
  <ele>343.03</ele>
  <time>2026-09-01T19:54:17Z</time>
  <course>10.72</course>
  <speed>0.01414213562373095</speed>
  <fix>3d</fix>
</trkpt>
<trkpt lat="-27.274439" lon="151.290064">
  <ele>343.1</ele>
  <time>2026-09-01T19:54:17Z</time>
  <course>3.39</course>
  <speed>0.0</speed>
  <fix>3d</fix>
</trkpt>
<trkpt lat="-27.2744391" lon="151.2900641">
  <ele>343.03</ele>
  <time>2026-09-01T19:54:17Z</time>
  <course>10.72</course>
  <speed>0.01414213562373095</speed>
  <fix>3d</fix>
</trkpt>
<trkpt lat="-27.274439" lon="151.290064">
  <ele>343.1</ele>
  <time>2026-09-01T19:54:17Z</time>
  <course>3.39</course>
  <speed>0.0</speed>
  <fix>3d</fix>
</trkpt>
<trkpt lat="-27.2744391" lon="151.2900641">
  <ele>343.02</ele>
  <time>2026-09-01T19:54:17Z</time>
  <course>10.72</course>
  <speed>0.01414213562373095</speed>
  <fix>3d</fix>
</trkpt>
<trkpt lat="-27.274439" lon="151.290064">
  <ele>343.1</ele>
  <time>2026-09-01T19:54:17Z</time>
  <course>5.08</course>
  <speed>0.0</speed>
  <fix>3d</fix>
</trkpt>
<trkpt lat="-27.2744391" lon="151.2900641">
  <ele>343.02</ele>
  <time>2026-09-01T19:54:17Z</time>
  <course>10.72</course>
  <speed>0.01414213562373095</speed>
  <fix>3d</fix>
</trkpt>
<trkpt lat="-27.274439" lon="151.290064">
  <ele>343.1</ele>
  <time>2026-09-01T19:54:17Z</time>
  <course>5.08</course>
  <speed>0.0</speed>
  <fix>3d</fix>
</trkpt>
<trkpt lat="-27.2744391" lon="151.2900641">
  <ele>343.02</ele>
  <time>2026-09-01T19:54:17Z</time>
  <course>10.72</course>
  <speed>0.01414213562373095</speed>
  <fix>3d</fix>
</trkpt>
<trkpt lat="-27.274439" lon="151.290064">
  <ele>343.1</ele>
  <time>2026-09-01T19:54:17Z</time>
  <course>345.19</course>
  <speed>0.0</speed>
  <fix>3d</fix>
</trkpt>
<trkpt lat="-27.2744391" lon="151.2900641">
  <ele>343.02</ele>
  <time>2026-09-01T19:54:17Z</time>
  <course>10.72</course>
  <speed>0.01414213562373095</speed>
  <fix>3d</fix>
</trkpt>
<trkpt lat="-27.274439" lon="151.290064">
  <ele>343.1</ele>
  <time>2026-09-01T19:54:17Z</time>
  <course>345.19</course>
  <speed>0.0</speed>
  <fix>3d</fix>
</trkpt>
<trkpt lat="-27.2744391" lon="151.2900641">
  <ele>343.02</ele>
  <time>2026-09-01T19:54:17Z</time>
  <course>10.72</course>
  <speed>0.01414213562373095</speed>
  <fix>3d</fix>
</trkpt>
<trkpt lat="-27.274439" lon="151.290064">
  <ele>343.1</ele>
  <time>2026-09-01T19:54:17Z</time>
  <course>347.06</course>
  <speed>0.0</speed>
  <fix>3d</fix>
</trkpt>
<trkpt lat="-27.2744391" lon="151.2900641">
  <ele>343.02</ele>
  <time>2026-09-01T19:54:17Z</time>
  <course>10.72</course>
  <speed>0.01414213562373095</speed>
  <fix>3d</fix>
</trkpt>
<trkpt lat="-27.274439" lon="151.290064">
  <ele>343.1</ele>
  <time>2026-09-01T19:54:17Z</time>
  <course>347.06</course>
  <speed>0.0</speed>
  <fix>3d</fix>
</trkpt>
<trkpt lat="-27.2744391" lon="151.2900641">
  <ele>343.01</ele>
  <time>2026-09-01T19:54:17Z</time>
  <course>10.72</course>
  <speed>0.01414213562373095</speed>
  <fix>3d</fix>
</trkpt>
<trkpt lat="-27.274439" lon="151.290064">
  <ele>343.1</ele>
  <time>2026-09-01T19:54:17Z</time>
  <course>359.28</course>
  <speed>0.0</speed>
  <fix>3d</fix>
</trkpt>
<trkpt lat="-27.2744391" lon="151.2900641">
  <ele>343.01</ele>
  <time>2026-09-01T19:54:17Z</time>
  <course>10.72</course>
  <speed>0.01414213562373095</speed>
  <fix>3d</fix>
</trkpt>
<trkpt lat="-27.274439" lon="151.290064">
  <ele>343.1</ele>
  <time>2026-09-01T19:54:17Z</time>
  <course>359.28</course>
  <speed>0.0</speed>
  <fix>3d</fix>
</trkpt>
<trkpt lat="-27.2744391" lon="151.2900641">
  <ele>343.0</ele>
  <time>2026-09-01T19:54:17Z</time>
  <course>10.72</course>
  <speed>0.01414213562373095</speed>
  <fix>3d</fix>
</trkpt>
<trkpt lat="-27.274439" lon="151.290064">
  <ele>343.1</ele>
  <time>2026-09-01T19:54:17Z</time>
  <course>10.67</course>
  <speed>0.0</speed>
  <fix>3d</fix>
</trkpt>
<trkpt lat="-27.2744391" lon="151.2900641">
  <ele>343.0</ele>
  <time>2026-09-01T19:54:17Z</time>
  <course>10.73</course>
  <speed>0.01414213562373095</speed>
  <fix>3d</fix>
</trkpt>
<trkpt lat="-27.274439" lon="151.290064">
  <ele>343.1</ele>
  <time>2026-09-01T19:54:17Z</time>
  <course>10.67</course>
  <speed>0.0</speed>
  <fix>3d</fix>
</trkpt>
<trkpt lat="-27.2744391" lon="151.2900641">
  <ele>343.0</ele>
  <time>2026-09-01T19:54:17Z</time>
  <course>10.73</course>
  <speed>0.01414213562373095</speed>
  <fix>3d</fix>
</trkpt>
<trkpt lat="-27.274439" lon="151.290064">
  <ele>343.1</ele>
  <time>2026-09-01T19:54:17Z</time>
  <course>346.52</course>
  <speed>0.0</speed>
  <fix>3d</fix>
</trkpt>
<trkpt lat="-27.2744391" lon="151.2900641">
  <ele>342.99</ele>
  <time>2026-09-01T19:54:17Z</time>
  <course>10.73</course>
  <speed>0.01414213562373095</speed>
  <fix>3d</fix>
</trkpt>
<trkpt lat="-27.274439" lon="151.290064">
  <ele>343.1</ele>
  <time>2026-09-01T19:54:17Z</time>
  <course>346.52</course>
  <speed>0.0</speed>
  <fix>3d</fix>
</trkpt>
<trkpt lat="-27.2744391" lon="151.2900641">
  <ele>342.99</ele>
  <time>2026-09-01T19:54:17Z</time>
  <course>10.73</course>
  <speed>0.01414213562373095</speed>
  <fix>3d</fix>
</trkpt>
<trkpt lat="-27.274439" lon="151.290064">
  <ele>343.1</ele>
  <time>2026-09-01T19:54:17Z</time>
  <course>3.38</course>
  <speed>0.0</speed>
  <fix>3d</fix>
</trkpt>
<trkpt lat="-27.2744391" lon="151.2900641">
  <ele>342.99</ele>
  <time>2026-09-01T19:54:17Z</time>
  <course>10.73</course>
  <speed>0.01414213562373095</speed>
  <fix>3d</fix>
</trkpt>
<trkpt lat="-27.274439" lon="151.290064">
  <ele>343.1</ele>
  <time>2026-09-01T19:54:17Z</time>
  <course>3.38</course>
  <speed>0.0</speed>
  <fix>3d</fix>
</trkpt>
<trkpt lat="-27.2744391" lon="151.2900641">
  <ele>342.99</ele>
  <time>2026-09-01T19:54:17Z</time>
  <course>10.73</course>
  <speed>0.01414213562373095</speed>
  <fix>3d</fix>
</trkpt>
<trkpt lat="-27.274439" lon="151.290064">
  <ele>343.1</ele>
  <time>2026-09-01T19:54:17Z</time>
  <course>28.71</course>
  <speed>0.0</speed>
  <fix>3d</fix>
</trkpt>
<trkpt lat="-27.2744391" lon="151.2900641">
  <ele>342.99</ele>
  <time>2026-09-01T19:54:17Z</time>
  <course>10.73</course>
  <speed>0.01414213562373095</speed>
  <fix>3d</fix>
</trkpt>
<trkpt lat="-27.274439" lon="151.290064">
  <ele>343.1</ele>
  <time>2026-09-01T19:54:17Z</time>
  <course>28.71</course>
  <speed>0.0</speed>
  <fix>3d</fix>
</trkpt>
<trkpt lat="-27.2744391" lon="151.2900641">
  <ele>342.98</ele>
  <time>2026-09-01T19:54:17Z</time>
  <course>10.73</course>
  <speed>0.01414213562373095</speed>
  <fix>3d</fix>
</trkpt>
<trkpt lat="-27.274439" lon="151.290064">
  <ele>343.1</ele>
  <time>2026-09-01T19:54:17Z</time>
  <course>24.21</course>
  <speed>0.0</speed>
  <fix>3d</fix>
</trkpt>
<trkpt lat="-27.2744391" lon="151.2900641">
  <ele>342.98</ele>
  <time>2026-09-01T19:54:17Z</time>
  <course>10.73</course>
  <speed>0.01414213562373095</speed>
  <fix>3d</fix>
</trkpt>
<trkpt lat="-27.274439" lon="151.290064">
  <ele>343.1</ele>
  <time>2026-09-01T19:54:17Z</time>
  <course>24.21</course>
  <speed>0.0</speed>
  <fix>3d</fix>
</trkpt>
<trkpt lat="-27.2744391" lon="151.2900641">
  <ele>342.98</ele>
  <time>2026-09-01T19:54:17Z</time>
  <course>10.73</course>
  <speed>0.01414213562373095</speed>
  <fix>3d</fix>
</trkpt>
<trkpt lat="-27.274439" lon="151.290064">
  <ele>343.1</ele>
  <time>2026-09-01T19:54:17Z</time>
  <course>350.73</course>
  <speed>0.0</speed>
  <fix>3d</fix>
</trkpt>
<trkpt lat="-27.2744391" lon="151.2900641">
  <ele>342.98</ele>
  <time>2026-09-01T19:54:17Z</time>
  <course>10.73</course>
  <speed>0.01414213562373095</speed>
  <fix>3d</fix>
</trkpt>
<trkpt lat="-27.274439" lon="151.290064">
  <ele>343.1</ele>
  <time>2026-09-01T19:54:17Z</time>
  <course>350.73</course>
  <speed>0.0</speed>
  <fix>3d</fix>
</trkpt>
<trkpt lat="-27.2744391" lon="151.2900641">
  <ele>342.98</ele>
  <time>2026-09-01T19:54:17Z</time>
  <course>10.73</course>
  <speed>0.01414213562373095</speed>
  <fix>3d</fix>
</trkpt>
<trkpt lat="-27.274439" lon="151.290064">
  <ele>343.1</ele>
  <time>2026-09-01T19:54:17Z</time>
  <course>357.04</course>
  <speed>0.0</speed>
  <fix>3d</fix>
</trkpt>
<trkpt lat="-27.2744391" lon="151.2900641">
  <ele>342.98</ele>
  <time>2026-09-01T19:54:17Z</time>
  <course>10.73</course>
  <speed>0.01414213562373095</speed>
  <fix>3d</fix>
</trkpt>
<trkpt lat="-27.274439" lon="151.290064">
  <ele>343.1</ele>
  <time>2026-09-01T19:54:17Z</time>
  <course>357.04</course>
  <speed>0.0</speed>
  <fix>3d</fix>
</trkpt>
<trkpt lat="-27.2744391" lon="151.2900641">
  <ele>342.98</ele>
  <time>2026-09-01T19:54:17Z</time>
  <course>10.73</course>
  <speed>0.01414213562373095</speed>
  <fix>3d</fix>
</trkpt>
<trkpt lat="-27.274439" lon="151.290064">
  <ele>343.1</ele>
  <time>2026-09-01T19:54:17Z</time>
  <course>17.48</course>
  <speed>0.0</speed>
  <fix>3d</fix>
</trkpt>
<trkpt lat="-27.2744391" lon="151.2900641">
  <ele>342.98</ele>
  <time>2026-09-01T19:54:17Z</time>
  <course>10.73</course>
  <speed>0.01414213562373095</speed>
  <fix>3d</fix>
</trkpt>
<trkpt lat="-27.274439" lon="151.290064">
  <ele>343.1</ele>
  <time>2026-09-01T19:54:17Z</time>
  <course>17.48</course>
  <speed>0.0</speed>
  <fix>3d</fix>
</trkpt>
<trkpt lat="-27.2744391" lon="151.2900641">
  <ele>342.98</ele>
  <time>2026-09-01T19:54:17Z</time>
  <course>10.73</course>
  <speed>0.01414213562373095</speed>
  <fix>3d</fix>
</trkpt>
<trkpt lat="-27.274439" lon="151.290064">
  <ele>343.1</ele>
  <time>2026-09-01T19:54:17Z</time>
  <course>354.89</course>
  <speed>0.0</speed>
  <fix>3d</fix>
</trkpt>
<trkpt lat="-27.2744391" lon="151.2900641">
  <ele>342.98</ele>
  <time>2026-09-01T19:54:17Z</time>
  <course>10.73</course>
  <speed>0.03</speed>
  <fix>3d</fix>
</trkpt>
<trkpt lat="-27.274439" lon="151.290064">
  <ele>343.1</ele>
  <time>2026-09-01T19:54:17Z</time>
  <course>354.89</course>
  <speed>0.0</speed>
  <fix>3d</fix>
</trkpt>
<trkpt lat="-27.2744391" lon="151.2900641">
  <ele>342.98</ele>
  <time>2026-09-01T19:54:17Z</time>
  <course>10.73</course>
  <speed>0.01414213562373095</speed>
  <fix>3d</fix>
</trkpt>
<trkpt lat="-27.274439" lon="151.290064">
  <ele>343.1</ele>
  <time>2026-09-01T19:54:17Z</time>
  <course>188.59</course>
  <speed>0.0</speed>
  <fix>3d</fix>
</trkpt>
<trkpt lat="-27.2744391" lon="151.2900641">
  <ele>342.97</ele>
  <time>2026-09-01T19:54:17Z</time>
  <course>10.73</course>
  <speed>0.01414213562373095</speed>
  <fix>3d</fix>
</trkpt>
<trkpt lat="-27.274439" lon="151.290064">
  <ele>343.1</ele>
  <time>2026-09-01T19:54:17Z</time>
  <course>188.59</course>
  <speed>0.0</speed>
  <fix>3d</fix>
</trkpt>
<trkpt lat="-27.2744391" lon="151.2900641">
  <ele>342.97</ele>
  <time>2026-09-01T19:54:17Z</time>
  <course>10.73</course>
  <speed>0.01414213562373095</speed>
  <fix>3d</fix>
</trkpt>
<trkpt lat="-27.274439" lon="151.290064">
  <ele>343.1</ele>
  <time>2026-09-01T19:54:17Z</time>
  <course>185.05</course>
  <speed>0.0</speed>
  <fix>3d</fix>
</trkpt>
<trkpt lat="-27.2744391" lon="151.2900641">
  <ele>342.97</ele>
  <time>2026-09-01T19:54:17Z</time>
  <course>10.73</course>
  <speed>0.01414213562373095</speed>
  <fix>3d</fix>
</trkpt>
<trkpt lat="-27.274439" lon="151.290064">
  <ele>343.1</ele>
  <time>2026-09-01T19:54:17Z</time>
  <course>185.05</course>
  <speed>0.0</speed>
  <fix>3d</fix>
</trkpt>
<trkpt lat="-27.2744391" lon="151.2900641">
  <ele>342.96</ele>
  <time>2026-09-01T19:54:17Z</time>
  <course>10.73</course>
  <speed>0.01414213562373095</speed>
  <fix>3d</fix>
</trkpt>
<trkpt lat="-27.274439" lon="151.290064">
  <ele>343.1</ele>
  <time>2026-09-01T19:54:17Z</time>
  <course>9.58</course>
  <speed>0.0</speed>
  <fix>3d</fix>
</trkpt>
<trkpt lat="-27.2744391" lon="151.2900641">
  <ele>342.96</ele>
  <time>2026-09-01T19:54:17Z</time>
  <course>10.73</course>
  <speed>0.022360679774997897</speed>
  <fix>3d</fix>
</trkpt>
<trkpt lat="-27.274439" lon="151.290064">
  <ele>343.1</ele>
  <time>2026-09-01T19:54:17Z</time>
  <course>9.58</course>
  <speed>0.0</speed>
  <fix>3d</fix>
</trkpt>
<trkpt lat="-27.2744391" lon="151.2900641">
  <ele>342.96</ele>
  <time>2026-09-01T19:54:17Z</time>
  <course>10.73</course>
  <speed>0.01414213562373095</speed>
  <fix>3d</fix>
</trkpt>
<trkpt lat="-27.274439" lon="151.290064">
  <ele>343.1</ele>
  <time>2026-09-01T19:54:17Z</time>
  <course>6.96</course>
  <speed>0.0</speed>
  <fix>3d</fix>
</trkpt>
<trkpt lat="-27.2744391" lon="151.2900641">
  <ele>342.96</ele>
  <time>2026-09-01T19:54:17Z</time>
  <course>10.73</course>
  <speed>0.01414213562373095</speed>
  <fix>3d</fix>
</trkpt>
<trkpt lat="-27.274439" lon="151.290064">
  <ele>343.1</ele>
  <time>2026-09-01T19:54:17Z</time>
  <course>6.96</course>
  <speed>0.0</speed>
  <fix>3d</fix>
</trkpt>
<trkpt lat="-27.2744391" lon="151.2900641">
  <ele>342.95</ele>
  <time>2026-09-01T19:54:17Z</time>
  <course>10.73</course>
  <speed>0.01414213562373095</speed>
  <fix>3d</fix>
</trkpt>
<trkpt lat="-27.274439" lon="151.290064">
  <ele>343.1</ele>
  <time>2026-09-01T19:54:17Z</time>
  <course>181.5</course>
  <speed>0.0</speed>
  <fix>3d</fix>
</trkpt>
<trkpt lat="-27.2744391" lon="151.2900641">
  <ele>342.95</ele>
  <time>2026-09-01T19:54:17Z</time>
  <course>10.73</course>
  <speed>0.01414213562373095</speed>
  <fix>3d</fix>
</trkpt>
<trkpt lat="-27.274439" lon="151.290064">
  <ele>343.1</ele>
  <time>2026-09-01T19:54:17Z</time>
  <course>181.5</course>
  <speed>0.0</speed>
  <fix>3d</fix>
</trkpt>
<trkpt lat="-27.2744391" lon="151.2900641">
  <ele>342.95</ele>
  <time>2026-09-01T19:54:17Z</time>
  <course>10.73</course>
  <speed>0.01414213562373095</speed>
  <fix>3d</fix>
</trkpt>
<trkpt lat="-27.274439" lon="151.290064">
  <ele>343.1</ele>
  <time>2026-09-01T19:54:17Z</time>
  <course>1.39</course>
  <speed>0.0</speed>
  <fix>3d</fix>
</trkpt>
<trkpt lat="-27.2744391" lon="151.2900641">
  <ele>342.95</ele>
  <time>2026-09-01T19:54:17Z</time>
  <course>10.73</course>
  <speed>0.01414213562373095</speed>
  <fix>3d</fix>
</trkpt>
<trkpt lat="-27.274439" lon="151.290064">
  <ele>343.1</ele>
  <time>2026-09-01T19:54:17Z</time>
  <course>1.39</course>
  <speed>0.0</speed>
  <fix>3d</fix>
</trkpt>
<trkpt lat="-27.2744391" lon="151.2900641">
  <ele>342.95</ele>
  <time>2026-09-01T19:54:17Z</time>
  <course>10.73</course>
  <speed>0.01414213562373095</speed>
  <fix>3d</fix>
</trkpt>
<trkpt lat="-27.274439" lon="151.290064">
  <ele>343.1</ele>
  <time>2026-09-01T19:54:17Z</time>
  <course>351.2</course>
  <speed>0.0</speed>
  <fix>3d</fix>
</trkpt>
<trkpt lat="-27.2744391" lon="151.2900641">
  <ele>342.95</ele>
  <time>2026-09-01T19:54:17Z</time>
  <course>10.73</course>
  <speed>0.01414213562373095</speed>
  <fix>3d</fix>
</trkpt>
<trkpt lat="-27.274439" lon="151.290064">
  <ele>343.1</ele>
  <time>2026-09-01T19:54:17Z</time>
  <course>351.2</course>
  <speed>0.0</speed>
  <fix>3d</fix>
</trkpt>
<trkpt lat="-27.2744391" lon="151.2900641">
  <ele>343.1</ele>
  <time>2026-09-01T19:54:17Z</time>
  <course>10.74</course>
  <speed>0.01414213562373095</speed>
  <fix>3d</fix>
</trkpt>
<trkpt lat="-27.274439" lon="151.290064">
  <ele>343.1</ele>
  <time>2026-09-01T19:54:17Z</time>
  <course>12.12</course>
  <speed>0.0</speed>
  <fix>3d</fix>
</trkpt>
<trkpt lat="-27.2744391" lon="151.2900641">
  <ele>343.09</ele>
  <time>2026-09-01T19:54:17Z</time>
  <course>10.74</course>
  <speed>0.01414213562373095</speed>
  <fix>3d</fix>
</trkpt>
<trkpt lat="-27.274439" lon="151.290064">
  <ele>343.1</ele>
  <time>2026-09-01T19:54:17Z</time>
  <course>12.12</course>
  <speed>0.0</speed>
  <fix>3d</fix>
</trkpt>
<trkpt lat="-27.2744391" lon="151.2900641">
  <ele>343.09</ele>
  <time>2026-09-01T19:54:17Z</time>
  <course>10.74</course>
  <speed>0.01414213562373095</speed>
  <fix>3d</fix>
</trkpt>
<trkpt lat="-27.274439" lon="151.290064">
  <ele>343.1</ele>
  <time>2026-09-01T19:54:17Z</time>
  <course>355.09</course>
  <speed>0.0</speed>
  <fix>3d</fix>
</trkpt>
<trkpt lat="-27.2744391" lon="151.2900641">
  <ele>343.09</ele>
  <time>2026-09-01T19:54:17Z</time>
  <course>10.74</course>
  <speed>0.01414213562373095</speed>
  <fix>3d</fix>
</trkpt>
<trkpt lat="-27.274439" lon="151.290064">
  <ele>343.1</ele>
  <time>2026-09-01T19:54:17Z</time>
  <course>355.09</course>
  <speed>0.0</speed>
  <fix>3d</fix>
</trkpt>
<trkpt lat="-27.2744391" lon="151.2900641">
  <ele>343.09</ele>
  <time>2026-09-01T19:54:17Z</time>
  <course>10.74</course>
  <speed>0.01414213562373095</speed>
  <fix>3d</fix>
</trkpt>
<trkpt lat="-27.274439" lon="151.290064">
  <ele>343.1</ele>
  <time>2026-09-01T19:54:17Z</time>
  <course>354.05</course>
  <speed>0.0</speed>
  <fix>3d</fix>
</trkpt>
<trkpt lat="-27.2744391" lon="151.2900641">
  <ele>343.09</ele>
  <time>2026-09-01T19:54:17Z</time>
  <course>10.74</course>
  <speed>0.01414213562373095</speed>
  <fix>3d</fix>
</trkpt>
<trkpt lat="-27.274439" lon="151.290064">
  <ele>343.1</ele>
  <time>2026-09-01T19:54:17Z</time>
  <course>354.05</course>
  <speed>0.0</speed>
  <fix>3d</fix>
</trkpt>
<trkpt lat="-27.2744391" lon="151.2900641">
  <ele>343.08</ele>
  <time>2026-09-01T19:54:17Z</time>
  <course>10.74</course>
  <speed>0.01414213562373095</speed>
  <fix>3d</fix>
</trkpt>
<trkpt lat="-27.274439" lon="151.290064">
  <ele>343.1</ele>
  <time>2026-09-01T19:54:17Z</time>
  <course>359.97</course>
  <speed>0.0</speed>
  <fix>3d</fix>
</trkpt>
<trkpt lat="-27.2744391" lon="151.2900641">
  <ele>343.08</ele>
  <time>2026-09-01T19:54:17Z</time>
  <course>10.74</course>
  <speed>0.01414213562373095</speed>
  <fix>3d</fix>
</trkpt>
<trkpt lat="-27.274439" lon="151.290064">
  <ele>343.1</ele>
  <time>2026-09-01T19:54:17Z</time>
  <course>359.97</course>
  <speed>0.0</speed>
  <fix>3d</fix>
</trkpt>
<trkpt lat="-27.2744391" lon="151.2900641">
  <ele>343.08</ele>
  <time>2026-09-01T19:54:17Z</time>
  <course>10.74</course>
  <speed>0.01414213562373095</speed>
  <fix>3d</fix>
</trkpt>
<trkpt lat="-27.274439" lon="151.290064">
  <ele>343.1</ele>
  <time>2026-09-01T19:54:17Z</time>
  <course>13.98</course>
  <speed>0.0</speed>
  <fix>3d</fix>
</trkpt>
<trkpt lat="-27.2744391" lon="151.2900641">
  <ele>343.07</ele>
  <time>2026-09-01T19:54:17Z</time>
  <course>10.74</course>
  <speed>0.01414213562373095</speed>
  <fix>3d</fix>
</trkpt>
<trkpt lat="-27.274439" lon="151.290064">
  <ele>343.1</ele>
  <time>2026-09-01T19:54:17Z</time>
  <course>13.98</course>
  <speed>0.0</speed>
  <fix>3d</fix>
</trkpt>
<trkpt lat="-27.2744391" lon="151.2900641">
  <ele>343.07</ele>
  <time>2026-09-01T19:54:17Z</time>
  <course>10.74</course>
  <speed>0.01414213562373095</speed>
  <fix>3d</fix>
</trkpt>
<trkpt lat="-27.274439" lon="151.290064">
  <ele>343.1</ele>
  <time>2026-09-01T19:54:17Z</time>
  <course>16.65</course>
  <speed>0.0</speed>
  <fix>3d</fix>
</trkpt>
<trkpt lat="-27.2744391" lon="151.2900641">
  <ele>343.07</ele>
  <time>2026-09-01T19:54:17Z</time>
  <course>10.74</course>
  <speed>0.01414213562373095</speed>
  <fix>3d</fix>
</trkpt>
<trkpt lat="-27.274439" lon="151.290064">
  <ele>343.1</ele>
  <time>2026-09-01T19:54:17Z</time>
  <course>16.65</course>
  <speed>0.0</speed>
  <fix>3d</fix>
</trkpt>
<trkpt lat="-27.2744391" lon="151.2900641">
  <ele>343.07</ele>
  <time>2026-09-01T19:54:17Z</time>
  <course>10.74</course>
  <speed>0.01414213562373095</speed>
  <fix>3d</fix>
</trkpt>
<trkpt lat="-27.274439" lon="151.290064">
  <ele>343.1</ele>
  <time>2026-09-01T19:54:17Z</time>
  <course>7.38</course>
  <speed>0.0</speed>
  <fix>3d</fix>
</trkpt>
<trkpt lat="-27.2744391" lon="151.2900641">
  <ele>343.06</ele>
  <time>2026-09-01T19:54:17Z</time>
  <course>10.74</course>
  <speed>0.01414213562373095</speed>
  <fix>3d</fix>
</trkpt>
<trkpt lat="-27.274439" lon="151.290064">
  <ele>343.1</ele>
  <time>2026-09-01T19:54:17Z</time>
  <course>7.38</course>
  <speed>0.0</speed>
  <fix>3d</fix>
</trkpt>
<trkpt lat="-27.2744391" lon="151.2900641">
  <ele>343.06</ele>
  <time>2026-09-01T19:54:17Z</time>
  <course>10.74</course>
  <speed>0.01414213562373095</speed>
  <fix>3d</fix>
</trkpt>
<trkpt lat="-27.274439" lon="151.290064">
  <ele>343.1</ele>
  <time>2026-09-01T19:54:17Z</time>
  <course>350.4</course>
  <speed>0.0</speed>
  <fix>3d</fix>
</trkpt>
<trkpt lat="-27.2744391" lon="151.2900641">
  <ele>343.06</ele>
  <time>2026-09-01T19:54:17Z</time>
  <course>10.74</course>
  <speed>0.022360679774997897</speed>
  <fix>3d</fix>
</trkpt>
<trkpt lat="-27.274439" lon="151.290064">
  <ele>343.1</ele>
  <time>2026-09-01T19:54:17Z</time>
  <course>350.4</course>
  <speed>0.0</speed>
  <fix>3d</fix>
</trkpt>
<trkpt lat="-27.2744391" lon="151.2900641">
  <ele>343.06</ele>
  <time>2026-09-01T19:54:17Z</time>
  <course>10.74</course>
  <speed>0.01414213562373095</speed>
  <fix>3d</fix>
</trkpt>
<trkpt lat="-27.274439" lon="151.290064">
  <ele>343.1</ele>
  <time>2026-09-01T19:54:17Z</time>
  <course>14.78</course>
  <speed>0.0</speed>
  <fix>3d</fix>
</trkpt>
<trkpt lat="-27.2744391" lon="151.2900641">
  <ele>343.06</ele>
  <time>2026-09-01T19:54:17Z</time>
  <course>10.74</course>
  <speed>0.022360679774997897</speed>
  <fix>3d</fix>
</trkpt>
<trkpt lat="-27.274439" lon="151.290064">
  <ele>343.1</ele>
  <time>2026-09-01T19:54:17Z</time>
  <course>14.78</course>
  <speed>0.0</speed>
  <fix>3d</fix>
</trkpt>
<trkpt lat="-27.2744391" lon="151.2900641">
  <ele>343.06</ele>
  <time>2026-09-01T19:54:17Z</time>
  <course>10.74</course>
  <speed>0.01414213562373095</speed>
  <fix>3d</fix>
</trkpt>
<trkpt lat="-27.274439" lon="151.290064">
  <ele>343.1</ele>
  <time>2026-09-01T19:54:17Z</time>
  <course>32.97</course>
  <speed>0.0</speed>
  <fix>3d</fix>
</trkpt>
<trkpt lat="-27.2744391" lon="151.2900641">
  <ele>343.06</ele>
  <time>2026-09-01T19:54:17Z</time>
  <course>10.74</course>
  <speed>0.022360679774997897</speed>
  <fix>3d</fix>
</trkpt>
<trkpt lat="-27.274439" lon="151.290064">
  <ele>343.1</ele>
  <time>2026-09-01T19:54:17Z</time>
  <course>32.97</course>
  <speed>0.0</speed>
  <fix>3d</fix>
</trkpt>
<trkpt lat="-27.2744391" lon="151.2900641">
  <ele>343.06</ele>
  <time>2026-09-01T19:54:17Z</time>
  <course>10.74</course>
  <speed>0.01414213562373095</speed>
  <fix>3d</fix>
</trkpt>
<trkpt lat="-27.274439" lon="151.290064">
  <ele>343.1</ele>
  <time>2026-09-01T19:54:17Z</time>
  <course>3.61</course>
  <speed>0.0</speed>
  <fix>3d</fix>
</trkpt>
<trkpt lat="-27.2744391" lon="151.2900641">
  <ele>343.06</ele>
  <time>2026-09-01T19:54:17Z</time>
  <course>10.74</course>
  <speed>0.022360679774997897</speed>
  <fix>3d</fix>
</trkpt>
<trkpt lat="-27.274439" lon="151.290064">
  <ele>343.1</ele>
  <time>2026-09-01T19:54:17Z</time>
  <course>3.61</course>
  <speed>0.0</speed>
  <fix>3d</fix>
</trkpt>
<trkpt lat="-27.2744391" lon="151.2900641">
  <ele>343.06</ele>
  <time>2026-09-01T19:54:17Z</time>
  <course>10.74</course>
  <speed>0.022360679774997897</speed>
  <fix>3d</fix>
</trkpt>
<trkpt lat="-27.274439" lon="151.290064">
  <ele>343.1</ele>
  <time>2026-09-01T19:54:17Z</time>
  <course>14.91</course>
  <speed>0.0</speed>
  <fix>3d</fix>
</trkpt>
<trkpt lat="-27.2744391" lon="151.2900641">
  <ele>343.06</ele>
  <time>2026-09-01T19:54:17Z</time>
  <course>10.74</course>
  <speed>0.022360679774997897</speed>
  <fix>3d</fix>
</trkpt>
<trkpt lat="-27.274439" lon="151.290064">
  <ele>343.1</ele>
  <time>2026-09-01T19:54:17Z</time>
  <course>14.91</course>
  <speed>0.0</speed>
  <fix>3d</fix>
</trkpt>
<trkpt lat="-27.2744391" lon="151.2900641">
  <ele>343.06</ele>
  <time>2026-09-01T19:54:17Z</time>
  <course>10.74</course>
  <speed>0.022360679774997897</speed>
  <fix>3d</fix>
</trkpt>
<trkpt lat="-27.274439" lon="151.290064">
  <ele>343.1</ele>
  <time>2026-09-01T19:54:17Z</time>
  <course>15.58</course>
  <speed>0.0</speed>
  <fix>3d</fix>
</trkpt>
<trkpt lat="-27.2744391" lon="151.2900641">
  <ele>343.06</ele>
  <time>2026-09-01T19:54:17Z</time>
  <course>10.74</course>
  <speed>0.022360679774997897</speed>
  <fix>3d</fix>
</trkpt>
<trkpt lat="-27.274439" lon="151.290064">
  <ele>343.1</ele>
  <time>2026-09-01T19:54:17Z</time>
  <course>15.58</course>
  <speed>0.0</speed>
  <fix>3d</fix>
</trkpt>
<trkpt lat="-27.2744391" lon="151.2900641">
  <ele>343.06</ele>
  <time>2026-09-01T19:54:17Z</time>
  <course>10.74</course>
  <speed>0.022360679774997897</speed>
  <fix>3d</fix>
</trkpt>
<trkpt lat="-27.274439" lon="151.290064">
  <ele>343.1</ele>
  <time>2026-09-01T19:54:17Z</time>
  <course>353.6</course>
  <speed>0.0</speed>
  <fix>3d</fix>
</trkpt>
<trkpt lat="-27.2744391" lon="151.2900641">
  <ele>343.06</ele>
  <time>2026-09-01T19:54:17Z</time>
  <course>10.74</course>
  <speed>0.022360679774997897</speed>
  <fix>3d</fix>
</trkpt>
<trkpt lat="-27.274439" lon="151.290064">
  <ele>343.1</ele>
  <time>2026-09-01T19:54:17Z</time>
  <course>353.6</course>
  <speed>0.0</speed>
  <fix>3d</fix>
</trkpt>
<trkpt lat="-27.2744391" lon="151.2900641">
  <ele>343.05</ele>
  <time>2026-09-01T19:54:17Z</time>
  <course>10.75</course>
  <speed>0.022360679774997897</speed>
  <fix>3d</fix>
</trkpt>
<trkpt lat="-27.274439" lon="151.290064">
  <ele>343.1</ele>
  <time>2026-09-01T19:54:17Z</time>
  <course>1.44</course>
  <speed>0.0</speed>
  <fix>3d</fix>
</trkpt>
<trkpt lat="-27.2744391" lon="151.2900641">
  <ele>343.05</ele>
  <time>2026-09-01T19:54:17Z</time>
  <course>10.75</course>
  <speed>0.022360679774997897</speed>
  <fix>3d</fix>
</trkpt>
<trkpt lat="-27.274439" lon="151.290064">
  <ele>343.1</ele>
  <time>2026-09-01T19:54:17Z</time>
  <course>1.44</course>
  <speed>0.0</speed>
  <fix>3d</fix>
</trkpt>
<trkpt lat="-27.2744391" lon="151.2900641">
  <ele>343.05</ele>
  <time>2026-09-01T19:54:17Z</time>
  <course>10.75</course>
  <speed>0.022360679774997897</speed>
  <fix>3d</fix>
</trkpt>
<trkpt lat="-27.274439" lon="151.290064">
  <ele>343.1</ele>
  <time>2026-09-01T19:54:17Z</time>
  <course>2.16</course>
  <speed>0.0</speed>
  <fix>3d</fix>
</trkpt>
<trkpt lat="-27.2744391" lon="151.2900641">
  <ele>343.04</ele>
  <time>2026-09-01T19:54:17Z</time>
  <course>10.75</course>
  <speed>0.022360679774997897</speed>
  <fix>3d</fix>
</trkpt>
<trkpt lat="-27.274439" lon="151.290064">
  <ele>343.1</ele>
  <time>2026-09-01T19:54:17Z</time>
  <course>2.16</course>
  <speed>0.0</speed>
  <fix>3d</fix>
</trkpt>
<trkpt lat="-27.2744391" lon="151.2900641">
  <ele>343.04</ele>
  <time>2026-09-01T19:54:17Z</time>
  <course>10.75</course>
  <speed>0.022360679774997897</speed>
  <fix>3d</fix>
</trkpt>
<trkpt lat="-27.274439" lon="151.290064">
  <ele>343.1</ele>
  <time>2026-09-01T19:54:17Z</time>
  <course>9.32</course>
  <speed>0.0</speed>
  <fix>3d</fix>
</trkpt>
<trkpt lat="-27.2744391" lon="151.2900641">
  <ele>343.04</ele>
  <time>2026-09-01T19:54:17Z</time>
  <course>10.75</course>
  <speed>0.022360679774997897</speed>
  <fix>3d</fix>
</trkpt>
<trkpt lat="-27.274439" lon="151.290064">
  <ele>343.1</ele>
  <time>2026-09-01T19:54:17Z</time>
  <course>9.32</course>
  <speed>0.0</speed>
  <fix>3d</fix>
</trkpt>
<trkpt lat="-27.2744391" lon="151.2900641">
  <ele>343.04</ele>
  <time>2026-09-01T19:54:17Z</time>
  <course>10.75</course>
  <speed>0.0316227766016838</speed>
  <fix>3d</fix>
</trkpt>
<trkpt lat="-27.274439" lon="151.290064">
  <ele>343.1</ele>
  <time>2026-09-01T19:54:17Z</time>
  <course>11.44</course>
  <speed>0.0</speed>
  <fix>3d</fix>
</trkpt>
<trkpt lat="-27.2744391" lon="151.2900641">
  <ele>343.04</ele>
  <time>2026-09-01T19:54:17Z</time>
  <course>10.75</course>
  <speed>0.022360679774997897</speed>
  <fix>3d</fix>
</trkpt>
<trkpt lat="-27.274439" lon="151.290064">
  <ele>343.1</ele>
  <time>2026-09-01T19:54:17Z</time>
  <course>11.44</course>
  <speed>0.0</speed>
  <fix>3d</fix>
</trkpt>
<trkpt lat="-27.2744391" lon="151.2900641">
  <ele>343.03</ele>
  <time>2026-09-01T19:54:17Z</time>
  <course>10.75</course>
  <speed>0.01414213562373095</speed>
  <fix>3d</fix>
</trkpt>
<trkpt lat="-27.274439" lon="151.290064">
  <ele>343.1</ele>
  <time>2026-09-01T19:54:17Z</time>
  <course>12.0</course>
  <speed>0.0</speed>
  <fix>3d</fix>
</trkpt>
<trkpt lat="-27.2744391" lon="151.2900641">
  <ele>343.03</ele>
  <time>2026-09-01T19:54:17Z</time>
  <course>10.75</course>
  <speed>0.01414213562373095</speed>
  <fix>3d</fix>
</trkpt>
<trkpt lat="-27.274439" lon="151.290064">
  <ele>343.1</ele>
  <time>2026-09-01T19:54:17Z</time>
  <course>12.0</course>
  <speed>0.0</speed>
  <fix>3d</fix>
</trkpt>
<trkpt lat="-27.2744391" lon="151.2900641">
  <ele>343.03</ele>
  <time>2026-09-01T19:54:17Z</time>
  <course>10.75</course>
  <speed>0.01414213562373095</speed>
  <fix>3d</fix>
</trkpt>
<trkpt lat="-27.274439" lon="151.290064">
  <ele>343.1</ele>
  <time>2026-09-01T19:54:17Z</time>
  <course>8.8</course>
  <speed>0.0</speed>
  <fix>3d</fix>
</trkpt>
<trkpt lat="-27.2744391" lon="151.2900641">
  <ele>343.03</ele>
  <time>2026-09-01T19:54:17Z</time>
  <course>10.75</course>
  <speed>0.022360679774997897</speed>
  <fix>3d</fix>
</trkpt>
<trkpt lat="-27.274439" lon="151.290064">
  <ele>343.1</ele>
  <time>2026-09-01T19:54:17Z</time>
  <course>8.8</course>
  <speed>0.0</speed>
  <fix>3d</fix>
</trkpt>
<trkpt lat="-27.2744391" lon="151.2900641">
  <ele>343.03</ele>
  <time>2026-09-01T19:54:17Z</time>
  <course>10.75</course>
  <speed>0.022360679774997897</speed>
  <fix>3d</fix>
</trkpt>
<trkpt lat="-27.274439" lon="151.290064">
  <ele>343.1</ele>
  <time>2026-09-01T19:54:17Z</time>
  <course>6.84</course>
  <speed>0.0</speed>
  <fix>3d</fix>
</trkpt>
<trkpt lat="-27.2744391" lon="151.2900641">
  <ele>343.02</ele>
  <time>2026-09-01T19:54:17Z</time>
  <course>10.75</course>
  <speed>0.022360679774997897</speed>
  <fix>3d</fix>
</trkpt>
<trkpt lat="-27.274439" lon="151.290064">
  <ele>343.1</ele>
  <time>2026-09-01T19:54:17Z</time>
  <course>6.84</course>
  <speed>0.0</speed>
  <fix>3d</fix>
</trkpt>
<trkpt lat="-27.2744391" lon="151.2900641">
  <ele>343.02</ele>
  <time>2026-09-01T19:54:17Z</time>
  <course>10.75</course>
  <speed>0.022360679774997897</speed>
  <fix>3d</fix>
</trkpt>
<trkpt lat="-27.274439" lon="151.290064">
  <ele>343.1</ele>
  <time>2026-09-01T19:54:17Z</time>
  <course>197.13</course>
  <speed>0.0</speed>
  <fix>3d</fix>
</trkpt>
<trkpt lat="-27.2744391" lon="151.2900641">
  <ele>343.02</ele>
  <time>2026-09-01T19:54:17Z</time>
  <course>10.75</course>
  <speed>0.022360679774997897</speed>
  <fix>3d</fix>
</trkpt>
<trkpt lat="-27.274439" lon="151.290064">
  <ele>343.1</ele>
  <time>2026-09-01T19:54:17Z</time>
  <course>197.13</course>
  <speed>0.0</speed>
  <fix>3d</fix>
</trkpt>
<trkpt lat="-27.2744391" lon="151.2900641">
  <ele>343.02</ele>
  <time>2026-09-01T19:54:17Z</time>
  <course>10.75</course>
  <speed>0.01414213562373095</speed>
  <fix>3d</fix>
</trkpt>
<trkpt lat="-27.274439" lon="151.290064">
  <ele>343.1</ele>
  <time>2026-09-01T19:54:17Z</time>
  <course>56.82</course>
  <speed>0.0</speed>
  <fix>3d</fix>
</trkpt>
<trkpt lat="-27.2744391" lon="151.2900641">
  <ele>343.02</ele>
  <time>2026-09-01T19:54:17Z</time>
  <course>10.75</course>
  <speed>0.022360679774997897</speed>
  <fix>3d</fix>
</trkpt>
<trkpt lat="-27.274439" lon="151.290064">
  <ele>343.1</ele>
  <time>2026-09-01T19:54:17Z</time>
  <course>56.82</course>
  <speed>0.0</speed>
  <fix>3d</fix>
</trkpt>
<trkpt lat="-27.2744391" lon="151.2900641">
  <ele>343.02</ele>
  <time>2026-09-01T19:54:17Z</time>
  <course>10.75</course>
  <speed>0.022360679774997897</speed>
  <fix>3d</fix>
</trkpt>
<trkpt lat="-27.274439" lon="151.290064">
  <ele>343.1</ele>
  <time>2026-09-01T19:54:17Z</time>
  <course>6.23</course>
  <speed>0.0</speed>
  <fix>3d</fix>
</trkpt>
<trkpt lat="-27.2744391" lon="151.2900641">
  <ele>343.02</ele>
  <time>2026-09-01T19:54:17Z</time>
  <course>10.75</course>
  <speed>0.022360679774997897</speed>
  <fix>3d</fix>
</trkpt>
<trkpt lat="-27.274439" lon="151.290064">
  <ele>343.1</ele>
  <time>2026-09-01T19:54:17Z</time>
  <course>6.23</course>
  <speed>0.0</speed>
  <fix>3d</fix>
</trkpt>
<trkpt lat="-27.2744391" lon="151.2900641">
  <ele>343.02</ele>
  <time>2026-09-01T19:54:17Z</time>
  <course>10.75</course>
  <speed>0.022360679774997897</speed>
  <fix>3d</fix>
</trkpt>
<trkpt lat="-27.274439" lon="151.290064">
  <ele>343.1</ele>
  <time>2026-09-01T19:54:17Z</time>
  <course>349.51</course>
  <speed>0.0</speed>
  <fix>3d</fix>
</trkpt>
<trkpt lat="-27.2744391" lon="151.2900641">
  <ele>343.02</ele>
  <time>2026-09-01T19:54:17Z</time>
  <course>10.75</course>
  <speed>0.022360679774997897</speed>
  <fix>3d</fix>
</trkpt>
<trkpt lat="-27.274439" lon="151.290064">
  <ele>343.1</ele>
  <time>2026-09-01T19:54:17Z</time>
  <course>349.51</course>
  <speed>0.0</speed>
  <fix>3d</fix>
</trkpt>
<trkpt lat="-27.2744391" lon="151.2900641">
  <ele>343.01</ele>
  <time>2026-09-01T19:54:17Z</time>
  <course>10.75</course>
  <speed>0.022360679774997897</speed>
  <fix>3d</fix>
</trkpt>
<trkpt lat="-27.274439" lon="151.290064">
  <ele>343.1</ele>
  <time>2026-09-01T19:54:17Z</time>
  <course>5.28</course>
  <speed>0.0</speed>
  <fix>3d</fix>
</trkpt>
<trkpt lat="-27.2744391" lon="151.2900641">
  <ele>343.01</ele>
  <time>2026-09-01T19:54:17Z</time>
  <course>10.75</course>
  <speed>0.022360679774997897</speed>
  <fix>3d</fix>
</trkpt>
<trkpt lat="-27.274439" lon="151.290064">
  <ele>343.1</ele>
  <time>2026-09-01T19:54:17Z</time>
  <course>5.28</course>
  <speed>0.0</speed>
  <fix>3d</fix>
</trkpt>
<trkpt lat="-27.2744391" lon="151.2900641">
  <ele>343.01</ele>
  <time>2026-09-01T19:54:17Z</time>
  <course>10.76</course>
  <speed>0.022360679774997897</speed>
  <fix>3d</fix>
</trkpt>
<trkpt lat="-27.274439" lon="151.290064">
  <ele>343.1</ele>
  <time>2026-09-01T19:54:17Z</time>
  <course>14.62</course>
  <speed>0.0</speed>
  <fix>3d</fix>
</trkpt>
<trkpt lat="-27.2744391" lon="151.2900641">
  <ele>343.01</ele>
  <time>2026-09-01T19:54:17Z</time>
  <course>10.76</course>
  <speed>0.022360679774997897</speed>
  <fix>3d</fix>
</trkpt>
<trkpt lat="-27.274439" lon="151.290064">
  <ele>343.1</ele>
  <time>2026-09-01T19:54:17Z</time>
  <course>14.62</course>
  <speed>0.0</speed>
  <fix>3d</fix>
</trkpt>
<trkpt lat="-27.2744391" lon="151.2900641">
  <ele>343.01</ele>
  <time>2026-09-01T19:54:17Z</time>
  <course>10.76</course>
  <speed>0.022360679774997897</speed>
  <fix>3d</fix>
</trkpt>
<trkpt lat="-27.274439" lon="151.290064">
  <ele>343.1</ele>
  <time>2026-09-01T19:54:17Z</time>
  <course>12.18</course>
  <speed>0.0</speed>
  <fix>3d</fix>
</trkpt>
<trkpt lat="-27.2744391" lon="151.2900641">
  <ele>343.01</ele>
  <time>2026-09-01T19:54:17Z</time>
  <course>10.76</course>
  <speed>0.022360679774997897</speed>
  <fix>3d</fix>
</trkpt>
<trkpt lat="-27.274439" lon="151.290064">
  <ele>343.1</ele>
  <time>2026-09-01T19:54:17Z</time>
  <course>12.18</course>
  <speed>0.0</speed>
  <fix>3d</fix>
</trkpt>
<trkpt lat="-27.2744391" lon="151.2900641">
  <ele>343.01</ele>
  <time>2026-09-01T19:54:17Z</time>
  <course>10.76</course>
  <speed>0.022360679774997897</speed>
  <fix>3d</fix>
</trkpt>
<trkpt lat="-27.274439" lon="151.290064">
  <ele>343.1</ele>
  <time>2026-09-01T19:54:17Z</time>
  <course>10.74</course>
  <speed>0.0</speed>
  <fix>3d</fix>
</trkpt>
<trkpt lat="-27.2744391" lon="151.2900641">
  <ele>343.01</ele>
  <time>2026-09-01T19:54:17Z</time>
  <course>10.76</course>
  <speed>0.022360679774997897</speed>
  <fix>3d</fix>
</trkpt>
<trkpt lat="-27.274439" lon="151.290064">
  <ele>343.1</ele>
  <time>2026-09-01T19:54:17Z</time>
  <course>10.74</course>
  <speed>0.0</speed>
  <fix>3d</fix>
</trkpt>
<trkpt lat="-27.2744391" lon="151.2900641">
  <ele>343.0</ele>
  <time>2026-09-01T19:54:17Z</time>
  <course>10.76</course>
  <speed>0.022360679774997897</speed>
  <fix>3d</fix>
</trkpt>
<trkpt lat="-27.274439" lon="151.290064">
  <ele>343.1</ele>
  <time>2026-09-01T19:54:17Z</time>
  <course>26.03</course>
  <speed>0.0</speed>
  <fix>3d</fix>
</trkpt>
<trkpt lat="-27.2744391" lon="151.2900641">
  <ele>343.0</ele>
  <time>2026-09-01T19:54:17Z</time>
  <course>10.76</course>
  <speed>0.022360679774997897</speed>
  <fix>3d</fix>
</trkpt>
<trkpt lat="-27.274439" lon="151.290064">
  <ele>343.1</ele>
  <time>2026-09-01T19:54:17Z</time>
  <course>26.03</course>
  <speed>0.0</speed>
  <fix>3d</fix>
</trkpt>
<trkpt lat="-27.2744391" lon="151.2900641">
  <ele>343.09</ele>
  <time>2026-09-01T19:54:17Z</time>
  <course>10.76</course>
  <speed>0.022360679774997897</speed>
  <fix>3d</fix>
</trkpt>
<trkpt lat="-27.274439" lon="151.290064">
  <ele>343.1</ele>
  <time>2026-09-01T19:54:17Z</time>
  <course>31.34</course>
  <speed>0.0</speed>
  <fix>3d</fix>
</trkpt>
<trkpt lat="-27.2744391" lon="151.2900641">
  <ele>343.09</ele>
  <time>2026-09-01T19:54:17Z</time>
  <course>10.76</course>
  <speed>0.022360679774997897</speed>
  <fix>3d</fix>
</trkpt>
<trkpt lat="-27.274439" lon="151.290064">
  <ele>343.1</ele>
  <time>2026-09-01T19:54:17Z</time>
  <course>31.34</course>
  <speed>0.0</speed>
  <fix>3d</fix>
</trkpt>
<trkpt lat="-27.2744391" lon="151.2900641">
  <ele>343.09</ele>
  <time>2026-09-01T19:54:17Z</time>
  <course>10.76</course>
  <speed>0.022360679774997897</speed>
  <fix>3d</fix>
</trkpt>
<trkpt lat="-27.274439" lon="151.290064">
  <ele>343.1</ele>
  <time>2026-09-01T19:54:17Z</time>
  <course>16.15</course>
  <speed>0.0</speed>
  <fix>3d</fix>
</trkpt>
<trkpt lat="-27.2744391" lon="151.2900641">
  <ele>343.09</ele>
  <time>2026-09-01T19:54:17Z</time>
  <course>10.76</course>
  <speed>0.022360679774997897</speed>
  <fix>3d</fix>
</trkpt>
<trkpt lat="-27.274439" lon="151.290064">
  <ele>343.1</ele>
  <time>2026-09-01T19:54:17Z</time>
  <course>16.15</course>
  <speed>0.0</speed>
  <fix>3d</fix>
</trkpt>
<trkpt lat="-27.2744391" lon="151.2900641">
  <ele>343.09</ele>
  <time>2026-09-01T19:54:17Z</time>
  <course>10.76</course>
  <speed>0.022360679774997897</speed>
  <fix>3d</fix>
</trkpt>
<trkpt lat="-27.274439" lon="151.290064">
  <ele>343.1</ele>
  <time>2026-09-01T19:54:17Z</time>
  <course>8.77</course>
  <speed>0.0</speed>
  <fix>3d</fix>
</trkpt>
<trkpt lat="-27.2744391" lon="151.2900641">
  <ele>343.1</ele>
  <time>2026-09-01T19:54:17Z</time>
  <course>10.76</course>
  <speed>0.022360679774997897</speed>
  <fix>3d</fix>
</trkpt>
<trkpt lat="-27.274439" lon="151.290064">
  <ele>343.1</ele>
  <time>2026-09-01T19:54:17Z</time>
  <course>8.77</course>
  <speed>0.0</speed>
  <fix>3d</fix>
</trkpt>
<trkpt lat="-27.2744391" lon="151.2900641">
  <ele>343.1</ele>
  <time>2026-09-01T19:54:17Z</time>
  <course>10.76</course>
  <speed>0.022360679774997897</speed>
  <fix>3d</fix>
</trkpt>
<trkpt lat="-27.274439" lon="151.290064">
  <ele>343.1</ele>
  <time>2026-09-01T19:54:17Z</time>
  <course>10.26</course>
  <speed>0.0</speed>
  <fix>3d</fix>
</trkpt>
<trkpt lat="-27.2744391" lon="151.2900641">
  <ele>343.1</ele>
  <time>2026-09-01T19:54:17Z</time>
  <course>10.76</course>
  <speed>0.022360679774997897</speed>
  <fix>3d</fix>
</trkpt>
<trkpt lat="-27.274439" lon="151.290064">
  <ele>343.1</ele>
  <time>2026-09-01T19:54:17Z</time>
  <course>10.26</course>
  <speed>0.0</speed>
  <fix>3d</fix>
</trkpt>
<trkpt lat="-27.2744391" lon="151.2900641">
  <ele>343.11</ele>
  <time>2026-09-01T19:54:17Z</time>
  <course>10.76</course>
  <speed>0.022360679774997897</speed>
  <fix>3d</fix>
</trkpt>
<trkpt lat="-27.274439" lon="151.290064">
  <ele>343.1</ele>
  <time>2026-09-01T19:54:17Z</time>
  <course>354.09</course>
  <speed>0.0</speed>
  <fix>3d</fix>
</trkpt>
<trkpt lat="-27.2744391" lon="151.2900641">
  <ele>343.11</ele>
  <time>2026-09-01T19:54:17Z</time>
  <course>10.76</course>
  <speed>0.022360679774997897</speed>
  <fix>3d</fix>
</trkpt>
<trkpt lat="-27.274439" lon="151.290064">
  <ele>343.1</ele>
  <time>2026-09-01T19:54:17Z</time>
  <course>354.09</course>
  <speed>0.0</speed>
  <fix>3d</fix>
</trkpt>
<trkpt lat="-27.2744391" lon="151.2900641">
  <ele>343.12</ele>
  <time>2026-09-01T19:54:17Z</time>
  <course>10.76</course>
  <speed>0.022360679774997897</speed>
  <fix>3d</fix>
</trkpt>
<trkpt lat="-27.274439" lon="151.290064">
  <ele>343.1</ele>
  <time>2026-09-01T19:54:17Z</time>
  <course>351.72</course>
  <speed>0.0</speed>
  <fix>3d</fix>
</trkpt>
<trkpt lat="-27.2744391" lon="151.2900641">
  <ele>343.12</ele>
  <time>2026-09-01T19:54:17Z</time>
  <course>10.76</course>
  <speed>0.022360679774997897</speed>
  <fix>3d</fix>
</trkpt>
<trkpt lat="-27.274439" lon="151.290064">
  <ele>343.1</ele>
  <time>2026-09-01T19:54:17Z</time>
  <course>351.72</course>
  <speed>0.0</speed>
  <fix>3d</fix>
</trkpt>
<trkpt lat="-27.2744391" lon="151.2900641">
  <ele>343.12</ele>
  <time>2026-09-01T19:54:17Z</time>
  <course>10.76</course>
  <speed>0.022360679774997897</speed>
  <fix>3d</fix>
</trkpt>
<trkpt lat="-27.274439" lon="151.290064">
  <ele>343.1</ele>
  <time>2026-09-01T19:54:17Z</time>
  <course>13.88</course>
  <speed>0.0</speed>
  <fix>3d</fix>
</trkpt>
<trkpt lat="-27.2744391" lon="151.2900641">
  <ele>343.13</ele>
  <time>2026-09-01T19:54:17Z</time>
  <course>10.77</course>
  <speed>0.022360679774997897</speed>
  <fix>3d</fix>
</trkpt>
<trkpt lat="-27.274439" lon="151.290064">
  <ele>343.1</ele>
  <time>2026-09-01T19:54:17Z</time>
  <course>13.88</course>
  <speed>0.0</speed>
  <fix>3d</fix>
</trkpt>
<trkpt lat="-27.2744391" lon="151.2900641">
  <ele>343.13</ele>
  <time>2026-09-01T19:54:17Z</time>
  <course>10.77</course>
  <speed>0.022360679774997897</speed>
  <fix>3d</fix>
</trkpt>
<trkpt lat="-27.274439" lon="151.290064">
  <ele>343.1</ele>
  <time>2026-09-01T19:54:17Z</time>
  <course>18.97</course>
  <speed>0.0</speed>
  <fix>3d</fix>
</trkpt>
<trkpt lat="-27.2744391" lon="151.2900641">
  <ele>343.13</ele>
  <time>2026-09-01T19:54:17Z</time>
  <course>10.77</course>
  <speed>0.022360679774997897</speed>
  <fix>3d</fix>
</trkpt>
<trkpt lat="-27.274439" lon="151.290064">
  <ele>343.1</ele>
  <time>2026-09-01T19:54:17Z</time>
  <course>18.97</course>
  <speed>0.0</speed>
  <fix>3d</fix>
</trkpt>
<trkpt lat="-27.2744391" lon="151.2900641">
  <ele>343.14</ele>
  <time>2026-09-01T19:54:17Z</time>
  <course>10.77</course>
  <speed>0.022360679774997897</speed>
  <fix>3d</fix>
</trkpt>
<trkpt lat="-27.274439" lon="151.290064">
  <ele>343.1</ele>
  <time>2026-09-01T19:54:17Z</time>
  <course>355.28</course>
  <speed>0.0</speed>
  <fix>3d</fix>
</trkpt>
<trkpt lat="-27.2744391" lon="151.2900641">
  <ele>343.14</ele>
  <time>2026-09-01T19:54:17Z</time>
  <course>10.77</course>
  <speed>0.022360679774997897</speed>
  <fix>3d</fix>
</trkpt>
<trkpt lat="-27.274439" lon="151.290064">
  <ele>343.1</ele>
  <time>2026-09-01T19:54:17Z</time>
  <course>355.28</course>
  <speed>0.0</speed>
  <fix>3d</fix>
</trkpt>
<trkpt lat="-27.2744391" lon="151.2900641">
  <ele>343.14</ele>
  <time>2026-09-01T19:54:17Z</time>
  <course>10.77</course>
  <speed>0.022360679774997897</speed>
  <fix>3d</fix>
</trkpt>
<trkpt lat="-27.274439" lon="151.290064">
  <ele>343.1</ele>
  <time>2026-09-01T19:54:17Z</time>
  <course>357.4</course>
  <speed>0.0</speed>
  <fix>3d</fix>
</trkpt>
<trkpt lat="-27.2744391" lon="151.2900641">
  <ele>343.15</ele>
  <time>2026-09-01T19:54:17Z</time>
  <course>10.77</course>
  <speed>0.022360679774997897</speed>
  <fix>3d</fix>
</trkpt>
<trkpt lat="-27.274439" lon="151.290064">
  <ele>343.1</ele>
  <time>2026-09-01T19:54:17Z</time>
  <course>357.4</course>
  <speed>0.0</speed>
  <fix>3d</fix>
</trkpt>
<trkpt lat="-27.2744391" lon="151.2900641">
  <ele>343.15</ele>
  <time>2026-09-01T19:54:17Z</time>
  <course>10.77</course>
  <speed>0.022360679774997897</speed>
  <fix>3d</fix>
</trkpt>
<trkpt lat="-27.274439" lon="151.290064">
  <ele>343.1</ele>
  <time>2026-09-01T19:54:17Z</time>
  <course>14.26</course>
  <speed>0.0</speed>
  <fix>3d</fix>
</trkpt>
<trkpt lat="-27.2744391" lon="151.2900641">
  <ele>343.16</ele>
  <time>2026-09-01T19:54:17Z</time>
  <course>10.77</course>
  <speed>0.022360679774997897</speed>
  <fix>3d</fix>
</trkpt>
<trkpt lat="-27.274439" lon="151.290064">
  <ele>343.1</ele>
  <time>2026-09-01T19:54:17Z</time>
  <course>14.26</course>
  <speed>0.0</speed>
  <fix>3d</fix>
</trkpt>
<trkpt lat="-27.2744391" lon="151.2900641">
  <ele>343.16</ele>
  <time>2026-09-01T19:54:17Z</time>
  <course>10.77</course>
  <speed>0.022360679774997897</speed>
  <fix>3d</fix>
</trkpt>
<trkpt lat="-27.274439" lon="151.290064">
  <ele>343.1</ele>
  <time>2026-09-01T19:54:17Z</time>
  <course>0.2</course>
  <speed>0.0</speed>
  <fix>3d</fix>
</trkpt>
<trkpt lat="-27.2744391" lon="151.2900641">
  <ele>343.17</ele>
  <time>2026-09-01T19:54:17Z</time>
  <course>10.77</course>
  <speed>0.022360679774997897</speed>
  <fix>3d</fix>
</trkpt>
<trkpt lat="-27.274439" lon="151.290064">
  <ele>343.1</ele>
  <time>2026-09-01T19:54:17Z</time>
  <course>0.2</course>
  <speed>0.0</speed>
  <fix>3d</fix>
</trkpt>
<trkpt lat="-27.2744391" lon="151.2900641">
  <ele>343.17</ele>
  <time>2026-09-01T19:54:17Z</time>
  <course>10.77</course>
  <speed>0.0316227766016838</speed>
  <fix>3d</fix>
</trkpt>
<trkpt lat="-27.274439" lon="151.290064">
  <ele>343.1</ele>
  <time>2026-09-01T19:54:17Z</time>
  <course>11.5</course>
  <speed>0.0</speed>
  <fix>3d</fix>
</trkpt>
<trkpt lat="-27.2744391" lon="151.2900641">
  <ele>343.18</ele>
  <time>2026-09-01T19:54:17Z</time>
  <course>10.77</course>
  <speed>0.022360679774997897</speed>
  <fix>3d</fix>
</trkpt>
<trkpt lat="-27.274439" lon="151.290064">
  <ele>343.1</ele>
  <time>2026-09-01T19:54:17Z</time>
  <course>11.5</course>
  <speed>0.0</speed>
  <fix>3d</fix>
</trkpt>
<trkpt lat="-27.2744391" lon="151.2900641">
  <ele>343.18</ele>
  <time>2026-09-01T19:54:17Z</time>
  <course>10.77</course>
  <speed>0.01414213562373095</speed>
  <fix>3d</fix>
</trkpt>
<trkpt lat="-27.274439" lon="151.290064">
  <ele>343.1</ele>
  <time>2026-09-01T19:54:17Z</time>
  <course>11.3</course>
  <speed>0.0</speed>
  <fix>3d</fix>
</trkpt>
<trkpt lat="-27.2744391" lon="151.2900641">
  <ele>343.18</ele>
  <time>2026-09-01T19:54:17Z</time>
  <course>10.77</course>
  <speed>0.01414213562373095</speed>
  <fix>3d</fix>
</trkpt>
<trkpt lat="-27.274439" lon="151.290064">
  <ele>343.1</ele>
  <time>2026-09-01T19:54:17Z</time>
  <course>11.3</course>
  <speed>0.0</speed>
  <fix>3d</fix>
</trkpt>
<trkpt lat="-27.2744391" lon="151.2900641">
  <ele>343.19</ele>
  <time>2026-09-01T19:54:17Z</time>
  <course>10.77</course>
  <speed>0.022360679774997897</speed>
  <fix>3d</fix>
</trkpt>
<trkpt lat="-27.274439" lon="151.290064">
  <ele>343.1</ele>
  <time>2026-09-01T19:54:17Z</time>
  <course>7.4</course>
  <speed>0.0</speed>
  <fix>3d</fix>
</trkpt>
<trkpt lat="-27.2744391" lon="151.2900641">
  <ele>343.19</ele>
  <time>2026-09-01T19:54:17Z</time>
  <course>10.77</course>
  <speed>0.022360679774997897</speed>
  <fix>3d</fix>
</trkpt>
<trkpt lat="-27.274439" lon="151.290064">
  <ele>343.1</ele>
  <time>2026-09-01T19:54:17Z</time>
  <course>7.4</course>
  <speed>0.0</speed>
  <fix>3d</fix>
</trkpt>
<trkpt lat="-27.2744391" lon="151.2900641">
  <ele>343.19</ele>
  <time>2026-09-01T19:54:17Z</time>
  <course>10.77</course>
  <speed>0.022360679774997897</speed>
  <fix>3d</fix>
</trkpt>
<trkpt lat="-27.2744389" lon="151.290064">
  <ele>343.1</ele>
  <time>2026-09-01T19:54:17Z</time>
  <course>8.31</course>
  <speed>0.0</speed>
  <fix>3d</fix>
</trkpt>
<trkpt lat="-27.2744391" lon="151.2900641">
  <ele>343.19</ele>
  <time>2026-09-01T19:54:17Z</time>
  <course>10.77</course>
  <speed>0.022360679774997897</speed>
  <fix>3d</fix>
</trkpt>
<trkpt lat="-27.2744389" lon="151.290064">
  <ele>343.1</ele>
  <time>2026-09-01T19:54:17Z</time>
  <course>8.31</course>
  <speed>0.0</speed>
  <fix>3d</fix>
</trkpt>
<trkpt lat="-27.2744391" lon="151.2900641">
  <ele>343.19</ele>
  <time>2026-09-01T19:54:17Z</time>
  <course>10.77</course>
  <speed>0.022360679774997897</speed>
  <fix>3d</fix>
</trkpt>
<trkpt lat="-27.2744389" lon="151.290064">
  <ele>343.1</ele>
  <time>2026-09-01T19:54:17Z</time>
  <course>178.7</course>
  <speed>0.0</speed>
  <fix>3d</fix>
</trkpt>
<trkpt lat="-27.2744391" lon="151.2900641">
  <ele>343.19</ele>
  <time>2026-09-01T19:54:17Z</time>
  <course>10.78</course>
  <speed>0.022360679774997897</speed>
  <fix>3d</fix>
</trkpt>
<trkpt lat="-27.2744389" lon="151.290064">
  <ele>343.1</ele>
  <time>2026-09-01T19:54:17Z</time>
  <course>178.7</course>
  <speed>0.0</speed>
  <fix>3d</fix>
</trkpt>
<trkpt lat="-27.2744391" lon="151.2900641">
  <ele>343.2</ele>
  <time>2026-09-01T19:54:17Z</time>
  <course>10.78</course>
  <speed>0.022360679774997897</speed>
  <fix>3d</fix>
</trkpt>
<trkpt lat="-27.2744389" lon="151.290064">
  <ele>343.1</ele>
  <time>2026-09-01T19:54:17Z</time>
  <course>5.24</course>
  <speed>0.0</speed>
  <fix>3d</fix>
</trkpt>
<trkpt lat="-27.2744391" lon="151.2900641">
  <ele>343.2</ele>
  <time>2026-09-01T19:54:17Z</time>
  <course>10.78</course>
  <speed>0.022360679774997897</speed>
  <fix>3d</fix>
</trkpt>
<trkpt lat="-27.2744389" lon="151.290064">
  <ele>343.1</ele>
  <time>2026-09-01T19:54:17Z</time>
  <course>5.24</course>
  <speed>0.0</speed>
  <fix>3d</fix>
</trkpt>
<trkpt lat="-27.2744391" lon="151.2900641">
  <ele>343.2</ele>
  <time>2026-09-01T19:54:17Z</time>
  <course>10.78</course>
  <speed>0.022360679774997897</speed>
  <fix>3d</fix>
</trkpt>
<trkpt lat="-27.2744389" lon="151.290064">
  <ele>343.1</ele>
  <time>2026-09-01T19:54:17Z</time>
  <course>3.09</course>
  <speed>0.0</speed>
  <fix>3d</fix>
</trkpt>
<trkpt lat="-27.2744391" lon="151.2900641">
  <ele>343.2</ele>
  <time>2026-09-01T19:54:17Z</time>
  <course>10.78</course>
  <speed>0.022360679774997897</speed>
  <fix>3d</fix>
</trkpt>
<trkpt lat="-27.2744389" lon="151.290064">
  <ele>343.1</ele>
  <time>2026-09-01T19:54:17Z</time>
  <course>3.09</course>
  <speed>0.0</speed>
  <fix>3d</fix>
</trkpt>
<trkpt lat="-27.2744391" lon="151.2900641">
  <ele>343.2</ele>
  <time>2026-09-01T19:54:17Z</time>
  <course>10.78</course>
  <speed>0.022360679774997897</speed>
  <fix>3d</fix>
</trkpt>
<trkpt lat="-27.2744389" lon="151.290064">
  <ele>343.1</ele>
  <time>2026-09-01T19:54:17Z</time>
  <course>35.39</course>
  <speed>0.0</speed>
  <fix>3d</fix>
</trkpt>
<trkpt lat="-27.2744391" lon="151.2900641">
  <ele>343.2</ele>
  <time>2026-09-01T19:54:17Z</time>
  <course>10.78</course>
  <speed>0.022360679774997897</speed>
  <fix>3d</fix>
</trkpt>
<trkpt lat="-27.2744389" lon="151.290064">
  <ele>343.1</ele>
  <time>2026-09-01T19:54:17Z</time>
  <course>35.39</course>
  <speed>0.0</speed>
  <fix>3d</fix>
</trkpt>
<trkpt lat="-27.2744391" lon="151.2900641">
  <ele>343.2</ele>
  <time>2026-09-01T19:54:17Z</time>
  <course>10.78</course>
  <speed>0.01414213562373095</speed>
  <fix>3d</fix>
</trkpt>
<trkpt lat="-27.2744389" lon="151.290064">
  <ele>343.1</ele>
  <time>2026-09-01T19:54:17Z</time>
  <course>20.25</course>
  <speed>0.0</speed>
  <fix>3d</fix>
</trkpt>
<trkpt lat="-27.2744391" lon="151.2900641">
  <ele>343.2</ele>
  <time>2026-09-01T19:54:17Z</time>
  <course>10.78</course>
  <speed>0.01414213562373095</speed>
  <fix>3d</fix>
</trkpt>
<trkpt lat="-27.2744389" lon="151.290064">
  <ele>343.1</ele>
  <time>2026-09-01T19:54:17Z</time>
  <course>20.25</course>
  <speed>0.0</speed>
  <fix>3d</fix>
</trkpt>
<trkpt lat="-27.2744391" lon="151.2900641">
  <ele>343.2</ele>
  <time>2026-09-01T19:54:17Z</time>
  <course>10.78</course>
  <speed>0.01414213562373095</speed>
  <fix>3d</fix>
</trkpt>
<trkpt lat="-27.2744389" lon="151.290064">
  <ele>343.1</ele>
  <time>2026-09-01T19:54:17Z</time>
  <course>8.06</course>
  <speed>0.0</speed>
  <fix>3d</fix>
</trkpt>
<trkpt lat="-27.2744391" lon="151.2900641">
  <ele>343.2</ele>
  <time>2026-09-01T19:54:17Z</time>
  <course>10.78</course>
  <speed>0.01414213562373095</speed>
  <fix>3d</fix>
</trkpt>
<trkpt lat="-27.2744389" lon="151.290064">
  <ele>343.1</ele>
  <time>2026-09-01T19:54:17Z</time>
  <course>8.06</course>
  <speed>0.0</speed>
  <fix>3d</fix>
</trkpt>
<trkpt lat="-27.2744391" lon="151.2900641">
  <ele>343.2</ele>
  <time>2026-09-01T19:54:17Z</time>
  <course>10.78</course>
  <speed>0.01414213562373095</speed>
  <fix>3d</fix>
</trkpt>
<trkpt lat="-27.2744389" lon="151.290064">
  <ele>343.1</ele>
  <time>2026-09-01T19:54:17Z</time>
  <course>7.7</course>
  <speed>0.0</speed>
  <fix>3d</fix>
</trkpt>
<trkpt lat="-27.2744391" lon="151.2900641">
  <ele>343.2</ele>
  <time>2026-09-01T19:54:17Z</time>
  <course>10.78</course>
  <speed>0.01414213562373095</speed>
  <fix>3d</fix>
</trkpt>
<trkpt lat="-27.2744389" lon="151.290064">
  <ele>343.1</ele>
  <time>2026-09-01T19:54:17Z</time>
  <course>7.7</course>
  <speed>0.0</speed>
  <fix>3d</fix>
</trkpt>
<trkpt lat="-27.2744391" lon="151.2900641">
  <ele>343.2</ele>
  <time>2026-09-01T19:54:17Z</time>
  <course>10.78</course>
  <speed>0.01414213562373095</speed>
  <fix>3d</fix>
</trkpt>
<trkpt lat="-27.2744389" lon="151.290064">
  <ele>343.1</ele>
  <time>2026-09-01T19:54:17Z</time>
  <course>11.39</course>
  <speed>0.0</speed>
  <fix>3d</fix>
</trkpt>
<trkpt lat="-27.2744391" lon="151.2900641">
  <ele>343.2</ele>
  <time>2026-09-01T19:54:17Z</time>
  <course>10.78</course>
  <speed>0.01414213562373095</speed>
  <fix>3d</fix>
</trkpt>
<trkpt lat="-27.2744389" lon="151.290064">
  <ele>343.1</ele>
  <time>2026-09-01T19:54:17Z</time>
  <course>11.39</course>
  <speed>0.0</speed>
  <fix>3d</fix>
</trkpt>
<trkpt lat="-27.2744391" lon="151.2900641">
  <ele>343.2</ele>
  <time>2026-09-01T19:54:17Z</time>
  <course>10.78</course>
  <speed>0.01414213562373095</speed>
  <fix>3d</fix>
</trkpt>
<trkpt lat="-27.2744389" lon="151.290064">
  <ele>343.1</ele>
  <time>2026-09-01T19:54:17Z</time>
  <course>356.04</course>
  <speed>0.0</speed>
  <fix>3d</fix>
</trkpt>
<trkpt lat="-27.2744391" lon="151.2900641">
  <ele>343.2</ele>
  <time>2026-09-01T19:54:17Z</time>
  <course>10.78</course>
  <speed>0.01414213562373095</speed>
  <fix>3d</fix>
</trkpt>
<trkpt lat="-27.2744389" lon="151.290064">
  <ele>343.1</ele>
  <time>2026-09-01T19:54:17Z</time>
  <course>356.04</course>
  <speed>0.0</speed>
  <fix>3d</fix>
</trkpt>
<trkpt lat="-27.2744391" lon="151.2900641">
  <ele>343.2</ele>
  <time>2026-09-01T19:54:18Z</time>
  <course>10.78</course>
  <speed>0.01414213562373095</speed>
  <fix>3d</fix>
</trkpt>
<trkpt lat="-27.2744389" lon="151.290064">
  <ele>343.1</ele>
  <time>2026-09-01T19:54:18Z</time>
  <course>359.23</course>
  <speed>0.0</speed>
  <fix>3d</fix>
</trkpt>
<trkpt lat="-27.2744391" lon="151.2900641">
  <ele>343.2</ele>
  <time>2026-09-01T19:54:18Z</time>
  <course>10.79</course>
  <speed>0.01414213562373095</speed>
  <fix>3d</fix>
</trkpt>
<trkpt lat="-27.2744389" lon="151.290064">
  <ele>343.1</ele>
  <time>2026-09-01T19:54:18Z</time>
  <course>359.23</course>
  <speed>0.0</speed>
  <fix>3d</fix>
</trkpt>
<trkpt lat="-27.2744391" lon="151.2900641">
  <ele>343.2</ele>
  <time>2026-09-01T19:54:18Z</time>
  <course>10.79</course>
  <speed>0.01414213562373095</speed>
  <fix>3d</fix>
</trkpt>
<trkpt lat="-27.2744389" lon="151.290064">
  <ele>343.1</ele>
  <time>2026-09-01T19:54:18Z</time>
  <course>36.9</course>
  <speed>0.0</speed>
  <fix>3d</fix>
</trkpt>
<trkpt lat="-27.2744391" lon="151.2900641">
  <ele>343.2</ele>
  <time>2026-09-01T19:54:18Z</time>
  <course>10.79</course>
  <speed>0.022360679774997897</speed>
  <fix>3d</fix>
</trkpt>
<trkpt lat="-27.2744389" lon="151.290064">
  <ele>343.1</ele>
  <time>2026-09-01T19:54:18Z</time>
  <course>36.9</course>
  <speed>0.0</speed>
  <fix>3d</fix>
</trkpt>
<trkpt lat="-27.2744391" lon="151.2900641">
  <ele>343.2</ele>
  <time>2026-09-01T19:54:18Z</time>
  <course>10.79</course>
  <speed>0.01414213562373095</speed>
  <fix>3d</fix>
</trkpt>
<trkpt lat="-27.2744389" lon="151.290064">
  <ele>343.1</ele>
  <time>2026-09-01T19:54:18Z</time>
  <course>11.15</course>
  <speed>0.0</speed>
  <fix>3d</fix>
</trkpt>
<trkpt lat="-27.2744391" lon="151.2900641">
  <ele>343.2</ele>
  <time>2026-09-01T19:54:18Z</time>
  <course>10.79</course>
  <speed>0.022360679774997897</speed>
  <fix>3d</fix>
</trkpt>
<trkpt lat="-27.2744389" lon="151.290064">
  <ele>343.1</ele>
  <time>2026-09-01T19:54:18Z</time>
  <course>11.15</course>
  <speed>0.0</speed>
  <fix>3d</fix>
</trkpt>
<trkpt lat="-27.2744391" lon="151.2900641">
  <ele>343.2</ele>
  <time>2026-09-01T19:54:18Z</time>
  <course>10.79</course>
  <speed>0.022360679774997897</speed>
  <fix>3d</fix>
</trkpt>
<trkpt lat="-27.2744389" lon="151.290064">
  <ele>343.1</ele>
  <time>2026-09-01T19:54:18Z</time>
  <course>333.1</course>
  <speed>0.0</speed>
  <fix>3d</fix>
</trkpt>
<trkpt lat="-27.2744391" lon="151.2900641">
  <ele>343.19</ele>
  <time>2026-09-01T19:54:18Z</time>
  <course>10.79</course>
  <speed>0.022360679774997897</speed>
  <fix>3d</fix>
</trkpt>
<trkpt lat="-27.2744389" lon="151.290064">
  <ele>343.1</ele>
  <time>2026-09-01T19:54:18Z</time>
  <course>333.1</course>
  <speed>0.0</speed>
  <fix>3d</fix>
</trkpt>
<trkpt lat="-27.2744391" lon="151.2900641">
  <ele>343.19</ele>
  <time>2026-09-01T19:54:18Z</time>
  <course>10.79</course>
  <speed>0.022360679774997897</speed>
  <fix>3d</fix>
</trkpt>
<trkpt lat="-27.2744389" lon="151.290064">
  <ele>343.1</ele>
  <time>2026-09-01T19:54:18Z</time>
  <course>354.42</course>
  <speed>0.0</speed>
  <fix>3d</fix>
</trkpt>
<trkpt lat="-27.2744391" lon="151.2900641">
  <ele>343.19</ele>
  <time>2026-09-01T19:54:18Z</time>
  <course>10.79</course>
  <speed>0.022360679774997897</speed>
  <fix>3d</fix>
</trkpt>
<trkpt lat="-27.2744389" lon="151.290064">
  <ele>343.1</ele>
  <time>2026-09-01T19:54:18Z</time>
  <course>354.42</course>
  <speed>0.0</speed>
  <fix>3d</fix>
</trkpt>
<trkpt lat="-27.2744391" lon="151.2900641">
  <ele>343.09</ele>
  <time>2026-09-01T19:54:18Z</time>
  <course>10.79</course>
  <speed>0.022360679774997897</speed>
  <fix>3d</fix>
</trkpt>
<trkpt lat="-27.2744389" lon="151.290064">
  <ele>343.1</ele>
  <time>2026-09-01T19:54:18Z</time>
  <course>30.77</course>
  <speed>0.0</speed>
  <fix>3d</fix>
</trkpt>
<trkpt lat="-27.2744391" lon="151.2900641">
  <ele>343.1</ele>
  <time>2026-09-01T19:54:18Z</time>
  <course>10.79</course>
  <speed>0.022360679774997897</speed>
  <fix>3d</fix>
</trkpt>
<trkpt lat="-27.2744389" lon="151.290064">
  <ele>343.1</ele>
  <time>2026-09-01T19:54:18Z</time>
  <course>30.77</course>
  <speed>0.0</speed>
  <fix>3d</fix>
</trkpt>
<trkpt lat="-27.2744391" lon="151.2900641">
  <ele>343.1</ele>
  <time>2026-09-01T19:54:18Z</time>
  <course>10.79</course>
  <speed>0.022360679774997897</speed>
  <fix>3d</fix>
</trkpt>
<trkpt lat="-27.2744389" lon="151.290064">
  <ele>343.1</ele>
  <time>2026-09-01T19:54:18Z</time>
  <course>10.94</course>
  <speed>0.0</speed>
  <fix>3d</fix>
</trkpt>
<trkpt lat="-27.2744391" lon="151.2900641">
  <ele>343.1</ele>
  <time>2026-09-01T19:54:18Z</time>
  <course>10.79</course>
  <speed>0.022360679774997897</speed>
  <fix>3d</fix>
</trkpt>
<trkpt lat="-27.2744389" lon="151.290064">
  <ele>343.1</ele>
  <time>2026-09-01T19:54:18Z</time>
  <course>10.94</course>
  <speed>0.0</speed>
  <fix>3d</fix>
</trkpt>
<trkpt lat="-27.2744391" lon="151.2900641">
  <ele>343.1</ele>
  <time>2026-09-01T19:54:18Z</time>
  <course>10.79</course>
  <speed>0.022360679774997897</speed>
  <fix>3d</fix>
</trkpt>
<trkpt lat="-27.2744389" lon="151.290064">
  <ele>343.1</ele>
  <time>2026-09-01T19:54:18Z</time>
  <course>10.39</course>
  <speed>0.0</speed>
  <fix>3d</fix>
</trkpt>
<trkpt lat="-27.2744391" lon="151.2900641">
  <ele>343.1</ele>
  <time>2026-09-01T19:54:18Z</time>
  <course>10.79</course>
  <speed>0.022360679774997897</speed>
  <fix>3d</fix>
</trkpt>
<trkpt lat="-27.2744389" lon="151.290064">
  <ele>343.1</ele>
  <time>2026-09-01T19:54:18Z</time>
  <course>10.39</course>
  <speed>0.0</speed>
  <fix>3d</fix>
</trkpt>
<trkpt lat="-27.2744391" lon="151.2900641">
  <ele>343.11</ele>
  <time>2026-09-01T19:54:18Z</time>
  <course>10.79</course>
  <speed>0.022360679774997897</speed>
  <fix>3d</fix>
</trkpt>
<trkpt lat="-27.2744389" lon="151.290064">
  <ele>343.1</ele>
  <time>2026-09-01T19:54:18Z</time>
  <course>11.69</course>
  <speed>0.0</speed>
  <fix>3d</fix>
</trkpt>
<trkpt lat="-27.2744391" lon="151.2900641">
  <ele>343.11</ele>
  <time>2026-09-01T19:54:18Z</time>
  <course>10.8</course>
  <speed>0.022360679774997897</speed>
  <fix>3d</fix>
</trkpt>
<trkpt lat="-27.2744389" lon="151.290064">
  <ele>343.1</ele>
  <time>2026-09-01T19:54:18Z</time>
  <course>11.69</course>
  <speed>0.0</speed>
  <fix>3d</fix>
</trkpt>
<trkpt lat="-27.2744391" lon="151.2900641">
  <ele>343.11</ele>
  <time>2026-09-01T19:54:18Z</time>
  <course>10.8</course>
  <speed>0.022360679774997897</speed>
  <fix>3d</fix>
</trkpt>
<trkpt lat="-27.2744389" lon="151.290064">
  <ele>343.1</ele>
  <time>2026-09-01T19:54:18Z</time>
  <course>22.21</course>
  <speed>0.0</speed>
  <fix>3d</fix>
</trkpt>
<trkpt lat="-27.2744391" lon="151.2900641">
  <ele>343.11</ele>
  <time>2026-09-01T19:54:18Z</time>
  <course>10.8</course>
  <speed>0.022360679774997897</speed>
  <fix>3d</fix>
</trkpt>
<trkpt lat="-27.2744389" lon="151.290064">
  <ele>343.1</ele>
  <time>2026-09-01T19:54:18Z</time>
  <course>22.21</course>
  <speed>0.0</speed>
  <fix>3d</fix>
</trkpt>
<trkpt lat="-27.2744391" lon="151.2900641">
  <ele>343.12</ele>
  <time>2026-09-01T19:54:18Z</time>
  <course>10.8</course>
  <speed>0.022360679774997897</speed>
  <fix>3d</fix>
</trkpt>
<trkpt lat="-27.2744389" lon="151.290064">
  <ele>343.1</ele>
  <time>2026-09-01T19:54:18Z</time>
  <course>7.46</course>
  <speed>0.0</speed>
  <fix>3d</fix>
</trkpt>
<trkpt lat="-27.2744391" lon="151.2900641">
  <ele>343.12</ele>
  <time>2026-09-01T19:54:18Z</time>
  <course>10.8</course>
  <speed>0.022360679774997897</speed>
  <fix>3d</fix>
</trkpt>
<trkpt lat="-27.2744389" lon="151.290064">
  <ele>343.1</ele>
  <time>2026-09-01T19:54:18Z</time>
  <course>7.46</course>
  <speed>0.0</speed>
  <fix>3d</fix>
</trkpt>
<trkpt lat="-27.2744391" lon="151.2900641">
  <ele>343.12</ele>
  <time>2026-09-01T19:54:18Z</time>
  <course>10.8</course>
  <speed>0.022360679774997897</speed>
  <fix>3d</fix>
</trkpt>
<trkpt lat="-27.2744389" lon="151.290064">
  <ele>343.1</ele>
  <time>2026-09-01T19:54:18Z</time>
  <course>7.13</course>
  <speed>0.0</speed>
  <fix>3d</fix>
</trkpt>
<trkpt lat="-27.2744391" lon="151.2900641">
  <ele>343.12</ele>
  <time>2026-09-01T19:54:18Z</time>
  <course>10.8</course>
  <speed>0.022360679774997897</speed>
  <fix>3d</fix>
</trkpt>
<trkpt lat="-27.2744389" lon="151.290064">
  <ele>343.1</ele>
  <time>2026-09-01T19:54:18Z</time>
  <course>7.13</course>
  <speed>0.0</speed>
  <fix>3d</fix>
</trkpt>
<trkpt lat="-27.2744391" lon="151.2900641">
  <ele>343.12</ele>
  <time>2026-09-01T19:54:18Z</time>
  <course>10.8</course>
  <speed>0.022360679774997897</speed>
  <fix>3d</fix>
</trkpt>
<trkpt lat="-27.2744389" lon="151.290064">
  <ele>343.1</ele>
  <time>2026-09-01T19:54:18Z</time>
  <course>11.92</course>
  <speed>0.0</speed>
  <fix>3d</fix>
</trkpt>
<trkpt lat="-27.2744391" lon="151.2900641">
  <ele>343.12</ele>
  <time>2026-09-01T19:54:18Z</time>
  <course>10.8</course>
  <speed>0.022360679774997897</speed>
  <fix>3d</fix>
</trkpt>
<trkpt lat="-27.2744389" lon="151.290064">
  <ele>343.1</ele>
  <time>2026-09-01T19:54:18Z</time>
  <course>11.92</course>
  <speed>0.0</speed>
  <fix>3d</fix>
</trkpt>
<trkpt lat="-27.2744391" lon="151.2900641">
  <ele>343.11</ele>
  <time>2026-09-01T19:54:18Z</time>
  <course>10.8</course>
  <speed>0.022360679774997897</speed>
  <fix>3d</fix>
</trkpt>
<trkpt lat="-27.2744389" lon="151.290064">
  <ele>343.1</ele>
  <time>2026-09-01T19:54:18Z</time>
  <course>3.13</course>
  <speed>0.0</speed>
  <fix>3d</fix>
</trkpt>
<trkpt lat="-27.2744391" lon="151.2900641">
  <ele>343.11</ele>
  <time>2026-09-01T19:54:18Z</time>
  <course>10.8</course>
  <speed>0.022360679774997897</speed>
  <fix>3d</fix>
</trkpt>
<trkpt lat="-27.2744389" lon="151.290064">
  <ele>343.1</ele>
  <time>2026-09-01T19:54:18Z</time>
  <course>3.13</course>
  <speed>0.0</speed>
  <fix>3d</fix>
</trkpt>
<trkpt lat="-27.2744391" lon="151.2900641">
  <ele>343.11</ele>
  <time>2026-09-01T19:54:18Z</time>
  <course>10.8</course>
  <speed>0.022360679774997897</speed>
  <fix>3d</fix>
</trkpt>
<trkpt lat="-27.2744389" lon="151.290064">
  <ele>343.1</ele>
  <time>2026-09-01T19:54:18Z</time>
  <course>42.45</course>
  <speed>0.0</speed>
  <fix>3d</fix>
</trkpt>
<trkpt lat="-27.2744391" lon="151.2900641">
  <ele>343.11</ele>
  <time>2026-09-01T19:54:18Z</time>
  <course>10.8</course>
  <speed>0.022360679774997897</speed>
  <fix>3d</fix>
</trkpt>
<trkpt lat="-27.2744389" lon="151.290064">
  <ele>343.1</ele>
  <time>2026-09-01T19:54:18Z</time>
  <course>42.45</course>
  <speed>0.0</speed>
  <fix>3d</fix>
</trkpt>
<trkpt lat="-27.2744391" lon="151.2900641">
  <ele>343.11</ele>
  <time>2026-09-01T19:54:18Z</time>
  <course>10.8</course>
  <speed>0.022360679774997897</speed>
  <fix>3d</fix>
</trkpt>
<trkpt lat="-27.2744389" lon="151.290064">
  <ele>343.1</ele>
  <time>2026-09-01T19:54:18Z</time>
  <course>25.99</course>
  <speed>0.0</speed>
  <fix>3d</fix>
</trkpt>
<trkpt lat="-27.2744391" lon="151.2900641">
  <ele>343.11</ele>
  <time>2026-09-01T19:54:18Z</time>
  <course>10.8</course>
  <speed>0.022360679774997897</speed>
  <fix>3d</fix>
</trkpt>
<trkpt lat="-27.2744389" lon="151.290064">
  <ele>343.1</ele>
  <time>2026-09-01T19:54:18Z</time>
  <course>25.99</course>
  <speed>0.0</speed>
  <fix>3d</fix>
</trkpt>
<trkpt lat="-27.2744391" lon="151.2900641">
  <ele>343.11</ele>
  <time>2026-09-01T19:54:18Z</time>
  <course>10.8</course>
  <speed>0.022360679774997897</speed>
  <fix>3d</fix>
</trkpt>
<trkpt lat="-27.2744389" lon="151.290064">
  <ele>343.1</ele>
  <time>2026-09-01T19:54:18Z</time>
  <course>5.38</course>
  <speed>0.0</speed>
  <fix>3d</fix>
</trkpt>
<trkpt lat="-27.2744391" lon="151.2900641">
  <ele>343.11</ele>
  <time>2026-09-01T19:54:18Z</time>
  <course>10.8</course>
  <speed>0.022360679774997897</speed>
  <fix>3d</fix>
</trkpt>
<trkpt lat="-27.2744389" lon="151.290064">
  <ele>343.1</ele>
  <time>2026-09-01T19:54:18Z</time>
  <course>5.38</course>
  <speed>0.0</speed>
  <fix>3d</fix>
</trkpt>
<trkpt lat="-27.2744391" lon="151.2900641">
  <ele>343.1</ele>
  <time>2026-09-01T19:54:18Z</time>
  <course>10.81</course>
  <speed>0.022360679774997897</speed>
  <fix>3d</fix>
</trkpt>
<trkpt lat="-27.2744389" lon="151.290064">
  <ele>343.1</ele>
  <time>2026-09-01T19:54:18Z</time>
  <course>9.04</course>
  <speed>0.0</speed>
  <fix>3d</fix>
</trkpt>
<trkpt lat="-27.2744391" lon="151.2900641">
  <ele>343.1</ele>
  <time>2026-09-01T19:54:18Z</time>
  <course>10.81</course>
  <speed>0.022360679774997897</speed>
  <fix>3d</fix>
</trkpt>
<trkpt lat="-27.2744389" lon="151.290064">
  <ele>343.1</ele>
  <time>2026-09-01T19:54:18Z</time>
  <course>9.04</course>
  <speed>0.0</speed>
  <fix>3d</fix>
</trkpt>
<trkpt lat="-27.2744391" lon="151.2900641">
  <ele>343.1</ele>
  <time>2026-09-01T19:54:18Z</time>
  <course>10.81</course>
  <speed>0.022360679774997897</speed>
  <fix>3d</fix>
</trkpt>
<trkpt lat="-27.2744389" lon="151.290064">
  <ele>343.1</ele>
  <time>2026-09-01T19:54:18Z</time>
  <course>344.71</course>
  <speed>0.0</speed>
  <fix>3d</fix>
</trkpt>
<trkpt lat="-27.2744391" lon="151.2900641">
  <ele>343.1</ele>
  <time>2026-09-01T19:54:18Z</time>
  <course>10.81</course>
  <speed>0.022360679774997897</speed>
  <fix>3d</fix>
</trkpt>
<trkpt lat="-27.2744389" lon="151.290064">
  <ele>343.1</ele>
  <time>2026-09-01T19:54:18Z</time>
  <course>344.71</course>
  <speed>0.0</speed>
  <fix>3d</fix>
</trkpt>
<trkpt lat="-27.2744391" lon="151.2900641">
  <ele>343.1</ele>
  <time>2026-09-01T19:54:18Z</time>
  <course>10.81</course>
  <speed>0.022360679774997897</speed>
  <fix>3d</fix>
</trkpt>
<trkpt lat="-27.2744389" lon="151.290064">
  <ele>343.1</ele>
  <time>2026-09-01T19:54:18Z</time>
  <course>352.75</course>
  <speed>0.0</speed>
  <fix>3d</fix>
</trkpt>
<trkpt lat="-27.2744391" lon="151.2900641">
  <ele>343.1</ele>
  <time>2026-09-01T19:54:18Z</time>
  <course>10.81</course>
  <speed>0.022360679774997897</speed>
  <fix>3d</fix>
</trkpt>
<trkpt lat="-27.2744389" lon="151.290064">
  <ele>343.1</ele>
  <time>2026-09-01T19:54:18Z</time>
  <course>352.75</course>
  <speed>0.0</speed>
  <fix>3d</fix>
</trkpt>
<trkpt lat="-27.2744391" lon="151.2900641">
  <ele>343.1</ele>
  <time>2026-09-01T19:54:18Z</time>
  <course>10.81</course>
  <speed>0.022360679774997897</speed>
  <fix>3d</fix>
</trkpt>
<trkpt lat="-27.2744389" lon="151.290064">
  <ele>343.1</ele>
  <time>2026-09-01T19:54:18Z</time>
  <course>12.67</course>
  <speed>0.0</speed>
  <fix>3d</fix>
</trkpt>
<trkpt lat="-27.2744391" lon="151.2900641">
  <ele>343.1</ele>
  <time>2026-09-01T19:54:18Z</time>
  <course>10.81</course>
  <speed>0.022360679774997897</speed>
  <fix>3d</fix>
</trkpt>
<trkpt lat="-27.2744389" lon="151.290064">
  <ele>343.1</ele>
  <time>2026-09-01T19:54:18Z</time>
  <course>12.67</course>
  <speed>0.0</speed>
  <fix>3d</fix>
</trkpt>
<trkpt lat="-27.2744391" lon="151.2900641">
  <ele>343.09</ele>
  <time>2026-09-01T19:54:18Z</time>
  <course>10.81</course>
  <speed>0.022360679774997897</speed>
  <fix>3d</fix>
</trkpt>
<trkpt lat="-27.2744389" lon="151.290064">
  <ele>343.1</ele>
  <time>2026-09-01T19:54:18Z</time>
  <course>21.52</course>
  <speed>0.0</speed>
  <fix>3d</fix>
</trkpt>
<trkpt lat="-27.2744391" lon="151.2900641">
  <ele>343.09</ele>
  <time>2026-09-01T19:54:18Z</time>
  <course>10.81</course>
  <speed>0.022360679774997897</speed>
  <fix>3d</fix>
</trkpt>
<trkpt lat="-27.2744389" lon="151.290064">
  <ele>343.1</ele>
  <time>2026-09-01T19:54:18Z</time>
  <course>21.52</course>
  <speed>0.0</speed>
  <fix>3d</fix>
</trkpt>
<trkpt lat="-27.2744391" lon="151.2900641">
  <ele>343.09</ele>
  <time>2026-09-01T19:54:18Z</time>
  <course>10.81</course>
  <speed>0.022360679774997897</speed>
  <fix>3d</fix>
</trkpt>
<trkpt lat="-27.2744389" lon="151.290064">
  <ele>343.1</ele>
  <time>2026-09-01T19:54:18Z</time>
  <course>10.43</course>
  <speed>0.0</speed>
  <fix>3d</fix>
</trkpt>
<trkpt lat="-27.2744391" lon="151.2900641">
  <ele>343.09</ele>
  <time>2026-09-01T19:54:18Z</time>
  <course>10.81</course>
  <speed>0.022360679774997897</speed>
  <fix>3d</fix>
</trkpt>
<trkpt lat="-27.2744389" lon="151.290064">
  <ele>343.1</ele>
  <time>2026-09-01T19:54:18Z</time>
  <course>10.43</course>
  <speed>0.0</speed>
  <fix>3d</fix>
</trkpt>
<trkpt lat="-27.2744391" lon="151.2900641">
  <ele>343.09</ele>
  <time>2026-09-01T19:54:18Z</time>
  <course>10.81</course>
  <speed>0.022360679774997897</speed>
  <fix>3d</fix>
</trkpt>
<trkpt lat="-27.2744389" lon="151.290064">
  <ele>343.1</ele>
  <time>2026-09-01T19:54:18Z</time>
  <course>22.41</course>
  <speed>0.0</speed>
  <fix>3d</fix>
</trkpt>
<trkpt lat="-27.2744391" lon="151.2900641">
  <ele>343.09</ele>
  <time>2026-09-01T19:54:18Z</time>
  <course>10.81</course>
  <speed>0.022360679774997897</speed>
  <fix>3d</fix>
</trkpt>
<trkpt lat="-27.2744389" lon="151.290064">
  <ele>343.1</ele>
  <time>2026-09-01T19:54:18Z</time>
  <course>22.41</course>
  <speed>0.0</speed>
  <fix>3d</fix>
</trkpt>
<trkpt lat="-27.2744391" lon="151.2900641">
  <ele>343.09</ele>
  <time>2026-09-01T19:54:18Z</time>
  <course>10.81</course>
  <speed>0.022360679774997897</speed>
  <fix>3d</fix>
</trkpt>
<trkpt lat="-27.2744389" lon="151.290064">
  <ele>343.1</ele>
  <time>2026-09-01T19:54:18Z</time>
  <course>21.94</course>
  <speed>0.0</speed>
  <fix>3d</fix>
</trkpt>
<trkpt lat="-27.2744391" lon="151.2900641">
  <ele>343.09</ele>
  <time>2026-09-01T19:54:18Z</time>
  <course>10.81</course>
  <speed>0.022360679774997897</speed>
  <fix>3d</fix>
</trkpt>
<trkpt lat="-27.2744389" lon="151.290064">
  <ele>343.1</ele>
  <time>2026-09-01T19:54:18Z</time>
  <course>21.94</course>
  <speed>0.0</speed>
  <fix>3d</fix>
</trkpt>
<trkpt lat="-27.2744391" lon="151.2900641">
  <ele>343.09</ele>
  <time>2026-09-01T19:54:18Z</time>
  <course>10.81</course>
  <speed>0.022360679774997897</speed>
  <fix>3d</fix>
</trkpt>
<trkpt lat="-27.2744389" lon="151.290064">
  <ele>343.1</ele>
  <time>2026-09-01T19:54:18Z</time>
  <course>350.86</course>
  <speed>0.0</speed>
  <fix>3d</fix>
</trkpt>
<trkpt lat="-27.2744391" lon="151.2900641">
  <ele>343.09</ele>
  <time>2026-09-01T19:54:18Z</time>
  <course>10.81</course>
  <speed>0.022360679774997897</speed>
  <fix>3d</fix>
</trkpt>
<trkpt lat="-27.2744389" lon="151.290064">
  <ele>343.1</ele>
  <time>2026-09-01T19:54:18Z</time>
  <course>350.86</course>
  <speed>0.0</speed>
  <fix>3d</fix>
</trkpt>
<trkpt lat="-27.2744391" lon="151.2900641">
  <ele>343.08</ele>
  <time>2026-09-01T19:54:18Z</time>
  <course>10.82</course>
  <speed>0.022360679774997897</speed>
  <fix>3d</fix>
</trkpt>
<trkpt lat="-27.2744389" lon="151.290064">
  <ele>343.1</ele>
  <time>2026-09-01T19:54:18Z</time>
  <course>12.42</course>
  <speed>0.0</speed>
  <fix>3d</fix>
</trkpt>
<trkpt lat="-27.2744391" lon="151.2900641">
  <ele>343.08</ele>
  <time>2026-09-01T19:54:18Z</time>
  <course>10.82</course>
  <speed>0.022360679774997897</speed>
  <fix>3d</fix>
</trkpt>
<trkpt lat="-27.2744389" lon="151.290064">
  <ele>343.1</ele>
  <time>2026-09-01T19:54:18Z</time>
  <course>12.42</course>
  <speed>0.0</speed>
  <fix>3d</fix>
</trkpt>
<trkpt lat="-27.2744391" lon="151.2900641">
  <ele>343.08</ele>
  <time>2026-09-01T19:54:18Z</time>
  <course>10.82</course>
  <speed>0.022360679774997897</speed>
  <fix>3d</fix>
</trkpt>
<trkpt lat="-27.2744389" lon="151.290064">
  <ele>343.1</ele>
  <time>2026-09-01T19:54:18Z</time>
  <course>10.65</course>
  <speed>0.0</speed>
  <fix>3d</fix>
</trkpt>
<trkpt lat="-27.2744391" lon="151.2900641">
  <ele>343.08</ele>
  <time>2026-09-01T19:54:18Z</time>
  <course>10.82</course>
  <speed>0.022360679774997897</speed>
  <fix>3d</fix>
</trkpt>
<trkpt lat="-27.2744389" lon="151.290064">
  <ele>343.1</ele>
  <time>2026-09-01T19:54:18Z</time>
  <course>10.65</course>
  <speed>0.0</speed>
  <fix>3d</fix>
</trkpt>
<trkpt lat="-27.2744391" lon="151.2900641">
  <ele>343.07</ele>
  <time>2026-09-01T19:54:18Z</time>
  <course>10.82</course>
  <speed>0.022360679774997897</speed>
  <fix>3d</fix>
</trkpt>
<trkpt lat="-27.2744389" lon="151.290064">
  <ele>343.1</ele>
  <time>2026-09-01T19:54:18Z</time>
  <course>22.63</course>
  <speed>0.0</speed>
  <fix>3d</fix>
</trkpt>
<trkpt lat="-27.2744391" lon="151.2900641">
  <ele>343.07</ele>
  <time>2026-09-01T19:54:18Z</time>
  <course>10.82</course>
  <speed>0.022360679774997897</speed>
  <fix>3d</fix>
</trkpt>
<trkpt lat="-27.2744389" lon="151.290064">
  <ele>343.1</ele>
  <time>2026-09-01T19:54:18Z</time>
  <course>22.63</course>
  <speed>0.0</speed>
  <fix>3d</fix>
</trkpt>
<trkpt lat="-27.2744391" lon="151.2900641">
  <ele>343.07</ele>
  <time>2026-09-01T19:54:18Z</time>
  <course>10.82</course>
  <speed>0.022360679774997897</speed>
  <fix>3d</fix>
</trkpt>
<trkpt lat="-27.2744389" lon="151.290064">
  <ele>343.1</ele>
  <time>2026-09-01T19:54:18Z</time>
  <course>32.08</course>
  <speed>0.0</speed>
  <fix>3d</fix>
</trkpt>
<trkpt lat="-27.2744391" lon="151.2900641">
  <ele>343.07</ele>
  <time>2026-09-01T19:54:18Z</time>
  <course>10.82</course>
  <speed>0.022360679774997897</speed>
  <fix>3d</fix>
</trkpt>
<trkpt lat="-27.2744389" lon="151.290064">
  <ele>343.1</ele>
  <time>2026-09-01T19:54:18Z</time>
  <course>32.08</course>
  <speed>0.0</speed>
  <fix>3d</fix>
</trkpt>
<trkpt lat="-27.2744391" lon="151.2900641">
  <ele>343.07</ele>
  <time>2026-09-01T19:54:18Z</time>
  <course>10.82</course>
  <speed>0.022360679774997897</speed>
  <fix>3d</fix>
</trkpt>
<trkpt lat="-27.2744389" lon="151.290064">
  <ele>343.1</ele>
  <time>2026-09-01T19:54:18Z</time>
  <course>349.89</course>
  <speed>0.0</speed>
  <fix>3d</fix>
</trkpt>
<trkpt lat="-27.2744391" lon="151.2900641">
  <ele>343.07</ele>
  <time>2026-09-01T19:54:18Z</time>
  <course>10.82</course>
  <speed>0.022360679774997897</speed>
  <fix>3d</fix>
</trkpt>
<trkpt lat="-27.2744389" lon="151.290064">
  <ele>343.1</ele>
  <time>2026-09-01T19:54:18Z</time>
  <course>349.89</course>
  <speed>0.0</speed>
  <fix>3d</fix>
</trkpt>
<trkpt lat="-27.2744391" lon="151.2900641">
  <ele>343.07</ele>
  <time>2026-09-01T19:54:18Z</time>
  <course>10.82</course>
  <speed>0.022360679774997897</speed>
  <fix>3d</fix>
</trkpt>
<trkpt lat="-27.2744389" lon="151.290064">
  <ele>343.1</ele>
  <time>2026-09-01T19:54:18Z</time>
  <course>347.31</course>
  <speed>0.0</speed>
  <fix>3d</fix>
</trkpt>
<trkpt lat="-27.2744391" lon="151.2900641">
  <ele>343.07</ele>
  <time>2026-09-01T19:54:18Z</time>
  <course>10.82</course>
  <speed>0.022360679774997897</speed>
  <fix>3d</fix>
</trkpt>
<trkpt lat="-27.2744389" lon="151.290064">
  <ele>343.1</ele>
  <time>2026-09-01T19:54:18Z</time>
  <course>347.31</course>
  <speed>0.0</speed>
  <fix>3d</fix>
</trkpt>
<trkpt lat="-27.2744391" lon="151.2900641">
  <ele>343.07</ele>
  <time>2026-09-01T19:54:18Z</time>
  <course>10.82</course>
  <speed>0.022360679774997897</speed>
  <fix>3d</fix>
</trkpt>
<trkpt lat="-27.2744389" lon="151.290064">
  <ele>343.1</ele>
  <time>2026-09-01T19:54:18Z</time>
  <course>10.11</course>
  <speed>0.0</speed>
  <fix>3d</fix>
</trkpt>
<trkpt lat="-27.2744391" lon="151.2900641">
  <ele>343.07</ele>
  <time>2026-09-01T19:54:18Z</time>
  <course>10.82</course>
  <speed>0.022360679774997897</speed>
  <fix>3d</fix>
</trkpt>
<trkpt lat="-27.2744389" lon="151.290064">
  <ele>343.1</ele>
  <time>2026-09-01T19:54:18Z</time>
  <course>10.11</course>
  <speed>0.0</speed>
  <fix>3d</fix>
</trkpt>
<trkpt lat="-27.2744391" lon="151.2900641">
  <ele>343.07</ele>
  <time>2026-09-01T19:54:18Z</time>
  <course>10.82</course>
  <speed>0.022360679774997897</speed>
  <fix>3d</fix>
</trkpt>
<trkpt lat="-27.2744389" lon="151.290064">
  <ele>343.1</ele>
  <time>2026-09-01T19:54:18Z</time>
  <course>27.8</course>
  <speed>0.0</speed>
  <fix>3d</fix>
</trkpt>
<trkpt lat="-27.2744391" lon="151.2900641">
  <ele>343.08</ele>
  <time>2026-09-01T19:54:18Z</time>
  <course>10.83</course>
  <speed>0.022360679774997897</speed>
  <fix>3d</fix>
</trkpt>
<trkpt lat="-27.2744389" lon="151.290064">
  <ele>343.1</ele>
  <time>2026-09-01T19:54:18Z</time>
  <course>27.8</course>
  <speed>0.0</speed>
  <fix>3d</fix>
</trkpt>
<trkpt lat="-27.2744391" lon="151.2900641">
  <ele>343.08</ele>
  <time>2026-09-01T19:54:18Z</time>
  <course>10.83</course>
  <speed>0.022360679774997897</speed>
  <fix>3d</fix>
</trkpt>
<trkpt lat="-27.2744389" lon="151.290064">
  <ele>343.1</ele>
  <time>2026-09-01T19:54:18Z</time>
  <course>29.25</course>
  <speed>0.0</speed>
  <fix>3d</fix>
</trkpt>
<trkpt lat="-27.2744391" lon="151.2900641">
  <ele>343.08</ele>
  <time>2026-09-01T19:54:18Z</time>
  <course>10.83</course>
  <speed>0.022360679774997897</speed>
  <fix>3d</fix>
</trkpt>
<trkpt lat="-27.2744389" lon="151.290064">
  <ele>343.1</ele>
  <time>2026-09-01T19:54:18Z</time>
  <course>29.25</course>
  <speed>0.0</speed>
  <fix>3d</fix>
</trkpt>
<trkpt lat="-27.2744391" lon="151.2900641">
  <ele>343.09</ele>
  <time>2026-09-01T19:54:18Z</time>
  <course>10.83</course>
  <speed>0.022360679774997897</speed>
  <fix>3d</fix>
</trkpt>
<trkpt lat="-27.2744389" lon="151.290064">
  <ele>343.1</ele>
  <time>2026-09-01T19:54:18Z</time>
  <course>4.86</course>
  <speed>0.0</speed>
  <fix>3d</fix>
</trkpt>
<trkpt lat="-27.2744391" lon="151.2900641">
  <ele>343.09</ele>
  <time>2026-09-01T19:54:18Z</time>
  <course>10.83</course>
  <speed>0.022360679774997897</speed>
  <fix>3d</fix>
</trkpt>
<trkpt lat="-27.2744389" lon="151.290064">
  <ele>343.1</ele>
  <time>2026-09-01T19:54:18Z</time>
  <course>4.86</course>
  <speed>0.0</speed>
  <fix>3d</fix>
</trkpt>
<trkpt lat="-27.2744391" lon="151.2900641">
  <ele>343.09</ele>
  <time>2026-09-01T19:54:18Z</time>
  <course>10.83</course>
  <speed>0.022360679774997897</speed>
  <fix>3d</fix>
</trkpt>
<trkpt lat="-27.2744389" lon="151.290064">
  <ele>343.1</ele>
  <time>2026-09-01T19:54:18Z</time>
  <course>3.63</course>
  <speed>0.0</speed>
  <fix>3d</fix>
</trkpt>
<trkpt lat="-27.2744391" lon="151.2900641">
  <ele>343.09</ele>
  <time>2026-09-01T19:54:18Z</time>
  <course>10.83</course>
  <speed>0.022360679774997897</speed>
  <fix>3d</fix>
</trkpt>
<trkpt lat="-27.2744389" lon="151.290064">
  <ele>343.1</ele>
  <time>2026-09-01T19:54:18Z</time>
  <course>3.63</course>
  <speed>0.0</speed>
  <fix>3d</fix>
</trkpt>
<trkpt lat="-27.2744391" lon="151.2900641">
  <ele>343.1</ele>
  <time>2026-09-01T19:54:18Z</time>
  <course>10.83</course>
  <speed>0.022360679774997897</speed>
  <fix>3d</fix>
</trkpt>
<trkpt lat="-27.2744389" lon="151.290064">
  <ele>343.1</ele>
  <time>2026-09-01T19:54:18Z</time>
  <course>13.72</course>
  <speed>0.0</speed>
  <fix>3d</fix>
</trkpt>
<trkpt lat="-27.2744391" lon="151.2900641">
  <ele>343.1</ele>
  <time>2026-09-01T19:54:18Z</time>
  <course>10.83</course>
  <speed>0.022360679774997897</speed>
  <fix>3d</fix>
</trkpt>
<trkpt lat="-27.2744389" lon="151.290064">
  <ele>343.1</ele>
  <time>2026-09-01T19:54:18Z</time>
  <course>13.72</course>
  <speed>0.0</speed>
  <fix>3d</fix>
</trkpt>
<trkpt lat="-27.2744391" lon="151.2900641">
  <ele>343.1</ele>
  <time>2026-09-01T19:54:18Z</time>
  <course>10.83</course>
  <speed>0.022360679774997897</speed>
  <fix>3d</fix>
</trkpt>
<trkpt lat="-27.2744389" lon="151.290064">
  <ele>343.1</ele>
  <time>2026-09-01T19:54:18Z</time>
  <course>13.87</course>
  <speed>0.0</speed>
  <fix>3d</fix>
</trkpt>
<trkpt lat="-27.2744391" lon="151.2900641">
  <ele>343.1</ele>
  <time>2026-09-01T19:54:18Z</time>
  <course>10.83</course>
  <speed>0.022360679774997897</speed>
  <fix>3d</fix>
</trkpt>
<trkpt lat="-27.2744389" lon="151.290064">
  <ele>343.1</ele>
  <time>2026-09-01T19:54:18Z</time>
  <course>13.87</course>
  <speed>0.0</speed>
  <fix>3d</fix>
</trkpt>
<trkpt lat="-27.2744391" lon="151.2900641">
  <ele>343.1</ele>
  <time>2026-09-01T19:54:18Z</time>
  <course>10.83</course>
  <speed>0.022360679774997897</speed>
  <fix>3d</fix>
</trkpt>
<trkpt lat="-27.2744389" lon="151.290064">
  <ele>343.1</ele>
  <time>2026-09-01T19:54:18Z</time>
  <course>10.8</course>
  <speed>0.0</speed>
  <fix>3d</fix>
</trkpt>
<trkpt lat="-27.2744391" lon="151.2900641">
  <ele>343.1</ele>
  <time>2026-09-01T19:54:18Z</time>
  <course>10.83</course>
  <speed>0.022360679774997897</speed>
  <fix>3d</fix>
</trkpt>
<trkpt lat="-27.2744389" lon="151.290064">
  <ele>343.1</ele>
  <time>2026-09-01T19:54:18Z</time>
  <course>10.8</course>
  <speed>0.0</speed>
  <fix>3d</fix>
</trkpt>
<trkpt lat="-27.2744391" lon="151.2900641">
  <ele>343.1</ele>
  <time>2026-09-01T19:54:18Z</time>
  <course>10.83</course>
  <speed>0.022360679774997897</speed>
  <fix>3d</fix>
</trkpt>
<trkpt lat="-27.2744389" lon="151.290064">
  <ele>343.1</ele>
  <time>2026-09-01T19:54:18Z</time>
  <course>11.75</course>
  <speed>0.0</speed>
  <fix>3d</fix>
</trkpt>
<trkpt lat="-27.2744391" lon="151.2900641">
  <ele>343.1</ele>
  <time>2026-09-01T19:54:18Z</time>
  <course>10.83</course>
  <speed>0.022360679774997897</speed>
  <fix>3d</fix>
</trkpt>
<trkpt lat="-27.2744389" lon="151.290064">
  <ele>343.1</ele>
  <time>2026-09-01T19:54:18Z</time>
  <course>11.75</course>
  <speed>0.0</speed>
  <fix>3d</fix>
</trkpt>
<trkpt lat="-27.2744391" lon="151.2900641">
  <ele>343.1</ele>
  <time>2026-09-01T19:54:18Z</time>
  <course>10.83</course>
  <speed>0.022360679774997897</speed>
  <fix>3d</fix>
</trkpt>
<trkpt lat="-27.2744389" lon="151.290064">
  <ele>343.1</ele>
  <time>2026-09-01T19:54:18Z</time>
  <course>5.17</course>
  <speed>0.0</speed>
  <fix>3d</fix>
</trkpt>
<trkpt lat="-27.2744391" lon="151.2900641">
  <ele>343.1</ele>
  <time>2026-09-01T19:54:18Z</time>
  <course>10.84</course>
  <speed>0.022360679774997897</speed>
  <fix>3d</fix>
</trkpt>
<trkpt lat="-27.2744389" lon="151.290064">
  <ele>343.1</ele>
  <time>2026-09-01T19:54:18Z</time>
  <course>5.17</course>
  <speed>0.0</speed>
  <fix>3d</fix>
</trkpt>
<trkpt lat="-27.2744391" lon="151.2900641">
  <ele>343.1</ele>
  <time>2026-09-01T19:54:18Z</time>
  <course>10.84</course>
  <speed>0.022360679774997897</speed>
  <fix>3d</fix>
</trkpt>
<trkpt lat="-27.2744389" lon="151.290064">
  <ele>343.1</ele>
  <time>2026-09-01T19:54:18Z</time>
  <course>5.69</course>
  <speed>0.0</speed>
  <fix>3d</fix>
</trkpt>
<trkpt lat="-27.2744391" lon="151.2900641">
  <ele>343.1</ele>
  <time>2026-09-01T19:54:18Z</time>
  <course>10.84</course>
  <speed>0.022360679774997897</speed>
  <fix>3d</fix>
</trkpt>
<trkpt lat="-27.2744389" lon="151.290064">
  <ele>343.1</ele>
  <time>2026-09-01T19:54:18Z</time>
  <course>5.69</course>
  <speed>0.0</speed>
  <fix>3d</fix>
</trkpt>
<trkpt lat="-27.2744391" lon="151.2900641">
  <ele>343.1</ele>
  <time>2026-09-01T19:54:18Z</time>
  <course>10.84</course>
  <speed>0.022360679774997897</speed>
  <fix>3d</fix>
</trkpt>
<trkpt lat="-27.2744389" lon="151.290064">
  <ele>343.1</ele>
  <time>2026-09-01T19:54:18Z</time>
  <course>358.27</course>
  <speed>0.0</speed>
  <fix>3d</fix>
</trkpt>
<trkpt lat="-27.2744391" lon="151.2900641">
  <ele>343.1</ele>
  <time>2026-09-01T19:54:18Z</time>
  <course>10.84</course>
  <speed>0.022360679774997897</speed>
  <fix>3d</fix>
</trkpt>
<trkpt lat="-27.2744389" lon="151.290064">
  <ele>343.1</ele>
  <time>2026-09-01T19:54:18Z</time>
  <course>358.27</course>
  <speed>0.0</speed>
  <fix>3d</fix>
</trkpt>
<trkpt lat="-27.2744391" lon="151.2900641">
  <ele>343.1</ele>
  <time>2026-09-01T19:54:18Z</time>
  <course>10.84</course>
  <speed>0.022360679774997897</speed>
  <fix>3d</fix>
</trkpt>
<trkpt lat="-27.2744389" lon="151.290064">
  <ele>343.1</ele>
  <time>2026-09-01T19:54:18Z</time>
  <course>342.84</course>
  <speed>0.0</speed>
  <fix>3d</fix>
</trkpt>
<trkpt lat="-27.2744391" lon="151.2900641">
  <ele>343.11</ele>
  <time>2026-09-01T19:54:18Z</time>
  <course>10.84</course>
  <speed>0.022360679774997897</speed>
  <fix>3d</fix>
</trkpt>
<trkpt lat="-27.2744389" lon="151.290064">
  <ele>343.1</ele>
  <time>2026-09-01T19:54:18Z</time>
  <course>342.84</course>
  <speed>0.0</speed>
  <fix>3d</fix>
</trkpt>
<trkpt lat="-27.2744391" lon="151.2900641">
  <ele>343.11</ele>
  <time>2026-09-01T19:54:18Z</time>
  <course>10.84</course>
  <speed>0.022360679774997897</speed>
  <fix>3d</fix>
</trkpt>
<trkpt lat="-27.2744389" lon="151.290064">
  <ele>343.1</ele>
  <time>2026-09-01T19:54:18Z</time>
  <course>16.71</course>
  <speed>0.0</speed>
  <fix>3d</fix>
</trkpt>
<trkpt lat="-27.2744391" lon="151.2900641">
  <ele>343.11</ele>
  <time>2026-09-01T19:54:18Z</time>
  <course>10.84</course>
  <speed>0.022360679774997897</speed>
  <fix>3d</fix>
</trkpt>
<trkpt lat="-27.2744389" lon="151.290064">
  <ele>343.1</ele>
  <time>2026-09-01T19:54:18Z</time>
  <course>16.71</course>
  <speed>0.0</speed>
  <fix>3d</fix>
</trkpt>
<trkpt lat="-27.2744391" lon="151.2900641">
  <ele>343.11</ele>
  <time>2026-09-01T19:54:18Z</time>
  <course>10.84</course>
  <speed>0.022360679774997897</speed>
  <fix>3d</fix>
</trkpt>
<trkpt lat="-27.2744389" lon="151.290064">
  <ele>343.1</ele>
  <time>2026-09-01T19:54:18Z</time>
  <course>17.91</course>
  <speed>0.0</speed>
  <fix>3d</fix>
</trkpt>
<trkpt lat="-27.2744391" lon="151.2900641">
  <ele>343.11</ele>
  <time>2026-09-01T19:54:18Z</time>
  <course>10.84</course>
  <speed>0.022360679774997897</speed>
  <fix>3d</fix>
</trkpt>
<trkpt lat="-27.2744389" lon="151.290064">
  <ele>343.1</ele>
  <time>2026-09-01T19:54:18Z</time>
  <course>17.91</course>
  <speed>0.0</speed>
  <fix>3d</fix>
</trkpt>
<trkpt lat="-27.2744391" lon="151.2900641">
  <ele>343.11</ele>
  <time>2026-09-01T19:54:18Z</time>
  <course>10.84</course>
  <speed>0.022360679774997897</speed>
  <fix>3d</fix>
</trkpt>
<trkpt lat="-27.2744389" lon="151.290064">
  <ele>343.1</ele>
  <time>2026-09-01T19:54:18Z</time>
  <course>13.02</course>
  <speed>0.0</speed>
  <fix>3d</fix>
</trkpt>
<trkpt lat="-27.2744391" lon="151.2900641">
  <ele>343.12</ele>
  <time>2026-09-01T19:54:18Z</time>
  <course>10.84</course>
  <speed>0.022360679774997897</speed>
  <fix>3d</fix>
</trkpt>
<trkpt lat="-27.2744389" lon="151.290064">
  <ele>343.1</ele>
  <time>2026-09-01T19:54:18Z</time>
  <course>13.02</course>
  <speed>0.0</speed>
  <fix>3d</fix>
</trkpt>
<trkpt lat="-27.2744391" lon="151.2900641">
  <ele>343.12</ele>
  <time>2026-09-01T19:54:18Z</time>
  <course>10.84</course>
  <speed>0.022360679774997897</speed>
  <fix>3d</fix>
</trkpt>
<trkpt lat="-27.2744389" lon="151.290064">
  <ele>343.1</ele>
  <time>2026-09-01T19:54:18Z</time>
  <course>358.54</course>
  <speed>0.0</speed>
  <fix>3d</fix>
</trkpt>
<trkpt lat="-27.2744391" lon="151.2900641">
  <ele>343.12</ele>
  <time>2026-09-01T19:54:18Z</time>
  <course>10.84</course>
  <speed>0.022360679774997897</speed>
  <fix>3d</fix>
</trkpt>
<trkpt lat="-27.2744389" lon="151.290064">
  <ele>343.1</ele>
  <time>2026-09-01T19:54:18Z</time>
  <course>358.54</course>
  <speed>0.0</speed>
  <fix>3d</fix>
</trkpt>
<trkpt lat="-27.2744391" lon="151.2900641">
  <ele>343.12</ele>
  <time>2026-09-01T19:54:18Z</time>
  <course>10.85</course>
  <speed>0.022360679774997897</speed>
  <fix>3d</fix>
</trkpt>
<trkpt lat="-27.2744389" lon="151.290064">
  <ele>343.1</ele>
  <time>2026-09-01T19:54:18Z</time>
  <course>10.46</course>
  <speed>0.0</speed>
  <fix>3d</fix>
</trkpt>
<trkpt lat="-27.2744391" lon="151.2900641">
  <ele>343.12</ele>
  <time>2026-09-01T19:54:18Z</time>
  <course>10.85</course>
  <speed>0.022360679774997897</speed>
  <fix>3d</fix>
</trkpt>
<trkpt lat="-27.2744389" lon="151.290064">
  <ele>343.1</ele>
  <time>2026-09-01T19:54:18Z</time>
  <course>10.46</course>
  <speed>0.0</speed>
  <fix>3d</fix>
</trkpt>
<trkpt lat="-27.2744391" lon="151.2900641">
  <ele>343.12</ele>
  <time>2026-09-01T19:54:18Z</time>
  <course>10.85</course>
  <speed>0.022360679774997897</speed>
  <fix>3d</fix>
</trkpt>
<trkpt lat="-27.2744389" lon="151.290064">
  <ele>343.1</ele>
  <time>2026-09-01T19:54:18Z</time>
  <course>6.82</course>
  <speed>0.0</speed>
  <fix>3d</fix>
</trkpt>
<trkpt lat="-27.2744391" lon="151.2900641">
  <ele>343.12</ele>
  <time>2026-09-01T19:54:18Z</time>
  <course>10.85</course>
  <speed>0.022360679774997897</speed>
  <fix>3d</fix>
</trkpt>
<trkpt lat="-27.2744389" lon="151.290064">
  <ele>343.1</ele>
  <time>2026-09-01T19:54:18Z</time>
  <course>6.82</course>
  <speed>0.0</speed>
  <fix>3d</fix>
</trkpt>
<trkpt lat="-27.2744391" lon="151.2900641">
  <ele>343.12</ele>
  <time>2026-09-01T19:54:18Z</time>
  <course>10.85</course>
  <speed>0.022360679774997897</speed>
  <fix>3d</fix>
</trkpt>
<trkpt lat="-27.2744389" lon="151.290064">
  <ele>343.1</ele>
  <time>2026-09-01T19:54:18Z</time>
  <course>333.83</course>
  <speed>0.0</speed>
  <fix>3d</fix>
</trkpt>
<trkpt lat="-27.2744391" lon="151.2900641">
  <ele>343.13</ele>
  <time>2026-09-01T19:54:18Z</time>
  <course>10.85</course>
  <speed>0.022360679774997897</speed>
  <fix>3d</fix>
</trkpt>
<trkpt lat="-27.2744389" lon="151.290064">
  <ele>343.1</ele>
  <time>2026-09-01T19:54:18Z</time>
  <course>333.83</course>
  <speed>0.0</speed>
  <fix>3d</fix>
</trkpt>
<trkpt lat="-27.2744391" lon="151.2900641">
  <ele>343.13</ele>
  <time>2026-09-01T19:54:18Z</time>
  <course>10.85</course>
  <speed>0.022360679774997897</speed>
  <fix>3d</fix>
</trkpt>
<trkpt lat="-27.2744389" lon="151.290064">
  <ele>343.1</ele>
  <time>2026-09-01T19:54:18Z</time>
  <course>38.94</course>
  <speed>0.0</speed>
  <fix>3d</fix>
</trkpt>
<trkpt lat="-27.2744391" lon="151.2900641">
  <ele>343.13</ele>
  <time>2026-09-01T19:54:18Z</time>
  <course>10.85</course>
  <speed>0.022360679774997897</speed>
  <fix>3d</fix>
</trkpt>
<trkpt lat="-27.2744389" lon="151.290064">
  <ele>343.1</ele>
  <time>2026-09-01T19:54:18Z</time>
  <course>38.94</course>
  <speed>0.0</speed>
  <fix>3d</fix>
</trkpt>
<trkpt lat="-27.2744391" lon="151.2900641">
  <ele>343.13</ele>
  <time>2026-09-01T19:54:18Z</time>
  <course>10.85</course>
  <speed>0.022360679774997897</speed>
  <fix>3d</fix>
</trkpt>
<trkpt lat="-27.2744389" lon="151.290064">
  <ele>343.1</ele>
  <time>2026-09-01T19:54:18Z</time>
  <course>24.64</course>
  <speed>0.0</speed>
  <fix>3d</fix>
</trkpt>
<trkpt lat="-27.2744391" lon="151.2900641">
  <ele>343.13</ele>
  <time>2026-09-01T19:54:18Z</time>
  <course>10.85</course>
  <speed>0.022360679774997897</speed>
  <fix>3d</fix>
</trkpt>
<trkpt lat="-27.2744389" lon="151.290064">
  <ele>343.1</ele>
  <time>2026-09-01T19:54:18Z</time>
  <course>24.64</course>
  <speed>0.0</speed>
  <fix>3d</fix>
</trkpt>
<trkpt lat="-27.2744391" lon="151.2900641">
  <ele>343.13</ele>
  <time>2026-09-01T19:54:18Z</time>
  <course>10.85</course>
  <speed>0.022360679774997897</speed>
  <fix>3d</fix>
</trkpt>
<trkpt lat="-27.2744389" lon="151.290064">
  <ele>343.1</ele>
  <time>2026-09-01T19:54:18Z</time>
  <course>343.48</course>
  <speed>0.0</speed>
  <fix>3d</fix>
</trkpt>
<trkpt lat="-27.2744391" lon="151.2900641">
  <ele>343.14</ele>
  <time>2026-09-01T19:54:18Z</time>
  <course>10.85</course>
  <speed>0.022360679774997897</speed>
  <fix>3d</fix>
</trkpt>
<trkpt lat="-27.2744389" lon="151.290064">
  <ele>343.1</ele>
  <time>2026-09-01T19:54:18Z</time>
  <course>343.48</course>
  <speed>0.0</speed>
  <fix>3d</fix>
</trkpt>
<trkpt lat="-27.2744391" lon="151.2900641">
  <ele>343.14</ele>
  <time>2026-09-01T19:54:18Z</time>
  <course>10.85</course>
  <speed>0.022360679774997897</speed>
  <fix>3d</fix>
</trkpt>
<trkpt lat="-27.2744389" lon="151.290064">
  <ele>343.1</ele>
  <time>2026-09-01T19:54:18Z</time>
  <course>2.6</course>
  <speed>0.0</speed>
  <fix>3d</fix>
</trkpt>
<trkpt lat="-27.2744391" lon="151.2900641">
  <ele>343.14</ele>
  <time>2026-09-01T19:54:18Z</time>
  <course>10.86</course>
  <speed>0.022360679774997897</speed>
  <fix>3d</fix>
</trkpt>
<trkpt lat="-27.2744389" lon="151.290064">
  <ele>343.1</ele>
  <time>2026-09-01T19:54:18Z</time>
  <course>2.6</course>
  <speed>0.0</speed>
  <fix>3d</fix>
</trkpt>
<trkpt lat="-27.2744391" lon="151.2900641">
  <ele>343.14</ele>
  <time>2026-09-01T19:54:18Z</time>
  <course>10.86</course>
  <speed>0.022360679774997897</speed>
  <fix>3d</fix>
</trkpt>
<trkpt lat="-27.2744389" lon="151.290064">
  <ele>343.1</ele>
  <time>2026-09-01T19:54:18Z</time>
  <course>20.96</course>
  <speed>0.0</speed>
  <fix>3d</fix>
</trkpt>
<trkpt lat="-27.2744391" lon="151.2900641">
  <ele>343.14</ele>
  <time>2026-09-01T19:54:18Z</time>
  <course>10.86</course>
  <speed>0.022360679774997897</speed>
  <fix>3d</fix>
</trkpt>
<trkpt lat="-27.2744389" lon="151.290064">
  <ele>343.1</ele>
  <time>2026-09-01T19:54:18Z</time>
  <course>20.96</course>
  <speed>0.0</speed>
  <fix>3d</fix>
</trkpt>
<trkpt lat="-27.2744391" lon="151.2900641">
  <ele>343.14</ele>
  <time>2026-09-01T19:54:18Z</time>
  <course>10.86</course>
  <speed>0.022360679774997897</speed>
  <fix>3d</fix>
</trkpt>
<trkpt lat="-27.2744389" lon="151.290064">
  <ele>343.1</ele>
  <time>2026-09-01T19:54:18Z</time>
  <course>3.55</course>
  <speed>0.0</speed>
  <fix>3d</fix>
</trkpt>
<trkpt lat="-27.2744391" lon="151.2900641">
  <ele>343.14</ele>
  <time>2026-09-01T19:54:18Z</time>
  <course>10.86</course>
  <speed>0.022360679774997897</speed>
  <fix>3d</fix>
</trkpt>
<trkpt lat="-27.2744389" lon="151.290064">
  <ele>343.1</ele>
  <time>2026-09-01T19:54:18Z</time>
  <course>3.55</course>
  <speed>0.0</speed>
  <fix>3d</fix>
</trkpt>
<trkpt lat="-27.2744391" lon="151.2900641">
  <ele>343.15</ele>
  <time>2026-09-01T19:54:18Z</time>
  <course>10.86</course>
  <speed>0.022360679774997897</speed>
  <fix>3d</fix>
</trkpt>
<trkpt lat="-27.2744389" lon="151.290064">
  <ele>343.1</ele>
  <time>2026-09-01T19:54:18Z</time>
  <course>16.35</course>
  <speed>0.0</speed>
  <fix>3d</fix>
</trkpt>
<trkpt lat="-27.2744391" lon="151.2900641">
  <ele>343.15</ele>
  <time>2026-09-01T19:54:18Z</time>
  <course>10.86</course>
  <speed>0.022360679774997897</speed>
  <fix>3d</fix>
</trkpt>
<trkpt lat="-27.2744389" lon="151.290064">
  <ele>343.1</ele>
  <time>2026-09-01T19:54:18Z</time>
  <course>16.35</course>
  <speed>0.0</speed>
  <fix>3d</fix>
</trkpt>
<trkpt lat="-27.2744391" lon="151.2900641">
  <ele>343.15</ele>
  <time>2026-09-01T19:54:18Z</time>
  <course>10.86</course>
  <speed>0.022360679774997897</speed>
  <fix>3d</fix>
</trkpt>
<trkpt lat="-27.2744389" lon="151.290064">
  <ele>343.1</ele>
  <time>2026-09-01T19:54:18Z</time>
  <course>20.74</course>
  <speed>0.0</speed>
  <fix>3d</fix>
</trkpt>
<trkpt lat="-27.2744391" lon="151.2900641">
  <ele>343.15</ele>
  <time>2026-09-01T19:54:18Z</time>
  <course>10.86</course>
  <speed>0.022360679774997897</speed>
  <fix>3d</fix>
</trkpt>
<trkpt lat="-27.2744389" lon="151.290064">
  <ele>343.1</ele>
  <time>2026-09-01T19:54:18Z</time>
  <course>20.74</course>
  <speed>0.0</speed>
  <fix>3d</fix>
</trkpt>
<trkpt lat="-27.2744391" lon="151.2900641">
  <ele>343.16</ele>
  <time>2026-09-01T19:54:18Z</time>
  <course>10.86</course>
  <speed>0.022360679774997897</speed>
  <fix>3d</fix>
</trkpt>
<trkpt lat="-27.2744389" lon="151.290064">
  <ele>343.1</ele>
  <time>2026-09-01T19:54:18Z</time>
  <course>18.48</course>
  <speed>0.0</speed>
  <fix>3d</fix>
</trkpt>
<trkpt lat="-27.2744391" lon="151.2900641">
  <ele>343.16</ele>
  <time>2026-09-01T19:54:18Z</time>
  <course>10.86</course>
  <speed>0.022360679774997897</speed>
  <fix>3d</fix>
</trkpt>
<trkpt lat="-27.2744389" lon="151.290064">
  <ele>343.1</ele>
  <time>2026-09-01T19:54:18Z</time>
  <course>18.48</course>
  <speed>0.0</speed>
  <fix>3d</fix>
</trkpt>
<trkpt lat="-27.2744391" lon="151.2900641">
  <ele>343.16</ele>
  <time>2026-09-01T19:54:18Z</time>
  <course>10.86</course>
  <speed>0.022360679774997897</speed>
  <fix>3d</fix>
</trkpt>
<trkpt lat="-27.2744389" lon="151.290064">
  <ele>343.1</ele>
  <time>2026-09-01T19:54:18Z</time>
  <course>23.02</course>
  <speed>0.0</speed>
  <fix>3d</fix>
</trkpt>
<trkpt lat="-27.2744391" lon="151.2900641">
  <ele>343.16</ele>
  <time>2026-09-01T19:54:18Z</time>
  <course>10.86</course>
  <speed>0.022360679774997897</speed>
  <fix>3d</fix>
</trkpt>
<trkpt lat="-27.2744389" lon="151.290064">
  <ele>343.1</ele>
  <time>2026-09-01T19:54:18Z</time>
  <course>23.02</course>
  <speed>0.0</speed>
  <fix>3d</fix>
</trkpt>
<trkpt lat="-27.2744391" lon="151.2900641">
  <ele>343.16</ele>
  <time>2026-09-01T19:54:18Z</time>
  <course>10.86</course>
  <speed>0.022360679774997897</speed>
  <fix>3d</fix>
</trkpt>
<trkpt lat="-27.2744389" lon="151.290064">
  <ele>343.1</ele>
  <time>2026-09-01T19:54:18Z</time>
  <course>17.84</course>
  <speed>0.0</speed>
  <fix>3d</fix>
</trkpt>
<trkpt lat="-27.2744391" lon="151.2900641">
  <ele>343.16</ele>
  <time>2026-09-01T19:54:18Z</time>
  <course>10.87</course>
  <speed>0.022360679774997897</speed>
  <fix>3d</fix>
</trkpt>
<trkpt lat="-27.2744389" lon="151.290064">
  <ele>343.1</ele>
  <time>2026-09-01T19:54:18Z</time>
  <course>17.84</course>
  <speed>0.0</speed>
  <fix>3d</fix>
</trkpt>
<trkpt lat="-27.2744391" lon="151.2900641">
  <ele>343.15</ele>
  <time>2026-09-01T19:54:18Z</time>
  <course>10.87</course>
  <speed>0.022360679774997897</speed>
  <fix>3d</fix>
</trkpt>
<trkpt lat="-27.2744389" lon="151.290064">
  <ele>343.1</ele>
  <time>2026-09-01T19:54:18Z</time>
  <course>21.5</course>
  <speed>0.0</speed>
  <fix>3d</fix>
</trkpt>
<trkpt lat="-27.2744391" lon="151.2900641">
  <ele>343.15</ele>
  <time>2026-09-01T19:54:18Z</time>
  <course>10.87</course>
  <speed>0.022360679774997897</speed>
  <fix>3d</fix>
</trkpt>
<trkpt lat="-27.2744389" lon="151.290064">
  <ele>343.1</ele>
  <time>2026-09-01T19:54:18Z</time>
  <course>21.5</course>
  <speed>0.0</speed>
  <fix>3d</fix>
</trkpt>
<trkpt lat="-27.2744391" lon="151.2900641">
  <ele>343.15</ele>
  <time>2026-09-01T19:54:18Z</time>
  <course>10.87</course>
  <speed>0.022360679774997897</speed>
  <fix>3d</fix>
</trkpt>
<trkpt lat="-27.2744389" lon="151.290064">
  <ele>343.1</ele>
  <time>2026-09-01T19:54:18Z</time>
  <course>11.8</course>
  <speed>0.0</speed>
  <fix>3d</fix>
</trkpt>
<trkpt lat="-27.2744391" lon="151.2900641">
  <ele>343.15</ele>
  <time>2026-09-01T19:54:18Z</time>
  <course>10.87</course>
  <speed>0.022360679774997897</speed>
  <fix>3d</fix>
</trkpt>
<trkpt lat="-27.2744389" lon="151.290064">
  <ele>343.1</ele>
  <time>2026-09-01T19:54:18Z</time>
  <course>11.8</course>
  <speed>0.0</speed>
  <fix>3d</fix>
</trkpt>
<trkpt lat="-27.2744391" lon="151.2900641">
  <ele>343.1</ele>
  <time>2026-09-01T19:54:18Z</time>
  <course>10.87</course>
  <speed>0.022360679774997897</speed>
  <fix>3d</fix>
</trkpt>
<trkpt lat="-27.2744389" lon="151.290064">
  <ele>343.1</ele>
  <time>2026-09-01T19:54:18Z</time>
  <course>4.54</course>
  <speed>0.0</speed>
  <fix>3d</fix>
</trkpt>
<trkpt lat="-27.2744391" lon="151.2900641">
  <ele>343.1</ele>
  <time>2026-09-01T19:54:18Z</time>
  <course>10.87</course>
  <speed>0.022360679774997897</speed>
  <fix>3d</fix>
</trkpt>
<trkpt lat="-27.2744389" lon="151.290064">
  <ele>343.1</ele>
  <time>2026-09-01T19:54:18Z</time>
  <course>4.54</course>
  <speed>0.0</speed>
  <fix>3d</fix>
</trkpt>
<trkpt lat="-27.2744391" lon="151.2900641">
  <ele>343.1</ele>
  <time>2026-09-01T19:54:18Z</time>
  <course>10.87</course>
  <speed>0.022360679774997897</speed>
  <fix>3d</fix>
</trkpt>
<trkpt lat="-27.2744389" lon="151.290064">
  <ele>343.1</ele>
  <time>2026-09-01T19:54:18Z</time>
  <course>1.87</course>
  <speed>0.0</speed>
  <fix>3d</fix>
</trkpt>
<trkpt lat="-27.2744391" lon="151.2900641">
  <ele>343.1</ele>
  <time>2026-09-01T19:54:18Z</time>
  <course>10.87</course>
  <speed>0.022360679774997897</speed>
  <fix>3d</fix>
</trkpt>
<trkpt lat="-27.2744389" lon="151.290064">
  <ele>343.1</ele>
  <time>2026-09-01T19:54:18Z</time>
  <course>1.87</course>
  <speed>0.0</speed>
  <fix>3d</fix>
</trkpt>
<trkpt lat="-27.2744391" lon="151.2900641">
  <ele>343.1</ele>
  <time>2026-09-01T19:54:18Z</time>
  <course>10.87</course>
  <speed>0.022360679774997897</speed>
  <fix>3d</fix>
</trkpt>
<trkpt lat="-27.2744389" lon="151.290064">
  <ele>343.1</ele>
  <time>2026-09-01T19:54:18Z</time>
  <course>355.17</course>
  <speed>0.0</speed>
  <fix>3d</fix>
</trkpt>
<trkpt lat="-27.2744391" lon="151.2900641">
  <ele>343.1</ele>
  <time>2026-09-01T19:54:18Z</time>
  <course>10.87</course>
  <speed>0.022360679774997897</speed>
  <fix>3d</fix>
</trkpt>
<trkpt lat="-27.2744389" lon="151.290064">
  <ele>343.1</ele>
  <time>2026-09-01T19:54:18Z</time>
  <course>355.17</course>
  <speed>0.0</speed>
  <fix>3d</fix>
</trkpt>
<trkpt lat="-27.2744391" lon="151.2900641">
  <ele>343.1</ele>
  <time>2026-09-01T19:54:18Z</time>
  <course>10.87</course>
  <speed>0.022360679774997897</speed>
  <fix>3d</fix>
</trkpt>
<trkpt lat="-27.2744389" lon="151.290064">
  <ele>343.1</ele>
  <time>2026-09-01T19:54:18Z</time>
  <course>5.29</course>
  <speed>0.0</speed>
  <fix>3d</fix>
</trkpt>
<trkpt lat="-27.2744391" lon="151.2900641">
  <ele>343.1</ele>
  <time>2026-09-01T19:54:18Z</time>
  <course>10.87</course>
  <speed>0.022360679774997897</speed>
  <fix>3d</fix>
</trkpt>
<trkpt lat="-27.2744389" lon="151.290064">
  <ele>343.1</ele>
  <time>2026-09-01T19:54:18Z</time>
  <course>5.29</course>
  <speed>0.0</speed>
  <fix>3d</fix>
</trkpt>
<trkpt lat="-27.2744391" lon="151.2900641">
  <ele>343.1</ele>
  <time>2026-09-01T19:54:18Z</time>
  <course>10.87</course>
  <speed>0.022360679774997897</speed>
  <fix>3d</fix>
</trkpt>
<trkpt lat="-27.2744389" lon="151.290064">
  <ele>343.1</ele>
  <time>2026-09-01T19:54:18Z</time>
  <course>356.77</course>
  <speed>0.0</speed>
  <fix>3d</fix>
</trkpt>
<trkpt lat="-27.2744391" lon="151.2900641">
  <ele>343.1</ele>
  <time>2026-09-01T19:54:18Z</time>
  <course>10.88</course>
  <speed>0.022360679774997897</speed>
  <fix>3d</fix>
</trkpt>
<trkpt lat="-27.2744389" lon="151.290064">
  <ele>343.1</ele>
  <time>2026-09-01T19:54:18Z</time>
  <course>356.77</course>
  <speed>0.0</speed>
  <fix>3d</fix>
</trkpt>
<trkpt lat="-27.2744391" lon="151.2900641">
  <ele>343.1</ele>
  <time>2026-09-01T19:54:18Z</time>
  <course>10.88</course>
  <speed>0.022360679774997897</speed>
  <fix>3d</fix>
</trkpt>
<trkpt lat="-27.2744389" lon="151.290064">
  <ele>343.1</ele>
  <time>2026-09-01T19:54:18Z</time>
  <course>19.3</course>
  <speed>0.0</speed>
  <fix>3d</fix>
</trkpt>
<trkpt lat="-27.2744391" lon="151.2900641">
  <ele>343.11</ele>
  <time>2026-09-01T19:54:18Z</time>
  <course>10.88</course>
  <speed>0.022360679774997897</speed>
  <fix>3d</fix>
</trkpt>
<trkpt lat="-27.2744389" lon="151.290064">
  <ele>343.1</ele>
  <time>2026-09-01T19:54:18Z</time>
  <course>19.3</course>
  <speed>0.0</speed>
  <fix>3d</fix>
</trkpt>
<trkpt lat="-27.2744391" lon="151.2900641">
  <ele>343.11</ele>
  <time>2026-09-01T19:54:18Z</time>
  <course>10.88</course>
  <speed>0.022360679774997897</speed>
  <fix>3d</fix>
</trkpt>
<trkpt lat="-27.2744389" lon="151.290064">
  <ele>343.1</ele>
  <time>2026-09-01T19:54:18Z</time>
  <course>19.68</course>
  <speed>0.0</speed>
  <fix>3d</fix>
</trkpt>
<trkpt lat="-27.2744391" lon="151.2900641">
  <ele>343.11</ele>
  <time>2026-09-01T19:54:18Z</time>
  <course>10.88</course>
  <speed>0.022360679774997897</speed>
  <fix>3d</fix>
</trkpt>
<trkpt lat="-27.2744389" lon="151.290064">
  <ele>343.1</ele>
  <time>2026-09-01T19:54:18Z</time>
  <course>19.68</course>
  <speed>0.0</speed>
  <fix>3d</fix>
</trkpt>
<trkpt lat="-27.2744391" lon="151.2900641">
  <ele>343.11</ele>
  <time>2026-09-01T19:54:18Z</time>
  <course>10.88</course>
  <speed>0.022360679774997897</speed>
  <fix>3d</fix>
</trkpt>
<trkpt lat="-27.2744389" lon="151.290064">
  <ele>343.1</ele>
  <time>2026-09-01T19:54:18Z</time>
  <course>357.77</course>
  <speed>0.0</speed>
  <fix>3d</fix>
</trkpt>
<trkpt lat="-27.2744391" lon="151.2900641">
  <ele>343.1</ele>
  <time>2026-09-01T19:54:18Z</time>
  <course>10.88</course>
  <speed>0.022360679774997897</speed>
  <fix>3d</fix>
</trkpt>
<trkpt lat="-27.2744389" lon="151.290064">
  <ele>343.1</ele>
  <time>2026-09-01T19:54:18Z</time>
  <course>357.77</course>
  <speed>0.0</speed>
  <fix>3d</fix>
</trkpt>
<trkpt lat="-27.2744391" lon="151.2900641">
  <ele>343.1</ele>
  <time>2026-09-01T19:54:18Z</time>
  <course>10.88</course>
  <speed>0.022360679774997897</speed>
  <fix>3d</fix>
</trkpt>
<trkpt lat="-27.2744389" lon="151.290064">
  <ele>343.1</ele>
  <time>2026-09-01T19:54:18Z</time>
  <course>356.93</course>
  <speed>0.0</speed>
  <fix>3d</fix>
</trkpt>
<trkpt lat="-27.2744391" lon="151.2900641">
  <ele>343.1</ele>
  <time>2026-09-01T19:54:18Z</time>
  <course>10.88</course>
  <speed>0.022360679774997897</speed>
  <fix>3d</fix>
</trkpt>
<trkpt lat="-27.2744389" lon="151.290064">
  <ele>343.1</ele>
  <time>2026-09-01T19:54:18Z</time>
  <course>356.93</course>
  <speed>0.0</speed>
  <fix>3d</fix>
</trkpt>
<trkpt lat="-27.2744391" lon="151.2900641">
  <ele>343.1</ele>
  <time>2026-09-01T19:54:18Z</time>
  <course>10.88</course>
  <speed>0.022360679774997897</speed>
  <fix>3d</fix>
</trkpt>
<trkpt lat="-27.2744389" lon="151.290064">
  <ele>343.1</ele>
  <time>2026-09-01T19:54:18Z</time>
  <course>4.18</course>
  <speed>0.0</speed>
  <fix>3d</fix>
</trkpt>
<trkpt lat="-27.2744391" lon="151.2900641">
  <ele>343.1</ele>
  <time>2026-09-01T19:54:18Z</time>
  <course>10.88</course>
  <speed>0.022360679774997897</speed>
  <fix>3d</fix>
</trkpt>
<trkpt lat="-27.2744389" lon="151.290064">
  <ele>343.1</ele>
  <time>2026-09-01T19:54:18Z</time>
  <course>4.18</course>
  <speed>0.0</speed>
  <fix>3d</fix>
</trkpt>
<trkpt lat="-27.2744391" lon="151.2900641">
  <ele>343.1</ele>
  <time>2026-09-01T19:54:18Z</time>
  <course>10.88</course>
  <speed>0.022360679774997897</speed>
  <fix>3d</fix>
</trkpt>
<trkpt lat="-27.2744389" lon="151.290064">
  <ele>343.1</ele>
  <time>2026-09-01T19:54:18Z</time>
  <course>10.85</course>
  <speed>0.0</speed>
  <fix>3d</fix>
</trkpt>
<trkpt lat="-27.2744391" lon="151.2900641">
  <ele>343.1</ele>
  <time>2026-09-01T19:54:18Z</time>
  <course>10.89</course>
  <speed>0.022360679774997897</speed>
  <fix>3d</fix>
</trkpt>
<trkpt lat="-27.2744389" lon="151.290064">
  <ele>343.1</ele>
  <time>2026-09-01T19:54:18Z</time>
  <course>10.85</course>
  <speed>0.0</speed>
  <fix>3d</fix>
</trkpt>
<trkpt lat="-27.2744391" lon="151.2900641">
  <ele>343.1</ele>
  <time>2026-09-01T19:54:18Z</time>
  <course>10.89</course>
  <speed>0.022360679774997897</speed>
  <fix>3d</fix>
</trkpt>
<trkpt lat="-27.2744389" lon="151.290064">
  <ele>343.1</ele>
  <time>2026-09-01T19:54:18Z</time>
  <course>12.01</course>
  <speed>0.0</speed>
  <fix>3d</fix>
</trkpt>
<trkpt lat="-27.2744391" lon="151.2900641">
  <ele>343.1</ele>
  <time>2026-09-01T19:54:18Z</time>
  <course>10.89</course>
  <speed>0.022360679774997897</speed>
  <fix>3d</fix>
</trkpt>
<trkpt lat="-27.2744389" lon="151.290064">
  <ele>343.1</ele>
  <time>2026-09-01T19:54:18Z</time>
  <course>12.01</course>
  <speed>0.0</speed>
  <fix>3d</fix>
</trkpt>
<trkpt lat="-27.2744391" lon="151.2900641">
  <ele>343.11</ele>
  <time>2026-09-01T19:54:18Z</time>
  <course>10.89</course>
  <speed>0.022360679774997897</speed>
  <fix>3d</fix>
</trkpt>
<trkpt lat="-27.2744389" lon="151.290064">
  <ele>343.1</ele>
  <time>2026-09-01T19:54:18Z</time>
  <course>11.02</course>
  <speed>0.0</speed>
  <fix>3d</fix>
</trkpt>
<trkpt lat="-27.2744391" lon="151.2900641">
  <ele>343.11</ele>
  <time>2026-09-01T19:54:18Z</time>
  <course>10.89</course>
  <speed>0.022360679774997897</speed>
  <fix>3d</fix>
</trkpt>
<trkpt lat="-27.2744389" lon="151.290064">
  <ele>343.1</ele>
  <time>2026-09-01T19:54:18Z</time>
  <course>11.02</course>
  <speed>0.0</speed>
  <fix>3d</fix>
</trkpt>
<trkpt lat="-27.2744391" lon="151.2900641">
  <ele>343.11</ele>
  <time>2026-09-01T19:54:18Z</time>
  <course>10.89</course>
  <speed>0.022360679774997897</speed>
  <fix>3d</fix>
</trkpt>
<trkpt lat="-27.2744389" lon="151.290064">
  <ele>343.1</ele>
  <time>2026-09-01T19:54:18Z</time>
  <course>332.85</course>
  <speed>0.0</speed>
  <fix>3d</fix>
</trkpt>
<trkpt lat="-27.2744391" lon="151.2900641">
  <ele>343.11</ele>
  <time>2026-09-01T19:54:18Z</time>
  <course>10.89</course>
  <speed>0.022360679774997897</speed>
  <fix>3d</fix>
</trkpt>
<trkpt lat="-27.2744389" lon="151.290064">
  <ele>343.1</ele>
  <time>2026-09-01T19:54:18Z</time>
  <course>332.85</course>
  <speed>0.0</speed>
  <fix>3d</fix>
</trkpt>
<trkpt lat="-27.2744391" lon="151.2900641">
  <ele>343.11</ele>
  <time>2026-09-01T19:54:18Z</time>
  <course>10.89</course>
  <speed>0.022360679774997897</speed>
  <fix>3d</fix>
</trkpt>
<trkpt lat="-27.2744389" lon="151.290064">
  <ele>343.1</ele>
  <time>2026-09-01T19:54:18Z</time>
  <course>12.65</course>
  <speed>0.0</speed>
  <fix>3d</fix>
</trkpt>
<trkpt lat="-27.2744391" lon="151.2900641">
  <ele>343.12</ele>
  <time>2026-09-01T19:54:18Z</time>
  <course>10.89</course>
  <speed>0.022360679774997897</speed>
  <fix>3d</fix>
</trkpt>
<trkpt lat="-27.2744389" lon="151.290064">
  <ele>343.1</ele>
  <time>2026-09-01T19:54:18Z</time>
  <course>12.65</course>
  <speed>0.0</speed>
  <fix>3d</fix>
</trkpt>
<trkpt lat="-27.2744391" lon="151.2900641">
  <ele>343.12</ele>
  <time>2026-09-01T19:54:18Z</time>
  <course>10.89</course>
  <speed>0.022360679774997897</speed>
  <fix>3d</fix>
</trkpt>
<trkpt lat="-27.2744389" lon="151.290064">
  <ele>343.1</ele>
  <time>2026-09-01T19:54:18Z</time>
  <course>28.93</course>
  <speed>0.0</speed>
  <fix>3d</fix>
</trkpt>
<trkpt lat="-27.2744391" lon="151.2900641">
  <ele>343.12</ele>
  <time>2026-09-01T19:54:18Z</time>
  <course>10.89</course>
  <speed>0.022360679774997897</speed>
  <fix>3d</fix>
</trkpt>
<trkpt lat="-27.2744389" lon="151.290064">
  <ele>343.1</ele>
  <time>2026-09-01T19:54:18Z</time>
  <course>28.93</course>
  <speed>0.0</speed>
  <fix>3d</fix>
</trkpt>
<trkpt lat="-27.2744391" lon="151.2900641">
  <ele>343.12</ele>
  <time>2026-09-01T19:54:18Z</time>
  <course>10.89</course>
  <speed>0.022360679774997897</speed>
  <fix>3d</fix>
</trkpt>
<trkpt lat="-27.2744389" lon="151.290064">
  <ele>343.1</ele>
  <time>2026-09-01T19:54:18Z</time>
  <course>43.74</course>
  <speed>0.0</speed>
  <fix>3d</fix>
</trkpt>
<trkpt lat="-27.2744391" lon="151.2900641">
  <ele>343.12</ele>
  <time>2026-09-01T19:54:18Z</time>
  <course>10.89</course>
  <speed>0.022360679774997897</speed>
  <fix>3d</fix>
</trkpt>
<trkpt lat="-27.2744389" lon="151.290064">
  <ele>343.1</ele>
  <time>2026-09-01T19:54:18Z</time>
  <course>43.74</course>
  <speed>0.0</speed>
  <fix>3d</fix>
</trkpt>
<trkpt lat="-27.2744391" lon="151.2900641">
  <ele>343.12</ele>
  <time>2026-09-01T19:54:18Z</time>
  <course>10.9</course>
  <speed>0.022360679774997897</speed>
  <fix>3d</fix>
</trkpt>
<trkpt lat="-27.2744389" lon="151.290064">
  <ele>343.1</ele>
  <time>2026-09-01T19:54:18Z</time>
  <course>24.54</course>
  <speed>0.0</speed>
  <fix>3d</fix>
</trkpt>
<trkpt lat="-27.2744391" lon="151.2900641">
  <ele>343.12</ele>
  <time>2026-09-01T19:54:18Z</time>
  <course>10.9</course>
  <speed>0.022360679774997897</speed>
  <fix>3d</fix>
</trkpt>
<trkpt lat="-27.2744389" lon="151.290064">
  <ele>343.1</ele>
  <time>2026-09-01T19:54:18Z</time>
  <course>24.54</course>
  <speed>0.0</speed>
  <fix>3d</fix>
</trkpt>
<trkpt lat="-27.2744391" lon="151.2900641">
  <ele>343.12</ele>
  <time>2026-09-01T19:54:18Z</time>
  <course>10.9</course>
  <speed>0.022360679774997897</speed>
  <fix>3d</fix>
</trkpt>
<trkpt lat="-27.2744389" lon="151.290064">
  <ele>343.1</ele>
  <time>2026-09-01T19:54:18Z</time>
  <course>359.76</course>
  <speed>0.0</speed>
  <fix>3d</fix>
</trkpt>
<trkpt lat="-27.2744391" lon="151.2900641">
  <ele>343.12</ele>
  <time>2026-09-01T19:54:18Z</time>
  <course>10.9</course>
  <speed>0.022360679774997897</speed>
  <fix>3d</fix>
</trkpt>
<trkpt lat="-27.2744389" lon="151.290064">
  <ele>343.1</ele>
  <time>2026-09-01T19:54:18Z</time>
  <course>359.76</course>
  <speed>0.0</speed>
  <fix>3d</fix>
</trkpt>
<trkpt lat="-27.2744391" lon="151.2900641">
  <ele>343.12</ele>
  <time>2026-09-01T19:54:19Z</time>
  <course>10.9</course>
  <speed>0.022360679774997897</speed>
  <fix>3d</fix>
</trkpt>
<trkpt lat="-27.2744389" lon="151.290064">
  <ele>343.1</ele>
  <time>2026-09-01T19:54:19Z</time>
  <course>16.28</course>
  <speed>0.0</speed>
  <fix>3d</fix>
</trkpt>
<trkpt lat="-27.2744391" lon="151.2900641">
  <ele>343.12</ele>
  <time>2026-09-01T19:54:19Z</time>
  <course>10.9</course>
  <speed>0.022360679774997897</speed>
  <fix>3d</fix>
</trkpt>
<trkpt lat="-27.2744389" lon="151.290064">
  <ele>343.1</ele>
  <time>2026-09-01T19:54:19Z</time>
  <course>16.28</course>
  <speed>0.0</speed>
  <fix>3d</fix>
</trkpt>
<trkpt lat="-27.2744391" lon="151.2900641">
  <ele>343.12</ele>
  <time>2026-09-01T19:54:19Z</time>
  <course>10.9</course>
  <speed>0.022360679774997897</speed>
  <fix>3d</fix>
</trkpt>
<trkpt lat="-27.2744389" lon="151.290064">
  <ele>343.1</ele>
  <time>2026-09-01T19:54:19Z</time>
  <course>43.65</course>
  <speed>0.0</speed>
  <fix>3d</fix>
</trkpt>
<trkpt lat="-27.2744391" lon="151.2900641">
  <ele>343.12</ele>
  <time>2026-09-01T19:54:19Z</time>
  <course>10.9</course>
  <speed>0.022360679774997897</speed>
  <fix>3d</fix>
</trkpt>
<trkpt lat="-27.2744389" lon="151.290064">
  <ele>343.1</ele>
  <time>2026-09-01T19:54:19Z</time>
  <course>43.65</course>
  <speed>0.0</speed>
  <fix>3d</fix>
</trkpt>
<trkpt lat="-27.2744391" lon="151.2900641">
  <ele>343.12</ele>
  <time>2026-09-01T19:54:19Z</time>
  <course>10.9</course>
  <speed>0.022360679774997897</speed>
  <fix>3d</fix>
</trkpt>
<trkpt lat="-27.2744389" lon="151.290064">
  <ele>343.1</ele>
  <time>2026-09-01T19:54:19Z</time>
  <course>11.43</course>
  <speed>0.0</speed>
  <fix>3d</fix>
</trkpt>
<trkpt lat="-27.2744391" lon="151.2900641">
  <ele>343.13</ele>
  <time>2026-09-01T19:54:19Z</time>
  <course>10.9</course>
  <speed>0.022360679774997897</speed>
  <fix>3d</fix>
</trkpt>
<trkpt lat="-27.2744389" lon="151.290064">
  <ele>343.1</ele>
  <time>2026-09-01T19:54:19Z</time>
  <course>11.43</course>
  <speed>0.0</speed>
  <fix>3d</fix>
</trkpt>
<trkpt lat="-27.2744391" lon="151.2900641">
  <ele>343.13</ele>
  <time>2026-09-01T19:54:19Z</time>
  <course>10.9</course>
  <speed>0.022360679774997897</speed>
  <fix>3d</fix>
</trkpt>
<trkpt lat="-27.2744389" lon="151.290064">
  <ele>343.1</ele>
  <time>2026-09-01T19:54:19Z</time>
  <course>5.55</course>
  <speed>0.0</speed>
  <fix>3d</fix>
</trkpt>
<trkpt lat="-27.2744391" lon="151.2900641">
  <ele>343.12</ele>
  <time>2026-09-01T19:54:19Z</time>
  <course>10.9</course>
  <speed>0.022360679774997897</speed>
  <fix>3d</fix>
</trkpt>
<trkpt lat="-27.2744389" lon="151.290064">
  <ele>343.1</ele>
  <time>2026-09-01T19:54:19Z</time>
  <course>5.55</course>
  <speed>0.0</speed>
  <fix>3d</fix>
</trkpt>
<trkpt lat="-27.2744391" lon="151.2900641">
  <ele>343.13</ele>
  <time>2026-09-01T19:54:19Z</time>
  <course>10.9</course>
  <speed>0.022360679774997897</speed>
  <fix>3d</fix>
</trkpt>
<trkpt lat="-27.2744389" lon="151.290064">
  <ele>343.1</ele>
  <time>2026-09-01T19:54:19Z</time>
  <course>11.65</course>
  <speed>0.0</speed>
  <fix>3d</fix>
</trkpt>
<trkpt lat="-27.2744391" lon="151.2900641">
  <ele>343.13</ele>
  <time>2026-09-01T19:54:19Z</time>
  <course>10.91</course>
  <speed>0.022360679774997897</speed>
  <fix>3d</fix>
</trkpt>
<trkpt lat="-27.2744389" lon="151.290064">
  <ele>343.1</ele>
  <time>2026-09-01T19:54:19Z</time>
  <course>11.65</course>
  <speed>0.0</speed>
  <fix>3d</fix>
</trkpt>
<trkpt lat="-27.2744391" lon="151.2900641">
  <ele>343.13</ele>
  <time>2026-09-01T19:54:19Z</time>
  <course>10.91</course>
  <speed>0.022360679774997897</speed>
  <fix>3d</fix>
</trkpt>
<trkpt lat="-27.2744389" lon="151.290064">
  <ele>343.1</ele>
  <time>2026-09-01T19:54:19Z</time>
  <course>14.02</course>
  <speed>0.0</speed>
  <fix>3d</fix>
</trkpt>
<trkpt lat="-27.2744391" lon="151.2900641">
  <ele>343.13</ele>
  <time>2026-09-01T19:54:19Z</time>
  <course>10.91</course>
  <speed>0.022360679774997897</speed>
  <fix>3d</fix>
</trkpt>
<trkpt lat="-27.2744389" lon="151.290064">
  <ele>343.1</ele>
  <time>2026-09-01T19:54:19Z</time>
  <course>14.02</course>
  <speed>0.0</speed>
  <fix>3d</fix>
</trkpt>
<trkpt lat="-27.2744391" lon="151.2900641">
  <ele>343.12</ele>
  <time>2026-09-01T19:54:19Z</time>
  <course>10.91</course>
  <speed>0.022360679774997897</speed>
  <fix>3d</fix>
</trkpt>
<trkpt lat="-27.2744389" lon="151.290064">
  <ele>343.1</ele>
  <time>2026-09-01T19:54:19Z</time>
  <course>358.19</course>
  <speed>0.0</speed>
  <fix>3d</fix>
</trkpt>
<trkpt lat="-27.2744391" lon="151.2900641">
  <ele>343.12</ele>
  <time>2026-09-01T19:54:19Z</time>
  <course>10.91</course>
  <speed>0.022360679774997897</speed>
  <fix>3d</fix>
</trkpt>
<trkpt lat="-27.2744389" lon="151.290064">
  <ele>343.1</ele>
  <time>2026-09-01T19:54:19Z</time>
  <course>358.19</course>
  <speed>0.0</speed>
  <fix>3d</fix>
</trkpt>
<trkpt lat="-27.2744391" lon="151.2900641">
  <ele>343.12</ele>
  <time>2026-09-01T19:54:19Z</time>
  <course>10.91</course>
  <speed>0.022360679774997897</speed>
  <fix>3d</fix>
</trkpt>
<trkpt lat="-27.2744389" lon="151.290064">
  <ele>343.1</ele>
  <time>2026-09-01T19:54:19Z</time>
  <course>356.05</course>
  <speed>0.0</speed>
  <fix>3d</fix>
</trkpt>
<trkpt lat="-27.2744391" lon="151.2900641">
  <ele>343.12</ele>
  <time>2026-09-01T19:54:19Z</time>
  <course>10.91</course>
  <speed>0.022360679774997897</speed>
  <fix>3d</fix>
</trkpt>
<trkpt lat="-27.2744389" lon="151.290064">
  <ele>343.1</ele>
  <time>2026-09-01T19:54:19Z</time>
  <course>356.05</course>
  <speed>0.0</speed>
  <fix>3d</fix>
</trkpt>
<trkpt lat="-27.2744391" lon="151.2900641">
  <ele>343.13</ele>
  <time>2026-09-01T19:54:19Z</time>
  <course>10.91</course>
  <speed>0.022360679774997897</speed>
  <fix>3d</fix>
</trkpt>
<trkpt lat="-27.2744389" lon="151.290064">
  <ele>343.1</ele>
  <time>2026-09-01T19:54:19Z</time>
  <course>27.57</course>
  <speed>0.0</speed>
  <fix>3d</fix>
</trkpt>
<trkpt lat="-27.2744391" lon="151.2900641">
  <ele>343.13</ele>
  <time>2026-09-01T19:54:19Z</time>
  <course>10.91</course>
  <speed>0.022360679774997897</speed>
  <fix>3d</fix>
</trkpt>
<trkpt lat="-27.2744389" lon="151.290064">
  <ele>343.1</ele>
  <time>2026-09-01T19:54:19Z</time>
  <course>27.57</course>
  <speed>0.0</speed>
  <fix>3d</fix>
</trkpt>
<trkpt lat="-27.2744391" lon="151.2900641">
  <ele>343.13</ele>
  <time>2026-09-01T19:54:19Z</time>
  <course>10.91</course>
  <speed>0.022360679774997897</speed>
  <fix>3d</fix>
</trkpt>
<trkpt lat="-27.2744389" lon="151.290064">
  <ele>343.1</ele>
  <time>2026-09-01T19:54:19Z</time>
  <course>17.96</course>
  <speed>0.0</speed>
  <fix>3d</fix>
</trkpt>
<trkpt lat="-27.2744391" lon="151.2900641">
  <ele>343.13</ele>
  <time>2026-09-01T19:54:19Z</time>
  <course>10.91</course>
  <speed>0.022360679774997897</speed>
  <fix>3d</fix>
</trkpt>
<trkpt lat="-27.2744389" lon="151.290064">
  <ele>343.1</ele>
  <time>2026-09-01T19:54:19Z</time>
  <course>17.96</course>
  <speed>0.0</speed>
  <fix>3d</fix>
</trkpt>
<trkpt lat="-27.2744391" lon="151.2900641">
  <ele>343.14</ele>
  <time>2026-09-01T19:54:19Z</time>
  <course>10.91</course>
  <speed>0.022360679774997897</speed>
  <fix>3d</fix>
</trkpt>
<trkpt lat="-27.2744389" lon="151.290064">
  <ele>343.1</ele>
  <time>2026-09-01T19:54:19Z</time>
  <course>348.32</course>
  <speed>0.0</speed>
  <fix>3d</fix>
</trkpt>
<trkpt lat="-27.2744391" lon="151.2900641">
  <ele>343.14</ele>
  <time>2026-09-01T19:54:19Z</time>
  <course>10.92</course>
  <speed>0.022360679774997897</speed>
  <fix>3d</fix>
</trkpt>
<trkpt lat="-27.2744389" lon="151.290064">
  <ele>343.1</ele>
  <time>2026-09-01T19:54:19Z</time>
  <course>348.32</course>
  <speed>0.0</speed>
  <fix>3d</fix>
</trkpt>
<trkpt lat="-27.2744391" lon="151.2900641">
  <ele>343.1</ele>
  <time>2026-09-01T19:54:19Z</time>
  <course>10.92</course>
  <speed>0.022360679774997897</speed>
  <fix>3d</fix>
</trkpt>
<trkpt lat="-27.2744389" lon="151.290064">
  <ele>343.1</ele>
  <time>2026-09-01T19:54:19Z</time>
  <course>332.18</course>
  <speed>0.0</speed>
  <fix>3d</fix>
</trkpt>
<trkpt lat="-27.2744391" lon="151.2900641">
  <ele>343.1</ele>
  <time>2026-09-01T19:54:19Z</time>
  <course>10.92</course>
  <speed>0.022360679774997897</speed>
  <fix>3d</fix>
</trkpt>
<trkpt lat="-27.2744389" lon="151.290064">
  <ele>343.1</ele>
  <time>2026-09-01T19:54:19Z</time>
  <course>332.18</course>
  <speed>0.0</speed>
  <fix>3d</fix>
</trkpt>
<trkpt lat="-27.2744391" lon="151.2900641">
  <ele>343.1</ele>
  <time>2026-09-01T19:54:19Z</time>
  <course>10.92</course>
  <speed>0.022360679774997897</speed>
  <fix>3d</fix>
</trkpt>
<trkpt lat="-27.2744389" lon="151.290064">
  <ele>343.1</ele>
  <time>2026-09-01T19:54:19Z</time>
  <course>7.87</course>
  <speed>0.0</speed>
  <fix>3d</fix>
</trkpt>
<trkpt lat="-27.2744391" lon="151.2900641">
  <ele>343.1</ele>
  <time>2026-09-01T19:54:19Z</time>
  <course>10.92</course>
  <speed>0.022360679774997897</speed>
  <fix>3d</fix>
</trkpt>
<trkpt lat="-27.2744389" lon="151.290064">
  <ele>343.1</ele>
  <time>2026-09-01T19:54:19Z</time>
  <course>7.87</course>
  <speed>0.0</speed>
  <fix>3d</fix>
</trkpt>
<trkpt lat="-27.2744391" lon="151.2900641">
  <ele>343.1</ele>
  <time>2026-09-01T19:54:19Z</time>
  <course>10.92</course>
  <speed>0.022360679774997897</speed>
  <fix>3d</fix>
</trkpt>
<trkpt lat="-27.2744389" lon="151.290064">
  <ele>343.1</ele>
  <time>2026-09-01T19:54:19Z</time>
  <course>14.19</course>
  <speed>0.0</speed>
  <fix>3d</fix>
</trkpt>
<trkpt lat="-27.2744391" lon="151.2900641">
  <ele>343.1</ele>
  <time>2026-09-01T19:54:19Z</time>
  <course>10.92</course>
  <speed>0.022360679774997897</speed>
  <fix>3d</fix>
</trkpt>
<trkpt lat="-27.2744389" lon="151.290064">
  <ele>343.1</ele>
  <time>2026-09-01T19:54:19Z</time>
  <course>14.19</course>
  <speed>0.0</speed>
  <fix>3d</fix>
</trkpt>
<trkpt lat="-27.2744391" lon="151.2900641">
  <ele>343.1</ele>
  <time>2026-09-01T19:54:19Z</time>
  <course>10.92</course>
  <speed>0.022360679774997897</speed>
  <fix>3d</fix>
</trkpt>
<trkpt lat="-27.2744389" lon="151.290064">
  <ele>343.1</ele>
  <time>2026-09-01T19:54:19Z</time>
  <course>11.28</course>
  <speed>0.0</speed>
  <fix>3d</fix>
</trkpt>
<trkpt lat="-27.2744391" lon="151.2900641">
  <ele>343.1</ele>
  <time>2026-09-01T19:54:19Z</time>
  <course>10.92</course>
  <speed>0.022360679774997897</speed>
  <fix>3d</fix>
</trkpt>
<trkpt lat="-27.2744389" lon="151.290064">
  <ele>343.1</ele>
  <time>2026-09-01T19:54:19Z</time>
  <course>11.28</course>
  <speed>0.0</speed>
  <fix>3d</fix>
</trkpt>
<trkpt lat="-27.2744391" lon="151.2900641">
  <ele>343.11</ele>
  <time>2026-09-01T19:54:19Z</time>
  <course>10.92</course>
  <speed>0.022360679774997897</speed>
  <fix>3d</fix>
</trkpt>
<trkpt lat="-27.2744389" lon="151.290064">
  <ele>343.1</ele>
  <time>2026-09-01T19:54:19Z</time>
  <course>16.85</course>
  <speed>0.0</speed>
  <fix>3d</fix>
</trkpt>
<trkpt lat="-27.2744391" lon="151.2900641">
  <ele>343.11</ele>
  <time>2026-09-01T19:54:19Z</time>
  <course>10.92</course>
  <speed>0.022360679774997897</speed>
  <fix>3d</fix>
</trkpt>
<trkpt lat="-27.2744389" lon="151.290064">
  <ele>343.1</ele>
  <time>2026-09-01T19:54:19Z</time>
  <course>16.85</course>
  <speed>0.0</speed>
  <fix>3d</fix>
</trkpt>
<trkpt lat="-27.2744391" lon="151.2900641">
  <ele>343.11</ele>
  <time>2026-09-01T19:54:19Z</time>
  <course>10.92</course>
  <speed>0.022360679774997897</speed>
  <fix>3d</fix>
</trkpt>
<trkpt lat="-27.2744389" lon="151.290064">
  <ele>343.1</ele>
  <time>2026-09-01T19:54:19Z</time>
  <course>11.64</course>
  <speed>0.0</speed>
  <fix>3d</fix>
</trkpt>
<trkpt lat="-27.2744391" lon="151.2900641">
  <ele>343.11</ele>
  <time>2026-09-01T19:54:19Z</time>
  <course>10.93</course>
  <speed>0.022360679774997897</speed>
  <fix>3d</fix>
</trkpt>
<trkpt lat="-27.2744389" lon="151.290064">
  <ele>343.1</ele>
  <time>2026-09-01T19:54:19Z</time>
  <course>11.64</course>
  <speed>0.0</speed>
  <fix>3d</fix>
</trkpt>
<trkpt lat="-27.2744391" lon="151.2900641">
  <ele>343.11</ele>
  <time>2026-09-01T19:54:19Z</time>
  <course>10.93</course>
  <speed>0.022360679774997897</speed>
  <fix>3d</fix>
</trkpt>
<trkpt lat="-27.2744389" lon="151.290064">
  <ele>343.1</ele>
  <time>2026-09-01T19:54:19Z</time>
  <course>15.89</course>
  <speed>0.0</speed>
  <fix>3d</fix>
</trkpt>
<trkpt lat="-27.2744391" lon="151.2900641">
  <ele>343.11</ele>
  <time>2026-09-01T19:54:19Z</time>
  <course>10.93</course>
  <speed>0.022360679774997897</speed>
  <fix>3d</fix>
</trkpt>
<trkpt lat="-27.2744389" lon="151.290064">
  <ele>343.1</ele>
  <time>2026-09-01T19:54:19Z</time>
  <course>15.89</course>
  <speed>0.0</speed>
  <fix>3d</fix>
</trkpt>
<trkpt lat="-27.2744391" lon="151.2900641">
  <ele>343.11</ele>
  <time>2026-09-01T19:54:19Z</time>
  <course>10.93</course>
  <speed>0.022360679774997897</speed>
  <fix>3d</fix>
</trkpt>
<trkpt lat="-27.2744389" lon="151.290064">
  <ele>343.1</ele>
  <time>2026-09-01T19:54:19Z</time>
  <course>7.89</course>
  <speed>0.0</speed>
  <fix>3d</fix>
</trkpt>
<trkpt lat="-27.2744391" lon="151.2900641">
  <ele>343.11</ele>
  <time>2026-09-01T19:54:19Z</time>
  <course>10.93</course>
  <speed>0.022360679774997897</speed>
  <fix>3d</fix>
</trkpt>
<trkpt lat="-27.2744389" lon="151.290064">
  <ele>343.1</ele>
  <time>2026-09-01T19:54:19Z</time>
  <course>7.89</course>
  <speed>0.0</speed>
  <fix>3d</fix>
</trkpt>
<trkpt lat="-27.2744391" lon="151.2900641">
  <ele>343.11</ele>
  <time>2026-09-01T19:54:19Z</time>
  <course>10.93</course>
  <speed>0.022360679774997897</speed>
  <fix>3d</fix>
</trkpt>
<trkpt lat="-27.2744389" lon="151.290064">
  <ele>343.1</ele>
  <time>2026-09-01T19:54:19Z</time>
  <course>351.65</course>
  <speed>0.0</speed>
  <fix>3d</fix>
</trkpt>
<trkpt lat="-27.2744391" lon="151.2900641">
  <ele>343.11</ele>
  <time>2026-09-01T19:54:19Z</time>
  <course>10.93</course>
  <speed>0.022360679774997897</speed>
  <fix>3d</fix>
</trkpt>
<trkpt lat="-27.2744389" lon="151.290064">
  <ele>343.1</ele>
  <time>2026-09-01T19:54:19Z</time>
  <course>351.65</course>
  <speed>0.0</speed>
  <fix>3d</fix>
</trkpt>
<trkpt lat="-27.2744391" lon="151.2900641">
  <ele>343.11</ele>
  <time>2026-09-01T19:54:19Z</time>
  <course>10.93</course>
  <speed>0.022360679774997897</speed>
  <fix>3d</fix>
</trkpt>
<trkpt lat="-27.2744389" lon="151.290064">
  <ele>343.1</ele>
  <time>2026-09-01T19:54:19Z</time>
  <course>0.93</course>
  <speed>0.0</speed>
  <fix>3d</fix>
</trkpt>
<trkpt lat="-27.2744391" lon="151.2900641">
  <ele>343.11</ele>
  <time>2026-09-01T19:54:19Z</time>
  <course>10.93</course>
  <speed>0.022360679774997897</speed>
  <fix>3d</fix>
</trkpt>
<trkpt lat="-27.2744389" lon="151.290064">
  <ele>343.1</ele>
  <time>2026-09-01T19:54:19Z</time>
  <course>0.93</course>
  <speed>0.0</speed>
  <fix>3d</fix>
</trkpt>
<trkpt lat="-27.2744391" lon="151.2900641">
  <ele>343.11</ele>
  <time>2026-09-01T19:54:19Z</time>
  <course>10.93</course>
  <speed>0.022360679774997897</speed>
  <fix>3d</fix>
</trkpt>
<trkpt lat="-27.2744389" lon="151.290064">
  <ele>343.1</ele>
  <time>2026-09-01T19:54:19Z</time>
  <course>27.58</course>
  <speed>0.0</speed>
  <fix>3d</fix>
</trkpt>
<trkpt lat="-27.2744391" lon="151.2900641">
  <ele>343.11</ele>
  <time>2026-09-01T19:54:19Z</time>
  <course>10.93</course>
  <speed>0.022360679774997897</speed>
  <fix>3d</fix>
</trkpt>
<trkpt lat="-27.2744389" lon="151.290064">
  <ele>343.1</ele>
  <time>2026-09-01T19:54:19Z</time>
  <course>27.58</course>
  <speed>0.0</speed>
  <fix>3d</fix>
</trkpt>
<trkpt lat="-27.2744391" lon="151.2900641">
  <ele>343.11</ele>
  <time>2026-09-01T19:54:19Z</time>
  <course>10.93</course>
  <speed>0.022360679774997897</speed>
  <fix>3d</fix>
</trkpt>
<trkpt lat="-27.2744389" lon="151.290064">
  <ele>343.1</ele>
  <time>2026-09-01T19:54:19Z</time>
  <course>20.49</course>
  <speed>0.0</speed>
  <fix>3d</fix>
</trkpt>
<trkpt lat="-27.2744391" lon="151.2900641">
  <ele>343.1</ele>
  <time>2026-09-01T19:54:19Z</time>
  <course>10.94</course>
  <speed>0.022360679774997897</speed>
  <fix>3d</fix>
</trkpt>
<trkpt lat="-27.2744389" lon="151.290064">
  <ele>343.1</ele>
  <time>2026-09-01T19:54:19Z</time>
  <course>20.49</course>
  <speed>0.0</speed>
  <fix>3d</fix>
</trkpt>
<trkpt lat="-27.2744391" lon="151.2900641">
  <ele>343.1</ele>
  <time>2026-09-01T19:54:19Z</time>
  <course>10.94</course>
  <speed>0.022360679774997897</speed>
  <fix>3d</fix>
</trkpt>
<trkpt lat="-27.2744389" lon="151.290064">
  <ele>343.1</ele>
  <time>2026-09-01T19:54:19Z</time>
  <course>356.8</course>
  <speed>0.0</speed>
  <fix>3d</fix>
</trkpt>
<trkpt lat="-27.2744391" lon="151.2900641">
  <ele>343.1</ele>
  <time>2026-09-01T19:54:19Z</time>
  <course>10.94</course>
  <speed>0.022360679774997897</speed>
  <fix>3d</fix>
</trkpt>
<trkpt lat="-27.2744389" lon="151.290064">
  <ele>343.1</ele>
  <time>2026-09-01T19:54:19Z</time>
  <course>356.8</course>
  <speed>0.0</speed>
  <fix>3d</fix>
</trkpt>
<trkpt lat="-27.2744391" lon="151.2900641">
  <ele>343.1</ele>
  <time>2026-09-01T19:54:19Z</time>
  <course>10.94</course>
  <speed>0.022360679774997897</speed>
  <fix>3d</fix>
</trkpt>
<trkpt lat="-27.2744389" lon="151.290064">
  <ele>343.1</ele>
  <time>2026-09-01T19:54:19Z</time>
  <course>4.4</course>
  <speed>0.0</speed>
  <fix>3d</fix>
</trkpt>
<trkpt lat="-27.2744391" lon="151.2900641">
  <ele>343.09</ele>
  <time>2026-09-01T19:54:19Z</time>
  <course>10.94</course>
  <speed>0.022360679774997897</speed>
  <fix>3d</fix>
</trkpt>
<trkpt lat="-27.2744389" lon="151.290064">
  <ele>343.1</ele>
  <time>2026-09-01T19:54:19Z</time>
  <course>4.4</course>
  <speed>0.0</speed>
  <fix>3d</fix>
</trkpt>
<trkpt lat="-27.2744391" lon="151.2900641">
  <ele>343.09</ele>
  <time>2026-09-01T19:54:19Z</time>
  <course>10.94</course>
  <speed>0.022360679774997897</speed>
  <fix>3d</fix>
</trkpt>
<trkpt lat="-27.2744389" lon="151.290064">
  <ele>343.1</ele>
  <time>2026-09-01T19:54:19Z</time>
  <course>17.53</course>
  <speed>0.0</speed>
  <fix>3d</fix>
</trkpt>
<trkpt lat="-27.2744391" lon="151.2900641">
  <ele>343.09</ele>
  <time>2026-09-01T19:54:19Z</time>
  <course>10.94</course>
  <speed>0.022360679774997897</speed>
  <fix>3d</fix>
</trkpt>
<trkpt lat="-27.2744389" lon="151.290064">
  <ele>343.1</ele>
  <time>2026-09-01T19:54:19Z</time>
  <course>17.53</course>
  <speed>0.0</speed>
  <fix>3d</fix>
</trkpt>
<trkpt lat="-27.2744391" lon="151.2900641">
  <ele>343.09</ele>
  <time>2026-09-01T19:54:19Z</time>
  <course>10.94</course>
  <speed>0.022360679774997897</speed>
  <fix>3d</fix>
</trkpt>
<trkpt lat="-27.2744389" lon="151.290064">
  <ele>343.1</ele>
  <time>2026-09-01T19:54:19Z</time>
  <course>11.37</course>
  <speed>0.0</speed>
  <fix>3d</fix>
</trkpt>
<trkpt lat="-27.2744391" lon="151.2900641">
  <ele>343.09</ele>
  <time>2026-09-01T19:54:19Z</time>
  <course>10.94</course>
  <speed>0.022360679774997897</speed>
  <fix>3d</fix>
</trkpt>
<trkpt lat="-27.2744389" lon="151.290064">
  <ele>343.1</ele>
  <time>2026-09-01T19:54:19Z</time>
  <course>11.37</course>
  <speed>0.0</speed>
  <fix>3d</fix>
</trkpt>
<trkpt lat="-27.2744391" lon="151.2900641">
  <ele>343.09</ele>
  <time>2026-09-01T19:54:19Z</time>
  <course>10.94</course>
  <speed>0.022360679774997897</speed>
  <fix>3d</fix>
</trkpt>
<trkpt lat="-27.2744389" lon="151.290064">
  <ele>343.1</ele>
  <time>2026-09-01T19:54:19Z</time>
  <course>16.76</course>
  <speed>0.0</speed>
  <fix>3d</fix>
</trkpt>
<trkpt lat="-27.2744391" lon="151.2900641">
  <ele>343.09</ele>
  <time>2026-09-01T19:54:19Z</time>
  <course>10.94</course>
  <speed>0.022360679774997897</speed>
  <fix>3d</fix>
</trkpt>
<trkpt lat="-27.2744389" lon="151.290064">
  <ele>343.1</ele>
  <time>2026-09-01T19:54:19Z</time>
  <course>16.76</course>
  <speed>0.0</speed>
  <fix>3d</fix>
</trkpt>
<trkpt lat="-27.2744391" lon="151.2900641">
  <ele>343.09</ele>
  <time>2026-09-01T19:54:19Z</time>
  <course>10.94</course>
  <speed>0.022360679774997897</speed>
  <fix>3d</fix>
</trkpt>
<trkpt lat="-27.2744389" lon="151.290064">
  <ele>343.1</ele>
  <time>2026-09-01T19:54:19Z</time>
  <course>8.66</course>
  <speed>0.0</speed>
  <fix>3d</fix>
</trkpt>
<trkpt lat="-27.2744391" lon="151.2900641">
  <ele>343.08</ele>
  <time>2026-09-01T19:54:19Z</time>
  <course>10.95</course>
  <speed>0.022360679774997897</speed>
  <fix>3d</fix>
</trkpt>
<trkpt lat="-27.2744389" lon="151.290064">
  <ele>343.1</ele>
  <time>2026-09-01T19:54:19Z</time>
  <course>8.66</course>
  <speed>0.0</speed>
  <fix>3d</fix>
</trkpt>
<trkpt lat="-27.2744391" lon="151.2900641">
  <ele>343.08</ele>
  <time>2026-09-01T19:54:19Z</time>
  <course>10.95</course>
  <speed>0.022360679774997897</speed>
  <fix>3d</fix>
</trkpt>
<trkpt lat="-27.2744389" lon="151.290064">
  <ele>343.1</ele>
  <time>2026-09-01T19:54:19Z</time>
  <course>23.63</course>
  <speed>0.0</speed>
  <fix>3d</fix>
</trkpt>
<trkpt lat="-27.2744391" lon="151.2900641">
  <ele>343.08</ele>
  <time>2026-09-01T19:54:19Z</time>
  <course>10.95</course>
  <speed>0.022360679774997897</speed>
  <fix>3d</fix>
</trkpt>
<trkpt lat="-27.2744389" lon="151.290064">
  <ele>343.1</ele>
  <time>2026-09-01T19:54:19Z</time>
  <course>23.63</course>
  <speed>0.0</speed>
  <fix>3d</fix>
</trkpt>
<trkpt lat="-27.2744391" lon="151.2900641">
  <ele>343.09</ele>
  <time>2026-09-01T19:54:19Z</time>
  <course>10.95</course>
  <speed>0.022360679774997897</speed>
  <fix>3d</fix>
</trkpt>
<trkpt lat="-27.2744389" lon="151.290064">
  <ele>343.1</ele>
  <time>2026-09-01T19:54:19Z</time>
  <course>23.84</course>
  <speed>0.0</speed>
  <fix>3d</fix>
</trkpt>
<trkpt lat="-27.2744391" lon="151.2900641">
  <ele>343.09</ele>
  <time>2026-09-01T19:54:19Z</time>
  <course>10.95</course>
  <speed>0.022360679774997897</speed>
  <fix>3d</fix>
</trkpt>
<trkpt lat="-27.2744389" lon="151.290064">
  <ele>343.1</ele>
  <time>2026-09-01T19:54:19Z</time>
  <course>23.84</course>
  <speed>0.0</speed>
  <fix>3d</fix>
</trkpt>
<trkpt lat="-27.2744391" lon="151.2900641">
  <ele>343.09</ele>
  <time>2026-09-01T19:54:19Z</time>
  <course>10.95</course>
  <speed>0.022360679774997897</speed>
  <fix>3d</fix>
</trkpt>
<trkpt lat="-27.2744389" lon="151.290064">
  <ele>343.1</ele>
  <time>2026-09-01T19:54:19Z</time>
  <course>351.9</course>
  <speed>0.0</speed>
  <fix>3d</fix>
</trkpt>
<trkpt lat="-27.2744391" lon="151.2900641">
  <ele>343.09</ele>
  <time>2026-09-01T19:54:19Z</time>
  <course>10.95</course>
  <speed>0.022360679774997897</speed>
  <fix>3d</fix>
</trkpt>
<trkpt lat="-27.2744389" lon="151.290064">
  <ele>343.1</ele>
  <time>2026-09-01T19:54:19Z</time>
  <course>351.9</course>
  <speed>0.0</speed>
  <fix>3d</fix>
</trkpt>
<trkpt lat="-27.2744391" lon="151.2900641">
  <ele>343.09</ele>
  <time>2026-09-01T19:54:19Z</time>
  <course>10.95</course>
  <speed>0.022360679774997897</speed>
  <fix>3d</fix>
</trkpt>
<trkpt lat="-27.2744389" lon="151.290064">
  <ele>343.1</ele>
  <time>2026-09-01T19:54:19Z</time>
  <course>13.61</course>
  <speed>0.0</speed>
  <fix>3d</fix>
</trkpt>
<trkpt lat="-27.2744391" lon="151.2900641">
  <ele>343.09</ele>
  <time>2026-09-01T19:54:19Z</time>
  <course>10.95</course>
  <speed>0.022360679774997897</speed>
  <fix>3d</fix>
</trkpt>
<trkpt lat="-27.2744389" lon="151.290064">
  <ele>343.1</ele>
  <time>2026-09-01T19:54:19Z</time>
  <course>13.61</course>
  <speed>0.0</speed>
  <fix>3d</fix>
</trkpt>
<trkpt lat="-27.2744391" lon="151.2900641">
  <ele>343.09</ele>
  <time>2026-09-01T19:54:19Z</time>
  <course>10.95</course>
  <speed>0.022360679774997897</speed>
  <fix>3d</fix>
</trkpt>
<trkpt lat="-27.2744389" lon="151.290064">
  <ele>343.1</ele>
  <time>2026-09-01T19:54:19Z</time>
  <course>29.35</course>
  <speed>0.0</speed>
  <fix>3d</fix>
</trkpt>
<trkpt lat="-27.2744391" lon="151.2900641">
  <ele>343.09</ele>
  <time>2026-09-01T19:54:19Z</time>
  <course>10.95</course>
  <speed>0.022360679774997897</speed>
  <fix>3d</fix>
</trkpt>
<trkpt lat="-27.2744389" lon="151.290064">
  <ele>343.1</ele>
  <time>2026-09-01T19:54:19Z</time>
  <course>29.35</course>
  <speed>0.0</speed>
  <fix>3d</fix>
</trkpt>
<trkpt lat="-27.2744391" lon="151.2900641">
  <ele>343.09</ele>
  <time>2026-09-01T19:54:19Z</time>
  <course>10.96</course>
  <speed>0.022360679774997897</speed>
  <fix>3d</fix>
</trkpt>
<trkpt lat="-27.2744389" lon="151.290064">
  <ele>343.1</ele>
  <time>2026-09-01T19:54:19Z</time>
  <course>358.36</course>
  <speed>0.0</speed>
  <fix>3d</fix>
</trkpt>
<trkpt lat="-27.2744391" lon="151.2900641">
  <ele>343.09</ele>
  <time>2026-09-01T19:54:19Z</time>
  <course>10.96</course>
  <speed>0.022360679774997897</speed>
  <fix>3d</fix>
</trkpt>
<trkpt lat="-27.2744389" lon="151.290064">
  <ele>343.1</ele>
  <time>2026-09-01T19:54:19Z</time>
  <course>358.36</course>
  <speed>0.0</speed>
  <fix>3d</fix>
</trkpt>
<trkpt lat="-27.2744391" lon="151.2900641">
  <ele>343.09</ele>
  <time>2026-09-01T19:54:19Z</time>
  <course>10.96</course>
  <speed>0.022360679774997897</speed>
  <fix>3d</fix>
</trkpt>
<trkpt lat="-27.2744389" lon="151.290064">
  <ele>343.1</ele>
  <time>2026-09-01T19:54:19Z</time>
  <course>342.95</course>
  <speed>0.0</speed>
  <fix>3d</fix>
</trkpt>
<trkpt lat="-27.2744391" lon="151.2900641">
  <ele>343.09</ele>
  <time>2026-09-01T19:54:19Z</time>
  <course>10.96</course>
  <speed>0.022360679774997897</speed>
  <fix>3d</fix>
</trkpt>
<trkpt lat="-27.2744389" lon="151.290064">
  <ele>343.1</ele>
  <time>2026-09-01T19:54:19Z</time>
  <course>342.95</course>
  <speed>0.0</speed>
  <fix>3d</fix>
</trkpt>
<trkpt lat="-27.2744391" lon="151.2900641">
  <ele>343.1</ele>
  <time>2026-09-01T19:54:19Z</time>
  <course>10.96</course>
  <speed>0.022360679774997897</speed>
  <fix>3d</fix>
</trkpt>
<trkpt lat="-27.2744389" lon="151.290064">
  <ele>343.1</ele>
  <time>2026-09-01T19:54:19Z</time>
  <course>27.8</course>
  <speed>0.0</speed>
  <fix>3d</fix>
</trkpt>
<trkpt lat="-27.2744391" lon="151.2900641">
  <ele>343.1</ele>
  <time>2026-09-01T19:54:19Z</time>
  <course>10.96</course>
  <speed>0.022360679774997897</speed>
  <fix>3d</fix>
</trkpt>
<trkpt lat="-27.2744389" lon="151.290064">
  <ele>343.1</ele>
  <time>2026-09-01T19:54:19Z</time>
  <course>27.8</course>
  <speed>0.0</speed>
  <fix>3d</fix>
</trkpt>
<trkpt lat="-27.2744391" lon="151.2900641">
  <ele>343.1</ele>
  <time>2026-09-01T19:54:19Z</time>
  <course>10.96</course>
  <speed>0.022360679774997897</speed>
  <fix>3d</fix>
</trkpt>
<trkpt lat="-27.2744389" lon="151.290064">
  <ele>343.1</ele>
  <time>2026-09-01T19:54:19Z</time>
  <course>11.71</course>
  <speed>0.0</speed>
  <fix>3d</fix>
</trkpt>
<trkpt lat="-27.2744391" lon="151.2900641">
  <ele>343.1</ele>
  <time>2026-09-01T19:54:19Z</time>
  <course>10.96</course>
  <speed>0.022360679774997897</speed>
  <fix>3d</fix>
</trkpt>
<trkpt lat="-27.2744389" lon="151.290064">
  <ele>343.1</ele>
  <time>2026-09-01T19:54:19Z</time>
  <course>11.71</course>
  <speed>0.0</speed>
  <fix>3d</fix>
</trkpt>
<trkpt lat="-27.2744391" lon="151.2900641">
  <ele>343.1</ele>
  <time>2026-09-01T19:54:19Z</time>
  <course>10.96</course>
  <speed>0.022360679774997897</speed>
  <fix>3d</fix>
</trkpt>
<trkpt lat="-27.2744389" lon="151.290064">
  <ele>343.1</ele>
  <time>2026-09-01T19:54:19Z</time>
  <course>335.39</course>
  <speed>0.0</speed>
  <fix>3d</fix>
</trkpt>
<trkpt lat="-27.2744391" lon="151.2900641">
  <ele>343.1</ele>
  <time>2026-09-01T19:54:19Z</time>
  <course>10.96</course>
  <speed>0.022360679774997897</speed>
  <fix>3d</fix>
</trkpt>
<trkpt lat="-27.2744389" lon="151.290064">
  <ele>343.1</ele>
  <time>2026-09-01T19:54:19Z</time>
  <course>335.39</course>
  <speed>0.0</speed>
  <fix>3d</fix>
</trkpt>
<trkpt lat="-27.2744391" lon="151.2900641">
  <ele>343.1</ele>
  <time>2026-09-01T19:54:19Z</time>
  <course>10.96</course>
  <speed>0.022360679774997897</speed>
  <fix>3d</fix>
</trkpt>
<trkpt lat="-27.2744389" lon="151.290064">
  <ele>343.1</ele>
  <time>2026-09-01T19:54:19Z</time>
  <course>340.35</course>
  <speed>0.0</speed>
  <fix>3d</fix>
</trkpt>
<trkpt lat="-27.2744391" lon="151.2900641">
  <ele>343.09</ele>
  <time>2026-09-01T19:54:19Z</time>
  <course>10.96</course>
  <speed>0.022360679774997897</speed>
  <fix>3d</fix>
</trkpt>
<trkpt lat="-27.2744389" lon="151.290064">
  <ele>343.1</ele>
  <time>2026-09-01T19:54:19Z</time>
  <course>340.35</course>
  <speed>0.0</speed>
  <fix>3d</fix>
</trkpt>
<trkpt lat="-27.2744391" lon="151.2900641">
  <ele>343.09</ele>
  <time>2026-09-01T19:54:19Z</time>
  <course>10.97</course>
  <speed>0.022360679774997897</speed>
  <fix>3d</fix>
</trkpt>
<trkpt lat="-27.2744389" lon="151.290064">
  <ele>343.1</ele>
  <time>2026-09-01T19:54:19Z</time>
  <course>1.9</course>
  <speed>0.0</speed>
  <fix>3d</fix>
</trkpt>
<trkpt lat="-27.2744391" lon="151.2900641">
  <ele>343.09</ele>
  <time>2026-09-01T19:54:19Z</time>
  <course>10.97</course>
  <speed>0.022360679774997897</speed>
  <fix>3d</fix>
</trkpt>
<trkpt lat="-27.2744389" lon="151.290064">
  <ele>343.1</ele>
  <time>2026-09-01T19:54:19Z</time>
  <course>1.9</course>
  <speed>0.0</speed>
  <fix>3d</fix>
</trkpt>
<trkpt lat="-27.2744391" lon="151.2900641">
  <ele>343.09</ele>
  <time>2026-09-01T19:54:19Z</time>
  <course>10.97</course>
  <speed>0.022360679774997897</speed>
  <fix>3d</fix>
</trkpt>
<trkpt lat="-27.2744389" lon="151.290064">
  <ele>343.1</ele>
  <time>2026-09-01T19:54:19Z</time>
  <course>17.23</course>
  <speed>0.0</speed>
  <fix>3d</fix>
</trkpt>
<trkpt lat="-27.2744391" lon="151.2900641">
  <ele>343.1</ele>
  <time>2026-09-01T19:54:19Z</time>
  <course>10.97</course>
  <speed>0.022360679774997897</speed>
  <fix>3d</fix>
</trkpt>
<trkpt lat="-27.2744389" lon="151.290064">
  <ele>343.1</ele>
  <time>2026-09-01T19:54:19Z</time>
  <course>17.23</course>
  <speed>0.0</speed>
  <fix>3d</fix>
</trkpt>
<trkpt lat="-27.2744391" lon="151.2900641">
  <ele>343.09</ele>
  <time>2026-09-01T19:54:19Z</time>
  <course>10.97</course>
  <speed>0.022360679774997897</speed>
  <fix>3d</fix>
</trkpt>
<trkpt lat="-27.2744389" lon="151.290064">
  <ele>343.1</ele>
  <time>2026-09-01T19:54:19Z</time>
  <course>22.49</course>
  <speed>0.0</speed>
  <fix>3d</fix>
</trkpt>
<trkpt lat="-27.2744391" lon="151.2900641">
  <ele>343.09</ele>
  <time>2026-09-01T19:54:19Z</time>
  <course>10.97</course>
  <speed>0.022360679774997897</speed>
  <fix>3d</fix>
</trkpt>
<trkpt lat="-27.2744389" lon="151.290064">
  <ele>343.1</ele>
  <time>2026-09-01T19:54:19Z</time>
  <course>22.49</course>
  <speed>0.0</speed>
  <fix>3d</fix>
</trkpt>
<trkpt lat="-27.2744391" lon="151.2900641">
  <ele>343.09</ele>
  <time>2026-09-01T19:54:19Z</time>
  <course>10.97</course>
  <speed>0.022360679774997897</speed>
  <fix>3d</fix>
</trkpt>
<trkpt lat="-27.2744389" lon="151.290064">
  <ele>343.1</ele>
  <time>2026-09-01T19:54:19Z</time>
  <course>354.4</course>
  <speed>0.0</speed>
  <fix>3d</fix>
</trkpt>
<trkpt lat="-27.2744391" lon="151.2900641">
  <ele>343.09</ele>
  <time>2026-09-01T19:54:19Z</time>
  <course>10.97</course>
  <speed>0.022360679774997897</speed>
  <fix>3d</fix>
</trkpt>
<trkpt lat="-27.2744389" lon="151.290064">
  <ele>343.1</ele>
  <time>2026-09-01T19:54:19Z</time>
  <course>354.4</course>
  <speed>0.0</speed>
  <fix>3d</fix>
</trkpt>
<trkpt lat="-27.2744391" lon="151.2900641">
  <ele>343.09</ele>
  <time>2026-09-01T19:54:19Z</time>
  <course>10.97</course>
  <speed>0.022360679774997897</speed>
  <fix>3d</fix>
</trkpt>
<trkpt lat="-27.2744389" lon="151.290064">
  <ele>343.1</ele>
  <time>2026-09-01T19:54:19Z</time>
  <course>0.28</course>
  <speed>0.0</speed>
  <fix>3d</fix>
</trkpt>
<trkpt lat="-27.2744391" lon="151.2900641">
  <ele>343.09</ele>
  <time>2026-09-01T19:54:19Z</time>
  <course>10.97</course>
  <speed>0.022360679774997897</speed>
  <fix>3d</fix>
</trkpt>
<trkpt lat="-27.2744389" lon="151.290064">
  <ele>343.1</ele>
  <time>2026-09-01T19:54:19Z</time>
  <course>0.28</course>
  <speed>0.0</speed>
  <fix>3d</fix>
</trkpt>
<trkpt lat="-27.2744391" lon="151.2900641">
  <ele>343.09</ele>
  <time>2026-09-01T19:54:19Z</time>
  <course>10.97</course>
  <speed>0.022360679774997897</speed>
  <fix>3d</fix>
</trkpt>
<trkpt lat="-27.2744389" lon="151.290064">
  <ele>343.1</ele>
  <time>2026-09-01T19:54:19Z</time>
  <course>358.18</course>
  <speed>0.0</speed>
  <fix>3d</fix>
</trkpt>
<trkpt lat="-27.2744391" lon="151.2900641">
  <ele>343.09</ele>
  <time>2026-09-01T19:54:19Z</time>
  <course>10.98</course>
  <speed>0.022360679774997897</speed>
  <fix>3d</fix>
</trkpt>
<trkpt lat="-27.2744389" lon="151.290064">
  <ele>343.1</ele>
  <time>2026-09-01T19:54:19Z</time>
  <course>358.18</course>
  <speed>0.0</speed>
  <fix>3d</fix>
</trkpt>
<trkpt lat="-27.2744391" lon="151.2900641">
  <ele>343.08</ele>
  <time>2026-09-01T19:54:19Z</time>
  <course>10.98</course>
  <speed>0.022360679774997897</speed>
  <fix>3d</fix>
</trkpt>
<trkpt lat="-27.2744389" lon="151.290064">
  <ele>343.1</ele>
  <time>2026-09-01T19:54:19Z</time>
  <course>349.48</course>
  <speed>0.0</speed>
  <fix>3d</fix>
</trkpt>
<trkpt lat="-27.2744391" lon="151.2900641">
  <ele>343.08</ele>
  <time>2026-09-01T19:54:19Z</time>
  <course>10.98</course>
  <speed>0.022360679774997897</speed>
  <fix>3d</fix>
</trkpt>
<trkpt lat="-27.2744389" lon="151.290064">
  <ele>343.1</ele>
  <time>2026-09-01T19:54:19Z</time>
  <course>349.48</course>
  <speed>0.0</speed>
  <fix>3d</fix>
</trkpt>
<trkpt lat="-27.2744391" lon="151.2900641">
  <ele>343.08</ele>
  <time>2026-09-01T19:54:19Z</time>
  <course>10.98</course>
  <speed>0.022360679774997897</speed>
  <fix>3d</fix>
</trkpt>
<trkpt lat="-27.2744389" lon="151.290064">
  <ele>343.1</ele>
  <time>2026-09-01T19:54:19Z</time>
  <course>3.13</course>
  <speed>0.0</speed>
  <fix>3d</fix>
</trkpt>
<trkpt lat="-27.2744391" lon="151.2900641">
  <ele>343.08</ele>
  <time>2026-09-01T19:54:19Z</time>
  <course>10.98</course>
  <speed>0.022360679774997897</speed>
  <fix>3d</fix>
</trkpt>
<trkpt lat="-27.2744389" lon="151.290064">
  <ele>343.1</ele>
  <time>2026-09-01T19:54:19Z</time>
  <course>3.13</course>
  <speed>0.0</speed>
  <fix>3d</fix>
</trkpt>
<trkpt lat="-27.2744391" lon="151.2900641">
  <ele>343.08</ele>
  <time>2026-09-01T19:54:19Z</time>
  <course>10.98</course>
  <speed>0.022360679774997897</speed>
  <fix>3d</fix>
</trkpt>
<trkpt lat="-27.2744389" lon="151.290064">
  <ele>343.1</ele>
  <time>2026-09-01T19:54:19Z</time>
  <course>13.95</course>
  <speed>0.0</speed>
  <fix>3d</fix>
</trkpt>
<trkpt lat="-27.2744391" lon="151.2900641">
  <ele>343.08</ele>
  <time>2026-09-01T19:54:19Z</time>
  <course>10.98</course>
  <speed>0.022360679774997897</speed>
  <fix>3d</fix>
</trkpt>
<trkpt lat="-27.2744389" lon="151.290064">
  <ele>343.1</ele>
  <time>2026-09-01T19:54:19Z</time>
  <course>13.95</course>
  <speed>0.0</speed>
  <fix>3d</fix>
</trkpt>
<trkpt lat="-27.2744391" lon="151.2900641">
  <ele>343.07</ele>
  <time>2026-09-01T19:54:19Z</time>
  <course>10.98</course>
  <speed>0.022360679774997897</speed>
  <fix>3d</fix>
</trkpt>
<trkpt lat="-27.2744389" lon="151.290064">
  <ele>343.1</ele>
  <time>2026-09-01T19:54:19Z</time>
  <course>7.9</course>
  <speed>0.0</speed>
  <fix>3d</fix>
</trkpt>
<trkpt lat="-27.2744391" lon="151.2900641">
  <ele>343.07</ele>
  <time>2026-09-01T19:54:19Z</time>
  <course>10.98</course>
  <speed>0.022360679774997897</speed>
  <fix>3d</fix>
</trkpt>
<trkpt lat="-27.2744389" lon="151.290064">
  <ele>343.1</ele>
  <time>2026-09-01T19:54:19Z</time>
  <course>7.9</course>
  <speed>0.0</speed>
  <fix>3d</fix>
</trkpt>
<trkpt lat="-27.2744391" lon="151.2900641">
  <ele>343.07</ele>
  <time>2026-09-01T19:54:19Z</time>
  <course>10.98</course>
  <speed>0.022360679774997897</speed>
  <fix>3d</fix>
</trkpt>
<trkpt lat="-27.2744389" lon="151.290064">
  <ele>343.1</ele>
  <time>2026-09-01T19:54:19Z</time>
  <course>13.8</course>
  <speed>0.0</speed>
  <fix>3d</fix>
</trkpt>
<trkpt lat="-27.2744391" lon="151.2900641">
  <ele>343.07</ele>
  <time>2026-09-01T19:54:19Z</time>
  <course>10.98</course>
  <speed>0.022360679774997897</speed>
  <fix>3d</fix>
</trkpt>
<trkpt lat="-27.2744389" lon="151.290064">
  <ele>343.1</ele>
  <time>2026-09-01T19:54:19Z</time>
  <course>13.8</course>
  <speed>0.0</speed>
  <fix>3d</fix>
</trkpt>
<trkpt lat="-27.2744391" lon="151.2900641">
  <ele>343.07</ele>
  <time>2026-09-01T19:54:19Z</time>
  <course>10.99</course>
  <speed>0.022360679774997897</speed>
  <fix>3d</fix>
</trkpt>
<trkpt lat="-27.2744389" lon="151.290064">
  <ele>343.1</ele>
  <time>2026-09-01T19:54:19Z</time>
  <course>11.04</course>
  <speed>0.0</speed>
  <fix>3d</fix>
</trkpt>
<trkpt lat="-27.2744391" lon="151.2900641">
  <ele>343.07</ele>
  <time>2026-09-01T19:54:19Z</time>
  <course>10.99</course>
  <speed>0.022360679774997897</speed>
  <fix>3d</fix>
</trkpt>
<trkpt lat="-27.2744389" lon="151.290064">
  <ele>343.1</ele>
  <time>2026-09-01T19:54:19Z</time>
  <course>11.04</course>
  <speed>0.0</speed>
  <fix>3d</fix>
</trkpt>
<trkpt lat="-27.2744391" lon="151.2900641">
  <ele>343.07</ele>
  <time>2026-09-01T19:54:19Z</time>
  <course>10.99</course>
  <speed>0.022360679774997897</speed>
  <fix>3d</fix>
</trkpt>
<trkpt lat="-27.2744389" lon="151.290064">
  <ele>343.1</ele>
  <time>2026-09-01T19:54:19Z</time>
  <course>18.42</course>
  <speed>0.0</speed>
  <fix>3d</fix>
</trkpt>
<trkpt lat="-27.2744391" lon="151.2900641">
  <ele>343.07</ele>
  <time>2026-09-01T19:54:19Z</time>
  <course>10.99</course>
  <speed>0.022360679774997897</speed>
  <fix>3d</fix>
</trkpt>
<trkpt lat="-27.2744389" lon="151.290064">
  <ele>343.1</ele>
  <time>2026-09-01T19:54:19Z</time>
  <course>18.42</course>
  <speed>0.0</speed>
  <fix>3d</fix>
</trkpt>
<trkpt lat="-27.2744391" lon="151.2900641">
  <ele>343.07</ele>
  <time>2026-09-01T19:54:19Z</time>
  <course>10.99</course>
  <speed>0.022360679774997897</speed>
  <fix>3d</fix>
</trkpt>
<trkpt lat="-27.2744389" lon="151.290064">
  <ele>343.1</ele>
  <time>2026-09-01T19:54:19Z</time>
  <course>18.55</course>
  <speed>0.0</speed>
  <fix>3d</fix>
</trkpt>
<trkpt lat="-27.2744391" lon="151.2900641">
  <ele>343.07</ele>
  <time>2026-09-01T19:54:19Z</time>
  <course>10.99</course>
  <speed>0.022360679774997897</speed>
  <fix>3d</fix>
</trkpt>
<trkpt lat="-27.2744389" lon="151.290064">
  <ele>343.1</ele>
  <time>2026-09-01T19:54:19Z</time>
  <course>18.55</course>
  <speed>0.0</speed>
  <fix>3d</fix>
</trkpt>
<trkpt lat="-27.2744391" lon="151.2900641">
  <ele>343.06</ele>
  <time>2026-09-01T19:54:19Z</time>
  <course>10.99</course>
  <speed>0.022360679774997897</speed>
  <fix>3d</fix>
</trkpt>
<trkpt lat="-27.2744389" lon="151.290064">
  <ele>343.1</ele>
  <time>2026-09-01T19:54:19Z</time>
  <course>10.4</course>
  <speed>0.0</speed>
  <fix>3d</fix>
</trkpt>
<trkpt lat="-27.2744391" lon="151.2900641">
  <ele>343.06</ele>
  <time>2026-09-01T19:54:19Z</time>
  <course>10.99</course>
  <speed>0.022360679774997897</speed>
  <fix>3d</fix>
</trkpt>
<trkpt lat="-27.2744389" lon="151.290064">
  <ele>343.1</ele>
  <time>2026-09-01T19:54:19Z</time>
  <course>10.4</course>
  <speed>0.0</speed>
  <fix>3d</fix>
</trkpt>
<trkpt lat="-27.2744391" lon="151.2900641">
  <ele>343.06</ele>
  <time>2026-09-01T19:54:19Z</time>
  <course>10.99</course>
  <speed>0.022360679774997897</speed>
  <fix>3d</fix>
</trkpt>
<trkpt lat="-27.2744389" lon="151.290064">
  <ele>343.1</ele>
  <time>2026-09-01T19:54:19Z</time>
  <course>9.52</course>
  <speed>0.0</speed>
  <fix>3d</fix>
</trkpt>
<trkpt lat="-27.2744391" lon="151.2900641">
  <ele>343.06</ele>
  <time>2026-09-01T19:54:19Z</time>
  <course>10.99</course>
  <speed>0.022360679774997897</speed>
  <fix>3d</fix>
</trkpt>
<trkpt lat="-27.2744389" lon="151.290064">
  <ele>343.1</ele>
  <time>2026-09-01T19:54:19Z</time>
  <course>9.52</course>
  <speed>0.0</speed>
  <fix>3d</fix>
</trkpt>
<trkpt lat="-27.2744391" lon="151.2900641">
  <ele>343.06</ele>
  <time>2026-09-01T19:54:19Z</time>
  <course>11.0</course>
  <speed>0.022360679774997897</speed>
  <fix>3d</fix>
</trkpt>
<trkpt lat="-27.2744389" lon="151.290064">
  <ele>343.1</ele>
  <time>2026-09-01T19:54:19Z</time>
  <course>358.31</course>
  <speed>0.0</speed>
  <fix>3d</fix>
</trkpt>
<trkpt lat="-27.2744391" lon="151.2900641">
  <ele>343.06</ele>
  <time>2026-09-01T19:54:19Z</time>
  <course>11.0</course>
  <speed>0.022360679774997897</speed>
  <fix>3d</fix>
</trkpt>
<trkpt lat="-27.2744389" lon="151.290064">
  <ele>343.1</ele>
  <time>2026-09-01T19:54:19Z</time>
  <course>358.31</course>
  <speed>0.0</speed>
  <fix>3d</fix>
</trkpt>
<trkpt lat="-27.2744391" lon="151.2900641">
  <ele>343.06</ele>
  <time>2026-09-01T19:54:19Z</time>
  <course>11.0</course>
  <speed>0.022360679774997897</speed>
  <fix>3d</fix>
</trkpt>
<trkpt lat="-27.2744389" lon="151.290064">
  <ele>343.1</ele>
  <time>2026-09-01T19:54:19Z</time>
  <course>358.13</course>
  <speed>0.0</speed>
  <fix>3d</fix>
</trkpt>
<trkpt lat="-27.2744391" lon="151.2900641">
  <ele>343.05</ele>
  <time>2026-09-01T19:54:19Z</time>
  <course>11.0</course>
  <speed>0.022360679774997897</speed>
  <fix>3d</fix>
</trkpt>
<trkpt lat="-27.2744389" lon="151.290064">
  <ele>343.1</ele>
  <time>2026-09-01T19:54:19Z</time>
  <course>358.13</course>
  <speed>0.0</speed>
  <fix>3d</fix>
</trkpt>
<trkpt lat="-27.2744391" lon="151.2900641">
  <ele>343.05</ele>
  <time>2026-09-01T19:54:19Z</time>
  <course>11.0</course>
  <speed>0.022360679774997897</speed>
  <fix>3d</fix>
</trkpt>
<trkpt lat="-27.2744389" lon="151.290064">
  <ele>343.1</ele>
  <time>2026-09-01T19:54:19Z</time>
  <course>4.6</course>
  <speed>0.0</speed>
  <fix>3d</fix>
</trkpt>
<trkpt lat="-27.2744391" lon="151.2900641">
  <ele>343.05</ele>
  <time>2026-09-01T19:54:19Z</time>
  <course>11.0</course>
  <speed>0.022360679774997897</speed>
  <fix>3d</fix>
</trkpt>
<trkpt lat="-27.2744389" lon="151.290064">
  <ele>343.1</ele>
  <time>2026-09-01T19:54:19Z</time>
  <course>4.6</course>
  <speed>0.0</speed>
  <fix>3d</fix>
</trkpt>
<trkpt lat="-27.2744391" lon="151.2900641">
  <ele>343.05</ele>
  <time>2026-09-01T19:54:19Z</time>
  <course>11.0</course>
  <speed>0.022360679774997897</speed>
  <fix>3d</fix>
</trkpt>
<trkpt lat="-27.2744389" lon="151.290064">
  <ele>343.1</ele>
  <time>2026-09-01T19:54:19Z</time>
  <course>1.65</course>
  <speed>0.0</speed>
  <fix>3d</fix>
</trkpt>
<trkpt lat="-27.2744391" lon="151.2900641">
  <ele>343.05</ele>
  <time>2026-09-01T19:54:19Z</time>
  <course>11.0</course>
  <speed>0.022360679774997897</speed>
  <fix>3d</fix>
</trkpt>
<trkpt lat="-27.2744389" lon="151.290064">
  <ele>343.1</ele>
  <time>2026-09-01T19:54:19Z</time>
  <course>1.65</course>
  <speed>0.0</speed>
  <fix>3d</fix>
</trkpt>
<trkpt lat="-27.2744391" lon="151.2900641">
  <ele>343.05</ele>
  <time>2026-09-01T19:54:19Z</time>
  <course>11.0</course>
  <speed>0.022360679774997897</speed>
  <fix>3d</fix>
</trkpt>
<trkpt lat="-27.2744389" lon="151.290064">
  <ele>343.1</ele>
  <time>2026-09-01T19:54:19Z</time>
  <course>13.99</course>
  <speed>0.0</speed>
  <fix>3d</fix>
</trkpt>
<trkpt lat="-27.2744391" lon="151.2900641">
  <ele>343.05</ele>
  <time>2026-09-01T19:54:19Z</time>
  <course>11.0</course>
  <speed>0.022360679774997897</speed>
  <fix>3d</fix>
</trkpt>
<trkpt lat="-27.2744389" lon="151.290064">
  <ele>343.1</ele>
  <time>2026-09-01T19:54:19Z</time>
  <course>13.99</course>
  <speed>0.0</speed>
  <fix>3d</fix>
</trkpt>
<trkpt lat="-27.2744391" lon="151.2900641">
  <ele>343.05</ele>
  <time>2026-09-01T19:54:19Z</time>
  <course>11.0</course>
  <speed>0.022360679774997897</speed>
  <fix>3d</fix>
</trkpt>
<trkpt lat="-27.2744389" lon="151.290064">
  <ele>343.1</ele>
  <time>2026-09-01T19:54:19Z</time>
  <course>7.17</course>
  <speed>0.0</speed>
  <fix>3d</fix>
</trkpt>
<trkpt lat="-27.2744391" lon="151.2900641">
  <ele>343.04</ele>
  <time>2026-09-01T19:54:19Z</time>
  <course>11.01</course>
  <speed>0.022360679774997897</speed>
  <fix>3d</fix>
</trkpt>
<trkpt lat="-27.2744389" lon="151.290064">
  <ele>343.1</ele>
  <time>2026-09-01T19:54:19Z</time>
  <course>7.17</course>
  <speed>0.0</speed>
  <fix>3d</fix>
</trkpt>
<trkpt lat="-27.2744391" lon="151.2900641">
  <ele>343.04</ele>
  <time>2026-09-01T19:54:19Z</time>
  <course>11.01</course>
  <speed>0.022360679774997897</speed>
  <fix>3d</fix>
</trkpt>
<trkpt lat="-27.2744389" lon="151.290064">
  <ele>343.1</ele>
  <time>2026-09-01T19:54:19Z</time>
  <course>6.59</course>
  <speed>0.0</speed>
  <fix>3d</fix>
</trkpt>
<trkpt lat="-27.2744391" lon="151.2900641">
  <ele>343.04</ele>
  <time>2026-09-01T19:54:19Z</time>
  <course>11.01</course>
  <speed>0.022360679774997897</speed>
  <fix>3d</fix>
</trkpt>
<trkpt lat="-27.2744389" lon="151.290064">
  <ele>343.1</ele>
  <time>2026-09-01T19:54:19Z</time>
  <course>6.59</course>
  <speed>0.0</speed>
  <fix>3d</fix>
</trkpt>
<trkpt lat="-27.2744391" lon="151.2900641">
  <ele>343.04</ele>
  <time>2026-09-01T19:54:19Z</time>
  <course>11.01</course>
  <speed>0.022360679774997897</speed>
  <fix>3d</fix>
</trkpt>
<trkpt lat="-27.2744389" lon="151.290064">
  <ele>343.1</ele>
  <time>2026-09-01T19:54:19Z</time>
  <course>16.33</course>
  <speed>0.0</speed>
  <fix>3d</fix>
</trkpt>
<trkpt lat="-27.2744391" lon="151.2900641">
  <ele>343.04</ele>
  <time>2026-09-01T19:54:19Z</time>
  <course>11.01</course>
  <speed>0.022360679774997897</speed>
  <fix>3d</fix>
</trkpt>
<trkpt lat="-27.2744389" lon="151.290064">
  <ele>343.1</ele>
  <time>2026-09-01T19:54:19Z</time>
  <course>16.33</course>
  <speed>0.0</speed>
  <fix>3d</fix>
</trkpt>
<trkpt lat="-27.2744391" lon="151.2900641">
  <ele>343.04</ele>
  <time>2026-09-01T19:54:19Z</time>
  <course>11.01</course>
  <speed>0.022360679774997897</speed>
  <fix>3d</fix>
</trkpt>
<trkpt lat="-27.2744389" lon="151.290064">
  <ele>343.1</ele>
  <time>2026-09-01T19:54:19Z</time>
  <course>5.13</course>
  <speed>0.0</speed>
  <fix>3d</fix>
</trkpt>
<trkpt lat="-27.2744391" lon="151.2900641">
  <ele>343.04</ele>
  <time>2026-09-01T19:54:19Z</time>
  <course>11.01</course>
  <speed>0.022360679774997897</speed>
  <fix>3d</fix>
</trkpt>
<trkpt lat="-27.2744389" lon="151.290064">
  <ele>343.1</ele>
  <time>2026-09-01T19:54:19Z</time>
  <course>5.13</course>
  <speed>0.0</speed>
  <fix>3d</fix>
</trkpt>
<trkpt lat="-27.2744391" lon="151.2900641">
  <ele>343.04</ele>
  <time>2026-09-01T19:54:19Z</time>
  <course>11.01</course>
  <speed>0.0412310562561766</speed>
  <fix>3d</fix>
</trkpt>
<trkpt lat="-27.2744389" lon="151.290064">
  <ele>343.1</ele>
  <time>2026-09-01T19:54:19Z</time>
  <course>192.07</course>
  <speed>0.0</speed>
  <fix>3d</fix>
</trkpt>
<trkpt lat="-27.2744391" lon="151.2900641">
  <ele>343.04</ele>
  <time>2026-09-01T19:54:19Z</time>
  <course>11.01</course>
  <speed>0.0316227766016838</speed>
  <fix>3d</fix>
</trkpt>
<trkpt lat="-27.2744389" lon="151.290064">
  <ele>343.1</ele>
  <time>2026-09-01T19:54:19Z</time>
  <course>192.07</course>
  <speed>0.0</speed>
  <fix>3d</fix>
</trkpt>
<trkpt lat="-27.2744391" lon="151.2900641">
  <ele>343.04</ele>
  <time>2026-09-01T19:54:19Z</time>
  <course>11.01</course>
  <speed>0.022360679774997897</speed>
  <fix>3d</fix>
</trkpt>
<trkpt lat="-27.2744389" lon="151.290064">
  <ele>343.1</ele>
  <time>2026-09-01T19:54:19Z</time>
  <course>188.36</course>
  <speed>0.0</speed>
  <fix>3d</fix>
</trkpt>
<trkpt lat="-27.2744391" lon="151.2900641">
  <ele>343.04</ele>
  <time>2026-09-01T19:54:19Z</time>
  <course>11.02</course>
  <speed>0.022360679774997897</speed>
  <fix>3d</fix>
</trkpt>
<trkpt lat="-27.2744389" lon="151.290064">
  <ele>343.1</ele>
  <time>2026-09-01T19:54:19Z</time>
  <course>188.36</course>
  <speed>0.0</speed>
  <fix>3d</fix>
</trkpt>
<trkpt lat="-27.2744391" lon="151.2900641">
  <ele>343.04</ele>
  <time>2026-09-01T19:54:19Z</time>
  <course>11.02</course>
  <speed>0.022360679774997897</speed>
  <fix>3d</fix>
</trkpt>
<trkpt lat="-27.2744389" lon="151.290064">
  <ele>343.1</ele>
  <time>2026-09-01T19:54:19Z</time>
  <course>188.04</course>
  <speed>0.0</speed>
  <fix>3d</fix>
</trkpt>
<trkpt lat="-27.2744391" lon="151.2900641">
  <ele>343.04</ele>
  <time>2026-09-01T19:54:19Z</time>
  <course>11.02</course>
  <speed>0.022360679774997897</speed>
  <fix>3d</fix>
</trkpt>
<trkpt lat="-27.2744389" lon="151.290064">
  <ele>343.1</ele>
  <time>2026-09-01T19:54:19Z</time>
  <course>188.04</course>
  <speed>0.0</speed>
  <fix>3d</fix>
</trkpt>
<trkpt lat="-27.2744391" lon="151.2900641">
  <ele>343.04</ele>
  <time>2026-09-01T19:54:19Z</time>
  <course>11.02</course>
  <speed>0.022360679774997897</speed>
  <fix>3d</fix>
</trkpt>
<trkpt lat="-27.2744389" lon="151.290064">
  <ele>343.1</ele>
  <time>2026-09-01T19:54:19Z</time>
  <course>8.23</course>
  <speed>0.0</speed>
  <fix>3d</fix>
</trkpt>
<trkpt lat="-27.2744391" lon="151.2900641">
  <ele>343.04</ele>
  <time>2026-09-01T19:54:19Z</time>
  <course>11.02</course>
  <speed>0.022360679774997897</speed>
  <fix>3d</fix>
</trkpt>
<trkpt lat="-27.2744389" lon="151.290064">
  <ele>343.1</ele>
  <time>2026-09-01T19:54:19Z</time>
  <course>8.23</course>
  <speed>0.0</speed>
  <fix>3d</fix>
</trkpt>
<trkpt lat="-27.2744391" lon="151.2900641">
  <ele>343.05</ele>
  <time>2026-09-01T19:54:19Z</time>
  <course>11.02</course>
  <speed>0.022360679774997897</speed>
  <fix>3d</fix>
</trkpt>
<trkpt lat="-27.2744389" lon="151.290064">
  <ele>343.1</ele>
  <time>2026-09-01T19:54:19Z</time>
  <course>7.97</course>
  <speed>0.0</speed>
  <fix>3d</fix>
</trkpt>
<trkpt lat="-27.2744391" lon="151.2900641">
  <ele>343.05</ele>
  <time>2026-09-01T19:54:19Z</time>
  <course>11.02</course>
  <speed>0.022360679774997897</speed>
  <fix>3d</fix>
</trkpt>
<trkpt lat="-27.2744389" lon="151.290064">
  <ele>343.1</ele>
  <time>2026-09-01T19:54:19Z</time>
  <course>7.97</course>
  <speed>0.0</speed>
  <fix>3d</fix>
</trkpt>
<trkpt lat="-27.2744391" lon="151.2900641">
  <ele>343.05</ele>
  <time>2026-09-01T19:54:19Z</time>
  <course>11.02</course>
  <speed>0.022360679774997897</speed>
  <fix>3d</fix>
</trkpt>
<trkpt lat="-27.2744389" lon="151.290064">
  <ele>343.1</ele>
  <time>2026-09-01T19:54:19Z</time>
  <course>188.17</course>
  <speed>0.0</speed>
  <fix>3d</fix>
</trkpt>
<trkpt lat="-27.2744391" lon="151.2900641">
  <ele>343.05</ele>
  <time>2026-09-01T19:54:19Z</time>
  <course>11.02</course>
  <speed>0.022360679774997897</speed>
  <fix>3d</fix>
</trkpt>
<trkpt lat="-27.2744389" lon="151.290064">
  <ele>343.1</ele>
  <time>2026-09-01T19:54:19Z</time>
  <course>188.17</course>
  <speed>0.0</speed>
  <fix>3d</fix>
</trkpt>
<trkpt lat="-27.2744391" lon="151.2900641">
  <ele>343.1</ele>
  <time>2026-09-01T19:54:19Z</time>
  <course>11.02</course>
  <speed>0.022360679774997897</speed>
  <fix>3d</fix>
</trkpt>
<trkpt lat="-27.2744389" lon="151.290064">
  <ele>343.1</ele>
  <time>2026-09-01T19:54:19Z</time>
  <course>187.8</course>
  <speed>0.0</speed>
  <fix>3d</fix>
</trkpt>
<trkpt lat="-27.2744391" lon="151.2900641">
  <ele>343.1</ele>
  <time>2026-09-01T19:54:19Z</time>
  <course>11.02</course>
  <speed>0.022360679774997897</speed>
  <fix>3d</fix>
</trkpt>
<trkpt lat="-27.2744389" lon="151.290064">
  <ele>343.1</ele>
  <time>2026-09-01T19:54:19Z</time>
  <course>187.8</course>
  <speed>0.0</speed>
  <fix>3d</fix>
</trkpt>
<trkpt lat="-27.2744391" lon="151.2900641">
  <ele>343.09</ele>
  <time>2026-09-01T19:54:19Z</time>
  <course>11.03</course>
  <speed>0.022360679774997897</speed>
  <fix>3d</fix>
</trkpt>
<trkpt lat="-27.2744389" lon="151.290064">
  <ele>343.1</ele>
  <time>2026-09-01T19:54:19Z</time>
  <course>8.13</course>
  <speed>0.0</speed>
  <fix>3d</fix>
</trkpt>
<trkpt lat="-27.2744391" lon="151.2900641">
  <ele>343.09</ele>
  <time>2026-09-01T19:54:19Z</time>
  <course>11.03</course>
  <speed>0.022360679774997897</speed>
  <fix>3d</fix>
</trkpt>
<trkpt lat="-27.2744389" lon="151.290064">
  <ele>343.1</ele>
  <time>2026-09-01T19:54:19Z</time>
  <course>8.13</course>
  <speed>0.0</speed>
  <fix>3d</fix>
</trkpt>
<trkpt lat="-27.2744391" lon="151.2900641">
  <ele>343.09</ele>
  <time>2026-09-01T19:54:19Z</time>
  <course>11.03</course>
  <speed>0.022360679774997897</speed>
  <fix>3d</fix>
</trkpt>
<trkpt lat="-27.2744389" lon="151.290064">
  <ele>343.1</ele>
  <time>2026-09-01T19:54:19Z</time>
  <course>359.98</course>
  <speed>0.0</speed>
  <fix>3d</fix>
</trkpt>
<trkpt lat="-27.2744391" lon="151.2900641">
  <ele>343.09</ele>
  <time>2026-09-01T19:54:19Z</time>
  <course>11.03</course>
  <speed>0.022360679774997897</speed>
  <fix>3d</fix>
</trkpt>
<trkpt lat="-27.2744389" lon="151.290064">
  <ele>343.1</ele>
  <time>2026-09-01T19:54:19Z</time>
  <course>359.98</course>
  <speed>0.0</speed>
  <fix>3d</fix>
</trkpt>
<trkpt lat="-27.2744391" lon="151.2900641">
  <ele>343.09</ele>
  <time>2026-09-01T19:54:19Z</time>
  <course>11.03</course>
  <speed>0.022360679774997897</speed>
  <fix>3d</fix>
</trkpt>
<trkpt lat="-27.2744389" lon="151.290064">
  <ele>343.1</ele>
  <time>2026-09-01T19:54:19Z</time>
  <course>188.09</course>
  <speed>0.0</speed>
  <fix>3d</fix>
</trkpt>
<trkpt lat="-27.2744391" lon="151.2900641">
  <ele>343.09</ele>
  <time>2026-09-01T19:54:19Z</time>
  <course>11.03</course>
  <speed>0.02</speed>
  <fix>3d</fix>
</trkpt>
<trkpt lat="-27.2744389" lon="151.290064">
  <ele>343.1</ele>
  <time>2026-09-01T19:54:19Z</time>
  <course>188.09</course>
  <speed>0.0</speed>
  <fix>3d</fix>
</trkpt>
<trkpt lat="-27.2744391" lon="151.2900641">
  <ele>343.09</ele>
  <time>2026-09-01T19:54:19Z</time>
  <course>11.03</course>
  <speed>0.022360679774997897</speed>
  <fix>3d</fix>
</trkpt>
<trkpt lat="-27.2744389" lon="151.290064">
  <ele>343.1</ele>
  <time>2026-09-01T19:54:19Z</time>
  <course>7.37</course>
  <speed>0.0</speed>
  <fix>3d</fix>
</trkpt>
<trkpt lat="-27.2744391" lon="151.2900641">
  <ele>343.08</ele>
  <time>2026-09-01T19:54:19Z</time>
  <course>11.03</course>
  <speed>0.01414213562373095</speed>
  <fix>3d</fix>
</trkpt>
<trkpt lat="-27.2744389" lon="151.290064">
  <ele>343.1</ele>
  <time>2026-09-01T19:54:19Z</time>
  <course>7.37</course>
  <speed>0.0</speed>
  <fix>3d</fix>
</trkpt>
<trkpt lat="-27.2744391" lon="151.2900641">
  <ele>343.08</ele>
  <time>2026-09-01T19:54:19Z</time>
  <course>11.03</course>
  <speed>0.022360679774997897</speed>
  <fix>3d</fix>
</trkpt>
<trkpt lat="-27.2744389" lon="151.290064">
  <ele>343.1</ele>
  <time>2026-09-01T19:54:19Z</time>
  <course>7.93</course>
  <speed>0.01</speed>
  <fix>3d</fix>
</trkpt>
<trkpt lat="-27.2744391" lon="151.2900641">
  <ele>343.07</ele>
  <time>2026-09-01T19:54:19Z</time>
  <course>11.03</course>
  <speed>0.022360679774997897</speed>
  <fix>3d</fix>
</trkpt>
<trkpt lat="-27.2744389" lon="151.290064">
  <ele>343.1</ele>
  <time>2026-09-01T19:54:19Z</time>
  <course>7.93</course>
  <speed>0.01</speed>
  <fix>3d</fix>
</trkpt>
<trkpt lat="-27.2744391" lon="151.2900641">
  <ele>343.07</ele>
  <time>2026-09-01T19:54:19Z</time>
  <course>11.03</course>
  <speed>0.022360679774997897</speed>
  <fix>3d</fix>
</trkpt>
<trkpt lat="-27.2744389" lon="151.290064">
  <ele>343.1</ele>
  <time>2026-09-01T19:54:19Z</time>
  <course>7.9</course>
  <speed>0.0</speed>
  <fix>3d</fix>
</trkpt>
<trkpt lat="-27.2744391" lon="151.2900641">
  <ele>343.06</ele>
  <time>2026-09-01T19:54:19Z</time>
  <course>11.04</course>
  <speed>0.022360679774997897</speed>
  <fix>3d</fix>
</trkpt>
<trkpt lat="-27.2744389" lon="151.290064">
  <ele>343.1</ele>
  <time>2026-09-01T19:54:19Z</time>
  <course>7.9</course>
  <speed>0.0</speed>
  <fix>3d</fix>
</trkpt>
<trkpt lat="-27.2744391" lon="151.2900641">
  <ele>343.06</ele>
  <time>2026-09-01T19:54:19Z</time>
  <course>11.04</course>
  <speed>0.022360679774997897</speed>
  <fix>3d</fix>
</trkpt>
<trkpt lat="-27.2744389" lon="151.290064">
  <ele>343.1</ele>
  <time>2026-09-01T19:54:19Z</time>
  <course>184.63</course>
  <speed>0.0</speed>
  <fix>3d</fix>
</trkpt>
<trkpt lat="-27.2744391" lon="151.2900641">
  <ele>343.05</ele>
  <time>2026-09-01T19:54:19Z</time>
  <course>11.04</course>
  <speed>0.022360679774997897</speed>
  <fix>3d</fix>
</trkpt>
<trkpt lat="-27.2744389" lon="151.290064">
  <ele>343.1</ele>
  <time>2026-09-01T19:54:19Z</time>
  <course>184.63</course>
  <speed>0.0</speed>
  <fix>3d</fix>
</trkpt>
<trkpt lat="-27.2744391" lon="151.2900641">
  <ele>343.05</ele>
  <time>2026-09-01T19:54:19Z</time>
  <course>11.04</course>
  <speed>0.022360679774997897</speed>
  <fix>3d</fix>
</trkpt>
<trkpt lat="-27.2744389" lon="151.290064">
  <ele>343.1</ele>
  <time>2026-09-01T19:54:19Z</time>
  <course>23.28</course>
  <speed>0.0</speed>
  <fix>3d</fix>
</trkpt>
<trkpt lat="-27.2744391" lon="151.2900641">
  <ele>343.05</ele>
  <time>2026-09-01T19:54:19Z</time>
  <course>11.04</course>
  <speed>0.022360679774997897</speed>
  <fix>3d</fix>
</trkpt>
<trkpt lat="-27.2744389" lon="151.290064">
  <ele>343.1</ele>
  <time>2026-09-01T19:54:19Z</time>
  <course>23.28</course>
  <speed>0.0</speed>
  <fix>3d</fix>
</trkpt>
<trkpt lat="-27.2744391" lon="151.2900641">
  <ele>343.05</ele>
  <time>2026-09-01T19:54:19Z</time>
  <course>11.04</course>
  <speed>0.022360679774997897</speed>
  <fix>3d</fix>
</trkpt>
<trkpt lat="-27.2744389" lon="151.290064">
  <ele>343.1</ele>
  <time>2026-09-01T19:54:19Z</time>
  <course>356.07</course>
  <speed>0.0</speed>
  <fix>3d</fix>
</trkpt>
<trkpt lat="-27.2744391" lon="151.2900641">
  <ele>343.05</ele>
  <time>2026-09-01T19:54:19Z</time>
  <course>11.04</course>
  <speed>0.022360679774997897</speed>
  <fix>3d</fix>
</trkpt>
<trkpt lat="-27.2744389" lon="151.290064">
  <ele>343.1</ele>
  <time>2026-09-01T19:54:19Z</time>
  <course>356.07</course>
  <speed>0.0</speed>
  <fix>3d</fix>
</trkpt>
<trkpt lat="-27.2744391" lon="151.2900641">
  <ele>343.05</ele>
  <time>2026-09-01T19:54:19Z</time>
  <course>11.04</course>
  <speed>0.022360679774997897</speed>
  <fix>3d</fix>
</trkpt>
<trkpt lat="-27.2744389" lon="151.290064">
  <ele>343.1</ele>
  <time>2026-09-01T19:54:19Z</time>
  <course>1.84</course>
  <speed>0.0</speed>
  <fix>3d</fix>
</trkpt>
<trkpt lat="-27.2744391" lon="151.2900641">
  <ele>343.05</ele>
  <time>2026-09-01T19:54:19Z</time>
  <course>11.04</course>
  <speed>0.022360679774997897</speed>
  <fix>3d</fix>
</trkpt>
<trkpt lat="-27.2744389" lon="151.290064">
  <ele>343.1</ele>
  <time>2026-09-01T19:54:19Z</time>
  <course>1.84</course>
  <speed>0.0</speed>
  <fix>3d</fix>
</trkpt>
<trkpt lat="-27.2744391" lon="151.2900641">
  <ele>343.04</ele>
  <time>2026-09-01T19:54:19Z</time>
  <course>11.04</course>
  <speed>0.022360679774997897</speed>
  <fix>3d</fix>
</trkpt>
<trkpt lat="-27.2744389" lon="151.290064">
  <ele>343.1</ele>
  <time>2026-09-01T19:54:19Z</time>
  <course>2.13</course>
  <speed>0.0</speed>
  <fix>3d</fix>
</trkpt>
<trkpt lat="-27.2744391" lon="151.2900641">
  <ele>343.04</ele>
  <time>2026-09-01T19:54:19Z</time>
  <course>11.04</course>
  <speed>0.022360679774997897</speed>
  <fix>3d</fix>
</trkpt>
<trkpt lat="-27.2744389" lon="151.290064">
  <ele>343.1</ele>
  <time>2026-09-01T19:54:19Z</time>
  <course>2.13</course>
  <speed>0.0</speed>
  <fix>3d</fix>
</trkpt>
<trkpt lat="-27.2744391" lon="151.2900641">
  <ele>343.04</ele>
  <time>2026-09-01T19:54:19Z</time>
  <course>11.05</course>
  <speed>0.022360679774997897</speed>
  <fix>3d</fix>
</trkpt>
<trkpt lat="-27.2744389" lon="151.290064">
  <ele>343.1</ele>
  <time>2026-09-01T19:54:19Z</time>
  <course>13.78</course>
  <speed>0.0</speed>
  <fix>3d</fix>
</trkpt>
<trkpt lat="-27.2744391" lon="151.2900641">
  <ele>343.04</ele>
  <time>2026-09-01T19:54:19Z</time>
  <course>11.05</course>
  <speed>0.022360679774997897</speed>
  <fix>3d</fix>
</trkpt>
<trkpt lat="-27.2744389" lon="151.290064">
  <ele>343.1</ele>
  <time>2026-09-01T19:54:19Z</time>
  <course>13.78</course>
  <speed>0.0</speed>
  <fix>3d</fix>
</trkpt>
<trkpt lat="-27.2744391" lon="151.2900641">
  <ele>343.04</ele>
  <time>2026-09-01T19:54:19Z</time>
  <course>11.05</course>
  <speed>0.022360679774997897</speed>
  <fix>3d</fix>
</trkpt>
<trkpt lat="-27.2744389" lon="151.290064">
  <ele>343.1</ele>
  <time>2026-09-01T19:54:19Z</time>
  <course>16.97</course>
  <speed>0.0</speed>
  <fix>3d</fix>
</trkpt>
<trkpt lat="-27.2744391" lon="151.2900641">
  <ele>343.04</ele>
  <time>2026-09-01T19:54:19Z</time>
  <course>11.05</course>
  <speed>0.022360679774997897</speed>
  <fix>3d</fix>
</trkpt>
<trkpt lat="-27.2744389" lon="151.290064">
  <ele>343.1</ele>
  <time>2026-09-01T19:54:19Z</time>
  <course>16.97</course>
  <speed>0.0</speed>
  <fix>3d</fix>
</trkpt>
<trkpt lat="-27.2744391" lon="151.2900641">
  <ele>343.03</ele>
  <time>2026-09-01T19:54:19Z</time>
  <course>11.05</course>
  <speed>0.022360679774997897</speed>
  <fix>3d</fix>
</trkpt>
<trkpt lat="-27.2744389" lon="151.290064">
  <ele>343.1</ele>
  <time>2026-09-01T19:54:19Z</time>
  <course>9.0</course>
  <speed>0.0</speed>
  <fix>3d</fix>
</trkpt>
<trkpt lat="-27.2744391" lon="151.2900641">
  <ele>343.03</ele>
  <time>2026-09-01T19:54:19Z</time>
  <course>11.05</course>
  <speed>0.022360679774997897</speed>
  <fix>3d</fix>
</trkpt>
<trkpt lat="-27.2744389" lon="151.290064">
  <ele>343.1</ele>
  <time>2026-09-01T19:54:19Z</time>
  <course>9.0</course>
  <speed>0.0</speed>
  <fix>3d</fix>
</trkpt>
<trkpt lat="-27.2744391" lon="151.2900641">
  <ele>343.03</ele>
  <time>2026-09-01T19:54:19Z</time>
  <course>11.05</course>
  <speed>0.022360679774997897</speed>
  <fix>3d</fix>
</trkpt>
<trkpt lat="-27.2744389" lon="151.290064">
  <ele>343.1</ele>
  <time>2026-09-01T19:54:19Z</time>
  <course>355.1</course>
  <speed>0.0</speed>
  <fix>3d</fix>
</trkpt>
<trkpt lat="-27.2744391" lon="151.2900641">
  <ele>343.03</ele>
  <time>2026-09-01T19:54:19Z</time>
  <course>11.05</course>
  <speed>0.022360679774997897</speed>
  <fix>3d</fix>
</trkpt>
<trkpt lat="-27.2744389" lon="151.290064">
  <ele>343.1</ele>
  <time>2026-09-01T19:54:19Z</time>
  <course>355.1</course>
  <speed>0.0</speed>
  <fix>3d</fix>
</trkpt>
<trkpt lat="-27.2744391" lon="151.2900641">
  <ele>343.03</ele>
  <time>2026-09-01T19:54:19Z</time>
  <course>11.05</course>
  <speed>0.022360679774997897</speed>
  <fix>3d</fix>
</trkpt>
<trkpt lat="-27.2744389" lon="151.290064">
  <ele>343.1</ele>
  <time>2026-09-01T19:54:19Z</time>
  <course>349.78</course>
  <speed>0.0</speed>
  <fix>3d</fix>
</trkpt>
<trkpt lat="-27.2744391" lon="151.2900641">
  <ele>343.03</ele>
  <time>2026-09-01T19:54:19Z</time>
  <course>11.05</course>
  <speed>0.022360679774997897</speed>
  <fix>3d</fix>
</trkpt>
<trkpt lat="-27.2744389" lon="151.290064">
  <ele>343.1</ele>
  <time>2026-09-01T19:54:19Z</time>
  <course>349.78</course>
  <speed>0.0</speed>
  <fix>3d</fix>
</trkpt>
<trkpt lat="-27.2744391" lon="151.2900641">
  <ele>343.03</ele>
  <time>2026-09-01T19:54:19Z</time>
  <course>11.06</course>
  <speed>0.022360679774997897</speed>
  <fix>3d</fix>
</trkpt>
<trkpt lat="-27.2744389" lon="151.290064">
  <ele>343.1</ele>
  <time>2026-09-01T19:54:19Z</time>
  <course>4.5</course>
  <speed>0.0</speed>
  <fix>3d</fix>
</trkpt>
<trkpt lat="-27.2744391" lon="151.2900641">
  <ele>343.03</ele>
  <time>2026-09-01T19:54:19Z</time>
  <course>11.06</course>
  <speed>0.022360679774997897</speed>
  <fix>3d</fix>
</trkpt>
<trkpt lat="-27.2744389" lon="151.290064">
  <ele>343.1</ele>
  <time>2026-09-01T19:54:19Z</time>
  <course>4.5</course>
  <speed>0.0</speed>
  <fix>3d</fix>
</trkpt>
<trkpt lat="-27.2744391" lon="151.2900641">
  <ele>343.03</ele>
  <time>2026-09-01T19:54:19Z</time>
  <course>11.06</course>
  <speed>0.022360679774997897</speed>
  <fix>3d</fix>
</trkpt>
<trkpt lat="-27.2744389" lon="151.290064">
  <ele>343.1</ele>
  <time>2026-09-01T19:54:19Z</time>
  <course>22.54</course>
  <speed>0.0</speed>
  <fix>3d</fix>
</trkpt>
<trkpt lat="-27.2744391" lon="151.2900641">
  <ele>343.03</ele>
  <time>2026-09-01T19:54:19Z</time>
  <course>11.06</course>
  <speed>0.022360679774997897</speed>
  <fix>3d</fix>
</trkpt>
<trkpt lat="-27.2744389" lon="151.290064">
  <ele>343.1</ele>
  <time>2026-09-01T19:54:19Z</time>
  <course>22.54</course>
  <speed>0.0</speed>
  <fix>3d</fix>
</trkpt>
<trkpt lat="-27.2744391" lon="151.2900641">
  <ele>343.03</ele>
  <time>2026-09-01T19:54:19Z</time>
  <course>11.06</course>
  <speed>0.0316227766016838</speed>
  <fix>3d</fix>
</trkpt>
<trkpt lat="-27.2744389" lon="151.290064">
  <ele>343.1</ele>
  <time>2026-09-01T19:54:19Z</time>
  <course>18.48</course>
  <speed>0.0</speed>
  <fix>3d</fix>
</trkpt>
<trkpt lat="-27.2744391" lon="151.2900641">
  <ele>343.04</ele>
  <time>2026-09-01T19:54:20Z</time>
  <course>11.06</course>
  <speed>0.022360679774997897</speed>
  <fix>3d</fix>
</trkpt>
<trkpt lat="-27.2744389" lon="151.290064">
  <ele>343.1</ele>
  <time>2026-09-01T19:54:20Z</time>
  <course>18.48</course>
  <speed>0.0</speed>
  <fix>3d</fix>
</trkpt>
<trkpt lat="-27.2744391" lon="151.2900641">
  <ele>343.03</ele>
  <time>2026-09-01T19:54:20Z</time>
  <course>11.06</course>
  <speed>0.01414213562373095</speed>
  <fix>3d</fix>
</trkpt>
<trkpt lat="-27.2744389" lon="151.290064">
  <ele>343.1</ele>
  <time>2026-09-01T19:54:20Z</time>
  <course>0.16</course>
  <speed>0.0</speed>
  <fix>3d</fix>
</trkpt>
<trkpt lat="-27.2744391" lon="151.2900641">
  <ele>343.03</ele>
  <time>2026-09-01T19:54:20Z</time>
  <course>11.06</course>
  <speed>0.022360679774997897</speed>
  <fix>3d</fix>
</trkpt>
<trkpt lat="-27.2744389" lon="151.290064">
  <ele>343.1</ele>
  <time>2026-09-01T19:54:20Z</time>
  <course>0.16</course>
  <speed>0.0</speed>
  <fix>3d</fix>
</trkpt>
<trkpt lat="-27.2744391" lon="151.2900641">
  <ele>343.03</ele>
  <time>2026-09-01T19:54:20Z</time>
  <course>11.06</course>
  <speed>0.022360679774997897</speed>
  <fix>3d</fix>
</trkpt>
<trkpt lat="-27.2744389" lon="151.290064">
  <ele>343.1</ele>
  <time>2026-09-01T19:54:20Z</time>
  <course>7.52</course>
  <speed>0.0</speed>
  <fix>3d</fix>
</trkpt>
<trkpt lat="-27.2744391" lon="151.2900641">
  <ele>343.03</ele>
  <time>2026-09-01T19:54:20Z</time>
  <course>11.06</course>
  <speed>0.022360679774997897</speed>
  <fix>3d</fix>
</trkpt>
<trkpt lat="-27.2744389" lon="151.290064">
  <ele>343.1</ele>
  <time>2026-09-01T19:54:20Z</time>
  <course>7.52</course>
  <speed>0.0</speed>
  <fix>3d</fix>
</trkpt>
<trkpt lat="-27.2744391" lon="151.2900641">
  <ele>343.03</ele>
  <time>2026-09-01T19:54:20Z</time>
  <course>11.06</course>
  <speed>0.022360679774997897</speed>
  <fix>3d</fix>
</trkpt>
<trkpt lat="-27.2744389" lon="151.290064">
  <ele>343.1</ele>
  <time>2026-09-01T19:54:20Z</time>
  <course>10.0</course>
  <speed>0.0</speed>
  <fix>3d</fix>
</trkpt>
<trkpt lat="-27.2744391" lon="151.2900641">
  <ele>343.03</ele>
  <time>2026-09-01T19:54:20Z</time>
  <course>11.07</course>
  <speed>0.022360679774997897</speed>
  <fix>3d</fix>
</trkpt>
<trkpt lat="-27.2744389" lon="151.290064">
  <ele>343.1</ele>
  <time>2026-09-01T19:54:20Z</time>
  <course>10.0</course>
  <speed>0.0</speed>
  <fix>3d</fix>
</trkpt>
<trkpt lat="-27.2744391" lon="151.2900641">
  <ele>343.02</ele>
  <time>2026-09-01T19:54:20Z</time>
  <course>11.07</course>
  <speed>0.022360679774997897</speed>
  <fix>3d</fix>
</trkpt>
<trkpt lat="-27.2744389" lon="151.290064">
  <ele>343.1</ele>
  <time>2026-09-01T19:54:20Z</time>
  <course>185.34</course>
  <speed>0.0</speed>
  <fix>3d</fix>
</trkpt>
<trkpt lat="-27.2744391" lon="151.2900641">
  <ele>343.02</ele>
  <time>2026-09-01T19:54:20Z</time>
  <course>11.07</course>
  <speed>0.022360679774997897</speed>
  <fix>3d</fix>
</trkpt>
<trkpt lat="-27.2744389" lon="151.290064">
  <ele>343.1</ele>
  <time>2026-09-01T19:54:20Z</time>
  <course>185.34</course>
  <speed>0.0</speed>
  <fix>3d</fix>
</trkpt>
<trkpt lat="-27.2744391" lon="151.2900641">
  <ele>343.02</ele>
  <time>2026-09-01T19:54:20Z</time>
  <course>11.07</course>
  <speed>0.022360679774997897</speed>
  <fix>3d</fix>
</trkpt>
<trkpt lat="-27.2744389" lon="151.290064">
  <ele>343.1</ele>
  <time>2026-09-01T19:54:20Z</time>
  <course>138.68</course>
  <speed>0.0</speed>
  <fix>3d</fix>
</trkpt>
<trkpt lat="-27.2744391" lon="151.2900641">
  <ele>343.01</ele>
  <time>2026-09-01T19:54:20Z</time>
  <course>11.07</course>
  <speed>0.022360679774997897</speed>
  <fix>3d</fix>
</trkpt>
<trkpt lat="-27.2744389" lon="151.290064">
  <ele>343.1</ele>
  <time>2026-09-01T19:54:20Z</time>
  <course>138.68</course>
  <speed>0.0</speed>
  <fix>3d</fix>
</trkpt>
<trkpt lat="-27.2744391" lon="151.2900641">
  <ele>343.01</ele>
  <time>2026-09-01T19:54:20Z</time>
  <course>11.07</course>
  <speed>0.022360679774997897</speed>
  <fix>3d</fix>
</trkpt>
<trkpt lat="-27.2744389" lon="151.290064">
  <ele>343.1</ele>
  <time>2026-09-01T19:54:20Z</time>
  <course>358.26</course>
  <speed>0.0</speed>
  <fix>3d</fix>
</trkpt>
<trkpt lat="-27.2744391" lon="151.2900641">
  <ele>343.01</ele>
  <time>2026-09-01T19:54:20Z</time>
  <course>11.07</course>
  <speed>0.022360679774997897</speed>
  <fix>3d</fix>
</trkpt>
<trkpt lat="-27.2744389" lon="151.290064">
  <ele>343.1</ele>
  <time>2026-09-01T19:54:20Z</time>
  <course>358.26</course>
  <speed>0.0</speed>
  <fix>3d</fix>
</trkpt>
<trkpt lat="-27.2744391" lon="151.2900641">
  <ele>343.01</ele>
  <time>2026-09-01T19:54:20Z</time>
  <course>11.07</course>
  <speed>0.022360679774997897</speed>
  <fix>3d</fix>
</trkpt>
<trkpt lat="-27.2744389" lon="151.290064">
  <ele>343.1</ele>
  <time>2026-09-01T19:54:20Z</time>
  <course>333.06</course>
  <speed>0.0</speed>
  <fix>3d</fix>
</trkpt>
<trkpt lat="-27.2744391" lon="151.2900641">
  <ele>343.0</ele>
  <time>2026-09-01T19:54:20Z</time>
  <course>11.07</course>
  <speed>0.022360679774997897</speed>
  <fix>3d</fix>
</trkpt>
<trkpt lat="-27.2744389" lon="151.290064">
  <ele>343.1</ele>
  <time>2026-09-01T19:54:20Z</time>
  <course>333.06</course>
  <speed>0.0</speed>
  <fix>3d</fix>
</trkpt>
<trkpt lat="-27.2744391" lon="151.2900641">
  <ele>343.0</ele>
  <time>2026-09-01T19:54:20Z</time>
  <course>11.07</course>
  <speed>0.022360679774997897</speed>
  <fix>3d</fix>
</trkpt>
<trkpt lat="-27.2744389" lon="151.290064">
  <ele>343.1</ele>
  <time>2026-09-01T19:54:20Z</time>
  <course>6.73</course>
  <speed>0.0</speed>
  <fix>3d</fix>
</trkpt>
<trkpt lat="-27.2744391" lon="151.2900641">
  <ele>343.0</ele>
  <time>2026-09-01T19:54:20Z</time>
  <course>11.08</course>
  <speed>0.022360679774997897</speed>
  <fix>3d</fix>
</trkpt>
<trkpt lat="-27.2744389" lon="151.290064">
  <ele>343.1</ele>
  <time>2026-09-01T19:54:20Z</time>
  <course>6.73</course>
  <speed>0.0</speed>
  <fix>3d</fix>
</trkpt>
<trkpt lat="-27.2744391" lon="151.2900641">
  <ele>342.99</ele>
  <time>2026-09-01T19:54:20Z</time>
  <course>11.08</course>
  <speed>0.022360679774997897</speed>
  <fix>3d</fix>
</trkpt>
<trkpt lat="-27.2744389" lon="151.290064">
  <ele>343.1</ele>
  <time>2026-09-01T19:54:20Z</time>
  <course>23.8</course>
  <speed>0.0</speed>
  <fix>3d</fix>
</trkpt>
<trkpt lat="-27.2744391" lon="151.2900641">
  <ele>342.99</ele>
  <time>2026-09-01T19:54:20Z</time>
  <course>11.08</course>
  <speed>0.022360679774997897</speed>
  <fix>3d</fix>
</trkpt>
<trkpt lat="-27.2744389" lon="151.290064">
  <ele>343.1</ele>
  <time>2026-09-01T19:54:20Z</time>
  <course>23.8</course>
  <speed>0.0</speed>
  <fix>3d</fix>
</trkpt>
<trkpt lat="-27.2744391" lon="151.2900641">
  <ele>342.99</ele>
  <time>2026-09-01T19:54:20Z</time>
  <course>11.08</course>
  <speed>0.022360679774997897</speed>
  <fix>3d</fix>
</trkpt>
<trkpt lat="-27.2744389" lon="151.290064">
  <ele>343.1</ele>
  <time>2026-09-01T19:54:20Z</time>
  <course>18.78</course>
  <speed>0.0</speed>
  <fix>3d</fix>
</trkpt>
<trkpt lat="-27.2744391" lon="151.2900641">
  <ele>342.99</ele>
  <time>2026-09-01T19:54:20Z</time>
  <course>11.08</course>
  <speed>0.022360679774997897</speed>
  <fix>3d</fix>
</trkpt>
<trkpt lat="-27.2744389" lon="151.290064">
  <ele>343.1</ele>
  <time>2026-09-01T19:54:20Z</time>
  <course>18.78</course>
  <speed>0.0</speed>
  <fix>3d</fix>
</trkpt>
<trkpt lat="-27.2744391" lon="151.2900641">
  <ele>343.09</ele>
  <time>2026-09-01T19:54:20Z</time>
  <course>11.08</course>
  <speed>0.022360679774997897</speed>
  <fix>3d</fix>
</trkpt>
<trkpt lat="-27.2744389" lon="151.290064">
  <ele>343.1</ele>
  <time>2026-09-01T19:54:20Z</time>
  <course>15.78</course>
  <speed>0.0</speed>
  <fix>3d</fix>
</trkpt>
<trkpt lat="-27.2744391" lon="151.2900641">
  <ele>343.09</ele>
  <time>2026-09-01T19:54:20Z</time>
  <course>11.08</course>
  <speed>0.022360679774997897</speed>
  <fix>3d</fix>
</trkpt>
<trkpt lat="-27.2744389" lon="151.290064">
  <ele>343.1</ele>
  <time>2026-09-01T19:54:20Z</time>
  <course>15.78</course>
  <speed>0.0</speed>
  <fix>3d</fix>
</trkpt>
<trkpt lat="-27.2744391" lon="151.2900641">
  <ele>343.09</ele>
  <time>2026-09-01T19:54:20Z</time>
  <course>11.08</course>
  <speed>0.022360679774997897</speed>
  <fix>3d</fix>
</trkpt>
<trkpt lat="-27.2744389" lon="151.290064">
  <ele>343.1</ele>
  <time>2026-09-01T19:54:20Z</time>
  <course>22.54</course>
  <speed>0.0</speed>
  <fix>3d</fix>
</trkpt>
<trkpt lat="-27.2744391" lon="151.2900641">
  <ele>343.09</ele>
  <time>2026-09-01T19:54:20Z</time>
  <course>11.08</course>
  <speed>0.022360679774997897</speed>
  <fix>3d</fix>
</trkpt>
<trkpt lat="-27.2744389" lon="151.290064">
  <ele>343.1</ele>
  <time>2026-09-01T19:54:20Z</time>
  <course>22.54</course>
  <speed>0.0</speed>
  <fix>3d</fix>
</trkpt>
<trkpt lat="-27.2744391" lon="151.2900641">
  <ele>343.09</ele>
  <time>2026-09-01T19:54:20Z</time>
  <course>11.08</course>
  <speed>0.022360679774997897</speed>
  <fix>3d</fix>
</trkpt>
<trkpt lat="-27.2744389" lon="151.290064">
  <ele>343.1</ele>
  <time>2026-09-01T19:54:20Z</time>
  <course>27.46</course>
  <speed>0.0</speed>
  <fix>3d</fix>
</trkpt>
<trkpt lat="-27.2744391" lon="151.2900641">
  <ele>343.08</ele>
  <time>2026-09-01T19:54:20Z</time>
  <course>11.09</course>
  <speed>0.022360679774997897</speed>
  <fix>3d</fix>
</trkpt>
<trkpt lat="-27.2744389" lon="151.290064">
  <ele>343.1</ele>
  <time>2026-09-01T19:54:20Z</time>
  <course>27.46</course>
  <speed>0.0</speed>
  <fix>3d</fix>
</trkpt>
<trkpt lat="-27.2744391" lon="151.2900641">
  <ele>343.08</ele>
  <time>2026-09-01T19:54:20Z</time>
  <course>11.09</course>
  <speed>0.022360679774997897</speed>
  <fix>3d</fix>
</trkpt>
<trkpt lat="-27.2744389" lon="151.290064">
  <ele>343.1</ele>
  <time>2026-09-01T19:54:20Z</time>
  <course>14.38</course>
  <speed>0.0</speed>
  <fix>3d</fix>
</trkpt>
<trkpt lat="-27.2744391" lon="151.2900641">
  <ele>343.08</ele>
  <time>2026-09-01T19:54:20Z</time>
  <course>11.09</course>
  <speed>0.022360679774997897</speed>
  <fix>3d</fix>
</trkpt>
<trkpt lat="-27.2744389" lon="151.290064">
  <ele>343.1</ele>
  <time>2026-09-01T19:54:20Z</time>
  <course>14.38</course>
  <speed>0.0</speed>
  <fix>3d</fix>
</trkpt>
<trkpt lat="-27.2744391" lon="151.2900641">
  <ele>343.08</ele>
  <time>2026-09-01T19:54:20Z</time>
  <course>11.09</course>
  <speed>0.022360679774997897</speed>
  <fix>3d</fix>
</trkpt>
<trkpt lat="-27.2744389" lon="151.290064">
  <ele>343.1</ele>
  <time>2026-09-01T19:54:20Z</time>
  <course>11.55</course>
  <speed>0.0</speed>
  <fix>3d</fix>
</trkpt>
<trkpt lat="-27.2744391" lon="151.2900641">
  <ele>343.08</ele>
  <time>2026-09-01T19:54:20Z</time>
  <course>11.09</course>
  <speed>0.022360679774997897</speed>
  <fix>3d</fix>
</trkpt>
<trkpt lat="-27.2744389" lon="151.290064">
  <ele>343.1</ele>
  <time>2026-09-01T19:54:20Z</time>
  <course>11.55</course>
  <speed>0.0</speed>
  <fix>3d</fix>
</trkpt>
<trkpt lat="-27.2744391" lon="151.2900641">
  <ele>343.08</ele>
  <time>2026-09-01T19:54:20Z</time>
  <course>11.09</course>
  <speed>0.022360679774997897</speed>
  <fix>3d</fix>
</trkpt>
<trkpt lat="-27.2744389" lon="151.290064">
  <ele>343.1</ele>
  <time>2026-09-01T19:54:20Z</time>
  <course>17.76</course>
  <speed>0.0</speed>
  <fix>3d</fix>
</trkpt>
<trkpt lat="-27.2744391" lon="151.2900641">
  <ele>343.08</ele>
  <time>2026-09-01T19:54:20Z</time>
  <course>11.09</course>
  <speed>0.022360679774997897</speed>
  <fix>3d</fix>
</trkpt>
<trkpt lat="-27.2744389" lon="151.290064">
  <ele>343.1</ele>
  <time>2026-09-01T19:54:20Z</time>
  <course>17.76</course>
  <speed>0.0</speed>
  <fix>3d</fix>
</trkpt>
<trkpt lat="-27.2744391" lon="151.2900641">
  <ele>343.08</ele>
  <time>2026-09-01T19:54:20Z</time>
  <course>11.09</course>
  <speed>0.022360679774997897</speed>
  <fix>3d</fix>
</trkpt>
<trkpt lat="-27.2744389" lon="151.290064">
  <ele>343.1</ele>
  <time>2026-09-01T19:54:20Z</time>
  <course>353.93</course>
  <speed>0.0</speed>
  <fix>3d</fix>
</trkpt>
<trkpt lat="-27.2744391" lon="151.2900641">
  <ele>343.08</ele>
  <time>2026-09-01T19:54:20Z</time>
  <course>11.09</course>
  <speed>0.022360679774997897</speed>
  <fix>3d</fix>
</trkpt>
<trkpt lat="-27.2744389" lon="151.290064">
  <ele>343.1</ele>
  <time>2026-09-01T19:54:20Z</time>
  <course>353.93</course>
  <speed>0.0</speed>
  <fix>3d</fix>
</trkpt>
<trkpt lat="-27.2744391" lon="151.2900641">
  <ele>343.08</ele>
  <time>2026-09-01T19:54:20Z</time>
  <course>11.09</course>
  <speed>0.022360679774997897</speed>
  <fix>3d</fix>
</trkpt>
<trkpt lat="-27.2744389" lon="151.290064">
  <ele>343.1</ele>
  <time>2026-09-01T19:54:20Z</time>
  <course>349.81</course>
  <speed>0.0</speed>
  <fix>3d</fix>
</trkpt>
<trkpt lat="-27.2744391" lon="151.2900641">
  <ele>343.08</ele>
  <time>2026-09-01T19:54:20Z</time>
  <course>11.1</course>
  <speed>0.022360679774997897</speed>
  <fix>3d</fix>
</trkpt>
<trkpt lat="-27.2744389" lon="151.290064">
  <ele>343.1</ele>
  <time>2026-09-01T19:54:20Z</time>
  <course>349.81</course>
  <speed>0.0</speed>
  <fix>3d</fix>
</trkpt>
<trkpt lat="-27.2744391" lon="151.2900641">
  <ele>343.08</ele>
  <time>2026-09-01T19:54:20Z</time>
  <course>11.1</course>
  <speed>0.022360679774997897</speed>
  <fix>3d</fix>
</trkpt>
<trkpt lat="-27.2744389" lon="151.290064">
  <ele>343.1</ele>
  <time>2026-09-01T19:54:20Z</time>
  <course>19.27</course>
  <speed>0.0</speed>
  <fix>3d</fix>
</trkpt>
<trkpt lat="-27.2744391" lon="151.2900641">
  <ele>343.07</ele>
  <time>2026-09-01T19:54:20Z</time>
  <course>11.1</course>
  <speed>0.022360679774997897</speed>
  <fix>3d</fix>
</trkpt>
<trkpt lat="-27.2744389" lon="151.290064">
  <ele>343.1</ele>
  <time>2026-09-01T19:54:20Z</time>
  <course>19.27</course>
  <speed>0.0</speed>
  <fix>3d</fix>
</trkpt>
<trkpt lat="-27.2744391" lon="151.2900641">
  <ele>343.07</ele>
  <time>2026-09-01T19:54:20Z</time>
  <course>11.1</course>
  <speed>0.022360679774997897</speed>
  <fix>3d</fix>
</trkpt>
<trkpt lat="-27.2744389" lon="151.290064">
  <ele>343.1</ele>
  <time>2026-09-01T19:54:20Z</time>
  <course>6.6</course>
  <speed>0.0</speed>
  <fix>3d</fix>
</trkpt>
<trkpt lat="-27.2744391" lon="151.2900641">
  <ele>343.07</ele>
  <time>2026-09-01T19:54:20Z</time>
  <course>11.1</course>
  <speed>0.022360679774997897</speed>
  <fix>3d</fix>
</trkpt>
<trkpt lat="-27.2744389" lon="151.290064">
  <ele>343.1</ele>
  <time>2026-09-01T19:54:20Z</time>
  <course>6.6</course>
  <speed>0.0</speed>
  <fix>3d</fix>
</trkpt>
<trkpt lat="-27.2744391" lon="151.2900641">
  <ele>343.07</ele>
  <time>2026-09-01T19:54:20Z</time>
  <course>11.1</course>
  <speed>0.022360679774997897</speed>
  <fix>3d</fix>
</trkpt>
<trkpt lat="-27.2744389" lon="151.290064">
  <ele>343.1</ele>
  <time>2026-09-01T19:54:20Z</time>
  <course>0.97</course>
  <speed>0.0</speed>
  <fix>3d</fix>
</trkpt>
<trkpt lat="-27.2744391" lon="151.2900641">
  <ele>343.07</ele>
  <time>2026-09-01T19:54:20Z</time>
  <course>11.1</course>
  <speed>0.022360679774997897</speed>
  <fix>3d</fix>
</trkpt>
<trkpt lat="-27.2744389" lon="151.290064">
  <ele>343.1</ele>
  <time>2026-09-01T19:54:20Z</time>
  <course>0.97</course>
  <speed>0.0</speed>
  <fix>3d</fix>
</trkpt>
<trkpt lat="-27.2744391" lon="151.2900641">
  <ele>343.07</ele>
  <time>2026-09-01T19:54:20Z</time>
  <course>11.1</course>
  <speed>0.022360679774997897</speed>
  <fix>3d</fix>
</trkpt>
<trkpt lat="-27.2744389" lon="151.290064">
  <ele>343.1</ele>
  <time>2026-09-01T19:54:20Z</time>
  <course>10.16</course>
  <speed>0.0</speed>
  <fix>3d</fix>
</trkpt>
<trkpt lat="-27.2744391" lon="151.2900641">
  <ele>343.07</ele>
  <time>2026-09-01T19:54:20Z</time>
  <course>11.1</course>
  <speed>0.022360679774997897</speed>
  <fix>3d</fix>
</trkpt>
<trkpt lat="-27.2744389" lon="151.290064">
  <ele>343.1</ele>
  <time>2026-09-01T19:54:20Z</time>
  <course>10.16</course>
  <speed>0.0</speed>
  <fix>3d</fix>
</trkpt>
<trkpt lat="-27.2744391" lon="151.2900641">
  <ele>343.07</ele>
  <time>2026-09-01T19:54:20Z</time>
  <course>11.1</course>
  <speed>0.022360679774997897</speed>
  <fix>3d</fix>
</trkpt>
<trkpt lat="-27.2744389" lon="151.290064">
  <ele>343.1</ele>
  <time>2026-09-01T19:54:20Z</time>
  <course>18.28</course>
  <speed>0.0</speed>
  <fix>3d</fix>
</trkpt>
<trkpt lat="-27.2744391" lon="151.2900641">
  <ele>343.07</ele>
  <time>2026-09-01T19:54:20Z</time>
  <course>11.1</course>
  <speed>0.022360679774997897</speed>
  <fix>3d</fix>
</trkpt>
<trkpt lat="-27.2744389" lon="151.290064">
  <ele>343.1</ele>
  <time>2026-09-01T19:54:20Z</time>
  <course>18.28</course>
  <speed>0.0</speed>
  <fix>3d</fix>
</trkpt>
<trkpt lat="-27.2744391" lon="151.2900641">
  <ele>343.07</ele>
  <time>2026-09-01T19:54:20Z</time>
  <course>11.11</course>
  <speed>0.022360679774997897</speed>
  <fix>3d</fix>
</trkpt>
<trkpt lat="-27.2744389" lon="151.290064">
  <ele>343.1</ele>
  <time>2026-09-01T19:54:20Z</time>
  <course>24.43</course>
  <speed>0.0</speed>
  <fix>3d</fix>
</trkpt>
<trkpt lat="-27.2744391" lon="151.2900641">
  <ele>343.07</ele>
  <time>2026-09-01T19:54:20Z</time>
  <course>11.11</course>
  <speed>0.0316227766016838</speed>
  <fix>3d</fix>
</trkpt>
<trkpt lat="-27.2744389" lon="151.290064">
  <ele>343.1</ele>
  <time>2026-09-01T19:54:20Z</time>
  <course>24.43</course>
  <speed>0.0</speed>
  <fix>3d</fix>
</trkpt>
<trkpt lat="-27.2744391" lon="151.2900641">
  <ele>343.08</ele>
  <time>2026-09-01T19:54:20Z</time>
  <course>11.11</course>
  <speed>0.022360679774997897</speed>
  <fix>3d</fix>
</trkpt>
<trkpt lat="-27.2744389" lon="151.290064">
  <ele>343.1</ele>
  <time>2026-09-01T19:54:20Z</time>
  <course>187.8</course>
  <speed>0.0</speed>
  <fix>3d</fix>
</trkpt>
<trkpt lat="-27.2744391" lon="151.2900641">
  <ele>343.08</ele>
  <time>2026-09-01T19:54:20Z</time>
  <course>11.11</course>
  <speed>0.01414213562373095</speed>
  <fix>3d</fix>
</trkpt>
<trkpt lat="-27.2744389" lon="151.290064">
  <ele>343.1</ele>
  <time>2026-09-01T19:54:20Z</time>
  <course>187.8</course>
  <speed>0.0</speed>
  <fix>3d</fix>
</trkpt>
<trkpt lat="-27.2744391" lon="151.2900641">
  <ele>343.08</ele>
  <time>2026-09-01T19:54:20Z</time>
  <course>11.11</course>
  <speed>0.022360679774997897</speed>
  <fix>3d</fix>
</trkpt>
<trkpt lat="-27.2744389" lon="151.290064">
  <ele>343.1</ele>
  <time>2026-09-01T19:54:20Z</time>
  <course>187.68</course>
  <speed>0.0</speed>
  <fix>3d</fix>
</trkpt>
<trkpt lat="-27.2744391" lon="151.2900641">
  <ele>343.08</ele>
  <time>2026-09-01T19:54:20Z</time>
  <course>11.11</course>
  <speed>0.022360679774997897</speed>
  <fix>3d</fix>
</trkpt>
<trkpt lat="-27.2744389" lon="151.290064">
  <ele>343.1</ele>
  <time>2026-09-01T19:54:20Z</time>
  <course>187.68</course>
  <speed>0.0</speed>
  <fix>3d</fix>
</trkpt>
<trkpt lat="-27.2744391" lon="151.2900641">
  <ele>343.08</ele>
  <time>2026-09-01T19:54:20Z</time>
  <course>11.11</course>
  <speed>0.022360679774997897</speed>
  <fix>3d</fix>
</trkpt>
<trkpt lat="-27.2744389" lon="151.290064">
  <ele>343.1</ele>
  <time>2026-09-01T19:54:20Z</time>
  <course>8.83</course>
  <speed>0.0</speed>
  <fix>3d</fix>
</trkpt>
<trkpt lat="-27.2744391" lon="151.2900641">
  <ele>343.08</ele>
  <time>2026-09-01T19:54:20Z</time>
  <course>11.11</course>
  <speed>0.022360679774997897</speed>
  <fix>3d</fix>
</trkpt>
<trkpt lat="-27.2744389" lon="151.290064">
  <ele>343.1</ele>
  <time>2026-09-01T19:54:20Z</time>
  <course>8.83</course>
  <speed>0.0</speed>
  <fix>3d</fix>
</trkpt>
<trkpt lat="-27.2744391" lon="151.2900641">
  <ele>343.08</ele>
  <time>2026-09-01T19:54:20Z</time>
  <course>11.11</course>
  <speed>0.022360679774997897</speed>
  <fix>3d</fix>
</trkpt>
<trkpt lat="-27.2744389" lon="151.290064">
  <ele>343.1</ele>
  <time>2026-09-01T19:54:20Z</time>
  <course>22.58</course>
  <speed>0.0</speed>
  <fix>3d</fix>
</trkpt>
<trkpt lat="-27.2744391" lon="151.2900641">
  <ele>343.08</ele>
  <time>2026-09-01T19:54:20Z</time>
  <course>11.12</course>
  <speed>0.022360679774997897</speed>
  <fix>3d</fix>
</trkpt>
<trkpt lat="-27.2744389" lon="151.290064">
  <ele>343.1</ele>
  <time>2026-09-01T19:54:20Z</time>
  <course>22.58</course>
  <speed>0.0</speed>
  <fix>3d</fix>
</trkpt>
<trkpt lat="-27.2744391" lon="151.2900641">
  <ele>343.08</ele>
  <time>2026-09-01T19:54:20Z</time>
  <course>11.12</course>
  <speed>0.022360679774997897</speed>
  <fix>3d</fix>
</trkpt>
<trkpt lat="-27.2744389" lon="151.290064">
  <ele>343.1</ele>
  <time>2026-09-01T19:54:20Z</time>
  <course>191.16</course>
  <speed>0.0</speed>
  <fix>3d</fix>
</trkpt>
<trkpt lat="-27.2744391" lon="151.2900641">
  <ele>343.08</ele>
  <time>2026-09-01T19:54:20Z</time>
  <course>11.12</course>
  <speed>0.022360679774997897</speed>
  <fix>3d</fix>
</trkpt>
<trkpt lat="-27.2744389" lon="151.290064">
  <ele>343.1</ele>
  <time>2026-09-01T19:54:20Z</time>
  <course>191.16</course>
  <speed>0.0</speed>
  <fix>3d</fix>
</trkpt>
<trkpt lat="-27.2744391" lon="151.2900641">
  <ele>343.08</ele>
  <time>2026-09-01T19:54:20Z</time>
  <course>11.12</course>
  <speed>0.022360679774997897</speed>
  <fix>3d</fix>
</trkpt>
<trkpt lat="-27.2744389" lon="151.290064">
  <ele>343.1</ele>
  <time>2026-09-01T19:54:20Z</time>
  <course>6.07</course>
  <speed>0.0</speed>
  <fix>3d</fix>
</trkpt>
<trkpt lat="-27.2744391" lon="151.2900641">
  <ele>343.08</ele>
  <time>2026-09-01T19:54:20Z</time>
  <course>11.12</course>
  <speed>0.022360679774997897</speed>
  <fix>3d</fix>
</trkpt>
<trkpt lat="-27.2744389" lon="151.290064">
  <ele>343.1</ele>
  <time>2026-09-01T19:54:20Z</time>
  <course>6.07</course>
  <speed>0.0</speed>
  <fix>3d</fix>
</trkpt>
<trkpt lat="-27.2744391" lon="151.2900641">
  <ele>343.08</ele>
  <time>2026-09-01T19:54:20Z</time>
  <course>11.12</course>
  <speed>0.022360679774997897</speed>
  <fix>3d</fix>
</trkpt>
<trkpt lat="-27.2744389" lon="151.290064">
  <ele>343.1</ele>
  <time>2026-09-01T19:54:20Z</time>
  <course>18.9</course>
  <speed>0.0</speed>
  <fix>3d</fix>
</trkpt>
<trkpt lat="-27.2744391" lon="151.2900641">
  <ele>343.08</ele>
  <time>2026-09-01T19:54:20Z</time>
  <course>11.12</course>
  <speed>0.022360679774997897</speed>
  <fix>3d</fix>
</trkpt>
<trkpt lat="-27.2744389" lon="151.290064">
  <ele>343.1</ele>
  <time>2026-09-01T19:54:20Z</time>
  <course>18.9</course>
  <speed>0.0</speed>
  <fix>3d</fix>
</trkpt>
<trkpt lat="-27.2744391" lon="151.2900641">
  <ele>343.08</ele>
  <time>2026-09-01T19:54:20Z</time>
  <course>11.12</course>
  <speed>0.022360679774997897</speed>
  <fix>3d</fix>
</trkpt>
<trkpt lat="-27.2744389" lon="151.290064">
  <ele>343.1</ele>
  <time>2026-09-01T19:54:20Z</time>
  <course>22.33</course>
  <speed>0.0</speed>
  <fix>3d</fix>
</trkpt>
<trkpt lat="-27.2744391" lon="151.2900641">
  <ele>343.08</ele>
  <time>2026-09-01T19:54:20Z</time>
  <course>11.12</course>
  <speed>0.022360679774997897</speed>
  <fix>3d</fix>
</trkpt>
<trkpt lat="-27.2744389" lon="151.290064">
  <ele>343.1</ele>
  <time>2026-09-01T19:54:20Z</time>
  <course>22.33</course>
  <speed>0.0</speed>
  <fix>3d</fix>
</trkpt>
<trkpt lat="-27.2744391" lon="151.2900641">
  <ele>343.08</ele>
  <time>2026-09-01T19:54:20Z</time>
  <course>11.12</course>
  <speed>0.022360679774997897</speed>
  <fix>3d</fix>
</trkpt>
<trkpt lat="-27.2744389" lon="151.290064">
  <ele>343.1</ele>
  <time>2026-09-01T19:54:20Z</time>
  <course>0.76</course>
  <speed>0.0</speed>
  <fix>3d</fix>
</trkpt>
<trkpt lat="-27.2744391" lon="151.2900641">
  <ele>343.08</ele>
  <time>2026-09-01T19:54:20Z</time>
  <course>11.13</course>
  <speed>0.022360679774997897</speed>
  <fix>3d</fix>
</trkpt>
<trkpt lat="-27.2744389" lon="151.290064">
  <ele>343.1</ele>
  <time>2026-09-01T19:54:20Z</time>
  <course>0.76</course>
  <speed>0.0</speed>
  <fix>3d</fix>
</trkpt>
<trkpt lat="-27.2744391" lon="151.2900641">
  <ele>343.08</ele>
  <time>2026-09-01T19:54:20Z</time>
  <course>11.13</course>
  <speed>0.022360679774997897</speed>
  <fix>3d</fix>
</trkpt>
<trkpt lat="-27.2744389" lon="151.290064">
  <ele>343.1</ele>
  <time>2026-09-01T19:54:20Z</time>
  <course>340.69</course>
  <speed>0.0</speed>
  <fix>3d</fix>
</trkpt>
<trkpt lat="-27.2744391" lon="151.2900641">
  <ele>343.08</ele>
  <time>2026-09-01T19:54:20Z</time>
  <course>11.13</course>
  <speed>0.022360679774997897</speed>
  <fix>3d</fix>
</trkpt>
<trkpt lat="-27.2744389" lon="151.290064">
  <ele>343.1</ele>
  <time>2026-09-01T19:54:20Z</time>
  <course>340.69</course>
  <speed>0.0</speed>
  <fix>3d</fix>
</trkpt>
<trkpt lat="-27.2744391" lon="151.2900641">
  <ele>343.08</ele>
  <time>2026-09-01T19:54:20Z</time>
  <course>11.13</course>
  <speed>0.022360679774997897</speed>
  <fix>3d</fix>
</trkpt>
<trkpt lat="-27.2744389" lon="151.290064">
  <ele>343.1</ele>
  <time>2026-09-01T19:54:20Z</time>
  <course>357.6</course>
  <speed>0.0</speed>
  <fix>3d</fix>
</trkpt>
<trkpt lat="-27.2744391" lon="151.2900641">
  <ele>343.08</ele>
  <time>2026-09-01T19:54:20Z</time>
  <course>11.13</course>
  <speed>0.022360679774997897</speed>
  <fix>3d</fix>
</trkpt>
<trkpt lat="-27.2744389" lon="151.290064">
  <ele>343.1</ele>
  <time>2026-09-01T19:54:20Z</time>
  <course>357.6</course>
  <speed>0.0</speed>
  <fix>3d</fix>
</trkpt>
<trkpt lat="-27.2744391" lon="151.2900641">
  <ele>343.08</ele>
  <time>2026-09-01T19:54:20Z</time>
  <course>11.13</course>
  <speed>0.022360679774997897</speed>
  <fix>3d</fix>
</trkpt>
<trkpt lat="-27.2744389" lon="151.290064">
  <ele>343.1</ele>
  <time>2026-09-01T19:54:20Z</time>
  <course>16.2</course>
  <speed>0.0</speed>
  <fix>3d</fix>
</trkpt>
<trkpt lat="-27.2744391" lon="151.2900641">
  <ele>343.09</ele>
  <time>2026-09-01T19:54:20Z</time>
  <course>11.13</course>
  <speed>0.022360679774997897</speed>
  <fix>3d</fix>
</trkpt>
<trkpt lat="-27.2744389" lon="151.290064">
  <ele>343.1</ele>
  <time>2026-09-01T19:54:20Z</time>
  <course>16.2</course>
  <speed>0.0</speed>
  <fix>3d</fix>
</trkpt>
<trkpt lat="-27.2744391" lon="151.2900641">
  <ele>343.08</ele>
  <time>2026-09-01T19:54:20Z</time>
  <course>11.13</course>
  <speed>0.022360679774997897</speed>
  <fix>3d</fix>
</trkpt>
<trkpt lat="-27.2744389" lon="151.290064">
  <ele>343.1</ele>
  <time>2026-09-01T19:54:20Z</time>
  <course>2.09</course>
  <speed>0.0</speed>
  <fix>3d</fix>
</trkpt>
<trkpt lat="-27.2744391" lon="151.2900641">
  <ele>343.08</ele>
  <time>2026-09-01T19:54:20Z</time>
  <course>11.13</course>
  <speed>0.022360679774997897</speed>
  <fix>3d</fix>
</trkpt>
<trkpt lat="-27.2744389" lon="151.290064">
  <ele>343.1</ele>
  <time>2026-09-01T19:54:20Z</time>
  <course>2.09</course>
  <speed>0.0</speed>
  <fix>3d</fix>
</trkpt>
<trkpt lat="-27.2744391" lon="151.2900641">
  <ele>343.08</ele>
  <time>2026-09-01T19:54:20Z</time>
  <course>11.14</course>
  <speed>0.022360679774997897</speed>
  <fix>3d</fix>
</trkpt>
<trkpt lat="-27.2744389" lon="151.290064">
  <ele>343.1</ele>
  <time>2026-09-01T19:54:20Z</time>
  <course>353.29</course>
  <speed>0.0</speed>
  <fix>3d</fix>
</trkpt>
<trkpt lat="-27.2744391" lon="151.2900641">
  <ele>343.08</ele>
  <time>2026-09-01T19:54:20Z</time>
  <course>11.14</course>
  <speed>0.022360679774997897</speed>
  <fix>3d</fix>
</trkpt>
<trkpt lat="-27.2744389" lon="151.290064">
  <ele>343.1</ele>
  <time>2026-09-01T19:54:20Z</time>
  <course>353.29</course>
  <speed>0.0</speed>
  <fix>3d</fix>
</trkpt>
<trkpt lat="-27.2744391" lon="151.2900641">
  <ele>343.08</ele>
  <time>2026-09-01T19:54:20Z</time>
  <course>11.14</course>
  <speed>0.022360679774997897</speed>
  <fix>3d</fix>
</trkpt>
<trkpt lat="-27.2744389" lon="151.290064">
  <ele>343.1</ele>
  <time>2026-09-01T19:54:20Z</time>
  <course>355.87</course>
  <speed>0.0</speed>
  <fix>3d</fix>
</trkpt>
<trkpt lat="-27.2744391" lon="151.2900641">
  <ele>343.08</ele>
  <time>2026-09-01T19:54:20Z</time>
  <course>11.14</course>
  <speed>0.022360679774997897</speed>
  <fix>3d</fix>
</trkpt>
<trkpt lat="-27.2744389" lon="151.290064">
  <ele>343.1</ele>
  <time>2026-09-01T19:54:20Z</time>
  <course>355.87</course>
  <speed>0.0</speed>
  <fix>3d</fix>
</trkpt>
<trkpt lat="-27.2744391" lon="151.2900641">
  <ele>343.08</ele>
  <time>2026-09-01T19:54:20Z</time>
  <course>11.14</course>
  <speed>0.022360679774997897</speed>
  <fix>3d</fix>
</trkpt>
<trkpt lat="-27.2744389" lon="151.290064">
  <ele>343.1</ele>
  <time>2026-09-01T19:54:20Z</time>
  <course>26.09</course>
  <speed>0.0</speed>
  <fix>3d</fix>
</trkpt>
<trkpt lat="-27.2744391" lon="151.2900641">
  <ele>343.08</ele>
  <time>2026-09-01T19:54:20Z</time>
  <course>11.14</course>
  <speed>0.022360679774997897</speed>
  <fix>3d</fix>
</trkpt>
<trkpt lat="-27.2744389" lon="151.290064">
  <ele>343.1</ele>
  <time>2026-09-01T19:54:20Z</time>
  <course>26.09</course>
  <speed>0.0</speed>
  <fix>3d</fix>
</trkpt>
<trkpt lat="-27.2744391" lon="151.2900641">
  <ele>343.1</ele>
  <time>2026-09-01T19:54:20Z</time>
  <course>11.14</course>
  <speed>0.022360679774997897</speed>
  <fix>3d</fix>
</trkpt>
<trkpt lat="-27.2744388" lon="151.290064">
  <ele>343.1</ele>
  <time>2026-09-01T19:54:20Z</time>
  <course>1.69</course>
  <speed>0.0</speed>
  <fix>3d</fix>
</trkpt>
<trkpt lat="-27.2744391" lon="151.2900641">
  <ele>343.09</ele>
  <time>2026-09-01T19:54:20Z</time>
  <course>11.14</course>
  <speed>0.022360679774997897</speed>
  <fix>3d</fix>
</trkpt>
<trkpt lat="-27.2744388" lon="151.290064">
  <ele>343.1</ele>
  <time>2026-09-01T19:54:20Z</time>
  <course>1.69</course>
  <speed>0.0</speed>
  <fix>3d</fix>
</trkpt>
<trkpt lat="-27.2744391" lon="151.2900641">
  <ele>343.09</ele>
  <time>2026-09-01T19:54:20Z</time>
  <course>11.14</course>
  <speed>0.022360679774997897</speed>
  <fix>3d</fix>
</trkpt>
<trkpt lat="-27.2744388" lon="151.290064">
  <ele>343.1</ele>
  <time>2026-09-01T19:54:20Z</time>
  <course>348.04</course>
  <speed>0.0</speed>
  <fix>3d</fix>
</trkpt>
<trkpt lat="-27.2744391" lon="151.2900641">
  <ele>343.1</ele>
  <time>2026-09-01T19:54:20Z</time>
  <course>11.14</course>
  <speed>0.022360679774997897</speed>
  <fix>3d</fix>
</trkpt>
<trkpt lat="-27.2744388" lon="151.290064">
  <ele>343.1</ele>
  <time>2026-09-01T19:54:20Z</time>
  <course>348.04</course>
  <speed>0.0</speed>
  <fix>3d</fix>
</trkpt>
<trkpt lat="-27.2744391" lon="151.2900641">
  <ele>343.1</ele>
  <time>2026-09-01T19:54:20Z</time>
  <course>11.14</course>
  <speed>0.022360679774997897</speed>
  <fix>3d</fix>
</trkpt>
<trkpt lat="-27.2744388" lon="151.290064">
  <ele>343.1</ele>
  <time>2026-09-01T19:54:20Z</time>
  <course>23.54</course>
  <speed>0.0</speed>
  <fix>3d</fix>
</trkpt>
<trkpt lat="-27.2744391" lon="151.2900641">
  <ele>343.1</ele>
  <time>2026-09-01T19:54:20Z</time>
  <course>11.15</course>
  <speed>0.022360679774997897</speed>
  <fix>3d</fix>
</trkpt>
<trkpt lat="-27.2744388" lon="151.290064">
  <ele>343.1</ele>
  <time>2026-09-01T19:54:20Z</time>
  <course>23.54</course>
  <speed>0.0</speed>
  <fix>3d</fix>
</trkpt>
<trkpt lat="-27.2744391" lon="151.2900641">
  <ele>343.11</ele>
  <time>2026-09-01T19:54:20Z</time>
  <course>11.15</course>
  <speed>0.022360679774997897</speed>
  <fix>3d</fix>
</trkpt>
<trkpt lat="-27.2744388" lon="151.290064">
  <ele>343.1</ele>
  <time>2026-09-01T19:54:20Z</time>
  <course>13.7</course>
  <speed>0.0</speed>
  <fix>3d</fix>
</trkpt>
<trkpt lat="-27.2744391" lon="151.2900641">
  <ele>343.11</ele>
  <time>2026-09-01T19:54:20Z</time>
  <course>11.15</course>
  <speed>0.022360679774997897</speed>
  <fix>3d</fix>
</trkpt>
<trkpt lat="-27.2744388" lon="151.290064">
  <ele>343.1</ele>
  <time>2026-09-01T19:54:20Z</time>
  <course>13.7</course>
  <speed>0.0</speed>
  <fix>3d</fix>
</trkpt>
<trkpt lat="-27.2744391" lon="151.2900641">
  <ele>343.11</ele>
  <time>2026-09-01T19:54:20Z</time>
  <course>11.15</course>
  <speed>0.022360679774997897</speed>
  <fix>3d</fix>
</trkpt>
<trkpt lat="-27.2744388" lon="151.290064">
  <ele>343.1</ele>
  <time>2026-09-01T19:54:20Z</time>
  <course>8.8</course>
  <speed>0.0</speed>
  <fix>3d</fix>
</trkpt>
<trkpt lat="-27.2744391" lon="151.2900641">
  <ele>343.12</ele>
  <time>2026-09-01T19:54:20Z</time>
  <course>11.15</course>
  <speed>0.022360679774997897</speed>
  <fix>3d</fix>
</trkpt>
<trkpt lat="-27.2744388" lon="151.290064">
  <ele>343.1</ele>
  <time>2026-09-01T19:54:20Z</time>
  <course>8.8</course>
  <speed>0.0</speed>
  <fix>3d</fix>
</trkpt>
<trkpt lat="-27.2744391" lon="151.2900641">
  <ele>343.12</ele>
  <time>2026-09-01T19:54:20Z</time>
  <course>11.15</course>
  <speed>0.022360679774997897</speed>
  <fix>3d</fix>
</trkpt>
<trkpt lat="-27.2744388" lon="151.290064">
  <ele>343.1</ele>
  <time>2026-09-01T19:54:20Z</time>
  <course>5.8</course>
  <speed>0.0</speed>
  <fix>3d</fix>
</trkpt>
<trkpt lat="-27.2744391" lon="151.2900641">
  <ele>343.13</ele>
  <time>2026-09-01T19:54:20Z</time>
  <course>11.15</course>
  <speed>0.022360679774997897</speed>
  <fix>3d</fix>
</trkpt>
<trkpt lat="-27.2744388" lon="151.290064">
  <ele>343.1</ele>
  <time>2026-09-01T19:54:20Z</time>
  <course>5.8</course>
  <speed>0.0</speed>
  <fix>3d</fix>
</trkpt>
<trkpt lat="-27.2744391" lon="151.2900641">
  <ele>343.13</ele>
  <time>2026-09-01T19:54:20Z</time>
  <course>11.15</course>
  <speed>0.022360679774997897</speed>
  <fix>3d</fix>
</trkpt>
<trkpt lat="-27.2744388" lon="151.290064">
  <ele>343.1</ele>
  <time>2026-09-01T19:54:20Z</time>
  <course>10.78</course>
  <speed>0.0</speed>
  <fix>3d</fix>
</trkpt>
<trkpt lat="-27.2744391" lon="151.2900641">
  <ele>343.13</ele>
  <time>2026-09-01T19:54:20Z</time>
  <course>11.15</course>
  <speed>0.022360679774997897</speed>
  <fix>3d</fix>
</trkpt>
<trkpt lat="-27.2744388" lon="151.290064">
  <ele>343.1</ele>
  <time>2026-09-01T19:54:20Z</time>
  <course>10.78</course>
  <speed>0.0</speed>
  <fix>3d</fix>
</trkpt>
<trkpt lat="-27.2744391" lon="151.2900641">
  <ele>343.14</ele>
  <time>2026-09-01T19:54:20Z</time>
  <course>11.16</course>
  <speed>0.022360679774997897</speed>
  <fix>3d</fix>
</trkpt>
<trkpt lat="-27.2744388" lon="151.290064">
  <ele>343.1</ele>
  <time>2026-09-01T19:54:20Z</time>
  <course>4.16</course>
  <speed>0.0</speed>
  <fix>3d</fix>
</trkpt>
<trkpt lat="-27.2744391" lon="151.2900641">
  <ele>343.14</ele>
  <time>2026-09-01T19:54:20Z</time>
  <course>11.16</course>
  <speed>0.022360679774997897</speed>
  <fix>3d</fix>
</trkpt>
<trkpt lat="-27.2744388" lon="151.290064">
  <ele>343.1</ele>
  <time>2026-09-01T19:54:20Z</time>
  <course>4.16</course>
  <speed>0.0</speed>
  <fix>3d</fix>
</trkpt>
<trkpt lat="-27.2744391" lon="151.2900641">
  <ele>343.15</ele>
  <time>2026-09-01T19:54:20Z</time>
  <course>11.16</course>
  <speed>0.022360679774997897</speed>
  <fix>3d</fix>
</trkpt>
<trkpt lat="-27.2744388" lon="151.290064">
  <ele>343.1</ele>
  <time>2026-09-01T19:54:20Z</time>
  <course>350.44</course>
  <speed>0.0</speed>
  <fix>3d</fix>
</trkpt>
<trkpt lat="-27.2744391" lon="151.2900641">
  <ele>343.15</ele>
  <time>2026-09-01T19:54:20Z</time>
  <course>11.16</course>
  <speed>0.0316227766016838</speed>
  <fix>3d</fix>
</trkpt>
<trkpt lat="-27.2744388" lon="151.290064">
  <ele>343.1</ele>
  <time>2026-09-01T19:54:20Z</time>
  <course>350.44</course>
  <speed>0.0</speed>
  <fix>3d</fix>
</trkpt>
<trkpt lat="-27.2744391" lon="151.2900641">
  <ele>343.15</ele>
  <time>2026-09-01T19:54:20Z</time>
  <course>11.16</course>
  <speed>0.022360679774997897</speed>
  <fix>3d</fix>
</trkpt>
<trkpt lat="-27.2744388" lon="151.290064">
  <ele>343.1</ele>
  <time>2026-09-01T19:54:20Z</time>
  <course>188.19</course>
  <speed>0.0</speed>
  <fix>3d</fix>
</trkpt>
<trkpt lat="-27.2744391" lon="151.2900641">
  <ele>343.16</ele>
  <time>2026-09-01T19:54:20Z</time>
  <course>11.16</course>
  <speed>0.01414213562373095</speed>
  <fix>3d</fix>
</trkpt>
<trkpt lat="-27.2744388" lon="151.290064">
  <ele>343.1</ele>
  <time>2026-09-01T19:54:20Z</time>
  <course>188.19</course>
  <speed>0.0</speed>
  <fix>3d</fix>
</trkpt>
<trkpt lat="-27.2744391" lon="151.2900641">
  <ele>343.16</ele>
  <time>2026-09-01T19:54:20Z</time>
  <course>11.16</course>
  <speed>0.01414213562373095</speed>
  <fix>3d</fix>
</trkpt>
<trkpt lat="-27.2744389" lon="151.290064">
  <ele>343.1</ele>
  <time>2026-09-01T19:54:20Z</time>
  <course>186.59</course>
  <speed>0.0</speed>
  <fix>3d</fix>
</trkpt>
<trkpt lat="-27.2744391" lon="151.2900641">
  <ele>343.16</ele>
  <time>2026-09-01T19:54:20Z</time>
  <course>11.16</course>
  <speed>0.022360679774997897</speed>
  <fix>3d</fix>
</trkpt>
<trkpt lat="-27.2744389" lon="151.290064">
  <ele>343.1</ele>
  <time>2026-09-01T19:54:20Z</time>
  <course>186.59</course>
  <speed>0.0</speed>
  <fix>3d</fix>
</trkpt>
<trkpt lat="-27.2744391" lon="151.2900641">
  <ele>343.17</ele>
  <time>2026-09-01T19:54:20Z</time>
  <course>11.16</course>
  <speed>0.022360679774997897</speed>
  <fix>3d</fix>
</trkpt>
<trkpt lat="-27.2744388" lon="151.290064">
  <ele>343.1</ele>
  <time>2026-09-01T19:54:20Z</time>
  <course>7.92</course>
  <speed>0.0</speed>
  <fix>3d</fix>
</trkpt>
<trkpt lat="-27.2744391" lon="151.2900641">
  <ele>343.17</ele>
  <time>2026-09-01T19:54:20Z</time>
  <course>11.16</course>
  <speed>0.022360679774997897</speed>
  <fix>3d</fix>
</trkpt>
<trkpt lat="-27.2744388" lon="151.290064">
  <ele>343.1</ele>
  <time>2026-09-01T19:54:20Z</time>
  <course>7.92</course>
  <speed>0.0</speed>
  <fix>3d</fix>
</trkpt>
<trkpt lat="-27.2744391" lon="151.2900641">
  <ele>343.17</ele>
  <time>2026-09-01T19:54:20Z</time>
  <course>11.17</course>
  <speed>0.022360679774997897</speed>
  <fix>3d</fix>
</trkpt>
<trkpt lat="-27.2744388" lon="151.290064">
  <ele>343.1</ele>
  <time>2026-09-01T19:54:20Z</time>
  <course>341.98</course>
  <speed>0.0</speed>
  <fix>3d</fix>
</trkpt>
<trkpt lat="-27.2744391" lon="151.2900641">
  <ele>343.18</ele>
  <time>2026-09-01T19:54:20Z</time>
  <course>11.17</course>
  <speed>0.022360679774997897</speed>
  <fix>3d</fix>
</trkpt>
<trkpt lat="-27.2744388" lon="151.290064">
  <ele>343.1</ele>
  <time>2026-09-01T19:54:20Z</time>
  <course>341.98</course>
  <speed>0.0</speed>
  <fix>3d</fix>
</trkpt>
<trkpt lat="-27.2744391" lon="151.2900641">
  <ele>343.18</ele>
  <time>2026-09-01T19:54:20Z</time>
  <course>11.17</course>
  <speed>0.022360679774997897</speed>
  <fix>3d</fix>
</trkpt>
<trkpt lat="-27.2744388" lon="151.290064">
  <ele>343.1</ele>
  <time>2026-09-01T19:54:20Z</time>
  <course>213.41</course>
  <speed>0.0</speed>
  <fix>3d</fix>
</trkpt>
<trkpt lat="-27.2744391" lon="151.2900641">
  <ele>343.18</ele>
  <time>2026-09-01T19:54:20Z</time>
  <course>11.17</course>
  <speed>0.022360679774997897</speed>
  <fix>3d</fix>
</trkpt>
<trkpt lat="-27.2744388" lon="151.290064">
  <ele>343.1</ele>
  <time>2026-09-01T19:54:20Z</time>
  <course>213.41</course>
  <speed>0.0</speed>
  <fix>3d</fix>
</trkpt>
<trkpt lat="-27.2744391" lon="151.2900641">
  <ele>343.19</ele>
  <time>2026-09-01T19:54:20Z</time>
  <course>11.17</course>
  <speed>0.022360679774997897</speed>
  <fix>3d</fix>
</trkpt>
<trkpt lat="-27.2744388" lon="151.290064">
  <ele>343.1</ele>
  <time>2026-09-01T19:54:20Z</time>
  <course>9.06</course>
  <speed>0.0</speed>
  <fix>3d</fix>
</trkpt>
<trkpt lat="-27.2744391" lon="151.2900641">
  <ele>343.19</ele>
  <time>2026-09-01T19:54:20Z</time>
  <course>11.17</course>
  <speed>0.022360679774997897</speed>
  <fix>3d</fix>
</trkpt>
<trkpt lat="-27.2744388" lon="151.290064">
  <ele>343.1</ele>
  <time>2026-09-01T19:54:20Z</time>
  <course>9.06</course>
  <speed>0.0</speed>
  <fix>3d</fix>
</trkpt>
<trkpt lat="-27.2744391" lon="151.2900641">
  <ele>343.19</ele>
  <time>2026-09-01T19:54:20Z</time>
  <course>11.17</course>
  <speed>0.022360679774997897</speed>
  <fix>3d</fix>
</trkpt>
<trkpt lat="-27.2744388" lon="151.290064">
  <ele>343.1</ele>
  <time>2026-09-01T19:54:20Z</time>
  <course>19.65</course>
  <speed>0.0</speed>
  <fix>3d</fix>
</trkpt>
<trkpt lat="-27.2744391" lon="151.2900641">
  <ele>343.2</ele>
  <time>2026-09-01T19:54:20Z</time>
  <course>11.17</course>
  <speed>0.022360679774997897</speed>
  <fix>3d</fix>
</trkpt>
<trkpt lat="-27.2744388" lon="151.290064">
  <ele>343.1</ele>
  <time>2026-09-01T19:54:20Z</time>
  <course>19.65</course>
  <speed>0.0</speed>
  <fix>3d</fix>
</trkpt>
<trkpt lat="-27.2744391" lon="151.2900641">
  <ele>343.2</ele>
  <time>2026-09-01T19:54:20Z</time>
  <course>11.17</course>
  <speed>0.022360679774997897</speed>
  <fix>3d</fix>
</trkpt>
<trkpt lat="-27.2744388" lon="151.290064">
  <ele>343.1</ele>
  <time>2026-09-01T19:54:20Z</time>
  <course>7.99</course>
  <speed>0.0</speed>
  <fix>3d</fix>
</trkpt>
<trkpt lat="-27.274439" lon="151.2900641">
  <ele>343.2</ele>
  <time>2026-09-01T19:54:20Z</time>
  <course>11.17</course>
  <speed>0.022360679774997897</speed>
  <fix>3d</fix>
</trkpt>
<trkpt lat="-27.2744388" lon="151.290064">
  <ele>343.1</ele>
  <time>2026-09-01T19:54:20Z</time>
  <course>7.99</course>
  <speed>0.0</speed>
  <fix>3d</fix>
</trkpt>
<trkpt lat="-27.274439" lon="151.2900641">
  <ele>343.2</ele>
  <time>2026-09-01T19:54:20Z</time>
  <course>11.18</course>
  <speed>0.022360679774997897</speed>
  <fix>3d</fix>
</trkpt>
<trkpt lat="-27.2744388" lon="151.290064">
  <ele>343.1</ele>
  <time>2026-09-01T19:54:20Z</time>
  <course>359.82</course>
  <speed>0.0</speed>
  <fix>3d</fix>
</trkpt>
<trkpt lat="-27.274439" lon="151.2900641">
  <ele>343.21</ele>
  <time>2026-09-01T19:54:20Z</time>
  <course>11.18</course>
  <speed>0.022360679774997897</speed>
  <fix>3d</fix>
</trkpt>
<trkpt lat="-27.2744388" lon="151.290064">
  <ele>343.1</ele>
  <time>2026-09-01T19:54:20Z</time>
  <course>359.82</course>
  <speed>0.0</speed>
  <fix>3d</fix>
</trkpt>
<trkpt lat="-27.274439" lon="151.2900641">
  <ele>343.21</ele>
  <time>2026-09-01T19:54:20Z</time>
  <course>11.18</course>
  <speed>0.022360679774997897</speed>
  <fix>3d</fix>
</trkpt>
<trkpt lat="-27.2744388" lon="151.290064">
  <ele>343.1</ele>
  <time>2026-09-01T19:54:20Z</time>
  <course>353.09</course>
  <speed>0.0</speed>
  <fix>3d</fix>
</trkpt>
<trkpt lat="-27.274439" lon="151.2900641">
  <ele>343.21</ele>
  <time>2026-09-01T19:54:20Z</time>
  <course>11.18</course>
  <speed>0.022360679774997897</speed>
  <fix>3d</fix>
</trkpt>
<trkpt lat="-27.2744388" lon="151.290064">
  <ele>343.1</ele>
  <time>2026-09-01T19:54:20Z</time>
  <course>353.09</course>
  <speed>0.0</speed>
  <fix>3d</fix>
</trkpt>
<trkpt lat="-27.274439" lon="151.2900641">
  <ele>343.22</ele>
  <time>2026-09-01T19:54:20Z</time>
  <course>11.18</course>
  <speed>0.022360679774997897</speed>
  <fix>3d</fix>
</trkpt>
<trkpt lat="-27.2744388" lon="151.290064">
  <ele>343.1</ele>
  <time>2026-09-01T19:54:20Z</time>
  <course>359.73</course>
  <speed>0.0</speed>
  <fix>3d</fix>
</trkpt>
<trkpt lat="-27.274439" lon="151.2900641">
  <ele>343.22</ele>
  <time>2026-09-01T19:54:20Z</time>
  <course>11.18</course>
  <speed>0.022360679774997897</speed>
  <fix>3d</fix>
</trkpt>
<trkpt lat="-27.2744388" lon="151.290064">
  <ele>343.1</ele>
  <time>2026-09-01T19:54:20Z</time>
  <course>359.73</course>
  <speed>0.0</speed>
  <fix>3d</fix>
</trkpt>
<trkpt lat="-27.274439" lon="151.2900641">
  <ele>343.23</ele>
  <time>2026-09-01T19:54:20Z</time>
  <course>11.18</course>
  <speed>0.022360679774997897</speed>
  <fix>3d</fix>
</trkpt>
<trkpt lat="-27.2744388" lon="151.290064">
  <ele>343.1</ele>
  <time>2026-09-01T19:54:20Z</time>
  <course>13.59</course>
  <speed>0.0</speed>
  <fix>3d</fix>
</trkpt>
<trkpt lat="-27.274439" lon="151.2900641">
  <ele>343.23</ele>
  <time>2026-09-01T19:54:20Z</time>
  <course>11.18</course>
  <speed>0.022360679774997897</speed>
  <fix>3d</fix>
</trkpt>
<trkpt lat="-27.2744388" lon="151.290064">
  <ele>343.1</ele>
  <time>2026-09-01T19:54:20Z</time>
  <course>13.59</course>
  <speed>0.0</speed>
  <fix>3d</fix>
</trkpt>
<trkpt lat="-27.274439" lon="151.2900641">
  <ele>343.23</ele>
  <time>2026-09-01T19:54:20Z</time>
  <course>11.18</course>
  <speed>0.022360679774997897</speed>
  <fix>3d</fix>
</trkpt>
<trkpt lat="-27.2744388" lon="151.290064">
  <ele>343.1</ele>
  <time>2026-09-01T19:54:20Z</time>
  <course>6.76</course>
  <speed>0.0</speed>
  <fix>3d</fix>
</trkpt>
<trkpt lat="-27.274439" lon="151.2900641">
  <ele>343.23</ele>
  <time>2026-09-01T19:54:20Z</time>
  <course>11.19</course>
  <speed>0.022360679774997897</speed>
  <fix>3d</fix>
</trkpt>
<trkpt lat="-27.2744388" lon="151.290064">
  <ele>343.1</ele>
  <time>2026-09-01T19:54:20Z</time>
  <course>6.76</course>
  <speed>0.0</speed>
  <fix>3d</fix>
</trkpt>
<trkpt lat="-27.274439" lon="151.2900641">
  <ele>343.24</ele>
  <time>2026-09-01T19:54:20Z</time>
  <course>11.19</course>
  <speed>0.022360679774997897</speed>
  <fix>3d</fix>
</trkpt>
<trkpt lat="-27.2744388" lon="151.290064">
  <ele>343.1</ele>
  <time>2026-09-01T19:54:20Z</time>
  <course>10.1</course>
  <speed>0.0</speed>
  <fix>3d</fix>
</trkpt>
<trkpt lat="-27.274439" lon="151.2900641">
  <ele>343.24</ele>
  <time>2026-09-01T19:54:20Z</time>
  <course>11.19</course>
  <speed>0.022360679774997897</speed>
  <fix>3d</fix>
</trkpt>
<trkpt lat="-27.2744388" lon="151.290064">
  <ele>343.1</ele>
  <time>2026-09-01T19:54:20Z</time>
  <course>10.1</course>
  <speed>0.0</speed>
  <fix>3d</fix>
</trkpt>
<trkpt lat="-27.274439" lon="151.2900641">
  <ele>343.24</ele>
  <time>2026-09-01T19:54:20Z</time>
  <course>11.19</course>
  <speed>0.022360679774997897</speed>
  <fix>3d</fix>
</trkpt>
<trkpt lat="-27.2744388" lon="151.290064">
  <ele>343.1</ele>
  <time>2026-09-01T19:54:20Z</time>
  <course>23.26</course>
  <speed>0.0</speed>
  <fix>3d</fix>
</trkpt>
<trkpt lat="-27.274439" lon="151.2900641">
  <ele>343.24</ele>
  <time>2026-09-01T19:54:20Z</time>
  <course>11.19</course>
  <speed>0.022360679774997897</speed>
  <fix>3d</fix>
</trkpt>
<trkpt lat="-27.2744388" lon="151.290064">
  <ele>343.1</ele>
  <time>2026-09-01T19:54:20Z</time>
  <course>23.26</course>
  <speed>0.0</speed>
  <fix>3d</fix>
</trkpt>
<trkpt lat="-27.274439" lon="151.2900641">
  <ele>343.24</ele>
  <time>2026-09-01T19:54:20Z</time>
  <course>11.19</course>
  <speed>0.022360679774997897</speed>
  <fix>3d</fix>
</trkpt>
<trkpt lat="-27.2744388" lon="151.290064">
  <ele>343.1</ele>
  <time>2026-09-01T19:54:20Z</time>
  <course>27.31</course>
  <speed>0.0</speed>
  <fix>3d</fix>
</trkpt>
<trkpt lat="-27.274439" lon="151.2900641">
  <ele>343.24</ele>
  <time>2026-09-01T19:54:20Z</time>
  <course>11.19</course>
  <speed>0.022360679774997897</speed>
  <fix>3d</fix>
</trkpt>
<trkpt lat="-27.2744388" lon="151.290064">
  <ele>343.1</ele>
  <time>2026-09-01T19:54:20Z</time>
  <course>27.31</course>
  <speed>0.0</speed>
  <fix>3d</fix>
</trkpt>
<trkpt lat="-27.274439" lon="151.2900641">
  <ele>343.24</ele>
  <time>2026-09-01T19:54:20Z</time>
  <course>11.19</course>
  <speed>0.022360679774997897</speed>
  <fix>3d</fix>
</trkpt>
<trkpt lat="-27.2744388" lon="151.290064">
  <ele>343.1</ele>
  <time>2026-09-01T19:54:20Z</time>
  <course>0.34</course>
  <speed>0.0</speed>
  <fix>3d</fix>
</trkpt>
<trkpt lat="-27.274439" lon="151.2900641">
  <ele>343.24</ele>
  <time>2026-09-01T19:54:20Z</time>
  <course>11.19</course>
  <speed>0.022360679774997897</speed>
  <fix>3d</fix>
</trkpt>
<trkpt lat="-27.2744388" lon="151.290064">
  <ele>343.1</ele>
  <time>2026-09-01T19:54:20Z</time>
  <course>0.34</course>
  <speed>0.0</speed>
  <fix>3d</fix>
</trkpt>
<trkpt lat="-27.274439" lon="151.2900641">
  <ele>343.24</ele>
  <time>2026-09-01T19:54:20Z</time>
  <course>11.19</course>
  <speed>0.022360679774997897</speed>
  <fix>3d</fix>
</trkpt>
<trkpt lat="-27.2744388" lon="151.290064">
  <ele>343.1</ele>
  <time>2026-09-01T19:54:20Z</time>
  <course>344.06</course>
  <speed>0.0</speed>
  <fix>3d</fix>
</trkpt>
<trkpt lat="-27.274439" lon="151.2900641">
  <ele>343.24</ele>
  <time>2026-09-01T19:54:20Z</time>
  <course>11.2</course>
  <speed>0.022360679774997897</speed>
  <fix>3d</fix>
</trkpt>
<trkpt lat="-27.2744388" lon="151.290064">
  <ele>343.1</ele>
  <time>2026-09-01T19:54:20Z</time>
  <course>344.06</course>
  <speed>0.0</speed>
  <fix>3d</fix>
</trkpt>
<trkpt lat="-27.274439" lon="151.2900641">
  <ele>343.24</ele>
  <time>2026-09-01T19:54:20Z</time>
  <course>11.2</course>
  <speed>0.022360679774997897</speed>
  <fix>3d</fix>
</trkpt>
<trkpt lat="-27.2744388" lon="151.290064">
  <ele>343.1</ele>
  <time>2026-09-01T19:54:20Z</time>
  <course>345.74</course>
  <speed>0.0</speed>
  <fix>3d</fix>
</trkpt>
<trkpt lat="-27.274439" lon="151.2900641">
  <ele>343.24</ele>
  <time>2026-09-01T19:54:20Z</time>
  <course>11.2</course>
  <speed>0.022360679774997897</speed>
  <fix>3d</fix>
</trkpt>
<trkpt lat="-27.2744388" lon="151.290064">
  <ele>343.1</ele>
  <time>2026-09-01T19:54:20Z</time>
  <course>345.74</course>
  <speed>0.0</speed>
  <fix>3d</fix>
</trkpt>
<trkpt lat="-27.274439" lon="151.2900641">
  <ele>343.24</ele>
  <time>2026-09-01T19:54:20Z</time>
  <course>11.2</course>
  <speed>0.022360679774997897</speed>
  <fix>3d</fix>
</trkpt>
<trkpt lat="-27.2744388" lon="151.290064">
  <ele>343.1</ele>
  <time>2026-09-01T19:54:20Z</time>
  <course>3.9</course>
  <speed>0.0</speed>
  <fix>3d</fix>
</trkpt>
<trkpt lat="-27.274439" lon="151.2900641">
  <ele>343.24</ele>
  <time>2026-09-01T19:54:20Z</time>
  <course>11.2</course>
  <speed>0.022360679774997897</speed>
  <fix>3d</fix>
</trkpt>
<trkpt lat="-27.2744388" lon="151.290064">
  <ele>343.1</ele>
  <time>2026-09-01T19:54:20Z</time>
  <course>3.9</course>
  <speed>0.0</speed>
  <fix>3d</fix>
</trkpt>
<trkpt lat="-27.274439" lon="151.2900641">
  <ele>343.24</ele>
  <time>2026-09-01T19:54:20Z</time>
  <course>11.2</course>
  <speed>0.022360679774997897</speed>
  <fix>3d</fix>
</trkpt>
<trkpt lat="-27.2744388" lon="151.290064">
  <ele>343.1</ele>
  <time>2026-09-01T19:54:20Z</time>
  <course>22.46</course>
  <speed>0.0</speed>
  <fix>3d</fix>
</trkpt>
<trkpt lat="-27.274439" lon="151.2900641">
  <ele>343.24</ele>
  <time>2026-09-01T19:54:20Z</time>
  <course>11.2</course>
  <speed>0.022360679774997897</speed>
  <fix>3d</fix>
</trkpt>
<trkpt lat="-27.2744388" lon="151.290064">
  <ele>343.1</ele>
  <time>2026-09-01T19:54:20Z</time>
  <course>22.46</course>
  <speed>0.0</speed>
  <fix>3d</fix>
</trkpt>
<trkpt lat="-27.274439" lon="151.2900641">
  <ele>343.1</ele>
  <time>2026-09-01T19:54:20Z</time>
  <course>11.2</course>
  <speed>0.022360679774997897</speed>
  <fix>3d</fix>
</trkpt>
<trkpt lat="-27.2744388" lon="151.290064">
  <ele>343.1</ele>
  <time>2026-09-01T19:54:20Z</time>
  <course>12.72</course>
  <speed>0.0</speed>
  <fix>3d</fix>
</trkpt>
<trkpt lat="-27.274439" lon="151.2900641">
  <ele>343.1</ele>
  <time>2026-09-01T19:54:20Z</time>
  <course>11.2</course>
  <speed>0.022360679774997897</speed>
  <fix>3d</fix>
</trkpt>
<trkpt lat="-27.2744388" lon="151.290064">
  <ele>343.1</ele>
  <time>2026-09-01T19:54:20Z</time>
  <course>12.72</course>
  <speed>0.0</speed>
  <fix>3d</fix>
</trkpt>
<trkpt lat="-27.274439" lon="151.2900641">
  <ele>343.1</ele>
  <time>2026-09-01T19:54:20Z</time>
  <course>11.2</course>
  <speed>0.022360679774997897</speed>
  <fix>3d</fix>
</trkpt>
<trkpt lat="-27.2744388" lon="151.290064">
  <ele>343.1</ele>
  <time>2026-09-01T19:54:20Z</time>
  <course>8.26</course>
  <speed>0.0</speed>
  <fix>3d</fix>
</trkpt>
<trkpt lat="-27.274439" lon="151.2900641">
  <ele>343.1</ele>
  <time>2026-09-01T19:54:20Z</time>
  <course>11.21</course>
  <speed>0.022360679774997897</speed>
  <fix>3d</fix>
</trkpt>
<trkpt lat="-27.2744388" lon="151.290064">
  <ele>343.1</ele>
  <time>2026-09-01T19:54:20Z</time>
  <course>8.26</course>
  <speed>0.0</speed>
  <fix>3d</fix>
</trkpt>
<trkpt lat="-27.274439" lon="151.2900641">
  <ele>343.1</ele>
  <time>2026-09-01T19:54:20Z</time>
  <course>11.21</course>
  <speed>0.022360679774997897</speed>
  <fix>3d</fix>
</trkpt>
<trkpt lat="-27.2744388" lon="151.290064">
  <ele>343.1</ele>
  <time>2026-09-01T19:54:20Z</time>
  <course>6.51</course>
  <speed>0.0</speed>
  <fix>3d</fix>
</trkpt>
<trkpt lat="-27.274439" lon="151.2900641">
  <ele>343.1</ele>
  <time>2026-09-01T19:54:20Z</time>
  <course>11.21</course>
  <speed>0.022360679774997897</speed>
  <fix>3d</fix>
</trkpt>
<trkpt lat="-27.2744388" lon="151.290064">
  <ele>343.1</ele>
  <time>2026-09-01T19:54:20Z</time>
  <course>6.51</course>
  <speed>0.0</speed>
  <fix>3d</fix>
</trkpt>
<trkpt lat="-27.274439" lon="151.2900641">
  <ele>343.1</ele>
  <time>2026-09-01T19:54:20Z</time>
  <course>11.21</course>
  <speed>0.0316227766016838</speed>
  <fix>3d</fix>
</trkpt>
<trkpt lat="-27.2744388" lon="151.290064">
  <ele>343.1</ele>
  <time>2026-09-01T19:54:20Z</time>
  <course>5.24</course>
  <speed>0.0</speed>
  <fix>3d</fix>
</trkpt>
<trkpt lat="-27.274439" lon="151.2900641">
  <ele>343.09</ele>
  <time>2026-09-01T19:54:20Z</time>
  <course>11.21</course>
  <speed>0.022360679774997897</speed>
  <fix>3d</fix>
</trkpt>
<trkpt lat="-27.2744388" lon="151.290064">
  <ele>343.1</ele>
  <time>2026-09-01T19:54:20Z</time>
  <course>5.24</course>
  <speed>0.0</speed>
  <fix>3d</fix>
</trkpt>
<trkpt lat="-27.274439" lon="151.2900641">
  <ele>343.09</ele>
  <time>2026-09-01T19:54:20Z</time>
  <course>11.21</course>
  <speed>0.01414213562373095</speed>
  <fix>3d</fix>
</trkpt>
<trkpt lat="-27.2744388" lon="151.290064">
  <ele>343.1</ele>
  <time>2026-09-01T19:54:20Z</time>
  <course>13.29</course>
  <speed>0.0</speed>
  <fix>3d</fix>
</trkpt>
<trkpt lat="-27.274439" lon="151.2900641">
  <ele>343.09</ele>
  <time>2026-09-01T19:54:20Z</time>
  <course>11.21</course>
  <speed>0.022360679774997897</speed>
  <fix>3d</fix>
</trkpt>
<trkpt lat="-27.2744388" lon="151.290064">
  <ele>343.1</ele>
  <time>2026-09-01T19:54:20Z</time>
  <course>13.29</course>
  <speed>0.0</speed>
  <fix>3d</fix>
</trkpt>
<trkpt lat="-27.274439" lon="151.2900641">
  <ele>343.09</ele>
  <time>2026-09-01T19:54:20Z</time>
  <course>11.21</course>
  <speed>0.022360679774997897</speed>
  <fix>3d</fix>
</trkpt>
<trkpt lat="-27.2744388" lon="151.290064">
  <ele>343.1</ele>
  <time>2026-09-01T19:54:20Z</time>
  <course>8.33</course>
  <speed>0.0</speed>
  <fix>3d</fix>
</trkpt>
<trkpt lat="-27.274439" lon="151.2900641">
  <ele>343.1</ele>
  <time>2026-09-01T19:54:20Z</time>
  <course>11.21</course>
  <speed>0.022360679774997897</speed>
  <fix>3d</fix>
</trkpt>
<trkpt lat="-27.2744388" lon="151.290064">
  <ele>343.1</ele>
  <time>2026-09-01T19:54:20Z</time>
  <course>8.33</course>
  <speed>0.0</speed>
  <fix>3d</fix>
</trkpt>
<trkpt lat="-27.274439" lon="151.2900641">
  <ele>343.1</ele>
  <time>2026-09-01T19:54:20Z</time>
  <course>11.22</course>
  <speed>0.022360679774997897</speed>
  <fix>3d</fix>
</trkpt>
<trkpt lat="-27.2744388" lon="151.290064">
  <ele>343.1</ele>
  <time>2026-09-01T19:54:20Z</time>
  <course>5.43</course>
  <speed>0.0</speed>
  <fix>3d</fix>
</trkpt>
<trkpt lat="-27.274439" lon="151.2900641">
  <ele>343.1</ele>
  <time>2026-09-01T19:54:20Z</time>
  <course>11.22</course>
  <speed>0.022360679774997897</speed>
  <fix>3d</fix>
</trkpt>
<trkpt lat="-27.2744388" lon="151.290064">
  <ele>343.1</ele>
  <time>2026-09-01T19:54:20Z</time>
  <course>5.43</course>
  <speed>0.0</speed>
  <fix>3d</fix>
</trkpt>
<trkpt lat="-27.274439" lon="151.2900641">
  <ele>343.1</ele>
  <time>2026-09-01T19:54:20Z</time>
  <course>11.22</course>
  <speed>0.022360679774997897</speed>
  <fix>3d</fix>
</trkpt>
<trkpt lat="-27.2744388" lon="151.290064">
  <ele>343.1</ele>
  <time>2026-09-01T19:54:20Z</time>
  <course>187.19</course>
  <speed>0.0</speed>
  <fix>3d</fix>
</trkpt>
<trkpt lat="-27.274439" lon="151.2900641">
  <ele>343.1</ele>
  <time>2026-09-01T19:54:20Z</time>
  <course>11.22</course>
  <speed>0.022360679774997897</speed>
  <fix>3d</fix>
</trkpt>
<trkpt lat="-27.2744388" lon="151.290064">
  <ele>343.1</ele>
  <time>2026-09-01T19:54:20Z</time>
  <course>187.19</course>
  <speed>0.0</speed>
  <fix>3d</fix>
</trkpt>
<trkpt lat="-27.274439" lon="151.2900641">
  <ele>343.1</ele>
  <time>2026-09-01T19:54:20Z</time>
  <course>11.22</course>
  <speed>0.022360679774997897</speed>
  <fix>3d</fix>
</trkpt>
<trkpt lat="-27.2744388" lon="151.290064">
  <ele>343.1</ele>
  <time>2026-09-01T19:54:20Z</time>
  <course>59.24</course>
  <speed>0.0</speed>
  <fix>3d</fix>
</trkpt>
<trkpt lat="-27.274439" lon="151.2900641">
  <ele>343.1</ele>
  <time>2026-09-01T19:54:20Z</time>
  <course>11.22</course>
  <speed>0.022360679774997897</speed>
  <fix>3d</fix>
</trkpt>
<trkpt lat="-27.2744388" lon="151.290064">
  <ele>343.1</ele>
  <time>2026-09-01T19:54:20Z</time>
  <course>59.24</course>
  <speed>0.0</speed>
  <fix>3d</fix>
</trkpt>
<trkpt lat="-27.274439" lon="151.2900641">
  <ele>343.11</ele>
  <time>2026-09-01T19:54:20Z</time>
  <course>11.22</course>
  <speed>0.022360679774997897</speed>
  <fix>3d</fix>
</trkpt>
<trkpt lat="-27.2744388" lon="151.290064">
  <ele>343.1</ele>
  <time>2026-09-01T19:54:20Z</time>
  <course>7.54</course>
  <speed>0.0</speed>
  <fix>3d</fix>
</trkpt>
<trkpt lat="-27.274439" lon="151.2900641">
  <ele>343.11</ele>
  <time>2026-09-01T19:54:20Z</time>
  <course>11.22</course>
  <speed>0.022360679774997897</speed>
  <fix>3d</fix>
</trkpt>
<trkpt lat="-27.2744388" lon="151.290064">
  <ele>343.1</ele>
  <time>2026-09-01T19:54:20Z</time>
  <course>7.54</course>
  <speed>0.0</speed>
  <fix>3d</fix>
</trkpt>
<trkpt lat="-27.274439" lon="151.2900641">
  <ele>343.11</ele>
  <time>2026-09-01T19:54:20Z</time>
  <course>11.22</course>
  <speed>0.022360679774997897</speed>
  <fix>3d</fix>
</trkpt>
<trkpt lat="-27.2744388" lon="151.290064">
  <ele>343.1</ele>
  <time>2026-09-01T19:54:20Z</time>
  <course>0.43</course>
  <speed>0.0</speed>
  <fix>3d</fix>
</trkpt>
<trkpt lat="-27.274439" lon="151.2900641">
  <ele>343.11</ele>
  <time>2026-09-01T19:54:20Z</time>
  <course>11.22</course>
  <speed>0.022360679774997897</speed>
  <fix>3d</fix>
</trkpt>
<trkpt lat="-27.2744388" lon="151.290064">
  <ele>343.1</ele>
  <time>2026-09-01T19:54:20Z</time>
  <course>0.43</course>
  <speed>0.0</speed>
  <fix>3d</fix>
</trkpt>
<trkpt lat="-27.274439" lon="151.2900641">
  <ele>343.11</ele>
  <time>2026-09-01T19:54:20Z</time>
  <course>11.23</course>
  <speed>0.022360679774997897</speed>
  <fix>3d</fix>
</trkpt>
<trkpt lat="-27.2744388" lon="151.290064">
  <ele>343.1</ele>
  <time>2026-09-01T19:54:20Z</time>
  <course>353.41</course>
  <speed>0.0</speed>
  <fix>3d</fix>
</trkpt>
<trkpt lat="-27.274439" lon="151.2900641">
  <ele>343.11</ele>
  <time>2026-09-01T19:54:20Z</time>
  <course>11.23</course>
  <speed>0.022360679774997897</speed>
  <fix>3d</fix>
</trkpt>
<trkpt lat="-27.2744388" lon="151.290064">
  <ele>343.1</ele>
  <time>2026-09-01T19:54:20Z</time>
  <course>353.41</course>
  <speed>0.0</speed>
  <fix>3d</fix>
</trkpt>
<trkpt lat="-27.274439" lon="151.2900641">
  <ele>343.11</ele>
  <time>2026-09-01T19:54:20Z</time>
  <course>11.23</course>
  <speed>0.022360679774997897</speed>
  <fix>3d</fix>
</trkpt>
<trkpt lat="-27.2744388" lon="151.290064">
  <ele>343.1</ele>
  <time>2026-09-01T19:54:20Z</time>
  <course>7.93</course>
  <speed>0.0</speed>
  <fix>3d</fix>
</trkpt>
<trkpt lat="-27.274439" lon="151.2900641">
  <ele>343.1</ele>
  <time>2026-09-01T19:54:20Z</time>
  <course>11.23</course>
  <speed>0.022360679774997897</speed>
  <fix>3d</fix>
</trkpt>
<trkpt lat="-27.2744388" lon="151.290064">
  <ele>343.1</ele>
  <time>2026-09-01T19:54:20Z</time>
  <course>7.93</course>
  <speed>0.0</speed>
  <fix>3d</fix>
</trkpt>
<trkpt lat="-27.274439" lon="151.2900641">
  <ele>343.1</ele>
  <time>2026-09-01T19:54:20Z</time>
  <course>11.23</course>
  <speed>0.022360679774997897</speed>
  <fix>3d</fix>
</trkpt>
<trkpt lat="-27.2744388" lon="151.290064">
  <ele>343.1</ele>
  <time>2026-09-01T19:54:20Z</time>
  <course>16.94</course>
  <speed>0.0</speed>
  <fix>3d</fix>
</trkpt>
<trkpt lat="-27.274439" lon="151.2900641">
  <ele>343.1</ele>
  <time>2026-09-01T19:54:20Z</time>
  <course>11.23</course>
  <speed>0.022360679774997897</speed>
  <fix>3d</fix>
</trkpt>
<trkpt lat="-27.2744388" lon="151.290064">
  <ele>343.1</ele>
  <time>2026-09-01T19:54:20Z</time>
  <course>16.94</course>
  <speed>0.0</speed>
  <fix>3d</fix>
</trkpt>
<trkpt lat="-27.274439" lon="151.2900641">
  <ele>343.1</ele>
  <time>2026-09-01T19:54:20Z</time>
  <course>11.23</course>
  <speed>0.022360679774997897</speed>
  <fix>3d</fix>
</trkpt>
<trkpt lat="-27.2744388" lon="151.290064">
  <ele>343.1</ele>
  <time>2026-09-01T19:54:20Z</time>
  <course>5.51</course>
  <speed>0.0</speed>
  <fix>3d</fix>
</trkpt>
<trkpt lat="-27.274439" lon="151.2900641">
  <ele>343.09</ele>
  <time>2026-09-01T19:54:20Z</time>
  <course>11.23</course>
  <speed>0.022360679774997897</speed>
  <fix>3d</fix>
</trkpt>
<trkpt lat="-27.2744388" lon="151.290064">
  <ele>343.1</ele>
  <time>2026-09-01T19:54:20Z</time>
  <course>5.51</course>
  <speed>0.0</speed>
  <fix>3d</fix>
</trkpt>
<trkpt lat="-27.274439" lon="151.2900641">
  <ele>343.09</ele>
  <time>2026-09-01T19:54:20Z</time>
  <course>11.23</course>
  <speed>0.022360679774997897</speed>
  <fix>3d</fix>
</trkpt>
<trkpt lat="-27.2744388" lon="151.290064">
  <ele>343.1</ele>
  <time>2026-09-01T19:54:20Z</time>
  <course>26.06</course>
  <speed>0.0</speed>
  <fix>3d</fix>
</trkpt>
<trkpt lat="-27.274439" lon="151.2900641">
  <ele>343.09</ele>
  <time>2026-09-01T19:54:20Z</time>
  <course>11.24</course>
  <speed>0.022360679774997897</speed>
  <fix>3d</fix>
</trkpt>
<trkpt lat="-27.2744388" lon="151.290064">
  <ele>343.1</ele>
  <time>2026-09-01T19:54:20Z</time>
  <course>26.06</course>
  <speed>0.0</speed>
  <fix>3d</fix>
</trkpt>
<trkpt lat="-27.274439" lon="151.2900641">
  <ele>343.09</ele>
  <time>2026-09-01T19:54:20Z</time>
  <course>11.24</course>
  <speed>0.022360679774997897</speed>
  <fix>3d</fix>
</trkpt>
<trkpt lat="-27.2744388" lon="151.290064">
  <ele>343.1</ele>
  <time>2026-09-01T19:54:20Z</time>
  <course>15.89</course>
  <speed>0.0</speed>
  <fix>3d</fix>
</trkpt>
<trkpt lat="-27.274439" lon="151.2900641">
  <ele>343.09</ele>
  <time>2026-09-01T19:54:20Z</time>
  <course>11.24</course>
  <speed>0.022360679774997897</speed>
  <fix>3d</fix>
</trkpt>
<trkpt lat="-27.2744388" lon="151.290064">
  <ele>343.1</ele>
  <time>2026-09-01T19:54:20Z</time>
  <course>15.89</course>
  <speed>0.0</speed>
  <fix>3d</fix>
</trkpt>
<trkpt lat="-27.274439" lon="151.2900641">
  <ele>343.08</ele>
  <time>2026-09-01T19:54:20Z</time>
  <course>11.24</course>
  <speed>0.022360679774997897</speed>
  <fix>3d</fix>
</trkpt>
<trkpt lat="-27.2744388" lon="151.290064">
  <ele>343.1</ele>
  <time>2026-09-01T19:54:20Z</time>
  <course>355.7</course>
  <speed>0.0</speed>
  <fix>3d</fix>
</trkpt>
<trkpt lat="-27.274439" lon="151.2900641">
  <ele>343.08</ele>
  <time>2026-09-01T19:54:20Z</time>
  <course>11.24</course>
  <speed>0.022360679774997897</speed>
  <fix>3d</fix>
</trkpt>
<trkpt lat="-27.2744388" lon="151.290064">
  <ele>343.1</ele>
  <time>2026-09-01T19:54:20Z</time>
  <course>355.7</course>
  <speed>0.0</speed>
  <fix>3d</fix>
</trkpt>
<trkpt lat="-27.274439" lon="151.2900641">
  <ele>343.08</ele>
  <time>2026-09-01T19:54:20Z</time>
  <course>11.24</course>
  <speed>0.022360679774997897</speed>
  <fix>3d</fix>
</trkpt>
<trkpt lat="-27.2744388" lon="151.290064">
  <ele>343.1</ele>
  <time>2026-09-01T19:54:20Z</time>
  <course>358.92</course>
  <speed>0.0</speed>
  <fix>3d</fix>
</trkpt>
<trkpt lat="-27.274439" lon="151.2900641">
  <ele>343.08</ele>
  <time>2026-09-01T19:54:20Z</time>
  <course>11.24</course>
  <speed>0.022360679774997897</speed>
  <fix>3d</fix>
</trkpt>
<trkpt lat="-27.2744388" lon="151.290064">
  <ele>343.1</ele>
  <time>2026-09-01T19:54:20Z</time>
  <course>358.92</course>
  <speed>0.0</speed>
  <fix>3d</fix>
</trkpt>
<trkpt lat="-27.274439" lon="151.2900641">
  <ele>343.08</ele>
  <time>2026-09-01T19:54:20Z</time>
  <course>11.24</course>
  <speed>0.022360679774997897</speed>
  <fix>3d</fix>
</trkpt>
<trkpt lat="-27.2744388" lon="151.290064">
  <ele>343.1</ele>
  <time>2026-09-01T19:54:20Z</time>
  <course>13.27</course>
  <speed>0.0</speed>
  <fix>3d</fix>
</trkpt>
<trkpt lat="-27.274439" lon="151.2900641">
  <ele>343.08</ele>
  <time>2026-09-01T19:54:20Z</time>
  <course>11.24</course>
  <speed>0.022360679774997897</speed>
  <fix>3d</fix>
</trkpt>
<trkpt lat="-27.2744388" lon="151.290064">
  <ele>343.1</ele>
  <time>2026-09-01T19:54:20Z</time>
  <course>13.27</course>
  <speed>0.0</speed>
  <fix>3d</fix>
</trkpt>
<trkpt lat="-27.274439" lon="151.2900641">
  <ele>343.08</ele>
  <time>2026-09-01T19:54:20Z</time>
  <course>11.25</course>
  <speed>0.022360679774997897</speed>
  <fix>3d</fix>
</trkpt>
<trkpt lat="-27.2744388" lon="151.290064">
  <ele>343.1</ele>
  <time>2026-09-01T19:54:20Z</time>
  <course>354.87</course>
  <speed>0.0</speed>
  <fix>3d</fix>
</trkpt>
<trkpt lat="-27.274439" lon="151.2900641">
  <ele>343.08</ele>
  <time>2026-09-01T19:54:20Z</time>
  <course>11.25</course>
  <speed>0.022360679774997897</speed>
  <fix>3d</fix>
</trkpt>
<trkpt lat="-27.2744388" lon="151.290064">
  <ele>343.1</ele>
  <time>2026-09-01T19:54:20Z</time>
  <course>354.87</course>
  <speed>0.0</speed>
  <fix>3d</fix>
</trkpt>
<trkpt lat="-27.274439" lon="151.2900641">
  <ele>343.07</ele>
  <time>2026-09-01T19:54:20Z</time>
  <course>11.25</course>
  <speed>0.022360679774997897</speed>
  <fix>3d</fix>
</trkpt>
<trkpt lat="-27.2744388" lon="151.290064">
  <ele>343.1</ele>
  <time>2026-09-01T19:54:20Z</time>
  <course>357.75</course>
  <speed>0.0</speed>
  <fix>3d</fix>
</trkpt>
<trkpt lat="-27.274439" lon="151.2900641">
  <ele>343.07</ele>
  <time>2026-09-01T19:54:20Z</time>
  <course>11.25</course>
  <speed>0.022360679774997897</speed>
  <fix>3d</fix>
</trkpt>
<trkpt lat="-27.2744388" lon="151.290064">
  <ele>343.1</ele>
  <time>2026-09-01T19:54:20Z</time>
  <course>357.75</course>
  <speed>0.0</speed>
  <fix>3d</fix>
</trkpt>
<trkpt lat="-27.274439" lon="151.2900641">
  <ele>343.08</ele>
  <time>2026-09-01T19:54:20Z</time>
  <course>11.25</course>
  <speed>0.022360679774997897</speed>
  <fix>3d</fix>
</trkpt>
<trkpt lat="-27.2744388" lon="151.290064">
  <ele>343.1</ele>
  <time>2026-09-01T19:54:20Z</time>
  <course>19.01</course>
  <speed>0.0</speed>
  <fix>3d</fix>
</trkpt>
<trkpt lat="-27.274439" lon="151.2900641">
  <ele>343.07</ele>
  <time>2026-09-01T19:54:20Z</time>
  <course>11.25</course>
  <speed>0.022360679774997897</speed>
  <fix>3d</fix>
</trkpt>
<trkpt lat="-27.2744388" lon="151.290064">
  <ele>343.1</ele>
  <time>2026-09-01T19:54:20Z</time>
  <course>19.01</course>
  <speed>0.0</speed>
  <fix>3d</fix>
</trkpt>
<trkpt lat="-27.274439" lon="151.2900641">
  <ele>343.07</ele>
  <time>2026-09-01T19:54:20Z</time>
  <course>11.25</course>
  <speed>0.022360679774997897</speed>
  <fix>3d</fix>
</trkpt>
<trkpt lat="-27.2744388" lon="151.290064">
  <ele>343.1</ele>
  <time>2026-09-01T19:54:20Z</time>
  <course>5.46</course>
  <speed>0.0</speed>
  <fix>3d</fix>
</trkpt>
<trkpt lat="-27.274439" lon="151.2900641">
  <ele>343.07</ele>
  <time>2026-09-01T19:54:20Z</time>
  <course>11.25</course>
  <speed>0.022360679774997897</speed>
  <fix>3d</fix>
</trkpt>
<trkpt lat="-27.2744388" lon="151.290064">
  <ele>343.1</ele>
  <time>2026-09-01T19:54:20Z</time>
  <course>5.46</course>
  <speed>0.0</speed>
  <fix>3d</fix>
</trkpt>
<trkpt lat="-27.274439" lon="151.2900641">
  <ele>343.07</ele>
  <time>2026-09-01T19:54:20Z</time>
  <course>11.25</course>
  <speed>0.022360679774997897</speed>
  <fix>3d</fix>
</trkpt>
<trkpt lat="-27.2744388" lon="151.290064">
  <ele>343.1</ele>
  <time>2026-09-01T19:54:20Z</time>
  <course>354.92</course>
  <speed>0.0</speed>
  <fix>3d</fix>
</trkpt>
<trkpt lat="-27.274439" lon="151.2900641">
  <ele>343.07</ele>
  <time>2026-09-01T19:54:20Z</time>
  <course>11.25</course>
  <speed>0.022360679774997897</speed>
  <fix>3d</fix>
</trkpt>
<trkpt lat="-27.2744388" lon="151.290064">
  <ele>343.1</ele>
  <time>2026-09-01T19:54:20Z</time>
  <course>354.92</course>
  <speed>0.0</speed>
  <fix>3d</fix>
</trkpt>
<trkpt lat="-27.274439" lon="151.2900641">
  <ele>343.07</ele>
  <time>2026-09-01T19:54:20Z</time>
  <course>11.26</course>
  <speed>0.022360679774997897</speed>
  <fix>3d</fix>
</trkpt>
<trkpt lat="-27.2744388" lon="151.290064">
  <ele>343.1</ele>
  <time>2026-09-01T19:54:20Z</time>
  <course>4.43</course>
  <speed>0.0</speed>
  <fix>3d</fix>
</trkpt>
<trkpt lat="-27.274439" lon="151.2900641">
  <ele>343.07</ele>
  <time>2026-09-01T19:54:20Z</time>
  <course>11.26</course>
  <speed>0.022360679774997897</speed>
  <fix>3d</fix>
</trkpt>
<trkpt lat="-27.2744388" lon="151.290064">
  <ele>343.1</ele>
  <time>2026-09-01T19:54:20Z</time>
  <course>4.43</course>
  <speed>0.0</speed>
  <fix>3d</fix>
</trkpt>
<trkpt lat="-27.274439" lon="151.2900641">
  <ele>343.07</ele>
  <time>2026-09-01T19:54:21Z</time>
  <course>11.26</course>
  <speed>0.022360679774997897</speed>
  <fix>3d</fix>
</trkpt>
<trkpt lat="-27.2744388" lon="151.290064">
  <ele>343.1</ele>
  <time>2026-09-01T19:54:21Z</time>
  <course>8.52</course>
  <speed>0.0</speed>
  <fix>3d</fix>
</trkpt>
<trkpt lat="-27.274439" lon="151.2900641">
  <ele>343.07</ele>
  <time>2026-09-01T19:54:21Z</time>
  <course>11.26</course>
  <speed>0.022360679774997897</speed>
  <fix>3d</fix>
</trkpt>
<trkpt lat="-27.2744388" lon="151.290064">
  <ele>343.1</ele>
  <time>2026-09-01T19:54:21Z</time>
  <course>8.52</course>
  <speed>0.0</speed>
  <fix>3d</fix>
</trkpt>
<trkpt lat="-27.274439" lon="151.2900641">
  <ele>343.07</ele>
  <time>2026-09-01T19:54:21Z</time>
  <course>11.26</course>
  <speed>0.022360679774997897</speed>
  <fix>3d</fix>
</trkpt>
<trkpt lat="-27.2744388" lon="151.290064">
  <ele>343.1</ele>
  <time>2026-09-01T19:54:21Z</time>
  <course>4.27</course>
  <speed>0.0</speed>
  <fix>3d</fix>
</trkpt>
<trkpt lat="-27.274439" lon="151.2900641">
  <ele>343.07</ele>
  <time>2026-09-01T19:54:21Z</time>
  <course>11.26</course>
  <speed>0.022360679774997897</speed>
  <fix>3d</fix>
</trkpt>
<trkpt lat="-27.2744388" lon="151.290064">
  <ele>343.1</ele>
  <time>2026-09-01T19:54:21Z</time>
  <course>4.27</course>
  <speed>0.0</speed>
  <fix>3d</fix>
</trkpt>
<trkpt lat="-27.274439" lon="151.2900641">
  <ele>343.07</ele>
  <time>2026-09-01T19:54:21Z</time>
  <course>11.26</course>
  <speed>0.022360679774997897</speed>
  <fix>3d</fix>
</trkpt>
<trkpt lat="-27.2744388" lon="151.290064">
  <ele>343.1</ele>
  <time>2026-09-01T19:54:21Z</time>
  <course>30.47</course>
  <speed>0.0</speed>
  <fix>3d</fix>
</trkpt>
<trkpt lat="-27.274439" lon="151.2900641">
  <ele>343.07</ele>
  <time>2026-09-01T19:54:21Z</time>
  <course>11.26</course>
  <speed>0.022360679774997897</speed>
  <fix>3d</fix>
</trkpt>
<trkpt lat="-27.2744388" lon="151.290064">
  <ele>343.1</ele>
  <time>2026-09-01T19:54:21Z</time>
  <course>30.47</course>
  <speed>0.0</speed>
  <fix>3d</fix>
</trkpt>
<trkpt lat="-27.274439" lon="151.2900641">
  <ele>343.06</ele>
  <time>2026-09-01T19:54:21Z</time>
  <course>11.26</course>
  <speed>0.022360679774997897</speed>
  <fix>3d</fix>
</trkpt>
<trkpt lat="-27.2744388" lon="151.290064">
  <ele>343.1</ele>
  <time>2026-09-01T19:54:21Z</time>
  <course>10.62</course>
  <speed>0.0</speed>
  <fix>3d</fix>
</trkpt>
<trkpt lat="-27.274439" lon="151.2900641">
  <ele>343.06</ele>
  <time>2026-09-01T19:54:21Z</time>
  <course>11.26</course>
  <speed>0.022360679774997897</speed>
  <fix>3d</fix>
</trkpt>
<trkpt lat="-27.2744388" lon="151.290064">
  <ele>343.1</ele>
  <time>2026-09-01T19:54:21Z</time>
  <course>10.62</course>
  <speed>0.0</speed>
  <fix>3d</fix>
</trkpt>
<trkpt lat="-27.274439" lon="151.2900641">
  <ele>343.09</ele>
  <time>2026-09-01T19:54:21Z</time>
  <course>11.27</course>
  <speed>0.022360679774997897</speed>
  <fix>3d</fix>
</trkpt>
<trkpt lat="-27.2744388" lon="151.290064">
  <ele>343.1</ele>
  <time>2026-09-01T19:54:21Z</time>
  <course>359.91</course>
  <speed>0.0</speed>
  <fix>3d</fix>
</trkpt>
<trkpt lat="-27.274439" lon="151.2900641">
  <ele>343.09</ele>
  <time>2026-09-01T19:54:21Z</time>
  <course>11.27</course>
  <speed>0.022360679774997897</speed>
  <fix>3d</fix>
</trkpt>
<trkpt lat="-27.2744388" lon="151.290064">
  <ele>343.1</ele>
  <time>2026-09-01T19:54:21Z</time>
  <course>359.91</course>
  <speed>0.0</speed>
  <fix>3d</fix>
</trkpt>
<trkpt lat="-27.274439" lon="151.2900641">
  <ele>343.09</ele>
  <time>2026-09-01T19:54:21Z</time>
  <course>11.27</course>
  <speed>0.022360679774997897</speed>
  <fix>3d</fix>
</trkpt>
<trkpt lat="-27.2744388" lon="151.290064">
  <ele>343.09</ele>
  <time>2026-09-01T19:54:21Z</time>
  <course>12.55</course>
  <speed>0.0</speed>
  <fix>3d</fix>
</trkpt>
<trkpt lat="-27.274439" lon="151.2900641">
  <ele>343.09</ele>
  <time>2026-09-01T19:54:21Z</time>
  <course>11.27</course>
  <speed>0.022360679774997897</speed>
  <fix>3d</fix>
</trkpt>
<trkpt lat="-27.2744388" lon="151.290064">
  <ele>343.09</ele>
  <time>2026-09-01T19:54:21Z</time>
  <course>12.55</course>
  <speed>0.0</speed>
  <fix>3d</fix>
</trkpt>
<trkpt lat="-27.274439" lon="151.2900641">
  <ele>343.1</ele>
  <time>2026-09-01T19:54:21Z</time>
  <course>11.27</course>
  <speed>0.022360679774997897</speed>
  <fix>3d</fix>
</trkpt>
<trkpt lat="-27.2744388" lon="151.290064">
  <ele>343.09</ele>
  <time>2026-09-01T19:54:21Z</time>
  <course>11.41</course>
  <speed>0.0</speed>
  <fix>3d</fix>
</trkpt>
<trkpt lat="-27.274439" lon="151.2900641">
  <ele>343.1</ele>
  <time>2026-09-01T19:54:21Z</time>
  <course>11.27</course>
  <speed>0.022360679774997897</speed>
  <fix>3d</fix>
</trkpt>
<trkpt lat="-27.2744388" lon="151.290064">
  <ele>343.09</ele>
  <time>2026-09-01T19:54:21Z</time>
  <course>11.41</course>
  <speed>0.0</speed>
  <fix>3d</fix>
</trkpt>
<trkpt lat="-27.274439" lon="151.2900641">
  <ele>343.11</ele>
  <time>2026-09-01T19:54:21Z</time>
  <course>11.27</course>
  <speed>0.022360679774997897</speed>
  <fix>3d</fix>
</trkpt>
<trkpt lat="-27.2744388" lon="151.290064">
  <ele>343.09</ele>
  <time>2026-09-01T19:54:21Z</time>
  <course>12.46</course>
  <speed>0.0</speed>
  <fix>3d</fix>
</trkpt>
<trkpt lat="-27.274439" lon="151.2900641">
  <ele>343.11</ele>
  <time>2026-09-01T19:54:21Z</time>
  <course>11.27</course>
  <speed>0.022360679774997897</speed>
  <fix>3d</fix>
</trkpt>
<trkpt lat="-27.2744388" lon="151.290064">
  <ele>343.09</ele>
  <time>2026-09-01T19:54:21Z</time>
  <course>12.46</course>
  <speed>0.0</speed>
  <fix>3d</fix>
</trkpt>
<trkpt lat="-27.274439" lon="151.2900641">
  <ele>343.12</ele>
  <time>2026-09-01T19:54:21Z</time>
  <course>11.27</course>
  <speed>0.022360679774997897</speed>
  <fix>3d</fix>
</trkpt>
<trkpt lat="-27.2744388" lon="151.290064">
  <ele>343.09</ele>
  <time>2026-09-01T19:54:21Z</time>
  <course>349.78</course>
  <speed>0.0</speed>
  <fix>3d</fix>
</trkpt>
<trkpt lat="-27.274439" lon="151.2900641">
  <ele>343.12</ele>
  <time>2026-09-01T19:54:21Z</time>
  <course>11.27</course>
  <speed>0.022360679774997897</speed>
  <fix>3d</fix>
</trkpt>
<trkpt lat="-27.2744388" lon="151.290064">
  <ele>343.09</ele>
  <time>2026-09-01T19:54:21Z</time>
  <course>349.78</course>
  <speed>0.0</speed>
  <fix>3d</fix>
</trkpt>
<trkpt lat="-27.274439" lon="151.2900641">
  <ele>343.12</ele>
  <time>2026-09-01T19:54:21Z</time>
  <course>11.28</course>
  <speed>0.022360679774997897</speed>
  <fix>3d</fix>
</trkpt>
<trkpt lat="-27.2744388" lon="151.290064">
  <ele>343.09</ele>
  <time>2026-09-01T19:54:21Z</time>
  <course>3.19</course>
  <speed>0.0</speed>
  <fix>3d</fix>
</trkpt>
<trkpt lat="-27.274439" lon="151.2900641">
  <ele>343.12</ele>
  <time>2026-09-01T19:54:21Z</time>
  <course>11.28</course>
  <speed>0.022360679774997897</speed>
  <fix>3d</fix>
</trkpt>
<trkpt lat="-27.2744388" lon="151.290064">
  <ele>343.09</ele>
  <time>2026-09-01T19:54:21Z</time>
  <course>3.19</course>
  <speed>0.0</speed>
  <fix>3d</fix>
</trkpt>
<trkpt lat="-27.274439" lon="151.2900641">
  <ele>343.12</ele>
  <time>2026-09-01T19:54:21Z</time>
  <course>11.28</course>
  <speed>0.022360679774997897</speed>
  <fix>3d</fix>
</trkpt>
<trkpt lat="-27.2744388" lon="151.290064">
  <ele>343.09</ele>
  <time>2026-09-01T19:54:21Z</time>
  <course>17.3</course>
  <speed>0.0</speed>
  <fix>3d</fix>
</trkpt>
<trkpt lat="-27.274439" lon="151.2900641">
  <ele>343.13</ele>
  <time>2026-09-01T19:54:21Z</time>
  <course>11.28</course>
  <speed>0.022360679774997897</speed>
  <fix>3d</fix>
</trkpt>
<trkpt lat="-27.2744388" lon="151.290064">
  <ele>343.09</ele>
  <time>2026-09-01T19:54:21Z</time>
  <course>17.3</course>
  <speed>0.0</speed>
  <fix>3d</fix>
</trkpt>
<trkpt lat="-27.274439" lon="151.2900641">
  <ele>343.13</ele>
  <time>2026-09-01T19:54:21Z</time>
  <course>11.28</course>
  <speed>0.022360679774997897</speed>
  <fix>3d</fix>
</trkpt>
<trkpt lat="-27.2744388" lon="151.290064">
  <ele>343.09</ele>
  <time>2026-09-01T19:54:21Z</time>
  <course>346.83</course>
  <speed>0.0</speed>
  <fix>3d</fix>
</trkpt>
<trkpt lat="-27.274439" lon="151.2900641">
  <ele>343.13</ele>
  <time>2026-09-01T19:54:21Z</time>
  <course>11.28</course>
  <speed>0.022360679774997897</speed>
  <fix>3d</fix>
</trkpt>
<trkpt lat="-27.2744388" lon="151.290064">
  <ele>343.09</ele>
  <time>2026-09-01T19:54:21Z</time>
  <course>346.83</course>
  <speed>0.0</speed>
  <fix>3d</fix>
</trkpt>
<trkpt lat="-27.274439" lon="151.2900641">
  <ele>343.13</ele>
  <time>2026-09-01T19:54:21Z</time>
  <course>11.28</course>
  <speed>0.022360679774997897</speed>
  <fix>3d</fix>
</trkpt>
<trkpt lat="-27.2744388" lon="151.290064">
  <ele>343.09</ele>
  <time>2026-09-01T19:54:21Z</time>
  <course>347.96</course>
  <speed>0.0</speed>
  <fix>3d</fix>
</trkpt>
<trkpt lat="-27.274439" lon="151.2900641">
  <ele>343.14</ele>
  <time>2026-09-01T19:54:21Z</time>
  <course>11.28</course>
  <speed>0.022360679774997897</speed>
  <fix>3d</fix>
</trkpt>
<trkpt lat="-27.2744388" lon="151.290064">
  <ele>343.09</ele>
  <time>2026-09-01T19:54:21Z</time>
  <course>347.96</course>
  <speed>0.0</speed>
  <fix>3d</fix>
</trkpt>
<trkpt lat="-27.274439" lon="151.2900641">
  <ele>343.14</ele>
  <time>2026-09-01T19:54:21Z</time>
  <course>11.28</course>
  <speed>0.022360679774997897</speed>
  <fix>3d</fix>
</trkpt>
<trkpt lat="-27.2744388" lon="151.290064">
  <ele>343.09</ele>
  <time>2026-09-01T19:54:21Z</time>
  <course>22.22</course>
  <speed>0.0</speed>
  <fix>3d</fix>
</trkpt>
<trkpt lat="-27.274439" lon="151.2900641">
  <ele>343.14</ele>
  <time>2026-09-01T19:54:21Z</time>
  <course>11.28</course>
  <speed>0.022360679774997897</speed>
  <fix>3d</fix>
</trkpt>
<trkpt lat="-27.2744388" lon="151.290064">
  <ele>343.09</ele>
  <time>2026-09-01T19:54:21Z</time>
  <course>22.22</course>
  <speed>0.0</speed>
  <fix>3d</fix>
</trkpt>
<trkpt lat="-27.274439" lon="151.2900641">
  <ele>343.15</ele>
  <time>2026-09-01T19:54:21Z</time>
  <course>11.29</course>
  <speed>0.022360679774997897</speed>
  <fix>3d</fix>
</trkpt>
<trkpt lat="-27.2744388" lon="151.290064">
  <ele>343.09</ele>
  <time>2026-09-01T19:54:21Z</time>
  <course>3.24</course>
  <speed>0.0</speed>
  <fix>3d</fix>
</trkpt>
<trkpt lat="-27.274439" lon="151.2900641">
  <ele>343.15</ele>
  <time>2026-09-01T19:54:21Z</time>
  <course>11.29</course>
  <speed>0.022360679774997897</speed>
  <fix>3d</fix>
</trkpt>
<trkpt lat="-27.2744388" lon="151.290064">
  <ele>343.09</ele>
  <time>2026-09-01T19:54:21Z</time>
  <course>3.24</course>
  <speed>0.0</speed>
  <fix>3d</fix>
</trkpt>
<trkpt lat="-27.274439" lon="151.2900641">
  <ele>343.16</ele>
  <time>2026-09-01T19:54:21Z</time>
  <course>11.29</course>
  <speed>0.022360679774997897</speed>
  <fix>3d</fix>
</trkpt>
<trkpt lat="-27.2744388" lon="151.290064">
  <ele>343.09</ele>
  <time>2026-09-01T19:54:21Z</time>
  <course>348.91</course>
  <speed>0.0</speed>
  <fix>3d</fix>
</trkpt>
<trkpt lat="-27.274439" lon="151.2900641">
  <ele>343.16</ele>
  <time>2026-09-01T19:54:21Z</time>
  <course>11.29</course>
  <speed>0.022360679774997897</speed>
  <fix>3d</fix>
</trkpt>
<trkpt lat="-27.2744388" lon="151.290064">
  <ele>343.09</ele>
  <time>2026-09-01T19:54:21Z</time>
  <course>348.91</course>
  <speed>0.0</speed>
  <fix>3d</fix>
</trkpt>
<trkpt lat="-27.274439" lon="151.2900641">
  <ele>343.16</ele>
  <time>2026-09-01T19:54:21Z</time>
  <course>11.29</course>
  <speed>0.022360679774997897</speed>
  <fix>3d</fix>
</trkpt>
<trkpt lat="-27.2744388" lon="151.290064">
  <ele>343.09</ele>
  <time>2026-09-01T19:54:21Z</time>
  <course>0.54</course>
  <speed>0.0</speed>
  <fix>3d</fix>
</trkpt>
<trkpt lat="-27.274439" lon="151.2900641">
  <ele>343.17</ele>
  <time>2026-09-01T19:54:21Z</time>
  <course>11.29</course>
  <speed>0.022360679774997897</speed>
  <fix>3d</fix>
</trkpt>
<trkpt lat="-27.2744388" lon="151.290064">
  <ele>343.09</ele>
  <time>2026-09-01T19:54:21Z</time>
  <course>0.54</course>
  <speed>0.0</speed>
  <fix>3d</fix>
</trkpt>
<trkpt lat="-27.274439" lon="151.2900641">
  <ele>343.17</ele>
  <time>2026-09-01T19:54:21Z</time>
  <course>11.29</course>
  <speed>0.022360679774997897</speed>
  <fix>3d</fix>
</trkpt>
<trkpt lat="-27.2744388" lon="151.290064">
  <ele>343.09</ele>
  <time>2026-09-01T19:54:21Z</time>
  <course>11.12</course>
  <speed>0.0</speed>
  <fix>3d</fix>
</trkpt>
<trkpt lat="-27.274439" lon="151.2900641">
  <ele>343.18</ele>
  <time>2026-09-01T19:54:21Z</time>
  <course>11.29</course>
  <speed>0.022360679774997897</speed>
  <fix>3d</fix>
</trkpt>
<trkpt lat="-27.2744388" lon="151.290064">
  <ele>343.09</ele>
  <time>2026-09-01T19:54:21Z</time>
  <course>11.12</course>
  <speed>0.0</speed>
  <fix>3d</fix>
</trkpt>
<trkpt lat="-27.274439" lon="151.2900641">
  <ele>343.18</ele>
  <time>2026-09-01T19:54:21Z</time>
  <course>11.29</course>
  <speed>0.022360679774997897</speed>
  <fix>3d</fix>
</trkpt>
<trkpt lat="-27.2744388" lon="151.290064">
  <ele>343.09</ele>
  <time>2026-09-01T19:54:21Z</time>
  <course>12.22</course>
  <speed>0.0</speed>
  <fix>3d</fix>
</trkpt>
<trkpt lat="-27.274439" lon="151.2900641">
  <ele>343.18</ele>
  <time>2026-09-01T19:54:21Z</time>
  <course>11.29</course>
  <speed>0.022360679774997897</speed>
  <fix>3d</fix>
</trkpt>
<trkpt lat="-27.2744388" lon="151.290064">
  <ele>343.09</ele>
  <time>2026-09-01T19:54:21Z</time>
  <course>12.22</course>
  <speed>0.0</speed>
  <fix>3d</fix>
</trkpt>
<trkpt lat="-27.274439" lon="151.2900641">
  <ele>343.18</ele>
  <time>2026-09-01T19:54:21Z</time>
  <course>11.3</course>
  <speed>0.022360679774997897</speed>
  <fix>3d</fix>
</trkpt>
<trkpt lat="-27.2744388" lon="151.290064">
  <ele>343.09</ele>
  <time>2026-09-01T19:54:21Z</time>
  <course>1.81</course>
  <speed>0.0</speed>
  <fix>3d</fix>
</trkpt>
<trkpt lat="-27.274439" lon="151.2900641">
  <ele>343.18</ele>
  <time>2026-09-01T19:54:21Z</time>
  <course>11.3</course>
  <speed>0.022360679774997897</speed>
  <fix>3d</fix>
</trkpt>
<trkpt lat="-27.2744388" lon="151.290064">
  <ele>343.09</ele>
  <time>2026-09-01T19:54:21Z</time>
  <course>1.81</course>
  <speed>0.0</speed>
  <fix>3d</fix>
</trkpt>
<trkpt lat="-27.274439" lon="151.2900641">
  <ele>343.18</ele>
  <time>2026-09-01T19:54:21Z</time>
  <course>11.3</course>
  <speed>0.022360679774997897</speed>
  <fix>3d</fix>
</trkpt>
<trkpt lat="-27.2744388" lon="151.290064">
  <ele>343.09</ele>
  <time>2026-09-01T19:54:21Z</time>
  <course>22.64</course>
  <speed>0.0</speed>
  <fix>3d</fix>
</trkpt>
<trkpt lat="-27.274439" lon="151.2900641">
  <ele>343.18</ele>
  <time>2026-09-01T19:54:21Z</time>
  <course>11.3</course>
  <speed>0.022360679774997897</speed>
  <fix>3d</fix>
</trkpt>
<trkpt lat="-27.2744388" lon="151.290064">
  <ele>343.09</ele>
  <time>2026-09-01T19:54:21Z</time>
  <course>22.64</course>
  <speed>0.0</speed>
  <fix>3d</fix>
</trkpt>
<trkpt lat="-27.274439" lon="151.2900641">
  <ele>343.18</ele>
  <time>2026-09-01T19:54:21Z</time>
  <course>11.3</course>
  <speed>0.022360679774997897</speed>
  <fix>3d</fix>
</trkpt>
<trkpt lat="-27.2744388" lon="151.290064">
  <ele>343.09</ele>
  <time>2026-09-01T19:54:21Z</time>
  <course>30.93</course>
  <speed>0.0</speed>
  <fix>3d</fix>
</trkpt>
<trkpt lat="-27.274439" lon="151.2900641">
  <ele>343.18</ele>
  <time>2026-09-01T19:54:21Z</time>
  <course>11.3</course>
  <speed>0.022360679774997897</speed>
  <fix>3d</fix>
</trkpt>
<trkpt lat="-27.2744388" lon="151.290064">
  <ele>343.09</ele>
  <time>2026-09-01T19:54:21Z</time>
  <course>30.93</course>
  <speed>0.0</speed>
  <fix>3d</fix>
</trkpt>
<trkpt lat="-27.274439" lon="151.2900641">
  <ele>343.18</ele>
  <time>2026-09-01T19:54:21Z</time>
  <course>11.3</course>
  <speed>0.022360679774997897</speed>
  <fix>3d</fix>
</trkpt>
<trkpt lat="-27.2744388" lon="151.290064">
  <ele>343.09</ele>
  <time>2026-09-01T19:54:21Z</time>
  <course>9.68</course>
  <speed>0.0</speed>
  <fix>3d</fix>
</trkpt>
<trkpt lat="-27.274439" lon="151.2900641">
  <ele>343.18</ele>
  <time>2026-09-01T19:54:21Z</time>
  <course>11.3</course>
  <speed>0.022360679774997897</speed>
  <fix>3d</fix>
</trkpt>
<trkpt lat="-27.2744388" lon="151.290064">
  <ele>343.09</ele>
  <time>2026-09-01T19:54:21Z</time>
  <course>9.68</course>
  <speed>0.0</speed>
  <fix>3d</fix>
</trkpt>
<trkpt lat="-27.274439" lon="151.2900641">
  <ele>343.18</ele>
  <time>2026-09-01T19:54:21Z</time>
  <course>11.3</course>
  <speed>0.022360679774997897</speed>
  <fix>3d</fix>
</trkpt>
<trkpt lat="-27.2744388" lon="151.290064">
  <ele>343.09</ele>
  <time>2026-09-01T19:54:21Z</time>
  <course>9.55</course>
  <speed>0.0</speed>
  <fix>3d</fix>
</trkpt>
<trkpt lat="-27.274439" lon="151.2900641">
  <ele>343.19</ele>
  <time>2026-09-01T19:54:21Z</time>
  <course>11.3</course>
  <speed>0.022360679774997897</speed>
  <fix>3d</fix>
</trkpt>
<trkpt lat="-27.2744388" lon="151.290064">
  <ele>343.09</ele>
  <time>2026-09-01T19:54:21Z</time>
  <course>9.55</course>
  <speed>0.0</speed>
  <fix>3d</fix>
</trkpt>
<trkpt lat="-27.274439" lon="151.2900641">
  <ele>343.19</ele>
  <time>2026-09-01T19:54:21Z</time>
  <course>11.31</course>
  <speed>0.022360679774997897</speed>
  <fix>3d</fix>
</trkpt>
<trkpt lat="-27.2744388" lon="151.290064">
  <ele>343.09</ele>
  <time>2026-09-01T19:54:21Z</time>
  <course>29.43</course>
  <speed>0.0</speed>
  <fix>3d</fix>
</trkpt>
<trkpt lat="-27.274439" lon="151.2900641">
  <ele>343.19</ele>
  <time>2026-09-01T19:54:21Z</time>
  <course>11.31</course>
  <speed>0.022360679774997897</speed>
  <fix>3d</fix>
</trkpt>
<trkpt lat="-27.2744388" lon="151.290064">
  <ele>343.09</ele>
  <time>2026-09-01T19:54:21Z</time>
  <course>29.43</course>
  <speed>0.0</speed>
  <fix>3d</fix>
</trkpt>
<trkpt lat="-27.274439" lon="151.2900641">
  <ele>343.19</ele>
  <time>2026-09-01T19:54:21Z</time>
  <course>11.31</course>
  <speed>0.022360679774997897</speed>
  <fix>3d</fix>
</trkpt>
<trkpt lat="-27.2744388" lon="151.290064">
  <ele>343.09</ele>
  <time>2026-09-01T19:54:21Z</time>
  <course>41.8</course>
  <speed>0.0</speed>
  <fix>3d</fix>
</trkpt>
<trkpt lat="-27.274439" lon="151.2900641">
  <ele>343.2</ele>
  <time>2026-09-01T19:54:21Z</time>
  <course>11.31</course>
  <speed>0.022360679774997897</speed>
  <fix>3d</fix>
</trkpt>
<trkpt lat="-27.2744388" lon="151.290064">
  <ele>343.09</ele>
  <time>2026-09-01T19:54:21Z</time>
  <course>41.8</course>
  <speed>0.0</speed>
  <fix>3d</fix>
</trkpt>
<trkpt lat="-27.274439" lon="151.2900641">
  <ele>343.2</ele>
  <time>2026-09-01T19:54:21Z</time>
  <course>11.31</course>
  <speed>0.022360679774997897</speed>
  <fix>3d</fix>
</trkpt>
<trkpt lat="-27.2744388" lon="151.290064">
  <ele>343.09</ele>
  <time>2026-09-01T19:54:21Z</time>
  <course>21.51</course>
  <speed>0.0</speed>
  <fix>3d</fix>
</trkpt>
<trkpt lat="-27.274439" lon="151.2900641">
  <ele>343.2</ele>
  <time>2026-09-01T19:54:21Z</time>
  <course>11.31</course>
  <speed>0.022360679774997897</speed>
  <fix>3d</fix>
</trkpt>
<trkpt lat="-27.2744388" lon="151.290064">
  <ele>343.09</ele>
  <time>2026-09-01T19:54:21Z</time>
  <course>21.51</course>
  <speed>0.0</speed>
  <fix>3d</fix>
</trkpt>
<trkpt lat="-27.274439" lon="151.2900641">
  <ele>343.2</ele>
  <time>2026-09-01T19:54:21Z</time>
  <course>11.31</course>
  <speed>0.022360679774997897</speed>
  <fix>3d</fix>
</trkpt>
<trkpt lat="-27.2744388" lon="151.290064">
  <ele>343.09</ele>
  <time>2026-09-01T19:54:21Z</time>
  <course>4.92</course>
  <speed>0.0</speed>
  <fix>3d</fix>
</trkpt>
<trkpt lat="-27.274439" lon="151.2900641">
  <ele>343.2</ele>
  <time>2026-09-01T19:54:21Z</time>
  <course>11.31</course>
  <speed>0.022360679774997897</speed>
  <fix>3d</fix>
</trkpt>
<trkpt lat="-27.2744388" lon="151.290064">
  <ele>343.09</ele>
  <time>2026-09-01T19:54:21Z</time>
  <course>4.92</course>
  <speed>0.0</speed>
  <fix>3d</fix>
</trkpt>
<trkpt lat="-27.274439" lon="151.2900641">
  <ele>343.2</ele>
  <time>2026-09-01T19:54:21Z</time>
  <course>11.31</course>
  <speed>0.022360679774997897</speed>
  <fix>3d</fix>
</trkpt>
<trkpt lat="-27.2744388" lon="151.290064">
  <ele>343.09</ele>
  <time>2026-09-01T19:54:21Z</time>
  <course>13.51</course>
  <speed>0.0</speed>
  <fix>3d</fix>
</trkpt>
<trkpt lat="-27.274439" lon="151.2900641">
  <ele>343.21</ele>
  <time>2026-09-01T19:54:21Z</time>
  <course>11.31</course>
  <speed>0.022360679774997897</speed>
  <fix>3d</fix>
</trkpt>
<trkpt lat="-27.2744388" lon="151.290064">
  <ele>343.09</ele>
  <time>2026-09-01T19:54:21Z</time>
  <course>13.51</course>
  <speed>0.0</speed>
  <fix>3d</fix>
</trkpt>
<trkpt lat="-27.274439" lon="151.2900641">
  <ele>343.21</ele>
  <time>2026-09-01T19:54:21Z</time>
  <course>11.31</course>
  <speed>0.022360679774997897</speed>
  <fix>3d</fix>
</trkpt>
<trkpt lat="-27.2744388" lon="151.290064">
  <ele>343.09</ele>
  <time>2026-09-01T19:54:21Z</time>
  <course>8.95</course>
  <speed>0.0</speed>
  <fix>3d</fix>
</trkpt>
<trkpt lat="-27.274439" lon="151.2900641">
  <ele>343.21</ele>
  <time>2026-09-01T19:54:21Z</time>
  <course>11.32</course>
  <speed>0.022360679774997897</speed>
  <fix>3d</fix>
</trkpt>
<trkpt lat="-27.2744388" lon="151.290064">
  <ele>343.09</ele>
  <time>2026-09-01T19:54:21Z</time>
  <course>8.95</course>
  <speed>0.0</speed>
  <fix>3d</fix>
</trkpt>
<trkpt lat="-27.274439" lon="151.2900641">
  <ele>343.21</ele>
  <time>2026-09-01T19:54:21Z</time>
  <course>11.32</course>
  <speed>0.022360679774997897</speed>
  <fix>3d</fix>
</trkpt>
<trkpt lat="-27.2744388" lon="151.290064">
  <ele>343.09</ele>
  <time>2026-09-01T19:54:21Z</time>
  <course>355.47</course>
  <speed>0.0</speed>
  <fix>3d</fix>
</trkpt>
<trkpt lat="-27.274439" lon="151.2900641">
  <ele>343.21</ele>
  <time>2026-09-01T19:54:21Z</time>
  <course>11.32</course>
  <speed>0.022360679774997897</speed>
  <fix>3d</fix>
</trkpt>
<trkpt lat="-27.2744388" lon="151.290064">
  <ele>343.09</ele>
  <time>2026-09-01T19:54:21Z</time>
  <course>355.47</course>
  <speed>0.0</speed>
  <fix>3d</fix>
</trkpt>
<trkpt lat="-27.274439" lon="151.2900641">
  <ele>343.21</ele>
  <time>2026-09-01T19:54:21Z</time>
  <course>11.32</course>
  <speed>0.022360679774997897</speed>
  <fix>3d</fix>
</trkpt>
<trkpt lat="-27.2744388" lon="151.290064">
  <ele>343.09</ele>
  <time>2026-09-01T19:54:21Z</time>
  <course>344.66</course>
  <speed>0.0</speed>
  <fix>3d</fix>
</trkpt>
<trkpt lat="-27.274439" lon="151.2900641">
  <ele>343.21</ele>
  <time>2026-09-01T19:54:21Z</time>
  <course>11.32</course>
  <speed>0.022360679774997897</speed>
  <fix>3d</fix>
</trkpt>
<trkpt lat="-27.2744388" lon="151.290064">
  <ele>343.09</ele>
  <time>2026-09-01T19:54:21Z</time>
  <course>344.66</course>
  <speed>0.0</speed>
  <fix>3d</fix>
</trkpt>
<trkpt lat="-27.274439" lon="151.2900641">
  <ele>343.22</ele>
  <time>2026-09-01T19:54:21Z</time>
  <course>11.32</course>
  <speed>0.022360679774997897</speed>
  <fix>3d</fix>
</trkpt>
<trkpt lat="-27.2744388" lon="151.290064">
  <ele>343.09</ele>
  <time>2026-09-01T19:54:21Z</time>
  <course>11.54</course>
  <speed>0.0</speed>
  <fix>3d</fix>
</trkpt>
<trkpt lat="-27.274439" lon="151.2900641">
  <ele>343.22</ele>
  <time>2026-09-01T19:54:21Z</time>
  <course>11.32</course>
  <speed>0.022360679774997897</speed>
  <fix>3d</fix>
</trkpt>
<trkpt lat="-27.2744388" lon="151.290064">
  <ele>343.09</ele>
  <time>2026-09-01T19:54:21Z</time>
  <course>11.54</course>
  <speed>0.0</speed>
  <fix>3d</fix>
</trkpt>
<trkpt lat="-27.274439" lon="151.2900641">
  <ele>343.22</ele>
  <time>2026-09-01T19:54:21Z</time>
  <course>11.32</course>
  <speed>0.022360679774997897</speed>
  <fix>3d</fix>
</trkpt>
<trkpt lat="-27.2744388" lon="151.290064">
  <ele>343.09</ele>
  <time>2026-09-01T19:54:21Z</time>
  <course>28.75</course>
  <speed>0.0</speed>
  <fix>3d</fix>
</trkpt>
<trkpt lat="-27.274439" lon="151.2900641">
  <ele>343.22</ele>
  <time>2026-09-01T19:54:21Z</time>
  <course>11.32</course>
  <speed>0.022360679774997897</speed>
  <fix>3d</fix>
</trkpt>
<trkpt lat="-27.2744388" lon="151.290064">
  <ele>343.09</ele>
  <time>2026-09-01T19:54:21Z</time>
  <course>28.75</course>
  <speed>0.0</speed>
  <fix>3d</fix>
</trkpt>
<trkpt lat="-27.274439" lon="151.2900641">
  <ele>343.09</ele>
  <time>2026-09-01T19:54:21Z</time>
  <course>11.32</course>
  <speed>0.022360679774997897</speed>
  <fix>3d</fix>
</trkpt>
<trkpt lat="-27.2744388" lon="151.290064">
  <ele>343.09</ele>
  <time>2026-09-01T19:54:21Z</time>
  <course>3.9</course>
  <speed>0.0</speed>
  <fix>3d</fix>
</trkpt>
<trkpt lat="-27.274439" lon="151.2900641">
  <ele>343.09</ele>
  <time>2026-09-01T19:54:21Z</time>
  <course>11.33</course>
  <speed>0.022360679774997897</speed>
  <fix>3d</fix>
</trkpt>
<trkpt lat="-27.2744388" lon="151.290064">
  <ele>343.09</ele>
  <time>2026-09-01T19:54:21Z</time>
  <course>3.9</course>
  <speed>0.0</speed>
  <fix>3d</fix>
</trkpt>
<trkpt lat="-27.274439" lon="151.2900641">
  <ele>343.09</ele>
  <time>2026-09-01T19:54:21Z</time>
  <course>11.33</course>
  <speed>0.022360679774997897</speed>
  <fix>3d</fix>
</trkpt>
<trkpt lat="-27.2744388" lon="151.290064">
  <ele>343.09</ele>
  <time>2026-09-01T19:54:21Z</time>
  <course>5.78</course>
  <speed>0.0</speed>
  <fix>3d</fix>
</trkpt>
<trkpt lat="-27.274439" lon="151.2900641">
  <ele>343.09</ele>
  <time>2026-09-01T19:54:21Z</time>
  <course>11.33</course>
  <speed>0.022360679774997897</speed>
  <fix>3d</fix>
</trkpt>
<trkpt lat="-27.2744388" lon="151.290064">
  <ele>343.09</ele>
  <time>2026-09-01T19:54:21Z</time>
  <course>5.78</course>
  <speed>0.0</speed>
  <fix>3d</fix>
</trkpt>
<trkpt lat="-27.274439" lon="151.2900641">
  <ele>343.09</ele>
  <time>2026-09-01T19:54:21Z</time>
  <course>11.33</course>
  <speed>0.022360679774997897</speed>
  <fix>3d</fix>
</trkpt>
<trkpt lat="-27.2744388" lon="151.290064">
  <ele>343.09</ele>
  <time>2026-09-01T19:54:21Z</time>
  <course>2.58</course>
  <speed>0.0</speed>
  <fix>3d</fix>
</trkpt>
<trkpt lat="-27.274439" lon="151.2900641">
  <ele>343.09</ele>
  <time>2026-09-01T19:54:21Z</time>
  <course>11.33</course>
  <speed>0.022360679774997897</speed>
  <fix>3d</fix>
</trkpt>
<trkpt lat="-27.2744388" lon="151.290064">
  <ele>343.09</ele>
  <time>2026-09-01T19:54:21Z</time>
  <course>2.58</course>
  <speed>0.0</speed>
  <fix>3d</fix>
</trkpt>
<trkpt lat="-27.274439" lon="151.2900641">
  <ele>343.09</ele>
  <time>2026-09-01T19:54:21Z</time>
  <course>11.33</course>
  <speed>0.022360679774997897</speed>
  <fix>3d</fix>
</trkpt>
<trkpt lat="-27.2744388" lon="151.290064">
  <ele>343.09</ele>
  <time>2026-09-01T19:54:21Z</time>
  <course>18.39</course>
  <speed>0.0</speed>
  <fix>3d</fix>
</trkpt>
<trkpt lat="-27.274439" lon="151.2900641">
  <ele>343.09</ele>
  <time>2026-09-01T19:54:21Z</time>
  <course>11.33</course>
  <speed>0.022360679774997897</speed>
  <fix>3d</fix>
</trkpt>
<trkpt lat="-27.2744388" lon="151.290064">
  <ele>343.09</ele>
  <time>2026-09-01T19:54:21Z</time>
  <course>18.39</course>
  <speed>0.0</speed>
  <fix>3d</fix>
</trkpt>
<trkpt lat="-27.274439" lon="151.2900641">
  <ele>343.09</ele>
  <time>2026-09-01T19:54:21Z</time>
  <course>11.33</course>
  <speed>0.022360679774997897</speed>
  <fix>3d</fix>
</trkpt>
<trkpt lat="-27.2744388" lon="151.290064">
  <ele>343.09</ele>
  <time>2026-09-01T19:54:21Z</time>
  <course>27.75</course>
  <speed>0.0</speed>
  <fix>3d</fix>
</trkpt>
<trkpt lat="-27.274439" lon="151.2900641">
  <ele>343.09</ele>
  <time>2026-09-01T19:54:21Z</time>
  <course>11.33</course>
  <speed>0.022360679774997897</speed>
  <fix>3d</fix>
</trkpt>
<trkpt lat="-27.2744388" lon="151.290064">
  <ele>343.09</ele>
  <time>2026-09-01T19:54:21Z</time>
  <course>27.75</course>
  <speed>0.0</speed>
  <fix>3d</fix>
</trkpt>
<trkpt lat="-27.274439" lon="151.2900641">
  <ele>343.09</ele>
  <time>2026-09-01T19:54:21Z</time>
  <course>11.33</course>
  <speed>0.022360679774997897</speed>
  <fix>3d</fix>
</trkpt>
<trkpt lat="-27.2744388" lon="151.290064">
  <ele>343.09</ele>
  <time>2026-09-01T19:54:21Z</time>
  <course>11.81</course>
  <speed>0.0</speed>
  <fix>3d</fix>
</trkpt>
<trkpt lat="-27.274439" lon="151.2900641">
  <ele>343.09</ele>
  <time>2026-09-01T19:54:21Z</time>
  <course>11.34</course>
  <speed>0.022360679774997897</speed>
  <fix>3d</fix>
</trkpt>
<trkpt lat="-27.2744388" lon="151.290064">
  <ele>343.09</ele>
  <time>2026-09-01T19:54:21Z</time>
  <course>11.81</course>
  <speed>0.0</speed>
  <fix>3d</fix>
</trkpt>
<trkpt lat="-27.274439" lon="151.2900641">
  <ele>343.09</ele>
  <time>2026-09-01T19:54:21Z</time>
  <course>11.34</course>
  <speed>0.022360679774997897</speed>
  <fix>3d</fix>
</trkpt>
<trkpt lat="-27.2744388" lon="151.290064">
  <ele>343.09</ele>
  <time>2026-09-01T19:54:21Z</time>
  <course>22.72</course>
  <speed>0.0</speed>
  <fix>3d</fix>
</trkpt>
<trkpt lat="-27.274439" lon="151.2900641">
  <ele>343.09</ele>
  <time>2026-09-01T19:54:21Z</time>
  <course>11.34</course>
  <speed>0.022360679774997897</speed>
  <fix>3d</fix>
</trkpt>
<trkpt lat="-27.2744388" lon="151.290064">
  <ele>343.09</ele>
  <time>2026-09-01T19:54:21Z</time>
  <course>22.72</course>
  <speed>0.0</speed>
  <fix>3d</fix>
</trkpt>
<trkpt lat="-27.274439" lon="151.2900641">
  <ele>343.09</ele>
  <time>2026-09-01T19:54:21Z</time>
  <course>11.34</course>
  <speed>0.022360679774997897</speed>
  <fix>3d</fix>
</trkpt>
<trkpt lat="-27.2744388" lon="151.290064">
  <ele>343.09</ele>
  <time>2026-09-01T19:54:21Z</time>
  <course>25.41</course>
  <speed>0.0</speed>
  <fix>3d</fix>
</trkpt>
<trkpt lat="-27.274439" lon="151.2900641">
  <ele>343.09</ele>
  <time>2026-09-01T19:54:21Z</time>
  <course>11.34</course>
  <speed>0.022360679774997897</speed>
  <fix>3d</fix>
</trkpt>
<trkpt lat="-27.2744388" lon="151.290064">
  <ele>343.09</ele>
  <time>2026-09-01T19:54:21Z</time>
  <course>25.41</course>
  <speed>0.0</speed>
  <fix>3d</fix>
</trkpt>
<trkpt lat="-27.274439" lon="151.2900641">
  <ele>343.09</ele>
  <time>2026-09-01T19:54:21Z</time>
  <course>11.34</course>
  <speed>0.022360679774997897</speed>
  <fix>3d</fix>
</trkpt>
<trkpt lat="-27.2744388" lon="151.290064">
  <ele>343.09</ele>
  <time>2026-09-01T19:54:21Z</time>
  <course>350.74</course>
  <speed>0.0</speed>
  <fix>3d</fix>
</trkpt>
<trkpt lat="-27.274439" lon="151.2900641">
  <ele>343.09</ele>
  <time>2026-09-01T19:54:21Z</time>
  <course>11.34</course>
  <speed>0.022360679774997897</speed>
  <fix>3d</fix>
</trkpt>
<trkpt lat="-27.2744388" lon="151.290064">
  <ele>343.09</ele>
  <time>2026-09-01T19:54:21Z</time>
  <course>350.74</course>
  <speed>0.0</speed>
  <fix>3d</fix>
</trkpt>
<trkpt lat="-27.274439" lon="151.2900641">
  <ele>343.1</ele>
  <time>2026-09-01T19:54:21Z</time>
  <course>11.34</course>
  <speed>0.022360679774997897</speed>
  <fix>3d</fix>
</trkpt>
<trkpt lat="-27.2744388" lon="151.290064">
  <ele>343.09</ele>
  <time>2026-09-01T19:54:21Z</time>
  <course>12.98</course>
  <speed>0.0</speed>
  <fix>3d</fix>
</trkpt>
<trkpt lat="-27.274439" lon="151.2900641">
  <ele>343.09</ele>
  <time>2026-09-01T19:54:21Z</time>
  <course>11.34</course>
  <speed>0.022360679774997897</speed>
  <fix>3d</fix>
</trkpt>
<trkpt lat="-27.2744388" lon="151.290064">
  <ele>343.09</ele>
  <time>2026-09-01T19:54:21Z</time>
  <course>12.98</course>
  <speed>0.0</speed>
  <fix>3d</fix>
</trkpt>
<trkpt lat="-27.274439" lon="151.2900641">
  <ele>343.09</ele>
  <time>2026-09-01T19:54:21Z</time>
  <course>11.34</course>
  <speed>0.022360679774997897</speed>
  <fix>3d</fix>
</trkpt>
<trkpt lat="-27.2744388" lon="151.290064">
  <ele>343.09</ele>
  <time>2026-09-01T19:54:21Z</time>
  <course>17.41</course>
  <speed>0.0</speed>
  <fix>3d</fix>
</trkpt>
<trkpt lat="-27.274439" lon="151.2900641">
  <ele>343.09</ele>
  <time>2026-09-01T19:54:21Z</time>
  <course>11.35</course>
  <speed>0.022360679774997897</speed>
  <fix>3d</fix>
</trkpt>
<trkpt lat="-27.2744388" lon="151.290064">
  <ele>343.09</ele>
  <time>2026-09-01T19:54:21Z</time>
  <course>17.41</course>
  <speed>0.0</speed>
  <fix>3d</fix>
</trkpt>
<trkpt lat="-27.274439" lon="151.2900641">
  <ele>343.09</ele>
  <time>2026-09-01T19:54:21Z</time>
  <course>11.35</course>
  <speed>0.022360679774997897</speed>
  <fix>3d</fix>
</trkpt>
<trkpt lat="-27.2744388" lon="151.290064">
  <ele>343.09</ele>
  <time>2026-09-01T19:54:21Z</time>
  <course>7.83</course>
  <speed>0.0</speed>
  <fix>3d</fix>
</trkpt>
<trkpt lat="-27.274439" lon="151.2900641">
  <ele>343.09</ele>
  <time>2026-09-01T19:54:21Z</time>
  <course>11.35</course>
  <speed>0.022360679774997897</speed>
  <fix>3d</fix>
</trkpt>
<trkpt lat="-27.2744388" lon="151.290064">
  <ele>343.09</ele>
  <time>2026-09-01T19:54:21Z</time>
  <course>7.83</course>
  <speed>0.0</speed>
  <fix>3d</fix>
</trkpt>
<trkpt lat="-27.274439" lon="151.2900641">
  <ele>343.09</ele>
  <time>2026-09-01T19:54:21Z</time>
  <course>11.35</course>
  <speed>0.022360679774997897</speed>
  <fix>3d</fix>
</trkpt>
<trkpt lat="-27.2744388" lon="151.290064">
  <ele>343.09</ele>
  <time>2026-09-01T19:54:21Z</time>
  <course>20.13</course>
  <speed>0.0</speed>
  <fix>3d</fix>
</trkpt>
<trkpt lat="-27.274439" lon="151.2900641">
  <ele>343.09</ele>
  <time>2026-09-01T19:54:21Z</time>
  <course>11.35</course>
  <speed>0.022360679774997897</speed>
  <fix>3d</fix>
</trkpt>
<trkpt lat="-27.2744388" lon="151.290064">
  <ele>343.09</ele>
  <time>2026-09-01T19:54:21Z</time>
  <course>20.13</course>
  <speed>0.0</speed>
  <fix>3d</fix>
</trkpt>
<trkpt lat="-27.274439" lon="151.2900641">
  <ele>343.09</ele>
  <time>2026-09-01T19:54:21Z</time>
  <course>11.35</course>
  <speed>0.022360679774997897</speed>
  <fix>3d</fix>
</trkpt>
<trkpt lat="-27.2744388" lon="151.290064">
  <ele>343.09</ele>
  <time>2026-09-01T19:54:21Z</time>
  <course>28.16</course>
  <speed>0.0</speed>
  <fix>3d</fix>
</trkpt>
<trkpt lat="-27.274439" lon="151.2900641">
  <ele>343.09</ele>
  <time>2026-09-01T19:54:21Z</time>
  <course>11.35</course>
  <speed>0.022360679774997897</speed>
  <fix>3d</fix>
</trkpt>
<trkpt lat="-27.2744388" lon="151.290064">
  <ele>343.09</ele>
  <time>2026-09-01T19:54:21Z</time>
  <course>28.16</course>
  <speed>0.0</speed>
  <fix>3d</fix>
</trkpt>
<trkpt lat="-27.274439" lon="151.2900641">
  <ele>343.09</ele>
  <time>2026-09-01T19:54:21Z</time>
  <course>11.35</course>
  <speed>0.022360679774997897</speed>
  <fix>3d</fix>
</trkpt>
<trkpt lat="-27.2744388" lon="151.290064">
  <ele>343.09</ele>
  <time>2026-09-01T19:54:21Z</time>
  <course>5.33</course>
  <speed>0.0</speed>
  <fix>3d</fix>
</trkpt>
<trkpt lat="-27.274439" lon="151.2900641">
  <ele>343.09</ele>
  <time>2026-09-01T19:54:21Z</time>
  <course>11.35</course>
  <speed>0.022360679774997897</speed>
  <fix>3d</fix>
</trkpt>
<trkpt lat="-27.2744388" lon="151.290064">
  <ele>343.09</ele>
  <time>2026-09-01T19:54:21Z</time>
  <course>5.33</course>
  <speed>0.0</speed>
  <fix>3d</fix>
</trkpt>
<trkpt lat="-27.274439" lon="151.2900641">
  <ele>343.09</ele>
  <time>2026-09-01T19:54:21Z</time>
  <course>11.35</course>
  <speed>0.022360679774997897</speed>
  <fix>3d</fix>
</trkpt>
<trkpt lat="-27.2744388" lon="151.290064">
  <ele>343.09</ele>
  <time>2026-09-01T19:54:21Z</time>
  <course>0.99</course>
  <speed>0.0</speed>
  <fix>3d</fix>
</trkpt>
<trkpt lat="-27.274439" lon="151.2900641">
  <ele>343.09</ele>
  <time>2026-09-01T19:54:21Z</time>
  <course>11.35</course>
  <speed>0.022360679774997897</speed>
  <fix>3d</fix>
</trkpt>
<trkpt lat="-27.2744388" lon="151.290064">
  <ele>343.09</ele>
  <time>2026-09-01T19:54:21Z</time>
  <course>0.99</course>
  <speed>0.0</speed>
  <fix>3d</fix>
</trkpt>
<trkpt lat="-27.274439" lon="151.2900641">
  <ele>343.09</ele>
  <time>2026-09-01T19:54:21Z</time>
  <course>11.36</course>
  <speed>0.022360679774997897</speed>
  <fix>3d</fix>
</trkpt>
<trkpt lat="-27.2744388" lon="151.290064">
  <ele>343.09</ele>
  <time>2026-09-01T19:54:21Z</time>
  <course>358.87</course>
  <speed>0.0</speed>
  <fix>3d</fix>
</trkpt>
<trkpt lat="-27.274439" lon="151.2900641">
  <ele>343.09</ele>
  <time>2026-09-01T19:54:21Z</time>
  <course>11.36</course>
  <speed>0.022360679774997897</speed>
  <fix>3d</fix>
</trkpt>
<trkpt lat="-27.2744388" lon="151.290064">
  <ele>343.09</ele>
  <time>2026-09-01T19:54:21Z</time>
  <course>358.87</course>
  <speed>0.0</speed>
  <fix>3d</fix>
</trkpt>
<trkpt lat="-27.274439" lon="151.2900641">
  <ele>343.1</ele>
  <time>2026-09-01T19:54:21Z</time>
  <course>11.36</course>
  <speed>0.022360679774997897</speed>
  <fix>3d</fix>
</trkpt>
<trkpt lat="-27.2744388" lon="151.290064">
  <ele>343.09</ele>
  <time>2026-09-01T19:54:21Z</time>
  <course>8.89</course>
  <speed>0.0</speed>
  <fix>3d</fix>
</trkpt>
<trkpt lat="-27.274439" lon="151.2900641">
  <ele>343.1</ele>
  <time>2026-09-01T19:54:21Z</time>
  <course>11.36</course>
  <speed>0.022360679774997897</speed>
  <fix>3d</fix>
</trkpt>
<trkpt lat="-27.2744388" lon="151.290064">
  <ele>343.09</ele>
  <time>2026-09-01T19:54:21Z</time>
  <course>8.89</course>
  <speed>0.0</speed>
  <fix>3d</fix>
</trkpt>
<trkpt lat="-27.274439" lon="151.2900641">
  <ele>343.1</ele>
  <time>2026-09-01T19:54:21Z</time>
  <course>11.36</course>
  <speed>0.022360679774997897</speed>
  <fix>3d</fix>
</trkpt>
<trkpt lat="-27.2744388" lon="151.290064">
  <ele>343.09</ele>
  <time>2026-09-01T19:54:21Z</time>
  <course>27.89</course>
  <speed>0.0</speed>
  <fix>3d</fix>
</trkpt>
<trkpt lat="-27.274439" lon="151.2900641">
  <ele>343.1</ele>
  <time>2026-09-01T19:54:21Z</time>
  <course>11.36</course>
  <speed>0.022360679774997897</speed>
  <fix>3d</fix>
</trkpt>
<trkpt lat="-27.2744388" lon="151.290064">
  <ele>343.09</ele>
  <time>2026-09-01T19:54:21Z</time>
  <course>27.89</course>
  <speed>0.0</speed>
  <fix>3d</fix>
</trkpt>
<trkpt lat="-27.274439" lon="151.2900641">
  <ele>343.1</ele>
  <time>2026-09-01T19:54:21Z</time>
  <course>11.36</course>
  <speed>0.022360679774997897</speed>
  <fix>3d</fix>
</trkpt>
<trkpt lat="-27.2744388" lon="151.290064">
  <ele>343.09</ele>
  <time>2026-09-01T19:54:21Z</time>
  <course>16.13</course>
  <speed>0.0</speed>
  <fix>3d</fix>
</trkpt>
<trkpt lat="-27.274439" lon="151.2900641">
  <ele>343.1</ele>
  <time>2026-09-01T19:54:21Z</time>
  <course>11.36</course>
  <speed>0.022360679774997897</speed>
  <fix>3d</fix>
</trkpt>
<trkpt lat="-27.2744388" lon="151.290064">
  <ele>343.09</ele>
  <time>2026-09-01T19:54:21Z</time>
  <course>16.13</course>
  <speed>0.0</speed>
  <fix>3d</fix>
</trkpt>
<trkpt lat="-27.274439" lon="151.2900641">
  <ele>343.1</ele>
  <time>2026-09-01T19:54:21Z</time>
  <course>11.36</course>
  <speed>0.022360679774997897</speed>
  <fix>3d</fix>
</trkpt>
<trkpt lat="-27.2744388" lon="151.290064">
  <ele>343.09</ele>
  <time>2026-09-01T19:54:21Z</time>
  <course>2.23</course>
  <speed>0.0</speed>
  <fix>3d</fix>
</trkpt>
<trkpt lat="-27.274439" lon="151.2900641">
  <ele>343.1</ele>
  <time>2026-09-01T19:54:21Z</time>
  <course>11.36</course>
  <speed>0.022360679774997897</speed>
  <fix>3d</fix>
</trkpt>
<trkpt lat="-27.2744388" lon="151.290064">
  <ele>343.09</ele>
  <time>2026-09-01T19:54:21Z</time>
  <course>2.23</course>
  <speed>0.0</speed>
  <fix>3d</fix>
</trkpt>
<trkpt lat="-27.274439" lon="151.2900641">
  <ele>343.1</ele>
  <time>2026-09-01T19:54:21Z</time>
  <course>11.37</course>
  <speed>0.022360679774997897</speed>
  <fix>3d</fix>
</trkpt>
<trkpt lat="-27.2744388" lon="151.290064">
  <ele>343.09</ele>
  <time>2026-09-01T19:54:21Z</time>
  <course>10.14</course>
  <speed>0.0</speed>
  <fix>3d</fix>
</trkpt>
<trkpt lat="-27.274439" lon="151.2900641">
  <ele>343.11</ele>
  <time>2026-09-01T19:54:21Z</time>
  <course>11.37</course>
  <speed>0.022360679774997897</speed>
  <fix>3d</fix>
</trkpt>
<trkpt lat="-27.2744388" lon="151.290064">
  <ele>343.09</ele>
  <time>2026-09-01T19:54:21Z</time>
  <course>10.14</course>
  <speed>0.0</speed>
  <fix>3d</fix>
</trkpt>
<trkpt lat="-27.274439" lon="151.2900641">
  <ele>343.11</ele>
  <time>2026-09-01T19:54:21Z</time>
  <course>11.37</course>
  <speed>0.022360679774997897</speed>
  <fix>3d</fix>
</trkpt>
<trkpt lat="-27.2744388" lon="151.290064">
  <ele>343.09</ele>
  <time>2026-09-01T19:54:21Z</time>
  <course>14.11</course>
  <speed>0.0</speed>
  <fix>3d</fix>
</trkpt>
<trkpt lat="-27.274439" lon="151.2900641">
  <ele>343.1</ele>
  <time>2026-09-01T19:54:21Z</time>
  <course>11.37</course>
  <speed>0.022360679774997897</speed>
  <fix>3d</fix>
</trkpt>
<trkpt lat="-27.2744388" lon="151.290064">
  <ele>343.09</ele>
  <time>2026-09-01T19:54:21Z</time>
  <course>14.11</course>
  <speed>0.0</speed>
  <fix>3d</fix>
</trkpt>
<trkpt lat="-27.274439" lon="151.2900641">
  <ele>343.1</ele>
  <time>2026-09-01T19:54:21Z</time>
  <course>11.37</course>
  <speed>0.022360679774997897</speed>
  <fix>3d</fix>
</trkpt>
<trkpt lat="-27.2744388" lon="151.290064">
  <ele>343.09</ele>
  <time>2026-09-01T19:54:21Z</time>
  <course>18.85</course>
  <speed>0.0</speed>
  <fix>3d</fix>
</trkpt>
<trkpt lat="-27.274439" lon="151.2900641">
  <ele>343.11</ele>
  <time>2026-09-01T19:54:21Z</time>
  <course>11.37</course>
  <speed>0.022360679774997897</speed>
  <fix>3d</fix>
</trkpt>
<trkpt lat="-27.2744388" lon="151.290064">
  <ele>343.09</ele>
  <time>2026-09-01T19:54:21Z</time>
  <course>18.85</course>
  <speed>0.0</speed>
  <fix>3d</fix>
</trkpt>
<trkpt lat="-27.274439" lon="151.2900641">
  <ele>343.11</ele>
  <time>2026-09-01T19:54:21Z</time>
  <course>11.37</course>
  <speed>0.022360679774997897</speed>
  <fix>3d</fix>
</trkpt>
<trkpt lat="-27.2744388" lon="151.290064">
  <ele>343.09</ele>
  <time>2026-09-01T19:54:21Z</time>
  <course>31.27</course>
  <speed>0.0</speed>
  <fix>3d</fix>
</trkpt>
<trkpt lat="-27.274439" lon="151.2900641">
  <ele>343.11</ele>
  <time>2026-09-01T19:54:21Z</time>
  <course>11.37</course>
  <speed>0.022360679774997897</speed>
  <fix>3d</fix>
</trkpt>
<trkpt lat="-27.2744388" lon="151.290064">
  <ele>343.09</ele>
  <time>2026-09-01T19:54:21Z</time>
  <course>31.27</course>
  <speed>0.0</speed>
  <fix>3d</fix>
</trkpt>
<trkpt lat="-27.274439" lon="151.2900641">
  <ele>343.11</ele>
  <time>2026-09-01T19:54:21Z</time>
  <course>11.37</course>
  <speed>0.022360679774997897</speed>
  <fix>3d</fix>
</trkpt>
<trkpt lat="-27.2744388" lon="151.290064">
  <ele>343.09</ele>
  <time>2026-09-01T19:54:21Z</time>
  <course>24.58</course>
  <speed>0.0</speed>
  <fix>3d</fix>
</trkpt>
<trkpt lat="-27.274439" lon="151.2900641">
  <ele>343.11</ele>
  <time>2026-09-01T19:54:21Z</time>
  <course>11.37</course>
  <speed>0.022360679774997897</speed>
  <fix>3d</fix>
</trkpt>
<trkpt lat="-27.2744388" lon="151.290064">
  <ele>343.09</ele>
  <time>2026-09-01T19:54:21Z</time>
  <course>24.58</course>
  <speed>0.0</speed>
  <fix>3d</fix>
</trkpt>
<trkpt lat="-27.274439" lon="151.2900641">
  <ele>343.11</ele>
  <time>2026-09-01T19:54:21Z</time>
  <course>11.37</course>
  <speed>0.022360679774997897</speed>
  <fix>3d</fix>
</trkpt>
<trkpt lat="-27.2744388" lon="151.290064">
  <ele>343.09</ele>
  <time>2026-09-01T19:54:21Z</time>
  <course>355.45</course>
  <speed>0.0</speed>
  <fix>3d</fix>
</trkpt>
<trkpt lat="-27.274439" lon="151.2900641">
  <ele>343.11</ele>
  <time>2026-09-01T19:54:21Z</time>
  <course>11.38</course>
  <speed>0.022360679774997897</speed>
  <fix>3d</fix>
</trkpt>
<trkpt lat="-27.2744388" lon="151.290064">
  <ele>343.09</ele>
  <time>2026-09-01T19:54:21Z</time>
  <course>355.45</course>
  <speed>0.0</speed>
  <fix>3d</fix>
</trkpt>
<trkpt lat="-27.274439" lon="151.2900641">
  <ele>343.12</ele>
  <time>2026-09-01T19:54:21Z</time>
  <course>11.38</course>
  <speed>0.022360679774997897</speed>
  <fix>3d</fix>
</trkpt>
<trkpt lat="-27.2744388" lon="151.290064">
  <ele>343.09</ele>
  <time>2026-09-01T19:54:21Z</time>
  <course>357.98</course>
  <speed>0.0</speed>
  <fix>3d</fix>
</trkpt>
<trkpt lat="-27.274439" lon="151.2900641">
  <ele>343.12</ele>
  <time>2026-09-01T19:54:21Z</time>
  <course>11.38</course>
  <speed>0.022360679774997897</speed>
  <fix>3d</fix>
</trkpt>
<trkpt lat="-27.2744388" lon="151.290064">
  <ele>343.09</ele>
  <time>2026-09-01T19:54:21Z</time>
  <course>357.98</course>
  <speed>0.0</speed>
  <fix>3d</fix>
</trkpt>
<trkpt lat="-27.274439" lon="151.2900641">
  <ele>343.12</ele>
  <time>2026-09-01T19:54:21Z</time>
  <course>11.38</course>
  <speed>0.022360679774997897</speed>
  <fix>3d</fix>
</trkpt>
<trkpt lat="-27.2744388" lon="151.290064">
  <ele>343.09</ele>
  <time>2026-09-01T19:54:21Z</time>
  <course>13.18</course>
  <speed>0.0</speed>
  <fix>3d</fix>
</trkpt>
<trkpt lat="-27.274439" lon="151.2900641">
  <ele>343.12</ele>
  <time>2026-09-01T19:54:21Z</time>
  <course>11.38</course>
  <speed>0.022360679774997897</speed>
  <fix>3d</fix>
</trkpt>
<trkpt lat="-27.2744388" lon="151.290064">
  <ele>343.09</ele>
  <time>2026-09-01T19:54:21Z</time>
  <course>13.18</course>
  <speed>0.0</speed>
  <fix>3d</fix>
</trkpt>
<trkpt lat="-27.274439" lon="151.2900641">
  <ele>343.12</ele>
  <time>2026-09-01T19:54:21Z</time>
  <course>11.38</course>
  <speed>0.022360679774997897</speed>
  <fix>3d</fix>
</trkpt>
<trkpt lat="-27.2744388" lon="151.290064">
  <ele>343.09</ele>
  <time>2026-09-01T19:54:21Z</time>
  <course>1.33</course>
  <speed>0.0</speed>
  <fix>3d</fix>
</trkpt>
<trkpt lat="-27.274439" lon="151.2900641">
  <ele>343.12</ele>
  <time>2026-09-01T19:54:21Z</time>
  <course>11.38</course>
  <speed>0.022360679774997897</speed>
  <fix>3d</fix>
</trkpt>
<trkpt lat="-27.2744388" lon="151.290064">
  <ele>343.09</ele>
  <time>2026-09-01T19:54:21Z</time>
  <course>1.33</course>
  <speed>0.0</speed>
  <fix>3d</fix>
</trkpt>
<trkpt lat="-27.274439" lon="151.2900641">
  <ele>343.09</ele>
  <time>2026-09-01T19:54:21Z</time>
  <course>11.38</course>
  <speed>0.022360679774997897</speed>
  <fix>3d</fix>
</trkpt>
<trkpt lat="-27.2744388" lon="151.290064">
  <ele>343.09</ele>
  <time>2026-09-01T19:54:21Z</time>
  <course>359.16</course>
  <speed>0.0</speed>
  <fix>3d</fix>
</trkpt>
<trkpt lat="-27.274439" lon="151.2900641">
  <ele>343.08</ele>
  <time>2026-09-01T19:54:21Z</time>
  <course>11.38</course>
  <speed>0.022360679774997897</speed>
  <fix>3d</fix>
</trkpt>
<trkpt lat="-27.2744388" lon="151.290064">
  <ele>343.09</ele>
  <time>2026-09-01T19:54:21Z</time>
  <course>359.16</course>
  <speed>0.0</speed>
  <fix>3d</fix>
</trkpt>
<trkpt lat="-27.274439" lon="151.2900641">
  <ele>343.09</ele>
  <time>2026-09-01T19:54:21Z</time>
  <course>11.38</course>
  <speed>0.022360679774997897</speed>
  <fix>3d</fix>
</trkpt>
<trkpt lat="-27.2744388" lon="151.290064">
  <ele>343.09</ele>
  <time>2026-09-01T19:54:21Z</time>
  <course>0.6</course>
  <speed>0.0</speed>
  <fix>3d</fix>
</trkpt>
<trkpt lat="-27.274439" lon="151.2900641">
  <ele>343.09</ele>
  <time>2026-09-01T19:54:21Z</time>
  <course>11.39</course>
  <speed>0.022360679774997897</speed>
  <fix>3d</fix>
</trkpt>
<trkpt lat="-27.2744388" lon="151.290064">
  <ele>343.09</ele>
  <time>2026-09-01T19:54:21Z</time>
  <course>0.6</course>
  <speed>0.0</speed>
  <fix>3d</fix>
</trkpt>
<trkpt lat="-27.274439" lon="151.2900641">
  <ele>343.09</ele>
  <time>2026-09-01T19:54:21Z</time>
  <course>11.39</course>
  <speed>0.022360679774997897</speed>
  <fix>3d</fix>
</trkpt>
<trkpt lat="-27.2744388" lon="151.290064">
  <ele>343.09</ele>
  <time>2026-09-01T19:54:21Z</time>
  <course>5.11</course>
  <speed>0.0</speed>
  <fix>3d</fix>
</trkpt>
<trkpt lat="-27.274439" lon="151.2900641">
  <ele>343.1</ele>
  <time>2026-09-01T19:54:21Z</time>
  <course>11.39</course>
  <speed>0.022360679774997897</speed>
  <fix>3d</fix>
</trkpt>
<trkpt lat="-27.2744388" lon="151.290064">
  <ele>343.09</ele>
  <time>2026-09-01T19:54:21Z</time>
  <course>5.11</course>
  <speed>0.0</speed>
  <fix>3d</fix>
</trkpt>
<trkpt lat="-27.274439" lon="151.2900641">
  <ele>343.1</ele>
  <time>2026-09-01T19:54:21Z</time>
  <course>11.39</course>
  <speed>0.022360679774997897</speed>
  <fix>3d</fix>
</trkpt>
<trkpt lat="-27.2744388" lon="151.290064">
  <ele>343.09</ele>
  <time>2026-09-01T19:54:21Z</time>
  <course>17.41</course>
  <speed>0.0</speed>
  <fix>3d</fix>
</trkpt>
<trkpt lat="-27.274439" lon="151.2900641">
  <ele>343.1</ele>
  <time>2026-09-01T19:54:21Z</time>
  <course>11.39</course>
  <speed>0.022360679774997897</speed>
  <fix>3d</fix>
</trkpt>
<trkpt lat="-27.2744388" lon="151.290064">
  <ele>343.09</ele>
  <time>2026-09-01T19:54:21Z</time>
  <course>17.41</course>
  <speed>0.0</speed>
  <fix>3d</fix>
</trkpt>
<trkpt lat="-27.274439" lon="151.2900641">
  <ele>343.11</ele>
  <time>2026-09-01T19:54:21Z</time>
  <course>11.39</course>
  <speed>0.022360679774997897</speed>
  <fix>3d</fix>
</trkpt>
<trkpt lat="-27.2744388" lon="151.290064">
  <ele>343.09</ele>
  <time>2026-09-01T19:54:21Z</time>
  <course>8.34</course>
  <speed>0.0</speed>
  <fix>3d</fix>
</trkpt>
<trkpt lat="-27.274439" lon="151.2900641">
  <ele>343.11</ele>
  <time>2026-09-01T19:54:21Z</time>
  <course>11.39</course>
  <speed>0.022360679774997897</speed>
  <fix>3d</fix>
</trkpt>
<trkpt lat="-27.2744388" lon="151.290064">
  <ele>343.09</ele>
  <time>2026-09-01T19:54:21Z</time>
  <course>8.34</course>
  <speed>0.0</speed>
  <fix>3d</fix>
</trkpt>
<trkpt lat="-27.274439" lon="151.2900641">
  <ele>343.11</ele>
  <time>2026-09-01T19:54:21Z</time>
  <course>11.39</course>
  <speed>0.022360679774997897</speed>
  <fix>3d</fix>
</trkpt>
<trkpt lat="-27.2744388" lon="151.290064">
  <ele>343.09</ele>
  <time>2026-09-01T19:54:21Z</time>
  <course>340.91</course>
  <speed>0.0</speed>
  <fix>3d</fix>
</trkpt>
<trkpt lat="-27.274439" lon="151.2900641">
  <ele>343.12</ele>
  <time>2026-09-01T19:54:21Z</time>
  <course>11.39</course>
  <speed>0.022360679774997897</speed>
  <fix>3d</fix>
</trkpt>
<trkpt lat="-27.2744388" lon="151.290064">
  <ele>343.09</ele>
  <time>2026-09-01T19:54:21Z</time>
  <course>340.91</course>
  <speed>0.0</speed>
  <fix>3d</fix>
</trkpt>
<trkpt lat="-27.274439" lon="151.2900641">
  <ele>343.12</ele>
  <time>2026-09-01T19:54:21Z</time>
  <course>11.39</course>
  <speed>0.022360679774997897</speed>
  <fix>3d</fix>
</trkpt>
<trkpt lat="-27.2744388" lon="151.290064">
  <ele>343.09</ele>
  <time>2026-09-01T19:54:21Z</time>
  <course>2.09</course>
  <speed>0.0</speed>
  <fix>3d</fix>
</trkpt>
<trkpt lat="-27.274439" lon="151.2900641">
  <ele>343.12</ele>
  <time>2026-09-01T19:54:21Z</time>
  <course>11.39</course>
  <speed>0.022360679774997897</speed>
  <fix>3d</fix>
</trkpt>
<trkpt lat="-27.2744388" lon="151.290064">
  <ele>343.09</ele>
  <time>2026-09-01T19:54:21Z</time>
  <course>2.09</course>
  <speed>0.0</speed>
  <fix>3d</fix>
</trkpt>
<trkpt lat="-27.274439" lon="151.2900641">
  <ele>343.12</ele>
  <time>2026-09-01T19:54:21Z</time>
  <course>11.4</course>
  <speed>0.022360679774997897</speed>
  <fix>3d</fix>
</trkpt>
<trkpt lat="-27.2744388" lon="151.290064">
  <ele>343.09</ele>
  <time>2026-09-01T19:54:21Z</time>
  <course>15.43</course>
  <speed>0.0</speed>
  <fix>3d</fix>
</trkpt>
<trkpt lat="-27.274439" lon="151.2900641">
  <ele>343.12</ele>
  <time>2026-09-01T19:54:21Z</time>
  <course>11.4</course>
  <speed>0.022360679774997897</speed>
  <fix>3d</fix>
</trkpt>
<trkpt lat="-27.2744388" lon="151.290064">
  <ele>343.09</ele>
  <time>2026-09-01T19:54:21Z</time>
  <course>15.43</course>
  <speed>0.0</speed>
  <fix>3d</fix>
</trkpt>
<trkpt lat="-27.274439" lon="151.2900641">
  <ele>343.13</ele>
  <time>2026-09-01T19:54:21Z</time>
  <course>11.4</course>
  <speed>0.022360679774997897</speed>
  <fix>3d</fix>
</trkpt>
<trkpt lat="-27.2744388" lon="151.290064">
  <ele>343.09</ele>
  <time>2026-09-01T19:54:21Z</time>
  <course>350.68</course>
  <speed>0.0</speed>
  <fix>3d</fix>
</trkpt>
<trkpt lat="-27.274439" lon="151.2900641">
  <ele>343.13</ele>
  <time>2026-09-01T19:54:21Z</time>
  <course>11.4</course>
  <speed>0.022360679774997897</speed>
  <fix>3d</fix>
</trkpt>
<trkpt lat="-27.2744388" lon="151.290064">
  <ele>343.09</ele>
  <time>2026-09-01T19:54:21Z</time>
  <course>350.68</course>
  <speed>0.0</speed>
  <fix>3d</fix>
</trkpt>
<trkpt lat="-27.274439" lon="151.2900641">
  <ele>343.13</ele>
  <time>2026-09-01T19:54:21Z</time>
  <course>11.4</course>
  <speed>0.022360679774997897</speed>
  <fix>3d</fix>
</trkpt>
<trkpt lat="-27.2744388" lon="151.290064">
  <ele>343.09</ele>
  <time>2026-09-01T19:54:21Z</time>
  <course>354.49</course>
  <speed>0.0</speed>
  <fix>3d</fix>
</trkpt>
<trkpt lat="-27.274439" lon="151.2900641">
  <ele>343.14</ele>
  <time>2026-09-01T19:54:21Z</time>
  <course>11.4</course>
  <speed>0.022360679774997897</speed>
  <fix>3d</fix>
</trkpt>
<trkpt lat="-27.2744388" lon="151.290064">
  <ele>343.09</ele>
  <time>2026-09-01T19:54:21Z</time>
  <course>354.49</course>
  <speed>0.0</speed>
  <fix>3d</fix>
</trkpt>
<trkpt lat="-27.274439" lon="151.2900641">
  <ele>343.14</ele>
  <time>2026-09-01T19:54:21Z</time>
  <course>11.4</course>
  <speed>0.022360679774997897</speed>
  <fix>3d</fix>
</trkpt>
<trkpt lat="-27.2744388" lon="151.290064">
  <ele>343.09</ele>
  <time>2026-09-01T19:54:21Z</time>
  <course>351.6</course>
  <speed>0.0</speed>
  <fix>3d</fix>
</trkpt>
<trkpt lat="-27.274439" lon="151.2900641">
  <ele>343.14</ele>
  <time>2026-09-01T19:54:21Z</time>
  <course>11.4</course>
  <speed>0.022360679774997897</speed>
  <fix>3d</fix>
</trkpt>
<trkpt lat="-27.2744388" lon="151.290064">
  <ele>343.09</ele>
  <time>2026-09-01T19:54:21Z</time>
  <course>351.6</course>
  <speed>0.0</speed>
  <fix>3d</fix>
</trkpt>
<trkpt lat="-27.274439" lon="151.2900641">
  <ele>343.15</ele>
  <time>2026-09-01T19:54:21Z</time>
  <course>11.4</course>
  <speed>0.022360679774997897</speed>
  <fix>3d</fix>
</trkpt>
<trkpt lat="-27.2744388" lon="151.290064">
  <ele>343.09</ele>
  <time>2026-09-01T19:54:21Z</time>
  <course>8.2</course>
  <speed>0.0</speed>
  <fix>3d</fix>
</trkpt>
<trkpt lat="-27.274439" lon="151.2900641">
  <ele>343.15</ele>
  <time>2026-09-01T19:54:21Z</time>
  <course>11.4</course>
  <speed>0.022360679774997897</speed>
  <fix>3d</fix>
</trkpt>
<trkpt lat="-27.2744388" lon="151.290064">
  <ele>343.09</ele>
  <time>2026-09-01T19:54:21Z</time>
  <course>8.2</course>
  <speed>0.0</speed>
  <fix>3d</fix>
</trkpt>
<trkpt lat="-27.274439" lon="151.2900641">
  <ele>343.15</ele>
  <time>2026-09-01T19:54:21Z</time>
  <course>11.4</course>
  <speed>0.022360679774997897</speed>
  <fix>3d</fix>
</trkpt>
<trkpt lat="-27.2744388" lon="151.290064">
  <ele>343.09</ele>
  <time>2026-09-01T19:54:21Z</time>
  <course>18.09</course>
  <speed>0.0</speed>
  <fix>3d</fix>
</trkpt>
<trkpt lat="-27.274439" lon="151.2900641">
  <ele>343.16</ele>
  <time>2026-09-01T19:54:21Z</time>
  <course>11.41</course>
  <speed>0.022360679774997897</speed>
  <fix>3d</fix>
</trkpt>
<trkpt lat="-27.2744388" lon="151.290064">
  <ele>343.09</ele>
  <time>2026-09-01T19:54:21Z</time>
  <course>18.09</course>
  <speed>0.0</speed>
  <fix>3d</fix>
</trkpt>
<trkpt lat="-27.274439" lon="151.2900641">
  <ele>343.16</ele>
  <time>2026-09-01T19:54:21Z</time>
  <course>11.41</course>
  <speed>0.022360679774997897</speed>
  <fix>3d</fix>
</trkpt>
<trkpt lat="-27.2744388" lon="151.290064">
  <ele>343.09</ele>
  <time>2026-09-01T19:54:21Z</time>
  <course>9.22</course>
  <speed>0.0</speed>
  <fix>3d</fix>
</trkpt>
<trkpt lat="-27.274439" lon="151.2900641">
  <ele>343.16</ele>
  <time>2026-09-01T19:54:21Z</time>
  <course>11.41</course>
  <speed>0.022360679774997897</speed>
  <fix>3d</fix>
</trkpt>
<trkpt lat="-27.2744388" lon="151.290064">
  <ele>343.09</ele>
  <time>2026-09-01T19:54:21Z</time>
  <course>9.22</course>
  <speed>0.0</speed>
  <fix>3d</fix>
</trkpt>
<trkpt lat="-27.274439" lon="151.2900641">
  <ele>343.17</ele>
  <time>2026-09-01T19:54:21Z</time>
  <course>11.41</course>
  <speed>0.022360679774997897</speed>
  <fix>3d</fix>
</trkpt>
<trkpt lat="-27.2744388" lon="151.290064">
  <ele>343.09</ele>
  <time>2026-09-01T19:54:21Z</time>
  <course>13.17</course>
  <speed>0.0</speed>
  <fix>3d</fix>
</trkpt>
<trkpt lat="-27.274439" lon="151.2900641">
  <ele>343.17</ele>
  <time>2026-09-01T19:54:21Z</time>
  <course>11.41</course>
  <speed>0.022360679774997897</speed>
  <fix>3d</fix>
</trkpt>
<trkpt lat="-27.2744388" lon="151.290064">
  <ele>343.09</ele>
  <time>2026-09-01T19:54:21Z</time>
  <course>13.17</course>
  <speed>0.0</speed>
  <fix>3d</fix>
</trkpt>
<trkpt lat="-27.274439" lon="151.2900641">
  <ele>343.18</ele>
  <time>2026-09-01T19:54:21Z</time>
  <course>11.41</course>
  <speed>0.022360679774997897</speed>
  <fix>3d</fix>
</trkpt>
<trkpt lat="-27.2744388" lon="151.290064">
  <ele>343.09</ele>
  <time>2026-09-01T19:54:21Z</time>
  <course>33.57</course>
  <speed>0.0</speed>
  <fix>3d</fix>
</trkpt>
<trkpt lat="-27.274439" lon="151.2900641">
  <ele>343.18</ele>
  <time>2026-09-01T19:54:21Z</time>
  <course>11.41</course>
  <speed>0.022360679774997897</speed>
  <fix>3d</fix>
</trkpt>
<trkpt lat="-27.2744388" lon="151.290064">
  <ele>343.09</ele>
  <time>2026-09-01T19:54:21Z</time>
  <course>33.57</course>
  <speed>0.0</speed>
  <fix>3d</fix>
</trkpt>
<trkpt lat="-27.274439" lon="151.2900641">
  <ele>343.18</ele>
  <time>2026-09-01T19:54:21Z</time>
  <course>11.41</course>
  <speed>0.022360679774997897</speed>
  <fix>3d</fix>
</trkpt>
<trkpt lat="-27.2744388" lon="151.290064">
  <ele>343.09</ele>
  <time>2026-09-01T19:54:21Z</time>
  <course>16.24</course>
  <speed>0.0</speed>
  <fix>3d</fix>
</trkpt>
<trkpt lat="-27.274439" lon="151.2900641">
  <ele>343.19</ele>
  <time>2026-09-01T19:54:21Z</time>
  <course>11.41</course>
  <speed>0.022360679774997897</speed>
  <fix>3d</fix>
</trkpt>
<trkpt lat="-27.2744388" lon="151.290064">
  <ele>343.09</ele>
  <time>2026-09-01T19:54:21Z</time>
  <course>16.24</course>
  <speed>0.0</speed>
  <fix>3d</fix>
</trkpt>
<trkpt lat="-27.274439" lon="151.2900641">
  <ele>343.19</ele>
  <time>2026-09-01T19:54:21Z</time>
  <course>11.41</course>
  <speed>0.022360679774997897</speed>
  <fix>3d</fix>
</trkpt>
<trkpt lat="-27.2744388" lon="151.290064">
  <ele>343.09</ele>
  <time>2026-09-01T19:54:21Z</time>
  <course>13.22</course>
  <speed>0.0</speed>
  <fix>3d</fix>
</trkpt>
<trkpt lat="-27.274439" lon="151.2900641">
  <ele>343.19</ele>
  <time>2026-09-01T19:54:21Z</time>
  <course>11.41</course>
  <speed>0.022360679774997897</speed>
  <fix>3d</fix>
</trkpt>
<trkpt lat="-27.2744388" lon="151.290064">
  <ele>343.09</ele>
  <time>2026-09-01T19:54:21Z</time>
  <course>13.22</course>
  <speed>0.0</speed>
  <fix>3d</fix>
</trkpt>
<trkpt lat="-27.274439" lon="151.2900641">
  <ele>343.2</ele>
  <time>2026-09-01T19:54:21Z</time>
  <course>11.42</course>
  <speed>0.022360679774997897</speed>
  <fix>3d</fix>
</trkpt>
<trkpt lat="-27.2744388" lon="151.290064">
  <ele>343.09</ele>
  <time>2026-09-01T19:54:21Z</time>
  <course>14.75</course>
  <speed>0.0</speed>
  <fix>3d</fix>
</trkpt>
<trkpt lat="-27.274439" lon="151.2900641">
  <ele>343.2</ele>
  <time>2026-09-01T19:54:21Z</time>
  <course>11.42</course>
  <speed>0.022360679774997897</speed>
  <fix>3d</fix>
</trkpt>
<trkpt lat="-27.2744388" lon="151.290064">
  <ele>343.09</ele>
  <time>2026-09-01T19:54:21Z</time>
  <course>14.75</course>
  <speed>0.0</speed>
  <fix>3d</fix>
</trkpt>
<trkpt lat="-27.274439" lon="151.2900641">
  <ele>343.21</ele>
  <time>2026-09-01T19:54:21Z</time>
  <course>11.42</course>
  <speed>0.022360679774997897</speed>
  <fix>3d</fix>
</trkpt>
<trkpt lat="-27.2744388" lon="151.290064">
  <ele>343.09</ele>
  <time>2026-09-01T19:54:21Z</time>
  <course>358.71</course>
  <speed>0.0</speed>
  <fix>3d</fix>
</trkpt>
<trkpt lat="-27.274439" lon="151.2900641">
  <ele>343.21</ele>
  <time>2026-09-01T19:54:21Z</time>
  <course>11.42</course>
  <speed>0.022360679774997897</speed>
  <fix>3d</fix>
</trkpt>
<trkpt lat="-27.2744388" lon="151.290064">
  <ele>343.09</ele>
  <time>2026-09-01T19:54:21Z</time>
  <course>358.71</course>
  <speed>0.0</speed>
  <fix>3d</fix>
</trkpt>
<trkpt lat="-27.274439" lon="151.2900641">
  <ele>343.22</ele>
  <time>2026-09-01T19:54:21Z</time>
  <course>11.42</course>
  <speed>0.022360679774997897</speed>
  <fix>3d</fix>
</trkpt>
<trkpt lat="-27.2744388" lon="151.290064">
  <ele>343.09</ele>
  <time>2026-09-01T19:54:21Z</time>
  <course>2.59</course>
  <speed>0.0</speed>
  <fix>3d</fix>
</trkpt>
<trkpt lat="-27.274439" lon="151.2900641">
  <ele>343.22</ele>
  <time>2026-09-01T19:54:21Z</time>
  <course>11.42</course>
  <speed>0.022360679774997897</speed>
  <fix>3d</fix>
</trkpt>
<trkpt lat="-27.2744388" lon="151.290064">
  <ele>343.09</ele>
  <time>2026-09-01T19:54:21Z</time>
  <course>2.59</course>
  <speed>0.0</speed>
  <fix>3d</fix>
</trkpt>
<trkpt lat="-27.274439" lon="151.2900641">
  <ele>343.23</ele>
  <time>2026-09-01T19:54:21Z</time>
  <course>11.42</course>
  <speed>0.022360679774997897</speed>
  <fix>3d</fix>
</trkpt>
<trkpt lat="-27.2744388" lon="151.290064">
  <ele>343.09</ele>
  <time>2026-09-01T19:54:21Z</time>
  <course>20.22</course>
  <speed>0.0</speed>
  <fix>3d</fix>
</trkpt>
<trkpt lat="-27.274439" lon="151.2900641">
  <ele>343.23</ele>
  <time>2026-09-01T19:54:21Z</time>
  <course>11.42</course>
  <speed>0.022360679774997897</speed>
  <fix>3d</fix>
</trkpt>
<trkpt lat="-27.2744388" lon="151.290064">
  <ele>343.09</ele>
  <time>2026-09-01T19:54:21Z</time>
  <course>20.22</course>
  <speed>0.0</speed>
  <fix>3d</fix>
</trkpt>
<trkpt lat="-27.274439" lon="151.2900641">
  <ele>343.24</ele>
  <time>2026-09-01T19:54:21Z</time>
  <course>11.42</course>
  <speed>0.022360679774997897</speed>
  <fix>3d</fix>
</trkpt>
<trkpt lat="-27.2744388" lon="151.290064">
  <ele>343.09</ele>
  <time>2026-09-01T19:54:21Z</time>
  <course>14.74</course>
  <speed>0.0</speed>
  <fix>3d</fix>
</trkpt>
<trkpt lat="-27.274439" lon="151.2900641">
  <ele>343.24</ele>
  <time>2026-09-01T19:54:21Z</time>
  <course>11.42</course>
  <speed>0.022360679774997897</speed>
  <fix>3d</fix>
</trkpt>
<trkpt lat="-27.2744388" lon="151.290064">
  <ele>343.09</ele>
  <time>2026-09-01T19:54:21Z</time>
  <course>14.74</course>
  <speed>0.0</speed>
  <fix>3d</fix>
</trkpt>
<trkpt lat="-27.274439" lon="151.2900641">
  <ele>343.24</ele>
  <time>2026-09-01T19:54:21Z</time>
  <course>11.42</course>
  <speed>0.022360679774997897</speed>
  <fix>3d</fix>
</trkpt>
<trkpt lat="-27.2744388" lon="151.290064">
  <ele>343.09</ele>
  <time>2026-09-01T19:54:21Z</time>
  <course>358.23</course>
  <speed>0.0</speed>
  <fix>3d</fix>
</trkpt>
<trkpt lat="-27.274439" lon="151.2900641">
  <ele>343.25</ele>
  <time>2026-09-01T19:54:21Z</time>
  <course>11.43</course>
  <speed>0.022360679774997897</speed>
  <fix>3d</fix>
</trkpt>
<trkpt lat="-27.2744388" lon="151.290064">
  <ele>343.09</ele>
  <time>2026-09-01T19:54:21Z</time>
  <course>358.23</course>
  <speed>0.0</speed>
  <fix>3d</fix>
</trkpt>
<trkpt lat="-27.274439" lon="151.2900641">
  <ele>343.25</ele>
  <time>2026-09-01T19:54:21Z</time>
  <course>11.43</course>
  <speed>0.022360679774997897</speed>
  <fix>3d</fix>
</trkpt>
<trkpt lat="-27.2744388" lon="151.290064">
  <ele>343.09</ele>
  <time>2026-09-01T19:54:21Z</time>
  <course>15.75</course>
  <speed>0.0</speed>
  <fix>3d</fix>
</trkpt>
<trkpt lat="-27.274439" lon="151.2900641">
  <ele>343.25</ele>
  <time>2026-09-01T19:54:21Z</time>
  <course>11.43</course>
  <speed>0.022360679774997897</speed>
  <fix>3d</fix>
</trkpt>
<trkpt lat="-27.2744388" lon="151.290064">
  <ele>343.09</ele>
  <time>2026-09-01T19:54:21Z</time>
  <course>15.75</course>
  <speed>0.0</speed>
  <fix>3d</fix>
</trkpt>
<trkpt lat="-27.274439" lon="151.2900641">
  <ele>343.25</ele>
  <time>2026-09-01T19:54:21Z</time>
  <course>11.43</course>
  <speed>0.022360679774997897</speed>
  <fix>3d</fix>
</trkpt>
<trkpt lat="-27.2744388" lon="151.290064">
  <ele>343.09</ele>
  <time>2026-09-01T19:54:21Z</time>
  <course>7.26</course>
  <speed>0.0</speed>
  <fix>3d</fix>
</trkpt>
<trkpt lat="-27.274439" lon="151.2900641">
  <ele>343.25</ele>
  <time>2026-09-01T19:54:21Z</time>
  <course>11.43</course>
  <speed>0.022360679774997897</speed>
  <fix>3d</fix>
</trkpt>
<trkpt lat="-27.2744388" lon="151.290064">
  <ele>343.09</ele>
  <time>2026-09-01T19:54:21Z</time>
  <course>7.26</course>
  <speed>0.0</speed>
  <fix>3d</fix>
</trkpt>
<trkpt lat="-27.274439" lon="151.2900641">
  <ele>343.25</ele>
  <time>2026-09-01T19:54:21Z</time>
  <course>11.43</course>
  <speed>0.022360679774997897</speed>
  <fix>3d</fix>
</trkpt>
<trkpt lat="-27.2744388" lon="151.290064">
  <ele>343.09</ele>
  <time>2026-09-01T19:54:21Z</time>
  <course>350.09</course>
  <speed>0.0</speed>
  <fix>3d</fix>
</trkpt>
<trkpt lat="-27.274439" lon="151.2900641">
  <ele>343.25</ele>
  <time>2026-09-01T19:54:21Z</time>
  <course>11.43</course>
  <speed>0.022360679774997897</speed>
  <fix>3d</fix>
</trkpt>
<trkpt lat="-27.2744388" lon="151.290064">
  <ele>343.09</ele>
  <time>2026-09-01T19:54:21Z</time>
  <course>350.09</course>
  <speed>0.0</speed>
  <fix>3d</fix>
</trkpt>
<trkpt lat="-27.274439" lon="151.2900641">
  <ele>343.25</ele>
  <time>2026-09-01T19:54:21Z</time>
  <course>11.43</course>
  <speed>0.022360679774997897</speed>
  <fix>3d</fix>
</trkpt>
<trkpt lat="-27.2744388" lon="151.290064">
  <ele>343.09</ele>
  <time>2026-09-01T19:54:21Z</time>
  <course>355.72</course>
  <speed>0.0</speed>
  <fix>3d</fix>
</trkpt>
<trkpt lat="-27.274439" lon="151.2900641">
  <ele>343.25</ele>
  <time>2026-09-01T19:54:21Z</time>
  <course>11.43</course>
  <speed>0.022360679774997897</speed>
  <fix>3d</fix>
</trkpt>
<trkpt lat="-27.2744388" lon="151.290064">
  <ele>343.09</ele>
  <time>2026-09-01T19:54:21Z</time>
  <course>355.72</course>
  <speed>0.0</speed>
  <fix>3d</fix>
</trkpt>
<trkpt lat="-27.274439" lon="151.2900641">
  <ele>343.25</ele>
  <time>2026-09-01T19:54:21Z</time>
  <course>11.43</course>
  <speed>0.022360679774997897</speed>
  <fix>3d</fix>
</trkpt>
<trkpt lat="-27.2744388" lon="151.290064">
  <ele>343.09</ele>
  <time>2026-09-01T19:54:21Z</time>
  <course>9.76</course>
  <speed>0.0</speed>
  <fix>3d</fix>
</trkpt>
<trkpt lat="-27.274439" lon="151.2900641">
  <ele>343.25</ele>
  <time>2026-09-01T19:54:21Z</time>
  <course>11.43</course>
  <speed>0.022360679774997897</speed>
  <fix>3d</fix>
</trkpt>
<trkpt lat="-27.2744388" lon="151.290064">
  <ele>343.09</ele>
  <time>2026-09-01T19:54:21Z</time>
  <course>9.76</course>
  <speed>0.0</speed>
  <fix>3d</fix>
</trkpt>
<trkpt lat="-27.274439" lon="151.2900641">
  <ele>343.25</ele>
  <time>2026-09-01T19:54:21Z</time>
  <course>11.44</course>
  <speed>0.022360679774997897</speed>
  <fix>3d</fix>
</trkpt>
<trkpt lat="-27.2744388" lon="151.290064">
  <ele>343.09</ele>
  <time>2026-09-01T19:54:21Z</time>
  <course>13.08</course>
  <speed>0.0</speed>
  <fix>3d</fix>
</trkpt>
<trkpt lat="-27.274439" lon="151.2900641">
  <ele>343.25</ele>
  <time>2026-09-01T19:54:21Z</time>
  <course>11.44</course>
  <speed>0.022360679774997897</speed>
  <fix>3d</fix>
</trkpt>
<trkpt lat="-27.2744388" lon="151.290064">
  <ele>343.09</ele>
  <time>2026-09-01T19:54:21Z</time>
  <course>13.08</course>
  <speed>0.0</speed>
  <fix>3d</fix>
</trkpt>
<trkpt lat="-27.274439" lon="151.2900641">
  <ele>343.09</ele>
  <time>2026-09-01T19:54:21Z</time>
  <course>11.44</course>
  <speed>0.022360679774997897</speed>
  <fix>3d</fix>
</trkpt>
<trkpt lat="-27.2744388" lon="151.290064">
  <ele>343.09</ele>
  <time>2026-09-01T19:54:21Z</time>
  <course>352.77</course>
  <speed>0.0</speed>
  <fix>3d</fix>
</trkpt>
<trkpt lat="-27.274439" lon="151.2900641">
  <ele>343.09</ele>
  <time>2026-09-01T19:54:21Z</time>
  <course>11.44</course>
  <speed>0.022360679774997897</speed>
  <fix>3d</fix>
</trkpt>
<trkpt lat="-27.2744388" lon="151.290064">
  <ele>343.09</ele>
  <time>2026-09-01T19:54:21Z</time>
  <course>352.77</course>
  <speed>0.0</speed>
  <fix>3d</fix>
</trkpt>
<trkpt lat="-27.274439" lon="151.2900641">
  <ele>343.09</ele>
  <time>2026-09-01T19:54:21Z</time>
  <course>11.44</course>
  <speed>0.022360679774997897</speed>
  <fix>3d</fix>
</trkpt>
<trkpt lat="-27.2744388" lon="151.290064">
  <ele>343.09</ele>
  <time>2026-09-01T19:54:21Z</time>
  <course>6.33</course>
  <speed>0.0</speed>
  <fix>3d</fix>
</trkpt>
<trkpt lat="-27.274439" lon="151.2900641">
  <ele>343.09</ele>
  <time>2026-09-01T19:54:21Z</time>
  <course>11.44</course>
  <speed>0.022360679774997897</speed>
  <fix>3d</fix>
</trkpt>
<trkpt lat="-27.2744388" lon="151.290064">
  <ele>343.09</ele>
  <time>2026-09-01T19:54:21Z</time>
  <course>6.33</course>
  <speed>0.0</speed>
  <fix>3d</fix>
</trkpt>
<trkpt lat="-27.274439" lon="151.2900641">
  <ele>343.09</ele>
  <time>2026-09-01T19:54:21Z</time>
  <course>11.44</course>
  <speed>0.022360679774997897</speed>
  <fix>3d</fix>
</trkpt>
<trkpt lat="-27.2744388" lon="151.290064">
  <ele>343.09</ele>
  <time>2026-09-01T19:54:21Z</time>
  <course>20.69</course>
  <speed>0.0</speed>
  <fix>3d</fix>
</trkpt>
<trkpt lat="-27.274439" lon="151.2900641">
  <ele>343.09</ele>
  <time>2026-09-01T19:54:21Z</time>
  <course>11.44</course>
  <speed>0.022360679774997897</speed>
  <fix>3d</fix>
</trkpt>
<trkpt lat="-27.2744388" lon="151.290064">
  <ele>343.09</ele>
  <time>2026-09-01T19:54:21Z</time>
  <course>20.69</course>
  <speed>0.0</speed>
  <fix>3d</fix>
</trkpt>
<trkpt lat="-27.274439" lon="151.2900641">
  <ele>343.1</ele>
  <time>2026-09-01T19:54:21Z</time>
  <course>11.44</course>
  <speed>0.022360679774997897</speed>
  <fix>3d</fix>
</trkpt>
<trkpt lat="-27.2744388" lon="151.290064">
  <ele>343.09</ele>
  <time>2026-09-01T19:54:21Z</time>
  <course>15.61</course>
  <speed>0.0</speed>
  <fix>3d</fix>
</trkpt>
<trkpt lat="-27.274439" lon="151.2900641">
  <ele>343.1</ele>
  <time>2026-09-01T19:54:21Z</time>
  <course>11.44</course>
  <speed>0.022360679774997897</speed>
  <fix>3d</fix>
</trkpt>
<trkpt lat="-27.2744388" lon="151.290064">
  <ele>343.09</ele>
  <time>2026-09-01T19:54:21Z</time>
  <course>15.61</course>
  <speed>0.0</speed>
  <fix>3d</fix>
</trkpt>
<trkpt lat="-27.274439" lon="151.2900641">
  <ele>343.1</ele>
  <time>2026-09-01T19:54:21Z</time>
  <course>11.44</course>
  <speed>0.022360679774997897</speed>
  <fix>3d</fix>
</trkpt>
<trkpt lat="-27.2744388" lon="151.290064">
  <ele>343.09</ele>
  <time>2026-09-01T19:54:21Z</time>
  <course>3.18</course>
  <speed>0.0</speed>
  <fix>3d</fix>
</trkpt>
<trkpt lat="-27.274439" lon="151.2900641">
  <ele>343.11</ele>
  <time>2026-09-01T19:54:21Z</time>
  <course>11.45</course>
  <speed>0.022360679774997897</speed>
  <fix>3d</fix>
</trkpt>
<trkpt lat="-27.2744388" lon="151.290064">
  <ele>343.09</ele>
  <time>2026-09-01T19:54:21Z</time>
  <course>3.18</course>
  <speed>0.0</speed>
  <fix>3d</fix>
</trkpt>
<trkpt lat="-27.274439" lon="151.2900641">
  <ele>343.11</ele>
  <time>2026-09-01T19:54:22Z</time>
  <course>11.45</course>
  <speed>0.022360679774997897</speed>
  <fix>3d</fix>
</trkpt>
<trkpt lat="-27.2744388" lon="151.290064">
  <ele>343.09</ele>
  <time>2026-09-01T19:54:22Z</time>
  <course>331.2</course>
  <speed>0.0</speed>
  <fix>3d</fix>
</trkpt>
<trkpt lat="-27.274439" lon="151.2900641">
  <ele>343.11</ele>
  <time>2026-09-01T19:54:22Z</time>
  <course>11.45</course>
  <speed>0.022360679774997897</speed>
  <fix>3d</fix>
</trkpt>
<trkpt lat="-27.2744388" lon="151.290064">
  <ele>343.09</ele>
  <time>2026-09-01T19:54:22Z</time>
  <course>331.2</course>
  <speed>0.0</speed>
  <fix>3d</fix>
</trkpt>
<trkpt lat="-27.274439" lon="151.2900641">
  <ele>343.12</ele>
  <time>2026-09-01T19:54:22Z</time>
  <course>11.45</course>
  <speed>0.022360679774997897</speed>
  <fix>3d</fix>
</trkpt>
<trkpt lat="-27.2744388" lon="151.290064">
  <ele>343.09</ele>
  <time>2026-09-01T19:54:22Z</time>
  <course>356.58</course>
  <speed>0.0</speed>
  <fix>3d</fix>
</trkpt>
<trkpt lat="-27.274439" lon="151.2900641">
  <ele>343.12</ele>
  <time>2026-09-01T19:54:22Z</time>
  <course>11.45</course>
  <speed>0.022360679774997897</speed>
  <fix>3d</fix>
</trkpt>
<trkpt lat="-27.2744388" lon="151.290064">
  <ele>343.09</ele>
  <time>2026-09-01T19:54:22Z</time>
  <course>356.58</course>
  <speed>0.0</speed>
  <fix>3d</fix>
</trkpt>
<trkpt lat="-27.274439" lon="151.2900641">
  <ele>343.12</ele>
  <time>2026-09-01T19:54:22Z</time>
  <course>11.45</course>
  <speed>0.022360679774997897</speed>
  <fix>3d</fix>
</trkpt>
<trkpt lat="-27.2744388" lon="151.290064">
  <ele>343.09</ele>
  <time>2026-09-01T19:54:22Z</time>
  <course>27.62</course>
  <speed>0.0</speed>
  <fix>3d</fix>
</trkpt>
<trkpt lat="-27.274439" lon="151.2900641">
  <ele>343.13</ele>
  <time>2026-09-01T19:54:22Z</time>
  <course>11.45</course>
  <speed>0.022360679774997897</speed>
  <fix>3d</fix>
</trkpt>
<trkpt lat="-27.2744388" lon="151.290064">
  <ele>343.09</ele>
  <time>2026-09-01T19:54:22Z</time>
  <course>27.62</course>
  <speed>0.0</speed>
  <fix>3d</fix>
</trkpt>
<trkpt lat="-27.274439" lon="151.2900641">
  <ele>343.13</ele>
  <time>2026-09-01T19:54:22Z</time>
  <course>11.45</course>
  <speed>0.022360679774997897</speed>
  <fix>3d</fix>
</trkpt>
<trkpt lat="-27.2744388" lon="151.290064">
  <ele>343.09</ele>
  <time>2026-09-01T19:54:22Z</time>
  <course>2.42</course>
  <speed>0.0</speed>
  <fix>3d</fix>
</trkpt>
<trkpt lat="-27.274439" lon="151.2900641">
  <ele>343.13</ele>
  <time>2026-09-01T19:54:22Z</time>
  <course>11.45</course>
  <speed>0.022360679774997897</speed>
  <fix>3d</fix>
</trkpt>
<trkpt lat="-27.2744388" lon="151.290064">
  <ele>343.09</ele>
  <time>2026-09-01T19:54:22Z</time>
  <course>2.42</course>
  <speed>0.0</speed>
  <fix>3d</fix>
</trkpt>
<trkpt lat="-27.274439" lon="151.2900641">
  <ele>343.14</ele>
  <time>2026-09-01T19:54:22Z</time>
  <course>11.45</course>
  <speed>0.022360679774997897</speed>
  <fix>3d</fix>
</trkpt>
<trkpt lat="-27.2744388" lon="151.290064">
  <ele>343.09</ele>
  <time>2026-09-01T19:54:22Z</time>
  <course>336.79</course>
  <speed>0.0</speed>
  <fix>3d</fix>
</trkpt>
<trkpt lat="-27.274439" lon="151.2900641">
  <ele>343.14</ele>
  <time>2026-09-01T19:54:22Z</time>
  <course>11.45</course>
  <speed>0.022360679774997897</speed>
  <fix>3d</fix>
</trkpt>
<trkpt lat="-27.2744388" lon="151.290064">
  <ele>343.09</ele>
  <time>2026-09-01T19:54:22Z</time>
  <course>336.79</course>
  <speed>0.0</speed>
  <fix>3d</fix>
</trkpt>
<trkpt lat="-27.274439" lon="151.2900641">
  <ele>343.14</ele>
  <time>2026-09-01T19:54:22Z</time>
  <course>11.46</course>
  <speed>0.022360679774997897</speed>
  <fix>3d</fix>
</trkpt>
<trkpt lat="-27.2744388" lon="151.290064">
  <ele>343.09</ele>
  <time>2026-09-01T19:54:22Z</time>
  <course>5.04</course>
  <speed>0.0</speed>
  <fix>3d</fix>
</trkpt>
<trkpt lat="-27.274439" lon="151.2900641">
  <ele>343.14</ele>
  <time>2026-09-01T19:54:22Z</time>
  <course>11.46</course>
  <speed>0.022360679774997897</speed>
  <fix>3d</fix>
</trkpt>
<trkpt lat="-27.2744388" lon="151.290064">
  <ele>343.09</ele>
  <time>2026-09-01T19:54:22Z</time>
  <course>5.04</course>
  <speed>0.0</speed>
  <fix>3d</fix>
</trkpt>
<trkpt lat="-27.274439" lon="151.2900641">
  <ele>343.14</ele>
  <time>2026-09-01T19:54:22Z</time>
  <course>11.46</course>
  <speed>0.022360679774997897</speed>
  <fix>3d</fix>
</trkpt>
<trkpt lat="-27.2744388" lon="151.290064">
  <ele>343.09</ele>
  <time>2026-09-01T19:54:22Z</time>
  <course>357.42</course>
  <speed>0.0</speed>
  <fix>3d</fix>
</trkpt>
<trkpt lat="-27.274439" lon="151.2900641">
  <ele>343.14</ele>
  <time>2026-09-01T19:54:22Z</time>
  <course>11.46</course>
  <speed>0.022360679774997897</speed>
  <fix>3d</fix>
</trkpt>
<trkpt lat="-27.2744388" lon="151.290064">
  <ele>343.09</ele>
  <time>2026-09-01T19:54:22Z</time>
  <course>357.42</course>
  <speed>0.0</speed>
  <fix>3d</fix>
</trkpt>
<trkpt lat="-27.274439" lon="151.2900641">
  <ele>343.15</ele>
  <time>2026-09-01T19:54:22Z</time>
  <course>11.46</course>
  <speed>0.022360679774997897</speed>
  <fix>3d</fix>
</trkpt>
<trkpt lat="-27.2744388" lon="151.290064">
  <ele>343.09</ele>
  <time>2026-09-01T19:54:22Z</time>
  <course>348.02</course>
  <speed>0.0</speed>
  <fix>3d</fix>
</trkpt>
<trkpt lat="-27.274439" lon="151.2900641">
  <ele>343.15</ele>
  <time>2026-09-01T19:54:22Z</time>
  <course>11.46</course>
  <speed>0.022360679774997897</speed>
  <fix>3d</fix>
</trkpt>
<trkpt lat="-27.2744388" lon="151.290064">
  <ele>343.09</ele>
  <time>2026-09-01T19:54:22Z</time>
  <course>348.02</course>
  <speed>0.0</speed>
  <fix>3d</fix>
</trkpt>
<trkpt lat="-27.274439" lon="151.2900641">
  <ele>343.15</ele>
  <time>2026-09-01T19:54:22Z</time>
  <course>11.46</course>
  <speed>0.022360679774997897</speed>
  <fix>3d</fix>
</trkpt>
<trkpt lat="-27.2744388" lon="151.290064">
  <ele>343.09</ele>
  <time>2026-09-01T19:54:22Z</time>
  <course>1.2</course>
  <speed>0.0</speed>
  <fix>3d</fix>
</trkpt>
<trkpt lat="-27.274439" lon="151.2900641">
  <ele>343.15</ele>
  <time>2026-09-01T19:54:22Z</time>
  <course>11.46</course>
  <speed>0.022360679774997897</speed>
  <fix>3d</fix>
</trkpt>
<trkpt lat="-27.2744388" lon="151.290064">
  <ele>343.09</ele>
  <time>2026-09-01T19:54:22Z</time>
  <course>1.2</course>
  <speed>0.0</speed>
  <fix>3d</fix>
</trkpt>
<trkpt lat="-27.274439" lon="151.2900641">
  <ele>343.15</ele>
  <time>2026-09-01T19:54:22Z</time>
  <course>11.46</course>
  <speed>0.022360679774997897</speed>
  <fix>3d</fix>
</trkpt>
<trkpt lat="-27.2744388" lon="151.290064">
  <ele>343.09</ele>
  <time>2026-09-01T19:54:22Z</time>
  <course>357.57</course>
  <speed>0.0</speed>
  <fix>3d</fix>
</trkpt>
<trkpt lat="-27.274439" lon="151.2900641">
  <ele>343.15</ele>
  <time>2026-09-01T19:54:22Z</time>
  <course>11.46</course>
  <speed>0.022360679774997897</speed>
  <fix>3d</fix>
</trkpt>
<trkpt lat="-27.2744388" lon="151.290064">
  <ele>343.09</ele>
  <time>2026-09-01T19:54:22Z</time>
  <course>357.57</course>
  <speed>0.0</speed>
  <fix>3d</fix>
</trkpt>
<trkpt lat="-27.274439" lon="151.2900641">
  <ele>343.15</ele>
  <time>2026-09-01T19:54:22Z</time>
  <course>11.46</course>
  <speed>0.022360679774997897</speed>
  <fix>3d</fix>
</trkpt>
<trkpt lat="-27.2744388" lon="151.290064">
  <ele>343.09</ele>
  <time>2026-09-01T19:54:22Z</time>
  <course>3.35</course>
  <speed>0.0</speed>
  <fix>3d</fix>
</trkpt>
<trkpt lat="-27.274439" lon="151.2900641">
  <ele>343.16</ele>
  <time>2026-09-01T19:54:22Z</time>
  <course>11.47</course>
  <speed>0.022360679774997897</speed>
  <fix>3d</fix>
</trkpt>
<trkpt lat="-27.2744388" lon="151.290064">
  <ele>343.09</ele>
  <time>2026-09-01T19:54:22Z</time>
  <course>3.35</course>
  <speed>0.0</speed>
  <fix>3d</fix>
</trkpt>
<trkpt lat="-27.274439" lon="151.2900641">
  <ele>343.16</ele>
  <time>2026-09-01T19:54:22Z</time>
  <course>11.47</course>
  <speed>0.022360679774997897</speed>
  <fix>3d</fix>
</trkpt>
<trkpt lat="-27.2744388" lon="151.290064">
  <ele>343.09</ele>
  <time>2026-09-01T19:54:22Z</time>
  <course>3.28</course>
  <speed>0.0</speed>
  <fix>3d</fix>
</trkpt>
<trkpt lat="-27.274439" lon="151.2900641">
  <ele>343.16</ele>
  <time>2026-09-01T19:54:22Z</time>
  <course>11.47</course>
  <speed>0.022360679774997897</speed>
  <fix>3d</fix>
</trkpt>
<trkpt lat="-27.2744388" lon="151.290064">
  <ele>343.09</ele>
  <time>2026-09-01T19:54:22Z</time>
  <course>3.28</course>
  <speed>0.0</speed>
  <fix>3d</fix>
</trkpt>
<trkpt lat="-27.274439" lon="151.2900641">
  <ele>343.16</ele>
  <time>2026-09-01T19:54:22Z</time>
  <course>11.47</course>
  <speed>0.022360679774997897</speed>
  <fix>3d</fix>
</trkpt>
<trkpt lat="-27.2744388" lon="151.290064">
  <ele>343.09</ele>
  <time>2026-09-01T19:54:22Z</time>
  <course>13.05</course>
  <speed>0.0</speed>
  <fix>3d</fix>
</trkpt>
<trkpt lat="-27.274439" lon="151.2900641">
  <ele>343.17</ele>
  <time>2026-09-01T19:54:22Z</time>
  <course>11.47</course>
  <speed>0.022360679774997897</speed>
  <fix>3d</fix>
</trkpt>
<trkpt lat="-27.2744388" lon="151.290064">
  <ele>343.09</ele>
  <time>2026-09-01T19:54:22Z</time>
  <course>13.05</course>
  <speed>0.0</speed>
  <fix>3d</fix>
</trkpt>
<trkpt lat="-27.274439" lon="151.2900641">
  <ele>343.17</ele>
  <time>2026-09-01T19:54:22Z</time>
  <course>11.47</course>
  <speed>0.022360679774997897</speed>
  <fix>3d</fix>
</trkpt>
<trkpt lat="-27.2744388" lon="151.290064">
  <ele>343.09</ele>
  <time>2026-09-01T19:54:22Z</time>
  <course>20.68</course>
  <speed>0.0</speed>
  <fix>3d</fix>
</trkpt>
<trkpt lat="-27.274439" lon="151.2900641">
  <ele>343.18</ele>
  <time>2026-09-01T19:54:22Z</time>
  <course>11.47</course>
  <speed>0.022360679774997897</speed>
  <fix>3d</fix>
</trkpt>
<trkpt lat="-27.2744388" lon="151.290064">
  <ele>343.09</ele>
  <time>2026-09-01T19:54:22Z</time>
  <course>20.68</course>
  <speed>0.0</speed>
  <fix>3d</fix>
</trkpt>
<trkpt lat="-27.274439" lon="151.2900641">
  <ele>343.18</ele>
  <time>2026-09-01T19:54:22Z</time>
  <course>11.47</course>
  <speed>0.022360679774997897</speed>
  <fix>3d</fix>
</trkpt>
<trkpt lat="-27.2744388" lon="151.290064">
  <ele>343.09</ele>
  <time>2026-09-01T19:54:22Z</time>
  <course>25.84</course>
  <speed>0.0</speed>
  <fix>3d</fix>
</trkpt>
<trkpt lat="-27.274439" lon="151.2900641">
  <ele>343.18</ele>
  <time>2026-09-01T19:54:22Z</time>
  <course>11.47</course>
  <speed>0.022360679774997897</speed>
  <fix>3d</fix>
</trkpt>
<trkpt lat="-27.2744388" lon="151.290064">
  <ele>343.09</ele>
  <time>2026-09-01T19:54:22Z</time>
  <course>25.84</course>
  <speed>0.0</speed>
  <fix>3d</fix>
</trkpt>
<trkpt lat="-27.274439" lon="151.2900641">
  <ele>343.18</ele>
  <time>2026-09-01T19:54:22Z</time>
  <course>11.47</course>
  <speed>0.022360679774997897</speed>
  <fix>3d</fix>
</trkpt>
<trkpt lat="-27.2744388" lon="151.290064">
  <ele>343.09</ele>
  <time>2026-09-01T19:54:22Z</time>
  <course>31.47</course>
  <speed>0.0</speed>
  <fix>3d</fix>
</trkpt>
<trkpt lat="-27.274439" lon="151.2900641">
  <ele>343.19</ele>
  <time>2026-09-01T19:54:22Z</time>
  <course>11.47</course>
  <speed>0.022360679774997897</speed>
  <fix>3d</fix>
</trkpt>
<trkpt lat="-27.2744388" lon="151.290064">
  <ele>343.09</ele>
  <time>2026-09-01T19:54:22Z</time>
  <course>31.47</course>
  <speed>0.0</speed>
  <fix>3d</fix>
</trkpt>
<trkpt lat="-27.274439" lon="151.2900641">
  <ele>343.19</ele>
  <time>2026-09-01T19:54:22Z</time>
  <course>11.48</course>
  <speed>0.022360679774997897</speed>
  <fix>3d</fix>
</trkpt>
<trkpt lat="-27.2744388" lon="151.290064">
  <ele>343.09</ele>
  <time>2026-09-01T19:54:22Z</time>
  <course>27.29</course>
  <speed>0.0</speed>
  <fix>3d</fix>
</trkpt>
<trkpt lat="-27.274439" lon="151.2900641">
  <ele>343.19</ele>
  <time>2026-09-01T19:54:22Z</time>
  <course>11.48</course>
  <speed>0.022360679774997897</speed>
  <fix>3d</fix>
</trkpt>
<trkpt lat="-27.2744388" lon="151.290064">
  <ele>343.09</ele>
  <time>2026-09-01T19:54:22Z</time>
  <course>5.94</course>
  <speed>0.0</speed>
  <fix>3d</fix>
</trkpt>
<trkpt lat="-27.274439" lon="151.2900641">
  <ele>343.19</ele>
  <time>2026-09-01T19:54:22Z</time>
  <course>11.48</course>
  <speed>0.022360679774997897</speed>
  <fix>3d</fix>
</trkpt>
<trkpt lat="-27.2744388" lon="151.290064">
  <ele>343.09</ele>
  <time>2026-09-01T19:54:22Z</time>
  <course>5.94</course>
  <speed>0.0</speed>
  <fix>3d</fix>
</trkpt>
<trkpt lat="-27.274439" lon="151.2900641">
  <ele>343.19</ele>
  <time>2026-09-01T19:54:22Z</time>
  <course>11.48</course>
  <speed>0.022360679774997897</speed>
  <fix>3d</fix>
</trkpt>
<trkpt lat="-27.2744388" lon="151.290064">
  <ele>343.09</ele>
  <time>2026-09-01T19:54:22Z</time>
  <course>2.09</course>
  <speed>0.0</speed>
  <fix>3d</fix>
</trkpt>
<trkpt lat="-27.274439" lon="151.2900641">
  <ele>343.2</ele>
  <time>2026-09-01T19:54:22Z</time>
  <course>11.48</course>
  <speed>0.022360679774997897</speed>
  <fix>3d</fix>
</trkpt>
<trkpt lat="-27.2744388" lon="151.290064">
  <ele>343.09</ele>
  <time>2026-09-01T19:54:22Z</time>
  <course>2.09</course>
  <speed>0.0</speed>
  <fix>3d</fix>
</trkpt>
<trkpt lat="-27.274439" lon="151.2900641">
  <ele>343.2</ele>
  <time>2026-09-01T19:54:22Z</time>
  <course>11.48</course>
  <speed>0.022360679774997897</speed>
  <fix>3d</fix>
</trkpt>
<trkpt lat="-27.2744388" lon="151.290064">
  <ele>343.09</ele>
  <time>2026-09-01T19:54:22Z</time>
  <course>3.65</course>
  <speed>0.0</speed>
  <fix>3d</fix>
</trkpt>
<trkpt lat="-27.274439" lon="151.2900641">
  <ele>343.2</ele>
  <time>2026-09-01T19:54:22Z</time>
  <course>11.48</course>
  <speed>0.022360679774997897</speed>
  <fix>3d</fix>
</trkpt>
<trkpt lat="-27.2744388" lon="151.290064">
  <ele>343.09</ele>
  <time>2026-09-01T19:54:22Z</time>
  <course>3.65</course>
  <speed>0.0</speed>
  <fix>3d</fix>
</trkpt>
<trkpt lat="-27.274439" lon="151.2900641">
  <ele>343.2</ele>
  <time>2026-09-01T19:54:22Z</time>
  <course>11.48</course>
  <speed>0.022360679774997897</speed>
  <fix>3d</fix>
</trkpt>
<trkpt lat="-27.2744388" lon="151.290064">
  <ele>343.09</ele>
  <time>2026-09-01T19:54:22Z</time>
  <course>3.65</course>
  <speed>0.0</speed>
  <fix>3d</fix>
</trkpt>
<trkpt lat="-27.274439" lon="151.2900641">
  <ele>343.2</ele>
  <time>2026-09-01T19:54:22Z</time>
  <course>11.48</course>
  <speed>0.022360679774997897</speed>
  <fix>3d</fix>
</trkpt>
<trkpt lat="-27.2744388" lon="151.290064">
  <ele>343.09</ele>
  <time>2026-09-01T19:54:22Z</time>
  <course>354.07</course>
  <speed>0.0</speed>
  <fix>3d</fix>
</trkpt>
<trkpt lat="-27.274439" lon="151.2900641">
  <ele>343.21</ele>
  <time>2026-09-01T19:54:22Z</time>
  <course>11.48</course>
  <speed>0.022360679774997897</speed>
  <fix>3d</fix>
</trkpt>
<trkpt lat="-27.2744388" lon="151.290064">
  <ele>343.09</ele>
  <time>2026-09-01T19:54:22Z</time>
  <course>354.07</course>
  <speed>0.0</speed>
  <fix>3d</fix>
</trkpt>
<trkpt lat="-27.274439" lon="151.2900641">
  <ele>343.21</ele>
  <time>2026-09-01T19:54:22Z</time>
  <course>11.48</course>
  <speed>0.022360679774997897</speed>
  <fix>3d</fix>
</trkpt>
<trkpt lat="-27.2744388" lon="151.290064">
  <ele>343.09</ele>
  <time>2026-09-01T19:54:22Z</time>
  <course>5.48</course>
  <speed>0.0</speed>
  <fix>3d</fix>
</trkpt>
<trkpt lat="-27.274439" lon="151.2900641">
  <ele>343.21</ele>
  <time>2026-09-01T19:54:22Z</time>
  <course>11.48</course>
  <speed>0.022360679774997897</speed>
  <fix>3d</fix>
</trkpt>
<trkpt lat="-27.2744388" lon="151.290064">
  <ele>343.09</ele>
  <time>2026-09-01T19:54:22Z</time>
  <course>5.48</course>
  <speed>0.0</speed>
  <fix>3d</fix>
</trkpt>
<trkpt lat="-27.274439" lon="151.2900641">
  <ele>343.22</ele>
  <time>2026-09-01T19:54:22Z</time>
  <course>11.48</course>
  <speed>0.022360679774997897</speed>
  <fix>3d</fix>
</trkpt>
<trkpt lat="-27.2744388" lon="151.290064">
  <ele>343.09</ele>
  <time>2026-09-01T19:54:22Z</time>
  <course>18.96</course>
  <speed>0.0</speed>
  <fix>3d</fix>
</trkpt>
<trkpt lat="-27.274439" lon="151.2900641">
  <ele>343.22</ele>
  <time>2026-09-01T19:54:22Z</time>
  <course>11.49</course>
  <speed>0.022360679774997897</speed>
  <fix>3d</fix>
</trkpt>
<trkpt lat="-27.2744388" lon="151.290064">
  <ele>343.09</ele>
  <time>2026-09-01T19:54:22Z</time>
  <course>18.96</course>
  <speed>0.0</speed>
  <fix>3d</fix>
</trkpt>
<trkpt lat="-27.274439" lon="151.2900641">
  <ele>343.22</ele>
  <time>2026-09-01T19:54:22Z</time>
  <course>11.49</course>
  <speed>0.022360679774997897</speed>
  <fix>3d</fix>
</trkpt>
<trkpt lat="-27.2744388" lon="151.290064">
  <ele>343.09</ele>
  <time>2026-09-01T19:54:22Z</time>
  <course>351.12</course>
  <speed>0.0</speed>
  <fix>3d</fix>
</trkpt>
<trkpt lat="-27.274439" lon="151.2900641">
  <ele>343.22</ele>
  <time>2026-09-01T19:54:22Z</time>
  <course>11.49</course>
  <speed>0.022360679774997897</speed>
  <fix>3d</fix>
</trkpt>
<trkpt lat="-27.2744388" lon="151.290064">
  <ele>343.09</ele>
  <time>2026-09-01T19:54:22Z</time>
  <course>351.12</course>
  <speed>0.0</speed>
  <fix>3d</fix>
</trkpt>
<trkpt lat="-27.274439" lon="151.2900641">
  <ele>343.22</ele>
  <time>2026-09-01T19:54:22Z</time>
  <course>11.49</course>
  <speed>0.022360679774997897</speed>
  <fix>3d</fix>
</trkpt>
<trkpt lat="-27.2744388" lon="151.290064">
  <ele>343.09</ele>
  <time>2026-09-01T19:54:22Z</time>
  <course>349.76</course>
  <speed>0.0</speed>
  <fix>3d</fix>
</trkpt>
<trkpt lat="-27.274439" lon="151.2900641">
  <ele>343.22</ele>
  <time>2026-09-01T19:54:22Z</time>
  <course>11.49</course>
  <speed>0.022360679774997897</speed>
  <fix>3d</fix>
</trkpt>
<trkpt lat="-27.2744388" lon="151.290064">
  <ele>343.09</ele>
  <time>2026-09-01T19:54:22Z</time>
  <course>349.76</course>
  <speed>0.0</speed>
  <fix>3d</fix>
</trkpt>
<trkpt lat="-27.274439" lon="151.2900641">
  <ele>343.09</ele>
  <time>2026-09-01T19:54:22Z</time>
  <course>11.49</course>
  <speed>0.022360679774997897</speed>
  <fix>3d</fix>
</trkpt>
<trkpt lat="-27.2744388" lon="151.290064">
  <ele>343.09</ele>
  <time>2026-09-01T19:54:22Z</time>
  <course>21.73</course>
  <speed>0.0</speed>
  <fix>3d</fix>
</trkpt>
<trkpt lat="-27.274439" lon="151.2900641">
  <ele>343.09</ele>
  <time>2026-09-01T19:54:22Z</time>
  <course>11.49</course>
  <speed>0.022360679774997897</speed>
  <fix>3d</fix>
</trkpt>
<trkpt lat="-27.2744388" lon="151.290064">
  <ele>343.09</ele>
  <time>2026-09-01T19:54:22Z</time>
  <course>21.73</course>
  <speed>0.0</speed>
  <fix>3d</fix>
</trkpt>
<trkpt lat="-27.274439" lon="151.2900641">
  <ele>343.09</ele>
  <time>2026-09-01T19:54:22Z</time>
  <course>11.49</course>
  <speed>0.022360679774997897</speed>
  <fix>3d</fix>
</trkpt>
<trkpt lat="-27.2744388" lon="151.290064">
  <ele>343.09</ele>
  <time>2026-09-01T19:54:22Z</time>
  <course>7.76</course>
  <speed>0.0</speed>
  <fix>3d</fix>
</trkpt>
<trkpt lat="-27.274439" lon="151.2900641">
  <ele>343.09</ele>
  <time>2026-09-01T19:54:22Z</time>
  <course>11.49</course>
  <speed>0.022360679774997897</speed>
  <fix>3d</fix>
</trkpt>
<trkpt lat="-27.2744388" lon="151.290064">
  <ele>343.09</ele>
  <time>2026-09-01T19:54:22Z</time>
  <course>7.76</course>
  <speed>0.0</speed>
  <fix>3d</fix>
</trkpt>
<trkpt lat="-27.274439" lon="151.2900641">
  <ele>343.1</ele>
  <time>2026-09-01T19:54:22Z</time>
  <course>11.49</course>
  <speed>0.022360679774997897</speed>
  <fix>3d</fix>
</trkpt>
<trkpt lat="-27.2744388" lon="151.290064">
  <ele>343.09</ele>
  <time>2026-09-01T19:54:22Z</time>
  <course>344.8</course>
  <speed>0.0</speed>
  <fix>3d</fix>
</trkpt>
<trkpt lat="-27.274439" lon="151.2900641">
  <ele>343.1</ele>
  <time>2026-09-01T19:54:22Z</time>
  <course>11.49</course>
  <speed>0.022360679774997897</speed>
  <fix>3d</fix>
</trkpt>
<trkpt lat="-27.2744388" lon="151.290064">
  <ele>343.09</ele>
  <time>2026-09-01T19:54:22Z</time>
  <course>6.89</course>
  <speed>0.0</speed>
  <fix>3d</fix>
</trkpt>
<trkpt lat="-27.274439" lon="151.2900641">
  <ele>343.11</ele>
  <time>2026-09-01T19:54:22Z</time>
  <course>11.49</course>
  <speed>0.022360679774997897</speed>
  <fix>3d</fix>
</trkpt>
<trkpt lat="-27.2744388" lon="151.290064">
  <ele>343.09</ele>
  <time>2026-09-01T19:54:22Z</time>
  <course>6.89</course>
  <speed>0.0</speed>
  <fix>3d</fix>
</trkpt>
<trkpt lat="-27.274439" lon="151.2900641">
  <ele>343.11</ele>
  <time>2026-09-01T19:54:22Z</time>
  <course>11.5</course>
  <speed>0.022360679774997897</speed>
  <fix>3d</fix>
</trkpt>
<trkpt lat="-27.2744388" lon="151.290064">
  <ele>343.09</ele>
  <time>2026-09-01T19:54:22Z</time>
  <course>15.08</course>
  <speed>0.0</speed>
  <fix>3d</fix>
</trkpt>
<trkpt lat="-27.274439" lon="151.2900641">
  <ele>343.12</ele>
  <time>2026-09-01T19:54:22Z</time>
  <course>11.5</course>
  <speed>0.022360679774997897</speed>
  <fix>3d</fix>
</trkpt>
<trkpt lat="-27.2744388" lon="151.290064">
  <ele>343.09</ele>
  <time>2026-09-01T19:54:22Z</time>
  <course>15.08</course>
  <speed>0.0</speed>
  <fix>3d</fix>
</trkpt>
<trkpt lat="-27.274439" lon="151.2900641">
  <ele>343.12</ele>
  <time>2026-09-01T19:54:22Z</time>
  <course>11.5</course>
  <speed>0.022360679774997897</speed>
  <fix>3d</fix>
</trkpt>
<trkpt lat="-27.2744388" lon="151.290064">
  <ele>343.09</ele>
  <time>2026-09-01T19:54:22Z</time>
  <course>15.36</course>
  <speed>0.0</speed>
  <fix>3d</fix>
</trkpt>
<trkpt lat="-27.274439" lon="151.2900641">
  <ele>343.13</ele>
  <time>2026-09-01T19:54:22Z</time>
  <course>11.5</course>
  <speed>0.022360679774997897</speed>
  <fix>3d</fix>
</trkpt>
<trkpt lat="-27.2744388" lon="151.290064">
  <ele>343.09</ele>
  <time>2026-09-01T19:54:22Z</time>
  <course>15.36</course>
  <speed>0.0</speed>
  <fix>3d</fix>
</trkpt>
<trkpt lat="-27.274439" lon="151.2900641">
  <ele>343.14</ele>
  <time>2026-09-01T19:54:22Z</time>
  <course>11.5</course>
  <speed>0.022360679774997897</speed>
  <fix>3d</fix>
</trkpt>
<trkpt lat="-27.2744388" lon="151.290064">
  <ele>343.09</ele>
  <time>2026-09-01T19:54:22Z</time>
  <course>345.31</course>
  <speed>0.0</speed>
  <fix>3d</fix>
</trkpt>
<trkpt lat="-27.274439" lon="151.2900641">
  <ele>343.14</ele>
  <time>2026-09-01T19:54:22Z</time>
  <course>11.5</course>
  <speed>0.022360679774997897</speed>
  <fix>3d</fix>
</trkpt>
<trkpt lat="-27.2744388" lon="151.290064">
  <ele>343.09</ele>
  <time>2026-09-01T19:54:22Z</time>
  <course>345.31</course>
  <speed>0.0</speed>
  <fix>3d</fix>
</trkpt>
<trkpt lat="-27.274439" lon="151.2900641">
  <ele>343.15</ele>
  <time>2026-09-01T19:54:22Z</time>
  <course>11.5</course>
  <speed>0.022360679774997897</speed>
  <fix>3d</fix>
</trkpt>
<trkpt lat="-27.2744388" lon="151.290064">
  <ele>343.09</ele>
  <time>2026-09-01T19:54:22Z</time>
  <course>334.79</course>
  <speed>0.0</speed>
  <fix>3d</fix>
</trkpt>
<trkpt lat="-27.274439" lon="151.2900641">
  <ele>343.16</ele>
  <time>2026-09-01T19:54:22Z</time>
  <course>11.5</course>
  <speed>0.022360679774997897</speed>
  <fix>3d</fix>
</trkpt>
<trkpt lat="-27.2744388" lon="151.290064">
  <ele>343.09</ele>
  <time>2026-09-01T19:54:22Z</time>
  <course>334.79</course>
  <speed>0.0</speed>
  <fix>3d</fix>
</trkpt>
<trkpt lat="-27.274439" lon="151.2900641">
  <ele>343.16</ele>
  <time>2026-09-01T19:54:22Z</time>
  <course>11.5</course>
  <speed>0.022360679774997897</speed>
  <fix>3d</fix>
</trkpt>
<trkpt lat="-27.2744388" lon="151.290064">
  <ele>343.09</ele>
  <time>2026-09-01T19:54:22Z</time>
  <course>8.64</course>
  <speed>0.0</speed>
  <fix>3d</fix>
</trkpt>
<trkpt lat="-27.274439" lon="151.2900641">
  <ele>343.17</ele>
  <time>2026-09-01T19:54:22Z</time>
  <course>11.5</course>
  <speed>0.022360679774997897</speed>
  <fix>3d</fix>
</trkpt>
<trkpt lat="-27.2744388" lon="151.290064">
  <ele>343.09</ele>
  <time>2026-09-01T19:54:22Z</time>
  <course>8.64</course>
  <speed>0.0</speed>
  <fix>3d</fix>
</trkpt>
<trkpt lat="-27.274439" lon="151.2900641">
  <ele>343.18</ele>
  <time>2026-09-01T19:54:22Z</time>
  <course>11.5</course>
  <speed>0.022360679774997897</speed>
  <fix>3d</fix>
</trkpt>
<trkpt lat="-27.2744388" lon="151.290064">
  <ele>343.09</ele>
  <time>2026-09-01T19:54:22Z</time>
  <course>8.64</course>
  <speed>0.0</speed>
  <fix>3d</fix>
</trkpt>
<trkpt lat="-27.274439" lon="151.2900641">
  <ele>343.18</ele>
  <time>2026-09-01T19:54:22Z</time>
  <course>11.5</course>
  <speed>0.022360679774997897</speed>
  <fix>3d</fix>
</trkpt>
<trkpt lat="-27.2744388" lon="151.290064">
  <ele>343.09</ele>
  <time>2026-09-01T19:54:22Z</time>
  <course>23.52</course>
  <speed>0.0</speed>
  <fix>3d</fix>
</trkpt>
<trkpt lat="-27.274439" lon="151.2900641">
  <ele>343.19</ele>
  <time>2026-09-01T19:54:22Z</time>
  <course>11.5</course>
  <speed>0.022360679774997897</speed>
  <fix>3d</fix>
</trkpt>
<trkpt lat="-27.2744388" lon="151.290064">
  <ele>343.09</ele>
  <time>2026-09-01T19:54:22Z</time>
  <course>23.52</course>
  <speed>0.0</speed>
  <fix>3d</fix>
</trkpt>
<trkpt lat="-27.274439" lon="151.2900641">
  <ele>343.2</ele>
  <time>2026-09-01T19:54:22Z</time>
  <course>11.51</course>
  <speed>0.022360679774997897</speed>
  <fix>3d</fix>
</trkpt>
<trkpt lat="-27.2744388" lon="151.290064">
  <ele>343.09</ele>
  <time>2026-09-01T19:54:22Z</time>
  <course>14.04</course>
  <speed>0.0</speed>
  <fix>3d</fix>
</trkpt>
<trkpt lat="-27.274439" lon="151.2900641">
  <ele>343.2</ele>
  <time>2026-09-01T19:54:22Z</time>
  <course>11.51</course>
  <speed>0.022360679774997897</speed>
  <fix>3d</fix>
</trkpt>
<trkpt lat="-27.2744388" lon="151.290064">
  <ele>343.09</ele>
  <time>2026-09-01T19:54:22Z</time>
  <course>14.04</course>
  <speed>0.0</speed>
  <fix>3d</fix>
</trkpt>
<trkpt lat="-27.274439" lon="151.2900641">
  <ele>343.21</ele>
  <time>2026-09-01T19:54:22Z</time>
  <course>11.51</course>
  <speed>0.022360679774997897</speed>
  <fix>3d</fix>
</trkpt>
<trkpt lat="-27.2744388" lon="151.290064">
  <ele>343.09</ele>
  <time>2026-09-01T19:54:22Z</time>
  <course>335.18</course>
  <speed>0.0</speed>
  <fix>3d</fix>
</trkpt>
<trkpt lat="-27.274439" lon="151.2900641">
  <ele>343.21</ele>
  <time>2026-09-01T19:54:22Z</time>
  <course>11.51</course>
  <speed>0.022360679774997897</speed>
  <fix>3d</fix>
</trkpt>
<trkpt lat="-27.2744388" lon="151.290064">
  <ele>343.09</ele>
  <time>2026-09-01T19:54:22Z</time>
  <course>335.18</course>
  <speed>0.0</speed>
  <fix>3d</fix>
</trkpt>
<trkpt lat="-27.274439" lon="151.2900641">
  <ele>343.22</ele>
  <time>2026-09-01T19:54:22Z</time>
  <course>11.51</course>
  <speed>0.022360679774997897</speed>
  <fix>3d</fix>
</trkpt>
<trkpt lat="-27.2744388" lon="151.290064">
  <ele>343.09</ele>
  <time>2026-09-01T19:54:22Z</time>
  <course>354.04</course>
  <speed>0.0</speed>
  <fix>3d</fix>
</trkpt>
<trkpt lat="-27.274439" lon="151.2900641">
  <ele>343.22</ele>
  <time>2026-09-01T19:54:22Z</time>
  <course>11.51</course>
  <speed>0.022360679774997897</speed>
  <fix>3d</fix>
</trkpt>
<trkpt lat="-27.2744388" lon="151.290064">
  <ele>343.09</ele>
  <time>2026-09-01T19:54:22Z</time>
  <course>16.05</course>
  <speed>0.0</speed>
  <fix>3d</fix>
</trkpt>
<trkpt lat="-27.274439" lon="151.2900641">
  <ele>343.23</ele>
  <time>2026-09-01T19:54:22Z</time>
  <course>11.51</course>
  <speed>0.022360679774997897</speed>
  <fix>3d</fix>
</trkpt>
<trkpt lat="-27.2744388" lon="151.290064">
  <ele>343.09</ele>
  <time>2026-09-01T19:54:22Z</time>
  <course>16.05</course>
  <speed>0.0</speed>
  <fix>3d</fix>
</trkpt>
<trkpt lat="-27.274439" lon="151.2900641">
  <ele>343.23</ele>
  <time>2026-09-01T19:54:22Z</time>
  <course>11.51</course>
  <speed>0.022360679774997897</speed>
  <fix>3d</fix>
</trkpt>
<trkpt lat="-27.2744388" lon="151.290064">
  <ele>343.09</ele>
  <time>2026-09-01T19:54:22Z</time>
  <course>12.41</course>
  <speed>0.0</speed>
  <fix>3d</fix>
</trkpt>
<trkpt lat="-27.274439" lon="151.2900641">
  <ele>343.24</ele>
  <time>2026-09-01T19:54:22Z</time>
  <course>11.51</course>
  <speed>0.0316227766016838</speed>
  <fix>3d</fix>
</trkpt>
<trkpt lat="-27.2744388" lon="151.290064">
  <ele>343.09</ele>
  <time>2026-09-01T19:54:22Z</time>
  <course>12.41</course>
  <speed>0.0</speed>
  <fix>3d</fix>
</trkpt>
<trkpt lat="-27.274439" lon="151.2900641">
  <ele>343.24</ele>
  <time>2026-09-01T19:54:22Z</time>
  <course>11.51</course>
  <speed>0.0412310562561766</speed>
  <fix>3d</fix>
</trkpt>
<trkpt lat="-27.2744388" lon="151.290064">
  <ele>343.09</ele>
  <time>2026-09-01T19:54:22Z</time>
  <course>188.1</course>
  <speed>0.0</speed>
  <fix>3d</fix>
</trkpt>
<trkpt lat="-27.274439" lon="151.2900641">
  <ele>343.25</ele>
  <time>2026-09-01T19:54:22Z</time>
  <course>11.51</course>
  <speed>0.0316227766016838</speed>
  <fix>3d</fix>
</trkpt>
<trkpt lat="-27.2744388" lon="151.290064">
  <ele>343.09</ele>
  <time>2026-09-01T19:54:22Z</time>
  <course>188.1</course>
  <speed>0.0</speed>
  <fix>3d</fix>
</trkpt>
<trkpt lat="-27.274439" lon="151.2900641">
  <ele>343.25</ele>
  <time>2026-09-01T19:54:22Z</time>
  <course>11.51</course>
  <speed>0.022360679774997897</speed>
  <fix>3d</fix>
</trkpt>
<trkpt lat="-27.2744388" lon="151.290064">
  <ele>343.09</ele>
  <time>2026-09-01T19:54:22Z</time>
  <course>188.11</course>
  <speed>0.01</speed>
  <fix>3d</fix>
</trkpt>
<trkpt lat="-27.274439" lon="151.2900641">
  <ele>343.25</ele>
  <time>2026-09-01T19:54:22Z</time>
  <course>11.52</course>
  <speed>0.022360679774997897</speed>
  <fix>3d</fix>
</trkpt>
<trkpt lat="-27.2744388" lon="151.290064">
  <ele>343.09</ele>
  <time>2026-09-01T19:54:22Z</time>
  <course>188.11</course>
  <speed>0.01</speed>
  <fix>3d</fix>
</trkpt>
<trkpt lat="-27.274439" lon="151.2900641">
  <ele>343.25</ele>
  <time>2026-09-01T19:54:22Z</time>
  <course>11.52</course>
  <speed>0.022360679774997897</speed>
  <fix>3d</fix>
</trkpt>
<trkpt lat="-27.2744388" lon="151.290064">
  <ele>343.09</ele>
  <time>2026-09-01T19:54:22Z</time>
  <course>185.51</course>
  <speed>0.0</speed>
  <fix>3d</fix>
</trkpt>
<trkpt lat="-27.274439" lon="151.2900641">
  <ele>343.25</ele>
  <time>2026-09-01T19:54:22Z</time>
  <course>11.52</course>
  <speed>0.022360679774997897</speed>
  <fix>3d</fix>
</trkpt>
<trkpt lat="-27.2744388" lon="151.290064">
  <ele>343.09</ele>
  <time>2026-09-01T19:54:22Z</time>
  <course>185.51</course>
  <speed>0.0</speed>
  <fix>3d</fix>
</trkpt>
<trkpt lat="-27.274439" lon="151.2900641">
  <ele>343.25</ele>
  <time>2026-09-01T19:54:22Z</time>
  <course>11.52</course>
  <speed>0.022360679774997897</speed>
  <fix>3d</fix>
</trkpt>
<trkpt lat="-27.2744388" lon="151.290064">
  <ele>343.09</ele>
  <time>2026-09-01T19:54:22Z</time>
  <course>8.04</course>
  <speed>0.0</speed>
  <fix>3d</fix>
</trkpt>
<trkpt lat="-27.274439" lon="151.2900641">
  <ele>343.25</ele>
  <time>2026-09-01T19:54:22Z</time>
  <course>11.52</course>
  <speed>0.022360679774997897</speed>
  <fix>3d</fix>
</trkpt>
<trkpt lat="-27.2744388" lon="151.290064">
  <ele>343.09</ele>
  <time>2026-09-01T19:54:22Z</time>
  <course>8.04</course>
  <speed>0.0</speed>
  <fix>3d</fix>
</trkpt>
<trkpt lat="-27.274439" lon="151.2900641">
  <ele>343.25</ele>
  <time>2026-09-01T19:54:22Z</time>
  <course>11.52</course>
  <speed>0.022360679774997897</speed>
  <fix>3d</fix>
</trkpt>
<trkpt lat="-27.2744388" lon="151.290064">
  <ele>343.09</ele>
  <time>2026-09-01T19:54:22Z</time>
  <course>188.93</course>
  <speed>0.0</speed>
  <fix>3d</fix>
</trkpt>
<trkpt lat="-27.274439" lon="151.2900641">
  <ele>343.26</ele>
  <time>2026-09-01T19:54:22Z</time>
  <course>11.52</course>
  <speed>0.022360679774997897</speed>
  <fix>3d</fix>
</trkpt>
<trkpt lat="-27.2744388" lon="151.290064">
  <ele>343.09</ele>
  <time>2026-09-01T19:54:22Z</time>
  <course>188.93</course>
  <speed>0.0</speed>
  <fix>3d</fix>
</trkpt>
<trkpt lat="-27.274439" lon="151.2900641">
  <ele>343.26</ele>
  <time>2026-09-01T19:54:22Z</time>
  <course>11.52</course>
  <speed>0.022360679774997897</speed>
  <fix>3d</fix>
</trkpt>
<trkpt lat="-27.2744388" lon="151.290064">
  <ele>343.09</ele>
  <time>2026-09-01T19:54:22Z</time>
  <course>187.97</course>
  <speed>0.0</speed>
  <fix>3d</fix>
</trkpt>
<trkpt lat="-27.274439" lon="151.2900641">
  <ele>343.26</ele>
  <time>2026-09-01T19:54:22Z</time>
  <course>11.52</course>
  <speed>0.022360679774997897</speed>
  <fix>3d</fix>
</trkpt>
<trkpt lat="-27.2744388" lon="151.290064">
  <ele>343.09</ele>
  <time>2026-09-01T19:54:22Z</time>
  <course>187.97</course>
  <speed>0.0</speed>
  <fix>3d</fix>
</trkpt>
<trkpt lat="-27.274439" lon="151.2900641">
  <ele>343.26</ele>
  <time>2026-09-01T19:54:22Z</time>
  <course>11.52</course>
  <speed>0.022360679774997897</speed>
  <fix>3d</fix>
</trkpt>
<trkpt lat="-27.2744388" lon="151.290064">
  <ele>343.09</ele>
  <time>2026-09-01T19:54:22Z</time>
  <course>8.4</course>
  <speed>0.0</speed>
  <fix>3d</fix>
</trkpt>
<trkpt lat="-27.274439" lon="151.2900641">
  <ele>343.26</ele>
  <time>2026-09-01T19:54:22Z</time>
  <course>11.52</course>
  <speed>0.022360679774997897</speed>
  <fix>3d</fix>
</trkpt>
<trkpt lat="-27.2744388" lon="151.290064">
  <ele>343.09</ele>
  <time>2026-09-01T19:54:22Z</time>
  <course>8.4</course>
  <speed>0.0</speed>
  <fix>3d</fix>
</trkpt>
<trkpt lat="-27.274439" lon="151.2900641">
  <ele>343.27</ele>
  <time>2026-09-01T19:54:22Z</time>
  <course>11.52</course>
  <speed>0.022360679774997897</speed>
  <fix>3d</fix>
</trkpt>
<trkpt lat="-27.2744388" lon="151.290064">
  <ele>343.09</ele>
  <time>2026-09-01T19:54:22Z</time>
  <course>7.86</course>
  <speed>0.0</speed>
  <fix>3d</fix>
</trkpt>
<trkpt lat="-27.274439" lon="151.2900641">
  <ele>343.27</ele>
  <time>2026-09-01T19:54:22Z</time>
  <course>11.52</course>
  <speed>0.022360679774997897</speed>
  <fix>3d</fix>
</trkpt>
<trkpt lat="-27.2744388" lon="151.290064">
  <ele>343.09</ele>
  <time>2026-09-01T19:54:22Z</time>
  <course>7.86</course>
  <speed>0.0</speed>
  <fix>3d</fix>
</trkpt>
<trkpt lat="-27.274439" lon="151.2900641">
  <ele>343.27</ele>
  <time>2026-09-01T19:54:22Z</time>
  <course>11.53</course>
  <speed>0.022360679774997897</speed>
  <fix>3d</fix>
</trkpt>
<trkpt lat="-27.2744388" lon="151.290064">
  <ele>343.09</ele>
  <time>2026-09-01T19:54:22Z</time>
  <course>188.23</course>
  <speed>0.0</speed>
  <fix>3d</fix>
</trkpt>
<trkpt lat="-27.274439" lon="151.2900641">
  <ele>343.28</ele>
  <time>2026-09-01T19:54:22Z</time>
  <course>11.53</course>
  <speed>0.022360679774997897</speed>
  <fix>3d</fix>
</trkpt>
<trkpt lat="-27.2744388" lon="151.290064">
  <ele>343.09</ele>
  <time>2026-09-01T19:54:22Z</time>
  <course>188.23</course>
  <speed>0.0</speed>
  <fix>3d</fix>
</trkpt>
<trkpt lat="-26.9720619" lon="149.6127921">
  <ele>339.29</ele>
  <time>2026-09-01T19:54:23Z</time>
  <course>0.0</course>
  <speed>0.0</speed>
  <fix>3d</fix>
</trkpt>
<trkpt lat="-26.9720619" lon="149.6127921">
  <ele>339.29</ele>
  <time>2026-09-01T19:54:23Z</time>
  <course>0.0</course>
  <speed>0.0</speed>
  <fix>3d</fix>
</trkpt>
<trkpt lat="-27.274439" lon="151.290064">
  <ele>-0.01</ele>
  <time>2026-09-01T19:54:23Z</time>
  <course>0.18</course>
  <speed>0.0</speed>
  <fix>3d</fix>
</trkpt>
<trkpt lat="-27.274439" lon="151.290064">
  <ele>343.1</ele>
  <time>2026-09-01T19:54:23Z</time>
  <course>0.0</course>
  <speed>0.0</speed>
  <fix>3d</fix>
</trkpt>
<trkpt lat="-27.274439" lon="151.290064">
  <ele>0.02</ele>
  <time>2026-09-01T19:54:23Z</time>
  <course>1.16</course>
  <speed>0.0</speed>
  <fix>3d</fix>
</trkpt>
<trkpt lat="-27.274439" lon="151.290064">
  <ele>343.1</ele>
  <time>2026-09-01T19:54:23Z</time>
  <course>0.0</course>
  <speed>0.0</speed>
  <fix>3d</fix>
</trkpt>
<trkpt lat="-27.274439" lon="151.290064">
  <ele>-0.08</ele>
  <time>2026-09-01T19:54:23Z</time>
  <course>2.06</course>
  <speed>0.0</speed>
  <fix>3d</fix>
</trkpt>
<trkpt lat="-27.274439" lon="151.290064">
  <ele>343.1</ele>
  <time>2026-09-01T19:54:23Z</time>
  <course>0.0</course>
  <speed>0.0</speed>
  <fix>3d</fix>
</trkpt>
<trkpt lat="-27.274439" lon="151.290064">
  <ele>0.22</ele>
  <time>2026-09-01T19:54:23Z</time>
  <course>2.88</course>
  <speed>0.0</speed>
  <fix>3d</fix>
</trkpt>
<trkpt lat="-27.274439" lon="151.290064">
  <ele>343.1</ele>
  <time>2026-09-01T19:54:23Z</time>
  <course>0.0</course>
  <speed>0.0</speed>
  <fix>3d</fix>
</trkpt>
<trkpt lat="-27.274439" lon="151.290064">
  <ele>0.09</ele>
  <time>2026-09-01T19:54:23Z</time>
  <course>3.62</course>
  <speed>0.0</speed>
  <fix>3d</fix>
</trkpt>
<trkpt lat="-27.274439" lon="151.290064">
  <ele>343.1</ele>
  <time>2026-09-01T19:54:23Z</time>
  <course>0.0</course>
  <speed>0.0</speed>
  <fix>3d</fix>
</trkpt>
<trkpt lat="-27.274439" lon="151.290064">
  <ele>0.08</ele>
  <time>2026-09-01T19:54:23Z</time>
  <course>4.3</course>
  <speed>0.0</speed>
  <fix>3d</fix>
</trkpt>
<trkpt lat="-27.274439" lon="151.290064">
  <ele>343.1</ele>
  <time>2026-09-01T19:54:23Z</time>
  <course>0.0</course>
  <speed>0.0</speed>
  <fix>3d</fix>
</trkpt>
<trkpt lat="-27.274439" lon="151.290064">
  <ele>0.09</ele>
  <time>2026-09-01T19:54:23Z</time>
  <course>4.91</course>
  <speed>0.0</speed>
  <fix>3d</fix>
</trkpt>
<trkpt lat="-27.274439" lon="151.290064">
  <ele>343.1</ele>
  <time>2026-09-01T19:54:23Z</time>
  <course>0.0</course>
  <speed>0.0</speed>
  <fix>3d</fix>
</trkpt>
<trkpt lat="-27.274439" lon="151.290064">
  <ele>-0.05</ele>
  <time>2026-09-01T19:54:23Z</time>
  <course>5.46</course>
  <speed>0.0</speed>
  <fix>3d</fix>
</trkpt>
<trkpt lat="-27.274439" lon="151.290064">
  <ele>343.1</ele>
  <time>2026-09-01T19:54:23Z</time>
  <course>0.0</course>
  <speed>0.0</speed>
  <fix>3d</fix>
</trkpt>
<trkpt lat="-27.274439" lon="151.290064">
  <ele>343.06</ele>
  <time>2026-09-01T19:54:23Z</time>
  <course>5.94</course>
  <speed>0.0</speed>
  <fix>3d</fix>
</trkpt>
<trkpt lat="-27.274439" lon="151.290064">
  <ele>343.1</ele>
  <time>2026-09-01T19:54:23Z</time>
  <course>0.0</course>
  <speed>0.0</speed>
  <fix>3d</fix>
</trkpt>
<trkpt lat="-27.274439" lon="151.290064">
  <ele>343.18</ele>
  <time>2026-09-01T19:54:23Z</time>
  <course>6.39</course>
  <speed>0.0</speed>
  <fix>3d</fix>
</trkpt>
<trkpt lat="-27.274439" lon="151.290064">
  <ele>343.1</ele>
  <time>2026-09-01T19:54:23Z</time>
  <course>0.0</course>
  <speed>0.0</speed>
  <fix>3d</fix>
</trkpt>
<trkpt lat="-27.274439" lon="151.290064">
  <ele>342.91</ele>
  <time>2026-09-01T19:54:23Z</time>
  <course>6.8</course>
  <speed>0.0</speed>
  <fix>3d</fix>
</trkpt>
<trkpt lat="-27.274439" lon="151.290064">
  <ele>343.1</ele>
  <time>2026-09-01T19:54:23Z</time>
  <course>0.0</course>
  <speed>0.0</speed>
  <fix>3d</fix>
</trkpt>
<trkpt lat="-27.274439" lon="151.290064">
  <ele>343.06</ele>
  <time>2026-09-01T19:54:23Z</time>
  <course>7.17</course>
  <speed>0.0</speed>
  <fix>3d</fix>
</trkpt>
<trkpt lat="-27.274439" lon="151.290064">
  <ele>343.1</ele>
  <time>2026-09-01T19:54:23Z</time>
  <course>0.0</course>
  <speed>0.0</speed>
  <fix>3d</fix>
</trkpt>
<trkpt lat="-27.274439" lon="151.290064">
  <ele>343.13</ele>
  <time>2026-09-01T19:54:23Z</time>
  <course>7.51</course>
  <speed>0.0</speed>
  <fix>3d</fix>
</trkpt>
<trkpt lat="-27.274439" lon="151.290064">
  <ele>343.1</ele>
  <time>2026-09-01T19:54:23Z</time>
  <course>0.0</course>
  <speed>0.0</speed>
  <fix>3d</fix>
</trkpt>
<trkpt lat="-27.274439" lon="151.290064">
  <ele>343.04</ele>
  <time>2026-09-01T19:54:23Z</time>
  <course>7.82</course>
  <speed>0.0</speed>
  <fix>3d</fix>
</trkpt>
<trkpt lat="-27.274439" lon="151.290064">
  <ele>343.1</ele>
  <time>2026-09-01T19:54:23Z</time>
  <course>0.0</course>
  <speed>0.0</speed>
  <fix>3d</fix>
</trkpt>
<trkpt lat="-27.274439" lon="151.290064">
  <ele>342.88</ele>
  <time>2026-09-01T19:54:23Z</time>
  <course>8.09</course>
  <speed>0.0</speed>
  <fix>3d</fix>
</trkpt>
<trkpt lat="-27.274439" lon="151.290064">
  <ele>343.1</ele>
  <time>2026-09-01T19:54:23Z</time>
  <course>0.0</course>
  <speed>0.0</speed>
  <fix>3d</fix>
</trkpt>
<trkpt lat="-27.274439" lon="151.290064">
  <ele>343.02</ele>
  <time>2026-09-01T19:54:23Z</time>
  <course>8.34</course>
  <speed>0.0</speed>
  <fix>3d</fix>
</trkpt>
<trkpt lat="-27.274439" lon="151.290064">
  <ele>343.1</ele>
  <time>2026-09-01T19:54:23Z</time>
  <course>0.0</course>
  <speed>0.0</speed>
  <fix>3d</fix>
</trkpt>
<trkpt lat="-27.274439" lon="151.290064">
  <ele>343.23</ele>
  <time>2026-09-01T19:54:23Z</time>
  <course>8.58</course>
  <speed>0.0</speed>
  <fix>3d</fix>
</trkpt>
<trkpt lat="-27.274439" lon="151.290064">
  <ele>343.1</ele>
  <time>2026-09-01T19:54:23Z</time>
  <course>0.0</course>
  <speed>0.0</speed>
  <fix>3d</fix>
</trkpt>
<trkpt lat="-27.274439" lon="151.290064">
  <ele>343.17</ele>
  <time>2026-09-01T19:54:23Z</time>
  <course>8.78</course>
  <speed>0.0</speed>
  <fix>3d</fix>
</trkpt>
<trkpt lat="-27.274439" lon="151.290064">
  <ele>343.1</ele>
  <time>2026-09-01T19:54:23Z</time>
  <course>0.0</course>
  <speed>0.0</speed>
  <fix>3d</fix>
</trkpt>
<trkpt lat="-27.274439" lon="151.290064">
  <ele>343.04</ele>
  <time>2026-09-01T19:54:23Z</time>
  <course>8.96</course>
  <speed>0.0</speed>
  <fix>3d</fix>
</trkpt>
<trkpt lat="-27.274439" lon="151.290064">
  <ele>343.1</ele>
  <time>2026-09-01T19:54:23Z</time>
  <course>0.0</course>
  <speed>0.0</speed>
  <fix>3d</fix>
</trkpt>
<trkpt lat="-27.274439" lon="151.290064">
  <ele>342.89</ele>
  <time>2026-09-01T19:54:23Z</time>
  <course>9.13</course>
  <speed>0.0</speed>
  <fix>3d</fix>
</trkpt>
<trkpt lat="-27.274439" lon="151.290064">
  <ele>343.1</ele>
  <time>2026-09-01T19:54:23Z</time>
  <course>0.0</course>
  <speed>0.0</speed>
  <fix>3d</fix>
</trkpt>
<trkpt lat="-27.274439" lon="151.290064">
  <ele>343.08</ele>
  <time>2026-09-01T19:54:23Z</time>
  <course>9.28</course>
  <speed>0.0</speed>
  <fix>3d</fix>
</trkpt>
<trkpt lat="-27.274439" lon="151.290064">
  <ele>343.1</ele>
  <time>2026-09-01T19:54:23Z</time>
  <course>0.0</course>
  <speed>0.0</speed>
  <fix>3d</fix>
</trkpt>
<trkpt lat="-27.274439" lon="151.290064">
  <ele>343.19</ele>
  <time>2026-09-01T19:54:23Z</time>
  <course>9.42</course>
  <speed>0.0</speed>
  <fix>3d</fix>
</trkpt>
<trkpt lat="-27.274439" lon="151.290064">
  <ele>343.1</ele>
  <time>2026-09-01T19:54:23Z</time>
  <course>0.0</course>
  <speed>0.0</speed>
  <fix>3d</fix>
</trkpt>
<trkpt lat="-27.274439" lon="151.290064">
  <ele>342.88</ele>
  <time>2026-09-01T19:54:23Z</time>
  <course>9.54</course>
  <speed>0.0</speed>
  <fix>3d</fix>
</trkpt>
<trkpt lat="-27.274439" lon="151.290064">
  <ele>343.1</ele>
  <time>2026-09-01T19:54:23Z</time>
  <course>0.0</course>
  <speed>0.0</speed>
  <fix>3d</fix>
</trkpt>
<trkpt lat="-27.274439" lon="151.290064">
  <ele>343.17</ele>
  <time>2026-09-01T19:54:23Z</time>
  <course>9.65</course>
  <speed>0.0</speed>
  <fix>3d</fix>
</trkpt>
<trkpt lat="-27.274439" lon="151.290064">
  <ele>343.1</ele>
  <time>2026-09-01T19:54:23Z</time>
  <course>0.0</course>
  <speed>0.0</speed>
  <fix>3d</fix>
</trkpt>
<trkpt lat="-27.274439" lon="151.290064">
  <ele>342.89</ele>
  <time>2026-09-01T19:54:23Z</time>
  <course>9.75</course>
  <speed>0.0</speed>
  <fix>3d</fix>
</trkpt>
<trkpt lat="-27.274439" lon="151.290064">
  <ele>343.1</ele>
  <time>2026-09-01T19:54:23Z</time>
  <course>0.0</course>
  <speed>0.0</speed>
  <fix>3d</fix>
</trkpt>
<trkpt lat="-27.274439" lon="151.290064">
  <ele>342.99</ele>
  <time>2026-09-01T19:54:23Z</time>
  <course>9.84</course>
  <speed>0.0</speed>
  <fix>3d</fix>
</trkpt>
<trkpt lat="-27.274439" lon="151.290064">
  <ele>343.1</ele>
  <time>2026-09-01T19:54:23Z</time>
  <course>0.0</course>
  <speed>0.0</speed>
  <fix>3d</fix>
</trkpt>
<trkpt lat="-27.274439" lon="151.290064">
  <ele>342.87</ele>
  <time>2026-09-01T19:54:23Z</time>
  <course>9.93</course>
  <speed>0.0</speed>
  <fix>3d</fix>
</trkpt>
<trkpt lat="-27.274439" lon="151.290064">
  <ele>343.1</ele>
  <time>2026-09-01T19:54:23Z</time>
  <course>0.0</course>
  <speed>0.0</speed>
  <fix>3d</fix>
</trkpt>
<trkpt lat="-27.274439" lon="151.290064">
  <ele>343.09</ele>
  <time>2026-09-01T19:54:23Z</time>
  <course>10.01</course>
  <speed>0.0</speed>
  <fix>3d</fix>
</trkpt>
<trkpt lat="-27.274439" lon="151.290064">
  <ele>343.1</ele>
  <time>2026-09-01T19:54:23Z</time>
  <course>0.0</course>
  <speed>0.0</speed>
  <fix>3d</fix>
</trkpt>
<trkpt lat="-27.274439" lon="151.290064">
  <ele>343.18</ele>
  <time>2026-09-01T19:54:23Z</time>
  <course>10.08</course>
  <speed>0.0</speed>
  <fix>3d</fix>
</trkpt>
<trkpt lat="-27.274439" lon="151.290064">
  <ele>343.1</ele>
  <time>2026-09-01T19:54:23Z</time>
  <course>0.0</course>
  <speed>0.0</speed>
  <fix>3d</fix>
</trkpt>
<trkpt lat="-27.274439" lon="151.290064">
  <ele>343.05</ele>
  <time>2026-09-01T19:54:23Z</time>
  <course>10.14</course>
  <speed>0.0</speed>
  <fix>3d</fix>
</trkpt>
<trkpt lat="-27.274439" lon="151.290064">
  <ele>343.1</ele>
  <time>2026-09-01T19:54:23Z</time>
  <course>0.0</course>
  <speed>0.0</speed>
  <fix>3d</fix>
</trkpt>
<trkpt lat="-27.274439" lon="151.290064">
  <ele>342.96</ele>
  <time>2026-09-01T19:54:23Z</time>
  <course>10.2</course>
  <speed>0.0</speed>
  <fix>3d</fix>
</trkpt>
<trkpt lat="-27.274439" lon="151.290064">
  <ele>343.1</ele>
  <time>2026-09-01T19:54:23Z</time>
  <course>0.0</course>
  <speed>0.0</speed>
  <fix>3d</fix>
</trkpt>
<trkpt lat="-27.274439" lon="151.290064">
  <ele>343.1</ele>
  <time>2026-09-01T19:54:23Z</time>
  <course>10.25</course>
  <speed>0.0</speed>
  <fix>3d</fix>
</trkpt>
<trkpt lat="-27.274439" lon="151.290064">
  <ele>343.1</ele>
  <time>2026-09-01T19:54:23Z</time>
  <course>0.0</course>
  <speed>0.0</speed>
  <fix>3d</fix>
</trkpt>
<trkpt lat="-27.274439" lon="151.290064">
  <ele>343.22</ele>
  <time>2026-09-01T19:54:23Z</time>
  <course>10.3</course>
  <speed>0.0</speed>
  <fix>3d</fix>
</trkpt>
<trkpt lat="-27.274439" lon="151.290064">
  <ele>343.1</ele>
  <time>2026-09-01T19:54:23Z</time>
  <course>0.0</course>
  <speed>0.0</speed>
  <fix>3d</fix>
</trkpt>
<trkpt lat="-27.274439" lon="151.290064">
  <ele>343.17</ele>
  <time>2026-09-01T19:54:23Z</time>
  <course>10.34</course>
  <speed>0.0</speed>
  <fix>3d</fix>
</trkpt>
<trkpt lat="-27.274439" lon="151.290064">
  <ele>343.1</ele>
  <time>2026-09-01T19:54:23Z</time>
  <course>0.0</course>
  <speed>0.0</speed>
  <fix>3d</fix>
</trkpt>
<trkpt lat="-27.274439" lon="151.290064">
  <ele>343.08</ele>
  <time>2026-09-01T19:54:23Z</time>
  <course>10.38</course>
  <speed>0.0</speed>
  <fix>3d</fix>
</trkpt>
<trkpt lat="-27.274439" lon="151.290064">
  <ele>343.1</ele>
  <time>2026-09-01T19:54:23Z</time>
  <course>0.0</course>
  <speed>0.0</speed>
  <fix>3d</fix>
</trkpt>
<trkpt lat="-27.274439" lon="151.290064">
  <ele>343.04</ele>
  <time>2026-09-01T19:54:23Z</time>
  <course>10.42</course>
  <speed>0.0</speed>
  <fix>3d</fix>
</trkpt>
<trkpt lat="-27.274439" lon="151.290064">
  <ele>343.1</ele>
  <time>2026-09-01T19:54:23Z</time>
  <course>0.0</course>
  <speed>0.0</speed>
  <fix>3d</fix>
</trkpt>
<trkpt lat="-27.274439" lon="151.290064">
  <ele>343.18</ele>
  <time>2026-09-01T19:54:24Z</time>
  <course>10.45</course>
  <speed>0.0</speed>
  <fix>3d</fix>
</trkpt>
<trkpt lat="-27.274439" lon="151.290064">
  <ele>343.1</ele>
  <time>2026-09-01T19:54:24Z</time>
  <course>0.0</course>
  <speed>0.0</speed>
  <fix>3d</fix>
</trkpt>
<trkpt lat="-27.274439" lon="151.290064">
  <ele>343.12</ele>
  <time>2026-09-01T19:54:24Z</time>
  <course>10.48</course>
  <speed>0.0</speed>
  <fix>3d</fix>
</trkpt>
<trkpt lat="-27.274439" lon="151.290064">
  <ele>343.1</ele>
  <time>2026-09-01T19:54:24Z</time>
  <course>0.0</course>
  <speed>0.0</speed>
  <fix>3d</fix>
</trkpt>
<trkpt lat="-27.274439" lon="151.290064">
  <ele>343.04</ele>
  <time>2026-09-01T19:54:24Z</time>
  <course>10.5</course>
  <speed>0.0</speed>
  <fix>3d</fix>
</trkpt>
<trkpt lat="-27.274439" lon="151.290064">
  <ele>343.1</ele>
  <time>2026-09-01T19:54:24Z</time>
  <course>0.0</course>
  <speed>0.0</speed>
  <fix>3d</fix>
</trkpt>
<trkpt lat="-27.274439" lon="151.290064">
  <ele>343.07</ele>
  <time>2026-09-01T19:54:24Z</time>
  <course>10.53</course>
  <speed>0.0</speed>
  <fix>3d</fix>
</trkpt>
<trkpt lat="-27.274439" lon="151.290064">
  <ele>343.1</ele>
  <time>2026-09-01T19:54:24Z</time>
  <course>0.0</course>
  <speed>0.0</speed>
  <fix>3d</fix>
</trkpt>
<trkpt lat="-27.274439" lon="151.290064">
  <ele>343.04</ele>
  <time>2026-09-01T19:54:24Z</time>
  <course>10.55</course>
  <speed>0.0</speed>
  <fix>3d</fix>
</trkpt>
<trkpt lat="-27.274439" lon="151.290064">
  <ele>343.1</ele>
  <time>2026-09-01T19:54:24Z</time>
  <course>0.0</course>
  <speed>0.0</speed>
  <fix>3d</fix>
</trkpt>
<trkpt lat="-27.274439" lon="151.290064">
  <ele>343.01</ele>
  <time>2026-09-01T19:54:24Z</time>
  <course>10.57</course>
  <speed>0.0</speed>
  <fix>3d</fix>
</trkpt>
<trkpt lat="-27.274439" lon="151.290064">
  <ele>343.1</ele>
  <time>2026-09-01T19:54:24Z</time>
  <course>0.0</course>
  <speed>0.0</speed>
  <fix>3d</fix>
</trkpt>
<trkpt lat="-27.274439" lon="151.290064">
  <ele>343.2</ele>
  <time>2026-09-01T19:54:24Z</time>
  <course>10.58</course>
  <speed>0.0</speed>
  <fix>3d</fix>
</trkpt>
<trkpt lat="-27.274439" lon="151.290064">
  <ele>343.1</ele>
  <time>2026-09-01T19:54:24Z</time>
  <course>0.0</course>
  <speed>0.0</speed>
  <fix>3d</fix>
</trkpt>
<trkpt lat="-27.274439" lon="151.290064">
  <ele>343.24</ele>
  <time>2026-09-01T19:54:24Z</time>
  <course>10.6</course>
  <speed>0.0</speed>
  <fix>3d</fix>
</trkpt>
<trkpt lat="-27.274439" lon="151.290064">
  <ele>343.1</ele>
  <time>2026-09-01T19:54:24Z</time>
  <course>0.0</course>
  <speed>0.0</speed>
  <fix>3d</fix>
</trkpt>
<trkpt lat="-27.274439" lon="151.290064">
  <ele>342.88</ele>
  <time>2026-09-01T19:54:24Z</time>
  <course>10.61</course>
  <speed>0.0</speed>
  <fix>3d</fix>
</trkpt>
<trkpt lat="-27.274439" lon="151.290064">
  <ele>343.1</ele>
  <time>2026-09-01T19:54:24Z</time>
  <course>0.0</course>
  <speed>0.0</speed>
  <fix>3d</fix>
</trkpt>
<trkpt lat="-27.274439" lon="151.290064">
  <ele>343.21</ele>
  <time>2026-09-01T19:54:24Z</time>
  <course>10.63</course>
  <speed>0.0</speed>
  <fix>3d</fix>
</trkpt>
<trkpt lat="-27.274439" lon="151.290064">
  <ele>343.1</ele>
  <time>2026-09-01T19:54:24Z</time>
  <course>0.0</course>
  <speed>0.0</speed>
  <fix>3d</fix>
</trkpt>
<trkpt lat="-27.274439" lon="151.290064">
  <ele>343.02</ele>
  <time>2026-09-01T19:54:24Z</time>
  <course>10.64</course>
  <speed>0.0</speed>
  <fix>3d</fix>
</trkpt>
<trkpt lat="-27.274439" lon="151.290064">
  <ele>343.1</ele>
  <time>2026-09-01T19:54:24Z</time>
  <course>0.0</course>
  <speed>0.0</speed>
  <fix>3d</fix>
</trkpt>
<trkpt lat="-27.274439" lon="151.290064">
  <ele>342.93</ele>
  <time>2026-09-01T19:54:24Z</time>
  <course>10.65</course>
  <speed>0.0</speed>
  <fix>3d</fix>
</trkpt>
<trkpt lat="-27.274439" lon="151.290064">
  <ele>343.1</ele>
  <time>2026-09-01T19:54:24Z</time>
  <course>0.0</course>
  <speed>0.0</speed>
  <fix>3d</fix>
</trkpt>
<trkpt lat="-27.274439" lon="151.290064">
  <ele>343.07</ele>
  <time>2026-09-01T19:54:24Z</time>
  <course>10.66</course>
  <speed>0.0</speed>
  <fix>3d</fix>
</trkpt>
<trkpt lat="-27.274439" lon="151.290064">
  <ele>343.1</ele>
  <time>2026-09-01T19:54:24Z</time>
  <course>0.0</course>
  <speed>0.0</speed>
  <fix>3d</fix>
</trkpt>
<trkpt lat="-27.274439" lon="151.290064">
  <ele>342.94</ele>
  <time>2026-09-01T19:54:24Z</time>
  <course>10.67</course>
  <speed>0.0</speed>
  <fix>3d</fix>
</trkpt>
<trkpt lat="-27.274439" lon="151.290064">
  <ele>343.1</ele>
  <time>2026-09-01T19:54:24Z</time>
  <course>0.0</course>
  <speed>0.0</speed>
  <fix>3d</fix>
</trkpt>
<trkpt lat="-27.274439" lon="151.290064">
  <ele>343.11</ele>
  <time>2026-09-01T19:54:24Z</time>
  <course>10.68</course>
  <speed>0.0</speed>
  <fix>3d</fix>
</trkpt>
<trkpt lat="-27.274439" lon="151.290064">
  <ele>343.1</ele>
  <time>2026-09-01T19:54:24Z</time>
  <course>0.0</course>
  <speed>0.0</speed>
  <fix>3d</fix>
</trkpt>
<trkpt lat="-27.274439" lon="151.290064">
  <ele>343.24</ele>
  <time>2026-09-01T19:54:24Z</time>
  <course>10.68</course>
  <speed>0.0</speed>
  <fix>3d</fix>
</trkpt>
<trkpt lat="-27.274439" lon="151.290064">
  <ele>343.1</ele>
  <time>2026-09-01T19:54:24Z</time>
  <course>0.0</course>
  <speed>0.0</speed>
  <fix>3d</fix>
</trkpt>
<trkpt lat="-27.274439" lon="151.290064">
  <ele>343.18</ele>
  <time>2026-09-01T19:54:24Z</time>
  <course>10.69</course>
  <speed>0.0</speed>
  <fix>3d</fix>
</trkpt>
<trkpt lat="-27.274439" lon="151.290064">
  <ele>343.1</ele>
  <time>2026-09-01T19:54:24Z</time>
  <course>0.0</course>
  <speed>0.0</speed>
  <fix>3d</fix>
</trkpt>
<trkpt lat="-27.274439" lon="151.290064">
  <ele>342.89</ele>
  <time>2026-09-01T19:54:24Z</time>
  <course>10.69</course>
  <speed>0.0</speed>
  <fix>3d</fix>
</trkpt>
<trkpt lat="-27.274439" lon="151.290064">
  <ele>343.1</ele>
  <time>2026-09-01T19:54:24Z</time>
  <course>0.0</course>
  <speed>0.0</speed>
  <fix>3d</fix>
</trkpt>
<trkpt lat="-27.274439" lon="151.290064">
  <ele>343.23</ele>
  <time>2026-09-01T19:54:24Z</time>
  <course>10.7</course>
  <speed>0.0</speed>
  <fix>3d</fix>
</trkpt>
<trkpt lat="-27.274439" lon="151.290064">
  <ele>343.1</ele>
  <time>2026-09-01T19:54:24Z</time>
  <course>0.0</course>
  <speed>0.0</speed>
  <fix>3d</fix>
</trkpt>
<trkpt lat="-27.274439" lon="151.290064">
  <ele>343.23</ele>
  <time>2026-09-01T19:54:24Z</time>
  <course>10.7</course>
  <speed>0.0</speed>
  <fix>3d</fix>
</trkpt>
<trkpt lat="-27.274439" lon="151.290064">
  <ele>343.1</ele>
  <time>2026-09-01T19:54:24Z</time>
  <course>0.0</course>
  <speed>0.0</speed>
  <fix>3d</fix>
</trkpt>
<trkpt lat="-27.274439" lon="151.290064">
  <ele>342.99</ele>
  <time>2026-09-01T19:54:24Z</time>
  <course>10.71</course>
  <speed>0.0</speed>
  <fix>3d</fix>
</trkpt>
<trkpt lat="-27.274439" lon="151.290064">
  <ele>343.1</ele>
  <time>2026-09-01T19:54:24Z</time>
  <course>0.0</course>
  <speed>0.0</speed>
  <fix>3d</fix>
</trkpt>
<trkpt lat="-27.274439" lon="151.290064">
  <ele>343.13</ele>
  <time>2026-09-01T19:54:24Z</time>
  <course>10.71</course>
  <speed>0.0</speed>
  <fix>3d</fix>
</trkpt>
<trkpt lat="-27.274439" lon="151.290064">
  <ele>343.1</ele>
  <time>2026-09-01T19:54:24Z</time>
  <course>0.0</course>
  <speed>0.0</speed>
  <fix>3d</fix>
</trkpt>
<trkpt lat="-27.274439" lon="151.290064">
  <ele>343.07</ele>
  <time>2026-09-01T19:54:24Z</time>
  <course>10.71</course>
  <speed>0.0</speed>
  <fix>3d</fix>
</trkpt>
<trkpt lat="-27.274439" lon="151.290064">
  <ele>343.1</ele>
  <time>2026-09-01T19:54:24Z</time>
  <course>0.0</course>
  <speed>0.0</speed>
  <fix>3d</fix>
</trkpt>
<trkpt lat="-27.274439" lon="151.290064">
  <ele>343.19</ele>
  <time>2026-09-01T19:54:24Z</time>
  <course>10.72</course>
  <speed>0.0</speed>
  <fix>3d</fix>
</trkpt>
<trkpt lat="-27.274439" lon="151.290064">
  <ele>343.1</ele>
  <time>2026-09-01T19:54:24Z</time>
  <course>0.0</course>
  <speed>0.0</speed>
  <fix>3d</fix>
</trkpt>
<trkpt lat="-27.274439" lon="151.290064">
  <ele>342.93</ele>
  <time>2026-09-01T19:54:24Z</time>
  <course>10.72</course>
  <speed>0.0</speed>
  <fix>3d</fix>
</trkpt>
<trkpt lat="-27.274439" lon="151.290064">
  <ele>343.1</ele>
  <time>2026-09-01T19:54:24Z</time>
  <course>0.0</course>
  <speed>0.0</speed>
  <fix>3d</fix>
</trkpt>
<trkpt lat="-27.274439" lon="151.290064">
  <ele>343.19</ele>
  <time>2026-09-01T19:54:24Z</time>
  <course>10.72</course>
  <speed>0.0</speed>
  <fix>3d</fix>
</trkpt>
<trkpt lat="-27.274439" lon="151.290064">
  <ele>343.1</ele>
  <time>2026-09-01T19:54:24Z</time>
  <course>0.0</course>
  <speed>0.0</speed>
  <fix>3d</fix>
</trkpt>
<trkpt lat="-27.274439" lon="151.290064">
  <ele>343.1</ele>
  <time>2026-09-01T19:54:24Z</time>
  <course>10.72</course>
  <speed>0.0</speed>
  <fix>3d</fix>
</trkpt>
<trkpt lat="-27.274439" lon="151.290064">
  <ele>343.1</ele>
  <time>2026-09-01T19:54:24Z</time>
  <course>0.0</course>
  <speed>0.0</speed>
  <fix>3d</fix>
</trkpt>
<trkpt lat="-27.274439" lon="151.290064">
  <ele>343.01</ele>
  <time>2026-09-01T19:54:24Z</time>
  <course>10.73</course>
  <speed>0.0</speed>
  <fix>3d</fix>
</trkpt>
<trkpt lat="-27.274439" lon="151.290064">
  <ele>343.1</ele>
  <time>2026-09-01T19:54:24Z</time>
  <course>0.0</course>
  <speed>0.0</speed>
  <fix>3d</fix>
</trkpt>
<trkpt lat="-27.274439" lon="151.290064">
  <ele>343.11</ele>
  <time>2026-09-01T19:54:24Z</time>
  <course>10.73</course>
  <speed>0.0</speed>
  <fix>3d</fix>
</trkpt>
<trkpt lat="-27.274439" lon="151.290064">
  <ele>343.1</ele>
  <time>2026-09-01T19:54:24Z</time>
  <course>0.0</course>
  <speed>0.0</speed>
  <fix>3d</fix>
</trkpt>
<trkpt lat="-27.274439" lon="151.290064">
  <ele>342.96</ele>
  <time>2026-09-01T19:54:24Z</time>
  <course>10.73</course>
  <speed>0.0</speed>
  <fix>3d</fix>
</trkpt>
<trkpt lat="-27.274439" lon="151.290064">
  <ele>343.1</ele>
  <time>2026-09-01T19:54:24Z</time>
  <course>0.0</course>
  <speed>0.0</speed>
  <fix>3d</fix>
</trkpt>
<trkpt lat="-27.274439" lon="151.290064">
  <ele>343.19</ele>
  <time>2026-09-01T19:54:24Z</time>
  <course>10.73</course>
  <speed>0.0</speed>
  <fix>3d</fix>
</trkpt>
<trkpt lat="-27.274439" lon="151.290064">
  <ele>343.1</ele>
  <time>2026-09-01T19:54:24Z</time>
  <course>0.0</course>
  <speed>0.0</speed>
  <fix>3d</fix>
</trkpt>
<trkpt lat="-27.274439" lon="151.290064">
  <ele>343.0</ele>
  <time>2026-09-01T19:54:24Z</time>
  <course>10.73</course>
  <speed>0.0</speed>
  <fix>3d</fix>
</trkpt>
<trkpt lat="-27.274439" lon="151.290064">
  <ele>343.1</ele>
  <time>2026-09-01T19:54:24Z</time>
  <course>0.0</course>
  <speed>0.0</speed>
  <fix>3d</fix>
</trkpt>
<trkpt lat="-27.274439" lon="151.290064">
  <ele>343.2</ele>
  <time>2026-09-01T19:54:24Z</time>
  <course>10.73</course>
  <speed>0.0</speed>
  <fix>3d</fix>
</trkpt>
<trkpt lat="-27.274439" lon="151.290064">
  <ele>343.1</ele>
  <time>2026-09-01T19:54:24Z</time>
  <course>0.0</course>
  <speed>0.0</speed>
  <fix>3d</fix>
</trkpt>
<trkpt lat="-27.274439" lon="151.290064">
  <ele>343.2</ele>
  <time>2026-09-01T19:54:24Z</time>
  <course>10.74</course>
  <speed>0.0</speed>
  <fix>3d</fix>
</trkpt>
<trkpt lat="-27.274439" lon="151.290064">
  <ele>343.1</ele>
  <time>2026-09-01T19:54:24Z</time>
  <course>0.0</course>
  <speed>0.0</speed>
  <fix>3d</fix>
</trkpt>
<trkpt lat="-27.274439" lon="151.290064">
  <ele>343.13</ele>
  <time>2026-09-01T19:54:24Z</time>
  <course>10.74</course>
  <speed>0.0</speed>
  <fix>3d</fix>
</trkpt>
<trkpt lat="-27.274439" lon="151.290064">
  <ele>343.1</ele>
  <time>2026-09-01T19:54:24Z</time>
  <course>0.0</course>
  <speed>0.0</speed>
  <fix>3d</fix>
</trkpt>
<trkpt lat="-27.274439" lon="151.290064">
  <ele>343.1</ele>
  <time>2026-09-01T19:54:24Z</time>
  <course>10.74</course>
  <speed>0.0</speed>
  <fix>3d</fix>
</trkpt>
<trkpt lat="-27.274439" lon="151.290064">
  <ele>343.1</ele>
  <time>2026-09-01T19:54:24Z</time>
  <course>0.0</course>
  <speed>0.0</speed>
  <fix>3d</fix>
</trkpt>
<trkpt lat="-27.274439" lon="151.290064">
  <ele>343.12</ele>
  <time>2026-09-01T19:54:24Z</time>
  <course>10.74</course>
  <speed>0.0</speed>
  <fix>3d</fix>
</trkpt>
<trkpt lat="-27.274439" lon="151.290064">
  <ele>343.1</ele>
  <time>2026-09-01T19:54:24Z</time>
  <course>0.0</course>
  <speed>0.0</speed>
  <fix>3d</fix>
</trkpt>
<trkpt lat="-27.274439" lon="151.290064">
  <ele>342.94</ele>
  <time>2026-09-01T19:54:24Z</time>
  <course>10.74</course>
  <speed>0.0</speed>
  <fix>3d</fix>
</trkpt>
<trkpt lat="-27.274439" lon="151.290064">
  <ele>343.1</ele>
  <time>2026-09-01T19:54:24Z</time>
  <course>0.0</course>
  <speed>0.0</speed>
  <fix>3d</fix>
</trkpt>
<trkpt lat="-27.274439" lon="151.290064">
  <ele>343.25</ele>
  <time>2026-09-01T19:54:24Z</time>
  <course>10.74</course>
  <speed>0.0</speed>
  <fix>3d</fix>
</trkpt>
<trkpt lat="-27.274439" lon="151.290064">
  <ele>343.1</ele>
  <time>2026-09-01T19:54:24Z</time>
  <course>0.0</course>
  <speed>0.0</speed>
  <fix>3d</fix>
</trkpt>
<trkpt lat="-27.274439" lon="151.290064">
  <ele>342.93</ele>
  <time>2026-09-01T19:54:24Z</time>
  <course>10.74</course>
  <speed>0.0</speed>
  <fix>3d</fix>
</trkpt>
<trkpt lat="-27.274439" lon="151.290064">
  <ele>343.1</ele>
  <time>2026-09-01T19:54:24Z</time>
  <course>0.0</course>
  <speed>0.0</speed>
  <fix>3d</fix>
</trkpt>
<trkpt lat="-27.274439" lon="151.290064">
  <ele>343.08</ele>
  <time>2026-09-01T19:54:24Z</time>
  <course>10.74</course>
  <speed>0.0</speed>
  <fix>3d</fix>
</trkpt>
<trkpt lat="-27.274439" lon="151.290064">
  <ele>343.1</ele>
  <time>2026-09-01T19:54:24Z</time>
  <course>0.0</course>
  <speed>0.0</speed>
  <fix>3d</fix>
</trkpt>
<trkpt lat="-27.274439" lon="151.290064">
  <ele>343.23</ele>
  <time>2026-09-01T19:54:24Z</time>
  <course>10.74</course>
  <speed>0.0</speed>
  <fix>3d</fix>
</trkpt>
<trkpt lat="-27.274439" lon="151.290064">
  <ele>343.1</ele>
  <time>2026-09-01T19:54:24Z</time>
  <course>0.0</course>
  <speed>0.0</speed>
  <fix>3d</fix>
</trkpt>
<trkpt lat="-27.274439" lon="151.290064">
  <ele>343.01</ele>
  <time>2026-09-01T19:54:24Z</time>
  <course>10.74</course>
  <speed>0.0</speed>
  <fix>3d</fix>
</trkpt>
<trkpt lat="-27.274439" lon="151.290064">
  <ele>343.1</ele>
  <time>2026-09-01T19:54:24Z</time>
  <course>0.0</course>
  <speed>0.0</speed>
  <fix>3d</fix>
</trkpt>
<trkpt lat="-27.274439" lon="151.290064">
  <ele>343.1</ele>
  <time>2026-09-01T19:54:24Z</time>
  <course>10.74</course>
  <speed>0.0</speed>
  <fix>3d</fix>
</trkpt>
<trkpt lat="-27.274439" lon="151.290064">
  <ele>343.1</ele>
  <time>2026-09-01T19:54:24Z</time>
  <course>0.0</course>
  <speed>0.0</speed>
  <fix>3d</fix>
</trkpt>
<trkpt lat="-27.274439" lon="151.290064">
  <ele>342.99</ele>
  <time>2026-09-01T19:54:24Z</time>
  <course>10.75</course>
  <speed>0.0</speed>
  <fix>3d</fix>
</trkpt>
<trkpt lat="-27.274439" lon="151.290064">
  <ele>343.1</ele>
  <time>2026-09-01T19:54:24Z</time>
  <course>0.0</course>
  <speed>0.0</speed>
  <fix>3d</fix>
</trkpt>
<trkpt lat="-27.274439" lon="151.290064">
  <ele>342.87</ele>
  <time>2026-09-01T19:54:24Z</time>
  <course>10.75</course>
  <speed>0.0</speed>
  <fix>3d</fix>
</trkpt>
<trkpt lat="-27.274439" lon="151.290064">
  <ele>343.1</ele>
  <time>2026-09-01T19:54:24Z</time>
  <course>0.0</course>
  <speed>0.0</speed>
  <fix>3d</fix>
</trkpt>
<trkpt lat="-27.274439" lon="151.290064">
  <ele>343.1</ele>
  <time>2026-09-01T19:54:24Z</time>
  <course>10.75</course>
  <speed>0.0</speed>
  <fix>3d</fix>
</trkpt>
<trkpt lat="-27.274439" lon="151.290064">
  <ele>343.1</ele>
  <time>2026-09-01T19:54:24Z</time>
  <course>0.0</course>
  <speed>0.0</speed>
  <fix>3d</fix>
</trkpt>
<trkpt lat="-27.274439" lon="151.290064">
  <ele>342.99</ele>
  <time>2026-09-01T19:54:24Z</time>
  <course>10.75</course>
  <speed>0.0</speed>
  <fix>3d</fix>
</trkpt>
<trkpt lat="-27.274439" lon="151.290064">
  <ele>343.1</ele>
  <time>2026-09-01T19:54:24Z</time>
  <course>0.0</course>
  <speed>0.0</speed>
  <fix>3d</fix>
</trkpt>
<trkpt lat="-27.274439" lon="151.290064">
  <ele>342.91</ele>
  <time>2026-09-01T19:54:24Z</time>
  <course>10.75</course>
  <speed>0.0</speed>
  <fix>3d</fix>
</trkpt>
<trkpt lat="-27.274439" lon="151.290064">
  <ele>343.1</ele>
  <time>2026-09-01T19:54:24Z</time>
  <course>0.0</course>
  <speed>0.0</speed>
  <fix>3d</fix>
</trkpt>
<trkpt lat="-27.274439" lon="151.290064">
  <ele>342.9</ele>
  <time>2026-09-01T19:54:24Z</time>
  <course>10.75</course>
  <speed>0.0</speed>
  <fix>3d</fix>
</trkpt>
<trkpt lat="-27.274439" lon="151.290064">
  <ele>343.1</ele>
  <time>2026-09-01T19:54:24Z</time>
  <course>0.0</course>
  <speed>0.0</speed>
  <fix>3d</fix>
</trkpt>
<trkpt lat="-27.274439" lon="151.290064">
  <ele>342.87</ele>
  <time>2026-09-01T19:54:24Z</time>
  <course>10.75</course>
  <speed>0.0</speed>
  <fix>3d</fix>
</trkpt>
<trkpt lat="-27.274439" lon="151.290064">
  <ele>343.1</ele>
  <time>2026-09-01T19:54:24Z</time>
  <course>0.0</course>
  <speed>0.0</speed>
  <fix>3d</fix>
</trkpt>
<trkpt lat="-27.274439" lon="151.290064">
  <ele>343.12</ele>
  <time>2026-09-01T19:54:24Z</time>
  <course>10.75</course>
  <speed>0.0</speed>
  <fix>3d</fix>
</trkpt>
<trkpt lat="-27.274439" lon="151.290064">
  <ele>343.1</ele>
  <time>2026-09-01T19:54:24Z</time>
  <course>0.0</course>
  <speed>0.0</speed>
  <fix>3d</fix>
</trkpt>
<trkpt lat="-27.274439" lon="151.290064">
  <ele>342.99</ele>
  <time>2026-09-01T19:54:24Z</time>
  <course>10.75</course>
  <speed>0.0</speed>
  <fix>3d</fix>
</trkpt>
<trkpt lat="-27.274439" lon="151.290064">
  <ele>343.1</ele>
  <time>2026-09-01T19:54:24Z</time>
  <course>0.0</course>
  <speed>0.0</speed>
  <fix>3d</fix>
</trkpt>
<trkpt lat="-27.274439" lon="151.290064">
  <ele>343.13</ele>
  <time>2026-09-01T19:54:24Z</time>
  <course>10.75</course>
  <speed>0.0</speed>
  <fix>3d</fix>
</trkpt>
<trkpt lat="-27.274439" lon="151.290064">
  <ele>343.1</ele>
  <time>2026-09-01T19:54:24Z</time>
  <course>0.0</course>
  <speed>0.0</speed>
  <fix>3d</fix>
</trkpt>
<trkpt lat="-27.274439" lon="151.290064">
  <ele>343.0</ele>
  <time>2026-09-01T19:54:24Z</time>
  <course>10.75</course>
  <speed>0.0</speed>
  <fix>3d</fix>
</trkpt>
<trkpt lat="-27.274439" lon="151.290064">
  <ele>343.1</ele>
  <time>2026-09-01T19:54:24Z</time>
  <course>0.0</course>
  <speed>0.0</speed>
  <fix>3d</fix>
</trkpt>
<trkpt lat="-27.274439" lon="151.290064">
  <ele>343.17</ele>
  <time>2026-09-01T19:54:24Z</time>
  <course>10.75</course>
  <speed>0.0</speed>
  <fix>3d</fix>
</trkpt>
<trkpt lat="-27.274439" lon="151.290064">
  <ele>343.1</ele>
  <time>2026-09-01T19:54:24Z</time>
  <course>0.0</course>
  <speed>0.0</speed>
  <fix>3d</fix>
</trkpt>
<trkpt lat="-27.274439" lon="151.290064">
  <ele>343.0</ele>
  <time>2026-09-01T19:54:24Z</time>
  <course>10.75</course>
  <speed>0.0</speed>
  <fix>3d</fix>
</trkpt>
<trkpt lat="-27.274439" lon="151.290064">
  <ele>343.1</ele>
  <time>2026-09-01T19:54:24Z</time>
  <course>0.0</course>
  <speed>0.0</speed>
  <fix>3d</fix>
</trkpt>
<trkpt lat="-27.274439" lon="151.290064">
  <ele>342.99</ele>
  <time>2026-09-01T19:54:24Z</time>
  <course>10.75</course>
  <speed>0.0</speed>
  <fix>3d</fix>
</trkpt>
<trkpt lat="-27.274439" lon="151.290064">
  <ele>343.1</ele>
  <time>2026-09-01T19:54:24Z</time>
  <course>0.0</course>
  <speed>0.0</speed>
  <fix>3d</fix>
</trkpt>
<trkpt lat="-27.274439" lon="151.290064">
  <ele>343.17</ele>
  <time>2026-09-01T19:54:24Z</time>
  <course>10.75</course>
  <speed>0.0</speed>
  <fix>3d</fix>
</trkpt>
<trkpt lat="-27.274439" lon="151.290064">
  <ele>343.1</ele>
  <time>2026-09-01T19:54:24Z</time>
  <course>0.0</course>
  <speed>0.0</speed>
  <fix>3d</fix>
</trkpt>
<trkpt lat="-27.274439" lon="151.290064">
  <ele>343.16</ele>
  <time>2026-09-01T19:54:24Z</time>
  <course>10.75</course>
  <speed>0.0</speed>
  <fix>3d</fix>
</trkpt>
<trkpt lat="-27.274439" lon="151.290064">
  <ele>343.1</ele>
  <time>2026-09-01T19:54:24Z</time>
  <course>0.0</course>
  <speed>0.0</speed>
  <fix>3d</fix>
</trkpt>
<trkpt lat="-27.274439" lon="151.290064">
  <ele>342.87</ele>
  <time>2026-09-01T19:54:24Z</time>
  <course>10.75</course>
  <speed>0.0</speed>
  <fix>3d</fix>
</trkpt>
<trkpt lat="-27.274439" lon="151.290064">
  <ele>343.1</ele>
  <time>2026-09-01T19:54:24Z</time>
  <course>0.0</course>
  <speed>0.0</speed>
  <fix>3d</fix>
</trkpt>
<trkpt lat="-27.274439" lon="151.290064">
  <ele>343.19</ele>
  <time>2026-09-01T19:54:24Z</time>
  <course>10.75</course>
  <speed>0.0</speed>
  <fix>3d</fix>
</trkpt>
<trkpt lat="-27.274439" lon="151.290064">
  <ele>343.1</ele>
  <time>2026-09-01T19:54:24Z</time>
  <course>0.0</course>
  <speed>0.0</speed>
  <fix>3d</fix>
</trkpt>
<trkpt lat="-27.274439" lon="151.290064">
  <ele>343.16</ele>
  <time>2026-09-01T19:54:24Z</time>
  <course>10.75</course>
  <speed>0.0</speed>
  <fix>3d</fix>
</trkpt>
<trkpt lat="-27.274439" lon="151.290064">
  <ele>343.1</ele>
  <time>2026-09-01T19:54:24Z</time>
  <course>0.0</course>
  <speed>0.0</speed>
  <fix>3d</fix>
</trkpt>
<trkpt lat="-27.274439" lon="151.290064">
  <ele>343.21</ele>
  <time>2026-09-01T19:54:24Z</time>
  <course>10.75</course>
  <speed>0.0</speed>
  <fix>3d</fix>
</trkpt>
<trkpt lat="-27.274439" lon="151.290064">
  <ele>343.1</ele>
  <time>2026-09-01T19:54:24Z</time>
  <course>0.0</course>
  <speed>0.0</speed>
  <fix>3d</fix>
</trkpt>
<trkpt lat="-27.274439" lon="151.290064">
  <ele>343.22</ele>
  <time>2026-09-01T19:54:24Z</time>
  <course>10.75</course>
  <speed>0.0</speed>
  <fix>3d</fix>
</trkpt>
<trkpt lat="-27.274439" lon="151.290064">
  <ele>343.1</ele>
  <time>2026-09-01T19:54:24Z</time>
  <course>0.0</course>
  <speed>0.0</speed>
  <fix>3d</fix>
</trkpt>
<trkpt lat="-27.274439" lon="151.290064">
  <ele>343.24</ele>
  <time>2026-09-01T19:54:24Z</time>
  <course>10.75</course>
  <speed>0.0</speed>
  <fix>3d</fix>
</trkpt>
<trkpt lat="-27.274439" lon="151.290064">
  <ele>343.1</ele>
  <time>2026-09-01T19:54:24Z</time>
  <course>0.0</course>
  <speed>0.0</speed>
  <fix>3d</fix>
</trkpt>
<trkpt lat="-27.274439" lon="151.290064">
  <ele>343.0</ele>
  <time>2026-09-01T19:54:24Z</time>
  <course>10.75</course>
  <speed>0.0</speed>
  <fix>3d</fix>
</trkpt>
<trkpt lat="-27.274439" lon="151.290064">
  <ele>343.1</ele>
  <time>2026-09-01T19:54:24Z</time>
  <course>0.0</course>
  <speed>0.0</speed>
  <fix>3d</fix>
</trkpt>
<trkpt lat="-27.274439" lon="151.290064">
  <ele>343.1</ele>
  <time>2026-09-01T19:54:24Z</time>
  <course>10.75</course>
  <speed>0.0</speed>
  <fix>3d</fix>
</trkpt>
<trkpt lat="-27.274439" lon="151.290064">
  <ele>343.1</ele>
  <time>2026-09-01T19:54:24Z</time>
  <course>0.0</course>
  <speed>0.0</speed>
  <fix>3d</fix>
</trkpt>
<trkpt lat="-27.274439" lon="151.290064">
  <ele>343.05</ele>
  <time>2026-09-01T19:54:24Z</time>
  <course>10.75</course>
  <speed>0.0</speed>
  <fix>3d</fix>
</trkpt>
<trkpt lat="-27.274439" lon="151.290064">
  <ele>343.1</ele>
  <time>2026-09-01T19:54:24Z</time>
  <course>0.0</course>
  <speed>0.0</speed>
  <fix>3d</fix>
</trkpt>
<trkpt lat="-27.274439" lon="151.290064">
  <ele>342.87</ele>
  <time>2026-09-01T19:54:24Z</time>
  <course>10.75</course>
  <speed>0.0</speed>
  <fix>3d</fix>
</trkpt>
<trkpt lat="-27.274439" lon="151.290064">
  <ele>343.1</ele>
  <time>2026-09-01T19:54:24Z</time>
  <course>0.0</course>
  <speed>0.0</speed>
  <fix>3d</fix>
</trkpt>
<trkpt lat="-27.274439" lon="151.290064">
  <ele>342.92</ele>
  <time>2026-09-01T19:54:24Z</time>
  <course>10.75</course>
  <speed>0.0</speed>
  <fix>3d</fix>
</trkpt>
<trkpt lat="-27.274439" lon="151.290064">
  <ele>343.1</ele>
  <time>2026-09-01T19:54:24Z</time>
  <course>0.0</course>
  <speed>0.0</speed>
  <fix>3d</fix>
</trkpt>
<trkpt lat="-27.274439" lon="151.290064">
  <ele>342.96</ele>
  <time>2026-09-01T19:54:24Z</time>
  <course>10.75</course>
  <speed>0.0</speed>
  <fix>3d</fix>
</trkpt>
<trkpt lat="-27.274439" lon="151.290064">
  <ele>343.1</ele>
  <time>2026-09-01T19:54:24Z</time>
  <course>0.0</course>
  <speed>0.0</speed>
  <fix>3d</fix>
</trkpt>
<trkpt lat="-27.274439" lon="151.290064">
  <ele>343.15</ele>
  <time>2026-09-01T19:54:24Z</time>
  <course>10.75</course>
  <speed>0.0</speed>
  <fix>3d</fix>
</trkpt>
<trkpt lat="-27.274439" lon="151.290064">
  <ele>343.1</ele>
  <time>2026-09-01T19:54:24Z</time>
  <course>0.0</course>
  <speed>0.0</speed>
  <fix>3d</fix>
</trkpt>
<trkpt lat="-27.274439" lon="151.290064">
  <ele>343.16</ele>
  <time>2026-09-01T19:54:24Z</time>
  <course>10.75</course>
  <speed>0.0</speed>
  <fix>3d</fix>
</trkpt>
<trkpt lat="-27.274439" lon="151.290064">
  <ele>343.1</ele>
  <time>2026-09-01T19:54:24Z</time>
  <course>0.0</course>
  <speed>0.0</speed>
  <fix>3d</fix>
</trkpt>
<trkpt lat="-27.274439" lon="151.290064">
  <ele>343.2</ele>
  <time>2026-09-01T19:54:24Z</time>
  <course>10.76</course>
  <speed>0.0</speed>
  <fix>3d</fix>
</trkpt>
<trkpt lat="-27.274439" lon="151.290064">
  <ele>343.1</ele>
  <time>2026-09-01T19:54:24Z</time>
  <course>0.0</course>
  <speed>0.0</speed>
  <fix>3d</fix>
</trkpt>
<trkpt lat="-27.274439" lon="151.290064">
  <ele>343.13</ele>
  <time>2026-09-01T19:54:24Z</time>
  <course>10.76</course>
  <speed>0.0</speed>
  <fix>3d</fix>
</trkpt>
<trkpt lat="-27.274439" lon="151.290064">
  <ele>343.1</ele>
  <time>2026-09-01T19:54:24Z</time>
  <course>0.0</course>
  <speed>0.0</speed>
  <fix>3d</fix>
</trkpt>
<trkpt lat="-27.274439" lon="151.290064">
  <ele>343.09</ele>
  <time>2026-09-01T19:54:24Z</time>
  <course>10.71</course>
  <speed>0.0</speed>
  <fix>3d</fix>
</trkpt>
<trkpt lat="-27.274439" lon="151.290064">
  <ele>343.1</ele>
  <time>2026-09-01T19:54:24Z</time>
  <course>0.0</course>
  <speed>0.0</speed>
  <fix>3d</fix>
</trkpt>
<trkpt lat="-27.274439" lon="151.290064">
  <ele>343.09</ele>
  <time>2026-09-01T19:54:24Z</time>
  <course>10.71</course>
  <speed>0.0</speed>
  <fix>3d</fix>
</trkpt>
<trkpt lat="-27.274439" lon="151.290064">
  <ele>343.1</ele>
  <time>2026-09-01T19:54:24Z</time>
  <course>0.0</course>
  <speed>0.0</speed>
  <fix>3d</fix>
</trkpt>
<trkpt lat="-27.274439" lon="151.290064">
  <ele>343.1</ele>
  <time>2026-09-01T19:54:24Z</time>
  <course>10.71</course>
  <speed>0.0</speed>
  <fix>3d</fix>
</trkpt>
<trkpt lat="-27.274439" lon="151.290064">
  <ele>343.1</ele>
  <time>2026-09-01T19:54:24Z</time>
  <course>0.0</course>
  <speed>0.0</speed>
  <fix>3d</fix>
</trkpt>
<trkpt lat="-27.274439" lon="151.290064">
  <ele>343.1</ele>
  <time>2026-09-01T19:54:24Z</time>
  <course>10.71</course>
  <speed>0.0</speed>
  <fix>3d</fix>
</trkpt>
<trkpt lat="-27.274439" lon="151.290064">
  <ele>343.1</ele>
  <time>2026-09-01T19:54:24Z</time>
  <course>0.0</course>
  <speed>0.0</speed>
  <fix>3d</fix>
</trkpt>
<trkpt lat="-27.274439" lon="151.290064">
  <ele>343.1</ele>
  <time>2026-09-01T19:54:24Z</time>
  <course>10.71</course>
  <speed>0.0</speed>
  <fix>3d</fix>
</trkpt>
<trkpt lat="-27.274439" lon="151.290064">
  <ele>343.1</ele>
  <time>2026-09-01T19:54:24Z</time>
  <course>0.0</course>
  <speed>0.0</speed>
  <fix>3d</fix>
</trkpt>
<trkpt lat="-27.274439" lon="151.290064">
  <ele>343.1</ele>
  <time>2026-09-01T19:54:24Z</time>
  <course>10.71</course>
  <speed>0.0</speed>
  <fix>3d</fix>
</trkpt>
<trkpt lat="-27.274439" lon="151.290064">
  <ele>343.1</ele>
  <time>2026-09-01T19:54:24Z</time>
  <course>0.0</course>
  <speed>0.0</speed>
  <fix>3d</fix>
</trkpt>
<trkpt lat="-27.274439" lon="151.290064">
  <ele>343.1</ele>
  <time>2026-09-01T19:54:24Z</time>
  <course>10.71</course>
  <speed>0.0</speed>
  <fix>3d</fix>
</trkpt>
<trkpt lat="-27.274439" lon="151.290064">
  <ele>343.1</ele>
  <time>2026-09-01T19:54:24Z</time>
  <course>0.0</course>
  <speed>0.0</speed>
  <fix>3d</fix>
</trkpt>
<trkpt lat="-27.274439" lon="151.290064">
  <ele>343.11</ele>
  <time>2026-09-01T19:54:24Z</time>
  <course>10.71</course>
  <speed>0.0</speed>
  <fix>3d</fix>
</trkpt>
<trkpt lat="-27.274439" lon="151.290064">
  <ele>343.1</ele>
  <time>2026-09-01T19:54:24Z</time>
  <course>0.0</course>
  <speed>0.0</speed>
  <fix>3d</fix>
</trkpt>
<trkpt lat="-27.274439" lon="151.290064">
  <ele>343.11</ele>
  <time>2026-09-01T19:54:24Z</time>
  <course>10.71</course>
  <speed>0.0</speed>
  <fix>3d</fix>
</trkpt>
<trkpt lat="-27.274439" lon="151.290064">
  <ele>343.1</ele>
  <time>2026-09-01T19:54:24Z</time>
  <course>0.0</course>
  <speed>0.0</speed>
  <fix>3d</fix>
</trkpt>
<trkpt lat="-27.274439" lon="151.290064">
  <ele>343.11</ele>
  <time>2026-09-01T19:54:24Z</time>
  <course>10.71</course>
  <speed>0.0</speed>
  <fix>3d</fix>
</trkpt>
<trkpt lat="-27.274439" lon="151.290064">
  <ele>343.1</ele>
  <time>2026-09-01T19:54:24Z</time>
  <course>0.0</course>
  <speed>0.0</speed>
  <fix>3d</fix>
</trkpt>
<trkpt lat="-27.274439" lon="151.290064">
  <ele>343.12</ele>
  <time>2026-09-01T19:54:24Z</time>
  <course>10.71</course>
  <speed>0.0</speed>
  <fix>3d</fix>
</trkpt>
<trkpt lat="-27.274439" lon="151.290064">
  <ele>343.1</ele>
  <time>2026-09-01T19:54:24Z</time>
  <course>0.0</course>
  <speed>0.0</speed>
  <fix>3d</fix>
</trkpt>
<trkpt lat="-27.274439" lon="151.290064">
  <ele>343.12</ele>
  <time>2026-09-01T19:54:24Z</time>
  <course>10.71</course>
  <speed>0.0</speed>
  <fix>3d</fix>
</trkpt>
<trkpt lat="-27.274439" lon="151.290064">
  <ele>343.1</ele>
  <time>2026-09-01T19:54:24Z</time>
  <course>0.0</course>
  <speed>0.0</speed>
  <fix>3d</fix>
</trkpt>
<trkpt lat="-27.274439" lon="151.290064">
  <ele>343.1</ele>
  <time>2026-09-01T19:54:24Z</time>
  <course>10.71</course>
  <speed>0.0</speed>
  <fix>3d</fix>
</trkpt>
<trkpt lat="-27.274439" lon="151.290064">
  <ele>343.1</ele>
  <time>2026-09-01T19:54:24Z</time>
  <course>0.0</course>
  <speed>0.0</speed>
  <fix>3d</fix>
</trkpt>
<trkpt lat="-27.274439" lon="151.290064">
  <ele>343.1</ele>
  <time>2026-09-01T19:54:24Z</time>
  <course>10.71</course>
  <speed>0.0</speed>
  <fix>3d</fix>
</trkpt>
<trkpt lat="-27.274439" lon="151.290064">
  <ele>343.1</ele>
  <time>2026-09-01T19:54:24Z</time>
  <course>0.0</course>
  <speed>0.0</speed>
  <fix>3d</fix>
</trkpt>
<trkpt lat="-27.274439" lon="151.290064">
  <ele>343.1</ele>
  <time>2026-09-01T19:54:24Z</time>
  <course>10.71</course>
  <speed>0.01</speed>
  <fix>3d</fix>
</trkpt>
<trkpt lat="-27.274439" lon="151.290064">
  <ele>343.1</ele>
  <time>2026-09-01T19:54:24Z</time>
  <course>0.0</course>
  <speed>0.0</speed>
  <fix>3d</fix>
</trkpt>
<trkpt lat="-27.274439" lon="151.290064">
  <ele>343.09</ele>
  <time>2026-09-01T19:54:24Z</time>
  <course>10.71</course>
  <speed>0.01</speed>
  <fix>3d</fix>
</trkpt>
<trkpt lat="-27.274439" lon="151.290064">
  <ele>343.1</ele>
  <time>2026-09-01T19:54:24Z</time>
  <course>0.0</course>
  <speed>0.0</speed>
  <fix>3d</fix>
</trkpt>
<trkpt lat="-27.274439" lon="151.290064">
  <ele>343.09</ele>
  <time>2026-09-01T19:54:24Z</time>
  <course>10.71</course>
  <speed>0.0</speed>
  <fix>3d</fix>
</trkpt>
<trkpt lat="-27.274439" lon="151.290064">
  <ele>343.1</ele>
  <time>2026-09-01T19:54:24Z</time>
  <course>8.15</course>
  <speed>0.0</speed>
  <fix>3d</fix>
</trkpt>
<trkpt lat="-27.274439" lon="151.290064">
  <ele>343.08</ele>
  <time>2026-09-01T19:54:24Z</time>
  <course>10.71</course>
  <speed>0.0</speed>
  <fix>3d</fix>
</trkpt>
<trkpt lat="-27.274439" lon="151.290064">
  <ele>343.1</ele>
  <time>2026-09-01T19:54:24Z</time>
  <course>8.15</course>
  <speed>0.0</speed>
  <fix>3d</fix>
</trkpt>
<trkpt lat="-27.274439" lon="151.290064">
  <ele>343.07</ele>
  <time>2026-09-01T19:54:24Z</time>
  <course>10.71</course>
  <speed>0.0</speed>
  <fix>3d</fix>
</trkpt>
<trkpt lat="-27.274439" lon="151.290064">
  <ele>343.1</ele>
  <time>2026-09-01T19:54:24Z</time>
  <course>7.57</course>
  <speed>0.0</speed>
  <fix>3d</fix>
</trkpt>
<trkpt lat="-27.274439" lon="151.290064">
  <ele>343.07</ele>
  <time>2026-09-01T19:54:24Z</time>
  <course>10.71</course>
  <speed>0.0</speed>
  <fix>3d</fix>
</trkpt>
<trkpt lat="-27.274439" lon="151.290064">
  <ele>343.1</ele>
  <time>2026-09-01T19:54:24Z</time>
  <course>7.57</course>
  <speed>0.0</speed>
  <fix>3d</fix>
</trkpt>
<trkpt lat="-27.274439" lon="151.290064">
  <ele>343.07</ele>
  <time>2026-09-01T19:54:24Z</time>
  <course>10.71</course>
  <speed>0.0</speed>
  <fix>3d</fix>
</trkpt>
<trkpt lat="-27.274439" lon="151.290064">
  <ele>343.1</ele>
  <time>2026-09-01T19:54:24Z</time>
  <course>188.98</course>
  <speed>0.0</speed>
  <fix>3d</fix>
</trkpt>
<trkpt lat="-27.274439" lon="151.290064">
  <ele>343.06</ele>
  <time>2026-09-01T19:54:24Z</time>
  <course>10.71</course>
  <speed>0.0</speed>
  <fix>3d</fix>
</trkpt>
<trkpt lat="-27.274439" lon="151.290064">
  <ele>343.1</ele>
  <time>2026-09-01T19:54:24Z</time>
  <course>188.98</course>
  <speed>0.0</speed>
  <fix>3d</fix>
</trkpt>
<trkpt lat="-27.274439" lon="151.290064">
  <ele>343.06</ele>
  <time>2026-09-01T19:54:24Z</time>
  <course>10.71</course>
  <speed>0.0</speed>
  <fix>3d</fix>
</trkpt>
<trkpt lat="-27.274439" lon="151.290064">
  <ele>343.1</ele>
  <time>2026-09-01T19:54:24Z</time>
  <course>178.41</course>
  <speed>0.0</speed>
  <fix>3d</fix>
</trkpt>
<trkpt lat="-27.274439" lon="151.290064">
  <ele>343.06</ele>
  <time>2026-09-01T19:54:24Z</time>
  <course>10.71</course>
  <speed>0.0</speed>
  <fix>3d</fix>
</trkpt>
<trkpt lat="-27.274439" lon="151.290064">
  <ele>343.1</ele>
  <time>2026-09-01T19:54:24Z</time>
  <course>178.41</course>
  <speed>0.0</speed>
  <fix>3d</fix>
</trkpt>
<trkpt lat="-27.274439" lon="151.290064">
  <ele>343.06</ele>
  <time>2026-09-01T19:54:24Z</time>
  <course>10.71</course>
  <speed>0.0</speed>
  <fix>3d</fix>
</trkpt>
<trkpt lat="-27.274439" lon="151.290064">
  <ele>343.1</ele>
  <time>2026-09-01T19:54:24Z</time>
  <course>6.18</course>
  <speed>0.0</speed>
  <fix>3d</fix>
</trkpt>
<trkpt lat="-27.274439" lon="151.290064">
  <ele>343.06</ele>
  <time>2026-09-01T19:54:24Z</time>
  <course>10.71</course>
  <speed>0.0</speed>
  <fix>3d</fix>
</trkpt>
<trkpt lat="-27.274439" lon="151.290064">
  <ele>343.1</ele>
  <time>2026-09-01T19:54:24Z</time>
  <course>6.18</course>
  <speed>0.0</speed>
  <fix>3d</fix>
</trkpt>
<trkpt lat="-27.274439" lon="151.290064">
  <ele>343.05</ele>
  <time>2026-09-01T19:54:24Z</time>
  <course>10.71</course>
  <speed>0.0</speed>
  <fix>3d</fix>
</trkpt>
<trkpt lat="-27.274439" lon="151.290064">
  <ele>343.1</ele>
  <time>2026-09-01T19:54:24Z</time>
  <course>2.33</course>
  <speed>0.0</speed>
  <fix>3d</fix>
</trkpt>
<trkpt lat="-27.274439" lon="151.290064">
  <ele>343.05</ele>
  <time>2026-09-01T19:54:24Z</time>
  <course>10.71</course>
  <speed>0.0</speed>
  <fix>3d</fix>
</trkpt>
<trkpt lat="-27.274439" lon="151.290064">
  <ele>343.1</ele>
  <time>2026-09-01T19:54:24Z</time>
  <course>2.33</course>
  <speed>0.0</speed>
  <fix>3d</fix>
</trkpt>
<trkpt lat="-27.274439" lon="151.290064">
  <ele>343.05</ele>
  <time>2026-09-01T19:54:24Z</time>
  <course>10.71</course>
  <speed>0.0</speed>
  <fix>3d</fix>
</trkpt>
<trkpt lat="-27.274439" lon="151.290064">
  <ele>343.1</ele>
  <time>2026-09-01T19:54:24Z</time>
  <course>3.06</course>
  <speed>0.0</speed>
  <fix>3d</fix>
</trkpt>
<trkpt lat="-27.274439" lon="151.290064">
  <ele>343.07</ele>
  <time>2026-09-01T19:54:24Z</time>
  <course>10.71</course>
  <speed>0.0</speed>
  <fix>3d</fix>
</trkpt>
<trkpt lat="-27.274439" lon="151.290064">
  <ele>343.1</ele>
  <time>2026-09-01T19:54:24Z</time>
  <course>3.06</course>
  <speed>0.0</speed>
  <fix>3d</fix>
</trkpt>
<trkpt lat="-27.274439" lon="151.290064">
  <ele>343.11</ele>
  <time>2026-09-01T19:54:24Z</time>
  <course>10.71</course>
  <speed>0.0</speed>
  <fix>3d</fix>
</trkpt>
<trkpt lat="-27.274439" lon="151.290064">
  <ele>343.1</ele>
  <time>2026-09-01T19:54:24Z</time>
  <course>11.76</course>
  <speed>0.0</speed>
  <fix>3d</fix>
</trkpt>
<trkpt lat="-27.274439" lon="151.290064">
  <ele>343.17</ele>
  <time>2026-09-01T19:54:24Z</time>
  <course>10.71</course>
  <speed>0.0</speed>
  <fix>3d</fix>
</trkpt>
<trkpt lat="-27.274439" lon="151.290064">
  <ele>343.1</ele>
  <time>2026-09-01T19:54:24Z</time>
  <course>11.76</course>
  <speed>0.0</speed>
  <fix>3d</fix>
</trkpt>
<trkpt lat="-27.274439" lon="151.290064">
  <ele>343.25</ele>
  <time>2026-09-01T19:54:24Z</time>
  <course>10.7</course>
  <speed>0.03</speed>
  <fix>3d</fix>
</trkpt>
<trkpt lat="-27.274439" lon="151.290064">
  <ele>343.15</ele>
  <time>2026-09-01T19:54:24Z</time>
  <course>8.09</course>
  <speed>0.0</speed>
  <fix>3d</fix>
</trkpt>
<trkpt lat="-27.274439" lon="151.290064">
  <ele>343.4</ele>
  <time>2026-09-01T19:54:24Z</time>
  <course>10.7</course>
  <speed>0.1019803902718557</speed>
  <fix>3d</fix>
</trkpt>
<trkpt lat="-27.274439" lon="151.290064">
  <ele>343.15</ele>
  <time>2026-09-01T19:54:24Z</time>
  <course>8.09</course>
  <speed>0.0</speed>
  <fix>3d</fix>
</trkpt>
<trkpt lat="-27.2744388" lon="151.290064">
  <ele>343.61</ele>
  <time>2026-09-01T19:54:24Z</time>
  <course>10.69</course>
  <speed>0.17262676501632068</speed>
  <fix>3d</fix>
</trkpt>
<trkpt lat="-27.2744389" lon="151.290064">
  <ele>343.32</ele>
  <time>2026-09-01T19:54:24Z</time>
  <course>8.0</course>
  <speed>0.05</speed>
  <fix>3d</fix>
</trkpt>
<trkpt lat="-27.2744386" lon="151.290064">
  <ele>343.86</ele>
  <time>2026-09-01T19:54:24Z</time>
  <course>10.69</course>
  <speed>0.24331050121192876</speed>
  <fix>3d</fix>
</trkpt>
<trkpt lat="-27.2744389" lon="151.290064">
  <ele>343.32</ele>
  <time>2026-09-01T19:54:24Z</time>
  <course>8.0</course>
  <speed>0.05</speed>
  <fix>3d</fix>
</trkpt>
<trkpt lat="-27.2744384" lon="151.2900641">
  <ele>344.11</ele>
  <time>2026-09-01T19:54:24Z</time>
  <course>10.69</course>
  <speed>0.2942787793912432</speed>
  <fix>3d</fix>
</trkpt>
<trkpt lat="-27.2744387" lon="151.290064">
  <ele>343.67</ele>
  <time>2026-09-01T19:54:24Z</time>
  <course>8.02</course>
  <speed>0.17</speed>
  <fix>3d</fix>
</trkpt>
<trkpt lat="-27.2744381" lon="151.2900641">
  <ele>344.38</ele>
  <time>2026-09-01T19:54:24Z</time>
  <course>10.69</course>
  <speed>0.34525353003264136</speed>
  <fix>3d</fix>
</trkpt>
<trkpt lat="-27.2744387" lon="151.290064">
  <ele>343.67</ele>
  <time>2026-09-01T19:54:24Z</time>
  <course>8.02</course>
  <speed>0.17</speed>
  <fix>3d</fix>
</trkpt>
<trkpt lat="-27.2744378" lon="151.2900642">
  <ele>344.66</ele>
  <time>2026-09-01T19:54:24Z</time>
  <course>10.68</course>
  <speed>0.396232255123179</speed>
  <fix>3d</fix>
</trkpt>
<trkpt lat="-27.2744383" lon="151.290064">
  <ele>344.18</ele>
  <time>2026-09-01T19:54:24Z</time>
  <course>8.04</course>
  <speed>0.29</speed>
  <fix>3d</fix>
</trkpt>
<trkpt lat="-27.2744374" lon="151.2900642">
  <ele>344.96</ele>
  <time>2026-09-01T19:54:24Z</time>
  <course>10.67</course>
  <speed>0.4356604182158393</speed>
  <fix>3d</fix>
</trkpt>
<trkpt lat="-27.2744383" lon="151.290064">
  <ele>344.18</ele>
  <time>2026-09-01T19:54:24Z</time>
  <course>8.04</course>
  <speed>0.29</speed>
  <fix>3d</fix>
</trkpt>
<trkpt lat="-27.274437" lon="151.2900643">
  <ele>345.27</ele>
  <time>2026-09-01T19:54:24Z</time>
  <course>10.7</course>
  <speed>0.47675989764240867</speed>
  <fix>3d</fix>
</trkpt>
<trkpt lat="-27.2744377" lon="151.2900641">
  <ele>344.74</ele>
  <time>2026-09-01T19:54:24Z</time>
  <course>8.07</course>
  <speed>0.39</speed>
  <fix>3d</fix>
</trkpt>
<trkpt lat="-27.2744366" lon="151.2900644">
  <ele>345.58</ele>
  <time>2026-09-01T19:54:24Z</time>
  <course>10.7</course>
  <speed>0.5080354318352215</speed>
  <fix>3d</fix>
</trkpt>
<trkpt lat="-27.2744377" lon="151.2900641">
  <ele>344.74</ele>
  <time>2026-09-01T19:54:24Z</time>
  <course>8.07</course>
  <speed>0.39</speed>
  <fix>3d</fix>
</trkpt>
<trkpt lat="-27.2744361" lon="151.2900644">
  <ele>345.9</ele>
  <time>2026-09-01T19:54:24Z</time>
  <course>10.71</course>
  <speed>0.5375872022286245</speed>
  <fix>3d</fix>
</trkpt>
<trkpt lat="-27.2744369" lon="151.2900642">
  <ele>345.35</ele>
  <time>2026-09-01T19:54:24Z</time>
  <course>8.14</course>
  <speed>0.48</speed>
  <fix>3d</fix>
</trkpt>
<trkpt lat="-27.2744356" lon="151.2900645">
  <ele>346.22</ele>
  <time>2026-09-01T19:54:24Z</time>
  <course>10.71</course>
  <speed>0.5573149917237109</speed>
  <fix>3d</fix>
</trkpt>
<trkpt lat="-27.2744369" lon="151.2900642">
  <ele>345.35</ele>
  <time>2026-09-01T19:54:24Z</time>
  <course>8.14</course>
  <speed>0.48</speed>
  <fix>3d</fix>
</trkpt>
<trkpt lat="-27.2744351" lon="151.2900646">
  <ele>346.54</ele>
  <time>2026-09-01T19:54:24Z</time>
  <course>10.71</course>
  <speed>0.5573149917237109</speed>
  <fix>3d</fix>
</trkpt>
<trkpt lat="-27.274436" lon="151.2900644">
  <ele>345.99</ele>
  <time>2026-09-01T19:54:24Z</time>
  <course>8.33</course>
  <speed>0.54</speed>
  <fix>3d</fix>
</trkpt>
<trkpt lat="-27.2744346" lon="151.2900647">
  <ele>346.86</ele>
  <time>2026-09-01T19:54:24Z</time>
  <course>10.71</course>
  <speed>0.5474486277268398</speed>
  <fix>3d</fix>
</trkpt>
<trkpt lat="-27.274436" lon="151.2900644">
  <ele>345.99</ele>
  <time>2026-09-01T19:54:24Z</time>
  <course>8.33</course>
  <speed>0.54</speed>
  <fix>3d</fix>
</trkpt>
<trkpt lat="-27.2744341" lon="151.2900648">
  <ele>347.17</ele>
  <time>2026-09-01T19:54:24Z</time>
  <course>10.72</course>
  <speed>0.5277309920783505</speed>
  <fix>3d</fix>
</trkpt>
<trkpt lat="-27.2744349" lon="151.2900646">
  <ele>346.63</ele>
  <time>2026-09-01T19:54:24Z</time>
  <course>8.61</course>
  <speed>0.57</speed>
  <fix>3d</fix>
</trkpt>
<trkpt lat="-27.2744336" lon="151.2900648">
  <ele>347.47</ele>
  <time>2026-09-01T19:54:24Z</time>
  <course>10.72</course>
  <speed>0.5063595560468865</speed>
  <fix>3d</fix>
</trkpt>
<trkpt lat="-27.2744349" lon="151.2900646">
  <ele>346.63</ele>
  <time>2026-09-01T19:54:24Z</time>
  <course>8.61</course>
  <speed>0.57</speed>
  <fix>3d</fix>
</trkpt>
<trkpt lat="-27.2744332" lon="151.2900649">
  <ele>347.77</ele>
  <time>2026-09-01T19:54:24Z</time>
  <course>10.73</course>
  <speed>0.48662100242385753</speed>
  <fix>3d</fix>
</trkpt>
<trkpt lat="-27.274434" lon="151.2900647">
  <ele>347.26</ele>
  <time>2026-09-01T19:54:24Z</time>
  <course>8.98</course>
  <speed>0.54</speed>
  <fix>3d</fix>
</trkpt>
<trkpt lat="-27.2744328" lon="151.290065">
  <ele>348.06</ele>
  <time>2026-09-01T19:54:24Z</time>
  <course>10.75</course>
  <speed>0.455411901469428</speed>
  <fix>3d</fix>
</trkpt>
<trkpt lat="-27.274434" lon="151.2900647">
  <ele>347.26</ele>
  <time>2026-09-01T19:54:24Z</time>
  <course>8.98</course>
  <speed>0.54</speed>
  <fix>3d</fix>
</trkpt>
<trkpt lat="-27.2744324" lon="151.290065">
  <ele>348.34</ele>
  <time>2026-09-01T19:54:24Z</time>
  <course>10.76</course>
  <speed>0.42579337712087534</speed>
  <fix>3d</fix>
</trkpt>
<trkpt lat="-27.274433" lon="151.2900649">
  <ele>347.86</ele>
  <time>2026-09-01T19:54:24Z</time>
  <course>9.48</course>
  <speed>0.5</speed>
  <fix>3d</fix>
</trkpt>
<trkpt lat="-27.274432" lon="151.2900651">
  <ele>348.62</ele>
  <time>2026-09-01T19:54:24Z</time>
  <course>10.78</course>
  <speed>0.3945883931389772</speed>
  <fix>3d</fix>
</trkpt>
<trkpt lat="-27.274433" lon="151.2900649">
  <ele>347.86</ele>
  <time>2026-09-01T19:54:24Z</time>
  <course>9.48</course>
  <speed>0.5</speed>
  <fix>3d</fix>
</trkpt>
<trkpt lat="-27.2744316" lon="151.2900652">
  <ele>348.89</ele>
  <time>2026-09-01T19:54:24Z</time>
  <course>10.79</course>
  <speed>0.35510561809129404</speed>
  <fix>3d</fix>
</trkpt>
<trkpt lat="-27.2744322" lon="151.2900651">
  <ele>348.43</ele>
  <time>2026-09-01T19:54:24Z</time>
  <course>10.21</course>
  <speed>0.44</speed>
  <fix>3d</fix>
</trkpt>
<trkpt lat="-27.2744313" lon="151.2900652">
  <ele>349.16</ele>
  <time>2026-09-01T19:54:24Z</time>
  <course>10.8</course>
  <speed>0.31400636936215165</speed>
  <fix>3d</fix>
</trkpt>
<trkpt lat="-27.2744322" lon="151.2900651">
  <ele>348.43</ele>
  <time>2026-09-01T19:54:24Z</time>
  <course>10.21</course>
  <speed>0.44</speed>
  <fix>3d</fix>
</trkpt>
<trkpt lat="-27.274431" lon="151.2900653">
  <ele>349.41</ele>
  <time>2026-09-01T19:54:24Z</time>
  <course>10.81</course>
  <speed>0.27294688127912364</speed>
  <fix>3d</fix>
</trkpt>
<trkpt lat="-27.2744315" lon="151.2900652">
  <ele>348.97</ele>
  <time>2026-09-01T19:54:24Z</time>
  <course>11.31</course>
  <speed>0.37</speed>
  <fix>3d</fix>
</trkpt>
<trkpt lat="-27.2744308" lon="151.2900653">
  <ele>349.67</ele>
  <time>2026-09-01T19:54:24Z</time>
  <course>10.82</course>
  <speed>0.23345235059857505</speed>
  <fix>3d</fix>
</trkpt>
<trkpt lat="-27.2744315" lon="151.2900652">
  <ele>348.97</ele>
  <time>2026-09-01T19:54:24Z</time>
  <course>11.31</course>
  <speed>0.37</speed>
  <fix>3d</fix>
</trkpt>
<trkpt lat="-27.2744306" lon="151.2900654">
  <ele>349.92</ele>
  <time>2026-09-01T19:54:24Z</time>
  <course>10.83</course>
  <speed>0.1824828759089466</speed>
  <fix>3d</fix>
</trkpt>
<trkpt lat="-27.2744309" lon="151.2900654">
  <ele>349.49</ele>
  <time>2026-09-01T19:54:24Z</time>
  <course>13.09</course>
  <speed>0.29</speed>
  <fix>3d</fix>
</trkpt>
<trkpt lat="-27.2744304" lon="151.2900654">
  <ele>350.16</ele>
  <time>2026-09-01T19:54:24Z</time>
  <course>10.85</course>
  <speed>0.14317821063276354</speed>
  <fix>3d</fix>
</trkpt>
<trkpt lat="-27.2744309" lon="151.2900654">
  <ele>349.49</ele>
  <time>2026-09-01T19:54:24Z</time>
  <course>13.09</course>
  <speed>0.29</speed>
  <fix>3d</fix>
</trkpt>
<trkpt lat="-27.2744303" lon="151.2900655">
  <ele>350.41</ele>
  <time>2026-09-01T19:54:24Z</time>
  <course>10.87</course>
  <speed>0.1019803902718557</speed>
  <fix>3d</fix>
</trkpt>
<trkpt lat="-27.2744305" lon="151.2900655">
  <ele>349.99</ele>
  <time>2026-09-01T19:54:24Z</time>
  <course>16.36</course>
  <speed>0.2</speed>
  <fix>3d</fix>
</trkpt>
<trkpt lat="-27.2744302" lon="151.2900655">
  <ele>350.65</ele>
  <time>2026-09-01T19:54:24Z</time>
  <course>10.89</course>
  <speed>0.05099019513592785</speed>
  <fix>3d</fix>
</trkpt>
<trkpt lat="-27.2744305" lon="151.2900655">
  <ele>349.99</ele>
  <time>2026-09-01T19:54:24Z</time>
  <course>16.36</course>
  <speed>0.2</speed>
  <fix>3d</fix>
</trkpt>
<trkpt lat="-27.2744302" lon="151.2900655">
  <ele>350.89</ele>
  <time>2026-09-01T19:54:24Z</time>
  <course>10.91</course>
  <speed>0.01414213562373095</speed>
  <fix>3d</fix>
</trkpt>
<trkpt lat="-27.2744302" lon="151.2900656">
  <ele>350.47</ele>
  <time>2026-09-01T19:54:24Z</time>
  <course>24.05</course>
  <speed>0.11</speed>
  <fix>3d</fix>
</trkpt>
<trkpt lat="-27.2744302" lon="151.2900656">
  <ele>351.13</ele>
  <time>2026-09-01T19:54:24Z</time>
  <course>10.95</course>
  <speed>0.02</speed>
  <fix>3d</fix>
</trkpt>
<trkpt lat="-27.2744302" lon="151.2900656">
  <ele>350.47</ele>
  <time>2026-09-01T19:54:24Z</time>
  <course>24.05</course>
  <speed>0.11</speed>
  <fix>3d</fix>
</trkpt>
<trkpt lat="-27.2744302" lon="151.2900656">
  <ele>351.38</ele>
  <time>2026-09-01T19:54:24Z</time>
  <course>10.99</course>
  <speed>0.05</speed>
  <fix>3d</fix>
</trkpt>
<trkpt lat="-27.2744301" lon="151.2900657">
  <ele>350.95</ele>
  <time>2026-09-01T19:54:24Z</time>
  <course>62.32</course>
  <speed>0.03</speed>
  <fix>3d</fix>
</trkpt>
<trkpt lat="-27.2744303" lon="151.2900656">
  <ele>351.62</ele>
  <time>2026-09-01T19:54:24Z</time>
  <course>11.04</course>
  <speed>0.09</speed>
  <fix>3d</fix>
</trkpt>
<trkpt lat="-27.2744301" lon="151.2900657">
  <ele>350.95</ele>
  <time>2026-09-01T19:54:24Z</time>
  <course>62.32</course>
  <speed>0.03</speed>
  <fix>3d</fix>
</trkpt>
<trkpt lat="-27.2744304" lon="151.2900656">
  <ele>351.86</ele>
  <time>2026-09-01T19:54:24Z</time>
  <course>11.1</course>
  <speed>0.12041594578792296</speed>
  <fix>3d</fix>
</trkpt>
<trkpt lat="-27.2744301" lon="151.2900657">
  <ele>351.43</ele>
  <time>2026-09-01T19:54:24Z</time>
  <course>161.27</course>
  <speed>0.06</speed>
  <fix>3d</fix>
</trkpt>
<trkpt lat="-27.2744304" lon="151.2900656">
  <ele>352.1</ele>
  <time>2026-09-01T19:54:24Z</time>
  <course>11.18</course>
  <speed>0.15132745950421556</speed>
  <fix>3d</fix>
</trkpt>
<trkpt lat="-27.2744301" lon="151.2900657">
  <ele>351.43</ele>
  <time>2026-09-01T19:54:24Z</time>
  <course>161.27</course>
  <speed>0.06</speed>
  <fix>3d</fix>
</trkpt>
<trkpt lat="-27.2744305" lon="151.2900656">
  <ele>352.35</ele>
  <time>2026-09-01T19:54:24Z</time>
  <course>11.27</course>
  <speed>0.17262676501632068</speed>
  <fix>3d</fix>
</trkpt>
<trkpt lat="-27.2744303" lon="151.2900657">
  <ele>351.9</ele>
  <time>2026-09-01T19:54:24Z</time>
  <course>177.92</course>
  <speed>0.12</speed>
  <fix>3d</fix>
</trkpt>
<trkpt lat="-27.2744307" lon="151.2900656">
  <ele>352.59</ele>
  <time>2026-09-01T19:54:24Z</time>
  <course>11.37</course>
  <speed>0.194164878389476</speed>
  <fix>3d</fix>
</trkpt>
<trkpt lat="-27.2744303" lon="151.2900657">
  <ele>351.9</ele>
  <time>2026-09-01T19:54:24Z</time>
  <course>177.92</course>
  <speed>0.12</speed>
  <fix>3d</fix>
</trkpt>
<trkpt lat="-27.2744309" lon="151.2900655">
  <ele>352.83</ele>
  <time>2026-09-01T19:54:24Z</time>
  <course>11.42</course>
  <speed>0.215870331449229</speed>
  <fix>3d</fix>
</trkpt>
<trkpt lat="-27.2744305" lon="151.2900657">
  <ele>352.38</ele>
  <time>2026-09-01T19:54:24Z</time>
  <course>184.3</course>
  <speed>0.18</speed>
  <fix>3d</fix>
</trkpt>
<trkpt lat="-27.2744311" lon="151.2900656">
  <ele>353.08</ele>
  <time>2026-09-01T19:54:24Z</time>
  <course>11.37</course>
  <speed>0.2353720459187964</speed>
  <fix>3d</fix>
</trkpt>
<trkpt lat="-27.2744305" lon="151.2900657">
  <ele>352.38</ele>
  <time>2026-09-01T19:54:24Z</time>
  <course>184.3</course>
  <speed>0.18</speed>
  <fix>3d</fix>
</trkpt>
<trkpt lat="-27.2744313" lon="151.2900656">
  <ele>353.32</ele>
  <time>2026-09-01T19:54:24Z</time>
  <course>11.27</course>
  <speed>0.24515301344262524</speed>
  <fix>3d</fix>
</trkpt>
<trkpt lat="-27.2744309" lon="151.2900657">
  <ele>352.87</ele>
  <time>2026-09-01T19:54:24Z</time>
  <course>186.42</course>
  <speed>0.22</speed>
  <fix>3d</fix>
</trkpt>
<trkpt lat="-27.2744315" lon="151.2900655">
  <ele>353.57</ele>
  <time>2026-09-01T19:54:24Z</time>
  <course>11.15</course>
  <speed>0.2570992026436488</speed>
  <fix>3d</fix>
</trkpt>
<trkpt lat="-27.2744309" lon="151.2900657">
  <ele>352.87</ele>
  <time>2026-09-01T19:54:24Z</time>
  <course>186.42</course>
  <speed>0.22</speed>
  <fix>3d</fix>
</trkpt>
<trkpt lat="-27.2744317" lon="151.2900655">
  <ele>353.82</ele>
  <time>2026-09-01T19:54:24Z</time>
  <course>11.05</course>
  <speed>0.2668332812825267</speed>
  <fix>3d</fix>
</trkpt>
<trkpt lat="-27.2744313" lon="151.2900657">
  <ele>353.35</ele>
  <time>2026-09-01T19:54:24Z</time>
  <course>186.53</course>
  <speed>0.25</speed>
  <fix>3d</fix>
</trkpt>
<trkpt lat="-27.274432" lon="151.2900655">
  <ele>354.07</ele>
  <time>2026-09-01T19:54:24Z</time>
  <course>10.96</course>
  <speed>0.2765863337187866</speed>
  <fix>3d</fix>
</trkpt>
<trkpt lat="-27.2744313" lon="151.2900657">
  <ele>353.35</ele>
  <time>2026-09-01T19:54:24Z</time>
  <course>186.53</course>
  <speed>0.25</speed>
  <fix>3d</fix>
</trkpt>
<trkpt lat="-27.2744322" lon="151.2900654">
  <ele>354.33</ele>
  <time>2026-09-01T19:54:24Z</time>
  <course>10.91</course>
  <speed>0.2765863337187866</speed>
  <fix>3d</fix>
</trkpt>
<trkpt lat="-27.2744318" lon="151.2900657">
  <ele>353.84</ele>
  <time>2026-09-01T19:54:24Z</time>
  <course>186.52</course>
  <speed>0.28</speed>
  <fix>3d</fix>
</trkpt>
<trkpt lat="-27.2744325" lon="151.2900654">
  <ele>354.58</ele>
  <time>2026-09-01T19:54:24Z</time>
  <course>10.9</course>
  <speed>0.2863564212655271</speed>
  <fix>3d</fix>
</trkpt>
<trkpt lat="-27.2744318" lon="151.2900657">
  <ele>353.84</ele>
  <time>2026-09-01T19:54:24Z</time>
  <course>186.52</course>
  <speed>0.28</speed>
  <fix>3d</fix>
</trkpt>
<trkpt lat="-27.2744327" lon="151.2900654">
  <ele>354.83</ele>
  <time>2026-09-01T19:54:24Z</time>
  <course>10.93</course>
  <speed>0.2863564212655271</speed>
  <fix>3d</fix>
</trkpt>
<trkpt lat="-27.2744323" lon="151.2900656">
  <ele>354.34</ele>
  <time>2026-09-01T19:54:24Z</time>
  <course>186.51</course>
  <speed>0.29</speed>
  <fix>3d</fix>
</trkpt>
<trkpt lat="-27.274433" lon="151.2900653">
  <ele>355.09</ele>
  <time>2026-09-01T19:54:24Z</time>
  <course>10.97</course>
  <speed>0.28442925306655786</speed>
  <fix>3d</fix>
</trkpt>
<trkpt lat="-27.2744323" lon="151.2900656">
  <ele>354.34</ele>
  <time>2026-09-01T19:54:24Z</time>
  <course>186.51</course>
  <speed>0.29</speed>
  <fix>3d</fix>
</trkpt>
<trkpt lat="-27.2744332" lon="151.2900653">
  <ele>355.33</ele>
  <time>2026-09-01T19:54:24Z</time>
  <course>11.01</course>
  <speed>0.28442925306655786</speed>
  <fix>3d</fix>
</trkpt>
<trkpt lat="-27.2744328" lon="151.2900656">
  <ele>354.84</ele>
  <time>2026-09-01T19:54:24Z</time>
  <course>186.97</course>
  <speed>0.3</speed>
  <fix>3d</fix>
</trkpt>
<trkpt lat="-27.2744335" lon="151.2900653">
  <ele>355.58</ele>
  <time>2026-09-01T19:54:24Z</time>
  <course>11.03</course>
  <speed>0.282842712474619</speed>
  <fix>3d</fix>
</trkpt>
<trkpt lat="-27.2744328" lon="151.2900656">
  <ele>354.84</ele>
  <time>2026-09-01T19:54:24Z</time>
  <course>186.97</course>
  <speed>0.3</speed>
  <fix>3d</fix>
</trkpt>
<trkpt lat="-27.2744338" lon="151.2900653">
  <ele>355.83</ele>
  <time>2026-09-01T19:54:24Z</time>
  <course>11.04</course>
  <speed>0.280713376952364</speed>
  <fix>3d</fix>
</trkpt>
<trkpt lat="-27.2744334" lon="151.2900655">
  <ele>355.33</ele>
  <time>2026-09-01T19:54:24Z</time>
  <course>187.51</course>
  <speed>0.3</speed>
  <fix>3d</fix>
</trkpt>
<trkpt lat="-27.274434" lon="151.2900653">
  <ele>356.08</ele>
  <time>2026-09-01T19:54:24Z</time>
  <course>11.03</course>
  <speed>0.282842712474619</speed>
  <fix>3d</fix>
</trkpt>
<trkpt lat="-27.2744334" lon="151.2900655">
  <ele>355.33</ele>
  <time>2026-09-01T19:54:24Z</time>
  <course>187.51</course>
  <speed>0.3</speed>
  <fix>3d</fix>
</trkpt>
<trkpt lat="-27.2744343" lon="151.2900653">
  <ele>356.33</ele>
  <time>2026-09-01T19:54:24Z</time>
  <course>10.98</course>
  <speed>0.280178514522438</speed>
  <fix>3d</fix>
</trkpt>
<trkpt lat="-27.2744339" lon="151.2900654">
  <ele>355.83</ele>
  <time>2026-09-01T19:54:24Z</time>
  <course>188.05</course>
  <speed>0.29</speed>
  <fix>3d</fix>
</trkpt>
<trkpt lat="-27.2744346" lon="151.2900653">
  <ele>356.59</ele>
  <time>2026-09-01T19:54:24Z</time>
  <course>10.93</course>
  <speed>0.280713376952364</speed>
  <fix>3d</fix>
</trkpt>
<trkpt lat="-27.2744339" lon="151.2900654">
  <ele>355.83</ele>
  <time>2026-09-01T19:54:24Z</time>
  <course>188.05</course>
  <speed>0.29</speed>
  <fix>3d</fix>
</trkpt>
<trkpt lat="-27.2744348" lon="151.2900653">
  <ele>356.84</ele>
  <time>2026-09-01T19:54:24Z</time>
  <course>10.87</course>
  <speed>0.2707397274136177</speed>
  <fix>3d</fix>
</trkpt>
<trkpt lat="-27.2744344" lon="151.2900653">
  <ele>356.33</ele>
  <time>2026-09-01T19:54:24Z</time>
  <course>188.76</course>
  <speed>0.29</speed>
  <fix>3d</fix>
</trkpt>
<trkpt lat="-27.2744351" lon="151.2900653">
  <ele>357.09</ele>
  <time>2026-09-01T19:54:24Z</time>
  <course>10.76</course>
  <speed>0.27</speed>
  <fix>3d</fix>
</trkpt>
<trkpt lat="-27.2744344" lon="151.2900653">
  <ele>356.33</ele>
  <time>2026-09-01T19:54:24Z</time>
  <course>188.76</course>
  <speed>0.29</speed>
  <fix>3d</fix>
</trkpt>
<trkpt lat="-27.2744353" lon="151.2900652">
  <ele>357.33</ele>
  <time>2026-09-01T19:54:24Z</time>
  <course>10.63</course>
  <speed>0.27</speed>
  <fix>3d</fix>
</trkpt>
<trkpt lat="-27.2744349" lon="151.2900652">
  <ele>356.83</ele>
  <time>2026-09-01T19:54:24Z</time>
  <course>189.48</course>
  <speed>0.28</speed>
  <fix>3d</fix>
</trkpt>
<trkpt lat="-27.2744356" lon="151.2900652">
  <ele>357.58</ele>
  <time>2026-09-01T19:54:24Z</time>
  <course>10.5</course>
  <speed>0.26</speed>
  <fix>3d</fix>
</trkpt>
<trkpt lat="-27.2744349" lon="151.2900652">
  <ele>356.83</ele>
  <time>2026-09-01T19:54:24Z</time>
  <course>189.48</course>
  <speed>0.28</speed>
  <fix>3d</fix>
</trkpt>
<trkpt lat="-27.2744358" lon="151.2900652">
  <ele>357.83</ele>
  <time>2026-09-01T19:54:24Z</time>
  <course>10.4</course>
  <speed>0.26</speed>
  <fix>3d</fix>
</trkpt>
<trkpt lat="-27.2744354" lon="151.2900651">
  <ele>357.33</ele>
  <time>2026-09-01T19:54:24Z</time>
  <course>190.01</course>
  <speed>0.27</speed>
  <fix>3d</fix>
</trkpt>
<trkpt lat="-27.274436" lon="151.2900651">
  <ele>358.07</ele>
  <time>2026-09-01T19:54:24Z</time>
  <course>10.3</course>
  <speed>0.25</speed>
  <fix>3d</fix>
</trkpt>
<trkpt lat="-27.2744354" lon="151.2900651">
  <ele>357.33</ele>
  <time>2026-09-01T19:54:24Z</time>
  <course>190.01</course>
  <speed>0.27</speed>
  <fix>3d</fix>
</trkpt>
<trkpt lat="-27.2744363" lon="151.2900651">
  <ele>358.32</ele>
  <time>2026-09-01T19:54:24Z</time>
  <course>10.21</course>
  <speed>0.24</speed>
  <fix>3d</fix>
</trkpt>
<trkpt lat="-27.2744359" lon="151.290065">
  <ele>357.83</ele>
  <time>2026-09-01T19:54:24Z</time>
  <course>190.54</course>
  <speed>0.26</speed>
  <fix>3d</fix>
</trkpt>
<trkpt lat="-27.2744365" lon="151.2900651">
  <ele>358.57</ele>
  <time>2026-09-01T19:54:24Z</time>
  <course>10.14</course>
  <speed>0.24</speed>
  <fix>3d</fix>
</trkpt>
<trkpt lat="-27.2744359" lon="151.290065">
  <ele>357.83</ele>
  <time>2026-09-01T19:54:24Z</time>
  <course>190.54</course>
  <speed>0.26</speed>
  <fix>3d</fix>
</trkpt>
<trkpt lat="-27.2744367" lon="151.2900651">
  <ele>358.82</ele>
  <time>2026-09-01T19:54:24Z</time>
  <course>10.08</course>
  <speed>0.23</speed>
  <fix>3d</fix>
</trkpt>
<trkpt lat="-27.2744364" lon="151.2900649">
  <ele>358.33</ele>
  <time>2026-09-01T19:54:24Z</time>
  <course>190.85</course>
  <speed>0.25</speed>
  <fix>3d</fix>
</trkpt>
<trkpt lat="-27.2744369" lon="151.2900651">
  <ele>359.07</ele>
  <time>2026-09-01T19:54:24Z</time>
  <course>10.04</course>
  <speed>0.22</speed>
  <fix>3d</fix>
</trkpt>
<trkpt lat="-27.2744364" lon="151.2900649">
  <ele>358.33</ele>
  <time>2026-09-01T19:54:24Z</time>
  <course>190.85</course>
  <speed>0.25</speed>
  <fix>3d</fix>
</trkpt>
<trkpt lat="-27.2744371" lon="151.290065">
  <ele>359.32</ele>
  <time>2026-09-01T19:54:24Z</time>
  <course>10.02</course>
  <speed>0.21</speed>
  <fix>3d</fix>
</trkpt>
<trkpt lat="-27.2744367" lon="151.2900648">
  <ele>358.82</ele>
  <time>2026-09-01T19:54:24Z</time>
  <course>191.24</course>
  <speed>0.23</speed>
  <fix>3d</fix>
</trkpt>
<trkpt lat="-27.2744373" lon="151.290065">
  <ele>359.57</ele>
  <time>2026-09-01T19:54:24Z</time>
  <course>10.02</course>
  <speed>0.21</speed>
  <fix>3d</fix>
</trkpt>
<trkpt lat="-27.2744367" lon="151.2900648">
  <ele>358.82</ele>
  <time>2026-09-01T19:54:24Z</time>
  <course>191.24</course>
  <speed>0.23</speed>
  <fix>3d</fix>
</trkpt>
<trkpt lat="-27.2744375" lon="151.290065">
  <ele>359.82</ele>
  <time>2026-09-01T19:54:24Z</time>
  <course>10.01</course>
  <speed>0.2</speed>
  <fix>3d</fix>
</trkpt>
<trkpt lat="-27.2744372" lon="151.2900647">
  <ele>359.32</ele>
  <time>2026-09-01T19:54:24Z</time>
  <course>191.94</course>
  <speed>0.21</speed>
  <fix>3d</fix>
</trkpt>
<trkpt lat="-27.2744376" lon="151.2900649">
  <ele>360.08</ele>
  <time>2026-09-01T19:54:24Z</time>
  <course>10.01</course>
  <speed>0.19</speed>
  <fix>3d</fix>
</trkpt>
<trkpt lat="-27.2744372" lon="151.2900647">
  <ele>359.32</ele>
  <time>2026-09-01T19:54:24Z</time>
  <course>191.94</course>
  <speed>0.21</speed>
  <fix>3d</fix>
</trkpt>
<trkpt lat="-27.2744378" lon="151.2900649">
  <ele>360.33</ele>
  <time>2026-09-01T19:54:24Z</time>
  <course>10.01</course>
  <speed>0.18</speed>
  <fix>3d</fix>
</trkpt>
<trkpt lat="-27.2744376" lon="151.2900646">
  <ele>359.83</ele>
  <time>2026-09-01T19:54:24Z</time>
  <course>192.43</course>
  <speed>0.2</speed>
  <fix>3d</fix>
</trkpt>
<trkpt lat="-27.274438" lon="151.2900648">
  <ele>360.59</ele>
  <time>2026-09-01T19:54:24Z</time>
  <course>10.01</course>
  <speed>0.17</speed>
  <fix>3d</fix>
</trkpt>
<trkpt lat="-27.2744376" lon="151.2900646">
  <ele>359.83</ele>
  <time>2026-09-01T19:54:24Z</time>
  <course>192.43</course>
  <speed>0.2</speed>
  <fix>3d</fix>
</trkpt>
<trkpt lat="-27.2744381" lon="151.2900648">
  <ele>360.84</ele>
  <time>2026-09-01T19:54:24Z</time>
  <course>10.02</course>
  <speed>0.16</speed>
  <fix>3d</fix>
</trkpt>
<trkpt lat="-27.2744379" lon="151.2900646">
  <ele>360.33</ele>
  <time>2026-09-01T19:54:24Z</time>
  <course>192.79</course>
  <speed>0.18</speed>
  <fix>3d</fix>
</trkpt>
<trkpt lat="-27.2744383" lon="151.2900648">
  <ele>361.09</ele>
  <time>2026-09-01T19:54:24Z</time>
  <course>10.03</course>
  <speed>0.16</speed>
  <fix>3d</fix>
</trkpt>
<trkpt lat="-27.2744379" lon="151.2900646">
  <ele>360.33</ele>
  <time>2026-09-01T19:54:24Z</time>
  <course>192.79</course>
  <speed>0.18</speed>
  <fix>3d</fix>
</trkpt>
<trkpt lat="-27.2744384" lon="151.2900647">
  <ele>361.34</ele>
  <time>2026-09-01T19:54:24Z</time>
  <course>10.04</course>
  <speed>0.15</speed>
  <fix>3d</fix>
</trkpt>
<trkpt lat="-27.2744382" lon="151.2900645">
  <ele>360.83</ele>
  <time>2026-09-01T19:54:24Z</time>
  <course>193.59</course>
  <speed>0.16</speed>
  <fix>3d</fix>
</trkpt>
<trkpt lat="-27.2744385" lon="151.2900647">
  <ele>361.59</ele>
  <time>2026-09-01T19:54:24Z</time>
  <course>10.04</course>
  <speed>0.14</speed>
  <fix>3d</fix>
</trkpt>
<trkpt lat="-27.2744382" lon="151.2900645">
  <ele>360.83</ele>
  <time>2026-09-01T19:54:24Z</time>
  <course>193.59</course>
  <speed>0.16</speed>
  <fix>3d</fix>
</trkpt>
<trkpt lat="-27.2744387" lon="151.2900646">
  <ele>361.84</ele>
  <time>2026-09-01T19:54:24Z</time>
  <course>10.06</course>
  <speed>0.13</speed>
  <fix>3d</fix>
</trkpt>
<trkpt lat="-27.2744385" lon="151.2900644">
  <ele>361.33</ele>
  <time>2026-09-01T19:54:24Z</time>
  <course>194.55</course>
  <speed>0.14</speed>
  <fix>3d</fix>
</trkpt>
<trkpt lat="-27.2744388" lon="151.2900646">
  <ele>362.09</ele>
  <time>2026-09-01T19:54:24Z</time>
  <course>10.1</course>
  <speed>0.12041594578792296</speed>
  <fix>3d</fix>
</trkpt>
<trkpt lat="-27.2744385" lon="151.2900644">
  <ele>361.33</ele>
  <time>2026-09-01T19:54:24Z</time>
  <course>194.55</course>
  <speed>0.14</speed>
  <fix>3d</fix>
</trkpt>
<trkpt lat="-27.2744389" lon="151.2900645">
  <ele>362.34</ele>
  <time>2026-09-01T19:54:24Z</time>
  <course>10.13</course>
  <speed>0.12041594578792296</speed>
  <fix>3d</fix>
</trkpt>
<trkpt lat="-27.2744387" lon="151.2900643">
  <ele>361.83</ele>
  <time>2026-09-01T19:54:24Z</time>
  <course>195.53</course>
  <speed>0.13</speed>
  <fix>3d</fix>
</trkpt>
<trkpt lat="-27.274439" lon="151.2900645">
  <ele>362.59</ele>
  <time>2026-09-01T19:54:24Z</time>
  <course>10.16</course>
  <speed>0.11045361017187261</speed>
  <fix>3d</fix>
</trkpt>
<trkpt lat="-27.2744387" lon="151.2900643">
  <ele>361.83</ele>
  <time>2026-09-01T19:54:24Z</time>
  <course>195.53</course>
  <speed>0.13</speed>
  <fix>3d</fix>
</trkpt>
<trkpt lat="-27.2744391" lon="151.2900645">
  <ele>362.84</ele>
  <time>2026-09-01T19:54:24Z</time>
  <course>10.19</course>
  <speed>0.1004987562112089</speed>
  <fix>3d</fix>
</trkpt>
<trkpt lat="-27.274439" lon="151.2900642">
  <ele>362.33</ele>
  <time>2026-09-01T19:54:24Z</time>
  <course>196.68</course>
  <speed>0.11</speed>
  <fix>3d</fix>
</trkpt>
<trkpt lat="-27.2744392" lon="151.2900644">
  <ele>363.09</ele>
  <time>2026-09-01T19:54:24Z</time>
  <course>10.22</course>
  <speed>0.09055385138137417</speed>
  <fix>3d</fix>
</trkpt>
<trkpt lat="-27.274439" lon="151.2900642">
  <ele>362.33</ele>
  <time>2026-09-01T19:54:24Z</time>
  <course>196.68</course>
  <speed>0.11</speed>
  <fix>3d</fix>
</trkpt>
<trkpt lat="-27.2744393" lon="151.2900644">
  <ele>363.34</ele>
  <time>2026-09-01T19:54:24Z</time>
  <course>10.26</course>
  <speed>0.09055385138137417</speed>
  <fix>3d</fix>
</trkpt>
<trkpt lat="-27.2744391" lon="151.2900642">
  <ele>362.83</ele>
  <time>2026-09-01T19:54:24Z</time>
  <course>197.99</course>
  <speed>0.1</speed>
  <fix>3d</fix>
</trkpt>
<trkpt lat="-27.2744393" lon="151.2900643">
  <ele>363.59</ele>
  <time>2026-09-01T19:54:24Z</time>
  <course>10.3</course>
  <speed>0.08062257748298549</speed>
  <fix>3d</fix>
</trkpt>
<trkpt lat="-27.2744391" lon="151.2900642">
  <ele>362.83</ele>
  <time>2026-09-01T19:54:24Z</time>
  <course>197.99</course>
  <speed>0.1</speed>
  <fix>3d</fix>
</trkpt>
<trkpt lat="-27.2744394" lon="151.2900643">
  <ele>363.84</ele>
  <time>2026-09-01T19:54:24Z</time>
  <course>10.34</course>
  <speed>0.07071067811865475</speed>
  <fix>3d</fix>
</trkpt>
<trkpt lat="-27.2744393" lon="151.2900642">
  <ele>363.33</ele>
  <time>2026-09-01T19:54:24Z</time>
  <course>199.61</course>
  <speed>0.08</speed>
  <fix>3d</fix>
</trkpt>
<trkpt lat="-27.2744395" lon="151.2900643">
  <ele>364.09</ele>
  <time>2026-09-01T19:54:24Z</time>
  <course>10.38</course>
  <speed>0.07071067811865475</speed>
  <fix>3d</fix>
</trkpt>
<trkpt lat="-27.2744393" lon="151.2900642">
  <ele>363.33</ele>
  <time>2026-09-01T19:54:24Z</time>
  <course>199.61</course>
  <speed>0.08</speed>
  <fix>3d</fix>
</trkpt>
<trkpt lat="-27.2744395" lon="151.2900642">
  <ele>364.34</ele>
  <time>2026-09-01T19:54:24Z</time>
  <course>10.41</course>
  <speed>0.06082762530298219</speed>
  <fix>3d</fix>
</trkpt>
<trkpt lat="-27.2744394" lon="151.2900641">
  <ele>363.83</ele>
  <time>2026-09-01T19:54:24Z</time>
  <course>201.16</course>
  <speed>0.07</speed>
  <fix>3d</fix>
</trkpt>
<trkpt lat="-27.2744396" lon="151.2900642">
  <ele>364.59</ele>
  <time>2026-09-01T19:54:24Z</time>
  <course>10.44</course>
  <speed>0.06082762530298219</speed>
  <fix>3d</fix>
</trkpt>
<trkpt lat="-27.2744394" lon="151.2900641">
  <ele>363.83</ele>
  <time>2026-09-01T19:54:24Z</time>
  <course>201.16</course>
  <speed>0.07</speed>
  <fix>3d</fix>
</trkpt>
<trkpt lat="-27.2744396" lon="151.2900642">
  <ele>364.84</ele>
  <time>2026-09-01T19:54:25Z</time>
  <course>10.47</course>
  <speed>0.05099019513592785</speed>
  <fix>3d</fix>
</trkpt>
<trkpt lat="-27.2744395" lon="151.2900641">
  <ele>364.33</ele>
  <time>2026-09-01T19:54:25Z</time>
  <course>203.06</course>
  <speed>0.05</speed>
  <fix>3d</fix>
</trkpt>
<trkpt lat="-27.2744396" lon="151.2900641">
  <ele>365.09</ele>
  <time>2026-09-01T19:54:25Z</time>
  <course>10.5</course>
  <speed>0.05099019513592785</speed>
  <fix>3d</fix>
</trkpt>
<trkpt lat="-27.2744395" lon="151.2900641">
  <ele>364.33</ele>
  <time>2026-09-01T19:54:25Z</time>
  <course>203.06</course>
  <speed>0.05</speed>
  <fix>3d</fix>
</trkpt>
<trkpt lat="-27.2744397" lon="151.2900641">
  <ele>365.34</ele>
  <time>2026-09-01T19:54:25Z</time>
  <course>10.52</course>
  <speed>0.0412310562561766</speed>
  <fix>3d</fix>
</trkpt>
<trkpt lat="-27.2744396" lon="151.290064">
  <ele>364.82</ele>
  <time>2026-09-01T19:54:25Z</time>
  <course>205.2</course>
  <speed>0.04</speed>
  <fix>3d</fix>
</trkpt>
<trkpt lat="-27.2744397" lon="151.2900641">
  <ele>365.59</ele>
  <time>2026-09-01T19:54:25Z</time>
  <course>10.53</course>
  <speed>0.0412310562561766</speed>
  <fix>3d</fix>
</trkpt>
<trkpt lat="-27.2744396" lon="151.290064">
  <ele>364.82</ele>
  <time>2026-09-01T19:54:25Z</time>
  <course>205.2</course>
  <speed>0.04</speed>
  <fix>3d</fix>
</trkpt>
<trkpt lat="-27.2744397" lon="151.2900641">
  <ele>365.83</ele>
  <time>2026-09-01T19:54:25Z</time>
  <course>10.54</course>
  <speed>0.0316227766016838</speed>
  <fix>3d</fix>
</trkpt>
<trkpt lat="-27.2744397" lon="151.290064">
  <ele>365.32</ele>
  <time>2026-09-01T19:54:25Z</time>
  <course>206.65</course>
  <speed>0.03</speed>
  <fix>3d</fix>
</trkpt>
<trkpt lat="-27.2744398" lon="151.290064">
  <ele>366.08</ele>
  <time>2026-09-01T19:54:25Z</time>
  <course>10.56</course>
  <speed>0.0316227766016838</speed>
  <fix>3d</fix>
</trkpt>
<trkpt lat="-27.2744397" lon="151.290064">
  <ele>365.32</ele>
  <time>2026-09-01T19:54:25Z</time>
  <course>206.65</course>
  <speed>0.03</speed>
  <fix>3d</fix>
</trkpt>
<trkpt lat="-27.2744398" lon="151.290064">
  <ele>366.33</ele>
  <time>2026-09-01T19:54:25Z</time>
  <course>10.58</course>
  <speed>0.022360679774997897</speed>
  <fix>3d</fix>
</trkpt>
<trkpt lat="-27.2744397" lon="151.290064">
  <ele>365.82</ele>
  <time>2026-09-01T19:54:25Z</time>
  <course>208.25</course>
  <speed>0.02</speed>
  <fix>3d</fix>
</trkpt>
<trkpt lat="-27.2744398" lon="151.290064">
  <ele>366.58</ele>
  <time>2026-09-01T19:54:25Z</time>
  <course>10.61</course>
  <speed>0.022360679774997897</speed>
  <fix>3d</fix>
</trkpt>
<trkpt lat="-27.2744397" lon="151.290064">
  <ele>365.82</ele>
  <time>2026-09-01T19:54:25Z</time>
  <course>208.25</course>
  <speed>0.02</speed>
  <fix>3d</fix>
</trkpt>
<trkpt lat="-27.2744398" lon="151.290064">
  <ele>366.83</ele>
  <time>2026-09-01T19:54:25Z</time>
  <course>10.63</course>
  <speed>0.01414213562373095</speed>
  <fix>3d</fix>
</trkpt>
<trkpt lat="-27.2744398" lon="151.2900639">
  <ele>366.32</ele>
  <time>2026-09-01T19:54:25Z</time>
  <course>214.8</course>
  <speed>0.01</speed>
  <fix>3d</fix>
</trkpt>
<trkpt lat="-27.2744398" lon="151.290064">
  <ele>367.08</ele>
  <time>2026-09-01T19:54:25Z</time>
  <course>10.65</course>
  <speed>0.01414213562373095</speed>
  <fix>3d</fix>
</trkpt>
<trkpt lat="-27.2744398" lon="151.2900639">
  <ele>366.32</ele>
  <time>2026-09-01T19:54:25Z</time>
  <course>214.8</course>
  <speed>0.01</speed>
  <fix>3d</fix>
</trkpt>
<trkpt lat="-27.2744398" lon="151.290064">
  <ele>367.33</ele>
  <time>2026-09-01T19:54:25Z</time>
  <course>10.66</course>
  <speed>0.01414213562373095</speed>
  <fix>3d</fix>
</trkpt>
<trkpt lat="-27.2744398" lon="151.2900639">
  <ele>366.82</ele>
  <time>2026-09-01T19:54:25Z</time>
  <course>235.26</course>
  <speed>0.0</speed>
  <fix>3d</fix>
</trkpt>
<trkpt lat="-27.2744398" lon="151.2900639">
  <ele>367.58</ele>
  <time>2026-09-01T19:54:25Z</time>
  <course>10.68</course>
  <speed>0.01</speed>
  <fix>3d</fix>
</trkpt>
<trkpt lat="-27.2744398" lon="151.2900639">
  <ele>366.82</ele>
  <time>2026-09-01T19:54:25Z</time>
  <course>235.26</course>
  <speed>0.0</speed>
  <fix>3d</fix>
</trkpt>
<trkpt lat="-27.2744398" lon="151.2900639">
  <ele>367.83</ele>
  <time>2026-09-01T19:54:25Z</time>
  <course>10.68</course>
  <speed>0.01</speed>
  <fix>3d</fix>
</trkpt>
<trkpt lat="-27.2744398" lon="151.2900639">
  <ele>367.31</ele>
  <time>2026-09-01T19:54:25Z</time>
  <course>284.76</course>
  <speed>0.0</speed>
  <fix>3d</fix>
</trkpt>
<trkpt lat="-27.2744398" lon="151.2900639">
  <ele>368.08</ele>
  <time>2026-09-01T19:54:25Z</time>
  <course>10.69</course>
  <speed>0.01</speed>
  <fix>3d</fix>
</trkpt>
<trkpt lat="-27.2744398" lon="151.2900639">
  <ele>367.31</ele>
  <time>2026-09-01T19:54:25Z</time>
  <course>284.76</course>
  <speed>0.0</speed>
  <fix>3d</fix>
</trkpt>
<trkpt lat="-27.2744398" lon="151.2900639">
  <ele>368.33</ele>
  <time>2026-09-01T19:54:25Z</time>
  <course>10.7</course>
  <speed>0.01</speed>
  <fix>3d</fix>
</trkpt>
<trkpt lat="-27.2744398" lon="151.2900639">
  <ele>367.81</ele>
  <time>2026-09-01T19:54:25Z</time>
  <course>335.11</course>
  <speed>0.0</speed>
  <fix>3d</fix>
</trkpt>
<trkpt lat="-27.2744398" lon="151.2900639">
  <ele>368.57</ele>
  <time>2026-09-01T19:54:25Z</time>
  <course>10.71</course>
  <speed>0.01</speed>
  <fix>3d</fix>
</trkpt>
<trkpt lat="-27.2744398" lon="151.2900639">
  <ele>367.81</ele>
  <time>2026-09-01T19:54:25Z</time>
  <course>335.11</course>
  <speed>0.0</speed>
  <fix>3d</fix>
</trkpt>
<trkpt lat="-27.2744398" lon="151.2900639">
  <ele>368.82</ele>
  <time>2026-09-01T19:54:25Z</time>
  <course>10.71</course>
  <speed>0.01</speed>
  <fix>3d</fix>
</trkpt>
<trkpt lat="-27.2744398" lon="151.2900639">
  <ele>368.32</ele>
  <time>2026-09-01T19:54:25Z</time>
  <course>356.45</course>
  <speed>0.01</speed>
  <fix>3d</fix>
</trkpt>
<trkpt lat="-27.2744398" lon="151.2900639">
  <ele>369.08</ele>
  <time>2026-09-01T19:54:25Z</time>
  <course>10.71</course>
  <speed>0.01414213562373095</speed>
  <fix>3d</fix>
</trkpt>
<trkpt lat="-27.2744398" lon="151.2900639">
  <ele>368.32</ele>
  <time>2026-09-01T19:54:25Z</time>
  <course>356.45</course>
  <speed>0.01</speed>
  <fix>3d</fix>
</trkpt>
<trkpt lat="-27.2744398" lon="151.2900639">
  <ele>369.33</ele>
  <time>2026-09-01T19:54:25Z</time>
  <course>10.72</course>
  <speed>0.01</speed>
  <fix>3d</fix>
</trkpt>
<trkpt lat="-27.2744398" lon="151.2900639">
  <ele>368.82</ele>
  <time>2026-09-01T19:54:25Z</time>
  <course>4.8</course>
  <speed>0.02</speed>
  <fix>3d</fix>
</trkpt>
<trkpt lat="-27.2744398" lon="151.2900639">
  <ele>369.58</ele>
  <time>2026-09-01T19:54:25Z</time>
  <course>10.73</course>
  <speed>0.01</speed>
  <fix>3d</fix>
</trkpt>
<trkpt lat="-27.2744398" lon="151.2900639">
  <ele>368.82</ele>
  <time>2026-09-01T19:54:25Z</time>
  <course>4.8</course>
  <speed>0.02</speed>
  <fix>3d</fix>
</trkpt>
<trkpt lat="-27.2744398" lon="151.2900639">
  <ele>369.83</ele>
  <time>2026-09-01T19:54:25Z</time>
  <course>10.75</course>
  <speed>0.01</speed>
  <fix>3d</fix>
</trkpt>
<trkpt lat="-27.2744398" lon="151.2900639">
  <ele>369.32</ele>
  <time>2026-09-01T19:54:25Z</time>
  <course>8.2</course>
  <speed>0.02</speed>
  <fix>3d</fix>
</trkpt>
<trkpt lat="-27.2744398" lon="151.2900639">
  <ele>370.08</ele>
  <time>2026-09-01T19:54:25Z</time>
  <course>10.78</course>
  <speed>0.01</speed>
  <fix>3d</fix>
</trkpt>
<trkpt lat="-27.2744398" lon="151.2900639">
  <ele>369.32</ele>
  <time>2026-09-01T19:54:25Z</time>
  <course>8.2</course>
  <speed>0.02</speed>
  <fix>3d</fix>
</trkpt>
<trkpt lat="-27.2744397" lon="151.2900639">
  <ele>370.33</ele>
  <time>2026-09-01T19:54:25Z</time>
  <course>10.8</course>
  <speed>0.01</speed>
  <fix>3d</fix>
</trkpt>
<trkpt lat="-27.2744397" lon="151.2900639">
  <ele>369.82</ele>
  <time>2026-09-01T19:54:25Z</time>
  <course>9.73</course>
  <speed>0.02</speed>
  <fix>3d</fix>
</trkpt>
<trkpt lat="-27.2744397" lon="151.2900639">
  <ele>370.58</ele>
  <time>2026-09-01T19:54:25Z</time>
  <course>10.82</course>
  <speed>0.02</speed>
  <fix>3d</fix>
</trkpt>
<trkpt lat="-27.2744397" lon="151.2900639">
  <ele>369.82</ele>
  <time>2026-09-01T19:54:25Z</time>
  <course>9.73</course>
  <speed>0.02</speed>
  <fix>3d</fix>
</trkpt>
<trkpt lat="-27.2744397" lon="151.2900639">
  <ele>370.83</ele>
  <time>2026-09-01T19:54:25Z</time>
  <course>10.83</course>
  <speed>0.02</speed>
  <fix>3d</fix>
</trkpt>
<trkpt lat="-27.2744397" lon="151.2900639">
  <ele>370.32</ele>
  <time>2026-09-01T19:54:25Z</time>
  <course>11.75</course>
  <speed>0.03</speed>
  <fix>3d</fix>
</trkpt>
<trkpt lat="-27.2744397" lon="151.2900639">
  <ele>371.08</ele>
  <time>2026-09-01T19:54:25Z</time>
  <course>10.83</course>
  <speed>0.02</speed>
  <fix>3d</fix>
</trkpt>
<trkpt lat="-27.2744397" lon="151.2900639">
  <ele>370.32</ele>
  <time>2026-09-01T19:54:25Z</time>
  <course>11.75</course>
  <speed>0.03</speed>
  <fix>3d</fix>
</trkpt>
<trkpt lat="-27.2744396" lon="151.2900639">
  <ele>371.33</ele>
  <time>2026-09-01T19:54:25Z</time>
  <course>10.83</course>
  <speed>0.02</speed>
  <fix>3d</fix>
</trkpt>
<trkpt lat="-27.2744396" lon="151.2900639">
  <ele>370.82</ele>
  <time>2026-09-01T19:54:25Z</time>
  <course>13.47</course>
  <speed>0.03</speed>
  <fix>3d</fix>
</trkpt>
<trkpt lat="-27.2744396" lon="151.2900639">
  <ele>371.58</ele>
  <time>2026-09-01T19:54:25Z</time>
  <course>10.83</course>
  <speed>0.02</speed>
  <fix>3d</fix>
</trkpt>
<trkpt lat="-27.2744396" lon="151.2900639">
  <ele>370.82</ele>
  <time>2026-09-01T19:54:25Z</time>
  <course>13.47</course>
  <speed>0.03</speed>
  <fix>3d</fix>
</trkpt>
<trkpt lat="-27.2744396" lon="151.2900639">
  <ele>371.83</ele>
  <time>2026-09-01T19:54:25Z</time>
  <course>10.83</course>
  <speed>0.02</speed>
  <fix>3d</fix>
</trkpt>
<trkpt lat="-27.2744396" lon="151.2900639">
  <ele>371.32</ele>
  <time>2026-09-01T19:54:25Z</time>
  <course>13.94</course>
  <speed>0.03</speed>
  <fix>3d</fix>
</trkpt>
<trkpt lat="-27.2744396" lon="151.2900639">
  <ele>372.07</ele>
  <time>2026-09-01T19:54:25Z</time>
  <course>10.83</course>
  <speed>0.02</speed>
  <fix>3d</fix>
</trkpt>
<trkpt lat="-27.2744396" lon="151.2900639">
  <ele>371.32</ele>
  <time>2026-09-01T19:54:25Z</time>
  <course>13.94</course>
  <speed>0.03</speed>
  <fix>3d</fix>
</trkpt>
<trkpt lat="-27.2744395" lon="151.2900639">
  <ele>372.32</ele>
  <time>2026-09-01T19:54:25Z</time>
  <course>10.83</course>
  <speed>0.02</speed>
  <fix>3d</fix>
</trkpt>
<trkpt lat="-27.2744395" lon="151.2900639">
  <ele>371.82</ele>
  <time>2026-09-01T19:54:25Z</time>
  <course>14.31</course>
  <speed>0.03</speed>
  <fix>3d</fix>
</trkpt>
<trkpt lat="-27.2744395" lon="151.2900639">
  <ele>372.57</ele>
  <time>2026-09-01T19:54:25Z</time>
  <course>10.82</course>
  <speed>0.02</speed>
  <fix>3d</fix>
</trkpt>
<trkpt lat="-27.2744395" lon="151.2900639">
  <ele>371.82</ele>
  <time>2026-09-01T19:54:25Z</time>
  <course>14.31</course>
  <speed>0.03</speed>
  <fix>3d</fix>
</trkpt>
<trkpt lat="-27.2744395" lon="151.2900639">
  <ele>372.82</ele>
  <time>2026-09-01T19:54:25Z</time>
  <course>10.8</course>
  <speed>0.02</speed>
  <fix>3d</fix>
</trkpt>
<trkpt lat="-27.2744394" lon="151.2900639">
  <ele>372.32</ele>
  <time>2026-09-01T19:54:25Z</time>
  <course>15.24</course>
  <speed>0.03</speed>
  <fix>3d</fix>
</trkpt>
<trkpt lat="-27.2744395" lon="151.2900639">
  <ele>373.07</ele>
  <time>2026-09-01T19:54:25Z</time>
  <course>10.8</course>
  <speed>0.02</speed>
  <fix>3d</fix>
</trkpt>
<trkpt lat="-27.2744394" lon="151.2900639">
  <ele>372.32</ele>
  <time>2026-09-01T19:54:25Z</time>
  <course>15.24</course>
  <speed>0.03</speed>
  <fix>3d</fix>
</trkpt>
<trkpt lat="-27.2744394" lon="151.2900639">
  <ele>373.32</ele>
  <time>2026-09-01T19:54:25Z</time>
  <course>10.79</course>
  <speed>0.02</speed>
  <fix>3d</fix>
</trkpt>
<trkpt lat="-27.2744394" lon="151.2900639">
  <ele>372.82</ele>
  <time>2026-09-01T19:54:25Z</time>
  <course>17.52</course>
  <speed>0.03</speed>
  <fix>3d</fix>
</trkpt>
<trkpt lat="-27.2744394" lon="151.2900639">
  <ele>373.57</ele>
  <time>2026-09-01T19:54:25Z</time>
  <course>10.8</course>
  <speed>0.02</speed>
  <fix>3d</fix>
</trkpt>
<trkpt lat="-27.2744394" lon="151.2900639">
  <ele>372.82</ele>
  <time>2026-09-01T19:54:25Z</time>
  <course>17.52</course>
  <speed>0.03</speed>
  <fix>3d</fix>
</trkpt>
<trkpt lat="-27.2744394" lon="151.2900639">
  <ele>373.82</ele>
  <time>2026-09-01T19:54:25Z</time>
  <course>10.81</course>
  <speed>0.02</speed>
  <fix>3d</fix>
</trkpt>
<trkpt lat="-27.2744393" lon="151.2900639">
  <ele>373.32</ele>
  <time>2026-09-01T19:54:25Z</time>
  <course>20.35</course>
  <speed>0.03</speed>
  <fix>3d</fix>
</trkpt>
<trkpt lat="-27.2744393" lon="151.2900639">
  <ele>374.07</ele>
  <time>2026-09-01T19:54:25Z</time>
  <course>10.83</course>
  <speed>0.02</speed>
  <fix>3d</fix>
</trkpt>
<trkpt lat="-27.2744393" lon="151.2900639">
  <ele>373.32</ele>
  <time>2026-09-01T19:54:25Z</time>
  <course>20.35</course>
  <speed>0.03</speed>
  <fix>3d</fix>
</trkpt>
<trkpt lat="-27.2744393" lon="151.2900639">
  <ele>374.32</ele>
  <time>2026-09-01T19:54:25Z</time>
  <course>10.85</course>
  <speed>0.02</speed>
  <fix>3d</fix>
</trkpt>
<trkpt lat="-27.2744392" lon="151.290064">
  <ele>373.82</ele>
  <time>2026-09-01T19:54:25Z</time>
  <course>21.45</course>
  <speed>0.03</speed>
  <fix>3d</fix>
</trkpt>
<trkpt lat="-27.2744393" lon="151.2900639">
  <ele>374.58</ele>
  <time>2026-09-01T19:54:25Z</time>
  <course>10.86</course>
  <speed>0.02</speed>
  <fix>3d</fix>
</trkpt>
<trkpt lat="-27.2744392" lon="151.290064">
  <ele>373.82</ele>
  <time>2026-09-01T19:54:25Z</time>
  <course>21.45</course>
  <speed>0.03</speed>
  <fix>3d</fix>
</trkpt>
<trkpt lat="-27.2744392" lon="151.2900639">
  <ele>374.83</ele>
  <time>2026-09-01T19:54:25Z</time>
  <course>10.87</course>
  <speed>0.02</speed>
  <fix>3d</fix>
</trkpt>
<trkpt lat="-27.2744392" lon="151.290064">
  <ele>374.33</ele>
  <time>2026-09-01T19:54:25Z</time>
  <course>21.5</course>
  <speed>0.03</speed>
  <fix>3d</fix>
</trkpt>
<trkpt lat="-27.2744392" lon="151.2900639">
  <ele>375.08</ele>
  <time>2026-09-01T19:54:25Z</time>
  <course>10.87</course>
  <speed>0.02</speed>
  <fix>3d</fix>
</trkpt>
<trkpt lat="-27.2744392" lon="151.290064">
  <ele>374.33</ele>
  <time>2026-09-01T19:54:25Z</time>
  <course>21.5</course>
  <speed>0.03</speed>
  <fix>3d</fix>
</trkpt>
<trkpt lat="-27.2744392" lon="151.2900639">
  <ele>375.33</ele>
  <time>2026-09-01T19:54:25Z</time>
  <course>10.86</course>
  <speed>0.02</speed>
  <fix>3d</fix>
</trkpt>
<trkpt lat="-27.2744391" lon="151.290064">
  <ele>374.83</ele>
  <time>2026-09-01T19:54:25Z</time>
  <course>22.09</course>
  <speed>0.03</speed>
  <fix>3d</fix>
</trkpt>
<trkpt lat="-27.2744392" lon="151.2900639">
  <ele>375.58</ele>
  <time>2026-09-01T19:54:25Z</time>
  <course>10.85</course>
  <speed>0.02</speed>
  <fix>3d</fix>
</trkpt>
<trkpt lat="-27.2744391" lon="151.290064">
  <ele>374.83</ele>
  <time>2026-09-01T19:54:25Z</time>
  <course>22.09</course>
  <speed>0.03</speed>
  <fix>3d</fix>
</trkpt>
<trkpt lat="-27.2744391" lon="151.2900639">
  <ele>375.84</ele>
  <time>2026-09-01T19:54:25Z</time>
  <course>10.84</course>
  <speed>0.01</speed>
  <fix>3d</fix>
</trkpt>
<trkpt lat="-27.2744391" lon="151.290064">
  <ele>375.33</ele>
  <time>2026-09-01T19:54:25Z</time>
  <course>23.26</course>
  <speed>0.03</speed>
  <fix>3d</fix>
</trkpt>
<trkpt lat="-27.2744391" lon="151.2900639">
  <ele>376.09</ele>
  <time>2026-09-01T19:54:25Z</time>
  <course>10.84</course>
  <speed>0.01</speed>
  <fix>3d</fix>
</trkpt>
<trkpt lat="-27.2744391" lon="151.290064">
  <ele>375.33</ele>
  <time>2026-09-01T19:54:25Z</time>
  <course>23.26</course>
  <speed>0.03</speed>
  <fix>3d</fix>
</trkpt>
<trkpt lat="-27.2744391" lon="151.2900639">
  <ele>376.34</ele>
  <time>2026-09-01T19:54:25Z</time>
  <course>10.83</course>
  <speed>0.01</speed>
  <fix>3d</fix>
</trkpt>
<trkpt lat="-27.274439" lon="151.2900641">
  <ele>375.83</ele>
  <time>2026-09-01T19:54:25Z</time>
  <course>25.55</course>
  <speed>0.03</speed>
  <fix>3d</fix>
</trkpt>
<trkpt lat="-27.2744391" lon="151.2900639">
  <ele>376.58</ele>
  <time>2026-09-01T19:54:25Z</time>
  <course>10.83</course>
  <speed>0.01</speed>
  <fix>3d</fix>
</trkpt>
<trkpt lat="-27.274439" lon="151.2900641">
  <ele>375.83</ele>
  <time>2026-09-01T19:54:25Z</time>
  <course>25.55</course>
  <speed>0.03</speed>
  <fix>3d</fix>
</trkpt>
<trkpt lat="-27.274439" lon="151.290064">
  <ele>376.83</ele>
  <time>2026-09-01T19:54:25Z</time>
  <course>10.83</course>
  <speed>0.01</speed>
  <fix>3d</fix>
</trkpt>
<trkpt lat="-27.274439" lon="151.2900641">
  <ele>376.33</ele>
  <time>2026-09-01T19:54:25Z</time>
  <course>28.23</course>
  <speed>0.02</speed>
  <fix>3d</fix>
</trkpt>
<trkpt lat="-27.274439" lon="151.290064">
  <ele>377.08</ele>
  <time>2026-09-01T19:54:25Z</time>
  <course>10.83</course>
  <speed>0.01</speed>
  <fix>3d</fix>
</trkpt>
<trkpt lat="-27.274439" lon="151.2900641">
  <ele>376.33</ele>
  <time>2026-09-01T19:54:25Z</time>
  <course>28.23</course>
  <speed>0.02</speed>
  <fix>3d</fix>
</trkpt>
<trkpt lat="-27.274439" lon="151.290064">
  <ele>377.33</ele>
  <time>2026-09-01T19:54:25Z</time>
  <course>10.85</course>
  <speed>0.0</speed>
  <fix>3d</fix>
</trkpt>
<trkpt lat="-27.2744389" lon="151.2900641">
  <ele>376.83</ele>
  <time>2026-09-01T19:54:25Z</time>
  <course>30.5</course>
  <speed>0.02</speed>
  <fix>3d</fix>
</trkpt>
<trkpt lat="-27.274439" lon="151.290064">
  <ele>377.57</ele>
  <time>2026-09-01T19:54:25Z</time>
  <course>10.86</course>
  <speed>0.0</speed>
  <fix>3d</fix>
</trkpt>
<trkpt lat="-27.2744389" lon="151.2900641">
  <ele>376.83</ele>
  <time>2026-09-01T19:54:25Z</time>
  <course>30.5</course>
  <speed>0.02</speed>
  <fix>3d</fix>
</trkpt>
<trkpt lat="-27.274439" lon="151.290064">
  <ele>377.82</ele>
  <time>2026-09-01T19:54:25Z</time>
  <course>10.87</course>
  <speed>0.0</speed>
  <fix>3d</fix>
</trkpt>
<trkpt lat="-27.2744389" lon="151.2900641">
  <ele>377.33</ele>
  <time>2026-09-01T19:54:25Z</time>
  <course>30.91</course>
  <speed>0.02</speed>
  <fix>3d</fix>
</trkpt>
<trkpt lat="-27.274439" lon="151.290064">
  <ele>378.06</ele>
  <time>2026-09-01T19:54:25Z</time>
  <course>10.88</course>
  <speed>0.0</speed>
  <fix>3d</fix>
</trkpt>
<trkpt lat="-27.2744389" lon="151.2900641">
  <ele>377.33</ele>
  <time>2026-09-01T19:54:25Z</time>
  <course>30.91</course>
  <speed>0.02</speed>
  <fix>3d</fix>
</trkpt>
<trkpt lat="-27.2744389" lon="151.290064">
  <ele>378.31</ele>
  <time>2026-09-01T19:54:25Z</time>
  <course>10.87</course>
  <speed>0.0</speed>
  <fix>3d</fix>
</trkpt>
<trkpt lat="-27.2744389" lon="151.2900642">
  <ele>377.83</ele>
  <time>2026-09-01T19:54:25Z</time>
  <course>28.35</course>
  <speed>0.01</speed>
  <fix>3d</fix>
</trkpt>
<trkpt lat="-27.2744389" lon="151.290064">
  <ele>378.56</ele>
  <time>2026-09-01T19:54:25Z</time>
  <course>10.85</course>
  <speed>0.0</speed>
  <fix>3d</fix>
</trkpt>
<trkpt lat="-27.2744389" lon="151.2900642">
  <ele>377.83</ele>
  <time>2026-09-01T19:54:25Z</time>
  <course>28.35</course>
  <speed>0.01</speed>
  <fix>3d</fix>
</trkpt>
<trkpt lat="-27.2744389" lon="151.290064">
  <ele>378.81</ele>
  <time>2026-09-01T19:54:25Z</time>
  <course>10.83</course>
  <speed>0.0</speed>
  <fix>3d</fix>
</trkpt>
<trkpt lat="-27.2744388" lon="151.2900642">
  <ele>378.33</ele>
  <time>2026-09-01T19:54:25Z</time>
  <course>26.52</course>
  <speed>0.01</speed>
  <fix>3d</fix>
</trkpt>
<trkpt lat="-27.2744389" lon="151.2900641">
  <ele>379.06</ele>
  <time>2026-09-01T19:54:25Z</time>
  <course>10.81</course>
  <speed>0.0</speed>
  <fix>3d</fix>
</trkpt>
<trkpt lat="-27.2744388" lon="151.2900642">
  <ele>378.33</ele>
  <time>2026-09-01T19:54:25Z</time>
  <course>26.52</course>
  <speed>0.01</speed>
  <fix>3d</fix>
</trkpt>
<trkpt lat="-27.2744389" lon="151.2900641">
  <ele>379.31</ele>
  <time>2026-09-01T19:54:25Z</time>
  <course>10.79</course>
  <speed>0.0</speed>
  <fix>3d</fix>
</trkpt>
<trkpt lat="-27.2744388" lon="151.2900642">
  <ele>378.83</ele>
  <time>2026-09-01T19:54:25Z</time>
  <course>27.76</course>
  <speed>0.01</speed>
  <fix>3d</fix>
</trkpt>
<trkpt lat="-27.2744389" lon="151.2900641">
  <ele>379.56</ele>
  <time>2026-09-01T19:54:25Z</time>
  <course>10.78</course>
  <speed>0.0</speed>
  <fix>3d</fix>
</trkpt>
<trkpt lat="-27.2744388" lon="151.2900642">
  <ele>378.83</ele>
  <time>2026-09-01T19:54:25Z</time>
  <course>27.76</course>
  <speed>0.01</speed>
  <fix>3d</fix>
</trkpt>
<trkpt lat="-27.2744389" lon="151.2900641">
  <ele>379.81</ele>
  <time>2026-09-01T19:54:25Z</time>
  <course>10.78</course>
  <speed>0.0</speed>
  <fix>3d</fix>
</trkpt>
<trkpt lat="-27.2744388" lon="151.2900642">
  <ele>379.33</ele>
  <time>2026-09-01T19:54:25Z</time>
  <course>29.42</course>
  <speed>0.01</speed>
  <fix>3d</fix>
</trkpt>
<trkpt lat="-27.2744389" lon="151.2900641">
  <ele>380.06</ele>
  <time>2026-09-01T19:54:25Z</time>
  <course>10.77</course>
  <speed>0.0</speed>
  <fix>3d</fix>
</trkpt>
<trkpt lat="-27.2744388" lon="151.2900642">
  <ele>379.33</ele>
  <time>2026-09-01T19:54:25Z</time>
  <course>29.42</course>
  <speed>0.01</speed>
  <fix>3d</fix>
</trkpt>
<trkpt lat="-27.2744389" lon="151.2900641">
  <ele>380.31</ele>
  <time>2026-09-01T19:54:25Z</time>
  <course>10.77</course>
  <speed>0.0</speed>
  <fix>3d</fix>
</trkpt>
<trkpt lat="-27.2744388" lon="151.2900642">
  <ele>379.83</ele>
  <time>2026-09-01T19:54:25Z</time>
  <course>26.72</course>
  <speed>0.01</speed>
  <fix>3d</fix>
</trkpt>
<trkpt lat="-27.2744388" lon="151.2900641">
  <ele>380.57</ele>
  <time>2026-09-01T19:54:25Z</time>
  <course>10.77</course>
  <speed>0.0</speed>
  <fix>3d</fix>
</trkpt>
<trkpt lat="-27.2744388" lon="151.2900642">
  <ele>379.83</ele>
  <time>2026-09-01T19:54:25Z</time>
  <course>26.72</course>
  <speed>0.01</speed>
  <fix>3d</fix>
</trkpt>
<trkpt lat="-27.2744388" lon="151.2900641">
  <ele>380.82</ele>
  <time>2026-09-01T19:54:25Z</time>
  <course>10.77</course>
  <speed>0.0</speed>
  <fix>3d</fix>
</trkpt>
<trkpt lat="-27.2744388" lon="151.2900642">
  <ele>380.34</ele>
  <time>2026-09-01T19:54:25Z</time>
  <course>17.86</course>
  <speed>0.01</speed>
  <fix>3d</fix>
</trkpt>
<trkpt lat="-27.2744388" lon="151.2900641">
  <ele>381.07</ele>
  <time>2026-09-01T19:54:25Z</time>
  <course>10.78</course>
  <speed>0.0</speed>
  <fix>3d</fix>
</trkpt>
<trkpt lat="-27.2744388" lon="151.2900642">
  <ele>380.34</ele>
  <time>2026-09-01T19:54:25Z</time>
  <course>17.86</course>
  <speed>0.01</speed>
  <fix>3d</fix>
</trkpt>
<trkpt lat="-27.2744388" lon="151.2900641">
  <ele>381.33</ele>
  <time>2026-09-01T19:54:25Z</time>
  <course>10.77</course>
  <speed>0.0</speed>
  <fix>3d</fix>
</trkpt>
<trkpt lat="-27.2744387" lon="151.2900642">
  <ele>380.84</ele>
  <time>2026-09-01T19:54:25Z</time>
  <course>7.31</course>
  <speed>0.01</speed>
  <fix>3d</fix>
</trkpt>
<trkpt lat="-27.2744388" lon="151.2900641">
  <ele>381.58</ele>
  <time>2026-09-01T19:54:25Z</time>
  <course>10.76</course>
  <speed>0.0</speed>
  <fix>3d</fix>
</trkpt>
<trkpt lat="-27.2744387" lon="151.2900642">
  <ele>380.84</ele>
  <time>2026-09-01T19:54:25Z</time>
  <course>7.31</course>
  <speed>0.01</speed>
  <fix>3d</fix>
</trkpt>
<trkpt lat="-27.2744388" lon="151.2900641">
  <ele>381.83</ele>
  <time>2026-09-01T19:54:25Z</time>
  <course>10.75</course>
  <speed>0.0</speed>
  <fix>3d</fix>
</trkpt>
<trkpt lat="-27.2744387" lon="151.2900642">
  <ele>381.35</ele>
  <time>2026-09-01T19:54:25Z</time>
  <course>0.63</course>
  <speed>0.0</speed>
  <fix>3d</fix>
</trkpt>
<trkpt lat="-27.2744388" lon="151.2900641">
  <ele>382.08</ele>
  <time>2026-09-01T19:54:25Z</time>
  <course>10.73</course>
  <speed>0.0</speed>
  <fix>3d</fix>
</trkpt>
<trkpt lat="-27.2744387" lon="151.2900642">
  <ele>381.35</ele>
  <time>2026-09-01T19:54:25Z</time>
  <course>0.63</course>
  <speed>0.0</speed>
  <fix>3d</fix>
</trkpt>
<trkpt lat="-27.2744388" lon="151.2900641">
  <ele>382.33</ele>
  <time>2026-09-01T19:54:25Z</time>
  <course>10.73</course>
  <speed>0.0</speed>
  <fix>3d</fix>
</trkpt>
<trkpt lat="-27.2744387" lon="151.2900642">
  <ele>381.85</ele>
  <time>2026-09-01T19:54:25Z</time>
  <course>354.32</course>
  <speed>0.0</speed>
  <fix>3d</fix>
</trkpt>
<trkpt lat="-27.2744388" lon="151.2900641">
  <ele>382.59</ele>
  <time>2026-09-01T19:54:25Z</time>
  <course>10.72</course>
  <speed>0.0</speed>
  <fix>3d</fix>
</trkpt>
<trkpt lat="-27.2744387" lon="151.2900642">
  <ele>381.85</ele>
  <time>2026-09-01T19:54:25Z</time>
  <course>354.32</course>
  <speed>0.0</speed>
  <fix>3d</fix>
</trkpt>
<trkpt lat="-27.2744388" lon="151.2900641">
  <ele>382.83</ele>
  <time>2026-09-01T19:54:25Z</time>
  <course>10.72</course>
  <speed>0.0</speed>
  <fix>3d</fix>
</trkpt>
<trkpt lat="-27.2744387" lon="151.2900642">
  <ele>382.35</ele>
  <time>2026-09-01T19:54:25Z</time>
  <course>345.32</course>
  <speed>0.0</speed>
  <fix>3d</fix>
</trkpt>
<trkpt lat="-27.2744388" lon="151.2900641">
  <ele>383.08</ele>
  <time>2026-09-01T19:54:25Z</time>
  <course>10.71</course>
  <speed>0.0</speed>
  <fix>3d</fix>
</trkpt>
<trkpt lat="-27.2744387" lon="151.2900642">
  <ele>382.35</ele>
  <time>2026-09-01T19:54:25Z</time>
  <course>345.32</course>
  <speed>0.0</speed>
  <fix>3d</fix>
</trkpt>
<trkpt lat="-27.2744388" lon="151.2900641">
  <ele>383.33</ele>
  <time>2026-09-01T19:54:25Z</time>
  <course>10.71</course>
  <speed>0.0</speed>
  <fix>3d</fix>
</trkpt>
<trkpt lat="-27.2744387" lon="151.2900642">
  <ele>382.86</ele>
  <time>2026-09-01T19:54:25Z</time>
  <course>338.9</course>
  <speed>0.0</speed>
  <fix>3d</fix>
</trkpt>
<trkpt lat="-27.2744388" lon="151.2900641">
  <ele>383.58</ele>
  <time>2026-09-01T19:54:25Z</time>
  <course>10.71</course>
  <speed>0.0</speed>
  <fix>3d</fix>
</trkpt>
<trkpt lat="-27.2744387" lon="151.2900642">
  <ele>382.86</ele>
  <time>2026-09-01T19:54:25Z</time>
  <course>338.9</course>
  <speed>0.0</speed>
  <fix>3d</fix>
</trkpt>
<trkpt lat="-27.2744388" lon="151.2900641">
  <ele>383.84</ele>
  <time>2026-09-01T19:54:25Z</time>
  <course>10.72</course>
  <speed>0.0</speed>
  <fix>3d</fix>
</trkpt>
<trkpt lat="-27.2744387" lon="151.2900642">
  <ele>383.36</ele>
  <time>2026-09-01T19:54:25Z</time>
  <course>318.67</course>
  <speed>0.0</speed>
  <fix>3d</fix>
</trkpt>
<trkpt lat="-27.2744388" lon="151.2900641">
  <ele>384.09</ele>
  <time>2026-09-01T19:54:25Z</time>
  <course>10.74</course>
  <speed>0.0</speed>
  <fix>3d</fix>
</trkpt>
<trkpt lat="-27.2744387" lon="151.2900642">
  <ele>383.36</ele>
  <time>2026-09-01T19:54:25Z</time>
  <course>318.67</course>
  <speed>0.0</speed>
  <fix>3d</fix>
</trkpt>
<trkpt lat="-27.2744388" lon="151.2900641">
  <ele>384.34</ele>
  <time>2026-09-01T19:54:25Z</time>
  <course>10.75</course>
  <speed>0.0</speed>
  <fix>3d</fix>
</trkpt>
<trkpt lat="-27.2744387" lon="151.2900642">
  <ele>383.86</ele>
  <time>2026-09-01T19:54:25Z</time>
  <course>269.43</course>
  <speed>0.0</speed>
  <fix>3d</fix>
</trkpt>
<trkpt lat="-27.2744388" lon="151.2900641">
  <ele>384.6</ele>
  <time>2026-09-01T19:54:25Z</time>
  <course>10.75</course>
  <speed>0.0</speed>
  <fix>3d</fix>
</trkpt>
<trkpt lat="-27.2744387" lon="151.2900642">
  <ele>383.86</ele>
  <time>2026-09-01T19:54:25Z</time>
  <course>269.43</course>
  <speed>0.0</speed>
  <fix>3d</fix>
</trkpt>
<trkpt lat="-27.2744388" lon="151.2900641">
  <ele>384.85</ele>
  <time>2026-09-01T19:54:25Z</time>
  <course>10.73</course>
  <speed>0.0</speed>
  <fix>3d</fix>
</trkpt>
<trkpt lat="-27.2744387" lon="151.2900642">
  <ele>384.36</ele>
  <time>2026-09-01T19:54:25Z</time>
  <course>252.05</course>
  <speed>0.0</speed>
  <fix>3d</fix>
</trkpt>
<trkpt lat="-27.2744388" lon="151.2900641">
  <ele>385.1</ele>
  <time>2026-09-01T19:54:25Z</time>
  <course>10.72</course>
  <speed>0.0</speed>
  <fix>3d</fix>
</trkpt>
<trkpt lat="-27.2744387" lon="151.2900642">
  <ele>384.36</ele>
  <time>2026-09-01T19:54:25Z</time>
  <course>252.05</course>
  <speed>0.0</speed>
  <fix>3d</fix>
</trkpt>
<trkpt lat="-27.2744388" lon="151.2900641">
  <ele>385.35</ele>
  <time>2026-09-01T19:54:25Z</time>
  <course>10.72</course>
  <speed>0.01</speed>
  <fix>3d</fix>
</trkpt>
<trkpt lat="-27.2744387" lon="151.2900642">
  <ele>384.85</ele>
  <time>2026-09-01T19:54:25Z</time>
  <course>245.39</course>
  <speed>0.0</speed>
  <fix>3d</fix>
</trkpt>
<trkpt lat="-27.2744388" lon="151.2900641">
  <ele>385.6</ele>
  <time>2026-09-01T19:54:25Z</time>
  <course>10.71</course>
  <speed>0.01</speed>
  <fix>3d</fix>
</trkpt>
<trkpt lat="-27.2744387" lon="151.2900642">
  <ele>384.85</ele>
  <time>2026-09-01T19:54:25Z</time>
  <course>245.39</course>
  <speed>0.0</speed>
  <fix>3d</fix>
</trkpt>
<trkpt lat="-27.2744388" lon="151.2900641">
  <ele>385.85</ele>
  <time>2026-09-01T19:54:25Z</time>
  <course>10.71</course>
  <speed>0.01</speed>
  <fix>3d</fix>
</trkpt>
<trkpt lat="-27.2744387" lon="151.2900642">
  <ele>385.35</ele>
  <time>2026-09-01T19:54:25Z</time>
  <course>242.32</course>
  <speed>0.0</speed>
  <fix>3d</fix>
</trkpt>
<trkpt lat="-27.2744388" lon="151.2900641">
  <ele>386.1</ele>
  <time>2026-09-01T19:54:25Z</time>
  <course>10.71</course>
  <speed>0.01</speed>
  <fix>3d</fix>
</trkpt>
<trkpt lat="-27.2744387" lon="151.2900642">
  <ele>385.35</ele>
  <time>2026-09-01T19:54:25Z</time>
  <course>242.32</course>
  <speed>0.0</speed>
  <fix>3d</fix>
</trkpt>
<trkpt lat="-27.2744388" lon="151.2900641">
  <ele>386.34</ele>
  <time>2026-09-01T19:54:25Z</time>
  <course>10.71</course>
  <speed>0.01</speed>
  <fix>3d</fix>
</trkpt>
<trkpt lat="-27.2744387" lon="151.2900642">
  <ele>385.85</ele>
  <time>2026-09-01T19:54:25Z</time>
  <course>238.89</course>
  <speed>0.0</speed>
  <fix>3d</fix>
</trkpt>
<trkpt lat="-27.2744388" lon="151.2900641">
  <ele>386.59</ele>
  <time>2026-09-01T19:54:25Z</time>
  <course>10.7</course>
  <speed>0.01</speed>
  <fix>3d</fix>
</trkpt>
<trkpt lat="-27.2744387" lon="151.2900642">
  <ele>385.85</ele>
  <time>2026-09-01T19:54:25Z</time>
  <course>238.89</course>
  <speed>0.0</speed>
  <fix>3d</fix>
</trkpt>
<trkpt lat="-27.2744388" lon="151.2900641">
  <ele>386.84</ele>
  <time>2026-09-01T19:54:25Z</time>
  <course>10.7</course>
  <speed>0.01</speed>
  <fix>3d</fix>
</trkpt>
<trkpt lat="-27.2744387" lon="151.2900642">
  <ele>386.35</ele>
  <time>2026-09-01T19:54:25Z</time>
  <course>232.05</course>
  <speed>0.0</speed>
  <fix>3d</fix>
</trkpt>
<trkpt lat="-27.2744388" lon="151.2900641">
  <ele>387.09</ele>
  <time>2026-09-01T19:54:25Z</time>
  <course>10.7</course>
  <speed>0.01</speed>
  <fix>3d</fix>
</trkpt>
<trkpt lat="-27.2744387" lon="151.2900642">
  <ele>386.35</ele>
  <time>2026-09-01T19:54:25Z</time>
  <course>232.05</course>
  <speed>0.0</speed>
  <fix>3d</fix>
</trkpt>
<trkpt lat="-27.2744388" lon="151.2900641">
  <ele>387.34</ele>
  <time>2026-09-01T19:54:25Z</time>
  <course>10.7</course>
  <speed>0.01</speed>
  <fix>3d</fix>
</trkpt>
<trkpt lat="-27.2744387" lon="151.2900642">
  <ele>386.85</ele>
  <time>2026-09-01T19:54:25Z</time>
  <course>226.84</course>
  <speed>0.0</speed>
  <fix>3d</fix>
</trkpt>
<trkpt lat="-27.2744388" lon="151.2900641">
  <ele>387.59</ele>
  <time>2026-09-01T19:54:25Z</time>
  <course>10.7</course>
  <speed>0.01</speed>
  <fix>3d</fix>
</trkpt>
<trkpt lat="-27.2744387" lon="151.2900642">
  <ele>386.85</ele>
  <time>2026-09-01T19:54:25Z</time>
  <course>226.84</course>
  <speed>0.0</speed>
  <fix>3d</fix>
</trkpt>
<trkpt lat="-27.2744388" lon="151.2900641">
  <ele>387.84</ele>
  <time>2026-09-01T19:54:25Z</time>
  <course>10.69</course>
  <speed>0.01</speed>
  <fix>3d</fix>
</trkpt>
<trkpt lat="-27.2744387" lon="151.2900642">
  <ele>387.34</ele>
  <time>2026-09-01T19:54:25Z</time>
  <course>228.45</course>
  <speed>0.01</speed>
  <fix>3d</fix>
</trkpt>
<trkpt lat="-27.2744388" lon="151.2900641">
  <ele>388.09</ele>
  <time>2026-09-01T19:54:25Z</time>
  <course>10.68</course>
  <speed>0.01</speed>
  <fix>3d</fix>
</trkpt>
<trkpt lat="-27.2744387" lon="151.2900642">
  <ele>387.34</ele>
  <time>2026-09-01T19:54:25Z</time>
  <course>228.45</course>
  <speed>0.01</speed>
  <fix>3d</fix>
</trkpt>
<trkpt lat="-27.2744388" lon="151.2900641">
  <ele>388.34</ele>
  <time>2026-09-01T19:54:25Z</time>
  <course>10.65</course>
  <speed>0.01</speed>
  <fix>3d</fix>
</trkpt>
<trkpt lat="-27.2744387" lon="151.2900642">
  <ele>387.84</ele>
  <time>2026-09-01T19:54:25Z</time>
  <course>232.06</course>
  <speed>0.01</speed>
  <fix>3d</fix>
</trkpt>
<trkpt lat="-27.2744388" lon="151.2900641">
  <ele>388.59</ele>
  <time>2026-09-01T19:54:25Z</time>
  <course>10.63</course>
  <speed>0.01</speed>
  <fix>3d</fix>
</trkpt>
<trkpt lat="-27.2744387" lon="151.2900642">
  <ele>387.84</ele>
  <time>2026-09-01T19:54:25Z</time>
  <course>232.06</course>
  <speed>0.01</speed>
  <fix>3d</fix>
</trkpt>
<trkpt lat="-27.2744388" lon="151.2900641">
  <ele>388.84</ele>
  <time>2026-09-01T19:54:25Z</time>
  <course>10.62</course>
  <speed>0.01</speed>
  <fix>3d</fix>
</trkpt>
<trkpt lat="-27.2744387" lon="151.2900642">
  <ele>388.34</ele>
  <time>2026-09-01T19:54:25Z</time>
  <course>233.84</course>
  <speed>0.01</speed>
  <fix>3d</fix>
</trkpt>
<trkpt lat="-27.2744388" lon="151.2900641">
  <ele>389.09</ele>
  <time>2026-09-01T19:54:25Z</time>
  <course>10.61</course>
  <speed>0.01</speed>
  <fix>3d</fix>
</trkpt>
<trkpt lat="-27.2744387" lon="151.2900642">
  <ele>388.34</ele>
  <time>2026-09-01T19:54:25Z</time>
  <course>233.84</course>
  <speed>0.01</speed>
  <fix>3d</fix>
</trkpt>
<trkpt lat="-27.2744388" lon="151.2900641">
  <ele>389.34</ele>
  <time>2026-09-01T19:54:25Z</time>
  <course>10.61</course>
  <speed>0.01</speed>
  <fix>3d</fix>
</trkpt>
<trkpt lat="-27.2744387" lon="151.2900642">
  <ele>388.84</ele>
  <time>2026-09-01T19:54:25Z</time>
  <course>235.52</course>
  <speed>0.01</speed>
  <fix>3d</fix>
</trkpt>
<trkpt lat="-27.2744388" lon="151.2900641">
  <ele>389.59</ele>
  <time>2026-09-01T19:54:25Z</time>
  <course>10.63</course>
  <speed>0.01</speed>
  <fix>3d</fix>
</trkpt>
<trkpt lat="-27.2744387" lon="151.2900642">
  <ele>388.84</ele>
  <time>2026-09-01T19:54:25Z</time>
  <course>235.52</course>
  <speed>0.01</speed>
  <fix>3d</fix>
</trkpt>
<trkpt lat="-27.2744388" lon="151.2900641">
  <ele>389.85</ele>
  <time>2026-09-01T19:54:25Z</time>
  <course>10.64</course>
  <speed>0.01</speed>
  <fix>3d</fix>
</trkpt>
<trkpt lat="-27.2744387" lon="151.2900642">
  <ele>389.33</ele>
  <time>2026-09-01T19:54:25Z</time>
  <course>238.85</course>
  <speed>0.01</speed>
  <fix>3d</fix>
</trkpt>
<trkpt lat="-27.2744388" lon="151.2900641">
  <ele>390.09</ele>
  <time>2026-09-01T19:54:25Z</time>
  <course>10.65</course>
  <speed>0.01</speed>
  <fix>3d</fix>
</trkpt>
<trkpt lat="-27.2744387" lon="151.2900642">
  <ele>389.33</ele>
  <time>2026-09-01T19:54:25Z</time>
  <course>238.85</course>
  <speed>0.01</speed>
  <fix>3d</fix>
</trkpt>
<trkpt lat="-27.2744388" lon="151.2900641">
  <ele>390.34</ele>
  <time>2026-09-01T19:54:25Z</time>
  <course>10.65</course>
  <speed>0.01</speed>
  <fix>3d</fix>
</trkpt>
<trkpt lat="-27.2744387" lon="151.2900641">
  <ele>389.83</ele>
  <time>2026-09-01T19:54:25Z</time>
  <course>242.94</course>
  <speed>0.01</speed>
  <fix>3d</fix>
</trkpt>
<trkpt lat="-27.2744388" lon="151.2900641">
  <ele>390.59</ele>
  <time>2026-09-01T19:54:25Z</time>
  <course>10.65</course>
  <speed>0.01</speed>
  <fix>3d</fix>
</trkpt>
<trkpt lat="-27.2744387" lon="151.2900641">
  <ele>389.83</ele>
  <time>2026-09-01T19:54:25Z</time>
  <course>242.94</course>
  <speed>0.01</speed>
  <fix>3d</fix>
</trkpt>
<trkpt lat="-27.2744388" lon="151.2900641">
  <ele>390.84</ele>
  <time>2026-09-01T19:54:25Z</time>
  <course>10.64</course>
  <speed>0.01</speed>
  <fix>3d</fix>
</trkpt>
<trkpt lat="-27.2744387" lon="151.2900641">
  <ele>390.33</ele>
  <time>2026-09-01T19:54:25Z</time>
  <course>245.77</course>
  <speed>0.01</speed>
  <fix>3d</fix>
</trkpt>
<trkpt lat="-27.2744388" lon="151.2900641">
  <ele>391.09</ele>
  <time>2026-09-01T19:54:25Z</time>
  <course>10.63</course>
  <speed>0.01</speed>
  <fix>3d</fix>
</trkpt>
<trkpt lat="-27.2744387" lon="151.2900641">
  <ele>390.33</ele>
  <time>2026-09-01T19:54:25Z</time>
  <course>245.77</course>
  <speed>0.01</speed>
  <fix>3d</fix>
</trkpt>
<trkpt lat="-27.2744388" lon="151.2900641">
  <ele>391.34</ele>
  <time>2026-09-01T19:54:25Z</time>
  <course>10.61</course>
  <speed>0.01</speed>
  <fix>3d</fix>
</trkpt>
<trkpt lat="-27.2744387" lon="151.2900641">
  <ele>390.83</ele>
  <time>2026-09-01T19:54:25Z</time>
  <course>244.81</course>
  <speed>0.01</speed>
  <fix>3d</fix>
</trkpt>
<trkpt lat="-27.2744388" lon="151.2900641">
  <ele>391.6</ele>
  <time>2026-09-01T19:54:25Z</time>
  <course>10.6</course>
  <speed>0.01</speed>
  <fix>3d</fix>
</trkpt>
<trkpt lat="-27.2744387" lon="151.2900641">
  <ele>390.83</ele>
  <time>2026-09-01T19:54:25Z</time>
  <course>244.81</course>
  <speed>0.01</speed>
  <fix>3d</fix>
</trkpt>
<trkpt lat="-27.2744388" lon="151.2900641">
  <ele>391.85</ele>
  <time>2026-09-01T19:54:25Z</time>
  <course>10.6</course>
  <speed>0.01</speed>
  <fix>3d</fix>
</trkpt>
<trkpt lat="-27.2744387" lon="151.2900641">
  <ele>391.33</ele>
  <time>2026-09-01T19:54:25Z</time>
  <course>243.0</course>
  <speed>0.01</speed>
  <fix>3d</fix>
</trkpt>
<trkpt lat="-27.2744388" lon="151.2900641">
  <ele>392.1</ele>
  <time>2026-09-01T19:54:25Z</time>
  <course>10.61</course>
  <speed>0.01</speed>
  <fix>3d</fix>
</trkpt>
<trkpt lat="-27.2744387" lon="151.2900641">
  <ele>391.33</ele>
  <time>2026-09-01T19:54:25Z</time>
  <course>243.0</course>
  <speed>0.01</speed>
  <fix>3d</fix>
</trkpt>
<trkpt lat="-27.2744388" lon="151.2900641">
  <ele>392.35</ele>
  <time>2026-09-01T19:54:25Z</time>
  <course>10.63</course>
  <speed>0.01</speed>
  <fix>3d</fix>
</trkpt>
<trkpt lat="-27.2744387" lon="151.290064">
  <ele>391.82</ele>
  <time>2026-09-01T19:54:25Z</time>
  <course>245.03</course>
  <speed>0.01</speed>
  <fix>3d</fix>
</trkpt>
<trkpt lat="-27.2744388" lon="151.2900641">
  <ele>392.6</ele>
  <time>2026-09-01T19:54:25Z</time>
  <course>10.64</course>
  <speed>0.01</speed>
  <fix>3d</fix>
</trkpt>
<trkpt lat="-27.2744387" lon="151.290064">
  <ele>391.82</ele>
  <time>2026-09-01T19:54:25Z</time>
  <course>245.03</course>
  <speed>0.01</speed>
  <fix>3d</fix>
</trkpt>
<trkpt lat="-27.2744388" lon="151.2900641">
  <ele>392.85</ele>
  <time>2026-09-01T19:54:25Z</time>
  <course>10.65</course>
  <speed>0.01</speed>
  <fix>3d</fix>
</trkpt>
<trkpt lat="-27.2744387" lon="151.290064">
  <ele>392.32</ele>
  <time>2026-09-01T19:54:25Z</time>
  <course>247.24</course>
  <speed>0.01</speed>
  <fix>3d</fix>
</trkpt>
<trkpt lat="-27.2744388" lon="151.2900641">
  <ele>393.09</ele>
  <time>2026-09-01T19:54:25Z</time>
  <course>10.64</course>
  <speed>0.01</speed>
  <fix>3d</fix>
</trkpt>
<trkpt lat="-27.2744387" lon="151.290064">
  <ele>392.32</ele>
  <time>2026-09-01T19:54:25Z</time>
  <course>247.24</course>
  <speed>0.01</speed>
  <fix>3d</fix>
</trkpt>
<trkpt lat="-27.2744388" lon="151.2900641">
  <ele>393.34</ele>
  <time>2026-09-01T19:54:25Z</time>
  <course>10.63</course>
  <speed>0.01</speed>
  <fix>3d</fix>
</trkpt>
<trkpt lat="-27.2744388" lon="151.290064">
  <ele>392.82</ele>
  <time>2026-09-01T19:54:25Z</time>
  <course>248.05</course>
  <speed>0.01</speed>
  <fix>3d</fix>
</trkpt>
<trkpt lat="-27.2744388" lon="151.2900641">
  <ele>393.58</ele>
  <time>2026-09-01T19:54:25Z</time>
  <course>10.61</course>
  <speed>0.01</speed>
  <fix>3d</fix>
</trkpt>
<trkpt lat="-27.2744388" lon="151.290064">
  <ele>392.82</ele>
  <time>2026-09-01T19:54:25Z</time>
  <course>248.05</course>
  <speed>0.01</speed>
  <fix>3d</fix>
</trkpt>
<trkpt lat="-27.2744388" lon="151.2900641">
  <ele>393.83</ele>
  <time>2026-09-01T19:54:25Z</time>
  <course>10.58</course>
  <speed>0.1019803902718557</speed>
  <fix>3d</fix>
</trkpt>
<trkpt lat="-27.2744388" lon="151.290064">
  <ele>393.32</ele>
  <time>2026-09-01T19:54:25Z</time>
  <course>300.89</course>
  <speed>0.01</speed>
  <fix>3d</fix>
</trkpt>
<trkpt lat="-27.2744387" lon="151.2900641">
  <ele>394.07</ele>
  <time>2026-09-01T19:54:25Z</time>
  <course>10.56</course>
  <speed>0.24331050121192876</speed>
  <fix>3d</fix>
</trkpt>
<trkpt lat="-27.2744388" lon="151.290064">
  <ele>393.32</ele>
  <time>2026-09-01T19:54:25Z</time>
  <course>300.89</course>
  <speed>0.01</speed>
  <fix>3d</fix>
</trkpt>
<trkpt lat="-27.2744383" lon="151.2900641">
  <ele>394.31</ele>
  <time>2026-09-01T19:54:25Z</time>
  <course>10.55</course>
  <speed>0.4570557952810576</speed>
  <fix>3d</fix>
</trkpt>
<trkpt lat="-27.2744387" lon="151.290064">
  <ele>393.82</ele>
  <time>2026-09-01T19:54:25Z</time>
  <course>3.58</course>
  <speed>0.13</speed>
  <fix>3d</fix>
</trkpt>
<trkpt lat="-27.2744378" lon="151.2900642">
  <ele>394.54</ele>
  <time>2026-09-01T19:54:25Z</time>
  <course>10.54</course>
  <speed>0.7316419889536138</speed>
  <fix>3d</fix>
</trkpt>
<trkpt lat="-27.2744387" lon="151.290064">
  <ele>393.82</ele>
  <time>2026-09-01T19:54:25Z</time>
  <course>3.58</course>
  <speed>0.13</speed>
  <fix>3d</fix>
</trkpt>
<trkpt lat="-27.274437" lon="151.2900643">
  <ele>394.76</ele>
  <time>2026-09-01T19:54:25Z</time>
  <course>10.49</course>
  <speed>1.0572133181151286</speed>
  <fix>3d</fix>
</trkpt>
<trkpt lat="-27.2744382" lon="151.290064">
  <ele>394.3</ele>
  <time>2026-09-01T19:54:25Z</time>
  <course>7.35</course>
  <speed>0.49</speed>
  <fix>3d</fix>
</trkpt>
<trkpt lat="-27.2744359" lon="151.2900645">
  <ele>394.97</ele>
  <time>2026-09-01T19:54:25Z</time>
  <course>10.43</course>
  <speed>1.4632839779072275</speed>
  <fix>3d</fix>
</trkpt>
<trkpt lat="-27.2744382" lon="151.290064">
  <ele>394.3</ele>
  <time>2026-09-01T19:54:25Z</time>
  <course>7.35</course>
  <speed>0.49</speed>
  <fix>3d</fix>
</trkpt>
<trkpt lat="-27.2744344" lon="151.2900648">
  <ele>395.14</ele>
  <time>2026-09-01T19:54:25Z</time>
  <course>10.31</course>
  <speed>1.9267589366602145</speed>
  <fix>3d</fix>
</trkpt>
<trkpt lat="-27.2744368" lon="151.2900641">
  <ele>394.75</ele>
  <time>2026-09-01T19:54:25Z</time>
  <course>7.95</course>
  <speed>1.08</speed>
  <fix>3d</fix>
</trkpt>
<trkpt lat="-27.2744324" lon="151.2900652">
  <ele>395.29</ele>
  <time>2026-09-01T19:54:25Z</time>
  <course>10.15</course>
  <speed>2.4544856895080893</speed>
  <fix>3d</fix>
</trkpt>
<trkpt lat="-27.2744368" lon="151.2900641">
  <ele>394.75</ele>
  <time>2026-09-01T19:54:25Z</time>
  <course>7.95</course>
  <speed>1.08</speed>
  <fix>3d</fix>
</trkpt>
<trkpt lat="-27.27443" lon="151.2900656">
  <ele>395.4</ele>
  <time>2026-09-01T19:54:25Z</time>
  <course>9.74</course>
  <speed>3.049622927510875</speed>
  <fix>3d</fix>
</trkpt>
<trkpt lat="-27.2744342" lon="151.2900645">
  <ele>395.12</ele>
  <time>2026-09-01T19:54:25Z</time>
  <course>7.98</course>
  <speed>1.94</speed>
  <fix>3d</fix>
</trkpt>
<trkpt lat="-27.2744271" lon="151.290066">
  <ele>395.49</ele>
  <time>2026-09-01T19:54:25Z</time>
  <course>9.29</course>
  <speed>3.641771546926029</speed>
  <fix>3d</fix>
</trkpt>
<trkpt lat="-27.2744342" lon="151.2900645">
  <ele>395.12</ele>
  <time>2026-09-01T19:54:25Z</time>
  <course>7.98</course>
  <speed>1.94</speed>
  <fix>3d</fix>
</trkpt>
<trkpt lat="-27.2744236" lon="151.2900666">
  <ele>395.54</ele>
  <time>2026-09-01T19:54:25Z</time>
  <course>8.73</course>
  <speed>4.244066446228192</speed>
  <fix>3d</fix>
</trkpt>
<trkpt lat="-27.2744298" lon="151.2900652">
  <ele>395.39</ele>
  <time>2026-09-01T19:54:25Z</time>
  <course>7.71</course>
  <speed>3.02</speed>
  <fix>3d</fix>
</trkpt>
<trkpt lat="-27.2744196" lon="151.2900671">
  <ele>395.56</ele>
  <time>2026-09-01T19:54:25Z</time>
  <course>8.11</course>
  <speed>4.842478704134898</speed>
  <fix>3d</fix>
</trkpt>
<trkpt lat="-27.2744298" lon="151.2900652">
  <ele>395.39</ele>
  <time>2026-09-01T19:54:25Z</time>
  <course>7.71</course>
  <speed>3.02</speed>
  <fix>3d</fix>
</trkpt>
<trkpt lat="-27.274415" lon="151.2900677">
  <ele>395.57</ele>
  <time>2026-09-01T19:54:25Z</time>
  <course>7.39</course>
  <speed>5.438979683727455</speed>
  <fix>3d</fix>
</trkpt>
<trkpt lat="-27.2744233" lon="151.2900661">
  <ele>395.53</ele>
  <time>2026-09-01T19:54:25Z</time>
  <course>7.11</course>
  <speed>4.21</speed>
  <fix>3d</fix>
</trkpt>
<trkpt lat="-27.27441" lon="151.2900682">
  <ele>395.56</ele>
  <time>2026-09-01T19:54:25Z</time>
  <course>6.65</course>
  <speed>6.032984336130834</speed>
  <fix>3d</fix>
</trkpt>
<trkpt lat="-27.2744233" lon="151.2900661">
  <ele>395.53</ele>
  <time>2026-09-01T19:54:25Z</time>
  <course>7.11</course>
  <speed>4.21</speed>
  <fix>3d</fix>
</trkpt>
<trkpt lat="-27.2744044" lon="151.2900688">
  <ele>395.55</ele>
  <time>2026-09-01T19:54:25Z</time>
  <course>5.85</course>
  <speed>6.615474283828787</speed>
  <fix>3d</fix>
</trkpt>
<trkpt lat="-27.2744147" lon="151.2900672">
  <ele>395.57</ele>
  <time>2026-09-01T19:54:25Z</time>
  <course>6.08</course>
  <speed>5.41</speed>
  <fix>3d</fix>
</trkpt>
<trkpt lat="-27.2743982" lon="151.2900692">
  <ele>395.52</ele>
  <time>2026-09-01T19:54:25Z</time>
  <course>4.89</course>
  <speed>7.207364289391788</speed>
  <fix>3d</fix>
</trkpt>
<trkpt lat="-27.2744147" lon="151.2900672">
  <ele>395.57</ele>
  <time>2026-09-01T19:54:25Z</time>
  <course>6.08</course>
  <speed>5.41</speed>
  <fix>3d</fix>
</trkpt>
<trkpt lat="-27.2743916" lon="151.2900696">
  <ele>395.5</ele>
  <time>2026-09-01T19:54:25Z</time>
  <course>3.74</course>
  <speed>7.789274677400971</speed>
  <fix>3d</fix>
</trkpt>
<trkpt lat="-27.2744039" lon="151.2900684">
  <ele>395.55</ele>
  <time>2026-09-01T19:54:25Z</time>
  <course>4.57</course>
  <speed>6.61</speed>
  <fix>3d</fix>
</trkpt>
<trkpt lat="-27.2743844" lon="151.2900698">
  <ele>395.48</ele>
  <time>2026-09-01T19:54:25Z</time>
  <course>2.48</course>
  <speed>8.362894235849213</speed>
  <fix>3d</fix>
</trkpt>
<trkpt lat="-27.2744039" lon="151.2900684">
  <ele>395.55</ele>
  <time>2026-09-01T19:54:25Z</time>
  <course>4.57</course>
  <speed>6.61</speed>
  <fix>3d</fix>
</trkpt>
<trkpt lat="-27.2743767" lon="151.2900699">
  <ele>395.45</ele>
  <time>2026-09-01T19:54:25Z</time>
  <course>1.19</course>
  <speed>8.940050335428767</speed>
  <fix>3d</fix>
</trkpt>
<trkpt lat="-27.2743911" lon="151.2900693">
  <ele>395.5</ele>
  <time>2026-09-01T19:54:25Z</time>
  <course>2.57</course>
  <speed>7.79</speed>
  <fix>3d</fix>
</trkpt>
<trkpt lat="-27.2743685" lon="151.2900698">
  <ele>395.43</ele>
  <time>2026-09-01T19:54:25Z</time>
  <course>359.86</course>
  <speed>9.491706906557956</speed>
  <fix>3d</fix>
</trkpt>
<trkpt lat="-27.2743911" lon="151.2900693">
  <ele>395.5</ele>
  <time>2026-09-01T19:54:25Z</time>
  <course>2.57</course>
  <speed>7.79</speed>
  <fix>3d</fix>
</trkpt>
<trkpt lat="-27.2743598" lon="151.2900695">
  <ele>395.42</ele>
  <time>2026-09-01T19:54:25Z</time>
  <course>358.37</course>
  <speed>10.040089641034088</speed>
  <fix>3d</fix>
</trkpt>
<trkpt lat="-27.274376" lon="151.2900697">
  <ele>395.46</ele>
  <time>2026-09-01T19:54:25Z</time>
  <course>0.13</course>
  <speed>8.95</speed>
  <fix>3d</fix>
</trkpt>
<trkpt lat="-27.2743506" lon="151.2900689">
  <ele>395.41</ele>
  <time>2026-09-01T19:54:25Z</time>
  <course>356.88</course>
  <speed>10.586600020780986</speed>
  <fix>3d</fix>
</trkpt>
<trkpt lat="-27.274376" lon="151.2900697">
  <ele>395.46</ele>
  <time>2026-09-01T19:54:25Z</time>
  <course>0.13</course>
  <speed>8.95</speed>
  <fix>3d</fix>
</trkpt>
<trkpt lat="-27.2743409" lon="151.2900679">
  <ele>395.4</ele>
  <time>2026-09-01T19:54:25Z</time>
  <course>355.29</course>
  <speed>11.12255815898483</speed>
  <fix>3d</fix>
</trkpt>
<trkpt lat="-27.2743589" lon="151.2900693">
  <ele>395.42</ele>
  <time>2026-09-01T19:54:25Z</time>
  <course>357.37</course>
  <speed>10.07</speed>
  <fix>3d</fix>
</trkpt>
<trkpt lat="-27.2743308" lon="151.2900667">
  <ele>395.39</ele>
  <time>2026-09-01T19:54:25Z</time>
  <course>353.75</course>
  <speed>11.650583676365748</speed>
  <fix>3d</fix>
</trkpt>
<trkpt lat="-27.2743589" lon="151.2900693">
  <ele>395.42</ele>
  <time>2026-09-01T19:54:25Z</time>
  <course>357.37</course>
  <speed>10.07</speed>
  <fix>3d</fix>
</trkpt>
<trkpt lat="-27.2743203" lon="151.290065">
  <ele>395.38</ele>
  <time>2026-09-01T19:54:25Z</time>
  <course>352.24</course>
  <speed>12.169901396478117</speed>
  <fix>3d</fix>
</trkpt>
<trkpt lat="-27.2743398" lon="151.2900678">
  <ele>395.4</ele>
  <time>2026-09-01T19:54:25Z</time>
  <course>354.38</course>
  <speed>11.16</speed>
  <fix>3d</fix>
</trkpt>
<trkpt lat="-27.2743096" lon="151.290063">
  <ele>395.38</ele>
  <time>2026-09-01T19:54:25Z</time>
  <course>350.79</course>
  <speed>12.659747232863698</speed>
  <fix>3d</fix>
</trkpt>
<trkpt lat="-27.2743398" lon="151.2900678">
  <ele>395.4</ele>
  <time>2026-09-01T19:54:25Z</time>
  <course>354.38</course>
  <speed>11.16</speed>
  <fix>3d</fix>
</trkpt>
<trkpt lat="-27.2742979" lon="151.2900605">
  <ele>395.38</ele>
  <time>2026-09-01T19:54:25Z</time>
  <course>349.33</course>
  <speed>13.177484585458638</speed>
  <fix>3d</fix>
</trkpt>
<trkpt lat="-27.274319" lon="151.2900649">
  <ele>395.39</ele>
  <time>2026-09-01T19:54:25Z</time>
  <course>351.29</course>
  <speed>12.22</speed>
  <fix>3d</fix>
</trkpt>
<trkpt lat="-27.2742863" lon="151.2900576">
  <ele>395.38</ele>
  <time>2026-09-01T19:54:25Z</time>
  <course>347.99</course>
  <speed>13.663341465395645</speed>
  <fix>3d</fix>
</trkpt>
<trkpt lat="-27.274319" lon="151.2900649">
  <ele>395.39</ele>
  <time>2026-09-01T19:54:25Z</time>
  <course>351.29</course>
  <speed>12.22</speed>
  <fix>3d</fix>
</trkpt>
<trkpt lat="-27.2742742" lon="151.2900543">
  <ele>395.38</ele>
  <time>2026-09-01T19:54:25Z</time>
  <course>346.61</course>
  <speed>14.143213920463763</speed>
  <fix>3d</fix>
</trkpt>
<trkpt lat="-27.2742964" lon="151.2900603">
  <ele>395.39</ele>
  <time>2026-09-01T19:54:25Z</time>
  <course>348.22</course>
  <speed>13.23</speed>
  <fix>3d</fix>
</trkpt>
<trkpt lat="-27.2742617" lon="151.2900504">
  <ele>395.38</ele>
  <time>2026-09-01T19:54:25Z</time>
  <course>345.25</course>
  <speed>14.615238622752624</speed>
  <fix>3d</fix>
</trkpt>
<trkpt lat="-27.2742964" lon="151.2900603">
  <ele>395.39</ele>
  <time>2026-09-01T19:54:25Z</time>
  <course>348.22</course>
  <speed>13.23</speed>
  <fix>3d</fix>
</trkpt>
<trkpt lat="-27.274249" lon="151.2900461">
  <ele>395.38</ele>
  <time>2026-09-01T19:54:25Z</time>
  <course>343.96</course>
  <speed>15.079655168471195</speed>
  <fix>3d</fix>
</trkpt>
<trkpt lat="-27.2742724" lon="151.2900539">
  <ele>395.4</ele>
  <time>2026-09-01T19:54:25Z</time>
  <course>345.26</course>
  <speed>14.21</speed>
  <fix>3d</fix>
</trkpt>
<trkpt lat="-27.2742358" lon="151.2900413">
  <ele>395.39</ele>
  <time>2026-09-01T19:54:25Z</time>
  <course>342.57</course>
  <speed>15.536759636423549</speed>
  <fix>3d</fix>
</trkpt>
<trkpt lat="-27.2742724" lon="151.2900539">
  <ele>395.4</ele>
  <time>2026-09-01T19:54:25Z</time>
  <course>345.26</course>
  <speed>14.21</speed>
  <fix>3d</fix>
</trkpt>
<trkpt lat="-27.2742225" lon="151.290036">
  <ele>395.39</ele>
  <time>2026-09-01T19:54:25Z</time>
  <course>341.18</course>
  <speed>15.970604246552478</speed>
  <fix>3d</fix>
</trkpt>
<trkpt lat="-27.2742471" lon="151.2900457">
  <ele>395.41</ele>
  <time>2026-09-01T19:54:25Z</time>
  <course>342.45</course>
  <speed>15.15</speed>
  <fix>3d</fix>
</trkpt>
<trkpt lat="-27.2742089" lon="151.2900302">
  <ele>395.39</ele>
  <time>2026-09-01T19:54:25Z</time>
  <course>339.82</course>
  <speed>16.387876616572388</speed>
  <fix>3d</fix>
</trkpt>
<trkpt lat="-27.2742471" lon="151.2900457">
  <ele>395.41</ele>
  <time>2026-09-01T19:54:25Z</time>
  <course>342.45</course>
  <speed>15.15</speed>
  <fix>3d</fix>
</trkpt>
<trkpt lat="-27.2741951" lon="151.290024">
  <ele>395.38</ele>
  <time>2026-09-01T19:54:25Z</time>
  <course>338.55</course>
  <speed>16.78542522547463</speed>
  <fix>3d</fix>
</trkpt>
<trkpt lat="-27.2742206" lon="151.2900354">
  <ele>395.42</ele>
  <time>2026-09-01T19:54:25Z</time>
  <course>339.78</course>
  <speed>16.04</speed>
  <fix>3d</fix>
</trkpt>
<trkpt lat="-27.274181" lon="151.2900172">
  <ele>395.38</ele>
  <time>2026-09-01T19:54:25Z</time>
  <course>337.4</course>
  <speed>17.176617827733143</speed>
  <fix>3d</fix>
</trkpt>
<trkpt lat="-27.2742206" lon="151.2900354">
  <ele>395.42</ele>
  <time>2026-09-01T19:54:25Z</time>
  <course>339.78</course>
  <speed>16.04</speed>
  <fix>3d</fix>
</trkpt>
<trkpt lat="-27.2741668" lon="151.2900099">
  <ele>395.38</ele>
  <time>2026-09-01T19:54:25Z</time>
  <course>336.2</course>
  <speed>17.535392781457734</speed>
  <fix>3d</fix>
</trkpt>
<trkpt lat="-27.2741931" lon="151.2900232">
  <ele>395.43</ele>
  <time>2026-09-01T19:54:25Z</time>
  <course>337.2</course>
  <speed>16.86</speed>
  <fix>3d</fix>
</trkpt>
<trkpt lat="-27.2741525" lon="151.2900021">
  <ele>395.38</ele>
  <time>2026-09-01T19:54:25Z</time>
  <course>334.92</course>
  <speed>17.87960849683236</speed>
  <fix>3d</fix>
</trkpt>
<trkpt lat="-27.2741931" lon="151.2900232">
  <ele>395.43</ele>
  <time>2026-09-01T19:54:25Z</time>
  <course>337.2</course>
  <speed>16.86</speed>
  <fix>3d</fix>
</trkpt>
<trkpt lat="-27.274138" lon="151.2899938">
  <ele>395.38</ele>
  <time>2026-09-01T19:54:25Z</time>
  <course>333.7</course>
  <speed>18.219069679871144</speed>
  <fix>3d</fix>
</trkpt>
<trkpt lat="-27.2741649" lon="151.290009">
  <ele>395.43</ele>
  <time>2026-09-01T19:54:25Z</time>
  <course>334.69</course>
  <speed>17.61</speed>
  <fix>3d</fix>
</trkpt>
<trkpt lat="-27.2741234" lon="151.2899849">
  <ele>395.38</ele>
  <time>2026-09-01T19:54:25Z</time>
  <course>332.5</course>
  <speed>18.5321342537766</speed>
  <fix>3d</fix>
</trkpt>
<trkpt lat="-27.2741649" lon="151.290009">
  <ele>395.43</ele>
  <time>2026-09-01T19:54:25Z</time>
  <course>334.69</course>
  <speed>17.61</speed>
  <fix>3d</fix>
</trkpt>
<trkpt lat="-27.2741088" lon="151.2899756">
  <ele>395.39</ele>
  <time>2026-09-01T19:54:25Z</time>
  <course>331.26</course>
  <speed>18.833292330338846</speed>
  <fix>3d</fix>
</trkpt>
<trkpt lat="-27.274136" lon="151.2899928">
  <ele>395.43</ele>
  <time>2026-09-01T19:54:25Z</time>
  <course>332.17</course>
  <speed>18.29</speed>
  <fix>3d</fix>
</trkpt>
<trkpt lat="-27.2740941" lon="151.2899657">
  <ele>395.41</ele>
  <time>2026-09-01T19:54:25Z</time>
  <course>329.83</course>
  <speed>19.12368688302546</speed>
  <fix>3d</fix>
</trkpt>
<trkpt lat="-27.274136" lon="151.2899928">
  <ele>395.43</ele>
  <time>2026-09-01T19:54:25Z</time>
  <course>332.17</course>
  <speed>18.29</speed>
  <fix>3d</fix>
</trkpt>
<trkpt lat="-27.2740795" lon="151.2899553">
  <ele>395.43</ele>
  <time>2026-09-01T19:54:25Z</time>
  <course>328.18</course>
  <speed>19.401610757872657</speed>
  <fix>3d</fix>
</trkpt>
<trkpt lat="-27.2741068" lon="151.2899745">
  <ele>395.45</ele>
  <time>2026-09-01T19:54:25Z</time>
  <course>329.58</course>
  <speed>18.91</speed>
  <fix>3d</fix>
</trkpt>
<trkpt lat="-27.2740649" lon="151.2899443">
  <ele>395.45</ele>
  <time>2026-09-01T19:54:25Z</time>
  <course>326.41</course>
  <speed>19.664307768136666</speed>
  <fix>3d</fix>
</trkpt>
<trkpt lat="-27.2741068" lon="151.2899745">
  <ele>395.45</ele>
  <time>2026-09-01T19:54:25Z</time>
  <course>329.58</course>
  <speed>18.91</speed>
  <fix>3d</fix>
</trkpt>
<trkpt lat="-27.2740503" lon="151.2899326">
  <ele>395.48</ele>
  <time>2026-09-01T19:54:25Z</time>
  <course>324.63</course>
  <speed>19.918777572933536</speed>
  <fix>3d</fix>
</trkpt>
<trkpt lat="-27.2740775" lon="151.289954">
  <ele>395.49</ele>
  <time>2026-09-01T19:54:25Z</time>
  <course>326.77</course>
  <speed>19.47</speed>
  <fix>3d</fix>
</trkpt>
<trkpt lat="-27.274036" lon="151.2899204">
  <ele>395.52</ele>
  <time>2026-09-01T19:54:25Z</time>
  <course>322.73</course>
  <speed>20.16120284110053</speed>
  <fix>3d</fix>
</trkpt>
<trkpt lat="-27.2740775" lon="151.289954">
  <ele>395.49</ele>
  <time>2026-09-01T19:54:25Z</time>
  <course>326.77</course>
  <speed>19.47</speed>
  <fix>3d</fix>
</trkpt>
<trkpt lat="-27.2740218" lon="151.2899074">
  <ele>395.55</ele>
  <time>2026-09-01T19:54:25Z</time>
  <course>320.89</course>
  <speed>20.383679746306846</speed>
  <fix>3d</fix>
</trkpt>
<trkpt lat="-27.2740483" lon="151.2899312">
  <ele>395.55</ele>
  <time>2026-09-01T19:54:25Z</time>
  <course>323.55</course>
  <speed>19.98</speed>
  <fix>3d</fix>
</trkpt>
<trkpt lat="-27.2740079" lon="151.2898938">
  <ele>395.59</ele>
  <time>2026-09-01T19:54:25Z</time>
  <course>319.06</course>
  <speed>20.603402631604325</speed>
  <fix>3d</fix>
</trkpt>
<trkpt lat="-27.2740483" lon="151.2899312">
  <ele>395.55</ele>
  <time>2026-09-01T19:54:25Z</time>
  <course>323.55</course>
  <speed>19.98</speed>
  <fix>3d</fix>
</trkpt>
<trkpt lat="-27.2739942" lon="151.2898795">
  <ele>395.64</ele>
  <time>2026-09-01T19:54:25Z</time>
  <course>317.25</course>
  <speed>20.812585134961008</speed>
  <fix>3d</fix>
</trkpt>
<trkpt lat="-27.2740198" lon="151.2899059">
  <ele>395.63</ele>
  <time>2026-09-01T19:54:25Z</time>
  <course>319.86</course>
  <speed>20.44</speed>
  <fix>3d</fix>
</trkpt>
<trkpt lat="-27.2739809" lon="151.2898646">
  <ele>395.69</ele>
  <time>2026-09-01T19:54:25Z</time>
  <course>315.35</course>
  <speed>21.012570047473965</speed>
  <fix>3d</fix>
</trkpt>
<trkpt lat="-27.2740198" lon="151.2899059">
  <ele>395.63</ele>
  <time>2026-09-01T19:54:25Z</time>
  <course>319.86</course>
  <speed>20.44</speed>
  <fix>3d</fix>
</trkpt>
<trkpt lat="-27.273968" lon="151.2898489">
  <ele>395.75</ele>
  <time>2026-09-01T19:54:25Z</time>
  <course>313.4</course>
  <speed>21.190757419214634</speed>
  <fix>3d</fix>
</trkpt>
<trkpt lat="-27.2739923" lon="151.2898779">
  <ele>395.72</ele>
  <time>2026-09-01T19:54:25Z</time>
  <course>315.86</course>
  <speed>20.86</speed>
  <fix>3d</fix>
</trkpt>
<trkpt lat="-27.2739554" lon="151.2898326">
  <ele>395.82</ele>
  <time>2026-09-01T19:54:25Z</time>
  <course>311.45</course>
  <speed>21.383500648864768</speed>
  <fix>3d</fix>
</trkpt>
<trkpt lat="-27.2739923" lon="151.2898779">
  <ele>395.72</ele>
  <time>2026-09-01T19:54:25Z</time>
  <course>315.86</course>
  <speed>20.86</speed>
  <fix>3d</fix>
</trkpt>
<trkpt lat="-27.2739432" lon="151.2898155">
  <ele>395.89</ele>
  <time>2026-09-01T19:54:25Z</time>
  <course>309.45</course>
  <speed>21.55754392318383</speed>
  <fix>3d</fix>
</trkpt>
<trkpt lat="-27.2739661" lon="151.2898472">
  <ele>395.84</ele>
  <time>2026-09-01T19:54:25Z</time>
  <course>311.72</course>
  <speed>21.24</speed>
  <fix>3d</fix>
</trkpt>
<trkpt lat="-27.2739316" lon="151.289798">
  <ele>395.97</ele>
  <time>2026-09-01T19:54:25Z</time>
  <course>307.44</course>
  <speed>21.71042146067183</speed>
  <fix>3d</fix>
</trkpt>
<trkpt lat="-27.2739661" lon="151.2898472">
  <ele>395.84</ele>
  <time>2026-09-01T19:54:25Z</time>
  <course>311.72</course>
  <speed>21.24</speed>
  <fix>3d</fix>
</trkpt>
<trkpt lat="-27.2739205" lon="151.2897798">
  <ele>396.05</ele>
  <time>2026-09-01T19:54:25Z</time>
  <course>305.5</course>
  <speed>21.869270678282806</speed>
  <fix>3d</fix>
</trkpt>
<trkpt lat="-27.2739416" lon="151.2898138">
  <ele>395.99</ele>
  <time>2026-09-01T19:54:25Z</time>
  <course>307.55</course>
  <speed>21.58</speed>
  <fix>3d</fix>
</trkpt>
<trkpt lat="-27.2739098" lon="151.2897611">
  <ele>396.14</ele>
  <time>2026-09-01T19:54:25Z</time>
  <course>303.57</course>
  <speed>22.014199962751313</speed>
  <fix>3d</fix>
</trkpt>
<trkpt lat="-27.2739416" lon="151.2898138">
  <ele>395.99</ele>
  <time>2026-09-01T19:54:25Z</time>
  <course>307.55</course>
  <speed>21.58</speed>
  <fix>3d</fix>
</trkpt>
<trkpt lat="-27.2738997" lon="151.2897418">
  <ele>396.23</ele>
  <time>2026-09-01T19:54:25Z</time>
  <course>301.68</course>
  <speed>22.15545982370937</speed>
  <fix>3d</fix>
</trkpt>
<trkpt lat="-27.2739189" lon="151.2897781">
  <ele>396.15</ele>
  <time>2026-09-01T19:54:25Z</time>
  <course>303.41</course>
  <speed>21.89</speed>
  <fix>3d</fix>
</trkpt>
<trkpt lat="-27.2738901" lon="151.289722">
  <ele>396.33</ele>
  <time>2026-09-01T19:54:25Z</time>
  <course>299.84</course>
  <speed>22.287245231297653</speed>
  <fix>3d</fix>
</trkpt>
<trkpt lat="-27.2739189" lon="151.2897781">
  <ele>396.15</ele>
  <time>2026-09-01T19:54:25Z</time>
  <course>303.41</course>
  <speed>21.89</speed>
  <fix>3d</fix>
</trkpt>
<trkpt lat="-27.2738811" lon="151.2897018">
  <ele>396.43</ele>
  <time>2026-09-01T19:54:25Z</time>
  <course>298.07</course>
  <speed>22.413328623834524</speed>
  <fix>3d</fix>
</trkpt>
<trkpt lat="-27.2738983" lon="151.2897401">
  <ele>396.33</ele>
  <time>2026-09-01T19:54:25Z</time>
  <course>299.39</course>
  <speed>22.16</speed>
  <fix>3d</fix>
</trkpt>
<trkpt lat="-27.2738726" lon="151.2896811">
  <ele>396.53</ele>
  <time>2026-09-01T19:54:25Z</time>
  <course>296.33</course>
  <speed>22.526635345741273</speed>
  <fix>3d</fix>
</trkpt>
<trkpt lat="-27.2738983" lon="151.2897401">
  <ele>396.33</ele>
  <time>2026-09-01T19:54:25Z</time>
  <course>299.39</course>
  <speed>22.16</speed>
  <fix>3d</fix>
</trkpt>
<trkpt lat="-27.2738647" lon="151.2896601">
  <ele>396.64</ele>
  <time>2026-09-01T19:54:25Z</time>
  <course>294.61</course>
  <speed>22.62898141764229</speed>
  <fix>3d</fix>
</trkpt>
<trkpt lat="-27.2738799" lon="151.2897001">
  <ele>396.53</ele>
  <time>2026-09-01T19:54:25Z</time>
  <course>295.55</course>
  <speed>22.41</speed>
  <fix>3d</fix>
</trkpt>
<trkpt lat="-27.2738572" lon="151.2896387">
  <ele>396.75</ele>
  <time>2026-09-01T19:54:25Z</time>
  <course>293.03</course>
  <speed>22.72721056355135</speed>
  <fix>3d</fix>
</trkpt>
<trkpt lat="-27.2738799" lon="151.2897001">
  <ele>396.53</ele>
  <time>2026-09-01T19:54:25Z</time>
  <course>295.55</course>
  <speed>22.41</speed>
  <fix>3d</fix>
</trkpt>
<trkpt lat="-27.2738504" lon="151.2896171">
  <ele>396.86</ele>
  <time>2026-09-01T19:54:25Z</time>
  <course>291.54</course>
  <speed>22.822526152904285</speed>
  <fix>3d</fix>
</trkpt>
<trkpt lat="-27.2738636" lon="151.2896584">
  <ele>396.74</ele>
  <time>2026-09-01T19:54:25Z</time>
  <course>291.97</course>
  <speed>22.63</speed>
  <fix>3d</fix>
</trkpt>
<trkpt lat="-27.273844" lon="151.2895952">
  <ele>396.97</ele>
  <time>2026-09-01T19:54:25Z</time>
  <course>290.08</course>
  <speed>22.899803492606658</speed>
  <fix>3d</fix>
</trkpt>
<trkpt lat="-27.2738636" lon="151.2896584">
  <ele>396.74</ele>
  <time>2026-09-01T19:54:25Z</time>
  <course>291.97</course>
  <speed>22.63</speed>
  <fix>3d</fix>
</trkpt>
<trkpt lat="-27.2738381" lon="151.2895732">
  <ele>397.08</ele>
  <time>2026-09-01T19:54:25Z</time>
  <course>288.63</course>
  <speed>22.962600027000427</speed>
  <fix>3d</fix>
</trkpt>
<trkpt lat="-27.2738494" lon="151.2896153">
  <ele>396.96</ele>
  <time>2026-09-01T19:54:25Z</time>
  <course>288.69</course>
  <speed>22.81</speed>
  <fix>3d</fix>
</trkpt>
<trkpt lat="-27.2738327" lon="151.2895509">
  <ele>397.2</ele>
  <time>2026-09-01T19:54:25Z</time>
  <course>287.29</course>
  <speed>23.022200155502077</speed>
  <fix>3d</fix>
</trkpt>
<trkpt lat="-27.2738494" lon="151.2896153">
  <ele>396.96</ele>
  <time>2026-09-01T19:54:25Z</time>
  <course>288.69</course>
  <speed>22.81</speed>
  <fix>3d</fix>
</trkpt>
<trkpt lat="-27.2738277" lon="151.2895284">
  <ele>397.31</ele>
  <time>2026-09-01T19:54:25Z</time>
  <course>286.08</course>
  <speed>23.082012477251634</speed>
  <fix>3d</fix>
</trkpt>
<trkpt lat="-27.2738372" lon="151.289571">
  <ele>397.18</ele>
  <time>2026-09-01T19:54:25Z</time>
  <course>285.72</course>
  <speed>22.97</speed>
  <fix>3d</fix>
</trkpt>
<trkpt lat="-27.2738232" lon="151.2895057">
  <ele>397.43</ele>
  <time>2026-09-01T19:54:25Z</time>
  <course>284.84</course>
  <speed>23.137616558323376</speed>
  <fix>3d</fix>
</trkpt>
<trkpt lat="-27.2738372" lon="151.289571">
  <ele>397.18</ele>
  <time>2026-09-01T19:54:25Z</time>
  <course>285.72</course>
  <speed>22.97</speed>
  <fix>3d</fix>
</trkpt>
<trkpt lat="-27.273819" lon="151.2894829">
  <ele>397.55</ele>
  <time>2026-09-01T19:54:25Z</time>
  <course>283.71</course>
  <speed>23.181406342152755</speed>
  <fix>3d</fix>
</trkpt>
<trkpt lat="-27.273827" lon="151.2895259">
  <ele>397.41</ele>
  <time>2026-09-01T19:54:25Z</time>
  <course>283.08</course>
  <speed>23.11</speed>
  <fix>3d</fix>
</trkpt>
<trkpt lat="-27.2738153" lon="151.2894599">
  <ele>397.67</ele>
  <time>2026-09-01T19:54:25Z</time>
  <course>282.62</course>
  <speed>23.235150096351862</speed>
  <fix>3d</fix>
</trkpt>
<trkpt lat="-27.273827" lon="151.2895259">
  <ele>397.41</ele>
  <time>2026-09-01T19:54:25Z</time>
  <course>283.08</course>
  <speed>23.11</speed>
  <fix>3d</fix>
</trkpt>
<trkpt lat="-27.2738118" lon="151.2894368">
  <ele>397.78</ele>
  <time>2026-09-01T19:54:25Z</time>
  <course>281.53</course>
  <speed>23.27170384823595</speed>
  <fix>3d</fix>
</trkpt>
<trkpt lat="-27.2738184" lon="151.2894801">
  <ele>397.65</ele>
  <time>2026-09-01T19:54:25Z</time>
  <course>280.76</course>
  <speed>23.22</speed>
  <fix>3d</fix>
</trkpt>
<trkpt lat="-27.2738088" lon="151.2894136">
  <ele>397.9</ele>
  <time>2026-09-01T19:54:25Z</time>
  <course>280.58</course>
  <speed>23.307700444273777</speed>
  <fix>3d</fix>
</trkpt>
<trkpt lat="-27.2738184" lon="151.2894801">
  <ele>397.65</ele>
  <time>2026-09-01T19:54:25Z</time>
  <course>280.76</course>
  <speed>23.22</speed>
  <fix>3d</fix>
</trkpt>
<trkpt lat="-27.273806" lon="151.2893903">
  <ele>398.02</ele>
  <time>2026-09-01T19:54:25Z</time>
  <course>279.65</course>
  <speed>23.342101447813135</speed>
  <fix>3d</fix>
</trkpt>
<trkpt lat="-27.2738114" lon="151.2894337">
  <ele>397.88</ele>
  <time>2026-09-01T19:54:25Z</time>
  <course>278.71</course>
  <speed>23.32</speed>
  <fix>3d</fix>
</trkpt>
<trkpt lat="-27.2738035" lon="151.2893671">
  <ele>398.14</ele>
  <time>2026-09-01T19:54:25Z</time>
  <course>278.78</course>
  <speed>23.375048663050947</speed>
  <fix>3d</fix>
</trkpt>
<trkpt lat="-27.2738114" lon="151.2894337">
  <ele>397.88</ele>
  <time>2026-09-01T19:54:25Z</time>
  <course>278.71</course>
  <speed>23.32</speed>
  <fix>3d</fix>
</trkpt>
<trkpt lat="-27.2738014" lon="151.2893437">
  <ele>398.27</ele>
  <time>2026-09-01T19:54:25Z</time>
  <course>278.01</course>
  <speed>23.404277386836792</speed>
  <fix>3d</fix>
</trkpt>
<trkpt lat="-27.2738056" lon="151.2893869">
  <ele>398.12</ele>
  <time>2026-09-01T19:54:25Z</time>
  <course>276.94</course>
  <speed>23.4</speed>
  <fix>3d</fix>
</trkpt>
<trkpt lat="-27.2737994" lon="151.2893201">
  <ele>398.39</ele>
  <time>2026-09-01T19:54:26Z</time>
  <course>277.3</course>
  <speed>23.428982052150708</speed>
  <fix>3d</fix>
</trkpt>
<trkpt lat="-27.2738056" lon="151.2893869">
  <ele>398.12</ele>
  <time>2026-09-01T19:54:26Z</time>
  <course>276.94</course>
  <speed>23.4</speed>
  <fix>3d</fix>
</trkpt>
<trkpt lat="-27.2737977" lon="151.2892965">
  <ele>398.52</ele>
  <time>2026-09-01T19:54:26Z</time>
  <course>276.63</course>
  <speed>23.449957356037984</speed>
  <fix>3d</fix>
</trkpt>
<trkpt lat="-27.2738012" lon="151.2893398">
  <ele>398.36</ele>
  <time>2026-09-01T19:54:26Z</time>
  <course>275.41</course>
  <speed>23.46</speed>
  <fix>3d</fix>
</trkpt>
<trkpt lat="-27.2737962" lon="151.2892727">
  <ele>398.65</ele>
  <time>2026-09-01T19:54:26Z</time>
  <course>275.99</course>
  <speed>23.473911050355454</speed>
  <fix>3d</fix>
</trkpt>
<trkpt lat="-27.2738012" lon="151.2893398">
  <ele>398.36</ele>
  <time>2026-09-01T19:54:26Z</time>
  <course>275.41</course>
  <speed>23.46</speed>
  <fix>3d</fix>
</trkpt>
<trkpt lat="-27.2737949" lon="151.289249">
  <ele>398.78</ele>
  <time>2026-09-01T19:54:26Z</time>
  <course>275.36</course>
  <speed>23.490570448586386</speed>
  <fix>3d</fix>
</trkpt>
<trkpt lat="-27.2737977" lon="151.2892926">
  <ele>398.61</ele>
  <time>2026-09-01T19:54:26Z</time>
  <course>274.14</course>
  <speed>23.52</speed>
  <fix>3d</fix>
</trkpt>
<trkpt lat="-27.2737938" lon="151.2892253">
  <ele>398.91</ele>
  <time>2026-09-01T19:54:26Z</time>
  <course>274.75</course>
  <speed>23.52063136907681</speed>
  <fix>3d</fix>
</trkpt>
<trkpt lat="-27.2737977" lon="151.2892926">
  <ele>398.61</ele>
  <time>2026-09-01T19:54:26Z</time>
  <course>274.14</course>
  <speed>23.52</speed>
  <fix>3d</fix>
</trkpt>
<trkpt lat="-27.2737928" lon="151.2892013">
  <ele>399.05</ele>
  <time>2026-09-01T19:54:26Z</time>
  <course>274.27</course>
  <speed>23.53299173500896</speed>
  <fix>3d</fix>
</trkpt>
<trkpt lat="-27.273795" lon="151.2892451">
  <ele>398.87</ele>
  <time>2026-09-01T19:54:26Z</time>
  <course>273.1</course>
  <speed>23.57</speed>
  <fix>3d</fix>
</trkpt>
<trkpt lat="-27.273792" lon="151.2891775">
  <ele>399.19</ele>
  <time>2026-09-01T19:54:26Z</time>
  <course>273.77</course>
  <speed>23.55681854580537</speed>
  <fix>3d</fix>
</trkpt>
<trkpt lat="-27.273795" lon="151.2892451">
  <ele>398.87</ele>
  <time>2026-09-01T19:54:26Z</time>
  <course>273.1</course>
  <speed>23.57</speed>
  <fix>3d</fix>
</trkpt>
<trkpt lat="-27.2737913" lon="151.2891537">
  <ele>399.33</ele>
  <time>2026-09-01T19:54:26Z</time>
  <course>273.36</course>
  <speed>23.57193458331327</speed>
  <fix>3d</fix>
</trkpt>
<trkpt lat="-27.273793" lon="151.2891975">
  <ele>399.13</ele>
  <time>2026-09-01T19:54:26Z</time>
  <course>272.25</course>
  <speed>23.61</speed>
  <fix>3d</fix>
</trkpt>
<trkpt lat="-27.2737907" lon="151.2891299">
  <ele>399.47</ele>
  <time>2026-09-01T19:54:26Z</time>
  <course>273.03</course>
  <speed>23.598680047833184</speed>
  <fix>3d</fix>
</trkpt>
<trkpt lat="-27.273793" lon="151.2891975">
  <ele>399.13</ele>
  <time>2026-09-01T19:54:26Z</time>
  <course>272.25</course>
  <speed>23.61</speed>
  <fix>3d</fix>
</trkpt>
<trkpt lat="-27.2737903" lon="151.289106">
  <ele>399.61</ele>
  <time>2026-09-01T19:54:26Z</time>
  <course>272.71</course>
  <speed>23.61617454203792</speed>
  <fix>3d</fix>
</trkpt>
<trkpt lat="-27.2737916" lon="151.2891498">
  <ele>399.4</ele>
  <time>2026-09-01T19:54:26Z</time>
  <course>271.57</course>
  <speed>23.65</speed>
  <fix>3d</fix>
</trkpt>
<trkpt lat="-27.2737899" lon="151.2890821">
  <ele>399.76</ele>
  <time>2026-09-01T19:54:26Z</time>
  <course>272.37</course>
  <speed>23.62447883023031</speed>
  <fix>3d</fix>
</trkpt>
<trkpt lat="-27.2737916" lon="151.2891498">
  <ele>399.4</ele>
  <time>2026-09-01T19:54:26Z</time>
  <course>271.57</course>
  <speed>23.65</speed>
  <fix>3d</fix>
</trkpt>
<trkpt lat="-27.2737896" lon="151.2890581">
  <ele>399.91</ele>
  <time>2026-09-01T19:54:26Z</time>
  <course>272.15</course>
  <speed>23.653052657109612</speed>
  <fix>3d</fix>
</trkpt>
<trkpt lat="-27.2737907" lon="151.2891018">
  <ele>399.68</ele>
  <time>2026-09-01T19:54:26Z</time>
  <course>271.05</course>
  <speed>23.68</speed>
  <fix>3d</fix>
</trkpt>
<trkpt lat="-27.2737893" lon="151.2890341">
  <ele>400.05</ele>
  <time>2026-09-01T19:54:26Z</time>
  <course>271.91</course>
  <speed>23.662163890903976</speed>
  <fix>3d</fix>
</trkpt>
<trkpt lat="-27.2737907" lon="151.2891018">
  <ele>399.68</ele>
  <time>2026-09-01T19:54:26Z</time>
  <course>271.05</course>
  <speed>23.68</speed>
  <fix>3d</fix>
</trkpt>
<trkpt lat="-27.2737891" lon="151.2890101">
  <ele>400.2</ele>
  <time>2026-09-01T19:54:26Z</time>
  <course>271.66</course>
  <speed>23.681539223623112</speed>
  <fix>3d</fix>
</trkpt>
<trkpt lat="-27.27379" lon="151.2890538">
  <ele>399.97</ele>
  <time>2026-09-01T19:54:26Z</time>
  <course>270.67</course>
  <speed>23.72</speed>
  <fix>3d</fix>
</trkpt>
<trkpt lat="-27.273789" lon="151.2889861">
  <ele>400.36</ele>
  <time>2026-09-01T19:54:26Z</time>
  <course>271.44</course>
  <speed>23.691116478545286</speed>
  <fix>3d</fix>
</trkpt>
<trkpt lat="-27.27379" lon="151.2890538">
  <ele>399.97</ele>
  <time>2026-09-01T19:54:26Z</time>
  <course>270.67</course>
  <speed>23.72</speed>
  <fix>3d</fix>
</trkpt>
<trkpt lat="-27.2737888" lon="151.288962">
  <ele>400.51</ele>
  <time>2026-09-01T19:54:26Z</time>
  <course>271.27</course>
  <speed>23.710843510933977</speed>
  <fix>3d</fix>
</trkpt>
<trkpt lat="-27.2737896" lon="151.2890059">
  <ele>400.27</ele>
  <time>2026-09-01T19:54:26Z</time>
  <course>270.42</course>
  <speed>23.74</speed>
  <fix>3d</fix>
</trkpt>
<trkpt lat="-27.2737887" lon="151.2889379">
  <ele>400.67</ele>
  <time>2026-09-01T19:54:26Z</time>
  <course>271.17</course>
  <speed>23.73060892602632</speed>
  <fix>3d</fix>
</trkpt>
<trkpt lat="-27.2737896" lon="151.2890059">
  <ele>400.27</ele>
  <time>2026-09-01T19:54:26Z</time>
  <course>270.42</course>
  <speed>23.74</speed>
  <fix>3d</fix>
</trkpt>
<trkpt lat="-27.2737887" lon="151.2889138">
  <ele>400.83</ele>
  <time>2026-09-01T19:54:26Z</time>
  <course>271.18</course>
  <speed>23.75053894125352</speed>
  <fix>3d</fix>
</trkpt>
<trkpt lat="-27.2737894" lon="151.2889578">
  <ele>400.58</ele>
  <time>2026-09-01T19:54:26Z</time>
  <course>270.26</course>
  <speed>23.77</speed>
  <fix>3d</fix>
</trkpt>
<trkpt lat="-27.2737886" lon="151.2888899">
  <ele>400.97</ele>
  <time>2026-09-01T19:54:26Z</time>
  <course>271.04</course>
  <speed>23.770538487800394</speed>
  <fix>3d</fix>
</trkpt>
<trkpt lat="-27.2737894" lon="151.2889578">
  <ele>400.58</ele>
  <time>2026-09-01T19:54:26Z</time>
  <course>270.26</course>
  <speed>23.77</speed>
  <fix>3d</fix>
</trkpt>
<trkpt lat="-27.2737885" lon="151.2888658">
  <ele>401.08</ele>
  <time>2026-09-01T19:54:26Z</time>
  <course>270.92</course>
  <speed>23.800680662535683</speed>
  <fix>3d</fix>
</trkpt>
<trkpt lat="-27.2737891" lon="151.2889098">
  <ele>400.89</ele>
  <time>2026-09-01T19:54:26Z</time>
  <course>270.19</course>
  <speed>23.8</speed>
  <fix>3d</fix>
</trkpt>
<trkpt lat="-27.2737884" lon="151.2888417">
  <ele>401.18</ele>
  <time>2026-09-01T19:54:26Z</time>
  <course>270.85</course>
  <speed>23.830839263441813</speed>
  <fix>3d</fix>
</trkpt>
<trkpt lat="-27.2737891" lon="151.2889098">
  <ele>400.89</ele>
  <time>2026-09-01T19:54:26Z</time>
  <course>270.19</course>
  <speed>23.8</speed>
  <fix>3d</fix>
</trkpt>
<trkpt lat="-27.2737883" lon="151.2888175">
  <ele>401.26</ele>
  <time>2026-09-01T19:54:26Z</time>
  <course>270.81</course>
  <speed>23.871108059744525</speed>
  <fix>3d</fix>
</trkpt>
<trkpt lat="-27.273789" lon="151.2888616">
  <ele>401.14</ele>
  <time>2026-09-01T19:54:26Z</time>
  <course>270.24</course>
  <speed>23.85</speed>
  <fix>3d</fix>
</trkpt>
<trkpt lat="-27.2737881" lon="151.2887933">
  <ele>401.32</ele>
  <time>2026-09-01T19:54:26Z</time>
  <course>270.83</course>
  <speed>23.911413592675782</speed>
  <fix>3d</fix>
</trkpt>
<trkpt lat="-27.273789" lon="151.2888616">
  <ele>401.14</ele>
  <time>2026-09-01T19:54:26Z</time>
  <course>270.24</course>
  <speed>23.85</speed>
  <fix>3d</fix>
</trkpt>
<trkpt lat="-27.273788" lon="151.2887688">
  <ele>401.37</ele>
  <time>2026-09-01T19:54:26Z</time>
  <course>270.81</course>
  <speed>23.961636004246458</speed>
  <fix>3d</fix>
</trkpt>
<trkpt lat="-27.2737888" lon="151.2888134">
  <ele>401.32</ele>
  <time>2026-09-01T19:54:26Z</time>
  <course>270.38</course>
  <speed>23.92</speed>
  <fix>3d</fix>
</trkpt>
<trkpt lat="-27.2737878" lon="151.2887445">
  <ele>401.41</ele>
  <time>2026-09-01T19:54:26Z</time>
  <course>270.82</course>
  <speed>24.01187414593038</speed>
  <fix>3d</fix>
</trkpt>
<trkpt lat="-27.2737888" lon="151.2888134">
  <ele>401.32</ele>
  <time>2026-09-01T19:54:26Z</time>
  <course>270.38</course>
  <speed>23.92</speed>
  <fix>3d</fix>
</trkpt>
<trkpt lat="-27.2737876" lon="151.2887202">
  <ele>401.42</ele>
  <time>2026-09-01T19:54:26Z</time>
  <course>270.9</course>
  <speed>24.08212615198251</speed>
  <fix>3d</fix>
</trkpt>
<trkpt lat="-27.2737885" lon="151.288765">
  <ele>401.44</ele>
  <time>2026-09-01T19:54:26Z</time>
  <course>270.53</course>
  <speed>24.0</speed>
  <fix>3d</fix>
</trkpt>
<trkpt lat="-27.2737873" lon="151.2886958">
  <ele>401.41</ele>
  <time>2026-09-01T19:54:26Z</time>
  <course>271.01</course>
  <speed>24.142394247464352</speed>
  <fix>3d</fix>
</trkpt>
<trkpt lat="-27.2737885" lon="151.288765">
  <ele>401.44</ele>
  <time>2026-09-01T19:54:26Z</time>
  <course>270.53</course>
  <speed>24.0</speed>
  <fix>3d</fix>
</trkpt>
<trkpt lat="-27.2737871" lon="151.2886713">
  <ele>401.39</ele>
  <time>2026-09-01T19:54:26Z</time>
  <course>271.04</course>
  <speed>24.222675327056674</speed>
  <fix>3d</fix>
</trkpt>
<trkpt lat="-27.273788" lon="151.2887164">
  <ele>401.48</ele>
  <time>2026-09-01T19:54:26Z</time>
  <course>270.64</course>
  <speed>24.12</speed>
  <fix>3d</fix>
</trkpt>
<trkpt lat="-27.2737868" lon="151.2886467">
  <ele>401.35</ele>
  <time>2026-09-01T19:54:26Z</time>
  <course>271.08</course>
  <speed>24.30297101179195</speed>
  <fix>3d</fix>
</trkpt>
<trkpt lat="-27.273788" lon="151.2887164">
  <ele>401.48</ele>
  <time>2026-09-01T19:54:26Z</time>
  <course>270.64</course>
  <speed>24.12</speed>
  <fix>3d</fix>
</trkpt>
<trkpt lat="-27.2737865" lon="151.288622">
  <ele>401.3</ele>
  <time>2026-09-01T19:54:26Z</time>
  <course>271.14</course>
  <speed>24.39344584104509</speed>
  <fix>3d</fix>
</trkpt>
<trkpt lat="-27.2737875" lon="151.2886674">
  <ele>401.45</ele>
  <time>2026-09-01T19:54:26Z</time>
  <course>270.75</course>
  <speed>24.26</speed>
  <fix>3d</fix>
</trkpt>
<trkpt lat="-27.2737862" lon="151.2885973">
  <ele>401.25</ele>
  <time>2026-09-01T19:54:26Z</time>
  <course>271.19</course>
  <speed>24.4837762610264</speed>
  <fix>3d</fix>
</trkpt>
<trkpt lat="-27.2737875" lon="151.2886674">
  <ele>401.45</ele>
  <time>2026-09-01T19:54:26Z</time>
  <course>270.75</course>
  <speed>24.26</speed>
  <fix>3d</fix>
</trkpt>
<trkpt lat="-27.2737858" lon="151.2885724">
  <ele>401.19</ele>
  <time>2026-09-01T19:54:26Z</time>
  <course>271.29</course>
  <speed>24.584303935641536</speed>
  <fix>3d</fix>
</trkpt>
<trkpt lat="-27.2737869" lon="151.2886182">
  <ele>401.36</ele>
  <time>2026-09-01T19:54:26Z</time>
  <course>270.86</course>
  <speed>24.43</speed>
  <fix>3d</fix>
</trkpt>
<trkpt lat="-27.2737854" lon="151.2885475">
  <ele>401.13</ele>
  <time>2026-09-01T19:54:26Z</time>
  <course>271.36</course>
  <speed>24.684667305839877</speed>
  <fix>3d</fix>
</trkpt>
<trkpt lat="-27.2737869" lon="151.2886182">
  <ele>401.36</ele>
  <time>2026-09-01T19:54:26Z</time>
  <course>270.86</course>
  <speed>24.43</speed>
  <fix>3d</fix>
</trkpt>
<trkpt lat="-27.273785" lon="151.2885222">
  <ele>401.07</ele>
  <time>2026-09-01T19:54:26Z</time>
  <course>271.44</course>
  <speed>24.78524762837765</speed>
  <fix>3d</fix>
</trkpt>
<trkpt lat="-27.2737861" lon="151.2885686">
  <ele>401.25</ele>
  <time>2026-09-01T19:54:26Z</time>
  <course>270.98</course>
  <speed>24.61</speed>
  <fix>3d</fix>
</trkpt>
<trkpt lat="-27.2737846" lon="151.2884971">
  <ele>401.01</ele>
  <time>2026-09-01T19:54:26Z</time>
  <course>271.61</course>
  <speed>24.895857085065376</speed>
  <fix>3d</fix>
</trkpt>
<trkpt lat="-27.2737861" lon="151.2885686">
  <ele>401.25</ele>
  <time>2026-09-01T19:54:26Z</time>
  <course>270.98</course>
  <speed>24.61</speed>
  <fix>3d</fix>
</trkpt>
<trkpt lat="-27.2737841" lon="151.2884719">
  <ele>400.97</ele>
  <time>2026-09-01T19:54:26Z</time>
  <course>271.67</course>
  <speed>24.996729786114024</speed>
  <fix>3d</fix>
</trkpt>
<trkpt lat="-27.2737853" lon="151.2885186">
  <ele>401.14</ele>
  <time>2026-09-01T19:54:26Z</time>
  <course>271.12</course>
  <speed>24.82</speed>
  <fix>3d</fix>
</trkpt>
<trkpt lat="-27.2737836" lon="151.2884465">
  <ele>400.93</ele>
  <time>2026-09-01T19:54:26Z</time>
  <course>271.72</course>
  <speed>25.09765925340449</speed>
  <fix>3d</fix>
</trkpt>
<trkpt lat="-27.2737853" lon="151.2885186">
  <ele>401.14</ele>
  <time>2026-09-01T19:54:26Z</time>
  <course>271.12</course>
  <speed>24.82</speed>
  <fix>3d</fix>
</trkpt>
<trkpt lat="-27.2737831" lon="151.2884211">
  <ele>400.9</ele>
  <time>2026-09-01T19:54:26Z</time>
  <course>271.8</course>
  <speed>25.208641375528355</speed>
  <fix>3d</fix>
</trkpt>
<trkpt lat="-27.2737843" lon="151.2884682">
  <ele>401.05</ele>
  <time>2026-09-01T19:54:26Z</time>
  <course>271.27</course>
  <speed>25.02</speed>
  <fix>3d</fix>
</trkpt>
<trkpt lat="-27.2737825" lon="151.2883956">
  <ele>400.88</ele>
  <time>2026-09-01T19:54:26Z</time>
  <course>271.83</course>
  <speed>25.309681941897257</speed>
  <fix>3d</fix>
</trkpt>
<trkpt lat="-27.2737843" lon="151.2884682">
  <ele>401.05</ele>
  <time>2026-09-01T19:54:26Z</time>
  <course>271.27</course>
  <speed>25.02</speed>
  <fix>3d</fix>
</trkpt>
<trkpt lat="-27.2737819" lon="151.2883701">
  <ele>400.87</ele>
  <time>2026-09-01T19:54:26Z</time>
  <course>271.9</course>
  <speed>25.410487992165756</speed>
  <fix>3d</fix>
</trkpt>
<trkpt lat="-27.2737833" lon="151.2884174">
  <ele>400.99</ele>
  <time>2026-09-01T19:54:26Z</time>
  <course>271.44</course>
  <speed>25.23</speed>
  <fix>3d</fix>
</trkpt>
<trkpt lat="-27.2737813" lon="151.2883444">
  <ele>400.88</ele>
  <time>2026-09-01T19:54:26Z</time>
  <course>272.03</course>
  <speed>25.501327416430698</speed>
  <fix>3d</fix>
</trkpt>
<trkpt lat="-27.2737833" lon="151.2884174">
  <ele>400.99</ele>
  <time>2026-09-01T19:54:26Z</time>
  <course>271.44</course>
  <speed>25.23</speed>
  <fix>3d</fix>
</trkpt>
<trkpt lat="-27.2737806" lon="151.2883186">
  <ele>400.91</ele>
  <time>2026-09-01T19:54:26Z</time>
  <course>272.1</course>
  <speed>25.58220084355527</speed>
  <fix>3d</fix>
</trkpt>
<trkpt lat="-27.2737821" lon="151.2883663">
  <ele>400.97</ele>
  <time>2026-09-01T19:54:26Z</time>
  <course>271.6</course>
  <speed>25.43</speed>
  <fix>3d</fix>
</trkpt>
<trkpt lat="-27.2737799" lon="151.2882927">
  <ele>400.95</ele>
  <time>2026-09-01T19:54:26Z</time>
  <course>272.17</course>
  <speed>25.67309876115464</speed>
  <fix>3d</fix>
</trkpt>
<trkpt lat="-27.2737821" lon="151.2883663">
  <ele>400.97</ele>
  <time>2026-09-01T19:54:26Z</time>
  <course>271.6</course>
  <speed>25.43</speed>
  <fix>3d</fix>
</trkpt>
<trkpt lat="-27.2737792" lon="151.2882665">
  <ele>401.0</ele>
  <time>2026-09-01T19:54:26Z</time>
  <course>272.17</course>
  <speed>25.74370796913296</speed>
  <fix>3d</fix>
</trkpt>
<trkpt lat="-27.2737808" lon="151.2883147">
  <ele>401.01</ele>
  <time>2026-09-01T19:54:26Z</time>
  <course>271.74</course>
  <speed>25.62</speed>
  <fix>3d</fix>
</trkpt>
<trkpt lat="-27.2737784" lon="151.2882404">
  <ele>401.06</ele>
  <time>2026-09-01T19:54:26Z</time>
  <course>272.25</course>
  <speed>25.824658758636097</speed>
  <fix>3d</fix>
</trkpt>
<trkpt lat="-27.2737808" lon="151.2883147">
  <ele>401.01</ele>
  <time>2026-09-01T19:54:26Z</time>
  <course>271.74</course>
  <speed>25.62</speed>
  <fix>3d</fix>
</trkpt>
<trkpt lat="-27.2737777" lon="151.2882143">
  <ele>401.14</ele>
  <time>2026-09-01T19:54:26Z</time>
  <course>272.33</course>
  <speed>25.895298801133766</speed>
  <fix>3d</fix>
</trkpt>
<trkpt lat="-27.2737793" lon="151.2882628">
  <ele>401.1</ele>
  <time>2026-09-01T19:54:26Z</time>
  <course>271.85</course>
  <speed>25.78</speed>
  <fix>3d</fix>
</trkpt>
<trkpt lat="-27.2737769" lon="151.2881881">
  <ele>401.23</ele>
  <time>2026-09-01T19:54:26Z</time>
  <course>272.36</course>
  <speed>25.955956927071675</speed>
  <fix>3d</fix>
</trkpt>
<trkpt lat="-27.2737793" lon="151.2882628">
  <ele>401.1</ele>
  <time>2026-09-01T19:54:26Z</time>
  <course>271.85</course>
  <speed>25.78</speed>
  <fix>3d</fix>
</trkpt>
<trkpt lat="-27.2737761" lon="151.2881618">
  <ele>401.34</ele>
  <time>2026-09-01T19:54:26Z</time>
  <course>272.44</course>
  <speed>26.006633769098222</speed>
  <fix>3d</fix>
</trkpt>
<trkpt lat="-27.2737778" lon="151.2882106">
  <ele>401.25</ele>
  <time>2026-09-01T19:54:26Z</time>
  <course>271.94</course>
  <speed>25.92</speed>
  <fix>3d</fix>
</trkpt>
<trkpt lat="-27.2737753" lon="151.2881355">
  <ele>401.46</ele>
  <time>2026-09-01T19:54:26Z</time>
  <course>272.53</course>
  <speed>26.0676830577633</speed>
  <fix>3d</fix>
</trkpt>
<trkpt lat="-27.2737778" lon="151.2882106">
  <ele>401.25</ele>
  <time>2026-09-01T19:54:26Z</time>
  <course>271.94</course>
  <speed>25.92</speed>
  <fix>3d</fix>
</trkpt>
<trkpt lat="-27.2737744" lon="151.2881091">
  <ele>401.59</ele>
  <time>2026-09-01T19:54:26Z</time>
  <course>272.53</course>
  <speed>26.118391987256796</speed>
  <fix>3d</fix>
</trkpt>
<trkpt lat="-27.2737761" lon="151.2881582">
  <ele>401.45</ele>
  <time>2026-09-01T19:54:26Z</time>
  <course>272.04</course>
  <speed>26.04</speed>
  <fix>3d</fix>
</trkpt>
<trkpt lat="-27.2737735" lon="151.2880827">
  <ele>401.73</ele>
  <time>2026-09-01T19:54:26Z</time>
  <course>272.6</course>
  <speed>26.158740413100933</speed>
  <fix>3d</fix>
</trkpt>
<trkpt lat="-27.2737761" lon="151.2881582">
  <ele>401.45</ele>
  <time>2026-09-01T19:54:26Z</time>
  <course>272.04</course>
  <speed>26.04</speed>
  <fix>3d</fix>
</trkpt>
<trkpt lat="-27.2737726" lon="151.2880562">
  <ele>401.88</ele>
  <time>2026-09-01T19:54:26Z</time>
  <course>272.67</course>
  <speed>26.19986259505954</speed>
  <fix>3d</fix>
</trkpt>
<trkpt lat="-27.2737744" lon="151.2881055">
  <ele>401.7</ele>
  <time>2026-09-01T19:54:26Z</time>
  <course>272.13</course>
  <speed>26.14</speed>
  <fix>3d</fix>
</trkpt>
<trkpt lat="-27.2737717" lon="151.2880298">
  <ele>402.04</ele>
  <time>2026-09-01T19:54:26Z</time>
  <course>272.69</course>
  <speed>26.240617370786076</speed>
  <fix>3d</fix>
</trkpt>
<trkpt lat="-27.2737744" lon="151.2881055">
  <ele>401.7</ele>
  <time>2026-09-01T19:54:26Z</time>
  <course>272.13</course>
  <speed>26.14</speed>
  <fix>3d</fix>
</trkpt>
<trkpt lat="-27.2737708" lon="151.2880032">
  <ele>402.21</ele>
  <time>2026-09-01T19:54:26Z</time>
  <course>272.64</course>
  <speed>26.2713931872674</speed>
  <fix>3d</fix>
</trkpt>
<trkpt lat="-27.2737726" lon="151.2880525">
  <ele>401.99</ele>
  <time>2026-09-01T19:54:26Z</time>
  <course>272.22</course>
  <speed>26.23</speed>
  <fix>3d</fix>
</trkpt>
<trkpt lat="-27.2737698" lon="151.2879766">
  <ele>402.38</ele>
  <time>2026-09-01T19:54:26Z</time>
  <course>272.66</course>
  <speed>26.291781986012282</speed>
  <fix>3d</fix>
</trkpt>
<trkpt lat="-27.2737726" lon="151.2880525">
  <ele>401.99</ele>
  <time>2026-09-01T19:54:26Z</time>
  <course>272.22</course>
  <speed>26.23</speed>
  <fix>3d</fix>
</trkpt>
<trkpt lat="-27.2737689" lon="151.28795">
  <ele>402.57</ele>
  <time>2026-09-01T19:54:26Z</time>
  <course>272.76</course>
  <speed>26.32216556440598</speed>
  <fix>3d</fix>
</trkpt>
<trkpt lat="-27.2737707" lon="151.2879993">
  <ele>402.32</ele>
  <time>2026-09-01T19:54:26Z</time>
  <course>272.3</course>
  <speed>26.3</speed>
  <fix>3d</fix>
</trkpt>
<trkpt lat="-27.2737679" lon="151.2879234">
  <ele>402.77</ele>
  <time>2026-09-01T19:54:26Z</time>
  <course>272.82</course>
  <speed>26.34297629350184</speed>
  <fix>3d</fix>
</trkpt>
<trkpt lat="-27.2737707" lon="151.2879993">
  <ele>402.32</ele>
  <time>2026-09-01T19:54:26Z</time>
  <course>272.3</course>
  <speed>26.3</speed>
  <fix>3d</fix>
</trkpt>
<trkpt lat="-27.2737669" lon="151.2878968">
  <ele>402.97</ele>
  <time>2026-09-01T19:54:26Z</time>
  <course>272.75</course>
  <speed>26.36337800813849</speed>
  <fix>3d</fix>
</trkpt>
<trkpt lat="-27.2737688" lon="151.2879461">
  <ele>402.68</ele>
  <time>2026-09-01T19:54:26Z</time>
  <course>272.37</course>
  <speed>26.35</speed>
  <fix>3d</fix>
</trkpt>
<trkpt lat="-27.2737659" lon="151.2878701">
  <ele>403.17</ele>
  <time>2026-09-01T19:54:26Z</time>
  <course>272.8</course>
  <speed>26.373369143892102</speed>
  <fix>3d</fix>
</trkpt>
<trkpt lat="-27.2737688" lon="151.2879461">
  <ele>402.68</ele>
  <time>2026-09-01T19:54:26Z</time>
  <course>272.37</course>
  <speed>26.35</speed>
  <fix>3d</fix>
</trkpt>
<trkpt lat="-27.2737649" lon="151.2878434">
  <ele>403.39</ele>
  <time>2026-09-01T19:54:26Z</time>
  <course>272.89</course>
  <speed>26.393773887036314</speed>
  <fix>3d</fix>
</trkpt>
<trkpt lat="-27.2737669" lon="151.2878928">
  <ele>403.07</ele>
  <time>2026-09-01T19:54:26Z</time>
  <course>272.41</course>
  <speed>26.39</speed>
  <fix>3d</fix>
</trkpt>
<trkpt lat="-27.2737639" lon="151.2878168">
  <ele>403.61</ele>
  <time>2026-09-01T19:54:26Z</time>
  <course>272.86</course>
  <speed>26.393773887036314</speed>
  <fix>3d</fix>
</trkpt>
<trkpt lat="-27.2737669" lon="151.2878928">
  <ele>403.07</ele>
  <time>2026-09-01T19:54:26Z</time>
  <course>272.41</course>
  <speed>26.39</speed>
  <fix>3d</fix>
</trkpt>
<trkpt lat="-27.2737629" lon="151.2877901">
  <ele>403.83</ele>
  <time>2026-09-01T19:54:26Z</time>
  <course>272.91</course>
  <speed>26.40419095522527</speed>
  <fix>3d</fix>
</trkpt>
<trkpt lat="-27.2737648" lon="151.2878395">
  <ele>403.48</ele>
  <time>2026-09-01T19:54:26Z</time>
  <course>272.44</course>
  <speed>26.42</speed>
  <fix>3d</fix>
</trkpt>
<trkpt lat="-27.2737619" lon="151.2877634">
  <ele>404.06</ele>
  <time>2026-09-01T19:54:26Z</time>
  <course>272.96</course>
  <speed>26.414611486826757</speed>
  <fix>3d</fix>
</trkpt>
<trkpt lat="-27.2737648" lon="151.2878395">
  <ele>403.48</ele>
  <time>2026-09-01T19:54:26Z</time>
  <course>272.44</course>
  <speed>26.42</speed>
  <fix>3d</fix>
</trkpt>
<trkpt lat="-27.2737609" lon="151.2877367">
  <ele>404.29</ele>
  <time>2026-09-01T19:54:26Z</time>
  <course>273.03</course>
  <speed>26.415044955479445</speed>
  <fix>3d</fix>
</trkpt>
<trkpt lat="-27.2737628" lon="151.2877862">
  <ele>403.93</ele>
  <time>2026-09-01T19:54:26Z</time>
  <course>272.47</course>
  <speed>26.44</speed>
  <fix>3d</fix>
</trkpt>
<trkpt lat="-27.2737598" lon="151.2877098">
  <ele>404.53</ele>
  <time>2026-09-01T19:54:26Z</time>
  <course>273.04</course>
  <speed>26.415923228234895</speed>
  <fix>3d</fix>
</trkpt>
<trkpt lat="-27.2737628" lon="151.2877862">
  <ele>403.93</ele>
  <time>2026-09-01T19:54:26Z</time>
  <course>272.47</course>
  <speed>26.44</speed>
  <fix>3d</fix>
</trkpt>
<trkpt lat="-27.2737588" lon="151.2876831">
  <ele>404.77</ele>
  <time>2026-09-01T19:54:26Z</time>
  <course>273.07</course>
  <speed>26.406378017441167</speed>
  <fix>3d</fix>
</trkpt>
<trkpt lat="-27.2737607" lon="151.2877327">
  <ele>404.39</ele>
  <time>2026-09-01T19:54:26Z</time>
  <course>272.53</course>
  <speed>26.44</speed>
  <fix>3d</fix>
</trkpt>
<trkpt lat="-27.2737577" lon="151.2876564">
  <ele>405.01</ele>
  <time>2026-09-01T19:54:26Z</time>
  <course>273.09</course>
  <speed>26.406826768848997</speed>
  <fix>3d</fix>
</trkpt>
<trkpt lat="-27.2737607" lon="151.2877327">
  <ele>404.39</ele>
  <time>2026-09-01T19:54:26Z</time>
  <course>272.53</course>
  <speed>26.44</speed>
  <fix>3d</fix>
</trkpt>
<trkpt lat="-27.2737566" lon="151.2876297">
  <ele>405.26</ele>
  <time>2026-09-01T19:54:26Z</time>
  <course>273.04</course>
  <speed>26.397289633596856</speed>
  <fix>3d</fix>
</trkpt>
<trkpt lat="-27.2737586" lon="151.2876794">
  <ele>404.86</ele>
  <time>2026-09-01T19:54:26Z</time>
  <course>272.59</course>
  <speed>26.44</speed>
  <fix>3d</fix>
</trkpt>
<trkpt lat="-27.2737555" lon="151.2876031">
  <ele>405.51</ele>
  <time>2026-09-01T19:54:26Z</time>
  <course>273.07</course>
  <speed>26.387299975556424</speed>
  <fix>3d</fix>
</trkpt>
<trkpt lat="-27.2737586" lon="151.2876794">
  <ele>404.86</ele>
  <time>2026-09-01T19:54:26Z</time>
  <course>272.59</course>
  <speed>26.44</speed>
  <fix>3d</fix>
</trkpt>
<trkpt lat="-27.2737544" lon="151.2875764">
  <ele>405.77</ele>
  <time>2026-09-01T19:54:26Z</time>
  <course>273.04</course>
  <speed>26.377767153419185</speed>
  <fix>3d</fix>
</trkpt>
<trkpt lat="-27.2737565" lon="151.2876261">
  <ele>405.36</ele>
  <time>2026-09-01T19:54:26Z</time>
  <course>272.63</course>
  <speed>26.42</speed>
  <fix>3d</fix>
</trkpt>
<trkpt lat="-27.2737533" lon="151.2875498">
  <ele>406.02</ele>
  <time>2026-09-01T19:54:26Z</time>
  <course>273.07</course>
  <speed>26.367777684135614</speed>
  <fix>3d</fix>
</trkpt>
<trkpt lat="-27.2737565" lon="151.2876261">
  <ele>405.36</ele>
  <time>2026-09-01T19:54:26Z</time>
  <course>272.63</course>
  <speed>26.42</speed>
  <fix>3d</fix>
</trkpt>
<trkpt lat="-27.2737523" lon="151.2875232">
  <ele>406.28</ele>
  <time>2026-09-01T19:54:26Z</time>
  <course>273.09</course>
  <speed>26.357788222838426</speed>
  <fix>3d</fix>
</trkpt>
<trkpt lat="-27.2737543" lon="151.2875727">
  <ele>405.86</ele>
  <time>2026-09-01T19:54:26Z</time>
  <course>272.65</course>
  <speed>26.4</speed>
  <fix>3d</fix>
</trkpt>
<trkpt lat="-27.2737512" lon="151.2874965">
  <ele>406.54</ele>
  <time>2026-09-01T19:54:26Z</time>
  <course>273.1</course>
  <speed>26.34825990459332</speed>
  <fix>3d</fix>
</trkpt>
<trkpt lat="-27.2737543" lon="151.2875727">
  <ele>405.86</ele>
  <time>2026-09-01T19:54:26Z</time>
  <course>272.65</course>
  <speed>26.4</speed>
  <fix>3d</fix>
</trkpt>
<trkpt lat="-27.2737501" lon="151.2874699">
  <ele>406.8</ele>
  <time>2026-09-01T19:54:26Z</time>
  <course>273.03</course>
  <speed>26.338270634193126</speed>
  <fix>3d</fix>
</trkpt>
<trkpt lat="-27.273752" lon="151.2875194">
  <ele>406.38</ele>
  <time>2026-09-01T19:54:26Z</time>
  <course>272.66</course>
  <speed>26.38</speed>
  <fix>3d</fix>
</trkpt>
<trkpt lat="-27.273749" lon="151.2874433">
  <ele>407.06</ele>
  <time>2026-09-01T19:54:26Z</time>
  <course>273.08</course>
  <speed>26.328281371939187</speed>
  <fix>3d</fix>
</trkpt>
<trkpt lat="-27.273752" lon="151.2875194">
  <ele>406.38</ele>
  <time>2026-09-01T19:54:26Z</time>
  <course>272.66</course>
  <speed>26.38</speed>
  <fix>3d</fix>
</trkpt>
<trkpt lat="-27.2737479" lon="151.2874167">
  <ele>407.31</ele>
  <time>2026-09-01T19:54:26Z</time>
  <course>273.06</course>
  <speed>26.31829211784078</speed>
  <fix>3d</fix>
</trkpt>
<trkpt lat="-27.2737499" lon="151.2874661">
  <ele>406.89</ele>
  <time>2026-09-01T19:54:26Z</time>
  <course>272.67</course>
  <speed>26.36</speed>
  <fix>3d</fix>
</trkpt>
<trkpt lat="-27.2737468" lon="151.2873901">
  <ele>407.57</ele>
  <time>2026-09-01T19:54:26Z</time>
  <course>273.08</course>
  <speed>26.30830287190719</speed>
  <fix>3d</fix>
</trkpt>
<trkpt lat="-27.2737499" lon="151.2874661">
  <ele>406.89</ele>
  <time>2026-09-01T19:54:26Z</time>
  <course>272.67</course>
  <speed>26.36</speed>
  <fix>3d</fix>
</trkpt>
<trkpt lat="-27.2737456" lon="151.2873635">
  <ele>407.83</ele>
  <time>2026-09-01T19:54:26Z</time>
  <course>273.12</course>
  <speed>26.29831363414772</speed>
  <fix>3d</fix>
</trkpt>
<trkpt lat="-27.2737476" lon="151.2874129">
  <ele>407.4</ele>
  <time>2026-09-01T19:54:26Z</time>
  <course>272.67</course>
  <speed>26.34</speed>
  <fix>3d</fix>
</trkpt>
<trkpt lat="-27.2737445" lon="151.287337">
  <ele>408.08</ele>
  <time>2026-09-01T19:54:26Z</time>
  <course>273.14</course>
  <speed>26.27880134252702</speed>
  <fix>3d</fix>
</trkpt>
<trkpt lat="-27.2737476" lon="151.2874129">
  <ele>407.4</ele>
  <time>2026-09-01T19:54:26Z</time>
  <course>272.67</course>
  <speed>26.34</speed>
  <fix>3d</fix>
</trkpt>
<trkpt lat="-27.2737434" lon="151.2873104">
  <ele>408.34</ele>
  <time>2026-09-01T19:54:26Z</time>
  <course>273.05</course>
  <speed>26.2588232790428</speed>
  <fix>3d</fix>
</trkpt>
<trkpt lat="-27.2737453" lon="151.2873597">
  <ele>407.91</ele>
  <time>2026-09-01T19:54:26Z</time>
  <course>272.69</course>
  <speed>26.31</speed>
  <fix>3d</fix>
</trkpt>
<trkpt lat="-27.2737423" lon="151.2872839">
  <ele>408.6</ele>
  <time>2026-09-01T19:54:26Z</time>
  <course>273.03</course>
  <speed>26.24836756828889</speed>
  <fix>3d</fix>
</trkpt>
<trkpt lat="-27.2737453" lon="151.2873597">
  <ele>407.91</ele>
  <time>2026-09-01T19:54:26Z</time>
  <course>272.69</course>
  <speed>26.31</speed>
  <fix>3d</fix>
</trkpt>
<trkpt lat="-27.2737412" lon="151.2872574">
  <ele>408.86</ele>
  <time>2026-09-01T19:54:26Z</time>
  <course>273.04</course>
  <speed>26.22792595688801</speed>
  <fix>3d</fix>
</trkpt>
<trkpt lat="-27.2737432" lon="151.2873066">
  <ele>408.43</ele>
  <time>2026-09-01T19:54:26Z</time>
  <course>272.68</course>
  <speed>26.28</speed>
  <fix>3d</fix>
</trkpt>
<trkpt lat="-27.2737401" lon="151.2872309">
  <ele>409.12</ele>
  <time>2026-09-01T19:54:26Z</time>
  <course>273.08</course>
  <speed>26.207487479726097</speed>
  <fix>3d</fix>
</trkpt>
<trkpt lat="-27.2737432" lon="151.2873066">
  <ele>408.43</ele>
  <time>2026-09-01T19:54:26Z</time>
  <course>272.68</course>
  <speed>26.28</speed>
  <fix>3d</fix>
</trkpt>
<trkpt lat="-27.273739" lon="151.2872044">
  <ele>409.39</ele>
  <time>2026-09-01T19:54:26Z</time>
  <course>273.11</course>
  <speed>26.197957935686514</speed>
  <fix>3d</fix>
</trkpt>
<trkpt lat="-27.273741" lon="151.2872536">
  <ele>408.95</ele>
  <time>2026-09-01T19:54:26Z</time>
  <course>272.66</course>
  <speed>26.24</speed>
  <fix>3d</fix>
</trkpt>
<trkpt lat="-27.2737379" lon="151.287178">
  <ele>409.65</ele>
  <time>2026-09-01T19:54:26Z</time>
  <course>273.17</course>
  <speed>26.177979295583533</speed>
  <fix>3d</fix>
</trkpt>
<trkpt lat="-27.273741" lon="151.2872536">
  <ele>408.95</ele>
  <time>2026-09-01T19:54:26Z</time>
  <course>272.66</course>
  <speed>26.24</speed>
  <fix>3d</fix>
</trkpt>
<trkpt lat="-27.2737368" lon="151.2871518">
  <ele>409.92</ele>
  <time>2026-09-01T19:54:26Z</time>
  <course>273.14</course>
  <speed>26.158000688125995</speed>
  <fix>3d</fix>
</trkpt>
<trkpt lat="-27.2737388" lon="151.2872007">
  <ele>409.47</ele>
  <time>2026-09-01T19:54:26Z</time>
  <course>272.65</course>
  <speed>26.2</speed>
  <fix>3d</fix>
</trkpt>
<trkpt lat="-27.2737358" lon="151.2871254">
  <ele>410.19</ele>
  <time>2026-09-01T19:54:26Z</time>
  <course>273.03</course>
  <speed>26.137561095098373</speed>
  <fix>3d</fix>
</trkpt>
<trkpt lat="-27.2737388" lon="151.2872007">
  <ele>409.47</ele>
  <time>2026-09-01T19:54:26Z</time>
  <course>272.65</course>
  <speed>26.2</speed>
  <fix>3d</fix>
</trkpt>
<trkpt lat="-27.2737347" lon="151.287099">
  <ele>410.45</ele>
  <time>2026-09-01T19:54:26Z</time>
  <course>272.98</course>
  <speed>26.117124650313247</speed>
  <fix>3d</fix>
</trkpt>
<trkpt lat="-27.2737367" lon="151.2871478">
  <ele>410.0</ele>
  <time>2026-09-01T19:54:26Z</time>
  <course>272.65</course>
  <speed>26.16</speed>
  <fix>3d</fix>
</trkpt>
<trkpt lat="-27.2737336" lon="151.2870726">
  <ele>410.72</ele>
  <time>2026-09-01T19:54:26Z</time>
  <course>273.04</course>
  <speed>26.097145437767708</speed>
  <fix>3d</fix>
</trkpt>
<trkpt lat="-27.2737367" lon="151.2871478">
  <ele>410.0</ele>
  <time>2026-09-01T19:54:26Z</time>
  <course>272.65</course>
  <speed>26.16</speed>
  <fix>3d</fix>
</trkpt>
<trkpt lat="-27.2737325" lon="151.2870458">
  <ele>410.98</ele>
  <time>2026-09-01T19:54:26Z</time>
  <course>273.08</course>
  <speed>26.07671183259116</speed>
  <fix>3d</fix>
</trkpt>
<trkpt lat="-27.2737344" lon="151.287095">
  <ele>410.52</ele>
  <time>2026-09-01T19:54:26Z</time>
  <course>272.64</course>
  <speed>26.12</speed>
  <fix>3d</fix>
</trkpt>
<trkpt lat="-27.2737314" lon="151.2870195">
  <ele>411.24</ele>
  <time>2026-09-01T19:54:26Z</time>
  <course>273.11</course>
  <speed>26.057187108358416</speed>
  <fix>3d</fix>
</trkpt>
<trkpt lat="-27.2737344" lon="151.287095">
  <ele>410.52</ele>
  <time>2026-09-01T19:54:26Z</time>
  <course>272.64</course>
  <speed>26.12</speed>
  <fix>3d</fix>
</trkpt>
<trkpt lat="-27.2737304" lon="151.2869932">
  <ele>411.5</ele>
  <time>2026-09-01T19:54:26Z</time>
  <course>273.1</course>
  <speed>26.047197545993313</speed>
  <fix>3d</fix>
</trkpt>
<trkpt lat="-27.2737323" lon="151.2870423">
  <ele>411.04</ele>
  <time>2026-09-01T19:54:26Z</time>
  <course>272.62</course>
  <speed>26.09</speed>
  <fix>3d</fix>
</trkpt>
<trkpt lat="-27.2737293" lon="151.2869669">
  <ele>411.75</ele>
  <time>2026-09-01T19:54:26Z</time>
  <course>273.07</course>
  <speed>26.01677343561265</speed>
  <fix>3d</fix>
</trkpt>
<trkpt lat="-27.2737323" lon="151.2870423">
  <ele>411.04</ele>
  <time>2026-09-01T19:54:26Z</time>
  <course>272.62</course>
  <speed>26.09</speed>
  <fix>3d</fix>
</trkpt>
<trkpt lat="-27.2737282" lon="151.2869406">
  <ele>412.01</ele>
  <time>2026-09-01T19:54:26Z</time>
  <course>273.07</course>
  <speed>25.996794033111083</speed>
  <fix>3d</fix>
</trkpt>
<trkpt lat="-27.2737301" lon="151.2869896">
  <ele>411.55</ele>
  <time>2026-09-01T19:54:26Z</time>
  <course>272.62</course>
  <speed>26.05</speed>
  <fix>3d</fix>
</trkpt>
<trkpt lat="-27.2737272" lon="151.2869144">
  <ele>412.27</ele>
  <time>2026-09-01T19:54:26Z</time>
  <course>273.05</course>
  <speed>25.986804343743383</speed>
  <fix>3d</fix>
</trkpt>
<trkpt lat="-27.2737301" lon="151.2869896">
  <ele>411.55</ele>
  <time>2026-09-01T19:54:26Z</time>
  <course>272.62</course>
  <speed>26.05</speed>
  <fix>3d</fix>
</trkpt>
<trkpt lat="-27.2737261" lon="151.2868881">
  <ele>412.52</ele>
  <time>2026-09-01T19:54:26Z</time>
  <course>273.05</course>
  <speed>25.966372484426852</speed>
  <fix>3d</fix>
</trkpt>
<trkpt lat="-27.273728" lon="151.2869369">
  <ele>412.06</ele>
  <time>2026-09-01T19:54:26Z</time>
  <course>272.61</course>
  <speed>26.01</speed>
  <fix>3d</fix>
</trkpt>
<trkpt lat="-27.273725" lon="151.2868619">
  <ele>412.77</ele>
  <time>2026-09-01T19:54:26Z</time>
  <course>273.02</course>
  <speed>25.95638264473692</speed>
  <fix>3d</fix>
</trkpt>
<trkpt lat="-27.273728" lon="151.2869369">
  <ele>412.06</ele>
  <time>2026-09-01T19:54:26Z</time>
  <course>272.61</course>
  <speed>26.01</speed>
  <fix>3d</fix>
</trkpt>
<trkpt lat="-27.273724" lon="151.2868357">
  <ele>413.02</ele>
  <time>2026-09-01T19:54:26Z</time>
  <course>273.03</course>
  <speed>25.936402988849476</speed>
  <fix>3d</fix>
</trkpt>
<trkpt lat="-27.2737259" lon="151.2868844">
  <ele>412.57</ele>
  <time>2026-09-01T19:54:26Z</time>
  <course>272.6</course>
  <speed>25.98</speed>
  <fix>3d</fix>
</trkpt>
<trkpt lat="-27.2737229" lon="151.2868095">
  <ele>413.27</ele>
  <time>2026-09-01T19:54:26Z</time>
  <course>273.02</course>
  <speed>25.926413172670067</speed>
  <fix>3d</fix>
</trkpt>
<trkpt lat="-27.2737259" lon="151.2868844">
  <ele>412.57</ele>
  <time>2026-09-01T19:54:26Z</time>
  <course>272.6</course>
  <speed>25.98</speed>
  <fix>3d</fix>
</trkpt>
<trkpt lat="-27.2737219" lon="151.2867833">
  <ele>413.52</ele>
  <time>2026-09-01T19:54:26Z</time>
  <course>273.01</course>
  <speed>25.91642336434563</speed>
  <fix>3d</fix>
</trkpt>
<trkpt lat="-27.2737238" lon="151.2868321">
  <ele>413.08</ele>
  <time>2026-09-01T19:54:26Z</time>
  <course>272.58</course>
  <speed>25.95</speed>
  <fix>3d</fix>
</trkpt>
<trkpt lat="-27.2737208" lon="151.2867571">
  <ele>413.77</ele>
  <time>2026-09-01T19:54:26Z</time>
  <course>273.0</course>
  <speed>25.896443771298017</speed>
  <fix>3d</fix>
</trkpt>
<trkpt lat="-27.2737238" lon="151.2868321">
  <ele>413.08</ele>
  <time>2026-09-01T19:54:26Z</time>
  <course>272.58</course>
  <speed>25.95</speed>
  <fix>3d</fix>
</trkpt>
<trkpt lat="-27.2737198" lon="151.286731">
  <ele>414.01</ele>
  <time>2026-09-01T19:54:26Z</time>
  <course>272.99</course>
  <speed>25.886453986593065</speed>
  <fix>3d</fix>
</trkpt>
<trkpt lat="-27.2737217" lon="151.2867797">
  <ele>413.57</ele>
  <time>2026-09-01T19:54:26Z</time>
  <course>272.57</course>
  <speed>25.92</speed>
  <fix>3d</fix>
</trkpt>
<trkpt lat="-27.2737187" lon="151.2867049">
  <ele>414.25</ele>
  <time>2026-09-01T19:54:26Z</time>
  <course>272.95</course>
  <speed>25.8664744408665</speed>
  <fix>3d</fix>
</trkpt>
<trkpt lat="-27.2737217" lon="151.2867797">
  <ele>413.57</ele>
  <time>2026-09-01T19:54:26Z</time>
  <course>272.57</course>
  <speed>25.92</speed>
  <fix>3d</fix>
</trkpt>
<trkpt lat="-27.2737177" lon="151.2866787">
  <ele>414.5</ele>
  <time>2026-09-01T19:54:26Z</time>
  <course>272.98</course>
  <speed>25.85603411198245</speed>
  <fix>3d</fix>
</trkpt>
<trkpt lat="-27.2737196" lon="151.2867274">
  <ele>414.06</ele>
  <time>2026-09-01T19:54:26Z</time>
  <course>272.57</course>
  <speed>25.9</speed>
  <fix>3d</fix>
</trkpt>
<trkpt lat="-27.2737166" lon="151.2866526">
  <ele>414.75</ele>
  <time>2026-09-01T19:54:26Z</time>
  <course>273.01</course>
  <speed>25.836054265309166</speed>
  <fix>3d</fix>
</trkpt>
<trkpt lat="-27.2737196" lon="151.2867274">
  <ele>414.06</ele>
  <time>2026-09-01T19:54:26Z</time>
  <course>272.57</course>
  <speed>25.9</speed>
  <fix>3d</fix>
</trkpt>
<trkpt lat="-27.2737156" lon="151.2866266">
  <ele>415.0</ele>
  <time>2026-09-01T19:54:26Z</time>
  <course>273.01</course>
  <speed>25.826064353671853</speed>
  <fix>3d</fix>
</trkpt>
<trkpt lat="-27.2737175" lon="151.2866751">
  <ele>414.56</ele>
  <time>2026-09-01T19:54:26Z</time>
  <course>272.57</course>
  <speed>25.87</speed>
  <fix>3d</fix>
</trkpt>
<trkpt lat="-27.2737145" lon="151.2866007">
  <ele>415.24</ele>
  <time>2026-09-01T19:54:26Z</time>
  <course>273.01</course>
  <speed>25.806535993813657</speed>
  <fix>3d</fix>
</trkpt>
<trkpt lat="-27.2737175" lon="151.2866751">
  <ele>414.56</ele>
  <time>2026-09-01T19:54:26Z</time>
  <course>272.57</course>
  <speed>25.87</speed>
  <fix>3d</fix>
</trkpt>
<trkpt lat="-27.2737135" lon="151.2865746">
  <ele>415.48</ele>
  <time>2026-09-01T19:54:26Z</time>
  <course>273.0</course>
  <speed>25.79654628046165</speed>
  <fix>3d</fix>
</trkpt>
<trkpt lat="-27.2737154" lon="151.2866229">
  <ele>415.05</ele>
  <time>2026-09-01T19:54:26Z</time>
  <course>272.57</course>
  <speed>25.84</speed>
  <fix>3d</fix>
</trkpt>
<trkpt lat="-27.2737124" lon="151.2865486">
  <ele>415.73</ele>
  <time>2026-09-01T19:54:26Z</time>
  <course>272.99</course>
  <speed>25.786556575083846</speed>
  <fix>3d</fix>
</trkpt>
<trkpt lat="-27.2737154" lon="151.2866229">
  <ele>415.05</ele>
  <time>2026-09-01T19:54:26Z</time>
  <course>272.57</course>
  <speed>25.84</speed>
  <fix>3d</fix>
</trkpt>
<trkpt lat="-27.2737114" lon="151.2865226">
  <ele>415.97</ele>
  <time>2026-09-01T19:54:26Z</time>
  <course>272.96</course>
  <speed>25.786556575083846</speed>
  <fix>3d</fix>
</trkpt>
<trkpt lat="-27.2737133" lon="151.2865708">
  <ele>415.54</ele>
  <time>2026-09-01T19:54:26Z</time>
  <course>272.58</course>
  <speed>25.81</speed>
  <fix>3d</fix>
</trkpt>
<trkpt lat="-27.2737103" lon="151.2864963">
  <ele>416.21</ele>
  <time>2026-09-01T19:54:26Z</time>
  <course>272.95</course>
  <speed>25.766577188287933</speed>
  <fix>3d</fix>
</trkpt>
<trkpt lat="-27.2737133" lon="151.2865708">
  <ele>415.54</ele>
  <time>2026-09-01T19:54:26Z</time>
  <course>272.58</course>
  <speed>25.81</speed>
  <fix>3d</fix>
</trkpt>
<trkpt lat="-27.2737093" lon="151.2864703">
  <ele>416.45</ele>
  <time>2026-09-01T19:54:26Z</time>
  <course>272.92</course>
  <speed>25.75658750688841</speed>
  <fix>3d</fix>
</trkpt>
<trkpt lat="-27.2737112" lon="151.2865187">
  <ele>416.03</ele>
  <time>2026-09-01T19:54:26Z</time>
  <course>272.58</course>
  <speed>25.79</speed>
  <fix>3d</fix>
</trkpt>
<trkpt lat="-27.2737082" lon="151.2864443">
  <ele>416.69</ele>
  <time>2026-09-01T19:54:26Z</time>
  <course>272.95</course>
  <speed>25.74614534255565</speed>
  <fix>3d</fix>
</trkpt>
<trkpt lat="-27.2737112" lon="151.2865187">
  <ele>416.03</ele>
  <time>2026-09-01T19:54:26Z</time>
  <course>272.58</course>
  <speed>25.79</speed>
  <fix>3d</fix>
</trkpt>
<trkpt lat="-27.2737072" lon="151.2864183">
  <ele>416.93</ele>
  <time>2026-09-01T19:54:26Z</time>
  <course>272.95</course>
  <speed>25.736155501550734</speed>
  <fix>3d</fix>
</trkpt>
<trkpt lat="-27.2737091" lon="151.2864666">
  <ele>416.51</ele>
  <time>2026-09-01T19:54:26Z</time>
  <course>272.57</course>
  <speed>25.77</speed>
  <fix>3d</fix>
</trkpt>
<trkpt lat="-27.2737061" lon="151.2863923">
  <ele>417.17</ele>
  <time>2026-09-01T19:54:26Z</time>
  <course>272.9</course>
  <speed>25.726165668439595</speed>
  <fix>3d</fix>
</trkpt>
<trkpt lat="-27.2737091" lon="151.2864666">
  <ele>416.51</ele>
  <time>2026-09-01T19:54:26Z</time>
  <course>272.57</course>
  <speed>25.77</speed>
  <fix>3d</fix>
</trkpt>
<trkpt lat="-27.2737051" lon="151.2863663">
  <ele>417.41</ele>
  <time>2026-09-01T19:54:26Z</time>
  <course>272.93</course>
  <speed>25.715726705656213</speed>
  <fix>3d</fix>
</trkpt>
<trkpt lat="-27.2737071" lon="151.2864144">
  <ele>416.99</ele>
  <time>2026-09-01T19:54:26Z</time>
  <course>272.56</course>
  <speed>25.75</speed>
  <fix>3d</fix>
</trkpt>
<trkpt lat="-27.2737041" lon="151.2863401">
  <ele>417.65</ele>
  <time>2026-09-01T19:54:26Z</time>
  <course>272.99</course>
  <speed>25.705736713815458</speed>
  <fix>3d</fix>
</trkpt>
<trkpt lat="-27.2737071" lon="151.2864144">
  <ele>416.99</ele>
  <time>2026-09-01T19:54:26Z</time>
  <course>272.56</course>
  <speed>25.75</speed>
  <fix>3d</fix>
</trkpt>
<trkpt lat="-27.273703" lon="151.2863141">
  <ele>417.89</ele>
  <time>2026-09-01T19:54:26Z</time>
  <course>273.03</course>
  <speed>25.68575675350057</speed>
  <fix>3d</fix>
</trkpt>
<trkpt lat="-27.273705" lon="151.2863624">
  <ele>417.47</ele>
  <time>2026-09-01T19:54:26Z</time>
  <course>272.55</course>
  <speed>25.73</speed>
  <fix>3d</fix>
</trkpt>
<trkpt lat="-27.273702" lon="151.2862882">
  <ele>418.13</ele>
  <time>2026-09-01T19:54:26Z</time>
  <course>273.02</course>
  <speed>25.675766785044612</speed>
  <fix>3d</fix>
</trkpt>
<trkpt lat="-27.273705" lon="151.2863624">
  <ele>417.47</ele>
  <time>2026-09-01T19:54:26Z</time>
  <course>272.55</course>
  <speed>25.73</speed>
  <fix>3d</fix>
</trkpt>
<trkpt lat="-27.273701" lon="151.2862622">
  <ele>418.37</ele>
  <time>2026-09-01T19:54:26Z</time>
  <course>272.99</course>
  <speed>25.665776824401792</speed>
  <fix>3d</fix>
</trkpt>
<trkpt lat="-27.273703" lon="151.2863105">
  <ele>417.95</ele>
  <time>2026-09-01T19:54:26Z</time>
  <course>272.54</course>
  <speed>25.7</speed>
  <fix>3d</fix>
</trkpt>
<trkpt lat="-27.2737" lon="151.2862362">
  <ele>418.6</ele>
  <time>2026-09-01T19:54:26Z</time>
  <course>272.97</course>
  <speed>25.655786871581235</speed>
  <fix>3d</fix>
</trkpt>
<trkpt lat="-27.273703" lon="151.2863105">
  <ele>417.95</ele>
  <time>2026-09-01T19:54:26Z</time>
  <course>272.54</course>
  <speed>25.7</speed>
  <fix>3d</fix>
</trkpt>
<trkpt lat="-27.2736989" lon="151.2862103">
  <ele>418.84</ele>
  <time>2026-09-01T19:54:26Z</time>
  <course>272.95</course>
  <speed>25.645796926592084</speed>
  <fix>3d</fix>
</trkpt>
<trkpt lat="-27.2737009" lon="151.2862586">
  <ele>418.43</ele>
  <time>2026-09-01T19:54:26Z</time>
  <course>272.54</course>
  <speed>25.68</speed>
  <fix>3d</fix>
</trkpt>
<trkpt lat="-27.2736979" lon="151.2861843">
  <ele>419.08</ele>
  <time>2026-09-01T19:54:26Z</time>
  <course>272.92</course>
  <speed>25.645796926592084</speed>
  <fix>3d</fix>
</trkpt>
<trkpt lat="-27.2737009" lon="151.2862586">
  <ele>418.43</ele>
  <time>2026-09-01T19:54:26Z</time>
  <course>272.54</course>
  <speed>25.68</speed>
  <fix>3d</fix>
</trkpt>
<trkpt lat="-27.2736969" lon="151.2861584">
  <ele>419.31</ele>
  <time>2026-09-01T19:54:26Z</time>
  <course>272.87</course>
  <speed>25.645350455784378</speed>
  <fix>3d</fix>
</trkpt>
<trkpt lat="-27.2736989" lon="151.2862068">
  <ele>418.91</ele>
  <time>2026-09-01T19:54:26Z</time>
  <course>272.54</course>
  <speed>25.66</speed>
  <fix>3d</fix>
</trkpt>
<trkpt lat="-27.2736959" lon="151.2861324">
  <ele>419.55</ele>
  <time>2026-09-01T19:54:26Z</time>
  <course>272.9</course>
  <speed>25.634917593001934</speed>
  <fix>3d</fix>
</trkpt>
<trkpt lat="-27.2736989" lon="151.2862068">
  <ele>418.91</ele>
  <time>2026-09-01T19:54:26Z</time>
  <course>272.54</course>
  <speed>25.66</speed>
  <fix>3d</fix>
</trkpt>
<trkpt lat="-27.2736949" lon="151.2861065">
  <ele>419.78</ele>
  <time>2026-09-01T19:54:26Z</time>
  <course>272.99</course>
  <speed>25.634917593001934</speed>
  <fix>3d</fix>
</trkpt>
<trkpt lat="-27.2736968" lon="151.286155">
  <ele>419.38</ele>
  <time>2026-09-01T19:54:26Z</time>
  <course>272.52</course>
  <speed>25.64</speed>
  <fix>3d</fix>
</trkpt>
<trkpt lat="-27.2736939" lon="151.2860806">
  <ele>420.02</ele>
  <time>2026-09-01T19:54:26Z</time>
  <course>273.01</course>
  <speed>25.624927316970094</speed>
  <fix>3d</fix>
</trkpt>
<trkpt lat="-27.2736968" lon="151.286155">
  <ele>419.38</ele>
  <time>2026-09-01T19:54:26Z</time>
  <course>272.52</course>
  <speed>25.64</speed>
  <fix>3d</fix>
</trkpt>
<trkpt lat="-27.2736929" lon="151.2860548">
  <ele>420.25</ele>
  <time>2026-09-01T19:54:26Z</time>
  <course>273.02</course>
  <speed>25.614937048526976</speed>
  <fix>3d</fix>
</trkpt>
<trkpt lat="-27.2736948" lon="151.2861032">
  <ele>419.85</ele>
  <time>2026-09-01T19:54:26Z</time>
  <course>272.5</course>
  <speed>25.63</speed>
  <fix>3d</fix>
</trkpt>
<trkpt lat="-27.2736918" lon="151.2860289">
  <ele>420.49</ele>
  <time>2026-09-01T19:54:26Z</time>
  <course>272.99</course>
  <speed>25.615380145529755</speed>
  <fix>3d</fix>
</trkpt>
<trkpt lat="-27.2736948" lon="151.2861032">
  <ele>419.85</ele>
  <time>2026-09-01T19:54:26Z</time>
  <course>272.5</course>
  <speed>25.63</speed>
  <fix>3d</fix>
</trkpt>
<trkpt lat="-27.2736908" lon="151.286003">
  <ele>420.73</ele>
  <time>2026-09-01T19:54:26Z</time>
  <course>272.9</course>
  <speed>25.60539005756405</speed>
  <fix>3d</fix>
</trkpt>
<trkpt lat="-27.2736928" lon="151.2860515">
  <ele>420.32</ele>
  <time>2026-09-01T19:54:26Z</time>
  <course>272.51</course>
  <speed>25.62</speed>
  <fix>3d</fix>
</trkpt>
<trkpt lat="-27.2736898" lon="151.2859771">
  <ele>420.97</ele>
  <time>2026-09-01T19:54:26Z</time>
  <course>272.9</course>
  <speed>25.60539005756405</speed>
  <fix>3d</fix>
</trkpt>
<trkpt lat="-27.2736928" lon="151.2860515">
  <ele>420.32</ele>
  <time>2026-09-01T19:54:26Z</time>
  <course>272.51</course>
  <speed>25.62</speed>
  <fix>3d</fix>
</trkpt>
<trkpt lat="-27.2736888" lon="151.285951">
  <ele>421.21</ele>
  <time>2026-09-01T19:54:26Z</time>
  <course>272.94</course>
  <speed>25.594956534442485</speed>
  <fix>3d</fix>
</trkpt>
<trkpt lat="-27.2736908" lon="151.2859998">
  <ele>420.79</ele>
  <time>2026-09-01T19:54:26Z</time>
  <course>272.51</course>
  <speed>25.6</speed>
  <fix>3d</fix>
</trkpt>
<trkpt lat="-27.2736878" lon="151.2859251">
  <ele>421.44</ele>
  <time>2026-09-01T19:54:26Z</time>
  <course>272.94</course>
  <speed>25.59539997733968</speed>
  <fix>3d</fix>
</trkpt>
<trkpt lat="-27.2736908" lon="151.2859998">
  <ele>420.79</ele>
  <time>2026-09-01T19:54:26Z</time>
  <course>272.51</course>
  <speed>25.6</speed>
  <fix>3d</fix>
</trkpt>
<trkpt lat="-27.2736868" lon="151.2858993">
  <ele>421.68</ele>
  <time>2026-09-01T19:54:26Z</time>
  <course>272.91</course>
  <speed>25.5854099048657</speed>
  <fix>3d</fix>
</trkpt>
<trkpt lat="-27.2736888" lon="151.2859481">
  <ele>421.26</ele>
  <time>2026-09-01T19:54:26Z</time>
  <course>272.5</course>
  <speed>25.59</speed>
  <fix>3d</fix>
</trkpt>
<trkpt lat="-27.2736858" lon="151.2858734">
  <ele>421.91</ele>
  <time>2026-09-01T19:54:26Z</time>
  <course>272.98</course>
  <speed>25.57541984015121</speed>
  <fix>3d</fix>
</trkpt>
<trkpt lat="-27.2736888" lon="151.2859481">
  <ele>421.26</ele>
  <time>2026-09-01T19:54:26Z</time>
  <course>272.5</course>
  <speed>25.59</speed>
  <fix>3d</fix>
</trkpt>
<trkpt lat="-27.2736848" lon="151.2858476">
  <ele>422.15</ele>
  <time>2026-09-01T19:54:26Z</time>
  <course>272.99</course>
  <speed>25.565429783205285</speed>
  <fix>3d</fix>
</trkpt>
<trkpt lat="-27.2736867" lon="151.2858963">
  <ele>421.72</ele>
  <time>2026-09-01T19:54:26Z</time>
  <course>272.5</course>
  <speed>25.57</speed>
  <fix>3d</fix>
</trkpt>
<trkpt lat="-27.2736837" lon="151.2858218">
  <ele>422.38</ele>
  <time>2026-09-01T19:54:26Z</time>
  <course>272.95</course>
  <speed>25.555887775618363</speed>
  <fix>3d</fix>
</trkpt>
<trkpt lat="-27.2736867" lon="151.2858963">
  <ele>421.72</ele>
  <time>2026-09-01T19:54:26Z</time>
  <course>272.5</course>
  <speed>25.57</speed>
  <fix>3d</fix>
</trkpt>
<trkpt lat="-27.2736827" lon="151.2857959">
  <ele>422.62</ele>
  <time>2026-09-01T19:54:26Z</time>
  <course>272.89</course>
  <speed>25.55543973403706</speed>
  <fix>3d</fix>
</trkpt>
<trkpt lat="-27.2736846" lon="151.2858446">
  <ele>422.19</ele>
  <time>2026-09-01T19:54:26Z</time>
  <course>272.51</course>
  <speed>25.55</speed>
  <fix>3d</fix>
</trkpt>
<trkpt lat="-27.2736817" lon="151.2857701">
  <ele>422.85</ele>
  <time>2026-09-01T19:54:26Z</time>
  <course>272.9</course>
  <speed>25.545449692655637</speed>
  <fix>3d</fix>
</trkpt>
<trkpt lat="-27.2736846" lon="151.2858446">
  <ele>422.19</ele>
  <time>2026-09-01T19:54:26Z</time>
  <course>272.51</course>
  <speed>25.55</speed>
  <fix>3d</fix>
</trkpt>
<trkpt lat="-27.2736807" lon="151.2857443">
  <ele>423.08</ele>
  <time>2026-09-01T19:54:26Z</time>
  <course>272.93</course>
  <speed>25.545449692655637</speed>
  <fix>3d</fix>
</trkpt>
<trkpt lat="-27.2736827" lon="151.285793">
  <ele>422.66</ele>
  <time>2026-09-01T19:54:26Z</time>
  <course>272.51</course>
  <speed>25.54</speed>
  <fix>3d</fix>
</trkpt>
<trkpt lat="-27.2736797" lon="151.2857185">
  <ele>423.31</ele>
  <time>2026-09-01T19:54:26Z</time>
  <course>272.91</course>
  <speed>25.53545965907017</speed>
  <fix>3d</fix>
</trkpt>
<trkpt lat="-27.2736827" lon="151.285793">
  <ele>422.66</ele>
  <time>2026-09-01T19:54:26Z</time>
  <course>272.51</course>
  <speed>25.54</speed>
  <fix>3d</fix>
</trkpt>
<trkpt lat="-27.2736787" lon="151.2856927">
  <ele>423.54</ele>
  <time>2026-09-01T19:54:26Z</time>
  <course>272.93</course>
  <speed>25.525469633289802</speed>
  <fix>3d</fix>
</trkpt>
<trkpt lat="-27.2736807" lon="151.2857415">
  <ele>423.12</ele>
  <time>2026-09-01T19:54:26Z</time>
  <course>272.5</course>
  <speed>25.52</speed>
  <fix>3d</fix>
</trkpt>
<trkpt lat="-27.2736776" lon="151.285667">
  <ele>423.77</ele>
  <time>2026-09-01T19:54:26Z</time>
  <course>272.9</course>
  <speed>25.515479615323716</speed>
  <fix>3d</fix>
</trkpt>
<trkpt lat="-27.2736807" lon="151.2857415">
  <ele>423.12</ele>
  <time>2026-09-01T19:54:26Z</time>
  <course>272.5</course>
  <speed>25.52</speed>
  <fix>3d</fix>
</trkpt>
<trkpt lat="-27.2736766" lon="151.2856412">
  <ele>424.0</ele>
  <time>2026-09-01T19:54:26Z</time>
  <course>272.86</course>
  <speed>25.50548960518108</speed>
  <fix>3d</fix>
</trkpt>
<trkpt lat="-27.2736787" lon="151.28569">
  <ele>423.57</ele>
  <time>2026-09-01T19:54:26Z</time>
  <course>272.5</course>
  <speed>25.51</speed>
  <fix>3d</fix>
</trkpt>
<trkpt lat="-27.2736756" lon="151.2856152">
  <ele>424.24</ele>
  <time>2026-09-01T19:54:26Z</time>
  <course>272.86</course>
  <speed>25.495054422377684</speed>
  <fix>3d</fix>
</trkpt>
<trkpt lat="-27.2736787" lon="151.28569">
  <ele>423.57</ele>
  <time>2026-09-01T19:54:26Z</time>
  <course>272.5</course>
  <speed>25.51</speed>
  <fix>3d</fix>
</trkpt>
<trkpt lat="-27.2736746" lon="151.2855895">
  <ele>424.47</ele>
  <time>2026-09-01T19:54:26Z</time>
  <course>272.86</course>
  <speed>25.48462281455231</speed>
  <fix>3d</fix>
</trkpt>
<trkpt lat="-27.2736767" lon="151.2856385">
  <ele>424.03</ele>
  <time>2026-09-01T19:54:26Z</time>
  <course>272.49</course>
  <speed>25.49</speed>
  <fix>3d</fix>
</trkpt>
<trkpt lat="-27.2736736" lon="151.2855638">
  <ele>424.7</ele>
  <time>2026-09-01T19:54:26Z</time>
  <course>272.93</course>
  <speed>25.475074092139558</speed>
  <fix>3d</fix>
</trkpt>
<trkpt lat="-27.2736767" lon="151.2856385">
  <ele>424.03</ele>
  <time>2026-09-01T19:54:26Z</time>
  <course>272.49</course>
  <speed>25.49</speed>
  <fix>3d</fix>
</trkpt>
<trkpt lat="-27.2736726" lon="151.285538">
  <ele>424.94</ele>
  <time>2026-09-01T19:54:26Z</time>
  <course>273.01</course>
  <speed>25.475519621785928</speed>
  <fix>3d</fix>
</trkpt>
<trkpt lat="-27.2736747" lon="151.285587">
  <ele>424.5</ele>
  <time>2026-09-01T19:54:26Z</time>
  <course>272.47</course>
  <speed>25.47</speed>
  <fix>3d</fix>
</trkpt>
<trkpt lat="-27.2736717" lon="151.2855125">
  <ele>425.17</ele>
  <time>2026-09-01T19:54:26Z</time>
  <course>272.98</course>
  <speed>25.46552964302922</speed>
  <fix>3d</fix>
</trkpt>
<trkpt lat="-27.2736747" lon="151.285587">
  <ele>424.5</ele>
  <time>2026-09-01T19:54:26Z</time>
  <course>272.47</course>
  <speed>25.47</speed>
  <fix>3d</fix>
</trkpt>
<trkpt lat="-27.2736706" lon="151.2854868">
  <ele>425.4</ele>
  <time>2026-09-01T19:54:26Z</time>
  <course>272.92</course>
  <speed>25.465979266464505</speed>
  <fix>3d</fix>
</trkpt>
<trkpt lat="-27.2736728" lon="151.2855357">
  <ele>424.96</ele>
  <time>2026-09-01T19:54:26Z</time>
  <course>272.48</course>
  <speed>25.46</speed>
  <fix>3d</fix>
</trkpt>
<trkpt lat="-27.2736696" lon="151.285461">
  <ele>425.62</ele>
  <time>2026-09-01T19:54:26Z</time>
  <course>272.89</course>
  <speed>25.465979266464505</speed>
  <fix>3d</fix>
</trkpt>
<trkpt lat="-27.2736728" lon="151.2855357">
  <ele>424.96</ele>
  <time>2026-09-01T19:54:26Z</time>
  <course>272.48</course>
  <speed>25.46</speed>
  <fix>3d</fix>
</trkpt>
<trkpt lat="-27.2736686" lon="151.2854353">
  <ele>425.85</ele>
  <time>2026-09-01T19:54:26Z</time>
  <course>272.92</course>
  <speed>25.45598947202799</speed>
  <fix>3d</fix>
</trkpt>
<trkpt lat="-27.2736708" lon="151.2854843">
  <ele>425.42</ele>
  <time>2026-09-01T19:54:26Z</time>
  <course>272.5</course>
  <speed>25.45</speed>
  <fix>3d</fix>
</trkpt>
<trkpt lat="-27.2736676" lon="151.2854094">
  <ele>426.08</ele>
  <time>2026-09-01T19:54:26Z</time>
  <course>272.95</course>
  <speed>25.45598947202799</speed>
  <fix>3d</fix>
</trkpt>
<trkpt lat="-27.2736708" lon="151.2854843">
  <ele>425.42</ele>
  <time>2026-09-01T19:54:26Z</time>
  <course>272.5</course>
  <speed>25.45</speed>
  <fix>3d</fix>
</trkpt>
<trkpt lat="-27.2736666" lon="151.2853838">
  <ele>426.31</ele>
  <time>2026-09-01T19:54:26Z</time>
  <course>272.93</course>
  <speed>25.44599968560874</speed>
  <fix>3d</fix>
</trkpt>
<trkpt lat="-27.2736688" lon="151.2854329">
  <ele>425.88</ele>
  <time>2026-09-01T19:54:26Z</time>
  <course>272.51</course>
  <speed>25.44</speed>
  <fix>3d</fix>
</trkpt>
<trkpt lat="-27.2736656" lon="151.2853582">
  <ele>426.53</ele>
  <time>2026-09-01T19:54:26Z</time>
  <course>272.93</course>
  <speed>25.44599968560874</speed>
  <fix>3d</fix>
</trkpt>
<trkpt lat="-27.2736688" lon="151.2854329">
  <ele>425.88</ele>
  <time>2026-09-01T19:54:26Z</time>
  <course>272.51</course>
  <speed>25.44</speed>
  <fix>3d</fix>
</trkpt>
<trkpt lat="-27.2736646" lon="151.2853326">
  <ele>426.75</ele>
  <time>2026-09-01T19:54:26Z</time>
  <course>272.87</course>
  <speed>25.43646398381662</speed>
  <fix>3d</fix>
</trkpt>
<trkpt lat="-27.2736667" lon="151.2853816">
  <ele>426.33</ele>
  <time>2026-09-01T19:54:26Z</time>
  <course>272.53</course>
  <speed>25.44</speed>
  <fix>3d</fix>
</trkpt>
<trkpt lat="-27.2736636" lon="151.2853071">
  <ele>426.97</ele>
  <time>2026-09-01T19:54:26Z</time>
  <course>272.82</course>
  <speed>25.426474391861724</speed>
  <fix>3d</fix>
</trkpt>
<trkpt lat="-27.2736667" lon="151.2853816">
  <ele>426.33</ele>
  <time>2026-09-01T19:54:26Z</time>
  <course>272.53</course>
  <speed>25.44</speed>
  <fix>3d</fix>
</trkpt>
<trkpt lat="-27.2736626" lon="151.2852816">
  <ele>427.19</ele>
  <time>2026-09-01T19:54:26Z</time>
  <course>272.9</course>
  <speed>25.416484808092562</speed>
  <fix>3d</fix>
</trkpt>
<trkpt lat="-27.2736647" lon="151.2853301">
  <ele>426.78</ele>
  <time>2026-09-01T19:54:26Z</time>
  <course>272.54</course>
  <speed>25.43</speed>
  <fix>3d</fix>
</trkpt>
<trkpt lat="-27.2736616" lon="151.285256">
  <ele>427.41</ele>
  <time>2026-09-01T19:54:26Z</time>
  <course>272.92</course>
  <speed>25.406040620293435</speed>
  <fix>3d</fix>
</trkpt>
<trkpt lat="-27.2736647" lon="151.2853301">
  <ele>426.78</ele>
  <time>2026-09-01T19:54:26Z</time>
  <course>272.54</course>
  <speed>25.43</speed>
  <fix>3d</fix>
</trkpt>
<trkpt lat="-27.2736606" lon="151.2852305">
  <ele>427.63</ele>
  <time>2026-09-01T19:54:26Z</time>
  <course>272.99</course>
  <speed>25.39650566515008</speed>
  <fix>3d</fix>
</trkpt>
<trkpt lat="-27.2736627" lon="151.2852786">
  <ele>427.22</ele>
  <time>2026-09-01T19:54:26Z</time>
  <course>272.54</course>
  <speed>25.42</speed>
  <fix>3d</fix>
</trkpt>
<trkpt lat="-27.2736595" lon="151.285205">
  <ele>427.85</ele>
  <time>2026-09-01T19:54:26Z</time>
  <course>272.96</course>
  <speed>25.396964385532378</speed>
  <fix>3d</fix>
</trkpt>
<trkpt lat="-27.2736627" lon="151.2852786">
  <ele>427.22</ele>
  <time>2026-09-01T19:54:26Z</time>
  <course>272.54</course>
  <speed>25.42</speed>
  <fix>3d</fix>
</trkpt>
<trkpt lat="-27.2736585" lon="151.2851794">
  <ele>428.07</ele>
  <time>2026-09-01T19:54:26Z</time>
  <course>272.92</course>
  <speed>25.396964385532378</speed>
  <fix>3d</fix>
</trkpt>
<trkpt lat="-27.2736607" lon="151.2852273">
  <ele>427.66</ele>
  <time>2026-09-01T19:54:26Z</time>
  <course>272.55</course>
  <speed>25.42</speed>
  <fix>3d</fix>
</trkpt>
<trkpt lat="-27.2736575" lon="151.2851539">
  <ele>428.28</ele>
  <time>2026-09-01T19:54:26Z</time>
  <course>272.85</course>
  <speed>25.396964385532378</speed>
  <fix>3d</fix>
</trkpt>
<trkpt lat="-27.2736607" lon="151.2852273">
  <ele>427.66</ele>
  <time>2026-09-01T19:54:26Z</time>
  <course>272.55</course>
  <speed>25.42</speed>
  <fix>3d</fix>
</trkpt>
<trkpt lat="-27.2736565" lon="151.2851283">
  <ele>428.5</ele>
  <time>2026-09-01T19:54:26Z</time>
  <course>272.8</course>
  <speed>25.386975006880988</speed>
  <fix>3d</fix>
</trkpt>
<trkpt lat="-27.2736586" lon="151.2851759">
  <ele>428.09</ele>
  <time>2026-09-01T19:54:26Z</time>
  <course>272.57</course>
  <speed>25.43</speed>
  <fix>3d</fix>
</trkpt>
<trkpt lat="-27.2736555" lon="151.2851027">
  <ele>428.71</ele>
  <time>2026-09-01T19:54:26Z</time>
  <course>272.8</course>
  <speed>25.386975006880988</speed>
  <fix>3d</fix>
</trkpt>
<trkpt lat="-27.2736586" lon="151.2851759">
  <ele>428.09</ele>
  <time>2026-09-01T19:54:26Z</time>
  <course>272.57</course>
  <speed>25.43</speed>
  <fix>3d</fix>
</trkpt>
<trkpt lat="-27.2736544" lon="151.2850772">
  <ele>428.93</ele>
  <time>2026-09-01T19:54:26Z</time>
  <course>272.83</course>
  <speed>25.376985636596004</speed>
  <fix>3d</fix>
</trkpt>
<trkpt lat="-27.2736565" lon="151.2851246">
  <ele>428.52</ele>
  <time>2026-09-01T19:54:26Z</time>
  <course>272.57</course>
  <speed>25.43</speed>
  <fix>3d</fix>
</trkpt>
<trkpt lat="-27.2736534" lon="151.2850516">
  <ele>429.15</ele>
  <time>2026-09-01T19:54:26Z</time>
  <course>272.87</course>
  <speed>25.386975006880988</speed>
  <fix>3d</fix>
</trkpt>
<trkpt lat="-27.2736565" lon="151.2851246">
  <ele>428.52</ele>
  <time>2026-09-01T19:54:26Z</time>
  <course>272.57</course>
  <speed>25.43</speed>
  <fix>3d</fix>
</trkpt>
<trkpt lat="-27.2736524" lon="151.285026">
  <ele>429.36</ele>
  <time>2026-09-01T19:54:26Z</time>
  <course>272.89</course>
  <speed>25.38651610599611</speed>
  <fix>3d</fix>
</trkpt>
<trkpt lat="-27.2736545" lon="151.2850733">
  <ele>428.96</ele>
  <time>2026-09-01T19:54:26Z</time>
  <course>272.57</course>
  <speed>25.43</speed>
  <fix>3d</fix>
</trkpt>
<trkpt lat="-27.2736514" lon="151.2850004">
  <ele>429.57</ele>
  <time>2026-09-01T19:54:26Z</time>
  <course>272.93</course>
  <speed>25.386975006880988</speed>
  <fix>3d</fix>
</trkpt>
<trkpt lat="-27.2736545" lon="151.2850733">
  <ele>428.96</ele>
  <time>2026-09-01T19:54:26Z</time>
  <course>272.57</course>
  <speed>25.43</speed>
  <fix>3d</fix>
</trkpt>
<trkpt lat="-27.2736503" lon="151.2849747">
  <ele>429.79</ele>
  <time>2026-09-01T19:54:26Z</time>
  <course>272.92</course>
  <speed>25.386975006880988</speed>
  <fix>3d</fix>
</trkpt>
<trkpt lat="-27.2736524" lon="151.285022">
  <ele>429.39</ele>
  <time>2026-09-01T19:54:26Z</time>
  <course>272.56</course>
  <speed>25.44</speed>
  <fix>3d</fix>
</trkpt>
<trkpt lat="-27.2736493" lon="151.2849491">
  <ele>430.01</ele>
  <time>2026-09-01T19:54:26Z</time>
  <course>273.2</course>
  <speed>25.377448650327324</speed>
  <fix>3d</fix>
</trkpt>
<trkpt lat="-27.2736524" lon="151.285022">
  <ele>429.39</ele>
  <time>2026-09-01T19:54:26Z</time>
  <course>272.56</course>
  <speed>25.44</speed>
  <fix>3d</fix>
</trkpt>
<trkpt lat="-27.2736483" lon="151.2849235">
  <ele>430.24</ele>
  <time>2026-09-01T19:54:26Z</time>
  <course>273.73</course>
  <speed>25.379340022939918</speed>
  <fix>3d</fix>
</trkpt>
<trkpt lat="-27.2736504" lon="151.2849706">
  <ele>429.83</ele>
  <time>2026-09-01T19:54:26Z</time>
  <course>272.57</course>
  <speed>25.44</speed>
  <fix>3d</fix>
</trkpt>
<trkpt lat="-27.2736471" lon="151.2848979">
  <ele>430.47</ele>
  <time>2026-09-01T19:54:26Z</time>
  <course>274.43</course>
  <speed>25.37646941558262</speed>
  <fix>3d</fix>
</trkpt>
<trkpt lat="-27.2736504" lon="151.2849706">
  <ele>429.83</ele>
  <time>2026-09-01T19:54:26Z</time>
  <course>272.57</course>
  <speed>25.44</speed>
  <fix>3d</fix>
</trkpt>
<trkpt lat="-27.2736458" lon="151.2848721">
  <ele>430.71</ele>
  <time>2026-09-01T19:54:26Z</time>
  <course>275.15</course>
  <speed>25.37305657582468</speed>
  <fix>3d</fix>
</trkpt>
<trkpt lat="-27.2736483" lon="151.2849192">
  <ele>430.28</ele>
  <time>2026-09-01T19:54:26Z</time>
  <course>272.77</course>
  <speed>25.44</speed>
  <fix>3d</fix>
</trkpt>
<trkpt lat="-27.2736442" lon="151.2848465">
  <ele>430.95</ele>
  <time>2026-09-01T19:54:26Z</time>
  <course>275.73</course>
  <speed>25.364607231337132</speed>
  <fix>3d</fix>
</trkpt>
<trkpt lat="-27.2736483" lon="151.2849192">
  <ele>430.28</ele>
  <time>2026-09-01T19:54:26Z</time>
  <course>272.77</course>
  <speed>25.44</speed>
  <fix>3d</fix>
</trkpt>
<trkpt lat="-27.2736421" lon="151.2848209">
  <ele>431.19</ele>
  <time>2026-09-01T19:54:26Z</time>
  <course>276.37</course>
  <speed>25.378733222917177</speed>
  <fix>3d</fix>
</trkpt>
<trkpt lat="-27.2736457" lon="151.2848679">
  <ele>430.75</ele>
  <time>2026-09-01T19:54:26Z</time>
  <course>273.75</course>
  <speed>25.43</speed>
  <fix>3d</fix>
</trkpt>
<trkpt lat="-27.2736394" lon="151.2847955">
  <ele>431.43</ele>
  <time>2026-09-01T19:54:26Z</time>
  <course>277.43</course>
  <speed>25.408510385302005</speed>
  <fix>3d</fix>
</trkpt>
<trkpt lat="-27.2736457" lon="151.2848679">
  <ele>430.75</ele>
  <time>2026-09-01T19:54:26Z</time>
  <course>273.75</course>
  <speed>25.43</speed>
  <fix>3d</fix>
</trkpt>
<trkpt lat="-27.273636" lon="151.28477">
  <ele>431.67</ele>
  <time>2026-09-01T19:54:26Z</time>
  <course>279.15</course>
  <speed>25.442887021719844</speed>
  <fix>3d</fix>
</trkpt>
<trkpt lat="-27.2736419" lon="151.2848166">
  <ele>431.23</ele>
  <time>2026-09-01T19:54:26Z</time>
  <course>276.02</course>
  <speed>25.45</speed>
  <fix>3d</fix>
</trkpt>
<trkpt lat="-27.2736316" lon="151.2847448">
  <ele>431.92</ele>
  <time>2026-09-01T19:54:26Z</time>
  <course>281.49</course>
  <speed>25.49804110122972</speed>
  <fix>3d</fix>
</trkpt>
<trkpt lat="-27.2736419" lon="151.2848166">
  <ele>431.23</ele>
  <time>2026-09-01T19:54:26Z</time>
  <course>276.02</course>
  <speed>25.45</speed>
  <fix>3d</fix>
</trkpt>
<trkpt lat="-27.2736262" lon="151.2847197">
  <ele>432.18</ele>
  <time>2026-09-01T19:54:26Z</time>
  <course>284.34</course>
  <speed>25.558436963163455</speed>
  <fix>3d</fix>
</trkpt>
<trkpt lat="-27.2736357" lon="151.2847655">
  <ele>431.72</ele>
  <time>2026-09-01T19:54:26Z</time>
  <course>279.86</course>
  <speed>25.51</speed>
  <fix>3d</fix>
</trkpt>
<trkpt lat="-27.2736195" lon="151.2846949">
  <ele>432.47</ele>
  <time>2026-09-01T19:54:26Z</time>
  <course>287.56</course>
  <speed>25.60835020066697</speed>
  <fix>3d</fix>
</trkpt>
<trkpt lat="-27.2736357" lon="151.2847655">
  <ele>431.72</ele>
  <time>2026-09-01T19:54:26Z</time>
  <course>279.86</course>
  <speed>25.51</speed>
  <fix>3d</fix>
</trkpt>
<trkpt lat="-27.2736116" lon="151.2846706">
  <ele>432.79</ele>
  <time>2026-09-01T19:54:26Z</time>
  <course>291.08</course>
  <speed>25.63938571807055</speed>
  <fix>3d</fix>
</trkpt>
<trkpt lat="-27.2736258" lon="151.2847151">
  <ele>432.23</ele>
  <time>2026-09-01T19:54:26Z</time>
  <course>285.31</course>
  <speed>25.61</speed>
  <fix>3d</fix>
</trkpt>
<trkpt lat="-27.2736023" lon="151.2846469">
  <ele>433.14</ele>
  <time>2026-09-01T19:54:26Z</time>
  <course>294.56</course>
  <speed>25.65519050796544</speed>
  <fix>3d</fix>
</trkpt>
<trkpt lat="-27.2736258" lon="151.2847151">
  <ele>432.23</ele>
  <time>2026-09-01T19:54:26Z</time>
  <course>285.31</course>
  <speed>25.61</speed>
  <fix>3d</fix>
</trkpt>
<trkpt lat="-27.2735918" lon="151.2846238">
  <ele>433.52</ele>
  <time>2026-09-01T19:54:26Z</time>
  <course>298.0</course>
  <speed>25.639120499736336</speed>
  <fix>3d</fix>
</trkpt>
<trkpt lat="-27.2736111" lon="151.2846659">
  <ele>432.84</ele>
  <time>2026-09-01T19:54:26Z</time>
  <course>291.9</course>
  <speed>25.69</speed>
  <fix>3d</fix>
</trkpt>
<trkpt lat="-27.2735801" lon="151.2846015">
  <ele>433.94</ele>
  <time>2026-09-01T19:54:26Z</time>
  <course>301.41</course>
  <speed>25.62831441979749</speed>
  <fix>3d</fix>
</trkpt>
<trkpt lat="-27.2736111" lon="151.2846659">
  <ele>432.84</ele>
  <time>2026-09-01T19:54:26Z</time>
  <course>291.9</course>
  <speed>25.69</speed>
  <fix>3d</fix>
</trkpt>
<trkpt lat="-27.2735673" lon="151.28458">
  <ele>434.38</ele>
  <time>2026-09-01T19:54:26Z</time>
  <course>304.65</course>
  <speed>25.624445359851208</speed>
  <fix>3d</fix>
</trkpt>
<trkpt lat="-27.2735913" lon="151.284619">
  <ele>433.57</ele>
  <time>2026-09-01T19:54:26Z</time>
  <course>298.9</course>
  <speed>25.7</speed>
  <fix>3d</fix>
</trkpt>
<trkpt lat="-27.2735534" lon="151.2845593">
  <ele>434.85</ele>
  <time>2026-09-01T19:54:26Z</time>
  <course>307.79</course>
  <speed>25.601814388827993</speed>
  <fix>3d</fix>
</trkpt>
<trkpt lat="-27.2735913" lon="151.284619">
  <ele>433.57</ele>
  <time>2026-09-01T19:54:26Z</time>
  <course>298.9</course>
  <speed>25.7</speed>
  <fix>3d</fix>
</trkpt>
<trkpt lat="-27.2735385" lon="151.2845396">
  <ele>435.33</ele>
  <time>2026-09-01T19:54:26Z</time>
  <course>310.94</course>
  <speed>25.613654561581015</speed>
  <fix>3d</fix>
</trkpt>
<trkpt lat="-27.2735666" lon="151.2845752">
  <ele>434.42</ele>
  <time>2026-09-01T19:54:26Z</time>
  <course>305.76</course>
  <speed>25.67</speed>
  <fix>3d</fix>
</trkpt>
<trkpt lat="-27.2735226" lon="151.2845208">
  <ele>435.82</ele>
  <time>2026-09-01T19:54:26Z</time>
  <course>313.93</course>
  <speed>25.620454718837447</speed>
  <fix>3d</fix>
</trkpt>
<trkpt lat="-27.2735666" lon="151.2845752">
  <ele>434.42</ele>
  <time>2026-09-01T19:54:26Z</time>
  <course>305.76</course>
  <speed>25.67</speed>
  <fix>3d</fix>
</trkpt>
<trkpt lat="-27.2735059" lon="151.284503">
  <ele>436.33</ele>
  <time>2026-09-01T19:54:26Z</time>
  <course>316.92</course>
  <speed>25.631825920132965</speed>
  <fix>3d</fix>
</trkpt>
<trkpt lat="-27.2735376" lon="151.284535">
  <ele>435.37</ele>
  <time>2026-09-01T19:54:26Z</time>
  <course>312.33</course>
  <speed>25.65</speed>
  <fix>3d</fix>
</trkpt>
<trkpt lat="-27.2734884" lon="151.2844863">
  <ele>436.84</ele>
  <time>2026-09-01T19:54:26Z</time>
  <course>320.03</course>
  <speed>25.64356059520596</speed>
  <fix>3d</fix>
</trkpt>
<trkpt lat="-27.2735376" lon="151.284535">
  <ele>435.37</ele>
  <time>2026-09-01T19:54:26Z</time>
  <course>312.33</course>
  <speed>25.65</speed>
  <fix>3d</fix>
</trkpt>
<trkpt lat="-27.27347" lon="151.2844707">
  <ele>437.35</ele>
  <time>2026-09-01T19:54:26Z</time>
  <course>322.94</course>
  <speed>25.64769385344421</speed>
  <fix>3d</fix>
</trkpt>
<trkpt lat="-27.2735047" lon="151.2844987">
  <ele>436.36</ele>
  <time>2026-09-01T19:54:26Z</time>
  <course>318.68</course>
  <speed>25.64</speed>
  <fix>3d</fix>
</trkpt>
<trkpt lat="-27.273451" lon="151.2844561">
  <ele>437.87</ele>
  <time>2026-09-01T19:54:26Z</time>
  <course>325.74</course>
  <speed>25.671034260426673</speed>
  <fix>3d</fix>
</trkpt>
<trkpt lat="-27.2735047" lon="151.2844987">
  <ele>436.36</ele>
  <time>2026-09-01T19:54:26Z</time>
  <course>318.68</course>
  <speed>25.64</speed>
  <fix>3d</fix>
</trkpt>
<trkpt lat="-27.2734315" lon="151.2844428">
  <ele>438.38</ele>
  <time>2026-09-01T19:54:26Z</time>
  <course>328.43</course>
  <speed>25.688674547356467</speed>
  <fix>3d</fix>
</trkpt>
<trkpt lat="-27.2734685" lon="151.2844667">
  <ele>437.37</ele>
  <time>2026-09-01T19:54:26Z</time>
  <course>324.87</course>
  <speed>25.65</speed>
  <fix>3d</fix>
</trkpt>
<trkpt lat="-27.2734112" lon="151.2844305">
  <ele>438.89</ele>
  <time>2026-09-01T19:54:26Z</time>
  <course>331.13</course>
  <speed>25.73268932700195</speed>
  <fix>3d</fix>
</trkpt>
<trkpt lat="-27.2734685" lon="151.2844667">
  <ele>437.37</ele>
  <time>2026-09-01T19:54:26Z</time>
  <course>324.87</course>
  <speed>25.65</speed>
  <fix>3d</fix>
</trkpt>
<trkpt lat="-27.2733904" lon="151.2844192">
  <ele>439.39</ele>
  <time>2026-09-01T19:54:26Z</time>
  <course>333.75</course>
  <speed>25.74821547214486</speed>
  <fix>3d</fix>
</trkpt>
<trkpt lat="-27.2734295" lon="151.2844391">
  <ele>438.38</ele>
  <time>2026-09-01T19:54:26Z</time>
  <course>330.76</course>
  <speed>25.69</speed>
  <fix>3d</fix>
</trkpt>
<trkpt lat="-27.2733692" lon="151.284409">
  <ele>439.88</ele>
  <time>2026-09-01T19:54:26Z</time>
  <course>336.13</course>
  <speed>25.754941273472163</speed>
  <fix>3d</fix>
</trkpt>
<trkpt lat="-27.2734295" lon="151.2844391">
  <ele>438.38</ele>
  <time>2026-09-01T19:54:26Z</time>
  <course>330.76</course>
  <speed>25.69</speed>
  <fix>3d</fix>
</trkpt>
<trkpt lat="-27.2733476" lon="151.2843999">
  <ele>440.36</ele>
  <time>2026-09-01T19:54:27Z</time>
  <course>338.34</course>
  <speed>25.761094697236764</speed>
  <fix>3d</fix>
</trkpt>
<trkpt lat="-27.2733881" lon="151.2844159">
  <ele>439.38</ele>
  <time>2026-09-01T19:54:27Z</time>
  <course>336.2</course>
  <speed>25.73</speed>
  <fix>3d</fix>
</trkpt>
<trkpt lat="-27.2733255" lon="151.2843917">
  <ele>440.82</ele>
  <time>2026-09-01T19:54:27Z</time>
  <course>340.66</course>
  <speed>25.755948827406847</speed>
  <fix>3d</fix>
</trkpt>
<trkpt lat="-27.2733881" lon="151.2844159">
  <ele>439.38</ele>
  <time>2026-09-01T19:54:27Z</time>
  <course>336.2</course>
  <speed>25.73</speed>
  <fix>3d</fix>
</trkpt>
<trkpt lat="-27.2733034" lon="151.2843845">
  <ele>441.26</ele>
  <time>2026-09-01T19:54:27Z</time>
  <course>342.82</course>
  <speed>25.736186586205815</speed>
  <fix>3d</fix>
</trkpt>
<trkpt lat="-27.2733449" lon="151.284397">
  <ele>440.34</ele>
  <time>2026-09-01T19:54:27Z</time>
  <course>341.17</course>
  <speed>25.75</speed>
  <fix>3d</fix>
</trkpt>
<trkpt lat="-27.2732808" lon="151.2843783">
  <ele>441.69</ele>
  <time>2026-09-01T19:54:27Z</time>
  <course>344.83</course>
  <speed>25.726970284120124</speed>
  <fix>3d</fix>
</trkpt>
<trkpt lat="-27.2733449" lon="151.284397">
  <ele>440.34</ele>
  <time>2026-09-01T19:54:27Z</time>
  <course>341.17</course>
  <speed>25.75</speed>
  <fix>3d</fix>
</trkpt>
<trkpt lat="-27.2732583" lon="151.284373">
  <ele>442.09</ele>
  <time>2026-09-01T19:54:27Z</time>
  <course>346.89</course>
  <speed>25.716572477684505</speed>
  <fix>3d</fix>
</trkpt>
<trkpt lat="-27.2733006" lon="151.2843822">
  <ele>441.23</ele>
  <time>2026-09-01T19:54:27Z</time>
  <course>345.69</course>
  <speed>25.75</speed>
  <fix>3d</fix>
</trkpt>
<trkpt lat="-27.2732356" lon="151.2843687">
  <ele>442.46</ele>
  <time>2026-09-01T19:54:27Z</time>
  <course>349.02</course>
  <speed>25.686426376590422</speed>
  <fix>3d</fix>
</trkpt>
<trkpt lat="-27.2733006" lon="151.2843822">
  <ele>441.23</ele>
  <time>2026-09-01T19:54:27Z</time>
  <course>345.69</course>
  <speed>25.75</speed>
  <fix>3d</fix>
</trkpt>
<trkpt lat="-27.2732128" lon="151.2843653">
  <ele>442.8</ele>
  <time>2026-09-01T19:54:27Z</time>
  <course>350.91</course>
  <speed>25.66103076651443</speed>
  <fix>3d</fix>
</trkpt>
<trkpt lat="-27.2732554" lon="151.2843712">
  <ele>442.03</ele>
  <time>2026-09-01T19:54:27Z</time>
  <course>349.94</course>
  <speed>25.73</speed>
  <fix>3d</fix>
</trkpt>
<trkpt lat="-27.2731899" lon="151.2843629">
  <ele>443.12</ele>
  <time>2026-09-01T19:54:27Z</time>
  <course>352.83</course>
  <speed>25.63126411240772</speed>
  <fix>3d</fix>
</trkpt>
<trkpt lat="-27.2732554" lon="151.2843712">
  <ele>442.03</ele>
  <time>2026-09-01T19:54:27Z</time>
  <course>349.94</course>
  <speed>25.73</speed>
  <fix>3d</fix>
</trkpt>
<trkpt lat="-27.273167" lon="151.2843613">
  <ele>443.42</ele>
  <time>2026-09-01T19:54:27Z</time>
  <course>354.75</course>
  <speed>25.5915493864674</speed>
  <fix>3d</fix>
</trkpt>
<trkpt lat="-27.2732097" lon="151.2843641">
  <ele>442.72</ele>
  <time>2026-09-01T19:54:27Z</time>
  <course>354.01</course>
  <speed>25.69</speed>
  <fix>3d</fix>
</trkpt>
<trkpt lat="-27.2731441" lon="151.2843606">
  <ele>443.68</ele>
  <time>2026-09-01T19:54:27Z</time>
  <course>356.59</course>
  <speed>25.56094677432743</speed>
  <fix>3d</fix>
</trkpt>
<trkpt lat="-27.2732097" lon="151.2843641">
  <ele>442.72</ele>
  <time>2026-09-01T19:54:27Z</time>
  <course>354.01</course>
  <speed>25.69</speed>
  <fix>3d</fix>
</trkpt>
<trkpt lat="-27.2731212" lon="151.2843607">
  <ele>443.91</ele>
  <time>2026-09-01T19:54:27Z</time>
  <course>358.38</course>
  <speed>25.526590058211852</speed>
  <fix>3d</fix>
</trkpt>
<trkpt lat="-27.2731637" lon="151.2843604">
  <ele>443.32</ele>
  <time>2026-09-01T19:54:27Z</time>
  <course>357.9</course>
  <speed>25.64</speed>
  <fix>3d</fix>
</trkpt>
<trkpt lat="-27.2730983" lon="151.2843616">
  <ele>444.12</ele>
  <time>2026-09-01T19:54:27Z</time>
  <course>0.28</course>
  <speed>25.48793047699244</speed>
  <fix>3d</fix>
</trkpt>
<trkpt lat="-27.2731637" lon="151.2843604">
  <ele>443.32</ele>
  <time>2026-09-01T19:54:27Z</time>
  <course>357.9</course>
  <speed>25.64</speed>
  <fix>3d</fix>
</trkpt>
<trkpt lat="-27.2730755" lon="151.2843634">
  <ele>444.29</ele>
  <time>2026-09-01T19:54:27Z</time>
  <course>2.11</course>
  <speed>25.456113214707383</speed>
  <fix>3d</fix>
</trkpt>
<trkpt lat="-27.2731177" lon="151.2843601">
  <ele>443.8</ele>
  <time>2026-09-01T19:54:27Z</time>
  <course>1.63</course>
  <speed>25.57</speed>
  <fix>3d</fix>
</trkpt>
<trkpt lat="-27.2730528" lon="151.2843659">
  <ele>444.43</ele>
  <time>2026-09-01T19:54:27Z</time>
  <course>3.93</course>
  <speed>25.420031471262973</speed>
  <fix>3d</fix>
</trkpt>
<trkpt lat="-27.2731177" lon="151.2843601">
  <ele>443.8</ele>
  <time>2026-09-01T19:54:27Z</time>
  <course>1.63</course>
  <speed>25.57</speed>
  <fix>3d</fix>
</trkpt>
<trkpt lat="-27.2730302" lon="151.2843693">
  <ele>444.55</ele>
  <time>2026-09-01T19:54:27Z</time>
  <course>5.76</course>
  <speed>25.389021249351067</speed>
  <fix>3d</fix>
</trkpt>
<trkpt lat="-27.273072" lon="151.2843633">
  <ele>444.17</ele>
  <time>2026-09-01T19:54:27Z</time>
  <course>5.29</course>
  <speed>25.51</speed>
  <fix>3d</fix>
</trkpt>
<trkpt lat="-27.2730077" lon="151.2843736">
  <ele>444.65</ele>
  <time>2026-09-01T19:54:27Z</time>
  <course>7.59</course>
  <speed>25.354472978155155</speed>
  <fix>3d</fix>
</trkpt>
<trkpt lat="-27.273072" lon="151.2843633">
  <ele>444.17</ele>
  <time>2026-09-01T19:54:27Z</time>
  <course>5.29</course>
  <speed>25.51</speed>
  <fix>3d</fix>
</trkpt>
<trkpt lat="-27.2729854" lon="151.2843786">
  <ele>444.71</ele>
  <time>2026-09-01T19:54:27Z</time>
  <course>9.45</course>
  <speed>25.334375855741936</speed>
  <fix>3d</fix>
</trkpt>
<trkpt lat="-27.2730266" lon="151.2843697">
  <ele>444.43</ele>
  <time>2026-09-01T19:54:27Z</time>
  <course>8.96</course>
  <speed>25.45</speed>
  <fix>3d</fix>
</trkpt>
<trkpt lat="-27.2729634" lon="151.2843844">
  <ele>444.75</ele>
  <time>2026-09-01T19:54:27Z</time>
  <course>11.34</course>
  <speed>25.32804177191754</speed>
  <fix>3d</fix>
</trkpt>
<trkpt lat="-27.2730266" lon="151.2843697">
  <ele>444.43</ele>
  <time>2026-09-01T19:54:27Z</time>
  <course>8.96</course>
  <speed>25.45</speed>
  <fix>3d</fix>
</trkpt>
<trkpt lat="-27.2729415" lon="151.284391">
  <ele>444.77</ele>
  <time>2026-09-01T19:54:27Z</time>
  <course>13.33</course>
  <speed>25.307358613652276</speed>
  <fix>3d</fix>
</trkpt>
<trkpt lat="-27.2729817" lon="151.2843793">
  <ele>444.59</ele>
  <time>2026-09-01T19:54:27Z</time>
  <course>12.62</course>
  <speed>25.41</speed>
  <fix>3d</fix>
</trkpt>
<trkpt lat="-27.2729197" lon="151.2843985">
  <ele>444.77</ele>
  <time>2026-09-01T19:54:27Z</time>
  <course>15.37</course>
  <speed>25.302025610610702</speed>
  <fix>3d</fix>
</trkpt>
<trkpt lat="-27.2729817" lon="151.2843793">
  <ele>444.59</ele>
  <time>2026-09-01T19:54:27Z</time>
  <course>12.62</course>
  <speed>25.41</speed>
  <fix>3d</fix>
</trkpt>
<trkpt lat="-27.2728982" lon="151.2844068">
  <ele>444.75</ele>
  <time>2026-09-01T19:54:27Z</time>
  <course>17.39</course>
  <speed>25.292419813058615</speed>
  <fix>3d</fix>
</trkpt>
<trkpt lat="-27.2729375" lon="151.2843921">
  <ele>444.65</ele>
  <time>2026-09-01T19:54:27Z</time>
  <course>16.38</course>
  <speed>25.38</speed>
  <fix>3d</fix>
</trkpt>
<trkpt lat="-27.2728768" lon="151.2844161">
  <ele>444.71</ele>
  <time>2026-09-01T19:54:27Z</time>
  <course>19.43</course>
  <speed>25.299486160789908</speed>
  <fix>3d</fix>
</trkpt>
<trkpt lat="-27.2729375" lon="151.2843921">
  <ele>444.65</ele>
  <time>2026-09-01T19:54:27Z</time>
  <course>16.38</course>
  <speed>25.38</speed>
  <fix>3d</fix>
</trkpt>
<trkpt lat="-27.2728559" lon="151.2844261">
  <ele>444.66</ele>
  <time>2026-09-01T19:54:27Z</time>
  <course>21.38</course>
  <speed>25.30860723153291</speed>
  <fix>3d</fix>
</trkpt>
<trkpt lat="-27.2728942" lon="151.2844083">
  <ele>444.63</ele>
  <time>2026-09-01T19:54:27Z</time>
  <course>20.34</course>
  <speed>25.37</speed>
  <fix>3d</fix>
</trkpt>
<trkpt lat="-27.2728353" lon="151.284437">
  <ele>444.6</ele>
  <time>2026-09-01T19:54:27Z</time>
  <course>23.47</course>
  <speed>25.312921601427206</speed>
  <fix>3d</fix>
</trkpt>
<trkpt lat="-27.2728942" lon="151.2844083">
  <ele>444.63</ele>
  <time>2026-09-01T19:54:27Z</time>
  <course>20.34</course>
  <speed>25.37</speed>
  <fix>3d</fix>
</trkpt>
<trkpt lat="-27.2728143" lon="151.2844491">
  <ele>444.52</ele>
  <time>2026-09-01T19:54:27Z</time>
  <course>25.66</course>
  <speed>25.323704310388717</speed>
  <fix>3d</fix>
</trkpt>
<trkpt lat="-27.272852" lon="151.2844278">
  <ele>444.55</ele>
  <time>2026-09-01T19:54:27Z</time>
  <course>24.37</course>
  <speed>25.38</speed>
  <fix>3d</fix>
</trkpt>
<trkpt lat="-27.2727944" lon="151.2844616">
  <ele>444.44</ele>
  <time>2026-09-01T19:54:27Z</time>
  <course>27.75</course>
  <speed>25.34547296855989</speed>
  <fix>3d</fix>
</trkpt>
<trkpt lat="-27.272852" lon="151.2844278">
  <ele>444.55</ele>
  <time>2026-09-01T19:54:27Z</time>
  <course>24.37</course>
  <speed>25.38</speed>
  <fix>3d</fix>
</trkpt>
<trkpt lat="-27.2727751" lon="151.2844748">
  <ele>444.35</ele>
  <time>2026-09-01T19:54:27Z</time>
  <course>29.76</course>
  <speed>25.358947139027677</speed>
  <fix>3d</fix>
</trkpt>
<trkpt lat="-27.2728111" lon="151.2844506">
  <ele>444.42</ele>
  <time>2026-09-01T19:54:27Z</time>
  <course>28.44</course>
  <speed>25.4</speed>
  <fix>3d</fix>
</trkpt>
<trkpt lat="-27.272756" lon="151.2844889">
  <ele>444.25</ele>
  <time>2026-09-01T19:54:27Z</time>
  <course>31.73</course>
  <speed>25.376906824906772</speed>
  <fix>3d</fix>
</trkpt>
<trkpt lat="-27.2728111" lon="151.2844506">
  <ele>444.42</ele>
  <time>2026-09-01T19:54:27Z</time>
  <course>28.44</course>
  <speed>25.4</speed>
  <fix>3d</fix>
</trkpt>
<trkpt lat="-27.2727374" lon="151.2845038">
  <ele>444.15</ele>
  <time>2026-09-01T19:54:27Z</time>
  <course>33.67</course>
  <speed>25.39485184048137</speed>
  <fix>3d</fix>
</trkpt>
<trkpt lat="-27.2727718" lon="151.2844767">
  <ele>444.26</ele>
  <time>2026-09-01T19:54:27Z</time>
  <course>32.53</course>
  <speed>25.43</speed>
  <fix>3d</fix>
</trkpt>
<trkpt lat="-27.2727192" lon="151.2845194">
  <ele>444.04</ele>
  <time>2026-09-01T19:54:27Z</time>
  <course>35.59</course>
  <speed>25.414519472144267</speed>
  <fix>3d</fix>
</trkpt>
<trkpt lat="-27.2727718" lon="151.2844767">
  <ele>444.26</ele>
  <time>2026-09-01T19:54:27Z</time>
  <course>32.53</course>
  <speed>25.43</speed>
  <fix>3d</fix>
</trkpt>
<trkpt lat="-27.2727017" lon="151.2845353">
  <ele>443.94</ele>
  <time>2026-09-01T19:54:27Z</time>
  <course>37.43</course>
  <speed>25.43133500231555</speed>
  <fix>3d</fix>
</trkpt>
<trkpt lat="-27.2727342" lon="151.2845059">
  <ele>444.07</ele>
  <time>2026-09-01T19:54:27Z</time>
  <course>36.53</course>
  <speed>25.46</speed>
  <fix>3d</fix>
</trkpt>
<trkpt lat="-27.2726845" lon="151.2845523">
  <ele>443.82</ele>
  <time>2026-09-01T19:54:27Z</time>
  <course>39.21</course>
  <speed>25.44742816081814</speed>
  <fix>3d</fix>
</trkpt>
<trkpt lat="-27.2727342" lon="151.2845059">
  <ele>444.07</ele>
  <time>2026-09-01T19:54:27Z</time>
  <course>36.53</course>
  <speed>25.46</speed>
  <fix>3d</fix>
</trkpt>
<trkpt lat="-27.2726676" lon="151.2845698">
  <ele>443.71</ele>
  <time>2026-09-01T19:54:27Z</time>
  <course>40.94</course>
  <speed>25.46151605855394</speed>
  <fix>3d</fix>
</trkpt>
<trkpt lat="-27.2726983" lon="151.2845379">
  <ele>443.87</ele>
  <time>2026-09-01T19:54:27Z</time>
  <course>40.34</course>
  <speed>25.49</speed>
  <fix>3d</fix>
</trkpt>
<trkpt lat="-27.2726513" lon="151.2845878">
  <ele>443.59</ele>
  <time>2026-09-01T19:54:27Z</time>
  <course>42.57</course>
  <speed>25.47086963572308</speed>
  <fix>3d</fix>
</trkpt>
<trkpt lat="-27.2726983" lon="151.2845379">
  <ele>443.87</ele>
  <time>2026-09-01T19:54:27Z</time>
  <course>40.34</course>
  <speed>25.49</speed>
  <fix>3d</fix>
</trkpt>
<trkpt lat="-27.2726354" lon="151.2846064">
  <ele>443.47</ele>
  <time>2026-09-01T19:54:27Z</time>
  <course>44.18</course>
  <speed>25.493891425202232</speed>
  <fix>3d</fix>
</trkpt>
<trkpt lat="-27.2726643" lon="151.2845725">
  <ele>443.65</ele>
  <time>2026-09-01T19:54:27Z</time>
  <course>43.91</course>
  <speed>25.52</speed>
  <fix>3d</fix>
</trkpt>
<trkpt lat="-27.27262" lon="151.2846255">
  <ele>443.35</ele>
  <time>2026-09-01T19:54:27Z</time>
  <course>45.71</course>
  <speed>25.500237253798247</speed>
  <fix>3d</fix>
</trkpt>
<trkpt lat="-27.2726643" lon="151.2845725">
  <ele>443.65</ele>
  <time>2026-09-01T19:54:27Z</time>
  <course>43.91</course>
  <speed>25.52</speed>
  <fix>3d</fix>
</trkpt>
<trkpt lat="-27.272605" lon="151.2846451">
  <ele>443.23</ele>
  <time>2026-09-01T19:54:27Z</time>
  <course>47.22</course>
  <speed>25.50753810151031</speed>
  <fix>3d</fix>
</trkpt>
<trkpt lat="-27.2726323" lon="151.2846093">
  <ele>443.44</ele>
  <time>2026-09-01T19:54:27Z</time>
  <course>47.21</course>
  <speed>25.55</speed>
  <fix>3d</fix>
</trkpt>
<trkpt lat="-27.2725904" lon="151.2846651">
  <ele>443.12</ele>
  <time>2026-09-01T19:54:27Z</time>
  <course>48.58</course>
  <speed>25.52204537257937</speed>
  <fix>3d</fix>
</trkpt>
<trkpt lat="-27.2726323" lon="151.2846093">
  <ele>443.44</ele>
  <time>2026-09-01T19:54:27Z</time>
  <course>47.21</course>
  <speed>25.55</speed>
  <fix>3d</fix>
</trkpt>
<trkpt lat="-27.2725764" lon="151.2846853">
  <ele>443.0</ele>
  <time>2026-09-01T19:54:27Z</time>
  <course>49.8</course>
  <speed>25.52846450533208</speed>
  <fix>3d</fix>
</trkpt>
<trkpt lat="-27.272602" lon="151.2846482">
  <ele>443.21</ele>
  <time>2026-09-01T19:54:27Z</time>
  <course>50.22</course>
  <speed>25.56</speed>
  <fix>3d</fix>
</trkpt>
<trkpt lat="-27.2725626" lon="151.2847061">
  <ele>442.88</ele>
  <time>2026-09-01T19:54:27Z</time>
  <course>50.94</course>
  <speed>25.534739082277696</speed>
  <fix>3d</fix>
</trkpt>
<trkpt lat="-27.272602" lon="151.2846482">
  <ele>443.21</ele>
  <time>2026-09-01T19:54:27Z</time>
  <course>50.22</course>
  <speed>25.56</speed>
  <fix>3d</fix>
</trkpt>
<trkpt lat="-27.2725492" lon="151.2847271">
  <ele>442.77</ele>
  <time>2026-09-01T19:54:27Z</time>
  <course>52.03</course>
  <speed>25.542014407638252</speed>
  <fix>3d</fix>
</trkpt>
<trkpt lat="-27.2725735" lon="151.2846887">
  <ele>442.99</ele>
  <time>2026-09-01T19:54:27Z</time>
  <course>52.89</course>
  <speed>25.57</speed>
  <fix>3d</fix>
</trkpt>
<trkpt lat="-27.2725361" lon="151.2847484">
  <ele>442.65</ele>
  <time>2026-09-01T19:54:27Z</time>
  <course>53.07</course>
  <speed>25.549882582900455</speed>
  <fix>3d</fix>
</trkpt>
<trkpt lat="-27.2725735" lon="151.2846887">
  <ele>442.99</ele>
  <time>2026-09-01T19:54:27Z</time>
  <course>52.89</course>
  <speed>25.57</speed>
  <fix>3d</fix>
</trkpt>
<trkpt lat="-27.2725233" lon="151.2847702">
  <ele>442.52</ele>
  <time>2026-09-01T19:54:27Z</time>
  <course>54.1</course>
  <speed>25.55076515488333</speed>
  <fix>3d</fix>
</trkpt>
<trkpt lat="-27.2725465" lon="151.2847306">
  <ele>442.77</ele>
  <time>2026-09-01T19:54:27Z</time>
  <course>55.13</course>
  <speed>25.58</speed>
  <fix>3d</fix>
</trkpt>
<trkpt lat="-27.2725108" lon="151.2847919">
  <ele>442.4</ele>
  <time>2026-09-01T19:54:27Z</time>
  <course>54.93</course>
  <speed>25.556909046283355</speed>
  <fix>3d</fix>
</trkpt>
<trkpt lat="-27.2725465" lon="151.2847306">
  <ele>442.77</ele>
  <time>2026-09-01T19:54:27Z</time>
  <course>55.13</course>
  <speed>25.58</speed>
  <fix>3d</fix>
</trkpt>
<trkpt lat="-27.2724986" lon="151.2848139">
  <ele>442.28</ele>
  <time>2026-09-01T19:54:27Z</time>
  <course>55.79</course>
  <speed>25.57202377599395</speed>
  <fix>3d</fix>
</trkpt>
<trkpt lat="-27.2725208" lon="151.2847736">
  <ele>442.54</ele>
  <time>2026-09-01T19:54:27Z</time>
  <course>56.99</course>
  <speed>25.59</speed>
  <fix>3d</fix>
</trkpt>
<trkpt lat="-27.2724862" lon="151.2848368">
  <ele>442.16</ele>
  <time>2026-09-01T19:54:27Z</time>
  <course>56.58</course>
  <speed>25.580731029429163</speed>
  <fix>3d</fix>
</trkpt>
<trkpt lat="-27.2725208" lon="151.2847736">
  <ele>442.54</ele>
  <time>2026-09-01T19:54:27Z</time>
  <course>56.99</course>
  <speed>25.59</speed>
  <fix>3d</fix>
</trkpt>
<trkpt lat="-27.2724745" lon="151.2848588">
  <ele>442.04</ele>
  <time>2026-09-01T19:54:27Z</time>
  <course>57.27</course>
  <speed>25.59539020995773</speed>
  <fix>3d</fix>
</trkpt>
<trkpt lat="-27.2724963" lon="151.2848173">
  <ele>442.32</ele>
  <time>2026-09-01T19:54:27Z</time>
  <course>58.49</course>
  <speed>25.6</speed>
  <fix>3d</fix>
</trkpt>
<trkpt lat="-27.2724628" lon="151.2848812">
  <ele>441.92</ele>
  <time>2026-09-01T19:54:27Z</time>
  <course>57.89</course>
  <speed>25.613443735663505</speed>
  <fix>3d</fix>
</trkpt>
<trkpt lat="-27.2724963" lon="151.2848173">
  <ele>442.32</ele>
  <time>2026-09-01T19:54:27Z</time>
  <course>58.49</course>
  <speed>25.6</speed>
  <fix>3d</fix>
</trkpt>
<trkpt lat="-27.2724513" lon="151.2849037">
  <ele>441.81</ele>
  <time>2026-09-01T19:54:27Z</time>
  <course>58.43</course>
  <speed>25.621900788192903</speed>
  <fix>3d</fix>
</trkpt>
<trkpt lat="-27.2724727" lon="151.2848617">
  <ele>442.1</ele>
  <time>2026-09-01T19:54:27Z</time>
  <course>59.62</course>
  <speed>25.62</speed>
  <fix>3d</fix>
</trkpt>
<trkpt lat="-27.27244" lon="151.2849263">
  <ele>441.71</ele>
  <time>2026-09-01T19:54:27Z</time>
  <course>58.91</course>
  <speed>25.6373965136868</speed>
  <fix>3d</fix>
</trkpt>
<trkpt lat="-27.2724727" lon="151.2848617">
  <ele>442.1</ele>
  <time>2026-09-01T19:54:27Z</time>
  <course>59.62</course>
  <speed>25.62</speed>
  <fix>3d</fix>
</trkpt>
<trkpt lat="-27.2724287" lon="151.284949">
  <ele>441.61</ele>
  <time>2026-09-01T19:54:27Z</time>
  <course>59.28</course>
  <speed>25.655568596310626</speed>
  <fix>3d</fix>
</trkpt>
<trkpt lat="-27.2724497" lon="151.2849066">
  <ele>441.89</ele>
  <time>2026-09-01T19:54:27Z</time>
  <course>60.44</course>
  <speed>25.64</speed>
  <fix>3d</fix>
</trkpt>
<trkpt lat="-27.2724174" lon="151.2849719">
  <ele>441.51</ele>
  <time>2026-09-01T19:54:27Z</time>
  <course>59.5</course>
  <speed>25.6662443688203</speed>
  <fix>3d</fix>
</trkpt>
<trkpt lat="-27.2724497" lon="151.2849066">
  <ele>441.89</ele>
  <time>2026-09-01T19:54:27Z</time>
  <course>60.44</course>
  <speed>25.64</speed>
  <fix>3d</fix>
</trkpt>
<trkpt lat="-27.2724062" lon="151.2849946">
  <ele>441.42</ele>
  <time>2026-09-01T19:54:27Z</time>
  <course>59.76</course>
  <speed>25.68764878302411</speed>
  <fix>3d</fix>
</trkpt>
<trkpt lat="-27.2724272" lon="151.2849519">
  <ele>441.7</ele>
  <time>2026-09-01T19:54:27Z</time>
  <course>60.94</course>
  <speed>25.67</speed>
  <fix>3d</fix>
</trkpt>
<trkpt lat="-27.272395" lon="151.2850174">
  <ele>441.35</ele>
  <time>2026-09-01T19:54:27Z</time>
  <course>59.96</course>
  <speed>25.701239269731722</speed>
  <fix>3d</fix>
</trkpt>
<trkpt lat="-27.2724272" lon="151.2849519">
  <ele>441.7</ele>
  <time>2026-09-01T19:54:27Z</time>
  <course>60.94</course>
  <speed>25.67</speed>
  <fix>3d</fix>
</trkpt>
<trkpt lat="-27.2723838" lon="151.2850402">
  <ele>441.28</ele>
  <time>2026-09-01T19:54:27Z</time>
  <course>60.1</course>
  <speed>25.7070282218696</speed>
  <fix>3d</fix>
</trkpt>
<trkpt lat="-27.2724048" lon="151.2849973">
  <ele>441.53</ele>
  <time>2026-09-01T19:54:27Z</time>
  <course>61.12</course>
  <speed>25.7</speed>
  <fix>3d</fix>
</trkpt>
<trkpt lat="-27.2723725" lon="151.2850629">
  <ele>441.22</ele>
  <time>2026-09-01T19:54:27Z</time>
  <course>60.09</course>
  <speed>25.72745226406999</speed>
  <fix>3d</fix>
</trkpt>
<trkpt lat="-27.2724048" lon="151.2849973">
  <ele>441.53</ele>
  <time>2026-09-01T19:54:27Z</time>
  <course>61.12</course>
  <speed>25.7</speed>
  <fix>3d</fix>
</trkpt>
<trkpt lat="-27.2723612" lon="151.2850856">
  <ele>441.17</ele>
  <time>2026-09-01T19:54:27Z</time>
  <course>60.0</course>
  <speed>25.731634227153158</speed>
  <fix>3d</fix>
</trkpt>
<trkpt lat="-27.2723825" lon="151.2850428">
  <ele>441.4</ele>
  <time>2026-09-01T19:54:27Z</time>
  <course>61.04</course>
  <speed>25.72</speed>
  <fix>3d</fix>
</trkpt>
<trkpt lat="-27.2723499" lon="151.2851083">
  <ele>441.12</ele>
  <time>2026-09-01T19:54:27Z</time>
  <course>59.88</course>
  <speed>25.745993863123637</speed>
  <fix>3d</fix>
</trkpt>
<trkpt lat="-27.2723825" lon="151.2850428">
  <ele>441.4</ele>
  <time>2026-09-01T19:54:27Z</time>
  <course>61.04</course>
  <speed>25.72</speed>
  <fix>3d</fix>
</trkpt>
<trkpt lat="-27.2723387" lon="151.2851304">
  <ele>441.09</ele>
  <time>2026-09-01T19:54:27Z</time>
  <course>59.75</course>
  <speed>25.753403658545793</speed>
  <fix>3d</fix>
</trkpt>
<trkpt lat="-27.27236" lon="151.2850882">
  <ele>441.3</ele>
  <time>2026-09-01T19:54:27Z</time>
  <course>60.71</course>
  <speed>25.75</speed>
  <fix>3d</fix>
</trkpt>
<trkpt lat="-27.2723272" lon="151.2851527">
  <ele>441.07</ele>
  <time>2026-09-01T19:54:27Z</time>
  <course>59.57</course>
  <speed>25.757895876798635</speed>
  <fix>3d</fix>
</trkpt>
<trkpt lat="-27.27236" lon="151.2850882">
  <ele>441.3</ele>
  <time>2026-09-01T19:54:27Z</time>
  <course>60.71</course>
  <speed>25.75</speed>
  <fix>3d</fix>
</trkpt>
<trkpt lat="-27.2723155" lon="151.2851753">
  <ele>441.05</ele>
  <time>2026-09-01T19:54:27Z</time>
  <course>59.3</course>
  <speed>25.769881645052234</speed>
  <fix>3d</fix>
</trkpt>
<trkpt lat="-27.2723372" lon="151.2851335">
  <ele>441.23</ele>
  <time>2026-09-01T19:54:27Z</time>
  <course>60.15</course>
  <speed>25.77</speed>
  <fix>3d</fix>
</trkpt>
<trkpt lat="-27.2723036" lon="151.2851977">
  <ele>441.05</ele>
  <time>2026-09-01T19:54:27Z</time>
  <course>59.02</course>
  <speed>25.774532003510753</speed>
  <fix>3d</fix>
</trkpt>
<trkpt lat="-27.2723372" lon="151.2851335">
  <ele>441.23</ele>
  <time>2026-09-01T19:54:27Z</time>
  <course>60.15</course>
  <speed>25.77</speed>
  <fix>3d</fix>
</trkpt>
<trkpt lat="-27.2722916" lon="151.28522">
  <ele>441.05</ele>
  <time>2026-09-01T19:54:27Z</time>
  <course>58.64</course>
  <speed>25.773862729517283</speed>
  <fix>3d</fix>
</trkpt>
<trkpt lat="-27.2723139" lon="151.2851785">
  <ele>441.2</ele>
  <time>2026-09-01T19:54:27Z</time>
  <course>59.4</course>
  <speed>25.79</speed>
  <fix>3d</fix>
</trkpt>
<trkpt lat="-27.2722793" lon="151.2852424">
  <ele>441.06</ele>
  <time>2026-09-01T19:54:27Z</time>
  <course>58.39</course>
  <speed>25.78021334279451</speed>
  <fix>3d</fix>
</trkpt>
<trkpt lat="-27.2723139" lon="151.2851785">
  <ele>441.2</ele>
  <time>2026-09-01T19:54:27Z</time>
  <course>59.4</course>
  <speed>25.79</speed>
  <fix>3d</fix>
</trkpt>
<trkpt lat="-27.2722669" lon="151.2852645">
  <ele>441.08</ele>
  <time>2026-09-01T19:54:27Z</time>
  <course>58.38</course>
  <speed>25.777703543954416</speed>
  <fix>3d</fix>
</trkpt>
<trkpt lat="-27.2722899" lon="151.2852233">
  <ele>441.21</ele>
  <time>2026-09-01T19:54:27Z</time>
  <course>58.5</course>
  <speed>25.8</speed>
  <fix>3d</fix>
</trkpt>
<trkpt lat="-27.2722544" lon="151.2852866">
  <ele>441.1</ele>
  <time>2026-09-01T19:54:27Z</time>
  <course>58.51</course>
  <speed>25.777916905754818</speed>
  <fix>3d</fix>
</trkpt>
<trkpt lat="-27.2722899" lon="151.2852233">
  <ele>441.21</ele>
  <time>2026-09-01T19:54:27Z</time>
  <course>58.5</course>
  <speed>25.8</speed>
  <fix>3d</fix>
</trkpt>
<trkpt lat="-27.2722414" lon="151.2853093">
  <ele>441.14</ele>
  <time>2026-09-01T19:54:27Z</time>
  <course>58.6</course>
  <speed>25.76350325557454</speed>
  <fix>3d</fix>
</trkpt>
<trkpt lat="-27.2722654" lon="151.2852677">
  <ele>441.25</ele>
  <time>2026-09-01T19:54:27Z</time>
  <course>57.62</course>
  <speed>25.8</speed>
  <fix>3d</fix>
</trkpt>
<trkpt lat="-27.272229" lon="151.2853311">
  <ele>441.18</ele>
  <time>2026-09-01T19:54:27Z</time>
  <course>58.58</course>
  <speed>25.748584427109776</speed>
  <fix>3d</fix>
</trkpt>
<trkpt lat="-27.2722654" lon="151.2852677">
  <ele>441.25</ele>
  <time>2026-09-01T19:54:27Z</time>
  <course>57.62</course>
  <speed>25.8</speed>
  <fix>3d</fix>
</trkpt>
<trkpt lat="-27.2722166" lon="151.2853532">
  <ele>441.23</ele>
  <time>2026-09-01T19:54:27Z</time>
  <course>58.44</course>
  <speed>25.75057669257137</speed>
  <fix>3d</fix>
</trkpt>
<trkpt lat="-27.2722404" lon="151.2853116">
  <ele>441.32</ele>
  <time>2026-09-01T19:54:27Z</time>
  <course>57.27</course>
  <speed>25.79</speed>
  <fix>3d</fix>
</trkpt>
<trkpt lat="-27.2722044" lon="151.2853755">
  <ele>441.27</ele>
  <time>2026-09-01T19:54:27Z</time>
  <course>58.34</course>
  <speed>25.746362849925035</speed>
  <fix>3d</fix>
</trkpt>
<trkpt lat="-27.2722404" lon="151.2853116">
  <ele>441.32</ele>
  <time>2026-09-01T19:54:27Z</time>
  <course>57.27</course>
  <speed>25.79</speed>
  <fix>3d</fix>
</trkpt>
<trkpt lat="-27.2721924" lon="151.2853978">
  <ele>441.31</ele>
  <time>2026-09-01T19:54:27Z</time>
  <course>58.4</course>
  <speed>25.75776581926313</speed>
  <fix>3d</fix>
</trkpt>
<trkpt lat="-27.2722155" lon="151.2853554">
  <ele>441.41</ele>
  <time>2026-09-01T19:54:27Z</time>
  <course>57.83</course>
  <speed>25.77</speed>
  <fix>3d</fix>
</trkpt>
<trkpt lat="-27.2721806" lon="151.2854206">
  <ele>441.35</ele>
  <time>2026-09-01T19:54:27Z</time>
  <course>58.68</course>
  <speed>25.76202631781902</speed>
  <fix>3d</fix>
</trkpt>
<trkpt lat="-27.2722155" lon="151.2853554">
  <ele>441.41</ele>
  <time>2026-09-01T19:54:27Z</time>
  <course>57.83</course>
  <speed>25.77</speed>
  <fix>3d</fix>
</trkpt>
<trkpt lat="-27.2721693" lon="151.2854434">
  <ele>441.4</ele>
  <time>2026-09-01T19:54:27Z</time>
  <course>59.27</course>
  <speed>25.785393151937782</speed>
  <fix>3d</fix>
</trkpt>
<trkpt lat="-27.2721913" lon="151.2853998">
  <ele>441.51</ele>
  <time>2026-09-01T19:54:27Z</time>
  <course>59.21</course>
  <speed>25.75</speed>
  <fix>3d</fix>
</trkpt>
<trkpt lat="-27.2721583" lon="151.2854665">
  <ele>441.44</ele>
  <time>2026-09-01T19:54:27Z</time>
  <course>60.14</course>
  <speed>25.79885268766811</speed>
  <fix>3d</fix>
</trkpt>
<trkpt lat="-27.2721913" lon="151.2853998">
  <ele>441.51</ele>
  <time>2026-09-01T19:54:27Z</time>
  <course>59.21</course>
  <speed>25.75</speed>
  <fix>3d</fix>
</trkpt>
<trkpt lat="-27.2721477" lon="151.2854898">
  <ele>441.49</ele>
  <time>2026-09-01T19:54:27Z</time>
  <course>61.17</course>
  <speed>25.813339574723763</speed>
  <fix>3d</fix>
</trkpt>
<trkpt lat="-27.2721683" lon="151.2854449">
  <ele>441.59</ele>
  <time>2026-09-01T19:54:27Z</time>
  <course>61.14</course>
  <speed>25.76</speed>
  <fix>3d</fix>
</trkpt>
<trkpt lat="-27.2721376" lon="151.2855133">
  <ele>441.55</ele>
  <time>2026-09-01T19:54:27Z</time>
  <course>62.38</course>
  <speed>25.821425212408393</speed>
  <fix>3d</fix>
</trkpt>
<trkpt lat="-27.2721683" lon="151.2854449">
  <ele>441.59</ele>
  <time>2026-09-01T19:54:27Z</time>
  <course>61.14</course>
  <speed>25.76</speed>
  <fix>3d</fix>
</trkpt>
<trkpt lat="-27.2721279" lon="151.2855371">
  <ele>441.62</ele>
  <time>2026-09-01T19:54:27Z</time>
  <course>63.59</course>
  <speed>25.827369204005272</speed>
  <fix>3d</fix>
</trkpt>
<trkpt lat="-27.2721467" lon="151.2854911">
  <ele>441.69</ele>
  <time>2026-09-01T19:54:27Z</time>
  <course>63.4</course>
  <speed>25.76</speed>
  <fix>3d</fix>
</trkpt>
<trkpt lat="-27.2721186" lon="151.2855611">
  <ele>441.7</ele>
  <time>2026-09-01T19:54:27Z</time>
  <course>64.84</course>
  <speed>25.836934802719924</speed>
  <fix>3d</fix>
</trkpt>
<trkpt lat="-27.2721467" lon="151.2854911">
  <ele>441.69</ele>
  <time>2026-09-01T19:54:27Z</time>
  <course>63.4</course>
  <speed>25.76</speed>
  <fix>3d</fix>
</trkpt>
<trkpt lat="-27.2721098" lon="151.2855853">
  <ele>441.77</ele>
  <time>2026-09-01T19:54:27Z</time>
  <course>66.13</course>
  <speed>25.845641798957132</speed>
  <fix>3d</fix>
</trkpt>
<trkpt lat="-27.2721268" lon="151.2855381">
  <ele>441.82</ele>
  <time>2026-09-01T19:54:27Z</time>
  <course>65.81</course>
  <speed>25.77</speed>
  <fix>3d</fix>
</trkpt>
<trkpt lat="-27.2721015" lon="151.2856097">
  <ele>441.86</ele>
  <time>2026-09-01T19:54:27Z</time>
  <course>67.31</course>
  <speed>25.846953398805052</speed>
  <fix>3d</fix>
</trkpt>
<trkpt lat="-27.2721268" lon="151.2855381">
  <ele>441.82</ele>
  <time>2026-09-01T19:54:27Z</time>
  <course>65.81</course>
  <speed>25.77</speed>
  <fix>3d</fix>
</trkpt>
<trkpt lat="-27.2720937" lon="151.2856343">
  <ele>441.94</ele>
  <time>2026-09-01T19:54:27Z</time>
  <course>68.55</course>
  <speed>25.84596873789025</speed>
  <fix>3d</fix>
</trkpt>
<trkpt lat="-27.2721088" lon="151.2855861">
  <ele>441.97</ele>
  <time>2026-09-01T19:54:27Z</time>
  <course>68.32</course>
  <speed>25.76</speed>
  <fix>3d</fix>
</trkpt>
<trkpt lat="-27.2720863" lon="151.2856591">
  <ele>442.03</ele>
  <time>2026-09-01T19:54:27Z</time>
  <course>69.77</course>
  <speed>25.85464174959692</speed>
  <fix>3d</fix>
</trkpt>
<trkpt lat="-27.2721088" lon="151.2855861">
  <ele>441.97</ele>
  <time>2026-09-01T19:54:27Z</time>
  <course>68.32</course>
  <speed>25.76</speed>
  <fix>3d</fix>
</trkpt>
<trkpt lat="-27.2720795" lon="151.285684">
  <ele>442.12</ele>
  <time>2026-09-01T19:54:27Z</time>
  <course>71.02</course>
  <speed>25.844800250727417</speed>
  <fix>3d</fix>
</trkpt>
<trkpt lat="-27.2720927" lon="151.2856349">
  <ele>442.14</ele>
  <time>2026-09-01T19:54:27Z</time>
  <course>70.88</course>
  <speed>25.75</speed>
  <fix>3d</fix>
</trkpt>
<trkpt lat="-27.2720732" lon="151.2857091">
  <ele>442.21</ele>
  <time>2026-09-01T19:54:27Z</time>
  <course>72.32</course>
  <speed>25.84549864096261</speed>
  <fix>3d</fix>
</trkpt>
<trkpt lat="-27.2720927" lon="151.2856349">
  <ele>442.14</ele>
  <time>2026-09-01T19:54:27Z</time>
  <course>70.88</course>
  <speed>25.75</speed>
  <fix>3d</fix>
</trkpt>
<trkpt lat="-27.2720673" lon="151.2857344">
  <ele>442.3</ele>
  <time>2026-09-01T19:54:27Z</time>
  <course>73.54</course>
  <speed>25.84031927047342</speed>
  <fix>3d</fix>
</trkpt>
<trkpt lat="-27.2720786" lon="151.2856845">
  <ele>442.32</ele>
  <time>2026-09-01T19:54:27Z</time>
  <course>73.49</course>
  <speed>25.74</speed>
  <fix>3d</fix>
</trkpt>
<trkpt lat="-27.272062" lon="151.2857597">
  <ele>442.39</ele>
  <time>2026-09-01T19:54:27Z</time>
  <course>74.82</course>
  <speed>25.83107624548385</speed>
  <fix>3d</fix>
</trkpt>
<trkpt lat="-27.2720786" lon="151.2856845">
  <ele>442.32</ele>
  <time>2026-09-01T19:54:27Z</time>
  <course>73.49</course>
  <speed>25.74</speed>
  <fix>3d</fix>
</trkpt>
<trkpt lat="-27.2720573" lon="151.2857846">
  <ele>442.47</ele>
  <time>2026-09-01T19:54:27Z</time>
  <course>76.04</course>
  <speed>25.818770303792547</speed>
  <fix>3d</fix>
</trkpt>
<trkpt lat="-27.2720664" lon="151.2857347">
  <ele>442.49</ele>
  <time>2026-09-01T19:54:27Z</time>
  <course>76.1</course>
  <speed>25.72</speed>
  <fix>3d</fix>
</trkpt>
<trkpt lat="-27.2720529" lon="151.285811">
  <ele>442.56</ele>
  <time>2026-09-01T19:54:27Z</time>
  <course>77.35</course>
  <speed>25.79327431715485</speed>
  <fix>3d</fix>
</trkpt>
<trkpt lat="-27.2720664" lon="151.2857347">
  <ele>442.49</ele>
  <time>2026-09-01T19:54:27Z</time>
  <course>76.1</course>
  <speed>25.72</speed>
  <fix>3d</fix>
</trkpt>
<trkpt lat="-27.2720491" lon="151.2858362">
  <ele>442.65</ele>
  <time>2026-09-01T19:54:27Z</time>
  <course>78.57</course>
  <speed>25.77372305275278</speed>
  <fix>3d</fix>
</trkpt>
<trkpt lat="-27.2720563" lon="151.2857854">
  <ele>442.66</ele>
  <time>2026-09-01T19:54:27Z</time>
  <course>78.65</course>
  <speed>25.69</speed>
  <fix>3d</fix>
</trkpt>
<trkpt lat="-27.2720458" lon="151.2858618">
  <ele>442.73</ele>
  <time>2026-09-01T19:54:27Z</time>
  <course>79.68</course>
  <speed>25.760069875681623</speed>
  <fix>3d</fix>
</trkpt>
<trkpt lat="-27.2720563" lon="151.2857854">
  <ele>442.66</ele>
  <time>2026-09-01T19:54:27Z</time>
  <course>78.65</course>
  <speed>25.69</speed>
  <fix>3d</fix>
</trkpt>
<trkpt lat="-27.2720429" lon="151.2858874">
  <ele>442.82</ele>
  <time>2026-09-01T19:54:27Z</time>
  <course>80.82</course>
  <speed>25.729448109121968</speed>
  <fix>3d</fix>
</trkpt>
<trkpt lat="-27.2720483" lon="151.2858365">
  <ele>442.84</ele>
  <time>2026-09-01T19:54:27Z</time>
  <course>81.11</course>
  <speed>25.66</speed>
  <fix>3d</fix>
</trkpt>
<trkpt lat="-27.2720405" lon="151.285913">
  <ele>442.89</ele>
  <time>2026-09-01T19:54:27Z</time>
  <course>81.96</course>
  <speed>25.698593346718418</speed>
  <fix>3d</fix>
</trkpt>
<trkpt lat="-27.2720483" lon="151.2858365">
  <ele>442.84</ele>
  <time>2026-09-01T19:54:27Z</time>
  <course>81.11</course>
  <speed>25.66</speed>
  <fix>3d</fix>
</trkpt>
<trkpt lat="-27.2720385" lon="151.2859388">
  <ele>442.96</ele>
  <time>2026-09-01T19:54:27Z</time>
  <course>83.11</course>
  <speed>25.668207962380233</speed>
  <fix>3d</fix>
</trkpt>
<trkpt lat="-27.2720421" lon="151.2858878">
  <ele>442.99</ele>
  <time>2026-09-01T19:54:27Z</time>
  <course>83.45</course>
  <speed>25.62</speed>
  <fix>3d</fix>
</trkpt>
<trkpt lat="-27.272037" lon="151.2859644">
  <ele>443.02</ele>
  <time>2026-09-01T19:54:27Z</time>
  <course>84.16</course>
  <speed>25.64769385344421</speed>
  <fix>3d</fix>
</trkpt>
<trkpt lat="-27.2720421" lon="151.2858878">
  <ele>442.99</ele>
  <time>2026-09-01T19:54:27Z</time>
  <course>83.45</course>
  <speed>25.62</speed>
  <fix>3d</fix>
</trkpt>
<trkpt lat="-27.2720358" lon="151.28599">
  <ele>443.08</ele>
  <time>2026-09-01T19:54:27Z</time>
  <course>85.25</course>
  <speed>25.61688700837789</speed>
  <fix>3d</fix>
</trkpt>
<trkpt lat="-27.2720378" lon="151.2859394">
  <ele>443.13</ele>
  <time>2026-09-01T19:54:27Z</time>
  <course>85.66</course>
  <speed>25.58</speed>
  <fix>3d</fix>
</trkpt>
<trkpt lat="-27.2720352" lon="151.2860157">
  <ele>443.13</ele>
  <time>2026-09-01T19:54:27Z</time>
  <course>86.3</course>
  <speed>25.5945013625974</speed>
  <fix>3d</fix>
</trkpt>
<trkpt lat="-27.2720378" lon="151.2859394">
  <ele>443.13</ele>
  <time>2026-09-01T19:54:27Z</time>
  <course>85.66</course>
  <speed>25.58</speed>
  <fix>3d</fix>
</trkpt>
<trkpt lat="-27.2720348" lon="151.2860414">
  <ele>443.18</ele>
  <time>2026-09-01T19:54:27Z</time>
  <course>87.26</course>
  <speed>25.570048885365864</speed>
  <fix>3d</fix>
</trkpt>
<trkpt lat="-27.2720352" lon="151.2859909">
  <ele>443.25</ele>
  <time>2026-09-01T19:54:27Z</time>
  <course>87.78</course>
  <speed>25.54</speed>
  <fix>3d</fix>
</trkpt>
<trkpt lat="-27.2720349" lon="151.286067">
  <ele>443.21</ele>
  <time>2026-09-01T19:54:27Z</time>
  <course>88.17</course>
  <speed>25.542263016420453</speed>
  <fix>3d</fix>
</trkpt>
<trkpt lat="-27.2720352" lon="151.2859909">
  <ele>443.25</ele>
  <time>2026-09-01T19:54:27Z</time>
  <course>87.78</course>
  <speed>25.54</speed>
  <fix>3d</fix>
</trkpt>
<trkpt lat="-27.2720353" lon="151.2860927">
  <ele>443.24</ele>
  <time>2026-09-01T19:54:27Z</time>
  <course>89.15</course>
  <speed>25.52073078890963</speed>
  <fix>3d</fix>
</trkpt>
<trkpt lat="-27.2720342" lon="151.2860425">
  <ele>443.34</ele>
  <time>2026-09-01T19:54:27Z</time>
  <course>89.76</course>
  <speed>25.5</speed>
  <fix>3d</fix>
</trkpt>
<trkpt lat="-27.272036" lon="151.2861183">
  <ele>443.26</ele>
  <time>2026-09-01T19:54:27Z</time>
  <course>90.1</course>
  <speed>25.505044599059225</speed>
  <fix>3d</fix>
</trkpt>
<trkpt lat="-27.2720342" lon="151.2860425">
  <ele>443.34</ele>
  <time>2026-09-01T19:54:27Z</time>
  <course>89.76</course>
  <speed>25.5</speed>
  <fix>3d</fix>
</trkpt>
<trkpt lat="-27.2720371" lon="151.2861439">
  <ele>443.28</ele>
  <time>2026-09-01T19:54:27Z</time>
  <course>90.97</course>
  <speed>25.48418333005788</speed>
  <fix>3d</fix>
</trkpt>
<trkpt lat="-27.2720347" lon="151.286094">
  <ele>443.4</ele>
  <time>2026-09-01T19:54:27Z</time>
  <course>91.59</course>
  <speed>25.47</speed>
  <fix>3d</fix>
</trkpt>
<trkpt lat="-27.2720386" lon="151.2861695">
  <ele>443.29</ele>
  <time>2026-09-01T19:54:27Z</time>
  <course>91.81</course>
  <speed>25.467282933206675</speed>
  <fix>3d</fix>
</trkpt>
<trkpt lat="-27.2720347" lon="151.286094">
  <ele>443.4</ele>
  <time>2026-09-01T19:54:27Z</time>
  <course>91.59</course>
  <speed>25.47</speed>
  <fix>3d</fix>
</trkpt>
<trkpt lat="-27.2720403" lon="151.286195">
  <ele>443.3</ele>
  <time>2026-09-01T19:54:27Z</time>
  <course>92.65</course>
  <speed>25.454384691050773</speed>
  <fix>3d</fix>
</trkpt>
<trkpt lat="-27.2720367" lon="151.2861454">
  <ele>443.44</ele>
  <time>2026-09-01T19:54:27Z</time>
  <course>93.3</course>
  <speed>25.44</speed>
  <fix>3d</fix>
</trkpt>
<trkpt lat="-27.2720424" lon="151.2862205">
  <ele>443.3</ele>
  <time>2026-09-01T19:54:27Z</time>
  <course>93.45</course>
  <speed>25.435143011196143</speed>
  <fix>3d</fix>
</trkpt>
<trkpt lat="-27.2720367" lon="151.2861454">
  <ele>443.44</ele>
  <time>2026-09-01T19:54:27Z</time>
  <course>93.3</course>
  <speed>25.44</speed>
  <fix>3d</fix>
</trkpt>
<trkpt lat="-27.2720447" lon="151.2862459">
  <ele>443.29</ele>
  <time>2026-09-01T19:54:27Z</time>
  <course>94.26</course>
  <speed>25.41803493584821</speed>
  <fix>3d</fix>
</trkpt>
<trkpt lat="-27.2720399" lon="151.2861967">
  <ele>443.46</ele>
  <time>2026-09-01T19:54:27Z</time>
  <course>94.89</course>
  <speed>25.42</speed>
  <fix>3d</fix>
</trkpt>
<trkpt lat="-27.2720473" lon="151.2862714">
  <ele>443.29</ele>
  <time>2026-09-01T19:54:27Z</time>
  <course>95.07</course>
  <speed>25.404796791157374</speed>
  <fix>3d</fix>
</trkpt>
<trkpt lat="-27.2720399" lon="151.2861967">
  <ele>443.46</ele>
  <time>2026-09-01T19:54:27Z</time>
  <course>94.89</course>
  <speed>25.42</speed>
  <fix>3d</fix>
</trkpt>
<trkpt lat="-27.2720502" lon="151.2862967">
  <ele>443.27</ele>
  <time>2026-09-01T19:54:27Z</time>
  <course>95.83</course>
  <speed>25.39407804981311</speed>
  <fix>3d</fix>
</trkpt>
<trkpt lat="-27.2720444" lon="151.286248">
  <ele>443.45</ele>
  <time>2026-09-01T19:54:27Z</time>
  <course>96.37</course>
  <speed>25.4</speed>
  <fix>3d</fix>
</trkpt>
<trkpt lat="-27.2720534" lon="151.2863221">
  <ele>443.26</ele>
  <time>2026-09-01T19:54:27Z</time>
  <course>96.54</course>
  <speed>25.375635952621955</speed>
  <fix>3d</fix>
</trkpt>
<trkpt lat="-27.2720444" lon="151.286248">
  <ele>443.45</ele>
  <time>2026-09-01T19:54:27Z</time>
  <course>96.37</course>
  <speed>25.4</speed>
  <fix>3d</fix>
</trkpt>
<trkpt lat="-27.2720568" lon="151.2863474">
  <ele>443.24</ele>
  <time>2026-09-01T19:54:27Z</time>
  <course>97.16</course>
  <speed>25.367351063916786</speed>
  <fix>3d</fix>
</trkpt>
<trkpt lat="-27.27205" lon="151.2862989">
  <ele>443.43</ele>
  <time>2026-09-01T19:54:27Z</time>
  <course>97.76</course>
  <speed>25.38</speed>
  <fix>3d</fix>
</trkpt>
<trkpt lat="-27.2720604" lon="151.2863726">
  <ele>443.22</ele>
  <time>2026-09-01T19:54:27Z</time>
  <course>97.76</course>
  <speed>25.360354887106766</speed>
  <fix>3d</fix>
</trkpt>
<trkpt lat="-27.27205" lon="151.2862989">
  <ele>443.43</ele>
  <time>2026-09-01T19:54:27Z</time>
  <course>97.76</course>
  <speed>25.38</speed>
  <fix>3d</fix>
</trkpt>
<trkpt lat="-27.2720643" lon="151.2863978">
  <ele>443.2</ele>
  <time>2026-09-01T19:54:27Z</time>
  <course>98.42</course>
  <speed>25.352563972900256</speed>
  <fix>3d</fix>
</trkpt>
<trkpt lat="-27.2720567" lon="151.2863496">
  <ele>443.4</ele>
  <time>2026-09-01T19:54:27Z</time>
  <course>99.05</course>
  <speed>25.36</speed>
  <fix>3d</fix>
</trkpt>
<trkpt lat="-27.2720684" lon="151.286423">
  <ele>443.17</ele>
  <time>2026-09-01T19:54:27Z</time>
  <course>99.05</course>
  <speed>25.355098106692466</speed>
  <fix>3d</fix>
</trkpt>
<trkpt lat="-27.2720567" lon="151.2863496">
  <ele>443.4</ele>
  <time>2026-09-01T19:54:27Z</time>
  <course>99.05</course>
  <speed>25.36</speed>
  <fix>3d</fix>
</trkpt>
<trkpt lat="-27.2720727" lon="151.2864481">
  <ele>443.15</ele>
  <time>2026-09-01T19:54:27Z</time>
  <course>99.61</course>
  <speed>25.34801964651282</speed>
  <fix>3d</fix>
</trkpt>
<trkpt lat="-27.2720643" lon="151.2864">
  <ele>443.35</ele>
  <time>2026-09-01T19:54:27Z</time>
  <course>100.21</course>
  <speed>25.35</speed>
  <fix>3d</fix>
</trkpt>
<trkpt lat="-27.2720772" lon="151.2864729">
  <ele>443.12</ele>
  <time>2026-09-01T19:54:27Z</time>
  <course>100.18</course>
  <speed>25.350700187568787</speed>
  <fix>3d</fix>
</trkpt>
<trkpt lat="-27.2720643" lon="151.2864">
  <ele>443.35</ele>
  <time>2026-09-01T19:54:27Z</time>
  <course>100.21</course>
  <speed>25.35</speed>
  <fix>3d</fix>
</trkpt>
<trkpt lat="-27.2720819" lon="151.2864984">
  <ele>443.1</ele>
  <time>2026-09-01T19:54:27Z</time>
  <course>100.69</course>
  <speed>25.34329299834574</speed>
  <fix>3d</fix>
</trkpt>
<trkpt lat="-27.2720728" lon="151.2864504">
  <ele>443.3</ele>
  <time>2026-09-01T19:54:27Z</time>
  <course>101.26</course>
  <speed>25.35</speed>
  <fix>3d</fix>
</trkpt>
<trkpt lat="-27.2720868" lon="151.2865234">
  <ele>443.08</ele>
  <time>2026-09-01T19:54:27Z</time>
  <course>101.15</course>
  <speed>25.34075373780346</speed>
  <fix>3d</fix>
</trkpt>
<trkpt lat="-27.2720728" lon="151.2864504">
  <ele>443.3</ele>
  <time>2026-09-01T19:54:27Z</time>
  <course>101.26</course>
  <speed>25.35</speed>
  <fix>3d</fix>
</trkpt>
<trkpt lat="-27.2720918" lon="151.2865483">
  <ele>443.05</ele>
  <time>2026-09-01T19:54:27Z</time>
  <course>101.62</course>
  <speed>25.346914999660218</speed>
  <fix>3d</fix>
</trkpt>
<trkpt lat="-27.2720821" lon="151.2865006">
  <ele>443.25</ele>
  <time>2026-09-01T19:54:27Z</time>
  <course>102.19</course>
  <speed>25.36</speed>
  <fix>3d</fix>
</trkpt>
<trkpt lat="-27.272097" lon="151.2865733">
  <ele>443.03</ele>
  <time>2026-09-01T19:54:27Z</time>
  <course>102.06</course>
  <speed>25.344389911773373</speed>
  <fix>3d</fix>
</trkpt>
<trkpt lat="-27.2720821" lon="151.2865006">
  <ele>443.25</ele>
  <time>2026-09-01T19:54:27Z</time>
  <course>102.19</course>
  <speed>25.36</speed>
  <fix>3d</fix>
</trkpt>
<trkpt lat="-27.2721022" lon="151.2865981">
  <ele>443.01</ele>
  <time>2026-09-01T19:54:27Z</time>
  <course>102.49</course>
  <speed>25.33584022684071</speed>
  <fix>3d</fix>
</trkpt>
<trkpt lat="-27.272092" lon="151.2865506">
  <ele>443.2</ele>
  <time>2026-09-01T19:54:27Z</time>
  <course>102.98</course>
  <speed>25.36</speed>
  <fix>3d</fix>
</trkpt>
<trkpt lat="-27.2721077" lon="151.286623">
  <ele>442.99</ele>
  <time>2026-09-01T19:54:27Z</time>
  <course>102.89</course>
  <speed>25.340136148016253</speed>
  <fix>3d</fix>
</trkpt>
<trkpt lat="-27.272092" lon="151.2865506">
  <ele>443.2</ele>
  <time>2026-09-01T19:54:27Z</time>
  <course>102.98</course>
  <speed>25.36</speed>
  <fix>3d</fix>
</trkpt>
<trkpt lat="-27.2721132" lon="151.2866478">
  <ele>442.97</ele>
  <time>2026-09-01T19:54:27Z</time>
  <course>103.25</course>
  <speed>25.340307811863692</speed>
  <fix>3d</fix>
</trkpt>
<trkpt lat="-27.2721025" lon="151.2866005">
  <ele>443.16</ele>
  <time>2026-09-01T19:54:27Z</time>
  <course>103.66</course>
  <speed>25.36</speed>
  <fix>3d</fix>
</trkpt>
<trkpt lat="-27.2721188" lon="151.2866726">
  <ele>442.95</ele>
  <time>2026-09-01T19:54:27Z</time>
  <course>103.53</course>
  <speed>25.33607112399237</speed>
  <fix>3d</fix>
</trkpt>
<trkpt lat="-27.2721025" lon="151.2866005">
  <ele>443.16</ele>
  <time>2026-09-01T19:54:27Z</time>
  <course>103.66</course>
  <speed>25.36</speed>
  <fix>3d</fix>
</trkpt>
<trkpt lat="-27.2721245" lon="151.2866974">
  <ele>442.93</ele>
  <time>2026-09-01T19:54:27Z</time>
  <course>103.79</course>
  <speed>25.33939620432973</speed>
  <fix>3d</fix>
</trkpt>
<trkpt lat="-27.2721135" lon="151.2866502">
  <ele>443.12</ele>
  <time>2026-09-01T19:54:27Z</time>
  <course>104.24</course>
  <speed>25.36</speed>
  <fix>3d</fix>
</trkpt>
<trkpt lat="-27.2721303" lon="151.2867221">
  <ele>442.91</ele>
  <time>2026-09-01T19:54:27Z</time>
  <course>104.05</course>
  <speed>25.340485393930404</speed>
  <fix>3d</fix>
</trkpt>
<trkpt lat="-27.2721135" lon="151.2866502">
  <ele>443.12</ele>
  <time>2026-09-01T19:54:27Z</time>
  <course>104.24</course>
  <speed>25.36</speed>
  <fix>3d</fix>
</trkpt>
<trkpt lat="-27.2721362" lon="151.2867468">
  <ele>442.89</ele>
  <time>2026-09-01T19:54:27Z</time>
  <course>104.25</course>
  <speed>25.339244266552228</speed>
  <fix>3d</fix>
</trkpt>
<trkpt lat="-27.2721249" lon="151.2866998">
  <ele>443.08</ele>
  <time>2026-09-01T19:54:27Z</time>
  <course>104.7</course>
  <speed>25.37</speed>
  <fix>3d</fix>
</trkpt>
<trkpt lat="-27.2721421" lon="151.2867716">
  <ele>442.88</ele>
  <time>2026-09-01T19:54:27Z</time>
  <course>104.42</course>
  <speed>25.335589592508004</speed>
  <fix>3d</fix>
</trkpt>
<trkpt lat="-27.2721249" lon="151.2866998">
  <ele>443.08</ele>
  <time>2026-09-01T19:54:27Z</time>
  <course>104.7</course>
  <speed>25.37</speed>
  <fix>3d</fix>
</trkpt>
<trkpt lat="-27.2721481" lon="151.2867963">
  <ele>442.87</ele>
  <time>2026-09-01T19:54:27Z</time>
  <course>104.58</course>
  <speed>25.32680990571059</speed>
  <fix>3d</fix>
</trkpt>
<trkpt lat="-27.2721366" lon="151.2867495">
  <ele>443.04</ele>
  <time>2026-09-01T19:54:27Z</time>
  <course>105.06</course>
  <speed>25.37</speed>
  <fix>3d</fix>
</trkpt>
<trkpt lat="-27.2721541" lon="151.286821">
  <ele>442.86</ele>
  <time>2026-09-01T19:54:27Z</time>
  <course>104.72</course>
  <speed>25.33738936828339</speed>
  <fix>3d</fix>
</trkpt>
<trkpt lat="-27.2721366" lon="151.2867495">
  <ele>443.04</ele>
  <time>2026-09-01T19:54:27Z</time>
  <course>105.06</course>
  <speed>25.37</speed>
  <fix>3d</fix>
</trkpt>
<trkpt lat="-27.2721601" lon="151.2868457">
  <ele>442.85</ele>
  <time>2026-09-01T19:54:27Z</time>
  <course>104.87</course>
  <speed>25.333061402049296</speed>
  <fix>3d</fix>
</trkpt>
<trkpt lat="-27.2721486" lon="151.2867991">
  <ele>443.02</ele>
  <time>2026-09-01T19:54:27Z</time>
  <course>105.3</course>
  <speed>25.37</speed>
  <fix>3d</fix>
</trkpt>
<trkpt lat="-27.2721662" lon="151.2868704">
  <ele>442.84</ele>
  <time>2026-09-01T19:54:27Z</time>
  <course>105.0</course>
  <speed>25.32875243670718</speed>
  <fix>3d</fix>
</trkpt>
<trkpt lat="-27.2721486" lon="151.2867991">
  <ele>443.02</ele>
  <time>2026-09-01T19:54:27Z</time>
  <course>105.3</course>
  <speed>25.37</speed>
  <fix>3d</fix>
</trkpt>
<trkpt lat="-27.2721722" lon="151.2868951">
  <ele>442.83</ele>
  <time>2026-09-01T19:54:27Z</time>
  <course>105.08</course>
  <speed>25.334097576191656</speed>
  <fix>3d</fix>
</trkpt>
<trkpt lat="-27.2721607" lon="151.2868485">
  <ele>443.0</ele>
  <time>2026-09-01T19:54:27Z</time>
  <course>105.45</course>
  <speed>25.37</speed>
  <fix>3d</fix>
</trkpt>
<trkpt lat="-27.2721783" lon="151.2869198">
  <ele>442.83</ele>
  <time>2026-09-01T19:54:27Z</time>
  <course>105.14</course>
  <speed>25.343732953138534</speed>
  <fix>3d</fix>
</trkpt>
<trkpt lat="-27.2721607" lon="151.2868485">
  <ele>443.0</ele>
  <time>2026-09-01T19:54:27Z</time>
  <course>105.45</course>
  <speed>25.37</speed>
  <fix>3d</fix>
</trkpt>
<trkpt lat="-27.2721844" lon="151.2869445">
  <ele>442.82</ele>
  <time>2026-09-01T19:54:27Z</time>
  <course>105.19</course>
  <speed>25.343732953138534</speed>
  <fix>3d</fix>
</trkpt>
<trkpt lat="-27.2721729" lon="151.2868979">
  <ele>442.98</ele>
  <time>2026-09-01T19:54:27Z</time>
  <course>105.51</course>
  <speed>25.38</speed>
  <fix>3d</fix>
</trkpt>
<trkpt lat="-27.2721905" lon="151.2869692">
  <ele>442.81</ele>
  <time>2026-09-01T19:54:27Z</time>
  <course>105.17</course>
  <speed>25.341059567429298</speed>
  <fix>3d</fix>
</trkpt>
<trkpt lat="-27.2721729" lon="151.2868979">
  <ele>442.98</ele>
  <time>2026-09-01T19:54:27Z</time>
  <course>105.51</course>
  <speed>25.38</speed>
  <fix>3d</fix>
</trkpt>
<trkpt lat="-27.2721965" lon="151.2869937">
  <ele>442.8</ele>
  <time>2026-09-01T19:54:27Z</time>
  <course>105.19</course>
  <speed>25.33838984623924</speed>
  <fix>3d</fix>
</trkpt>
<trkpt lat="-27.2721851" lon="151.2869473">
  <ele>442.97</ele>
  <time>2026-09-01T19:54:27Z</time>
  <course>105.52</course>
  <speed>25.38</speed>
  <fix>3d</fix>
</trkpt>
<trkpt lat="-27.2722026" lon="151.2870184">
  <ele>442.8</ele>
  <time>2026-09-01T19:54:27Z</time>
  <course>105.16</course>
  <speed>25.342701118862607</speed>
  <fix>3d</fix>
</trkpt>
<trkpt lat="-27.2721851" lon="151.2869473">
  <ele>442.97</ele>
  <time>2026-09-01T19:54:27Z</time>
  <course>105.52</course>
  <speed>25.38</speed>
  <fix>3d</fix>
</trkpt>
<trkpt lat="-27.2722087" lon="151.2870431">
  <ele>442.8</ele>
  <time>2026-09-01T19:54:27Z</time>
  <course>105.09</course>
  <speed>25.34438202047941</speed>
  <fix>3d</fix>
</trkpt>
<trkpt lat="-27.2721973" lon="151.2869968">
  <ele>442.96</ele>
  <time>2026-09-01T19:54:27Z</time>
  <course>105.46</course>
  <speed>25.39</speed>
  <fix>3d</fix>
</trkpt>
<trkpt lat="-27.2722147" lon="151.2870679">
  <ele>442.8</ele>
  <time>2026-09-01T19:54:27Z</time>
  <course>105.05</course>
  <speed>25.346102264450842</speed>
  <fix>3d</fix>
</trkpt>
<trkpt lat="-27.2721973" lon="151.2869968">
  <ele>442.96</ele>
  <time>2026-09-01T19:54:27Z</time>
  <course>105.46</course>
  <speed>25.39</speed>
  <fix>3d</fix>
</trkpt>
<trkpt lat="-27.2722207" lon="151.2870929">
  <ele>442.81</ele>
  <time>2026-09-01T19:54:27Z</time>
  <course>105.01</course>
  <speed>25.345240184302853</speed>
  <fix>3d</fix>
</trkpt>
<trkpt lat="-27.2722094" lon="151.2870462">
  <ele>442.96</ele>
  <time>2026-09-01T19:54:27Z</time>
  <course>105.33</course>
  <speed>25.39</speed>
  <fix>3d</fix>
</trkpt>
<trkpt lat="-27.2722267" lon="151.2871176">
  <ele>442.81</ele>
  <time>2026-09-01T19:54:27Z</time>
  <course>104.95</course>
  <speed>25.34184286905749</speed>
  <fix>3d</fix>
</trkpt>
<trkpt lat="-27.2722094" lon="151.2870462">
  <ele>442.96</ele>
  <time>2026-09-01T19:54:27Z</time>
  <course>105.33</course>
  <speed>25.39</speed>
  <fix>3d</fix>
</trkpt>
<trkpt lat="-27.2722326" lon="151.2871424">
  <ele>442.82</ele>
  <time>2026-09-01T19:54:27Z</time>
  <course>104.91</course>
  <speed>25.348209009711123</speed>
  <fix>3d</fix>
</trkpt>
<trkpt lat="-27.2722214" lon="151.2870957">
  <ele>442.97</ele>
  <time>2026-09-01T19:54:27Z</time>
  <course>105.16</course>
  <speed>25.39</speed>
  <fix>3d</fix>
</trkpt>
<trkpt lat="-27.2722385" lon="151.2871674">
  <ele>442.82</ele>
  <time>2026-09-01T19:54:27Z</time>
  <course>104.84</course>
  <speed>25.337918225458065</speed>
  <fix>3d</fix>
</trkpt>
<trkpt lat="-27.2722214" lon="151.2870957">
  <ele>442.97</ele>
  <time>2026-09-01T19:54:27Z</time>
  <course>105.16</course>
  <speed>25.39</speed>
  <fix>3d</fix>
</trkpt>
<trkpt lat="-27.2722443" lon="151.2871922">
  <ele>442.83</ele>
  <time>2026-09-01T19:54:27Z</time>
  <course>104.73</course>
  <speed>25.341935600896786</speed>
  <fix>3d</fix>
</trkpt>
<trkpt lat="-27.2722332" lon="151.2871453">
  <ele>442.98</ele>
  <time>2026-09-01T19:54:27Z</time>
  <course>104.94</course>
  <speed>25.39</speed>
  <fix>3d</fix>
</trkpt>
<trkpt lat="-27.2722501" lon="151.287217">
  <ele>442.84</ele>
  <time>2026-09-01T19:54:27Z</time>
  <course>104.64</course>
  <speed>25.338952227746116</speed>
  <fix>3d</fix>
</trkpt>
<trkpt lat="-27.2722332" lon="151.2871453">
  <ele>442.98</ele>
  <time>2026-09-01T19:54:27Z</time>
  <course>104.94</course>
  <speed>25.39</speed>
  <fix>3d</fix>
</trkpt>
<trkpt lat="-27.2722558" lon="151.2872419">
  <ele>442.85</ele>
  <time>2026-09-01T19:54:27Z</time>
  <course>104.56</course>
  <speed>25.345753095933055</speed>
  <fix>3d</fix>
</trkpt>
<trkpt lat="-27.2722448" lon="151.2871948">
  <ele>443.0</ele>
  <time>2026-09-01T19:54:27Z</time>
  <course>104.69</course>
  <speed>25.39</speed>
  <fix>3d</fix>
</trkpt>
<trkpt lat="-27.2722615" lon="151.2872667">
  <ele>442.86</ele>
  <time>2026-09-01T19:54:27Z</time>
  <course>104.45</course>
  <speed>25.340499205816762</speed>
  <fix>3d</fix>
</trkpt>
<trkpt lat="-27.2722448" lon="151.2871948">
  <ele>443.0</ele>
  <time>2026-09-01T19:54:27Z</time>
  <course>104.69</course>
  <speed>25.39</speed>
  <fix>3d</fix>
</trkpt>
<trkpt lat="-27.2722671" lon="151.2872916">
  <ele>442.87</ele>
  <time>2026-09-01T19:54:27Z</time>
  <course>104.31</course>
  <speed>25.345084336020662</speed>
  <fix>3d</fix>
</trkpt>
<trkpt lat="-27.2722563" lon="151.2872446">
  <ele>443.02</ele>
  <time>2026-09-01T19:54:27Z</time>
  <course>104.43</course>
  <speed>25.39</speed>
  <fix>3d</fix>
</trkpt>
<trkpt lat="-27.2722727" lon="151.2873165">
  <ele>442.88</ele>
  <time>2026-09-01T19:54:27Z</time>
  <course>104.14</course>
  <speed>25.340126282242558</speed>
  <fix>3d</fix>
</trkpt>
<trkpt lat="-27.2722563" lon="151.2872446">
  <ele>443.02</ele>
  <time>2026-09-01T19:54:27Z</time>
  <course>104.43</course>
  <speed>25.39</speed>
  <fix>3d</fix>
</trkpt>
<trkpt lat="-27.2722782" lon="151.2873415">
  <ele>442.89</ele>
  <time>2026-09-01T19:54:27Z</time>
  <course>103.97</course>
  <speed>25.35232139272457</speed>
  <fix>3d</fix>
</trkpt>
<trkpt lat="-27.2722677" lon="151.2872945">
  <ele>443.03</ele>
  <time>2026-09-01T19:54:27Z</time>
  <course>104.16</course>
  <speed>25.39</speed>
  <fix>3d</fix>
</trkpt>
<trkpt lat="-27.2722836" lon="151.2873665">
  <ele>442.9</ele>
  <time>2026-09-01T19:54:27Z</time>
  <course>103.85</course>
  <speed>25.347688257511766</speed>
  <fix>3d</fix>
</trkpt>
<trkpt lat="-27.2722677" lon="151.2872945">
  <ele>443.03</ele>
  <time>2026-09-01T19:54:27Z</time>
  <course>104.16</course>
  <speed>25.39</speed>
  <fix>3d</fix>
</trkpt>
<trkpt lat="-27.272289" lon="151.2873915">
  <ele>442.92</ele>
  <time>2026-09-01T19:54:27Z</time>
  <course>103.74</course>
  <speed>25.3505660686305</speed>
  <fix>3d</fix>
</trkpt>
<trkpt lat="-27.2722787" lon="151.2873443">
  <ele>443.06</ele>
  <time>2026-09-01T19:54:27Z</time>
  <course>103.86</course>
  <speed>25.39</speed>
  <fix>3d</fix>
</trkpt>
<trkpt lat="-27.2722944" lon="151.2874165">
  <ele>442.93</ele>
  <time>2026-09-01T19:54:27Z</time>
  <course>103.57</course>
  <speed>25.35597759898048</speed>
  <fix>3d</fix>
</trkpt>
<trkpt lat="-27.2722787" lon="151.2873443">
  <ele>443.06</ele>
  <time>2026-09-01T19:54:27Z</time>
  <course>103.86</course>
  <speed>25.39</speed>
  <fix>3d</fix>
</trkpt>
<trkpt lat="-27.2722996" lon="151.2874415">
  <ele>442.95</ele>
  <time>2026-09-01T19:54:27Z</time>
  <course>103.38</course>
  <speed>25.35924486257428</speed>
  <fix>3d</fix>
</trkpt>
<trkpt lat="-27.2722895" lon="151.2873941">
  <ele>443.08</ele>
  <time>2026-09-01T19:54:27Z</time>
  <course>103.56</course>
  <speed>25.39</speed>
  <fix>3d</fix>
</trkpt>
<trkpt lat="-27.2723049" lon="151.2874665">
  <ele>442.96</ele>
  <time>2026-09-01T19:54:27Z</time>
  <course>103.21</course>
  <speed>25.36272067424944</speed>
  <fix>3d</fix>
</trkpt>
<trkpt lat="-27.2722895" lon="151.2873941">
  <ele>443.08</ele>
  <time>2026-09-01T19:54:27Z</time>
  <course>103.56</course>
  <speed>25.39</speed>
  <fix>3d</fix>
</trkpt>
<trkpt lat="-27.27231" lon="151.2874916">
  <ele>442.96</ele>
  <time>2026-09-01T19:54:27Z</time>
  <course>103.07</course>
  <speed>25.366404948277555</speed>
  <fix>3d</fix>
</trkpt>
<trkpt lat="-27.2723001" lon="151.287444">
  <ele>443.11</ele>
  <time>2026-09-01T19:54:27Z</time>
  <course>103.24</course>
  <speed>25.39</speed>
  <fix>3d</fix>
</trkpt>
<trkpt lat="-27.272315" lon="151.2875164">
  <ele>442.97</ele>
  <time>2026-09-01T19:54:27Z</time>
  <course>102.92</course>
  <speed>25.368084279267126</speed>
  <fix>3d</fix>
</trkpt>
<trkpt lat="-27.2723001" lon="151.287444">
  <ele>443.11</ele>
  <time>2026-09-01T19:54:27Z</time>
  <course>103.24</course>
  <speed>25.39</speed>
  <fix>3d</fix>
</trkpt>
<trkpt lat="-27.27232" lon="151.2875415">
  <ele>442.97</ele>
  <time>2026-09-01T19:54:27Z</time>
  <course>102.8</course>
  <speed>25.372213147457202</speed>
  <fix>3d</fix>
</trkpt>
<trkpt lat="-27.2723104" lon="151.287494">
  <ele>443.12</ele>
  <time>2026-09-01T19:54:27Z</time>
  <course>102.89</course>
  <speed>25.39</speed>
  <fix>3d</fix>
</trkpt>
<trkpt lat="-27.272325" lon="151.2875666">
  <ele>442.98</ele>
  <time>2026-09-01T19:54:27Z</time>
  <course>102.7</course>
  <speed>25.376550198953364</speed>
  <fix>3d</fix>
</trkpt>
<trkpt lat="-27.2723104" lon="151.287494">
  <ele>443.12</ele>
  <time>2026-09-01T19:54:27Z</time>
  <course>102.89</course>
  <speed>25.39</speed>
  <fix>3d</fix>
</trkpt>
<trkpt lat="-27.2723299" lon="151.2875917">
  <ele>442.99</ele>
  <time>2026-09-01T19:54:27Z</time>
  <course>102.54</course>
  <speed>25.371324364329112</speed>
  <fix>3d</fix>
</trkpt>
<trkpt lat="-27.2723205" lon="151.2875441">
  <ele>443.13</ele>
  <time>2026-09-01T19:54:27Z</time>
  <course>102.54</course>
  <speed>25.4</speed>
  <fix>3d</fix>
</trkpt>
<trkpt lat="-27.2723347" lon="151.287617">
  <ele>443.0</ele>
  <time>2026-09-01T19:54:27Z</time>
  <course>102.37</course>
  <speed>25.376071405952498</speed>
  <fix>3d</fix>
</trkpt>
<trkpt lat="-27.2723205" lon="151.2875441">
  <ele>443.13</ele>
  <time>2026-09-01T19:54:27Z</time>
  <course>102.54</course>
  <speed>25.4</speed>
  <fix>3d</fix>
</trkpt>
<trkpt lat="-27.2723395" lon="151.2876422">
  <ele>443.01</ele>
  <time>2026-09-01T19:54:27Z</time>
  <course>102.15</course>
  <speed>25.383100677419222</speed>
  <fix>3d</fix>
</trkpt>
<trkpt lat="-27.2723303" lon="151.2875942">
  <ele>443.14</ele>
  <time>2026-09-01T19:54:27Z</time>
  <course>102.21</course>
  <speed>25.4</speed>
  <fix>3d</fix>
</trkpt>
<trkpt lat="-27.2723442" lon="151.2876673">
  <ele>443.02</ele>
  <time>2026-09-01T19:54:27Z</time>
  <course>101.93</course>
  <speed>25.388235464482364</speed>
  <fix>3d</fix>
</trkpt>
<trkpt lat="-27.2723303" lon="151.2875942">
  <ele>443.14</ele>
  <time>2026-09-01T19:54:27Z</time>
  <course>102.21</course>
  <speed>25.4</speed>
  <fix>3d</fix>
</trkpt>
<trkpt lat="-27.2723488" lon="151.2876925">
  <ele>443.02</ele>
  <time>2026-09-01T19:54:27Z</time>
  <course>101.77</course>
  <speed>25.383784193851003</speed>
  <fix>3d</fix>
</trkpt>
<trkpt lat="-27.2723398" lon="151.2876444">
  <ele>443.16</ele>
  <time>2026-09-01T19:54:27Z</time>
  <course>101.89</course>
  <speed>25.4</speed>
  <fix>3d</fix>
</trkpt>
<trkpt lat="-27.2723534" lon="151.2877177">
  <ele>443.03</ele>
  <time>2026-09-01T19:54:27Z</time>
  <course>101.67</course>
  <speed>25.379529152448832</speed>
  <fix>3d</fix>
</trkpt>
<trkpt lat="-27.2723398" lon="151.2876444">
  <ele>443.16</ele>
  <time>2026-09-01T19:54:27Z</time>
  <course>101.89</course>
  <speed>25.4</speed>
  <fix>3d</fix>
</trkpt>
<trkpt lat="-27.2723579" lon="151.2877429">
  <ele>443.03</ele>
  <time>2026-09-01T19:54:27Z</time>
  <course>101.53</course>
  <speed>25.387242859357535</speed>
  <fix>3d</fix>
</trkpt>
<trkpt lat="-27.2723491" lon="151.2876947">
  <ele>443.17</ele>
  <time>2026-09-01T19:54:27Z</time>
  <course>101.57</course>
  <speed>25.4</speed>
  <fix>3d</fix>
</trkpt>
<trkpt lat="-27.2723624" lon="151.2877681">
  <ele>443.04</ele>
  <time>2026-09-01T19:54:27Z</time>
  <course>101.41</course>
  <speed>25.385302834514306</speed>
  <fix>3d</fix>
</trkpt>
<trkpt lat="-27.2723491" lon="151.2876947">
  <ele>443.17</ele>
  <time>2026-09-01T19:54:27Z</time>
  <course>101.57</course>
  <speed>25.4</speed>
  <fix>3d</fix>
</trkpt>
<trkpt lat="-27.2723667" lon="151.2877933">
  <ele>443.04</ele>
  <time>2026-09-01T19:54:27Z</time>
  <course>101.23</course>
  <speed>25.383508425747614</speed>
  <fix>3d</fix>
</trkpt>
<trkpt lat="-27.2723581" lon="151.287745">
  <ele>443.18</ele>
  <time>2026-09-01T19:54:27Z</time>
  <course>101.27</course>
  <speed>25.4</speed>
  <fix>3d</fix>
</trkpt>
<trkpt lat="-27.2723711" lon="151.2878185">
  <ele>443.04</ele>
  <time>2026-09-01T19:54:27Z</time>
  <course>101.05</course>
  <speed>25.3916777704822</speed>
  <fix>3d</fix>
</trkpt>
<trkpt lat="-27.2723581" lon="151.287745">
  <ele>443.18</ele>
  <time>2026-09-01T19:54:27Z</time>
  <course>101.27</course>
  <speed>25.4</speed>
  <fix>3d</fix>
</trkpt>
<trkpt lat="-27.2723754" lon="151.2878437">
  <ele>443.05</ele>
  <time>2026-09-01T19:54:27Z</time>
  <course>100.95</course>
  <speed>25.38830636336343</speed>
  <fix>3d</fix>
</trkpt>
<trkpt lat="-27.2723669" lon="151.2877954">
  <ele>443.19</ele>
  <time>2026-09-01T19:54:27Z</time>
  <course>100.99</course>
  <speed>25.41</speed>
  <fix>3d</fix>
</trkpt>
<trkpt lat="-27.2723796" lon="151.2878692">
  <ele>443.05</ele>
  <time>2026-09-01T19:54:27Z</time>
  <course>100.79</course>
  <speed>25.388826282441652</speed>
  <fix>3d</fix>
</trkpt>
<trkpt lat="-27.2723669" lon="151.2877954">
  <ele>443.19</ele>
  <time>2026-09-01T19:54:27Z</time>
  <course>100.99</course>
  <speed>25.41</speed>
  <fix>3d</fix>
</trkpt>
<trkpt lat="-27.2723838" lon="151.2878945">
  <ele>443.06</ele>
  <time>2026-09-01T19:54:27Z</time>
  <course>100.66</course>
  <speed>25.387619029755427</speed>
  <fix>3d</fix>
</trkpt>
<trkpt lat="-27.2723755" lon="151.287846">
  <ele>443.2</ele>
  <time>2026-09-01T19:54:27Z</time>
  <course>100.71</course>
  <speed>25.41</speed>
  <fix>3d</fix>
</trkpt>
<trkpt lat="-27.2723879" lon="151.2879197">
  <ele>443.07</ele>
  <time>2026-09-01T19:54:27Z</time>
  <course>100.58</course>
  <speed>25.38836347620697</speed>
  <fix>3d</fix>
</trkpt>
<trkpt lat="-27.2723755" lon="151.287846">
  <ele>443.2</ele>
  <time>2026-09-01T19:54:27Z</time>
  <course>100.71</course>
  <speed>25.41</speed>
  <fix>3d</fix>
</trkpt>
<trkpt lat="-27.272392" lon="151.287945">
  <ele>443.08</ele>
  <time>2026-09-01T19:54:27Z</time>
  <course>100.44</course>
  <speed>25.389210306742505</speed>
  <fix>3d</fix>
</trkpt>
<trkpt lat="-27.2723839" lon="151.2878965">
  <ele>443.21</ele>
  <time>2026-09-01T19:54:27Z</time>
  <course>100.45</course>
  <speed>25.41</speed>
  <fix>3d</fix>
</trkpt>
<trkpt lat="-27.2723961" lon="151.2879704">
  <ele>443.08</ele>
  <time>2026-09-01T19:54:27Z</time>
  <course>100.26</course>
  <speed>25.401771591761076</speed>
  <fix>3d</fix>
</trkpt>
<trkpt lat="-27.2723839" lon="151.2878965">
  <ele>443.21</ele>
  <time>2026-09-01T19:54:27Z</time>
  <course>100.45</course>
  <speed>25.41</speed>
  <fix>3d</fix>
</trkpt>
<trkpt lat="-27.2724001" lon="151.2879957">
  <ele>443.08</ele>
  <time>2026-09-01T19:54:27Z</time>
  <course>100.19</course>
  <speed>25.402806931518416</speed>
  <fix>3d</fix>
</trkpt>
<trkpt lat="-27.2723921" lon="151.287947">
  <ele>443.22</ele>
  <time>2026-09-01T19:54:27Z</time>
  <course>100.22</course>
  <speed>25.41</speed>
  <fix>3d</fix>
</trkpt>
<trkpt lat="-27.272404" lon="151.2880208">
  <ele>443.09</ele>
  <time>2026-09-01T19:54:27Z</time>
  <course>100.12</course>
  <speed>25.403944575596917</speed>
  <fix>3d</fix>
</trkpt>
<trkpt lat="-27.2723921" lon="151.287947">
  <ele>443.22</ele>
  <time>2026-09-01T19:54:27Z</time>
  <course>100.22</course>
  <speed>25.41</speed>
  <fix>3d</fix>
</trkpt>
<trkpt lat="-27.2724079" lon="151.2880462">
  <ele>443.1</ele>
  <time>2026-09-01T19:54:27Z</time>
  <course>100.04</course>
  <speed>25.4068986694559</speed>
  <fix>3d</fix>
</trkpt>
<trkpt lat="-27.2724001" lon="151.2879975">
  <ele>443.24</ele>
  <time>2026-09-01T19:54:27Z</time>
  <course>100.0</course>
  <speed>25.42</speed>
  <fix>3d</fix>
</trkpt>
<trkpt lat="-27.2724118" lon="151.2880716">
  <ele>443.1</ele>
  <time>2026-09-01T19:54:27Z</time>
  <course>99.94</course>
  <speed>25.411621357166485</speed>
  <fix>3d</fix>
</trkpt>
<trkpt lat="-27.2724001" lon="151.2879975">
  <ele>443.24</ele>
  <time>2026-09-01T19:54:27Z</time>
  <course>100.0</course>
  <speed>25.42</speed>
  <fix>3d</fix>
</trkpt>
<trkpt lat="-27.2724157" lon="151.288097">
  <ele>443.1</ele>
  <time>2026-09-01T19:54:27Z</time>
  <course>99.81</course>
  <speed>25.4146926009346</speed>
  <fix>3d</fix>
</trkpt>
<trkpt lat="-27.272408" lon="151.2880482">
  <ele>443.24</ele>
  <time>2026-09-01T19:54:27Z</time>
  <course>99.8</course>
  <speed>25.42</speed>
  <fix>3d</fix>
</trkpt>
<trkpt lat="-27.2724195" lon="151.2881223">
  <ele>443.11</ele>
  <time>2026-09-01T19:54:27Z</time>
  <course>99.72</course>
  <speed>25.40964580626814</speed>
  <fix>3d</fix>
</trkpt>
<trkpt lat="-27.272408" lon="151.2880482">
  <ele>443.24</ele>
  <time>2026-09-01T19:54:27Z</time>
  <course>99.8</course>
  <speed>25.42</speed>
  <fix>3d</fix>
</trkpt>
<trkpt lat="-27.2724233" lon="151.2881479">
  <ele>443.11</ele>
  <time>2026-09-01T19:54:27Z</time>
  <course>99.65</course>
  <speed>25.412831404627074</speed>
  <fix>3d</fix>
</trkpt>
<trkpt lat="-27.2724157" lon="151.2880988">
  <ele>443.25</ele>
  <time>2026-09-01T19:54:27Z</time>
  <course>99.63</course>
  <speed>25.42</speed>
  <fix>3d</fix>
</trkpt>
<trkpt lat="-27.2724271" lon="151.2881733">
  <ele>443.12</ele>
  <time>2026-09-01T19:54:27Z</time>
  <course>99.57</course>
  <speed>25.419380401575484</speed>
  <fix>3d</fix>
</trkpt>
<trkpt lat="-27.2724157" lon="151.2880988">
  <ele>443.25</ele>
  <time>2026-09-01T19:54:27Z</time>
  <course>99.63</course>
  <speed>25.42</speed>
  <fix>3d</fix>
</trkpt>
<trkpt lat="-27.2724308" lon="151.2881986">
  <ele>443.12</ele>
  <time>2026-09-01T19:54:27Z</time>
  <course>99.45</course>
  <speed>25.412801891959887</speed>
  <fix>3d</fix>
</trkpt>
<trkpt lat="-27.2724233" lon="151.2881495">
  <ele>443.26</ele>
  <time>2026-09-01T19:54:27Z</time>
  <course>99.48</course>
  <speed>25.42</speed>
  <fix>3d</fix>
</trkpt>
<trkpt lat="-27.2724345" lon="151.2882239">
  <ele>443.12</ele>
  <time>2026-09-01T19:54:27Z</time>
  <course>99.42</course>
  <speed>25.409535611655716</speed>
  <fix>3d</fix>
</trkpt>
<trkpt lat="-27.2724233" lon="151.2881495">
  <ele>443.26</ele>
  <time>2026-09-01T19:54:27Z</time>
  <course>99.48</course>
  <speed>25.42</speed>
  <fix>3d</fix>
</trkpt>
<trkpt lat="-27.2724382" lon="151.2882491">
  <ele>443.12</ele>
  <time>2026-09-01T19:54:27Z</time>
  <course>99.32</course>
  <speed>25.40628465557292</speed>
  <fix>3d</fix>
</trkpt>
<trkpt lat="-27.2724308" lon="151.2882002">
  <ele>443.27</ele>
  <time>2026-09-01T19:54:27Z</time>
  <course>99.35</course>
  <speed>25.43</speed>
  <fix>3d</fix>
</trkpt>
<trkpt lat="-27.2724418" lon="151.2882744">
  <ele>443.12</ele>
  <time>2026-09-01T19:54:27Z</time>
  <course>99.23</course>
  <speed>25.39318018681394</speed>
  <fix>3d</fix>
</trkpt>
<trkpt lat="-27.2724308" lon="151.2882002">
  <ele>443.27</ele>
  <time>2026-09-01T19:54:27Z</time>
  <course>99.35</course>
  <speed>25.43</speed>
  <fix>3d</fix>
</trkpt>
<trkpt lat="-27.2724454" lon="151.2882996">
  <ele>443.12</ele>
  <time>2026-09-01T19:54:27Z</time>
  <course>99.17</course>
  <speed>25.388353629174144</speed>
  <fix>3d</fix>
</trkpt>
<trkpt lat="-27.2724381" lon="151.2882509">
  <ele>443.27</ele>
  <time>2026-09-01T19:54:27Z</time>
  <course>99.24</course>
  <speed>25.43</speed>
  <fix>3d</fix>
</trkpt>
<trkpt lat="-27.272449" lon="151.2883249">
  <ele>443.12</ele>
  <time>2026-09-01T19:54:27Z</time>
  <course>99.18</course>
  <speed>25.385155110812303</speed>
  <fix>3d</fix>
</trkpt>
<trkpt lat="-27.2724381" lon="151.2882509">
  <ele>443.27</ele>
  <time>2026-09-01T19:54:27Z</time>
  <course>99.24</course>
  <speed>25.43</speed>
  <fix>3d</fix>
</trkpt>
<trkpt lat="-27.2724526" lon="151.2883501">
  <ele>443.13</ele>
  <time>2026-09-01T19:54:27Z</time>
  <course>99.14</course>
  <speed>25.383561609829304</speed>
  <fix>3d</fix>
</trkpt>
<trkpt lat="-27.2724454" lon="151.2883018">
  <ele>443.27</ele>
  <time>2026-09-01T19:54:27Z</time>
  <course>99.14</course>
  <speed>25.43</speed>
  <fix>3d</fix>
</trkpt>
<trkpt lat="-27.2724562" lon="151.2883753">
  <ele>443.13</ele>
  <time>2026-09-01T19:54:27Z</time>
  <course>99.06</course>
  <speed>25.380386127874413</speed>
  <fix>3d</fix>
</trkpt>
<trkpt lat="-27.2724454" lon="151.2883018">
  <ele>443.27</ele>
  <time>2026-09-01T19:54:27Z</time>
  <course>99.14</course>
  <speed>25.43</speed>
  <fix>3d</fix>
</trkpt>
<trkpt lat="-27.2724598" lon="151.2884006">
  <ele>443.13</ele>
  <time>2026-09-01T19:54:27Z</time>
  <course>99.03</course>
  <speed>25.378804148343946</speed>
  <fix>3d</fix>
</trkpt>
<trkpt lat="-27.2724527" lon="151.2883526">
  <ele>443.27</ele>
  <time>2026-09-01T19:54:27Z</time>
  <course>99.07</course>
  <speed>25.43</speed>
  <fix>3d</fix>
</trkpt>
<trkpt lat="-27.2724633" lon="151.2884259">
  <ele>443.14</ele>
  <time>2026-09-01T19:54:27Z</time>
  <course>99.04</course>
  <speed>25.367351063916786</speed>
  <fix>3d</fix>
</trkpt>
<trkpt lat="-27.2724527" lon="151.2883526">
  <ele>443.27</ele>
  <time>2026-09-01T19:54:27Z</time>
  <course>99.07</course>
  <speed>25.43</speed>
  <fix>3d</fix>
</trkpt>
<trkpt lat="-27.2724669" lon="151.2884511">
  <ele>443.14</ele>
  <time>2026-09-01T19:54:27Z</time>
  <course>99.01</course>
  <speed>25.367351063916786</speed>
  <fix>3d</fix>
</trkpt>
<trkpt lat="-27.2724599" lon="151.2884034">
  <ele>443.28</ele>
  <time>2026-09-01T19:54:27Z</time>
  <course>99.01</course>
  <speed>25.43</speed>
  <fix>3d</fix>
</trkpt>
<trkpt lat="-27.2724704" lon="151.2884764">
  <ele>443.14</ele>
  <time>2026-09-01T19:54:27Z</time>
  <course>99.0</course>
  <speed>25.36577615607297</speed>
  <fix>3d</fix>
</trkpt>
<trkpt lat="-27.2724599" lon="151.2884034">
  <ele>443.28</ele>
  <time>2026-09-01T19:54:27Z</time>
  <course>99.01</course>
  <speed>25.43</speed>
  <fix>3d</fix>
</trkpt>
<trkpt lat="-27.272474" lon="151.2885017">
  <ele>443.13</ele>
  <time>2026-09-01T19:54:27Z</time>
  <course>99.0</course>
  <speed>25.36420509300459</speed>
  <fix>3d</fix>
</trkpt>
<trkpt lat="-27.272467" lon="151.2884541">
  <ele>443.28</ele>
  <time>2026-09-01T19:54:27Z</time>
  <course>98.97</course>
  <speed>25.43</speed>
  <fix>3d</fix>
</trkpt>
<trkpt lat="-27.2724775" lon="151.288527">
  <ele>443.13</ele>
  <time>2026-09-01T19:54:27Z</time>
  <course>99.03</course>
  <speed>25.374081264156146</speed>
  <fix>3d</fix>
</trkpt>
<trkpt lat="-27.272467" lon="151.2884541">
  <ele>443.28</ele>
  <time>2026-09-01T19:54:27Z</time>
  <course>98.97</course>
  <speed>25.43</speed>
  <fix>3d</fix>
</trkpt>
<trkpt lat="-27.2724811" lon="151.2885523">
  <ele>443.13</ele>
  <time>2026-09-01T19:54:27Z</time>
  <course>99.03</course>
  <speed>25.374081264156146</speed>
  <fix>3d</fix>
</trkpt>
<trkpt lat="-27.2724741" lon="151.2885049">
  <ele>443.28</ele>
  <time>2026-09-01T19:54:27Z</time>
  <course>98.95</course>
  <speed>25.44</speed>
  <fix>3d</fix>
</trkpt>
<trkpt lat="-27.2724846" lon="151.2885776">
  <ele>443.13</ele>
  <time>2026-09-01T19:54:27Z</time>
  <course>98.99</course>
  <speed>25.3756517157688</speed>
  <fix>3d</fix>
</trkpt>
<trkpt lat="-27.2724741" lon="151.2885049">
  <ele>443.28</ele>
  <time>2026-09-01T19:54:27Z</time>
  <course>98.95</course>
  <speed>25.44</speed>
  <fix>3d</fix>
</trkpt>
<trkpt lat="-27.2724882" lon="151.288603">
  <ele>443.13</ele>
  <time>2026-09-01T19:54:27Z</time>
  <course>98.92</course>
  <speed>25.3756517157688</speed>
  <fix>3d</fix>
</trkpt>
<trkpt lat="-27.2724812" lon="151.2885557">
  <ele>443.28</ele>
  <time>2026-09-01T19:54:27Z</time>
  <course>98.94</course>
  <speed>25.45</speed>
  <fix>3d</fix>
</trkpt>
<trkpt lat="-27.2724917" lon="151.2886283">
  <ele>443.13</ele>
  <time>2026-09-01T19:54:27Z</time>
  <course>98.89</course>
  <speed>25.3756517157688</speed>
  <fix>3d</fix>
</trkpt>
<trkpt lat="-27.2724812" lon="151.2885557">
  <ele>443.28</ele>
  <time>2026-09-01T19:54:27Z</time>
  <course>98.94</course>
  <speed>25.45</speed>
  <fix>3d</fix>
</trkpt>
<trkpt lat="-27.2724953" lon="151.2886539">
  <ele>443.13</ele>
  <time>2026-09-01T19:54:28Z</time>
  <course>98.91</course>
  <speed>25.383957532268287</speed>
  <fix>3d</fix>
</trkpt>
<trkpt lat="-27.2724883" lon="151.2886064">
  <ele>443.28</ele>
  <time>2026-09-01T19:54:28Z</time>
  <course>98.95</course>
  <speed>25.46</speed>
  <fix>3d</fix>
</trkpt>
<trkpt lat="-27.2724988" lon="151.2886792">
  <ele>443.12</ele>
  <time>2026-09-01T19:54:28Z</time>
  <course>98.94</course>
  <speed>25.385527372894977</speed>
  <fix>3d</fix>
</trkpt>
<trkpt lat="-27.2724883" lon="151.2886064">
  <ele>443.28</ele>
  <time>2026-09-01T19:54:28Z</time>
  <course>98.95</course>
  <speed>25.46</speed>
  <fix>3d</fix>
</trkpt>
<trkpt lat="-27.2725024" lon="151.2887046">
  <ele>443.12</ele>
  <time>2026-09-01T19:54:28Z</time>
  <course>98.97</course>
  <speed>25.385527372894977</speed>
  <fix>3d</fix>
</trkpt>
<trkpt lat="-27.2724955" lon="151.2886573">
  <ele>443.27</ele>
  <time>2026-09-01T19:54:28Z</time>
  <course>98.95</course>
  <speed>25.46</speed>
  <fix>3d</fix>
</trkpt>
<trkpt lat="-27.2725059" lon="151.2887299">
  <ele>443.12</ele>
  <time>2026-09-01T19:54:28Z</time>
  <course>98.88</course>
  <speed>25.385527372894977</speed>
  <fix>3d</fix>
</trkpt>
<trkpt lat="-27.2724955" lon="151.2886573">
  <ele>443.27</ele>
  <time>2026-09-01T19:54:28Z</time>
  <course>98.95</course>
  <speed>25.46</speed>
  <fix>3d</fix>
</trkpt>
<trkpt lat="-27.2725095" lon="151.2887553">
  <ele>443.12</ele>
  <time>2026-09-01T19:54:28Z</time>
  <course>98.82</course>
  <speed>25.383957532268287</speed>
  <fix>3d</fix>
</trkpt>
<trkpt lat="-27.2725026" lon="151.2887082">
  <ele>443.27</ele>
  <time>2026-09-01T19:54:28Z</time>
  <course>98.96</course>
  <speed>25.47</speed>
  <fix>3d</fix>
</trkpt>
<trkpt lat="-27.272513" lon="151.2887807">
  <ele>443.12</ele>
  <time>2026-09-01T19:54:28Z</time>
  <course>98.85</course>
  <speed>25.383957532268287</speed>
  <fix>3d</fix>
</trkpt>
<trkpt lat="-27.2725026" lon="151.2887082">
  <ele>443.27</ele>
  <time>2026-09-01T19:54:28Z</time>
  <course>98.96</course>
  <speed>25.47</speed>
  <fix>3d</fix>
</trkpt>
<trkpt lat="-27.2725166" lon="151.2888061">
  <ele>443.12</ele>
  <time>2026-09-01T19:54:28Z</time>
  <course>98.84</course>
  <speed>25.383957532268287</speed>
  <fix>3d</fix>
</trkpt>
<trkpt lat="-27.2725097" lon="151.288759">
  <ele>443.26</ele>
  <time>2026-09-01T19:54:28Z</time>
  <course>98.95</course>
  <speed>25.47</speed>
  <fix>3d</fix>
</trkpt>
<trkpt lat="-27.2725202" lon="151.2888314">
  <ele>443.12</ele>
  <time>2026-09-01T19:54:28Z</time>
  <course>98.91</course>
  <speed>25.393833897227886</speed>
  <fix>3d</fix>
</trkpt>
<trkpt lat="-27.2725097" lon="151.288759">
  <ele>443.26</ele>
  <time>2026-09-01T19:54:28Z</time>
  <course>98.95</course>
  <speed>25.47</speed>
  <fix>3d</fix>
</trkpt>
<trkpt lat="-27.2725237" lon="151.2888569">
  <ele>443.11</ele>
  <time>2026-09-01T19:54:28Z</time>
  <course>98.95</course>
  <speed>25.393833897227886</speed>
  <fix>3d</fix>
</trkpt>
<trkpt lat="-27.2725168" lon="151.2888099">
  <ele>443.26</ele>
  <time>2026-09-01T19:54:28Z</time>
  <course>98.95</course>
  <speed>25.48</speed>
  <fix>3d</fix>
</trkpt>
<trkpt lat="-27.2725273" lon="151.2888822">
  <ele>443.11</ele>
  <time>2026-09-01T19:54:28Z</time>
  <course>98.96</course>
  <speed>25.395403127337833</speed>
  <fix>3d</fix>
</trkpt>
<trkpt lat="-27.2725168" lon="151.2888099">
  <ele>443.26</ele>
  <time>2026-09-01T19:54:28Z</time>
  <course>98.95</course>
  <speed>25.48</speed>
  <fix>3d</fix>
</trkpt>
<trkpt lat="-27.2725308" lon="151.2889077">
  <ele>443.12</ele>
  <time>2026-09-01T19:54:28Z</time>
  <course>98.95</course>
  <speed>25.396976197964985</speed>
  <fix>3d</fix>
</trkpt>
<trkpt lat="-27.272524" lon="151.2888608">
  <ele>443.26</ele>
  <time>2026-09-01T19:54:28Z</time>
  <course>98.96</course>
  <speed>25.48</speed>
  <fix>3d</fix>
</trkpt>
<trkpt lat="-27.2725344" lon="151.2889331">
  <ele>443.12</ele>
  <time>2026-09-01T19:54:28Z</time>
  <course>98.96</course>
  <speed>25.396976197964985</speed>
  <fix>3d</fix>
</trkpt>
<trkpt lat="-27.272524" lon="151.2888608">
  <ele>443.26</ele>
  <time>2026-09-01T19:54:28Z</time>
  <course>98.96</course>
  <speed>25.48</speed>
  <fix>3d</fix>
</trkpt>
<trkpt lat="-27.272538" lon="151.2889585">
  <ele>443.12</ele>
  <time>2026-09-01T19:54:28Z</time>
  <course>99.0</course>
  <speed>25.408427735694314</speed>
  <fix>3d</fix>
</trkpt>
<trkpt lat="-27.2725311" lon="151.2889118">
  <ele>443.27</ele>
  <time>2026-09-01T19:54:28Z</time>
  <course>98.98</course>
  <speed>25.48</speed>
  <fix>3d</fix>
</trkpt>
<trkpt lat="-27.2725416" lon="151.2889839">
  <ele>443.13</ele>
  <time>2026-09-01T19:54:28Z</time>
  <course>99.03</course>
  <speed>25.41000787091574</speed>
  <fix>3d</fix>
</trkpt>
<trkpt lat="-27.2725311" lon="151.2889118">
  <ele>443.27</ele>
  <time>2026-09-01T19:54:28Z</time>
  <course>98.98</course>
  <speed>25.48</speed>
  <fix>3d</fix>
</trkpt>
<trkpt lat="-27.2725452" lon="151.2890094">
  <ele>443.13</ele>
  <time>2026-09-01T19:54:28Z</time>
  <course>99.07</course>
  <speed>25.41159184309397</speed>
  <fix>3d</fix>
</trkpt>
<trkpt lat="-27.2725383" lon="151.2889626">
  <ele>443.27</ele>
  <time>2026-09-01T19:54:28Z</time>
  <course>99.01</course>
  <speed>25.49</speed>
  <fix>3d</fix>
</trkpt>
<trkpt lat="-27.2725488" lon="151.2890348">
  <ele>443.14</ele>
  <time>2026-09-01T19:54:28Z</time>
  <course>99.07</course>
  <speed>25.414771295449423</speed>
  <fix>3d</fix>
</trkpt>
<trkpt lat="-27.2725383" lon="151.2889626">
  <ele>443.27</ele>
  <time>2026-09-01T19:54:28Z</time>
  <course>99.01</course>
  <speed>25.49</speed>
  <fix>3d</fix>
</trkpt>
<trkpt lat="-27.2725524" lon="151.2890602">
  <ele>443.14</ele>
  <time>2026-09-01T19:54:28Z</time>
  <course>99.01</course>
  <speed>25.416366774187065</speed>
  <fix>3d</fix>
</trkpt>
<trkpt lat="-27.2725455" lon="151.2890135">
  <ele>443.28</ele>
  <time>2026-09-01T19:54:28Z</time>
  <course>99.07</course>
  <speed>25.49</speed>
  <fix>3d</fix>
</trkpt>
<trkpt lat="-27.272556" lon="151.2890856">
  <ele>443.15</ele>
  <time>2026-09-01T19:54:28Z</time>
  <course>98.98</course>
  <speed>25.42623841625025</speed>
  <fix>3d</fix>
</trkpt>
<trkpt lat="-27.2725455" lon="151.2890135">
  <ele>443.28</ele>
  <time>2026-09-01T19:54:28Z</time>
  <course>99.07</course>
  <speed>25.49</speed>
  <fix>3d</fix>
</trkpt>
<trkpt lat="-27.2725596" lon="151.2891111">
  <ele>443.15</ele>
  <time>2026-09-01T19:54:28Z</time>
  <course>99.04</course>
  <speed>25.42623841625025</speed>
  <fix>3d</fix>
</trkpt>
<trkpt lat="-27.2725527" lon="151.2890644">
  <ele>443.29</ele>
  <time>2026-09-01T19:54:28Z</time>
  <course>99.12</course>
  <speed>25.49</speed>
  <fix>3d</fix>
</trkpt>
<trkpt lat="-27.2725633" lon="151.2891365">
  <ele>443.16</ele>
  <time>2026-09-01T19:54:28Z</time>
  <course>99.05</course>
  <speed>25.42783710817733</speed>
  <fix>3d</fix>
</trkpt>
<trkpt lat="-27.2725527" lon="151.2890644">
  <ele>443.29</ele>
  <time>2026-09-01T19:54:28Z</time>
  <course>99.12</course>
  <speed>25.49</speed>
  <fix>3d</fix>
</trkpt>
<trkpt lat="-27.2725669" lon="151.289162">
  <ele>443.16</ele>
  <time>2026-09-01T19:54:28Z</time>
  <course>99.09</course>
  <speed>25.42943963204852</speed>
  <fix>3d</fix>
</trkpt>
<trkpt lat="-27.27256" lon="151.2891153">
  <ele>443.3</ele>
  <time>2026-09-01T19:54:28Z</time>
  <course>99.15</course>
  <speed>25.49</speed>
  <fix>3d</fix>
</trkpt>
<trkpt lat="-27.2725706" lon="151.2891872">
  <ele>443.17</ele>
  <time>2026-09-01T19:54:28Z</time>
  <course>99.14</course>
  <speed>25.41956923317152</speed>
  <fix>3d</fix>
</trkpt>
<trkpt lat="-27.27256" lon="151.2891153">
  <ele>443.3</ele>
  <time>2026-09-01T19:54:28Z</time>
  <course>99.15</course>
  <speed>25.49</speed>
  <fix>3d</fix>
</trkpt>
<trkpt lat="-27.2725742" lon="151.2892126">
  <ele>443.18</ele>
  <time>2026-09-01T19:54:28Z</time>
  <course>99.16</course>
  <speed>25.421176211969424</speed>
  <fix>3d</fix>
</trkpt>
<trkpt lat="-27.2725673" lon="151.2891661">
  <ele>443.31</ele>
  <time>2026-09-01T19:54:28Z</time>
  <course>99.18</course>
  <speed>25.49</speed>
  <fix>3d</fix>
</trkpt>
<trkpt lat="-27.2725779" lon="151.289238">
  <ele>443.19</ele>
  <time>2026-09-01T19:54:28Z</time>
  <course>99.21</course>
  <speed>25.42440166454267</speed>
  <fix>3d</fix>
</trkpt>
<trkpt lat="-27.2725673" lon="151.2891661">
  <ele>443.31</ele>
  <time>2026-09-01T19:54:28Z</time>
  <course>99.18</course>
  <speed>25.49</speed>
  <fix>3d</fix>
</trkpt>
<trkpt lat="-27.2725816" lon="151.2892635">
  <ele>443.2</ele>
  <time>2026-09-01T19:54:28Z</time>
  <course>99.21</course>
  <speed>25.414533243795763</speed>
  <fix>3d</fix>
</trkpt>
<trkpt lat="-27.2725746" lon="151.289217">
  <ele>443.32</ele>
  <time>2026-09-01T19:54:28Z</time>
  <course>99.23</course>
  <speed>25.49</speed>
  <fix>3d</fix>
</trkpt>
<trkpt lat="-27.2725853" lon="151.2892893">
  <ele>443.21</ele>
  <time>2026-09-01T19:54:28Z</time>
  <course>99.23</course>
  <speed>25.41615234452296</speed>
  <fix>3d</fix>
</trkpt>
<trkpt lat="-27.2725746" lon="151.289217">
  <ele>443.32</ele>
  <time>2026-09-01T19:54:28Z</time>
  <course>99.23</course>
  <speed>25.49</speed>
  <fix>3d</fix>
</trkpt>
<trkpt lat="-27.272589" lon="151.2893147">
  <ele>443.22</ele>
  <time>2026-09-01T19:54:28Z</time>
  <course>99.28</course>
  <speed>25.409535611655716</speed>
  <fix>3d</fix>
</trkpt>
<trkpt lat="-27.272582" lon="151.2892678">
  <ele>443.34</ele>
  <time>2026-09-01T19:54:28Z</time>
  <course>99.28</course>
  <speed>25.48</speed>
  <fix>3d</fix>
</trkpt>
<trkpt lat="-27.2725927" lon="151.2893401">
  <ele>443.23</ele>
  <time>2026-09-01T19:54:28Z</time>
  <course>99.32</course>
  <speed>25.411166836648803</speed>
  <fix>3d</fix>
</trkpt>
<trkpt lat="-27.272582" lon="151.2892678">
  <ele>443.34</ele>
  <time>2026-09-01T19:54:28Z</time>
  <course>99.28</course>
  <speed>25.48</speed>
  <fix>3d</fix>
</trkpt>
<trkpt lat="-27.2725964" lon="151.2893656">
  <ele>443.23</ele>
  <time>2026-09-01T19:54:28Z</time>
  <course>99.3</course>
  <speed>25.412801891959887</speed>
  <fix>3d</fix>
</trkpt>
<trkpt lat="-27.2725894" lon="151.2893186">
  <ele>443.36</ele>
  <time>2026-09-01T19:54:28Z</time>
  <course>99.33</course>
  <speed>25.47</speed>
  <fix>3d</fix>
</trkpt>
<trkpt lat="-27.2726002" lon="151.289391">
  <ele>443.24</ele>
  <time>2026-09-01T19:54:28Z</time>
  <course>99.32</course>
  <speed>25.41608349057738</speed>
  <fix>3d</fix>
</trkpt>
<trkpt lat="-27.2725894" lon="151.2893186">
  <ele>443.36</ele>
  <time>2026-09-01T19:54:28Z</time>
  <course>99.33</course>
  <speed>25.47</speed>
  <fix>3d</fix>
</trkpt>
<trkpt lat="-27.2726039" lon="151.2894164">
  <ele>443.24</ele>
  <time>2026-09-01T19:54:28Z</time>
  <course>99.34</course>
  <speed>25.427593279742382</speed>
  <fix>3d</fix>
</trkpt>
<trkpt lat="-27.2725969" lon="151.2893695">
  <ele>443.37</ele>
  <time>2026-09-01T19:54:28Z</time>
  <course>99.39</course>
  <speed>25.47</speed>
  <fix>3d</fix>
</trkpt>
<trkpt lat="-27.2726077" lon="151.2894419">
  <ele>443.24</ele>
  <time>2026-09-01T19:54:28Z</time>
  <course>99.36</course>
  <speed>25.419380401575484</speed>
  <fix>3d</fix>
</trkpt>
<trkpt lat="-27.2725969" lon="151.2893695">
  <ele>443.37</ele>
  <time>2026-09-01T19:54:28Z</time>
  <course>99.39</course>
  <speed>25.47</speed>
  <fix>3d</fix>
</trkpt>
<trkpt lat="-27.2726115" lon="151.2894674">
  <ele>443.24</ele>
  <time>2026-09-01T19:54:28Z</time>
  <course>99.37</course>
  <speed>25.43255394174954</speed>
  <fix>3d</fix>
</trkpt>
<trkpt lat="-27.2726044" lon="151.2894203">
  <ele>443.38</ele>
  <time>2026-09-01T19:54:28Z</time>
  <course>99.46</course>
  <speed>25.46</speed>
  <fix>3d</fix>
</trkpt>
<trkpt lat="-27.2726153" lon="151.2894928">
  <ele>443.24</ele>
  <time>2026-09-01T19:54:28Z</time>
  <course>99.44</course>
  <speed>25.434215144171443</speed>
  <fix>3d</fix>
</trkpt>
<trkpt lat="-27.2726044" lon="151.2894203">
  <ele>443.38</ele>
  <time>2026-09-01T19:54:28Z</time>
  <course>99.46</course>
  <speed>25.46</speed>
  <fix>3d</fix>
</trkpt>
<trkpt lat="-27.2726191" lon="151.2895183">
  <ele>443.24</ele>
  <time>2026-09-01T19:54:28Z</time>
  <course>99.53</course>
  <speed>25.404633435655</speed>
  <fix>3d</fix>
</trkpt>
<trkpt lat="-27.2726119" lon="151.2894711">
  <ele>443.38</ele>
  <time>2026-09-01T19:54:28Z</time>
  <course>99.52</course>
  <speed>25.46</speed>
  <fix>3d</fix>
</trkpt>
<trkpt lat="-27.2726229" lon="151.2895437">
  <ele>443.24</ele>
  <time>2026-09-01T19:54:28Z</time>
  <course>99.74</course>
  <speed>25.3158942168749</speed>
  <fix>3d</fix>
</trkpt>
<trkpt lat="-27.2726119" lon="151.2894711">
  <ele>443.38</ele>
  <time>2026-09-01T19:54:28Z</time>
  <course>99.52</course>
  <speed>25.46</speed>
  <fix>3d</fix>
</trkpt>
<trkpt lat="-27.2726267" lon="151.289569">
  <ele>443.25</ele>
  <time>2026-09-01T19:54:28Z</time>
  <course>100.3</course>
  <speed>25.174769115127948</speed>
  <fix>3d</fix>
</trkpt>
<trkpt lat="-27.2726195" lon="151.2895218">
  <ele>443.38</ele>
  <time>2026-09-01T19:54:28Z</time>
  <course>99.57</course>
  <speed>25.4</speed>
  <fix>3d</fix>
</trkpt>
<trkpt lat="-27.2726306" lon="151.2895941">
  <ele>443.27</ele>
  <time>2026-09-01T19:54:28Z</time>
  <course>101.03</course>
  <speed>25.033297825096874</speed>
  <fix>3d</fix>
</trkpt>
<trkpt lat="-27.2726195" lon="151.2895218">
  <ele>443.38</ele>
  <time>2026-09-01T19:54:28Z</time>
  <course>99.57</course>
  <speed>25.4</speed>
  <fix>3d</fix>
</trkpt>
<trkpt lat="-27.2726347" lon="151.2896191">
  <ele>443.29</ele>
  <time>2026-09-01T19:54:28Z</time>
  <course>101.8</course>
  <speed>24.901817202766548</speed>
  <fix>3d</fix>
</trkpt>
<trkpt lat="-27.2726271" lon="151.2895722">
  <ele>443.39</ele>
  <time>2026-09-01T19:54:28Z</time>
  <course>99.85</course>
  <speed>25.2</speed>
  <fix>3d</fix>
</trkpt>
<trkpt lat="-27.2726391" lon="151.2896438">
  <ele>443.33</ele>
  <time>2026-09-01T19:54:28Z</time>
  <course>102.57</course>
  <speed>24.77799830494788</speed>
  <fix>3d</fix>
</trkpt>
<trkpt lat="-27.2726271" lon="151.2895722">
  <ele>443.39</ele>
  <time>2026-09-01T19:54:28Z</time>
  <course>99.85</course>
  <speed>25.2</speed>
  <fix>3d</fix>
</trkpt>
<trkpt lat="-27.2726438" lon="151.2896684">
  <ele>443.37</ele>
  <time>2026-09-01T19:54:28Z</time>
  <course>103.41</course>
  <speed>24.67535004817561</speed>
  <fix>3d</fix>
</trkpt>
<trkpt lat="-27.2726352" lon="151.289622">
  <ele>443.43</ele>
  <time>2026-09-01T19:54:28Z</time>
  <course>100.89</course>
  <speed>24.92</speed>
  <fix>3d</fix>
</trkpt>
<trkpt lat="-27.2726491" lon="151.2896926">
  <ele>443.41</ele>
  <time>2026-09-01T19:54:28Z</time>
  <course>104.39</course>
  <speed>24.576496902528643</speed>
  <fix>3d</fix>
</trkpt>
<trkpt lat="-27.2726352" lon="151.289622">
  <ele>443.43</ele>
  <time>2026-09-01T19:54:28Z</time>
  <course>100.89</course>
  <speed>24.92</speed>
  <fix>3d</fix>
</trkpt>
<trkpt lat="-27.2726548" lon="151.2897165">
  <ele>443.46</ele>
  <time>2026-09-01T19:54:28Z</time>
  <course>105.6</course>
  <speed>24.483147265006597</speed>
  <fix>3d</fix>
</trkpt>
<trkpt lat="-27.2726443" lon="151.2896711">
  <ele>443.51</ele>
  <time>2026-09-01T19:54:28Z</time>
  <course>102.95</course>
  <speed>24.67</speed>
  <fix>3d</fix>
</trkpt>
<trkpt lat="-27.2726611" lon="151.2897402">
  <ele>443.51</ele>
  <time>2026-09-01T19:54:28Z</time>
  <course>107.1</course>
  <speed>24.366831964783604</speed>
  <fix>3d</fix>
</trkpt>
<trkpt lat="-27.2726443" lon="151.2896711">
  <ele>443.51</ele>
  <time>2026-09-01T19:54:28Z</time>
  <course>102.95</course>
  <speed>24.67</speed>
  <fix>3d</fix>
</trkpt>
<trkpt lat="-27.2726681" lon="151.2897635">
  <ele>443.57</ele>
  <time>2026-09-01T19:54:28Z</time>
  <course>108.81</course>
  <speed>24.181945744707974</speed>
  <fix>3d</fix>
</trkpt>
<trkpt lat="-27.2726552" lon="151.2897191">
  <ele>443.61</ele>
  <time>2026-09-01T19:54:28Z</time>
  <course>105.96</course>
  <speed>24.45</speed>
  <fix>3d</fix>
</trkpt>
<trkpt lat="-27.2726758" lon="151.2897863">
  <ele>443.63</ele>
  <time>2026-09-01T19:54:28Z</time>
  <course>110.23</course>
  <speed>23.945909880395025</speed>
  <fix>3d</fix>
</trkpt>
<trkpt lat="-27.2726552" lon="151.2897191">
  <ele>443.61</ele>
  <time>2026-09-01T19:54:28Z</time>
  <course>105.96</course>
  <speed>24.45</speed>
  <fix>3d</fix>
</trkpt>
<trkpt lat="-27.2726838" lon="151.2898088">
  <ele>443.68</ele>
  <time>2026-09-01T19:54:28Z</time>
  <course>111.29</course>
  <speed>23.671554659548665</speed>
  <fix>3d</fix>
</trkpt>
<trkpt lat="-27.2726686" lon="151.2897659">
  <ele>443.72</ele>
  <time>2026-09-01T19:54:28Z</time>
  <course>109.51</course>
  <speed>24.13</speed>
  <fix>3d</fix>
</trkpt>
<trkpt lat="-27.2726921" lon="151.2898307">
  <ele>443.7</ele>
  <time>2026-09-01T19:54:28Z</time>
  <course>112.11</course>
  <speed>23.358589426589955</speed>
  <fix>3d</fix>
</trkpt>
<trkpt lat="-27.2726686" lon="151.2897659">
  <ele>443.72</ele>
  <time>2026-09-01T19:54:28Z</time>
  <course>109.51</course>
  <speed>24.13</speed>
  <fix>3d</fix>
</trkpt>
<trkpt lat="-27.2727005" lon="151.2898522">
  <ele>443.7</ele>
  <time>2026-09-01T19:54:28Z</time>
  <course>112.79</course>
  <speed>23.057972590841544</speed>
  <fix>3d</fix>
</trkpt>
<trkpt lat="-27.272684" lon="151.289811">
  <ele>443.81</ele>
  <time>2026-09-01T19:54:28Z</time>
  <course>112.43</course>
  <speed>23.64</speed>
  <fix>3d</fix>
</trkpt>
<trkpt lat="-27.272709" lon="151.2898733">
  <ele>443.66</ele>
  <time>2026-09-01T19:54:28Z</time>
  <course>113.34</course>
  <speed>22.78023704881053</speed>
  <fix>3d</fix>
</trkpt>
<trkpt lat="-27.272684" lon="151.289811">
  <ele>443.81</ele>
  <time>2026-09-01T19:54:28Z</time>
  <course>112.43</course>
  <speed>23.64</speed>
  <fix>3d</fix>
</trkpt>
<trkpt lat="-27.2727177" lon="151.2898941">
  <ele>443.61</ele>
  <time>2026-09-01T19:54:28Z</time>
  <course>113.8</course>
  <speed>22.51069301465417</speed>
  <fix>3d</fix>
</trkpt>
<trkpt lat="-27.2727007" lon="151.2898544">
  <ele>443.83</ele>
  <time>2026-09-01T19:54:28Z</time>
  <course>114.27</course>
  <speed>23.05</speed>
  <fix>3d</fix>
</trkpt>
<trkpt lat="-27.2727265" lon="151.2899145">
  <ele>443.55</ele>
  <time>2026-09-01T19:54:28Z</time>
  <course>114.27</course>
  <speed>22.258018779756657</speed>
  <fix>3d</fix>
</trkpt>
<trkpt lat="-27.2727007" lon="151.2898544">
  <ele>443.83</ele>
  <time>2026-09-01T19:54:28Z</time>
  <course>114.27</course>
  <speed>23.05</speed>
  <fix>3d</fix>
</trkpt>
<trkpt lat="-27.2727354" lon="151.2899347">
  <ele>443.5</ele>
  <time>2026-09-01T19:54:28Z</time>
  <course>114.78</course>
  <speed>22.00771228456061</speed>
  <fix>3d</fix>
</trkpt>
<trkpt lat="-27.272718" lon="151.2898962">
  <ele>443.75</ele>
  <time>2026-09-01T19:54:28Z</time>
  <course>115.68</course>
  <speed>22.5</speed>
  <fix>3d</fix>
</trkpt>
<trkpt lat="-27.2727444" lon="151.2899544">
  <ele>443.44</ele>
  <time>2026-09-01T19:54:28Z</time>
  <course>115.32</course>
  <speed>21.767767455575225</speed>
  <fix>3d</fix>
</trkpt>
<trkpt lat="-27.272718" lon="151.2898962">
  <ele>443.75</ele>
  <time>2026-09-01T19:54:28Z</time>
  <course>115.68</course>
  <speed>22.5</speed>
  <fix>3d</fix>
</trkpt>
<trkpt lat="-27.2727533" lon="151.2899739">
  <ele>443.4</ele>
  <time>2026-09-01T19:54:28Z</time>
  <course>115.85</course>
  <speed>21.519818772471112</speed>
  <fix>3d</fix>
</trkpt>
<trkpt lat="-27.2727357" lon="151.2899365">
  <ele>443.64</ele>
  <time>2026-09-01T19:54:28Z</time>
  <course>116.86</course>
  <speed>21.99</speed>
  <fix>3d</fix>
</trkpt>
<trkpt lat="-27.2727623" lon="151.2899931">
  <ele>443.38</ele>
  <time>2026-09-01T19:54:28Z</time>
  <course>116.35</course>
  <speed>21.276475271999352</speed>
  <fix>3d</fix>
</trkpt>
<trkpt lat="-27.2727357" lon="151.2899365">
  <ele>443.64</ele>
  <time>2026-09-01T19:54:28Z</time>
  <course>116.86</course>
  <speed>21.99</speed>
  <fix>3d</fix>
</trkpt>
<trkpt lat="-27.2727713" lon="151.290012">
  <ele>443.36</ele>
  <time>2026-09-01T19:54:28Z</time>
  <course>116.8</course>
  <speed>21.02429546976545</speed>
  <fix>3d</fix>
</trkpt>
<trkpt lat="-27.2727537" lon="151.2899755">
  <ele>443.55</ele>
  <time>2026-09-01T19:54:28Z</time>
  <course>117.74</course>
  <speed>21.5</speed>
  <fix>3d</fix>
</trkpt>
<trkpt lat="-27.2727802" lon="151.2900306">
  <ele>443.37</ele>
  <time>2026-09-01T19:54:28Z</time>
  <course>117.19</course>
  <speed>20.758268232200876</speed>
  <fix>3d</fix>
</trkpt>
<trkpt lat="-27.2727537" lon="151.2899755">
  <ele>443.55</ele>
  <time>2026-09-01T19:54:28Z</time>
  <course>117.74</course>
  <speed>21.5</speed>
  <fix>3d</fix>
</trkpt>
<trkpt lat="-27.2727891" lon="151.290049">
  <ele>443.39</ele>
  <time>2026-09-01T19:54:28Z</time>
  <course>117.53</course>
  <speed>20.48771583168802</speed>
  <fix>3d</fix>
</trkpt>
<trkpt lat="-27.2727716" lon="151.2900134">
  <ele>443.51</ele>
  <time>2026-09-01T19:54:28Z</time>
  <course>118.35</course>
  <speed>20.99</speed>
  <fix>3d</fix>
</trkpt>
<trkpt lat="-27.2727979" lon="151.290067">
  <ele>443.44</ele>
  <time>2026-09-01T19:54:28Z</time>
  <course>117.81</course>
  <speed>20.207733668078664</speed>
  <fix>3d</fix>
</trkpt>
<trkpt lat="-27.2727716" lon="151.2900134">
  <ele>443.51</ele>
  <time>2026-09-01T19:54:28Z</time>
  <course>118.35</course>
  <speed>20.99</speed>
  <fix>3d</fix>
</trkpt>
<trkpt lat="-27.2728066" lon="151.2900848">
  <ele>443.51</ele>
  <time>2026-09-01T19:54:28Z</time>
  <course>118.05</course>
  <speed>19.923036917096752</speed>
  <fix>3d</fix>
</trkpt>
<trkpt lat="-27.2727894" lon="151.2900502">
  <ele>443.54</ele>
  <time>2026-09-01T19:54:28Z</time>
  <course>118.77</course>
  <speed>20.45</speed>
  <fix>3d</fix>
</trkpt>
<trkpt lat="-27.2728152" lon="151.2901023">
  <ele>443.59</ele>
  <time>2026-09-01T19:54:28Z</time>
  <course>118.25</course>
  <speed>19.63745910243991</speed>
  <fix>3d</fix>
</trkpt>
<trkpt lat="-27.2727894" lon="151.2900502">
  <ele>443.54</ele>
  <time>2026-09-01T19:54:28Z</time>
  <course>118.77</course>
  <speed>20.45</speed>
  <fix>3d</fix>
</trkpt>
<trkpt lat="-27.2728237" lon="151.2901196">
  <ele>443.69</ele>
  <time>2026-09-01T19:54:28Z</time>
  <course>118.42</course>
  <speed>19.351904299060596</speed>
  <fix>3d</fix>
</trkpt>
<trkpt lat="-27.272807" lon="151.2900859">
  <ele>443.65</ele>
  <time>2026-09-01T19:54:28Z</time>
  <course>119.05</course>
  <speed>19.89</speed>
  <fix>3d</fix>
</trkpt>
<trkpt lat="-27.2728321" lon="151.2901364">
  <ele>443.79</ele>
  <time>2026-09-01T19:54:28Z</time>
  <course>118.56</course>
  <speed>19.08384133239427</speed>
  <fix>3d</fix>
</trkpt>
<trkpt lat="-27.272807" lon="151.2900859">
  <ele>443.65</ele>
  <time>2026-09-01T19:54:28Z</time>
  <course>119.05</course>
  <speed>19.89</speed>
  <fix>3d</fix>
</trkpt>
<trkpt lat="-27.2728404" lon="151.2901532">
  <ele>443.89</ele>
  <time>2026-09-01T19:54:28Z</time>
  <course>118.67</course>
  <speed>18.81091438500532</speed>
  <fix>3d</fix>
</trkpt>
<trkpt lat="-27.2728241" lon="151.2901205">
  <ele>443.82</ele>
  <time>2026-09-01T19:54:28Z</time>
  <course>119.19</course>
  <speed>19.32</speed>
  <fix>3d</fix>
</trkpt>
<trkpt lat="-27.2728485" lon="151.2901697">
  <ele>443.99</ele>
  <time>2026-09-01T19:54:28Z</time>
  <course>118.74</course>
  <speed>18.546722082351913</speed>
  <fix>3d</fix>
</trkpt>
<trkpt lat="-27.2728241" lon="151.2901205">
  <ele>443.82</ele>
  <time>2026-09-01T19:54:28Z</time>
  <course>119.19</course>
  <speed>19.32</speed>
  <fix>3d</fix>
</trkpt>
<trkpt lat="-27.2728566" lon="151.290186">
  <ele>444.09</ele>
  <time>2026-09-01T19:54:28Z</time>
  <course>118.79</course>
  <speed>18.291265675179506</speed>
  <fix>3d</fix>
</trkpt>
<trkpt lat="-27.2728408" lon="151.2901541">
  <ele>444.02</ele>
  <time>2026-09-01T19:54:28Z</time>
  <course>119.24</course>
  <speed>18.78</speed>
  <fix>3d</fix>
</trkpt>
<trkpt lat="-27.2728646" lon="151.2902021">
  <ele>444.19</ele>
  <time>2026-09-01T19:54:28Z</time>
  <course>118.81</course>
  <speed>18.03969234770926</speed>
  <fix>3d</fix>
</trkpt>
<trkpt lat="-27.2728408" lon="151.2901541">
  <ele>444.02</ele>
  <time>2026-09-01T19:54:28Z</time>
  <course>119.24</course>
  <speed>18.78</speed>
  <fix>3d</fix>
</trkpt>
<trkpt lat="-27.2728724" lon="151.290218">
  <ele>444.28</ele>
  <time>2026-09-01T19:54:28Z</time>
  <course>118.81</course>
  <speed>17.801735870414436</speed>
  <fix>3d</fix>
</trkpt>
<trkpt lat="-27.272857" lon="151.2901868">
  <ele>444.21</ele>
  <time>2026-09-01T19:54:28Z</time>
  <course>119.21</course>
  <speed>18.26</speed>
  <fix>3d</fix>
</trkpt>
<trkpt lat="-27.2728801" lon="151.2902336">
  <ele>444.37</ele>
  <time>2026-09-01T19:54:28Z</time>
  <course>118.78</course>
  <speed>17.558957827843884</speed>
  <fix>3d</fix>
</trkpt>
<trkpt lat="-27.272857" lon="151.2901868">
  <ele>444.21</ele>
  <time>2026-09-01T19:54:28Z</time>
  <course>119.21</course>
  <speed>18.26</speed>
  <fix>3d</fix>
</trkpt>
<trkpt lat="-27.2728877" lon="151.290249">
  <ele>444.45</ele>
  <time>2026-09-01T19:54:28Z</time>
  <course>118.72</course>
  <speed>17.338561070630977</speed>
  <fix>3d</fix>
</trkpt>
<trkpt lat="-27.2728728" lon="151.2902185">
  <ele>444.4</ele>
  <time>2026-09-01T19:54:28Z</time>
  <course>119.1</course>
  <speed>17.76</speed>
  <fix>3d</fix>
</trkpt>
<trkpt lat="-27.2728952" lon="151.2902643">
  <ele>444.52</ele>
  <time>2026-09-01T19:54:28Z</time>
  <course>118.64</course>
  <speed>17.11340118153022</speed>
  <fix>3d</fix>
</trkpt>
<trkpt lat="-27.2728728" lon="151.2902185">
  <ele>444.4</ele>
  <time>2026-09-01T19:54:28Z</time>
  <course>119.1</course>
  <speed>17.76</speed>
  <fix>3d</fix>
</trkpt>
<trkpt lat="-27.2729025" lon="151.2902793">
  <ele>444.59</ele>
  <time>2026-09-01T19:54:28Z</time>
  <course>118.53</course>
  <speed>16.88353635942423</speed>
  <fix>3d</fix>
</trkpt>
<trkpt lat="-27.2728881" lon="151.2902495">
  <ele>444.56</ele>
  <time>2026-09-01T19:54:28Z</time>
  <course>118.92</course>
  <speed>17.3</speed>
  <fix>3d</fix>
</trkpt>
<trkpt lat="-27.2729097" lon="151.2902942">
  <ele>444.66</ele>
  <time>2026-09-01T19:54:28Z</time>
  <course>118.4</course>
  <speed>16.66734831939382</speed>
  <fix>3d</fix>
</trkpt>
<trkpt lat="-27.2728881" lon="151.2902495">
  <ele>444.56</ele>
  <time>2026-09-01T19:54:28Z</time>
  <course>118.92</course>
  <speed>17.3</speed>
  <fix>3d</fix>
</trkpt>
<trkpt lat="-27.2729168" lon="151.290309">
  <ele>444.73</ele>
  <time>2026-09-01T19:54:28Z</time>
  <course>118.25</course>
  <speed>16.455345635993186</speed>
  <fix>3d</fix>
</trkpt>
<trkpt lat="-27.2729029" lon="151.2902798">
  <ele>444.71</ele>
  <time>2026-09-01T19:54:28Z</time>
  <course>118.65</course>
  <speed>16.85</speed>
  <fix>3d</fix>
</trkpt>
<trkpt lat="-27.2729237" lon="151.2903235">
  <ele>444.79</ele>
  <time>2026-09-01T19:54:28Z</time>
  <course>118.07</course>
  <speed>16.243537176366484</speed>
  <fix>3d</fix>
</trkpt>
<trkpt lat="-27.2729029" lon="151.2902798">
  <ele>444.71</ele>
  <time>2026-09-01T19:54:28Z</time>
  <course>118.65</course>
  <speed>16.85</speed>
  <fix>3d</fix>
</trkpt>
<trkpt lat="-27.2729305" lon="151.2903379">
  <ele>444.86</ele>
  <time>2026-09-01T19:54:28Z</time>
  <course>117.87</course>
  <speed>16.03193063857251</speed>
  <fix>3d</fix>
</trkpt>
<trkpt lat="-27.2729172" lon="151.2903094">
  <ele>444.85</ele>
  <time>2026-09-01T19:54:28Z</time>
  <course>118.31</course>
  <speed>16.42</speed>
  <fix>3d</fix>
</trkpt>
<trkpt lat="-27.2729372" lon="151.2903521">
  <ele>444.92</ele>
  <time>2026-09-01T19:54:28Z</time>
  <course>117.65</course>
  <speed>15.829396703601814</speed>
  <fix>3d</fix>
</trkpt>
<trkpt lat="-27.2729172" lon="151.2903094">
  <ele>444.85</ele>
  <time>2026-09-01T19:54:28Z</time>
  <course>118.31</course>
  <speed>16.42</speed>
  <fix>3d</fix>
</trkpt>
<trkpt lat="-27.2729437" lon="151.2903662">
  <ele>444.99</ele>
  <time>2026-09-01T19:54:28Z</time>
  <course>117.41</course>
  <speed>15.613641471482559</speed>
  <fix>3d</fix>
</trkpt>
<trkpt lat="-27.2729309" lon="151.2903383">
  <ele>444.98</ele>
  <time>2026-09-01T19:54:28Z</time>
  <course>117.89</course>
  <speed>16.0</speed>
  <fix>3d</fix>
</trkpt>
<trkpt lat="-27.2729501" lon="151.2903802">
  <ele>445.06</ele>
  <time>2026-09-01T19:54:28Z</time>
  <course>117.16</course>
  <speed>15.4070925226014</speed>
  <fix>3d</fix>
</trkpt>
<trkpt lat="-27.2729309" lon="151.2903383">
  <ele>444.98</ele>
  <time>2026-09-01T19:54:28Z</time>
  <course>117.89</course>
  <speed>16.0</speed>
  <fix>3d</fix>
</trkpt>
<trkpt lat="-27.2729564" lon="151.290394">
  <ele>445.13</ele>
  <time>2026-09-01T19:54:28Z</time>
  <course>116.89</course>
  <speed>15.200901289068357</speed>
  <fix>3d</fix>
</trkpt>
<trkpt lat="-27.2729441" lon="151.2903666">
  <ele>445.12</ele>
  <time>2026-09-01T19:54:28Z</time>
  <course>117.39</course>
  <speed>15.58</speed>
  <fix>3d</fix>
</trkpt>
<trkpt lat="-27.2729625" lon="151.2904077">
  <ele>445.2</ele>
  <time>2026-09-01T19:54:28Z</time>
  <course>116.61</course>
  <speed>14.990623736189232</speed>
  <fix>3d</fix>
</trkpt>
<trkpt lat="-27.2729441" lon="151.2903666">
  <ele>445.12</ele>
  <time>2026-09-01T19:54:28Z</time>
  <course>117.39</course>
  <speed>15.58</speed>
  <fix>3d</fix>
</trkpt>
<trkpt lat="-27.2729684" lon="151.2904211">
  <ele>445.27</ele>
  <time>2026-09-01T19:54:28Z</time>
  <course>116.32</course>
  <speed>14.776264751282714</speed>
  <fix>3d</fix>
</trkpt>
<trkpt lat="-27.2729566" lon="151.2903942">
  <ele>445.26</ele>
  <time>2026-09-01T19:54:28Z</time>
  <course>116.83</course>
  <speed>15.17</speed>
  <fix>3d</fix>
</trkpt>
<trkpt lat="-27.2729742" lon="151.2904344">
  <ele>445.35</ele>
  <time>2026-09-01T19:54:28Z</time>
  <course>116.02</course>
  <speed>14.571262814183264</speed>
  <fix>3d</fix>
</trkpt>
<trkpt lat="-27.2729566" lon="151.2903942">
  <ele>445.26</ele>
  <time>2026-09-01T19:54:28Z</time>
  <course>116.83</course>
  <speed>15.17</speed>
  <fix>3d</fix>
</trkpt>
<trkpt lat="-27.2729798" lon="151.2904474">
  <ele>445.43</ele>
  <time>2026-09-01T19:54:28Z</time>
  <course>115.71</course>
  <speed>14.362370974181108</speed>
  <fix>3d</fix>
</trkpt>
<trkpt lat="-27.2729687" lon="151.2904213">
  <ele>445.4</ele>
  <time>2026-09-01T19:54:28Z</time>
  <course>116.22</course>
  <speed>14.75</speed>
  <fix>3d</fix>
</trkpt>
<trkpt lat="-27.2729853" lon="151.2904604">
  <ele>445.52</ele>
  <time>2026-09-01T19:54:28Z</time>
  <course>115.4</course>
  <speed>14.149236728530624</speed>
  <fix>3d</fix>
</trkpt>
<trkpt lat="-27.2729687" lon="151.2904213">
  <ele>445.4</ele>
  <time>2026-09-01T19:54:28Z</time>
  <course>116.22</course>
  <speed>14.75</speed>
  <fix>3d</fix>
</trkpt>
<trkpt lat="-27.2729906" lon="151.2904733">
  <ele>445.6</ele>
  <time>2026-09-01T19:54:28Z</time>
  <course>115.07</course>
  <speed>13.932307777249253</speed>
  <fix>3d</fix>
</trkpt>
<trkpt lat="-27.2729801" lon="151.2904477">
  <ele>445.57</ele>
  <time>2026-09-01T19:54:28Z</time>
  <course>115.57</course>
  <speed>14.34</speed>
  <fix>3d</fix>
</trkpt>
<trkpt lat="-27.2729958" lon="151.2904859">
  <ele>445.7</ele>
  <time>2026-09-01T19:54:28Z</time>
  <course>114.74</course>
  <speed>13.720072886103775</speed>
  <fix>3d</fix>
</trkpt>
<trkpt lat="-27.2729801" lon="151.2904477">
  <ele>445.57</ele>
  <time>2026-09-01T19:54:28Z</time>
  <course>115.57</course>
  <speed>14.34</speed>
  <fix>3d</fix>
</trkpt>
<trkpt lat="-27.2730009" lon="151.2904985">
  <ele>445.79</ele>
  <time>2026-09-01T19:54:28Z</time>
  <course>114.41</course>
  <speed>13.504195644317363</speed>
  <fix>3d</fix>
</trkpt>
<trkpt lat="-27.2729909" lon="151.2904735">
  <ele>445.74</ele>
  <time>2026-09-01T19:54:28Z</time>
  <course>114.89</course>
  <speed>13.91</speed>
  <fix>3d</fix>
</trkpt>
<trkpt lat="-27.2730058" lon="151.2905109">
  <ele>445.89</ele>
  <time>2026-09-01T19:54:28Z</time>
  <course>114.07</course>
  <speed>13.292949258911658</speed>
  <fix>3d</fix>
</trkpt>
<trkpt lat="-27.2729909" lon="151.2904735">
  <ele>445.74</ele>
  <time>2026-09-01T19:54:28Z</time>
  <course>114.89</course>
  <speed>13.91</speed>
  <fix>3d</fix>
</trkpt>
<trkpt lat="-27.2730106" lon="151.2905231">
  <ele>445.99</ele>
  <time>2026-09-01T19:54:28Z</time>
  <course>113.72</course>
  <speed>13.073033312892612</speed>
  <fix>3d</fix>
</trkpt>
<trkpt lat="-27.2730011" lon="151.2904987">
  <ele>445.92</ele>
  <time>2026-09-01T19:54:28Z</time>
  <course>114.2</course>
  <speed>13.49</speed>
  <fix>3d</fix>
</trkpt>
<trkpt lat="-27.2730152" lon="151.2905351">
  <ele>446.09</ele>
  <time>2026-09-01T19:54:28Z</time>
  <course>113.38</course>
  <speed>12.853594827907093</speed>
  <fix>3d</fix>
</trkpt>
<trkpt lat="-27.2730011" lon="151.2904987">
  <ele>445.92</ele>
  <time>2026-09-01T19:54:28Z</time>
  <course>114.2</course>
  <speed>13.49</speed>
  <fix>3d</fix>
</trkpt>
<trkpt lat="-27.2730197" lon="151.2905469">
  <ele>446.19</ele>
  <time>2026-09-01T19:54:28Z</time>
  <course>113.03</course>
  <speed>12.634658681579017</speed>
  <fix>3d</fix>
</trkpt>
<trkpt lat="-27.2730108" lon="151.2905233">
  <ele>446.12</ele>
  <time>2026-09-01T19:54:28Z</time>
  <course>113.48</course>
  <speed>13.06</speed>
  <fix>3d</fix>
</trkpt>
<trkpt lat="-27.273024" lon="151.2905586">
  <ele>446.29</ele>
  <time>2026-09-01T19:54:28Z</time>
  <course>112.69</course>
  <speed>12.410821890592096</speed>
  <fix>3d</fix>
</trkpt>
<trkpt lat="-27.2730108" lon="151.2905233">
  <ele>446.12</ele>
  <time>2026-09-01T19:54:28Z</time>
  <course>113.48</course>
  <speed>13.06</speed>
  <fix>3d</fix>
</trkpt>
<trkpt lat="-27.2730282" lon="151.2905701">
  <ele>446.4</ele>
  <time>2026-09-01T19:54:28Z</time>
  <course>112.34</course>
  <speed>12.19664298075499</speed>
  <fix>3d</fix>
</trkpt>
<trkpt lat="-27.2730199" lon="151.2905472">
  <ele>446.32</ele>
  <time>2026-09-01T19:54:28Z</time>
  <course>112.76</course>
  <speed>12.63</speed>
  <fix>3d</fix>
</trkpt>
<trkpt lat="-27.2730322" lon="151.2905814">
  <ele>446.51</ele>
  <time>2026-09-01T19:54:28Z</time>
  <course>112.0</course>
  <speed>11.969933166062374</speed>
  <fix>3d</fix>
</trkpt>
<trkpt lat="-27.2730199" lon="151.2905472">
  <ele>446.32</ele>
  <time>2026-09-01T19:54:28Z</time>
  <course>112.76</course>
  <speed>12.63</speed>
  <fix>3d</fix>
</trkpt>
<trkpt lat="-27.2730362" lon="151.2905925">
  <ele>446.62</ele>
  <time>2026-09-01T19:54:28Z</time>
  <course>111.65</course>
  <speed>11.747425249815382</speed>
  <fix>3d</fix>
</trkpt>
<trkpt lat="-27.2730284" lon="151.2905704">
  <ele>446.53</ele>
  <time>2026-09-01T19:54:28Z</time>
  <course>112.05</course>
  <speed>12.19</speed>
  <fix>3d</fix>
</trkpt>
<trkpt lat="-27.2730399" lon="151.2906035">
  <ele>446.73</ele>
  <time>2026-09-01T19:54:28Z</time>
  <course>111.3</course>
  <speed>11.528972200504258</speed>
  <fix>3d</fix>
</trkpt>
<trkpt lat="-27.2730284" lon="151.2905704">
  <ele>446.53</ele>
  <time>2026-09-01T19:54:28Z</time>
  <course>112.05</course>
  <speed>12.19</speed>
  <fix>3d</fix>
</trkpt>
<trkpt lat="-27.2730436" lon="151.2906143">
  <ele>446.84</ele>
  <time>2026-09-01T19:54:28Z</time>
  <course>110.95</course>
  <speed>11.29800867409828</speed>
  <fix>3d</fix>
</trkpt>
<trkpt lat="-27.2730363" lon="151.2905929">
  <ele>446.75</ele>
  <time>2026-09-01T19:54:28Z</time>
  <course>111.33</course>
  <speed>11.75</speed>
  <fix>3d</fix>
</trkpt>
<trkpt lat="-27.2730471" lon="151.2906249">
  <ele>446.95</ele>
  <time>2026-09-01T19:54:28Z</time>
  <course>110.6</course>
  <speed>11.070993632009731</speed>
  <fix>3d</fix>
</trkpt>
<trkpt lat="-27.2730363" lon="151.2905929">
  <ele>446.75</ele>
  <time>2026-09-01T19:54:28Z</time>
  <course>111.33</course>
  <speed>11.75</speed>
  <fix>3d</fix>
</trkpt>
<trkpt lat="-27.2730505" lon="151.2906353">
  <ele>447.06</ele>
  <time>2026-09-01T19:54:28Z</time>
  <course>110.25</course>
  <speed>10.844362590765765</speed>
  <fix>3d</fix>
</trkpt>
<trkpt lat="-27.2730437" lon="151.2906147">
  <ele>446.96</ele>
  <time>2026-09-01T19:54:28Z</time>
  <course>110.62</course>
  <speed>11.3</speed>
  <fix>3d</fix>
</trkpt>
<trkpt lat="-27.2730538" lon="151.2906455">
  <ele>447.17</ele>
  <time>2026-09-01T19:54:28Z</time>
  <course>109.9</course>
  <speed>10.618140138461161</speed>
  <fix>3d</fix>
</trkpt>
<trkpt lat="-27.2730437" lon="151.2906147">
  <ele>446.96</ele>
  <time>2026-09-01T19:54:28Z</time>
  <course>110.62</course>
  <speed>11.3</speed>
  <fix>3d</fix>
</trkpt>
<trkpt lat="-27.2730569" lon="151.2906555">
  <ele>447.27</ele>
  <time>2026-09-01T19:54:28Z</time>
  <course>109.56</course>
  <speed>10.395657747348169</speed>
  <fix>3d</fix>
</trkpt>
<trkpt lat="-27.2730506" lon="151.2906357">
  <ele>447.19</ele>
  <time>2026-09-01T19:54:28Z</time>
  <course>109.91</course>
  <speed>10.86</speed>
  <fix>3d</fix>
</trkpt>
<trkpt lat="-27.27306" lon="151.2906653">
  <ele>447.38</ele>
  <time>2026-09-01T19:54:28Z</time>
  <course>109.22</course>
  <speed>10.170270399551823</speed>
  <fix>3d</fix>
</trkpt>
<trkpt lat="-27.2730506" lon="151.2906357">
  <ele>447.19</ele>
  <time>2026-09-01T19:54:28Z</time>
  <course>109.91</course>
  <speed>10.86</speed>
  <fix>3d</fix>
</trkpt>
<trkpt lat="-27.2730629" lon="151.290675">
  <ele>447.48</ele>
  <time>2026-09-01T19:54:28Z</time>
  <course>108.87</course>
  <speed>9.939079434233333</speed>
  <fix>3d</fix>
</trkpt>
<trkpt lat="-27.273057" lon="151.2906559">
  <ele>447.4</ele>
  <time>2026-09-01T19:54:28Z</time>
  <course>109.21</course>
  <speed>10.41</speed>
  <fix>3d</fix>
</trkpt>
<trkpt lat="-27.2730656" lon="151.2906844">
  <ele>447.58</ele>
  <time>2026-09-01T19:54:28Z</time>
  <course>108.53</course>
  <speed>9.720874446262536</speed>
  <fix>3d</fix>
</trkpt>
<trkpt lat="-27.273057" lon="151.2906559">
  <ele>447.4</ele>
  <time>2026-09-01T19:54:28Z</time>
  <course>109.21</course>
  <speed>10.41</speed>
  <fix>3d</fix>
</trkpt>
<trkpt lat="-27.2730683" lon="151.2906936">
  <ele>447.68</ele>
  <time>2026-09-01T19:54:28Z</time>
  <course>108.2</course>
  <speed>9.49037933909915</speed>
  <fix>3d</fix>
</trkpt>
<trkpt lat="-27.2730629" lon="151.2906754">
  <ele>447.61</ele>
  <time>2026-09-01T19:54:28Z</time>
  <course>108.51</course>
  <speed>9.96</speed>
  <fix>3d</fix>
</trkpt>
<trkpt lat="-27.2730709" lon="151.2907027">
  <ele>447.77</ele>
  <time>2026-09-01T19:54:28Z</time>
  <course>107.86</course>
  <speed>9.263309343857626</speed>
  <fix>3d</fix>
</trkpt>
<trkpt lat="-27.2730629" lon="151.2906754">
  <ele>447.61</ele>
  <time>2026-09-01T19:54:28Z</time>
  <course>108.51</course>
  <speed>9.96</speed>
  <fix>3d</fix>
</trkpt>
<trkpt lat="-27.2730733" lon="151.2907115">
  <ele>447.87</ele>
  <time>2026-09-01T19:54:28Z</time>
  <course>107.53</course>
  <speed>9.036553546568515</speed>
  <fix>3d</fix>
</trkpt>
<trkpt lat="-27.2730684" lon="151.290694">
  <ele>447.8</ele>
  <time>2026-09-01T19:54:28Z</time>
  <course>107.82</course>
  <speed>9.51</speed>
  <fix>3d</fix>
</trkpt>
<trkpt lat="-27.2730757" lon="151.2907202">
  <ele>447.95</ele>
  <time>2026-09-01T19:54:28Z</time>
  <course>107.19</course>
  <speed>8.822612991625554</speed>
  <fix>3d</fix>
</trkpt>
<trkpt lat="-27.2730684" lon="151.290694">
  <ele>447.8</ele>
  <time>2026-09-01T19:54:28Z</time>
  <course>107.82</course>
  <speed>9.51</speed>
  <fix>3d</fix>
</trkpt>
<trkpt lat="-27.273078" lon="151.2907287">
  <ele>448.04</ele>
  <time>2026-09-01T19:54:28Z</time>
  <course>106.86</course>
  <speed>8.599372070099072</speed>
  <fix>3d</fix>
</trkpt>
<trkpt lat="-27.2730734" lon="151.2907119">
  <ele>447.99</ele>
  <time>2026-09-01T19:54:28Z</time>
  <course>107.14</course>
  <speed>9.06</speed>
  <fix>3d</fix>
</trkpt>
<trkpt lat="-27.2730801" lon="151.2907369">
  <ele>448.11</ele>
  <time>2026-09-01T19:54:28Z</time>
  <course>106.53</course>
  <speed>8.376401375292376</speed>
  <fix>3d</fix>
</trkpt>
<trkpt lat="-27.2730734" lon="151.2907119">
  <ele>447.99</ele>
  <time>2026-09-01T19:54:28Z</time>
  <course>107.14</course>
  <speed>9.06</speed>
  <fix>3d</fix>
</trkpt>
<trkpt lat="-27.2730822" lon="151.290745">
  <ele>448.19</ele>
  <time>2026-09-01T19:54:28Z</time>
  <course>106.2</course>
  <speed>8.163338777730592</speed>
  <fix>3d</fix>
</trkpt>
<trkpt lat="-27.273078" lon="151.2907291">
  <ele>448.15</ele>
  <time>2026-09-01T19:54:28Z</time>
  <course>106.46</course>
  <speed>8.62</speed>
  <fix>3d</fix>
</trkpt>
<trkpt lat="-27.2730841" lon="151.2907528">
  <ele>448.25</ele>
  <time>2026-09-01T19:54:28Z</time>
  <course>105.86</course>
  <speed>7.943683024894686</speed>
  <fix>3d</fix>
</trkpt>
<trkpt lat="-27.273078" lon="151.2907291">
  <ele>448.15</ele>
  <time>2026-09-01T19:54:28Z</time>
  <course>106.46</course>
  <speed>8.62</speed>
  <fix>3d</fix>
</trkpt>
<trkpt lat="-27.273086" lon="151.2907605">
  <ele>448.31</ele>
  <time>2026-09-01T19:54:28Z</time>
  <course>105.52</course>
  <speed>7.73389940456947</speed>
  <fix>3d</fix>
</trkpt>
<trkpt lat="-27.2730822" lon="151.2907455">
  <ele>448.31</ele>
  <time>2026-09-01T19:54:28Z</time>
  <course>105.79</course>
  <speed>8.19</speed>
  <fix>3d</fix>
</trkpt>
<trkpt lat="-27.2730878" lon="151.2907679">
  <ele>448.36</ele>
  <time>2026-09-01T19:54:28Z</time>
  <course>105.18</course>
  <speed>7.534056012534019</speed>
  <fix>3d</fix>
</trkpt>
<trkpt lat="-27.2730822" lon="151.2907455">
  <ele>448.31</ele>
  <time>2026-09-01T19:54:28Z</time>
  <course>105.79</course>
  <speed>8.19</speed>
  <fix>3d</fix>
</trkpt>
<trkpt lat="-27.2730895" lon="151.2907752">
  <ele>448.41</ele>
  <time>2026-09-01T19:54:28Z</time>
  <course>104.84</course>
  <speed>7.327386983092949</speed>
  <fix>3d</fix>
</trkpt>
<trkpt lat="-27.273086" lon="151.290761">
  <ele>448.43</ele>
  <time>2026-09-01T19:54:28Z</time>
  <course>105.11</course>
  <speed>7.76</speed>
  <fix>3d</fix>
</trkpt>
<trkpt lat="-27.2730911" lon="151.2907823">
  <ele>448.45</ele>
  <time>2026-09-01T19:54:28Z</time>
  <course>104.49</course>
  <speed>7.130617084095878</speed>
  <fix>3d</fix>
</trkpt>
<trkpt lat="-27.273086" lon="151.290761">
  <ele>448.43</ele>
  <time>2026-09-01T19:54:28Z</time>
  <course>105.11</course>
  <speed>7.76</speed>
  <fix>3d</fix>
</trkpt>
<trkpt lat="-27.2730926" lon="151.2907893">
  <ele>448.48</ele>
  <time>2026-09-01T19:54:28Z</time>
  <course>104.14</course>
  <speed>6.93410412382162</speed>
  <fix>3d</fix>
</trkpt>
<trkpt lat="-27.2730895" lon="151.2907758">
  <ele>448.53</ele>
  <time>2026-09-01T19:54:28Z</time>
  <course>104.43</course>
  <speed>7.35</speed>
  <fix>3d</fix>
</trkpt>
<trkpt lat="-27.2730941" lon="151.290796">
  <ele>448.5</ele>
  <time>2026-09-01T19:54:28Z</time>
  <course>103.77</course>
  <speed>6.7402225482546205</speed>
  <fix>3d</fix>
</trkpt>
<trkpt lat="-27.2730895" lon="151.2907758">
  <ele>448.53</ele>
  <time>2026-09-01T19:54:28Z</time>
  <course>104.43</course>
  <speed>7.35</speed>
  <fix>3d</fix>
</trkpt>
<trkpt lat="-27.2730955" lon="151.2908026">
  <ele>448.51</ele>
  <time>2026-09-01T19:54:28Z</time>
  <course>103.4</course>
  <speed>6.565988120610637</speed>
  <fix>3d</fix>
</trkpt>
<trkpt lat="-27.2730926" lon="151.2907898">
  <ele>448.59</ele>
  <time>2026-09-01T19:54:28Z</time>
  <course>103.74</course>
  <speed>6.96</speed>
  <fix>3d</fix>
</trkpt>
<trkpt lat="-27.2730968" lon="151.290809">
  <ele>448.46</ele>
  <time>2026-09-01T19:54:28Z</time>
  <course>102.99</course>
  <speed>6.3575624259616985</speed>
  <fix>3d</fix>
</trkpt>
<trkpt lat="-27.2730926" lon="151.2907898">
  <ele>448.59</ele>
  <time>2026-09-01T19:54:28Z</time>
  <course>103.74</course>
  <speed>6.96</speed>
  <fix>3d</fix>
</trkpt>
<trkpt lat="-27.2730981" lon="151.2908151">
  <ele>448.33</ele>
  <time>2026-09-01T19:54:28Z</time>
  <course>102.56</course>
  <speed>6.078716969887642</speed>
  <fix>3d</fix>
</trkpt>
<trkpt lat="-27.2730954" lon="151.2908031">
  <ele>448.59</ele>
  <time>2026-09-01T19:54:28Z</time>
  <course>103.2</course>
  <speed>6.58</speed>
  <fix>3d</fix>
</trkpt>
<trkpt lat="-27.2730992" lon="151.290821">
  <ele>448.14</ele>
  <time>2026-09-01T19:54:28Z</time>
  <course>102.14</course>
  <speed>5.683704777695619</speed>
  <fix>3d</fix>
</trkpt>
<trkpt lat="-27.2730954" lon="151.2908031">
  <ele>448.59</ele>
  <time>2026-09-01T19:54:28Z</time>
  <course>103.2</course>
  <speed>6.58</speed>
  <fix>3d</fix>
</trkpt>
<trkpt lat="-27.2731003" lon="151.2908263">
  <ele>447.9</ele>
  <time>2026-09-01T19:54:28Z</time>
  <course>101.73</course>
  <speed>5.174881641158569</speed>
  <fix>3d</fix>
</trkpt>
<trkpt lat="-27.273098" lon="151.2908155">
  <ele>448.42</ele>
  <time>2026-09-01T19:54:28Z</time>
  <course>102.88</course>
  <speed>6.05</speed>
  <fix>3d</fix>
</trkpt>
<trkpt lat="-27.2731012" lon="151.2908312">
  <ele>447.63</ele>
  <time>2026-09-01T19:54:28Z</time>
  <course>101.35</course>
  <speed>4.591481242475025</speed>
  <fix>3d</fix>
</trkpt>
<trkpt lat="-27.273098" lon="151.2908155">
  <ele>448.42</ele>
  <time>2026-09-01T19:54:28Z</time>
  <course>102.88</course>
  <speed>6.05</speed>
  <fix>3d</fix>
</trkpt>
<trkpt lat="-27.273102" lon="151.2908354">
  <ele>447.35</ele>
  <time>2026-09-01T19:54:28Z</time>
  <course>100.98</course>
  <speed>3.9576255507564126</speed>
  <fix>3d</fix>
</trkpt>
<trkpt lat="-27.2731003" lon="151.2908267">
  <ele>448.02</ele>
  <time>2026-09-01T19:54:28Z</time>
  <course>102.37</course>
  <speed>5.17</speed>
  <fix>3d</fix>
</trkpt>
<trkpt lat="-27.2731026" lon="151.2908391">
  <ele>447.07</ele>
  <time>2026-09-01T19:54:28Z</time>
  <course>100.57</course>
  <speed>3.30311973746033</speed>
  <fix>3d</fix>
</trkpt>
<trkpt lat="-27.2731003" lon="151.2908267">
  <ele>448.02</ele>
  <time>2026-09-01T19:54:28Z</time>
  <course>102.37</course>
  <speed>5.17</speed>
  <fix>3d</fix>
</trkpt>
<trkpt lat="-27.2731031" lon="151.2908421">
  <ele>446.79</ele>
  <time>2026-09-01T19:54:28Z</time>
  <course>100.07</course>
  <speed>2.6503584663211126</speed>
  <fix>3d</fix>
</trkpt>
<trkpt lat="-27.273102" lon="151.2908358">
  <ele>447.49</ele>
  <time>2026-09-01T19:54:28Z</time>
  <course>101.13</course>
  <speed>3.99</speed>
  <fix>3d</fix>
</trkpt>
<trkpt lat="-27.2731033" lon="151.2908444">
  <ele>446.54</ele>
  <time>2026-09-01T19:54:28Z</time>
  <course>99.41</course>
  <speed>2.0032473636573194</speed>
  <fix>3d</fix>
</trkpt>
<trkpt lat="-27.273102" lon="151.2908358">
  <ele>447.49</ele>
  <time>2026-09-01T19:54:28Z</time>
  <course>101.13</course>
  <speed>3.99</speed>
  <fix>3d</fix>
</trkpt>
<trkpt lat="-27.2731035" lon="151.2908462">
  <ele>446.31</ele>
  <time>2026-09-01T19:54:28Z</time>
  <course>98.47</course>
  <speed>1.3929106216839613</speed>
  <fix>3d</fix>
</trkpt>
<trkpt lat="-27.273103" lon="151.2908425">
  <ele>446.95</ele>
  <time>2026-09-01T19:54:28Z</time>
  <course>98.62</course>
  <speed>2.7</speed>
  <fix>3d</fix>
</trkpt>
<trkpt lat="-27.2731035" lon="151.2908473">
  <ele>446.11</ele>
  <time>2026-09-01T19:54:28Z</time>
  <course>97.05</course>
  <speed>0.8</speed>
  <fix>3d</fix>
</trkpt>
<trkpt lat="-27.273103" lon="151.2908425">
  <ele>446.95</ele>
  <time>2026-09-01T19:54:28Z</time>
  <course>98.62</course>
  <speed>2.7</speed>
  <fix>3d</fix>
</trkpt>
<trkpt lat="-27.2731035" lon="151.2908479">
  <ele>445.95</ele>
  <time>2026-09-01T19:54:28Z</time>
  <course>94.84</course>
  <speed>0.24186773244895649</speed>
  <fix>3d</fix>
</trkpt>
<trkpt lat="-27.2731034" lon="151.2908466">
  <ele>446.47</ele>
  <time>2026-09-01T19:54:28Z</time>
  <course>94.08</course>
  <speed>1.45</speed>
  <fix>3d</fix>
</trkpt>
<trkpt lat="-27.2731034" lon="151.2908479">
  <ele>445.82</ele>
  <time>2026-09-01T19:54:28Z</time>
  <course>92.1</course>
  <speed>0.27294688127912364</speed>
  <fix>3d</fix>
</trkpt>
<trkpt lat="-27.2731034" lon="151.2908466">
  <ele>446.47</ele>
  <time>2026-09-01T19:54:28Z</time>
  <course>94.08</course>
  <speed>1.45</speed>
  <fix>3d</fix>
</trkpt>
<trkpt lat="-27.2731034" lon="151.2908474">
  <ele>445.73</ele>
  <time>2026-09-01T19:54:28Z</time>
  <course>89.71</course>
  <speed>0.7410802925459562</speed>
  <fix>3d</fix>
</trkpt>
<trkpt lat="-27.2731035" lon="151.2908484">
  <ele>446.11</ele>
  <time>2026-09-01T19:54:28Z</time>
  <course>82.6</course>
  <speed>0.31</speed>
  <fix>3d</fix>
</trkpt>
<trkpt lat="-27.2731033" lon="151.2908465">
  <ele>445.67</ele>
  <time>2026-09-01T19:54:28Z</time>
  <course>88.34</course>
  <speed>1.110405331399305</speed>
  <fix>3d</fix>
</trkpt>
<trkpt lat="-27.2731035" lon="151.2908484">
  <ele>446.11</ele>
  <time>2026-09-01T19:54:28Z</time>
  <course>82.6</course>
  <speed>0.31</speed>
  <fix>3d</fix>
</trkpt>
<trkpt lat="-27.2731033" lon="151.2908453">
  <ele>445.64</ele>
  <time>2026-09-01T19:54:28Z</time>
  <course>87.94</course>
  <speed>1.4</speed>
  <fix>3d</fix>
</trkpt>
<trkpt lat="-27.2731034" lon="151.2908481">
  <ele>445.89</ele>
  <time>2026-09-01T19:54:28Z</time>
  <course>275.13</course>
  <speed>0.65</speed>
  <fix>3d</fix>
</trkpt>
<trkpt lat="-27.2731033" lon="151.2908439">
  <ele>445.64</ele>
  <time>2026-09-01T19:54:28Z</time>
  <course>88.04</course>
  <speed>1.6304907236779973</speed>
  <fix>3d</fix>
</trkpt>
<trkpt lat="-27.2731034" lon="151.2908481">
  <ele>445.89</ele>
  <time>2026-09-01T19:54:28Z</time>
  <course>275.13</course>
  <speed>0.65</speed>
  <fix>3d</fix>
</trkpt>
<trkpt lat="-27.2731034" lon="151.2908423">
  <ele>445.67</ele>
  <time>2026-09-01T19:54:28Z</time>
  <course>87.92</course>
  <speed>1.794017837146554</speed>
  <fix>3d</fix>
</trkpt>
<trkpt lat="-27.2731034" lon="151.290846">
  <ele>445.81</ele>
  <time>2026-09-01T19:54:28Z</time>
  <course>270.72</course>
  <speed>1.33</speed>
  <fix>3d</fix>
</trkpt>
<trkpt lat="-27.2731035" lon="151.2908405">
  <ele>445.71</ele>
  <time>2026-09-01T19:54:28Z</time>
  <course>87.73</course>
  <speed>1.9067249408344142</speed>
  <fix>3d</fix>
</trkpt>
<trkpt lat="-27.2731034" lon="151.290846">
  <ele>445.81</ele>
  <time>2026-09-01T19:54:28Z</time>
  <course>270.72</course>
  <speed>1.33</speed>
  <fix>3d</fix>
</trkpt>
<trkpt lat="-27.2731037" lon="151.2908386">
  <ele>445.76</ele>
  <time>2026-09-01T19:54:28Z</time>
  <course>88.01</course>
  <speed>1.9791412279066898</speed>
  <fix>3d</fix>
</trkpt>
<trkpt lat="-27.2731034" lon="151.2908429">
  <ele>445.83</ele>
  <time>2026-09-01T19:54:28Z</time>
  <course>267.32</course>
  <speed>1.73</speed>
  <fix>3d</fix>
</trkpt>
<trkpt lat="-27.2731038" lon="151.2908366">
  <ele>445.81</ele>
  <time>2026-09-01T19:54:28Z</time>
  <course>89.05</course>
  <speed>2.000024999843752</speed>
  <fix>3d</fix>
</trkpt>
<trkpt lat="-27.2731034" lon="151.2908429">
  <ele>445.83</ele>
  <time>2026-09-01T19:54:28Z</time>
  <course>267.32</course>
  <speed>1.73</speed>
  <fix>3d</fix>
</trkpt>
<trkpt lat="-27.273104" lon="151.2908347">
  <ele>445.87</ele>
  <time>2026-09-01T19:54:28Z</time>
  <course>90.8</course>
  <speed>2.0032473636573194</speed>
  <fix>3d</fix>
</trkpt>
<trkpt lat="-27.2731036" lon="151.2908392">
  <ele>445.91</ele>
  <time>2026-09-01T19:54:28Z</time>
  <course>265.25</course>
  <speed>1.92</speed>
  <fix>3d</fix>
</trkpt>
<trkpt lat="-27.2731042" lon="151.2908327">
  <ele>445.93</ele>
  <time>2026-09-01T19:54:28Z</time>
  <course>93.16</course>
  <speed>1.9983242980057065</speed>
  <fix>3d</fix>
</trkpt>
<trkpt lat="-27.2731036" lon="151.2908392">
  <ele>445.91</ele>
  <time>2026-09-01T19:54:28Z</time>
  <course>265.25</course>
  <speed>1.92</speed>
  <fix>3d</fix>
</trkpt>
<trkpt lat="-27.2731045" lon="151.2908308">
  <ele>445.98</ele>
  <time>2026-09-01T19:54:28Z</time>
  <course>96.07</course>
  <speed>1.9760819821049935</speed>
  <fix>3d</fix>
</trkpt>
<trkpt lat="-27.2731039" lon="151.2908353">
  <ele>446.03</ele>
  <time>2026-09-01T19:54:28Z</time>
  <course>263.91</course>
  <speed>1.97</speed>
  <fix>3d</fix>
</trkpt>
<trkpt lat="-27.2731048" lon="151.2908289">
  <ele>446.03</ele>
  <time>2026-09-01T19:54:28Z</time>
  <course>99.58</course>
  <speed>1.9474342094150447</speed>
  <fix>3d</fix>
</trkpt>
<trkpt lat="-27.2731039" lon="151.2908353">
  <ele>446.03</ele>
  <time>2026-09-01T19:54:28Z</time>
  <course>263.91</course>
  <speed>1.97</speed>
  <fix>3d</fix>
</trkpt>
<trkpt lat="-27.2731051" lon="151.2908271">
  <ele>446.07</ele>
  <time>2026-09-01T19:54:28Z</time>
  <course>103.76</course>
  <speed>1.9354586019855862</speed>
  <fix>3d</fix>
</trkpt>
<trkpt lat="-27.2731044" lon="151.2908313">
  <ele>446.14</ele>
  <time>2026-09-01T19:54:28Z</time>
  <course>261.17</course>
  <speed>1.95</speed>
  <fix>3d</fix>
</trkpt>
<trkpt lat="-27.2731056" lon="151.2908252">
  <ele>446.1</ele>
  <time>2026-09-01T19:54:28Z</time>
  <course>108.69</course>
  <speed>1.9204426573058617</speed>
  <fix>3d</fix>
</trkpt>
<trkpt lat="-27.2731044" lon="151.2908313">
  <ele>446.14</ele>
  <time>2026-09-01T19:54:28Z</time>
  <course>261.17</course>
  <speed>1.95</speed>
  <fix>3d</fix>
</trkpt>
<trkpt lat="-27.2731061" lon="151.2908234">
  <ele>446.13</ele>
  <time>2026-09-01T19:54:28Z</time>
  <course>114.31</course>
  <speed>1.9231744590650115</speed>
  <fix>3d</fix>
</trkpt>
<trkpt lat="-27.273105" lon="151.2908275">
  <ele>446.22</ele>
  <time>2026-09-01T19:54:28Z</time>
  <course>256.77</course>
  <speed>1.91</speed>
  <fix>3d</fix>
</trkpt>
<trkpt lat="-27.2731067" lon="151.2908217">
  <ele>446.14</ele>
  <time>2026-09-01T19:54:28Z</time>
  <course>120.47</course>
  <speed>1.9485892332659542</speed>
  <fix>3d</fix>
</trkpt>
<trkpt lat="-27.273105" lon="151.2908275">
  <ele>446.22</ele>
  <time>2026-09-01T19:54:28Z</time>
  <course>256.77</course>
  <speed>1.91</speed>
  <fix>3d</fix>
</trkpt>
<trkpt lat="-27.2731075" lon="151.2908199">
  <ele>446.14</ele>
  <time>2026-09-01T19:54:28Z</time>
  <course>126.92</course>
  <speed>2.003696583817021</speed>
  <fix>3d</fix>
</trkpt>
<trkpt lat="-27.273106" lon="151.2908238">
  <ele>446.27</ele>
  <time>2026-09-01T19:54:28Z</time>
  <course>250.74</course>
  <speed>1.91</speed>
  <fix>3d</fix>
</trkpt>
<trkpt lat="-27.2731083" lon="151.2908181">
  <ele>446.14</ele>
  <time>2026-09-01T19:54:28Z</time>
  <course>133.58</course>
  <speed>2.0905740838343903</speed>
  <fix>3d</fix>
</trkpt>
<trkpt lat="-27.273106" lon="151.2908238">
  <ele>446.27</ele>
  <time>2026-09-01T19:54:28Z</time>
  <course>250.74</course>
  <speed>1.91</speed>
  <fix>3d</fix>
</trkpt>
<trkpt lat="-27.2731094" lon="151.2908164">
  <ele>446.12</ele>
  <time>2026-09-01T19:54:28Z</time>
  <course>140.25</course>
  <speed>2.216167863678201</speed>
  <fix>3d</fix>
</trkpt>
<trkpt lat="-27.2731074" lon="151.2908201">
  <ele>446.29</ele>
  <time>2026-09-01T19:54:28Z</time>
  <course>243.26</course>
  <speed>1.99</speed>
  <fix>3d</fix>
</trkpt>
<trkpt lat="-27.2731105" lon="151.2908145">
  <ele>446.09</ele>
  <time>2026-09-01T19:54:28Z</time>
  <course>146.82</course>
  <speed>2.3660304309116564</speed>
  <fix>3d</fix>
</trkpt>
<trkpt lat="-27.2731074" lon="151.2908201">
  <ele>446.29</ele>
  <time>2026-09-01T19:54:28Z</time>
  <course>243.26</course>
  <speed>1.99</speed>
  <fix>3d</fix>
</trkpt>
<trkpt lat="-27.2731117" lon="151.2908124">
  <ele>446.06</ele>
  <time>2026-09-01T19:54:28Z</time>
  <course>153.22</course>
  <speed>2.5503921267130667</speed>
  <fix>3d</fix>
</trkpt>
<trkpt lat="-27.2731092" lon="151.2908165">
  <ele>446.26</ele>
  <time>2026-09-01T19:54:28Z</time>
  <course>237.55</course>
  <speed>2.2</speed>
  <fix>3d</fix>
</trkpt>
<trkpt lat="-27.2731129" lon="151.2908101">
  <ele>446.02</ele>
  <time>2026-09-01T19:54:28Z</time>
  <course>159.49</course>
  <speed>2.7390509305231983</speed>
  <fix>3d</fix>
</trkpt>
<trkpt lat="-27.2731092" lon="151.2908165">
  <ele>446.26</ele>
  <time>2026-09-01T19:54:28Z</time>
  <course>237.55</course>
  <speed>2.2</speed>
  <fix>3d</fix>
</trkpt>
<trkpt lat="-27.273114" lon="151.2908076">
  <ele>445.99</ele>
  <time>2026-09-01T19:54:28Z</time>
  <course>165.67</course>
  <speed>2.933734821008879</speed>
  <fix>3d</fix>
</trkpt>
<trkpt lat="-27.2731115" lon="151.2908125">
  <ele>446.2</ele>
  <time>2026-09-01T19:54:28Z</time>
  <course>238.86</course>
  <speed>2.52</speed>
  <fix>3d</fix>
</trkpt>
<trkpt lat="-27.2731152" lon="151.2908049">
  <ele>445.97</ele>
  <time>2026-09-01T19:54:28Z</time>
  <course>171.92</course>
  <speed>3.113149530620076</speed>
  <fix>3d</fix>
</trkpt>
<trkpt lat="-27.2731115" lon="151.2908125">
  <ele>446.2</ele>
  <time>2026-09-01T19:54:28Z</time>
  <course>238.86</course>
  <speed>2.52</speed>
  <fix>3d</fix>
</trkpt>
<trkpt lat="-27.2731164" lon="151.2908018">
  <ele>445.95</ele>
  <time>2026-09-01T19:54:28Z</time>
  <course>178.47</course>
  <speed>3.307113545072198</speed>
  <fix>3d</fix>
</trkpt>
<trkpt lat="-27.2731138" lon="151.2908077">
  <ele>446.14</ele>
  <time>2026-09-01T19:54:28Z</time>
  <course>243.23</course>
  <speed>2.89</speed>
  <fix>3d</fix>
</trkpt>
<trkpt lat="-27.2731176" lon="151.2907988">
  <ele>445.93</ele>
  <time>2026-09-01T19:54:28Z</time>
  <course>184.8</course>
  <speed>3.4867319942892085</speed>
  <fix>3d</fix>
</trkpt>
<trkpt lat="-27.2731138" lon="151.2908077">
  <ele>446.14</ele>
  <time>2026-09-01T19:54:28Z</time>
  <course>243.23</course>
  <speed>2.89</speed>
  <fix>3d</fix>
</trkpt>
<trkpt lat="-27.2731189" lon="151.2907955">
  <ele>445.92</ele>
  <time>2026-09-01T19:54:28Z</time>
  <course>191.12</course>
  <speed>3.666415142888214</speed>
  <fix>3d</fix>
</trkpt>
<trkpt lat="-27.2731161" lon="151.2908021">
  <ele>446.09</ele>
  <time>2026-09-01T19:54:28Z</time>
  <course>245.49</course>
  <speed>3.26</speed>
  <fix>3d</fix>
</trkpt>
<trkpt lat="-27.2731203" lon="151.2907921">
  <ele>445.92</ele>
  <time>2026-09-01T19:54:28Z</time>
  <course>197.35</course>
  <speed>3.8410545427004807</speed>
  <fix>3d</fix>
</trkpt>
<trkpt lat="-27.2731161" lon="151.2908021">
  <ele>446.09</ele>
  <time>2026-09-01T19:54:28Z</time>
  <course>245.49</course>
  <speed>3.26</speed>
  <fix>3d</fix>
</trkpt>
<trkpt lat="-27.2731217" lon="151.2907885">
  <ele>445.91</ele>
  <time>2026-09-01T19:54:28Z</time>
  <course>203.42</course>
  <speed>4.015694211465808</speed>
  <fix>3d</fix>
</trkpt>
<trkpt lat="-27.2731187" lon="151.2907957">
  <ele>446.07</ele>
  <time>2026-09-01T19:54:28Z</time>
  <course>246.2</course>
  <speed>3.62</speed>
  <fix>3d</fix>
</trkpt>
<trkpt lat="-27.2731231" lon="151.2907847">
  <ele>445.92</ele>
  <time>2026-09-01T19:54:28Z</time>
  <course>209.36</course>
  <speed>4.1903341155568965</speed>
  <fix>3d</fix>
</trkpt>
<trkpt lat="-27.2731187" lon="151.2907957">
  <ele>446.07</ele>
  <time>2026-09-01T19:54:28Z</time>
  <course>246.2</course>
  <speed>3.62</speed>
  <fix>3d</fix>
</trkpt>
<trkpt lat="-27.2731246" lon="151.2907809">
  <ele>445.93</ele>
  <time>2026-09-01T19:54:28Z</time>
  <course>214.93</course>
  <speed>4.359908255915484</speed>
  <fix>3d</fix>
</trkpt>
<trkpt lat="-27.2731215" lon="151.2907887">
  <ele>446.07</ele>
  <time>2026-09-01T19:54:28Z</time>
  <course>246.24</course>
  <speed>3.97</speed>
  <fix>3d</fix>
</trkpt>
<trkpt lat="-27.2731263" lon="151.2907768">
  <ele>445.94</ele>
  <time>2026-09-01T19:54:28Z</time>
  <course>220.47</course>
  <speed>4.5254171078476295</speed>
  <fix>3d</fix>
</trkpt>
<trkpt lat="-27.2731215" lon="151.2907887">
  <ele>446.07</ele>
  <time>2026-09-01T19:54:28Z</time>
  <course>246.24</course>
  <speed>3.97</speed>
  <fix>3d</fix>
</trkpt>
<trkpt lat="-27.2731279" lon="151.2907726">
  <ele>445.95</ele>
  <time>2026-09-01T19:54:28Z</time>
  <course>225.85</course>
  <speed>4.690927413635816</speed>
  <fix>3d</fix>
</trkpt>
<trkpt lat="-27.2731245" lon="151.2907809">
  <ele>446.07</ele>
  <time>2026-09-01T19:54:28Z</time>
  <course>246.1</course>
  <speed>4.32</speed>
  <fix>3d</fix>
</trkpt>
<trkpt lat="-27.2731296" lon="151.2907682">
  <ele>445.96</ele>
  <time>2026-09-01T19:54:28Z</time>
  <course>231.02</course>
  <speed>4.843222068003903</speed>
  <fix>3d</fix>
</trkpt>
<trkpt lat="-27.2731245" lon="151.2907809">
  <ele>446.07</ele>
  <time>2026-09-01T19:54:28Z</time>
  <course>246.1</course>
  <speed>4.32</speed>
  <fix>3d</fix>
</trkpt>
<trkpt lat="-27.2731314" lon="151.2907637">
  <ele>445.98</ele>
  <time>2026-09-01T19:54:28Z</time>
  <course>235.81</course>
  <speed>4.995517991159676</speed>
  <fix>3d</fix>
</trkpt>
<trkpt lat="-27.2731278" lon="151.2907727">
  <ele>446.09</ele>
  <time>2026-09-01T19:54:28Z</time>
  <course>245.97</course>
  <speed>4.64</speed>
  <fix>3d</fix>
</trkpt>
<trkpt lat="-27.2731332" lon="151.2907591">
  <ele>445.99</ele>
  <time>2026-09-01T19:54:28Z</time>
  <course>240.03</course>
  <speed>5.134608066834313</speed>
  <fix>3d</fix>
</trkpt>
<trkpt lat="-27.2731278" lon="151.2907727">
  <ele>446.09</ele>
  <time>2026-09-01T19:54:28Z</time>
  <course>245.97</course>
  <speed>4.64</speed>
  <fix>3d</fix>
</trkpt>
<trkpt lat="-27.2731351" lon="151.2907544">
  <ele>446.01</ele>
  <time>2026-09-01T19:54:28Z</time>
  <course>243.48</course>
  <speed>5.2554352816869505</speed>
  <fix>3d</fix>
</trkpt>
<trkpt lat="-27.2731313" lon="151.2907638">
  <ele>446.12</ele>
  <time>2026-09-01T19:54:28Z</time>
  <course>245.95</course>
  <speed>4.95</speed>
  <fix>3d</fix>
</trkpt>
<trkpt lat="-27.273137" lon="151.2907496">
  <ele>446.02</ele>
  <time>2026-09-01T19:54:28Z</time>
  <course>246.04</course>
  <speed>5.376262642393877</speed>
  <fix>3d</fix>
</trkpt>
<trkpt lat="-27.2731313" lon="151.2907638">
  <ele>446.12</ele>
  <time>2026-09-01T19:54:28Z</time>
  <course>245.95</course>
  <speed>4.95</speed>
  <fix>3d</fix>
</trkpt>
<trkpt lat="-27.2731389" lon="151.2907446">
  <ele>446.04</ele>
  <time>2026-09-01T19:54:28Z</time>
  <course>247.68</course>
  <speed>5.47883199231369</speed>
  <fix>3d</fix>
</trkpt>
<trkpt lat="-27.2731349" lon="151.2907545">
  <ele>446.15</ele>
  <time>2026-09-01T19:54:28Z</time>
  <course>245.96</course>
  <speed>5.22</speed>
  <fix>3d</fix>
</trkpt>
<trkpt lat="-27.2731409" lon="151.2907396">
  <ele>446.05</ele>
  <time>2026-09-01T19:54:28Z</time>
  <course>248.45</course>
  <speed>5.5814155910485646</speed>
  <fix>3d</fix>
</trkpt>
<trkpt lat="-27.2731349" lon="151.2907545">
  <ele>446.15</ele>
  <time>2026-09-01T19:54:28Z</time>
  <course>245.96</course>
  <speed>5.22</speed>
  <fix>3d</fix>
</trkpt>
<trkpt lat="-27.273143" lon="151.2907345">
  <ele>446.07</ele>
  <time>2026-09-01T19:54:28Z</time>
  <course>248.52</course>
  <speed>5.656686309138947</speed>
  <fix>3d</fix>
</trkpt>
<trkpt lat="-27.2731389" lon="151.2907446">
  <ele>446.18</ele>
  <time>2026-09-01T19:54:28Z</time>
  <course>245.86</course>
  <speed>5.44</speed>
  <fix>3d</fix>
</trkpt>
<trkpt lat="-27.2731451" lon="151.2907293">
  <ele>446.08</ele>
  <time>2026-09-01T19:54:28Z</time>
  <course>248.14</course>
  <speed>5.732032798231358</speed>
  <fix>3d</fix>
</trkpt>
<trkpt lat="-27.2731389" lon="151.2907446">
  <ele>446.18</ele>
  <time>2026-09-01T19:54:28Z</time>
  <course>245.86</course>
  <speed>5.44</speed>
  <fix>3d</fix>
</trkpt>
<trkpt lat="-27.2731472" lon="151.2907241">
  <ele>446.09</ele>
  <time>2026-09-01T19:54:28Z</time>
  <course>247.54</course>
  <speed>5.789309112493475</speed>
  <fix>3d</fix>
</trkpt>
<trkpt lat="-27.273143" lon="151.2907344">
  <ele>446.21</ele>
  <time>2026-09-01T19:54:28Z</time>
  <course>245.55</course>
  <speed>5.63</speed>
  <fix>3d</fix>
</trkpt>
<trkpt lat="-27.2731494" lon="151.2907188">
  <ele>446.1</ele>
  <time>2026-09-01T19:54:28Z</time>
  <course>246.89</course>
  <speed>5.846725579330707</speed>
  <fix>3d</fix>
</trkpt>
<trkpt lat="-27.273143" lon="151.2907344">
  <ele>446.21</ele>
  <time>2026-09-01T19:54:28Z</time>
  <course>245.55</course>
  <speed>5.63</speed>
  <fix>3d</fix>
</trkpt>
<trkpt lat="-27.2731517" lon="151.2907133">
  <ele>446.11</ele>
  <time>2026-09-01T19:54:28Z</time>
  <course>246.28</course>
  <speed>5.895252327084907</speed>
  <fix>3d</fix>
</trkpt>
<trkpt lat="-27.2731473" lon="151.2907239">
  <ele>446.22</ele>
  <time>2026-09-01T19:54:28Z</time>
  <course>245.04</course>
  <speed>5.77</speed>
  <fix>3d</fix>
</trkpt>
<trkpt lat="-27.273154" lon="151.290708">
  <ele>446.12</ele>
  <time>2026-09-01T19:54:28Z</time>
  <course>245.77</course>
  <speed>5.930598620712752</speed>
  <fix>3d</fix>
</trkpt>
<trkpt lat="-27.2731473" lon="151.2907239">
  <ele>446.22</ele>
  <time>2026-09-01T19:54:28Z</time>
  <course>245.04</course>
  <speed>5.77</speed>
  <fix>3d</fix>
</trkpt>
<trkpt lat="-27.2731563" lon="151.2907027">
  <ele>446.13</ele>
  <time>2026-09-01T19:54:28Z</time>
  <course>245.35</course>
  <speed>5.961493101564406</speed>
  <fix>3d</fix>
</trkpt>
<trkpt lat="-27.2731518" lon="151.2907132">
  <ele>446.25</ele>
  <time>2026-09-01T19:54:28Z</time>
  <course>244.41</course>
  <speed>5.87</speed>
  <fix>3d</fix>
</trkpt>
<trkpt lat="-27.2731587" lon="151.2906973">
  <ele>446.13</ele>
  <time>2026-09-01T19:54:28Z</time>
  <course>245.0</course>
  <speed>5.988196723555432</speed>
  <fix>3d</fix>
</trkpt>
<trkpt lat="-27.2731518" lon="151.2907132">
  <ele>446.25</ele>
  <time>2026-09-01T19:54:28Z</time>
  <course>244.41</course>
  <speed>5.87</speed>
  <fix>3d</fix>
</trkpt>
<trkpt lat="-27.273161" lon="151.290692">
  <ele>446.14</ele>
  <time>2026-09-01T19:54:28Z</time>
  <course>244.69</course>
  <speed>6.006138526540992</speed>
  <fix>3d</fix>
</trkpt>
<trkpt lat="-27.2731564" lon="151.2907025">
  <ele>446.26</ele>
  <time>2026-09-01T19:54:28Z</time>
  <course>243.73</course>
  <speed>5.94</speed>
  <fix>3d</fix>
</trkpt>
<trkpt lat="-27.2731635" lon="151.2906866">
  <ele>446.14</ele>
  <time>2026-09-01T19:54:28Z</time>
  <course>244.4</course>
  <speed>6.02429248957917</speed>
  <fix>3d</fix>
</trkpt>
<trkpt lat="-27.2731564" lon="151.2907025">
  <ele>446.26</ele>
  <time>2026-09-01T19:54:28Z</time>
  <course>243.73</course>
  <speed>5.94</speed>
  <fix>3d</fix>
</trkpt>
<trkpt lat="-27.273166" lon="151.2906812">
  <ele>446.15</ele>
  <time>2026-09-01T19:54:28Z</time>
  <course>244.12</course>
  <speed>6.029170755584883</speed>
  <fix>3d</fix>
</trkpt>
<trkpt lat="-27.2731612" lon="151.2906917">
  <ele>446.27</ele>
  <time>2026-09-01T19:54:28Z</time>
  <course>243.06</course>
  <speed>5.99</speed>
  <fix>3d</fix>
</trkpt>
<trkpt lat="-27.2731685" lon="151.2906758">
  <ele>446.15</ele>
  <time>2026-09-01T19:54:29Z</time>
  <course>243.84</course>
  <speed>6.0342108017536145</speed>
  <fix>3d</fix>
</trkpt>
<trkpt lat="-27.2731612" lon="151.2906917">
  <ele>446.27</ele>
  <time>2026-09-01T19:54:29Z</time>
  <course>243.06</course>
  <speed>5.99</speed>
  <fix>3d</fix>
</trkpt>
<trkpt lat="-27.273171" lon="151.2906704">
  <ele>446.15</ele>
  <time>2026-09-01T19:54:29Z</time>
  <course>243.55</course>
  <speed>6.030588694315009</speed>
  <fix>3d</fix>
</trkpt>
<trkpt lat="-27.2731662" lon="151.2906808">
  <ele>446.28</ele>
  <time>2026-09-01T19:54:29Z</time>
  <course>242.4</course>
  <speed>6.02</speed>
  <fix>3d</fix>
</trkpt>
<trkpt lat="-27.2731736" lon="151.2906651">
  <ele>446.15</ele>
  <time>2026-09-01T19:54:29Z</time>
  <course>243.25</course>
  <speed>6.035975480400827</speed>
  <fix>3d</fix>
</trkpt>
<trkpt lat="-27.2731662" lon="151.2906808">
  <ele>446.28</ele>
  <time>2026-09-01T19:54:29Z</time>
  <course>242.4</course>
  <speed>6.02</speed>
  <fix>3d</fix>
</trkpt>
<trkpt lat="-27.2731761" lon="151.2906598">
  <ele>446.15</ele>
  <time>2026-09-01T19:54:29Z</time>
  <course>242.95</course>
  <speed>6.027951559194881</speed>
  <fix>3d</fix>
</trkpt>
<trkpt lat="-27.2731712" lon="151.2906701">
  <ele>446.28</ele>
  <time>2026-09-01T19:54:29Z</time>
  <course>241.76</course>
  <speed>6.03</speed>
  <fix>3d</fix>
</trkpt>
<trkpt lat="-27.2731788" lon="151.2906545">
  <ele>446.15</ele>
  <time>2026-09-01T19:54:29Z</time>
  <course>242.64</course>
  <speed>6.01614494506241</speed>
  <fix>3d</fix>
</trkpt>
<trkpt lat="-27.2731712" lon="151.2906701">
  <ele>446.28</ele>
  <time>2026-09-01T19:54:29Z</time>
  <course>241.76</course>
  <speed>6.03</speed>
  <fix>3d</fix>
</trkpt>
<trkpt lat="-27.2731814" lon="151.2906492">
  <ele>446.15</ele>
  <time>2026-09-01T19:54:29Z</time>
  <course>242.33</course>
  <speed>6.008427414889857</speed>
  <fix>3d</fix>
</trkpt>
<trkpt lat="-27.2731763" lon="151.2906594">
  <ele>446.28</ele>
  <time>2026-09-01T19:54:29Z</time>
  <course>241.13</course>
  <speed>6.02</speed>
  <fix>3d</fix>
</trkpt>
<trkpt lat="-27.273184" lon="151.290644">
  <ele>446.14</ele>
  <time>2026-09-01T19:54:29Z</time>
  <course>242.02</course>
  <speed>5.99213651379873</speed>
  <fix>3d</fix>
</trkpt>
<trkpt lat="-27.2731763" lon="151.2906594">
  <ele>446.28</ele>
  <time>2026-09-01T19:54:29Z</time>
  <course>241.13</course>
  <speed>6.02</speed>
  <fix>3d</fix>
</trkpt>
<trkpt lat="-27.2731866" lon="151.2906389">
  <ele>446.14</ele>
  <time>2026-09-01T19:54:29Z</time>
  <course>241.72</course>
  <speed>5.976018741603812</speed>
  <fix>3d</fix>
</trkpt>
<trkpt lat="-27.2731816" lon="151.2906488">
  <ele>446.27</ele>
  <time>2026-09-01T19:54:29Z</time>
  <course>240.51</course>
  <speed>6.0</speed>
  <fix>3d</fix>
</trkpt>
<trkpt lat="-27.2731893" lon="151.2906337">
  <ele>446.13</ele>
  <time>2026-09-01T19:54:29Z</time>
  <course>241.41</course>
  <speed>5.9550482785616445</speed>
  <fix>3d</fix>
</trkpt>
<trkpt lat="-27.2731816" lon="151.2906488">
  <ele>446.27</ele>
  <time>2026-09-01T19:54:29Z</time>
  <course>240.51</course>
  <speed>6.0</speed>
  <fix>3d</fix>
</trkpt>
<trkpt lat="-27.273192" lon="151.2906285">
  <ele>446.13</ele>
  <time>2026-09-01T19:54:29Z</time>
  <course>241.11</course>
  <speed>5.930615482393038</speed>
  <fix>3d</fix>
</trkpt>
<trkpt lat="-27.273187" lon="151.2906383">
  <ele>446.26</ele>
  <time>2026-09-01T19:54:29Z</time>
  <course>239.9</course>
  <speed>5.97</speed>
  <fix>3d</fix>
</trkpt>
<trkpt lat="-27.2731947" lon="151.2906233">
  <ele>446.12</ele>
  <time>2026-09-01T19:54:29Z</time>
  <course>240.82</course>
  <speed>5.909890015897081</speed>
  <fix>3d</fix>
</trkpt>
<trkpt lat="-27.273187" lon="151.2906383">
  <ele>446.26</ele>
  <time>2026-09-01T19:54:29Z</time>
  <course>239.9</course>
  <speed>5.97</speed>
  <fix>3d</fix>
</trkpt>
<trkpt lat="-27.2731974" lon="151.2906182">
  <ele>446.11</ele>
  <time>2026-09-01T19:54:29Z</time>
  <course>240.52</course>
  <speed>5.885847432613251</speed>
  <fix>3d</fix>
</trkpt>
<trkpt lat="-27.2731924" lon="151.2906279">
  <ele>446.25</ele>
  <time>2026-09-01T19:54:29Z</time>
  <course>239.29</course>
  <speed>5.93</speed>
  <fix>3d</fix>
</trkpt>
<trkpt lat="-27.2732002" lon="151.2906131">
  <ele>446.1</ele>
  <time>2026-09-01T19:54:29Z</time>
  <course>240.23</course>
  <speed>5.865372963418439</speed>
  <fix>3d</fix>
</trkpt>
<trkpt lat="-27.2731924" lon="151.2906279">
  <ele>446.25</ele>
  <time>2026-09-01T19:54:29Z</time>
  <course>239.29</course>
  <speed>5.93</speed>
  <fix>3d</fix>
</trkpt>
<trkpt lat="-27.273203" lon="151.2906081">
  <ele>446.1</ele>
  <time>2026-09-01T19:54:29Z</time>
  <course>239.94</course>
  <speed>5.836480103624101</speed>
  <fix>3d</fix>
</trkpt>
<trkpt lat="-27.2731979" lon="151.2906176">
  <ele>446.23</ele>
  <time>2026-09-01T19:54:29Z</time>
  <course>238.7</course>
  <speed>5.89</speed>
  <fix>3d</fix>
</trkpt>
<trkpt lat="-27.2732058" lon="151.2906029">
  <ele>446.09</ele>
  <time>2026-09-01T19:54:29Z</time>
  <course>239.65</course>
  <speed>5.807736219905308</speed>
  <fix>3d</fix>
</trkpt>
<trkpt lat="-27.2731979" lon="151.2906176">
  <ele>446.23</ele>
  <time>2026-09-01T19:54:29Z</time>
  <course>238.7</course>
  <speed>5.89</speed>
  <fix>3d</fix>
</trkpt>
<trkpt lat="-27.2732086" lon="151.290598">
  <ele>446.08</ele>
  <time>2026-09-01T19:54:29Z</time>
  <course>239.37</course>
  <speed>5.779143535161591</speed>
  <fix>3d</fix>
</trkpt>
<trkpt lat="-27.2732034" lon="151.2906075">
  <ele>446.22</ele>
  <time>2026-09-01T19:54:29Z</time>
  <course>238.12</course>
  <speed>5.83</speed>
  <fix>3d</fix>
</trkpt>
<trkpt lat="-27.2732114" lon="151.290593">
  <ele>446.07</ele>
  <time>2026-09-01T19:54:29Z</time>
  <course>239.09</course>
  <speed>5.745337239884183</speed>
  <fix>3d</fix>
</trkpt>
<trkpt lat="-27.2732034" lon="151.2906075">
  <ele>446.22</ele>
  <time>2026-09-01T19:54:29Z</time>
  <course>238.12</course>
  <speed>5.83</speed>
  <fix>3d</fix>
</trkpt>
<trkpt lat="-27.2732142" lon="151.2905881">
  <ele>446.07</ele>
  <time>2026-09-01T19:54:29Z</time>
  <course>238.8</course>
  <speed>5.71700970788051</speed>
  <fix>3d</fix>
</trkpt>
<trkpt lat="-27.273209" lon="151.2905976">
  <ele>446.2</ele>
  <time>2026-09-01T19:54:29Z</time>
  <course>237.56</course>
  <speed>5.78</speed>
  <fix>3d</fix>
</trkpt>
<trkpt lat="-27.273217" lon="151.2905833">
  <ele>446.06</ele>
  <time>2026-09-01T19:54:29Z</time>
  <course>238.52</course>
  <speed>5.688839952046462</speed>
  <fix>3d</fix>
</trkpt>
<trkpt lat="-27.273209" lon="151.2905976">
  <ele>446.2</ele>
  <time>2026-09-01T19:54:29Z</time>
  <course>237.56</course>
  <speed>5.78</speed>
  <fix>3d</fix>
</trkpt>
<trkpt lat="-27.2732198" lon="151.2905785">
  <ele>446.05</ele>
  <time>2026-09-01T19:54:29Z</time>
  <course>238.25</course>
  <speed>5.655342606774589</speed>
  <fix>3d</fix>
</trkpt>
<trkpt lat="-27.2732146" lon="151.2905878">
  <ele>446.19</ele>
  <time>2026-09-01T19:54:29Z</time>
  <course>237.02</course>
  <speed>5.71</speed>
  <fix>3d</fix>
</trkpt>
<trkpt lat="-27.2732226" lon="151.2905737">
  <ele>446.04</ele>
  <time>2026-09-01T19:54:29Z</time>
  <course>237.98</course>
  <speed>5.621930273491481</speed>
  <fix>3d</fix>
</trkpt>
<trkpt lat="-27.2732146" lon="151.2905878">
  <ele>446.19</ele>
  <time>2026-09-01T19:54:29Z</time>
  <course>237.02</course>
  <speed>5.71</speed>
  <fix>3d</fix>
</trkpt>
<trkpt lat="-27.2732254" lon="151.290569">
  <ele>446.04</ele>
  <time>2026-09-01T19:54:29Z</time>
  <course>237.72</course>
  <speed>5.588604476969183</speed>
  <fix>3d</fix>
</trkpt>
<trkpt lat="-27.2732202" lon="151.2905782">
  <ele>446.18</ele>
  <time>2026-09-01T19:54:29Z</time>
  <course>236.5</course>
  <speed>5.65</speed>
  <fix>3d</fix>
</trkpt>
<trkpt lat="-27.2732282" lon="151.2905643">
  <ele>446.03</ele>
  <time>2026-09-01T19:54:29Z</time>
  <course>237.47</course>
  <speed>5.5609531557099094</speed>
  <fix>3d</fix>
</trkpt>
<trkpt lat="-27.2732202" lon="151.2905782">
  <ele>446.18</ele>
  <time>2026-09-01T19:54:29Z</time>
  <course>236.5</course>
  <speed>5.65</speed>
  <fix>3d</fix>
</trkpt>
<trkpt lat="-27.2732311" lon="151.2905596">
  <ele>446.02</ele>
  <time>2026-09-01T19:54:29Z</time>
  <course>237.22</course>
  <speed>5.527838637297583</speed>
  <fix>3d</fix>
</trkpt>
<trkpt lat="-27.2732258" lon="151.2905688">
  <ele>446.16</ele>
  <time>2026-09-01T19:54:29Z</time>
  <course>236.01</course>
  <speed>5.59</speed>
  <fix>3d</fix>
</trkpt>
<trkpt lat="-27.2732339" lon="151.290555">
  <ele>446.02</ele>
  <time>2026-09-01T19:54:29Z</time>
  <course>236.99</course>
  <speed>5.489162048983433</speed>
  <fix>3d</fix>
</trkpt>
<trkpt lat="-27.2732258" lon="151.2905688">
  <ele>446.16</ele>
  <time>2026-09-01T19:54:29Z</time>
  <course>236.01</course>
  <speed>5.59</speed>
  <fix>3d</fix>
</trkpt>
<trkpt lat="-27.2732367" lon="151.2905505">
  <ele>446.01</ele>
  <time>2026-09-01T19:54:29Z</time>
  <course>236.76</course>
  <speed>5.4561983101789835</speed>
  <fix>3d</fix>
</trkpt>
<trkpt lat="-27.2732314" lon="151.2905594">
  <ele>446.15</ele>
  <time>2026-09-01T19:54:29Z</time>
  <course>235.55</course>
  <speed>5.52</speed>
  <fix>3d</fix>
</trkpt>
<trkpt lat="-27.2732395" lon="151.290546">
  <ele>446.01</ele>
  <time>2026-09-01T19:54:29Z</time>
  <course>236.54</course>
  <speed>5.431537535541847</speed>
  <fix>3d</fix>
</trkpt>
<trkpt lat="-27.2732314" lon="151.2905594">
  <ele>446.15</ele>
  <time>2026-09-01T19:54:29Z</time>
  <course>235.55</course>
  <speed>5.52</speed>
  <fix>3d</fix>
</trkpt>
<trkpt lat="-27.2732423" lon="151.2905415">
  <ele>446.0</ele>
  <time>2026-09-01T19:54:29Z</time>
  <course>236.32</course>
  <speed>5.39874059387928</speed>
  <fix>3d</fix>
</trkpt>
<trkpt lat="-27.273237" lon="151.2905503">
  <ele>446.15</ele>
  <time>2026-09-01T19:54:29Z</time>
  <course>235.12</course>
  <speed>5.45</speed>
  <fix>3d</fix>
</trkpt>
<trkpt lat="-27.2732451" lon="151.290537">
  <ele>446.0</ele>
  <time>2026-09-01T19:54:29Z</time>
  <course>236.11</course>
  <speed>5.3684448399885785</speed>
  <fix>3d</fix>
</trkpt>
<trkpt lat="-27.273237" lon="151.2905503">
  <ele>446.15</ele>
  <time>2026-09-01T19:54:29Z</time>
  <course>235.12</course>
  <speed>5.45</speed>
  <fix>3d</fix>
</trkpt>
<trkpt lat="-27.2732479" lon="151.2905326">
  <ele>446.0</ele>
  <time>2026-09-01T19:54:29Z</time>
  <course>235.91</course>
  <speed>5.335784853233871</speed>
  <fix>3d</fix>
</trkpt>
<trkpt lat="-27.2732426" lon="151.2905414">
  <ele>446.14</ele>
  <time>2026-09-01T19:54:29Z</time>
  <course>234.72</course>
  <speed>5.39</speed>
  <fix>3d</fix>
</trkpt>
<trkpt lat="-27.2732507" lon="151.2905282">
  <ele>445.99</ele>
  <time>2026-09-01T19:54:29Z</time>
  <course>235.71</course>
  <speed>5.305544269912372</speed>
  <fix>3d</fix>
</trkpt>
<trkpt lat="-27.2732426" lon="151.2905414">
  <ele>446.14</ele>
  <time>2026-09-01T19:54:29Z</time>
  <course>234.72</course>
  <speed>5.39</speed>
  <fix>3d</fix>
</trkpt>
<trkpt lat="-27.2732535" lon="151.2905239">
  <ele>445.99</ele>
  <time>2026-09-01T19:54:29Z</time>
  <course>235.53</course>
  <speed>5.273025696884096</speed>
  <fix>3d</fix>
</trkpt>
<trkpt lat="-27.2732482" lon="151.2905326">
  <ele>446.14</ele>
  <time>2026-09-01T19:54:29Z</time>
  <course>234.36</course>
  <speed>5.33</speed>
  <fix>3d</fix>
</trkpt>
<trkpt lat="-27.2732563" lon="151.2905196">
  <ele>445.99</ele>
  <time>2026-09-01T19:54:29Z</time>
  <course>235.35</course>
  <speed>5.242842740346118</speed>
  <fix>3d</fix>
</trkpt>
<trkpt lat="-27.2732482" lon="151.2905326">
  <ele>446.14</ele>
  <time>2026-09-01T19:54:29Z</time>
  <course>234.36</course>
  <speed>5.33</speed>
  <fix>3d</fix>
</trkpt>
<trkpt lat="-27.273259" lon="151.2905153">
  <ele>445.99</ele>
  <time>2026-09-01T19:54:29Z</time>
  <course>235.18</course>
  <speed>5.218553439412114</speed>
  <fix>3d</fix>
</trkpt>
<trkpt lat="-27.2732538" lon="151.2905238">
  <ele>446.13</ele>
  <time>2026-09-01T19:54:29Z</time>
  <course>234.03</course>
  <speed>5.27</speed>
  <fix>3d</fix>
</trkpt>
<trkpt lat="-27.2732617" lon="151.2905112">
  <ele>445.99</ele>
  <time>2026-09-01T19:54:29Z</time>
  <course>235.03</course>
  <speed>5.188419797973174</speed>
  <fix>3d</fix>
</trkpt>
<trkpt lat="-27.2732538" lon="151.2905238">
  <ele>446.13</ele>
  <time>2026-09-01T19:54:29Z</time>
  <course>234.03</course>
  <speed>5.27</speed>
  <fix>3d</fix>
</trkpt>
<trkpt lat="-27.2732646" lon="151.2905069">
  <ele>446.0</ele>
  <time>2026-09-01T19:54:29Z</time>
  <course>234.87</course>
  <speed>5.166372034609974</speed>
  <fix>3d</fix>
</trkpt>
<trkpt lat="-27.2732593" lon="151.2905153">
  <ele>446.13</ele>
  <time>2026-09-01T19:54:29Z</time>
  <course>233.74</course>
  <speed>5.21</speed>
  <fix>3d</fix>
</trkpt>
<trkpt lat="-27.2732673" lon="151.2905027">
  <ele>446.0</ele>
  <time>2026-09-01T19:54:29Z</time>
  <course>234.73</course>
  <speed>5.136263233129704</speed>
  <fix>3d</fix>
</trkpt>
<trkpt lat="-27.2732593" lon="151.2905153">
  <ele>446.13</ele>
  <time>2026-09-01T19:54:29Z</time>
  <course>233.74</course>
  <speed>5.21</speed>
  <fix>3d</fix>
</trkpt>
<trkpt lat="-27.2732701" lon="151.2904985">
  <ele>446.0</ele>
  <time>2026-09-01T19:54:29Z</time>
  <course>234.59</course>
  <speed>5.1121130660422605</speed>
  <fix>3d</fix>
</trkpt>
<trkpt lat="-27.2732648" lon="151.2905069">
  <ele>446.13</ele>
  <time>2026-09-01T19:54:29Z</time>
  <course>233.49</course>
  <speed>5.16</speed>
  <fix>3d</fix>
</trkpt>
<trkpt lat="-27.2732728" lon="151.2904944">
  <ele>446.0</ele>
  <time>2026-09-01T19:54:29Z</time>
  <course>234.47</course>
  <speed>5.0900884078766255</speed>
  <fix>3d</fix>
</trkpt>
<trkpt lat="-27.2732648" lon="151.2905069">
  <ele>446.13</ele>
  <time>2026-09-01T19:54:29Z</time>
  <course>233.49</course>
  <speed>5.16</speed>
  <fix>3d</fix>
</trkpt>
<trkpt lat="-27.2732755" lon="151.2904903">
  <ele>446.0</ele>
  <time>2026-09-01T19:54:29Z</time>
  <course>234.36</course>
  <speed>5.0680666925367115</speed>
  <fix>3d</fix>
</trkpt>
<trkpt lat="-27.2732703" lon="151.2904985">
  <ele>446.13</ele>
  <time>2026-09-01T19:54:29Z</time>
  <course>233.28</course>
  <speed>5.11</speed>
  <fix>3d</fix>
</trkpt>
<trkpt lat="-27.2732783" lon="151.2904862">
  <ele>446.0</ele>
  <time>2026-09-01T19:54:29Z</time>
  <course>234.25</course>
  <speed>5.052019398220874</speed>
  <fix>3d</fix>
</trkpt>
<trkpt lat="-27.2732703" lon="151.2904985">
  <ele>446.13</ele>
  <time>2026-09-01T19:54:29Z</time>
  <course>233.28</course>
  <speed>5.11</speed>
  <fix>3d</fix>
</trkpt>
<trkpt lat="-27.273281" lon="151.2904821">
  <ele>446.0</ele>
  <time>2026-09-01T19:54:29Z</time>
  <course>234.16</course>
  <speed>5.03000994034803</speed>
  <fix>3d</fix>
</trkpt>
<trkpt lat="-27.2732758" lon="151.2904902">
  <ele>446.13</ele>
  <time>2026-09-01T19:54:29Z</time>
  <course>233.1</course>
  <speed>5.07</speed>
  <fix>3d</fix>
</trkpt>
<trkpt lat="-27.2732837" lon="151.2904781">
  <ele>446.01</ele>
  <time>2026-09-01T19:54:29Z</time>
  <course>234.07</course>
  <speed>5.008003594247912</speed>
  <fix>3d</fix>
</trkpt>
<trkpt lat="-27.2732758" lon="151.2904902">
  <ele>446.13</ele>
  <time>2026-09-01T19:54:29Z</time>
  <course>233.1</course>
  <speed>5.07</speed>
  <fix>3d</fix>
</trkpt>
<trkpt lat="-27.2732864" lon="151.290474">
  <ele>446.01</ele>
  <time>2026-09-01T19:54:29Z</time>
  <course>233.99</course>
  <speed>4.986000401123128</speed>
  <fix>3d</fix>
</trkpt>
<trkpt lat="-27.2732813" lon="151.2904821">
  <ele>446.13</ele>
  <time>2026-09-01T19:54:29Z</time>
  <course>232.95</course>
  <speed>5.03</speed>
  <fix>3d</fix>
</trkpt>
<trkpt lat="-27.2732891" lon="151.29047">
  <ele>446.01</ele>
  <time>2026-09-01T19:54:29Z</time>
  <course>233.93</course>
  <speed>4.978001607070854</speed>
  <fix>3d</fix>
</trkpt>
<trkpt lat="-27.2732813" lon="151.2904821">
  <ele>446.13</ele>
  <time>2026-09-01T19:54:29Z</time>
  <course>232.95</course>
  <speed>5.03</speed>
  <fix>3d</fix>
</trkpt>
<trkpt lat="-27.2732918" lon="151.290466">
  <ele>446.01</ele>
  <time>2026-09-01T19:54:29Z</time>
  <course>233.87</course>
  <speed>4.95600645681581</speed>
  <fix>3d</fix>
</trkpt>
<trkpt lat="-27.2732867" lon="151.290474">
  <ele>446.13</ele>
  <time>2026-09-01T19:54:29Z</time>
  <course>232.85</course>
  <speed>4.99</speed>
  <fix>3d</fix>
</trkpt>
<trkpt lat="-27.2732945" lon="151.290462">
  <ele>446.0</ele>
  <time>2026-09-01T19:54:29Z</time>
  <course>233.82</course>
  <speed>4.942003642248759</speed>
  <fix>3d</fix>
</trkpt>
<trkpt lat="-27.2732867" lon="151.290474">
  <ele>446.13</ele>
  <time>2026-09-01T19:54:29Z</time>
  <course>232.85</course>
  <speed>4.99</speed>
  <fix>3d</fix>
</trkpt>
<trkpt lat="-27.2732972" lon="151.2904581">
  <ele>446.0</ele>
  <time>2026-09-01T19:54:29Z</time>
  <course>233.77</course>
  <speed>4.928001623376356</speed>
  <fix>3d</fix>
</trkpt>
<trkpt lat="-27.2732921" lon="151.2904661">
  <ele>446.12</ele>
  <time>2026-09-01T19:54:29Z</time>
  <course>232.78</course>
  <speed>4.96</speed>
  <fix>3d</fix>
</trkpt>
<trkpt lat="-27.2732999" lon="151.2904541">
  <ele>446.0</ele>
  <time>2026-09-01T19:54:29Z</time>
  <course>233.74</course>
  <speed>4.92001016259113</speed>
  <fix>3d</fix>
</trkpt>
<trkpt lat="-27.2732921" lon="151.2904661">
  <ele>446.12</ele>
  <time>2026-09-01T19:54:29Z</time>
  <course>232.78</course>
  <speed>4.96</speed>
  <fix>3d</fix>
</trkpt>
<trkpt lat="-27.2733026" lon="151.2904502">
  <ele>446.0</ele>
  <time>2026-09-01T19:54:29Z</time>
  <course>233.72</course>
  <speed>4.906006522621021</speed>
  <fix>3d</fix>
</trkpt>
<trkpt lat="-27.2732975" lon="151.2904581">
  <ele>446.12</ele>
  <time>2026-09-01T19:54:29Z</time>
  <course>232.74</course>
  <speed>4.93</speed>
  <fix>3d</fix>
</trkpt>
<trkpt lat="-27.2733052" lon="151.2904462">
  <ele>445.99</ele>
  <time>2026-09-01T19:54:29Z</time>
  <course>233.7</course>
  <speed>4.892003679475312</speed>
  <fix>3d</fix>
</trkpt>
<trkpt lat="-27.2732975" lon="151.2904581">
  <ele>446.12</ele>
  <time>2026-09-01T19:54:29Z</time>
  <course>232.74</course>
  <speed>4.93</speed>
  <fix>3d</fix>
</trkpt>
<trkpt lat="-27.2733079" lon="151.2904423">
  <ele>445.99</ele>
  <time>2026-09-01T19:54:29Z</time>
  <course>233.69</course>
  <speed>4.884014741992493</speed>
  <fix>3d</fix>
</trkpt>
<trkpt lat="-27.2733029" lon="151.2904501">
  <ele>446.12</ele>
  <time>2026-09-01T19:54:29Z</time>
  <course>232.73</course>
  <speed>4.91</speed>
  <fix>3d</fix>
</trkpt>
<trkpt lat="-27.2733106" lon="151.2904383">
  <ele>445.99</ele>
  <time>2026-09-01T19:54:29Z</time>
  <course>233.68</course>
  <speed>4.878001640016125</speed>
  <fix>3d</fix>
</trkpt>
<trkpt lat="-27.2733029" lon="151.2904501">
  <ele>446.12</ele>
  <time>2026-09-01T19:54:29Z</time>
  <course>232.73</course>
  <speed>4.91</speed>
  <fix>3d</fix>
</trkpt>
<trkpt lat="-27.2733132" lon="151.2904344">
  <ele>445.99</ele>
  <time>2026-09-01T19:54:29Z</time>
  <course>233.69</course>
  <speed>4.870010266929629</speed>
  <fix>3d</fix>
</trkpt>
<trkpt lat="-27.2733082" lon="151.2904422">
  <ele>446.12</ele>
  <time>2026-09-01T19:54:29Z</time>
  <course>232.75</course>
  <speed>4.89</speed>
  <fix>3d</fix>
</trkpt>
<trkpt lat="-27.2733159" lon="151.2904305">
  <ele>445.99</ele>
  <time>2026-09-01T19:54:29Z</time>
  <course>233.69</course>
  <speed>4.864000411184193</speed>
  <fix>3d</fix>
</trkpt>
<trkpt lat="-27.2733082" lon="151.2904422">
  <ele>446.12</ele>
  <time>2026-09-01T19:54:29Z</time>
  <course>232.75</course>
  <speed>4.89</speed>
  <fix>3d</fix>
</trkpt>
<trkpt lat="-27.2733185" lon="151.2904266">
  <ele>445.99</ele>
  <time>2026-09-01T19:54:29Z</time>
  <course>233.71</course>
  <speed>4.858003705227076</speed>
  <fix>3d</fix>
</trkpt>
<trkpt lat="-27.2733135" lon="151.2904343">
  <ele>446.12</ele>
  <time>2026-09-01T19:54:29Z</time>
  <course>232.79</course>
  <speed>4.87</speed>
  <fix>3d</fix>
</trkpt>
<trkpt lat="-27.2733211" lon="151.2904227">
  <ele>445.98</ele>
  <time>2026-09-01T19:54:29Z</time>
  <course>233.73</course>
  <speed>4.85</speed>
  <fix>3d</fix>
</trkpt>
<trkpt lat="-27.2733135" lon="151.2904343">
  <ele>446.12</ele>
  <time>2026-09-01T19:54:29Z</time>
  <course>232.79</course>
  <speed>4.87</speed>
  <fix>3d</fix>
</trkpt>
<trkpt lat="-27.2733238" lon="151.2904187">
  <ele>445.98</ele>
  <time>2026-09-01T19:54:29Z</time>
  <course>233.75</course>
  <speed>4.844006606106148</speed>
  <fix>3d</fix>
</trkpt>
<trkpt lat="-27.2733188" lon="151.2904265">
  <ele>446.12</ele>
  <time>2026-09-01T19:54:29Z</time>
  <course>232.86</course>
  <speed>4.86</speed>
  <fix>3d</fix>
</trkpt>
<trkpt lat="-27.2733264" lon="151.2904148">
  <ele>445.98</ele>
  <time>2026-09-01T19:54:29Z</time>
  <course>233.79</course>
  <speed>4.844006606106148</speed>
  <fix>3d</fix>
</trkpt>
<trkpt lat="-27.2733188" lon="151.2904265">
  <ele>446.12</ele>
  <time>2026-09-01T19:54:29Z</time>
  <course>232.86</course>
  <speed>4.86</speed>
  <fix>3d</fix>
</trkpt>
<trkpt lat="-27.273329" lon="151.2904109">
  <ele>445.98</ele>
  <time>2026-09-01T19:54:29Z</time>
  <course>233.83</course>
  <speed>4.838026457141383</speed>
  <fix>3d</fix>
</trkpt>
<trkpt lat="-27.273324" lon="151.2904186">
  <ele>446.12</ele>
  <time>2026-09-01T19:54:29Z</time>
  <course>232.94</course>
  <speed>4.85</speed>
  <fix>3d</fix>
</trkpt>
<trkpt lat="-27.2733316" lon="151.290407">
  <ele>445.98</ele>
  <time>2026-09-01T19:54:29Z</time>
  <course>233.87</course>
  <speed>4.838026457141383</speed>
  <fix>3d</fix>
</trkpt>
<trkpt lat="-27.273324" lon="151.2904186">
  <ele>446.12</ele>
  <time>2026-09-01T19:54:29Z</time>
  <course>232.94</course>
  <speed>4.85</speed>
  <fix>3d</fix>
</trkpt>
<trkpt lat="-27.2733342" lon="151.2904031">
  <ele>445.98</ele>
  <time>2026-09-01T19:54:29Z</time>
  <course>233.92</course>
  <speed>4.832059602281412</speed>
  <fix>3d</fix>
</trkpt>
<trkpt lat="-27.2733293" lon="151.2904108">
  <ele>446.12</ele>
  <time>2026-09-01T19:54:29Z</time>
  <course>233.04</course>
  <speed>4.85</speed>
  <fix>3d</fix>
</trkpt>
<trkpt lat="-27.2733369" lon="151.2903991">
  <ele>445.99</ele>
  <time>2026-09-01T19:54:29Z</time>
  <course>233.97</course>
  <speed>4.840092974313613</speed>
  <fix>3d</fix>
</trkpt>
<trkpt lat="-27.2733293" lon="151.2904108">
  <ele>446.12</ele>
  <time>2026-09-01T19:54:29Z</time>
  <course>233.04</course>
  <speed>4.85</speed>
  <fix>3d</fix>
</trkpt>
<trkpt lat="-27.2733395" lon="151.2903952">
  <ele>445.99</ele>
  <time>2026-09-01T19:54:29Z</time>
  <course>234.02</course>
  <speed>4.834149356401807</speed>
  <fix>3d</fix>
</trkpt>
<trkpt lat="-27.2733346" lon="151.290403">
  <ele>446.12</ele>
  <time>2026-09-01T19:54:29Z</time>
  <course>233.16</course>
  <speed>4.85</speed>
  <fix>3d</fix>
</trkpt>
<trkpt lat="-27.2733421" lon="151.2903912">
  <ele>445.99</ele>
  <time>2026-09-01T19:54:29Z</time>
  <course>234.08</course>
  <speed>4.834149356401807</speed>
  <fix>3d</fix>
</trkpt>
<trkpt lat="-27.2733346" lon="151.290403">
  <ele>446.12</ele>
  <time>2026-09-01T19:54:29Z</time>
  <course>233.16</course>
  <speed>4.85</speed>
  <fix>3d</fix>
</trkpt>
<trkpt lat="-27.2733447" lon="151.2903873">
  <ele>445.99</ele>
  <time>2026-09-01T19:54:29Z</time>
  <course>234.14</course>
  <speed>4.842199913262566</speed>
  <fix>3d</fix>
</trkpt>
<trkpt lat="-27.2733398" lon="151.2903951">
  <ele>446.12</ele>
  <time>2026-09-01T19:54:29Z</time>
  <course>233.28</course>
  <speed>4.85</speed>
  <fix>3d</fix>
</trkpt>
<trkpt lat="-27.2733473" lon="151.2903834">
  <ele>445.99</ele>
  <time>2026-09-01T19:54:29Z</time>
  <course>234.2</course>
  <speed>4.836279561811952</speed>
  <fix>3d</fix>
</trkpt>
<trkpt lat="-27.2733398" lon="151.2903951">
  <ele>446.12</ele>
  <time>2026-09-01T19:54:29Z</time>
  <course>233.28</course>
  <speed>4.85</speed>
  <fix>3d</fix>
</trkpt>
<trkpt lat="-27.2733499" lon="151.2903794">
  <ele>446.0</ele>
  <time>2026-09-01T19:54:29Z</time>
  <course>234.26</course>
  <speed>4.844347221246635</speed>
  <fix>3d</fix>
</trkpt>
<trkpt lat="-27.273345" lon="151.2903873">
  <ele>446.13</ele>
  <time>2026-09-01T19:54:29Z</time>
  <course>233.4</course>
  <speed>4.85</speed>
  <fix>3d</fix>
</trkpt>
<trkpt lat="-27.2733525" lon="151.2903755">
  <ele>446.0</ele>
  <time>2026-09-01T19:54:29Z</time>
  <course>234.32</course>
  <speed>4.844347221246635</speed>
  <fix>3d</fix>
</trkpt>
<trkpt lat="-27.273345" lon="151.2903873">
  <ele>446.13</ele>
  <time>2026-09-01T19:54:29Z</time>
  <course>233.4</course>
  <speed>4.85</speed>
  <fix>3d</fix>
</trkpt>
<trkpt lat="-27.2733551" lon="151.2903715">
  <ele>446.0</ele>
  <time>2026-09-01T19:54:29Z</time>
  <course>234.39</course>
  <speed>4.846534844608053</speed>
  <fix>3d</fix>
</trkpt>
<trkpt lat="-27.2733501" lon="151.2903794">
  <ele>446.13</ele>
  <time>2026-09-01T19:54:29Z</time>
  <course>233.54</course>
  <speed>4.85</speed>
  <fix>3d</fix>
</trkpt>
<trkpt lat="-27.2733576" lon="151.2903676">
  <ele>446.0</ele>
  <time>2026-09-01T19:54:29Z</time>
  <course>234.45</course>
  <speed>4.846534844608053</speed>
  <fix>3d</fix>
</trkpt>
<trkpt lat="-27.2733501" lon="151.2903794">
  <ele>446.13</ele>
  <time>2026-09-01T19:54:29Z</time>
  <course>233.54</course>
  <speed>4.85</speed>
  <fix>3d</fix>
</trkpt>
<trkpt lat="-27.2733602" lon="151.2903636">
  <ele>446.0</ele>
  <time>2026-09-01T19:54:29Z</time>
  <course>234.51</course>
  <speed>4.8546266591778195</speed>
  <fix>3d</fix>
</trkpt>
<trkpt lat="-27.2733554" lon="151.2903715">
  <ele>446.14</ele>
  <time>2026-09-01T19:54:29Z</time>
  <course>233.68</course>
  <speed>4.86</speed>
  <fix>3d</fix>
</trkpt>
<trkpt lat="-27.2733628" lon="151.2903596">
  <ele>446.0</ele>
  <time>2026-09-01T19:54:29Z</time>
  <course>234.58</course>
  <speed>4.856871420986971</speed>
  <fix>3d</fix>
</trkpt>
<trkpt lat="-27.2733554" lon="151.2903715">
  <ele>446.14</ele>
  <time>2026-09-01T19:54:29Z</time>
  <course>233.68</course>
  <speed>4.86</speed>
  <fix>3d</fix>
</trkpt>
<trkpt lat="-27.2733654" lon="151.2903556">
  <ele>446.01</ele>
  <time>2026-09-01T19:54:29Z</time>
  <course>234.65</course>
  <speed>4.856871420986971</speed>
  <fix>3d</fix>
</trkpt>
<trkpt lat="-27.2733605" lon="151.2903635">
  <ele>446.14</ele>
  <time>2026-09-01T19:54:29Z</time>
  <course>233.82</course>
  <speed>4.87</speed>
  <fix>3d</fix>
</trkpt>
<trkpt lat="-27.273368" lon="151.2903516">
  <ele>446.01</ele>
  <time>2026-09-01T19:54:29Z</time>
  <course>234.72</course>
  <speed>4.8649871531176725</speed>
  <fix>3d</fix>
</trkpt>
<trkpt lat="-27.2733605" lon="151.2903635">
  <ele>446.14</ele>
  <time>2026-09-01T19:54:29Z</time>
  <course>233.82</course>
  <speed>4.87</speed>
  <fix>3d</fix>
</trkpt>
<trkpt lat="-27.2733706" lon="151.2903476">
  <ele>446.01</ele>
  <time>2026-09-01T19:54:29Z</time>
  <course>234.79</course>
  <speed>4.873109889998378</speed>
  <fix>3d</fix>
</trkpt>
<trkpt lat="-27.2733657" lon="151.2903556">
  <ele>446.14</ele>
  <time>2026-09-01T19:54:29Z</time>
  <course>233.95</course>
  <speed>4.88</speed>
  <fix>3d</fix>
</trkpt>
<trkpt lat="-27.2733731" lon="151.2903436">
  <ele>446.01</ele>
  <time>2026-09-01T19:54:29Z</time>
  <course>234.86</course>
  <speed>4.873109889998378</speed>
  <fix>3d</fix>
</trkpt>
<trkpt lat="-27.2733657" lon="151.2903556">
  <ele>446.14</ele>
  <time>2026-09-01T19:54:29Z</time>
  <course>233.95</course>
  <speed>4.88</speed>
  <fix>3d</fix>
</trkpt>
<trkpt lat="-27.2733757" lon="151.2903396">
  <ele>446.01</ele>
  <time>2026-09-01T19:54:29Z</time>
  <course>234.93</course>
  <speed>4.875428186323741</speed>
  <fix>3d</fix>
</trkpt>
<trkpt lat="-27.2733708" lon="151.2903476">
  <ele>446.15</ele>
  <time>2026-09-01T19:54:29Z</time>
  <course>234.09</course>
  <speed>4.89</speed>
  <fix>3d</fix>
</trkpt>
<trkpt lat="-27.2733783" lon="151.2903356">
  <ele>446.01</ele>
  <time>2026-09-01T19:54:29Z</time>
  <course>235.0</course>
  <speed>4.883574510540409</speed>
  <fix>3d</fix>
</trkpt>
<trkpt lat="-27.2733708" lon="151.2903476">
  <ele>446.15</ele>
  <time>2026-09-01T19:54:29Z</time>
  <course>234.09</course>
  <speed>4.89</speed>
  <fix>3d</fix>
</trkpt>
<trkpt lat="-27.2733808" lon="151.2903316">
  <ele>446.01</ele>
  <time>2026-09-01T19:54:29Z</time>
  <course>235.08</course>
  <speed>4.891727711146646</speed>
  <fix>3d</fix>
</trkpt>
<trkpt lat="-27.273376" lon="151.2903395">
  <ele>446.15</ele>
  <time>2026-09-01T19:54:29Z</time>
  <course>234.23</course>
  <speed>4.9</speed>
  <fix>3d</fix>
</trkpt>
<trkpt lat="-27.2733834" lon="151.2903276">
  <ele>446.01</ele>
  <time>2026-09-01T19:54:29Z</time>
  <course>235.15</course>
  <speed>4.891727711146646</speed>
  <fix>3d</fix>
</trkpt>
<trkpt lat="-27.273376" lon="151.2903395">
  <ele>446.15</ele>
  <time>2026-09-01T19:54:29Z</time>
  <course>234.23</course>
  <speed>4.9</speed>
  <fix>3d</fix>
</trkpt>
<trkpt lat="-27.2733859" lon="151.2903236">
  <ele>446.01</ele>
  <time>2026-09-01T19:54:29Z</time>
  <course>235.21</course>
  <speed>4.899887753816408</speed>
  <fix>3d</fix>
</trkpt>
<trkpt lat="-27.2733811" lon="151.2903315">
  <ele>446.15</ele>
  <time>2026-09-01T19:54:29Z</time>
  <course>234.37</course>
  <speed>4.91</speed>
  <fix>3d</fix>
</trkpt>
<trkpt lat="-27.2733885" lon="151.2903196">
  <ele>446.01</ele>
  <time>2026-09-01T19:54:29Z</time>
  <course>235.28</course>
  <speed>4.894118919683092</speed>
  <fix>3d</fix>
</trkpt>
<trkpt lat="-27.2733811" lon="151.2903315">
  <ele>446.15</ele>
  <time>2026-09-01T19:54:29Z</time>
  <course>234.37</course>
  <speed>4.91</speed>
  <fix>3d</fix>
</trkpt>
<trkpt lat="-27.273391" lon="151.2903155">
  <ele>446.01</ele>
  <time>2026-09-01T19:54:29Z</time>
  <course>235.34</course>
  <speed>4.902295380737477</speed>
  <fix>3d</fix>
</trkpt>
<trkpt lat="-27.2733863" lon="151.2903234">
  <ele>446.15</ele>
  <time>2026-09-01T19:54:29Z</time>
  <course>234.5</course>
  <speed>4.92</speed>
  <fix>3d</fix>
</trkpt>
<trkpt lat="-27.2733936" lon="151.2903115">
  <ele>446.01</ele>
  <time>2026-09-01T19:54:29Z</time>
  <course>235.41</course>
  <speed>4.910478591746429</speed>
  <fix>3d</fix>
</trkpt>
<trkpt lat="-27.2733863" lon="151.2903234">
  <ele>446.15</ele>
  <time>2026-09-01T19:54:29Z</time>
  <course>234.5</course>
  <speed>4.92</speed>
  <fix>3d</fix>
</trkpt>
<trkpt lat="-27.2733961" lon="151.2903074">
  <ele>446.01</ele>
  <time>2026-09-01T19:54:29Z</time>
  <course>235.47</course>
  <speed>4.910478591746429</speed>
  <fix>3d</fix>
</trkpt>
<trkpt lat="-27.2733914" lon="151.2903153">
  <ele>446.15</ele>
  <time>2026-09-01T19:54:29Z</time>
  <course>234.62</course>
  <speed>4.93</speed>
  <fix>3d</fix>
</trkpt>
<trkpt lat="-27.2733987" lon="151.2903033">
  <ele>446.01</ele>
  <time>2026-09-01T19:54:29Z</time>
  <course>235.53</course>
  <speed>4.918668519020162</speed>
  <fix>3d</fix>
</trkpt>
<trkpt lat="-27.2733914" lon="151.2903153">
  <ele>446.15</ele>
  <time>2026-09-01T19:54:29Z</time>
  <course>234.62</course>
  <speed>4.93</speed>
  <fix>3d</fix>
</trkpt>
<trkpt lat="-27.2734012" lon="151.2902993">
  <ele>446.01</ele>
  <time>2026-09-01T19:54:29Z</time>
  <course>235.59</course>
  <speed>4.926865129065337</speed>
  <fix>3d</fix>
</trkpt>
<trkpt lat="-27.2733965" lon="151.2903071">
  <ele>446.15</ele>
  <time>2026-09-01T19:54:29Z</time>
  <course>234.73</course>
  <speed>4.94</speed>
  <fix>3d</fix>
</trkpt>
<trkpt lat="-27.2734038" lon="151.2902952">
  <ele>446.02</ele>
  <time>2026-09-01T19:54:29Z</time>
  <course>235.65</course>
  <speed>4.926865129065337</speed>
  <fix>3d</fix>
</trkpt>
<trkpt lat="-27.2733965" lon="151.2903071">
  <ele>446.15</ele>
  <time>2026-09-01T19:54:29Z</time>
  <course>234.73</course>
  <speed>4.94</speed>
  <fix>3d</fix>
</trkpt>
<trkpt lat="-27.2734063" lon="151.2902911">
  <ele>446.02</ele>
  <time>2026-09-01T19:54:29Z</time>
  <course>235.71</course>
  <speed>4.935068388583891</speed>
  <fix>3d</fix>
</trkpt>
<trkpt lat="-27.2734017" lon="151.290299">
  <ele>446.16</ele>
  <time>2026-09-01T19:54:29Z</time>
  <course>234.84</course>
  <speed>4.95</speed>
  <fix>3d</fix>
</trkpt>
<trkpt lat="-27.2734089" lon="151.290287">
  <ele>446.02</ele>
  <time>2026-09-01T19:54:29Z</time>
  <course>235.76</course>
  <speed>4.935068388583891</speed>
  <fix>3d</fix>
</trkpt>
<trkpt lat="-27.2734017" lon="151.290299">
  <ele>446.16</ele>
  <time>2026-09-01T19:54:29Z</time>
  <course>234.84</course>
  <speed>4.95</speed>
  <fix>3d</fix>
</trkpt>
<trkpt lat="-27.2734115" lon="151.2902829">
  <ele>446.02</ele>
  <time>2026-09-01T19:54:29Z</time>
  <course>235.8</course>
  <speed>4.943278264471868</speed>
  <fix>3d</fix>
</trkpt>
<trkpt lat="-27.2734068" lon="151.2902907">
  <ele>446.16</ele>
  <time>2026-09-01T19:54:29Z</time>
  <course>234.93</course>
  <speed>4.96</speed>
  <fix>3d</fix>
</trkpt>
<trkpt lat="-27.273414" lon="151.2902788">
  <ele>446.02</ele>
  <time>2026-09-01T19:54:29Z</time>
  <course>235.84</course>
  <speed>4.951494723818254</speed>
  <fix>3d</fix>
</trkpt>
<trkpt lat="-27.2734068" lon="151.2902907">
  <ele>446.16</ele>
  <time>2026-09-01T19:54:29Z</time>
  <course>234.93</course>
  <speed>4.96</speed>
  <fix>3d</fix>
</trkpt>
<trkpt lat="-27.2734166" lon="151.2902747">
  <ele>446.02</ele>
  <time>2026-09-01T19:54:29Z</time>
  <course>235.88</course>
  <speed>4.951494723818254</speed>
  <fix>3d</fix>
</trkpt>
<trkpt lat="-27.2734119" lon="151.2902826">
  <ele>446.16</ele>
  <time>2026-09-01T19:54:29Z</time>
  <course>235.01</course>
  <speed>4.97</speed>
  <fix>3d</fix>
</trkpt>
<trkpt lat="-27.2734191" lon="151.2902706">
  <ele>446.01</ele>
  <time>2026-09-01T19:54:29Z</time>
  <course>235.92</course>
  <speed>4.959717733903815</speed>
  <fix>3d</fix>
</trkpt>
<trkpt lat="-27.2734119" lon="151.2902826">
  <ele>446.16</ele>
  <time>2026-09-01T19:54:29Z</time>
  <course>235.01</course>
  <speed>4.97</speed>
  <fix>3d</fix>
</trkpt>
<trkpt lat="-27.2734217" lon="151.2902664">
  <ele>446.01</ele>
  <time>2026-09-01T19:54:29Z</time>
  <course>235.95</course>
  <speed>4.959717733903815</speed>
  <fix>3d</fix>
</trkpt>
<trkpt lat="-27.273417" lon="151.2902743">
  <ele>446.16</ele>
  <time>2026-09-01T19:54:29Z</time>
  <course>235.08</course>
  <speed>4.99</speed>
  <fix>3d</fix>
</trkpt>
<trkpt lat="-27.2734242" lon="151.2902623">
  <ele>446.01</ele>
  <time>2026-09-01T19:54:29Z</time>
  <course>235.99</course>
  <speed>4.967947262199952</speed>
  <fix>3d</fix>
</trkpt>
<trkpt lat="-27.273417" lon="151.2902743">
  <ele>446.16</ele>
  <time>2026-09-01T19:54:29Z</time>
  <course>235.08</course>
  <speed>4.99</speed>
  <fix>3d</fix>
</trkpt>
<trkpt lat="-27.2734268" lon="151.2902582">
  <ele>446.01</ele>
  <time>2026-09-01T19:54:29Z</time>
  <course>236.02</course>
  <speed>4.967947262199952</speed>
  <fix>3d</fix>
</trkpt>
<trkpt lat="-27.2734222" lon="151.290266">
  <ele>446.16</ele>
  <time>2026-09-01T19:54:29Z</time>
  <course>235.15</course>
  <speed>5.0</speed>
  <fix>3d</fix>
</trkpt>
<trkpt lat="-27.2734293" lon="151.290254">
  <ele>446.01</ele>
  <time>2026-09-01T19:54:29Z</time>
  <course>236.06</course>
  <speed>4.976183276367541</speed>
  <fix>3d</fix>
</trkpt>
<trkpt lat="-27.2734222" lon="151.290266">
  <ele>446.16</ele>
  <time>2026-09-01T19:54:29Z</time>
  <course>235.15</course>
  <speed>5.0</speed>
  <fix>3d</fix>
</trkpt>
<trkpt lat="-27.2734319" lon="151.2902499">
  <ele>446.01</ele>
  <time>2026-09-01T19:54:29Z</time>
  <course>236.09</course>
  <speed>4.976183276367541</speed>
  <fix>3d</fix>
</trkpt>
<trkpt lat="-27.2734273" lon="151.2902577">
  <ele>446.16</ele>
  <time>2026-09-01T19:54:29Z</time>
  <course>235.2</course>
  <speed>5.01</speed>
  <fix>3d</fix>
</trkpt>
<trkpt lat="-27.2734345" lon="151.2902457">
  <ele>446.01</ele>
  <time>2026-09-01T19:54:29Z</time>
  <course>236.12</course>
  <speed>4.984425744255801</speed>
  <fix>3d</fix>
</trkpt>
<trkpt lat="-27.2734273" lon="151.2902577">
  <ele>446.16</ele>
  <time>2026-09-01T19:54:29Z</time>
  <course>235.2</course>
  <speed>5.01</speed>
  <fix>3d</fix>
</trkpt>
<trkpt lat="-27.273437" lon="151.2902416">
  <ele>446.01</ele>
  <time>2026-09-01T19:54:29Z</time>
  <course>236.14</course>
  <speed>4.984425744255801</speed>
  <fix>3d</fix>
</trkpt>
<trkpt lat="-27.2734325" lon="151.2902494">
  <ele>446.16</ele>
  <time>2026-09-01T19:54:29Z</time>
  <course>235.25</course>
  <speed>5.01</speed>
  <fix>3d</fix>
</trkpt>
<trkpt lat="-27.2734396" lon="151.2902374">
  <ele>446.01</ele>
  <time>2026-09-01T19:54:29Z</time>
  <course>236.16</course>
  <speed>4.984425744255801</speed>
  <fix>3d</fix>
</trkpt>
<trkpt lat="-27.2734325" lon="151.2902494">
  <ele>446.16</ele>
  <time>2026-09-01T19:54:29Z</time>
  <course>235.25</course>
  <speed>5.01</speed>
  <fix>3d</fix>
</trkpt>
<trkpt lat="-27.2734422" lon="151.2902332">
  <ele>446.01</ele>
  <time>2026-09-01T19:54:29Z</time>
  <course>236.18</course>
  <speed>4.9983297210168125</speed>
  <fix>3d</fix>
</trkpt>
<trkpt lat="-27.2734376" lon="151.290241">
  <ele>446.16</ele>
  <time>2026-09-01T19:54:29Z</time>
  <course>235.3</course>
  <speed>5.02</speed>
  <fix>3d</fix>
</trkpt>
<trkpt lat="-27.2734447" lon="151.2902291">
  <ele>446.01</ele>
  <time>2026-09-01T19:54:29Z</time>
  <course>236.2</course>
  <speed>4.9983297210168125</speed>
  <fix>3d</fix>
</trkpt>
<trkpt lat="-27.2734376" lon="151.290241">
  <ele>446.16</ele>
  <time>2026-09-01T19:54:29Z</time>
  <course>235.3</course>
  <speed>5.02</speed>
  <fix>3d</fix>
</trkpt>
<trkpt lat="-27.2734473" lon="151.2902249">
  <ele>446.02</ele>
  <time>2026-09-01T19:54:29Z</time>
  <course>236.22</course>
  <speed>4.9983297210168125</speed>
  <fix>3d</fix>
</trkpt>
<trkpt lat="-27.2734427" lon="151.2902327">
  <ele>446.16</ele>
  <time>2026-09-01T19:54:29Z</time>
  <course>235.32</course>
  <speed>5.03</speed>
  <fix>3d</fix>
</trkpt>
<trkpt lat="-27.2734499" lon="151.2902207">
  <ele>446.02</ele>
  <time>2026-09-01T19:54:29Z</time>
  <course>236.23</course>
  <speed>5.006575676048451</speed>
  <fix>3d</fix>
</trkpt>
<trkpt lat="-27.2734427" lon="151.2902327">
  <ele>446.16</ele>
  <time>2026-09-01T19:54:29Z</time>
  <course>235.32</course>
  <speed>5.03</speed>
  <fix>3d</fix>
</trkpt>
<trkpt lat="-27.2734525" lon="151.2902164">
  <ele>446.02</ele>
  <time>2026-09-01T19:54:29Z</time>
  <course>236.25</course>
  <speed>5.006575676048451</speed>
  <fix>3d</fix>
</trkpt>
<trkpt lat="-27.2734479" lon="151.2902242">
  <ele>446.16</ele>
  <time>2026-09-01T19:54:29Z</time>
  <course>235.34</course>
  <speed>5.04</speed>
  <fix>3d</fix>
</trkpt>
<trkpt lat="-27.2734551" lon="151.2902122">
  <ele>446.02</ele>
  <time>2026-09-01T19:54:29Z</time>
  <course>236.25</course>
  <speed>5.006575676048451</speed>
  <fix>3d</fix>
</trkpt>
<trkpt lat="-27.2734479" lon="151.2902242">
  <ele>446.16</ele>
  <time>2026-09-01T19:54:29Z</time>
  <course>235.34</course>
  <speed>5.04</speed>
  <fix>3d</fix>
</trkpt>
<trkpt lat="-27.2734577" lon="151.290208">
  <ele>446.02</ele>
  <time>2026-09-01T19:54:29Z</time>
  <course>236.26</course>
  <speed>5.006575676048451</speed>
  <fix>3d</fix>
</trkpt>
<trkpt lat="-27.273453" lon="151.2902159">
  <ele>446.16</ele>
  <time>2026-09-01T19:54:29Z</time>
  <course>235.35</course>
  <speed>5.04</speed>
  <fix>3d</fix>
</trkpt>
<trkpt lat="-27.2734602" lon="151.2902038">
  <ele>446.02</ele>
  <time>2026-09-01T19:54:29Z</time>
  <course>236.26</course>
  <speed>5.014828013003038</speed>
  <fix>3d</fix>
</trkpt>
<trkpt lat="-27.273453" lon="151.2902159">
  <ele>446.16</ele>
  <time>2026-09-01T19:54:29Z</time>
  <course>235.35</course>
  <speed>5.04</speed>
  <fix>3d</fix>
</trkpt>
<trkpt lat="-27.2734628" lon="151.2901996">
  <ele>446.02</ele>
  <time>2026-09-01T19:54:29Z</time>
  <course>236.27</course>
  <speed>5.020478064885853</speed>
  <fix>3d</fix>
</trkpt>
<trkpt lat="-27.2734582" lon="151.2902075">
  <ele>446.17</ele>
  <time>2026-09-01T19:54:29Z</time>
  <course>235.36</course>
  <speed>5.04</speed>
  <fix>3d</fix>
</trkpt>
<trkpt lat="-27.2734654" lon="151.2901954">
  <ele>446.02</ele>
  <time>2026-09-01T19:54:29Z</time>
  <course>236.27</course>
  <speed>5.020478064885853</speed>
  <fix>3d</fix>
</trkpt>
<trkpt lat="-27.2734582" lon="151.2902075">
  <ele>446.17</ele>
  <time>2026-09-01T19:54:29Z</time>
  <course>235.36</course>
  <speed>5.04</speed>
  <fix>3d</fix>
</trkpt>
<trkpt lat="-27.273468" lon="151.2901912">
  <ele>446.02</ele>
  <time>2026-09-01T19:54:29Z</time>
  <course>236.27</course>
  <speed>5.020478064885853</speed>
  <fix>3d</fix>
</trkpt>
<trkpt lat="-27.2734634" lon="151.2901991">
  <ele>446.17</ele>
  <time>2026-09-01T19:54:29Z</time>
  <course>235.36</course>
  <speed>5.05</speed>
  <fix>3d</fix>
</trkpt>
<trkpt lat="-27.2734706" lon="151.290187">
  <ele>446.02</ele>
  <time>2026-09-01T19:54:29Z</time>
  <course>236.27</course>
  <speed>5.020478064885853</speed>
  <fix>3d</fix>
</trkpt>
<trkpt lat="-27.2734634" lon="151.2901991">
  <ele>446.17</ele>
  <time>2026-09-01T19:54:29Z</time>
  <course>235.36</course>
  <speed>5.05</speed>
  <fix>3d</fix>
</trkpt>
<trkpt lat="-27.2734731" lon="151.2901828">
  <ele>446.02</ele>
  <time>2026-09-01T19:54:29Z</time>
  <course>236.28</course>
  <speed>5.020478064885853</speed>
  <fix>3d</fix>
</trkpt>
<trkpt lat="-27.2734685" lon="151.2901906">
  <ele>446.17</ele>
  <time>2026-09-01T19:54:29Z</time>
  <course>235.37</course>
  <speed>5.05</speed>
  <fix>3d</fix>
</trkpt>
<trkpt lat="-27.2734757" lon="151.2901786">
  <ele>446.02</ele>
  <time>2026-09-01T19:54:29Z</time>
  <course>236.28</course>
  <speed>5.020478064885853</speed>
  <fix>3d</fix>
</trkpt>
<trkpt lat="-27.2734685" lon="151.2901906">
  <ele>446.17</ele>
  <time>2026-09-01T19:54:29Z</time>
  <course>235.37</course>
  <speed>5.05</speed>
  <fix>3d</fix>
</trkpt>
<trkpt lat="-27.2734783" lon="151.2901743">
  <ele>446.01</ele>
  <time>2026-09-01T19:54:29Z</time>
  <course>236.28</course>
  <speed>5.020478064885853</speed>
  <fix>3d</fix>
</trkpt>
<trkpt lat="-27.2734736" lon="151.2901823">
  <ele>446.17</ele>
  <time>2026-09-01T19:54:29Z</time>
  <course>235.37</course>
  <speed>5.05</speed>
  <fix>3d</fix>
</trkpt>
<trkpt lat="-27.2734809" lon="151.2901701">
  <ele>446.01</ele>
  <time>2026-09-01T19:54:29Z</time>
  <course>236.29</course>
  <speed>5.020478064885853</speed>
  <fix>3d</fix>
</trkpt>
<trkpt lat="-27.2734736" lon="151.2901823">
  <ele>446.17</ele>
  <time>2026-09-01T19:54:29Z</time>
  <course>235.37</course>
  <speed>5.05</speed>
  <fix>3d</fix>
</trkpt>
<trkpt lat="-27.2734835" lon="151.2901659">
  <ele>446.01</ele>
  <time>2026-09-01T19:54:29Z</time>
  <course>236.29</course>
  <speed>5.020478064885853</speed>
  <fix>3d</fix>
</trkpt>
<trkpt lat="-27.2734788" lon="151.2901739">
  <ele>446.17</ele>
  <time>2026-09-01T19:54:29Z</time>
  <course>235.37</course>
  <speed>5.05</speed>
  <fix>3d</fix>
</trkpt>
<trkpt lat="-27.2734861" lon="151.2901617">
  <ele>446.01</ele>
  <time>2026-09-01T19:54:29Z</time>
  <course>236.29</course>
  <speed>5.020478064885853</speed>
  <fix>3d</fix>
</trkpt>
<trkpt lat="-27.2734788" lon="151.2901739">
  <ele>446.17</ele>
  <time>2026-09-01T19:54:29Z</time>
  <course>235.37</course>
  <speed>5.05</speed>
  <fix>3d</fix>
</trkpt>
<trkpt lat="-27.2734887" lon="151.2901575">
  <ele>446.01</ele>
  <time>2026-09-01T19:54:29Z</time>
  <course>236.28</course>
  <speed>5.020478064885853</speed>
  <fix>3d</fix>
</trkpt>
<trkpt lat="-27.2734839" lon="151.2901655">
  <ele>446.17</ele>
  <time>2026-09-01T19:54:29Z</time>
  <course>235.36</course>
  <speed>5.05</speed>
  <fix>3d</fix>
</trkpt>
<trkpt lat="-27.2734913" lon="151.2901533">
  <ele>446.01</ele>
  <time>2026-09-01T19:54:29Z</time>
  <course>236.28</course>
  <speed>5.020478064885853</speed>
  <fix>3d</fix>
</trkpt>
<trkpt lat="-27.2734839" lon="151.2901655">
  <ele>446.17</ele>
  <time>2026-09-01T19:54:29Z</time>
  <course>235.36</course>
  <speed>5.05</speed>
  <fix>3d</fix>
</trkpt>
<trkpt lat="-27.2734939" lon="151.2901491">
  <ele>446.01</ele>
  <time>2026-09-01T19:54:29Z</time>
  <course>236.27</course>
  <speed>5.020478064885853</speed>
  <fix>3d</fix>
</trkpt>
<trkpt lat="-27.2734892" lon="151.290157">
  <ele>446.17</ele>
  <time>2026-09-01T19:54:29Z</time>
  <course>235.33</course>
  <speed>5.05</speed>
  <fix>3d</fix>
</trkpt>
<trkpt lat="-27.2734964" lon="151.2901449">
  <ele>446.01</ele>
  <time>2026-09-01T19:54:29Z</time>
  <course>236.25</course>
  <speed>5.026141661354164</speed>
  <fix>3d</fix>
</trkpt>
<trkpt lat="-27.2734892" lon="151.290157">
  <ele>446.17</ele>
  <time>2026-09-01T19:54:29Z</time>
  <course>235.33</course>
  <speed>5.05</speed>
  <fix>3d</fix>
</trkpt>
<trkpt lat="-27.273499" lon="151.2901407">
  <ele>446.01</ele>
  <time>2026-09-01T19:54:29Z</time>
  <course>236.24</course>
  <speed>5.026141661354164</speed>
  <fix>3d</fix>
</trkpt>
<trkpt lat="-27.2734943" lon="151.2901486">
  <ele>446.17</ele>
  <time>2026-09-01T19:54:29Z</time>
  <course>235.3</course>
  <speed>5.05</speed>
  <fix>3d</fix>
</trkpt>
<trkpt lat="-27.2735016" lon="151.2901365">
  <ele>446.01</ele>
  <time>2026-09-01T19:54:29Z</time>
  <course>236.23</course>
  <speed>5.026141661354164</speed>
  <fix>3d</fix>
</trkpt>
<trkpt lat="-27.2734943" lon="151.2901486">
  <ele>446.17</ele>
  <time>2026-09-01T19:54:29Z</time>
  <course>235.3</course>
  <speed>5.05</speed>
  <fix>3d</fix>
</trkpt>
<trkpt lat="-27.2735042" lon="151.2901323">
  <ele>446.02</ele>
  <time>2026-09-01T19:54:29Z</time>
  <course>236.21</course>
  <speed>5.026141661354164</speed>
  <fix>3d</fix>
</trkpt>
<trkpt lat="-27.2734995" lon="151.2901403">
  <ele>446.17</ele>
  <time>2026-09-01T19:54:29Z</time>
  <course>235.28</course>
  <speed>5.05</speed>
  <fix>3d</fix>
</trkpt>
<trkpt lat="-27.2735068" lon="151.290128">
  <ele>446.02</ele>
  <time>2026-09-01T19:54:29Z</time>
  <course>236.2</course>
  <speed>5.026141661354164</speed>
  <fix>3d</fix>
</trkpt>
<trkpt lat="-27.2734995" lon="151.2901403">
  <ele>446.17</ele>
  <time>2026-09-01T19:54:29Z</time>
  <course>235.28</course>
  <speed>5.05</speed>
  <fix>3d</fix>
</trkpt>
<trkpt lat="-27.2735094" lon="151.2901238">
  <ele>446.02</ele>
  <time>2026-09-01T19:54:29Z</time>
  <course>236.19</course>
  <speed>5.026141661354164</speed>
  <fix>3d</fix>
</trkpt>
<trkpt lat="-27.2735046" lon="151.2901319">
  <ele>446.17</ele>
  <time>2026-09-01T19:54:29Z</time>
  <course>235.26</course>
  <speed>5.05</speed>
  <fix>3d</fix>
</trkpt>
<trkpt lat="-27.273512" lon="151.2901196">
  <ele>446.02</ele>
  <time>2026-09-01T19:54:29Z</time>
  <course>236.18</course>
  <speed>5.026141661354164</speed>
  <fix>3d</fix>
</trkpt>
<trkpt lat="-27.2735046" lon="151.2901319">
  <ele>446.17</ele>
  <time>2026-09-01T19:54:29Z</time>
  <course>235.26</course>
  <speed>5.05</speed>
  <fix>3d</fix>
</trkpt>
<trkpt lat="-27.2735146" lon="151.2901154">
  <ele>446.02</ele>
  <time>2026-09-01T19:54:29Z</time>
  <course>236.17</course>
  <speed>5.026141661354164</speed>
  <fix>3d</fix>
</trkpt>
<trkpt lat="-27.2735098" lon="151.2901235">
  <ele>446.17</ele>
  <time>2026-09-01T19:54:29Z</time>
  <course>235.24</course>
  <speed>5.04</speed>
  <fix>3d</fix>
</trkpt>
<trkpt lat="-27.2735172" lon="151.2901112">
  <ele>446.02</ele>
  <time>2026-09-01T19:54:29Z</time>
  <course>236.16</course>
  <speed>5.017907930602155</speed>
  <fix>3d</fix>
</trkpt>
<trkpt lat="-27.2735098" lon="151.2901235">
  <ele>446.17</ele>
  <time>2026-09-01T19:54:29Z</time>
  <course>235.24</course>
  <speed>5.04</speed>
  <fix>3d</fix>
</trkpt>
<trkpt lat="-27.2735198" lon="151.290107">
  <ele>446.02</ele>
  <time>2026-09-01T19:54:29Z</time>
  <course>236.16</course>
  <speed>5.017907930602155</speed>
  <fix>3d</fix>
</trkpt>
<trkpt lat="-27.2735149" lon="151.290115">
  <ele>446.17</ele>
  <time>2026-09-01T19:54:29Z</time>
  <course>235.22</course>
  <speed>5.04</speed>
  <fix>3d</fix>
</trkpt>
<trkpt lat="-27.2735224" lon="151.2901028">
  <ele>446.02</ele>
  <time>2026-09-01T19:54:29Z</time>
  <course>236.15</course>
  <speed>5.017907930602155</speed>
  <fix>3d</fix>
</trkpt>
<trkpt lat="-27.2735149" lon="151.290115">
  <ele>446.17</ele>
  <time>2026-09-01T19:54:29Z</time>
  <course>235.22</course>
  <speed>5.04</speed>
  <fix>3d</fix>
</trkpt>
<trkpt lat="-27.273525" lon="151.2900986">
  <ele>446.02</ele>
  <time>2026-09-01T19:54:29Z</time>
  <course>236.14</course>
  <speed>5.017907930602155</speed>
  <fix>3d</fix>
</trkpt>
<trkpt lat="-27.2735202" lon="151.2901067">
  <ele>446.17</ele>
  <time>2026-09-01T19:54:29Z</time>
  <course>235.19</course>
  <speed>5.04</speed>
  <fix>3d</fix>
</trkpt>
<trkpt lat="-27.2735275" lon="151.2900944">
  <ele>446.02</ele>
  <time>2026-09-01T19:54:29Z</time>
  <course>236.12</course>
  <speed>5.017907930602155</speed>
  <fix>3d</fix>
</trkpt>
<trkpt lat="-27.2735202" lon="151.2901067">
  <ele>446.17</ele>
  <time>2026-09-01T19:54:29Z</time>
  <course>235.19</course>
  <speed>5.04</speed>
  <fix>3d</fix>
</trkpt>
<trkpt lat="-27.2735301" lon="151.2900902">
  <ele>446.02</ele>
  <time>2026-09-01T19:54:29Z</time>
  <course>236.11</course>
  <speed>5.017907930602155</speed>
  <fix>3d</fix>
</trkpt>
<trkpt lat="-27.2735253" lon="151.2900983">
  <ele>446.17</ele>
  <time>2026-09-01T19:54:29Z</time>
  <course>235.17</course>
  <speed>5.04</speed>
  <fix>3d</fix>
</trkpt>
<trkpt lat="-27.2735327" lon="151.290086">
  <ele>446.02</ele>
  <time>2026-09-01T19:54:29Z</time>
  <course>236.1</course>
  <speed>5.017907930602155</speed>
  <fix>3d</fix>
</trkpt>
<trkpt lat="-27.2735253" lon="151.2900983">
  <ele>446.17</ele>
  <time>2026-09-01T19:54:29Z</time>
  <course>235.17</course>
  <speed>5.04</speed>
  <fix>3d</fix>
</trkpt>
<trkpt lat="-27.2735353" lon="151.2900818">
  <ele>446.02</ele>
  <time>2026-09-01T19:54:29Z</time>
  <course>236.09</course>
  <speed>5.017907930602155</speed>
  <fix>3d</fix>
</trkpt>
<trkpt lat="-27.2735305" lon="151.29009">
  <ele>446.17</ele>
  <time>2026-09-01T19:54:29Z</time>
  <course>235.16</course>
  <speed>5.03</speed>
  <fix>3d</fix>
</trkpt>
<trkpt lat="-27.2735379" lon="151.2900776">
  <ele>446.02</ele>
  <time>2026-09-01T19:54:29Z</time>
  <course>236.08</course>
  <speed>5.017907930602155</speed>
  <fix>3d</fix>
</trkpt>
<trkpt lat="-27.2735305" lon="151.29009">
  <ele>446.17</ele>
  <time>2026-09-01T19:54:29Z</time>
  <course>235.16</course>
  <speed>5.03</speed>
  <fix>3d</fix>
</trkpt>
<trkpt lat="-27.2735405" lon="151.2900734">
  <ele>446.02</ele>
  <time>2026-09-01T19:54:29Z</time>
  <course>236.07</course>
  <speed>5.0096806285431015</speed>
  <fix>3d</fix>
</trkpt>
<trkpt lat="-27.2735356" lon="151.2900816">
  <ele>446.17</ele>
  <time>2026-09-01T19:54:29Z</time>
  <course>235.15</course>
  <speed>5.03</speed>
  <fix>3d</fix>
</trkpt>
<trkpt lat="-27.2735431" lon="151.2900693">
  <ele>446.02</ele>
  <time>2026-09-01T19:54:29Z</time>
  <course>236.07</course>
  <speed>5.0096806285431015</speed>
  <fix>3d</fix>
</trkpt>
<trkpt lat="-27.2735356" lon="151.2900816">
  <ele>446.17</ele>
  <time>2026-09-01T19:54:29Z</time>
  <course>235.15</course>
  <speed>5.03</speed>
  <fix>3d</fix>
</trkpt>
<trkpt lat="-27.2735457" lon="151.2900651">
  <ele>446.02</ele>
  <time>2026-09-01T19:54:29Z</time>
  <course>236.07</course>
  <speed>5.0096806285431015</speed>
  <fix>3d</fix>
</trkpt>
<trkpt lat="-27.2735409" lon="151.2900733">
  <ele>446.17</ele>
  <time>2026-09-01T19:54:29Z</time>
  <course>235.13</course>
  <speed>5.03</speed>
  <fix>3d</fix>
</trkpt>
<trkpt lat="-27.2735483" lon="151.2900609">
  <ele>446.02</ele>
  <time>2026-09-01T19:54:29Z</time>
  <course>236.06</course>
  <speed>5.0096806285431015</speed>
  <fix>3d</fix>
</trkpt>
<trkpt lat="-27.2735409" lon="151.2900733">
  <ele>446.17</ele>
  <time>2026-09-01T19:54:29Z</time>
  <course>235.13</course>
  <speed>5.03</speed>
  <fix>3d</fix>
</trkpt>
<trkpt lat="-27.2735509" lon="151.2900567">
  <ele>446.02</ele>
  <time>2026-09-01T19:54:29Z</time>
  <course>236.06</course>
  <speed>5.0096806285431015</speed>
  <fix>3d</fix>
</trkpt>
<trkpt lat="-27.273546" lon="151.2900649">
  <ele>446.17</ele>
  <time>2026-09-01T19:54:29Z</time>
  <course>235.11</course>
  <speed>5.02</speed>
  <fix>3d</fix>
</trkpt>
<trkpt lat="-27.2735534" lon="151.2900526">
  <ele>446.02</ele>
  <time>2026-09-01T19:54:29Z</time>
  <course>236.05</course>
  <speed>5.0096806285431015</speed>
  <fix>3d</fix>
</trkpt>
<trkpt lat="-27.273546" lon="151.2900649">
  <ele>446.17</ele>
  <time>2026-09-01T19:54:29Z</time>
  <course>235.11</course>
  <speed>5.02</speed>
  <fix>3d</fix>
</trkpt>
<trkpt lat="-27.273556" lon="151.2900484">
  <ele>446.02</ele>
  <time>2026-09-01T19:54:29Z</time>
  <course>236.03</course>
  <speed>5.0096806285431015</speed>
  <fix>3d</fix>
</trkpt>
<trkpt lat="-27.2735512" lon="151.2900566">
  <ele>446.17</ele>
  <time>2026-09-01T19:54:29Z</time>
  <course>235.09</course>
  <speed>5.02</speed>
  <fix>3d</fix>
</trkpt>
<trkpt lat="-27.2735586" lon="151.2900442">
  <ele>446.02</ele>
  <time>2026-09-01T19:54:29Z</time>
  <course>236.02</course>
  <speed>5.00145978690222</speed>
  <fix>3d</fix>
</trkpt>
<trkpt lat="-27.2735512" lon="151.2900566">
  <ele>446.17</ele>
  <time>2026-09-01T19:54:29Z</time>
  <course>235.09</course>
  <speed>5.02</speed>
  <fix>3d</fix>
</trkpt>
<trkpt lat="-27.2735612" lon="151.29004">
  <ele>446.02</ele>
  <time>2026-09-01T19:54:29Z</time>
  <course>236.01</course>
  <speed>5.00145978690222</speed>
  <fix>3d</fix>
</trkpt>
<trkpt lat="-27.2735563" lon="151.2900483">
  <ele>446.17</ele>
  <time>2026-09-01T19:54:29Z</time>
  <course>235.07</course>
  <speed>5.02</speed>
  <fix>3d</fix>
</trkpt>
<trkpt lat="-27.2735638" lon="151.2900359">
  <ele>446.01</ele>
  <time>2026-09-01T19:54:29Z</time>
  <course>236.0</course>
  <speed>5.00145978690222</speed>
  <fix>3d</fix>
</trkpt>
<trkpt lat="-27.2735563" lon="151.2900483">
  <ele>446.17</ele>
  <time>2026-09-01T19:54:29Z</time>
  <course>235.07</course>
  <speed>5.02</speed>
  <fix>3d</fix>
</trkpt>
<trkpt lat="-27.2735664" lon="151.2900317">
  <ele>446.01</ele>
  <time>2026-09-01T19:54:29Z</time>
  <course>235.99</course>
  <speed>5.00145978690222</speed>
  <fix>3d</fix>
</trkpt>
<trkpt lat="-27.2735615" lon="151.29004">
  <ele>446.16</ele>
  <time>2026-09-01T19:54:29Z</time>
  <course>235.06</course>
  <speed>5.01</speed>
  <fix>3d</fix>
</trkpt>
<trkpt lat="-27.273569" lon="151.2900275">
  <ele>446.01</ele>
  <time>2026-09-01T19:54:29Z</time>
  <course>235.99</course>
  <speed>5.00145978690222</speed>
  <fix>3d</fix>
</trkpt>
<trkpt lat="-27.2735615" lon="151.29004">
  <ele>446.16</ele>
  <time>2026-09-01T19:54:29Z</time>
  <course>235.06</course>
  <speed>5.01</speed>
  <fix>3d</fix>
</trkpt>
<trkpt lat="-27.2735716" lon="151.2900234">
  <ele>446.01</ele>
  <time>2026-09-01T19:54:29Z</time>
  <course>235.98</course>
  <speed>4.993245437588663</speed>
  <fix>3d</fix>
</trkpt>
<trkpt lat="-27.2735666" lon="151.2900316">
  <ele>446.16</ele>
  <time>2026-09-01T19:54:29Z</time>
  <course>235.04</course>
  <speed>5.01</speed>
  <fix>3d</fix>
</trkpt>
<trkpt lat="-27.2735741" lon="151.2900192">
  <ele>446.01</ele>
  <time>2026-09-01T19:54:29Z</time>
  <course>235.97</course>
  <speed>4.993245437588663</speed>
  <fix>3d</fix>
</trkpt>
<trkpt lat="-27.2735666" lon="151.2900316">
  <ele>446.16</ele>
  <time>2026-09-01T19:54:29Z</time>
  <course>235.04</course>
  <speed>5.01</speed>
  <fix>3d</fix>
</trkpt>
<trkpt lat="-27.2735767" lon="151.2900151">
  <ele>446.01</ele>
  <time>2026-09-01T19:54:29Z</time>
  <course>235.96</course>
  <speed>4.993245437588663</speed>
  <fix>3d</fix>
</trkpt>
<trkpt lat="-27.2735718" lon="151.2900233">
  <ele>446.16</ele>
  <time>2026-09-01T19:54:29Z</time>
  <course>235.01</course>
  <speed>5.01</speed>
  <fix>3d</fix>
</trkpt>
<trkpt lat="-27.2735793" lon="151.2900109">
  <ele>446.01</ele>
  <time>2026-09-01T19:54:29Z</time>
  <course>235.94</course>
  <speed>4.993245437588663</speed>
  <fix>3d</fix>
</trkpt>
<trkpt lat="-27.2735718" lon="151.2900233">
  <ele>446.16</ele>
  <time>2026-09-01T19:54:29Z</time>
  <course>235.01</course>
  <speed>5.01</speed>
  <fix>3d</fix>
</trkpt>
<trkpt lat="-27.2735819" lon="151.2900068">
  <ele>446.01</ele>
  <time>2026-09-01T19:54:29Z</time>
  <course>235.93</course>
  <speed>4.993245437588663</speed>
  <fix>3d</fix>
</trkpt>
<trkpt lat="-27.2735769" lon="151.290015">
  <ele>446.16</ele>
  <time>2026-09-01T19:54:29Z</time>
  <course>234.99</course>
  <speed>5.0</speed>
  <fix>3d</fix>
</trkpt>
<trkpt lat="-27.2735845" lon="151.2900026">
  <ele>446.01</ele>
  <time>2026-09-01T19:54:29Z</time>
  <course>235.92</course>
  <speed>4.993245437588663</speed>
  <fix>3d</fix>
</trkpt>
<trkpt lat="-27.2735769" lon="151.290015">
  <ele>446.16</ele>
  <time>2026-09-01T19:54:29Z</time>
  <course>234.99</course>
  <speed>5.0</speed>
  <fix>3d</fix>
</trkpt>
<trkpt lat="-27.273587" lon="151.2899985">
  <ele>446.01</ele>
  <time>2026-09-01T19:54:29Z</time>
  <course>235.91</course>
  <speed>4.993245437588663</speed>
  <fix>3d</fix>
</trkpt>
<trkpt lat="-27.2735822" lon="151.2900067">
  <ele>446.16</ele>
  <time>2026-09-01T19:54:29Z</time>
  <course>234.98</course>
  <speed>5.0</speed>
  <fix>3d</fix>
</trkpt>
<trkpt lat="-27.2735896" lon="151.2899943">
  <ele>446.01</ele>
  <time>2026-09-01T19:54:29Z</time>
  <course>235.91</course>
  <speed>4.993245437588663</speed>
  <fix>3d</fix>
</trkpt>
<trkpt lat="-27.2735822" lon="151.2900067">
  <ele>446.16</ele>
  <time>2026-09-01T19:54:29Z</time>
  <course>234.98</course>
  <speed>5.0</speed>
  <fix>3d</fix>
</trkpt>
<trkpt lat="-27.2735922" lon="151.2899902">
  <ele>446.01</ele>
  <time>2026-09-01T19:54:29Z</time>
  <course>235.91</course>
  <speed>4.993245437588663</speed>
  <fix>3d</fix>
</trkpt>
<trkpt lat="-27.2735873" lon="151.2899984">
  <ele>446.16</ele>
  <time>2026-09-01T19:54:29Z</time>
  <course>234.97</course>
  <speed>5.0</speed>
  <fix>3d</fix>
</trkpt>
<trkpt lat="-27.2735948" lon="151.2899861">
  <ele>446.01</ele>
  <time>2026-09-01T19:54:29Z</time>
  <course>235.9</course>
  <speed>4.985037612696618</speed>
  <fix>3d</fix>
</trkpt>
<trkpt lat="-27.2735873" lon="151.2899984">
  <ele>446.16</ele>
  <time>2026-09-01T19:54:29Z</time>
  <course>234.97</course>
  <speed>5.0</speed>
  <fix>3d</fix>
</trkpt>
<trkpt lat="-27.2735974" lon="151.2899819">
  <ele>446.01</ele>
  <time>2026-09-01T19:54:29Z</time>
  <course>235.9</course>
  <speed>4.985037612696618</speed>
  <fix>3d</fix>
</trkpt>
<trkpt lat="-27.2735925" lon="151.2899902">
  <ele>446.16</ele>
  <time>2026-09-01T19:54:29Z</time>
  <course>234.95</course>
  <speed>5.0</speed>
  <fix>3d</fix>
</trkpt>
<trkpt lat="-27.2736" lon="151.2899778">
  <ele>446.01</ele>
  <time>2026-09-01T19:54:29Z</time>
  <course>235.89</course>
  <speed>4.985037612696618</speed>
  <fix>3d</fix>
</trkpt>
<trkpt lat="-27.2735925" lon="151.2899902">
  <ele>446.16</ele>
  <time>2026-09-01T19:54:29Z</time>
  <course>234.95</course>
  <speed>5.0</speed>
  <fix>3d</fix>
</trkpt>
<trkpt lat="-27.2736025" lon="151.2899736">
  <ele>446.0</ele>
  <time>2026-09-01T19:54:29Z</time>
  <course>235.88</course>
  <speed>4.985037612696618</speed>
  <fix>3d</fix>
</trkpt>
<trkpt lat="-27.2735976" lon="151.2899819">
  <ele>446.16</ele>
  <time>2026-09-01T19:54:29Z</time>
  <course>234.93</course>
  <speed>5.0</speed>
  <fix>3d</fix>
</trkpt>
<trkpt lat="-27.2736051" lon="151.2899695">
  <ele>446.0</ele>
  <time>2026-09-01T19:54:29Z</time>
  <course>235.87</course>
  <speed>4.985037612696618</speed>
  <fix>3d</fix>
</trkpt>
<trkpt lat="-27.2735976" lon="151.2899819">
  <ele>446.16</ele>
  <time>2026-09-01T19:54:29Z</time>
  <course>234.93</course>
  <speed>5.0</speed>
  <fix>3d</fix>
</trkpt>
<trkpt lat="-27.2736077" lon="151.2899654">
  <ele>446.0</ele>
  <time>2026-09-01T19:54:29Z</time>
  <course>235.86</course>
  <speed>4.985037612696618</speed>
  <fix>3d</fix>
</trkpt>
<trkpt lat="-27.2736028" lon="151.2899736">
  <ele>446.16</ele>
  <time>2026-09-01T19:54:29Z</time>
  <course>234.91</course>
  <speed>5.0</speed>
  <fix>3d</fix>
</trkpt>
<trkpt lat="-27.2736103" lon="151.2899612">
  <ele>446.0</ele>
  <time>2026-09-01T19:54:29Z</time>
  <course>235.85</course>
  <speed>4.985037612696618</speed>
  <fix>3d</fix>
</trkpt>
<trkpt lat="-27.2736028" lon="151.2899736">
  <ele>446.16</ele>
  <time>2026-09-01T19:54:29Z</time>
  <course>234.91</course>
  <speed>5.0</speed>
  <fix>3d</fix>
</trkpt>
<trkpt lat="-27.2736129" lon="151.2899571">
  <ele>446.0</ele>
  <time>2026-09-01T19:54:29Z</time>
  <course>235.84</course>
  <speed>4.985037612696618</speed>
  <fix>3d</fix>
</trkpt>
<trkpt lat="-27.2736079" lon="151.2899653">
  <ele>446.16</ele>
  <time>2026-09-01T19:54:29Z</time>
  <course>234.9</course>
  <speed>5.0</speed>
  <fix>3d</fix>
</trkpt>
<trkpt lat="-27.2736154" lon="151.289953">
  <ele>446.01</ele>
  <time>2026-09-01T19:54:29Z</time>
  <course>235.84</course>
  <speed>4.985037612696618</speed>
  <fix>3d</fix>
</trkpt>
<trkpt lat="-27.2736079" lon="151.2899653">
  <ele>446.16</ele>
  <time>2026-09-01T19:54:29Z</time>
  <course>234.9</course>
  <speed>5.0</speed>
  <fix>3d</fix>
</trkpt>
<trkpt lat="-27.273618" lon="151.2899488">
  <ele>446.01</ele>
  <time>2026-09-01T19:54:29Z</time>
  <course>235.83</course>
  <speed>4.985037612696618</speed>
  <fix>3d</fix>
</trkpt>
<trkpt lat="-27.2736132" lon="151.289957">
  <ele>446.16</ele>
  <time>2026-09-01T19:54:29Z</time>
  <course>234.89</course>
  <speed>5.0</speed>
  <fix>3d</fix>
</trkpt>
<trkpt lat="-27.2736206" lon="151.2899447">
  <ele>446.01</ele>
  <time>2026-09-01T19:54:29Z</time>
  <course>235.83</course>
  <speed>4.985037612696618</speed>
  <fix>3d</fix>
</trkpt>
<trkpt lat="-27.2736132" lon="151.289957">
  <ele>446.16</ele>
  <time>2026-09-01T19:54:29Z</time>
  <course>234.89</course>
  <speed>5.0</speed>
  <fix>3d</fix>
</trkpt>
<trkpt lat="-27.2736232" lon="151.2899405">
  <ele>446.01</ele>
  <time>2026-09-01T19:54:29Z</time>
  <course>235.83</course>
  <speed>4.985037612696618</speed>
  <fix>3d</fix>
</trkpt>
<trkpt lat="-27.2736183" lon="151.2899488">
  <ele>446.17</ele>
  <time>2026-09-01T19:54:29Z</time>
  <course>234.88</course>
  <speed>5.0</speed>
  <fix>3d</fix>
</trkpt>
<trkpt lat="-27.2736258" lon="151.2899364">
  <ele>446.01</ele>
  <time>2026-09-01T19:54:29Z</time>
  <course>235.82</course>
  <speed>4.985037612696618</speed>
  <fix>3d</fix>
</trkpt>
<trkpt lat="-27.2736183" lon="151.2899488">
  <ele>446.17</ele>
  <time>2026-09-01T19:54:29Z</time>
  <course>234.88</course>
  <speed>5.0</speed>
  <fix>3d</fix>
</trkpt>
<trkpt lat="-27.2736284" lon="151.2899322">
  <ele>446.01</ele>
  <time>2026-09-01T19:54:29Z</time>
  <course>235.82</course>
  <speed>4.985037612696618</speed>
  <fix>3d</fix>
</trkpt>
<trkpt lat="-27.2736235" lon="151.2899405">
  <ele>446.17</ele>
  <time>2026-09-01T19:54:29Z</time>
  <course>234.88</course>
  <speed>5.0</speed>
  <fix>3d</fix>
</trkpt>
<trkpt lat="-27.273631" lon="151.2899281">
  <ele>446.01</ele>
  <time>2026-09-01T19:54:29Z</time>
  <course>235.82</course>
  <speed>4.985037612696618</speed>
  <fix>3d</fix>
</trkpt>
<trkpt lat="-27.2736235" lon="151.2899405">
  <ele>446.17</ele>
  <time>2026-09-01T19:54:29Z</time>
  <course>234.88</course>
  <speed>5.0</speed>
  <fix>3d</fix>
</trkpt>
<trkpt lat="-27.2736335" lon="151.289924">
  <ele>446.01</ele>
  <time>2026-09-01T19:54:29Z</time>
  <course>235.81</course>
  <speed>4.985037612696618</speed>
  <fix>3d</fix>
</trkpt>
<trkpt lat="-27.2736286" lon="151.2899322">
  <ele>446.17</ele>
  <time>2026-09-01T19:54:29Z</time>
  <course>234.88</course>
  <speed>5.0</speed>
  <fix>3d</fix>
</trkpt>
<trkpt lat="-27.2736361" lon="151.2899199">
  <ele>446.02</ele>
  <time>2026-09-01T19:54:29Z</time>
  <course>235.81</course>
  <speed>4.985037612696618</speed>
  <fix>3d</fix>
</trkpt>
<trkpt lat="-27.2736286" lon="151.2899322">
  <ele>446.17</ele>
  <time>2026-09-01T19:54:29Z</time>
  <course>234.88</course>
  <speed>5.0</speed>
  <fix>3d</fix>
</trkpt>
<trkpt lat="-27.2736387" lon="151.2899158">
  <ele>446.02</ele>
  <time>2026-09-01T19:54:29Z</time>
  <course>235.81</course>
  <speed>4.985037612696618</speed>
  <fix>3d</fix>
</trkpt>
<trkpt lat="-27.2736339" lon="151.289924">
  <ele>446.17</ele>
  <time>2026-09-01T19:54:29Z</time>
  <course>234.89</course>
  <speed>5.0</speed>
  <fix>3d</fix>
</trkpt>
<trkpt lat="-27.2736412" lon="151.2899117">
  <ele>446.02</ele>
  <time>2026-09-01T19:54:29Z</time>
  <course>235.81</course>
  <speed>4.979327263797791</speed>
  <fix>3d</fix>
</trkpt>
<trkpt lat="-27.2736339" lon="151.289924">
  <ele>446.17</ele>
  <time>2026-09-01T19:54:29Z</time>
  <course>234.89</course>
  <speed>5.0</speed>
  <fix>3d</fix>
</trkpt>
<trkpt lat="-27.2736438" lon="151.2899076">
  <ele>446.02</ele>
  <time>2026-09-01T19:54:29Z</time>
  <course>235.82</course>
  <speed>4.979327263797791</speed>
  <fix>3d</fix>
</trkpt>
<trkpt lat="-27.273639" lon="151.2899157">
  <ele>446.17</ele>
  <time>2026-09-01T19:54:29Z</time>
  <course>234.9</course>
  <speed>5.0</speed>
  <fix>3d</fix>
</trkpt>
<trkpt lat="-27.2736464" lon="151.2899035">
  <ele>446.02</ele>
  <time>2026-09-01T19:54:29Z</time>
  <course>235.83</course>
  <speed>4.979327263797791</speed>
  <fix>3d</fix>
</trkpt>
<trkpt lat="-27.273639" lon="151.2899157">
  <ele>446.17</ele>
  <time>2026-09-01T19:54:30Z</time>
  <course>234.9</course>
  <speed>5.0</speed>
  <fix>3d</fix>
</trkpt>
<trkpt lat="-27.273649" lon="151.2898993">
  <ele>446.02</ele>
  <time>2026-09-01T19:54:30Z</time>
  <course>235.83</course>
  <speed>4.979327263797791</speed>
  <fix>3d</fix>
</trkpt>
<trkpt lat="-27.2736442" lon="151.2899074">
  <ele>446.17</ele>
  <time>2026-09-01T19:54:30Z</time>
  <course>234.91</course>
  <speed>5.0</speed>
  <fix>3d</fix>
</trkpt>
<trkpt lat="-27.2736515" lon="151.2898952">
  <ele>446.02</ele>
  <time>2026-09-01T19:54:30Z</time>
  <course>235.84</course>
  <speed>4.979327263797791</speed>
  <fix>3d</fix>
</trkpt>
<trkpt lat="-27.2736442" lon="151.2899074">
  <ele>446.17</ele>
  <time>2026-09-01T19:54:30Z</time>
  <course>234.91</course>
  <speed>5.0</speed>
  <fix>3d</fix>
</trkpt>
<trkpt lat="-27.2736541" lon="151.2898911">
  <ele>446.02</ele>
  <time>2026-09-01T19:54:30Z</time>
  <course>235.84</course>
  <speed>4.979327263797791</speed>
  <fix>3d</fix>
</trkpt>
<trkpt lat="-27.2736493" lon="151.2898991">
  <ele>446.17</ele>
  <time>2026-09-01T19:54:30Z</time>
  <course>234.92</course>
  <speed>5.01</speed>
  <fix>3d</fix>
</trkpt>
<trkpt lat="-27.2736567" lon="151.289887">
  <ele>446.02</ele>
  <time>2026-09-01T19:54:30Z</time>
  <course>235.84</course>
  <speed>4.979327263797791</speed>
  <fix>3d</fix>
</trkpt>
<trkpt lat="-27.2736493" lon="151.2898991">
  <ele>446.17</ele>
  <time>2026-09-01T19:54:30Z</time>
  <course>234.92</course>
  <speed>5.01</speed>
  <fix>3d</fix>
</trkpt>
<trkpt lat="-27.2736593" lon="151.2898828">
  <ele>446.02</ele>
  <time>2026-09-01T19:54:30Z</time>
  <course>235.85</course>
  <speed>4.979327263797791</speed>
  <fix>3d</fix>
</trkpt>
<trkpt lat="-27.2736546" lon="151.2898908">
  <ele>446.17</ele>
  <time>2026-09-01T19:54:30Z</time>
  <course>234.94</course>
  <speed>5.01</speed>
  <fix>3d</fix>
</trkpt>
<trkpt lat="-27.2736619" lon="151.2898787">
  <ele>446.02</ele>
  <time>2026-09-01T19:54:30Z</time>
  <course>235.86</course>
  <speed>4.979327263797791</speed>
  <fix>3d</fix>
</trkpt>
<trkpt lat="-27.2736546" lon="151.2898908">
  <ele>446.17</ele>
  <time>2026-09-01T19:54:30Z</time>
  <course>234.94</course>
  <speed>5.01</speed>
  <fix>3d</fix>
</trkpt>
<trkpt lat="-27.2736644" lon="151.2898745">
  <ele>446.02</ele>
  <time>2026-09-01T19:54:30Z</time>
  <course>235.87</course>
  <speed>4.979327263797791</speed>
  <fix>3d</fix>
</trkpt>
<trkpt lat="-27.2736597" lon="151.2898825">
  <ele>446.17</ele>
  <time>2026-09-01T19:54:30Z</time>
  <course>234.96</course>
  <speed>5.01</speed>
  <fix>3d</fix>
</trkpt>
<trkpt lat="-27.273667" lon="151.2898704">
  <ele>446.02</ele>
  <time>2026-09-01T19:54:30Z</time>
  <course>235.88</course>
  <speed>4.979327263797791</speed>
  <fix>3d</fix>
</trkpt>
<trkpt lat="-27.2736597" lon="151.2898825">
  <ele>446.17</ele>
  <time>2026-09-01T19:54:30Z</time>
  <course>234.96</course>
  <speed>5.01</speed>
  <fix>3d</fix>
</trkpt>
<trkpt lat="-27.2736696" lon="151.2898663">
  <ele>446.02</ele>
  <time>2026-09-01T19:54:30Z</time>
  <course>235.89</course>
  <speed>4.979327263797791</speed>
  <fix>3d</fix>
</trkpt>
<trkpt lat="-27.2736649" lon="151.2898742">
  <ele>446.17</ele>
  <time>2026-09-01T19:54:30Z</time>
  <course>234.97</course>
  <speed>5.01</speed>
  <fix>3d</fix>
</trkpt>
<trkpt lat="-27.2736722" lon="151.2898621">
  <ele>446.02</ele>
  <time>2026-09-01T19:54:30Z</time>
  <course>235.9</course>
  <speed>4.985037612696618</speed>
  <fix>3d</fix>
</trkpt>
<trkpt lat="-27.2736649" lon="151.2898742">
  <ele>446.17</ele>
  <time>2026-09-01T19:54:30Z</time>
  <course>234.97</course>
  <speed>5.01</speed>
  <fix>3d</fix>
</trkpt>
<trkpt lat="-27.2736747" lon="151.289858">
  <ele>446.02</ele>
  <time>2026-09-01T19:54:30Z</time>
  <course>235.9</course>
  <speed>4.993245437588663</speed>
  <fix>3d</fix>
</trkpt>
<trkpt lat="-27.27367" lon="151.2898659">
  <ele>446.17</ele>
  <time>2026-09-01T19:54:30Z</time>
  <course>234.97</course>
  <speed>5.02</speed>
  <fix>3d</fix>
</trkpt>
<trkpt lat="-27.2736773" lon="151.2898538">
  <ele>446.02</ele>
  <time>2026-09-01T19:54:30Z</time>
  <course>235.89</course>
  <speed>4.993245437588663</speed>
  <fix>3d</fix>
</trkpt>
<trkpt lat="-27.27367" lon="151.2898659">
  <ele>446.17</ele>
  <time>2026-09-01T19:54:30Z</time>
  <course>234.97</course>
  <speed>5.02</speed>
  <fix>3d</fix>
</trkpt>
<trkpt lat="-27.2736799" lon="151.2898497">
  <ele>446.02</ele>
  <time>2026-09-01T19:54:30Z</time>
  <course>235.89</course>
  <speed>4.993245437588663</speed>
  <fix>3d</fix>
</trkpt>
<trkpt lat="-27.2736753" lon="151.2898576">
  <ele>446.17</ele>
  <time>2026-09-01T19:54:30Z</time>
  <course>234.96</course>
  <speed>5.02</speed>
  <fix>3d</fix>
</trkpt>
<trkpt lat="-27.2736825" lon="151.2898455">
  <ele>446.02</ele>
  <time>2026-09-01T19:54:30Z</time>
  <course>235.89</course>
  <speed>4.993245437588663</speed>
  <fix>3d</fix>
</trkpt>
<trkpt lat="-27.2736753" lon="151.2898576">
  <ele>446.17</ele>
  <time>2026-09-01T19:54:30Z</time>
  <course>234.96</course>
  <speed>5.02</speed>
  <fix>3d</fix>
</trkpt>
<trkpt lat="-27.2736851" lon="151.2898414">
  <ele>446.02</ele>
  <time>2026-09-01T19:54:30Z</time>
  <course>235.88</course>
  <speed>4.993245437588663</speed>
  <fix>3d</fix>
</trkpt>
<trkpt lat="-27.2736804" lon="151.2898493">
  <ele>446.17</ele>
  <time>2026-09-01T19:54:30Z</time>
  <course>234.96</course>
  <speed>5.02</speed>
  <fix>3d</fix>
</trkpt>
<trkpt lat="-27.2736877" lon="151.2898372">
  <ele>446.02</ele>
  <time>2026-09-01T19:54:30Z</time>
  <course>235.88</course>
  <speed>4.993245437588663</speed>
  <fix>3d</fix>
</trkpt>
<trkpt lat="-27.2736804" lon="151.2898493">
  <ele>446.17</ele>
  <time>2026-09-01T19:54:30Z</time>
  <course>234.96</course>
  <speed>5.02</speed>
  <fix>3d</fix>
</trkpt>
<trkpt lat="-27.2736903" lon="151.2898331">
  <ele>446.03</ele>
  <time>2026-09-01T19:54:30Z</time>
  <course>235.88</course>
  <speed>4.993245437588663</speed>
  <fix>3d</fix>
</trkpt>
<trkpt lat="-27.2736856" lon="151.289841">
  <ele>446.16</ele>
  <time>2026-09-01T19:54:30Z</time>
  <course>234.96</course>
  <speed>5.02</speed>
  <fix>3d</fix>
</trkpt>
<trkpt lat="-27.2736929" lon="151.2898289">
  <ele>446.03</ele>
  <time>2026-09-01T19:54:30Z</time>
  <course>235.88</course>
  <speed>4.993245437588663</speed>
  <fix>3d</fix>
</trkpt>
<trkpt lat="-27.2736856" lon="151.289841">
  <ele>446.16</ele>
  <time>2026-09-01T19:54:30Z</time>
  <course>234.96</course>
  <speed>5.02</speed>
  <fix>3d</fix>
</trkpt>
<trkpt lat="-27.2736955" lon="151.2898247">
  <ele>446.02</ele>
  <time>2026-09-01T19:54:30Z</time>
  <course>235.88</course>
  <speed>4.993245437588663</speed>
  <fix>3d</fix>
</trkpt>
<trkpt lat="-27.2736908" lon="151.2898326">
  <ele>446.16</ele>
  <time>2026-09-01T19:54:30Z</time>
  <course>234.97</course>
  <speed>5.02</speed>
  <fix>3d</fix>
</trkpt>
<trkpt lat="-27.2736981" lon="151.2898205">
  <ele>446.02</ele>
  <time>2026-09-01T19:54:30Z</time>
  <course>235.89</course>
  <speed>4.993245437588663</speed>
  <fix>3d</fix>
</trkpt>
<trkpt lat="-27.2736908" lon="151.2898326">
  <ele>446.16</ele>
  <time>2026-09-01T19:54:30Z</time>
  <course>234.97</course>
  <speed>5.02</speed>
  <fix>3d</fix>
</trkpt>
<trkpt lat="-27.2737007" lon="151.2898164">
  <ele>446.02</ele>
  <time>2026-09-01T19:54:30Z</time>
  <course>235.89</course>
  <speed>4.993245437588663</speed>
  <fix>3d</fix>
</trkpt>
<trkpt lat="-27.273696" lon="151.2898243">
  <ele>446.16</ele>
  <time>2026-09-01T19:54:30Z</time>
  <course>234.98</course>
  <speed>5.02</speed>
  <fix>3d</fix>
</trkpt>
<trkpt lat="-27.2737033" lon="151.2898122">
  <ele>446.02</ele>
  <time>2026-09-01T19:54:30Z</time>
  <course>235.9</course>
  <speed>4.993245437588663</speed>
  <fix>3d</fix>
</trkpt>
<trkpt lat="-27.273696" lon="151.2898243">
  <ele>446.16</ele>
  <time>2026-09-01T19:54:30Z</time>
  <course>234.98</course>
  <speed>5.02</speed>
  <fix>3d</fix>
</trkpt>
<trkpt lat="-27.2737059" lon="151.289808">
  <ele>446.02</ele>
  <time>2026-09-01T19:54:30Z</time>
  <course>235.9</course>
  <speed>4.993245437588663</speed>
  <fix>3d</fix>
</trkpt>
<trkpt lat="-27.2737012" lon="151.289816">
  <ele>446.16</ele>
  <time>2026-09-01T19:54:30Z</time>
  <course>234.98</course>
  <speed>5.03</speed>
  <fix>3d</fix>
</trkpt>
<trkpt lat="-27.2737085" lon="151.2898039">
  <ele>446.02</ele>
  <time>2026-09-01T19:54:30Z</time>
  <course>235.9</course>
  <speed>5.00145978690222</speed>
  <fix>3d</fix>
</trkpt>
<trkpt lat="-27.2737012" lon="151.289816">
  <ele>446.16</ele>
  <time>2026-09-01T19:54:30Z</time>
  <course>234.98</course>
  <speed>5.03</speed>
  <fix>3d</fix>
</trkpt>
<trkpt lat="-27.2737111" lon="151.2897997">
  <ele>446.02</ele>
  <time>2026-09-01T19:54:30Z</time>
  <course>235.91</course>
  <speed>5.00145978690222</speed>
  <fix>3d</fix>
</trkpt>
<trkpt lat="-27.2737064" lon="151.2898076">
  <ele>446.16</ele>
  <time>2026-09-01T19:54:30Z</time>
  <course>234.98</course>
  <speed>5.03</speed>
  <fix>3d</fix>
</trkpt>
<trkpt lat="-27.2737137" lon="151.2897955">
  <ele>446.02</ele>
  <time>2026-09-01T19:54:30Z</time>
  <course>235.91</course>
  <speed>5.00145978690222</speed>
  <fix>3d</fix>
</trkpt>
<trkpt lat="-27.2737064" lon="151.2898076">
  <ele>446.16</ele>
  <time>2026-09-01T19:54:30Z</time>
  <course>234.98</course>
  <speed>5.03</speed>
  <fix>3d</fix>
</trkpt>
<trkpt lat="-27.2737163" lon="151.2897914">
  <ele>446.02</ele>
  <time>2026-09-01T19:54:30Z</time>
  <course>235.91</course>
  <speed>5.00145978690222</speed>
  <fix>3d</fix>
</trkpt>
<trkpt lat="-27.2737116" lon="151.2897993">
  <ele>446.16</ele>
  <time>2026-09-01T19:54:30Z</time>
  <course>234.99</course>
  <speed>5.03</speed>
  <fix>3d</fix>
</trkpt>
<trkpt lat="-27.2737189" lon="151.2897872">
  <ele>446.02</ele>
  <time>2026-09-01T19:54:30Z</time>
  <course>235.92</course>
  <speed>5.00145978690222</speed>
  <fix>3d</fix>
</trkpt>
<trkpt lat="-27.2737116" lon="151.2897993">
  <ele>446.16</ele>
  <time>2026-09-01T19:54:30Z</time>
  <course>234.99</course>
  <speed>5.03</speed>
  <fix>3d</fix>
</trkpt>
<trkpt lat="-27.2737214" lon="151.289783">
  <ele>446.01</ele>
  <time>2026-09-01T19:54:30Z</time>
  <course>235.92</course>
  <speed>5.00145978690222</speed>
  <fix>3d</fix>
</trkpt>
<trkpt lat="-27.2737167" lon="151.289791">
  <ele>446.15</ele>
  <time>2026-09-01T19:54:30Z</time>
  <course>235.01</course>
  <speed>5.03</speed>
  <fix>3d</fix>
</trkpt>
<trkpt lat="-27.273724" lon="151.2897789">
  <ele>446.01</ele>
  <time>2026-09-01T19:54:30Z</time>
  <course>235.93</course>
  <speed>5.00145978690222</speed>
  <fix>3d</fix>
</trkpt>
<trkpt lat="-27.2737167" lon="151.289791">
  <ele>446.15</ele>
  <time>2026-09-01T19:54:30Z</time>
  <course>235.01</course>
  <speed>5.03</speed>
  <fix>3d</fix>
</trkpt>
<trkpt lat="-27.2737266" lon="151.2897747">
  <ele>446.01</ele>
  <time>2026-09-01T19:54:30Z</time>
  <course>235.93</course>
  <speed>5.00145978690222</speed>
  <fix>3d</fix>
</trkpt>
<trkpt lat="-27.2737219" lon="151.2897827">
  <ele>446.15</ele>
  <time>2026-09-01T19:54:30Z</time>
  <course>235.03</course>
  <speed>5.03</speed>
  <fix>3d</fix>
</trkpt>
<trkpt lat="-27.2737292" lon="151.2897705">
  <ele>446.01</ele>
  <time>2026-09-01T19:54:30Z</time>
  <course>235.94</course>
  <speed>5.00145978690222</speed>
  <fix>3d</fix>
</trkpt>
<trkpt lat="-27.2737219" lon="151.2897827">
  <ele>446.15</ele>
  <time>2026-09-01T19:54:30Z</time>
  <course>235.03</course>
  <speed>5.03</speed>
  <fix>3d</fix>
</trkpt>
<trkpt lat="-27.2737318" lon="151.2897663">
  <ele>446.01</ele>
  <time>2026-09-01T19:54:30Z</time>
  <course>235.95</course>
  <speed>5.00145978690222</speed>
  <fix>3d</fix>
</trkpt>
<trkpt lat="-27.2737271" lon="151.2897744">
  <ele>446.15</ele>
  <time>2026-09-01T19:54:30Z</time>
  <course>235.05</course>
  <speed>5.02</speed>
  <fix>3d</fix>
</trkpt>
<trkpt lat="-27.2737344" lon="151.2897621">
  <ele>446.01</ele>
  <time>2026-09-01T19:54:30Z</time>
  <course>235.97</course>
  <speed>5.00145978690222</speed>
  <fix>3d</fix>
</trkpt>
<trkpt lat="-27.2737271" lon="151.2897744">
  <ele>446.15</ele>
  <time>2026-09-01T19:54:30Z</time>
  <course>235.05</course>
  <speed>5.02</speed>
  <fix>3d</fix>
</trkpt>
<trkpt lat="-27.273737" lon="151.289758">
  <ele>446.01</ele>
  <time>2026-09-01T19:54:30Z</time>
  <course>235.98</course>
  <speed>5.00145978690222</speed>
  <fix>3d</fix>
</trkpt>
<trkpt lat="-27.2737323" lon="151.289766">
  <ele>446.15</ele>
  <time>2026-09-01T19:54:30Z</time>
  <course>235.07</course>
  <speed>5.02</speed>
  <fix>3d</fix>
</trkpt>
<trkpt lat="-27.2737396" lon="151.2897538">
  <ele>446.0</ele>
  <time>2026-09-01T19:54:30Z</time>
  <course>235.99</course>
  <speed>5.00145978690222</speed>
  <fix>3d</fix>
</trkpt>
<trkpt lat="-27.2737323" lon="151.289766">
  <ele>446.15</ele>
  <time>2026-09-01T19:54:30Z</time>
  <course>235.07</course>
  <speed>5.02</speed>
  <fix>3d</fix>
</trkpt>
<trkpt lat="-27.2737422" lon="151.2897496">
  <ele>446.0</ele>
  <time>2026-09-01T19:54:30Z</time>
  <course>235.99</course>
  <speed>5.00145978690222</speed>
  <fix>3d</fix>
</trkpt>
<trkpt lat="-27.2737374" lon="151.2897577">
  <ele>446.15</ele>
  <time>2026-09-01T19:54:30Z</time>
  <course>235.07</course>
  <speed>5.02</speed>
  <fix>3d</fix>
</trkpt>
<trkpt lat="-27.2737448" lon="151.2897455">
  <ele>446.0</ele>
  <time>2026-09-01T19:54:30Z</time>
  <course>236.0</course>
  <speed>5.00145978690222</speed>
  <fix>3d</fix>
</trkpt>
<trkpt lat="-27.2737374" lon="151.2897577">
  <ele>446.15</ele>
  <time>2026-09-01T19:54:30Z</time>
  <course>235.07</course>
  <speed>5.02</speed>
  <fix>3d</fix>
</trkpt>
<trkpt lat="-27.2737474" lon="151.2897413">
  <ele>446.01</ele>
  <time>2026-09-01T19:54:30Z</time>
  <course>236.0</course>
  <speed>5.00145978690222</speed>
  <fix>3d</fix>
</trkpt>
<trkpt lat="-27.2737426" lon="151.2897493">
  <ele>446.15</ele>
  <time>2026-09-01T19:54:30Z</time>
  <course>235.07</course>
  <speed>5.02</speed>
  <fix>3d</fix>
</trkpt>
<trkpt lat="-27.27375" lon="151.2897371">
  <ele>446.01</ele>
  <time>2026-09-01T19:54:30Z</time>
  <course>236.0</course>
  <speed>5.00145978690222</speed>
  <fix>3d</fix>
</trkpt>
<trkpt lat="-27.2737426" lon="151.2897493">
  <ele>446.15</ele>
  <time>2026-09-01T19:54:30Z</time>
  <course>235.07</course>
  <speed>5.02</speed>
  <fix>3d</fix>
</trkpt>
<trkpt lat="-27.2737526" lon="151.289733">
  <ele>446.01</ele>
  <time>2026-09-01T19:54:30Z</time>
  <course>236.0</course>
  <speed>5.00145978690222</speed>
  <fix>3d</fix>
</trkpt>
<trkpt lat="-27.2737478" lon="151.289741">
  <ele>446.15</ele>
  <time>2026-09-01T19:54:30Z</time>
  <course>235.07</course>
  <speed>5.02</speed>
  <fix>3d</fix>
</trkpt>
<trkpt lat="-27.2737551" lon="151.2897288">
  <ele>446.01</ele>
  <time>2026-09-01T19:54:30Z</time>
  <course>235.99</course>
  <speed>5.00145978690222</speed>
  <fix>3d</fix>
</trkpt>
<trkpt lat="-27.2737478" lon="151.289741">
  <ele>446.15</ele>
  <time>2026-09-01T19:54:30Z</time>
  <course>235.07</course>
  <speed>5.02</speed>
  <fix>3d</fix>
</trkpt>
<trkpt lat="-27.2737577" lon="151.2897246">
  <ele>446.01</ele>
  <time>2026-09-01T19:54:30Z</time>
  <course>235.99</course>
  <speed>5.00145978690222</speed>
  <fix>3d</fix>
</trkpt>
<trkpt lat="-27.273753" lon="151.2897327">
  <ele>446.15</ele>
  <time>2026-09-01T19:54:30Z</time>
  <course>235.07</course>
  <speed>5.02</speed>
  <fix>3d</fix>
</trkpt>
<trkpt lat="-27.2737603" lon="151.2897204">
  <ele>446.01</ele>
  <time>2026-09-01T19:54:30Z</time>
  <course>235.99</course>
  <speed>5.00145978690222</speed>
  <fix>3d</fix>
</trkpt>
<trkpt lat="-27.273753" lon="151.2897327">
  <ele>446.15</ele>
  <time>2026-09-01T19:54:30Z</time>
  <course>235.07</course>
  <speed>5.02</speed>
  <fix>3d</fix>
</trkpt>
<trkpt lat="-27.2737629" lon="151.2897163">
  <ele>446.01</ele>
  <time>2026-09-01T19:54:30Z</time>
  <course>235.99</course>
  <speed>5.00145978690222</speed>
  <fix>3d</fix>
</trkpt>
<trkpt lat="-27.2737581" lon="151.2897243">
  <ele>446.15</ele>
  <time>2026-09-01T19:54:30Z</time>
  <course>235.06</course>
  <speed>5.02</speed>
  <fix>3d</fix>
</trkpt>
<trkpt lat="-27.2737655" lon="151.2897121">
  <ele>446.01</ele>
  <time>2026-09-01T19:54:30Z</time>
  <course>235.99</course>
  <speed>5.00145978690222</speed>
  <fix>3d</fix>
</trkpt>
<trkpt lat="-27.2737581" lon="151.2897243">
  <ele>446.15</ele>
  <time>2026-09-01T19:54:30Z</time>
  <course>235.06</course>
  <speed>5.02</speed>
  <fix>3d</fix>
</trkpt>
<trkpt lat="-27.2737681" lon="151.2897079">
  <ele>446.01</ele>
  <time>2026-09-01T19:54:30Z</time>
  <course>235.99</course>
  <speed>5.00145978690222</speed>
  <fix>3d</fix>
</trkpt>
<trkpt lat="-27.2737633" lon="151.289716">
  <ele>446.16</ele>
  <time>2026-09-01T19:54:30Z</time>
  <course>235.06</course>
  <speed>5.02</speed>
  <fix>3d</fix>
</trkpt>
<trkpt lat="-27.2737707" lon="151.2897037">
  <ele>446.01</ele>
  <time>2026-09-01T19:54:30Z</time>
  <course>235.99</course>
  <speed>4.995768209194658</speed>
  <fix>3d</fix>
</trkpt>
<trkpt lat="-27.2737633" lon="151.289716">
  <ele>446.16</ele>
  <time>2026-09-01T19:54:30Z</time>
  <course>235.06</course>
  <speed>5.02</speed>
  <fix>3d</fix>
</trkpt>
<trkpt lat="-27.2737733" lon="151.2896996">
  <ele>446.02</ele>
  <time>2026-09-01T19:54:30Z</time>
  <course>235.98</course>
  <speed>4.995768209194658</speed>
  <fix>3d</fix>
</trkpt>
<trkpt lat="-27.2737684" lon="151.2897077">
  <ele>446.16</ele>
  <time>2026-09-01T19:54:30Z</time>
  <course>235.06</course>
  <speed>5.02</speed>
  <fix>3d</fix>
</trkpt>
<trkpt lat="-27.2737758" lon="151.2896954">
  <ele>446.02</ele>
  <time>2026-09-01T19:54:30Z</time>
  <course>235.99</course>
  <speed>4.995768209194658</speed>
  <fix>3d</fix>
</trkpt>
<trkpt lat="-27.2737684" lon="151.2897077">
  <ele>446.16</ele>
  <time>2026-09-01T19:54:30Z</time>
  <course>235.06</course>
  <speed>5.02</speed>
  <fix>3d</fix>
</trkpt>
<trkpt lat="-27.2737784" lon="151.2896913">
  <ele>446.02</ele>
  <time>2026-09-01T19:54:30Z</time>
  <course>235.99</course>
  <speed>4.995768209194658</speed>
  <fix>3d</fix>
</trkpt>
<trkpt lat="-27.2737736" lon="151.2896994">
  <ele>446.16</ele>
  <time>2026-09-01T19:54:30Z</time>
  <course>235.07</course>
  <speed>5.02</speed>
  <fix>3d</fix>
</trkpt>
<trkpt lat="-27.273781" lon="151.2896871">
  <ele>446.02</ele>
  <time>2026-09-01T19:54:30Z</time>
  <course>236.0</course>
  <speed>4.995768209194658</speed>
  <fix>3d</fix>
</trkpt>
<trkpt lat="-27.2737736" lon="151.2896994">
  <ele>446.16</ele>
  <time>2026-09-01T19:54:30Z</time>
  <course>235.07</course>
  <speed>5.02</speed>
  <fix>3d</fix>
</trkpt>
<trkpt lat="-27.2737836" lon="151.2896829">
  <ele>446.02</ele>
  <time>2026-09-01T19:54:30Z</time>
  <course>236.0</course>
  <speed>4.995768209194658</speed>
  <fix>3d</fix>
</trkpt>
<trkpt lat="-27.2737788" lon="151.2896911">
  <ele>446.16</ele>
  <time>2026-09-01T19:54:30Z</time>
  <course>235.08</course>
  <speed>5.01</speed>
  <fix>3d</fix>
</trkpt>
<trkpt lat="-27.2737862" lon="151.2896787">
  <ele>446.02</ele>
  <time>2026-09-01T19:54:30Z</time>
  <course>236.01</course>
  <speed>4.995768209194658</speed>
  <fix>3d</fix>
</trkpt>
<trkpt lat="-27.2737788" lon="151.2896911">
  <ele>446.16</ele>
  <time>2026-09-01T19:54:30Z</time>
  <course>235.08</course>
  <speed>5.01</speed>
  <fix>3d</fix>
</trkpt>
<trkpt lat="-27.2737888" lon="151.2896746">
  <ele>446.02</ele>
  <time>2026-09-01T19:54:30Z</time>
  <course>236.02</course>
  <speed>4.995768209194658</speed>
  <fix>3d</fix>
</trkpt>
<trkpt lat="-27.2737839" lon="151.2896827">
  <ele>446.16</ele>
  <time>2026-09-01T19:54:30Z</time>
  <course>235.08</course>
  <speed>5.01</speed>
  <fix>3d</fix>
</trkpt>
<trkpt lat="-27.2737914" lon="151.2896704">
  <ele>446.02</ele>
  <time>2026-09-01T19:54:30Z</time>
  <course>236.02</course>
  <speed>4.995768209194658</speed>
  <fix>3d</fix>
</trkpt>
<trkpt lat="-27.2737839" lon="151.2896827">
  <ele>446.16</ele>
  <time>2026-09-01T19:54:30Z</time>
  <course>235.08</course>
  <speed>5.01</speed>
  <fix>3d</fix>
</trkpt>
<trkpt lat="-27.2737939" lon="151.2896662">
  <ele>446.02</ele>
  <time>2026-09-01T19:54:30Z</time>
  <course>236.03</course>
  <speed>4.995768209194658</speed>
  <fix>3d</fix>
</trkpt>
<trkpt lat="-27.2737891" lon="151.2896744">
  <ele>446.16</ele>
  <time>2026-09-01T19:54:30Z</time>
  <course>235.07</course>
  <speed>5.01</speed>
  <fix>3d</fix>
</trkpt>
<trkpt lat="-27.2737965" lon="151.2896621">
  <ele>446.02</ele>
  <time>2026-09-01T19:54:30Z</time>
  <course>236.03</course>
  <speed>4.995768209194658</speed>
  <fix>3d</fix>
</trkpt>
<trkpt lat="-27.2737891" lon="151.2896744">
  <ele>446.16</ele>
  <time>2026-09-01T19:54:30Z</time>
  <course>235.07</course>
  <speed>5.01</speed>
  <fix>3d</fix>
</trkpt>
<trkpt lat="-27.2737991" lon="151.2896579">
  <ele>446.03</ele>
  <time>2026-09-01T19:54:30Z</time>
  <course>236.03</course>
  <speed>4.995768209194658</speed>
  <fix>3d</fix>
</trkpt>
<trkpt lat="-27.2737943" lon="151.2896661">
  <ele>446.16</ele>
  <time>2026-09-01T19:54:30Z</time>
  <course>235.08</course>
  <speed>5.01</speed>
  <fix>3d</fix>
</trkpt>
<trkpt lat="-27.2738017" lon="151.2896537">
  <ele>446.03</ele>
  <time>2026-09-01T19:54:30Z</time>
  <course>236.02</course>
  <speed>4.995768209194658</speed>
  <fix>3d</fix>
</trkpt>
<trkpt lat="-27.2737943" lon="151.2896661">
  <ele>446.16</ele>
  <time>2026-09-01T19:54:30Z</time>
  <course>235.08</course>
  <speed>5.01</speed>
  <fix>3d</fix>
</trkpt>
<trkpt lat="-27.2738043" lon="151.2896496">
  <ele>446.03</ele>
  <time>2026-09-01T19:54:30Z</time>
  <course>236.02</course>
  <speed>4.995768209194658</speed>
  <fix>3d</fix>
</trkpt>
<trkpt lat="-27.2737994" lon="151.2896578">
  <ele>446.15</ele>
  <time>2026-09-01T19:54:30Z</time>
  <course>235.08</course>
  <speed>5.01</speed>
  <fix>3d</fix>
</trkpt>
<trkpt lat="-27.2738069" lon="151.2896454">
  <ele>446.03</ele>
  <time>2026-09-01T19:54:30Z</time>
  <course>236.02</course>
  <speed>4.995768209194658</speed>
  <fix>3d</fix>
</trkpt>
<trkpt lat="-27.2737994" lon="151.2896578">
  <ele>446.15</ele>
  <time>2026-09-01T19:54:30Z</time>
  <course>235.08</course>
  <speed>5.01</speed>
  <fix>3d</fix>
</trkpt>
<trkpt lat="-27.2738094" lon="151.2896413">
  <ele>446.03</ele>
  <time>2026-09-01T19:54:30Z</time>
  <course>236.02</course>
  <speed>4.995768209194658</speed>
  <fix>3d</fix>
</trkpt>
<trkpt lat="-27.2738046" lon="151.2896495">
  <ele>446.15</ele>
  <time>2026-09-01T19:54:30Z</time>
  <course>235.09</course>
  <speed>5.01</speed>
  <fix>3d</fix>
</trkpt>
<trkpt lat="-27.273812" lon="151.2896371">
  <ele>446.04</ele>
  <time>2026-09-01T19:54:30Z</time>
  <course>236.03</course>
  <speed>4.995768209194658</speed>
  <fix>3d</fix>
</trkpt>
<trkpt lat="-27.2738046" lon="151.2896495">
  <ele>446.15</ele>
  <time>2026-09-01T19:54:30Z</time>
  <course>235.09</course>
  <speed>5.01</speed>
  <fix>3d</fix>
</trkpt>
<trkpt lat="-27.2738145" lon="151.289633">
  <ele>446.04</ele>
  <time>2026-09-01T19:54:30Z</time>
  <course>236.03</course>
  <speed>4.995768209194658</speed>
  <fix>3d</fix>
</trkpt>
<trkpt lat="-27.2738097" lon="151.2896412">
  <ele>446.15</ele>
  <time>2026-09-01T19:54:30Z</time>
  <course>235.09</course>
  <speed>5.01</speed>
  <fix>3d</fix>
</trkpt>
<trkpt lat="-27.2738171" lon="151.2896289">
  <ele>446.04</ele>
  <time>2026-09-01T19:54:30Z</time>
  <course>236.03</course>
  <speed>4.987544486017142</speed>
  <fix>3d</fix>
</trkpt>
<trkpt lat="-27.2738097" lon="151.2896412">
  <ele>446.15</ele>
  <time>2026-09-01T19:54:30Z</time>
  <course>235.09</course>
  <speed>5.01</speed>
  <fix>3d</fix>
</trkpt>
<trkpt lat="-27.2738197" lon="151.2896247">
  <ele>446.04</ele>
  <time>2026-09-01T19:54:30Z</time>
  <course>236.03</course>
  <speed>4.987544486017142</speed>
  <fix>3d</fix>
</trkpt>
<trkpt lat="-27.2738149" lon="151.2896329">
  <ele>446.14</ele>
  <time>2026-09-01T19:54:30Z</time>
  <course>235.09</course>
  <speed>5.01</speed>
  <fix>3d</fix>
</trkpt>
<trkpt lat="-27.2738222" lon="151.2896206">
  <ele>446.04</ele>
  <time>2026-09-01T19:54:30Z</time>
  <course>236.03</course>
  <speed>4.987544486017142</speed>
  <fix>3d</fix>
</trkpt>
<trkpt lat="-27.2738149" lon="151.2896329">
  <ele>446.14</ele>
  <time>2026-09-01T19:54:30Z</time>
  <course>235.09</course>
  <speed>5.01</speed>
  <fix>3d</fix>
</trkpt>
<trkpt lat="-27.2738248" lon="151.2896165">
  <ele>446.03</ele>
  <time>2026-09-01T19:54:30Z</time>
  <course>236.02</course>
  <speed>4.981857083457935</speed>
  <fix>3d</fix>
</trkpt>
<trkpt lat="-27.27382" lon="151.2896246">
  <ele>446.14</ele>
  <time>2026-09-01T19:54:30Z</time>
  <course>235.08</course>
  <speed>5.01</speed>
  <fix>3d</fix>
</trkpt>
<trkpt lat="-27.2738273" lon="151.2896124">
  <ele>446.03</ele>
  <time>2026-09-01T19:54:30Z</time>
  <course>236.02</course>
  <speed>4.981857083457935</speed>
  <fix>3d</fix>
</trkpt>
<trkpt lat="-27.27382" lon="151.2896246">
  <ele>446.14</ele>
  <time>2026-09-01T19:54:30Z</time>
  <course>235.08</course>
  <speed>5.01</speed>
  <fix>3d</fix>
</trkpt>
<trkpt lat="-27.2738299" lon="151.2896082">
  <ele>446.03</ele>
  <time>2026-09-01T19:54:30Z</time>
  <course>236.02</course>
  <speed>4.981857083457935</speed>
  <fix>3d</fix>
</trkpt>
<trkpt lat="-27.2738252" lon="151.2896163">
  <ele>446.13</ele>
  <time>2026-09-01T19:54:30Z</time>
  <course>235.07</course>
  <speed>5.01</speed>
  <fix>3d</fix>
</trkpt>
<trkpt lat="-27.2738325" lon="151.2896041">
  <ele>446.02</ele>
  <time>2026-09-01T19:54:30Z</time>
  <course>236.02</course>
  <speed>4.981857083457935</speed>
  <fix>3d</fix>
</trkpt>
<trkpt lat="-27.2738252" lon="151.2896163">
  <ele>446.13</ele>
  <time>2026-09-01T19:54:30Z</time>
  <course>235.07</course>
  <speed>5.01</speed>
  <fix>3d</fix>
</trkpt>
<trkpt lat="-27.273835" lon="151.2896">
  <ele>446.02</ele>
  <time>2026-09-01T19:54:30Z</time>
  <course>236.02</course>
  <speed>4.981857083457935</speed>
  <fix>3d</fix>
</trkpt>
<trkpt lat="-27.2738303" lon="151.2896079">
  <ele>446.13</ele>
  <time>2026-09-01T19:54:30Z</time>
  <course>235.07</course>
  <speed>5.01</speed>
  <fix>3d</fix>
</trkpt>
<trkpt lat="-27.2738376" lon="151.2895958">
  <ele>446.02</ele>
  <time>2026-09-01T19:54:30Z</time>
  <course>236.02</course>
  <speed>4.981857083457935</speed>
  <fix>3d</fix>
</trkpt>
<trkpt lat="-27.2738303" lon="151.2896079">
  <ele>446.13</ele>
  <time>2026-09-01T19:54:30Z</time>
  <course>235.07</course>
  <speed>5.01</speed>
  <fix>3d</fix>
</trkpt>
<trkpt lat="-27.2738402" lon="151.2895917">
  <ele>446.01</ele>
  <time>2026-09-01T19:54:30Z</time>
  <course>236.02</course>
  <speed>4.981857083457935</speed>
  <fix>3d</fix>
</trkpt>
<trkpt lat="-27.2738354" lon="151.2895996">
  <ele>446.12</ele>
  <time>2026-09-01T19:54:30Z</time>
  <course>235.08</course>
  <speed>5.01</speed>
  <fix>3d</fix>
</trkpt>
<trkpt lat="-27.2738427" lon="151.2895875">
  <ele>446.01</ele>
  <time>2026-09-01T19:54:30Z</time>
  <course>236.02</course>
  <speed>4.981857083457935</speed>
  <fix>3d</fix>
</trkpt>
<trkpt lat="-27.2738354" lon="151.2895996">
  <ele>446.12</ele>
  <time>2026-09-01T19:54:30Z</time>
  <course>235.08</course>
  <speed>5.01</speed>
  <fix>3d</fix>
</trkpt>
<trkpt lat="-27.2738453" lon="151.2895834">
  <ele>446.0</ele>
  <time>2026-09-01T19:54:30Z</time>
  <course>236.03</course>
  <speed>4.981857083457935</speed>
  <fix>3d</fix>
</trkpt>
<trkpt lat="-27.2738406" lon="151.2895913">
  <ele>446.12</ele>
  <time>2026-09-01T19:54:30Z</time>
  <course>235.08</course>
  <speed>5.01</speed>
  <fix>3d</fix>
</trkpt>
<trkpt lat="-27.2738479" lon="151.2895792">
  <ele>446.0</ele>
  <time>2026-09-01T19:54:30Z</time>
  <course>236.03</course>
  <speed>4.981857083457935</speed>
  <fix>3d</fix>
</trkpt>
<trkpt lat="-27.2738406" lon="151.2895913">
  <ele>446.12</ele>
  <time>2026-09-01T19:54:30Z</time>
  <course>235.08</course>
  <speed>5.01</speed>
  <fix>3d</fix>
</trkpt>
<trkpt lat="-27.2738505" lon="151.2895751">
  <ele>446.0</ele>
  <time>2026-09-01T19:54:30Z</time>
  <course>236.03</course>
  <speed>4.981857083457935</speed>
  <fix>3d</fix>
</trkpt>
<trkpt lat="-27.2738457" lon="151.289583">
  <ele>446.11</ele>
  <time>2026-09-01T19:54:30Z</time>
  <course>235.09</course>
  <speed>5.01</speed>
  <fix>3d</fix>
</trkpt>
<trkpt lat="-27.273853" lon="151.2895709">
  <ele>446.0</ele>
  <time>2026-09-01T19:54:30Z</time>
  <course>236.04</course>
  <speed>4.981857083457935</speed>
  <fix>3d</fix>
</trkpt>
<trkpt lat="-27.2738457" lon="151.289583">
  <ele>446.11</ele>
  <time>2026-09-01T19:54:30Z</time>
  <course>235.09</course>
  <speed>5.01</speed>
  <fix>3d</fix>
</trkpt>
<trkpt lat="-27.2738556" lon="151.2895667">
  <ele>446.0</ele>
  <time>2026-09-01T19:54:30Z</time>
  <course>236.05</course>
  <speed>4.981857083457935</speed>
  <fix>3d</fix>
</trkpt>
<trkpt lat="-27.273851" lon="151.2895747">
  <ele>446.11</ele>
  <time>2026-09-01T19:54:30Z</time>
  <course>235.09</course>
  <speed>5.01</speed>
  <fix>3d</fix>
</trkpt>
<trkpt lat="-27.2738582" lon="151.2895626">
  <ele>446.0</ele>
  <time>2026-09-01T19:54:30Z</time>
  <course>236.05</course>
  <speed>4.990090179545857</speed>
  <fix>3d</fix>
</trkpt>
<trkpt lat="-27.273851" lon="151.2895747">
  <ele>446.11</ele>
  <time>2026-09-01T19:54:30Z</time>
  <course>235.09</course>
  <speed>5.01</speed>
  <fix>3d</fix>
</trkpt>
<trkpt lat="-27.2738608" lon="151.2895584">
  <ele>446.0</ele>
  <time>2026-09-01T19:54:30Z</time>
  <course>236.05</course>
  <speed>4.995768209194658</speed>
  <fix>3d</fix>
</trkpt>
<trkpt lat="-27.2738561" lon="151.2895664">
  <ele>446.11</ele>
  <time>2026-09-01T19:54:30Z</time>
  <course>235.09</course>
  <speed>5.01</speed>
  <fix>3d</fix>
</trkpt>
<trkpt lat="-27.2738634" lon="151.2895542">
  <ele>446.0</ele>
  <time>2026-09-01T19:54:30Z</time>
  <course>236.05</course>
  <speed>4.995768209194658</speed>
  <fix>3d</fix>
</trkpt>
<trkpt lat="-27.2738561" lon="151.2895664">
  <ele>446.11</ele>
  <time>2026-09-01T19:54:30Z</time>
  <course>235.09</course>
  <speed>5.01</speed>
  <fix>3d</fix>
</trkpt>
<trkpt lat="-27.273866" lon="151.2895501">
  <ele>446.0</ele>
  <time>2026-09-01T19:54:30Z</time>
  <course>236.04</course>
  <speed>4.995768209194658</speed>
  <fix>3d</fix>
</trkpt>
<trkpt lat="-27.2738613" lon="151.2895581">
  <ele>446.11</ele>
  <time>2026-09-01T19:54:30Z</time>
  <course>235.08</course>
  <speed>5.02</speed>
  <fix>3d</fix>
</trkpt>
<trkpt lat="-27.2738685" lon="151.2895459">
  <ele>446.0</ele>
  <time>2026-09-01T19:54:30Z</time>
  <course>236.04</course>
  <speed>4.995768209194658</speed>
  <fix>3d</fix>
</trkpt>
<trkpt lat="-27.2738613" lon="151.2895581">
  <ele>446.11</ele>
  <time>2026-09-01T19:54:30Z</time>
  <course>235.08</course>
  <speed>5.02</speed>
  <fix>3d</fix>
</trkpt>
<trkpt lat="-27.2738711" lon="151.2895417">
  <ele>446.0</ele>
  <time>2026-09-01T19:54:30Z</time>
  <course>236.03</course>
  <speed>4.995768209194658</speed>
  <fix>3d</fix>
</trkpt>
<trkpt lat="-27.2738664" lon="151.2895497">
  <ele>446.11</ele>
  <time>2026-09-01T19:54:30Z</time>
  <course>235.07</course>
  <speed>5.02</speed>
  <fix>3d</fix>
</trkpt>
<trkpt lat="-27.2738737" lon="151.2895376">
  <ele>446.0</ele>
  <time>2026-09-01T19:54:30Z</time>
  <course>236.03</course>
  <speed>4.995768209194658</speed>
  <fix>3d</fix>
</trkpt>
<trkpt lat="-27.2738664" lon="151.2895497">
  <ele>446.11</ele>
  <time>2026-09-01T19:54:30Z</time>
  <course>235.07</course>
  <speed>5.02</speed>
  <fix>3d</fix>
</trkpt>
<trkpt lat="-27.2738763" lon="151.2895334">
  <ele>446.0</ele>
  <time>2026-09-01T19:54:30Z</time>
  <course>236.03</course>
  <speed>4.995768209194658</speed>
  <fix>3d</fix>
</trkpt>
<trkpt lat="-27.2738716" lon="151.2895414">
  <ele>446.11</ele>
  <time>2026-09-01T19:54:30Z</time>
  <course>235.07</course>
  <speed>5.02</speed>
  <fix>3d</fix>
</trkpt>
<trkpt lat="-27.2738789" lon="151.2895292">
  <ele>446.0</ele>
  <time>2026-09-01T19:54:30Z</time>
  <course>236.02</course>
  <speed>4.995768209194658</speed>
  <fix>3d</fix>
</trkpt>
<trkpt lat="-27.2738716" lon="151.2895414">
  <ele>446.11</ele>
  <time>2026-09-01T19:54:30Z</time>
  <course>235.07</course>
  <speed>5.02</speed>
  <fix>3d</fix>
</trkpt>
<trkpt lat="-27.2738815" lon="151.2895251">
  <ele>446.0</ele>
  <time>2026-09-01T19:54:30Z</time>
  <course>236.02</course>
  <speed>4.995768209194658</speed>
  <fix>3d</fix>
</trkpt>
<trkpt lat="-27.2738767" lon="151.2895331">
  <ele>446.12</ele>
  <time>2026-09-01T19:54:30Z</time>
  <course>235.06</course>
  <speed>5.02</speed>
  <fix>3d</fix>
</trkpt>
<trkpt lat="-27.2738841" lon="151.2895209">
  <ele>446.0</ele>
  <time>2026-09-01T19:54:30Z</time>
  <course>236.01</course>
  <speed>4.995768209194658</speed>
  <fix>3d</fix>
</trkpt>
<trkpt lat="-27.2738767" lon="151.2895331">
  <ele>446.12</ele>
  <time>2026-09-01T19:54:30Z</time>
  <course>235.06</course>
  <speed>5.02</speed>
  <fix>3d</fix>
</trkpt>
<trkpt lat="-27.2738866" lon="151.2895167">
  <ele>446.0</ele>
  <time>2026-09-01T19:54:30Z</time>
  <course>236.01</course>
  <speed>4.995768209194658</speed>
  <fix>3d</fix>
</trkpt>
<trkpt lat="-27.2738819" lon="151.2895248">
  <ele>446.12</ele>
  <time>2026-09-01T19:54:30Z</time>
  <course>235.06</course>
  <speed>5.02</speed>
  <fix>3d</fix>
</trkpt>
<trkpt lat="-27.2738892" lon="151.2895126">
  <ele>446.0</ele>
  <time>2026-09-01T19:54:30Z</time>
  <course>236.02</course>
  <speed>4.995768209194658</speed>
  <fix>3d</fix>
</trkpt>
<trkpt lat="-27.2738819" lon="151.2895248">
  <ele>446.12</ele>
  <time>2026-09-01T19:54:30Z</time>
  <course>235.06</course>
  <speed>5.02</speed>
  <fix>3d</fix>
</trkpt>
<trkpt lat="-27.2738918" lon="151.2895084">
  <ele>446.0</ele>
  <time>2026-09-01T19:54:30Z</time>
  <course>236.02</course>
  <speed>4.995768209194658</speed>
  <fix>3d</fix>
</trkpt>
<trkpt lat="-27.273887" lon="151.2895165">
  <ele>446.12</ele>
  <time>2026-09-01T19:54:30Z</time>
  <course>235.06</course>
  <speed>5.02</speed>
  <fix>3d</fix>
</trkpt>
<trkpt lat="-27.2738944" lon="151.2895043">
  <ele>446.0</ele>
  <time>2026-09-01T19:54:30Z</time>
  <course>236.02</course>
  <speed>4.995768209194658</speed>
  <fix>3d</fix>
</trkpt>
<trkpt lat="-27.273887" lon="151.2895165">
  <ele>446.12</ele>
  <time>2026-09-01T19:54:30Z</time>
  <course>235.06</course>
  <speed>5.02</speed>
  <fix>3d</fix>
</trkpt>
<trkpt lat="-27.273897" lon="151.2895001">
  <ele>446.0</ele>
  <time>2026-09-01T19:54:30Z</time>
  <course>236.03</course>
  <speed>4.995768209194658</speed>
  <fix>3d</fix>
</trkpt>
<trkpt lat="-27.2738923" lon="151.2895081">
  <ele>446.12</ele>
  <time>2026-09-01T19:54:30Z</time>
  <course>235.06</course>
  <speed>5.02</speed>
  <fix>3d</fix>
</trkpt>
<trkpt lat="-27.2738995" lon="151.2894959">
  <ele>446.0</ele>
  <time>2026-09-01T19:54:30Z</time>
  <course>236.03</course>
  <speed>4.995768209194658</speed>
  <fix>3d</fix>
</trkpt>
<trkpt lat="-27.2738923" lon="151.2895081">
  <ele>446.12</ele>
  <time>2026-09-01T19:54:30Z</time>
  <course>235.06</course>
  <speed>5.02</speed>
  <fix>3d</fix>
</trkpt>
<trkpt lat="-27.2739021" lon="151.2894918">
  <ele>446.0</ele>
  <time>2026-09-01T19:54:30Z</time>
  <course>236.04</course>
  <speed>4.995768209194658</speed>
  <fix>3d</fix>
</trkpt>
<trkpt lat="-27.2738974" lon="151.2894998">
  <ele>446.12</ele>
  <time>2026-09-01T19:54:30Z</time>
  <course>235.07</course>
  <speed>5.02</speed>
  <fix>3d</fix>
</trkpt>
<trkpt lat="-27.2739047" lon="151.2894876">
  <ele>446.0</ele>
  <time>2026-09-01T19:54:30Z</time>
  <course>236.04</course>
  <speed>4.995768209194658</speed>
  <fix>3d</fix>
</trkpt>
<trkpt lat="-27.2738974" lon="151.2894998">
  <ele>446.12</ele>
  <time>2026-09-01T19:54:30Z</time>
  <course>235.07</course>
  <speed>5.02</speed>
  <fix>3d</fix>
</trkpt>
<trkpt lat="-27.2739073" lon="151.2894834">
  <ele>446.0</ele>
  <time>2026-09-01T19:54:30Z</time>
  <course>236.05</course>
  <speed>4.995768209194658</speed>
  <fix>3d</fix>
</trkpt>
<trkpt lat="-27.2739026" lon="151.2894915">
  <ele>446.13</ele>
  <time>2026-09-01T19:54:30Z</time>
  <course>235.08</course>
  <speed>5.02</speed>
  <fix>3d</fix>
</trkpt>
<trkpt lat="-27.2739099" lon="151.2894792">
  <ele>446.0</ele>
  <time>2026-09-01T19:54:30Z</time>
  <course>236.06</course>
  <speed>4.995768209194658</speed>
  <fix>3d</fix>
</trkpt>
<trkpt lat="-27.2739026" lon="151.2894915">
  <ele>446.13</ele>
  <time>2026-09-01T19:54:30Z</time>
  <course>235.08</course>
  <speed>5.02</speed>
  <fix>3d</fix>
</trkpt>
<trkpt lat="-27.2739125" lon="151.289475">
  <ele>446.0</ele>
  <time>2026-09-01T19:54:30Z</time>
  <course>236.06</course>
  <speed>4.995768209194658</speed>
  <fix>3d</fix>
</trkpt>
<trkpt lat="-27.2739077" lon="151.2894832">
  <ele>446.13</ele>
  <time>2026-09-01T19:54:30Z</time>
  <course>235.09</course>
  <speed>5.02</speed>
  <fix>3d</fix>
</trkpt>
<trkpt lat="-27.2739151" lon="151.2894709">
  <ele>446.0</ele>
  <time>2026-09-01T19:54:30Z</time>
  <course>236.06</course>
  <speed>4.995768209194658</speed>
  <fix>3d</fix>
</trkpt>
<trkpt lat="-27.2739077" lon="151.2894832">
  <ele>446.13</ele>
  <time>2026-09-01T19:54:30Z</time>
  <course>235.09</course>
  <speed>5.02</speed>
  <fix>3d</fix>
</trkpt>
<trkpt lat="-27.2739177" lon="151.2894667">
  <ele>446.0</ele>
  <time>2026-09-01T19:54:30Z</time>
  <course>236.06</course>
  <speed>4.995768209194658</speed>
  <fix>3d</fix>
</trkpt>
<trkpt lat="-27.2739129" lon="151.2894748">
  <ele>446.13</ele>
  <time>2026-09-01T19:54:30Z</time>
  <course>235.1</course>
  <speed>5.02</speed>
  <fix>3d</fix>
</trkpt>
<trkpt lat="-27.2739202" lon="151.2894626">
  <ele>446.0</ele>
  <time>2026-09-01T19:54:30Z</time>
  <course>236.05</course>
  <speed>4.995768209194658</speed>
  <fix>3d</fix>
</trkpt>
<trkpt lat="-27.2739129" lon="151.2894748">
  <ele>446.13</ele>
  <time>2026-09-01T19:54:30Z</time>
  <course>235.1</course>
  <speed>5.02</speed>
  <fix>3d</fix>
</trkpt>
<trkpt lat="-27.2739228" lon="151.2894584">
  <ele>446.0</ele>
  <time>2026-09-01T19:54:30Z</time>
  <course>236.05</course>
  <speed>4.995768209194658</speed>
  <fix>3d</fix>
</trkpt>
<trkpt lat="-27.273918" lon="151.2894665">
  <ele>446.13</ele>
  <time>2026-09-01T19:54:30Z</time>
  <course>235.11</course>
  <speed>5.02</speed>
  <fix>3d</fix>
</trkpt>
<trkpt lat="-27.2739254" lon="151.2894542">
  <ele>446.0</ele>
  <time>2026-09-01T19:54:30Z</time>
  <course>236.05</course>
  <speed>4.995768209194658</speed>
  <fix>3d</fix>
</trkpt>
<trkpt lat="-27.273918" lon="151.2894665">
  <ele>446.13</ele>
  <time>2026-09-01T19:54:30Z</time>
  <course>235.11</course>
  <speed>5.02</speed>
  <fix>3d</fix>
</trkpt>
<trkpt lat="-27.273928" lon="151.2894501">
  <ele>446.0</ele>
  <time>2026-09-01T19:54:30Z</time>
  <course>236.05</course>
  <speed>4.995768209194658</speed>
  <fix>3d</fix>
</trkpt>
<trkpt lat="-27.2739233" lon="151.2894582">
  <ele>446.14</ele>
  <time>2026-09-01T19:54:30Z</time>
  <course>235.1</course>
  <speed>5.01</speed>
  <fix>3d</fix>
</trkpt>
<trkpt lat="-27.2739306" lon="151.2894459">
  <ele>446.0</ele>
  <time>2026-09-01T19:54:30Z</time>
  <course>236.05</course>
  <speed>4.995768209194658</speed>
  <fix>3d</fix>
</trkpt>
<trkpt lat="-27.2739233" lon="151.2894582">
  <ele>446.14</ele>
  <time>2026-09-01T19:54:30Z</time>
  <course>235.1</course>
  <speed>5.01</speed>
  <fix>3d</fix>
</trkpt>
<trkpt lat="-27.2739331" lon="151.2894417">
  <ele>446.0</ele>
  <time>2026-09-01T19:54:30Z</time>
  <course>236.05</course>
  <speed>4.995768209194658</speed>
  <fix>3d</fix>
</trkpt>
<trkpt lat="-27.2739284" lon="151.2894499">
  <ele>446.14</ele>
  <time>2026-09-01T19:54:30Z</time>
  <course>235.1</course>
  <speed>5.01</speed>
  <fix>3d</fix>
</trkpt>
<trkpt lat="-27.2739357" lon="151.2894376">
  <ele>446.0</ele>
  <time>2026-09-01T19:54:30Z</time>
  <course>236.04</course>
  <speed>4.995768209194658</speed>
  <fix>3d</fix>
</trkpt>
<trkpt lat="-27.2739284" lon="151.2894499">
  <ele>446.14</ele>
  <time>2026-09-01T19:54:30Z</time>
  <course>235.1</course>
  <speed>5.01</speed>
  <fix>3d</fix>
</trkpt>
<trkpt lat="-27.2739383" lon="151.2894334">
  <ele>446.0</ele>
  <time>2026-09-01T19:54:30Z</time>
  <course>236.04</course>
  <speed>4.995768209194658</speed>
  <fix>3d</fix>
</trkpt>
<trkpt lat="-27.2739336" lon="151.2894416">
  <ele>446.14</ele>
  <time>2026-09-01T19:54:30Z</time>
  <course>235.1</course>
  <speed>5.01</speed>
  <fix>3d</fix>
</trkpt>
<trkpt lat="-27.2739409" lon="151.2894293">
  <ele>446.0</ele>
  <time>2026-09-01T19:54:30Z</time>
  <course>236.03</course>
  <speed>4.995768209194658</speed>
  <fix>3d</fix>
</trkpt>
<trkpt lat="-27.2739336" lon="151.2894416">
  <ele>446.14</ele>
  <time>2026-09-01T19:54:30Z</time>
  <course>235.1</course>
  <speed>5.01</speed>
  <fix>3d</fix>
</trkpt>
<trkpt lat="-27.2739435" lon="151.2894251">
  <ele>446.0</ele>
  <time>2026-09-01T19:54:30Z</time>
  <course>236.03</course>
  <speed>4.995768209194658</speed>
  <fix>3d</fix>
</trkpt>
<trkpt lat="-27.2739387" lon="151.2894332">
  <ele>446.15</ele>
  <time>2026-09-01T19:54:30Z</time>
  <course>235.1</course>
  <speed>5.01</speed>
  <fix>3d</fix>
</trkpt>
<trkpt lat="-27.273946" lon="151.289421">
  <ele>446.01</ele>
  <time>2026-09-01T19:54:30Z</time>
  <course>236.03</course>
  <speed>4.995768209194658</speed>
  <fix>3d</fix>
</trkpt>
<trkpt lat="-27.2739387" lon="151.2894332">
  <ele>446.15</ele>
  <time>2026-09-01T19:54:30Z</time>
  <course>235.1</course>
  <speed>5.01</speed>
  <fix>3d</fix>
</trkpt>
<trkpt lat="-27.2739486" lon="151.2894168">
  <ele>446.01</ele>
  <time>2026-09-01T19:54:30Z</time>
  <course>236.04</course>
  <speed>4.995768209194658</speed>
  <fix>3d</fix>
</trkpt>
<trkpt lat="-27.2739439" lon="151.2894249">
  <ele>446.15</ele>
  <time>2026-09-01T19:54:30Z</time>
  <course>235.1</course>
  <speed>5.01</speed>
  <fix>3d</fix>
</trkpt>
<trkpt lat="-27.2739512" lon="151.2894127">
  <ele>446.01</ele>
  <time>2026-09-01T19:54:30Z</time>
  <course>236.04</course>
  <speed>4.995768209194658</speed>
  <fix>3d</fix>
</trkpt>
<trkpt lat="-27.2739439" lon="151.2894249">
  <ele>446.15</ele>
  <time>2026-09-01T19:54:30Z</time>
  <course>235.1</course>
  <speed>5.01</speed>
  <fix>3d</fix>
</trkpt>
<trkpt lat="-27.2739538" lon="151.2894085">
  <ele>446.01</ele>
  <time>2026-09-01T19:54:30Z</time>
  <course>236.04</course>
  <speed>4.995768209194658</speed>
  <fix>3d</fix>
</trkpt>
<trkpt lat="-27.273949" lon="151.2894166">
  <ele>446.15</ele>
  <time>2026-09-01T19:54:30Z</time>
  <course>235.11</course>
  <speed>5.01</speed>
  <fix>3d</fix>
</trkpt>
<trkpt lat="-27.2739563" lon="151.2894044">
  <ele>446.01</ele>
  <time>2026-09-01T19:54:30Z</time>
  <course>236.05</course>
  <speed>4.990090179545857</speed>
  <fix>3d</fix>
</trkpt>
<trkpt lat="-27.273949" lon="151.2894166">
  <ele>446.15</ele>
  <time>2026-09-01T19:54:30Z</time>
  <course>235.11</course>
  <speed>5.01</speed>
  <fix>3d</fix>
</trkpt>
<trkpt lat="-27.2739589" lon="151.2894002">
  <ele>446.01</ele>
  <time>2026-09-01T19:54:30Z</time>
  <course>236.06</course>
  <speed>4.990090179545857</speed>
  <fix>3d</fix>
</trkpt>
<trkpt lat="-27.2739542" lon="151.2894083">
  <ele>446.16</ele>
  <time>2026-09-01T19:54:30Z</time>
  <course>235.13</course>
  <speed>5.01</speed>
  <fix>3d</fix>
</trkpt>
<trkpt lat="-27.2739615" lon="151.289396">
  <ele>446.01</ele>
  <time>2026-09-01T19:54:30Z</time>
  <course>236.07</course>
  <speed>4.990090179545857</speed>
  <fix>3d</fix>
</trkpt>
<trkpt lat="-27.2739542" lon="151.2894083">
  <ele>446.16</ele>
  <time>2026-09-01T19:54:30Z</time>
  <course>235.13</course>
  <speed>5.01</speed>
  <fix>3d</fix>
</trkpt>
<trkpt lat="-27.2739641" lon="151.2893919">
  <ele>446.02</ele>
  <time>2026-09-01T19:54:30Z</time>
  <course>236.08</course>
  <speed>4.990090179545857</speed>
  <fix>3d</fix>
</trkpt>
<trkpt lat="-27.2739593" lon="151.2894">
  <ele>446.16</ele>
  <time>2026-09-01T19:54:30Z</time>
  <course>235.15</course>
  <speed>5.01</speed>
  <fix>3d</fix>
</trkpt>
<trkpt lat="-27.2739667" lon="151.2893876">
  <ele>446.02</ele>
  <time>2026-09-01T19:54:30Z</time>
  <course>236.08</course>
  <speed>4.990090179545857</speed>
  <fix>3d</fix>
</trkpt>
<trkpt lat="-27.2739645" lon="151.2893916">
  <ele>446.16</ele>
  <time>2026-09-01T19:54:30Z</time>
  <course>235.16</course>
  <speed>5.01</speed>
  <fix>3d</fix>
</trkpt>
<trkpt lat="-27.2739693" lon="151.2893834">
  <ele>446.02</ele>
  <time>2026-09-01T19:54:30Z</time>
  <course>236.09</course>
  <speed>4.990090179545857</speed>
  <fix>3d</fix>
</trkpt>
<trkpt lat="-27.2739645" lon="151.2893916">
  <ele>446.16</ele>
  <time>2026-09-01T19:54:30Z</time>
  <course>235.16</course>
  <speed>5.01</speed>
  <fix>3d</fix>
</trkpt>
<trkpt lat="-27.2739719" lon="151.2893793">
  <ele>446.02</ele>
  <time>2026-09-01T19:54:30Z</time>
  <course>236.09</course>
  <speed>4.990090179545857</speed>
  <fix>3d</fix>
</trkpt>
<trkpt lat="-27.2739696" lon="151.2893833">
  <ele>446.16</ele>
  <time>2026-09-01T19:54:30Z</time>
  <course>235.18</course>
  <speed>5.01</speed>
  <fix>3d</fix>
</trkpt>
<trkpt lat="-27.2739744" lon="151.2893751">
  <ele>446.02</ele>
  <time>2026-09-01T19:54:30Z</time>
  <course>236.1</course>
  <speed>4.990090179545857</speed>
  <fix>3d</fix>
</trkpt>
<trkpt lat="-27.2739696" lon="151.2893833">
  <ele>446.16</ele>
  <time>2026-09-01T19:54:30Z</time>
  <course>235.18</course>
  <speed>5.01</speed>
  <fix>3d</fix>
</trkpt>
<trkpt lat="-27.273977" lon="151.2893709">
  <ele>446.02</ele>
  <time>2026-09-01T19:54:30Z</time>
  <course>236.1</course>
  <speed>4.990090179545857</speed>
  <fix>3d</fix>
</trkpt>
<trkpt lat="-27.2739748" lon="151.289375">
  <ele>446.16</ele>
  <time>2026-09-01T19:54:30Z</time>
  <course>235.2</course>
  <speed>5.01</speed>
  <fix>3d</fix>
</trkpt>
<trkpt lat="-27.2739796" lon="151.2893667">
  <ele>446.01</ele>
  <time>2026-09-01T19:54:30Z</time>
  <course>236.11</course>
  <speed>4.990090179545857</speed>
  <fix>3d</fix>
</trkpt>
<trkpt lat="-27.2739748" lon="151.289375">
  <ele>446.16</ele>
  <time>2026-09-01T19:54:30Z</time>
  <course>235.2</course>
  <speed>5.01</speed>
  <fix>3d</fix>
</trkpt>
<trkpt lat="-27.2739821" lon="151.2893627">
  <ele>446.01</ele>
  <time>2026-09-01T19:54:30Z</time>
  <course>236.12</course>
  <speed>4.990090179545857</speed>
  <fix>3d</fix>
</trkpt>
<trkpt lat="-27.2739748" lon="151.289375">
  <ele>446.16</ele>
  <time>2026-09-01T19:54:30Z</time>
  <course>235.2</course>
  <speed>5.01</speed>
  <fix>3d</fix>
</trkpt>
<trkpt lat="-27.2739847" lon="151.2893585">
  <ele>446.01</ele>
  <time>2026-09-01T19:54:30Z</time>
  <course>236.13</course>
  <speed>4.990090179545857</speed>
  <fix>3d</fix>
</trkpt>
<trkpt lat="-27.2739799" lon="151.2893667">
  <ele>446.16</ele>
  <time>2026-09-01T19:54:30Z</time>
  <course>235.21</course>
  <speed>5.01</speed>
  <fix>3d</fix>
</trkpt>
<trkpt lat="-27.2739873" lon="151.2893544">
  <ele>446.02</ele>
  <time>2026-09-01T19:54:30Z</time>
  <course>236.15</course>
  <speed>4.990090179545857</speed>
  <fix>3d</fix>
</trkpt>
<trkpt lat="-27.2739799" lon="151.2893667">
  <ele>446.16</ele>
  <time>2026-09-01T19:54:30Z</time>
  <course>235.21</course>
  <speed>5.01</speed>
  <fix>3d</fix>
</trkpt>
<trkpt lat="-27.2739898" lon="151.2893502">
  <ele>446.02</ele>
  <time>2026-09-01T19:54:30Z</time>
  <course>236.16</course>
  <speed>4.990090179545857</speed>
  <fix>3d</fix>
</trkpt>
<trkpt lat="-27.273985" lon="151.2893584">
  <ele>446.16</ele>
  <time>2026-09-01T19:54:30Z</time>
  <course>235.21</course>
  <speed>5.01</speed>
  <fix>3d</fix>
</trkpt>
<trkpt lat="-27.2739924" lon="151.289346">
  <ele>446.02</ele>
  <time>2026-09-01T19:54:30Z</time>
  <course>236.17</course>
  <speed>4.990090179545857</speed>
  <fix>3d</fix>
</trkpt>
<trkpt lat="-27.273985" lon="151.2893584">
  <ele>446.16</ele>
  <time>2026-09-01T19:54:30Z</time>
  <course>235.21</course>
  <speed>5.01</speed>
  <fix>3d</fix>
</trkpt>
<trkpt lat="-27.273995" lon="151.2893419">
  <ele>446.02</ele>
  <time>2026-09-01T19:54:30Z</time>
  <course>236.17</course>
  <speed>4.990090179545857</speed>
  <fix>3d</fix>
</trkpt>
<trkpt lat="-27.2739902" lon="151.28935">
  <ele>446.16</ele>
  <time>2026-09-01T19:54:30Z</time>
  <course>235.21</course>
  <speed>5.01</speed>
  <fix>3d</fix>
</trkpt>
<trkpt lat="-27.2739975" lon="151.2893377">
  <ele>446.02</ele>
  <time>2026-09-01T19:54:30Z</time>
  <course>236.17</course>
  <speed>4.990090179545857</speed>
  <fix>3d</fix>
</trkpt>
<trkpt lat="-27.2739902" lon="151.28935">
  <ele>446.16</ele>
  <time>2026-09-01T19:54:30Z</time>
  <course>235.21</course>
  <speed>5.01</speed>
  <fix>3d</fix>
</trkpt>
<trkpt lat="-27.2740001" lon="151.2893336">
  <ele>446.02</ele>
  <time>2026-09-01T19:54:30Z</time>
  <course>236.16</course>
  <speed>4.990090179545857</speed>
  <fix>3d</fix>
</trkpt>
<trkpt lat="-27.2739953" lon="151.2893417">
  <ele>446.16</ele>
  <time>2026-09-01T19:54:30Z</time>
  <course>235.21</course>
  <speed>5.01</speed>
  <fix>3d</fix>
</trkpt>
<trkpt lat="-27.2740027" lon="151.2893294">
  <ele>446.02</ele>
  <time>2026-09-01T19:54:30Z</time>
  <course>236.16</course>
  <speed>4.990090179545857</speed>
  <fix>3d</fix>
</trkpt>
<trkpt lat="-27.2739953" lon="151.2893417">
  <ele>446.16</ele>
  <time>2026-09-01T19:54:30Z</time>
  <course>235.21</course>
  <speed>5.01</speed>
  <fix>3d</fix>
</trkpt>
<trkpt lat="-27.2740052" lon="151.2893252">
  <ele>446.02</ele>
  <time>2026-09-01T19:54:30Z</time>
  <course>236.15</course>
  <speed>4.990090179545857</speed>
  <fix>3d</fix>
</trkpt>
<trkpt lat="-27.2740005" lon="151.2893334">
  <ele>446.16</ele>
  <time>2026-09-01T19:54:30Z</time>
  <course>235.2</course>
  <speed>5.01</speed>
  <fix>3d</fix>
</trkpt>
<trkpt lat="-27.2740078" lon="151.2893211">
  <ele>446.02</ele>
  <time>2026-09-01T19:54:30Z</time>
  <course>236.15</course>
  <speed>4.990090179545857</speed>
  <fix>3d</fix>
</trkpt>
<trkpt lat="-27.2740005" lon="151.2893334">
  <ele>446.16</ele>
  <time>2026-09-01T19:54:30Z</time>
  <course>235.2</course>
  <speed>5.01</speed>
  <fix>3d</fix>
</trkpt>
<trkpt lat="-27.2740104" lon="151.2893169">
  <ele>446.02</ele>
  <time>2026-09-01T19:54:30Z</time>
  <course>236.15</course>
  <speed>4.990090179545857</speed>
  <fix>3d</fix>
</trkpt>
<trkpt lat="-27.2740056" lon="151.289325">
  <ele>446.15</ele>
  <time>2026-09-01T19:54:30Z</time>
  <course>235.2</course>
  <speed>5.01</speed>
  <fix>3d</fix>
</trkpt>
<trkpt lat="-27.274013" lon="151.2893127">
  <ele>446.01</ele>
  <time>2026-09-01T19:54:30Z</time>
  <course>236.15</course>
  <speed>4.990090179545857</speed>
  <fix>3d</fix>
</trkpt>
<trkpt lat="-27.2740056" lon="151.289325">
  <ele>446.15</ele>
  <time>2026-09-01T19:54:30Z</time>
  <course>235.2</course>
  <speed>5.01</speed>
  <fix>3d</fix>
</trkpt>
<trkpt lat="-27.2740156" lon="151.2893085">
  <ele>446.01</ele>
  <time>2026-09-01T19:54:30Z</time>
  <course>236.14</course>
  <speed>4.990090179545857</speed>
  <fix>3d</fix>
</trkpt>
<trkpt lat="-27.2740108" lon="151.2893167">
  <ele>446.15</ele>
  <time>2026-09-01T19:54:30Z</time>
  <course>235.2</course>
  <speed>5.01</speed>
  <fix>3d</fix>
</trkpt>
<trkpt lat="-27.2740181" lon="151.2893043">
  <ele>446.01</ele>
  <time>2026-09-01T19:54:30Z</time>
  <course>236.14</course>
  <speed>4.990090179545857</speed>
  <fix>3d</fix>
</trkpt>
<trkpt lat="-27.2740108" lon="151.2893167">
  <ele>446.15</ele>
  <time>2026-09-01T19:54:30Z</time>
  <course>235.2</course>
  <speed>5.01</speed>
  <fix>3d</fix>
</trkpt>
<trkpt lat="-27.2740208" lon="151.2893">
  <ele>446.01</ele>
  <time>2026-09-01T19:54:30Z</time>
  <course>236.14</course>
  <speed>4.990090179545857</speed>
  <fix>3d</fix>
</trkpt>
<trkpt lat="-27.2740159" lon="151.2893084">
  <ele>446.15</ele>
  <time>2026-09-01T19:54:30Z</time>
  <course>235.2</course>
  <speed>5.01</speed>
  <fix>3d</fix>
</trkpt>
<trkpt lat="-27.2740234" lon="151.2892959">
  <ele>446.01</ele>
  <time>2026-09-01T19:54:30Z</time>
  <course>236.14</course>
  <speed>4.990090179545857</speed>
  <fix>3d</fix>
</trkpt>
<trkpt lat="-27.274021" lon="151.2893001">
  <ele>446.15</ele>
  <time>2026-09-01T19:54:30Z</time>
  <course>235.2</course>
  <speed>5.01</speed>
  <fix>3d</fix>
</trkpt>
<trkpt lat="-27.2740259" lon="151.2892917">
  <ele>446.01</ele>
  <time>2026-09-01T19:54:30Z</time>
  <course>236.14</course>
  <speed>4.990090179545857</speed>
  <fix>3d</fix>
</trkpt>
<trkpt lat="-27.274021" lon="151.2893001">
  <ele>446.15</ele>
  <time>2026-09-01T19:54:30Z</time>
  <course>235.2</course>
  <speed>5.01</speed>
  <fix>3d</fix>
</trkpt>
<trkpt lat="-27.2740285" lon="151.2892876">
  <ele>446.01</ele>
  <time>2026-09-01T19:54:30Z</time>
  <course>236.14</course>
  <speed>4.990090179545857</speed>
  <fix>3d</fix>
</trkpt>
<trkpt lat="-27.2740262" lon="151.2892918">
  <ele>446.15</ele>
  <time>2026-09-01T19:54:30Z</time>
  <course>235.2</course>
  <speed>5.01</speed>
  <fix>3d</fix>
</trkpt>
<trkpt lat="-27.2740311" lon="151.2892834">
  <ele>446.01</ele>
  <time>2026-09-01T19:54:30Z</time>
  <course>236.13</course>
  <speed>4.990090179545857</speed>
  <fix>3d</fix>
</trkpt>
<trkpt lat="-27.2740262" lon="151.2892918">
  <ele>446.15</ele>
  <time>2026-09-01T19:54:30Z</time>
  <course>235.2</course>
  <speed>5.01</speed>
  <fix>3d</fix>
</trkpt>
<trkpt lat="-27.2740337" lon="151.2892792">
  <ele>446.01</ele>
  <time>2026-09-01T19:54:30Z</time>
  <course>236.13</course>
  <speed>4.990090179545857</speed>
  <fix>3d</fix>
</trkpt>
<trkpt lat="-27.2740313" lon="151.2892834">
  <ele>446.15</ele>
  <time>2026-09-01T19:54:30Z</time>
  <course>235.2</course>
  <speed>5.01</speed>
  <fix>3d</fix>
</trkpt>
<trkpt lat="-27.2740363" lon="151.289275">
  <ele>446.01</ele>
  <time>2026-09-01T19:54:30Z</time>
  <course>236.13</course>
  <speed>4.990090179545857</speed>
  <fix>3d</fix>
</trkpt>
<trkpt lat="-27.2740313" lon="151.2892834">
  <ele>446.15</ele>
  <time>2026-09-01T19:54:30Z</time>
  <course>235.2</course>
  <speed>5.01</speed>
  <fix>3d</fix>
</trkpt>
<trkpt lat="-27.2740388" lon="151.2892709">
  <ele>446.02</ele>
  <time>2026-09-01T19:54:30Z</time>
  <course>236.13</course>
  <speed>4.990090179545857</speed>
  <fix>3d</fix>
</trkpt>
<trkpt lat="-27.2740364" lon="151.2892751">
  <ele>446.15</ele>
  <time>2026-09-01T19:54:30Z</time>
  <course>235.19</course>
  <speed>5.01</speed>
  <fix>3d</fix>
</trkpt>
<trkpt lat="-27.2740414" lon="151.2892667">
  <ele>446.02</ele>
  <time>2026-09-01T19:54:30Z</time>
  <course>236.14</course>
  <speed>4.990090179545857</speed>
  <fix>3d</fix>
</trkpt>
<trkpt lat="-27.2740364" lon="151.2892751">
  <ele>446.15</ele>
  <time>2026-09-01T19:54:30Z</time>
  <course>235.19</course>
  <speed>5.01</speed>
  <fix>3d</fix>
</trkpt>
<trkpt lat="-27.274044" lon="151.2892626">
  <ele>446.02</ele>
  <time>2026-09-01T19:54:30Z</time>
  <course>236.14</course>
  <speed>4.990090179545857</speed>
  <fix>3d</fix>
</trkpt>
<trkpt lat="-27.2740415" lon="151.2892668">
  <ele>446.15</ele>
  <time>2026-09-01T19:54:30Z</time>
  <course>235.19</course>
  <speed>5.01</speed>
  <fix>3d</fix>
</trkpt>
<trkpt lat="-27.2740465" lon="151.2892584">
  <ele>446.02</ele>
  <time>2026-09-01T19:54:30Z</time>
  <course>236.13</course>
  <speed>4.990090179545857</speed>
  <fix>3d</fix>
</trkpt>
<trkpt lat="-27.2740415" lon="151.2892668">
  <ele>446.15</ele>
  <time>2026-09-01T19:54:30Z</time>
  <course>235.19</course>
  <speed>5.01</speed>
  <fix>3d</fix>
</trkpt>
<trkpt lat="-27.2740491" lon="151.2892542">
  <ele>446.03</ele>
  <time>2026-09-01T19:54:30Z</time>
  <course>236.13</course>
  <speed>4.990090179545857</speed>
  <fix>3d</fix>
</trkpt>
<trkpt lat="-27.2740467" lon="151.2892585">
  <ele>446.15</ele>
  <time>2026-09-01T19:54:30Z</time>
  <course>235.2</course>
  <speed>5.01</speed>
  <fix>3d</fix>
</trkpt>
<trkpt lat="-27.2740516" lon="151.2892502">
  <ele>446.03</ele>
  <time>2026-09-01T19:54:30Z</time>
  <course>236.13</course>
  <speed>4.990090179545857</speed>
  <fix>3d</fix>
</trkpt>
<trkpt lat="-27.2740467" lon="151.2892585">
  <ele>446.15</ele>
  <time>2026-09-01T19:54:30Z</time>
  <course>235.2</course>
  <speed>5.01</speed>
  <fix>3d</fix>
</trkpt>
<trkpt lat="-27.2740541" lon="151.289246">
  <ele>446.03</ele>
  <time>2026-09-01T19:54:30Z</time>
  <course>236.14</course>
  <speed>4.990090179545857</speed>
  <fix>3d</fix>
</trkpt>
<trkpt lat="-27.2740467" lon="151.2892585">
  <ele>446.15</ele>
  <time>2026-09-01T19:54:30Z</time>
  <course>235.2</course>
  <speed>5.01</speed>
  <fix>3d</fix>
</trkpt>
<trkpt lat="-27.2740567" lon="151.2892419">
  <ele>446.03</ele>
  <time>2026-09-01T19:54:30Z</time>
  <course>236.14</course>
  <speed>4.990090179545857</speed>
  <fix>3d</fix>
</trkpt>
<trkpt lat="-27.2740518" lon="151.2892502">
  <ele>446.15</ele>
  <time>2026-09-01T19:54:30Z</time>
  <course>235.21</course>
  <speed>5.01</speed>
  <fix>3d</fix>
</trkpt>
<trkpt lat="-27.2740593" lon="151.2892377">
  <ele>446.03</ele>
  <time>2026-09-01T19:54:30Z</time>
  <course>236.15</course>
  <speed>4.990090179545857</speed>
  <fix>3d</fix>
</trkpt>
<trkpt lat="-27.2740518" lon="151.2892502">
  <ele>446.15</ele>
  <time>2026-09-01T19:54:30Z</time>
  <course>235.21</course>
  <speed>5.01</speed>
  <fix>3d</fix>
</trkpt>
<trkpt lat="-27.2740618" lon="151.2892336">
  <ele>446.03</ele>
  <time>2026-09-01T19:54:30Z</time>
  <course>236.15</course>
  <speed>4.990090179545857</speed>
  <fix>3d</fix>
</trkpt>
<trkpt lat="-27.274057" lon="151.2892418">
  <ele>446.14</ele>
  <time>2026-09-01T19:54:30Z</time>
  <course>235.22</course>
  <speed>5.01</speed>
  <fix>3d</fix>
</trkpt>
<trkpt lat="-27.2740644" lon="151.2892294">
  <ele>446.03</ele>
  <time>2026-09-01T19:54:30Z</time>
  <course>236.16</course>
  <speed>4.990090179545857</speed>
  <fix>3d</fix>
</trkpt>
<trkpt lat="-27.274057" lon="151.2892418">
  <ele>446.14</ele>
  <time>2026-09-01T19:54:30Z</time>
  <course>235.22</course>
  <speed>5.01</speed>
  <fix>3d</fix>
</trkpt>
<trkpt lat="-27.274067" lon="151.2892252">
  <ele>446.03</ele>
  <time>2026-09-01T19:54:30Z</time>
  <course>236.17</course>
  <speed>4.990090179545857</speed>
  <fix>3d</fix>
</trkpt>
<trkpt lat="-27.2740621" lon="151.2892335">
  <ele>446.14</ele>
  <time>2026-09-01T19:54:30Z</time>
  <course>235.22</course>
  <speed>5.01</speed>
  <fix>3d</fix>
</trkpt>
<trkpt lat="-27.2740695" lon="151.2892211">
  <ele>446.03</ele>
  <time>2026-09-01T19:54:30Z</time>
  <course>236.18</course>
  <speed>4.990090179545857</speed>
  <fix>3d</fix>
</trkpt>
<trkpt lat="-27.2740621" lon="151.2892335">
  <ele>446.14</ele>
  <time>2026-09-01T19:54:30Z</time>
  <course>235.22</course>
  <speed>5.01</speed>
  <fix>3d</fix>
</trkpt>
<trkpt lat="-27.2740722" lon="151.2892168">
  <ele>446.03</ele>
  <time>2026-09-01T19:54:31Z</time>
  <course>236.19</course>
  <speed>4.990090179545857</speed>
  <fix>3d</fix>
</trkpt>
<trkpt lat="-27.2740673" lon="151.2892252">
  <ele>446.14</ele>
  <time>2026-09-01T19:54:31Z</time>
  <course>235.22</course>
  <speed>5.01</speed>
  <fix>3d</fix>
</trkpt>
<trkpt lat="-27.2740748" lon="151.2892126">
  <ele>446.03</ele>
  <time>2026-09-01T19:54:31Z</time>
  <course>236.19</course>
  <speed>4.990090179545857</speed>
  <fix>3d</fix>
</trkpt>
<trkpt lat="-27.2740724" lon="151.2892169">
  <ele>446.13</ele>
  <time>2026-09-01T19:54:31Z</time>
  <course>235.23</course>
  <speed>5.01</speed>
  <fix>3d</fix>
</trkpt>
<trkpt lat="-27.2740773" lon="151.2892085">
  <ele>446.03</ele>
  <time>2026-09-01T19:54:31Z</time>
  <course>236.19</course>
  <speed>4.9983297210168125</speed>
  <fix>3d</fix>
</trkpt>
<trkpt lat="-27.2740724" lon="151.2892169">
  <ele>446.13</ele>
  <time>2026-09-01T19:54:31Z</time>
  <course>235.23</course>
  <speed>5.01</speed>
  <fix>3d</fix>
</trkpt>
<trkpt lat="-27.2740799" lon="151.2892043">
  <ele>446.03</ele>
  <time>2026-09-01T19:54:31Z</time>
  <course>236.18</course>
  <speed>4.9983297210168125</speed>
  <fix>3d</fix>
</trkpt>
<trkpt lat="-27.2740775" lon="151.2892086">
  <ele>446.13</ele>
  <time>2026-09-01T19:54:31Z</time>
  <course>235.23</course>
  <speed>5.01</speed>
  <fix>3d</fix>
</trkpt>
<trkpt lat="-27.2740824" lon="151.2892001">
  <ele>446.03</ele>
  <time>2026-09-01T19:54:31Z</time>
  <course>236.18</course>
  <speed>4.990090179545857</speed>
  <fix>3d</fix>
</trkpt>
<trkpt lat="-27.2740775" lon="151.2892086">
  <ele>446.13</ele>
  <time>2026-09-01T19:54:31Z</time>
  <course>235.23</course>
  <speed>5.01</speed>
  <fix>3d</fix>
</trkpt>
<trkpt lat="-27.274085" lon="151.289196">
  <ele>446.03</ele>
  <time>2026-09-01T19:54:31Z</time>
  <course>236.18</course>
  <speed>4.990090179545857</speed>
  <fix>3d</fix>
</trkpt>
<trkpt lat="-27.2740827" lon="151.2892002">
  <ele>446.12</ele>
  <time>2026-09-01T19:54:31Z</time>
  <course>235.23</course>
  <speed>5.01</speed>
  <fix>3d</fix>
</trkpt>
<trkpt lat="-27.2740876" lon="151.2891918">
  <ele>446.03</ele>
  <time>2026-09-01T19:54:31Z</time>
  <course>236.18</course>
  <speed>4.990090179545857</speed>
  <fix>3d</fix>
</trkpt>
<trkpt lat="-27.2740827" lon="151.2892002">
  <ele>446.12</ele>
  <time>2026-09-01T19:54:31Z</time>
  <course>235.23</course>
  <speed>5.01</speed>
  <fix>3d</fix>
</trkpt>
<trkpt lat="-27.2740902" lon="151.2891876">
  <ele>446.03</ele>
  <time>2026-09-01T19:54:31Z</time>
  <course>236.19</course>
  <speed>4.990090179545857</speed>
  <fix>3d</fix>
</trkpt>
<trkpt lat="-27.2740878" lon="151.2891919">
  <ele>446.12</ele>
  <time>2026-09-01T19:54:31Z</time>
  <course>235.23</course>
  <speed>5.01</speed>
  <fix>3d</fix>
</trkpt>
<trkpt lat="-27.2740927" lon="151.2891835">
  <ele>446.02</ele>
  <time>2026-09-01T19:54:31Z</time>
  <course>236.19</course>
  <speed>4.990090179545857</speed>
  <fix>3d</fix>
</trkpt>
<trkpt lat="-27.2740878" lon="151.2891919">
  <ele>446.12</ele>
  <time>2026-09-01T19:54:31Z</time>
  <course>235.23</course>
  <speed>5.01</speed>
  <fix>3d</fix>
</trkpt>
<trkpt lat="-27.2740953" lon="151.2891793">
  <ele>446.02</ele>
  <time>2026-09-01T19:54:31Z</time>
  <course>236.19</course>
  <speed>4.990090179545857</speed>
  <fix>3d</fix>
</trkpt>
<trkpt lat="-27.2740929" lon="151.2891836">
  <ele>446.12</ele>
  <time>2026-09-01T19:54:31Z</time>
  <course>235.24</course>
  <speed>5.01</speed>
  <fix>3d</fix>
</trkpt>
<trkpt lat="-27.2740979" lon="151.2891751">
  <ele>446.02</ele>
  <time>2026-09-01T19:54:31Z</time>
  <course>236.19</course>
  <speed>4.992674633901151</speed>
  <fix>3d</fix>
</trkpt>
<trkpt lat="-27.2740929" lon="151.2891836">
  <ele>446.12</ele>
  <time>2026-09-01T19:54:31Z</time>
  <course>235.24</course>
  <speed>5.01</speed>
  <fix>3d</fix>
</trkpt>
<trkpt lat="-27.2741004" lon="151.289171">
  <ele>446.01</ele>
  <time>2026-09-01T19:54:31Z</time>
  <course>236.19</course>
  <speed>4.992674633901151</speed>
  <fix>3d</fix>
</trkpt>
<trkpt lat="-27.274098" lon="151.2891753">
  <ele>446.11</ele>
  <time>2026-09-01T19:54:31Z</time>
  <course>235.25</course>
  <speed>5.01</speed>
  <fix>3d</fix>
</trkpt>
<trkpt lat="-27.274103" lon="151.2891668">
  <ele>446.01</ele>
  <time>2026-09-01T19:54:31Z</time>
  <course>236.2</course>
  <speed>4.992674633901151</speed>
  <fix>3d</fix>
</trkpt>
<trkpt lat="-27.274098" lon="151.2891753">
  <ele>446.11</ele>
  <time>2026-09-01T19:54:31Z</time>
  <course>235.25</course>
  <speed>5.01</speed>
  <fix>3d</fix>
</trkpt>
<trkpt lat="-27.2741055" lon="151.2891627">
  <ele>446.01</ele>
  <time>2026-09-01T19:54:31Z</time>
  <course>236.2</course>
  <speed>4.992674633901151</speed>
  <fix>3d</fix>
</trkpt>
<trkpt lat="-27.2741032" lon="151.2891669">
  <ele>446.11</ele>
  <time>2026-09-01T19:54:31Z</time>
  <course>235.26</course>
  <speed>5.01</speed>
  <fix>3d</fix>
</trkpt>
<trkpt lat="-27.2741081" lon="151.2891585">
  <ele>446.0</ele>
  <time>2026-09-01T19:54:31Z</time>
  <course>236.21</course>
  <speed>4.992674633901151</speed>
  <fix>3d</fix>
</trkpt>
<trkpt lat="-27.2741032" lon="151.2891669">
  <ele>446.11</ele>
  <time>2026-09-01T19:54:31Z</time>
  <course>235.26</course>
  <speed>5.01</speed>
  <fix>3d</fix>
</trkpt>
<trkpt lat="-27.2741107" lon="151.2891543">
  <ele>446.0</ele>
  <time>2026-09-01T19:54:31Z</time>
  <course>236.21</course>
  <speed>4.992674633901151</speed>
  <fix>3d</fix>
</trkpt>
<trkpt lat="-27.2741083" lon="151.2891586">
  <ele>446.11</ele>
  <time>2026-09-01T19:54:31Z</time>
  <course>235.27</course>
  <speed>5.01</speed>
  <fix>3d</fix>
</trkpt>
<trkpt lat="-27.2741132" lon="151.2891502">
  <ele>446.0</ele>
  <time>2026-09-01T19:54:31Z</time>
  <course>236.21</course>
  <speed>4.992674633901151</speed>
  <fix>3d</fix>
</trkpt>
<trkpt lat="-27.2741083" lon="151.2891586">
  <ele>446.11</ele>
  <time>2026-09-01T19:54:31Z</time>
  <course>235.27</course>
  <speed>5.01</speed>
  <fix>3d</fix>
</trkpt>
<trkpt lat="-27.2741158" lon="151.289146">
  <ele>446.0</ele>
  <time>2026-09-01T19:54:31Z</time>
  <course>236.22</course>
  <speed>4.992674633901151</speed>
  <fix>3d</fix>
</trkpt>
<trkpt lat="-27.2741135" lon="151.2891503">
  <ele>446.1</ele>
  <time>2026-09-01T19:54:31Z</time>
  <course>235.28</course>
  <speed>5.01</speed>
  <fix>3d</fix>
</trkpt>
<trkpt lat="-27.2741184" lon="151.2891418">
  <ele>446.0</ele>
  <time>2026-09-01T19:54:31Z</time>
  <course>236.23</course>
  <speed>4.992674633901151</speed>
  <fix>3d</fix>
</trkpt>
<trkpt lat="-27.2741135" lon="151.2891503">
  <ele>446.1</ele>
  <time>2026-09-01T19:54:31Z</time>
  <course>235.28</course>
  <speed>5.01</speed>
  <fix>3d</fix>
</trkpt>
<trkpt lat="-27.2741209" lon="151.2891377">
  <ele>446.0</ele>
  <time>2026-09-01T19:54:31Z</time>
  <course>236.24</course>
  <speed>4.992674633901151</speed>
  <fix>3d</fix>
</trkpt>
<trkpt lat="-27.2741186" lon="151.2891419">
  <ele>446.1</ele>
  <time>2026-09-01T19:54:31Z</time>
  <course>235.29</course>
  <speed>5.01</speed>
  <fix>3d</fix>
</trkpt>
<trkpt lat="-27.2741234" lon="151.2891336">
  <ele>446.01</ele>
  <time>2026-09-01T19:54:31Z</time>
  <course>236.25</course>
  <speed>4.992674633901151</speed>
  <fix>3d</fix>
</trkpt>
<trkpt lat="-27.2741186" lon="151.2891419">
  <ele>446.1</ele>
  <time>2026-09-01T19:54:31Z</time>
  <course>235.29</course>
  <speed>5.01</speed>
  <fix>3d</fix>
</trkpt>
<trkpt lat="-27.2741261" lon="151.2891293">
  <ele>446.01</ele>
  <time>2026-09-01T19:54:31Z</time>
  <course>236.26</course>
  <speed>4.992674633901151</speed>
  <fix>3d</fix>
</trkpt>
<trkpt lat="-27.2741238" lon="151.2891336">
  <ele>446.1</ele>
  <time>2026-09-01T19:54:31Z</time>
  <course>235.3</course>
  <speed>5.01</speed>
  <fix>3d</fix>
</trkpt>
<trkpt lat="-27.2741286" lon="151.2891252">
  <ele>446.01</ele>
  <time>2026-09-01T19:54:31Z</time>
  <course>236.26</course>
  <speed>4.992674633901151</speed>
  <fix>3d</fix>
</trkpt>
<trkpt lat="-27.2741238" lon="151.2891336">
  <ele>446.1</ele>
  <time>2026-09-01T19:54:31Z</time>
  <course>235.3</course>
  <speed>5.01</speed>
  <fix>3d</fix>
</trkpt>
<trkpt lat="-27.2741312" lon="151.289121">
  <ele>446.01</ele>
  <time>2026-09-01T19:54:31Z</time>
  <course>236.26</course>
  <speed>4.992674633901151</speed>
  <fix>3d</fix>
</trkpt>
<trkpt lat="-27.2741289" lon="151.2891252">
  <ele>446.11</ele>
  <time>2026-09-01T19:54:31Z</time>
  <course>235.31</course>
  <speed>5.01</speed>
  <fix>3d</fix>
</trkpt>
<trkpt lat="-27.2741337" lon="151.2891169">
  <ele>446.01</ele>
  <time>2026-09-01T19:54:31Z</time>
  <course>236.26</course>
  <speed>4.992674633901151</speed>
  <fix>3d</fix>
</trkpt>
<trkpt lat="-27.2741289" lon="151.2891252">
  <ele>446.11</ele>
  <time>2026-09-01T19:54:31Z</time>
  <course>235.31</course>
  <speed>5.01</speed>
  <fix>3d</fix>
</trkpt>
<trkpt lat="-27.2741363" lon="151.2891128">
  <ele>446.01</ele>
  <time>2026-09-01T19:54:31Z</time>
  <course>236.26</course>
  <speed>4.992674633901151</speed>
  <fix>3d</fix>
</trkpt>
<trkpt lat="-27.274134" lon="151.2891169">
  <ele>446.11</ele>
  <time>2026-09-01T19:54:31Z</time>
  <course>235.32</course>
  <speed>5.01</speed>
  <fix>3d</fix>
</trkpt>
<trkpt lat="-27.2741388" lon="151.2891086">
  <ele>446.01</ele>
  <time>2026-09-01T19:54:31Z</time>
  <course>236.27</course>
  <speed>4.992674633901151</speed>
  <fix>3d</fix>
</trkpt>
<trkpt lat="-27.274134" lon="151.2891169">
  <ele>446.11</ele>
  <time>2026-09-01T19:54:31Z</time>
  <course>235.32</course>
  <speed>5.01</speed>
  <fix>3d</fix>
</trkpt>
<trkpt lat="-27.2741414" lon="151.2891044">
  <ele>446.01</ele>
  <time>2026-09-01T19:54:31Z</time>
  <course>236.28</course>
  <speed>4.992674633901151</speed>
  <fix>3d</fix>
</trkpt>
<trkpt lat="-27.2741391" lon="151.2891086">
  <ele>446.11</ele>
  <time>2026-09-01T19:54:31Z</time>
  <course>235.32</course>
  <speed>5.01</speed>
  <fix>3d</fix>
</trkpt>
<trkpt lat="-27.2741439" lon="151.2891003">
  <ele>446.01</ele>
  <time>2026-09-01T19:54:31Z</time>
  <course>236.28</course>
  <speed>4.992674633901151</speed>
  <fix>3d</fix>
</trkpt>
<trkpt lat="-27.2741391" lon="151.2891086">
  <ele>446.11</ele>
  <time>2026-09-01T19:54:31Z</time>
  <course>235.32</course>
  <speed>5.01</speed>
  <fix>3d</fix>
</trkpt>
<trkpt lat="-27.2741465" lon="151.2890962">
  <ele>446.01</ele>
  <time>2026-09-01T19:54:31Z</time>
  <course>236.28</course>
  <speed>4.992674633901151</speed>
  <fix>3d</fix>
</trkpt>
<trkpt lat="-27.2741442" lon="151.2891002">
  <ele>446.11</ele>
  <time>2026-09-01T19:54:31Z</time>
  <course>235.33</course>
  <speed>5.02</speed>
  <fix>3d</fix>
</trkpt>
<trkpt lat="-27.274149" lon="151.289092">
  <ele>446.01</ele>
  <time>2026-09-01T19:54:31Z</time>
  <course>236.28</course>
  <speed>4.992674633901151</speed>
  <fix>3d</fix>
</trkpt>
<trkpt lat="-27.2741442" lon="151.2891002">
  <ele>446.11</ele>
  <time>2026-09-01T19:54:31Z</time>
  <course>235.33</course>
  <speed>5.02</speed>
  <fix>3d</fix>
</trkpt>
<trkpt lat="-27.2741516" lon="151.2890879">
  <ele>446.01</ele>
  <time>2026-09-01T19:54:31Z</time>
  <course>236.29</course>
  <speed>4.992674633901151</speed>
  <fix>3d</fix>
</trkpt>
<trkpt lat="-27.2741494" lon="151.2890919">
  <ele>446.11</ele>
  <time>2026-09-01T19:54:31Z</time>
  <course>235.33</course>
  <speed>5.02</speed>
  <fix>3d</fix>
</trkpt>
<trkpt lat="-27.2741541" lon="151.2890837">
  <ele>446.01</ele>
  <time>2026-09-01T19:54:31Z</time>
  <course>236.29</course>
  <speed>4.992674633901151</speed>
  <fix>3d</fix>
</trkpt>
<trkpt lat="-27.2741494" lon="151.2890919">
  <ele>446.11</ele>
  <time>2026-09-01T19:54:31Z</time>
  <course>235.33</course>
  <speed>5.02</speed>
  <fix>3d</fix>
</trkpt>
<trkpt lat="-27.2741567" lon="151.2890796">
  <ele>446.01</ele>
  <time>2026-09-01T19:54:31Z</time>
  <course>236.3</course>
  <speed>4.992674633901151</speed>
  <fix>3d</fix>
</trkpt>
<trkpt lat="-27.2741545" lon="151.2890835">
  <ele>446.11</ele>
  <time>2026-09-01T19:54:31Z</time>
  <course>235.34</course>
  <speed>5.02</speed>
  <fix>3d</fix>
</trkpt>
<trkpt lat="-27.2741592" lon="151.2890754">
  <ele>446.01</ele>
  <time>2026-09-01T19:54:31Z</time>
  <course>236.3</course>
  <speed>4.992674633901151</speed>
  <fix>3d</fix>
</trkpt>
<trkpt lat="-27.2741545" lon="151.2890835">
  <ele>446.11</ele>
  <time>2026-09-01T19:54:31Z</time>
  <course>235.34</course>
  <speed>5.02</speed>
  <fix>3d</fix>
</trkpt>
<trkpt lat="-27.2741618" lon="151.2890712">
  <ele>446.01</ele>
  <time>2026-09-01T19:54:31Z</time>
  <course>236.3</course>
  <speed>4.992674633901151</speed>
  <fix>3d</fix>
</trkpt>
<trkpt lat="-27.2741597" lon="151.2890752">
  <ele>446.1</ele>
  <time>2026-09-01T19:54:31Z</time>
  <course>235.35</course>
  <speed>5.02</speed>
  <fix>3d</fix>
</trkpt>
<trkpt lat="-27.2741643" lon="151.2890671">
  <ele>446.01</ele>
  <time>2026-09-01T19:54:31Z</time>
  <course>236.3</course>
  <speed>4.992674633901151</speed>
  <fix>3d</fix>
</trkpt>
<trkpt lat="-27.2741597" lon="151.2890752">
  <ele>446.1</ele>
  <time>2026-09-01T19:54:31Z</time>
  <course>235.35</course>
  <speed>5.02</speed>
  <fix>3d</fix>
</trkpt>
<trkpt lat="-27.2741669" lon="151.2890629">
  <ele>446.0</ele>
  <time>2026-09-01T19:54:31Z</time>
  <course>236.31</course>
  <speed>4.992674633901151</speed>
  <fix>3d</fix>
</trkpt>
<trkpt lat="-27.2741648" lon="151.2890668">
  <ele>446.1</ele>
  <time>2026-09-01T19:54:31Z</time>
  <course>235.36</course>
  <speed>5.02</speed>
  <fix>3d</fix>
</trkpt>
<trkpt lat="-27.2741695" lon="151.2890587">
  <ele>446.0</ele>
  <time>2026-09-01T19:54:31Z</time>
  <course>236.31</course>
  <speed>4.992674633901151</speed>
  <fix>3d</fix>
</trkpt>
<trkpt lat="-27.2741648" lon="151.2890668">
  <ele>446.1</ele>
  <time>2026-09-01T19:54:31Z</time>
  <course>235.36</course>
  <speed>5.02</speed>
  <fix>3d</fix>
</trkpt>
<trkpt lat="-27.274172" lon="151.2890546">
  <ele>446.0</ele>
  <time>2026-09-01T19:54:31Z</time>
  <course>236.31</course>
  <speed>4.992674633901151</speed>
  <fix>3d</fix>
</trkpt>
<trkpt lat="-27.27417" lon="151.2890583">
  <ele>446.1</ele>
  <time>2026-09-01T19:54:31Z</time>
  <course>235.37</course>
  <speed>5.03</speed>
  <fix>3d</fix>
</trkpt>
<trkpt lat="-27.2741746" lon="151.2890504">
  <ele>446.0</ele>
  <time>2026-09-01T19:54:31Z</time>
  <course>236.31</course>
  <speed>4.992674633901151</speed>
  <fix>3d</fix>
</trkpt>
<trkpt lat="-27.27417" lon="151.2890583">
  <ele>446.1</ele>
  <time>2026-09-01T19:54:31Z</time>
  <course>235.37</course>
  <speed>5.03</speed>
  <fix>3d</fix>
</trkpt>
<trkpt lat="-27.2741772" lon="151.2890462">
  <ele>446.0</ele>
  <time>2026-09-01T19:54:31Z</time>
  <course>236.32</course>
  <speed>4.992674633901151</speed>
  <fix>3d</fix>
</trkpt>
<trkpt lat="-27.2741751" lon="151.28905">
  <ele>446.1</ele>
  <time>2026-09-01T19:54:31Z</time>
  <course>235.38</course>
  <speed>5.03</speed>
  <fix>3d</fix>
</trkpt>
<trkpt lat="-27.2741797" lon="151.289042">
  <ele>446.0</ele>
  <time>2026-09-01T19:54:31Z</time>
  <course>236.32</course>
  <speed>4.992674633901151</speed>
  <fix>3d</fix>
</trkpt>
<trkpt lat="-27.2741751" lon="151.28905">
  <ele>446.1</ele>
  <time>2026-09-01T19:54:31Z</time>
  <course>235.38</course>
  <speed>5.03</speed>
  <fix>3d</fix>
</trkpt>
<trkpt lat="-27.2741823" lon="151.2890378">
  <ele>446.0</ele>
  <time>2026-09-01T19:54:31Z</time>
  <course>236.32</course>
  <speed>4.992674633901151</speed>
  <fix>3d</fix>
</trkpt>
<trkpt lat="-27.2741802" lon="151.2890416">
  <ele>446.1</ele>
  <time>2026-09-01T19:54:31Z</time>
  <course>235.38</course>
  <speed>5.03</speed>
  <fix>3d</fix>
</trkpt>
<trkpt lat="-27.2741849" lon="151.2890336">
  <ele>446.0</ele>
  <time>2026-09-01T19:54:31Z</time>
  <course>236.32</course>
  <speed>4.992674633901151</speed>
  <fix>3d</fix>
</trkpt>
<trkpt lat="-27.2741802" lon="151.2890416">
  <ele>446.1</ele>
  <time>2026-09-01T19:54:31Z</time>
  <course>235.38</course>
  <speed>5.03</speed>
  <fix>3d</fix>
</trkpt>
<trkpt lat="-27.2741874" lon="151.2890294">
  <ele>446.0</ele>
  <time>2026-09-01T19:54:31Z</time>
  <course>236.32</course>
  <speed>5.000929913526083</speed>
  <fix>3d</fix>
</trkpt>
<trkpt lat="-27.2741854" lon="151.2890333">
  <ele>446.1</ele>
  <time>2026-09-01T19:54:31Z</time>
  <course>235.39</course>
  <speed>5.03</speed>
  <fix>3d</fix>
</trkpt>
<trkpt lat="-27.27419" lon="151.2890253">
  <ele>446.0</ele>
  <time>2026-09-01T19:54:31Z</time>
  <course>236.33</course>
  <speed>4.992674633901151</speed>
  <fix>3d</fix>
</trkpt>
<trkpt lat="-27.2741854" lon="151.2890333">
  <ele>446.1</ele>
  <time>2026-09-01T19:54:31Z</time>
  <course>235.39</course>
  <speed>5.03</speed>
  <fix>3d</fix>
</trkpt>
<trkpt lat="-27.2741926" lon="151.2890211">
  <ele>446.0</ele>
  <time>2026-09-01T19:54:31Z</time>
  <course>236.34</course>
  <speed>4.98703318617392</speed>
  <fix>3d</fix>
</trkpt>
<trkpt lat="-27.2741905" lon="151.2890249">
  <ele>446.11</ele>
  <time>2026-09-01T19:54:31Z</time>
  <course>235.39</course>
  <speed>5.02</speed>
  <fix>3d</fix>
</trkpt>
<trkpt lat="-27.2741952" lon="151.2890168">
  <ele>446.0</ele>
  <time>2026-09-01T19:54:31Z</time>
  <course>236.34</course>
  <speed>4.9787749497240785</speed>
  <fix>3d</fix>
</trkpt>
<trkpt lat="-27.2741905" lon="151.2890249">
  <ele>446.11</ele>
  <time>2026-09-01T19:54:31Z</time>
  <course>235.39</course>
  <speed>5.02</speed>
  <fix>3d</fix>
</trkpt>
<trkpt lat="-27.2741977" lon="151.2890127">
  <ele>446.0</ele>
  <time>2026-09-01T19:54:31Z</time>
  <course>236.35</course>
  <speed>4.964876634922564</speed>
  <fix>3d</fix>
</trkpt>
<trkpt lat="-27.2741956" lon="151.2890166">
  <ele>446.11</ele>
  <time>2026-09-01T19:54:31Z</time>
  <course>235.41</course>
  <speed>5.01</speed>
  <fix>3d</fix>
</trkpt>
<trkpt lat="-27.2742003" lon="151.2890085">
  <ele>446.01</ele>
  <time>2026-09-01T19:54:31Z</time>
  <course>236.35</course>
  <speed>4.950979701028878</speed>
  <fix>3d</fix>
</trkpt>
<trkpt lat="-27.2741956" lon="151.2890166">
  <ele>446.11</ele>
  <time>2026-09-01T19:54:31Z</time>
  <course>235.41</course>
  <speed>5.01</speed>
  <fix>3d</fix>
</trkpt>
<trkpt lat="-27.2742028" lon="151.2890044">
  <ele>446.01</ele>
  <time>2026-09-01T19:54:31Z</time>
  <course>236.36</course>
  <speed>4.9231900227393215</speed>
  <fix>3d</fix>
</trkpt>
<trkpt lat="-27.2742007" lon="151.2890082">
  <ele>446.11</ele>
  <time>2026-09-01T19:54:31Z</time>
  <course>235.43</course>
  <speed>4.98</speed>
  <fix>3d</fix>
</trkpt>
<trkpt lat="-27.2742053" lon="151.2890003">
  <ele>446.01</ele>
  <time>2026-09-01T19:54:31Z</time>
  <course>236.36</course>
  <speed>4.9010305038838515</speed>
  <fix>3d</fix>
</trkpt>
<trkpt lat="-27.2742007" lon="151.2890082">
  <ele>446.11</ele>
  <time>2026-09-01T19:54:31Z</time>
  <course>235.43</course>
  <speed>4.98</speed>
  <fix>3d</fix>
</trkpt>
<trkpt lat="-27.2742078" lon="151.2889962">
  <ele>446.02</ele>
  <time>2026-09-01T19:54:31Z</time>
  <course>236.37</course>
  <speed>4.864976875587385</speed>
  <fix>3d</fix>
</trkpt>
<trkpt lat="-27.2742058" lon="151.2889999">
  <ele>446.12</ele>
  <time>2026-09-01T19:54:31Z</time>
  <course>235.44</course>
  <speed>4.93</speed>
  <fix>3d</fix>
</trkpt>
<trkpt lat="-27.2742103" lon="151.2889921">
  <ele>446.02</ele>
  <time>2026-09-01T19:54:31Z</time>
  <course>236.38</course>
  <speed>4.828923275431077</speed>
  <fix>3d</fix>
</trkpt>
<trkpt lat="-27.2742058" lon="151.2889999">
  <ele>446.12</ele>
  <time>2026-09-01T19:54:31Z</time>
  <course>235.44</course>
  <speed>4.93</speed>
  <fix>3d</fix>
</trkpt>
<trkpt lat="-27.2742128" lon="151.2889881">
  <ele>446.02</ele>
  <time>2026-09-01T19:54:31Z</time>
  <course>236.39</course>
  <speed>4.7928697040499655</speed>
  <fix>3d</fix>
</trkpt>
<trkpt lat="-27.2742108" lon="151.2889918">
  <ele>446.13</ele>
  <time>2026-09-01T19:54:31Z</time>
  <course>235.46</course>
  <speed>4.86</speed>
  <fix>3d</fix>
</trkpt>
<trkpt lat="-27.2742152" lon="151.2889841">
  <ele>446.02</ele>
  <time>2026-09-01T19:54:31Z</time>
  <course>236.41</course>
  <speed>4.751189324790162</speed>
  <fix>3d</fix>
</trkpt>
<trkpt lat="-27.2742108" lon="151.2889918">
  <ele>446.13</ele>
  <time>2026-09-01T19:54:31Z</time>
  <course>235.46</course>
  <speed>4.86</speed>
  <fix>3d</fix>
</trkpt>
<trkpt lat="-27.2742177" lon="151.2889801">
  <ele>446.02</ele>
  <time>2026-09-01T19:54:31Z</time>
  <course>236.42</course>
  <speed>4.706867323390367</speed>
  <fix>3d</fix>
</trkpt>
<trkpt lat="-27.2742157" lon="151.2889838">
  <ele>446.13</ele>
  <time>2026-09-01T19:54:31Z</time>
  <course>235.47</course>
  <speed>4.78</speed>
  <fix>3d</fix>
</trkpt>
<trkpt lat="-27.2742201" lon="151.2889762">
  <ele>446.02</ele>
  <time>2026-09-01T19:54:31Z</time>
  <course>236.43</course>
  <speed>4.65691958272848</speed>
  <fix>3d</fix>
</trkpt>
<trkpt lat="-27.2742157" lon="151.2889838">
  <ele>446.13</ele>
  <time>2026-09-01T19:54:31Z</time>
  <course>235.47</course>
  <speed>4.78</speed>
  <fix>3d</fix>
</trkpt>
<trkpt lat="-27.2742225" lon="151.2889723">
  <ele>446.02</ele>
  <time>2026-09-01T19:54:31Z</time>
  <course>236.44</course>
  <speed>4.606972975826969</speed>
  <fix>3d</fix>
</trkpt>
<trkpt lat="-27.2742205" lon="151.2889759">
  <ele>446.14</ele>
  <time>2026-09-01T19:54:31Z</time>
  <course>235.49</course>
  <speed>4.69</speed>
  <fix>3d</fix>
</trkpt>
<trkpt lat="-27.2742248" lon="151.2889684">
  <ele>446.02</ele>
  <time>2026-09-01T19:54:31Z</time>
  <course>236.46</course>
  <speed>4.557027539965059</speed>
  <fix>3d</fix>
</trkpt>
<trkpt lat="-27.2742205" lon="151.2889759">
  <ele>446.14</ele>
  <time>2026-09-01T19:54:31Z</time>
  <course>235.49</course>
  <speed>4.69</speed>
  <fix>3d</fix>
</trkpt>
<trkpt lat="-27.2742271" lon="151.2889646">
  <ele>446.02</ele>
  <time>2026-09-01T19:54:31Z</time>
  <course>236.47</course>
  <speed>4.49881095401885</speed>
  <fix>3d</fix>
</trkpt>
<trkpt lat="-27.2742252" lon="151.2889682">
  <ele>446.15</ele>
  <time>2026-09-01T19:54:31Z</time>
  <course>235.5</course>
  <speed>4.58</speed>
  <fix>3d</fix>
</trkpt>
<trkpt lat="-27.2742294" lon="151.2889609">
  <ele>446.02</ele>
  <time>2026-09-01T19:54:31Z</time>
  <course>236.48</course>
  <speed>4.448865023801014</speed>
  <fix>3d</fix>
</trkpt>
<trkpt lat="-27.2742252" lon="151.2889682">
  <ele>446.15</ele>
  <time>2026-09-01T19:54:31Z</time>
  <course>235.5</course>
  <speed>4.58</speed>
  <fix>3d</fix>
</trkpt>
<trkpt lat="-27.2742317" lon="151.2889572">
  <ele>446.02</ele>
  <time>2026-09-01T19:54:31Z</time>
  <course>236.49</course>
  <speed>4.390649154737828</speed>
  <fix>3d</fix>
</trkpt>
<trkpt lat="-27.2742298" lon="151.2889606">
  <ele>446.15</ele>
  <time>2026-09-01T19:54:31Z</time>
  <course>235.53</course>
  <speed>4.47</speed>
  <fix>3d</fix>
</trkpt>
<trkpt lat="-27.2742339" lon="151.2889535">
  <ele>446.02</ele>
  <time>2026-09-01T19:54:31Z</time>
  <course>236.51</course>
  <speed>4.32681175925184</speed>
  <fix>3d</fix>
</trkpt>
<trkpt lat="-27.2742298" lon="151.2889606">
  <ele>446.15</ele>
  <time>2026-09-01T19:54:31Z</time>
  <course>235.53</course>
  <speed>4.47</speed>
  <fix>3d</fix>
</trkpt>
<trkpt lat="-27.2742361" lon="151.2889499">
  <ele>446.02</ele>
  <time>2026-09-01T19:54:31Z</time>
  <course>236.53</course>
  <speed>4.268594616498503</speed>
  <fix>3d</fix>
</trkpt>
<trkpt lat="-27.2742343" lon="151.2889533">
  <ele>446.16</ele>
  <time>2026-09-01T19:54:31Z</time>
  <course>235.55</course>
  <speed>4.35</speed>
  <fix>3d</fix>
</trkpt>
<trkpt lat="-27.2742383" lon="151.2889464">
  <ele>446.02</ele>
  <time>2026-09-01T19:54:31Z</time>
  <course>236.55</course>
  <speed>4.2047592083257275</speed>
  <fix>3d</fix>
</trkpt>
<trkpt lat="-27.2742343" lon="151.2889533">
  <ele>446.16</ele>
  <time>2026-09-01T19:54:31Z</time>
  <course>235.55</course>
  <speed>4.35</speed>
  <fix>3d</fix>
</trkpt>
<trkpt lat="-27.2742404" lon="151.2889429">
  <ele>446.02</ele>
  <time>2026-09-01T19:54:31Z</time>
  <course>236.57</course>
  <speed>4.1326504812287235</speed>
  <fix>3d</fix>
</trkpt>
<trkpt lat="-27.2742387" lon="151.2889461">
  <ele>446.15</ele>
  <time>2026-09-01T19:54:31Z</time>
  <course>235.57</course>
  <speed>4.22</speed>
  <fix>3d</fix>
</trkpt>
<trkpt lat="-27.2742425" lon="151.2889394">
  <ele>446.02</ele>
  <time>2026-09-01T19:54:31Z</time>
  <course>236.6</course>
  <speed>4.074432475817951</speed>
  <fix>3d</fix>
</trkpt>
<trkpt lat="-27.2742387" lon="151.2889461">
  <ele>446.15</ele>
  <time>2026-09-01T19:54:31Z</time>
  <course>235.57</course>
  <speed>4.22</speed>
  <fix>3d</fix>
</trkpt>
<trkpt lat="-27.2742446" lon="151.2889361">
  <ele>446.02</ele>
  <time>2026-09-01T19:54:31Z</time>
  <course>236.62</course>
  <speed>4.002324324689343</speed>
  <fix>3d</fix>
</trkpt>
<trkpt lat="-27.2742429" lon="151.2889391">
  <ele>446.15</ele>
  <time>2026-09-01T19:54:31Z</time>
  <course>235.58</course>
  <speed>4.09</speed>
  <fix>3d</fix>
</trkpt>
<trkpt lat="-27.2742466" lon="151.2889327">
  <ele>446.02</ele>
  <time>2026-09-01T19:54:31Z</time>
  <course>236.65</course>
  <speed>3.9384895581935977</speed>
  <fix>3d</fix>
</trkpt>
<trkpt lat="-27.2742429" lon="151.2889391">
  <ele>446.15</ele>
  <time>2026-09-01T19:54:31Z</time>
  <course>235.58</course>
  <speed>4.09</speed>
  <fix>3d</fix>
</trkpt>
<trkpt lat="-27.2742486" lon="151.2889294">
  <ele>446.02</ele>
  <time>2026-09-01T19:54:31Z</time>
  <course>236.67</course>
  <speed>3.8663807365545364</speed>
  <fix>3d</fix>
</trkpt>
<trkpt lat="-27.274247" lon="151.2889324">
  <ele>446.15</ele>
  <time>2026-09-01T19:54:31Z</time>
  <course>235.59</course>
  <speed>3.96</speed>
  <fix>3d</fix>
</trkpt>
<trkpt lat="-27.2742506" lon="151.2889262">
  <ele>446.01</ele>
  <time>2026-09-01T19:54:31Z</time>
  <course>236.69</course>
  <speed>3.8081622864578657</speed>
  <fix>3d</fix>
</trkpt>
<trkpt lat="-27.274247" lon="151.2889324">
  <ele>446.15</ele>
  <time>2026-09-01T19:54:31Z</time>
  <course>235.59</course>
  <speed>3.96</speed>
  <fix>3d</fix>
</trkpt>
<trkpt lat="-27.2742525" lon="151.288923">
  <ele>446.01</ele>
  <time>2026-09-01T19:54:31Z</time>
  <course>236.71</course>
  <speed>3.744329045369811</speed>
  <fix>3d</fix>
</trkpt>
<trkpt lat="-27.2742509" lon="151.288926">
  <ele>446.14</ele>
  <time>2026-09-01T19:54:31Z</time>
  <course>235.6</course>
  <speed>3.83</speed>
  <fix>3d</fix>
</trkpt>
<trkpt lat="-27.2742544" lon="151.2889199">
  <ele>446.0</ele>
  <time>2026-09-01T19:54:31Z</time>
  <course>236.73</course>
  <speed>3.6943876353192824</speed>
  <fix>3d</fix>
</trkpt>
<trkpt lat="-27.2742509" lon="151.288926">
  <ele>446.14</ele>
  <time>2026-09-01T19:54:31Z</time>
  <course>235.6</course>
  <speed>3.83</speed>
  <fix>3d</fix>
</trkpt>
<trkpt lat="-27.2742563" lon="151.2889168">
  <ele>446.0</ele>
  <time>2026-09-01T19:54:31Z</time>
  <course>236.75</course>
  <speed>3.6361655627872613</speed>
  <fix>3d</fix>
</trkpt>
<trkpt lat="-27.2742548" lon="151.2889197">
  <ele>446.14</ele>
  <time>2026-09-01T19:54:31Z</time>
  <course>235.61</course>
  <speed>3.71</speed>
  <fix>3d</fix>
</trkpt>
<trkpt lat="-27.2742582" lon="151.2889137">
  <ele>446.0</ele>
  <time>2026-09-01T19:54:31Z</time>
  <course>236.78</course>
  <speed>3.586223640544466</speed>
  <fix>3d</fix>
</trkpt>
<trkpt lat="-27.2742548" lon="151.2889197">
  <ele>446.14</ele>
  <time>2026-09-01T19:54:31Z</time>
  <course>235.61</course>
  <speed>3.71</speed>
  <fix>3d</fix>
</trkpt>
<trkpt lat="-27.27426" lon="151.2889108">
  <ele>445.99</ele>
  <time>2026-09-01T19:54:31Z</time>
  <course>236.8</course>
  <speed>3.5418921496849674</speed>
  <fix>3d</fix>
</trkpt>
<trkpt lat="-27.2742585" lon="151.2889136">
  <ele>446.13</ele>
  <time>2026-09-01T19:54:31Z</time>
  <course>235.62</course>
  <speed>3.61</speed>
  <fix>3d</fix>
</trkpt>
<trkpt lat="-27.2742618" lon="151.2889078">
  <ele>445.99</ele>
  <time>2026-09-01T19:54:31Z</time>
  <course>236.83</course>
  <speed>3.5002285639655017</speed>
  <fix>3d</fix>
</trkpt>
<trkpt lat="-27.2742585" lon="151.2889136">
  <ele>446.13</ele>
  <time>2026-09-01T19:54:31Z</time>
  <course>235.62</course>
  <speed>3.61</speed>
  <fix>3d</fix>
</trkpt>
<trkpt lat="-27.2742636" lon="151.2889049">
  <ele>445.99</ele>
  <time>2026-09-01T19:54:31Z</time>
  <course>236.85</course>
  <speed>3.4641737831696604</speed>
  <fix>3d</fix>
</trkpt>
<trkpt lat="-27.2742621" lon="151.2889076">
  <ele>446.13</ele>
  <time>2026-09-01T19:54:31Z</time>
  <course>235.64</course>
  <speed>3.52</speed>
  <fix>3d</fix>
</trkpt>
<trkpt lat="-27.2742653" lon="151.288902">
  <ele>445.99</ele>
  <time>2026-09-01T19:54:31Z</time>
  <course>236.87</course>
  <speed>3.4281190177705327</speed>
  <fix>3d</fix>
</trkpt>
<trkpt lat="-27.2742621" lon="151.2889076">
  <ele>446.13</ele>
  <time>2026-09-01T19:54:31Z</time>
  <course>235.64</course>
  <speed>3.52</speed>
  <fix>3d</fix>
</trkpt>
<trkpt lat="-27.2742671" lon="151.2888991">
  <ele>445.99</ele>
  <time>2026-09-01T19:54:31Z</time>
  <course>236.9</course>
  <speed>3.392064268259079</speed>
  <fix>3d</fix>
</trkpt>
<trkpt lat="-27.2742656" lon="151.2889018">
  <ele>446.13</ele>
  <time>2026-09-01T19:54:31Z</time>
  <course>235.65</course>
  <speed>3.44</speed>
  <fix>3d</fix>
</trkpt>
<trkpt lat="-27.2742688" lon="151.2888963">
  <ele>445.99</ele>
  <time>2026-09-01T19:54:31Z</time>
  <course>236.92</course>
  <speed>3.3560095351473604</speed>
  <fix>3d</fix>
</trkpt>
<trkpt lat="-27.2742656" lon="151.2889018">
  <ele>446.13</ele>
  <time>2026-09-01T19:54:31Z</time>
  <course>235.65</course>
  <speed>3.44</speed>
  <fix>3d</fix>
</trkpt>
<trkpt lat="-27.2742705" lon="151.2888935">
  <ele>445.99</ele>
  <time>2026-09-01T19:54:31Z</time>
  <course>236.94</course>
  <speed>3.328242779606079</speed>
  <fix>3d</fix>
</trkpt>
<trkpt lat="-27.2742691" lon="151.2888961">
  <ele>446.13</ele>
  <time>2026-09-01T19:54:31Z</time>
  <course>235.66</course>
  <speed>3.38</speed>
  <fix>3d</fix>
</trkpt>
<trkpt lat="-27.2742722" lon="151.2888906">
  <ele>445.99</ele>
  <time>2026-09-01T19:54:31Z</time>
  <course>236.95</course>
  <speed>3.31436268383531</speed>
  <fix>3d</fix>
</trkpt>
<trkpt lat="-27.2742691" lon="151.2888961">
  <ele>446.13</ele>
  <time>2026-09-01T19:54:31Z</time>
  <course>235.66</course>
  <speed>3.38</speed>
  <fix>3d</fix>
</trkpt>
<trkpt lat="-27.2742739" lon="151.2888879">
  <ele>445.99</ele>
  <time>2026-09-01T19:54:31Z</time>
  <course>236.97</course>
  <speed>3.3004848128721935</speed>
  <fix>3d</fix>
</trkpt>
<trkpt lat="-27.2742725" lon="151.2888904">
  <ele>446.13</ele>
  <time>2026-09-01T19:54:31Z</time>
  <course>235.68</course>
  <speed>3.33</speed>
  <fix>3d</fix>
</trkpt>
<trkpt lat="-27.2742756" lon="151.2888851">
  <ele>446.0</ele>
  <time>2026-09-01T19:54:31Z</time>
  <course>236.98</course>
  <speed>3.286609194899813</speed>
  <fix>3d</fix>
</trkpt>
<trkpt lat="-27.2742725" lon="151.2888904">
  <ele>446.13</ele>
  <time>2026-09-01T19:54:31Z</time>
  <course>235.68</course>
  <speed>3.33</speed>
  <fix>3d</fix>
</trkpt>
<trkpt lat="-27.2742772" lon="151.2888823">
  <ele>446.0</ele>
  <time>2026-09-01T19:54:31Z</time>
  <course>236.98</course>
  <speed>3.264429506054618</speed>
  <fix>3d</fix>
</trkpt>
<trkpt lat="-27.2742759" lon="151.2888849">
  <ele>446.14</ele>
  <time>2026-09-01T19:54:31Z</time>
  <course>235.69</course>
  <speed>3.29</speed>
  <fix>3d</fix>
</trkpt>
<trkpt lat="-27.2742789" lon="151.2888796">
  <ele>446.0</ele>
  <time>2026-09-01T19:54:31Z</time>
  <course>236.98</course>
  <speed>3.228374203836972</speed>
  <fix>3d</fix>
</trkpt>
<trkpt lat="-27.2742759" lon="151.2888849">
  <ele>446.14</ele>
  <time>2026-09-01T19:54:31Z</time>
  <course>235.69</course>
  <speed>3.29</speed>
  <fix>3d</fix>
</trkpt>
<trkpt lat="-27.2742805" lon="151.2888769">
  <ele>446.01</ele>
  <time>2026-09-01T19:54:31Z</time>
  <course>236.97</course>
  <speed>3.1784430150625638</speed>
  <fix>3d</fix>
</trkpt>
<trkpt lat="-27.2742792" lon="151.2888795">
  <ele>446.14</ele>
  <time>2026-09-01T19:54:31Z</time>
  <course>235.71</course>
  <speed>3.23</speed>
  <fix>3d</fix>
</trkpt>
<trkpt lat="-27.2742821" lon="151.2888743">
  <ele>446.02</ele>
  <time>2026-09-01T19:54:31Z</time>
  <course>236.97</course>
  <speed>3.1202083263782243</speed>
  <fix>3d</fix>
</trkpt>
<trkpt lat="-27.2742792" lon="151.2888795">
  <ele>446.14</ele>
  <time>2026-09-01T19:54:31Z</time>
  <course>235.71</course>
  <speed>3.23</speed>
  <fix>3d</fix>
</trkpt>
<trkpt lat="-27.2742837" lon="151.2888717">
  <ele>446.02</ele>
  <time>2026-09-01T19:54:31Z</time>
  <course>236.98</course>
  <speed>3.04809776746088</speed>
  <fix>3d</fix>
</trkpt>
<trkpt lat="-27.2742824" lon="151.2888742">
  <ele>446.15</ele>
  <time>2026-09-01T19:54:31Z</time>
  <course>235.72</course>
  <speed>3.12</speed>
  <fix>3d</fix>
</trkpt>
<trkpt lat="-27.2742852" lon="151.2888691">
  <ele>446.03</ele>
  <time>2026-09-01T19:54:31Z</time>
  <course>236.98</course>
  <speed>2.962110733919311</speed>
  <fix>3d</fix>
</trkpt>
<trkpt lat="-27.2742824" lon="151.2888742">
  <ele>446.15</ele>
  <time>2026-09-01T19:54:31Z</time>
  <course>235.72</course>
  <speed>3.12</speed>
  <fix>3d</fix>
</trkpt>
<trkpt lat="-27.2742867" lon="151.2888667">
  <ele>446.04</ele>
  <time>2026-09-01T19:54:31Z</time>
  <course>236.98</course>
  <speed>2.8622543562723424</speed>
  <fix>3d</fix>
</trkpt>
<trkpt lat="-27.2742855" lon="151.2888691">
  <ele>446.16</ele>
  <time>2026-09-01T19:54:31Z</time>
  <course>235.74</course>
  <speed>2.97</speed>
  <fix>3d</fix>
</trkpt>
<trkpt lat="-27.2742881" lon="151.2888643">
  <ele>446.05</ele>
  <time>2026-09-01T19:54:31Z</time>
  <course>236.99</course>
  <speed>2.7596557756357947</speed>
  <fix>3d</fix>
</trkpt>
<trkpt lat="-27.2742855" lon="151.2888691">
  <ele>446.16</ele>
  <time>2026-09-01T19:54:31Z</time>
  <course>235.74</course>
  <speed>2.97</speed>
  <fix>3d</fix>
</trkpt>
<trkpt lat="-27.2742895" lon="151.288862">
  <ele>446.05</ele>
  <time>2026-09-01T19:54:31Z</time>
  <course>236.99</course>
  <speed>2.659793225045887</speed>
  <fix>3d</fix>
</trkpt>
<trkpt lat="-27.2742883" lon="151.2888643">
  <ele>446.18</ele>
  <time>2026-09-01T19:54:31Z</time>
  <course>235.76</course>
  <speed>2.78</speed>
  <fix>3d</fix>
</trkpt>
<trkpt lat="-27.2742908" lon="151.2888598">
  <ele>446.05</ele>
  <time>2026-09-01T19:54:31Z</time>
  <course>237.0</course>
  <speed>2.5516269319788893</speed>
  <fix>3d</fix>
</trkpt>
<trkpt lat="-27.2742883" lon="151.2888643">
  <ele>446.18</ele>
  <time>2026-09-01T19:54:31Z</time>
  <course>235.76</course>
  <speed>2.78</speed>
  <fix>3d</fix>
</trkpt>
<trkpt lat="-27.2742921" lon="151.2888577">
  <ele>446.06</ele>
  <time>2026-09-01T19:54:31Z</time>
  <course>237.0</course>
  <speed>2.4517748673155126</speed>
  <fix>3d</fix>
</trkpt>
<trkpt lat="-27.2742911" lon="151.2888598">
  <ele>446.19</ele>
  <time>2026-09-01T19:54:31Z</time>
  <course>235.78</course>
  <speed>2.57</speed>
  <fix>3d</fix>
</trkpt>
<trkpt lat="-27.2742933" lon="151.2888557">
  <ele>446.06</ele>
  <time>2026-09-01T19:54:31Z</time>
  <course>237.01</course>
  <speed>2.3436083290515928</speed>
  <fix>3d</fix>
</trkpt>
<trkpt lat="-27.2742911" lon="151.2888598">
  <ele>446.19</ele>
  <time>2026-09-01T19:54:31Z</time>
  <course>235.78</course>
  <speed>2.57</speed>
  <fix>3d</fix>
</trkpt>
<trkpt lat="-27.2742945" lon="151.2888538">
  <ele>446.05</ele>
  <time>2026-09-01T19:54:31Z</time>
  <course>237.02</course>
  <speed>2.249311005619276</speed>
  <fix>3d</fix>
</trkpt>
<trkpt lat="-27.2742936" lon="151.2888557">
  <ele>446.19</ele>
  <time>2026-09-01T19:54:31Z</time>
  <course>235.8</course>
  <speed>2.37</speed>
  <fix>3d</fix>
</trkpt>
<trkpt lat="-27.2742956" lon="151.2888519">
  <ele>446.05</ele>
  <time>2026-09-01T19:54:31Z</time>
  <course>237.02</course>
  <speed>2.14946504972749</speed>
  <fix>3d</fix>
</trkpt>
<trkpt lat="-27.2742936" lon="151.2888557">
  <ele>446.19</ele>
  <time>2026-09-01T19:54:31Z</time>
  <course>235.8</course>
  <speed>2.37</speed>
  <fix>3d</fix>
</trkpt>
<trkpt lat="-27.2742967" lon="151.2888502">
  <ele>446.04</ele>
  <time>2026-09-01T19:54:31Z</time>
  <course>237.03</course>
  <speed>2.041298606279836</speed>
  <fix>3d</fix>
</trkpt>
<trkpt lat="-27.2742959" lon="151.2888519">
  <ele>446.18</ele>
  <time>2026-09-01T19:54:31Z</time>
  <course>235.83</course>
  <speed>2.16</speed>
  <fix>3d</fix>
</trkpt>
<trkpt lat="-27.2742977" lon="151.2888485">
  <ele>446.03</ele>
  <time>2026-09-01T19:54:31Z</time>
  <course>237.03</course>
  <speed>1.946997688750554</speed>
  <fix>3d</fix>
</trkpt>
<trkpt lat="-27.2742959" lon="151.2888519">
  <ele>446.18</ele>
  <time>2026-09-01T19:54:31Z</time>
  <course>235.83</course>
  <speed>2.16</speed>
  <fix>3d</fix>
</trkpt>
<trkpt lat="-27.2742987" lon="151.2888469">
  <ele>446.02</ele>
  <time>2026-09-01T19:54:31Z</time>
  <course>237.03</course>
  <speed>1.8527007313648907</speed>
  <fix>3d</fix>
</trkpt>
<trkpt lat="-27.274298" lon="151.2888484">
  <ele>446.16</ele>
  <time>2026-09-01T19:54:31Z</time>
  <course>235.87</course>
  <speed>1.97</speed>
  <fix>3d</fix>
</trkpt>
<trkpt lat="-27.2742996" lon="151.2888453">
  <ele>446.02</ele>
  <time>2026-09-01T19:54:31Z</time>
  <course>237.03</course>
  <speed>1.7611927776367924</speed>
  <fix>3d</fix>
</trkpt>
<trkpt lat="-27.274298" lon="151.2888484">
  <ele>446.16</ele>
  <time>2026-09-01T19:54:31Z</time>
  <course>235.87</course>
  <speed>1.97</speed>
  <fix>3d</fix>
</trkpt>
<trkpt lat="-27.2743005" lon="151.2888439">
  <ele>446.01</ele>
  <time>2026-09-01T19:54:31Z</time>
  <course>237.03</course>
  <speed>1.6668833192518306</speed>
  <fix>3d</fix>
</trkpt>
<trkpt lat="-27.2742999" lon="151.2888453">
  <ele>446.15</ele>
  <time>2026-09-01T19:54:31Z</time>
  <course>235.91</course>
  <speed>1.78</speed>
  <fix>3d</fix>
</trkpt>
<trkpt lat="-27.2743013" lon="151.2888425">
  <ele>446.0</ele>
  <time>2026-09-01T19:54:31Z</time>
  <course>237.03</course>
  <speed>1.5809174551506475</speed>
  <fix>3d</fix>
</trkpt>
<trkpt lat="-27.2742999" lon="151.2888453">
  <ele>446.15</ele>
  <time>2026-09-01T19:54:31Z</time>
  <course>235.91</course>
  <speed>1.78</speed>
  <fix>3d</fix>
</trkpt>
<trkpt lat="-27.2743021" lon="151.2888412">
  <ele>445.99</ele>
  <time>2026-09-01T19:54:31Z</time>
  <course>237.03</course>
  <speed>1.494958193395387</speed>
  <fix>3d</fix>
</trkpt>
<trkpt lat="-27.2743016" lon="151.2888424">
  <ele>446.14</ele>
  <time>2026-09-01T19:54:31Z</time>
  <course>235.96</course>
  <speed>1.6</speed>
  <fix>3d</fix>
</trkpt>
<trkpt lat="-27.2743029" lon="151.28884">
  <ele>445.98</ele>
  <time>2026-09-01T19:54:31Z</time>
  <course>237.03</course>
  <speed>1.4090067423543438</speed>
  <fix>3d</fix>
</trkpt>
<trkpt lat="-27.2743016" lon="151.2888424">
  <ele>446.14</ele>
  <time>2026-09-01T19:54:31Z</time>
  <course>235.96</course>
  <speed>1.6</speed>
  <fix>3d</fix>
</trkpt>
<trkpt lat="-27.2743036" lon="151.2888388">
  <ele>445.98</ele>
  <time>2026-09-01T19:54:31Z</time>
  <course>237.04</course>
  <speed>1.3285330255586423</speed>
  <fix>3d</fix>
</trkpt>
<trkpt lat="-27.2743031" lon="151.2888398">
  <ele>446.12</ele>
  <time>2026-09-01T19:54:31Z</time>
  <course>236.0</course>
  <speed>1.43</speed>
  <fix>3d</fix>
</trkpt>
<trkpt lat="-27.2743042" lon="151.2888377">
  <ele>445.97</ele>
  <time>2026-09-01T19:54:31Z</time>
  <course>237.04</course>
  <speed>1.250959631642844</speed>
  <fix>3d</fix>
</trkpt>
<trkpt lat="-27.2743031" lon="151.2888398">
  <ele>446.12</ele>
  <time>2026-09-01T19:54:31Z</time>
  <course>236.0</course>
  <speed>1.43</speed>
  <fix>3d</fix>
</trkpt>
<trkpt lat="-27.2743048" lon="151.2888367">
  <ele>445.97</ele>
  <time>2026-09-01T19:54:31Z</time>
  <course>237.04</course>
  <speed>1.1788553770501282</speed>
  <fix>3d</fix>
</trkpt>
<trkpt lat="-27.2743044" lon="151.2888376">
  <ele>446.12</ele>
  <time>2026-09-01T19:54:31Z</time>
  <course>236.05</course>
  <speed>1.27</speed>
  <fix>3d</fix>
</trkpt>
<trkpt lat="-27.2743054" lon="151.2888357">
  <ele>445.97</ele>
  <time>2026-09-01T19:54:31Z</time>
  <course>237.04</course>
  <speed>1.106752004741803</speed>
  <fix>3d</fix>
</trkpt>
<trkpt lat="-27.2743044" lon="151.2888376">
  <ele>446.12</ele>
  <time>2026-09-01T19:54:31Z</time>
  <course>236.05</course>
  <speed>1.27</speed>
  <fix>3d</fix>
</trkpt>
<trkpt lat="-27.2743059" lon="151.2888348">
  <ele>445.97</ele>
  <time>2026-09-01T19:54:31Z</time>
  <course>237.04</course>
  <speed>1.0346496991735898</speed>
  <fix>3d</fix>
</trkpt>
<trkpt lat="-27.2743056" lon="151.2888356">
  <ele>446.12</ele>
  <time>2026-09-01T19:54:31Z</time>
  <course>236.08</course>
  <speed>1.12</speed>
  <fix>3d</fix>
</trkpt>
<trkpt lat="-27.2743065" lon="151.2888339">
  <ele>445.97</ele>
  <time>2026-09-01T19:54:31Z</time>
  <course>237.04</course>
  <speed>0.9763708311906906</speed>
  <fix>3d</fix>
</trkpt>
<trkpt lat="-27.2743056" lon="151.2888356">
  <ele>446.12</ele>
  <time>2026-09-01T19:54:31Z</time>
  <course>236.08</course>
  <speed>1.12</speed>
  <fix>3d</fix>
</trkpt>
<trkpt lat="-27.2743069" lon="151.2888331">
  <ele>445.97</ele>
  <time>2026-09-01T19:54:31Z</time>
  <course>237.04</course>
  <speed>0.9126883367283708</speed>
  <fix>3d</fix>
</trkpt>
<trkpt lat="-27.2743066" lon="151.2888338">
  <ele>446.12</ele>
  <time>2026-09-01T19:54:31Z</time>
  <course>236.1</course>
  <speed>0.99</speed>
  <fix>3d</fix>
</trkpt>
<trkpt lat="-27.2743074" lon="151.2888323">
  <ele>445.98</ele>
  <time>2026-09-01T19:54:31Z</time>
  <course>237.04</course>
  <speed>0.8544003745317531</speed>
  <fix>3d</fix>
</trkpt>
<trkpt lat="-27.2743066" lon="151.2888338">
  <ele>446.12</ele>
  <time>2026-09-01T19:54:31Z</time>
  <course>236.1</course>
  <speed>0.99</speed>
  <fix>3d</fix>
</trkpt>
<trkpt lat="-27.2743078" lon="151.2888316">
  <ele>445.98</ele>
  <time>2026-09-01T19:54:31Z</time>
  <course>237.04</course>
  <speed>0.8045495634204272</speed>
  <fix>3d</fix>
</trkpt>
<trkpt lat="-27.2743076" lon="151.2888322">
  <ele>446.13</ele>
  <time>2026-09-01T19:54:31Z</time>
  <course>236.12</course>
  <speed>0.87</speed>
  <fix>3d</fix>
</trkpt>
<trkpt lat="-27.2743082" lon="151.2888309">
  <ele>445.97</ele>
  <time>2026-09-01T19:54:31Z</time>
  <course>237.04</course>
  <speed>0.768505042273634</speed>
  <fix>3d</fix>
</trkpt>
<trkpt lat="-27.2743076" lon="151.2888322">
  <ele>446.13</ele>
  <time>2026-09-01T19:54:31Z</time>
  <course>236.12</course>
  <speed>0.87</speed>
  <fix>3d</fix>
</trkpt>
<trkpt lat="-27.2743086" lon="151.2888303">
  <ele>445.95</ele>
  <time>2026-09-01T19:54:31Z</time>
  <course>237.04</course>
  <speed>0.7240165743959182</speed>
  <fix>3d</fix>
</trkpt>
<trkpt lat="-27.2743084" lon="151.2888309">
  <ele>446.12</ele>
  <time>2026-09-01T19:54:31Z</time>
  <course>236.11</course>
  <speed>0.78</speed>
  <fix>3d</fix>
</trkpt>
<trkpt lat="-27.2743089" lon="151.2888297">
  <ele>445.92</ele>
  <time>2026-09-01T19:54:31Z</time>
  <course>237.04</course>
  <speed>0.696419413859206</speed>
  <fix>3d</fix>
</trkpt>
<trkpt lat="-27.2743084" lon="151.2888309">
  <ele>446.12</ele>
  <time>2026-09-01T19:54:31Z</time>
  <course>236.11</course>
  <speed>0.78</speed>
  <fix>3d</fix>
</trkpt>
<trkpt lat="-27.2743093" lon="151.2888291">
  <ele>445.86</ele>
  <time>2026-09-01T19:54:31Z</time>
  <course>237.03</course>
  <speed>0.6603786792439622</speed>
  <fix>3d</fix>
</trkpt>
<trkpt lat="-27.2743092" lon="151.2888296">
  <ele>446.06</ele>
  <time>2026-09-01T19:54:31Z</time>
  <course>236.08</course>
  <speed>0.7</speed>
  <fix>3d</fix>
</trkpt>
<trkpt lat="-27.2743096" lon="151.2888286">
  <ele>445.79</ele>
  <time>2026-09-01T19:54:31Z</time>
  <course>237.03</course>
  <speed>0.6243396511515187</speed>
  <fix>3d</fix>
</trkpt>
<trkpt lat="-27.2743092" lon="151.2888296">
  <ele>446.06</ele>
  <time>2026-09-01T19:54:31Z</time>
  <course>236.08</course>
  <speed>0.7</speed>
  <fix>3d</fix>
</trkpt>
<trkpt lat="-27.2743099" lon="151.288828">
  <ele>445.69</ele>
  <time>2026-09-01T19:54:31Z</time>
  <course>237.03</course>
  <speed>0.5883026432033092</speed>
  <fix>3d</fix>
</trkpt>
<trkpt lat="-27.2743099" lon="151.2888285">
  <ele>445.93</ele>
  <time>2026-09-01T19:54:31Z</time>
  <course>236.02</course>
  <speed>0.63</speed>
  <fix>3d</fix>
</trkpt>
<trkpt lat="-27.2743102" lon="151.2888275">
  <ele>445.58</ele>
  <time>2026-09-01T19:54:31Z</time>
  <course>237.02</course>
  <speed>0.552268050859363</speed>
  <fix>3d</fix>
</trkpt>
<trkpt lat="-27.2743099" lon="151.2888285">
  <ele>445.93</ele>
  <time>2026-09-01T19:54:31Z</time>
  <course>236.02</course>
  <speed>0.63</speed>
  <fix>3d</fix>
</trkpt>
<trkpt lat="-27.2743105" lon="151.2888271">
  <ele>445.45</ele>
  <time>2026-09-01T19:54:31Z</time>
  <course>237.02</course>
  <speed>0.5162363799656123</speed>
  <fix>3d</fix>
</trkpt>
<trkpt lat="-27.2743105" lon="151.2888275">
  <ele>445.73</ele>
  <time>2026-09-01T19:54:31Z</time>
  <course>235.92</course>
  <speed>0.56</speed>
  <fix>3d</fix>
</trkpt>
<trkpt lat="-27.2743107" lon="151.2888266">
  <ele>445.31</ele>
  <time>2026-09-01T19:54:31Z</time>
  <course>237.01</course>
  <speed>0.4802082881417188</speed>
  <fix>3d</fix>
</trkpt>
<trkpt lat="-27.2743105" lon="151.2888275">
  <ele>445.73</ele>
  <time>2026-09-01T19:54:31Z</time>
  <course>235.92</course>
  <speed>0.56</speed>
  <fix>3d</fix>
</trkpt>
<trkpt lat="-27.274311" lon="151.2888262">
  <ele>445.17</ele>
  <time>2026-09-01T19:54:31Z</time>
  <course>237.01</course>
  <speed>0.4441846462902562</speed>
  <fix>3d</fix>
</trkpt>
<trkpt lat="-27.274311" lon="151.2888266">
  <ele>445.47</ele>
  <time>2026-09-01T19:54:31Z</time>
  <course>235.8</course>
  <speed>0.49</speed>
  <fix>3d</fix>
</trkpt>
<trkpt lat="-27.2743112" lon="151.2888259">
  <ele>445.01</ele>
  <time>2026-09-01T19:54:31Z</time>
  <course>237.0</course>
  <speed>0.4219004621945798</speed>
  <fix>3d</fix>
</trkpt>
<trkpt lat="-27.274311" lon="151.2888266">
  <ele>445.47</ele>
  <time>2026-09-01T19:54:31Z</time>
  <course>235.8</course>
  <speed>0.49</speed>
  <fix>3d</fix>
</trkpt>
<trkpt lat="-27.2743114" lon="151.2888255">
  <ele>444.85</ele>
  <time>2026-09-01T19:54:31Z</time>
  <course>237.0</course>
  <speed>0.3944616584663204</speed>
  <fix>3d</fix>
</trkpt>
<trkpt lat="-27.2743115" lon="151.2888258">
  <ele>445.16</ele>
  <time>2026-09-01T19:54:31Z</time>
  <course>235.65</course>
  <speed>0.43</speed>
  <fix>3d</fix>
</trkpt>
<trkpt lat="-27.2743116" lon="151.2888252">
  <ele>444.68</ele>
  <time>2026-09-01T19:54:31Z</time>
  <course>236.99</course>
  <speed>0.36359317925395684</speed>
  <fix>3d</fix>
</trkpt>
<trkpt lat="-27.2743115" lon="151.2888258">
  <ele>445.16</ele>
  <time>2026-09-01T19:54:31Z</time>
  <course>235.65</course>
  <speed>0.43</speed>
  <fix>3d</fix>
</trkpt>
<trkpt lat="-27.2743118" lon="151.2888249">
  <ele>444.52</ele>
  <time>2026-09-01T19:54:31Z</time>
  <course>236.99</course>
  <speed>0.3361547262794322</speed>
  <fix>3d</fix>
</trkpt>
<trkpt lat="-27.2743119" lon="151.2888252">
  <ele>444.84</ele>
  <time>2026-09-01T19:54:31Z</time>
  <course>235.47</course>
  <speed>0.38</speed>
  <fix>3d</fix>
</trkpt>
<trkpt lat="-27.274312" lon="151.2888246">
  <ele>444.35</ele>
  <time>2026-09-01T19:54:31Z</time>
  <course>236.99</course>
  <speed>0.32249030993194194</speed>
  <fix>3d</fix>
</trkpt>
<trkpt lat="-27.2743119" lon="151.2888252">
  <ele>444.84</ele>
  <time>2026-09-01T19:54:31Z</time>
  <course>235.47</course>
  <speed>0.38</speed>
  <fix>3d</fix>
</trkpt>
<trkpt lat="-27.2743122" lon="151.2888243">
  <ele>444.19</ele>
  <time>2026-09-01T19:54:31Z</time>
  <course>236.98</course>
  <speed>0.30016662039607267</speed>
  <fix>3d</fix>
</trkpt>
<trkpt lat="-27.2743123" lon="151.2888246">
  <ele>444.51</ele>
  <time>2026-09-01T19:54:31Z</time>
  <course>235.25</course>
  <speed>0.33</speed>
  <fix>3d</fix>
</trkpt>
<trkpt lat="-27.2743123" lon="151.288824">
  <ele>444.03</ele>
  <time>2026-09-01T19:54:31Z</time>
  <course>236.98</course>
  <speed>0.28653097563788804</speed>
  <fix>3d</fix>
</trkpt>
<trkpt lat="-27.2743123" lon="151.2888246">
  <ele>444.51</ele>
  <time>2026-09-01T19:54:31Z</time>
  <course>235.25</course>
  <speed>0.33</speed>
  <fix>3d</fix>
</trkpt>
<trkpt lat="-27.2743125" lon="151.2888238">
  <ele>443.87</ele>
  <time>2026-09-01T19:54:31Z</time>
  <course>236.98</course>
  <speed>0.27294688127912364</speed>
  <fix>3d</fix>
</trkpt>
<trkpt lat="-27.2743126" lon="151.288824">
  <ele>444.19</ele>
  <time>2026-09-01T19:54:31Z</time>
  <course>234.99</course>
  <speed>0.3</speed>
  <fix>3d</fix>
</trkpt>
<trkpt lat="-27.2743126" lon="151.2888236">
  <ele>443.71</ele>
  <time>2026-09-01T19:54:31Z</time>
  <course>236.97</course>
  <speed>0.2641968962724581</speed>
  <fix>3d</fix>
</trkpt>
<trkpt lat="-27.2743126" lon="151.288824">
  <ele>444.19</ele>
  <time>2026-09-01T19:54:31Z</time>
  <course>234.99</course>
  <speed>0.3</speed>
  <fix>3d</fix>
</trkpt>
<trkpt lat="-27.2743127" lon="151.2888233">
  <ele>443.56</ele>
  <time>2026-09-01T19:54:31Z</time>
  <course>236.96</course>
  <speed>0.25059928172283336</speed>
  <fix>3d</fix>
</trkpt>
<trkpt lat="-27.2743129" lon="151.2888235">
  <ele>443.87</ele>
  <time>2026-09-01T19:54:31Z</time>
  <course>234.77</course>
  <speed>0.27</speed>
  <fix>3d</fix>
</trkpt>
<trkpt lat="-27.2743129" lon="151.2888231">
  <ele>443.4</ele>
  <time>2026-09-01T19:54:31Z</time>
  <course>236.96</course>
  <speed>0.23706539182259395</speed>
  <fix>3d</fix>
</trkpt>
<trkpt lat="-27.2743129" lon="151.2888235">
  <ele>443.87</ele>
  <time>2026-09-01T19:54:31Z</time>
  <course>234.77</course>
  <speed>0.27</speed>
  <fix>3d</fix>
</trkpt>
<trkpt lat="-27.274313" lon="151.2888229">
  <ele>443.26</ele>
  <time>2026-09-01T19:54:31Z</time>
  <course>236.96</course>
  <speed>0.22825424421026652</speed>
  <fix>3d</fix>
</trkpt>
<trkpt lat="-27.2743132" lon="151.2888231">
  <ele>443.57</ele>
  <time>2026-09-01T19:54:31Z</time>
  <course>234.59</course>
  <speed>0.25</speed>
  <fix>3d</fix>
</trkpt>
<trkpt lat="-27.2743131" lon="151.2888227">
  <ele>443.11</ele>
  <time>2026-09-01T19:54:31Z</time>
  <course>236.96</course>
  <speed>0.223606797749979</speed>
  <fix>3d</fix>
</trkpt>
<trkpt lat="-27.2743132" lon="151.2888231">
  <ele>443.57</ele>
  <time>2026-09-01T19:54:31Z</time>
  <course>234.59</course>
  <speed>0.25</speed>
  <fix>3d</fix>
</trkpt>
<trkpt lat="-27.2743133" lon="151.2888225">
  <ele>442.97</ele>
  <time>2026-09-01T19:54:31Z</time>
  <course>236.97</course>
  <speed>0.21470910553583888</speed>
  <fix>3d</fix>
</trkpt>
<trkpt lat="-27.2743134" lon="151.2888226">
  <ele>443.28</ele>
  <time>2026-09-01T19:54:31Z</time>
  <course>234.38</course>
  <speed>0.23</speed>
  <fix>3d</fix>
</trkpt>
<trkpt lat="-27.2743134" lon="151.2888223">
  <ele>442.83</ele>
  <time>2026-09-01T19:54:31Z</time>
  <course>236.96</course>
  <speed>0.21470910553583888</speed>
  <fix>3d</fix>
</trkpt>
<trkpt lat="-27.2743134" lon="151.2888226">
  <ele>443.28</ele>
  <time>2026-09-01T19:54:31Z</time>
  <course>234.38</course>
  <speed>0.23</speed>
  <fix>3d</fix>
</trkpt>
<trkpt lat="-27.2743135" lon="151.2888221">
  <ele>442.68</ele>
  <time>2026-09-01T19:54:31Z</time>
  <course>236.96</course>
  <speed>0.20124611797498107</speed>
  <fix>3d</fix>
</trkpt>
<trkpt lat="-27.2743137" lon="151.2888223">
  <ele>442.99</ele>
  <time>2026-09-01T19:54:31Z</time>
  <course>234.08</course>
  <speed>0.22</speed>
  <fix>3d</fix>
</trkpt>
<trkpt lat="-27.2743136" lon="151.2888219">
  <ele>442.54</ele>
  <time>2026-09-01T19:54:31Z</time>
  <course>236.96</course>
  <speed>0.20124611797498107</speed>
  <fix>3d</fix>
</trkpt>
<trkpt lat="-27.2743137" lon="151.2888223">
  <ele>442.99</ele>
  <time>2026-09-01T19:54:31Z</time>
  <course>234.08</course>
  <speed>0.22</speed>
  <fix>3d</fix>
</trkpt>
<trkpt lat="-27.2743137" lon="151.2888217">
  <ele>442.4</ele>
  <time>2026-09-01T19:54:31Z</time>
  <course>236.95</course>
  <speed>0.20124611797498107</speed>
  <fix>3d</fix>
</trkpt>
<trkpt lat="-27.2743139" lon="151.2888219">
  <ele>442.71</ele>
  <time>2026-09-01T19:54:31Z</time>
  <course>233.77</course>
  <speed>0.22</speed>
  <fix>3d</fix>
</trkpt>
<trkpt lat="-27.2743138" lon="151.2888216">
  <ele>442.26</ele>
  <time>2026-09-01T19:54:31Z</time>
  <course>236.94</course>
  <speed>0.20124611797498107</speed>
  <fix>3d</fix>
</trkpt>
<trkpt lat="-27.2743139" lon="151.2888219">
  <ele>442.71</ele>
  <time>2026-09-01T19:54:31Z</time>
  <course>233.77</course>
  <speed>0.22</speed>
  <fix>3d</fix>
</trkpt>
<trkpt lat="-27.2743139" lon="151.2888214">
  <ele>442.12</ele>
  <time>2026-09-01T19:54:31Z</time>
  <course>236.94</course>
  <speed>0.20124611797498107</speed>
  <fix>3d</fix>
</trkpt>
<trkpt lat="-27.2743142" lon="151.2888216">
  <ele>442.42</ele>
  <time>2026-09-01T19:54:31Z</time>
  <course>233.52</course>
  <speed>0.21</speed>
  <fix>3d</fix>
</trkpt>
<trkpt lat="-27.2743141" lon="151.2888212">
  <ele>441.97</ele>
  <time>2026-09-01T19:54:31Z</time>
  <course>236.93</course>
  <speed>0.20124611797498107</speed>
  <fix>3d</fix>
</trkpt>
<trkpt lat="-27.2743142" lon="151.2888216">
  <ele>442.42</ele>
  <time>2026-09-01T19:54:31Z</time>
  <course>233.52</course>
  <speed>0.21</speed>
  <fix>3d</fix>
</trkpt>
<trkpt lat="-27.2743142" lon="151.288821">
  <ele>441.82</ele>
  <time>2026-09-01T19:54:31Z</time>
  <course>236.92</course>
  <speed>0.19235384061671343</speed>
  <fix>3d</fix>
</trkpt>
<trkpt lat="-27.2743144" lon="151.2888213">
  <ele>442.14</ele>
  <time>2026-09-01T19:54:31Z</time>
  <course>233.32</course>
  <speed>0.21</speed>
  <fix>3d</fix>
</trkpt>
<trkpt lat="-27.2743143" lon="151.2888209">
  <ele>441.68</ele>
  <time>2026-09-01T19:54:31Z</time>
  <course>236.92</course>
  <speed>0.19235384061671343</speed>
  <fix>3d</fix>
</trkpt>
<trkpt lat="-27.2743144" lon="151.2888213">
  <ele>442.14</ele>
  <time>2026-09-01T19:54:31Z</time>
  <course>233.32</course>
  <speed>0.21</speed>
  <fix>3d</fix>
</trkpt>
<trkpt lat="-27.2743144" lon="151.2888207">
  <ele>441.53</ele>
  <time>2026-09-01T19:54:31Z</time>
  <course>236.92</course>
  <speed>0.19235384061671343</speed>
  <fix>3d</fix>
</trkpt>
<trkpt lat="-27.2743146" lon="151.2888209">
  <ele>441.85</ele>
  <time>2026-09-01T19:54:31Z</time>
  <course>233.14</course>
  <speed>0.21</speed>
  <fix>3d</fix>
</trkpt>
<trkpt lat="-27.2743145" lon="151.2888205">
  <ele>441.38</ele>
  <time>2026-09-01T19:54:31Z</time>
  <course>236.92</course>
  <speed>0.19235384061671343</speed>
  <fix>3d</fix>
</trkpt>
<trkpt lat="-27.2743146" lon="151.2888209">
  <ele>441.85</ele>
  <time>2026-09-01T19:54:31Z</time>
  <course>233.14</course>
  <speed>0.21</speed>
  <fix>3d</fix>
</trkpt>
<trkpt lat="-27.2743146" lon="151.2888204">
  <ele>441.23</ele>
  <time>2026-09-01T19:54:31Z</time>
  <course>236.92</course>
  <speed>0.19235384061671343</speed>
  <fix>3d</fix>
</trkpt>
<trkpt lat="-27.2743149" lon="151.2888206">
  <ele>441.55</ele>
  <time>2026-09-01T19:54:31Z</time>
  <course>233.07</course>
  <speed>0.21</speed>
  <fix>3d</fix>
</trkpt>
<trkpt lat="-27.2743147" lon="151.2888202">
  <ele>441.08</ele>
  <time>2026-09-01T19:54:31Z</time>
  <course>236.93</course>
  <speed>0.19235384061671343</speed>
  <fix>3d</fix>
</trkpt>
<trkpt lat="-27.2743149" lon="151.2888206">
  <ele>441.55</ele>
  <time>2026-09-01T19:54:31Z</time>
  <course>233.07</course>
  <speed>0.21</speed>
  <fix>3d</fix>
</trkpt>
<trkpt lat="-27.2743148" lon="151.28882">
  <ele>440.93</ele>
  <time>2026-09-01T19:54:31Z</time>
  <course>236.93</course>
  <speed>0.18788294228055935</speed>
  <fix>3d</fix>
</trkpt>
<trkpt lat="-27.2743151" lon="151.2888202">
  <ele>441.26</ele>
  <time>2026-09-01T19:54:31Z</time>
  <course>233.17</course>
  <speed>0.2</speed>
  <fix>3d</fix>
</trkpt>
<trkpt lat="-27.274315" lon="151.2888199">
  <ele>440.78</ele>
  <time>2026-09-01T19:54:31Z</time>
  <course>236.93</course>
  <speed>0.18788294228055935</speed>
  <fix>3d</fix>
</trkpt>
<trkpt lat="-27.2743151" lon="151.2888202">
  <ele>441.26</ele>
  <time>2026-09-01T19:54:31Z</time>
  <course>233.17</course>
  <speed>0.2</speed>
  <fix>3d</fix>
</trkpt>
<trkpt lat="-27.2743151" lon="151.2888197">
  <ele>440.63</ele>
  <time>2026-09-01T19:54:31Z</time>
  <course>236.92</course>
  <speed>0.18788294228055935</speed>
  <fix>3d</fix>
</trkpt>
<trkpt lat="-27.2743153" lon="151.2888199">
  <ele>440.96</ele>
  <time>2026-09-01T19:54:31Z</time>
  <course>233.32</course>
  <speed>0.2</speed>
  <fix>3d</fix>
</trkpt>
<trkpt lat="-27.2743152" lon="151.2888195">
  <ele>440.48</ele>
  <time>2026-09-01T19:54:31Z</time>
  <course>236.92</course>
  <speed>0.17888543819998318</speed>
  <fix>3d</fix>
</trkpt>
<trkpt lat="-27.2743153" lon="151.2888199">
  <ele>440.96</ele>
  <time>2026-09-01T19:54:31Z</time>
  <course>233.32</course>
  <speed>0.2</speed>
  <fix>3d</fix>
</trkpt>
<trkpt lat="-27.2743153" lon="151.2888194">
  <ele>440.33</ele>
  <time>2026-09-01T19:54:31Z</time>
  <course>236.92</course>
  <speed>0.17888543819998318</speed>
  <fix>3d</fix>
</trkpt>
<trkpt lat="-27.2743155" lon="151.2888195">
  <ele>440.66</ele>
  <time>2026-09-01T19:54:31Z</time>
  <course>233.52</course>
  <speed>0.2</speed>
  <fix>3d</fix>
</trkpt>
<trkpt lat="-27.2743154" lon="151.2888192">
  <ele>440.18</ele>
  <time>2026-09-01T19:54:31Z</time>
  <course>236.92</course>
  <speed>0.17888543819998318</speed>
  <fix>3d</fix>
</trkpt>
<trkpt lat="-27.2743155" lon="151.2888195">
  <ele>440.66</ele>
  <time>2026-09-01T19:54:31Z</time>
  <course>233.52</course>
  <speed>0.2</speed>
  <fix>3d</fix>
</trkpt>
<trkpt lat="-27.2743155" lon="151.288819">
  <ele>440.03</ele>
  <time>2026-09-01T19:54:31Z</time>
  <course>236.92</course>
  <speed>0.17888543819998318</speed>
  <fix>3d</fix>
</trkpt>
<trkpt lat="-27.2743157" lon="151.2888192">
  <ele>440.36</ele>
  <time>2026-09-01T19:54:31Z</time>
  <course>233.74</course>
  <speed>0.2</speed>
  <fix>3d</fix>
</trkpt>
<trkpt lat="-27.2743156" lon="151.2888189">
  <ele>439.88</ele>
  <time>2026-09-01T19:54:31Z</time>
  <course>236.93</course>
  <speed>0.17888543819998318</speed>
  <fix>3d</fix>
</trkpt>
<trkpt lat="-27.2743157" lon="151.2888192">
  <ele>440.36</ele>
  <time>2026-09-01T19:54:31Z</time>
  <course>233.74</course>
  <speed>0.2</speed>
  <fix>3d</fix>
</trkpt>
<trkpt lat="-27.2743157" lon="151.2888187">
  <ele>439.73</ele>
  <time>2026-09-01T19:54:31Z</time>
  <course>236.94</course>
  <speed>0.17464249196572978</speed>
  <fix>3d</fix>
</trkpt>
<trkpt lat="-27.274316" lon="151.2888189">
  <ele>440.06</ele>
  <time>2026-09-01T19:54:31Z</time>
  <course>233.98</course>
  <speed>0.19</speed>
  <fix>3d</fix>
</trkpt>
<trkpt lat="-27.2743158" lon="151.2888186">
  <ele>439.58</ele>
  <time>2026-09-01T19:54:31Z</time>
  <course>236.95</course>
  <speed>0.16552945357246848</speed>
  <fix>3d</fix>
</trkpt>
<trkpt lat="-27.274316" lon="151.2888189">
  <ele>440.06</ele>
  <time>2026-09-01T19:54:31Z</time>
  <course>233.98</course>
  <speed>0.19</speed>
  <fix>3d</fix>
</trkpt>
<trkpt lat="-27.2743159" lon="151.2888184">
  <ele>439.43</ele>
  <time>2026-09-01T19:54:31Z</time>
  <course>236.97</course>
  <speed>0.16552945357246848</speed>
  <fix>3d</fix>
</trkpt>
<trkpt lat="-27.2743162" lon="151.2888186">
  <ele>439.76</ele>
  <time>2026-09-01T19:54:31Z</time>
  <course>234.23</course>
  <speed>0.19</speed>
  <fix>3d</fix>
</trkpt>
<trkpt lat="-27.274316" lon="151.2888183">
  <ele>439.28</ele>
  <time>2026-09-01T19:54:31Z</time>
  <course>236.98</course>
  <speed>0.16552945357246848</speed>
  <fix>3d</fix>
</trkpt>
<trkpt lat="-27.2743162" lon="151.2888186">
  <ele>439.76</ele>
  <time>2026-09-01T19:54:31Z</time>
  <course>234.23</course>
  <speed>0.19</speed>
  <fix>3d</fix>
</trkpt>
<trkpt lat="-27.2743161" lon="151.2888181">
  <ele>439.13</ele>
  <time>2026-09-01T19:54:31Z</time>
  <course>236.99</course>
  <speed>0.15231546211727817</speed>
  <fix>3d</fix>
</trkpt>
<trkpt lat="-27.2743163" lon="151.2888183">
  <ele>439.46</ele>
  <time>2026-09-01T19:54:31Z</time>
  <course>234.45</course>
  <speed>0.18</speed>
  <fix>3d</fix>
</trkpt>
<trkpt lat="-27.2743162" lon="151.288818">
  <ele>438.98</ele>
  <time>2026-09-01T19:54:31Z</time>
  <course>236.99</course>
  <speed>0.15231546211727817</speed>
  <fix>3d</fix>
</trkpt>
<trkpt lat="-27.2743163" lon="151.2888183">
  <ele>439.46</ele>
  <time>2026-09-01T19:54:31Z</time>
  <course>234.45</course>
  <speed>0.18</speed>
  <fix>3d</fix>
</trkpt>
<trkpt lat="-27.2743163" lon="151.2888178">
  <ele>438.83</ele>
  <time>2026-09-01T19:54:31Z</time>
  <course>236.99</course>
  <speed>0.15231546211727817</speed>
  <fix>3d</fix>
</trkpt>
<trkpt lat="-27.2743165" lon="151.288818">
  <ele>439.16</ele>
  <time>2026-09-01T19:54:31Z</time>
  <course>234.66</course>
  <speed>0.17</speed>
  <fix>3d</fix>
</trkpt>
<trkpt lat="-27.2743164" lon="151.2888177">
  <ele>438.68</ele>
  <time>2026-09-01T19:54:31Z</time>
  <course>236.98</course>
  <speed>0.1392838827718412</speed>
  <fix>3d</fix>
</trkpt>
<trkpt lat="-27.2743165" lon="151.288818">
  <ele>439.16</ele>
  <time>2026-09-01T19:54:31Z</time>
  <course>234.66</course>
  <speed>0.17</speed>
  <fix>3d</fix>
</trkpt>
<trkpt lat="-27.2743164" lon="151.2888176">
  <ele>438.53</ele>
  <time>2026-09-01T19:54:31Z</time>
  <course>236.98</course>
  <speed>0.1392838827718412</speed>
  <fix>3d</fix>
</trkpt>
<trkpt lat="-27.2743167" lon="151.2888177">
  <ele>438.86</ele>
  <time>2026-09-01T19:54:31Z</time>
  <course>234.91</course>
  <speed>0.16</speed>
  <fix>3d</fix>
</trkpt>
<trkpt lat="-27.2743165" lon="151.2888174">
  <ele>438.38</ele>
  <time>2026-09-01T19:54:31Z</time>
  <course>236.98</course>
  <speed>0.13</speed>
  <fix>3d</fix>
</trkpt>
<trkpt lat="-27.2743167" lon="151.2888177">
  <ele>438.86</ele>
  <time>2026-09-01T19:54:31Z</time>
  <course>234.91</course>
  <speed>0.16</speed>
  <fix>3d</fix>
</trkpt>
<trkpt lat="-27.2743166" lon="151.2888173">
  <ele>438.23</ele>
  <time>2026-09-01T19:54:32Z</time>
  <course>236.98</course>
  <speed>0.1264911064067352</speed>
  <fix>3d</fix>
</trkpt>
<trkpt lat="-27.2743169" lon="151.2888174">
  <ele>438.56</ele>
  <time>2026-09-01T19:54:32Z</time>
  <course>235.24</course>
  <speed>0.15</speed>
  <fix>3d</fix>
</trkpt>
<trkpt lat="-27.2743167" lon="151.2888172">
  <ele>438.08</ele>
  <time>2026-09-01T19:54:32Z</time>
  <course>236.97</course>
  <speed>0.11704699910719625</speed>
  <fix>3d</fix>
</trkpt>
<trkpt lat="-27.2743169" lon="151.2888174">
  <ele>438.56</ele>
  <time>2026-09-01T19:54:32Z</time>
  <course>235.24</course>
  <speed>0.15</speed>
  <fix>3d</fix>
</trkpt>
<trkpt lat="-27.2743167" lon="151.2888171">
  <ele>437.93</ele>
  <time>2026-09-01T19:54:32Z</time>
  <course>236.97</course>
  <speed>0.11704699910719625</speed>
  <fix>3d</fix>
</trkpt>
<trkpt lat="-27.274317" lon="151.2888171">
  <ele>438.27</ele>
  <time>2026-09-01T19:54:32Z</time>
  <course>235.74</course>
  <speed>0.14</speed>
  <fix>3d</fix>
</trkpt>
<trkpt lat="-27.2743168" lon="151.288817">
  <ele>437.78</ele>
  <time>2026-09-01T19:54:32Z</time>
  <course>236.98</course>
  <speed>0.11401754250991379</speed>
  <fix>3d</fix>
</trkpt>
<trkpt lat="-27.274317" lon="151.2888171">
  <ele>438.27</ele>
  <time>2026-09-01T19:54:32Z</time>
  <course>235.74</course>
  <speed>0.14</speed>
  <fix>3d</fix>
</trkpt>
<trkpt lat="-27.2743169" lon="151.2888169">
  <ele>437.64</ele>
  <time>2026-09-01T19:54:32Z</time>
  <course>236.98</course>
  <speed>0.1044030650891055</speed>
  <fix>3d</fix>
</trkpt>
<trkpt lat="-27.2743172" lon="151.288817">
  <ele>437.97</ele>
  <time>2026-09-01T19:54:32Z</time>
  <course>236.33</course>
  <speed>0.13</speed>
  <fix>3d</fix>
</trkpt>
<trkpt lat="-27.2743169" lon="151.2888168">
  <ele>437.49</ele>
  <time>2026-09-01T19:54:32Z</time>
  <course>237.0</course>
  <speed>0.1044030650891055</speed>
  <fix>3d</fix>
</trkpt>
<trkpt lat="-27.2743172" lon="151.288817">
  <ele>437.97</ele>
  <time>2026-09-01T19:54:32Z</time>
  <course>236.33</course>
  <speed>0.13</speed>
  <fix>3d</fix>
</trkpt>
<trkpt lat="-27.274317" lon="151.2888167">
  <ele>437.34</ele>
  <time>2026-09-01T19:54:32Z</time>
  <course>237.01</course>
  <speed>0.09219544457292887</speed>
  <fix>3d</fix>
</trkpt>
<trkpt lat="-27.2743173" lon="151.2888168">
  <ele>437.66</ele>
  <time>2026-09-01T19:54:32Z</time>
  <course>236.82</course>
  <speed>0.12</speed>
  <fix>3d</fix>
</trkpt>
<trkpt lat="-27.2743171" lon="151.2888166">
  <ele>437.19</ele>
  <time>2026-09-01T19:54:32Z</time>
  <course>237.02</course>
  <speed>0.09219544457292887</speed>
  <fix>3d</fix>
</trkpt>
<trkpt lat="-27.2743173" lon="151.2888168">
  <ele>437.66</ele>
  <time>2026-09-01T19:54:32Z</time>
  <course>236.82</course>
  <speed>0.12</speed>
  <fix>3d</fix>
</trkpt>
<trkpt lat="-27.2743171" lon="151.2888165">
  <ele>437.03</ele>
  <time>2026-09-01T19:54:32Z</time>
  <course>237.04</course>
  <speed>0.0824621125123532</speed>
  <fix>3d</fix>
</trkpt>
<trkpt lat="-27.2743174" lon="151.2888166">
  <ele>437.37</ele>
  <time>2026-09-01T19:54:32Z</time>
  <course>237.06</course>
  <speed>0.1</speed>
  <fix>3d</fix>
</trkpt>
<trkpt lat="-27.2743172" lon="151.2888164">
  <ele>436.88</ele>
  <time>2026-09-01T19:54:32Z</time>
  <course>237.05</course>
  <speed>0.07071067811865475</speed>
  <fix>3d</fix>
</trkpt>
<trkpt lat="-27.2743174" lon="151.2888166">
  <ele>437.37</ele>
  <time>2026-09-01T19:54:32Z</time>
  <course>237.06</course>
  <speed>0.1</speed>
  <fix>3d</fix>
</trkpt>
<trkpt lat="-27.2743172" lon="151.2888163">
  <ele>436.73</ele>
  <time>2026-09-01T19:54:32Z</time>
  <course>237.06</course>
  <speed>0.07071067811865475</speed>
  <fix>3d</fix>
</trkpt>
<trkpt lat="-27.2743175" lon="151.2888163">
  <ele>437.07</ele>
  <time>2026-09-01T19:54:32Z</time>
  <course>237.19</course>
  <speed>0.09</speed>
  <fix>3d</fix>
</trkpt>
<trkpt lat="-27.2743172" lon="151.2888163">
  <ele>436.58</ele>
  <time>2026-09-01T19:54:32Z</time>
  <course>237.06</course>
  <speed>0.06082762530298219</speed>
  <fix>3d</fix>
</trkpt>
<trkpt lat="-27.2743175" lon="151.2888163">
  <ele>437.07</ele>
  <time>2026-09-01T19:54:32Z</time>
  <course>237.19</course>
  <speed>0.09</speed>
  <fix>3d</fix>
</trkpt>
<trkpt lat="-27.2743173" lon="151.2888162">
  <ele>436.43</ele>
  <time>2026-09-01T19:54:32Z</time>
  <course>237.06</course>
  <speed>0.06</speed>
  <fix>3d</fix>
</trkpt>
<trkpt lat="-27.2743176" lon="151.2888162">
  <ele>436.77</ele>
  <time>2026-09-01T19:54:32Z</time>
  <course>237.37</course>
  <speed>0.08</speed>
  <fix>3d</fix>
</trkpt>
<trkpt lat="-27.2743173" lon="151.2888161">
  <ele>436.28</ele>
  <time>2026-09-01T19:54:32Z</time>
  <course>237.07</course>
  <speed>0.05</speed>
  <fix>3d</fix>
</trkpt>
<trkpt lat="-27.2743176" lon="151.2888162">
  <ele>436.77</ele>
  <time>2026-09-01T19:54:32Z</time>
  <course>237.37</course>
  <speed>0.08</speed>
  <fix>3d</fix>
</trkpt>
<trkpt lat="-27.2743174" lon="151.2888161">
  <ele>436.12</ele>
  <time>2026-09-01T19:54:32Z</time>
  <course>237.07</course>
  <speed>0.05</speed>
  <fix>3d</fix>
</trkpt>
<trkpt lat="-27.2743177" lon="151.2888161">
  <ele>436.47</ele>
  <time>2026-09-01T19:54:32Z</time>
  <course>237.65</course>
  <speed>0.07</speed>
  <fix>3d</fix>
</trkpt>
<trkpt lat="-27.2743174" lon="151.288816">
  <ele>435.97</ele>
  <time>2026-09-01T19:54:32Z</time>
  <course>237.08</course>
  <speed>0.04</speed>
  <fix>3d</fix>
</trkpt>
<trkpt lat="-27.2743177" lon="151.2888161">
  <ele>436.47</ele>
  <time>2026-09-01T19:54:32Z</time>
  <course>237.65</course>
  <speed>0.07</speed>
  <fix>3d</fix>
</trkpt>
<trkpt lat="-27.2743174" lon="151.288816">
  <ele>435.83</ele>
  <time>2026-09-01T19:54:32Z</time>
  <course>237.09</course>
  <speed>0.04</speed>
  <fix>3d</fix>
</trkpt>
<trkpt lat="-27.2743177" lon="151.2888159">
  <ele>436.16</ele>
  <time>2026-09-01T19:54:32Z</time>
  <course>237.91</course>
  <speed>0.06</speed>
  <fix>3d</fix>
</trkpt>
<trkpt lat="-27.2743174" lon="151.2888159">
  <ele>435.67</ele>
  <time>2026-09-01T19:54:32Z</time>
  <course>237.1</course>
  <speed>0.03</speed>
  <fix>3d</fix>
</trkpt>
<trkpt lat="-27.2743177" lon="151.2888159">
  <ele>436.16</ele>
  <time>2026-09-01T19:54:32Z</time>
  <course>237.91</course>
  <speed>0.06</speed>
  <fix>3d</fix>
</trkpt>
<trkpt lat="-27.2743175" lon="151.2888159">
  <ele>435.52</ele>
  <time>2026-09-01T19:54:32Z</time>
  <course>237.13</course>
  <speed>0.03</speed>
  <fix>3d</fix>
</trkpt>
<trkpt lat="-27.2743178" lon="151.2888159">
  <ele>435.87</ele>
  <time>2026-09-01T19:54:32Z</time>
  <course>237.8</course>
  <speed>0.04</speed>
  <fix>3d</fix>
</trkpt>
<trkpt lat="-27.2743175" lon="151.2888159">
  <ele>435.37</ele>
  <time>2026-09-01T19:54:32Z</time>
  <course>237.16</course>
  <speed>0.022360679774997897</speed>
  <fix>3d</fix>
</trkpt>
<trkpt lat="-27.2743178" lon="151.2888159">
  <ele>435.87</ele>
  <time>2026-09-01T19:54:32Z</time>
  <course>237.8</course>
  <speed>0.04</speed>
  <fix>3d</fix>
</trkpt>
<trkpt lat="-27.2743175" lon="151.2888158">
  <ele>435.22</ele>
  <time>2026-09-01T19:54:32Z</time>
  <course>237.19</course>
  <speed>0.022360679774997897</speed>
  <fix>3d</fix>
</trkpt>
<trkpt lat="-27.2743178" lon="151.2888158">
  <ele>435.58</ele>
  <time>2026-09-01T19:54:32Z</time>
  <course>236.46</course>
  <speed>0.03</speed>
  <fix>3d</fix>
</trkpt>
<trkpt lat="-27.2743175" lon="151.2888158">
  <ele>435.07</ele>
  <time>2026-09-01T19:54:32Z</time>
  <course>237.23</course>
  <speed>0.01414213562373095</speed>
  <fix>3d</fix>
</trkpt>
<trkpt lat="-27.2743178" lon="151.2888158">
  <ele>435.58</ele>
  <time>2026-09-01T19:54:32Z</time>
  <course>236.46</course>
  <speed>0.03</speed>
  <fix>3d</fix>
</trkpt>
<trkpt lat="-27.2743175" lon="151.2888158">
  <ele>434.92</ele>
  <time>2026-09-01T19:54:32Z</time>
  <course>237.26</course>
  <speed>0.01414213562373095</speed>
  <fix>3d</fix>
</trkpt>
<trkpt lat="-27.2743179" lon="151.2888157">
  <ele>435.28</ele>
  <time>2026-09-01T19:54:32Z</time>
  <course>233.17</course>
  <speed>0.02</speed>
  <fix>3d</fix>
</trkpt>
<trkpt lat="-27.2743176" lon="151.2888158">
  <ele>434.78</ele>
  <time>2026-09-01T19:54:32Z</time>
  <course>237.27</course>
  <speed>0.01</speed>
  <fix>3d</fix>
</trkpt>
<trkpt lat="-27.2743179" lon="151.2888157">
  <ele>435.28</ele>
  <time>2026-09-01T19:54:32Z</time>
  <course>233.17</course>
  <speed>0.02</speed>
  <fix>3d</fix>
</trkpt>
<trkpt lat="-27.2743176" lon="151.2888158">
  <ele>434.63</ele>
  <time>2026-09-01T19:54:32Z</time>
  <course>237.28</course>
  <speed>0.02</speed>
  <fix>3d</fix>
</trkpt>
<trkpt lat="-27.2743179" lon="151.2888156">
  <ele>434.98</ele>
  <time>2026-09-01T19:54:32Z</time>
  <course>228.37</course>
  <speed>0.01</speed>
  <fix>3d</fix>
</trkpt>
<trkpt lat="-27.2743176" lon="151.2888157">
  <ele>434.48</ele>
  <time>2026-09-01T19:54:32Z</time>
  <course>237.27</course>
  <speed>0.02</speed>
  <fix>3d</fix>
</trkpt>
<trkpt lat="-27.2743179" lon="151.2888156">
  <ele>434.98</ele>
  <time>2026-09-01T19:54:32Z</time>
  <course>228.37</course>
  <speed>0.01</speed>
  <fix>3d</fix>
</trkpt>
<trkpt lat="-27.2743176" lon="151.2888157">
  <ele>434.34</ele>
  <time>2026-09-01T19:54:32Z</time>
  <course>237.24</course>
  <speed>0.02</speed>
  <fix>3d</fix>
</trkpt>
<trkpt lat="-27.2743179" lon="151.2888156">
  <ele>434.69</ele>
  <time>2026-09-01T19:54:32Z</time>
  <course>218.65</course>
  <speed>0.0</speed>
  <fix>3d</fix>
</trkpt>
<trkpt lat="-27.2743176" lon="151.2888157">
  <ele>434.19</ele>
  <time>2026-09-01T19:54:32Z</time>
  <course>237.21</course>
  <speed>0.03</speed>
  <fix>3d</fix>
</trkpt>
<trkpt lat="-27.2743179" lon="151.2888156">
  <ele>434.69</ele>
  <time>2026-09-01T19:54:32Z</time>
  <course>218.65</course>
  <speed>0.0</speed>
  <fix>3d</fix>
</trkpt>
<trkpt lat="-27.2743176" lon="151.2888157">
  <ele>434.04</ele>
  <time>2026-09-01T19:54:32Z</time>
  <course>237.19</course>
  <speed>0.03</speed>
  <fix>3d</fix>
</trkpt>
<trkpt lat="-27.2743179" lon="151.2888156">
  <ele>434.39</ele>
  <time>2026-09-01T19:54:32Z</time>
  <course>143.09</course>
  <speed>0.0</speed>
  <fix>3d</fix>
</trkpt>
<trkpt lat="-27.2743176" lon="151.2888157">
  <ele>433.89</ele>
  <time>2026-09-01T19:54:32Z</time>
  <course>237.18</course>
  <speed>0.0316227766016838</speed>
  <fix>3d</fix>
</trkpt>
<trkpt lat="-27.2743179" lon="151.2888156">
  <ele>434.39</ele>
  <time>2026-09-01T19:54:32Z</time>
  <course>143.09</course>
  <speed>0.0</speed>
  <fix>3d</fix>
</trkpt>
<trkpt lat="-27.2743176" lon="151.2888157">
  <ele>433.74</ele>
  <time>2026-09-01T19:54:32Z</time>
  <course>237.17</course>
  <speed>0.0316227766016838</speed>
  <fix>3d</fix>
</trkpt>
<trkpt lat="-27.2743179" lon="151.2888156">
  <ele>434.09</ele>
  <time>2026-09-01T19:54:32Z</time>
  <course>79.93</course>
  <speed>0.0</speed>
  <fix>3d</fix>
</trkpt>
<trkpt lat="-27.2743176" lon="151.2888157">
  <ele>433.59</ele>
  <time>2026-09-01T19:54:32Z</time>
  <course>237.18</course>
  <speed>0.0316227766016838</speed>
  <fix>3d</fix>
</trkpt>
<trkpt lat="-27.2743179" lon="151.2888156">
  <ele>434.09</ele>
  <time>2026-09-01T19:54:32Z</time>
  <course>79.93</course>
  <speed>0.0</speed>
  <fix>3d</fix>
</trkpt>
<trkpt lat="-27.2743176" lon="151.2888157">
  <ele>433.44</ele>
  <time>2026-09-01T19:54:32Z</time>
  <course>237.2</course>
  <speed>0.0316227766016838</speed>
  <fix>3d</fix>
</trkpt>
<trkpt lat="-27.2743179" lon="151.2888156">
  <ele>433.79</ele>
  <time>2026-09-01T19:54:32Z</time>
  <course>71.73</course>
  <speed>0.01</speed>
  <fix>3d</fix>
</trkpt>
<trkpt lat="-27.2743176" lon="151.2888157">
  <ele>433.29</ele>
  <time>2026-09-01T19:54:32Z</time>
  <course>237.23</course>
  <speed>0.03605551275463989</speed>
  <fix>3d</fix>
</trkpt>
<trkpt lat="-27.2743179" lon="151.2888156">
  <ele>433.79</ele>
  <time>2026-09-01T19:54:32Z</time>
  <course>71.73</course>
  <speed>0.01</speed>
  <fix>3d</fix>
</trkpt>
<trkpt lat="-27.2743176" lon="151.2888157">
  <ele>433.14</ele>
  <time>2026-09-01T19:54:32Z</time>
  <course>237.24</course>
  <speed>0.044721359549995794</speed>
  <fix>3d</fix>
</trkpt>
<trkpt lat="-27.2743179" lon="151.2888156">
  <ele>433.49</ele>
  <time>2026-09-01T19:54:32Z</time>
  <course>67.91</course>
  <speed>0.02</speed>
  <fix>3d</fix>
</trkpt>
<trkpt lat="-27.2743176" lon="151.2888157">
  <ele>432.99</ele>
  <time>2026-09-01T19:54:32Z</time>
  <course>237.24</course>
  <speed>0.044721359549995794</speed>
  <fix>3d</fix>
</trkpt>
<trkpt lat="-27.2743179" lon="151.2888156">
  <ele>433.49</ele>
  <time>2026-09-01T19:54:32Z</time>
  <course>67.91</course>
  <speed>0.02</speed>
  <fix>3d</fix>
</trkpt>
<trkpt lat="-27.2743176" lon="151.2888157">
  <ele>432.84</ele>
  <time>2026-09-01T19:54:32Z</time>
  <course>237.24</course>
  <speed>0.044721359549995794</speed>
  <fix>3d</fix>
</trkpt>
<trkpt lat="-27.2743179" lon="151.2888156">
  <ele>433.19</ele>
  <time>2026-09-01T19:54:32Z</time>
  <course>64.47</course>
  <speed>0.02</speed>
  <fix>3d</fix>
</trkpt>
<trkpt lat="-27.2743176" lon="151.2888157">
  <ele>432.69</ele>
  <time>2026-09-01T19:54:32Z</time>
  <course>237.24</course>
  <speed>0.044721359549995794</speed>
  <fix>3d</fix>
</trkpt>
<trkpt lat="-27.2743179" lon="151.2888156">
  <ele>433.19</ele>
  <time>2026-09-01T19:54:32Z</time>
  <course>64.47</course>
  <speed>0.02</speed>
  <fix>3d</fix>
</trkpt>
<trkpt lat="-27.2743176" lon="151.2888157">
  <ele>432.53</ele>
  <time>2026-09-01T19:54:32Z</time>
  <course>237.23</course>
  <speed>0.044721359549995794</speed>
  <fix>3d</fix>
</trkpt>
<trkpt lat="-27.2743179" lon="151.2888157">
  <ele>432.89</ele>
  <time>2026-09-01T19:54:32Z</time>
  <course>63.23</course>
  <speed>0.03</speed>
  <fix>3d</fix>
</trkpt>
<trkpt lat="-27.2743176" lon="151.2888158">
  <ele>432.38</ele>
  <time>2026-09-01T19:54:32Z</time>
  <course>237.23</course>
  <speed>0.044721359549995794</speed>
  <fix>3d</fix>
</trkpt>
<trkpt lat="-27.2743179" lon="151.2888157">
  <ele>432.89</ele>
  <time>2026-09-01T19:54:32Z</time>
  <course>63.23</course>
  <speed>0.03</speed>
  <fix>3d</fix>
</trkpt>
<trkpt lat="-27.2743176" lon="151.2888158">
  <ele>432.23</ele>
  <time>2026-09-01T19:54:32Z</time>
  <course>237.23</course>
  <speed>0.05830951894845301</speed>
  <fix>3d</fix>
</trkpt>
<trkpt lat="-27.2743179" lon="151.2888158">
  <ele>432.59</ele>
  <time>2026-09-01T19:54:32Z</time>
  <course>63.25</course>
  <speed>0.03</speed>
  <fix>3d</fix>
</trkpt>
<trkpt lat="-27.2743176" lon="151.2888158">
  <ele>432.08</ele>
  <time>2026-09-01T19:54:32Z</time>
  <course>237.24</course>
  <speed>0.05830951894845301</speed>
  <fix>3d</fix>
</trkpt>
<trkpt lat="-27.2743179" lon="151.2888158">
  <ele>432.59</ele>
  <time>2026-09-01T19:54:32Z</time>
  <course>63.25</course>
  <speed>0.03</speed>
  <fix>3d</fix>
</trkpt>
<trkpt lat="-27.2743176" lon="151.2888158">
  <ele>431.93</ele>
  <time>2026-09-01T19:54:32Z</time>
  <course>237.26</course>
  <speed>0.05830951894845301</speed>
  <fix>3d</fix>
</trkpt>
<trkpt lat="-27.2743179" lon="151.2888159">
  <ele>432.29</ele>
  <time>2026-09-01T19:54:32Z</time>
  <course>63.7</course>
  <speed>0.03</speed>
  <fix>3d</fix>
</trkpt>
<trkpt lat="-27.2743176" lon="151.2888159">
  <ele>431.79</ele>
  <time>2026-09-01T19:54:32Z</time>
  <course>237.27</course>
  <speed>0.05830951894845301</speed>
  <fix>3d</fix>
</trkpt>
<trkpt lat="-27.2743179" lon="151.2888159">
  <ele>432.29</ele>
  <time>2026-09-01T19:54:32Z</time>
  <course>63.7</course>
  <speed>0.03</speed>
  <fix>3d</fix>
</trkpt>
<trkpt lat="-27.2743175" lon="151.2888159">
  <ele>431.64</ele>
  <time>2026-09-01T19:54:32Z</time>
  <course>237.29</course>
  <speed>0.05830951894845301</speed>
  <fix>3d</fix>
</trkpt>
<trkpt lat="-27.2743179" lon="151.2888159">
  <ele>432.0</ele>
  <time>2026-09-01T19:54:32Z</time>
  <course>63.76</course>
  <speed>0.04</speed>
  <fix>3d</fix>
</trkpt>
<trkpt lat="-27.2743175" lon="151.2888159">
  <ele>431.49</ele>
  <time>2026-09-01T19:54:32Z</time>
  <course>237.3</course>
  <speed>0.05830951894845301</speed>
  <fix>3d</fix>
</trkpt>
<trkpt lat="-27.2743179" lon="151.2888159">
  <ele>432.0</ele>
  <time>2026-09-01T19:54:32Z</time>
  <course>63.76</course>
  <speed>0.04</speed>
  <fix>3d</fix>
</trkpt>
<trkpt lat="-27.2743175" lon="151.288816">
  <ele>431.34</ele>
  <time>2026-09-01T19:54:32Z</time>
  <course>237.3</course>
  <speed>0.05830951894845301</speed>
  <fix>3d</fix>
</trkpt>
<trkpt lat="-27.2743178" lon="151.288816">
  <ele>431.7</ele>
  <time>2026-09-01T19:54:32Z</time>
  <course>63.23</course>
  <speed>0.04</speed>
  <fix>3d</fix>
</trkpt>
<trkpt lat="-27.2743175" lon="151.288816">
  <ele>431.19</ele>
  <time>2026-09-01T19:54:32Z</time>
  <course>237.29</course>
  <speed>0.06403124237432849</speed>
  <fix>3d</fix>
</trkpt>
<trkpt lat="-27.2743178" lon="151.288816">
  <ele>431.7</ele>
  <time>2026-09-01T19:54:32Z</time>
  <course>63.23</course>
  <speed>0.04</speed>
  <fix>3d</fix>
</trkpt>
<trkpt lat="-27.2743175" lon="151.2888161">
  <ele>431.05</ele>
  <time>2026-09-01T19:54:32Z</time>
  <course>237.29</course>
  <speed>0.06403124237432849</speed>
  <fix>3d</fix>
</trkpt>
<trkpt lat="-27.2743178" lon="151.2888161">
  <ele>431.4</ele>
  <time>2026-09-01T19:54:32Z</time>
  <course>63.14</course>
  <speed>0.04</speed>
  <fix>3d</fix>
</trkpt>
<trkpt lat="-27.2743175" lon="151.2888161">
  <ele>430.9</ele>
  <time>2026-09-01T19:54:32Z</time>
  <course>237.28</course>
  <speed>0.06403124237432849</speed>
  <fix>3d</fix>
</trkpt>
<trkpt lat="-27.2743178" lon="151.2888161">
  <ele>431.4</ele>
  <time>2026-09-01T19:54:32Z</time>
  <course>63.14</course>
  <speed>0.04</speed>
  <fix>3d</fix>
</trkpt>
<trkpt lat="-27.2743175" lon="151.2888162">
  <ele>430.75</ele>
  <time>2026-09-01T19:54:32Z</time>
  <course>237.29</course>
  <speed>0.06403124237432849</speed>
  <fix>3d</fix>
</trkpt>
<trkpt lat="-27.2743178" lon="151.2888162">
  <ele>431.1</ele>
  <time>2026-09-01T19:54:32Z</time>
  <course>63.5</course>
  <speed>0.04</speed>
  <fix>3d</fix>
</trkpt>
<trkpt lat="-27.2743175" lon="151.2888162">
  <ele>430.6</ele>
  <time>2026-09-01T19:54:32Z</time>
  <course>237.3</course>
  <speed>0.06403124237432849</speed>
  <fix>3d</fix>
</trkpt>
<trkpt lat="-27.2743178" lon="151.2888162">
  <ele>431.1</ele>
  <time>2026-09-01T19:54:32Z</time>
  <course>63.5</course>
  <speed>0.04</speed>
  <fix>3d</fix>
</trkpt>
<trkpt lat="-27.2743174" lon="151.2888162">
  <ele>430.45</ele>
  <time>2026-09-01T19:54:32Z</time>
  <course>237.31</course>
  <speed>0.06403124237432849</speed>
  <fix>3d</fix>
</trkpt>
<trkpt lat="-27.2743177" lon="151.2888163">
  <ele>430.79</ele>
  <time>2026-09-01T19:54:32Z</time>
  <course>63.55</course>
  <speed>0.05</speed>
  <fix>3d</fix>
</trkpt>
<trkpt lat="-27.2743174" lon="151.2888163">
  <ele>430.3</ele>
  <time>2026-09-01T19:54:32Z</time>
  <course>237.32</course>
  <speed>0.06403124237432849</speed>
  <fix>3d</fix>
</trkpt>
<trkpt lat="-27.2743177" lon="151.2888163">
  <ele>430.79</ele>
  <time>2026-09-01T19:54:32Z</time>
  <course>63.55</course>
  <speed>0.05</speed>
  <fix>3d</fix>
</trkpt>
<trkpt lat="-27.2743174" lon="151.2888163">
  <ele>430.15</ele>
  <time>2026-09-01T19:54:32Z</time>
  <course>237.33</course>
  <speed>0.0565685424949238</speed>
  <fix>3d</fix>
</trkpt>
<trkpt lat="-27.2743177" lon="151.2888164">
  <ele>430.49</ele>
  <time>2026-09-01T19:54:32Z</time>
  <course>63.96</course>
  <speed>0.05</speed>
  <fix>3d</fix>
</trkpt>
<trkpt lat="-27.2743174" lon="151.2888164">
  <ele>430.0</ele>
  <time>2026-09-01T19:54:32Z</time>
  <course>237.35</course>
  <speed>0.0565685424949238</speed>
  <fix>3d</fix>
</trkpt>
<trkpt lat="-27.2743177" lon="151.2888164">
  <ele>430.49</ele>
  <time>2026-09-01T19:54:32Z</time>
  <course>63.96</course>
  <speed>0.05</speed>
  <fix>3d</fix>
</trkpt>
<trkpt lat="-27.2743174" lon="151.2888164">
  <ele>429.84</ele>
  <time>2026-09-01T19:54:32Z</time>
  <course>237.4</course>
  <speed>0.0565685424949238</speed>
  <fix>3d</fix>
</trkpt>
<trkpt lat="-27.2743176" lon="151.2888165">
  <ele>430.19</ele>
  <time>2026-09-01T19:54:32Z</time>
  <course>65.73</course>
  <speed>0.05</speed>
  <fix>3d</fix>
</trkpt>
<trkpt lat="-27.2743174" lon="151.2888165">
  <ele>429.69</ele>
  <time>2026-09-01T19:54:32Z</time>
  <course>237.45</course>
  <speed>0.0565685424949238</speed>
  <fix>3d</fix>
</trkpt>
<trkpt lat="-27.2743176" lon="151.2888165">
  <ele>430.19</ele>
  <time>2026-09-01T19:54:32Z</time>
  <course>65.73</course>
  <speed>0.05</speed>
  <fix>3d</fix>
</trkpt>
<trkpt lat="-27.2743174" lon="151.2888165">
  <ele>429.54</ele>
  <time>2026-09-01T19:54:32Z</time>
  <course>237.51</course>
  <speed>0.0565685424949238</speed>
  <fix>3d</fix>
</trkpt>
<trkpt lat="-27.2743176" lon="151.2888166">
  <ele>429.88</ele>
  <time>2026-09-01T19:54:32Z</time>
  <course>67.6</course>
  <speed>0.04</speed>
  <fix>3d</fix>
</trkpt>
<trkpt lat="-27.2743174" lon="151.2888166">
  <ele>429.38</ele>
  <time>2026-09-01T19:54:32Z</time>
  <course>237.55</course>
  <speed>0.0565685424949238</speed>
  <fix>3d</fix>
</trkpt>
<trkpt lat="-27.2743176" lon="151.2888166">
  <ele>429.88</ele>
  <time>2026-09-01T19:54:32Z</time>
  <course>67.6</course>
  <speed>0.04</speed>
  <fix>3d</fix>
</trkpt>
<trkpt lat="-27.2743173" lon="151.2888166">
  <ele>429.23</ele>
  <time>2026-09-01T19:54:32Z</time>
  <course>237.59</course>
  <speed>0.0565685424949238</speed>
  <fix>3d</fix>
</trkpt>
<trkpt lat="-27.2743176" lon="151.2888166">
  <ele>429.58</ele>
  <time>2026-09-01T19:54:32Z</time>
  <course>68.54</course>
  <speed>0.04</speed>
  <fix>3d</fix>
</trkpt>
<trkpt lat="-27.2743173" lon="151.2888167">
  <ele>429.07</ele>
  <time>2026-09-01T19:54:32Z</time>
  <course>237.6</course>
  <speed>0.0565685424949238</speed>
  <fix>3d</fix>
</trkpt>
<trkpt lat="-27.2743176" lon="151.2888166">
  <ele>429.58</ele>
  <time>2026-09-01T19:54:32Z</time>
  <course>68.54</course>
  <speed>0.04</speed>
  <fix>3d</fix>
</trkpt>
<trkpt lat="-27.2743173" lon="151.2888167">
  <ele>428.92</ele>
  <time>2026-09-01T19:54:32Z</time>
  <course>237.6</course>
  <speed>0.0565685424949238</speed>
  <fix>3d</fix>
</trkpt>
<trkpt lat="-27.2743175" lon="151.2888167">
  <ele>429.28</ele>
  <time>2026-09-01T19:54:32Z</time>
  <course>69.18</course>
  <speed>0.04</speed>
  <fix>3d</fix>
</trkpt>
<trkpt lat="-27.2743173" lon="151.2888168">
  <ele>428.77</ele>
  <time>2026-09-01T19:54:32Z</time>
  <course>237.6</course>
  <speed>0.05</speed>
  <fix>3d</fix>
</trkpt>
<trkpt lat="-27.2743175" lon="151.2888167">
  <ele>429.28</ele>
  <time>2026-09-01T19:54:32Z</time>
  <course>69.18</course>
  <speed>0.04</speed>
  <fix>3d</fix>
</trkpt>
<trkpt lat="-27.2743173" lon="151.2888168">
  <ele>428.62</ele>
  <time>2026-09-01T19:54:32Z</time>
  <course>237.58</course>
  <speed>0.0565685424949238</speed>
  <fix>3d</fix>
</trkpt>
<trkpt lat="-27.2743175" lon="151.2888168">
  <ele>428.97</ele>
  <time>2026-09-01T19:54:32Z</time>
  <course>69.31</course>
  <speed>0.04</speed>
  <fix>3d</fix>
</trkpt>
<trkpt lat="-27.2743173" lon="151.2888168">
  <ele>428.47</ele>
  <time>2026-09-01T19:54:32Z</time>
  <course>237.56</course>
  <speed>0.0565685424949238</speed>
  <fix>3d</fix>
</trkpt>
<trkpt lat="-27.2743175" lon="151.2888168">
  <ele>428.97</ele>
  <time>2026-09-01T19:54:32Z</time>
  <course>69.31</course>
  <speed>0.04</speed>
  <fix>3d</fix>
</trkpt>
<trkpt lat="-27.2743173" lon="151.2888169">
  <ele>428.32</ele>
  <time>2026-09-01T19:54:32Z</time>
  <course>237.54</course>
  <speed>0.0565685424949238</speed>
  <fix>3d</fix>
</trkpt>
<trkpt lat="-27.2743175" lon="151.2888169">
  <ele>428.68</ele>
  <time>2026-09-01T19:54:32Z</time>
  <course>69.82</course>
  <speed>0.04</speed>
  <fix>3d</fix>
</trkpt>
<trkpt lat="-27.2743173" lon="151.2888169">
  <ele>428.17</ele>
  <time>2026-09-01T19:54:32Z</time>
  <course>237.54</course>
  <speed>0.05</speed>
  <fix>3d</fix>
</trkpt>
<trkpt lat="-27.2743175" lon="151.2888169">
  <ele>428.68</ele>
  <time>2026-09-01T19:54:32Z</time>
  <course>69.82</course>
  <speed>0.04</speed>
  <fix>3d</fix>
</trkpt>
<trkpt lat="-27.2743173" lon="151.288817">
  <ele>428.03</ele>
  <time>2026-09-01T19:54:32Z</time>
  <course>237.55</course>
  <speed>0.05</speed>
  <fix>3d</fix>
</trkpt>
<trkpt lat="-27.2743175" lon="151.288817">
  <ele>428.38</ele>
  <time>2026-09-01T19:54:32Z</time>
  <course>71.29</course>
  <speed>0.04</speed>
  <fix>3d</fix>
</trkpt>
<trkpt lat="-27.2743173" lon="151.288817">
  <ele>427.88</ele>
  <time>2026-09-01T19:54:32Z</time>
  <course>237.58</course>
  <speed>0.05</speed>
  <fix>3d</fix>
</trkpt>
<trkpt lat="-27.2743175" lon="151.288817">
  <ele>428.38</ele>
  <time>2026-09-01T19:54:32Z</time>
  <course>71.29</course>
  <speed>0.04</speed>
  <fix>3d</fix>
</trkpt>
<trkpt lat="-27.2743172" lon="151.2888171">
  <ele>427.73</ele>
  <time>2026-09-01T19:54:32Z</time>
  <course>237.62</course>
  <speed>0.05</speed>
  <fix>3d</fix>
</trkpt>
<trkpt lat="-27.2743174" lon="151.2888171">
  <ele>428.08</ele>
  <time>2026-09-01T19:54:32Z</time>
  <course>73.04</course>
  <speed>0.04</speed>
  <fix>3d</fix>
</trkpt>
<trkpt lat="-27.2743172" lon="151.2888171">
  <ele>427.58</ele>
  <time>2026-09-01T19:54:32Z</time>
  <course>237.66</course>
  <speed>0.04242640687119285</speed>
  <fix>3d</fix>
</trkpt>
<trkpt lat="-27.2743174" lon="151.2888171">
  <ele>428.08</ele>
  <time>2026-09-01T19:54:32Z</time>
  <course>73.04</course>
  <speed>0.04</speed>
  <fix>3d</fix>
</trkpt>
<trkpt lat="-27.2743172" lon="151.2888171">
  <ele>427.43</ele>
  <time>2026-09-01T19:54:32Z</time>
  <course>237.7</course>
  <speed>0.04242640687119285</speed>
  <fix>3d</fix>
</trkpt>
<trkpt lat="-27.2743174" lon="151.2888171">
  <ele>427.79</ele>
  <time>2026-09-01T19:54:32Z</time>
  <course>75.31</course>
  <speed>0.03</speed>
  <fix>3d</fix>
</trkpt>
<trkpt lat="-27.2743172" lon="151.2888172">
  <ele>427.28</ele>
  <time>2026-09-01T19:54:32Z</time>
  <course>237.74</course>
  <speed>0.04242640687119285</speed>
  <fix>3d</fix>
</trkpt>
<trkpt lat="-27.2743174" lon="151.2888171">
  <ele>427.79</ele>
  <time>2026-09-01T19:54:32Z</time>
  <course>75.31</course>
  <speed>0.03</speed>
  <fix>3d</fix>
</trkpt>
<trkpt lat="-27.2743172" lon="151.2888172">
  <ele>427.13</ele>
  <time>2026-09-01T19:54:32Z</time>
  <course>237.77</course>
  <speed>0.04242640687119285</speed>
  <fix>3d</fix>
</trkpt>
<trkpt lat="-27.2743174" lon="151.2888172">
  <ele>427.49</ele>
  <time>2026-09-01T19:54:32Z</time>
  <course>78.4</course>
  <speed>0.03</speed>
  <fix>3d</fix>
</trkpt>
<trkpt lat="-27.2743172" lon="151.2888172">
  <ele>426.98</ele>
  <time>2026-09-01T19:54:32Z</time>
  <course>237.8</course>
  <speed>0.04242640687119285</speed>
  <fix>3d</fix>
</trkpt>
<trkpt lat="-27.2743174" lon="151.2888172">
  <ele>427.49</ele>
  <time>2026-09-01T19:54:32Z</time>
  <course>78.4</course>
  <speed>0.03</speed>
  <fix>3d</fix>
</trkpt>
<trkpt lat="-27.2743172" lon="151.2888173">
  <ele>426.83</ele>
  <time>2026-09-01T19:54:32Z</time>
  <course>237.82</course>
  <speed>0.04242640687119285</speed>
  <fix>3d</fix>
</trkpt>
<trkpt lat="-27.2743174" lon="151.2888173">
  <ele>427.19</ele>
  <time>2026-09-01T19:54:32Z</time>
  <course>81.64</course>
  <speed>0.03</speed>
  <fix>3d</fix>
</trkpt>
<trkpt lat="-27.2743172" lon="151.2888173">
  <ele>426.68</ele>
  <time>2026-09-01T19:54:32Z</time>
  <course>237.82</course>
  <speed>0.04242640687119285</speed>
  <fix>3d</fix>
</trkpt>
<trkpt lat="-27.2743174" lon="151.2888173">
  <ele>427.19</ele>
  <time>2026-09-01T19:54:32Z</time>
  <course>81.64</course>
  <speed>0.03</speed>
  <fix>3d</fix>
</trkpt>
<trkpt lat="-27.2743172" lon="151.2888173">
  <ele>426.53</ele>
  <time>2026-09-01T19:54:32Z</time>
  <course>237.83</course>
  <speed>0.03605551275463989</speed>
  <fix>3d</fix>
</trkpt>
<trkpt lat="-27.2743174" lon="151.2888174">
  <ele>426.89</ele>
  <time>2026-09-01T19:54:32Z</time>
  <course>84.82</course>
  <speed>0.03</speed>
  <fix>3d</fix>
</trkpt>
<trkpt lat="-27.2743172" lon="151.2888174">
  <ele>426.38</ele>
  <time>2026-09-01T19:54:32Z</time>
  <course>237.85</course>
  <speed>0.03605551275463989</speed>
  <fix>3d</fix>
</trkpt>
<trkpt lat="-27.2743174" lon="151.2888174">
  <ele>426.89</ele>
  <time>2026-09-01T19:54:32Z</time>
  <course>84.82</course>
  <speed>0.03</speed>
  <fix>3d</fix>
</trkpt>
<trkpt lat="-27.2743172" lon="151.2888174">
  <ele>426.23</ele>
  <time>2026-09-01T19:54:32Z</time>
  <course>237.87</course>
  <speed>0.03605551275463989</speed>
  <fix>3d</fix>
</trkpt>
<trkpt lat="-27.2743174" lon="151.2888174">
  <ele>426.59</ele>
  <time>2026-09-01T19:54:32Z</time>
  <course>88.95</course>
  <speed>0.02</speed>
  <fix>3d</fix>
</trkpt>
<trkpt lat="-27.2743172" lon="151.2888174">
  <ele>426.08</ele>
  <time>2026-09-01T19:54:32Z</time>
  <course>237.88</course>
  <speed>0.0282842712474619</speed>
  <fix>3d</fix>
</trkpt>
<trkpt lat="-27.2743174" lon="151.2888174">
  <ele>426.59</ele>
  <time>2026-09-01T19:54:32Z</time>
  <course>88.95</course>
  <speed>0.02</speed>
  <fix>3d</fix>
</trkpt>
<trkpt lat="-27.2743172" lon="151.2888174">
  <ele>425.93</ele>
  <time>2026-09-01T19:54:32Z</time>
  <course>237.88</course>
  <speed>0.0282842712474619</speed>
  <fix>3d</fix>
</trkpt>
<trkpt lat="-27.2743174" lon="151.2888175">
  <ele>426.29</ele>
  <time>2026-09-01T19:54:32Z</time>
  <course>92.6</course>
  <speed>0.02</speed>
  <fix>3d</fix>
</trkpt>
<trkpt lat="-27.2743172" lon="151.2888175">
  <ele>425.79</ele>
  <time>2026-09-01T19:54:32Z</time>
  <course>237.88</course>
  <speed>0.0282842712474619</speed>
  <fix>3d</fix>
</trkpt>
<trkpt lat="-27.2743174" lon="151.2888175">
  <ele>426.29</ele>
  <time>2026-09-01T19:54:32Z</time>
  <course>92.6</course>
  <speed>0.02</speed>
  <fix>3d</fix>
</trkpt>
<trkpt lat="-27.2743172" lon="151.2888175">
  <ele>425.64</ele>
  <time>2026-09-01T19:54:32Z</time>
  <course>237.9</course>
  <speed>0.0282842712474619</speed>
  <fix>3d</fix>
</trkpt>
<trkpt lat="-27.2743174" lon="151.2888175">
  <ele>426.0</ele>
  <time>2026-09-01T19:54:32Z</time>
  <course>96.53</course>
  <speed>0.02</speed>
  <fix>3d</fix>
</trkpt>
<trkpt lat="-27.2743172" lon="151.2888175">
  <ele>425.49</ele>
  <time>2026-09-01T19:54:32Z</time>
  <course>237.92</course>
  <speed>0.0282842712474619</speed>
  <fix>3d</fix>
</trkpt>
<trkpt lat="-27.2743174" lon="151.2888175">
  <ele>426.0</ele>
  <time>2026-09-01T19:54:32Z</time>
  <course>96.53</course>
  <speed>0.02</speed>
  <fix>3d</fix>
</trkpt>
<trkpt lat="-27.2743172" lon="151.2888175">
  <ele>425.34</ele>
  <time>2026-09-01T19:54:32Z</time>
  <course>237.94</course>
  <speed>0.0316227766016838</speed>
  <fix>3d</fix>
</trkpt>
<trkpt lat="-27.2743174" lon="151.2888176">
  <ele>425.7</ele>
  <time>2026-09-01T19:54:32Z</time>
  <course>102.65</course>
  <speed>0.02</speed>
  <fix>3d</fix>
</trkpt>
<trkpt lat="-27.2743172" lon="151.2888176">
  <ele>425.19</ele>
  <time>2026-09-01T19:54:32Z</time>
  <course>237.95</course>
  <speed>0.022360679774997897</speed>
  <fix>3d</fix>
</trkpt>
<trkpt lat="-27.2743174" lon="151.2888176">
  <ele>425.7</ele>
  <time>2026-09-01T19:54:32Z</time>
  <course>102.65</course>
  <speed>0.02</speed>
  <fix>3d</fix>
</trkpt>
<trkpt lat="-27.2743172" lon="151.2888176">
  <ele>425.04</ele>
  <time>2026-09-01T19:54:32Z</time>
  <course>237.95</course>
  <speed>0.022360679774997897</speed>
  <fix>3d</fix>
</trkpt>
<trkpt lat="-27.2743174" lon="151.2888176">
  <ele>425.39</ele>
  <time>2026-09-01T19:54:32Z</time>
  <course>109.17</course>
  <speed>0.02</speed>
  <fix>3d</fix>
</trkpt>
<trkpt lat="-27.2743172" lon="151.2888176">
  <ele>424.89</ele>
  <time>2026-09-01T19:54:32Z</time>
  <course>237.95</course>
  <speed>0.022360679774997897</speed>
  <fix>3d</fix>
</trkpt>
<trkpt lat="-27.2743174" lon="151.2888176">
  <ele>425.39</ele>
  <time>2026-09-01T19:54:32Z</time>
  <course>109.17</course>
  <speed>0.02</speed>
  <fix>3d</fix>
</trkpt>
<trkpt lat="-27.2743172" lon="151.2888176">
  <ele>424.73</ele>
  <time>2026-09-01T19:54:32Z</time>
  <course>237.96</course>
  <speed>0.01414213562373095</speed>
  <fix>3d</fix>
</trkpt>
<trkpt lat="-27.2743174" lon="151.2888177">
  <ele>425.09</ele>
  <time>2026-09-01T19:54:32Z</time>
  <course>116.71</course>
  <speed>0.02</speed>
  <fix>3d</fix>
</trkpt>
<trkpt lat="-27.2743172" lon="151.2888176">
  <ele>424.58</ele>
  <time>2026-09-01T19:54:32Z</time>
  <course>237.98</course>
  <speed>0.022360679774997897</speed>
  <fix>3d</fix>
</trkpt>
<trkpt lat="-27.2743174" lon="151.2888177">
  <ele>425.09</ele>
  <time>2026-09-01T19:54:32Z</time>
  <course>116.71</course>
  <speed>0.02</speed>
  <fix>3d</fix>
</trkpt>
<trkpt lat="-27.2743172" lon="151.2888176">
  <ele>424.43</ele>
  <time>2026-09-01T19:54:32Z</time>
  <course>238.02</course>
  <speed>0.022360679774997897</speed>
  <fix>3d</fix>
</trkpt>
<trkpt lat="-27.2743174" lon="151.2888178">
  <ele>424.79</ele>
  <time>2026-09-01T19:54:32Z</time>
  <course>126.16</course>
  <speed>0.02</speed>
  <fix>3d</fix>
</trkpt>
<trkpt lat="-27.2743172" lon="151.2888177">
  <ele>424.28</ele>
  <time>2026-09-01T19:54:32Z</time>
  <course>238.06</course>
  <speed>0.01414213562373095</speed>
  <fix>3d</fix>
</trkpt>
<trkpt lat="-27.2743174" lon="151.2888178">
  <ele>424.79</ele>
  <time>2026-09-01T19:54:32Z</time>
  <course>126.16</course>
  <speed>0.02</speed>
  <fix>3d</fix>
</trkpt>
<trkpt lat="-27.2743172" lon="151.2888177">
  <ele>424.13</ele>
  <time>2026-09-01T19:54:32Z</time>
  <course>238.09</course>
  <speed>0.01414213562373095</speed>
  <fix>3d</fix>
</trkpt>
<trkpt lat="-27.2743174" lon="151.2888178">
  <ele>424.49</ele>
  <time>2026-09-01T19:54:32Z</time>
  <course>135.14</course>
  <speed>0.02</speed>
  <fix>3d</fix>
</trkpt>
<trkpt lat="-27.2743172" lon="151.2888177">
  <ele>423.98</ele>
  <time>2026-09-01T19:54:32Z</time>
  <course>238.13</course>
  <speed>0.01414213562373095</speed>
  <fix>3d</fix>
</trkpt>
<trkpt lat="-27.2743174" lon="151.2888178">
  <ele>424.49</ele>
  <time>2026-09-01T19:54:32Z</time>
  <course>135.14</course>
  <speed>0.02</speed>
  <fix>3d</fix>
</trkpt>
<trkpt lat="-27.2743172" lon="151.2888177">
  <ele>423.83</ele>
  <time>2026-09-01T19:54:32Z</time>
  <course>238.17</course>
  <speed>0.01414213562373095</speed>
  <fix>3d</fix>
</trkpt>
<trkpt lat="-27.2743174" lon="151.2888178">
  <ele>424.19</ele>
  <time>2026-09-01T19:54:32Z</time>
  <course>142.83</course>
  <speed>0.02</speed>
  <fix>3d</fix>
</trkpt>
<trkpt lat="-27.2743172" lon="151.2888177">
  <ele>423.68</ele>
  <time>2026-09-01T19:54:32Z</time>
  <course>238.21</course>
  <speed>0.01414213562373095</speed>
  <fix>3d</fix>
</trkpt>
<trkpt lat="-27.2743174" lon="151.2888178">
  <ele>424.19</ele>
  <time>2026-09-01T19:54:32Z</time>
  <course>142.83</course>
  <speed>0.02</speed>
  <fix>3d</fix>
</trkpt>
<trkpt lat="-27.2743172" lon="151.2888178">
  <ele>423.53</ele>
  <time>2026-09-01T19:54:32Z</time>
  <course>238.24</course>
  <speed>0.01414213562373095</speed>
  <fix>3d</fix>
</trkpt>
<trkpt lat="-27.2743174" lon="151.2888178">
  <ele>423.89</ele>
  <time>2026-09-01T19:54:32Z</time>
  <course>149.22</course>
  <speed>0.02</speed>
  <fix>3d</fix>
</trkpt>
<trkpt lat="-27.2743172" lon="151.2888178">
  <ele>423.38</ele>
  <time>2026-09-01T19:54:32Z</time>
  <course>238.27</course>
  <speed>0.01</speed>
  <fix>3d</fix>
</trkpt>
<trkpt lat="-27.2743174" lon="151.2888178">
  <ele>423.89</ele>
  <time>2026-09-01T19:54:32Z</time>
  <course>149.22</course>
  <speed>0.02</speed>
  <fix>3d</fix>
</trkpt>
<trkpt lat="-27.2743172" lon="151.2888178">
  <ele>423.23</ele>
  <time>2026-09-01T19:54:32Z</time>
  <course>238.29</course>
  <speed>0.01</speed>
  <fix>3d</fix>
</trkpt>
<trkpt lat="-27.2743175" lon="151.2888179">
  <ele>423.59</ele>
  <time>2026-09-01T19:54:32Z</time>
  <course>154.41</course>
  <speed>0.02</speed>
  <fix>3d</fix>
</trkpt>
<trkpt lat="-27.2743172" lon="151.2888178">
  <ele>423.08</ele>
  <time>2026-09-01T19:54:32Z</time>
  <course>238.31</course>
  <speed>0.01</speed>
  <fix>3d</fix>
</trkpt>
<trkpt lat="-27.2743175" lon="151.2888179">
  <ele>423.59</ele>
  <time>2026-09-01T19:54:32Z</time>
  <course>154.41</course>
  <speed>0.02</speed>
  <fix>3d</fix>
</trkpt>
<trkpt lat="-27.2743173" lon="151.2888178">
  <ele>422.92</ele>
  <time>2026-09-01T19:54:32Z</time>
  <course>238.34</course>
  <speed>0.01</speed>
  <fix>3d</fix>
</trkpt>
<trkpt lat="-27.2743175" lon="151.2888179">
  <ele>423.29</ele>
  <time>2026-09-01T19:54:32Z</time>
  <course>158.12</course>
  <speed>0.02</speed>
  <fix>3d</fix>
</trkpt>
<trkpt lat="-27.2743173" lon="151.2888178">
  <ele>422.77</ele>
  <time>2026-09-01T19:54:32Z</time>
  <course>238.38</course>
  <speed>0.0</speed>
  <fix>3d</fix>
</trkpt>
<trkpt lat="-27.2743175" lon="151.2888179">
  <ele>423.29</ele>
  <time>2026-09-01T19:54:32Z</time>
  <course>158.12</course>
  <speed>0.02</speed>
  <fix>3d</fix>
</trkpt>
<trkpt lat="-27.2743173" lon="151.2888178">
  <ele>422.63</ele>
  <time>2026-09-01T19:54:32Z</time>
  <course>238.41</course>
  <speed>0.0</speed>
  <fix>3d</fix>
</trkpt>
<trkpt lat="-27.2743175" lon="151.2888179">
  <ele>422.99</ele>
  <time>2026-09-01T19:54:32Z</time>
  <course>161.94</course>
  <speed>0.02</speed>
  <fix>3d</fix>
</trkpt>
<trkpt lat="-27.2743173" lon="151.2888178">
  <ele>422.48</ele>
  <time>2026-09-01T19:54:32Z</time>
  <course>238.45</course>
  <speed>0.0</speed>
  <fix>3d</fix>
</trkpt>
<trkpt lat="-27.2743175" lon="151.2888179">
  <ele>422.99</ele>
  <time>2026-09-01T19:54:32Z</time>
  <course>161.94</course>
  <speed>0.02</speed>
  <fix>3d</fix>
</trkpt>
<trkpt lat="-27.2743173" lon="151.2888179">
  <ele>422.32</ele>
  <time>2026-09-01T19:54:32Z</time>
  <course>238.49</course>
  <speed>0.01</speed>
  <fix>3d</fix>
</trkpt>
<trkpt lat="-27.2743176" lon="151.2888179">
  <ele>422.69</ele>
  <time>2026-09-01T19:54:32Z</time>
  <course>165.38</course>
  <speed>0.02</speed>
  <fix>3d</fix>
</trkpt>
<trkpt lat="-27.2743174" lon="151.2888179">
  <ele>422.17</ele>
  <time>2026-09-01T19:54:32Z</time>
  <course>238.53</course>
  <speed>0.0</speed>
  <fix>3d</fix>
</trkpt>
<trkpt lat="-27.2743176" lon="151.2888179">
  <ele>422.69</ele>
  <time>2026-09-01T19:54:32Z</time>
  <course>165.38</course>
  <speed>0.02</speed>
  <fix>3d</fix>
</trkpt>
<trkpt lat="-27.2743174" lon="151.2888179">
  <ele>422.02</ele>
  <time>2026-09-01T19:54:32Z</time>
  <course>238.56</course>
  <speed>0.0</speed>
  <fix>3d</fix>
</trkpt>
<trkpt lat="-27.2743176" lon="151.2888179">
  <ele>422.39</ele>
  <time>2026-09-01T19:54:32Z</time>
  <course>168.25</course>
  <speed>0.03</speed>
  <fix>3d</fix>
</trkpt>
<trkpt lat="-27.2743174" lon="151.2888179">
  <ele>421.87</ele>
  <time>2026-09-01T19:54:32Z</time>
  <course>238.59</course>
  <speed>0.0</speed>
  <fix>3d</fix>
</trkpt>
<trkpt lat="-27.2743176" lon="151.2888179">
  <ele>422.39</ele>
  <time>2026-09-01T19:54:32Z</time>
  <course>168.25</course>
  <speed>0.03</speed>
  <fix>3d</fix>
</trkpt>
<trkpt lat="-27.2743174" lon="151.2888179">
  <ele>421.73</ele>
  <time>2026-09-01T19:54:32Z</time>
  <course>238.62</course>
  <speed>0.0</speed>
  <fix>3d</fix>
</trkpt>
<trkpt lat="-27.2743177" lon="151.288818">
  <ele>422.1</ele>
  <time>2026-09-01T19:54:32Z</time>
  <course>170.33</course>
  <speed>0.03</speed>
  <fix>3d</fix>
</trkpt>
<trkpt lat="-27.2743174" lon="151.2888179">
  <ele>421.58</ele>
  <time>2026-09-01T19:54:32Z</time>
  <course>238.64</course>
  <speed>0.0</speed>
  <fix>3d</fix>
</trkpt>
<trkpt lat="-27.2743177" lon="151.288818">
  <ele>422.1</ele>
  <time>2026-09-01T19:54:32Z</time>
  <course>170.33</course>
  <speed>0.03</speed>
  <fix>3d</fix>
</trkpt>
<trkpt lat="-27.2743175" lon="151.2888179">
  <ele>421.43</ele>
  <time>2026-09-01T19:54:32Z</time>
  <course>238.67</course>
  <speed>0.0</speed>
  <fix>3d</fix>
</trkpt>
<trkpt lat="-27.2743178" lon="151.288818">
  <ele>421.8</ele>
  <time>2026-09-01T19:54:32Z</time>
  <course>171.82</course>
  <speed>0.03</speed>
  <fix>3d</fix>
</trkpt>
<trkpt lat="-27.2743175" lon="151.2888179">
  <ele>421.28</ele>
  <time>2026-09-01T19:54:32Z</time>
  <course>238.69</course>
  <speed>0.0</speed>
  <fix>3d</fix>
</trkpt>
<trkpt lat="-27.2743178" lon="151.288818">
  <ele>421.8</ele>
  <time>2026-09-01T19:54:32Z</time>
  <course>171.82</course>
  <speed>0.03</speed>
  <fix>3d</fix>
</trkpt>
<trkpt lat="-27.2743175" lon="151.2888179">
  <ele>421.13</ele>
  <time>2026-09-01T19:54:32Z</time>
  <course>238.71</course>
  <speed>0.0</speed>
  <fix>3d</fix>
</trkpt>
<trkpt lat="-27.2743178" lon="151.288818">
  <ele>421.5</ele>
  <time>2026-09-01T19:54:32Z</time>
  <course>173.67</course>
  <speed>0.03</speed>
  <fix>3d</fix>
</trkpt>
<trkpt lat="-27.2743176" lon="151.2888179">
  <ele>420.98</ele>
  <time>2026-09-01T19:54:32Z</time>
  <course>238.74</course>
  <speed>0.0</speed>
  <fix>3d</fix>
</trkpt>
<trkpt lat="-27.2743178" lon="151.288818">
  <ele>421.5</ele>
  <time>2026-09-01T19:54:32Z</time>
  <course>173.67</course>
  <speed>0.03</speed>
  <fix>3d</fix>
</trkpt>
<trkpt lat="-27.2743176" lon="151.2888179">
  <ele>420.83</ele>
  <time>2026-09-01T19:54:32Z</time>
  <course>238.78</course>
  <speed>0.0</speed>
  <fix>3d</fix>
</trkpt>
<trkpt lat="-27.2743179" lon="151.288818">
  <ele>421.2</ele>
  <time>2026-09-01T19:54:32Z</time>
  <course>174.97</course>
  <speed>0.03</speed>
  <fix>3d</fix>
</trkpt>
<trkpt lat="-27.2743176" lon="151.2888179">
  <ele>420.68</ele>
  <time>2026-09-01T19:54:32Z</time>
  <course>238.82</course>
  <speed>0.0</speed>
  <fix>3d</fix>
</trkpt>
<trkpt lat="-27.2743179" lon="151.288818">
  <ele>421.2</ele>
  <time>2026-09-01T19:54:32Z</time>
  <course>174.97</course>
  <speed>0.03</speed>
  <fix>3d</fix>
</trkpt>
<trkpt lat="-27.2743177" lon="151.2888179">
  <ele>420.53</ele>
  <time>2026-09-01T19:54:32Z</time>
  <course>238.87</course>
  <speed>0.0</speed>
  <fix>3d</fix>
</trkpt>
<trkpt lat="-27.274318" lon="151.288818">
  <ele>420.9</ele>
  <time>2026-09-01T19:54:32Z</time>
  <course>175.35</course>
  <speed>0.04</speed>
  <fix>3d</fix>
</trkpt>
<trkpt lat="-27.2743177" lon="151.2888179">
  <ele>420.38</ele>
  <time>2026-09-01T19:54:32Z</time>
  <course>238.93</course>
  <speed>0.0</speed>
  <fix>3d</fix>
</trkpt>
<trkpt lat="-27.274318" lon="151.288818">
  <ele>420.9</ele>
  <time>2026-09-01T19:54:32Z</time>
  <course>175.35</course>
  <speed>0.04</speed>
  <fix>3d</fix>
</trkpt>
<trkpt lat="-27.2743177" lon="151.288818">
  <ele>420.23</ele>
  <time>2026-09-01T19:54:32Z</time>
  <course>238.91</course>
  <speed>0.0</speed>
  <fix>3d</fix>
</trkpt>
<trkpt lat="-27.274318" lon="151.288818">
  <ele>420.6</ele>
  <time>2026-09-01T19:54:32Z</time>
  <course>177.46</course>
  <speed>0.03</speed>
  <fix>3d</fix>
</trkpt>
<trkpt lat="-27.2743178" lon="151.288818">
  <ele>420.08</ele>
  <time>2026-09-01T19:54:32Z</time>
  <course>238.82</course>
  <speed>0.0</speed>
  <fix>3d</fix>
</trkpt>
<trkpt lat="-27.274318" lon="151.288818">
  <ele>420.6</ele>
  <time>2026-09-01T19:54:32Z</time>
  <course>177.46</course>
  <speed>0.03</speed>
  <fix>3d</fix>
</trkpt>
<trkpt lat="-27.2743178" lon="151.2888179">
  <ele>419.93</ele>
  <time>2026-09-01T19:54:32Z</time>
  <course>238.67</course>
  <speed>0.01</speed>
  <fix>3d</fix>
</trkpt>
<trkpt lat="-27.2743181" lon="151.288818">
  <ele>420.3</ele>
  <time>2026-09-01T19:54:32Z</time>
  <course>186.51</course>
  <speed>0.03</speed>
  <fix>3d</fix>
</trkpt>
<trkpt lat="-27.2743178" lon="151.2888179">
  <ele>419.79</ele>
  <time>2026-09-01T19:54:32Z</time>
  <course>238.5</course>
  <speed>0.01</speed>
  <fix>3d</fix>
</trkpt>
<trkpt lat="-27.2743181" lon="151.288818">
  <ele>420.3</ele>
  <time>2026-09-01T19:54:32Z</time>
  <course>186.51</course>
  <speed>0.03</speed>
  <fix>3d</fix>
</trkpt>
<trkpt lat="-27.2743178" lon="151.2888179">
  <ele>419.64</ele>
  <time>2026-09-01T19:54:32Z</time>
  <course>238.34</course>
  <speed>0.022360679774997897</speed>
  <fix>3d</fix>
</trkpt>
<trkpt lat="-27.2743182" lon="151.288818">
  <ele>420.0</ele>
  <time>2026-09-01T19:54:32Z</time>
  <course>208.21</course>
  <speed>0.02</speed>
  <fix>3d</fix>
</trkpt>
<trkpt lat="-27.2743178" lon="151.2888179">
  <ele>419.49</ele>
  <time>2026-09-01T19:54:32Z</time>
  <course>238.22</course>
  <speed>0.022360679774997897</speed>
  <fix>3d</fix>
</trkpt>
<trkpt lat="-27.2743182" lon="151.288818">
  <ele>420.0</ele>
  <time>2026-09-01T19:54:32Z</time>
  <course>208.21</course>
  <speed>0.02</speed>
  <fix>3d</fix>
</trkpt>
<trkpt lat="-27.2743178" lon="151.2888179">
  <ele>419.34</ele>
  <time>2026-09-01T19:54:32Z</time>
  <course>238.14</course>
  <speed>0.0316227766016838</speed>
  <fix>3d</fix>
</trkpt>
<trkpt lat="-27.2743182" lon="151.288818">
  <ele>419.7</ele>
  <time>2026-09-01T19:54:32Z</time>
  <course>242.2</course>
  <speed>0.01</speed>
  <fix>3d</fix>
</trkpt>
<trkpt lat="-27.2743178" lon="151.2888179">
  <ele>419.19</ele>
  <time>2026-09-01T19:54:32Z</time>
  <course>238.1</course>
  <speed>0.0316227766016838</speed>
  <fix>3d</fix>
</trkpt>
<trkpt lat="-27.2743182" lon="151.288818">
  <ele>419.7</ele>
  <time>2026-09-01T19:54:32Z</time>
  <course>242.2</course>
  <speed>0.01</speed>
  <fix>3d</fix>
</trkpt>
<trkpt lat="-27.2743178" lon="151.2888179">
  <ele>419.04</ele>
  <time>2026-09-01T19:54:32Z</time>
  <course>238.1</course>
  <speed>0.044721359549995794</speed>
  <fix>3d</fix>
</trkpt>
<trkpt lat="-27.2743182" lon="151.288818">
  <ele>419.4</ele>
  <time>2026-09-01T19:54:32Z</time>
  <course>272.84</course>
  <speed>0.02</speed>
  <fix>3d</fix>
</trkpt>
<trkpt lat="-27.2743178" lon="151.2888179">
  <ele>418.88</ele>
  <time>2026-09-01T19:54:32Z</time>
  <course>238.12</course>
  <speed>0.044721359549995794</speed>
  <fix>3d</fix>
</trkpt>
<trkpt lat="-27.2743182" lon="151.288818">
  <ele>419.4</ele>
  <time>2026-09-01T19:54:32Z</time>
  <course>272.84</course>
  <speed>0.02</speed>
  <fix>3d</fix>
</trkpt>
<trkpt lat="-27.2743178" lon="151.2888179">
  <ele>418.73</ele>
  <time>2026-09-01T19:54:32Z</time>
  <course>238.16</course>
  <speed>0.044721359549995794</speed>
  <fix>3d</fix>
</trkpt>
<trkpt lat="-27.2743182" lon="151.2888179">
  <ele>419.1</ele>
  <time>2026-09-01T19:54:32Z</time>
  <course>291.59</course>
  <speed>0.02</speed>
  <fix>3d</fix>
</trkpt>
<trkpt lat="-27.2743179" lon="151.2888179">
  <ele>418.58</ele>
  <time>2026-09-01T19:54:32Z</time>
  <course>238.21</course>
  <speed>0.053851648071345036</speed>
  <fix>3d</fix>
</trkpt>
<trkpt lat="-27.2743182" lon="151.2888179">
  <ele>419.1</ele>
  <time>2026-09-01T19:54:32Z</time>
  <course>291.59</course>
  <speed>0.02</speed>
  <fix>3d</fix>
</trkpt>
<trkpt lat="-27.2743179" lon="151.2888179">
  <ele>418.43</ele>
  <time>2026-09-01T19:54:32Z</time>
  <course>238.25</course>
  <speed>0.053851648071345036</speed>
  <fix>3d</fix>
</trkpt>
<trkpt lat="-27.2743182" lon="151.2888179">
  <ele>418.8</ele>
  <time>2026-09-01T19:54:32Z</time>
  <course>302.64</course>
  <speed>0.03</speed>
  <fix>3d</fix>
</trkpt>
<trkpt lat="-27.2743179" lon="151.2888178">
  <ele>418.28</ele>
  <time>2026-09-01T19:54:32Z</time>
  <course>238.28</course>
  <speed>0.053851648071345036</speed>
  <fix>3d</fix>
</trkpt>
<trkpt lat="-27.2743182" lon="151.2888179">
  <ele>418.8</ele>
  <time>2026-09-01T19:54:32Z</time>
  <course>302.64</course>
  <speed>0.03</speed>
  <fix>3d</fix>
</trkpt>
<trkpt lat="-27.2743178" lon="151.2888178">
  <ele>418.13</ele>
  <time>2026-09-01T19:54:32Z</time>
  <course>238.29</course>
  <speed>0.0632455532033676</speed>
  <fix>3d</fix>
</trkpt>
<trkpt lat="-27.2743182" lon="151.2888178">
  <ele>418.5</ele>
  <time>2026-09-01T19:54:32Z</time>
  <course>309.64</course>
  <speed>0.04</speed>
  <fix>3d</fix>
</trkpt>
<trkpt lat="-27.2743178" lon="151.2888178">
  <ele>417.98</ele>
  <time>2026-09-01T19:54:32Z</time>
  <course>238.3</course>
  <speed>0.0632455532033676</speed>
  <fix>3d</fix>
</trkpt>
<trkpt lat="-27.2743182" lon="151.2888178">
  <ele>418.5</ele>
  <time>2026-09-01T19:54:32Z</time>
  <course>309.64</course>
  <speed>0.04</speed>
  <fix>3d</fix>
</trkpt>
<trkpt lat="-27.2743178" lon="151.2888178">
  <ele>417.83</ele>
  <time>2026-09-01T19:54:32Z</time>
  <course>238.29</course>
  <speed>0.0670820393249937</speed>
  <fix>3d</fix>
</trkpt>
<trkpt lat="-27.2743181" lon="151.2888177">
  <ele>418.2</ele>
  <time>2026-09-01T19:54:32Z</time>
  <course>314.73</course>
  <speed>0.05</speed>
  <fix>3d</fix>
</trkpt>
<trkpt lat="-27.2743178" lon="151.2888177">
  <ele>417.68</ele>
  <time>2026-09-01T19:54:32Z</time>
  <course>238.27</course>
  <speed>0.07615773105863909</speed>
  <fix>3d</fix>
</trkpt>
<trkpt lat="-27.2743181" lon="151.2888177">
  <ele>418.2</ele>
  <time>2026-09-01T19:54:32Z</time>
  <course>314.73</course>
  <speed>0.05</speed>
  <fix>3d</fix>
</trkpt>
<trkpt lat="-27.2743177" lon="151.2888177">
  <ele>417.53</ele>
  <time>2026-09-01T19:54:32Z</time>
  <course>238.26</course>
  <speed>0.07615773105863909</speed>
  <fix>3d</fix>
</trkpt>
<trkpt lat="-27.2743181" lon="151.2888176">
  <ele>417.9</ele>
  <time>2026-09-01T19:54:32Z</time>
  <course>318.47</course>
  <speed>0.05</speed>
  <fix>3d</fix>
</trkpt>
<trkpt lat="-27.2743177" lon="151.2888176">
  <ele>417.38</ele>
  <time>2026-09-01T19:54:32Z</time>
  <course>238.25</course>
  <speed>0.07615773105863909</speed>
  <fix>3d</fix>
</trkpt>
<trkpt lat="-27.2743181" lon="151.2888176">
  <ele>417.9</ele>
  <time>2026-09-01T19:54:32Z</time>
  <course>318.47</course>
  <speed>0.05</speed>
  <fix>3d</fix>
</trkpt>
<trkpt lat="-27.2743177" lon="151.2888176">
  <ele>417.23</ele>
  <time>2026-09-01T19:54:32Z</time>
  <course>238.23</course>
  <speed>0.07615773105863909</speed>
  <fix>3d</fix>
</trkpt>
<trkpt lat="-27.274318" lon="151.2888176">
  <ele>417.6</ele>
  <time>2026-09-01T19:54:32Z</time>
  <course>320.95</course>
  <speed>0.06</speed>
  <fix>3d</fix>
</trkpt>
<trkpt lat="-27.2743176" lon="151.2888176">
  <ele>417.08</ele>
  <time>2026-09-01T19:54:32Z</time>
  <course>238.22</course>
  <speed>0.0854400374531753</speed>
  <fix>3d</fix>
</trkpt>
<trkpt lat="-27.274318" lon="151.2888176">
  <ele>417.6</ele>
  <time>2026-09-01T19:54:32Z</time>
  <course>320.95</course>
  <speed>0.06</speed>
  <fix>3d</fix>
</trkpt>
<trkpt lat="-27.2743176" lon="151.2888175">
  <ele>416.93</ele>
  <time>2026-09-01T19:54:32Z</time>
  <course>238.21</course>
  <speed>0.0854400374531753</speed>
  <fix>3d</fix>
</trkpt>
<trkpt lat="-27.2743179" lon="151.2888175">
  <ele>417.3</ele>
  <time>2026-09-01T19:54:32Z</time>
  <course>322.28</course>
  <speed>0.06</speed>
  <fix>3d</fix>
</trkpt>
<trkpt lat="-27.2743175" lon="151.2888175">
  <ele>416.78</ele>
  <time>2026-09-01T19:54:32Z</time>
  <course>238.19</course>
  <speed>0.0854400374531753</speed>
  <fix>3d</fix>
</trkpt>
<trkpt lat="-27.2743179" lon="151.2888175">
  <ele>417.3</ele>
  <time>2026-09-01T19:54:32Z</time>
  <course>322.28</course>
  <speed>0.06</speed>
  <fix>3d</fix>
</trkpt>
<trkpt lat="-27.2743175" lon="151.2888174">
  <ele>416.63</ele>
  <time>2026-09-01T19:54:32Z</time>
  <course>238.18</course>
  <speed>0.0854400374531753</speed>
  <fix>3d</fix>
</trkpt>
<trkpt lat="-27.2743178" lon="151.2888174">
  <ele>417.0</ele>
  <time>2026-09-01T19:54:32Z</time>
  <course>323.42</course>
  <speed>0.07</speed>
  <fix>3d</fix>
</trkpt>
<trkpt lat="-27.2743175" lon="151.2888174">
  <ele>416.48</ele>
  <time>2026-09-01T19:54:32Z</time>
  <course>238.18</course>
  <speed>0.0854400374531753</speed>
  <fix>3d</fix>
</trkpt>
<trkpt lat="-27.2743178" lon="151.2888174">
  <ele>417.0</ele>
  <time>2026-09-01T19:54:32Z</time>
  <course>323.42</course>
  <speed>0.07</speed>
  <fix>3d</fix>
</trkpt>
<trkpt lat="-27.2743174" lon="151.2888174">
  <ele>416.33</ele>
  <time>2026-09-01T19:54:32Z</time>
  <course>238.18</course>
  <speed>0.0854400374531753</speed>
  <fix>3d</fix>
</trkpt>
<trkpt lat="-27.2743177" lon="151.2888173">
  <ele>416.7</ele>
  <time>2026-09-01T19:54:32Z</time>
  <course>325.05</course>
  <speed>0.07</speed>
  <fix>3d</fix>
</trkpt>
<trkpt lat="-27.2743174" lon="151.2888173">
  <ele>416.18</ele>
  <time>2026-09-01T19:54:32Z</time>
  <course>238.18</course>
  <speed>0.0854400374531753</speed>
  <fix>3d</fix>
</trkpt>
<trkpt lat="-27.2743177" lon="151.2888173">
  <ele>416.7</ele>
  <time>2026-09-01T19:54:32Z</time>
  <course>325.05</course>
  <speed>0.07</speed>
  <fix>3d</fix>
</trkpt>
<trkpt lat="-27.2743173" lon="151.2888173">
  <ele>416.03</ele>
  <time>2026-09-01T19:54:32Z</time>
  <course>238.18</course>
  <speed>0.0854400374531753</speed>
  <fix>3d</fix>
</trkpt>
<trkpt lat="-27.2743176" lon="151.2888172">
  <ele>416.4</ele>
  <time>2026-09-01T19:54:32Z</time>
  <course>326.6</course>
  <speed>0.07</speed>
  <fix>3d</fix>
</trkpt>
<trkpt lat="-27.2743173" lon="151.2888172">
  <ele>415.88</ele>
  <time>2026-09-01T19:54:32Z</time>
  <course>238.19</course>
  <speed>0.0854400374531753</speed>
  <fix>3d</fix>
</trkpt>
<trkpt lat="-27.2743176" lon="151.2888172">
  <ele>416.4</ele>
  <time>2026-09-01T19:54:32Z</time>
  <course>326.6</course>
  <speed>0.07</speed>
  <fix>3d</fix>
</trkpt>
<trkpt lat="-27.2743172" lon="151.2888172">
  <ele>415.73</ele>
  <time>2026-09-01T19:54:32Z</time>
  <course>238.2</course>
  <speed>0.0854400374531753</speed>
  <fix>3d</fix>
</trkpt>
<trkpt lat="-27.2743175" lon="151.2888171">
  <ele>416.1</ele>
  <time>2026-09-01T19:54:32Z</time>
  <course>327.53</course>
  <speed>0.07</speed>
  <fix>3d</fix>
</trkpt>
<trkpt lat="-27.2743172" lon="151.2888172">
  <ele>415.58</ele>
  <time>2026-09-01T19:54:32Z</time>
  <course>238.2</course>
  <speed>0.0824621125123532</speed>
  <fix>3d</fix>
</trkpt>
<trkpt lat="-27.2743175" lon="151.2888171">
  <ele>416.1</ele>
  <time>2026-09-01T19:54:32Z</time>
  <course>327.53</course>
  <speed>0.07</speed>
  <fix>3d</fix>
</trkpt>
<trkpt lat="-27.2743171" lon="151.2888171">
  <ele>415.43</ele>
  <time>2026-09-01T19:54:32Z</time>
  <course>238.19</course>
  <speed>0.0824621125123532</speed>
  <fix>3d</fix>
</trkpt>
<trkpt lat="-27.2743174" lon="151.2888171">
  <ele>415.8</ele>
  <time>2026-09-01T19:54:32Z</time>
  <course>327.99</course>
  <speed>0.06</speed>
  <fix>3d</fix>
</trkpt>
<trkpt lat="-27.2743171" lon="151.2888171">
  <ele>415.29</ele>
  <time>2026-09-01T19:54:32Z</time>
  <course>238.19</course>
  <speed>0.07280109889280519</speed>
  <fix>3d</fix>
</trkpt>
<trkpt lat="-27.2743174" lon="151.2888171">
  <ele>415.8</ele>
  <time>2026-09-01T19:54:32Z</time>
  <course>327.99</course>
  <speed>0.06</speed>
  <fix>3d</fix>
</trkpt>
<trkpt lat="-27.274317" lon="151.2888171">
  <ele>415.14</ele>
  <time>2026-09-01T19:54:32Z</time>
  <course>238.19</course>
  <speed>0.07280109889280519</speed>
  <fix>3d</fix>
</trkpt>
<trkpt lat="-27.2743172" lon="151.288817">
  <ele>415.5</ele>
  <time>2026-09-01T19:54:32Z</time>
  <course>328.63</course>
  <speed>0.06</speed>
  <fix>3d</fix>
</trkpt>
<trkpt lat="-27.274317" lon="151.288817">
  <ele>414.99</ele>
  <time>2026-09-01T19:54:32Z</time>
  <course>238.19</course>
  <speed>0.07280109889280519</speed>
  <fix>3d</fix>
</trkpt>
<trkpt lat="-27.2743172" lon="151.288817">
  <ele>415.5</ele>
  <time>2026-09-01T19:54:32Z</time>
  <course>328.63</course>
  <speed>0.06</speed>
  <fix>3d</fix>
</trkpt>
<trkpt lat="-27.2743169" lon="151.288817">
  <ele>414.84</ele>
  <time>2026-09-01T19:54:32Z</time>
  <course>238.2</course>
  <speed>0.07280109889280519</speed>
  <fix>3d</fix>
</trkpt>
<trkpt lat="-27.2743171" lon="151.288817">
  <ele>415.2</ele>
  <time>2026-09-01T19:54:32Z</time>
  <course>329.67</course>
  <speed>0.06</speed>
  <fix>3d</fix>
</trkpt>
<trkpt lat="-27.2743169" lon="151.288817">
  <ele>414.69</ele>
  <time>2026-09-01T19:54:32Z</time>
  <course>238.21</course>
  <speed>0.0632455532033676</speed>
  <fix>3d</fix>
</trkpt>
<trkpt lat="-27.2743171" lon="151.288817">
  <ele>415.2</ele>
  <time>2026-09-01T19:54:32Z</time>
  <course>329.67</course>
  <speed>0.06</speed>
  <fix>3d</fix>
</trkpt>
<trkpt lat="-27.2743169" lon="151.288817">
  <ele>414.54</ele>
  <time>2026-09-01T19:54:32Z</time>
  <course>238.22</course>
  <speed>0.06082762530298219</speed>
  <fix>3d</fix>
</trkpt>
<trkpt lat="-27.2743171" lon="151.2888169">
  <ele>414.9</ele>
  <time>2026-09-01T19:54:32Z</time>
  <course>330.87</course>
  <speed>0.05</speed>
  <fix>3d</fix>
</trkpt>
<trkpt lat="-27.2743168" lon="151.2888169">
  <ele>414.39</ele>
  <time>2026-09-01T19:54:32Z</time>
  <course>238.23</course>
  <speed>0.06082762530298219</speed>
  <fix>3d</fix>
</trkpt>
<trkpt lat="-27.2743171" lon="151.2888169">
  <ele>414.9</ele>
  <time>2026-09-01T19:54:32Z</time>
  <course>330.87</course>
  <speed>0.05</speed>
  <fix>3d</fix>
</trkpt>
<trkpt lat="-27.2743168" lon="151.2888169">
  <ele>414.25</ele>
  <time>2026-09-01T19:54:32Z</time>
  <course>238.25</course>
  <speed>0.05099019513592785</speed>
  <fix>3d</fix>
</trkpt>
<trkpt lat="-27.274317" lon="151.2888169">
  <ele>414.6</ele>
  <time>2026-09-01T19:54:32Z</time>
  <course>332.4</course>
  <speed>0.04</speed>
  <fix>3d</fix>
</trkpt>
<trkpt lat="-27.2743168" lon="151.2888169">
  <ele>414.09</ele>
  <time>2026-09-01T19:54:32Z</time>
  <course>238.26</course>
  <speed>0.05</speed>
  <fix>3d</fix>
</trkpt>
<trkpt lat="-27.274317" lon="151.2888169">
  <ele>414.6</ele>
  <time>2026-09-01T19:54:32Z</time>
  <course>332.4</course>
  <speed>0.04</speed>
  <fix>3d</fix>
</trkpt>
<trkpt lat="-27.2743167" lon="151.2888169">
  <ele>413.94</ele>
  <time>2026-09-01T19:54:32Z</time>
  <course>238.27</course>
  <speed>0.05</speed>
  <fix>3d</fix>
</trkpt>
<trkpt lat="-27.2743169" lon="151.2888168">
  <ele>414.3</ele>
  <time>2026-09-01T19:54:32Z</time>
  <course>334.4</course>
  <speed>0.03</speed>
  <fix>3d</fix>
</trkpt>
<trkpt lat="-27.2743167" lon="151.2888169">
  <ele>413.79</ele>
  <time>2026-09-01T19:54:32Z</time>
  <course>238.29</course>
  <speed>0.04</speed>
  <fix>3d</fix>
</trkpt>
<trkpt lat="-27.2743169" lon="151.2888168">
  <ele>414.3</ele>
  <time>2026-09-01T19:54:32Z</time>
  <course>334.4</course>
  <speed>0.03</speed>
  <fix>3d</fix>
</trkpt>
<trkpt lat="-27.2743167" lon="151.2888169">
  <ele>413.65</ele>
  <time>2026-09-01T19:54:32Z</time>
  <course>238.32</course>
  <speed>0.04</speed>
  <fix>3d</fix>
</trkpt>
<trkpt lat="-27.2743169" lon="151.2888168">
  <ele>413.99</ele>
  <time>2026-09-01T19:54:32Z</time>
  <course>337.52</course>
  <speed>0.02</speed>
  <fix>3d</fix>
</trkpt>
<trkpt lat="-27.2743167" lon="151.2888169">
  <ele>413.49</ele>
  <time>2026-09-01T19:54:32Z</time>
  <course>238.35</course>
  <speed>0.03</speed>
  <fix>3d</fix>
</trkpt>
<trkpt lat="-27.2743169" lon="151.2888168">
  <ele>413.99</ele>
  <time>2026-09-01T19:54:32Z</time>
  <course>337.52</course>
  <speed>0.02</speed>
  <fix>3d</fix>
</trkpt>
<trkpt lat="-27.2743167" lon="151.2888169">
  <ele>413.34</ele>
  <time>2026-09-01T19:54:32Z</time>
  <course>238.39</course>
  <speed>0.03</speed>
  <fix>3d</fix>
</trkpt>
<trkpt lat="-27.2743168" lon="151.2888168">
  <ele>413.69</ele>
  <time>2026-09-01T19:54:32Z</time>
  <course>345.47</course>
  <speed>0.01</speed>
  <fix>3d</fix>
</trkpt>
<trkpt lat="-27.2743167" lon="151.2888169">
  <ele>413.19</ele>
  <time>2026-09-01T19:54:32Z</time>
  <course>238.45</course>
  <speed>0.02</speed>
  <fix>3d</fix>
</trkpt>
<trkpt lat="-27.2743168" lon="151.2888168">
  <ele>413.69</ele>
  <time>2026-09-01T19:54:32Z</time>
  <course>345.47</course>
  <speed>0.01</speed>
  <fix>3d</fix>
</trkpt>
<trkpt lat="-27.2743167" lon="151.2888169">
  <ele>413.04</ele>
  <time>2026-09-01T19:54:32Z</time>
  <course>238.51</course>
  <speed>0.022360679774997897</speed>
  <fix>3d</fix>
</trkpt>
<trkpt lat="-27.2743168" lon="151.2888168">
  <ele>413.39</ele>
  <time>2026-09-01T19:54:32Z</time>
  <course>21.51</course>
  <speed>0.0</speed>
  <fix>3d</fix>
</trkpt>
<trkpt lat="-27.2743167" lon="151.2888169">
  <ele>412.89</ele>
  <time>2026-09-01T19:54:32Z</time>
  <course>238.6</course>
  <speed>0.01414213562373095</speed>
  <fix>3d</fix>
</trkpt>
<trkpt lat="-27.2743168" lon="151.2888168">
  <ele>413.39</ele>
  <time>2026-09-01T19:54:32Z</time>
  <course>21.51</course>
  <speed>0.0</speed>
  <fix>3d</fix>
</trkpt>
<trkpt lat="-27.2743167" lon="151.2888169">
  <ele>412.74</ele>
  <time>2026-09-01T19:54:32Z</time>
  <course>238.7</course>
  <speed>0.02</speed>
  <fix>3d</fix>
</trkpt>
<trkpt lat="-27.2743168" lon="151.2888168">
  <ele>413.08</ele>
  <time>2026-09-01T19:54:32Z</time>
  <course>120.36</course>
  <speed>0.01</speed>
  <fix>3d</fix>
</trkpt>
<trkpt lat="-27.2743167" lon="151.2888169">
  <ele>412.59</ele>
  <time>2026-09-01T19:54:32Z</time>
  <course>238.85</course>
  <speed>0.02</speed>
  <fix>3d</fix>
</trkpt>
<trkpt lat="-27.2743168" lon="151.2888168">
  <ele>413.08</ele>
  <time>2026-09-01T19:54:32Z</time>
  <course>120.36</course>
  <speed>0.01</speed>
  <fix>3d</fix>
</trkpt>
<trkpt lat="-27.2743167" lon="151.2888169">
  <ele>412.43</ele>
  <time>2026-09-01T19:54:32Z</time>
  <course>238.99</course>
  <speed>0.03</speed>
  <fix>3d</fix>
</trkpt>
<trkpt lat="-27.2743168" lon="151.2888168">
  <ele>412.78</ele>
  <time>2026-09-01T19:54:32Z</time>
  <course>136.63</course>
  <speed>0.02</speed>
  <fix>3d</fix>
</trkpt>
<trkpt lat="-27.2743167" lon="151.2888169">
  <ele>412.28</ele>
  <time>2026-09-01T19:54:32Z</time>
  <course>238.99</course>
  <speed>0.02</speed>
  <fix>3d</fix>
</trkpt>
<trkpt lat="-27.2743168" lon="151.2888168">
  <ele>412.78</ele>
  <time>2026-09-01T19:54:32Z</time>
  <course>136.63</course>
  <speed>0.02</speed>
  <fix>3d</fix>
</trkpt>
<trkpt lat="-27.2743167" lon="151.2888169">
  <ele>412.13</ele>
  <time>2026-09-01T19:54:32Z</time>
  <course>238.89</course>
  <speed>0.02</speed>
  <fix>3d</fix>
</trkpt>
<trkpt lat="-27.2743168" lon="151.2888168">
  <ele>412.47</ele>
  <time>2026-09-01T19:54:32Z</time>
  <course>140.2</course>
  <speed>0.03</speed>
  <fix>3d</fix>
</trkpt>
<trkpt lat="-27.2743167" lon="151.2888169">
  <ele>411.97</ele>
  <time>2026-09-01T19:54:32Z</time>
  <course>238.72</course>
  <speed>0.02</speed>
  <fix>3d</fix>
</trkpt>
<trkpt lat="-27.2743168" lon="151.2888168">
  <ele>412.47</ele>
  <time>2026-09-01T19:54:32Z</time>
  <course>140.2</course>
  <speed>0.03</speed>
  <fix>3d</fix>
</trkpt>
<trkpt lat="-27.2743167" lon="151.2888169">
  <ele>411.82</ele>
  <time>2026-09-01T19:54:32Z</time>
  <course>238.53</course>
  <speed>0.02</speed>
  <fix>3d</fix>
</trkpt>
<trkpt lat="-27.2743168" lon="151.2888168">
  <ele>412.18</ele>
  <time>2026-09-01T19:54:32Z</time>
  <course>141.58</course>
  <speed>0.04</speed>
  <fix>3d</fix>
</trkpt>
<trkpt lat="-27.2743167" lon="151.2888169">
  <ele>411.67</ele>
  <time>2026-09-01T19:54:32Z</time>
  <course>238.34</course>
  <speed>0.02</speed>
  <fix>3d</fix>
</trkpt>
<trkpt lat="-27.2743168" lon="151.2888168">
  <ele>412.18</ele>
  <time>2026-09-01T19:54:32Z</time>
  <course>141.58</course>
  <speed>0.04</speed>
  <fix>3d</fix>
</trkpt>
<trkpt lat="-27.2743167" lon="151.288817">
  <ele>411.52</ele>
  <time>2026-09-01T19:54:32Z</time>
  <course>238.2</course>
  <speed>0.02</speed>
  <fix>3d</fix>
</trkpt>
<trkpt lat="-27.2743169" lon="151.2888169">
  <ele>411.87</ele>
  <time>2026-09-01T19:54:32Z</time>
  <course>142.21</course>
  <speed>0.04</speed>
  <fix>3d</fix>
</trkpt>
<trkpt lat="-27.2743168" lon="151.288817">
  <ele>411.38</ele>
  <time>2026-09-01T19:54:32Z</time>
  <course>238.1</course>
  <speed>0.02</speed>
  <fix>3d</fix>
</trkpt>
<trkpt lat="-27.2743169" lon="151.2888169">
  <ele>411.87</ele>
  <time>2026-09-01T19:54:32Z</time>
  <course>142.21</course>
  <speed>0.04</speed>
  <fix>3d</fix>
</trkpt>
<trkpt lat="-27.2743168" lon="151.288817">
  <ele>411.23</ele>
  <time>2026-09-01T19:54:32Z</time>
  <course>238.06</course>
  <speed>0.02</speed>
  <fix>3d</fix>
</trkpt>
<trkpt lat="-27.274317" lon="151.2888169">
  <ele>411.57</ele>
  <time>2026-09-01T19:54:32Z</time>
  <course>141.66</course>
  <speed>0.04</speed>
  <fix>3d</fix>
</trkpt>
<trkpt lat="-27.2743168" lon="151.288817">
  <ele>411.07</ele>
  <time>2026-09-01T19:54:32Z</time>
  <course>238.06</course>
  <speed>0.02</speed>
  <fix>3d</fix>
</trkpt>
<trkpt lat="-27.274317" lon="151.2888169">
  <ele>411.57</ele>
  <time>2026-09-01T19:54:32Z</time>
  <course>141.66</course>
  <speed>0.04</speed>
  <fix>3d</fix>
</trkpt>
<trkpt lat="-27.2743168" lon="151.288817">
  <ele>410.92</ele>
  <time>2026-09-01T19:54:32Z</time>
  <course>238.1</course>
  <speed>0.02</speed>
  <fix>3d</fix>
</trkpt>
<trkpt lat="-27.274317" lon="151.288817">
  <ele>411.27</ele>
  <time>2026-09-01T19:54:32Z</time>
  <course>140.3</course>
  <speed>0.04</speed>
  <fix>3d</fix>
</trkpt>
<trkpt lat="-27.2743168" lon="151.2888171">
  <ele>410.77</ele>
  <time>2026-09-01T19:54:33Z</time>
  <course>238.16</course>
  <speed>0.02</speed>
  <fix>3d</fix>
</trkpt>
<trkpt lat="-27.274317" lon="151.288817">
  <ele>411.27</ele>
  <time>2026-09-01T19:54:33Z</time>
  <course>140.3</course>
  <speed>0.04</speed>
  <fix>3d</fix>
</trkpt>
<trkpt lat="-27.2743169" lon="151.2888171">
  <ele>410.62</ele>
  <time>2026-09-01T19:54:33Z</time>
  <course>238.23</course>
  <speed>0.02</speed>
  <fix>3d</fix>
</trkpt>
<trkpt lat="-27.2743171" lon="151.288817">
  <ele>410.97</ele>
  <time>2026-09-01T19:54:33Z</time>
  <course>139.0</course>
  <speed>0.04</speed>
  <fix>3d</fix>
</trkpt>
<trkpt lat="-27.2743169" lon="151.2888171">
  <ele>410.47</ele>
  <time>2026-09-01T19:54:33Z</time>
  <course>238.29</course>
  <speed>0.02</speed>
  <fix>3d</fix>
</trkpt>
<trkpt lat="-27.2743171" lon="151.288817">
  <ele>410.97</ele>
  <time>2026-09-01T19:54:33Z</time>
  <course>139.0</course>
  <speed>0.04</speed>
  <fix>3d</fix>
</trkpt>
<trkpt lat="-27.2743169" lon="151.2888171">
  <ele>410.32</ele>
  <time>2026-09-01T19:54:33Z</time>
  <course>238.34</course>
  <speed>0.02</speed>
  <fix>3d</fix>
</trkpt>
<trkpt lat="-27.2743171" lon="151.2888171">
  <ele>410.68</ele>
  <time>2026-09-01T19:54:33Z</time>
  <course>138.34</course>
  <speed>0.04</speed>
  <fix>3d</fix>
</trkpt>
<trkpt lat="-27.2743169" lon="151.2888171">
  <ele>410.17</ele>
  <time>2026-09-01T19:54:33Z</time>
  <course>238.39</course>
  <speed>0.02</speed>
  <fix>3d</fix>
</trkpt>
<trkpt lat="-27.2743171" lon="151.2888171">
  <ele>410.68</ele>
  <time>2026-09-01T19:54:33Z</time>
  <course>138.34</course>
  <speed>0.04</speed>
  <fix>3d</fix>
</trkpt>
<trkpt lat="-27.2743169" lon="151.2888172">
  <ele>410.02</ele>
  <time>2026-09-01T19:54:33Z</time>
  <course>238.42</course>
  <speed>0.02</speed>
  <fix>3d</fix>
</trkpt>
<trkpt lat="-27.2743172" lon="151.2888171">
  <ele>410.38</ele>
  <time>2026-09-01T19:54:33Z</time>
  <course>138.36</course>
  <speed>0.04</speed>
  <fix>3d</fix>
</trkpt>
<trkpt lat="-27.274317" lon="151.2888172">
  <ele>409.87</ele>
  <time>2026-09-01T19:54:33Z</time>
  <course>238.42</course>
  <speed>0.02</speed>
  <fix>3d</fix>
</trkpt>
<trkpt lat="-27.2743172" lon="151.2888171">
  <ele>410.38</ele>
  <time>2026-09-01T19:54:33Z</time>
  <course>138.36</course>
  <speed>0.04</speed>
  <fix>3d</fix>
</trkpt>
<trkpt lat="-27.274317" lon="151.2888172">
  <ele>409.72</ele>
  <time>2026-09-01T19:54:33Z</time>
  <course>238.42</course>
  <speed>0.02</speed>
  <fix>3d</fix>
</trkpt>
<trkpt lat="-27.2743172" lon="151.2888172">
  <ele>410.08</ele>
  <time>2026-09-01T19:54:33Z</time>
  <course>138.86</course>
  <speed>0.04</speed>
  <fix>3d</fix>
</trkpt>
<trkpt lat="-27.274317" lon="151.2888172">
  <ele>409.57</ele>
  <time>2026-09-01T19:54:33Z</time>
  <course>238.41</course>
  <speed>0.02</speed>
  <fix>3d</fix>
</trkpt>
<trkpt lat="-27.2743172" lon="151.2888172">
  <ele>410.08</ele>
  <time>2026-09-01T19:54:33Z</time>
  <course>138.86</course>
  <speed>0.04</speed>
  <fix>3d</fix>
</trkpt>
<trkpt lat="-27.274317" lon="151.2888172">
  <ele>409.42</ele>
  <time>2026-09-01T19:54:33Z</time>
  <course>238.4</course>
  <speed>0.02</speed>
  <fix>3d</fix>
</trkpt>
<trkpt lat="-27.2743173" lon="151.2888173">
  <ele>409.78</ele>
  <time>2026-09-01T19:54:33Z</time>
  <course>139.5</course>
  <speed>0.04</speed>
  <fix>3d</fix>
</trkpt>
<trkpt lat="-27.2743171" lon="151.2888173">
  <ele>409.27</ele>
  <time>2026-09-01T19:54:33Z</time>
  <course>238.4</course>
  <speed>0.02</speed>
  <fix>3d</fix>
</trkpt>
<trkpt lat="-27.2743173" lon="151.2888173">
  <ele>409.78</ele>
  <time>2026-09-01T19:54:33Z</time>
  <course>139.5</course>
  <speed>0.04</speed>
  <fix>3d</fix>
</trkpt>
<trkpt lat="-27.2743171" lon="151.2888173">
  <ele>409.12</ele>
  <time>2026-09-01T19:54:33Z</time>
  <course>238.42</course>
  <speed>0.02</speed>
  <fix>3d</fix>
</trkpt>
<trkpt lat="-27.2743174" lon="151.2888173">
  <ele>409.47</ele>
  <time>2026-09-01T19:54:33Z</time>
  <course>140.25</course>
  <speed>0.04</speed>
  <fix>3d</fix>
</trkpt>
<trkpt lat="-27.2743171" lon="151.2888173">
  <ele>408.97</ele>
  <time>2026-09-01T19:54:33Z</time>
  <course>238.47</course>
  <speed>0.02</speed>
  <fix>3d</fix>
</trkpt>
<trkpt lat="-27.2743174" lon="151.2888173">
  <ele>409.47</ele>
  <time>2026-09-01T19:54:33Z</time>
  <course>140.25</course>
  <speed>0.04</speed>
  <fix>3d</fix>
</trkpt>
<trkpt lat="-27.2743172" lon="151.2888174">
  <ele>408.82</ele>
  <time>2026-09-01T19:54:33Z</time>
  <course>238.52</course>
  <speed>0.02</speed>
  <fix>3d</fix>
</trkpt>
<trkpt lat="-27.2743174" lon="151.2888174">
  <ele>409.18</ele>
  <time>2026-09-01T19:54:33Z</time>
  <course>140.92</course>
  <speed>0.04</speed>
  <fix>3d</fix>
</trkpt>
<trkpt lat="-27.2743172" lon="151.2888174">
  <ele>408.67</ele>
  <time>2026-09-01T19:54:33Z</time>
  <course>238.59</course>
  <speed>0.03</speed>
  <fix>3d</fix>
</trkpt>
<trkpt lat="-27.2743174" lon="151.2888174">
  <ele>409.18</ele>
  <time>2026-09-01T19:54:33Z</time>
  <course>140.92</course>
  <speed>0.04</speed>
  <fix>3d</fix>
</trkpt>
<trkpt lat="-27.2743172" lon="151.2888174">
  <ele>408.52</ele>
  <time>2026-09-01T19:54:33Z</time>
  <course>238.65</course>
  <speed>0.03</speed>
  <fix>3d</fix>
</trkpt>
<trkpt lat="-27.2743175" lon="151.2888174">
  <ele>408.88</ele>
  <time>2026-09-01T19:54:33Z</time>
  <course>141.71</course>
  <speed>0.04</speed>
  <fix>3d</fix>
</trkpt>
<trkpt lat="-27.2743173" lon="151.2888174">
  <ele>408.37</ele>
  <time>2026-09-01T19:54:33Z</time>
  <course>238.72</course>
  <speed>0.02</speed>
  <fix>3d</fix>
</trkpt>
<trkpt lat="-27.2743175" lon="151.2888174">
  <ele>408.88</ele>
  <time>2026-09-01T19:54:33Z</time>
  <course>141.71</course>
  <speed>0.04</speed>
  <fix>3d</fix>
</trkpt>
<trkpt lat="-27.2743173" lon="151.2888175">
  <ele>408.22</ele>
  <time>2026-09-01T19:54:33Z</time>
  <course>238.79</course>
  <speed>0.022360679774997897</speed>
  <fix>3d</fix>
</trkpt>
<trkpt lat="-27.2743176" lon="151.2888175">
  <ele>408.58</ele>
  <time>2026-09-01T19:54:33Z</time>
  <course>142.99</course>
  <speed>0.05</speed>
  <fix>3d</fix>
</trkpt>
<trkpt lat="-27.2743173" lon="151.2888175">
  <ele>408.07</ele>
  <time>2026-09-01T19:54:33Z</time>
  <course>238.84</course>
  <speed>0.0316227766016838</speed>
  <fix>3d</fix>
</trkpt>
<trkpt lat="-27.2743176" lon="151.2888175">
  <ele>408.58</ele>
  <time>2026-09-01T19:54:33Z</time>
  <course>142.99</course>
  <speed>0.05</speed>
  <fix>3d</fix>
</trkpt>
<trkpt lat="-27.2743174" lon="151.2888175">
  <ele>407.92</ele>
  <time>2026-09-01T19:54:33Z</time>
  <course>238.88</course>
  <speed>0.0316227766016838</speed>
  <fix>3d</fix>
</trkpt>
<trkpt lat="-27.2743176" lon="151.2888175">
  <ele>408.28</ele>
  <time>2026-09-01T19:54:33Z</time>
  <course>144.39</course>
  <speed>0.05</speed>
  <fix>3d</fix>
</trkpt>
<trkpt lat="-27.2743174" lon="151.2888176">
  <ele>407.77</ele>
  <time>2026-09-01T19:54:33Z</time>
  <course>238.92</course>
  <speed>0.0316227766016838</speed>
  <fix>3d</fix>
</trkpt>
<trkpt lat="-27.2743176" lon="151.2888175">
  <ele>408.28</ele>
  <time>2026-09-01T19:54:33Z</time>
  <course>144.39</course>
  <speed>0.05</speed>
  <fix>3d</fix>
</trkpt>
<trkpt lat="-27.2743175" lon="151.2888176">
  <ele>407.62</ele>
  <time>2026-09-01T19:54:33Z</time>
  <course>238.96</course>
  <speed>0.0316227766016838</speed>
  <fix>3d</fix>
</trkpt>
<trkpt lat="-27.2743177" lon="151.2888176">
  <ele>407.98</ele>
  <time>2026-09-01T19:54:33Z</time>
  <course>145.84</course>
  <speed>0.05</speed>
  <fix>3d</fix>
</trkpt>
<trkpt lat="-27.2743175" lon="151.2888176">
  <ele>407.47</ele>
  <time>2026-09-01T19:54:33Z</time>
  <course>239.02</course>
  <speed>0.0316227766016838</speed>
  <fix>3d</fix>
</trkpt>
<trkpt lat="-27.2743177" lon="151.2888176">
  <ele>407.98</ele>
  <time>2026-09-01T19:54:33Z</time>
  <course>145.84</course>
  <speed>0.05</speed>
  <fix>3d</fix>
</trkpt>
<trkpt lat="-27.2743175" lon="151.2888176">
  <ele>407.32</ele>
  <time>2026-09-01T19:54:33Z</time>
  <course>239.08</course>
  <speed>0.03605551275463989</speed>
  <fix>3d</fix>
</trkpt>
<trkpt lat="-27.2743178" lon="151.2888176">
  <ele>407.69</ele>
  <time>2026-09-01T19:54:33Z</time>
  <course>147.23</course>
  <speed>0.05</speed>
  <fix>3d</fix>
</trkpt>
<trkpt lat="-27.2743176" lon="151.2888177">
  <ele>407.17</ele>
  <time>2026-09-01T19:54:33Z</time>
  <course>239.13</course>
  <speed>0.03605551275463989</speed>
  <fix>3d</fix>
</trkpt>
<trkpt lat="-27.2743178" lon="151.2888176">
  <ele>407.69</ele>
  <time>2026-09-01T19:54:33Z</time>
  <course>147.23</course>
  <speed>0.05</speed>
  <fix>3d</fix>
</trkpt>
<trkpt lat="-27.2743176" lon="151.2888177">
  <ele>407.02</ele>
  <time>2026-09-01T19:54:33Z</time>
  <course>239.15</course>
  <speed>0.022360679774997897</speed>
  <fix>3d</fix>
</trkpt>
<trkpt lat="-27.2743179" lon="151.2888177">
  <ele>407.39</ele>
  <time>2026-09-01T19:54:33Z</time>
  <course>148.37</course>
  <speed>0.05</speed>
  <fix>3d</fix>
</trkpt>
<trkpt lat="-27.2743177" lon="151.2888177">
  <ele>406.87</ele>
  <time>2026-09-01T19:54:33Z</time>
  <course>239.1</course>
  <speed>0.022360679774997897</speed>
  <fix>3d</fix>
</trkpt>
<trkpt lat="-27.2743179" lon="151.2888177">
  <ele>407.39</ele>
  <time>2026-09-01T19:54:33Z</time>
  <course>148.37</course>
  <speed>0.05</speed>
  <fix>3d</fix>
</trkpt>
<trkpt lat="-27.2743177" lon="151.2888177">
  <ele>406.72</ele>
  <time>2026-09-01T19:54:33Z</time>
  <course>238.97</course>
  <speed>0.01</speed>
  <fix>3d</fix>
</trkpt>
<trkpt lat="-27.274318" lon="151.2888178">
  <ele>407.09</ele>
  <time>2026-09-01T19:54:33Z</time>
  <course>149.58</course>
  <speed>0.04</speed>
  <fix>3d</fix>
</trkpt>
<trkpt lat="-27.2743177" lon="151.2888178">
  <ele>406.57</ele>
  <time>2026-09-01T19:54:33Z</time>
  <course>238.72</course>
  <speed>0.01</speed>
  <fix>3d</fix>
</trkpt>
<trkpt lat="-27.274318" lon="151.2888178">
  <ele>407.09</ele>
  <time>2026-09-01T19:54:33Z</time>
  <course>149.58</course>
  <speed>0.04</speed>
  <fix>3d</fix>
</trkpt>
<trkpt lat="-27.2743178" lon="151.2888178">
  <ele>406.42</ele>
  <time>2026-09-01T19:54:33Z</time>
  <course>238.38</course>
  <speed>0.01</speed>
  <fix>3d</fix>
</trkpt>
<trkpt lat="-27.274318" lon="151.2888179">
  <ele>406.79</ele>
  <time>2026-09-01T19:54:33Z</time>
  <course>152.7</course>
  <speed>0.02</speed>
  <fix>3d</fix>
</trkpt>
<trkpt lat="-27.2743178" lon="151.2888178">
  <ele>406.27</ele>
  <time>2026-09-01T19:54:33Z</time>
  <course>237.98</course>
  <speed>0.03</speed>
  <fix>3d</fix>
</trkpt>
<trkpt lat="-27.274318" lon="151.2888179">
  <ele>406.79</ele>
  <time>2026-09-01T19:54:33Z</time>
  <course>152.7</course>
  <speed>0.02</speed>
  <fix>3d</fix>
</trkpt>
<trkpt lat="-27.2743177" lon="151.2888178">
  <ele>406.12</ele>
  <time>2026-09-01T19:54:33Z</time>
  <course>237.6</course>
  <speed>0.0412310562561766</speed>
  <fix>3d</fix>
</trkpt>
<trkpt lat="-27.2743181" lon="151.2888179">
  <ele>406.49</ele>
  <time>2026-09-01T19:54:33Z</time>
  <course>302.78</course>
  <speed>0.0</speed>
  <fix>3d</fix>
</trkpt>
<trkpt lat="-27.2743177" lon="151.2888177">
  <ele>405.97</ele>
  <time>2026-09-01T19:54:33Z</time>
  <course>237.27</course>
  <speed>0.05099019513592785</speed>
  <fix>3d</fix>
</trkpt>
<trkpt lat="-27.2743181" lon="151.2888179">
  <ele>406.49</ele>
  <time>2026-09-01T19:54:33Z</time>
  <course>302.78</course>
  <speed>0.0</speed>
  <fix>3d</fix>
</trkpt>
<trkpt lat="-27.2743177" lon="151.2888177">
  <ele>405.82</ele>
  <time>2026-09-01T19:54:33Z</time>
  <course>237.03</course>
  <speed>0.07280109889280519</speed>
  <fix>3d</fix>
</trkpt>
<trkpt lat="-27.274318" lon="151.2888178">
  <ele>406.19</ele>
  <time>2026-09-01T19:54:33Z</time>
  <course>326.11</course>
  <speed>0.03</speed>
  <fix>3d</fix>
</trkpt>
<trkpt lat="-27.2743177" lon="151.2888177">
  <ele>405.67</ele>
  <time>2026-09-01T19:54:33Z</time>
  <course>236.89</course>
  <speed>0.0854400374531753</speed>
  <fix>3d</fix>
</trkpt>
<trkpt lat="-27.274318" lon="151.2888178">
  <ele>406.19</ele>
  <time>2026-09-01T19:54:33Z</time>
  <course>326.11</course>
  <speed>0.03</speed>
  <fix>3d</fix>
</trkpt>
<trkpt lat="-27.2743177" lon="151.2888177">
  <ele>405.52</ele>
  <time>2026-09-01T19:54:33Z</time>
  <course>236.83</course>
  <speed>0.09486832980505139</speed>
  <fix>3d</fix>
</trkpt>
<trkpt lat="-27.274318" lon="151.2888178">
  <ele>405.9</ele>
  <time>2026-09-01T19:54:33Z</time>
  <course>328.49</course>
  <speed>0.06</speed>
  <fix>3d</fix>
</trkpt>
<trkpt lat="-27.2743176" lon="151.2888177">
  <ele>405.37</ele>
  <time>2026-09-01T19:54:33Z</time>
  <course>236.85</course>
  <speed>0.10770329614269007</speed>
  <fix>3d</fix>
</trkpt>
<trkpt lat="-27.274318" lon="151.2888178">
  <ele>405.9</ele>
  <time>2026-09-01T19:54:33Z</time>
  <course>328.49</course>
  <speed>0.06</speed>
  <fix>3d</fix>
</trkpt>
<trkpt lat="-27.2743176" lon="151.2888177">
  <ele>405.22</ele>
  <time>2026-09-01T19:54:33Z</time>
  <course>236.91</course>
  <speed>0.11704699910719625</speed>
  <fix>3d</fix>
</trkpt>
<trkpt lat="-27.2743179" lon="151.2888178">
  <ele>405.6</ele>
  <time>2026-09-01T19:54:33Z</time>
  <course>329.69</course>
  <speed>0.08</speed>
  <fix>3d</fix>
</trkpt>
<trkpt lat="-27.2743175" lon="151.2888176">
  <ele>405.07</ele>
  <time>2026-09-01T19:54:33Z</time>
  <course>237.0</course>
  <speed>0.13</speed>
  <fix>3d</fix>
</trkpt>
<trkpt lat="-27.2743179" lon="151.2888178">
  <ele>405.6</ele>
  <time>2026-09-01T19:54:33Z</time>
  <course>329.69</course>
  <speed>0.08</speed>
  <fix>3d</fix>
</trkpt>
<trkpt lat="-27.2743174" lon="151.2888176">
  <ele>404.92</ele>
  <time>2026-09-01T19:54:33Z</time>
  <course>237.08</course>
  <speed>0.1392838827718412</speed>
  <fix>3d</fix>
</trkpt>
<trkpt lat="-27.2743178" lon="151.2888177">
  <ele>405.3</ele>
  <time>2026-09-01T19:54:33Z</time>
  <course>330.51</course>
  <speed>0.1</speed>
  <fix>3d</fix>
</trkpt>
<trkpt lat="-27.2743173" lon="151.2888175">
  <ele>404.77</ele>
  <time>2026-09-01T19:54:33Z</time>
  <course>237.16</course>
  <speed>0.1392838827718412</speed>
  <fix>3d</fix>
</trkpt>
<trkpt lat="-27.2743178" lon="151.2888177">
  <ele>405.3</ele>
  <time>2026-09-01T19:54:33Z</time>
  <course>330.51</course>
  <speed>0.1</speed>
  <fix>3d</fix>
</trkpt>
<trkpt lat="-27.2743172" lon="151.2888175">
  <ele>404.61</ele>
  <time>2026-09-01T19:54:33Z</time>
  <course>237.21</course>
  <speed>0.15231546211727817</speed>
  <fix>3d</fix>
</trkpt>
<trkpt lat="-27.2743175" lon="151.2888175">
  <ele>405.0</ele>
  <time>2026-09-01T19:54:33Z</time>
  <course>331.0</course>
  <speed>0.12</speed>
  <fix>3d</fix>
</trkpt>
<trkpt lat="-27.2743171" lon="151.2888174">
  <ele>404.46</ele>
  <time>2026-09-01T19:54:33Z</time>
  <course>237.23</course>
  <speed>0.15231546211727817</speed>
  <fix>3d</fix>
</trkpt>
<trkpt lat="-27.2743175" lon="151.2888175">
  <ele>405.0</ele>
  <time>2026-09-01T19:54:33Z</time>
  <course>331.0</course>
  <speed>0.12</speed>
  <fix>3d</fix>
</trkpt>
<trkpt lat="-27.274317" lon="151.2888174">
  <ele>404.31</ele>
  <time>2026-09-01T19:54:33Z</time>
  <course>237.23</course>
  <speed>0.1615549442140351</speed>
  <fix>3d</fix>
</trkpt>
<trkpt lat="-27.2743174" lon="151.2888174">
  <ele>404.7</ele>
  <time>2026-09-01T19:54:33Z</time>
  <course>331.11</course>
  <speed>0.13</speed>
  <fix>3d</fix>
</trkpt>
<trkpt lat="-27.2743169" lon="151.2888173">
  <ele>404.16</ele>
  <time>2026-09-01T19:54:33Z</time>
  <course>237.22</course>
  <speed>0.1615549442140351</speed>
  <fix>3d</fix>
</trkpt>
<trkpt lat="-27.2743174" lon="151.2888174">
  <ele>404.7</ele>
  <time>2026-09-01T19:54:33Z</time>
  <course>331.11</course>
  <speed>0.13</speed>
  <fix>3d</fix>
</trkpt>
<trkpt lat="-27.2743168" lon="151.2888172">
  <ele>404.01</ele>
  <time>2026-09-01T19:54:33Z</time>
  <course>237.19</course>
  <speed>0.1615549442140351</speed>
  <fix>3d</fix>
</trkpt>
<trkpt lat="-27.2743172" lon="151.2888173">
  <ele>404.4</ele>
  <time>2026-09-01T19:54:33Z</time>
  <course>331.05</course>
  <speed>0.14</speed>
  <fix>3d</fix>
</trkpt>
<trkpt lat="-27.2743167" lon="151.2888172">
  <ele>403.86</ele>
  <time>2026-09-01T19:54:33Z</time>
  <course>237.16</course>
  <speed>0.1615549442140351</speed>
  <fix>3d</fix>
</trkpt>
<trkpt lat="-27.2743172" lon="151.2888173">
  <ele>404.4</ele>
  <time>2026-09-01T19:54:33Z</time>
  <course>331.05</course>
  <speed>0.14</speed>
  <fix>3d</fix>
</trkpt>
<trkpt lat="-27.2743166" lon="151.2888171">
  <ele>403.71</ele>
  <time>2026-09-01T19:54:33Z</time>
  <course>237.13</course>
  <speed>0.1708800749063506</speed>
  <fix>3d</fix>
</trkpt>
<trkpt lat="-27.2743169" lon="151.2888171">
  <ele>404.11</ele>
  <time>2026-09-01T19:54:33Z</time>
  <course>331.07</course>
  <speed>0.15</speed>
  <fix>3d</fix>
</trkpt>
<trkpt lat="-27.2743165" lon="151.288817">
  <ele>403.56</ele>
  <time>2026-09-01T19:54:33Z</time>
  <course>237.1</course>
  <speed>0.1615549442140351</speed>
  <fix>3d</fix>
</trkpt>
<trkpt lat="-27.2743169" lon="151.2888171">
  <ele>404.11</ele>
  <time>2026-09-01T19:54:33Z</time>
  <course>331.07</course>
  <speed>0.15</speed>
  <fix>3d</fix>
</trkpt>
<trkpt lat="-27.2743163" lon="151.288817">
  <ele>403.41</ele>
  <time>2026-09-01T19:54:33Z</time>
  <course>237.09</course>
  <speed>0.1615549442140351</speed>
  <fix>3d</fix>
</trkpt>
<trkpt lat="-27.2743167" lon="151.288817">
  <ele>403.81</ele>
  <time>2026-09-01T19:54:33Z</time>
  <course>331.06</course>
  <speed>0.15</speed>
  <fix>3d</fix>
</trkpt>
<trkpt lat="-27.2743162" lon="151.2888169">
  <ele>403.26</ele>
  <time>2026-09-01T19:54:33Z</time>
  <course>237.07</course>
  <speed>0.1615549442140351</speed>
  <fix>3d</fix>
</trkpt>
<trkpt lat="-27.2743167" lon="151.288817">
  <ele>403.81</ele>
  <time>2026-09-01T19:54:33Z</time>
  <course>331.06</course>
  <speed>0.15</speed>
  <fix>3d</fix>
</trkpt>
<trkpt lat="-27.2743161" lon="151.2888168">
  <ele>403.11</ele>
  <time>2026-09-01T19:54:33Z</time>
  <course>237.06</course>
  <speed>0.1615549442140351</speed>
  <fix>3d</fix>
</trkpt>
<trkpt lat="-27.2743165" lon="151.2888169">
  <ele>403.52</ele>
  <time>2026-09-01T19:54:33Z</time>
  <course>331.02</course>
  <speed>0.15</speed>
  <fix>3d</fix>
</trkpt>
<trkpt lat="-27.274316" lon="151.2888167">
  <ele>402.96</ele>
  <time>2026-09-01T19:54:33Z</time>
  <course>237.06</course>
  <speed>0.1615549442140351</speed>
  <fix>3d</fix>
</trkpt>
<trkpt lat="-27.2743165" lon="151.2888169">
  <ele>403.52</ele>
  <time>2026-09-01T19:54:33Z</time>
  <course>331.02</course>
  <speed>0.15</speed>
  <fix>3d</fix>
</trkpt>
<trkpt lat="-27.2743159" lon="151.2888167">
  <ele>402.81</ele>
  <time>2026-09-01T19:54:33Z</time>
  <course>237.06</course>
  <speed>0.15231546211727817</speed>
  <fix>3d</fix>
</trkpt>
<trkpt lat="-27.2743162" lon="151.2888167">
  <ele>403.22</ele>
  <time>2026-09-01T19:54:33Z</time>
  <course>331.11</course>
  <speed>0.14</speed>
  <fix>3d</fix>
</trkpt>
<trkpt lat="-27.2743158" lon="151.2888166">
  <ele>402.66</ele>
  <time>2026-09-01T19:54:33Z</time>
  <course>237.06</course>
  <speed>0.14866068747318506</speed>
  <fix>3d</fix>
</trkpt>
<trkpt lat="-27.2743162" lon="151.2888167">
  <ele>403.22</ele>
  <time>2026-09-01T19:54:33Z</time>
  <course>331.11</course>
  <speed>0.14</speed>
  <fix>3d</fix>
</trkpt>
<trkpt lat="-27.2743157" lon="151.2888166">
  <ele>402.52</ele>
  <time>2026-09-01T19:54:33Z</time>
  <course>237.07</course>
  <speed>0.1392838827718412</speed>
  <fix>3d</fix>
</trkpt>
<trkpt lat="-27.274316" lon="151.2888166">
  <ele>402.93</ele>
  <time>2026-09-01T19:54:33Z</time>
  <course>331.31</course>
  <speed>0.13</speed>
  <fix>3d</fix>
</trkpt>
<trkpt lat="-27.2743156" lon="151.2888165">
  <ele>402.37</ele>
  <time>2026-09-01T19:54:33Z</time>
  <course>237.09</course>
  <speed>0.1392838827718412</speed>
  <fix>3d</fix>
</trkpt>
<trkpt lat="-27.274316" lon="151.2888166">
  <ele>402.93</ele>
  <time>2026-09-01T19:54:33Z</time>
  <course>331.31</course>
  <speed>0.13</speed>
  <fix>3d</fix>
</trkpt>
<trkpt lat="-27.2743155" lon="151.2888165">
  <ele>402.22</ele>
  <time>2026-09-01T19:54:33Z</time>
  <course>237.1</course>
  <speed>0.1264911064067352</speed>
  <fix>3d</fix>
</trkpt>
<trkpt lat="-27.2743157" lon="151.2888164">
  <ele>402.63</ele>
  <time>2026-09-01T19:54:33Z</time>
  <course>331.58</course>
  <speed>0.12</speed>
  <fix>3d</fix>
</trkpt>
<trkpt lat="-27.2743154" lon="151.2888164">
  <ele>402.07</ele>
  <time>2026-09-01T19:54:33Z</time>
  <course>237.12</course>
  <speed>0.11704699910719625</speed>
  <fix>3d</fix>
</trkpt>
<trkpt lat="-27.2743157" lon="151.2888164">
  <ele>402.63</ele>
  <time>2026-09-01T19:54:33Z</time>
  <course>331.58</course>
  <speed>0.12</speed>
  <fix>3d</fix>
</trkpt>
<trkpt lat="-27.2743153" lon="151.2888164">
  <ele>401.93</ele>
  <time>2026-09-01T19:54:33Z</time>
  <course>237.14</course>
  <speed>0.1044030650891055</speed>
  <fix>3d</fix>
</trkpt>
<trkpt lat="-27.2743156" lon="151.2888163">
  <ele>402.33</ele>
  <time>2026-09-01T19:54:33Z</time>
  <course>331.82</course>
  <speed>0.1</speed>
  <fix>3d</fix>
</trkpt>
<trkpt lat="-27.2743153" lon="151.2888163">
  <ele>401.78</ele>
  <time>2026-09-01T19:54:33Z</time>
  <course>237.16</course>
  <speed>0.09486832980505139</speed>
  <fix>3d</fix>
</trkpt>
<trkpt lat="-27.2743156" lon="151.2888163">
  <ele>402.33</ele>
  <time>2026-09-01T19:54:33Z</time>
  <course>331.82</course>
  <speed>0.1</speed>
  <fix>3d</fix>
</trkpt>
<trkpt lat="-27.2743152" lon="151.2888163">
  <ele>401.63</ele>
  <time>2026-09-01T19:54:33Z</time>
  <course>237.18</course>
  <speed>0.09486832980505139</speed>
  <fix>3d</fix>
</trkpt>
<trkpt lat="-27.2743154" lon="151.2888162">
  <ele>402.04</ele>
  <time>2026-09-01T19:54:33Z</time>
  <course>331.89</course>
  <speed>0.08</speed>
  <fix>3d</fix>
</trkpt>
<trkpt lat="-27.2743152" lon="151.2888162">
  <ele>401.49</ele>
  <time>2026-09-01T19:54:33Z</time>
  <course>237.21</course>
  <speed>0.0824621125123532</speed>
  <fix>3d</fix>
</trkpt>
<trkpt lat="-27.2743154" lon="151.2888162">
  <ele>402.04</ele>
  <time>2026-09-01T19:54:33Z</time>
  <course>331.89</course>
  <speed>0.08</speed>
  <fix>3d</fix>
</trkpt>
<trkpt lat="-27.2743151" lon="151.2888162">
  <ele>401.34</ele>
  <time>2026-09-01T19:54:33Z</time>
  <course>237.24</course>
  <speed>0.07280109889280519</speed>
  <fix>3d</fix>
</trkpt>
<trkpt lat="-27.2743153" lon="151.2888161">
  <ele>401.74</ele>
  <time>2026-09-01T19:54:33Z</time>
  <course>331.92</course>
  <speed>0.06</speed>
  <fix>3d</fix>
</trkpt>
<trkpt lat="-27.2743151" lon="151.2888162">
  <ele>401.19</ele>
  <time>2026-09-01T19:54:33Z</time>
  <course>237.27</course>
  <speed>0.06082762530298219</speed>
  <fix>3d</fix>
</trkpt>
<trkpt lat="-27.2743153" lon="151.2888161">
  <ele>401.74</ele>
  <time>2026-09-01T19:54:33Z</time>
  <course>331.92</course>
  <speed>0.06</speed>
  <fix>3d</fix>
</trkpt>
<trkpt lat="-27.274315" lon="151.2888162">
  <ele>401.04</ele>
  <time>2026-09-01T19:54:33Z</time>
  <course>237.32</course>
  <speed>0.05</speed>
  <fix>3d</fix>
</trkpt>
<trkpt lat="-27.2743152" lon="151.2888161">
  <ele>401.44</ele>
  <time>2026-09-01T19:54:33Z</time>
  <course>332.45</course>
  <speed>0.04</speed>
  <fix>3d</fix>
</trkpt>
<trkpt lat="-27.274315" lon="151.2888162">
  <ele>400.89</ele>
  <time>2026-09-01T19:54:33Z</time>
  <course>237.38</course>
  <speed>0.03</speed>
  <fix>3d</fix>
</trkpt>
<trkpt lat="-27.2743152" lon="151.2888161">
  <ele>401.44</ele>
  <time>2026-09-01T19:54:33Z</time>
  <course>332.45</course>
  <speed>0.04</speed>
  <fix>3d</fix>
</trkpt>
<trkpt lat="-27.274315" lon="151.2888162">
  <ele>400.74</ele>
  <time>2026-09-01T19:54:33Z</time>
  <course>237.47</course>
  <speed>0.02</speed>
  <fix>3d</fix>
</trkpt>
<trkpt lat="-27.2743152" lon="151.2888161">
  <ele>401.14</ele>
  <time>2026-09-01T19:54:33Z</time>
  <course>336.89</course>
  <speed>0.01</speed>
  <fix>3d</fix>
</trkpt>
<trkpt lat="-27.274315" lon="151.2888162">
  <ele>400.59</ele>
  <time>2026-09-01T19:54:33Z</time>
  <course>237.63</course>
  <speed>0.01</speed>
  <fix>3d</fix>
</trkpt>
<trkpt lat="-27.2743152" lon="151.2888161">
  <ele>401.14</ele>
  <time>2026-09-01T19:54:33Z</time>
  <course>336.89</course>
  <speed>0.01</speed>
  <fix>3d</fix>
</trkpt>
<trkpt lat="-27.274315" lon="151.2888161">
  <ele>400.44</ele>
  <time>2026-09-01T19:54:33Z</time>
  <course>237.7</course>
  <speed>0.01</speed>
  <fix>3d</fix>
</trkpt>
<trkpt lat="-27.2743152" lon="151.2888161">
  <ele>400.84</ele>
  <time>2026-09-01T19:54:33Z</time>
  <course>142.8</course>
  <speed>0.01</speed>
  <fix>3d</fix>
</trkpt>
<trkpt lat="-27.274315" lon="151.2888161">
  <ele>400.29</ele>
  <time>2026-09-01T19:54:33Z</time>
  <course>237.56</course>
  <speed>0.01</speed>
  <fix>3d</fix>
</trkpt>
<trkpt lat="-27.2743152" lon="151.2888161">
  <ele>400.84</ele>
  <time>2026-09-01T19:54:33Z</time>
  <course>142.8</course>
  <speed>0.01</speed>
  <fix>3d</fix>
</trkpt>
<trkpt lat="-27.274315" lon="151.2888161">
  <ele>400.14</ele>
  <time>2026-09-01T19:54:33Z</time>
  <course>237.3</course>
  <speed>0.01</speed>
  <fix>3d</fix>
</trkpt>
<trkpt lat="-27.2743152" lon="151.2888161">
  <ele>400.54</ele>
  <time>2026-09-01T19:54:33Z</time>
  <course>148.32</course>
  <speed>0.02</speed>
  <fix>3d</fix>
</trkpt>
<trkpt lat="-27.274315" lon="151.2888161">
  <ele>399.99</ele>
  <time>2026-09-01T19:54:33Z</time>
  <course>236.96</course>
  <speed>0.01</speed>
  <fix>3d</fix>
</trkpt>
<trkpt lat="-27.2743152" lon="151.2888161">
  <ele>400.54</ele>
  <time>2026-09-01T19:54:33Z</time>
  <course>148.32</course>
  <speed>0.02</speed>
  <fix>3d</fix>
</trkpt>
<trkpt lat="-27.274315" lon="151.2888161">
  <ele>399.84</ele>
  <time>2026-09-01T19:54:33Z</time>
  <course>236.62</course>
  <speed>0.01</speed>
  <fix>3d</fix>
</trkpt>
<trkpt lat="-27.2743153" lon="151.2888161">
  <ele>400.24</ele>
  <time>2026-09-01T19:54:33Z</time>
  <course>151.24</course>
  <speed>0.02</speed>
  <fix>3d</fix>
</trkpt>
<trkpt lat="-27.274315" lon="151.2888161">
  <ele>399.69</ele>
  <time>2026-09-01T19:54:33Z</time>
  <course>236.31</course>
  <speed>0.01</speed>
  <fix>3d</fix>
</trkpt>
<trkpt lat="-27.2743153" lon="151.2888161">
  <ele>400.24</ele>
  <time>2026-09-01T19:54:33Z</time>
  <course>151.24</course>
  <speed>0.02</speed>
  <fix>3d</fix>
</trkpt>
<trkpt lat="-27.274315" lon="151.2888161">
  <ele>399.54</ele>
  <time>2026-09-01T19:54:33Z</time>
  <course>236.07</course>
  <speed>0.01414213562373095</speed>
  <fix>3d</fix>
</trkpt>
<trkpt lat="-27.2743153" lon="151.2888161">
  <ele>399.93</ele>
  <time>2026-09-01T19:54:33Z</time>
  <course>153.53</course>
  <speed>0.02</speed>
  <fix>3d</fix>
</trkpt>
<trkpt lat="-27.2743151" lon="151.2888161">
  <ele>399.38</ele>
  <time>2026-09-01T19:54:33Z</time>
  <course>235.9</course>
  <speed>0.01</speed>
  <fix>3d</fix>
</trkpt>
<trkpt lat="-27.2743153" lon="151.2888161">
  <ele>399.93</ele>
  <time>2026-09-01T19:54:33Z</time>
  <course>153.53</course>
  <speed>0.02</speed>
  <fix>3d</fix>
</trkpt>
<trkpt lat="-27.2743151" lon="151.2888161">
  <ele>399.23</ele>
  <time>2026-09-01T19:54:33Z</time>
  <course>235.8</course>
  <speed>0.01</speed>
  <fix>3d</fix>
</trkpt>
<trkpt lat="-27.2743153" lon="151.2888161">
  <ele>399.63</ele>
  <time>2026-09-01T19:54:33Z</time>
  <course>154.96</course>
  <speed>0.02</speed>
  <fix>3d</fix>
</trkpt>
<trkpt lat="-27.2743151" lon="151.2888161">
  <ele>399.08</ele>
  <time>2026-09-01T19:54:33Z</time>
  <course>235.76</course>
  <speed>0.01</speed>
  <fix>3d</fix>
</trkpt>
<trkpt lat="-27.2743153" lon="151.2888161">
  <ele>399.63</ele>
  <time>2026-09-01T19:54:33Z</time>
  <course>154.96</course>
  <speed>0.02</speed>
  <fix>3d</fix>
</trkpt>
<trkpt lat="-27.2743151" lon="151.2888161">
  <ele>398.93</ele>
  <time>2026-09-01T19:54:33Z</time>
  <course>235.78</course>
  <speed>0.01</speed>
  <fix>3d</fix>
</trkpt>
<trkpt lat="-27.2743153" lon="151.2888161">
  <ele>399.33</ele>
  <time>2026-09-01T19:54:33Z</time>
  <course>155.58</course>
  <speed>0.01</speed>
  <fix>3d</fix>
</trkpt>
<trkpt lat="-27.2743151" lon="151.2888161">
  <ele>398.77</ele>
  <time>2026-09-01T19:54:33Z</time>
  <course>235.83</course>
  <speed>0.01</speed>
  <fix>3d</fix>
</trkpt>
<trkpt lat="-27.2743153" lon="151.2888161">
  <ele>399.33</ele>
  <time>2026-09-01T19:54:33Z</time>
  <course>155.58</course>
  <speed>0.01</speed>
  <fix>3d</fix>
</trkpt>
<trkpt lat="-27.2743151" lon="151.2888161">
  <ele>398.62</ele>
  <time>2026-09-01T19:54:33Z</time>
  <course>235.88</course>
  <speed>0.01</speed>
  <fix>3d</fix>
</trkpt>
<trkpt lat="-27.2743153" lon="151.2888161">
  <ele>399.03</ele>
  <time>2026-09-01T19:54:33Z</time>
  <course>154.78</course>
  <speed>0.01</speed>
  <fix>3d</fix>
</trkpt>
<trkpt lat="-27.2743151" lon="151.2888161">
  <ele>398.47</ele>
  <time>2026-09-01T19:54:33Z</time>
  <course>235.93</course>
  <speed>0.01414213562373095</speed>
  <fix>3d</fix>
</trkpt>
<trkpt lat="-27.2743153" lon="151.2888161">
  <ele>399.03</ele>
  <time>2026-09-01T19:54:33Z</time>
  <course>154.78</course>
  <speed>0.01</speed>
  <fix>3d</fix>
</trkpt>
<trkpt lat="-27.2743151" lon="151.2888161">
  <ele>398.32</ele>
  <time>2026-09-01T19:54:33Z</time>
  <course>235.97</course>
  <speed>0.01</speed>
  <fix>3d</fix>
</trkpt>
<trkpt lat="-27.2743153" lon="151.2888161">
  <ele>398.72</ele>
  <time>2026-09-01T19:54:33Z</time>
  <course>152.1</course>
  <speed>0.01</speed>
  <fix>3d</fix>
</trkpt>
<trkpt lat="-27.2743151" lon="151.2888162">
  <ele>398.17</ele>
  <time>2026-09-01T19:54:33Z</time>
  <course>236.01</course>
  <speed>0.01414213562373095</speed>
  <fix>3d</fix>
</trkpt>
<trkpt lat="-27.2743153" lon="151.2888161">
  <ele>398.72</ele>
  <time>2026-09-01T19:54:33Z</time>
  <course>152.1</course>
  <speed>0.01</speed>
  <fix>3d</fix>
</trkpt>
<trkpt lat="-27.2743152" lon="151.2888162">
  <ele>398.03</ele>
  <time>2026-09-01T19:54:33Z</time>
  <course>236.03</course>
  <speed>0.01414213562373095</speed>
  <fix>3d</fix>
</trkpt>
<trkpt lat="-27.2743154" lon="151.2888161">
  <ele>398.43</ele>
  <time>2026-09-01T19:54:33Z</time>
  <course>149.14</course>
  <speed>0.01</speed>
  <fix>3d</fix>
</trkpt>
<trkpt lat="-27.2743152" lon="151.2888162">
  <ele>397.88</ele>
  <time>2026-09-01T19:54:33Z</time>
  <course>236.03</course>
  <speed>0.01414213562373095</speed>
  <fix>3d</fix>
</trkpt>
<trkpt lat="-27.2743154" lon="151.2888161">
  <ele>398.43</ele>
  <time>2026-09-01T19:54:33Z</time>
  <course>149.14</course>
  <speed>0.01</speed>
  <fix>3d</fix>
</trkpt>
<trkpt lat="-27.2743152" lon="151.2888162">
  <ele>397.73</ele>
  <time>2026-09-01T19:54:33Z</time>
  <course>236.0</course>
  <speed>0.01414213562373095</speed>
  <fix>3d</fix>
</trkpt>
<trkpt lat="-27.2743154" lon="151.2888161">
  <ele>398.13</ele>
  <time>2026-09-01T19:54:33Z</time>
  <course>146.8</course>
  <speed>0.01</speed>
  <fix>3d</fix>
</trkpt>
<trkpt lat="-27.2743152" lon="151.2888162">
  <ele>397.58</ele>
  <time>2026-09-01T19:54:33Z</time>
  <course>235.96</course>
  <speed>0.01414213562373095</speed>
  <fix>3d</fix>
</trkpt>
<trkpt lat="-27.2743154" lon="151.2888161">
  <ele>398.13</ele>
  <time>2026-09-01T19:54:33Z</time>
  <course>146.8</course>
  <speed>0.01</speed>
  <fix>3d</fix>
</trkpt>
<trkpt lat="-27.2743152" lon="151.2888162">
  <ele>397.43</ele>
  <time>2026-09-01T19:54:33Z</time>
  <course>235.92</course>
  <speed>0.01414213562373095</speed>
  <fix>3d</fix>
</trkpt>
<trkpt lat="-27.2743154" lon="151.2888161">
  <ele>397.83</ele>
  <time>2026-09-01T19:54:33Z</time>
  <course>144.97</course>
  <speed>0.01</speed>
  <fix>3d</fix>
</trkpt>
<trkpt lat="-27.2743152" lon="151.2888162">
  <ele>397.29</ele>
  <time>2026-09-01T19:54:33Z</time>
  <course>235.88</course>
  <speed>0.01</speed>
  <fix>3d</fix>
</trkpt>
<trkpt lat="-27.2743154" lon="151.2888161">
  <ele>397.83</ele>
  <time>2026-09-01T19:54:33Z</time>
  <course>144.97</course>
  <speed>0.01</speed>
  <fix>3d</fix>
</trkpt>
<trkpt lat="-27.2743152" lon="151.2888162">
  <ele>397.14</ele>
  <time>2026-09-01T19:54:33Z</time>
  <course>235.85</course>
  <speed>0.01</speed>
  <fix>3d</fix>
</trkpt>
<trkpt lat="-27.2743154" lon="151.2888161">
  <ele>397.53</ele>
  <time>2026-09-01T19:54:33Z</time>
  <course>145.88</course>
  <speed>0.01</speed>
  <fix>3d</fix>
</trkpt>
<trkpt lat="-27.2743152" lon="151.2888162">
  <ele>396.99</ele>
  <time>2026-09-01T19:54:33Z</time>
  <course>235.83</course>
  <speed>0.01</speed>
  <fix>3d</fix>
</trkpt>
<trkpt lat="-27.2743154" lon="151.2888161">
  <ele>397.53</ele>
  <time>2026-09-01T19:54:33Z</time>
  <course>145.88</course>
  <speed>0.01</speed>
  <fix>3d</fix>
</trkpt>
<trkpt lat="-27.2743152" lon="151.2888162">
  <ele>396.84</ele>
  <time>2026-09-01T19:54:33Z</time>
  <course>235.8</course>
  <speed>0.01</speed>
  <fix>3d</fix>
</trkpt>
<trkpt lat="-27.2743155" lon="151.2888162">
  <ele>397.24</ele>
  <time>2026-09-01T19:54:33Z</time>
  <course>149.7</course>
  <speed>0.01</speed>
  <fix>3d</fix>
</trkpt>
<trkpt lat="-27.2743152" lon="151.2888162">
  <ele>396.69</ele>
  <time>2026-09-01T19:54:33Z</time>
  <course>235.78</course>
  <speed>0.02</speed>
  <fix>3d</fix>
</trkpt>
<trkpt lat="-27.2743155" lon="151.2888162">
  <ele>397.24</ele>
  <time>2026-09-01T19:54:33Z</time>
  <course>149.7</course>
  <speed>0.01</speed>
  <fix>3d</fix>
</trkpt>
<trkpt lat="-27.2743152" lon="151.2888162">
  <ele>396.54</ele>
  <time>2026-09-01T19:54:33Z</time>
  <course>235.76</course>
  <speed>0.02</speed>
  <fix>3d</fix>
</trkpt>
<trkpt lat="-27.2743155" lon="151.2888162">
  <ele>396.94</ele>
  <time>2026-09-01T19:54:33Z</time>
  <course>154.41</course>
  <speed>0.01</speed>
  <fix>3d</fix>
</trkpt>
<trkpt lat="-27.2743152" lon="151.2888162">
  <ele>396.39</ele>
  <time>2026-09-01T19:54:33Z</time>
  <course>235.74</course>
  <speed>0.02</speed>
  <fix>3d</fix>
</trkpt>
<trkpt lat="-27.2743155" lon="151.2888162">
  <ele>396.94</ele>
  <time>2026-09-01T19:54:33Z</time>
  <course>154.41</course>
  <speed>0.01</speed>
  <fix>3d</fix>
</trkpt>
<trkpt lat="-27.2743152" lon="151.2888162">
  <ele>396.24</ele>
  <time>2026-09-01T19:54:33Z</time>
  <course>235.72</course>
  <speed>0.02</speed>
  <fix>3d</fix>
</trkpt>
<trkpt lat="-27.2743155" lon="151.2888162">
  <ele>396.64</ele>
  <time>2026-09-01T19:54:33Z</time>
  <course>156.63</course>
  <speed>0.01</speed>
  <fix>3d</fix>
</trkpt>
<trkpt lat="-27.2743152" lon="151.2888162">
  <ele>396.09</ele>
  <time>2026-09-01T19:54:33Z</time>
  <course>235.7</course>
  <speed>0.02</speed>
  <fix>3d</fix>
</trkpt>
<trkpt lat="-27.2743155" lon="151.2888162">
  <ele>396.64</ele>
  <time>2026-09-01T19:54:33Z</time>
  <course>156.63</course>
  <speed>0.01</speed>
  <fix>3d</fix>
</trkpt>
<trkpt lat="-27.2743152" lon="151.2888162">
  <ele>395.94</ele>
  <time>2026-09-01T19:54:33Z</time>
  <course>235.69</course>
  <speed>0.01</speed>
  <fix>3d</fix>
</trkpt>
<trkpt lat="-27.2743155" lon="151.2888162">
  <ele>396.33</ele>
  <time>2026-09-01T19:54:33Z</time>
  <course>157.09</course>
  <speed>0.01</speed>
  <fix>3d</fix>
</trkpt>
<trkpt lat="-27.2743152" lon="151.2888162">
  <ele>395.79</ele>
  <time>2026-09-01T19:54:33Z</time>
  <course>235.68</course>
  <speed>0.01</speed>
  <fix>3d</fix>
</trkpt>
<trkpt lat="-27.2743155" lon="151.2888162">
  <ele>396.33</ele>
  <time>2026-09-01T19:54:33Z</time>
  <course>157.09</course>
  <speed>0.01</speed>
  <fix>3d</fix>
</trkpt>
<trkpt lat="-27.2743153" lon="151.2888162">
  <ele>395.65</ele>
  <time>2026-09-01T19:54:33Z</time>
  <course>235.67</course>
  <speed>0.01</speed>
  <fix>3d</fix>
</trkpt>
<trkpt lat="-27.2743155" lon="151.2888162">
  <ele>396.03</ele>
  <time>2026-09-01T19:54:33Z</time>
  <course>158.86</course>
  <speed>0.01</speed>
  <fix>3d</fix>
</trkpt>
<trkpt lat="-27.2743153" lon="151.2888162">
  <ele>395.5</ele>
  <time>2026-09-01T19:54:33Z</time>
  <course>235.67</course>
  <speed>0.01</speed>
  <fix>3d</fix>
</trkpt>
<trkpt lat="-27.2743155" lon="151.2888162">
  <ele>396.03</ele>
  <time>2026-09-01T19:54:33Z</time>
  <course>158.86</course>
  <speed>0.01</speed>
  <fix>3d</fix>
</trkpt>
<trkpt lat="-27.2743153" lon="151.2888162">
  <ele>395.35</ele>
  <time>2026-09-01T19:54:33Z</time>
  <course>235.67</course>
  <speed>0.01</speed>
  <fix>3d</fix>
</trkpt>
<trkpt lat="-27.2743156" lon="151.2888162">
  <ele>395.72</ele>
  <time>2026-09-01T19:54:33Z</time>
  <course>162.43</course>
  <speed>0.01</speed>
  <fix>3d</fix>
</trkpt>
<trkpt lat="-27.2743153" lon="151.2888162">
  <ele>395.2</ele>
  <time>2026-09-01T19:54:33Z</time>
  <course>235.66</course>
  <speed>0.01</speed>
  <fix>3d</fix>
</trkpt>
<trkpt lat="-27.2743156" lon="151.2888162">
  <ele>395.72</ele>
  <time>2026-09-01T19:54:33Z</time>
  <course>162.43</course>
  <speed>0.01</speed>
  <fix>3d</fix>
</trkpt>
<trkpt lat="-27.2743153" lon="151.2888162">
  <ele>395.05</ele>
  <time>2026-09-01T19:54:33Z</time>
  <course>235.66</course>
  <speed>0.01</speed>
  <fix>3d</fix>
</trkpt>
<trkpt lat="-27.2743156" lon="151.2888162">
  <ele>395.43</ele>
  <time>2026-09-01T19:54:33Z</time>
  <course>167.99</course>
  <speed>0.01</speed>
  <fix>3d</fix>
</trkpt>
<trkpt lat="-27.2743153" lon="151.2888162">
  <ele>394.9</ele>
  <time>2026-09-01T19:54:33Z</time>
  <course>235.67</course>
  <speed>0.01</speed>
  <fix>3d</fix>
</trkpt>
<trkpt lat="-27.2743156" lon="151.2888162">
  <ele>395.43</ele>
  <time>2026-09-01T19:54:33Z</time>
  <course>167.99</course>
  <speed>0.01</speed>
  <fix>3d</fix>
</trkpt>
<trkpt lat="-27.2743153" lon="151.2888162">
  <ele>394.75</ele>
  <time>2026-09-01T19:54:33Z</time>
  <course>235.68</course>
  <speed>0.01</speed>
  <fix>3d</fix>
</trkpt>
<trkpt lat="-27.2743156" lon="151.2888162">
  <ele>395.12</ele>
  <time>2026-09-01T19:54:33Z</time>
  <course>173.78</course>
  <speed>0.01</speed>
  <fix>3d</fix>
</trkpt>
<trkpt lat="-27.2743153" lon="151.2888162">
  <ele>394.6</ele>
  <time>2026-09-01T19:54:33Z</time>
  <course>235.68</course>
  <speed>0.01</speed>
  <fix>3d</fix>
</trkpt>
<trkpt lat="-27.2743156" lon="151.2888162">
  <ele>395.12</ele>
  <time>2026-09-01T19:54:33Z</time>
  <course>173.78</course>
  <speed>0.01</speed>
  <fix>3d</fix>
</trkpt>
<trkpt lat="-27.2743153" lon="151.2888162">
  <ele>394.45</ele>
  <time>2026-09-01T19:54:33Z</time>
  <course>235.66</course>
  <speed>0.02</speed>
  <fix>3d</fix>
</trkpt>
<trkpt lat="-27.2743156" lon="151.2888162">
  <ele>394.82</ele>
  <time>2026-09-01T19:54:33Z</time>
  <course>180.36</course>
  <speed>0.01</speed>
  <fix>3d</fix>
</trkpt>
<trkpt lat="-27.2743153" lon="151.2888162">
  <ele>394.3</ele>
  <time>2026-09-01T19:54:33Z</time>
  <course>235.63</course>
  <speed>0.02</speed>
  <fix>3d</fix>
</trkpt>
<trkpt lat="-27.2743156" lon="151.2888162">
  <ele>394.82</ele>
  <time>2026-09-01T19:54:33Z</time>
  <course>180.36</course>
  <speed>0.01</speed>
  <fix>3d</fix>
</trkpt>
<trkpt lat="-27.2743153" lon="151.2888162">
  <ele>394.15</ele>
  <time>2026-09-01T19:54:33Z</time>
  <course>235.59</course>
  <speed>0.02</speed>
  <fix>3d</fix>
</trkpt>
<trkpt lat="-27.2743156" lon="151.2888162">
  <ele>394.52</ele>
  <time>2026-09-01T19:54:33Z</time>
  <course>187.34</course>
  <speed>0.0</speed>
  <fix>3d</fix>
</trkpt>
<trkpt lat="-27.2743153" lon="151.2888162">
  <ele>393.99</ele>
  <time>2026-09-01T19:54:33Z</time>
  <course>235.55</course>
  <speed>0.02</speed>
  <fix>3d</fix>
</trkpt>
<trkpt lat="-27.2743156" lon="151.2888162">
  <ele>394.52</ele>
  <time>2026-09-01T19:54:33Z</time>
  <course>187.34</course>
  <speed>0.0</speed>
  <fix>3d</fix>
</trkpt>
<trkpt lat="-27.2743153" lon="151.2888162">
  <ele>393.84</ele>
  <time>2026-09-01T19:54:33Z</time>
  <course>235.5</course>
  <speed>0.02</speed>
  <fix>3d</fix>
</trkpt>
<trkpt lat="-27.2743157" lon="151.2888162">
  <ele>394.21</ele>
  <time>2026-09-01T19:54:33Z</time>
  <course>191.94</course>
  <speed>0.0</speed>
  <fix>3d</fix>
</trkpt>
<trkpt lat="-27.2743154" lon="151.2888162">
  <ele>393.69</ele>
  <time>2026-09-01T19:54:33Z</time>
  <course>235.45</course>
  <speed>0.02</speed>
  <fix>3d</fix>
</trkpt>
<trkpt lat="-27.2743157" lon="151.2888162">
  <ele>394.21</ele>
  <time>2026-09-01T19:54:33Z</time>
  <course>191.94</course>
  <speed>0.0</speed>
  <fix>3d</fix>
</trkpt>
<trkpt lat="-27.2743154" lon="151.2888162">
  <ele>393.54</ele>
  <time>2026-09-01T19:54:33Z</time>
  <course>235.41</course>
  <speed>0.02</speed>
  <fix>3d</fix>
</trkpt>
<trkpt lat="-27.2743157" lon="151.2888162">
  <ele>393.91</ele>
  <time>2026-09-01T19:54:33Z</time>
  <course>194.81</course>
  <speed>0.0</speed>
  <fix>3d</fix>
</trkpt>
<trkpt lat="-27.2743154" lon="151.2888162">
  <ele>393.39</ele>
  <time>2026-09-01T19:54:33Z</time>
  <course>235.39</course>
  <speed>0.02</speed>
  <fix>3d</fix>
</trkpt>
<trkpt lat="-27.2743157" lon="151.2888162">
  <ele>393.91</ele>
  <time>2026-09-01T19:54:33Z</time>
  <course>194.81</course>
  <speed>0.0</speed>
  <fix>3d</fix>
</trkpt>
<trkpt lat="-27.2743154" lon="151.2888162">
  <ele>393.24</ele>
  <time>2026-09-01T19:54:33Z</time>
  <course>235.37</course>
  <speed>0.02</speed>
  <fix>3d</fix>
</trkpt>
<trkpt lat="-27.2743157" lon="151.2888162">
  <ele>393.6</ele>
  <time>2026-09-01T19:54:33Z</time>
  <course>197.18</course>
  <speed>0.0</speed>
  <fix>3d</fix>
</trkpt>
<trkpt lat="-27.2743154" lon="151.2888162">
  <ele>393.1</ele>
  <time>2026-09-01T19:54:33Z</time>
  <course>235.36</course>
  <speed>0.02</speed>
  <fix>3d</fix>
</trkpt>
<trkpt lat="-27.2743157" lon="151.2888162">
  <ele>393.6</ele>
  <time>2026-09-01T19:54:33Z</time>
  <course>197.18</course>
  <speed>0.0</speed>
  <fix>3d</fix>
</trkpt>
<trkpt lat="-27.2743154" lon="151.2888162">
  <ele>392.95</ele>
  <time>2026-09-01T19:54:33Z</time>
  <course>235.36</course>
  <speed>0.02</speed>
  <fix>3d</fix>
</trkpt>
<trkpt lat="-27.2743157" lon="151.2888162">
  <ele>393.3</ele>
  <time>2026-09-01T19:54:33Z</time>
  <course>197.28</course>
  <speed>0.0</speed>
  <fix>3d</fix>
</trkpt>
<trkpt lat="-27.2743154" lon="151.2888162">
  <ele>392.8</ele>
  <time>2026-09-01T19:54:33Z</time>
  <course>235.36</course>
  <speed>0.01</speed>
  <fix>3d</fix>
</trkpt>
<trkpt lat="-27.2743157" lon="151.2888162">
  <ele>393.3</ele>
  <time>2026-09-01T19:54:33Z</time>
  <course>197.28</course>
  <speed>0.0</speed>
  <fix>3d</fix>
</trkpt>
<trkpt lat="-27.2743154" lon="151.2888162">
  <ele>392.65</ele>
  <time>2026-09-01T19:54:33Z</time>
  <course>235.38</course>
  <speed>0.01</speed>
  <fix>3d</fix>
</trkpt>
<trkpt lat="-27.2743157" lon="151.2888162">
  <ele>393.0</ele>
  <time>2026-09-01T19:54:33Z</time>
  <course>195.83</course>
  <speed>0.0</speed>
  <fix>3d</fix>
</trkpt>
<trkpt lat="-27.2743154" lon="151.2888162">
  <ele>392.5</ele>
  <time>2026-09-01T19:54:33Z</time>
  <course>235.41</course>
  <speed>0.01</speed>
  <fix>3d</fix>
</trkpt>
<trkpt lat="-27.2743157" lon="151.2888162">
  <ele>393.0</ele>
  <time>2026-09-01T19:54:33Z</time>
  <course>195.83</course>
  <speed>0.0</speed>
  <fix>3d</fix>
</trkpt>
<trkpt lat="-27.2743154" lon="151.2888162">
  <ele>392.35</ele>
  <time>2026-09-01T19:54:33Z</time>
  <course>235.44</course>
  <speed>0.01</speed>
  <fix>3d</fix>
</trkpt>
<trkpt lat="-27.2743157" lon="151.2888162">
  <ele>392.69</ele>
  <time>2026-09-01T19:54:33Z</time>
  <course>195.93</course>
  <speed>0.0</speed>
  <fix>3d</fix>
</trkpt>
<trkpt lat="-27.2743154" lon="151.2888162">
  <ele>392.2</ele>
  <time>2026-09-01T19:54:33Z</time>
  <course>235.46</course>
  <speed>0.01</speed>
  <fix>3d</fix>
</trkpt>
<trkpt lat="-27.2743157" lon="151.2888162">
  <ele>392.69</ele>
  <time>2026-09-01T19:54:33Z</time>
  <course>195.93</course>
  <speed>0.0</speed>
  <fix>3d</fix>
</trkpt>
<trkpt lat="-27.2743154" lon="151.2888162">
  <ele>392.04</ele>
  <time>2026-09-01T19:54:33Z</time>
  <course>235.48</course>
  <speed>0.02</speed>
  <fix>3d</fix>
</trkpt>
<trkpt lat="-27.2743157" lon="151.2888162">
  <ele>392.39</ele>
  <time>2026-09-01T19:54:33Z</time>
  <course>199.39</course>
  <speed>0.0</speed>
  <fix>3d</fix>
</trkpt>
<trkpt lat="-27.2743154" lon="151.2888162">
  <ele>391.89</ele>
  <time>2026-09-01T19:54:33Z</time>
  <course>235.48</course>
  <speed>0.01</speed>
  <fix>3d</fix>
</trkpt>
<trkpt lat="-27.2743157" lon="151.2888162">
  <ele>392.39</ele>
  <time>2026-09-01T19:54:33Z</time>
  <course>199.39</course>
  <speed>0.0</speed>
  <fix>3d</fix>
</trkpt>
<trkpt lat="-27.2743154" lon="151.2888162">
  <ele>391.74</ele>
  <time>2026-09-01T19:54:33Z</time>
  <course>235.46</course>
  <speed>0.03</speed>
  <fix>3d</fix>
</trkpt>
<trkpt lat="-27.2743157" lon="151.2888162">
  <ele>392.08</ele>
  <time>2026-09-01T19:54:33Z</time>
  <course>211.62</course>
  <speed>0.0</speed>
  <fix>3d</fix>
</trkpt>
<trkpt lat="-27.2743154" lon="151.2888162">
  <ele>391.58</ele>
  <time>2026-09-01T19:54:33Z</time>
  <course>235.43</course>
  <speed>0.03</speed>
  <fix>3d</fix>
</trkpt>
<trkpt lat="-27.2743157" lon="151.2888162">
  <ele>392.08</ele>
  <time>2026-09-01T19:54:33Z</time>
  <course>211.62</course>
  <speed>0.0</speed>
  <fix>3d</fix>
</trkpt>
<trkpt lat="-27.2743154" lon="151.2888162">
  <ele>391.43</ele>
  <time>2026-09-01T19:54:33Z</time>
  <course>235.38</course>
  <speed>0.03</speed>
  <fix>3d</fix>
</trkpt>
<trkpt lat="-27.2743157" lon="151.2888162">
  <ele>391.78</ele>
  <time>2026-09-01T19:54:33Z</time>
  <course>244.41</course>
  <speed>0.0</speed>
  <fix>3d</fix>
</trkpt>
<trkpt lat="-27.2743155" lon="151.2888162">
  <ele>391.28</ele>
  <time>2026-09-01T19:54:33Z</time>
  <course>235.32</course>
  <speed>0.03</speed>
  <fix>3d</fix>
</trkpt>
<trkpt lat="-27.2743157" lon="151.2888162">
  <ele>391.78</ele>
  <time>2026-09-01T19:54:33Z</time>
  <course>244.41</course>
  <speed>0.0</speed>
  <fix>3d</fix>
</trkpt>
<trkpt lat="-27.2743155" lon="151.2888162">
  <ele>391.13</ele>
  <time>2026-09-01T19:54:33Z</time>
  <course>235.26</course>
  <speed>0.03</speed>
  <fix>3d</fix>
</trkpt>
<trkpt lat="-27.2743157" lon="151.2888162">
  <ele>391.47</ele>
  <time>2026-09-01T19:54:33Z</time>
  <course>275.44</course>
  <speed>0.0</speed>
  <fix>3d</fix>
</trkpt>
<trkpt lat="-27.2743155" lon="151.2888162">
  <ele>390.98</ele>
  <time>2026-09-01T19:54:33Z</time>
  <course>235.21</course>
  <speed>0.03</speed>
  <fix>3d</fix>
</trkpt>
<trkpt lat="-27.2743157" lon="151.2888162">
  <ele>391.47</ele>
  <time>2026-09-01T19:54:33Z</time>
  <course>275.44</course>
  <speed>0.0</speed>
  <fix>3d</fix>
</trkpt>
<trkpt lat="-27.2743155" lon="151.2888162">
  <ele>390.83</ele>
  <time>2026-09-01T19:54:33Z</time>
  <course>235.16</course>
  <speed>0.03</speed>
  <fix>3d</fix>
</trkpt>
<trkpt lat="-27.2743157" lon="151.2888162">
  <ele>391.17</ele>
  <time>2026-09-01T19:54:33Z</time>
  <course>288.96</course>
  <speed>0.0</speed>
  <fix>3d</fix>
</trkpt>
<trkpt lat="-27.2743155" lon="151.2888162">
  <ele>390.67</ele>
  <time>2026-09-01T19:54:33Z</time>
  <course>235.12</course>
  <speed>0.03</speed>
  <fix>3d</fix>
</trkpt>
<trkpt lat="-27.2743157" lon="151.2888162">
  <ele>391.17</ele>
  <time>2026-09-01T19:54:33Z</time>
  <course>288.96</course>
  <speed>0.0</speed>
  <fix>3d</fix>
</trkpt>
<trkpt lat="-27.2743155" lon="151.2888162">
  <ele>390.52</ele>
  <time>2026-09-01T19:54:33Z</time>
  <course>235.09</course>
  <speed>0.03</speed>
  <fix>3d</fix>
</trkpt>
<trkpt lat="-27.2743157" lon="151.2888162">
  <ele>390.87</ele>
  <time>2026-09-01T19:54:33Z</time>
  <course>296.75</course>
  <speed>0.0</speed>
  <fix>3d</fix>
</trkpt>
<trkpt lat="-27.2743155" lon="151.2888162">
  <ele>390.37</ele>
  <time>2026-09-01T19:54:33Z</time>
  <course>235.07</course>
  <speed>0.03</speed>
  <fix>3d</fix>
</trkpt>
<trkpt lat="-27.2743157" lon="151.2888162">
  <ele>390.87</ele>
  <time>2026-09-01T19:54:33Z</time>
  <course>296.75</course>
  <speed>0.0</speed>
  <fix>3d</fix>
</trkpt>
<trkpt lat="-27.2743155" lon="151.2888162">
  <ele>390.22</ele>
  <time>2026-09-01T19:54:33Z</time>
  <course>235.05</course>
  <speed>0.03</speed>
  <fix>3d</fix>
</trkpt>
<trkpt lat="-27.2743157" lon="151.2888162">
  <ele>390.57</ele>
  <time>2026-09-01T19:54:33Z</time>
  <course>299.87</course>
  <speed>0.0</speed>
  <fix>3d</fix>
</trkpt>
<trkpt lat="-27.2743155" lon="151.2888162">
  <ele>390.07</ele>
  <time>2026-09-01T19:54:33Z</time>
  <course>235.04</course>
  <speed>0.04</speed>
  <fix>3d</fix>
</trkpt>
<trkpt lat="-27.2743157" lon="151.2888162">
  <ele>390.57</ele>
  <time>2026-09-01T19:54:33Z</time>
  <course>299.87</course>
  <speed>0.0</speed>
  <fix>3d</fix>
</trkpt>
<trkpt lat="-27.2743155" lon="151.2888162">
  <ele>389.92</ele>
  <time>2026-09-01T19:54:33Z</time>
  <course>235.03</course>
  <speed>0.04</speed>
  <fix>3d</fix>
</trkpt>
<trkpt lat="-27.2743157" lon="151.2888162">
  <ele>390.27</ele>
  <time>2026-09-01T19:54:33Z</time>
  <course>297.23</course>
  <speed>0.0</speed>
  <fix>3d</fix>
</trkpt>
<trkpt lat="-27.2743155" lon="151.2888162">
  <ele>389.77</ele>
  <time>2026-09-01T19:54:33Z</time>
  <course>235.02</course>
  <speed>0.0412310562561766</speed>
  <fix>3d</fix>
</trkpt>
<trkpt lat="-27.2743157" lon="151.2888162">
  <ele>390.27</ele>
  <time>2026-09-01T19:54:33Z</time>
  <course>297.23</course>
  <speed>0.0</speed>
  <fix>3d</fix>
</trkpt>
<trkpt lat="-27.2743154" lon="151.2888162">
  <ele>389.62</ele>
  <time>2026-09-01T19:54:33Z</time>
  <course>235.02</course>
  <speed>0.0412310562561766</speed>
  <fix>3d</fix>
</trkpt>
<trkpt lat="-27.2743157" lon="151.2888162">
  <ele>389.97</ele>
  <time>2026-09-01T19:54:33Z</time>
  <course>298.09</course>
  <speed>0.0</speed>
  <fix>3d</fix>
</trkpt>
<trkpt lat="-27.2743154" lon="151.2888162">
  <ele>389.47</ele>
  <time>2026-09-01T19:54:33Z</time>
  <course>235.0</course>
  <speed>0.04</speed>
  <fix>3d</fix>
</trkpt>
<trkpt lat="-27.2743157" lon="151.2888162">
  <ele>389.97</ele>
  <time>2026-09-01T19:54:33Z</time>
  <course>298.09</course>
  <speed>0.0</speed>
  <fix>3d</fix>
</trkpt>
<trkpt lat="-27.2743154" lon="151.2888162">
  <ele>389.32</ele>
  <time>2026-09-01T19:54:33Z</time>
  <course>234.97</course>
  <speed>0.0412310562561766</speed>
  <fix>3d</fix>
</trkpt>
<trkpt lat="-27.2743157" lon="151.2888162">
  <ele>389.67</ele>
  <time>2026-09-01T19:54:33Z</time>
  <course>303.82</course>
  <speed>0.0</speed>
  <fix>3d</fix>
</trkpt>
<trkpt lat="-27.2743154" lon="151.2888162">
  <ele>389.17</ele>
  <time>2026-09-01T19:54:33Z</time>
  <course>234.96</course>
  <speed>0.0412310562561766</speed>
  <fix>3d</fix>
</trkpt>
<trkpt lat="-27.2743157" lon="151.2888162">
  <ele>389.67</ele>
  <time>2026-09-01T19:54:33Z</time>
  <course>303.82</course>
  <speed>0.0</speed>
  <fix>3d</fix>
</trkpt>
<trkpt lat="-27.2743154" lon="151.2888161">
  <ele>389.02</ele>
  <time>2026-09-01T19:54:33Z</time>
  <course>234.93</course>
  <speed>0.0412310562561766</speed>
  <fix>3d</fix>
</trkpt>
<trkpt lat="-27.2743157" lon="151.2888162">
  <ele>389.38</ele>
  <time>2026-09-01T19:54:33Z</time>
  <course>310.61</course>
  <speed>0.01</speed>
  <fix>3d</fix>
</trkpt>
<trkpt lat="-27.2743154" lon="151.2888161">
  <ele>388.87</ele>
  <time>2026-09-01T19:54:33Z</time>
  <course>234.88</course>
  <speed>0.0412310562561766</speed>
  <fix>3d</fix>
</trkpt>
<trkpt lat="-27.2743157" lon="151.2888162">
  <ele>389.38</ele>
  <time>2026-09-01T19:54:33Z</time>
  <course>310.61</course>
  <speed>0.01</speed>
  <fix>3d</fix>
</trkpt>
<trkpt lat="-27.2743154" lon="151.2888161">
  <ele>388.72</ele>
  <time>2026-09-01T19:54:33Z</time>
  <course>234.84</course>
  <speed>0.0412310562561766</speed>
  <fix>3d</fix>
</trkpt>
<trkpt lat="-27.2743157" lon="151.2888162">
  <ele>389.08</ele>
  <time>2026-09-01T19:54:33Z</time>
  <course>315.08</course>
  <speed>0.01</speed>
  <fix>3d</fix>
</trkpt>
<trkpt lat="-27.2743154" lon="151.2888161">
  <ele>388.57</ele>
  <time>2026-09-01T19:54:33Z</time>
  <course>234.8</course>
  <speed>0.0412310562561766</speed>
  <fix>3d</fix>
</trkpt>
<trkpt lat="-27.2743157" lon="151.2888162">
  <ele>389.08</ele>
  <time>2026-09-01T19:54:33Z</time>
  <course>315.08</course>
  <speed>0.01</speed>
  <fix>3d</fix>
</trkpt>
<trkpt lat="-27.2743154" lon="151.2888161">
  <ele>388.42</ele>
  <time>2026-09-01T19:54:33Z</time>
  <course>234.77</course>
  <speed>0.05099019513592785</speed>
  <fix>3d</fix>
</trkpt>
<trkpt lat="-27.2743157" lon="151.2888162">
  <ele>388.78</ele>
  <time>2026-09-01T19:54:33Z</time>
  <course>317.14</course>
  <speed>0.01</speed>
  <fix>3d</fix>
</trkpt>
<trkpt lat="-27.2743154" lon="151.2888161">
  <ele>388.27</ele>
  <time>2026-09-01T19:54:33Z</time>
  <course>234.74</course>
  <speed>0.05099019513592785</speed>
  <fix>3d</fix>
</trkpt>
<trkpt lat="-27.2743157" lon="151.2888162">
  <ele>388.78</ele>
  <time>2026-09-01T19:54:33Z</time>
  <course>317.14</course>
  <speed>0.01</speed>
  <fix>3d</fix>
</trkpt>
<trkpt lat="-27.2743154" lon="151.2888161">
  <ele>388.12</ele>
  <time>2026-09-01T19:54:33Z</time>
  <course>234.72</course>
  <speed>0.05099019513592785</speed>
  <fix>3d</fix>
</trkpt>
<trkpt lat="-27.2743157" lon="151.2888162">
  <ele>388.48</ele>
  <time>2026-09-01T19:54:33Z</time>
  <course>318.45</course>
  <speed>0.01</speed>
  <fix>3d</fix>
</trkpt>
<trkpt lat="-27.2743154" lon="151.2888161">
  <ele>387.97</ele>
  <time>2026-09-01T19:54:33Z</time>
  <course>234.7</course>
  <speed>0.0412310562561766</speed>
  <fix>3d</fix>
</trkpt>
<trkpt lat="-27.2743157" lon="151.2888162">
  <ele>388.48</ele>
  <time>2026-09-01T19:54:33Z</time>
  <course>318.45</course>
  <speed>0.01</speed>
  <fix>3d</fix>
</trkpt>
<trkpt lat="-27.2743153" lon="151.2888161">
  <ele>387.82</ele>
  <time>2026-09-01T19:54:33Z</time>
  <course>234.7</course>
  <speed>0.05099019513592785</speed>
  <fix>3d</fix>
</trkpt>
<trkpt lat="-27.2743157" lon="151.2888161">
  <ele>388.19</ele>
  <time>2026-09-01T19:54:33Z</time>
  <course>317.69</course>
  <speed>0.01</speed>
  <fix>3d</fix>
</trkpt>
<trkpt lat="-27.2743153" lon="151.2888161">
  <ele>387.67</ele>
  <time>2026-09-01T19:54:33Z</time>
  <course>234.7</course>
  <speed>0.0412310562561766</speed>
  <fix>3d</fix>
</trkpt>
<trkpt lat="-27.2743157" lon="151.2888161">
  <ele>388.19</ele>
  <time>2026-09-01T19:54:33Z</time>
  <course>317.69</course>
  <speed>0.01</speed>
  <fix>3d</fix>
</trkpt>
<trkpt lat="-27.2743153" lon="151.2888161">
  <ele>387.52</ele>
  <time>2026-09-01T19:54:33Z</time>
  <course>234.69</course>
  <speed>0.0412310562561766</speed>
  <fix>3d</fix>
</trkpt>
<trkpt lat="-27.2743157" lon="151.2888161">
  <ele>387.89</ele>
  <time>2026-09-01T19:54:33Z</time>
  <course>316.54</course>
  <speed>0.01</speed>
  <fix>3d</fix>
</trkpt>
<trkpt lat="-27.2743153" lon="151.2888161">
  <ele>387.37</ele>
  <time>2026-09-01T19:54:33Z</time>
  <course>234.68</course>
  <speed>0.04</speed>
  <fix>3d</fix>
</trkpt>
<trkpt lat="-27.2743157" lon="151.2888161">
  <ele>387.89</ele>
  <time>2026-09-01T19:54:33Z</time>
  <course>316.54</course>
  <speed>0.01</speed>
  <fix>3d</fix>
</trkpt>
<trkpt lat="-27.2743153" lon="151.2888161">
  <ele>387.22</ele>
  <time>2026-09-01T19:54:33Z</time>
  <course>234.66</course>
  <speed>0.04</speed>
  <fix>3d</fix>
</trkpt>
<trkpt lat="-27.2743157" lon="151.2888161">
  <ele>387.59</ele>
  <time>2026-09-01T19:54:33Z</time>
  <course>317.39</course>
  <speed>0.01</speed>
  <fix>3d</fix>
</trkpt>
<trkpt lat="-27.2743153" lon="151.2888161">
  <ele>387.06</ele>
  <time>2026-09-01T19:54:33Z</time>
  <course>234.63</course>
  <speed>0.04</speed>
  <fix>3d</fix>
</trkpt>
<trkpt lat="-27.2743157" lon="151.2888161">
  <ele>387.59</ele>
  <time>2026-09-01T19:54:33Z</time>
  <course>317.39</course>
  <speed>0.01</speed>
  <fix>3d</fix>
</trkpt>
<trkpt lat="-27.2743153" lon="151.2888161">
  <ele>386.91</ele>
  <time>2026-09-01T19:54:33Z</time>
  <course>234.6</course>
  <speed>0.04</speed>
  <fix>3d</fix>
</trkpt>
<trkpt lat="-27.2743156" lon="151.2888161">
  <ele>387.29</ele>
  <time>2026-09-01T19:54:33Z</time>
  <course>317.22</course>
  <speed>0.01</speed>
  <fix>3d</fix>
</trkpt>
<trkpt lat="-27.2743153" lon="151.2888161">
  <ele>386.76</ele>
  <time>2026-09-01T19:54:33Z</time>
  <course>234.58</course>
  <speed>0.03</speed>
  <fix>3d</fix>
</trkpt>
<trkpt lat="-27.2743156" lon="151.2888161">
  <ele>387.29</ele>
  <time>2026-09-01T19:54:33Z</time>
  <course>317.22</course>
  <speed>0.01</speed>
  <fix>3d</fix>
</trkpt>
<trkpt lat="-27.2743153" lon="151.2888161">
  <ele>386.61</ele>
  <time>2026-09-01T19:54:33Z</time>
  <course>234.58</course>
  <speed>0.03</speed>
  <fix>3d</fix>
</trkpt>
<trkpt lat="-27.2743156" lon="151.2888161">
  <ele>387.0</ele>
  <time>2026-09-01T19:54:33Z</time>
  <course>315.9</course>
  <speed>0.01</speed>
  <fix>3d</fix>
</trkpt>
<trkpt lat="-27.2743153" lon="151.2888161">
  <ele>386.46</ele>
  <time>2026-09-01T19:54:33Z</time>
  <course>234.6</course>
  <speed>0.03</speed>
  <fix>3d</fix>
</trkpt>
<trkpt lat="-27.2743156" lon="151.2888161">
  <ele>387.0</ele>
  <time>2026-09-01T19:54:33Z</time>
  <course>315.9</course>
  <speed>0.01</speed>
  <fix>3d</fix>
</trkpt>
<trkpt lat="-27.2743153" lon="151.2888161">
  <ele>386.31</ele>
  <time>2026-09-01T19:54:33Z</time>
  <course>234.63</course>
  <speed>0.02</speed>
  <fix>3d</fix>
</trkpt>
<trkpt lat="-27.2743156" lon="151.2888161">
  <ele>386.7</ele>
  <time>2026-09-01T19:54:33Z</time>
  <course>314.65</course>
  <speed>0.01</speed>
  <fix>3d</fix>
</trkpt>
<trkpt lat="-27.2743153" lon="151.2888161">
  <ele>386.16</ele>
  <time>2026-09-01T19:54:33Z</time>
  <course>234.66</course>
  <speed>0.02</speed>
  <fix>3d</fix>
</trkpt>
<trkpt lat="-27.2743156" lon="151.2888161">
  <ele>386.7</ele>
  <time>2026-09-01T19:54:33Z</time>
  <course>314.65</course>
  <speed>0.01</speed>
  <fix>3d</fix>
</trkpt>
<trkpt lat="-27.2743153" lon="151.2888161">
  <ele>386.01</ele>
  <time>2026-09-01T19:54:33Z</time>
  <course>234.7</course>
  <speed>0.02</speed>
  <fix>3d</fix>
</trkpt>
<trkpt lat="-27.2743156" lon="151.2888161">
  <ele>386.4</ele>
  <time>2026-09-01T19:54:33Z</time>
  <course>312.84</course>
  <speed>0.01</speed>
  <fix>3d</fix>
</trkpt>
<trkpt lat="-27.2743154" lon="151.2888161">
  <ele>385.87</ele>
  <time>2026-09-01T19:54:33Z</time>
  <course>234.72</course>
  <speed>0.02</speed>
  <fix>3d</fix>
</trkpt>
<trkpt lat="-27.2743156" lon="151.2888161">
  <ele>386.4</ele>
  <time>2026-09-01T19:54:33Z</time>
  <course>312.84</course>
  <speed>0.01</speed>
  <fix>3d</fix>
</trkpt>
<trkpt lat="-27.2743154" lon="151.2888161">
  <ele>385.72</ele>
  <time>2026-09-01T19:54:33Z</time>
  <course>234.72</course>
  <speed>0.02</speed>
  <fix>3d</fix>
</trkpt>
<trkpt lat="-27.2743155" lon="151.288816">
  <ele>386.11</ele>
  <time>2026-09-01T19:54:33Z</time>
  <course>311.65</course>
  <speed>0.02</speed>
  <fix>3d</fix>
</trkpt>
<trkpt lat="-27.2743154" lon="151.2888161">
  <ele>385.57</ele>
  <time>2026-09-01T19:54:33Z</time>
  <course>234.69</course>
  <speed>0.02</speed>
  <fix>3d</fix>
</trkpt>
<trkpt lat="-27.2743155" lon="151.288816">
  <ele>386.11</ele>
  <time>2026-09-01T19:54:33Z</time>
  <course>311.65</course>
  <speed>0.02</speed>
  <fix>3d</fix>
</trkpt>
<trkpt lat="-27.2743153" lon="151.2888161">
  <ele>385.43</ele>
  <time>2026-09-01T19:54:33Z</time>
  <course>234.65</course>
  <speed>0.02</speed>
  <fix>3d</fix>
</trkpt>
<trkpt lat="-27.2743155" lon="151.288816">
  <ele>385.81</ele>
  <time>2026-09-01T19:54:33Z</time>
  <course>312.02</course>
  <speed>0.02</speed>
  <fix>3d</fix>
</trkpt>
<trkpt lat="-27.2743153" lon="151.288816">
  <ele>385.28</ele>
  <time>2026-09-01T19:54:33Z</time>
  <course>234.61</course>
  <speed>0.03</speed>
  <fix>3d</fix>
</trkpt>
<trkpt lat="-27.2743155" lon="151.288816">
  <ele>385.81</ele>
  <time>2026-09-01T19:54:33Z</time>
  <course>312.02</course>
  <speed>0.02</speed>
  <fix>3d</fix>
</trkpt>
<trkpt lat="-27.2743153" lon="151.288816">
  <ele>385.13</ele>
  <time>2026-09-01T19:54:33Z</time>
  <course>234.56</course>
  <speed>0.03</speed>
  <fix>3d</fix>
</trkpt>
<trkpt lat="-27.2743155" lon="151.288816">
  <ele>385.51</ele>
  <time>2026-09-01T19:54:33Z</time>
  <course>312.35</course>
  <speed>0.02</speed>
  <fix>3d</fix>
</trkpt>
<trkpt lat="-27.2743153" lon="151.288816">
  <ele>384.98</ele>
  <time>2026-09-01T19:54:33Z</time>
  <course>234.52</course>
  <speed>0.03</speed>
  <fix>3d</fix>
</trkpt>
<trkpt lat="-27.2743155" lon="151.288816">
  <ele>385.51</ele>
  <time>2026-09-01T19:54:33Z</time>
  <course>312.35</course>
  <speed>0.02</speed>
  <fix>3d</fix>
</trkpt>
<trkpt lat="-27.2743153" lon="151.288816">
  <ele>384.83</ele>
  <time>2026-09-01T19:54:33Z</time>
  <course>234.48</course>
  <speed>0.03</speed>
  <fix>3d</fix>
</trkpt>
<trkpt lat="-27.2743155" lon="151.2888159">
  <ele>385.22</ele>
  <time>2026-09-01T19:54:33Z</time>
  <course>311.58</course>
  <speed>0.02</speed>
  <fix>3d</fix>
</trkpt>
<trkpt lat="-27.2743153" lon="151.288816">
  <ele>384.68</ele>
  <time>2026-09-01T19:54:33Z</time>
  <course>234.45</course>
  <speed>0.03</speed>
  <fix>3d</fix>
</trkpt>
<trkpt lat="-27.2743155" lon="151.2888159">
  <ele>385.22</ele>
  <time>2026-09-01T19:54:33Z</time>
  <course>311.58</course>
  <speed>0.02</speed>
  <fix>3d</fix>
</trkpt>
<trkpt lat="-27.2743153" lon="151.288816">
  <ele>384.53</ele>
  <time>2026-09-01T19:54:33Z</time>
  <course>234.41</course>
  <speed>0.03</speed>
  <fix>3d</fix>
</trkpt>
<trkpt lat="-27.2743154" lon="151.2888159">
  <ele>384.91</ele>
  <time>2026-09-01T19:54:33Z</time>
  <course>311.02</course>
  <speed>0.02</speed>
  <fix>3d</fix>
</trkpt>
<trkpt lat="-27.2743153" lon="151.288816">
  <ele>384.38</ele>
  <time>2026-09-01T19:54:33Z</time>
  <course>234.37</course>
  <speed>0.0316227766016838</speed>
  <fix>3d</fix>
</trkpt>
<trkpt lat="-27.2743154" lon="151.2888159">
  <ele>384.91</ele>
  <time>2026-09-01T19:54:33Z</time>
  <course>311.02</course>
  <speed>0.02</speed>
  <fix>3d</fix>
</trkpt>
<trkpt lat="-27.2743152" lon="151.2888159">
  <ele>384.23</ele>
  <time>2026-09-01T19:54:33Z</time>
  <course>234.34</course>
  <speed>0.0316227766016838</speed>
  <fix>3d</fix>
</trkpt>
<trkpt lat="-27.2743154" lon="151.2888158">
  <ele>384.62</ele>
  <time>2026-09-01T19:54:33Z</time>
  <course>311.23</course>
  <speed>0.02</speed>
  <fix>3d</fix>
</trkpt>
<trkpt lat="-27.2743152" lon="151.2888159">
  <ele>384.08</ele>
  <time>2026-09-01T19:54:33Z</time>
  <course>234.31</course>
  <speed>0.0412310562561766</speed>
  <fix>3d</fix>
</trkpt>
<trkpt lat="-27.2743154" lon="151.2888158">
  <ele>384.62</ele>
  <time>2026-09-01T19:54:33Z</time>
  <course>311.23</course>
  <speed>0.02</speed>
  <fix>3d</fix>
</trkpt>
<trkpt lat="-27.2743152" lon="151.2888159">
  <ele>383.93</ele>
  <time>2026-09-01T19:54:33Z</time>
  <course>234.28</course>
  <speed>0.0412310562561766</speed>
  <fix>3d</fix>
</trkpt>
<trkpt lat="-27.2743154" lon="151.2888157">
  <ele>384.32</ele>
  <time>2026-09-01T19:54:33Z</time>
  <course>311.93</course>
  <speed>0.02</speed>
  <fix>3d</fix>
</trkpt>
<trkpt lat="-27.2743152" lon="151.2888159">
  <ele>383.78</ele>
  <time>2026-09-01T19:54:33Z</time>
  <course>234.26</course>
  <speed>0.0412310562561766</speed>
  <fix>3d</fix>
</trkpt>
<trkpt lat="-27.2743154" lon="151.2888157">
  <ele>384.32</ele>
  <time>2026-09-01T19:54:33Z</time>
  <course>311.93</course>
  <speed>0.02</speed>
  <fix>3d</fix>
</trkpt>
<trkpt lat="-27.2743152" lon="151.2888158">
  <ele>383.63</ele>
  <time>2026-09-01T19:54:34Z</time>
  <course>234.22</course>
  <speed>0.0412310562561766</speed>
  <fix>3d</fix>
</trkpt>
<trkpt lat="-27.2743153" lon="151.2888157">
  <ele>384.02</ele>
  <time>2026-09-01T19:54:34Z</time>
  <course>312.72</course>
  <speed>0.03</speed>
  <fix>3d</fix>
</trkpt>
<trkpt lat="-27.2743152" lon="151.2888158">
  <ele>383.48</ele>
  <time>2026-09-01T19:54:34Z</time>
  <course>234.16</course>
  <speed>0.0412310562561766</speed>
  <fix>3d</fix>
</trkpt>
<trkpt lat="-27.2743153" lon="151.2888157">
  <ele>384.02</ele>
  <time>2026-09-01T19:54:34Z</time>
  <course>312.72</course>
  <speed>0.03</speed>
  <fix>3d</fix>
</trkpt>
<trkpt lat="-27.2743151" lon="151.2888158">
  <ele>383.33</ele>
  <time>2026-09-01T19:54:34Z</time>
  <course>234.11</course>
  <speed>0.053851648071345036</speed>
  <fix>3d</fix>
</trkpt>
<trkpt lat="-27.2743153" lon="151.2888157">
  <ele>383.72</ele>
  <time>2026-09-01T19:54:34Z</time>
  <course>312.93</course>
  <speed>0.03</speed>
  <fix>3d</fix>
</trkpt>
<trkpt lat="-27.2743151" lon="151.2888157">
  <ele>383.18</ele>
  <time>2026-09-01T19:54:34Z</time>
  <course>234.05</course>
  <speed>0.053851648071345036</speed>
  <fix>3d</fix>
</trkpt>
<trkpt lat="-27.2743153" lon="151.2888157">
  <ele>383.72</ele>
  <time>2026-09-01T19:54:34Z</time>
  <course>312.93</course>
  <speed>0.03</speed>
  <fix>3d</fix>
</trkpt>
<trkpt lat="-27.2743151" lon="151.2888157">
  <ele>383.03</ele>
  <time>2026-09-01T19:54:34Z</time>
  <course>233.98</course>
  <speed>0.053851648071345036</speed>
  <fix>3d</fix>
</trkpt>
<trkpt lat="-27.2743152" lon="151.2888156">
  <ele>383.41</ele>
  <time>2026-09-01T19:54:34Z</time>
  <course>313.02</course>
  <speed>0.03</speed>
  <fix>3d</fix>
</trkpt>
<trkpt lat="-27.274315" lon="151.2888157">
  <ele>382.88</ele>
  <time>2026-09-01T19:54:34Z</time>
  <course>233.91</course>
  <speed>0.053851648071345036</speed>
  <fix>3d</fix>
</trkpt>
<trkpt lat="-27.2743152" lon="151.2888156">
  <ele>383.41</ele>
  <time>2026-09-01T19:54:34Z</time>
  <course>313.02</course>
  <speed>0.03</speed>
  <fix>3d</fix>
</trkpt>
<trkpt lat="-27.274315" lon="151.2888156">
  <ele>382.73</ele>
  <time>2026-09-01T19:54:34Z</time>
  <course>233.83</course>
  <speed>0.0632455532033676</speed>
  <fix>3d</fix>
</trkpt>
<trkpt lat="-27.2743152" lon="151.2888156">
  <ele>383.12</ele>
  <time>2026-09-01T19:54:34Z</time>
  <course>313.18</course>
  <speed>0.03</speed>
  <fix>3d</fix>
</trkpt>
<trkpt lat="-27.274315" lon="151.2888156">
  <ele>382.58</ele>
  <time>2026-09-01T19:54:34Z</time>
  <course>233.74</course>
  <speed>0.0670820393249937</speed>
  <fix>3d</fix>
</trkpt>
<trkpt lat="-27.2743152" lon="151.2888156">
  <ele>383.12</ele>
  <time>2026-09-01T19:54:34Z</time>
  <course>313.18</course>
  <speed>0.03</speed>
  <fix>3d</fix>
</trkpt>
<trkpt lat="-27.2743149" lon="151.2888156">
  <ele>382.43</ele>
  <time>2026-09-01T19:54:34Z</time>
  <course>233.65</course>
  <speed>0.0670820393249937</speed>
  <fix>3d</fix>
</trkpt>
<trkpt lat="-27.2743151" lon="151.2888155">
  <ele>382.82</ele>
  <time>2026-09-01T19:54:34Z</time>
  <course>313.24</course>
  <speed>0.04</speed>
  <fix>3d</fix>
</trkpt>
<trkpt lat="-27.2743149" lon="151.2888155">
  <ele>382.28</ele>
  <time>2026-09-01T19:54:34Z</time>
  <course>233.56</course>
  <speed>0.0670820393249937</speed>
  <fix>3d</fix>
</trkpt>
<trkpt lat="-27.2743151" lon="151.2888155">
  <ele>382.82</ele>
  <time>2026-09-01T19:54:34Z</time>
  <course>313.24</course>
  <speed>0.04</speed>
  <fix>3d</fix>
</trkpt>
<trkpt lat="-27.2743149" lon="151.2888155">
  <ele>382.13</ele>
  <time>2026-09-01T19:54:34Z</time>
  <course>233.46</course>
  <speed>0.0670820393249937</speed>
  <fix>3d</fix>
</trkpt>
<trkpt lat="-27.2743151" lon="151.2888155">
  <ele>382.52</ele>
  <time>2026-09-01T19:54:34Z</time>
  <course>313.15</course>
  <speed>0.04</speed>
  <fix>3d</fix>
</trkpt>
<trkpt lat="-27.2743148" lon="151.2888154">
  <ele>381.98</ele>
  <time>2026-09-01T19:54:34Z</time>
  <course>233.37</course>
  <speed>0.0670820393249937</speed>
  <fix>3d</fix>
</trkpt>
<trkpt lat="-27.2743151" lon="151.2888155">
  <ele>382.52</ele>
  <time>2026-09-01T19:54:34Z</time>
  <course>313.15</course>
  <speed>0.04</speed>
  <fix>3d</fix>
</trkpt>
<trkpt lat="-27.2743148" lon="151.2888154">
  <ele>381.83</ele>
  <time>2026-09-01T19:54:34Z</time>
  <course>233.28</course>
  <speed>0.07615773105863909</speed>
  <fix>3d</fix>
</trkpt>
<trkpt lat="-27.274315" lon="151.2888154">
  <ele>382.22</ele>
  <time>2026-09-01T19:54:34Z</time>
  <course>312.82</course>
  <speed>0.04</speed>
  <fix>3d</fix>
</trkpt>
<trkpt lat="-27.2743148" lon="151.2888154">
  <ele>381.68</ele>
  <time>2026-09-01T19:54:34Z</time>
  <course>233.19</course>
  <speed>0.08062257748298549</speed>
  <fix>3d</fix>
</trkpt>
<trkpt lat="-27.274315" lon="151.2888154">
  <ele>382.22</ele>
  <time>2026-09-01T19:54:34Z</time>
  <course>312.82</course>
  <speed>0.04</speed>
  <fix>3d</fix>
</trkpt>
<trkpt lat="-27.2743147" lon="151.2888153">
  <ele>381.53</ele>
  <time>2026-09-01T19:54:34Z</time>
  <course>233.09</course>
  <speed>0.08062257748298549</speed>
  <fix>3d</fix>
</trkpt>
<trkpt lat="-27.274315" lon="151.2888153">
  <ele>381.93</ele>
  <time>2026-09-01T19:54:34Z</time>
  <course>312.35</course>
  <speed>0.05</speed>
  <fix>3d</fix>
</trkpt>
<trkpt lat="-27.2743147" lon="151.2888153">
  <ele>381.38</ele>
  <time>2026-09-01T19:54:34Z</time>
  <course>232.99</course>
  <speed>0.08062257748298549</speed>
  <fix>3d</fix>
</trkpt>
<trkpt lat="-27.274315" lon="151.2888153">
  <ele>381.93</ele>
  <time>2026-09-01T19:54:34Z</time>
  <course>312.35</course>
  <speed>0.05</speed>
  <fix>3d</fix>
</trkpt>
<trkpt lat="-27.2743146" lon="151.2888152">
  <ele>381.24</ele>
  <time>2026-09-01T19:54:34Z</time>
  <course>232.89</course>
  <speed>0.08062257748298549</speed>
  <fix>3d</fix>
</trkpt>
<trkpt lat="-27.2743149" lon="151.2888152">
  <ele>381.63</ele>
  <time>2026-09-01T19:54:34Z</time>
  <course>311.78</course>
  <speed>0.05</speed>
  <fix>3d</fix>
</trkpt>
<trkpt lat="-27.2743146" lon="151.2888152">
  <ele>381.09</ele>
  <time>2026-09-01T19:54:34Z</time>
  <course>232.78</course>
  <speed>0.08062257748298549</speed>
  <fix>3d</fix>
</trkpt>
<trkpt lat="-27.2743149" lon="151.2888152">
  <ele>381.63</ele>
  <time>2026-09-01T19:54:34Z</time>
  <course>311.78</course>
  <speed>0.05</speed>
  <fix>3d</fix>
</trkpt>
<trkpt lat="-27.2743146" lon="151.2888151">
  <ele>380.94</ele>
  <time>2026-09-01T19:54:34Z</time>
  <course>232.67</course>
  <speed>0.08062257748298549</speed>
  <fix>3d</fix>
</trkpt>
<trkpt lat="-27.2743148" lon="151.2888151">
  <ele>381.33</ele>
  <time>2026-09-01T19:54:34Z</time>
  <course>310.98</course>
  <speed>0.05</speed>
  <fix>3d</fix>
</trkpt>
<trkpt lat="-27.2743145" lon="151.2888151">
  <ele>380.79</ele>
  <time>2026-09-01T19:54:34Z</time>
  <course>232.6</course>
  <speed>0.08062257748298549</speed>
  <fix>3d</fix>
</trkpt>
<trkpt lat="-27.2743148" lon="151.2888151">
  <ele>381.33</ele>
  <time>2026-09-01T19:54:34Z</time>
  <course>310.98</course>
  <speed>0.05</speed>
  <fix>3d</fix>
</trkpt>
<trkpt lat="-27.2743145" lon="151.288815">
  <ele>380.64</ele>
  <time>2026-09-01T19:54:34Z</time>
  <course>232.67</course>
  <speed>0.07211102550927978</speed>
  <fix>3d</fix>
</trkpt>
<trkpt lat="-27.2743148" lon="151.2888151">
  <ele>381.03</ele>
  <time>2026-09-01T19:54:34Z</time>
  <course>307.73</course>
  <speed>0.04</speed>
  <fix>3d</fix>
</trkpt>
<trkpt lat="-27.2743145" lon="151.288815">
  <ele>380.49</ele>
  <time>2026-09-01T19:54:34Z</time>
  <course>232.93</course>
  <speed>0.044721359549995794</speed>
  <fix>3d</fix>
</trkpt>
<trkpt lat="-27.2743148" lon="151.2888151">
  <ele>381.03</ele>
  <time>2026-09-01T19:54:34Z</time>
  <course>307.73</course>
  <speed>0.04</speed>
  <fix>3d</fix>
</trkpt>
<trkpt lat="-27.2743145" lon="151.288815">
  <ele>380.34</ele>
  <time>2026-09-01T19:54:34Z</time>
  <course>233.36</course>
  <speed>0.0316227766016838</speed>
  <fix>3d</fix>
</trkpt>
<trkpt lat="-27.2743148" lon="151.288815">
  <ele>380.72</ele>
  <time>2026-09-01T19:54:34Z</time>
  <course>289.65</course>
  <speed>0.02</speed>
  <fix>3d</fix>
</trkpt>
<trkpt lat="-27.2743145" lon="151.288815">
  <ele>380.19</ele>
  <time>2026-09-01T19:54:34Z</time>
  <course>233.85</course>
  <speed>0.01</speed>
  <fix>3d</fix>
</trkpt>
<trkpt lat="-27.2743148" lon="151.288815">
  <ele>380.72</ele>
  <time>2026-09-01T19:54:34Z</time>
  <course>289.65</course>
  <speed>0.02</speed>
  <fix>3d</fix>
</trkpt>
<trkpt lat="-27.2743145" lon="151.288815">
  <ele>380.04</ele>
  <time>2026-09-01T19:54:34Z</time>
  <course>234.35</course>
  <speed>0.0</speed>
  <fix>3d</fix>
</trkpt>
<trkpt lat="-27.2743148" lon="151.288815">
  <ele>380.43</ele>
  <time>2026-09-01T19:54:34Z</time>
  <course>185.69</course>
  <speed>0.02</speed>
  <fix>3d</fix>
</trkpt>
<trkpt lat="-27.2743145" lon="151.288815">
  <ele>379.89</ele>
  <time>2026-09-01T19:54:34Z</time>
  <course>234.8</course>
  <speed>0.01</speed>
  <fix>3d</fix>
</trkpt>
<trkpt lat="-27.2743148" lon="151.288815">
  <ele>380.43</ele>
  <time>2026-09-01T19:54:34Z</time>
  <course>185.69</course>
  <speed>0.02</speed>
  <fix>3d</fix>
</trkpt>
<trkpt lat="-27.2743146" lon="151.288815">
  <ele>379.74</ele>
  <time>2026-09-01T19:54:34Z</time>
  <course>235.13</course>
  <speed>0.022360679774997897</speed>
  <fix>3d</fix>
</trkpt>
<trkpt lat="-27.2743148" lon="151.288815">
  <ele>380.12</ele>
  <time>2026-09-01T19:54:34Z</time>
  <course>157.29</course>
  <speed>0.05</speed>
  <fix>3d</fix>
</trkpt>
<trkpt lat="-27.2743146" lon="151.288815">
  <ele>379.59</ele>
  <time>2026-09-01T19:54:34Z</time>
  <course>235.35</course>
  <speed>0.04242640687119285</speed>
  <fix>3d</fix>
</trkpt>
<trkpt lat="-27.2743148" lon="151.288815">
  <ele>380.12</ele>
  <time>2026-09-01T19:54:34Z</time>
  <course>157.29</course>
  <speed>0.05</speed>
  <fix>3d</fix>
</trkpt>
<trkpt lat="-27.2743146" lon="151.2888151">
  <ele>379.44</ele>
  <time>2026-09-01T19:54:34Z</time>
  <course>235.44</course>
  <speed>0.05</speed>
  <fix>3d</fix>
</trkpt>
<trkpt lat="-27.2743148" lon="151.288815">
  <ele>379.82</ele>
  <time>2026-09-01T19:54:34Z</time>
  <course>150.0</course>
  <speed>0.07</speed>
  <fix>3d</fix>
</trkpt>
<trkpt lat="-27.2743147" lon="151.2888151">
  <ele>379.29</ele>
  <time>2026-09-01T19:54:34Z</time>
  <course>235.44</course>
  <speed>0.06403124237432849</speed>
  <fix>3d</fix>
</trkpt>
<trkpt lat="-27.2743148" lon="151.288815">
  <ele>379.82</ele>
  <time>2026-09-01T19:54:34Z</time>
  <course>150.0</course>
  <speed>0.07</speed>
  <fix>3d</fix>
</trkpt>
<trkpt lat="-27.2743148" lon="151.2888151">
  <ele>379.13</ele>
  <time>2026-09-01T19:54:34Z</time>
  <course>235.37</course>
  <speed>0.07071067811865475</speed>
  <fix>3d</fix>
</trkpt>
<trkpt lat="-27.274315" lon="151.2888151">
  <ele>379.52</ele>
  <time>2026-09-01T19:54:34Z</time>
  <course>146.23</course>
  <speed>0.1</speed>
  <fix>3d</fix>
</trkpt>
<trkpt lat="-27.2743148" lon="151.2888152">
  <ele>378.98</ele>
  <time>2026-09-01T19:54:34Z</time>
  <course>235.26</course>
  <speed>0.0848528137423857</speed>
  <fix>3d</fix>
</trkpt>
<trkpt lat="-27.274315" lon="151.2888151">
  <ele>379.52</ele>
  <time>2026-09-01T19:54:34Z</time>
  <course>146.23</course>
  <speed>0.1</speed>
  <fix>3d</fix>
</trkpt>
<trkpt lat="-27.2743149" lon="151.2888152">
  <ele>378.83</ele>
  <time>2026-09-01T19:54:34Z</time>
  <course>235.14</course>
  <speed>0.09219544457292887</speed>
  <fix>3d</fix>
</trkpt>
<trkpt lat="-27.2743151" lon="151.2888152">
  <ele>379.22</ele>
  <time>2026-09-01T19:54:34Z</time>
  <course>143.89</course>
  <speed>0.12</speed>
  <fix>3d</fix>
</trkpt>
<trkpt lat="-27.274315" lon="151.2888153">
  <ele>378.68</ele>
  <time>2026-09-01T19:54:34Z</time>
  <course>235.04</course>
  <speed>0.09899494936611665</speed>
  <fix>3d</fix>
</trkpt>
<trkpt lat="-27.2743151" lon="151.2888152">
  <ele>379.22</ele>
  <time>2026-09-01T19:54:34Z</time>
  <course>143.89</course>
  <speed>0.12</speed>
  <fix>3d</fix>
</trkpt>
<trkpt lat="-27.2743151" lon="151.2888154">
  <ele>378.54</ele>
  <time>2026-09-01T19:54:34Z</time>
  <course>234.97</course>
  <speed>0.1063014581273465</speed>
  <fix>3d</fix>
</trkpt>
<trkpt lat="-27.2743153" lon="151.2888153">
  <ele>378.91</ele>
  <time>2026-09-01T19:54:34Z</time>
  <course>142.41</course>
  <speed>0.14</speed>
  <fix>3d</fix>
</trkpt>
<trkpt lat="-27.2743152" lon="151.2888155">
  <ele>378.39</ele>
  <time>2026-09-01T19:54:34Z</time>
  <course>234.93</course>
  <speed>0.12041594578792296</speed>
  <fix>3d</fix>
</trkpt>
<trkpt lat="-27.2743153" lon="151.2888153">
  <ele>378.91</ele>
  <time>2026-09-01T19:54:34Z</time>
  <course>142.41</course>
  <speed>0.14</speed>
  <fix>3d</fix>
</trkpt>
<trkpt lat="-27.2743153" lon="151.2888156">
  <ele>378.24</ele>
  <time>2026-09-01T19:54:34Z</time>
  <course>234.92</course>
  <speed>0.12041594578792296</speed>
  <fix>3d</fix>
</trkpt>
<trkpt lat="-27.2743155" lon="151.2888156">
  <ele>378.62</ele>
  <time>2026-09-01T19:54:34Z</time>
  <course>141.39</course>
  <speed>0.15</speed>
  <fix>3d</fix>
</trkpt>
<trkpt lat="-27.2743154" lon="151.2888157">
  <ele>378.09</ele>
  <time>2026-09-01T19:54:34Z</time>
  <course>234.94</course>
  <speed>0.12041594578792296</speed>
  <fix>3d</fix>
</trkpt>
<trkpt lat="-27.2743155" lon="151.2888156">
  <ele>378.62</ele>
  <time>2026-09-01T19:54:34Z</time>
  <course>141.39</course>
  <speed>0.15</speed>
  <fix>3d</fix>
</trkpt>
<trkpt lat="-27.2743155" lon="151.2888158">
  <ele>377.94</ele>
  <time>2026-09-01T19:54:34Z</time>
  <course>234.98</course>
  <speed>0.12806248474865697</speed>
  <fix>3d</fix>
</trkpt>
<trkpt lat="-27.2743157" lon="151.2888158">
  <ele>378.32</ele>
  <time>2026-09-01T19:54:34Z</time>
  <course>140.69</course>
  <speed>0.16</speed>
  <fix>3d</fix>
</trkpt>
<trkpt lat="-27.2743156" lon="151.2888159">
  <ele>377.79</ele>
  <time>2026-09-01T19:54:34Z</time>
  <course>235.02</course>
  <speed>0.1345362404707371</speed>
  <fix>3d</fix>
</trkpt>
<trkpt lat="-27.2743157" lon="151.2888158">
  <ele>378.32</ele>
  <time>2026-09-01T19:54:34Z</time>
  <course>140.69</course>
  <speed>0.16</speed>
  <fix>3d</fix>
</trkpt>
<trkpt lat="-27.2743157" lon="151.288816">
  <ele>377.64</ele>
  <time>2026-09-01T19:54:34Z</time>
  <course>235.07</course>
  <speed>0.1345362404707371</speed>
  <fix>3d</fix>
</trkpt>
<trkpt lat="-27.274316" lon="151.288816">
  <ele>378.02</ele>
  <time>2026-09-01T19:54:34Z</time>
  <course>140.21</course>
  <speed>0.17</speed>
  <fix>3d</fix>
</trkpt>
<trkpt lat="-27.2743159" lon="151.2888161">
  <ele>377.49</ele>
  <time>2026-09-01T19:54:34Z</time>
  <course>235.11</course>
  <speed>0.1345362404707371</speed>
  <fix>3d</fix>
</trkpt>
<trkpt lat="-27.274316" lon="151.288816">
  <ele>378.02</ele>
  <time>2026-09-01T19:54:34Z</time>
  <course>140.21</course>
  <speed>0.17</speed>
  <fix>3d</fix>
</trkpt>
<trkpt lat="-27.274316" lon="151.2888162">
  <ele>377.33</ele>
  <time>2026-09-01T19:54:34Z</time>
  <course>235.14</course>
  <speed>0.1345362404707371</speed>
  <fix>3d</fix>
</trkpt>
<trkpt lat="-27.2743162" lon="151.2888161">
  <ele>377.72</ele>
  <time>2026-09-01T19:54:34Z</time>
  <course>139.79</course>
  <speed>0.17</speed>
  <fix>3d</fix>
</trkpt>
<trkpt lat="-27.2743161" lon="151.2888163">
  <ele>377.18</ele>
  <time>2026-09-01T19:54:34Z</time>
  <course>235.16</course>
  <speed>0.12806248474865697</speed>
  <fix>3d</fix>
</trkpt>
<trkpt lat="-27.2743162" lon="151.2888161">
  <ele>377.72</ele>
  <time>2026-09-01T19:54:34Z</time>
  <course>139.79</course>
  <speed>0.17</speed>
  <fix>3d</fix>
</trkpt>
<trkpt lat="-27.2743162" lon="151.2888164">
  <ele>377.03</ele>
  <time>2026-09-01T19:54:34Z</time>
  <course>235.18</course>
  <speed>0.12806248474865697</speed>
  <fix>3d</fix>
</trkpt>
<trkpt lat="-27.2743165" lon="151.2888164">
  <ele>377.41</ele>
  <time>2026-09-01T19:54:34Z</time>
  <course>139.22</course>
  <speed>0.16</speed>
  <fix>3d</fix>
</trkpt>
<trkpt lat="-27.2743163" lon="151.2888165">
  <ele>376.88</ele>
  <time>2026-09-01T19:54:34Z</time>
  <course>235.18</course>
  <speed>0.12806248474865697</speed>
  <fix>3d</fix>
</trkpt>
<trkpt lat="-27.2743165" lon="151.2888164">
  <ele>377.41</ele>
  <time>2026-09-01T19:54:34Z</time>
  <course>139.22</course>
  <speed>0.16</speed>
  <fix>3d</fix>
</trkpt>
<trkpt lat="-27.2743164" lon="151.2888166">
  <ele>376.73</ele>
  <time>2026-09-01T19:54:34Z</time>
  <course>235.18</course>
  <speed>0.11401754250991379</speed>
  <fix>3d</fix>
</trkpt>
<trkpt lat="-27.2743167" lon="151.2888166">
  <ele>377.11</ele>
  <time>2026-09-01T19:54:34Z</time>
  <course>138.53</course>
  <speed>0.16</speed>
  <fix>3d</fix>
</trkpt>
<trkpt lat="-27.2743165" lon="151.2888167">
  <ele>376.58</ele>
  <time>2026-09-01T19:54:34Z</time>
  <course>235.18</course>
  <speed>0.11401754250991379</speed>
  <fix>3d</fix>
</trkpt>
<trkpt lat="-27.2743167" lon="151.2888166">
  <ele>377.11</ele>
  <time>2026-09-01T19:54:34Z</time>
  <course>138.53</course>
  <speed>0.16</speed>
  <fix>3d</fix>
</trkpt>
<trkpt lat="-27.2743166" lon="151.2888168">
  <ele>376.43</ele>
  <time>2026-09-01T19:54:34Z</time>
  <course>235.19</course>
  <speed>0.10816653826391968</speed>
  <fix>3d</fix>
</trkpt>
<trkpt lat="-27.2743169" lon="151.2888169">
  <ele>376.81</ele>
  <time>2026-09-01T19:54:34Z</time>
  <course>137.9</course>
  <speed>0.15</speed>
  <fix>3d</fix>
</trkpt>
<trkpt lat="-27.2743167" lon="151.2888169">
  <ele>376.29</ele>
  <time>2026-09-01T19:54:34Z</time>
  <course>235.19</course>
  <speed>0.1</speed>
  <fix>3d</fix>
</trkpt>
<trkpt lat="-27.2743169" lon="151.2888169">
  <ele>376.81</ele>
  <time>2026-09-01T19:54:34Z</time>
  <course>137.9</course>
  <speed>0.15</speed>
  <fix>3d</fix>
</trkpt>
<trkpt lat="-27.2743168" lon="151.288817">
  <ele>376.14</ele>
  <time>2026-09-01T19:54:34Z</time>
  <course>235.2</course>
  <speed>0.09433981132056603</speed>
  <fix>3d</fix>
</trkpt>
<trkpt lat="-27.2743171" lon="151.2888171">
  <ele>376.51</ele>
  <time>2026-09-01T19:54:34Z</time>
  <course>137.33</course>
  <speed>0.14</speed>
  <fix>3d</fix>
</trkpt>
<trkpt lat="-27.2743169" lon="151.2888171">
  <ele>375.98</ele>
  <time>2026-09-01T19:54:34Z</time>
  <course>235.2</course>
  <speed>0.09433981132056603</speed>
  <fix>3d</fix>
</trkpt>
<trkpt lat="-27.2743171" lon="151.2888171">
  <ele>376.51</ele>
  <time>2026-09-01T19:54:34Z</time>
  <course>137.33</course>
  <speed>0.14</speed>
  <fix>3d</fix>
</trkpt>
<trkpt lat="-27.274317" lon="151.2888172">
  <ele>375.83</ele>
  <time>2026-09-01T19:54:34Z</time>
  <course>235.21</course>
  <speed>0.08062257748298549</speed>
  <fix>3d</fix>
</trkpt>
<trkpt lat="-27.2743173" lon="151.2888172">
  <ele>376.21</ele>
  <time>2026-09-01T19:54:34Z</time>
  <course>136.68</course>
  <speed>0.12</speed>
  <fix>3d</fix>
</trkpt>
<trkpt lat="-27.274317" lon="151.2888173">
  <ele>375.68</ele>
  <time>2026-09-01T19:54:34Z</time>
  <course>235.22</course>
  <speed>0.08062257748298549</speed>
  <fix>3d</fix>
</trkpt>
<trkpt lat="-27.2743173" lon="151.2888172">
  <ele>376.21</ele>
  <time>2026-09-01T19:54:34Z</time>
  <course>136.68</course>
  <speed>0.12</speed>
  <fix>3d</fix>
</trkpt>
<trkpt lat="-27.2743171" lon="151.2888174">
  <ele>375.53</ele>
  <time>2026-09-01T19:54:34Z</time>
  <course>235.22</course>
  <speed>0.0670820393249937</speed>
  <fix>3d</fix>
</trkpt>
<trkpt lat="-27.2743174" lon="151.2888174">
  <ele>375.91</ele>
  <time>2026-09-01T19:54:34Z</time>
  <course>135.68</course>
  <speed>0.1</speed>
  <fix>3d</fix>
</trkpt>
<trkpt lat="-27.2743172" lon="151.2888174">
  <ele>375.38</ele>
  <time>2026-09-01T19:54:34Z</time>
  <course>235.22</course>
  <speed>0.0632455532033676</speed>
  <fix>3d</fix>
</trkpt>
<trkpt lat="-27.2743174" lon="151.2888174">
  <ele>375.91</ele>
  <time>2026-09-01T19:54:34Z</time>
  <course>135.68</course>
  <speed>0.1</speed>
  <fix>3d</fix>
</trkpt>
<trkpt lat="-27.2743172" lon="151.2888175">
  <ele>375.22</ele>
  <time>2026-09-01T19:54:34Z</time>
  <course>235.22</course>
  <speed>0.05099019513592785</speed>
  <fix>3d</fix>
</trkpt>
<trkpt lat="-27.2743175" lon="151.2888175">
  <ele>375.61</ele>
  <time>2026-09-01T19:54:34Z</time>
  <course>133.91</course>
  <speed>0.08</speed>
  <fix>3d</fix>
</trkpt>
<trkpt lat="-27.2743173" lon="151.2888176">
  <ele>375.07</ele>
  <time>2026-09-01T19:54:34Z</time>
  <course>235.21</course>
  <speed>0.04</speed>
  <fix>3d</fix>
</trkpt>
<trkpt lat="-27.2743175" lon="151.2888175">
  <ele>375.61</ele>
  <time>2026-09-01T19:54:34Z</time>
  <course>133.91</course>
  <speed>0.08</speed>
  <fix>3d</fix>
</trkpt>
<trkpt lat="-27.2743173" lon="151.2888176">
  <ele>374.92</ele>
  <time>2026-09-01T19:54:34Z</time>
  <course>235.18</course>
  <speed>0.04</speed>
  <fix>3d</fix>
</trkpt>
<trkpt lat="-27.2743176" lon="151.2888176">
  <ele>375.31</ele>
  <time>2026-09-01T19:54:34Z</time>
  <course>130.59</course>
  <speed>0.06</speed>
  <fix>3d</fix>
</trkpt>
<trkpt lat="-27.2743173" lon="151.2888176">
  <ele>374.77</ele>
  <time>2026-09-01T19:54:34Z</time>
  <course>235.15</course>
  <speed>0.0316227766016838</speed>
  <fix>3d</fix>
</trkpt>
<trkpt lat="-27.2743176" lon="151.2888176">
  <ele>375.31</ele>
  <time>2026-09-01T19:54:34Z</time>
  <course>130.59</course>
  <speed>0.06</speed>
  <fix>3d</fix>
</trkpt>
<trkpt lat="-27.2743173" lon="151.2888177">
  <ele>374.63</ele>
  <time>2026-09-01T19:54:34Z</time>
  <course>235.11</course>
  <speed>0.0282842712474619</speed>
  <fix>3d</fix>
</trkpt>
<trkpt lat="-27.2743177" lon="151.2888177">
  <ele>375.01</ele>
  <time>2026-09-01T19:54:34Z</time>
  <course>123.47</course>
  <speed>0.04</speed>
  <fix>3d</fix>
</trkpt>
<trkpt lat="-27.2743174" lon="151.2888177">
  <ele>374.48</ele>
  <time>2026-09-01T19:54:34Z</time>
  <course>235.05</course>
  <speed>0.0316227766016838</speed>
  <fix>3d</fix>
</trkpt>
<trkpt lat="-27.2743177" lon="151.2888177">
  <ele>375.01</ele>
  <time>2026-09-01T19:54:34Z</time>
  <course>123.47</course>
  <speed>0.04</speed>
  <fix>3d</fix>
</trkpt>
<trkpt lat="-27.2743173" lon="151.2888177">
  <ele>374.33</ele>
  <time>2026-09-01T19:54:34Z</time>
  <course>234.96</course>
  <speed>0.04</speed>
  <fix>3d</fix>
</trkpt>
<trkpt lat="-27.2743177" lon="151.2888178">
  <ele>374.71</ele>
  <time>2026-09-01T19:54:34Z</time>
  <course>97.99</course>
  <speed>0.02</speed>
  <fix>3d</fix>
</trkpt>
<trkpt lat="-27.2743173" lon="151.2888177">
  <ele>374.18</ele>
  <time>2026-09-01T19:54:34Z</time>
  <course>234.82</course>
  <speed>0.05</speed>
  <fix>3d</fix>
</trkpt>
<trkpt lat="-27.2743177" lon="151.2888178">
  <ele>374.71</ele>
  <time>2026-09-01T19:54:34Z</time>
  <course>97.99</course>
  <speed>0.02</speed>
  <fix>3d</fix>
</trkpt>
<trkpt lat="-27.2743173" lon="151.2888177">
  <ele>374.03</ele>
  <time>2026-09-01T19:54:34Z</time>
  <course>234.71</course>
  <speed>0.06</speed>
  <fix>3d</fix>
</trkpt>
<trkpt lat="-27.2743177" lon="151.2888178">
  <ele>374.71</ele>
  <time>2026-09-01T19:54:34Z</time>
  <course>97.99</course>
  <speed>0.02</speed>
  <fix>3d</fix>
</trkpt>
<trkpt lat="-27.2743173" lon="151.2888177">
  <ele>373.88</ele>
  <time>2026-09-01T19:54:34Z</time>
  <course>234.79</course>
  <speed>0.06</speed>
  <fix>3d</fix>
</trkpt>
<trkpt lat="-27.2743177" lon="151.2888178">
  <ele>374.41</ele>
  <time>2026-09-01T19:54:34Z</time>
  <course>10.74</course>
  <speed>0.01</speed>
  <fix>3d</fix>
</trkpt>
<trkpt lat="-27.2743173" lon="151.2888177">
  <ele>373.73</ele>
  <time>2026-09-01T19:54:34Z</time>
  <course>235.04</course>
  <speed>0.06</speed>
  <fix>3d</fix>
</trkpt>
<trkpt lat="-27.2743177" lon="151.2888178">
  <ele>374.11</ele>
  <time>2026-09-01T19:54:34Z</time>
  <course>348.22</course>
  <speed>0.02</speed>
  <fix>3d</fix>
</trkpt>
<trkpt lat="-27.2743173" lon="151.2888177">
  <ele>373.58</ele>
  <time>2026-09-01T19:54:34Z</time>
  <course>235.37</course>
  <speed>0.06082762530298219</speed>
  <fix>3d</fix>
</trkpt>
<trkpt lat="-27.2743177" lon="151.2888178">
  <ele>374.11</ele>
  <time>2026-09-01T19:54:34Z</time>
  <course>348.22</course>
  <speed>0.02</speed>
  <fix>3d</fix>
</trkpt>
<trkpt lat="-27.2743173" lon="151.2888177">
  <ele>373.43</ele>
  <time>2026-09-01T19:54:34Z</time>
  <course>235.72</course>
  <speed>0.06082762530298219</speed>
  <fix>3d</fix>
</trkpt>
<trkpt lat="-27.2743177" lon="151.2888178">
  <ele>373.82</ele>
  <time>2026-09-01T19:54:34Z</time>
  <course>344.38</course>
  <speed>0.02</speed>
  <fix>3d</fix>
</trkpt>
<trkpt lat="-27.2743173" lon="151.2888177">
  <ele>373.28</ele>
  <time>2026-09-01T19:54:34Z</time>
  <course>236.04</course>
  <speed>0.05</speed>
  <fix>3d</fix>
</trkpt>
<trkpt lat="-27.2743177" lon="151.2888178">
  <ele>373.82</ele>
  <time>2026-09-01T19:54:34Z</time>
  <course>344.38</course>
  <speed>0.02</speed>
  <fix>3d</fix>
</trkpt>
<trkpt lat="-27.2743173" lon="151.2888177">
  <ele>373.13</ele>
  <time>2026-09-01T19:54:34Z</time>
  <course>236.3</course>
  <speed>0.05</speed>
  <fix>3d</fix>
</trkpt>
<trkpt lat="-27.2743177" lon="151.2888178">
  <ele>373.52</ele>
  <time>2026-09-01T19:54:34Z</time>
  <course>342.44</course>
  <speed>0.02</speed>
  <fix>3d</fix>
</trkpt>
<trkpt lat="-27.2743173" lon="151.2888177">
  <ele>372.98</ele>
  <time>2026-09-01T19:54:34Z</time>
  <course>236.48</course>
  <speed>0.05</speed>
  <fix>3d</fix>
</trkpt>
<trkpt lat="-27.2743177" lon="151.2888178">
  <ele>373.52</ele>
  <time>2026-09-01T19:54:34Z</time>
  <course>342.44</course>
  <speed>0.02</speed>
  <fix>3d</fix>
</trkpt>
<trkpt lat="-27.2743173" lon="151.2888177">
  <ele>372.83</ele>
  <time>2026-09-01T19:54:34Z</time>
  <course>236.57</course>
  <speed>0.05</speed>
  <fix>3d</fix>
</trkpt>
<trkpt lat="-27.2743176" lon="151.2888178">
  <ele>373.22</ele>
  <time>2026-09-01T19:54:34Z</time>
  <course>341.5</course>
  <speed>0.02</speed>
  <fix>3d</fix>
</trkpt>
<trkpt lat="-27.2743173" lon="151.2888177">
  <ele>372.68</ele>
  <time>2026-09-01T19:54:34Z</time>
  <course>236.61</course>
  <speed>0.05</speed>
  <fix>3d</fix>
</trkpt>
<trkpt lat="-27.2743176" lon="151.2888178">
  <ele>373.22</ele>
  <time>2026-09-01T19:54:34Z</time>
  <course>341.5</course>
  <speed>0.02</speed>
  <fix>3d</fix>
</trkpt>
<trkpt lat="-27.2743172" lon="151.2888177">
  <ele>372.53</ele>
  <time>2026-09-01T19:54:34Z</time>
  <course>236.6</course>
  <speed>0.05</speed>
  <fix>3d</fix>
</trkpt>
<trkpt lat="-27.2743176" lon="151.2888178">
  <ele>372.91</ele>
  <time>2026-09-01T19:54:34Z</time>
  <course>341.59</course>
  <speed>0.02</speed>
  <fix>3d</fix>
</trkpt>
<trkpt lat="-27.2743172" lon="151.2888177">
  <ele>372.39</ele>
  <time>2026-09-01T19:54:34Z</time>
  <course>236.58</course>
  <speed>0.04</speed>
  <fix>3d</fix>
</trkpt>
<trkpt lat="-27.2743176" lon="151.2888178">
  <ele>372.91</ele>
  <time>2026-09-01T19:54:34Z</time>
  <course>341.59</course>
  <speed>0.02</speed>
  <fix>3d</fix>
</trkpt>
<trkpt lat="-27.2743172" lon="151.2888177">
  <ele>372.24</ele>
  <time>2026-09-01T19:54:34Z</time>
  <course>236.54</course>
  <speed>0.04</speed>
  <fix>3d</fix>
</trkpt>
<trkpt lat="-27.2743175" lon="151.2888178">
  <ele>372.62</ele>
  <time>2026-09-01T19:54:34Z</time>
  <course>341.75</course>
  <speed>0.02</speed>
  <fix>3d</fix>
</trkpt>
<trkpt lat="-27.2743172" lon="151.2888177">
  <ele>372.09</ele>
  <time>2026-09-01T19:54:34Z</time>
  <course>236.5</course>
  <speed>0.04</speed>
  <fix>3d</fix>
</trkpt>
<trkpt lat="-27.2743175" lon="151.2888178">
  <ele>372.62</ele>
  <time>2026-09-01T19:54:34Z</time>
  <course>341.75</course>
  <speed>0.02</speed>
  <fix>3d</fix>
</trkpt>
<trkpt lat="-27.2743172" lon="151.2888177">
  <ele>371.94</ele>
  <time>2026-09-01T19:54:34Z</time>
  <course>236.48</course>
  <speed>0.04</speed>
  <fix>3d</fix>
</trkpt>
<trkpt lat="-27.2743175" lon="151.2888178">
  <ele>372.32</ele>
  <time>2026-09-01T19:54:34Z</time>
  <course>341.08</course>
  <speed>0.02</speed>
  <fix>3d</fix>
</trkpt>
<trkpt lat="-27.2743172" lon="151.2888177">
  <ele>371.79</ele>
  <time>2026-09-01T19:54:34Z</time>
  <course>236.47</course>
  <speed>0.04</speed>
  <fix>3d</fix>
</trkpt>
<trkpt lat="-27.2743175" lon="151.2888178">
  <ele>372.32</ele>
  <time>2026-09-01T19:54:34Z</time>
  <course>341.08</course>
  <speed>0.02</speed>
  <fix>3d</fix>
</trkpt>
<trkpt lat="-27.2743172" lon="151.2888177">
  <ele>371.64</ele>
  <time>2026-09-01T19:54:34Z</time>
  <course>236.49</course>
  <speed>0.04</speed>
  <fix>3d</fix>
</trkpt>
<trkpt lat="-27.2743174" lon="151.2888178">
  <ele>372.02</ele>
  <time>2026-09-01T19:54:34Z</time>
  <course>340.17</course>
  <speed>0.02</speed>
  <fix>3d</fix>
</trkpt>
<trkpt lat="-27.2743172" lon="151.2888177">
  <ele>371.49</ele>
  <time>2026-09-01T19:54:34Z</time>
  <course>236.52</course>
  <speed>0.04</speed>
  <fix>3d</fix>
</trkpt>
<trkpt lat="-27.2743174" lon="151.2888178">
  <ele>372.02</ele>
  <time>2026-09-01T19:54:34Z</time>
  <course>340.17</course>
  <speed>0.02</speed>
  <fix>3d</fix>
</trkpt>
<trkpt lat="-27.2743172" lon="151.2888177">
  <ele>371.34</ele>
  <time>2026-09-01T19:54:34Z</time>
  <course>236.56</course>
  <speed>0.04</speed>
  <fix>3d</fix>
</trkpt>
<trkpt lat="-27.2743174" lon="151.2888178">
  <ele>371.72</ele>
  <time>2026-09-01T19:54:34Z</time>
  <course>338.57</course>
  <speed>0.02</speed>
  <fix>3d</fix>
</trkpt>
<trkpt lat="-27.2743172" lon="151.2888177">
  <ele>371.19</ele>
  <time>2026-09-01T19:54:34Z</time>
  <course>236.59</course>
  <speed>0.04</speed>
  <fix>3d</fix>
</trkpt>
<trkpt lat="-27.2743174" lon="151.2888178">
  <ele>371.72</ele>
  <time>2026-09-01T19:54:34Z</time>
  <course>338.57</course>
  <speed>0.02</speed>
  <fix>3d</fix>
</trkpt>
<trkpt lat="-27.2743171" lon="151.2888177">
  <ele>371.04</ele>
  <time>2026-09-01T19:54:34Z</time>
  <course>236.62</course>
  <speed>0.04</speed>
  <fix>3d</fix>
</trkpt>
<trkpt lat="-27.2743174" lon="151.2888178">
  <ele>371.72</ele>
  <time>2026-09-01T19:54:34Z</time>
  <course>338.57</course>
  <speed>0.02</speed>
  <fix>3d</fix>
</trkpt>
<trkpt lat="-27.2743171" lon="151.2888177">
  <ele>370.89</ele>
  <time>2026-09-01T19:54:34Z</time>
  <course>236.65</course>
  <speed>0.04</speed>
  <fix>3d</fix>
</trkpt>
<trkpt lat="-27.2743174" lon="151.2888178">
  <ele>371.41</ele>
  <time>2026-09-01T19:54:34Z</time>
  <course>335.85</course>
  <speed>0.02</speed>
  <fix>3d</fix>
</trkpt>
<trkpt lat="-27.2743171" lon="151.2888177">
  <ele>370.74</ele>
  <time>2026-09-01T19:54:34Z</time>
  <course>236.67</course>
  <speed>0.04</speed>
  <fix>3d</fix>
</trkpt>
<trkpt lat="-27.2743174" lon="151.2888178">
  <ele>371.41</ele>
  <time>2026-09-01T19:54:34Z</time>
  <course>335.85</course>
  <speed>0.02</speed>
  <fix>3d</fix>
</trkpt>
<trkpt lat="-27.2743171" lon="151.2888177">
  <ele>370.59</ele>
  <time>2026-09-01T19:54:34Z</time>
  <course>236.69</course>
  <speed>0.03</speed>
  <fix>3d</fix>
</trkpt>
<trkpt lat="-27.2743173" lon="151.2888178">
  <ele>371.11</ele>
  <time>2026-09-01T19:54:34Z</time>
  <course>333.29</course>
  <speed>0.02</speed>
  <fix>3d</fix>
</trkpt>
<trkpt lat="-27.2743171" lon="151.2888177">
  <ele>370.43</ele>
  <time>2026-09-01T19:54:34Z</time>
  <course>236.7</course>
  <speed>0.03</speed>
  <fix>3d</fix>
</trkpt>
<trkpt lat="-27.2743173" lon="151.2888178">
  <ele>371.11</ele>
  <time>2026-09-01T19:54:34Z</time>
  <course>333.29</course>
  <speed>0.02</speed>
  <fix>3d</fix>
</trkpt>
<trkpt lat="-27.2743171" lon="151.2888177">
  <ele>370.28</ele>
  <time>2026-09-01T19:54:34Z</time>
  <course>236.72</course>
  <speed>0.03</speed>
  <fix>3d</fix>
</trkpt>
<trkpt lat="-27.2743173" lon="151.2888178">
  <ele>370.81</ele>
  <time>2026-09-01T19:54:34Z</time>
  <course>330.88</course>
  <speed>0.02</speed>
  <fix>3d</fix>
</trkpt>
<trkpt lat="-27.2743171" lon="151.2888177">
  <ele>370.13</ele>
  <time>2026-09-01T19:54:34Z</time>
  <course>236.75</course>
  <speed>0.03</speed>
  <fix>3d</fix>
</trkpt>
<trkpt lat="-27.2743173" lon="151.2888178">
  <ele>370.81</ele>
  <time>2026-09-01T19:54:34Z</time>
  <course>330.88</course>
  <speed>0.02</speed>
  <fix>3d</fix>
</trkpt>
<trkpt lat="-27.2743171" lon="151.2888177">
  <ele>369.97</ele>
  <time>2026-09-01T19:54:34Z</time>
  <course>236.79</course>
  <speed>0.02</speed>
  <fix>3d</fix>
</trkpt>
<trkpt lat="-27.2743173" lon="151.2888177">
  <ele>370.51</ele>
  <time>2026-09-01T19:54:34Z</time>
  <course>327.2</course>
  <speed>0.01</speed>
  <fix>3d</fix>
</trkpt>
<trkpt lat="-27.2743171" lon="151.2888177">
  <ele>369.82</ele>
  <time>2026-09-01T19:54:34Z</time>
  <course>236.81</course>
  <speed>0.03</speed>
  <fix>3d</fix>
</trkpt>
<trkpt lat="-27.2743173" lon="151.2888177">
  <ele>370.51</ele>
  <time>2026-09-01T19:54:34Z</time>
  <course>327.2</course>
  <speed>0.01</speed>
  <fix>3d</fix>
</trkpt>
<trkpt lat="-27.2743171" lon="151.2888177">
  <ele>369.67</ele>
  <time>2026-09-01T19:54:34Z</time>
  <course>236.83</course>
  <speed>0.03</speed>
  <fix>3d</fix>
</trkpt>
<trkpt lat="-27.2743172" lon="151.2888176">
  <ele>370.21</ele>
  <time>2026-09-01T19:54:34Z</time>
  <course>322.0</course>
  <speed>0.01</speed>
  <fix>3d</fix>
</trkpt>
<trkpt lat="-27.2743171" lon="151.2888177">
  <ele>369.52</ele>
  <time>2026-09-01T19:54:34Z</time>
  <course>236.84</course>
  <speed>0.03</speed>
  <fix>3d</fix>
</trkpt>
<trkpt lat="-27.2743172" lon="151.2888176">
  <ele>369.91</ele>
  <time>2026-09-01T19:54:34Z</time>
  <course>317.93</course>
  <speed>0.01</speed>
  <fix>3d</fix>
</trkpt>
<trkpt lat="-27.274317" lon="151.2888177">
  <ele>369.37</ele>
  <time>2026-09-01T19:54:34Z</time>
  <course>236.85</course>
  <speed>0.03</speed>
  <fix>3d</fix>
</trkpt>
<trkpt lat="-27.2743172" lon="151.2888176">
  <ele>369.91</ele>
  <time>2026-09-01T19:54:34Z</time>
  <course>317.93</course>
  <speed>0.01</speed>
  <fix>3d</fix>
</trkpt>
<trkpt lat="-27.274317" lon="151.2888177">
  <ele>369.22</ele>
  <time>2026-09-01T19:54:34Z</time>
  <course>236.86</course>
  <speed>0.03</speed>
  <fix>3d</fix>
</trkpt>
<trkpt lat="-27.2743172" lon="151.2888176">
  <ele>369.61</ele>
  <time>2026-09-01T19:54:34Z</time>
  <course>317.31</course>
  <speed>0.01</speed>
  <fix>3d</fix>
</trkpt>
<trkpt lat="-27.274317" lon="151.2888177">
  <ele>369.08</ele>
  <time>2026-09-01T19:54:34Z</time>
  <course>236.86</course>
  <speed>0.03</speed>
  <fix>3d</fix>
</trkpt>
<trkpt lat="-27.2743172" lon="151.2888176">
  <ele>369.61</ele>
  <time>2026-09-01T19:54:34Z</time>
  <course>317.31</course>
  <speed>0.01</speed>
  <fix>3d</fix>
</trkpt>
<trkpt lat="-27.274317" lon="151.2888177">
  <ele>368.93</ele>
  <time>2026-09-01T19:54:34Z</time>
  <course>236.86</course>
  <speed>0.04</speed>
  <fix>3d</fix>
</trkpt>
<trkpt lat="-27.2743172" lon="151.2888176">
  <ele>369.31</ele>
  <time>2026-09-01T19:54:34Z</time>
  <course>318.52</course>
  <speed>0.01</speed>
  <fix>3d</fix>
</trkpt>
<trkpt lat="-27.274317" lon="151.2888177">
  <ele>368.78</ele>
  <time>2026-09-01T19:54:34Z</time>
  <course>236.83</course>
  <speed>0.05099019513592785</speed>
  <fix>3d</fix>
</trkpt>
<trkpt lat="-27.2743172" lon="151.2888176">
  <ele>369.31</ele>
  <time>2026-09-01T19:54:34Z</time>
  <course>318.52</course>
  <speed>0.01</speed>
  <fix>3d</fix>
</trkpt>
<trkpt lat="-27.274317" lon="151.2888176">
  <ele>368.63</ele>
  <time>2026-09-01T19:54:34Z</time>
  <course>236.8</course>
  <speed>0.05099019513592785</speed>
  <fix>3d</fix>
</trkpt>
<trkpt lat="-27.2743171" lon="151.2888175">
  <ele>369.01</ele>
  <time>2026-09-01T19:54:34Z</time>
  <course>318.12</course>
  <speed>0.01</speed>
  <fix>3d</fix>
</trkpt>
<trkpt lat="-27.2743169" lon="151.2888176">
  <ele>368.48</ele>
  <time>2026-09-01T19:54:34Z</time>
  <course>236.75</course>
  <speed>0.05099019513592785</speed>
  <fix>3d</fix>
</trkpt>
<trkpt lat="-27.2743171" lon="151.2888175">
  <ele>369.01</ele>
  <time>2026-09-01T19:54:34Z</time>
  <course>318.12</course>
  <speed>0.01</speed>
  <fix>3d</fix>
</trkpt>
<trkpt lat="-27.2743169" lon="151.2888176">
  <ele>368.34</ele>
  <time>2026-09-01T19:54:34Z</time>
  <course>236.69</course>
  <speed>0.05099019513592785</speed>
  <fix>3d</fix>
</trkpt>
<trkpt lat="-27.2743171" lon="151.2888175">
  <ele>368.71</ele>
  <time>2026-09-01T19:54:34Z</time>
  <course>316.0</course>
  <speed>0.02</speed>
  <fix>3d</fix>
</trkpt>
<trkpt lat="-27.2743169" lon="151.2888176">
  <ele>368.19</ele>
  <time>2026-09-01T19:54:34Z</time>
  <course>236.63</course>
  <speed>0.05099019513592785</speed>
  <fix>3d</fix>
</trkpt>
<trkpt lat="-27.2743171" lon="151.2888175">
  <ele>368.71</ele>
  <time>2026-09-01T19:54:34Z</time>
  <course>316.0</course>
  <speed>0.02</speed>
  <fix>3d</fix>
</trkpt>
<trkpt lat="-27.2743169" lon="151.2888175">
  <ele>368.04</ele>
  <time>2026-09-01T19:54:34Z</time>
  <course>236.59</course>
  <speed>0.05099019513592785</speed>
  <fix>3d</fix>
</trkpt>
<trkpt lat="-27.2743171" lon="151.2888175">
  <ele>368.41</ele>
  <time>2026-09-01T19:54:34Z</time>
  <course>313.88</course>
  <speed>0.02</speed>
  <fix>3d</fix>
</trkpt>
<trkpt lat="-27.2743169" lon="151.2888175">
  <ele>367.89</ele>
  <time>2026-09-01T19:54:34Z</time>
  <course>236.55</course>
  <speed>0.0412310562561766</speed>
  <fix>3d</fix>
</trkpt>
<trkpt lat="-27.2743171" lon="151.2888175">
  <ele>368.41</ele>
  <time>2026-09-01T19:54:34Z</time>
  <course>313.88</course>
  <speed>0.02</speed>
  <fix>3d</fix>
</trkpt>
<trkpt lat="-27.2743168" lon="151.2888175">
  <ele>367.74</ele>
  <time>2026-09-01T19:54:34Z</time>
  <course>236.53</course>
  <speed>0.0412310562561766</speed>
  <fix>3d</fix>
</trkpt>
<trkpt lat="-27.2743171" lon="151.2888175">
  <ele>368.41</ele>
  <time>2026-09-01T19:54:34Z</time>
  <course>313.88</course>
  <speed>0.02</speed>
  <fix>3d</fix>
</trkpt>
<trkpt lat="-27.2743168" lon="151.2888175">
  <ele>367.59</ele>
  <time>2026-09-01T19:54:34Z</time>
  <course>236.52</course>
  <speed>0.0412310562561766</speed>
  <fix>3d</fix>
</trkpt>
<trkpt lat="-27.2743171" lon="151.2888175">
  <ele>368.11</ele>
  <time>2026-09-01T19:54:34Z</time>
  <course>312.05</course>
  <speed>0.02</speed>
  <fix>3d</fix>
</trkpt>
<trkpt lat="-27.2743168" lon="151.2888175">
  <ele>367.44</ele>
  <time>2026-09-01T19:54:34Z</time>
  <course>236.52</course>
  <speed>0.0412310562561766</speed>
  <fix>3d</fix>
</trkpt>
<trkpt lat="-27.2743171" lon="151.2888175">
  <ele>368.11</ele>
  <time>2026-09-01T19:54:34Z</time>
  <course>312.05</course>
  <speed>0.02</speed>
  <fix>3d</fix>
</trkpt>
<trkpt lat="-27.2743168" lon="151.2888174">
  <ele>367.28</ele>
  <time>2026-09-01T19:54:34Z</time>
  <course>236.53</course>
  <speed>0.0412310562561766</speed>
  <fix>3d</fix>
</trkpt>
<trkpt lat="-27.274317" lon="151.2888175">
  <ele>367.81</ele>
  <time>2026-09-01T19:54:34Z</time>
  <course>310.65</course>
  <speed>0.02</speed>
  <fix>3d</fix>
</trkpt>
<trkpt lat="-27.2743168" lon="151.2888174">
  <ele>367.14</ele>
  <time>2026-09-01T19:54:34Z</time>
  <course>236.56</course>
  <speed>0.0412310562561766</speed>
  <fix>3d</fix>
</trkpt>
<trkpt lat="-27.274317" lon="151.2888175">
  <ele>367.81</ele>
  <time>2026-09-01T19:54:34Z</time>
  <course>310.65</course>
  <speed>0.02</speed>
  <fix>3d</fix>
</trkpt>
<trkpt lat="-27.2743168" lon="151.2888174">
  <ele>366.99</ele>
  <time>2026-09-01T19:54:34Z</time>
  <course>236.57</course>
  <speed>0.0412310562561766</speed>
  <fix>3d</fix>
</trkpt>
<trkpt lat="-27.274317" lon="151.2888174">
  <ele>367.51</ele>
  <time>2026-09-01T19:54:34Z</time>
  <course>309.36</course>
  <speed>0.02</speed>
  <fix>3d</fix>
</trkpt>
<trkpt lat="-27.2743167" lon="151.2888174">
  <ele>366.84</ele>
  <time>2026-09-01T19:54:34Z</time>
  <course>236.58</course>
  <speed>0.0412310562561766</speed>
  <fix>3d</fix>
</trkpt>
<trkpt lat="-27.274317" lon="151.2888174">
  <ele>367.51</ele>
  <time>2026-09-01T19:54:34Z</time>
  <course>309.36</course>
  <speed>0.02</speed>
  <fix>3d</fix>
</trkpt>
<trkpt lat="-27.2743167" lon="151.2888174">
  <ele>366.69</ele>
  <time>2026-09-01T19:54:34Z</time>
  <course>236.58</course>
  <speed>0.0412310562561766</speed>
  <fix>3d</fix>
</trkpt>
<trkpt lat="-27.274317" lon="151.2888174">
  <ele>367.21</ele>
  <time>2026-09-01T19:54:34Z</time>
  <course>308.01</course>
  <speed>0.02</speed>
  <fix>3d</fix>
</trkpt>
<trkpt lat="-27.2743167" lon="151.2888174">
  <ele>366.54</ele>
  <time>2026-09-01T19:54:34Z</time>
  <course>236.58</course>
  <speed>0.0412310562561766</speed>
  <fix>3d</fix>
</trkpt>
<trkpt lat="-27.274317" lon="151.2888174">
  <ele>367.21</ele>
  <time>2026-09-01T19:54:34Z</time>
  <course>308.01</course>
  <speed>0.02</speed>
  <fix>3d</fix>
</trkpt>
<trkpt lat="-27.2743167" lon="151.2888173">
  <ele>366.38</ele>
  <time>2026-09-01T19:54:34Z</time>
  <course>236.57</course>
  <speed>0.0412310562561766</speed>
  <fix>3d</fix>
</trkpt>
<trkpt lat="-27.274317" lon="151.2888174">
  <ele>366.91</ele>
  <time>2026-09-01T19:54:34Z</time>
  <course>306.63</course>
  <speed>0.02</speed>
  <fix>3d</fix>
</trkpt>
<trkpt lat="-27.2743167" lon="151.2888173">
  <ele>366.23</ele>
  <time>2026-09-01T19:54:34Z</time>
  <course>236.57</course>
  <speed>0.0412310562561766</speed>
  <fix>3d</fix>
</trkpt>
<trkpt lat="-27.274317" lon="151.2888174">
  <ele>366.91</ele>
  <time>2026-09-01T19:54:34Z</time>
  <course>306.63</course>
  <speed>0.02</speed>
  <fix>3d</fix>
</trkpt>
<trkpt lat="-27.2743167" lon="151.2888173">
  <ele>366.08</ele>
  <time>2026-09-01T19:54:34Z</time>
  <course>236.58</course>
  <speed>0.0412310562561766</speed>
  <fix>3d</fix>
</trkpt>
<trkpt lat="-27.2743169" lon="151.2888173">
  <ele>366.6</ele>
  <time>2026-09-01T19:54:34Z</time>
  <course>304.7</course>
  <speed>0.02</speed>
  <fix>3d</fix>
</trkpt>
<trkpt lat="-27.2743167" lon="151.2888173">
  <ele>365.93</ele>
  <time>2026-09-01T19:54:34Z</time>
  <course>236.6</course>
  <speed>0.044721359549995794</speed>
  <fix>3d</fix>
</trkpt>
<trkpt lat="-27.2743169" lon="151.2888173">
  <ele>366.6</ele>
  <time>2026-09-01T19:54:34Z</time>
  <course>304.7</course>
  <speed>0.02</speed>
  <fix>3d</fix>
</trkpt>
<trkpt lat="-27.2743167" lon="151.2888173">
  <ele>365.78</ele>
  <time>2026-09-01T19:54:34Z</time>
  <course>236.62</course>
  <speed>0.0412310562561766</speed>
  <fix>3d</fix>
</trkpt>
<trkpt lat="-27.2743169" lon="151.2888173">
  <ele>366.3</ele>
  <time>2026-09-01T19:54:34Z</time>
  <course>302.15</course>
  <speed>0.02</speed>
  <fix>3d</fix>
</trkpt>
<trkpt lat="-27.2743167" lon="151.2888173">
  <ele>365.63</ele>
  <time>2026-09-01T19:54:34Z</time>
  <course>236.63</course>
  <speed>0.044721359549995794</speed>
  <fix>3d</fix>
</trkpt>
<trkpt lat="-27.2743169" lon="151.2888173">
  <ele>366.3</ele>
  <time>2026-09-01T19:54:34Z</time>
  <course>302.15</course>
  <speed>0.02</speed>
  <fix>3d</fix>
</trkpt>
<trkpt lat="-27.2743166" lon="151.2888172">
  <ele>365.48</ele>
  <time>2026-09-01T19:54:34Z</time>
  <course>236.64</course>
  <speed>0.044721359549995794</speed>
  <fix>3d</fix>
</trkpt>
<trkpt lat="-27.2743169" lon="151.2888172">
  <ele>366.0</ele>
  <time>2026-09-01T19:54:34Z</time>
  <course>301.09</course>
  <speed>0.02</speed>
  <fix>3d</fix>
</trkpt>
<trkpt lat="-27.2743166" lon="151.2888172">
  <ele>365.33</ele>
  <time>2026-09-01T19:54:34Z</time>
  <course>236.63</course>
  <speed>0.044721359549995794</speed>
  <fix>3d</fix>
</trkpt>
<trkpt lat="-27.2743169" lon="151.2888171">
  <ele>365.7</ele>
  <time>2026-09-01T19:54:34Z</time>
  <course>301.33</course>
  <speed>0.02</speed>
  <fix>3d</fix>
</trkpt>
<trkpt lat="-27.2743166" lon="151.2888172">
  <ele>365.18</ele>
  <time>2026-09-01T19:54:34Z</time>
  <course>236.6</course>
  <speed>0.044721359549995794</speed>
  <fix>3d</fix>
</trkpt>
<trkpt lat="-27.2743169" lon="151.2888171">
  <ele>365.7</ele>
  <time>2026-09-01T19:54:34Z</time>
  <course>301.33</course>
  <speed>0.02</speed>
  <fix>3d</fix>
</trkpt>
<trkpt lat="-27.2743166" lon="151.2888172">
  <ele>365.03</ele>
  <time>2026-09-01T19:54:34Z</time>
  <course>236.57</course>
  <speed>0.044721359549995794</speed>
  <fix>3d</fix>
</trkpt>
<trkpt lat="-27.2743168" lon="151.2888171">
  <ele>365.4</ele>
  <time>2026-09-01T19:54:34Z</time>
  <course>301.89</course>
  <speed>0.02</speed>
  <fix>3d</fix>
</trkpt>
<trkpt lat="-27.2743166" lon="151.2888171">
  <ele>364.88</ele>
  <time>2026-09-01T19:54:34Z</time>
  <course>236.55</course>
  <speed>0.044721359549995794</speed>
  <fix>3d</fix>
</trkpt>
<trkpt lat="-27.2743168" lon="151.2888171">
  <ele>365.4</ele>
  <time>2026-09-01T19:54:34Z</time>
  <course>301.89</course>
  <speed>0.02</speed>
  <fix>3d</fix>
</trkpt>
<trkpt lat="-27.2743166" lon="151.2888171">
  <ele>364.73</ele>
  <time>2026-09-01T19:54:34Z</time>
  <course>236.52</course>
  <speed>0.044721359549995794</speed>
  <fix>3d</fix>
</trkpt>
<trkpt lat="-27.2743168" lon="151.2888171">
  <ele>365.4</ele>
  <time>2026-09-01T19:54:34Z</time>
  <course>301.89</course>
  <speed>0.02</speed>
  <fix>3d</fix>
</trkpt>
<trkpt lat="-27.2743166" lon="151.2888171">
  <ele>364.58</ele>
  <time>2026-09-01T19:54:34Z</time>
  <course>236.5</course>
  <speed>0.0412310562561766</speed>
  <fix>3d</fix>
</trkpt>
<trkpt lat="-27.2743168" lon="151.2888171">
  <ele>365.1</ele>
  <time>2026-09-01T19:54:34Z</time>
  <course>303.93</course>
  <speed>0.02</speed>
  <fix>3d</fix>
</trkpt>
<trkpt lat="-27.2743165" lon="151.2888171">
  <ele>364.43</ele>
  <time>2026-09-01T19:54:34Z</time>
  <course>236.46</course>
  <speed>0.0412310562561766</speed>
  <fix>3d</fix>
</trkpt>
<trkpt lat="-27.2743168" lon="151.2888171">
  <ele>365.1</ele>
  <time>2026-09-01T19:54:34Z</time>
  <course>303.93</course>
  <speed>0.02</speed>
  <fix>3d</fix>
</trkpt>
<trkpt lat="-27.2743165" lon="151.288817">
  <ele>364.28</ele>
  <time>2026-09-01T19:54:34Z</time>
  <course>236.42</course>
  <speed>0.0412310562561766</speed>
  <fix>3d</fix>
</trkpt>
<trkpt lat="-27.2743168" lon="151.2888171">
  <ele>364.79</ele>
  <time>2026-09-01T19:54:34Z</time>
  <course>307.23</course>
  <speed>0.02</speed>
  <fix>3d</fix>
</trkpt>
<trkpt lat="-27.2743165" lon="151.288817">
  <ele>364.13</ele>
  <time>2026-09-01T19:54:34Z</time>
  <course>236.39</course>
  <speed>0.0412310562561766</speed>
  <fix>3d</fix>
</trkpt>
<trkpt lat="-27.2743168" lon="151.2888171">
  <ele>364.79</ele>
  <time>2026-09-01T19:54:34Z</time>
  <course>307.23</course>
  <speed>0.02</speed>
  <fix>3d</fix>
</trkpt>
<trkpt lat="-27.2743165" lon="151.288817">
  <ele>363.98</ele>
  <time>2026-09-01T19:54:34Z</time>
  <course>236.37</course>
  <speed>0.0412310562561766</speed>
  <fix>3d</fix>
</trkpt>
<trkpt lat="-27.2743167" lon="151.288817">
  <ele>364.49</ele>
  <time>2026-09-01T19:54:34Z</time>
  <course>310.35</course>
  <speed>0.02</speed>
  <fix>3d</fix>
</trkpt>
<trkpt lat="-27.2743165" lon="151.288817">
  <ele>363.84</ele>
  <time>2026-09-01T19:54:34Z</time>
  <course>236.35</course>
  <speed>0.0412310562561766</speed>
  <fix>3d</fix>
</trkpt>
<trkpt lat="-27.2743167" lon="151.288817">
  <ele>364.49</ele>
  <time>2026-09-01T19:54:34Z</time>
  <course>310.35</course>
  <speed>0.02</speed>
  <fix>3d</fix>
</trkpt>
<trkpt lat="-27.2743165" lon="151.288817">
  <ele>363.68</ele>
  <time>2026-09-01T19:54:34Z</time>
  <course>236.34</course>
  <speed>0.0412310562561766</speed>
  <fix>3d</fix>
</trkpt>
<trkpt lat="-27.2743167" lon="151.288817">
  <ele>364.19</ele>
  <time>2026-09-01T19:54:34Z</time>
  <course>312.37</course>
  <speed>0.02</speed>
  <fix>3d</fix>
</trkpt>
<trkpt lat="-27.2743164" lon="151.288817">
  <ele>363.53</ele>
  <time>2026-09-01T19:54:34Z</time>
  <course>236.33</course>
  <speed>0.0412310562561766</speed>
  <fix>3d</fix>
</trkpt>
<trkpt lat="-27.2743167" lon="151.288817">
  <ele>364.19</ele>
  <time>2026-09-01T19:54:34Z</time>
  <course>312.37</course>
  <speed>0.02</speed>
  <fix>3d</fix>
</trkpt>
<trkpt lat="-27.2743164" lon="151.2888169">
  <ele>363.38</ele>
  <time>2026-09-01T19:54:34Z</time>
  <course>236.33</course>
  <speed>0.0412310562561766</speed>
  <fix>3d</fix>
</trkpt>
<trkpt lat="-27.2743167" lon="151.2888169">
  <ele>363.89</ele>
  <time>2026-09-01T19:54:34Z</time>
  <course>313.35</course>
  <speed>0.02</speed>
  <fix>3d</fix>
</trkpt>
<trkpt lat="-27.2743164" lon="151.2888169">
  <ele>363.23</ele>
  <time>2026-09-01T19:54:34Z</time>
  <course>236.32</course>
  <speed>0.0412310562561766</speed>
  <fix>3d</fix>
</trkpt>
<trkpt lat="-27.2743167" lon="151.2888169">
  <ele>363.89</ele>
  <time>2026-09-01T19:54:34Z</time>
  <course>313.35</course>
  <speed>0.02</speed>
  <fix>3d</fix>
</trkpt>
<trkpt lat="-27.2743164" lon="151.2888169">
  <ele>363.08</ele>
  <time>2026-09-01T19:54:34Z</time>
  <course>236.31</course>
  <speed>0.0412310562561766</speed>
  <fix>3d</fix>
</trkpt>
<trkpt lat="-27.2743166" lon="151.2888169">
  <ele>363.59</ele>
  <time>2026-09-01T19:54:34Z</time>
  <course>313.07</course>
  <speed>0.02</speed>
  <fix>3d</fix>
</trkpt>
<trkpt lat="-27.2743164" lon="151.2888169">
  <ele>362.93</ele>
  <time>2026-09-01T19:54:34Z</time>
  <course>236.3</course>
  <speed>0.0412310562561766</speed>
  <fix>3d</fix>
</trkpt>
<trkpt lat="-27.2743166" lon="151.2888169">
  <ele>363.59</ele>
  <time>2026-09-01T19:54:34Z</time>
  <course>313.07</course>
  <speed>0.02</speed>
  <fix>3d</fix>
</trkpt>
<trkpt lat="-27.2743164" lon="151.2888169">
  <ele>362.78</ele>
  <time>2026-09-01T19:54:34Z</time>
  <course>236.29</course>
  <speed>0.0412310562561766</speed>
  <fix>3d</fix>
</trkpt>
<trkpt lat="-27.2743166" lon="151.2888168">
  <ele>363.29</ele>
  <time>2026-09-01T19:54:34Z</time>
  <course>312.45</course>
  <speed>0.02</speed>
  <fix>3d</fix>
</trkpt>
<trkpt lat="-27.2743164" lon="151.2888169">
  <ele>362.63</ele>
  <time>2026-09-01T19:54:34Z</time>
  <course>236.3</course>
  <speed>0.0412310562561766</speed>
  <fix>3d</fix>
</trkpt>
<trkpt lat="-27.2743166" lon="151.2888168">
  <ele>363.29</ele>
  <time>2026-09-01T19:54:34Z</time>
  <course>312.45</course>
  <speed>0.02</speed>
  <fix>3d</fix>
</trkpt>
<trkpt lat="-27.2743164" lon="151.2888168">
  <ele>362.48</ele>
  <time>2026-09-01T19:54:34Z</time>
  <course>236.32</course>
  <speed>0.0412310562561766</speed>
  <fix>3d</fix>
</trkpt>
<trkpt lat="-27.2743166" lon="151.2888168">
  <ele>362.99</ele>
  <time>2026-09-01T19:54:34Z</time>
  <course>312.04</course>
  <speed>0.02</speed>
  <fix>3d</fix>
</trkpt>
<trkpt lat="-27.2743163" lon="151.2888168">
  <ele>362.33</ele>
  <time>2026-09-01T19:54:34Z</time>
  <course>236.34</course>
  <speed>0.0412310562561766</speed>
  <fix>3d</fix>
</trkpt>
<trkpt lat="-27.2743166" lon="151.2888168">
  <ele>362.99</ele>
  <time>2026-09-01T19:54:34Z</time>
  <course>312.04</course>
  <speed>0.02</speed>
  <fix>3d</fix>
</trkpt>
<trkpt lat="-27.2743163" lon="151.2888168">
  <ele>362.18</ele>
  <time>2026-09-01T19:54:34Z</time>
  <course>236.35</course>
  <speed>0.0412310562561766</speed>
  <fix>3d</fix>
</trkpt>
<trkpt lat="-27.2743165" lon="151.2888168">
  <ele>362.69</ele>
  <time>2026-09-01T19:54:34Z</time>
  <course>312.03</course>
  <speed>0.02</speed>
  <fix>3d</fix>
</trkpt>
<trkpt lat="-27.2743163" lon="151.2888168">
  <ele>362.03</ele>
  <time>2026-09-01T19:54:34Z</time>
  <course>236.34</course>
  <speed>0.0412310562561766</speed>
  <fix>3d</fix>
</trkpt>
<trkpt lat="-27.2743165" lon="151.2888168">
  <ele>362.69</ele>
  <time>2026-09-01T19:54:34Z</time>
  <course>312.03</course>
  <speed>0.02</speed>
  <fix>3d</fix>
</trkpt>
<trkpt lat="-27.2743163" lon="151.2888168">
  <ele>361.88</ele>
  <time>2026-09-01T19:54:34Z</time>
  <course>236.33</course>
  <speed>0.0316227766016838</speed>
  <fix>3d</fix>
</trkpt>
<trkpt lat="-27.2743165" lon="151.2888167">
  <ele>362.39</ele>
  <time>2026-09-01T19:54:34Z</time>
  <course>312.94</course>
  <speed>0.02</speed>
  <fix>3d</fix>
</trkpt>
<trkpt lat="-27.2743163" lon="151.2888167">
  <ele>361.73</ele>
  <time>2026-09-01T19:54:34Z</time>
  <course>236.29</course>
  <speed>0.0412310562561766</speed>
  <fix>3d</fix>
</trkpt>
<trkpt lat="-27.2743165" lon="151.2888167">
  <ele>362.39</ele>
  <time>2026-09-01T19:54:34Z</time>
  <course>312.94</course>
  <speed>0.02</speed>
  <fix>3d</fix>
</trkpt>
<trkpt lat="-27.2743163" lon="151.2888167">
  <ele>361.58</ele>
  <time>2026-09-01T19:54:34Z</time>
  <course>236.25</course>
  <speed>0.0412310562561766</speed>
  <fix>3d</fix>
</trkpt>
<trkpt lat="-27.2743165" lon="151.2888166">
  <ele>362.09</ele>
  <time>2026-09-01T19:54:34Z</time>
  <course>314.55</course>
  <speed>0.03</speed>
  <fix>3d</fix>
</trkpt>
<trkpt lat="-27.2743162" lon="151.2888167">
  <ele>361.43</ele>
  <time>2026-09-01T19:54:34Z</time>
  <course>236.21</course>
  <speed>0.0412310562561766</speed>
  <fix>3d</fix>
</trkpt>
<trkpt lat="-27.2743165" lon="151.2888166">
  <ele>362.09</ele>
  <time>2026-09-01T19:54:34Z</time>
  <course>314.55</course>
  <speed>0.03</speed>
  <fix>3d</fix>
</trkpt>
<trkpt lat="-27.2743162" lon="151.2888167">
  <ele>361.28</ele>
  <time>2026-09-01T19:54:34Z</time>
  <course>236.18</course>
  <speed>0.0412310562561766</speed>
  <fix>3d</fix>
</trkpt>
<trkpt lat="-27.2743164" lon="151.2888166">
  <ele>361.79</ele>
  <time>2026-09-01T19:54:34Z</time>
  <course>316.64</course>
  <speed>0.03</speed>
  <fix>3d</fix>
</trkpt>
<trkpt lat="-27.2743162" lon="151.2888167">
  <ele>361.13</ele>
  <time>2026-09-01T19:54:34Z</time>
  <course>236.15</course>
  <speed>0.0412310562561766</speed>
  <fix>3d</fix>
</trkpt>
<trkpt lat="-27.2743164" lon="151.2888166">
  <ele>361.79</ele>
  <time>2026-09-01T19:54:34Z</time>
  <course>316.64</course>
  <speed>0.03</speed>
  <fix>3d</fix>
</trkpt>
<trkpt lat="-27.2743162" lon="151.2888166">
  <ele>360.98</ele>
  <time>2026-09-01T19:54:34Z</time>
  <course>236.13</course>
  <speed>0.0412310562561766</speed>
  <fix>3d</fix>
</trkpt>
<trkpt lat="-27.2743164" lon="151.2888166">
  <ele>361.49</ele>
  <time>2026-09-01T19:54:34Z</time>
  <course>318.33</course>
  <speed>0.03</speed>
  <fix>3d</fix>
</trkpt>
<trkpt lat="-27.2743162" lon="151.2888166">
  <ele>360.83</ele>
  <time>2026-09-01T19:54:34Z</time>
  <course>236.1</course>
  <speed>0.0412310562561766</speed>
  <fix>3d</fix>
</trkpt>
<trkpt lat="-27.2743164" lon="151.2888166">
  <ele>361.49</ele>
  <time>2026-09-01T19:54:34Z</time>
  <course>318.33</course>
  <speed>0.03</speed>
  <fix>3d</fix>
</trkpt>
<trkpt lat="-27.2743162" lon="151.2888166">
  <ele>360.68</ele>
  <time>2026-09-01T19:54:34Z</time>
  <course>236.07</course>
  <speed>0.0412310562561766</speed>
  <fix>3d</fix>
</trkpt>
<trkpt lat="-27.2743163" lon="151.2888165">
  <ele>361.19</ele>
  <time>2026-09-01T19:54:34Z</time>
  <course>319.35</course>
  <speed>0.03</speed>
  <fix>3d</fix>
</trkpt>
<trkpt lat="-27.2743161" lon="151.2888166">
  <ele>360.53</ele>
  <time>2026-09-01T19:54:34Z</time>
  <course>236.03</course>
  <speed>0.05099019513592785</speed>
  <fix>3d</fix>
</trkpt>
<trkpt lat="-27.2743163" lon="151.2888165">
  <ele>361.19</ele>
  <time>2026-09-01T19:54:34Z</time>
  <course>319.35</course>
  <speed>0.03</speed>
  <fix>3d</fix>
</trkpt>
<trkpt lat="-27.2743161" lon="151.2888166">
  <ele>360.38</ele>
  <time>2026-09-01T19:54:34Z</time>
  <course>235.99</course>
  <speed>0.05099019513592785</speed>
  <fix>3d</fix>
</trkpt>
<trkpt lat="-27.2743163" lon="151.2888165">
  <ele>360.89</ele>
  <time>2026-09-01T19:54:34Z</time>
  <course>320.36</course>
  <speed>0.03</speed>
  <fix>3d</fix>
</trkpt>
<trkpt lat="-27.2743161" lon="151.2888165">
  <ele>360.23</ele>
  <time>2026-09-01T19:54:34Z</time>
  <course>235.94</course>
  <speed>0.05099019513592785</speed>
  <fix>3d</fix>
</trkpt>
<trkpt lat="-27.2743163" lon="151.2888165">
  <ele>360.89</ele>
  <time>2026-09-01T19:54:34Z</time>
  <course>320.36</course>
  <speed>0.03</speed>
  <fix>3d</fix>
</trkpt>
<trkpt lat="-27.274316" lon="151.2888165">
  <ele>360.08</ele>
  <time>2026-09-01T19:54:34Z</time>
  <course>235.91</course>
  <speed>0.05099019513592785</speed>
  <fix>3d</fix>
</trkpt>
<trkpt lat="-27.2743162" lon="151.2888165">
  <ele>360.59</ele>
  <time>2026-09-01T19:54:34Z</time>
  <course>321.54</course>
  <speed>0.03</speed>
  <fix>3d</fix>
</trkpt>
<trkpt lat="-27.274316" lon="151.2888165">
  <ele>359.93</ele>
  <time>2026-09-01T19:54:34Z</time>
  <course>235.87</course>
  <speed>0.05099019513592785</speed>
  <fix>3d</fix>
</trkpt>
<trkpt lat="-27.2743162" lon="151.2888165">
  <ele>360.59</ele>
  <time>2026-09-01T19:54:34Z</time>
  <course>321.54</course>
  <speed>0.03</speed>
  <fix>3d</fix>
</trkpt>
<trkpt lat="-27.274316" lon="151.2888165">
  <ele>359.78</ele>
  <time>2026-09-01T19:54:34Z</time>
  <course>235.84</course>
  <speed>0.05099019513592785</speed>
  <fix>3d</fix>
</trkpt>
<trkpt lat="-27.2743162" lon="151.2888164">
  <ele>360.29</ele>
  <time>2026-09-01T19:54:34Z</time>
  <course>322.49</course>
  <speed>0.03</speed>
  <fix>3d</fix>
</trkpt>
<trkpt lat="-27.274316" lon="151.2888164">
  <ele>359.63</ele>
  <time>2026-09-01T19:54:34Z</time>
  <course>235.8</course>
  <speed>0.05099019513592785</speed>
  <fix>3d</fix>
</trkpt>
<trkpt lat="-27.2743162" lon="151.2888164">
  <ele>360.29</ele>
  <time>2026-09-01T19:54:34Z</time>
  <course>322.49</course>
  <speed>0.03</speed>
  <fix>3d</fix>
</trkpt>
<trkpt lat="-27.2743159" lon="151.2888164">
  <ele>359.48</ele>
  <time>2026-09-01T19:54:34Z</time>
  <course>235.76</course>
  <speed>0.05099019513592785</speed>
  <fix>3d</fix>
</trkpt>
<trkpt lat="-27.2743161" lon="151.2888164">
  <ele>359.99</ele>
  <time>2026-09-01T19:54:34Z</time>
  <course>323.14</course>
  <speed>0.03</speed>
  <fix>3d</fix>
</trkpt>
<trkpt lat="-27.2743159" lon="151.2888164">
  <ele>359.33</ele>
  <time>2026-09-01T19:54:34Z</time>
  <course>235.72</course>
  <speed>0.0632455532033676</speed>
  <fix>3d</fix>
</trkpt>
<trkpt lat="-27.2743161" lon="151.2888164">
  <ele>359.99</ele>
  <time>2026-09-01T19:54:34Z</time>
  <course>323.14</course>
  <speed>0.03</speed>
  <fix>3d</fix>
</trkpt>
<trkpt lat="-27.2743159" lon="151.2888164">
  <ele>359.18</ele>
  <time>2026-09-01T19:54:34Z</time>
  <course>235.67</course>
  <speed>0.0632455532033676</speed>
  <fix>3d</fix>
</trkpt>
<trkpt lat="-27.2743161" lon="151.2888163">
  <ele>359.68</ele>
  <time>2026-09-01T19:54:34Z</time>
  <course>323.45</course>
  <speed>0.03</speed>
  <fix>3d</fix>
</trkpt>
<trkpt lat="-27.2743158" lon="151.2888163">
  <ele>359.03</ele>
  <time>2026-09-01T19:54:34Z</time>
  <course>235.61</course>
  <speed>0.0632455532033676</speed>
  <fix>3d</fix>
</trkpt>
<trkpt lat="-27.2743161" lon="151.2888163">
  <ele>359.68</ele>
  <time>2026-09-01T19:54:34Z</time>
  <course>323.45</course>
  <speed>0.03</speed>
  <fix>3d</fix>
</trkpt>
<trkpt lat="-27.2743158" lon="151.2888163">
  <ele>358.88</ele>
  <time>2026-09-01T19:54:34Z</time>
  <course>235.55</course>
  <speed>0.0632455532033676</speed>
  <fix>3d</fix>
</trkpt>
<trkpt lat="-27.274316" lon="151.2888162">
  <ele>359.38</ele>
  <time>2026-09-01T19:54:34Z</time>
  <course>323.39</course>
  <speed>0.04</speed>
  <fix>3d</fix>
</trkpt>
<trkpt lat="-27.2743158" lon="151.2888163">
  <ele>358.73</ele>
  <time>2026-09-01T19:54:34Z</time>
  <course>235.5</course>
  <speed>0.0632455532033676</speed>
  <fix>3d</fix>
</trkpt>
<trkpt lat="-27.274316" lon="151.2888162">
  <ele>359.38</ele>
  <time>2026-09-01T19:54:34Z</time>
  <course>323.39</course>
  <speed>0.04</speed>
  <fix>3d</fix>
</trkpt>
<trkpt lat="-27.2743157" lon="151.2888163">
  <ele>358.57</ele>
  <time>2026-09-01T19:54:34Z</time>
  <course>235.45</course>
  <speed>0.0632455532033676</speed>
  <fix>3d</fix>
</trkpt>
<trkpt lat="-27.274316" lon="151.2888162">
  <ele>359.08</ele>
  <time>2026-09-01T19:54:34Z</time>
  <course>323.05</course>
  <speed>0.04</speed>
  <fix>3d</fix>
</trkpt>
<trkpt lat="-27.2743157" lon="151.2888162">
  <ele>358.42</ele>
  <time>2026-09-01T19:54:34Z</time>
  <course>235.4</course>
  <speed>0.0632455532033676</speed>
  <fix>3d</fix>
</trkpt>
<trkpt lat="-27.274316" lon="151.2888162">
  <ele>359.08</ele>
  <time>2026-09-01T19:54:34Z</time>
  <course>323.05</course>
  <speed>0.04</speed>
  <fix>3d</fix>
</trkpt>
<trkpt lat="-27.2743157" lon="151.2888162">
  <ele>358.27</ele>
  <time>2026-09-01T19:54:34Z</time>
  <course>235.35</course>
  <speed>0.0632455532033676</speed>
  <fix>3d</fix>
</trkpt>
<trkpt lat="-27.2743159" lon="151.2888161">
  <ele>358.78</ele>
  <time>2026-09-01T19:54:34Z</time>
  <course>322.61</course>
  <speed>0.04</speed>
  <fix>3d</fix>
</trkpt>
<trkpt lat="-27.2743156" lon="151.2888162">
  <ele>358.12</ele>
  <time>2026-09-01T19:54:34Z</time>
  <course>235.3</course>
  <speed>0.0632455532033676</speed>
  <fix>3d</fix>
</trkpt>
<trkpt lat="-27.2743159" lon="151.2888161">
  <ele>358.78</ele>
  <time>2026-09-01T19:54:34Z</time>
  <course>322.61</course>
  <speed>0.04</speed>
  <fix>3d</fix>
</trkpt>
<trkpt lat="-27.2743156" lon="151.2888161">
  <ele>357.97</ele>
  <time>2026-09-01T19:54:34Z</time>
  <course>235.26</course>
  <speed>0.0632455532033676</speed>
  <fix>3d</fix>
</trkpt>
<trkpt lat="-27.2743158" lon="151.2888161">
  <ele>358.47</ele>
  <time>2026-09-01T19:54:34Z</time>
  <course>322.29</course>
  <speed>0.04</speed>
  <fix>3d</fix>
</trkpt>
<trkpt lat="-27.2743156" lon="151.2888161">
  <ele>357.82</ele>
  <time>2026-09-01T19:54:34Z</time>
  <course>235.22</course>
  <speed>0.0632455532033676</speed>
  <fix>3d</fix>
</trkpt>
<trkpt lat="-27.2743158" lon="151.2888161">
  <ele>358.47</ele>
  <time>2026-09-01T19:54:34Z</time>
  <course>322.29</course>
  <speed>0.04</speed>
  <fix>3d</fix>
</trkpt>
<trkpt lat="-27.2743155" lon="151.2888161">
  <ele>357.67</ele>
  <time>2026-09-01T19:54:35Z</time>
  <course>235.19</course>
  <speed>0.0632455532033676</speed>
  <fix>3d</fix>
</trkpt>
<trkpt lat="-27.2743158" lon="151.2888161">
  <ele>358.18</ele>
  <time>2026-09-01T19:54:35Z</time>
  <course>322.31</course>
  <speed>0.04</speed>
  <fix>3d</fix>
</trkpt>
<trkpt lat="-27.2743155" lon="151.288816">
  <ele>357.52</ele>
  <time>2026-09-01T19:54:35Z</time>
  <course>235.14</course>
  <speed>0.0632455532033676</speed>
  <fix>3d</fix>
</trkpt>
<trkpt lat="-27.2743158" lon="151.2888161">
  <ele>358.18</ele>
  <time>2026-09-01T19:54:35Z</time>
  <course>322.31</course>
  <speed>0.04</speed>
  <fix>3d</fix>
</trkpt>
<trkpt lat="-27.2743155" lon="151.288816">
  <ele>357.37</ele>
  <time>2026-09-01T19:54:35Z</time>
  <course>235.09</course>
  <speed>0.0632455532033676</speed>
  <fix>3d</fix>
</trkpt>
<trkpt lat="-27.2743157" lon="151.288816">
  <ele>357.88</ele>
  <time>2026-09-01T19:54:35Z</time>
  <course>322.42</course>
  <speed>0.04</speed>
  <fix>3d</fix>
</trkpt>
<trkpt lat="-27.2743154" lon="151.288816">
  <ele>357.22</ele>
  <time>2026-09-01T19:54:35Z</time>
  <course>235.04</course>
  <speed>0.0632455532033676</speed>
  <fix>3d</fix>
</trkpt>
<trkpt lat="-27.2743157" lon="151.288816">
  <ele>357.88</ele>
  <time>2026-09-01T19:54:35Z</time>
  <course>322.42</course>
  <speed>0.04</speed>
  <fix>3d</fix>
</trkpt>
<trkpt lat="-27.2743154" lon="151.2888159">
  <ele>357.07</ele>
  <time>2026-09-01T19:54:35Z</time>
  <course>234.99</course>
  <speed>0.0632455532033676</speed>
  <fix>3d</fix>
</trkpt>
<trkpt lat="-27.2743156" lon="151.2888159">
  <ele>357.58</ele>
  <time>2026-09-01T19:54:35Z</time>
  <course>322.27</course>
  <speed>0.05</speed>
  <fix>3d</fix>
</trkpt>
<trkpt lat="-27.2743153" lon="151.2888159">
  <ele>356.92</ele>
  <time>2026-09-01T19:54:35Z</time>
  <course>234.93</course>
  <speed>0.07280109889280519</speed>
  <fix>3d</fix>
</trkpt>
<trkpt lat="-27.2743156" lon="151.2888159">
  <ele>357.58</ele>
  <time>2026-09-01T19:54:35Z</time>
  <course>322.27</course>
  <speed>0.05</speed>
  <fix>3d</fix>
</trkpt>
<trkpt lat="-27.2743153" lon="151.2888159">
  <ele>356.78</ele>
  <time>2026-09-01T19:54:35Z</time>
  <course>234.85</course>
  <speed>0.07615773105863909</speed>
  <fix>3d</fix>
</trkpt>
<trkpt lat="-27.2743156" lon="151.2888159">
  <ele>357.29</ele>
  <time>2026-09-01T19:54:35Z</time>
  <course>322.03</course>
  <speed>0.05</speed>
  <fix>3d</fix>
</trkpt>
<trkpt lat="-27.2743153" lon="151.2888158">
  <ele>356.63</ele>
  <time>2026-09-01T19:54:35Z</time>
  <course>234.78</course>
  <speed>0.07615773105863909</speed>
  <fix>3d</fix>
</trkpt>
<trkpt lat="-27.2743156" lon="151.2888159">
  <ele>357.29</ele>
  <time>2026-09-01T19:54:35Z</time>
  <course>322.03</course>
  <speed>0.05</speed>
  <fix>3d</fix>
</trkpt>
<trkpt lat="-27.2743152" lon="151.2888158">
  <ele>356.48</ele>
  <time>2026-09-01T19:54:35Z</time>
  <course>234.71</course>
  <speed>0.07615773105863909</speed>
  <fix>3d</fix>
</trkpt>
<trkpt lat="-27.2743155" lon="151.2888158">
  <ele>356.99</ele>
  <time>2026-09-01T19:54:35Z</time>
  <course>321.66</course>
  <speed>0.05</speed>
  <fix>3d</fix>
</trkpt>
<trkpt lat="-27.2743152" lon="151.2888158">
  <ele>356.34</ele>
  <time>2026-09-01T19:54:35Z</time>
  <course>234.65</course>
  <speed>0.07615773105863909</speed>
  <fix>3d</fix>
</trkpt>
<trkpt lat="-27.2743155" lon="151.2888158">
  <ele>356.99</ele>
  <time>2026-09-01T19:54:35Z</time>
  <course>321.66</course>
  <speed>0.05</speed>
  <fix>3d</fix>
</trkpt>
<trkpt lat="-27.2743152" lon="151.2888157">
  <ele>356.19</ele>
  <time>2026-09-01T19:54:35Z</time>
  <course>234.62</course>
  <speed>0.07615773105863909</speed>
  <fix>3d</fix>
</trkpt>
<trkpt lat="-27.2743154" lon="151.2888157">
  <ele>356.69</ele>
  <time>2026-09-01T19:54:35Z</time>
  <course>320.98</course>
  <speed>0.05</speed>
  <fix>3d</fix>
</trkpt>
<trkpt lat="-27.2743151" lon="151.2888157">
  <ele>356.04</ele>
  <time>2026-09-01T19:54:35Z</time>
  <course>234.64</course>
  <speed>0.0670820393249937</speed>
  <fix>3d</fix>
</trkpt>
<trkpt lat="-27.2743154" lon="151.2888157">
  <ele>356.69</ele>
  <time>2026-09-01T19:54:35Z</time>
  <course>320.98</course>
  <speed>0.05</speed>
  <fix>3d</fix>
</trkpt>
<trkpt lat="-27.2743151" lon="151.2888157">
  <ele>355.88</ele>
  <time>2026-09-01T19:54:35Z</time>
  <course>234.75</course>
  <speed>0.053851648071345036</speed>
  <fix>3d</fix>
</trkpt>
<trkpt lat="-27.2743153" lon="151.2888156">
  <ele>356.39</ele>
  <time>2026-09-01T19:54:35Z</time>
  <course>319.77</course>
  <speed>0.05</speed>
  <fix>3d</fix>
</trkpt>
<trkpt lat="-27.2743151" lon="151.2888156">
  <ele>355.73</ele>
  <time>2026-09-01T19:54:35Z</time>
  <course>235.0</course>
  <speed>0.0412310562561766</speed>
  <fix>3d</fix>
</trkpt>
<trkpt lat="-27.2743153" lon="151.2888156">
  <ele>356.39</ele>
  <time>2026-09-01T19:54:35Z</time>
  <course>319.77</course>
  <speed>0.05</speed>
  <fix>3d</fix>
</trkpt>
<trkpt lat="-27.274315" lon="151.2888156">
  <ele>355.58</ele>
  <time>2026-09-01T19:54:35Z</time>
  <course>235.35</course>
  <speed>0.03</speed>
  <fix>3d</fix>
</trkpt>
<trkpt lat="-27.2743153" lon="151.2888156">
  <ele>356.09</ele>
  <time>2026-09-01T19:54:35Z</time>
  <course>316.64</course>
  <speed>0.03</speed>
  <fix>3d</fix>
</trkpt>
<trkpt lat="-27.274315" lon="151.2888156">
  <ele>355.43</ele>
  <time>2026-09-01T19:54:35Z</time>
  <course>235.76</course>
  <speed>0.02</speed>
  <fix>3d</fix>
</trkpt>
<trkpt lat="-27.2743153" lon="151.2888156">
  <ele>356.09</ele>
  <time>2026-09-01T19:54:35Z</time>
  <course>316.64</course>
  <speed>0.03</speed>
  <fix>3d</fix>
</trkpt>
<trkpt lat="-27.2743151" lon="151.2888156">
  <ele>355.28</ele>
  <time>2026-09-01T19:54:35Z</time>
  <course>236.15</course>
  <speed>0.01</speed>
  <fix>3d</fix>
</trkpt>
<trkpt lat="-27.2743153" lon="151.2888156">
  <ele>355.79</ele>
  <time>2026-09-01T19:54:35Z</time>
  <course>295.77</course>
  <speed>0.01</speed>
  <fix>3d</fix>
</trkpt>
<trkpt lat="-27.2743151" lon="151.2888156">
  <ele>355.12</ele>
  <time>2026-09-01T19:54:35Z</time>
  <course>236.49</course>
  <speed>0.02</speed>
  <fix>3d</fix>
</trkpt>
<trkpt lat="-27.2743153" lon="151.2888156">
  <ele>355.79</ele>
  <time>2026-09-01T19:54:35Z</time>
  <course>295.77</course>
  <speed>0.01</speed>
  <fix>3d</fix>
</trkpt>
<trkpt lat="-27.2743151" lon="151.2888156">
  <ele>354.97</ele>
  <time>2026-09-01T19:54:35Z</time>
  <course>236.73</course>
  <speed>0.0316227766016838</speed>
  <fix>3d</fix>
</trkpt>
<trkpt lat="-27.2743153" lon="151.2888156">
  <ele>355.49</ele>
  <time>2026-09-01T19:54:35Z</time>
  <course>157.37</course>
  <speed>0.02</speed>
  <fix>3d</fix>
</trkpt>
<trkpt lat="-27.2743151" lon="151.2888156">
  <ele>354.83</ele>
  <time>2026-09-01T19:54:35Z</time>
  <course>236.88</course>
  <speed>0.03605551275463989</speed>
  <fix>3d</fix>
</trkpt>
<trkpt lat="-27.2743153" lon="151.2888156">
  <ele>355.49</ele>
  <time>2026-09-01T19:54:35Z</time>
  <course>157.37</course>
  <speed>0.02</speed>
  <fix>3d</fix>
</trkpt>
<trkpt lat="-27.2743151" lon="151.2888156">
  <ele>354.68</ele>
  <time>2026-09-01T19:54:35Z</time>
  <course>236.93</course>
  <speed>0.05</speed>
  <fix>3d</fix>
</trkpt>
<trkpt lat="-27.2743153" lon="151.2888156">
  <ele>355.19</ele>
  <time>2026-09-01T19:54:35Z</time>
  <course>148.18</course>
  <speed>0.05</speed>
  <fix>3d</fix>
</trkpt>
<trkpt lat="-27.2743152" lon="151.2888157">
  <ele>354.53</ele>
  <time>2026-09-01T19:54:35Z</time>
  <course>236.92</course>
  <speed>0.06403124237432849</speed>
  <fix>3d</fix>
</trkpt>
<trkpt lat="-27.2743153" lon="151.2888156">
  <ele>355.19</ele>
  <time>2026-09-01T19:54:35Z</time>
  <course>148.18</course>
  <speed>0.05</speed>
  <fix>3d</fix>
</trkpt>
<trkpt lat="-27.2743153" lon="151.2888157">
  <ele>354.38</ele>
  <time>2026-09-01T19:54:35Z</time>
  <course>236.86</course>
  <speed>0.07810249675906654</speed>
  <fix>3d</fix>
</trkpt>
<trkpt lat="-27.2743154" lon="151.2888156">
  <ele>354.89</ele>
  <time>2026-09-01T19:54:35Z</time>
  <course>145.1</course>
  <speed>0.08</speed>
  <fix>3d</fix>
</trkpt>
<trkpt lat="-27.2743153" lon="151.2888158">
  <ele>354.23</ele>
  <time>2026-09-01T19:54:35Z</time>
  <course>236.77</course>
  <speed>0.09219544457292887</speed>
  <fix>3d</fix>
</trkpt>
<trkpt lat="-27.2743154" lon="151.2888156">
  <ele>354.89</ele>
  <time>2026-09-01T19:54:35Z</time>
  <course>145.1</course>
  <speed>0.08</speed>
  <fix>3d</fix>
</trkpt>
<trkpt lat="-27.2743154" lon="151.2888159">
  <ele>354.08</ele>
  <time>2026-09-01T19:54:35Z</time>
  <course>236.7</course>
  <speed>0.09219544457292887</speed>
  <fix>3d</fix>
</trkpt>
<trkpt lat="-27.2743155" lon="151.2888156">
  <ele>354.59</ele>
  <time>2026-09-01T19:54:35Z</time>
  <course>143.29</course>
  <speed>0.1</speed>
  <fix>3d</fix>
</trkpt>
<trkpt lat="-27.2743155" lon="151.2888159">
  <ele>353.94</ele>
  <time>2026-09-01T19:54:35Z</time>
  <course>236.65</course>
  <speed>0.1063014581273465</speed>
  <fix>3d</fix>
</trkpt>
<trkpt lat="-27.2743155" lon="151.2888156">
  <ele>354.59</ele>
  <time>2026-09-01T19:54:35Z</time>
  <course>143.29</course>
  <speed>0.1</speed>
  <fix>3d</fix>
</trkpt>
<trkpt lat="-27.2743156" lon="151.288816">
  <ele>353.8</ele>
  <time>2026-09-01T19:54:35Z</time>
  <course>236.64</course>
  <speed>0.12041594578792296</speed>
  <fix>3d</fix>
</trkpt>
<trkpt lat="-27.2743156" lon="151.2888158">
  <ele>354.29</ele>
  <time>2026-09-01T19:54:35Z</time>
  <course>142.03</course>
  <speed>0.12</speed>
  <fix>3d</fix>
</trkpt>
<trkpt lat="-27.2743157" lon="151.2888161">
  <ele>353.66</ele>
  <time>2026-09-01T19:54:35Z</time>
  <course>236.67</course>
  <speed>0.12041594578792296</speed>
  <fix>3d</fix>
</trkpt>
<trkpt lat="-27.2743156" lon="151.2888158">
  <ele>354.29</ele>
  <time>2026-09-01T19:54:35Z</time>
  <course>142.03</course>
  <speed>0.12</speed>
  <fix>3d</fix>
</trkpt>
<trkpt lat="-27.2743158" lon="151.2888162">
  <ele>353.52</ele>
  <time>2026-09-01T19:54:35Z</time>
  <course>236.73</course>
  <speed>0.1345362404707371</speed>
  <fix>3d</fix>
</trkpt>
<trkpt lat="-27.2743157" lon="151.288816">
  <ele>354.01</ele>
  <time>2026-09-01T19:54:35Z</time>
  <course>141.05</course>
  <speed>0.14</speed>
  <fix>3d</fix>
</trkpt>
<trkpt lat="-27.2743159" lon="151.2888163">
  <ele>353.38</ele>
  <time>2026-09-01T19:54:35Z</time>
  <course>236.82</course>
  <speed>0.1345362404707371</speed>
  <fix>3d</fix>
</trkpt>
<trkpt lat="-27.2743157" lon="151.288816">
  <ele>354.01</ele>
  <time>2026-09-01T19:54:35Z</time>
  <course>141.05</course>
  <speed>0.14</speed>
  <fix>3d</fix>
</trkpt>
<trkpt lat="-27.274316" lon="151.2888164">
  <ele>353.25</ele>
  <time>2026-09-01T19:54:35Z</time>
  <course>236.93</course>
  <speed>0.14866068747318506</speed>
  <fix>3d</fix>
</trkpt>
<trkpt lat="-27.274316" lon="151.2888161">
  <ele>353.73</ele>
  <time>2026-09-01T19:54:35Z</time>
  <course>140.2</course>
  <speed>0.16</speed>
  <fix>3d</fix>
</trkpt>
<trkpt lat="-27.2743161" lon="151.2888165">
  <ele>353.12</ele>
  <time>2026-09-01T19:54:35Z</time>
  <course>237.04</course>
  <speed>0.14866068747318506</speed>
  <fix>3d</fix>
</trkpt>
<trkpt lat="-27.274316" lon="151.2888161">
  <ele>353.73</ele>
  <time>2026-09-01T19:54:35Z</time>
  <course>140.2</course>
  <speed>0.16</speed>
  <fix>3d</fix>
</trkpt>
<trkpt lat="-27.2743162" lon="151.2888166">
  <ele>352.99</ele>
  <time>2026-09-01T19:54:35Z</time>
  <course>237.14</course>
  <speed>0.15620499351813308</speed>
  <fix>3d</fix>
</trkpt>
<trkpt lat="-27.2743163" lon="151.2888164">
  <ele>353.46</ele>
  <time>2026-09-01T19:54:35Z</time>
  <course>139.4</course>
  <speed>0.18</speed>
  <fix>3d</fix>
</trkpt>
<trkpt lat="-27.2743164" lon="151.2888167">
  <ele>352.87</ele>
  <time>2026-09-01T19:54:35Z</time>
  <course>237.24</course>
  <speed>0.16278820596099705</speed>
  <fix>3d</fix>
</trkpt>
<trkpt lat="-27.2743163" lon="151.2888164">
  <ele>353.46</ele>
  <time>2026-09-01T19:54:35Z</time>
  <course>139.4</course>
  <speed>0.18</speed>
  <fix>3d</fix>
</trkpt>
<trkpt lat="-27.2743165" lon="151.2888169">
  <ele>352.74</ele>
  <time>2026-09-01T19:54:35Z</time>
  <course>237.32</course>
  <speed>0.17029386365926402</speed>
  <fix>3d</fix>
</trkpt>
<trkpt lat="-27.2743165" lon="151.2888166">
  <ele>353.2</ele>
  <time>2026-09-01T19:54:35Z</time>
  <course>138.63</course>
  <speed>0.19</speed>
  <fix>3d</fix>
</trkpt>
<trkpt lat="-27.2743166" lon="151.288817">
  <ele>352.63</ele>
  <time>2026-09-01T19:54:35Z</time>
  <course>237.4</course>
  <speed>0.17029386365926402</speed>
  <fix>3d</fix>
</trkpt>
<trkpt lat="-27.2743165" lon="151.2888166">
  <ele>353.2</ele>
  <time>2026-09-01T19:54:35Z</time>
  <course>138.63</course>
  <speed>0.19</speed>
  <fix>3d</fix>
</trkpt>
<trkpt lat="-27.2743167" lon="151.2888171">
  <ele>352.51</ele>
  <time>2026-09-01T19:54:35Z</time>
  <course>237.47</course>
  <speed>0.17029386365926402</speed>
  <fix>3d</fix>
</trkpt>
<trkpt lat="-27.2743168" lon="151.2888169">
  <ele>352.96</ele>
  <time>2026-09-01T19:54:35Z</time>
  <course>137.81</course>
  <speed>0.2</speed>
  <fix>3d</fix>
</trkpt>
<trkpt lat="-27.2743169" lon="151.2888173">
  <ele>352.4</ele>
  <time>2026-09-01T19:54:35Z</time>
  <course>237.52</course>
  <speed>0.17029386365926402</speed>
  <fix>3d</fix>
</trkpt>
<trkpt lat="-27.2743168" lon="151.2888169">
  <ele>352.96</ele>
  <time>2026-09-01T19:54:35Z</time>
  <course>137.81</course>
  <speed>0.2</speed>
  <fix>3d</fix>
</trkpt>
<trkpt lat="-27.274317" lon="151.2888174">
  <ele>352.29</ele>
  <time>2026-09-01T19:54:35Z</time>
  <course>237.56</course>
  <speed>0.17029386365926402</speed>
  <fix>3d</fix>
</trkpt>
<trkpt lat="-27.2743171" lon="151.2888172">
  <ele>352.72</ele>
  <time>2026-09-01T19:54:35Z</time>
  <course>136.95</course>
  <speed>0.2</speed>
  <fix>3d</fix>
</trkpt>
<trkpt lat="-27.2743171" lon="151.2888175">
  <ele>352.18</ele>
  <time>2026-09-01T19:54:35Z</time>
  <course>237.6</course>
  <speed>0.17029386365926402</speed>
  <fix>3d</fix>
</trkpt>
<trkpt lat="-27.2743171" lon="151.2888172">
  <ele>352.72</ele>
  <time>2026-09-01T19:54:35Z</time>
  <course>136.95</course>
  <speed>0.2</speed>
  <fix>3d</fix>
</trkpt>
<trkpt lat="-27.2743172" lon="151.2888177">
  <ele>352.07</ele>
  <time>2026-09-01T19:54:35Z</time>
  <course>237.62</course>
  <speed>0.16401219466856726</speed>
  <fix>3d</fix>
</trkpt>
<trkpt lat="-27.2743173" lon="151.2888175">
  <ele>352.49</ele>
  <time>2026-09-01T19:54:35Z</time>
  <course>136.15</course>
  <speed>0.2</speed>
  <fix>3d</fix>
</trkpt>
<trkpt lat="-27.2743174" lon="151.2888178">
  <ele>351.97</ele>
  <time>2026-09-01T19:54:35Z</time>
  <course>237.65</course>
  <speed>0.16401219466856726</speed>
  <fix>3d</fix>
</trkpt>
<trkpt lat="-27.2743173" lon="151.2888175">
  <ele>352.49</ele>
  <time>2026-09-01T19:54:35Z</time>
  <course>136.15</course>
  <speed>0.2</speed>
  <fix>3d</fix>
</trkpt>
<trkpt lat="-27.2743175" lon="151.288818">
  <ele>351.86</ele>
  <time>2026-09-01T19:54:35Z</time>
  <course>237.67</course>
  <speed>0.16401219466856726</speed>
  <fix>3d</fix>
</trkpt>
<trkpt lat="-27.2743176" lon="151.2888178">
  <ele>352.27</ele>
  <time>2026-09-01T19:54:35Z</time>
  <course>135.36</course>
  <speed>0.2</speed>
  <fix>3d</fix>
</trkpt>
<trkpt lat="-27.2743176" lon="151.2888181">
  <ele>351.76</ele>
  <time>2026-09-01T19:54:35Z</time>
  <course>237.69</course>
  <speed>0.15811388300841897</speed>
  <fix>3d</fix>
</trkpt>
<trkpt lat="-27.2743176" lon="151.2888178">
  <ele>352.27</ele>
  <time>2026-09-01T19:54:35Z</time>
  <course>135.36</course>
  <speed>0.2</speed>
  <fix>3d</fix>
</trkpt>
<trkpt lat="-27.2743177" lon="151.2888182">
  <ele>351.66</ele>
  <time>2026-09-01T19:54:35Z</time>
  <course>237.72</course>
  <speed>0.15811388300841897</speed>
  <fix>3d</fix>
</trkpt>
<trkpt lat="-27.2743179" lon="151.2888181">
  <ele>352.06</ele>
  <time>2026-09-01T19:54:35Z</time>
  <course>134.6</course>
  <speed>0.2</speed>
  <fix>3d</fix>
</trkpt>
<trkpt lat="-27.2743178" lon="151.2888184">
  <ele>351.57</ele>
  <time>2026-09-01T19:54:35Z</time>
  <course>237.75</course>
  <speed>0.14422205101855956</speed>
  <fix>3d</fix>
</trkpt>
<trkpt lat="-27.2743179" lon="151.2888181">
  <ele>352.06</ele>
  <time>2026-09-01T19:54:35Z</time>
  <course>134.6</course>
  <speed>0.2</speed>
  <fix>3d</fix>
</trkpt>
<trkpt lat="-27.274318" lon="151.2888185">
  <ele>351.47</ele>
  <time>2026-09-01T19:54:35Z</time>
  <course>237.78</course>
  <speed>0.14422205101855956</speed>
  <fix>3d</fix>
</trkpt>
<trkpt lat="-27.2743181" lon="151.2888184">
  <ele>351.86</ele>
  <time>2026-09-01T19:54:35Z</time>
  <course>133.85</course>
  <speed>0.18</speed>
  <fix>3d</fix>
</trkpt>
<trkpt lat="-27.2743181" lon="151.2888186">
  <ele>351.37</ele>
  <time>2026-09-01T19:54:35Z</time>
  <course>237.81</course>
  <speed>0.130384048104053</speed>
  <fix>3d</fix>
</trkpt>
<trkpt lat="-27.2743181" lon="151.2888184">
  <ele>351.86</ele>
  <time>2026-09-01T19:54:35Z</time>
  <course>133.85</course>
  <speed>0.18</speed>
  <fix>3d</fix>
</trkpt>
<trkpt lat="-27.2743181" lon="151.2888188">
  <ele>351.28</ele>
  <time>2026-09-01T19:54:35Z</time>
  <course>237.83</course>
  <speed>0.12529964086141668</speed>
  <fix>3d</fix>
</trkpt>
<trkpt lat="-27.2743184" lon="151.2888186">
  <ele>351.66</ele>
  <time>2026-09-01T19:54:35Z</time>
  <course>133.0</course>
  <speed>0.17</speed>
  <fix>3d</fix>
</trkpt>
<trkpt lat="-27.2743182" lon="151.2888189">
  <ele>351.18</ele>
  <time>2026-09-01T19:54:35Z</time>
  <course>237.85</course>
  <speed>0.1118033988749895</speed>
  <fix>3d</fix>
</trkpt>
<trkpt lat="-27.2743184" lon="151.2888186">
  <ele>351.66</ele>
  <time>2026-09-01T19:54:35Z</time>
  <course>133.0</course>
  <speed>0.17</speed>
  <fix>3d</fix>
</trkpt>
<trkpt lat="-27.2743183" lon="151.288819">
  <ele>351.09</ele>
  <time>2026-09-01T19:54:35Z</time>
  <course>237.86</course>
  <speed>0.1118033988749895</speed>
  <fix>3d</fix>
</trkpt>
<trkpt lat="-27.2743186" lon="151.2888189">
  <ele>351.46</ele>
  <time>2026-09-01T19:54:35Z</time>
  <course>131.92</course>
  <speed>0.15</speed>
  <fix>3d</fix>
</trkpt>
<trkpt lat="-27.2743184" lon="151.2888191">
  <ele>351.0</ele>
  <time>2026-09-01T19:54:35Z</time>
  <course>237.88</course>
  <speed>0.09848857801796104</speed>
  <fix>3d</fix>
</trkpt>
<trkpt lat="-27.2743186" lon="151.2888189">
  <ele>351.46</ele>
  <time>2026-09-01T19:54:35Z</time>
  <course>131.92</course>
  <speed>0.15</speed>
  <fix>3d</fix>
</trkpt>
<trkpt lat="-27.2743185" lon="151.2888192">
  <ele>350.91</ele>
  <time>2026-09-01T19:54:35Z</time>
  <course>237.89</course>
  <speed>0.0854400374531753</speed>
  <fix>3d</fix>
</trkpt>
<trkpt lat="-27.2743187" lon="151.2888191">
  <ele>351.27</ele>
  <time>2026-09-01T19:54:35Z</time>
  <course>130.5</course>
  <speed>0.13</speed>
  <fix>3d</fix>
</trkpt>
<trkpt lat="-27.2743185" lon="151.2888193">
  <ele>350.82</ele>
  <time>2026-09-01T19:54:35Z</time>
  <course>237.9</course>
  <speed>0.07280109889280519</speed>
  <fix>3d</fix>
</trkpt>
<trkpt lat="-27.2743187" lon="151.2888191">
  <ele>351.27</ele>
  <time>2026-09-01T19:54:35Z</time>
  <course>130.5</course>
  <speed>0.13</speed>
  <fix>3d</fix>
</trkpt>
<trkpt lat="-27.2743186" lon="151.2888193">
  <ele>350.73</ele>
  <time>2026-09-01T19:54:35Z</time>
  <course>237.92</course>
  <speed>0.07071067811865475</speed>
  <fix>3d</fix>
</trkpt>
<trkpt lat="-27.2743189" lon="151.2888194">
  <ele>351.09</ele>
  <time>2026-09-01T19:54:35Z</time>
  <course>128.58</course>
  <speed>0.11</speed>
  <fix>3d</fix>
</trkpt>
<trkpt lat="-27.2743186" lon="151.2888194">
  <ele>350.65</ele>
  <time>2026-09-01T19:54:35Z</time>
  <course>237.93</course>
  <speed>0.06</speed>
  <fix>3d</fix>
</trkpt>
<trkpt lat="-27.2743189" lon="151.2888194">
  <ele>351.09</ele>
  <time>2026-09-01T19:54:35Z</time>
  <course>128.58</course>
  <speed>0.11</speed>
  <fix>3d</fix>
</trkpt>
<trkpt lat="-27.2743187" lon="151.2888195">
  <ele>350.57</ele>
  <time>2026-09-01T19:54:35Z</time>
  <course>237.94</course>
  <speed>0.05</speed>
  <fix>3d</fix>
</trkpt>
<trkpt lat="-27.274319" lon="151.2888195">
  <ele>350.91</ele>
  <time>2026-09-01T19:54:35Z</time>
  <course>125.73</course>
  <speed>0.09</speed>
  <fix>3d</fix>
</trkpt>
<trkpt lat="-27.2743187" lon="151.2888196">
  <ele>350.48</ele>
  <time>2026-09-01T19:54:35Z</time>
  <course>237.95</course>
  <speed>0.0412310562561766</speed>
  <fix>3d</fix>
</trkpt>
<trkpt lat="-27.274319" lon="151.2888195">
  <ele>350.91</ele>
  <time>2026-09-01T19:54:35Z</time>
  <course>125.73</course>
  <speed>0.09</speed>
  <fix>3d</fix>
</trkpt>
<trkpt lat="-27.2743188" lon="151.2888196">
  <ele>350.4</ele>
  <time>2026-09-01T19:54:35Z</time>
  <course>237.96</course>
  <speed>0.044721359549995794</speed>
  <fix>3d</fix>
</trkpt>
<trkpt lat="-27.2743191" lon="151.2888196">
  <ele>350.74</ele>
  <time>2026-09-01T19:54:35Z</time>
  <course>120.89</course>
  <speed>0.06</speed>
  <fix>3d</fix>
</trkpt>
<trkpt lat="-27.2743188" lon="151.2888196">
  <ele>350.32</ele>
  <time>2026-09-01T19:54:35Z</time>
  <course>237.95</course>
  <speed>0.04242640687119285</speed>
  <fix>3d</fix>
</trkpt>
<trkpt lat="-27.2743191" lon="151.2888196">
  <ele>350.74</ele>
  <time>2026-09-01T19:54:35Z</time>
  <course>120.89</course>
  <speed>0.06</speed>
  <fix>3d</fix>
</trkpt>
<trkpt lat="-27.2743188" lon="151.2888197">
  <ele>350.24</ele>
  <time>2026-09-01T19:54:35Z</time>
  <course>237.94</course>
  <speed>0.044721359549995794</speed>
  <fix>3d</fix>
</trkpt>
<trkpt lat="-27.2743191" lon="151.2888197">
  <ele>350.58</ele>
  <time>2026-09-01T19:54:35Z</time>
  <course>110.52</course>
  <speed>0.04</speed>
  <fix>3d</fix>
</trkpt>
<trkpt lat="-27.2743188" lon="151.2888197">
  <ele>350.16</ele>
  <time>2026-09-01T19:54:35Z</time>
  <course>237.97</course>
  <speed>0.0412310562561766</speed>
  <fix>3d</fix>
</trkpt>
<trkpt lat="-27.2743191" lon="151.2888197">
  <ele>350.58</ele>
  <time>2026-09-01T19:54:35Z</time>
  <course>110.52</course>
  <speed>0.04</speed>
  <fix>3d</fix>
</trkpt>
<trkpt lat="-27.2743188" lon="151.2888197">
  <ele>350.08</ele>
  <time>2026-09-01T19:54:35Z</time>
  <course>238.18</course>
  <speed>0.0412310562561766</speed>
  <fix>3d</fix>
</trkpt>
<trkpt lat="-27.2743191" lon="151.2888198">
  <ele>350.42</ele>
  <time>2026-09-01T19:54:35Z</time>
  <course>87.29</course>
  <speed>0.02</speed>
  <fix>3d</fix>
</trkpt>
<trkpt lat="-27.2743188" lon="151.2888197">
  <ele>350.01</ele>
  <time>2026-09-01T19:54:35Z</time>
  <course>238.51</course>
  <speed>0.0316227766016838</speed>
  <fix>3d</fix>
</trkpt>
<trkpt lat="-27.2743191" lon="151.2888198">
  <ele>350.42</ele>
  <time>2026-09-01T19:54:35Z</time>
  <course>87.29</course>
  <speed>0.02</speed>
  <fix>3d</fix>
</trkpt>
<trkpt lat="-27.2743188" lon="151.2888198">
  <ele>349.93</ele>
  <time>2026-09-01T19:54:35Z</time>
  <course>238.9</course>
  <speed>0.0316227766016838</speed>
  <fix>3d</fix>
</trkpt>
<trkpt lat="-27.2743191" lon="151.2888199">
  <ele>350.27</ele>
  <time>2026-09-01T19:54:35Z</time>
  <course>69.11</course>
  <speed>0.01</speed>
  <fix>3d</fix>
</trkpt>
<trkpt lat="-27.2743188" lon="151.2888198">
  <ele>349.87</ele>
  <time>2026-09-01T19:54:35Z</time>
  <course>239.28</course>
  <speed>0.0316227766016838</speed>
  <fix>3d</fix>
</trkpt>
<trkpt lat="-27.2743191" lon="151.2888199">
  <ele>350.27</ele>
  <time>2026-09-01T19:54:35Z</time>
  <course>69.11</course>
  <speed>0.01</speed>
  <fix>3d</fix>
</trkpt>
<trkpt lat="-27.2743188" lon="151.2888198">
  <ele>349.8</ele>
  <time>2026-09-01T19:54:35Z</time>
  <course>239.59</course>
  <speed>0.0316227766016838</speed>
  <fix>3d</fix>
</trkpt>
<trkpt lat="-27.2743191" lon="151.2888199">
  <ele>350.13</ele>
  <time>2026-09-01T19:54:35Z</time>
  <course>75.81</course>
  <speed>0.01</speed>
  <fix>3d</fix>
</trkpt>
<trkpt lat="-27.2743188" lon="151.2888198">
  <ele>349.73</ele>
  <time>2026-09-01T19:54:35Z</time>
  <course>239.81</course>
  <speed>0.03</speed>
  <fix>3d</fix>
</trkpt>
<trkpt lat="-27.2743191" lon="151.2888199">
  <ele>350.13</ele>
  <time>2026-09-01T19:54:35Z</time>
  <course>75.81</course>
  <speed>0.01</speed>
  <fix>3d</fix>
</trkpt>
<trkpt lat="-27.2743188" lon="151.2888198">
  <ele>349.67</ele>
  <time>2026-09-01T19:54:35Z</time>
  <course>239.9</course>
  <speed>0.03</speed>
  <fix>3d</fix>
</trkpt>
<trkpt lat="-27.2743191" lon="151.2888199">
  <ele>349.99</ele>
  <time>2026-09-01T19:54:35Z</time>
  <course>85.73</course>
  <speed>0.0</speed>
  <fix>3d</fix>
</trkpt>
<trkpt lat="-27.2743188" lon="151.2888198">
  <ele>349.6</ele>
  <time>2026-09-01T19:54:35Z</time>
  <course>239.86</course>
  <speed>0.03</speed>
  <fix>3d</fix>
</trkpt>
<trkpt lat="-27.2743191" lon="151.2888199">
  <ele>349.99</ele>
  <time>2026-09-01T19:54:35Z</time>
  <course>85.73</course>
  <speed>0.0</speed>
  <fix>3d</fix>
</trkpt>
<trkpt lat="-27.2743188" lon="151.2888198">
  <ele>349.54</ele>
  <time>2026-09-01T19:54:35Z</time>
  <course>239.7</course>
  <speed>0.04</speed>
  <fix>3d</fix>
</trkpt>
<trkpt lat="-27.2743191" lon="151.2888199">
  <ele>349.86</ele>
  <time>2026-09-01T19:54:35Z</time>
  <course>50.33</course>
  <speed>0.0</speed>
  <fix>3d</fix>
</trkpt>
<trkpt lat="-27.2743188" lon="151.2888198">
  <ele>349.48</ele>
  <time>2026-09-01T19:54:35Z</time>
  <course>239.46</course>
  <speed>0.0412310562561766</speed>
  <fix>3d</fix>
</trkpt>
<trkpt lat="-27.2743191" lon="151.2888199">
  <ele>349.86</ele>
  <time>2026-09-01T19:54:35Z</time>
  <course>50.33</course>
  <speed>0.0</speed>
  <fix>3d</fix>
</trkpt>
<trkpt lat="-27.2743188" lon="151.2888198">
  <ele>349.43</ele>
  <time>2026-09-01T19:54:35Z</time>
  <course>239.18</course>
  <speed>0.05099019513592785</speed>
  <fix>3d</fix>
</trkpt>
<trkpt lat="-27.2743191" lon="151.2888199">
  <ele>349.74</ele>
  <time>2026-09-01T19:54:35Z</time>
  <course>316.45</course>
  <speed>0.01</speed>
  <fix>3d</fix>
</trkpt>
<trkpt lat="-27.2743188" lon="151.2888198">
  <ele>349.37</ele>
  <time>2026-09-01T19:54:35Z</time>
  <course>238.91</course>
  <speed>0.053851648071345036</speed>
  <fix>3d</fix>
</trkpt>
<trkpt lat="-27.2743191" lon="151.2888199">
  <ele>349.74</ele>
  <time>2026-09-01T19:54:35Z</time>
  <course>316.45</course>
  <speed>0.01</speed>
  <fix>3d</fix>
</trkpt>
<trkpt lat="-27.2743188" lon="151.2888198">
  <ele>349.31</ele>
  <time>2026-09-01T19:54:35Z</time>
  <course>238.69</course>
  <speed>0.0670820393249937</speed>
  <fix>3d</fix>
</trkpt>
<trkpt lat="-27.2743191" lon="151.2888199">
  <ele>349.62</ele>
  <time>2026-09-01T19:54:35Z</time>
  <course>312.31</course>
  <speed>0.02</speed>
  <fix>3d</fix>
</trkpt>
<trkpt lat="-27.2743188" lon="151.2888198">
  <ele>349.25</ele>
  <time>2026-09-01T19:54:35Z</time>
  <course>238.54</course>
  <speed>0.0670820393249937</speed>
  <fix>3d</fix>
</trkpt>
<trkpt lat="-27.2743191" lon="151.2888199">
  <ele>349.62</ele>
  <time>2026-09-01T19:54:35Z</time>
  <course>312.31</course>
  <speed>0.02</speed>
  <fix>3d</fix>
</trkpt>
<trkpt lat="-27.2743187" lon="151.2888198">
  <ele>349.2</ele>
  <time>2026-09-01T19:54:35Z</time>
  <course>238.47</course>
  <speed>0.08062257748298549</speed>
  <fix>3d</fix>
</trkpt>
<trkpt lat="-27.2743191" lon="151.2888199">
  <ele>349.5</ele>
  <time>2026-09-01T19:54:35Z</time>
  <course>311.88</course>
  <speed>0.04</speed>
  <fix>3d</fix>
</trkpt>
<trkpt lat="-27.2743187" lon="151.2888197">
  <ele>349.14</ele>
  <time>2026-09-01T19:54:35Z</time>
  <course>238.45</course>
  <speed>0.08062257748298549</speed>
  <fix>3d</fix>
</trkpt>
<trkpt lat="-27.2743191" lon="151.2888199">
  <ele>349.5</ele>
  <time>2026-09-01T19:54:35Z</time>
  <course>311.88</course>
  <speed>0.04</speed>
  <fix>3d</fix>
</trkpt>
<trkpt lat="-27.2743187" lon="151.2888197">
  <ele>349.09</ele>
  <time>2026-09-01T19:54:35Z</time>
  <course>238.47</course>
  <speed>0.09433981132056603</speed>
  <fix>3d</fix>
</trkpt>
<trkpt lat="-27.274319" lon="151.2888198">
  <ele>349.39</ele>
  <time>2026-09-01T19:54:35Z</time>
  <course>311.62</course>
  <speed>0.06</speed>
  <fix>3d</fix>
</trkpt>
<trkpt lat="-27.2743186" lon="151.2888196">
  <ele>349.04</ele>
  <time>2026-09-01T19:54:35Z</time>
  <course>238.52</course>
  <speed>0.1063014581273465</speed>
  <fix>3d</fix>
</trkpt>
<trkpt lat="-27.274319" lon="151.2888198">
  <ele>349.39</ele>
  <time>2026-09-01T19:54:35Z</time>
  <course>311.62</course>
  <speed>0.06</speed>
  <fix>3d</fix>
</trkpt>
<trkpt lat="-27.2743186" lon="151.2888195">
  <ele>348.98</ele>
  <time>2026-09-01T19:54:35Z</time>
  <course>238.56</course>
  <speed>0.11661903789690602</speed>
  <fix>3d</fix>
</trkpt>
<trkpt lat="-27.2743189" lon="151.2888197">
  <ele>349.28</ele>
  <time>2026-09-01T19:54:35Z</time>
  <course>304.17</course>
  <speed>0.08</speed>
  <fix>3d</fix>
</trkpt>
<trkpt lat="-27.2743186" lon="151.2888194">
  <ele>348.93</ele>
  <time>2026-09-01T19:54:35Z</time>
  <course>238.59</course>
  <speed>0.14317821063276354</speed>
  <fix>3d</fix>
</trkpt>
<trkpt lat="-27.2743189" lon="151.2888197">
  <ele>349.28</ele>
  <time>2026-09-01T19:54:35Z</time>
  <course>304.17</course>
  <speed>0.08</speed>
  <fix>3d</fix>
</trkpt>
<trkpt lat="-27.2743185" lon="151.2888193">
  <ele>348.88</ele>
  <time>2026-09-01T19:54:35Z</time>
  <course>238.6</course>
  <speed>0.15811388300841897</speed>
  <fix>3d</fix>
</trkpt>
<trkpt lat="-27.2743189" lon="151.2888196">
  <ele>349.18</ele>
  <time>2026-09-01T19:54:35Z</time>
  <course>290.05</course>
  <speed>0.11</speed>
  <fix>3d</fix>
</trkpt>
<trkpt lat="-27.2743185" lon="151.2888191">
  <ele>348.83</ele>
  <time>2026-09-01T19:54:35Z</time>
  <course>238.59</course>
  <speed>0.1772004514666935</speed>
  <fix>3d</fix>
</trkpt>
<trkpt lat="-27.2743189" lon="151.2888196">
  <ele>349.18</ele>
  <time>2026-09-01T19:54:35Z</time>
  <course>290.05</course>
  <speed>0.11</speed>
  <fix>3d</fix>
</trkpt>
<trkpt lat="-27.2743185" lon="151.2888189">
  <ele>348.78</ele>
  <time>2026-09-01T19:54:35Z</time>
  <course>238.58</course>
  <speed>0.18439088914585774</speed>
  <fix>3d</fix>
</trkpt>
<trkpt lat="-27.2743188" lon="151.2888193">
  <ele>349.07</ele>
  <time>2026-09-01T19:54:35Z</time>
  <course>280.52</course>
  <speed>0.15</speed>
  <fix>3d</fix>
</trkpt>
<trkpt lat="-27.2743185" lon="151.2888188">
  <ele>348.73</ele>
  <time>2026-09-01T19:54:35Z</time>
  <course>238.56</course>
  <speed>0.2039607805437114</speed>
  <fix>3d</fix>
</trkpt>
<trkpt lat="-27.2743188" lon="151.2888193">
  <ele>349.07</ele>
  <time>2026-09-01T19:54:35Z</time>
  <course>280.52</course>
  <speed>0.15</speed>
  <fix>3d</fix>
</trkpt>
<trkpt lat="-27.2743185" lon="151.2888185">
  <ele>348.68</ele>
  <time>2026-09-01T19:54:35Z</time>
  <course>238.52</course>
  <speed>0.21377558326431947</speed>
  <fix>3d</fix>
</trkpt>
<trkpt lat="-27.2743188" lon="151.288819">
  <ele>348.97</ele>
  <time>2026-09-01T19:54:35Z</time>
  <course>276.36</course>
  <speed>0.19</speed>
  <fix>3d</fix>
</trkpt>
<trkpt lat="-27.2743185" lon="151.2888183">
  <ele>348.63</ele>
  <time>2026-09-01T19:54:35Z</time>
  <course>238.47</course>
  <speed>0.223606797749979</speed>
  <fix>3d</fix>
</trkpt>
<trkpt lat="-27.2743188" lon="151.288819">
  <ele>348.97</ele>
  <time>2026-09-01T19:54:35Z</time>
  <course>276.36</course>
  <speed>0.19</speed>
  <fix>3d</fix>
</trkpt>
<trkpt lat="-27.2743185" lon="151.2888181">
  <ele>348.58</ele>
  <time>2026-09-01T19:54:35Z</time>
  <course>238.42</course>
  <speed>0.23345235059857505</speed>
  <fix>3d</fix>
</trkpt>
<trkpt lat="-27.2743188" lon="151.2888185">
  <ele>348.87</ele>
  <time>2026-09-01T19:54:35Z</time>
  <course>274.43</course>
  <speed>0.22</speed>
  <fix>3d</fix>
</trkpt>
<trkpt lat="-27.2743185" lon="151.2888179">
  <ele>348.53</ele>
  <time>2026-09-01T19:54:35Z</time>
  <course>238.37</course>
  <speed>0.24331050121192876</speed>
  <fix>3d</fix>
</trkpt>
<trkpt lat="-27.2743188" lon="151.2888185">
  <ele>348.87</ele>
  <time>2026-09-01T19:54:35Z</time>
  <course>274.43</course>
  <speed>0.22</speed>
  <fix>3d</fix>
</trkpt>
<trkpt lat="-27.2743185" lon="151.2888176">
  <ele>348.48</ele>
  <time>2026-09-01T19:54:35Z</time>
  <course>238.34</course>
  <speed>0.25317977802344327</speed>
  <fix>3d</fix>
</trkpt>
<trkpt lat="-27.2743187" lon="151.288818">
  <ele>348.77</ele>
  <time>2026-09-01T19:54:35Z</time>
  <course>273.48</course>
  <speed>0.24</speed>
  <fix>3d</fix>
</trkpt>
<trkpt lat="-27.2743185" lon="151.2888174">
  <ele>348.43</ele>
  <time>2026-09-01T19:54:35Z</time>
  <course>238.33</course>
  <speed>0.25317977802344327</speed>
  <fix>3d</fix>
</trkpt>
<trkpt lat="-27.2743187" lon="151.288818">
  <ele>348.77</ele>
  <time>2026-09-01T19:54:35Z</time>
  <course>273.48</course>
  <speed>0.24</speed>
  <fix>3d</fix>
</trkpt>
<trkpt lat="-27.2743185" lon="151.2888171">
  <ele>348.38</ele>
  <time>2026-09-01T19:54:35Z</time>
  <course>238.32</course>
  <speed>0.25179356624028343</speed>
  <fix>3d</fix>
</trkpt>
<trkpt lat="-27.2743187" lon="151.2888175">
  <ele>348.66</ele>
  <time>2026-09-01T19:54:35Z</time>
  <course>273.04</course>
  <speed>0.25</speed>
  <fix>3d</fix>
</trkpt>
<trkpt lat="-27.2743184" lon="151.2888168">
  <ele>348.33</ele>
  <time>2026-09-01T19:54:35Z</time>
  <course>238.32</course>
  <speed>0.25179356624028343</speed>
  <fix>3d</fix>
</trkpt>
<trkpt lat="-27.2743187" lon="151.2888175">
  <ele>348.66</ele>
  <time>2026-09-01T19:54:35Z</time>
  <course>273.04</course>
  <speed>0.25</speed>
  <fix>3d</fix>
</trkpt>
<trkpt lat="-27.2743184" lon="151.2888166">
  <ele>348.28</ele>
  <time>2026-09-01T19:54:35Z</time>
  <course>238.32</course>
  <speed>0.25317977802344327</speed>
  <fix>3d</fix>
</trkpt>
<trkpt lat="-27.2743187" lon="151.288817">
  <ele>348.57</ele>
  <time>2026-09-01T19:54:35Z</time>
  <course>272.9</course>
  <speed>0.26</speed>
  <fix>3d</fix>
</trkpt>
<trkpt lat="-27.2743184" lon="151.2888163">
  <ele>348.23</ele>
  <time>2026-09-01T19:54:35Z</time>
  <course>238.32</course>
  <speed>0.25317977802344327</speed>
  <fix>3d</fix>
</trkpt>
<trkpt lat="-27.2743187" lon="151.288817">
  <ele>348.57</ele>
  <time>2026-09-01T19:54:35Z</time>
  <course>272.9</course>
  <speed>0.26</speed>
  <fix>3d</fix>
</trkpt>
<trkpt lat="-27.2743184" lon="151.2888161">
  <ele>348.18</ele>
  <time>2026-09-01T19:54:35Z</time>
  <course>238.33</course>
  <speed>0.24331050121192876</speed>
  <fix>3d</fix>
</trkpt>
<trkpt lat="-27.2743187" lon="151.2888164">
  <ele>348.47</ele>
  <time>2026-09-01T19:54:35Z</time>
  <course>273.21</course>
  <speed>0.26</speed>
  <fix>3d</fix>
</trkpt>
<trkpt lat="-27.2743184" lon="151.2888158">
  <ele>348.13</ele>
  <time>2026-09-01T19:54:35Z</time>
  <course>238.35</course>
  <speed>0.24331050121192876</speed>
  <fix>3d</fix>
</trkpt>
<trkpt lat="-27.2743187" lon="151.2888164">
  <ele>348.47</ele>
  <time>2026-09-01T19:54:35Z</time>
  <course>273.21</course>
  <speed>0.26</speed>
  <fix>3d</fix>
</trkpt>
<trkpt lat="-27.2743184" lon="151.2888156">
  <ele>348.08</ele>
  <time>2026-09-01T19:54:35Z</time>
  <course>238.34</course>
  <speed>0.23345235059857505</speed>
  <fix>3d</fix>
</trkpt>
<trkpt lat="-27.2743186" lon="151.2888159">
  <ele>348.37</ele>
  <time>2026-09-01T19:54:35Z</time>
  <course>274.14</course>
  <speed>0.25</speed>
  <fix>3d</fix>
</trkpt>
<trkpt lat="-27.2743184" lon="151.2888153">
  <ele>348.03</ele>
  <time>2026-09-01T19:54:35Z</time>
  <course>238.33</course>
  <speed>0.22561028345356957</speed>
  <fix>3d</fix>
</trkpt>
<trkpt lat="-27.2743186" lon="151.2888159">
  <ele>348.37</ele>
  <time>2026-09-01T19:54:35Z</time>
  <course>274.14</course>
  <speed>0.25</speed>
  <fix>3d</fix>
</trkpt>
<trkpt lat="-27.2743184" lon="151.2888151">
  <ele>347.98</ele>
  <time>2026-09-01T19:54:35Z</time>
  <course>238.3</course>
  <speed>0.215870331449229</speed>
  <fix>3d</fix>
</trkpt>
<trkpt lat="-27.2743186" lon="151.2888154">
  <ele>348.27</ele>
  <time>2026-09-01T19:54:35Z</time>
  <course>275.55</course>
  <speed>0.24</speed>
  <fix>3d</fix>
</trkpt>
<trkpt lat="-27.2743183" lon="151.2888149">
  <ele>347.93</ele>
  <time>2026-09-01T19:54:35Z</time>
  <course>238.25</course>
  <speed>0.20615528128088303</speed>
  <fix>3d</fix>
</trkpt>
<trkpt lat="-27.2743186" lon="151.2888154">
  <ele>348.27</ele>
  <time>2026-09-01T19:54:35Z</time>
  <course>275.55</course>
  <speed>0.24</speed>
  <fix>3d</fix>
</trkpt>
<trkpt lat="-27.2743183" lon="151.2888146">
  <ele>347.88</ele>
  <time>2026-09-01T19:54:35Z</time>
  <course>238.22</course>
  <speed>0.196468827043885</speed>
  <fix>3d</fix>
</trkpt>
<trkpt lat="-27.2743185" lon="151.2888149">
  <ele>348.16</ele>
  <time>2026-09-01T19:54:35Z</time>
  <course>277.3</course>
  <speed>0.22</speed>
  <fix>3d</fix>
</trkpt>
<trkpt lat="-27.2743183" lon="151.2888145">
  <ele>347.83</ele>
  <time>2026-09-01T19:54:35Z</time>
  <course>238.19</course>
  <speed>0.18973665961010278</speed>
  <fix>3d</fix>
</trkpt>
<trkpt lat="-27.2743185" lon="151.2888149">
  <ele>348.16</ele>
  <time>2026-09-01T19:54:35Z</time>
  <course>277.3</course>
  <speed>0.22</speed>
  <fix>3d</fix>
</trkpt>
<trkpt lat="-27.2743182" lon="151.2888143">
  <ele>347.78</ele>
  <time>2026-09-01T19:54:35Z</time>
  <course>238.18</course>
  <speed>0.1708800749063506</speed>
  <fix>3d</fix>
</trkpt>
<trkpt lat="-27.2743185" lon="151.2888145">
  <ele>348.06</ele>
  <time>2026-09-01T19:54:35Z</time>
  <course>279.47</course>
  <speed>0.2</speed>
  <fix>3d</fix>
</trkpt>
<trkpt lat="-27.2743182" lon="151.2888141">
  <ele>347.73</ele>
  <time>2026-09-01T19:54:35Z</time>
  <course>238.17</course>
  <speed>0.1615549442140351</speed>
  <fix>3d</fix>
</trkpt>
<trkpt lat="-27.2743185" lon="151.2888145">
  <ele>348.06</ele>
  <time>2026-09-01T19:54:35Z</time>
  <course>279.47</course>
  <speed>0.2</speed>
  <fix>3d</fix>
</trkpt>
<trkpt lat="-27.2743182" lon="151.2888139">
  <ele>347.68</ele>
  <time>2026-09-01T19:54:35Z</time>
  <course>238.17</course>
  <speed>0.14317821063276354</speed>
  <fix>3d</fix>
</trkpt>
<trkpt lat="-27.2743184" lon="151.2888141">
  <ele>347.96</ele>
  <time>2026-09-01T19:54:35Z</time>
  <course>282.34</course>
  <speed>0.18</speed>
  <fix>3d</fix>
</trkpt>
<trkpt lat="-27.2743181" lon="151.2888138">
  <ele>347.63</ele>
  <time>2026-09-01T19:54:35Z</time>
  <course>238.18</course>
  <speed>0.1341640786499874</speed>
  <fix>3d</fix>
</trkpt>
<trkpt lat="-27.2743184" lon="151.2888141">
  <ele>347.96</ele>
  <time>2026-09-01T19:54:35Z</time>
  <course>282.34</course>
  <speed>0.18</speed>
  <fix>3d</fix>
</trkpt>
<trkpt lat="-27.2743181" lon="151.2888137">
  <ele>347.58</ele>
  <time>2026-09-01T19:54:35Z</time>
  <course>238.19</course>
  <speed>0.12206555615733702</speed>
  <fix>3d</fix>
</trkpt>
<trkpt lat="-27.2743183" lon="151.2888138">
  <ele>347.86</ele>
  <time>2026-09-01T19:54:35Z</time>
  <course>286.32</course>
  <speed>0.15</speed>
  <fix>3d</fix>
</trkpt>
<trkpt lat="-27.2743181" lon="151.2888136">
  <ele>347.53</ele>
  <time>2026-09-01T19:54:35Z</time>
  <course>238.19</course>
  <speed>0.11401754250991379</speed>
  <fix>3d</fix>
</trkpt>
<trkpt lat="-27.2743183" lon="151.2888138">
  <ele>347.86</ele>
  <time>2026-09-01T19:54:35Z</time>
  <course>286.32</course>
  <speed>0.15</speed>
  <fix>3d</fix>
</trkpt>
<trkpt lat="-27.274318" lon="151.2888135">
  <ele>347.48</ele>
  <time>2026-09-01T19:54:35Z</time>
  <course>238.19</course>
  <speed>0.09899494936611665</speed>
  <fix>3d</fix>
</trkpt>
<trkpt lat="-27.2743182" lon="151.2888135">
  <ele>347.76</ele>
  <time>2026-09-01T19:54:35Z</time>
  <course>291.99</course>
  <speed>0.12</speed>
  <fix>3d</fix>
</trkpt>
<trkpt lat="-27.274318" lon="151.2888134">
  <ele>347.43</ele>
  <time>2026-09-01T19:54:35Z</time>
  <course>238.19</course>
  <speed>0.0854400374531753</speed>
  <fix>3d</fix>
</trkpt>
<trkpt lat="-27.2743182" lon="151.2888135">
  <ele>347.76</ele>
  <time>2026-09-01T19:54:35Z</time>
  <course>291.99</course>
  <speed>0.12</speed>
  <fix>3d</fix>
</trkpt>
<trkpt lat="-27.2743179" lon="151.2888134">
  <ele>347.38</ele>
  <time>2026-09-01T19:54:35Z</time>
  <course>238.2</course>
  <speed>0.09</speed>
  <fix>3d</fix>
</trkpt>
<trkpt lat="-27.2743181" lon="151.2888133">
  <ele>347.65</ele>
  <time>2026-09-01T19:54:35Z</time>
  <course>307.42</course>
  <speed>0.08</speed>
  <fix>3d</fix>
</trkpt>
<trkpt lat="-27.2743178" lon="151.2888134">
  <ele>347.33</ele>
  <time>2026-09-01T19:54:35Z</time>
  <course>238.23</course>
  <speed>0.1044030650891055</speed>
  <fix>3d</fix>
</trkpt>
<trkpt lat="-27.2743181" lon="151.2888133">
  <ele>347.65</ele>
  <time>2026-09-01T19:54:35Z</time>
  <course>307.42</course>
  <speed>0.08</speed>
  <fix>3d</fix>
</trkpt>
<trkpt lat="-27.2743177" lon="151.2888134">
  <ele>347.28</ele>
  <time>2026-09-01T19:54:35Z</time>
  <course>238.27</course>
  <speed>0.12529964086141668</speed>
  <fix>3d</fix>
</trkpt>
<trkpt lat="-27.274318" lon="151.2888132">
  <ele>347.56</ele>
  <time>2026-09-01T19:54:35Z</time>
  <course>353.57</course>
  <speed>0.07</speed>
  <fix>3d</fix>
</trkpt>
<trkpt lat="-27.2743176" lon="151.2888135">
  <ele>347.23</ele>
  <time>2026-09-01T19:54:35Z</time>
  <course>238.32</course>
  <speed>0.15</speed>
  <fix>3d</fix>
</trkpt>
<trkpt lat="-27.274318" lon="151.2888132">
  <ele>347.56</ele>
  <time>2026-09-01T19:54:35Z</time>
  <course>353.57</course>
  <speed>0.07</speed>
  <fix>3d</fix>
</trkpt>
<trkpt lat="-27.2743176" lon="151.2888136">
  <ele>347.18</ele>
  <time>2026-09-01T19:54:35Z</time>
  <course>238.36</course>
  <speed>0.1697056274847714</speed>
  <fix>3d</fix>
</trkpt>
<trkpt lat="-27.2743179" lon="151.2888133">
  <ele>347.46</ele>
  <time>2026-09-01T19:54:35Z</time>
  <course>33.42</course>
  <speed>0.1</speed>
  <fix>3d</fix>
</trkpt>
<trkpt lat="-27.2743175" lon="151.2888137">
  <ele>347.13</ele>
  <time>2026-09-01T19:54:35Z</time>
  <course>238.39</course>
  <speed>0.19849433241279207</speed>
  <fix>3d</fix>
</trkpt>
<trkpt lat="-27.2743179" lon="151.2888133">
  <ele>347.46</ele>
  <time>2026-09-01T19:54:35Z</time>
  <course>33.42</course>
  <speed>0.1</speed>
  <fix>3d</fix>
</trkpt>
<trkpt lat="-27.2743174" lon="151.2888138">
  <ele>347.08</ele>
  <time>2026-09-01T19:54:35Z</time>
  <course>238.42</course>
  <speed>0.21400934559032694</speed>
  <fix>3d</fix>
</trkpt>
<trkpt lat="-27.2743177" lon="151.2888134">
  <ele>347.36</ele>
  <time>2026-09-01T19:54:35Z</time>
  <course>49.26</course>
  <speed>0.15</speed>
  <fix>3d</fix>
</trkpt>
<trkpt lat="-27.2743173" lon="151.2888139">
  <ele>347.03</ele>
  <time>2026-09-01T19:54:35Z</time>
  <course>238.35</course>
  <speed>0.22803508501982758</speed>
  <fix>3d</fix>
</trkpt>
<trkpt lat="-27.2743177" lon="151.2888134">
  <ele>347.36</ele>
  <time>2026-09-01T19:54:35Z</time>
  <course>49.26</course>
  <speed>0.15</speed>
  <fix>3d</fix>
</trkpt>
<trkpt lat="-27.2743172" lon="151.2888141">
  <ele>346.98</ele>
  <time>2026-09-01T19:54:35Z</time>
  <course>238.13</course>
  <speed>0.2420743687382041</speed>
  <fix>3d</fix>
</trkpt>
<trkpt lat="-27.2743175" lon="151.2888137">
  <ele>347.26</ele>
  <time>2026-09-01T19:54:35Z</time>
  <course>55.78</course>
  <speed>0.19</speed>
  <fix>3d</fix>
</trkpt>
<trkpt lat="-27.274317" lon="151.2888143">
  <ele>346.93</ele>
  <time>2026-09-01T19:54:35Z</time>
  <course>237.84</course>
  <speed>0.25</speed>
  <fix>3d</fix>
</trkpt>
<trkpt lat="-27.2743175" lon="151.2888137">
  <ele>347.26</ele>
  <time>2026-09-01T19:54:35Z</time>
  <course>55.78</course>
  <speed>0.19</speed>
  <fix>3d</fix>
</trkpt>
<trkpt lat="-27.2743169" lon="151.2888145">
  <ele>346.88</ele>
  <time>2026-09-01T19:54:35Z</time>
  <course>237.52</course>
  <speed>0.2640075756488817</speed>
  <fix>3d</fix>
</trkpt>
<trkpt lat="-27.2743173" lon="151.288814">
  <ele>347.15</ele>
  <time>2026-09-01T19:54:35Z</time>
  <course>57.32</course>
  <speed>0.23</speed>
  <fix>3d</fix>
</trkpt>
<trkpt lat="-27.2743168" lon="151.2888147">
  <ele>346.83</ele>
  <time>2026-09-01T19:54:35Z</time>
  <course>237.25</course>
  <speed>0.2720294101747089</speed>
  <fix>3d</fix>
</trkpt>
<trkpt lat="-27.2743173" lon="151.288814">
  <ele>347.15</ele>
  <time>2026-09-01T19:54:35Z</time>
  <course>57.32</course>
  <speed>0.23</speed>
  <fix>3d</fix>
</trkpt>
<trkpt lat="-27.2743167" lon="151.2888149">
  <ele>346.78</ele>
  <time>2026-09-01T19:54:35Z</time>
  <course>237.04</course>
  <speed>0.2780287754891569</speed>
  <fix>3d</fix>
</trkpt>
<trkpt lat="-27.2743171" lon="151.2888145">
  <ele>347.06</ele>
  <time>2026-09-01T19:54:35Z</time>
  <course>57.4</course>
  <speed>0.25</speed>
  <fix>3d</fix>
</trkpt>
<trkpt lat="-27.2743165" lon="151.2888152">
  <ele>346.73</ele>
  <time>2026-09-01T19:54:35Z</time>
  <course>236.92</course>
  <speed>0.28600699292150183</speed>
  <fix>3d</fix>
</trkpt>
<trkpt lat="-27.2743171" lon="151.2888145">
  <ele>347.06</ele>
  <time>2026-09-01T19:54:35Z</time>
  <course>57.4</course>
  <speed>0.25</speed>
  <fix>3d</fix>
</trkpt>
<trkpt lat="-27.2743164" lon="151.2888154">
  <ele>346.68</ele>
  <time>2026-09-01T19:54:35Z</time>
  <course>236.88</course>
  <speed>0.28600699292150183</speed>
  <fix>3d</fix>
</trkpt>
<trkpt lat="-27.2743168" lon="151.2888149">
  <ele>346.96</ele>
  <time>2026-09-01T19:54:35Z</time>
  <course>57.82</course>
  <speed>0.27</speed>
  <fix>3d</fix>
</trkpt>
<trkpt lat="-27.2743163" lon="151.2888156">
  <ele>346.63</ele>
  <time>2026-09-01T19:54:35Z</time>
  <course>236.91</course>
  <speed>0.280178514522438</speed>
  <fix>3d</fix>
</trkpt>
<trkpt lat="-27.2743168" lon="151.2888149">
  <ele>346.96</ele>
  <time>2026-09-01T19:54:35Z</time>
  <course>57.82</course>
  <speed>0.27</speed>
  <fix>3d</fix>
</trkpt>
<trkpt lat="-27.2743161" lon="151.2888158">
  <ele>346.58</ele>
  <time>2026-09-01T19:54:35Z</time>
  <course>236.98</course>
  <speed>0.280178514522438</speed>
  <fix>3d</fix>
</trkpt>
<trkpt lat="-27.2743166" lon="151.2888153">
  <ele>346.86</ele>
  <time>2026-09-01T19:54:35Z</time>
  <course>58.54</course>
  <speed>0.27</speed>
  <fix>3d</fix>
</trkpt>
<trkpt lat="-27.274316" lon="151.2888161">
  <ele>346.53</ele>
  <time>2026-09-01T19:54:35Z</time>
  <course>237.07</course>
  <speed>0.280178514522438</speed>
  <fix>3d</fix>
</trkpt>
<trkpt lat="-27.2743166" lon="151.2888153">
  <ele>346.86</ele>
  <time>2026-09-01T19:54:35Z</time>
  <course>58.54</course>
  <speed>0.27</speed>
  <fix>3d</fix>
</trkpt>
<trkpt lat="-27.2743159" lon="151.2888163">
  <ele>346.48</ele>
  <time>2026-09-01T19:54:35Z</time>
  <course>237.16</course>
  <speed>0.2745906043549196</speed>
  <fix>3d</fix>
</trkpt>
<trkpt lat="-27.2743163" lon="151.2888158">
  <ele>346.76</ele>
  <time>2026-09-01T19:54:35Z</time>
  <course>59.45</course>
  <speed>0.27</speed>
  <fix>3d</fix>
</trkpt>
<trkpt lat="-27.2743158" lon="151.2888165">
  <ele>346.43</ele>
  <time>2026-09-01T19:54:35Z</time>
  <course>237.24</course>
  <speed>0.266270539113887</speed>
  <fix>3d</fix>
</trkpt>
<trkpt lat="-27.2743163" lon="151.2888158">
  <ele>346.76</ele>
  <time>2026-09-01T19:54:35Z</time>
  <course>59.45</course>
  <speed>0.27</speed>
  <fix>3d</fix>
</trkpt>
<trkpt lat="-27.2743157" lon="151.2888167">
  <ele>346.37</ele>
  <time>2026-09-01T19:54:35Z</time>
  <course>237.3</course>
  <speed>0.266270539113887</speed>
  <fix>3d</fix>
</trkpt>
<trkpt lat="-27.2743161" lon="151.2888163">
  <ele>346.65</ele>
  <time>2026-09-01T19:54:35Z</time>
  <course>60.46</course>
  <speed>0.27</speed>
  <fix>3d</fix>
</trkpt>
<trkpt lat="-27.2743156" lon="151.2888169">
  <ele>346.32</ele>
  <time>2026-09-01T19:54:35Z</time>
  <course>237.33</course>
  <speed>0.25238858928247926</speed>
  <fix>3d</fix>
</trkpt>
<trkpt lat="-27.2743161" lon="151.2888163">
  <ele>346.65</ele>
  <time>2026-09-01T19:54:35Z</time>
  <course>60.46</course>
  <speed>0.27</speed>
  <fix>3d</fix>
</trkpt>
<trkpt lat="-27.2743155" lon="151.2888171">
  <ele>346.27</ele>
  <time>2026-09-01T19:54:35Z</time>
  <course>237.34</course>
  <speed>0.24698178070456936</speed>
  <fix>3d</fix>
</trkpt>
<trkpt lat="-27.2743159" lon="151.2888168">
  <ele>346.55</ele>
  <time>2026-09-01T19:54:35Z</time>
  <course>61.63</course>
  <speed>0.26</speed>
  <fix>3d</fix>
</trkpt>
<trkpt lat="-27.2743154" lon="151.2888174">
  <ele>346.22</ele>
  <time>2026-09-01T19:54:35Z</time>
  <course>237.34</course>
  <speed>0.23853720883753127</speed>
  <fix>3d</fix>
</trkpt>
<trkpt lat="-27.2743159" lon="151.2888168">
  <ele>346.55</ele>
  <time>2026-09-01T19:54:35Z</time>
  <course>61.63</course>
  <speed>0.26</speed>
  <fix>3d</fix>
</trkpt>
<trkpt lat="-27.2743153" lon="151.2888176">
  <ele>346.17</ele>
  <time>2026-09-01T19:54:35Z</time>
  <course>237.33</course>
  <speed>0.23323807579381203</speed>
  <fix>3d</fix>
</trkpt>
<trkpt lat="-27.2743157" lon="151.2888173">
  <ele>346.45</ele>
  <time>2026-09-01T19:54:35Z</time>
  <course>63.02</course>
  <speed>0.24</speed>
  <fix>3d</fix>
</trkpt>
<trkpt lat="-27.2743152" lon="151.2888178">
  <ele>346.12</ele>
  <time>2026-09-01T19:54:35Z</time>
  <course>237.31</course>
  <speed>0.2195449840010015</speed>
  <fix>3d</fix>
</trkpt>
<trkpt lat="-27.2743157" lon="151.2888173">
  <ele>346.45</ele>
  <time>2026-09-01T19:54:35Z</time>
  <course>63.02</course>
  <speed>0.24</speed>
  <fix>3d</fix>
</trkpt>
<trkpt lat="-27.2743151" lon="151.288818">
  <ele>346.07</ele>
  <time>2026-09-01T19:54:35Z</time>
  <course>237.3</course>
  <speed>0.2109502310972899</speed>
  <fix>3d</fix>
</trkpt>
<trkpt lat="-27.2743155" lon="151.2888176">
  <ele>346.34</ele>
  <time>2026-09-01T19:54:35Z</time>
  <course>64.61</course>
  <speed>0.23</speed>
  <fix>3d</fix>
</trkpt>
<trkpt lat="-27.2743151" lon="151.2888181">
  <ele>346.02</ele>
  <time>2026-09-01T19:54:35Z</time>
  <course>237.28</course>
  <speed>0.1972308292331602</speed>
  <fix>3d</fix>
</trkpt>
<trkpt lat="-27.2743155" lon="151.2888176">
  <ele>346.34</ele>
  <time>2026-09-01T19:54:35Z</time>
  <course>64.61</course>
  <speed>0.23</speed>
  <fix>3d</fix>
</trkpt>
<trkpt lat="-27.274315" lon="151.2888183">
  <ele>345.97</ele>
  <time>2026-09-01T19:54:35Z</time>
  <course>237.27</course>
  <speed>0.19235384061671343</speed>
  <fix>3d</fix>
</trkpt>
<trkpt lat="-27.2743153" lon="151.2888181">
  <ele>346.25</ele>
  <time>2026-09-01T19:54:35Z</time>
  <course>66.42</course>
  <speed>0.21</speed>
  <fix>3d</fix>
</trkpt>
<trkpt lat="-27.2743149" lon="151.2888185">
  <ele>345.92</ele>
  <time>2026-09-01T19:54:35Z</time>
  <course>237.26</course>
  <speed>0.17888543819998318</speed>
  <fix>3d</fix>
</trkpt>
<trkpt lat="-27.2743153" lon="151.2888181">
  <ele>346.25</ele>
  <time>2026-09-01T19:54:35Z</time>
  <course>66.42</course>
  <speed>0.21</speed>
  <fix>3d</fix>
</trkpt>
<trkpt lat="-27.2743149" lon="151.2888187">
  <ele>345.87</ele>
  <time>2026-09-01T19:54:35Z</time>
  <course>237.26</course>
  <speed>0.17</speed>
  <fix>3d</fix>
</trkpt>
<trkpt lat="-27.2743151" lon="151.2888185">
  <ele>346.15</ele>
  <time>2026-09-01T19:54:35Z</time>
  <course>68.64</course>
  <speed>0.18</speed>
  <fix>3d</fix>
</trkpt>
<trkpt lat="-27.2743148" lon="151.2888188">
  <ele>345.82</ele>
  <time>2026-09-01T19:54:35Z</time>
  <course>237.27</course>
  <speed>0.15652475842498528</speed>
  <fix>3d</fix>
</trkpt>
<trkpt lat="-27.2743151" lon="151.2888185">
  <ele>346.15</ele>
  <time>2026-09-01T19:54:35Z</time>
  <course>68.64</course>
  <speed>0.18</speed>
  <fix>3d</fix>
</trkpt>
<trkpt lat="-27.2743148" lon="151.288819">
  <ele>345.77</ele>
  <time>2026-09-01T19:54:35Z</time>
  <course>237.28</course>
  <speed>0.14317821063276354</speed>
  <fix>3d</fix>
</trkpt>
<trkpt lat="-27.274315" lon="151.2888188">
  <ele>346.05</ele>
  <time>2026-09-01T19:54:35Z</time>
  <course>71.61</course>
  <speed>0.16</speed>
  <fix>3d</fix>
</trkpt>
<trkpt lat="-27.2743148" lon="151.2888191">
  <ele>345.72</ele>
  <time>2026-09-01T19:54:35Z</time>
  <course>237.3</course>
  <speed>0.13</speed>
  <fix>3d</fix>
</trkpt>
<trkpt lat="-27.274315" lon="151.2888188">
  <ele>346.05</ele>
  <time>2026-09-01T19:54:35Z</time>
  <course>71.61</course>
  <speed>0.16</speed>
  <fix>3d</fix>
</trkpt>
<trkpt lat="-27.2743147" lon="151.2888192">
  <ele>345.67</ele>
  <time>2026-09-01T19:54:35Z</time>
  <course>237.31</course>
  <speed>0.11704699910719625</speed>
  <fix>3d</fix>
</trkpt>
<trkpt lat="-27.2743149" lon="151.2888191">
  <ele>345.95</ele>
  <time>2026-09-01T19:54:35Z</time>
  <course>75.58</course>
  <speed>0.14</speed>
  <fix>3d</fix>
</trkpt>
<trkpt lat="-27.2743147" lon="151.2888193">
  <ele>345.62</ele>
  <time>2026-09-01T19:54:35Z</time>
  <course>237.32</course>
  <speed>0.10770329614269007</speed>
  <fix>3d</fix>
</trkpt>
<trkpt lat="-27.2743149" lon="151.2888191">
  <ele>345.95</ele>
  <time>2026-09-01T19:54:35Z</time>
  <course>75.58</course>
  <speed>0.14</speed>
  <fix>3d</fix>
</trkpt>
<trkpt lat="-27.2743147" lon="151.2888195">
  <ele>345.57</ele>
  <time>2026-09-01T19:54:35Z</time>
  <course>237.34</course>
  <speed>0.09486832980505139</speed>
  <fix>3d</fix>
</trkpt>
<trkpt lat="-27.2743149" lon="151.2888194">
  <ele>345.84</ele>
  <time>2026-09-01T19:54:35Z</time>
  <course>80.78</course>
  <speed>0.12</speed>
  <fix>3d</fix>
</trkpt>
<trkpt lat="-27.2743147" lon="151.2888196">
  <ele>345.52</ele>
  <time>2026-09-01T19:54:35Z</time>
  <course>237.36</course>
  <speed>0.0824621125123532</speed>
  <fix>3d</fix>
</trkpt>
<trkpt lat="-27.2743149" lon="151.2888194">
  <ele>345.84</ele>
  <time>2026-09-01T19:54:35Z</time>
  <course>80.78</course>
  <speed>0.12</speed>
  <fix>3d</fix>
</trkpt>
<trkpt lat="-27.2743147" lon="151.2888196">
  <ele>345.47</ele>
  <time>2026-09-01T19:54:35Z</time>
  <course>237.38</course>
  <speed>0.07071067811865475</speed>
  <fix>3d</fix>
</trkpt>
<trkpt lat="-27.2743149" lon="151.2888196">
  <ele>345.75</ele>
  <time>2026-09-01T19:54:35Z</time>
  <course>88.18</course>
  <speed>0.09</speed>
  <fix>3d</fix>
</trkpt>
<trkpt lat="-27.2743147" lon="151.2888197">
  <ele>345.42</ele>
  <time>2026-09-01T19:54:35Z</time>
  <course>237.4</course>
  <speed>0.06082762530298219</speed>
  <fix>3d</fix>
</trkpt>
<trkpt lat="-27.2743149" lon="151.2888196">
  <ele>345.75</ele>
  <time>2026-09-01T19:54:35Z</time>
  <course>88.18</course>
  <speed>0.09</speed>
  <fix>3d</fix>
</trkpt>
<trkpt lat="-27.2743147" lon="151.2888198">
  <ele>345.36</ele>
  <time>2026-09-01T19:54:35Z</time>
  <course>237.42</course>
  <speed>0.05</speed>
  <fix>3d</fix>
</trkpt>
<trkpt lat="-27.2743149" lon="151.2888198">
  <ele>345.65</ele>
  <time>2026-09-01T19:54:35Z</time>
  <course>99.2</course>
  <speed>0.07</speed>
  <fix>3d</fix>
</trkpt>
<trkpt lat="-27.2743147" lon="151.2888198">
  <ele>345.32</ele>
  <time>2026-09-01T19:54:35Z</time>
  <course>237.44</course>
  <speed>0.04</speed>
  <fix>3d</fix>
</trkpt>
<trkpt lat="-27.2743149" lon="151.2888198">
  <ele>345.65</ele>
  <time>2026-09-01T19:54:35Z</time>
  <course>99.2</course>
  <speed>0.07</speed>
  <fix>3d</fix>
</trkpt>
<trkpt lat="-27.2743147" lon="151.2888199">
  <ele>345.27</ele>
  <time>2026-09-01T19:54:35Z</time>
  <course>237.46</course>
  <speed>0.0316227766016838</speed>
  <fix>3d</fix>
</trkpt>
<trkpt lat="-27.2743149" lon="151.2888199">
  <ele>345.55</ele>
  <time>2026-09-01T19:54:35Z</time>
  <course>116.0</course>
  <speed>0.06</speed>
  <fix>3d</fix>
</trkpt>
<trkpt lat="-27.2743147" lon="151.2888199">
  <ele>345.22</ele>
  <time>2026-09-01T19:54:35Z</time>
  <course>237.48</course>
  <speed>0.022360679774997897</speed>
  <fix>3d</fix>
</trkpt>
<trkpt lat="-27.2743149" lon="151.2888199">
  <ele>345.55</ele>
  <time>2026-09-01T19:54:35Z</time>
  <course>116.0</course>
  <speed>0.06</speed>
  <fix>3d</fix>
</trkpt>
<trkpt lat="-27.2743148" lon="151.2888199">
  <ele>345.17</ele>
  <time>2026-09-01T19:54:35Z</time>
  <course>237.51</course>
  <speed>0.022360679774997897</speed>
  <fix>3d</fix>
</trkpt>
<trkpt lat="-27.2743149" lon="151.28882">
  <ele>345.45</ele>
  <time>2026-09-01T19:54:35Z</time>
  <course>139.93</course>
  <speed>0.05</speed>
  <fix>3d</fix>
</trkpt>
<trkpt lat="-27.2743148" lon="151.28882">
  <ele>345.12</ele>
  <time>2026-09-01T19:54:35Z</time>
  <course>237.53</course>
  <speed>0.03</speed>
  <fix>3d</fix>
</trkpt>
<trkpt lat="-27.2743149" lon="151.28882">
  <ele>345.45</ele>
  <time>2026-09-01T19:54:35Z</time>
  <course>139.93</course>
  <speed>0.05</speed>
  <fix>3d</fix>
</trkpt>
<trkpt lat="-27.2743149" lon="151.28882">
  <ele>345.07</ele>
  <time>2026-09-01T19:54:35Z</time>
  <course>237.55</course>
  <speed>0.03</speed>
  <fix>3d</fix>
</trkpt>
<trkpt lat="-27.274315" lon="151.28882">
  <ele>345.34</ele>
  <time>2026-09-01T19:54:35Z</time>
  <course>164.57</course>
  <speed>0.05</speed>
  <fix>3d</fix>
</trkpt>
<trkpt lat="-27.2743149" lon="151.28882">
  <ele>345.02</ele>
  <time>2026-09-01T19:54:35Z</time>
  <course>237.56</course>
  <speed>0.0412310562561766</speed>
  <fix>3d</fix>
</trkpt>
<trkpt lat="-27.274315" lon="151.28882">
  <ele>345.34</ele>
  <time>2026-09-01T19:54:35Z</time>
  <course>164.57</course>
  <speed>0.05</speed>
  <fix>3d</fix>
</trkpt>
<trkpt lat="-27.274315" lon="151.28882">
  <ele>344.97</ele>
  <time>2026-09-01T19:54:35Z</time>
  <course>237.56</course>
  <speed>0.044721359549995794</speed>
  <fix>3d</fix>
</trkpt>
<trkpt lat="-27.2743151" lon="151.28882">
  <ele>345.25</ele>
  <time>2026-09-01T19:54:35Z</time>
  <course>182.76</course>
  <speed>0.07</speed>
  <fix>3d</fix>
</trkpt>
<trkpt lat="-27.2743151" lon="151.28882">
  <ele>344.92</ele>
  <time>2026-09-01T19:54:35Z</time>
  <course>237.57</course>
  <speed>0.05830951894845301</speed>
  <fix>3d</fix>
</trkpt>
<trkpt lat="-27.2743151" lon="151.28882">
  <ele>345.25</ele>
  <time>2026-09-01T19:54:35Z</time>
  <course>182.76</course>
  <speed>0.07</speed>
  <fix>3d</fix>
</trkpt>
<trkpt lat="-27.2743151" lon="151.28882">
  <ele>344.87</ele>
  <time>2026-09-01T19:54:35Z</time>
  <course>237.57</course>
  <speed>0.06403124237432849</speed>
  <fix>3d</fix>
</trkpt>
<trkpt lat="-27.2743152" lon="151.28882">
  <ele>345.15</ele>
  <time>2026-09-01T19:54:35Z</time>
  <course>194.83</course>
  <speed>0.08</speed>
  <fix>3d</fix>
</trkpt>
<trkpt lat="-27.2743152" lon="151.2888199">
  <ele>344.82</ele>
  <time>2026-09-01T19:54:35Z</time>
  <course>237.58</course>
  <speed>0.07211102550927978</speed>
  <fix>3d</fix>
</trkpt>
<trkpt lat="-27.2743152" lon="151.28882">
  <ele>345.15</ele>
  <time>2026-09-01T19:54:35Z</time>
  <course>194.83</course>
  <speed>0.08</speed>
  <fix>3d</fix>
</trkpt>
<trkpt lat="-27.2743153" lon="151.2888199">
  <ele>344.77</ele>
  <time>2026-09-01T19:54:35Z</time>
  <course>237.59</course>
  <speed>0.07810249675906654</speed>
  <fix>3d</fix>
</trkpt>
<trkpt lat="-27.2743154" lon="151.28882">
  <ele>345.05</ele>
  <time>2026-09-01T19:54:35Z</time>
  <course>202.73</course>
  <speed>0.1</speed>
  <fix>3d</fix>
</trkpt>
<trkpt lat="-27.2743154" lon="151.2888198">
  <ele>344.72</ele>
  <time>2026-09-01T19:54:35Z</time>
  <course>237.59</course>
  <speed>0.0848528137423857</speed>
  <fix>3d</fix>
</trkpt>
<trkpt lat="-27.2743154" lon="151.28882">
  <ele>345.05</ele>
  <time>2026-09-01T19:54:35Z</time>
  <course>202.73</course>
  <speed>0.1</speed>
  <fix>3d</fix>
</trkpt>
<trkpt lat="-27.2743155" lon="151.2888198">
  <ele>344.67</ele>
  <time>2026-09-01T19:54:35Z</time>
  <course>237.59</course>
  <speed>0.09219544457292887</speed>
  <fix>3d</fix>
</trkpt>
<trkpt lat="-27.2743156" lon="151.28882">
  <ele>344.95</ele>
  <time>2026-09-01T19:54:35Z</time>
  <course>208.38</course>
  <speed>0.11</speed>
  <fix>3d</fix>
</trkpt>
<trkpt lat="-27.2743155" lon="151.2888197">
  <ele>344.62</ele>
  <time>2026-09-01T19:54:35Z</time>
  <course>237.59</course>
  <speed>0.09899494936611665</speed>
  <fix>3d</fix>
</trkpt>
<trkpt lat="-27.2743156" lon="151.28882">
  <ele>344.95</ele>
  <time>2026-09-01T19:54:35Z</time>
  <course>208.38</course>
  <speed>0.11</speed>
  <fix>3d</fix>
</trkpt>
<trkpt lat="-27.2743156" lon="151.2888196">
  <ele>344.57</ele>
  <time>2026-09-01T19:54:35Z</time>
  <course>237.59</course>
  <speed>0.1063014581273465</speed>
  <fix>3d</fix>
</trkpt>
<trkpt lat="-27.2743157" lon="151.2888199">
  <ele>344.84</ele>
  <time>2026-09-01T19:54:36Z</time>
  <course>213.09</course>
  <speed>0.12</speed>
  <fix>3d</fix>
</trkpt>
<trkpt lat="-27.2743157" lon="151.2888196">
  <ele>344.52</ele>
  <time>2026-09-01T19:54:36Z</time>
  <course>237.58</course>
  <speed>0.1063014581273465</speed>
  <fix>3d</fix>
</trkpt>
<trkpt lat="-27.2743157" lon="151.2888199">
  <ele>344.84</ele>
  <time>2026-09-01T19:54:36Z</time>
  <course>213.09</course>
  <speed>0.12</speed>
  <fix>3d</fix>
</trkpt>
<trkpt lat="-27.2743158" lon="151.2888195">
  <ele>344.47</ele>
  <time>2026-09-01T19:54:36Z</time>
  <course>237.57</course>
  <speed>0.11401754250991379</speed>
  <fix>3d</fix>
</trkpt>
<trkpt lat="-27.274316" lon="151.2888197">
  <ele>344.75</ele>
  <time>2026-09-01T19:54:36Z</time>
  <course>217.17</course>
  <speed>0.13</speed>
  <fix>3d</fix>
</trkpt>
<trkpt lat="-27.2743159" lon="151.2888194">
  <ele>344.42</ele>
  <time>2026-09-01T19:54:36Z</time>
  <course>237.57</course>
  <speed>0.11401754250991379</speed>
  <fix>3d</fix>
</trkpt>
<trkpt lat="-27.274316" lon="151.2888197">
  <ele>344.75</ele>
  <time>2026-09-01T19:54:36Z</time>
  <course>217.17</course>
  <speed>0.13</speed>
  <fix>3d</fix>
</trkpt>
<trkpt lat="-27.274316" lon="151.2888193">
  <ele>344.37</ele>
  <time>2026-09-01T19:54:36Z</time>
  <course>237.56</course>
  <speed>0.11401754250991379</speed>
  <fix>3d</fix>
</trkpt>
<trkpt lat="-27.2743162" lon="151.2888196">
  <ele>344.65</ele>
  <time>2026-09-01T19:54:36Z</time>
  <course>220.54</course>
  <speed>0.14</speed>
  <fix>3d</fix>
</trkpt>
<trkpt lat="-27.2743161" lon="151.2888192">
  <ele>344.32</ele>
  <time>2026-09-01T19:54:36Z</time>
  <course>237.56</course>
  <speed>0.12206555615733702</speed>
  <fix>3d</fix>
</trkpt>
<trkpt lat="-27.2743162" lon="151.2888196">
  <ele>344.65</ele>
  <time>2026-09-01T19:54:36Z</time>
  <course>220.54</course>
  <speed>0.14</speed>
  <fix>3d</fix>
</trkpt>
<trkpt lat="-27.2743162" lon="151.2888191">
  <ele>344.27</ele>
  <time>2026-09-01T19:54:36Z</time>
  <course>237.57</course>
  <speed>0.12206555615733702</speed>
  <fix>3d</fix>
</trkpt>
<trkpt lat="-27.2743163" lon="151.2888193">
  <ele>344.55</ele>
  <time>2026-09-01T19:54:36Z</time>
  <course>223.38</course>
  <speed>0.15</speed>
  <fix>3d</fix>
</trkpt>
<trkpt lat="-27.2743163" lon="151.288819">
  <ele>344.22</ele>
  <time>2026-09-01T19:54:36Z</time>
  <course>237.58</course>
  <speed>0.11661903789690602</speed>
  <fix>3d</fix>
</trkpt>
<trkpt lat="-27.2743163" lon="151.2888193">
  <ele>344.55</ele>
  <time>2026-09-01T19:54:36Z</time>
  <course>223.38</course>
  <speed>0.15</speed>
  <fix>3d</fix>
</trkpt>
<trkpt lat="-27.2743164" lon="151.2888189">
  <ele>344.17</ele>
  <time>2026-09-01T19:54:36Z</time>
  <course>237.58</course>
  <speed>0.12529964086141668</speed>
  <fix>3d</fix>
</trkpt>
<trkpt lat="-27.2743166" lon="151.2888191">
  <ele>344.45</ele>
  <time>2026-09-01T19:54:36Z</time>
  <course>226.02</course>
  <speed>0.15</speed>
  <fix>3d</fix>
</trkpt>
<trkpt lat="-27.2743165" lon="151.2888188">
  <ele>344.12</ele>
  <time>2026-09-01T19:54:36Z</time>
  <course>237.59</course>
  <speed>0.12529964086141668</speed>
  <fix>3d</fix>
</trkpt>
<trkpt lat="-27.2743166" lon="151.2888191">
  <ele>344.45</ele>
  <time>2026-09-01T19:54:36Z</time>
  <course>226.02</course>
  <speed>0.15</speed>
  <fix>3d</fix>
</trkpt>
<trkpt lat="-27.2743166" lon="151.2888187">
  <ele>344.07</ele>
  <time>2026-09-01T19:54:36Z</time>
  <course>237.59</course>
  <speed>0.12083045973594572</speed>
  <fix>3d</fix>
</trkpt>
<trkpt lat="-27.2743167" lon="151.2888189">
  <ele>344.34</ele>
  <time>2026-09-01T19:54:36Z</time>
  <course>228.7</course>
  <speed>0.15</speed>
  <fix>3d</fix>
</trkpt>
<trkpt lat="-27.2743166" lon="151.2888186">
  <ele>344.02</ele>
  <time>2026-09-01T19:54:36Z</time>
  <course>237.59</course>
  <speed>0.12083045973594572</speed>
  <fix>3d</fix>
</trkpt>
<trkpt lat="-27.2743167" lon="151.2888189">
  <ele>344.34</ele>
  <time>2026-09-01T19:54:36Z</time>
  <course>228.7</course>
  <speed>0.15</speed>
  <fix>3d</fix>
</trkpt>
<trkpt lat="-27.2743167" lon="151.2888185">
  <ele>343.97</ele>
  <time>2026-09-01T19:54:36Z</time>
  <course>237.59</course>
  <speed>0.12083045973594572</speed>
  <fix>3d</fix>
</trkpt>
<trkpt lat="-27.2743169" lon="151.2888186">
  <ele>344.25</ele>
  <time>2026-09-01T19:54:36Z</time>
  <course>231.59</course>
  <speed>0.15</speed>
  <fix>3d</fix>
</trkpt>
<trkpt lat="-27.2743168" lon="151.2888183">
  <ele>343.93</ele>
  <time>2026-09-01T19:54:36Z</time>
  <course>237.59</course>
  <speed>0.11704699910719625</speed>
  <fix>3d</fix>
</trkpt>
<trkpt lat="-27.2743169" lon="151.2888186">
  <ele>344.25</ele>
  <time>2026-09-01T19:54:36Z</time>
  <course>231.59</course>
  <speed>0.15</speed>
  <fix>3d</fix>
</trkpt>
<trkpt lat="-27.2743169" lon="151.2888182">
  <ele>343.88</ele>
  <time>2026-09-01T19:54:36Z</time>
  <course>237.59</course>
  <speed>0.11704699910719625</speed>
  <fix>3d</fix>
</trkpt>
<trkpt lat="-27.2743171" lon="151.2888184">
  <ele>344.15</ele>
  <time>2026-09-01T19:54:36Z</time>
  <course>234.73</course>
  <speed>0.15</speed>
  <fix>3d</fix>
</trkpt>
<trkpt lat="-27.2743169" lon="151.2888181">
  <ele>343.83</ele>
  <time>2026-09-01T19:54:36Z</time>
  <course>237.58</course>
  <speed>0.11401754250991379</speed>
  <fix>3d</fix>
</trkpt>
<trkpt lat="-27.2743171" lon="151.2888184">
  <ele>344.15</ele>
  <time>2026-09-01T19:54:36Z</time>
  <course>234.73</course>
  <speed>0.15</speed>
  <fix>3d</fix>
</trkpt>
<trkpt lat="-27.274317" lon="151.288818">
  <ele>343.78</ele>
  <time>2026-09-01T19:54:36Z</time>
  <course>237.57</course>
  <speed>0.11401754250991379</speed>
  <fix>3d</fix>
</trkpt>
<trkpt lat="-27.2743172" lon="151.2888181">
  <ele>344.06</ele>
  <time>2026-09-01T19:54:36Z</time>
  <course>237.95</course>
  <speed>0.14</speed>
  <fix>3d</fix>
</trkpt>
<trkpt lat="-27.274317" lon="151.2888179">
  <ele>343.73</ele>
  <time>2026-09-01T19:54:36Z</time>
  <course>237.56</course>
  <speed>0.1118033988749895</speed>
  <fix>3d</fix>
</trkpt>
<trkpt lat="-27.2743172" lon="151.2888181">
  <ele>344.06</ele>
  <time>2026-09-01T19:54:36Z</time>
  <course>237.95</course>
  <speed>0.14</speed>
  <fix>3d</fix>
</trkpt>
<trkpt lat="-27.2743171" lon="151.2888178">
  <ele>343.68</ele>
  <time>2026-09-01T19:54:36Z</time>
  <course>237.55</course>
  <speed>0.1019803902718557</speed>
  <fix>3d</fix>
</trkpt>
<trkpt lat="-27.2743173" lon="151.2888179">
  <ele>343.96</ele>
  <time>2026-09-01T19:54:36Z</time>
  <course>241.13</course>
  <speed>0.13</speed>
  <fix>3d</fix>
</trkpt>
<trkpt lat="-27.2743171" lon="151.2888176">
  <ele>343.63</ele>
  <time>2026-09-01T19:54:36Z</time>
  <course>237.54</course>
  <speed>0.1004987562112089</speed>
  <fix>3d</fix>
</trkpt>
<trkpt lat="-27.2743173" lon="151.2888179">
  <ele>343.96</ele>
  <time>2026-09-01T19:54:36Z</time>
  <course>241.13</course>
  <speed>0.13</speed>
  <fix>3d</fix>
</trkpt>
<trkpt lat="-27.2743172" lon="151.2888175">
  <ele>343.58</ele>
  <time>2026-09-01T19:54:36Z</time>
  <course>237.54</course>
  <speed>0.1</speed>
  <fix>3d</fix>
</trkpt>
<trkpt lat="-27.2743174" lon="151.2888176">
  <ele>343.86</ele>
  <time>2026-09-01T19:54:36Z</time>
  <course>244.53</course>
  <speed>0.12</speed>
  <fix>3d</fix>
</trkpt>
<trkpt lat="-27.2743172" lon="151.2888174">
  <ele>343.53</ele>
  <time>2026-09-01T19:54:36Z</time>
  <course>237.54</course>
  <speed>0.09</speed>
  <fix>3d</fix>
</trkpt>
<trkpt lat="-27.2743174" lon="151.2888176">
  <ele>343.86</ele>
  <time>2026-09-01T19:54:36Z</time>
  <course>244.53</course>
  <speed>0.12</speed>
  <fix>3d</fix>
</trkpt>
<trkpt lat="-27.2743172" lon="151.2888173">
  <ele>343.48</ele>
  <time>2026-09-01T19:54:36Z</time>
  <course>237.54</course>
  <speed>0.09</speed>
  <fix>3d</fix>
</trkpt>
<trkpt lat="-27.2743175" lon="151.2888174">
  <ele>343.76</ele>
  <time>2026-09-01T19:54:36Z</time>
  <course>248.36</course>
  <speed>0.11</speed>
  <fix>3d</fix>
</trkpt>
<trkpt lat="-27.2743173" lon="151.2888172">
  <ele>343.43</ele>
  <time>2026-09-01T19:54:36Z</time>
  <course>237.54</course>
  <speed>0.08</speed>
  <fix>3d</fix>
</trkpt>
<trkpt lat="-27.2743175" lon="151.2888174">
  <ele>343.76</ele>
  <time>2026-09-01T19:54:36Z</time>
  <course>248.36</course>
  <speed>0.11</speed>
  <fix>3d</fix>
</trkpt>
<trkpt lat="-27.2743173" lon="151.2888171">
  <ele>343.38</ele>
  <time>2026-09-01T19:54:36Z</time>
  <course>237.54</course>
  <speed>0.08062257748298549</speed>
  <fix>3d</fix>
</trkpt>
<trkpt lat="-27.2743176" lon="151.2888171">
  <ele>343.65</ele>
  <time>2026-09-01T19:54:36Z</time>
  <course>252.67</course>
  <speed>0.1</speed>
  <fix>3d</fix>
</trkpt>
<trkpt lat="-27.2743173" lon="151.288817">
  <ele>343.33</ele>
  <time>2026-09-01T19:54:36Z</time>
  <course>237.55</course>
  <speed>0.08062257748298549</speed>
  <fix>3d</fix>
</trkpt>
<trkpt lat="-27.2743176" lon="151.2888171">
  <ele>343.65</ele>
  <time>2026-09-01T19:54:36Z</time>
  <course>252.67</course>
  <speed>0.1</speed>
  <fix>3d</fix>
</trkpt>
<trkpt lat="-27.2743173" lon="151.2888169">
  <ele>343.28</ele>
  <time>2026-09-01T19:54:36Z</time>
  <course>237.55</course>
  <speed>0.07280109889280519</speed>
  <fix>3d</fix>
</trkpt>
<trkpt lat="-27.2743177" lon="151.288817">
  <ele>343.55</ele>
  <time>2026-09-01T19:54:36Z</time>
  <course>257.67</course>
  <speed>0.09</speed>
  <fix>3d</fix>
</trkpt>
<trkpt lat="-27.2743173" lon="151.2888169">
  <ele>343.24</ele>
  <time>2026-09-01T19:54:36Z</time>
  <course>237.57</course>
  <speed>0.07280109889280519</speed>
  <fix>3d</fix>
</trkpt>
<trkpt lat="-27.2743177" lon="151.288817">
  <ele>343.55</ele>
  <time>2026-09-01T19:54:36Z</time>
  <course>257.67</course>
  <speed>0.09</speed>
  <fix>3d</fix>
</trkpt>
<trkpt lat="-27.2743173" lon="151.2888168">
  <ele>343.19</ele>
  <time>2026-09-01T19:54:36Z</time>
  <course>237.57</course>
  <speed>0.0670820393249937</speed>
  <fix>3d</fix>
</trkpt>
<trkpt lat="-27.2743177" lon="151.2888168">
  <ele>343.45</ele>
  <time>2026-09-01T19:54:36Z</time>
  <course>263.51</course>
  <speed>0.08</speed>
  <fix>3d</fix>
</trkpt>
<trkpt lat="-27.2743173" lon="151.2888167">
  <ele>343.14</ele>
  <time>2026-09-01T19:54:36Z</time>
  <course>237.57</course>
  <speed>0.05830951894845301</speed>
  <fix>3d</fix>
</trkpt>
<trkpt lat="-27.2743177" lon="151.2888168">
  <ele>343.45</ele>
  <time>2026-09-01T19:54:36Z</time>
  <course>263.51</course>
  <speed>0.08</speed>
  <fix>3d</fix>
</trkpt>
<trkpt lat="-27.2743173" lon="151.2888166">
  <ele>343.09</ele>
  <time>2026-09-01T19:54:36Z</time>
  <course>237.57</course>
  <speed>0.06403124237432849</speed>
  <fix>3d</fix>
</trkpt>
<trkpt lat="-27.2743177" lon="151.2888166">
  <ele>343.34</ele>
  <time>2026-09-01T19:54:36Z</time>
  <course>270.34</course>
  <speed>0.07</speed>
  <fix>3d</fix>
</trkpt>
<trkpt lat="-27.2743174" lon="151.2888166">
  <ele>343.04</ele>
  <time>2026-09-01T19:54:36Z</time>
  <course>237.57</course>
  <speed>0.03605551275463989</speed>
  <fix>3d</fix>
</trkpt>
<trkpt lat="-27.2743177" lon="151.2888166">
  <ele>343.34</ele>
  <time>2026-09-01T19:54:36Z</time>
  <course>270.34</course>
  <speed>0.07</speed>
  <fix>3d</fix>
</trkpt>
<trkpt lat="-27.2743174" lon="151.2888166">
  <ele>343.04</ele>
  <time>2026-09-01T19:54:36Z</time>
  <course>237.57</course>
  <speed>0.022360679774997897</speed>
  <fix>3d</fix>
</trkpt>
<trkpt lat="-27.2743177" lon="151.2888165">
  <ele>343.25</ele>
  <time>2026-09-01T19:54:36Z</time>
  <course>275.49</course>
  <speed>0.04</speed>
  <fix>3d</fix>
</trkpt>
<trkpt lat="-27.2743174" lon="151.2888166">
  <ele>343.06</ele>
  <time>2026-09-01T19:54:36Z</time>
  <course>237.57</course>
  <speed>0.0282842712474619</speed>
  <fix>3d</fix>
</trkpt>
<trkpt lat="-27.2743177" lon="151.2888165">
  <ele>343.25</ele>
  <time>2026-09-01T19:54:36Z</time>
  <course>275.49</course>
  <speed>0.04</speed>
  <fix>3d</fix>
</trkpt>
<trkpt lat="-27.2743174" lon="151.2888166">
  <ele>343.07</ele>
  <time>2026-09-01T19:54:36Z</time>
  <course>237.57</course>
  <speed>0.022360679774997897</speed>
  <fix>3d</fix>
</trkpt>
<trkpt lat="-27.2743177" lon="151.2888165">
  <ele>343.2</ele>
  <time>2026-09-01T19:54:36Z</time>
  <course>269.82</course>
  <speed>0.0</speed>
  <fix>3d</fix>
</trkpt>
<trkpt lat="-27.2743174" lon="151.2888166">
  <ele>343.07</ele>
  <time>2026-09-01T19:54:36Z</time>
  <course>237.56</course>
  <speed>0.03</speed>
  <fix>3d</fix>
</trkpt>
<trkpt lat="-27.2743177" lon="151.2888165">
  <ele>343.2</ele>
  <time>2026-09-01T19:54:36Z</time>
  <course>269.82</course>
  <speed>0.0</speed>
  <fix>3d</fix>
</trkpt>
<trkpt lat="-27.2743174" lon="151.2888166">
  <ele>343.07</ele>
  <time>2026-09-01T19:54:36Z</time>
  <course>237.56</course>
  <speed>0.03</speed>
  <fix>3d</fix>
</trkpt>
<trkpt lat="-27.2743177" lon="151.2888165">
  <ele>343.22</ele>
  <time>2026-09-01T19:54:36Z</time>
  <course>103.73</course>
  <speed>0.0</speed>
  <fix>3d</fix>
</trkpt>
<trkpt lat="-27.2743174" lon="151.2888166">
  <ele>343.07</ele>
  <time>2026-09-01T19:54:36Z</time>
  <course>237.56</course>
  <speed>0.03</speed>
  <fix>3d</fix>
</trkpt>
<trkpt lat="-27.2743177" lon="151.2888165">
  <ele>343.22</ele>
  <time>2026-09-01T19:54:36Z</time>
  <course>103.73</course>
  <speed>0.0</speed>
  <fix>3d</fix>
</trkpt>
<trkpt lat="-27.2743174" lon="151.2888166">
  <ele>343.06</ele>
  <time>2026-09-01T19:54:36Z</time>
  <course>237.57</course>
  <speed>0.02</speed>
  <fix>3d</fix>
</trkpt>
<trkpt lat="-27.2743177" lon="151.2888165">
  <ele>343.22</ele>
  <time>2026-09-01T19:54:36Z</time>
  <course>322.51</course>
  <speed>0.0</speed>
  <fix>3d</fix>
</trkpt>
<trkpt lat="-27.2743174" lon="151.2888166">
  <ele>343.06</ele>
  <time>2026-09-01T19:54:36Z</time>
  <course>237.57</course>
  <speed>0.02</speed>
  <fix>3d</fix>
</trkpt>
<trkpt lat="-27.2743177" lon="151.2888165">
  <ele>343.22</ele>
  <time>2026-09-01T19:54:36Z</time>
  <course>322.51</course>
  <speed>0.0</speed>
  <fix>3d</fix>
</trkpt>
<trkpt lat="-27.2743174" lon="151.2888166">
  <ele>343.06</ele>
  <time>2026-09-01T19:54:36Z</time>
  <course>237.57</course>
  <speed>0.02</speed>
  <fix>3d</fix>
</trkpt>
<trkpt lat="-27.2743177" lon="151.2888165">
  <ele>343.22</ele>
  <time>2026-09-01T19:54:36Z</time>
  <course>280.14</course>
  <speed>0.0</speed>
  <fix>3d</fix>
</trkpt>
<trkpt lat="-27.2743174" lon="151.2888166">
  <ele>343.07</ele>
  <time>2026-09-01T19:54:36Z</time>
  <course>237.57</course>
  <speed>0.02</speed>
  <fix>3d</fix>
</trkpt>
<trkpt lat="-27.2743177" lon="151.2888165">
  <ele>343.22</ele>
  <time>2026-09-01T19:54:36Z</time>
  <course>280.14</course>
  <speed>0.0</speed>
  <fix>3d</fix>
</trkpt>
<trkpt lat="-27.2743174" lon="151.2888166">
  <ele>343.07</ele>
  <time>2026-09-01T19:54:36Z</time>
  <course>237.57</course>
  <speed>0.02</speed>
  <fix>3d</fix>
</trkpt>
<trkpt lat="-27.2743177" lon="151.2888165">
  <ele>343.22</ele>
  <time>2026-09-01T19:54:36Z</time>
  <course>128.2</course>
  <speed>0.0</speed>
  <fix>3d</fix>
</trkpt>
<trkpt lat="-27.2743174" lon="151.2888166">
  <ele>343.07</ele>
  <time>2026-09-01T19:54:36Z</time>
  <course>237.57</course>
  <speed>0.02</speed>
  <fix>3d</fix>
</trkpt>
<trkpt lat="-27.2743177" lon="151.2888165">
  <ele>343.22</ele>
  <time>2026-09-01T19:54:36Z</time>
  <course>128.2</course>
  <speed>0.0</speed>
  <fix>3d</fix>
</trkpt>
<trkpt lat="-27.2743174" lon="151.2888166">
  <ele>343.07</ele>
  <time>2026-09-01T19:54:36Z</time>
  <course>237.57</course>
  <speed>0.02</speed>
  <fix>3d</fix>
</trkpt>
<trkpt lat="-27.2743177" lon="151.2888165">
  <ele>343.22</ele>
  <time>2026-09-01T19:54:36Z</time>
  <course>121.72</course>
  <speed>0.0</speed>
  <fix>3d</fix>
</trkpt>
<trkpt lat="-27.2743174" lon="151.2888166">
  <ele>343.07</ele>
  <time>2026-09-01T19:54:36Z</time>
  <course>237.57</course>
  <speed>0.02</speed>
  <fix>3d</fix>
</trkpt>
<trkpt lat="-27.2743177" lon="151.2888165">
  <ele>343.22</ele>
  <time>2026-09-01T19:54:36Z</time>
  <course>121.72</course>
  <speed>0.0</speed>
  <fix>3d</fix>
</trkpt>
<trkpt lat="-27.2743174" lon="151.2888166">
  <ele>343.07</ele>
  <time>2026-09-01T19:54:36Z</time>
  <course>237.57</course>
  <speed>0.02</speed>
  <fix>3d</fix>
</trkpt>
<trkpt lat="-27.2743177" lon="151.2888165">
  <ele>343.22</ele>
  <time>2026-09-01T19:54:36Z</time>
  <course>274.37</course>
  <speed>0.0</speed>
  <fix>3d</fix>
</trkpt>
<trkpt lat="-27.2743174" lon="151.2888166">
  <ele>343.07</ele>
  <time>2026-09-01T19:54:36Z</time>
  <course>237.57</course>
  <speed>0.02</speed>
  <fix>3d</fix>
</trkpt>
<trkpt lat="-27.2743177" lon="151.2888165">
  <ele>343.22</ele>
  <time>2026-09-01T19:54:36Z</time>
  <course>274.37</course>
  <speed>0.0</speed>
  <fix>3d</fix>
</trkpt>
<trkpt lat="-27.2743174" lon="151.2888166">
  <ele>343.07</ele>
  <time>2026-09-01T19:54:36Z</time>
  <course>237.57</course>
  <speed>0.02</speed>
  <fix>3d</fix>
</trkpt>
<trkpt lat="-27.2743177" lon="151.2888165">
  <ele>343.22</ele>
  <time>2026-09-01T19:54:36Z</time>
  <course>270.08</course>
  <speed>0.0</speed>
  <fix>3d</fix>
</trkpt>
<trkpt lat="-27.2743174" lon="151.2888166">
  <ele>343.07</ele>
  <time>2026-09-01T19:54:36Z</time>
  <course>237.57</course>
  <speed>0.02</speed>
  <fix>3d</fix>
</trkpt>
<trkpt lat="-27.2743177" lon="151.2888165">
  <ele>343.22</ele>
  <time>2026-09-01T19:54:36Z</time>
  <course>270.08</course>
  <speed>0.0</speed>
  <fix>3d</fix>
</trkpt>
<trkpt lat="-27.2743174" lon="151.2888166">
  <ele>343.07</ele>
  <time>2026-09-01T19:54:36Z</time>
  <course>237.57</course>
  <speed>0.02</speed>
  <fix>3d</fix>
</trkpt>
<trkpt lat="-27.2743177" lon="151.2888165">
  <ele>343.22</ele>
  <time>2026-09-01T19:54:36Z</time>
  <course>230.32</course>
  <speed>0.0</speed>
  <fix>3d</fix>
</trkpt>
<trkpt lat="-27.2743174" lon="151.2888166">
  <ele>343.07</ele>
  <time>2026-09-01T19:54:36Z</time>
  <course>237.57</course>
  <speed>0.02</speed>
  <fix>3d</fix>
</trkpt>
<trkpt lat="-27.2743177" lon="151.2888165">
  <ele>343.22</ele>
  <time>2026-09-01T19:54:36Z</time>
  <course>230.32</course>
  <speed>0.0</speed>
  <fix>3d</fix>
</trkpt>
<trkpt lat="-27.2743174" lon="151.2888166">
  <ele>343.08</ele>
  <time>2026-09-01T19:54:36Z</time>
  <course>237.57</course>
  <speed>0.02</speed>
  <fix>3d</fix>
</trkpt>
<trkpt lat="-27.2743177" lon="151.2888165">
  <ele>343.22</ele>
  <time>2026-09-01T19:54:36Z</time>
  <course>237.32</course>
  <speed>0.0</speed>
  <fix>3d</fix>
</trkpt>
<trkpt lat="-27.2743174" lon="151.2888166">
  <ele>343.08</ele>
  <time>2026-09-01T19:54:36Z</time>
  <course>237.57</course>
  <speed>0.02</speed>
  <fix>3d</fix>
</trkpt>
<trkpt lat="-27.2743177" lon="151.2888165">
  <ele>343.22</ele>
  <time>2026-09-01T19:54:36Z</time>
  <course>237.32</course>
  <speed>0.0</speed>
  <fix>3d</fix>
</trkpt>
<trkpt lat="-27.2743174" lon="151.2888166">
  <ele>343.08</ele>
  <time>2026-09-01T19:54:36Z</time>
  <course>237.57</course>
  <speed>0.02</speed>
  <fix>3d</fix>
</trkpt>
<trkpt lat="-27.2743177" lon="151.2888165">
  <ele>343.22</ele>
  <time>2026-09-01T19:54:36Z</time>
  <course>243.62</course>
  <speed>0.0</speed>
  <fix>3d</fix>
</trkpt>
<trkpt lat="-27.2743174" lon="151.2888166">
  <ele>343.08</ele>
  <time>2026-09-01T19:54:36Z</time>
  <course>237.57</course>
  <speed>0.02</speed>
  <fix>3d</fix>
</trkpt>
<trkpt lat="-27.2743177" lon="151.2888165">
  <ele>343.22</ele>
  <time>2026-09-01T19:54:36Z</time>
  <course>243.62</course>
  <speed>0.0</speed>
  <fix>3d</fix>
</trkpt>
<trkpt lat="-27.2743174" lon="151.2888166">
  <ele>343.08</ele>
  <time>2026-09-01T19:54:36Z</time>
  <course>237.57</course>
  <speed>0.02</speed>
  <fix>3d</fix>
</trkpt>
<trkpt lat="-27.2743177" lon="151.2888165">
  <ele>343.22</ele>
  <time>2026-09-01T19:54:36Z</time>
  <course>249.23</course>
  <speed>0.0</speed>
  <fix>3d</fix>
</trkpt>
<trkpt lat="-27.2743174" lon="151.2888166">
  <ele>343.08</ele>
  <time>2026-09-01T19:54:36Z</time>
  <course>237.57</course>
  <speed>0.02</speed>
  <fix>3d</fix>
</trkpt>
<trkpt lat="-27.2743177" lon="151.2888165">
  <ele>343.22</ele>
  <time>2026-09-01T19:54:36Z</time>
  <course>249.23</course>
  <speed>0.0</speed>
  <fix>3d</fix>
</trkpt>
<trkpt lat="-27.2743174" lon="151.2888166">
  <ele>343.08</ele>
  <time>2026-09-01T19:54:36Z</time>
  <course>237.57</course>
  <speed>0.02</speed>
  <fix>3d</fix>
</trkpt>
<trkpt lat="-27.2743177" lon="151.2888165">
  <ele>343.22</ele>
  <time>2026-09-01T19:54:36Z</time>
  <course>227.21</course>
  <speed>0.0</speed>
  <fix>3d</fix>
</trkpt>
<trkpt lat="-27.2743174" lon="151.2888166">
  <ele>343.08</ele>
  <time>2026-09-01T19:54:36Z</time>
  <course>237.57</course>
  <speed>0.02</speed>
  <fix>3d</fix>
</trkpt>
<trkpt lat="-27.2743177" lon="151.2888165">
  <ele>343.22</ele>
  <time>2026-09-01T19:54:36Z</time>
  <course>227.21</course>
  <speed>0.0</speed>
  <fix>3d</fix>
</trkpt>
<trkpt lat="-27.2743174" lon="151.2888166">
  <ele>343.08</ele>
  <time>2026-09-01T19:54:36Z</time>
  <course>237.57</course>
  <speed>0.02</speed>
  <fix>3d</fix>
</trkpt>
<trkpt lat="-27.2743177" lon="151.2888165">
  <ele>343.22</ele>
  <time>2026-09-01T19:54:36Z</time>
  <course>229.55</course>
  <speed>0.0</speed>
  <fix>3d</fix>
</trkpt>
<trkpt lat="-27.2743174" lon="151.2888166">
  <ele>343.08</ele>
  <time>2026-09-01T19:54:36Z</time>
  <course>237.57</course>
  <speed>0.02</speed>
  <fix>3d</fix>
</trkpt>
<trkpt lat="-27.2743177" lon="151.2888165">
  <ele>343.22</ele>
  <time>2026-09-01T19:54:36Z</time>
  <course>229.55</course>
  <speed>0.0</speed>
  <fix>3d</fix>
</trkpt>
<trkpt lat="-27.2743174" lon="151.2888166">
  <ele>343.09</ele>
  <time>2026-09-01T19:54:36Z</time>
  <course>237.57</course>
  <speed>0.02</speed>
  <fix>3d</fix>
</trkpt>
<trkpt lat="-27.2743177" lon="151.2888165">
  <ele>343.22</ele>
  <time>2026-09-01T19:54:36Z</time>
  <course>241.63</course>
  <speed>0.0</speed>
  <fix>3d</fix>
</trkpt>
<trkpt lat="-27.2743174" lon="151.2888166">
  <ele>343.09</ele>
  <time>2026-09-01T19:54:36Z</time>
  <course>237.57</course>
  <speed>0.02</speed>
  <fix>3d</fix>
</trkpt>
<trkpt lat="-27.2743177" lon="151.2888165">
  <ele>343.22</ele>
  <time>2026-09-01T19:54:36Z</time>
  <course>241.63</course>
  <speed>0.0</speed>
  <fix>3d</fix>
</trkpt>
<trkpt lat="-27.2743174" lon="151.2888166">
  <ele>343.09</ele>
  <time>2026-09-01T19:54:36Z</time>
  <course>237.58</course>
  <speed>0.02</speed>
  <fix>3d</fix>
</trkpt>
<trkpt lat="-27.2743177" lon="151.2888165">
  <ele>343.22</ele>
  <time>2026-09-01T19:54:36Z</time>
  <course>224.55</course>
  <speed>0.0</speed>
  <fix>3d</fix>
</trkpt>
<trkpt lat="-27.2743174" lon="151.2888166">
  <ele>343.09</ele>
  <time>2026-09-01T19:54:36Z</time>
  <course>237.58</course>
  <speed>0.02</speed>
  <fix>3d</fix>
</trkpt>
<trkpt lat="-27.2743177" lon="151.2888165">
  <ele>343.22</ele>
  <time>2026-09-01T19:54:36Z</time>
  <course>224.55</course>
  <speed>0.0</speed>
  <fix>3d</fix>
</trkpt>
<trkpt lat="-27.2743174" lon="151.2888166">
  <ele>343.09</ele>
  <time>2026-09-01T19:54:36Z</time>
  <course>237.58</course>
  <speed>0.02</speed>
  <fix>3d</fix>
</trkpt>
<trkpt lat="-27.2743177" lon="151.2888165">
  <ele>343.22</ele>
  <time>2026-09-01T19:54:36Z</time>
  <course>212.69</course>
  <speed>0.0</speed>
  <fix>3d</fix>
</trkpt>
<trkpt lat="-27.2743174" lon="151.2888166">
  <ele>343.09</ele>
  <time>2026-09-01T19:54:36Z</time>
  <course>237.58</course>
  <speed>0.02</speed>
  <fix>3d</fix>
</trkpt>
<trkpt lat="-27.2743177" lon="151.2888165">
  <ele>343.22</ele>
  <time>2026-09-01T19:54:36Z</time>
  <course>212.69</course>
  <speed>0.0</speed>
  <fix>3d</fix>
</trkpt>
<trkpt lat="-27.2743174" lon="151.2888166">
  <ele>343.09</ele>
  <time>2026-09-01T19:54:36Z</time>
  <course>237.58</course>
  <speed>0.02</speed>
  <fix>3d</fix>
</trkpt>
<trkpt lat="-27.2743177" lon="151.2888165">
  <ele>343.22</ele>
  <time>2026-09-01T19:54:36Z</time>
  <course>235.46</course>
  <speed>0.0</speed>
  <fix>3d</fix>
</trkpt>
<trkpt lat="-27.2743174" lon="151.2888166">
  <ele>343.08</ele>
  <time>2026-09-01T19:54:36Z</time>
  <course>237.58</course>
  <speed>0.02</speed>
  <fix>3d</fix>
</trkpt>
<trkpt lat="-27.2743177" lon="151.2888165">
  <ele>343.22</ele>
  <time>2026-09-01T19:54:36Z</time>
  <course>235.46</course>
  <speed>0.0</speed>
  <fix>3d</fix>
</trkpt>
<trkpt lat="-27.2743174" lon="151.2888166">
  <ele>343.08</ele>
  <time>2026-09-01T19:54:36Z</time>
  <course>237.58</course>
  <speed>0.02</speed>
  <fix>3d</fix>
</trkpt>
<trkpt lat="-27.2743177" lon="151.2888165">
  <ele>343.22</ele>
  <time>2026-09-01T19:54:36Z</time>
  <course>225.31</course>
  <speed>0.0</speed>
  <fix>3d</fix>
</trkpt>
<trkpt lat="-27.2743174" lon="151.2888166">
  <ele>343.08</ele>
  <time>2026-09-01T19:54:36Z</time>
  <course>237.58</course>
  <speed>0.02</speed>
  <fix>3d</fix>
</trkpt>
<trkpt lat="-27.2743177" lon="151.2888165">
  <ele>343.22</ele>
  <time>2026-09-01T19:54:36Z</time>
  <course>225.31</course>
  <speed>0.0</speed>
  <fix>3d</fix>
</trkpt>
<trkpt lat="-27.2743174" lon="151.2888166">
  <ele>343.08</ele>
  <time>2026-09-01T19:54:36Z</time>
  <course>237.58</course>
  <speed>0.02</speed>
  <fix>3d</fix>
</trkpt>
<trkpt lat="-27.2743177" lon="151.2888165">
  <ele>343.22</ele>
  <time>2026-09-01T19:54:36Z</time>
  <course>225.5</course>
  <speed>0.0</speed>
  <fix>3d</fix>
</trkpt>
<trkpt lat="-27.2743174" lon="151.2888166">
  <ele>343.08</ele>
  <time>2026-09-01T19:54:36Z</time>
  <course>237.58</course>
  <speed>0.02</speed>
  <fix>3d</fix>
</trkpt>
<trkpt lat="-27.2743177" lon="151.2888165">
  <ele>343.22</ele>
  <time>2026-09-01T19:54:36Z</time>
  <course>225.5</course>
  <speed>0.0</speed>
  <fix>3d</fix>
</trkpt>
<trkpt lat="-27.2743174" lon="151.2888166">
  <ele>343.08</ele>
  <time>2026-09-01T19:54:36Z</time>
  <course>237.58</course>
  <speed>0.02</speed>
  <fix>3d</fix>
</trkpt>
<trkpt lat="-27.2743177" lon="151.2888165">
  <ele>343.22</ele>
  <time>2026-09-01T19:54:36Z</time>
  <course>225.84</course>
  <speed>0.0</speed>
  <fix>3d</fix>
</trkpt>
<trkpt lat="-27.2743174" lon="151.2888166">
  <ele>343.08</ele>
  <time>2026-09-01T19:54:36Z</time>
  <course>237.58</course>
  <speed>0.02</speed>
  <fix>3d</fix>
</trkpt>
<trkpt lat="-27.2743177" lon="151.2888165">
  <ele>343.22</ele>
  <time>2026-09-01T19:54:36Z</time>
  <course>225.84</course>
  <speed>0.0</speed>
  <fix>3d</fix>
</trkpt>
<trkpt lat="-27.2743174" lon="151.2888166">
  <ele>343.08</ele>
  <time>2026-09-01T19:54:36Z</time>
  <course>237.58</course>
  <speed>0.02</speed>
  <fix>3d</fix>
</trkpt>
<trkpt lat="-27.2743177" lon="151.2888165">
  <ele>343.22</ele>
  <time>2026-09-01T19:54:36Z</time>
  <course>239.74</course>
  <speed>0.0</speed>
  <fix>3d</fix>
</trkpt>
<trkpt lat="-27.2743174" lon="151.2888166">
  <ele>343.09</ele>
  <time>2026-09-01T19:54:36Z</time>
  <course>237.58</course>
  <speed>0.02</speed>
  <fix>3d</fix>
</trkpt>
<trkpt lat="-27.2743177" lon="151.2888165">
  <ele>343.22</ele>
  <time>2026-09-01T19:54:36Z</time>
  <course>239.74</course>
  <speed>0.0</speed>
  <fix>3d</fix>
</trkpt>
<trkpt lat="-27.2743174" lon="151.2888166">
  <ele>343.09</ele>
  <time>2026-09-01T19:54:36Z</time>
  <course>237.58</course>
  <speed>0.02</speed>
  <fix>3d</fix>
</trkpt>
<trkpt lat="-27.2743177" lon="151.2888165">
  <ele>343.22</ele>
  <time>2026-09-01T19:54:36Z</time>
  <course>264.14</course>
  <speed>0.0</speed>
  <fix>3d</fix>
</trkpt>
<trkpt lat="-27.2743174" lon="151.2888166">
  <ele>343.09</ele>
  <time>2026-09-01T19:54:36Z</time>
  <course>237.58</course>
  <speed>0.02</speed>
  <fix>3d</fix>
</trkpt>
<trkpt lat="-27.2743177" lon="151.2888165">
  <ele>343.22</ele>
  <time>2026-09-01T19:54:36Z</time>
  <course>264.14</course>
  <speed>0.0</speed>
  <fix>3d</fix>
</trkpt>
<trkpt lat="-27.2743174" lon="151.2888166">
  <ele>343.09</ele>
  <time>2026-09-01T19:54:36Z</time>
  <course>237.58</course>
  <speed>0.02</speed>
  <fix>3d</fix>
</trkpt>
<trkpt lat="-27.2743177" lon="151.2888165">
  <ele>343.22</ele>
  <time>2026-09-01T19:54:36Z</time>
  <course>246.68</course>
  <speed>0.0</speed>
  <fix>3d</fix>
</trkpt>
<trkpt lat="-27.2743174" lon="151.2888166">
  <ele>343.08</ele>
  <time>2026-09-01T19:54:36Z</time>
  <course>237.58</course>
  <speed>0.02</speed>
  <fix>3d</fix>
</trkpt>
<trkpt lat="-27.2743177" lon="151.2888165">
  <ele>343.22</ele>
  <time>2026-09-01T19:54:36Z</time>
  <course>246.68</course>
  <speed>0.0</speed>
  <fix>3d</fix>
</trkpt>
<trkpt lat="-27.2743174" lon="151.2888166">
  <ele>343.09</ele>
  <time>2026-09-01T19:54:36Z</time>
  <course>237.58</course>
  <speed>0.02</speed>
  <fix>3d</fix>
</trkpt>
<trkpt lat="-27.2743177" lon="151.2888165">
  <ele>343.22</ele>
  <time>2026-09-01T19:54:36Z</time>
  <course>247.69</course>
  <speed>0.0</speed>
  <fix>3d</fix>
</trkpt>
<trkpt lat="-27.2743174" lon="151.2888166">
  <ele>343.09</ele>
  <time>2026-09-01T19:54:36Z</time>
  <course>237.58</course>
  <speed>0.02</speed>
  <fix>3d</fix>
</trkpt>
<trkpt lat="-27.2743177" lon="151.2888165">
  <ele>343.22</ele>
  <time>2026-09-01T19:54:36Z</time>
  <course>247.69</course>
  <speed>0.0</speed>
  <fix>3d</fix>
</trkpt>
<trkpt lat="-27.2743174" lon="151.2888166">
  <ele>343.09</ele>
  <time>2026-09-01T19:54:36Z</time>
  <course>237.58</course>
  <speed>0.02</speed>
  <fix>3d</fix>
</trkpt>
<trkpt lat="-27.2743177" lon="151.2888165">
  <ele>343.22</ele>
  <time>2026-09-01T19:54:36Z</time>
  <course>241.21</course>
  <speed>0.0</speed>
  <fix>3d</fix>
</trkpt>
<trkpt lat="-27.2743174" lon="151.2888166">
  <ele>343.09</ele>
  <time>2026-09-01T19:54:36Z</time>
  <course>237.58</course>
  <speed>0.02</speed>
  <fix>3d</fix>
</trkpt>
<trkpt lat="-27.2743177" lon="151.2888165">
  <ele>343.22</ele>
  <time>2026-09-01T19:54:36Z</time>
  <course>241.21</course>
  <speed>0.0</speed>
  <fix>3d</fix>
</trkpt>
<trkpt lat="-27.2743174" lon="151.2888166">
  <ele>343.09</ele>
  <time>2026-09-01T19:54:36Z</time>
  <course>237.58</course>
  <speed>0.02</speed>
  <fix>3d</fix>
</trkpt>
<trkpt lat="-27.2743177" lon="151.2888165">
  <ele>343.22</ele>
  <time>2026-09-01T19:54:36Z</time>
  <course>202.89</course>
  <speed>0.0</speed>
  <fix>3d</fix>
</trkpt>
<trkpt lat="-27.2743174" lon="151.2888166">
  <ele>343.09</ele>
  <time>2026-09-01T19:54:36Z</time>
  <course>237.58</course>
  <speed>0.02</speed>
  <fix>3d</fix>
</trkpt>
<trkpt lat="-27.2743177" lon="151.2888165">
  <ele>343.22</ele>
  <time>2026-09-01T19:54:36Z</time>
  <course>202.89</course>
  <speed>0.0</speed>
  <fix>3d</fix>
</trkpt>
<trkpt lat="-27.2743174" lon="151.2888166">
  <ele>343.09</ele>
  <time>2026-09-01T19:54:36Z</time>
  <course>237.58</course>
  <speed>0.02</speed>
  <fix>3d</fix>
</trkpt>
<trkpt lat="-27.2743177" lon="151.2888165">
  <ele>343.22</ele>
  <time>2026-09-01T19:54:36Z</time>
  <course>209.8</course>
  <speed>0.0</speed>
  <fix>3d</fix>
</trkpt>
<trkpt lat="-27.2743174" lon="151.2888166">
  <ele>343.09</ele>
  <time>2026-09-01T19:54:36Z</time>
  <course>237.58</course>
  <speed>0.02</speed>
  <fix>3d</fix>
</trkpt>
<trkpt lat="-27.2743177" lon="151.2888165">
  <ele>343.22</ele>
  <time>2026-09-01T19:54:36Z</time>
  <course>209.8</course>
  <speed>0.0</speed>
  <fix>3d</fix>
</trkpt>
<trkpt lat="-27.2743174" lon="151.2888166">
  <ele>343.09</ele>
  <time>2026-09-01T19:54:36Z</time>
  <course>237.58</course>
  <speed>0.02</speed>
  <fix>3d</fix>
</trkpt>
<trkpt lat="-27.2743177" lon="151.2888165">
  <ele>343.22</ele>
  <time>2026-09-01T19:54:36Z</time>
  <course>245.89</course>
  <speed>0.0</speed>
  <fix>3d</fix>
</trkpt>
<trkpt lat="-27.2743174" lon="151.2888166">
  <ele>343.09</ele>
  <time>2026-09-01T19:54:36Z</time>
  <course>237.58</course>
  <speed>0.02</speed>
  <fix>3d</fix>
</trkpt>
<trkpt lat="-27.2743177" lon="151.2888165">
  <ele>343.22</ele>
  <time>2026-09-01T19:54:36Z</time>
  <course>245.89</course>
  <speed>0.0</speed>
  <fix>3d</fix>
</trkpt>
<trkpt lat="-27.2743174" lon="151.2888166">
  <ele>343.09</ele>
  <time>2026-09-01T19:54:36Z</time>
  <course>237.58</course>
  <speed>0.02</speed>
  <fix>3d</fix>
</trkpt>
<trkpt lat="-27.2743177" lon="151.2888165">
  <ele>343.22</ele>
  <time>2026-09-01T19:54:36Z</time>
  <course>240.86</course>
  <speed>0.0</speed>
  <fix>3d</fix>
</trkpt>
<trkpt lat="-27.2743174" lon="151.2888166">
  <ele>343.09</ele>
  <time>2026-09-01T19:54:36Z</time>
  <course>237.58</course>
  <speed>0.03</speed>
  <fix>3d</fix>
</trkpt>
<trkpt lat="-27.2743177" lon="151.2888165">
  <ele>343.22</ele>
  <time>2026-09-01T19:54:36Z</time>
  <course>240.86</course>
  <speed>0.0</speed>
  <fix>3d</fix>
</trkpt>
<trkpt lat="-27.2743174" lon="151.2888166">
  <ele>343.1</ele>
  <time>2026-09-01T19:54:36Z</time>
  <course>237.58</course>
  <speed>0.02</speed>
  <fix>3d</fix>
</trkpt>
<trkpt lat="-27.2743177" lon="151.2888165">
  <ele>343.22</ele>
  <time>2026-09-01T19:54:36Z</time>
  <course>56.82</course>
  <speed>0.0</speed>
  <fix>3d</fix>
</trkpt>
<trkpt lat="-27.2743174" lon="151.2888166">
  <ele>343.1</ele>
  <time>2026-09-01T19:54:36Z</time>
  <course>237.58</course>
  <speed>0.02</speed>
  <fix>3d</fix>
</trkpt>
<trkpt lat="-27.2743177" lon="151.2888165">
  <ele>343.22</ele>
  <time>2026-09-01T19:54:36Z</time>
  <course>56.82</course>
  <speed>0.0</speed>
  <fix>3d</fix>
</trkpt>
<trkpt lat="-27.2743174" lon="151.2888166">
  <ele>343.1</ele>
  <time>2026-09-01T19:54:36Z</time>
  <course>237.58</course>
  <speed>0.02</speed>
  <fix>3d</fix>
</trkpt>
<trkpt lat="-27.2743177" lon="151.2888165">
  <ele>343.22</ele>
  <time>2026-09-01T19:54:36Z</time>
  <course>56.99</course>
  <speed>0.0</speed>
  <fix>3d</fix>
</trkpt>
<trkpt lat="-27.2743174" lon="151.2888166">
  <ele>343.1</ele>
  <time>2026-09-01T19:54:36Z</time>
  <course>237.58</course>
  <speed>0.02</speed>
  <fix>3d</fix>
</trkpt>
<trkpt lat="-27.2743177" lon="151.2888165">
  <ele>343.22</ele>
  <time>2026-09-01T19:54:36Z</time>
  <course>56.99</course>
  <speed>0.0</speed>
  <fix>3d</fix>
</trkpt>
<trkpt lat="-27.2743174" lon="151.2888166">
  <ele>343.22</ele>
  <time>2026-09-01T19:54:36Z</time>
  <course>237.58</course>
  <speed>0.02</speed>
  <fix>3d</fix>
</trkpt>
<trkpt lat="-27.2743177" lon="151.2888165">
  <ele>343.22</ele>
  <time>2026-09-01T19:54:36Z</time>
  <course>54.79</course>
  <speed>0.0</speed>
  <fix>3d</fix>
</trkpt>
<trkpt lat="-27.2743174" lon="151.2888166">
  <ele>343.22</ele>
  <time>2026-09-01T19:54:36Z</time>
  <course>237.57</course>
  <speed>0.02</speed>
  <fix>3d</fix>
</trkpt>
<trkpt lat="-27.2743177" lon="151.2888165">
  <ele>343.22</ele>
  <time>2026-09-01T19:54:36Z</time>
  <course>54.79</course>
  <speed>0.0</speed>
  <fix>3d</fix>
</trkpt>
<trkpt lat="-27.2743174" lon="151.2888166">
  <ele>343.22</ele>
  <time>2026-09-01T19:54:36Z</time>
  <course>237.57</course>
  <speed>0.02</speed>
  <fix>3d</fix>
</trkpt>
<trkpt lat="-27.2743177" lon="151.2888165">
  <ele>343.22</ele>
  <time>2026-09-01T19:54:36Z</time>
  <course>236.98</course>
  <speed>0.0</speed>
  <fix>3d</fix>
</trkpt>
<trkpt lat="-27.2743174" lon="151.2888166">
  <ele>343.22</ele>
  <time>2026-09-01T19:54:36Z</time>
  <course>237.57</course>
  <speed>0.02</speed>
  <fix>3d</fix>
</trkpt>
<trkpt lat="-27.2743177" lon="151.2888165">
  <ele>343.22</ele>
  <time>2026-09-01T19:54:36Z</time>
  <course>236.98</course>
  <speed>0.0</speed>
  <fix>3d</fix>
</trkpt>
<trkpt lat="-27.2743174" lon="151.2888166">
  <ele>343.21</ele>
  <time>2026-09-01T19:54:36Z</time>
  <course>237.57</course>
  <speed>0.02</speed>
  <fix>3d</fix>
</trkpt>
<trkpt lat="-27.2743177" lon="151.2888165">
  <ele>343.22</ele>
  <time>2026-09-01T19:54:36Z</time>
  <course>57.07</course>
  <speed>0.0</speed>
  <fix>3d</fix>
</trkpt>
<trkpt lat="-27.2743174" lon="151.2888166">
  <ele>343.21</ele>
  <time>2026-09-01T19:54:36Z</time>
  <course>237.57</course>
  <speed>0.02</speed>
  <fix>3d</fix>
</trkpt>
<trkpt lat="-27.2743177" lon="151.2888165">
  <ele>343.22</ele>
  <time>2026-09-01T19:54:36Z</time>
  <course>57.07</course>
  <speed>0.0</speed>
  <fix>3d</fix>
</trkpt>
<trkpt lat="-27.2743174" lon="151.2888166">
  <ele>343.21</ele>
  <time>2026-09-01T19:54:36Z</time>
  <course>237.57</course>
  <speed>0.02</speed>
  <fix>3d</fix>
</trkpt>
<trkpt lat="-27.2743177" lon="151.2888165">
  <ele>343.22</ele>
  <time>2026-09-01T19:54:36Z</time>
  <course>56.97</course>
  <speed>0.0</speed>
  <fix>3d</fix>
</trkpt>
<trkpt lat="-27.2743174" lon="151.2888166">
  <ele>343.2</ele>
  <time>2026-09-01T19:54:36Z</time>
  <course>237.57</course>
  <speed>0.02</speed>
  <fix>3d</fix>
</trkpt>
<trkpt lat="-27.2743177" lon="151.2888165">
  <ele>343.22</ele>
  <time>2026-09-01T19:54:36Z</time>
  <course>56.97</course>
  <speed>0.0</speed>
  <fix>3d</fix>
</trkpt>
<trkpt lat="-27.2743174" lon="151.2888166">
  <ele>343.2</ele>
  <time>2026-09-01T19:54:36Z</time>
  <course>237.57</course>
  <speed>0.02</speed>
  <fix>3d</fix>
</trkpt>
<trkpt lat="-27.2743177" lon="151.2888165">
  <ele>343.22</ele>
  <time>2026-09-01T19:54:36Z</time>
  <course>237.02</course>
  <speed>0.0</speed>
  <fix>3d</fix>
</trkpt>
<trkpt lat="-27.2743174" lon="151.2888166">
  <ele>343.2</ele>
  <time>2026-09-01T19:54:36Z</time>
  <course>237.57</course>
  <speed>0.02</speed>
  <fix>3d</fix>
</trkpt>
<trkpt lat="-27.2743177" lon="151.2888165">
  <ele>343.22</ele>
  <time>2026-09-01T19:54:36Z</time>
  <course>237.02</course>
  <speed>0.0</speed>
  <fix>3d</fix>
</trkpt>
<trkpt lat="-27.2743174" lon="151.2888166">
  <ele>343.19</ele>
  <time>2026-09-01T19:54:36Z</time>
  <course>237.56</course>
  <speed>0.02</speed>
  <fix>3d</fix>
</trkpt>
<trkpt lat="-27.2743177" lon="151.2888165">
  <ele>343.22</ele>
  <time>2026-09-01T19:54:36Z</time>
  <course>236.96</course>
  <speed>0.0</speed>
  <fix>3d</fix>
</trkpt>
<trkpt lat="-27.2743174" lon="151.2888166">
  <ele>343.18</ele>
  <time>2026-09-01T19:54:36Z</time>
  <course>237.56</course>
  <speed>0.02</speed>
  <fix>3d</fix>
</trkpt>
<trkpt lat="-27.2743177" lon="151.2888165">
  <ele>343.22</ele>
  <time>2026-09-01T19:54:36Z</time>
  <course>236.96</course>
  <speed>0.0</speed>
  <fix>3d</fix>
</trkpt>
<trkpt lat="-27.2743174" lon="151.2888166">
  <ele>343.17</ele>
  <time>2026-09-01T19:54:36Z</time>
  <course>237.56</course>
  <speed>0.02</speed>
  <fix>3d</fix>
</trkpt>
<trkpt lat="-27.2743177" lon="151.2888165">
  <ele>343.22</ele>
  <time>2026-09-01T19:54:36Z</time>
  <course>57.01</course>
  <speed>0.0</speed>
  <fix>3d</fix>
</trkpt>
<trkpt lat="-27.2743174" lon="151.2888166">
  <ele>343.17</ele>
  <time>2026-09-01T19:54:36Z</time>
  <course>237.56</course>
  <speed>0.02</speed>
  <fix>3d</fix>
</trkpt>
<trkpt lat="-27.2743177" lon="151.2888165">
  <ele>343.22</ele>
  <time>2026-09-01T19:54:36Z</time>
  <course>57.01</course>
  <speed>0.0</speed>
  <fix>3d</fix>
</trkpt>
<trkpt lat="-27.2743174" lon="151.2888166">
  <ele>343.17</ele>
  <time>2026-09-01T19:54:36Z</time>
  <course>237.56</course>
  <speed>0.02</speed>
  <fix>3d</fix>
</trkpt>
<trkpt lat="-27.2743177" lon="151.2888165">
  <ele>343.22</ele>
  <time>2026-09-01T19:54:36Z</time>
  <course>56.92</course>
  <speed>0.0</speed>
  <fix>3d</fix>
</trkpt>
<trkpt lat="-27.2743174" lon="151.2888166">
  <ele>343.16</ele>
  <time>2026-09-01T19:54:36Z</time>
  <course>237.56</course>
  <speed>0.02</speed>
  <fix>3d</fix>
</trkpt>
<trkpt lat="-27.2743177" lon="151.2888165">
  <ele>343.22</ele>
  <time>2026-09-01T19:54:36Z</time>
  <course>56.92</course>
  <speed>0.0</speed>
  <fix>3d</fix>
</trkpt>
<trkpt lat="-27.2743174" lon="151.2888166">
  <ele>343.15</ele>
  <time>2026-09-01T19:54:36Z</time>
  <course>237.56</course>
  <speed>0.02</speed>
  <fix>3d</fix>
</trkpt>
<trkpt lat="-27.2743177" lon="151.2888165">
  <ele>343.22</ele>
  <time>2026-09-01T19:54:36Z</time>
  <course>236.99</course>
  <speed>0.0</speed>
  <fix>3d</fix>
</trkpt>
<trkpt lat="-27.2743174" lon="151.2888166">
  <ele>343.15</ele>
  <time>2026-09-01T19:54:36Z</time>
  <course>237.56</course>
  <speed>0.02</speed>
  <fix>3d</fix>
</trkpt>
<trkpt lat="-27.2743177" lon="151.2888165">
  <ele>343.22</ele>
  <time>2026-09-01T19:54:36Z</time>
  <course>236.99</course>
  <speed>0.0</speed>
  <fix>3d</fix>
</trkpt>
<trkpt lat="-27.2743174" lon="151.2888166">
  <ele>343.14</ele>
  <time>2026-09-01T19:54:36Z</time>
  <course>237.55</course>
  <speed>0.02</speed>
  <fix>3d</fix>
</trkpt>
<trkpt lat="-27.2743177" lon="151.2888165">
  <ele>343.22</ele>
  <time>2026-09-01T19:54:36Z</time>
  <course>236.72</course>
  <speed>0.0</speed>
  <fix>3d</fix>
</trkpt>
<trkpt lat="-27.2743174" lon="151.2888166">
  <ele>343.14</ele>
  <time>2026-09-01T19:54:36Z</time>
  <course>237.55</course>
  <speed>0.02</speed>
  <fix>3d</fix>
</trkpt>
<trkpt lat="-27.2743177" lon="151.2888165">
  <ele>343.22</ele>
  <time>2026-09-01T19:54:36Z</time>
  <course>236.72</course>
  <speed>0.0</speed>
  <fix>3d</fix>
</trkpt>
<trkpt lat="-27.2743174" lon="151.2888166">
  <ele>343.13</ele>
  <time>2026-09-01T19:54:36Z</time>
  <course>237.55</course>
  <speed>0.02</speed>
  <fix>3d</fix>
</trkpt>
<trkpt lat="-27.2743177" lon="151.2888165">
  <ele>343.22</ele>
  <time>2026-09-01T19:54:36Z</time>
  <course>56.98</course>
  <speed>0.0</speed>
  <fix>3d</fix>
</trkpt>
<trkpt lat="-27.2743174" lon="151.2888166">
  <ele>343.12</ele>
  <time>2026-09-01T19:54:36Z</time>
  <course>237.55</course>
  <speed>0.02</speed>
  <fix>3d</fix>
</trkpt>
<trkpt lat="-27.2743177" lon="151.2888165">
  <ele>343.22</ele>
  <time>2026-09-01T19:54:36Z</time>
  <course>56.98</course>
  <speed>0.0</speed>
  <fix>3d</fix>
</trkpt>
<trkpt lat="-27.2743174" lon="151.2888166">
  <ele>343.12</ele>
  <time>2026-09-01T19:54:36Z</time>
  <course>237.55</course>
  <speed>0.02</speed>
  <fix>3d</fix>
</trkpt>
<trkpt lat="-27.2743177" lon="151.2888165">
  <ele>343.22</ele>
  <time>2026-09-01T19:54:36Z</time>
  <course>237.12</course>
  <speed>0.0</speed>
  <fix>3d</fix>
</trkpt>
<trkpt lat="-26.9720619" lon="149.6127921">
  <ele>339.29</ele>
  <time>2026-09-01T19:54:37Z</time>
  <course>11.82</course>
  <speed>0.0</speed>
  <fix>3d</fix>
</trkpt>
<trkpt lat="-26.9720619" lon="149.6127921">
  <ele>339.29</ele>
  <time>2026-09-01T19:54:37Z</time>
  <course>11.82</course>
  <speed>0.0</speed>
  <fix>3d</fix>
</trkpt>
<trkpt lat="-27.274439" lon="151.290064">
  <ele>-0.01</ele>
  <time>2026-09-01T19:54:37Z</time>
  <course>0.18</course>
  <speed>0.0</speed>
  <fix>3d</fix>
</trkpt>
<trkpt lat="-27.274439" lon="151.290064">
  <ele>343.1</ele>
  <time>2026-09-01T19:54:37Z</time>
  <course>5.38</course>
  <speed>0.0</speed>
  <fix>3d</fix>
</trkpt>
<trkpt lat="-27.274439" lon="151.290064">
  <ele>0.02</ele>
  <time>2026-09-01T19:54:37Z</time>
  <course>1.17</course>
  <speed>0.0</speed>
  <fix>3d</fix>
</trkpt>
<trkpt lat="-27.274439" lon="151.290064">
  <ele>343.1</ele>
  <time>2026-09-01T19:54:37Z</time>
  <course>5.38</course>
  <speed>0.0</speed>
  <fix>3d</fix>
</trkpt>
<trkpt lat="-27.274439" lon="151.290064">
  <ele>-0.08</ele>
  <time>2026-09-01T19:54:37Z</time>
  <course>2.05</course>
  <speed>0.0</speed>
  <fix>3d</fix>
</trkpt>
<trkpt lat="-27.274439" lon="151.290064">
  <ele>343.1</ele>
  <time>2026-09-01T19:54:37Z</time>
  <course>3.82</course>
  <speed>0.0</speed>
  <fix>3d</fix>
</trkpt>
<trkpt lat="-27.274439" lon="151.290064">
  <ele>0.22</ele>
  <time>2026-09-01T19:54:37Z</time>
  <course>2.86</course>
  <speed>0.0</speed>
  <fix>3d</fix>
</trkpt>
<trkpt lat="-27.274439" lon="151.290064">
  <ele>343.1</ele>
  <time>2026-09-01T19:54:37Z</time>
  <course>3.82</course>
  <speed>0.0</speed>
  <fix>3d</fix>
</trkpt>
<trkpt lat="-27.274439" lon="151.290064">
  <ele>0.09</ele>
  <time>2026-09-01T19:54:37Z</time>
  <course>3.59</course>
  <speed>0.0</speed>
  <fix>3d</fix>
</trkpt>
<trkpt lat="-27.274439" lon="151.290064">
  <ele>343.1</ele>
  <time>2026-09-01T19:54:37Z</time>
  <course>338.03</course>
  <speed>0.0</speed>
  <fix>3d</fix>
</trkpt>
<trkpt lat="-27.274439" lon="151.290064">
  <ele>0.08</ele>
  <time>2026-09-01T19:54:37Z</time>
  <course>4.24</course>
  <speed>0.0</speed>
  <fix>3d</fix>
</trkpt>
<trkpt lat="-27.274439" lon="151.290064">
  <ele>343.1</ele>
  <time>2026-09-01T19:54:37Z</time>
  <course>338.03</course>
  <speed>0.0</speed>
  <fix>3d</fix>
</trkpt>
<trkpt lat="-27.274439" lon="151.290064">
  <ele>0.09</ele>
  <time>2026-09-01T19:54:37Z</time>
  <course>4.84</course>
  <speed>0.0</speed>
  <fix>3d</fix>
</trkpt>
<trkpt lat="-27.274439" lon="151.290064">
  <ele>343.1</ele>
  <time>2026-09-01T19:54:37Z</time>
  <course>351.18</course>
  <speed>0.0</speed>
  <fix>3d</fix>
</trkpt>
<trkpt lat="-27.274439" lon="151.290064">
  <ele>-0.05</ele>
  <time>2026-09-01T19:54:37Z</time>
  <course>5.39</course>
  <speed>0.0</speed>
  <fix>3d</fix>
</trkpt>
<trkpt lat="-27.274439" lon="151.290064">
  <ele>343.1</ele>
  <time>2026-09-01T19:54:37Z</time>
  <course>351.18</course>
  <speed>0.0</speed>
  <fix>3d</fix>
</trkpt>
<trkpt lat="-27.274439" lon="151.290064">
  <ele>343.06</ele>
  <time>2026-09-01T19:54:37Z</time>
  <course>5.86</course>
  <speed>0.0</speed>
  <fix>3d</fix>
</trkpt>
<trkpt lat="-27.274439" lon="151.290064">
  <ele>343.1</ele>
  <time>2026-09-01T19:54:37Z</time>
  <course>6.68</course>
  <speed>0.0</speed>
  <fix>3d</fix>
</trkpt>
<trkpt lat="-27.274439" lon="151.290064">
  <ele>343.18</ele>
  <time>2026-09-01T19:54:37Z</time>
  <course>6.32</course>
  <speed>0.0</speed>
  <fix>3d</fix>
</trkpt>
<trkpt lat="-27.274439" lon="151.290064">
  <ele>343.1</ele>
  <time>2026-09-01T19:54:37Z</time>
  <course>5.33</course>
  <speed>0.0</speed>
  <fix>3d</fix>
</trkpt>
<trkpt lat="-27.274439" lon="151.290064">
  <ele>342.91</ele>
  <time>2026-09-01T19:54:37Z</time>
  <course>6.74</course>
  <speed>0.0</speed>
  <fix>3d</fix>
</trkpt>
<trkpt lat="-27.274439" lon="151.290064">
  <ele>343.1</ele>
  <time>2026-09-01T19:54:37Z</time>
  <course>5.33</course>
  <speed>0.0</speed>
  <fix>3d</fix>
</trkpt>
<trkpt lat="-27.274439" lon="151.290064">
  <ele>343.06</ele>
  <time>2026-09-01T19:54:37Z</time>
  <course>7.11</course>
  <speed>0.0</speed>
  <fix>3d</fix>
</trkpt>
<trkpt lat="-27.274439" lon="151.290064">
  <ele>343.1</ele>
  <time>2026-09-01T19:54:37Z</time>
  <course>5.33</course>
  <speed>0.0</speed>
  <fix>3d</fix>
</trkpt>
<trkpt lat="-27.274439" lon="151.290064">
  <ele>343.13</ele>
  <time>2026-09-01T19:54:37Z</time>
  <course>7.46</course>
  <speed>0.0</speed>
  <fix>3d</fix>
</trkpt>
<trkpt lat="-27.274439" lon="151.290064">
  <ele>343.1</ele>
  <time>2026-09-01T19:54:37Z</time>
  <course>2.27</course>
  <speed>0.0</speed>
  <fix>3d</fix>
</trkpt>
<trkpt lat="-27.274439" lon="151.290064">
  <ele>343.04</ele>
  <time>2026-09-01T19:54:37Z</time>
  <course>7.77</course>
  <speed>0.0</speed>
  <fix>3d</fix>
</trkpt>
<trkpt lat="-27.274439" lon="151.290064">
  <ele>343.1</ele>
  <time>2026-09-01T19:54:37Z</time>
  <course>2.27</course>
  <speed>0.0</speed>
  <fix>3d</fix>
</trkpt>
<trkpt lat="-27.274439" lon="151.290064">
  <ele>342.88</ele>
  <time>2026-09-01T19:54:37Z</time>
  <course>8.05</course>
  <speed>0.0</speed>
  <fix>3d</fix>
</trkpt>
<trkpt lat="-27.274439" lon="151.290064">
  <ele>343.1</ele>
  <time>2026-09-01T19:54:37Z</time>
  <course>25.7</course>
  <speed>0.0</speed>
  <fix>3d</fix>
</trkpt>
<trkpt lat="-27.274439" lon="151.290064">
  <ele>343.02</ele>
  <time>2026-09-01T19:54:37Z</time>
  <course>8.31</course>
  <speed>0.0</speed>
  <fix>3d</fix>
</trkpt>
<trkpt lat="-27.274439" lon="151.290064">
  <ele>343.1</ele>
  <time>2026-09-01T19:54:37Z</time>
  <course>25.7</course>
  <speed>0.0</speed>
  <fix>3d</fix>
</trkpt>
<trkpt lat="-27.274439" lon="151.290064">
  <ele>343.23</ele>
  <time>2026-09-01T19:54:37Z</time>
  <course>8.55</course>
  <speed>0.0</speed>
  <fix>3d</fix>
</trkpt>
<trkpt lat="-27.274439" lon="151.290064">
  <ele>343.1</ele>
  <time>2026-09-01T19:54:37Z</time>
  <course>24.41</course>
  <speed>0.0</speed>
  <fix>3d</fix>
</trkpt>
<trkpt lat="-27.274439" lon="151.290064">
  <ele>343.17</ele>
  <time>2026-09-01T19:54:37Z</time>
  <course>8.75</course>
  <speed>0.0</speed>
  <fix>3d</fix>
</trkpt>
<trkpt lat="-27.274439" lon="151.290064">
  <ele>343.1</ele>
  <time>2026-09-01T19:54:37Z</time>
  <course>24.41</course>
  <speed>0.0</speed>
  <fix>3d</fix>
</trkpt>
<trkpt lat="-27.274439" lon="151.290064">
  <ele>343.04</ele>
  <time>2026-09-01T19:54:37Z</time>
  <course>8.94</course>
  <speed>0.0</speed>
  <fix>3d</fix>
</trkpt>
<trkpt lat="-27.274439" lon="151.290064">
  <ele>343.1</ele>
  <time>2026-09-01T19:54:37Z</time>
  <course>17.11</course>
  <speed>0.0</speed>
  <fix>3d</fix>
</trkpt>
<trkpt lat="-27.274439" lon="151.290064">
  <ele>342.89</ele>
  <time>2026-09-01T19:54:37Z</time>
  <course>9.11</course>
  <speed>0.0</speed>
  <fix>3d</fix>
</trkpt>
<trkpt lat="-27.274439" lon="151.290064">
  <ele>343.1</ele>
  <time>2026-09-01T19:54:37Z</time>
  <course>17.11</course>
  <speed>0.0</speed>
  <fix>3d</fix>
</trkpt>
<trkpt lat="-27.274439" lon="151.290064">
  <ele>343.08</ele>
  <time>2026-09-01T19:54:37Z</time>
  <course>9.26</course>
  <speed>0.0</speed>
  <fix>3d</fix>
</trkpt>
<trkpt lat="-27.274439" lon="151.290064">
  <ele>343.1</ele>
  <time>2026-09-01T19:54:37Z</time>
  <course>8.78</course>
  <speed>0.0</speed>
  <fix>3d</fix>
</trkpt>
<trkpt lat="-27.274439" lon="151.290064">
  <ele>343.19</ele>
  <time>2026-09-01T19:54:37Z</time>
  <course>9.4</course>
  <speed>0.0</speed>
  <fix>3d</fix>
</trkpt>
<trkpt lat="-27.274439" lon="151.290064">
  <ele>343.1</ele>
  <time>2026-09-01T19:54:37Z</time>
  <course>8.78</course>
  <speed>0.0</speed>
  <fix>3d</fix>
</trkpt>
<trkpt lat="-27.274439" lon="151.290064">
  <ele>342.88</ele>
  <time>2026-09-01T19:54:37Z</time>
  <course>9.53</course>
  <speed>0.0</speed>
  <fix>3d</fix>
</trkpt>
<trkpt lat="-27.274439" lon="151.290064">
  <ele>343.1</ele>
  <time>2026-09-01T19:54:37Z</time>
  <course>5.11</course>
  <speed>0.0</speed>
  <fix>3d</fix>
</trkpt>
<trkpt lat="-27.274439" lon="151.290064">
  <ele>343.17</ele>
  <time>2026-09-01T19:54:37Z</time>
  <course>9.64</course>
  <speed>0.0</speed>
  <fix>3d</fix>
</trkpt>
<trkpt lat="-27.274439" lon="151.290064">
  <ele>343.1</ele>
  <time>2026-09-01T19:54:37Z</time>
  <course>5.11</course>
  <speed>0.0</speed>
  <fix>3d</fix>
</trkpt>
<trkpt lat="-27.274439" lon="151.290064">
  <ele>342.89</ele>
  <time>2026-09-01T19:54:37Z</time>
  <course>9.74</course>
  <speed>0.0</speed>
  <fix>3d</fix>
</trkpt>
<trkpt lat="-27.274439" lon="151.290064">
  <ele>343.1</ele>
  <time>2026-09-01T19:54:37Z</time>
  <course>50.46</course>
  <speed>0.0</speed>
  <fix>3d</fix>
</trkpt>
<trkpt lat="-27.274439" lon="151.290064">
  <ele>342.99</ele>
  <time>2026-09-01T19:54:37Z</time>
  <course>9.83</course>
  <speed>0.0</speed>
  <fix>3d</fix>
</trkpt>
<trkpt lat="-27.274439" lon="151.290064">
  <ele>343.1</ele>
  <time>2026-09-01T19:54:37Z</time>
  <course>50.46</course>
  <speed>0.0</speed>
  <fix>3d</fix>
</trkpt>
<trkpt lat="-27.274439" lon="151.290064">
  <ele>342.87</ele>
  <time>2026-09-01T19:54:37Z</time>
  <course>9.92</course>
  <speed>0.0</speed>
  <fix>3d</fix>
</trkpt>
<trkpt lat="-27.274439" lon="151.290064">
  <ele>343.1</ele>
  <time>2026-09-01T19:54:37Z</time>
  <course>44.68</course>
  <speed>0.0</speed>
  <fix>3d</fix>
</trkpt>
<trkpt lat="-27.274439" lon="151.290064">
  <ele>343.09</ele>
  <time>2026-09-01T19:54:37Z</time>
  <course>10.0</course>
  <speed>0.0</speed>
  <fix>3d</fix>
</trkpt>
<trkpt lat="-27.274439" lon="151.290064">
  <ele>343.1</ele>
  <time>2026-09-01T19:54:37Z</time>
  <course>44.68</course>
  <speed>0.0</speed>
  <fix>3d</fix>
</trkpt>
<trkpt lat="-27.274439" lon="151.290064">
  <ele>343.18</ele>
  <time>2026-09-01T19:54:37Z</time>
  <course>10.07</course>
  <speed>0.0</speed>
  <fix>3d</fix>
</trkpt>
<trkpt lat="-27.274439" lon="151.290064">
  <ele>343.1</ele>
  <time>2026-09-01T19:54:37Z</time>
  <course>0.67</course>
  <speed>0.0</speed>
  <fix>3d</fix>
</trkpt>
<trkpt lat="-27.274439" lon="151.290064">
  <ele>343.05</ele>
  <time>2026-09-01T19:54:37Z</time>
  <course>10.13</course>
  <speed>0.0</speed>
  <fix>3d</fix>
</trkpt>
<trkpt lat="-27.274439" lon="151.290064">
  <ele>343.1</ele>
  <time>2026-09-01T19:54:37Z</time>
  <course>0.67</course>
  <speed>0.0</speed>
  <fix>3d</fix>
</trkpt>
<trkpt lat="-27.274439" lon="151.290064">
  <ele>342.96</ele>
  <time>2026-09-01T19:54:37Z</time>
  <course>10.19</course>
  <speed>0.0</speed>
  <fix>3d</fix>
</trkpt>
<trkpt lat="-27.274439" lon="151.290064">
  <ele>343.1</ele>
  <time>2026-09-01T19:54:37Z</time>
  <course>1.31</course>
  <speed>0.0</speed>
  <fix>3d</fix>
</trkpt>
<trkpt lat="-27.274439" lon="151.290064">
  <ele>343.1</ele>
  <time>2026-09-01T19:54:37Z</time>
  <course>10.24</course>
  <speed>0.0</speed>
  <fix>3d</fix>
</trkpt>
<trkpt lat="-27.274439" lon="151.290064">
  <ele>343.1</ele>
  <time>2026-09-01T19:54:37Z</time>
  <course>1.31</course>
  <speed>0.0</speed>
  <fix>3d</fix>
</trkpt>
<trkpt lat="-27.274439" lon="151.290064">
  <ele>343.22</ele>
  <time>2026-09-01T19:54:37Z</time>
  <course>10.29</course>
  <speed>0.0</speed>
  <fix>3d</fix>
</trkpt>
<trkpt lat="-27.274439" lon="151.290064">
  <ele>343.1</ele>
  <time>2026-09-01T19:54:37Z</time>
  <course>1.02</course>
  <speed>0.0</speed>
  <fix>3d</fix>
</trkpt>
<trkpt lat="-27.274439" lon="151.290064">
  <ele>343.17</ele>
  <time>2026-09-01T19:54:37Z</time>
  <course>10.33</course>
  <speed>0.0</speed>
  <fix>3d</fix>
</trkpt>
<trkpt lat="-27.274439" lon="151.290064">
  <ele>343.1</ele>
  <time>2026-09-01T19:54:37Z</time>
  <course>1.02</course>
  <speed>0.0</speed>
  <fix>3d</fix>
</trkpt>
<trkpt lat="-27.274439" lon="151.290064">
  <ele>343.08</ele>
  <time>2026-09-01T19:54:37Z</time>
  <course>10.37</course>
  <speed>0.0</speed>
  <fix>3d</fix>
</trkpt>
<trkpt lat="-27.274439" lon="151.290064">
  <ele>343.1</ele>
  <time>2026-09-01T19:54:37Z</time>
  <course>336.89</course>
  <speed>0.0</speed>
  <fix>3d</fix>
</trkpt>
<trkpt lat="-27.274439" lon="151.290064">
  <ele>343.04</ele>
  <time>2026-09-01T19:54:37Z</time>
  <course>10.41</course>
  <speed>0.0</speed>
  <fix>3d</fix>
</trkpt>
<trkpt lat="-27.274439" lon="151.290064">
  <ele>343.1</ele>
  <time>2026-09-01T19:54:37Z</time>
  <course>336.89</course>
  <speed>0.0</speed>
  <fix>3d</fix>
</trkpt>
<trkpt lat="-27.274439" lon="151.290064">
  <ele>343.18</ele>
  <time>2026-09-01T19:54:37Z</time>
  <course>10.44</course>
  <speed>0.0</speed>
  <fix>3d</fix>
</trkpt>
<trkpt lat="-27.274439" lon="151.290064">
  <ele>343.1</ele>
  <time>2026-09-01T19:54:37Z</time>
  <course>353.88</course>
  <speed>0.0</speed>
  <fix>3d</fix>
</trkpt>
<trkpt lat="-27.274439" lon="151.290064">
  <ele>343.12</ele>
  <time>2026-09-01T19:54:37Z</time>
  <course>10.47</course>
  <speed>0.0</speed>
  <fix>3d</fix>
</trkpt>
<trkpt lat="-27.274439" lon="151.290064">
  <ele>343.1</ele>
  <time>2026-09-01T19:54:37Z</time>
  <course>353.88</course>
  <speed>0.0</speed>
  <fix>3d</fix>
</trkpt>
<trkpt lat="-27.274439" lon="151.290064">
  <ele>343.04</ele>
  <time>2026-09-01T19:54:38Z</time>
  <course>10.49</course>
  <speed>0.0</speed>
  <fix>3d</fix>
</trkpt>
<trkpt lat="-27.274439" lon="151.290064">
  <ele>343.1</ele>
  <time>2026-09-01T19:54:38Z</time>
  <course>5.91</course>
  <speed>0.0</speed>
  <fix>3d</fix>
</trkpt>
<trkpt lat="-27.274439" lon="151.290064">
  <ele>343.07</ele>
  <time>2026-09-01T19:54:38Z</time>
  <course>10.52</course>
  <speed>0.0</speed>
  <fix>3d</fix>
</trkpt>
<trkpt lat="-27.274439" lon="151.290064">
  <ele>343.1</ele>
  <time>2026-09-01T19:54:38Z</time>
  <course>5.91</course>
  <speed>0.0</speed>
  <fix>3d</fix>
</trkpt>
<trkpt lat="-27.274439" lon="151.290064">
  <ele>343.04</ele>
  <time>2026-09-01T19:54:38Z</time>
  <course>10.54</course>
  <speed>0.0</speed>
  <fix>3d</fix>
</trkpt>
<trkpt lat="-27.274439" lon="151.290064">
  <ele>343.1</ele>
  <time>2026-09-01T19:54:38Z</time>
  <course>4.88</course>
  <speed>0.0</speed>
  <fix>3d</fix>
</trkpt>
<trkpt lat="-27.274439" lon="151.290064">
  <ele>343.01</ele>
  <time>2026-09-01T19:54:38Z</time>
  <course>10.56</course>
  <speed>0.0</speed>
  <fix>3d</fix>
</trkpt>
<trkpt lat="-27.274439" lon="151.290064">
  <ele>343.1</ele>
  <time>2026-09-01T19:54:38Z</time>
  <course>4.88</course>
  <speed>0.0</speed>
  <fix>3d</fix>
</trkpt>
<trkpt lat="-27.2744389" lon="151.290064">
  <ele>343.2</ele>
  <time>2026-09-01T19:54:38Z</time>
  <course>10.58</course>
  <speed>0.0</speed>
  <fix>3d</fix>
</trkpt>
<trkpt lat="-27.2744389" lon="151.290064">
  <ele>343.1</ele>
  <time>2026-09-01T19:54:38Z</time>
  <course>6.55</course>
  <speed>0.0</speed>
  <fix>3d</fix>
</trkpt>
<trkpt lat="-27.2744389" lon="151.290064">
  <ele>343.24</ele>
  <time>2026-09-01T19:54:38Z</time>
  <course>10.6</course>
  <speed>0.0</speed>
  <fix>3d</fix>
</trkpt>
<trkpt lat="-27.2744389" lon="151.290064">
  <ele>343.1</ele>
  <time>2026-09-01T19:54:38Z</time>
  <course>6.55</course>
  <speed>0.0</speed>
  <fix>3d</fix>
</trkpt>
<trkpt lat="-27.2744389" lon="151.290064">
  <ele>342.88</ele>
  <time>2026-09-01T19:54:38Z</time>
  <course>10.61</course>
  <speed>0.0</speed>
  <fix>3d</fix>
</trkpt>
<trkpt lat="-27.2744389" lon="151.290064">
  <ele>343.1</ele>
  <time>2026-09-01T19:54:38Z</time>
  <course>41.02</course>
  <speed>0.0</speed>
  <fix>3d</fix>
</trkpt>
<trkpt lat="-27.2744389" lon="151.290064">
  <ele>343.21</ele>
  <time>2026-09-01T19:54:38Z</time>
  <course>10.62</course>
  <speed>0.0</speed>
  <fix>3d</fix>
</trkpt>
<trkpt lat="-27.2744389" lon="151.290064">
  <ele>343.1</ele>
  <time>2026-09-01T19:54:38Z</time>
  <course>41.02</course>
  <speed>0.0</speed>
  <fix>3d</fix>
</trkpt>
<trkpt lat="-27.2744389" lon="151.290064">
  <ele>343.02</ele>
  <time>2026-09-01T19:54:38Z</time>
  <course>10.64</course>
  <speed>0.0</speed>
  <fix>3d</fix>
</trkpt>
<trkpt lat="-27.2744389" lon="151.290064">
  <ele>343.1</ele>
  <time>2026-09-01T19:54:38Z</time>
  <course>1.59</course>
  <speed>0.0</speed>
  <fix>3d</fix>
</trkpt>
<trkpt lat="-27.2744389" lon="151.290064">
  <ele>342.93</ele>
  <time>2026-09-01T19:54:38Z</time>
  <course>10.65</course>
  <speed>0.0</speed>
  <fix>3d</fix>
</trkpt>
<trkpt lat="-27.2744389" lon="151.290064">
  <ele>343.1</ele>
  <time>2026-09-01T19:54:38Z</time>
  <course>1.59</course>
  <speed>0.0</speed>
  <fix>3d</fix>
</trkpt>
<trkpt lat="-27.2744389" lon="151.290064">
  <ele>343.07</ele>
  <time>2026-09-01T19:54:38Z</time>
  <course>10.66</course>
  <speed>0.0</speed>
  <fix>3d</fix>
</trkpt>
<trkpt lat="-27.2744389" lon="151.290064">
  <ele>343.1</ele>
  <time>2026-09-01T19:54:38Z</time>
  <course>16.89</course>
  <speed>0.0</speed>
  <fix>3d</fix>
</trkpt>
<trkpt lat="-27.2744389" lon="151.290064">
  <ele>342.94</ele>
  <time>2026-09-01T19:54:38Z</time>
  <course>10.67</course>
  <speed>0.0</speed>
  <fix>3d</fix>
</trkpt>
<trkpt lat="-27.2744389" lon="151.290064">
  <ele>343.1</ele>
  <time>2026-09-01T19:54:38Z</time>
  <course>16.89</course>
  <speed>0.0</speed>
  <fix>3d</fix>
</trkpt>
<trkpt lat="-27.2744389" lon="151.290064">
  <ele>343.11</ele>
  <time>2026-09-01T19:54:38Z</time>
  <course>10.67</course>
  <speed>0.0</speed>
  <fix>3d</fix>
</trkpt>
<trkpt lat="-27.2744389" lon="151.290064">
  <ele>343.1</ele>
  <time>2026-09-01T19:54:38Z</time>
  <course>13.98</course>
  <speed>0.0</speed>
  <fix>3d</fix>
</trkpt>
<trkpt lat="-27.2744389" lon="151.290064">
  <ele>343.24</ele>
  <time>2026-09-01T19:54:38Z</time>
  <course>10.68</course>
  <speed>0.0</speed>
  <fix>3d</fix>
</trkpt>
<trkpt lat="-27.2744389" lon="151.290064">
  <ele>343.1</ele>
  <time>2026-09-01T19:54:38Z</time>
  <course>13.98</course>
  <speed>0.0</speed>
  <fix>3d</fix>
</trkpt>
<trkpt lat="-27.2744389" lon="151.290064">
  <ele>343.18</ele>
  <time>2026-09-01T19:54:38Z</time>
  <course>10.69</course>
  <speed>0.0</speed>
  <fix>3d</fix>
</trkpt>
<trkpt lat="-27.2744389" lon="151.290064">
  <ele>343.1</ele>
  <time>2026-09-01T19:54:38Z</time>
  <course>4.99</course>
  <speed>0.0</speed>
  <fix>3d</fix>
</trkpt>
<trkpt lat="-27.2744389" lon="151.290064">
  <ele>342.89</ele>
  <time>2026-09-01T19:54:38Z</time>
  <course>10.69</course>
  <speed>0.0</speed>
  <fix>3d</fix>
</trkpt>
<trkpt lat="-27.2744389" lon="151.290064">
  <ele>343.1</ele>
  <time>2026-09-01T19:54:38Z</time>
  <course>4.99</course>
  <speed>0.0</speed>
  <fix>3d</fix>
</trkpt>
<trkpt lat="-27.2744389" lon="151.290064">
  <ele>343.23</ele>
  <time>2026-09-01T19:54:38Z</time>
  <course>10.69</course>
  <speed>0.0</speed>
  <fix>3d</fix>
</trkpt>
<trkpt lat="-27.2744389" lon="151.290064">
  <ele>343.1</ele>
  <time>2026-09-01T19:54:38Z</time>
  <course>353.15</course>
  <speed>0.0</speed>
  <fix>3d</fix>
</trkpt>
<trkpt lat="-27.2744389" lon="151.290064">
  <ele>343.23</ele>
  <time>2026-09-01T19:54:38Z</time>
  <course>10.7</course>
  <speed>0.0</speed>
  <fix>3d</fix>
</trkpt>
<trkpt lat="-27.2744389" lon="151.290064">
  <ele>343.1</ele>
  <time>2026-09-01T19:54:38Z</time>
  <course>353.15</course>
  <speed>0.0</speed>
  <fix>3d</fix>
</trkpt>
<trkpt lat="-27.2744389" lon="151.290064">
  <ele>342.99</ele>
  <time>2026-09-01T19:54:38Z</time>
  <course>10.7</course>
  <speed>0.0</speed>
  <fix>3d</fix>
</trkpt>
<trkpt lat="-27.2744389" lon="151.290064">
  <ele>343.1</ele>
  <time>2026-09-01T19:54:38Z</time>
  <course>21.68</course>
  <speed>0.0</speed>
  <fix>3d</fix>
</trkpt>
<trkpt lat="-27.2744389" lon="151.290064">
  <ele>343.13</ele>
  <time>2026-09-01T19:54:38Z</time>
  <course>10.7</course>
  <speed>0.0</speed>
  <fix>3d</fix>
</trkpt>
<trkpt lat="-27.2744389" lon="151.290064">
  <ele>343.1</ele>
  <time>2026-09-01T19:54:38Z</time>
  <course>21.68</course>
  <speed>0.0</speed>
  <fix>3d</fix>
</trkpt>
<trkpt lat="-27.2744389" lon="151.290064">
  <ele>343.07</ele>
  <time>2026-09-01T19:54:38Z</time>
  <course>10.71</course>
  <speed>0.0</speed>
  <fix>3d</fix>
</trkpt>
<trkpt lat="-27.2744389" lon="151.290064">
  <ele>343.1</ele>
  <time>2026-09-01T19:54:38Z</time>
  <course>4.09</course>
  <speed>0.0</speed>
  <fix>3d</fix>
</trkpt>
<trkpt lat="-27.2744389" lon="151.290064">
  <ele>343.19</ele>
  <time>2026-09-01T19:54:38Z</time>
  <course>10.71</course>
  <speed>0.0</speed>
  <fix>3d</fix>
</trkpt>
<trkpt lat="-27.2744389" lon="151.290064">
  <ele>343.1</ele>
  <time>2026-09-01T19:54:38Z</time>
  <course>4.09</course>
  <speed>0.0</speed>
  <fix>3d</fix>
</trkpt>
<trkpt lat="-27.2744389" lon="151.290064">
  <ele>342.93</ele>
  <time>2026-09-01T19:54:38Z</time>
  <course>10.71</course>
  <speed>0.0</speed>
  <fix>3d</fix>
</trkpt>
<trkpt lat="-27.2744389" lon="151.290064">
  <ele>343.1</ele>
  <time>2026-09-01T19:54:38Z</time>
  <course>3.25</course>
  <speed>0.0</speed>
  <fix>3d</fix>
</trkpt>
<trkpt lat="-27.2744389" lon="151.290064">
  <ele>343.19</ele>
  <time>2026-09-01T19:54:38Z</time>
  <course>10.72</course>
  <speed>0.0</speed>
  <fix>3d</fix>
</trkpt>
<trkpt lat="-27.2744389" lon="151.290064">
  <ele>343.1</ele>
  <time>2026-09-01T19:54:38Z</time>
  <course>3.25</course>
  <speed>0.0</speed>
  <fix>3d</fix>
</trkpt>
<trkpt lat="-27.2744389" lon="151.290064">
  <ele>343.1</ele>
  <time>2026-09-01T19:54:38Z</time>
  <course>10.72</course>
  <speed>0.0</speed>
  <fix>3d</fix>
</trkpt>
<trkpt lat="-27.2744389" lon="151.290064">
  <ele>343.1</ele>
  <time>2026-09-01T19:54:38Z</time>
  <course>7.08</course>
  <speed>0.0</speed>
  <fix>3d</fix>
</trkpt>
<trkpt lat="-27.2744389" lon="151.290064">
  <ele>343.01</ele>
  <time>2026-09-01T19:54:38Z</time>
  <course>10.72</course>
  <speed>0.0</speed>
  <fix>3d</fix>
</trkpt>
<trkpt lat="-27.2744389" lon="151.290064">
  <ele>343.1</ele>
  <time>2026-09-01T19:54:38Z</time>
  <course>7.08</course>
  <speed>0.0</speed>
  <fix>3d</fix>
</trkpt>
<trkpt lat="-27.2744389" lon="151.290064">
  <ele>343.11</ele>
  <time>2026-09-01T19:54:38Z</time>
  <course>10.73</course>
  <speed>0.0</speed>
  <fix>3d</fix>
</trkpt>
<trkpt lat="-27.2744389" lon="151.290064">
  <ele>343.1</ele>
  <time>2026-09-01T19:54:38Z</time>
  <course>349.33</course>
  <speed>0.0</speed>
  <fix>3d</fix>
</trkpt>
<trkpt lat="-27.2744389" lon="151.290064">
  <ele>342.96</ele>
  <time>2026-09-01T19:54:38Z</time>
  <course>10.73</course>
  <speed>0.0</speed>
  <fix>3d</fix>
</trkpt>
<trkpt lat="-27.2744389" lon="151.290064">
  <ele>343.1</ele>
  <time>2026-09-01T19:54:38Z</time>
  <course>349.33</course>
  <speed>0.0</speed>
  <fix>3d</fix>
</trkpt>
<trkpt lat="-27.2744389" lon="151.290064">
  <ele>343.19</ele>
  <time>2026-09-01T19:54:38Z</time>
  <course>10.73</course>
  <speed>0.0</speed>
  <fix>3d</fix>
</trkpt>
<trkpt lat="-27.2744389" lon="151.290064">
  <ele>343.1</ele>
  <time>2026-09-01T19:54:38Z</time>
  <course>358.61</course>
  <speed>0.0</speed>
  <fix>3d</fix>
</trkpt>
<trkpt lat="-27.2744389" lon="151.290064">
  <ele>343.0</ele>
  <time>2026-09-01T19:54:38Z</time>
  <course>10.73</course>
  <speed>0.0</speed>
  <fix>3d</fix>
</trkpt>
<trkpt lat="-27.2744389" lon="151.290064">
  <ele>343.1</ele>
  <time>2026-09-01T19:54:38Z</time>
  <course>358.61</course>
  <speed>0.0</speed>
  <fix>3d</fix>
</trkpt>
<trkpt lat="-27.2744389" lon="151.290064">
  <ele>343.2</ele>
  <time>2026-09-01T19:54:38Z</time>
  <course>10.74</course>
  <speed>0.0</speed>
  <fix>3d</fix>
</trkpt>
<trkpt lat="-27.2744389" lon="151.290064">
  <ele>343.1</ele>
  <time>2026-09-01T19:54:38Z</time>
  <course>10.09</course>
  <speed>0.0</speed>
  <fix>3d</fix>
</trkpt>
<trkpt lat="-27.2744389" lon="151.290064">
  <ele>343.2</ele>
  <time>2026-09-01T19:54:38Z</time>
  <course>10.74</course>
  <speed>0.0</speed>
  <fix>3d</fix>
</trkpt>
<trkpt lat="-27.2744389" lon="151.290064">
  <ele>343.1</ele>
  <time>2026-09-01T19:54:38Z</time>
  <course>10.09</course>
  <speed>0.0</speed>
  <fix>3d</fix>
</trkpt>
<trkpt lat="-27.2744389" lon="151.290064">
  <ele>343.13</ele>
  <time>2026-09-01T19:54:38Z</time>
  <course>10.74</course>
  <speed>0.0</speed>
  <fix>3d</fix>
</trkpt>
<trkpt lat="-27.2744389" lon="151.290064">
  <ele>343.1</ele>
  <time>2026-09-01T19:54:38Z</time>
  <course>15.17</course>
  <speed>0.0</speed>
  <fix>3d</fix>
</trkpt>
<trkpt lat="-27.2744389" lon="151.290064">
  <ele>343.1</ele>
  <time>2026-09-01T19:54:38Z</time>
  <course>10.74</course>
  <speed>0.0</speed>
  <fix>3d</fix>
</trkpt>
<trkpt lat="-27.2744389" lon="151.290064">
  <ele>343.1</ele>
  <time>2026-09-01T19:54:38Z</time>
  <course>15.17</course>
  <speed>0.0</speed>
  <fix>3d</fix>
</trkpt>
<trkpt lat="-27.2744389" lon="151.290064">
  <ele>343.12</ele>
  <time>2026-09-01T19:54:38Z</time>
  <course>10.74</course>
  <speed>0.0</speed>
  <fix>3d</fix>
</trkpt>
<trkpt lat="-27.2744389" lon="151.290064">
  <ele>343.1</ele>
  <time>2026-09-01T19:54:38Z</time>
  <course>15.54</course>
  <speed>0.0</speed>
  <fix>3d</fix>
</trkpt>
<trkpt lat="-27.2744389" lon="151.290064">
  <ele>342.94</ele>
  <time>2026-09-01T19:54:38Z</time>
  <course>10.74</course>
  <speed>0.0</speed>
  <fix>3d</fix>
</trkpt>
<trkpt lat="-27.2744389" lon="151.290064">
  <ele>343.1</ele>
  <time>2026-09-01T19:54:38Z</time>
  <course>15.54</course>
  <speed>0.0</speed>
  <fix>3d</fix>
</trkpt>
<trkpt lat="-27.2744389" lon="151.290064">
  <ele>343.25</ele>
  <time>2026-09-01T19:54:38Z</time>
  <course>10.74</course>
  <speed>0.0</speed>
  <fix>3d</fix>
</trkpt>
<trkpt lat="-27.2744389" lon="151.290064">
  <ele>343.1</ele>
  <time>2026-09-01T19:54:38Z</time>
  <course>40.76</course>
  <speed>0.0</speed>
  <fix>3d</fix>
</trkpt>
<trkpt lat="-27.2744389" lon="151.290064">
  <ele>342.93</ele>
  <time>2026-09-01T19:54:38Z</time>
  <course>10.74</course>
  <speed>0.0</speed>
  <fix>3d</fix>
</trkpt>
<trkpt lat="-27.2744389" lon="151.290064">
  <ele>343.1</ele>
  <time>2026-09-01T19:54:38Z</time>
  <course>40.76</course>
  <speed>0.0</speed>
  <fix>3d</fix>
</trkpt>
<trkpt lat="-27.2744389" lon="151.290064">
  <ele>343.08</ele>
  <time>2026-09-01T19:54:38Z</time>
  <course>10.74</course>
  <speed>0.0</speed>
  <fix>3d</fix>
</trkpt>
<trkpt lat="-27.2744389" lon="151.290064">
  <ele>343.1</ele>
  <time>2026-09-01T19:54:38Z</time>
  <course>18.14</course>
  <speed>0.0</speed>
  <fix>3d</fix>
</trkpt>
<trkpt lat="-27.2744389" lon="151.290064">
  <ele>343.23</ele>
  <time>2026-09-01T19:54:38Z</time>
  <course>10.74</course>
  <speed>0.0</speed>
  <fix>3d</fix>
</trkpt>
<trkpt lat="-27.2744389" lon="151.290064">
  <ele>343.1</ele>
  <time>2026-09-01T19:54:38Z</time>
  <course>18.14</course>
  <speed>0.0</speed>
  <fix>3d</fix>
</trkpt>
<trkpt lat="-27.2744389" lon="151.290064">
  <ele>343.01</ele>
  <time>2026-09-01T19:54:38Z</time>
  <course>10.75</course>
  <speed>0.0</speed>
  <fix>3d</fix>
</trkpt>
<trkpt lat="-27.2744389" lon="151.290064">
  <ele>343.1</ele>
  <time>2026-09-01T19:54:38Z</time>
  <course>8.73</course>
  <speed>0.0</speed>
  <fix>3d</fix>
</trkpt>
<trkpt lat="-27.2744389" lon="151.290064">
  <ele>343.1</ele>
  <time>2026-09-01T19:54:38Z</time>
  <course>10.75</course>
  <speed>0.0</speed>
  <fix>3d</fix>
</trkpt>
<trkpt lat="-27.2744389" lon="151.290064">
  <ele>343.1</ele>
  <time>2026-09-01T19:54:38Z</time>
  <course>8.73</course>
  <speed>0.0</speed>
  <fix>3d</fix>
</trkpt>
<trkpt lat="-27.2744389" lon="151.290064">
  <ele>342.99</ele>
  <time>2026-09-01T19:54:38Z</time>
  <course>10.75</course>
  <speed>0.0</speed>
  <fix>3d</fix>
</trkpt>
<trkpt lat="-27.2744389" lon="151.290064">
  <ele>343.1</ele>
  <time>2026-09-01T19:54:38Z</time>
  <course>13.45</course>
  <speed>0.0</speed>
  <fix>3d</fix>
</trkpt>
<trkpt lat="-27.2744389" lon="151.290064">
  <ele>342.87</ele>
  <time>2026-09-01T19:54:38Z</time>
  <course>10.75</course>
  <speed>0.0</speed>
  <fix>3d</fix>
</trkpt>
<trkpt lat="-27.2744389" lon="151.290064">
  <ele>343.1</ele>
  <time>2026-09-01T19:54:38Z</time>
  <course>13.45</course>
  <speed>0.0</speed>
  <fix>3d</fix>
</trkpt>
<trkpt lat="-27.2744389" lon="151.290064">
  <ele>343.1</ele>
  <time>2026-09-01T19:54:38Z</time>
  <course>10.75</course>
  <speed>0.0</speed>
  <fix>3d</fix>
</trkpt>
<trkpt lat="-27.2744389" lon="151.290064">
  <ele>343.1</ele>
  <time>2026-09-01T19:54:38Z</time>
  <course>3.49</course>
  <speed>0.0</speed>
  <fix>3d</fix>
</trkpt>
<trkpt lat="-27.2744389" lon="151.290064">
  <ele>342.99</ele>
  <time>2026-09-01T19:54:38Z</time>
  <course>10.75</course>
  <speed>0.0</speed>
  <fix>3d</fix>
</trkpt>
<trkpt lat="-27.2744389" lon="151.290064">
  <ele>343.1</ele>
  <time>2026-09-01T19:54:38Z</time>
  <course>3.49</course>
  <speed>0.0</speed>
  <fix>3d</fix>
</trkpt>
<trkpt lat="-27.2744389" lon="151.290064">
  <ele>342.91</ele>
  <time>2026-09-01T19:54:38Z</time>
  <course>10.75</course>
  <speed>0.0</speed>
  <fix>3d</fix>
</trkpt>
<trkpt lat="-27.2744389" lon="151.290064">
  <ele>343.1</ele>
  <time>2026-09-01T19:54:38Z</time>
  <course>6.84</course>
  <speed>0.0</speed>
  <fix>3d</fix>
</trkpt>
<trkpt lat="-27.2744389" lon="151.290064">
  <ele>342.9</ele>
  <time>2026-09-01T19:54:38Z</time>
  <course>10.75</course>
  <speed>0.0</speed>
  <fix>3d</fix>
</trkpt>
<trkpt lat="-27.2744389" lon="151.290064">
  <ele>343.1</ele>
  <time>2026-09-01T19:54:38Z</time>
  <course>6.84</course>
  <speed>0.0</speed>
  <fix>3d</fix>
</trkpt>
<trkpt lat="-27.2744389" lon="151.290064">
  <ele>342.87</ele>
  <time>2026-09-01T19:54:38Z</time>
  <course>10.75</course>
  <speed>0.0</speed>
  <fix>3d</fix>
</trkpt>
<trkpt lat="-27.2744389" lon="151.290064">
  <ele>343.1</ele>
  <time>2026-09-01T19:54:38Z</time>
  <course>0.88</course>
  <speed>0.0</speed>
  <fix>3d</fix>
</trkpt>
<trkpt lat="-27.2744389" lon="151.290064">
  <ele>343.12</ele>
  <time>2026-09-01T19:54:38Z</time>
  <course>10.75</course>
  <speed>0.0</speed>
  <fix>3d</fix>
</trkpt>
<trkpt lat="-27.2744389" lon="151.290064">
  <ele>343.1</ele>
  <time>2026-09-01T19:54:38Z</time>
  <course>0.88</course>
  <speed>0.0</speed>
  <fix>3d</fix>
</trkpt>
<trkpt lat="-27.2744389" lon="151.290064">
  <ele>342.99</ele>
  <time>2026-09-01T19:54:38Z</time>
  <course>10.75</course>
  <speed>0.0</speed>
  <fix>3d</fix>
</trkpt>
<trkpt lat="-27.2744389" lon="151.290064">
  <ele>343.1</ele>
  <time>2026-09-01T19:54:38Z</time>
  <course>355.76</course>
  <speed>0.0</speed>
  <fix>3d</fix>
</trkpt>
<trkpt lat="-27.2744389" lon="151.290064">
  <ele>343.13</ele>
  <time>2026-09-01T19:54:38Z</time>
  <course>10.75</course>
  <speed>0.0</speed>
  <fix>3d</fix>
</trkpt>
<trkpt lat="-27.2744389" lon="151.290064">
  <ele>343.1</ele>
  <time>2026-09-01T19:54:38Z</time>
  <course>355.76</course>
  <speed>0.0</speed>
  <fix>3d</fix>
</trkpt>
<trkpt lat="-27.2744389" lon="151.290064">
  <ele>343.0</ele>
  <time>2026-09-01T19:54:38Z</time>
  <course>10.75</course>
  <speed>0.0</speed>
  <fix>3d</fix>
</trkpt>
<trkpt lat="-27.2744389" lon="151.290064">
  <ele>343.1</ele>
  <time>2026-09-01T19:54:38Z</time>
  <course>2.92</course>
  <speed>0.0</speed>
  <fix>3d</fix>
</trkpt>
<trkpt lat="-27.2744389" lon="151.290064">
  <ele>343.17</ele>
  <time>2026-09-01T19:54:38Z</time>
  <course>10.75</course>
  <speed>0.0</speed>
  <fix>3d</fix>
</trkpt>
<trkpt lat="-27.2744389" lon="151.290064">
  <ele>343.1</ele>
  <time>2026-09-01T19:54:38Z</time>
  <course>2.92</course>
  <speed>0.0</speed>
  <fix>3d</fix>
</trkpt>
<trkpt lat="-27.2744389" lon="151.290064">
  <ele>343.0</ele>
  <time>2026-09-01T19:54:38Z</time>
  <course>10.75</course>
  <speed>0.0</speed>
  <fix>3d</fix>
</trkpt>
<trkpt lat="-27.2744389" lon="151.290064">
  <ele>343.1</ele>
  <time>2026-09-01T19:54:38Z</time>
  <course>15.74</course>
  <speed>0.0</speed>
  <fix>3d</fix>
</trkpt>
<trkpt lat="-27.2744389" lon="151.290064">
  <ele>342.99</ele>
  <time>2026-09-01T19:54:38Z</time>
  <course>10.75</course>
  <speed>0.0</speed>
  <fix>3d</fix>
</trkpt>
<trkpt lat="-27.2744389" lon="151.290064">
  <ele>343.1</ele>
  <time>2026-09-01T19:54:38Z</time>
  <course>15.74</course>
  <speed>0.0</speed>
  <fix>3d</fix>
</trkpt>
<trkpt lat="-27.2744389" lon="151.290064">
  <ele>343.17</ele>
  <time>2026-09-01T19:54:38Z</time>
  <course>10.75</course>
  <speed>0.0</speed>
  <fix>3d</fix>
</trkpt>
<trkpt lat="-27.2744389" lon="151.290064">
  <ele>343.1</ele>
  <time>2026-09-01T19:54:38Z</time>
  <course>7.56</course>
  <speed>0.0</speed>
  <fix>3d</fix>
</trkpt>
<trkpt lat="-27.2744389" lon="151.290064">
  <ele>343.16</ele>
  <time>2026-09-01T19:54:38Z</time>
  <course>10.75</course>
  <speed>0.0</speed>
  <fix>3d</fix>
</trkpt>
<trkpt lat="-27.2744389" lon="151.290064">
  <ele>343.1</ele>
  <time>2026-09-01T19:54:38Z</time>
  <course>7.56</course>
  <speed>0.0</speed>
  <fix>3d</fix>
</trkpt>
<trkpt lat="-27.2744389" lon="151.290064">
  <ele>342.87</ele>
  <time>2026-09-01T19:54:38Z</time>
  <course>10.75</course>
  <speed>0.0</speed>
  <fix>3d</fix>
</trkpt>
<trkpt lat="-27.2744389" lon="151.290064">
  <ele>343.1</ele>
  <time>2026-09-01T19:54:38Z</time>
  <course>356.19</course>
  <speed>0.0</speed>
  <fix>3d</fix>
</trkpt>
<trkpt lat="-27.2744389" lon="151.290064">
  <ele>343.19</ele>
  <time>2026-09-01T19:54:38Z</time>
  <course>10.75</course>
  <speed>0.0</speed>
  <fix>3d</fix>
</trkpt>
<trkpt lat="-27.2744389" lon="151.290064">
  <ele>343.1</ele>
  <time>2026-09-01T19:54:38Z</time>
  <course>356.19</course>
  <speed>0.0</speed>
  <fix>3d</fix>
</trkpt>
<trkpt lat="-27.2744389" lon="151.290064">
  <ele>343.16</ele>
  <time>2026-09-01T19:54:38Z</time>
  <course>10.75</course>
  <speed>0.0</speed>
  <fix>3d</fix>
</trkpt>
<trkpt lat="-27.2744389" lon="151.290064">
  <ele>343.1</ele>
  <time>2026-09-01T19:54:38Z</time>
  <course>10.65</course>
  <speed>0.0</speed>
  <fix>3d</fix>
</trkpt>
<trkpt lat="-27.2744389" lon="151.290064">
  <ele>343.21</ele>
  <time>2026-09-01T19:54:38Z</time>
  <course>10.75</course>
  <speed>0.0</speed>
  <fix>3d</fix>
</trkpt>
<trkpt lat="-27.2744389" lon="151.290064">
  <ele>343.1</ele>
  <time>2026-09-01T19:54:38Z</time>
  <course>10.65</course>
  <speed>0.0</speed>
  <fix>3d</fix>
</trkpt>
<trkpt lat="-27.2744389" lon="151.290064">
  <ele>343.22</ele>
  <time>2026-09-01T19:54:38Z</time>
  <course>10.75</course>
  <speed>0.0</speed>
  <fix>3d</fix>
</trkpt>
<trkpt lat="-27.2744389" lon="151.290064">
  <ele>343.1</ele>
  <time>2026-09-01T19:54:38Z</time>
  <course>31.05</course>
  <speed>0.0</speed>
  <fix>3d</fix>
</trkpt>
<trkpt lat="-27.2744389" lon="151.290064">
  <ele>343.12</ele>
  <time>2026-09-01T19:54:38Z</time>
  <course>10.75</course>
  <speed>0.0</speed>
  <fix>3d</fix>
</trkpt>
<trkpt lat="-27.2744389" lon="151.290064">
  <ele>343.1</ele>
  <time>2026-09-01T19:54:38Z</time>
  <course>31.05</course>
  <speed>0.0</speed>
  <fix>3d</fix>
</trkpt>
<trkpt lat="-27.2744389" lon="151.290064">
  <ele>342.88</ele>
  <time>2026-09-01T19:54:38Z</time>
  <course>10.75</course>
  <speed>0.0</speed>
  <fix>3d</fix>
</trkpt>
<trkpt lat="-27.2744389" lon="151.290064">
  <ele>343.1</ele>
  <time>2026-09-01T19:54:38Z</time>
  <course>350.63</course>
  <speed>0.0</speed>
  <fix>3d</fix>
</trkpt>
<trkpt lat="-27.2744389" lon="151.290064">
  <ele>342.97</ele>
  <time>2026-09-01T19:54:38Z</time>
  <course>10.75</course>
  <speed>0.0</speed>
  <fix>3d</fix>
</trkpt>
<trkpt lat="-27.2744389" lon="151.290064">
  <ele>343.1</ele>
  <time>2026-09-01T19:54:38Z</time>
  <course>350.63</course>
  <speed>0.0</speed>
  <fix>3d</fix>
</trkpt>
<trkpt lat="-27.2744389" lon="151.290064">
  <ele>342.92</ele>
  <time>2026-09-01T19:54:38Z</time>
  <course>10.75</course>
  <speed>0.0</speed>
  <fix>3d</fix>
</trkpt>
<trkpt lat="-27.2744389" lon="151.290064">
  <ele>343.1</ele>
  <time>2026-09-01T19:54:38Z</time>
  <course>7.76</course>
  <speed>0.0</speed>
  <fix>3d</fix>
</trkpt>
<trkpt lat="-27.2744389" lon="151.290064">
  <ele>342.74</ele>
  <time>2026-09-01T19:54:38Z</time>
  <course>10.75</course>
  <speed>0.0</speed>
  <fix>3d</fix>
</trkpt>
<trkpt lat="-27.2744389" lon="151.290064">
  <ele>343.1</ele>
  <time>2026-09-01T19:54:38Z</time>
  <course>7.76</course>
  <speed>0.0</speed>
  <fix>3d</fix>
</trkpt>
<trkpt lat="-27.2744389" lon="151.290064">
  <ele>342.8</ele>
  <time>2026-09-01T19:54:38Z</time>
  <course>10.75</course>
  <speed>0.0</speed>
  <fix>3d</fix>
</trkpt>
<trkpt lat="-27.2744389" lon="151.290064">
  <ele>343.1</ele>
  <time>2026-09-01T19:54:38Z</time>
  <course>23.38</course>
  <speed>0.0</speed>
  <fix>3d</fix>
</trkpt>
<trkpt lat="-27.2744389" lon="151.290064">
  <ele>342.83</ele>
  <time>2026-09-01T19:54:38Z</time>
  <course>10.75</course>
  <speed>0.0</speed>
  <fix>3d</fix>
</trkpt>
<trkpt lat="-27.2744389" lon="151.290064">
  <ele>343.1</ele>
  <time>2026-09-01T19:54:38Z</time>
  <course>23.38</course>
  <speed>0.0</speed>
  <fix>3d</fix>
</trkpt>
<trkpt lat="-27.2744389" lon="151.290064">
  <ele>343.03</ele>
  <time>2026-09-01T19:54:38Z</time>
  <course>10.75</course>
  <speed>0.0</speed>
  <fix>3d</fix>
</trkpt>
<trkpt lat="-27.2744389" lon="151.290064">
  <ele>343.1</ele>
  <time>2026-09-01T19:54:38Z</time>
  <course>0.35</course>
  <speed>0.0</speed>
  <fix>3d</fix>
</trkpt>
<trkpt lat="-27.2744389" lon="151.290064">
  <ele>343.04</ele>
  <time>2026-09-01T19:54:38Z</time>
  <course>10.75</course>
  <speed>0.0</speed>
  <fix>3d</fix>
</trkpt>
<trkpt lat="-27.2744389" lon="151.290064">
  <ele>343.1</ele>
  <time>2026-09-01T19:54:38Z</time>
  <course>0.35</course>
  <speed>0.0</speed>
  <fix>3d</fix>
</trkpt>
<trkpt lat="-27.2744389" lon="151.290064">
  <ele>343.07</ele>
  <time>2026-09-01T19:54:38Z</time>
  <course>10.76</course>
  <speed>0.0</speed>
  <fix>3d</fix>
</trkpt>
<trkpt lat="-27.2744389" lon="151.290064">
  <ele>343.1</ele>
  <time>2026-09-01T19:54:38Z</time>
  <course>348.74</course>
  <speed>0.0</speed>
  <fix>3d</fix>
</trkpt>
<trkpt lat="-27.2744389" lon="151.290064">
  <ele>343.01</ele>
  <time>2026-09-01T19:54:38Z</time>
  <course>10.77</course>
  <speed>0.0</speed>
  <fix>3d</fix>
</trkpt>
<trkpt lat="-27.2744389" lon="151.290064">
  <ele>343.1</ele>
  <time>2026-09-01T19:54:38Z</time>
  <course>348.74</course>
  <speed>0.0</speed>
  <fix>3d</fix>
</trkpt>
<trkpt lat="-27.2744389" lon="151.290064">
  <ele>342.88</ele>
  <time>2026-09-01T19:54:38Z</time>
  <course>10.77</course>
  <speed>0.0</speed>
  <fix>3d</fix>
</trkpt>
<trkpt lat="-27.2744389" lon="151.290064">
  <ele>343.1</ele>
  <time>2026-09-01T19:54:38Z</time>
  <course>19.32</course>
  <speed>0.0</speed>
  <fix>3d</fix>
</trkpt>
<trkpt lat="-27.2744389" lon="151.290064">
  <ele>343.12</ele>
  <time>2026-09-01T19:54:38Z</time>
  <course>10.78</course>
  <speed>0.0</speed>
  <fix>3d</fix>
</trkpt>
<trkpt lat="-27.2744389" lon="151.290064">
  <ele>343.1</ele>
  <time>2026-09-01T19:54:38Z</time>
  <course>19.32</course>
  <speed>0.0</speed>
  <fix>3d</fix>
</trkpt>
<trkpt lat="-27.2744389" lon="151.290064">
  <ele>342.88</ele>
  <time>2026-09-01T19:54:38Z</time>
  <course>10.78</course>
  <speed>0.0</speed>
  <fix>3d</fix>
</trkpt>
<trkpt lat="-27.2744389" lon="151.290064">
  <ele>343.1</ele>
  <time>2026-09-01T19:54:38Z</time>
  <course>13.46</course>
  <speed>0.0</speed>
  <fix>3d</fix>
</trkpt>
<trkpt lat="-27.2744389" lon="151.290064">
  <ele>343.02</ele>
  <time>2026-09-01T19:54:38Z</time>
  <course>10.79</course>
  <speed>0.0</speed>
  <fix>3d</fix>
</trkpt>
<trkpt lat="-27.2744389" lon="151.290064">
  <ele>343.1</ele>
  <time>2026-09-01T19:54:38Z</time>
  <course>13.46</course>
  <speed>0.0</speed>
  <fix>3d</fix>
</trkpt>
<trkpt lat="-27.2744389" lon="151.290064">
  <ele>342.83</ele>
  <time>2026-09-01T19:54:38Z</time>
  <course>10.79</course>
  <speed>0.0</speed>
  <fix>3d</fix>
</trkpt>
<trkpt lat="-27.2744389" lon="151.290064">
  <ele>343.1</ele>
  <time>2026-09-01T19:54:38Z</time>
  <course>352.7</course>
  <speed>0.0</speed>
  <fix>3d</fix>
</trkpt>
<trkpt lat="-27.2744389" lon="151.290064">
  <ele>342.9</ele>
  <time>2026-09-01T19:54:38Z</time>
  <course>10.8</course>
  <speed>0.0</speed>
  <fix>3d</fix>
</trkpt>
<trkpt lat="-27.2744389" lon="151.290064">
  <ele>343.1</ele>
  <time>2026-09-01T19:54:38Z</time>
  <course>352.7</course>
  <speed>0.0</speed>
  <fix>3d</fix>
</trkpt>
<trkpt lat="-27.2744389" lon="151.290064">
  <ele>343.04</ele>
  <time>2026-09-01T19:54:38Z</time>
  <course>10.8</course>
  <speed>0.0</speed>
  <fix>3d</fix>
</trkpt>
<trkpt lat="-27.2744389" lon="151.290064">
  <ele>343.1</ele>
  <time>2026-09-01T19:54:38Z</time>
  <course>357.45</course>
  <speed>0.0</speed>
  <fix>3d</fix>
</trkpt>
<trkpt lat="-27.2744389" lon="151.290064">
  <ele>343.09</ele>
  <time>2026-09-01T19:54:38Z</time>
  <course>10.81</course>
  <speed>0.0</speed>
  <fix>3d</fix>
</trkpt>
<trkpt lat="-27.2744389" lon="151.290064">
  <ele>343.1</ele>
  <time>2026-09-01T19:54:38Z</time>
  <course>357.45</course>
  <speed>0.0</speed>
  <fix>3d</fix>
</trkpt>
<trkpt lat="-27.2744389" lon="151.290064">
  <ele>342.75</ele>
  <time>2026-09-01T19:54:38Z</time>
  <course>10.81</course>
  <speed>0.0</speed>
  <fix>3d</fix>
</trkpt>
<trkpt lat="-27.2744389" lon="151.290064">
  <ele>343.1</ele>
  <time>2026-09-01T19:54:38Z</time>
  <course>25.89</course>
  <speed>0.0</speed>
  <fix>3d</fix>
</trkpt>
<trkpt lat="-27.2744389" lon="151.290064">
  <ele>342.95</ele>
  <time>2026-09-01T19:54:38Z</time>
  <course>10.82</course>
  <speed>0.0</speed>
  <fix>3d</fix>
</trkpt>
<trkpt lat="-27.2744389" lon="151.290064">
  <ele>343.1</ele>
  <time>2026-09-01T19:54:38Z</time>
  <course>25.89</course>
  <speed>0.0</speed>
  <fix>3d</fix>
</trkpt>
<trkpt lat="-27.2744389" lon="151.290064">
  <ele>342.83</ele>
  <time>2026-09-01T19:54:38Z</time>
  <course>10.82</course>
  <speed>0.0</speed>
  <fix>3d</fix>
</trkpt>
<trkpt lat="-27.2744389" lon="151.290064">
  <ele>343.1</ele>
  <time>2026-09-01T19:54:38Z</time>
  <course>12.75</course>
  <speed>0.0</speed>
  <fix>3d</fix>
</trkpt>
<trkpt lat="-27.2744389" lon="151.290064">
  <ele>343.05</ele>
  <time>2026-09-01T19:54:38Z</time>
  <course>10.83</course>
  <speed>0.0</speed>
  <fix>3d</fix>
</trkpt>
<trkpt lat="-27.2744389" lon="151.290064">
  <ele>343.1</ele>
  <time>2026-09-01T19:54:38Z</time>
  <course>12.75</course>
  <speed>0.0</speed>
  <fix>3d</fix>
</trkpt>
<trkpt lat="-27.2744389" lon="151.290064">
  <ele>342.88</ele>
  <time>2026-09-01T19:54:38Z</time>
  <course>10.83</course>
  <speed>0.0</speed>
  <fix>3d</fix>
</trkpt>
<trkpt lat="-27.2744389" lon="151.290064">
  <ele>343.1</ele>
  <time>2026-09-01T19:54:38Z</time>
  <course>358.77</course>
  <speed>0.0</speed>
  <fix>3d</fix>
</trkpt>
<trkpt lat="-27.2744389" lon="151.290064">
  <ele>343.12</ele>
  <time>2026-09-01T19:54:38Z</time>
  <course>10.84</course>
  <speed>0.0</speed>
  <fix>3d</fix>
</trkpt>
<trkpt lat="-27.2744389" lon="151.290064">
  <ele>343.1</ele>
  <time>2026-09-01T19:54:38Z</time>
  <course>358.77</course>
  <speed>0.0</speed>
  <fix>3d</fix>
</trkpt>
<trkpt lat="-27.2744389" lon="151.290064">
  <ele>342.95</ele>
  <time>2026-09-01T19:54:38Z</time>
  <course>10.84</course>
  <speed>0.0</speed>
  <fix>3d</fix>
</trkpt>
<trkpt lat="-27.2744389" lon="151.290064">
  <ele>343.1</ele>
  <time>2026-09-01T19:54:38Z</time>
  <course>332.54</course>
  <speed>0.0</speed>
  <fix>3d</fix>
</trkpt>
<trkpt lat="-27.2744389" lon="151.290064">
  <ele>343.19</ele>
  <time>2026-09-01T19:54:38Z</time>
  <course>10.85</course>
  <speed>0.0</speed>
  <fix>3d</fix>
</trkpt>
<trkpt lat="-27.2744389" lon="151.290064">
  <ele>343.1</ele>
  <time>2026-09-01T19:54:38Z</time>
  <course>332.54</course>
  <speed>0.0</speed>
  <fix>3d</fix>
</trkpt>
<trkpt lat="-27.2744389" lon="151.290064">
  <ele>343.02</ele>
  <time>2026-09-01T19:54:38Z</time>
  <course>10.85</course>
  <speed>0.0</speed>
  <fix>3d</fix>
</trkpt>
<trkpt lat="-27.2744389" lon="151.290064">
  <ele>343.1</ele>
  <time>2026-09-01T19:54:38Z</time>
  <course>0.51</course>
  <speed>0.0</speed>
  <fix>3d</fix>
</trkpt>
<trkpt lat="-27.2744389" lon="151.290064">
  <ele>343.25</ele>
  <time>2026-09-01T19:54:38Z</time>
  <course>10.85</course>
  <speed>0.0</speed>
  <fix>3d</fix>
</trkpt>
<trkpt lat="-27.2744389" lon="151.290064">
  <ele>343.1</ele>
  <time>2026-09-01T19:54:38Z</time>
  <course>0.51</course>
  <speed>0.0</speed>
  <fix>3d</fix>
</trkpt>
<trkpt lat="-27.2744389" lon="151.290064">
  <ele>342.94</ele>
  <time>2026-09-01T19:54:38Z</time>
  <course>10.86</course>
  <speed>0.0</speed>
  <fix>3d</fix>
</trkpt>
<trkpt lat="-27.2744389" lon="151.290064">
  <ele>343.1</ele>
  <time>2026-09-01T19:54:38Z</time>
  <course>9.06</course>
  <speed>0.0</speed>
  <fix>3d</fix>
</trkpt>
<trkpt lat="-27.2744389" lon="151.290064">
  <ele>343.12</ele>
  <time>2026-09-01T19:54:38Z</time>
  <course>10.86</course>
  <speed>0.0</speed>
  <fix>3d</fix>
</trkpt>
<trkpt lat="-27.2744389" lon="151.290064">
  <ele>343.1</ele>
  <time>2026-09-01T19:54:38Z</time>
  <course>9.06</course>
  <speed>0.0</speed>
  <fix>3d</fix>
</trkpt>
<trkpt lat="-27.2744389" lon="151.290064">
  <ele>343.01</ele>
  <time>2026-09-01T19:54:38Z</time>
  <course>10.87</course>
  <speed>0.0</speed>
  <fix>3d</fix>
</trkpt>
<trkpt lat="-27.2744389" lon="151.290064">
  <ele>343.1</ele>
  <time>2026-09-01T19:54:38Z</time>
  <course>6.15</course>
  <speed>0.0</speed>
  <fix>3d</fix>
</trkpt>
<trkpt lat="-27.2744389" lon="151.290064">
  <ele>343.13</ele>
  <time>2026-09-01T19:54:38Z</time>
  <course>10.87</course>
  <speed>0.0</speed>
  <fix>3d</fix>
</trkpt>
<trkpt lat="-27.2744389" lon="151.290064">
  <ele>343.1</ele>
  <time>2026-09-01T19:54:38Z</time>
  <course>6.15</course>
  <speed>0.0</speed>
  <fix>3d</fix>
</trkpt>
<trkpt lat="-27.2744389" lon="151.290064">
  <ele>343.18</ele>
  <time>2026-09-01T19:54:38Z</time>
  <course>10.87</course>
  <speed>0.0</speed>
  <fix>3d</fix>
</trkpt>
<trkpt lat="-27.2744389" lon="151.290064">
  <ele>343.1</ele>
  <time>2026-09-01T19:54:38Z</time>
  <course>22.87</course>
  <speed>0.0</speed>
  <fix>3d</fix>
</trkpt>
<trkpt lat="-27.2744389" lon="151.290064">
  <ele>342.97</ele>
  <time>2026-09-01T19:54:38Z</time>
  <course>10.88</course>
  <speed>0.0</speed>
  <fix>3d</fix>
</trkpt>
<trkpt lat="-27.2744389" lon="151.290064">
  <ele>343.1</ele>
  <time>2026-09-01T19:54:38Z</time>
  <course>22.87</course>
  <speed>0.0</speed>
  <fix>3d</fix>
</trkpt>
<trkpt lat="-27.2744389" lon="151.290064">
  <ele>343.14</ele>
  <time>2026-09-01T19:54:38Z</time>
  <course>10.88</course>
  <speed>0.0</speed>
  <fix>3d</fix>
</trkpt>
<trkpt lat="-27.2744389" lon="151.290064">
  <ele>343.1</ele>
  <time>2026-09-01T19:54:38Z</time>
  <course>4.14</course>
  <speed>0.0</speed>
  <fix>3d</fix>
</trkpt>
<trkpt lat="-27.2744389" lon="151.290064">
  <ele>342.96</ele>
  <time>2026-09-01T19:54:38Z</time>
  <course>10.88</course>
  <speed>0.0</speed>
  <fix>3d</fix>
</trkpt>
<trkpt lat="-27.2744389" lon="151.290064">
  <ele>343.1</ele>
  <time>2026-09-01T19:54:38Z</time>
  <course>4.14</course>
  <speed>0.0</speed>
  <fix>3d</fix>
</trkpt>
<trkpt lat="-27.2744389" lon="151.290064">
  <ele>343.3</ele>
  <time>2026-09-01T19:54:38Z</time>
  <course>10.89</course>
  <speed>0.0</speed>
  <fix>3d</fix>
</trkpt>
<trkpt lat="-27.2744389" lon="151.290064">
  <ele>343.1</ele>
  <time>2026-09-01T19:54:38Z</time>
  <course>0.81</course>
  <speed>0.0</speed>
  <fix>3d</fix>
</trkpt>
<trkpt lat="-27.2744389" lon="151.290064">
  <ele>343.22</ele>
  <time>2026-09-01T19:54:38Z</time>
  <course>10.89</course>
  <speed>0.0</speed>
  <fix>3d</fix>
</trkpt>
<trkpt lat="-27.2744389" lon="151.290064">
  <ele>343.1</ele>
  <time>2026-09-01T19:54:38Z</time>
  <course>0.81</course>
  <speed>0.0</speed>
  <fix>3d</fix>
</trkpt>
<trkpt lat="-27.2744389" lon="151.290064">
  <ele>343.08</ele>
  <time>2026-09-01T19:54:38Z</time>
  <course>10.89</course>
  <speed>0.0</speed>
  <fix>3d</fix>
</trkpt>
<trkpt lat="-27.2744389" lon="151.290064">
  <ele>343.1</ele>
  <time>2026-09-01T19:54:38Z</time>
  <course>3.72</course>
  <speed>0.0</speed>
  <fix>3d</fix>
</trkpt>
<trkpt lat="-27.2744389" lon="151.290064">
  <ele>343.23</ele>
  <time>2026-09-01T19:54:38Z</time>
  <course>10.9</course>
  <speed>0.0</speed>
  <fix>3d</fix>
</trkpt>
<trkpt lat="-27.2744389" lon="151.290064">
  <ele>343.1</ele>
  <time>2026-09-01T19:54:38Z</time>
  <course>3.72</course>
  <speed>0.0</speed>
  <fix>3d</fix>
</trkpt>
<trkpt lat="-27.2744389" lon="151.290064">
  <ele>343.33</ele>
  <time>2026-09-01T19:54:38Z</time>
  <course>10.9</course>
  <speed>0.0</speed>
  <fix>3d</fix>
</trkpt>
<trkpt lat="-27.2744389" lon="151.290064">
  <ele>343.1</ele>
  <time>2026-09-01T19:54:38Z</time>
  <course>13.88</course>
  <speed>0.0</speed>
  <fix>3d</fix>
</trkpt>
<trkpt lat="-27.2744389" lon="151.290064">
  <ele>343.05</ele>
  <time>2026-09-01T19:54:38Z</time>
  <course>10.9</course>
  <speed>0.0</speed>
  <fix>3d</fix>
</trkpt>
<trkpt lat="-27.2744389" lon="151.290064">
  <ele>343.1</ele>
  <time>2026-09-01T19:54:38Z</time>
  <course>13.88</course>
  <speed>0.0</speed>
  <fix>3d</fix>
</trkpt>
<trkpt lat="-27.2744389" lon="151.290064">
  <ele>343.16</ele>
  <time>2026-09-01T19:54:38Z</time>
  <course>10.9</course>
  <speed>0.0</speed>
  <fix>3d</fix>
</trkpt>
<trkpt lat="-27.2744389" lon="151.290064">
  <ele>343.1</ele>
  <time>2026-09-01T19:54:38Z</time>
  <course>7.36</course>
  <speed>0.0</speed>
  <fix>3d</fix>
</trkpt>
<trkpt lat="-27.2744389" lon="151.290064">
  <ele>343.16</ele>
  <time>2026-09-01T19:54:38Z</time>
  <course>10.91</course>
  <speed>0.0</speed>
  <fix>3d</fix>
</trkpt>
<trkpt lat="-27.2744389" lon="151.290064">
  <ele>343.1</ele>
  <time>2026-09-01T19:54:38Z</time>
  <course>7.36</course>
  <speed>0.0</speed>
  <fix>3d</fix>
</trkpt>
<trkpt lat="-27.2744389" lon="151.290064">
  <ele>343.08</ele>
  <time>2026-09-01T19:54:38Z</time>
  <course>10.91</course>
  <speed>0.0</speed>
  <fix>3d</fix>
</trkpt>
<trkpt lat="-27.2744389" lon="151.290064">
  <ele>343.1</ele>
  <time>2026-09-01T19:54:38Z</time>
  <course>326.93</course>
  <speed>0.0</speed>
  <fix>3d</fix>
</trkpt>
<trkpt lat="-27.2744389" lon="151.290064">
  <ele>343.17</ele>
  <time>2026-09-01T19:54:38Z</time>
  <course>10.91</course>
  <speed>0.0</speed>
  <fix>3d</fix>
</trkpt>
<trkpt lat="-27.2744389" lon="151.290064">
  <ele>343.1</ele>
  <time>2026-09-01T19:54:38Z</time>
  <course>326.93</course>
  <speed>0.0</speed>
  <fix>3d</fix>
</trkpt>
<trkpt lat="-27.2744389" lon="151.290064">
  <ele>343.22</ele>
  <time>2026-09-01T19:54:38Z</time>
  <course>10.92</course>
  <speed>0.0</speed>
  <fix>3d</fix>
</trkpt>
<trkpt lat="-27.2744389" lon="151.290064">
  <ele>343.1</ele>
  <time>2026-09-01T19:54:38Z</time>
  <course>326.76</course>
  <speed>0.0</speed>
  <fix>3d</fix>
</trkpt>
<trkpt lat="-27.2744389" lon="151.290064">
  <ele>343.01</ele>
  <time>2026-09-01T19:54:38Z</time>
  <course>10.92</course>
  <speed>0.0</speed>
  <fix>3d</fix>
</trkpt>
<trkpt lat="-27.2744389" lon="151.290064">
  <ele>343.1</ele>
  <time>2026-09-01T19:54:38Z</time>
  <course>326.76</course>
  <speed>0.0</speed>
  <fix>3d</fix>
</trkpt>
<trkpt lat="-27.2744389" lon="151.290064">
  <ele>343.26</ele>
  <time>2026-09-01T19:54:38Z</time>
  <course>10.92</course>
  <speed>0.0</speed>
  <fix>3d</fix>
</trkpt>
<trkpt lat="-27.2744389" lon="151.290064">
  <ele>343.1</ele>
  <time>2026-09-01T19:54:38Z</time>
  <course>28.07</course>
  <speed>0.0</speed>
  <fix>3d</fix>
</trkpt>
<trkpt lat="-27.2744389" lon="151.290064">
  <ele>343.28</ele>
  <time>2026-09-01T19:54:38Z</time>
  <course>10.92</course>
  <speed>0.0</speed>
  <fix>3d</fix>
</trkpt>
<trkpt lat="-27.2744389" lon="151.290064">
  <ele>343.1</ele>
  <time>2026-09-01T19:54:38Z</time>
  <course>28.07</course>
  <speed>0.0</speed>
  <fix>3d</fix>
</trkpt>
<trkpt lat="-27.2744389" lon="151.290064">
  <ele>343.34</ele>
  <time>2026-09-01T19:54:38Z</time>
  <course>10.93</course>
  <speed>0.0</speed>
  <fix>3d</fix>
</trkpt>
<trkpt lat="-27.2744389" lon="151.290064">
  <ele>343.1</ele>
  <time>2026-09-01T19:54:38Z</time>
  <course>19.49</course>
  <speed>0.0</speed>
  <fix>3d</fix>
</trkpt>
<trkpt lat="-27.2744389" lon="151.290064">
  <ele>343.1</ele>
  <time>2026-09-01T19:54:38Z</time>
  <course>10.93</course>
  <speed>0.0</speed>
  <fix>3d</fix>
</trkpt>
<trkpt lat="-27.2744389" lon="151.290064">
  <ele>343.1</ele>
  <time>2026-09-01T19:54:38Z</time>
  <course>19.49</course>
  <speed>0.0</speed>
  <fix>3d</fix>
</trkpt>
<trkpt lat="-27.2744389" lon="151.290064">
  <ele>342.96</ele>
  <time>2026-09-01T19:54:38Z</time>
  <course>10.93</course>
  <speed>0.0</speed>
  <fix>3d</fix>
</trkpt>
<trkpt lat="-27.2744389" lon="151.290064">
  <ele>343.1</ele>
  <time>2026-09-01T19:54:38Z</time>
  <course>346.62</course>
  <speed>0.0</speed>
  <fix>3d</fix>
</trkpt>
<trkpt lat="-27.2744389" lon="151.290064">
  <ele>343.03</ele>
  <time>2026-09-01T19:54:38Z</time>
  <course>10.93</course>
  <speed>0.0</speed>
  <fix>3d</fix>
</trkpt>
<trkpt lat="-27.2744389" lon="151.290064">
  <ele>343.1</ele>
  <time>2026-09-01T19:54:38Z</time>
  <course>346.62</course>
  <speed>0.0</speed>
  <fix>3d</fix>
</trkpt>
<trkpt lat="-27.2744389" lon="151.290064">
  <ele>343.23</ele>
  <time>2026-09-01T19:54:38Z</time>
  <course>10.94</course>
  <speed>0.0</speed>
  <fix>3d</fix>
</trkpt>
<trkpt lat="-27.2744389" lon="151.290064">
  <ele>343.1</ele>
  <time>2026-09-01T19:54:38Z</time>
  <course>27.13</course>
  <speed>0.0</speed>
  <fix>3d</fix>
</trkpt>
<trkpt lat="-27.2744389" lon="151.290064">
  <ele>343.14</ele>
  <time>2026-09-01T19:54:38Z</time>
  <course>10.94</course>
  <speed>0.0</speed>
  <fix>3d</fix>
</trkpt>
<trkpt lat="-27.2744389" lon="151.290064">
  <ele>343.1</ele>
  <time>2026-09-01T19:54:38Z</time>
  <course>27.13</course>
  <speed>0.0</speed>
  <fix>3d</fix>
</trkpt>
<trkpt lat="-27.2744389" lon="151.290064">
  <ele>343.13</ele>
  <time>2026-09-01T19:54:38Z</time>
  <course>10.94</course>
  <speed>0.0</speed>
  <fix>3d</fix>
</trkpt>
<trkpt lat="-27.2744389" lon="151.290064">
  <ele>343.1</ele>
  <time>2026-09-01T19:54:38Z</time>
  <course>31.06</course>
  <speed>0.0</speed>
  <fix>3d</fix>
</trkpt>
<trkpt lat="-27.2744389" lon="151.290064">
  <ele>343.03</ele>
  <time>2026-09-01T19:54:38Z</time>
  <course>10.94</course>
  <speed>0.0</speed>
  <fix>3d</fix>
</trkpt>
<trkpt lat="-27.2744389" lon="151.290064">
  <ele>343.1</ele>
  <time>2026-09-01T19:54:38Z</time>
  <course>31.06</course>
  <speed>0.0</speed>
  <fix>3d</fix>
</trkpt>
<trkpt lat="-27.2744389" lon="151.290064">
  <ele>343.15</ele>
  <time>2026-09-01T19:54:38Z</time>
  <course>10.95</course>
  <speed>0.0</speed>
  <fix>3d</fix>
</trkpt>
<trkpt lat="-27.2744389" lon="151.290064">
  <ele>343.1</ele>
  <time>2026-09-01T19:54:38Z</time>
  <course>2.11</course>
  <speed>0.0</speed>
  <fix>3d</fix>
</trkpt>
<trkpt lat="-27.2744389" lon="151.290064">
  <ele>343.14</ele>
  <time>2026-09-01T19:54:38Z</time>
  <course>10.95</course>
  <speed>0.0</speed>
  <fix>3d</fix>
</trkpt>
<trkpt lat="-27.2744389" lon="151.290064">
  <ele>343.1</ele>
  <time>2026-09-01T19:54:38Z</time>
  <course>2.11</course>
  <speed>0.0</speed>
  <fix>3d</fix>
</trkpt>
<trkpt lat="-27.2744389" lon="151.290064">
  <ele>343.17</ele>
  <time>2026-09-01T19:54:38Z</time>
  <course>10.95</course>
  <speed>0.0</speed>
  <fix>3d</fix>
</trkpt>
<trkpt lat="-27.2744389" lon="151.290064">
  <ele>343.1</ele>
  <time>2026-09-01T19:54:38Z</time>
  <course>356.08</course>
  <speed>0.0</speed>
  <fix>3d</fix>
</trkpt>
<trkpt lat="-27.2744389" lon="151.290064">
  <ele>342.95</ele>
  <time>2026-09-01T19:54:38Z</time>
  <course>10.95</course>
  <speed>0.0</speed>
  <fix>3d</fix>
</trkpt>
<trkpt lat="-27.2744389" lon="151.290064">
  <ele>343.1</ele>
  <time>2026-09-01T19:54:38Z</time>
  <course>356.08</course>
  <speed>0.0</speed>
  <fix>3d</fix>
</trkpt>
<trkpt lat="-27.2744389" lon="151.290064">
  <ele>343.06</ele>
  <time>2026-09-01T19:54:38Z</time>
  <course>10.96</course>
  <speed>0.0</speed>
  <fix>3d</fix>
</trkpt>
<trkpt lat="-27.2744389" lon="151.290064">
  <ele>343.1</ele>
  <time>2026-09-01T19:54:38Z</time>
  <course>1.84</course>
  <speed>0.0</speed>
  <fix>3d</fix>
</trkpt>
<trkpt lat="-27.2744389" lon="151.290064">
  <ele>343.11</ele>
  <time>2026-09-01T19:54:38Z</time>
  <course>10.96</course>
  <speed>0.0</speed>
  <fix>3d</fix>
</trkpt>
<trkpt lat="-27.2744389" lon="151.290064">
  <ele>343.1</ele>
  <time>2026-09-01T19:54:38Z</time>
  <course>1.84</course>
  <speed>0.0</speed>
  <fix>3d</fix>
</trkpt>
<trkpt lat="-27.2744389" lon="151.290064">
  <ele>343.3</ele>
  <time>2026-09-01T19:54:38Z</time>
  <course>10.96</course>
  <speed>0.0</speed>
  <fix>3d</fix>
</trkpt>
<trkpt lat="-27.2744389" lon="151.290064">
  <ele>343.1</ele>
  <time>2026-09-01T19:54:38Z</time>
  <course>15.13</course>
  <speed>0.0</speed>
  <fix>3d</fix>
</trkpt>
<trkpt lat="-27.2744389" lon="151.290064">
  <ele>343.03</ele>
  <time>2026-09-01T19:54:38Z</time>
  <course>10.96</course>
  <speed>0.0</speed>
  <fix>3d</fix>
</trkpt>
<trkpt lat="-27.2744389" lon="151.290064">
  <ele>343.1</ele>
  <time>2026-09-01T19:54:38Z</time>
  <course>15.13</course>
  <speed>0.0</speed>
  <fix>3d</fix>
</trkpt>
<trkpt lat="-27.2744389" lon="151.290064">
  <ele>343.13</ele>
  <time>2026-09-01T19:54:38Z</time>
  <course>10.96</course>
  <speed>0.0</speed>
  <fix>3d</fix>
</trkpt>
<trkpt lat="-27.2744389" lon="151.290064">
  <ele>343.1</ele>
  <time>2026-09-01T19:54:38Z</time>
  <course>2.44</course>
  <speed>0.0</speed>
  <fix>3d</fix>
</trkpt>
<trkpt lat="-27.2744389" lon="151.290064">
  <ele>343.02</ele>
  <time>2026-09-01T19:54:38Z</time>
  <course>10.97</course>
  <speed>0.0</speed>
  <fix>3d</fix>
</trkpt>
<trkpt lat="-27.2744389" lon="151.290064">
  <ele>343.1</ele>
  <time>2026-09-01T19:54:38Z</time>
  <course>2.44</course>
  <speed>0.0</speed>
  <fix>3d</fix>
</trkpt>
<trkpt lat="-27.2744389" lon="151.290064">
  <ele>343.17</ele>
  <time>2026-09-01T19:54:38Z</time>
  <course>10.97</course>
  <speed>0.0</speed>
  <fix>3d</fix>
</trkpt>
<trkpt lat="-27.2744389" lon="151.290064">
  <ele>343.1</ele>
  <time>2026-09-01T19:54:38Z</time>
  <course>358.2</course>
  <speed>0.0</speed>
  <fix>3d</fix>
</trkpt>
<trkpt lat="-27.2744389" lon="151.290064">
  <ele>343.26</ele>
  <time>2026-09-01T19:54:38Z</time>
  <course>10.97</course>
  <speed>0.0</speed>
  <fix>3d</fix>
</trkpt>
<trkpt lat="-27.2744389" lon="151.290064">
  <ele>343.1</ele>
  <time>2026-09-01T19:54:38Z</time>
  <course>358.2</course>
  <speed>0.0</speed>
  <fix>3d</fix>
</trkpt>
<trkpt lat="-27.2744389" lon="151.290064">
  <ele>343.29</ele>
  <time>2026-09-01T19:54:38Z</time>
  <course>10.97</course>
  <speed>0.0</speed>
  <fix>3d</fix>
</trkpt>
<trkpt lat="-27.2744389" lon="151.290064">
  <ele>343.1</ele>
  <time>2026-09-01T19:54:38Z</time>
  <course>359.34</course>
  <speed>0.0</speed>
  <fix>3d</fix>
</trkpt>
<trkpt lat="-27.2744389" lon="151.290064">
  <ele>343.13</ele>
  <time>2026-09-01T19:54:38Z</time>
  <course>10.97</course>
  <speed>0.0</speed>
  <fix>3d</fix>
</trkpt>
<trkpt lat="-27.2744389" lon="151.290064">
  <ele>343.1</ele>
  <time>2026-09-01T19:54:38Z</time>
  <course>359.34</course>
  <speed>0.0</speed>
  <fix>3d</fix>
</trkpt>
<trkpt lat="-27.2744389" lon="151.290064">
  <ele>343.1</ele>
  <time>2026-09-01T19:54:38Z</time>
  <course>10.98</course>
  <speed>0.0</speed>
  <fix>3d</fix>
</trkpt>
<trkpt lat="-27.2744389" lon="151.290064">
  <ele>343.1</ele>
  <time>2026-09-01T19:54:38Z</time>
  <course>3.96</course>
  <speed>0.0</speed>
  <fix>3d</fix>
</trkpt>
<trkpt lat="-27.2744389" lon="151.290064">
  <ele>343.2</ele>
  <time>2026-09-01T19:54:38Z</time>
  <course>10.98</course>
  <speed>0.0</speed>
  <fix>3d</fix>
</trkpt>
<trkpt lat="-27.2744389" lon="151.290064">
  <ele>343.1</ele>
  <time>2026-09-01T19:54:38Z</time>
  <course>3.96</course>
  <speed>0.0</speed>
  <fix>3d</fix>
</trkpt>
<trkpt lat="-27.2744389" lon="151.290064">
  <ele>343.09</ele>
  <time>2026-09-01T19:54:38Z</time>
  <course>10.98</course>
  <speed>0.0</speed>
  <fix>3d</fix>
</trkpt>
<trkpt lat="-27.2744389" lon="151.290064">
  <ele>343.1</ele>
  <time>2026-09-01T19:54:38Z</time>
  <course>358.72</course>
  <speed>0.0</speed>
  <fix>3d</fix>
</trkpt>
<trkpt lat="-27.2744389" lon="151.290064">
  <ele>343.11</ele>
  <time>2026-09-01T19:54:38Z</time>
  <course>10.98</course>
  <speed>0.0</speed>
  <fix>3d</fix>
</trkpt>
<trkpt lat="-27.2744389" lon="151.290064">
  <ele>343.1</ele>
  <time>2026-09-01T19:54:38Z</time>
  <course>358.72</course>
  <speed>0.0</speed>
  <fix>3d</fix>
</trkpt>
<trkpt lat="-27.2744389" lon="151.290064">
  <ele>343.21</ele>
  <time>2026-09-01T19:54:38Z</time>
  <course>10.98</course>
  <speed>0.0</speed>
  <fix>3d</fix>
</trkpt>
<trkpt lat="-27.2744389" lon="151.290064">
  <ele>343.1</ele>
  <time>2026-09-01T19:54:38Z</time>
  <course>3.55</course>
  <speed>0.0</speed>
  <fix>3d</fix>
</trkpt>
<trkpt lat="-27.2744389" lon="151.290064">
  <ele>343.22</ele>
  <time>2026-09-01T19:54:38Z</time>
  <course>10.99</course>
  <speed>0.0</speed>
  <fix>3d</fix>
</trkpt>
<trkpt lat="-27.2744389" lon="151.290064">
  <ele>343.1</ele>
  <time>2026-09-01T19:54:38Z</time>
  <course>3.55</course>
  <speed>0.0</speed>
  <fix>3d</fix>
</trkpt>
<trkpt lat="-27.2744389" lon="151.290064">
  <ele>342.98</ele>
  <time>2026-09-01T19:54:38Z</time>
  <course>10.99</course>
  <speed>0.0</speed>
  <fix>3d</fix>
</trkpt>
<trkpt lat="-27.2744389" lon="151.290064">
  <ele>343.1</ele>
  <time>2026-09-01T19:54:38Z</time>
  <course>11.54</course>
  <speed>0.0</speed>
  <fix>3d</fix>
</trkpt>
<trkpt lat="-27.2744389" lon="151.290064">
  <ele>343.15</ele>
  <time>2026-09-01T19:54:38Z</time>
  <course>10.99</course>
  <speed>0.0</speed>
  <fix>3d</fix>
</trkpt>
<trkpt lat="-27.2744389" lon="151.290064">
  <ele>343.1</ele>
  <time>2026-09-01T19:54:38Z</time>
  <course>11.54</course>
  <speed>0.0</speed>
  <fix>3d</fix>
</trkpt>
<trkpt lat="-27.2744388" lon="151.290064">
  <ele>343.28</ele>
  <time>2026-09-01T19:54:38Z</time>
  <course>10.99</course>
  <speed>0.0</speed>
  <fix>3d</fix>
</trkpt>
<trkpt lat="-27.2744388" lon="151.290064">
  <ele>343.1</ele>
  <time>2026-09-01T19:54:38Z</time>
  <course>0.01</course>
  <speed>0.0</speed>
  <fix>3d</fix>
</trkpt>
<trkpt lat="-27.2744388" lon="151.290064">
  <ele>343.3</ele>
  <time>2026-09-01T19:54:38Z</time>
  <course>10.99</course>
  <speed>0.0</speed>
  <fix>3d</fix>
</trkpt>
<trkpt lat="-27.2744388" lon="151.290064">
  <ele>343.1</ele>
  <time>2026-09-01T19:54:38Z</time>
  <course>0.01</course>
  <speed>0.0</speed>
  <fix>3d</fix>
</trkpt>
<trkpt lat="-27.2744388" lon="151.290064">
  <ele>343.33</ele>
  <time>2026-09-01T19:54:38Z</time>
  <course>10.99</course>
  <speed>0.0</speed>
  <fix>3d</fix>
</trkpt>
<trkpt lat="-27.2744388" lon="151.290064">
  <ele>343.1</ele>
  <time>2026-09-01T19:54:38Z</time>
  <course>349.1</course>
  <speed>0.0</speed>
  <fix>3d</fix>
</trkpt>
<trkpt lat="-27.2744388" lon="151.290064">
  <ele>342.96</ele>
  <time>2026-09-01T19:54:38Z</time>
  <course>10.99</course>
  <speed>0.0</speed>
  <fix>3d</fix>
</trkpt>
<trkpt lat="-27.2744388" lon="151.290064">
  <ele>343.1</ele>
  <time>2026-09-01T19:54:38Z</time>
  <course>349.1</course>
  <speed>0.0</speed>
  <fix>3d</fix>
</trkpt>
<trkpt lat="-27.2744388" lon="151.290064">
  <ele>342.97</ele>
  <time>2026-09-01T19:54:38Z</time>
  <course>10.99</course>
  <speed>0.0</speed>
  <fix>3d</fix>
</trkpt>
<trkpt lat="-27.2744388" lon="151.290064">
  <ele>343.1</ele>
  <time>2026-09-01T19:54:38Z</time>
  <course>0.61</course>
  <speed>0.0</speed>
  <fix>3d</fix>
</trkpt>
<trkpt lat="-27.2744388" lon="151.290064">
  <ele>342.83</ele>
  <time>2026-09-01T19:54:38Z</time>
  <course>10.99</course>
  <speed>0.0</speed>
  <fix>3d</fix>
</trkpt>
<trkpt lat="-27.2744388" lon="151.290064">
  <ele>343.1</ele>
  <time>2026-09-01T19:54:38Z</time>
  <course>0.61</course>
  <speed>0.0</speed>
  <fix>3d</fix>
</trkpt>
<trkpt lat="-27.2744388" lon="151.290064">
  <ele>342.84</ele>
  <time>2026-09-01T19:54:38Z</time>
  <course>10.99</course>
  <speed>0.0</speed>
  <fix>3d</fix>
</trkpt>
<trkpt lat="-27.2744388" lon="151.290064">
  <ele>343.1</ele>
  <time>2026-09-01T19:54:38Z</time>
  <course>46.05</course>
  <speed>0.0</speed>
  <fix>3d</fix>
</trkpt>
<trkpt lat="-27.2744388" lon="151.290064">
  <ele>342.75</ele>
  <time>2026-09-01T19:54:38Z</time>
  <course>10.99</course>
  <speed>0.0</speed>
  <fix>3d</fix>
</trkpt>
<trkpt lat="-27.2744388" lon="151.290064">
  <ele>343.1</ele>
  <time>2026-09-01T19:54:38Z</time>
  <course>46.05</course>
  <speed>0.0</speed>
  <fix>3d</fix>
</trkpt>
<trkpt lat="-27.2744388" lon="151.290064">
  <ele>343.03</ele>
  <time>2026-09-01T19:54:38Z</time>
  <course>10.99</course>
  <speed>0.0</speed>
  <fix>3d</fix>
</trkpt>
<trkpt lat="-27.2744388" lon="151.290064">
  <ele>343.1</ele>
  <time>2026-09-01T19:54:38Z</time>
  <course>39.37</course>
  <speed>0.0</speed>
  <fix>3d</fix>
</trkpt>
<trkpt lat="-27.2744388" lon="151.290064">
  <ele>342.8</ele>
  <time>2026-09-01T19:54:38Z</time>
  <course>10.99</course>
  <speed>0.0</speed>
  <fix>3d</fix>
</trkpt>
<trkpt lat="-27.2744388" lon="151.290064">
  <ele>343.1</ele>
  <time>2026-09-01T19:54:38Z</time>
  <course>39.37</course>
  <speed>0.0</speed>
  <fix>3d</fix>
</trkpt>
<trkpt lat="-27.2744388" lon="151.290064">
  <ele>343.05</ele>
  <time>2026-09-01T19:54:38Z</time>
  <course>10.99</course>
  <speed>0.0</speed>
  <fix>3d</fix>
</trkpt>
<trkpt lat="-27.2744388" lon="151.290064">
  <ele>343.1</ele>
  <time>2026-09-01T19:54:38Z</time>
  <course>359.57</course>
  <speed>0.0</speed>
  <fix>3d</fix>
</trkpt>
<trkpt lat="-27.2744388" lon="151.290064">
  <ele>343.03</ele>
  <time>2026-09-01T19:54:38Z</time>
  <course>10.99</course>
  <speed>0.0</speed>
  <fix>3d</fix>
</trkpt>
<trkpt lat="-27.2744388" lon="151.290064">
  <ele>343.1</ele>
  <time>2026-09-01T19:54:38Z</time>
  <course>359.57</course>
  <speed>0.0</speed>
  <fix>3d</fix>
</trkpt>
<trkpt lat="-27.2744388" lon="151.290064">
  <ele>342.88</ele>
  <time>2026-09-01T19:54:38Z</time>
  <course>10.99</course>
  <speed>0.0</speed>
  <fix>3d</fix>
</trkpt>
<trkpt lat="-27.2744388" lon="151.290064">
  <ele>343.1</ele>
  <time>2026-09-01T19:54:38Z</time>
  <course>358.8</course>
  <speed>0.0</speed>
  <fix>3d</fix>
</trkpt>
<trkpt lat="-27.2744388" lon="151.290064">
  <ele>342.83</ele>
  <time>2026-09-01T19:54:38Z</time>
  <course>10.99</course>
  <speed>0.0</speed>
  <fix>3d</fix>
</trkpt>
<trkpt lat="-27.2744388" lon="151.290064">
  <ele>343.1</ele>
  <time>2026-09-01T19:54:38Z</time>
  <course>358.8</course>
  <speed>0.0</speed>
  <fix>3d</fix>
</trkpt>
<trkpt lat="-27.2744388" lon="151.290064">
  <ele>342.87</ele>
  <time>2026-09-01T19:54:38Z</time>
  <course>10.99</course>
  <speed>0.0</speed>
  <fix>3d</fix>
</trkpt>
<trkpt lat="-27.2744388" lon="151.290064">
  <ele>343.1</ele>
  <time>2026-09-01T19:54:38Z</time>
  <course>12.66</course>
  <speed>0.0</speed>
  <fix>3d</fix>
</trkpt>
<trkpt lat="-27.2744388" lon="151.290064">
  <ele>342.78</ele>
  <time>2026-09-01T19:54:38Z</time>
  <course>10.99</course>
  <speed>0.0</speed>
  <fix>3d</fix>
</trkpt>
<trkpt lat="-27.2744388" lon="151.290064">
  <ele>343.1</ele>
  <time>2026-09-01T19:54:38Z</time>
  <course>12.66</course>
  <speed>0.0</speed>
  <fix>3d</fix>
</trkpt>
<trkpt lat="-27.2744388" lon="151.290064">
  <ele>342.8</ele>
  <time>2026-09-01T19:54:38Z</time>
  <course>10.99</course>
  <speed>0.0</speed>
  <fix>3d</fix>
</trkpt>
<trkpt lat="-27.2744388" lon="151.290064">
  <ele>343.1</ele>
  <time>2026-09-01T19:54:38Z</time>
  <course>354.57</course>
  <speed>0.0</speed>
  <fix>3d</fix>
</trkpt>
<trkpt lat="-27.2744388" lon="151.290064">
  <ele>342.9</ele>
  <time>2026-09-01T19:54:38Z</time>
  <course>10.99</course>
  <speed>0.0</speed>
  <fix>3d</fix>
</trkpt>
<trkpt lat="-27.2744388" lon="151.290064">
  <ele>343.1</ele>
  <time>2026-09-01T19:54:38Z</time>
  <course>354.57</course>
  <speed>0.0</speed>
  <fix>3d</fix>
</trkpt>
<trkpt lat="-27.2744388" lon="151.290064">
  <ele>342.82</ele>
  <time>2026-09-01T19:54:38Z</time>
  <course>10.99</course>
  <speed>0.0</speed>
  <fix>3d</fix>
</trkpt>
<trkpt lat="-27.2744388" lon="151.290064">
  <ele>343.1</ele>
  <time>2026-09-01T19:54:38Z</time>
  <course>356.25</course>
  <speed>0.0</speed>
  <fix>3d</fix>
</trkpt>
<trkpt lat="-27.2744388" lon="151.290064">
  <ele>342.8</ele>
  <time>2026-09-01T19:54:38Z</time>
  <course>10.99</course>
  <speed>0.0</speed>
  <fix>3d</fix>
</trkpt>
<trkpt lat="-27.2744388" lon="151.290064">
  <ele>343.1</ele>
  <time>2026-09-01T19:54:38Z</time>
  <course>356.25</course>
  <speed>0.0</speed>
  <fix>3d</fix>
</trkpt>
<trkpt lat="-27.2744388" lon="151.290064">
  <ele>342.8</ele>
  <time>2026-09-01T19:54:38Z</time>
  <course>10.99</course>
  <speed>0.0</speed>
  <fix>3d</fix>
</trkpt>
<trkpt lat="-27.2744388" lon="151.290064">
  <ele>343.1</ele>
  <time>2026-09-01T19:54:38Z</time>
  <course>14.89</course>
  <speed>0.0</speed>
  <fix>3d</fix>
</trkpt>
<trkpt lat="-27.2744388" lon="151.290064">
  <ele>342.83</ele>
  <time>2026-09-01T19:54:38Z</time>
  <course>10.99</course>
  <speed>0.0</speed>
  <fix>3d</fix>
</trkpt>
<trkpt lat="-27.2744388" lon="151.290064">
  <ele>343.1</ele>
  <time>2026-09-01T19:54:38Z</time>
  <course>14.89</course>
  <speed>0.0</speed>
  <fix>3d</fix>
</trkpt>
<trkpt lat="-27.2744388" lon="151.290064">
  <ele>343.04</ele>
  <time>2026-09-01T19:54:38Z</time>
  <course>10.99</course>
  <speed>0.0</speed>
  <fix>3d</fix>
</trkpt>
<trkpt lat="-27.2744388" lon="151.290064">
  <ele>343.1</ele>
  <time>2026-09-01T19:54:38Z</time>
  <course>352.78</course>
  <speed>0.0</speed>
  <fix>3d</fix>
</trkpt>
<trkpt lat="-27.2744388" lon="151.290064">
  <ele>342.99</ele>
  <time>2026-09-01T19:54:38Z</time>
  <course>10.99</course>
  <speed>0.0</speed>
  <fix>3d</fix>
</trkpt>
<trkpt lat="-27.2744388" lon="151.290064">
  <ele>343.1</ele>
  <time>2026-09-01T19:54:38Z</time>
  <course>352.78</course>
  <speed>0.0</speed>
  <fix>3d</fix>
</trkpt>
<trkpt lat="-27.2744388" lon="151.290064">
  <ele>342.99</ele>
  <time>2026-09-01T19:54:38Z</time>
  <course>10.99</course>
  <speed>0.0</speed>
  <fix>3d</fix>
</trkpt>
<trkpt lat="-27.2744388" lon="151.290064">
  <ele>343.1</ele>
  <time>2026-09-01T19:54:38Z</time>
  <course>356.9</course>
  <speed>0.0</speed>
  <fix>3d</fix>
</trkpt>
<trkpt lat="-27.2744388" lon="151.290064">
  <ele>342.95</ele>
  <time>2026-09-01T19:54:38Z</time>
  <course>10.99</course>
  <speed>0.0</speed>
  <fix>3d</fix>
</trkpt>
<trkpt lat="-27.2744388" lon="151.290064">
  <ele>343.1</ele>
  <time>2026-09-01T19:54:38Z</time>
  <course>356.9</course>
  <speed>0.0</speed>
  <fix>3d</fix>
</trkpt>
<trkpt lat="-27.2744388" lon="151.290064">
  <ele>343.0</ele>
  <time>2026-09-01T19:54:38Z</time>
  <course>10.99</course>
  <speed>0.0</speed>
  <fix>3d</fix>
</trkpt>
<trkpt lat="-27.2744388" lon="151.290064">
  <ele>343.1</ele>
  <time>2026-09-01T19:54:38Z</time>
  <course>7.05</course>
  <speed>0.0</speed>
  <fix>3d</fix>
</trkpt>
<trkpt lat="-27.2744388" lon="151.290064">
  <ele>343.01</ele>
  <time>2026-09-01T19:54:38Z</time>
  <course>10.99</course>
  <speed>0.0</speed>
  <fix>3d</fix>
</trkpt>
<trkpt lat="-27.2744388" lon="151.290064">
  <ele>343.1</ele>
  <time>2026-09-01T19:54:38Z</time>
  <course>7.05</course>
  <speed>0.0</speed>
  <fix>3d</fix>
</trkpt>
<trkpt lat="-27.2744388" lon="151.290064">
  <ele>342.8</ele>
  <time>2026-09-01T19:54:38Z</time>
  <course>10.99</course>
  <speed>0.0</speed>
  <fix>3d</fix>
</trkpt>
<trkpt lat="-27.2744388" lon="151.290064">
  <ele>343.1</ele>
  <time>2026-09-01T19:54:38Z</time>
  <course>0.16</course>
  <speed>0.0</speed>
  <fix>3d</fix>
</trkpt>
<trkpt lat="-27.2744388" lon="151.290064">
  <ele>342.93</ele>
  <time>2026-09-01T19:54:38Z</time>
  <course>10.99</course>
  <speed>0.0</speed>
  <fix>3d</fix>
</trkpt>
<trkpt lat="-27.2744388" lon="151.290064">
  <ele>343.1</ele>
  <time>2026-09-01T19:54:38Z</time>
  <course>0.16</course>
  <speed>0.0</speed>
  <fix>3d</fix>
</trkpt>
<trkpt lat="-27.2744388" lon="151.290064">
  <ele>342.7</ele>
  <time>2026-09-01T19:54:38Z</time>
  <course>10.99</course>
  <speed>0.0</speed>
  <fix>3d</fix>
</trkpt>
<trkpt lat="-27.2744388" lon="151.290064">
  <ele>343.1</ele>
  <time>2026-09-01T19:54:38Z</time>
  <course>2.99</course>
  <speed>0.0</speed>
  <fix>3d</fix>
</trkpt>
<trkpt lat="-27.2744388" lon="151.290064">
  <ele>342.98</ele>
  <time>2026-09-01T19:54:38Z</time>
  <course>10.99</course>
  <speed>0.0</speed>
  <fix>3d</fix>
</trkpt>
<trkpt lat="-27.2744388" lon="151.290064">
  <ele>343.1</ele>
  <time>2026-09-01T19:54:38Z</time>
  <course>2.99</course>
  <speed>0.0</speed>
  <fix>3d</fix>
</trkpt>
<trkpt lat="-27.2744388" lon="151.290064">
  <ele>342.89</ele>
  <time>2026-09-01T19:54:38Z</time>
  <course>10.99</course>
  <speed>0.0</speed>
  <fix>3d</fix>
</trkpt>
<trkpt lat="-27.2744388" lon="151.290064">
  <ele>343.1</ele>
  <time>2026-09-01T19:54:38Z</time>
  <course>14.72</course>
  <speed>0.0</speed>
  <fix>3d</fix>
</trkpt>
<trkpt lat="-27.2744388" lon="151.290064">
  <ele>342.96</ele>
  <time>2026-09-01T19:54:38Z</time>
  <course>10.99</course>
  <speed>0.0</speed>
  <fix>3d</fix>
</trkpt>
<trkpt lat="-27.2744388" lon="151.290064">
  <ele>343.1</ele>
  <time>2026-09-01T19:54:38Z</time>
  <course>14.72</course>
  <speed>0.0</speed>
  <fix>3d</fix>
</trkpt>
<trkpt lat="-27.2744388" lon="151.290064">
  <ele>342.7</ele>
  <time>2026-09-01T19:54:38Z</time>
  <course>10.99</course>
  <speed>0.0</speed>
  <fix>3d</fix>
</trkpt>
<trkpt lat="-27.2744388" lon="151.290064">
  <ele>343.1</ele>
  <time>2026-09-01T19:54:38Z</time>
  <course>25.08</course>
  <speed>0.0</speed>
  <fix>3d</fix>
</trkpt>
<trkpt lat="-27.2744388" lon="151.290064">
  <ele>342.96</ele>
  <time>2026-09-01T19:54:38Z</time>
  <course>10.99</course>
  <speed>0.0</speed>
  <fix>3d</fix>
</trkpt>
<trkpt lat="-27.2744388" lon="151.290064">
  <ele>343.1</ele>
  <time>2026-09-01T19:54:38Z</time>
  <course>25.08</course>
  <speed>0.0</speed>
  <fix>3d</fix>
</trkpt>
<trkpt lat="-27.2744388" lon="151.290064">
  <ele>343.0</ele>
  <time>2026-09-01T19:54:38Z</time>
  <course>10.99</course>
  <speed>0.0</speed>
  <fix>3d</fix>
</trkpt>
<trkpt lat="-27.2744388" lon="151.290064">
  <ele>343.1</ele>
  <time>2026-09-01T19:54:38Z</time>
  <course>21.25</course>
  <speed>0.0</speed>
  <fix>3d</fix>
</trkpt>
<trkpt lat="-27.2744388" lon="151.290064">
  <ele>342.98</ele>
  <time>2026-09-01T19:54:38Z</time>
  <course>10.99</course>
  <speed>0.0</speed>
  <fix>3d</fix>
</trkpt>
<trkpt lat="-27.2744388" lon="151.290064">
  <ele>343.1</ele>
  <time>2026-09-01T19:54:38Z</time>
  <course>21.25</course>
  <speed>0.0</speed>
  <fix>3d</fix>
</trkpt>
<trkpt lat="-27.2744388" lon="151.290064">
  <ele>343.08</ele>
  <time>2026-09-01T19:54:38Z</time>
  <course>10.99</course>
  <speed>0.0</speed>
  <fix>3d</fix>
</trkpt>
<trkpt lat="-27.2744388" lon="151.290064">
  <ele>343.1</ele>
  <time>2026-09-01T19:54:38Z</time>
  <course>2.57</course>
  <speed>0.0</speed>
  <fix>3d</fix>
</trkpt>
<trkpt lat="-27.2744388" lon="151.290064">
  <ele>342.82</ele>
  <time>2026-09-01T19:54:38Z</time>
  <course>10.99</course>
  <speed>0.0</speed>
  <fix>3d</fix>
</trkpt>
<trkpt lat="-27.2744388" lon="151.290064">
  <ele>343.1</ele>
  <time>2026-09-01T19:54:38Z</time>
  <course>2.57</course>
  <speed>0.0</speed>
  <fix>3d</fix>
</trkpt>
<trkpt lat="-27.2744388" lon="151.290064">
  <ele>342.78</ele>
  <time>2026-09-01T19:54:38Z</time>
  <course>10.99</course>
  <speed>0.0</speed>
  <fix>3d</fix>
</trkpt>
<trkpt lat="-27.2744388" lon="151.290064">
  <ele>343.1</ele>
  <time>2026-09-01T19:54:38Z</time>
  <course>9.27</course>
  <speed>0.0</speed>
  <fix>3d</fix>
</trkpt>
<trkpt lat="-27.2744388" lon="151.290064">
  <ele>342.98</ele>
  <time>2026-09-01T19:54:38Z</time>
  <course>10.99</course>
  <speed>0.0</speed>
  <fix>3d</fix>
</trkpt>
<trkpt lat="-27.2744388" lon="151.290064">
  <ele>343.1</ele>
  <time>2026-09-01T19:54:38Z</time>
  <course>9.27</course>
  <speed>0.0</speed>
  <fix>3d</fix>
</trkpt>
<trkpt lat="-27.2744388" lon="151.290064">
  <ele>342.9</ele>
  <time>2026-09-01T19:54:38Z</time>
  <course>10.99</course>
  <speed>0.0</speed>
  <fix>3d</fix>
</trkpt>
<trkpt lat="-27.2744388" lon="151.290064">
  <ele>343.1</ele>
  <time>2026-09-01T19:54:38Z</time>
  <course>10.05</course>
  <speed>0.0</speed>
  <fix>3d</fix>
</trkpt>
<trkpt lat="-27.2744388" lon="151.290064">
  <ele>343.0</ele>
  <time>2026-09-01T19:54:39Z</time>
  <course>10.99</course>
  <speed>0.0</speed>
  <fix>3d</fix>
</trkpt>
<trkpt lat="-27.2744388" lon="151.290064">
  <ele>343.1</ele>
  <time>2026-09-01T19:54:39Z</time>
  <course>10.05</course>
  <speed>0.0</speed>
  <fix>3d</fix>
</trkpt>
<trkpt lat="-27.2744388" lon="151.290064">
  <ele>342.9</ele>
  <time>2026-09-01T19:54:39Z</time>
  <course>10.99</course>
  <speed>0.0</speed>
  <fix>3d</fix>
</trkpt>
<trkpt lat="-27.2744388" lon="151.290064">
  <ele>343.1</ele>
  <time>2026-09-01T19:54:39Z</time>
  <course>3.7</course>
  <speed>0.0</speed>
  <fix>3d</fix>
</trkpt>
<trkpt lat="-27.2744388" lon="151.290064">
  <ele>342.91</ele>
  <time>2026-09-01T19:54:39Z</time>
  <course>10.99</course>
  <speed>0.0</speed>
  <fix>3d</fix>
</trkpt>
<trkpt lat="-27.2744388" lon="151.290064">
  <ele>343.1</ele>
  <time>2026-09-01T19:54:39Z</time>
  <course>3.7</course>
  <speed>0.0</speed>
  <fix>3d</fix>
</trkpt>
<trkpt lat="-27.2744388" lon="151.290064">
  <ele>342.83</ele>
  <time>2026-09-01T19:54:39Z</time>
  <course>10.99</course>
  <speed>0.0</speed>
  <fix>3d</fix>
</trkpt>
<trkpt lat="-27.2744388" lon="151.290064">
  <ele>343.1</ele>
  <time>2026-09-01T19:54:39Z</time>
  <course>15.23</course>
  <speed>0.0</speed>
  <fix>3d</fix>
</trkpt>
<trkpt lat="-27.2744388" lon="151.290064">
  <ele>342.74</ele>
  <time>2026-09-01T19:54:39Z</time>
  <course>10.99</course>
  <speed>0.0</speed>
  <fix>3d</fix>
</trkpt>
<trkpt lat="-27.2744388" lon="151.290064">
  <ele>343.1</ele>
  <time>2026-09-01T19:54:39Z</time>
  <course>15.23</course>
  <speed>0.0</speed>
  <fix>3d</fix>
</trkpt>
<trkpt lat="-27.2744388" lon="151.290064">
  <ele>342.89</ele>
  <time>2026-09-01T19:54:39Z</time>
  <course>10.99</course>
  <speed>0.0</speed>
  <fix>3d</fix>
</trkpt>
<trkpt lat="-27.2744388" lon="151.290064">
  <ele>343.1</ele>
  <time>2026-09-01T19:54:39Z</time>
  <course>8.81</course>
  <speed>0.0</speed>
  <fix>3d</fix>
</trkpt>
<trkpt lat="-27.2744388" lon="151.290064">
  <ele>342.87</ele>
  <time>2026-09-01T19:54:39Z</time>
  <course>10.99</course>
  <speed>0.0</speed>
  <fix>3d</fix>
</trkpt>
<trkpt lat="-27.2744388" lon="151.290064">
  <ele>343.1</ele>
  <time>2026-09-01T19:54:39Z</time>
  <course>8.81</course>
  <speed>0.0</speed>
  <fix>3d</fix>
</trkpt>
<trkpt lat="-27.2744388" lon="151.290064">
  <ele>342.92</ele>
  <time>2026-09-01T19:54:39Z</time>
  <course>10.99</course>
  <speed>0.0</speed>
  <fix>3d</fix>
</trkpt>
<trkpt lat="-27.2744388" lon="151.290064">
  <ele>343.1</ele>
  <time>2026-09-01T19:54:39Z</time>
  <course>3.88</course>
  <speed>0.0</speed>
  <fix>3d</fix>
</trkpt>
<trkpt lat="-27.2744388" lon="151.290064">
  <ele>343.01</ele>
  <time>2026-09-01T19:54:39Z</time>
  <course>10.99</course>
  <speed>0.0</speed>
  <fix>3d</fix>
</trkpt>
<trkpt lat="-27.2744388" lon="151.290064">
  <ele>343.1</ele>
  <time>2026-09-01T19:54:39Z</time>
  <course>3.88</course>
  <speed>0.0</speed>
  <fix>3d</fix>
</trkpt>
<trkpt lat="-27.2744388" lon="151.290064">
  <ele>342.9</ele>
  <time>2026-09-01T19:54:39Z</time>
  <course>10.99</course>
  <speed>0.0</speed>
  <fix>3d</fix>
</trkpt>
<trkpt lat="-27.2744388" lon="151.290064">
  <ele>343.1</ele>
  <time>2026-09-01T19:54:39Z</time>
  <course>4.34</course>
  <speed>0.0</speed>
  <fix>3d</fix>
</trkpt>
<trkpt lat="-27.2744388" lon="151.290064">
  <ele>342.71</ele>
  <time>2026-09-01T19:54:39Z</time>
  <course>10.99</course>
  <speed>0.0</speed>
  <fix>3d</fix>
</trkpt>
<trkpt lat="-27.2744388" lon="151.290064">
  <ele>343.1</ele>
  <time>2026-09-01T19:54:39Z</time>
  <course>4.34</course>
  <speed>0.0</speed>
  <fix>3d</fix>
</trkpt>
<trkpt lat="-27.2744388" lon="151.290064">
  <ele>343.05</ele>
  <time>2026-09-01T19:54:39Z</time>
  <course>10.99</course>
  <speed>0.0</speed>
  <fix>3d</fix>
</trkpt>
<trkpt lat="-27.2744388" lon="151.290064">
  <ele>343.1</ele>
  <time>2026-09-01T19:54:39Z</time>
  <course>5.17</course>
  <speed>0.0</speed>
  <fix>3d</fix>
</trkpt>
<trkpt lat="-27.2744388" lon="151.290064">
  <ele>343.0</ele>
  <time>2026-09-01T19:54:39Z</time>
  <course>10.98</course>
  <speed>0.0</speed>
  <fix>3d</fix>
</trkpt>
<trkpt lat="-27.2744388" lon="151.290064">
  <ele>343.1</ele>
  <time>2026-09-01T19:54:39Z</time>
  <course>5.17</course>
  <speed>0.0</speed>
  <fix>3d</fix>
</trkpt>
<trkpt lat="-27.2744388" lon="151.290064">
  <ele>342.8</ele>
  <time>2026-09-01T19:54:39Z</time>
  <course>10.98</course>
  <speed>0.0</speed>
  <fix>3d</fix>
</trkpt>
<trkpt lat="-27.2744388" lon="151.290064">
  <ele>343.1</ele>
  <time>2026-09-01T19:54:39Z</time>
  <course>8.24</course>
  <speed>0.0</speed>
  <fix>3d</fix>
</trkpt>
<trkpt lat="-27.2744388" lon="151.290064">
  <ele>342.85</ele>
  <time>2026-09-01T19:54:39Z</time>
  <course>10.98</course>
  <speed>0.0</speed>
  <fix>3d</fix>
</trkpt>
<trkpt lat="-27.2744388" lon="151.290064">
  <ele>343.1</ele>
  <time>2026-09-01T19:54:39Z</time>
  <course>8.24</course>
  <speed>0.0</speed>
  <fix>3d</fix>
</trkpt>
<trkpt lat="-27.2744388" lon="151.290064">
  <ele>342.96</ele>
  <time>2026-09-01T19:54:39Z</time>
  <course>10.98</course>
  <speed>0.0</speed>
  <fix>3d</fix>
</trkpt>
<trkpt lat="-27.2744388" lon="151.290064">
  <ele>343.1</ele>
  <time>2026-09-01T19:54:39Z</time>
  <course>19.93</course>
  <speed>0.0</speed>
  <fix>3d</fix>
</trkpt>
<trkpt lat="-27.2744388" lon="151.290064">
  <ele>342.82</ele>
  <time>2026-09-01T19:54:39Z</time>
  <course>10.98</course>
  <speed>0.0</speed>
  <fix>3d</fix>
</trkpt>
<trkpt lat="-27.2744388" lon="151.290064">
  <ele>343.1</ele>
  <time>2026-09-01T19:54:39Z</time>
  <course>19.93</course>
  <speed>0.0</speed>
  <fix>3d</fix>
</trkpt>
<trkpt lat="-27.2744388" lon="151.290064">
  <ele>342.75</ele>
  <time>2026-09-01T19:54:39Z</time>
  <course>10.97</course>
  <speed>0.0</speed>
  <fix>3d</fix>
</trkpt>
<trkpt lat="-27.2744388" lon="151.290064">
  <ele>343.1</ele>
  <time>2026-09-01T19:54:39Z</time>
  <course>14.53</course>
  <speed>0.0</speed>
  <fix>3d</fix>
</trkpt>
<trkpt lat="-27.2744388" lon="151.290064">
  <ele>343.08</ele>
  <time>2026-09-01T19:54:39Z</time>
  <course>10.97</course>
  <speed>0.0</speed>
  <fix>3d</fix>
</trkpt>
<trkpt lat="-27.2744388" lon="151.290064">
  <ele>343.1</ele>
  <time>2026-09-01T19:54:39Z</time>
  <course>14.53</course>
  <speed>0.0</speed>
  <fix>3d</fix>
</trkpt>
<trkpt lat="-27.2744388" lon="151.290064">
  <ele>343.03</ele>
  <time>2026-09-01T19:54:39Z</time>
  <course>10.97</course>
  <speed>0.0</speed>
  <fix>3d</fix>
</trkpt>
<trkpt lat="-27.2744388" lon="151.290064">
  <ele>343.1</ele>
  <time>2026-09-01T19:54:39Z</time>
  <course>13.35</course>
  <speed>0.0</speed>
  <fix>3d</fix>
</trkpt>
<trkpt lat="-27.2744388" lon="151.290064">
  <ele>342.94</ele>
  <time>2026-09-01T19:54:39Z</time>
  <course>10.97</course>
  <speed>0.0</speed>
  <fix>3d</fix>
</trkpt>
<trkpt lat="-27.2744388" lon="151.290064">
  <ele>343.1</ele>
  <time>2026-09-01T19:54:39Z</time>
  <course>13.35</course>
  <speed>0.0</speed>
  <fix>3d</fix>
</trkpt>
<trkpt lat="-27.2744388" lon="151.290064">
  <ele>342.93</ele>
  <time>2026-09-01T19:54:39Z</time>
  <course>10.97</course>
  <speed>0.0</speed>
  <fix>3d</fix>
</trkpt>
<trkpt lat="-27.2744388" lon="151.290064">
  <ele>343.1</ele>
  <time>2026-09-01T19:54:39Z</time>
  <course>5.47</course>
  <speed>0.0</speed>
  <fix>3d</fix>
</trkpt>
<trkpt lat="-27.2744388" lon="151.290064">
  <ele>343.08</ele>
  <time>2026-09-01T19:54:39Z</time>
  <course>10.97</course>
  <speed>0.0</speed>
  <fix>3d</fix>
</trkpt>
<trkpt lat="-27.2744388" lon="151.290064">
  <ele>343.1</ele>
  <time>2026-09-01T19:54:39Z</time>
  <course>5.47</course>
  <speed>0.0</speed>
  <fix>3d</fix>
</trkpt>
<trkpt lat="-27.2744388" lon="151.290064">
  <ele>342.85</ele>
  <time>2026-09-01T19:54:39Z</time>
  <course>10.96</course>
  <speed>0.0</speed>
  <fix>3d</fix>
</trkpt>
<trkpt lat="-27.2744388" lon="151.290064">
  <ele>343.1</ele>
  <time>2026-09-01T19:54:39Z</time>
  <course>17.38</course>
  <speed>0.0</speed>
  <fix>3d</fix>
</trkpt>
<trkpt lat="-27.2744388" lon="151.290064">
  <ele>342.86</ele>
  <time>2026-09-01T19:54:39Z</time>
  <course>10.96</course>
  <speed>0.0</speed>
  <fix>3d</fix>
</trkpt>
<trkpt lat="-27.2744388" lon="151.290064">
  <ele>343.1</ele>
  <time>2026-09-01T19:54:39Z</time>
  <course>17.38</course>
  <speed>0.0</speed>
  <fix>3d</fix>
</trkpt>
<trkpt lat="-27.2744388" lon="151.290064">
  <ele>342.83</ele>
  <time>2026-09-01T19:54:39Z</time>
  <course>10.96</course>
  <speed>0.0</speed>
  <fix>3d</fix>
</trkpt>
<trkpt lat="-27.2744388" lon="151.290064">
  <ele>343.1</ele>
  <time>2026-09-01T19:54:39Z</time>
  <course>355.64</course>
  <speed>0.0</speed>
  <fix>3d</fix>
</trkpt>
<trkpt lat="-27.2744388" lon="151.290064">
  <ele>343.14</ele>
  <time>2026-09-01T19:54:39Z</time>
  <course>10.96</course>
  <speed>0.0</speed>
  <fix>3d</fix>
</trkpt>
<trkpt lat="-27.2744388" lon="151.290064">
  <ele>343.1</ele>
  <time>2026-09-01T19:54:39Z</time>
  <course>355.64</course>
  <speed>0.0</speed>
  <fix>3d</fix>
</trkpt>
<trkpt lat="-27.2744388" lon="151.290064">
  <ele>343.03</ele>
  <time>2026-09-01T19:54:39Z</time>
  <course>10.96</course>
  <speed>0.0</speed>
  <fix>3d</fix>
</trkpt>
<trkpt lat="-27.2744388" lon="151.290064">
  <ele>343.1</ele>
  <time>2026-09-01T19:54:39Z</time>
  <course>2.09</course>
  <speed>0.0</speed>
  <fix>3d</fix>
</trkpt>
<trkpt lat="-27.2744388" lon="151.290064">
  <ele>342.82</ele>
  <time>2026-09-01T19:54:39Z</time>
  <course>10.96</course>
  <speed>0.0</speed>
  <fix>3d</fix>
</trkpt>
<trkpt lat="-27.2744388" lon="151.290064">
  <ele>343.1</ele>
  <time>2026-09-01T19:54:39Z</time>
  <course>2.09</course>
  <speed>0.0</speed>
  <fix>3d</fix>
</trkpt>
<trkpt lat="-27.2744388" lon="151.290064">
  <ele>342.93</ele>
  <time>2026-09-01T19:54:39Z</time>
  <course>10.95</course>
  <speed>0.0</speed>
  <fix>3d</fix>
</trkpt>
<trkpt lat="-27.2744388" lon="151.290064">
  <ele>343.1</ele>
  <time>2026-09-01T19:54:39Z</time>
  <course>14.36</course>
  <speed>0.0</speed>
  <fix>3d</fix>
</trkpt>
<trkpt lat="-27.2744388" lon="151.290064">
  <ele>342.82</ele>
  <time>2026-09-01T19:54:39Z</time>
  <course>10.95</course>
  <speed>0.0</speed>
  <fix>3d</fix>
</trkpt>
<trkpt lat="-27.2744388" lon="151.290064">
  <ele>343.1</ele>
  <time>2026-09-01T19:54:39Z</time>
  <course>14.36</course>
  <speed>0.0</speed>
  <fix>3d</fix>
</trkpt>
<trkpt lat="-27.2744388" lon="151.290064">
  <ele>342.83</ele>
  <time>2026-09-01T19:54:39Z</time>
  <course>10.95</course>
  <speed>0.0</speed>
  <fix>3d</fix>
</trkpt>
<trkpt lat="-27.2744388" lon="151.290064">
  <ele>343.1</ele>
  <time>2026-09-01T19:54:39Z</time>
  <course>12.82</course>
  <speed>0.0</speed>
  <fix>3d</fix>
</trkpt>
<trkpt lat="-27.2744388" lon="151.290064">
  <ele>342.9</ele>
  <time>2026-09-01T19:54:39Z</time>
  <course>10.95</course>
  <speed>0.0</speed>
  <fix>3d</fix>
</trkpt>
<trkpt lat="-27.2744388" lon="151.290064">
  <ele>343.1</ele>
  <time>2026-09-01T19:54:39Z</time>
  <course>12.82</course>
  <speed>0.0</speed>
  <fix>3d</fix>
</trkpt>
<trkpt lat="-27.2744388" lon="151.290064">
  <ele>342.83</ele>
  <time>2026-09-01T19:54:39Z</time>
  <course>10.95</course>
  <speed>0.0</speed>
  <fix>3d</fix>
</trkpt>
<trkpt lat="-27.2744388" lon="151.290064">
  <ele>343.1</ele>
  <time>2026-09-01T19:54:39Z</time>
  <course>11.36</course>
  <speed>0.0</speed>
  <fix>3d</fix>
</trkpt>
<trkpt lat="-27.2744388" lon="151.290064">
  <ele>343.04</ele>
  <time>2026-09-01T19:54:39Z</time>
  <course>10.95</course>
  <speed>0.0</speed>
  <fix>3d</fix>
</trkpt>
<trkpt lat="-27.2744388" lon="151.290064">
  <ele>343.1</ele>
  <time>2026-09-01T19:54:39Z</time>
  <course>11.36</course>
  <speed>0.0</speed>
  <fix>3d</fix>
</trkpt>
<trkpt lat="-27.2744388" lon="151.290064">
  <ele>342.98</ele>
  <time>2026-09-01T19:54:39Z</time>
  <course>10.94</course>
  <speed>0.0</speed>
  <fix>3d</fix>
</trkpt>
<trkpt lat="-27.2744388" lon="151.290064">
  <ele>343.1</ele>
  <time>2026-09-01T19:54:39Z</time>
  <course>354.72</course>
  <speed>0.0</speed>
  <fix>3d</fix>
</trkpt>
<trkpt lat="-27.2744388" lon="151.290064">
  <ele>342.99</ele>
  <time>2026-09-01T19:54:39Z</time>
  <course>10.94</course>
  <speed>0.0</speed>
  <fix>3d</fix>
</trkpt>
<trkpt lat="-27.2744388" lon="151.290064">
  <ele>343.1</ele>
  <time>2026-09-01T19:54:39Z</time>
  <course>354.72</course>
  <speed>0.0</speed>
  <fix>3d</fix>
</trkpt>
<trkpt lat="-27.2744388" lon="151.290064">
  <ele>342.98</ele>
  <time>2026-09-01T19:54:39Z</time>
  <course>10.94</course>
  <speed>0.0</speed>
  <fix>3d</fix>
</trkpt>
<trkpt lat="-27.2744388" lon="151.290064">
  <ele>343.1</ele>
  <time>2026-09-01T19:54:39Z</time>
  <course>356.37</course>
  <speed>0.0</speed>
  <fix>3d</fix>
</trkpt>
<trkpt lat="-27.2744388" lon="151.290064">
  <ele>342.9</ele>
  <time>2026-09-01T19:54:39Z</time>
  <course>10.94</course>
  <speed>0.0</speed>
  <fix>3d</fix>
</trkpt>
<trkpt lat="-27.2744388" lon="151.290064">
  <ele>343.1</ele>
  <time>2026-09-01T19:54:39Z</time>
  <course>356.37</course>
  <speed>0.0</speed>
  <fix>3d</fix>
</trkpt>
<trkpt lat="-27.2744388" lon="151.290064">
  <ele>343.03</ele>
  <time>2026-09-01T19:54:39Z</time>
  <course>10.94</course>
  <speed>0.0</speed>
  <fix>3d</fix>
</trkpt>
<trkpt lat="-27.2744388" lon="151.290064">
  <ele>343.1</ele>
  <time>2026-09-01T19:54:39Z</time>
  <course>7.2</course>
  <speed>0.0</speed>
  <fix>3d</fix>
</trkpt>
<trkpt lat="-27.2744388" lon="151.290064">
  <ele>343.11</ele>
  <time>2026-09-01T19:54:39Z</time>
  <course>10.94</course>
  <speed>0.0</speed>
  <fix>3d</fix>
</trkpt>
<trkpt lat="-27.2744388" lon="151.290064">
  <ele>343.1</ele>
  <time>2026-09-01T19:54:39Z</time>
  <course>7.2</course>
  <speed>0.0</speed>
  <fix>3d</fix>
</trkpt>
<trkpt lat="-27.2744388" lon="151.290064">
  <ele>342.98</ele>
  <time>2026-09-01T19:54:39Z</time>
  <course>10.94</course>
  <speed>0.0</speed>
  <fix>3d</fix>
</trkpt>
<trkpt lat="-27.2744388" lon="151.290064">
  <ele>343.1</ele>
  <time>2026-09-01T19:54:39Z</time>
  <course>20.01</course>
  <speed>0.0</speed>
  <fix>3d</fix>
</trkpt>
<trkpt lat="-27.2744388" lon="151.290064">
  <ele>343.06</ele>
  <time>2026-09-01T19:54:39Z</time>
  <course>10.93</course>
  <speed>0.0</speed>
  <fix>3d</fix>
</trkpt>
<trkpt lat="-27.2744388" lon="151.290064">
  <ele>343.1</ele>
  <time>2026-09-01T19:54:39Z</time>
  <course>20.01</course>
  <speed>0.0</speed>
  <fix>3d</fix>
</trkpt>
<trkpt lat="-27.2744388" lon="151.290064">
  <ele>342.9</ele>
  <time>2026-09-01T19:54:39Z</time>
  <course>10.93</course>
  <speed>0.0</speed>
  <fix>3d</fix>
</trkpt>
<trkpt lat="-27.2744388" lon="151.290064">
  <ele>343.1</ele>
  <time>2026-09-01T19:54:39Z</time>
  <course>358.01</course>
  <speed>0.0</speed>
  <fix>3d</fix>
</trkpt>
<trkpt lat="-27.2744388" lon="151.290064">
  <ele>342.79</ele>
  <time>2026-09-01T19:54:39Z</time>
  <course>10.93</course>
  <speed>0.0</speed>
  <fix>3d</fix>
</trkpt>
<trkpt lat="-27.2744388" lon="151.290064">
  <ele>343.1</ele>
  <time>2026-09-01T19:54:39Z</time>
  <course>358.01</course>
  <speed>0.0</speed>
  <fix>3d</fix>
</trkpt>
<trkpt lat="-27.2744388" lon="151.290064">
  <ele>343.08</ele>
  <time>2026-09-01T19:54:39Z</time>
  <course>10.93</course>
  <speed>0.0</speed>
  <fix>3d</fix>
</trkpt>
<trkpt lat="-27.2744388" lon="151.290064">
  <ele>343.1</ele>
  <time>2026-09-01T19:54:39Z</time>
  <course>359.04</course>
  <speed>0.0</speed>
  <fix>3d</fix>
</trkpt>
<trkpt lat="-27.2744388" lon="151.290064">
  <ele>342.99</ele>
  <time>2026-09-01T19:54:39Z</time>
  <course>10.93</course>
  <speed>0.0</speed>
  <fix>3d</fix>
</trkpt>
<trkpt lat="-27.2744388" lon="151.290064">
  <ele>343.1</ele>
  <time>2026-09-01T19:54:39Z</time>
  <course>359.04</course>
  <speed>0.0</speed>
  <fix>3d</fix>
</trkpt>
<trkpt lat="-27.2744388" lon="151.290064">
  <ele>342.95</ele>
  <time>2026-09-01T19:54:39Z</time>
  <course>10.93</course>
  <speed>0.0</speed>
  <fix>3d</fix>
</trkpt>
<trkpt lat="-27.2744388" lon="151.290064">
  <ele>343.1</ele>
  <time>2026-09-01T19:54:39Z</time>
  <course>4.74</course>
  <speed>0.0</speed>
  <fix>3d</fix>
</trkpt>
<trkpt lat="-27.2744388" lon="151.290064">
  <ele>342.8</ele>
  <time>2026-09-01T19:54:39Z</time>
  <course>10.93</course>
  <speed>0.0</speed>
  <fix>3d</fix>
</trkpt>
<trkpt lat="-27.2744388" lon="151.290064">
  <ele>343.1</ele>
  <time>2026-09-01T19:54:39Z</time>
  <course>4.74</course>
  <speed>0.0</speed>
  <fix>3d</fix>
</trkpt>
<trkpt lat="-27.2744387" lon="151.290064">
  <ele>343.01</ele>
  <time>2026-09-01T19:54:39Z</time>
  <course>10.93</course>
  <speed>0.0</speed>
  <fix>3d</fix>
</trkpt>
<trkpt lat="-27.2744387" lon="151.290064">
  <ele>343.1</ele>
  <time>2026-09-01T19:54:39Z</time>
  <course>4.23</course>
  <speed>0.0</speed>
  <fix>3d</fix>
</trkpt>
<trkpt lat="-27.2744387" lon="151.290064">
  <ele>342.78</ele>
  <time>2026-09-01T19:54:39Z</time>
  <course>10.93</course>
  <speed>0.0</speed>
  <fix>3d</fix>
</trkpt>
<trkpt lat="-27.2744387" lon="151.290064">
  <ele>343.1</ele>
  <time>2026-09-01T19:54:39Z</time>
  <course>4.23</course>
  <speed>0.0</speed>
  <fix>3d</fix>
</trkpt>
<trkpt lat="-27.2744387" lon="151.290064">
  <ele>342.81</ele>
  <time>2026-09-01T19:54:39Z</time>
  <course>10.92</course>
  <speed>0.0</speed>
  <fix>3d</fix>
</trkpt>
<trkpt lat="-27.2744387" lon="151.290064">
  <ele>343.1</ele>
  <time>2026-09-01T19:54:39Z</time>
  <course>7.4</course>
  <speed>0.0</speed>
  <fix>3d</fix>
</trkpt>
<trkpt lat="-27.2744387" lon="151.290064">
  <ele>342.85</ele>
  <time>2026-09-01T19:54:39Z</time>
  <course>10.92</course>
  <speed>0.0</speed>
  <fix>3d</fix>
</trkpt>
<trkpt lat="-27.2744387" lon="151.290064">
  <ele>343.1</ele>
  <time>2026-09-01T19:54:39Z</time>
  <course>7.4</course>
  <speed>0.0</speed>
  <fix>3d</fix>
</trkpt>
<trkpt lat="-27.2744387" lon="151.290064">
  <ele>342.78</ele>
  <time>2026-09-01T19:54:39Z</time>
  <course>10.92</course>
  <speed>0.0</speed>
  <fix>3d</fix>
</trkpt>
<trkpt lat="-27.2744387" lon="151.290064">
  <ele>343.1</ele>
  <time>2026-09-01T19:54:39Z</time>
  <course>36.79</course>
  <speed>0.0</speed>
  <fix>3d</fix>
</trkpt>
<trkpt lat="-27.2744387" lon="151.290064">
  <ele>342.79</ele>
  <time>2026-09-01T19:54:39Z</time>
  <course>10.92</course>
  <speed>0.0</speed>
  <fix>3d</fix>
</trkpt>
<trkpt lat="-27.2744387" lon="151.290064">
  <ele>343.1</ele>
  <time>2026-09-01T19:54:39Z</time>
  <course>36.79</course>
  <speed>0.0</speed>
  <fix>3d</fix>
</trkpt>
<trkpt lat="-27.2744387" lon="151.290064">
  <ele>342.9</ele>
  <time>2026-09-01T19:54:39Z</time>
  <course>10.92</course>
  <speed>0.0</speed>
  <fix>3d</fix>
</trkpt>
<trkpt lat="-27.2744387" lon="151.290064">
  <ele>343.1</ele>
  <time>2026-09-01T19:54:39Z</time>
  <course>16.71</course>
  <speed>0.0</speed>
  <fix>3d</fix>
</trkpt>
<trkpt lat="-27.2744387" lon="151.290064">
  <ele>342.98</ele>
  <time>2026-09-01T19:54:39Z</time>
  <course>10.92</course>
  <speed>0.0</speed>
  <fix>3d</fix>
</trkpt>
<trkpt lat="-27.2744387" lon="151.290064">
  <ele>343.1</ele>
  <time>2026-09-01T19:54:39Z</time>
  <course>16.71</course>
  <speed>0.0</speed>
  <fix>3d</fix>
</trkpt>
<trkpt lat="-27.2744387" lon="151.290064">
  <ele>342.77</ele>
  <time>2026-09-01T19:54:39Z</time>
  <course>10.92</course>
  <speed>0.0</speed>
  <fix>3d</fix>
</trkpt>
<trkpt lat="-27.2744387" lon="151.290064">
  <ele>343.1</ele>
  <time>2026-09-01T19:54:39Z</time>
  <course>7.42</course>
  <speed>0.0</speed>
  <fix>3d</fix>
</trkpt>
<trkpt lat="-27.2744387" lon="151.290064">
  <ele>342.95</ele>
  <time>2026-09-01T19:54:39Z</time>
  <course>10.92</course>
  <speed>0.0</speed>
  <fix>3d</fix>
</trkpt>
<trkpt lat="-27.2744387" lon="151.290064">
  <ele>343.1</ele>
  <time>2026-09-01T19:54:39Z</time>
  <course>7.42</course>
  <speed>0.0</speed>
  <fix>3d</fix>
</trkpt>
<trkpt lat="-27.2744387" lon="151.290064">
  <ele>343.03</ele>
  <time>2026-09-01T19:54:39Z</time>
  <course>10.92</course>
  <speed>0.0</speed>
  <fix>3d</fix>
</trkpt>
<trkpt lat="-27.2744387" lon="151.290064">
  <ele>343.1</ele>
  <time>2026-09-01T19:54:39Z</time>
  <course>8.06</course>
  <speed>0.0</speed>
  <fix>3d</fix>
</trkpt>
<trkpt lat="-27.2744387" lon="151.290064">
  <ele>342.83</ele>
  <time>2026-09-01T19:54:39Z</time>
  <course>10.92</course>
  <speed>0.0</speed>
  <fix>3d</fix>
</trkpt>
<trkpt lat="-27.2744387" lon="151.290064">
  <ele>343.1</ele>
  <time>2026-09-01T19:54:39Z</time>
  <course>8.06</course>
  <speed>0.0</speed>
  <fix>3d</fix>
</trkpt>
<trkpt lat="-27.2744387" lon="151.290064">
  <ele>342.86</ele>
  <time>2026-09-01T19:54:39Z</time>
  <course>10.91</course>
  <speed>0.0</speed>
  <fix>3d</fix>
</trkpt>
<trkpt lat="-27.2744387" lon="151.290064">
  <ele>343.09</ele>
  <time>2026-09-01T19:54:39Z</time>
  <course>18.31</course>
  <speed>0.0</speed>
  <fix>3d</fix>
</trkpt>
<trkpt lat="-27.2744387" lon="151.290064">
  <ele>342.75</ele>
  <time>2026-09-01T19:54:39Z</time>
  <course>10.91</course>
  <speed>0.0</speed>
  <fix>3d</fix>
</trkpt>
<trkpt lat="-27.2744387" lon="151.290064">
  <ele>343.09</ele>
  <time>2026-09-01T19:54:39Z</time>
  <course>18.31</course>
  <speed>0.0</speed>
  <fix>3d</fix>
</trkpt>
<trkpt lat="-27.2744387" lon="151.290064">
  <ele>343.0</ele>
  <time>2026-09-01T19:54:39Z</time>
  <course>10.91</course>
  <speed>0.0</speed>
  <fix>3d</fix>
</trkpt>
<trkpt lat="-27.2744387" lon="151.290064">
  <ele>343.09</ele>
  <time>2026-09-01T19:54:39Z</time>
  <course>59.62</course>
  <speed>0.0</speed>
  <fix>3d</fix>
</trkpt>
<trkpt lat="-27.2744387" lon="151.290064">
  <ele>343.07</ele>
  <time>2026-09-01T19:54:39Z</time>
  <course>10.9</course>
  <speed>0.0</speed>
  <fix>3d</fix>
</trkpt>
<trkpt lat="-27.2744387" lon="151.290064">
  <ele>343.09</ele>
  <time>2026-09-01T19:54:39Z</time>
  <course>59.62</course>
  <speed>0.0</speed>
  <fix>3d</fix>
</trkpt>
<trkpt lat="-27.2744387" lon="151.290064">
  <ele>342.81</ele>
  <time>2026-09-01T19:54:39Z</time>
  <course>10.9</course>
  <speed>0.0</speed>
  <fix>3d</fix>
</trkpt>
<trkpt lat="-27.2744387" lon="151.290064">
  <ele>343.09</ele>
  <time>2026-09-01T19:54:39Z</time>
  <course>17.97</course>
  <speed>0.0</speed>
  <fix>3d</fix>
</trkpt>
<trkpt lat="-27.2744387" lon="151.290064">
  <ele>343.11</ele>
  <time>2026-09-01T19:54:39Z</time>
  <course>10.9</course>
  <speed>0.0</speed>
  <fix>3d</fix>
</trkpt>
<trkpt lat="-27.2744387" lon="151.290064">
  <ele>343.09</ele>
  <time>2026-09-01T19:54:39Z</time>
  <course>17.97</course>
  <speed>0.0</speed>
  <fix>3d</fix>
</trkpt>
<trkpt lat="-27.2744387" lon="151.290064">
  <ele>342.84</ele>
  <time>2026-09-01T19:54:39Z</time>
  <course>10.9</course>
  <speed>0.0</speed>
  <fix>3d</fix>
</trkpt>
<trkpt lat="-27.2744387" lon="151.290064">
  <ele>343.09</ele>
  <time>2026-09-01T19:54:39Z</time>
  <course>6.75</course>
  <speed>0.0</speed>
  <fix>3d</fix>
</trkpt>
<trkpt lat="-27.2744387" lon="151.290064">
  <ele>343.0</ele>
  <time>2026-09-01T19:54:39Z</time>
  <course>10.89</course>
  <speed>0.0</speed>
  <fix>3d</fix>
</trkpt>
<trkpt lat="-27.2744387" lon="151.290064">
  <ele>343.09</ele>
  <time>2026-09-01T19:54:39Z</time>
  <course>6.75</course>
  <speed>0.0</speed>
  <fix>3d</fix>
</trkpt>
<trkpt lat="-27.2744387" lon="151.290064">
  <ele>343.0</ele>
  <time>2026-09-01T19:54:39Z</time>
  <course>10.89</course>
  <speed>0.0</speed>
  <fix>3d</fix>
</trkpt>
<trkpt lat="-27.2744387" lon="151.290064">
  <ele>343.09</ele>
  <time>2026-09-01T19:54:39Z</time>
  <course>341.87</course>
  <speed>0.0</speed>
  <fix>3d</fix>
</trkpt>
<trkpt lat="-27.2744387" lon="151.290064">
  <ele>342.81</ele>
  <time>2026-09-01T19:54:39Z</time>
  <course>10.89</course>
  <speed>0.0</speed>
  <fix>3d</fix>
</trkpt>
<trkpt lat="-27.2744387" lon="151.290064">
  <ele>343.09</ele>
  <time>2026-09-01T19:54:39Z</time>
  <course>341.87</course>
  <speed>0.0</speed>
  <fix>3d</fix>
</trkpt>
<trkpt lat="-27.2744387" lon="151.290064">
  <ele>343.05</ele>
  <time>2026-09-01T19:54:39Z</time>
  <course>10.88</course>
  <speed>0.0</speed>
  <fix>3d</fix>
</trkpt>
<trkpt lat="-27.2744387" lon="151.290064">
  <ele>343.09</ele>
  <time>2026-09-01T19:54:39Z</time>
  <course>357.45</course>
  <speed>0.0</speed>
  <fix>3d</fix>
</trkpt>
<trkpt lat="-27.2744387" lon="151.290064">
  <ele>342.89</ele>
  <time>2026-09-01T19:54:39Z</time>
  <course>10.88</course>
  <speed>0.0</speed>
  <fix>3d</fix>
</trkpt>
<trkpt lat="-27.2744387" lon="151.290064">
  <ele>343.09</ele>
  <time>2026-09-01T19:54:39Z</time>
  <course>357.45</course>
  <speed>0.0</speed>
  <fix>3d</fix>
</trkpt>
<trkpt lat="-27.2744387" lon="151.290064">
  <ele>342.97</ele>
  <time>2026-09-01T19:54:39Z</time>
  <course>10.88</course>
  <speed>0.0</speed>
  <fix>3d</fix>
</trkpt>
<trkpt lat="-27.2744387" lon="151.290064">
  <ele>343.09</ele>
  <time>2026-09-01T19:54:39Z</time>
  <course>12.68</course>
  <speed>0.0</speed>
  <fix>3d</fix>
</trkpt>
<trkpt lat="-27.2744387" lon="151.290064">
  <ele>342.83</ele>
  <time>2026-09-01T19:54:39Z</time>
  <course>10.88</course>
  <speed>0.0</speed>
  <fix>3d</fix>
</trkpt>
<trkpt lat="-27.2744387" lon="151.290064">
  <ele>343.09</ele>
  <time>2026-09-01T19:54:39Z</time>
  <course>12.68</course>
  <speed>0.0</speed>
  <fix>3d</fix>
</trkpt>
<trkpt lat="-27.2744387" lon="151.290064">
  <ele>342.99</ele>
  <time>2026-09-01T19:54:39Z</time>
  <course>10.87</course>
  <speed>0.0</speed>
  <fix>3d</fix>
</trkpt>
<trkpt lat="-27.2744387" lon="151.290064">
  <ele>343.09</ele>
  <time>2026-09-01T19:54:39Z</time>
  <course>357.21</course>
  <speed>0.0</speed>
  <fix>3d</fix>
</trkpt>
<trkpt lat="-27.2744387" lon="151.290064">
  <ele>342.99</ele>
  <time>2026-09-01T19:54:39Z</time>
  <course>10.87</course>
  <speed>0.0</speed>
  <fix>3d</fix>
</trkpt>
<trkpt lat="-27.2744387" lon="151.290064">
  <ele>343.09</ele>
  <time>2026-09-01T19:54:39Z</time>
  <course>357.21</course>
  <speed>0.0</speed>
  <fix>3d</fix>
</trkpt>
<trkpt lat="-27.2744387" lon="151.290064">
  <ele>342.76</ele>
  <time>2026-09-01T19:54:39Z</time>
  <course>10.87</course>
  <speed>0.0</speed>
  <fix>3d</fix>
</trkpt>
<trkpt lat="-27.2744387" lon="151.290064">
  <ele>343.09</ele>
  <time>2026-09-01T19:54:39Z</time>
  <course>7.46</course>
  <speed>0.0</speed>
  <fix>3d</fix>
</trkpt>
<trkpt lat="-27.2744387" lon="151.290064">
  <ele>343.05</ele>
  <time>2026-09-01T19:54:39Z</time>
  <course>10.87</course>
  <speed>0.0</speed>
  <fix>3d</fix>
</trkpt>
<trkpt lat="-27.2744387" lon="151.290064">
  <ele>343.09</ele>
  <time>2026-09-01T19:54:39Z</time>
  <course>7.46</course>
  <speed>0.0</speed>
  <fix>3d</fix>
</trkpt>
<trkpt lat="-27.2744387" lon="151.290064">
  <ele>343.01</ele>
  <time>2026-09-01T19:54:39Z</time>
  <course>10.86</course>
  <speed>0.0</speed>
  <fix>3d</fix>
</trkpt>
<trkpt lat="-27.2744387" lon="151.290064">
  <ele>343.09</ele>
  <time>2026-09-01T19:54:39Z</time>
  <course>20.63</course>
  <speed>0.0</speed>
  <fix>3d</fix>
</trkpt>
<trkpt lat="-27.2744387" lon="151.290064">
  <ele>343.14</ele>
  <time>2026-09-01T19:54:39Z</time>
  <course>10.86</course>
  <speed>0.0</speed>
  <fix>3d</fix>
</trkpt>
<trkpt lat="-27.2744387" lon="151.290064">
  <ele>343.09</ele>
  <time>2026-09-01T19:54:39Z</time>
  <course>20.63</course>
  <speed>0.0</speed>
  <fix>3d</fix>
</trkpt>
<trkpt lat="-27.2744387" lon="151.290064">
  <ele>342.94</ele>
  <time>2026-09-01T19:54:39Z</time>
  <course>10.86</course>
  <speed>0.0</speed>
  <fix>3d</fix>
</trkpt>
<trkpt lat="-27.2744387" lon="151.290064">
  <ele>343.09</ele>
  <time>2026-09-01T19:54:39Z</time>
  <course>24.52</course>
  <speed>0.0</speed>
  <fix>3d</fix>
</trkpt>
<trkpt lat="-27.2744387" lon="151.290064">
  <ele>343.02</ele>
  <time>2026-09-01T19:54:39Z</time>
  <course>10.86</course>
  <speed>0.0</speed>
  <fix>3d</fix>
</trkpt>
<trkpt lat="-27.2744387" lon="151.290064">
  <ele>343.09</ele>
  <time>2026-09-01T19:54:39Z</time>
  <course>24.52</course>
  <speed>0.0</speed>
  <fix>3d</fix>
</trkpt>
<trkpt lat="-27.2744387" lon="151.290064">
  <ele>343.1</ele>
  <time>2026-09-01T19:54:39Z</time>
  <course>10.86</course>
  <speed>0.0</speed>
  <fix>3d</fix>
</trkpt>
<trkpt lat="-27.2744387" lon="151.290064">
  <ele>343.09</ele>
  <time>2026-09-01T19:54:39Z</time>
  <course>24.04</course>
  <speed>0.0</speed>
  <fix>3d</fix>
</trkpt>
<trkpt lat="-27.2744387" lon="151.290064">
  <ele>343.14</ele>
  <time>2026-09-01T19:54:39Z</time>
  <course>10.85</course>
  <speed>0.0</speed>
  <fix>3d</fix>
</trkpt>
<trkpt lat="-27.2744387" lon="151.290064">
  <ele>343.09</ele>
  <time>2026-09-01T19:54:39Z</time>
  <course>24.04</course>
  <speed>0.0</speed>
  <fix>3d</fix>
</trkpt>
<trkpt lat="-27.2744387" lon="151.290064">
  <ele>342.96</ele>
  <time>2026-09-01T19:54:39Z</time>
  <course>10.85</course>
  <speed>0.0</speed>
  <fix>3d</fix>
</trkpt>
<trkpt lat="-27.2744387" lon="151.290064">
  <ele>343.09</ele>
  <time>2026-09-01T19:54:39Z</time>
  <course>8.8</course>
  <speed>0.0</speed>
  <fix>3d</fix>
</trkpt>
<trkpt lat="-27.2744387" lon="151.290064">
  <ele>343.13</ele>
  <time>2026-09-01T19:54:39Z</time>
  <course>10.85</course>
  <speed>0.0</speed>
  <fix>3d</fix>
</trkpt>
<trkpt lat="-27.2744387" lon="151.290064">
  <ele>343.09</ele>
  <time>2026-09-01T19:54:39Z</time>
  <course>8.8</course>
  <speed>0.0</speed>
  <fix>3d</fix>
</trkpt>
<trkpt lat="-27.2744387" lon="151.290064">
  <ele>342.85</ele>
  <time>2026-09-01T19:54:39Z</time>
  <course>10.85</course>
  <speed>0.0</speed>
  <fix>3d</fix>
</trkpt>
<trkpt lat="-27.2744387" lon="151.290064">
  <ele>343.09</ele>
  <time>2026-09-01T19:54:39Z</time>
  <course>353.55</course>
  <speed>0.0</speed>
  <fix>3d</fix>
</trkpt>
<trkpt lat="-27.2744387" lon="151.290064">
  <ele>342.91</ele>
  <time>2026-09-01T19:54:39Z</time>
  <course>10.84</course>
  <speed>0.0</speed>
  <fix>3d</fix>
</trkpt>
<trkpt lat="-27.2744387" lon="151.290064">
  <ele>343.09</ele>
  <time>2026-09-01T19:54:39Z</time>
  <course>353.55</course>
  <speed>0.0</speed>
  <fix>3d</fix>
</trkpt>
<trkpt lat="-27.2744387" lon="151.290064">
  <ele>343.1</ele>
  <time>2026-09-01T19:54:39Z</time>
  <course>10.84</course>
  <speed>0.0</speed>
  <fix>3d</fix>
</trkpt>
<trkpt lat="-27.2744387" lon="151.290064">
  <ele>343.09</ele>
  <time>2026-09-01T19:54:39Z</time>
  <course>13.43</course>
  <speed>0.0</speed>
  <fix>3d</fix>
</trkpt>
<trkpt lat="-27.2744387" lon="151.290064">
  <ele>343.02</ele>
  <time>2026-09-01T19:54:39Z</time>
  <course>10.84</course>
  <speed>0.0</speed>
  <fix>3d</fix>
</trkpt>
<trkpt lat="-27.2744387" lon="151.290064">
  <ele>343.09</ele>
  <time>2026-09-01T19:54:39Z</time>
  <course>13.43</course>
  <speed>0.0</speed>
  <fix>3d</fix>
</trkpt>
<trkpt lat="-27.2744387" lon="151.290064">
  <ele>343.06</ele>
  <time>2026-09-01T19:54:39Z</time>
  <course>10.84</course>
  <speed>0.0</speed>
  <fix>3d</fix>
</trkpt>
<trkpt lat="-27.2744387" lon="151.290064">
  <ele>343.09</ele>
  <time>2026-09-01T19:54:39Z</time>
  <course>52.81</course>
  <speed>0.0</speed>
  <fix>3d</fix>
</trkpt>
<trkpt lat="-27.2744387" lon="151.290064">
  <ele>343.02</ele>
  <time>2026-09-01T19:54:39Z</time>
  <course>10.84</course>
  <speed>0.0</speed>
  <fix>3d</fix>
</trkpt>
<trkpt lat="-27.2744387" lon="151.290064">
  <ele>343.09</ele>
  <time>2026-09-01T19:54:39Z</time>
  <course>52.81</course>
  <speed>0.0</speed>
  <fix>3d</fix>
</trkpt>
<trkpt lat="-27.2744387" lon="151.290064">
  <ele>343.06</ele>
  <time>2026-09-01T19:54:39Z</time>
  <course>12.69</course>
  <speed>0.0</speed>
  <fix>3d</fix>
</trkpt>
<trkpt lat="-27.2744387" lon="151.290064">
  <ele>343.09</ele>
  <time>2026-09-01T19:54:39Z</time>
  <course>21.97</course>
  <speed>0.0</speed>
  <fix>3d</fix>
</trkpt>
<trkpt lat="-27.2744387" lon="151.290064">
  <ele>343.06</ele>
  <time>2026-09-01T19:54:39Z</time>
  <course>12.69</course>
  <speed>0.0</speed>
  <fix>3d</fix>
</trkpt>
<trkpt lat="-27.2744387" lon="151.290064">
  <ele>343.09</ele>
  <time>2026-09-01T19:54:39Z</time>
  <course>21.97</course>
  <speed>0.0</speed>
  <fix>3d</fix>
</trkpt>
<trkpt lat="-27.2744387" lon="151.290064">
  <ele>343.05</ele>
  <time>2026-09-01T19:54:39Z</time>
  <course>12.68</course>
  <speed>0.0</speed>
  <fix>3d</fix>
</trkpt>
<trkpt lat="-27.2744387" lon="151.290064">
  <ele>343.09</ele>
  <time>2026-09-01T19:54:39Z</time>
  <course>353.6</course>
  <speed>0.0</speed>
  <fix>3d</fix>
</trkpt>
<trkpt lat="-27.2744387" lon="151.290064">
  <ele>343.05</ele>
  <time>2026-09-01T19:54:39Z</time>
  <course>12.68</course>
  <speed>0.0</speed>
  <fix>3d</fix>
</trkpt>
<trkpt lat="-27.2744387" lon="151.290064">
  <ele>343.09</ele>
  <time>2026-09-01T19:54:39Z</time>
  <course>353.6</course>
  <speed>0.0</speed>
  <fix>3d</fix>
</trkpt>
<trkpt lat="-27.2744387" lon="151.290064">
  <ele>343.05</ele>
  <time>2026-09-01T19:54:39Z</time>
  <course>12.67</course>
  <speed>0.0</speed>
  <fix>3d</fix>
</trkpt>
<trkpt lat="-27.2744387" lon="151.290064">
  <ele>343.09</ele>
  <time>2026-09-01T19:54:39Z</time>
  <course>7.33</course>
  <speed>0.0</speed>
  <fix>3d</fix>
</trkpt>
<trkpt lat="-27.2744387" lon="151.290064">
  <ele>343.05</ele>
  <time>2026-09-01T19:54:39Z</time>
  <course>12.67</course>
  <speed>0.0</speed>
  <fix>3d</fix>
</trkpt>
<trkpt lat="-27.2744387" lon="151.290064">
  <ele>343.09</ele>
  <time>2026-09-01T19:54:39Z</time>
  <course>7.33</course>
  <speed>0.0</speed>
  <fix>3d</fix>
</trkpt>
<trkpt lat="-27.2744387" lon="151.290064">
  <ele>343.05</ele>
  <time>2026-09-01T19:54:39Z</time>
  <course>12.66</course>
  <speed>0.0</speed>
  <fix>3d</fix>
</trkpt>
<trkpt lat="-27.2744387" lon="151.290064">
  <ele>343.09</ele>
  <time>2026-09-01T19:54:39Z</time>
  <course>15.14</course>
  <speed>0.0</speed>
  <fix>3d</fix>
</trkpt>
<trkpt lat="-27.2744387" lon="151.290064">
  <ele>343.05</ele>
  <time>2026-09-01T19:54:39Z</time>
  <course>12.66</course>
  <speed>0.0</speed>
  <fix>3d</fix>
</trkpt>
<trkpt lat="-27.2744387" lon="151.290064">
  <ele>343.09</ele>
  <time>2026-09-01T19:54:39Z</time>
  <course>15.14</course>
  <speed>0.0</speed>
  <fix>3d</fix>
</trkpt>
<trkpt lat="-27.2744387" lon="151.290064">
  <ele>343.05</ele>
  <time>2026-09-01T19:54:39Z</time>
  <course>12.65</course>
  <speed>0.0</speed>
  <fix>3d</fix>
</trkpt>
<trkpt lat="-27.2744387" lon="151.290064">
  <ele>343.09</ele>
  <time>2026-09-01T19:54:39Z</time>
  <course>7.76</course>
  <speed>0.0</speed>
  <fix>3d</fix>
</trkpt>
<trkpt lat="-27.2744387" lon="151.290064">
  <ele>343.05</ele>
  <time>2026-09-01T19:54:39Z</time>
  <course>12.65</course>
  <speed>0.01</speed>
  <fix>3d</fix>
</trkpt>
<trkpt lat="-27.2744387" lon="151.290064">
  <ele>343.09</ele>
  <time>2026-09-01T19:54:39Z</time>
  <course>7.76</course>
  <speed>0.0</speed>
  <fix>3d</fix>
</trkpt>
<trkpt lat="-27.2744387" lon="151.290064">
  <ele>343.05</ele>
  <time>2026-09-01T19:54:39Z</time>
  <course>12.64</course>
  <speed>0.01</speed>
  <fix>3d</fix>
</trkpt>
<trkpt lat="-27.2744387" lon="151.290064">
  <ele>343.09</ele>
  <time>2026-09-01T19:54:39Z</time>
  <course>21.44</course>
  <speed>0.0</speed>
  <fix>3d</fix>
</trkpt>
<trkpt lat="-27.2744387" lon="151.290064">
  <ele>343.04</ele>
  <time>2026-09-01T19:54:39Z</time>
  <course>12.64</course>
  <speed>0.01</speed>
  <fix>3d</fix>
</trkpt>
<trkpt lat="-27.2744387" lon="151.290064">
  <ele>343.09</ele>
  <time>2026-09-01T19:54:39Z</time>
  <course>21.44</course>
  <speed>0.0</speed>
  <fix>3d</fix>
</trkpt>
<trkpt lat="-27.2744387" lon="151.290064">
  <ele>343.04</ele>
  <time>2026-09-01T19:54:39Z</time>
  <course>12.63</course>
  <speed>0.01</speed>
  <fix>3d</fix>
</trkpt>
<trkpt lat="-27.2744387" lon="151.290064">
  <ele>343.09</ele>
  <time>2026-09-01T19:54:39Z</time>
  <course>11.16</course>
  <speed>0.0</speed>
  <fix>3d</fix>
</trkpt>
<trkpt lat="-27.2744387" lon="151.290064">
  <ele>343.04</ele>
  <time>2026-09-01T19:54:39Z</time>
  <course>12.63</course>
  <speed>0.01</speed>
  <fix>3d</fix>
</trkpt>
<trkpt lat="-27.2744387" lon="151.290064">
  <ele>343.09</ele>
  <time>2026-09-01T19:54:39Z</time>
  <course>11.16</course>
  <speed>0.0</speed>
  <fix>3d</fix>
</trkpt>
<trkpt lat="-27.2744388" lon="151.290064">
  <ele>343.04</ele>
  <time>2026-09-01T19:54:39Z</time>
  <course>12.63</course>
  <speed>0.01414213562373095</speed>
  <fix>3d</fix>
</trkpt>
<trkpt lat="-27.2744387" lon="151.290064">
  <ele>343.09</ele>
  <time>2026-09-01T19:54:39Z</time>
  <course>352.53</course>
  <speed>0.0</speed>
  <fix>3d</fix>
</trkpt>
<trkpt lat="-27.2744388" lon="151.290064">
  <ele>343.04</ele>
  <time>2026-09-01T19:54:39Z</time>
  <course>12.62</course>
  <speed>0.01414213562373095</speed>
  <fix>3d</fix>
</trkpt>
<trkpt lat="-27.2744387" lon="151.290064">
  <ele>343.09</ele>
  <time>2026-09-01T19:54:39Z</time>
  <course>352.53</course>
  <speed>0.0</speed>
  <fix>3d</fix>
</trkpt>
<trkpt lat="-27.2744388" lon="151.290064">
  <ele>343.04</ele>
  <time>2026-09-01T19:54:39Z</time>
  <course>12.62</course>
  <speed>0.01414213562373095</speed>
  <fix>3d</fix>
</trkpt>
<trkpt lat="-27.2744387" lon="151.290064">
  <ele>343.09</ele>
  <time>2026-09-01T19:54:39Z</time>
  <course>348.56</course>
  <speed>0.0</speed>
  <fix>3d</fix>
</trkpt>
<trkpt lat="-27.2744388" lon="151.290064">
  <ele>343.04</ele>
  <time>2026-09-01T19:54:39Z</time>
  <course>12.61</course>
  <speed>0.01414213562373095</speed>
  <fix>3d</fix>
</trkpt>
<trkpt lat="-27.2744387" lon="151.290064">
  <ele>343.09</ele>
  <time>2026-09-01T19:54:39Z</time>
  <course>348.56</course>
  <speed>0.0</speed>
  <fix>3d</fix>
</trkpt>
<trkpt lat="-27.2744388" lon="151.290064">
  <ele>343.05</ele>
  <time>2026-09-01T19:54:39Z</time>
  <course>12.61</course>
  <speed>0.022360679774997897</speed>
  <fix>3d</fix>
</trkpt>
<trkpt lat="-27.2744387" lon="151.290064">
  <ele>343.09</ele>
  <time>2026-09-01T19:54:39Z</time>
  <course>4.35</course>
  <speed>0.0</speed>
  <fix>3d</fix>
</trkpt>
<trkpt lat="-27.2744388" lon="151.290064">
  <ele>343.04</ele>
  <time>2026-09-01T19:54:39Z</time>
  <course>12.6</course>
  <speed>0.022360679774997897</speed>
  <fix>3d</fix>
</trkpt>
<trkpt lat="-27.2744387" lon="151.290064">
  <ele>343.09</ele>
  <time>2026-09-01T19:54:39Z</time>
  <course>4.35</course>
  <speed>0.0</speed>
  <fix>3d</fix>
</trkpt>
<trkpt lat="-27.2744388" lon="151.290064">
  <ele>343.04</ele>
  <time>2026-09-01T19:54:39Z</time>
  <course>12.6</course>
  <speed>0.022360679774997897</speed>
  <fix>3d</fix>
</trkpt>
<trkpt lat="-27.2744387" lon="151.290064">
  <ele>343.09</ele>
  <time>2026-09-01T19:54:39Z</time>
  <course>17.46</course>
  <speed>0.0</speed>
  <fix>3d</fix>
</trkpt>
<trkpt lat="-27.2744388" lon="151.290064">
  <ele>343.04</ele>
  <time>2026-09-01T19:54:39Z</time>
  <course>12.6</course>
  <speed>0.022360679774997897</speed>
  <fix>3d</fix>
</trkpt>
<trkpt lat="-27.2744387" lon="151.290064">
  <ele>343.09</ele>
  <time>2026-09-01T19:54:39Z</time>
  <course>17.46</course>
  <speed>0.0</speed>
  <fix>3d</fix>
</trkpt>
<trkpt lat="-27.2744388" lon="151.290064">
  <ele>343.04</ele>
  <time>2026-09-01T19:54:39Z</time>
  <course>12.59</course>
  <speed>0.022360679774997897</speed>
  <fix>3d</fix>
</trkpt>
<trkpt lat="-27.2744387" lon="151.290064">
  <ele>343.09</ele>
  <time>2026-09-01T19:54:39Z</time>
  <course>8.43</course>
  <speed>0.0</speed>
  <fix>3d</fix>
</trkpt>
<trkpt lat="-27.2744388" lon="151.290064">
  <ele>343.04</ele>
  <time>2026-09-01T19:54:39Z</time>
  <course>12.59</course>
  <speed>0.022360679774997897</speed>
  <fix>3d</fix>
</trkpt>
<trkpt lat="-27.2744387" lon="151.290064">
  <ele>343.09</ele>
  <time>2026-09-01T19:54:39Z</time>
  <course>8.43</course>
  <speed>0.0</speed>
  <fix>3d</fix>
</trkpt>
<trkpt lat="-27.2744388" lon="151.290064">
  <ele>343.04</ele>
  <time>2026-09-01T19:54:39Z</time>
  <course>12.58</course>
  <speed>0.022360679774997897</speed>
  <fix>3d</fix>
</trkpt>
<trkpt lat="-27.2744387" lon="151.290064">
  <ele>343.09</ele>
  <time>2026-09-01T19:54:39Z</time>
  <course>352.74</course>
  <speed>0.0</speed>
  <fix>3d</fix>
</trkpt>
<trkpt lat="-27.2744388" lon="151.290064">
  <ele>343.04</ele>
  <time>2026-09-01T19:54:39Z</time>
  <course>12.58</course>
  <speed>0.022360679774997897</speed>
  <fix>3d</fix>
</trkpt>
<trkpt lat="-27.2744387" lon="151.290064">
  <ele>343.09</ele>
  <time>2026-09-01T19:54:39Z</time>
  <course>352.74</course>
  <speed>0.0</speed>
  <fix>3d</fix>
</trkpt>
<trkpt lat="-27.2744388" lon="151.290064">
  <ele>343.03</ele>
  <time>2026-09-01T19:54:39Z</time>
  <course>12.57</course>
  <speed>0.022360679774997897</speed>
  <fix>3d</fix>
</trkpt>
<trkpt lat="-27.2744387" lon="151.290064">
  <ele>343.09</ele>
  <time>2026-09-01T19:54:39Z</time>
  <course>345.33</course>
  <speed>0.0</speed>
  <fix>3d</fix>
</trkpt>
<trkpt lat="-27.2744388" lon="151.290064">
  <ele>343.03</ele>
  <time>2026-09-01T19:54:39Z</time>
  <course>12.57</course>
  <speed>0.022360679774997897</speed>
  <fix>3d</fix>
</trkpt>
<trkpt lat="-27.2744387" lon="151.290064">
  <ele>343.09</ele>
  <time>2026-09-01T19:54:39Z</time>
  <course>345.33</course>
  <speed>0.0</speed>
  <fix>3d</fix>
</trkpt>
<trkpt lat="-27.2744388" lon="151.290064">
  <ele>343.02</ele>
  <time>2026-09-01T19:54:39Z</time>
  <course>12.57</course>
  <speed>0.0316227766016838</speed>
  <fix>3d</fix>
</trkpt>
<trkpt lat="-27.2744387" lon="151.290064">
  <ele>343.09</ele>
  <time>2026-09-01T19:54:39Z</time>
  <course>9.42</course>
  <speed>0.0</speed>
  <fix>3d</fix>
</trkpt>
<trkpt lat="-27.2744388" lon="151.290064">
  <ele>343.02</ele>
  <time>2026-09-01T19:54:39Z</time>
  <course>12.56</course>
  <speed>0.0316227766016838</speed>
  <fix>3d</fix>
</trkpt>
<trkpt lat="-27.2744387" lon="151.290064">
  <ele>343.09</ele>
  <time>2026-09-01T19:54:39Z</time>
  <course>9.42</course>
  <speed>0.0</speed>
  <fix>3d</fix>
</trkpt>
<trkpt lat="-27.2744388" lon="151.2900641">
  <ele>343.02</ele>
  <time>2026-09-01T19:54:39Z</time>
  <course>12.56</course>
  <speed>0.03605551275463989</speed>
  <fix>3d</fix>
</trkpt>
<trkpt lat="-27.2744387" lon="151.290064">
  <ele>343.09</ele>
  <time>2026-09-01T19:54:39Z</time>
  <course>16.34</course>
  <speed>0.0</speed>
  <fix>3d</fix>
</trkpt>
<trkpt lat="-27.2744388" lon="151.2900641">
  <ele>343.01</ele>
  <time>2026-09-01T19:54:39Z</time>
  <course>12.55</course>
  <speed>0.03605551275463989</speed>
  <fix>3d</fix>
</trkpt>
<trkpt lat="-27.2744387" lon="151.290064">
  <ele>343.09</ele>
  <time>2026-09-01T19:54:39Z</time>
  <course>16.34</course>
  <speed>0.0</speed>
  <fix>3d</fix>
</trkpt>
<trkpt lat="-27.2744388" lon="151.2900641">
  <ele>343.01</ele>
  <time>2026-09-01T19:54:39Z</time>
  <course>12.55</course>
  <speed>0.03605551275463989</speed>
  <fix>3d</fix>
</trkpt>
<trkpt lat="-27.2744387" lon="151.290064">
  <ele>343.09</ele>
  <time>2026-09-01T19:54:39Z</time>
  <course>7.78</course>
  <speed>0.0</speed>
  <fix>3d</fix>
</trkpt>
<trkpt lat="-27.2744388" lon="151.2900641">
  <ele>343.01</ele>
  <time>2026-09-01T19:54:39Z</time>
  <course>12.55</course>
  <speed>0.03605551275463989</speed>
  <fix>3d</fix>
</trkpt>
<trkpt lat="-27.2744387" lon="151.290064">
  <ele>343.09</ele>
  <time>2026-09-01T19:54:39Z</time>
  <course>7.78</course>
  <speed>0.0</speed>
  <fix>3d</fix>
</trkpt>
<trkpt lat="-27.2744388" lon="151.2900641">
  <ele>343.01</ele>
  <time>2026-09-01T19:54:39Z</time>
  <course>12.54</course>
  <speed>0.03605551275463989</speed>
  <fix>3d</fix>
</trkpt>
<trkpt lat="-27.2744387" lon="151.290064">
  <ele>343.09</ele>
  <time>2026-09-01T19:54:39Z</time>
  <course>25.13</course>
  <speed>0.0</speed>
  <fix>3d</fix>
</trkpt>
<trkpt lat="-27.2744388" lon="151.2900641">
  <ele>343.01</ele>
  <time>2026-09-01T19:54:39Z</time>
  <course>12.54</course>
  <speed>0.03605551275463989</speed>
  <fix>3d</fix>
</trkpt>
<trkpt lat="-27.2744387" lon="151.290064">
  <ele>343.09</ele>
  <time>2026-09-01T19:54:39Z</time>
  <course>25.13</course>
  <speed>0.0</speed>
  <fix>3d</fix>
</trkpt>
<trkpt lat="-27.2744388" lon="151.2900641">
  <ele>343.01</ele>
  <time>2026-09-01T19:54:39Z</time>
  <course>12.53</course>
  <speed>0.03605551275463989</speed>
  <fix>3d</fix>
</trkpt>
<trkpt lat="-27.2744387" lon="151.290064">
  <ele>343.09</ele>
  <time>2026-09-01T19:54:39Z</time>
  <course>9.49</course>
  <speed>0.0</speed>
  <fix>3d</fix>
</trkpt>
<trkpt lat="-27.2744388" lon="151.2900641">
  <ele>343.01</ele>
  <time>2026-09-01T19:54:39Z</time>
  <course>12.53</course>
  <speed>0.03605551275463989</speed>
  <fix>3d</fix>
</trkpt>
<trkpt lat="-27.2744387" lon="151.290064">
  <ele>343.09</ele>
  <time>2026-09-01T19:54:39Z</time>
  <course>9.49</course>
  <speed>0.0</speed>
  <fix>3d</fix>
</trkpt>
<trkpt lat="-27.2744389" lon="151.2900641">
  <ele>343.01</ele>
  <time>2026-09-01T19:54:39Z</time>
  <course>12.53</course>
  <speed>0.03605551275463989</speed>
  <fix>3d</fix>
</trkpt>
<trkpt lat="-27.2744387" lon="151.290064">
  <ele>343.09</ele>
  <time>2026-09-01T19:54:39Z</time>
  <course>12.02</course>
  <speed>0.0</speed>
  <fix>3d</fix>
</trkpt>
<trkpt lat="-27.2744389" lon="151.2900641">
  <ele>343.01</ele>
  <time>2026-09-01T19:54:39Z</time>
  <course>12.52</course>
  <speed>0.03605551275463989</speed>
  <fix>3d</fix>
</trkpt>
<trkpt lat="-27.2744387" lon="151.290064">
  <ele>343.09</ele>
  <time>2026-09-01T19:54:39Z</time>
  <course>12.02</course>
  <speed>0.0</speed>
  <fix>3d</fix>
</trkpt>
<trkpt lat="-27.2744389" lon="151.2900641">
  <ele>343.01</ele>
  <time>2026-09-01T19:54:39Z</time>
  <course>12.52</course>
  <speed>0.03605551275463989</speed>
  <fix>3d</fix>
</trkpt>
<trkpt lat="-27.2744387" lon="151.290064">
  <ele>343.09</ele>
  <time>2026-09-01T19:54:39Z</time>
  <course>11.66</course>
  <speed>0.0</speed>
  <fix>3d</fix>
</trkpt>
<trkpt lat="-27.2744389" lon="151.2900641">
  <ele>343.01</ele>
  <time>2026-09-01T19:54:39Z</time>
  <course>12.52</course>
  <speed>0.03605551275463989</speed>
  <fix>3d</fix>
</trkpt>
<trkpt lat="-27.2744387" lon="151.290064">
  <ele>343.09</ele>
  <time>2026-09-01T19:54:39Z</time>
  <course>11.66</course>
  <speed>0.0</speed>
  <fix>3d</fix>
</trkpt>
<trkpt lat="-27.2744389" lon="151.2900641">
  <ele>343.0</ele>
  <time>2026-09-01T19:54:39Z</time>
  <course>12.51</course>
  <speed>0.03605551275463989</speed>
  <fix>3d</fix>
</trkpt>
<trkpt lat="-27.2744387" lon="151.290064">
  <ele>343.09</ele>
  <time>2026-09-01T19:54:39Z</time>
  <course>3.77</course>
  <speed>0.0</speed>
  <fix>3d</fix>
</trkpt>
<trkpt lat="-27.2744389" lon="151.2900641">
  <ele>343.0</ele>
  <time>2026-09-01T19:54:39Z</time>
  <course>12.51</course>
  <speed>0.03605551275463989</speed>
  <fix>3d</fix>
</trkpt>
<trkpt lat="-27.2744387" lon="151.290064">
  <ele>343.09</ele>
  <time>2026-09-01T19:54:39Z</time>
  <course>3.77</course>
  <speed>0.0</speed>
  <fix>3d</fix>
</trkpt>
<trkpt lat="-27.2744389" lon="151.2900641">
  <ele>343.0</ele>
  <time>2026-09-01T19:54:39Z</time>
  <course>12.51</course>
  <speed>0.03605551275463989</speed>
  <fix>3d</fix>
</trkpt>
<trkpt lat="-27.2744387" lon="151.290064">
  <ele>343.09</ele>
  <time>2026-09-01T19:54:39Z</time>
  <course>15.31</course>
  <speed>0.0</speed>
  <fix>3d</fix>
</trkpt>
<trkpt lat="-27.2744389" lon="151.2900641">
  <ele>343.01</ele>
  <time>2026-09-01T19:54:39Z</time>
  <course>12.5</course>
  <speed>0.03605551275463989</speed>
  <fix>3d</fix>
</trkpt>
<trkpt lat="-27.2744387" lon="151.290064">
  <ele>343.09</ele>
  <time>2026-09-01T19:54:39Z</time>
  <course>15.31</course>
  <speed>0.0</speed>
  <fix>3d</fix>
</trkpt>
<trkpt lat="-27.2744389" lon="151.2900641">
  <ele>343.08</ele>
  <time>2026-09-01T19:54:39Z</time>
  <course>12.5</course>
  <speed>0.03605551275463989</speed>
  <fix>3d</fix>
</trkpt>
<trkpt lat="-27.2744387" lon="151.290064">
  <ele>343.09</ele>
  <time>2026-09-01T19:54:39Z</time>
  <course>26.83</course>
  <speed>0.0</speed>
  <fix>3d</fix>
</trkpt>
<trkpt lat="-27.2744389" lon="151.2900641">
  <ele>343.09</ele>
  <time>2026-09-01T19:54:39Z</time>
  <course>12.49</course>
  <speed>0.03605551275463989</speed>
  <fix>3d</fix>
</trkpt>
<trkpt lat="-27.2744387" lon="151.290064">
  <ele>343.09</ele>
  <time>2026-09-01T19:54:39Z</time>
  <course>26.83</course>
  <speed>0.0</speed>
  <fix>3d</fix>
</trkpt>
<trkpt lat="-27.2744389" lon="151.2900641">
  <ele>343.08</ele>
  <time>2026-09-01T19:54:39Z</time>
  <course>12.49</course>
  <speed>0.03605551275463989</speed>
  <fix>3d</fix>
</trkpt>
<trkpt lat="-27.2744387" lon="151.290064">
  <ele>343.09</ele>
  <time>2026-09-01T19:54:39Z</time>
  <course>9.87</course>
  <speed>0.0</speed>
  <fix>3d</fix>
</trkpt>
<trkpt lat="-27.2744389" lon="151.2900641">
  <ele>343.08</ele>
  <time>2026-09-01T19:54:39Z</time>
  <course>12.49</course>
  <speed>0.03605551275463989</speed>
  <fix>3d</fix>
</trkpt>
<trkpt lat="-27.2744387" lon="151.290064">
  <ele>343.09</ele>
  <time>2026-09-01T19:54:39Z</time>
  <course>9.87</course>
  <speed>0.0</speed>
  <fix>3d</fix>
</trkpt>
<trkpt lat="-27.2744389" lon="151.2900641">
  <ele>343.08</ele>
  <time>2026-09-01T19:54:39Z</time>
  <course>12.48</course>
  <speed>0.03605551275463989</speed>
  <fix>3d</fix>
</trkpt>
<trkpt lat="-27.2744387" lon="151.290064">
  <ele>343.09</ele>
  <time>2026-09-01T19:54:39Z</time>
  <course>14.2</course>
  <speed>0.0</speed>
  <fix>3d</fix>
</trkpt>
<trkpt lat="-27.2744389" lon="151.2900641">
  <ele>343.08</ele>
  <time>2026-09-01T19:54:39Z</time>
  <course>12.48</course>
  <speed>0.03605551275463989</speed>
  <fix>3d</fix>
</trkpt>
<trkpt lat="-27.2744387" lon="151.290064">
  <ele>343.09</ele>
  <time>2026-09-01T19:54:39Z</time>
  <course>14.2</course>
  <speed>0.0</speed>
  <fix>3d</fix>
</trkpt>
<trkpt lat="-27.2744389" lon="151.2900641">
  <ele>343.07</ele>
  <time>2026-09-01T19:54:39Z</time>
  <course>12.47</course>
  <speed>0.0316227766016838</speed>
  <fix>3d</fix>
</trkpt>
<trkpt lat="-27.2744387" lon="151.290064">
  <ele>343.09</ele>
  <time>2026-09-01T19:54:39Z</time>
  <course>27.01</course>
  <speed>0.0</speed>
  <fix>3d</fix>
</trkpt>
<trkpt lat="-27.2744389" lon="151.2900641">
  <ele>343.07</ele>
  <time>2026-09-01T19:54:39Z</time>
  <course>12.47</course>
  <speed>0.03605551275463989</speed>
  <fix>3d</fix>
</trkpt>
<trkpt lat="-27.2744387" lon="151.290064">
  <ele>343.09</ele>
  <time>2026-09-01T19:54:39Z</time>
  <course>27.01</course>
  <speed>0.0</speed>
  <fix>3d</fix>
</trkpt>
<trkpt lat="-27.2744389" lon="151.2900641">
  <ele>343.06</ele>
  <time>2026-09-01T19:54:39Z</time>
  <course>12.47</course>
  <speed>0.022360679774997897</speed>
  <fix>3d</fix>
</trkpt>
<trkpt lat="-27.2744386" lon="151.290064">
  <ele>343.09</ele>
  <time>2026-09-01T19:54:39Z</time>
  <course>13.54</course>
  <speed>0.0</speed>
  <fix>3d</fix>
</trkpt>
<trkpt lat="-27.2744389" lon="151.2900641">
  <ele>343.06</ele>
  <time>2026-09-01T19:54:39Z</time>
  <course>12.47</course>
  <speed>0.022360679774997897</speed>
  <fix>3d</fix>
</trkpt>
<trkpt lat="-27.2744386" lon="151.290064">
  <ele>343.09</ele>
  <time>2026-09-01T19:54:39Z</time>
  <course>13.54</course>
  <speed>0.0</speed>
  <fix>3d</fix>
</trkpt>
<trkpt lat="-27.2744388" lon="151.2900641">
  <ele>343.06</ele>
  <time>2026-09-01T19:54:39Z</time>
  <course>12.46</course>
  <speed>0.022360679774997897</speed>
  <fix>3d</fix>
</trkpt>
<trkpt lat="-27.2744386" lon="151.290064">
  <ele>343.09</ele>
  <time>2026-09-01T19:54:39Z</time>
  <course>8.64</course>
  <speed>0.0</speed>
  <fix>3d</fix>
</trkpt>
<trkpt lat="-27.2744388" lon="151.2900641">
  <ele>343.05</ele>
  <time>2026-09-01T19:54:39Z</time>
  <course>12.46</course>
  <speed>0.022360679774997897</speed>
  <fix>3d</fix>
</trkpt>
<trkpt lat="-27.2744386" lon="151.290064">
  <ele>343.09</ele>
  <time>2026-09-01T19:54:39Z</time>
  <course>8.64</course>
  <speed>0.0</speed>
  <fix>3d</fix>
</trkpt>
<trkpt lat="-27.2744388" lon="151.2900641">
  <ele>343.05</ele>
  <time>2026-09-01T19:54:39Z</time>
  <course>12.46</course>
  <speed>0.022360679774997897</speed>
  <fix>3d</fix>
</trkpt>
<trkpt lat="-27.2744386" lon="151.290064">
  <ele>343.09</ele>
  <time>2026-09-01T19:54:39Z</time>
  <course>353.94</course>
  <speed>0.0</speed>
  <fix>3d</fix>
</trkpt>
<trkpt lat="-27.2744388" lon="151.2900641">
  <ele>343.04</ele>
  <time>2026-09-01T19:54:39Z</time>
  <course>12.45</course>
  <speed>0.022360679774997897</speed>
  <fix>3d</fix>
</trkpt>
<trkpt lat="-27.2744386" lon="151.290064">
  <ele>343.09</ele>
  <time>2026-09-01T19:54:39Z</time>
  <course>353.94</course>
  <speed>0.0</speed>
  <fix>3d</fix>
</trkpt>
<trkpt lat="-27.2744388" lon="151.2900641">
  <ele>343.04</ele>
  <time>2026-09-01T19:54:39Z</time>
  <course>12.45</course>
  <speed>0.022360679774997897</speed>
  <fix>3d</fix>
</trkpt>
<trkpt lat="-27.2744386" lon="151.290064">
  <ele>343.09</ele>
  <time>2026-09-01T19:54:39Z</time>
  <course>10.57</course>
  <speed>0.0</speed>
  <fix>3d</fix>
</trkpt>
<trkpt lat="-27.2744388" lon="151.2900641">
  <ele>343.03</ele>
  <time>2026-09-01T19:54:39Z</time>
  <course>12.45</course>
  <speed>0.022360679774997897</speed>
  <fix>3d</fix>
</trkpt>
<trkpt lat="-27.2744386" lon="151.290064">
  <ele>343.09</ele>
  <time>2026-09-01T19:54:39Z</time>
  <course>10.57</course>
  <speed>0.0</speed>
  <fix>3d</fix>
</trkpt>
<trkpt lat="-27.2744388" lon="151.2900641">
  <ele>343.03</ele>
  <time>2026-09-01T19:54:39Z</time>
  <course>12.44</course>
  <speed>0.022360679774997897</speed>
  <fix>3d</fix>
</trkpt>
<trkpt lat="-27.2744386" lon="151.290064">
  <ele>343.09</ele>
  <time>2026-09-01T19:54:39Z</time>
  <course>8.49</course>
  <speed>0.0</speed>
  <fix>3d</fix>
</trkpt>
<trkpt lat="-27.2744388" lon="151.2900641">
  <ele>343.03</ele>
  <time>2026-09-01T19:54:39Z</time>
  <course>12.44</course>
  <speed>0.022360679774997897</speed>
  <fix>3d</fix>
</trkpt>
<trkpt lat="-27.2744386" lon="151.290064">
  <ele>343.09</ele>
  <time>2026-09-01T19:54:39Z</time>
  <course>8.49</course>
  <speed>0.0</speed>
  <fix>3d</fix>
</trkpt>
<trkpt lat="-27.2744388" lon="151.2900641">
  <ele>343.02</ele>
  <time>2026-09-01T19:54:39Z</time>
  <course>12.44</course>
  <speed>0.022360679774997897</speed>
  <fix>3d</fix>
</trkpt>
<trkpt lat="-27.2744386" lon="151.290064">
  <ele>343.09</ele>
  <time>2026-09-01T19:54:39Z</time>
  <course>3.39</course>
  <speed>0.0</speed>
  <fix>3d</fix>
</trkpt>
<trkpt lat="-27.2744388" lon="151.2900641">
  <ele>343.02</ele>
  <time>2026-09-01T19:54:39Z</time>
  <course>12.43</course>
  <speed>0.022360679774997897</speed>
  <fix>3d</fix>
</trkpt>
<trkpt lat="-27.2744386" lon="151.290064">
  <ele>343.09</ele>
  <time>2026-09-01T19:54:39Z</time>
  <course>3.39</course>
  <speed>0.0</speed>
  <fix>3d</fix>
</trkpt>
<trkpt lat="-27.2744388" lon="151.2900641">
  <ele>343.01</ele>
  <time>2026-09-01T19:54:39Z</time>
  <course>12.43</course>
  <speed>0.022360679774997897</speed>
  <fix>3d</fix>
</trkpt>
<trkpt lat="-27.2744386" lon="151.290064">
  <ele>343.09</ele>
  <time>2026-09-01T19:54:39Z</time>
  <course>5.07</course>
  <speed>0.0</speed>
  <fix>3d</fix>
</trkpt>
<trkpt lat="-27.2744388" lon="151.2900641">
  <ele>343.01</ele>
  <time>2026-09-01T19:54:39Z</time>
  <course>12.43</course>
  <speed>0.022360679774997897</speed>
  <fix>3d</fix>
</trkpt>
<trkpt lat="-27.2744386" lon="151.290064">
  <ele>343.09</ele>
  <time>2026-09-01T19:54:39Z</time>
  <course>5.07</course>
  <speed>0.0</speed>
  <fix>3d</fix>
</trkpt>
<trkpt lat="-27.2744388" lon="151.2900641">
  <ele>343.01</ele>
  <time>2026-09-01T19:54:39Z</time>
  <course>12.43</course>
  <speed>0.01414213562373095</speed>
  <fix>3d</fix>
</trkpt>
<trkpt lat="-27.2744386" lon="151.290064">
  <ele>343.09</ele>
  <time>2026-09-01T19:54:39Z</time>
  <course>345.19</course>
  <speed>0.0</speed>
  <fix>3d</fix>
</trkpt>
<trkpt lat="-27.2744388" lon="151.2900641">
  <ele>343.0</ele>
  <time>2026-09-01T19:54:39Z</time>
  <course>12.42</course>
  <speed>0.01414213562373095</speed>
  <fix>3d</fix>
</trkpt>
<trkpt lat="-27.2744386" lon="151.290064">
  <ele>343.09</ele>
  <time>2026-09-01T19:54:39Z</time>
  <course>345.19</course>
  <speed>0.0</speed>
  <fix>3d</fix>
</trkpt>
<trkpt lat="-27.2744388" lon="151.2900641">
  <ele>343.0</ele>
  <time>2026-09-01T19:54:39Z</time>
  <course>12.42</course>
  <speed>0.01414213562373095</speed>
  <fix>3d</fix>
</trkpt>
<trkpt lat="-27.2744386" lon="151.290064">
  <ele>343.09</ele>
  <time>2026-09-01T19:54:39Z</time>
  <course>347.06</course>
  <speed>0.0</speed>
  <fix>3d</fix>
</trkpt>
<trkpt lat="-27.2744388" lon="151.2900641">
  <ele>343.0</ele>
  <time>2026-09-01T19:54:39Z</time>
  <course>12.42</course>
  <speed>0.01414213562373095</speed>
  <fix>3d</fix>
</trkpt>
<trkpt lat="-27.2744386" lon="151.290064">
  <ele>343.09</ele>
  <time>2026-09-01T19:54:39Z</time>
  <course>347.06</course>
  <speed>0.0</speed>
  <fix>3d</fix>
</trkpt>
<trkpt lat="-27.2744388" lon="151.2900641">
  <ele>343.0</ele>
  <time>2026-09-01T19:54:39Z</time>
  <course>12.41</course>
  <speed>0.01414213562373095</speed>
  <fix>3d</fix>
</trkpt>
<trkpt lat="-27.2744386" lon="151.290064">
  <ele>343.09</ele>
  <time>2026-09-01T19:54:39Z</time>
  <course>359.25</course>
  <speed>0.0</speed>
  <fix>3d</fix>
</trkpt>
<trkpt lat="-27.2744388" lon="151.2900641">
  <ele>342.99</ele>
  <time>2026-09-01T19:54:39Z</time>
  <course>12.41</course>
  <speed>0.01414213562373095</speed>
  <fix>3d</fix>
</trkpt>
<trkpt lat="-27.2744386" lon="151.290064">
  <ele>343.09</ele>
  <time>2026-09-01T19:54:39Z</time>
  <course>359.25</course>
  <speed>0.0</speed>
  <fix>3d</fix>
</trkpt>
<trkpt lat="-27.2744388" lon="151.2900641">
  <ele>342.99</ele>
  <time>2026-09-01T19:54:39Z</time>
  <course>12.41</course>
  <speed>0.01414213562373095</speed>
  <fix>3d</fix>
</trkpt>
<trkpt lat="-27.2744386" lon="151.290064">
  <ele>343.09</ele>
  <time>2026-09-01T19:54:39Z</time>
  <course>10.62</course>
  <speed>0.0</speed>
  <fix>3d</fix>
</trkpt>
<trkpt lat="-27.2744388" lon="151.2900641">
  <ele>342.98</ele>
  <time>2026-09-01T19:54:39Z</time>
  <course>12.4</course>
  <speed>0.01414213562373095</speed>
  <fix>3d</fix>
</trkpt>
<trkpt lat="-27.2744386" lon="151.290064">
  <ele>343.09</ele>
  <time>2026-09-01T19:54:39Z</time>
  <course>10.62</course>
  <speed>0.0</speed>
  <fix>3d</fix>
</trkpt>
<trkpt lat="-27.2744388" lon="151.2900641">
  <ele>342.98</ele>
  <time>2026-09-01T19:54:39Z</time>
  <course>12.4</course>
  <speed>0.01414213562373095</speed>
  <fix>3d</fix>
</trkpt>
<trkpt lat="-27.2744386" lon="151.290064">
  <ele>343.09</ele>
  <time>2026-09-01T19:54:39Z</time>
  <course>346.51</course>
  <speed>0.0</speed>
  <fix>3d</fix>
</trkpt>
<trkpt lat="-27.2744388" lon="151.2900641">
  <ele>342.98</ele>
  <time>2026-09-01T19:54:39Z</time>
  <course>12.4</course>
  <speed>0.01414213562373095</speed>
  <fix>3d</fix>
</trkpt>
<trkpt lat="-27.2744386" lon="151.290064">
  <ele>343.09</ele>
  <time>2026-09-01T19:54:39Z</time>
  <course>346.51</course>
  <speed>0.0</speed>
  <fix>3d</fix>
</trkpt>
<trkpt lat="-27.2744388" lon="151.2900641">
  <ele>342.97</ele>
  <time>2026-09-01T19:54:39Z</time>
  <course>12.4</course>
  <speed>0.01414213562373095</speed>
  <fix>3d</fix>
</trkpt>
<trkpt lat="-27.2744386" lon="151.290064">
  <ele>343.09</ele>
  <time>2026-09-01T19:54:39Z</time>
  <course>3.39</course>
  <speed>0.0</speed>
  <fix>3d</fix>
</trkpt>
<trkpt lat="-27.2744388" lon="151.2900641">
  <ele>342.97</ele>
  <time>2026-09-01T19:54:39Z</time>
  <course>12.39</course>
  <speed>0.01414213562373095</speed>
  <fix>3d</fix>
</trkpt>
<trkpt lat="-27.2744386" lon="151.290064">
  <ele>343.09</ele>
  <time>2026-09-01T19:54:39Z</time>
  <course>3.39</course>
  <speed>0.0</speed>
  <fix>3d</fix>
</trkpt>
<trkpt lat="-27.2744388" lon="151.2900641">
  <ele>342.97</ele>
  <time>2026-09-01T19:54:39Z</time>
  <course>12.39</course>
  <speed>0.01414213562373095</speed>
  <fix>3d</fix>
</trkpt>
<trkpt lat="-27.2744386" lon="151.290064">
  <ele>343.09</ele>
  <time>2026-09-01T19:54:39Z</time>
  <course>28.71</course>
  <speed>0.0</speed>
  <fix>3d</fix>
</trkpt>
<trkpt lat="-27.2744388" lon="151.2900641">
  <ele>342.97</ele>
  <time>2026-09-01T19:54:39Z</time>
  <course>12.39</course>
  <speed>0.01414213562373095</speed>
  <fix>3d</fix>
</trkpt>
<trkpt lat="-27.2744386" lon="151.290064">
  <ele>343.09</ele>
  <time>2026-09-01T19:54:39Z</time>
  <course>28.71</course>
  <speed>0.0</speed>
  <fix>3d</fix>
</trkpt>
<trkpt lat="-27.2744388" lon="151.2900641">
  <ele>342.97</ele>
  <time>2026-09-01T19:54:39Z</time>
  <course>12.39</course>
  <speed>0.01414213562373095</speed>
  <fix>3d</fix>
</trkpt>
<trkpt lat="-27.2744386" lon="151.290064">
  <ele>343.09</ele>
  <time>2026-09-01T19:54:39Z</time>
  <course>24.21</course>
  <speed>0.0</speed>
  <fix>3d</fix>
</trkpt>
<trkpt lat="-27.2744388" lon="151.2900641">
  <ele>342.97</ele>
  <time>2026-09-01T19:54:39Z</time>
  <course>12.38</course>
  <speed>0.01414213562373095</speed>
  <fix>3d</fix>
</trkpt>
<trkpt lat="-27.2744386" lon="151.290064">
  <ele>343.09</ele>
  <time>2026-09-01T19:54:39Z</time>
  <course>24.21</course>
  <speed>0.0</speed>
  <fix>3d</fix>
</trkpt>
<trkpt lat="-27.2744388" lon="151.2900641">
  <ele>342.97</ele>
  <time>2026-09-01T19:54:39Z</time>
  <course>12.38</course>
  <speed>0.01414213562373095</speed>
  <fix>3d</fix>
</trkpt>
<trkpt lat="-27.2744386" lon="151.290064">
  <ele>343.09</ele>
  <time>2026-09-01T19:54:39Z</time>
  <course>350.74</course>
  <speed>0.0</speed>
  <fix>3d</fix>
</trkpt>
<trkpt lat="-27.2744388" lon="151.2900641">
  <ele>342.97</ele>
  <time>2026-09-01T19:54:39Z</time>
  <course>12.38</course>
  <speed>0.01414213562373095</speed>
  <fix>3d</fix>
</trkpt>
<trkpt lat="-27.2744386" lon="151.290064">
  <ele>343.09</ele>
  <time>2026-09-01T19:54:39Z</time>
  <course>350.74</course>
  <speed>0.0</speed>
  <fix>3d</fix>
</trkpt>
<trkpt lat="-27.2744388" lon="151.2900641">
  <ele>342.97</ele>
  <time>2026-09-01T19:54:39Z</time>
  <course>12.38</course>
  <speed>0.01414213562373095</speed>
  <fix>3d</fix>
</trkpt>
<trkpt lat="-27.2744386" lon="151.290064">
  <ele>343.09</ele>
  <time>2026-09-01T19:54:39Z</time>
  <course>357.06</course>
  <speed>0.0</speed>
  <fix>3d</fix>
</trkpt>
<trkpt lat="-27.2744388" lon="151.2900641">
  <ele>342.97</ele>
  <time>2026-09-01T19:54:39Z</time>
  <course>12.37</course>
  <speed>0.01414213562373095</speed>
  <fix>3d</fix>
</trkpt>
<trkpt lat="-27.2744386" lon="151.290064">
  <ele>343.09</ele>
  <time>2026-09-01T19:54:39Z</time>
  <course>357.06</course>
  <speed>0.0</speed>
  <fix>3d</fix>
</trkpt>
<trkpt lat="-27.2744388" lon="151.2900641">
  <ele>342.97</ele>
  <time>2026-09-01T19:54:39Z</time>
  <course>12.37</course>
  <speed>0.01414213562373095</speed>
  <fix>3d</fix>
</trkpt>
<trkpt lat="-27.2744386" lon="151.290064">
  <ele>343.09</ele>
  <time>2026-09-01T19:54:39Z</time>
  <course>17.49</course>
  <speed>0.0</speed>
  <fix>3d</fix>
</trkpt>
<trkpt lat="-27.2744388" lon="151.2900641">
  <ele>342.96</ele>
  <time>2026-09-01T19:54:39Z</time>
  <course>12.37</course>
  <speed>0.01414213562373095</speed>
  <fix>3d</fix>
</trkpt>
<trkpt lat="-27.2744386" lon="151.290064">
  <ele>343.09</ele>
  <time>2026-09-01T19:54:39Z</time>
  <course>17.49</course>
  <speed>0.0</speed>
  <fix>3d</fix>
</trkpt>
<trkpt lat="-27.2744388" lon="151.2900641">
  <ele>342.96</ele>
  <time>2026-09-01T19:54:39Z</time>
  <course>12.37</course>
  <speed>0.01414213562373095</speed>
  <fix>3d</fix>
</trkpt>
<trkpt lat="-27.2744386" lon="151.290064">
  <ele>343.09</ele>
  <time>2026-09-01T19:54:39Z</time>
  <course>354.9</course>
  <speed>0.0</speed>
  <fix>3d</fix>
</trkpt>
<trkpt lat="-27.2744388" lon="151.2900641">
  <ele>342.96</ele>
  <time>2026-09-01T19:54:39Z</time>
  <course>12.36</course>
  <speed>0.01414213562373095</speed>
  <fix>3d</fix>
</trkpt>
<trkpt lat="-27.2744386" lon="151.290064">
  <ele>343.09</ele>
  <time>2026-09-01T19:54:39Z</time>
  <course>354.9</course>
  <speed>0.0</speed>
  <fix>3d</fix>
</trkpt>
<trkpt lat="-27.2744388" lon="151.2900641">
  <ele>342.96</ele>
  <time>2026-09-01T19:54:39Z</time>
  <course>12.36</course>
  <speed>0.01414213562373095</speed>
  <fix>3d</fix>
</trkpt>
<trkpt lat="-27.2744386" lon="151.290064">
  <ele>343.09</ele>
  <time>2026-09-01T19:54:39Z</time>
  <course>343.42</course>
  <speed>0.0</speed>
  <fix>3d</fix>
</trkpt>
<trkpt lat="-27.2744388" lon="151.2900641">
  <ele>342.95</ele>
  <time>2026-09-01T19:54:39Z</time>
  <course>12.36</course>
  <speed>0.01414213562373095</speed>
  <fix>3d</fix>
</trkpt>
<trkpt lat="-27.2744386" lon="151.290064">
  <ele>343.09</ele>
  <time>2026-09-01T19:54:39Z</time>
  <course>343.42</course>
  <speed>0.0</speed>
  <fix>3d</fix>
</trkpt>
<trkpt lat="-27.2744388" lon="151.2900641">
  <ele>342.95</ele>
  <time>2026-09-01T19:54:39Z</time>
  <course>12.36</course>
  <speed>0.01414213562373095</speed>
  <fix>3d</fix>
</trkpt>
<trkpt lat="-27.2744386" lon="151.290064">
  <ele>343.09</ele>
  <time>2026-09-01T19:54:39Z</time>
  <course>43.06</course>
  <speed>0.0</speed>
  <fix>3d</fix>
</trkpt>
<trkpt lat="-27.2744388" lon="151.2900641">
  <ele>342.95</ele>
  <time>2026-09-01T19:54:39Z</time>
  <course>12.35</course>
  <speed>0.01414213562373095</speed>
  <fix>3d</fix>
</trkpt>
<trkpt lat="-27.2744386" lon="151.290064">
  <ele>343.09</ele>
  <time>2026-09-01T19:54:39Z</time>
  <course>43.06</course>
  <speed>0.0</speed>
  <fix>3d</fix>
</trkpt>
<trkpt lat="-27.2744388" lon="151.2900641">
  <ele>342.95</ele>
  <time>2026-09-01T19:54:39Z</time>
  <course>12.35</course>
  <speed>0.01414213562373095</speed>
  <fix>3d</fix>
</trkpt>
<trkpt lat="-27.2744386" lon="151.290064">
  <ele>343.09</ele>
  <time>2026-09-01T19:54:39Z</time>
  <course>35.08</course>
  <speed>0.0</speed>
  <fix>3d</fix>
</trkpt>
<trkpt lat="-27.2744388" lon="151.2900641">
  <ele>342.94</ele>
  <time>2026-09-01T19:54:39Z</time>
  <course>12.35</course>
  <speed>0.01414213562373095</speed>
  <fix>3d</fix>
</trkpt>
<trkpt lat="-27.2744386" lon="151.290064">
  <ele>343.09</ele>
  <time>2026-09-01T19:54:39Z</time>
  <course>35.08</course>
  <speed>0.0</speed>
  <fix>3d</fix>
</trkpt>
<trkpt lat="-27.2744388" lon="151.2900641">
  <ele>342.94</ele>
  <time>2026-09-01T19:54:39Z</time>
  <course>12.35</course>
  <speed>0.01414213562373095</speed>
  <fix>3d</fix>
</trkpt>
<trkpt lat="-27.2744386" lon="151.290064">
  <ele>343.09</ele>
  <time>2026-09-01T19:54:39Z</time>
  <course>6.77</course>
  <speed>0.0</speed>
  <fix>3d</fix>
</trkpt>
<trkpt lat="-27.2744388" lon="151.2900641">
  <ele>342.94</ele>
  <time>2026-09-01T19:54:39Z</time>
  <course>12.34</course>
  <speed>0.01414213562373095</speed>
  <fix>3d</fix>
</trkpt>
<trkpt lat="-27.2744386" lon="151.290064">
  <ele>343.09</ele>
  <time>2026-09-01T19:54:39Z</time>
  <course>6.77</course>
  <speed>0.0</speed>
  <fix>3d</fix>
</trkpt>
<trkpt lat="-27.2744388" lon="151.2900641">
  <ele>342.94</ele>
  <time>2026-09-01T19:54:39Z</time>
  <course>12.34</course>
  <speed>0.01414213562373095</speed>
  <fix>3d</fix>
</trkpt>
<trkpt lat="-27.2744386" lon="151.290064">
  <ele>343.09</ele>
  <time>2026-09-01T19:54:39Z</time>
  <course>12.46</course>
  <speed>0.0</speed>
  <fix>3d</fix>
</trkpt>
<trkpt lat="-27.2744388" lon="151.2900641">
  <ele>342.93</ele>
  <time>2026-09-01T19:54:39Z</time>
  <course>12.34</course>
  <speed>0.01414213562373095</speed>
  <fix>3d</fix>
</trkpt>
<trkpt lat="-27.2744386" lon="151.290064">
  <ele>343.09</ele>
  <time>2026-09-01T19:54:39Z</time>
  <course>12.46</course>
  <speed>0.0</speed>
  <fix>3d</fix>
</trkpt>
<trkpt lat="-27.2744388" lon="151.2900641">
  <ele>342.93</ele>
  <time>2026-09-01T19:54:39Z</time>
  <course>12.34</course>
  <speed>0.01414213562373095</speed>
  <fix>3d</fix>
</trkpt>
<trkpt lat="-27.2744386" lon="151.290064">
  <ele>343.09</ele>
  <time>2026-09-01T19:54:39Z</time>
  <course>0.62</course>
  <speed>0.0</speed>
  <fix>3d</fix>
</trkpt>
<trkpt lat="-27.2744388" lon="151.2900641">
  <ele>342.93</ele>
  <time>2026-09-01T19:54:40Z</time>
  <course>12.33</course>
  <speed>0.022360679774997897</speed>
  <fix>3d</fix>
</trkpt>
<trkpt lat="-27.2744386" lon="151.290064">
  <ele>343.09</ele>
  <time>2026-09-01T19:54:40Z</time>
  <course>0.62</course>
  <speed>0.0</speed>
  <fix>3d</fix>
</trkpt>
<trkpt lat="-27.2744388" lon="151.2900641">
  <ele>342.93</ele>
  <time>2026-09-01T19:54:40Z</time>
  <course>12.33</course>
  <speed>0.01414213562373095</speed>
  <fix>3d</fix>
</trkpt>
<trkpt lat="-27.2744386" lon="151.290064">
  <ele>343.09</ele>
  <time>2026-09-01T19:54:40Z</time>
  <course>345.24</course>
  <speed>0.0</speed>
  <fix>3d</fix>
</trkpt>
<trkpt lat="-27.2744388" lon="151.2900641">
  <ele>342.93</ele>
  <time>2026-09-01T19:54:40Z</time>
  <course>12.33</course>
  <speed>0.01414213562373095</speed>
  <fix>3d</fix>
</trkpt>
<trkpt lat="-27.2744386" lon="151.290064">
  <ele>343.09</ele>
  <time>2026-09-01T19:54:40Z</time>
  <course>345.24</course>
  <speed>0.0</speed>
  <fix>3d</fix>
</trkpt>
<trkpt lat="-27.2744388" lon="151.2900641">
  <ele>343.08</ele>
  <time>2026-09-01T19:54:40Z</time>
  <course>12.33</course>
  <speed>0.01414213562373095</speed>
  <fix>3d</fix>
</trkpt>
<trkpt lat="-27.2744386" lon="151.290064">
  <ele>343.09</ele>
  <time>2026-09-01T19:54:40Z</time>
  <course>11.74</course>
  <speed>0.0</speed>
  <fix>3d</fix>
</trkpt>
<trkpt lat="-27.2744388" lon="151.2900641">
  <ele>343.08</ele>
  <time>2026-09-01T19:54:40Z</time>
  <course>12.32</course>
  <speed>0.01414213562373095</speed>
  <fix>3d</fix>
</trkpt>
<trkpt lat="-27.2744386" lon="151.290064">
  <ele>343.09</ele>
  <time>2026-09-01T19:54:40Z</time>
  <course>11.74</course>
  <speed>0.0</speed>
  <fix>3d</fix>
</trkpt>
<trkpt lat="-27.2744388" lon="151.2900641">
  <ele>343.08</ele>
  <time>2026-09-01T19:54:40Z</time>
  <course>12.32</course>
  <speed>0.01414213562373095</speed>
  <fix>3d</fix>
</trkpt>
<trkpt lat="-27.2744386" lon="151.290064">
  <ele>343.09</ele>
  <time>2026-09-01T19:54:40Z</time>
  <course>355.4</course>
  <speed>0.0</speed>
  <fix>3d</fix>
</trkpt>
<trkpt lat="-27.2744388" lon="151.2900641">
  <ele>343.08</ele>
  <time>2026-09-01T19:54:40Z</time>
  <course>12.32</course>
  <speed>0.01414213562373095</speed>
  <fix>3d</fix>
</trkpt>
<trkpt lat="-27.2744386" lon="151.290064">
  <ele>343.09</ele>
  <time>2026-09-01T19:54:40Z</time>
  <course>355.4</course>
  <speed>0.0</speed>
  <fix>3d</fix>
</trkpt>
<trkpt lat="-27.2744388" lon="151.2900641">
  <ele>343.08</ele>
  <time>2026-09-01T19:54:40Z</time>
  <course>12.32</course>
  <speed>0.022360679774997897</speed>
  <fix>3d</fix>
</trkpt>
<trkpt lat="-27.2744386" lon="151.290064">
  <ele>343.09</ele>
  <time>2026-09-01T19:54:40Z</time>
  <course>353.93</course>
  <speed>0.0</speed>
  <fix>3d</fix>
</trkpt>
<trkpt lat="-27.2744388" lon="151.2900641">
  <ele>343.08</ele>
  <time>2026-09-01T19:54:40Z</time>
  <course>12.31</course>
  <speed>0.022360679774997897</speed>
  <fix>3d</fix>
</trkpt>
<trkpt lat="-27.2744386" lon="151.290064">
  <ele>343.09</ele>
  <time>2026-09-01T19:54:40Z</time>
  <course>353.93</course>
  <speed>0.0</speed>
  <fix>3d</fix>
</trkpt>
<trkpt lat="-27.2744388" lon="151.2900641">
  <ele>343.08</ele>
  <time>2026-09-01T19:54:40Z</time>
  <course>12.31</course>
  <speed>0.022360679774997897</speed>
  <fix>3d</fix>
</trkpt>
<trkpt lat="-27.2744386" lon="151.290064">
  <ele>343.09</ele>
  <time>2026-09-01T19:54:40Z</time>
  <course>359.94</course>
  <speed>0.0</speed>
  <fix>3d</fix>
</trkpt>
<trkpt lat="-27.2744388" lon="151.2900641">
  <ele>343.07</ele>
  <time>2026-09-01T19:54:40Z</time>
  <course>12.31</course>
  <speed>0.022360679774997897</speed>
  <fix>3d</fix>
</trkpt>
<trkpt lat="-27.2744386" lon="151.290064">
  <ele>343.09</ele>
  <time>2026-09-01T19:54:40Z</time>
  <course>359.94</course>
  <speed>0.0</speed>
  <fix>3d</fix>
</trkpt>
<trkpt lat="-27.2744388" lon="151.2900641">
  <ele>343.07</ele>
  <time>2026-09-01T19:54:40Z</time>
  <course>12.31</course>
  <speed>0.022360679774997897</speed>
  <fix>3d</fix>
</trkpt>
<trkpt lat="-27.2744386" lon="151.290064">
  <ele>343.09</ele>
  <time>2026-09-01T19:54:40Z</time>
  <course>13.97</course>
  <speed>0.0</speed>
  <fix>3d</fix>
</trkpt>
<trkpt lat="-27.2744388" lon="151.2900641">
  <ele>343.06</ele>
  <time>2026-09-01T19:54:40Z</time>
  <course>12.31</course>
  <speed>0.022360679774997897</speed>
  <fix>3d</fix>
</trkpt>
<trkpt lat="-27.2744386" lon="151.290064">
  <ele>343.09</ele>
  <time>2026-09-01T19:54:40Z</time>
  <course>13.97</course>
  <speed>0.0</speed>
  <fix>3d</fix>
</trkpt>
<trkpt lat="-27.2744388" lon="151.2900641">
  <ele>343.06</ele>
  <time>2026-09-01T19:54:40Z</time>
  <course>12.3</course>
  <speed>0.022360679774997897</speed>
  <fix>3d</fix>
</trkpt>
<trkpt lat="-27.2744386" lon="151.290064">
  <ele>343.09</ele>
  <time>2026-09-01T19:54:40Z</time>
  <course>16.65</course>
  <speed>0.0</speed>
  <fix>3d</fix>
</trkpt>
<trkpt lat="-27.2744388" lon="151.2900641">
  <ele>343.06</ele>
  <time>2026-09-01T19:54:40Z</time>
  <course>12.3</course>
  <speed>0.022360679774997897</speed>
  <fix>3d</fix>
</trkpt>
<trkpt lat="-27.2744386" lon="151.290064">
  <ele>343.09</ele>
  <time>2026-09-01T19:54:40Z</time>
  <course>16.65</course>
  <speed>0.0</speed>
  <fix>3d</fix>
</trkpt>
<trkpt lat="-27.2744388" lon="151.2900641">
  <ele>343.06</ele>
  <time>2026-09-01T19:54:40Z</time>
  <course>12.3</course>
  <speed>0.022360679774997897</speed>
  <fix>3d</fix>
</trkpt>
<trkpt lat="-27.2744386" lon="151.290064">
  <ele>343.09</ele>
  <time>2026-09-01T19:54:40Z</time>
  <course>7.37</course>
  <speed>0.0</speed>
  <fix>3d</fix>
</trkpt>
<trkpt lat="-27.2744388" lon="151.2900641">
  <ele>343.05</ele>
  <time>2026-09-01T19:54:40Z</time>
  <course>12.3</course>
  <speed>0.022360679774997897</speed>
  <fix>3d</fix>
</trkpt>
<trkpt lat="-27.2744386" lon="151.290064">
  <ele>343.09</ele>
  <time>2026-09-01T19:54:40Z</time>
  <course>7.37</course>
  <speed>0.0</speed>
  <fix>3d</fix>
</trkpt>
<trkpt lat="-27.2744388" lon="151.2900641">
  <ele>343.05</ele>
  <time>2026-09-01T19:54:40Z</time>
  <course>12.29</course>
  <speed>0.022360679774997897</speed>
  <fix>3d</fix>
</trkpt>
<trkpt lat="-27.2744386" lon="151.290064">
  <ele>343.09</ele>
  <time>2026-09-01T19:54:40Z</time>
  <course>350.39</course>
  <speed>0.0</speed>
  <fix>3d</fix>
</trkpt>
<trkpt lat="-27.2744388" lon="151.2900641">
  <ele>343.05</ele>
  <time>2026-09-01T19:54:40Z</time>
  <course>12.29</course>
  <speed>0.022360679774997897</speed>
  <fix>3d</fix>
</trkpt>
<trkpt lat="-27.2744386" lon="151.290064">
  <ele>343.09</ele>
  <time>2026-09-01T19:54:40Z</time>
  <course>350.39</course>
  <speed>0.0</speed>
  <fix>3d</fix>
</trkpt>
<trkpt lat="-27.2744388" lon="151.2900641">
  <ele>343.05</ele>
  <time>2026-09-01T19:54:40Z</time>
  <course>12.29</course>
  <speed>0.022360679774997897</speed>
  <fix>3d</fix>
</trkpt>
<trkpt lat="-27.2744386" lon="151.290064">
  <ele>343.09</ele>
  <time>2026-09-01T19:54:40Z</time>
  <course>14.76</course>
  <speed>0.0</speed>
  <fix>3d</fix>
</trkpt>
<trkpt lat="-27.2744388" lon="151.2900641">
  <ele>343.05</ele>
  <time>2026-09-01T19:54:40Z</time>
  <course>12.29</course>
  <speed>0.022360679774997897</speed>
  <fix>3d</fix>
</trkpt>
<trkpt lat="-27.2744386" lon="151.290064">
  <ele>343.09</ele>
  <time>2026-09-01T19:54:40Z</time>
  <course>14.76</course>
  <speed>0.0</speed>
  <fix>3d</fix>
</trkpt>
<trkpt lat="-27.2744388" lon="151.2900641">
  <ele>343.05</ele>
  <time>2026-09-01T19:54:40Z</time>
  <course>12.28</course>
  <speed>0.022360679774997897</speed>
  <fix>3d</fix>
</trkpt>
<trkpt lat="-27.2744386" lon="151.290064">
  <ele>343.09</ele>
  <time>2026-09-01T19:54:40Z</time>
  <course>32.98</course>
  <speed>0.0</speed>
  <fix>3d</fix>
</trkpt>
<trkpt lat="-27.2744388" lon="151.2900641">
  <ele>343.05</ele>
  <time>2026-09-01T19:54:40Z</time>
  <course>12.28</course>
  <speed>0.022360679774997897</speed>
  <fix>3d</fix>
</trkpt>
<trkpt lat="-27.2744386" lon="151.290064">
  <ele>343.09</ele>
  <time>2026-09-01T19:54:40Z</time>
  <course>32.98</course>
  <speed>0.0</speed>
  <fix>3d</fix>
</trkpt>
<trkpt lat="-27.2744388" lon="151.2900641">
  <ele>343.05</ele>
  <time>2026-09-01T19:54:40Z</time>
  <course>12.28</course>
  <speed>0.022360679774997897</speed>
  <fix>3d</fix>
</trkpt>
<trkpt lat="-27.2744386" lon="151.290064">
  <ele>343.09</ele>
  <time>2026-09-01T19:54:40Z</time>
  <course>3.62</course>
  <speed>0.0</speed>
  <fix>3d</fix>
</trkpt>
<trkpt lat="-27.2744388" lon="151.2900641">
  <ele>343.08</ele>
  <time>2026-09-01T19:54:40Z</time>
  <course>12.28</course>
  <speed>0.022360679774997897</speed>
  <fix>3d</fix>
</trkpt>
<trkpt lat="-27.2744386" lon="151.290064">
  <ele>343.09</ele>
  <time>2026-09-01T19:54:40Z</time>
  <course>3.62</course>
  <speed>0.0</speed>
  <fix>3d</fix>
</trkpt>
<trkpt lat="-27.2744388" lon="151.2900641">
  <ele>343.08</ele>
  <time>2026-09-01T19:54:40Z</time>
  <course>12.28</course>
  <speed>0.022360679774997897</speed>
  <fix>3d</fix>
</trkpt>
<trkpt lat="-27.2744386" lon="151.290064">
  <ele>343.09</ele>
  <time>2026-09-01T19:54:40Z</time>
  <course>14.91</course>
  <speed>0.0</speed>
  <fix>3d</fix>
</trkpt>
<trkpt lat="-27.2744388" lon="151.2900641">
  <ele>343.08</ele>
  <time>2026-09-01T19:54:40Z</time>
  <course>12.27</course>
  <speed>0.022360679774997897</speed>
  <fix>3d</fix>
</trkpt>
<trkpt lat="-27.2744386" lon="151.290064">
  <ele>343.09</ele>
  <time>2026-09-01T19:54:40Z</time>
  <course>14.91</course>
  <speed>0.0</speed>
  <fix>3d</fix>
</trkpt>
<trkpt lat="-27.2744388" lon="151.2900641">
  <ele>343.08</ele>
  <time>2026-09-01T19:54:40Z</time>
  <course>12.27</course>
  <speed>0.01414213562373095</speed>
  <fix>3d</fix>
</trkpt>
<trkpt lat="-27.2744386" lon="151.290064">
  <ele>343.09</ele>
  <time>2026-09-01T19:54:40Z</time>
  <course>15.57</course>
  <speed>0.0</speed>
  <fix>3d</fix>
</trkpt>
<trkpt lat="-27.2744388" lon="151.2900641">
  <ele>343.08</ele>
  <time>2026-09-01T19:54:40Z</time>
  <course>12.27</course>
  <speed>0.022360679774997897</speed>
  <fix>3d</fix>
</trkpt>
<trkpt lat="-27.2744386" lon="151.290064">
  <ele>343.09</ele>
  <time>2026-09-01T19:54:40Z</time>
  <course>15.57</course>
  <speed>0.0</speed>
  <fix>3d</fix>
</trkpt>
<trkpt lat="-27.2744388" lon="151.2900641">
  <ele>343.08</ele>
  <time>2026-09-01T19:54:40Z</time>
  <course>12.27</course>
  <speed>0.044721359549995794</speed>
  <fix>3d</fix>
</trkpt>
<trkpt lat="-27.2744385" lon="151.290064">
  <ele>343.09</ele>
  <time>2026-09-01T19:54:40Z</time>
  <course>7.0</course>
  <speed>0.02</speed>
  <fix>3d</fix>
</trkpt>
<trkpt lat="-27.2744387" lon="151.2900641">
  <ele>343.08</ele>
  <time>2026-09-01T19:54:40Z</time>
  <course>12.26</course>
  <speed>0.053851648071345036</speed>
  <fix>3d</fix>
</trkpt>
<trkpt lat="-27.2744385" lon="151.290064">
  <ele>343.09</ele>
  <time>2026-09-01T19:54:40Z</time>
  <course>7.0</course>
  <speed>0.02</speed>
  <fix>3d</fix>
</trkpt>
<trkpt lat="-27.2744386" lon="151.2900641">
  <ele>343.08</ele>
  <time>2026-09-01T19:54:40Z</time>
  <course>12.26</course>
  <speed>0.044721359549995794</speed>
  <fix>3d</fix>
</trkpt>
<trkpt lat="-27.2744384" lon="151.290064">
  <ele>343.09</ele>
  <time>2026-09-01T19:54:40Z</time>
  <course>7.75</course>
  <speed>0.05</speed>
  <fix>3d</fix>
</trkpt>
<trkpt lat="-27.2744386" lon="151.2900641">
  <ele>343.08</ele>
  <time>2026-09-01T19:54:40Z</time>
  <course>12.26</course>
  <speed>0.044721359549995794</speed>
  <fix>3d</fix>
</trkpt>
<trkpt lat="-27.2744384" lon="151.290064">
  <ele>343.09</ele>
  <time>2026-09-01T19:54:40Z</time>
  <course>7.75</course>
  <speed>0.05</speed>
  <fix>3d</fix>
</trkpt>
<trkpt lat="-27.2744385" lon="151.2900641">
  <ele>343.08</ele>
  <time>2026-09-01T19:54:40Z</time>
  <course>12.26</course>
  <speed>0.044721359549995794</speed>
  <fix>3d</fix>
</trkpt>
<trkpt lat="-27.2744383" lon="151.290064">
  <ele>343.09</ele>
  <time>2026-09-01T19:54:40Z</time>
  <course>7.68</course>
  <speed>0.07</speed>
  <fix>3d</fix>
</trkpt>
<trkpt lat="-27.2744384" lon="151.2900641">
  <ele>343.07</ele>
  <time>2026-09-01T19:54:40Z</time>
  <course>12.25</course>
  <speed>0.053851648071345036</speed>
  <fix>3d</fix>
</trkpt>
<trkpt lat="-27.2744383" lon="151.290064">
  <ele>343.09</ele>
  <time>2026-09-01T19:54:40Z</time>
  <course>7.68</course>
  <speed>0.07</speed>
  <fix>3d</fix>
</trkpt>
<trkpt lat="-27.2744383" lon="151.2900641">
  <ele>343.07</ele>
  <time>2026-09-01T19:54:40Z</time>
  <course>12.25</course>
  <speed>0.03605551275463989</speed>
  <fix>3d</fix>
</trkpt>
<trkpt lat="-27.2744382" lon="151.2900641">
  <ele>343.09</ele>
  <time>2026-09-01T19:54:40Z</time>
  <course>8.1</course>
  <speed>0.06</speed>
  <fix>3d</fix>
</trkpt>
<trkpt lat="-27.2744383" lon="151.2900641">
  <ele>343.07</ele>
  <time>2026-09-01T19:54:40Z</time>
  <course>12.25</course>
  <speed>0.01414213562373095</speed>
  <fix>3d</fix>
</trkpt>
<trkpt lat="-27.2744382" lon="151.2900641">
  <ele>343.09</ele>
  <time>2026-09-01T19:54:40Z</time>
  <course>8.1</course>
  <speed>0.06</speed>
  <fix>3d</fix>
</trkpt>
<trkpt lat="-27.2744383" lon="151.2900641">
  <ele>343.07</ele>
  <time>2026-09-01T19:54:40Z</time>
  <course>12.25</course>
  <speed>0.01414213562373095</speed>
  <fix>3d</fix>
</trkpt>
<trkpt lat="-27.2744381" lon="151.2900641">
  <ele>343.09</ele>
  <time>2026-09-01T19:54:40Z</time>
  <course>8.43</course>
  <speed>0.04</speed>
  <fix>3d</fix>
</trkpt>
<trkpt lat="-27.2744383" lon="151.2900641">
  <ele>343.07</ele>
  <time>2026-09-01T19:54:40Z</time>
  <course>12.24</course>
  <speed>0.02</speed>
  <fix>3d</fix>
</trkpt>
<trkpt lat="-27.2744381" lon="151.2900641">
  <ele>343.09</ele>
  <time>2026-09-01T19:54:40Z</time>
  <course>8.43</course>
  <speed>0.04</speed>
  <fix>3d</fix>
</trkpt>
<trkpt lat="-27.2744383" lon="151.2900641">
  <ele>343.07</ele>
  <time>2026-09-01T19:54:40Z</time>
  <course>12.24</course>
  <speed>0.01</speed>
  <fix>3d</fix>
</trkpt>
<trkpt lat="-27.2744381" lon="151.2900641">
  <ele>343.09</ele>
  <time>2026-09-01T19:54:40Z</time>
  <course>13.74</course>
  <speed>0.0</speed>
  <fix>3d</fix>
</trkpt>
<trkpt lat="-27.2744382" lon="151.2900641">
  <ele>343.07</ele>
  <time>2026-09-01T19:54:40Z</time>
  <course>12.24</course>
  <speed>0.0</speed>
  <fix>3d</fix>
</trkpt>
<trkpt lat="-27.2744381" lon="151.2900641">
  <ele>343.09</ele>
  <time>2026-09-01T19:54:40Z</time>
  <course>13.74</course>
  <speed>0.0</speed>
  <fix>3d</fix>
</trkpt>
<trkpt lat="-27.2744382" lon="151.2900641">
  <ele>343.07</ele>
  <time>2026-09-01T19:54:40Z</time>
  <course>12.24</course>
  <speed>0.0</speed>
  <fix>3d</fix>
</trkpt>
<trkpt lat="-27.2744381" lon="151.2900641">
  <ele>343.09</ele>
  <time>2026-09-01T19:54:40Z</time>
  <course>176.18</course>
  <speed>0.0</speed>
  <fix>3d</fix>
</trkpt>
<trkpt lat="-27.2744382" lon="151.2900641">
  <ele>343.06</ele>
  <time>2026-09-01T19:54:40Z</time>
  <course>12.23</course>
  <speed>0.01</speed>
  <fix>3d</fix>
</trkpt>
<trkpt lat="-27.2744381" lon="151.2900641">
  <ele>343.09</ele>
  <time>2026-09-01T19:54:40Z</time>
  <course>176.18</course>
  <speed>0.0</speed>
  <fix>3d</fix>
</trkpt>
<trkpt lat="-27.2744382" lon="151.2900641">
  <ele>343.06</ele>
  <time>2026-09-01T19:54:40Z</time>
  <course>12.23</course>
  <speed>0.0</speed>
  <fix>3d</fix>
</trkpt>
<trkpt lat="-27.2744381" lon="151.2900641">
  <ele>343.09</ele>
  <time>2026-09-01T19:54:40Z</time>
  <course>357.16</course>
  <speed>0.0</speed>
  <fix>3d</fix>
</trkpt>
<trkpt lat="-27.2744382" lon="151.2900641">
  <ele>343.06</ele>
  <time>2026-09-01T19:54:40Z</time>
  <course>12.23</course>
  <speed>0.0</speed>
  <fix>3d</fix>
</trkpt>
<trkpt lat="-27.2744381" lon="151.2900641">
  <ele>343.09</ele>
  <time>2026-09-01T19:54:40Z</time>
  <course>357.16</course>
  <speed>0.0</speed>
  <fix>3d</fix>
</trkpt>
<trkpt lat="-27.2744382" lon="151.2900641">
  <ele>343.06</ele>
  <time>2026-09-01T19:54:40Z</time>
  <course>12.23</course>
  <speed>0.0</speed>
  <fix>3d</fix>
</trkpt>
<trkpt lat="-27.2744381" lon="151.2900641">
  <ele>343.09</ele>
  <time>2026-09-01T19:54:40Z</time>
  <course>351.12</course>
  <speed>0.0</speed>
  <fix>3d</fix>
</trkpt>
<trkpt lat="-27.2744381" lon="151.2900641">
  <ele>343.06</ele>
  <time>2026-09-01T19:54:40Z</time>
  <course>12.22</course>
  <speed>0.01</speed>
  <fix>3d</fix>
</trkpt>
<trkpt lat="-27.2744381" lon="151.2900641">
  <ele>343.09</ele>
  <time>2026-09-01T19:54:40Z</time>
  <course>351.12</course>
  <speed>0.0</speed>
  <fix>3d</fix>
</trkpt>
<trkpt lat="-27.2744381" lon="151.2900641">
  <ele>343.06</ele>
  <time>2026-09-01T19:54:40Z</time>
  <course>12.22</course>
  <speed>0.01</speed>
  <fix>3d</fix>
</trkpt>
<trkpt lat="-27.2744381" lon="151.2900641">
  <ele>343.09</ele>
  <time>2026-09-01T19:54:40Z</time>
  <course>17.01</course>
  <speed>0.0</speed>
  <fix>3d</fix>
</trkpt>
<trkpt lat="-27.2744381" lon="151.2900641">
  <ele>343.06</ele>
  <time>2026-09-01T19:54:40Z</time>
  <course>12.22</course>
  <speed>0.0</speed>
  <fix>3d</fix>
</trkpt>
<trkpt lat="-27.2744381" lon="151.2900641">
  <ele>343.09</ele>
  <time>2026-09-01T19:54:40Z</time>
  <course>17.01</course>
  <speed>0.0</speed>
  <fix>3d</fix>
</trkpt>
<trkpt lat="-27.2744381" lon="151.2900641">
  <ele>343.05</ele>
  <time>2026-09-01T19:54:40Z</time>
  <course>12.22</course>
  <speed>0.0</speed>
  <fix>3d</fix>
</trkpt>
<trkpt lat="-27.2744381" lon="151.2900641">
  <ele>343.09</ele>
  <time>2026-09-01T19:54:40Z</time>
  <course>5.38</course>
  <speed>0.0</speed>
  <fix>3d</fix>
</trkpt>
<trkpt lat="-27.2744381" lon="151.2900641">
  <ele>343.05</ele>
  <time>2026-09-01T19:54:40Z</time>
  <course>12.22</course>
  <speed>0.0</speed>
  <fix>3d</fix>
</trkpt>
<trkpt lat="-27.2744381" lon="151.2900641">
  <ele>343.09</ele>
  <time>2026-09-01T19:54:40Z</time>
  <course>5.38</course>
  <speed>0.0</speed>
  <fix>3d</fix>
</trkpt>
<trkpt lat="-27.2744381" lon="151.2900641">
  <ele>343.05</ele>
  <time>2026-09-01T19:54:40Z</time>
  <course>12.21</course>
  <speed>0.01</speed>
  <fix>3d</fix>
</trkpt>
<trkpt lat="-27.2744381" lon="151.2900641">
  <ele>343.09</ele>
  <time>2026-09-01T19:54:40Z</time>
  <course>344.91</course>
  <speed>0.0</speed>
  <fix>3d</fix>
</trkpt>
<trkpt lat="-27.2744381" lon="151.2900641">
  <ele>343.05</ele>
  <time>2026-09-01T19:54:40Z</time>
  <course>12.21</course>
  <speed>0.0</speed>
  <fix>3d</fix>
</trkpt>
<trkpt lat="-27.2744381" lon="151.2900641">
  <ele>343.09</ele>
  <time>2026-09-01T19:54:40Z</time>
  <course>344.91</course>
  <speed>0.0</speed>
  <fix>3d</fix>
</trkpt>
<trkpt lat="-27.2744381" lon="151.2900641">
  <ele>343.05</ele>
  <time>2026-09-01T19:54:40Z</time>
  <course>12.21</course>
  <speed>0.01</speed>
  <fix>3d</fix>
</trkpt>
<trkpt lat="-27.274438" lon="151.2900641">
  <ele>343.09</ele>
  <time>2026-09-01T19:54:40Z</time>
  <course>5.18</course>
  <speed>0.0</speed>
  <fix>3d</fix>
</trkpt>
<trkpt lat="-27.2744381" lon="151.2900641">
  <ele>343.05</ele>
  <time>2026-09-01T19:54:40Z</time>
  <course>12.21</course>
  <speed>0.0</speed>
  <fix>3d</fix>
</trkpt>
<trkpt lat="-27.274438" lon="151.2900641">
  <ele>343.09</ele>
  <time>2026-09-01T19:54:40Z</time>
  <course>5.18</course>
  <speed>0.0</speed>
  <fix>3d</fix>
</trkpt>
<trkpt lat="-27.2744381" lon="151.2900641">
  <ele>343.05</ele>
  <time>2026-09-01T19:54:40Z</time>
  <course>12.2</course>
  <speed>0.0</speed>
  <fix>3d</fix>
</trkpt>
<trkpt lat="-27.274438" lon="151.2900641">
  <ele>343.09</ele>
  <time>2026-09-01T19:54:40Z</time>
  <course>15.27</course>
  <speed>0.0</speed>
  <fix>3d</fix>
</trkpt>
<trkpt lat="-27.2744381" lon="151.2900641">
  <ele>343.05</ele>
  <time>2026-09-01T19:54:40Z</time>
  <course>12.2</course>
  <speed>0.0</speed>
  <fix>3d</fix>
</trkpt>
<trkpt lat="-27.274438" lon="151.2900641">
  <ele>343.09</ele>
  <time>2026-09-01T19:54:40Z</time>
  <course>15.27</course>
  <speed>0.0</speed>
  <fix>3d</fix>
</trkpt>
<trkpt lat="-27.2744381" lon="151.2900641">
  <ele>343.04</ele>
  <time>2026-09-01T19:54:40Z</time>
  <course>12.2</course>
  <speed>0.0</speed>
  <fix>3d</fix>
</trkpt>
<trkpt lat="-27.274438" lon="151.2900641">
  <ele>343.09</ele>
  <time>2026-09-01T19:54:40Z</time>
  <course>12.63</course>
  <speed>0.0</speed>
  <fix>3d</fix>
</trkpt>
<trkpt lat="-27.2744381" lon="151.2900641">
  <ele>343.04</ele>
  <time>2026-09-01T19:54:40Z</time>
  <course>12.2</course>
  <speed>0.0</speed>
  <fix>3d</fix>
</trkpt>
<trkpt lat="-27.274438" lon="151.2900641">
  <ele>343.09</ele>
  <time>2026-09-01T19:54:40Z</time>
  <course>12.63</course>
  <speed>0.0</speed>
  <fix>3d</fix>
</trkpt>
<trkpt lat="-27.274438" lon="151.2900641">
  <ele>343.04</ele>
  <time>2026-09-01T19:54:40Z</time>
  <course>12.2</course>
  <speed>0.0</speed>
  <fix>3d</fix>
</trkpt>
<trkpt lat="-27.274438" lon="151.2900641">
  <ele>343.09</ele>
  <time>2026-09-01T19:54:40Z</time>
  <course>11.06</course>
  <speed>0.0</speed>
  <fix>3d</fix>
</trkpt>
<trkpt lat="-27.274438" lon="151.2900641">
  <ele>343.04</ele>
  <time>2026-09-01T19:54:40Z</time>
  <course>12.19</course>
  <speed>0.01</speed>
  <fix>3d</fix>
</trkpt>
<trkpt lat="-27.274438" lon="151.2900641">
  <ele>343.09</ele>
  <time>2026-09-01T19:54:40Z</time>
  <course>11.06</course>
  <speed>0.0</speed>
  <fix>3d</fix>
</trkpt>
<trkpt lat="-27.274438" lon="151.2900641">
  <ele>343.04</ele>
  <time>2026-09-01T19:54:40Z</time>
  <course>12.19</course>
  <speed>0.0</speed>
  <fix>3d</fix>
</trkpt>
<trkpt lat="-27.274438" lon="151.2900641">
  <ele>343.09</ele>
  <time>2026-09-01T19:54:40Z</time>
  <course>28.44</course>
  <speed>0.0</speed>
  <fix>3d</fix>
</trkpt>
<trkpt lat="-27.274438" lon="151.2900641">
  <ele>343.03</ele>
  <time>2026-09-01T19:54:40Z</time>
  <course>12.19</course>
  <speed>0.0</speed>
  <fix>3d</fix>
</trkpt>
<trkpt lat="-27.274438" lon="151.2900641">
  <ele>343.09</ele>
  <time>2026-09-01T19:54:40Z</time>
  <course>28.44</course>
  <speed>0.0</speed>
  <fix>3d</fix>
</trkpt>
<trkpt lat="-27.274438" lon="151.2900641">
  <ele>343.03</ele>
  <time>2026-09-01T19:54:40Z</time>
  <course>12.19</course>
  <speed>0.0</speed>
  <fix>3d</fix>
</trkpt>
<trkpt lat="-27.274438" lon="151.2900641">
  <ele>343.09</ele>
  <time>2026-09-01T19:54:40Z</time>
  <course>34.34</course>
  <speed>0.0</speed>
  <fix>3d</fix>
</trkpt>
<trkpt lat="-27.274438" lon="151.2900641">
  <ele>343.03</ele>
  <time>2026-09-01T19:54:40Z</time>
  <course>12.19</course>
  <speed>0.01</speed>
  <fix>3d</fix>
</trkpt>
<trkpt lat="-27.274438" lon="151.2900641">
  <ele>343.09</ele>
  <time>2026-09-01T19:54:40Z</time>
  <course>34.34</course>
  <speed>0.0</speed>
  <fix>3d</fix>
</trkpt>
<trkpt lat="-27.274438" lon="151.2900641">
  <ele>343.03</ele>
  <time>2026-09-01T19:54:40Z</time>
  <course>12.19</course>
  <speed>0.0</speed>
  <fix>3d</fix>
</trkpt>
<trkpt lat="-27.274438" lon="151.2900641">
  <ele>343.09</ele>
  <time>2026-09-01T19:54:40Z</time>
  <course>17.28</course>
  <speed>0.0</speed>
  <fix>3d</fix>
</trkpt>
<trkpt lat="-27.274438" lon="151.2900641">
  <ele>343.03</ele>
  <time>2026-09-01T19:54:40Z</time>
  <course>12.19</course>
  <speed>0.0</speed>
  <fix>3d</fix>
</trkpt>
<trkpt lat="-27.274438" lon="151.2900641">
  <ele>343.09</ele>
  <time>2026-09-01T19:54:40Z</time>
  <course>17.28</course>
  <speed>0.0</speed>
  <fix>3d</fix>
</trkpt>
<trkpt lat="-27.274438" lon="151.2900641">
  <ele>343.02</ele>
  <time>2026-09-01T19:54:40Z</time>
  <course>12.18</course>
  <speed>0.0</speed>
  <fix>3d</fix>
</trkpt>
<trkpt lat="-27.274438" lon="151.2900641">
  <ele>343.09</ele>
  <time>2026-09-01T19:54:40Z</time>
  <course>8.92</course>
  <speed>0.0</speed>
  <fix>3d</fix>
</trkpt>
<trkpt lat="-27.274438" lon="151.2900641">
  <ele>343.02</ele>
  <time>2026-09-01T19:54:40Z</time>
  <course>12.18</course>
  <speed>0.01</speed>
  <fix>3d</fix>
</trkpt>
<trkpt lat="-27.274438" lon="151.2900641">
  <ele>343.09</ele>
  <time>2026-09-01T19:54:40Z</time>
  <course>8.92</course>
  <speed>0.0</speed>
  <fix>3d</fix>
</trkpt>
<trkpt lat="-27.274438" lon="151.2900641">
  <ele>343.02</ele>
  <time>2026-09-01T19:54:40Z</time>
  <course>12.18</course>
  <speed>0.01</speed>
  <fix>3d</fix>
</trkpt>
<trkpt lat="-27.274438" lon="151.2900641">
  <ele>343.09</ele>
  <time>2026-09-01T19:54:40Z</time>
  <course>10.55</course>
  <speed>0.0</speed>
  <fix>3d</fix>
</trkpt>
<trkpt lat="-27.274438" lon="151.2900641">
  <ele>343.02</ele>
  <time>2026-09-01T19:54:40Z</time>
  <course>12.18</course>
  <speed>0.0</speed>
  <fix>3d</fix>
</trkpt>
<trkpt lat="-27.274438" lon="151.2900641">
  <ele>343.09</ele>
  <time>2026-09-01T19:54:40Z</time>
  <course>10.55</course>
  <speed>0.0</speed>
  <fix>3d</fix>
</trkpt>
<trkpt lat="-27.274438" lon="151.2900641">
  <ele>343.02</ele>
  <time>2026-09-01T19:54:40Z</time>
  <course>12.17</course>
  <speed>0.0</speed>
  <fix>3d</fix>
</trkpt>
<trkpt lat="-27.274438" lon="151.2900641">
  <ele>343.09</ele>
  <time>2026-09-01T19:54:40Z</time>
  <course>352.92</course>
  <speed>0.0</speed>
  <fix>3d</fix>
</trkpt>
<trkpt lat="-27.274438" lon="151.2900641">
  <ele>343.02</ele>
  <time>2026-09-01T19:54:40Z</time>
  <course>12.17</course>
  <speed>0.0</speed>
  <fix>3d</fix>
</trkpt>
<trkpt lat="-27.274438" lon="151.2900641">
  <ele>343.09</ele>
  <time>2026-09-01T19:54:40Z</time>
  <course>352.92</course>
  <speed>0.0</speed>
  <fix>3d</fix>
</trkpt>
<trkpt lat="-27.274438" lon="151.2900641">
  <ele>343.02</ele>
  <time>2026-09-01T19:54:40Z</time>
  <course>12.17</course>
  <speed>0.0</speed>
  <fix>3d</fix>
</trkpt>
<trkpt lat="-27.274438" lon="151.2900641">
  <ele>343.09</ele>
  <time>2026-09-01T19:54:40Z</time>
  <course>349.93</course>
  <speed>0.0</speed>
  <fix>3d</fix>
</trkpt>
<trkpt lat="-27.274438" lon="151.2900641">
  <ele>343.02</ele>
  <time>2026-09-01T19:54:40Z</time>
  <course>12.16</course>
  <speed>0.0</speed>
  <fix>3d</fix>
</trkpt>
<trkpt lat="-27.274438" lon="151.2900641">
  <ele>343.09</ele>
  <time>2026-09-01T19:54:40Z</time>
  <course>349.93</course>
  <speed>0.0</speed>
  <fix>3d</fix>
</trkpt>
<trkpt lat="-27.274438" lon="151.2900641">
  <ele>343.02</ele>
  <time>2026-09-01T19:54:40Z</time>
  <course>12.16</course>
  <speed>0.0</speed>
  <fix>3d</fix>
</trkpt>
<trkpt lat="-27.274438" lon="151.2900641">
  <ele>343.09</ele>
  <time>2026-09-01T19:54:40Z</time>
  <course>14.45</course>
  <speed>0.0</speed>
  <fix>3d</fix>
</trkpt>
<trkpt lat="-27.274438" lon="151.2900641">
  <ele>343.01</ele>
  <time>2026-09-01T19:54:40Z</time>
  <course>12.16</course>
  <speed>0.0</speed>
  <fix>3d</fix>
</trkpt>
<trkpt lat="-27.274438" lon="151.2900641">
  <ele>343.09</ele>
  <time>2026-09-01T19:54:40Z</time>
  <course>14.45</course>
  <speed>0.0</speed>
  <fix>3d</fix>
</trkpt>
<trkpt lat="-27.274438" lon="151.2900641">
  <ele>343.01</ele>
  <time>2026-09-01T19:54:40Z</time>
  <course>12.16</course>
  <speed>0.0</speed>
  <fix>3d</fix>
</trkpt>
<trkpt lat="-27.2744379" lon="151.2900641">
  <ele>343.09</ele>
  <time>2026-09-01T19:54:40Z</time>
  <course>20.45</course>
  <speed>0.0</speed>
  <fix>3d</fix>
</trkpt>
<trkpt lat="-27.274438" lon="151.2900641">
  <ele>343.01</ele>
  <time>2026-09-01T19:54:40Z</time>
  <course>12.15</course>
  <speed>0.01</speed>
  <fix>3d</fix>
</trkpt>
<trkpt lat="-27.2744379" lon="151.2900641">
  <ele>343.09</ele>
  <time>2026-09-01T19:54:40Z</time>
  <course>20.45</course>
  <speed>0.0</speed>
  <fix>3d</fix>
</trkpt>
<trkpt lat="-27.274438" lon="151.2900641">
  <ele>343.01</ele>
  <time>2026-09-01T19:54:40Z</time>
  <course>12.15</course>
  <speed>0.01</speed>
  <fix>3d</fix>
</trkpt>
<trkpt lat="-27.2744379" lon="151.2900641">
  <ele>343.09</ele>
  <time>2026-09-01T19:54:40Z</time>
  <course>353.45</course>
  <speed>0.0</speed>
  <fix>3d</fix>
</trkpt>
<trkpt lat="-27.274438" lon="151.2900641">
  <ele>343.01</ele>
  <time>2026-09-01T19:54:40Z</time>
  <course>12.15</course>
  <speed>0.01</speed>
  <fix>3d</fix>
</trkpt>
<trkpt lat="-27.2744379" lon="151.2900641">
  <ele>343.09</ele>
  <time>2026-09-01T19:54:40Z</time>
  <course>353.45</course>
  <speed>0.0</speed>
  <fix>3d</fix>
</trkpt>
<trkpt lat="-27.274438" lon="151.2900641">
  <ele>343.01</ele>
  <time>2026-09-01T19:54:40Z</time>
  <course>12.15</course>
  <speed>0.01</speed>
  <fix>3d</fix>
</trkpt>
<trkpt lat="-27.2744379" lon="151.2900641">
  <ele>343.09</ele>
  <time>2026-09-01T19:54:40Z</time>
  <course>356.29</course>
  <speed>0.0</speed>
  <fix>3d</fix>
</trkpt>
<trkpt lat="-27.274438" lon="151.2900641">
  <ele>343.01</ele>
  <time>2026-09-01T19:54:40Z</time>
  <course>12.14</course>
  <speed>0.01</speed>
  <fix>3d</fix>
</trkpt>
<trkpt lat="-27.2744379" lon="151.2900641">
  <ele>343.09</ele>
  <time>2026-09-01T19:54:40Z</time>
  <course>356.29</course>
  <speed>0.0</speed>
  <fix>3d</fix>
</trkpt>
<trkpt lat="-27.274438" lon="151.2900641">
  <ele>343.01</ele>
  <time>2026-09-01T19:54:40Z</time>
  <course>12.14</course>
  <speed>0.0</speed>
  <fix>3d</fix>
</trkpt>
<trkpt lat="-27.2744379" lon="151.2900641">
  <ele>343.09</ele>
  <time>2026-09-01T19:54:40Z</time>
  <course>15.01</course>
  <speed>0.0</speed>
  <fix>3d</fix>
</trkpt>
<trkpt lat="-27.274438" lon="151.2900641">
  <ele>343.01</ele>
  <time>2026-09-01T19:54:40Z</time>
  <course>12.14</course>
  <speed>0.0</speed>
  <fix>3d</fix>
</trkpt>
<trkpt lat="-27.2744379" lon="151.2900641">
  <ele>343.09</ele>
  <time>2026-09-01T19:54:40Z</time>
  <course>15.01</course>
  <speed>0.0</speed>
  <fix>3d</fix>
</trkpt>
<trkpt lat="-27.274438" lon="151.2900641">
  <ele>343.01</ele>
  <time>2026-09-01T19:54:40Z</time>
  <course>12.14</course>
  <speed>0.01</speed>
  <fix>3d</fix>
</trkpt>
<trkpt lat="-27.2744379" lon="151.2900641">
  <ele>343.09</ele>
  <time>2026-09-01T19:54:40Z</time>
  <course>358.98</course>
  <speed>0.0</speed>
  <fix>3d</fix>
</trkpt>
<trkpt lat="-27.274438" lon="151.2900641">
  <ele>343.01</ele>
  <time>2026-09-01T19:54:40Z</time>
  <course>12.13</course>
  <speed>0.0</speed>
  <fix>3d</fix>
</trkpt>
<trkpt lat="-27.2744379" lon="151.2900641">
  <ele>343.09</ele>
  <time>2026-09-01T19:54:40Z</time>
  <course>358.98</course>
  <speed>0.0</speed>
  <fix>3d</fix>
</trkpt>
<trkpt lat="-27.274438" lon="151.2900641">
  <ele>343.01</ele>
  <time>2026-09-01T19:54:40Z</time>
  <course>12.13</course>
  <speed>0.0</speed>
  <fix>3d</fix>
</trkpt>
<trkpt lat="-27.2744379" lon="151.2900641">
  <ele>343.09</ele>
  <time>2026-09-01T19:54:40Z</time>
  <course>11.9</course>
  <speed>0.0</speed>
  <fix>3d</fix>
</trkpt>
<trkpt lat="-27.274438" lon="151.2900641">
  <ele>343.01</ele>
  <time>2026-09-01T19:54:40Z</time>
  <course>12.13</course>
  <speed>0.0</speed>
  <fix>3d</fix>
</trkpt>
<trkpt lat="-27.2744379" lon="151.2900641">
  <ele>343.09</ele>
  <time>2026-09-01T19:54:40Z</time>
  <course>11.9</course>
  <speed>0.0</speed>
  <fix>3d</fix>
</trkpt>
<trkpt lat="-27.274438" lon="151.2900641">
  <ele>343.0</ele>
  <time>2026-09-01T19:54:40Z</time>
  <course>12.13</course>
  <speed>0.0</speed>
  <fix>3d</fix>
</trkpt>
<trkpt lat="-27.2744379" lon="151.2900641">
  <ele>343.09</ele>
  <time>2026-09-01T19:54:40Z</time>
  <course>18.51</course>
  <speed>0.0</speed>
  <fix>3d</fix>
</trkpt>
<trkpt lat="-27.274438" lon="151.2900641">
  <ele>343.0</ele>
  <time>2026-09-01T19:54:40Z</time>
  <course>12.12</course>
  <speed>0.01</speed>
  <fix>3d</fix>
</trkpt>
<trkpt lat="-27.2744379" lon="151.2900641">
  <ele>343.09</ele>
  <time>2026-09-01T19:54:40Z</time>
  <course>18.51</course>
  <speed>0.0</speed>
  <fix>3d</fix>
</trkpt>
<trkpt lat="-27.274438" lon="151.2900641">
  <ele>343.0</ele>
  <time>2026-09-01T19:54:40Z</time>
  <course>12.12</course>
  <speed>0.01</speed>
  <fix>3d</fix>
</trkpt>
<trkpt lat="-27.2744379" lon="151.2900641">
  <ele>343.09</ele>
  <time>2026-09-01T19:54:40Z</time>
  <course>0.8</course>
  <speed>0.0</speed>
  <fix>3d</fix>
</trkpt>
<trkpt lat="-27.274438" lon="151.2900641">
  <ele>343.0</ele>
  <time>2026-09-01T19:54:40Z</time>
  <course>12.12</course>
  <speed>0.01</speed>
  <fix>3d</fix>
</trkpt>
<trkpt lat="-27.2744379" lon="151.2900641">
  <ele>343.09</ele>
  <time>2026-09-01T19:54:40Z</time>
  <course>0.8</course>
  <speed>0.0</speed>
  <fix>3d</fix>
</trkpt>
<trkpt lat="-27.274438" lon="151.2900641">
  <ele>343.0</ele>
  <time>2026-09-01T19:54:40Z</time>
  <course>12.12</course>
  <speed>0.01</speed>
  <fix>3d</fix>
</trkpt>
<trkpt lat="-27.2744379" lon="151.2900641">
  <ele>343.09</ele>
  <time>2026-09-01T19:54:40Z</time>
  <course>12.0</course>
  <speed>0.0</speed>
  <fix>3d</fix>
</trkpt>
<trkpt lat="-27.274438" lon="151.2900641">
  <ele>343.0</ele>
  <time>2026-09-01T19:54:40Z</time>
  <course>12.12</course>
  <speed>0.01</speed>
  <fix>3d</fix>
</trkpt>
<trkpt lat="-27.2744379" lon="151.2900641">
  <ele>343.09</ele>
  <time>2026-09-01T19:54:40Z</time>
  <course>12.0</course>
  <speed>0.0</speed>
  <fix>3d</fix>
</trkpt>
<trkpt lat="-27.274438" lon="151.2900641">
  <ele>343.0</ele>
  <time>2026-09-01T19:54:40Z</time>
  <course>12.11</course>
  <speed>0.01</speed>
  <fix>3d</fix>
</trkpt>
<trkpt lat="-27.2744379" lon="151.2900641">
  <ele>343.09</ele>
  <time>2026-09-01T19:54:40Z</time>
  <course>26.67</course>
  <speed>0.0</speed>
  <fix>3d</fix>
</trkpt>
<trkpt lat="-27.274438" lon="151.2900641">
  <ele>343.0</ele>
  <time>2026-09-01T19:54:40Z</time>
  <course>12.11</course>
  <speed>0.01414213562373095</speed>
  <fix>3d</fix>
</trkpt>
<trkpt lat="-27.2744379" lon="151.2900641">
  <ele>343.09</ele>
  <time>2026-09-01T19:54:40Z</time>
  <course>26.67</course>
  <speed>0.0</speed>
  <fix>3d</fix>
</trkpt>
<trkpt lat="-27.274438" lon="151.2900641">
  <ele>342.99</ele>
  <time>2026-09-01T19:54:40Z</time>
  <course>12.11</course>
  <speed>0.01414213562373095</speed>
  <fix>3d</fix>
</trkpt>
<trkpt lat="-27.2744379" lon="151.2900641">
  <ele>343.1</ele>
  <time>2026-09-01T19:54:40Z</time>
  <course>7.17</course>
  <speed>0.0</speed>
  <fix>3d</fix>
</trkpt>
<trkpt lat="-27.274438" lon="151.2900641">
  <ele>342.99</ele>
  <time>2026-09-01T19:54:40Z</time>
  <course>12.11</course>
  <speed>0.022360679774997897</speed>
  <fix>3d</fix>
</trkpt>
<trkpt lat="-27.2744379" lon="151.2900641">
  <ele>343.1</ele>
  <time>2026-09-01T19:54:40Z</time>
  <course>7.17</course>
  <speed>0.0</speed>
  <fix>3d</fix>
</trkpt>
<trkpt lat="-27.274438" lon="151.2900641">
  <ele>342.99</ele>
  <time>2026-09-01T19:54:40Z</time>
  <course>12.1</course>
  <speed>0.022360679774997897</speed>
  <fix>3d</fix>
</trkpt>
<trkpt lat="-27.2744379" lon="151.2900641">
  <ele>343.1</ele>
  <time>2026-09-01T19:54:40Z</time>
  <course>359.02</course>
  <speed>0.0</speed>
  <fix>3d</fix>
</trkpt>
<trkpt lat="-27.274438" lon="151.2900641">
  <ele>342.99</ele>
  <time>2026-09-01T19:54:40Z</time>
  <course>12.1</course>
  <speed>0.022360679774997897</speed>
  <fix>3d</fix>
</trkpt>
<trkpt lat="-27.2744379" lon="151.2900641">
  <ele>343.1</ele>
  <time>2026-09-01T19:54:40Z</time>
  <course>359.02</course>
  <speed>0.0</speed>
  <fix>3d</fix>
</trkpt>
<trkpt lat="-27.274438" lon="151.2900641">
  <ele>342.99</ele>
  <time>2026-09-01T19:54:40Z</time>
  <course>12.1</course>
  <speed>0.02</speed>
  <fix>3d</fix>
</trkpt>
<trkpt lat="-27.2744379" lon="151.2900641">
  <ele>343.1</ele>
  <time>2026-09-01T19:54:40Z</time>
  <course>42.02</course>
  <speed>0.0</speed>
  <fix>3d</fix>
</trkpt>
<trkpt lat="-27.274438" lon="151.2900641">
  <ele>342.99</ele>
  <time>2026-09-01T19:54:40Z</time>
  <course>12.1</course>
  <speed>0.02</speed>
  <fix>3d</fix>
</trkpt>
<trkpt lat="-27.2744379" lon="151.2900641">
  <ele>343.1</ele>
  <time>2026-09-01T19:54:40Z</time>
  <course>42.02</course>
  <speed>0.0</speed>
  <fix>3d</fix>
</trkpt>
<trkpt lat="-27.274438" lon="151.2900641">
  <ele>342.99</ele>
  <time>2026-09-01T19:54:40Z</time>
  <course>12.09</course>
  <speed>0.02</speed>
  <fix>3d</fix>
</trkpt>
<trkpt lat="-27.2744378" lon="151.2900641">
  <ele>343.1</ele>
  <time>2026-09-01T19:54:40Z</time>
  <course>20.84</course>
  <speed>0.0</speed>
  <fix>3d</fix>
</trkpt>
<trkpt lat="-27.274438" lon="151.2900641">
  <ele>342.98</ele>
  <time>2026-09-01T19:54:40Z</time>
  <course>12.09</course>
  <speed>0.02</speed>
  <fix>3d</fix>
</trkpt>
<trkpt lat="-27.2744378" lon="151.2900641">
  <ele>343.1</ele>
  <time>2026-09-01T19:54:40Z</time>
  <course>20.84</course>
  <speed>0.0</speed>
  <fix>3d</fix>
</trkpt>
<trkpt lat="-27.274438" lon="151.2900641">
  <ele>342.98</ele>
  <time>2026-09-01T19:54:40Z</time>
  <course>12.09</course>
  <speed>0.02</speed>
  <fix>3d</fix>
</trkpt>
<trkpt lat="-27.2744378" lon="151.2900641">
  <ele>343.1</ele>
  <time>2026-09-01T19:54:40Z</time>
  <course>8.09</course>
  <speed>0.0</speed>
  <fix>3d</fix>
</trkpt>
<trkpt lat="-27.274438" lon="151.2900641">
  <ele>342.98</ele>
  <time>2026-09-01T19:54:40Z</time>
  <course>12.09</course>
  <speed>0.02</speed>
  <fix>3d</fix>
</trkpt>
<trkpt lat="-27.2744378" lon="151.2900641">
  <ele>343.1</ele>
  <time>2026-09-01T19:54:40Z</time>
  <course>8.09</course>
  <speed>0.0</speed>
  <fix>3d</fix>
</trkpt>
<trkpt lat="-27.274438" lon="151.2900641">
  <ele>342.98</ele>
  <time>2026-09-01T19:54:40Z</time>
  <course>12.08</course>
  <speed>0.02</speed>
  <fix>3d</fix>
</trkpt>
<trkpt lat="-27.2744378" lon="151.2900641">
  <ele>343.1</ele>
  <time>2026-09-01T19:54:40Z</time>
  <course>7.7</course>
  <speed>0.0</speed>
  <fix>3d</fix>
</trkpt>
<trkpt lat="-27.274438" lon="151.2900641">
  <ele>342.98</ele>
  <time>2026-09-01T19:54:40Z</time>
  <course>12.08</course>
  <speed>0.03</speed>
  <fix>3d</fix>
</trkpt>
<trkpt lat="-27.2744378" lon="151.2900641">
  <ele>343.1</ele>
  <time>2026-09-01T19:54:40Z</time>
  <course>7.7</course>
  <speed>0.0</speed>
  <fix>3d</fix>
</trkpt>
<trkpt lat="-27.274438" lon="151.2900641">
  <ele>342.98</ele>
  <time>2026-09-01T19:54:40Z</time>
  <course>12.08</course>
  <speed>0.03</speed>
  <fix>3d</fix>
</trkpt>
<trkpt lat="-27.2744378" lon="151.2900641">
  <ele>343.1</ele>
  <time>2026-09-01T19:54:40Z</time>
  <course>11.71</course>
  <speed>0.0</speed>
  <fix>3d</fix>
</trkpt>
<trkpt lat="-27.274438" lon="151.2900641">
  <ele>342.98</ele>
  <time>2026-09-01T19:54:40Z</time>
  <course>12.08</course>
  <speed>0.03</speed>
  <fix>3d</fix>
</trkpt>
<trkpt lat="-27.2744378" lon="151.2900641">
  <ele>343.1</ele>
  <time>2026-09-01T19:54:40Z</time>
  <course>11.71</course>
  <speed>0.0</speed>
  <fix>3d</fix>
</trkpt>
<trkpt lat="-27.274438" lon="151.2900641">
  <ele>342.97</ele>
  <time>2026-09-01T19:54:40Z</time>
  <course>12.07</course>
  <speed>0.03</speed>
  <fix>3d</fix>
</trkpt>
<trkpt lat="-27.2744378" lon="151.2900641">
  <ele>343.1</ele>
  <time>2026-09-01T19:54:40Z</time>
  <course>353.89</course>
  <speed>0.0</speed>
  <fix>3d</fix>
</trkpt>
<trkpt lat="-27.274438" lon="151.2900641">
  <ele>342.97</ele>
  <time>2026-09-01T19:54:40Z</time>
  <course>12.07</course>
  <speed>0.03</speed>
  <fix>3d</fix>
</trkpt>
<trkpt lat="-27.2744378" lon="151.2900641">
  <ele>343.1</ele>
  <time>2026-09-01T19:54:40Z</time>
  <course>353.89</course>
  <speed>0.0</speed>
  <fix>3d</fix>
</trkpt>
<trkpt lat="-27.274438" lon="151.2900641">
  <ele>342.97</ele>
  <time>2026-09-01T19:54:40Z</time>
  <course>12.07</course>
  <speed>0.03</speed>
  <fix>3d</fix>
</trkpt>
<trkpt lat="-27.2744378" lon="151.2900641">
  <ele>343.1</ele>
  <time>2026-09-01T19:54:40Z</time>
  <course>356.92</course>
  <speed>0.0</speed>
  <fix>3d</fix>
</trkpt>
<trkpt lat="-27.274438" lon="151.2900641">
  <ele>342.97</ele>
  <time>2026-09-01T19:54:40Z</time>
  <course>12.06</course>
  <speed>0.03</speed>
  <fix>3d</fix>
</trkpt>
<trkpt lat="-27.2744378" lon="151.2900641">
  <ele>343.1</ele>
  <time>2026-09-01T19:54:40Z</time>
  <course>356.92</course>
  <speed>0.0</speed>
  <fix>3d</fix>
</trkpt>
<trkpt lat="-27.274438" lon="151.2900641">
  <ele>342.97</ele>
  <time>2026-09-01T19:54:40Z</time>
  <course>12.06</course>
  <speed>0.03</speed>
  <fix>3d</fix>
</trkpt>
<trkpt lat="-27.2744378" lon="151.2900641">
  <ele>343.1</ele>
  <time>2026-09-01T19:54:40Z</time>
  <course>40.25</course>
  <speed>0.0</speed>
  <fix>3d</fix>
</trkpt>
<trkpt lat="-27.274438" lon="151.2900641">
  <ele>342.97</ele>
  <time>2026-09-01T19:54:40Z</time>
  <course>12.06</course>
  <speed>0.03</speed>
  <fix>3d</fix>
</trkpt>
<trkpt lat="-27.2744378" lon="151.2900641">
  <ele>343.1</ele>
  <time>2026-09-01T19:54:40Z</time>
  <course>40.25</course>
  <speed>0.0</speed>
  <fix>3d</fix>
</trkpt>
<trkpt lat="-27.274438" lon="151.2900641">
  <ele>342.96</ele>
  <time>2026-09-01T19:54:40Z</time>
  <course>12.06</course>
  <speed>0.03</speed>
  <fix>3d</fix>
</trkpt>
<trkpt lat="-27.2744378" lon="151.2900641">
  <ele>343.1</ele>
  <time>2026-09-01T19:54:40Z</time>
  <course>11.59</course>
  <speed>0.0</speed>
  <fix>3d</fix>
</trkpt>
<trkpt lat="-27.274438" lon="151.2900641">
  <ele>342.96</ele>
  <time>2026-09-01T19:54:40Z</time>
  <course>12.06</course>
  <speed>0.03</speed>
  <fix>3d</fix>
</trkpt>
<trkpt lat="-27.2744378" lon="151.2900641">
  <ele>343.1</ele>
  <time>2026-09-01T19:54:40Z</time>
  <course>11.59</course>
  <speed>0.0</speed>
  <fix>3d</fix>
</trkpt>
<trkpt lat="-27.274438" lon="151.2900641">
  <ele>342.96</ele>
  <time>2026-09-01T19:54:40Z</time>
  <course>12.05</course>
  <speed>0.03</speed>
  <fix>3d</fix>
</trkpt>
<trkpt lat="-27.2744378" lon="151.2900641">
  <ele>343.1</ele>
  <time>2026-09-01T19:54:40Z</time>
  <course>331.61</course>
  <speed>0.0</speed>
  <fix>3d</fix>
</trkpt>
<trkpt lat="-27.274438" lon="151.2900641">
  <ele>342.96</ele>
  <time>2026-09-01T19:54:40Z</time>
  <course>12.05</course>
  <speed>0.03</speed>
  <fix>3d</fix>
</trkpt>
<trkpt lat="-27.2744378" lon="151.2900641">
  <ele>343.1</ele>
  <time>2026-09-01T19:54:40Z</time>
  <course>331.61</course>
  <speed>0.0</speed>
  <fix>3d</fix>
</trkpt>
<trkpt lat="-27.274438" lon="151.2900641">
  <ele>342.96</ele>
  <time>2026-09-01T19:54:40Z</time>
  <course>12.05</course>
  <speed>0.03</speed>
  <fix>3d</fix>
</trkpt>
<trkpt lat="-27.2744378" lon="151.2900641">
  <ele>343.1</ele>
  <time>2026-09-01T19:54:40Z</time>
  <course>354.53</course>
  <speed>0.0</speed>
  <fix>3d</fix>
</trkpt>
<trkpt lat="-27.274438" lon="151.2900641">
  <ele>342.95</ele>
  <time>2026-09-01T19:54:40Z</time>
  <course>12.04</course>
  <speed>0.03</speed>
  <fix>3d</fix>
</trkpt>
<trkpt lat="-27.2744378" lon="151.2900641">
  <ele>343.1</ele>
  <time>2026-09-01T19:54:40Z</time>
  <course>354.53</course>
  <speed>0.0</speed>
  <fix>3d</fix>
</trkpt>
<trkpt lat="-27.274438" lon="151.2900641">
  <ele>342.95</ele>
  <time>2026-09-01T19:54:40Z</time>
  <course>12.04</course>
  <speed>0.03</speed>
  <fix>3d</fix>
</trkpt>
<trkpt lat="-27.2744378" lon="151.2900641">
  <ele>343.1</ele>
  <time>2026-09-01T19:54:40Z</time>
  <course>30.38</course>
  <speed>0.0</speed>
  <fix>3d</fix>
</trkpt>
<trkpt lat="-27.274438" lon="151.2900641">
  <ele>342.95</ele>
  <time>2026-09-01T19:54:40Z</time>
  <course>12.04</course>
  <speed>0.03</speed>
  <fix>3d</fix>
</trkpt>
<trkpt lat="-27.2744378" lon="151.2900641">
  <ele>343.1</ele>
  <time>2026-09-01T19:54:40Z</time>
  <course>30.38</course>
  <speed>0.0</speed>
  <fix>3d</fix>
</trkpt>
<trkpt lat="-27.274438" lon="151.2900641">
  <ele>342.95</ele>
  <time>2026-09-01T19:54:40Z</time>
  <course>12.04</course>
  <speed>0.02</speed>
  <fix>3d</fix>
</trkpt>
<trkpt lat="-27.2744378" lon="151.2900642">
  <ele>343.1</ele>
  <time>2026-09-01T19:54:40Z</time>
  <course>10.94</course>
  <speed>0.0</speed>
  <fix>3d</fix>
</trkpt>
<trkpt lat="-27.274438" lon="151.2900641">
  <ele>342.95</ele>
  <time>2026-09-01T19:54:40Z</time>
  <course>12.04</course>
  <speed>0.03</speed>
  <fix>3d</fix>
</trkpt>
<trkpt lat="-27.2744378" lon="151.2900642">
  <ele>343.1</ele>
  <time>2026-09-01T19:54:40Z</time>
  <course>10.94</course>
  <speed>0.0</speed>
  <fix>3d</fix>
</trkpt>
<trkpt lat="-27.274438" lon="151.2900641">
  <ele>342.95</ele>
  <time>2026-09-01T19:54:40Z</time>
  <course>12.03</course>
  <speed>0.0316227766016838</speed>
  <fix>3d</fix>
</trkpt>
<trkpt lat="-27.2744378" lon="151.2900642">
  <ele>343.1</ele>
  <time>2026-09-01T19:54:40Z</time>
  <course>10.44</course>
  <speed>0.0</speed>
  <fix>3d</fix>
</trkpt>
<trkpt lat="-27.274438" lon="151.2900641">
  <ele>342.96</ele>
  <time>2026-09-01T19:54:40Z</time>
  <course>12.03</course>
  <speed>0.0316227766016838</speed>
  <fix>3d</fix>
</trkpt>
<trkpt lat="-27.2744378" lon="151.2900642">
  <ele>343.1</ele>
  <time>2026-09-01T19:54:40Z</time>
  <course>10.44</course>
  <speed>0.0</speed>
  <fix>3d</fix>
</trkpt>
<trkpt lat="-27.274438" lon="151.2900642">
  <ele>342.96</ele>
  <time>2026-09-01T19:54:40Z</time>
  <course>12.03</course>
  <speed>0.0316227766016838</speed>
  <fix>3d</fix>
</trkpt>
<trkpt lat="-27.2744377" lon="151.2900642">
  <ele>343.1</ele>
  <time>2026-09-01T19:54:40Z</time>
  <course>11.66</course>
  <speed>0.0</speed>
  <fix>3d</fix>
</trkpt>
<trkpt lat="-27.274438" lon="151.2900642">
  <ele>342.96</ele>
  <time>2026-09-01T19:54:40Z</time>
  <course>12.02</course>
  <speed>0.022360679774997897</speed>
  <fix>3d</fix>
</trkpt>
<trkpt lat="-27.2744377" lon="151.2900642">
  <ele>343.1</ele>
  <time>2026-09-01T19:54:40Z</time>
  <course>11.66</course>
  <speed>0.0</speed>
  <fix>3d</fix>
</trkpt>
<trkpt lat="-27.274438" lon="151.2900642">
  <ele>342.96</ele>
  <time>2026-09-01T19:54:40Z</time>
  <course>12.02</course>
  <speed>0.022360679774997897</speed>
  <fix>3d</fix>
</trkpt>
<trkpt lat="-27.2744377" lon="151.2900642">
  <ele>343.1</ele>
  <time>2026-09-01T19:54:40Z</time>
  <course>22.16</course>
  <speed>0.0</speed>
  <fix>3d</fix>
</trkpt>
<trkpt lat="-27.274438" lon="151.2900642">
  <ele>342.96</ele>
  <time>2026-09-01T19:54:40Z</time>
  <course>12.02</course>
  <speed>0.022360679774997897</speed>
  <fix>3d</fix>
</trkpt>
<trkpt lat="-27.2744377" lon="151.2900642">
  <ele>343.1</ele>
  <time>2026-09-01T19:54:40Z</time>
  <course>22.16</course>
  <speed>0.0</speed>
  <fix>3d</fix>
</trkpt>
<trkpt lat="-27.274438" lon="151.2900642">
  <ele>342.96</ele>
  <time>2026-09-01T19:54:40Z</time>
  <course>12.02</course>
  <speed>0.0282842712474619</speed>
  <fix>3d</fix>
</trkpt>
<trkpt lat="-27.2744377" lon="151.2900642">
  <ele>343.1</ele>
  <time>2026-09-01T19:54:40Z</time>
  <course>7.46</course>
  <speed>0.0</speed>
  <fix>3d</fix>
</trkpt>
<trkpt lat="-27.274438" lon="151.2900642">
  <ele>342.96</ele>
  <time>2026-09-01T19:54:40Z</time>
  <course>12.01</course>
  <speed>0.0282842712474619</speed>
  <fix>3d</fix>
</trkpt>
<trkpt lat="-27.2744377" lon="151.2900642">
  <ele>343.1</ele>
  <time>2026-09-01T19:54:40Z</time>
  <course>7.46</course>
  <speed>0.0</speed>
  <fix>3d</fix>
</trkpt>
<trkpt lat="-27.274438" lon="151.2900642">
  <ele>342.96</ele>
  <time>2026-09-01T19:54:40Z</time>
  <course>12.01</course>
  <speed>0.0282842712474619</speed>
  <fix>3d</fix>
</trkpt>
<trkpt lat="-27.2744377" lon="151.2900642">
  <ele>343.1</ele>
  <time>2026-09-01T19:54:40Z</time>
  <course>7.14</course>
  <speed>0.0</speed>
  <fix>3d</fix>
</trkpt>
<trkpt lat="-27.274438" lon="151.2900643">
  <ele>342.96</ele>
  <time>2026-09-01T19:54:40Z</time>
  <course>12.01</course>
  <speed>0.0282842712474619</speed>
  <fix>3d</fix>
</trkpt>
<trkpt lat="-27.2744377" lon="151.2900642">
  <ele>343.1</ele>
  <time>2026-09-01T19:54:40Z</time>
  <course>7.14</course>
  <speed>0.0</speed>
  <fix>3d</fix>
</trkpt>
<trkpt lat="-27.274438" lon="151.2900643">
  <ele>342.96</ele>
  <time>2026-09-01T19:54:40Z</time>
  <course>12.01</course>
  <speed>0.0282842712474619</speed>
  <fix>3d</fix>
</trkpt>
<trkpt lat="-27.2744377" lon="151.2900642">
  <ele>343.1</ele>
  <time>2026-09-01T19:54:40Z</time>
  <course>11.88</course>
  <speed>0.0</speed>
  <fix>3d</fix>
</trkpt>
<trkpt lat="-27.274438" lon="151.2900643">
  <ele>342.96</ele>
  <time>2026-09-01T19:54:40Z</time>
  <course>12.0</course>
  <speed>0.0282842712474619</speed>
  <fix>3d</fix>
</trkpt>
<trkpt lat="-27.2744377" lon="151.2900642">
  <ele>343.1</ele>
  <time>2026-09-01T19:54:40Z</time>
  <course>11.88</course>
  <speed>0.0</speed>
  <fix>3d</fix>
</trkpt>
<trkpt lat="-27.274438" lon="151.2900643">
  <ele>342.96</ele>
  <time>2026-09-01T19:54:40Z</time>
  <course>12.0</course>
  <speed>0.0282842712474619</speed>
  <fix>3d</fix>
</trkpt>
<trkpt lat="-27.2744377" lon="151.2900642">
  <ele>343.1</ele>
  <time>2026-09-01T19:54:40Z</time>
  <course>3.03</course>
  <speed>0.0</speed>
  <fix>3d</fix>
</trkpt>
<trkpt lat="-27.274438" lon="151.2900643">
  <ele>342.96</ele>
  <time>2026-09-01T19:54:40Z</time>
  <course>12.0</course>
  <speed>0.04242640687119285</speed>
  <fix>3d</fix>
</trkpt>
<trkpt lat="-27.2744377" lon="151.2900642">
  <ele>343.1</ele>
  <time>2026-09-01T19:54:40Z</time>
  <course>3.03</course>
  <speed>0.0</speed>
  <fix>3d</fix>
</trkpt>
<trkpt lat="-27.274438" lon="151.2900643">
  <ele>342.96</ele>
  <time>2026-09-01T19:54:40Z</time>
  <course>11.99</course>
  <speed>0.0282842712474619</speed>
  <fix>3d</fix>
</trkpt>
<trkpt lat="-27.2744377" lon="151.2900642">
  <ele>343.1</ele>
  <time>2026-09-01T19:54:40Z</time>
  <course>42.39</course>
  <speed>0.0</speed>
  <fix>3d</fix>
</trkpt>
<trkpt lat="-27.274438" lon="151.2900643">
  <ele>342.96</ele>
  <time>2026-09-01T19:54:40Z</time>
  <course>11.99</course>
  <speed>0.0282842712474619</speed>
  <fix>3d</fix>
</trkpt>
<trkpt lat="-27.2744377" lon="151.2900642">
  <ele>343.1</ele>
  <time>2026-09-01T19:54:40Z</time>
  <course>42.39</course>
  <speed>0.0</speed>
  <fix>3d</fix>
</trkpt>
<trkpt lat="-27.274438" lon="151.2900643">
  <ele>342.96</ele>
  <time>2026-09-01T19:54:40Z</time>
  <course>11.99</course>
  <speed>0.0282842712474619</speed>
  <fix>3d</fix>
</trkpt>
<trkpt lat="-27.2744377" lon="151.2900642">
  <ele>343.1</ele>
  <time>2026-09-01T19:54:40Z</time>
  <course>25.88</course>
  <speed>0.0</speed>
  <fix>3d</fix>
</trkpt>
<trkpt lat="-27.274438" lon="151.2900643">
  <ele>342.96</ele>
  <time>2026-09-01T19:54:40Z</time>
  <course>11.98</course>
  <speed>0.0282842712474619</speed>
  <fix>3d</fix>
</trkpt>
<trkpt lat="-27.2744377" lon="151.2900642">
  <ele>343.1</ele>
  <time>2026-09-01T19:54:40Z</time>
  <course>25.88</course>
  <speed>0.0</speed>
  <fix>3d</fix>
</trkpt>
<trkpt lat="-27.274438" lon="151.2900644">
  <ele>342.96</ele>
  <time>2026-09-01T19:54:40Z</time>
  <course>11.98</course>
  <speed>0.03605551275463989</speed>
  <fix>3d</fix>
</trkpt>
<trkpt lat="-27.2744377" lon="151.2900642">
  <ele>343.1</ele>
  <time>2026-09-01T19:54:40Z</time>
  <course>5.3</course>
  <speed>0.0</speed>
  <fix>3d</fix>
</trkpt>
<trkpt lat="-27.274438" lon="151.2900644">
  <ele>342.96</ele>
  <time>2026-09-01T19:54:40Z</time>
  <course>11.98</course>
  <speed>0.0282842712474619</speed>
  <fix>3d</fix>
</trkpt>
<trkpt lat="-27.2744377" lon="151.2900642">
  <ele>343.1</ele>
  <time>2026-09-01T19:54:40Z</time>
  <course>5.3</course>
  <speed>0.0</speed>
  <fix>3d</fix>
</trkpt>
<trkpt lat="-27.274438" lon="151.2900644">
  <ele>342.96</ele>
  <time>2026-09-01T19:54:40Z</time>
  <course>11.98</course>
  <speed>0.0282842712474619</speed>
  <fix>3d</fix>
</trkpt>
<trkpt lat="-27.2744377" lon="151.2900642">
  <ele>343.1</ele>
  <time>2026-09-01T19:54:40Z</time>
  <course>9.06</course>
  <speed>0.0</speed>
  <fix>3d</fix>
</trkpt>
<trkpt lat="-27.274438" lon="151.2900644">
  <ele>342.96</ele>
  <time>2026-09-01T19:54:40Z</time>
  <course>11.98</course>
  <speed>0.0282842712474619</speed>
  <fix>3d</fix>
</trkpt>
<trkpt lat="-27.2744377" lon="151.2900642">
  <ele>343.1</ele>
  <time>2026-09-01T19:54:40Z</time>
  <course>9.06</course>
  <speed>0.0</speed>
  <fix>3d</fix>
</trkpt>
<trkpt lat="-27.274438" lon="151.2900644">
  <ele>342.95</ele>
  <time>2026-09-01T19:54:40Z</time>
  <course>11.97</course>
  <speed>0.03605551275463989</speed>
  <fix>3d</fix>
</trkpt>
<trkpt lat="-27.2744377" lon="151.2900642">
  <ele>343.1</ele>
  <time>2026-09-01T19:54:40Z</time>
  <course>344.7</course>
  <speed>0.0</speed>
  <fix>3d</fix>
</trkpt>
<trkpt lat="-27.274438" lon="151.2900644">
  <ele>342.95</ele>
  <time>2026-09-01T19:54:40Z</time>
  <course>11.97</course>
  <speed>0.0282842712474619</speed>
  <fix>3d</fix>
</trkpt>
<trkpt lat="-27.2744377" lon="151.2900642">
  <ele>343.1</ele>
  <time>2026-09-01T19:54:40Z</time>
  <course>344.7</course>
  <speed>0.0</speed>
  <fix>3d</fix>
</trkpt>
<trkpt lat="-27.274438" lon="151.2900644">
  <ele>342.95</ele>
  <time>2026-09-01T19:54:40Z</time>
  <course>11.97</course>
  <speed>0.0282842712474619</speed>
  <fix>3d</fix>
</trkpt>
<trkpt lat="-27.2744377" lon="151.2900642">
  <ele>343.1</ele>
  <time>2026-09-01T19:54:40Z</time>
  <course>352.7</course>
  <speed>0.0</speed>
  <fix>3d</fix>
</trkpt>
<trkpt lat="-27.274438" lon="151.2900644">
  <ele>342.95</ele>
  <time>2026-09-01T19:54:40Z</time>
  <course>11.97</course>
  <speed>0.0282842712474619</speed>
  <fix>3d</fix>
</trkpt>
<trkpt lat="-27.2744377" lon="151.2900642">
  <ele>343.1</ele>
  <time>2026-09-01T19:54:40Z</time>
  <course>352.7</course>
  <speed>0.0</speed>
  <fix>3d</fix>
</trkpt>
<trkpt lat="-27.274438" lon="151.2900644">
  <ele>342.95</ele>
  <time>2026-09-01T19:54:40Z</time>
  <course>11.96</course>
  <speed>0.0282842712474619</speed>
  <fix>3d</fix>
</trkpt>
<trkpt lat="-27.2744376" lon="151.2900642">
  <ele>343.1</ele>
  <time>2026-09-01T19:54:40Z</time>
  <course>12.65</course>
  <speed>0.0</speed>
  <fix>3d</fix>
</trkpt>
<trkpt lat="-27.274438" lon="151.2900644">
  <ele>342.95</ele>
  <time>2026-09-01T19:54:40Z</time>
  <course>11.96</course>
  <speed>0.0282842712474619</speed>
  <fix>3d</fix>
</trkpt>
<trkpt lat="-27.2744376" lon="151.2900642">
  <ele>343.1</ele>
  <time>2026-09-01T19:54:40Z</time>
  <course>12.65</course>
  <speed>0.0</speed>
  <fix>3d</fix>
</trkpt>
<trkpt lat="-27.274438" lon="151.2900644">
  <ele>342.95</ele>
  <time>2026-09-01T19:54:40Z</time>
  <course>11.96</course>
  <speed>0.0282842712474619</speed>
  <fix>3d</fix>
</trkpt>
<trkpt lat="-27.2744376" lon="151.2900642">
  <ele>343.09</ele>
  <time>2026-09-01T19:54:40Z</time>
  <course>21.43</course>
  <speed>0.0</speed>
  <fix>3d</fix>
</trkpt>
<trkpt lat="-27.2744379" lon="151.2900644">
  <ele>342.95</ele>
  <time>2026-09-01T19:54:40Z</time>
  <course>11.96</course>
  <speed>0.0282842712474619</speed>
  <fix>3d</fix>
</trkpt>
<trkpt lat="-27.2744376" lon="151.2900642">
  <ele>343.09</ele>
  <time>2026-09-01T19:54:40Z</time>
  <course>21.43</course>
  <speed>0.0</speed>
  <fix>3d</fix>
</trkpt>
<trkpt lat="-27.2744379" lon="151.2900644">
  <ele>342.95</ele>
  <time>2026-09-01T19:54:40Z</time>
  <course>11.95</course>
  <speed>0.0282842712474619</speed>
  <fix>3d</fix>
</trkpt>
<trkpt lat="-27.2744376" lon="151.2900642">
  <ele>343.09</ele>
  <time>2026-09-01T19:54:40Z</time>
  <course>10.32</course>
  <speed>0.0</speed>
  <fix>3d</fix>
</trkpt>
<trkpt lat="-27.2744379" lon="151.2900644">
  <ele>342.95</ele>
  <time>2026-09-01T19:54:40Z</time>
  <course>11.95</course>
  <speed>0.0282842712474619</speed>
  <fix>3d</fix>
</trkpt>
<trkpt lat="-27.2744376" lon="151.2900642">
  <ele>343.09</ele>
  <time>2026-09-01T19:54:40Z</time>
  <course>10.32</course>
  <speed>0.0</speed>
  <fix>3d</fix>
</trkpt>
<trkpt lat="-27.2744379" lon="151.2900644">
  <ele>342.95</ele>
  <time>2026-09-01T19:54:40Z</time>
  <course>11.95</course>
  <speed>0.022360679774997897</speed>
  <fix>3d</fix>
</trkpt>
<trkpt lat="-27.2744376" lon="151.2900642">
  <ele>343.09</ele>
  <time>2026-09-01T19:54:40Z</time>
  <course>22.43</course>
  <speed>0.0</speed>
  <fix>3d</fix>
</trkpt>
<trkpt lat="-27.2744379" lon="151.2900644">
  <ele>342.95</ele>
  <time>2026-09-01T19:54:40Z</time>
  <course>11.95</course>
  <speed>0.0282842712474619</speed>
  <fix>3d</fix>
</trkpt>
<trkpt lat="-27.2744376" lon="151.2900642">
  <ele>343.09</ele>
  <time>2026-09-01T19:54:40Z</time>
  <course>22.43</course>
  <speed>0.0</speed>
  <fix>3d</fix>
</trkpt>
<trkpt lat="-27.2744379" lon="151.2900644">
  <ele>342.95</ele>
  <time>2026-09-01T19:54:40Z</time>
  <course>11.94</course>
  <speed>0.0282842712474619</speed>
  <fix>3d</fix>
</trkpt>
<trkpt lat="-27.2744376" lon="151.2900642">
  <ele>343.09</ele>
  <time>2026-09-01T19:54:40Z</time>
  <course>21.91</course>
  <speed>0.0</speed>
  <fix>3d</fix>
</trkpt>
<trkpt lat="-27.2744379" lon="151.2900644">
  <ele>342.95</ele>
  <time>2026-09-01T19:54:40Z</time>
  <course>11.94</course>
  <speed>0.0282842712474619</speed>
  <fix>3d</fix>
</trkpt>
<trkpt lat="-27.2744376" lon="151.2900642">
  <ele>343.09</ele>
  <time>2026-09-01T19:54:40Z</time>
  <course>21.91</course>
  <speed>0.0</speed>
  <fix>3d</fix>
</trkpt>
<trkpt lat="-27.2744379" lon="151.2900644">
  <ele>342.95</ele>
  <time>2026-09-01T19:54:40Z</time>
  <course>11.94</course>
  <speed>0.03605551275463989</speed>
  <fix>3d</fix>
</trkpt>
<trkpt lat="-27.2744376" lon="151.2900642">
  <ele>343.09</ele>
  <time>2026-09-01T19:54:40Z</time>
  <course>350.67</course>
  <speed>0.0</speed>
  <fix>3d</fix>
</trkpt>
<trkpt lat="-27.2744379" lon="151.2900644">
  <ele>342.95</ele>
  <time>2026-09-01T19:54:40Z</time>
  <course>11.93</course>
  <speed>0.022360679774997897</speed>
  <fix>3d</fix>
</trkpt>
<trkpt lat="-27.2744376" lon="151.2900642">
  <ele>343.09</ele>
  <time>2026-09-01T19:54:40Z</time>
  <course>350.67</course>
  <speed>0.0</speed>
  <fix>3d</fix>
</trkpt>
<trkpt lat="-27.2744379" lon="151.2900644">
  <ele>342.95</ele>
  <time>2026-09-01T19:54:40Z</time>
  <course>11.93</course>
  <speed>0.0282842712474619</speed>
  <fix>3d</fix>
</trkpt>
<trkpt lat="-27.2744376" lon="151.2900642">
  <ele>343.09</ele>
  <time>2026-09-01T19:54:40Z</time>
  <course>12.28</course>
  <speed>0.0</speed>
  <fix>3d</fix>
</trkpt>
<trkpt lat="-27.2744379" lon="151.2900644">
  <ele>342.94</ele>
  <time>2026-09-01T19:54:40Z</time>
  <course>11.93</course>
  <speed>0.022360679774997897</speed>
  <fix>3d</fix>
</trkpt>
<trkpt lat="-27.2744376" lon="151.2900642">
  <ele>343.09</ele>
  <time>2026-09-01T19:54:40Z</time>
  <course>12.28</course>
  <speed>0.0</speed>
  <fix>3d</fix>
</trkpt>
<trkpt lat="-27.2744379" lon="151.2900644">
  <ele>342.94</ele>
  <time>2026-09-01T19:54:40Z</time>
  <course>11.93</course>
  <speed>0.0282842712474619</speed>
  <fix>3d</fix>
</trkpt>
<trkpt lat="-27.2744376" lon="151.2900642">
  <ele>343.09</ele>
  <time>2026-09-01T19:54:40Z</time>
  <course>10.62</course>
  <speed>0.0</speed>
  <fix>3d</fix>
</trkpt>
<trkpt lat="-27.2744378" lon="151.2900644">
  <ele>342.94</ele>
  <time>2026-09-01T19:54:40Z</time>
  <course>11.93</course>
  <speed>0.03605551275463989</speed>
  <fix>3d</fix>
</trkpt>
<trkpt lat="-27.2744376" lon="151.2900642">
  <ele>343.09</ele>
  <time>2026-09-01T19:54:40Z</time>
  <course>10.62</course>
  <speed>0.0</speed>
  <fix>3d</fix>
</trkpt>
<trkpt lat="-27.2744378" lon="151.2900644">
  <ele>342.94</ele>
  <time>2026-09-01T19:54:40Z</time>
  <course>11.92</course>
  <speed>0.0282842712474619</speed>
  <fix>3d</fix>
</trkpt>
<trkpt lat="-27.2744376" lon="151.2900642">
  <ele>343.09</ele>
  <time>2026-09-01T19:54:40Z</time>
  <course>22.65</course>
  <speed>0.0</speed>
  <fix>3d</fix>
</trkpt>
<trkpt lat="-27.2744378" lon="151.2900644">
  <ele>342.94</ele>
  <time>2026-09-01T19:54:40Z</time>
  <course>11.92</course>
  <speed>0.0282842712474619</speed>
  <fix>3d</fix>
</trkpt>
<trkpt lat="-27.2744376" lon="151.2900642">
  <ele>343.09</ele>
  <time>2026-09-01T19:54:40Z</time>
  <course>22.65</course>
  <speed>0.0</speed>
  <fix>3d</fix>
</trkpt>
<trkpt lat="-27.2744378" lon="151.2900644">
  <ele>342.94</ele>
  <time>2026-09-01T19:54:40Z</time>
  <course>11.92</course>
  <speed>0.0282842712474619</speed>
  <fix>3d</fix>
</trkpt>
<trkpt lat="-27.2744376" lon="151.2900642">
  <ele>343.09</ele>
  <time>2026-09-01T19:54:40Z</time>
  <course>32.1</course>
  <speed>0.0</speed>
  <fix>3d</fix>
</trkpt>
<trkpt lat="-27.2744378" lon="151.2900644">
  <ele>342.94</ele>
  <time>2026-09-01T19:54:40Z</time>
  <course>11.92</course>
  <speed>0.0282842712474619</speed>
  <fix>3d</fix>
</trkpt>
<trkpt lat="-27.2744376" lon="151.2900642">
  <ele>343.09</ele>
  <time>2026-09-01T19:54:40Z</time>
  <course>32.1</course>
  <speed>0.0</speed>
  <fix>3d</fix>
</trkpt>
<trkpt lat="-27.2744378" lon="151.2900644">
  <ele>342.94</ele>
  <time>2026-09-01T19:54:40Z</time>
  <course>11.92</course>
  <speed>0.0282842712474619</speed>
  <fix>3d</fix>
</trkpt>
<trkpt lat="-27.2744376" lon="151.2900642">
  <ele>343.09</ele>
  <time>2026-09-01T19:54:40Z</time>
  <course>349.89</course>
  <speed>0.0</speed>
  <fix>3d</fix>
</trkpt>
<trkpt lat="-27.2744378" lon="151.2900644">
  <ele>342.94</ele>
  <time>2026-09-01T19:54:40Z</time>
  <course>11.92</course>
  <speed>0.0282842712474619</speed>
  <fix>3d</fix>
</trkpt>
<trkpt lat="-27.2744376" lon="151.2900642">
  <ele>343.09</ele>
  <time>2026-09-01T19:54:40Z</time>
  <course>349.89</course>
  <speed>0.0</speed>
  <fix>3d</fix>
</trkpt>
<trkpt lat="-27.2744378" lon="151.2900644">
  <ele>342.94</ele>
  <time>2026-09-01T19:54:40Z</time>
  <course>11.91</course>
  <speed>0.0282842712474619</speed>
  <fix>3d</fix>
</trkpt>
<trkpt lat="-27.2744376" lon="151.2900642">
  <ele>343.09</ele>
  <time>2026-09-01T19:54:40Z</time>
  <course>347.27</course>
  <speed>0.0</speed>
  <fix>3d</fix>
</trkpt>
<trkpt lat="-27.2744378" lon="151.2900644">
  <ele>342.94</ele>
  <time>2026-09-01T19:54:40Z</time>
  <course>11.91</course>
  <speed>0.0282842712474619</speed>
  <fix>3d</fix>
</trkpt>
<trkpt lat="-27.2744376" lon="151.2900642">
  <ele>343.09</ele>
  <time>2026-09-01T19:54:40Z</time>
  <course>347.27</course>
  <speed>0.0</speed>
  <fix>3d</fix>
</trkpt>
<trkpt lat="-27.2744378" lon="151.2900644">
  <ele>342.94</ele>
  <time>2026-09-01T19:54:40Z</time>
  <course>11.91</course>
  <speed>0.0282842712474619</speed>
  <fix>3d</fix>
</trkpt>
<trkpt lat="-27.2744375" lon="151.2900642">
  <ele>343.09</ele>
  <time>2026-09-01T19:54:40Z</time>
  <course>10.11</course>
  <speed>0.0</speed>
  <fix>3d</fix>
</trkpt>
<trkpt lat="-27.2744378" lon="151.2900644">
  <ele>342.94</ele>
  <time>2026-09-01T19:54:40Z</time>
  <course>11.91</course>
  <speed>0.0282842712474619</speed>
  <fix>3d</fix>
</trkpt>
<trkpt lat="-27.2744375" lon="151.2900642">
  <ele>343.09</ele>
  <time>2026-09-01T19:54:40Z</time>
  <course>10.11</course>
  <speed>0.0</speed>
  <fix>3d</fix>
</trkpt>
<trkpt lat="-27.2744378" lon="151.2900644">
  <ele>342.94</ele>
  <time>2026-09-01T19:54:40Z</time>
  <course>11.91</course>
  <speed>0.0282842712474619</speed>
  <fix>3d</fix>
</trkpt>
<trkpt lat="-27.2744375" lon="151.2900642">
  <ele>343.09</ele>
  <time>2026-09-01T19:54:40Z</time>
  <course>27.78</course>
  <speed>0.0</speed>
  <fix>3d</fix>
</trkpt>
<trkpt lat="-27.2744378" lon="151.2900644">
  <ele>342.94</ele>
  <time>2026-09-01T19:54:40Z</time>
  <course>11.91</course>
  <speed>0.03605551275463989</speed>
  <fix>3d</fix>
</trkpt>
<trkpt lat="-27.2744375" lon="151.2900642">
  <ele>343.09</ele>
  <time>2026-09-01T19:54:40Z</time>
  <course>27.78</course>
  <speed>0.0</speed>
  <fix>3d</fix>
</trkpt>
<trkpt lat="-27.2744378" lon="151.2900644">
  <ele>342.94</ele>
  <time>2026-09-01T19:54:40Z</time>
  <course>11.9</course>
  <speed>0.03605551275463989</speed>
  <fix>3d</fix>
</trkpt>
<trkpt lat="-27.2744375" lon="151.2900642">
  <ele>343.09</ele>
  <time>2026-09-01T19:54:40Z</time>
  <course>29.2</course>
  <speed>0.0</speed>
  <fix>3d</fix>
</trkpt>
<trkpt lat="-27.2744378" lon="151.2900644">
  <ele>342.94</ele>
  <time>2026-09-01T19:54:40Z</time>
  <course>11.9</course>
  <speed>0.03605551275463989</speed>
  <fix>3d</fix>
</trkpt>
<trkpt lat="-27.2744375" lon="151.2900642">
  <ele>343.09</ele>
  <time>2026-09-01T19:54:40Z</time>
  <course>29.2</course>
  <speed>0.0</speed>
  <fix>3d</fix>
</trkpt>
<trkpt lat="-27.2744378" lon="151.2900644">
  <ele>342.94</ele>
  <time>2026-09-01T19:54:40Z</time>
  <course>11.9</course>
  <speed>0.03605551275463989</speed>
  <fix>3d</fix>
</trkpt>
<trkpt lat="-27.2744375" lon="151.2900642">
  <ele>343.09</ele>
  <time>2026-09-01T19:54:40Z</time>
  <course>4.82</course>
  <speed>0.0</speed>
  <fix>3d</fix>
</trkpt>
<trkpt lat="-27.2744378" lon="151.2900644">
  <ele>342.94</ele>
  <time>2026-09-01T19:54:40Z</time>
  <course>11.9</course>
  <speed>0.03605551275463989</speed>
  <fix>3d</fix>
</trkpt>
<trkpt lat="-27.2744375" lon="151.2900642">
  <ele>343.09</ele>
  <time>2026-09-01T19:54:40Z</time>
  <course>4.82</course>
  <speed>0.0</speed>
  <fix>3d</fix>
</trkpt>
<trkpt lat="-27.2744378" lon="151.2900644">
  <ele>342.94</ele>
  <time>2026-09-01T19:54:40Z</time>
  <course>11.9</course>
  <speed>0.0282842712474619</speed>
  <fix>3d</fix>
</trkpt>
<trkpt lat="-27.2744375" lon="151.2900642">
  <ele>343.09</ele>
  <time>2026-09-01T19:54:40Z</time>
  <course>3.56</course>
  <speed>0.0</speed>
  <fix>3d</fix>
</trkpt>
<trkpt lat="-27.2744378" lon="151.2900644">
  <ele>342.94</ele>
  <time>2026-09-01T19:54:40Z</time>
  <course>11.89</course>
  <speed>0.0282842712474619</speed>
  <fix>3d</fix>
</trkpt>
<trkpt lat="-27.2744375" lon="151.2900642">
  <ele>343.09</ele>
  <time>2026-09-01T19:54:40Z</time>
  <course>3.56</course>
  <speed>0.0</speed>
  <fix>3d</fix>
</trkpt>
<trkpt lat="-27.2744378" lon="151.2900644">
  <ele>342.94</ele>
  <time>2026-09-01T19:54:40Z</time>
  <course>11.89</course>
  <speed>0.0282842712474619</speed>
  <fix>3d</fix>
</trkpt>
<trkpt lat="-27.2744375" lon="151.2900642">
  <ele>343.09</ele>
  <time>2026-09-01T19:54:40Z</time>
  <course>13.73</course>
  <speed>0.0</speed>
  <fix>3d</fix>
</trkpt>
<trkpt lat="-27.2744378" lon="151.2900644">
  <ele>342.94</ele>
  <time>2026-09-01T19:54:40Z</time>
  <course>11.89</course>
  <speed>0.0282842712474619</speed>
  <fix>3d</fix>
</trkpt>
<trkpt lat="-27.2744375" lon="151.2900642">
  <ele>343.09</ele>
  <time>2026-09-01T19:54:40Z</time>
  <course>13.73</course>
  <speed>0.0</speed>
  <fix>3d</fix>
</trkpt>
<trkpt lat="-27.2744378" lon="151.2900644">
  <ele>342.94</ele>
  <time>2026-09-01T19:54:40Z</time>
  <course>11.89</course>
  <speed>0.0282842712474619</speed>
  <fix>3d</fix>
</trkpt>
<trkpt lat="-27.2744375" lon="151.2900642">
  <ele>343.09</ele>
  <time>2026-09-01T19:54:40Z</time>
  <course>13.87</course>
  <speed>0.0</speed>
  <fix>3d</fix>
</trkpt>
<trkpt lat="-27.2744378" lon="151.2900644">
  <ele>342.94</ele>
  <time>2026-09-01T19:54:40Z</time>
  <course>11.89</course>
  <speed>0.0282842712474619</speed>
  <fix>3d</fix>
</trkpt>
<trkpt lat="-27.2744375" lon="151.2900642">
  <ele>343.09</ele>
  <time>2026-09-01T19:54:40Z</time>
  <course>13.87</course>
  <speed>0.0</speed>
  <fix>3d</fix>
</trkpt>
<trkpt lat="-27.2744378" lon="151.2900644">
  <ele>342.94</ele>
  <time>2026-09-01T19:54:40Z</time>
  <course>11.88</course>
  <speed>0.0282842712474619</speed>
  <fix>3d</fix>
</trkpt>
<trkpt lat="-27.2744375" lon="151.2900642">
  <ele>343.09</ele>
  <time>2026-09-01T19:54:40Z</time>
  <course>10.7</course>
  <speed>0.0</speed>
  <fix>3d</fix>
</trkpt>
<trkpt lat="-27.2744378" lon="151.2900644">
  <ele>342.94</ele>
  <time>2026-09-01T19:54:40Z</time>
  <course>11.88</course>
  <speed>0.0282842712474619</speed>
  <fix>3d</fix>
</trkpt>
<trkpt lat="-27.2744375" lon="151.2900642">
  <ele>343.09</ele>
  <time>2026-09-01T19:54:40Z</time>
  <course>10.7</course>
  <speed>0.0</speed>
  <fix>3d</fix>
</trkpt>
<trkpt lat="-27.2744378" lon="151.2900644">
  <ele>342.93</ele>
  <time>2026-09-01T19:54:40Z</time>
  <course>11.88</course>
  <speed>0.0282842712474619</speed>
  <fix>3d</fix>
</trkpt>
<trkpt lat="-27.2744375" lon="151.2900642">
  <ele>343.09</ele>
  <time>2026-09-01T19:54:40Z</time>
  <course>11.65</course>
  <speed>0.0</speed>
  <fix>3d</fix>
</trkpt>
<trkpt lat="-27.2744378" lon="151.2900644">
  <ele>342.93</ele>
  <time>2026-09-01T19:54:40Z</time>
  <course>11.88</course>
  <speed>0.0282842712474619</speed>
  <fix>3d</fix>
</trkpt>
<trkpt lat="-27.2744375" lon="151.2900642">
  <ele>343.09</ele>
  <time>2026-09-01T19:54:40Z</time>
  <course>11.65</course>
  <speed>0.0</speed>
  <fix>3d</fix>
</trkpt>
<trkpt lat="-27.2744378" lon="151.2900644">
  <ele>342.93</ele>
  <time>2026-09-01T19:54:40Z</time>
  <course>11.88</course>
  <speed>0.0282842712474619</speed>
  <fix>3d</fix>
</trkpt>
<trkpt lat="-27.2744375" lon="151.2900642">
  <ele>343.09</ele>
  <time>2026-09-01T19:54:40Z</time>
  <course>5.17</course>
  <speed>0.0</speed>
  <fix>3d</fix>
</trkpt>
<trkpt lat="-27.2744378" lon="151.2900644">
  <ele>342.93</ele>
  <time>2026-09-01T19:54:40Z</time>
  <course>11.88</course>
  <speed>0.0282842712474619</speed>
  <fix>3d</fix>
</trkpt>
<trkpt lat="-27.2744375" lon="151.2900642">
  <ele>343.09</ele>
  <time>2026-09-01T19:54:40Z</time>
  <course>5.17</course>
  <speed>0.0</speed>
  <fix>3d</fix>
</trkpt>
<trkpt lat="-27.2744378" lon="151.2900644">
  <ele>342.93</ele>
  <time>2026-09-01T19:54:40Z</time>
  <course>11.88</course>
  <speed>0.0282842712474619</speed>
  <fix>3d</fix>
</trkpt>
<trkpt lat="-27.2744375" lon="151.2900642">
  <ele>343.09</ele>
  <time>2026-09-01T19:54:40Z</time>
  <course>5.73</course>
  <speed>0.0</speed>
  <fix>3d</fix>
</trkpt>
<trkpt lat="-27.2744378" lon="151.2900644">
  <ele>342.93</ele>
  <time>2026-09-01T19:54:40Z</time>
  <course>11.88</course>
  <speed>0.0282842712474619</speed>
  <fix>3d</fix>
</trkpt>
<trkpt lat="-27.2744375" lon="151.2900642">
  <ele>343.09</ele>
  <time>2026-09-01T19:54:40Z</time>
  <course>5.73</course>
  <speed>0.0</speed>
  <fix>3d</fix>
</trkpt>
<trkpt lat="-27.2744378" lon="151.2900644">
  <ele>342.93</ele>
  <time>2026-09-01T19:54:40Z</time>
  <course>11.88</course>
  <speed>0.0282842712474619</speed>
  <fix>3d</fix>
</trkpt>
<trkpt lat="-27.2744374" lon="151.2900642">
  <ele>343.09</ele>
  <time>2026-09-01T19:54:40Z</time>
  <course>358.3</course>
  <speed>0.0</speed>
  <fix>3d</fix>
</trkpt>
<trkpt lat="-27.2744378" lon="151.2900644">
  <ele>342.93</ele>
  <time>2026-09-01T19:54:40Z</time>
  <course>11.88</course>
  <speed>0.0282842712474619</speed>
  <fix>3d</fix>
</trkpt>
<trkpt lat="-27.2744374" lon="151.2900642">
  <ele>343.09</ele>
  <time>2026-09-01T19:54:40Z</time>
  <course>358.3</course>
  <speed>0.0</speed>
  <fix>3d</fix>
</trkpt>
<trkpt lat="-27.2744377" lon="151.2900644">
  <ele>342.93</ele>
  <time>2026-09-01T19:54:40Z</time>
  <course>11.88</course>
  <speed>0.0282842712474619</speed>
  <fix>3d</fix>
</trkpt>
<trkpt lat="-27.2744374" lon="151.2900642">
  <ele>343.09</ele>
  <time>2026-09-01T19:54:40Z</time>
  <course>342.91</course>
  <speed>0.0</speed>
  <fix>3d</fix>
</trkpt>
<trkpt lat="-27.2744377" lon="151.2900644">
  <ele>342.93</ele>
  <time>2026-09-01T19:54:40Z</time>
  <course>11.87</course>
  <speed>0.0282842712474619</speed>
  <fix>3d</fix>
</trkpt>
<trkpt lat="-27.2744374" lon="151.2900642">
  <ele>343.09</ele>
  <time>2026-09-01T19:54:40Z</time>
  <course>342.91</course>
  <speed>0.0</speed>
  <fix>3d</fix>
</trkpt>
<trkpt lat="-27.2744377" lon="151.2900644">
  <ele>342.93</ele>
  <time>2026-09-01T19:54:40Z</time>
  <course>11.87</course>
  <speed>0.0282842712474619</speed>
  <fix>3d</fix>
</trkpt>
<trkpt lat="-27.2744374" lon="151.2900642">
  <ele>343.09</ele>
  <time>2026-09-01T19:54:40Z</time>
  <course>16.73</course>
  <speed>0.0</speed>
  <fix>3d</fix>
</trkpt>
<trkpt lat="-27.2744377" lon="151.2900644">
  <ele>342.93</ele>
  <time>2026-09-01T19:54:40Z</time>
  <course>11.87</course>
  <speed>0.022360679774997897</speed>
  <fix>3d</fix>
</trkpt>
<trkpt lat="-27.2744374" lon="151.2900642">
  <ele>343.09</ele>
  <time>2026-09-01T19:54:40Z</time>
  <course>16.73</course>
  <speed>0.0</speed>
  <fix>3d</fix>
</trkpt>
<trkpt lat="-27.2744377" lon="151.2900644">
  <ele>342.93</ele>
  <time>2026-09-01T19:54:40Z</time>
  <course>11.87</course>
  <speed>0.022360679774997897</speed>
  <fix>3d</fix>
</trkpt>
<trkpt lat="-27.2744374" lon="151.2900642">
  <ele>343.09</ele>
  <time>2026-09-01T19:54:40Z</time>
  <course>17.9</course>
  <speed>0.0</speed>
  <fix>3d</fix>
</trkpt>
<trkpt lat="-27.2744377" lon="151.2900644">
  <ele>342.93</ele>
  <time>2026-09-01T19:54:40Z</time>
  <course>11.87</course>
  <speed>0.022360679774997897</speed>
  <fix>3d</fix>
</trkpt>
<trkpt lat="-27.2744374" lon="151.2900642">
  <ele>343.09</ele>
  <time>2026-09-01T19:54:40Z</time>
  <course>17.9</course>
  <speed>0.0</speed>
  <fix>3d</fix>
</trkpt>
<trkpt lat="-27.2744377" lon="151.2900644">
  <ele>342.93</ele>
  <time>2026-09-01T19:54:40Z</time>
  <course>11.87</course>
  <speed>0.022360679774997897</speed>
  <fix>3d</fix>
</trkpt>
<trkpt lat="-27.2744374" lon="151.2900642">
  <ele>343.09</ele>
  <time>2026-09-01T19:54:40Z</time>
  <course>13.1</course>
  <speed>0.0</speed>
  <fix>3d</fix>
</trkpt>
<trkpt lat="-27.2744377" lon="151.2900644">
  <ele>342.93</ele>
  <time>2026-09-01T19:54:40Z</time>
  <course>11.87</course>
  <speed>0.022360679774997897</speed>
  <fix>3d</fix>
</trkpt>
<trkpt lat="-27.2744374" lon="151.2900642">
  <ele>343.09</ele>
  <time>2026-09-01T19:54:40Z</time>
  <course>13.1</course>
  <speed>0.0</speed>
  <fix>3d</fix>
</trkpt>
<trkpt lat="-27.2744377" lon="151.2900644">
  <ele>342.93</ele>
  <time>2026-09-01T19:54:40Z</time>
  <course>11.87</course>
  <speed>0.022360679774997897</speed>
  <fix>3d</fix>
</trkpt>
<trkpt lat="-27.2744374" lon="151.2900642">
  <ele>343.09</ele>
  <time>2026-09-01T19:54:40Z</time>
  <course>358.59</course>
  <speed>0.0</speed>
  <fix>3d</fix>
</trkpt>
<trkpt lat="-27.2744377" lon="151.2900644">
  <ele>342.93</ele>
  <time>2026-09-01T19:54:40Z</time>
  <course>11.87</course>
  <speed>0.022360679774997897</speed>
  <fix>3d</fix>
</trkpt>
<trkpt lat="-27.2744374" lon="151.2900642">
  <ele>343.09</ele>
  <time>2026-09-01T19:54:40Z</time>
  <course>358.59</course>
  <speed>0.0</speed>
  <fix>3d</fix>
</trkpt>
<trkpt lat="-27.2744377" lon="151.2900644">
  <ele>342.93</ele>
  <time>2026-09-01T19:54:40Z</time>
  <course>11.87</course>
  <speed>0.022360679774997897</speed>
  <fix>3d</fix>
</trkpt>
<trkpt lat="-27.2744374" lon="151.2900642">
  <ele>343.09</ele>
  <time>2026-09-01T19:54:40Z</time>
  <course>10.42</course>
  <speed>0.0</speed>
  <fix>3d</fix>
</trkpt>
<trkpt lat="-27.2744377" lon="151.2900644">
  <ele>342.93</ele>
  <time>2026-09-01T19:54:40Z</time>
  <course>11.87</course>
  <speed>0.022360679774997897</speed>
  <fix>3d</fix>
</trkpt>
<trkpt lat="-27.2744374" lon="151.2900642">
  <ele>343.09</ele>
  <time>2026-09-01T19:54:40Z</time>
  <course>10.42</course>
  <speed>0.0</speed>
  <fix>3d</fix>
</trkpt>
<trkpt lat="-27.2744377" lon="151.2900644">
  <ele>342.93</ele>
  <time>2026-09-01T19:54:40Z</time>
  <course>11.87</course>
  <speed>0.022360679774997897</speed>
  <fix>3d</fix>
</trkpt>
<trkpt lat="-27.2744374" lon="151.2900642">
  <ele>343.09</ele>
  <time>2026-09-01T19:54:40Z</time>
  <course>6.84</course>
  <speed>0.0</speed>
  <fix>3d</fix>
</trkpt>
<trkpt lat="-27.2744377" lon="151.2900644">
  <ele>342.93</ele>
  <time>2026-09-01T19:54:40Z</time>
  <course>11.87</course>
  <speed>0.0316227766016838</speed>
  <fix>3d</fix>
</trkpt>
<trkpt lat="-27.2744374" lon="151.2900642">
  <ele>343.09</ele>
  <time>2026-09-01T19:54:40Z</time>
  <course>6.84</course>
  <speed>0.0</speed>
  <fix>3d</fix>
</trkpt>
<trkpt lat="-27.2744377" lon="151.2900644">
  <ele>342.93</ele>
  <time>2026-09-01T19:54:40Z</time>
  <course>11.87</course>
  <speed>0.022360679774997897</speed>
  <fix>3d</fix>
</trkpt>
<trkpt lat="-27.2744374" lon="151.2900642">
  <ele>343.09</ele>
  <time>2026-09-01T19:54:40Z</time>
  <course>333.91</course>
  <speed>0.0</speed>
  <fix>3d</fix>
</trkpt>
<trkpt lat="-27.2744377" lon="151.2900644">
  <ele>342.93</ele>
  <time>2026-09-01T19:54:40Z</time>
  <course>11.87</course>
  <speed>0.022360679774997897</speed>
  <fix>3d</fix>
</trkpt>
<trkpt lat="-27.2744374" lon="151.2900642">
  <ele>343.09</ele>
  <time>2026-09-01T19:54:40Z</time>
  <course>333.91</course>
  <speed>0.0</speed>
  <fix>3d</fix>
</trkpt>
<trkpt lat="-27.2744377" lon="151.2900644">
  <ele>342.93</ele>
  <time>2026-09-01T19:54:40Z</time>
  <course>11.86</course>
  <speed>0.022360679774997897</speed>
  <fix>3d</fix>
</trkpt>
<trkpt lat="-27.2744374" lon="151.2900642">
  <ele>343.09</ele>
  <time>2026-09-01T19:54:40Z</time>
  <course>39.11</course>
  <speed>0.0</speed>
  <fix>3d</fix>
</trkpt>
<trkpt lat="-27.2744377" lon="151.2900644">
  <ele>342.93</ele>
  <time>2026-09-01T19:54:40Z</time>
  <course>11.86</course>
  <speed>0.022360679774997897</speed>
  <fix>3d</fix>
</trkpt>
<trkpt lat="-27.2744374" lon="151.2900642">
  <ele>343.09</ele>
  <time>2026-09-01T19:54:40Z</time>
  <course>39.11</course>
  <speed>0.0</speed>
  <fix>3d</fix>
</trkpt>
<trkpt lat="-27.2744377" lon="151.2900644">
  <ele>342.93</ele>
  <time>2026-09-01T19:54:40Z</time>
  <course>11.86</course>
  <speed>0.02</speed>
  <fix>3d</fix>
</trkpt>
<trkpt lat="-27.2744374" lon="151.2900642">
  <ele>343.09</ele>
  <time>2026-09-01T19:54:40Z</time>
  <course>24.63</course>
  <speed>0.0</speed>
  <fix>3d</fix>
</trkpt>
<trkpt lat="-27.2744377" lon="151.2900644">
  <ele>342.93</ele>
  <time>2026-09-01T19:54:40Z</time>
  <course>11.86</course>
  <speed>0.0316227766016838</speed>
  <fix>3d</fix>
</trkpt>
<trkpt lat="-27.2744374" lon="151.2900642">
  <ele>343.09</ele>
  <time>2026-09-01T19:54:40Z</time>
  <course>24.63</course>
  <speed>0.0</speed>
  <fix>3d</fix>
</trkpt>
<trkpt lat="-27.2744377" lon="151.2900644">
  <ele>342.93</ele>
  <time>2026-09-01T19:54:40Z</time>
  <course>11.86</course>
  <speed>0.0316227766016838</speed>
  <fix>3d</fix>
</trkpt>
<trkpt lat="-27.2744374" lon="151.2900642">
  <ele>343.09</ele>
  <time>2026-09-01T19:54:40Z</time>
  <course>343.47</course>
  <speed>0.0</speed>
  <fix>3d</fix>
</trkpt>
<trkpt lat="-27.2744377" lon="151.2900644">
  <ele>342.94</ele>
  <time>2026-09-01T19:54:40Z</time>
  <course>11.86</course>
  <speed>0.0316227766016838</speed>
  <fix>3d</fix>
</trkpt>
<trkpt lat="-27.2744374" lon="151.2900642">
  <ele>343.09</ele>
  <time>2026-09-01T19:54:40Z</time>
  <course>343.47</course>
  <speed>0.0</speed>
  <fix>3d</fix>
</trkpt>
<trkpt lat="-27.2744377" lon="151.2900644">
  <ele>342.94</ele>
  <time>2026-09-01T19:54:40Z</time>
  <course>11.86</course>
  <speed>0.0316227766016838</speed>
  <fix>3d</fix>
</trkpt>
<trkpt lat="-27.2744373" lon="151.2900642">
  <ele>343.09</ele>
  <time>2026-09-01T19:54:40Z</time>
  <course>2.69</course>
  <speed>0.0</speed>
  <fix>3d</fix>
</trkpt>
<trkpt lat="-27.2744377" lon="151.2900644">
  <ele>342.94</ele>
  <time>2026-09-01T19:54:40Z</time>
  <course>11.86</course>
  <speed>0.0316227766016838</speed>
  <fix>3d</fix>
</trkpt>
<trkpt lat="-27.2744373" lon="151.2900642">
  <ele>343.09</ele>
  <time>2026-09-01T19:54:40Z</time>
  <course>2.69</course>
  <speed>0.0</speed>
  <fix>3d</fix>
</trkpt>
<trkpt lat="-27.2744377" lon="151.2900644">
  <ele>342.94</ele>
  <time>2026-09-01T19:54:40Z</time>
  <course>11.86</course>
  <speed>0.0316227766016838</speed>
  <fix>3d</fix>
</trkpt>
<trkpt lat="-27.2744373" lon="151.2900642">
  <ele>343.09</ele>
  <time>2026-09-01T19:54:40Z</time>
  <course>20.94</course>
  <speed>0.0</speed>
  <fix>3d</fix>
</trkpt>
<trkpt lat="-27.2744377" lon="151.2900644">
  <ele>342.94</ele>
  <time>2026-09-01T19:54:40Z</time>
  <course>11.86</course>
  <speed>0.0316227766016838</speed>
  <fix>3d</fix>
</trkpt>
<trkpt lat="-27.2744373" lon="151.2900642">
  <ele>343.09</ele>
  <time>2026-09-01T19:54:40Z</time>
  <course>20.94</course>
  <speed>0.0</speed>
  <fix>3d</fix>
</trkpt>
<trkpt lat="-27.2744377" lon="151.2900644">
  <ele>342.94</ele>
  <time>2026-09-01T19:54:40Z</time>
  <course>11.86</course>
  <speed>0.0316227766016838</speed>
  <fix>3d</fix>
</trkpt>
<trkpt lat="-27.2744373" lon="151.2900642">
  <ele>343.09</ele>
  <time>2026-09-01T19:54:40Z</time>
  <course>3.48</course>
  <speed>0.0</speed>
  <fix>3d</fix>
</trkpt>
<trkpt lat="-27.2744376" lon="151.2900644">
  <ele>342.94</ele>
  <time>2026-09-01T19:54:40Z</time>
  <course>11.85</course>
  <speed>0.0316227766016838</speed>
  <fix>3d</fix>
</trkpt>
<trkpt lat="-27.2744373" lon="151.2900642">
  <ele>343.09</ele>
  <time>2026-09-01T19:54:40Z</time>
  <course>3.48</course>
  <speed>0.0</speed>
  <fix>3d</fix>
</trkpt>
<trkpt lat="-27.2744376" lon="151.2900644">
  <ele>342.94</ele>
  <time>2026-09-01T19:54:40Z</time>
  <course>11.85</course>
  <speed>0.0316227766016838</speed>
  <fix>3d</fix>
</trkpt>
<trkpt lat="-27.2744373" lon="151.2900642">
  <ele>343.09</ele>
  <time>2026-09-01T19:54:40Z</time>
  <course>16.3</course>
  <speed>0.0</speed>
  <fix>3d</fix>
</trkpt>
<trkpt lat="-27.2744376" lon="151.2900644">
  <ele>342.94</ele>
  <time>2026-09-01T19:54:40Z</time>
  <course>11.85</course>
  <speed>0.0316227766016838</speed>
  <fix>3d</fix>
</trkpt>
<trkpt lat="-27.2744373" lon="151.2900642">
  <ele>343.09</ele>
  <time>2026-09-01T19:54:40Z</time>
  <course>16.3</course>
  <speed>0.0</speed>
  <fix>3d</fix>
</trkpt>
<trkpt lat="-27.2744376" lon="151.2900644">
  <ele>342.94</ele>
  <time>2026-09-01T19:54:40Z</time>
  <course>11.85</course>
  <speed>0.022360679774997897</speed>
  <fix>3d</fix>
</trkpt>
<trkpt lat="-27.2744373" lon="151.2900642">
  <ele>343.09</ele>
  <time>2026-09-01T19:54:40Z</time>
  <course>20.71</course>
  <speed>0.0</speed>
  <fix>3d</fix>
</trkpt>
<trkpt lat="-27.2744376" lon="151.2900644">
  <ele>342.94</ele>
  <time>2026-09-01T19:54:40Z</time>
  <course>11.85</course>
  <speed>0.02</speed>
  <fix>3d</fix>
</trkpt>
<trkpt lat="-27.2744373" lon="151.2900642">
  <ele>343.09</ele>
  <time>2026-09-01T19:54:40Z</time>
  <course>20.71</course>
  <speed>0.0</speed>
  <fix>3d</fix>
</trkpt>
<trkpt lat="-27.2744376" lon="151.2900644">
  <ele>342.94</ele>
  <time>2026-09-01T19:54:40Z</time>
  <course>11.85</course>
  <speed>0.02</speed>
  <fix>3d</fix>
</trkpt>
<trkpt lat="-27.2744373" lon="151.2900642">
  <ele>343.09</ele>
  <time>2026-09-01T19:54:40Z</time>
  <course>18.47</course>
  <speed>0.0</speed>
  <fix>3d</fix>
</trkpt>
<trkpt lat="-27.2744376" lon="151.2900644">
  <ele>342.94</ele>
  <time>2026-09-01T19:54:40Z</time>
  <course>11.85</course>
  <speed>0.022360679774997897</speed>
  <fix>3d</fix>
</trkpt>
<trkpt lat="-27.2744373" lon="151.2900642">
  <ele>343.09</ele>
  <time>2026-09-01T19:54:40Z</time>
  <course>18.47</course>
  <speed>0.0</speed>
  <fix>3d</fix>
</trkpt>
<trkpt lat="-27.2744376" lon="151.2900644">
  <ele>342.94</ele>
  <time>2026-09-01T19:54:40Z</time>
  <course>11.85</course>
  <speed>0.022360679774997897</speed>
  <fix>3d</fix>
</trkpt>
<trkpt lat="-27.2744373" lon="151.2900642">
  <ele>343.09</ele>
  <time>2026-09-01T19:54:40Z</time>
  <course>22.93</course>
  <speed>0.0</speed>
  <fix>3d</fix>
</trkpt>
<trkpt lat="-27.2744376" lon="151.2900644">
  <ele>342.94</ele>
  <time>2026-09-01T19:54:40Z</time>
  <course>11.84</course>
  <speed>0.02</speed>
  <fix>3d</fix>
</trkpt>
<trkpt lat="-27.2744373" lon="151.2900642">
  <ele>343.09</ele>
  <time>2026-09-01T19:54:40Z</time>
  <course>22.93</course>
  <speed>0.0</speed>
  <fix>3d</fix>
</trkpt>
<trkpt lat="-27.2744376" lon="151.2900644">
  <ele>342.94</ele>
  <time>2026-09-01T19:54:40Z</time>
  <course>11.84</course>
  <speed>0.02</speed>
  <fix>3d</fix>
</trkpt>
<trkpt lat="-27.2744373" lon="151.2900642">
  <ele>343.09</ele>
  <time>2026-09-01T19:54:40Z</time>
  <course>17.67</course>
  <speed>0.0</speed>
  <fix>3d</fix>
</trkpt>
<trkpt lat="-27.2744376" lon="151.2900644">
  <ele>342.94</ele>
  <time>2026-09-01T19:54:40Z</time>
  <course>11.84</course>
  <speed>0.022360679774997897</speed>
  <fix>3d</fix>
</trkpt>
<trkpt lat="-27.2744373" lon="151.2900642">
  <ele>343.09</ele>
  <time>2026-09-01T19:54:40Z</time>
  <course>17.67</course>
  <speed>0.0</speed>
  <fix>3d</fix>
</trkpt>
<trkpt lat="-27.2744376" lon="151.2900644">
  <ele>342.94</ele>
  <time>2026-09-01T19:54:40Z</time>
  <course>11.84</course>
  <speed>0.022360679774997897</speed>
  <fix>3d</fix>
</trkpt>
<trkpt lat="-27.2744373" lon="151.2900642">
  <ele>343.09</ele>
  <time>2026-09-01T19:54:40Z</time>
  <course>21.38</course>
  <speed>0.0</speed>
  <fix>3d</fix>
</trkpt>
<trkpt lat="-27.2744376" lon="151.2900644">
  <ele>342.94</ele>
  <time>2026-09-01T19:54:40Z</time>
  <course>11.84</course>
  <speed>0.022360679774997897</speed>
  <fix>3d</fix>
</trkpt>
<trkpt lat="-27.2744373" lon="151.2900642">
  <ele>343.09</ele>
  <time>2026-09-01T19:54:40Z</time>
  <course>21.38</course>
  <speed>0.0</speed>
  <fix>3d</fix>
</trkpt>
<trkpt lat="-27.2744376" lon="151.2900644">
  <ele>342.94</ele>
  <time>2026-09-01T19:54:40Z</time>
  <course>11.84</course>
  <speed>0.022360679774997897</speed>
  <fix>3d</fix>
</trkpt>
<trkpt lat="-27.2744373" lon="151.2900642">
  <ele>343.09</ele>
  <time>2026-09-01T19:54:40Z</time>
  <course>11.74</course>
  <speed>0.0</speed>
  <fix>3d</fix>
</trkpt>
<trkpt lat="-27.2744376" lon="151.2900644">
  <ele>342.94</ele>
  <time>2026-09-01T19:54:40Z</time>
  <course>11.84</course>
  <speed>0.022360679774997897</speed>
  <fix>3d</fix>
</trkpt>
<trkpt lat="-27.2744373" lon="151.2900642">
  <ele>343.09</ele>
  <time>2026-09-01T19:54:40Z</time>
  <course>11.74</course>
  <speed>0.0</speed>
  <fix>3d</fix>
</trkpt>
<trkpt lat="-27.2744376" lon="151.2900644">
  <ele>342.94</ele>
  <time>2026-09-01T19:54:40Z</time>
  <course>11.84</course>
  <speed>0.022360679774997897</speed>
  <fix>3d</fix>
</trkpt>
<trkpt lat="-27.2744373" lon="151.2900642">
  <ele>343.09</ele>
  <time>2026-09-01T19:54:40Z</time>
  <course>4.54</course>
  <speed>0.0</speed>
  <fix>3d</fix>
</trkpt>
<trkpt lat="-27.2744376" lon="151.2900644">
  <ele>342.94</ele>
  <time>2026-09-01T19:54:40Z</time>
  <course>11.84</course>
  <speed>0.022360679774997897</speed>
  <fix>3d</fix>
</trkpt>
<trkpt lat="-27.2744373" lon="151.2900642">
  <ele>343.09</ele>
  <time>2026-09-01T19:54:40Z</time>
  <course>4.54</course>
  <speed>0.0</speed>
  <fix>3d</fix>
</trkpt>
<trkpt lat="-27.2744376" lon="151.2900644">
  <ele>342.94</ele>
  <time>2026-09-01T19:54:40Z</time>
  <course>11.84</course>
  <speed>0.022360679774997897</speed>
  <fix>3d</fix>
</trkpt>
<trkpt lat="-27.2744373" lon="151.2900642">
  <ele>343.09</ele>
  <time>2026-09-01T19:54:40Z</time>
  <course>1.88</course>
  <speed>0.0</speed>
  <fix>3d</fix>
</trkpt>
<trkpt lat="-27.2744376" lon="151.2900644">
  <ele>342.94</ele>
  <time>2026-09-01T19:54:40Z</time>
  <course>11.83</course>
  <speed>0.022360679774997897</speed>
  <fix>3d</fix>
</trkpt>
<trkpt lat="-27.2744373" lon="151.2900642">
  <ele>343.09</ele>
  <time>2026-09-01T19:54:40Z</time>
  <course>1.88</course>
  <speed>0.0</speed>
  <fix>3d</fix>
</trkpt>
<trkpt lat="-27.2744376" lon="151.2900644">
  <ele>342.94</ele>
  <time>2026-09-01T19:54:40Z</time>
  <course>11.83</course>
  <speed>0.022360679774997897</speed>
  <fix>3d</fix>
</trkpt>
<trkpt lat="-27.2744372" lon="151.2900642">
  <ele>343.09</ele>
  <time>2026-09-01T19:54:40Z</time>
  <course>355.09</course>
  <speed>0.0</speed>
  <fix>3d</fix>
</trkpt>
<trkpt lat="-27.2744376" lon="151.2900644">
  <ele>342.94</ele>
  <time>2026-09-01T19:54:40Z</time>
  <course>11.83</course>
  <speed>0.022360679774997897</speed>
  <fix>3d</fix>
</trkpt>
<trkpt lat="-27.2744372" lon="151.2900642">
  <ele>343.09</ele>
  <time>2026-09-01T19:54:40Z</time>
  <course>355.09</course>
  <speed>0.0</speed>
  <fix>3d</fix>
</trkpt>
<trkpt lat="-27.2744375" lon="151.2900644">
  <ele>342.94</ele>
  <time>2026-09-01T19:54:40Z</time>
  <course>11.83</course>
  <speed>0.022360679774997897</speed>
  <fix>3d</fix>
</trkpt>
<trkpt lat="-27.2744372" lon="151.2900642">
  <ele>343.09</ele>
  <time>2026-09-01T19:54:40Z</time>
  <course>5.17</course>
  <speed>0.0</speed>
  <fix>3d</fix>
</trkpt>
<trkpt lat="-27.2744375" lon="151.2900644">
  <ele>342.94</ele>
  <time>2026-09-01T19:54:40Z</time>
  <course>11.83</course>
  <speed>0.01414213562373095</speed>
  <fix>3d</fix>
</trkpt>
<trkpt lat="-27.2744372" lon="151.2900642">
  <ele>343.09</ele>
  <time>2026-09-01T19:54:40Z</time>
  <course>5.17</course>
  <speed>0.0</speed>
  <fix>3d</fix>
</trkpt>
<trkpt lat="-27.2744375" lon="151.2900644">
  <ele>342.94</ele>
  <time>2026-09-01T19:54:41Z</time>
  <course>11.83</course>
  <speed>0.01414213562373095</speed>
  <fix>3d</fix>
</trkpt>
<trkpt lat="-27.2744372" lon="151.2900642">
  <ele>343.09</ele>
  <time>2026-09-01T19:54:41Z</time>
  <course>356.74</course>
  <speed>0.0</speed>
  <fix>3d</fix>
</trkpt>
<trkpt lat="-27.2744375" lon="151.2900644">
  <ele>342.94</ele>
  <time>2026-09-01T19:54:41Z</time>
  <course>11.83</course>
  <speed>0.022360679774997897</speed>
  <fix>3d</fix>
</trkpt>
<trkpt lat="-27.2744372" lon="151.2900642">
  <ele>343.09</ele>
  <time>2026-09-01T19:54:41Z</time>
  <course>356.74</course>
  <speed>0.0</speed>
  <fix>3d</fix>
</trkpt>
<trkpt lat="-27.2744375" lon="151.2900644">
  <ele>342.94</ele>
  <time>2026-09-01T19:54:41Z</time>
  <course>11.83</course>
  <speed>0.01414213562373095</speed>
  <fix>3d</fix>
</trkpt>
<trkpt lat="-27.2744372" lon="151.2900642">
  <ele>343.09</ele>
  <time>2026-09-01T19:54:41Z</time>
  <course>19.28</course>
  <speed>0.0</speed>
  <fix>3d</fix>
</trkpt>
<trkpt lat="-27.2744375" lon="151.2900644">
  <ele>342.94</ele>
  <time>2026-09-01T19:54:41Z</time>
  <course>11.83</course>
  <speed>0.01</speed>
  <fix>3d</fix>
</trkpt>
<trkpt lat="-27.2744372" lon="151.2900642">
  <ele>343.09</ele>
  <time>2026-09-01T19:54:41Z</time>
  <course>19.28</course>
  <speed>0.0</speed>
  <fix>3d</fix>
</trkpt>
<trkpt lat="-27.2744375" lon="151.2900644">
  <ele>342.94</ele>
  <time>2026-09-01T19:54:41Z</time>
  <course>11.83</course>
  <speed>0.01414213562373095</speed>
  <fix>3d</fix>
</trkpt>
<trkpt lat="-27.2744372" lon="151.2900642">
  <ele>343.09</ele>
  <time>2026-09-01T19:54:41Z</time>
  <course>19.67</course>
  <speed>0.0</speed>
  <fix>3d</fix>
</trkpt>
<trkpt lat="-27.2744375" lon="151.2900644">
  <ele>342.94</ele>
  <time>2026-09-01T19:54:41Z</time>
  <course>11.83</course>
  <speed>0.01414213562373095</speed>
  <fix>3d</fix>
</trkpt>
<trkpt lat="-27.2744372" lon="151.2900642">
  <ele>343.09</ele>
  <time>2026-09-01T19:54:41Z</time>
  <course>19.67</course>
  <speed>0.0</speed>
  <fix>3d</fix>
</trkpt>
<trkpt lat="-27.2744375" lon="151.2900644">
  <ele>342.94</ele>
  <time>2026-09-01T19:54:41Z</time>
  <course>11.83</course>
  <speed>0.022360679774997897</speed>
  <fix>3d</fix>
</trkpt>
<trkpt lat="-27.2744372" lon="151.2900642">
  <ele>343.09</ele>
  <time>2026-09-01T19:54:41Z</time>
  <course>357.83</course>
  <speed>0.0</speed>
  <fix>3d</fix>
</trkpt>
<trkpt lat="-27.2744375" lon="151.2900644">
  <ele>342.94</ele>
  <time>2026-09-01T19:54:41Z</time>
  <course>11.83</course>
  <speed>0.022360679774997897</speed>
  <fix>3d</fix>
</trkpt>
<trkpt lat="-27.2744372" lon="151.2900642">
  <ele>343.09</ele>
  <time>2026-09-01T19:54:41Z</time>
  <course>357.83</course>
  <speed>0.0</speed>
  <fix>3d</fix>
</trkpt>
<trkpt lat="-27.2744375" lon="151.2900644">
  <ele>342.94</ele>
  <time>2026-09-01T19:54:41Z</time>
  <course>11.82</course>
  <speed>0.022360679774997897</speed>
  <fix>3d</fix>
</trkpt>
<trkpt lat="-27.2744372" lon="151.2900642">
  <ele>343.09</ele>
  <time>2026-09-01T19:54:41Z</time>
  <course>356.97</course>
  <speed>0.0</speed>
  <fix>3d</fix>
</trkpt>
<trkpt lat="-27.2744375" lon="151.2900644">
  <ele>342.93</ele>
  <time>2026-09-01T19:54:41Z</time>
  <course>11.83</course>
  <speed>0.022360679774997897</speed>
  <fix>3d</fix>
</trkpt>
<trkpt lat="-27.2744372" lon="151.2900642">
  <ele>343.09</ele>
  <time>2026-09-01T19:54:41Z</time>
  <course>356.97</course>
  <speed>0.0</speed>
  <fix>3d</fix>
</trkpt>
<trkpt lat="-27.2744374" lon="151.2900644">
  <ele>342.93</ele>
  <time>2026-09-01T19:54:41Z</time>
  <course>11.82</course>
  <speed>0.022360679774997897</speed>
  <fix>3d</fix>
</trkpt>
<trkpt lat="-27.2744372" lon="151.2900642">
  <ele>343.09</ele>
  <time>2026-09-01T19:54:41Z</time>
  <course>4.2</course>
  <speed>0.0</speed>
  <fix>3d</fix>
</trkpt>
<trkpt lat="-27.2744374" lon="151.2900644">
  <ele>342.93</ele>
  <time>2026-09-01T19:54:41Z</time>
  <course>11.82</course>
  <speed>0.022360679774997897</speed>
  <fix>3d</fix>
</trkpt>
<trkpt lat="-27.2744372" lon="151.2900642">
  <ele>343.09</ele>
  <time>2026-09-01T19:54:41Z</time>
  <course>4.2</course>
  <speed>0.0</speed>
  <fix>3d</fix>
</trkpt>
<trkpt lat="-27.2744374" lon="151.2900644">
  <ele>342.93</ele>
  <time>2026-09-01T19:54:41Z</time>
  <course>11.82</course>
  <speed>0.022360679774997897</speed>
  <fix>3d</fix>
</trkpt>
<trkpt lat="-27.2744372" lon="151.2900642">
  <ele>343.09</ele>
  <time>2026-09-01T19:54:41Z</time>
  <course>10.87</course>
  <speed>0.0</speed>
  <fix>3d</fix>
</trkpt>
<trkpt lat="-27.2744374" lon="151.2900644">
  <ele>342.93</ele>
  <time>2026-09-01T19:54:41Z</time>
  <course>11.82</course>
  <speed>0.022360679774997897</speed>
  <fix>3d</fix>
</trkpt>
<trkpt lat="-27.2744372" lon="151.2900642">
  <ele>343.09</ele>
  <time>2026-09-01T19:54:41Z</time>
  <course>10.87</course>
  <speed>0.0</speed>
  <fix>3d</fix>
</trkpt>
<trkpt lat="-27.2744374" lon="151.2900644">
  <ele>342.93</ele>
  <time>2026-09-01T19:54:41Z</time>
  <course>11.82</course>
  <speed>0.01414213562373095</speed>
  <fix>3d</fix>
</trkpt>
<trkpt lat="-27.2744372" lon="151.2900642">
  <ele>343.09</ele>
  <time>2026-09-01T19:54:41Z</time>
  <course>11.96</course>
  <speed>0.0</speed>
  <fix>3d</fix>
</trkpt>
<trkpt lat="-27.2744374" lon="151.2900644">
  <ele>342.93</ele>
  <time>2026-09-01T19:54:41Z</time>
  <course>11.82</course>
  <speed>0.022360679774997897</speed>
  <fix>3d</fix>
</trkpt>
<trkpt lat="-27.2744372" lon="151.2900642">
  <ele>343.09</ele>
  <time>2026-09-01T19:54:41Z</time>
  <course>11.96</course>
  <speed>0.0</speed>
  <fix>3d</fix>
</trkpt>
<trkpt lat="-27.2744374" lon="151.2900644">
  <ele>342.93</ele>
  <time>2026-09-01T19:54:41Z</time>
  <course>11.82</course>
  <speed>0.022360679774997897</speed>
  <fix>3d</fix>
</trkpt>
<trkpt lat="-27.2744372" lon="151.2900642">
  <ele>343.09</ele>
  <time>2026-09-01T19:54:41Z</time>
  <course>11.11</course>
  <speed>0.0</speed>
  <fix>3d</fix>
</trkpt>
<trkpt lat="-27.2744374" lon="151.2900644">
  <ele>342.93</ele>
  <time>2026-09-01T19:54:41Z</time>
  <course>11.82</course>
  <speed>0.022360679774997897</speed>
  <fix>3d</fix>
</trkpt>
<trkpt lat="-27.2744372" lon="151.2900642">
  <ele>343.09</ele>
  <time>2026-09-01T19:54:41Z</time>
  <course>11.11</course>
  <speed>0.0</speed>
  <fix>3d</fix>
</trkpt>
<trkpt lat="-27.2744374" lon="151.2900644">
  <ele>342.94</ele>
  <time>2026-09-01T19:54:41Z</time>
  <course>11.81</course>
  <speed>0.022360679774997897</speed>
  <fix>3d</fix>
</trkpt>
<trkpt lat="-27.2744372" lon="151.2900642">
  <ele>343.09</ele>
  <time>2026-09-01T19:54:41Z</time>
  <course>324.26</course>
  <speed>0.0</speed>
  <fix>3d</fix>
</trkpt>
<trkpt lat="-27.2744374" lon="151.2900644">
  <ele>342.94</ele>
  <time>2026-09-01T19:54:41Z</time>
  <course>11.81</course>
  <speed>0.022360679774997897</speed>
  <fix>3d</fix>
</trkpt>
<trkpt lat="-27.2744372" lon="151.2900642">
  <ele>343.09</ele>
  <time>2026-09-01T19:54:41Z</time>
  <course>324.26</course>
  <speed>0.0</speed>
  <fix>3d</fix>
</trkpt>
<trkpt lat="-27.2744374" lon="151.2900644">
  <ele>342.94</ele>
  <time>2026-09-01T19:54:41Z</time>
  <course>11.81</course>
  <speed>0.022360679774997897</speed>
  <fix>3d</fix>
</trkpt>
<trkpt lat="-27.2744371" lon="151.2900642">
  <ele>343.09</ele>
  <time>2026-09-01T19:54:41Z</time>
  <course>13.25</course>
  <speed>0.0</speed>
  <fix>3d</fix>
</trkpt>
<trkpt lat="-27.2744374" lon="151.2900644">
  <ele>342.94</ele>
  <time>2026-09-01T19:54:41Z</time>
  <course>11.81</course>
  <speed>0.022360679774997897</speed>
  <fix>3d</fix>
</trkpt>
<trkpt lat="-27.2744371" lon="151.2900642">
  <ele>343.09</ele>
  <time>2026-09-01T19:54:41Z</time>
  <course>13.25</course>
  <speed>0.0</speed>
  <fix>3d</fix>
</trkpt>
<trkpt lat="-27.2744374" lon="151.2900644">
  <ele>342.94</ele>
  <time>2026-09-01T19:54:41Z</time>
  <course>11.81</course>
  <speed>0.022360679774997897</speed>
  <fix>3d</fix>
</trkpt>
<trkpt lat="-27.2744371" lon="151.2900642">
  <ele>343.09</ele>
  <time>2026-09-01T19:54:41Z</time>
  <course>30.86</course>
  <speed>0.0</speed>
  <fix>3d</fix>
</trkpt>
<trkpt lat="-27.2744374" lon="151.2900644">
  <ele>342.94</ele>
  <time>2026-09-01T19:54:41Z</time>
  <course>11.81</course>
  <speed>0.022360679774997897</speed>
  <fix>3d</fix>
</trkpt>
<trkpt lat="-27.2744371" lon="151.2900642">
  <ele>343.09</ele>
  <time>2026-09-01T19:54:41Z</time>
  <course>30.86</course>
  <speed>0.0</speed>
  <fix>3d</fix>
</trkpt>
<trkpt lat="-27.2744374" lon="151.2900644">
  <ele>342.94</ele>
  <time>2026-09-01T19:54:41Z</time>
  <course>11.81</course>
  <speed>0.022360679774997897</speed>
  <fix>3d</fix>
</trkpt>
<trkpt lat="-27.2744371" lon="151.2900642">
  <ele>343.09</ele>
  <time>2026-09-01T19:54:41Z</time>
  <course>50.93</course>
  <speed>0.0</speed>
  <fix>3d</fix>
</trkpt>
<trkpt lat="-27.2744374" lon="151.2900644">
  <ele>342.94</ele>
  <time>2026-09-01T19:54:41Z</time>
  <course>11.81</course>
  <speed>0.02</speed>
  <fix>3d</fix>
</trkpt>
<trkpt lat="-27.2744371" lon="151.2900642">
  <ele>343.09</ele>
  <time>2026-09-01T19:54:41Z</time>
  <course>50.93</course>
  <speed>0.0</speed>
  <fix>3d</fix>
</trkpt>
<trkpt lat="-27.2744373" lon="151.2900644">
  <ele>342.93</ele>
  <time>2026-09-01T19:54:41Z</time>
  <course>11.81</course>
  <speed>0.022360679774997897</speed>
  <fix>3d</fix>
</trkpt>
<trkpt lat="-27.2744371" lon="151.2900642">
  <ele>343.09</ele>
  <time>2026-09-01T19:54:41Z</time>
  <course>27.68</course>
  <speed>0.0</speed>
  <fix>3d</fix>
</trkpt>
<trkpt lat="-27.2744373" lon="151.2900644">
  <ele>342.93</ele>
  <time>2026-09-01T19:54:41Z</time>
  <course>11.81</course>
  <speed>0.01</speed>
  <fix>3d</fix>
</trkpt>
<trkpt lat="-27.2744371" lon="151.2900642">
  <ele>343.09</ele>
  <time>2026-09-01T19:54:41Z</time>
  <course>27.68</course>
  <speed>0.0</speed>
  <fix>3d</fix>
</trkpt>
<trkpt lat="-27.2744373" lon="151.2900644">
  <ele>342.93</ele>
  <time>2026-09-01T19:54:41Z</time>
  <course>11.81</course>
  <speed>0.022360679774997897</speed>
  <fix>3d</fix>
</trkpt>
<trkpt lat="-27.2744371" lon="151.2900642">
  <ele>343.09</ele>
  <time>2026-09-01T19:54:41Z</time>
  <course>358.86</course>
  <speed>0.0</speed>
  <fix>3d</fix>
</trkpt>
<trkpt lat="-27.2744373" lon="151.2900644">
  <ele>342.93</ele>
  <time>2026-09-01T19:54:41Z</time>
  <course>11.81</course>
  <speed>0.02</speed>
  <fix>3d</fix>
</trkpt>
<trkpt lat="-27.2744371" lon="151.2900642">
  <ele>343.09</ele>
  <time>2026-09-01T19:54:41Z</time>
  <course>358.86</course>
  <speed>0.0</speed>
  <fix>3d</fix>
</trkpt>
<trkpt lat="-27.2744373" lon="151.2900644">
  <ele>342.93</ele>
  <time>2026-09-01T19:54:41Z</time>
  <course>11.81</course>
  <speed>0.01414213562373095</speed>
  <fix>3d</fix>
</trkpt>
<trkpt lat="-27.2744371" lon="151.2900642">
  <ele>343.09</ele>
  <time>2026-09-01T19:54:41Z</time>
  <course>17.15</course>
  <speed>0.0</speed>
  <fix>3d</fix>
</trkpt>
<trkpt lat="-27.2744373" lon="151.2900644">
  <ele>342.93</ele>
  <time>2026-09-01T19:54:41Z</time>
  <course>11.81</course>
  <speed>0.01414213562373095</speed>
  <fix>3d</fix>
</trkpt>
<trkpt lat="-27.2744371" lon="151.2900642">
  <ele>343.09</ele>
  <time>2026-09-01T19:54:41Z</time>
  <course>17.15</course>
  <speed>0.0</speed>
  <fix>3d</fix>
</trkpt>
<trkpt lat="-27.2744373" lon="151.2900644">
  <ele>342.93</ele>
  <time>2026-09-01T19:54:41Z</time>
  <course>11.81</course>
  <speed>0.01414213562373095</speed>
  <fix>3d</fix>
</trkpt>
<trkpt lat="-27.2744371" lon="151.2900642">
  <ele>343.09</ele>
  <time>2026-09-01T19:54:41Z</time>
  <course>48.55</course>
  <speed>0.0</speed>
  <fix>3d</fix>
</trkpt>
<trkpt lat="-27.2744373" lon="151.2900644">
  <ele>342.94</ele>
  <time>2026-09-01T19:54:41Z</time>
  <course>11.81</course>
  <speed>0.02</speed>
  <fix>3d</fix>
</trkpt>
<trkpt lat="-27.2744371" lon="151.2900642">
  <ele>343.09</ele>
  <time>2026-09-01T19:54:41Z</time>
  <course>48.55</course>
  <speed>0.0</speed>
  <fix>3d</fix>
</trkpt>
<trkpt lat="-27.2744373" lon="151.2900644">
  <ele>342.94</ele>
  <time>2026-09-01T19:54:41Z</time>
  <course>11.81</course>
  <speed>0.022360679774997897</speed>
  <fix>3d</fix>
</trkpt>
<trkpt lat="-27.2744371" lon="151.2900642">
  <ele>343.09</ele>
  <time>2026-09-01T19:54:41Z</time>
  <course>12.02</course>
  <speed>0.0</speed>
  <fix>3d</fix>
</trkpt>
<trkpt lat="-27.2744373" lon="151.2900644">
  <ele>342.94</ele>
  <time>2026-09-01T19:54:41Z</time>
  <course>11.81</course>
  <speed>0.022360679774997897</speed>
  <fix>3d</fix>
</trkpt>
<trkpt lat="-27.2744371" lon="151.2900642">
  <ele>343.09</ele>
  <time>2026-09-01T19:54:41Z</time>
  <course>12.02</course>
  <speed>0.0</speed>
  <fix>3d</fix>
</trkpt>
<trkpt lat="-27.2744373" lon="151.2900644">
  <ele>342.94</ele>
  <time>2026-09-01T19:54:41Z</time>
  <course>11.81</course>
  <speed>0.01414213562373095</speed>
  <fix>3d</fix>
</trkpt>
<trkpt lat="-27.2744371" lon="151.2900642">
  <ele>343.09</ele>
  <time>2026-09-01T19:54:41Z</time>
  <course>5.12</course>
  <speed>0.0</speed>
  <fix>3d</fix>
</trkpt>
<trkpt lat="-27.2744373" lon="151.2900644">
  <ele>342.94</ele>
  <time>2026-09-01T19:54:41Z</time>
  <course>11.8</course>
  <speed>0.01414213562373095</speed>
  <fix>3d</fix>
</trkpt>
<trkpt lat="-27.2744371" lon="151.2900642">
  <ele>343.09</ele>
  <time>2026-09-01T19:54:41Z</time>
  <course>5.12</course>
  <speed>0.0</speed>
  <fix>3d</fix>
</trkpt>
<trkpt lat="-27.2744373" lon="151.2900644">
  <ele>342.94</ele>
  <time>2026-09-01T19:54:41Z</time>
  <course>11.8</course>
  <speed>0.02</speed>
  <fix>3d</fix>
</trkpt>
<trkpt lat="-27.2744371" lon="151.2900642">
  <ele>343.09</ele>
  <time>2026-09-01T19:54:41Z</time>
  <course>12.28</course>
  <speed>0.0</speed>
  <fix>3d</fix>
</trkpt>
<trkpt lat="-27.2744373" lon="151.2900644">
  <ele>342.94</ele>
  <time>2026-09-01T19:54:41Z</time>
  <course>11.8</course>
  <speed>0.02</speed>
  <fix>3d</fix>
</trkpt>
<trkpt lat="-27.2744371" lon="151.2900642">
  <ele>343.09</ele>
  <time>2026-09-01T19:54:41Z</time>
  <course>12.28</course>
  <speed>0.0</speed>
  <fix>3d</fix>
</trkpt>
<trkpt lat="-27.2744373" lon="151.2900644">
  <ele>342.94</ele>
  <time>2026-09-01T19:54:41Z</time>
  <course>11.8</course>
  <speed>0.01414213562373095</speed>
  <fix>3d</fix>
</trkpt>
<trkpt lat="-27.2744371" lon="151.2900642">
  <ele>343.09</ele>
  <time>2026-09-01T19:54:41Z</time>
  <course>14.64</course>
  <speed>0.0</speed>
  <fix>3d</fix>
</trkpt>
<trkpt lat="-27.2744373" lon="151.2900644">
  <ele>342.94</ele>
  <time>2026-09-01T19:54:41Z</time>
  <course>11.8</course>
  <speed>0.01</speed>
  <fix>3d</fix>
</trkpt>
<trkpt lat="-27.2744371" lon="151.2900642">
  <ele>343.09</ele>
  <time>2026-09-01T19:54:41Z</time>
  <course>14.64</course>
  <speed>0.0</speed>
  <fix>3d</fix>
</trkpt>
<trkpt lat="-27.2744373" lon="151.2900644">
  <ele>342.93</ele>
  <time>2026-09-01T19:54:41Z</time>
  <course>11.8</course>
  <speed>0.022360679774997897</speed>
  <fix>3d</fix>
</trkpt>
<trkpt lat="-27.2744371" lon="151.2900642">
  <ele>343.09</ele>
  <time>2026-09-01T19:54:41Z</time>
  <course>357.14</course>
  <speed>0.0</speed>
  <fix>3d</fix>
</trkpt>
<trkpt lat="-27.2744373" lon="151.2900644">
  <ele>342.93</ele>
  <time>2026-09-01T19:54:41Z</time>
  <course>11.8</course>
  <speed>0.022360679774997897</speed>
  <fix>3d</fix>
</trkpt>
<trkpt lat="-27.2744371" lon="151.2900642">
  <ele>343.09</ele>
  <time>2026-09-01T19:54:41Z</time>
  <course>357.14</course>
  <speed>0.0</speed>
  <fix>3d</fix>
</trkpt>
<trkpt lat="-27.2744372" lon="151.2900644">
  <ele>342.93</ele>
  <time>2026-09-01T19:54:41Z</time>
  <course>11.8</course>
  <speed>0.022360679774997897</speed>
  <fix>3d</fix>
</trkpt>
<trkpt lat="-27.2744371" lon="151.2900642">
  <ele>343.09</ele>
  <time>2026-09-01T19:54:41Z</time>
  <course>354.34</course>
  <speed>0.0</speed>
  <fix>3d</fix>
</trkpt>
<trkpt lat="-27.2744373" lon="151.2900644">
  <ele>342.93</ele>
  <time>2026-09-01T19:54:41Z</time>
  <course>11.8</course>
  <speed>0.022360679774997897</speed>
  <fix>3d</fix>
</trkpt>
<trkpt lat="-27.2744371" lon="151.2900642">
  <ele>343.09</ele>
  <time>2026-09-01T19:54:41Z</time>
  <course>354.34</course>
  <speed>0.0</speed>
  <fix>3d</fix>
</trkpt>
<trkpt lat="-27.2744372" lon="151.2900644">
  <ele>342.94</ele>
  <time>2026-09-01T19:54:41Z</time>
  <course>11.8</course>
  <speed>0.022360679774997897</speed>
  <fix>3d</fix>
</trkpt>
<trkpt lat="-27.274437" lon="151.2900642">
  <ele>343.09</ele>
  <time>2026-09-01T19:54:41Z</time>
  <course>29.96</course>
  <speed>0.0</speed>
  <fix>3d</fix>
</trkpt>
<trkpt lat="-27.2744372" lon="151.2900644">
  <ele>342.94</ele>
  <time>2026-09-01T19:54:41Z</time>
  <course>11.79</course>
  <speed>0.01414213562373095</speed>
  <fix>3d</fix>
</trkpt>
<trkpt lat="-27.274437" lon="151.2900642">
  <ele>343.09</ele>
  <time>2026-09-01T19:54:41Z</time>
  <course>29.96</course>
  <speed>0.0</speed>
  <fix>3d</fix>
</trkpt>
<trkpt lat="-27.2744372" lon="151.2900644">
  <ele>342.94</ele>
  <time>2026-09-01T19:54:41Z</time>
  <course>11.79</course>
  <speed>0.01414213562373095</speed>
  <fix>3d</fix>
</trkpt>
<trkpt lat="-27.274437" lon="151.2900642">
  <ele>343.09</ele>
  <time>2026-09-01T19:54:41Z</time>
  <course>19.56</course>
  <speed>0.0</speed>
  <fix>3d</fix>
</trkpt>
<trkpt lat="-27.2744372" lon="151.2900644">
  <ele>342.94</ele>
  <time>2026-09-01T19:54:41Z</time>
  <course>11.79</course>
  <speed>0.022360679774997897</speed>
  <fix>3d</fix>
</trkpt>
<trkpt lat="-27.274437" lon="151.2900642">
  <ele>343.09</ele>
  <time>2026-09-01T19:54:41Z</time>
  <course>19.56</course>
  <speed>0.0</speed>
  <fix>3d</fix>
</trkpt>
<trkpt lat="-27.2744372" lon="151.2900644">
  <ele>342.94</ele>
  <time>2026-09-01T19:54:41Z</time>
  <course>11.79</course>
  <speed>0.022360679774997897</speed>
  <fix>3d</fix>
</trkpt>
<trkpt lat="-27.274437" lon="151.2900642">
  <ele>343.09</ele>
  <time>2026-09-01T19:54:41Z</time>
  <course>344.0</course>
  <speed>0.0</speed>
  <fix>3d</fix>
</trkpt>
<trkpt lat="-27.2744372" lon="151.2900644">
  <ele>342.94</ele>
  <time>2026-09-01T19:54:41Z</time>
  <course>11.79</course>
  <speed>0.022360679774997897</speed>
  <fix>3d</fix>
</trkpt>
<trkpt lat="-27.274437" lon="151.2900642">
  <ele>343.09</ele>
  <time>2026-09-01T19:54:41Z</time>
  <course>344.0</course>
  <speed>0.0</speed>
  <fix>3d</fix>
</trkpt>
<trkpt lat="-27.2744372" lon="151.2900644">
  <ele>342.94</ele>
  <time>2026-09-01T19:54:41Z</time>
  <course>11.79</course>
  <speed>0.022360679774997897</speed>
  <fix>3d</fix>
</trkpt>
<trkpt lat="-27.274437" lon="151.2900642">
  <ele>343.09</ele>
  <time>2026-09-01T19:54:41Z</time>
  <course>321.86</course>
  <speed>0.0</speed>
  <fix>3d</fix>
</trkpt>
<trkpt lat="-27.2744373" lon="151.2900644">
  <ele>342.94</ele>
  <time>2026-09-01T19:54:41Z</time>
  <course>11.79</course>
  <speed>0.0282842712474619</speed>
  <fix>3d</fix>
</trkpt>
<trkpt lat="-27.274437" lon="151.2900642">
  <ele>343.09</ele>
  <time>2026-09-01T19:54:41Z</time>
  <course>321.86</course>
  <speed>0.0</speed>
  <fix>3d</fix>
</trkpt>
<trkpt lat="-27.2744372" lon="151.2900644">
  <ele>342.94</ele>
  <time>2026-09-01T19:54:41Z</time>
  <course>11.79</course>
  <speed>0.022360679774997897</speed>
  <fix>3d</fix>
</trkpt>
<trkpt lat="-27.274437" lon="151.2900642">
  <ele>343.09</ele>
  <time>2026-09-01T19:54:41Z</time>
  <course>7.71</course>
  <speed>0.0</speed>
  <fix>3d</fix>
</trkpt>
<trkpt lat="-27.2744373" lon="151.2900644">
  <ele>342.94</ele>
  <time>2026-09-01T19:54:41Z</time>
  <course>11.79</course>
  <speed>0.022360679774997897</speed>
  <fix>3d</fix>
</trkpt>
<trkpt lat="-27.274437" lon="151.2900642">
  <ele>343.09</ele>
  <time>2026-09-01T19:54:41Z</time>
  <course>7.71</course>
  <speed>0.0</speed>
  <fix>3d</fix>
</trkpt>
<trkpt lat="-27.2744372" lon="151.2900644">
  <ele>342.94</ele>
  <time>2026-09-01T19:54:41Z</time>
  <course>11.79</course>
  <speed>0.022360679774997897</speed>
  <fix>3d</fix>
</trkpt>
<trkpt lat="-27.274437" lon="151.2900642">
  <ele>343.09</ele>
  <time>2026-09-01T19:54:41Z</time>
  <course>14.87</course>
  <speed>0.0</speed>
  <fix>3d</fix>
</trkpt>
<trkpt lat="-27.2744373" lon="151.2900644">
  <ele>342.94</ele>
  <time>2026-09-01T19:54:41Z</time>
  <course>11.79</course>
  <speed>0.022360679774997897</speed>
  <fix>3d</fix>
</trkpt>
<trkpt lat="-27.274437" lon="151.2900642">
  <ele>343.09</ele>
  <time>2026-09-01T19:54:41Z</time>
  <course>14.87</course>
  <speed>0.0</speed>
  <fix>3d</fix>
</trkpt>
<trkpt lat="-27.2744372" lon="151.2900644">
  <ele>342.94</ele>
  <time>2026-09-01T19:54:41Z</time>
  <course>11.79</course>
  <speed>0.0282842712474619</speed>
  <fix>3d</fix>
</trkpt>
<trkpt lat="-27.274437" lon="151.2900642">
  <ele>343.09</ele>
  <time>2026-09-01T19:54:41Z</time>
  <course>11.66</course>
  <speed>0.0</speed>
  <fix>3d</fix>
</trkpt>
<trkpt lat="-27.2744372" lon="151.2900644">
  <ele>342.94</ele>
  <time>2026-09-01T19:54:41Z</time>
  <course>11.79</course>
  <speed>0.022360679774997897</speed>
  <fix>3d</fix>
</trkpt>
<trkpt lat="-27.274437" lon="151.2900642">
  <ele>343.09</ele>
  <time>2026-09-01T19:54:41Z</time>
  <course>11.66</course>
  <speed>0.0</speed>
  <fix>3d</fix>
</trkpt>
<trkpt lat="-27.2744372" lon="151.2900644">
  <ele>342.95</ele>
  <time>2026-09-01T19:54:41Z</time>
  <course>11.78</course>
  <speed>0.022360679774997897</speed>
  <fix>3d</fix>
</trkpt>
<trkpt lat="-27.274437" lon="151.2900642">
  <ele>343.09</ele>
  <time>2026-09-01T19:54:41Z</time>
  <course>18.28</course>
  <speed>0.0</speed>
  <fix>3d</fix>
</trkpt>
<trkpt lat="-27.2744372" lon="151.2900644">
  <ele>342.95</ele>
  <time>2026-09-01T19:54:41Z</time>
  <course>11.78</course>
  <speed>0.022360679774997897</speed>
  <fix>3d</fix>
</trkpt>
<trkpt lat="-27.274437" lon="151.2900642">
  <ele>343.09</ele>
  <time>2026-09-01T19:54:41Z</time>
  <course>18.28</course>
  <speed>0.0</speed>
  <fix>3d</fix>
</trkpt>
<trkpt lat="-27.2744372" lon="151.2900644">
  <ele>342.95</ele>
  <time>2026-09-01T19:54:41Z</time>
  <course>11.78</course>
  <speed>0.022360679774997897</speed>
  <fix>3d</fix>
</trkpt>
<trkpt lat="-27.274437" lon="151.2900642">
  <ele>343.09</ele>
  <time>2026-09-01T19:54:41Z</time>
  <course>12.44</course>
  <speed>0.0</speed>
  <fix>3d</fix>
</trkpt>
<trkpt lat="-27.2744372" lon="151.2900644">
  <ele>342.95</ele>
  <time>2026-09-01T19:54:41Z</time>
  <course>11.78</course>
  <speed>0.0282842712474619</speed>
  <fix>3d</fix>
</trkpt>
<trkpt lat="-27.274437" lon="151.2900642">
  <ele>343.09</ele>
  <time>2026-09-01T19:54:41Z</time>
  <course>12.44</course>
  <speed>0.0</speed>
  <fix>3d</fix>
</trkpt>
<trkpt lat="-27.2744372" lon="151.2900644">
  <ele>342.95</ele>
  <time>2026-09-01T19:54:41Z</time>
  <course>11.78</course>
  <speed>0.0282842712474619</speed>
  <fix>3d</fix>
</trkpt>
<trkpt lat="-27.274437" lon="151.2900642">
  <ele>343.09</ele>
  <time>2026-09-01T19:54:41Z</time>
  <course>17.24</course>
  <speed>0.0</speed>
  <fix>3d</fix>
</trkpt>
<trkpt lat="-27.2744372" lon="151.2900644">
  <ele>342.95</ele>
  <time>2026-09-01T19:54:41Z</time>
  <course>11.78</course>
  <speed>0.0282842712474619</speed>
  <fix>3d</fix>
</trkpt>
<trkpt lat="-27.274437" lon="151.2900642">
  <ele>343.09</ele>
  <time>2026-09-01T19:54:41Z</time>
  <course>17.24</course>
  <speed>0.0</speed>
  <fix>3d</fix>
</trkpt>
<trkpt lat="-27.2744372" lon="151.2900644">
  <ele>342.95</ele>
  <time>2026-09-01T19:54:41Z</time>
  <course>11.78</course>
  <speed>0.022360679774997897</speed>
  <fix>3d</fix>
</trkpt>
<trkpt lat="-27.274437" lon="151.2900642">
  <ele>343.09</ele>
  <time>2026-09-01T19:54:41Z</time>
  <course>7.91</course>
  <speed>0.0</speed>
  <fix>3d</fix>
</trkpt>
<trkpt lat="-27.2744372" lon="151.2900644">
  <ele>342.95</ele>
  <time>2026-09-01T19:54:41Z</time>
  <course>11.78</course>
  <speed>0.022360679774997897</speed>
  <fix>3d</fix>
</trkpt>
<trkpt lat="-27.274437" lon="151.2900642">
  <ele>343.09</ele>
  <time>2026-09-01T19:54:41Z</time>
  <course>7.91</course>
  <speed>0.0</speed>
  <fix>3d</fix>
</trkpt>
<trkpt lat="-27.2744372" lon="151.2900644">
  <ele>342.95</ele>
  <time>2026-09-01T19:54:41Z</time>
  <course>11.78</course>
  <speed>0.0282842712474619</speed>
  <fix>3d</fix>
</trkpt>
<trkpt lat="-27.274437" lon="151.2900642">
  <ele>343.09</ele>
  <time>2026-09-01T19:54:41Z</time>
  <course>349.55</course>
  <speed>0.0</speed>
  <fix>3d</fix>
</trkpt>
<trkpt lat="-27.2744372" lon="151.2900644">
  <ele>342.95</ele>
  <time>2026-09-01T19:54:41Z</time>
  <course>11.78</course>
  <speed>0.03605551275463989</speed>
  <fix>3d</fix>
</trkpt>
<trkpt lat="-27.274437" lon="151.2900642">
  <ele>343.09</ele>
  <time>2026-09-01T19:54:41Z</time>
  <course>349.55</course>
  <speed>0.0</speed>
  <fix>3d</fix>
</trkpt>
<trkpt lat="-27.2744372" lon="151.2900644">
  <ele>342.95</ele>
  <time>2026-09-01T19:54:41Z</time>
  <course>11.78</course>
  <speed>0.0282842712474619</speed>
  <fix>3d</fix>
</trkpt>
<trkpt lat="-27.274437" lon="151.2900642">
  <ele>343.09</ele>
  <time>2026-09-01T19:54:41Z</time>
  <course>358.66</course>
  <speed>0.0</speed>
  <fix>3d</fix>
</trkpt>
<trkpt lat="-27.2744372" lon="151.2900644">
  <ele>342.95</ele>
  <time>2026-09-01T19:54:41Z</time>
  <course>11.78</course>
  <speed>0.0282842712474619</speed>
  <fix>3d</fix>
</trkpt>
<trkpt lat="-27.274437" lon="151.2900642">
  <ele>343.09</ele>
  <time>2026-09-01T19:54:41Z</time>
  <course>358.66</course>
  <speed>0.0</speed>
  <fix>3d</fix>
</trkpt>
<trkpt lat="-27.2744372" lon="151.2900644">
  <ele>342.95</ele>
  <time>2026-09-01T19:54:41Z</time>
  <course>11.78</course>
  <speed>0.0282842712474619</speed>
  <fix>3d</fix>
</trkpt>
<trkpt lat="-27.274437" lon="151.2900642">
  <ele>343.09</ele>
  <time>2026-09-01T19:54:41Z</time>
  <course>30.78</course>
  <speed>0.0</speed>
  <fix>3d</fix>
</trkpt>
<trkpt lat="-27.2744372" lon="151.2900644">
  <ele>342.95</ele>
  <time>2026-09-01T19:54:41Z</time>
  <course>11.78</course>
  <speed>0.022360679774997897</speed>
  <fix>3d</fix>
</trkpt>
<trkpt lat="-27.274437" lon="151.2900642">
  <ele>343.09</ele>
  <time>2026-09-01T19:54:41Z</time>
  <course>30.78</course>
  <speed>0.0</speed>
  <fix>3d</fix>
</trkpt>
<trkpt lat="-27.2744372" lon="151.2900644">
  <ele>342.95</ele>
  <time>2026-09-01T19:54:41Z</time>
  <course>11.78</course>
  <speed>0.0282842712474619</speed>
  <fix>3d</fix>
</trkpt>
<trkpt lat="-27.274437" lon="151.2900642">
  <ele>343.09</ele>
  <time>2026-09-01T19:54:41Z</time>
  <course>21.91</course>
  <speed>0.0</speed>
  <fix>3d</fix>
</trkpt>
<trkpt lat="-27.2744372" lon="151.2900644">
  <ele>342.95</ele>
  <time>2026-09-01T19:54:41Z</time>
  <course>11.78</course>
  <speed>0.022360679774997897</speed>
  <fix>3d</fix>
</trkpt>
<trkpt lat="-27.274437" lon="151.2900642">
  <ele>343.09</ele>
  <time>2026-09-01T19:54:41Z</time>
  <course>21.91</course>
  <speed>0.0</speed>
  <fix>3d</fix>
</trkpt>
<trkpt lat="-27.2744372" lon="151.2900644">
  <ele>342.95</ele>
  <time>2026-09-01T19:54:41Z</time>
  <course>11.78</course>
  <speed>0.022360679774997897</speed>
  <fix>3d</fix>
</trkpt>
<trkpt lat="-27.2744369" lon="151.2900642">
  <ele>343.09</ele>
  <time>2026-09-01T19:54:41Z</time>
  <course>355.14</course>
  <speed>0.0</speed>
  <fix>3d</fix>
</trkpt>
<trkpt lat="-27.2744372" lon="151.2900644">
  <ele>342.95</ele>
  <time>2026-09-01T19:54:41Z</time>
  <course>11.78</course>
  <speed>0.03605551275463989</speed>
  <fix>3d</fix>
</trkpt>
<trkpt lat="-27.2744369" lon="151.2900642">
  <ele>343.09</ele>
  <time>2026-09-01T19:54:41Z</time>
  <course>355.14</course>
  <speed>0.0</speed>
  <fix>3d</fix>
</trkpt>
<trkpt lat="-27.2744372" lon="151.2900644">
  <ele>342.95</ele>
  <time>2026-09-01T19:54:41Z</time>
  <course>11.78</course>
  <speed>0.0316227766016838</speed>
  <fix>3d</fix>
</trkpt>
<trkpt lat="-27.2744369" lon="151.2900642">
  <ele>343.09</ele>
  <time>2026-09-01T19:54:41Z</time>
  <course>3.65</course>
  <speed>0.0</speed>
  <fix>3d</fix>
</trkpt>
<trkpt lat="-27.2744372" lon="151.2900644">
  <ele>342.95</ele>
  <time>2026-09-01T19:54:41Z</time>
  <course>11.78</course>
  <speed>0.0282842712474619</speed>
  <fix>3d</fix>
</trkpt>
<trkpt lat="-27.2744369" lon="151.2900642">
  <ele>343.09</ele>
  <time>2026-09-01T19:54:41Z</time>
  <course>3.65</course>
  <speed>0.0</speed>
  <fix>3d</fix>
</trkpt>
<trkpt lat="-27.2744372" lon="151.2900644">
  <ele>342.95</ele>
  <time>2026-09-01T19:54:41Z</time>
  <course>11.77</course>
  <speed>0.03605551275463989</speed>
  <fix>3d</fix>
</trkpt>
<trkpt lat="-27.2744369" lon="151.2900642">
  <ele>343.09</ele>
  <time>2026-09-01T19:54:41Z</time>
  <course>18.82</course>
  <speed>0.0</speed>
  <fix>3d</fix>
</trkpt>
<trkpt lat="-27.2744372" lon="151.2900644">
  <ele>342.95</ele>
  <time>2026-09-01T19:54:41Z</time>
  <course>11.77</course>
  <speed>0.03605551275463989</speed>
  <fix>3d</fix>
</trkpt>
<trkpt lat="-27.2744369" lon="151.2900642">
  <ele>343.09</ele>
  <time>2026-09-01T19:54:41Z</time>
  <course>18.82</course>
  <speed>0.0</speed>
  <fix>3d</fix>
</trkpt>
<trkpt lat="-27.2744372" lon="151.2900644">
  <ele>342.95</ele>
  <time>2026-09-01T19:54:41Z</time>
  <course>11.77</course>
  <speed>0.03605551275463989</speed>
  <fix>3d</fix>
</trkpt>
<trkpt lat="-27.2744369" lon="151.2900642">
  <ele>343.09</ele>
  <time>2026-09-01T19:54:41Z</time>
  <course>11.74</course>
  <speed>0.0</speed>
  <fix>3d</fix>
</trkpt>
<trkpt lat="-27.2744372" lon="151.2900644">
  <ele>342.95</ele>
  <time>2026-09-01T19:54:41Z</time>
  <course>11.77</course>
  <speed>0.03605551275463989</speed>
  <fix>3d</fix>
</trkpt>
<trkpt lat="-27.2744369" lon="151.2900642">
  <ele>343.09</ele>
  <time>2026-09-01T19:54:41Z</time>
  <course>11.74</course>
  <speed>0.0</speed>
  <fix>3d</fix>
</trkpt>
<trkpt lat="-27.2744372" lon="151.2900644">
  <ele>342.95</ele>
  <time>2026-09-01T19:54:41Z</time>
  <course>11.77</course>
  <speed>0.0282842712474619</speed>
  <fix>3d</fix>
</trkpt>
<trkpt lat="-27.2744369" lon="151.2900642">
  <ele>343.09</ele>
  <time>2026-09-01T19:54:41Z</time>
  <course>18.26</course>
  <speed>0.0</speed>
  <fix>3d</fix>
</trkpt>
<trkpt lat="-27.2744372" lon="151.2900644">
  <ele>342.94</ele>
  <time>2026-09-01T19:54:41Z</time>
  <course>11.77</course>
  <speed>0.03605551275463989</speed>
  <fix>3d</fix>
</trkpt>
<trkpt lat="-27.2744369" lon="151.2900642">
  <ele>343.09</ele>
  <time>2026-09-01T19:54:41Z</time>
  <course>18.26</course>
  <speed>0.0</speed>
  <fix>3d</fix>
</trkpt>
<trkpt lat="-27.2744372" lon="151.2900644">
  <ele>342.94</ele>
  <time>2026-09-01T19:54:41Z</time>
  <course>11.77</course>
  <speed>0.03605551275463989</speed>
  <fix>3d</fix>
</trkpt>
<trkpt lat="-27.2744369" lon="151.2900642">
  <ele>343.09</ele>
  <time>2026-09-01T19:54:41Z</time>
  <course>8.68</course>
  <speed>0.0</speed>
  <fix>3d</fix>
</trkpt>
<trkpt lat="-27.2744372" lon="151.2900644">
  <ele>342.94</ele>
  <time>2026-09-01T19:54:41Z</time>
  <course>11.77</course>
  <speed>0.03605551275463989</speed>
  <fix>3d</fix>
</trkpt>
<trkpt lat="-27.2744369" lon="151.2900642">
  <ele>343.09</ele>
  <time>2026-09-01T19:54:41Z</time>
  <course>8.68</course>
  <speed>0.0</speed>
  <fix>3d</fix>
</trkpt>
<trkpt lat="-27.2744372" lon="151.2900644">
  <ele>342.94</ele>
  <time>2026-09-01T19:54:41Z</time>
  <course>11.77</course>
  <speed>0.03605551275463989</speed>
  <fix>3d</fix>
</trkpt>
<trkpt lat="-27.2744369" lon="151.2900642">
  <ele>343.09</ele>
  <time>2026-09-01T19:54:41Z</time>
  <course>24.04</course>
  <speed>0.0</speed>
  <fix>3d</fix>
</trkpt>
<trkpt lat="-27.2744372" lon="151.2900644">
  <ele>342.94</ele>
  <time>2026-09-01T19:54:41Z</time>
  <course>11.77</course>
  <speed>0.03605551275463989</speed>
  <fix>3d</fix>
</trkpt>
<trkpt lat="-27.2744369" lon="151.2900642">
  <ele>343.09</ele>
  <time>2026-09-01T19:54:41Z</time>
  <course>24.04</course>
  <speed>0.0</speed>
  <fix>3d</fix>
</trkpt>
<trkpt lat="-27.2744372" lon="151.2900644">
  <ele>342.94</ele>
  <time>2026-09-01T19:54:41Z</time>
  <course>11.77</course>
  <speed>0.03605551275463989</speed>
  <fix>3d</fix>
</trkpt>
<trkpt lat="-27.2744369" lon="151.2900642">
  <ele>343.09</ele>
  <time>2026-09-01T19:54:41Z</time>
  <course>23.65</course>
  <speed>0.0</speed>
  <fix>3d</fix>
</trkpt>
<trkpt lat="-27.2744372" lon="151.2900644">
  <ele>342.94</ele>
  <time>2026-09-01T19:54:41Z</time>
  <course>11.77</course>
  <speed>0.03605551275463989</speed>
  <fix>3d</fix>
</trkpt>
<trkpt lat="-27.2744369" lon="151.2900642">
  <ele>343.09</ele>
  <time>2026-09-01T19:54:41Z</time>
  <course>23.65</course>
  <speed>0.0</speed>
  <fix>3d</fix>
</trkpt>
<trkpt lat="-27.2744372" lon="151.2900644">
  <ele>342.94</ele>
  <time>2026-09-01T19:54:41Z</time>
  <course>11.77</course>
  <speed>0.0282842712474619</speed>
  <fix>3d</fix>
</trkpt>
<trkpt lat="-27.2744369" lon="151.2900642">
  <ele>343.09</ele>
  <time>2026-09-01T19:54:41Z</time>
  <course>352.03</course>
  <speed>0.0</speed>
  <fix>3d</fix>
</trkpt>
<trkpt lat="-27.2744372" lon="151.2900644">
  <ele>342.95</ele>
  <time>2026-09-01T19:54:41Z</time>
  <course>11.77</course>
  <speed>0.0282842712474619</speed>
  <fix>3d</fix>
</trkpt>
<trkpt lat="-27.2744369" lon="151.2900642">
  <ele>343.09</ele>
  <time>2026-09-01T19:54:41Z</time>
  <course>352.03</course>
  <speed>0.0</speed>
  <fix>3d</fix>
</trkpt>
<trkpt lat="-27.2744372" lon="151.2900644">
  <ele>342.95</ele>
  <time>2026-09-01T19:54:41Z</time>
  <course>11.77</course>
  <speed>0.0282842712474619</speed>
  <fix>3d</fix>
</trkpt>
<trkpt lat="-27.2744369" lon="151.2900642">
  <ele>343.09</ele>
  <time>2026-09-01T19:54:41Z</time>
  <course>13.61</course>
  <speed>0.0</speed>
  <fix>3d</fix>
</trkpt>
<trkpt lat="-27.2744372" lon="151.2900644">
  <ele>342.95</ele>
  <time>2026-09-01T19:54:41Z</time>
  <course>11.77</course>
  <speed>0.0282842712474619</speed>
  <fix>3d</fix>
</trkpt>
<trkpt lat="-27.2744369" lon="151.2900642">
  <ele>343.09</ele>
  <time>2026-09-01T19:54:41Z</time>
  <course>13.61</course>
  <speed>0.0</speed>
  <fix>3d</fix>
</trkpt>
<trkpt lat="-27.2744372" lon="151.2900644">
  <ele>342.95</ele>
  <time>2026-09-01T19:54:41Z</time>
  <course>11.77</course>
  <speed>0.022360679774997897</speed>
  <fix>3d</fix>
</trkpt>
<trkpt lat="-27.2744369" lon="151.2900642">
  <ele>343.09</ele>
  <time>2026-09-01T19:54:41Z</time>
  <course>29.33</course>
  <speed>0.0</speed>
  <fix>3d</fix>
</trkpt>
<trkpt lat="-27.2744372" lon="151.2900644">
  <ele>342.95</ele>
  <time>2026-09-01T19:54:41Z</time>
  <course>11.77</course>
  <speed>0.022360679774997897</speed>
  <fix>3d</fix>
</trkpt>
<trkpt lat="-27.2744369" lon="151.2900642">
  <ele>343.09</ele>
  <time>2026-09-01T19:54:41Z</time>
  <course>29.33</course>
  <speed>0.0</speed>
  <fix>3d</fix>
</trkpt>
<trkpt lat="-27.2744372" lon="151.2900644">
  <ele>342.95</ele>
  <time>2026-09-01T19:54:41Z</time>
  <course>11.77</course>
  <speed>0.022360679774997897</speed>
  <fix>3d</fix>
</trkpt>
<trkpt lat="-27.2744369" lon="151.2900642">
  <ele>343.09</ele>
  <time>2026-09-01T19:54:41Z</time>
  <course>358.25</course>
  <speed>0.0</speed>
  <fix>3d</fix>
</trkpt>
<trkpt lat="-27.2744372" lon="151.2900644">
  <ele>342.95</ele>
  <time>2026-09-01T19:54:41Z</time>
  <course>11.77</course>
  <speed>0.0282842712474619</speed>
  <fix>3d</fix>
</trkpt>
<trkpt lat="-27.2744369" lon="151.2900642">
  <ele>343.09</ele>
  <time>2026-09-01T19:54:41Z</time>
  <course>358.25</course>
  <speed>0.0</speed>
  <fix>3d</fix>
</trkpt>
<trkpt lat="-27.2744372" lon="151.2900644">
  <ele>342.95</ele>
  <time>2026-09-01T19:54:41Z</time>
  <course>11.77</course>
  <speed>0.0282842712474619</speed>
  <fix>3d</fix>
</trkpt>
<trkpt lat="-27.2744369" lon="151.2900642">
  <ele>343.09</ele>
  <time>2026-09-01T19:54:41Z</time>
  <course>342.8</course>
  <speed>0.0</speed>
  <fix>3d</fix>
</trkpt>
<trkpt lat="-27.2744372" lon="151.2900644">
  <ele>342.95</ele>
  <time>2026-09-01T19:54:41Z</time>
  <course>11.77</course>
  <speed>0.0282842712474619</speed>
  <fix>3d</fix>
</trkpt>
<trkpt lat="-27.2744369" lon="151.2900642">
  <ele>343.09</ele>
  <time>2026-09-01T19:54:41Z</time>
  <course>342.8</course>
  <speed>0.0</speed>
  <fix>3d</fix>
</trkpt>
<trkpt lat="-27.2744372" lon="151.2900644">
  <ele>342.95</ele>
  <time>2026-09-01T19:54:41Z</time>
  <course>11.77</course>
  <speed>0.022360679774997897</speed>
  <fix>3d</fix>
</trkpt>
<trkpt lat="-27.2744368" lon="151.2900642">
  <ele>343.09</ele>
  <time>2026-09-01T19:54:41Z</time>
  <course>27.78</course>
  <speed>0.0</speed>
  <fix>3d</fix>
</trkpt>
<trkpt lat="-27.2744372" lon="151.2900644">
  <ele>342.95</ele>
  <time>2026-09-01T19:54:41Z</time>
  <course>11.77</course>
  <speed>0.022360679774997897</speed>
  <fix>3d</fix>
</trkpt>
<trkpt lat="-27.2744368" lon="151.2900642">
  <ele>343.09</ele>
  <time>2026-09-01T19:54:41Z</time>
  <course>27.78</course>
  <speed>0.0</speed>
  <fix>3d</fix>
</trkpt>
<trkpt lat="-27.2744372" lon="151.2900644">
  <ele>342.95</ele>
  <time>2026-09-01T19:54:41Z</time>
  <course>11.77</course>
  <speed>0.022360679774997897</speed>
  <fix>3d</fix>
</trkpt>
<trkpt lat="-27.2744368" lon="151.2900642">
  <ele>343.09</ele>
  <time>2026-09-01T19:54:41Z</time>
  <course>11.76</course>
  <speed>0.0</speed>
  <fix>3d</fix>
</trkpt>
<trkpt lat="-27.2744372" lon="151.2900644">
  <ele>342.95</ele>
  <time>2026-09-01T19:54:41Z</time>
  <course>11.77</course>
  <speed>0.022360679774997897</speed>
  <fix>3d</fix>
</trkpt>
<trkpt lat="-27.2744368" lon="151.2900642">
  <ele>343.09</ele>
  <time>2026-09-01T19:54:41Z</time>
  <course>11.76</course>
  <speed>0.0</speed>
  <fix>3d</fix>
</trkpt>
<trkpt lat="-27.2744371" lon="151.2900644">
  <ele>342.95</ele>
  <time>2026-09-01T19:54:41Z</time>
  <course>11.77</course>
  <speed>0.022360679774997897</speed>
  <fix>3d</fix>
</trkpt>
<trkpt lat="-27.2744368" lon="151.2900642">
  <ele>343.09</ele>
  <time>2026-09-01T19:54:41Z</time>
  <course>335.37</course>
  <speed>0.0</speed>
  <fix>3d</fix>
</trkpt>
<trkpt lat="-27.2744371" lon="151.2900644">
  <ele>342.95</ele>
  <time>2026-09-01T19:54:41Z</time>
  <course>11.77</course>
  <speed>0.022360679774997897</speed>
  <fix>3d</fix>
</trkpt>
<trkpt lat="-27.2744368" lon="151.2900642">
  <ele>343.09</ele>
  <time>2026-09-01T19:54:41Z</time>
  <course>335.37</course>
  <speed>0.0</speed>
  <fix>3d</fix>
</trkpt>
<trkpt lat="-27.2744371" lon="151.2900644">
  <ele>342.95</ele>
  <time>2026-09-01T19:54:41Z</time>
  <course>11.77</course>
  <speed>0.022360679774997897</speed>
  <fix>3d</fix>
</trkpt>
<trkpt lat="-27.2744368" lon="151.2900642">
  <ele>343.09</ele>
  <time>2026-09-01T19:54:41Z</time>
  <course>340.28</course>
  <speed>0.0</speed>
  <fix>3d</fix>
</trkpt>
<trkpt lat="-27.2744371" lon="151.2900644">
  <ele>342.95</ele>
  <time>2026-09-01T19:54:41Z</time>
  <course>11.77</course>
  <speed>0.022360679774997897</speed>
  <fix>3d</fix>
</trkpt>
<trkpt lat="-27.2744368" lon="151.2900642">
  <ele>343.09</ele>
  <time>2026-09-01T19:54:41Z</time>
  <course>340.28</course>
  <speed>0.0</speed>
  <fix>3d</fix>
</trkpt>
<trkpt lat="-27.2744371" lon="151.2900644">
  <ele>342.95</ele>
  <time>2026-09-01T19:54:41Z</time>
  <course>11.77</course>
  <speed>0.022360679774997897</speed>
  <fix>3d</fix>
</trkpt>
<trkpt lat="-27.2744368" lon="151.2900642">
  <ele>343.09</ele>
  <time>2026-09-01T19:54:41Z</time>
  <course>1.91</course>
  <speed>0.0</speed>
  <fix>3d</fix>
</trkpt>
<trkpt lat="-27.2744371" lon="151.2900644">
  <ele>342.95</ele>
  <time>2026-09-01T19:54:41Z</time>
  <course>11.77</course>
  <speed>0.01414213562373095</speed>
  <fix>3d</fix>
</trkpt>
<trkpt lat="-27.2744368" lon="151.2900642">
  <ele>343.09</ele>
  <time>2026-09-01T19:54:41Z</time>
  <course>1.91</course>
  <speed>0.0</speed>
  <fix>3d</fix>
</trkpt>
<trkpt lat="-27.2744371" lon="151.2900644">
  <ele>342.95</ele>
  <time>2026-09-01T19:54:41Z</time>
  <course>11.77</course>
  <speed>0.01</speed>
  <fix>3d</fix>
</trkpt>
<trkpt lat="-27.2744368" lon="151.2900642">
  <ele>343.09</ele>
  <time>2026-09-01T19:54:41Z</time>
  <course>17.22</course>
  <speed>0.0</speed>
  <fix>3d</fix>
</trkpt>
<trkpt lat="-27.2744371" lon="151.2900644">
  <ele>342.95</ele>
  <time>2026-09-01T19:54:41Z</time>
  <course>11.76</course>
  <speed>0.02</speed>
  <fix>3d</fix>
</trkpt>
<trkpt lat="-27.2744368" lon="151.2900642">
  <ele>343.09</ele>
  <time>2026-09-01T19:54:41Z</time>
  <course>17.22</course>
  <speed>0.0</speed>
  <fix>3d</fix>
</trkpt>
<trkpt lat="-27.2744371" lon="151.2900644">
  <ele>342.95</ele>
  <time>2026-09-01T19:54:41Z</time>
  <course>11.76</course>
  <speed>0.02</speed>
  <fix>3d</fix>
</trkpt>
<trkpt lat="-27.2744368" lon="151.2900642">
  <ele>343.09</ele>
  <time>2026-09-01T19:54:41Z</time>
  <course>22.43</course>
  <speed>0.0</speed>
  <fix>3d</fix>
</trkpt>
<trkpt lat="-27.2744371" lon="151.2900644">
  <ele>342.95</ele>
  <time>2026-09-01T19:54:41Z</time>
  <course>11.76</course>
  <speed>0.02</speed>
  <fix>3d</fix>
</trkpt>
<trkpt lat="-27.2744368" lon="151.2900642">
  <ele>343.09</ele>
  <time>2026-09-01T19:54:41Z</time>
  <course>22.43</course>
  <speed>0.0</speed>
  <fix>3d</fix>
</trkpt>
<trkpt lat="-27.2744371" lon="151.2900644">
  <ele>342.95</ele>
  <time>2026-09-01T19:54:41Z</time>
  <course>11.76</course>
  <speed>0.01</speed>
  <fix>3d</fix>
</trkpt>
<trkpt lat="-27.2744368" lon="151.2900642">
  <ele>343.09</ele>
  <time>2026-09-01T19:54:41Z</time>
  <course>354.36</course>
  <speed>0.0</speed>
  <fix>3d</fix>
</trkpt>
<trkpt lat="-27.2744371" lon="151.2900644">
  <ele>342.95</ele>
  <time>2026-09-01T19:54:41Z</time>
  <course>11.76</course>
  <speed>0.01414213562373095</speed>
  <fix>3d</fix>
</trkpt>
<trkpt lat="-27.2744368" lon="151.2900642">
  <ele>343.09</ele>
  <time>2026-09-01T19:54:41Z</time>
  <course>354.36</course>
  <speed>0.0</speed>
  <fix>3d</fix>
</trkpt>
<trkpt lat="-27.274437" lon="151.2900644">
  <ele>342.95</ele>
  <time>2026-09-01T19:54:41Z</time>
  <course>11.76</course>
  <speed>0.01414213562373095</speed>
  <fix>3d</fix>
</trkpt>
<trkpt lat="-27.2744368" lon="151.2900642">
  <ele>343.09</ele>
  <time>2026-09-01T19:54:41Z</time>
  <course>0.24</course>
  <speed>0.0</speed>
  <fix>3d</fix>
</trkpt>
<trkpt lat="-27.274437" lon="151.2900644">
  <ele>342.95</ele>
  <time>2026-09-01T19:54:41Z</time>
  <course>11.76</course>
  <speed>0.01</speed>
  <fix>3d</fix>
</trkpt>
<trkpt lat="-27.2744368" lon="151.2900642">
  <ele>343.09</ele>
  <time>2026-09-01T19:54:41Z</time>
  <course>0.24</course>
  <speed>0.0</speed>
  <fix>3d</fix>
</trkpt>
<trkpt lat="-27.274437" lon="151.2900644">
  <ele>342.95</ele>
  <time>2026-09-01T19:54:41Z</time>
  <course>11.76</course>
  <speed>0.01414213562373095</speed>
  <fix>3d</fix>
</trkpt>
<trkpt lat="-27.2744368" lon="151.2900642">
  <ele>343.09</ele>
  <time>2026-09-01T19:54:41Z</time>
  <course>358.12</course>
  <speed>0.0</speed>
  <fix>3d</fix>
</trkpt>
<trkpt lat="-27.274437" lon="151.2900644">
  <ele>342.95</ele>
  <time>2026-09-01T19:54:41Z</time>
  <course>11.76</course>
  <speed>0.01414213562373095</speed>
  <fix>3d</fix>
</trkpt>
<trkpt lat="-27.2744368" lon="151.2900642">
  <ele>343.09</ele>
  <time>2026-09-01T19:54:41Z</time>
  <course>358.12</course>
  <speed>0.0</speed>
  <fix>3d</fix>
</trkpt>
<trkpt lat="-27.274437" lon="151.2900644">
  <ele>342.95</ele>
  <time>2026-09-01T19:54:41Z</time>
  <course>11.76</course>
  <speed>0.01414213562373095</speed>
  <fix>3d</fix>
</trkpt>
<trkpt lat="-27.2744368" lon="151.2900642">
  <ele>343.09</ele>
  <time>2026-09-01T19:54:41Z</time>
  <course>349.47</course>
  <speed>0.0</speed>
  <fix>3d</fix>
</trkpt>
<trkpt lat="-27.274437" lon="151.2900644">
  <ele>342.95</ele>
  <time>2026-09-01T19:54:41Z</time>
  <course>11.76</course>
  <speed>0.01414213562373095</speed>
  <fix>3d</fix>
</trkpt>
<trkpt lat="-27.2744368" lon="151.2900642">
  <ele>343.09</ele>
  <time>2026-09-01T19:54:41Z</time>
  <course>349.47</course>
  <speed>0.0</speed>
  <fix>3d</fix>
</trkpt>
<trkpt lat="-27.274437" lon="151.2900644">
  <ele>342.95</ele>
  <time>2026-09-01T19:54:41Z</time>
  <course>11.76</course>
  <speed>0.01414213562373095</speed>
  <fix>3d</fix>
</trkpt>
<trkpt lat="-27.2744368" lon="151.2900642">
  <ele>343.09</ele>
  <time>2026-09-01T19:54:41Z</time>
  <course>3.11</course>
  <speed>0.0</speed>
  <fix>3d</fix>
</trkpt>
<trkpt lat="-27.274437" lon="151.2900644">
  <ele>342.95</ele>
  <time>2026-09-01T19:54:41Z</time>
  <course>11.76</course>
  <speed>0.01414213562373095</speed>
  <fix>3d</fix>
</trkpt>
<trkpt lat="-27.2744368" lon="151.2900642">
  <ele>343.09</ele>
  <time>2026-09-01T19:54:41Z</time>
  <course>3.11</course>
  <speed>0.0</speed>
  <fix>3d</fix>
</trkpt>
<trkpt lat="-27.274437" lon="151.2900644">
  <ele>342.95</ele>
  <time>2026-09-01T19:54:41Z</time>
  <course>11.76</course>
  <speed>0.01</speed>
  <fix>3d</fix>
</trkpt>
<trkpt lat="-27.2744368" lon="151.2900642">
  <ele>343.09</ele>
  <time>2026-09-01T19:54:41Z</time>
  <course>13.91</course>
  <speed>0.0</speed>
  <fix>3d</fix>
</trkpt>
<trkpt lat="-27.274437" lon="151.2900644">
  <ele>342.95</ele>
  <time>2026-09-01T19:54:41Z</time>
  <course>11.76</course>
  <speed>0.01414213562373095</speed>
  <fix>3d</fix>
</trkpt>
<trkpt lat="-27.2744368" lon="151.2900642">
  <ele>343.09</ele>
  <time>2026-09-01T19:54:41Z</time>
  <course>13.91</course>
  <speed>0.0</speed>
  <fix>3d</fix>
</trkpt>
<trkpt lat="-27.274437" lon="151.2900644">
  <ele>342.95</ele>
  <time>2026-09-01T19:54:41Z</time>
  <course>11.76</course>
  <speed>0.01414213562373095</speed>
  <fix>3d</fix>
</trkpt>
<trkpt lat="-27.2744367" lon="151.2900642">
  <ele>343.09</ele>
  <time>2026-09-01T19:54:41Z</time>
  <course>7.87</course>
  <speed>0.0</speed>
  <fix>3d</fix>
</trkpt>
<trkpt lat="-27.274437" lon="151.2900644">
  <ele>342.95</ele>
  <time>2026-09-01T19:54:41Z</time>
  <course>11.76</course>
  <speed>0.022360679774997897</speed>
  <fix>3d</fix>
</trkpt>
<trkpt lat="-27.2744367" lon="151.2900642">
  <ele>343.09</ele>
  <time>2026-09-01T19:54:41Z</time>
  <course>7.87</course>
  <speed>0.0</speed>
  <fix>3d</fix>
</trkpt>
<trkpt lat="-27.274437" lon="151.2900644">
  <ele>342.95</ele>
  <time>2026-09-01T19:54:41Z</time>
  <course>11.76</course>
  <speed>0.022360679774997897</speed>
  <fix>3d</fix>
</trkpt>
<trkpt lat="-27.2744367" lon="151.2900642">
  <ele>343.09</ele>
  <time>2026-09-01T19:54:41Z</time>
  <course>13.73</course>
  <speed>0.0</speed>
  <fix>3d</fix>
</trkpt>
<trkpt lat="-27.274437" lon="151.2900644">
  <ele>342.95</ele>
  <time>2026-09-01T19:54:41Z</time>
  <course>11.76</course>
  <speed>0.01414213562373095</speed>
  <fix>3d</fix>
</trkpt>
<trkpt lat="-27.2744367" lon="151.2900642">
  <ele>343.09</ele>
  <time>2026-09-01T19:54:41Z</time>
  <course>13.73</course>
  <speed>0.0</speed>
  <fix>3d</fix>
</trkpt>
<trkpt lat="-27.274437" lon="151.2900644">
  <ele>342.95</ele>
  <time>2026-09-01T19:54:41Z</time>
  <course>11.76</course>
  <speed>0.022360679774997897</speed>
  <fix>3d</fix>
</trkpt>
<trkpt lat="-27.2744367" lon="151.2900642">
  <ele>343.09</ele>
  <time>2026-09-01T19:54:41Z</time>
  <course>10.98</course>
  <speed>0.0</speed>
  <fix>3d</fix>
</trkpt>
<trkpt lat="-27.274437" lon="151.2900644">
  <ele>342.95</ele>
  <time>2026-09-01T19:54:41Z</time>
  <course>11.76</course>
  <speed>0.01414213562373095</speed>
  <fix>3d</fix>
</trkpt>
<trkpt lat="-27.2744367" lon="151.2900642">
  <ele>343.09</ele>
  <time>2026-09-01T19:54:41Z</time>
  <course>10.98</course>
  <speed>0.0</speed>
  <fix>3d</fix>
</trkpt>
<trkpt lat="-27.274437" lon="151.2900644">
  <ele>342.96</ele>
  <time>2026-09-01T19:54:41Z</time>
  <course>11.76</course>
  <speed>0.01414213562373095</speed>
  <fix>3d</fix>
</trkpt>
<trkpt lat="-27.2744367" lon="151.2900642">
  <ele>343.09</ele>
  <time>2026-09-01T19:54:41Z</time>
  <course>18.39</course>
  <speed>0.0</speed>
  <fix>3d</fix>
</trkpt>
<trkpt lat="-27.274437" lon="151.2900644">
  <ele>342.96</ele>
  <time>2026-09-01T19:54:41Z</time>
  <course>11.76</course>
  <speed>0.01414213562373095</speed>
  <fix>3d</fix>
</trkpt>
<trkpt lat="-27.2744367" lon="151.2900642">
  <ele>343.09</ele>
  <time>2026-09-01T19:54:41Z</time>
  <course>18.39</course>
  <speed>0.0</speed>
  <fix>3d</fix>
</trkpt>
<trkpt lat="-27.2744369" lon="151.2900644">
  <ele>342.96</ele>
  <time>2026-09-01T19:54:41Z</time>
  <course>11.76</course>
  <speed>0.022360679774997897</speed>
  <fix>3d</fix>
</trkpt>
<trkpt lat="-27.2744367" lon="151.2900642">
  <ele>343.09</ele>
  <time>2026-09-01T19:54:41Z</time>
  <course>18.53</course>
  <speed>0.0</speed>
  <fix>3d</fix>
</trkpt>
<trkpt lat="-27.2744369" lon="151.2900644">
  <ele>342.95</ele>
  <time>2026-09-01T19:54:41Z</time>
  <course>11.76</course>
  <speed>0.0282842712474619</speed>
  <fix>3d</fix>
</trkpt>
<trkpt lat="-27.2744367" lon="151.2900642">
  <ele>343.09</ele>
  <time>2026-09-01T19:54:41Z</time>
  <course>18.53</course>
  <speed>0.0</speed>
  <fix>3d</fix>
</trkpt>
<trkpt lat="-27.2744369" lon="151.2900644">
  <ele>342.95</ele>
  <time>2026-09-01T19:54:41Z</time>
  <course>11.76</course>
  <speed>0.01414213562373095</speed>
  <fix>3d</fix>
</trkpt>
<trkpt lat="-27.2744367" lon="151.2900642">
  <ele>343.09</ele>
  <time>2026-09-01T19:54:41Z</time>
  <course>10.42</course>
  <speed>0.0</speed>
  <fix>3d</fix>
</trkpt>
<trkpt lat="-27.2744369" lon="151.2900644">
  <ele>342.95</ele>
  <time>2026-09-01T19:54:41Z</time>
  <course>11.76</course>
  <speed>0.01414213562373095</speed>
  <fix>3d</fix>
</trkpt>
<trkpt lat="-27.2744367" lon="151.2900642">
  <ele>343.09</ele>
  <time>2026-09-01T19:54:41Z</time>
  <course>10.42</course>
  <speed>0.0</speed>
  <fix>3d</fix>
</trkpt>
<trkpt lat="-27.2744369" lon="151.2900644">
  <ele>342.95</ele>
  <time>2026-09-01T19:54:41Z</time>
  <course>11.76</course>
  <speed>0.0282842712474619</speed>
  <fix>3d</fix>
</trkpt>
<trkpt lat="-27.2744367" lon="151.2900642">
  <ele>343.09</ele>
  <time>2026-09-01T19:54:41Z</time>
  <course>9.6</course>
  <speed>0.0</speed>
  <fix>3d</fix>
</trkpt>
<trkpt lat="-27.2744369" lon="151.2900644">
  <ele>342.95</ele>
  <time>2026-09-01T19:54:41Z</time>
  <course>11.76</course>
  <speed>0.022360679774997897</speed>
  <fix>3d</fix>
</trkpt>
<trkpt lat="-27.2744367" lon="151.2900642">
  <ele>343.09</ele>
  <time>2026-09-01T19:54:41Z</time>
  <course>9.6</course>
  <speed>0.0</speed>
  <fix>3d</fix>
</trkpt>
<trkpt lat="-27.2744369" lon="151.2900644">
  <ele>342.95</ele>
  <time>2026-09-01T19:54:41Z</time>
  <course>11.76</course>
  <speed>0.022360679774997897</speed>
  <fix>3d</fix>
</trkpt>
<trkpt lat="-27.2744367" lon="151.2900642">
  <ele>343.09</ele>
  <time>2026-09-01T19:54:41Z</time>
  <course>358.37</course>
  <speed>0.0</speed>
  <fix>3d</fix>
</trkpt>
<trkpt lat="-27.2744369" lon="151.2900644">
  <ele>342.95</ele>
  <time>2026-09-01T19:54:41Z</time>
  <course>11.76</course>
  <speed>0.0282842712474619</speed>
  <fix>3d</fix>
</trkpt>
<trkpt lat="-27.2744367" lon="151.2900642">
  <ele>343.09</ele>
  <time>2026-09-01T19:54:41Z</time>
  <course>358.37</course>
  <speed>0.0</speed>
  <fix>3d</fix>
</trkpt>
<trkpt lat="-27.2744369" lon="151.2900644">
  <ele>342.95</ele>
  <time>2026-09-01T19:54:41Z</time>
  <course>11.76</course>
  <speed>0.022360679774997897</speed>
  <fix>3d</fix>
</trkpt>
<trkpt lat="-27.2744367" lon="151.2900642">
  <ele>343.09</ele>
  <time>2026-09-01T19:54:41Z</time>
  <course>358.12</course>
  <speed>0.0</speed>
  <fix>3d</fix>
</trkpt>
<trkpt lat="-27.2744369" lon="151.2900644">
  <ele>342.95</ele>
  <time>2026-09-01T19:54:41Z</time>
  <course>11.76</course>
  <speed>0.022360679774997897</speed>
  <fix>3d</fix>
</trkpt>
<trkpt lat="-27.2744367" lon="151.2900642">
  <ele>343.09</ele>
  <time>2026-09-01T19:54:41Z</time>
  <course>358.12</course>
  <speed>0.0</speed>
  <fix>3d</fix>
</trkpt>
<trkpt lat="-27.2744369" lon="151.2900644">
  <ele>342.95</ele>
  <time>2026-09-01T19:54:41Z</time>
  <course>11.76</course>
  <speed>0.022360679774997897</speed>
  <fix>3d</fix>
</trkpt>
<trkpt lat="-27.2744367" lon="151.2900642">
  <ele>343.09</ele>
  <time>2026-09-01T19:54:41Z</time>
  <course>4.55</course>
  <speed>0.0</speed>
  <fix>3d</fix>
</trkpt>
<trkpt lat="-27.2744369" lon="151.2900644">
  <ele>342.95</ele>
  <time>2026-09-01T19:54:41Z</time>
  <course>11.76</course>
  <speed>0.022360679774997897</speed>
  <fix>3d</fix>
</trkpt>
<trkpt lat="-27.2744367" lon="151.2900642">
  <ele>343.09</ele>
  <time>2026-09-01T19:54:41Z</time>
  <course>4.55</course>
  <speed>0.0</speed>
  <fix>3d</fix>
</trkpt>
<trkpt lat="-27.2744369" lon="151.2900644">
  <ele>342.95</ele>
  <time>2026-09-01T19:54:41Z</time>
  <course>11.76</course>
  <speed>0.022360679774997897</speed>
  <fix>3d</fix>
</trkpt>
<trkpt lat="-27.2744367" lon="151.2900642">
  <ele>343.09</ele>
  <time>2026-09-01T19:54:41Z</time>
  <course>1.6</course>
  <speed>0.0</speed>
  <fix>3d</fix>
</trkpt>
<trkpt lat="-27.2744369" lon="151.2900644">
  <ele>342.95</ele>
  <time>2026-09-01T19:54:41Z</time>
  <course>11.76</course>
  <speed>0.0282842712474619</speed>
  <fix>3d</fix>
</trkpt>
<trkpt lat="-27.2744367" lon="151.2900642">
  <ele>343.09</ele>
  <time>2026-09-01T19:54:41Z</time>
  <course>1.6</course>
  <speed>0.0</speed>
  <fix>3d</fix>
</trkpt>
<trkpt lat="-27.2744369" lon="151.2900644">
  <ele>342.95</ele>
  <time>2026-09-01T19:54:41Z</time>
  <course>11.76</course>
  <speed>0.022360679774997897</speed>
  <fix>3d</fix>
</trkpt>
<trkpt lat="-27.2744367" lon="151.2900642">
  <ele>343.09</ele>
  <time>2026-09-01T19:54:41Z</time>
  <course>13.81</course>
  <speed>0.0</speed>
  <fix>3d</fix>
</trkpt>
<trkpt lat="-27.2744369" lon="151.2900644">
  <ele>342.95</ele>
  <time>2026-09-01T19:54:41Z</time>
  <course>11.76</course>
  <speed>0.022360679774997897</speed>
  <fix>3d</fix>
</trkpt>
<trkpt lat="-27.2744367" lon="151.2900642">
  <ele>343.09</ele>
  <time>2026-09-01T19:54:41Z</time>
  <course>13.81</course>
  <speed>0.0</speed>
  <fix>3d</fix>
</trkpt>
<trkpt lat="-27.2744369" lon="151.2900644">
  <ele>342.95</ele>
  <time>2026-09-01T19:54:41Z</time>
  <course>11.76</course>
  <speed>0.022360679774997897</speed>
  <fix>3d</fix>
</trkpt>
<trkpt lat="-27.2744367" lon="151.2900642">
  <ele>343.09</ele>
  <time>2026-09-01T19:54:41Z</time>
  <course>7.07</course>
  <speed>0.0</speed>
  <fix>3d</fix>
</trkpt>
<trkpt lat="-27.2744369" lon="151.2900644">
  <ele>342.95</ele>
  <time>2026-09-01T19:54:41Z</time>
  <course>11.76</course>
  <speed>0.022360679774997897</speed>
  <fix>3d</fix>
</trkpt>
<trkpt lat="-27.2744367" lon="151.2900642">
  <ele>343.09</ele>
  <time>2026-09-01T19:54:41Z</time>
  <course>7.07</course>
  <speed>0.0</speed>
  <fix>3d</fix>
</trkpt>
<trkpt lat="-27.2744369" lon="151.2900644">
  <ele>342.95</ele>
  <time>2026-09-01T19:54:41Z</time>
  <course>11.76</course>
  <speed>0.0282842712474619</speed>
  <fix>3d</fix>
</trkpt>
<trkpt lat="-27.2744366" lon="151.2900642">
  <ele>343.09</ele>
  <time>2026-09-01T19:54:41Z</time>
  <course>6.58</course>
  <speed>0.0</speed>
  <fix>3d</fix>
</trkpt>
<trkpt lat="-27.2744369" lon="151.2900644">
  <ele>342.95</ele>
  <time>2026-09-01T19:54:41Z</time>
  <course>11.76</course>
  <speed>0.0282842712474619</speed>
  <fix>3d</fix>
</trkpt>
<trkpt lat="-27.2744366" lon="151.2900642">
  <ele>343.09</ele>
  <time>2026-09-01T19:54:41Z</time>
  <course>6.58</course>
  <speed>0.0</speed>
  <fix>3d</fix>
</trkpt>
<trkpt lat="-27.2744369" lon="151.2900644">
  <ele>342.95</ele>
  <time>2026-09-01T19:54:41Z</time>
  <course>11.76</course>
  <speed>0.022360679774997897</speed>
  <fix>3d</fix>
</trkpt>
<trkpt lat="-27.2744366" lon="151.2900642">
  <ele>343.09</ele>
  <time>2026-09-01T19:54:41Z</time>
  <course>16.33</course>
  <speed>0.0</speed>
  <fix>3d</fix>
</trkpt>
<trkpt lat="-27.2744369" lon="151.2900644">
  <ele>342.95</ele>
  <time>2026-09-01T19:54:41Z</time>
  <course>11.76</course>
  <speed>0.0282842712474619</speed>
  <fix>3d</fix>
</trkpt>
<trkpt lat="-27.2744366" lon="151.2900642">
  <ele>343.09</ele>
  <time>2026-09-01T19:54:41Z</time>
  <course>16.33</course>
  <speed>0.0</speed>
  <fix>3d</fix>
</trkpt>
<trkpt lat="-27.2744369" lon="151.2900644">
  <ele>342.95</ele>
  <time>2026-09-01T19:54:41Z</time>
  <course>11.76</course>
  <speed>0.022360679774997897</speed>
  <fix>3d</fix>
</trkpt>
<trkpt lat="-27.2744366" lon="151.2900642">
  <ele>343.09</ele>
  <time>2026-09-01T19:54:41Z</time>
  <course>5.16</course>
  <speed>0.0</speed>
  <fix>3d</fix>
</trkpt>
<trkpt lat="-27.2744369" lon="151.2900644">
  <ele>342.95</ele>
  <time>2026-09-01T19:54:41Z</time>
  <course>11.76</course>
  <speed>0.022360679774997897</speed>
  <fix>3d</fix>
</trkpt>
<trkpt lat="-27.2744366" lon="151.2900642">
  <ele>343.09</ele>
  <time>2026-09-01T19:54:41Z</time>
  <course>5.16</course>
  <speed>0.0</speed>
  <fix>3d</fix>
</trkpt>
<trkpt lat="-27.2744369" lon="151.2900644">
  <ele>342.95</ele>
  <time>2026-09-01T19:54:41Z</time>
  <course>11.76</course>
  <speed>0.022360679774997897</speed>
  <fix>3d</fix>
</trkpt>
<trkpt lat="-27.2744366" lon="151.2900642">
  <ele>343.09</ele>
  <time>2026-09-01T19:54:41Z</time>
  <course>1.96</course>
  <speed>0.0</speed>
  <fix>3d</fix>
</trkpt>
<trkpt lat="-27.2744368" lon="151.2900644">
  <ele>342.95</ele>
  <time>2026-09-01T19:54:41Z</time>
  <course>11.76</course>
  <speed>0.022360679774997897</speed>
  <fix>3d</fix>
</trkpt>
<trkpt lat="-27.2744366" lon="151.2900642">
  <ele>343.09</ele>
  <time>2026-09-01T19:54:41Z</time>
  <course>1.96</course>
  <speed>0.0</speed>
  <fix>3d</fix>
</trkpt>
<trkpt lat="-27.2744368" lon="151.2900644">
  <ele>342.95</ele>
  <time>2026-09-01T19:54:41Z</time>
  <course>11.76</course>
  <speed>0.01414213562373095</speed>
  <fix>3d</fix>
</trkpt>
<trkpt lat="-27.2744366" lon="151.2900642">
  <ele>343.09</ele>
  <time>2026-09-01T19:54:41Z</time>
  <course>0.14</course>
  <speed>0.0</speed>
  <fix>3d</fix>
</trkpt>
<trkpt lat="-27.2744368" lon="151.2900644">
  <ele>342.95</ele>
  <time>2026-09-01T19:54:41Z</time>
  <course>11.76</course>
  <speed>0.01414213562373095</speed>
  <fix>3d</fix>
</trkpt>
<trkpt lat="-27.2744366" lon="151.2900642">
  <ele>343.09</ele>
  <time>2026-09-01T19:54:41Z</time>
  <course>0.14</course>
  <speed>0.0</speed>
  <fix>3d</fix>
</trkpt>
<trkpt lat="-27.2744368" lon="151.2900644">
  <ele>342.95</ele>
  <time>2026-09-01T19:54:41Z</time>
  <course>11.76</course>
  <speed>0.01414213562373095</speed>
  <fix>3d</fix>
</trkpt>
<trkpt lat="-27.2744366" lon="151.2900642">
  <ele>343.09</ele>
  <time>2026-09-01T19:54:41Z</time>
  <course>13.58</course>
  <speed>0.0</speed>
  <fix>3d</fix>
</trkpt>
<trkpt lat="-27.2744368" lon="151.2900644">
  <ele>342.95</ele>
  <time>2026-09-01T19:54:41Z</time>
  <course>11.76</course>
  <speed>0.01414213562373095</speed>
  <fix>3d</fix>
</trkpt>
<trkpt lat="-27.2744366" lon="151.2900642">
  <ele>343.09</ele>
  <time>2026-09-01T19:54:41Z</time>
  <course>13.58</course>
  <speed>0.0</speed>
  <fix>3d</fix>
</trkpt>
<trkpt lat="-27.2744368" lon="151.2900644">
  <ele>342.95</ele>
  <time>2026-09-01T19:54:41Z</time>
  <course>11.76</course>
  <speed>0.01414213562373095</speed>
  <fix>3d</fix>
</trkpt>
<trkpt lat="-27.2744366" lon="151.2900642">
  <ele>343.09</ele>
  <time>2026-09-01T19:54:41Z</time>
  <course>10.53</course>
  <speed>0.0</speed>
  <fix>3d</fix>
</trkpt>
<trkpt lat="-27.2744368" lon="151.2900644">
  <ele>342.96</ele>
  <time>2026-09-01T19:54:41Z</time>
  <course>11.76</course>
  <speed>0.01414213562373095</speed>
  <fix>3d</fix>
</trkpt>
<trkpt lat="-27.2744366" lon="151.2900642">
  <ele>343.09</ele>
  <time>2026-09-01T19:54:41Z</time>
  <course>10.53</course>
  <speed>0.0</speed>
  <fix>3d</fix>
</trkpt>
<trkpt lat="-27.2744368" lon="151.2900644">
  <ele>342.96</ele>
  <time>2026-09-01T19:54:41Z</time>
  <course>11.76</course>
  <speed>0.01414213562373095</speed>
  <fix>3d</fix>
</trkpt>
<trkpt lat="-27.2744366" lon="151.2900642">
  <ele>343.09</ele>
  <time>2026-09-01T19:54:41Z</time>
  <course>8.55</course>
  <speed>0.0</speed>
  <fix>3d</fix>
</trkpt>
<trkpt lat="-27.2744368" lon="151.2900644">
  <ele>342.96</ele>
  <time>2026-09-01T19:54:41Z</time>
  <course>11.76</course>
  <speed>0.01414213562373095</speed>
  <fix>3d</fix>
</trkpt>
<trkpt lat="-27.2744366" lon="151.2900642">
  <ele>343.09</ele>
  <time>2026-09-01T19:54:41Z</time>
  <course>8.55</course>
  <speed>0.0</speed>
  <fix>3d</fix>
</trkpt>
<trkpt lat="-27.2744368" lon="151.2900644">
  <ele>342.96</ele>
  <time>2026-09-01T19:54:41Z</time>
  <course>11.76</course>
  <speed>0.022360679774997897</speed>
  <fix>3d</fix>
</trkpt>
<trkpt lat="-27.2744366" lon="151.2900642">
  <ele>343.09</ele>
  <time>2026-09-01T19:54:41Z</time>
  <course>23.71</course>
  <speed>0.0</speed>
  <fix>3d</fix>
</trkpt>
<trkpt lat="-27.2744368" lon="151.2900644">
  <ele>342.96</ele>
  <time>2026-09-01T19:54:41Z</time>
  <course>11.76</course>
  <speed>0.01414213562373095</speed>
  <fix>3d</fix>
</trkpt>
<trkpt lat="-27.2744366" lon="151.2900642">
  <ele>343.09</ele>
  <time>2026-09-01T19:54:41Z</time>
  <course>23.71</course>
  <speed>0.0</speed>
  <fix>3d</fix>
</trkpt>
<trkpt lat="-27.2744368" lon="151.2900644">
  <ele>342.96</ele>
  <time>2026-09-01T19:54:41Z</time>
  <course>11.76</course>
  <speed>0.01414213562373095</speed>
  <fix>3d</fix>
</trkpt>
<trkpt lat="-27.2744366" lon="151.2900642">
  <ele>343.09</ele>
  <time>2026-09-01T19:54:41Z</time>
  <course>0.58</course>
  <speed>0.0</speed>
  <fix>3d</fix>
</trkpt>
<trkpt lat="-27.2744368" lon="151.2900644">
  <ele>342.96</ele>
  <time>2026-09-01T19:54:41Z</time>
  <course>11.76</course>
  <speed>0.01414213562373095</speed>
  <fix>3d</fix>
</trkpt>
<trkpt lat="-27.2744366" lon="151.2900642">
  <ele>343.09</ele>
  <time>2026-09-01T19:54:41Z</time>
  <course>0.58</course>
  <speed>0.0</speed>
  <fix>3d</fix>
</trkpt>
<trkpt lat="-27.2744368" lon="151.2900644">
  <ele>342.96</ele>
  <time>2026-09-01T19:54:41Z</time>
  <course>11.75</course>
  <speed>0.01414213562373095</speed>
  <fix>3d</fix>
</trkpt>
<trkpt lat="-27.2744366" lon="151.2900642">
  <ele>343.09</ele>
  <time>2026-09-01T19:54:41Z</time>
  <course>8.82</course>
  <speed>0.0</speed>
  <fix>3d</fix>
</trkpt>
<trkpt lat="-27.2744368" lon="151.2900644">
  <ele>342.96</ele>
  <time>2026-09-01T19:54:41Z</time>
  <course>11.75</course>
  <speed>0.01414213562373095</speed>
  <fix>3d</fix>
</trkpt>
<trkpt lat="-27.2744366" lon="151.2900642">
  <ele>343.09</ele>
  <time>2026-09-01T19:54:41Z</time>
  <course>8.82</course>
  <speed>0.0</speed>
  <fix>3d</fix>
</trkpt>
<trkpt lat="-27.2744368" lon="151.2900644">
  <ele>342.96</ele>
  <time>2026-09-01T19:54:41Z</time>
  <course>11.75</course>
  <speed>0.01414213562373095</speed>
  <fix>3d</fix>
</trkpt>
<trkpt lat="-27.2744366" lon="151.2900642">
  <ele>343.09</ele>
  <time>2026-09-01T19:54:41Z</time>
  <course>355.15</course>
  <speed>0.0</speed>
  <fix>3d</fix>
</trkpt>
<trkpt lat="-27.2744368" lon="151.2900644">
  <ele>342.96</ele>
  <time>2026-09-01T19:54:41Z</time>
  <course>11.75</course>
  <speed>0.01414213562373095</speed>
  <fix>3d</fix>
</trkpt>
<trkpt lat="-27.2744366" lon="151.2900642">
  <ele>343.09</ele>
  <time>2026-09-01T19:54:41Z</time>
  <course>355.15</course>
  <speed>0.0</speed>
  <fix>3d</fix>
</trkpt>
<trkpt lat="-27.2744368" lon="151.2900644">
  <ele>342.96</ele>
  <time>2026-09-01T19:54:41Z</time>
  <course>11.76</course>
  <speed>0.01414213562373095</speed>
  <fix>3d</fix>
</trkpt>
<trkpt lat="-27.2744366" lon="151.2900642">
  <ele>343.09</ele>
  <time>2026-09-01T19:54:41Z</time>
  <course>342.07</course>
  <speed>0.0</speed>
  <fix>3d</fix>
</trkpt>
<trkpt lat="-27.2744368" lon="151.2900644">
  <ele>342.96</ele>
  <time>2026-09-01T19:54:41Z</time>
  <course>11.75</course>
  <speed>0.01414213562373095</speed>
  <fix>3d</fix>
</trkpt>
<trkpt lat="-27.2744366" lon="151.2900642">
  <ele>343.09</ele>
  <time>2026-09-01T19:54:41Z</time>
  <course>342.07</course>
  <speed>0.0</speed>
  <fix>3d</fix>
</trkpt>
<trkpt lat="-27.2744368" lon="151.2900644">
  <ele>342.96</ele>
  <time>2026-09-01T19:54:41Z</time>
  <course>11.75</course>
  <speed>0.01414213562373095</speed>
  <fix>3d</fix>
</trkpt>
<trkpt lat="-27.2744365" lon="151.2900642">
  <ele>343.09</ele>
  <time>2026-09-01T19:54:41Z</time>
  <course>3.94</course>
  <speed>0.0</speed>
  <fix>3d</fix>
</trkpt>
<trkpt lat="-27.2744368" lon="151.2900644">
  <ele>342.96</ele>
  <time>2026-09-01T19:54:41Z</time>
  <course>11.75</course>
  <speed>0.01414213562373095</speed>
  <fix>3d</fix>
</trkpt>
<trkpt lat="-27.2744365" lon="151.2900642">
  <ele>343.09</ele>
  <time>2026-09-01T19:54:41Z</time>
  <course>3.94</course>
  <speed>0.0</speed>
  <fix>3d</fix>
</trkpt>
<trkpt lat="-27.2744367" lon="151.2900644">
  <ele>342.96</ele>
  <time>2026-09-01T19:54:41Z</time>
  <course>11.75</course>
  <speed>0.01</speed>
  <fix>3d</fix>
</trkpt>
<trkpt lat="-27.2744365" lon="151.2900642">
  <ele>343.09</ele>
  <time>2026-09-01T19:54:41Z</time>
  <course>14.86</course>
  <speed>0.0</speed>
  <fix>3d</fix>
</trkpt>
<trkpt lat="-27.2744367" lon="151.2900644">
  <ele>342.96</ele>
  <time>2026-09-01T19:54:41Z</time>
  <course>11.75</course>
  <speed>0.01</speed>
  <fix>3d</fix>
</trkpt>
<trkpt lat="-27.2744365" lon="151.2900642">
  <ele>343.09</ele>
  <time>2026-09-01T19:54:41Z</time>
  <course>14.86</course>
  <speed>0.0</speed>
  <fix>3d</fix>
</trkpt>
<trkpt lat="-27.2744367" lon="151.2900644">
  <ele>342.96</ele>
  <time>2026-09-01T19:54:41Z</time>
  <course>11.75</course>
  <speed>0.01</speed>
  <fix>3d</fix>
</trkpt>
<trkpt lat="-27.2744365" lon="151.2900642">
  <ele>343.09</ele>
  <time>2026-09-01T19:54:41Z</time>
  <course>14.34</course>
  <speed>0.0</speed>
  <fix>3d</fix>
</trkpt>
<trkpt lat="-27.2744367" lon="151.2900644">
  <ele>342.96</ele>
  <time>2026-09-01T19:54:41Z</time>
  <course>11.75</course>
  <speed>0.01414213562373095</speed>
  <fix>3d</fix>
</trkpt>
<trkpt lat="-27.2744365" lon="151.2900642">
  <ele>343.09</ele>
  <time>2026-09-01T19:54:41Z</time>
  <course>14.34</course>
  <speed>0.0</speed>
  <fix>3d</fix>
</trkpt>
<trkpt lat="-27.2744367" lon="151.2900644">
  <ele>342.95</ele>
  <time>2026-09-01T19:54:41Z</time>
  <course>11.75</course>
  <speed>0.01414213562373095</speed>
  <fix>3d</fix>
</trkpt>
<trkpt lat="-27.2744365" lon="151.2900642">
  <ele>343.09</ele>
  <time>2026-09-01T19:54:41Z</time>
  <course>52.82</course>
  <speed>0.0</speed>
  <fix>3d</fix>
</trkpt>
<trkpt lat="-27.2744367" lon="151.2900644">
  <ele>342.95</ele>
  <time>2026-09-01T19:54:41Z</time>
  <course>11.75</course>
  <speed>0.01</speed>
  <fix>3d</fix>
</trkpt>
<trkpt lat="-27.2744365" lon="151.2900642">
  <ele>343.09</ele>
  <time>2026-09-01T19:54:41Z</time>
  <course>52.82</course>
  <speed>0.0</speed>
  <fix>3d</fix>
</trkpt>
<trkpt lat="-27.2744367" lon="151.2900644">
  <ele>342.95</ele>
  <time>2026-09-01T19:54:41Z</time>
  <course>11.75</course>
  <speed>0.02</speed>
  <fix>3d</fix>
</trkpt>
<trkpt lat="-27.2744365" lon="151.2900643">
  <ele>343.09</ele>
  <time>2026-09-01T19:54:41Z</time>
  <course>22.22</course>
  <speed>0.0</speed>
  <fix>3d</fix>
</trkpt>
<trkpt lat="-27.2744367" lon="151.2900644">
  <ele>342.95</ele>
  <time>2026-09-01T19:54:41Z</time>
  <course>11.75</course>
  <speed>0.01</speed>
  <fix>3d</fix>
</trkpt>
<trkpt lat="-27.2744365" lon="151.2900643">
  <ele>343.09</ele>
  <time>2026-09-01T19:54:41Z</time>
  <course>22.22</course>
  <speed>0.0</speed>
  <fix>3d</fix>
</trkpt>
<trkpt lat="-27.2744367" lon="151.2900644">
  <ele>342.95</ele>
  <time>2026-09-01T19:54:41Z</time>
  <course>11.75</course>
  <speed>0.01414213562373095</speed>
  <fix>3d</fix>
</trkpt>
<trkpt lat="-27.2744365" lon="151.2900644">
  <ele>343.09</ele>
  <time>2026-09-01T19:54:41Z</time>
  <course>348.97</course>
  <speed>0.0</speed>
  <fix>3d</fix>
</trkpt>
<trkpt lat="-27.2744367" lon="151.2900644">
  <ele>342.95</ele>
  <time>2026-09-01T19:54:41Z</time>
  <course>11.75</course>
  <speed>0.01414213562373095</speed>
  <fix>3d</fix>
</trkpt>
<trkpt lat="-27.2744365" lon="151.2900644">
  <ele>343.09</ele>
  <time>2026-09-01T19:54:41Z</time>
  <course>348.97</course>
  <speed>0.0</speed>
  <fix>3d</fix>
</trkpt>
<trkpt lat="-27.2744367" lon="151.2900644">
  <ele>342.95</ele>
  <time>2026-09-01T19:54:41Z</time>
  <course>11.75</course>
  <speed>0.01414213562373095</speed>
  <fix>3d</fix>
</trkpt>
<trkpt lat="-27.2744365" lon="151.2900644">
  <ele>343.09</ele>
  <time>2026-09-01T19:54:41Z</time>
  <course>2.34</course>
  <speed>0.0</speed>
  <fix>3d</fix>
</trkpt>
<trkpt lat="-27.2744367" lon="151.2900644">
  <ele>342.95</ele>
  <time>2026-09-01T19:54:41Z</time>
  <course>11.75</course>
  <speed>0.01414213562373095</speed>
  <fix>3d</fix>
</trkpt>
<trkpt lat="-27.2744365" lon="151.2900644">
  <ele>343.09</ele>
  <time>2026-09-01T19:54:41Z</time>
  <course>2.34</course>
  <speed>0.0</speed>
  <fix>3d</fix>
</trkpt>
<trkpt lat="-27.2744367" lon="151.2900644">
  <ele>342.95</ele>
  <time>2026-09-01T19:54:41Z</time>
  <course>11.75</course>
  <speed>0.01414213562373095</speed>
  <fix>3d</fix>
</trkpt>
<trkpt lat="-27.2744365" lon="151.2900644">
  <ele>343.09</ele>
  <time>2026-09-01T19:54:41Z</time>
  <course>2.81</course>
  <speed>0.0</speed>
  <fix>3d</fix>
</trkpt>
<trkpt lat="-27.2744367" lon="151.2900644">
  <ele>342.95</ele>
  <time>2026-09-01T19:54:41Z</time>
  <course>11.75</course>
  <speed>0.01414213562373095</speed>
  <fix>3d</fix>
</trkpt>
<trkpt lat="-27.2744365" lon="151.2900644">
  <ele>343.09</ele>
  <time>2026-09-01T19:54:41Z</time>
  <course>2.81</course>
  <speed>0.0</speed>
  <fix>3d</fix>
</trkpt>
<trkpt lat="-27.2744367" lon="151.2900644">
  <ele>342.95</ele>
  <time>2026-09-01T19:54:41Z</time>
  <course>11.75</course>
  <speed>0.01414213562373095</speed>
  <fix>3d</fix>
</trkpt>
<trkpt lat="-27.2744365" lon="151.2900644">
  <ele>343.09</ele>
  <time>2026-09-01T19:54:41Z</time>
  <course>13.91</course>
  <speed>0.0</speed>
  <fix>3d</fix>
</trkpt>
<trkpt lat="-27.2744367" lon="151.2900644">
  <ele>342.96</ele>
  <time>2026-09-01T19:54:41Z</time>
  <course>11.75</course>
  <speed>0.01414213562373095</speed>
  <fix>3d</fix>
</trkpt>
<trkpt lat="-27.2744365" lon="151.2900644">
  <ele>343.09</ele>
  <time>2026-09-01T19:54:41Z</time>
  <course>13.91</course>
  <speed>0.0</speed>
  <fix>3d</fix>
</trkpt>
<trkpt lat="-27.2744367" lon="151.2900644">
  <ele>342.96</ele>
  <time>2026-09-01T19:54:41Z</time>
  <course>11.75</course>
  <speed>0.022360679774997897</speed>
  <fix>3d</fix>
</trkpt>
<trkpt lat="-27.2744365" lon="151.2900644">
  <ele>343.09</ele>
  <time>2026-09-01T19:54:41Z</time>
  <course>17.0</course>
  <speed>0.0</speed>
  <fix>3d</fix>
</trkpt>
<trkpt lat="-27.2744367" lon="151.2900644">
  <ele>342.95</ele>
  <time>2026-09-01T19:54:41Z</time>
  <course>11.75</course>
  <speed>0.022360679774997897</speed>
  <fix>3d</fix>
</trkpt>
<trkpt lat="-27.2744365" lon="151.2900644">
  <ele>343.09</ele>
  <time>2026-09-01T19:54:41Z</time>
  <course>17.0</course>
  <speed>0.0</speed>
  <fix>3d</fix>
</trkpt>
<trkpt lat="-27.2744367" lon="151.2900644">
  <ele>342.95</ele>
  <time>2026-09-01T19:54:41Z</time>
  <course>11.75</course>
  <speed>0.01414213562373095</speed>
  <fix>3d</fix>
</trkpt>
<trkpt lat="-27.2744365" lon="151.2900644">
  <ele>343.09</ele>
  <time>2026-09-01T19:54:41Z</time>
  <course>8.97</course>
  <speed>0.0</speed>
  <fix>3d</fix>
</trkpt>
<trkpt lat="-27.2744367" lon="151.2900644">
  <ele>342.95</ele>
  <time>2026-09-01T19:54:41Z</time>
  <course>11.75</course>
  <speed>0.01414213562373095</speed>
  <fix>3d</fix>
</trkpt>
<trkpt lat="-27.2744365" lon="151.2900644">
  <ele>343.09</ele>
  <time>2026-09-01T19:54:41Z</time>
  <course>8.97</course>
  <speed>0.0</speed>
  <fix>3d</fix>
</trkpt>
<trkpt lat="-27.2744367" lon="151.2900644">
  <ele>342.95</ele>
  <time>2026-09-01T19:54:41Z</time>
  <course>11.75</course>
  <speed>0.022360679774997897</speed>
  <fix>3d</fix>
</trkpt>
<trkpt lat="-27.2744365" lon="151.2900644">
  <ele>343.09</ele>
  <time>2026-09-01T19:54:41Z</time>
  <course>355.1</course>
  <speed>0.0</speed>
  <fix>3d</fix>
</trkpt>
<trkpt lat="-27.2744367" lon="151.2900644">
  <ele>342.95</ele>
  <time>2026-09-01T19:54:41Z</time>
  <course>11.75</course>
  <speed>0.01414213562373095</speed>
  <fix>3d</fix>
</trkpt>
<trkpt lat="-27.2744365" lon="151.2900644">
  <ele>343.09</ele>
  <time>2026-09-01T19:54:41Z</time>
  <course>355.1</course>
  <speed>0.0</speed>
  <fix>3d</fix>
</trkpt>
<trkpt lat="-27.2744367" lon="151.2900644">
  <ele>342.96</ele>
  <time>2026-09-01T19:54:41Z</time>
  <course>11.75</course>
  <speed>0.022360679774997897</speed>
  <fix>3d</fix>
</trkpt>
<trkpt lat="-27.2744364" lon="151.2900644">
  <ele>343.09</ele>
  <time>2026-09-01T19:54:41Z</time>
  <course>349.67</course>
  <speed>0.0</speed>
  <fix>3d</fix>
</trkpt>
<trkpt lat="-27.2744367" lon="151.2900644">
  <ele>342.96</ele>
  <time>2026-09-01T19:54:41Z</time>
  <course>11.75</course>
  <speed>0.022360679774997897</speed>
  <fix>3d</fix>
</trkpt>
<trkpt lat="-27.2744364" lon="151.2900644">
  <ele>343.09</ele>
  <time>2026-09-01T19:54:41Z</time>
  <course>349.67</course>
  <speed>0.0</speed>
  <fix>3d</fix>
</trkpt>
<trkpt lat="-27.2744367" lon="151.2900644">
  <ele>342.96</ele>
  <time>2026-09-01T19:54:41Z</time>
  <course>11.75</course>
  <speed>0.022360679774997897</speed>
  <fix>3d</fix>
</trkpt>
<trkpt lat="-27.2744364" lon="151.2900644">
  <ele>343.09</ele>
  <time>2026-09-01T19:54:41Z</time>
  <course>4.39</course>
  <speed>0.0</speed>
  <fix>3d</fix>
</trkpt>
<trkpt lat="-27.2744367" lon="151.2900644">
  <ele>342.96</ele>
  <time>2026-09-01T19:54:41Z</time>
  <course>11.75</course>
  <speed>0.022360679774997897</speed>
  <fix>3d</fix>
</trkpt>
<trkpt lat="-27.2744364" lon="151.2900644">
  <ele>343.09</ele>
  <time>2026-09-01T19:54:41Z</time>
  <course>4.39</course>
  <speed>0.0</speed>
  <fix>3d</fix>
</trkpt>
<trkpt lat="-27.2744367" lon="151.2900644">
  <ele>342.96</ele>
  <time>2026-09-01T19:54:41Z</time>
  <course>11.75</course>
  <speed>0.022360679774997897</speed>
  <fix>3d</fix>
</trkpt>
<trkpt lat="-27.2744364" lon="151.2900644">
  <ele>343.09</ele>
  <time>2026-09-01T19:54:41Z</time>
  <course>22.44</course>
  <speed>0.0</speed>
  <fix>3d</fix>
</trkpt>
<trkpt lat="-27.2744367" lon="151.2900644">
  <ele>342.96</ele>
  <time>2026-09-01T19:54:41Z</time>
  <course>11.75</course>
  <speed>0.022360679774997897</speed>
  <fix>3d</fix>
</trkpt>
<trkpt lat="-27.2744364" lon="151.2900644">
  <ele>343.09</ele>
  <time>2026-09-01T19:54:41Z</time>
  <course>22.44</course>
  <speed>0.0</speed>
  <fix>3d</fix>
</trkpt>
<trkpt lat="-27.2744367" lon="151.2900644">
  <ele>342.96</ele>
  <time>2026-09-01T19:54:41Z</time>
  <course>11.75</course>
  <speed>0.02</speed>
  <fix>3d</fix>
</trkpt>
<trkpt lat="-27.2744364" lon="151.2900644">
  <ele>343.09</ele>
  <time>2026-09-01T19:54:41Z</time>
  <course>14.8</course>
  <speed>0.0</speed>
  <fix>3d</fix>
</trkpt>
<trkpt lat="-27.2744367" lon="151.2900644">
  <ele>342.96</ele>
  <time>2026-09-01T19:54:41Z</time>
  <course>11.74</course>
  <speed>0.02</speed>
  <fix>3d</fix>
</trkpt>
<trkpt lat="-27.2744364" lon="151.2900644">
  <ele>343.09</ele>
  <time>2026-09-01T19:54:41Z</time>
  <course>14.8</course>
  <speed>0.0</speed>
  <fix>3d</fix>
</trkpt>
<trkpt lat="-27.2744367" lon="151.2900644">
  <ele>342.96</ele>
  <time>2026-09-01T19:54:41Z</time>
  <course>11.75</course>
  <speed>0.022360679774997897</speed>
  <fix>3d</fix>
</trkpt>
<trkpt lat="-27.2744364" lon="151.2900644">
  <ele>343.09</ele>
  <time>2026-09-01T19:54:41Z</time>
  <course>336.26</course>
  <speed>0.0</speed>
  <fix>3d</fix>
</trkpt>
<trkpt lat="-27.2744367" lon="151.2900645">
  <ele>342.96</ele>
  <time>2026-09-01T19:54:41Z</time>
  <course>11.75</course>
  <speed>0.022360679774997897</speed>
  <fix>3d</fix>
</trkpt>
<trkpt lat="-27.2744364" lon="151.2900644">
  <ele>343.09</ele>
  <time>2026-09-01T19:54:41Z</time>
  <course>336.26</course>
  <speed>0.0</speed>
  <fix>3d</fix>
</trkpt>
<trkpt lat="-27.2744367" lon="151.2900645">
  <ele>342.96</ele>
  <time>2026-09-01T19:54:41Z</time>
  <course>11.75</course>
  <speed>0.022360679774997897</speed>
  <fix>3d</fix>
</trkpt>
<trkpt lat="-27.2744364" lon="151.2900644">
  <ele>343.09</ele>
  <time>2026-09-01T19:54:41Z</time>
  <course>4.69</course>
  <speed>0.0</speed>
  <fix>3d</fix>
</trkpt>
<trkpt lat="-27.2744367" lon="151.2900645">
  <ele>342.96</ele>
  <time>2026-09-01T19:54:41Z</time>
  <course>11.75</course>
  <speed>0.022360679774997897</speed>
  <fix>3d</fix>
</trkpt>
<trkpt lat="-27.2744364" lon="151.2900644">
  <ele>343.09</ele>
  <time>2026-09-01T19:54:41Z</time>
  <course>4.69</course>
  <speed>0.0</speed>
  <fix>3d</fix>
</trkpt>
<trkpt lat="-27.2744367" lon="151.2900645">
  <ele>342.96</ele>
  <time>2026-09-01T19:54:41Z</time>
  <course>11.75</course>
  <speed>0.022360679774997897</speed>
  <fix>3d</fix>
</trkpt>
<trkpt lat="-27.2744364" lon="151.2900644">
  <ele>343.09</ele>
  <time>2026-09-01T19:54:41Z</time>
  <course>23.25</course>
  <speed>0.0</speed>
  <fix>3d</fix>
</trkpt>
<trkpt lat="-27.2744367" lon="151.2900645">
  <ele>342.96</ele>
  <time>2026-09-01T19:54:41Z</time>
  <course>11.75</course>
  <speed>0.022360679774997897</speed>
  <fix>3d</fix>
</trkpt>
<trkpt lat="-27.2744364" lon="151.2900644">
  <ele>343.09</ele>
  <time>2026-09-01T19:54:41Z</time>
  <course>23.25</course>
  <speed>0.0</speed>
  <fix>3d</fix>
</trkpt>
<trkpt lat="-27.2744367" lon="151.2900645">
  <ele>342.96</ele>
  <time>2026-09-01T19:54:41Z</time>
  <course>11.75</course>
  <speed>0.022360679774997897</speed>
  <fix>3d</fix>
</trkpt>
<trkpt lat="-27.2744364" lon="151.2900644">
  <ele>343.09</ele>
  <time>2026-09-01T19:54:41Z</time>
  <course>13.72</course>
  <speed>0.0</speed>
  <fix>3d</fix>
</trkpt>
<trkpt lat="-27.2744366" lon="151.2900645">
  <ele>342.96</ele>
  <time>2026-09-01T19:54:41Z</time>
  <course>11.75</course>
  <speed>0.0282842712474619</speed>
  <fix>3d</fix>
</trkpt>
<trkpt lat="-27.2744364" lon="151.2900644">
  <ele>343.09</ele>
  <time>2026-09-01T19:54:41Z</time>
  <course>13.72</course>
  <speed>0.0</speed>
  <fix>3d</fix>
</trkpt>
<trkpt lat="-27.2744366" lon="151.2900645">
  <ele>342.96</ele>
  <time>2026-09-01T19:54:41Z</time>
  <course>11.75</course>
  <speed>0.022360679774997897</speed>
  <fix>3d</fix>
</trkpt>
<trkpt lat="-27.2744364" lon="151.2900644">
  <ele>343.09</ele>
  <time>2026-09-01T19:54:41Z</time>
  <course>24.74</course>
  <speed>0.0</speed>
  <fix>3d</fix>
</trkpt>
<trkpt lat="-27.2744366" lon="151.2900645">
  <ele>342.96</ele>
  <time>2026-09-01T19:54:41Z</time>
  <course>11.75</course>
  <speed>0.01414213562373095</speed>
  <fix>3d</fix>
</trkpt>
<trkpt lat="-27.2744364" lon="151.2900644">
  <ele>343.09</ele>
  <time>2026-09-01T19:54:41Z</time>
  <course>24.74</course>
  <speed>0.0</speed>
  <fix>3d</fix>
</trkpt>
<trkpt lat="-27.2744366" lon="151.2900645">
  <ele>342.96</ele>
  <time>2026-09-01T19:54:41Z</time>
  <course>11.75</course>
  <speed>0.0282842712474619</speed>
  <fix>3d</fix>
</trkpt>
<trkpt lat="-27.2744364" lon="151.2900644">
  <ele>343.09</ele>
  <time>2026-09-01T19:54:41Z</time>
  <course>354.82</course>
  <speed>0.0</speed>
  <fix>3d</fix>
</trkpt>
<trkpt lat="-27.2744366" lon="151.2900645">
  <ele>342.95</ele>
  <time>2026-09-01T19:54:41Z</time>
  <course>11.75</course>
  <speed>0.0282842712474619</speed>
  <fix>3d</fix>
</trkpt>
<trkpt lat="-27.2744364" lon="151.2900644">
  <ele>343.09</ele>
  <time>2026-09-01T19:54:41Z</time>
  <course>354.82</course>
  <speed>0.0</speed>
  <fix>3d</fix>
</trkpt>
<trkpt lat="-27.2744366" lon="151.2900645">
  <ele>342.95</ele>
  <time>2026-09-01T19:54:41Z</time>
  <course>11.75</course>
  <speed>0.0282842712474619</speed>
  <fix>3d</fix>
</trkpt>
<trkpt lat="-27.2744364" lon="151.2900644">
  <ele>343.09</ele>
  <time>2026-09-01T19:54:41Z</time>
  <course>331.57</course>
  <speed>0.0</speed>
  <fix>3d</fix>
</trkpt>
<trkpt lat="-27.2744366" lon="151.2900645">
  <ele>342.95</ele>
  <time>2026-09-01T19:54:41Z</time>
  <course>11.75</course>
  <speed>0.03605551275463989</speed>
  <fix>3d</fix>
</trkpt>
<trkpt lat="-27.2744364" lon="151.2900644">
  <ele>343.09</ele>
  <time>2026-09-01T19:54:41Z</time>
  <course>331.57</course>
  <speed>0.0</speed>
  <fix>3d</fix>
</trkpt>
<trkpt lat="-27.2744366" lon="151.2900645">
  <ele>342.95</ele>
  <time>2026-09-01T19:54:41Z</time>
  <course>11.75</course>
  <speed>0.0316227766016838</speed>
  <fix>3d</fix>
</trkpt>
<trkpt lat="-27.2744364" lon="151.2900644">
  <ele>343.09</ele>
  <time>2026-09-01T19:54:41Z</time>
  <course>6.7</course>
  <speed>0.0</speed>
  <fix>3d</fix>
</trkpt>
<trkpt lat="-27.2744366" lon="151.2900645">
  <ele>342.95</ele>
  <time>2026-09-01T19:54:41Z</time>
  <course>11.75</course>
  <speed>0.0316227766016838</speed>
  <fix>3d</fix>
</trkpt>
<trkpt lat="-27.2744364" lon="151.2900644">
  <ele>343.09</ele>
  <time>2026-09-01T19:54:41Z</time>
  <course>6.7</course>
  <speed>0.0</speed>
  <fix>3d</fix>
</trkpt>
<trkpt lat="-27.2744366" lon="151.2900646">
  <ele>342.95</ele>
  <time>2026-09-01T19:54:41Z</time>
  <course>11.75</course>
  <speed>0.0316227766016838</speed>
  <fix>3d</fix>
</trkpt>
<trkpt lat="-27.2744364" lon="151.2900644">
  <ele>343.09</ele>
  <time>2026-09-01T19:54:41Z</time>
  <course>23.74</course>
  <speed>0.0</speed>
  <fix>3d</fix>
</trkpt>
<trkpt lat="-27.2744366" lon="151.2900646">
  <ele>342.95</ele>
  <time>2026-09-01T19:54:41Z</time>
  <course>11.75</course>
  <speed>0.0316227766016838</speed>
  <fix>3d</fix>
</trkpt>
<trkpt lat="-27.2744364" lon="151.2900644">
  <ele>343.09</ele>
  <time>2026-09-01T19:54:41Z</time>
  <course>23.74</course>
  <speed>0.0</speed>
  <fix>3d</fix>
</trkpt>
<trkpt lat="-27.2744366" lon="151.2900646">
  <ele>342.95</ele>
  <time>2026-09-01T19:54:41Z</time>
  <course>11.75</course>
  <speed>0.0316227766016838</speed>
  <fix>3d</fix>
</trkpt>
<trkpt lat="-27.2744363" lon="151.2900644">
  <ele>343.09</ele>
  <time>2026-09-01T19:54:41Z</time>
  <course>18.9</course>
  <speed>0.0</speed>
  <fix>3d</fix>
</trkpt>
<trkpt lat="-27.2744366" lon="151.2900646">
  <ele>342.95</ele>
  <time>2026-09-01T19:54:41Z</time>
  <course>11.75</course>
  <speed>0.0316227766016838</speed>
  <fix>3d</fix>
</trkpt>
<trkpt lat="-27.2744363" lon="151.2900644">
  <ele>343.09</ele>
  <time>2026-09-01T19:54:41Z</time>
  <course>18.9</course>
  <speed>0.0</speed>
  <fix>3d</fix>
</trkpt>
<trkpt lat="-27.2744366" lon="151.2900646">
  <ele>342.95</ele>
  <time>2026-09-01T19:54:41Z</time>
  <course>11.75</course>
  <speed>0.03605551275463989</speed>
  <fix>3d</fix>
</trkpt>
<trkpt lat="-27.2744363" lon="151.2900644">
  <ele>343.09</ele>
  <time>2026-09-01T19:54:41Z</time>
  <course>15.9</course>
  <speed>0.0</speed>
  <fix>3d</fix>
</trkpt>
<trkpt lat="-27.2744366" lon="151.2900646">
  <ele>342.95</ele>
  <time>2026-09-01T19:54:41Z</time>
  <course>11.75</course>
  <speed>0.053851648071345036</speed>
  <fix>3d</fix>
</trkpt>
<trkpt lat="-27.2744363" lon="151.2900644">
  <ele>343.09</ele>
  <time>2026-09-01T19:54:41Z</time>
  <course>15.9</course>
  <speed>0.0</speed>
  <fix>3d</fix>
</trkpt>
<trkpt lat="-27.2744366" lon="151.2900646">
  <ele>342.95</ele>
  <time>2026-09-01T19:54:41Z</time>
  <course>11.75</course>
  <speed>0.07280109889280519</speed>
  <fix>3d</fix>
</trkpt>
<trkpt lat="-27.2744363" lon="151.2900644">
  <ele>343.09</ele>
  <time>2026-09-01T19:54:41Z</time>
  <course>185.75</course>
  <speed>0.01</speed>
  <fix>3d</fix>
</trkpt>
<trkpt lat="-27.2744366" lon="151.2900646">
  <ele>342.95</ele>
  <time>2026-09-01T19:54:41Z</time>
  <course>11.75</course>
  <speed>0.0824621125123532</speed>
  <fix>3d</fix>
</trkpt>
<trkpt lat="-27.2744363" lon="151.2900644">
  <ele>343.09</ele>
  <time>2026-09-01T19:54:41Z</time>
  <course>185.75</course>
  <speed>0.01</speed>
  <fix>3d</fix>
</trkpt>
<trkpt lat="-27.2744367" lon="151.2900646">
  <ele>342.95</ele>
  <time>2026-09-01T19:54:41Z</time>
  <course>11.75</course>
  <speed>0.08062257748298549</speed>
  <fix>3d</fix>
</trkpt>
<trkpt lat="-27.2744363" lon="151.2900644">
  <ele>343.09</ele>
  <time>2026-09-01T19:54:41Z</time>
  <course>186.29</course>
  <speed>0.05</speed>
  <fix>3d</fix>
</trkpt>
<trkpt lat="-27.2744367" lon="151.2900646">
  <ele>342.95</ele>
  <time>2026-09-01T19:54:41Z</time>
  <course>11.75</course>
  <speed>0.08062257748298549</speed>
  <fix>3d</fix>
</trkpt>
<trkpt lat="-27.2744363" lon="151.2900644">
  <ele>343.09</ele>
  <time>2026-09-01T19:54:41Z</time>
  <course>186.29</course>
  <speed>0.05</speed>
  <fix>3d</fix>
</trkpt>
<trkpt lat="-27.2744368" lon="151.2900646">
  <ele>342.95</ele>
  <time>2026-09-01T19:54:41Z</time>
  <course>11.75</course>
  <speed>0.08062257748298549</speed>
  <fix>3d</fix>
</trkpt>
<trkpt lat="-27.2744365" lon="151.2900643">
  <ele>343.09</ele>
  <time>2026-09-01T19:54:41Z</time>
  <course>187.71</course>
  <speed>0.06</speed>
  <fix>3d</fix>
</trkpt>
<trkpt lat="-27.2744368" lon="151.2900646">
  <ele>342.95</ele>
  <time>2026-09-01T19:54:41Z</time>
  <course>11.75</course>
  <speed>0.0632455532033676</speed>
  <fix>3d</fix>
</trkpt>
<trkpt lat="-27.2744365" lon="151.2900643">
  <ele>343.09</ele>
  <time>2026-09-01T19:54:41Z</time>
  <course>187.71</course>
  <speed>0.06</speed>
  <fix>3d</fix>
</trkpt>
<trkpt lat="-27.2744368" lon="151.2900645">
  <ele>342.95</ele>
  <time>2026-09-01T19:54:41Z</time>
  <course>11.75</course>
  <speed>0.03605551275463989</speed>
  <fix>3d</fix>
</trkpt>
<trkpt lat="-27.2744366" lon="151.2900642">
  <ele>343.09</ele>
  <time>2026-09-01T19:54:41Z</time>
  <course>188.16</course>
  <speed>0.05</speed>
  <fix>3d</fix>
</trkpt>
<trkpt lat="-27.2744368" lon="151.2900645">
  <ele>342.95</ele>
  <time>2026-09-01T19:54:41Z</time>
  <course>11.75</course>
  <speed>0.0316227766016838</speed>
  <fix>3d</fix>
</trkpt>
<trkpt lat="-27.2744366" lon="151.2900642">
  <ele>343.09</ele>
  <time>2026-09-01T19:54:41Z</time>
  <course>188.16</course>
  <speed>0.05</speed>
  <fix>3d</fix>
</trkpt>
<trkpt lat="-27.2744368" lon="151.2900645">
  <ele>343.08</ele>
  <time>2026-09-01T19:54:41Z</time>
  <course>11.75</course>
  <speed>0.0316227766016838</speed>
  <fix>3d</fix>
</trkpt>
<trkpt lat="-27.2744367" lon="151.2900642">
  <ele>343.09</ele>
  <time>2026-09-01T19:54:41Z</time>
  <course>187.02</course>
  <speed>0.01</speed>
  <fix>3d</fix>
</trkpt>
<trkpt lat="-27.2744368" lon="151.2900645">
  <ele>343.09</ele>
  <time>2026-09-01T19:54:41Z</time>
  <course>11.75</course>
  <speed>0.022360679774997897</speed>
  <fix>3d</fix>
</trkpt>
<trkpt lat="-27.2744367" lon="151.2900642">
  <ele>343.09</ele>
  <time>2026-09-01T19:54:41Z</time>
  <course>187.02</course>
  <speed>0.01</speed>
  <fix>3d</fix>
</trkpt>
<trkpt lat="-27.2744368" lon="151.2900645">
  <ele>343.08</ele>
  <time>2026-09-01T19:54:41Z</time>
  <course>11.75</course>
  <speed>0.0282842712474619</speed>
  <fix>3d</fix>
</trkpt>
<trkpt lat="-27.2744367" lon="151.2900642">
  <ele>343.09</ele>
  <time>2026-09-01T19:54:41Z</time>
  <course>6.0</course>
  <speed>0.0</speed>
  <fix>3d</fix>
</trkpt>
<trkpt lat="-27.2744368" lon="151.2900645">
  <ele>343.08</ele>
  <time>2026-09-01T19:54:41Z</time>
  <course>11.75</course>
  <speed>0.0282842712474619</speed>
  <fix>3d</fix>
</trkpt>
<trkpt lat="-27.2744367" lon="151.2900642">
  <ele>343.09</ele>
  <time>2026-09-01T19:54:41Z</time>
  <course>6.0</course>
  <speed>0.0</speed>
  <fix>3d</fix>
</trkpt>
<trkpt lat="-27.2744368" lon="151.2900645">
  <ele>343.07</ele>
  <time>2026-09-01T19:54:41Z</time>
  <course>11.75</course>
  <speed>0.0282842712474619</speed>
  <fix>3d</fix>
</trkpt>
<trkpt lat="-27.2744367" lon="151.2900642">
  <ele>343.09</ele>
  <time>2026-09-01T19:54:41Z</time>
  <course>3.24</course>
  <speed>0.0</speed>
  <fix>3d</fix>
</trkpt>
<trkpt lat="-27.2744368" lon="151.2900645">
  <ele>343.06</ele>
  <time>2026-09-01T19:54:41Z</time>
  <course>11.75</course>
  <speed>0.0282842712474619</speed>
  <fix>3d</fix>
</trkpt>
<trkpt lat="-27.2744367" lon="151.2900642">
  <ele>343.09</ele>
  <time>2026-09-01T19:54:41Z</time>
  <course>3.24</course>
  <speed>0.0</speed>
  <fix>3d</fix>
</trkpt>
<trkpt lat="-27.2744368" lon="151.2900645">
  <ele>343.05</ele>
  <time>2026-09-01T19:54:41Z</time>
  <course>11.75</course>
  <speed>0.0282842712474619</speed>
  <fix>3d</fix>
</trkpt>
<trkpt lat="-27.2744367" lon="151.2900642">
  <ele>343.09</ele>
  <time>2026-09-01T19:54:41Z</time>
  <course>12.88</course>
  <speed>0.0</speed>
  <fix>3d</fix>
</trkpt>
<trkpt lat="-27.2744368" lon="151.2900645">
  <ele>343.04</ele>
  <time>2026-09-01T19:54:41Z</time>
  <course>11.75</course>
  <speed>0.0282842712474619</speed>
  <fix>3d</fix>
</trkpt>
<trkpt lat="-27.2744367" lon="151.2900642">
  <ele>343.09</ele>
  <time>2026-09-01T19:54:41Z</time>
  <course>12.88</course>
  <speed>0.0</speed>
  <fix>3d</fix>
</trkpt>
<trkpt lat="-27.2744368" lon="151.2900645">
  <ele>343.03</ele>
  <time>2026-09-01T19:54:41Z</time>
  <course>11.75</course>
  <speed>0.0282842712474619</speed>
  <fix>3d</fix>
</trkpt>
<trkpt lat="-27.2744367" lon="151.2900642">
  <ele>343.09</ele>
  <time>2026-09-01T19:54:41Z</time>
  <course>6.57</course>
  <speed>0.0</speed>
  <fix>3d</fix>
</trkpt>
<trkpt lat="-27.2744368" lon="151.2900645">
  <ele>343.03</ele>
  <time>2026-09-01T19:54:41Z</time>
  <course>11.75</course>
  <speed>0.0282842712474619</speed>
  <fix>3d</fix>
</trkpt>
<trkpt lat="-27.2744367" lon="151.2900642">
  <ele>343.09</ele>
  <time>2026-09-01T19:54:41Z</time>
  <course>6.57</course>
  <speed>0.0</speed>
  <fix>3d</fix>
</trkpt>
<trkpt lat="-27.2744368" lon="151.2900645">
  <ele>343.02</ele>
  <time>2026-09-01T19:54:41Z</time>
  <course>11.75</course>
  <speed>0.022360679774997897</speed>
  <fix>3d</fix>
</trkpt>
<trkpt lat="-27.2744367" lon="151.2900642">
  <ele>343.09</ele>
  <time>2026-09-01T19:54:41Z</time>
  <course>359.52</course>
  <speed>0.0</speed>
  <fix>3d</fix>
</trkpt>
<trkpt lat="-27.2744368" lon="151.2900645">
  <ele>343.01</ele>
  <time>2026-09-01T19:54:41Z</time>
  <course>11.75</course>
  <speed>0.022360679774997897</speed>
  <fix>3d</fix>
</trkpt>
<trkpt lat="-27.2744367" lon="151.2900642">
  <ele>343.09</ele>
  <time>2026-09-01T19:54:41Z</time>
  <course>359.52</course>
  <speed>0.0</speed>
  <fix>3d</fix>
</trkpt>
<trkpt lat="-27.2744368" lon="151.2900645">
  <ele>343.01</ele>
  <time>2026-09-01T19:54:41Z</time>
  <course>11.75</course>
  <speed>0.022360679774997897</speed>
  <fix>3d</fix>
</trkpt>
<trkpt lat="-27.2744367" lon="151.2900642">
  <ele>343.09</ele>
  <time>2026-09-01T19:54:41Z</time>
  <course>10.23</course>
  <speed>0.0</speed>
  <fix>3d</fix>
</trkpt>
<trkpt lat="-27.2744368" lon="151.2900645">
  <ele>343.01</ele>
  <time>2026-09-01T19:54:41Z</time>
  <course>11.75</course>
  <speed>0.022360679774997897</speed>
  <fix>3d</fix>
</trkpt>
<trkpt lat="-27.2744367" lon="151.2900642">
  <ele>343.09</ele>
  <time>2026-09-01T19:54:42Z</time>
  <course>10.23</course>
  <speed>0.0</speed>
  <fix>3d</fix>
</trkpt>
<trkpt lat="-27.2744368" lon="151.2900645">
  <ele>343.01</ele>
  <time>2026-09-01T19:54:42Z</time>
  <course>11.75</course>
  <speed>0.022360679774997897</speed>
  <fix>3d</fix>
</trkpt>
<trkpt lat="-27.2744367" lon="151.2900642">
  <ele>343.09</ele>
  <time>2026-09-01T19:54:42Z</time>
  <course>17.97</course>
  <speed>0.0</speed>
  <fix>3d</fix>
</trkpt>
<trkpt lat="-27.2744368" lon="151.2900645">
  <ele>343.0</ele>
  <time>2026-09-01T19:54:42Z</time>
  <course>11.75</course>
  <speed>0.0412310562561766</speed>
  <fix>3d</fix>
</trkpt>
<trkpt lat="-27.2744367" lon="151.2900642">
  <ele>343.09</ele>
  <time>2026-09-01T19:54:42Z</time>
  <course>17.97</course>
  <speed>0.0</speed>
  <fix>3d</fix>
</trkpt>
<trkpt lat="-27.2744369" lon="151.2900644">
  <ele>343.0</ele>
  <time>2026-09-01T19:54:42Z</time>
  <course>11.75</course>
  <speed>0.09</speed>
  <fix>3d</fix>
</trkpt>
<trkpt lat="-27.2744367" lon="151.2900642">
  <ele>343.09</ele>
  <time>2026-09-01T19:54:42Z</time>
  <course>186.2</course>
  <speed>0.0</speed>
  <fix>3d</fix>
</trkpt>
<trkpt lat="-27.2744369" lon="151.2900644">
  <ele>343.0</ele>
  <time>2026-09-01T19:54:42Z</time>
  <course>11.75</course>
  <speed>0.06</speed>
  <fix>3d</fix>
</trkpt>
<trkpt lat="-27.2744367" lon="151.2900642">
  <ele>343.09</ele>
  <time>2026-09-01T19:54:42Z</time>
  <course>186.2</course>
  <speed>0.0</speed>
  <fix>3d</fix>
</trkpt>
<trkpt lat="-27.2744369" lon="151.2900644">
  <ele>343.0</ele>
  <time>2026-09-01T19:54:42Z</time>
  <course>11.75</course>
  <speed>0.03</speed>
  <fix>3d</fix>
</trkpt>
<trkpt lat="-27.2744367" lon="151.2900642">
  <ele>343.09</ele>
  <time>2026-09-01T19:54:42Z</time>
  <course>187.79</course>
  <speed>0.03</speed>
  <fix>3d</fix>
</trkpt>
<trkpt lat="-27.2744369" lon="151.2900644">
  <ele>343.0</ele>
  <time>2026-09-01T19:54:42Z</time>
  <course>11.75</course>
  <speed>0.01414213562373095</speed>
  <fix>3d</fix>
</trkpt>
<trkpt lat="-27.2744367" lon="151.2900642">
  <ele>343.09</ele>
  <time>2026-09-01T19:54:42Z</time>
  <course>187.79</course>
  <speed>0.03</speed>
  <fix>3d</fix>
</trkpt>
<trkpt lat="-27.2744369" lon="151.2900644">
  <ele>343.0</ele>
  <time>2026-09-01T19:54:42Z</time>
  <course>11.75</course>
  <speed>0.01414213562373095</speed>
  <fix>3d</fix>
</trkpt>
<trkpt lat="-27.2744368" lon="151.2900642">
  <ele>343.09</ele>
  <time>2026-09-01T19:54:42Z</time>
  <course>187.85</course>
  <speed>0.02</speed>
  <fix>3d</fix>
</trkpt>
<trkpt lat="-27.2744369" lon="151.2900644">
  <ele>343.0</ele>
  <time>2026-09-01T19:54:42Z</time>
  <course>11.75</course>
  <speed>0.01414213562373095</speed>
  <fix>3d</fix>
</trkpt>
<trkpt lat="-27.2744368" lon="151.2900642">
  <ele>343.09</ele>
  <time>2026-09-01T19:54:42Z</time>
  <course>187.85</course>
  <speed>0.02</speed>
  <fix>3d</fix>
</trkpt>
<trkpt lat="-27.2744369" lon="151.2900644">
  <ele>343.0</ele>
  <time>2026-09-01T19:54:42Z</time>
  <course>11.75</course>
  <speed>0.01</speed>
  <fix>3d</fix>
</trkpt>
<trkpt lat="-27.2744368" lon="151.2900642">
  <ele>343.09</ele>
  <time>2026-09-01T19:54:42Z</time>
  <course>7.81</course>
  <speed>0.0</speed>
  <fix>3d</fix>
</trkpt>
<trkpt lat="-26.9720619" lon="149.6127921">
  <ele>339.29</ele>
  <time>2026-09-01T19:54:43Z</time>
  <course>0.0</course>
  <speed>0.0</speed>
  <fix>3d</fix>
</trkpt>
<trkpt lat="-26.9720619" lon="149.6127921">
  <ele>339.29</ele>
  <time>2026-09-01T19:54:43Z</time>
  <course>0.0</course>
  <speed>0.0</speed>
  <fix>3d</fix>
</trkpt>
<trkpt lat="-27.274439" lon="151.290064">
  <ele>-0.01</ele>
  <time>2026-09-01T19:54:43Z</time>
  <course>0.18</course>
  <speed>0.0</speed>
  <fix>3d</fix>
</trkpt>
<trkpt lat="-27.274439" lon="151.290064">
  <ele>343.1</ele>
  <time>2026-09-01T19:54:43Z</time>
  <course>0.0</course>
  <speed>0.0</speed>
  <fix>3d</fix>
</trkpt>
<trkpt lat="-27.274439" lon="151.290064">
  <ele>0.02</ele>
  <time>2026-09-01T19:54:43Z</time>
  <course>1.16</course>
  <speed>0.0</speed>
  <fix>3d</fix>
</trkpt>
<trkpt lat="-27.274439" lon="151.290064">
  <ele>343.1</ele>
  <time>2026-09-01T19:54:43Z</time>
  <course>0.0</course>
  <speed>0.0</speed>
  <fix>3d</fix>
</trkpt>
<trkpt lat="-27.274439" lon="151.290064">
  <ele>-0.08</ele>
  <time>2026-09-01T19:54:43Z</time>
  <course>2.06</course>
  <speed>0.0</speed>
  <fix>3d</fix>
</trkpt>
<trkpt lat="-27.274439" lon="151.290064">
  <ele>343.1</ele>
  <time>2026-09-01T19:54:43Z</time>
  <course>0.0</course>
  <speed>0.0</speed>
  <fix>3d</fix>
</trkpt>
<trkpt lat="-27.274439" lon="151.290064">
  <ele>0.22</ele>
  <time>2026-09-01T19:54:43Z</time>
  <course>2.88</course>
  <speed>0.0</speed>
  <fix>3d</fix>
</trkpt>
<trkpt lat="-27.274439" lon="151.290064">
  <ele>343.1</ele>
  <time>2026-09-01T19:54:43Z</time>
  <course>0.0</course>
  <speed>0.0</speed>
  <fix>3d</fix>
</trkpt>
<trkpt lat="-27.274439" lon="151.290064">
  <ele>0.09</ele>
  <time>2026-09-01T19:54:43Z</time>
  <course>3.62</course>
  <speed>0.0</speed>
  <fix>3d</fix>
</trkpt>
<trkpt lat="-27.274439" lon="151.290064">
  <ele>343.1</ele>
  <time>2026-09-01T19:54:43Z</time>
  <course>0.0</course>
  <speed>0.0</speed>
  <fix>3d</fix>
</trkpt>
<trkpt lat="-27.274439" lon="151.290064">
  <ele>0.08</ele>
  <time>2026-09-01T19:54:43Z</time>
  <course>4.3</course>
  <speed>0.0</speed>
  <fix>3d</fix>
</trkpt>
<trkpt lat="-27.274439" lon="151.290064">
  <ele>343.1</ele>
  <time>2026-09-01T19:54:43Z</time>
  <course>0.0</course>
  <speed>0.0</speed>
  <fix>3d</fix>
</trkpt>
<trkpt lat="-27.274439" lon="151.290064">
  <ele>0.09</ele>
  <time>2026-09-01T19:54:43Z</time>
  <course>4.91</course>
  <speed>0.0</speed>
  <fix>3d</fix>
</trkpt>
<trkpt lat="-27.274439" lon="151.290064">
  <ele>343.1</ele>
  <time>2026-09-01T19:54:43Z</time>
  <course>0.0</course>
  <speed>0.0</speed>
  <fix>3d</fix>
</trkpt>
<trkpt lat="-27.274439" lon="151.290064">
  <ele>-0.05</ele>
  <time>2026-09-01T19:54:43Z</time>
  <course>5.46</course>
  <speed>0.0</speed>
  <fix>3d</fix>
</trkpt>
<trkpt lat="-27.274439" lon="151.290064">
  <ele>343.1</ele>
  <time>2026-09-01T19:54:43Z</time>
  <course>0.0</course>
  <speed>0.0</speed>
  <fix>3d</fix>
</trkpt>
<trkpt lat="-27.274439" lon="151.290064">
  <ele>343.06</ele>
  <time>2026-09-01T19:54:43Z</time>
  <course>5.94</course>
  <speed>0.0</speed>
  <fix>3d</fix>
</trkpt>
<trkpt lat="-27.274439" lon="151.290064">
  <ele>343.1</ele>
  <time>2026-09-01T19:54:43Z</time>
  <course>0.0</course>
  <speed>0.0</speed>
  <fix>3d</fix>
</trkpt>
<trkpt lat="-27.274439" lon="151.290064">
  <ele>343.18</ele>
  <time>2026-09-01T19:54:43Z</time>
  <course>6.39</course>
  <speed>0.0</speed>
  <fix>3d</fix>
</trkpt>
<trkpt lat="-27.274439" lon="151.290064">
  <ele>343.1</ele>
  <time>2026-09-01T19:54:43Z</time>
  <course>0.0</course>
  <speed>0.0</speed>
  <fix>3d</fix>
</trkpt>
<trkpt lat="-27.274439" lon="151.290064">
  <ele>342.91</ele>
  <time>2026-09-01T19:54:43Z</time>
  <course>6.8</course>
  <speed>0.0</speed>
  <fix>3d</fix>
</trkpt>
<trkpt lat="-27.274439" lon="151.290064">
  <ele>343.1</ele>
  <time>2026-09-01T19:54:43Z</time>
  <course>0.0</course>
  <speed>0.0</speed>
  <fix>3d</fix>
</trkpt>
<trkpt lat="-27.274439" lon="151.290064">
  <ele>343.06</ele>
  <time>2026-09-01T19:54:43Z</time>
  <course>7.17</course>
  <speed>0.0</speed>
  <fix>3d</fix>
</trkpt>
<trkpt lat="-27.274439" lon="151.290064">
  <ele>343.1</ele>
  <time>2026-09-01T19:54:43Z</time>
  <course>0.0</course>
  <speed>0.0</speed>
  <fix>3d</fix>
</trkpt>
<trkpt lat="-27.274439" lon="151.290064">
  <ele>343.13</ele>
  <time>2026-09-01T19:54:43Z</time>
  <course>7.51</course>
  <speed>0.0</speed>
  <fix>3d</fix>
</trkpt>
<trkpt lat="-27.274439" lon="151.290064">
  <ele>343.1</ele>
  <time>2026-09-01T19:54:43Z</time>
  <course>0.0</course>
  <speed>0.0</speed>
  <fix>3d</fix>
</trkpt>
<trkpt lat="-27.274439" lon="151.290064">
  <ele>343.04</ele>
  <time>2026-09-01T19:54:43Z</time>
  <course>7.82</course>
  <speed>0.0</speed>
  <fix>3d</fix>
</trkpt>
<trkpt lat="-27.274439" lon="151.290064">
  <ele>343.1</ele>
  <time>2026-09-01T19:54:43Z</time>
  <course>0.0</course>
  <speed>0.0</speed>
  <fix>3d</fix>
</trkpt>
<trkpt lat="-27.274439" lon="151.290064">
  <ele>342.88</ele>
  <time>2026-09-01T19:54:43Z</time>
  <course>8.09</course>
  <speed>0.0</speed>
  <fix>3d</fix>
</trkpt>
<trkpt lat="-27.274439" lon="151.290064">
  <ele>343.1</ele>
  <time>2026-09-01T19:54:43Z</time>
  <course>0.0</course>
  <speed>0.0</speed>
  <fix>3d</fix>
</trkpt>
<trkpt lat="-27.274439" lon="151.290064">
  <ele>343.02</ele>
  <time>2026-09-01T19:54:43Z</time>
  <course>8.34</course>
  <speed>0.0</speed>
  <fix>3d</fix>
</trkpt>
<trkpt lat="-27.274439" lon="151.290064">
  <ele>343.1</ele>
  <time>2026-09-01T19:54:43Z</time>
  <course>0.0</course>
  <speed>0.0</speed>
  <fix>3d</fix>
</trkpt>
<trkpt lat="-27.274439" lon="151.290064">
  <ele>343.23</ele>
  <time>2026-09-01T19:54:43Z</time>
  <course>8.58</course>
  <speed>0.0</speed>
  <fix>3d</fix>
</trkpt>
<trkpt lat="-27.274439" lon="151.290064">
  <ele>343.1</ele>
  <time>2026-09-01T19:54:43Z</time>
  <course>0.0</course>
  <speed>0.0</speed>
  <fix>3d</fix>
</trkpt>
<trkpt lat="-27.274439" lon="151.290064">
  <ele>343.17</ele>
  <time>2026-09-01T19:54:43Z</time>
  <course>8.78</course>
  <speed>0.0</speed>
  <fix>3d</fix>
</trkpt>
<trkpt lat="-27.274439" lon="151.290064">
  <ele>343.1</ele>
  <time>2026-09-01T19:54:43Z</time>
  <course>0.0</course>
  <speed>0.0</speed>
  <fix>3d</fix>
</trkpt>
<trkpt lat="-27.274439" lon="151.290064">
  <ele>343.04</ele>
  <time>2026-09-01T19:54:43Z</time>
  <course>8.96</course>
  <speed>0.0</speed>
  <fix>3d</fix>
</trkpt>
<trkpt lat="-27.274439" lon="151.290064">
  <ele>343.1</ele>
  <time>2026-09-01T19:54:43Z</time>
  <course>0.0</course>
  <speed>0.0</speed>
  <fix>3d</fix>
</trkpt>
<trkpt lat="-27.274439" lon="151.290064">
  <ele>342.89</ele>
  <time>2026-09-01T19:54:43Z</time>
  <course>9.13</course>
  <speed>0.0</speed>
  <fix>3d</fix>
</trkpt>
<trkpt lat="-27.274439" lon="151.290064">
  <ele>343.1</ele>
  <time>2026-09-01T19:54:43Z</time>
  <course>0.0</course>
  <speed>0.0</speed>
  <fix>3d</fix>
</trkpt>
<trkpt lat="-27.274439" lon="151.290064">
  <ele>343.08</ele>
  <time>2026-09-01T19:54:43Z</time>
  <course>9.28</course>
  <speed>0.0</speed>
  <fix>3d</fix>
</trkpt>
<trkpt lat="-27.274439" lon="151.290064">
  <ele>343.1</ele>
  <time>2026-09-01T19:54:43Z</time>
  <course>0.0</course>
  <speed>0.0</speed>
  <fix>3d</fix>
</trkpt>
<trkpt lat="-27.274439" lon="151.290064">
  <ele>343.19</ele>
  <time>2026-09-01T19:54:43Z</time>
  <course>9.42</course>
  <speed>0.0</speed>
  <fix>3d</fix>
</trkpt>
<trkpt lat="-27.274439" lon="151.290064">
  <ele>343.1</ele>
  <time>2026-09-01T19:54:43Z</time>
  <course>0.0</course>
  <speed>0.0</speed>
  <fix>3d</fix>
</trkpt>
<trkpt lat="-27.274439" lon="151.290064">
  <ele>342.88</ele>
  <time>2026-09-01T19:54:43Z</time>
  <course>9.54</course>
  <speed>0.0</speed>
  <fix>3d</fix>
</trkpt>
<trkpt lat="-27.274439" lon="151.290064">
  <ele>343.1</ele>
  <time>2026-09-01T19:54:43Z</time>
  <course>0.0</course>
  <speed>0.0</speed>
  <fix>3d</fix>
</trkpt>
<trkpt lat="-27.274439" lon="151.290064">
  <ele>343.17</ele>
  <time>2026-09-01T19:54:43Z</time>
  <course>9.65</course>
  <speed>0.0</speed>
  <fix>3d</fix>
</trkpt>
<trkpt lat="-27.274439" lon="151.290064">
  <ele>343.1</ele>
  <time>2026-09-01T19:54:43Z</time>
  <course>0.0</course>
  <speed>0.0</speed>
  <fix>3d</fix>
</trkpt>
<trkpt lat="-27.274439" lon="151.290064">
  <ele>342.89</ele>
  <time>2026-09-01T19:54:43Z</time>
  <course>9.75</course>
  <speed>0.0</speed>
  <fix>3d</fix>
</trkpt>
<trkpt lat="-27.274439" lon="151.290064">
  <ele>343.1</ele>
  <time>2026-09-01T19:54:43Z</time>
  <course>0.0</course>
  <speed>0.0</speed>
  <fix>3d</fix>
</trkpt>
<trkpt lat="-27.274439" lon="151.290064">
  <ele>342.99</ele>
  <time>2026-09-01T19:54:43Z</time>
  <course>9.84</course>
  <speed>0.0</speed>
  <fix>3d</fix>
</trkpt>
<trkpt lat="-27.274439" lon="151.290064">
  <ele>343.1</ele>
  <time>2026-09-01T19:54:43Z</time>
  <course>0.0</course>
  <speed>0.0</speed>
  <fix>3d</fix>
</trkpt>
<trkpt lat="-27.274439" lon="151.290064">
  <ele>342.87</ele>
  <time>2026-09-01T19:54:43Z</time>
  <course>9.93</course>
  <speed>0.0</speed>
  <fix>3d</fix>
</trkpt>
<trkpt lat="-27.274439" lon="151.290064">
  <ele>343.1</ele>
  <time>2026-09-01T19:54:43Z</time>
  <course>0.0</course>
  <speed>0.0</speed>
  <fix>3d</fix>
</trkpt>
<trkpt lat="-27.274439" lon="151.290064">
  <ele>343.09</ele>
  <time>2026-09-01T19:54:43Z</time>
  <course>10.01</course>
  <speed>0.0</speed>
  <fix>3d</fix>
</trkpt>
<trkpt lat="-27.274439" lon="151.290064">
  <ele>343.1</ele>
  <time>2026-09-01T19:54:43Z</time>
  <course>0.0</course>
  <speed>0.0</speed>
  <fix>3d</fix>
</trkpt>
<trkpt lat="-27.274439" lon="151.290064">
  <ele>343.18</ele>
  <time>2026-09-01T19:54:43Z</time>
  <course>10.08</course>
  <speed>0.0</speed>
  <fix>3d</fix>
</trkpt>
<trkpt lat="-27.274439" lon="151.290064">
  <ele>343.1</ele>
  <time>2026-09-01T19:54:43Z</time>
  <course>0.0</course>
  <speed>0.0</speed>
  <fix>3d</fix>
</trkpt>
<trkpt lat="-27.274439" lon="151.290064">
  <ele>343.05</ele>
  <time>2026-09-01T19:54:43Z</time>
  <course>10.14</course>
  <speed>0.0</speed>
  <fix>3d</fix>
</trkpt>
<trkpt lat="-27.274439" lon="151.290064">
  <ele>343.1</ele>
  <time>2026-09-01T19:54:43Z</time>
  <course>0.0</course>
  <speed>0.0</speed>
  <fix>3d</fix>
</trkpt>
<trkpt lat="-27.274439" lon="151.290064">
  <ele>342.96</ele>
  <time>2026-09-01T19:54:43Z</time>
  <course>10.2</course>
  <speed>0.0</speed>
  <fix>3d</fix>
</trkpt>
<trkpt lat="-27.274439" lon="151.290064">
  <ele>343.1</ele>
  <time>2026-09-01T19:54:43Z</time>
  <course>0.0</course>
  <speed>0.0</speed>
  <fix>3d</fix>
</trkpt>
<trkpt lat="-27.274439" lon="151.290064">
  <ele>343.1</ele>
  <time>2026-09-01T19:54:43Z</time>
  <course>10.25</course>
  <speed>0.0</speed>
  <fix>3d</fix>
</trkpt>
<trkpt lat="-27.274439" lon="151.290064">
  <ele>343.1</ele>
  <time>2026-09-01T19:54:43Z</time>
  <course>0.0</course>
  <speed>0.0</speed>
  <fix>3d</fix>
</trkpt>
<trkpt lat="-27.274439" lon="151.290064">
  <ele>343.22</ele>
  <time>2026-09-01T19:54:43Z</time>
  <course>10.3</course>
  <speed>0.0</speed>
  <fix>3d</fix>
</trkpt>
<trkpt lat="-27.274439" lon="151.290064">
  <ele>343.1</ele>
  <time>2026-09-01T19:54:43Z</time>
  <course>0.0</course>
  <speed>0.0</speed>
  <fix>3d</fix>
</trkpt>
<trkpt lat="-27.274439" lon="151.290064">
  <ele>343.17</ele>
  <time>2026-09-01T19:54:43Z</time>
  <course>10.34</course>
  <speed>0.0</speed>
  <fix>3d</fix>
</trkpt>
<trkpt lat="-27.274439" lon="151.290064">
  <ele>343.1</ele>
  <time>2026-09-01T19:54:43Z</time>
  <course>0.0</course>
  <speed>0.0</speed>
  <fix>3d</fix>
</trkpt>
<trkpt lat="-27.274439" lon="151.290064">
  <ele>343.08</ele>
  <time>2026-09-01T19:54:43Z</time>
  <course>10.38</course>
  <speed>0.0</speed>
  <fix>3d</fix>
</trkpt>
<trkpt lat="-27.274439" lon="151.290064">
  <ele>343.1</ele>
  <time>2026-09-01T19:54:43Z</time>
  <course>0.0</course>
  <speed>0.0</speed>
  <fix>3d</fix>
</trkpt>
<trkpt lat="-27.274439" lon="151.290064">
  <ele>343.04</ele>
  <time>2026-09-01T19:54:43Z</time>
  <course>10.42</course>
  <speed>0.0</speed>
  <fix>3d</fix>
</trkpt>
<trkpt lat="-27.274439" lon="151.290064">
  <ele>343.1</ele>
  <time>2026-09-01T19:54:43Z</time>
  <course>0.0</course>
  <speed>0.0</speed>
  <fix>3d</fix>
</trkpt>
<trkpt lat="-27.274439" lon="151.290064">
  <ele>343.18</ele>
  <time>2026-09-01T19:54:43Z</time>
  <course>10.45</course>
  <speed>0.0</speed>
  <fix>3d</fix>
</trkpt>
<trkpt lat="-27.274439" lon="151.290064">
  <ele>343.1</ele>
  <time>2026-09-01T19:54:43Z</time>
  <course>0.0</course>
  <speed>0.0</speed>
  <fix>3d</fix>
</trkpt>
<trkpt lat="-27.274439" lon="151.290064">
  <ele>343.12</ele>
  <time>2026-09-01T19:54:43Z</time>
  <course>10.48</course>
  <speed>0.0</speed>
  <fix>3d</fix>
</trkpt>
<trkpt lat="-27.274439" lon="151.290064">
  <ele>343.1</ele>
  <time>2026-09-01T19:54:43Z</time>
  <course>0.0</course>
  <speed>0.0</speed>
  <fix>3d</fix>
</trkpt>
<trkpt lat="-27.274439" lon="151.290064">
  <ele>343.04</ele>
  <time>2026-09-01T19:54:43Z</time>
  <course>10.5</course>
  <speed>0.0</speed>
  <fix>3d</fix>
</trkpt>
<trkpt lat="-27.274439" lon="151.290064">
  <ele>343.1</ele>
  <time>2026-09-01T19:54:43Z</time>
  <course>0.0</course>
  <speed>0.0</speed>
  <fix>3d</fix>
</trkpt>
<trkpt lat="-27.274439" lon="151.290064">
  <ele>343.07</ele>
  <time>2026-09-01T19:54:43Z</time>
  <course>10.53</course>
  <speed>0.0</speed>
  <fix>3d</fix>
</trkpt>
<trkpt lat="-27.274439" lon="151.290064">
  <ele>343.1</ele>
  <time>2026-09-01T19:54:43Z</time>
  <course>0.0</course>
  <speed>0.0</speed>
  <fix>3d</fix>
</trkpt>
<trkpt lat="-27.274439" lon="151.290064">
  <ele>343.04</ele>
  <time>2026-09-01T19:54:43Z</time>
  <course>10.55</course>
  <speed>0.0</speed>
  <fix>3d</fix>
</trkpt>
<trkpt lat="-27.274439" lon="151.290064">
  <ele>343.1</ele>
  <time>2026-09-01T19:54:43Z</time>
  <course>0.0</course>
  <speed>0.0</speed>
  <fix>3d</fix>
</trkpt>
<trkpt lat="-27.274439" lon="151.290064">
  <ele>343.01</ele>
  <time>2026-09-01T19:54:43Z</time>
  <course>10.57</course>
  <speed>0.0</speed>
  <fix>3d</fix>
</trkpt>
<trkpt lat="-27.274439" lon="151.290064">
  <ele>343.1</ele>
  <time>2026-09-01T19:54:43Z</time>
  <course>0.0</course>
  <speed>0.0</speed>
  <fix>3d</fix>
</trkpt>
<trkpt lat="-27.274439" lon="151.290064">
  <ele>343.2</ele>
  <time>2026-09-01T19:54:43Z</time>
  <course>10.58</course>
  <speed>0.0</speed>
  <fix>3d</fix>
</trkpt>
<trkpt lat="-27.274439" lon="151.290064">
  <ele>343.1</ele>
  <time>2026-09-01T19:54:43Z</time>
  <course>0.0</course>
  <speed>0.0</speed>
  <fix>3d</fix>
</trkpt>
<trkpt lat="-27.274439" lon="151.290064">
  <ele>343.24</ele>
  <time>2026-09-01T19:54:43Z</time>
  <course>10.6</course>
  <speed>0.0</speed>
  <fix>3d</fix>
</trkpt>
<trkpt lat="-27.274439" lon="151.290064">
  <ele>343.1</ele>
  <time>2026-09-01T19:54:43Z</time>
  <course>0.0</course>
  <speed>0.0</speed>
  <fix>3d</fix>
</trkpt>
<trkpt lat="-27.274439" lon="151.290064">
  <ele>342.88</ele>
  <time>2026-09-01T19:54:43Z</time>
  <course>10.61</course>
  <speed>0.0</speed>
  <fix>3d</fix>
</trkpt>
<trkpt lat="-27.274439" lon="151.290064">
  <ele>343.1</ele>
  <time>2026-09-01T19:54:43Z</time>
  <course>0.0</course>
  <speed>0.0</speed>
  <fix>3d</fix>
</trkpt>
<trkpt lat="-27.274439" lon="151.290064">
  <ele>343.21</ele>
  <time>2026-09-01T19:54:43Z</time>
  <course>10.63</course>
  <speed>0.0</speed>
  <fix>3d</fix>
</trkpt>
<trkpt lat="-27.274439" lon="151.290064">
  <ele>343.1</ele>
  <time>2026-09-01T19:54:43Z</time>
  <course>0.0</course>
  <speed>0.0</speed>
  <fix>3d</fix>
</trkpt>
<trkpt lat="-27.274439" lon="151.290064">
  <ele>343.02</ele>
  <time>2026-09-01T19:54:43Z</time>
  <course>10.64</course>
  <speed>0.0</speed>
  <fix>3d</fix>
</trkpt>
<trkpt lat="-27.274439" lon="151.290064">
  <ele>343.1</ele>
  <time>2026-09-01T19:54:43Z</time>
  <course>0.0</course>
  <speed>0.0</speed>
  <fix>3d</fix>
</trkpt>
<trkpt lat="-27.274439" lon="151.290064">
  <ele>342.93</ele>
  <time>2026-09-01T19:54:43Z</time>
  <course>10.65</course>
  <speed>0.0</speed>
  <fix>3d</fix>
</trkpt>
<trkpt lat="-27.274439" lon="151.290064">
  <ele>343.1</ele>
  <time>2026-09-01T19:54:43Z</time>
  <course>0.0</course>
  <speed>0.0</speed>
  <fix>3d</fix>
</trkpt>
<trkpt lat="-27.274439" lon="151.290064">
  <ele>343.07</ele>
  <time>2026-09-01T19:54:43Z</time>
  <course>10.66</course>
  <speed>0.0</speed>
  <fix>3d</fix>
</trkpt>
<trkpt lat="-27.274439" lon="151.290064">
  <ele>343.1</ele>
  <time>2026-09-01T19:54:43Z</time>
  <course>0.0</course>
  <speed>0.0</speed>
  <fix>3d</fix>
</trkpt>
<trkpt lat="-27.274439" lon="151.290064">
  <ele>342.94</ele>
  <time>2026-09-01T19:54:43Z</time>
  <course>10.67</course>
  <speed>0.0</speed>
  <fix>3d</fix>
</trkpt>
<trkpt lat="-27.274439" lon="151.290064">
  <ele>343.1</ele>
  <time>2026-09-01T19:54:43Z</time>
  <course>0.0</course>
  <speed>0.0</speed>
  <fix>3d</fix>
</trkpt>
<trkpt lat="-27.274439" lon="151.290064">
  <ele>343.11</ele>
  <time>2026-09-01T19:54:43Z</time>
  <course>10.68</course>
  <speed>0.0</speed>
  <fix>3d</fix>
</trkpt>
<trkpt lat="-27.274439" lon="151.290064">
  <ele>343.1</ele>
  <time>2026-09-01T19:54:43Z</time>
  <course>0.0</course>
  <speed>0.0</speed>
  <fix>3d</fix>
</trkpt>
<trkpt lat="-27.274439" lon="151.290064">
  <ele>343.24</ele>
  <time>2026-09-01T19:54:43Z</time>
  <course>10.68</course>
  <speed>0.0</speed>
  <fix>3d</fix>
</trkpt>
<trkpt lat="-27.274439" lon="151.290064">
  <ele>343.1</ele>
  <time>2026-09-01T19:54:43Z</time>
  <course>0.0</course>
  <speed>0.0</speed>
  <fix>3d</fix>
</trkpt>
<trkpt lat="-27.274439" lon="151.290064">
  <ele>343.18</ele>
  <time>2026-09-01T19:54:43Z</time>
  <course>10.69</course>
  <speed>0.0</speed>
  <fix>3d</fix>
</trkpt>
<trkpt lat="-27.274439" lon="151.290064">
  <ele>343.1</ele>
  <time>2026-09-01T19:54:43Z</time>
  <course>0.0</course>
  <speed>0.0</speed>
  <fix>3d</fix>
</trkpt>
<trkpt lat="-27.274439" lon="151.290064">
  <ele>342.89</ele>
  <time>2026-09-01T19:54:43Z</time>
  <course>10.69</course>
  <speed>0.0</speed>
  <fix>3d</fix>
</trkpt>
<trkpt lat="-27.274439" lon="151.290064">
  <ele>343.1</ele>
  <time>2026-09-01T19:54:43Z</time>
  <course>0.0</course>
  <speed>0.0</speed>
  <fix>3d</fix>
</trkpt>
<trkpt lat="-27.274439" lon="151.290064">
  <ele>343.23</ele>
  <time>2026-09-01T19:54:43Z</time>
  <course>10.7</course>
  <speed>0.0</speed>
  <fix>3d</fix>
</trkpt>
<trkpt lat="-27.274439" lon="151.290064">
  <ele>343.1</ele>
  <time>2026-09-01T19:54:43Z</time>
  <course>0.0</course>
  <speed>0.0</speed>
  <fix>3d</fix>
</trkpt>
<trkpt lat="-27.274439" lon="151.290064">
  <ele>343.23</ele>
  <time>2026-09-01T19:54:43Z</time>
  <course>10.7</course>
  <speed>0.0</speed>
  <fix>3d</fix>
</trkpt>
<trkpt lat="-27.274439" lon="151.290064">
  <ele>343.1</ele>
  <time>2026-09-01T19:54:43Z</time>
  <course>0.0</course>
  <speed>0.0</speed>
  <fix>3d</fix>
</trkpt>
<trkpt lat="-27.274439" lon="151.290064">
  <ele>342.99</ele>
  <time>2026-09-01T19:54:43Z</time>
  <course>10.71</course>
  <speed>0.0</speed>
  <fix>3d</fix>
</trkpt>
<trkpt lat="-27.274439" lon="151.290064">
  <ele>343.1</ele>
  <time>2026-09-01T19:54:43Z</time>
  <course>0.0</course>
  <speed>0.0</speed>
  <fix>3d</fix>
</trkpt>
<trkpt lat="-27.274439" lon="151.290064">
  <ele>343.13</ele>
  <time>2026-09-01T19:54:43Z</time>
  <course>10.71</course>
  <speed>0.0</speed>
  <fix>3d</fix>
</trkpt>
<trkpt lat="-27.274439" lon="151.290064">
  <ele>343.1</ele>
  <time>2026-09-01T19:54:43Z</time>
  <course>0.0</course>
  <speed>0.0</speed>
  <fix>3d</fix>
</trkpt>
<trkpt lat="-27.274439" lon="151.290064">
  <ele>343.07</ele>
  <time>2026-09-01T19:54:43Z</time>
  <course>10.71</course>
  <speed>0.0</speed>
  <fix>3d</fix>
</trkpt>
<trkpt lat="-27.274439" lon="151.290064">
  <ele>343.1</ele>
  <time>2026-09-01T19:54:43Z</time>
  <course>0.0</course>
  <speed>0.0</speed>
  <fix>3d</fix>
</trkpt>
<trkpt lat="-27.274439" lon="151.290064">
  <ele>343.19</ele>
  <time>2026-09-01T19:54:43Z</time>
  <course>10.72</course>
  <speed>0.0</speed>
  <fix>3d</fix>
</trkpt>
<trkpt lat="-27.274439" lon="151.290064">
  <ele>343.1</ele>
  <time>2026-09-01T19:54:43Z</time>
  <course>0.0</course>
  <speed>0.0</speed>
  <fix>3d</fix>
</trkpt>
<trkpt lat="-27.274439" lon="151.290064">
  <ele>342.93</ele>
  <time>2026-09-01T19:54:43Z</time>
  <course>10.72</course>
  <speed>0.0</speed>
  <fix>3d</fix>
</trkpt>
<trkpt lat="-27.274439" lon="151.290064">
  <ele>343.1</ele>
  <time>2026-09-01T19:54:43Z</time>
  <course>0.0</course>
  <speed>0.0</speed>
  <fix>3d</fix>
</trkpt>
<trkpt lat="-27.274439" lon="151.290064">
  <ele>343.19</ele>
  <time>2026-09-01T19:54:43Z</time>
  <course>10.72</course>
  <speed>0.0</speed>
  <fix>3d</fix>
</trkpt>
<trkpt lat="-27.274439" lon="151.290064">
  <ele>343.1</ele>
  <time>2026-09-01T19:54:43Z</time>
  <course>0.0</course>
  <speed>0.0</speed>
  <fix>3d</fix>
</trkpt>
<trkpt lat="-27.274439" lon="151.290064">
  <ele>343.1</ele>
  <time>2026-09-01T19:54:43Z</time>
  <course>10.72</course>
  <speed>0.0</speed>
  <fix>3d</fix>
</trkpt>
<trkpt lat="-27.274439" lon="151.290064">
  <ele>343.1</ele>
  <time>2026-09-01T19:54:43Z</time>
  <course>0.0</course>
  <speed>0.0</speed>
  <fix>3d</fix>
</trkpt>
<trkpt lat="-27.274439" lon="151.290064">
  <ele>343.01</ele>
  <time>2026-09-01T19:54:43Z</time>
  <course>10.73</course>
  <speed>0.0</speed>
  <fix>3d</fix>
</trkpt>
<trkpt lat="-27.274439" lon="151.290064">
  <ele>343.1</ele>
  <time>2026-09-01T19:54:43Z</time>
  <course>0.0</course>
  <speed>0.0</speed>
  <fix>3d</fix>
</trkpt>
<trkpt lat="-27.274439" lon="151.290064">
  <ele>343.11</ele>
  <time>2026-09-01T19:54:43Z</time>
  <course>10.73</course>
  <speed>0.0</speed>
  <fix>3d</fix>
</trkpt>
<trkpt lat="-27.274439" lon="151.290064">
  <ele>343.1</ele>
  <time>2026-09-01T19:54:43Z</time>
  <course>0.0</course>
  <speed>0.0</speed>
  <fix>3d</fix>
</trkpt>
<trkpt lat="-27.274439" lon="151.290064">
  <ele>342.96</ele>
  <time>2026-09-01T19:54:43Z</time>
  <course>10.73</course>
  <speed>0.0</speed>
  <fix>3d</fix>
</trkpt>
<trkpt lat="-27.274439" lon="151.290064">
  <ele>343.1</ele>
  <time>2026-09-01T19:54:43Z</time>
  <course>0.0</course>
  <speed>0.0</speed>
  <fix>3d</fix>
</trkpt>
<trkpt lat="-27.274439" lon="151.290064">
  <ele>343.19</ele>
  <time>2026-09-01T19:54:43Z</time>
  <course>10.73</course>
  <speed>0.0</speed>
  <fix>3d</fix>
</trkpt>
<trkpt lat="-27.274439" lon="151.290064">
  <ele>343.1</ele>
  <time>2026-09-01T19:54:43Z</time>
  <course>0.0</course>
  <speed>0.0</speed>
  <fix>3d</fix>
</trkpt>
<trkpt lat="-27.274439" lon="151.290064">
  <ele>343.0</ele>
  <time>2026-09-01T19:54:43Z</time>
  <course>10.73</course>
  <speed>0.0</speed>
  <fix>3d</fix>
</trkpt>
<trkpt lat="-27.274439" lon="151.290064">
  <ele>343.1</ele>
  <time>2026-09-01T19:54:43Z</time>
  <course>0.0</course>
  <speed>0.0</speed>
  <fix>3d</fix>
</trkpt>
<trkpt lat="-27.274439" lon="151.290064">
  <ele>343.2</ele>
  <time>2026-09-01T19:54:43Z</time>
  <course>10.73</course>
  <speed>0.0</speed>
  <fix>3d</fix>
</trkpt>
<trkpt lat="-27.274439" lon="151.290064">
  <ele>343.1</ele>
  <time>2026-09-01T19:54:43Z</time>
  <course>0.0</course>
  <speed>0.0</speed>
  <fix>3d</fix>
</trkpt>
<trkpt lat="-27.274439" lon="151.290064">
  <ele>343.2</ele>
  <time>2026-09-01T19:54:43Z</time>
  <course>10.74</course>
  <speed>0.0</speed>
  <fix>3d</fix>
</trkpt>
<trkpt lat="-27.274439" lon="151.290064">
  <ele>343.1</ele>
  <time>2026-09-01T19:54:43Z</time>
  <course>0.0</course>
  <speed>0.0</speed>
  <fix>3d</fix>
</trkpt>
<trkpt lat="-27.274439" lon="151.290064">
  <ele>343.13</ele>
  <time>2026-09-01T19:54:43Z</time>
  <course>10.74</course>
  <speed>0.0</speed>
  <fix>3d</fix>
</trkpt>
<trkpt lat="-27.274439" lon="151.290064">
  <ele>343.1</ele>
  <time>2026-09-01T19:54:43Z</time>
  <course>0.0</course>
  <speed>0.0</speed>
  <fix>3d</fix>
</trkpt>
<trkpt lat="-27.274439" lon="151.290064">
  <ele>343.1</ele>
  <time>2026-09-01T19:54:43Z</time>
  <course>10.74</course>
  <speed>0.0</speed>
  <fix>3d</fix>
</trkpt>
<trkpt lat="-27.274439" lon="151.290064">
  <ele>343.1</ele>
  <time>2026-09-01T19:54:43Z</time>
  <course>0.0</course>
  <speed>0.0</speed>
  <fix>3d</fix>
</trkpt>
<trkpt lat="-27.274439" lon="151.290064">
  <ele>343.12</ele>
  <time>2026-09-01T19:54:43Z</time>
  <course>10.74</course>
  <speed>0.0</speed>
  <fix>3d</fix>
</trkpt>
<trkpt lat="-27.274439" lon="151.290064">
  <ele>343.1</ele>
  <time>2026-09-01T19:54:43Z</time>
  <course>0.0</course>
  <speed>0.0</speed>
  <fix>3d</fix>
</trkpt>
<trkpt lat="-27.274439" lon="151.290064">
  <ele>342.94</ele>
  <time>2026-09-01T19:54:43Z</time>
  <course>10.74</course>
  <speed>0.0</speed>
  <fix>3d</fix>
</trkpt>
<trkpt lat="-27.274439" lon="151.290064">
  <ele>343.1</ele>
  <time>2026-09-01T19:54:43Z</time>
  <course>0.0</course>
  <speed>0.0</speed>
  <fix>3d</fix>
</trkpt>
<trkpt lat="-27.274439" lon="151.290064">
  <ele>343.25</ele>
  <time>2026-09-01T19:54:43Z</time>
  <course>10.74</course>
  <speed>0.0</speed>
  <fix>3d</fix>
</trkpt>
<trkpt lat="-27.274439" lon="151.290064">
  <ele>343.1</ele>
  <time>2026-09-01T19:54:43Z</time>
  <course>0.0</course>
  <speed>0.0</speed>
  <fix>3d</fix>
</trkpt>
<trkpt lat="-27.274439" lon="151.290064">
  <ele>342.93</ele>
  <time>2026-09-01T19:54:43Z</time>
  <course>10.74</course>
  <speed>0.0</speed>
  <fix>3d</fix>
</trkpt>
<trkpt lat="-27.274439" lon="151.290064">
  <ele>343.1</ele>
  <time>2026-09-01T19:54:43Z</time>
  <course>0.0</course>
  <speed>0.0</speed>
  <fix>3d</fix>
</trkpt>
<trkpt lat="-27.274439" lon="151.290064">
  <ele>343.08</ele>
  <time>2026-09-01T19:54:43Z</time>
  <course>10.74</course>
  <speed>0.0</speed>
  <fix>3d</fix>
</trkpt>
<trkpt lat="-27.274439" lon="151.290064">
  <ele>343.1</ele>
  <time>2026-09-01T19:54:43Z</time>
  <course>0.0</course>
  <speed>0.0</speed>
  <fix>3d</fix>
</trkpt>
<trkpt lat="-27.274439" lon="151.290064">
  <ele>343.23</ele>
  <time>2026-09-01T19:54:43Z</time>
  <course>10.74</course>
  <speed>0.0</speed>
  <fix>3d</fix>
</trkpt>
<trkpt lat="-27.274439" lon="151.290064">
  <ele>343.1</ele>
  <time>2026-09-01T19:54:43Z</time>
  <course>0.0</course>
  <speed>0.0</speed>
  <fix>3d</fix>
</trkpt>
<trkpt lat="-27.274439" lon="151.290064">
  <ele>343.01</ele>
  <time>2026-09-01T19:54:43Z</time>
  <course>10.74</course>
  <speed>0.0</speed>
  <fix>3d</fix>
</trkpt>
<trkpt lat="-27.274439" lon="151.290064">
  <ele>343.1</ele>
  <time>2026-09-01T19:54:43Z</time>
  <course>0.0</course>
  <speed>0.0</speed>
  <fix>3d</fix>
</trkpt>
<trkpt lat="-27.274439" lon="151.290064">
  <ele>343.1</ele>
  <time>2026-09-01T19:54:43Z</time>
  <course>10.74</course>
  <speed>0.0</speed>
  <fix>3d</fix>
</trkpt>
<trkpt lat="-27.274439" lon="151.290064">
  <ele>343.1</ele>
  <time>2026-09-01T19:54:43Z</time>
  <course>0.0</course>
  <speed>0.0</speed>
  <fix>3d</fix>
</trkpt>
<trkpt lat="-27.274439" lon="151.290064">
  <ele>342.99</ele>
  <time>2026-09-01T19:54:43Z</time>
  <course>10.75</course>
  <speed>0.0</speed>
  <fix>3d</fix>
</trkpt>
<trkpt lat="-27.274439" lon="151.290064">
  <ele>343.1</ele>
  <time>2026-09-01T19:54:43Z</time>
  <course>0.0</course>
  <speed>0.0</speed>
  <fix>3d</fix>
</trkpt>
<trkpt lat="-27.274439" lon="151.290064">
  <ele>342.87</ele>
  <time>2026-09-01T19:54:43Z</time>
  <course>10.75</course>
  <speed>0.0</speed>
  <fix>3d</fix>
</trkpt>
<trkpt lat="-27.274439" lon="151.290064">
  <ele>343.1</ele>
  <time>2026-09-01T19:54:43Z</time>
  <course>0.0</course>
  <speed>0.0</speed>
  <fix>3d</fix>
</trkpt>
<trkpt lat="-27.274439" lon="151.290064">
  <ele>343.1</ele>
  <time>2026-09-01T19:54:43Z</time>
  <course>10.75</course>
  <speed>0.0</speed>
  <fix>3d</fix>
</trkpt>
<trkpt lat="-27.274439" lon="151.290064">
  <ele>343.1</ele>
  <time>2026-09-01T19:54:43Z</time>
  <course>0.0</course>
  <speed>0.0</speed>
  <fix>3d</fix>
</trkpt>
<trkpt lat="-27.274439" lon="151.290064">
  <ele>342.99</ele>
  <time>2026-09-01T19:54:43Z</time>
  <course>10.75</course>
  <speed>0.0</speed>
  <fix>3d</fix>
</trkpt>
<trkpt lat="-27.274439" lon="151.290064">
  <ele>343.1</ele>
  <time>2026-09-01T19:54:43Z</time>
  <course>0.0</course>
  <speed>0.0</speed>
  <fix>3d</fix>
</trkpt>
<trkpt lat="-27.274439" lon="151.290064">
  <ele>342.91</ele>
  <time>2026-09-01T19:54:43Z</time>
  <course>10.75</course>
  <speed>0.0</speed>
  <fix>3d</fix>
</trkpt>
<trkpt lat="-27.274439" lon="151.290064">
  <ele>343.1</ele>
  <time>2026-09-01T19:54:43Z</time>
  <course>0.0</course>
  <speed>0.0</speed>
  <fix>3d</fix>
</trkpt>
<trkpt lat="-27.274439" lon="151.290064">
  <ele>342.9</ele>
  <time>2026-09-01T19:54:43Z</time>
  <course>10.75</course>
  <speed>0.0</speed>
  <fix>3d</fix>
</trkpt>
<trkpt lat="-27.274439" lon="151.290064">
  <ele>343.1</ele>
  <time>2026-09-01T19:54:43Z</time>
  <course>0.0</course>
  <speed>0.0</speed>
  <fix>3d</fix>
</trkpt>
<trkpt lat="-27.274439" lon="151.290064">
  <ele>342.87</ele>
  <time>2026-09-01T19:54:43Z</time>
  <course>10.75</course>
  <speed>0.0</speed>
  <fix>3d</fix>
</trkpt>
<trkpt lat="-27.274439" lon="151.290064">
  <ele>343.1</ele>
  <time>2026-09-01T19:54:43Z</time>
  <course>0.0</course>
  <speed>0.0</speed>
  <fix>3d</fix>
</trkpt>
<trkpt lat="-27.274439" lon="151.290064">
  <ele>343.12</ele>
  <time>2026-09-01T19:54:43Z</time>
  <course>10.75</course>
  <speed>0.0</speed>
  <fix>3d</fix>
</trkpt>
<trkpt lat="-27.274439" lon="151.290064">
  <ele>343.1</ele>
  <time>2026-09-01T19:54:43Z</time>
  <course>0.0</course>
  <speed>0.0</speed>
  <fix>3d</fix>
</trkpt>
<trkpt lat="-27.274439" lon="151.290064">
  <ele>342.99</ele>
  <time>2026-09-01T19:54:43Z</time>
  <course>10.75</course>
  <speed>0.0</speed>
  <fix>3d</fix>
</trkpt>
<trkpt lat="-27.274439" lon="151.290064">
  <ele>343.1</ele>
  <time>2026-09-01T19:54:43Z</time>
  <course>0.0</course>
  <speed>0.0</speed>
  <fix>3d</fix>
</trkpt>
<trkpt lat="-27.274439" lon="151.290064">
  <ele>343.13</ele>
  <time>2026-09-01T19:54:43Z</time>
  <course>10.75</course>
  <speed>0.0</speed>
  <fix>3d</fix>
</trkpt>
<trkpt lat="-27.274439" lon="151.290064">
  <ele>343.1</ele>
  <time>2026-09-01T19:54:43Z</time>
  <course>0.0</course>
  <speed>0.0</speed>
  <fix>3d</fix>
</trkpt>
<trkpt lat="-27.274439" lon="151.290064">
  <ele>343.0</ele>
  <time>2026-09-01T19:54:43Z</time>
  <course>10.75</course>
  <speed>0.0</speed>
  <fix>3d</fix>
</trkpt>
<trkpt lat="-27.274439" lon="151.290064">
  <ele>343.1</ele>
  <time>2026-09-01T19:54:43Z</time>
  <course>0.0</course>
  <speed>0.0</speed>
  <fix>3d</fix>
</trkpt>
<trkpt lat="-27.274439" lon="151.290064">
  <ele>343.17</ele>
  <time>2026-09-01T19:54:43Z</time>
  <course>10.75</course>
  <speed>0.0</speed>
  <fix>3d</fix>
</trkpt>
<trkpt lat="-27.274439" lon="151.290064">
  <ele>343.1</ele>
  <time>2026-09-01T19:54:43Z</time>
  <course>0.0</course>
  <speed>0.0</speed>
  <fix>3d</fix>
</trkpt>
<trkpt lat="-27.274439" lon="151.290064">
  <ele>343.0</ele>
  <time>2026-09-01T19:54:43Z</time>
  <course>10.75</course>
  <speed>0.0</speed>
  <fix>3d</fix>
</trkpt>
<trkpt lat="-27.274439" lon="151.290064">
  <ele>343.1</ele>
  <time>2026-09-01T19:54:43Z</time>
  <course>0.0</course>
  <speed>0.0</speed>
  <fix>3d</fix>
</trkpt>
<trkpt lat="-27.274439" lon="151.290064">
  <ele>342.99</ele>
  <time>2026-09-01T19:54:43Z</time>
  <course>10.75</course>
  <speed>0.0</speed>
  <fix>3d</fix>
</trkpt>
<trkpt lat="-27.274439" lon="151.290064">
  <ele>343.1</ele>
  <time>2026-09-01T19:54:43Z</time>
  <course>0.0</course>
  <speed>0.0</speed>
  <fix>3d</fix>
</trkpt>
<trkpt lat="-27.274439" lon="151.290064">
  <ele>343.17</ele>
  <time>2026-09-01T19:54:43Z</time>
  <course>10.75</course>
  <speed>0.0</speed>
  <fix>3d</fix>
</trkpt>
<trkpt lat="-27.274439" lon="151.290064">
  <ele>343.1</ele>
  <time>2026-09-01T19:54:43Z</time>
  <course>0.0</course>
  <speed>0.0</speed>
  <fix>3d</fix>
</trkpt>
<trkpt lat="-27.274439" lon="151.290064">
  <ele>343.16</ele>
  <time>2026-09-01T19:54:43Z</time>
  <course>10.75</course>
  <speed>0.0</speed>
  <fix>3d</fix>
</trkpt>
<trkpt lat="-27.274439" lon="151.290064">
  <ele>343.1</ele>
  <time>2026-09-01T19:54:43Z</time>
  <course>0.0</course>
  <speed>0.0</speed>
  <fix>3d</fix>
</trkpt>
<trkpt lat="-27.274439" lon="151.290064">
  <ele>342.87</ele>
  <time>2026-09-01T19:54:43Z</time>
  <course>10.75</course>
  <speed>0.0</speed>
  <fix>3d</fix>
</trkpt>
<trkpt lat="-27.274439" lon="151.290064">
  <ele>343.1</ele>
  <time>2026-09-01T19:54:43Z</time>
  <course>0.0</course>
  <speed>0.0</speed>
  <fix>3d</fix>
</trkpt>
<trkpt lat="-27.274439" lon="151.290064">
  <ele>343.19</ele>
  <time>2026-09-01T19:54:43Z</time>
  <course>10.75</course>
  <speed>0.0</speed>
  <fix>3d</fix>
</trkpt>
<trkpt lat="-27.274439" lon="151.290064">
  <ele>343.1</ele>
  <time>2026-09-01T19:54:43Z</time>
  <course>0.0</course>
  <speed>0.0</speed>
  <fix>3d</fix>
</trkpt>
<trkpt lat="-27.274439" lon="151.290064">
  <ele>343.16</ele>
  <time>2026-09-01T19:54:43Z</time>
  <course>10.75</course>
  <speed>0.0</speed>
  <fix>3d</fix>
</trkpt>
<trkpt lat="-27.274439" lon="151.290064">
  <ele>343.1</ele>
  <time>2026-09-01T19:54:43Z</time>
  <course>0.0</course>
  <speed>0.0</speed>
  <fix>3d</fix>
</trkpt>
<trkpt lat="-27.274439" lon="151.290064">
  <ele>343.21</ele>
  <time>2026-09-01T19:54:43Z</time>
  <course>10.75</course>
  <speed>0.0</speed>
  <fix>3d</fix>
</trkpt>
<trkpt lat="-27.274439" lon="151.290064">
  <ele>343.1</ele>
  <time>2026-09-01T19:54:43Z</time>
  <course>0.0</course>
  <speed>0.0</speed>
  <fix>3d</fix>
</trkpt>
<trkpt lat="-27.274439" lon="151.290064">
  <ele>343.22</ele>
  <time>2026-09-01T19:54:43Z</time>
  <course>10.75</course>
  <speed>0.0</speed>
  <fix>3d</fix>
</trkpt>
<trkpt lat="-27.274439" lon="151.290064">
  <ele>343.1</ele>
  <time>2026-09-01T19:54:43Z</time>
  <course>0.0</course>
  <speed>0.0</speed>
  <fix>3d</fix>
</trkpt>
<trkpt lat="-27.274439" lon="151.290064">
  <ele>343.24</ele>
  <time>2026-09-01T19:54:43Z</time>
  <course>10.75</course>
  <speed>0.0</speed>
  <fix>3d</fix>
</trkpt>
<trkpt lat="-27.274439" lon="151.290064">
  <ele>343.1</ele>
  <time>2026-09-01T19:54:43Z</time>
  <course>0.0</course>
  <speed>0.0</speed>
  <fix>3d</fix>
</trkpt>
<trkpt lat="-27.274439" lon="151.290064">
  <ele>343.0</ele>
  <time>2026-09-01T19:54:43Z</time>
  <course>10.75</course>
  <speed>0.0</speed>
  <fix>3d</fix>
</trkpt>
<trkpt lat="-27.274439" lon="151.290064">
  <ele>343.1</ele>
  <time>2026-09-01T19:54:43Z</time>
  <course>0.0</course>
  <speed>0.0</speed>
  <fix>3d</fix>
</trkpt>
<trkpt lat="-27.274439" lon="151.290064">
  <ele>343.1</ele>
  <time>2026-09-01T19:54:43Z</time>
  <course>10.75</course>
  <speed>0.0</speed>
  <fix>3d</fix>
</trkpt>
<trkpt lat="-27.274439" lon="151.290064">
  <ele>343.1</ele>
  <time>2026-09-01T19:54:43Z</time>
  <course>0.0</course>
  <speed>0.0</speed>
  <fix>3d</fix>
</trkpt>
<trkpt lat="-27.274439" lon="151.290064">
  <ele>343.05</ele>
  <time>2026-09-01T19:54:43Z</time>
  <course>10.75</course>
  <speed>0.0</speed>
  <fix>3d</fix>
</trkpt>
<trkpt lat="-27.274439" lon="151.290064">
  <ele>343.1</ele>
  <time>2026-09-01T19:54:43Z</time>
  <course>0.0</course>
  <speed>0.0</speed>
  <fix>3d</fix>
</trkpt>
<trkpt lat="-27.274439" lon="151.290064">
  <ele>342.87</ele>
  <time>2026-09-01T19:54:43Z</time>
  <course>10.75</course>
  <speed>0.0</speed>
  <fix>3d</fix>
</trkpt>
<trkpt lat="-27.274439" lon="151.290064">
  <ele>343.1</ele>
  <time>2026-09-01T19:54:43Z</time>
  <course>0.0</course>
  <speed>0.0</speed>
  <fix>3d</fix>
</trkpt>
<trkpt lat="-27.274439" lon="151.290064">
  <ele>342.92</ele>
  <time>2026-09-01T19:54:43Z</time>
  <course>10.75</course>
  <speed>0.0</speed>
  <fix>3d</fix>
</trkpt>
<trkpt lat="-27.274439" lon="151.290064">
  <ele>343.1</ele>
  <time>2026-09-01T19:54:43Z</time>
  <course>0.0</course>
  <speed>0.0</speed>
  <fix>3d</fix>
</trkpt>
<trkpt lat="-27.274439" lon="151.290064">
  <ele>342.96</ele>
  <time>2026-09-01T19:54:43Z</time>
  <course>10.75</course>
  <speed>0.0</speed>
  <fix>3d</fix>
</trkpt>
<trkpt lat="-27.274439" lon="151.290064">
  <ele>343.1</ele>
  <time>2026-09-01T19:54:43Z</time>
  <course>0.0</course>
  <speed>0.0</speed>
  <fix>3d</fix>
</trkpt>
<trkpt lat="-27.274439" lon="151.290064">
  <ele>343.15</ele>
  <time>2026-09-01T19:54:43Z</time>
  <course>10.75</course>
  <speed>0.0</speed>
  <fix>3d</fix>
</trkpt>
<trkpt lat="-27.274439" lon="151.290064">
  <ele>343.1</ele>
  <time>2026-09-01T19:54:43Z</time>
  <course>0.0</course>
  <speed>0.0</speed>
  <fix>3d</fix>
</trkpt>
<trkpt lat="-27.274439" lon="151.290064">
  <ele>343.16</ele>
  <time>2026-09-01T19:54:43Z</time>
  <course>10.75</course>
  <speed>0.0</speed>
  <fix>3d</fix>
</trkpt>
<trkpt lat="-27.274439" lon="151.290064">
  <ele>343.1</ele>
  <time>2026-09-01T19:54:43Z</time>
  <course>0.0</course>
  <speed>0.0</speed>
  <fix>3d</fix>
</trkpt>
<trkpt lat="-27.274439" lon="151.290064">
  <ele>343.2</ele>
  <time>2026-09-01T19:54:43Z</time>
  <course>10.76</course>
  <speed>0.0</speed>
  <fix>3d</fix>
</trkpt>
<trkpt lat="-27.274439" lon="151.290064">
  <ele>343.1</ele>
  <time>2026-09-01T19:54:43Z</time>
  <course>0.0</course>
  <speed>0.0</speed>
  <fix>3d</fix>
</trkpt>
<trkpt lat="-27.274439" lon="151.290064">
  <ele>343.13</ele>
  <time>2026-09-01T19:54:43Z</time>
  <course>10.76</course>
  <speed>0.0</speed>
  <fix>3d</fix>
</trkpt>
<trkpt lat="-27.274439" lon="151.290064">
  <ele>343.1</ele>
  <time>2026-09-01T19:54:43Z</time>
  <course>0.0</course>
  <speed>0.0</speed>
  <fix>3d</fix>
</trkpt>
<trkpt lat="-27.274439" lon="151.290064">
  <ele>343.09</ele>
  <time>2026-09-01T19:54:43Z</time>
  <course>10.71</course>
  <speed>0.0</speed>
  <fix>3d</fix>
</trkpt>
<trkpt lat="-27.274439" lon="151.290064">
  <ele>343.1</ele>
  <time>2026-09-01T19:54:43Z</time>
  <course>0.0</course>
  <speed>0.0</speed>
  <fix>3d</fix>
</trkpt>
<trkpt lat="-27.274439" lon="151.290064">
  <ele>343.09</ele>
  <time>2026-09-01T19:54:43Z</time>
  <course>10.71</course>
  <speed>0.0</speed>
  <fix>3d</fix>
</trkpt>
<trkpt lat="-27.274439" lon="151.290064">
  <ele>343.1</ele>
  <time>2026-09-01T19:54:43Z</time>
  <course>0.0</course>
  <speed>0.0</speed>
  <fix>3d</fix>
</trkpt>
<trkpt lat="-27.274439" lon="151.290064">
  <ele>343.1</ele>
  <time>2026-09-01T19:54:43Z</time>
  <course>10.71</course>
  <speed>0.0</speed>
  <fix>3d</fix>
</trkpt>
<trkpt lat="-27.274439" lon="151.290064">
  <ele>343.1</ele>
  <time>2026-09-01T19:54:43Z</time>
  <course>0.0</course>
  <speed>0.0</speed>
  <fix>3d</fix>
</trkpt>
<trkpt lat="-27.274439" lon="151.290064">
  <ele>343.1</ele>
  <time>2026-09-01T19:54:43Z</time>
  <course>10.71</course>
  <speed>0.0</speed>
  <fix>3d</fix>
</trkpt>
<trkpt lat="-27.274439" lon="151.290064">
  <ele>343.1</ele>
  <time>2026-09-01T19:54:43Z</time>
  <course>0.0</course>
  <speed>0.0</speed>
  <fix>3d</fix>
</trkpt>
<trkpt lat="-27.274439" lon="151.290064">
  <ele>343.1</ele>
  <time>2026-09-01T19:54:43Z</time>
  <course>10.71</course>
  <speed>0.0</speed>
  <fix>3d</fix>
</trkpt>
<trkpt lat="-27.274439" lon="151.290064">
  <ele>343.1</ele>
  <time>2026-09-01T19:54:43Z</time>
  <course>0.0</course>
  <speed>0.0</speed>
  <fix>3d</fix>
</trkpt>
<trkpt lat="-27.274439" lon="151.290064">
  <ele>343.1</ele>
  <time>2026-09-01T19:54:43Z</time>
  <course>10.71</course>
  <speed>0.0</speed>
  <fix>3d</fix>
</trkpt>
<trkpt lat="-27.274439" lon="151.290064">
  <ele>343.1</ele>
  <time>2026-09-01T19:54:43Z</time>
  <course>0.0</course>
  <speed>0.0</speed>
  <fix>3d</fix>
</trkpt>
<trkpt lat="-27.274439" lon="151.290064">
  <ele>343.1</ele>
  <time>2026-09-01T19:54:43Z</time>
  <course>10.71</course>
  <speed>0.0</speed>
  <fix>3d</fix>
</trkpt>
<trkpt lat="-27.274439" lon="151.290064">
  <ele>343.1</ele>
  <time>2026-09-01T19:54:43Z</time>
  <course>0.0</course>
  <speed>0.0</speed>
  <fix>3d</fix>
</trkpt>
<trkpt lat="-27.274439" lon="151.290064">
  <ele>343.11</ele>
  <time>2026-09-01T19:54:43Z</time>
  <course>10.71</course>
  <speed>0.0</speed>
  <fix>3d</fix>
</trkpt>
<trkpt lat="-27.274439" lon="151.290064">
  <ele>343.1</ele>
  <time>2026-09-01T19:54:43Z</time>
  <course>0.0</course>
  <speed>0.0</speed>
  <fix>3d</fix>
</trkpt>
<trkpt lat="-27.274439" lon="151.290064">
  <ele>343.11</ele>
  <time>2026-09-01T19:54:43Z</time>
  <course>10.71</course>
  <speed>0.0</speed>
  <fix>3d</fix>
</trkpt>
<trkpt lat="-27.274439" lon="151.290064">
  <ele>343.1</ele>
  <time>2026-09-01T19:54:43Z</time>
  <course>0.0</course>
  <speed>0.0</speed>
  <fix>3d</fix>
</trkpt>
<trkpt lat="-27.274439" lon="151.290064">
  <ele>343.11</ele>
  <time>2026-09-01T19:54:43Z</time>
  <course>10.71</course>
  <speed>0.0</speed>
  <fix>3d</fix>
</trkpt>
<trkpt lat="-27.274439" lon="151.290064">
  <ele>343.1</ele>
  <time>2026-09-01T19:54:43Z</time>
  <course>0.0</course>
  <speed>0.0</speed>
  <fix>3d</fix>
</trkpt>
<trkpt lat="-27.274439" lon="151.290064">
  <ele>343.12</ele>
  <time>2026-09-01T19:54:43Z</time>
  <course>10.71</course>
  <speed>0.0</speed>
  <fix>3d</fix>
</trkpt>
<trkpt lat="-27.274439" lon="151.290064">
  <ele>343.1</ele>
  <time>2026-09-01T19:54:43Z</time>
  <course>0.0</course>
  <speed>0.0</speed>
  <fix>3d</fix>
</trkpt>
<trkpt lat="-27.274439" lon="151.290064">
  <ele>343.12</ele>
  <time>2026-09-01T19:54:43Z</time>
  <course>10.71</course>
  <speed>0.0</speed>
  <fix>3d</fix>
</trkpt>
<trkpt lat="-27.274439" lon="151.290064">
  <ele>343.1</ele>
  <time>2026-09-01T19:54:43Z</time>
  <course>0.0</course>
  <speed>0.0</speed>
  <fix>3d</fix>
</trkpt>
<trkpt lat="-27.274439" lon="151.290064">
  <ele>343.1</ele>
  <time>2026-09-01T19:54:43Z</time>
  <course>10.71</course>
  <speed>0.0</speed>
  <fix>3d</fix>
</trkpt>
<trkpt lat="-27.274439" lon="151.290064">
  <ele>343.1</ele>
  <time>2026-09-01T19:54:43Z</time>
  <course>0.0</course>
  <speed>0.0</speed>
  <fix>3d</fix>
</trkpt>
<trkpt lat="-27.274439" lon="151.290064">
  <ele>343.1</ele>
  <time>2026-09-01T19:54:43Z</time>
  <course>10.71</course>
  <speed>0.0</speed>
  <fix>3d</fix>
</trkpt>
<trkpt lat="-27.274439" lon="151.290064">
  <ele>343.1</ele>
  <time>2026-09-01T19:54:43Z</time>
  <course>0.0</course>
  <speed>0.0</speed>
  <fix>3d</fix>
</trkpt>
<trkpt lat="-27.274439" lon="151.290064">
  <ele>343.1</ele>
  <time>2026-09-01T19:54:43Z</time>
  <course>10.71</course>
  <speed>0.0</speed>
  <fix>3d</fix>
</trkpt>
<trkpt lat="-27.274439" lon="151.290064">
  <ele>343.1</ele>
  <time>2026-09-01T19:54:43Z</time>
  <course>0.0</course>
  <speed>0.0</speed>
  <fix>3d</fix>
</trkpt>
<trkpt lat="-27.274439" lon="151.290064">
  <ele>343.09</ele>
  <time>2026-09-01T19:54:43Z</time>
  <course>10.71</course>
  <speed>0.0</speed>
  <fix>3d</fix>
</trkpt>
<trkpt lat="-27.274439" lon="151.290064">
  <ele>343.1</ele>
  <time>2026-09-01T19:54:43Z</time>
  <course>0.0</course>
  <speed>0.0</speed>
  <fix>3d</fix>
</trkpt>
<trkpt lat="-27.274439" lon="151.290064">
  <ele>343.09</ele>
  <time>2026-09-01T19:54:43Z</time>
  <course>10.71</course>
  <speed>0.0</speed>
  <fix>3d</fix>
</trkpt>
<trkpt lat="-27.274439" lon="151.290064">
  <ele>343.1</ele>
  <time>2026-09-01T19:54:43Z</time>
  <course>0.0</course>
  <speed>0.0</speed>
  <fix>3d</fix>
</trkpt>
<trkpt lat="-27.274439" lon="151.290064">
  <ele>343.09</ele>
  <time>2026-09-01T19:54:43Z</time>
  <course>10.71</course>
  <speed>0.0</speed>
  <fix>3d</fix>
</trkpt>
<trkpt lat="-27.274439" lon="151.290064">
  <ele>343.1</ele>
  <time>2026-09-01T19:54:43Z</time>
  <course>0.0</course>
  <speed>0.0</speed>
  <fix>3d</fix>
</trkpt>
<trkpt lat="-27.274439" lon="151.290064">
  <ele>343.1</ele>
  <time>2026-09-01T19:54:43Z</time>
  <course>10.71</course>
  <speed>0.0</speed>
  <fix>3d</fix>
</trkpt>
<trkpt lat="-27.274439" lon="151.290064">
  <ele>343.1</ele>
  <time>2026-09-01T19:54:43Z</time>
  <course>0.0</course>
  <speed>0.0</speed>
  <fix>3d</fix>
</trkpt>
<trkpt lat="-27.274439" lon="151.290064">
  <ele>343.1</ele>
  <time>2026-09-01T19:54:43Z</time>
  <course>10.71</course>
  <speed>0.0</speed>
  <fix>3d</fix>
</trkpt>
<trkpt lat="-27.274439" lon="151.290064">
  <ele>343.1</ele>
  <time>2026-09-01T19:54:43Z</time>
  <course>0.0</course>
  <speed>0.0</speed>
  <fix>3d</fix>
</trkpt>
<trkpt lat="-27.274439" lon="151.290064">
  <ele>343.09</ele>
  <time>2026-09-01T19:54:43Z</time>
  <course>10.71</course>
  <speed>0.0</speed>
  <fix>3d</fix>
</trkpt>
<trkpt lat="-27.274439" lon="151.290064">
  <ele>343.1</ele>
  <time>2026-09-01T19:54:43Z</time>
  <course>0.0</course>
  <speed>0.0</speed>
  <fix>3d</fix>
</trkpt>
<trkpt lat="-27.274439" lon="151.290064">
  <ele>343.09</ele>
  <time>2026-09-01T19:54:43Z</time>
  <course>10.71</course>
  <speed>0.0</speed>
  <fix>3d</fix>
</trkpt>
<trkpt lat="-27.274439" lon="151.290064">
  <ele>343.1</ele>
  <time>2026-09-01T19:54:43Z</time>
  <course>0.0</course>
  <speed>0.0</speed>
  <fix>3d</fix>
</trkpt>
<trkpt lat="-27.274439" lon="151.290064">
  <ele>343.09</ele>
  <time>2026-09-01T19:54:43Z</time>
  <course>10.71</course>
  <speed>0.0</speed>
  <fix>3d</fix>
</trkpt>
<trkpt lat="-27.274439" lon="151.290064">
  <ele>343.1</ele>
  <time>2026-09-01T19:54:43Z</time>
  <course>0.0</course>
  <speed>0.0</speed>
  <fix>3d</fix>
</trkpt>
<trkpt lat="-27.274439" lon="151.290064">
  <ele>343.09</ele>
  <time>2026-09-01T19:54:43Z</time>
  <course>10.71</course>
  <speed>0.0</speed>
  <fix>3d</fix>
</trkpt>
<trkpt lat="-27.274439" lon="151.290064">
  <ele>343.1</ele>
  <time>2026-09-01T19:54:43Z</time>
  <course>0.0</course>
  <speed>0.0</speed>
  <fix>3d</fix>
</trkpt>
<trkpt lat="-27.274439" lon="151.290064">
  <ele>343.09</ele>
  <time>2026-09-01T19:54:43Z</time>
  <course>10.71</course>
  <speed>0.0</speed>
  <fix>3d</fix>
</trkpt>
<trkpt lat="-27.274439" lon="151.290064">
  <ele>343.1</ele>
  <time>2026-09-01T19:54:43Z</time>
  <course>0.0</course>
  <speed>0.0</speed>
  <fix>3d</fix>
</trkpt>
<trkpt lat="-27.274439" lon="151.290064">
  <ele>343.1</ele>
  <time>2026-09-01T19:54:43Z</time>
  <course>10.71</course>
  <speed>0.0</speed>
  <fix>3d</fix>
</trkpt>
<trkpt lat="-27.274439" lon="151.290064">
  <ele>343.1</ele>
  <time>2026-09-01T19:54:43Z</time>
  <course>0.0</course>
  <speed>0.0</speed>
  <fix>3d</fix>
</trkpt>
<trkpt lat="-27.274439" lon="151.290064">
  <ele>343.09</ele>
  <time>2026-09-01T19:54:43Z</time>
  <course>10.71</course>
  <speed>0.0</speed>
  <fix>3d</fix>
</trkpt>
<trkpt lat="-27.274439" lon="151.290064">
  <ele>343.1</ele>
  <time>2026-09-01T19:54:43Z</time>
  <course>0.0</course>
  <speed>0.0</speed>
  <fix>3d</fix>
</trkpt>
<trkpt lat="-27.274439" lon="151.290064">
  <ele>343.09</ele>
  <time>2026-09-01T19:54:43Z</time>
  <course>10.71</course>
  <speed>0.0</speed>
  <fix>3d</fix>
</trkpt>
<trkpt lat="-27.274439" lon="151.290064">
  <ele>343.1</ele>
  <time>2026-09-01T19:54:43Z</time>
  <course>0.0</course>
  <speed>0.0</speed>
  <fix>3d</fix>
</trkpt>
<trkpt lat="-27.274439" lon="151.290064">
  <ele>343.09</ele>
  <time>2026-09-01T19:54:43Z</time>
  <course>10.71</course>
  <speed>0.0</speed>
  <fix>3d</fix>
</trkpt>
<trkpt lat="-27.274439" lon="151.290064">
  <ele>343.1</ele>
  <time>2026-09-01T19:54:43Z</time>
  <course>0.0</course>
  <speed>0.0</speed>
  <fix>3d</fix>
</trkpt>
<trkpt lat="-27.274439" lon="151.290064">
  <ele>343.1</ele>
  <time>2026-09-01T19:54:43Z</time>
  <course>10.71</course>
  <speed>0.0</speed>
  <fix>3d</fix>
</trkpt>
<trkpt lat="-27.274439" lon="151.290064">
  <ele>343.1</ele>
  <time>2026-09-01T19:54:43Z</time>
  <course>0.0</course>
  <speed>0.0</speed>
  <fix>3d</fix>
</trkpt>
<trkpt lat="-27.274439" lon="151.290064">
  <ele>343.1</ele>
  <time>2026-09-01T19:54:43Z</time>
  <course>10.71</course>
  <speed>0.0</speed>
  <fix>3d</fix>
</trkpt>
<trkpt lat="-27.274439" lon="151.290064">
  <ele>343.1</ele>
  <time>2026-09-01T19:54:43Z</time>
  <course>0.0</course>
  <speed>0.0</speed>
  <fix>3d</fix>
</trkpt>
<trkpt lat="-27.274439" lon="151.290064">
  <ele>343.1</ele>
  <time>2026-09-01T19:54:43Z</time>
  <course>10.71</course>
  <speed>0.0</speed>
  <fix>3d</fix>
</trkpt>
<trkpt lat="-27.274439" lon="151.290064">
  <ele>343.1</ele>
  <time>2026-09-01T19:54:43Z</time>
  <course>0.0</course>
  <speed>0.0</speed>
  <fix>3d</fix>
</trkpt>
<trkpt lat="-27.274439" lon="151.290064">
  <ele>343.1</ele>
  <time>2026-09-01T19:54:43Z</time>
  <course>10.71</course>
  <speed>0.0</speed>
  <fix>3d</fix>
</trkpt>
<trkpt lat="-27.274439" lon="151.290064">
  <ele>343.1</ele>
  <time>2026-09-01T19:54:43Z</time>
  <course>0.0</course>
  <speed>0.0</speed>
  <fix>3d</fix>
</trkpt>
<trkpt lat="-27.274439" lon="151.290064">
  <ele>343.1</ele>
  <time>2026-09-01T19:54:43Z</time>
  <course>10.71</course>
  <speed>0.0</speed>
  <fix>3d</fix>
</trkpt>
<trkpt lat="-27.274439" lon="151.290064">
  <ele>343.1</ele>
  <time>2026-09-01T19:54:43Z</time>
  <course>0.0</course>
  <speed>0.0</speed>
  <fix>3d</fix>
</trkpt>
<trkpt lat="-27.274439" lon="151.290064">
  <ele>343.1</ele>
  <time>2026-09-01T19:54:43Z</time>
  <course>10.71</course>
  <speed>0.0</speed>
  <fix>3d</fix>
</trkpt>
<trkpt lat="-27.274439" lon="151.290064">
  <ele>343.1</ele>
  <time>2026-09-01T19:54:43Z</time>
  <course>0.0</course>
  <speed>0.0</speed>
  <fix>3d</fix>
</trkpt>
<trkpt lat="-27.274439" lon="151.290064">
  <ele>343.1</ele>
  <time>2026-09-01T19:54:43Z</time>
  <course>10.71</course>
  <speed>0.0</speed>
  <fix>3d</fix>
</trkpt>
<trkpt lat="-27.274439" lon="151.290064">
  <ele>343.1</ele>
  <time>2026-09-01T19:54:43Z</time>
  <course>0.0</course>
  <speed>0.0</speed>
  <fix>3d</fix>
</trkpt>
<trkpt lat="-27.274439" lon="151.290064">
  <ele>343.1</ele>
  <time>2026-09-01T19:54:43Z</time>
  <course>10.71</course>
  <speed>0.0</speed>
  <fix>3d</fix>
</trkpt>
<trkpt lat="-27.274439" lon="151.290064">
  <ele>343.1</ele>
  <time>2026-09-01T19:54:43Z</time>
  <course>0.0</course>
  <speed>0.0</speed>
  <fix>3d</fix>
</trkpt>
<trkpt lat="-27.274439" lon="151.290064">
  <ele>343.1</ele>
  <time>2026-09-01T19:54:43Z</time>
  <course>10.71</course>
  <speed>0.0</speed>
  <fix>3d</fix>
</trkpt>
<trkpt lat="-27.274439" lon="151.290064">
  <ele>343.1</ele>
  <time>2026-09-01T19:54:43Z</time>
  <course>0.0</course>
  <speed>0.0</speed>
  <fix>3d</fix>
</trkpt>
<trkpt lat="-27.274439" lon="151.290064">
  <ele>343.1</ele>
  <time>2026-09-01T19:54:43Z</time>
  <course>10.71</course>
  <speed>0.0</speed>
  <fix>3d</fix>
</trkpt>
<trkpt lat="-27.274439" lon="151.290064">
  <ele>343.1</ele>
  <time>2026-09-01T19:54:43Z</time>
  <course>0.0</course>
  <speed>0.0</speed>
  <fix>3d</fix>
</trkpt>
<trkpt lat="-27.274439" lon="151.290064">
  <ele>343.11</ele>
  <time>2026-09-01T19:54:43Z</time>
  <course>10.71</course>
  <speed>0.0</speed>
  <fix>3d</fix>
</trkpt>
<trkpt lat="-27.274439" lon="151.290064">
  <ele>343.1</ele>
  <time>2026-09-01T19:54:43Z</time>
  <course>0.0</course>
  <speed>0.0</speed>
  <fix>3d</fix>
</trkpt>
<trkpt lat="-27.274439" lon="151.290064">
  <ele>343.11</ele>
  <time>2026-09-01T19:54:43Z</time>
  <course>10.71</course>
  <speed>0.0</speed>
  <fix>3d</fix>
</trkpt>
<trkpt lat="-27.274439" lon="151.290064">
  <ele>343.1</ele>
  <time>2026-09-01T19:54:43Z</time>
  <course>0.0</course>
  <speed>0.0</speed>
  <fix>3d</fix>
</trkpt>
<trkpt lat="-27.274439" lon="151.290064">
  <ele>343.11</ele>
  <time>2026-09-01T19:54:43Z</time>
  <course>10.71</course>
  <speed>0.01</speed>
  <fix>3d</fix>
</trkpt>
<trkpt lat="-27.274439" lon="151.290064">
  <ele>343.1</ele>
  <time>2026-09-01T19:54:43Z</time>
  <course>0.0</course>
  <speed>0.0</speed>
  <fix>3d</fix>
</trkpt>
<trkpt lat="-27.274439" lon="151.290064">
  <ele>343.11</ele>
  <time>2026-09-01T19:54:43Z</time>
  <course>10.71</course>
  <speed>0.01</speed>
  <fix>3d</fix>
</trkpt>
<trkpt lat="-27.274439" lon="151.290064">
  <ele>343.1</ele>
  <time>2026-09-01T19:54:43Z</time>
  <course>7.56</course>
  <speed>0.0</speed>
  <fix>3d</fix>
</trkpt>
<trkpt lat="-27.274439" lon="151.290064">
  <ele>343.11</ele>
  <time>2026-09-01T19:54:43Z</time>
  <course>10.71</course>
  <speed>0.0</speed>
  <fix>3d</fix>
</trkpt>
<trkpt lat="-27.274439" lon="151.290064">
  <ele>343.1</ele>
  <time>2026-09-01T19:54:43Z</time>
  <course>7.56</course>
  <speed>0.0</speed>
  <fix>3d</fix>
</trkpt>
<trkpt lat="-27.274439" lon="151.290064">
  <ele>343.11</ele>
  <time>2026-09-01T19:54:43Z</time>
  <course>10.71</course>
  <speed>0.0</speed>
  <fix>3d</fix>
</trkpt>
<trkpt lat="-27.274439" lon="151.290064">
  <ele>343.1</ele>
  <time>2026-09-01T19:54:43Z</time>
  <course>8.43</course>
  <speed>0.01</speed>
  <fix>3d</fix>
</trkpt>
<trkpt lat="-27.274439" lon="151.290064">
  <ele>343.11</ele>
  <time>2026-09-01T19:54:43Z</time>
  <course>10.71</course>
  <speed>0.0</speed>
  <fix>3d</fix>
</trkpt>
<trkpt lat="-27.274439" lon="151.290064">
  <ele>343.1</ele>
  <time>2026-09-01T19:54:43Z</time>
  <course>8.43</course>
  <speed>0.01</speed>
  <fix>3d</fix>
</trkpt>
<trkpt lat="-27.274439" lon="151.290064">
  <ele>343.11</ele>
  <time>2026-09-01T19:54:43Z</time>
  <course>10.71</course>
  <speed>0.0</speed>
  <fix>3d</fix>
</trkpt>
<trkpt lat="-27.274439" lon="151.290064">
  <ele>343.1</ele>
  <time>2026-09-01T19:54:43Z</time>
  <course>10.13</course>
  <speed>0.0</speed>
  <fix>3d</fix>
</trkpt>
<trkpt lat="-27.274439" lon="151.290064">
  <ele>343.11</ele>
  <time>2026-09-01T19:54:43Z</time>
  <course>10.71</course>
  <speed>0.0</speed>
  <fix>3d</fix>
</trkpt>
<trkpt lat="-27.274439" lon="151.290064">
  <ele>343.1</ele>
  <time>2026-09-01T19:54:43Z</time>
  <course>10.13</course>
  <speed>0.0</speed>
  <fix>3d</fix>
</trkpt>
<trkpt lat="-27.274439" lon="151.290064">
  <ele>343.11</ele>
  <time>2026-09-01T19:54:43Z</time>
  <course>10.71</course>
  <speed>0.0</speed>
  <fix>3d</fix>
</trkpt>
<trkpt lat="-27.274439" lon="151.290064">
  <ele>343.1</ele>
  <time>2026-09-01T19:54:43Z</time>
  <course>189.01</course>
  <speed>0.0</speed>
  <fix>3d</fix>
</trkpt>
<trkpt lat="-27.274439" lon="151.290064">
  <ele>343.11</ele>
  <time>2026-09-01T19:54:43Z</time>
  <course>10.71</course>
  <speed>0.0</speed>
  <fix>3d</fix>
</trkpt>
<trkpt lat="-27.274439" lon="151.290064">
  <ele>343.1</ele>
  <time>2026-09-01T19:54:43Z</time>
  <course>189.01</course>
  <speed>0.0</speed>
  <fix>3d</fix>
</trkpt>
<trkpt lat="-27.274439" lon="151.290064">
  <ele>343.11</ele>
  <time>2026-09-01T19:54:43Z</time>
  <course>10.71</course>
  <speed>0.0</speed>
  <fix>3d</fix>
</trkpt>
<trkpt lat="-27.274439" lon="151.290064">
  <ele>343.1</ele>
  <time>2026-09-01T19:54:43Z</time>
  <course>353.71</course>
  <speed>0.0</speed>
  <fix>3d</fix>
</trkpt>
<trkpt lat="-27.274439" lon="151.290064">
  <ele>343.11</ele>
  <time>2026-09-01T19:54:43Z</time>
  <course>10.71</course>
  <speed>0.0</speed>
  <fix>3d</fix>
</trkpt>
<trkpt lat="-27.274439" lon="151.290064">
  <ele>343.1</ele>
  <time>2026-09-01T19:54:43Z</time>
  <course>353.71</course>
  <speed>0.0</speed>
  <fix>3d</fix>
</trkpt>
<trkpt lat="-27.274439" lon="151.290064">
  <ele>343.11</ele>
  <time>2026-09-01T19:54:43Z</time>
  <course>10.71</course>
  <speed>0.0</speed>
  <fix>3d</fix>
</trkpt>
<trkpt lat="-27.274439" lon="151.290064">
  <ele>343.1</ele>
  <time>2026-09-01T19:54:43Z</time>
  <course>4.61</course>
  <speed>0.0</speed>
  <fix>3d</fix>
</trkpt>
<trkpt lat="-27.274439" lon="151.290064">
  <ele>343.1</ele>
  <time>2026-09-01T19:54:43Z</time>
  <course>10.71</course>
  <speed>0.0</speed>
  <fix>3d</fix>
</trkpt>
<trkpt lat="-27.274439" lon="151.290064">
  <ele>343.1</ele>
  <time>2026-09-01T19:54:43Z</time>
  <course>4.61</course>
  <speed>0.0</speed>
  <fix>3d</fix>
</trkpt>
<trkpt lat="-27.274439" lon="151.290064">
  <ele>343.1</ele>
  <time>2026-09-01T19:54:43Z</time>
  <course>10.71</course>
  <speed>0.0</speed>
  <fix>3d</fix>
</trkpt>
<trkpt lat="-27.274439" lon="151.290064">
  <ele>343.1</ele>
  <time>2026-09-01T19:54:43Z</time>
  <course>15.55</course>
  <speed>0.0</speed>
  <fix>3d</fix>
</trkpt>
<trkpt lat="-27.274439" lon="151.290064">
  <ele>343.1</ele>
  <time>2026-09-01T19:54:43Z</time>
  <course>10.71</course>
  <speed>0.0</speed>
  <fix>3d</fix>
</trkpt>
<trkpt lat="-27.274439" lon="151.290064">
  <ele>343.1</ele>
  <time>2026-09-01T19:54:43Z</time>
  <course>15.55</course>
  <speed>0.0</speed>
  <fix>3d</fix>
</trkpt>
<trkpt lat="-27.274439" lon="151.290064">
  <ele>343.1</ele>
  <time>2026-09-01T19:54:43Z</time>
  <course>10.71</course>
  <speed>0.0</speed>
  <fix>3d</fix>
</trkpt>
<trkpt lat="-27.274439" lon="151.290064">
  <ele>343.1</ele>
  <time>2026-09-01T19:54:43Z</time>
  <course>1.98</course>
  <speed>0.0</speed>
  <fix>3d</fix>
</trkpt>
<trkpt lat="-27.274439" lon="151.290064">
  <ele>343.1</ele>
  <time>2026-09-01T19:54:43Z</time>
  <course>10.71</course>
  <speed>0.0</speed>
  <fix>3d</fix>
</trkpt>
<trkpt lat="-27.274439" lon="151.290064">
  <ele>343.1</ele>
  <time>2026-09-01T19:54:43Z</time>
  <course>1.98</course>
  <speed>0.0</speed>
  <fix>3d</fix>
</trkpt>
<trkpt lat="-27.274439" lon="151.290064">
  <ele>343.1</ele>
  <time>2026-09-01T19:54:43Z</time>
  <course>10.71</course>
  <speed>0.0</speed>
  <fix>3d</fix>
</trkpt>
<trkpt lat="-27.274439" lon="151.290064">
  <ele>343.1</ele>
  <time>2026-09-01T19:54:43Z</time>
  <course>358.41</course>
  <speed>0.0</speed>
  <fix>3d</fix>
</trkpt>
<trkpt lat="-27.274439" lon="151.290064">
  <ele>343.1</ele>
  <time>2026-09-01T19:54:43Z</time>
  <course>10.71</course>
  <speed>0.0</speed>
  <fix>3d</fix>
</trkpt>
<trkpt lat="-27.274439" lon="151.290064">
  <ele>343.1</ele>
  <time>2026-09-01T19:54:43Z</time>
  <course>358.41</course>
  <speed>0.0</speed>
  <fix>3d</fix>
</trkpt>
<trkpt lat="-27.274439" lon="151.290064">
  <ele>343.1</ele>
  <time>2026-09-01T19:54:43Z</time>
  <course>10.71</course>
  <speed>0.0</speed>
  <fix>3d</fix>
</trkpt>
<trkpt lat="-27.274439" lon="151.290064">
  <ele>343.1</ele>
  <time>2026-09-01T19:54:43Z</time>
  <course>359.46</course>
  <speed>0.0</speed>
  <fix>3d</fix>
</trkpt>
<trkpt lat="-27.274439" lon="151.290064">
  <ele>343.1</ele>
  <time>2026-09-01T19:54:43Z</time>
  <course>10.71</course>
  <speed>0.0</speed>
  <fix>3d</fix>
</trkpt>
<trkpt lat="-27.274439" lon="151.290064">
  <ele>343.1</ele>
  <time>2026-09-01T19:54:43Z</time>
  <course>359.46</course>
  <speed>0.0</speed>
  <fix>3d</fix>
</trkpt>
<trkpt lat="-27.274439" lon="151.290064">
  <ele>343.1</ele>
  <time>2026-09-01T19:54:44Z</time>
  <course>10.71</course>
  <speed>0.0</speed>
  <fix>3d</fix>
</trkpt>
<trkpt lat="-27.274439" lon="151.290064">
  <ele>343.1</ele>
  <time>2026-09-01T19:54:44Z</time>
  <course>3.95</course>
  <speed>0.0</speed>
  <fix>3d</fix>
</trkpt>
<trkpt lat="-27.274439" lon="151.290064">
  <ele>343.1</ele>
  <time>2026-09-01T19:54:44Z</time>
  <course>10.71</course>
  <speed>0.0</speed>
  <fix>3d</fix>
</trkpt>
<trkpt lat="-27.274439" lon="151.290064">
  <ele>343.1</ele>
  <time>2026-09-01T19:54:44Z</time>
  <course>3.95</course>
  <speed>0.0</speed>
  <fix>3d</fix>
</trkpt>
<trkpt lat="-27.274439" lon="151.290064">
  <ele>343.11</ele>
  <time>2026-09-01T19:54:44Z</time>
  <course>10.71</course>
  <speed>0.0</speed>
  <fix>3d</fix>
</trkpt>
<trkpt lat="-27.274439" lon="151.290064">
  <ele>343.1</ele>
  <time>2026-09-01T19:54:44Z</time>
  <course>358.71</course>
  <speed>0.0</speed>
  <fix>3d</fix>
</trkpt>
<trkpt lat="-27.274439" lon="151.290064">
  <ele>343.11</ele>
  <time>2026-09-01T19:54:44Z</time>
  <course>10.71</course>
  <speed>0.0</speed>
  <fix>3d</fix>
</trkpt>
<trkpt lat="-27.274439" lon="151.290064">
  <ele>343.1</ele>
  <time>2026-09-01T19:54:44Z</time>
  <course>358.71</course>
  <speed>0.0</speed>
  <fix>3d</fix>
</trkpt>
<trkpt lat="-27.274439" lon="151.290064">
  <ele>343.11</ele>
  <time>2026-09-01T19:54:44Z</time>
  <course>10.71</course>
  <speed>0.0</speed>
  <fix>3d</fix>
</trkpt>
<trkpt lat="-27.274439" lon="151.290064">
  <ele>343.1</ele>
  <time>2026-09-01T19:54:44Z</time>
  <course>3.55</course>
  <speed>0.0</speed>
  <fix>3d</fix>
</trkpt>
<trkpt lat="-27.274439" lon="151.290064">
  <ele>343.11</ele>
  <time>2026-09-01T19:54:44Z</time>
  <course>10.71</course>
  <speed>0.0</speed>
  <fix>3d</fix>
</trkpt>
<trkpt lat="-27.274439" lon="151.290064">
  <ele>343.1</ele>
  <time>2026-09-01T19:54:44Z</time>
  <course>3.55</course>
  <speed>0.0</speed>
  <fix>3d</fix>
</trkpt>
<trkpt lat="-27.274439" lon="151.290064">
  <ele>343.11</ele>
  <time>2026-09-01T19:54:44Z</time>
  <course>10.71</course>
  <speed>0.0</speed>
  <fix>3d</fix>
</trkpt>
<trkpt lat="-27.274439" lon="151.290064">
  <ele>343.1</ele>
  <time>2026-09-01T19:54:44Z</time>
  <course>11.53</course>
  <speed>0.0</speed>
  <fix>3d</fix>
</trkpt>
<trkpt lat="-27.274439" lon="151.290064">
  <ele>343.11</ele>
  <time>2026-09-01T19:54:44Z</time>
  <course>10.7</course>
  <speed>0.0</speed>
  <fix>3d</fix>
</trkpt>
<trkpt lat="-27.274439" lon="151.290064">
  <ele>343.1</ele>
  <time>2026-09-01T19:54:44Z</time>
  <course>11.53</course>
  <speed>0.0</speed>
  <fix>3d</fix>
</trkpt>
<trkpt lat="-27.274439" lon="151.290064">
  <ele>343.11</ele>
  <time>2026-09-01T19:54:44Z</time>
  <course>10.7</course>
  <speed>0.0</speed>
  <fix>3d</fix>
</trkpt>
<trkpt lat="-27.274439" lon="151.290064">
  <ele>343.1</ele>
  <time>2026-09-01T19:54:44Z</time>
  <course>0.02</course>
  <speed>0.0</speed>
  <fix>3d</fix>
</trkpt>
<trkpt lat="-27.274439" lon="151.290064">
  <ele>343.11</ele>
  <time>2026-09-01T19:54:44Z</time>
  <course>10.7</course>
  <speed>0.0</speed>
  <fix>3d</fix>
</trkpt>
<trkpt lat="-27.274439" lon="151.290064">
  <ele>343.1</ele>
  <time>2026-09-01T19:54:44Z</time>
  <course>0.02</course>
  <speed>0.0</speed>
  <fix>3d</fix>
</trkpt>
<trkpt lat="-27.274439" lon="151.290064">
  <ele>343.11</ele>
  <time>2026-09-01T19:54:44Z</time>
  <course>10.7</course>
  <speed>0.01</speed>
  <fix>3d</fix>
</trkpt>
<trkpt lat="-27.274439" lon="151.290064">
  <ele>343.1</ele>
  <time>2026-09-01T19:54:44Z</time>
  <course>349.11</course>
  <speed>0.0</speed>
  <fix>3d</fix>
</trkpt>
<trkpt lat="-27.274439" lon="151.290064">
  <ele>343.12</ele>
  <time>2026-09-01T19:54:44Z</time>
  <course>10.7</course>
  <speed>0.01</speed>
  <fix>3d</fix>
</trkpt>
<trkpt lat="-27.274439" lon="151.290064">
  <ele>343.1</ele>
  <time>2026-09-01T19:54:44Z</time>
  <course>349.11</course>
  <speed>0.0</speed>
  <fix>3d</fix>
</trkpt>
<trkpt lat="-27.274439" lon="151.290064">
  <ele>343.12</ele>
  <time>2026-09-01T19:54:44Z</time>
  <course>10.7</course>
  <speed>0.0</speed>
  <fix>3d</fix>
</trkpt>
<trkpt lat="-27.274439" lon="151.290064">
  <ele>343.1</ele>
  <time>2026-09-01T19:54:44Z</time>
  <course>188.32</course>
  <speed>0.0</speed>
  <fix>3d</fix>
</trkpt>
<trkpt lat="-27.274439" lon="151.290064">
  <ele>343.12</ele>
  <time>2026-09-01T19:54:44Z</time>
  <course>10.7</course>
  <speed>0.0</speed>
  <fix>3d</fix>
</trkpt>
<trkpt lat="-27.274439" lon="151.290064">
  <ele>343.1</ele>
  <time>2026-09-01T19:54:44Z</time>
  <course>188.32</course>
  <speed>0.0</speed>
  <fix>3d</fix>
</trkpt>
<trkpt lat="-27.274439" lon="151.290064">
  <ele>343.12</ele>
  <time>2026-09-01T19:54:44Z</time>
  <course>10.7</course>
  <speed>0.0</speed>
  <fix>3d</fix>
</trkpt>
<trkpt lat="-27.274439" lon="151.290064">
  <ele>343.1</ele>
  <time>2026-09-01T19:54:44Z</time>
  <course>187.44</course>
  <speed>0.0</speed>
  <fix>3d</fix>
</trkpt>
<trkpt lat="-27.274439" lon="151.290064">
  <ele>343.12</ele>
  <time>2026-09-01T19:54:44Z</time>
  <course>10.7</course>
  <speed>0.0</speed>
  <fix>3d</fix>
</trkpt>
<trkpt lat="-27.274439" lon="151.290064">
  <ele>343.1</ele>
  <time>2026-09-01T19:54:44Z</time>
  <course>187.44</course>
  <speed>0.0</speed>
  <fix>3d</fix>
</trkpt>
<trkpt lat="-27.274439" lon="151.290064">
  <ele>343.12</ele>
  <time>2026-09-01T19:54:44Z</time>
  <course>10.7</course>
  <speed>0.0</speed>
  <fix>3d</fix>
</trkpt>
<trkpt lat="-27.274439" lon="151.290064">
  <ele>343.1</ele>
  <time>2026-09-01T19:54:44Z</time>
  <course>9.52</course>
  <speed>0.0</speed>
  <fix>3d</fix>
</trkpt>
<trkpt lat="-27.274439" lon="151.290064">
  <ele>343.12</ele>
  <time>2026-09-01T19:54:44Z</time>
  <course>10.7</course>
  <speed>0.0</speed>
  <fix>3d</fix>
</trkpt>
<trkpt lat="-27.274439" lon="151.290064">
  <ele>343.1</ele>
  <time>2026-09-01T19:54:44Z</time>
  <course>9.52</course>
  <speed>0.0</speed>
  <fix>3d</fix>
</trkpt>
<trkpt lat="-27.274439" lon="151.290064">
  <ele>343.12</ele>
  <time>2026-09-01T19:54:44Z</time>
  <course>10.7</course>
  <speed>0.0</speed>
  <fix>3d</fix>
</trkpt>
<trkpt lat="-27.274439" lon="151.290064">
  <ele>343.1</ele>
  <time>2026-09-01T19:54:44Z</time>
  <course>6.98</course>
  <speed>0.0</speed>
  <fix>3d</fix>
</trkpt>
<trkpt lat="-27.274439" lon="151.290064">
  <ele>343.12</ele>
  <time>2026-09-01T19:54:44Z</time>
  <course>10.7</course>
  <speed>0.0</speed>
  <fix>3d</fix>
</trkpt>
<trkpt lat="-27.274439" lon="151.290064">
  <ele>343.1</ele>
  <time>2026-09-01T19:54:44Z</time>
  <course>6.98</course>
  <speed>0.0</speed>
  <fix>3d</fix>
</trkpt>
<trkpt lat="-27.274439" lon="151.290064">
  <ele>343.12</ele>
  <time>2026-09-01T19:54:44Z</time>
  <course>10.7</course>
  <speed>0.0</speed>
  <fix>3d</fix>
</trkpt>
<trkpt lat="-27.274439" lon="151.290064">
  <ele>343.1</ele>
  <time>2026-09-01T19:54:44Z</time>
  <course>191.74</course>
  <speed>0.0</speed>
  <fix>3d</fix>
</trkpt>
<trkpt lat="-27.274439" lon="151.290064">
  <ele>343.13</ele>
  <time>2026-09-01T19:54:44Z</time>
  <course>10.7</course>
  <speed>0.0</speed>
  <fix>3d</fix>
</trkpt>
<trkpt lat="-27.274439" lon="151.290064">
  <ele>343.1</ele>
  <time>2026-09-01T19:54:44Z</time>
  <course>191.74</course>
  <speed>0.0</speed>
  <fix>3d</fix>
</trkpt>
<trkpt lat="-27.274439" lon="151.290064">
  <ele>343.13</ele>
  <time>2026-09-01T19:54:44Z</time>
  <course>10.7</course>
  <speed>0.0</speed>
  <fix>3d</fix>
</trkpt>
<trkpt lat="-27.274439" lon="151.290064">
  <ele>343.1</ele>
  <time>2026-09-01T19:54:44Z</time>
  <course>172.8</course>
  <speed>0.0</speed>
  <fix>3d</fix>
</trkpt>
<trkpt lat="-27.274439" lon="151.290064">
  <ele>343.12</ele>
  <time>2026-09-01T19:54:44Z</time>
  <course>10.7</course>
  <speed>0.0</speed>
  <fix>3d</fix>
</trkpt>
<trkpt lat="-27.274439" lon="151.290064">
  <ele>343.1</ele>
  <time>2026-09-01T19:54:44Z</time>
  <course>172.8</course>
  <speed>0.0</speed>
  <fix>3d</fix>
</trkpt>
<trkpt lat="-27.274439" lon="151.290064">
  <ele>343.12</ele>
  <time>2026-09-01T19:54:44Z</time>
  <course>10.7</course>
  <speed>0.0</speed>
  <fix>3d</fix>
</trkpt>
<trkpt lat="-27.274439" lon="151.290064">
  <ele>343.1</ele>
  <time>2026-09-01T19:54:44Z</time>
  <course>0.39</course>
  <speed>0.0</speed>
  <fix>3d</fix>
</trkpt>
<trkpt lat="-27.274439" lon="151.290064">
  <ele>343.12</ele>
  <time>2026-09-01T19:54:44Z</time>
  <course>10.7</course>
  <speed>0.0</speed>
  <fix>3d</fix>
</trkpt>
<trkpt lat="-27.274439" lon="151.290064">
  <ele>343.1</ele>
  <time>2026-09-01T19:54:44Z</time>
  <course>0.39</course>
  <speed>0.0</speed>
  <fix>3d</fix>
</trkpt>
<trkpt lat="-27.274439" lon="151.290064">
  <ele>343.12</ele>
  <time>2026-09-01T19:54:44Z</time>
  <course>10.7</course>
  <speed>0.0</speed>
  <fix>3d</fix>
</trkpt>
<trkpt lat="-27.274439" lon="151.290064">
  <ele>343.1</ele>
  <time>2026-09-01T19:54:44Z</time>
  <course>356.88</course>
  <speed>0.0</speed>
  <fix>3d</fix>
</trkpt>
<trkpt lat="-27.274439" lon="151.290064">
  <ele>343.12</ele>
  <time>2026-09-01T19:54:44Z</time>
  <course>10.7</course>
  <speed>0.0</speed>
  <fix>3d</fix>
</trkpt>
<trkpt lat="-27.274439" lon="151.290064">
  <ele>343.1</ele>
  <time>2026-09-01T19:54:44Z</time>
  <course>356.88</course>
  <speed>0.0</speed>
  <fix>3d</fix>
</trkpt>
<trkpt lat="-27.274439" lon="151.290064">
  <ele>343.12</ele>
  <time>2026-09-01T19:54:44Z</time>
  <course>10.7</course>
  <speed>0.0</speed>
  <fix>3d</fix>
</trkpt>
<trkpt lat="-27.274439" lon="151.290064">
  <ele>343.1</ele>
  <time>2026-09-01T19:54:44Z</time>
  <course>15.52</course>
  <speed>0.0</speed>
  <fix>3d</fix>
</trkpt>
<trkpt lat="-27.274439" lon="151.290064">
  <ele>343.11</ele>
  <time>2026-09-01T19:54:44Z</time>
  <course>10.7</course>
  <speed>0.0</speed>
  <fix>3d</fix>
</trkpt>
<trkpt lat="-27.274439" lon="151.290064">
  <ele>343.1</ele>
  <time>2026-09-01T19:54:44Z</time>
  <course>15.52</course>
  <speed>0.0</speed>
  <fix>3d</fix>
</trkpt>
<trkpt lat="-27.274439" lon="151.290064">
  <ele>343.11</ele>
  <time>2026-09-01T19:54:44Z</time>
  <course>10.69</course>
  <speed>0.0</speed>
  <fix>3d</fix>
</trkpt>
<trkpt lat="-27.274439" lon="151.290064">
  <ele>343.1</ele>
  <time>2026-09-01T19:54:44Z</time>
  <course>352.82</course>
  <speed>0.0</speed>
  <fix>3d</fix>
</trkpt>
<trkpt lat="-27.274439" lon="151.290064">
  <ele>343.11</ele>
  <time>2026-09-01T19:54:44Z</time>
  <course>10.69</course>
  <speed>0.0</speed>
  <fix>3d</fix>
</trkpt>
<trkpt lat="-27.274439" lon="151.290064">
  <ele>343.1</ele>
  <time>2026-09-01T19:54:44Z</time>
  <course>352.82</course>
  <speed>0.0</speed>
  <fix>3d</fix>
</trkpt>
<trkpt lat="-27.274439" lon="151.290064">
  <ele>343.11</ele>
  <time>2026-09-01T19:54:44Z</time>
  <course>10.69</course>
  <speed>0.0</speed>
  <fix>3d</fix>
</trkpt>
<trkpt lat="-27.274439" lon="151.290064">
  <ele>343.1</ele>
  <time>2026-09-01T19:54:44Z</time>
  <course>357.05</course>
  <speed>0.0</speed>
  <fix>3d</fix>
</trkpt>
<trkpt lat="-27.274439" lon="151.290064">
  <ele>343.11</ele>
  <time>2026-09-01T19:54:44Z</time>
  <course>10.69</course>
  <speed>0.0</speed>
  <fix>3d</fix>
</trkpt>
<trkpt lat="-27.274439" lon="151.290064">
  <ele>343.1</ele>
  <time>2026-09-01T19:54:44Z</time>
  <course>357.05</course>
  <speed>0.0</speed>
  <fix>3d</fix>
</trkpt>
<trkpt lat="-27.274439" lon="151.290064">
  <ele>343.11</ele>
  <time>2026-09-01T19:54:44Z</time>
  <course>10.69</course>
  <speed>0.0</speed>
  <fix>3d</fix>
</trkpt>
<trkpt lat="-27.274439" lon="151.290064">
  <ele>343.1</ele>
  <time>2026-09-01T19:54:44Z</time>
  <course>7.05</course>
  <speed>0.0</speed>
  <fix>3d</fix>
</trkpt>
<trkpt lat="-27.274439" lon="151.290064">
  <ele>343.12</ele>
  <time>2026-09-01T19:54:44Z</time>
  <course>10.69</course>
  <speed>0.0</speed>
  <fix>3d</fix>
</trkpt>
<trkpt lat="-27.274439" lon="151.290064">
  <ele>343.1</ele>
  <time>2026-09-01T19:54:44Z</time>
  <course>7.05</course>
  <speed>0.0</speed>
  <fix>3d</fix>
</trkpt>
<trkpt lat="-27.274439" lon="151.290064">
  <ele>343.12</ele>
  <time>2026-09-01T19:54:44Z</time>
  <course>10.69</course>
  <speed>0.0</speed>
  <fix>3d</fix>
</trkpt>
<trkpt lat="-27.274439" lon="151.290064">
  <ele>343.1</ele>
  <time>2026-09-01T19:54:44Z</time>
  <course>0.15</course>
  <speed>0.0</speed>
  <fix>3d</fix>
</trkpt>
<trkpt lat="-27.274439" lon="151.290064">
  <ele>343.12</ele>
  <time>2026-09-01T19:54:44Z</time>
  <course>10.69</course>
  <speed>0.0</speed>
  <fix>3d</fix>
</trkpt>
<trkpt lat="-27.274439" lon="151.290064">
  <ele>343.1</ele>
  <time>2026-09-01T19:54:44Z</time>
  <course>0.15</course>
  <speed>0.0</speed>
  <fix>3d</fix>
</trkpt>
<trkpt lat="-27.274439" lon="151.290064">
  <ele>343.12</ele>
  <time>2026-09-01T19:54:44Z</time>
  <course>10.69</course>
  <speed>0.0</speed>
  <fix>3d</fix>
</trkpt>
<trkpt lat="-27.274439" lon="151.290064">
  <ele>343.1</ele>
  <time>2026-09-01T19:54:44Z</time>
  <course>2.99</course>
  <speed>0.0</speed>
  <fix>3d</fix>
</trkpt>
<trkpt lat="-27.274439" lon="151.290064">
  <ele>343.12</ele>
  <time>2026-09-01T19:54:44Z</time>
  <course>10.69</course>
  <speed>0.0</speed>
  <fix>3d</fix>
</trkpt>
<trkpt lat="-27.274439" lon="151.290064">
  <ele>343.1</ele>
  <time>2026-09-01T19:54:44Z</time>
  <course>2.99</course>
  <speed>0.0</speed>
  <fix>3d</fix>
</trkpt>
<trkpt lat="-27.274439" lon="151.290064">
  <ele>343.12</ele>
  <time>2026-09-01T19:54:44Z</time>
  <course>10.69</course>
  <speed>0.0</speed>
  <fix>3d</fix>
</trkpt>
<trkpt lat="-27.274439" lon="151.290064">
  <ele>343.1</ele>
  <time>2026-09-01T19:54:44Z</time>
  <course>14.72</course>
  <speed>0.0</speed>
  <fix>3d</fix>
</trkpt>
<trkpt lat="-27.274439" lon="151.290064">
  <ele>343.12</ele>
  <time>2026-09-01T19:54:44Z</time>
  <course>10.69</course>
  <speed>0.0</speed>
  <fix>3d</fix>
</trkpt>
<trkpt lat="-27.274439" lon="151.290064">
  <ele>343.1</ele>
  <time>2026-09-01T19:54:44Z</time>
  <course>14.72</course>
  <speed>0.0</speed>
  <fix>3d</fix>
</trkpt>
<trkpt lat="-27.274439" lon="151.290064">
  <ele>343.12</ele>
  <time>2026-09-01T19:54:44Z</time>
  <course>10.69</course>
  <speed>0.0</speed>
  <fix>3d</fix>
</trkpt>
<trkpt lat="-27.274439" lon="151.290064">
  <ele>343.1</ele>
  <time>2026-09-01T19:54:44Z</time>
  <course>25.08</course>
  <speed>0.0</speed>
  <fix>3d</fix>
</trkpt>
<trkpt lat="-27.274439" lon="151.290064">
  <ele>343.12</ele>
  <time>2026-09-01T19:54:44Z</time>
  <course>10.69</course>
  <speed>0.0</speed>
  <fix>3d</fix>
</trkpt>
<trkpt lat="-27.274439" lon="151.290064">
  <ele>343.1</ele>
  <time>2026-09-01T19:54:44Z</time>
  <course>25.08</course>
  <speed>0.0</speed>
  <fix>3d</fix>
</trkpt>
<trkpt lat="-27.274439" lon="151.290064">
  <ele>343.12</ele>
  <time>2026-09-01T19:54:44Z</time>
  <course>10.69</course>
  <speed>0.0</speed>
  <fix>3d</fix>
</trkpt>
<trkpt lat="-27.274439" lon="151.290064">
  <ele>343.1</ele>
  <time>2026-09-01T19:54:44Z</time>
  <course>21.26</course>
  <speed>0.0</speed>
  <fix>3d</fix>
</trkpt>
<trkpt lat="-27.274439" lon="151.290064">
  <ele>343.12</ele>
  <time>2026-09-01T19:54:44Z</time>
  <course>10.69</course>
  <speed>0.0</speed>
  <fix>3d</fix>
</trkpt>
<trkpt lat="-27.274439" lon="151.290064">
  <ele>343.1</ele>
  <time>2026-09-01T19:54:44Z</time>
  <course>21.26</course>
  <speed>0.0</speed>
  <fix>3d</fix>
</trkpt>
<trkpt lat="-27.274439" lon="151.290064">
  <ele>343.12</ele>
  <time>2026-09-01T19:54:44Z</time>
  <course>10.69</course>
  <speed>0.0</speed>
  <fix>3d</fix>
</trkpt>
<trkpt lat="-27.274439" lon="151.290064">
  <ele>343.1</ele>
  <time>2026-09-01T19:54:44Z</time>
  <course>2.58</course>
  <speed>0.0</speed>
  <fix>3d</fix>
</trkpt>
<trkpt lat="-27.274439" lon="151.290064">
  <ele>343.12</ele>
  <time>2026-09-01T19:54:44Z</time>
  <course>10.69</course>
  <speed>0.0</speed>
  <fix>3d</fix>
</trkpt>
<trkpt lat="-27.274439" lon="151.290064">
  <ele>343.1</ele>
  <time>2026-09-01T19:54:44Z</time>
  <course>2.58</course>
  <speed>0.0</speed>
  <fix>3d</fix>
</trkpt>
<trkpt lat="-27.274439" lon="151.290064">
  <ele>343.12</ele>
  <time>2026-09-01T19:54:44Z</time>
  <course>10.69</course>
  <speed>0.0</speed>
  <fix>3d</fix>
</trkpt>
<trkpt lat="-27.274439" lon="151.290064">
  <ele>343.1</ele>
  <time>2026-09-01T19:54:44Z</time>
  <course>11.6</course>
  <speed>0.0</speed>
  <fix>3d</fix>
</trkpt>
<trkpt lat="-27.274439" lon="151.290064">
  <ele>343.12</ele>
  <time>2026-09-01T19:54:44Z</time>
  <course>10.69</course>
  <speed>0.0</speed>
  <fix>3d</fix>
</trkpt>
<trkpt lat="-27.274439" lon="151.290064">
  <ele>343.1</ele>
  <time>2026-09-01T19:54:44Z</time>
  <course>11.6</course>
  <speed>0.0</speed>
  <fix>3d</fix>
</trkpt>
<trkpt lat="-27.274439" lon="151.290064">
  <ele>343.12</ele>
  <time>2026-09-01T19:54:44Z</time>
  <course>10.69</course>
  <speed>0.0</speed>
  <fix>3d</fix>
</trkpt>
<trkpt lat="-27.274439" lon="151.290064">
  <ele>343.1</ele>
  <time>2026-09-01T19:54:44Z</time>
  <course>14.16</course>
  <speed>0.0</speed>
  <fix>3d</fix>
</trkpt>
<trkpt lat="-27.274439" lon="151.290064">
  <ele>343.12</ele>
  <time>2026-09-01T19:54:44Z</time>
  <course>10.69</course>
  <speed>0.0</speed>
  <fix>3d</fix>
</trkpt>
<trkpt lat="-27.274439" lon="151.290064">
  <ele>343.1</ele>
  <time>2026-09-01T19:54:44Z</time>
  <course>14.16</course>
  <speed>0.0</speed>
  <fix>3d</fix>
</trkpt>
<trkpt lat="-27.274439" lon="151.290064">
  <ele>343.12</ele>
  <time>2026-09-01T19:54:44Z</time>
  <course>10.69</course>
  <speed>0.0</speed>
  <fix>3d</fix>
</trkpt>
<trkpt lat="-27.274439" lon="151.290064">
  <ele>343.1</ele>
  <time>2026-09-01T19:54:44Z</time>
  <course>3.08</course>
  <speed>0.0</speed>
  <fix>3d</fix>
</trkpt>
<trkpt lat="-27.274439" lon="151.290064">
  <ele>343.12</ele>
  <time>2026-09-01T19:54:44Z</time>
  <course>10.69</course>
  <speed>0.0</speed>
  <fix>3d</fix>
</trkpt>
<trkpt lat="-27.274439" lon="151.290064">
  <ele>343.1</ele>
  <time>2026-09-01T19:54:44Z</time>
  <course>3.08</course>
  <speed>0.0</speed>
  <fix>3d</fix>
</trkpt>
<trkpt lat="-27.274439" lon="151.290064">
  <ele>343.12</ele>
  <time>2026-09-01T19:54:44Z</time>
  <course>10.7</course>
  <speed>0.0</speed>
  <fix>3d</fix>
</trkpt>
<trkpt lat="-27.274439" lon="151.290064">
  <ele>343.1</ele>
  <time>2026-09-01T19:54:44Z</time>
  <course>12.04</course>
  <speed>0.0</speed>
  <fix>3d</fix>
</trkpt>
<trkpt lat="-27.274439" lon="151.290064">
  <ele>343.12</ele>
  <time>2026-09-01T19:54:44Z</time>
  <course>10.7</course>
  <speed>0.0</speed>
  <fix>3d</fix>
</trkpt>
<trkpt lat="-27.274439" lon="151.290064">
  <ele>343.1</ele>
  <time>2026-09-01T19:54:44Z</time>
  <course>12.04</course>
  <speed>0.0</speed>
  <fix>3d</fix>
</trkpt>
<trkpt lat="-27.274439" lon="151.290064">
  <ele>343.12</ele>
  <time>2026-09-01T19:54:44Z</time>
  <course>10.7</course>
  <speed>0.0</speed>
  <fix>3d</fix>
</trkpt>
<trkpt lat="-27.274439" lon="151.290064">
  <ele>343.1</ele>
  <time>2026-09-01T19:54:44Z</time>
  <course>8.8</course>
  <speed>0.0</speed>
  <fix>3d</fix>
</trkpt>
<trkpt lat="-27.274439" lon="151.290064">
  <ele>343.12</ele>
  <time>2026-09-01T19:54:44Z</time>
  <course>10.7</course>
  <speed>0.0</speed>
  <fix>3d</fix>
</trkpt>
<trkpt lat="-27.274439" lon="151.290064">
  <ele>343.1</ele>
  <time>2026-09-01T19:54:44Z</time>
  <course>8.8</course>
  <speed>0.0</speed>
  <fix>3d</fix>
</trkpt>
<trkpt lat="-27.274439" lon="151.290064">
  <ele>343.12</ele>
  <time>2026-09-01T19:54:44Z</time>
  <course>10.7</course>
  <speed>0.0</speed>
  <fix>3d</fix>
</trkpt>
<trkpt lat="-27.274439" lon="151.290064">
  <ele>343.1</ele>
  <time>2026-09-01T19:54:44Z</time>
  <course>355.84</course>
  <speed>0.0</speed>
  <fix>3d</fix>
</trkpt>
<trkpt lat="-27.274439" lon="151.290064">
  <ele>343.12</ele>
  <time>2026-09-01T19:54:44Z</time>
  <course>10.7</course>
  <speed>0.0</speed>
  <fix>3d</fix>
</trkpt>
<trkpt lat="-27.274439" lon="151.290064">
  <ele>343.1</ele>
  <time>2026-09-01T19:54:44Z</time>
  <course>355.84</course>
  <speed>0.0</speed>
  <fix>3d</fix>
</trkpt>
<trkpt lat="-27.274439" lon="151.290064">
  <ele>343.12</ele>
  <time>2026-09-01T19:54:44Z</time>
  <course>10.7</course>
  <speed>0.0</speed>
  <fix>3d</fix>
</trkpt>
<trkpt lat="-27.274439" lon="151.290064">
  <ele>343.1</ele>
  <time>2026-09-01T19:54:44Z</time>
  <course>352.73</course>
  <speed>0.0</speed>
  <fix>3d</fix>
</trkpt>
<trkpt lat="-27.274439" lon="151.290064">
  <ele>343.12</ele>
  <time>2026-09-01T19:54:44Z</time>
  <course>10.7</course>
  <speed>0.0</speed>
  <fix>3d</fix>
</trkpt>
<trkpt lat="-27.274439" lon="151.290064">
  <ele>343.1</ele>
  <time>2026-09-01T19:54:44Z</time>
  <course>352.73</course>
  <speed>0.0</speed>
  <fix>3d</fix>
</trkpt>
<trkpt lat="-27.274439" lon="151.290064">
  <ele>343.12</ele>
  <time>2026-09-01T19:54:44Z</time>
  <course>10.7</course>
  <speed>0.0</speed>
  <fix>3d</fix>
</trkpt>
<trkpt lat="-27.274439" lon="151.290064">
  <ele>343.1</ele>
  <time>2026-09-01T19:54:44Z</time>
  <course>4.71</course>
  <speed>0.0</speed>
  <fix>3d</fix>
</trkpt>
<trkpt lat="-27.274439" lon="151.290064">
  <ele>343.12</ele>
  <time>2026-09-01T19:54:44Z</time>
  <course>10.7</course>
  <speed>0.0</speed>
  <fix>3d</fix>
</trkpt>
<trkpt lat="-27.274439" lon="151.290064">
  <ele>343.1</ele>
  <time>2026-09-01T19:54:44Z</time>
  <course>4.71</course>
  <speed>0.0</speed>
  <fix>3d</fix>
</trkpt>
<trkpt lat="-27.274439" lon="151.290064">
  <ele>343.12</ele>
  <time>2026-09-01T19:54:44Z</time>
  <course>10.7</course>
  <speed>0.0</speed>
  <fix>3d</fix>
</trkpt>
<trkpt lat="-27.274439" lon="151.290064">
  <ele>343.1</ele>
  <time>2026-09-01T19:54:44Z</time>
  <course>8.23</course>
  <speed>0.0</speed>
  <fix>3d</fix>
</trkpt>
<trkpt lat="-27.274439" lon="151.290064">
  <ele>343.12</ele>
  <time>2026-09-01T19:54:44Z</time>
  <course>10.7</course>
  <speed>0.0</speed>
  <fix>3d</fix>
</trkpt>
<trkpt lat="-27.274439" lon="151.290064">
  <ele>343.1</ele>
  <time>2026-09-01T19:54:44Z</time>
  <course>8.23</course>
  <speed>0.0</speed>
  <fix>3d</fix>
</trkpt>
<trkpt lat="-27.274439" lon="151.290064">
  <ele>343.12</ele>
  <time>2026-09-01T19:54:44Z</time>
  <course>10.7</course>
  <speed>0.0</speed>
  <fix>3d</fix>
</trkpt>
<trkpt lat="-27.274439" lon="151.290064">
  <ele>343.1</ele>
  <time>2026-09-01T19:54:44Z</time>
  <course>20.06</course>
  <speed>0.0</speed>
  <fix>3d</fix>
</trkpt>
<trkpt lat="-27.274439" lon="151.290064">
  <ele>343.12</ele>
  <time>2026-09-01T19:54:44Z</time>
  <course>10.7</course>
  <speed>0.0</speed>
  <fix>3d</fix>
</trkpt>
<trkpt lat="-27.274439" lon="151.290064">
  <ele>343.1</ele>
  <time>2026-09-01T19:54:44Z</time>
  <course>20.06</course>
  <speed>0.0</speed>
  <fix>3d</fix>
</trkpt>
<trkpt lat="-27.274439" lon="151.290064">
  <ele>343.12</ele>
  <time>2026-09-01T19:54:44Z</time>
  <course>10.7</course>
  <speed>0.0</speed>
  <fix>3d</fix>
</trkpt>
<trkpt lat="-27.274439" lon="151.290064">
  <ele>343.1</ele>
  <time>2026-09-01T19:54:44Z</time>
  <course>24.17</course>
  <speed>0.0</speed>
  <fix>3d</fix>
</trkpt>
<trkpt lat="-27.274439" lon="151.290064">
  <ele>343.12</ele>
  <time>2026-09-01T19:54:44Z</time>
  <course>10.7</course>
  <speed>0.0</speed>
  <fix>3d</fix>
</trkpt>
<trkpt lat="-27.274439" lon="151.290064">
  <ele>343.1</ele>
  <time>2026-09-01T19:54:44Z</time>
  <course>24.17</course>
  <speed>0.0</speed>
  <fix>3d</fix>
</trkpt>
<trkpt lat="-27.274439" lon="151.290064">
  <ele>343.12</ele>
  <time>2026-09-01T19:54:44Z</time>
  <course>10.71</course>
  <speed>0.0</speed>
  <fix>3d</fix>
</trkpt>
<trkpt lat="-27.274439" lon="151.290064">
  <ele>343.1</ele>
  <time>2026-09-01T19:54:44Z</time>
  <course>26.06</course>
  <speed>0.0</speed>
  <fix>3d</fix>
</trkpt>
<trkpt lat="-27.274439" lon="151.290064">
  <ele>343.12</ele>
  <time>2026-09-01T19:54:44Z</time>
  <course>10.71</course>
  <speed>0.0</speed>
  <fix>3d</fix>
</trkpt>
<trkpt lat="-27.274439" lon="151.290064">
  <ele>343.1</ele>
  <time>2026-09-01T19:54:44Z</time>
  <course>26.06</course>
  <speed>0.0</speed>
  <fix>3d</fix>
</trkpt>
<trkpt lat="-27.274439" lon="151.290064">
  <ele>343.12</ele>
  <time>2026-09-01T19:54:44Z</time>
  <course>10.71</course>
  <speed>0.0</speed>
  <fix>3d</fix>
</trkpt>
<trkpt lat="-27.274439" lon="151.290064">
  <ele>343.1</ele>
  <time>2026-09-01T19:54:44Z</time>
  <course>5.13</course>
  <speed>0.0</speed>
  <fix>3d</fix>
</trkpt>
<trkpt lat="-27.274439" lon="151.290064">
  <ele>343.12</ele>
  <time>2026-09-01T19:54:44Z</time>
  <course>10.71</course>
  <speed>0.0</speed>
  <fix>3d</fix>
</trkpt>
<trkpt lat="-27.274439" lon="151.290064">
  <ele>343.1</ele>
  <time>2026-09-01T19:54:44Z</time>
  <course>5.13</course>
  <speed>0.0</speed>
  <fix>3d</fix>
</trkpt>
<trkpt lat="-27.274439" lon="151.290064">
  <ele>343.12</ele>
  <time>2026-09-01T19:54:44Z</time>
  <course>10.71</course>
  <speed>0.0</speed>
  <fix>3d</fix>
</trkpt>
<trkpt lat="-27.274439" lon="151.290064">
  <ele>343.1</ele>
  <time>2026-09-01T19:54:44Z</time>
  <course>13.99</course>
  <speed>0.0</speed>
  <fix>3d</fix>
</trkpt>
<trkpt lat="-27.274439" lon="151.290064">
  <ele>343.12</ele>
  <time>2026-09-01T19:54:44Z</time>
  <course>10.71</course>
  <speed>0.0</speed>
  <fix>3d</fix>
</trkpt>
<trkpt lat="-27.274439" lon="151.290064">
  <ele>343.1</ele>
  <time>2026-09-01T19:54:44Z</time>
  <course>13.99</course>
  <speed>0.0</speed>
  <fix>3d</fix>
</trkpt>
<trkpt lat="-27.274439" lon="151.290064">
  <ele>343.12</ele>
  <time>2026-09-01T19:54:44Z</time>
  <course>10.71</course>
  <speed>0.0</speed>
  <fix>3d</fix>
</trkpt>
<trkpt lat="-27.274439" lon="151.290064">
  <ele>343.1</ele>
  <time>2026-09-01T19:54:44Z</time>
  <course>355.49</course>
  <speed>0.0</speed>
  <fix>3d</fix>
</trkpt>
<trkpt lat="-27.274439" lon="151.290064">
  <ele>343.12</ele>
  <time>2026-09-01T19:54:44Z</time>
  <course>10.71</course>
  <speed>0.0</speed>
  <fix>3d</fix>
</trkpt>
<trkpt lat="-27.274439" lon="151.290064">
  <ele>343.1</ele>
  <time>2026-09-01T19:54:44Z</time>
  <course>355.49</course>
  <speed>0.0</speed>
  <fix>3d</fix>
</trkpt>
<trkpt lat="-27.274439" lon="151.290064">
  <ele>343.12</ele>
  <time>2026-09-01T19:54:44Z</time>
  <course>10.71</course>
  <speed>0.0</speed>
  <fix>3d</fix>
</trkpt>
<trkpt lat="-27.274439" lon="151.290064">
  <ele>343.1</ele>
  <time>2026-09-01T19:54:44Z</time>
  <course>353.83</course>
  <speed>0.0</speed>
  <fix>3d</fix>
</trkpt>
<trkpt lat="-27.274439" lon="151.290064">
  <ele>343.12</ele>
  <time>2026-09-01T19:54:44Z</time>
  <course>10.71</course>
  <speed>0.0</speed>
  <fix>3d</fix>
</trkpt>
<trkpt lat="-27.274439" lon="151.290064">
  <ele>343.1</ele>
  <time>2026-09-01T19:54:44Z</time>
  <course>353.83</course>
  <speed>0.0</speed>
  <fix>3d</fix>
</trkpt>
<trkpt lat="-27.274439" lon="151.290064">
  <ele>343.12</ele>
  <time>2026-09-01T19:54:44Z</time>
  <course>10.72</course>
  <speed>0.0</speed>
  <fix>3d</fix>
</trkpt>
<trkpt lat="-27.274439" lon="151.290064">
  <ele>343.1</ele>
  <time>2026-09-01T19:54:44Z</time>
  <course>32.92</course>
  <speed>0.0</speed>
  <fix>3d</fix>
</trkpt>
<trkpt lat="-27.274439" lon="151.290064">
  <ele>343.12</ele>
  <time>2026-09-01T19:54:44Z</time>
  <course>10.72</course>
  <speed>0.0</speed>
  <fix>3d</fix>
</trkpt>
<trkpt lat="-27.274439" lon="151.290064">
  <ele>343.1</ele>
  <time>2026-09-01T19:54:44Z</time>
  <course>32.92</course>
  <speed>0.0</speed>
  <fix>3d</fix>
</trkpt>
<trkpt lat="-27.274439" lon="151.290064">
  <ele>343.12</ele>
  <time>2026-09-01T19:54:44Z</time>
  <course>10.72</course>
  <speed>0.0</speed>
  <fix>3d</fix>
</trkpt>
<trkpt lat="-27.274439" lon="151.290064">
  <ele>343.1</ele>
  <time>2026-09-01T19:54:44Z</time>
  <course>14.87</course>
  <speed>0.0</speed>
  <fix>3d</fix>
</trkpt>
<trkpt lat="-27.274439" lon="151.290064">
  <ele>343.12</ele>
  <time>2026-09-01T19:54:44Z</time>
  <course>10.72</course>
  <speed>0.0</speed>
  <fix>3d</fix>
</trkpt>
<trkpt lat="-27.274439" lon="151.290064">
  <ele>343.1</ele>
  <time>2026-09-01T19:54:44Z</time>
  <course>14.87</course>
  <speed>0.0</speed>
  <fix>3d</fix>
</trkpt>
<trkpt lat="-27.274439" lon="151.290064">
  <ele>343.11</ele>
  <time>2026-09-01T19:54:44Z</time>
  <course>10.72</course>
  <speed>0.0</speed>
  <fix>3d</fix>
</trkpt>
<trkpt lat="-27.274439" lon="151.290064">
  <ele>343.1</ele>
  <time>2026-09-01T19:54:44Z</time>
  <course>10.03</course>
  <speed>0.0</speed>
  <fix>3d</fix>
</trkpt>
<trkpt lat="-27.274439" lon="151.290064">
  <ele>343.11</ele>
  <time>2026-09-01T19:54:44Z</time>
  <course>10.72</course>
  <speed>0.0</speed>
  <fix>3d</fix>
</trkpt>
<trkpt lat="-27.274439" lon="151.290064">
  <ele>343.1</ele>
  <time>2026-09-01T19:54:44Z</time>
  <course>10.03</course>
  <speed>0.0</speed>
  <fix>3d</fix>
</trkpt>
<trkpt lat="-27.274439" lon="151.290064">
  <ele>343.11</ele>
  <time>2026-09-01T19:54:44Z</time>
  <course>10.72</course>
  <speed>0.0</speed>
  <fix>3d</fix>
</trkpt>
<trkpt lat="-27.274439" lon="151.290064">
  <ele>343.1</ele>
  <time>2026-09-01T19:54:44Z</time>
  <course>354.49</course>
  <speed>0.0</speed>
  <fix>3d</fix>
</trkpt>
<trkpt lat="-27.274439" lon="151.290064">
  <ele>343.11</ele>
  <time>2026-09-01T19:54:44Z</time>
  <course>10.72</course>
  <speed>0.0</speed>
  <fix>3d</fix>
</trkpt>
<trkpt lat="-27.274439" lon="151.290064">
  <ele>343.1</ele>
  <time>2026-09-01T19:54:44Z</time>
  <course>354.49</course>
  <speed>0.0</speed>
  <fix>3d</fix>
</trkpt>
<trkpt lat="-27.274439" lon="151.290064">
  <ele>343.11</ele>
  <time>2026-09-01T19:54:44Z</time>
  <course>10.72</course>
  <speed>0.0</speed>
  <fix>3d</fix>
</trkpt>
<trkpt lat="-27.274439" lon="151.290064">
  <ele>343.1</ele>
  <time>2026-09-01T19:54:44Z</time>
  <course>333.7</course>
  <speed>0.0</speed>
  <fix>3d</fix>
</trkpt>
<trkpt lat="-27.274439" lon="151.290064">
  <ele>343.11</ele>
  <time>2026-09-01T19:54:44Z</time>
  <course>10.72</course>
  <speed>0.0</speed>
  <fix>3d</fix>
</trkpt>
<trkpt lat="-27.274439" lon="151.290064">
  <ele>343.1</ele>
  <time>2026-09-01T19:54:44Z</time>
  <course>333.7</course>
  <speed>0.0</speed>
  <fix>3d</fix>
</trkpt>
<trkpt lat="-27.274439" lon="151.290064">
  <ele>343.11</ele>
  <time>2026-09-01T19:54:44Z</time>
  <course>10.73</course>
  <speed>0.0</speed>
  <fix>3d</fix>
</trkpt>
<trkpt lat="-27.274439" lon="151.290064">
  <ele>343.1</ele>
  <time>2026-09-01T19:54:44Z</time>
  <course>5.9</course>
  <speed>0.0</speed>
  <fix>3d</fix>
</trkpt>
<trkpt lat="-27.274439" lon="151.290064">
  <ele>343.11</ele>
  <time>2026-09-01T19:54:44Z</time>
  <course>10.73</course>
  <speed>0.0</speed>
  <fix>3d</fix>
</trkpt>
<trkpt lat="-27.274439" lon="151.290064">
  <ele>343.1</ele>
  <time>2026-09-01T19:54:44Z</time>
  <course>5.9</course>
  <speed>0.0</speed>
  <fix>3d</fix>
</trkpt>
<trkpt lat="-27.274439" lon="151.290064">
  <ele>343.11</ele>
  <time>2026-09-01T19:54:44Z</time>
  <course>10.73</course>
  <speed>0.0</speed>
  <fix>3d</fix>
</trkpt>
<trkpt lat="-27.274439" lon="151.290064">
  <ele>343.1</ele>
  <time>2026-09-01T19:54:44Z</time>
  <course>22.15</course>
  <speed>0.0</speed>
  <fix>3d</fix>
</trkpt>
<trkpt lat="-27.274439" lon="151.290064">
  <ele>343.11</ele>
  <time>2026-09-01T19:54:44Z</time>
  <course>10.73</course>
  <speed>0.0</speed>
  <fix>3d</fix>
</trkpt>
<trkpt lat="-27.274439" lon="151.290064">
  <ele>343.1</ele>
  <time>2026-09-01T19:54:44Z</time>
  <course>22.15</course>
  <speed>0.0</speed>
  <fix>3d</fix>
</trkpt>
<trkpt lat="-27.274439" lon="151.290064">
  <ele>343.11</ele>
  <time>2026-09-01T19:54:44Z</time>
  <course>10.73</course>
  <speed>0.0</speed>
  <fix>3d</fix>
</trkpt>
<trkpt lat="-27.274439" lon="151.290064">
  <ele>343.1</ele>
  <time>2026-09-01T19:54:44Z</time>
  <course>1.49</course>
  <speed>0.0</speed>
  <fix>3d</fix>
</trkpt>
<trkpt lat="-27.274439" lon="151.290064">
  <ele>343.12</ele>
  <time>2026-09-01T19:54:44Z</time>
  <course>10.73</course>
  <speed>0.0</speed>
  <fix>3d</fix>
</trkpt>
<trkpt lat="-27.274439" lon="151.290064">
  <ele>343.1</ele>
  <time>2026-09-01T19:54:44Z</time>
  <course>1.49</course>
  <speed>0.0</speed>
  <fix>3d</fix>
</trkpt>
<trkpt lat="-27.274439" lon="151.290064">
  <ele>343.11</ele>
  <time>2026-09-01T19:54:44Z</time>
  <course>10.73</course>
  <speed>0.0</speed>
  <fix>3d</fix>
</trkpt>
<trkpt lat="-27.274439" lon="151.290064">
  <ele>343.1</ele>
  <time>2026-09-01T19:54:44Z</time>
  <course>358.89</course>
  <speed>0.0</speed>
  <fix>3d</fix>
</trkpt>
<trkpt lat="-27.274439" lon="151.290064">
  <ele>343.12</ele>
  <time>2026-09-01T19:54:44Z</time>
  <course>10.73</course>
  <speed>0.0</speed>
  <fix>3d</fix>
</trkpt>
<trkpt lat="-27.274439" lon="151.290064">
  <ele>343.1</ele>
  <time>2026-09-01T19:54:44Z</time>
  <course>358.89</course>
  <speed>0.0</speed>
  <fix>3d</fix>
</trkpt>
<trkpt lat="-27.274439" lon="151.290064">
  <ele>343.12</ele>
  <time>2026-09-01T19:54:44Z</time>
  <course>10.73</course>
  <speed>0.0</speed>
  <fix>3d</fix>
</trkpt>
<trkpt lat="-27.274439" lon="151.290064">
  <ele>343.1</ele>
  <time>2026-09-01T19:54:44Z</time>
  <course>0.11</course>
  <speed>0.0</speed>
  <fix>3d</fix>
</trkpt>
<trkpt lat="-27.274439" lon="151.290064">
  <ele>343.12</ele>
  <time>2026-09-01T19:54:44Z</time>
  <course>10.74</course>
  <speed>0.0</speed>
  <fix>3d</fix>
</trkpt>
<trkpt lat="-27.274439" lon="151.290064">
  <ele>343.1</ele>
  <time>2026-09-01T19:54:44Z</time>
  <course>0.11</course>
  <speed>0.0</speed>
  <fix>3d</fix>
</trkpt>
<trkpt lat="-27.274439" lon="151.290064">
  <ele>343.12</ele>
  <time>2026-09-01T19:54:44Z</time>
  <course>10.74</course>
  <speed>0.0</speed>
  <fix>3d</fix>
</trkpt>
<trkpt lat="-27.274439" lon="151.290064">
  <ele>343.1</ele>
  <time>2026-09-01T19:54:44Z</time>
  <course>358.09</course>
  <speed>0.0</speed>
  <fix>3d</fix>
</trkpt>
<trkpt lat="-27.274439" lon="151.290064">
  <ele>343.11</ele>
  <time>2026-09-01T19:54:44Z</time>
  <course>10.74</course>
  <speed>0.0</speed>
  <fix>3d</fix>
</trkpt>
<trkpt lat="-27.274439" lon="151.290064">
  <ele>343.1</ele>
  <time>2026-09-01T19:54:44Z</time>
  <course>358.09</course>
  <speed>0.0</speed>
  <fix>3d</fix>
</trkpt>
<trkpt lat="-27.274439" lon="151.290064">
  <ele>343.11</ele>
  <time>2026-09-01T19:54:44Z</time>
  <course>10.74</course>
  <speed>0.0</speed>
  <fix>3d</fix>
</trkpt>
<trkpt lat="-27.274439" lon="151.290064">
  <ele>343.1</ele>
  <time>2026-09-01T19:54:44Z</time>
  <course>7.3</course>
  <speed>0.0</speed>
  <fix>3d</fix>
</trkpt>
<trkpt lat="-27.274439" lon="151.290064">
  <ele>343.11</ele>
  <time>2026-09-01T19:54:44Z</time>
  <course>10.74</course>
  <speed>0.0</speed>
  <fix>3d</fix>
</trkpt>
<trkpt lat="-27.274439" lon="151.290064">
  <ele>343.1</ele>
  <time>2026-09-01T19:54:44Z</time>
  <course>7.3</course>
  <speed>0.0</speed>
  <fix>3d</fix>
</trkpt>
<trkpt lat="-27.274439" lon="151.290064">
  <ele>343.11</ele>
  <time>2026-09-01T19:54:44Z</time>
  <course>10.74</course>
  <speed>0.0</speed>
  <fix>3d</fix>
</trkpt>
<trkpt lat="-27.274439" lon="151.290064">
  <ele>343.1</ele>
  <time>2026-09-01T19:54:44Z</time>
  <course>27.83</course>
  <speed>0.0</speed>
  <fix>3d</fix>
</trkpt>
<trkpt lat="-27.274439" lon="151.290064">
  <ele>343.1</ele>
  <time>2026-09-01T19:54:44Z</time>
  <course>10.74</course>
  <speed>0.0</speed>
  <fix>3d</fix>
</trkpt>
<trkpt lat="-27.274439" lon="151.290064">
  <ele>343.1</ele>
  <time>2026-09-01T19:54:44Z</time>
  <course>27.83</course>
  <speed>0.0</speed>
  <fix>3d</fix>
</trkpt>
<trkpt lat="-27.274439" lon="151.290064">
  <ele>343.1</ele>
  <time>2026-09-01T19:54:44Z</time>
  <course>10.74</course>
  <speed>0.0</speed>
  <fix>3d</fix>
</trkpt>
<trkpt lat="-27.274439" lon="151.290064">
  <ele>343.1</ele>
  <time>2026-09-01T19:54:44Z</time>
  <course>16.8</course>
  <speed>0.0</speed>
  <fix>3d</fix>
</trkpt>
<trkpt lat="-27.274439" lon="151.290064">
  <ele>343.1</ele>
  <time>2026-09-01T19:54:44Z</time>
  <course>10.74</course>
  <speed>0.0</speed>
  <fix>3d</fix>
</trkpt>
<trkpt lat="-27.274439" lon="151.290064">
  <ele>343.1</ele>
  <time>2026-09-01T19:54:44Z</time>
  <course>16.8</course>
  <speed>0.0</speed>
  <fix>3d</fix>
</trkpt>
<trkpt lat="-27.274439" lon="151.290064">
  <ele>343.1</ele>
  <time>2026-09-01T19:54:44Z</time>
  <course>10.75</course>
  <speed>0.0</speed>
  <fix>3d</fix>
</trkpt>
<trkpt lat="-27.274439" lon="151.290064">
  <ele>343.1</ele>
  <time>2026-09-01T19:54:44Z</time>
  <course>6.45</course>
  <speed>0.0</speed>
  <fix>3d</fix>
</trkpt>
<trkpt lat="-27.274439" lon="151.290064">
  <ele>343.09</ele>
  <time>2026-09-01T19:54:44Z</time>
  <course>10.75</course>
  <speed>0.0</speed>
  <fix>3d</fix>
</trkpt>
<trkpt lat="-27.274439" lon="151.290064">
  <ele>343.1</ele>
  <time>2026-09-01T19:54:44Z</time>
  <course>6.45</course>
  <speed>0.0</speed>
  <fix>3d</fix>
</trkpt>
<trkpt lat="-27.274439" lon="151.290064">
  <ele>343.09</ele>
  <time>2026-09-01T19:54:44Z</time>
  <course>10.75</course>
  <speed>0.0</speed>
  <fix>3d</fix>
</trkpt>
<trkpt lat="-27.274439" lon="151.290064">
  <ele>343.1</ele>
  <time>2026-09-01T19:54:44Z</time>
  <course>8.1</course>
  <speed>0.0</speed>
  <fix>3d</fix>
</trkpt>
<trkpt lat="-27.274439" lon="151.290064">
  <ele>343.09</ele>
  <time>2026-09-01T19:54:44Z</time>
  <course>10.75</course>
  <speed>0.0</speed>
  <fix>3d</fix>
</trkpt>
<trkpt lat="-27.274439" lon="151.290064">
  <ele>343.1</ele>
  <time>2026-09-01T19:54:44Z</time>
  <course>8.1</course>
  <speed>0.0</speed>
  <fix>3d</fix>
</trkpt>
<trkpt lat="-27.274439" lon="151.290064">
  <ele>343.09</ele>
  <time>2026-09-01T19:54:44Z</time>
  <course>10.75</course>
  <speed>0.0</speed>
  <fix>3d</fix>
</trkpt>
<trkpt lat="-27.274439" lon="151.290064">
  <ele>343.1</ele>
  <time>2026-09-01T19:54:44Z</time>
  <course>20.17</course>
  <speed>0.0</speed>
  <fix>3d</fix>
</trkpt>
<trkpt lat="-27.274439" lon="151.290064">
  <ele>343.09</ele>
  <time>2026-09-01T19:54:44Z</time>
  <course>10.75</course>
  <speed>0.0</speed>
  <fix>3d</fix>
</trkpt>
<trkpt lat="-27.274439" lon="151.290064">
  <ele>343.1</ele>
  <time>2026-09-01T19:54:44Z</time>
  <course>20.17</course>
  <speed>0.0</speed>
  <fix>3d</fix>
</trkpt>
<trkpt lat="-27.274439" lon="151.290064">
  <ele>343.09</ele>
  <time>2026-09-01T19:54:44Z</time>
  <course>10.75</course>
  <speed>0.0</speed>
  <fix>3d</fix>
</trkpt>
<trkpt lat="-27.274439" lon="151.290064">
  <ele>343.1</ele>
  <time>2026-09-01T19:54:44Z</time>
  <course>33.56</course>
  <speed>0.0</speed>
  <fix>3d</fix>
</trkpt>
<trkpt lat="-27.274439" lon="151.290064">
  <ele>343.08</ele>
  <time>2026-09-01T19:54:44Z</time>
  <course>10.75</course>
  <speed>0.0</speed>
  <fix>3d</fix>
</trkpt>
<trkpt lat="-27.274439" lon="151.290064">
  <ele>343.1</ele>
  <time>2026-09-01T19:54:44Z</time>
  <course>33.56</course>
  <speed>0.0</speed>
  <fix>3d</fix>
</trkpt>
<trkpt lat="-27.274439" lon="151.290064">
  <ele>343.08</ele>
  <time>2026-09-01T19:54:44Z</time>
  <course>10.75</course>
  <speed>0.0</speed>
  <fix>3d</fix>
</trkpt>
<trkpt lat="-27.274439" lon="151.290064">
  <ele>343.1</ele>
  <time>2026-09-01T19:54:44Z</time>
  <course>18.08</course>
  <speed>0.0</speed>
  <fix>3d</fix>
</trkpt>
<trkpt lat="-27.274439" lon="151.290064">
  <ele>343.08</ele>
  <time>2026-09-01T19:54:44Z</time>
  <course>10.76</course>
  <speed>0.0</speed>
  <fix>3d</fix>
</trkpt>
<trkpt lat="-27.274439" lon="151.290064">
  <ele>343.1</ele>
  <time>2026-09-01T19:54:44Z</time>
  <course>18.08</course>
  <speed>0.0</speed>
  <fix>3d</fix>
</trkpt>
<trkpt lat="-27.274439" lon="151.290064">
  <ele>343.08</ele>
  <time>2026-09-01T19:54:44Z</time>
  <course>10.76</course>
  <speed>0.0</speed>
  <fix>3d</fix>
</trkpt>
<trkpt lat="-27.274439" lon="151.290064">
  <ele>343.1</ele>
  <time>2026-09-01T19:54:44Z</time>
  <course>6.74</course>
  <speed>0.0</speed>
  <fix>3d</fix>
</trkpt>
<trkpt lat="-27.274439" lon="151.290064">
  <ele>343.09</ele>
  <time>2026-09-01T19:54:44Z</time>
  <course>10.76</course>
  <speed>0.0</speed>
  <fix>3d</fix>
</trkpt>
<trkpt lat="-27.274439" lon="151.290064">
  <ele>343.1</ele>
  <time>2026-09-01T19:54:44Z</time>
  <course>6.74</course>
  <speed>0.0</speed>
  <fix>3d</fix>
</trkpt>
<trkpt lat="-27.274439" lon="151.290064">
  <ele>343.09</ele>
  <time>2026-09-01T19:54:44Z</time>
  <course>10.76</course>
  <speed>0.0</speed>
  <fix>3d</fix>
</trkpt>
<trkpt lat="-27.274439" lon="151.290064">
  <ele>343.1</ele>
  <time>2026-09-01T19:54:44Z</time>
  <course>342.0</course>
  <speed>0.0</speed>
  <fix>3d</fix>
</trkpt>
<trkpt lat="-27.274439" lon="151.290064">
  <ele>343.09</ele>
  <time>2026-09-01T19:54:44Z</time>
  <course>10.76</course>
  <speed>0.0</speed>
  <fix>3d</fix>
</trkpt>
<trkpt lat="-27.274439" lon="151.290064">
  <ele>343.1</ele>
  <time>2026-09-01T19:54:44Z</time>
  <course>342.0</course>
  <speed>0.0</speed>
  <fix>3d</fix>
</trkpt>
<trkpt lat="-27.274439" lon="151.290064">
  <ele>343.09</ele>
  <time>2026-09-01T19:54:44Z</time>
  <course>10.76</course>
  <speed>0.0</speed>
  <fix>3d</fix>
</trkpt>
<trkpt lat="-27.274439" lon="151.290064">
  <ele>343.1</ele>
  <time>2026-09-01T19:54:44Z</time>
  <course>357.48</course>
  <speed>0.0</speed>
  <fix>3d</fix>
</trkpt>
<trkpt lat="-27.274439" lon="151.290064">
  <ele>343.09</ele>
  <time>2026-09-01T19:54:44Z</time>
  <course>10.76</course>
  <speed>0.0</speed>
  <fix>3d</fix>
</trkpt>
<trkpt lat="-27.274439" lon="151.290064">
  <ele>343.1</ele>
  <time>2026-09-01T19:54:44Z</time>
  <course>357.48</course>
  <speed>0.0</speed>
  <fix>3d</fix>
</trkpt>
<trkpt lat="-27.274439" lon="151.290064">
  <ele>343.09</ele>
  <time>2026-09-01T19:54:44Z</time>
  <course>10.76</course>
  <speed>0.0</speed>
  <fix>3d</fix>
</trkpt>
<trkpt lat="-27.274439" lon="151.290064">
  <ele>343.1</ele>
  <time>2026-09-01T19:54:44Z</time>
  <course>12.68</course>
  <speed>0.0</speed>
  <fix>3d</fix>
</trkpt>
<trkpt lat="-27.274439" lon="151.290064">
  <ele>343.09</ele>
  <time>2026-09-01T19:54:44Z</time>
  <course>10.76</course>
  <speed>0.0</speed>
  <fix>3d</fix>
</trkpt>
<trkpt lat="-27.274439" lon="151.290064">
  <ele>343.1</ele>
  <time>2026-09-01T19:54:44Z</time>
  <course>12.68</course>
  <speed>0.0</speed>
  <fix>3d</fix>
</trkpt>
<trkpt lat="-27.274439" lon="151.290064">
  <ele>343.09</ele>
  <time>2026-09-01T19:54:44Z</time>
  <course>10.76</course>
  <speed>0.0</speed>
  <fix>3d</fix>
</trkpt>
<trkpt lat="-27.274439" lon="151.290064">
  <ele>343.1</ele>
  <time>2026-09-01T19:54:44Z</time>
  <course>357.22</course>
  <speed>0.0</speed>
  <fix>3d</fix>
</trkpt>
<trkpt lat="-27.274439" lon="151.290064">
  <ele>343.09</ele>
  <time>2026-09-01T19:54:44Z</time>
  <course>10.77</course>
  <speed>0.01</speed>
  <fix>3d</fix>
</trkpt>
<trkpt lat="-27.274439" lon="151.290064">
  <ele>343.1</ele>
  <time>2026-09-01T19:54:44Z</time>
  <course>357.22</course>
  <speed>0.0</speed>
  <fix>3d</fix>
</trkpt>
<trkpt lat="-27.274439" lon="151.290064">
  <ele>343.09</ele>
  <time>2026-09-01T19:54:44Z</time>
  <course>10.77</course>
  <speed>0.01</speed>
  <fix>3d</fix>
</trkpt>
<trkpt lat="-27.274439" lon="151.290064">
  <ele>343.1</ele>
  <time>2026-09-01T19:54:44Z</time>
  <course>188.26</course>
  <speed>0.0</speed>
  <fix>3d</fix>
</trkpt>
<trkpt lat="-27.274439" lon="151.290064">
  <ele>343.09</ele>
  <time>2026-09-01T19:54:44Z</time>
  <course>10.77</course>
  <speed>0.01</speed>
  <fix>3d</fix>
</trkpt>
<trkpt lat="-27.274439" lon="151.290064">
  <ele>343.1</ele>
  <time>2026-09-01T19:54:44Z</time>
  <course>188.26</course>
  <speed>0.0</speed>
  <fix>3d</fix>
</trkpt>
<trkpt lat="-27.274439" lon="151.290064">
  <ele>343.09</ele>
  <time>2026-09-01T19:54:44Z</time>
  <course>10.77</course>
  <speed>0.0</speed>
  <fix>3d</fix>
</trkpt>
<trkpt lat="-27.274439" lon="151.290064">
  <ele>343.1</ele>
  <time>2026-09-01T19:54:44Z</time>
  <course>187.85</course>
  <speed>0.0</speed>
  <fix>3d</fix>
</trkpt>
<trkpt lat="-27.274439" lon="151.290064">
  <ele>343.09</ele>
  <time>2026-09-01T19:54:44Z</time>
  <course>10.77</course>
  <speed>0.0</speed>
  <fix>3d</fix>
</trkpt>
<trkpt lat="-27.274439" lon="151.290064">
  <ele>343.1</ele>
  <time>2026-09-01T19:54:44Z</time>
  <course>187.85</course>
  <speed>0.0</speed>
  <fix>3d</fix>
</trkpt>
<trkpt lat="-27.274439" lon="151.290064">
  <ele>343.09</ele>
  <time>2026-09-01T19:54:44Z</time>
  <course>10.77</course>
  <speed>0.0</speed>
  <fix>3d</fix>
</trkpt>
<trkpt lat="-27.274439" lon="151.290064">
  <ele>343.1</ele>
  <time>2026-09-01T19:54:44Z</time>
  <course>188.08</course>
  <speed>0.0</speed>
  <fix>3d</fix>
</trkpt>
<trkpt lat="-27.274439" lon="151.290064">
  <ele>343.09</ele>
  <time>2026-09-01T19:54:44Z</time>
  <course>10.77</course>
  <speed>0.0</speed>
  <fix>3d</fix>
</trkpt>
<trkpt lat="-27.274439" lon="151.290064">
  <ele>343.1</ele>
  <time>2026-09-01T19:54:44Z</time>
  <course>188.08</course>
  <speed>0.0</speed>
  <fix>3d</fix>
</trkpt>
<trkpt lat="-27.274439" lon="151.290064">
  <ele>343.09</ele>
  <time>2026-09-01T19:54:44Z</time>
  <course>10.77</course>
  <speed>0.0</speed>
  <fix>3d</fix>
</trkpt>
<trkpt lat="-27.274439" lon="151.290064">
  <ele>343.1</ele>
  <time>2026-09-01T19:54:44Z</time>
  <course>7.87</course>
  <speed>0.0</speed>
  <fix>3d</fix>
</trkpt>
<trkpt lat="-27.274439" lon="151.290064">
  <ele>343.1</ele>
  <time>2026-09-01T19:54:44Z</time>
  <course>10.77</course>
  <speed>0.0</speed>
  <fix>3d</fix>
</trkpt>
<trkpt lat="-27.274439" lon="151.290064">
  <ele>343.1</ele>
  <time>2026-09-01T19:54:44Z</time>
  <course>7.87</course>
  <speed>0.0</speed>
  <fix>3d</fix>
</trkpt>
<trkpt lat="-27.274439" lon="151.290064">
  <ele>343.1</ele>
  <time>2026-09-01T19:54:44Z</time>
  <course>10.78</course>
  <speed>0.0</speed>
  <fix>3d</fix>
</trkpt>
<trkpt lat="-27.274439" lon="151.290064">
  <ele>343.1</ele>
  <time>2026-09-01T19:54:44Z</time>
  <course>187.62</course>
  <speed>0.0</speed>
  <fix>3d</fix>
</trkpt>
<trkpt lat="-27.274439" lon="151.290064">
  <ele>343.1</ele>
  <time>2026-09-01T19:54:44Z</time>
  <course>10.78</course>
  <speed>0.0</speed>
  <fix>3d</fix>
</trkpt>
<trkpt lat="-27.274439" lon="151.290064">
  <ele>343.1</ele>
  <time>2026-09-01T19:54:44Z</time>
  <course>187.62</course>
  <speed>0.0</speed>
  <fix>3d</fix>
</trkpt>
<trkpt lat="-27.274439" lon="151.290064">
  <ele>343.1</ele>
  <time>2026-09-01T19:54:44Z</time>
  <course>10.78</course>
  <speed>0.0</speed>
  <fix>3d</fix>
</trkpt>
<trkpt lat="-27.274439" lon="151.290064">
  <ele>343.1</ele>
  <time>2026-09-01T19:54:44Z</time>
  <course>187.88</course>
  <speed>0.0</speed>
  <fix>3d</fix>
</trkpt>
<trkpt lat="-27.274439" lon="151.290064">
  <ele>343.1</ele>
  <time>2026-09-01T19:54:44Z</time>
  <course>10.78</course>
  <speed>0.0</speed>
  <fix>3d</fix>
</trkpt>
<trkpt lat="-27.274439" lon="151.290064">
  <ele>343.1</ele>
  <time>2026-09-01T19:54:44Z</time>
  <course>187.88</course>
  <speed>0.0</speed>
  <fix>3d</fix>
</trkpt>
<trkpt lat="-27.274439" lon="151.290064">
  <ele>343.1</ele>
  <time>2026-09-01T19:54:44Z</time>
  <course>10.78</course>
  <speed>0.0</speed>
  <fix>3d</fix>
</trkpt>
<trkpt lat="-27.274439" lon="151.290064">
  <ele>343.1</ele>
  <time>2026-09-01T19:54:44Z</time>
  <course>7.79</course>
  <speed>0.0</speed>
  <fix>3d</fix>
</trkpt>
<trkpt lat="-27.274439" lon="151.290064">
  <ele>343.1</ele>
  <time>2026-09-01T19:54:44Z</time>
  <course>10.78</course>
  <speed>0.01</speed>
  <fix>3d</fix>
</trkpt>
<trkpt lat="-27.274439" lon="151.290064">
  <ele>343.1</ele>
  <time>2026-09-01T19:54:44Z</time>
  <course>7.79</course>
  <speed>0.0</speed>
  <fix>3d</fix>
</trkpt>
<trkpt lat="-27.274439" lon="151.290064">
  <ele>343.1</ele>
  <time>2026-09-01T19:54:44Z</time>
  <course>10.78</course>
  <speed>0.01</speed>
  <fix>3d</fix>
</trkpt>
<trkpt lat="-27.274439" lon="151.290064">
  <ele>343.1</ele>
  <time>2026-09-01T19:54:44Z</time>
  <course>7.89</course>
  <speed>0.0</speed>
  <fix>3d</fix>
</trkpt>
<trkpt lat="-27.274439" lon="151.290064">
  <ele>343.1</ele>
  <time>2026-09-01T19:54:44Z</time>
  <course>10.78</course>
  <speed>0.01</speed>
  <fix>3d</fix>
</trkpt>
<trkpt lat="-27.274439" lon="151.290064">
  <ele>343.1</ele>
  <time>2026-09-01T19:54:44Z</time>
  <course>7.89</course>
  <speed>0.0</speed>
  <fix>3d</fix>
</trkpt>
<trkpt lat="-27.274439" lon="151.290064">
  <ele>343.1</ele>
  <time>2026-09-01T19:54:44Z</time>
  <course>10.78</course>
  <speed>0.01</speed>
  <fix>3d</fix>
</trkpt>
<trkpt lat="-27.274439" lon="151.290064">
  <ele>343.1</ele>
  <time>2026-09-01T19:54:44Z</time>
  <course>187.83</course>
  <speed>0.0</speed>
  <fix>3d</fix>
</trkpt>
<trkpt lat="-27.274439" lon="151.290064">
  <ele>343.1</ele>
  <time>2026-09-01T19:54:44Z</time>
  <course>10.78</course>
  <speed>0.01</speed>
  <fix>3d</fix>
</trkpt>
<trkpt lat="-27.274439" lon="151.290064">
  <ele>343.1</ele>
  <time>2026-09-01T19:54:44Z</time>
  <course>187.83</course>
  <speed>0.0</speed>
  <fix>3d</fix>
</trkpt>
<trkpt lat="-27.274439" lon="151.290064">
  <ele>343.1</ele>
  <time>2026-09-01T19:54:44Z</time>
  <course>10.79</course>
  <speed>0.01</speed>
  <fix>3d</fix>
</trkpt>
<trkpt lat="-27.274439" lon="151.290064">
  <ele>343.1</ele>
  <time>2026-09-01T19:54:44Z</time>
  <course>187.92</course>
  <speed>0.0</speed>
  <fix>3d</fix>
</trkpt>
<trkpt lat="-27.274439" lon="151.290064">
  <ele>343.1</ele>
  <time>2026-09-01T19:54:44Z</time>
  <course>10.79</course>
  <speed>0.01</speed>
  <fix>3d</fix>
</trkpt>
<trkpt lat="-27.274439" lon="151.290064">
  <ele>343.1</ele>
  <time>2026-09-01T19:54:44Z</time>
  <course>187.92</course>
  <speed>0.0</speed>
  <fix>3d</fix>
</trkpt>
<trkpt lat="-27.274439" lon="151.290064">
  <ele>343.1</ele>
  <time>2026-09-01T19:54:44Z</time>
  <course>10.79</course>
  <speed>0.01</speed>
  <fix>3d</fix>
</trkpt>
<trkpt lat="-27.274439" lon="151.290064">
  <ele>343.1</ele>
  <time>2026-09-01T19:54:44Z</time>
  <course>7.85</course>
  <speed>0.0</speed>
  <fix>3d</fix>
</trkpt>
<trkpt lat="-27.274439" lon="151.290064">
  <ele>343.11</ele>
  <time>2026-09-01T19:54:44Z</time>
  <course>10.79</course>
  <speed>0.01</speed>
  <fix>3d</fix>
</trkpt>
<trkpt lat="-27.274439" lon="151.290064">
  <ele>343.1</ele>
  <time>2026-09-01T19:54:44Z</time>
  <course>7.85</course>
  <speed>0.0</speed>
  <fix>3d</fix>
</trkpt>
<trkpt lat="-27.274439" lon="151.290064">
  <ele>343.11</ele>
  <time>2026-09-01T19:54:44Z</time>
  <course>10.79</course>
  <speed>0.01</speed>
  <fix>3d</fix>
</trkpt>
<trkpt lat="-27.274439" lon="151.290064">
  <ele>343.1</ele>
  <time>2026-09-01T19:54:44Z</time>
  <course>8.0</course>
  <speed>0.0</speed>
  <fix>3d</fix>
</trkpt>
<trkpt lat="-27.274439" lon="151.290064">
  <ele>343.11</ele>
  <time>2026-09-01T19:54:44Z</time>
  <course>10.79</course>
  <speed>0.01</speed>
  <fix>3d</fix>
</trkpt>
<trkpt lat="-27.274439" lon="151.290064">
  <ele>343.1</ele>
  <time>2026-09-01T19:54:44Z</time>
  <course>8.0</course>
  <speed>0.0</speed>
  <fix>3d</fix>
</trkpt>
<trkpt lat="-27.274439" lon="151.290064">
  <ele>343.11</ele>
  <time>2026-09-01T19:54:44Z</time>
  <course>10.79</course>
  <speed>0.01</speed>
  <fix>3d</fix>
</trkpt>
<trkpt lat="-27.274439" lon="151.290064">
  <ele>343.1</ele>
  <time>2026-09-01T19:54:44Z</time>
  <course>187.86</course>
  <speed>0.0</speed>
  <fix>3d</fix>
</trkpt>
<trkpt lat="-27.274439" lon="151.290064">
  <ele>343.11</ele>
  <time>2026-09-01T19:54:44Z</time>
  <course>10.79</course>
  <speed>0.01</speed>
  <fix>3d</fix>
</trkpt>
<trkpt lat="-27.274439" lon="151.290064">
  <ele>343.1</ele>
  <time>2026-09-01T19:54:44Z</time>
  <course>187.86</course>
  <speed>0.0</speed>
  <fix>3d</fix>
</trkpt>
<trkpt lat="-27.274439" lon="151.290064">
  <ele>343.11</ele>
  <time>2026-09-01T19:54:44Z</time>
  <course>10.79</course>
  <speed>0.01</speed>
  <fix>3d</fix>
</trkpt>
<trkpt lat="-27.274439" lon="151.290064">
  <ele>343.1</ele>
  <time>2026-09-01T19:54:44Z</time>
  <course>7.18</course>
  <speed>0.0</speed>
  <fix>3d</fix>
</trkpt>
<trkpt lat="-27.274439" lon="151.290064">
  <ele>343.11</ele>
  <time>2026-09-01T19:54:44Z</time>
  <course>10.8</course>
  <speed>0.01</speed>
  <fix>3d</fix>
</trkpt>
<trkpt lat="-27.274439" lon="151.290064">
  <ele>343.1</ele>
  <time>2026-09-01T19:54:44Z</time>
  <course>7.18</course>
  <speed>0.0</speed>
  <fix>3d</fix>
</trkpt>
<trkpt lat="-27.274439" lon="151.290064">
  <ele>343.11</ele>
  <time>2026-09-01T19:54:44Z</time>
  <course>10.8</course>
  <speed>0.01</speed>
  <fix>3d</fix>
</trkpt>
<trkpt lat="-27.274439" lon="151.290064">
  <ele>343.1</ele>
  <time>2026-09-01T19:54:44Z</time>
  <course>7.87</course>
  <speed>0.0</speed>
  <fix>3d</fix>
</trkpt>
<trkpt lat="-27.274439" lon="151.290064">
  <ele>343.11</ele>
  <time>2026-09-01T19:54:44Z</time>
  <course>10.8</course>
  <speed>0.01</speed>
  <fix>3d</fix>
</trkpt>
<trkpt lat="-27.274439" lon="151.290064">
  <ele>343.1</ele>
  <time>2026-09-01T19:54:44Z</time>
  <course>7.87</course>
  <speed>0.0</speed>
  <fix>3d</fix>
</trkpt>
<trkpt lat="-27.274439" lon="151.290064">
  <ele>343.11</ele>
  <time>2026-09-01T19:54:44Z</time>
  <course>10.8</course>
  <speed>0.01</speed>
  <fix>3d</fix>
</trkpt>
<trkpt lat="-27.274439" lon="151.290064">
  <ele>343.1</ele>
  <time>2026-09-01T19:54:44Z</time>
  <course>187.77</course>
  <speed>0.0</speed>
  <fix>3d</fix>
</trkpt>
<trkpt lat="-27.274439" lon="151.290064">
  <ele>343.11</ele>
  <time>2026-09-01T19:54:44Z</time>
  <course>10.8</course>
  <speed>0.01</speed>
  <fix>3d</fix>
</trkpt>
<trkpt lat="-27.274439" lon="151.290064">
  <ele>343.1</ele>
  <time>2026-09-01T19:54:44Z</time>
  <course>187.77</course>
  <speed>0.0</speed>
  <fix>3d</fix>
</trkpt>
<trkpt lat="-27.274439" lon="151.290064">
  <ele>343.12</ele>
  <time>2026-09-01T19:54:44Z</time>
  <course>10.8</course>
  <speed>0.01</speed>
  <fix>3d</fix>
</trkpt>
<trkpt lat="-27.274439" lon="151.290064">
  <ele>343.1</ele>
  <time>2026-09-01T19:54:44Z</time>
  <course>187.89</course>
  <speed>0.0</speed>
  <fix>3d</fix>
</trkpt>
<trkpt lat="-27.274439" lon="151.290064">
  <ele>343.12</ele>
  <time>2026-09-01T19:54:44Z</time>
  <course>10.8</course>
  <speed>0.01</speed>
  <fix>3d</fix>
</trkpt>
<trkpt lat="-27.274439" lon="151.290064">
  <ele>343.1</ele>
  <time>2026-09-01T19:54:44Z</time>
  <course>187.89</course>
  <speed>0.0</speed>
  <fix>3d</fix>
</trkpt>
<trkpt lat="-27.274439" lon="151.290064">
  <ele>343.12</ele>
  <time>2026-09-01T19:54:44Z</time>
  <course>10.8</course>
  <speed>0.01</speed>
  <fix>3d</fix>
</trkpt>
<trkpt lat="-27.274439" lon="151.290064">
  <ele>343.1</ele>
  <time>2026-09-01T19:54:44Z</time>
  <course>7.82</course>
  <speed>0.0</speed>
  <fix>3d</fix>
</trkpt>
<trkpt lat="-27.274439" lon="151.290064">
  <ele>343.12</ele>
  <time>2026-09-01T19:54:44Z</time>
  <course>10.8</course>
  <speed>0.01</speed>
  <fix>3d</fix>
</trkpt>
<trkpt lat="-27.274439" lon="151.290064">
  <ele>343.1</ele>
  <time>2026-09-01T19:54:44Z</time>
  <course>7.82</course>
  <speed>0.0</speed>
  <fix>3d</fix>
</trkpt>
<trkpt lat="-27.274439" lon="151.290064">
  <ele>343.12</ele>
  <time>2026-09-01T19:54:44Z</time>
  <course>10.8</course>
  <speed>0.01</speed>
  <fix>3d</fix>
</trkpt>
<trkpt lat="-27.274439" lon="151.290064">
  <ele>343.1</ele>
  <time>2026-09-01T19:54:44Z</time>
  <course>7.91</course>
  <speed>0.0</speed>
  <fix>3d</fix>
</trkpt>
<trkpt lat="-27.274439" lon="151.290064">
  <ele>343.12</ele>
  <time>2026-09-01T19:54:44Z</time>
  <course>10.81</course>
  <speed>0.01</speed>
  <fix>3d</fix>
</trkpt>
<trkpt lat="-27.274439" lon="151.290064">
  <ele>343.1</ele>
  <time>2026-09-01T19:54:44Z</time>
  <course>7.91</course>
  <speed>0.0</speed>
  <fix>3d</fix>
</trkpt>
<trkpt lat="-27.274439" lon="151.290064">
  <ele>343.12</ele>
  <time>2026-09-01T19:54:44Z</time>
  <course>10.81</course>
  <speed>0.01</speed>
  <fix>3d</fix>
</trkpt>
<trkpt lat="-27.274439" lon="151.290064">
  <ele>343.1</ele>
  <time>2026-09-01T19:54:44Z</time>
  <course>187.84</course>
  <speed>0.0</speed>
  <fix>3d</fix>
</trkpt>
<trkpt lat="-27.274439" lon="151.290064">
  <ele>343.12</ele>
  <time>2026-09-01T19:54:44Z</time>
  <course>10.81</course>
  <speed>0.01</speed>
  <fix>3d</fix>
</trkpt>
<trkpt lat="-27.274439" lon="151.290064">
  <ele>343.1</ele>
  <time>2026-09-01T19:54:44Z</time>
  <course>187.84</course>
  <speed>0.0</speed>
  <fix>3d</fix>
</trkpt>
<trkpt lat="-27.274439" lon="151.290064">
  <ele>343.12</ele>
  <time>2026-09-01T19:54:44Z</time>
  <course>10.81</course>
  <speed>0.01</speed>
  <fix>3d</fix>
</trkpt>
<trkpt lat="-27.274439" lon="151.290064">
  <ele>343.1</ele>
  <time>2026-09-01T19:54:44Z</time>
  <course>187.96</course>
  <speed>0.0</speed>
  <fix>3d</fix>
</trkpt>
<trkpt lat="-27.274439" lon="151.290064">
  <ele>343.12</ele>
  <time>2026-09-01T19:54:44Z</time>
  <course>10.81</course>
  <speed>0.01</speed>
  <fix>3d</fix>
</trkpt>
<trkpt lat="-27.274439" lon="151.290064">
  <ele>343.1</ele>
  <time>2026-09-01T19:54:44Z</time>
  <course>187.96</course>
  <speed>0.0</speed>
  <fix>3d</fix>
</trkpt>
<trkpt lat="-27.274439" lon="151.290064">
  <ele>343.12</ele>
  <time>2026-09-01T19:54:44Z</time>
  <course>10.81</course>
  <speed>0.01</speed>
  <fix>3d</fix>
</trkpt>
<trkpt lat="-27.274439" lon="151.290064">
  <ele>343.1</ele>
  <time>2026-09-01T19:54:44Z</time>
  <course>7.86</course>
  <speed>0.0</speed>
  <fix>3d</fix>
</trkpt>
<trkpt lat="-27.274439" lon="151.290064">
  <ele>343.12</ele>
  <time>2026-09-01T19:54:44Z</time>
  <course>10.81</course>
  <speed>0.01</speed>
  <fix>3d</fix>
</trkpt>
<trkpt lat="-27.274439" lon="151.290064">
  <ele>343.1</ele>
  <time>2026-09-01T19:54:44Z</time>
  <course>7.86</course>
  <speed>0.0</speed>
  <fix>3d</fix>
</trkpt>
<trkpt lat="-27.274439" lon="151.290064">
  <ele>343.11</ele>
  <time>2026-09-01T19:54:44Z</time>
  <course>10.81</course>
  <speed>0.01</speed>
  <fix>3d</fix>
</trkpt>
<trkpt lat="-27.274439" lon="151.290064">
  <ele>343.1</ele>
  <time>2026-09-01T19:54:44Z</time>
  <course>8.65</course>
  <speed>0.0</speed>
  <fix>3d</fix>
</trkpt>
<trkpt lat="-27.274439" lon="151.290064">
  <ele>343.11</ele>
  <time>2026-09-01T19:54:44Z</time>
  <course>10.81</course>
  <speed>0.01</speed>
  <fix>3d</fix>
</trkpt>
<trkpt lat="-27.274439" lon="151.290064">
  <ele>343.1</ele>
  <time>2026-09-01T19:54:44Z</time>
  <course>8.65</course>
  <speed>0.0</speed>
  <fix>3d</fix>
</trkpt>
<trkpt lat="-27.274439" lon="151.290064">
  <ele>343.11</ele>
  <time>2026-09-01T19:54:44Z</time>
  <course>10.81</course>
  <speed>0.01</speed>
  <fix>3d</fix>
</trkpt>
<trkpt lat="-27.274439" lon="151.290064">
  <ele>343.1</ele>
  <time>2026-09-01T19:54:44Z</time>
  <course>187.87</course>
  <speed>0.0</speed>
  <fix>3d</fix>
</trkpt>
<trkpt lat="-27.274439" lon="151.290064">
  <ele>343.11</ele>
  <time>2026-09-01T19:54:44Z</time>
  <course>10.82</course>
  <speed>0.01</speed>
  <fix>3d</fix>
</trkpt>
<trkpt lat="-27.274439" lon="151.290064">
  <ele>343.1</ele>
  <time>2026-09-01T19:54:44Z</time>
  <course>187.87</course>
  <speed>0.0</speed>
  <fix>3d</fix>
</trkpt>
<trkpt lat="-27.274439" lon="151.290064">
  <ele>343.11</ele>
  <time>2026-09-01T19:54:44Z</time>
  <course>10.82</course>
  <speed>0.01</speed>
  <fix>3d</fix>
</trkpt>
<trkpt lat="-27.274439" lon="151.290064">
  <ele>343.1</ele>
  <time>2026-09-01T19:54:44Z</time>
  <course>7.73</course>
  <speed>0.0</speed>
  <fix>3d</fix>
</trkpt>
<trkpt lat="-27.2744391" lon="151.290064">
  <ele>343.11</ele>
  <time>2026-09-01T19:54:44Z</time>
  <course>10.82</course>
  <speed>0.01</speed>
  <fix>3d</fix>
</trkpt>
<trkpt lat="-27.274439" lon="151.290064">
  <ele>343.1</ele>
  <time>2026-09-01T19:54:44Z</time>
  <course>7.73</course>
  <speed>0.0</speed>
  <fix>3d</fix>
</trkpt>
<trkpt lat="-27.2744391" lon="151.290064">
  <ele>343.11</ele>
  <time>2026-09-01T19:54:44Z</time>
  <course>10.82</course>
  <speed>0.01</speed>
  <fix>3d</fix>
</trkpt>
<trkpt lat="-27.274439" lon="151.290064">
  <ele>343.1</ele>
  <time>2026-09-01T19:54:44Z</time>
  <course>7.88</course>
  <speed>0.0</speed>
  <fix>3d</fix>
</trkpt>
<trkpt lat="-27.2744391" lon="151.290064">
  <ele>343.11</ele>
  <time>2026-09-01T19:54:44Z</time>
  <course>10.82</course>
  <speed>0.01</speed>
  <fix>3d</fix>
</trkpt>
<trkpt lat="-27.274439" lon="151.290064">
  <ele>343.1</ele>
  <time>2026-09-01T19:54:44Z</time>
  <course>7.88</course>
  <speed>0.0</speed>
  <fix>3d</fix>
</trkpt>
<trkpt lat="-27.2744391" lon="151.290064">
  <ele>343.11</ele>
  <time>2026-09-01T19:54:44Z</time>
  <course>10.82</course>
  <speed>0.01</speed>
  <fix>3d</fix>
</trkpt>
<trkpt lat="-27.274439" lon="151.290064">
  <ele>343.1</ele>
  <time>2026-09-01T19:54:44Z</time>
  <course>187.81</course>
  <speed>0.0</speed>
  <fix>3d</fix>
</trkpt>
<trkpt lat="-27.2744391" lon="151.290064">
  <ele>343.11</ele>
  <time>2026-09-01T19:54:44Z</time>
  <course>10.82</course>
  <speed>0.01</speed>
  <fix>3d</fix>
</trkpt>
<trkpt lat="-27.274439" lon="151.290064">
  <ele>343.1</ele>
  <time>2026-09-01T19:54:44Z</time>
  <course>187.81</course>
  <speed>0.0</speed>
  <fix>3d</fix>
</trkpt>
<trkpt lat="-27.2744391" lon="151.290064">
  <ele>343.11</ele>
  <time>2026-09-01T19:54:44Z</time>
  <course>10.82</course>
  <speed>0.01</speed>
  <fix>3d</fix>
</trkpt>
<trkpt lat="-27.274439" lon="151.290064">
  <ele>343.1</ele>
  <time>2026-09-01T19:54:44Z</time>
  <course>187.91</course>
  <speed>0.0</speed>
  <fix>3d</fix>
</trkpt>
<trkpt lat="-27.2744391" lon="151.290064">
  <ele>343.11</ele>
  <time>2026-09-01T19:54:44Z</time>
  <course>10.82</course>
  <speed>0.01</speed>
  <fix>3d</fix>
</trkpt>
<trkpt lat="-27.274439" lon="151.290064">
  <ele>343.1</ele>
  <time>2026-09-01T19:54:44Z</time>
  <course>187.91</course>
  <speed>0.0</speed>
  <fix>3d</fix>
</trkpt>
<trkpt lat="-27.2744391" lon="151.290064">
  <ele>343.11</ele>
  <time>2026-09-01T19:54:44Z</time>
  <course>10.83</course>
  <speed>0.01</speed>
  <fix>3d</fix>
</trkpt>
<trkpt lat="-27.274439" lon="151.290064">
  <ele>343.1</ele>
  <time>2026-09-01T19:54:44Z</time>
  <course>7.81</course>
  <speed>0.0</speed>
  <fix>3d</fix>
</trkpt>
<trkpt lat="-27.2744391" lon="151.290064">
  <ele>343.11</ele>
  <time>2026-09-01T19:54:44Z</time>
  <course>10.83</course>
  <speed>0.01</speed>
  <fix>3d</fix>
</trkpt>
<trkpt lat="-27.274439" lon="151.290064">
  <ele>343.1</ele>
  <time>2026-09-01T19:54:44Z</time>
  <course>7.81</course>
  <speed>0.0</speed>
  <fix>3d</fix>
</trkpt>
<trkpt lat="-27.2744391" lon="151.290064">
  <ele>343.11</ele>
  <time>2026-09-01T19:54:44Z</time>
  <course>10.83</course>
  <speed>0.01</speed>
  <fix>3d</fix>
</trkpt>
<trkpt lat="-27.274439" lon="151.290064">
  <ele>343.1</ele>
  <time>2026-09-01T19:54:44Z</time>
  <course>7.92</course>
  <speed>0.0</speed>
  <fix>3d</fix>
</trkpt>
<trkpt lat="-27.2744391" lon="151.290064">
  <ele>343.11</ele>
  <time>2026-09-01T19:54:44Z</time>
  <course>10.83</course>
  <speed>0.01</speed>
  <fix>3d</fix>
</trkpt>
<trkpt lat="-27.274439" lon="151.290064">
  <ele>343.1</ele>
  <time>2026-09-01T19:54:44Z</time>
  <course>7.92</course>
  <speed>0.0</speed>
  <fix>3d</fix>
</trkpt>
<trkpt lat="-27.2744391" lon="151.290064">
  <ele>343.11</ele>
  <time>2026-09-01T19:54:44Z</time>
  <course>10.83</course>
  <speed>0.01</speed>
  <fix>3d</fix>
</trkpt>
<trkpt lat="-27.274439" lon="151.290064">
  <ele>343.1</ele>
  <time>2026-09-01T19:54:44Z</time>
  <course>188.02</course>
  <speed>0.0</speed>
  <fix>3d</fix>
</trkpt>
<trkpt lat="-27.2744391" lon="151.290064">
  <ele>343.11</ele>
  <time>2026-09-01T19:54:44Z</time>
  <course>10.83</course>
  <speed>0.01</speed>
  <fix>3d</fix>
</trkpt>
<trkpt lat="-27.274439" lon="151.290064">
  <ele>343.1</ele>
  <time>2026-09-01T19:54:44Z</time>
  <course>188.02</course>
  <speed>0.0</speed>
  <fix>3d</fix>
</trkpt>
<trkpt lat="-27.2744391" lon="151.290064">
  <ele>343.11</ele>
  <time>2026-09-01T19:54:44Z</time>
  <course>10.83</course>
  <speed>0.01</speed>
  <fix>3d</fix>
</trkpt>
<trkpt lat="-27.274439" lon="151.290064">
  <ele>343.1</ele>
  <time>2026-09-01T19:54:44Z</time>
  <course>197.11</course>
  <speed>0.0</speed>
  <fix>3d</fix>
</trkpt>
<trkpt lat="-27.2744391" lon="151.290064">
  <ele>343.11</ele>
  <time>2026-09-01T19:54:44Z</time>
  <course>10.83</course>
  <speed>0.01</speed>
  <fix>3d</fix>
</trkpt>
<trkpt lat="-27.274439" lon="151.290064">
  <ele>343.1</ele>
  <time>2026-09-01T19:54:44Z</time>
  <course>197.11</course>
  <speed>0.0</speed>
  <fix>3d</fix>
</trkpt>
<trkpt lat="-27.2744391" lon="151.290064">
  <ele>343.12</ele>
  <time>2026-09-01T19:54:44Z</time>
  <course>10.83</course>
  <speed>0.01</speed>
  <fix>3d</fix>
</trkpt>
<trkpt lat="-27.274439" lon="151.290064">
  <ele>343.1</ele>
  <time>2026-09-01T19:54:44Z</time>
  <course>6.97</course>
  <speed>0.0</speed>
  <fix>3d</fix>
</trkpt>
<trkpt lat="-27.2744391" lon="151.290064">
  <ele>343.12</ele>
  <time>2026-09-01T19:54:44Z</time>
  <course>10.83</course>
  <speed>0.01</speed>
  <fix>3d</fix>
</trkpt>
<trkpt lat="-27.274439" lon="151.290064">
  <ele>343.1</ele>
  <time>2026-09-01T19:54:44Z</time>
  <course>6.97</course>
  <speed>0.0</speed>
  <fix>3d</fix>
</trkpt>
<trkpt lat="-27.2744391" lon="151.290064">
  <ele>343.12</ele>
  <time>2026-09-01T19:54:44Z</time>
  <course>10.84</course>
  <speed>0.01</speed>
  <fix>3d</fix>
</trkpt>
<trkpt lat="-27.274439" lon="151.290064">
  <ele>343.1</ele>
  <time>2026-09-01T19:54:44Z</time>
  <course>5.86</course>
  <speed>0.0</speed>
  <fix>3d</fix>
</trkpt>
<trkpt lat="-27.2744391" lon="151.290064">
  <ele>343.12</ele>
  <time>2026-09-01T19:54:44Z</time>
  <course>10.84</course>
  <speed>0.01</speed>
  <fix>3d</fix>
</trkpt>
<trkpt lat="-27.274439" lon="151.290064">
  <ele>343.1</ele>
  <time>2026-09-01T19:54:44Z</time>
  <course>5.86</course>
  <speed>0.0</speed>
  <fix>3d</fix>
</trkpt>
<trkpt lat="-27.2744391" lon="151.290064">
  <ele>343.12</ele>
  <time>2026-09-01T19:54:44Z</time>
  <course>10.84</course>
  <speed>0.01</speed>
  <fix>3d</fix>
</trkpt>
<trkpt lat="-27.274439" lon="151.290064">
  <ele>343.1</ele>
  <time>2026-09-01T19:54:44Z</time>
  <course>5.59</course>
  <speed>0.0</speed>
  <fix>3d</fix>
</trkpt>
<trkpt lat="-27.2744391" lon="151.290064">
  <ele>343.12</ele>
  <time>2026-09-01T19:54:44Z</time>
  <course>10.84</course>
  <speed>0.01</speed>
  <fix>3d</fix>
</trkpt>
<trkpt lat="-27.274439" lon="151.290064">
  <ele>343.1</ele>
  <time>2026-09-01T19:54:44Z</time>
  <course>5.59</course>
  <speed>0.0</speed>
  <fix>3d</fix>
</trkpt>
<trkpt lat="-27.2744391" lon="151.290064">
  <ele>343.12</ele>
  <time>2026-09-01T19:54:44Z</time>
  <course>10.84</course>
  <speed>0.01</speed>
  <fix>3d</fix>
</trkpt>
<trkpt lat="-27.274439" lon="151.290064">
  <ele>343.1</ele>
  <time>2026-09-01T19:54:44Z</time>
  <course>5.55</course>
  <speed>0.0</speed>
  <fix>3d</fix>
</trkpt>
<trkpt lat="-27.2744391" lon="151.290064">
  <ele>343.12</ele>
  <time>2026-09-01T19:54:44Z</time>
  <course>10.84</course>
  <speed>0.01</speed>
  <fix>3d</fix>
</trkpt>
<trkpt lat="-27.274439" lon="151.290064">
  <ele>343.1</ele>
  <time>2026-09-01T19:54:44Z</time>
  <course>5.55</course>
  <speed>0.0</speed>
  <fix>3d</fix>
</trkpt>
<trkpt lat="-27.2744391" lon="151.290064">
  <ele>343.12</ele>
  <time>2026-09-01T19:54:44Z</time>
  <course>10.84</course>
  <speed>0.01</speed>
  <fix>3d</fix>
</trkpt>
<trkpt lat="-27.274439" lon="151.290064">
  <ele>343.1</ele>
  <time>2026-09-01T19:54:44Z</time>
  <course>5.55</course>
  <speed>0.0</speed>
  <fix>3d</fix>
</trkpt>
<trkpt lat="-27.2744391" lon="151.290064">
  <ele>343.11</ele>
  <time>2026-09-01T19:54:44Z</time>
  <course>10.84</course>
  <speed>0.01</speed>
  <fix>3d</fix>
</trkpt>
<trkpt lat="-27.274439" lon="151.290064">
  <ele>343.1</ele>
  <time>2026-09-01T19:54:44Z</time>
  <course>5.55</course>
  <speed>0.0</speed>
  <fix>3d</fix>
</trkpt>
<trkpt lat="-27.2744391" lon="151.290064">
  <ele>343.11</ele>
  <time>2026-09-01T19:54:44Z</time>
  <course>10.84</course>
  <speed>0.01</speed>
  <fix>3d</fix>
</trkpt>
<trkpt lat="-27.274439" lon="151.290064">
  <ele>343.1</ele>
  <time>2026-09-01T19:54:44Z</time>
  <course>5.55</course>
  <speed>0.0</speed>
  <fix>3d</fix>
</trkpt>
<trkpt lat="-27.2744391" lon="151.290064">
  <ele>343.11</ele>
  <time>2026-09-01T19:54:44Z</time>
  <course>10.84</course>
  <speed>0.01</speed>
  <fix>3d</fix>
</trkpt>
<trkpt lat="-27.274439" lon="151.290064">
  <ele>343.1</ele>
  <time>2026-09-01T19:54:44Z</time>
  <course>5.55</course>
  <speed>0.0</speed>
  <fix>3d</fix>
</trkpt>
<trkpt lat="-27.2744391" lon="151.290064">
  <ele>343.11</ele>
  <time>2026-09-01T19:54:44Z</time>
  <course>10.84</course>
  <speed>0.01</speed>
  <fix>3d</fix>
</trkpt>
<trkpt lat="-27.274439" lon="151.290064">
  <ele>343.1</ele>
  <time>2026-09-01T19:54:44Z</time>
  <course>5.55</course>
  <speed>0.0</speed>
  <fix>3d</fix>
</trkpt>
<trkpt lat="-27.2744391" lon="151.290064">
  <ele>343.11</ele>
  <time>2026-09-01T19:54:44Z</time>
  <course>10.85</course>
  <speed>0.01</speed>
  <fix>3d</fix>
</trkpt>
<trkpt lat="-27.274439" lon="151.290064">
  <ele>343.1</ele>
  <time>2026-09-01T19:54:44Z</time>
  <course>5.55</course>
  <speed>0.0</speed>
  <fix>3d</fix>
</trkpt>
<trkpt lat="-27.2744391" lon="151.290064">
  <ele>343.11</ele>
  <time>2026-09-01T19:54:44Z</time>
  <course>10.85</course>
  <speed>0.01</speed>
  <fix>3d</fix>
</trkpt>
<trkpt lat="-27.274439" lon="151.290064">
  <ele>343.1</ele>
  <time>2026-09-01T19:54:44Z</time>
  <course>5.55</course>
  <speed>0.0</speed>
  <fix>3d</fix>
</trkpt>
<trkpt lat="-27.2744391" lon="151.290064">
  <ele>343.1</ele>
  <time>2026-09-01T19:54:44Z</time>
  <course>10.85</course>
  <speed>0.01</speed>
  <fix>3d</fix>
</trkpt>
<trkpt lat="-27.274439" lon="151.290064">
  <ele>343.1</ele>
  <time>2026-09-01T19:54:44Z</time>
  <course>5.55</course>
  <speed>0.0</speed>
  <fix>3d</fix>
</trkpt>
<trkpt lat="-27.2744391" lon="151.290064">
  <ele>343.1</ele>
  <time>2026-09-01T19:54:44Z</time>
  <course>10.85</course>
  <speed>0.01</speed>
  <fix>3d</fix>
</trkpt>
<trkpt lat="-27.274439" lon="151.290064">
  <ele>343.1</ele>
  <time>2026-09-01T19:54:44Z</time>
  <course>5.55</course>
  <speed>0.0</speed>
  <fix>3d</fix>
</trkpt>
<trkpt lat="-27.2744391" lon="151.290064">
  <ele>343.1</ele>
  <time>2026-09-01T19:54:44Z</time>
  <course>10.85</course>
  <speed>0.01</speed>
  <fix>3d</fix>
</trkpt>
<trkpt lat="-27.274439" lon="151.290064">
  <ele>343.1</ele>
  <time>2026-09-01T19:54:44Z</time>
  <course>5.55</course>
  <speed>0.0</speed>
  <fix>3d</fix>
</trkpt>
<trkpt lat="-27.2744391" lon="151.290064">
  <ele>343.1</ele>
  <time>2026-09-01T19:54:44Z</time>
  <course>10.85</course>
  <speed>0.01</speed>
  <fix>3d</fix>
</trkpt>
<trkpt lat="-27.274439" lon="151.290064">
  <ele>343.1</ele>
  <time>2026-09-01T19:54:44Z</time>
  <course>5.55</course>
  <speed>0.0</speed>
  <fix>3d</fix>
</trkpt>
<trkpt lat="-27.2744391" lon="151.290064">
  <ele>343.1</ele>
  <time>2026-09-01T19:54:44Z</time>
  <course>10.85</course>
  <speed>0.01</speed>
  <fix>3d</fix>
</trkpt>
<trkpt lat="-27.274439" lon="151.290064">
  <ele>343.1</ele>
  <time>2026-09-01T19:54:44Z</time>
  <course>5.55</course>
  <speed>0.0</speed>
  <fix>3d</fix>
</trkpt>
<trkpt lat="-27.2744391" lon="151.290064">
  <ele>343.1</ele>
  <time>2026-09-01T19:54:44Z</time>
  <course>10.85</course>
  <speed>0.01</speed>
  <fix>3d</fix>
</trkpt>
<trkpt lat="-27.274439" lon="151.290064">
  <ele>343.1</ele>
  <time>2026-09-01T19:54:44Z</time>
  <course>5.55</course>
  <speed>0.0</speed>
  <fix>3d</fix>
</trkpt>
<trkpt lat="-27.2744391" lon="151.290064">
  <ele>343.1</ele>
  <time>2026-09-01T19:54:44Z</time>
  <course>10.85</course>
  <speed>0.01</speed>
  <fix>3d</fix>
</trkpt>
<trkpt lat="-27.274439" lon="151.290064">
  <ele>343.1</ele>
  <time>2026-09-01T19:54:44Z</time>
  <course>5.55</course>
  <speed>0.0</speed>
  <fix>3d</fix>
</trkpt>
<trkpt lat="-27.2744391" lon="151.290064">
  <ele>343.1</ele>
  <time>2026-09-01T19:54:44Z</time>
  <course>10.85</course>
  <speed>0.01</speed>
  <fix>3d</fix>
</trkpt>
<trkpt lat="-27.274439" lon="151.290064">
  <ele>343.1</ele>
  <time>2026-09-01T19:54:44Z</time>
  <course>5.55</course>
  <speed>0.0</speed>
  <fix>3d</fix>
</trkpt>
<trkpt lat="-27.2744391" lon="151.290064">
  <ele>343.1</ele>
  <time>2026-09-01T19:54:44Z</time>
  <course>10.86</course>
  <speed>0.01</speed>
  <fix>3d</fix>
</trkpt>
<trkpt lat="-27.274439" lon="151.290064">
  <ele>343.1</ele>
  <time>2026-09-01T19:54:44Z</time>
  <course>5.55</course>
  <speed>0.0</speed>
  <fix>3d</fix>
</trkpt>
<trkpt lat="-27.2744391" lon="151.290064">
  <ele>343.1</ele>
  <time>2026-09-01T19:54:44Z</time>
  <course>10.86</course>
  <speed>0.01</speed>
  <fix>3d</fix>
</trkpt>
<trkpt lat="-27.274439" lon="151.290064">
  <ele>343.1</ele>
  <time>2026-09-01T19:54:44Z</time>
  <course>5.55</course>
  <speed>0.0</speed>
  <fix>3d</fix>
</trkpt>
<trkpt lat="-27.2744391" lon="151.290064">
  <ele>343.1</ele>
  <time>2026-09-01T19:54:44Z</time>
  <course>10.86</course>
  <speed>0.01</speed>
  <fix>3d</fix>
</trkpt>
<trkpt lat="-27.274439" lon="151.290064">
  <ele>343.1</ele>
  <time>2026-09-01T19:54:44Z</time>
  <course>5.55</course>
  <speed>0.0</speed>
  <fix>3d</fix>
</trkpt>
<trkpt lat="-27.2744391" lon="151.290064">
  <ele>343.09</ele>
  <time>2026-09-01T19:54:44Z</time>
  <course>10.86</course>
  <speed>0.01</speed>
  <fix>3d</fix>
</trkpt>
<trkpt lat="-27.274439" lon="151.290064">
  <ele>343.1</ele>
  <time>2026-09-01T19:54:44Z</time>
  <course>5.55</course>
  <speed>0.0</speed>
  <fix>3d</fix>
</trkpt>
<trkpt lat="-27.2744391" lon="151.290064">
  <ele>343.09</ele>
  <time>2026-09-01T19:54:44Z</time>
  <course>10.86</course>
  <speed>0.01</speed>
  <fix>3d</fix>
</trkpt>
<trkpt lat="-27.274439" lon="151.290064">
  <ele>343.1</ele>
  <time>2026-09-01T19:54:44Z</time>
  <course>5.55</course>
  <speed>0.0</speed>
  <fix>3d</fix>
</trkpt>
<trkpt lat="-27.2744391" lon="151.290064">
  <ele>343.09</ele>
  <time>2026-09-01T19:54:44Z</time>
  <course>10.86</course>
  <speed>0.01</speed>
  <fix>3d</fix>
</trkpt>
<trkpt lat="-27.274439" lon="151.290064">
  <ele>343.1</ele>
  <time>2026-09-01T19:54:44Z</time>
  <course>5.55</course>
  <speed>0.0</speed>
  <fix>3d</fix>
</trkpt>
<trkpt lat="-27.2744391" lon="151.290064">
  <ele>343.09</ele>
  <time>2026-09-01T19:54:44Z</time>
  <course>10.86</course>
  <speed>0.01</speed>
  <fix>3d</fix>
</trkpt>
<trkpt lat="-27.274439" lon="151.290064">
  <ele>343.1</ele>
  <time>2026-09-01T19:54:44Z</time>
  <course>5.55</course>
  <speed>0.0</speed>
  <fix>3d</fix>
</trkpt>
<trkpt lat="-27.2744391" lon="151.290064">
  <ele>343.08</ele>
  <time>2026-09-01T19:54:44Z</time>
  <course>10.86</course>
  <speed>0.01</speed>
  <fix>3d</fix>
</trkpt>
<trkpt lat="-27.274439" lon="151.290064">
  <ele>343.1</ele>
  <time>2026-09-01T19:54:44Z</time>
  <course>5.55</course>
  <speed>0.0</speed>
  <fix>3d</fix>
</trkpt>
<trkpt lat="-27.2744391" lon="151.290064">
  <ele>343.09</ele>
  <time>2026-09-01T19:54:44Z</time>
  <course>10.86</course>
  <speed>0.01</speed>
  <fix>3d</fix>
</trkpt>
<trkpt lat="-27.274439" lon="151.290064">
  <ele>343.1</ele>
  <time>2026-09-01T19:54:44Z</time>
  <course>5.55</course>
  <speed>0.0</speed>
  <fix>3d</fix>
</trkpt>
<trkpt lat="-27.2744391" lon="151.290064">
  <ele>343.09</ele>
  <time>2026-09-01T19:54:44Z</time>
  <course>10.86</course>
  <speed>0.01</speed>
  <fix>3d</fix>
</trkpt>
<trkpt lat="-27.274439" lon="151.290064">
  <ele>343.1</ele>
  <time>2026-09-01T19:54:44Z</time>
  <course>5.55</course>
  <speed>0.0</speed>
  <fix>3d</fix>
</trkpt>
<trkpt lat="-27.2744391" lon="151.290064">
  <ele>343.09</ele>
  <time>2026-09-01T19:54:44Z</time>
  <course>10.87</course>
  <speed>0.01</speed>
  <fix>3d</fix>
</trkpt>
<trkpt lat="-27.274439" lon="151.290064">
  <ele>343.1</ele>
  <time>2026-09-01T19:54:44Z</time>
  <course>5.55</course>
  <speed>0.0</speed>
  <fix>3d</fix>
</trkpt>
<trkpt lat="-27.2744391" lon="151.290064">
  <ele>343.09</ele>
  <time>2026-09-01T19:54:44Z</time>
  <course>10.87</course>
  <speed>0.01</speed>
  <fix>3d</fix>
</trkpt>
<trkpt lat="-27.274439" lon="151.290064">
  <ele>343.1</ele>
  <time>2026-09-01T19:54:44Z</time>
  <course>5.55</course>
  <speed>0.0</speed>
  <fix>3d</fix>
</trkpt>
<trkpt lat="-27.2744391" lon="151.290064">
  <ele>343.09</ele>
  <time>2026-09-01T19:54:44Z</time>
  <course>10.87</course>
  <speed>0.01414213562373095</speed>
  <fix>3d</fix>
</trkpt>
<trkpt lat="-27.274439" lon="151.290064">
  <ele>343.1</ele>
  <time>2026-09-01T19:54:44Z</time>
  <course>5.55</course>
  <speed>0.0</speed>
  <fix>3d</fix>
</trkpt>
<trkpt lat="-27.2744391" lon="151.290064">
  <ele>343.09</ele>
  <time>2026-09-01T19:54:44Z</time>
  <course>10.87</course>
  <speed>0.01414213562373095</speed>
  <fix>3d</fix>
</trkpt>
<trkpt lat="-27.274439" lon="151.290064">
  <ele>343.1</ele>
  <time>2026-09-01T19:54:44Z</time>
  <course>5.55</course>
  <speed>0.0</speed>
  <fix>3d</fix>
</trkpt>
<trkpt lat="-27.2744391" lon="151.290064">
  <ele>343.09</ele>
  <time>2026-09-01T19:54:44Z</time>
  <course>10.87</course>
  <speed>0.01414213562373095</speed>
  <fix>3d</fix>
</trkpt>
<trkpt lat="-27.274439" lon="151.290064">
  <ele>343.1</ele>
  <time>2026-09-01T19:54:44Z</time>
  <course>5.55</course>
  <speed>0.0</speed>
  <fix>3d</fix>
</trkpt>
<trkpt lat="-27.2744391" lon="151.290064">
  <ele>343.09</ele>
  <time>2026-09-01T19:54:44Z</time>
  <course>10.87</course>
  <speed>0.01414213562373095</speed>
  <fix>3d</fix>
</trkpt>
<trkpt lat="-27.2744391" lon="151.290064">
  <ele>343.09</ele>
  <time>2026-09-01T19:54:44Z</time>
  <course>10.87</course>
  <speed>0.01414213562373095</speed>
  <fix>3d</fix>
</trkpt>
<trkpt lat="-27.274439" lon="151.290064">
  <ele>343.1</ele>
  <time>2026-09-01T19:54:44Z</time>
  <course>5.55</course>
  <speed>0.0</speed>
  <fix>3d</fix>
</trkpt>
<trkpt lat="-27.2744391" lon="151.290064">
  <ele>343.09</ele>
  <time>2026-09-01T19:54:44Z</time>
  <course>10.87</course>
  <speed>0.01414213562373095</speed>
  <fix>3d</fix>
</trkpt>
<trkpt lat="-27.2744391" lon="151.290064">
  <ele>343.09</ele>
  <time>2026-09-01T19:54:44Z</time>
  <course>10.87</course>
  <speed>0.01414213562373095</speed>
  <fix>3d</fix>
</trkpt>
<trkpt lat="-27.274439" lon="151.290064">
  <ele>343.1</ele>
  <time>2026-09-01T19:54:44Z</time>
  <course>5.55</course>
  <speed>0.0</speed>
  <fix>3d</fix>
</trkpt>
<trkpt lat="-27.2744391" lon="151.290064">
  <ele>343.09</ele>
  <time>2026-09-01T19:54:44Z</time>
  <course>10.87</course>
  <speed>0.01414213562373095</speed>
  <fix>3d</fix>
</trkpt>
<trkpt lat="-27.2744391" lon="151.290064">
  <ele>343.09</ele>
  <time>2026-09-01T19:54:44Z</time>
  <course>10.87</course>
  <speed>0.01414213562373095</speed>
  <fix>3d</fix>
</trkpt>
<trkpt lat="-27.274439" lon="151.290064">
  <ele>343.1</ele>
  <time>2026-09-01T19:54:44Z</time>
  <course>145.39</course>
  <speed>0.0</speed>
  <fix>3d</fix>
</trkpt>
<trkpt lat="-27.2744391" lon="151.290064">
  <ele>343.09</ele>
  <time>2026-09-01T19:54:44Z</time>
  <course>10.87</course>
  <speed>0.01414213562373095</speed>
  <fix>3d</fix>
</trkpt>
<trkpt lat="-27.2744391" lon="151.290064">
  <ele>343.09</ele>
  <time>2026-09-01T19:54:44Z</time>
  <course>10.87</course>
  <speed>0.01414213562373095</speed>
  <fix>3d</fix>
</trkpt>
<trkpt lat="-27.274439" lon="151.290064">
  <ele>343.1</ele>
  <time>2026-09-01T19:54:44Z</time>
  <course>145.39</course>
  <speed>0.0</speed>
  <fix>3d</fix>
</trkpt>
<trkpt lat="-27.2744391" lon="151.290064">
  <ele>343.09</ele>
  <time>2026-09-01T19:54:44Z</time>
  <course>10.87</course>
  <speed>0.01414213562373095</speed>
  <fix>3d</fix>
</trkpt>
<trkpt lat="-27.2744391" lon="151.290064">
  <ele>343.09</ele>
  <time>2026-09-01T19:54:44Z</time>
  <course>10.87</course>
  <speed>0.01414213562373095</speed>
  <fix>3d</fix>
</trkpt>
<trkpt lat="-27.274439" lon="151.290064">
  <ele>343.1</ele>
  <time>2026-09-01T19:54:44Z</time>
  <course>145.41</course>
  <speed>0.0</speed>
  <fix>3d</fix>
</trkpt>
<trkpt lat="-27.2744391" lon="151.290064">
  <ele>343.09</ele>
  <time>2026-09-01T19:54:44Z</time>
  <course>10.87</course>
  <speed>0.01414213562373095</speed>
  <fix>3d</fix>
</trkpt>
<trkpt lat="-27.2744391" lon="151.290064">
  <ele>343.09</ele>
  <time>2026-09-01T19:54:44Z</time>
  <course>10.87</course>
  <speed>0.01414213562373095</speed>
  <fix>3d</fix>
</trkpt>
<trkpt lat="-27.274439" lon="151.290064">
  <ele>343.1</ele>
  <time>2026-09-01T19:54:44Z</time>
  <course>145.41</course>
  <speed>0.0</speed>
  <fix>3d</fix>
</trkpt>
<trkpt lat="-27.2744391" lon="151.290064">
  <ele>343.09</ele>
  <time>2026-09-01T19:54:44Z</time>
  <course>10.87</course>
  <speed>0.01414213562373095</speed>
  <fix>3d</fix>
</trkpt>
<trkpt lat="-27.2744391" lon="151.290064">
  <ele>343.09</ele>
  <time>2026-09-01T19:54:44Z</time>
  <course>10.88</course>
  <speed>0.01414213562373095</speed>
  <fix>3d</fix>
</trkpt>
<trkpt lat="-27.274439" lon="151.290064">
  <ele>343.1</ele>
  <time>2026-09-01T19:54:44Z</time>
  <course>323.22</course>
  <speed>0.0</speed>
  <fix>3d</fix>
</trkpt>
<trkpt lat="-27.2744391" lon="151.290064">
  <ele>343.09</ele>
  <time>2026-09-01T19:54:44Z</time>
  <course>10.88</course>
  <speed>0.01414213562373095</speed>
  <fix>3d</fix>
</trkpt>
<trkpt lat="-27.2744391" lon="151.290064">
  <ele>343.09</ele>
  <time>2026-09-01T19:54:44Z</time>
  <course>10.88</course>
  <speed>0.01414213562373095</speed>
  <fix>3d</fix>
</trkpt>
<trkpt lat="-27.274439" lon="151.290064">
  <ele>343.1</ele>
  <time>2026-09-01T19:54:44Z</time>
  <course>323.22</course>
  <speed>0.0</speed>
  <fix>3d</fix>
</trkpt>
<trkpt lat="-27.2744391" lon="151.290064">
  <ele>343.09</ele>
  <time>2026-09-01T19:54:44Z</time>
  <course>10.88</course>
  <speed>0.01414213562373095</speed>
  <fix>3d</fix>
</trkpt>
<trkpt lat="-27.2744391" lon="151.290064">
  <ele>343.09</ele>
  <time>2026-09-01T19:54:44Z</time>
  <course>10.88</course>
  <speed>0.01414213562373095</speed>
  <fix>3d</fix>
</trkpt>
<trkpt lat="-27.274439" lon="151.290064">
  <ele>343.1</ele>
  <time>2026-09-01T19:54:44Z</time>
  <course>323.79</course>
  <speed>0.0</speed>
  <fix>3d</fix>
</trkpt>
<trkpt lat="-27.2744391" lon="151.290064">
  <ele>343.09</ele>
  <time>2026-09-01T19:54:44Z</time>
  <course>10.88</course>
  <speed>0.01414213562373095</speed>
  <fix>3d</fix>
</trkpt>
<trkpt lat="-27.2744391" lon="151.290064">
  <ele>343.09</ele>
  <time>2026-09-01T19:54:44Z</time>
  <course>10.88</course>
  <speed>0.01414213562373095</speed>
  <fix>3d</fix>
</trkpt>
<trkpt lat="-27.274439" lon="151.290064">
  <ele>343.1</ele>
  <time>2026-09-01T19:54:44Z</time>
  <course>323.79</course>
  <speed>0.0</speed>
  <fix>3d</fix>
</trkpt>
<trkpt lat="-27.2744391" lon="151.290064">
  <ele>343.09</ele>
  <time>2026-09-01T19:54:44Z</time>
  <course>10.88</course>
  <speed>0.01414213562373095</speed>
  <fix>3d</fix>
</trkpt>
<trkpt lat="-27.2744391" lon="151.290064">
  <ele>343.1</ele>
  <time>2026-09-01T19:54:44Z</time>
  <course>10.88</course>
  <speed>0.01414213562373095</speed>
  <fix>3d</fix>
</trkpt>
<trkpt lat="-27.274439" lon="151.290064">
  <ele>343.1</ele>
  <time>2026-09-01T19:54:44Z</time>
  <course>7.1</course>
  <speed>0.0</speed>
  <fix>3d</fix>
</trkpt>
<trkpt lat="-27.2744391" lon="151.290064">
  <ele>343.11</ele>
  <time>2026-09-01T19:54:44Z</time>
  <course>10.88</course>
  <speed>0.01414213562373095</speed>
  <fix>3d</fix>
</trkpt>
<trkpt lat="-27.2744391" lon="151.290064">
  <ele>343.14</ele>
  <time>2026-09-01T19:54:44Z</time>
  <course>10.88</course>
  <speed>0.01414213562373095</speed>
  <fix>3d</fix>
</trkpt>
<trkpt lat="-27.274439" lon="151.290064">
  <ele>343.1</ele>
  <time>2026-09-01T19:54:44Z</time>
  <course>7.1</course>
  <speed>0.0</speed>
  <fix>3d</fix>
</trkpt>
<trkpt lat="-27.2744391" lon="151.290064">
  <ele>343.14</ele>
  <time>2026-09-01T19:54:44Z</time>
  <course>10.88</course>
  <speed>0.01414213562373095</speed>
  <fix>3d</fix>
</trkpt>
<trkpt lat="-27.2744391" lon="151.290064">
  <ele>343.19</ele>
  <time>2026-09-01T19:54:44Z</time>
  <course>10.88</course>
  <speed>0.01</speed>
  <fix>3d</fix>
</trkpt>
<trkpt lat="-27.274439" lon="151.290064">
  <ele>343.12</ele>
  <time>2026-09-01T19:54:44Z</time>
  <course>7.95</course>
  <speed>0.0</speed>
  <fix>3d</fix>
</trkpt>
<trkpt lat="-27.2744391" lon="151.290064">
  <ele>343.19</ele>
  <time>2026-09-01T19:54:44Z</time>
  <course>10.88</course>
  <speed>0.01</speed>
  <fix>3d</fix>
</trkpt>
<trkpt lat="-27.2744391" lon="151.2900641">
  <ele>343.27</ele>
  <time>2026-09-01T19:54:44Z</time>
  <course>10.88</course>
  <speed>0.01</speed>
  <fix>3d</fix>
</trkpt>
<trkpt lat="-27.274439" lon="151.290064">
  <ele>343.12</ele>
  <time>2026-09-01T19:54:44Z</time>
  <course>7.95</course>
  <speed>0.0</speed>
  <fix>3d</fix>
</trkpt>
<trkpt lat="-27.2744391" lon="151.2900641">
  <ele>343.31</ele>
  <time>2026-09-01T19:54:44Z</time>
  <course>10.88</course>
  <speed>0.01414213562373095</speed>
  <fix>3d</fix>
</trkpt>
<trkpt lat="-27.2744391" lon="151.2900641">
  <ele>343.43</ele>
  <time>2026-09-01T19:54:44Z</time>
  <course>10.88</course>
  <speed>0.0316227766016838</speed>
  <fix>3d</fix>
</trkpt>
<trkpt lat="-27.274439" lon="151.290064">
  <ele>343.21</ele>
  <time>2026-09-01T19:54:44Z</time>
  <course>6.72</course>
  <speed>0.01</speed>
  <fix>3d</fix>
</trkpt>
<trkpt lat="-27.2744391" lon="151.2900641">
  <ele>343.48</ele>
  <time>2026-09-01T19:54:44Z</time>
  <course>10.88</course>
  <speed>0.0412310562561766</speed>
  <fix>3d</fix>
</trkpt>
<trkpt lat="-27.2744391" lon="151.2900641">
  <ele>343.64</ele>
  <time>2026-09-01T19:54:44Z</time>
  <course>10.87</course>
  <speed>0.07280109889280519</speed>
  <fix>3d</fix>
</trkpt>
<trkpt lat="-27.274439" lon="151.290064">
  <ele>343.21</ele>
  <time>2026-09-01T19:54:44Z</time>
  <course>6.72</course>
  <speed>0.01</speed>
  <fix>3d</fix>
</trkpt>
<trkpt lat="-27.274439" lon="151.2900641">
  <ele>343.7</ele>
  <time>2026-09-01T19:54:44Z</time>
  <course>10.87</course>
  <speed>0.0824621125123532</speed>
  <fix>3d</fix>
</trkpt>
<trkpt lat="-27.274439" lon="151.2900641">
  <ele>343.88</ele>
  <time>2026-09-01T19:54:44Z</time>
  <course>10.87</course>
  <speed>0.11401754250991379</speed>
  <fix>3d</fix>
</trkpt>
<trkpt lat="-27.2744389" lon="151.290064">
  <ele>343.46</ele>
  <time>2026-09-01T19:54:44Z</time>
  <course>6.98</course>
  <speed>0.05</speed>
  <fix>3d</fix>
</trkpt>
<trkpt lat="-27.2744389" lon="151.2900641">
  <ele>343.95</ele>
  <time>2026-09-01T19:54:44Z</time>
  <course>10.87</course>
  <speed>0.12369316876852982</speed>
  <fix>3d</fix>
</trkpt>
<trkpt lat="-27.2744388" lon="151.2900641">
  <ele>344.15</ele>
  <time>2026-09-01T19:54:44Z</time>
  <course>10.86</course>
  <speed>0.15297058540778355</speed>
  <fix>3d</fix>
</trkpt>
<trkpt lat="-27.2744389" lon="151.290064">
  <ele>343.46</ele>
  <time>2026-09-01T19:54:44Z</time>
  <course>6.98</course>
  <speed>0.05</speed>
  <fix>3d</fix>
</trkpt>
<trkpt lat="-27.2744388" lon="151.2900641">
  <ele>344.21</ele>
  <time>2026-09-01T19:54:44Z</time>
  <course>10.86</course>
  <speed>0.1649242250247064</speed>
  <fix>3d</fix>
</trkpt>
<trkpt lat="-27.2744387" lon="151.2900641">
  <ele>344.42</ele>
  <time>2026-09-01T19:54:44Z</time>
  <course>10.86</course>
  <speed>0.194164878389476</speed>
  <fix>3d</fix>
</trkpt>
<trkpt lat="-27.2744388" lon="151.290064">
  <ele>343.89</ele>
  <time>2026-09-01T19:54:44Z</time>
  <course>7.29</course>
  <speed>0.12</speed>
  <fix>3d</fix>
</trkpt>
<trkpt lat="-27.2744386" lon="151.2900641">
  <ele>344.5</ele>
  <time>2026-09-01T19:54:44Z</time>
  <course>10.85</course>
  <speed>0.2039607805437114</speed>
  <fix>3d</fix>
</trkpt>
<trkpt lat="-27.2744385" lon="151.2900642">
  <ele>344.71</ele>
  <time>2026-09-01T19:54:44Z</time>
  <course>10.85</course>
  <speed>0.2353720459187964</speed>
  <fix>3d</fix>
</trkpt>
<trkpt lat="-27.2744388" lon="151.290064">
  <ele>343.89</ele>
  <time>2026-09-01T19:54:44Z</time>
  <course>7.29</course>
  <speed>0.12</speed>
  <fix>3d</fix>
</trkpt>
<trkpt lat="-27.2744385" lon="151.2900642">
  <ele>344.72</ele>
  <time>2026-09-01T19:54:44Z</time>
  <course>10.85</course>
  <speed>0.2353720459187964</speed>
  <fix>3d</fix>
</trkpt>
<trkpt lat="-27.2744382" lon="151.2900642">
  <ele>345.01</ele>
  <time>2026-09-01T19:54:44Z</time>
  <course>10.85</course>
  <speed>0.26476404589747454</speed>
  <fix>3d</fix>
</trkpt>
<trkpt lat="-27.2744385" lon="151.290064">
  <ele>344.43</ele>
  <time>2026-09-01T19:54:44Z</time>
  <course>7.52</course>
  <speed>0.2</speed>
  <fix>3d</fix>
</trkpt>
<trkpt lat="-27.2744381" lon="151.2900642">
  <ele>345.1</ele>
  <time>2026-09-01T19:54:44Z</time>
  <course>10.85</course>
  <speed>0.2765863337187866</speed>
  <fix>3d</fix>
</trkpt>
<trkpt lat="-27.274438" lon="151.2900643">
  <ele>345.32</ele>
  <time>2026-09-01T19:54:44Z</time>
  <course>10.75</course>
  <speed>0.3059411708155671</speed>
  <fix>3d</fix>
</trkpt>
<trkpt lat="-27.2744385" lon="151.290064">
  <ele>344.43</ele>
  <time>2026-09-01T19:54:44Z</time>
  <course>7.52</course>
  <speed>0.2</speed>
  <fix>3d</fix>
</trkpt>
<trkpt lat="-27.2744379" lon="151.2900643">
  <ele>345.41</ele>
  <time>2026-09-01T19:54:44Z</time>
  <course>10.75</course>
  <speed>0.3059411708155671</speed>
  <fix>3d</fix>
</trkpt>
<trkpt lat="-27.2744377" lon="151.2900643">
  <ele>345.64</ele>
  <time>2026-09-01T19:54:44Z</time>
  <course>10.75</course>
  <speed>0.33734255586865997</speed>
  <fix>3d</fix>
</trkpt>
<trkpt lat="-27.274438" lon="151.2900641">
  <ele>345.01</ele>
  <time>2026-09-01T19:54:44Z</time>
  <course>7.69</course>
  <speed>0.28</speed>
  <fix>3d</fix>
</trkpt>
<trkpt lat="-27.2744377" lon="151.2900643">
  <ele>345.65</ele>
  <time>2026-09-01T19:54:44Z</time>
  <course>10.75</course>
  <speed>0.33734255586865997</speed>
  <fix>3d</fix>
</trkpt>
<trkpt lat="-27.2744373" lon="151.2900644">
  <ele>345.96</ele>
  <time>2026-09-01T19:54:44Z</time>
  <course>10.75</course>
  <speed>0.356931365951495</speed>
  <fix>3d</fix>
</trkpt>
<trkpt lat="-27.274438" lon="151.2900641">
  <ele>345.01</ele>
  <time>2026-09-01T19:54:44Z</time>
  <course>7.69</course>
  <speed>0.28</speed>
  <fix>3d</fix>
</trkpt>
<trkpt lat="-27.2744373" lon="151.2900644">
  <ele>345.97</ele>
  <time>2026-09-01T19:54:45Z</time>
  <course>10.75</course>
  <speed>0.356931365951495</speed>
  <fix>3d</fix>
</trkpt>
<trkpt lat="-27.274437" lon="151.2900644">
  <ele>346.28</ele>
  <time>2026-09-01T19:54:45Z</time>
  <course>10.75</course>
  <speed>0.37656340767525465</speed>
  <fix>3d</fix>
</trkpt>
<trkpt lat="-27.2744375" lon="151.2900641">
  <ele>345.62</ele>
  <time>2026-09-01T19:54:45Z</time>
  <course>7.83</course>
  <speed>0.34</speed>
  <fix>3d</fix>
</trkpt>
<trkpt lat="-27.2744369" lon="151.2900644">
  <ele>346.37</ele>
  <time>2026-09-01T19:54:45Z</time>
  <course>10.74</course>
  <speed>0.388329756778952</speed>
  <fix>3d</fix>
</trkpt>
<trkpt lat="-27.2744367" lon="151.2900645">
  <ele>346.6</ele>
  <time>2026-09-01T19:54:45Z</time>
  <course>10.74</course>
  <speed>0.39812058474788764</speed>
  <fix>3d</fix>
</trkpt>
<trkpt lat="-27.2744375" lon="151.2900641">
  <ele>345.62</ele>
  <time>2026-09-01T19:54:45Z</time>
  <course>7.83</course>
  <speed>0.34</speed>
  <fix>3d</fix>
</trkpt>
<trkpt lat="-27.2744366" lon="151.2900645">
  <ele>346.68</ele>
  <time>2026-09-01T19:54:45Z</time>
  <course>10.74</course>
  <speed>0.39812058474788764</speed>
  <fix>3d</fix>
</trkpt>
<trkpt lat="-27.2744363" lon="151.2900645">
  <ele>346.91</ele>
  <time>2026-09-01T19:54:45Z</time>
  <course>10.73</course>
  <speed>0.39812058474788764</speed>
  <fix>3d</fix>
</trkpt>
<trkpt lat="-27.2744368" lon="151.2900642">
  <ele>346.26</ele>
  <time>2026-09-01T19:54:45Z</time>
  <course>7.95</course>
  <speed>0.39</speed>
  <fix>3d</fix>
</trkpt>
<trkpt lat="-27.2744362" lon="151.2900645">
  <ele>346.99</ele>
  <time>2026-09-01T19:54:45Z</time>
  <course>10.72</course>
  <speed>0.4079215610874228</speed>
  <fix>3d</fix>
</trkpt>
<trkpt lat="-27.2744359" lon="151.2900646">
  <ele>347.22</ele>
  <time>2026-09-01T19:54:45Z</time>
  <course>10.72</course>
  <speed>0.4079215610874228</speed>
  <fix>3d</fix>
</trkpt>
<trkpt lat="-27.2744368" lon="151.2900642">
  <ele>346.26</ele>
  <time>2026-09-01T19:54:45Z</time>
  <course>7.95</course>
  <speed>0.39</speed>
  <fix>3d</fix>
</trkpt>
<trkpt lat="-27.2744358" lon="151.2900646">
  <ele>347.3</ele>
  <time>2026-09-01T19:54:45Z</time>
  <course>10.72</course>
  <speed>0.4079215610874228</speed>
  <fix>3d</fix>
</trkpt>
<trkpt lat="-27.2744355" lon="151.2900646">
  <ele>347.52</ele>
  <time>2026-09-01T19:54:45Z</time>
  <course>10.71</course>
  <speed>0.4079215610874228</speed>
  <fix>3d</fix>
</trkpt>
<trkpt lat="-27.2744361" lon="151.2900644">
  <ele>346.88</ele>
  <time>2026-09-01T19:54:45Z</time>
  <course>8.08</course>
  <speed>0.42</speed>
  <fix>3d</fix>
</trkpt>
<trkpt lat="-27.2744354" lon="151.2900647">
  <ele>347.6</ele>
  <time>2026-09-01T19:54:45Z</time>
  <course>10.71</course>
  <speed>0.39812058474788764</speed>
  <fix>3d</fix>
</trkpt>
<trkpt lat="-27.2744352" lon="151.2900647">
  <ele>347.82</ele>
  <time>2026-09-01T19:54:45Z</time>
  <course>10.71</course>
  <speed>0.39812058474788764</speed>
  <fix>3d</fix>
</trkpt>
<trkpt lat="-27.2744361" lon="151.2900644">
  <ele>346.88</ele>
  <time>2026-09-01T19:54:45Z</time>
  <course>8.08</course>
  <speed>0.42</speed>
  <fix>3d</fix>
</trkpt>
<trkpt lat="-27.2744351" lon="151.2900647">
  <ele>347.9</ele>
  <time>2026-09-01T19:54:45Z</time>
  <course>10.71</course>
  <speed>0.39812058474788764</speed>
  <fix>3d</fix>
</trkpt>
<trkpt lat="-27.2744348" lon="151.2900648">
  <ele>348.11</ele>
  <time>2026-09-01T19:54:45Z</time>
  <course>10.7</course>
  <speed>0.38639358172723315</speed>
  <fix>3d</fix>
</trkpt>
<trkpt lat="-27.2744353" lon="151.2900645">
  <ele>347.49</ele>
  <time>2026-09-01T19:54:45Z</time>
  <course>8.24</course>
  <speed>0.42</speed>
  <fix>3d</fix>
</trkpt>
<trkpt lat="-27.2744347" lon="151.2900648">
  <ele>348.18</ele>
  <time>2026-09-01T19:54:45Z</time>
  <course>10.7</course>
  <speed>0.37656340767525465</speed>
  <fix>3d</fix>
</trkpt>
<trkpt lat="-27.2744345" lon="151.2900648">
  <ele>348.39</ele>
  <time>2026-09-01T19:54:45Z</time>
  <course>10.71</course>
  <speed>0.366742416417845</speed>
  <fix>3d</fix>
</trkpt>
<trkpt lat="-27.2744353" lon="151.2900645">
  <ele>347.49</ele>
  <time>2026-09-01T19:54:45Z</time>
  <course>8.24</course>
  <speed>0.42</speed>
  <fix>3d</fix>
</trkpt>
<trkpt lat="-27.2744344" lon="151.2900648">
  <ele>348.46</ele>
  <time>2026-09-01T19:54:45Z</time>
  <course>10.71</course>
  <speed>0.366742416417845</speed>
  <fix>3d</fix>
</trkpt>
<trkpt lat="-27.2744341" lon="151.2900649">
  <ele>348.66</ele>
  <time>2026-09-01T19:54:45Z</time>
  <course>10.71</course>
  <speed>0.34713109915419565</speed>
  <fix>3d</fix>
</trkpt>
<trkpt lat="-27.2744346" lon="151.2900646">
  <ele>348.07</ele>
  <time>2026-09-01T19:54:45Z</time>
  <course>8.44</course>
  <speed>0.4</speed>
  <fix>3d</fix>
</trkpt>
<trkpt lat="-27.274434" lon="151.2900649">
  <ele>348.74</ele>
  <time>2026-09-01T19:54:45Z</time>
  <course>10.72</course>
  <speed>0.34525353003264136</speed>
  <fix>3d</fix>
</trkpt>
<trkpt lat="-27.2744338" lon="151.2900649">
  <ele>348.93</ele>
  <time>2026-09-01T19:54:45Z</time>
  <course>10.72</course>
  <speed>0.3255764119219941</speed>
  <fix>3d</fix>
</trkpt>
<trkpt lat="-27.2744346" lon="151.2900646">
  <ele>348.07</ele>
  <time>2026-09-01T19:54:45Z</time>
  <course>8.44</course>
  <speed>0.4</speed>
  <fix>3d</fix>
</trkpt>
<trkpt lat="-27.2744338" lon="151.2900649">
  <ele>348.94</ele>
  <time>2026-09-01T19:54:45Z</time>
  <course>10.73</course>
  <speed>0.3255764119219941</speed>
  <fix>3d</fix>
</trkpt>
<trkpt lat="-27.2744335" lon="151.290065">
  <ele>349.19</ele>
  <time>2026-09-01T19:54:45Z</time>
  <course>10.73</course>
  <speed>0.29614185789921693</speed>
  <fix>3d</fix>
</trkpt>
<trkpt lat="-27.2744339" lon="151.2900647">
  <ele>348.62</ele>
  <time>2026-09-01T19:54:45Z</time>
  <course>8.75</course>
  <speed>0.37</speed>
  <fix>3d</fix>
</trkpt>
<trkpt lat="-27.2744335" lon="151.290065">
  <ele>349.2</ele>
  <time>2026-09-01T19:54:45Z</time>
  <course>10.73</course>
  <speed>0.29614185789921693</speed>
  <fix>3d</fix>
</trkpt>
<trkpt lat="-27.2744333" lon="151.290065">
  <ele>349.45</ele>
  <time>2026-09-01T19:54:45Z</time>
  <course>10.75</course>
  <speed>0.26476404589747454</speed>
  <fix>3d</fix>
</trkpt>
<trkpt lat="-27.2744339" lon="151.2900647">
  <ele>348.62</ele>
  <time>2026-09-01T19:54:45Z</time>
  <course>8.75</course>
  <speed>0.37</speed>
  <fix>3d</fix>
</trkpt>
<trkpt lat="-27.2744332" lon="151.290065">
  <ele>349.52</ele>
  <time>2026-09-01T19:54:45Z</time>
  <course>10.75</course>
  <speed>0.25495097567963926</speed>
  <fix>3d</fix>
</trkpt>
<trkpt lat="-27.274433" lon="151.290065">
  <ele>349.71</ele>
  <time>2026-09-01T19:54:45Z</time>
  <course>10.76</course>
  <speed>0.23345235059857505</speed>
  <fix>3d</fix>
</trkpt>
<trkpt lat="-27.2744333" lon="151.2900648">
  <ele>349.14</ele>
  <time>2026-09-01T19:54:45Z</time>
  <course>9.27</course>
  <speed>0.32</speed>
  <fix>3d</fix>
</trkpt>
<trkpt lat="-27.2744329" lon="151.290065">
  <ele>349.78</ele>
  <time>2026-09-01T19:54:45Z</time>
  <course>10.76</course>
  <speed>0.223606797749979</speed>
  <fix>3d</fix>
</trkpt>
<trkpt lat="-27.2744328" lon="151.290065">
  <ele>349.96</ele>
  <time>2026-09-01T19:54:45Z</time>
  <course>10.77</course>
  <speed>0.2039607805437114</speed>
  <fix>3d</fix>
</trkpt>
<trkpt lat="-27.2744333" lon="151.2900648">
  <ele>349.14</ele>
  <time>2026-09-01T19:54:45Z</time>
  <course>9.27</course>
  <speed>0.32</speed>
  <fix>3d</fix>
</trkpt>
<trkpt lat="-27.2744327" lon="151.2900651">
  <ele>350.02</ele>
  <time>2026-09-01T19:54:45Z</time>
  <course>10.78</course>
  <speed>0.194164878389476</speed>
  <fix>3d</fix>
</trkpt>
<trkpt lat="-27.2744326" lon="151.2900651">
  <ele>350.2</ele>
  <time>2026-09-01T19:54:45Z</time>
  <course>10.79</course>
  <speed>0.17262676501632068</speed>
  <fix>3d</fix>
</trkpt>
<trkpt lat="-27.2744328" lon="151.2900649">
  <ele>349.64</ele>
  <time>2026-09-01T19:54:45Z</time>
  <course>10.19</course>
  <speed>0.26</speed>
  <fix>3d</fix>
</trkpt>
<trkpt lat="-27.2744326" lon="151.2900651">
  <ele>350.27</ele>
  <time>2026-09-01T19:54:45Z</time>
  <course>10.79</course>
  <speed>0.16278820596099705</speed>
  <fix>3d</fix>
</trkpt>
<trkpt lat="-27.2744325" lon="151.2900651">
  <ele>350.45</ele>
  <time>2026-09-01T19:54:45Z</time>
  <course>10.8</course>
  <speed>0.13341664064126335</speed>
  <fix>3d</fix>
</trkpt>
<trkpt lat="-27.2744328" lon="151.2900649">
  <ele>349.64</ele>
  <time>2026-09-01T19:54:45Z</time>
  <course>10.19</course>
  <speed>0.26</speed>
  <fix>3d</fix>
</trkpt>
<trkpt lat="-27.2744324" lon="151.2900651">
  <ele>350.51</ele>
  <time>2026-09-01T19:54:45Z</time>
  <course>10.81</course>
  <speed>0.12165525060596438</speed>
  <fix>3d</fix>
</trkpt>
<trkpt lat="-27.2744323" lon="151.2900651">
  <ele>350.69</ele>
  <time>2026-09-01T19:54:45Z</time>
  <course>10.82</course>
  <speed>0.1019803902718557</speed>
  <fix>3d</fix>
</trkpt>
<trkpt lat="-27.2744324" lon="151.290065">
  <ele>350.13</ele>
  <time>2026-09-01T19:54:45Z</time>
  <course>11.88</course>
  <speed>0.19</speed>
  <fix>3d</fix>
</trkpt>
<trkpt lat="-27.2744323" lon="151.2900651">
  <ele>350.75</ele>
  <time>2026-09-01T19:54:45Z</time>
  <course>10.82</course>
  <speed>0.09219544457292887</speed>
  <fix>3d</fix>
</trkpt>
<trkpt lat="-27.2744322" lon="151.2900651">
  <ele>350.93</ele>
  <time>2026-09-01T19:54:45Z</time>
  <course>10.84</course>
  <speed>0.07071067811865475</speed>
  <fix>3d</fix>
</trkpt>
<trkpt lat="-27.2744324" lon="151.290065">
  <ele>350.13</ele>
  <time>2026-09-01T19:54:45Z</time>
  <course>11.88</course>
  <speed>0.19</speed>
  <fix>3d</fix>
</trkpt>
<trkpt lat="-27.2744322" lon="151.2900651">
  <ele>350.98</ele>
  <time>2026-09-01T19:54:45Z</time>
  <course>10.84</course>
  <speed>0.06082762530298219</speed>
  <fix>3d</fix>
</trkpt>
<trkpt lat="-27.2744322" lon="151.2900651">
  <ele>351.17</ele>
  <time>2026-09-01T19:54:45Z</time>
  <course>10.86</course>
  <speed>0.0412310562561766</speed>
  <fix>3d</fix>
</trkpt>
<trkpt lat="-27.2744321" lon="151.2900651">
  <ele>350.6</ele>
  <time>2026-09-01T19:54:45Z</time>
  <course>15.46</course>
  <speed>0.12</speed>
  <fix>3d</fix>
</trkpt>
<trkpt lat="-27.2744321" lon="151.2900651">
  <ele>351.23</ele>
  <time>2026-09-01T19:54:45Z</time>
  <course>10.87</course>
  <speed>0.0316227766016838</speed>
  <fix>3d</fix>
</trkpt>
<trkpt lat="-27.2744321" lon="151.2900651">
  <ele>351.41</ele>
  <time>2026-09-01T19:54:45Z</time>
  <course>10.88</course>
  <speed>0.0</speed>
  <fix>3d</fix>
</trkpt>
<trkpt lat="-27.2744321" lon="151.2900651">
  <ele>350.6</ele>
  <time>2026-09-01T19:54:45Z</time>
  <course>15.46</course>
  <speed>0.12</speed>
  <fix>3d</fix>
</trkpt>
<trkpt lat="-27.2744321" lon="151.2900651">
  <ele>351.47</ele>
  <time>2026-09-01T19:54:45Z</time>
  <course>10.89</course>
  <speed>0.0</speed>
  <fix>3d</fix>
</trkpt>
<trkpt lat="-27.2744321" lon="151.2900651">
  <ele>351.65</ele>
  <time>2026-09-01T19:54:45Z</time>
  <course>10.91</course>
  <speed>0.01</speed>
  <fix>3d</fix>
</trkpt>
<trkpt lat="-27.2744319" lon="151.2900651">
  <ele>351.07</ele>
  <time>2026-09-01T19:54:45Z</time>
  <course>26.23</course>
  <speed>0.06</speed>
  <fix>3d</fix>
</trkpt>
<trkpt lat="-27.2744321" lon="151.2900651">
  <ele>351.66</ele>
  <time>2026-09-01T19:54:45Z</time>
  <course>10.91</course>
  <speed>0.01</speed>
  <fix>3d</fix>
</trkpt>
<trkpt lat="-27.2744321" lon="151.2900651">
  <ele>351.89</ele>
  <time>2026-09-01T19:54:45Z</time>
  <course>10.94</course>
  <speed>0.04</speed>
  <fix>3d</fix>
</trkpt>
<trkpt lat="-27.2744319" lon="151.2900651">
  <ele>351.07</ele>
  <time>2026-09-01T19:54:45Z</time>
  <course>26.23</course>
  <speed>0.06</speed>
  <fix>3d</fix>
</trkpt>
<trkpt lat="-27.2744321" lon="151.2900651">
  <ele>351.9</ele>
  <time>2026-09-01T19:54:45Z</time>
  <course>10.94</course>
  <speed>0.04</speed>
  <fix>3d</fix>
</trkpt>
<trkpt lat="-27.2744321" lon="151.2900651">
  <ele>352.13</ele>
  <time>2026-09-01T19:54:45Z</time>
  <course>10.98</course>
  <speed>0.06</speed>
  <fix>3d</fix>
</trkpt>
<trkpt lat="-27.2744319" lon="151.2900652">
  <ele>351.55</ele>
  <time>2026-09-01T19:54:45Z</time>
  <course>107.61</course>
  <speed>0.02</speed>
  <fix>3d</fix>
</trkpt>
<trkpt lat="-27.2744321" lon="151.2900651">
  <ele>352.2</ele>
  <time>2026-09-01T19:54:45Z</time>
  <course>10.99</course>
  <speed>0.07</speed>
  <fix>3d</fix>
</trkpt>
<trkpt lat="-27.2744322" lon="151.2900651">
  <ele>352.37</ele>
  <time>2026-09-01T19:54:45Z</time>
  <course>11.03</course>
  <speed>0.09</speed>
  <fix>3d</fix>
</trkpt>
<trkpt lat="-27.2744319" lon="151.2900652">
  <ele>351.55</ele>
  <time>2026-09-01T19:54:45Z</time>
  <course>107.61</course>
  <speed>0.02</speed>
  <fix>3d</fix>
</trkpt>
<trkpt lat="-27.2744322" lon="151.2900651">
  <ele>352.38</ele>
  <time>2026-09-01T19:54:45Z</time>
  <course>11.03</course>
  <speed>0.09055385138137417</speed>
  <fix>3d</fix>
</trkpt>
<trkpt lat="-27.2744323" lon="151.2900651">
  <ele>352.61</ele>
  <time>2026-09-01T19:54:45Z</time>
  <course>11.08</course>
  <speed>0.1004987562112089</speed>
  <fix>3d</fix>
</trkpt>
<trkpt lat="-27.2744319" lon="151.2900652">
  <ele>352.02</ele>
  <time>2026-09-01T19:54:45Z</time>
  <course>168.3</course>
  <speed>0.06</speed>
  <fix>3d</fix>
</trkpt>
<trkpt lat="-27.2744323" lon="151.2900651">
  <ele>352.67</ele>
  <time>2026-09-01T19:54:45Z</time>
  <course>11.09</course>
  <speed>0.11045361017187261</speed>
  <fix>3d</fix>
</trkpt>
<trkpt lat="-27.2744322" lon="151.2900652">
  <ele>352.85</ele>
  <time>2026-09-01T19:54:45Z</time>
  <course>11.14</course>
  <speed>0.12041594578792296</speed>
  <fix>3d</fix>
</trkpt>
<trkpt lat="-27.2744319" lon="151.2900652">
  <ele>352.02</ele>
  <time>2026-09-01T19:54:45Z</time>
  <course>168.3</course>
  <speed>0.06</speed>
  <fix>3d</fix>
</trkpt>
<trkpt lat="-27.2744323" lon="151.2900652">
  <ele>352.91</ele>
  <time>2026-09-01T19:54:45Z</time>
  <course>11.15</course>
  <speed>0.13152946437965907</speed>
  <fix>3d</fix>
</trkpt>
<trkpt lat="-27.2744323" lon="151.2900652">
  <ele>353.1</ele>
  <time>2026-09-01T19:54:45Z</time>
  <course>11.2</course>
  <speed>0.1414213562373095</speed>
  <fix>3d</fix>
</trkpt>
<trkpt lat="-27.274432" lon="151.2900652">
  <ele>352.5</ele>
  <time>2026-09-01T19:54:45Z</time>
  <course>177.91</course>
  <speed>0.1</speed>
  <fix>3d</fix>
</trkpt>
<trkpt lat="-27.2744324" lon="151.2900652">
  <ele>353.16</ele>
  <time>2026-09-01T19:54:45Z</time>
  <course>11.22</course>
  <speed>0.1414213562373095</speed>
  <fix>3d</fix>
</trkpt>
<trkpt lat="-27.2744325" lon="151.2900652">
  <ele>353.34</ele>
  <time>2026-09-01T19:54:45Z</time>
  <course>11.26</course>
  <speed>0.15132745950421556</speed>
  <fix>3d</fix>
</trkpt>
<trkpt lat="-27.274432" lon="151.2900652">
  <ele>352.5</ele>
  <time>2026-09-01T19:54:45Z</time>
  <course>177.91</course>
  <speed>0.1</speed>
  <fix>3d</fix>
</trkpt>
<trkpt lat="-27.2744325" lon="151.2900652">
  <ele>353.4</ele>
  <time>2026-09-01T19:54:45Z</time>
  <course>11.28</course>
  <speed>0.15132745950421556</speed>
  <fix>3d</fix>
</trkpt>
<trkpt lat="-27.2744326" lon="151.2900652">
  <ele>353.59</ele>
  <time>2026-09-01T19:54:45Z</time>
  <course>11.31</course>
  <speed>0.16278820596099705</speed>
  <fix>3d</fix>
</trkpt>
<trkpt lat="-27.2744322" lon="151.2900652">
  <ele>352.98</ele>
  <time>2026-09-01T19:54:45Z</time>
  <course>182.3</course>
  <speed>0.14</speed>
  <fix>3d</fix>
</trkpt>
<trkpt lat="-27.2744326" lon="151.2900652">
  <ele>353.65</ele>
  <time>2026-09-01T19:54:45Z</time>
  <course>11.32</course>
  <speed>0.16278820596099705</speed>
  <fix>3d</fix>
</trkpt>
<trkpt lat="-27.2744327" lon="151.2900651">
  <ele>353.83</ele>
  <time>2026-09-01T19:54:45Z</time>
  <course>11.34</course>
  <speed>0.17262676501632068</speed>
  <fix>3d</fix>
</trkpt>
<trkpt lat="-27.2744322" lon="151.2900652">
  <ele>352.98</ele>
  <time>2026-09-01T19:54:45Z</time>
  <course>182.3</course>
  <speed>0.14</speed>
  <fix>3d</fix>
</trkpt>
<trkpt lat="-27.2744328" lon="151.2900651">
  <ele>353.9</ele>
  <time>2026-09-01T19:54:45Z</time>
  <course>11.34</course>
  <speed>0.17464249196572978</speed>
  <fix>3d</fix>
</trkpt>
<trkpt lat="-27.2744329" lon="151.2900651">
  <ele>354.08</ele>
  <time>2026-09-01T19:54:45Z</time>
  <course>11.32</course>
  <speed>0.18439088914585774</speed>
  <fix>3d</fix>
</trkpt>
<trkpt lat="-27.2744325" lon="151.2900652">
  <ele>353.47</ele>
  <time>2026-09-01T19:54:45Z</time>
  <course>184.68</course>
  <speed>0.16</speed>
  <fix>3d</fix>
</trkpt>
<trkpt lat="-27.2744329" lon="151.2900651">
  <ele>354.09</ele>
  <time>2026-09-01T19:54:45Z</time>
  <course>11.32</course>
  <speed>0.18439088914585774</speed>
  <fix>3d</fix>
</trkpt>
<trkpt lat="-27.274433" lon="151.2900651">
  <ele>354.33</ele>
  <time>2026-09-01T19:54:45Z</time>
  <course>11.27</course>
  <speed>0.1824828759089466</speed>
  <fix>3d</fix>
</trkpt>
<trkpt lat="-27.2744325" lon="151.2900652">
  <ele>353.47</ele>
  <time>2026-09-01T19:54:45Z</time>
  <course>184.68</course>
  <speed>0.16</speed>
  <fix>3d</fix>
</trkpt>
<trkpt lat="-27.274433" lon="151.2900651">
  <ele>354.34</ele>
  <time>2026-09-01T19:54:45Z</time>
  <course>11.27</course>
  <speed>0.18439088914585774</speed>
  <fix>3d</fix>
</trkpt>
<trkpt lat="-27.2744332" lon="151.2900651">
  <ele>354.58</ele>
  <time>2026-09-01T19:54:45Z</time>
  <course>11.2</course>
  <speed>0.19235384061671343</speed>
  <fix>3d</fix>
</trkpt>
<trkpt lat="-27.2744328" lon="151.2900652">
  <ele>353.97</ele>
  <time>2026-09-01T19:54:45Z</time>
  <course>185.29</course>
  <speed>0.18</speed>
  <fix>3d</fix>
</trkpt>
<trkpt lat="-27.2744332" lon="151.2900651">
  <ele>354.65</ele>
  <time>2026-09-01T19:54:45Z</time>
  <course>11.18</course>
  <speed>0.19235384061671343</speed>
  <fix>3d</fix>
</trkpt>
<trkpt lat="-27.2744333" lon="151.2900651">
  <ele>354.83</ele>
  <time>2026-09-01T19:54:45Z</time>
  <course>11.14</course>
  <speed>0.20223748416156684</speed>
  <fix>3d</fix>
</trkpt>
<trkpt lat="-27.2744328" lon="151.2900652">
  <ele>353.97</ele>
  <time>2026-09-01T19:54:45Z</time>
  <course>185.29</course>
  <speed>0.18</speed>
  <fix>3d</fix>
</trkpt>
<trkpt lat="-27.2744334" lon="151.2900651">
  <ele>354.9</ele>
  <time>2026-09-01T19:54:45Z</time>
  <course>11.13</course>
  <speed>0.20223748416156684</speed>
  <fix>3d</fix>
</trkpt>
<trkpt lat="-27.2744335" lon="151.290065">
  <ele>355.08</ele>
  <time>2026-09-01T19:54:45Z</time>
  <course>11.12</course>
  <speed>0.20223748416156684</speed>
  <fix>3d</fix>
</trkpt>
<trkpt lat="-27.2744332" lon="151.2900652">
  <ele>354.47</ele>
  <time>2026-09-01T19:54:45Z</time>
  <course>185.22</course>
  <speed>0.2</speed>
  <fix>3d</fix>
</trkpt>
<trkpt lat="-27.2744336" lon="151.290065">
  <ele>355.15</ele>
  <time>2026-09-01T19:54:45Z</time>
  <course>11.12</course>
  <speed>0.20223748416156684</speed>
  <fix>3d</fix>
</trkpt>
<trkpt lat="-27.2744337" lon="151.290065">
  <ele>355.34</ele>
  <time>2026-09-01T19:54:45Z</time>
  <course>11.13</course>
  <speed>0.20223748416156684</speed>
  <fix>3d</fix>
</trkpt>
<trkpt lat="-27.2744332" lon="151.2900652">
  <ele>354.47</ele>
  <time>2026-09-01T19:54:45Z</time>
  <course>185.22</course>
  <speed>0.2</speed>
  <fix>3d</fix>
</trkpt>
<trkpt lat="-27.2744337" lon="151.290065">
  <ele>355.4</ele>
  <time>2026-09-01T19:54:45Z</time>
  <course>11.13</course>
  <speed>0.2009975124224178</speed>
  <fix>3d</fix>
</trkpt>
<trkpt lat="-27.2744339" lon="151.290065">
  <ele>355.59</ele>
  <time>2026-09-01T19:54:45Z</time>
  <course>11.13</course>
  <speed>0.2109502310972899</speed>
  <fix>3d</fix>
</trkpt>
<trkpt lat="-27.2744336" lon="151.2900652">
  <ele>354.97</ele>
  <time>2026-09-01T19:54:45Z</time>
  <course>185.64</course>
  <speed>0.21</speed>
  <fix>3d</fix>
</trkpt>
<trkpt lat="-27.2744339" lon="151.290065">
  <ele>355.66</ele>
  <time>2026-09-01T19:54:45Z</time>
  <course>11.13</course>
  <speed>0.21213203435596426</speed>
  <fix>3d</fix>
</trkpt>
<trkpt lat="-27.2744341" lon="151.290065">
  <ele>355.84</ele>
  <time>2026-09-01T19:54:45Z</time>
  <course>11.13</course>
  <speed>0.21213203435596426</speed>
  <fix>3d</fix>
</trkpt>
<trkpt lat="-27.2744336" lon="151.2900652">
  <ele>354.97</ele>
  <time>2026-09-01T19:54:45Z</time>
  <course>185.64</course>
  <speed>0.21</speed>
  <fix>3d</fix>
</trkpt>
<trkpt lat="-27.2744341" lon="151.290065">
  <ele>355.85</ele>
  <time>2026-09-01T19:54:45Z</time>
  <course>11.13</course>
  <speed>0.21213203435596426</speed>
  <fix>3d</fix>
</trkpt>
<trkpt lat="-27.2744343" lon="151.290065">
  <ele>356.09</ele>
  <time>2026-09-01T19:54:45Z</time>
  <course>11.13</course>
  <speed>0.21213203435596426</speed>
  <fix>3d</fix>
</trkpt>
<trkpt lat="-27.274434" lon="151.2900651">
  <ele>355.47</ele>
  <time>2026-09-01T19:54:45Z</time>
  <course>186.27</course>
  <speed>0.21</speed>
  <fix>3d</fix>
</trkpt>
<trkpt lat="-27.2744343" lon="151.290065">
  <ele>356.16</ele>
  <time>2026-09-01T19:54:45Z</time>
  <course>11.13</course>
  <speed>0.21377558326431947</speed>
  <fix>3d</fix>
</trkpt>
<trkpt lat="-27.2744345" lon="151.290065">
  <ele>356.34</ele>
  <time>2026-09-01T19:54:45Z</time>
  <course>11.12</course>
  <speed>0.21213203435596426</speed>
  <fix>3d</fix>
</trkpt>
<trkpt lat="-27.274434" lon="151.2900651">
  <ele>355.47</ele>
  <time>2026-09-01T19:54:45Z</time>
  <course>186.27</course>
  <speed>0.21</speed>
  <fix>3d</fix>
</trkpt>
<trkpt lat="-27.2744345" lon="151.290065">
  <ele>356.41</ele>
  <time>2026-09-01T19:54:45Z</time>
  <course>11.11</course>
  <speed>0.21213203435596426</speed>
  <fix>3d</fix>
</trkpt>
<trkpt lat="-27.2744347" lon="151.290065">
  <ele>356.59</ele>
  <time>2026-09-01T19:54:45Z</time>
  <course>11.09</course>
  <speed>0.21213203435596426</speed>
  <fix>3d</fix>
</trkpt>
<trkpt lat="-27.2744343" lon="151.2900651">
  <ele>355.97</ele>
  <time>2026-09-01T19:54:45Z</time>
  <course>186.62</course>
  <speed>0.22</speed>
  <fix>3d</fix>
</trkpt>
<trkpt lat="-27.2744347" lon="151.290065">
  <ele>356.66</ele>
  <time>2026-09-01T19:54:45Z</time>
  <course>11.08</course>
  <speed>0.21213203435596426</speed>
  <fix>3d</fix>
</trkpt>
<trkpt lat="-27.2744348" lon="151.2900649">
  <ele>356.85</ele>
  <time>2026-09-01T19:54:45Z</time>
  <course>11.06</course>
  <speed>0.21213203435596426</speed>
  <fix>3d</fix>
</trkpt>
<trkpt lat="-27.2744343" lon="151.2900651">
  <ele>355.97</ele>
  <time>2026-09-01T19:54:45Z</time>
  <course>186.62</course>
  <speed>0.22</speed>
  <fix>3d</fix>
</trkpt>
<trkpt lat="-27.2744349" lon="151.2900649">
  <ele>356.85</ele>
  <time>2026-09-01T19:54:45Z</time>
  <course>11.05</course>
  <speed>0.21213203435596426</speed>
  <fix>3d</fix>
</trkpt>
<trkpt lat="-27.274435" lon="151.2900649">
  <ele>357.1</ele>
  <time>2026-09-01T19:54:45Z</time>
  <course>11.03</course>
  <speed>0.21213203435596426</speed>
  <fix>3d</fix>
</trkpt>
<trkpt lat="-27.2744347" lon="151.2900651">
  <ele>356.47</ele>
  <time>2026-09-01T19:54:45Z</time>
  <course>186.64</course>
  <speed>0.22</speed>
  <fix>3d</fix>
</trkpt>
<trkpt lat="-27.274435" lon="151.2900649">
  <ele>357.1</ele>
  <time>2026-09-01T19:54:45Z</time>
  <course>11.03</course>
  <speed>0.21213203435596426</speed>
  <fix>3d</fix>
</trkpt>
<trkpt lat="-27.2744352" lon="151.2900649">
  <ele>357.35</ele>
  <time>2026-09-01T19:54:45Z</time>
  <course>11.0</course>
  <speed>0.20223748416156684</speed>
  <fix>3d</fix>
</trkpt>
<trkpt lat="-27.2744347" lon="151.2900651">
  <ele>356.47</ele>
  <time>2026-09-01T19:54:45Z</time>
  <course>186.64</course>
  <speed>0.22</speed>
  <fix>3d</fix>
</trkpt>
<trkpt lat="-27.2744353" lon="151.2900649">
  <ele>357.42</ele>
  <time>2026-09-01T19:54:45Z</time>
  <course>11.0</course>
  <speed>0.2009975124224178</speed>
  <fix>3d</fix>
</trkpt>
<trkpt lat="-27.2744354" lon="151.2900649">
  <ele>357.6</ele>
  <time>2026-09-01T19:54:45Z</time>
  <course>10.98</course>
  <speed>0.20223748416156684</speed>
  <fix>3d</fix>
</trkpt>
<trkpt lat="-27.2744351" lon="151.290065">
  <ele>356.97</ele>
  <time>2026-09-01T19:54:45Z</time>
  <course>186.59</course>
  <speed>0.21</speed>
  <fix>3d</fix>
</trkpt>
<trkpt lat="-27.2744355" lon="151.2900649">
  <ele>357.68</ele>
  <time>2026-09-01T19:54:45Z</time>
  <course>10.98</course>
  <speed>0.2009975124224178</speed>
  <fix>3d</fix>
</trkpt>
<trkpt lat="-27.2744356" lon="151.2900649">
  <ele>357.85</ele>
  <time>2026-09-01T19:54:45Z</time>
  <course>10.97</course>
  <speed>0.2009975124224178</speed>
  <fix>3d</fix>
</trkpt>
<trkpt lat="-27.2744351" lon="151.290065">
  <ele>356.97</ele>
  <time>2026-09-01T19:54:45Z</time>
  <course>186.59</course>
  <speed>0.21</speed>
  <fix>3d</fix>
</trkpt>
<trkpt lat="-27.2744356" lon="151.2900649">
  <ele>357.92</ele>
  <time>2026-09-01T19:54:45Z</time>
  <course>10.98</course>
  <speed>0.2009975124224178</speed>
  <fix>3d</fix>
</trkpt>
<trkpt lat="-27.2744358" lon="151.2900649">
  <ele>358.1</ele>
  <time>2026-09-01T19:54:45Z</time>
  <course>10.98</course>
  <speed>0.2002498439450079</speed>
  <fix>3d</fix>
</trkpt>
<trkpt lat="-27.2744355" lon="151.290065">
  <ele>357.48</ele>
  <time>2026-09-01T19:54:45Z</time>
  <course>186.86</course>
  <speed>0.21</speed>
  <fix>3d</fix>
</trkpt>
<trkpt lat="-27.2744358" lon="151.2900649">
  <ele>358.18</ele>
  <time>2026-09-01T19:54:45Z</time>
  <course>10.99</course>
  <speed>0.2009975124224178</speed>
  <fix>3d</fix>
</trkpt>
<trkpt lat="-27.274436" lon="151.2900649">
  <ele>358.36</ele>
  <time>2026-09-01T19:54:45Z</time>
  <course>10.99</course>
  <speed>0.194164878389476</speed>
  <fix>3d</fix>
</trkpt>
<trkpt lat="-27.2744355" lon="151.290065">
  <ele>357.48</ele>
  <time>2026-09-01T19:54:45Z</time>
  <course>186.86</course>
  <speed>0.21</speed>
  <fix>3d</fix>
</trkpt>
<trkpt lat="-27.274436" lon="151.2900649">
  <ele>358.42</ele>
  <time>2026-09-01T19:54:45Z</time>
  <course>10.98</course>
  <speed>0.19235384061671343</speed>
  <fix>3d</fix>
</trkpt>
<trkpt lat="-27.2744361" lon="151.2900648">
  <ele>358.61</ele>
  <time>2026-09-01T19:54:45Z</time>
  <course>10.95</course>
  <speed>0.19235384061671343</speed>
  <fix>3d</fix>
</trkpt>
<trkpt lat="-27.2744359" lon="151.2900649">
  <ele>357.98</ele>
  <time>2026-09-01T19:54:45Z</time>
  <course>187.38</course>
  <speed>0.2</speed>
  <fix>3d</fix>
</trkpt>
<trkpt lat="-27.2744362" lon="151.2900648">
  <ele>358.67</ele>
  <time>2026-09-01T19:54:45Z</time>
  <course>10.94</course>
  <speed>0.19026297590440447</speed>
  <fix>3d</fix>
</trkpt>
<trkpt lat="-27.2744363" lon="151.2900648">
  <ele>358.86</ele>
  <time>2026-09-01T19:54:45Z</time>
  <course>10.89</course>
  <speed>0.19</speed>
  <fix>3d</fix>
</trkpt>
<trkpt lat="-27.2744359" lon="151.2900649">
  <ele>357.98</ele>
  <time>2026-09-01T19:54:45Z</time>
  <course>187.38</course>
  <speed>0.2</speed>
  <fix>3d</fix>
</trkpt>
<trkpt lat="-27.2744363" lon="151.2900648">
  <ele>358.87</ele>
  <time>2026-09-01T19:54:45Z</time>
  <course>10.89</course>
  <speed>0.19</speed>
  <fix>3d</fix>
</trkpt>
<trkpt lat="-27.2744365" lon="151.2900648">
  <ele>359.11</ele>
  <time>2026-09-01T19:54:45Z</time>
  <course>10.87</course>
  <speed>0.16</speed>
  <fix>3d</fix>
</trkpt>
<trkpt lat="-27.2744362" lon="151.2900649">
  <ele>358.48</ele>
  <time>2026-09-01T19:54:45Z</time>
  <course>187.53</course>
  <speed>0.2</speed>
  <fix>3d</fix>
</trkpt>
<trkpt lat="-27.2744365" lon="151.2900648">
  <ele>359.17</ele>
  <time>2026-09-01T19:54:45Z</time>
  <course>10.87</course>
  <speed>0.15</speed>
  <fix>3d</fix>
</trkpt>
<trkpt lat="-27.2744366" lon="151.2900648">
  <ele>359.36</ele>
  <time>2026-09-01T19:54:45Z</time>
  <course>10.86</course>
  <speed>0.13</speed>
  <fix>3d</fix>
</trkpt>
<trkpt lat="-27.2744362" lon="151.2900649">
  <ele>358.48</ele>
  <time>2026-09-01T19:54:45Z</time>
  <course>187.53</course>
  <speed>0.2</speed>
  <fix>3d</fix>
</trkpt>
<trkpt lat="-27.2744366" lon="151.2900648">
  <ele>359.37</ele>
  <time>2026-09-01T19:54:45Z</time>
  <course>10.86</course>
  <speed>0.13</speed>
  <fix>3d</fix>
</trkpt>
<trkpt lat="-27.2744367" lon="151.2900648">
  <ele>359.61</ele>
  <time>2026-09-01T19:54:45Z</time>
  <course>10.83</course>
  <speed>0.1</speed>
  <fix>3d</fix>
</trkpt>
<trkpt lat="-27.2744365" lon="151.2900648">
  <ele>358.98</ele>
  <time>2026-09-01T19:54:45Z</time>
  <course>187.98</course>
  <speed>0.16</speed>
  <fix>3d</fix>
</trkpt>
<trkpt lat="-27.2744367" lon="151.2900648">
  <ele>359.62</ele>
  <time>2026-09-01T19:54:45Z</time>
  <course>10.83</course>
  <speed>0.1</speed>
  <fix>3d</fix>
</trkpt>
<trkpt lat="-27.2744368" lon="151.2900648">
  <ele>359.86</ele>
  <time>2026-09-01T19:54:45Z</time>
  <course>10.77</course>
  <speed>0.08062257748298549</speed>
  <fix>3d</fix>
</trkpt>
<trkpt lat="-27.2744365" lon="151.2900648">
  <ele>358.98</ele>
  <time>2026-09-01T19:54:45Z</time>
  <course>187.98</course>
  <speed>0.16</speed>
  <fix>3d</fix>
</trkpt>
<trkpt lat="-27.2744368" lon="151.2900648">
  <ele>359.87</ele>
  <time>2026-09-01T19:54:45Z</time>
  <course>10.77</course>
  <speed>0.08062257748298549</speed>
  <fix>3d</fix>
</trkpt>
<trkpt lat="-27.2744369" lon="151.2900649">
  <ele>360.11</ele>
  <time>2026-09-01T19:54:45Z</time>
  <course>10.72</course>
  <speed>0.06082762530298219</speed>
  <fix>3d</fix>
</trkpt>
<trkpt lat="-27.2744367" lon="151.2900647">
  <ele>359.48</ele>
  <time>2026-09-01T19:54:45Z</time>
  <course>189.18</course>
  <speed>0.1</speed>
  <fix>3d</fix>
</trkpt>
<trkpt lat="-27.2744369" lon="151.2900649">
  <ele>360.18</ele>
  <time>2026-09-01T19:54:45Z</time>
  <course>10.71</course>
  <speed>0.05099019513592785</speed>
  <fix>3d</fix>
</trkpt>
<trkpt lat="-27.2744369" lon="151.2900648">
  <ele>360.36</ele>
  <time>2026-09-01T19:54:45Z</time>
  <course>10.67</course>
  <speed>0.0412310562561766</speed>
  <fix>3d</fix>
</trkpt>
<trkpt lat="-27.2744367" lon="151.2900647">
  <ele>359.48</ele>
  <time>2026-09-01T19:54:45Z</time>
  <course>189.18</course>
  <speed>0.1</speed>
  <fix>3d</fix>
</trkpt>
<trkpt lat="-27.2744369" lon="151.2900648">
  <ele>360.43</ele>
  <time>2026-09-01T19:54:45Z</time>
  <course>10.66</course>
  <speed>0.03605551275463989</speed>
  <fix>3d</fix>
</trkpt>
<trkpt lat="-27.2744369" lon="151.2900648">
  <ele>360.61</ele>
  <time>2026-09-01T19:54:45Z</time>
  <course>10.63</course>
  <speed>0.0282842712474619</speed>
  <fix>3d</fix>
</trkpt>
<trkpt lat="-27.2744369" lon="151.2900647">
  <ele>359.98</ele>
  <time>2026-09-01T19:54:45Z</time>
  <course>190.77</course>
  <speed>0.06</speed>
  <fix>3d</fix>
</trkpt>
<trkpt lat="-27.274437" lon="151.2900648">
  <ele>360.68</ele>
  <time>2026-09-01T19:54:45Z</time>
  <course>10.62</course>
  <speed>0.0282842712474619</speed>
  <fix>3d</fix>
</trkpt>
<trkpt lat="-27.274437" lon="151.2900648">
  <ele>360.86</ele>
  <time>2026-09-01T19:54:45Z</time>
  <course>10.61</course>
  <speed>0.022360679774997897</speed>
  <fix>3d</fix>
</trkpt>
<trkpt lat="-27.2744369" lon="151.2900647">
  <ele>359.98</ele>
  <time>2026-09-01T19:54:45Z</time>
  <course>190.77</course>
  <speed>0.06</speed>
  <fix>3d</fix>
</trkpt>
<trkpt lat="-27.274437" lon="151.2900648">
  <ele>360.92</ele>
  <time>2026-09-01T19:54:45Z</time>
  <course>10.61</course>
  <speed>0.022360679774997897</speed>
  <fix>3d</fix>
</trkpt>
<trkpt lat="-27.274437" lon="151.2900648">
  <ele>361.11</ele>
  <time>2026-09-01T19:54:45Z</time>
  <course>10.58</course>
  <speed>0.02</speed>
  <fix>3d</fix>
</trkpt>
<trkpt lat="-27.274437" lon="151.2900647">
  <ele>360.48</ele>
  <time>2026-09-01T19:54:45Z</time>
  <course>198.07</course>
  <speed>0.02</speed>
  <fix>3d</fix>
</trkpt>
<trkpt lat="-27.274437" lon="151.2900648">
  <ele>361.17</ele>
  <time>2026-09-01T19:54:45Z</time>
  <course>10.58</course>
  <speed>0.02</speed>
  <fix>3d</fix>
</trkpt>
<trkpt lat="-27.274437" lon="151.2900648">
  <ele>361.35</ele>
  <time>2026-09-01T19:54:45Z</time>
  <course>10.57</course>
  <speed>0.02</speed>
  <fix>3d</fix>
</trkpt>
<trkpt lat="-27.274437" lon="151.2900647">
  <ele>360.48</ele>
  <time>2026-09-01T19:54:45Z</time>
  <course>198.07</course>
  <speed>0.02</speed>
  <fix>3d</fix>
</trkpt>
<trkpt lat="-27.274437" lon="151.2900648">
  <ele>361.41</ele>
  <time>2026-09-01T19:54:45Z</time>
  <course>10.57</course>
  <speed>0.02</speed>
  <fix>3d</fix>
</trkpt>
<trkpt lat="-27.274437" lon="151.2900648">
  <ele>361.59</ele>
  <time>2026-09-01T19:54:45Z</time>
  <course>10.55</course>
  <speed>0.022360679774997897</speed>
  <fix>3d</fix>
</trkpt>
<trkpt lat="-27.2744371" lon="151.2900647">
  <ele>360.98</ele>
  <time>2026-09-01T19:54:45Z</time>
  <course>297.47</course>
  <speed>0.0</speed>
  <fix>3d</fix>
</trkpt>
<trkpt lat="-27.274437" lon="151.2900648">
  <ele>361.66</ele>
  <time>2026-09-01T19:54:45Z</time>
  <course>10.55</course>
  <speed>0.022360679774997897</speed>
  <fix>3d</fix>
</trkpt>
<trkpt lat="-27.2744369" lon="151.2900648">
  <ele>361.82</ele>
  <time>2026-09-01T19:54:45Z</time>
  <course>10.54</course>
  <speed>0.0282842712474619</speed>
  <fix>3d</fix>
</trkpt>
<trkpt lat="-27.2744371" lon="151.2900647">
  <ele>360.98</ele>
  <time>2026-09-01T19:54:45Z</time>
  <course>297.47</course>
  <speed>0.0</speed>
  <fix>3d</fix>
</trkpt>
<trkpt lat="-27.2744369" lon="151.2900648">
  <ele>361.88</ele>
  <time>2026-09-01T19:54:45Z</time>
  <course>10.54</course>
  <speed>0.0282842712474619</speed>
  <fix>3d</fix>
</trkpt>
<trkpt lat="-27.2744369" lon="151.2900648">
  <ele>362.04</ele>
  <time>2026-09-01T19:54:45Z</time>
  <course>10.52</course>
  <speed>0.0282842712474619</speed>
  <fix>3d</fix>
</trkpt>
<trkpt lat="-27.2744371" lon="151.2900646">
  <ele>361.46</ele>
  <time>2026-09-01T19:54:45Z</time>
  <course>345.92</course>
  <speed>0.02</speed>
  <fix>3d</fix>
</trkpt>
<trkpt lat="-27.2744369" lon="151.2900648">
  <ele>362.1</ele>
  <time>2026-09-01T19:54:45Z</time>
  <course>10.52</course>
  <speed>0.0282842712474619</speed>
  <fix>3d</fix>
</trkpt>
<trkpt lat="-27.2744369" lon="151.2900648">
  <ele>362.25</ele>
  <time>2026-09-01T19:54:45Z</time>
  <course>10.51</course>
  <speed>0.0282842712474619</speed>
  <fix>3d</fix>
</trkpt>
<trkpt lat="-27.2744371" lon="151.2900646">
  <ele>361.46</ele>
  <time>2026-09-01T19:54:45Z</time>
  <course>345.92</course>
  <speed>0.02</speed>
  <fix>3d</fix>
</trkpt>
<trkpt lat="-27.2744369" lon="151.2900648">
  <ele>362.44</ele>
  <time>2026-09-01T19:54:45Z</time>
  <course>10.49</course>
  <speed>0.022360679774997897</speed>
  <fix>3d</fix>
</trkpt>
<trkpt lat="-27.2744371" lon="151.2900646">
  <ele>361.91</ele>
  <time>2026-09-01T19:54:45Z</time>
  <course>348.97</course>
  <speed>0.03</speed>
  <fix>3d</fix>
</trkpt>
<trkpt lat="-27.2744369" lon="151.2900648">
  <ele>362.62</ele>
  <time>2026-09-01T19:54:45Z</time>
  <course>10.48</course>
  <speed>0.022360679774997897</speed>
  <fix>3d</fix>
</trkpt>
<trkpt lat="-27.2744371" lon="151.2900646">
  <ele>361.91</ele>
  <time>2026-09-01T19:54:45Z</time>
  <course>348.97</course>
  <speed>0.03</speed>
  <fix>3d</fix>
</trkpt>
<trkpt lat="-27.2744369" lon="151.2900648">
  <ele>362.77</ele>
  <time>2026-09-01T19:54:45Z</time>
  <course>10.47</course>
  <speed>0.01</speed>
  <fix>3d</fix>
</trkpt>
<trkpt lat="-27.274437" lon="151.2900646">
  <ele>362.31</ele>
  <time>2026-09-01T19:54:45Z</time>
  <course>344.75</course>
  <speed>0.03</speed>
  <fix>3d</fix>
</trkpt>
<trkpt lat="-27.2744369" lon="151.2900648">
  <ele>362.89</ele>
  <time>2026-09-01T19:54:45Z</time>
  <course>10.46</course>
  <speed>0.01</speed>
  <fix>3d</fix>
</trkpt>
<trkpt lat="-27.274437" lon="151.2900646">
  <ele>362.31</ele>
  <time>2026-09-01T19:54:45Z</time>
  <course>344.75</course>
  <speed>0.03</speed>
  <fix>3d</fix>
</trkpt>
<trkpt lat="-27.2744369" lon="151.2900648">
  <ele>362.99</ele>
  <time>2026-09-01T19:54:45Z</time>
  <course>10.47</course>
  <speed>0.022360679774997897</speed>
  <fix>3d</fix>
</trkpt>
<trkpt lat="-27.274437" lon="151.2900646">
  <ele>362.63</ele>
  <time>2026-09-01T19:54:45Z</time>
  <course>326.21</course>
  <speed>0.02</speed>
  <fix>3d</fix>
</trkpt>
<trkpt lat="-27.2744369" lon="151.2900648">
  <ele>363.07</ele>
  <time>2026-09-01T19:54:45Z</time>
  <course>10.48</course>
  <speed>0.04</speed>
  <fix>3d</fix>
</trkpt>
<trkpt lat="-27.274437" lon="151.2900646">
  <ele>362.63</ele>
  <time>2026-09-01T19:54:45Z</time>
  <course>326.21</course>
  <speed>0.02</speed>
  <fix>3d</fix>
</trkpt>
<trkpt lat="-27.274437" lon="151.2900648">
  <ele>363.13</ele>
  <time>2026-09-01T19:54:45Z</time>
  <course>10.47</course>
  <speed>0.06</speed>
  <fix>3d</fix>
</trkpt>
<trkpt lat="-27.274437" lon="151.2900646">
  <ele>362.86</ele>
  <time>2026-09-01T19:54:45Z</time>
  <course>246.52</course>
  <speed>0.01</speed>
  <fix>3d</fix>
</trkpt>
<trkpt lat="-27.274437" lon="151.2900648">
  <ele>363.16</ele>
  <time>2026-09-01T19:54:45Z</time>
  <course>10.45</course>
  <speed>0.08</speed>
  <fix>3d</fix>
</trkpt>
<trkpt lat="-27.274437" lon="151.2900646">
  <ele>362.86</ele>
  <time>2026-09-01T19:54:45Z</time>
  <course>246.52</course>
  <speed>0.01</speed>
  <fix>3d</fix>
</trkpt>
<trkpt lat="-27.2744371" lon="151.2900648">
  <ele>363.18</ele>
  <time>2026-09-01T19:54:45Z</time>
  <course>10.44</course>
  <speed>0.11</speed>
  <fix>3d</fix>
</trkpt>
<trkpt lat="-27.274437" lon="151.2900646">
  <ele>363.0</ele>
  <time>2026-09-01T19:54:45Z</time>
  <course>207.88</course>
  <speed>0.05</speed>
  <fix>3d</fix>
</trkpt>
<trkpt lat="-27.2744372" lon="151.2900647">
  <ele>363.17</ele>
  <time>2026-09-01T19:54:45Z</time>
  <course>10.47</course>
  <speed>0.130384048104053</speed>
  <fix>3d</fix>
</trkpt>
<trkpt lat="-27.274437" lon="151.2900646">
  <ele>363.0</ele>
  <time>2026-09-01T19:54:45Z</time>
  <course>207.88</course>
  <speed>0.05</speed>
  <fix>3d</fix>
</trkpt>
<trkpt lat="-27.2744374" lon="151.2900647">
  <ele>363.16</ele>
  <time>2026-09-01T19:54:45Z</time>
  <course>10.51</course>
  <speed>0.16124515496597097</speed>
  <fix>3d</fix>
</trkpt>
<trkpt lat="-27.274437" lon="151.2900645">
  <ele>363.06</ele>
  <time>2026-09-01T19:54:45Z</time>
  <course>200.21</course>
  <speed>0.09</speed>
  <fix>3d</fix>
</trkpt>
<trkpt lat="-27.2744375" lon="151.2900646">
  <ele>363.14</ele>
  <time>2026-09-01T19:54:45Z</time>
  <course>10.57</course>
  <speed>0.18110770276274835</speed>
  <fix>3d</fix>
</trkpt>
<trkpt lat="-27.274437" lon="151.2900645">
  <ele>363.06</ele>
  <time>2026-09-01T19:54:45Z</time>
  <course>200.21</course>
  <speed>0.09</speed>
  <fix>3d</fix>
</trkpt>
<trkpt lat="-27.2744377" lon="151.2900646">
  <ele>363.11</ele>
  <time>2026-09-01T19:54:45Z</time>
  <course>10.6</course>
  <speed>0.20223748416156684</speed>
  <fix>3d</fix>
</trkpt>
<trkpt lat="-27.2744372" lon="151.2900644">
  <ele>363.05</ele>
  <time>2026-09-01T19:54:45Z</time>
  <course>198.06</course>
  <speed>0.14</speed>
  <fix>3d</fix>
</trkpt>
<trkpt lat="-27.2744378" lon="151.2900645">
  <ele>363.08</ele>
  <time>2026-09-01T19:54:45Z</time>
  <course>10.6</course>
  <speed>0.2220360331117452</speed>
  <fix>3d</fix>
</trkpt>
<trkpt lat="-27.2744372" lon="151.2900644">
  <ele>363.05</ele>
  <time>2026-09-01T19:54:45Z</time>
  <course>198.06</course>
  <speed>0.14</speed>
  <fix>3d</fix>
</trkpt>
<trkpt lat="-27.274438" lon="151.2900645">
  <ele>363.05</ele>
  <time>2026-09-01T19:54:45Z</time>
  <course>10.57</course>
  <speed>0.24331050121192876</speed>
  <fix>3d</fix>
</trkpt>
<trkpt lat="-27.2744375" lon="151.2900643">
  <ele>363.0</ele>
  <time>2026-09-01T19:54:45Z</time>
  <course>196.58</course>
  <speed>0.18</speed>
  <fix>3d</fix>
</trkpt>
<trkpt lat="-27.2744382" lon="151.2900644">
  <ele>363.02</ele>
  <time>2026-09-01T19:54:45Z</time>
  <course>10.53</course>
  <speed>0.26305892875931813</speed>
  <fix>3d</fix>
</trkpt>
<trkpt lat="-27.2744375" lon="151.2900643">
  <ele>363.0</ele>
  <time>2026-09-01T19:54:45Z</time>
  <course>196.58</course>
  <speed>0.18</speed>
  <fix>3d</fix>
</trkpt>
<trkpt lat="-27.2744385" lon="151.2900643">
  <ele>362.99</ele>
  <time>2026-09-01T19:54:45Z</time>
  <course>10.49</course>
  <speed>0.2942787793912432</speed>
  <fix>3d</fix>
</trkpt>
<trkpt lat="-27.2744379" lon="151.2900642">
  <ele>362.94</ele>
  <time>2026-09-01T19:54:45Z</time>
  <course>195.38</course>
  <speed>0.22</speed>
  <fix>3d</fix>
</trkpt>
<trkpt lat="-27.2744387" lon="151.2900643">
  <ele>362.97</ele>
  <time>2026-09-01T19:54:45Z</time>
  <course>10.46</course>
  <speed>0.34365680554879163</speed>
  <fix>3d</fix>
</trkpt>
<trkpt lat="-27.2744379" lon="151.2900642">
  <ele>362.94</ele>
  <time>2026-09-01T19:54:45Z</time>
  <course>195.38</course>
  <speed>0.22</speed>
  <fix>3d</fix>
</trkpt>
<trkpt lat="-27.274439" lon="151.2900642">
  <ele>362.96</ele>
  <time>2026-09-01T19:54:45Z</time>
  <course>10.45</course>
  <speed>0.37483329627982626</speed>
  <fix>3d</fix>
</trkpt>
<trkpt lat="-27.2744383" lon="151.2900641">
  <ele>362.89</ele>
  <time>2026-09-01T19:54:45Z</time>
  <course>194.14</course>
  <speed>0.28</speed>
  <fix>3d</fix>
</trkpt>
<trkpt lat="-27.2744393" lon="151.2900641">
  <ele>362.95</ele>
  <time>2026-09-01T19:54:45Z</time>
  <course>10.45</course>
  <speed>0.3945883931389772</speed>
  <fix>3d</fix>
</trkpt>
<trkpt lat="-27.2744383" lon="151.2900641">
  <ele>362.89</ele>
  <time>2026-09-01T19:54:45Z</time>
  <course>194.14</course>
  <speed>0.28</speed>
  <fix>3d</fix>
</trkpt>
<trkpt lat="-27.2744397" lon="151.290064">
  <ele>362.94</ele>
  <time>2026-09-01T19:54:45Z</time>
  <course>10.46</course>
  <speed>0.4159326868617084</speed>
  <fix>3d</fix>
</trkpt>
<trkpt lat="-27.2744389" lon="151.290064">
  <ele>362.86</ele>
  <time>2026-09-01T19:54:45Z</time>
  <course>193.18</course>
  <speed>0.35</speed>
  <fix>3d</fix>
</trkpt>
<trkpt lat="-27.27444" lon="151.2900639">
  <ele>362.94</ele>
  <time>2026-09-01T19:54:45Z</time>
  <course>10.46</course>
  <speed>0.4356604182158393</speed>
  <fix>3d</fix>
</trkpt>
<trkpt lat="-27.2744389" lon="151.290064">
  <ele>362.86</ele>
  <time>2026-09-01T19:54:45Z</time>
  <course>193.18</course>
  <speed>0.35</speed>
  <fix>3d</fix>
</trkpt>
<trkpt lat="-27.2744404" lon="151.2900638">
  <ele>362.95</ele>
  <time>2026-09-01T19:54:45Z</time>
  <course>10.47</course>
  <speed>0.44553338819890925</speed>
  <fix>3d</fix>
</trkpt>
<trkpt lat="-27.2744395" lon="151.2900637">
  <ele>362.85</ele>
  <time>2026-09-01T19:54:45Z</time>
  <course>192.63</course>
  <speed>0.4</speed>
  <fix>3d</fix>
</trkpt>
<trkpt lat="-27.2744408" lon="151.2900637">
  <ele>362.96</ele>
  <time>2026-09-01T19:54:45Z</time>
  <course>10.46</course>
  <speed>0.44553338819890925</speed>
  <fix>3d</fix>
</trkpt>
<trkpt lat="-27.2744395" lon="151.2900637">
  <ele>362.85</ele>
  <time>2026-09-01T19:54:45Z</time>
  <course>192.63</course>
  <speed>0.4</speed>
  <fix>3d</fix>
</trkpt>
<trkpt lat="-27.2744412" lon="151.2900636">
  <ele>362.97</ele>
  <time>2026-09-01T19:54:45Z</time>
  <course>10.44</course>
  <speed>0.455411901469428</speed>
  <fix>3d</fix>
</trkpt>
<trkpt lat="-27.2744403" lon="151.2900636">
  <ele>362.86</ele>
  <time>2026-09-01T19:54:45Z</time>
  <course>192.22</course>
  <speed>0.42</speed>
  <fix>3d</fix>
</trkpt>
<trkpt lat="-27.2744416" lon="151.2900635">
  <ele>362.98</ele>
  <time>2026-09-01T19:54:45Z</time>
  <course>10.42</course>
  <speed>0.455411901469428</speed>
  <fix>3d</fix>
</trkpt>
<trkpt lat="-27.2744403" lon="151.2900636">
  <ele>362.86</ele>
  <time>2026-09-01T19:54:45Z</time>
  <course>192.22</course>
  <speed>0.42</speed>
  <fix>3d</fix>
</trkpt>
<trkpt lat="-27.2744419" lon="151.2900634">
  <ele>363.0</ele>
  <time>2026-09-01T19:54:45Z</time>
  <course>10.4</course>
  <speed>0.4440720662234904</speed>
  <fix>3d</fix>
</trkpt>
<trkpt lat="-27.274441" lon="151.2900634">
  <ele>362.88</ele>
  <time>2026-09-01T19:54:45Z</time>
  <course>191.84</course>
  <speed>0.43</speed>
  <fix>3d</fix>
</trkpt>
<trkpt lat="-27.2744423" lon="151.2900634">
  <ele>363.01</ele>
  <time>2026-09-01T19:54:45Z</time>
  <course>10.38</course>
  <speed>0.4440720662234904</speed>
  <fix>3d</fix>
</trkpt>
<trkpt lat="-27.274441" lon="151.2900634">
  <ele>362.88</ele>
  <time>2026-09-01T19:54:45Z</time>
  <course>191.84</course>
  <speed>0.43</speed>
  <fix>3d</fix>
</trkpt>
<trkpt lat="-27.2744427" lon="151.2900633">
  <ele>363.03</ele>
  <time>2026-09-01T19:54:45Z</time>
  <course>10.36</course>
  <speed>0.4341658669218482</speed>
  <fix>3d</fix>
</trkpt>
<trkpt lat="-27.2744418" lon="151.2900632">
  <ele>362.91</ele>
  <time>2026-09-01T19:54:45Z</time>
  <course>191.53</course>
  <speed>0.43</speed>
  <fix>3d</fix>
</trkpt>
<trkpt lat="-27.274443" lon="151.2900632">
  <ele>363.04</ele>
  <time>2026-09-01T19:54:45Z</time>
  <course>10.36</course>
  <speed>0.4143669871020132</speed>
  <fix>3d</fix>
</trkpt>
<trkpt lat="-27.2744418" lon="151.2900632">
  <ele>362.91</ele>
  <time>2026-09-01T19:54:45Z</time>
  <course>191.53</course>
  <speed>0.43</speed>
  <fix>3d</fix>
</trkpt>
<trkpt lat="-27.2744434" lon="151.2900631">
  <ele>363.05</ele>
  <time>2026-09-01T19:54:45Z</time>
  <course>10.38</course>
  <speed>0.40311288741492746</speed>
  <fix>3d</fix>
</trkpt>
<trkpt lat="-27.2744425" lon="151.2900631">
  <ele>362.95</ele>
  <time>2026-09-01T19:54:45Z</time>
  <course>191.38</course>
  <speed>0.41</speed>
  <fix>3d</fix>
</trkpt>
<trkpt lat="-27.2744437" lon="151.290063">
  <ele>363.05</ele>
  <time>2026-09-01T19:54:45Z</time>
  <course>10.4</course>
  <speed>0.383275357934736</speed>
  <fix>3d</fix>
</trkpt>
<trkpt lat="-27.2744425" lon="151.2900631">
  <ele>362.95</ele>
  <time>2026-09-01T19:54:45Z</time>
  <course>191.38</course>
  <speed>0.41</speed>
  <fix>3d</fix>
</trkpt>
<trkpt lat="-27.274444" lon="151.290063">
  <ele>363.05</ele>
  <time>2026-09-01T19:54:45Z</time>
  <course>10.44</course>
  <speed>0.3535533905932738</speed>
  <fix>3d</fix>
</trkpt>
<trkpt lat="-27.2744432" lon="151.2900629">
  <ele>362.98</ele>
  <time>2026-09-01T19:54:45Z</time>
  <course>191.51</course>
  <speed>0.38</speed>
  <fix>3d</fix>
</trkpt>
<trkpt lat="-27.2744443" lon="151.2900629">
  <ele>363.03</ele>
  <time>2026-09-01T19:54:45Z</time>
  <course>10.48</course>
  <speed>0.33241540277189324</speed>
  <fix>3d</fix>
</trkpt>
<trkpt lat="-27.2744432" lon="151.2900629">
  <ele>362.98</ele>
  <time>2026-09-01T19:54:45Z</time>
  <course>191.51</course>
  <speed>0.38</speed>
  <fix>3d</fix>
</trkpt>
<trkpt lat="-27.2744446" lon="151.2900628">
  <ele>363.0</ele>
  <time>2026-09-01T19:54:45Z</time>
  <course>10.52</course>
  <speed>0.3125699921617557</speed>
  <fix>3d</fix>
</trkpt>
<trkpt lat="-27.2744439" lon="151.2900627">
  <ele>362.99</ele>
  <time>2026-09-01T19:54:45Z</time>
  <course>192.04</course>
  <speed>0.34</speed>
  <fix>3d</fix>
</trkpt>
<trkpt lat="-27.2744448" lon="151.2900628">
  <ele>362.94</ele>
  <time>2026-09-01T19:54:45Z</time>
  <course>10.51</course>
  <speed>0.291547594742265</speed>
  <fix>3d</fix>
</trkpt>
<trkpt lat="-27.2744439" lon="151.2900627">
  <ele>362.99</ele>
  <time>2026-09-01T19:54:45Z</time>
  <course>192.04</course>
  <speed>0.34</speed>
  <fix>3d</fix>
</trkpt>
<trkpt lat="-27.274445" lon="151.2900627">
  <ele>362.87</ele>
  <time>2026-09-01T19:54:45Z</time>
  <course>10.42</course>
  <speed>0.2707397274136177</speed>
  <fix>3d</fix>
</trkpt>
<trkpt lat="-27.2744445" lon="151.2900626">
  <ele>362.94</ele>
  <time>2026-09-01T19:54:45Z</time>
  <course>192.46</course>
  <speed>0.29</speed>
  <fix>3d</fix>
</trkpt>
<trkpt lat="-27.2744453" lon="151.2900627">
  <ele>362.78</ele>
  <time>2026-09-01T19:54:45Z</time>
  <course>10.2</course>
  <speed>0.25</speed>
  <fix>3d</fix>
</trkpt>
<trkpt lat="-27.2744445" lon="151.2900626">
  <ele>362.94</ele>
  <time>2026-09-01T19:54:45Z</time>
  <course>192.46</course>
  <speed>0.29</speed>
  <fix>3d</fix>
</trkpt>
<trkpt lat="-27.2744455" lon="151.2900627">
  <ele>362.67</ele>
  <time>2026-09-01T19:54:45Z</time>
  <course>9.87</course>
  <speed>0.22</speed>
  <fix>3d</fix>
</trkpt>
<trkpt lat="-27.274445" lon="151.2900625">
  <ele>362.82</ele>
  <time>2026-09-01T19:54:45Z</time>
  <course>190.78</course>
  <speed>0.25</speed>
  <fix>3d</fix>
</trkpt>
<trkpt lat="-27.2744456" lon="151.2900627">
  <ele>362.55</ele>
  <time>2026-09-01T19:54:45Z</time>
  <course>9.62</course>
  <speed>0.2002498439450079</speed>
  <fix>3d</fix>
</trkpt>
<trkpt lat="-27.274445" lon="151.2900625">
  <ele>362.82</ele>
  <time>2026-09-01T19:54:45Z</time>
  <course>190.78</course>
  <speed>0.25</speed>
  <fix>3d</fix>
</trkpt>
<trkpt lat="-27.2744458" lon="151.2900626">
  <ele>362.41</ele>
  <time>2026-09-01T19:54:45Z</time>
  <course>9.47</course>
  <speed>0.17029386365926402</speed>
  <fix>3d</fix>
</trkpt>
<trkpt lat="-27.2744454" lon="151.2900624">
  <ele>362.63</ele>
  <time>2026-09-01T19:54:45Z</time>
  <course>187.28</course>
  <speed>0.2</speed>
  <fix>3d</fix>
</trkpt>
<trkpt lat="-27.2744459" lon="151.2900626">
  <ele>362.26</ele>
  <time>2026-09-01T19:54:45Z</time>
  <course>9.44</course>
  <speed>0.15132745950421556</speed>
  <fix>3d</fix>
</trkpt>
<trkpt lat="-27.2744454" lon="151.2900624">
  <ele>362.63</ele>
  <time>2026-09-01T19:54:45Z</time>
  <course>187.28</course>
  <speed>0.2</speed>
  <fix>3d</fix>
</trkpt>
<trkpt lat="-27.274446" lon="151.2900626">
  <ele>362.11</ele>
  <time>2026-09-01T19:54:45Z</time>
  <course>9.5</course>
  <speed>0.13152946437965907</speed>
  <fix>3d</fix>
</trkpt>
<trkpt lat="-27.2744457" lon="151.2900623">
  <ele>362.38</ele>
  <time>2026-09-01T19:54:45Z</time>
  <course>184.43</course>
  <speed>0.15</speed>
  <fix>3d</fix>
</trkpt>
<trkpt lat="-27.2744461" lon="151.2900626">
  <ele>361.94</ele>
  <time>2026-09-01T19:54:45Z</time>
  <course>9.62</course>
  <speed>0.1019803902718557</speed>
  <fix>3d</fix>
</trkpt>
<trkpt lat="-27.2744457" lon="151.2900623">
  <ele>362.38</ele>
  <time>2026-09-01T19:54:45Z</time>
  <course>184.43</course>
  <speed>0.15</speed>
  <fix>3d</fix>
</trkpt>
<trkpt lat="-27.2744462" lon="151.2900626">
  <ele>361.78</ele>
  <time>2026-09-01T19:54:45Z</time>
  <course>9.76</course>
  <speed>0.0854400374531753</speed>
  <fix>3d</fix>
</trkpt>
<trkpt lat="-27.2744458" lon="151.2900623">
  <ele>362.08</ele>
  <time>2026-09-01T19:54:45Z</time>
  <course>181.97</course>
  <speed>0.1</speed>
  <fix>3d</fix>
</trkpt>
<trkpt lat="-27.2744462" lon="151.2900626">
  <ele>361.61</ele>
  <time>2026-09-01T19:54:45Z</time>
  <course>9.91</course>
  <speed>0.07615773105863909</speed>
  <fix>3d</fix>
</trkpt>
<trkpt lat="-27.2744458" lon="151.2900623">
  <ele>362.08</ele>
  <time>2026-09-01T19:54:45Z</time>
  <course>181.97</course>
  <speed>0.1</speed>
  <fix>3d</fix>
</trkpt>
<trkpt lat="-27.2744463" lon="151.2900626">
  <ele>361.44</ele>
  <time>2026-09-01T19:54:45Z</time>
  <course>10.02</course>
  <speed>0.05830951894845301</speed>
  <fix>3d</fix>
</trkpt>
<trkpt lat="-27.274446" lon="151.2900623">
  <ele>361.76</ele>
  <time>2026-09-01T19:54:45Z</time>
  <course>177.25</course>
  <speed>0.06</speed>
  <fix>3d</fix>
</trkpt>
<trkpt lat="-27.2744463" lon="151.2900626">
  <ele>361.27</ele>
  <time>2026-09-01T19:54:45Z</time>
  <course>10.1</course>
  <speed>0.0565685424949238</speed>
  <fix>3d</fix>
</trkpt>
<trkpt lat="-27.274446" lon="151.2900623">
  <ele>361.76</ele>
  <time>2026-09-01T19:54:45Z</time>
  <course>177.25</course>
  <speed>0.06</speed>
  <fix>3d</fix>
</trkpt>
<trkpt lat="-27.2744463" lon="151.2900626">
  <ele>361.11</ele>
  <time>2026-09-01T19:54:45Z</time>
  <course>10.14</course>
  <speed>0.05</speed>
  <fix>3d</fix>
</trkpt>
<trkpt lat="-27.2744461" lon="151.2900623">
  <ele>361.44</ele>
  <time>2026-09-01T19:54:45Z</time>
  <course>163.26</course>
  <speed>0.02</speed>
  <fix>3d</fix>
</trkpt>
<trkpt lat="-27.2744463" lon="151.2900626">
  <ele>360.94</ele>
  <time>2026-09-01T19:54:45Z</time>
  <course>10.19</course>
  <speed>0.03605551275463989</speed>
  <fix>3d</fix>
</trkpt>
<trkpt lat="-27.2744461" lon="151.2900623">
  <ele>361.44</ele>
  <time>2026-09-01T19:54:45Z</time>
  <course>163.26</course>
  <speed>0.02</speed>
  <fix>3d</fix>
</trkpt>
<trkpt lat="-27.2744463" lon="151.2900626">
  <ele>360.78</ele>
  <time>2026-09-01T19:54:45Z</time>
  <course>10.24</course>
  <speed>0.0316227766016838</speed>
  <fix>3d</fix>
</trkpt>
<trkpt lat="-27.2744462" lon="151.2900623">
  <ele>361.12</ele>
  <time>2026-09-01T19:54:45Z</time>
  <course>98.07</course>
  <speed>0.0</speed>
  <fix>3d</fix>
</trkpt>
<trkpt lat="-27.2744463" lon="151.2900626">
  <ele>360.63</ele>
  <time>2026-09-01T19:54:45Z</time>
  <course>10.28</course>
  <speed>0.03</speed>
  <fix>3d</fix>
</trkpt>
<trkpt lat="-27.2744462" lon="151.2900623">
  <ele>361.12</ele>
  <time>2026-09-01T19:54:45Z</time>
  <course>98.07</course>
  <speed>0.0</speed>
  <fix>3d</fix>
</trkpt>
<trkpt lat="-27.2744463" lon="151.2900626">
  <ele>360.47</ele>
  <time>2026-09-01T19:54:45Z</time>
  <course>10.3</course>
  <speed>0.02</speed>
  <fix>3d</fix>
</trkpt>
<trkpt lat="-27.2744461" lon="151.2900623">
  <ele>360.8</ele>
  <time>2026-09-01T19:54:45Z</time>
  <course>21.6</course>
  <speed>0.01</speed>
  <fix>3d</fix>
</trkpt>
<trkpt lat="-27.2744463" lon="151.2900626">
  <ele>360.33</ele>
  <time>2026-09-01T19:54:45Z</time>
  <course>10.33</course>
  <speed>0.02</speed>
  <fix>3d</fix>
</trkpt>
<trkpt lat="-27.2744461" lon="151.2900623">
  <ele>360.8</ele>
  <time>2026-09-01T19:54:45Z</time>
  <course>21.6</course>
  <speed>0.01</speed>
  <fix>3d</fix>
</trkpt>
<trkpt lat="-27.2744463" lon="151.2900626">
  <ele>360.18</ele>
  <time>2026-09-01T19:54:45Z</time>
  <course>10.33</course>
  <speed>0.02</speed>
  <fix>3d</fix>
</trkpt>
<trkpt lat="-27.2744461" lon="151.2900623">
  <ele>360.5</ele>
  <time>2026-09-01T19:54:45Z</time>
  <course>5.94</course>
  <speed>0.02</speed>
  <fix>3d</fix>
</trkpt>
<trkpt lat="-27.2744463" lon="151.2900626">
  <ele>360.04</ele>
  <time>2026-09-01T19:54:45Z</time>
  <course>10.33</course>
  <speed>0.02</speed>
  <fix>3d</fix>
</trkpt>
<trkpt lat="-27.2744461" lon="151.2900623">
  <ele>360.5</ele>
  <time>2026-09-01T19:54:45Z</time>
  <course>5.94</course>
  <speed>0.02</speed>
  <fix>3d</fix>
</trkpt>
<trkpt lat="-27.2744462" lon="151.2900626">
  <ele>359.9</ele>
  <time>2026-09-01T19:54:45Z</time>
  <course>10.31</course>
  <speed>0.01</speed>
  <fix>3d</fix>
</trkpt>
<trkpt lat="-27.2744461" lon="151.2900623">
  <ele>360.21</ele>
  <time>2026-09-01T19:54:45Z</time>
  <course>359.45</course>
  <speed>0.03</speed>
  <fix>3d</fix>
</trkpt>
<trkpt lat="-27.2744462" lon="151.2900626">
  <ele>359.76</ele>
  <time>2026-09-01T19:54:45Z</time>
  <course>10.3</course>
  <speed>0.01</speed>
  <fix>3d</fix>
</trkpt>
<trkpt lat="-27.2744461" lon="151.2900623">
  <ele>360.21</ele>
  <time>2026-09-01T19:54:45Z</time>
  <course>359.45</course>
  <speed>0.03</speed>
  <fix>3d</fix>
</trkpt>
<trkpt lat="-27.2744462" lon="151.2900626">
  <ele>359.62</ele>
  <time>2026-09-01T19:54:45Z</time>
  <course>10.28</course>
  <speed>0.01</speed>
  <fix>3d</fix>
</trkpt>
<trkpt lat="-27.2744461" lon="151.2900623">
  <ele>359.93</ele>
  <time>2026-09-01T19:54:45Z</time>
  <course>355.66</course>
  <speed>0.03</speed>
  <fix>3d</fix>
</trkpt>
<trkpt lat="-27.2744462" lon="151.2900626">
  <ele>359.49</ele>
  <time>2026-09-01T19:54:45Z</time>
  <course>10.26</course>
  <speed>0.01</speed>
  <fix>3d</fix>
</trkpt>
<trkpt lat="-27.2744461" lon="151.2900623">
  <ele>359.93</ele>
  <time>2026-09-01T19:54:45Z</time>
  <course>355.66</course>
  <speed>0.03</speed>
  <fix>3d</fix>
</trkpt>
<trkpt lat="-27.2744461" lon="151.2900626">
  <ele>359.35</ele>
  <time>2026-09-01T19:54:45Z</time>
  <course>10.23</course>
  <speed>0.01</speed>
  <fix>3d</fix>
</trkpt>
<trkpt lat="-27.274446" lon="151.2900623">
  <ele>359.65</ele>
  <time>2026-09-01T19:54:45Z</time>
  <course>353.47</course>
  <speed>0.03</speed>
  <fix>3d</fix>
</trkpt>
<trkpt lat="-27.2744461" lon="151.2900626">
  <ele>359.21</ele>
  <time>2026-09-01T19:54:45Z</time>
  <course>10.21</course>
  <speed>0.01</speed>
  <fix>3d</fix>
</trkpt>
<trkpt lat="-27.274446" lon="151.2900623">
  <ele>359.65</ele>
  <time>2026-09-01T19:54:45Z</time>
  <course>353.47</course>
  <speed>0.03</speed>
  <fix>3d</fix>
</trkpt>
<trkpt lat="-27.2744461" lon="151.2900626">
  <ele>359.07</ele>
  <time>2026-09-01T19:54:45Z</time>
  <course>10.19</course>
  <speed>0.01</speed>
  <fix>3d</fix>
</trkpt>
<trkpt lat="-27.2744459" lon="151.2900623">
  <ele>359.38</ele>
  <time>2026-09-01T19:54:45Z</time>
  <course>352.88</course>
  <speed>0.03</speed>
  <fix>3d</fix>
</trkpt>
<trkpt lat="-27.2744461" lon="151.2900626">
  <ele>358.93</ele>
  <time>2026-09-01T19:54:45Z</time>
  <course>10.17</course>
  <speed>0.01</speed>
  <fix>3d</fix>
</trkpt>
<trkpt lat="-27.2744459" lon="151.2900623">
  <ele>359.38</ele>
  <time>2026-09-01T19:54:45Z</time>
  <course>352.88</course>
  <speed>0.03</speed>
  <fix>3d</fix>
</trkpt>
<trkpt lat="-27.274446" lon="151.2900625">
  <ele>358.78</ele>
  <time>2026-09-01T19:54:45Z</time>
  <course>10.15</course>
  <speed>0.01</speed>
  <fix>3d</fix>
</trkpt>
<trkpt lat="-27.2744459" lon="151.2900623">
  <ele>359.09</ele>
  <time>2026-09-01T19:54:45Z</time>
  <course>353.93</course>
  <speed>0.03</speed>
  <fix>3d</fix>
</trkpt>
<trkpt lat="-27.274446" lon="151.2900625">
  <ele>358.64</ele>
  <time>2026-09-01T19:54:45Z</time>
  <course>10.14</course>
  <speed>0.01</speed>
  <fix>3d</fix>
</trkpt>
<trkpt lat="-27.2744459" lon="151.2900623">
  <ele>359.09</ele>
  <time>2026-09-01T19:54:45Z</time>
  <course>353.93</course>
  <speed>0.03</speed>
  <fix>3d</fix>
</trkpt>
<trkpt lat="-27.274446" lon="151.2900625">
  <ele>358.49</ele>
  <time>2026-09-01T19:54:45Z</time>
  <course>10.12</course>
  <speed>0.01</speed>
  <fix>3d</fix>
</trkpt>
<trkpt lat="-27.2744458" lon="151.2900623">
  <ele>358.81</ele>
  <time>2026-09-01T19:54:45Z</time>
  <course>356.86</course>
  <speed>0.03</speed>
  <fix>3d</fix>
</trkpt>
<trkpt lat="-27.274446" lon="151.2900625">
  <ele>358.34</ele>
  <time>2026-09-01T19:54:45Z</time>
  <course>10.12</course>
  <speed>0.01</speed>
  <fix>3d</fix>
</trkpt>
<trkpt lat="-27.2744458" lon="151.2900623">
  <ele>358.81</ele>
  <time>2026-09-01T19:54:45Z</time>
  <course>356.86</course>
  <speed>0.03</speed>
  <fix>3d</fix>
</trkpt>
<trkpt lat="-27.274446" lon="151.2900625">
  <ele>358.19</ele>
  <time>2026-09-01T19:54:45Z</time>
  <course>10.11</course>
  <speed>0.01</speed>
  <fix>3d</fix>
</trkpt>
<trkpt lat="-27.2744458" lon="151.2900623">
  <ele>358.52</ele>
  <time>2026-09-01T19:54:45Z</time>
  <course>2.0</course>
  <speed>0.02</speed>
  <fix>3d</fix>
</trkpt>
<trkpt lat="-27.274446" lon="151.2900625">
  <ele>358.04</ele>
  <time>2026-09-01T19:54:45Z</time>
  <course>10.11</course>
  <speed>0.01414213562373095</speed>
  <fix>3d</fix>
</trkpt>
<trkpt lat="-27.2744458" lon="151.2900623">
  <ele>358.52</ele>
  <time>2026-09-01T19:54:45Z</time>
  <course>2.0</course>
  <speed>0.02</speed>
  <fix>3d</fix>
</trkpt>
<trkpt lat="-27.2744459" lon="151.2900625">
  <ele>357.89</ele>
  <time>2026-09-01T19:54:45Z</time>
  <course>10.11</course>
  <speed>0.01414213562373095</speed>
  <fix>3d</fix>
</trkpt>
<trkpt lat="-27.2744457" lon="151.2900623">
  <ele>358.23</ele>
  <time>2026-09-01T19:54:45Z</time>
  <course>9.37</course>
  <speed>0.02</speed>
  <fix>3d</fix>
</trkpt>
<trkpt lat="-27.2744459" lon="151.2900625">
  <ele>357.74</ele>
  <time>2026-09-01T19:54:45Z</time>
  <course>10.11</course>
  <speed>0.01414213562373095</speed>
  <fix>3d</fix>
</trkpt>
<trkpt lat="-27.2744457" lon="151.2900623">
  <ele>358.23</ele>
  <time>2026-09-01T19:54:45Z</time>
  <course>9.37</course>
  <speed>0.02</speed>
  <fix>3d</fix>
</trkpt>
<trkpt lat="-27.2744459" lon="151.2900625">
  <ele>357.59</ele>
  <time>2026-09-01T19:54:45Z</time>
  <course>10.11</course>
  <speed>0.022360679774997897</speed>
  <fix>3d</fix>
</trkpt>
<trkpt lat="-27.2744457" lon="151.2900623">
  <ele>357.94</ele>
  <time>2026-09-01T19:54:45Z</time>
  <course>19.55</course>
  <speed>0.02</speed>
  <fix>3d</fix>
</trkpt>
<trkpt lat="-27.2744459" lon="151.2900625">
  <ele>357.44</ele>
  <time>2026-09-01T19:54:45Z</time>
  <course>10.11</course>
  <speed>0.022360679774997897</speed>
  <fix>3d</fix>
</trkpt>
<trkpt lat="-27.2744457" lon="151.2900623">
  <ele>357.94</ele>
  <time>2026-09-01T19:54:45Z</time>
  <course>19.55</course>
  <speed>0.02</speed>
  <fix>3d</fix>
</trkpt>
<trkpt lat="-27.2744459" lon="151.2900625">
  <ele>357.28</ele>
  <time>2026-09-01T19:54:45Z</time>
  <course>10.12</course>
  <speed>0.0282842712474619</speed>
  <fix>3d</fix>
</trkpt>
<trkpt lat="-27.2744456" lon="151.2900623">
  <ele>357.64</ele>
  <time>2026-09-01T19:54:45Z</time>
  <course>34.51</course>
  <speed>0.01</speed>
  <fix>3d</fix>
</trkpt>
<trkpt lat="-27.2744459" lon="151.2900625">
  <ele>357.13</ele>
  <time>2026-09-01T19:54:45Z</time>
  <course>10.14</course>
  <speed>0.0282842712474619</speed>
  <fix>3d</fix>
</trkpt>
<trkpt lat="-27.2744456" lon="151.2900623">
  <ele>357.64</ele>
  <time>2026-09-01T19:54:45Z</time>
  <course>34.51</course>
  <speed>0.01</speed>
  <fix>3d</fix>
</trkpt>
<trkpt lat="-27.2744459" lon="151.2900625">
  <ele>356.98</ele>
  <time>2026-09-01T19:54:45Z</time>
  <course>10.17</course>
  <speed>0.0282842712474619</speed>
  <fix>3d</fix>
</trkpt>
<trkpt lat="-27.2744456" lon="151.2900623">
  <ele>357.34</ele>
  <time>2026-09-01T19:54:45Z</time>
  <course>50.57</course>
  <speed>0.01</speed>
  <fix>3d</fix>
</trkpt>
<trkpt lat="-27.2744459" lon="151.2900625">
  <ele>356.83</ele>
  <time>2026-09-01T19:54:45Z</time>
  <course>10.2</course>
  <speed>0.0282842712474619</speed>
  <fix>3d</fix>
</trkpt>
<trkpt lat="-27.2744456" lon="151.2900623">
  <ele>357.34</ele>
  <time>2026-09-01T19:54:45Z</time>
  <course>50.57</course>
  <speed>0.01</speed>
  <fix>3d</fix>
</trkpt>
<trkpt lat="-27.2744459" lon="151.2900625">
  <ele>356.67</ele>
  <time>2026-09-01T19:54:45Z</time>
  <course>10.22</course>
  <speed>0.0282842712474619</speed>
  <fix>3d</fix>
</trkpt>
<trkpt lat="-27.2744456" lon="151.2900623">
  <ele>357.04</ele>
  <time>2026-09-01T19:54:45Z</time>
  <course>66.15</course>
  <speed>0.01</speed>
  <fix>3d</fix>
</trkpt>
<trkpt lat="-27.2744459" lon="151.2900625">
  <ele>356.52</ele>
  <time>2026-09-01T19:54:45Z</time>
  <course>10.25</course>
  <speed>0.0316227766016838</speed>
  <fix>3d</fix>
</trkpt>
<trkpt lat="-27.2744456" lon="151.2900623">
  <ele>357.04</ele>
  <time>2026-09-01T19:54:45Z</time>
  <course>66.15</course>
  <speed>0.01</speed>
  <fix>3d</fix>
</trkpt>
<trkpt lat="-27.2744459" lon="151.2900625">
  <ele>356.37</ele>
  <time>2026-09-01T19:54:45Z</time>
  <course>10.26</course>
  <speed>0.0316227766016838</speed>
  <fix>3d</fix>
</trkpt>
<trkpt lat="-27.2744456" lon="151.2900624">
  <ele>356.74</ele>
  <time>2026-09-01T19:54:45Z</time>
  <course>87.8</course>
  <speed>0.01</speed>
  <fix>3d</fix>
</trkpt>
<trkpt lat="-27.2744459" lon="151.2900625">
  <ele>356.22</ele>
  <time>2026-09-01T19:54:45Z</time>
  <course>10.28</course>
  <speed>0.0316227766016838</speed>
  <fix>3d</fix>
</trkpt>
<trkpt lat="-27.2744456" lon="151.2900624">
  <ele>356.74</ele>
  <time>2026-09-01T19:54:45Z</time>
  <course>87.8</course>
  <speed>0.01</speed>
  <fix>3d</fix>
</trkpt>
<trkpt lat="-27.2744458" lon="151.2900625">
  <ele>356.07</ele>
  <time>2026-09-01T19:54:45Z</time>
  <course>10.29</course>
  <speed>0.0316227766016838</speed>
  <fix>3d</fix>
</trkpt>
<trkpt lat="-27.2744456" lon="151.2900625">
  <ele>356.44</ele>
  <time>2026-09-01T19:54:45Z</time>
  <course>114.76</course>
  <speed>0.01</speed>
  <fix>3d</fix>
</trkpt>
<trkpt lat="-27.2744458" lon="151.2900625">
  <ele>355.93</ele>
  <time>2026-09-01T19:54:45Z</time>
  <course>10.31</course>
  <speed>0.0412310562561766</speed>
  <fix>3d</fix>
</trkpt>
<trkpt lat="-27.2744456" lon="151.2900625">
  <ele>356.44</ele>
  <time>2026-09-01T19:54:45Z</time>
  <course>114.76</course>
  <speed>0.01</speed>
  <fix>3d</fix>
</trkpt>
<trkpt lat="-27.2744458" lon="151.2900625">
  <ele>355.78</ele>
  <time>2026-09-01T19:54:45Z</time>
  <course>10.33</course>
  <speed>0.0412310562561766</speed>
  <fix>3d</fix>
</trkpt>
<trkpt lat="-27.2744456" lon="151.2900625">
  <ele>356.15</ele>
  <time>2026-09-01T19:54:45Z</time>
  <course>137.72</course>
  <speed>0.01</speed>
  <fix>3d</fix>
</trkpt>
<trkpt lat="-27.2744458" lon="151.2900625">
  <ele>355.63</ele>
  <time>2026-09-01T19:54:45Z</time>
  <course>10.33</course>
  <speed>0.0412310562561766</speed>
  <fix>3d</fix>
</trkpt>
<trkpt lat="-27.2744456" lon="151.2900625">
  <ele>356.15</ele>
  <time>2026-09-01T19:54:45Z</time>
  <course>137.72</course>
  <speed>0.01</speed>
  <fix>3d</fix>
</trkpt>
<trkpt lat="-27.2744459" lon="151.2900625">
  <ele>355.48</ele>
  <time>2026-09-01T19:54:45Z</time>
  <course>10.32</course>
  <speed>0.0412310562561766</speed>
  <fix>3d</fix>
</trkpt>
<trkpt lat="-27.2744456" lon="151.2900625">
  <ele>355.85</ele>
  <time>2026-09-01T19:54:45Z</time>
  <course>151.44</course>
  <speed>0.01</speed>
  <fix>3d</fix>
</trkpt>
<trkpt lat="-27.2744459" lon="151.2900625">
  <ele>355.33</ele>
  <time>2026-09-01T19:54:45Z</time>
  <course>10.29</course>
  <speed>0.0412310562561766</speed>
  <fix>3d</fix>
</trkpt>
<trkpt lat="-27.2744456" lon="151.2900625">
  <ele>355.85</ele>
  <time>2026-09-01T19:54:45Z</time>
  <course>151.44</course>
  <speed>0.01</speed>
  <fix>3d</fix>
</trkpt>
<trkpt lat="-27.2744459" lon="151.2900625">
  <ele>355.18</ele>
  <time>2026-09-01T19:54:45Z</time>
  <course>10.27</course>
  <speed>0.0412310562561766</speed>
  <fix>3d</fix>
</trkpt>
<trkpt lat="-27.2744456" lon="151.2900625">
  <ele>355.55</ele>
  <time>2026-09-01T19:54:45Z</time>
  <course>157.74</course>
  <speed>0.02</speed>
  <fix>3d</fix>
</trkpt>
<trkpt lat="-27.2744459" lon="151.2900625">
  <ele>355.03</ele>
  <time>2026-09-01T19:54:45Z</time>
  <course>10.26</course>
  <speed>0.05099019513592785</speed>
  <fix>3d</fix>
</trkpt>
<trkpt lat="-27.2744456" lon="151.2900625">
  <ele>355.55</ele>
  <time>2026-09-01T19:54:45Z</time>
  <course>157.74</course>
  <speed>0.02</speed>
  <fix>3d</fix>
</trkpt>
<trkpt lat="-27.2744459" lon="151.2900625">
  <ele>354.88</ele>
  <time>2026-09-01T19:54:45Z</time>
  <course>10.26</course>
  <speed>0.05099019513592785</speed>
  <fix>3d</fix>
</trkpt>
<trkpt lat="-27.2744456" lon="151.2900625">
  <ele>355.26</ele>
  <time>2026-09-01T19:54:45Z</time>
  <course>162.31</course>
  <speed>0.02</speed>
  <fix>3d</fix>
</trkpt>
<trkpt lat="-27.2744459" lon="151.2900625">
  <ele>354.73</ele>
  <time>2026-09-01T19:54:45Z</time>
  <course>10.27</course>
  <speed>0.05099019513592785</speed>
  <fix>3d</fix>
</trkpt>
<trkpt lat="-27.2744456" lon="151.2900625">
  <ele>355.26</ele>
  <time>2026-09-01T19:54:45Z</time>
  <course>162.31</course>
  <speed>0.02</speed>
  <fix>3d</fix>
</trkpt>
<trkpt lat="-27.2744459" lon="151.2900625">
  <ele>354.59</ele>
  <time>2026-09-01T19:54:45Z</time>
  <course>10.28</course>
  <speed>0.05099019513592785</speed>
  <fix>3d</fix>
</trkpt>
<trkpt lat="-27.2744457" lon="151.2900625">
  <ele>354.96</ele>
  <time>2026-09-01T19:54:45Z</time>
  <course>165.9</course>
  <speed>0.02</speed>
  <fix>3d</fix>
</trkpt>
<trkpt lat="-27.274446" lon="151.2900625">
  <ele>354.44</ele>
  <time>2026-09-01T19:54:45Z</time>
  <course>10.27</course>
  <speed>0.05099019513592785</speed>
  <fix>3d</fix>
</trkpt>
<trkpt lat="-27.2744457" lon="151.2900625">
  <ele>354.96</ele>
  <time>2026-09-01T19:54:45Z</time>
  <course>165.9</course>
  <speed>0.02</speed>
  <fix>3d</fix>
</trkpt>
<trkpt lat="-27.274446" lon="151.2900626">
  <ele>354.29</ele>
  <time>2026-09-01T19:54:45Z</time>
  <course>10.26</course>
  <speed>0.05099019513592785</speed>
  <fix>3d</fix>
</trkpt>
<trkpt lat="-27.2744457" lon="151.2900626">
  <ele>354.67</ele>
  <time>2026-09-01T19:54:45Z</time>
  <course>167.47</course>
  <speed>0.03</speed>
  <fix>3d</fix>
</trkpt>
<trkpt lat="-27.274446" lon="151.2900626">
  <ele>354.14</ele>
  <time>2026-09-01T19:54:45Z</time>
  <course>10.24</course>
  <speed>0.05099019513592785</speed>
  <fix>3d</fix>
</trkpt>
<trkpt lat="-27.2744457" lon="151.2900626">
  <ele>354.67</ele>
  <time>2026-09-01T19:54:45Z</time>
  <course>167.47</course>
  <speed>0.03</speed>
  <fix>3d</fix>
</trkpt>
<trkpt lat="-27.274446" lon="151.2900626">
  <ele>353.99</ele>
  <time>2026-09-01T19:54:45Z</time>
  <course>10.22</course>
  <speed>0.06082762530298219</speed>
  <fix>3d</fix>
</trkpt>
<trkpt lat="-27.2744458" lon="151.2900626">
  <ele>354.38</ele>
  <time>2026-09-01T19:54:45Z</time>
  <course>168.44</course>
  <speed>0.03</speed>
  <fix>3d</fix>
</trkpt>
<trkpt lat="-27.2744461" lon="151.2900626">
  <ele>353.85</ele>
  <time>2026-09-01T19:54:45Z</time>
  <course>10.19</course>
  <speed>0.06082762530298219</speed>
  <fix>3d</fix>
</trkpt>
<trkpt lat="-27.2744458" lon="151.2900626">
  <ele>354.38</ele>
  <time>2026-09-01T19:54:45Z</time>
  <course>168.44</course>
  <speed>0.03</speed>
  <fix>3d</fix>
</trkpt>
<trkpt lat="-27.2744461" lon="151.2900626">
  <ele>353.7</ele>
  <time>2026-09-01T19:54:45Z</time>
  <course>10.17</course>
  <speed>0.06082762530298219</speed>
  <fix>3d</fix>
</trkpt>
<trkpt lat="-27.2744458" lon="151.2900626">
  <ele>354.09</ele>
  <time>2026-09-01T19:54:45Z</time>
  <course>169.78</course>
  <speed>0.03</speed>
  <fix>3d</fix>
</trkpt>
<trkpt lat="-27.2744461" lon="151.2900626">
  <ele>353.56</ele>
  <time>2026-09-01T19:54:45Z</time>
  <course>10.16</course>
  <speed>0.06082762530298219</speed>
  <fix>3d</fix>
</trkpt>
<trkpt lat="-27.2744458" lon="151.2900626">
  <ele>354.09</ele>
  <time>2026-09-01T19:54:45Z</time>
  <course>169.78</course>
  <speed>0.03</speed>
  <fix>3d</fix>
</trkpt>
<trkpt lat="-27.2744462" lon="151.2900626">
  <ele>353.43</ele>
  <time>2026-09-01T19:54:45Z</time>
  <course>10.14</course>
  <speed>0.06082762530298219</speed>
  <fix>3d</fix>
</trkpt>
<trkpt lat="-27.2744459" lon="151.2900626">
  <ele>353.81</ele>
  <time>2026-09-01T19:54:45Z</time>
  <course>171.32</course>
  <speed>0.04</speed>
  <fix>3d</fix>
</trkpt>
<trkpt lat="-27.2744462" lon="151.2900626">
  <ele>353.29</ele>
  <time>2026-09-01T19:54:45Z</time>
  <course>10.13</course>
  <speed>0.06082762530298219</speed>
  <fix>3d</fix>
</trkpt>
<trkpt lat="-27.2744459" lon="151.2900626">
  <ele>353.81</ele>
  <time>2026-09-01T19:54:45Z</time>
  <course>171.32</course>
  <speed>0.04</speed>
  <fix>3d</fix>
</trkpt>
<trkpt lat="-27.2744462" lon="151.2900626">
  <ele>353.16</ele>
  <time>2026-09-01T19:54:45Z</time>
  <course>10.13</course>
  <speed>0.06082762530298219</speed>
  <fix>3d</fix>
</trkpt>
<trkpt lat="-27.274446" lon="151.2900626">
  <ele>353.53</ele>
  <time>2026-09-01T19:54:45Z</time>
  <course>172.73</course>
  <speed>0.04</speed>
  <fix>3d</fix>
</trkpt>
<trkpt lat="-27.2744463" lon="151.2900626">
  <ele>353.04</ele>
  <time>2026-09-01T19:54:45Z</time>
  <course>10.14</course>
  <speed>0.07</speed>
  <fix>3d</fix>
</trkpt>
<trkpt lat="-27.274446" lon="151.2900626">
  <ele>353.53</ele>
  <time>2026-09-01T19:54:45Z</time>
  <course>172.73</course>
  <speed>0.04</speed>
  <fix>3d</fix>
</trkpt>
<trkpt lat="-27.2744463" lon="151.2900626">
  <ele>352.91</ele>
  <time>2026-09-01T19:54:45Z</time>
  <course>10.15</course>
  <speed>0.07</speed>
  <fix>3d</fix>
</trkpt>
<trkpt lat="-27.2744461" lon="151.2900626">
  <ele>353.27</ele>
  <time>2026-09-01T19:54:45Z</time>
  <course>174.43</course>
  <speed>0.05</speed>
  <fix>3d</fix>
</trkpt>
<trkpt lat="-27.2744464" lon="151.2900626">
  <ele>352.79</ele>
  <time>2026-09-01T19:54:45Z</time>
  <course>10.16</course>
  <speed>0.07</speed>
  <fix>3d</fix>
</trkpt>
<trkpt lat="-27.2744461" lon="151.2900626">
  <ele>353.27</ele>
  <time>2026-09-01T19:54:45Z</time>
  <course>174.43</course>
  <speed>0.05</speed>
  <fix>3d</fix>
</trkpt>
<trkpt lat="-27.2744464" lon="151.2900626">
  <ele>352.67</ele>
  <time>2026-09-01T19:54:45Z</time>
  <course>10.17</course>
  <speed>0.07</speed>
  <fix>3d</fix>
</trkpt>
<trkpt lat="-27.2744461" lon="151.2900626">
  <ele>353.01</ele>
  <time>2026-09-01T19:54:45Z</time>
  <course>175.75</course>
  <speed>0.05</speed>
  <fix>3d</fix>
</trkpt>
<trkpt lat="-27.2744464" lon="151.2900626">
  <ele>352.55</ele>
  <time>2026-09-01T19:54:45Z</time>
  <course>10.17</course>
  <speed>0.07</speed>
  <fix>3d</fix>
</trkpt>
<trkpt lat="-27.2744461" lon="151.2900626">
  <ele>353.01</ele>
  <time>2026-09-01T19:54:45Z</time>
  <course>175.75</course>
  <speed>0.05</speed>
  <fix>3d</fix>
</trkpt>
<trkpt lat="-27.2744465" lon="151.2900626">
  <ele>352.44</ele>
  <time>2026-09-01T19:54:45Z</time>
  <course>10.17</course>
  <speed>0.07</speed>
  <fix>3d</fix>
</trkpt>
<trkpt lat="-27.2744463" lon="151.2900626">
  <ele>352.77</ele>
  <time>2026-09-01T19:54:45Z</time>
  <course>176.79</course>
  <speed>0.05</speed>
  <fix>3d</fix>
</trkpt>
<trkpt lat="-27.2744466" lon="151.2900626">
  <ele>352.33</ele>
  <time>2026-09-01T19:54:45Z</time>
  <course>10.17</course>
  <speed>0.08</speed>
  <fix>3d</fix>
</trkpt>
<trkpt lat="-27.2744463" lon="151.2900626">
  <ele>352.77</ele>
  <time>2026-09-01T19:54:45Z</time>
  <course>176.79</course>
  <speed>0.05</speed>
  <fix>3d</fix>
</trkpt>
<trkpt lat="-27.2744466" lon="151.2900626">
  <ele>352.22</ele>
  <time>2026-09-01T19:54:45Z</time>
  <course>10.16</course>
  <speed>0.08</speed>
  <fix>3d</fix>
</trkpt>
<trkpt lat="-27.2744464" lon="151.2900626">
  <ele>352.54</ele>
  <time>2026-09-01T19:54:45Z</time>
  <course>177.79</course>
  <speed>0.06</speed>
  <fix>3d</fix>
</trkpt>
<trkpt lat="-27.2744467" lon="151.2900626">
  <ele>352.1</ele>
  <time>2026-09-01T19:54:45Z</time>
  <course>10.15</course>
  <speed>0.08</speed>
  <fix>3d</fix>
</trkpt>
<trkpt lat="-27.2744464" lon="151.2900626">
  <ele>352.54</ele>
  <time>2026-09-01T19:54:45Z</time>
  <course>177.79</course>
  <speed>0.06</speed>
  <fix>3d</fix>
</trkpt>
<trkpt lat="-27.2744467" lon="151.2900626">
  <ele>352.0</ele>
  <time>2026-09-01T19:54:45Z</time>
  <course>10.12</course>
  <speed>0.08</speed>
  <fix>3d</fix>
</trkpt>
<trkpt lat="-27.2744465" lon="151.2900627">
  <ele>352.32</ele>
  <time>2026-09-01T19:54:45Z</time>
  <course>178.22</course>
  <speed>0.06</speed>
  <fix>3d</fix>
</trkpt>
<trkpt lat="-27.2744468" lon="151.2900626">
  <ele>351.89</ele>
  <time>2026-09-01T19:54:45Z</time>
  <course>10.09</course>
  <speed>0.08</speed>
  <fix>3d</fix>
</trkpt>
<trkpt lat="-27.2744465" lon="151.2900627">
  <ele>352.32</ele>
  <time>2026-09-01T19:54:45Z</time>
  <course>178.22</course>
  <speed>0.06</speed>
  <fix>3d</fix>
</trkpt>
<trkpt lat="-27.2744468" lon="151.2900626">
  <ele>351.79</ele>
  <time>2026-09-01T19:54:45Z</time>
  <course>10.07</course>
  <speed>0.08</speed>
  <fix>3d</fix>
</trkpt>
<trkpt lat="-27.2744466" lon="151.2900627">
  <ele>352.09</ele>
  <time>2026-09-01T19:54:45Z</time>
  <course>178.3</course>
  <speed>0.06</speed>
  <fix>3d</fix>
</trkpt>
<trkpt lat="-27.2744469" lon="151.2900627">
  <ele>351.68</ele>
  <time>2026-09-01T19:54:45Z</time>
  <course>10.06</course>
  <speed>0.08</speed>
  <fix>3d</fix>
</trkpt>
<trkpt lat="-27.2744466" lon="151.2900627">
  <ele>352.09</ele>
  <time>2026-09-01T19:54:45Z</time>
  <course>178.3</course>
  <speed>0.06</speed>
  <fix>3d</fix>
</trkpt>
<trkpt lat="-27.2744469" lon="151.2900627">
  <ele>351.58</ele>
  <time>2026-09-01T19:54:45Z</time>
  <course>10.05</course>
  <speed>0.08</speed>
  <fix>3d</fix>
</trkpt>
<trkpt lat="-27.2744467" lon="151.2900627">
  <ele>351.89</ele>
  <time>2026-09-01T19:54:45Z</time>
  <course>178.51</course>
  <speed>0.06</speed>
  <fix>3d</fix>
</trkpt>
<trkpt lat="-27.274447" lon="151.2900627">
  <ele>351.48</ele>
  <time>2026-09-01T19:54:45Z</time>
  <course>10.04</course>
  <speed>0.08</speed>
  <fix>3d</fix>
</trkpt>
<trkpt lat="-27.2744467" lon="151.2900627">
  <ele>351.89</ele>
  <time>2026-09-01T19:54:45Z</time>
  <course>178.51</course>
  <speed>0.06</speed>
  <fix>3d</fix>
</trkpt>
<trkpt lat="-27.2744471" lon="151.2900627">
  <ele>351.39</ele>
  <time>2026-09-01T19:54:45Z</time>
  <course>10.03</course>
  <speed>0.08</speed>
  <fix>3d</fix>
</trkpt>
<trkpt lat="-27.2744468" lon="151.2900627">
  <ele>351.69</ele>
  <time>2026-09-01T19:54:45Z</time>
  <course>178.66</course>
  <speed>0.06</speed>
  <fix>3d</fix>
</trkpt>
<trkpt lat="-27.2744471" lon="151.2900627">
  <ele>351.29</ele>
  <time>2026-09-01T19:54:45Z</time>
  <course>10.02</course>
  <speed>0.08</speed>
  <fix>3d</fix>
</trkpt>
<trkpt lat="-27.2744468" lon="151.2900627">
  <ele>351.69</ele>
  <time>2026-09-01T19:54:45Z</time>
  <course>178.66</course>
  <speed>0.06</speed>
  <fix>3d</fix>
</trkpt>
<trkpt lat="-27.2744472" lon="151.2900627">
  <ele>351.2</ele>
  <time>2026-09-01T19:54:45Z</time>
  <course>10.01</course>
  <speed>0.08</speed>
  <fix>3d</fix>
</trkpt>
<trkpt lat="-27.274447" lon="151.2900627">
  <ele>351.49</ele>
  <time>2026-09-01T19:54:45Z</time>
  <course>178.58</course>
  <speed>0.06</speed>
  <fix>3d</fix>
</trkpt>
<trkpt lat="-27.2744472" lon="151.2900627">
  <ele>351.11</ele>
  <time>2026-09-01T19:54:45Z</time>
  <course>10.0</course>
  <speed>0.07</speed>
  <fix>3d</fix>
</trkpt>
<trkpt lat="-27.274447" lon="151.2900627">
  <ele>351.49</ele>
  <time>2026-09-01T19:54:45Z</time>
  <course>178.58</course>
  <speed>0.06</speed>
  <fix>3d</fix>
</trkpt>
<trkpt lat="-27.2744473" lon="151.2900627">
  <ele>351.01</ele>
  <time>2026-09-01T19:54:45Z</time>
  <course>10.0</course>
  <speed>0.07</speed>
  <fix>3d</fix>
</trkpt>
<trkpt lat="-27.2744471" lon="151.2900627">
  <ele>351.3</ele>
  <time>2026-09-01T19:54:45Z</time>
  <course>178.33</course>
  <speed>0.06</speed>
  <fix>3d</fix>
</trkpt>
<trkpt lat="-27.2744473" lon="151.2900627">
  <ele>350.92</ele>
  <time>2026-09-01T19:54:45Z</time>
  <course>9.99</course>
  <speed>0.07071067811865475</speed>
  <fix>3d</fix>
</trkpt>
<trkpt lat="-27.2744471" lon="151.2900627">
  <ele>351.3</ele>
  <time>2026-09-01T19:54:45Z</time>
  <course>178.33</course>
  <speed>0.06</speed>
  <fix>3d</fix>
</trkpt>
<trkpt lat="-27.2744474" lon="151.2900627">
  <ele>350.83</ele>
  <time>2026-09-01T19:54:45Z</time>
  <course>9.98</course>
  <speed>0.07071067811865475</speed>
  <fix>3d</fix>
</trkpt>
<trkpt lat="-27.2744472" lon="151.2900627">
  <ele>351.11</ele>
  <time>2026-09-01T19:54:45Z</time>
  <course>178.0</course>
  <speed>0.06</speed>
  <fix>3d</fix>
</trkpt>
<trkpt lat="-27.2744474" lon="151.2900627">
  <ele>350.74</ele>
  <time>2026-09-01T19:54:45Z</time>
  <course>9.97</course>
  <speed>0.07071067811865475</speed>
  <fix>3d</fix>
</trkpt>
<trkpt lat="-27.2744472" lon="151.2900627">
  <ele>351.11</ele>
  <time>2026-09-01T19:54:45Z</time>
  <course>178.0</course>
  <speed>0.06</speed>
  <fix>3d</fix>
</trkpt>
<trkpt lat="-27.2744475" lon="151.2900627">
  <ele>350.66</ele>
  <time>2026-09-01T19:54:45Z</time>
  <course>9.97</course>
  <speed>0.07071067811865475</speed>
  <fix>3d</fix>
</trkpt>
<trkpt lat="-27.2744473" lon="151.2900627">
  <ele>350.93</ele>
  <time>2026-09-01T19:54:45Z</time>
  <course>177.68</course>
  <speed>0.06</speed>
  <fix>3d</fix>
</trkpt>
<trkpt lat="-27.2744475" lon="151.2900627">
  <ele>350.58</ele>
  <time>2026-09-01T19:54:45Z</time>
  <course>9.99</course>
  <speed>0.07</speed>
  <fix>3d</fix>
</trkpt>
<trkpt lat="-27.2744473" lon="151.2900627">
  <ele>350.93</ele>
  <time>2026-09-01T19:54:45Z</time>
  <course>177.68</course>
  <speed>0.06</speed>
  <fix>3d</fix>
</trkpt>
<trkpt lat="-27.2744476" lon="151.2900627">
  <ele>350.5</ele>
  <time>2026-09-01T19:54:45Z</time>
  <course>10.03</course>
  <speed>0.06</speed>
  <fix>3d</fix>
</trkpt>
<trkpt lat="-27.2744474" lon="151.2900627">
  <ele>350.76</ele>
  <time>2026-09-01T19:54:45Z</time>
  <course>178.58</course>
  <speed>0.05</speed>
  <fix>3d</fix>
</trkpt>
<trkpt lat="-27.2744476" lon="151.2900627">
  <ele>350.42</ele>
  <time>2026-09-01T19:54:45Z</time>
  <course>10.09</course>
  <speed>0.06</speed>
  <fix>3d</fix>
</trkpt>
<trkpt lat="-27.2744474" lon="151.2900627">
  <ele>350.76</ele>
  <time>2026-09-01T19:54:45Z</time>
  <course>178.58</course>
  <speed>0.05</speed>
  <fix>3d</fix>
</trkpt>
<trkpt lat="-27.2744477" lon="151.2900627">
  <ele>350.34</ele>
  <time>2026-09-01T19:54:45Z</time>
  <course>10.16</course>
  <speed>0.06</speed>
  <fix>3d</fix>
</trkpt>
<trkpt lat="-27.2744475" lon="151.2900627">
  <ele>350.59</ele>
  <time>2026-09-01T19:54:45Z</time>
  <course>182.36</course>
  <speed>0.05</speed>
  <fix>3d</fix>
</trkpt>
<trkpt lat="-27.2744477" lon="151.2900627">
  <ele>350.26</ele>
  <time>2026-09-01T19:54:45Z</time>
  <course>10.25</course>
  <speed>0.05</speed>
  <fix>3d</fix>
</trkpt>
<trkpt lat="-27.2744475" lon="151.2900627">
  <ele>350.59</ele>
  <time>2026-09-01T19:54:45Z</time>
  <course>182.36</course>
  <speed>0.05</speed>
  <fix>3d</fix>
</trkpt>
<trkpt lat="-27.2744477" lon="151.2900627">
  <ele>350.19</ele>
  <time>2026-09-01T19:54:45Z</time>
  <course>10.35</course>
  <speed>0.05</speed>
  <fix>3d</fix>
</trkpt>
<trkpt lat="-27.2744476" lon="151.2900627">
  <ele>350.44</ele>
  <time>2026-09-01T19:54:45Z</time>
  <course>190.39</course>
  <speed>0.04</speed>
  <fix>3d</fix>
</trkpt>
<trkpt lat="-27.2744478" lon="151.2900627">
  <ele>350.12</ele>
  <time>2026-09-01T19:54:46Z</time>
  <course>10.44</course>
  <speed>0.05099019513592785</speed>
  <fix>3d</fix>
</trkpt>
<trkpt lat="-27.2744476" lon="151.2900627">
  <ele>350.44</ele>
  <time>2026-09-01T19:54:46Z</time>
  <course>190.39</course>
  <speed>0.04</speed>
  <fix>3d</fix>
</trkpt>
<trkpt lat="-27.2744478" lon="151.2900627">
  <ele>350.05</ele>
  <time>2026-09-01T19:54:46Z</time>
  <course>10.54</course>
  <speed>0.0412310562561766</speed>
  <fix>3d</fix>
</trkpt>
<trkpt lat="-27.2744477" lon="151.2900627">
  <ele>350.29</ele>
  <time>2026-09-01T19:54:46Z</time>
  <course>203.78</course>
  <speed>0.04</speed>
  <fix>3d</fix>
</trkpt>
<trkpt lat="-27.2744478" lon="151.2900627">
  <ele>349.97</ele>
  <time>2026-09-01T19:54:46Z</time>
  <course>10.63</course>
  <speed>0.044721359549995794</speed>
  <fix>3d</fix>
</trkpt>
<trkpt lat="-27.2744477" lon="151.2900627">
  <ele>350.29</ele>
  <time>2026-09-01T19:54:46Z</time>
  <course>203.78</course>
  <speed>0.04</speed>
  <fix>3d</fix>
</trkpt>
<trkpt lat="-27.2744479" lon="151.2900627">
  <ele>349.9</ele>
  <time>2026-09-01T19:54:46Z</time>
  <course>10.7</course>
  <speed>0.044721359549995794</speed>
  <fix>3d</fix>
</trkpt>
<trkpt lat="-27.2744478" lon="151.2900627">
  <ele>350.14</ele>
  <time>2026-09-01T19:54:46Z</time>
  <course>221.03</course>
  <speed>0.04</speed>
  <fix>3d</fix>
</trkpt>
<trkpt lat="-27.2744479" lon="151.2900627">
  <ele>349.84</ele>
  <time>2026-09-01T19:54:46Z</time>
  <course>10.77</course>
  <speed>0.04242640687119285</speed>
  <fix>3d</fix>
</trkpt>
<trkpt lat="-27.2744478" lon="151.2900627">
  <ele>350.14</ele>
  <time>2026-09-01T19:54:46Z</time>
  <course>221.03</course>
  <speed>0.04</speed>
  <fix>3d</fix>
</trkpt>
<trkpt lat="-27.2744479" lon="151.2900626">
  <ele>349.77</ele>
  <time>2026-09-01T19:54:46Z</time>
  <course>10.83</course>
  <speed>0.04242640687119285</speed>
  <fix>3d</fix>
</trkpt>
<trkpt lat="-27.2744478" lon="151.2900626">
  <ele>350.0</ele>
  <time>2026-09-01T19:54:46Z</time>
  <course>237.92</course>
  <speed>0.04</speed>
  <fix>3d</fix>
</trkpt>
<trkpt lat="-27.2744479" lon="151.2900626">
  <ele>349.7</ele>
  <time>2026-09-01T19:54:46Z</time>
  <course>10.88</course>
  <speed>0.05</speed>
  <fix>3d</fix>
</trkpt>
<trkpt lat="-27.2744478" lon="151.2900626">
  <ele>350.0</ele>
  <time>2026-09-01T19:54:46Z</time>
  <course>237.92</course>
  <speed>0.04</speed>
  <fix>3d</fix>
</trkpt>
<trkpt lat="-27.2744479" lon="151.2900625">
  <ele>349.64</ele>
  <time>2026-09-01T19:54:46Z</time>
  <course>10.93</course>
  <speed>0.044721359549995794</speed>
  <fix>3d</fix>
</trkpt>
<trkpt lat="-27.2744479" lon="151.2900625">
  <ele>349.86</ele>
  <time>2026-09-01T19:54:46Z</time>
  <course>251.43</course>
  <speed>0.05</speed>
  <fix>3d</fix>
</trkpt>
<trkpt lat="-27.274448" lon="151.2900625">
  <ele>349.57</ele>
  <time>2026-09-01T19:54:46Z</time>
  <course>10.96</course>
  <speed>0.053851648071345036</speed>
  <fix>3d</fix>
</trkpt>
<trkpt lat="-27.2744479" lon="151.2900625">
  <ele>349.86</ele>
  <time>2026-09-01T19:54:46Z</time>
  <course>251.43</course>
  <speed>0.05</speed>
  <fix>3d</fix>
</trkpt>
<trkpt lat="-27.274448" lon="151.2900624">
  <ele>349.51</ele>
  <time>2026-09-01T19:54:46Z</time>
  <course>10.99</course>
  <speed>0.05099019513592785</speed>
  <fix>3d</fix>
</trkpt>
<trkpt lat="-27.2744479" lon="151.2900624">
  <ele>349.72</ele>
  <time>2026-09-01T19:54:46Z</time>
  <course>261.49</course>
  <speed>0.06</speed>
  <fix>3d</fix>
</trkpt>
<trkpt lat="-27.274448" lon="151.2900623">
  <ele>349.45</ele>
  <time>2026-09-01T19:54:46Z</time>
  <course>11.01</course>
  <speed>0.06082762530298219</speed>
  <fix>3d</fix>
</trkpt>
<trkpt lat="-27.2744479" lon="151.2900624">
  <ele>349.72</ele>
  <time>2026-09-01T19:54:46Z</time>
  <course>261.49</course>
  <speed>0.06</speed>
  <fix>3d</fix>
</trkpt>
<trkpt lat="-27.274448" lon="151.2900623">
  <ele>349.39</ele>
  <time>2026-09-01T19:54:46Z</time>
  <course>11.02</course>
  <speed>0.06082762530298219</speed>
  <fix>3d</fix>
</trkpt>
<trkpt lat="-27.2744479" lon="151.2900623">
  <ele>349.59</ele>
  <time>2026-09-01T19:54:46Z</time>
  <course>268.94</course>
  <speed>0.07</speed>
  <fix>3d</fix>
</trkpt>
<trkpt lat="-27.274448" lon="151.2900622">
  <ele>349.33</ele>
  <time>2026-09-01T19:54:46Z</time>
  <course>11.03</course>
  <speed>0.06</speed>
  <fix>3d</fix>
</trkpt>
<trkpt lat="-27.2744479" lon="151.2900623">
  <ele>349.59</ele>
  <time>2026-09-01T19:54:46Z</time>
  <course>268.94</course>
  <speed>0.07</speed>
  <fix>3d</fix>
</trkpt>
<trkpt lat="-27.274448" lon="151.2900621">
  <ele>349.27</ele>
  <time>2026-09-01T19:54:46Z</time>
  <course>11.05</course>
  <speed>0.07</speed>
  <fix>3d</fix>
</trkpt>
<trkpt lat="-27.2744479" lon="151.2900621">
  <ele>349.47</ele>
  <time>2026-09-01T19:54:46Z</time>
  <course>274.41</course>
  <speed>0.08</speed>
  <fix>3d</fix>
</trkpt>
<trkpt lat="-27.2744479" lon="151.290062">
  <ele>349.21</ele>
  <time>2026-09-01T19:54:46Z</time>
  <course>11.07</course>
  <speed>0.07</speed>
  <fix>3d</fix>
</trkpt>
<trkpt lat="-27.2744479" lon="151.2900621">
  <ele>349.47</ele>
  <time>2026-09-01T19:54:46Z</time>
  <course>274.41</course>
  <speed>0.08</speed>
  <fix>3d</fix>
</trkpt>
<trkpt lat="-27.2744479" lon="151.2900619">
  <ele>349.15</ele>
  <time>2026-09-01T19:54:46Z</time>
  <course>11.09</course>
  <speed>0.07</speed>
  <fix>3d</fix>
</trkpt>
<trkpt lat="-27.2744479" lon="151.2900619">
  <ele>349.35</ele>
  <time>2026-09-01T19:54:46Z</time>
  <course>278.47</course>
  <speed>0.09</speed>
  <fix>3d</fix>
</trkpt>
<trkpt lat="-27.2744479" lon="151.2900618">
  <ele>349.1</ele>
  <time>2026-09-01T19:54:46Z</time>
  <course>11.1</course>
  <speed>0.07</speed>
  <fix>3d</fix>
</trkpt>
<trkpt lat="-27.2744479" lon="151.2900619">
  <ele>349.35</ele>
  <time>2026-09-01T19:54:46Z</time>
  <course>278.47</course>
  <speed>0.09</speed>
  <fix>3d</fix>
</trkpt>
<trkpt lat="-27.2744479" lon="151.2900617">
  <ele>349.04</ele>
  <time>2026-09-01T19:54:46Z</time>
  <course>11.11</course>
  <speed>0.08</speed>
  <fix>3d</fix>
</trkpt>
<trkpt lat="-27.2744479" lon="151.2900617">
  <ele>349.23</ele>
  <time>2026-09-01T19:54:46Z</time>
  <course>281.7</course>
  <speed>0.09</speed>
  <fix>3d</fix>
</trkpt>
<trkpt lat="-27.2744479" lon="151.2900616">
  <ele>348.99</ele>
  <time>2026-09-01T19:54:46Z</time>
  <course>11.12</course>
  <speed>0.08</speed>
  <fix>3d</fix>
</trkpt>
<trkpt lat="-27.2744479" lon="151.2900617">
  <ele>349.23</ele>
  <time>2026-09-01T19:54:46Z</time>
  <course>281.7</course>
  <speed>0.09</speed>
  <fix>3d</fix>
</trkpt>
<trkpt lat="-27.2744479" lon="151.2900615">
  <ele>348.94</ele>
  <time>2026-09-01T19:54:46Z</time>
  <course>11.12</course>
  <speed>0.08062257748298549</speed>
  <fix>3d</fix>
</trkpt>
<trkpt lat="-27.2744479" lon="151.2900614">
  <ele>349.12</ele>
  <time>2026-09-01T19:54:46Z</time>
  <course>284.62</course>
  <speed>0.1</speed>
  <fix>3d</fix>
</trkpt>
<trkpt lat="-27.2744479" lon="151.2900614">
  <ele>348.89</ele>
  <time>2026-09-01T19:54:46Z</time>
  <course>11.12</course>
  <speed>0.07071067811865475</speed>
  <fix>3d</fix>
</trkpt>
<trkpt lat="-27.2744479" lon="151.2900614">
  <ele>349.12</ele>
  <time>2026-09-01T19:54:46Z</time>
  <course>284.62</course>
  <speed>0.1</speed>
  <fix>3d</fix>
</trkpt>
<trkpt lat="-27.2744479" lon="151.2900613">
  <ele>348.83</ele>
  <time>2026-09-01T19:54:46Z</time>
  <course>11.13</course>
  <speed>0.07071067811865475</speed>
  <fix>3d</fix>
</trkpt>
<trkpt lat="-27.2744478" lon="151.2900613">
  <ele>349.01</ele>
  <time>2026-09-01T19:54:46Z</time>
  <course>287.58</course>
  <speed>0.1</speed>
  <fix>3d</fix>
</trkpt>
<trkpt lat="-27.2744479" lon="151.2900612">
  <ele>348.78</ele>
  <time>2026-09-01T19:54:46Z</time>
  <course>11.13</course>
  <speed>0.07071067811865475</speed>
  <fix>3d</fix>
</trkpt>
<trkpt lat="-27.2744478" lon="151.2900613">
  <ele>349.01</ele>
  <time>2026-09-01T19:54:46Z</time>
  <course>287.58</course>
  <speed>0.1</speed>
  <fix>3d</fix>
</trkpt>
<trkpt lat="-27.2744479" lon="151.2900611">
  <ele>348.73</ele>
  <time>2026-09-01T19:54:46Z</time>
  <course>11.13</course>
  <speed>0.07071067811865475</speed>
  <fix>3d</fix>
</trkpt>
<trkpt lat="-27.2744478" lon="151.2900611">
  <ele>348.9</ele>
  <time>2026-09-01T19:54:46Z</time>
  <course>290.6</course>
  <speed>0.1</speed>
  <fix>3d</fix>
</trkpt>
<trkpt lat="-27.2744478" lon="151.290061">
  <ele>348.68</ele>
  <time>2026-09-01T19:54:46Z</time>
  <course>11.14</course>
  <speed>0.06082762530298219</speed>
  <fix>3d</fix>
</trkpt>
<trkpt lat="-27.2744478" lon="151.2900611">
  <ele>348.9</ele>
  <time>2026-09-01T19:54:46Z</time>
  <course>290.6</course>
  <speed>0.1</speed>
  <fix>3d</fix>
</trkpt>
<trkpt lat="-27.2744478" lon="151.290061">
  <ele>348.63</ele>
  <time>2026-09-01T19:54:46Z</time>
  <course>11.15</course>
  <speed>0.06082762530298219</speed>
  <fix>3d</fix>
</trkpt>
<trkpt lat="-27.2744477" lon="151.2900608">
  <ele>348.8</ele>
  <time>2026-09-01T19:54:46Z</time>
  <course>293.93</course>
  <speed>0.1</speed>
  <fix>3d</fix>
</trkpt>
<trkpt lat="-27.2744478" lon="151.2900609">
  <ele>348.58</ele>
  <time>2026-09-01T19:54:46Z</time>
  <course>11.16</course>
  <speed>0.0632455532033676</speed>
  <fix>3d</fix>
</trkpt>
<trkpt lat="-27.2744477" lon="151.2900608">
  <ele>348.8</ele>
  <time>2026-09-01T19:54:46Z</time>
  <course>293.93</course>
  <speed>0.1</speed>
  <fix>3d</fix>
</trkpt>
<trkpt lat="-27.2744477" lon="151.2900608">
  <ele>348.53</ele>
  <time>2026-09-01T19:54:46Z</time>
  <course>11.16</course>
  <speed>0.053851648071345036</speed>
  <fix>3d</fix>
</trkpt>
<trkpt lat="-27.2744476" lon="151.2900607">
  <ele>348.7</ele>
  <time>2026-09-01T19:54:46Z</time>
  <course>297.68</course>
  <speed>0.09</speed>
  <fix>3d</fix>
</trkpt>
<trkpt lat="-27.2744477" lon="151.2900607">
  <ele>348.48</ele>
  <time>2026-09-01T19:54:46Z</time>
  <course>11.17</course>
  <speed>0.053851648071345036</speed>
  <fix>3d</fix>
</trkpt>
<trkpt lat="-27.2744476" lon="151.2900607">
  <ele>348.7</ele>
  <time>2026-09-01T19:54:46Z</time>
  <course>297.68</course>
  <speed>0.09</speed>
  <fix>3d</fix>
</trkpt>
<trkpt lat="-27.2744477" lon="151.2900606">
  <ele>348.43</ele>
  <time>2026-09-01T19:54:46Z</time>
  <course>11.16</course>
  <speed>0.044721359549995794</speed>
  <fix>3d</fix>
</trkpt>
<trkpt lat="-27.2744475" lon="151.2900606">
  <ele>348.59</ele>
  <time>2026-09-01T19:54:46Z</time>
  <course>302.04</course>
  <speed>0.09</speed>
  <fix>3d</fix>
</trkpt>
<trkpt lat="-27.2744476" lon="151.2900606">
  <ele>348.38</ele>
  <time>2026-09-01T19:54:46Z</time>
  <course>11.16</course>
  <speed>0.044721359549995794</speed>
  <fix>3d</fix>
</trkpt>
<trkpt lat="-27.2744475" lon="151.2900606">
  <ele>348.59</ele>
  <time>2026-09-01T19:54:46Z</time>
  <course>302.04</course>
  <speed>0.09</speed>
  <fix>3d</fix>
</trkpt>
<trkpt lat="-27.2744476" lon="151.2900605">
  <ele>348.33</ele>
  <time>2026-09-01T19:54:46Z</time>
  <course>11.16</course>
  <speed>0.03605551275463989</speed>
  <fix>3d</fix>
</trkpt>
<trkpt lat="-27.2744474" lon="151.2900604">
  <ele>348.49</ele>
  <time>2026-09-01T19:54:46Z</time>
  <course>306.99</course>
  <speed>0.08</speed>
  <fix>3d</fix>
</trkpt>
<trkpt lat="-27.2744475" lon="151.2900605">
  <ele>348.28</ele>
  <time>2026-09-01T19:54:46Z</time>
  <course>11.15</course>
  <speed>0.03605551275463989</speed>
  <fix>3d</fix>
</trkpt>
<trkpt lat="-27.2744474" lon="151.2900604">
  <ele>348.49</ele>
  <time>2026-09-01T19:54:46Z</time>
  <course>306.99</course>
  <speed>0.08</speed>
  <fix>3d</fix>
</trkpt>
<trkpt lat="-27.2744475" lon="151.2900604">
  <ele>348.22</ele>
  <time>2026-09-01T19:54:46Z</time>
  <course>11.16</course>
  <speed>0.0282842712474619</speed>
  <fix>3d</fix>
</trkpt>
<trkpt lat="-27.2744473" lon="151.2900603">
  <ele>348.39</ele>
  <time>2026-09-01T19:54:46Z</time>
  <course>312.76</course>
  <speed>0.07</speed>
  <fix>3d</fix>
</trkpt>
<trkpt lat="-27.2744474" lon="151.2900604">
  <ele>348.17</ele>
  <time>2026-09-01T19:54:46Z</time>
  <course>11.16</course>
  <speed>0.022360679774997897</speed>
  <fix>3d</fix>
</trkpt>
<trkpt lat="-27.2744473" lon="151.2900603">
  <ele>348.39</ele>
  <time>2026-09-01T19:54:46Z</time>
  <course>312.76</course>
  <speed>0.07</speed>
  <fix>3d</fix>
</trkpt>
<trkpt lat="-27.2744474" lon="151.2900603">
  <ele>348.12</ele>
  <time>2026-09-01T19:54:46Z</time>
  <course>11.17</course>
  <speed>0.022360679774997897</speed>
  <fix>3d</fix>
</trkpt>
<trkpt lat="-27.2744472" lon="151.2900602">
  <ele>348.28</ele>
  <time>2026-09-01T19:54:46Z</time>
  <course>320.15</course>
  <speed>0.06</speed>
  <fix>3d</fix>
</trkpt>
<trkpt lat="-27.2744474" lon="151.2900603">
  <ele>348.07</ele>
  <time>2026-09-01T19:54:46Z</time>
  <course>11.17</course>
  <speed>0.02</speed>
  <fix>3d</fix>
</trkpt>
<trkpt lat="-27.2744472" lon="151.2900602">
  <ele>348.28</ele>
  <time>2026-09-01T19:54:46Z</time>
  <course>320.15</course>
  <speed>0.06</speed>
  <fix>3d</fix>
</trkpt>
<trkpt lat="-27.2744473" lon="151.2900603">
  <ele>348.02</ele>
  <time>2026-09-01T19:54:46Z</time>
  <course>11.18</course>
  <speed>0.02</speed>
  <fix>3d</fix>
</trkpt>
<trkpt lat="-27.2744471" lon="151.2900601">
  <ele>348.18</ele>
  <time>2026-09-01T19:54:46Z</time>
  <course>329.42</course>
  <speed>0.06</speed>
  <fix>3d</fix>
</trkpt>
<trkpt lat="-27.2744473" lon="151.2900603">
  <ele>347.97</ele>
  <time>2026-09-01T19:54:46Z</time>
  <course>11.2</course>
  <speed>0.02</speed>
  <fix>3d</fix>
</trkpt>
<trkpt lat="-27.2744471" lon="151.2900601">
  <ele>348.18</ele>
  <time>2026-09-01T19:54:46Z</time>
  <course>329.42</course>
  <speed>0.06</speed>
  <fix>3d</fix>
</trkpt>
<trkpt lat="-27.2744472" lon="151.2900603">
  <ele>347.91</ele>
  <time>2026-09-01T19:54:46Z</time>
  <course>11.21</course>
  <speed>0.022360679774997897</speed>
  <fix>3d</fix>
</trkpt>
<trkpt lat="-27.2744471" lon="151.2900601">
  <ele>348.08</ele>
  <time>2026-09-01T19:54:46Z</time>
  <course>340.13</course>
  <speed>0.05</speed>
  <fix>3d</fix>
</trkpt>
<trkpt lat="-27.2744472" lon="151.2900603">
  <ele>347.86</ele>
  <time>2026-09-01T19:54:46Z</time>
  <course>11.23</course>
  <speed>0.01414213562373095</speed>
  <fix>3d</fix>
</trkpt>
<trkpt lat="-27.2744471" lon="151.2900601">
  <ele>348.08</ele>
  <time>2026-09-01T19:54:46Z</time>
  <course>340.13</course>
  <speed>0.05</speed>
  <fix>3d</fix>
</trkpt>
<trkpt lat="-27.2744471" lon="151.2900603">
  <ele>347.81</ele>
  <time>2026-09-01T19:54:46Z</time>
  <course>11.24</course>
  <speed>0.022360679774997897</speed>
  <fix>3d</fix>
</trkpt>
<trkpt lat="-27.274447" lon="151.2900601">
  <ele>347.97</ele>
  <time>2026-09-01T19:54:46Z</time>
  <course>352.01</course>
  <speed>0.05</speed>
  <fix>3d</fix>
</trkpt>
<trkpt lat="-27.2744471" lon="151.2900603">
  <ele>347.76</ele>
  <time>2026-09-01T19:54:46Z</time>
  <course>11.25</course>
  <speed>0.022360679774997897</speed>
  <fix>3d</fix>
</trkpt>
<trkpt lat="-27.274447" lon="151.2900601">
  <ele>347.97</ele>
  <time>2026-09-01T19:54:46Z</time>
  <course>352.01</course>
  <speed>0.05</speed>
  <fix>3d</fix>
</trkpt>
<trkpt lat="-27.2744471" lon="151.2900603">
  <ele>347.71</ele>
  <time>2026-09-01T19:54:46Z</time>
  <course>11.27</course>
  <speed>0.0316227766016838</speed>
  <fix>3d</fix>
</trkpt>
<trkpt lat="-27.2744469" lon="151.2900601">
  <ele>347.88</ele>
  <time>2026-09-01T19:54:46Z</time>
  <course>4.96</course>
  <speed>0.04</speed>
  <fix>3d</fix>
</trkpt>
<trkpt lat="-27.274447" lon="151.2900603">
  <ele>347.66</ele>
  <time>2026-09-01T19:54:46Z</time>
  <course>11.28</course>
  <speed>0.0316227766016838</speed>
  <fix>3d</fix>
</trkpt>
<trkpt lat="-27.2744469" lon="151.2900601">
  <ele>347.88</ele>
  <time>2026-09-01T19:54:46Z</time>
  <course>4.96</course>
  <speed>0.04</speed>
  <fix>3d</fix>
</trkpt>
<trkpt lat="-27.274447" lon="151.2900603">
  <ele>347.61</ele>
  <time>2026-09-01T19:54:46Z</time>
  <course>11.3</course>
  <speed>0.0412310562561766</speed>
  <fix>3d</fix>
</trkpt>
<trkpt lat="-27.2744468" lon="151.2900601">
  <ele>347.78</ele>
  <time>2026-09-01T19:54:46Z</time>
  <course>17.68</course>
  <speed>0.04</speed>
  <fix>3d</fix>
</trkpt>
<trkpt lat="-27.274447" lon="151.2900603">
  <ele>347.56</ele>
  <time>2026-09-01T19:54:46Z</time>
  <course>11.32</course>
  <speed>0.0412310562561766</speed>
  <fix>3d</fix>
</trkpt>
<trkpt lat="-27.2744468" lon="151.2900601">
  <ele>347.78</ele>
  <time>2026-09-01T19:54:46Z</time>
  <course>17.68</course>
  <speed>0.04</speed>
  <fix>3d</fix>
</trkpt>
<trkpt lat="-27.2744469" lon="151.2900603">
  <ele>347.51</ele>
  <time>2026-09-01T19:54:46Z</time>
  <course>11.33</course>
  <speed>0.05099019513592785</speed>
  <fix>3d</fix>
</trkpt>
<trkpt lat="-27.2744467" lon="151.2900601">
  <ele>347.67</ele>
  <time>2026-09-01T19:54:46Z</time>
  <course>29.03</course>
  <speed>0.05</speed>
  <fix>3d</fix>
</trkpt>
<trkpt lat="-27.2744469" lon="151.2900603">
  <ele>347.46</ele>
  <time>2026-09-01T19:54:46Z</time>
  <course>11.34</course>
  <speed>0.05</speed>
  <fix>3d</fix>
</trkpt>
<trkpt lat="-27.2744467" lon="151.2900601">
  <ele>347.67</ele>
  <time>2026-09-01T19:54:46Z</time>
  <course>29.03</course>
  <speed>0.05</speed>
  <fix>3d</fix>
</trkpt>
<trkpt lat="-27.2744469" lon="151.2900604">
  <ele>347.42</ele>
  <time>2026-09-01T19:54:46Z</time>
  <course>11.35</course>
  <speed>0.05</speed>
  <fix>3d</fix>
</trkpt>
<trkpt lat="-27.2744466" lon="151.2900601">
  <ele>347.57</ele>
  <time>2026-09-01T19:54:46Z</time>
  <course>38.94</course>
  <speed>0.05</speed>
  <fix>3d</fix>
</trkpt>
<trkpt lat="-27.2744468" lon="151.2900604">
  <ele>347.37</ele>
  <time>2026-09-01T19:54:46Z</time>
  <course>11.36</course>
  <speed>0.06</speed>
  <fix>3d</fix>
</trkpt>
<trkpt lat="-27.2744466" lon="151.2900601">
  <ele>347.57</ele>
  <time>2026-09-01T19:54:46Z</time>
  <course>38.94</course>
  <speed>0.05</speed>
  <fix>3d</fix>
</trkpt>
<trkpt lat="-27.2744468" lon="151.2900604">
  <ele>347.32</ele>
  <time>2026-09-01T19:54:46Z</time>
  <course>11.37</course>
  <speed>0.06</speed>
  <fix>3d</fix>
</trkpt>
<trkpt lat="-27.2744466" lon="151.2900601">
  <ele>347.47</ele>
  <time>2026-09-01T19:54:46Z</time>
  <course>48.01</course>
  <speed>0.05</speed>
  <fix>3d</fix>
</trkpt>
<trkpt lat="-27.2744468" lon="151.2900605">
  <ele>347.26</ele>
  <time>2026-09-01T19:54:46Z</time>
  <course>11.38</course>
  <speed>0.06</speed>
  <fix>3d</fix>
</trkpt>
<trkpt lat="-27.2744466" lon="151.2900601">
  <ele>347.47</ele>
  <time>2026-09-01T19:54:46Z</time>
  <course>48.01</course>
  <speed>0.05</speed>
  <fix>3d</fix>
</trkpt>
<trkpt lat="-27.2744467" lon="151.2900605">
  <ele>347.21</ele>
  <time>2026-09-01T19:54:46Z</time>
  <course>11.39</course>
  <speed>0.06</speed>
  <fix>3d</fix>
</trkpt>
<trkpt lat="-27.2744465" lon="151.2900602">
  <ele>347.37</ele>
  <time>2026-09-01T19:54:46Z</time>
  <course>56.24</course>
  <speed>0.05</speed>
  <fix>3d</fix>
</trkpt>
<trkpt lat="-27.2744467" lon="151.2900606">
  <ele>347.16</ele>
  <time>2026-09-01T19:54:46Z</time>
  <course>11.39</course>
  <speed>0.07</speed>
  <fix>3d</fix>
</trkpt>
<trkpt lat="-27.2744465" lon="151.2900602">
  <ele>347.37</ele>
  <time>2026-09-01T19:54:46Z</time>
  <course>56.24</course>
  <speed>0.05</speed>
  <fix>3d</fix>
</trkpt>
<trkpt lat="-27.2744467" lon="151.2900606">
  <ele>347.11</ele>
  <time>2026-09-01T19:54:46Z</time>
  <course>11.39</course>
  <speed>0.07</speed>
  <fix>3d</fix>
</trkpt>
<trkpt lat="-27.2744465" lon="151.2900603">
  <ele>347.27</ele>
  <time>2026-09-01T19:54:46Z</time>
  <course>63.57</course>
  <speed>0.06</speed>
  <fix>3d</fix>
</trkpt>
<trkpt lat="-27.2744467" lon="151.2900607">
  <ele>347.06</ele>
  <time>2026-09-01T19:54:46Z</time>
  <course>11.39</course>
  <speed>0.07071067811865475</speed>
  <fix>3d</fix>
</trkpt>
<trkpt lat="-27.2744465" lon="151.2900603">
  <ele>347.27</ele>
  <time>2026-09-01T19:54:46Z</time>
  <course>63.57</course>
  <speed>0.06</speed>
  <fix>3d</fix>
</trkpt>
<trkpt lat="-27.2744467" lon="151.2900607">
  <ele>347.01</ele>
  <time>2026-09-01T19:54:46Z</time>
  <course>11.38</course>
  <speed>0.07071067811865475</speed>
  <fix>3d</fix>
</trkpt>
<trkpt lat="-27.2744464" lon="151.2900604">
  <ele>347.16</ele>
  <time>2026-09-01T19:54:46Z</time>
  <course>70.09</course>
  <speed>0.06</speed>
  <fix>3d</fix>
</trkpt>
<trkpt lat="-27.2744467" lon="151.2900608">
  <ele>346.96</ele>
  <time>2026-09-01T19:54:46Z</time>
  <course>11.38</course>
  <speed>0.07071067811865475</speed>
  <fix>3d</fix>
</trkpt>
<trkpt lat="-27.2744464" lon="151.2900604">
  <ele>347.16</ele>
  <time>2026-09-01T19:54:46Z</time>
  <course>70.09</course>
  <speed>0.06</speed>
  <fix>3d</fix>
</trkpt>
<trkpt lat="-27.2744466" lon="151.2900608">
  <ele>346.91</ele>
  <time>2026-09-01T19:54:46Z</time>
  <course>11.38</course>
  <speed>0.07071067811865475</speed>
  <fix>3d</fix>
</trkpt>
<trkpt lat="-27.2744464" lon="151.2900606">
  <ele>347.07</ele>
  <time>2026-09-01T19:54:46Z</time>
  <course>75.83</course>
  <speed>0.06</speed>
  <fix>3d</fix>
</trkpt>
<trkpt lat="-27.2744466" lon="151.2900609">
  <ele>346.86</ele>
  <time>2026-09-01T19:54:46Z</time>
  <course>11.38</course>
  <speed>0.07280109889280519</speed>
  <fix>3d</fix>
</trkpt>
<trkpt lat="-27.2744464" lon="151.2900606">
  <ele>347.07</ele>
  <time>2026-09-01T19:54:46Z</time>
  <course>75.83</course>
  <speed>0.06</speed>
  <fix>3d</fix>
</trkpt>
<trkpt lat="-27.2744466" lon="151.2900609">
  <ele>346.81</ele>
  <time>2026-09-01T19:54:46Z</time>
  <course>11.38</course>
  <speed>0.07280109889280519</speed>
  <fix>3d</fix>
</trkpt>
<trkpt lat="-27.2744464" lon="151.2900607">
  <ele>346.97</ele>
  <time>2026-09-01T19:54:46Z</time>
  <course>80.9</course>
  <speed>0.06</speed>
  <fix>3d</fix>
</trkpt>
<trkpt lat="-27.2744466" lon="151.290061">
  <ele>346.76</ele>
  <time>2026-09-01T19:54:46Z</time>
  <course>11.38</course>
  <speed>0.07280109889280519</speed>
  <fix>3d</fix>
</trkpt>
<trkpt lat="-27.2744464" lon="151.2900607">
  <ele>346.97</ele>
  <time>2026-09-01T19:54:46Z</time>
  <course>80.9</course>
  <speed>0.06</speed>
  <fix>3d</fix>
</trkpt>
<trkpt lat="-27.2744466" lon="151.2900611">
  <ele>346.71</ele>
  <time>2026-09-01T19:54:46Z</time>
  <course>11.37</course>
  <speed>0.07280109889280519</speed>
  <fix>3d</fix>
</trkpt>
<trkpt lat="-27.2744464" lon="151.2900608">
  <ele>346.87</ele>
  <time>2026-09-01T19:54:46Z</time>
  <course>85.41</course>
  <speed>0.06</speed>
  <fix>3d</fix>
</trkpt>
<trkpt lat="-27.2744466" lon="151.2900611">
  <ele>346.66</ele>
  <time>2026-09-01T19:54:46Z</time>
  <course>11.37</course>
  <speed>0.07280109889280519</speed>
  <fix>3d</fix>
</trkpt>
<trkpt lat="-27.2744464" lon="151.2900608">
  <ele>346.87</ele>
  <time>2026-09-01T19:54:46Z</time>
  <course>85.41</course>
  <speed>0.06</speed>
  <fix>3d</fix>
</trkpt>
<trkpt lat="-27.2744466" lon="151.2900612">
  <ele>346.61</ele>
  <time>2026-09-01T19:54:46Z</time>
  <course>11.36</course>
  <speed>0.07615773105863909</speed>
  <fix>3d</fix>
</trkpt>
<trkpt lat="-27.2744464" lon="151.2900609">
  <ele>346.77</ele>
  <time>2026-09-01T19:54:46Z</time>
  <course>89.45</course>
  <speed>0.06</speed>
  <fix>3d</fix>
</trkpt>
<trkpt lat="-27.2744466" lon="151.2900612">
  <ele>346.57</ele>
  <time>2026-09-01T19:54:46Z</time>
  <course>11.36</course>
  <speed>0.07615773105863909</speed>
  <fix>3d</fix>
</trkpt>
<trkpt lat="-27.2744464" lon="151.2900609">
  <ele>346.77</ele>
  <time>2026-09-01T19:54:46Z</time>
  <course>89.45</course>
  <speed>0.06</speed>
  <fix>3d</fix>
</trkpt>
<trkpt lat="-27.2744466" lon="151.2900613">
  <ele>346.52</ele>
  <time>2026-09-01T19:54:46Z</time>
  <course>11.37</course>
  <speed>0.07615773105863909</speed>
  <fix>3d</fix>
</trkpt>
<trkpt lat="-27.2744464" lon="151.2900611">
  <ele>346.66</ele>
  <time>2026-09-01T19:54:46Z</time>
  <course>92.5</course>
  <speed>0.06</speed>
  <fix>3d</fix>
</trkpt>
<trkpt lat="-27.2744466" lon="151.2900614">
  <ele>346.47</ele>
  <time>2026-09-01T19:54:46Z</time>
  <course>11.37</course>
  <speed>0.07615773105863909</speed>
  <fix>3d</fix>
</trkpt>
<trkpt lat="-27.2744464" lon="151.2900611">
  <ele>346.66</ele>
  <time>2026-09-01T19:54:46Z</time>
  <course>92.5</course>
  <speed>0.06</speed>
  <fix>3d</fix>
</trkpt>
<trkpt lat="-27.2744466" lon="151.2900614">
  <ele>346.42</ele>
  <time>2026-09-01T19:54:46Z</time>
  <course>11.37</course>
  <speed>0.07615773105863909</speed>
  <fix>3d</fix>
</trkpt>
<trkpt lat="-27.2744464" lon="151.2900612">
  <ele>346.57</ele>
  <time>2026-09-01T19:54:46Z</time>
  <course>94.65</course>
  <speed>0.06</speed>
  <fix>3d</fix>
</trkpt>
<trkpt lat="-27.2744466" lon="151.2900615">
  <ele>346.37</ele>
  <time>2026-09-01T19:54:46Z</time>
  <course>11.37</course>
  <speed>0.0670820393249937</speed>
  <fix>3d</fix>
</trkpt>
<trkpt lat="-27.2744464" lon="151.2900612">
  <ele>346.57</ele>
  <time>2026-09-01T19:54:46Z</time>
  <course>94.65</course>
  <speed>0.06</speed>
  <fix>3d</fix>
</trkpt>
<trkpt lat="-27.2744466" lon="151.2900615">
  <ele>346.32</ele>
  <time>2026-09-01T19:54:46Z</time>
  <course>11.37</course>
  <speed>0.0670820393249937</speed>
  <fix>3d</fix>
</trkpt>
<trkpt lat="-27.2744464" lon="151.2900613">
  <ele>346.47</ele>
  <time>2026-09-01T19:54:46Z</time>
  <course>96.83</course>
  <speed>0.06</speed>
  <fix>3d</fix>
</trkpt>
<trkpt lat="-27.2744466" lon="151.2900616">
  <ele>346.26</ele>
  <time>2026-09-01T19:54:46Z</time>
  <course>11.37</course>
  <speed>0.0670820393249937</speed>
  <fix>3d</fix>
</trkpt>
<trkpt lat="-27.2744464" lon="151.2900613">
  <ele>346.47</ele>
  <time>2026-09-01T19:54:46Z</time>
  <course>96.83</course>
  <speed>0.06</speed>
  <fix>3d</fix>
</trkpt>
<trkpt lat="-27.2744466" lon="151.2900616">
  <ele>346.21</ele>
  <time>2026-09-01T19:54:46Z</time>
  <course>11.37</course>
  <speed>0.0670820393249937</speed>
  <fix>3d</fix>
</trkpt>
<trkpt lat="-27.2744464" lon="151.2900614">
  <ele>346.37</ele>
  <time>2026-09-01T19:54:46Z</time>
  <course>99.4</course>
  <speed>0.05</speed>
  <fix>3d</fix>
</trkpt>
<trkpt lat="-27.2744466" lon="151.2900617">
  <ele>346.16</ele>
  <time>2026-09-01T19:54:46Z</time>
  <course>11.38</course>
  <speed>0.0670820393249937</speed>
  <fix>3d</fix>
</trkpt>
<trkpt lat="-27.2744464" lon="151.2900614">
  <ele>346.37</ele>
  <time>2026-09-01T19:54:46Z</time>
  <course>99.4</course>
  <speed>0.05</speed>
  <fix>3d</fix>
</trkpt>
<trkpt lat="-27.2744466" lon="151.2900617">
  <ele>346.11</ele>
  <time>2026-09-01T19:54:46Z</time>
  <course>11.38</course>
  <speed>0.05830951894845301</speed>
  <fix>3d</fix>
</trkpt>
<trkpt lat="-27.2744464" lon="151.2900616">
  <ele>346.27</ele>
  <time>2026-09-01T19:54:46Z</time>
  <course>102.61</course>
  <speed>0.05</speed>
  <fix>3d</fix>
</trkpt>
<trkpt lat="-27.2744466" lon="151.2900618">
  <ele>346.06</ele>
  <time>2026-09-01T19:54:46Z</time>
  <course>11.38</course>
  <speed>0.06403124237432849</speed>
  <fix>3d</fix>
</trkpt>
<trkpt lat="-27.2744464" lon="151.2900616">
  <ele>346.27</ele>
  <time>2026-09-01T19:54:46Z</time>
  <course>102.61</course>
  <speed>0.05</speed>
  <fix>3d</fix>
</trkpt>
<trkpt lat="-27.2744466" lon="151.2900618">
  <ele>346.01</ele>
  <time>2026-09-01T19:54:46Z</time>
  <course>11.38</course>
  <speed>0.06403124237432849</speed>
  <fix>3d</fix>
</trkpt>
<trkpt lat="-27.2744464" lon="151.2900617">
  <ele>346.16</ele>
  <time>2026-09-01T19:54:46Z</time>
  <course>106.45</course>
  <speed>0.05</speed>
  <fix>3d</fix>
</trkpt>
<trkpt lat="-27.2744467" lon="151.2900619">
  <ele>345.96</ele>
  <time>2026-09-01T19:54:46Z</time>
  <course>11.38</course>
  <speed>0.06403124237432849</speed>
  <fix>3d</fix>
</trkpt>
<trkpt lat="-27.2744464" lon="151.2900617">
  <ele>346.16</ele>
  <time>2026-09-01T19:54:46Z</time>
  <course>106.45</course>
  <speed>0.05</speed>
  <fix>3d</fix>
</trkpt>
<trkpt lat="-27.2744467" lon="151.2900619">
  <ele>345.91</ele>
  <time>2026-09-01T19:54:46Z</time>
  <course>11.37</course>
  <speed>0.0565685424949238</speed>
  <fix>3d</fix>
</trkpt>
<trkpt lat="-27.2744464" lon="151.2900618">
  <ele>346.06</ele>
  <time>2026-09-01T19:54:46Z</time>
  <course>110.59</course>
  <speed>0.04</speed>
  <fix>3d</fix>
</trkpt>
<trkpt lat="-27.2744467" lon="151.2900619">
  <ele>345.86</ele>
  <time>2026-09-01T19:54:46Z</time>
  <course>11.37</course>
  <speed>0.0565685424949238</speed>
  <fix>3d</fix>
</trkpt>
<trkpt lat="-27.2744464" lon="151.2900618">
  <ele>346.06</ele>
  <time>2026-09-01T19:54:46Z</time>
  <course>110.59</course>
  <speed>0.04</speed>
  <fix>3d</fix>
</trkpt>
<trkpt lat="-27.2744467" lon="151.290062">
  <ele>345.81</ele>
  <time>2026-09-01T19:54:46Z</time>
  <course>11.37</course>
  <speed>0.0565685424949238</speed>
  <fix>3d</fix>
</trkpt>
<trkpt lat="-27.2744464" lon="151.2900618">
  <ele>345.96</ele>
  <time>2026-09-01T19:54:46Z</time>
  <course>115.11</course>
  <speed>0.04</speed>
  <fix>3d</fix>
</trkpt>
<trkpt lat="-27.2744467" lon="151.290062">
  <ele>345.76</ele>
  <time>2026-09-01T19:54:46Z</time>
  <course>11.36</course>
  <speed>0.0565685424949238</speed>
  <fix>3d</fix>
</trkpt>
<trkpt lat="-27.2744464" lon="151.2900618">
  <ele>345.96</ele>
  <time>2026-09-01T19:54:46Z</time>
  <course>115.11</course>
  <speed>0.04</speed>
  <fix>3d</fix>
</trkpt>
<trkpt lat="-27.2744467" lon="151.290062">
  <ele>345.71</ele>
  <time>2026-09-01T19:54:46Z</time>
  <course>11.36</course>
  <speed>0.05</speed>
  <fix>3d</fix>
</trkpt>
<trkpt lat="-27.2744464" lon="151.2900619">
  <ele>345.86</ele>
  <time>2026-09-01T19:54:46Z</time>
  <course>120.5</course>
  <speed>0.03</speed>
  <fix>3d</fix>
</trkpt>
<trkpt lat="-27.2744467" lon="151.2900621">
  <ele>345.66</ele>
  <time>2026-09-01T19:54:46Z</time>
  <course>11.36</course>
  <speed>0.05</speed>
  <fix>3d</fix>
</trkpt>
<trkpt lat="-27.2744464" lon="151.2900619">
  <ele>345.86</ele>
  <time>2026-09-01T19:54:46Z</time>
  <course>120.5</course>
  <speed>0.03</speed>
  <fix>3d</fix>
</trkpt>
<trkpt lat="-27.2744467" lon="151.2900621">
  <ele>345.61</ele>
  <time>2026-09-01T19:54:46Z</time>
  <course>11.36</course>
  <speed>0.05</speed>
  <fix>3d</fix>
</trkpt>
<trkpt lat="-27.2744465" lon="151.290062">
  <ele>345.76</ele>
  <time>2026-09-01T19:54:46Z</time>
  <course>127.49</course>
  <speed>0.03</speed>
  <fix>3d</fix>
</trkpt>
<trkpt lat="-27.2744467" lon="151.2900621">
  <ele>345.56</ele>
  <time>2026-09-01T19:54:46Z</time>
  <course>11.36</course>
  <speed>0.044721359549995794</speed>
  <fix>3d</fix>
</trkpt>
<trkpt lat="-27.2744465" lon="151.290062">
  <ele>345.76</ele>
  <time>2026-09-01T19:54:46Z</time>
  <course>127.49</course>
  <speed>0.03</speed>
  <fix>3d</fix>
</trkpt>
<trkpt lat="-27.2744467" lon="151.2900621">
  <ele>345.51</ele>
  <time>2026-09-01T19:54:46Z</time>
  <course>11.36</course>
  <speed>0.044721359549995794</speed>
  <fix>3d</fix>
</trkpt>
<trkpt lat="-27.2744465" lon="151.2900621">
  <ele>345.65</ele>
  <time>2026-09-01T19:54:46Z</time>
  <course>136.82</course>
  <speed>0.03</speed>
  <fix>3d</fix>
</trkpt>
<trkpt lat="-27.2744468" lon="151.2900621">
  <ele>345.46</ele>
  <time>2026-09-01T19:54:46Z</time>
  <course>11.36</course>
  <speed>0.044721359549995794</speed>
  <fix>3d</fix>
</trkpt>
<trkpt lat="-27.2744465" lon="151.2900621">
  <ele>345.65</ele>
  <time>2026-09-01T19:54:46Z</time>
  <course>136.82</course>
  <speed>0.03</speed>
  <fix>3d</fix>
</trkpt>
<trkpt lat="-27.2744468" lon="151.2900621">
  <ele>345.41</ele>
  <time>2026-09-01T19:54:46Z</time>
  <course>11.36</course>
  <speed>0.0412310562561766</speed>
  <fix>3d</fix>
</trkpt>
<trkpt lat="-27.2744465" lon="151.2900621">
  <ele>345.56</ele>
  <time>2026-09-01T19:54:46Z</time>
  <course>149.3</course>
  <speed>0.02</speed>
  <fix>3d</fix>
</trkpt>
<trkpt lat="-27.2744468" lon="151.2900621">
  <ele>345.36</ele>
  <time>2026-09-01T19:54:46Z</time>
  <course>11.36</course>
  <speed>0.0316227766016838</speed>
  <fix>3d</fix>
</trkpt>
<trkpt lat="-27.2744465" lon="151.2900621">
  <ele>345.56</ele>
  <time>2026-09-01T19:54:46Z</time>
  <course>149.3</course>
  <speed>0.02</speed>
  <fix>3d</fix>
</trkpt>
<trkpt lat="-27.2744468" lon="151.2900621">
  <ele>345.31</ele>
  <time>2026-09-01T19:54:46Z</time>
  <course>11.38</course>
  <speed>0.0316227766016838</speed>
  <fix>3d</fix>
</trkpt>
<trkpt lat="-27.2744466" lon="151.2900621">
  <ele>345.46</ele>
  <time>2026-09-01T19:54:46Z</time>
  <course>165.38</course>
  <speed>0.02</speed>
  <fix>3d</fix>
</trkpt>
<trkpt lat="-27.2744468" lon="151.2900621">
  <ele>345.26</ele>
  <time>2026-09-01T19:54:46Z</time>
  <course>11.38</course>
  <speed>0.03</speed>
  <fix>3d</fix>
</trkpt>
<trkpt lat="-27.2744466" lon="151.2900621">
  <ele>345.46</ele>
  <time>2026-09-01T19:54:46Z</time>
  <course>165.38</course>
  <speed>0.02</speed>
  <fix>3d</fix>
</trkpt>
<trkpt lat="-27.2744468" lon="151.2900621">
  <ele>345.21</ele>
  <time>2026-09-01T19:54:46Z</time>
  <course>11.34</course>
  <speed>0.03</speed>
  <fix>3d</fix>
</trkpt>
<trkpt lat="-27.2744466" lon="151.2900621">
  <ele>345.36</ele>
  <time>2026-09-01T19:54:46Z</time>
  <course>182.3</course>
  <speed>0.02</speed>
  <fix>3d</fix>
</trkpt>
<trkpt lat="-27.2744468" lon="151.2900621">
  <ele>345.16</ele>
  <time>2026-09-01T19:54:46Z</time>
  <course>11.26</course>
  <speed>0.03</speed>
  <fix>3d</fix>
</trkpt>
<trkpt lat="-27.2744466" lon="151.2900621">
  <ele>345.36</ele>
  <time>2026-09-01T19:54:46Z</time>
  <course>182.3</course>
  <speed>0.02</speed>
  <fix>3d</fix>
</trkpt>
<trkpt lat="-27.2744468" lon="151.2900621">
  <ele>345.11</ele>
  <time>2026-09-01T19:54:46Z</time>
  <course>11.17</course>
  <speed>0.0316227766016838</speed>
  <fix>3d</fix>
</trkpt>
<trkpt lat="-27.2744467" lon="151.2900621">
  <ele>345.26</ele>
  <time>2026-09-01T19:54:46Z</time>
  <course>190.28</course>
  <speed>0.02</speed>
  <fix>3d</fix>
</trkpt>
<trkpt lat="-27.2744469" lon="151.2900621">
  <ele>345.06</ele>
  <time>2026-09-01T19:54:46Z</time>
  <course>11.08</course>
  <speed>0.0316227766016838</speed>
  <fix>3d</fix>
</trkpt>
<trkpt lat="-27.2744467" lon="151.2900621">
  <ele>345.26</ele>
  <time>2026-09-01T19:54:46Z</time>
  <course>190.28</course>
  <speed>0.02</speed>
  <fix>3d</fix>
</trkpt>
<trkpt lat="-27.2744469" lon="151.2900621">
  <ele>345.01</ele>
  <time>2026-09-01T19:54:46Z</time>
  <course>11.01</course>
  <speed>0.0316227766016838</speed>
  <fix>3d</fix>
</trkpt>
<trkpt lat="-27.2744467" lon="151.2900621">
  <ele>345.15</ele>
  <time>2026-09-01T19:54:46Z</time>
  <course>190.39</course>
  <speed>0.02</speed>
  <fix>3d</fix>
</trkpt>
<trkpt lat="-27.2744469" lon="151.2900621">
  <ele>344.96</ele>
  <time>2026-09-01T19:54:46Z</time>
  <course>10.96</course>
  <speed>0.0316227766016838</speed>
  <fix>3d</fix>
</trkpt>
<trkpt lat="-27.2744467" lon="151.2900621">
  <ele>345.15</ele>
  <time>2026-09-01T19:54:46Z</time>
  <course>190.39</course>
  <speed>0.02</speed>
  <fix>3d</fix>
</trkpt>
<trkpt lat="-27.2744469" lon="151.2900621">
  <ele>344.91</ele>
  <time>2026-09-01T19:54:46Z</time>
  <course>10.94</course>
  <speed>0.0316227766016838</speed>
  <fix>3d</fix>
</trkpt>
<trkpt lat="-27.2744467" lon="151.2900621">
  <ele>345.06</ele>
  <time>2026-09-01T19:54:46Z</time>
  <course>190.28</course>
  <speed>0.02</speed>
  <fix>3d</fix>
</trkpt>
<trkpt lat="-27.2744469" lon="151.2900621">
  <ele>344.86</ele>
  <time>2026-09-01T19:54:46Z</time>
  <course>10.94</course>
  <speed>0.0316227766016838</speed>
  <fix>3d</fix>
</trkpt>
<trkpt lat="-27.2744467" lon="151.2900621">
  <ele>345.06</ele>
  <time>2026-09-01T19:54:46Z</time>
  <course>190.28</course>
  <speed>0.02</speed>
  <fix>3d</fix>
</trkpt>
<trkpt lat="-27.2744469" lon="151.2900621">
  <ele>344.81</ele>
  <time>2026-09-01T19:54:46Z</time>
  <course>10.95</course>
  <speed>0.0316227766016838</speed>
  <fix>3d</fix>
</trkpt>
<trkpt lat="-27.2744468" lon="151.2900621">
  <ele>344.96</ele>
  <time>2026-09-01T19:54:46Z</time>
  <course>190.11</course>
  <speed>0.02</speed>
  <fix>3d</fix>
</trkpt>
<trkpt lat="-27.2744469" lon="151.2900621">
  <ele>344.76</ele>
  <time>2026-09-01T19:54:46Z</time>
  <course>10.96</course>
  <speed>0.0316227766016838</speed>
  <fix>3d</fix>
</trkpt>
<trkpt lat="-27.2744468" lon="151.2900621">
  <ele>344.96</ele>
  <time>2026-09-01T19:54:46Z</time>
  <course>190.11</course>
  <speed>0.02</speed>
  <fix>3d</fix>
</trkpt>
<trkpt lat="-27.274447" lon="151.2900621">
  <ele>344.71</ele>
  <time>2026-09-01T19:54:46Z</time>
  <course>10.98</course>
  <speed>0.0316227766016838</speed>
  <fix>3d</fix>
</trkpt>
<trkpt lat="-27.2744468" lon="151.2900621">
  <ele>344.86</ele>
  <time>2026-09-01T19:54:46Z</time>
  <course>189.93</course>
  <speed>0.01</speed>
  <fix>3d</fix>
</trkpt>
<trkpt lat="-27.274447" lon="151.2900621">
  <ele>344.66</ele>
  <time>2026-09-01T19:54:46Z</time>
  <course>10.99</course>
  <speed>0.0316227766016838</speed>
  <fix>3d</fix>
</trkpt>
<trkpt lat="-27.2744468" lon="151.2900621">
  <ele>344.86</ele>
  <time>2026-09-01T19:54:46Z</time>
  <course>189.93</course>
  <speed>0.01</speed>
  <fix>3d</fix>
</trkpt>
<trkpt lat="-27.274447" lon="151.2900621">
  <ele>344.61</ele>
  <time>2026-09-01T19:54:46Z</time>
  <course>11.0</course>
  <speed>0.0316227766016838</speed>
  <fix>3d</fix>
</trkpt>
<trkpt lat="-27.2744468" lon="151.2900621">
  <ele>344.75</ele>
  <time>2026-09-01T19:54:46Z</time>
  <course>189.57</course>
  <speed>0.01</speed>
  <fix>3d</fix>
</trkpt>
<trkpt lat="-27.274447" lon="151.2900622">
  <ele>344.56</ele>
  <time>2026-09-01T19:54:46Z</time>
  <course>11.0</course>
  <speed>0.0316227766016838</speed>
  <fix>3d</fix>
</trkpt>
<trkpt lat="-27.2744468" lon="151.2900621">
  <ele>344.75</ele>
  <time>2026-09-01T19:54:46Z</time>
  <course>189.57</course>
  <speed>0.01</speed>
  <fix>3d</fix>
</trkpt>
<trkpt lat="-27.274447" lon="151.2900621">
  <ele>344.52</ele>
  <time>2026-09-01T19:54:46Z</time>
  <course>11.0</course>
  <speed>0.0316227766016838</speed>
  <fix>3d</fix>
</trkpt>
<trkpt lat="-27.2744469" lon="151.2900621">
  <ele>344.65</ele>
  <time>2026-09-01T19:54:46Z</time>
  <course>189.04</course>
  <speed>0.01</speed>
  <fix>3d</fix>
</trkpt>
<trkpt lat="-27.274447" lon="151.2900622">
  <ele>344.47</ele>
  <time>2026-09-01T19:54:46Z</time>
  <course>10.98</course>
  <speed>0.0316227766016838</speed>
  <fix>3d</fix>
</trkpt>
<trkpt lat="-27.2744469" lon="151.2900621">
  <ele>344.65</ele>
  <time>2026-09-01T19:54:46Z</time>
  <course>189.04</course>
  <speed>0.01</speed>
  <fix>3d</fix>
</trkpt>
<trkpt lat="-27.274447" lon="151.2900622">
  <ele>344.42</ele>
  <time>2026-09-01T19:54:46Z</time>
  <course>10.96</course>
  <speed>0.0316227766016838</speed>
  <fix>3d</fix>
</trkpt>
<trkpt lat="-27.2744469" lon="151.2900621">
  <ele>344.55</ele>
  <time>2026-09-01T19:54:46Z</time>
  <course>188.48</course>
  <speed>0.01</speed>
  <fix>3d</fix>
</trkpt>
<trkpt lat="-27.274447" lon="151.2900622">
  <ele>344.37</ele>
  <time>2026-09-01T19:54:46Z</time>
  <course>10.94</course>
  <speed>0.0316227766016838</speed>
  <fix>3d</fix>
</trkpt>
<trkpt lat="-27.2744469" lon="151.2900621">
  <ele>344.55</ele>
  <time>2026-09-01T19:54:46Z</time>
  <course>188.48</course>
  <speed>0.01</speed>
  <fix>3d</fix>
</trkpt>
<trkpt lat="-27.274447" lon="151.2900622">
  <ele>344.32</ele>
  <time>2026-09-01T19:54:46Z</time>
  <course>10.93</course>
  <speed>0.0316227766016838</speed>
  <fix>3d</fix>
</trkpt>
<trkpt lat="-27.2744469" lon="151.2900621">
  <ele>344.45</ele>
  <time>2026-09-01T19:54:46Z</time>
  <course>188.39</course>
  <speed>0.01</speed>
  <fix>3d</fix>
</trkpt>
<trkpt lat="-27.2744471" lon="151.2900622">
  <ele>344.27</ele>
  <time>2026-09-01T19:54:46Z</time>
  <course>10.93</course>
  <speed>0.0316227766016838</speed>
  <fix>3d</fix>
</trkpt>
<trkpt lat="-27.2744469" lon="151.2900621">
  <ele>344.45</ele>
  <time>2026-09-01T19:54:46Z</time>
  <course>188.39</course>
  <speed>0.01</speed>
  <fix>3d</fix>
</trkpt>
<trkpt lat="-27.2744471" lon="151.2900622">
  <ele>344.22</ele>
  <time>2026-09-01T19:54:46Z</time>
  <course>10.93</course>
  <speed>0.0316227766016838</speed>
  <fix>3d</fix>
</trkpt>
<trkpt lat="-27.274447" lon="151.2900621">
  <ele>344.34</ele>
  <time>2026-09-01T19:54:46Z</time>
  <course>188.72</course>
  <speed>0.01</speed>
  <fix>3d</fix>
</trkpt>
<trkpt lat="-27.2744471" lon="151.2900622">
  <ele>344.17</ele>
  <time>2026-09-01T19:54:46Z</time>
  <course>10.93</course>
  <speed>0.0316227766016838</speed>
  <fix>3d</fix>
</trkpt>
<trkpt lat="-27.274447" lon="151.2900621">
  <ele>344.34</ele>
  <time>2026-09-01T19:54:46Z</time>
  <course>188.72</course>
  <speed>0.01</speed>
  <fix>3d</fix>
</trkpt>
<trkpt lat="-27.2744471" lon="151.2900622">
  <ele>344.11</ele>
  <time>2026-09-01T19:54:46Z</time>
  <course>10.93</course>
  <speed>0.022360679774997897</speed>
  <fix>3d</fix>
</trkpt>
<trkpt lat="-27.274447" lon="151.2900621">
  <ele>344.25</ele>
  <time>2026-09-01T19:54:46Z</time>
  <course>188.82</course>
  <speed>0.01</speed>
  <fix>3d</fix>
</trkpt>
<trkpt lat="-27.2744471" lon="151.2900622">
  <ele>344.06</ele>
  <time>2026-09-01T19:54:46Z</time>
  <course>10.92</course>
  <speed>0.022360679774997897</speed>
  <fix>3d</fix>
</trkpt>
<trkpt lat="-27.274447" lon="151.2900621">
  <ele>344.25</ele>
  <time>2026-09-01T19:54:46Z</time>
  <course>188.82</course>
  <speed>0.01</speed>
  <fix>3d</fix>
</trkpt>
<trkpt lat="-27.2744471" lon="151.2900622">
  <ele>344.01</ele>
  <time>2026-09-01T19:54:46Z</time>
  <course>10.91</course>
  <speed>0.022360679774997897</speed>
  <fix>3d</fix>
</trkpt>
<trkpt lat="-27.274447" lon="151.2900621">
  <ele>344.15</ele>
  <time>2026-09-01T19:54:46Z</time>
  <course>188.33</course>
  <speed>0.01</speed>
  <fix>3d</fix>
</trkpt>
<trkpt lat="-27.2744471" lon="151.2900622">
  <ele>343.96</ele>
  <time>2026-09-01T19:54:46Z</time>
  <course>10.88</course>
  <speed>0.022360679774997897</speed>
  <fix>3d</fix>
</trkpt>
<trkpt lat="-27.274447" lon="151.2900621">
  <ele>344.15</ele>
  <time>2026-09-01T19:54:46Z</time>
  <course>188.33</course>
  <speed>0.01</speed>
  <fix>3d</fix>
</trkpt>
<trkpt lat="-27.2744471" lon="151.2900622">
  <ele>343.91</ele>
  <time>2026-09-01T19:54:46Z</time>
  <course>10.85</course>
  <speed>0.022360679774997897</speed>
  <fix>3d</fix>
</trkpt>
<trkpt lat="-27.274447" lon="151.2900621">
  <ele>344.04</ele>
  <time>2026-09-01T19:54:46Z</time>
  <course>186.81</course>
  <speed>0.0</speed>
  <fix>3d</fix>
</trkpt>
<trkpt lat="-27.2744471" lon="151.2900622">
  <ele>343.86</ele>
  <time>2026-09-01T19:54:46Z</time>
  <course>10.83</course>
  <speed>0.022360679774997897</speed>
  <fix>3d</fix>
</trkpt>
<trkpt lat="-27.274447" lon="151.2900621">
  <ele>344.04</ele>
  <time>2026-09-01T19:54:46Z</time>
  <course>186.81</course>
  <speed>0.0</speed>
  <fix>3d</fix>
</trkpt>
<trkpt lat="-27.2744471" lon="151.2900622">
  <ele>343.81</ele>
  <time>2026-09-01T19:54:46Z</time>
  <course>10.81</course>
  <speed>0.022360679774997897</speed>
  <fix>3d</fix>
</trkpt>
<trkpt lat="-27.274447" lon="151.2900621">
  <ele>343.94</ele>
  <time>2026-09-01T19:54:46Z</time>
  <course>185.7</course>
  <speed>0.0</speed>
  <fix>3d</fix>
</trkpt>
<trkpt lat="-27.2744472" lon="151.2900622">
  <ele>343.76</ele>
  <time>2026-09-01T19:54:46Z</time>
  <course>10.81</course>
  <speed>0.022360679774997897</speed>
  <fix>3d</fix>
</trkpt>
<trkpt lat="-27.274447" lon="151.2900621">
  <ele>343.94</ele>
  <time>2026-09-01T19:54:46Z</time>
  <course>185.7</course>
  <speed>0.0</speed>
  <fix>3d</fix>
</trkpt>
<trkpt lat="-27.2744472" lon="151.2900622">
  <ele>343.71</ele>
  <time>2026-09-01T19:54:46Z</time>
  <course>10.82</course>
  <speed>0.022360679774997897</speed>
  <fix>3d</fix>
</trkpt>
<trkpt lat="-27.2744471" lon="151.2900621">
  <ele>343.84</ele>
  <time>2026-09-01T19:54:46Z</time>
  <course>185.28</course>
  <speed>0.0</speed>
  <fix>3d</fix>
</trkpt>
<trkpt lat="-27.2744472" lon="151.2900622">
  <ele>343.66</ele>
  <time>2026-09-01T19:54:46Z</time>
  <course>10.82</course>
  <speed>0.022360679774997897</speed>
  <fix>3d</fix>
</trkpt>
<trkpt lat="-27.2744471" lon="151.2900621">
  <ele>343.84</ele>
  <time>2026-09-01T19:54:46Z</time>
  <course>185.28</course>
  <speed>0.0</speed>
  <fix>3d</fix>
</trkpt>
<trkpt lat="-27.2744472" lon="151.2900622">
  <ele>343.61</ele>
  <time>2026-09-01T19:54:46Z</time>
  <course>10.82</course>
  <speed>0.022360679774997897</speed>
  <fix>3d</fix>
</trkpt>
<trkpt lat="-27.2744471" lon="151.2900621">
  <ele>343.74</ele>
  <time>2026-09-01T19:54:46Z</time>
  <course>181.49</course>
  <speed>0.0</speed>
  <fix>3d</fix>
</trkpt>
<trkpt lat="-27.2744472" lon="151.2900622">
  <ele>343.56</ele>
  <time>2026-09-01T19:54:46Z</time>
  <course>10.81</course>
  <speed>0.01414213562373095</speed>
  <fix>3d</fix>
</trkpt>
<trkpt lat="-27.2744471" lon="151.2900621">
  <ele>343.74</ele>
  <time>2026-09-01T19:54:46Z</time>
  <course>181.49</course>
  <speed>0.0</speed>
  <fix>3d</fix>
</trkpt>
<trkpt lat="-27.2744472" lon="151.2900622">
  <ele>343.51</ele>
  <time>2026-09-01T19:54:46Z</time>
  <course>10.8</course>
  <speed>0.01414213562373095</speed>
  <fix>3d</fix>
</trkpt>
<trkpt lat="-27.2744471" lon="151.2900621">
  <ele>343.64</ele>
  <time>2026-09-01T19:54:46Z</time>
  <course>162.31</course>
  <speed>0.0</speed>
  <fix>3d</fix>
</trkpt>
<trkpt lat="-27.2744472" lon="151.2900622">
  <ele>343.46</ele>
  <time>2026-09-01T19:54:46Z</time>
  <course>10.79</course>
  <speed>0.01414213562373095</speed>
  <fix>3d</fix>
</trkpt>
<trkpt lat="-27.2744471" lon="151.2900621">
  <ele>343.64</ele>
  <time>2026-09-01T19:54:46Z</time>
  <course>162.31</course>
  <speed>0.0</speed>
  <fix>3d</fix>
</trkpt>
<trkpt lat="-27.2744472" lon="151.2900622">
  <ele>343.41</ele>
  <time>2026-09-01T19:54:46Z</time>
  <course>10.79</course>
  <speed>0.01414213562373095</speed>
  <fix>3d</fix>
</trkpt>
<trkpt lat="-27.2744471" lon="151.2900621">
  <ele>343.53</ele>
  <time>2026-09-01T19:54:46Z</time>
  <course>345.76</course>
  <speed>0.0</speed>
  <fix>3d</fix>
</trkpt>
<trkpt lat="-27.2744472" lon="151.2900622">
  <ele>343.36</ele>
  <time>2026-09-01T19:54:46Z</time>
  <course>10.8</course>
  <speed>0.01414213562373095</speed>
  <fix>3d</fix>
</trkpt>
<trkpt lat="-27.2744471" lon="151.2900621">
  <ele>343.53</ele>
  <time>2026-09-01T19:54:46Z</time>
  <course>345.76</course>
  <speed>0.0</speed>
  <fix>3d</fix>
</trkpt>
<trkpt lat="-27.2744472" lon="151.2900622">
  <ele>343.31</ele>
  <time>2026-09-01T19:54:46Z</time>
  <course>10.8</course>
  <speed>0.01414213562373095</speed>
  <fix>3d</fix>
</trkpt>
<trkpt lat="-27.2744471" lon="151.2900621">
  <ele>343.44</ele>
  <time>2026-09-01T19:54:46Z</time>
  <course>331.1</course>
  <speed>0.0</speed>
  <fix>3d</fix>
</trkpt>
<trkpt lat="-27.2744472" lon="151.2900622">
  <ele>343.26</ele>
  <time>2026-09-01T19:54:46Z</time>
  <course>10.8</course>
  <speed>0.01414213562373095</speed>
  <fix>3d</fix>
</trkpt>
<trkpt lat="-27.2744471" lon="151.2900621">
  <ele>343.44</ele>
  <time>2026-09-01T19:54:46Z</time>
  <course>331.1</course>
  <speed>0.0</speed>
  <fix>3d</fix>
</trkpt>
<trkpt lat="-27.2744472" lon="151.2900622">
  <ele>343.2</ele>
  <time>2026-09-01T19:54:46Z</time>
  <course>10.8</course>
  <speed>0.01414213562373095</speed>
  <fix>3d</fix>
</trkpt>
<trkpt lat="-27.2744471" lon="151.2900621">
  <ele>343.34</ele>
  <time>2026-09-01T19:54:46Z</time>
  <course>328.39</course>
  <speed>0.0</speed>
  <fix>3d</fix>
</trkpt>
<trkpt lat="-27.2744472" lon="151.2900622">
  <ele>343.15</ele>
  <time>2026-09-01T19:54:46Z</time>
  <course>10.8</course>
  <speed>0.01414213562373095</speed>
  <fix>3d</fix>
</trkpt>
<trkpt lat="-27.2744471" lon="151.2900621">
  <ele>343.34</ele>
  <time>2026-09-01T19:54:46Z</time>
  <course>328.39</course>
  <speed>0.0</speed>
  <fix>3d</fix>
</trkpt>
<trkpt lat="-27.2744472" lon="151.2900622">
  <ele>343.1</ele>
  <time>2026-09-01T19:54:46Z</time>
  <course>10.8</course>
  <speed>0.01414213562373095</speed>
  <fix>3d</fix>
</trkpt>
<trkpt lat="-27.2744471" lon="151.2900621">
  <ele>343.24</ele>
  <time>2026-09-01T19:54:46Z</time>
  <course>331.04</course>
  <speed>0.0</speed>
  <fix>3d</fix>
</trkpt>
<trkpt lat="-27.2744472" lon="151.2900622">
  <ele>343.06</ele>
  <time>2026-09-01T19:54:46Z</time>
  <course>10.8</course>
  <speed>0.01414213562373095</speed>
  <fix>3d</fix>
</trkpt>
<trkpt lat="-27.2744471" lon="151.2900621">
  <ele>343.24</ele>
  <time>2026-09-01T19:54:46Z</time>
  <course>331.04</course>
  <speed>0.0</speed>
  <fix>3d</fix>
</trkpt>
<trkpt lat="-27.2744472" lon="151.2900622">
  <ele>343.04</ele>
  <time>2026-09-01T19:54:46Z</time>
  <course>10.8</course>
  <speed>0.022360679774997897</speed>
  <fix>3d</fix>
</trkpt>
<trkpt lat="-27.2744471" lon="151.2900621">
  <ele>343.14</ele>
  <time>2026-09-01T19:54:46Z</time>
  <course>335.39</course>
  <speed>0.0</speed>
  <fix>3d</fix>
</trkpt>
<trkpt lat="-27.2744472" lon="151.2900622">
  <ele>343.05</ele>
  <time>2026-09-01T19:54:46Z</time>
  <course>10.8</course>
  <speed>0.022360679774997897</speed>
  <fix>3d</fix>
</trkpt>
<trkpt lat="-27.2744471" lon="151.2900621">
  <ele>343.14</ele>
  <time>2026-09-01T19:54:46Z</time>
  <course>335.39</course>
  <speed>0.0</speed>
  <fix>3d</fix>
</trkpt>
<trkpt lat="-27.2744472" lon="151.2900622">
  <ele>343.06</ele>
  <time>2026-09-01T19:54:46Z</time>
  <course>10.8</course>
  <speed>0.022360679774997897</speed>
  <fix>3d</fix>
</trkpt>
<trkpt lat="-27.2744471" lon="151.2900621">
  <ele>343.08</ele>
  <time>2026-09-01T19:54:46Z</time>
  <course>337.4</course>
  <speed>0.0</speed>
  <fix>3d</fix>
</trkpt>
<trkpt lat="-27.2744472" lon="151.2900622">
  <ele>343.06</ele>
  <time>2026-09-01T19:54:46Z</time>
  <course>10.8</course>
  <speed>0.022360679774997897</speed>
  <fix>3d</fix>
</trkpt>
<trkpt lat="-27.2744471" lon="151.2900621">
  <ele>343.08</ele>
  <time>2026-09-01T19:54:46Z</time>
  <course>337.4</course>
  <speed>0.0</speed>
  <fix>3d</fix>
</trkpt>
<trkpt lat="-27.2744472" lon="151.2900622">
  <ele>343.06</ele>
  <time>2026-09-01T19:54:46Z</time>
  <course>10.8</course>
  <speed>0.022360679774997897</speed>
  <fix>3d</fix>
</trkpt>
<trkpt lat="-27.2744471" lon="151.2900621">
  <ele>343.09</ele>
  <time>2026-09-01T19:54:46Z</time>
  <course>157.41</course>
  <speed>0.0</speed>
  <fix>3d</fix>
</trkpt>
<trkpt lat="-27.2744472" lon="151.2900622">
  <ele>343.06</ele>
  <time>2026-09-01T19:54:46Z</time>
  <course>10.8</course>
  <speed>0.022360679774997897</speed>
  <fix>3d</fix>
</trkpt>
<trkpt lat="-27.2744471" lon="151.2900621">
  <ele>343.09</ele>
  <time>2026-09-01T19:54:46Z</time>
  <course>157.41</course>
  <speed>0.0</speed>
  <fix>3d</fix>
</trkpt>
<trkpt lat="-27.2744472" lon="151.2900622">
  <ele>343.05</ele>
  <time>2026-09-01T19:54:46Z</time>
  <course>10.8</course>
  <speed>0.022360679774997897</speed>
  <fix>3d</fix>
</trkpt>
<trkpt lat="-27.2744471" lon="151.2900621">
  <ele>343.1</ele>
  <time>2026-09-01T19:54:46Z</time>
  <course>157.39</course>
  <speed>0.0</speed>
  <fix>3d</fix>
</trkpt>
<trkpt lat="-27.2744472" lon="151.2900622">
  <ele>343.05</ele>
  <time>2026-09-01T19:54:46Z</time>
  <course>10.8</course>
  <speed>0.022360679774997897</speed>
  <fix>3d</fix>
</trkpt>
<trkpt lat="-27.2744471" lon="151.2900621">
  <ele>343.1</ele>
  <time>2026-09-01T19:54:46Z</time>
  <course>157.39</course>
  <speed>0.0</speed>
  <fix>3d</fix>
</trkpt>
<trkpt lat="-27.2744472" lon="151.2900622">
  <ele>343.05</ele>
  <time>2026-09-01T19:54:46Z</time>
  <course>10.8</course>
  <speed>0.022360679774997897</speed>
  <fix>3d</fix>
</trkpt>
<trkpt lat="-27.2744471" lon="151.2900621">
  <ele>343.09</ele>
  <time>2026-09-01T19:54:46Z</time>
  <course>337.42</course>
  <speed>0.0</speed>
  <fix>3d</fix>
</trkpt>
<trkpt lat="-27.2744472" lon="151.2900622">
  <ele>343.05</ele>
  <time>2026-09-01T19:54:46Z</time>
  <course>10.8</course>
  <speed>0.022360679774997897</speed>
  <fix>3d</fix>
</trkpt>
<trkpt lat="-27.2744471" lon="151.2900621">
  <ele>343.09</ele>
  <time>2026-09-01T19:54:46Z</time>
  <course>337.42</course>
  <speed>0.0</speed>
  <fix>3d</fix>
</trkpt>
<trkpt lat="-27.2744472" lon="151.2900622">
  <ele>343.05</ele>
  <time>2026-09-01T19:54:46Z</time>
  <course>10.8</course>
  <speed>0.022360679774997897</speed>
  <fix>3d</fix>
</trkpt>
<trkpt lat="-27.2744471" lon="151.2900621">
  <ele>343.09</ele>
  <time>2026-09-01T19:54:46Z</time>
  <course>156.52</course>
  <speed>0.0</speed>
  <fix>3d</fix>
</trkpt>
<trkpt lat="-27.2744472" lon="151.2900622">
  <ele>343.06</ele>
  <time>2026-09-01T19:54:46Z</time>
  <course>10.8</course>
  <speed>0.022360679774997897</speed>
  <fix>3d</fix>
</trkpt>
<trkpt lat="-27.2744471" lon="151.2900621">
  <ele>343.09</ele>
  <time>2026-09-01T19:54:46Z</time>
  <course>156.52</course>
  <speed>0.0</speed>
  <fix>3d</fix>
</trkpt>
<trkpt lat="-27.2744472" lon="151.2900622">
  <ele>343.06</ele>
  <time>2026-09-01T19:54:46Z</time>
  <course>10.8</course>
  <speed>0.022360679774997897</speed>
  <fix>3d</fix>
</trkpt>
<trkpt lat="-27.2744471" lon="151.2900621">
  <ele>343.09</ele>
  <time>2026-09-01T19:54:46Z</time>
  <course>157.26</course>
  <speed>0.0</speed>
  <fix>3d</fix>
</trkpt>
<trkpt lat="-27.2744472" lon="151.2900622">
  <ele>343.06</ele>
  <time>2026-09-01T19:54:46Z</time>
  <course>10.8</course>
  <speed>0.022360679774997897</speed>
  <fix>3d</fix>
</trkpt>
<trkpt lat="-27.2744471" lon="151.2900621">
  <ele>343.09</ele>
  <time>2026-09-01T19:54:46Z</time>
  <course>157.26</course>
  <speed>0.0</speed>
  <fix>3d</fix>
</trkpt>
<trkpt lat="-27.2744472" lon="151.2900622">
  <ele>343.06</ele>
  <time>2026-09-01T19:54:46Z</time>
  <course>10.8</course>
  <speed>0.022360679774997897</speed>
  <fix>3d</fix>
</trkpt>
<trkpt lat="-27.2744471" lon="151.2900621">
  <ele>343.09</ele>
  <time>2026-09-01T19:54:46Z</time>
  <course>338.11</course>
  <speed>0.0</speed>
  <fix>3d</fix>
</trkpt>
<trkpt lat="-27.2744472" lon="151.2900622">
  <ele>343.06</ele>
  <time>2026-09-01T19:54:46Z</time>
  <course>10.8</course>
  <speed>0.022360679774997897</speed>
  <fix>3d</fix>
</trkpt>
<trkpt lat="-27.2744471" lon="151.2900621">
  <ele>343.09</ele>
  <time>2026-09-01T19:54:46Z</time>
  <course>338.11</course>
  <speed>0.0</speed>
  <fix>3d</fix>
</trkpt>
<trkpt lat="-27.2744472" lon="151.2900622">
  <ele>343.06</ele>
  <time>2026-09-01T19:54:46Z</time>
  <course>10.8</course>
  <speed>0.022360679774997897</speed>
  <fix>3d</fix>
</trkpt>
<trkpt lat="-27.2744471" lon="151.2900621">
  <ele>343.09</ele>
  <time>2026-09-01T19:54:46Z</time>
  <course>337.81</course>
  <speed>0.0</speed>
  <fix>3d</fix>
</trkpt>
<trkpt lat="-27.2744472" lon="151.2900622">
  <ele>343.06</ele>
  <time>2026-09-01T19:54:46Z</time>
  <course>10.8</course>
  <speed>0.022360679774997897</speed>
  <fix>3d</fix>
</trkpt>
<trkpt lat="-27.2744471" lon="151.2900621">
  <ele>343.09</ele>
  <time>2026-09-01T19:54:46Z</time>
  <course>337.81</course>
  <speed>0.0</speed>
  <fix>3d</fix>
</trkpt>
<trkpt lat="-27.2744472" lon="151.2900622">
  <ele>343.06</ele>
  <time>2026-09-01T19:54:46Z</time>
  <course>10.79</course>
  <speed>0.022360679774997897</speed>
  <fix>3d</fix>
</trkpt>
<trkpt lat="-27.2744471" lon="151.2900621">
  <ele>343.09</ele>
  <time>2026-09-01T19:54:46Z</time>
  <course>155.48</course>
  <speed>0.0</speed>
  <fix>3d</fix>
</trkpt>
<trkpt lat="-27.2744472" lon="151.2900622">
  <ele>343.06</ele>
  <time>2026-09-01T19:54:46Z</time>
  <course>10.79</course>
  <speed>0.022360679774997897</speed>
  <fix>3d</fix>
</trkpt>
<trkpt lat="-27.2744471" lon="151.2900621">
  <ele>343.09</ele>
  <time>2026-09-01T19:54:46Z</time>
  <course>155.48</course>
  <speed>0.0</speed>
  <fix>3d</fix>
</trkpt>
<trkpt lat="-27.2744472" lon="151.2900622">
  <ele>343.06</ele>
  <time>2026-09-01T19:54:46Z</time>
  <course>10.79</course>
  <speed>0.022360679774997897</speed>
  <fix>3d</fix>
</trkpt>
<trkpt lat="-27.2744471" lon="151.2900621">
  <ele>343.09</ele>
  <time>2026-09-01T19:54:46Z</time>
  <course>153.1</course>
  <speed>0.0</speed>
  <fix>3d</fix>
</trkpt>
<trkpt lat="-27.2744473" lon="151.2900622">
  <ele>343.06</ele>
  <time>2026-09-01T19:54:46Z</time>
  <course>10.79</course>
  <speed>0.022360679774997897</speed>
  <fix>3d</fix>
</trkpt>
<trkpt lat="-27.2744471" lon="151.2900621">
  <ele>343.09</ele>
  <time>2026-09-01T19:54:46Z</time>
  <course>153.1</course>
  <speed>0.0</speed>
  <fix>3d</fix>
</trkpt>
<trkpt lat="-27.2744473" lon="151.2900622">
  <ele>343.06</ele>
  <time>2026-09-01T19:54:46Z</time>
  <course>10.79</course>
  <speed>0.022360679774997897</speed>
  <fix>3d</fix>
</trkpt>
<trkpt lat="-27.2744471" lon="151.2900621">
  <ele>343.09</ele>
  <time>2026-09-01T19:54:46Z</time>
  <course>353.71</course>
  <speed>0.0</speed>
  <fix>3d</fix>
</trkpt>
<trkpt lat="-27.2744473" lon="151.2900622">
  <ele>343.06</ele>
  <time>2026-09-01T19:54:46Z</time>
  <course>10.79</course>
  <speed>0.022360679774997897</speed>
  <fix>3d</fix>
</trkpt>
<trkpt lat="-27.2744471" lon="151.2900621">
  <ele>343.09</ele>
  <time>2026-09-01T19:54:46Z</time>
  <course>353.71</course>
  <speed>0.0</speed>
  <fix>3d</fix>
</trkpt>
<trkpt lat="-27.2744473" lon="151.2900622">
  <ele>343.06</ele>
  <time>2026-09-01T19:54:46Z</time>
  <course>10.79</course>
  <speed>0.022360679774997897</speed>
  <fix>3d</fix>
</trkpt>
<trkpt lat="-27.2744471" lon="151.2900621">
  <ele>343.09</ele>
  <time>2026-09-01T19:54:46Z</time>
  <course>131.1</course>
  <speed>0.0</speed>
  <fix>3d</fix>
</trkpt>
<trkpt lat="-27.2744473" lon="151.2900622">
  <ele>343.06</ele>
  <time>2026-09-01T19:54:46Z</time>
  <course>10.79</course>
  <speed>0.022360679774997897</speed>
  <fix>3d</fix>
</trkpt>
<trkpt lat="-27.2744471" lon="151.2900621">
  <ele>343.09</ele>
  <time>2026-09-01T19:54:46Z</time>
  <course>131.1</course>
  <speed>0.0</speed>
  <fix>3d</fix>
</trkpt>
<trkpt lat="-27.2744473" lon="151.2900622">
  <ele>343.06</ele>
  <time>2026-09-01T19:54:46Z</time>
  <course>10.79</course>
  <speed>0.022360679774997897</speed>
  <fix>3d</fix>
</trkpt>
<trkpt lat="-27.2744471" lon="151.2900621">
  <ele>343.09</ele>
  <time>2026-09-01T19:54:46Z</time>
  <course>148.54</course>
  <speed>0.0</speed>
  <fix>3d</fix>
</trkpt>
<trkpt lat="-27.2744473" lon="151.2900622">
  <ele>343.06</ele>
  <time>2026-09-01T19:54:46Z</time>
  <course>10.79</course>
  <speed>0.022360679774997897</speed>
  <fix>3d</fix>
</trkpt>
<trkpt lat="-27.2744471" lon="151.2900621">
  <ele>343.09</ele>
  <time>2026-09-01T19:54:46Z</time>
  <course>148.54</course>
  <speed>0.0</speed>
  <fix>3d</fix>
</trkpt>
<trkpt lat="-27.2744473" lon="151.2900622">
  <ele>343.06</ele>
  <time>2026-09-01T19:54:46Z</time>
  <course>10.79</course>
  <speed>0.022360679774997897</speed>
  <fix>3d</fix>
</trkpt>
<trkpt lat="-27.2744471" lon="151.2900621">
  <ele>343.09</ele>
  <time>2026-09-01T19:54:46Z</time>
  <course>151.99</course>
  <speed>0.0</speed>
  <fix>3d</fix>
</trkpt>
<trkpt lat="-27.2744473" lon="151.2900622">
  <ele>343.07</ele>
  <time>2026-09-01T19:54:46Z</time>
  <course>10.79</course>
  <speed>0.022360679774997897</speed>
  <fix>3d</fix>
</trkpt>
<trkpt lat="-27.2744471" lon="151.2900621">
  <ele>343.09</ele>
  <time>2026-09-01T19:54:46Z</time>
  <course>151.99</course>
  <speed>0.0</speed>
  <fix>3d</fix>
</trkpt>
<trkpt lat="-27.2744473" lon="151.2900622">
  <ele>343.07</ele>
  <time>2026-09-01T19:54:46Z</time>
  <course>10.79</course>
  <speed>0.022360679774997897</speed>
  <fix>3d</fix>
</trkpt>
<trkpt lat="-27.2744471" lon="151.2900621">
  <ele>343.09</ele>
  <time>2026-09-01T19:54:46Z</time>
  <course>146.03</course>
  <speed>0.0</speed>
  <fix>3d</fix>
</trkpt>
<trkpt lat="-27.2744473" lon="151.2900622">
  <ele>343.07</ele>
  <time>2026-09-01T19:54:46Z</time>
  <course>10.79</course>
  <speed>0.022360679774997897</speed>
  <fix>3d</fix>
</trkpt>
<trkpt lat="-27.2744471" lon="151.2900621">
  <ele>343.09</ele>
  <time>2026-09-01T19:54:46Z</time>
  <course>146.03</course>
  <speed>0.0</speed>
  <fix>3d</fix>
</trkpt>
<trkpt lat="-27.2744473" lon="151.2900622">
  <ele>343.07</ele>
  <time>2026-09-01T19:54:46Z</time>
  <course>10.79</course>
  <speed>0.022360679774997897</speed>
  <fix>3d</fix>
</trkpt>
<trkpt lat="-27.2744471" lon="151.2900621">
  <ele>343.09</ele>
  <time>2026-09-01T19:54:46Z</time>
  <course>132.72</course>
  <speed>0.0</speed>
  <fix>3d</fix>
</trkpt>
<trkpt lat="-27.2744473" lon="151.2900622">
  <ele>343.07</ele>
  <time>2026-09-01T19:54:46Z</time>
  <course>10.79</course>
  <speed>0.022360679774997897</speed>
  <fix>3d</fix>
</trkpt>
<trkpt lat="-27.2744471" lon="151.2900621">
  <ele>343.09</ele>
  <time>2026-09-01T19:54:46Z</time>
  <course>132.72</course>
  <speed>0.0</speed>
  <fix>3d</fix>
</trkpt>
<trkpt lat="-27.2744473" lon="151.2900622">
  <ele>343.07</ele>
  <time>2026-09-01T19:54:46Z</time>
  <course>10.79</course>
  <speed>0.022360679774997897</speed>
  <fix>3d</fix>
</trkpt>
<trkpt lat="-27.2744471" lon="151.2900621">
  <ele>343.09</ele>
  <time>2026-09-01T19:54:46Z</time>
  <course>310.15</course>
  <speed>0.0</speed>
  <fix>3d</fix>
</trkpt>
<trkpt lat="-27.2744473" lon="151.2900622">
  <ele>343.07</ele>
  <time>2026-09-01T19:54:46Z</time>
  <course>10.79</course>
  <speed>0.022360679774997897</speed>
  <fix>3d</fix>
</trkpt>
<trkpt lat="-27.2744471" lon="151.2900621">
  <ele>343.09</ele>
  <time>2026-09-01T19:54:46Z</time>
  <course>310.15</course>
  <speed>0.0</speed>
  <fix>3d</fix>
</trkpt>
<trkpt lat="-27.2744473" lon="151.2900622">
  <ele>343.07</ele>
  <time>2026-09-01T19:54:46Z</time>
  <course>10.79</course>
  <speed>0.022360679774997897</speed>
  <fix>3d</fix>
</trkpt>
<trkpt lat="-27.2744471" lon="151.2900621">
  <ele>343.09</ele>
  <time>2026-09-01T19:54:46Z</time>
  <course>309.47</course>
  <speed>0.0</speed>
  <fix>3d</fix>
</trkpt>
<trkpt lat="-27.2744473" lon="151.2900622">
  <ele>343.07</ele>
  <time>2026-09-01T19:54:46Z</time>
  <course>10.79</course>
  <speed>0.022360679774997897</speed>
  <fix>3d</fix>
</trkpt>
<trkpt lat="-27.2744471" lon="151.2900621">
  <ele>343.09</ele>
  <time>2026-09-01T19:54:46Z</time>
  <course>309.47</course>
  <speed>0.0</speed>
  <fix>3d</fix>
</trkpt>
<trkpt lat="-27.2744473" lon="151.2900622">
  <ele>343.07</ele>
  <time>2026-09-01T19:54:46Z</time>
  <course>10.79</course>
  <speed>0.022360679774997897</speed>
  <fix>3d</fix>
</trkpt>
<trkpt lat="-27.2744471" lon="151.2900621">
  <ele>343.09</ele>
  <time>2026-09-01T19:54:46Z</time>
  <course>309.54</course>
  <speed>0.0</speed>
  <fix>3d</fix>
</trkpt>
<trkpt lat="-27.2744473" lon="151.2900622">
  <ele>343.07</ele>
  <time>2026-09-01T19:54:46Z</time>
  <course>10.79</course>
  <speed>0.022360679774997897</speed>
  <fix>3d</fix>
</trkpt>
<trkpt lat="-27.2744471" lon="151.2900621">
  <ele>343.09</ele>
  <time>2026-09-01T19:54:46Z</time>
  <course>309.54</course>
  <speed>0.0</speed>
  <fix>3d</fix>
</trkpt>
<trkpt lat="-27.2744473" lon="151.2900622">
  <ele>343.07</ele>
  <time>2026-09-01T19:54:46Z</time>
  <course>10.79</course>
  <speed>0.022360679774997897</speed>
  <fix>3d</fix>
</trkpt>
<trkpt lat="-27.2744471" lon="151.2900621">
  <ele>343.09</ele>
  <time>2026-09-01T19:54:46Z</time>
  <course>129.5</course>
  <speed>0.0</speed>
  <fix>3d</fix>
</trkpt>
<trkpt lat="-27.2744473" lon="151.2900622">
  <ele>343.07</ele>
  <time>2026-09-01T19:54:46Z</time>
  <course>10.79</course>
  <speed>0.022360679774997897</speed>
  <fix>3d</fix>
</trkpt>
<trkpt lat="-27.2744471" lon="151.2900621">
  <ele>343.09</ele>
  <time>2026-09-01T19:54:46Z</time>
  <course>129.5</course>
  <speed>0.0</speed>
  <fix>3d</fix>
</trkpt>
<trkpt lat="-27.2744473" lon="151.2900622">
  <ele>343.07</ele>
  <time>2026-09-01T19:54:46Z</time>
  <course>10.79</course>
  <speed>0.022360679774997897</speed>
  <fix>3d</fix>
</trkpt>
<trkpt lat="-27.2744471" lon="151.2900621">
  <ele>343.09</ele>
  <time>2026-09-01T19:54:46Z</time>
  <course>129.55</course>
  <speed>0.0</speed>
  <fix>3d</fix>
</trkpt>
<trkpt lat="-27.2744473" lon="151.2900622">
  <ele>343.07</ele>
  <time>2026-09-01T19:54:46Z</time>
  <course>10.79</course>
  <speed>0.022360679774997897</speed>
  <fix>3d</fix>
</trkpt>
<trkpt lat="-27.2744471" lon="151.2900621">
  <ele>343.09</ele>
  <time>2026-09-01T19:54:46Z</time>
  <course>129.55</course>
  <speed>0.0</speed>
  <fix>3d</fix>
</trkpt>
<trkpt lat="-27.2744473" lon="151.2900622">
  <ele>343.07</ele>
  <time>2026-09-01T19:54:46Z</time>
  <course>10.79</course>
  <speed>0.022360679774997897</speed>
  <fix>3d</fix>
</trkpt>
<trkpt lat="-27.2744471" lon="151.2900621">
  <ele>343.09</ele>
  <time>2026-09-01T19:54:46Z</time>
  <course>309.51</course>
  <speed>0.0</speed>
  <fix>3d</fix>
</trkpt>
<trkpt lat="-27.2744473" lon="151.2900622">
  <ele>343.07</ele>
  <time>2026-09-01T19:54:46Z</time>
  <course>10.79</course>
  <speed>0.022360679774997897</speed>
  <fix>3d</fix>
</trkpt>
<trkpt lat="-27.2744471" lon="151.2900621">
  <ele>343.09</ele>
  <time>2026-09-01T19:54:46Z</time>
  <course>309.51</course>
  <speed>0.0</speed>
  <fix>3d</fix>
</trkpt>
<trkpt lat="-27.2744473" lon="151.2900622">
  <ele>343.08</ele>
  <time>2026-09-01T19:54:46Z</time>
  <course>10.79</course>
  <speed>0.022360679774997897</speed>
  <fix>3d</fix>
</trkpt>
<trkpt lat="-27.2744471" lon="151.2900621">
  <ele>343.09</ele>
  <time>2026-09-01T19:54:46Z</time>
  <course>309.59</course>
  <speed>0.0</speed>
  <fix>3d</fix>
</trkpt>
<trkpt lat="-27.2744473" lon="151.2900622">
  <ele>343.07</ele>
  <time>2026-09-01T19:54:46Z</time>
  <course>10.79</course>
  <speed>0.022360679774997897</speed>
  <fix>3d</fix>
</trkpt>
<trkpt lat="-27.2744471" lon="151.2900621">
  <ele>343.09</ele>
  <time>2026-09-01T19:54:46Z</time>
  <course>309.59</course>
  <speed>0.0</speed>
  <fix>3d</fix>
</trkpt>
<trkpt lat="-27.2744473" lon="151.2900622">
  <ele>343.07</ele>
  <time>2026-09-01T19:54:46Z</time>
  <course>10.79</course>
  <speed>0.022360679774997897</speed>
  <fix>3d</fix>
</trkpt>
<trkpt lat="-27.2744471" lon="151.2900621">
  <ele>343.09</ele>
  <time>2026-09-01T19:54:46Z</time>
  <course>129.52</course>
  <speed>0.0</speed>
  <fix>3d</fix>
</trkpt>
<trkpt lat="-27.2744473" lon="151.2900622">
  <ele>343.07</ele>
  <time>2026-09-01T19:54:47Z</time>
  <course>10.8</course>
  <speed>0.022360679774997897</speed>
  <fix>3d</fix>
</trkpt>
<trkpt lat="-27.2744471" lon="151.2900621">
  <ele>343.09</ele>
  <time>2026-09-01T19:54:47Z</time>
  <course>129.52</course>
  <speed>0.0</speed>
  <fix>3d</fix>
</trkpt>
<trkpt lat="-27.2744473" lon="151.2900622">
  <ele>343.07</ele>
  <time>2026-09-01T19:54:47Z</time>
  <course>10.8</course>
  <speed>0.022360679774997897</speed>
  <fix>3d</fix>
</trkpt>
<trkpt lat="-27.2744471" lon="151.2900621">
  <ele>343.09</ele>
  <time>2026-09-01T19:54:47Z</time>
  <course>308.5</course>
  <speed>0.0</speed>
  <fix>3d</fix>
</trkpt>
<trkpt lat="-27.2744473" lon="151.2900622">
  <ele>343.07</ele>
  <time>2026-09-01T19:54:47Z</time>
  <course>10.8</course>
  <speed>0.022360679774997897</speed>
  <fix>3d</fix>
</trkpt>
<trkpt lat="-27.2744471" lon="151.2900621">
  <ele>343.09</ele>
  <time>2026-09-01T19:54:47Z</time>
  <course>308.5</course>
  <speed>0.0</speed>
  <fix>3d</fix>
</trkpt>
<trkpt lat="-27.2744473" lon="151.2900622">
  <ele>343.07</ele>
  <time>2026-09-01T19:54:47Z</time>
  <course>10.8</course>
  <speed>0.022360679774997897</speed>
  <fix>3d</fix>
</trkpt>
<trkpt lat="-27.2744471" lon="151.2900621">
  <ele>343.09</ele>
  <time>2026-09-01T19:54:47Z</time>
  <course>309.53</course>
  <speed>0.0</speed>
  <fix>3d</fix>
</trkpt>
<trkpt lat="-27.2744473" lon="151.2900622">
  <ele>343.07</ele>
  <time>2026-09-01T19:54:47Z</time>
  <course>10.8</course>
  <speed>0.022360679774997897</speed>
  <fix>3d</fix>
</trkpt>
<trkpt lat="-27.2744471" lon="151.2900621">
  <ele>343.09</ele>
  <time>2026-09-01T19:54:47Z</time>
  <course>309.53</course>
  <speed>0.0</speed>
  <fix>3d</fix>
</trkpt>
<trkpt lat="-27.2744473" lon="151.2900622">
  <ele>343.07</ele>
  <time>2026-09-01T19:54:47Z</time>
  <course>10.8</course>
  <speed>0.022360679774997897</speed>
  <fix>3d</fix>
</trkpt>
<trkpt lat="-27.2744471" lon="151.2900621">
  <ele>343.09</ele>
  <time>2026-09-01T19:54:47Z</time>
  <course>129.46</course>
  <speed>0.0</speed>
  <fix>3d</fix>
</trkpt>
<trkpt lat="-27.2744473" lon="151.2900622">
  <ele>343.08</ele>
  <time>2026-09-01T19:54:47Z</time>
  <course>10.8</course>
  <speed>0.022360679774997897</speed>
  <fix>3d</fix>
</trkpt>
<trkpt lat="-27.2744471" lon="151.2900621">
  <ele>343.09</ele>
  <time>2026-09-01T19:54:47Z</time>
  <course>129.46</course>
  <speed>0.0</speed>
  <fix>3d</fix>
</trkpt>
<trkpt lat="-27.2744473" lon="151.2900622">
  <ele>343.08</ele>
  <time>2026-09-01T19:54:47Z</time>
  <course>10.8</course>
  <speed>0.022360679774997897</speed>
  <fix>3d</fix>
</trkpt>
<trkpt lat="-27.2744471" lon="151.2900621">
  <ele>343.09</ele>
  <time>2026-09-01T19:54:47Z</time>
  <course>129.53</course>
  <speed>0.0</speed>
  <fix>3d</fix>
</trkpt>
<trkpt lat="-27.2744473" lon="151.2900622">
  <ele>343.08</ele>
  <time>2026-09-01T19:54:47Z</time>
  <course>10.8</course>
  <speed>0.022360679774997897</speed>
  <fix>3d</fix>
</trkpt>
<trkpt lat="-27.2744471" lon="151.2900621">
  <ele>343.09</ele>
  <time>2026-09-01T19:54:47Z</time>
  <course>129.53</course>
  <speed>0.0</speed>
  <fix>3d</fix>
</trkpt>
<trkpt lat="-27.2744473" lon="151.2900622">
  <ele>343.08</ele>
  <time>2026-09-01T19:54:47Z</time>
  <course>10.8</course>
  <speed>0.022360679774997897</speed>
  <fix>3d</fix>
</trkpt>
<trkpt lat="-27.2744471" lon="151.2900621">
  <ele>343.09</ele>
  <time>2026-09-01T19:54:47Z</time>
  <course>309.5</course>
  <speed>0.0</speed>
  <fix>3d</fix>
</trkpt>
<trkpt lat="-27.2744473" lon="151.2900622">
  <ele>343.08</ele>
  <time>2026-09-01T19:54:47Z</time>
  <course>10.8</course>
  <speed>0.022360679774997897</speed>
  <fix>3d</fix>
</trkpt>
<trkpt lat="-27.2744471" lon="151.2900621">
  <ele>343.09</ele>
  <time>2026-09-01T19:54:47Z</time>
  <course>309.5</course>
  <speed>0.0</speed>
  <fix>3d</fix>
</trkpt>
<trkpt lat="-27.2744473" lon="151.2900622">
  <ele>343.08</ele>
  <time>2026-09-01T19:54:47Z</time>
  <course>10.8</course>
  <speed>0.022360679774997897</speed>
  <fix>3d</fix>
</trkpt>
<trkpt lat="-27.2744471" lon="151.2900621">
  <ele>343.09</ele>
  <time>2026-09-01T19:54:47Z</time>
  <course>309.56</course>
  <speed>0.0</speed>
  <fix>3d</fix>
</trkpt>
<trkpt lat="-27.2744473" lon="151.2900622">
  <ele>343.08</ele>
  <time>2026-09-01T19:54:47Z</time>
  <course>10.8</course>
  <speed>0.022360679774997897</speed>
  <fix>3d</fix>
</trkpt>
<trkpt lat="-27.2744471" lon="151.2900621">
  <ele>343.09</ele>
  <time>2026-09-01T19:54:47Z</time>
  <course>309.56</course>
  <speed>0.0</speed>
  <fix>3d</fix>
</trkpt>
<trkpt lat="-27.2744473" lon="151.2900622">
  <ele>343.08</ele>
  <time>2026-09-01T19:54:47Z</time>
  <course>10.82</course>
  <speed>0.022360679774997897</speed>
  <fix>3d</fix>
</trkpt>
<trkpt lat="-27.2744471" lon="151.2900621">
  <ele>343.09</ele>
  <time>2026-09-01T19:54:47Z</time>
  <course>129.48</course>
  <speed>0.0</speed>
  <fix>3d</fix>
</trkpt>
<trkpt lat="-27.2744473" lon="151.2900622">
  <ele>343.08</ele>
  <time>2026-09-01T19:54:47Z</time>
  <course>10.88</course>
  <speed>0.022360679774997897</speed>
  <fix>3d</fix>
</trkpt>
<trkpt lat="-27.2744471" lon="151.2900621">
  <ele>343.09</ele>
  <time>2026-09-01T19:54:47Z</time>
  <course>129.48</course>
  <speed>0.0</speed>
  <fix>3d</fix>
</trkpt>
<trkpt lat="-27.2744473" lon="151.2900622">
  <ele>343.09</ele>
  <time>2026-09-01T19:54:47Z</time>
  <course>10.95</course>
  <speed>0.022360679774997897</speed>
  <fix>3d</fix>
</trkpt>
<trkpt lat="-27.2744471" lon="151.2900621">
  <ele>343.09</ele>
  <time>2026-09-01T19:54:47Z</time>
  <course>129.43</course>
  <speed>0.0</speed>
  <fix>3d</fix>
</trkpt>
<trkpt lat="-27.2744473" lon="151.2900622">
  <ele>343.09</ele>
  <time>2026-09-01T19:54:47Z</time>
  <course>11.01</course>
  <speed>0.022360679774997897</speed>
  <fix>3d</fix>
</trkpt>
<trkpt lat="-27.2744471" lon="151.2900621">
  <ele>343.09</ele>
  <time>2026-09-01T19:54:47Z</time>
  <course>129.43</course>
  <speed>0.0</speed>
  <fix>3d</fix>
</trkpt>
<trkpt lat="-27.2744473" lon="151.2900622">
  <ele>343.09</ele>
  <time>2026-09-01T19:54:47Z</time>
  <course>11.07</course>
  <speed>0.022360679774997897</speed>
  <fix>3d</fix>
</trkpt>
<trkpt lat="-27.2744471" lon="151.2900621">
  <ele>343.09</ele>
  <time>2026-09-01T19:54:47Z</time>
  <course>309.67</course>
  <speed>0.0</speed>
  <fix>3d</fix>
</trkpt>
<trkpt lat="-27.2744473" lon="151.2900622">
  <ele>343.09</ele>
  <time>2026-09-01T19:54:47Z</time>
  <course>11.12</course>
  <speed>0.022360679774997897</speed>
  <fix>3d</fix>
</trkpt>
<trkpt lat="-27.2744471" lon="151.2900621">
  <ele>343.09</ele>
  <time>2026-09-01T19:54:47Z</time>
  <course>309.67</course>
  <speed>0.0</speed>
  <fix>3d</fix>
</trkpt>
<trkpt lat="-27.2744473" lon="151.2900622">
  <ele>343.09</ele>
  <time>2026-09-01T19:54:47Z</time>
  <course>11.16</course>
  <speed>0.022360679774997897</speed>
  <fix>3d</fix>
</trkpt>
<trkpt lat="-27.2744471" lon="151.2900621">
  <ele>343.09</ele>
  <time>2026-09-01T19:54:47Z</time>
  <course>314.96</course>
  <speed>0.0</speed>
  <fix>3d</fix>
</trkpt>
<trkpt lat="-27.2744473" lon="151.2900622">
  <ele>343.09</ele>
  <time>2026-09-01T19:54:47Z</time>
  <course>11.2</course>
  <speed>0.022360679774997897</speed>
  <fix>3d</fix>
</trkpt>
<trkpt lat="-27.2744471" lon="151.2900621">
  <ele>343.09</ele>
  <time>2026-09-01T19:54:47Z</time>
  <course>314.96</course>
  <speed>0.0</speed>
  <fix>3d</fix>
</trkpt>
<trkpt lat="-27.2744473" lon="151.2900622">
  <ele>343.09</ele>
  <time>2026-09-01T19:54:47Z</time>
  <course>11.24</course>
  <speed>0.022360679774997897</speed>
  <fix>3d</fix>
</trkpt>
<trkpt lat="-27.2744471" lon="151.2900621">
  <ele>343.09</ele>
  <time>2026-09-01T19:54:47Z</time>
  <course>128.37</course>
  <speed>0.0</speed>
  <fix>3d</fix>
</trkpt>
<trkpt lat="-27.2744473" lon="151.2900622">
  <ele>343.09</ele>
  <time>2026-09-01T19:54:47Z</time>
  <course>11.27</course>
  <speed>0.022360679774997897</speed>
  <fix>3d</fix>
</trkpt>
<trkpt lat="-27.2744471" lon="151.2900621">
  <ele>343.09</ele>
  <time>2026-09-01T19:54:47Z</time>
  <course>128.37</course>
  <speed>0.0</speed>
  <fix>3d</fix>
</trkpt>
<trkpt lat="-27.2744473" lon="151.2900622">
  <ele>343.09</ele>
  <time>2026-09-01T19:54:47Z</time>
  <course>11.3</course>
  <speed>0.022360679774997897</speed>
  <fix>3d</fix>
</trkpt>
<trkpt lat="-27.2744471" lon="151.2900621">
  <ele>343.09</ele>
  <time>2026-09-01T19:54:47Z</time>
  <course>319.92</course>
  <speed>0.0</speed>
  <fix>3d</fix>
</trkpt>
<trkpt lat="-27.2744473" lon="151.2900622">
  <ele>343.1</ele>
  <time>2026-09-01T19:54:47Z</time>
  <course>11.33</course>
  <speed>0.022360679774997897</speed>
  <fix>3d</fix>
</trkpt>
<trkpt lat="-27.2744471" lon="151.2900621">
  <ele>343.09</ele>
  <time>2026-09-01T19:54:47Z</time>
  <course>319.92</course>
  <speed>0.0</speed>
  <fix>3d</fix>
</trkpt>
<trkpt lat="-27.2744473" lon="151.2900622">
  <ele>343.1</ele>
  <time>2026-09-01T19:54:47Z</time>
  <course>11.35</course>
  <speed>0.022360679774997897</speed>
  <fix>3d</fix>
</trkpt>
<trkpt lat="-27.2744471" lon="151.2900621">
  <ele>343.09</ele>
  <time>2026-09-01T19:54:47Z</time>
  <course>317.61</course>
  <speed>0.0</speed>
  <fix>3d</fix>
</trkpt>
<trkpt lat="-27.2744473" lon="151.2900622">
  <ele>343.11</ele>
  <time>2026-09-01T19:54:47Z</time>
  <course>11.38</course>
  <speed>0.022360679774997897</speed>
  <fix>3d</fix>
</trkpt>
<trkpt lat="-27.2744471" lon="151.2900621">
  <ele>343.09</ele>
  <time>2026-09-01T19:54:47Z</time>
  <course>317.61</course>
  <speed>0.0</speed>
  <fix>3d</fix>
</trkpt>
<trkpt lat="-27.2744473" lon="151.2900622">
  <ele>343.11</ele>
  <time>2026-09-01T19:54:47Z</time>
  <course>11.4</course>
  <speed>0.022360679774997897</speed>
  <fix>3d</fix>
</trkpt>
<trkpt lat="-27.2744471" lon="151.2900621">
  <ele>343.09</ele>
  <time>2026-09-01T19:54:47Z</time>
  <course>66.76</course>
  <speed>0.0</speed>
  <fix>3d</fix>
</trkpt>
<trkpt lat="-27.2744473" lon="151.2900622">
  <ele>343.12</ele>
  <time>2026-09-01T19:54:47Z</time>
  <course>11.42</course>
  <speed>0.022360679774997897</speed>
  <fix>3d</fix>
</trkpt>
<trkpt lat="-27.2744471" lon="151.2900621">
  <ele>343.09</ele>
  <time>2026-09-01T19:54:47Z</time>
  <course>66.76</course>
  <speed>0.0</speed>
  <fix>3d</fix>
</trkpt>
<trkpt lat="-27.2744473" lon="151.2900622">
  <ele>343.12</ele>
  <time>2026-09-01T19:54:47Z</time>
  <course>11.44</course>
  <speed>0.022360679774997897</speed>
  <fix>3d</fix>
</trkpt>
<trkpt lat="-27.2744471" lon="151.2900621">
  <ele>343.09</ele>
  <time>2026-09-01T19:54:47Z</time>
  <course>29.39</course>
  <speed>0.0</speed>
  <fix>3d</fix>
</trkpt>
<trkpt lat="-27.2744473" lon="151.2900622">
  <ele>343.13</ele>
  <time>2026-09-01T19:54:47Z</time>
  <course>11.46</course>
  <speed>0.022360679774997897</speed>
  <fix>3d</fix>
</trkpt>
<trkpt lat="-27.2744471" lon="151.2900621">
  <ele>343.09</ele>
  <time>2026-09-01T19:54:47Z</time>
  <course>29.39</course>
  <speed>0.0</speed>
  <fix>3d</fix>
</trkpt>
<trkpt lat="-27.2744473" lon="151.2900622">
  <ele>343.13</ele>
  <time>2026-09-01T19:54:47Z</time>
  <course>11.48</course>
  <speed>0.01414213562373095</speed>
  <fix>3d</fix>
</trkpt>
<trkpt lat="-27.2744471" lon="151.2900621">
  <ele>343.09</ele>
  <time>2026-09-01T19:54:47Z</time>
  <course>352.91</course>
  <speed>0.0</speed>
  <fix>3d</fix>
</trkpt>
<trkpt lat="-27.2744473" lon="151.2900622">
  <ele>343.13</ele>
  <time>2026-09-01T19:54:47Z</time>
  <course>11.49</course>
  <speed>0.01414213562373095</speed>
  <fix>3d</fix>
</trkpt>
<trkpt lat="-27.2744471" lon="151.2900621">
  <ele>343.09</ele>
  <time>2026-09-01T19:54:47Z</time>
  <course>352.91</course>
  <speed>0.0</speed>
  <fix>3d</fix>
</trkpt>
<trkpt lat="-27.2744473" lon="151.2900622">
  <ele>343.14</ele>
  <time>2026-09-01T19:54:47Z</time>
  <course>11.51</course>
  <speed>0.01414213562373095</speed>
  <fix>3d</fix>
</trkpt>
<trkpt lat="-27.2744471" lon="151.2900621">
  <ele>343.09</ele>
  <time>2026-09-01T19:54:47Z</time>
  <course>358.18</course>
  <speed>0.0</speed>
  <fix>3d</fix>
</trkpt>
<trkpt lat="-27.2744473" lon="151.2900622">
  <ele>343.14</ele>
  <time>2026-09-01T19:54:47Z</time>
  <course>11.52</course>
  <speed>0.01414213562373095</speed>
  <fix>3d</fix>
</trkpt>
<trkpt lat="-27.2744471" lon="151.2900621">
  <ele>343.09</ele>
  <time>2026-09-01T19:54:47Z</time>
  <course>358.18</course>
  <speed>0.0</speed>
  <fix>3d</fix>
</trkpt>
<trkpt lat="-27.2744473" lon="151.2900622">
  <ele>343.14</ele>
  <time>2026-09-01T19:54:47Z</time>
  <course>11.54</course>
  <speed>0.01414213562373095</speed>
  <fix>3d</fix>
</trkpt>
<trkpt lat="-27.2744471" lon="151.2900621">
  <ele>343.09</ele>
  <time>2026-09-01T19:54:47Z</time>
  <course>0.41</course>
  <speed>0.0</speed>
  <fix>3d</fix>
</trkpt>
<trkpt lat="-27.2744473" lon="151.2900622">
  <ele>343.14</ele>
  <time>2026-09-01T19:54:47Z</time>
  <course>11.55</course>
  <speed>0.01414213562373095</speed>
  <fix>3d</fix>
</trkpt>
<trkpt lat="-27.2744471" lon="151.2900621">
  <ele>343.09</ele>
  <time>2026-09-01T19:54:47Z</time>
  <course>0.41</course>
  <speed>0.0</speed>
  <fix>3d</fix>
</trkpt>
<trkpt lat="-27.2744473" lon="151.2900622">
  <ele>343.14</ele>
  <time>2026-09-01T19:54:47Z</time>
  <course>11.56</course>
  <speed>0.01414213562373095</speed>
  <fix>3d</fix>
</trkpt>
<trkpt lat="-27.2744471" lon="151.2900621">
  <ele>343.09</ele>
  <time>2026-09-01T19:54:47Z</time>
  <course>0.71</course>
  <speed>0.0</speed>
  <fix>3d</fix>
</trkpt>
<trkpt lat="-27.2744473" lon="151.2900622">
  <ele>343.15</ele>
  <time>2026-09-01T19:54:47Z</time>
  <course>11.57</course>
  <speed>0.01</speed>
  <fix>3d</fix>
</trkpt>
<trkpt lat="-27.2744471" lon="151.2900621">
  <ele>343.09</ele>
  <time>2026-09-01T19:54:47Z</time>
  <course>0.71</course>
  <speed>0.0</speed>
  <fix>3d</fix>
</trkpt>
<trkpt lat="-27.2744473" lon="151.2900622">
  <ele>343.15</ele>
  <time>2026-09-01T19:54:47Z</time>
  <course>11.59</course>
  <speed>0.01</speed>
  <fix>3d</fix>
</trkpt>
<trkpt lat="-27.2744471" lon="151.2900621">
  <ele>343.09</ele>
  <time>2026-09-01T19:54:47Z</time>
  <course>0.75</course>
  <speed>0.0</speed>
  <fix>3d</fix>
</trkpt>
<trkpt lat="-27.2744473" lon="151.2900622">
  <ele>343.15</ele>
  <time>2026-09-01T19:54:47Z</time>
  <course>11.6</course>
  <speed>0.01</speed>
  <fix>3d</fix>
</trkpt>
<trkpt lat="-27.2744471" lon="151.2900621">
  <ele>343.09</ele>
  <time>2026-09-01T19:54:47Z</time>
  <course>0.75</course>
  <speed>0.0</speed>
  <fix>3d</fix>
</trkpt>
<trkpt lat="-27.2744473" lon="151.2900622">
  <ele>343.09</ele>
  <time>2026-09-01T19:54:47Z</time>
  <course>11.61</course>
  <speed>0.01</speed>
  <fix>3d</fix>
</trkpt>
<trkpt lat="-27.2744471" lon="151.2900621">
  <ele>343.09</ele>
  <time>2026-09-01T19:54:47Z</time>
  <course>0.76</course>
  <speed>0.0</speed>
  <fix>3d</fix>
</trkpt>
<trkpt lat="-27.2744473" lon="151.2900622">
  <ele>343.08</ele>
  <time>2026-09-01T19:54:47Z</time>
  <course>11.62</course>
  <speed>0.01</speed>
  <fix>3d</fix>
</trkpt>
<trkpt lat="-27.2744471" lon="151.2900621">
  <ele>343.09</ele>
  <time>2026-09-01T19:54:47Z</time>
  <course>0.76</course>
  <speed>0.0</speed>
  <fix>3d</fix>
</trkpt>
<trkpt lat="-27.2744473" lon="151.2900622">
  <ele>343.08</ele>
  <time>2026-09-01T19:54:47Z</time>
  <course>11.63</course>
  <speed>0.01</speed>
  <fix>3d</fix>
</trkpt>
<trkpt lat="-27.2744471" lon="151.2900621">
  <ele>343.09</ele>
  <time>2026-09-01T19:54:47Z</time>
  <course>0.76</course>
  <speed>0.0</speed>
  <fix>3d</fix>
</trkpt>
<trkpt lat="-27.2744473" lon="151.2900622">
  <ele>343.08</ele>
  <time>2026-09-01T19:54:47Z</time>
  <course>11.64</course>
  <speed>0.01</speed>
  <fix>3d</fix>
</trkpt>
<trkpt lat="-27.2744471" lon="151.2900621">
  <ele>343.09</ele>
  <time>2026-09-01T19:54:47Z</time>
  <course>0.76</course>
  <speed>0.0</speed>
  <fix>3d</fix>
</trkpt>
<trkpt lat="-27.2744473" lon="151.2900622">
  <ele>343.08</ele>
  <time>2026-09-01T19:54:47Z</time>
  <course>11.65</course>
  <speed>0.01</speed>
  <fix>3d</fix>
</trkpt>
<trkpt lat="-27.2744471" lon="151.2900621">
  <ele>343.09</ele>
  <time>2026-09-01T19:54:47Z</time>
  <course>0.76</course>
  <speed>0.0</speed>
  <fix>3d</fix>
</trkpt>
<trkpt lat="-27.2744473" lon="151.2900622">
  <ele>343.07</ele>
  <time>2026-09-01T19:54:47Z</time>
  <course>11.65</course>
  <speed>0.01</speed>
  <fix>3d</fix>
</trkpt>
<trkpt lat="-27.2744471" lon="151.2900621">
  <ele>343.09</ele>
  <time>2026-09-01T19:54:47Z</time>
  <course>0.76</course>
  <speed>0.0</speed>
  <fix>3d</fix>
</trkpt>
<trkpt lat="-27.2744473" lon="151.2900622">
  <ele>343.07</ele>
  <time>2026-09-01T19:54:47Z</time>
  <course>11.66</course>
  <speed>0.01</speed>
  <fix>3d</fix>
</trkpt>
<trkpt lat="-27.2744471" lon="151.2900621">
  <ele>343.09</ele>
  <time>2026-09-01T19:54:47Z</time>
  <course>0.76</course>
  <speed>0.0</speed>
  <fix>3d</fix>
</trkpt>
<trkpt lat="-27.2744473" lon="151.2900622">
  <ele>343.06</ele>
  <time>2026-09-01T19:54:47Z</time>
  <course>11.67</course>
  <speed>0.01</speed>
  <fix>3d</fix>
</trkpt>
<trkpt lat="-27.2744471" lon="151.2900621">
  <ele>343.09</ele>
  <time>2026-09-01T19:54:47Z</time>
  <course>0.76</course>
  <speed>0.0</speed>
  <fix>3d</fix>
</trkpt>
<trkpt lat="-27.2744473" lon="151.2900622">
  <ele>343.06</ele>
  <time>2026-09-01T19:54:47Z</time>
  <course>11.68</course>
  <speed>0.01</speed>
  <fix>3d</fix>
</trkpt>
<trkpt lat="-27.2744471" lon="151.2900621">
  <ele>343.09</ele>
  <time>2026-09-01T19:54:47Z</time>
  <course>0.76</course>
  <speed>0.0</speed>
  <fix>3d</fix>
</trkpt>
<trkpt lat="-27.2744473" lon="151.2900622">
  <ele>343.06</ele>
  <time>2026-09-01T19:54:47Z</time>
  <course>11.69</course>
  <speed>0.01</speed>
  <fix>3d</fix>
</trkpt>
<trkpt lat="-27.2744471" lon="151.2900621">
  <ele>343.09</ele>
  <time>2026-09-01T19:54:47Z</time>
  <course>0.76</course>
  <speed>0.0</speed>
  <fix>3d</fix>
</trkpt>
<trkpt lat="-27.2744473" lon="151.2900622">
  <ele>343.06</ele>
  <time>2026-09-01T19:54:47Z</time>
  <course>11.69</course>
  <speed>0.01</speed>
  <fix>3d</fix>
</trkpt>
<trkpt lat="-27.2744471" lon="151.2900621">
  <ele>343.09</ele>
  <time>2026-09-01T19:54:47Z</time>
  <course>0.76</course>
  <speed>0.0</speed>
  <fix>3d</fix>
</trkpt>
<trkpt lat="-27.2744473" lon="151.2900622">
  <ele>343.06</ele>
  <time>2026-09-01T19:54:47Z</time>
  <course>11.7</course>
  <speed>0.01</speed>
  <fix>3d</fix>
</trkpt>
<trkpt lat="-27.2744471" lon="151.2900621">
  <ele>343.09</ele>
  <time>2026-09-01T19:54:47Z</time>
  <course>0.76</course>
  <speed>0.0</speed>
  <fix>3d</fix>
</trkpt>
<trkpt lat="-27.2744473" lon="151.2900622">
  <ele>343.06</ele>
  <time>2026-09-01T19:54:47Z</time>
  <course>11.71</course>
  <speed>0.01</speed>
  <fix>3d</fix>
</trkpt>
<trkpt lat="-27.2744471" lon="151.2900621">
  <ele>343.09</ele>
  <time>2026-09-01T19:54:47Z</time>
  <course>0.76</course>
  <speed>0.0</speed>
  <fix>3d</fix>
</trkpt>
<trkpt lat="-27.2744473" lon="151.2900622">
  <ele>343.06</ele>
  <time>2026-09-01T19:54:47Z</time>
  <course>11.71</course>
  <speed>0.01</speed>
  <fix>3d</fix>
</trkpt>
<trkpt lat="-27.2744471" lon="151.2900621">
  <ele>343.09</ele>
  <time>2026-09-01T19:54:47Z</time>
  <course>0.76</course>
  <speed>0.0</speed>
  <fix>3d</fix>
</trkpt>
<trkpt lat="-27.2744472" lon="151.2900622">
  <ele>343.06</ele>
  <time>2026-09-01T19:54:47Z</time>
  <course>11.72</course>
  <speed>0.01</speed>
  <fix>3d</fix>
</trkpt>
<trkpt lat="-27.2744471" lon="151.2900621">
  <ele>343.09</ele>
  <time>2026-09-01T19:54:47Z</time>
  <course>0.76</course>
  <speed>0.0</speed>
  <fix>3d</fix>
</trkpt>
<trkpt lat="-27.2744472" lon="151.2900622">
  <ele>343.06</ele>
  <time>2026-09-01T19:54:47Z</time>
  <course>11.73</course>
  <speed>0.01</speed>
  <fix>3d</fix>
</trkpt>
<trkpt lat="-27.2744471" lon="151.2900621">
  <ele>343.09</ele>
  <time>2026-09-01T19:54:47Z</time>
  <course>0.76</course>
  <speed>0.0</speed>
  <fix>3d</fix>
</trkpt>
<trkpt lat="-27.2744472" lon="151.2900622">
  <ele>343.06</ele>
  <time>2026-09-01T19:54:47Z</time>
  <course>11.73</course>
  <speed>0.01</speed>
  <fix>3d</fix>
</trkpt>
<trkpt lat="-27.2744471" lon="151.2900621">
  <ele>343.09</ele>
  <time>2026-09-01T19:54:47Z</time>
  <course>0.76</course>
  <speed>0.0</speed>
  <fix>3d</fix>
</trkpt>
<trkpt lat="-27.2744472" lon="151.2900622">
  <ele>343.06</ele>
  <time>2026-09-01T19:54:47Z</time>
  <course>11.74</course>
  <speed>0.01</speed>
  <fix>3d</fix>
</trkpt>
<trkpt lat="-27.2744471" lon="151.2900621">
  <ele>343.09</ele>
  <time>2026-09-01T19:54:47Z</time>
  <course>0.76</course>
  <speed>0.0</speed>
  <fix>3d</fix>
</trkpt>
<trkpt lat="-27.2744472" lon="151.2900622">
  <ele>343.06</ele>
  <time>2026-09-01T19:54:47Z</time>
  <course>11.75</course>
  <speed>0.01</speed>
  <fix>3d</fix>
</trkpt>
<trkpt lat="-27.2744471" lon="151.2900621">
  <ele>343.09</ele>
  <time>2026-09-01T19:54:47Z</time>
  <course>0.76</course>
  <speed>0.0</speed>
  <fix>3d</fix>
</trkpt>
<trkpt lat="-27.2744472" lon="151.2900622">
  <ele>343.06</ele>
  <time>2026-09-01T19:54:47Z</time>
  <course>11.75</course>
  <speed>0.01</speed>
  <fix>3d</fix>
</trkpt>
<trkpt lat="-27.2744471" lon="151.2900621">
  <ele>343.09</ele>
  <time>2026-09-01T19:54:47Z</time>
  <course>0.76</course>
  <speed>0.0</speed>
  <fix>3d</fix>
</trkpt>
<trkpt lat="-27.2744472" lon="151.2900622">
  <ele>343.06</ele>
  <time>2026-09-01T19:54:47Z</time>
  <course>11.76</course>
  <speed>0.01</speed>
  <fix>3d</fix>
</trkpt>
<trkpt lat="-27.2744471" lon="151.2900621">
  <ele>343.09</ele>
  <time>2026-09-01T19:54:47Z</time>
  <course>0.76</course>
  <speed>0.0</speed>
  <fix>3d</fix>
</trkpt>
<trkpt lat="-27.2744472" lon="151.2900622">
  <ele>343.06</ele>
  <time>2026-09-01T19:54:47Z</time>
  <course>11.76</course>
  <speed>0.0</speed>
  <fix>3d</fix>
</trkpt>
<trkpt lat="-27.2744471" lon="151.2900621">
  <ele>343.09</ele>
  <time>2026-09-01T19:54:47Z</time>
  <course>0.76</course>
  <speed>0.0</speed>
  <fix>3d</fix>
</trkpt>
<trkpt lat="-27.2744472" lon="151.2900622">
  <ele>343.05</ele>
  <time>2026-09-01T19:54:47Z</time>
  <course>11.77</course>
  <speed>0.0</speed>
  <fix>3d</fix>
</trkpt>
<trkpt lat="-27.2744471" lon="151.2900621">
  <ele>343.09</ele>
  <time>2026-09-01T19:54:47Z</time>
  <course>8.7</course>
  <speed>0.0</speed>
  <fix>3d</fix>
</trkpt>
<trkpt lat="-27.2744472" lon="151.2900622">
  <ele>343.06</ele>
  <time>2026-09-01T19:54:47Z</time>
  <course>11.77</course>
  <speed>0.0</speed>
  <fix>3d</fix>
</trkpt>
<trkpt lat="-27.2744471" lon="151.2900621">
  <ele>343.09</ele>
  <time>2026-09-01T19:54:47Z</time>
  <course>8.7</course>
  <speed>0.0</speed>
  <fix>3d</fix>
</trkpt>
<trkpt lat="-27.2744472" lon="151.2900622">
  <ele>343.06</ele>
  <time>2026-09-01T19:54:47Z</time>
  <course>11.78</course>
  <speed>0.01</speed>
  <fix>3d</fix>
</trkpt>
<trkpt lat="-27.2744471" lon="151.2900621">
  <ele>343.09</ele>
  <time>2026-09-01T19:54:47Z</time>
  <course>8.5</course>
  <speed>0.01</speed>
  <fix>3d</fix>
</trkpt>
<trkpt lat="-27.2744472" lon="151.2900622">
  <ele>343.06</ele>
  <time>2026-09-01T19:54:47Z</time>
  <course>11.78</course>
  <speed>0.01</speed>
  <fix>3d</fix>
</trkpt>
<trkpt lat="-27.2744471" lon="151.2900621">
  <ele>343.09</ele>
  <time>2026-09-01T19:54:47Z</time>
  <course>8.5</course>
  <speed>0.01</speed>
  <fix>3d</fix>
</trkpt>
<trkpt lat="-27.2744472" lon="151.2900622">
  <ele>343.06</ele>
  <time>2026-09-01T19:54:47Z</time>
  <course>11.79</course>
  <speed>0.01</speed>
  <fix>3d</fix>
</trkpt>
<trkpt lat="-27.2744471" lon="151.2900621">
  <ele>343.09</ele>
  <time>2026-09-01T19:54:47Z</time>
  <course>8.75</course>
  <speed>0.0</speed>
  <fix>3d</fix>
</trkpt>
<trkpt lat="-27.2744472" lon="151.2900622">
  <ele>343.06</ele>
  <time>2026-09-01T19:54:47Z</time>
  <course>11.79</course>
  <speed>0.01</speed>
  <fix>3d</fix>
</trkpt>
<trkpt lat="-27.2744471" lon="151.2900621">
  <ele>343.09</ele>
  <time>2026-09-01T19:54:47Z</time>
  <course>8.75</course>
  <speed>0.0</speed>
  <fix>3d</fix>
</trkpt>
<trkpt lat="-27.2744472" lon="151.2900622">
  <ele>343.06</ele>
  <time>2026-09-01T19:54:47Z</time>
  <course>11.8</course>
  <speed>0.01</speed>
  <fix>3d</fix>
</trkpt>
<trkpt lat="-27.2744471" lon="151.2900621">
  <ele>343.09</ele>
  <time>2026-09-01T19:54:47Z</time>
  <course>186.76</course>
  <speed>0.0</speed>
  <fix>3d</fix>
</trkpt>
<trkpt lat="-27.2744472" lon="151.2900622">
  <ele>343.06</ele>
  <time>2026-09-01T19:54:47Z</time>
  <course>11.8</course>
  <speed>0.01</speed>
  <fix>3d</fix>
</trkpt>
<trkpt lat="-27.2744471" lon="151.2900621">
  <ele>343.09</ele>
  <time>2026-09-01T19:54:47Z</time>
  <course>186.76</course>
  <speed>0.0</speed>
  <fix>3d</fix>
</trkpt>
<trkpt lat="-27.2744472" lon="151.2900622">
  <ele>343.07</ele>
  <time>2026-09-01T19:54:47Z</time>
  <course>11.8</course>
  <speed>0.01</speed>
  <fix>3d</fix>
</trkpt>
<trkpt lat="-27.2744471" lon="151.2900621">
  <ele>343.09</ele>
  <time>2026-09-01T19:54:47Z</time>
  <course>16.41</course>
  <speed>0.0</speed>
  <fix>3d</fix>
</trkpt>
<trkpt lat="-27.2744472" lon="151.2900622">
  <ele>343.07</ele>
  <time>2026-09-01T19:54:47Z</time>
  <course>11.81</course>
  <speed>0.01</speed>
  <fix>3d</fix>
</trkpt>
<trkpt lat="-27.2744471" lon="151.2900621">
  <ele>343.09</ele>
  <time>2026-09-01T19:54:47Z</time>
  <course>16.41</course>
  <speed>0.0</speed>
  <fix>3d</fix>
</trkpt>
<trkpt lat="-27.2744472" lon="151.2900622">
  <ele>343.07</ele>
  <time>2026-09-01T19:54:47Z</time>
  <course>11.81</course>
  <speed>0.01</speed>
  <fix>3d</fix>
</trkpt>
<trkpt lat="-27.2744471" lon="151.2900621">
  <ele>343.09</ele>
  <time>2026-09-01T19:54:47Z</time>
  <course>354.42</course>
  <speed>0.0</speed>
  <fix>3d</fix>
</trkpt>
<trkpt lat="-27.2744472" lon="151.2900622">
  <ele>343.07</ele>
  <time>2026-09-01T19:54:47Z</time>
  <course>11.82</course>
  <speed>0.01</speed>
  <fix>3d</fix>
</trkpt>
<trkpt lat="-27.2744471" lon="151.2900621">
  <ele>343.09</ele>
  <time>2026-09-01T19:54:47Z</time>
  <course>354.42</course>
  <speed>0.0</speed>
  <fix>3d</fix>
</trkpt>
<trkpt lat="-27.2744472" lon="151.2900622">
  <ele>343.07</ele>
  <time>2026-09-01T19:54:47Z</time>
  <course>11.82</course>
  <speed>0.01</speed>
  <fix>3d</fix>
</trkpt>
<trkpt lat="-27.2744471" lon="151.2900621">
  <ele>343.09</ele>
  <time>2026-09-01T19:54:47Z</time>
  <course>5.55</course>
  <speed>0.0</speed>
  <fix>3d</fix>
</trkpt>
<trkpt lat="-27.2744472" lon="151.2900622">
  <ele>343.07</ele>
  <time>2026-09-01T19:54:47Z</time>
  <course>11.82</course>
  <speed>0.01</speed>
  <fix>3d</fix>
</trkpt>
<trkpt lat="-27.2744471" lon="151.2900621">
  <ele>343.09</ele>
  <time>2026-09-01T19:54:47Z</time>
  <course>5.55</course>
  <speed>0.0</speed>
  <fix>3d</fix>
</trkpt>
<trkpt lat="-27.2744472" lon="151.2900622">
  <ele>343.06</ele>
  <time>2026-09-01T19:54:47Z</time>
  <course>11.83</course>
  <speed>0.01</speed>
  <fix>3d</fix>
</trkpt>
<trkpt lat="-27.2744471" lon="151.2900621">
  <ele>343.09</ele>
  <time>2026-09-01T19:54:47Z</time>
  <course>25.47</course>
  <speed>0.0</speed>
  <fix>3d</fix>
</trkpt>
<trkpt lat="-27.2744472" lon="151.2900622">
  <ele>343.06</ele>
  <time>2026-09-01T19:54:47Z</time>
  <course>11.83</course>
  <speed>0.01</speed>
  <fix>3d</fix>
</trkpt>
<trkpt lat="-27.2744471" lon="151.2900621">
  <ele>343.09</ele>
  <time>2026-09-01T19:54:47Z</time>
  <course>25.47</course>
  <speed>0.0</speed>
  <fix>3d</fix>
</trkpt>
<trkpt lat="-27.2744472" lon="151.2900622">
  <ele>343.06</ele>
  <time>2026-09-01T19:54:47Z</time>
  <course>11.83</course>
  <speed>0.01</speed>
  <fix>3d</fix>
</trkpt>
<trkpt lat="-27.2744471" lon="151.2900621">
  <ele>343.09</ele>
  <time>2026-09-01T19:54:47Z</time>
  <course>14.63</course>
  <speed>0.0</speed>
  <fix>3d</fix>
</trkpt>
<trkpt lat="-27.2744472" lon="151.2900622">
  <ele>343.06</ele>
  <time>2026-09-01T19:54:47Z</time>
  <course>11.84</course>
  <speed>0.01</speed>
  <fix>3d</fix>
</trkpt>
<trkpt lat="-27.2744471" lon="151.2900621">
  <ele>343.09</ele>
  <time>2026-09-01T19:54:47Z</time>
  <course>14.63</course>
  <speed>0.0</speed>
  <fix>3d</fix>
</trkpt>
<trkpt lat="-27.2744472" lon="151.2900622">
  <ele>343.05</ele>
  <time>2026-09-01T19:54:47Z</time>
  <course>11.84</course>
  <speed>0.01</speed>
  <fix>3d</fix>
</trkpt>
<trkpt lat="-27.2744471" lon="151.2900621">
  <ele>343.09</ele>
  <time>2026-09-01T19:54:47Z</time>
  <course>25.55</course>
  <speed>0.0</speed>
  <fix>3d</fix>
</trkpt>
<trkpt lat="-27.2744472" lon="151.2900622">
  <ele>343.05</ele>
  <time>2026-09-01T19:54:47Z</time>
  <course>11.84</course>
  <speed>0.01</speed>
  <fix>3d</fix>
</trkpt>
<trkpt lat="-27.2744471" lon="151.2900621">
  <ele>343.09</ele>
  <time>2026-09-01T19:54:47Z</time>
  <course>25.55</course>
  <speed>0.0</speed>
  <fix>3d</fix>
</trkpt>
<trkpt lat="-27.2744472" lon="151.2900622">
  <ele>343.05</ele>
  <time>2026-09-01T19:54:47Z</time>
  <course>11.85</course>
  <speed>0.01</speed>
  <fix>3d</fix>
</trkpt>
<trkpt lat="-27.2744471" lon="151.2900621">
  <ele>343.09</ele>
  <time>2026-09-01T19:54:47Z</time>
  <course>355.85</course>
  <speed>0.0</speed>
  <fix>3d</fix>
</trkpt>
<trkpt lat="-27.2744472" lon="151.2900622">
  <ele>343.05</ele>
  <time>2026-09-01T19:54:47Z</time>
  <course>11.85</course>
  <speed>0.01</speed>
  <fix>3d</fix>
</trkpt>
<trkpt lat="-27.2744471" lon="151.2900621">
  <ele>343.09</ele>
  <time>2026-09-01T19:54:47Z</time>
  <course>355.85</course>
  <speed>0.0</speed>
  <fix>3d</fix>
</trkpt>
<trkpt lat="-27.2744472" lon="151.2900622">
  <ele>343.05</ele>
  <time>2026-09-01T19:54:47Z</time>
  <course>11.85</course>
  <speed>0.01</speed>
  <fix>3d</fix>
</trkpt>
<trkpt lat="-27.2744471" lon="151.2900621">
  <ele>343.09</ele>
  <time>2026-09-01T19:54:47Z</time>
  <course>332.67</course>
  <speed>0.0</speed>
  <fix>3d</fix>
</trkpt>
<trkpt lat="-27.2744472" lon="151.2900622">
  <ele>343.04</ele>
  <time>2026-09-01T19:54:47Z</time>
  <course>11.86</course>
  <speed>0.01414213562373095</speed>
  <fix>3d</fix>
</trkpt>
<trkpt lat="-27.2744471" lon="151.2900621">
  <ele>343.09</ele>
  <time>2026-09-01T19:54:47Z</time>
  <course>332.67</course>
  <speed>0.0</speed>
  <fix>3d</fix>
</trkpt>
<trkpt lat="-27.2744472" lon="151.2900622">
  <ele>343.04</ele>
  <time>2026-09-01T19:54:47Z</time>
  <course>11.86</course>
  <speed>0.01414213562373095</speed>
  <fix>3d</fix>
</trkpt>
<trkpt lat="-27.2744471" lon="151.2900621">
  <ele>343.09</ele>
  <time>2026-09-01T19:54:47Z</time>
  <course>7.9</course>
  <speed>0.0</speed>
  <fix>3d</fix>
</trkpt>
<trkpt lat="-27.2744472" lon="151.2900622">
  <ele>343.04</ele>
  <time>2026-09-01T19:54:47Z</time>
  <course>11.86</course>
  <speed>0.01414213562373095</speed>
  <fix>3d</fix>
</trkpt>
<trkpt lat="-27.2744471" lon="151.2900621">
  <ele>343.09</ele>
  <time>2026-09-01T19:54:47Z</time>
  <course>7.9</course>
  <speed>0.0</speed>
  <fix>3d</fix>
</trkpt>
<trkpt lat="-27.2744472" lon="151.2900622">
  <ele>343.04</ele>
  <time>2026-09-01T19:54:47Z</time>
  <course>11.87</course>
  <speed>0.01414213562373095</speed>
  <fix>3d</fix>
</trkpt>
<trkpt lat="-27.2744471" lon="151.2900621">
  <ele>343.09</ele>
  <time>2026-09-01T19:54:47Z</time>
  <course>24.9</course>
  <speed>0.0</speed>
  <fix>3d</fix>
</trkpt>
<trkpt lat="-27.2744472" lon="151.2900622">
  <ele>343.04</ele>
  <time>2026-09-01T19:54:47Z</time>
  <course>11.87</course>
  <speed>0.01414213562373095</speed>
  <fix>3d</fix>
</trkpt>
<trkpt lat="-27.2744471" lon="151.2900621">
  <ele>343.09</ele>
  <time>2026-09-01T19:54:47Z</time>
  <course>24.9</course>
  <speed>0.0</speed>
  <fix>3d</fix>
</trkpt>
<trkpt lat="-27.2744472" lon="151.2900622">
  <ele>343.04</ele>
  <time>2026-09-01T19:54:47Z</time>
  <course>11.87</course>
  <speed>0.01414213562373095</speed>
  <fix>3d</fix>
</trkpt>
<trkpt lat="-27.2744471" lon="151.2900621">
  <ele>343.09</ele>
  <time>2026-09-01T19:54:47Z</time>
  <course>19.98</course>
  <speed>0.0</speed>
  <fix>3d</fix>
</trkpt>
<trkpt lat="-27.2744472" lon="151.2900622">
  <ele>343.04</ele>
  <time>2026-09-01T19:54:47Z</time>
  <course>11.87</course>
  <speed>0.01414213562373095</speed>
  <fix>3d</fix>
</trkpt>
<trkpt lat="-27.2744471" lon="151.2900621">
  <ele>343.09</ele>
  <time>2026-09-01T19:54:47Z</time>
  <course>19.98</course>
  <speed>0.0</speed>
  <fix>3d</fix>
</trkpt>
<trkpt lat="-27.2744472" lon="151.2900622">
  <ele>343.04</ele>
  <time>2026-09-01T19:54:47Z</time>
  <course>11.88</course>
  <speed>0.03</speed>
  <fix>3d</fix>
</trkpt>
<trkpt lat="-27.2744471" lon="151.2900621">
  <ele>343.09</ele>
  <time>2026-09-01T19:54:47Z</time>
  <course>20.25</course>
  <speed>0.0</speed>
  <fix>3d</fix>
</trkpt>
<trkpt lat="-27.2744472" lon="151.2900622">
  <ele>343.03</ele>
  <time>2026-09-01T19:54:47Z</time>
  <course>11.88</course>
  <speed>0.0316227766016838</speed>
  <fix>3d</fix>
</trkpt>
<trkpt lat="-27.2744471" lon="151.2900621">
  <ele>343.09</ele>
  <time>2026-09-01T19:54:47Z</time>
  <course>20.25</course>
  <speed>0.0</speed>
  <fix>3d</fix>
</trkpt>
<trkpt lat="-27.2744472" lon="151.2900622">
  <ele>343.03</ele>
  <time>2026-09-01T19:54:47Z</time>
  <course>11.88</course>
  <speed>0.022360679774997897</speed>
  <fix>3d</fix>
</trkpt>
<trkpt lat="-27.2744471" lon="151.2900621">
  <ele>343.09</ele>
  <time>2026-09-01T19:54:47Z</time>
  <course>189.21</course>
  <speed>0.0</speed>
  <fix>3d</fix>
</trkpt>
<trkpt lat="-27.2744472" lon="151.2900622">
  <ele>343.03</ele>
  <time>2026-09-01T19:54:47Z</time>
  <course>11.89</course>
  <speed>0.01414213562373095</speed>
  <fix>3d</fix>
</trkpt>
<trkpt lat="-27.2744471" lon="151.2900621">
  <ele>343.09</ele>
  <time>2026-09-01T19:54:47Z</time>
  <course>189.21</course>
  <speed>0.0</speed>
  <fix>3d</fix>
</trkpt>
<trkpt lat="-27.2744472" lon="151.2900622">
  <ele>343.03</ele>
  <time>2026-09-01T19:54:47Z</time>
  <course>11.89</course>
  <speed>0.01414213562373095</speed>
  <fix>3d</fix>
</trkpt>
<trkpt lat="-27.2744471" lon="151.2900621">
  <ele>343.09</ele>
  <time>2026-09-01T19:54:47Z</time>
  <course>188.84</course>
  <speed>0.0</speed>
  <fix>3d</fix>
</trkpt>
<trkpt lat="-27.2744472" lon="151.2900622">
  <ele>343.03</ele>
  <time>2026-09-01T19:54:47Z</time>
  <course>11.89</course>
  <speed>0.01414213562373095</speed>
  <fix>3d</fix>
</trkpt>
<trkpt lat="-27.2744471" lon="151.2900621">
  <ele>343.09</ele>
  <time>2026-09-01T19:54:47Z</time>
  <course>188.84</course>
  <speed>0.0</speed>
  <fix>3d</fix>
</trkpt>
<trkpt lat="-27.2744472" lon="151.2900622">
  <ele>343.03</ele>
  <time>2026-09-01T19:54:47Z</time>
  <course>11.89</course>
  <speed>0.022360679774997897</speed>
  <fix>3d</fix>
</trkpt>
<trkpt lat="-27.2744471" lon="151.2900621">
  <ele>343.09</ele>
  <time>2026-09-01T19:54:47Z</time>
  <course>9.67</course>
  <speed>0.0</speed>
  <fix>3d</fix>
</trkpt>
<trkpt lat="-27.2744472" lon="151.2900622">
  <ele>343.03</ele>
  <time>2026-09-01T19:54:47Z</time>
  <course>11.9</course>
  <speed>0.022360679774997897</speed>
  <fix>3d</fix>
</trkpt>
<trkpt lat="-27.2744471" lon="151.2900621">
  <ele>343.09</ele>
  <time>2026-09-01T19:54:47Z</time>
  <course>9.67</course>
  <speed>0.0</speed>
  <fix>3d</fix>
</trkpt>
<trkpt lat="-27.2744472" lon="151.2900622">
  <ele>343.03</ele>
  <time>2026-09-01T19:54:47Z</time>
  <course>11.9</course>
  <speed>0.022360679774997897</speed>
  <fix>3d</fix>
</trkpt>
<trkpt lat="-27.2744471" lon="151.2900621">
  <ele>343.09</ele>
  <time>2026-09-01T19:54:47Z</time>
  <course>9.32</course>
  <speed>0.0</speed>
  <fix>3d</fix>
</trkpt>
<trkpt lat="-27.2744472" lon="151.2900622">
  <ele>343.03</ele>
  <time>2026-09-01T19:54:47Z</time>
  <course>11.9</course>
  <speed>0.022360679774997897</speed>
  <fix>3d</fix>
</trkpt>
<trkpt lat="-27.2744471" lon="151.2900621">
  <ele>343.09</ele>
  <time>2026-09-01T19:54:47Z</time>
  <course>9.32</course>
  <speed>0.0</speed>
  <fix>3d</fix>
</trkpt>
<trkpt lat="-27.2744472" lon="151.2900622">
  <ele>343.03</ele>
  <time>2026-09-01T19:54:47Z</time>
  <course>11.9</course>
  <speed>0.022360679774997897</speed>
  <fix>3d</fix>
</trkpt>
<trkpt lat="-27.2744471" lon="151.2900621">
  <ele>343.09</ele>
  <time>2026-09-01T19:54:47Z</time>
  <course>185.06</course>
  <speed>0.0</speed>
  <fix>3d</fix>
</trkpt>
<trkpt lat="-27.2744472" lon="151.2900622">
  <ele>343.03</ele>
  <time>2026-09-01T19:54:47Z</time>
  <course>11.9</course>
  <speed>0.022360679774997897</speed>
  <fix>3d</fix>
</trkpt>
<trkpt lat="-27.2744471" lon="151.2900621">
  <ele>343.09</ele>
  <time>2026-09-01T19:54:47Z</time>
  <course>185.06</course>
  <speed>0.0</speed>
  <fix>3d</fix>
</trkpt>
<trkpt lat="-27.2744472" lon="151.2900622">
  <ele>343.03</ele>
  <time>2026-09-01T19:54:47Z</time>
  <course>11.91</course>
  <speed>0.022360679774997897</speed>
  <fix>3d</fix>
</trkpt>
<trkpt lat="-27.2744471" lon="151.2900621">
  <ele>343.09</ele>
  <time>2026-09-01T19:54:47Z</time>
  <course>309.1</course>
  <speed>0.0</speed>
  <fix>3d</fix>
</trkpt>
<trkpt lat="-27.2744472" lon="151.2900622">
  <ele>343.03</ele>
  <time>2026-09-01T19:54:47Z</time>
  <course>11.91</course>
  <speed>0.022360679774997897</speed>
  <fix>3d</fix>
</trkpt>
<trkpt lat="-27.2744471" lon="151.2900621">
  <ele>343.09</ele>
  <time>2026-09-01T19:54:47Z</time>
  <course>309.1</course>
  <speed>0.0</speed>
  <fix>3d</fix>
</trkpt>
<trkpt lat="-27.2744472" lon="151.2900622">
  <ele>343.03</ele>
  <time>2026-09-01T19:54:47Z</time>
  <course>11.91</course>
  <speed>0.022360679774997897</speed>
  <fix>3d</fix>
</trkpt>
<trkpt lat="-27.2744471" lon="151.2900621">
  <ele>343.09</ele>
  <time>2026-09-01T19:54:47Z</time>
  <course>358.3</course>
  <speed>0.0</speed>
  <fix>3d</fix>
</trkpt>
<trkpt lat="-27.2744472" lon="151.2900622">
  <ele>343.03</ele>
  <time>2026-09-01T19:54:47Z</time>
  <course>11.91</course>
  <speed>0.022360679774997897</speed>
  <fix>3d</fix>
</trkpt>
<trkpt lat="-27.2744471" lon="151.2900621">
  <ele>343.09</ele>
  <time>2026-09-01T19:54:47Z</time>
  <course>358.3</course>
  <speed>0.0</speed>
  <fix>3d</fix>
</trkpt>
<trkpt lat="-27.2744472" lon="151.2900622">
  <ele>343.03</ele>
  <time>2026-09-01T19:54:47Z</time>
  <course>11.92</course>
  <speed>0.022360679774997897</speed>
  <fix>3d</fix>
</trkpt>
<trkpt lat="-27.2744471" lon="151.2900621">
  <ele>343.09</ele>
  <time>2026-09-01T19:54:47Z</time>
  <course>19.75</course>
  <speed>0.0</speed>
  <fix>3d</fix>
</trkpt>
<trkpt lat="-27.2744472" lon="151.2900622">
  <ele>343.03</ele>
  <time>2026-09-01T19:54:47Z</time>
  <course>11.92</course>
  <speed>0.022360679774997897</speed>
  <fix>3d</fix>
</trkpt>
<trkpt lat="-27.2744471" lon="151.2900621">
  <ele>343.09</ele>
  <time>2026-09-01T19:54:47Z</time>
  <course>19.75</course>
  <speed>0.0</speed>
  <fix>3d</fix>
</trkpt>
<trkpt lat="-27.2744472" lon="151.2900622">
  <ele>343.03</ele>
  <time>2026-09-01T19:54:47Z</time>
  <course>11.92</course>
  <speed>0.022360679774997897</speed>
  <fix>3d</fix>
</trkpt>
<trkpt lat="-27.2744471" lon="151.2900621">
  <ele>343.09</ele>
  <time>2026-09-01T19:54:47Z</time>
  <course>7.55</course>
  <speed>0.0</speed>
  <fix>3d</fix>
</trkpt>
<trkpt lat="-27.2744472" lon="151.2900622">
  <ele>343.03</ele>
  <time>2026-09-01T19:54:47Z</time>
  <course>11.92</course>
  <speed>0.022360679774997897</speed>
  <fix>3d</fix>
</trkpt>
<trkpt lat="-27.2744471" lon="151.2900621">
  <ele>343.09</ele>
  <time>2026-09-01T19:54:47Z</time>
  <course>7.55</course>
  <speed>0.0</speed>
  <fix>3d</fix>
</trkpt>
<trkpt lat="-27.2744472" lon="151.2900622">
  <ele>343.03</ele>
  <time>2026-09-01T19:54:47Z</time>
  <course>11.92</course>
  <speed>0.022360679774997897</speed>
  <fix>3d</fix>
</trkpt>
<trkpt lat="-27.2744471" lon="151.2900621">
  <ele>343.09</ele>
  <time>2026-09-01T19:54:47Z</time>
  <course>2.11</course>
  <speed>0.0</speed>
  <fix>3d</fix>
</trkpt>
<trkpt lat="-27.2744472" lon="151.2900622">
  <ele>343.03</ele>
  <time>2026-09-01T19:54:47Z</time>
  <course>11.93</course>
  <speed>0.022360679774997897</speed>
  <fix>3d</fix>
</trkpt>
<trkpt lat="-27.2744471" lon="151.2900621">
  <ele>343.09</ele>
  <time>2026-09-01T19:54:47Z</time>
  <course>2.11</course>
  <speed>0.0</speed>
  <fix>3d</fix>
</trkpt>
<trkpt lat="-27.2744472" lon="151.2900622">
  <ele>343.03</ele>
  <time>2026-09-01T19:54:47Z</time>
  <course>11.93</course>
  <speed>0.022360679774997897</speed>
  <fix>3d</fix>
</trkpt>
<trkpt lat="-27.2744471" lon="151.2900621">
  <ele>343.09</ele>
  <time>2026-09-01T19:54:47Z</time>
  <course>11.22</course>
  <speed>0.0</speed>
  <fix>3d</fix>
</trkpt>
<trkpt lat="-27.2744473" lon="151.2900622">
  <ele>343.03</ele>
  <time>2026-09-01T19:54:47Z</time>
  <course>11.93</course>
  <speed>0.022360679774997897</speed>
  <fix>3d</fix>
</trkpt>
<trkpt lat="-27.2744471" lon="151.2900621">
  <ele>343.09</ele>
  <time>2026-09-01T19:54:47Z</time>
  <course>11.22</course>
  <speed>0.0</speed>
  <fix>3d</fix>
</trkpt>
<trkpt lat="-27.2744473" lon="151.2900622">
  <ele>343.03</ele>
  <time>2026-09-01T19:54:47Z</time>
  <course>11.93</course>
  <speed>0.022360679774997897</speed>
  <fix>3d</fix>
</trkpt>
<trkpt lat="-27.2744471" lon="151.2900621">
  <ele>343.09</ele>
  <time>2026-09-01T19:54:47Z</time>
  <course>19.39</course>
  <speed>0.0</speed>
  <fix>3d</fix>
</trkpt>
<trkpt lat="-27.2744473" lon="151.2900622">
  <ele>343.03</ele>
  <time>2026-09-01T19:54:47Z</time>
  <course>11.93</course>
  <speed>0.022360679774997897</speed>
  <fix>3d</fix>
</trkpt>
<trkpt lat="-27.2744471" lon="151.2900621">
  <ele>343.09</ele>
  <time>2026-09-01T19:54:47Z</time>
  <course>19.39</course>
  <speed>0.0</speed>
  <fix>3d</fix>
</trkpt>
<trkpt lat="-27.2744473" lon="151.2900622">
  <ele>343.03</ele>
  <time>2026-09-01T19:54:47Z</time>
  <course>11.94</course>
  <speed>0.022360679774997897</speed>
  <fix>3d</fix>
</trkpt>
<trkpt lat="-27.2744471" lon="151.2900621">
  <ele>343.09</ele>
  <time>2026-09-01T19:54:47Z</time>
  <course>25.54</course>
  <speed>0.0</speed>
  <fix>3d</fix>
</trkpt>
<trkpt lat="-27.2744473" lon="151.2900622">
  <ele>343.03</ele>
  <time>2026-09-01T19:54:47Z</time>
  <course>11.94</course>
  <speed>0.022360679774997897</speed>
  <fix>3d</fix>
</trkpt>
<trkpt lat="-27.2744471" lon="151.2900621">
  <ele>343.09</ele>
  <time>2026-09-01T19:54:47Z</time>
  <course>25.54</course>
  <speed>0.0</speed>
  <fix>3d</fix>
</trkpt>
<trkpt lat="-27.2744473" lon="151.2900622">
  <ele>343.04</ele>
  <time>2026-09-01T19:54:47Z</time>
  <course>11.94</course>
  <speed>0.022360679774997897</speed>
  <fix>3d</fix>
</trkpt>
<trkpt lat="-27.2744471" lon="151.2900621">
  <ele>343.09</ele>
  <time>2026-09-01T19:54:47Z</time>
  <course>6.23</course>
  <speed>0.0</speed>
  <fix>3d</fix>
</trkpt>
<trkpt lat="-27.2744473" lon="151.2900622">
  <ele>343.04</ele>
  <time>2026-09-01T19:54:47Z</time>
  <course>11.94</course>
  <speed>0.022360679774997897</speed>
  <fix>3d</fix>
</trkpt>
<trkpt lat="-27.2744471" lon="151.2900621">
  <ele>343.09</ele>
  <time>2026-09-01T19:54:47Z</time>
  <course>6.23</course>
  <speed>0.0</speed>
  <fix>3d</fix>
</trkpt>
<trkpt lat="-27.2744473" lon="151.2900622">
  <ele>343.04</ele>
  <time>2026-09-01T19:54:47Z</time>
  <course>11.94</course>
  <speed>0.0282842712474619</speed>
  <fix>3d</fix>
</trkpt>
<trkpt lat="-27.2744471" lon="151.2900621">
  <ele>343.09</ele>
  <time>2026-09-01T19:54:47Z</time>
  <course>7.48</course>
  <speed>0.0</speed>
  <fix>3d</fix>
</trkpt>
<trkpt lat="-27.2744473" lon="151.2900622">
  <ele>343.04</ele>
  <time>2026-09-01T19:54:47Z</time>
  <course>11.95</course>
  <speed>0.0282842712474619</speed>
  <fix>3d</fix>
</trkpt>
<trkpt lat="-27.2744471" lon="151.2900621">
  <ele>343.09</ele>
  <time>2026-09-01T19:54:47Z</time>
  <course>7.48</course>
  <speed>0.0</speed>
  <fix>3d</fix>
</trkpt>
<trkpt lat="-27.2744473" lon="151.2900622">
  <ele>343.05</ele>
  <time>2026-09-01T19:54:47Z</time>
  <course>11.95</course>
  <speed>0.0282842712474619</speed>
  <fix>3d</fix>
</trkpt>
<trkpt lat="-27.2744471" lon="151.2900621">
  <ele>343.09</ele>
  <time>2026-09-01T19:54:47Z</time>
  <course>30.09</course>
  <speed>0.0</speed>
  <fix>3d</fix>
</trkpt>
<trkpt lat="-27.2744473" lon="151.2900622">
  <ele>343.05</ele>
  <time>2026-09-01T19:54:47Z</time>
  <course>11.95</course>
  <speed>0.0282842712474619</speed>
  <fix>3d</fix>
</trkpt>
<trkpt lat="-27.2744471" lon="151.2900621">
  <ele>343.09</ele>
  <time>2026-09-01T19:54:47Z</time>
  <course>30.09</course>
  <speed>0.0</speed>
  <fix>3d</fix>
</trkpt>
<trkpt lat="-27.2744473" lon="151.2900622">
  <ele>343.04</ele>
  <time>2026-09-01T19:54:47Z</time>
  <course>11.95</course>
  <speed>0.0282842712474619</speed>
  <fix>3d</fix>
</trkpt>
<trkpt lat="-27.2744471" lon="151.2900621">
  <ele>343.09</ele>
  <time>2026-09-01T19:54:47Z</time>
  <course>30.79</course>
  <speed>0.0</speed>
  <fix>3d</fix>
</trkpt>
<trkpt lat="-27.2744473" lon="151.2900622">
  <ele>343.04</ele>
  <time>2026-09-01T19:54:47Z</time>
  <course>11.95</course>
  <speed>0.03605551275463989</speed>
  <fix>3d</fix>
</trkpt>
<trkpt lat="-27.2744471" lon="151.2900621">
  <ele>343.09</ele>
  <time>2026-09-01T19:54:47Z</time>
  <course>30.79</course>
  <speed>0.0</speed>
  <fix>3d</fix>
</trkpt>
<trkpt lat="-27.2744473" lon="151.2900622">
  <ele>343.04</ele>
  <time>2026-09-01T19:54:47Z</time>
  <course>11.96</course>
  <speed>0.03605551275463989</speed>
  <fix>3d</fix>
</trkpt>
<trkpt lat="-27.2744471" lon="151.2900621">
  <ele>343.09</ele>
  <time>2026-09-01T19:54:47Z</time>
  <course>4.19</course>
  <speed>0.0</speed>
  <fix>3d</fix>
</trkpt>
<trkpt lat="-27.2744473" lon="151.2900622">
  <ele>343.04</ele>
  <time>2026-09-01T19:54:47Z</time>
  <course>11.96</course>
  <speed>0.03605551275463989</speed>
  <fix>3d</fix>
</trkpt>
<trkpt lat="-27.2744471" lon="151.2900621">
  <ele>343.09</ele>
  <time>2026-09-01T19:54:47Z</time>
  <course>4.19</course>
  <speed>0.0</speed>
  <fix>3d</fix>
</trkpt>
<trkpt lat="-27.2744473" lon="151.2900622">
  <ele>343.04</ele>
  <time>2026-09-01T19:54:47Z</time>
  <course>11.96</course>
  <speed>0.03605551275463989</speed>
  <fix>3d</fix>
</trkpt>
<trkpt lat="-27.2744471" lon="151.2900621">
  <ele>343.09</ele>
  <time>2026-09-01T19:54:47Z</time>
  <course>6.68</course>
  <speed>0.0</speed>
  <fix>3d</fix>
</trkpt>
<trkpt lat="-27.2744473" lon="151.2900622">
  <ele>343.04</ele>
  <time>2026-09-01T19:54:47Z</time>
  <course>11.96</course>
  <speed>0.03605551275463989</speed>
  <fix>3d</fix>
</trkpt>
<trkpt lat="-27.2744471" lon="151.2900621">
  <ele>343.09</ele>
  <time>2026-09-01T19:54:47Z</time>
  <course>6.68</course>
  <speed>0.0</speed>
  <fix>3d</fix>
</trkpt>
<trkpt lat="-27.2744473" lon="151.2900622">
  <ele>343.04</ele>
  <time>2026-09-01T19:54:47Z</time>
  <course>11.96</course>
  <speed>0.03605551275463989</speed>
  <fix>3d</fix>
</trkpt>
<trkpt lat="-27.2744471" lon="151.2900621">
  <ele>343.09</ele>
  <time>2026-09-01T19:54:47Z</time>
  <course>22.56</course>
  <speed>0.0</speed>
  <fix>3d</fix>
</trkpt>
<trkpt lat="-27.2744473" lon="151.2900622">
  <ele>343.04</ele>
  <time>2026-09-01T19:54:47Z</time>
  <course>11.97</course>
  <speed>0.03605551275463989</speed>
  <fix>3d</fix>
</trkpt>
<trkpt lat="-27.2744471" lon="151.2900621">
  <ele>343.09</ele>
  <time>2026-09-01T19:54:47Z</time>
  <course>22.56</course>
  <speed>0.0</speed>
  <fix>3d</fix>
</trkpt>
<trkpt lat="-27.2744473" lon="151.2900622">
  <ele>343.05</ele>
  <time>2026-09-01T19:54:47Z</time>
  <course>11.97</course>
  <speed>0.03605551275463989</speed>
  <fix>3d</fix>
</trkpt>
<trkpt lat="-27.2744471" lon="151.2900621">
  <ele>343.09</ele>
  <time>2026-09-01T19:54:47Z</time>
  <course>22.76</course>
  <speed>0.0</speed>
  <fix>3d</fix>
</trkpt>
<trkpt lat="-27.2744473" lon="151.2900622">
  <ele>343.05</ele>
  <time>2026-09-01T19:54:47Z</time>
  <course>11.97</course>
  <speed>0.03605551275463989</speed>
  <fix>3d</fix>
</trkpt>
<trkpt lat="-27.2744471" lon="151.2900621">
  <ele>343.09</ele>
  <time>2026-09-01T19:54:47Z</time>
  <course>22.76</course>
  <speed>0.0</speed>
  <fix>3d</fix>
</trkpt>
<trkpt lat="-27.2744473" lon="151.2900622">
  <ele>343.05</ele>
  <time>2026-09-01T19:54:47Z</time>
  <course>11.97</course>
  <speed>0.03605551275463989</speed>
  <fix>3d</fix>
</trkpt>
<trkpt lat="-27.2744471" lon="151.2900621">
  <ele>343.09</ele>
  <time>2026-09-01T19:54:47Z</time>
  <course>2.01</course>
  <speed>0.0</speed>
  <fix>3d</fix>
</trkpt>
<trkpt lat="-27.2744473" lon="151.2900622">
  <ele>343.05</ele>
  <time>2026-09-01T19:54:47Z</time>
  <course>11.97</course>
  <speed>0.03605551275463989</speed>
  <fix>3d</fix>
</trkpt>
<trkpt lat="-27.2744471" lon="151.2900621">
  <ele>343.09</ele>
  <time>2026-09-01T19:54:47Z</time>
  <course>2.01</course>
  <speed>0.0</speed>
  <fix>3d</fix>
</trkpt>
<trkpt lat="-27.2744473" lon="151.2900622">
  <ele>343.05</ele>
  <time>2026-09-01T19:54:47Z</time>
  <course>11.98</course>
  <speed>0.03605551275463989</speed>
  <fix>3d</fix>
</trkpt>
<trkpt lat="-27.2744471" lon="151.2900621">
  <ele>343.09</ele>
  <time>2026-09-01T19:54:47Z</time>
  <course>341.58</course>
  <speed>0.0</speed>
  <fix>3d</fix>
</trkpt>
<trkpt lat="-27.2744473" lon="151.2900622">
  <ele>343.05</ele>
  <time>2026-09-01T19:54:47Z</time>
  <course>11.98</course>
  <speed>0.03605551275463989</speed>
  <fix>3d</fix>
</trkpt>
<trkpt lat="-27.2744471" lon="151.2900621">
  <ele>343.09</ele>
  <time>2026-09-01T19:54:47Z</time>
  <course>341.58</course>
  <speed>0.0</speed>
  <fix>3d</fix>
</trkpt>
<trkpt lat="-27.2744473" lon="151.2900622">
  <ele>343.05</ele>
  <time>2026-09-01T19:54:47Z</time>
  <course>11.98</course>
  <speed>0.03605551275463989</speed>
  <fix>3d</fix>
</trkpt>
<trkpt lat="-27.2744471" lon="151.2900621">
  <ele>343.09</ele>
  <time>2026-09-01T19:54:47Z</time>
  <course>358.66</course>
  <speed>0.0</speed>
  <fix>3d</fix>
</trkpt>
<trkpt lat="-27.2744473" lon="151.2900623">
  <ele>343.05</ele>
  <time>2026-09-01T19:54:47Z</time>
  <course>11.98</course>
  <speed>0.03605551275463989</speed>
  <fix>3d</fix>
</trkpt>
<trkpt lat="-27.2744471" lon="151.2900621">
  <ele>343.09</ele>
  <time>2026-09-01T19:54:47Z</time>
  <course>358.66</course>
  <speed>0.0</speed>
  <fix>3d</fix>
</trkpt>
<trkpt lat="-27.2744473" lon="151.2900622">
  <ele>343.05</ele>
  <time>2026-09-01T19:54:47Z</time>
  <course>11.98</course>
  <speed>0.03605551275463989</speed>
  <fix>3d</fix>
</trkpt>
<trkpt lat="-27.2744471" lon="151.2900621">
  <ele>343.09</ele>
  <time>2026-09-01T19:54:47Z</time>
  <course>17.27</course>
  <speed>0.0</speed>
  <fix>3d</fix>
</trkpt>
<trkpt lat="-27.2744473" lon="151.2900623">
  <ele>343.05</ele>
  <time>2026-09-01T19:54:47Z</time>
  <course>11.99</course>
  <speed>0.03605551275463989</speed>
  <fix>3d</fix>
</trkpt>
<trkpt lat="-27.2744471" lon="151.2900621">
  <ele>343.09</ele>
  <time>2026-09-01T19:54:47Z</time>
  <course>17.27</course>
  <speed>0.0</speed>
  <fix>3d</fix>
</trkpt>
<trkpt lat="-27.2744473" lon="151.2900623">
  <ele>343.05</ele>
  <time>2026-09-01T19:54:47Z</time>
  <course>11.99</course>
  <speed>0.03605551275463989</speed>
  <fix>3d</fix>
</trkpt>
<trkpt lat="-27.2744471" lon="151.2900621">
  <ele>343.09</ele>
  <time>2026-09-01T19:54:47Z</time>
  <course>3.18</course>
  <speed>0.0</speed>
  <fix>3d</fix>
</trkpt>
<trkpt lat="-27.2744473" lon="151.2900623">
  <ele>343.05</ele>
  <time>2026-09-01T19:54:47Z</time>
  <course>11.99</course>
  <speed>0.03605551275463989</speed>
  <fix>3d</fix>
</trkpt>
<trkpt lat="-27.2744471" lon="151.2900621">
  <ele>343.09</ele>
  <time>2026-09-01T19:54:47Z</time>
  <course>3.18</course>
  <speed>0.0</speed>
  <fix>3d</fix>
</trkpt>
<trkpt lat="-27.2744473" lon="151.2900623">
  <ele>343.05</ele>
  <time>2026-09-01T19:54:47Z</time>
  <course>11.99</course>
  <speed>0.03605551275463989</speed>
  <fix>3d</fix>
</trkpt>
<trkpt lat="-27.2744471" lon="151.2900621">
  <ele>343.09</ele>
  <time>2026-09-01T19:54:47Z</time>
  <course>354.38</course>
  <speed>0.0</speed>
  <fix>3d</fix>
</trkpt>
<trkpt lat="-27.2744473" lon="151.2900623">
  <ele>343.05</ele>
  <time>2026-09-01T19:54:47Z</time>
  <course>11.99</course>
  <speed>0.03605551275463989</speed>
  <fix>3d</fix>
</trkpt>
<trkpt lat="-27.2744471" lon="151.2900621">
  <ele>343.09</ele>
  <time>2026-09-01T19:54:47Z</time>
  <course>354.38</course>
  <speed>0.0</speed>
  <fix>3d</fix>
</trkpt>
<trkpt lat="-27.2744473" lon="151.2900623">
  <ele>343.05</ele>
  <time>2026-09-01T19:54:47Z</time>
  <course>12.0</course>
  <speed>0.03605551275463989</speed>
  <fix>3d</fix>
</trkpt>
<trkpt lat="-27.2744471" lon="151.2900621">
  <ele>343.09</ele>
  <time>2026-09-01T19:54:47Z</time>
  <course>356.97</course>
  <speed>0.0</speed>
  <fix>3d</fix>
</trkpt>
<trkpt lat="-27.2744473" lon="151.2900623">
  <ele>343.05</ele>
  <time>2026-09-01T19:54:47Z</time>
  <course>12.0</course>
  <speed>0.03605551275463989</speed>
  <fix>3d</fix>
</trkpt>
<trkpt lat="-27.2744471" lon="151.2900621">
  <ele>343.09</ele>
  <time>2026-09-01T19:54:47Z</time>
  <course>356.97</course>
  <speed>0.0</speed>
  <fix>3d</fix>
</trkpt>
<trkpt lat="-27.2744473" lon="151.2900623">
  <ele>343.05</ele>
  <time>2026-09-01T19:54:47Z</time>
  <course>12.0</course>
  <speed>0.03605551275463989</speed>
  <fix>3d</fix>
</trkpt>
<trkpt lat="-27.2744471" lon="151.2900621">
  <ele>343.09</ele>
  <time>2026-09-01T19:54:47Z</time>
  <course>27.19</course>
  <speed>0.0</speed>
  <fix>3d</fix>
</trkpt>
<trkpt lat="-27.2744473" lon="151.2900623">
  <ele>343.05</ele>
  <time>2026-09-01T19:54:47Z</time>
  <course>12.0</course>
  <speed>0.03605551275463989</speed>
  <fix>3d</fix>
</trkpt>
<trkpt lat="-27.2744471" lon="151.2900621">
  <ele>343.09</ele>
  <time>2026-09-01T19:54:47Z</time>
  <course>27.19</course>
  <speed>0.0</speed>
  <fix>3d</fix>
</trkpt>
<trkpt lat="-27.2744473" lon="151.2900623">
  <ele>343.06</ele>
  <time>2026-09-01T19:54:47Z</time>
  <course>12.01</course>
  <speed>0.03605551275463989</speed>
  <fix>3d</fix>
</trkpt>
<trkpt lat="-27.2744471" lon="151.2900621">
  <ele>343.09</ele>
  <time>2026-09-01T19:54:47Z</time>
  <course>2.78</course>
  <speed>0.0</speed>
  <fix>3d</fix>
</trkpt>
<trkpt lat="-27.2744473" lon="151.2900623">
  <ele>343.05</ele>
  <time>2026-09-01T19:54:47Z</time>
  <course>12.01</course>
  <speed>0.03605551275463989</speed>
  <fix>3d</fix>
</trkpt>
<trkpt lat="-27.2744471" lon="151.2900621">
  <ele>343.09</ele>
  <time>2026-09-01T19:54:47Z</time>
  <course>2.78</course>
  <speed>0.0</speed>
  <fix>3d</fix>
</trkpt>
<trkpt lat="-27.2744473" lon="151.2900623">
  <ele>343.05</ele>
  <time>2026-09-01T19:54:47Z</time>
  <course>12.01</course>
  <speed>0.03605551275463989</speed>
  <fix>3d</fix>
</trkpt>
<trkpt lat="-27.2744471" lon="151.2900621">
  <ele>343.09</ele>
  <time>2026-09-01T19:54:47Z</time>
  <course>349.13</course>
  <speed>0.0</speed>
  <fix>3d</fix>
</trkpt>
<trkpt lat="-27.2744473" lon="151.2900623">
  <ele>343.05</ele>
  <time>2026-09-01T19:54:47Z</time>
  <course>12.01</course>
  <speed>0.03605551275463989</speed>
  <fix>3d</fix>
</trkpt>
<trkpt lat="-27.2744471" lon="151.2900621">
  <ele>343.09</ele>
  <time>2026-09-01T19:54:47Z</time>
  <course>349.13</course>
  <speed>0.0</speed>
  <fix>3d</fix>
</trkpt>
<trkpt lat="-27.2744473" lon="151.2900622">
  <ele>343.05</ele>
  <time>2026-09-01T19:54:47Z</time>
  <course>12.01</course>
  <speed>0.03605551275463989</speed>
  <fix>3d</fix>
</trkpt>
<trkpt lat="-27.2744471" lon="151.2900621">
  <ele>343.09</ele>
  <time>2026-09-01T19:54:47Z</time>
  <course>24.64</course>
  <speed>0.0</speed>
  <fix>3d</fix>
</trkpt>
<trkpt lat="-27.2744473" lon="151.2900623">
  <ele>343.05</ele>
  <time>2026-09-01T19:54:47Z</time>
  <course>12.02</course>
  <speed>0.03605551275463989</speed>
  <fix>3d</fix>
</trkpt>
<trkpt lat="-27.2744471" lon="151.2900621">
  <ele>343.09</ele>
  <time>2026-09-01T19:54:47Z</time>
  <course>24.64</course>
  <speed>0.0</speed>
  <fix>3d</fix>
</trkpt>
<trkpt lat="-27.2744473" lon="151.2900622">
  <ele>343.05</ele>
  <time>2026-09-01T19:54:47Z</time>
  <course>12.02</course>
  <speed>0.03605551275463989</speed>
  <fix>3d</fix>
</trkpt>
<trkpt lat="-27.2744471" lon="151.2900621">
  <ele>343.09</ele>
  <time>2026-09-01T19:54:47Z</time>
  <course>14.79</course>
  <speed>0.0</speed>
  <fix>3d</fix>
</trkpt>
<trkpt lat="-27.2744473" lon="151.2900623">
  <ele>343.05</ele>
  <time>2026-09-01T19:54:47Z</time>
  <course>12.02</course>
  <speed>0.03605551275463989</speed>
  <fix>3d</fix>
</trkpt>
<trkpt lat="-27.2744471" lon="151.2900621">
  <ele>343.09</ele>
  <time>2026-09-01T19:54:47Z</time>
  <course>14.79</course>
  <speed>0.0</speed>
  <fix>3d</fix>
</trkpt>
<trkpt lat="-27.2744473" lon="151.2900622">
  <ele>343.05</ele>
  <time>2026-09-01T19:54:47Z</time>
  <course>12.02</course>
  <speed>0.03605551275463989</speed>
  <fix>3d</fix>
</trkpt>
<trkpt lat="-27.2744471" lon="151.2900621">
  <ele>343.09</ele>
  <time>2026-09-01T19:54:47Z</time>
  <course>9.9</course>
  <speed>0.0</speed>
  <fix>3d</fix>
</trkpt>
<trkpt lat="-27.2744473" lon="151.2900623">
  <ele>343.05</ele>
  <time>2026-09-01T19:54:47Z</time>
  <course>12.02</course>
  <speed>0.03605551275463989</speed>
  <fix>3d</fix>
</trkpt>
<trkpt lat="-27.2744471" lon="151.2900621">
  <ele>343.09</ele>
  <time>2026-09-01T19:54:47Z</time>
  <course>9.9</course>
  <speed>0.0</speed>
  <fix>3d</fix>
</trkpt>
<trkpt lat="-27.2744473" lon="151.2900622">
  <ele>343.05</ele>
  <time>2026-09-01T19:54:47Z</time>
  <course>12.03</course>
  <speed>0.03605551275463989</speed>
  <fix>3d</fix>
</trkpt>
<trkpt lat="-27.2744471" lon="151.2900621">
  <ele>343.09</ele>
  <time>2026-09-01T19:54:47Z</time>
  <course>6.89</course>
  <speed>0.0</speed>
  <fix>3d</fix>
</trkpt>
<trkpt lat="-27.2744473" lon="151.2900623">
  <ele>343.05</ele>
  <time>2026-09-01T19:54:47Z</time>
  <course>12.03</course>
  <speed>0.03605551275463989</speed>
  <fix>3d</fix>
</trkpt>
<trkpt lat="-27.2744471" lon="151.2900621">
  <ele>343.09</ele>
  <time>2026-09-01T19:54:47Z</time>
  <course>6.89</course>
  <speed>0.0</speed>
  <fix>3d</fix>
</trkpt>
<trkpt lat="-27.2744473" lon="151.2900622">
  <ele>343.05</ele>
  <time>2026-09-01T19:54:47Z</time>
  <course>12.03</course>
  <speed>0.03605551275463989</speed>
  <fix>3d</fix>
</trkpt>
<trkpt lat="-27.2744471" lon="151.2900621">
  <ele>343.09</ele>
  <time>2026-09-01T19:54:47Z</time>
  <course>11.87</course>
  <speed>0.0</speed>
  <fix>3d</fix>
</trkpt>
<trkpt lat="-27.2744473" lon="151.2900623">
  <ele>343.05</ele>
  <time>2026-09-01T19:54:47Z</time>
  <course>12.03</course>
  <speed>0.03605551275463989</speed>
  <fix>3d</fix>
</trkpt>
<trkpt lat="-27.2744471" lon="151.2900621">
  <ele>343.09</ele>
  <time>2026-09-01T19:54:47Z</time>
  <course>11.87</course>
  <speed>0.0</speed>
  <fix>3d</fix>
</trkpt>
<trkpt lat="-27.2744473" lon="151.2900622">
  <ele>343.05</ele>
  <time>2026-09-01T19:54:47Z</time>
  <course>12.03</course>
  <speed>0.03605551275463989</speed>
  <fix>3d</fix>
</trkpt>
<trkpt lat="-27.2744471" lon="151.2900621">
  <ele>343.09</ele>
  <time>2026-09-01T19:54:47Z</time>
  <course>5.26</course>
  <speed>0.0</speed>
  <fix>3d</fix>
</trkpt>
<trkpt lat="-27.2744473" lon="151.2900622">
  <ele>343.05</ele>
  <time>2026-09-01T19:54:47Z</time>
  <course>12.04</course>
  <speed>0.03605551275463989</speed>
  <fix>3d</fix>
</trkpt>
<trkpt lat="-27.2744471" lon="151.2900621">
  <ele>343.09</ele>
  <time>2026-09-01T19:54:47Z</time>
  <course>5.26</course>
  <speed>0.0</speed>
  <fix>3d</fix>
</trkpt>
<trkpt lat="-27.2744473" lon="151.2900622">
  <ele>343.05</ele>
  <time>2026-09-01T19:54:47Z</time>
  <course>12.04</course>
  <speed>0.03605551275463989</speed>
  <fix>3d</fix>
</trkpt>
<trkpt lat="-27.2744471" lon="151.2900621">
  <ele>343.09</ele>
  <time>2026-09-01T19:54:47Z</time>
  <course>351.54</course>
  <speed>0.0</speed>
  <fix>3d</fix>
</trkpt>
<trkpt lat="-27.2744473" lon="151.2900622">
  <ele>343.05</ele>
  <time>2026-09-01T19:54:47Z</time>
  <course>12.04</course>
  <speed>0.03605551275463989</speed>
  <fix>3d</fix>
</trkpt>
<trkpt lat="-27.2744471" lon="151.2900621">
  <ele>343.09</ele>
  <time>2026-09-01T19:54:47Z</time>
  <course>351.54</course>
  <speed>0.0</speed>
  <fix>3d</fix>
</trkpt>
<trkpt lat="-27.2744473" lon="151.2900622">
  <ele>343.05</ele>
  <time>2026-09-01T19:54:47Z</time>
  <course>12.04</course>
  <speed>0.03605551275463989</speed>
  <fix>3d</fix>
</trkpt>
<trkpt lat="-27.2744471" lon="151.2900621">
  <ele>343.09</ele>
  <time>2026-09-01T19:54:47Z</time>
  <course>1.45</course>
  <speed>0.0</speed>
  <fix>3d</fix>
</trkpt>
<trkpt lat="-27.2744473" lon="151.2900622">
  <ele>343.05</ele>
  <time>2026-09-01T19:54:47Z</time>
  <course>12.04</course>
  <speed>0.03605551275463989</speed>
  <fix>3d</fix>
</trkpt>
<trkpt lat="-27.2744471" lon="151.2900621">
  <ele>343.09</ele>
  <time>2026-09-01T19:54:47Z</time>
  <course>1.45</course>
  <speed>0.0</speed>
  <fix>3d</fix>
</trkpt>
<trkpt lat="-27.2744473" lon="151.2900622">
  <ele>343.05</ele>
  <time>2026-09-01T19:54:47Z</time>
  <course>12.05</course>
  <speed>0.03605551275463989</speed>
  <fix>3d</fix>
</trkpt>
<trkpt lat="-27.2744471" lon="151.2900621">
  <ele>343.09</ele>
  <time>2026-09-01T19:54:47Z</time>
  <course>19.43</course>
  <speed>0.0</speed>
  <fix>3d</fix>
</trkpt>
<trkpt lat="-27.2744473" lon="151.2900622">
  <ele>343.05</ele>
  <time>2026-09-01T19:54:47Z</time>
  <course>12.05</course>
  <speed>0.03605551275463989</speed>
  <fix>3d</fix>
</trkpt>
<trkpt lat="-27.2744471" lon="151.2900621">
  <ele>343.09</ele>
  <time>2026-09-01T19:54:47Z</time>
  <course>19.43</course>
  <speed>0.0</speed>
  <fix>3d</fix>
</trkpt>
<trkpt lat="-27.2744473" lon="151.2900622">
  <ele>343.05</ele>
  <time>2026-09-01T19:54:47Z</time>
  <course>12.05</course>
  <speed>0.03605551275463989</speed>
  <fix>3d</fix>
</trkpt>
<trkpt lat="-27.2744471" lon="151.2900621">
  <ele>343.09</ele>
  <time>2026-09-01T19:54:47Z</time>
  <course>7.43</course>
  <speed>0.0</speed>
  <fix>3d</fix>
</trkpt>
<trkpt lat="-27.2744473" lon="151.2900622">
  <ele>343.05</ele>
  <time>2026-09-01T19:54:47Z</time>
  <course>12.05</course>
  <speed>0.03605551275463989</speed>
  <fix>3d</fix>
</trkpt>
<trkpt lat="-27.2744471" lon="151.2900621">
  <ele>343.09</ele>
  <time>2026-09-01T19:54:47Z</time>
  <course>7.43</course>
  <speed>0.0</speed>
  <fix>3d</fix>
</trkpt>
<trkpt lat="-27.2744473" lon="151.2900622">
  <ele>343.05</ele>
  <time>2026-09-01T19:54:47Z</time>
  <course>12.06</course>
  <speed>0.0316227766016838</speed>
  <fix>3d</fix>
</trkpt>
<trkpt lat="-27.2744471" lon="151.2900621">
  <ele>343.09</ele>
  <time>2026-09-01T19:54:47Z</time>
  <course>329.11</course>
  <speed>0.0</speed>
  <fix>3d</fix>
</trkpt>
<trkpt lat="-27.2744473" lon="151.2900622">
  <ele>343.05</ele>
  <time>2026-09-01T19:54:47Z</time>
  <course>12.06</course>
  <speed>0.03605551275463989</speed>
  <fix>3d</fix>
</trkpt>
<trkpt lat="-27.2744471" lon="151.2900621">
  <ele>343.09</ele>
  <time>2026-09-01T19:54:47Z</time>
  <course>329.11</course>
  <speed>0.0</speed>
  <fix>3d</fix>
</trkpt>
<trkpt lat="-27.2744473" lon="151.2900622">
  <ele>343.05</ele>
  <time>2026-09-01T19:54:47Z</time>
  <course>12.06</course>
  <speed>0.0316227766016838</speed>
  <fix>3d</fix>
</trkpt>
<trkpt lat="-27.2744471" lon="151.2900621">
  <ele>343.09</ele>
  <time>2026-09-01T19:54:47Z</time>
  <course>333.5</course>
  <speed>0.0</speed>
  <fix>3d</fix>
</trkpt>
<trkpt lat="-27.2744473" lon="151.2900622">
  <ele>343.06</ele>
  <time>2026-09-01T19:54:47Z</time>
  <course>12.06</course>
  <speed>0.03605551275463989</speed>
  <fix>3d</fix>
</trkpt>
<trkpt lat="-27.2744471" lon="151.2900621">
  <ele>343.09</ele>
  <time>2026-09-01T19:54:47Z</time>
  <course>333.5</course>
  <speed>0.0</speed>
  <fix>3d</fix>
</trkpt>
<trkpt lat="-27.2744473" lon="151.2900622">
  <ele>343.06</ele>
  <time>2026-09-01T19:54:47Z</time>
  <course>12.06</course>
  <speed>0.0316227766016838</speed>
  <fix>3d</fix>
</trkpt>
<trkpt lat="-27.2744471" lon="151.2900621">
  <ele>343.09</ele>
  <time>2026-09-01T19:54:47Z</time>
  <course>10.27</course>
  <speed>0.0</speed>
  <fix>3d</fix>
</trkpt>
<trkpt lat="-27.2744473" lon="151.2900622">
  <ele>343.06</ele>
  <time>2026-09-01T19:54:47Z</time>
  <course>12.07</course>
  <speed>0.0316227766016838</speed>
  <fix>3d</fix>
</trkpt>
<trkpt lat="-27.2744471" lon="151.2900621">
  <ele>343.09</ele>
  <time>2026-09-01T19:54:47Z</time>
  <course>10.27</course>
  <speed>0.0</speed>
  <fix>3d</fix>
</trkpt>
<trkpt lat="-27.2744473" lon="151.2900622">
  <ele>343.06</ele>
  <time>2026-09-01T19:54:47Z</time>
  <course>12.07</course>
  <speed>0.0316227766016838</speed>
  <fix>3d</fix>
</trkpt>
<trkpt lat="-27.2744471" lon="151.2900621">
  <ele>343.09</ele>
  <time>2026-09-01T19:54:47Z</time>
  <course>23.28</course>
  <speed>0.0</speed>
  <fix>3d</fix>
</trkpt>
<trkpt lat="-27.2744473" lon="151.2900622">
  <ele>343.06</ele>
  <time>2026-09-01T19:54:47Z</time>
  <course>12.07</course>
  <speed>0.0316227766016838</speed>
  <fix>3d</fix>
</trkpt>
<trkpt lat="-27.2744471" lon="151.2900621">
  <ele>343.09</ele>
  <time>2026-09-01T19:54:47Z</time>
  <course>23.28</course>
  <speed>0.0</speed>
  <fix>3d</fix>
</trkpt>
<trkpt lat="-27.2744473" lon="151.2900622">
  <ele>343.06</ele>
  <time>2026-09-01T19:54:47Z</time>
  <course>12.07</course>
  <speed>0.022360679774997897</speed>
  <fix>3d</fix>
</trkpt>
<trkpt lat="-27.2744471" lon="151.2900621">
  <ele>343.09</ele>
  <time>2026-09-01T19:54:47Z</time>
  <course>9.09</course>
  <speed>0.0</speed>
  <fix>3d</fix>
</trkpt>
<trkpt lat="-27.2744473" lon="151.2900622">
  <ele>343.06</ele>
  <time>2026-09-01T19:54:47Z</time>
  <course>12.07</course>
  <speed>0.0316227766016838</speed>
  <fix>3d</fix>
</trkpt>
<trkpt lat="-27.2744471" lon="151.2900621">
  <ele>343.09</ele>
  <time>2026-09-01T19:54:47Z</time>
  <course>9.09</course>
  <speed>0.0</speed>
  <fix>3d</fix>
</trkpt>
<trkpt lat="-27.2744473" lon="151.2900622">
  <ele>343.06</ele>
  <time>2026-09-01T19:54:47Z</time>
  <course>12.08</course>
  <speed>0.022360679774997897</speed>
  <fix>3d</fix>
</trkpt>
<trkpt lat="-27.2744471" lon="151.2900621">
  <ele>343.09</ele>
  <time>2026-09-01T19:54:47Z</time>
  <course>1.12</course>
  <speed>0.0</speed>
  <fix>3d</fix>
</trkpt>
<trkpt lat="-27.2744473" lon="151.2900622">
  <ele>343.06</ele>
  <time>2026-09-01T19:54:47Z</time>
  <course>12.08</course>
  <speed>0.0316227766016838</speed>
  <fix>3d</fix>
</trkpt>
<trkpt lat="-27.2744471" lon="151.2900621">
  <ele>343.09</ele>
  <time>2026-09-01T19:54:47Z</time>
  <course>1.12</course>
  <speed>0.0</speed>
  <fix>3d</fix>
</trkpt>
<trkpt lat="-27.2744473" lon="151.2900622">
  <ele>343.06</ele>
  <time>2026-09-01T19:54:47Z</time>
  <course>12.08</course>
  <speed>0.022360679774997897</speed>
  <fix>3d</fix>
</trkpt>
<trkpt lat="-27.2744471" lon="151.2900621">
  <ele>343.09</ele>
  <time>2026-09-01T19:54:47Z</time>
  <course>354.05</course>
  <speed>0.0</speed>
  <fix>3d</fix>
</trkpt>
<trkpt lat="-27.2744473" lon="151.2900622">
  <ele>343.06</ele>
  <time>2026-09-01T19:54:47Z</time>
  <course>12.08</course>
  <speed>0.022360679774997897</speed>
  <fix>3d</fix>
</trkpt>
<trkpt lat="-27.2744471" lon="151.2900621">
  <ele>343.09</ele>
  <time>2026-09-01T19:54:47Z</time>
  <course>354.05</course>
  <speed>0.0</speed>
  <fix>3d</fix>
</trkpt>
<trkpt lat="-27.2744473" lon="151.2900622">
  <ele>343.06</ele>
  <time>2026-09-01T19:54:47Z</time>
  <course>12.09</course>
  <speed>0.022360679774997897</speed>
  <fix>3d</fix>
</trkpt>
<trkpt lat="-27.2744471" lon="151.2900621">
  <ele>343.09</ele>
  <time>2026-09-01T19:54:47Z</time>
  <course>0.8</course>
  <speed>0.0</speed>
  <fix>3d</fix>
</trkpt>
<trkpt lat="-27.2744473" lon="151.2900622">
  <ele>343.06</ele>
  <time>2026-09-01T19:54:47Z</time>
  <course>12.09</course>
  <speed>0.022360679774997897</speed>
  <fix>3d</fix>
</trkpt>
<trkpt lat="-27.2744471" lon="151.2900621">
  <ele>343.09</ele>
  <time>2026-09-01T19:54:47Z</time>
  <course>0.8</course>
  <speed>0.0</speed>
  <fix>3d</fix>
</trkpt>
<trkpt lat="-27.2744473" lon="151.2900622">
  <ele>343.07</ele>
  <time>2026-09-01T19:54:47Z</time>
  <course>12.09</course>
  <speed>0.022360679774997897</speed>
  <fix>3d</fix>
</trkpt>
<trkpt lat="-27.2744471" lon="151.2900621">
  <ele>343.09</ele>
  <time>2026-09-01T19:54:47Z</time>
  <course>14.67</course>
  <speed>0.0</speed>
  <fix>3d</fix>
</trkpt>
<trkpt lat="-27.2744473" lon="151.2900622">
  <ele>343.07</ele>
  <time>2026-09-01T19:54:47Z</time>
  <course>12.09</course>
  <speed>0.022360679774997897</speed>
  <fix>3d</fix>
</trkpt>
<trkpt lat="-27.2744471" lon="151.2900621">
  <ele>343.09</ele>
  <time>2026-09-01T19:54:47Z</time>
  <course>14.67</course>
  <speed>0.0</speed>
  <fix>3d</fix>
</trkpt>
<trkpt lat="-27.2744473" lon="151.2900622">
  <ele>343.07</ele>
  <time>2026-09-01T19:54:47Z</time>
  <course>12.1</course>
  <speed>0.022360679774997897</speed>
  <fix>3d</fix>
</trkpt>
<trkpt lat="-27.2744471" lon="151.2900621">
  <ele>343.09</ele>
  <time>2026-09-01T19:54:47Z</time>
  <course>7.86</course>
  <speed>0.0</speed>
  <fix>3d</fix>
</trkpt>
<trkpt lat="-27.2744473" lon="151.2900622">
  <ele>343.07</ele>
  <time>2026-09-01T19:54:47Z</time>
  <course>12.1</course>
  <speed>0.022360679774997897</speed>
  <fix>3d</fix>
</trkpt>
<trkpt lat="-27.2744471" lon="151.2900621">
  <ele>343.09</ele>
  <time>2026-09-01T19:54:47Z</time>
  <course>7.86</course>
  <speed>0.0</speed>
  <fix>3d</fix>
</trkpt>
<trkpt lat="-27.2744473" lon="151.2900622">
  <ele>343.07</ele>
  <time>2026-09-01T19:54:47Z</time>
  <course>12.1</course>
  <speed>0.022360679774997897</speed>
  <fix>3d</fix>
</trkpt>
<trkpt lat="-27.2744471" lon="151.2900621">
  <ele>343.09</ele>
  <time>2026-09-01T19:54:47Z</time>
  <course>11.19</course>
  <speed>0.0</speed>
  <fix>3d</fix>
</trkpt>
<trkpt lat="-27.2744473" lon="151.2900622">
  <ele>343.07</ele>
  <time>2026-09-01T19:54:47Z</time>
  <course>12.1</course>
  <speed>0.022360679774997897</speed>
  <fix>3d</fix>
</trkpt>
<trkpt lat="-27.2744471" lon="151.2900621">
  <ele>343.09</ele>
  <time>2026-09-01T19:54:47Z</time>
  <course>11.19</course>
  <speed>0.0</speed>
  <fix>3d</fix>
</trkpt>
<trkpt lat="-27.2744473" lon="151.2900622">
  <ele>343.07</ele>
  <time>2026-09-01T19:54:47Z</time>
  <course>12.1</course>
  <speed>0.022360679774997897</speed>
  <fix>3d</fix>
</trkpt>
<trkpt lat="-27.2744471" lon="151.2900621">
  <ele>343.09</ele>
  <time>2026-09-01T19:54:47Z</time>
  <course>24.35</course>
  <speed>0.0</speed>
  <fix>3d</fix>
</trkpt>
<trkpt lat="-27.2744473" lon="151.2900622">
  <ele>343.07</ele>
  <time>2026-09-01T19:54:47Z</time>
  <course>12.11</course>
  <speed>0.022360679774997897</speed>
  <fix>3d</fix>
</trkpt>
<trkpt lat="-27.2744471" lon="151.2900621">
  <ele>343.09</ele>
  <time>2026-09-01T19:54:47Z</time>
  <course>24.35</course>
  <speed>0.0</speed>
  <fix>3d</fix>
</trkpt>
<trkpt lat="-27.2744473" lon="151.2900622">
  <ele>343.07</ele>
  <time>2026-09-01T19:54:47Z</time>
  <course>12.11</course>
  <speed>0.022360679774997897</speed>
  <fix>3d</fix>
</trkpt>
<trkpt lat="-27.2744471" lon="151.2900621">
  <ele>343.09</ele>
  <time>2026-09-01T19:54:47Z</time>
  <course>28.4</course>
  <speed>0.0</speed>
  <fix>3d</fix>
</trkpt>
<trkpt lat="-27.2744473" lon="151.2900622">
  <ele>343.06</ele>
  <time>2026-09-01T19:54:47Z</time>
  <course>12.11</course>
  <speed>0.022360679774997897</speed>
  <fix>3d</fix>
</trkpt>
<trkpt lat="-27.2744471" lon="151.2900621">
  <ele>343.09</ele>
  <time>2026-09-01T19:54:47Z</time>
  <course>28.4</course>
  <speed>0.0</speed>
  <fix>3d</fix>
</trkpt>
<trkpt lat="-27.2744473" lon="151.2900622">
  <ele>343.06</ele>
  <time>2026-09-01T19:54:47Z</time>
  <course>12.11</course>
  <speed>0.022360679774997897</speed>
  <fix>3d</fix>
</trkpt>
<trkpt lat="-27.2744471" lon="151.2900621">
  <ele>343.09</ele>
  <time>2026-09-01T19:54:47Z</time>
  <course>1.43</course>
  <speed>0.0</speed>
  <fix>3d</fix>
</trkpt>
<trkpt lat="-27.2744473" lon="151.2900622">
  <ele>343.06</ele>
  <time>2026-09-01T19:54:47Z</time>
  <course>12.11</course>
  <speed>0.022360679774997897</speed>
  <fix>3d</fix>
</trkpt>
<trkpt lat="-27.2744471" lon="151.2900621">
  <ele>343.09</ele>
  <time>2026-09-01T19:54:47Z</time>
  <course>1.43</course>
  <speed>0.0</speed>
  <fix>3d</fix>
</trkpt>
<trkpt lat="-27.2744473" lon="151.2900622">
  <ele>343.06</ele>
  <time>2026-09-01T19:54:47Z</time>
  <course>12.12</course>
  <speed>0.022360679774997897</speed>
  <fix>3d</fix>
</trkpt>
<trkpt lat="-27.2744471" lon="151.2900621">
  <ele>343.09</ele>
  <time>2026-09-01T19:54:47Z</time>
  <course>345.15</course>
  <speed>0.0</speed>
  <fix>3d</fix>
</trkpt>
<trkpt lat="-27.2744473" lon="151.2900622">
  <ele>343.06</ele>
  <time>2026-09-01T19:54:47Z</time>
  <course>12.12</course>
  <speed>0.022360679774997897</speed>
  <fix>3d</fix>
</trkpt>
<trkpt lat="-27.2744471" lon="151.2900621">
  <ele>343.09</ele>
  <time>2026-09-01T19:54:47Z</time>
  <course>345.15</course>
  <speed>0.0</speed>
  <fix>3d</fix>
</trkpt>
<trkpt lat="-27.2744473" lon="151.2900622">
  <ele>343.06</ele>
  <time>2026-09-01T19:54:47Z</time>
  <course>12.12</course>
  <speed>0.022360679774997897</speed>
  <fix>3d</fix>
</trkpt>
<trkpt lat="-27.2744471" lon="151.2900621">
  <ele>343.09</ele>
  <time>2026-09-01T19:54:47Z</time>
  <course>346.83</course>
  <speed>0.0</speed>
  <fix>3d</fix>
</trkpt>
<trkpt lat="-27.2744473" lon="151.2900622">
  <ele>343.06</ele>
  <time>2026-09-01T19:54:47Z</time>
  <course>12.12</course>
  <speed>0.022360679774997897</speed>
  <fix>3d</fix>
</trkpt>
<trkpt lat="-27.2744471" lon="151.2900621">
  <ele>343.09</ele>
  <time>2026-09-01T19:54:47Z</time>
  <course>346.83</course>
  <speed>0.0</speed>
  <fix>3d</fix>
</trkpt>
<trkpt lat="-27.2744473" lon="151.2900622">
  <ele>343.06</ele>
  <time>2026-09-01T19:54:47Z</time>
  <course>12.13</course>
  <speed>0.0316227766016838</speed>
  <fix>3d</fix>
</trkpt>
<trkpt lat="-27.2744471" lon="151.2900621">
  <ele>343.09</ele>
  <time>2026-09-01T19:54:47Z</time>
  <course>190.55</course>
  <speed>0.0</speed>
  <fix>3d</fix>
</trkpt>
<trkpt lat="-27.2744473" lon="151.2900622">
  <ele>343.06</ele>
  <time>2026-09-01T19:54:47Z</time>
  <course>12.13</course>
  <speed>0.0316227766016838</speed>
  <fix>3d</fix>
</trkpt>
<trkpt lat="-27.2744471" lon="151.2900621">
  <ele>343.09</ele>
  <time>2026-09-01T19:54:47Z</time>
  <course>190.55</course>
  <speed>0.0</speed>
  <fix>3d</fix>
</trkpt>
<trkpt lat="-27.2744473" lon="151.2900622">
  <ele>343.06</ele>
  <time>2026-09-01T19:54:47Z</time>
  <course>12.13</course>
  <speed>0.022360679774997897</speed>
  <fix>3d</fix>
</trkpt>
<trkpt lat="-27.2744471" lon="151.2900621">
  <ele>343.09</ele>
  <time>2026-09-01T19:54:47Z</time>
  <course>188.85</course>
  <speed>0.0</speed>
  <fix>3d</fix>
</trkpt>
<trkpt lat="-27.2744473" lon="151.2900622">
  <ele>343.06</ele>
  <time>2026-09-01T19:54:47Z</time>
  <course>12.13</course>
  <speed>0.022360679774997897</speed>
  <fix>3d</fix>
</trkpt>
<trkpt lat="-27.2744471" lon="151.2900621">
  <ele>343.09</ele>
  <time>2026-09-01T19:54:47Z</time>
  <course>188.85</course>
  <speed>0.0</speed>
  <fix>3d</fix>
</trkpt>
<trkpt lat="-27.2744473" lon="151.2900622">
  <ele>343.06</ele>
  <time>2026-09-01T19:54:47Z</time>
  <course>12.14</course>
  <speed>0.022360679774997897</speed>
  <fix>3d</fix>
</trkpt>
<trkpt lat="-27.2744471" lon="151.2900621">
  <ele>343.09</ele>
  <time>2026-09-01T19:54:47Z</time>
  <course>189.07</course>
  <speed>0.0</speed>
  <fix>3d</fix>
</trkpt>
<trkpt lat="-27.2744473" lon="151.2900622">
  <ele>343.05</ele>
  <time>2026-09-01T19:54:47Z</time>
  <course>12.14</course>
  <speed>0.022360679774997897</speed>
  <fix>3d</fix>
</trkpt>
<trkpt lat="-27.2744471" lon="151.2900621">
  <ele>343.09</ele>
  <time>2026-09-01T19:54:47Z</time>
  <course>189.07</course>
  <speed>0.0</speed>
  <fix>3d</fix>
</trkpt>
<trkpt lat="-27.2744473" lon="151.2900622">
  <ele>343.05</ele>
  <time>2026-09-01T19:54:47Z</time>
  <course>12.14</course>
  <speed>0.022360679774997897</speed>
  <fix>3d</fix>
</trkpt>
<trkpt lat="-27.2744471" lon="151.2900621">
  <ele>343.09</ele>
  <time>2026-09-01T19:54:47Z</time>
  <course>8.94</course>
  <speed>0.0</speed>
  <fix>3d</fix>
</trkpt>
<trkpt lat="-27.2744473" lon="151.2900622">
  <ele>343.05</ele>
  <time>2026-09-01T19:54:47Z</time>
  <course>12.14</course>
  <speed>0.022360679774997897</speed>
  <fix>3d</fix>
</trkpt>
<trkpt lat="-27.2744471" lon="151.2900621">
  <ele>343.09</ele>
  <time>2026-09-01T19:54:47Z</time>
  <course>8.94</course>
  <speed>0.0</speed>
  <fix>3d</fix>
</trkpt>
<trkpt lat="-27.2744473" lon="151.2900622">
  <ele>343.05</ele>
  <time>2026-09-01T19:54:47Z</time>
  <course>12.14</course>
  <speed>0.022360679774997897</speed>
  <fix>3d</fix>
</trkpt>
<trkpt lat="-27.2744471" lon="151.2900621">
  <ele>343.09</ele>
  <time>2026-09-01T19:54:47Z</time>
  <course>9.12</course>
  <speed>0.0</speed>
  <fix>3d</fix>
</trkpt>
<trkpt lat="-27.2744473" lon="151.2900622">
  <ele>343.05</ele>
  <time>2026-09-01T19:54:47Z</time>
  <course>12.15</course>
  <speed>0.022360679774997897</speed>
  <fix>3d</fix>
</trkpt>
<trkpt lat="-27.2744471" lon="151.2900621">
  <ele>343.09</ele>
  <time>2026-09-01T19:54:47Z</time>
  <course>9.12</course>
  <speed>0.0</speed>
  <fix>3d</fix>
</trkpt>
<trkpt lat="-27.2744473" lon="151.2900622">
  <ele>343.05</ele>
  <time>2026-09-01T19:54:47Z</time>
  <course>12.15</course>
  <speed>0.022360679774997897</speed>
  <fix>3d</fix>
</trkpt>
<trkpt lat="-27.2744471" lon="151.2900621">
  <ele>343.09</ele>
  <time>2026-09-01T19:54:47Z</time>
  <course>188.98</course>
  <speed>0.0</speed>
  <fix>3d</fix>
</trkpt>
<trkpt lat="-27.2744473" lon="151.2900622">
  <ele>343.05</ele>
  <time>2026-09-01T19:54:47Z</time>
  <course>12.15</course>
  <speed>0.022360679774997897</speed>
  <fix>3d</fix>
</trkpt>
<trkpt lat="-27.2744471" lon="151.2900621">
  <ele>343.09</ele>
  <time>2026-09-01T19:54:47Z</time>
  <course>188.98</course>
  <speed>0.0</speed>
  <fix>3d</fix>
</trkpt>
<trkpt lat="-27.2744473" lon="151.2900622">
  <ele>343.05</ele>
  <time>2026-09-01T19:54:47Z</time>
  <course>12.15</course>
  <speed>0.022360679774997897</speed>
  <fix>3d</fix>
</trkpt>
<trkpt lat="-27.2744471" lon="151.2900621">
  <ele>343.09</ele>
  <time>2026-09-01T19:54:47Z</time>
  <course>189.24</course>
  <speed>0.0</speed>
  <fix>3d</fix>
</trkpt>
<trkpt lat="-27.2744473" lon="151.2900622">
  <ele>343.05</ele>
  <time>2026-09-01T19:54:47Z</time>
  <course>12.16</course>
  <speed>0.022360679774997897</speed>
  <fix>3d</fix>
</trkpt>
<trkpt lat="-27.2744471" lon="151.2900621">
  <ele>343.09</ele>
  <time>2026-09-01T19:54:47Z</time>
  <course>189.24</course>
  <speed>0.0</speed>
  <fix>3d</fix>
</trkpt>
<trkpt lat="-27.2744473" lon="151.2900622">
  <ele>343.05</ele>
  <time>2026-09-01T19:54:47Z</time>
  <course>12.16</course>
  <speed>0.022360679774997897</speed>
  <fix>3d</fix>
</trkpt>
<trkpt lat="-27.2744471" lon="151.2900621">
  <ele>343.09</ele>
  <time>2026-09-01T19:54:47Z</time>
  <course>9.0</course>
  <speed>0.0</speed>
  <fix>3d</fix>
</trkpt>
<trkpt lat="-27.2744473" lon="151.2900622">
  <ele>343.05</ele>
  <time>2026-09-01T19:54:47Z</time>
  <course>12.16</course>
  <speed>0.022360679774997897</speed>
  <fix>3d</fix>
</trkpt>
<trkpt lat="-27.2744471" lon="151.2900621">
  <ele>343.09</ele>
  <time>2026-09-01T19:54:47Z</time>
  <course>9.0</course>
  <speed>0.0</speed>
  <fix>3d</fix>
</trkpt>
<trkpt lat="-27.2744473" lon="151.2900622">
  <ele>343.05</ele>
  <time>2026-09-01T19:54:47Z</time>
  <course>12.16</course>
  <speed>0.022360679774997897</speed>
  <fix>3d</fix>
</trkpt>
<trkpt lat="-27.2744471" lon="151.2900621">
  <ele>343.09</ele>
  <time>2026-09-01T19:54:47Z</time>
  <course>50.17</course>
  <speed>0.0</speed>
  <fix>3d</fix>
</trkpt>
<trkpt lat="-27.2744473" lon="151.2900622">
  <ele>343.06</ele>
  <time>2026-09-01T19:54:47Z</time>
  <course>12.17</course>
  <speed>0.022360679774997897</speed>
  <fix>3d</fix>
</trkpt>
<trkpt lat="-27.2744471" lon="151.2900621">
  <ele>343.09</ele>
  <time>2026-09-01T19:54:47Z</time>
  <course>50.17</course>
  <speed>0.0</speed>
  <fix>3d</fix>
</trkpt>
<trkpt lat="-27.2744473" lon="151.2900622">
  <ele>343.06</ele>
  <time>2026-09-01T19:54:47Z</time>
  <course>12.17</course>
  <speed>0.022360679774997897</speed>
  <fix>3d</fix>
</trkpt>
<trkpt lat="-27.2744471" lon="151.2900621">
  <ele>343.09</ele>
  <time>2026-09-01T19:54:47Z</time>
  <course>189.03</course>
  <speed>0.0</speed>
  <fix>3d</fix>
</trkpt>
<trkpt lat="-27.2744473" lon="151.2900622">
  <ele>343.06</ele>
  <time>2026-09-01T19:54:47Z</time>
  <course>12.17</course>
  <speed>0.022360679774997897</speed>
  <fix>3d</fix>
</trkpt>
<trkpt lat="-27.2744471" lon="151.2900621">
  <ele>343.09</ele>
  <time>2026-09-01T19:54:47Z</time>
  <course>189.03</course>
  <speed>0.0</speed>
  <fix>3d</fix>
</trkpt>
<trkpt lat="-27.2744473" lon="151.2900622">
  <ele>343.06</ele>
  <time>2026-09-01T19:54:47Z</time>
  <course>12.17</course>
  <speed>0.022360679774997897</speed>
  <fix>3d</fix>
</trkpt>
<trkpt lat="-27.2744471" lon="151.2900621">
  <ele>343.09</ele>
  <time>2026-09-01T19:54:47Z</time>
  <course>8.79</course>
  <speed>0.0</speed>
  <fix>3d</fix>
</trkpt>
<trkpt lat="-27.2744473" lon="151.2900622">
  <ele>343.06</ele>
  <time>2026-09-01T19:54:47Z</time>
  <course>12.17</course>
  <speed>0.022360679774997897</speed>
  <fix>3d</fix>
</trkpt>
<trkpt lat="-27.2744471" lon="151.2900621">
  <ele>343.09</ele>
  <time>2026-09-01T19:54:47Z</time>
  <course>8.79</course>
  <speed>0.0</speed>
  <fix>3d</fix>
</trkpt>
<trkpt lat="-27.2744473" lon="151.2900622">
  <ele>343.06</ele>
  <time>2026-09-01T19:54:47Z</time>
  <course>12.18</course>
  <speed>0.022360679774997897</speed>
  <fix>3d</fix>
</trkpt>
<trkpt lat="-27.2744471" lon="151.2900621">
  <ele>343.09</ele>
  <time>2026-09-01T19:54:47Z</time>
  <course>9.06</course>
  <speed>0.0</speed>
  <fix>3d</fix>
</trkpt>
<trkpt lat="-27.2744473" lon="151.2900622">
  <ele>343.07</ele>
  <time>2026-09-01T19:54:47Z</time>
  <course>12.18</course>
  <speed>0.022360679774997897</speed>
  <fix>3d</fix>
</trkpt>
<trkpt lat="-27.2744471" lon="151.2900621">
  <ele>343.09</ele>
  <time>2026-09-01T19:54:47Z</time>
  <course>9.06</course>
  <speed>0.0</speed>
  <fix>3d</fix>
</trkpt>
<trkpt lat="-27.2744473" lon="151.2900622">
  <ele>343.07</ele>
  <time>2026-09-01T19:54:47Z</time>
  <course>12.18</course>
  <speed>0.022360679774997897</speed>
  <fix>3d</fix>
</trkpt>
<trkpt lat="-27.2744471" lon="151.2900621">
  <ele>343.09</ele>
  <time>2026-09-01T19:54:47Z</time>
  <course>188.92</course>
  <speed>0.0</speed>
  <fix>3d</fix>
</trkpt>
<trkpt lat="-27.2744473" lon="151.2900622">
  <ele>343.07</ele>
  <time>2026-09-01T19:54:47Z</time>
  <course>12.18</course>
  <speed>0.022360679774997897</speed>
  <fix>3d</fix>
</trkpt>
<trkpt lat="-27.2744471" lon="151.2900621">
  <ele>343.09</ele>
  <time>2026-09-01T19:54:47Z</time>
  <course>188.92</course>
  <speed>0.0</speed>
  <fix>3d</fix>
</trkpt>
<trkpt lat="-27.2744473" lon="151.2900622">
  <ele>343.07</ele>
  <time>2026-09-01T19:54:48Z</time>
  <course>12.19</course>
  <speed>0.022360679774997897</speed>
  <fix>3d</fix>
</trkpt>
<trkpt lat="-27.2744471" lon="151.2900621">
  <ele>343.09</ele>
  <time>2026-09-01T19:54:48Z</time>
  <course>189.1</course>
  <speed>0.0</speed>
  <fix>3d</fix>
</trkpt>
<trkpt lat="-27.2744473" lon="151.2900622">
  <ele>343.07</ele>
  <time>2026-09-01T19:54:48Z</time>
  <course>12.19</course>
  <speed>0.022360679774997897</speed>
  <fix>3d</fix>
</trkpt>
<trkpt lat="-27.2744471" lon="151.2900621">
  <ele>343.09</ele>
  <time>2026-09-01T19:54:48Z</time>
  <course>189.1</course>
  <speed>0.0</speed>
  <fix>3d</fix>
</trkpt>
<trkpt lat="-27.2744473" lon="151.2900622">
  <ele>343.07</ele>
  <time>2026-09-01T19:54:48Z</time>
  <course>12.19</course>
  <speed>0.022360679774997897</speed>
  <fix>3d</fix>
</trkpt>
<trkpt lat="-27.2744471" lon="151.2900621">
  <ele>343.09</ele>
  <time>2026-09-01T19:54:48Z</time>
  <course>8.97</course>
  <speed>0.0</speed>
  <fix>3d</fix>
</trkpt>
<trkpt lat="-27.2744473" lon="151.2900622">
  <ele>343.07</ele>
  <time>2026-09-01T19:54:48Z</time>
  <course>12.19</course>
  <speed>0.022360679774997897</speed>
  <fix>3d</fix>
</trkpt>
<trkpt lat="-27.2744471" lon="151.2900621">
  <ele>343.09</ele>
  <time>2026-09-01T19:54:48Z</time>
  <course>8.97</course>
  <speed>0.0</speed>
  <fix>3d</fix>
</trkpt>
<trkpt lat="-27.2744473" lon="151.2900622">
  <ele>343.07</ele>
  <time>2026-09-01T19:54:48Z</time>
  <course>12.2</course>
  <speed>0.022360679774997897</speed>
  <fix>3d</fix>
</trkpt>
<trkpt lat="-27.2744471" lon="151.2900621">
  <ele>343.09</ele>
  <time>2026-09-01T19:54:48Z</time>
  <course>9.18</course>
  <speed>0.0</speed>
  <fix>3d</fix>
</trkpt>
<trkpt lat="-27.2744473" lon="151.2900622">
  <ele>343.06</ele>
  <time>2026-09-01T19:54:48Z</time>
  <course>12.2</course>
  <speed>0.022360679774997897</speed>
  <fix>3d</fix>
</trkpt>
<trkpt lat="-27.2744471" lon="151.2900621">
  <ele>343.09</ele>
  <time>2026-09-01T19:54:48Z</time>
  <course>9.18</course>
  <speed>0.0</speed>
  <fix>3d</fix>
</trkpt>
<trkpt lat="-27.2744473" lon="151.2900622">
  <ele>343.06</ele>
  <time>2026-09-01T19:54:48Z</time>
  <course>12.2</course>
  <speed>0.022360679774997897</speed>
  <fix>3d</fix>
</trkpt>
<trkpt lat="-27.2744471" lon="151.2900621">
  <ele>343.09</ele>
  <time>2026-09-01T19:54:48Z</time>
  <course>189.0</course>
  <speed>0.0</speed>
  <fix>3d</fix>
</trkpt>
<trkpt lat="-27.2744473" lon="151.2900622">
  <ele>343.06</ele>
  <time>2026-09-01T19:54:48Z</time>
  <course>12.2</course>
  <speed>0.022360679774997897</speed>
  <fix>3d</fix>
</trkpt>
<trkpt lat="-27.2744471" lon="151.2900621">
  <ele>343.09</ele>
  <time>2026-09-01T19:54:48Z</time>
  <course>189.0</course>
  <speed>0.0</speed>
  <fix>3d</fix>
</trkpt>
<trkpt lat="-27.2744473" lon="151.2900622">
  <ele>343.06</ele>
  <time>2026-09-01T19:54:48Z</time>
  <course>12.21</course>
  <speed>0.022360679774997897</speed>
  <fix>3d</fix>
</trkpt>
<trkpt lat="-27.2744471" lon="151.2900621">
  <ele>343.09</ele>
  <time>2026-09-01T19:54:48Z</time>
  <course>189.73</course>
  <speed>0.0</speed>
  <fix>3d</fix>
</trkpt>
<trkpt lat="-27.2744473" lon="151.2900622">
  <ele>343.06</ele>
  <time>2026-09-01T19:54:48Z</time>
  <course>12.21</course>
  <speed>0.022360679774997897</speed>
  <fix>3d</fix>
</trkpt>
<trkpt lat="-27.2744471" lon="151.2900621">
  <ele>343.09</ele>
  <time>2026-09-01T19:54:48Z</time>
  <course>189.73</course>
  <speed>0.0</speed>
  <fix>3d</fix>
</trkpt>
<trkpt lat="-27.2744473" lon="151.2900622">
  <ele>343.06</ele>
  <time>2026-09-01T19:54:48Z</time>
  <course>12.21</course>
  <speed>0.022360679774997897</speed>
  <fix>3d</fix>
</trkpt>
<trkpt lat="-27.2744471" lon="151.2900621">
  <ele>343.09</ele>
  <time>2026-09-01T19:54:48Z</time>
  <course>9.02</course>
  <speed>0.0</speed>
  <fix>3d</fix>
</trkpt>
<trkpt lat="-27.2744473" lon="151.2900622">
  <ele>343.06</ele>
  <time>2026-09-01T19:54:48Z</time>
  <course>12.21</course>
  <speed>0.022360679774997897</speed>
  <fix>3d</fix>
</trkpt>
<trkpt lat="-27.2744471" lon="151.2900621">
  <ele>343.09</ele>
  <time>2026-09-01T19:54:48Z</time>
  <course>9.02</course>
  <speed>0.0</speed>
  <fix>3d</fix>
</trkpt>
<trkpt lat="-27.2744473" lon="151.2900622">
  <ele>343.05</ele>
  <time>2026-09-01T19:54:48Z</time>
  <course>12.21</course>
  <speed>0.022360679774997897</speed>
  <fix>3d</fix>
</trkpt>
<trkpt lat="-27.2744471" lon="151.2900621">
  <ele>343.09</ele>
  <time>2026-09-01T19:54:48Z</time>
  <course>188.69</course>
  <speed>0.0</speed>
  <fix>3d</fix>
</trkpt>
<trkpt lat="-27.2744473" lon="151.2900622">
  <ele>343.05</ele>
  <time>2026-09-01T19:54:48Z</time>
  <course>12.22</course>
  <speed>0.022360679774997897</speed>
  <fix>3d</fix>
</trkpt>
<trkpt lat="-27.2744471" lon="151.2900621">
  <ele>343.09</ele>
  <time>2026-09-01T19:54:48Z</time>
  <course>188.69</course>
  <speed>0.0</speed>
  <fix>3d</fix>
</trkpt>
<trkpt lat="-27.2744473" lon="151.2900622">
  <ele>343.05</ele>
  <time>2026-09-01T19:54:48Z</time>
  <course>12.22</course>
  <speed>0.022360679774997897</speed>
  <fix>3d</fix>
</trkpt>
<trkpt lat="-27.2744471" lon="151.2900621">
  <ele>343.09</ele>
  <time>2026-09-01T19:54:48Z</time>
  <course>189.05</course>
  <speed>0.0</speed>
  <fix>3d</fix>
</trkpt>
<trkpt lat="-27.2744473" lon="151.2900622">
  <ele>343.05</ele>
  <time>2026-09-01T19:54:48Z</time>
  <course>12.22</course>
  <speed>0.022360679774997897</speed>
  <fix>3d</fix>
</trkpt>
<trkpt lat="-27.2744471" lon="151.2900621">
  <ele>343.09</ele>
  <time>2026-09-01T19:54:48Z</time>
  <course>189.05</course>
  <speed>0.0</speed>
  <fix>3d</fix>
</trkpt>
<trkpt lat="-27.2744473" lon="151.2900622">
  <ele>343.05</ele>
  <time>2026-09-01T19:54:48Z</time>
  <course>12.22</course>
  <speed>0.022360679774997897</speed>
  <fix>3d</fix>
</trkpt>
<trkpt lat="-27.2744471" lon="151.2900621">
  <ele>343.09</ele>
  <time>2026-09-01T19:54:48Z</time>
  <course>8.89</course>
  <speed>0.0</speed>
  <fix>3d</fix>
</trkpt>
<trkpt lat="-27.2744473" lon="151.2900622">
  <ele>343.05</ele>
  <time>2026-09-01T19:54:48Z</time>
  <course>12.23</course>
  <speed>0.022360679774997897</speed>
  <fix>3d</fix>
</trkpt>
<trkpt lat="-27.2744471" lon="151.2900621">
  <ele>343.09</ele>
  <time>2026-09-01T19:54:48Z</time>
  <course>8.89</course>
  <speed>0.0</speed>
  <fix>3d</fix>
</trkpt>
<trkpt lat="-27.2744473" lon="151.2900622">
  <ele>343.05</ele>
  <time>2026-09-01T19:54:48Z</time>
  <course>12.23</course>
  <speed>0.022360679774997897</speed>
  <fix>3d</fix>
</trkpt>
<trkpt lat="-27.2744471" lon="151.2900621">
  <ele>343.09</ele>
  <time>2026-09-01T19:54:48Z</time>
  <course>9.08</course>
  <speed>0.0</speed>
  <fix>3d</fix>
</trkpt>
<trkpt lat="-27.2744473" lon="151.2900622">
  <ele>343.05</ele>
  <time>2026-09-01T19:54:48Z</time>
  <course>12.23</course>
  <speed>0.022360679774997897</speed>
  <fix>3d</fix>
</trkpt>
<trkpt lat="-27.2744471" lon="151.2900621">
  <ele>343.09</ele>
  <time>2026-09-01T19:54:48Z</time>
  <course>9.08</course>
  <speed>0.0</speed>
  <fix>3d</fix>
</trkpt>
<trkpt lat="-27.2744473" lon="151.2900622">
  <ele>343.05</ele>
  <time>2026-09-01T19:54:48Z</time>
  <course>12.23</course>
  <speed>0.022360679774997897</speed>
  <fix>3d</fix>
</trkpt>
<trkpt lat="-27.2744471" lon="151.2900621">
  <ele>343.09</ele>
  <time>2026-09-01T19:54:48Z</time>
  <course>188.98</course>
  <speed>0.0</speed>
  <fix>3d</fix>
</trkpt>
<trkpt lat="-27.2744473" lon="151.2900622">
  <ele>343.05</ele>
  <time>2026-09-01T19:54:48Z</time>
  <course>12.24</course>
  <speed>0.022360679774997897</speed>
  <fix>3d</fix>
</trkpt>
<trkpt lat="-27.2744471" lon="151.2900621">
  <ele>343.09</ele>
  <time>2026-09-01T19:54:48Z</time>
  <course>188.98</course>
  <speed>0.0</speed>
  <fix>3d</fix>
</trkpt>
<trkpt lat="-27.2744473" lon="151.2900622">
  <ele>343.05</ele>
  <time>2026-09-01T19:54:48Z</time>
  <course>12.24</course>
  <speed>0.022360679774997897</speed>
  <fix>3d</fix>
</trkpt>
<trkpt lat="-27.2744471" lon="151.2900621">
  <ele>343.09</ele>
  <time>2026-09-01T19:54:48Z</time>
  <course>189.24</course>
  <speed>0.0</speed>
  <fix>3d</fix>
</trkpt>
<trkpt lat="-27.2744473" lon="151.2900622">
  <ele>343.05</ele>
  <time>2026-09-01T19:54:48Z</time>
  <course>12.24</course>
  <speed>0.022360679774997897</speed>
  <fix>3d</fix>
</trkpt>
<trkpt lat="-27.2744471" lon="151.2900621">
  <ele>343.09</ele>
  <time>2026-09-01T19:54:48Z</time>
  <course>189.24</course>
  <speed>0.0</speed>
  <fix>3d</fix>
</trkpt>
<trkpt lat="-27.2744473" lon="151.2900622">
  <ele>343.05</ele>
  <time>2026-09-01T19:54:48Z</time>
  <course>12.24</course>
  <speed>0.022360679774997897</speed>
  <fix>3d</fix>
</trkpt>
<trkpt lat="-27.2744471" lon="151.2900621">
  <ele>343.09</ele>
  <time>2026-09-01T19:54:48Z</time>
  <course>8.86</course>
  <speed>0.0</speed>
  <fix>3d</fix>
</trkpt>
<trkpt lat="-27.2744473" lon="151.2900622">
  <ele>343.05</ele>
  <time>2026-09-01T19:54:48Z</time>
  <course>12.25</course>
  <speed>0.022360679774997897</speed>
  <fix>3d</fix>
</trkpt>
<trkpt lat="-27.2744471" lon="151.2900621">
  <ele>343.09</ele>
  <time>2026-09-01T19:54:48Z</time>
  <course>8.86</course>
  <speed>0.0</speed>
  <fix>3d</fix>
</trkpt>
<trkpt lat="-27.2744473" lon="151.2900622">
  <ele>343.05</ele>
  <time>2026-09-01T19:54:48Z</time>
  <course>12.25</course>
  <speed>0.022360679774997897</speed>
  <fix>3d</fix>
</trkpt>
<trkpt lat="-27.2744471" lon="151.2900621">
  <ele>343.09</ele>
  <time>2026-09-01T19:54:48Z</time>
  <course>8.03</course>
  <speed>0.0</speed>
  <fix>3d</fix>
</trkpt>
<trkpt lat="-27.2744473" lon="151.2900622">
  <ele>343.05</ele>
  <time>2026-09-01T19:54:48Z</time>
  <course>12.25</course>
  <speed>0.022360679774997897</speed>
  <fix>3d</fix>
</trkpt>
<trkpt lat="-27.2744471" lon="151.2900621">
  <ele>343.09</ele>
  <time>2026-09-01T19:54:48Z</time>
  <course>8.03</course>
  <speed>0.0</speed>
  <fix>3d</fix>
</trkpt>
<trkpt lat="-27.2744473" lon="151.2900622">
  <ele>343.05</ele>
  <time>2026-09-01T19:54:48Z</time>
  <course>12.25</course>
  <speed>0.022360679774997897</speed>
  <fix>3d</fix>
</trkpt>
<trkpt lat="-27.2744471" lon="151.2900621">
  <ele>343.09</ele>
  <time>2026-09-01T19:54:48Z</time>
  <course>189.96</course>
  <speed>0.0</speed>
  <fix>3d</fix>
</trkpt>
<trkpt lat="-27.2744473" lon="151.2900622">
  <ele>343.05</ele>
  <time>2026-09-01T19:54:48Z</time>
  <course>12.25</course>
  <speed>0.022360679774997897</speed>
  <fix>3d</fix>
</trkpt>
<trkpt lat="-27.2744471" lon="151.2900621">
  <ele>343.09</ele>
  <time>2026-09-01T19:54:48Z</time>
  <course>189.96</course>
  <speed>0.0</speed>
  <fix>3d</fix>
</trkpt>
<trkpt lat="-27.2744473" lon="151.2900622">
  <ele>343.05</ele>
  <time>2026-09-01T19:54:48Z</time>
  <course>12.26</course>
  <speed>0.022360679774997897</speed>
  <fix>3d</fix>
</trkpt>
<trkpt lat="-27.2744471" lon="151.2900621">
  <ele>343.09</ele>
  <time>2026-09-01T19:54:48Z</time>
  <course>3.63</course>
  <speed>0.0</speed>
  <fix>3d</fix>
</trkpt>
<trkpt lat="-27.2744473" lon="151.2900622">
  <ele>343.05</ele>
  <time>2026-09-01T19:54:48Z</time>
  <course>12.26</course>
  <speed>0.022360679774997897</speed>
  <fix>3d</fix>
</trkpt>
<trkpt lat="-27.2744471" lon="151.2900621">
  <ele>343.09</ele>
  <time>2026-09-01T19:54:48Z</time>
  <course>3.63</course>
  <speed>0.0</speed>
  <fix>3d</fix>
</trkpt>
<trkpt lat="-27.2744473" lon="151.2900622">
  <ele>343.05</ele>
  <time>2026-09-01T19:54:48Z</time>
  <course>12.26</course>
  <speed>0.022360679774997897</speed>
  <fix>3d</fix>
</trkpt>
<trkpt lat="-27.2744471" lon="151.2900621">
  <ele>343.09</ele>
  <time>2026-09-01T19:54:48Z</time>
  <course>6.36</course>
  <speed>0.0</speed>
  <fix>3d</fix>
</trkpt>
<trkpt lat="-27.2744473" lon="151.2900622">
  <ele>343.04</ele>
  <time>2026-09-01T19:54:48Z</time>
  <course>12.26</course>
  <speed>0.022360679774997897</speed>
  <fix>3d</fix>
</trkpt>
<trkpt lat="-27.2744471" lon="151.2900621">
  <ele>343.09</ele>
  <time>2026-09-01T19:54:48Z</time>
  <course>6.36</course>
  <speed>0.0</speed>
  <fix>3d</fix>
</trkpt>
<trkpt lat="-27.2744473" lon="151.2900622">
  <ele>343.04</ele>
  <time>2026-09-01T19:54:48Z</time>
  <course>12.27</course>
  <speed>0.022360679774997897</speed>
  <fix>3d</fix>
</trkpt>
<trkpt lat="-27.2744471" lon="151.2900621">
  <ele>343.09</ele>
  <time>2026-09-01T19:54:48Z</time>
  <course>358.2</course>
  <speed>0.0</speed>
  <fix>3d</fix>
</trkpt>
<trkpt lat="-27.2744473" lon="151.2900622">
  <ele>343.04</ele>
  <time>2026-09-01T19:54:48Z</time>
  <course>12.27</course>
  <speed>0.022360679774997897</speed>
  <fix>3d</fix>
</trkpt>
<trkpt lat="-27.2744471" lon="151.2900621">
  <ele>343.09</ele>
  <time>2026-09-01T19:54:48Z</time>
  <course>358.2</course>
  <speed>0.0</speed>
  <fix>3d</fix>
</trkpt>
<trkpt lat="-27.2744473" lon="151.2900622">
  <ele>343.04</ele>
  <time>2026-09-01T19:54:48Z</time>
  <course>12.27</course>
  <speed>0.022360679774997897</speed>
  <fix>3d</fix>
</trkpt>
<trkpt lat="-27.2744471" lon="151.2900621">
  <ele>343.09</ele>
  <time>2026-09-01T19:54:48Z</time>
  <course>352.98</course>
  <speed>0.0</speed>
  <fix>3d</fix>
</trkpt>
<trkpt lat="-27.2744473" lon="151.2900622">
  <ele>343.04</ele>
  <time>2026-09-01T19:54:48Z</time>
  <course>12.27</course>
  <speed>0.022360679774997897</speed>
  <fix>3d</fix>
</trkpt>
<trkpt lat="-27.2744471" lon="151.2900621">
  <ele>343.09</ele>
  <time>2026-09-01T19:54:48Z</time>
  <course>352.98</course>
  <speed>0.0</speed>
  <fix>3d</fix>
</trkpt>
<trkpt lat="-27.2744473" lon="151.2900622">
  <ele>343.04</ele>
  <time>2026-09-01T19:54:48Z</time>
  <course>12.28</course>
  <speed>0.022360679774997897</speed>
  <fix>3d</fix>
</trkpt>
<trkpt lat="-27.2744471" lon="151.2900621">
  <ele>343.09</ele>
  <time>2026-09-01T19:54:48Z</time>
  <course>354.07</course>
  <speed>0.0</speed>
  <fix>3d</fix>
</trkpt>
<trkpt lat="-27.2744473" lon="151.2900622">
  <ele>343.04</ele>
  <time>2026-09-01T19:54:48Z</time>
  <course>12.28</course>
  <speed>0.022360679774997897</speed>
  <fix>3d</fix>
</trkpt>
<trkpt lat="-27.2744471" lon="151.2900621">
  <ele>343.09</ele>
  <time>2026-09-01T19:54:48Z</time>
  <course>354.07</course>
  <speed>0.0</speed>
  <fix>3d</fix>
</trkpt>
<trkpt lat="-27.2744473" lon="151.2900622">
  <ele>343.04</ele>
  <time>2026-09-01T19:54:48Z</time>
  <course>12.28</course>
  <speed>0.022360679774997897</speed>
  <fix>3d</fix>
</trkpt>
<trkpt lat="-27.2744471" lon="151.2900621">
  <ele>343.09</ele>
  <time>2026-09-01T19:54:48Z</time>
  <course>354.24</course>
  <speed>0.0</speed>
  <fix>3d</fix>
</trkpt>
<trkpt lat="-27.2744473" lon="151.2900622">
  <ele>343.04</ele>
  <time>2026-09-01T19:54:48Z</time>
  <course>12.28</course>
  <speed>0.022360679774997897</speed>
  <fix>3d</fix>
</trkpt>
<trkpt lat="-27.2744471" lon="151.2900621">
  <ele>343.09</ele>
  <time>2026-09-01T19:54:48Z</time>
  <course>354.24</course>
  <speed>0.0</speed>
  <fix>3d</fix>
</trkpt>
<trkpt lat="-27.2744473" lon="151.2900622">
  <ele>343.04</ele>
  <time>2026-09-01T19:54:48Z</time>
  <course>12.28</course>
  <speed>0.022360679774997897</speed>
  <fix>3d</fix>
</trkpt>
<trkpt lat="-27.2744471" lon="151.2900621">
  <ele>343.09</ele>
  <time>2026-09-01T19:54:48Z</time>
  <course>354.27</course>
  <speed>0.0</speed>
  <fix>3d</fix>
</trkpt>
<trkpt lat="-27.2744473" lon="151.2900622">
  <ele>343.04</ele>
  <time>2026-09-01T19:54:48Z</time>
  <course>12.29</course>
  <speed>0.022360679774997897</speed>
  <fix>3d</fix>
</trkpt>
<trkpt lat="-27.2744471" lon="151.2900621">
  <ele>343.09</ele>
  <time>2026-09-01T19:54:48Z</time>
  <course>354.27</course>
  <speed>0.0</speed>
  <fix>3d</fix>
</trkpt>
<trkpt lat="-27.2744473" lon="151.2900622">
  <ele>343.05</ele>
  <time>2026-09-01T19:54:48Z</time>
  <course>12.29</course>
  <speed>0.022360679774997897</speed>
  <fix>3d</fix>
</trkpt>
<trkpt lat="-27.2744471" lon="151.2900621">
  <ele>343.09</ele>
  <time>2026-09-01T19:54:48Z</time>
  <course>354.27</course>
  <speed>0.0</speed>
  <fix>3d</fix>
</trkpt>
<trkpt lat="-27.2744473" lon="151.2900622">
  <ele>343.05</ele>
  <time>2026-09-01T19:54:48Z</time>
  <course>12.29</course>
  <speed>0.022360679774997897</speed>
  <fix>3d</fix>
</trkpt>
<trkpt lat="-27.2744471" lon="151.2900621">
  <ele>343.09</ele>
  <time>2026-09-01T19:54:48Z</time>
  <course>354.27</course>
  <speed>0.0</speed>
  <fix>3d</fix>
</trkpt>
<trkpt lat="-27.2744473" lon="151.2900622">
  <ele>343.05</ele>
  <time>2026-09-01T19:54:48Z</time>
  <course>12.29</course>
  <speed>0.022360679774997897</speed>
  <fix>3d</fix>
</trkpt>
<trkpt lat="-27.2744471" lon="151.2900621">
  <ele>343.09</ele>
  <time>2026-09-01T19:54:48Z</time>
  <course>354.27</course>
  <speed>0.0</speed>
  <fix>3d</fix>
</trkpt>
<trkpt lat="-27.2744473" lon="151.2900622">
  <ele>343.05</ele>
  <time>2026-09-01T19:54:48Z</time>
  <course>12.3</course>
  <speed>0.022360679774997897</speed>
  <fix>3d</fix>
</trkpt>
<trkpt lat="-27.2744471" lon="151.2900621">
  <ele>343.09</ele>
  <time>2026-09-01T19:54:48Z</time>
  <course>354.27</course>
  <speed>0.0</speed>
  <fix>3d</fix>
</trkpt>
<trkpt lat="-27.2744473" lon="151.2900622">
  <ele>343.04</ele>
  <time>2026-09-01T19:54:48Z</time>
  <course>12.3</course>
  <speed>0.022360679774997897</speed>
  <fix>3d</fix>
</trkpt>
<trkpt lat="-27.2744471" lon="151.2900621">
  <ele>343.09</ele>
  <time>2026-09-01T19:54:48Z</time>
  <course>354.27</course>
  <speed>0.0</speed>
  <fix>3d</fix>
</trkpt>
<trkpt lat="-27.2744473" lon="151.2900622">
  <ele>343.04</ele>
  <time>2026-09-01T19:54:48Z</time>
  <course>12.3</course>
  <speed>0.022360679774997897</speed>
  <fix>3d</fix>
</trkpt>
<trkpt lat="-27.2744471" lon="151.2900621">
  <ele>343.09</ele>
  <time>2026-09-01T19:54:48Z</time>
  <course>354.27</course>
  <speed>0.0</speed>
  <fix>3d</fix>
</trkpt>
<trkpt lat="-27.2744473" lon="151.2900622">
  <ele>343.04</ele>
  <time>2026-09-01T19:54:48Z</time>
  <course>12.3</course>
  <speed>0.022360679774997897</speed>
  <fix>3d</fix>
</trkpt>
<trkpt lat="-27.2744471" lon="151.2900621">
  <ele>343.09</ele>
  <time>2026-09-01T19:54:48Z</time>
  <course>354.27</course>
  <speed>0.0</speed>
  <fix>3d</fix>
</trkpt>
<trkpt lat="-27.2744473" lon="151.2900622">
  <ele>343.04</ele>
  <time>2026-09-01T19:54:48Z</time>
  <course>12.31</course>
  <speed>0.022360679774997897</speed>
  <fix>3d</fix>
</trkpt>
<trkpt lat="-27.2744471" lon="151.2900621">
  <ele>343.09</ele>
  <time>2026-09-01T19:54:48Z</time>
  <course>354.27</course>
  <speed>0.0</speed>
  <fix>3d</fix>
</trkpt>
<trkpt lat="-27.2744473" lon="151.2900622">
  <ele>343.04</ele>
  <time>2026-09-01T19:54:48Z</time>
  <course>12.31</course>
  <speed>0.022360679774997897</speed>
  <fix>3d</fix>
</trkpt>
<trkpt lat="-27.2744471" lon="151.2900621">
  <ele>343.09</ele>
  <time>2026-09-01T19:54:48Z</time>
  <course>354.27</course>
  <speed>0.0</speed>
  <fix>3d</fix>
</trkpt>
<trkpt lat="-27.2744473" lon="151.2900622">
  <ele>343.04</ele>
  <time>2026-09-01T19:54:48Z</time>
  <course>12.31</course>
  <speed>0.022360679774997897</speed>
  <fix>3d</fix>
</trkpt>
<trkpt lat="-27.2744471" lon="151.2900621">
  <ele>343.09</ele>
  <time>2026-09-01T19:54:48Z</time>
  <course>354.27</course>
  <speed>0.0</speed>
  <fix>3d</fix>
</trkpt>
<trkpt lat="-27.2744473" lon="151.2900622">
  <ele>343.03</ele>
  <time>2026-09-01T19:54:48Z</time>
  <course>12.31</course>
  <speed>0.022360679774997897</speed>
  <fix>3d</fix>
</trkpt>
<trkpt lat="-27.2744471" lon="151.2900621">
  <ele>343.09</ele>
  <time>2026-09-01T19:54:48Z</time>
  <course>354.27</course>
  <speed>0.0</speed>
  <fix>3d</fix>
</trkpt>
<trkpt lat="-27.2744473" lon="151.2900622">
  <ele>343.03</ele>
  <time>2026-09-01T19:54:48Z</time>
  <course>12.31</course>
  <speed>0.022360679774997897</speed>
  <fix>3d</fix>
</trkpt>
<trkpt lat="-27.2744471" lon="151.2900621">
  <ele>343.09</ele>
  <time>2026-09-01T19:54:48Z</time>
  <course>354.27</course>
  <speed>0.0</speed>
  <fix>3d</fix>
</trkpt>
<trkpt lat="-27.2744473" lon="151.2900622">
  <ele>343.03</ele>
  <time>2026-09-01T19:54:48Z</time>
  <course>12.32</course>
  <speed>0.022360679774997897</speed>
  <fix>3d</fix>
</trkpt>
<trkpt lat="-27.2744471" lon="151.2900621">
  <ele>343.09</ele>
  <time>2026-09-01T19:54:48Z</time>
  <course>354.27</course>
  <speed>0.0</speed>
  <fix>3d</fix>
</trkpt>
<trkpt lat="-27.2744473" lon="151.2900622">
  <ele>343.03</ele>
  <time>2026-09-01T19:54:48Z</time>
  <course>12.32</course>
  <speed>0.022360679774997897</speed>
  <fix>3d</fix>
</trkpt>
<trkpt lat="-27.2744471" lon="151.2900621">
  <ele>343.09</ele>
  <time>2026-09-01T19:54:48Z</time>
  <course>354.27</course>
  <speed>0.0</speed>
  <fix>3d</fix>
</trkpt>
<trkpt lat="-27.2744473" lon="151.2900622">
  <ele>343.04</ele>
  <time>2026-09-01T19:54:48Z</time>
  <course>12.32</course>
  <speed>0.022360679774997897</speed>
  <fix>3d</fix>
</trkpt>
<trkpt lat="-27.2744471" lon="151.2900621">
  <ele>343.09</ele>
  <time>2026-09-01T19:54:48Z</time>
  <course>358.67</course>
  <speed>0.0</speed>
  <fix>3d</fix>
</trkpt>
<trkpt lat="-27.2744473" lon="151.2900622">
  <ele>343.04</ele>
  <time>2026-09-01T19:54:48Z</time>
  <course>12.32</course>
  <speed>0.022360679774997897</speed>
  <fix>3d</fix>
</trkpt>
<trkpt lat="-27.2744471" lon="151.2900621">
  <ele>343.09</ele>
  <time>2026-09-01T19:54:48Z</time>
  <course>358.67</course>
  <speed>0.0</speed>
  <fix>3d</fix>
</trkpt>
<trkpt lat="-27.2744473" lon="151.2900622">
  <ele>343.04</ele>
  <time>2026-09-01T19:54:48Z</time>
  <course>12.33</course>
  <speed>0.022360679774997897</speed>
  <fix>3d</fix>
</trkpt>
<trkpt lat="-27.2744471" lon="151.2900621">
  <ele>343.09</ele>
  <time>2026-09-01T19:54:48Z</time>
  <course>20.92</course>
  <speed>0.0</speed>
  <fix>3d</fix>
</trkpt>
<trkpt lat="-27.2744473" lon="151.2900622">
  <ele>343.04</ele>
  <time>2026-09-01T19:54:48Z</time>
  <course>12.33</course>
  <speed>0.022360679774997897</speed>
  <fix>3d</fix>
</trkpt>
<trkpt lat="-27.2744471" lon="151.2900621">
  <ele>343.09</ele>
  <time>2026-09-01T19:54:48Z</time>
  <course>20.92</course>
  <speed>0.0</speed>
  <fix>3d</fix>
</trkpt>
<trkpt lat="-27.2744473" lon="151.2900622">
  <ele>343.04</ele>
  <time>2026-09-01T19:54:48Z</time>
  <course>12.33</course>
  <speed>0.022360679774997897</speed>
  <fix>3d</fix>
</trkpt>
<trkpt lat="-27.2744471" lon="151.2900621">
  <ele>343.09</ele>
  <time>2026-09-01T19:54:48Z</time>
  <course>42.29</course>
  <speed>0.0</speed>
  <fix>3d</fix>
</trkpt>
<trkpt lat="-27.2744473" lon="151.2900622">
  <ele>343.04</ele>
  <time>2026-09-01T19:54:48Z</time>
  <course>12.33</course>
  <speed>0.022360679774997897</speed>
  <fix>3d</fix>
</trkpt>
<trkpt lat="-27.2744471" lon="151.2900621">
  <ele>343.09</ele>
  <time>2026-09-01T19:54:48Z</time>
  <course>42.29</course>
  <speed>0.0</speed>
  <fix>3d</fix>
</trkpt>
<trkpt lat="-27.2744473" lon="151.2900622">
  <ele>343.04</ele>
  <time>2026-09-01T19:54:48Z</time>
  <course>12.34</course>
  <speed>0.022360679774997897</speed>
  <fix>3d</fix>
</trkpt>
<trkpt lat="-27.2744471" lon="151.2900621">
  <ele>343.09</ele>
  <time>2026-09-01T19:54:48Z</time>
  <course>39.61</course>
  <speed>0.0</speed>
  <fix>3d</fix>
</trkpt>
<trkpt lat="-27.2744473" lon="151.2900622">
  <ele>343.04</ele>
  <time>2026-09-01T19:54:48Z</time>
  <course>12.34</course>
  <speed>0.022360679774997897</speed>
  <fix>3d</fix>
</trkpt>
<trkpt lat="-27.2744471" lon="151.2900621">
  <ele>343.09</ele>
  <time>2026-09-01T19:54:48Z</time>
  <course>39.61</course>
  <speed>0.0</speed>
  <fix>3d</fix>
</trkpt>
<trkpt lat="-27.2744473" lon="151.2900622">
  <ele>343.04</ele>
  <time>2026-09-01T19:54:48Z</time>
  <course>12.34</course>
  <speed>0.022360679774997897</speed>
  <fix>3d</fix>
</trkpt>
<trkpt lat="-27.2744471" lon="151.2900621">
  <ele>343.09</ele>
  <time>2026-09-01T19:54:48Z</time>
  <course>26.81</course>
  <speed>0.0</speed>
  <fix>3d</fix>
</trkpt>
<trkpt lat="-27.2744473" lon="151.2900622">
  <ele>343.04</ele>
  <time>2026-09-01T19:54:48Z</time>
  <course>12.34</course>
  <speed>0.022360679774997897</speed>
  <fix>3d</fix>
</trkpt>
<trkpt lat="-27.2744471" lon="151.2900621">
  <ele>343.09</ele>
  <time>2026-09-01T19:54:48Z</time>
  <course>26.81</course>
  <speed>0.0</speed>
  <fix>3d</fix>
</trkpt>
<trkpt lat="-27.2744473" lon="151.2900622">
  <ele>343.04</ele>
  <time>2026-09-01T19:54:48Z</time>
  <course>12.34</course>
  <speed>0.022360679774997897</speed>
  <fix>3d</fix>
</trkpt>
<trkpt lat="-27.2744471" lon="151.2900621">
  <ele>343.09</ele>
  <time>2026-09-01T19:54:48Z</time>
  <course>22.9</course>
  <speed>0.0</speed>
  <fix>3d</fix>
</trkpt>
<trkpt lat="-27.2744473" lon="151.2900622">
  <ele>343.04</ele>
  <time>2026-09-01T19:54:48Z</time>
  <course>12.35</course>
  <speed>0.022360679774997897</speed>
  <fix>3d</fix>
</trkpt>
<trkpt lat="-27.2744471" lon="151.2900621">
  <ele>343.09</ele>
  <time>2026-09-01T19:54:48Z</time>
  <course>22.9</course>
  <speed>0.0</speed>
  <fix>3d</fix>
</trkpt>
<trkpt lat="-27.2744473" lon="151.2900622">
  <ele>343.04</ele>
  <time>2026-09-01T19:54:48Z</time>
  <course>12.35</course>
  <speed>0.022360679774997897</speed>
  <fix>3d</fix>
</trkpt>
<trkpt lat="-27.2744471" lon="151.2900621">
  <ele>343.09</ele>
  <time>2026-09-01T19:54:48Z</time>
  <course>23.39</course>
  <speed>0.0</speed>
  <fix>3d</fix>
</trkpt>
<trkpt lat="-27.2744473" lon="151.2900622">
  <ele>343.03</ele>
  <time>2026-09-01T19:54:48Z</time>
  <course>12.35</course>
  <speed>0.022360679774997897</speed>
  <fix>3d</fix>
</trkpt>
<trkpt lat="-27.2744471" lon="151.2900621">
  <ele>343.09</ele>
  <time>2026-09-01T19:54:48Z</time>
  <course>23.39</course>
  <speed>0.0</speed>
  <fix>3d</fix>
</trkpt>
<trkpt lat="-27.2744473" lon="151.2900622">
  <ele>343.03</ele>
  <time>2026-09-01T19:54:48Z</time>
  <course>12.35</course>
  <speed>0.022360679774997897</speed>
  <fix>3d</fix>
</trkpt>
<trkpt lat="-27.2744471" lon="151.2900621">
  <ele>343.09</ele>
  <time>2026-09-01T19:54:48Z</time>
  <course>23.71</course>
  <speed>0.0</speed>
  <fix>3d</fix>
</trkpt>
<trkpt lat="-27.2744473" lon="151.2900622">
  <ele>343.03</ele>
  <time>2026-09-01T19:54:48Z</time>
  <course>12.36</course>
  <speed>0.022360679774997897</speed>
  <fix>3d</fix>
</trkpt>
<trkpt lat="-27.2744471" lon="151.2900621">
  <ele>343.09</ele>
  <time>2026-09-01T19:54:48Z</time>
  <course>23.71</course>
  <speed>0.0</speed>
  <fix>3d</fix>
</trkpt>
<trkpt lat="-27.2744473" lon="151.2900622">
  <ele>343.03</ele>
  <time>2026-09-01T19:54:48Z</time>
  <course>12.36</course>
  <speed>0.022360679774997897</speed>
  <fix>3d</fix>
</trkpt>
<trkpt lat="-27.2744471" lon="151.2900621">
  <ele>343.09</ele>
  <time>2026-09-01T19:54:48Z</time>
  <course>23.81</course>
  <speed>0.0</speed>
  <fix>3d</fix>
</trkpt>
<trkpt lat="-27.2744473" lon="151.2900622">
  <ele>343.03</ele>
  <time>2026-09-01T19:54:48Z</time>
  <course>12.36</course>
  <speed>0.022360679774997897</speed>
  <fix>3d</fix>
</trkpt>
<trkpt lat="-27.2744471" lon="151.2900621">
  <ele>343.09</ele>
  <time>2026-09-01T19:54:48Z</time>
  <course>23.81</course>
  <speed>0.0</speed>
  <fix>3d</fix>
</trkpt>
<trkpt lat="-27.2744473" lon="151.2900622">
  <ele>343.02</ele>
  <time>2026-09-01T19:54:48Z</time>
  <course>12.36</course>
  <speed>0.022360679774997897</speed>
  <fix>3d</fix>
</trkpt>
<trkpt lat="-27.2744471" lon="151.2900621">
  <ele>343.09</ele>
  <time>2026-09-01T19:54:48Z</time>
  <course>23.84</course>
  <speed>0.0</speed>
  <fix>3d</fix>
</trkpt>
<trkpt lat="-27.2744473" lon="151.2900622">
  <ele>343.02</ele>
  <time>2026-09-01T19:54:48Z</time>
  <course>12.37</course>
  <speed>0.022360679774997897</speed>
  <fix>3d</fix>
</trkpt>
<trkpt lat="-27.2744471" lon="151.2900621">
  <ele>343.09</ele>
  <time>2026-09-01T19:54:48Z</time>
  <course>23.84</course>
  <speed>0.0</speed>
  <fix>3d</fix>
</trkpt>
<trkpt lat="-27.2744473" lon="151.2900622">
  <ele>343.02</ele>
  <time>2026-09-01T19:54:48Z</time>
  <course>12.37</course>
  <speed>0.022360679774997897</speed>
  <fix>3d</fix>
</trkpt>
<trkpt lat="-27.2744473" lon="151.2900622">
  <ele>343.02</ele>
  <time>2026-09-01T19:54:48Z</time>
  <course>12.37</course>
  <speed>0.022360679774997897</speed>
  <fix>3d</fix>
</trkpt>
<trkpt lat="-27.2744471" lon="151.2900621">
  <ele>343.09</ele>
  <time>2026-09-01T19:54:48Z</time>
  <course>6.93</course>
  <speed>0.0</speed>
  <fix>3d</fix>
</trkpt>
<trkpt lat="-27.2744473" lon="151.2900622">
  <ele>343.02</ele>
  <time>2026-09-01T19:54:48Z</time>
  <course>12.37</course>
  <speed>0.022360679774997897</speed>
  <fix>3d</fix>
</trkpt>
<trkpt lat="-27.2744473" lon="151.2900622">
  <ele>343.02</ele>
  <time>2026-09-01T19:54:48Z</time>
  <course>12.37</course>
  <speed>0.022360679774997897</speed>
  <fix>3d</fix>
</trkpt>
<trkpt lat="-27.2744471" lon="151.2900621">
  <ele>343.09</ele>
  <time>2026-09-01T19:54:48Z</time>
  <course>6.93</course>
  <speed>0.0</speed>
  <fix>3d</fix>
</trkpt>
<trkpt lat="-27.2744473" lon="151.2900622">
  <ele>343.02</ele>
  <time>2026-09-01T19:54:48Z</time>
  <course>12.37</course>
  <speed>0.022360679774997897</speed>
  <fix>3d</fix>
</trkpt>
<trkpt lat="-27.2744473" lon="151.2900622">
  <ele>343.02</ele>
  <time>2026-09-01T19:54:48Z</time>
  <course>12.37</course>
  <speed>0.022360679774997897</speed>
  <fix>3d</fix>
</trkpt>
<trkpt lat="-27.2744471" lon="151.2900621">
  <ele>343.09</ele>
  <time>2026-09-01T19:54:48Z</time>
  <course>142.08</course>
  <speed>0.0</speed>
  <fix>3d</fix>
</trkpt>
<trkpt lat="-27.2744473" lon="151.2900622">
  <ele>343.02</ele>
  <time>2026-09-01T19:54:48Z</time>
  <course>12.37</course>
  <speed>0.022360679774997897</speed>
  <fix>3d</fix>
</trkpt>
<trkpt lat="-27.2744473" lon="151.2900622">
  <ele>343.02</ele>
  <time>2026-09-01T19:54:48Z</time>
  <course>12.37</course>
  <speed>0.022360679774997897</speed>
  <fix>3d</fix>
</trkpt>
<trkpt lat="-27.2744471" lon="151.2900621">
  <ele>343.09</ele>
  <time>2026-09-01T19:54:48Z</time>
  <course>142.08</course>
  <speed>0.0</speed>
  <fix>3d</fix>
</trkpt>
<trkpt lat="-27.2744473" lon="151.2900622">
  <ele>343.02</ele>
  <time>2026-09-01T19:54:48Z</time>
  <course>12.37</course>
  <speed>0.022360679774997897</speed>
  <fix>3d</fix>
</trkpt>
<trkpt lat="-27.2744473" lon="151.2900622">
  <ele>343.02</ele>
  <time>2026-09-01T19:54:48Z</time>
  <course>12.38</course>
  <speed>0.022360679774997897</speed>
  <fix>3d</fix>
</trkpt>
<trkpt lat="-27.2744471" lon="151.2900621">
  <ele>343.09</ele>
  <time>2026-09-01T19:54:48Z</time>
  <course>142.68</course>
  <speed>0.0</speed>
  <fix>3d</fix>
</trkpt>
<trkpt lat="-27.2744473" lon="151.2900622">
  <ele>343.02</ele>
  <time>2026-09-01T19:54:48Z</time>
  <course>12.38</course>
  <speed>0.022360679774997897</speed>
  <fix>3d</fix>
</trkpt>
<trkpt lat="-27.2744473" lon="151.2900622">
  <ele>343.02</ele>
  <time>2026-09-01T19:54:48Z</time>
  <course>12.38</course>
  <speed>0.022360679774997897</speed>
  <fix>3d</fix>
</trkpt>
<trkpt lat="-27.2744471" lon="151.2900621">
  <ele>343.09</ele>
  <time>2026-09-01T19:54:48Z</time>
  <course>142.68</course>
  <speed>0.0</speed>
  <fix>3d</fix>
</trkpt>
<trkpt lat="-27.2744473" lon="151.2900622">
  <ele>343.02</ele>
  <time>2026-09-01T19:54:48Z</time>
  <course>12.38</course>
  <speed>0.022360679774997897</speed>
  <fix>3d</fix>
</trkpt>
<trkpt lat="-27.2744473" lon="151.2900622">
  <ele>343.02</ele>
  <time>2026-09-01T19:54:48Z</time>
  <course>12.38</course>
  <speed>0.022360679774997897</speed>
  <fix>3d</fix>
</trkpt>
<trkpt lat="-27.2744471" lon="151.2900621">
  <ele>343.09</ele>
  <time>2026-09-01T19:54:48Z</time>
  <course>320.35</course>
  <speed>0.0</speed>
  <fix>3d</fix>
</trkpt>
<trkpt lat="-27.2744473" lon="151.2900622">
  <ele>343.02</ele>
  <time>2026-09-01T19:54:48Z</time>
  <course>12.38</course>
  <speed>0.022360679774997897</speed>
  <fix>3d</fix>
</trkpt>
<trkpt lat="-27.2744473" lon="151.2900622">
  <ele>343.02</ele>
  <time>2026-09-01T19:54:48Z</time>
  <course>12.38</course>
  <speed>0.022360679774997897</speed>
  <fix>3d</fix>
</trkpt>
<trkpt lat="-27.2744471" lon="151.2900621">
  <ele>343.09</ele>
  <time>2026-09-01T19:54:48Z</time>
  <course>320.35</course>
  <speed>0.0</speed>
  <fix>3d</fix>
</trkpt>
<trkpt lat="-27.2744473" lon="151.2900622">
  <ele>343.02</ele>
  <time>2026-09-01T19:54:48Z</time>
  <course>12.38</course>
  <speed>0.022360679774997897</speed>
  <fix>3d</fix>
</trkpt>
<trkpt lat="-27.2744473" lon="151.2900622">
  <ele>343.02</ele>
  <time>2026-09-01T19:54:48Z</time>
  <course>12.39</course>
  <speed>0.022360679774997897</speed>
  <fix>3d</fix>
</trkpt>
<trkpt lat="-27.2744471" lon="151.2900621">
  <ele>343.09</ele>
  <time>2026-09-01T19:54:48Z</time>
  <course>322.83</course>
  <speed>0.0</speed>
  <fix>3d</fix>
</trkpt>
<trkpt lat="-27.2744473" lon="151.2900622">
  <ele>343.02</ele>
  <time>2026-09-01T19:54:48Z</time>
  <course>12.39</course>
  <speed>0.022360679774997897</speed>
  <fix>3d</fix>
</trkpt>
<trkpt lat="-27.2744473" lon="151.2900622">
  <ele>343.03</ele>
  <time>2026-09-01T19:54:48Z</time>
  <course>12.39</course>
  <speed>0.022360679774997897</speed>
  <fix>3d</fix>
</trkpt>
<trkpt lat="-27.2744471" lon="151.2900621">
  <ele>343.09</ele>
  <time>2026-09-01T19:54:48Z</time>
  <course>322.83</course>
  <speed>0.0</speed>
  <fix>3d</fix>
</trkpt>
<trkpt lat="-27.2744473" lon="151.2900622">
  <ele>343.03</ele>
  <time>2026-09-01T19:54:48Z</time>
  <course>12.39</course>
  <speed>0.022360679774997897</speed>
  <fix>3d</fix>
</trkpt>
<trkpt lat="-27.2744473" lon="151.2900622">
  <ele>343.04</ele>
  <time>2026-09-01T19:54:48Z</time>
  <course>12.39</course>
  <speed>0.022360679774997897</speed>
  <fix>3d</fix>
</trkpt>
<trkpt lat="-27.2744471" lon="151.2900621">
  <ele>343.09</ele>
  <time>2026-09-01T19:54:48Z</time>
  <course>1.86</course>
  <speed>0.0</speed>
  <fix>3d</fix>
</trkpt>
<trkpt lat="-27.2744473" lon="151.2900622">
  <ele>343.05</ele>
  <time>2026-09-01T19:54:48Z</time>
  <course>12.39</course>
  <speed>0.022360679774997897</speed>
  <fix>3d</fix>
</trkpt>
<trkpt lat="-27.2744473" lon="151.2900622">
  <ele>343.08</ele>
  <time>2026-09-01T19:54:48Z</time>
  <course>12.39</course>
  <speed>0.022360679774997897</speed>
  <fix>3d</fix>
</trkpt>
<trkpt lat="-27.2744471" lon="151.2900621">
  <ele>343.09</ele>
  <time>2026-09-01T19:54:48Z</time>
  <course>1.86</course>
  <speed>0.0</speed>
  <fix>3d</fix>
</trkpt>
<trkpt lat="-27.2744473" lon="151.2900622">
  <ele>343.08</ele>
  <time>2026-09-01T19:54:48Z</time>
  <course>12.39</course>
  <speed>0.022360679774997897</speed>
  <fix>3d</fix>
</trkpt>
<trkpt lat="-27.2744473" lon="151.2900622">
  <ele>343.14</ele>
  <time>2026-09-01T19:54:48Z</time>
  <course>12.39</course>
  <speed>0.022360679774997897</speed>
  <fix>3d</fix>
</trkpt>
<trkpt lat="-27.2744471" lon="151.2900621">
  <ele>343.12</ele>
  <time>2026-09-01T19:54:48Z</time>
  <course>8.6</course>
  <speed>0.0</speed>
  <fix>3d</fix>
</trkpt>
<trkpt lat="-27.2744473" lon="151.2900622">
  <ele>343.14</ele>
  <time>2026-09-01T19:54:48Z</time>
  <course>12.39</course>
  <speed>0.022360679774997897</speed>
  <fix>3d</fix>
</trkpt>
<trkpt lat="-27.2744473" lon="151.2900622">
  <ele>343.22</ele>
  <time>2026-09-01T19:54:48Z</time>
  <course>12.4</course>
  <speed>0.01</speed>
  <fix>3d</fix>
</trkpt>
<trkpt lat="-27.2744471" lon="151.2900621">
  <ele>343.12</ele>
  <time>2026-09-01T19:54:48Z</time>
  <course>8.6</course>
  <speed>0.0</speed>
  <fix>3d</fix>
</trkpt>
<trkpt lat="-27.2744473" lon="151.2900622">
  <ele>343.27</ele>
  <time>2026-09-01T19:54:48Z</time>
  <course>12.4</course>
  <speed>0.01</speed>
  <fix>3d</fix>
</trkpt>
<trkpt lat="-27.2744473" lon="151.2900622">
  <ele>343.38</ele>
  <time>2026-09-01T19:54:48Z</time>
  <course>12.41</course>
  <speed>0.0316227766016838</speed>
  <fix>3d</fix>
</trkpt>
<trkpt lat="-27.2744471" lon="151.2900621">
  <ele>343.21</ele>
  <time>2026-09-01T19:54:48Z</time>
  <course>0.42</course>
  <speed>0.01</speed>
  <fix>3d</fix>
</trkpt>
<trkpt lat="-27.2744473" lon="151.2900622">
  <ele>343.43</ele>
  <time>2026-09-01T19:54:48Z</time>
  <course>12.41</course>
  <speed>0.0412310562561766</speed>
  <fix>3d</fix>
</trkpt>
<trkpt lat="-27.2744473" lon="151.2900622">
  <ele>343.59</ele>
  <time>2026-09-01T19:54:48Z</time>
  <course>12.4</course>
  <speed>0.07280109889280519</speed>
  <fix>3d</fix>
</trkpt>
<trkpt lat="-27.2744471" lon="151.2900621">
  <ele>343.21</ele>
  <time>2026-09-01T19:54:48Z</time>
  <course>0.42</course>
  <speed>0.01</speed>
  <fix>3d</fix>
</trkpt>
<trkpt lat="-27.2744473" lon="151.2900622">
  <ele>343.6</ele>
  <time>2026-09-01T19:54:48Z</time>
  <course>12.4</course>
  <speed>0.07280109889280519</speed>
  <fix>3d</fix>
</trkpt>
<trkpt lat="-27.2744471" lon="151.2900622">
  <ele>343.84</ele>
  <time>2026-09-01T19:54:48Z</time>
  <course>12.38</course>
  <speed>0.12165525060596438</speed>
  <fix>3d</fix>
</trkpt>
<trkpt lat="-27.274447" lon="151.2900621">
  <ele>343.46</ele>
  <time>2026-09-01T19:54:48Z</time>
  <course>0.97</course>
  <speed>0.06</speed>
  <fix>3d</fix>
</trkpt>
<trkpt lat="-27.2744471" lon="151.2900622">
  <ele>343.85</ele>
  <time>2026-09-01T19:54:48Z</time>
  <course>12.38</course>
  <speed>0.12165525060596438</speed>
  <fix>3d</fix>
</trkpt>
<trkpt lat="-27.274447" lon="151.2900622">
  <ele>344.1</ele>
  <time>2026-09-01T19:54:48Z</time>
  <course>12.34</course>
  <speed>0.16278820596099705</speed>
  <fix>3d</fix>
</trkpt>
<trkpt lat="-27.274447" lon="151.2900621">
  <ele>343.46</ele>
  <time>2026-09-01T19:54:48Z</time>
  <course>0.97</course>
  <speed>0.06</speed>
  <fix>3d</fix>
</trkpt>
<trkpt lat="-27.274447" lon="151.2900622">
  <ele>344.14</ele>
  <time>2026-09-01T19:54:48Z</time>
  <course>12.33</course>
  <speed>0.16278820596099705</speed>
  <fix>3d</fix>
</trkpt>
<trkpt lat="-27.2744468" lon="151.2900623">
  <ele>344.38</ele>
  <time>2026-09-01T19:54:48Z</time>
  <course>12.29</course>
  <speed>0.2039607805437114</speed>
  <fix>3d</fix>
</trkpt>
<trkpt lat="-27.2744468" lon="151.2900621">
  <ele>343.89</ele>
  <time>2026-09-01T19:54:48Z</time>
  <course>2.37</course>
  <speed>0.14</speed>
  <fix>3d</fix>
</trkpt>
<trkpt lat="-27.2744467" lon="151.2900623">
  <ele>344.46</ele>
  <time>2026-09-01T19:54:48Z</time>
  <course>12.27</course>
  <speed>0.21377558326431947</speed>
  <fix>3d</fix>
</trkpt>
<trkpt lat="-27.2744466" lon="151.2900623">
  <ele>344.66</ele>
  <time>2026-09-01T19:54:48Z</time>
  <course>12.23</course>
  <speed>0.24331050121192876</speed>
  <fix>3d</fix>
</trkpt>
<trkpt lat="-27.2744468" lon="151.2900621">
  <ele>343.89</ele>
  <time>2026-09-01T19:54:48Z</time>
  <course>2.37</course>
  <speed>0.14</speed>
  <fix>3d</fix>
</trkpt>
<trkpt lat="-27.2744465" lon="151.2900623">
  <ele>344.76</ele>
  <time>2026-09-01T19:54:48Z</time>
  <course>12.22</course>
  <speed>0.25495097567963926</speed>
  <fix>3d</fix>
</trkpt>
<trkpt lat="-27.2744463" lon="151.2900623">
  <ele>344.96</ele>
  <time>2026-09-01T19:54:48Z</time>
  <course>12.19</course>
  <speed>0.28442925306655786</speed>
  <fix>3d</fix>
</trkpt>
<trkpt lat="-27.2744464" lon="151.2900621">
  <ele>344.42</ele>
  <time>2026-09-01T19:54:48Z</time>
  <course>3.65</course>
  <speed>0.22</speed>
  <fix>3d</fix>
</trkpt>
<trkpt lat="-27.2744462" lon="151.2900623">
  <ele>345.05</ele>
  <time>2026-09-01T19:54:48Z</time>
  <course>12.18</course>
  <speed>0.2942787793912432</speed>
  <fix>3d</fix>
</trkpt>
<trkpt lat="-27.274446" lon="151.2900624">
  <ele>345.27</ele>
  <time>2026-09-01T19:54:48Z</time>
  <course>11.34</course>
  <speed>0.31575306807693887</speed>
  <fix>3d</fix>
</trkpt>
<trkpt lat="-27.2744464" lon="151.2900621">
  <ele>344.42</ele>
  <time>2026-09-01T19:54:48Z</time>
  <course>3.65</course>
  <speed>0.22</speed>
  <fix>3d</fix>
</trkpt>
<trkpt lat="-27.2744459" lon="151.2900624">
  <ele>345.35</ele>
  <time>2026-09-01T19:54:48Z</time>
  <course>11.21</course>
  <speed>0.3255764119219941</speed>
  <fix>3d</fix>
</trkpt>
<trkpt lat="-27.2744457" lon="151.2900624">
  <ele>345.58</ele>
  <time>2026-09-01T19:54:48Z</time>
  <course>10.87</course>
  <speed>0.34525353003264136</speed>
  <fix>3d</fix>
</trkpt>
<trkpt lat="-27.274446" lon="151.2900621">
  <ele>345.0</ele>
  <time>2026-09-01T19:54:48Z</time>
  <course>4.64</course>
  <speed>0.3</speed>
  <fix>3d</fix>
</trkpt>
<trkpt lat="-27.2744457" lon="151.2900624">
  <ele>345.6</ele>
  <time>2026-09-01T19:54:48Z</time>
  <course>10.86</course>
  <speed>0.34525353003264136</speed>
  <fix>3d</fix>
</trkpt>
<trkpt lat="-27.2744453" lon="151.2900624">
  <ele>345.9</ele>
  <time>2026-09-01T19:54:48Z</time>
  <course>10.66</course>
  <speed>0.37656340767525465</speed>
  <fix>3d</fix>
</trkpt>
<trkpt lat="-27.274446" lon="151.2900621">
  <ele>345.0</ele>
  <time>2026-09-01T19:54:48Z</time>
  <course>4.64</course>
  <speed>0.3</speed>
  <fix>3d</fix>
</trkpt>
<trkpt lat="-27.2744453" lon="151.2900624">
  <ele>345.92</ele>
  <time>2026-09-01T19:54:48Z</time>
  <course>10.66</course>
  <speed>0.37656340767525465</speed>
  <fix>3d</fix>
</trkpt>
<trkpt lat="-27.274445" lon="151.2900625">
  <ele>346.22</ele>
  <time>2026-09-01T19:54:48Z</time>
  <course>10.72</course>
  <speed>0.396232255123179</speed>
  <fix>3d</fix>
</trkpt>
<trkpt lat="-27.2744454" lon="151.2900621">
  <ele>345.61</ele>
  <time>2026-09-01T19:54:48Z</time>
  <course>5.42</course>
  <speed>0.36</speed>
  <fix>3d</fix>
</trkpt>
<trkpt lat="-27.2744448" lon="151.2900625">
  <ele>346.32</ele>
  <time>2026-09-01T19:54:48Z</time>
  <course>10.78</course>
  <speed>0.396232255123179</speed>
  <fix>3d</fix>
</trkpt>
<trkpt lat="-27.2744446" lon="151.2900625">
  <ele>346.54</ele>
  <time>2026-09-01T19:54:48Z</time>
  <course>10.95</course>
  <speed>0.40607881008493907</speed>
  <fix>3d</fix>
</trkpt>
<trkpt lat="-27.2744454" lon="151.2900621">
  <ele>345.61</ele>
  <time>2026-09-01T19:54:48Z</time>
  <course>5.42</course>
  <speed>0.36</speed>
  <fix>3d</fix>
</trkpt>
<trkpt lat="-27.2744445" lon="151.2900625">
  <ele>346.62</ele>
  <time>2026-09-01T19:54:48Z</time>
  <course>11.02</course>
  <speed>0.40607881008493907</speed>
  <fix>3d</fix>
</trkpt>
<trkpt lat="-27.2744442" lon="151.2900626">
  <ele>346.85</ele>
  <time>2026-09-01T19:54:48Z</time>
  <course>11.21</course>
  <speed>0.4159326868617084</speed>
  <fix>3d</fix>
</trkpt>
<trkpt lat="-27.2744447" lon="151.2900622">
  <ele>346.24</ele>
  <time>2026-09-01T19:54:48Z</time>
  <course>5.98</course>
  <speed>0.41</speed>
  <fix>3d</fix>
</trkpt>
<trkpt lat="-27.2744441" lon="151.2900626">
  <ele>346.94</ele>
  <time>2026-09-01T19:54:48Z</time>
  <course>11.29</course>
  <speed>0.4159326868617084</speed>
  <fix>3d</fix>
</trkpt>
<trkpt lat="-27.2744438" lon="151.2900626">
  <ele>347.15</ele>
  <time>2026-09-01T19:54:48Z</time>
  <course>11.45</course>
  <speed>0.4159326868617084</speed>
  <fix>3d</fix>
</trkpt>
<trkpt lat="-27.2744447" lon="151.2900622">
  <ele>346.24</ele>
  <time>2026-09-01T19:54:48Z</time>
  <course>5.98</course>
  <speed>0.41</speed>
  <fix>3d</fix>
</trkpt>
<trkpt lat="-27.2744437" lon="151.2900626">
  <ele>347.23</ele>
  <time>2026-09-01T19:54:48Z</time>
  <course>11.5</course>
  <speed>0.4159326868617084</speed>
  <fix>3d</fix>
</trkpt>
<trkpt lat="-27.2744434" lon="151.2900626">
  <ele>347.45</ele>
  <time>2026-09-01T19:54:48Z</time>
  <course>11.61</course>
  <speed>0.4159326868617084</speed>
  <fix>3d</fix>
</trkpt>
<trkpt lat="-27.274444" lon="151.2900623">
  <ele>346.85</ele>
  <time>2026-09-01T19:54:48Z</time>
  <course>6.46</course>
  <speed>0.43</speed>
  <fix>3d</fix>
</trkpt>
<trkpt lat="-27.2744433" lon="151.2900627">
  <ele>347.54</ele>
  <time>2026-09-01T19:54:48Z</time>
  <course>11.64</course>
  <speed>0.40607881008493907</speed>
  <fix>3d</fix>
</trkpt>
<trkpt lat="-27.274443" lon="151.2900627">
  <ele>347.75</ele>
  <time>2026-09-01T19:54:48Z</time>
  <course>11.71</course>
  <speed>0.40607881008493907</speed>
  <fix>3d</fix>
</trkpt>
<trkpt lat="-27.274444" lon="151.2900623">
  <ele>346.85</ele>
  <time>2026-09-01T19:54:48Z</time>
  <course>6.46</course>
  <speed>0.43</speed>
  <fix>3d</fix>
</trkpt>
<trkpt lat="-27.2744429" lon="151.2900627">
  <ele>347.82</ele>
  <time>2026-09-01T19:54:48Z</time>
  <course>11.72</course>
  <speed>0.396232255123179</speed>
  <fix>3d</fix>
</trkpt>
<trkpt lat="-27.2744426" lon="151.2900627">
  <ele>348.03</ele>
  <time>2026-09-01T19:54:48Z</time>
  <course>11.74</course>
  <speed>0.38639358172723315</speed>
  <fix>3d</fix>
</trkpt>
<trkpt lat="-27.2744432" lon="151.2900624">
  <ele>347.45</ele>
  <time>2026-09-01T19:54:48Z</time>
  <course>6.98</course>
  <speed>0.43</speed>
  <fix>3d</fix>
</trkpt>
<trkpt lat="-27.2744426" lon="151.2900628">
  <ele>348.1</ele>
  <time>2026-09-01T19:54:48Z</time>
  <course>11.74</course>
  <speed>0.38639358172723315</speed>
  <fix>3d</fix>
</trkpt>
<trkpt lat="-27.2744423" lon="151.2900628">
  <ele>348.31</ele>
  <time>2026-09-01T19:54:48Z</time>
  <course>11.74</course>
  <speed>0.366742416417845</speed>
  <fix>3d</fix>
</trkpt>
<trkpt lat="-27.2744432" lon="151.2900624">
  <ele>347.45</ele>
  <time>2026-09-01T19:54:48Z</time>
  <course>6.98</course>
  <speed>0.43</speed>
  <fix>3d</fix>
</trkpt>
<trkpt lat="-27.2744422" lon="151.2900628">
  <ele>348.38</ele>
  <time>2026-09-01T19:54:48Z</time>
  <course>11.74</course>
  <speed>0.366742416417845</speed>
  <fix>3d</fix>
</trkpt>
<trkpt lat="-27.2744419" lon="151.2900628">
  <ele>348.59</ele>
  <time>2026-09-01T19:54:48Z</time>
  <course>11.71</course>
  <speed>0.34713109915419565</speed>
  <fix>3d</fix>
</trkpt>
<trkpt lat="-27.2744424" lon="151.2900625">
  <ele>348.03</ele>
  <time>2026-09-01T19:54:48Z</time>
  <course>7.58</course>
  <speed>0.41</speed>
  <fix>3d</fix>
</trkpt>
<trkpt lat="-27.2744419" lon="151.2900628">
  <ele>348.66</ele>
  <time>2026-09-01T19:54:48Z</time>
  <course>11.71</course>
  <speed>0.34713109915419565</speed>
  <fix>3d</fix>
</trkpt>
<trkpt lat="-27.2744416" lon="151.2900629">
  <ele>348.85</ele>
  <time>2026-09-01T19:54:48Z</time>
  <course>11.69</course>
  <speed>0.3255764119219941</speed>
  <fix>3d</fix>
</trkpt>
<trkpt lat="-27.2744424" lon="151.2900625">
  <ele>348.03</ele>
  <time>2026-09-01T19:54:48Z</time>
  <course>7.58</course>
  <speed>0.41</speed>
  <fix>3d</fix>
</trkpt>
<trkpt lat="-27.2744416" lon="151.2900629">
  <ele>348.86</ele>
  <time>2026-09-01T19:54:48Z</time>
  <course>11.69</course>
  <speed>0.3255764119219941</speed>
  <fix>3d</fix>
</trkpt>
<trkpt lat="-27.2744413" lon="151.2900629">
  <ele>349.11</ele>
  <time>2026-09-01T19:54:48Z</time>
  <course>11.67</course>
  <speed>0.29614185789921693</speed>
  <fix>3d</fix>
</trkpt>
<trkpt lat="-27.2744417" lon="151.2900626">
  <ele>348.58</ele>
  <time>2026-09-01T19:54:48Z</time>
  <course>8.26</course>
  <speed>0.37</speed>
  <fix>3d</fix>
</trkpt>
<trkpt lat="-27.2744413" lon="151.2900629">
  <ele>349.12</ele>
  <time>2026-09-01T19:54:48Z</time>
  <course>11.67</course>
  <speed>0.29614185789921693</speed>
  <fix>3d</fix>
</trkpt>
<trkpt lat="-27.2744411" lon="151.290063">
  <ele>349.37</ele>
  <time>2026-09-01T19:54:48Z</time>
  <course>11.67</course>
  <speed>0.2668332812825267</speed>
  <fix>3d</fix>
</trkpt>
<trkpt lat="-27.2744417" lon="151.2900626">
  <ele>348.58</ele>
  <time>2026-09-01T19:54:48Z</time>
  <course>8.26</course>
  <speed>0.37</speed>
  <fix>3d</fix>
</trkpt>
<trkpt lat="-27.274441" lon="151.290063">
  <ele>349.43</ele>
  <time>2026-09-01T19:54:48Z</time>
  <course>11.67</course>
  <speed>0.25495097567963926</speed>
  <fix>3d</fix>
</trkpt>
<trkpt lat="-27.2744408" lon="151.290063">
  <ele>349.62</ele>
  <time>2026-09-01T19:54:48Z</time>
  <course>11.67</course>
  <speed>0.2353720459187964</speed>
  <fix>3d</fix>
</trkpt>
<trkpt lat="-27.2744411" lon="151.2900627">
  <ele>349.1</ele>
  <time>2026-09-01T19:54:48Z</time>
  <course>9.11</course>
  <speed>0.32</speed>
  <fix>3d</fix>
</trkpt>
<trkpt lat="-27.2744408" lon="151.290063">
  <ele>349.69</ele>
  <time>2026-09-01T19:54:48Z</time>
  <course>11.68</course>
  <speed>0.22561028345356957</speed>
  <fix>3d</fix>
</trkpt>
<trkpt lat="-27.2744406" lon="151.290063">
  <ele>349.87</ele>
  <time>2026-09-01T19:54:48Z</time>
  <course>11.7</course>
  <speed>0.194164878389476</speed>
  <fix>3d</fix>
</trkpt>
<trkpt lat="-27.2744411" lon="151.2900627">
  <ele>349.1</ele>
  <time>2026-09-01T19:54:48Z</time>
  <course>9.11</course>
  <speed>0.32</speed>
  <fix>3d</fix>
</trkpt>
<trkpt lat="-27.2744406" lon="151.290063">
  <ele>349.93</ele>
  <time>2026-09-01T19:54:48Z</time>
  <course>11.7</course>
  <speed>0.18439088914585774</speed>
  <fix>3d</fix>
</trkpt>
<trkpt lat="-27.2744404" lon="151.290063">
  <ele>350.11</ele>
  <time>2026-09-01T19:54:48Z</time>
  <course>11.73</course>
  <speed>0.1649242250247064</speed>
  <fix>3d</fix>
</trkpt>
<trkpt lat="-27.2744405" lon="151.2900628">
  <ele>349.6</ele>
  <time>2026-09-01T19:54:48Z</time>
  <course>10.29</course>
  <speed>0.26</speed>
  <fix>3d</fix>
</trkpt>
<trkpt lat="-27.2744404" lon="151.290063">
  <ele>350.18</ele>
  <time>2026-09-01T19:54:48Z</time>
  <course>11.73</course>
  <speed>0.15524174696260024</speed>
  <fix>3d</fix>
</trkpt>
<trkpt lat="-27.2744403" lon="151.290063">
  <ele>350.35</ele>
  <time>2026-09-01T19:54:48Z</time>
  <course>11.76</course>
  <speed>0.12369316876852982</speed>
  <fix>3d</fix>
</trkpt>
<trkpt lat="-27.2744405" lon="151.2900628">
  <ele>349.6</ele>
  <time>2026-09-01T19:54:48Z</time>
  <course>10.29</course>
  <speed>0.26</speed>
  <fix>3d</fix>
</trkpt>
<trkpt lat="-27.2744402" lon="151.2900631">
  <ele>350.41</ele>
  <time>2026-09-01T19:54:48Z</time>
  <course>11.77</course>
  <speed>0.11401754250991379</speed>
  <fix>3d</fix>
</trkpt>
<trkpt lat="-27.2744401" lon="151.2900631">
  <ele>350.59</ele>
  <time>2026-09-01T19:54:48Z</time>
  <course>11.8</course>
  <speed>0.09486832980505139</speed>
  <fix>3d</fix>
</trkpt>
<trkpt lat="-27.2744401" lon="151.2900629">
  <ele>350.09</ele>
  <time>2026-09-01T19:54:48Z</time>
  <course>12.2</course>
  <speed>0.19</speed>
  <fix>3d</fix>
</trkpt>
<trkpt lat="-27.2744401" lon="151.2900631">
  <ele>350.65</ele>
  <time>2026-09-01T19:54:48Z</time>
  <course>11.81</course>
  <speed>0.0854400374531753</speed>
  <fix>3d</fix>
</trkpt>
<trkpt lat="-27.27444" lon="151.2900631">
  <ele>350.83</ele>
  <time>2026-09-01T19:54:48Z</time>
  <course>11.84</course>
  <speed>0.053851648071345036</speed>
  <fix>3d</fix>
</trkpt>
<trkpt lat="-27.2744401" lon="151.2900629">
  <ele>350.09</ele>
  <time>2026-09-01T19:54:48Z</time>
  <course>12.2</course>
  <speed>0.19</speed>
  <fix>3d</fix>
</trkpt>
<trkpt lat="-27.27444" lon="151.2900631">
  <ele>350.88</ele>
  <time>2026-09-01T19:54:48Z</time>
  <course>11.85</course>
  <speed>0.053851648071345036</speed>
  <fix>3d</fix>
</trkpt>
<trkpt lat="-27.27444" lon="151.2900631">
  <ele>351.07</ele>
  <time>2026-09-01T19:54:48Z</time>
  <course>11.88</course>
  <speed>0.0282842712474619</speed>
  <fix>3d</fix>
</trkpt>
<trkpt lat="-27.2744399" lon="151.290063">
  <ele>350.57</ele>
  <time>2026-09-01T19:54:48Z</time>
  <course>16.11</course>
  <speed>0.12</speed>
  <fix>3d</fix>
</trkpt>
<trkpt lat="-27.27444" lon="151.2900631">
  <ele>351.12</ele>
  <time>2026-09-01T19:54:48Z</time>
  <course>11.89</course>
  <speed>0.0282842712474619</speed>
  <fix>3d</fix>
</trkpt>
<trkpt lat="-27.2744399" lon="151.2900631">
  <ele>351.3</ele>
  <time>2026-09-01T19:54:48Z</time>
  <course>11.92</course>
  <speed>0.01</speed>
  <fix>3d</fix>
</trkpt>
<trkpt lat="-27.2744399" lon="151.290063">
  <ele>350.57</ele>
  <time>2026-09-01T19:54:48Z</time>
  <course>16.11</course>
  <speed>0.12</speed>
  <fix>3d</fix>
</trkpt>
<trkpt lat="-27.2744399" lon="151.2900631">
  <ele>351.37</ele>
  <time>2026-09-01T19:54:48Z</time>
  <course>11.93</course>
  <speed>0.01414213562373095</speed>
  <fix>3d</fix>
</trkpt>
<trkpt lat="-27.2744399" lon="151.2900631">
  <ele>351.54</ele>
  <time>2026-09-01T19:54:48Z</time>
  <course>11.96</course>
  <speed>0.0316227766016838</speed>
  <fix>3d</fix>
</trkpt>
<trkpt lat="-27.2744397" lon="151.2900631">
  <ele>351.04</ele>
  <time>2026-09-01T19:54:48Z</time>
  <course>28.11</course>
  <speed>0.05</speed>
  <fix>3d</fix>
</trkpt>
<trkpt lat="-27.2744399" lon="151.2900631">
  <ele>351.55</ele>
  <time>2026-09-01T19:54:48Z</time>
  <course>11.96</course>
  <speed>0.0316227766016838</speed>
  <fix>3d</fix>
</trkpt>
<trkpt lat="-27.2744399" lon="151.2900631">
  <ele>351.78</ele>
  <time>2026-09-01T19:54:48Z</time>
  <course>12.0</course>
  <speed>0.05</speed>
  <fix>3d</fix>
</trkpt>
<trkpt lat="-27.2744397" lon="151.2900631">
  <ele>351.04</ele>
  <time>2026-09-01T19:54:48Z</time>
  <course>28.11</course>
  <speed>0.05</speed>
  <fix>3d</fix>
</trkpt>
<trkpt lat="-27.2744399" lon="151.2900631">
  <ele>351.79</ele>
  <time>2026-09-01T19:54:48Z</time>
  <course>12.01</course>
  <speed>0.06</speed>
  <fix>3d</fix>
</trkpt>
<trkpt lat="-27.2744399" lon="151.2900631">
  <ele>352.02</ele>
  <time>2026-09-01T19:54:48Z</time>
  <course>12.06</course>
  <speed>0.08</speed>
  <fix>3d</fix>
</trkpt>
<trkpt lat="-27.2744397" lon="151.2900631">
  <ele>351.52</ele>
  <time>2026-09-01T19:54:48Z</time>
  <course>111.54</course>
  <speed>0.02</speed>
  <fix>3d</fix>
</trkpt>
<trkpt lat="-27.2744399" lon="151.2900631">
  <ele>352.09</ele>
  <time>2026-09-01T19:54:48Z</time>
  <course>12.07</course>
  <speed>0.08</speed>
  <fix>3d</fix>
</trkpt>
<trkpt lat="-27.27444" lon="151.2900631">
  <ele>352.27</ele>
  <time>2026-09-01T19:54:48Z</time>
  <course>12.12</course>
  <speed>0.1</speed>
  <fix>3d</fix>
</trkpt>
<trkpt lat="-27.2744397" lon="151.2900631">
  <ele>351.52</ele>
  <time>2026-09-01T19:54:48Z</time>
  <course>111.54</course>
  <speed>0.02</speed>
  <fix>3d</fix>
</trkpt>
<trkpt lat="-27.27444" lon="151.2900631">
  <ele>352.33</ele>
  <time>2026-09-01T19:54:48Z</time>
  <course>12.14</course>
  <speed>0.11</speed>
  <fix>3d</fix>
</trkpt>
<trkpt lat="-27.27444" lon="151.2900631">
  <ele>352.51</ele>
  <time>2026-09-01T19:54:48Z</time>
  <course>12.19</course>
  <speed>0.12</speed>
  <fix>3d</fix>
</trkpt>
<trkpt lat="-27.2744397" lon="151.2900632">
  <ele>352.0</ele>
  <time>2026-09-01T19:54:48Z</time>
  <course>167.24</course>
  <speed>0.06</speed>
  <fix>3d</fix>
</trkpt>
<trkpt lat="-27.2744401" lon="151.2900631">
  <ele>352.58</ele>
  <time>2026-09-01T19:54:48Z</time>
  <course>12.21</course>
  <speed>0.12</speed>
  <fix>3d</fix>
</trkpt>
<trkpt lat="-27.2744401" lon="151.2900631">
  <ele>352.76</ele>
  <time>2026-09-01T19:54:48Z</time>
  <course>12.26</course>
  <speed>0.140356688476182</speed>
  <fix>3d</fix>
</trkpt>
<trkpt lat="-27.2744397" lon="151.2900632">
  <ele>352.0</ele>
  <time>2026-09-01T19:54:48Z</time>
  <course>167.24</course>
  <speed>0.06</speed>
  <fix>3d</fix>
</trkpt>
<trkpt lat="-27.2744402" lon="151.2900631">
  <ele>352.82</ele>
  <time>2026-09-01T19:54:48Z</time>
  <course>12.28</course>
  <speed>0.140356688476182</speed>
  <fix>3d</fix>
</trkpt>
<trkpt lat="-27.2744402" lon="151.2900631">
  <ele>353.01</ele>
  <time>2026-09-01T19:54:48Z</time>
  <course>12.34</course>
  <speed>0.15033296378372907</speed>
  <fix>3d</fix>
</trkpt>
<trkpt lat="-27.2744397" lon="151.2900632">
  <ele>352.49</ele>
  <time>2026-09-01T19:54:48Z</time>
  <course>177.17</course>
  <speed>0.1</speed>
  <fix>3d</fix>
</trkpt>
<trkpt lat="-27.2744403" lon="151.2900631">
  <ele>353.08</ele>
  <time>2026-09-01T19:54:48Z</time>
  <course>12.37</course>
  <speed>0.15033296378372907</speed>
  <fix>3d</fix>
</trkpt>
<trkpt lat="-27.2744403" lon="151.2900631">
  <ele>353.26</ele>
  <time>2026-09-01T19:54:48Z</time>
  <course>12.43</course>
  <speed>0.16124515496597097</speed>
  <fix>3d</fix>
</trkpt>
<trkpt lat="-27.2744397" lon="151.2900632">
  <ele>352.49</ele>
  <time>2026-09-01T19:54:48Z</time>
  <course>177.17</course>
  <speed>0.1</speed>
  <fix>3d</fix>
</trkpt>
<trkpt lat="-27.2744404" lon="151.2900631">
  <ele>353.33</ele>
  <time>2026-09-01T19:54:48Z</time>
  <course>12.45</course>
  <speed>0.1711724276862369</speed>
  <fix>3d</fix>
</trkpt>
<trkpt lat="-27.2744405" lon="151.2900631">
  <ele>353.51</ele>
  <time>2026-09-01T19:54:48Z</time>
  <course>12.5</course>
  <speed>0.1711724276862369</speed>
  <fix>3d</fix>
</trkpt>
<trkpt lat="-27.27444" lon="151.2900632">
  <ele>352.98</ele>
  <time>2026-09-01T19:54:48Z</time>
  <course>181.98</course>
  <speed>0.13</speed>
  <fix>3d</fix>
</trkpt>
<trkpt lat="-27.2744405" lon="151.2900631">
  <ele>353.58</ele>
  <time>2026-09-01T19:54:48Z</time>
  <course>12.51</course>
  <speed>0.18110770276274835</speed>
  <fix>3d</fix>
</trkpt>
<trkpt lat="-27.2744406" lon="151.2900631">
  <ele>353.76</ele>
  <time>2026-09-01T19:54:48Z</time>
  <course>12.55</course>
  <speed>0.18110770276274835</speed>
  <fix>3d</fix>
</trkpt>
<trkpt lat="-27.27444" lon="151.2900632">
  <ele>352.98</ele>
  <time>2026-09-01T19:54:48Z</time>
  <course>181.98</course>
  <speed>0.13</speed>
  <fix>3d</fix>
</trkpt>
<trkpt lat="-27.2744406" lon="151.2900631">
  <ele>353.83</ele>
  <time>2026-09-01T19:54:48Z</time>
  <course>12.55</course>
  <speed>0.18110770276274835</speed>
  <fix>3d</fix>
</trkpt>
<trkpt lat="-27.2744407" lon="151.2900631">
  <ele>354.01</ele>
  <time>2026-09-01T19:54:48Z</time>
  <course>12.56</course>
  <speed>0.19235384061671343</speed>
  <fix>3d</fix>
</trkpt>
<trkpt lat="-27.2744403" lon="151.2900632">
  <ele>353.47</ele>
  <time>2026-09-01T19:54:48Z</time>
  <course>184.93</course>
  <speed>0.16</speed>
  <fix>3d</fix>
</trkpt>
<trkpt lat="-27.2744408" lon="151.2900631">
  <ele>354.08</ele>
  <time>2026-09-01T19:54:48Z</time>
  <course>12.55</course>
  <speed>0.19235384061671343</speed>
  <fix>3d</fix>
</trkpt>
<trkpt lat="-27.2744409" lon="151.2900631">
  <ele>354.26</ele>
  <time>2026-09-01T19:54:48Z</time>
  <course>12.53</course>
  <speed>0.2009975124224178</speed>
  <fix>3d</fix>
</trkpt>
<trkpt lat="-27.2744403" lon="151.2900632">
  <ele>353.47</ele>
  <time>2026-09-01T19:54:48Z</time>
  <course>184.93</course>
  <speed>0.16</speed>
  <fix>3d</fix>
</trkpt>
<trkpt lat="-27.2744409" lon="151.2900631">
  <ele>354.27</ele>
  <time>2026-09-01T19:54:48Z</time>
  <course>12.52</course>
  <speed>0.2009975124224178</speed>
  <fix>3d</fix>
</trkpt>
<trkpt lat="-27.2744411" lon="151.2900631">
  <ele>354.52</ele>
  <time>2026-09-01T19:54:48Z</time>
  <course>12.47</course>
  <speed>0.20223748416156684</speed>
  <fix>3d</fix>
</trkpt>
<trkpt lat="-27.2744406" lon="151.2900632">
  <ele>353.97</ele>
  <time>2026-09-01T19:54:48Z</time>
  <course>186.09</course>
  <speed>0.18</speed>
  <fix>3d</fix>
</trkpt>
<trkpt lat="-27.2744411" lon="151.2900631">
  <ele>354.53</ele>
  <time>2026-09-01T19:54:48Z</time>
  <course>12.47</course>
  <speed>0.20223748416156684</speed>
  <fix>3d</fix>
</trkpt>
<trkpt lat="-27.2744412" lon="151.2900631">
  <ele>354.77</ele>
  <time>2026-09-01T19:54:48Z</time>
  <course>12.44</course>
  <speed>0.21213203435596426</speed>
  <fix>3d</fix>
</trkpt>
<trkpt lat="-27.2744406" lon="151.2900632">
  <ele>353.97</ele>
  <time>2026-09-01T19:54:48Z</time>
  <course>186.09</course>
  <speed>0.18</speed>
  <fix>3d</fix>
</trkpt>
<trkpt lat="-27.2744413" lon="151.2900631">
  <ele>354.84</ele>
  <time>2026-09-01T19:54:48Z</time>
  <course>12.43</course>
  <speed>0.21213203435596426</speed>
  <fix>3d</fix>
</trkpt>
<trkpt lat="-27.2744414" lon="151.290063">
  <ele>355.02</ele>
  <time>2026-09-01T19:54:48Z</time>
  <course>12.42</course>
  <speed>0.2109502310972899</speed>
  <fix>3d</fix>
</trkpt>
<trkpt lat="-27.2744409" lon="151.2900632">
  <ele>354.48</ele>
  <time>2026-09-01T19:54:48Z</time>
  <course>186.25</course>
  <speed>0.19</speed>
  <fix>3d</fix>
</trkpt>
<trkpt lat="-27.2744414" lon="151.290063">
  <ele>355.09</ele>
  <time>2026-09-01T19:54:48Z</time>
  <course>12.41</course>
  <speed>0.21213203435596426</speed>
  <fix>3d</fix>
</trkpt>
<trkpt lat="-27.2744416" lon="151.290063">
  <ele>355.27</ele>
  <time>2026-09-01T19:54:48Z</time>
  <course>12.4</course>
  <speed>0.21213203435596426</speed>
  <fix>3d</fix>
</trkpt>
<trkpt lat="-27.2744409" lon="151.2900632">
  <ele>354.48</ele>
  <time>2026-09-01T19:54:48Z</time>
  <course>186.25</course>
  <speed>0.19</speed>
  <fix>3d</fix>
</trkpt>
<trkpt lat="-27.2744416" lon="151.290063">
  <ele>355.34</ele>
  <time>2026-09-01T19:54:48Z</time>
  <course>12.4</course>
  <speed>0.21377558326431947</speed>
  <fix>3d</fix>
</trkpt>
<trkpt lat="-27.2744418" lon="151.290063">
  <ele>355.53</ele>
  <time>2026-09-01T19:54:48Z</time>
  <course>12.4</course>
  <speed>0.2220360331117452</speed>
  <fix>3d</fix>
</trkpt>
<trkpt lat="-27.2744413" lon="151.2900631">
  <ele>354.98</ele>
  <time>2026-09-01T19:54:48Z</time>
  <course>186.58</course>
  <speed>0.2</speed>
  <fix>3d</fix>
</trkpt>
<trkpt lat="-27.2744418" lon="151.290063">
  <ele>355.59</ele>
  <time>2026-09-01T19:54:48Z</time>
  <course>12.4</course>
  <speed>0.2220360331117452</speed>
  <fix>3d</fix>
</trkpt>
<trkpt lat="-27.2744419" lon="151.290063">
  <ele>355.78</ele>
  <time>2026-09-01T19:54:48Z</time>
  <course>12.39</course>
  <speed>0.2220360331117452</speed>
  <fix>3d</fix>
</trkpt>
<trkpt lat="-27.2744413" lon="151.2900631">
  <ele>354.98</ele>
  <time>2026-09-01T19:54:48Z</time>
  <course>186.58</course>
  <speed>0.2</speed>
  <fix>3d</fix>
</trkpt>
<trkpt lat="-27.274442" lon="151.290063">
  <ele>355.85</ele>
  <time>2026-09-01T19:54:48Z</time>
  <course>12.39</course>
  <speed>0.2220360331117452</speed>
  <fix>3d</fix>
</trkpt>
<trkpt lat="-27.2744421" lon="151.290063">
  <ele>356.03</ele>
  <time>2026-09-01T19:54:48Z</time>
  <course>12.38</course>
  <speed>0.2220360331117452</speed>
  <fix>3d</fix>
</trkpt>
<trkpt lat="-27.2744416" lon="151.2900631">
  <ele>355.48</ele>
  <time>2026-09-01T19:54:48Z</time>
  <course>187.01</course>
  <speed>0.21</speed>
  <fix>3d</fix>
</trkpt>
<trkpt lat="-27.2744422" lon="151.2900629">
  <ele>356.1</ele>
  <time>2026-09-01T19:54:48Z</time>
  <course>12.37</course>
  <speed>0.2220360331117452</speed>
  <fix>3d</fix>
</trkpt>
<trkpt lat="-27.2744423" lon="151.2900629">
  <ele>356.28</ele>
  <time>2026-09-01T19:54:48Z</time>
  <course>12.35</course>
  <speed>0.223606797749979</speed>
  <fix>3d</fix>
</trkpt>
<trkpt lat="-27.2744416" lon="151.2900631">
  <ele>355.48</ele>
  <time>2026-09-01T19:54:48Z</time>
  <course>187.01</course>
  <speed>0.21</speed>
  <fix>3d</fix>
</trkpt>
<trkpt lat="-27.2744423" lon="151.2900629">
  <ele>356.35</ele>
  <time>2026-09-01T19:54:48Z</time>
  <course>12.35</course>
  <speed>0.2220360331117452</speed>
  <fix>3d</fix>
</trkpt>
<trkpt lat="-27.2744425" lon="151.2900629">
  <ele>356.54</ele>
  <time>2026-09-01T19:54:48Z</time>
  <course>12.34</course>
  <speed>0.223606797749979</speed>
  <fix>3d</fix>
</trkpt>
<trkpt lat="-27.2744421" lon="151.290063">
  <ele>355.98</ele>
  <time>2026-09-01T19:54:48Z</time>
  <course>186.96</course>
  <speed>0.22</speed>
  <fix>3d</fix>
</trkpt>
<trkpt lat="-27.2744425" lon="151.2900629">
  <ele>356.6</ele>
  <time>2026-09-01T19:54:48Z</time>
  <course>12.34</course>
  <speed>0.223606797749979</speed>
  <fix>3d</fix>
</trkpt>
<trkpt lat="-27.2744427" lon="151.2900629">
  <ele>356.79</ele>
  <time>2026-09-01T19:54:48Z</time>
  <course>12.33</course>
  <speed>0.2220360331117452</speed>
  <fix>3d</fix>
</trkpt>
<trkpt lat="-27.2744421" lon="151.290063">
  <ele>355.98</ele>
  <time>2026-09-01T19:54:48Z</time>
  <course>186.96</course>
  <speed>0.22</speed>
  <fix>3d</fix>
</trkpt>
<trkpt lat="-27.2744427" lon="151.2900629">
  <ele>356.85</ele>
  <time>2026-09-01T19:54:48Z</time>
  <course>12.33</course>
  <speed>0.223606797749979</speed>
  <fix>3d</fix>
</trkpt>
<trkpt lat="-27.2744429" lon="151.2900629">
  <ele>357.04</ele>
  <time>2026-09-01T19:54:48Z</time>
  <course>12.34</course>
  <speed>0.2220360331117452</speed>
  <fix>3d</fix>
</trkpt>
<trkpt lat="-27.2744425" lon="151.290063">
  <ele>356.48</ele>
  <time>2026-09-01T19:54:48Z</time>
  <course>186.7</course>
  <speed>0.22</speed>
  <fix>3d</fix>
</trkpt>
<trkpt lat="-27.2744429" lon="151.2900629">
  <ele>357.04</ele>
  <time>2026-09-01T19:54:48Z</time>
  <course>12.34</course>
  <speed>0.2220360331117452</speed>
  <fix>3d</fix>
</trkpt>
<trkpt lat="-27.2744431" lon="151.2900628">
  <ele>357.28</ele>
  <time>2026-09-01T19:54:48Z</time>
  <course>12.36</course>
  <speed>0.2220360331117452</speed>
  <fix>3d</fix>
</trkpt>
<trkpt lat="-27.2744425" lon="151.290063">
  <ele>356.48</ele>
  <time>2026-09-01T19:54:48Z</time>
  <course>186.7</course>
  <speed>0.22</speed>
  <fix>3d</fix>
</trkpt>
<trkpt lat="-27.2744431" lon="151.2900628">
  <ele>357.29</ele>
  <time>2026-09-01T19:54:48Z</time>
  <course>12.36</course>
  <speed>0.2220360331117452</speed>
  <fix>3d</fix>
</trkpt>
<trkpt lat="-27.2744433" lon="151.2900628">
  <ele>357.53</ele>
  <time>2026-09-01T19:54:48Z</time>
  <course>12.39</course>
  <speed>0.2220360331117452</speed>
  <fix>3d</fix>
</trkpt>
<trkpt lat="-27.2744428" lon="151.2900629">
  <ele>356.98</ele>
  <time>2026-09-01T19:54:48Z</time>
  <course>186.75</course>
  <speed>0.22</speed>
  <fix>3d</fix>
</trkpt>
<trkpt lat="-27.2744433" lon="151.2900628">
  <ele>357.61</ele>
  <time>2026-09-01T19:54:48Z</time>
  <course>12.4</course>
  <speed>0.2220360331117452</speed>
  <fix>3d</fix>
</trkpt>
<trkpt lat="-27.2744434" lon="151.2900628">
  <ele>357.78</ele>
  <time>2026-09-01T19:54:48Z</time>
  <course>12.42</course>
  <speed>0.2220360331117452</speed>
  <fix>3d</fix>
</trkpt>
<trkpt lat="-27.2744428" lon="151.2900629">
  <ele>356.98</ele>
  <time>2026-09-01T19:54:48Z</time>
  <course>186.75</course>
  <speed>0.22</speed>
  <fix>3d</fix>
</trkpt>
<trkpt lat="-27.2744435" lon="151.2900628">
  <ele>357.84</ele>
  <time>2026-09-01T19:54:48Z</time>
  <course>12.43</course>
  <speed>0.2220360331117452</speed>
  <fix>3d</fix>
</trkpt>
<trkpt lat="-27.2744436" lon="151.2900628">
  <ele>358.03</ele>
  <time>2026-09-01T19:54:48Z</time>
  <course>12.44</course>
  <speed>0.21213203435596426</speed>
  <fix>3d</fix>
</trkpt>
<trkpt lat="-27.2744433" lon="151.2900628">
  <ele>357.48</ele>
  <time>2026-09-01T19:54:48Z</time>
  <course>187.13</course>
  <speed>0.22</speed>
  <fix>3d</fix>
</trkpt>
<trkpt lat="-27.2744437" lon="151.2900628">
  <ele>358.11</ele>
  <time>2026-09-01T19:54:48Z</time>
  <course>12.44</course>
  <speed>0.21213203435596426</speed>
  <fix>3d</fix>
</trkpt>
<trkpt lat="-27.2744438" lon="151.2900627">
  <ele>358.29</ele>
  <time>2026-09-01T19:54:48Z</time>
  <course>12.42</course>
  <speed>0.21213203435596426</speed>
  <fix>3d</fix>
</trkpt>
<trkpt lat="-27.2744433" lon="151.2900628">
  <ele>357.48</ele>
  <time>2026-09-01T19:54:48Z</time>
  <course>187.13</course>
  <speed>0.22</speed>
  <fix>3d</fix>
</trkpt>
<trkpt lat="-27.2744439" lon="151.2900627">
  <ele>358.35</ele>
  <time>2026-09-01T19:54:48Z</time>
  <course>12.41</course>
  <speed>0.21213203435596426</speed>
  <fix>3d</fix>
</trkpt>
<trkpt lat="-27.274444" lon="151.2900627">
  <ele>358.54</ele>
  <time>2026-09-01T19:54:48Z</time>
  <course>12.36</course>
  <speed>0.2109502310972899</speed>
  <fix>3d</fix>
</trkpt>
<trkpt lat="-27.2744437" lon="151.2900628">
  <ele>357.98</ele>
  <time>2026-09-01T19:54:48Z</time>
  <course>187.41</course>
  <speed>0.21</speed>
  <fix>3d</fix>
</trkpt>
<trkpt lat="-27.2744441" lon="151.2900627">
  <ele>358.61</ele>
  <time>2026-09-01T19:54:48Z</time>
  <course>12.35</course>
  <speed>0.2109502310972899</speed>
  <fix>3d</fix>
</trkpt>
<trkpt lat="-27.2744442" lon="151.2900627">
  <ele>358.79</ele>
  <time>2026-09-01T19:54:48Z</time>
  <course>12.31</course>
  <speed>0.2109502310972899</speed>
  <fix>3d</fix>
</trkpt>
<trkpt lat="-27.2744437" lon="151.2900628">
  <ele>357.98</ele>
  <time>2026-09-01T19:54:48Z</time>
  <course>187.41</course>
  <speed>0.21</speed>
  <fix>3d</fix>
</trkpt>
<trkpt lat="-27.2744442" lon="151.2900627">
  <ele>358.8</ele>
  <time>2026-09-01T19:54:48Z</time>
  <course>12.3</course>
  <speed>0.2109502310972899</speed>
  <fix>3d</fix>
</trkpt>
<trkpt lat="-27.2744444" lon="151.2900627">
  <ele>359.04</ele>
  <time>2026-09-01T19:54:48Z</time>
  <course>12.26</course>
  <speed>0.18110770276274835</speed>
  <fix>3d</fix>
</trkpt>
<trkpt lat="-27.274444" lon="151.2900627">
  <ele>358.48</ele>
  <time>2026-09-01T19:54:48Z</time>
  <course>187.39</course>
  <speed>0.21</speed>
  <fix>3d</fix>
</trkpt>
<trkpt lat="-27.2744444" lon="151.2900627">
  <ele>359.11</ele>
  <time>2026-09-01T19:54:48Z</time>
  <course>12.24</course>
  <speed>0.17029386365926402</speed>
  <fix>3d</fix>
</trkpt>
<trkpt lat="-27.2744445" lon="151.2900627">
  <ele>359.3</ele>
  <time>2026-09-01T19:54:48Z</time>
  <course>12.21</course>
  <speed>0.15</speed>
  <fix>3d</fix>
</trkpt>
<trkpt lat="-27.274444" lon="151.2900627">
  <ele>358.48</ele>
  <time>2026-09-01T19:54:48Z</time>
  <course>187.39</course>
  <speed>0.21</speed>
  <fix>3d</fix>
</trkpt>
<trkpt lat="-27.2744445" lon="151.2900627">
  <ele>359.35</ele>
  <time>2026-09-01T19:54:48Z</time>
  <course>12.2</course>
  <speed>0.14</speed>
  <fix>3d</fix>
</trkpt>
<trkpt lat="-27.2744446" lon="151.2900627">
  <ele>359.55</ele>
  <time>2026-09-01T19:54:48Z</time>
  <course>12.16</course>
  <speed>0.12</speed>
  <fix>3d</fix>
</trkpt>
<trkpt lat="-27.2744444" lon="151.2900627">
  <ele>358.98</ele>
  <time>2026-09-01T19:54:48Z</time>
  <course>186.77</course>
  <speed>0.17</speed>
  <fix>3d</fix>
</trkpt>
<trkpt lat="-27.2744447" lon="151.2900627">
  <ele>359.61</ele>
  <time>2026-09-01T19:54:48Z</time>
  <course>12.14</course>
  <speed>0.11</speed>
  <fix>3d</fix>
</trkpt>
<trkpt lat="-27.2744447" lon="151.2900627">
  <ele>359.8</ele>
  <time>2026-09-01T19:54:48Z</time>
  <course>12.09</course>
  <speed>0.1</speed>
  <fix>3d</fix>
</trkpt>
<trkpt lat="-27.2744444" lon="151.2900627">
  <ele>358.98</ele>
  <time>2026-09-01T19:54:48Z</time>
  <course>186.77</course>
  <speed>0.17</speed>
  <fix>3d</fix>
</trkpt>
<trkpt lat="-27.2744447" lon="151.2900627">
  <ele>359.81</ele>
  <time>2026-09-01T19:54:48Z</time>
  <course>12.09</course>
  <speed>0.1</speed>
  <fix>3d</fix>
</trkpt>
<trkpt lat="-27.2744448" lon="151.2900627">
  <ele>360.05</ele>
  <time>2026-09-01T19:54:48Z</time>
  <course>12.01</course>
  <speed>0.08062257748298549</speed>
  <fix>3d</fix>
</trkpt>
<trkpt lat="-27.2744446" lon="151.2900627">
  <ele>359.48</ele>
  <time>2026-09-01T19:54:48Z</time>
  <course>184.05</course>
  <speed>0.11</speed>
  <fix>3d</fix>
</trkpt>
<trkpt lat="-27.2744448" lon="151.2900627">
  <ele>360.06</ele>
  <time>2026-09-01T19:54:48Z</time>
  <course>12.01</course>
  <speed>0.08062257748298549</speed>
  <fix>3d</fix>
</trkpt>
<trkpt lat="-27.2744449" lon="151.2900627">
  <ele>360.3</ele>
  <time>2026-09-01T19:54:48Z</time>
  <course>11.95</course>
  <speed>0.0632455532033676</speed>
  <fix>3d</fix>
</trkpt>
<trkpt lat="-27.2744446" lon="151.2900627">
  <ele>359.48</ele>
  <time>2026-09-01T19:54:48Z</time>
  <course>184.05</course>
  <speed>0.11</speed>
  <fix>3d</fix>
</trkpt>
<trkpt lat="-27.2744449" lon="151.2900627">
  <ele>360.37</ele>
  <time>2026-09-01T19:54:48Z</time>
  <course>11.93</course>
  <speed>0.0632455532033676</speed>
  <fix>3d</fix>
</trkpt>
<trkpt lat="-27.2744449" lon="151.2900627">
  <ele>360.55</ele>
  <time>2026-09-01T19:54:48Z</time>
  <course>11.89</course>
  <speed>0.044721359549995794</speed>
  <fix>3d</fix>
</trkpt>
<trkpt lat="-27.2744448" lon="151.2900627">
  <ele>359.98</ele>
  <time>2026-09-01T19:54:48Z</time>
  <course>178.17</course>
  <speed>0.07</speed>
  <fix>3d</fix>
</trkpt>
<trkpt lat="-27.2744449" lon="151.2900627">
  <ele>360.62</ele>
  <time>2026-09-01T19:54:48Z</time>
  <course>11.88</course>
  <speed>0.044721359549995794</speed>
  <fix>3d</fix>
</trkpt>
<trkpt lat="-27.2744449" lon="151.2900627">
  <ele>360.8</ele>
  <time>2026-09-01T19:54:48Z</time>
  <course>11.86</course>
  <speed>0.03605551275463989</speed>
  <fix>3d</fix>
</trkpt>
<trkpt lat="-27.2744448" lon="151.2900627">
  <ele>359.98</ele>
  <time>2026-09-01T19:54:48Z</time>
  <course>178.17</course>
  <speed>0.07</speed>
  <fix>3d</fix>
</trkpt>
<trkpt lat="-27.2744449" lon="151.2900627">
  <ele>360.87</ele>
  <time>2026-09-01T19:54:48Z</time>
  <course>11.86</course>
  <speed>0.03605551275463989</speed>
  <fix>3d</fix>
</trkpt>
<trkpt lat="-27.274445" lon="151.2900627">
  <ele>361.05</ele>
  <time>2026-09-01T19:54:48Z</time>
  <course>11.84</course>
  <speed>0.03605551275463989</speed>
  <fix>3d</fix>
</trkpt>
<trkpt lat="-27.2744449" lon="151.2900627">
  <ele>360.48</ele>
  <time>2026-09-01T19:54:48Z</time>
  <course>166.59</course>
  <speed>0.03</speed>
  <fix>3d</fix>
</trkpt>
<trkpt lat="-27.274445" lon="151.2900627">
  <ele>361.13</ele>
  <time>2026-09-01T19:54:48Z</time>
  <course>11.84</course>
  <speed>0.03605551275463989</speed>
  <fix>3d</fix>
</trkpt>
<trkpt lat="-27.274445" lon="151.2900627">
  <ele>361.3</ele>
  <time>2026-09-01T19:54:48Z</time>
  <course>11.84</course>
  <speed>0.0316227766016838</speed>
  <fix>3d</fix>
</trkpt>
<trkpt lat="-27.2744449" lon="151.2900627">
  <ele>360.48</ele>
  <time>2026-09-01T19:54:48Z</time>
  <course>166.59</course>
  <speed>0.03</speed>
  <fix>3d</fix>
</trkpt>
<trkpt lat="-27.274445" lon="151.2900627">
  <ele>361.36</ele>
  <time>2026-09-01T19:54:48Z</time>
  <course>11.83</course>
  <speed>0.0316227766016838</speed>
  <fix>3d</fix>
</trkpt>
<trkpt lat="-27.274445" lon="151.2900628">
  <ele>361.54</ele>
  <time>2026-09-01T19:54:48Z</time>
  <course>11.82</course>
  <speed>0.03</speed>
  <fix>3d</fix>
</trkpt>
<trkpt lat="-27.274445" lon="151.2900627">
  <ele>360.97</ele>
  <time>2026-09-01T19:54:48Z</time>
  <course>130.53</course>
  <speed>0.01</speed>
  <fix>3d</fix>
</trkpt>
<trkpt lat="-27.274445" lon="151.2900628">
  <ele>361.61</ele>
  <time>2026-09-01T19:54:48Z</time>
  <course>11.82</course>
  <speed>0.03</speed>
  <fix>3d</fix>
</trkpt>
<trkpt lat="-27.274445" lon="151.2900628">
  <ele>361.77</ele>
  <time>2026-09-01T19:54:48Z</time>
  <course>11.82</course>
  <speed>0.03</speed>
  <fix>3d</fix>
</trkpt>
<trkpt lat="-27.274445" lon="151.2900627">
  <ele>360.97</ele>
  <time>2026-09-01T19:54:48Z</time>
  <course>130.53</course>
  <speed>0.01</speed>
  <fix>3d</fix>
</trkpt>
<trkpt lat="-27.274445" lon="151.2900628">
  <ele>361.83</ele>
  <time>2026-09-01T19:54:48Z</time>
  <course>11.82</course>
  <speed>0.03</speed>
  <fix>3d</fix>
</trkpt>
<trkpt lat="-27.274445" lon="151.2900628">
  <ele>361.99</ele>
  <time>2026-09-01T19:54:48Z</time>
  <course>11.81</course>
  <speed>0.03</speed>
  <fix>3d</fix>
</trkpt>
<trkpt lat="-27.274445" lon="151.2900627">
  <ele>361.45</ele>
  <time>2026-09-01T19:54:48Z</time>
  <course>63.69</course>
  <speed>0.01</speed>
  <fix>3d</fix>
</trkpt>
<trkpt lat="-27.274445" lon="151.2900628">
  <ele>362.0</ele>
  <time>2026-09-01T19:54:48Z</time>
  <course>11.81</course>
  <speed>0.03</speed>
  <fix>3d</fix>
</trkpt>
<trkpt lat="-27.274445" lon="151.2900628">
  <ele>362.2</ele>
  <time>2026-09-01T19:54:48Z</time>
  <course>11.82</course>
  <speed>0.03</speed>
  <fix>3d</fix>
</trkpt>
<trkpt lat="-27.274445" lon="151.2900627">
  <ele>361.45</ele>
  <time>2026-09-01T19:54:48Z</time>
  <course>63.69</course>
  <speed>0.01</speed>
  <fix>3d</fix>
</trkpt>
<trkpt lat="-27.274445" lon="151.2900628">
  <ele>362.2</ele>
  <time>2026-09-01T19:54:48Z</time>
  <course>11.82</course>
  <speed>0.03</speed>
  <fix>3d</fix>
</trkpt>
<trkpt lat="-27.274445" lon="151.2900629">
  <ele>362.38</ele>
  <time>2026-09-01T19:54:48Z</time>
  <course>11.81</course>
  <speed>0.03</speed>
  <fix>3d</fix>
</trkpt>
<trkpt lat="-27.274445" lon="151.2900627">
  <ele>361.9</ele>
  <time>2026-09-01T19:54:48Z</time>
  <course>42.52</course>
  <speed>0.02</speed>
  <fix>3d</fix>
</trkpt>
<trkpt lat="-27.274445" lon="151.2900629">
  <ele>362.55</ele>
  <time>2026-09-01T19:54:48Z</time>
  <course>11.8</course>
  <speed>0.03</speed>
  <fix>3d</fix>
</trkpt>
<trkpt lat="-27.274445" lon="151.2900627">
  <ele>361.9</ele>
  <time>2026-09-01T19:54:48Z</time>
  <course>42.52</course>
  <speed>0.02</speed>
  <fix>3d</fix>
</trkpt>
<trkpt lat="-27.274445" lon="151.2900629">
  <ele>362.7</ele>
  <time>2026-09-01T19:54:48Z</time>
  <course>11.78</course>
  <speed>0.0316227766016838</speed>
  <fix>3d</fix>
</trkpt>
<trkpt lat="-27.274445" lon="151.2900627">
  <ele>362.3</ele>
  <time>2026-09-01T19:54:48Z</time>
  <course>40.41</course>
  <speed>0.02</speed>
  <fix>3d</fix>
</trkpt>
<trkpt lat="-27.274445" lon="151.2900629">
  <ele>362.83</ele>
  <time>2026-09-01T19:54:48Z</time>
  <course>11.76</course>
  <speed>0.0282842712474619</speed>
  <fix>3d</fix>
</trkpt>
<trkpt lat="-27.274445" lon="151.2900627">
  <ele>362.3</ele>
  <time>2026-09-01T19:54:48Z</time>
  <course>40.41</course>
  <speed>0.02</speed>
  <fix>3d</fix>
</trkpt>
<trkpt lat="-27.274445" lon="151.2900629">
  <ele>362.93</ele>
  <time>2026-09-01T19:54:48Z</time>
  <course>11.72</course>
  <speed>0.044721359549995794</speed>
  <fix>3d</fix>
</trkpt>
<trkpt lat="-27.274445" lon="151.2900627">
  <ele>362.62</ele>
  <time>2026-09-01T19:54:48Z</time>
  <course>71.02</course>
  <speed>0.01</speed>
  <fix>3d</fix>
</trkpt>
<trkpt lat="-27.274445" lon="151.2900629">
  <ele>363.01</ele>
  <time>2026-09-01T19:54:48Z</time>
  <course>11.7</course>
  <speed>0.0632455532033676</speed>
  <fix>3d</fix>
</trkpt>
<trkpt lat="-27.274445" lon="151.2900627">
  <ele>362.62</ele>
  <time>2026-09-01T19:54:48Z</time>
  <course>71.02</course>
  <speed>0.01</speed>
  <fix>3d</fix>
</trkpt>
<trkpt lat="-27.2744451" lon="151.2900629">
  <ele>363.06</ele>
  <time>2026-09-01T19:54:48Z</time>
  <course>11.7</course>
  <speed>0.08062257748298549</speed>
  <fix>3d</fix>
</trkpt>
<trkpt lat="-27.274445" lon="151.2900627">
  <ele>362.85</ele>
  <time>2026-09-01T19:54:48Z</time>
  <course>171.7</course>
  <speed>0.02</speed>
  <fix>3d</fix>
</trkpt>
<trkpt lat="-27.2744452" lon="151.2900629">
  <ele>363.09</ele>
  <time>2026-09-01T19:54:48Z</time>
  <course>11.76</course>
  <speed>0.1</speed>
  <fix>3d</fix>
</trkpt>
<trkpt lat="-27.274445" lon="151.2900627">
  <ele>362.85</ele>
  <time>2026-09-01T19:54:48Z</time>
  <course>171.7</course>
  <speed>0.02</speed>
  <fix>3d</fix>
</trkpt>
<trkpt lat="-27.2744453" lon="151.2900629">
  <ele>363.11</ele>
  <time>2026-09-01T19:54:48Z</time>
  <course>11.78</course>
  <speed>0.13</speed>
  <fix>3d</fix>
</trkpt>
<trkpt lat="-27.274445" lon="151.2900627">
  <ele>362.99</ele>
  <time>2026-09-01T19:54:48Z</time>
  <course>187.8</course>
  <speed>0.06</speed>
  <fix>3d</fix>
</trkpt>
<trkpt lat="-27.2744454" lon="151.2900628">
  <ele>363.11</ele>
  <time>2026-09-01T19:54:48Z</time>
  <course>11.79</course>
  <speed>0.15</speed>
  <fix>3d</fix>
</trkpt>
<trkpt lat="-27.274445" lon="151.2900627">
  <ele>362.99</ele>
  <time>2026-09-01T19:54:48Z</time>
  <course>187.8</course>
  <speed>0.06</speed>
  <fix>3d</fix>
</trkpt>
<trkpt lat="-27.2744455" lon="151.2900628">
  <ele>363.09</ele>
  <time>2026-09-01T19:54:48Z</time>
  <course>11.76</course>
  <speed>0.17</speed>
  <fix>3d</fix>
</trkpt>
<trkpt lat="-27.2744452" lon="151.2900627">
  <ele>363.04</ele>
  <time>2026-09-01T19:54:48Z</time>
  <course>191.11</course>
  <speed>0.1</speed>
  <fix>3d</fix>
</trkpt>
<trkpt lat="-27.2744457" lon="151.2900628">
  <ele>363.07</ele>
  <time>2026-09-01T19:54:48Z</time>
  <course>11.71</course>
  <speed>0.2002498439450079</speed>
  <fix>3d</fix>
</trkpt>
<trkpt lat="-27.2744452" lon="151.2900627">
  <ele>363.04</ele>
  <time>2026-09-01T19:54:48Z</time>
  <course>191.11</course>
  <speed>0.1</speed>
  <fix>3d</fix>
</trkpt>
<trkpt lat="-27.2744458" lon="151.2900628">
  <ele>363.04</ele>
  <time>2026-09-01T19:54:48Z</time>
  <course>11.64</course>
  <speed>0.22022715545545238</speed>
  <fix>3d</fix>
</trkpt>
<trkpt lat="-27.2744454" lon="151.2900627">
  <ele>363.03</ele>
  <time>2026-09-01T19:54:48Z</time>
  <course>191.26</course>
  <speed>0.15</speed>
  <fix>3d</fix>
</trkpt>
<trkpt lat="-27.274446" lon="151.2900628">
  <ele>363.01</ele>
  <time>2026-09-01T19:54:48Z</time>
  <course>11.56</course>
  <speed>0.24083189157584592</speed>
  <fix>3d</fix>
</trkpt>
<trkpt lat="-27.2744454" lon="151.2900627">
  <ele>363.03</ele>
  <time>2026-09-01T19:54:48Z</time>
  <course>191.26</course>
  <speed>0.15</speed>
  <fix>3d</fix>
</trkpt>
<trkpt lat="-27.2744462" lon="151.2900628">
  <ele>362.98</ele>
  <time>2026-09-01T19:54:48Z</time>
  <course>11.49</course>
  <speed>0.260768096208106</speed>
  <fix>3d</fix>
</trkpt>
<trkpt lat="-27.2744457" lon="151.2900627">
  <ele>362.99</ele>
  <time>2026-09-01T19:54:48Z</time>
  <course>191.09</course>
  <speed>0.19</speed>
  <fix>3d</fix>
</trkpt>
<trkpt lat="-27.2744465" lon="151.2900627">
  <ele>362.95</ele>
  <time>2026-09-01T19:54:48Z</time>
  <course>11.44</course>
  <speed>0.280713376952364</speed>
  <fix>3d</fix>
</trkpt>
<trkpt lat="-27.2744457" lon="151.2900627">
  <ele>362.99</ele>
  <time>2026-09-01T19:54:48Z</time>
  <course>191.09</course>
  <speed>0.19</speed>
  <fix>3d</fix>
</trkpt>
<trkpt lat="-27.2744467" lon="151.2900627">
  <ele>362.92</ele>
  <time>2026-09-01T19:54:48Z</time>
  <course>11.41</course>
  <speed>0.31144823004794875</speed>
  <fix>3d</fix>
</trkpt>
<trkpt lat="-27.2744461" lon="151.2900626">
  <ele>362.93</ele>
  <time>2026-09-01T19:54:48Z</time>
  <course>190.89</course>
  <speed>0.23</speed>
  <fix>3d</fix>
</trkpt>
<trkpt lat="-27.274447" lon="151.2900626">
  <ele>362.9</ele>
  <time>2026-09-01T19:54:48Z</time>
  <course>11.4</course>
  <speed>0.3522782990761707</speed>
  <fix>3d</fix>
</trkpt>
<trkpt lat="-27.2744461" lon="151.2900626">
  <ele>362.93</ele>
  <time>2026-09-01T19:54:48Z</time>
  <course>190.89</course>
  <speed>0.23</speed>
  <fix>3d</fix>
</trkpt>
<trkpt lat="-27.2744473" lon="151.2900626">
  <ele>362.89</ele>
  <time>2026-09-01T19:54:48Z</time>
  <course>11.41</course>
  <speed>0.382099463490856</speed>
  <fix>3d</fix>
</trkpt>
<trkpt lat="-27.2744465" lon="151.2900625">
  <ele>362.89</ele>
  <time>2026-09-01T19:54:48Z</time>
  <course>190.97</course>
  <speed>0.29</speed>
  <fix>3d</fix>
</trkpt>
<trkpt lat="-27.2744476" lon="151.2900625">
  <ele>362.88</ele>
  <time>2026-09-01T19:54:48Z</time>
  <course>11.43</course>
  <speed>0.41303752856126763</speed>
  <fix>3d</fix>
</trkpt>
<trkpt lat="-27.2744465" lon="151.2900625">
  <ele>362.89</ele>
  <time>2026-09-01T19:54:48Z</time>
  <course>190.97</course>
  <speed>0.29</speed>
  <fix>3d</fix>
</trkpt>
<trkpt lat="-27.274448" lon="151.2900624">
  <ele>362.88</ele>
  <time>2026-09-01T19:54:48Z</time>
  <course>11.45</course>
  <speed>0.422965719651132</speed>
  <fix>3d</fix>
</trkpt>
<trkpt lat="-27.2744471" lon="151.2900624">
  <ele>362.86</ele>
  <time>2026-09-01T19:54:48Z</time>
  <course>191.15</course>
  <speed>0.35</speed>
  <fix>3d</fix>
</trkpt>
<trkpt lat="-27.2744484" lon="151.2900623">
  <ele>362.88</ele>
  <time>2026-09-01T19:54:48Z</time>
  <course>11.47</course>
  <speed>0.4428317965096906</speed>
  <fix>3d</fix>
</trkpt>
<trkpt lat="-27.2744471" lon="151.2900624">
  <ele>362.86</ele>
  <time>2026-09-01T19:54:48Z</time>
  <course>191.15</course>
  <speed>0.35</speed>
  <fix>3d</fix>
</trkpt>
<trkpt lat="-27.2744487" lon="151.2900623">
  <ele>362.89</ele>
  <time>2026-09-01T19:54:48Z</time>
  <course>11.47</course>
  <speed>0.45398237851264667</speed>
  <fix>3d</fix>
</trkpt>
<trkpt lat="-27.2744478" lon="151.2900622">
  <ele>362.85</ele>
  <time>2026-09-01T19:54:48Z</time>
  <course>191.33</course>
  <speed>0.4</speed>
  <fix>3d</fix>
</trkpt>
<trkpt lat="-27.2744491" lon="151.2900622">
  <ele>362.9</ele>
  <time>2026-09-01T19:54:48Z</time>
  <course>11.46</course>
  <speed>0.45398237851264667</speed>
  <fix>3d</fix>
</trkpt>
<trkpt lat="-27.2744478" lon="151.2900622">
  <ele>362.85</ele>
  <time>2026-09-01T19:54:48Z</time>
  <course>191.33</course>
  <speed>0.4</speed>
  <fix>3d</fix>
</trkpt>
<trkpt lat="-27.2744495" lon="151.2900621">
  <ele>362.92</ele>
  <time>2026-09-01T19:54:48Z</time>
  <course>11.45</course>
  <speed>0.46389654018972803</speed>
  <fix>3d</fix>
</trkpt>
<trkpt lat="-27.2744485" lon="151.2900621">
  <ele>362.86</ele>
  <time>2026-09-01T19:54:48Z</time>
  <course>191.45</course>
  <speed>0.42</speed>
  <fix>3d</fix>
</trkpt>
<trkpt lat="-27.2744499" lon="151.290062">
  <ele>362.94</ele>
  <time>2026-09-01T19:54:49Z</time>
  <course>11.41</course>
  <speed>0.45398237851264667</speed>
  <fix>3d</fix>
</trkpt>
<trkpt lat="-27.2744485" lon="151.2900621">
  <ele>362.86</ele>
  <time>2026-09-01T19:54:49Z</time>
  <course>191.45</course>
  <speed>0.42</speed>
  <fix>3d</fix>
</trkpt>
<trkpt lat="-27.2744503" lon="151.2900619">
  <ele>362.95</ele>
  <time>2026-09-01T19:54:49Z</time>
  <course>11.39</course>
  <speed>0.45398237851264667</speed>
  <fix>3d</fix>
</trkpt>
<trkpt lat="-27.2744493" lon="151.2900619">
  <ele>362.89</ele>
  <time>2026-09-01T19:54:49Z</time>
  <course>191.54</course>
  <speed>0.43</speed>
  <fix>3d</fix>
</trkpt>
<trkpt lat="-27.2744506" lon="151.2900619">
  <ele>362.97</ele>
  <time>2026-09-01T19:54:49Z</time>
  <course>11.36</course>
  <speed>0.4428317965096906</speed>
  <fix>3d</fix>
</trkpt>
<trkpt lat="-27.2744493" lon="151.2900619">
  <ele>362.89</ele>
  <time>2026-09-01T19:54:49Z</time>
  <course>191.54</course>
  <speed>0.43</speed>
  <fix>3d</fix>
</trkpt>
<trkpt lat="-27.274451" lon="151.2900618">
  <ele>362.99</ele>
  <time>2026-09-01T19:54:49Z</time>
  <course>11.35</course>
  <speed>0.43289721643826723</speed>
  <fix>3d</fix>
</trkpt>
<trkpt lat="-27.27445" lon="151.2900617">
  <ele>362.93</ele>
  <time>2026-09-01T19:54:49Z</time>
  <course>191.7</course>
  <speed>0.42</speed>
  <fix>3d</fix>
</trkpt>
<trkpt lat="-27.2744514" lon="151.2900617">
  <ele>363.0</ele>
  <time>2026-09-01T19:54:49Z</time>
  <course>11.35</course>
  <speed>0.422965719651132</speed>
  <fix>3d</fix>
</trkpt>
<trkpt lat="-27.27445" lon="151.2900617">
  <ele>362.93</ele>
  <time>2026-09-01T19:54:49Z</time>
  <course>191.7</course>
  <speed>0.42</speed>
  <fix>3d</fix>
</trkpt>
<trkpt lat="-27.2744517" lon="151.2900616">
  <ele>363.01</ele>
  <time>2026-09-01T19:54:49Z</time>
  <course>11.37</course>
  <speed>0.40311288741492746</speed>
  <fix>3d</fix>
</trkpt>
<trkpt lat="-27.2744507" lon="151.2900615">
  <ele>362.96</ele>
  <time>2026-09-01T19:54:49Z</time>
  <course>192.04</course>
  <speed>0.41</speed>
  <fix>3d</fix>
</trkpt>
<trkpt lat="-27.274452" lon="151.2900616">
  <ele>363.02</ele>
  <time>2026-09-01T19:54:49Z</time>
  <course>11.4</course>
  <speed>0.383275357934736</speed>
  <fix>3d</fix>
</trkpt>
<trkpt lat="-27.2744507" lon="151.2900615">
  <ele>362.96</ele>
  <time>2026-09-01T19:54:49Z</time>
  <course>192.04</course>
  <speed>0.41</speed>
  <fix>3d</fix>
</trkpt>
<trkpt lat="-27.2744523" lon="151.2900615">
  <ele>363.02</ele>
  <time>2026-09-01T19:54:49Z</time>
  <course>11.44</course>
  <speed>0.3634556369077249</speed>
  <fix>3d</fix>
</trkpt>
<trkpt lat="-27.2744515" lon="151.2900614">
  <ele>362.99</ele>
  <time>2026-09-01T19:54:49Z</time>
  <course>192.73</course>
  <speed>0.38</speed>
  <fix>3d</fix>
</trkpt>
<trkpt lat="-27.2744526" lon="151.2900614">
  <ele>363.01</ele>
  <time>2026-09-01T19:54:49Z</time>
  <course>11.49</course>
  <speed>0.33241540277189324</speed>
  <fix>3d</fix>
</trkpt>
<trkpt lat="-27.2744515" lon="151.2900614">
  <ele>362.99</ele>
  <time>2026-09-01T19:54:49Z</time>
  <course>192.73</course>
  <speed>0.38</speed>
  <fix>3d</fix>
</trkpt>
<trkpt lat="-27.2744529" lon="151.2900613">
  <ele>362.97</ele>
  <time>2026-09-01T19:54:49Z</time>
  <course>11.52</course>
  <speed>0.3125699921617557</speed>
  <fix>3d</fix>
</trkpt>
<trkpt lat="-27.2744521" lon="151.2900612">
  <ele>362.99</ele>
  <time>2026-09-01T19:54:49Z</time>
  <course>193.89</course>
  <speed>0.33</speed>
  <fix>3d</fix>
</trkpt>
<trkpt lat="-27.2744531" lon="151.2900613">
  <ele>362.92</ele>
  <time>2026-09-01T19:54:49Z</time>
  <course>11.5</course>
  <speed>0.291547594742265</speed>
  <fix>3d</fix>
</trkpt>
<trkpt lat="-27.2744521" lon="151.2900612">
  <ele>362.99</ele>
  <time>2026-09-01T19:54:49Z</time>
  <course>193.89</course>
  <speed>0.33</speed>
  <fix>3d</fix>
</trkpt>
<trkpt lat="-27.2744533" lon="151.2900612">
  <ele>362.85</ele>
  <time>2026-09-01T19:54:49Z</time>
  <course>11.38</course>
  <speed>0.260768096208106</speed>
  <fix>3d</fix>
</trkpt>
<trkpt lat="-27.2744526" lon="151.290061">
  <ele>362.93</ele>
  <time>2026-09-01T19:54:49Z</time>
  <course>194.94</course>
  <speed>0.29</speed>
  <fix>3d</fix>
</trkpt>
<trkpt lat="-27.2744535" lon="151.2900612">
  <ele>362.75</ele>
  <time>2026-09-01T19:54:49Z</time>
  <course>11.14</course>
  <speed>0.24020824298928628</speed>
  <fix>3d</fix>
</trkpt>
<trkpt lat="-27.2744526" lon="151.290061">
  <ele>362.93</ele>
  <time>2026-09-01T19:54:49Z</time>
  <course>194.94</course>
  <speed>0.29</speed>
  <fix>3d</fix>
</trkpt>
<trkpt lat="-27.2744537" lon="151.2900611">
  <ele>362.64</ele>
  <time>2026-09-01T19:54:49Z</time>
  <course>10.74</course>
  <speed>0.22</speed>
  <fix>3d</fix>
</trkpt>
<trkpt lat="-27.2744531" lon="151.2900609">
  <ele>362.81</ele>
  <time>2026-09-01T19:54:49Z</time>
  <course>193.76</course>
  <speed>0.24</speed>
  <fix>3d</fix>
</trkpt>
<trkpt lat="-27.2744539" lon="151.2900611">
  <ele>362.52</ele>
  <time>2026-09-01T19:54:49Z</time>
  <course>10.34</course>
  <speed>0.2002498439450079</speed>
  <fix>3d</fix>
</trkpt>
<trkpt lat="-27.2744531" lon="151.2900609">
  <ele>362.81</ele>
  <time>2026-09-01T19:54:49Z</time>
  <course>193.76</course>
  <speed>0.24</speed>
  <fix>3d</fix>
</trkpt>
<trkpt lat="-27.274454" lon="151.2900611">
  <ele>362.38</ele>
  <time>2026-09-01T19:54:49Z</time>
  <course>10.08</course>
  <speed>0.1711724276862369</speed>
  <fix>3d</fix>
</trkpt>
<trkpt lat="-27.2744535" lon="151.2900608">
  <ele>362.61</ele>
  <time>2026-09-01T19:54:49Z</time>
  <course>189.39</course>
  <speed>0.19</speed>
  <fix>3d</fix>
</trkpt>
<trkpt lat="-27.2744541" lon="151.2900611">
  <ele>362.23</ele>
  <time>2026-09-01T19:54:49Z</time>
  <course>9.99</course>
  <speed>0.15132745950421556</speed>
  <fix>3d</fix>
</trkpt>
<trkpt lat="-27.2744535" lon="151.2900608">
  <ele>362.61</ele>
  <time>2026-09-01T19:54:49Z</time>
  <course>189.39</course>
  <speed>0.19</speed>
  <fix>3d</fix>
</trkpt>
<trkpt lat="-27.2744542" lon="151.2900611">
  <ele>362.07</ele>
  <time>2026-09-01T19:54:49Z</time>
  <course>10.02</course>
  <speed>0.12369316876852982</speed>
  <fix>3d</fix>
</trkpt>
<trkpt lat="-27.2744538" lon="151.2900608">
  <ele>362.34</ele>
  <time>2026-09-01T19:54:49Z</time>
  <course>184.77</course>
  <speed>0.14</speed>
  <fix>3d</fix>
</trkpt>
<trkpt lat="-27.2744543" lon="151.2900611">
  <ele>361.9</ele>
  <time>2026-09-01T19:54:49Z</time>
  <course>10.18</course>
  <speed>0.1044030650891055</speed>
  <fix>3d</fix>
</trkpt>
<trkpt lat="-27.2744538" lon="151.2900608">
  <ele>362.34</ele>
  <time>2026-09-01T19:54:49Z</time>
  <course>184.77</course>
  <speed>0.14</speed>
  <fix>3d</fix>
</trkpt>
<trkpt lat="-27.2744544" lon="151.2900611">
  <ele>361.73</ele>
  <time>2026-09-01T19:54:49Z</time>
  <course>10.37</course>
  <speed>0.0854400374531753</speed>
  <fix>3d</fix>
</trkpt>
<trkpt lat="-27.274454" lon="151.2900608">
  <ele>362.05</ele>
  <time>2026-09-01T19:54:49Z</time>
  <course>180.97</course>
  <speed>0.09</speed>
  <fix>3d</fix>
</trkpt>
<trkpt lat="-27.2744544" lon="151.2900611">
  <ele>361.56</ele>
  <time>2026-09-01T19:54:49Z</time>
  <course>10.59</course>
  <speed>0.07211102550927978</speed>
  <fix>3d</fix>
</trkpt>
<trkpt lat="-27.274454" lon="151.2900608">
  <ele>362.05</ele>
  <time>2026-09-01T19:54:49Z</time>
  <course>180.97</course>
  <speed>0.09</speed>
  <fix>3d</fix>
</trkpt>
<trkpt lat="-27.2744544" lon="151.2900611">
  <ele>361.39</ele>
  <time>2026-09-01T19:54:49Z</time>
  <course>10.76</course>
  <speed>0.06403124237432849</speed>
  <fix>3d</fix>
</trkpt>
<trkpt lat="-27.2744541" lon="151.2900608">
  <ele>361.72</ele>
  <time>2026-09-01T19:54:49Z</time>
  <course>173.67</course>
  <speed>0.05</speed>
  <fix>3d</fix>
</trkpt>
<trkpt lat="-27.2744544" lon="151.2900611">
  <ele>361.22</ele>
  <time>2026-09-01T19:54:49Z</time>
  <course>10.89</course>
  <speed>0.06403124237432849</speed>
  <fix>3d</fix>
</trkpt>
<trkpt lat="-27.2744541" lon="151.2900608">
  <ele>361.72</ele>
  <time>2026-09-01T19:54:49Z</time>
  <course>173.67</course>
  <speed>0.05</speed>
  <fix>3d</fix>
</trkpt>
<trkpt lat="-27.2744544" lon="151.2900611">
  <ele>361.05</ele>
  <time>2026-09-01T19:54:49Z</time>
  <course>10.99</course>
  <speed>0.044721359549995794</speed>
  <fix>3d</fix>
</trkpt>
<trkpt lat="-27.2744542" lon="151.2900608">
  <ele>361.39</ele>
  <time>2026-09-01T19:54:49Z</time>
  <course>151.16</course>
  <speed>0.02</speed>
  <fix>3d</fix>
</trkpt>
<trkpt lat="-27.2744544" lon="151.2900611">
  <ele>360.89</ele>
  <time>2026-09-01T19:54:49Z</time>
  <course>11.1</course>
  <speed>0.0412310562561766</speed>
  <fix>3d</fix>
</trkpt>
<trkpt lat="-27.2744542" lon="151.2900608">
  <ele>361.39</ele>
  <time>2026-09-01T19:54:49Z</time>
  <course>151.16</course>
  <speed>0.02</speed>
  <fix>3d</fix>
</trkpt>
<trkpt lat="-27.2744544" lon="151.2900611">
  <ele>360.73</ele>
  <time>2026-09-01T19:54:49Z</time>
  <course>11.17</course>
  <speed>0.0412310562561766</speed>
  <fix>3d</fix>
</trkpt>
<trkpt lat="-27.2744542" lon="151.2900608">
  <ele>361.06</ele>
  <time>2026-09-01T19:54:49Z</time>
  <course>72.87</course>
  <speed>0.01</speed>
  <fix>3d</fix>
</trkpt>
<trkpt lat="-27.2744544" lon="151.2900611">
  <ele>360.58</ele>
  <time>2026-09-01T19:54:49Z</time>
  <course>11.22</course>
  <speed>0.03</speed>
  <fix>3d</fix>
</trkpt>
<trkpt lat="-27.2744542" lon="151.2900608">
  <ele>361.06</ele>
  <time>2026-09-01T19:54:49Z</time>
  <course>72.87</course>
  <speed>0.01</speed>
  <fix>3d</fix>
</trkpt>
<trkpt lat="-27.2744544" lon="151.2900611">
  <ele>360.43</ele>
  <time>2026-09-01T19:54:49Z</time>
  <course>11.24</course>
  <speed>0.03</speed>
  <fix>3d</fix>
</trkpt>
<trkpt lat="-27.2744542" lon="151.2900608">
  <ele>360.74</ele>
  <time>2026-09-01T19:54:49Z</time>
  <course>19.44</course>
  <speed>0.02</speed>
  <fix>3d</fix>
</trkpt>
<trkpt lat="-27.2744543" lon="151.2900611">
  <ele>360.28</ele>
  <time>2026-09-01T19:54:49Z</time>
  <course>11.24</course>
  <speed>0.03</speed>
  <fix>3d</fix>
</trkpt>
<trkpt lat="-27.2744542" lon="151.2900608">
  <ele>360.74</ele>
  <time>2026-09-01T19:54:49Z</time>
  <course>19.44</course>
  <speed>0.02</speed>
  <fix>3d</fix>
</trkpt>
<trkpt lat="-27.2744543" lon="151.2900611">
  <ele>360.13</ele>
  <time>2026-09-01T19:54:49Z</time>
  <course>11.22</course>
  <speed>0.02</speed>
  <fix>3d</fix>
</trkpt>
<trkpt lat="-27.2744542" lon="151.2900608">
  <ele>360.44</ele>
  <time>2026-09-01T19:54:49Z</time>
  <course>4.82</course>
  <speed>0.03</speed>
  <fix>3d</fix>
</trkpt>
<trkpt lat="-27.2744543" lon="151.2900611">
  <ele>359.98</ele>
  <time>2026-09-01T19:54:49Z</time>
  <course>11.2</course>
  <speed>0.02</speed>
  <fix>3d</fix>
</trkpt>
<trkpt lat="-27.2744542" lon="151.2900608">
  <ele>360.44</ele>
  <time>2026-09-01T19:54:49Z</time>
  <course>4.82</course>
  <speed>0.03</speed>
  <fix>3d</fix>
</trkpt>
<trkpt lat="-27.2744543" lon="151.2900611">
  <ele>359.84</ele>
  <time>2026-09-01T19:54:49Z</time>
  <course>11.16</course>
  <speed>0.02</speed>
  <fix>3d</fix>
</trkpt>
<trkpt lat="-27.2744542" lon="151.2900608">
  <ele>360.15</ele>
  <time>2026-09-01T19:54:49Z</time>
  <course>357.63</course>
  <speed>0.03</speed>
  <fix>3d</fix>
</trkpt>
<trkpt lat="-27.2744543" lon="151.2900611">
  <ele>359.69</ele>
  <time>2026-09-01T19:54:49Z</time>
  <course>11.13</course>
  <speed>0.02</speed>
  <fix>3d</fix>
</trkpt>
<trkpt lat="-27.2744542" lon="151.2900608">
  <ele>360.15</ele>
  <time>2026-09-01T19:54:49Z</time>
  <course>357.63</course>
  <speed>0.03</speed>
  <fix>3d</fix>
</trkpt>
<trkpt lat="-27.2744543" lon="151.2900611">
  <ele>359.55</ele>
  <time>2026-09-01T19:54:49Z</time>
  <course>11.09</course>
  <speed>0.01</speed>
  <fix>3d</fix>
</trkpt>
<trkpt lat="-27.2744541" lon="151.2900608">
  <ele>359.87</ele>
  <time>2026-09-01T19:54:49Z</time>
  <course>352.78</course>
  <speed>0.03</speed>
  <fix>3d</fix>
</trkpt>
<trkpt lat="-27.2744543" lon="151.2900611">
  <ele>359.41</ele>
  <time>2026-09-01T19:54:49Z</time>
  <course>11.06</course>
  <speed>0.01</speed>
  <fix>3d</fix>
</trkpt>
<trkpt lat="-27.2744541" lon="151.2900608">
  <ele>359.87</ele>
  <time>2026-09-01T19:54:49Z</time>
  <course>352.78</course>
  <speed>0.03</speed>
  <fix>3d</fix>
</trkpt>
<trkpt lat="-27.2744542" lon="151.2900611">
  <ele>359.27</ele>
  <time>2026-09-01T19:54:49Z</time>
  <course>11.03</course>
  <speed>0.01</speed>
  <fix>3d</fix>
</trkpt>
<trkpt lat="-27.2744541" lon="151.2900608">
  <ele>359.59</ele>
  <time>2026-09-01T19:54:49Z</time>
  <course>349.4</course>
  <speed>0.03</speed>
  <fix>3d</fix>
</trkpt>
<trkpt lat="-27.2744542" lon="151.2900611">
  <ele>359.13</ele>
  <time>2026-09-01T19:54:49Z</time>
  <course>11.0</course>
  <speed>0.01</speed>
  <fix>3d</fix>
</trkpt>
<trkpt lat="-27.2744541" lon="151.2900608">
  <ele>359.59</ele>
  <time>2026-09-01T19:54:49Z</time>
  <course>349.4</course>
  <speed>0.03</speed>
  <fix>3d</fix>
</trkpt>
<trkpt lat="-27.2744542" lon="151.2900611">
  <ele>358.98</ele>
  <time>2026-09-01T19:54:49Z</time>
  <course>10.97</course>
  <speed>0.01</speed>
  <fix>3d</fix>
</trkpt>
<trkpt lat="-27.274454" lon="151.2900608">
  <ele>359.31</ele>
  <time>2026-09-01T19:54:49Z</time>
  <course>348.04</course>
  <speed>0.03</speed>
  <fix>3d</fix>
</trkpt>
<trkpt lat="-27.2744542" lon="151.2900611">
  <ele>358.84</ele>
  <time>2026-09-01T19:54:49Z</time>
  <course>10.95</course>
  <speed>0.01</speed>
  <fix>3d</fix>
</trkpt>
<trkpt lat="-27.274454" lon="151.2900608">
  <ele>359.31</ele>
  <time>2026-09-01T19:54:49Z</time>
  <course>348.04</course>
  <speed>0.03</speed>
  <fix>3d</fix>
</trkpt>
<trkpt lat="-27.2744542" lon="151.2900611">
  <ele>358.69</ele>
  <time>2026-09-01T19:54:49Z</time>
  <course>10.91</course>
  <speed>0.01</speed>
  <fix>3d</fix>
</trkpt>
<trkpt lat="-27.2744539" lon="151.2900608">
  <ele>359.03</ele>
  <time>2026-09-01T19:54:49Z</time>
  <course>349.28</course>
  <speed>0.03</speed>
  <fix>3d</fix>
</trkpt>
<trkpt lat="-27.2744542" lon="151.2900611">
  <ele>358.55</ele>
  <time>2026-09-01T19:54:49Z</time>
  <course>10.89</course>
  <speed>0.022360679774997897</speed>
  <fix>3d</fix>
</trkpt>
<trkpt lat="-27.2744539" lon="151.2900608">
  <ele>359.03</ele>
  <time>2026-09-01T19:54:49Z</time>
  <course>349.28</course>
  <speed>0.03</speed>
  <fix>3d</fix>
</trkpt>
<trkpt lat="-27.2744541" lon="151.2900611">
  <ele>358.4</ele>
  <time>2026-09-01T19:54:49Z</time>
  <course>10.86</course>
  <speed>0.022360679774997897</speed>
  <fix>3d</fix>
</trkpt>
<trkpt lat="-27.2744539" lon="151.2900608">
  <ele>358.75</ele>
  <time>2026-09-01T19:54:49Z</time>
  <course>354.32</course>
  <speed>0.02</speed>
  <fix>3d</fix>
</trkpt>
<trkpt lat="-27.2744541" lon="151.290061">
  <ele>358.26</ele>
  <time>2026-09-01T19:54:49Z</time>
  <course>10.82</course>
  <speed>0.022360679774997897</speed>
  <fix>3d</fix>
</trkpt>
<trkpt lat="-27.2744539" lon="151.2900608">
  <ele>358.75</ele>
  <time>2026-09-01T19:54:49Z</time>
  <course>354.32</course>
  <speed>0.02</speed>
  <fix>3d</fix>
</trkpt>
<trkpt lat="-27.2744541" lon="151.290061">
  <ele>358.11</ele>
  <time>2026-09-01T19:54:49Z</time>
  <course>10.77</course>
  <speed>0.0282842712474619</speed>
  <fix>3d</fix>
</trkpt>
<trkpt lat="-27.2744539" lon="151.2900608">
  <ele>358.46</ele>
  <time>2026-09-01T19:54:49Z</time>
  <course>6.92</course>
  <speed>0.02</speed>
  <fix>3d</fix>
</trkpt>
<trkpt lat="-27.2744541" lon="151.290061">
  <ele>357.96</ele>
  <time>2026-09-01T19:54:49Z</time>
  <course>10.71</course>
  <speed>0.03605551275463989</speed>
  <fix>3d</fix>
</trkpt>
<trkpt lat="-27.2744539" lon="151.2900608">
  <ele>358.46</ele>
  <time>2026-09-01T19:54:49Z</time>
  <course>6.92</course>
  <speed>0.02</speed>
  <fix>3d</fix>
</trkpt>
<trkpt lat="-27.2744541" lon="151.290061">
  <ele>357.81</ele>
  <time>2026-09-01T19:54:49Z</time>
  <course>10.65</course>
  <speed>0.03605551275463989</speed>
  <fix>3d</fix>
</trkpt>
<trkpt lat="-27.2744538" lon="151.2900608">
  <ele>358.18</ele>
  <time>2026-09-01T19:54:49Z</time>
  <course>35.49</course>
  <speed>0.01</speed>
  <fix>3d</fix>
</trkpt>
<trkpt lat="-27.2744541" lon="151.290061">
  <ele>357.66</ele>
  <time>2026-09-01T19:54:49Z</time>
  <course>10.66</course>
  <speed>0.03605551275463989</speed>
  <fix>3d</fix>
</trkpt>
<trkpt lat="-27.2744538" lon="151.2900608">
  <ele>358.18</ele>
  <time>2026-09-01T19:54:49Z</time>
  <course>35.49</course>
  <speed>0.01</speed>
  <fix>3d</fix>
</trkpt>
<trkpt lat="-27.2744541" lon="151.290061">
  <ele>357.51</ele>
  <time>2026-09-01T19:54:49Z</time>
  <course>10.71</course>
  <speed>0.04242640687119285</speed>
  <fix>3d</fix>
</trkpt>
<trkpt lat="-27.2744538" lon="151.2900608">
  <ele>357.89</ele>
  <time>2026-09-01T19:54:49Z</time>
  <course>60.68</course>
  <speed>0.01</speed>
  <fix>3d</fix>
</trkpt>
<trkpt lat="-27.2744541" lon="151.290061">
  <ele>357.36</ele>
  <time>2026-09-01T19:54:49Z</time>
  <course>10.79</course>
  <speed>0.04242640687119285</speed>
  <fix>3d</fix>
</trkpt>
<trkpt lat="-27.2744538" lon="151.2900608">
  <ele>357.89</ele>
  <time>2026-09-01T19:54:49Z</time>
  <course>60.68</course>
  <speed>0.01</speed>
  <fix>3d</fix>
</trkpt>
<trkpt lat="-27.2744541" lon="151.290061">
  <ele>357.21</ele>
  <time>2026-09-01T19:54:49Z</time>
  <course>10.88</course>
  <speed>0.04242640687119285</speed>
  <fix>3d</fix>
</trkpt>
<trkpt lat="-27.2744538" lon="151.2900608">
  <ele>357.59</ele>
  <time>2026-09-01T19:54:49Z</time>
  <course>75.78</course>
  <speed>0.01</speed>
  <fix>3d</fix>
</trkpt>
<trkpt lat="-27.2744541" lon="151.290061">
  <ele>357.06</ele>
  <time>2026-09-01T19:54:49Z</time>
  <course>10.97</course>
  <speed>0.03605551275463989</speed>
  <fix>3d</fix>
</trkpt>
<trkpt lat="-27.2744538" lon="151.2900608">
  <ele>357.59</ele>
  <time>2026-09-01T19:54:49Z</time>
  <course>75.78</course>
  <speed>0.01</speed>
  <fix>3d</fix>
</trkpt>
<trkpt lat="-27.2744541" lon="151.290061">
  <ele>356.91</ele>
  <time>2026-09-01T19:54:49Z</time>
  <course>11.04</course>
  <speed>0.03605551275463989</speed>
  <fix>3d</fix>
</trkpt>
<trkpt lat="-27.2744538" lon="151.2900608">
  <ele>357.3</ele>
  <time>2026-09-01T19:54:49Z</time>
  <course>91.84</course>
  <speed>0.01</speed>
  <fix>3d</fix>
</trkpt>
<trkpt lat="-27.2744541" lon="151.290061">
  <ele>356.76</ele>
  <time>2026-09-01T19:54:49Z</time>
  <course>11.1</course>
  <speed>0.044721359549995794</speed>
  <fix>3d</fix>
</trkpt>
<trkpt lat="-27.2744538" lon="151.2900608">
  <ele>357.3</ele>
  <time>2026-09-01T19:54:49Z</time>
  <course>91.84</course>
  <speed>0.01</speed>
  <fix>3d</fix>
</trkpt>
<trkpt lat="-27.2744541" lon="151.290061">
  <ele>356.61</ele>
  <time>2026-09-01T19:54:49Z</time>
  <course>11.13</course>
  <speed>0.044721359549995794</speed>
  <fix>3d</fix>
</trkpt>
<trkpt lat="-27.2744538" lon="151.2900608">
  <ele>357.0</ele>
  <time>2026-09-01T19:54:49Z</time>
  <course>109.47</course>
  <speed>0.01</speed>
  <fix>3d</fix>
</trkpt>
<trkpt lat="-27.2744541" lon="151.290061">
  <ele>356.46</ele>
  <time>2026-09-01T19:54:49Z</time>
  <course>11.14</course>
  <speed>0.044721359549995794</speed>
  <fix>3d</fix>
</trkpt>
<trkpt lat="-27.2744538" lon="151.2900608">
  <ele>357.0</ele>
  <time>2026-09-01T19:54:49Z</time>
  <course>109.47</course>
  <speed>0.01</speed>
  <fix>3d</fix>
</trkpt>
<trkpt lat="-27.2744541" lon="151.290061">
  <ele>356.31</ele>
  <time>2026-09-01T19:54:49Z</time>
  <course>11.14</course>
  <speed>0.044721359549995794</speed>
  <fix>3d</fix>
</trkpt>
<trkpt lat="-27.2744538" lon="151.2900608">
  <ele>356.71</ele>
  <time>2026-09-01T19:54:49Z</time>
  <course>126.13</course>
  <speed>0.01</speed>
  <fix>3d</fix>
</trkpt>
<trkpt lat="-27.2744541" lon="151.290061">
  <ele>356.16</ele>
  <time>2026-09-01T19:54:49Z</time>
  <course>11.14</course>
  <speed>0.044721359549995794</speed>
  <fix>3d</fix>
</trkpt>
<trkpt lat="-27.2744538" lon="151.2900608">
  <ele>356.71</ele>
  <time>2026-09-01T19:54:49Z</time>
  <course>126.13</course>
  <speed>0.01</speed>
  <fix>3d</fix>
</trkpt>
<trkpt lat="-27.2744541" lon="151.290061">
  <ele>356.01</ele>
  <time>2026-09-01T19:54:49Z</time>
  <course>11.14</course>
  <speed>0.05099019513592785</speed>
  <fix>3d</fix>
</trkpt>
<trkpt lat="-27.2744538" lon="151.2900608">
  <ele>356.41</ele>
  <time>2026-09-01T19:54:49Z</time>
  <course>138.4</course>
  <speed>0.01</speed>
  <fix>3d</fix>
</trkpt>
<trkpt lat="-27.2744541" lon="151.290061">
  <ele>355.86</ele>
  <time>2026-09-01T19:54:49Z</time>
  <course>11.13</course>
  <speed>0.05099019513592785</speed>
  <fix>3d</fix>
</trkpt>
<trkpt lat="-27.2744538" lon="151.2900608">
  <ele>356.41</ele>
  <time>2026-09-01T19:54:49Z</time>
  <course>138.4</course>
  <speed>0.01</speed>
  <fix>3d</fix>
</trkpt>
<trkpt lat="-27.2744541" lon="151.290061">
  <ele>355.71</ele>
  <time>2026-09-01T19:54:49Z</time>
  <course>11.13</course>
  <speed>0.05099019513592785</speed>
  <fix>3d</fix>
</trkpt>
<trkpt lat="-27.2744538" lon="151.2900608">
  <ele>356.12</ele>
  <time>2026-09-01T19:54:49Z</time>
  <course>147.83</course>
  <speed>0.02</speed>
  <fix>3d</fix>
</trkpt>
<trkpt lat="-27.2744541" lon="151.290061">
  <ele>355.56</ele>
  <time>2026-09-01T19:54:49Z</time>
  <course>11.14</course>
  <speed>0.05099019513592785</speed>
  <fix>3d</fix>
</trkpt>
<trkpt lat="-27.2744538" lon="151.2900608">
  <ele>356.12</ele>
  <time>2026-09-01T19:54:49Z</time>
  <course>147.83</course>
  <speed>0.02</speed>
  <fix>3d</fix>
</trkpt>
<trkpt lat="-27.2744541" lon="151.290061">
  <ele>355.42</ele>
  <time>2026-09-01T19:54:49Z</time>
  <course>11.15</course>
  <speed>0.05099019513592785</speed>
  <fix>3d</fix>
</trkpt>
<trkpt lat="-27.2744538" lon="151.2900608">
  <ele>355.83</ele>
  <time>2026-09-01T19:54:49Z</time>
  <course>155.4</course>
  <speed>0.02</speed>
  <fix>3d</fix>
</trkpt>
<trkpt lat="-27.2744542" lon="151.290061">
  <ele>355.27</ele>
  <time>2026-09-01T19:54:49Z</time>
  <course>11.15</course>
  <speed>0.05099019513592785</speed>
  <fix>3d</fix>
</trkpt>
<trkpt lat="-27.2744538" lon="151.2900608">
  <ele>355.83</ele>
  <time>2026-09-01T19:54:49Z</time>
  <course>155.4</course>
  <speed>0.02</speed>
  <fix>3d</fix>
</trkpt>
<trkpt lat="-27.2744542" lon="151.290061">
  <ele>355.12</ele>
  <time>2026-09-01T19:54:49Z</time>
  <course>11.16</course>
  <speed>0.05099019513592785</speed>
  <fix>3d</fix>
</trkpt>
<trkpt lat="-27.2744538" lon="151.2900609">
  <ele>355.53</ele>
  <time>2026-09-01T19:54:49Z</time>
  <course>159.82</course>
  <speed>0.02</speed>
  <fix>3d</fix>
</trkpt>
<trkpt lat="-27.2744542" lon="151.290061">
  <ele>354.98</ele>
  <time>2026-09-01T19:54:49Z</time>
  <course>11.16</course>
  <speed>0.05</speed>
  <fix>3d</fix>
</trkpt>
<trkpt lat="-27.2744538" lon="151.2900609">
  <ele>355.53</ele>
  <time>2026-09-01T19:54:49Z</time>
  <course>159.82</course>
  <speed>0.02</speed>
  <fix>3d</fix>
</trkpt>
<trkpt lat="-27.2744542" lon="151.290061">
  <ele>354.83</ele>
  <time>2026-09-01T19:54:49Z</time>
  <course>11.16</course>
  <speed>0.05</speed>
  <fix>3d</fix>
</trkpt>
<trkpt lat="-27.2744539" lon="151.2900609">
  <ele>355.24</ele>
  <time>2026-09-01T19:54:49Z</time>
  <course>162.88</course>
  <speed>0.03</speed>
  <fix>3d</fix>
</trkpt>
<trkpt lat="-27.2744542" lon="151.290061">
  <ele>354.68</ele>
  <time>2026-09-01T19:54:49Z</time>
  <course>11.17</course>
  <speed>0.06</speed>
  <fix>3d</fix>
</trkpt>
<trkpt lat="-27.2744539" lon="151.2900609">
  <ele>355.24</ele>
  <time>2026-09-01T19:54:49Z</time>
  <course>162.88</course>
  <speed>0.03</speed>
  <fix>3d</fix>
</trkpt>
<trkpt lat="-27.2744542" lon="151.290061">
  <ele>354.53</ele>
  <time>2026-09-01T19:54:49Z</time>
  <course>11.17</course>
  <speed>0.06</speed>
  <fix>3d</fix>
</trkpt>
<trkpt lat="-27.2744539" lon="151.2900609">
  <ele>354.95</ele>
  <time>2026-09-01T19:54:49Z</time>
  <course>165.14</course>
  <speed>0.03</speed>
  <fix>3d</fix>
</trkpt>
<trkpt lat="-27.2744543" lon="151.290061">
  <ele>354.39</ele>
  <time>2026-09-01T19:54:49Z</time>
  <course>11.16</course>
  <speed>0.06</speed>
  <fix>3d</fix>
</trkpt>
<trkpt lat="-27.2744539" lon="151.2900609">
  <ele>354.95</ele>
  <time>2026-09-01T19:54:49Z</time>
  <course>165.14</course>
  <speed>0.03</speed>
  <fix>3d</fix>
</trkpt>
<trkpt lat="-27.2744543" lon="151.290061">
  <ele>354.24</ele>
  <time>2026-09-01T19:54:49Z</time>
  <course>11.15</course>
  <speed>0.06</speed>
  <fix>3d</fix>
</trkpt>
<trkpt lat="-27.274454" lon="151.2900609">
  <ele>354.65</ele>
  <time>2026-09-01T19:54:49Z</time>
  <course>166.26</course>
  <speed>0.03</speed>
  <fix>3d</fix>
</trkpt>
<trkpt lat="-27.2744543" lon="151.290061">
  <ele>354.09</ele>
  <time>2026-09-01T19:54:49Z</time>
  <course>11.15</course>
  <speed>0.06</speed>
  <fix>3d</fix>
</trkpt>
<trkpt lat="-27.2744541" lon="151.2900609">
  <ele>354.36</ele>
  <time>2026-09-01T19:54:49Z</time>
  <course>167.18</course>
  <speed>0.03</speed>
  <fix>3d</fix>
</trkpt>
<trkpt lat="-27.2744543" lon="151.290061">
  <ele>353.95</ele>
  <time>2026-09-01T19:54:49Z</time>
  <course>11.14</course>
  <speed>0.06082762530298219</speed>
  <fix>3d</fix>
</trkpt>
<trkpt lat="-27.2744541" lon="151.2900609">
  <ele>354.36</ele>
  <time>2026-09-01T19:54:49Z</time>
  <course>167.18</course>
  <speed>0.03</speed>
  <fix>3d</fix>
</trkpt>
<trkpt lat="-27.2744544" lon="151.290061">
  <ele>353.81</ele>
  <time>2026-09-01T19:54:49Z</time>
  <course>11.13</course>
  <speed>0.06082762530298219</speed>
  <fix>3d</fix>
</trkpt>
<trkpt lat="-27.2744541" lon="151.290061">
  <ele>354.07</ele>
  <time>2026-09-01T19:54:49Z</time>
  <course>168.82</course>
  <speed>0.04</speed>
  <fix>3d</fix>
</trkpt>
<trkpt lat="-27.2744544" lon="151.290061">
  <ele>353.67</ele>
  <time>2026-09-01T19:54:49Z</time>
  <course>11.13</course>
  <speed>0.06082762530298219</speed>
  <fix>3d</fix>
</trkpt>
<trkpt lat="-27.2744541" lon="151.290061">
  <ele>354.07</ele>
  <time>2026-09-01T19:54:49Z</time>
  <course>168.82</course>
  <speed>0.04</speed>
  <fix>3d</fix>
</trkpt>
<trkpt lat="-27.2744545" lon="151.290061">
  <ele>353.53</ele>
  <time>2026-09-01T19:54:49Z</time>
  <course>11.13</course>
  <speed>0.07071067811865475</speed>
  <fix>3d</fix>
</trkpt>
<trkpt lat="-27.2744542" lon="151.2900611">
  <ele>353.79</ele>
  <time>2026-09-01T19:54:49Z</time>
  <course>170.74</course>
  <speed>0.04</speed>
  <fix>3d</fix>
</trkpt>
<trkpt lat="-27.2744545" lon="151.290061">
  <ele>353.39</ele>
  <time>2026-09-01T19:54:49Z</time>
  <course>11.13</course>
  <speed>0.07071067811865475</speed>
  <fix>3d</fix>
</trkpt>
<trkpt lat="-27.2744542" lon="151.2900611">
  <ele>353.79</ele>
  <time>2026-09-01T19:54:49Z</time>
  <course>170.74</course>
  <speed>0.04</speed>
  <fix>3d</fix>
</trkpt>
<trkpt lat="-27.2744545" lon="151.290061">
  <ele>353.26</ele>
  <time>2026-09-01T19:54:49Z</time>
  <course>11.12</course>
  <speed>0.07071067811865475</speed>
  <fix>3d</fix>
</trkpt>
<trkpt lat="-27.2744542" lon="151.2900611">
  <ele>353.79</ele>
  <time>2026-09-01T19:54:49Z</time>
  <course>170.74</course>
  <speed>0.04</speed>
  <fix>3d</fix>
</trkpt>
<trkpt lat="-27.2744546" lon="151.290061">
  <ele>353.13</ele>
  <time>2026-09-01T19:54:49Z</time>
  <course>11.11</course>
  <speed>0.07071067811865475</speed>
  <fix>3d</fix>
</trkpt>
<trkpt lat="-27.2744543" lon="151.2900611">
  <ele>353.52</ele>
  <time>2026-09-01T19:54:49Z</time>
  <course>172.17</course>
  <speed>0.04</speed>
  <fix>3d</fix>
</trkpt>
<trkpt lat="-27.2744546" lon="151.290061">
  <ele>353.0</ele>
  <time>2026-09-01T19:54:49Z</time>
  <course>11.11</course>
  <speed>0.07071067811865475</speed>
  <fix>3d</fix>
</trkpt>
<trkpt lat="-27.2744543" lon="151.2900611">
  <ele>353.52</ele>
  <time>2026-09-01T19:54:49Z</time>
  <course>172.17</course>
  <speed>0.04</speed>
  <fix>3d</fix>
</trkpt>
<trkpt lat="-27.2744546" lon="151.290061">
  <ele>352.88</ele>
  <time>2026-09-01T19:54:49Z</time>
  <course>11.11</course>
  <speed>0.07071067811865475</speed>
  <fix>3d</fix>
</trkpt>
<trkpt lat="-27.2744544" lon="151.2900611">
  <ele>353.26</ele>
  <time>2026-09-01T19:54:49Z</time>
  <course>173.44</course>
  <speed>0.05</speed>
  <fix>3d</fix>
</trkpt>
<trkpt lat="-27.2744547" lon="151.2900611">
  <ele>352.76</ele>
  <time>2026-09-01T19:54:49Z</time>
  <course>11.11</course>
  <speed>0.07071067811865475</speed>
  <fix>3d</fix>
</trkpt>
<trkpt lat="-27.2744544" lon="151.2900611">
  <ele>353.26</ele>
  <time>2026-09-01T19:54:49Z</time>
  <course>173.44</course>
  <speed>0.05</speed>
  <fix>3d</fix>
</trkpt>
<trkpt lat="-27.2744547" lon="151.2900611">
  <ele>352.64</ele>
  <time>2026-09-01T19:54:49Z</time>
  <course>11.11</course>
  <speed>0.07071067811865475</speed>
  <fix>3d</fix>
</trkpt>
<trkpt lat="-27.2744544" lon="151.2900611">
  <ele>353.0</ele>
  <time>2026-09-01T19:54:49Z</time>
  <course>174.87</course>
  <speed>0.05</speed>
  <fix>3d</fix>
</trkpt>
<trkpt lat="-27.2744548" lon="151.2900611">
  <ele>352.53</ele>
  <time>2026-09-01T19:54:49Z</time>
  <course>11.1</course>
  <speed>0.08062257748298549</speed>
  <fix>3d</fix>
</trkpt>
<trkpt lat="-27.2744544" lon="151.2900611">
  <ele>353.0</ele>
  <time>2026-09-01T19:54:49Z</time>
  <course>174.87</course>
  <speed>0.05</speed>
  <fix>3d</fix>
</trkpt>
<trkpt lat="-27.2744548" lon="151.2900611">
  <ele>352.41</ele>
  <time>2026-09-01T19:54:49Z</time>
  <course>11.09</course>
  <speed>0.08062257748298549</speed>
  <fix>3d</fix>
</trkpt>
<trkpt lat="-27.2744545" lon="151.2900611">
  <ele>352.76</ele>
  <time>2026-09-01T19:54:49Z</time>
  <course>175.96</course>
  <speed>0.05</speed>
  <fix>3d</fix>
</trkpt>
<trkpt lat="-27.2744549" lon="151.2900611">
  <ele>352.3</ele>
  <time>2026-09-01T19:54:49Z</time>
  <course>11.09</course>
  <speed>0.08062257748298549</speed>
  <fix>3d</fix>
</trkpt>
<trkpt lat="-27.2744545" lon="151.2900611">
  <ele>352.76</ele>
  <time>2026-09-01T19:54:49Z</time>
  <course>175.96</course>
  <speed>0.05</speed>
  <fix>3d</fix>
</trkpt>
<trkpt lat="-27.2744549" lon="151.2900611">
  <ele>352.19</ele>
  <time>2026-09-01T19:54:49Z</time>
  <course>11.08</course>
  <speed>0.08062257748298549</speed>
  <fix>3d</fix>
</trkpt>
<trkpt lat="-27.2744547" lon="151.2900611">
  <ele>352.53</ele>
  <time>2026-09-01T19:54:49Z</time>
  <course>176.9</course>
  <speed>0.05</speed>
  <fix>3d</fix>
</trkpt>
<trkpt lat="-27.274455" lon="151.2900611">
  <ele>352.08</ele>
  <time>2026-09-01T19:54:49Z</time>
  <course>11.07</course>
  <speed>0.08062257748298549</speed>
  <fix>3d</fix>
</trkpt>
<trkpt lat="-27.2744547" lon="151.2900611">
  <ele>352.53</ele>
  <time>2026-09-01T19:54:49Z</time>
  <course>176.9</course>
  <speed>0.05</speed>
  <fix>3d</fix>
</trkpt>
<trkpt lat="-27.274455" lon="151.2900611">
  <ele>351.97</ele>
  <time>2026-09-01T19:54:49Z</time>
  <course>11.07</course>
  <speed>0.08062257748298549</speed>
  <fix>3d</fix>
</trkpt>
<trkpt lat="-27.2744548" lon="151.2900611">
  <ele>352.31</ele>
  <time>2026-09-01T19:54:49Z</time>
  <course>177.61</course>
  <speed>0.06</speed>
  <fix>3d</fix>
</trkpt>
<trkpt lat="-27.2744551" lon="151.2900611">
  <ele>351.86</ele>
  <time>2026-09-01T19:54:49Z</time>
  <course>11.05</course>
  <speed>0.08062257748298549</speed>
  <fix>3d</fix>
</trkpt>
<trkpt lat="-27.2744548" lon="151.2900611">
  <ele>352.31</ele>
  <time>2026-09-01T19:54:49Z</time>
  <course>177.61</course>
  <speed>0.06</speed>
  <fix>3d</fix>
</trkpt>
<trkpt lat="-27.2744551" lon="151.2900611">
  <ele>351.76</ele>
  <time>2026-09-01T19:54:49Z</time>
  <course>11.03</course>
  <speed>0.08062257748298549</speed>
  <fix>3d</fix>
</trkpt>
<trkpt lat="-27.2744549" lon="151.2900611">
  <ele>352.09</ele>
  <time>2026-09-01T19:54:49Z</time>
  <course>177.76</course>
  <speed>0.06</speed>
  <fix>3d</fix>
</trkpt>
<trkpt lat="-27.2744552" lon="151.2900611">
  <ele>351.66</ele>
  <time>2026-09-01T19:54:49Z</time>
  <course>11.01</course>
  <speed>0.08062257748298549</speed>
  <fix>3d</fix>
</trkpt>
<trkpt lat="-27.2744549" lon="151.2900611">
  <ele>352.09</ele>
  <time>2026-09-01T19:54:49Z</time>
  <course>177.76</course>
  <speed>0.06</speed>
  <fix>3d</fix>
</trkpt>
<trkpt lat="-27.2744553" lon="151.2900611">
  <ele>351.55</ele>
  <time>2026-09-01T19:54:49Z</time>
  <course>10.99</course>
  <speed>0.08062257748298549</speed>
  <fix>3d</fix>
</trkpt>
<trkpt lat="-27.274455" lon="151.2900611">
  <ele>351.88</ele>
  <time>2026-09-01T19:54:49Z</time>
  <course>177.95</course>
  <speed>0.06</speed>
  <fix>3d</fix>
</trkpt>
<trkpt lat="-27.2744553" lon="151.2900611">
  <ele>351.46</ele>
  <time>2026-09-01T19:54:49Z</time>
  <course>10.97</course>
  <speed>0.08062257748298549</speed>
  <fix>3d</fix>
</trkpt>
<trkpt lat="-27.2744551" lon="151.2900611">
  <ele>351.68</ele>
  <time>2026-09-01T19:54:49Z</time>
  <course>177.92</course>
  <speed>0.06</speed>
  <fix>3d</fix>
</trkpt>
<trkpt lat="-27.2744554" lon="151.2900611">
  <ele>351.36</ele>
  <time>2026-09-01T19:54:49Z</time>
  <course>10.95</course>
  <speed>0.08062257748298549</speed>
  <fix>3d</fix>
</trkpt>
<trkpt lat="-27.2744551" lon="151.2900611">
  <ele>351.68</ele>
  <time>2026-09-01T19:54:49Z</time>
  <course>177.92</course>
  <speed>0.06</speed>
  <fix>3d</fix>
</trkpt>
<trkpt lat="-27.2744554" lon="151.2900611">
  <ele>351.27</ele>
  <time>2026-09-01T19:54:49Z</time>
  <course>10.94</course>
  <speed>0.08062257748298549</speed>
  <fix>3d</fix>
</trkpt>
<trkpt lat="-27.2744552" lon="151.2900611">
  <ele>351.48</ele>
  <time>2026-09-01T19:54:49Z</time>
  <course>177.63</course>
  <speed>0.06</speed>
  <fix>3d</fix>
</trkpt>
<trkpt lat="-27.2744555" lon="151.2900611">
  <ele>351.18</ele>
  <time>2026-09-01T19:54:49Z</time>
  <course>10.93</course>
  <speed>0.08062257748298549</speed>
  <fix>3d</fix>
</trkpt>
<trkpt lat="-27.2744552" lon="151.2900611">
  <ele>351.48</ele>
  <time>2026-09-01T19:54:49Z</time>
  <course>177.63</course>
  <speed>0.06</speed>
  <fix>3d</fix>
</trkpt>
<trkpt lat="-27.2744555" lon="151.2900612">
  <ele>351.09</ele>
  <time>2026-09-01T19:54:49Z</time>
  <course>10.92</course>
  <speed>0.08062257748298549</speed>
  <fix>3d</fix>
</trkpt>
<trkpt lat="-27.2744553" lon="151.2900611">
  <ele>351.3</ele>
  <time>2026-09-01T19:54:49Z</time>
  <course>177.79</course>
  <speed>0.06</speed>
  <fix>3d</fix>
</trkpt>
<trkpt lat="-27.2744556" lon="151.2900612">
  <ele>351.0</ele>
  <time>2026-09-01T19:54:49Z</time>
  <course>10.93</course>
  <speed>0.08062257748298549</speed>
  <fix>3d</fix>
</trkpt>
<trkpt lat="-27.2744553" lon="151.2900611">
  <ele>351.3</ele>
  <time>2026-09-01T19:54:49Z</time>
  <course>177.79</course>
  <speed>0.06</speed>
  <fix>3d</fix>
</trkpt>
<trkpt lat="-27.2744556" lon="151.2900612">
  <ele>350.91</ele>
  <time>2026-09-01T19:54:49Z</time>
  <course>10.96</course>
  <speed>0.07071067811865475</speed>
  <fix>3d</fix>
</trkpt>
<trkpt lat="-27.2744554" lon="151.2900611">
  <ele>351.12</ele>
  <time>2026-09-01T19:54:49Z</time>
  <course>179.41</course>
  <speed>0.05</speed>
  <fix>3d</fix>
</trkpt>
<trkpt lat="-27.2744557" lon="151.2900612">
  <ele>350.83</ele>
  <time>2026-09-01T19:54:49Z</time>
  <course>11.01</course>
  <speed>0.07071067811865475</speed>
  <fix>3d</fix>
</trkpt>
<trkpt lat="-27.2744554" lon="151.2900611">
  <ele>351.12</ele>
  <time>2026-09-01T19:54:49Z</time>
  <course>179.41</course>
  <speed>0.05</speed>
  <fix>3d</fix>
</trkpt>
<trkpt lat="-27.2744557" lon="151.2900612">
  <ele>350.75</ele>
  <time>2026-09-01T19:54:49Z</time>
  <course>11.08</course>
  <speed>0.07</speed>
  <fix>3d</fix>
</trkpt>
<trkpt lat="-27.2744555" lon="151.2900611">
  <ele>350.94</ele>
  <time>2026-09-01T19:54:49Z</time>
  <course>183.72</course>
  <speed>0.05</speed>
  <fix>3d</fix>
</trkpt>
<trkpt lat="-27.2744558" lon="151.2900611">
  <ele>350.67</ele>
  <time>2026-09-01T19:54:49Z</time>
  <course>11.17</course>
  <speed>0.07</speed>
  <fix>3d</fix>
</trkpt>
<trkpt lat="-27.2744555" lon="151.2900611">
  <ele>350.94</ele>
  <time>2026-09-01T19:54:49Z</time>
  <course>183.72</course>
  <speed>0.05</speed>
  <fix>3d</fix>
</trkpt>
<trkpt lat="-27.2744558" lon="151.2900611">
  <ele>350.59</ele>
  <time>2026-09-01T19:54:49Z</time>
  <course>11.26</course>
  <speed>0.06</speed>
  <fix>3d</fix>
</trkpt>
<trkpt lat="-27.2744556" lon="151.2900611">
  <ele>350.78</ele>
  <time>2026-09-01T19:54:49Z</time>
  <course>191.32</course>
  <speed>0.05</speed>
  <fix>3d</fix>
</trkpt>
<trkpt lat="-27.2744558" lon="151.2900611">
  <ele>350.51</ele>
  <time>2026-09-01T19:54:49Z</time>
  <course>11.35</course>
  <speed>0.06</speed>
  <fix>3d</fix>
</trkpt>
<trkpt lat="-27.2744556" lon="151.2900611">
  <ele>350.78</ele>
  <time>2026-09-01T19:54:49Z</time>
  <course>191.32</course>
  <speed>0.05</speed>
  <fix>3d</fix>
</trkpt>
<trkpt lat="-27.2744559" lon="151.2900611">
  <ele>350.44</ele>
  <time>2026-09-01T19:54:49Z</time>
  <course>11.45</course>
  <speed>0.06</speed>
  <fix>3d</fix>
</trkpt>
<trkpt lat="-27.2744556" lon="151.2900611">
  <ele>350.78</ele>
  <time>2026-09-01T19:54:49Z</time>
  <course>191.32</course>
  <speed>0.05</speed>
  <fix>3d</fix>
</trkpt>
<trkpt lat="-27.2744559" lon="151.2900611">
  <ele>350.36</ele>
  <time>2026-09-01T19:54:49Z</time>
  <course>11.53</course>
  <speed>0.05099019513592785</speed>
  <fix>3d</fix>
</trkpt>
<trkpt lat="-27.2744557" lon="151.2900611">
  <ele>350.62</ele>
  <time>2026-09-01T19:54:49Z</time>
  <course>202.58</course>
  <speed>0.04</speed>
  <fix>3d</fix>
</trkpt>
<trkpt lat="-27.2744559" lon="151.2900611">
  <ele>350.28</ele>
  <time>2026-09-01T19:54:49Z</time>
  <course>11.61</course>
  <speed>0.05099019513592785</speed>
  <fix>3d</fix>
</trkpt>
<trkpt lat="-27.2744557" lon="151.2900611">
  <ele>350.62</ele>
  <time>2026-09-01T19:54:49Z</time>
  <course>202.58</course>
  <speed>0.04</speed>
  <fix>3d</fix>
</trkpt>
<trkpt lat="-27.274456" lon="151.2900611">
  <ele>350.21</ele>
  <time>2026-09-01T19:54:49Z</time>
  <course>11.69</course>
  <speed>0.053851648071345036</speed>
  <fix>3d</fix>
</trkpt>
<trkpt lat="-27.2744558" lon="151.2900611">
  <ele>350.46</ele>
  <time>2026-09-01T19:54:49Z</time>
  <course>216.64</course>
  <speed>0.04</speed>
  <fix>3d</fix>
</trkpt>
<trkpt lat="-27.274456" lon="151.2900611">
  <ele>350.13</ele>
  <time>2026-09-01T19:54:49Z</time>
  <course>11.75</course>
  <speed>0.05830951894845301</speed>
  <fix>3d</fix>
</trkpt>
<trkpt lat="-27.2744558" lon="151.2900611">
  <ele>350.46</ele>
  <time>2026-09-01T19:54:49Z</time>
  <course>216.64</course>
  <speed>0.04</speed>
  <fix>3d</fix>
</trkpt>
<trkpt lat="-27.274456" lon="151.290061">
  <ele>350.06</ele>
  <time>2026-09-01T19:54:49Z</time>
  <course>11.8</course>
  <speed>0.05</speed>
  <fix>3d</fix>
</trkpt>
<trkpt lat="-27.2744559" lon="151.290061">
  <ele>350.3</ele>
  <time>2026-09-01T19:54:49Z</time>
  <course>231.23</course>
  <speed>0.05</speed>
  <fix>3d</fix>
</trkpt>
<trkpt lat="-27.2744561" lon="151.290061">
  <ele>349.99</ele>
  <time>2026-09-01T19:54:49Z</time>
  <course>11.85</course>
  <speed>0.0565685424949238</speed>
  <fix>3d</fix>
</trkpt>
<trkpt lat="-27.2744559" lon="151.290061">
  <ele>350.3</ele>
  <time>2026-09-01T19:54:49Z</time>
  <course>231.23</course>
  <speed>0.05</speed>
  <fix>3d</fix>
</trkpt>
<trkpt lat="-27.2744561" lon="151.2900609">
  <ele>349.92</ele>
  <time>2026-09-01T19:54:49Z</time>
  <course>11.9</course>
  <speed>0.05</speed>
  <fix>3d</fix>
</trkpt>
<trkpt lat="-27.2744559" lon="151.2900609">
  <ele>350.15</ele>
  <time>2026-09-01T19:54:49Z</time>
  <course>243.81</course>
  <speed>0.05</speed>
  <fix>3d</fix>
</trkpt>
<trkpt lat="-27.2744561" lon="151.2900609">
  <ele>349.85</ele>
  <time>2026-09-01T19:54:49Z</time>
  <course>11.95</course>
  <speed>0.05830951894845301</speed>
  <fix>3d</fix>
</trkpt>
<trkpt lat="-27.274456" lon="151.2900608">
  <ele>350.0</ele>
  <time>2026-09-01T19:54:49Z</time>
  <course>253.76</course>
  <speed>0.06</speed>
  <fix>3d</fix>
</trkpt>
<trkpt lat="-27.2744561" lon="151.2900608">
  <ele>349.78</ele>
  <time>2026-09-01T19:54:49Z</time>
  <course>11.99</course>
  <speed>0.05830951894845301</speed>
  <fix>3d</fix>
</trkpt>
<trkpt lat="-27.274456" lon="151.2900608">
  <ele>350.0</ele>
  <time>2026-09-01T19:54:49Z</time>
  <course>253.76</course>
  <speed>0.06</speed>
  <fix>3d</fix>
</trkpt>
<trkpt lat="-27.2744561" lon="151.2900607">
  <ele>349.72</ele>
  <time>2026-09-01T19:54:49Z</time>
  <course>12.02</course>
  <speed>0.0632455532033676</speed>
  <fix>3d</fix>
</trkpt>
<trkpt lat="-27.274456" lon="151.2900607">
  <ele>349.86</ele>
  <time>2026-09-01T19:54:49Z</time>
  <course>261.5</course>
  <speed>0.07</speed>
  <fix>3d</fix>
</trkpt>
<trkpt lat="-27.2744561" lon="151.2900607">
  <ele>349.65</ele>
  <time>2026-09-01T19:54:49Z</time>
  <course>12.05</course>
  <speed>0.0632455532033676</speed>
  <fix>3d</fix>
</trkpt>
<trkpt lat="-27.274456" lon="151.2900607">
  <ele>349.86</ele>
  <time>2026-09-01T19:54:49Z</time>
  <course>261.5</course>
  <speed>0.07</speed>
  <fix>3d</fix>
</trkpt>
<trkpt lat="-27.2744561" lon="151.2900606">
  <ele>349.59</ele>
  <time>2026-09-01T19:54:49Z</time>
  <course>12.07</course>
  <speed>0.0632455532033676</speed>
  <fix>3d</fix>
</trkpt>
<trkpt lat="-27.274456" lon="151.2900606">
  <ele>349.72</ele>
  <time>2026-09-01T19:54:49Z</time>
  <course>267.37</course>
  <speed>0.08</speed>
  <fix>3d</fix>
</trkpt>
<trkpt lat="-27.2744561" lon="151.2900605">
  <ele>349.52</ele>
  <time>2026-09-01T19:54:49Z</time>
  <course>12.09</course>
  <speed>0.07071067811865475</speed>
  <fix>3d</fix>
</trkpt>
<trkpt lat="-27.274456" lon="151.2900606">
  <ele>349.72</ele>
  <time>2026-09-01T19:54:49Z</time>
  <course>267.37</course>
  <speed>0.08</speed>
  <fix>3d</fix>
</trkpt>
<trkpt lat="-27.2744561" lon="151.2900604">
  <ele>349.46</ele>
  <time>2026-09-01T19:54:49Z</time>
  <course>12.12</course>
  <speed>0.07071067811865475</speed>
  <fix>3d</fix>
</trkpt>
<trkpt lat="-27.274456" lon="151.2900603">
  <ele>349.59</ele>
  <time>2026-09-01T19:54:49Z</time>
  <course>272.14</course>
  <speed>0.08</speed>
  <fix>3d</fix>
</trkpt>
<trkpt lat="-27.2744561" lon="151.2900603">
  <ele>349.39</ele>
  <time>2026-09-01T19:54:49Z</time>
  <course>12.14</course>
  <speed>0.07071067811865475</speed>
  <fix>3d</fix>
</trkpt>
<trkpt lat="-27.274456" lon="151.2900603">
  <ele>349.59</ele>
  <time>2026-09-01T19:54:49Z</time>
  <course>272.14</course>
  <speed>0.08</speed>
  <fix>3d</fix>
</trkpt>
<trkpt lat="-27.2744561" lon="151.2900602">
  <ele>349.33</ele>
  <time>2026-09-01T19:54:49Z</time>
  <course>12.16</course>
  <speed>0.07071067811865475</speed>
  <fix>3d</fix>
</trkpt>
<trkpt lat="-27.274456" lon="151.2900602">
  <ele>349.46</ele>
  <time>2026-09-01T19:54:49Z</time>
  <course>276.22</course>
  <speed>0.09</speed>
  <fix>3d</fix>
</trkpt>
<trkpt lat="-27.2744561" lon="151.2900601">
  <ele>349.27</ele>
  <time>2026-09-01T19:54:49Z</time>
  <course>12.18</course>
  <speed>0.07</speed>
  <fix>3d</fix>
</trkpt>
<trkpt lat="-27.274456" lon="151.2900602">
  <ele>349.46</ele>
  <time>2026-09-01T19:54:49Z</time>
  <course>276.22</course>
  <speed>0.09</speed>
  <fix>3d</fix>
</trkpt>
<trkpt lat="-27.2744561" lon="151.2900601">
  <ele>349.21</ele>
  <time>2026-09-01T19:54:49Z</time>
  <course>12.2</course>
  <speed>0.07</speed>
  <fix>3d</fix>
</trkpt>
<trkpt lat="-27.274456" lon="151.2900599">
  <ele>349.34</ele>
  <time>2026-09-01T19:54:49Z</time>
  <course>279.66</course>
  <speed>0.09</speed>
  <fix>3d</fix>
</trkpt>
<trkpt lat="-27.2744561" lon="151.29006">
  <ele>349.15</ele>
  <time>2026-09-01T19:54:49Z</time>
  <course>12.22</course>
  <speed>0.07</speed>
  <fix>3d</fix>
</trkpt>
<trkpt lat="-27.274456" lon="151.2900599">
  <ele>349.34</ele>
  <time>2026-09-01T19:54:49Z</time>
  <course>279.66</course>
  <speed>0.09</speed>
  <fix>3d</fix>
</trkpt>
<trkpt lat="-27.2744561" lon="151.2900599">
  <ele>349.1</ele>
  <time>2026-09-01T19:54:49Z</time>
  <course>12.23</course>
  <speed>0.07</speed>
  <fix>3d</fix>
</trkpt>
<trkpt lat="-27.274456" lon="151.2900598">
  <ele>349.22</ele>
  <time>2026-09-01T19:54:49Z</time>
  <course>282.91</course>
  <speed>0.09</speed>
  <fix>3d</fix>
</trkpt>
<trkpt lat="-27.2744561" lon="151.2900598">
  <ele>349.04</ele>
  <time>2026-09-01T19:54:49Z</time>
  <course>12.25</course>
  <speed>0.07</speed>
  <fix>3d</fix>
</trkpt>
<trkpt lat="-27.274456" lon="151.2900598">
  <ele>349.22</ele>
  <time>2026-09-01T19:54:49Z</time>
  <course>282.91</course>
  <speed>0.09</speed>
  <fix>3d</fix>
</trkpt>
<trkpt lat="-27.2744561" lon="151.2900597">
  <ele>348.99</ele>
  <time>2026-09-01T19:54:49Z</time>
  <course>12.25</course>
  <speed>0.07</speed>
  <fix>3d</fix>
</trkpt>
<trkpt lat="-27.274456" lon="151.2900596">
  <ele>349.11</ele>
  <time>2026-09-01T19:54:49Z</time>
  <course>286.24</course>
  <speed>0.09</speed>
  <fix>3d</fix>
</trkpt>
<trkpt lat="-27.2744561" lon="151.2900596">
  <ele>348.93</ele>
  <time>2026-09-01T19:54:49Z</time>
  <course>12.26</course>
  <speed>0.07</speed>
  <fix>3d</fix>
</trkpt>
<trkpt lat="-27.274456" lon="151.2900596">
  <ele>349.11</ele>
  <time>2026-09-01T19:54:49Z</time>
  <course>286.24</course>
  <speed>0.09</speed>
  <fix>3d</fix>
</trkpt>
<trkpt lat="-27.2744561" lon="151.2900595">
  <ele>348.88</ele>
  <time>2026-09-01T19:54:49Z</time>
  <course>12.27</course>
  <speed>0.07</speed>
  <fix>3d</fix>
</trkpt>
<trkpt lat="-27.2744559" lon="151.2900594">
  <ele>349.0</ele>
  <time>2026-09-01T19:54:49Z</time>
  <course>289.53</course>
  <speed>0.09</speed>
  <fix>3d</fix>
</trkpt>
<trkpt lat="-27.274456" lon="151.2900594">
  <ele>348.83</ele>
  <time>2026-09-01T19:54:49Z</time>
  <course>12.28</course>
  <speed>0.06</speed>
  <fix>3d</fix>
</trkpt>
<trkpt lat="-27.2744559" lon="151.2900594">
  <ele>349.0</ele>
  <time>2026-09-01T19:54:49Z</time>
  <course>289.53</course>
  <speed>0.09</speed>
  <fix>3d</fix>
</trkpt>
<trkpt lat="-27.274456" lon="151.2900593">
  <ele>348.78</ele>
  <time>2026-09-01T19:54:49Z</time>
  <course>12.29</course>
  <speed>0.06</speed>
  <fix>3d</fix>
</trkpt>
<trkpt lat="-27.2744559" lon="151.2900593">
  <ele>348.9</ele>
  <time>2026-09-01T19:54:49Z</time>
  <course>292.77</course>
  <speed>0.09</speed>
  <fix>3d</fix>
</trkpt>
<trkpt lat="-27.274456" lon="151.2900593">
  <ele>348.73</ele>
  <time>2026-09-01T19:54:49Z</time>
  <course>12.3</course>
  <speed>0.06082762530298219</speed>
  <fix>3d</fix>
</trkpt>
<trkpt lat="-27.2744559" lon="151.2900593">
  <ele>348.9</ele>
  <time>2026-09-01T19:54:49Z</time>
  <course>292.77</course>
  <speed>0.09</speed>
  <fix>3d</fix>
</trkpt>
<trkpt lat="-27.274456" lon="151.2900592">
  <ele>348.68</ele>
  <time>2026-09-01T19:54:49Z</time>
  <course>12.3</course>
  <speed>0.05099019513592785</speed>
  <fix>3d</fix>
</trkpt>
<trkpt lat="-27.2744558" lon="151.2900591">
  <ele>348.8</ele>
  <time>2026-09-01T19:54:49Z</time>
  <course>296.4</course>
  <speed>0.08</speed>
  <fix>3d</fix>
</trkpt>
<trkpt lat="-27.2744559" lon="151.2900591">
  <ele>348.63</ele>
  <time>2026-09-01T19:54:49Z</time>
  <course>12.3</course>
  <speed>0.05099019513592785</speed>
  <fix>3d</fix>
</trkpt>
<trkpt lat="-27.2744558" lon="151.2900591">
  <ele>348.8</ele>
  <time>2026-09-01T19:54:49Z</time>
  <course>296.4</course>
  <speed>0.08</speed>
  <fix>3d</fix>
</trkpt>
<trkpt lat="-27.2744559" lon="151.2900591">
  <ele>348.58</ele>
  <time>2026-09-01T19:54:49Z</time>
  <course>12.3</course>
  <speed>0.0412310562561766</speed>
  <fix>3d</fix>
</trkpt>
<trkpt lat="-27.2744557" lon="151.2900589">
  <ele>348.7</ele>
  <time>2026-09-01T19:54:49Z</time>
  <course>300.82</course>
  <speed>0.07</speed>
  <fix>3d</fix>
</trkpt>
<trkpt lat="-27.2744559" lon="151.290059">
  <ele>348.53</ele>
  <time>2026-09-01T19:54:49Z</time>
  <course>12.3</course>
  <speed>0.0412310562561766</speed>
  <fix>3d</fix>
</trkpt>
<trkpt lat="-27.2744557" lon="151.2900589">
  <ele>348.7</ele>
  <time>2026-09-01T19:54:49Z</time>
  <course>300.82</course>
  <speed>0.07</speed>
  <fix>3d</fix>
</trkpt>
<trkpt lat="-27.2744559" lon="151.2900589">
  <ele>348.49</ele>
  <time>2026-09-01T19:54:49Z</time>
  <course>12.3</course>
  <speed>0.0316227766016838</speed>
  <fix>3d</fix>
</trkpt>
<trkpt lat="-27.2744557" lon="151.2900588">
  <ele>348.59</ele>
  <time>2026-09-01T19:54:49Z</time>
  <course>306.24</course>
  <speed>0.07</speed>
  <fix>3d</fix>
</trkpt>
<trkpt lat="-27.2744558" lon="151.2900589">
  <ele>348.44</ele>
  <time>2026-09-01T19:54:49Z</time>
  <course>12.3</course>
  <speed>0.0316227766016838</speed>
  <fix>3d</fix>
</trkpt>
<trkpt lat="-27.2744557" lon="151.2900588">
  <ele>348.59</ele>
  <time>2026-09-01T19:54:49Z</time>
  <course>306.24</course>
  <speed>0.07</speed>
  <fix>3d</fix>
</trkpt>
<trkpt lat="-27.2744558" lon="151.2900588">
  <ele>348.39</ele>
  <time>2026-09-01T19:54:49Z</time>
  <course>12.3</course>
  <speed>0.022360679774997897</speed>
  <fix>3d</fix>
</trkpt>
<trkpt lat="-27.2744556" lon="151.2900587">
  <ele>348.5</ele>
  <time>2026-09-01T19:54:49Z</time>
  <course>313.12</course>
  <speed>0.06</speed>
  <fix>3d</fix>
</trkpt>
<trkpt lat="-27.2744558" lon="151.2900588">
  <ele>348.34</ele>
  <time>2026-09-01T19:54:49Z</time>
  <course>12.29</course>
  <speed>0.01414213562373095</speed>
  <fix>3d</fix>
</trkpt>
<trkpt lat="-27.2744556" lon="151.2900587">
  <ele>348.5</ele>
  <time>2026-09-01T19:54:49Z</time>
  <course>313.12</course>
  <speed>0.06</speed>
  <fix>3d</fix>
</trkpt>
<trkpt lat="-27.2744557" lon="151.2900588">
  <ele>348.29</ele>
  <time>2026-09-01T19:54:49Z</time>
  <course>12.28</course>
  <speed>0.01414213562373095</speed>
  <fix>3d</fix>
</trkpt>
<trkpt lat="-27.2744555" lon="151.2900586">
  <ele>348.4</ele>
  <time>2026-09-01T19:54:49Z</time>
  <course>321.99</course>
  <speed>0.05</speed>
  <fix>3d</fix>
</trkpt>
<trkpt lat="-27.2744557" lon="151.2900587">
  <ele>348.24</ele>
  <time>2026-09-01T19:54:49Z</time>
  <course>12.28</course>
  <speed>0.01</speed>
  <fix>3d</fix>
</trkpt>
<trkpt lat="-27.2744555" lon="151.2900586">
  <ele>348.4</ele>
  <time>2026-09-01T19:54:49Z</time>
  <course>321.99</course>
  <speed>0.05</speed>
  <fix>3d</fix>
</trkpt>
<trkpt lat="-27.2744557" lon="151.2900587">
  <ele>348.18</ele>
  <time>2026-09-01T19:54:49Z</time>
  <course>12.28</course>
  <speed>0.01</speed>
  <fix>3d</fix>
</trkpt>
<trkpt lat="-27.2744554" lon="151.2900585">
  <ele>348.3</ele>
  <time>2026-09-01T19:54:49Z</time>
  <course>333.09</course>
  <speed>0.05</speed>
  <fix>3d</fix>
</trkpt>
<trkpt lat="-27.2744556" lon="151.2900587">
  <ele>348.13</ele>
  <time>2026-09-01T19:54:49Z</time>
  <course>12.3</course>
  <speed>0.01</speed>
  <fix>3d</fix>
</trkpt>
<trkpt lat="-27.2744554" lon="151.2900585">
  <ele>348.3</ele>
  <time>2026-09-01T19:54:49Z</time>
  <course>333.09</course>
  <speed>0.05</speed>
  <fix>3d</fix>
</trkpt>
<trkpt lat="-27.2744556" lon="151.2900587">
  <ele>348.08</ele>
  <time>2026-09-01T19:54:49Z</time>
  <course>12.32</course>
  <speed>0.01414213562373095</speed>
  <fix>3d</fix>
</trkpt>
<trkpt lat="-27.2744553" lon="151.2900585">
  <ele>348.2</ele>
  <time>2026-09-01T19:54:49Z</time>
  <course>346.18</course>
  <speed>0.04</speed>
  <fix>3d</fix>
</trkpt>
<trkpt lat="-27.2744555" lon="151.2900587">
  <ele>348.03</ele>
  <time>2026-09-01T19:54:49Z</time>
  <course>12.35</course>
  <speed>0.01414213562373095</speed>
  <fix>3d</fix>
</trkpt>
<trkpt lat="-27.2744553" lon="151.2900585">
  <ele>348.2</ele>
  <time>2026-09-01T19:54:49Z</time>
  <course>346.18</course>
  <speed>0.04</speed>
  <fix>3d</fix>
</trkpt>
<trkpt lat="-27.2744555" lon="151.2900587">
  <ele>347.98</ele>
  <time>2026-09-01T19:54:49Z</time>
  <course>12.38</course>
  <speed>0.022360679774997897</speed>
  <fix>3d</fix>
</trkpt>
<trkpt lat="-27.2744553" lon="151.2900584">
  <ele>348.09</ele>
  <time>2026-09-01T19:54:49Z</time>
  <course>0.62</course>
  <speed>0.04</speed>
  <fix>3d</fix>
</trkpt>
<trkpt lat="-27.2744555" lon="151.2900587">
  <ele>347.93</ele>
  <time>2026-09-01T19:54:49Z</time>
  <course>12.4</course>
  <speed>0.022360679774997897</speed>
  <fix>3d</fix>
</trkpt>
<trkpt lat="-27.2744553" lon="151.2900584">
  <ele>348.09</ele>
  <time>2026-09-01T19:54:49Z</time>
  <course>0.62</course>
  <speed>0.04</speed>
  <fix>3d</fix>
</trkpt>
<trkpt lat="-27.2744554" lon="151.2900587">
  <ele>347.88</ele>
  <time>2026-09-01T19:54:49Z</time>
  <course>12.42</course>
  <speed>0.03</speed>
  <fix>3d</fix>
</trkpt>
<trkpt lat="-27.2744552" lon="151.2900585">
  <ele>347.99</ele>
  <time>2026-09-01T19:54:49Z</time>
  <course>15.16</course>
  <speed>0.04</speed>
  <fix>3d</fix>
</trkpt>
<trkpt lat="-27.2744554" lon="151.2900587">
  <ele>347.83</ele>
  <time>2026-09-01T19:54:49Z</time>
  <course>12.44</course>
  <speed>0.03</speed>
  <fix>3d</fix>
</trkpt>
<trkpt lat="-27.2744552" lon="151.2900585">
  <ele>347.99</ele>
  <time>2026-09-01T19:54:49Z</time>
  <course>15.16</course>
  <speed>0.04</speed>
  <fix>3d</fix>
</trkpt>
<trkpt lat="-27.2744554" lon="151.2900587">
  <ele>347.77</ele>
  <time>2026-09-01T19:54:49Z</time>
  <course>12.46</course>
  <speed>0.04</speed>
  <fix>3d</fix>
</trkpt>
<trkpt lat="-27.2744551" lon="151.2900585">
  <ele>347.89</ele>
  <time>2026-09-01T19:54:49Z</time>
  <course>28.51</course>
  <speed>0.04</speed>
  <fix>3d</fix>
</trkpt>
<trkpt lat="-27.2744553" lon="151.2900587">
  <ele>347.72</ele>
  <time>2026-09-01T19:54:49Z</time>
  <course>12.48</course>
  <speed>0.04</speed>
  <fix>3d</fix>
</trkpt>
<trkpt lat="-27.2744551" lon="151.2900585">
  <ele>347.89</ele>
  <time>2026-09-01T19:54:49Z</time>
  <course>28.51</course>
  <speed>0.04</speed>
  <fix>3d</fix>
</trkpt>
<trkpt lat="-27.2744553" lon="151.2900587">
  <ele>347.67</ele>
  <time>2026-09-01T19:54:49Z</time>
  <course>12.49</course>
  <speed>0.04</speed>
  <fix>3d</fix>
</trkpt>
<trkpt lat="-27.274455" lon="151.2900585">
  <ele>347.78</ele>
  <time>2026-09-01T19:54:49Z</time>
  <course>39.78</course>
  <speed>0.05</speed>
  <fix>3d</fix>
</trkpt>
<trkpt lat="-27.2744553" lon="151.2900587">
  <ele>347.62</ele>
  <time>2026-09-01T19:54:49Z</time>
  <course>12.49</course>
  <speed>0.05</speed>
  <fix>3d</fix>
</trkpt>
<trkpt lat="-27.274455" lon="151.2900585">
  <ele>347.78</ele>
  <time>2026-09-01T19:54:49Z</time>
  <course>39.78</course>
  <speed>0.05</speed>
  <fix>3d</fix>
</trkpt>
<trkpt lat="-27.2744552" lon="151.2900588">
  <ele>347.57</ele>
  <time>2026-09-01T19:54:49Z</time>
  <course>12.49</course>
  <speed>0.05</speed>
  <fix>3d</fix>
</trkpt>
<trkpt lat="-27.274455" lon="151.2900586">
  <ele>347.69</ele>
  <time>2026-09-01T19:54:49Z</time>
  <course>48.49</course>
  <speed>0.05</speed>
  <fix>3d</fix>
</trkpt>
<trkpt lat="-27.2744552" lon="151.2900588">
  <ele>347.52</ele>
  <time>2026-09-01T19:54:49Z</time>
  <course>12.48</course>
  <speed>0.06</speed>
  <fix>3d</fix>
</trkpt>
<trkpt lat="-27.274455" lon="151.2900586">
  <ele>347.69</ele>
  <time>2026-09-01T19:54:49Z</time>
  <course>48.49</course>
  <speed>0.05</speed>
  <fix>3d</fix>
</trkpt>
<trkpt lat="-27.2744552" lon="151.2900588">
  <ele>347.47</ele>
  <time>2026-09-01T19:54:49Z</time>
  <course>12.47</course>
  <speed>0.06</speed>
  <fix>3d</fix>
</trkpt>
<trkpt lat="-27.2744549" lon="151.2900587">
  <ele>347.59</ele>
  <time>2026-09-01T19:54:49Z</time>
  <course>55.58</course>
  <speed>0.05</speed>
  <fix>3d</fix>
</trkpt>
<trkpt lat="-27.2744552" lon="151.2900589">
  <ele>347.42</ele>
  <time>2026-09-01T19:54:49Z</time>
  <course>12.45</course>
  <speed>0.06</speed>
  <fix>3d</fix>
</trkpt>
<trkpt lat="-27.2744549" lon="151.2900587">
  <ele>347.59</ele>
  <time>2026-09-01T19:54:49Z</time>
  <course>55.58</course>
  <speed>0.05</speed>
  <fix>3d</fix>
</trkpt>
<trkpt lat="-27.2744551" lon="151.2900589">
  <ele>347.37</ele>
  <time>2026-09-01T19:54:49Z</time>
  <course>12.44</course>
  <speed>0.06</speed>
  <fix>3d</fix>
</trkpt>
<trkpt lat="-27.2744549" lon="151.2900588">
  <ele>347.49</ele>
  <time>2026-09-01T19:54:49Z</time>
  <course>62.08</course>
  <speed>0.06</speed>
  <fix>3d</fix>
</trkpt>
<trkpt lat="-27.2744551" lon="151.290059">
  <ele>347.32</ele>
  <time>2026-09-01T19:54:49Z</time>
  <course>12.44</course>
  <speed>0.07</speed>
  <fix>3d</fix>
</trkpt>
<trkpt lat="-27.2744549" lon="151.2900588">
  <ele>347.49</ele>
  <time>2026-09-01T19:54:49Z</time>
  <course>62.08</course>
  <speed>0.06</speed>
  <fix>3d</fix>
</trkpt>
<trkpt lat="-27.2744551" lon="151.2900591">
  <ele>347.27</ele>
  <time>2026-09-01T19:54:49Z</time>
  <course>12.45</course>
  <speed>0.07</speed>
  <fix>3d</fix>
</trkpt>
<trkpt lat="-27.2744548" lon="151.2900589">
  <ele>347.39</ele>
  <time>2026-09-01T19:54:49Z</time>
  <course>67.77</course>
  <speed>0.06</speed>
  <fix>3d</fix>
</trkpt>
<trkpt lat="-27.2744551" lon="151.2900591">
  <ele>347.22</ele>
  <time>2026-09-01T19:54:49Z</time>
  <course>12.45</course>
  <speed>0.07</speed>
  <fix>3d</fix>
</trkpt>
<trkpt lat="-27.2744548" lon="151.2900589">
  <ele>347.39</ele>
  <time>2026-09-01T19:54:49Z</time>
  <course>67.77</course>
  <speed>0.06</speed>
  <fix>3d</fix>
</trkpt>
<trkpt lat="-27.2744551" lon="151.2900592">
  <ele>347.17</ele>
  <time>2026-09-01T19:54:49Z</time>
  <course>12.46</course>
  <speed>0.08062257748298549</speed>
  <fix>3d</fix>
</trkpt>
<trkpt lat="-27.2744548" lon="151.290059">
  <ele>347.28</ele>
  <time>2026-09-01T19:54:49Z</time>
  <course>72.54</course>
  <speed>0.07</speed>
  <fix>3d</fix>
</trkpt>
<trkpt lat="-27.274455" lon="151.2900593">
  <ele>347.12</ele>
  <time>2026-09-01T19:54:49Z</time>
  <course>12.47</course>
  <speed>0.08062257748298549</speed>
  <fix>3d</fix>
</trkpt>
<trkpt lat="-27.2744548" lon="151.290059">
  <ele>347.28</ele>
  <time>2026-09-01T19:54:49Z</time>
  <course>72.54</course>
  <speed>0.07</speed>
  <fix>3d</fix>
</trkpt>
<trkpt lat="-27.274455" lon="151.2900593">
  <ele>347.07</ele>
  <time>2026-09-01T19:54:49Z</time>
  <course>12.48</course>
  <speed>0.08062257748298549</speed>
  <fix>3d</fix>
</trkpt>
<trkpt lat="-27.2744547" lon="151.2900591">
  <ele>347.19</ele>
  <time>2026-09-01T19:54:49Z</time>
  <course>76.76</course>
  <speed>0.07</speed>
  <fix>3d</fix>
</trkpt>
<trkpt lat="-27.274455" lon="151.2900594">
  <ele>347.02</ele>
  <time>2026-09-01T19:54:49Z</time>
  <course>12.48</course>
  <speed>0.08062257748298549</speed>
  <fix>3d</fix>
</trkpt>
<trkpt lat="-27.2744547" lon="151.2900591">
  <ele>347.19</ele>
  <time>2026-09-01T19:54:49Z</time>
  <course>76.76</course>
  <speed>0.07</speed>
  <fix>3d</fix>
</trkpt>
<trkpt lat="-27.274455" lon="151.2900595">
  <ele>346.97</ele>
  <time>2026-09-01T19:54:49Z</time>
  <course>12.48</course>
  <speed>0.08062257748298549</speed>
  <fix>3d</fix>
</trkpt>
<trkpt lat="-27.2744547" lon="151.2900593">
  <ele>347.09</ele>
  <time>2026-09-01T19:54:49Z</time>
  <course>80.72</course>
  <speed>0.07</speed>
  <fix>3d</fix>
</trkpt>
<trkpt lat="-27.274455" lon="151.2900595">
  <ele>346.92</ele>
  <time>2026-09-01T19:54:49Z</time>
  <course>12.47</course>
  <speed>0.0824621125123532</speed>
  <fix>3d</fix>
</trkpt>
<trkpt lat="-27.2744547" lon="151.2900593">
  <ele>347.09</ele>
  <time>2026-09-01T19:54:49Z</time>
  <course>80.72</course>
  <speed>0.07</speed>
  <fix>3d</fix>
</trkpt>
<trkpt lat="-27.274455" lon="151.2900596">
  <ele>346.87</ele>
  <time>2026-09-01T19:54:49Z</time>
  <course>12.46</course>
  <speed>0.0824621125123532</speed>
  <fix>3d</fix>
</trkpt>
<trkpt lat="-27.2744547" lon="151.2900594">
  <ele>346.99</ele>
  <time>2026-09-01T19:54:49Z</time>
  <course>84.45</course>
  <speed>0.07</speed>
  <fix>3d</fix>
</trkpt>
<trkpt lat="-27.274455" lon="151.2900597">
  <ele>346.82</ele>
  <time>2026-09-01T19:54:49Z</time>
  <course>12.46</course>
  <speed>0.0824621125123532</speed>
  <fix>3d</fix>
</trkpt>
<trkpt lat="-27.2744547" lon="151.2900594">
  <ele>346.99</ele>
  <time>2026-09-01T19:54:49Z</time>
  <course>84.45</course>
  <speed>0.07</speed>
  <fix>3d</fix>
</trkpt>
<trkpt lat="-27.274455" lon="151.2900597">
  <ele>346.77</ele>
  <time>2026-09-01T19:54:49Z</time>
  <course>12.46</course>
  <speed>0.0824621125123532</speed>
  <fix>3d</fix>
</trkpt>
<trkpt lat="-27.2744547" lon="151.2900596">
  <ele>346.89</ele>
  <time>2026-09-01T19:54:49Z</time>
  <course>87.96</course>
  <speed>0.07</speed>
  <fix>3d</fix>
</trkpt>
<trkpt lat="-27.274455" lon="151.2900598">
  <ele>346.72</ele>
  <time>2026-09-01T19:54:49Z</time>
  <course>12.46</course>
  <speed>0.07280109889280519</speed>
  <fix>3d</fix>
</trkpt>
<trkpt lat="-27.2744547" lon="151.2900596">
  <ele>346.89</ele>
  <time>2026-09-01T19:54:49Z</time>
  <course>87.96</course>
  <speed>0.07</speed>
  <fix>3d</fix>
</trkpt>
<trkpt lat="-27.274455" lon="151.2900599">
  <ele>346.67</ele>
  <time>2026-09-01T19:54:49Z</time>
  <course>12.45</course>
  <speed>0.07615773105863909</speed>
  <fix>3d</fix>
</trkpt>
<trkpt lat="-27.2744547" lon="151.2900598">
  <ele>346.78</ele>
  <time>2026-09-01T19:54:49Z</time>
  <course>91.33</course>
  <speed>0.07</speed>
  <fix>3d</fix>
</trkpt>
<trkpt lat="-27.274455" lon="151.2900599">
  <ele>346.62</ele>
  <time>2026-09-01T19:54:49Z</time>
  <course>12.45</course>
  <speed>0.07615773105863909</speed>
  <fix>3d</fix>
</trkpt>
<trkpt lat="-27.2744547" lon="151.2900598">
  <ele>346.78</ele>
  <time>2026-09-01T19:54:49Z</time>
  <course>91.33</course>
  <speed>0.07</speed>
  <fix>3d</fix>
</trkpt>
<trkpt lat="-27.274455" lon="151.29006">
  <ele>346.57</ele>
  <time>2026-09-01T19:54:49Z</time>
  <course>12.44</course>
  <speed>0.07615773105863909</speed>
  <fix>3d</fix>
</trkpt>
<trkpt lat="-27.2744547" lon="151.2900599">
  <ele>346.69</ele>
  <time>2026-09-01T19:54:49Z</time>
  <course>94.57</course>
  <speed>0.07</speed>
  <fix>3d</fix>
</trkpt>
<trkpt lat="-27.274455" lon="151.2900601">
  <ele>346.52</ele>
  <time>2026-09-01T19:54:49Z</time>
  <course>12.44</course>
  <speed>0.07615773105863909</speed>
  <fix>3d</fix>
</trkpt>
<trkpt lat="-27.2744547" lon="151.2900599">
  <ele>346.69</ele>
  <time>2026-09-01T19:54:49Z</time>
  <course>94.57</course>
  <speed>0.07</speed>
  <fix>3d</fix>
</trkpt>
<trkpt lat="-27.274455" lon="151.2900601">
  <ele>346.47</ele>
  <time>2026-09-01T19:54:49Z</time>
  <course>12.44</course>
  <speed>0.07615773105863909</speed>
  <fix>3d</fix>
</trkpt>
<trkpt lat="-27.2744547" lon="151.2900601">
  <ele>346.59</ele>
  <time>2026-09-01T19:54:49Z</time>
  <course>97.68</course>
  <speed>0.06</speed>
  <fix>3d</fix>
</trkpt>
<trkpt lat="-27.274455" lon="151.2900602">
  <ele>346.42</ele>
  <time>2026-09-01T19:54:49Z</time>
  <course>12.44</course>
  <speed>0.0670820393249937</speed>
  <fix>3d</fix>
</trkpt>
<trkpt lat="-27.2744547" lon="151.2900601">
  <ele>346.59</ele>
  <time>2026-09-01T19:54:49Z</time>
  <course>97.68</course>
  <speed>0.06</speed>
  <fix>3d</fix>
</trkpt>
<trkpt lat="-27.274455" lon="151.2900603">
  <ele>346.37</ele>
  <time>2026-09-01T19:54:49Z</time>
  <course>12.43</course>
  <speed>0.0670820393249937</speed>
  <fix>3d</fix>
</trkpt>
<trkpt lat="-27.2744547" lon="151.2900602">
  <ele>346.49</ele>
  <time>2026-09-01T19:54:49Z</time>
  <course>100.71</course>
  <speed>0.06</speed>
  <fix>3d</fix>
</trkpt>
<trkpt lat="-27.274455" lon="151.2900603">
  <ele>346.32</ele>
  <time>2026-09-01T19:54:49Z</time>
  <course>12.43</course>
  <speed>0.07211102550927978</speed>
  <fix>3d</fix>
</trkpt>
<trkpt lat="-27.2744547" lon="151.2900602">
  <ele>346.49</ele>
  <time>2026-09-01T19:54:49Z</time>
  <course>100.71</course>
  <speed>0.06</speed>
  <fix>3d</fix>
</trkpt>
<trkpt lat="-27.274455" lon="151.2900604">
  <ele>346.28</ele>
  <time>2026-09-01T19:54:49Z</time>
  <course>12.43</course>
  <speed>0.07211102550927978</speed>
  <fix>3d</fix>
</trkpt>
<trkpt lat="-27.2744547" lon="151.2900603">
  <ele>346.4</ele>
  <time>2026-09-01T19:54:49Z</time>
  <course>103.53</course>
  <speed>0.05</speed>
  <fix>3d</fix>
</trkpt>
<trkpt lat="-27.274455" lon="151.2900604">
  <ele>346.23</ele>
  <time>2026-09-01T19:54:50Z</time>
  <course>12.44</course>
  <speed>0.06403124237432849</speed>
  <fix>3d</fix>
</trkpt>
<trkpt lat="-27.2744547" lon="151.2900603">
  <ele>346.4</ele>
  <time>2026-09-01T19:54:50Z</time>
  <course>103.53</course>
  <speed>0.05</speed>
  <fix>3d</fix>
</trkpt>
<trkpt lat="-27.274455" lon="151.2900605">
  <ele>346.18</ele>
  <time>2026-09-01T19:54:50Z</time>
  <course>12.45</course>
  <speed>0.06403124237432849</speed>
  <fix>3d</fix>
</trkpt>
<trkpt lat="-27.2744547" lon="151.2900604">
  <ele>346.3</ele>
  <time>2026-09-01T19:54:50Z</time>
  <course>106.22</course>
  <speed>0.05</speed>
  <fix>3d</fix>
</trkpt>
<trkpt lat="-27.274455" lon="151.2900605">
  <ele>346.13</ele>
  <time>2026-09-01T19:54:50Z</time>
  <course>12.46</course>
  <speed>0.06403124237432849</speed>
  <fix>3d</fix>
</trkpt>
<trkpt lat="-27.2744547" lon="151.2900604">
  <ele>346.3</ele>
  <time>2026-09-01T19:54:50Z</time>
  <course>106.22</course>
  <speed>0.05</speed>
  <fix>3d</fix>
</trkpt>
<trkpt lat="-27.274455" lon="151.2900606">
  <ele>346.08</ele>
  <time>2026-09-01T19:54:50Z</time>
  <course>12.46</course>
  <speed>0.0565685424949238</speed>
  <fix>3d</fix>
</trkpt>
<trkpt lat="-27.2744547" lon="151.2900605">
  <ele>346.2</ele>
  <time>2026-09-01T19:54:50Z</time>
  <course>109.57</course>
  <speed>0.04</speed>
  <fix>3d</fix>
</trkpt>
<trkpt lat="-27.274455" lon="151.2900606">
  <ele>346.03</ele>
  <time>2026-09-01T19:54:50Z</time>
  <course>12.46</course>
  <speed>0.0565685424949238</speed>
  <fix>3d</fix>
</trkpt>
<trkpt lat="-27.2744547" lon="151.2900605">
  <ele>346.2</ele>
  <time>2026-09-01T19:54:50Z</time>
  <course>109.57</course>
  <speed>0.04</speed>
  <fix>3d</fix>
</trkpt>
<trkpt lat="-27.274455" lon="151.2900606">
  <ele>345.98</ele>
  <time>2026-09-01T19:54:50Z</time>
  <course>12.46</course>
  <speed>0.0565685424949238</speed>
  <fix>3d</fix>
</trkpt>
<trkpt lat="-27.2744547" lon="151.2900606">
  <ele>346.09</ele>
  <time>2026-09-01T19:54:50Z</time>
  <course>114.49</course>
  <speed>0.04</speed>
  <fix>3d</fix>
</trkpt>
<trkpt lat="-27.274455" lon="151.2900607">
  <ele>345.92</ele>
  <time>2026-09-01T19:54:50Z</time>
  <course>12.46</course>
  <speed>0.05</speed>
  <fix>3d</fix>
</trkpt>
<trkpt lat="-27.2744547" lon="151.2900606">
  <ele>346.09</ele>
  <time>2026-09-01T19:54:50Z</time>
  <course>114.49</course>
  <speed>0.04</speed>
  <fix>3d</fix>
</trkpt>
<trkpt lat="-27.274455" lon="151.2900607">
  <ele>345.87</ele>
  <time>2026-09-01T19:54:50Z</time>
  <course>12.46</course>
  <speed>0.05</speed>
  <fix>3d</fix>
</trkpt>
<trkpt lat="-27.2744548" lon="151.2900607">
  <ele>346.0</ele>
  <time>2026-09-01T19:54:50Z</time>
  <course>121.69</course>
  <speed>0.03</speed>
  <fix>3d</fix>
</trkpt>
<trkpt lat="-27.274455" lon="151.2900607">
  <ele>345.82</ele>
  <time>2026-09-01T19:54:50Z</time>
  <course>12.46</course>
  <speed>0.044721359549995794</speed>
  <fix>3d</fix>
</trkpt>
<trkpt lat="-27.2744548" lon="151.2900607">
  <ele>346.0</ele>
  <time>2026-09-01T19:54:50Z</time>
  <course>121.69</course>
  <speed>0.03</speed>
  <fix>3d</fix>
</trkpt>
<trkpt lat="-27.274455" lon="151.2900608">
  <ele>345.77</ele>
  <time>2026-09-01T19:54:50Z</time>
  <course>12.47</course>
  <speed>0.044721359549995794</speed>
  <fix>3d</fix>
</trkpt>
<trkpt lat="-27.2744548" lon="151.2900608">
  <ele>345.9</ele>
  <time>2026-09-01T19:54:50Z</time>
  <course>131.84</course>
  <speed>0.02</speed>
  <fix>3d</fix>
</trkpt>
<trkpt lat="-27.274455" lon="151.2900608">
  <ele>345.72</ele>
  <time>2026-09-01T19:54:50Z</time>
  <course>12.48</course>
  <speed>0.044721359549995794</speed>
  <fix>3d</fix>
</trkpt>
<trkpt lat="-27.2744548" lon="151.2900608">
  <ele>345.9</ele>
  <time>2026-09-01T19:54:50Z</time>
  <course>131.84</course>
  <speed>0.02</speed>
  <fix>3d</fix>
</trkpt>
<trkpt lat="-27.2744551" lon="151.2900608">
  <ele>345.67</ele>
  <time>2026-09-01T19:54:50Z</time>
  <course>12.49</course>
  <speed>0.0412310562561766</speed>
  <fix>3d</fix>
</trkpt>
<trkpt lat="-27.2744548" lon="151.2900608">
  <ele>345.8</ele>
  <time>2026-09-01T19:54:50Z</time>
  <course>146.16</course>
  <speed>0.02</speed>
  <fix>3d</fix>
</trkpt>
<trkpt lat="-27.2744551" lon="151.2900608">
  <ele>345.62</ele>
  <time>2026-09-01T19:54:50Z</time>
  <course>12.5</course>
  <speed>0.0316227766016838</speed>
  <fix>3d</fix>
</trkpt>
<trkpt lat="-27.2744548" lon="151.2900608">
  <ele>345.8</ele>
  <time>2026-09-01T19:54:50Z</time>
  <course>146.16</course>
  <speed>0.02</speed>
  <fix>3d</fix>
</trkpt>
<trkpt lat="-27.2744551" lon="151.2900608">
  <ele>345.57</ele>
  <time>2026-09-01T19:54:50Z</time>
  <course>12.51</course>
  <speed>0.03</speed>
  <fix>3d</fix>
</trkpt>
<trkpt lat="-27.2744549" lon="151.2900608">
  <ele>345.7</ele>
  <time>2026-09-01T19:54:50Z</time>
  <course>168.15</course>
  <speed>0.01</speed>
  <fix>3d</fix>
</trkpt>
<trkpt lat="-27.2744551" lon="151.2900608">
  <ele>345.52</ele>
  <time>2026-09-01T19:54:50Z</time>
  <course>12.52</course>
  <speed>0.03</speed>
  <fix>3d</fix>
</trkpt>
<trkpt lat="-27.2744549" lon="151.2900608">
  <ele>345.7</ele>
  <time>2026-09-01T19:54:50Z</time>
  <course>168.15</course>
  <speed>0.01</speed>
  <fix>3d</fix>
</trkpt>
<trkpt lat="-27.2744551" lon="151.2900608">
  <ele>345.47</ele>
  <time>2026-09-01T19:54:50Z</time>
  <course>12.48</course>
  <speed>0.03</speed>
  <fix>3d</fix>
</trkpt>
<trkpt lat="-27.2744549" lon="151.2900608">
  <ele>345.59</ele>
  <time>2026-09-01T19:54:50Z</time>
  <course>187.05</course>
  <speed>0.01</speed>
  <fix>3d</fix>
</trkpt>
<trkpt lat="-27.2744551" lon="151.2900608">
  <ele>345.42</ele>
  <time>2026-09-01T19:54:50Z</time>
  <course>12.4</course>
  <speed>0.04</speed>
  <fix>3d</fix>
</trkpt>
<trkpt lat="-27.2744549" lon="151.2900608">
  <ele>345.59</ele>
  <time>2026-09-01T19:54:50Z</time>
  <course>187.05</course>
  <speed>0.01</speed>
  <fix>3d</fix>
</trkpt>
<trkpt lat="-27.2744551" lon="151.2900608">
  <ele>345.37</ele>
  <time>2026-09-01T19:54:50Z</time>
  <course>12.29</course>
  <speed>0.04</speed>
  <fix>3d</fix>
</trkpt>
<trkpt lat="-27.2744549" lon="151.2900608">
  <ele>345.5</ele>
  <time>2026-09-01T19:54:50Z</time>
  <course>191.59</course>
  <speed>0.02</speed>
  <fix>3d</fix>
</trkpt>
<trkpt lat="-27.2744551" lon="151.2900608">
  <ele>345.33</ele>
  <time>2026-09-01T19:54:50Z</time>
  <course>12.18</course>
  <speed>0.04</speed>
  <fix>3d</fix>
</trkpt>
<trkpt lat="-27.2744549" lon="151.2900608">
  <ele>345.5</ele>
  <time>2026-09-01T19:54:50Z</time>
  <course>191.59</course>
  <speed>0.02</speed>
  <fix>3d</fix>
</trkpt>
<trkpt lat="-27.2744551" lon="151.2900608">
  <ele>345.28</ele>
  <time>2026-09-01T19:54:50Z</time>
  <course>12.09</course>
  <speed>0.04</speed>
  <fix>3d</fix>
</trkpt>
<trkpt lat="-27.274455" lon="151.2900608">
  <ele>345.4</ele>
  <time>2026-09-01T19:54:50Z</time>
  <course>191.35</course>
  <speed>0.02</speed>
  <fix>3d</fix>
</trkpt>
<trkpt lat="-27.2744552" lon="151.2900608">
  <ele>345.23</ele>
  <time>2026-09-01T19:54:50Z</time>
  <course>12.02</course>
  <speed>0.04</speed>
  <fix>3d</fix>
</trkpt>
<trkpt lat="-27.274455" lon="151.2900608">
  <ele>345.4</ele>
  <time>2026-09-01T19:54:50Z</time>
  <course>191.35</course>
  <speed>0.02</speed>
  <fix>3d</fix>
</trkpt>
<trkpt lat="-27.2744552" lon="151.2900608">
  <ele>345.18</ele>
  <time>2026-09-01T19:54:50Z</time>
  <course>11.99</course>
  <speed>0.04</speed>
  <fix>3d</fix>
</trkpt>
<trkpt lat="-27.274455" lon="151.2900608">
  <ele>345.3</ele>
  <time>2026-09-01T19:54:50Z</time>
  <course>190.88</course>
  <speed>0.02</speed>
  <fix>3d</fix>
</trkpt>
<trkpt lat="-27.2744552" lon="151.2900608">
  <ele>345.13</ele>
  <time>2026-09-01T19:54:50Z</time>
  <course>11.97</course>
  <speed>0.03</speed>
  <fix>3d</fix>
</trkpt>
<trkpt lat="-27.274455" lon="151.2900608">
  <ele>345.3</ele>
  <time>2026-09-01T19:54:50Z</time>
  <course>190.88</course>
  <speed>0.02</speed>
  <fix>3d</fix>
</trkpt>
<trkpt lat="-27.2744552" lon="151.2900608">
  <ele>345.08</ele>
  <time>2026-09-01T19:54:50Z</time>
  <course>11.97</course>
  <speed>0.03</speed>
  <fix>3d</fix>
</trkpt>
<trkpt lat="-27.2744551" lon="151.2900608">
  <ele>345.2</ele>
  <time>2026-09-01T19:54:50Z</time>
  <course>190.22</course>
  <speed>0.02</speed>
  <fix>3d</fix>
</trkpt>
<trkpt lat="-27.2744552" lon="151.2900608">
  <ele>345.03</ele>
  <time>2026-09-01T19:54:50Z</time>
  <course>11.97</course>
  <speed>0.03</speed>
  <fix>3d</fix>
</trkpt>
<trkpt lat="-27.2744551" lon="151.2900608">
  <ele>345.2</ele>
  <time>2026-09-01T19:54:50Z</time>
  <course>190.22</course>
  <speed>0.02</speed>
  <fix>3d</fix>
</trkpt>
<trkpt lat="-27.2744552" lon="151.2900608">
  <ele>344.98</ele>
  <time>2026-09-01T19:54:50Z</time>
  <course>11.97</course>
  <speed>0.03</speed>
  <fix>3d</fix>
</trkpt>
<trkpt lat="-27.2744551" lon="151.2900608">
  <ele>345.09</ele>
  <time>2026-09-01T19:54:50Z</time>
  <course>189.86</course>
  <speed>0.02</speed>
  <fix>3d</fix>
</trkpt>
<trkpt lat="-27.2744553" lon="151.2900608">
  <ele>344.93</ele>
  <time>2026-09-01T19:54:50Z</time>
  <course>11.98</course>
  <speed>0.03</speed>
  <fix>3d</fix>
</trkpt>
<trkpt lat="-27.2744551" lon="151.2900608">
  <ele>345.09</ele>
  <time>2026-09-01T19:54:50Z</time>
  <course>189.86</course>
  <speed>0.02</speed>
  <fix>3d</fix>
</trkpt>
<trkpt lat="-27.2744553" lon="151.2900608">
  <ele>344.88</ele>
  <time>2026-09-01T19:54:50Z</time>
  <course>12.0</course>
  <speed>0.03</speed>
  <fix>3d</fix>
</trkpt>
<trkpt lat="-27.2744551" lon="151.2900608">
  <ele>345.0</ele>
  <time>2026-09-01T19:54:50Z</time>
  <course>190.15</course>
  <speed>0.01</speed>
  <fix>3d</fix>
</trkpt>
<trkpt lat="-27.2744553" lon="151.2900608">
  <ele>344.83</ele>
  <time>2026-09-01T19:54:50Z</time>
  <course>12.03</course>
  <speed>0.03</speed>
  <fix>3d</fix>
</trkpt>
<trkpt lat="-27.2744551" lon="151.2900608">
  <ele>345.0</ele>
  <time>2026-09-01T19:54:50Z</time>
  <course>190.15</course>
  <speed>0.01</speed>
  <fix>3d</fix>
</trkpt>
<trkpt lat="-27.2744553" lon="151.2900608">
  <ele>344.78</ele>
  <time>2026-09-01T19:54:50Z</time>
  <course>12.05</course>
  <speed>0.03</speed>
  <fix>3d</fix>
</trkpt>
<trkpt lat="-27.2744552" lon="151.2900608">
  <ele>344.9</ele>
  <time>2026-09-01T19:54:50Z</time>
  <course>190.61</course>
  <speed>0.01</speed>
  <fix>3d</fix>
</trkpt>
<trkpt lat="-27.2744553" lon="151.2900608">
  <ele>344.73</ele>
  <time>2026-09-01T19:54:50Z</time>
  <course>12.07</course>
  <speed>0.03</speed>
  <fix>3d</fix>
</trkpt>
<trkpt lat="-27.2744552" lon="151.2900608">
  <ele>344.9</ele>
  <time>2026-09-01T19:54:50Z</time>
  <course>190.61</course>
  <speed>0.01</speed>
  <fix>3d</fix>
</trkpt>
<trkpt lat="-27.2744553" lon="151.2900608">
  <ele>344.68</ele>
  <time>2026-09-01T19:54:50Z</time>
  <course>12.07</course>
  <speed>0.03</speed>
  <fix>3d</fix>
</trkpt>
<trkpt lat="-27.2744552" lon="151.2900608">
  <ele>344.8</ele>
  <time>2026-09-01T19:54:50Z</time>
  <course>190.02</course>
  <speed>0.01</speed>
  <fix>3d</fix>
</trkpt>
<trkpt lat="-27.2744553" lon="151.2900608">
  <ele>344.63</ele>
  <time>2026-09-01T19:54:50Z</time>
  <course>12.06</course>
  <speed>0.03</speed>
  <fix>3d</fix>
</trkpt>
<trkpt lat="-27.2744552" lon="151.2900608">
  <ele>344.8</ele>
  <time>2026-09-01T19:54:50Z</time>
  <course>190.02</course>
  <speed>0.01</speed>
  <fix>3d</fix>
</trkpt>
<trkpt lat="-27.2744554" lon="151.2900608">
  <ele>344.58</ele>
  <time>2026-09-01T19:54:50Z</time>
  <course>12.03</course>
  <speed>0.0316227766016838</speed>
  <fix>3d</fix>
</trkpt>
<trkpt lat="-27.2744552" lon="151.2900608">
  <ele>344.7</ele>
  <time>2026-09-01T19:54:50Z</time>
  <course>188.77</course>
  <speed>0.01</speed>
  <fix>3d</fix>
</trkpt>
<trkpt lat="-27.2744554" lon="151.2900608">
  <ele>344.52</ele>
  <time>2026-09-01T19:54:50Z</time>
  <course>11.99</course>
  <speed>0.0316227766016838</speed>
  <fix>3d</fix>
</trkpt>
<trkpt lat="-27.2744552" lon="151.2900608">
  <ele>344.7</ele>
  <time>2026-09-01T19:54:50Z</time>
  <course>188.77</course>
  <speed>0.01</speed>
  <fix>3d</fix>
</trkpt>
<trkpt lat="-27.2744554" lon="151.2900608">
  <ele>344.47</ele>
  <time>2026-09-01T19:54:50Z</time>
  <course>11.95</course>
  <speed>0.0316227766016838</speed>
  <fix>3d</fix>
</trkpt>
<trkpt lat="-27.2744553" lon="151.2900608">
  <ele>344.59</ele>
  <time>2026-09-01T19:54:50Z</time>
  <course>188.52</course>
  <speed>0.01</speed>
  <fix>3d</fix>
</trkpt>
<trkpt lat="-27.2744554" lon="151.2900608">
  <ele>344.42</ele>
  <time>2026-09-01T19:54:50Z</time>
  <course>11.92</course>
  <speed>0.0316227766016838</speed>
  <fix>3d</fix>
</trkpt>
<trkpt lat="-27.2744553" lon="151.2900608">
  <ele>344.59</ele>
  <time>2026-09-01T19:54:50Z</time>
  <course>188.52</course>
  <speed>0.01</speed>
  <fix>3d</fix>
</trkpt>
<trkpt lat="-27.2744554" lon="151.2900608">
  <ele>344.37</ele>
  <time>2026-09-01T19:54:50Z</time>
  <course>11.9</course>
  <speed>0.0316227766016838</speed>
  <fix>3d</fix>
</trkpt>
<trkpt lat="-27.2744553" lon="151.2900608">
  <ele>344.49</ele>
  <time>2026-09-01T19:54:50Z</time>
  <course>188.55</course>
  <speed>0.01</speed>
  <fix>3d</fix>
</trkpt>
<trkpt lat="-27.2744554" lon="151.2900608">
  <ele>344.32</ele>
  <time>2026-09-01T19:54:50Z</time>
  <course>11.89</course>
  <speed>0.0316227766016838</speed>
  <fix>3d</fix>
</trkpt>
<trkpt lat="-27.2744553" lon="151.2900608">
  <ele>344.49</ele>
  <time>2026-09-01T19:54:50Z</time>
  <course>188.55</course>
  <speed>0.01</speed>
  <fix>3d</fix>
</trkpt>
<trkpt lat="-27.2744554" lon="151.2900608">
  <ele>344.27</ele>
  <time>2026-09-01T19:54:50Z</time>
  <course>11.88</course>
  <speed>0.03</speed>
  <fix>3d</fix>
</trkpt>
<trkpt lat="-27.2744553" lon="151.2900608">
  <ele>344.39</ele>
  <time>2026-09-01T19:54:50Z</time>
  <course>187.97</course>
  <speed>0.01</speed>
  <fix>3d</fix>
</trkpt>
<trkpt lat="-27.2744554" lon="151.2900608">
  <ele>344.22</ele>
  <time>2026-09-01T19:54:50Z</time>
  <course>11.88</course>
  <speed>0.0316227766016838</speed>
  <fix>3d</fix>
</trkpt>
<trkpt lat="-27.2744553" lon="151.2900608">
  <ele>344.39</ele>
  <time>2026-09-01T19:54:50Z</time>
  <course>187.97</course>
  <speed>0.01</speed>
  <fix>3d</fix>
</trkpt>
<trkpt lat="-27.2744555" lon="151.2900608">
  <ele>344.17</ele>
  <time>2026-09-01T19:54:50Z</time>
  <course>11.88</course>
  <speed>0.0316227766016838</speed>
  <fix>3d</fix>
</trkpt>
<trkpt lat="-27.2744553" lon="151.2900608">
  <ele>344.29</ele>
  <time>2026-09-01T19:54:50Z</time>
  <course>187.43</course>
  <speed>0.01</speed>
  <fix>3d</fix>
</trkpt>
<trkpt lat="-27.2744555" lon="151.2900608">
  <ele>344.12</ele>
  <time>2026-09-01T19:54:50Z</time>
  <course>11.88</course>
  <speed>0.0316227766016838</speed>
  <fix>3d</fix>
</trkpt>
<trkpt lat="-27.2744553" lon="151.2900608">
  <ele>344.29</ele>
  <time>2026-09-01T19:54:50Z</time>
  <course>187.43</course>
  <speed>0.01</speed>
  <fix>3d</fix>
</trkpt>
<trkpt lat="-27.2744555" lon="151.2900608">
  <ele>344.07</ele>
  <time>2026-09-01T19:54:50Z</time>
  <course>11.87</course>
  <speed>0.0316227766016838</speed>
  <fix>3d</fix>
</trkpt>
<trkpt lat="-27.2744554" lon="151.2900608">
  <ele>344.2</ele>
  <time>2026-09-01T19:54:50Z</time>
  <course>186.62</course>
  <speed>0.01</speed>
  <fix>3d</fix>
</trkpt>
<trkpt lat="-27.2744555" lon="151.2900608">
  <ele>344.02</ele>
  <time>2026-09-01T19:54:50Z</time>
  <course>11.87</course>
  <speed>0.0316227766016838</speed>
  <fix>3d</fix>
</trkpt>
<trkpt lat="-27.2744554" lon="151.2900608">
  <ele>344.2</ele>
  <time>2026-09-01T19:54:50Z</time>
  <course>186.62</course>
  <speed>0.01</speed>
  <fix>3d</fix>
</trkpt>
<trkpt lat="-27.2744555" lon="151.2900608">
  <ele>343.97</ele>
  <time>2026-09-01T19:54:50Z</time>
  <course>11.86</course>
  <speed>0.0316227766016838</speed>
  <fix>3d</fix>
</trkpt>
<trkpt lat="-27.2744554" lon="151.2900608">
  <ele>344.09</ele>
  <time>2026-09-01T19:54:50Z</time>
  <course>185.38</course>
  <speed>0.0</speed>
  <fix>3d</fix>
</trkpt>
<trkpt lat="-27.2744555" lon="151.2900608">
  <ele>343.92</ele>
  <time>2026-09-01T19:54:50Z</time>
  <course>11.85</course>
  <speed>0.022360679774997897</speed>
  <fix>3d</fix>
</trkpt>
<trkpt lat="-27.2744554" lon="151.2900608">
  <ele>344.09</ele>
  <time>2026-09-01T19:54:50Z</time>
  <course>185.38</course>
  <speed>0.0</speed>
  <fix>3d</fix>
</trkpt>
<trkpt lat="-27.2744555" lon="151.2900608">
  <ele>343.87</ele>
  <time>2026-09-01T19:54:50Z</time>
  <course>11.85</course>
  <speed>0.022360679774997897</speed>
  <fix>3d</fix>
</trkpt>
<trkpt lat="-27.2744554" lon="151.2900608">
  <ele>344.0</ele>
  <time>2026-09-01T19:54:50Z</time>
  <course>183.77</course>
  <speed>0.0</speed>
  <fix>3d</fix>
</trkpt>
<trkpt lat="-27.2744555" lon="151.2900608">
  <ele>343.82</ele>
  <time>2026-09-01T19:54:50Z</time>
  <course>11.84</course>
  <speed>0.022360679774997897</speed>
  <fix>3d</fix>
</trkpt>
<trkpt lat="-27.2744554" lon="151.2900608">
  <ele>344.0</ele>
  <time>2026-09-01T19:54:50Z</time>
  <course>183.77</course>
  <speed>0.0</speed>
  <fix>3d</fix>
</trkpt>
<trkpt lat="-27.2744555" lon="151.2900608">
  <ele>343.77</ele>
  <time>2026-09-01T19:54:50Z</time>
  <course>11.82</course>
  <speed>0.022360679774997897</speed>
  <fix>3d</fix>
</trkpt>
<trkpt lat="-27.2744554" lon="151.2900608">
  <ele>343.9</ele>
  <time>2026-09-01T19:54:50Z</time>
  <course>179.48</course>
  <speed>0.0</speed>
  <fix>3d</fix>
</trkpt>
<trkpt lat="-27.2744555" lon="151.2900608">
  <ele>343.72</ele>
  <time>2026-09-01T19:54:50Z</time>
  <course>11.8</course>
  <speed>0.022360679774997897</speed>
  <fix>3d</fix>
</trkpt>
<trkpt lat="-27.2744554" lon="151.2900608">
  <ele>343.9</ele>
  <time>2026-09-01T19:54:50Z</time>
  <course>179.48</course>
  <speed>0.0</speed>
  <fix>3d</fix>
</trkpt>
<trkpt lat="-27.2744555" lon="151.2900608">
  <ele>343.67</ele>
  <time>2026-09-01T19:54:50Z</time>
  <course>11.78</course>
  <speed>0.022360679774997897</speed>
  <fix>3d</fix>
</trkpt>
<trkpt lat="-27.2744554" lon="151.2900608">
  <ele>343.8</ele>
  <time>2026-09-01T19:54:50Z</time>
  <course>170.36</course>
  <speed>0.0</speed>
  <fix>3d</fix>
</trkpt>
<trkpt lat="-27.2744555" lon="151.2900608">
  <ele>343.62</ele>
  <time>2026-09-01T19:54:50Z</time>
  <course>11.76</course>
  <speed>0.022360679774997897</speed>
  <fix>3d</fix>
</trkpt>
<trkpt lat="-27.2744554" lon="151.2900608">
  <ele>343.8</ele>
  <time>2026-09-01T19:54:50Z</time>
  <course>170.36</course>
  <speed>0.0</speed>
  <fix>3d</fix>
</trkpt>
<trkpt lat="-27.2744555" lon="151.2900609">
  <ele>343.57</ele>
  <time>2026-09-01T19:54:50Z</time>
  <course>11.76</course>
  <speed>0.022360679774997897</speed>
  <fix>3d</fix>
</trkpt>
<trkpt lat="-27.2744554" lon="151.2900608">
  <ele>343.7</ele>
  <time>2026-09-01T19:54:50Z</time>
  <course>146.37</course>
  <speed>0.0</speed>
  <fix>3d</fix>
</trkpt>
<trkpt lat="-27.2744555" lon="151.2900609">
  <ele>343.52</ele>
  <time>2026-09-01T19:54:50Z</time>
  <course>11.76</course>
  <speed>0.022360679774997897</speed>
  <fix>3d</fix>
</trkpt>
<trkpt lat="-27.2744554" lon="151.2900608">
  <ele>343.7</ele>
  <time>2026-09-01T19:54:50Z</time>
  <course>146.37</course>
  <speed>0.0</speed>
  <fix>3d</fix>
</trkpt>
<trkpt lat="-27.2744555" lon="151.2900609">
  <ele>343.47</ele>
  <time>2026-09-01T19:54:50Z</time>
  <course>11.79</course>
  <speed>0.022360679774997897</speed>
  <fix>3d</fix>
</trkpt>
<trkpt lat="-27.2744554" lon="151.2900608">
  <ele>343.59</ele>
  <time>2026-09-01T19:54:50Z</time>
  <course>40.26</course>
  <speed>0.0</speed>
  <fix>3d</fix>
</trkpt>
<trkpt lat="-27.2744555" lon="151.2900609">
  <ele>343.43</ele>
  <time>2026-09-01T19:54:50Z</time>
  <course>11.82</course>
  <speed>0.01414213562373095</speed>
  <fix>3d</fix>
</trkpt>
<trkpt lat="-27.2744554" lon="151.2900608">
  <ele>343.59</ele>
  <time>2026-09-01T19:54:50Z</time>
  <course>40.26</course>
  <speed>0.0</speed>
  <fix>3d</fix>
</trkpt>
<trkpt lat="-27.2744555" lon="151.2900609">
  <ele>343.38</ele>
  <time>2026-09-01T19:54:50Z</time>
  <course>11.86</course>
  <speed>0.01414213562373095</speed>
  <fix>3d</fix>
</trkpt>
<trkpt lat="-27.2744554" lon="151.2900608">
  <ele>343.5</ele>
  <time>2026-09-01T19:54:50Z</time>
  <course>330.49</course>
  <speed>0.0</speed>
  <fix>3d</fix>
</trkpt>
<trkpt lat="-27.2744555" lon="151.2900609">
  <ele>343.33</ele>
  <time>2026-09-01T19:54:50Z</time>
  <course>11.91</course>
  <speed>0.01414213562373095</speed>
  <fix>3d</fix>
</trkpt>
<trkpt lat="-27.2744554" lon="151.2900608">
  <ele>343.5</ele>
  <time>2026-09-01T19:54:50Z</time>
  <course>330.49</course>
  <speed>0.0</speed>
  <fix>3d</fix>
</trkpt>
<trkpt lat="-27.2744555" lon="151.2900609">
  <ele>343.28</ele>
  <time>2026-09-01T19:54:50Z</time>
  <course>11.94</course>
  <speed>0.01</speed>
  <fix>3d</fix>
</trkpt>
<trkpt lat="-27.2744554" lon="151.2900608">
  <ele>343.4</ele>
  <time>2026-09-01T19:54:50Z</time>
  <course>325.13</course>
  <speed>0.0</speed>
  <fix>3d</fix>
</trkpt>
<trkpt lat="-27.2744555" lon="151.2900608">
  <ele>343.23</ele>
  <time>2026-09-01T19:54:50Z</time>
  <course>11.96</course>
  <speed>0.01</speed>
  <fix>3d</fix>
</trkpt>
<trkpt lat="-27.2744554" lon="151.2900608">
  <ele>343.4</ele>
  <time>2026-09-01T19:54:50Z</time>
  <course>325.13</course>
  <speed>0.0</speed>
  <fix>3d</fix>
</trkpt>
<trkpt lat="-27.2744555" lon="151.2900608">
  <ele>343.18</ele>
  <time>2026-09-01T19:54:50Z</time>
  <course>11.96</course>
  <speed>0.01</speed>
  <fix>3d</fix>
</trkpt>
<trkpt lat="-27.2744554" lon="151.2900608">
  <ele>343.3</ele>
  <time>2026-09-01T19:54:50Z</time>
  <course>323.74</course>
  <speed>0.0</speed>
  <fix>3d</fix>
</trkpt>
<trkpt lat="-27.2744555" lon="151.2900608">
  <ele>343.13</ele>
  <time>2026-09-01T19:54:50Z</time>
  <course>11.96</course>
  <speed>0.01</speed>
  <fix>3d</fix>
</trkpt>
<trkpt lat="-27.2744554" lon="151.2900608">
  <ele>343.3</ele>
  <time>2026-09-01T19:54:50Z</time>
  <course>323.74</course>
  <speed>0.0</speed>
  <fix>3d</fix>
</trkpt>
<trkpt lat="-27.2744555" lon="151.2900608">
  <ele>343.08</ele>
  <time>2026-09-01T19:54:50Z</time>
  <course>11.94</course>
  <speed>0.01</speed>
  <fix>3d</fix>
</trkpt>
<trkpt lat="-27.2744554" lon="151.2900608">
  <ele>343.2</ele>
  <time>2026-09-01T19:54:50Z</time>
  <course>323.01</course>
  <speed>0.01</speed>
  <fix>3d</fix>
</trkpt>
<trkpt lat="-27.2744555" lon="151.2900608">
  <ele>343.03</ele>
  <time>2026-09-01T19:54:50Z</time>
  <course>11.93</course>
  <speed>0.01</speed>
  <fix>3d</fix>
</trkpt>
<trkpt lat="-27.2744554" lon="151.2900608">
  <ele>343.2</ele>
  <time>2026-09-01T19:54:50Z</time>
  <course>323.01</course>
  <speed>0.01</speed>
  <fix>3d</fix>
</trkpt>
<trkpt lat="-27.2744555" lon="151.2900608">
  <ele>343.0</ele>
  <time>2026-09-01T19:54:50Z</time>
  <course>11.93</course>
  <speed>0.022360679774997897</speed>
  <fix>3d</fix>
</trkpt>
<trkpt lat="-27.2744554" lon="151.2900608">
  <ele>343.11</ele>
  <time>2026-09-01T19:54:50Z</time>
  <course>322.25</course>
  <speed>0.0</speed>
  <fix>3d</fix>
</trkpt>
<trkpt lat="-27.2744555" lon="151.2900608">
  <ele>343.01</ele>
  <time>2026-09-01T19:54:50Z</time>
  <course>11.93</course>
  <speed>0.022360679774997897</speed>
  <fix>3d</fix>
</trkpt>
<trkpt lat="-27.2744554" lon="151.2900608">
  <ele>343.11</ele>
  <time>2026-09-01T19:54:50Z</time>
  <course>322.25</course>
  <speed>0.0</speed>
  <fix>3d</fix>
</trkpt>
<trkpt lat="-27.2744555" lon="151.2900608">
  <ele>343.03</ele>
  <time>2026-09-01T19:54:50Z</time>
  <course>11.93</course>
  <speed>0.022360679774997897</speed>
  <fix>3d</fix>
</trkpt>
<trkpt lat="-27.2744554" lon="151.2900608">
  <ele>343.08</ele>
  <time>2026-09-01T19:54:50Z</time>
  <course>141.14</course>
  <speed>0.0</speed>
  <fix>3d</fix>
</trkpt>
<trkpt lat="-27.2744555" lon="151.2900608">
  <ele>343.04</ele>
  <time>2026-09-01T19:54:50Z</time>
  <course>11.93</course>
  <speed>0.022360679774997897</speed>
  <fix>3d</fix>
</trkpt>
<trkpt lat="-27.2744554" lon="151.2900608">
  <ele>343.08</ele>
  <time>2026-09-01T19:54:50Z</time>
  <course>141.14</course>
  <speed>0.0</speed>
  <fix>3d</fix>
</trkpt>
<trkpt lat="-27.2744555" lon="151.2900608">
  <ele>343.04</ele>
  <time>2026-09-01T19:54:50Z</time>
  <course>11.93</course>
  <speed>0.022360679774997897</speed>
  <fix>3d</fix>
</trkpt>
<trkpt lat="-27.2744554" lon="151.2900608">
  <ele>343.09</ele>
  <time>2026-09-01T19:54:50Z</time>
  <course>141.05</course>
  <speed>0.0</speed>
  <fix>3d</fix>
</trkpt>
<trkpt lat="-27.2744555" lon="151.2900608">
  <ele>343.04</ele>
  <time>2026-09-01T19:54:50Z</time>
  <course>11.93</course>
  <speed>0.022360679774997897</speed>
  <fix>3d</fix>
</trkpt>
<trkpt lat="-27.2744554" lon="151.2900608">
  <ele>343.09</ele>
  <time>2026-09-01T19:54:50Z</time>
  <course>141.05</course>
  <speed>0.0</speed>
  <fix>3d</fix>
</trkpt>
<trkpt lat="-27.2744555" lon="151.2900608">
  <ele>343.04</ele>
  <time>2026-09-01T19:54:50Z</time>
  <course>11.93</course>
  <speed>0.022360679774997897</speed>
  <fix>3d</fix>
</trkpt>
<trkpt lat="-27.2744554" lon="151.2900608">
  <ele>343.1</ele>
  <time>2026-09-01T19:54:50Z</time>
  <course>321.08</course>
  <speed>0.0</speed>
  <fix>3d</fix>
</trkpt>
<trkpt lat="-27.2744555" lon="151.2900608">
  <ele>343.04</ele>
  <time>2026-09-01T19:54:50Z</time>
  <course>11.93</course>
  <speed>0.022360679774997897</speed>
  <fix>3d</fix>
</trkpt>
<trkpt lat="-27.2744554" lon="151.2900608">
  <ele>343.1</ele>
  <time>2026-09-01T19:54:50Z</time>
  <course>321.08</course>
  <speed>0.0</speed>
  <fix>3d</fix>
</trkpt>
<trkpt lat="-27.2744555" lon="151.2900609">
  <ele>343.05</ele>
  <time>2026-09-01T19:54:50Z</time>
  <course>11.93</course>
  <speed>0.022360679774997897</speed>
  <fix>3d</fix>
</trkpt>
<trkpt lat="-27.2744554" lon="151.2900608">
  <ele>343.09</ele>
  <time>2026-09-01T19:54:50Z</time>
  <course>321.07</course>
  <speed>0.0</speed>
  <fix>3d</fix>
</trkpt>
<trkpt lat="-27.2744555" lon="151.2900609">
  <ele>343.05</ele>
  <time>2026-09-01T19:54:50Z</time>
  <course>11.93</course>
  <speed>0.022360679774997897</speed>
  <fix>3d</fix>
</trkpt>
<trkpt lat="-27.2744554" lon="151.2900608">
  <ele>343.09</ele>
  <time>2026-09-01T19:54:50Z</time>
  <course>321.07</course>
  <speed>0.0</speed>
  <fix>3d</fix>
</trkpt>
<trkpt lat="-27.2744555" lon="151.2900609">
  <ele>343.05</ele>
  <time>2026-09-01T19:54:50Z</time>
  <course>11.93</course>
  <speed>0.022360679774997897</speed>
  <fix>3d</fix>
</trkpt>
<trkpt lat="-27.2744554" lon="151.2900608">
  <ele>343.09</ele>
  <time>2026-09-01T19:54:50Z</time>
  <course>140.97</course>
  <speed>0.0</speed>
  <fix>3d</fix>
</trkpt>
<trkpt lat="-27.2744555" lon="151.2900609">
  <ele>343.05</ele>
  <time>2026-09-01T19:54:50Z</time>
  <course>11.93</course>
  <speed>0.022360679774997897</speed>
  <fix>3d</fix>
</trkpt>
<trkpt lat="-27.2744554" lon="151.2900608">
  <ele>343.09</ele>
  <time>2026-09-01T19:54:50Z</time>
  <course>140.97</course>
  <speed>0.0</speed>
  <fix>3d</fix>
</trkpt>
<trkpt lat="-27.2744555" lon="151.2900609">
  <ele>343.05</ele>
  <time>2026-09-01T19:54:50Z</time>
  <course>11.93</course>
  <speed>0.022360679774997897</speed>
  <fix>3d</fix>
</trkpt>
<trkpt lat="-27.2744554" lon="151.2900608">
  <ele>343.09</ele>
  <time>2026-09-01T19:54:50Z</time>
  <course>140.82</course>
  <speed>0.0</speed>
  <fix>3d</fix>
</trkpt>
<trkpt lat="-27.2744555" lon="151.2900609">
  <ele>343.05</ele>
  <time>2026-09-01T19:54:50Z</time>
  <course>11.93</course>
  <speed>0.022360679774997897</speed>
  <fix>3d</fix>
</trkpt>
<trkpt lat="-27.2744554" lon="151.2900608">
  <ele>343.09</ele>
  <time>2026-09-01T19:54:50Z</time>
  <course>140.82</course>
  <speed>0.0</speed>
  <fix>3d</fix>
</trkpt>
<trkpt lat="-27.2744555" lon="151.2900609">
  <ele>343.05</ele>
  <time>2026-09-01T19:54:50Z</time>
  <course>11.92</course>
  <speed>0.022360679774997897</speed>
  <fix>3d</fix>
</trkpt>
<trkpt lat="-27.2744554" lon="151.2900608">
  <ele>343.09</ele>
  <time>2026-09-01T19:54:50Z</time>
  <course>321.27</course>
  <speed>0.0</speed>
  <fix>3d</fix>
</trkpt>
<trkpt lat="-27.2744555" lon="151.2900609">
  <ele>343.05</ele>
  <time>2026-09-01T19:54:50Z</time>
  <course>11.92</course>
  <speed>0.022360679774997897</speed>
  <fix>3d</fix>
</trkpt>
<trkpt lat="-27.2744554" lon="151.2900608">
  <ele>343.09</ele>
  <time>2026-09-01T19:54:50Z</time>
  <course>321.27</course>
  <speed>0.0</speed>
  <fix>3d</fix>
</trkpt>
<trkpt lat="-27.2744555" lon="151.2900609">
  <ele>343.05</ele>
  <time>2026-09-01T19:54:50Z</time>
  <course>11.92</course>
  <speed>0.022360679774997897</speed>
  <fix>3d</fix>
</trkpt>
<trkpt lat="-27.2744554" lon="151.2900608">
  <ele>343.09</ele>
  <time>2026-09-01T19:54:50Z</time>
  <course>321.95</course>
  <speed>0.0</speed>
  <fix>3d</fix>
</trkpt>
<trkpt lat="-27.2744555" lon="151.2900609">
  <ele>343.05</ele>
  <time>2026-09-01T19:54:50Z</time>
  <course>11.92</course>
  <speed>0.022360679774997897</speed>
  <fix>3d</fix>
</trkpt>
<trkpt lat="-27.2744554" lon="151.2900608">
  <ele>343.09</ele>
  <time>2026-09-01T19:54:50Z</time>
  <course>321.95</course>
  <speed>0.0</speed>
  <fix>3d</fix>
</trkpt>
<trkpt lat="-27.2744556" lon="151.2900609">
  <ele>343.05</ele>
  <time>2026-09-01T19:54:50Z</time>
  <course>11.92</course>
  <speed>0.022360679774997897</speed>
  <fix>3d</fix>
</trkpt>
<trkpt lat="-27.2744554" lon="151.2900608">
  <ele>343.09</ele>
  <time>2026-09-01T19:54:50Z</time>
  <course>139.76</course>
  <speed>0.0</speed>
  <fix>3d</fix>
</trkpt>
<trkpt lat="-27.2744555" lon="151.2900609">
  <ele>343.05</ele>
  <time>2026-09-01T19:54:50Z</time>
  <course>11.92</course>
  <speed>0.022360679774997897</speed>
  <fix>3d</fix>
</trkpt>
<trkpt lat="-27.2744554" lon="151.2900608">
  <ele>343.09</ele>
  <time>2026-09-01T19:54:50Z</time>
  <course>139.76</course>
  <speed>0.0</speed>
  <fix>3d</fix>
</trkpt>
<trkpt lat="-27.2744556" lon="151.2900609">
  <ele>343.05</ele>
  <time>2026-09-01T19:54:50Z</time>
  <course>11.92</course>
  <speed>0.022360679774997897</speed>
  <fix>3d</fix>
</trkpt>
<trkpt lat="-27.2744554" lon="151.2900608">
  <ele>343.09</ele>
  <time>2026-09-01T19:54:50Z</time>
  <course>129.0</course>
  <speed>0.0</speed>
  <fix>3d</fix>
</trkpt>
<trkpt lat="-27.2744556" lon="151.2900609">
  <ele>343.05</ele>
  <time>2026-09-01T19:54:50Z</time>
  <course>11.92</course>
  <speed>0.022360679774997897</speed>
  <fix>3d</fix>
</trkpt>
<trkpt lat="-27.2744554" lon="151.2900608">
  <ele>343.09</ele>
  <time>2026-09-01T19:54:50Z</time>
  <course>129.0</course>
  <speed>0.0</speed>
  <fix>3d</fix>
</trkpt>
<trkpt lat="-27.2744556" lon="151.2900609">
  <ele>343.05</ele>
  <time>2026-09-01T19:54:50Z</time>
  <course>11.92</course>
  <speed>0.022360679774997897</speed>
  <fix>3d</fix>
</trkpt>
<trkpt lat="-27.2744554" lon="151.2900608">
  <ele>343.09</ele>
  <time>2026-09-01T19:54:50Z</time>
  <course>327.58</course>
  <speed>0.0</speed>
  <fix>3d</fix>
</trkpt>
<trkpt lat="-27.2744556" lon="151.2900609">
  <ele>343.05</ele>
  <time>2026-09-01T19:54:50Z</time>
  <course>11.92</course>
  <speed>0.022360679774997897</speed>
  <fix>3d</fix>
</trkpt>
<trkpt lat="-27.2744554" lon="151.2900608">
  <ele>343.09</ele>
  <time>2026-09-01T19:54:50Z</time>
  <course>327.58</course>
  <speed>0.0</speed>
  <fix>3d</fix>
</trkpt>
<trkpt lat="-27.2744556" lon="151.2900609">
  <ele>343.05</ele>
  <time>2026-09-01T19:54:50Z</time>
  <course>11.92</course>
  <speed>0.022360679774997897</speed>
  <fix>3d</fix>
</trkpt>
<trkpt lat="-27.2744554" lon="151.2900608">
  <ele>343.09</ele>
  <time>2026-09-01T19:54:50Z</time>
  <course>145.09</course>
  <speed>0.0</speed>
  <fix>3d</fix>
</trkpt>
<trkpt lat="-27.2744556" lon="151.2900609">
  <ele>343.05</ele>
  <time>2026-09-01T19:54:50Z</time>
  <course>11.92</course>
  <speed>0.022360679774997897</speed>
  <fix>3d</fix>
</trkpt>
<trkpt lat="-27.2744554" lon="151.2900608">
  <ele>343.09</ele>
  <time>2026-09-01T19:54:50Z</time>
  <course>145.09</course>
  <speed>0.0</speed>
  <fix>3d</fix>
</trkpt>
<trkpt lat="-27.2744556" lon="151.2900609">
  <ele>343.05</ele>
  <time>2026-09-01T19:54:50Z</time>
  <course>11.92</course>
  <speed>0.022360679774997897</speed>
  <fix>3d</fix>
</trkpt>
<trkpt lat="-27.2744554" lon="151.2900608">
  <ele>343.09</ele>
  <time>2026-09-01T19:54:50Z</time>
  <course>148.69</course>
  <speed>0.0</speed>
  <fix>3d</fix>
</trkpt>
<trkpt lat="-27.2744556" lon="151.2900609">
  <ele>343.05</ele>
  <time>2026-09-01T19:54:50Z</time>
  <course>11.92</course>
  <speed>0.022360679774997897</speed>
  <fix>3d</fix>
</trkpt>
<trkpt lat="-27.2744554" lon="151.2900608">
  <ele>343.09</ele>
  <time>2026-09-01T19:54:50Z</time>
  <course>148.69</course>
  <speed>0.0</speed>
  <fix>3d</fix>
</trkpt>
<trkpt lat="-27.2744556" lon="151.2900609">
  <ele>343.05</ele>
  <time>2026-09-01T19:54:50Z</time>
  <course>11.92</course>
  <speed>0.022360679774997897</speed>
  <fix>3d</fix>
</trkpt>
<trkpt lat="-27.2744554" lon="151.2900608">
  <ele>343.09</ele>
  <time>2026-09-01T19:54:50Z</time>
  <course>139.38</course>
  <speed>0.0</speed>
  <fix>3d</fix>
</trkpt>
<trkpt lat="-27.2744556" lon="151.2900609">
  <ele>343.05</ele>
  <time>2026-09-01T19:54:50Z</time>
  <course>11.92</course>
  <speed>0.022360679774997897</speed>
  <fix>3d</fix>
</trkpt>
<trkpt lat="-27.2744554" lon="151.2900608">
  <ele>343.09</ele>
  <time>2026-09-01T19:54:50Z</time>
  <course>139.38</course>
  <speed>0.0</speed>
  <fix>3d</fix>
</trkpt>
<trkpt lat="-27.2744556" lon="151.2900609">
  <ele>343.05</ele>
  <time>2026-09-01T19:54:50Z</time>
  <course>11.92</course>
  <speed>0.022360679774997897</speed>
  <fix>3d</fix>
</trkpt>
<trkpt lat="-27.2744554" lon="151.2900608">
  <ele>343.09</ele>
  <time>2026-09-01T19:54:50Z</time>
  <course>127.81</course>
  <speed>0.0</speed>
  <fix>3d</fix>
</trkpt>
<trkpt lat="-27.2744556" lon="151.2900609">
  <ele>343.06</ele>
  <time>2026-09-01T19:54:50Z</time>
  <course>11.92</course>
  <speed>0.022360679774997897</speed>
  <fix>3d</fix>
</trkpt>
<trkpt lat="-27.2744554" lon="151.2900608">
  <ele>343.09</ele>
  <time>2026-09-01T19:54:50Z</time>
  <course>127.81</course>
  <speed>0.0</speed>
  <fix>3d</fix>
</trkpt>
<trkpt lat="-27.2744556" lon="151.2900609">
  <ele>343.06</ele>
  <time>2026-09-01T19:54:50Z</time>
  <course>11.92</course>
  <speed>0.022360679774997897</speed>
  <fix>3d</fix>
</trkpt>
<trkpt lat="-27.2744554" lon="151.2900608">
  <ele>343.09</ele>
  <time>2026-09-01T19:54:50Z</time>
  <course>125.44</course>
  <speed>0.0</speed>
  <fix>3d</fix>
</trkpt>
<trkpt lat="-27.2744556" lon="151.2900609">
  <ele>343.06</ele>
  <time>2026-09-01T19:54:50Z</time>
  <course>11.92</course>
  <speed>0.022360679774997897</speed>
  <fix>3d</fix>
</trkpt>
<trkpt lat="-27.2744554" lon="151.2900608">
  <ele>343.09</ele>
  <time>2026-09-01T19:54:50Z</time>
  <course>125.44</course>
  <speed>0.0</speed>
  <fix>3d</fix>
</trkpt>
<trkpt lat="-27.2744556" lon="151.2900609">
  <ele>343.06</ele>
  <time>2026-09-01T19:54:50Z</time>
  <course>11.92</course>
  <speed>0.022360679774997897</speed>
  <fix>3d</fix>
</trkpt>
<trkpt lat="-27.2744554" lon="151.2900608">
  <ele>343.09</ele>
  <time>2026-09-01T19:54:50Z</time>
  <course>302.59</course>
  <speed>0.0</speed>
  <fix>3d</fix>
</trkpt>
<trkpt lat="-27.2744556" lon="151.2900609">
  <ele>343.06</ele>
  <time>2026-09-01T19:54:50Z</time>
  <course>11.92</course>
  <speed>0.022360679774997897</speed>
  <fix>3d</fix>
</trkpt>
<trkpt lat="-27.2744554" lon="151.2900608">
  <ele>343.09</ele>
  <time>2026-09-01T19:54:50Z</time>
  <course>302.59</course>
  <speed>0.0</speed>
  <fix>3d</fix>
</trkpt>
<trkpt lat="-27.2744556" lon="151.2900609">
  <ele>343.06</ele>
  <time>2026-09-01T19:54:50Z</time>
  <course>11.92</course>
  <speed>0.022360679774997897</speed>
  <fix>3d</fix>
</trkpt>
<trkpt lat="-27.2744554" lon="151.2900608">
  <ele>343.09</ele>
  <time>2026-09-01T19:54:50Z</time>
  <course>302.94</course>
  <speed>0.0</speed>
  <fix>3d</fix>
</trkpt>
<trkpt lat="-27.2744556" lon="151.2900609">
  <ele>343.06</ele>
  <time>2026-09-01T19:54:50Z</time>
  <course>11.92</course>
  <speed>0.022360679774997897</speed>
  <fix>3d</fix>
</trkpt>
<trkpt lat="-27.2744554" lon="151.2900608">
  <ele>343.09</ele>
  <time>2026-09-01T19:54:50Z</time>
  <course>302.94</course>
  <speed>0.0</speed>
  <fix>3d</fix>
</trkpt>
<trkpt lat="-27.2744556" lon="151.2900609">
  <ele>343.06</ele>
  <time>2026-09-01T19:54:50Z</time>
  <course>11.92</course>
  <speed>0.022360679774997897</speed>
  <fix>3d</fix>
</trkpt>
<trkpt lat="-27.2744554" lon="151.2900608">
  <ele>343.09</ele>
  <time>2026-09-01T19:54:50Z</time>
  <course>117.08</course>
  <speed>0.0</speed>
  <fix>3d</fix>
</trkpt>
<trkpt lat="-27.2744556" lon="151.2900609">
  <ele>343.06</ele>
  <time>2026-09-01T19:54:50Z</time>
  <course>11.92</course>
  <speed>0.022360679774997897</speed>
  <fix>3d</fix>
</trkpt>
<trkpt lat="-27.2744554" lon="151.2900608">
  <ele>343.09</ele>
  <time>2026-09-01T19:54:50Z</time>
  <course>117.08</course>
  <speed>0.0</speed>
  <fix>3d</fix>
</trkpt>
<trkpt lat="-27.2744556" lon="151.2900609">
  <ele>343.06</ele>
  <time>2026-09-01T19:54:50Z</time>
  <course>11.91</course>
  <speed>0.022360679774997897</speed>
  <fix>3d</fix>
</trkpt>
<trkpt lat="-27.2744554" lon="151.2900608">
  <ele>343.09</ele>
  <time>2026-09-01T19:54:50Z</time>
  <course>123.11</course>
  <speed>0.0</speed>
  <fix>3d</fix>
</trkpt>
<trkpt lat="-27.2744556" lon="151.2900609">
  <ele>343.06</ele>
  <time>2026-09-01T19:54:50Z</time>
  <course>11.91</course>
  <speed>0.022360679774997897</speed>
  <fix>3d</fix>
</trkpt>
<trkpt lat="-27.2744554" lon="151.2900608">
  <ele>343.09</ele>
  <time>2026-09-01T19:54:50Z</time>
  <course>123.11</course>
  <speed>0.0</speed>
  <fix>3d</fix>
</trkpt>
<trkpt lat="-27.2744556" lon="151.2900609">
  <ele>343.06</ele>
  <time>2026-09-01T19:54:50Z</time>
  <course>11.91</course>
  <speed>0.022360679774997897</speed>
  <fix>3d</fix>
</trkpt>
<trkpt lat="-27.2744554" lon="151.2900608">
  <ele>343.09</ele>
  <time>2026-09-01T19:54:50Z</time>
  <course>301.81</course>
  <speed>0.0</speed>
  <fix>3d</fix>
</trkpt>
<trkpt lat="-27.2744556" lon="151.2900609">
  <ele>343.06</ele>
  <time>2026-09-01T19:54:50Z</time>
  <course>11.91</course>
  <speed>0.022360679774997897</speed>
  <fix>3d</fix>
</trkpt>
<trkpt lat="-27.2744554" lon="151.2900608">
  <ele>343.09</ele>
  <time>2026-09-01T19:54:50Z</time>
  <course>301.81</course>
  <speed>0.0</speed>
  <fix>3d</fix>
</trkpt>
<trkpt lat="-27.2744556" lon="151.2900609">
  <ele>343.06</ele>
  <time>2026-09-01T19:54:50Z</time>
  <course>11.91</course>
  <speed>0.022360679774997897</speed>
  <fix>3d</fix>
</trkpt>
<trkpt lat="-27.2744554" lon="151.2900608">
  <ele>343.09</ele>
  <time>2026-09-01T19:54:50Z</time>
  <course>303.31</course>
  <speed>0.0</speed>
  <fix>3d</fix>
</trkpt>
<trkpt lat="-27.2744556" lon="151.2900609">
  <ele>343.06</ele>
  <time>2026-09-01T19:54:50Z</time>
  <course>11.91</course>
  <speed>0.022360679774997897</speed>
  <fix>3d</fix>
</trkpt>
<trkpt lat="-27.2744554" lon="151.2900608">
  <ele>343.09</ele>
  <time>2026-09-01T19:54:50Z</time>
  <course>303.31</course>
  <speed>0.0</speed>
  <fix>3d</fix>
</trkpt>
<trkpt lat="-27.2744556" lon="151.2900609">
  <ele>343.06</ele>
  <time>2026-09-01T19:54:50Z</time>
  <course>11.91</course>
  <speed>0.022360679774997897</speed>
  <fix>3d</fix>
</trkpt>
<trkpt lat="-27.2744554" lon="151.2900608">
  <ele>343.09</ele>
  <time>2026-09-01T19:54:50Z</time>
  <course>122.42</course>
  <speed>0.0</speed>
  <fix>3d</fix>
</trkpt>
<trkpt lat="-27.2744556" lon="151.2900609">
  <ele>343.06</ele>
  <time>2026-09-01T19:54:50Z</time>
  <course>11.91</course>
  <speed>0.022360679774997897</speed>
  <fix>3d</fix>
</trkpt>
<trkpt lat="-27.2744554" lon="151.2900608">
  <ele>343.09</ele>
  <time>2026-09-01T19:54:50Z</time>
  <course>122.42</course>
  <speed>0.0</speed>
  <fix>3d</fix>
</trkpt>
<trkpt lat="-27.2744556" lon="151.2900609">
  <ele>343.06</ele>
  <time>2026-09-01T19:54:50Z</time>
  <course>11.91</course>
  <speed>0.022360679774997897</speed>
  <fix>3d</fix>
</trkpt>
<trkpt lat="-27.2744554" lon="151.2900608">
  <ele>343.09</ele>
  <time>2026-09-01T19:54:50Z</time>
  <course>123.62</course>
  <speed>0.0</speed>
  <fix>3d</fix>
</trkpt>
<trkpt lat="-27.2744556" lon="151.2900609">
  <ele>343.06</ele>
  <time>2026-09-01T19:54:50Z</time>
  <course>11.91</course>
  <speed>0.022360679774997897</speed>
  <fix>3d</fix>
</trkpt>
<trkpt lat="-27.2744554" lon="151.2900608">
  <ele>343.09</ele>
  <time>2026-09-01T19:54:50Z</time>
  <course>123.62</course>
  <speed>0.0</speed>
  <fix>3d</fix>
</trkpt>
<trkpt lat="-27.2744556" lon="151.2900609">
  <ele>343.06</ele>
  <time>2026-09-01T19:54:50Z</time>
  <course>11.91</course>
  <speed>0.022360679774997897</speed>
  <fix>3d</fix>
</trkpt>
<trkpt lat="-27.2744554" lon="151.2900608">
  <ele>343.09</ele>
  <time>2026-09-01T19:54:50Z</time>
  <course>302.7</course>
  <speed>0.0</speed>
  <fix>3d</fix>
</trkpt>
<trkpt lat="-27.2744556" lon="151.2900609">
  <ele>343.06</ele>
  <time>2026-09-01T19:54:50Z</time>
  <course>11.91</course>
  <speed>0.022360679774997897</speed>
  <fix>3d</fix>
</trkpt>
<trkpt lat="-27.2744554" lon="151.2900608">
  <ele>343.09</ele>
  <time>2026-09-01T19:54:50Z</time>
  <course>302.7</course>
  <speed>0.0</speed>
  <fix>3d</fix>
</trkpt>
<trkpt lat="-27.2744556" lon="151.2900609">
  <ele>343.06</ele>
  <time>2026-09-01T19:54:50Z</time>
  <course>11.91</course>
  <speed>0.022360679774997897</speed>
  <fix>3d</fix>
</trkpt>
<trkpt lat="-27.2744554" lon="151.2900608">
  <ele>343.09</ele>
  <time>2026-09-01T19:54:50Z</time>
  <course>304.43</course>
  <speed>0.0</speed>
  <fix>3d</fix>
</trkpt>
<trkpt lat="-27.2744556" lon="151.2900609">
  <ele>343.06</ele>
  <time>2026-09-01T19:54:50Z</time>
  <course>11.91</course>
  <speed>0.022360679774997897</speed>
  <fix>3d</fix>
</trkpt>
<trkpt lat="-27.2744554" lon="151.2900608">
  <ele>343.09</ele>
  <time>2026-09-01T19:54:50Z</time>
  <course>304.43</course>
  <speed>0.0</speed>
  <fix>3d</fix>
</trkpt>
<trkpt lat="-27.2744556" lon="151.2900609">
  <ele>343.06</ele>
  <time>2026-09-01T19:54:50Z</time>
  <course>11.91</course>
  <speed>0.022360679774997897</speed>
  <fix>3d</fix>
</trkpt>
<trkpt lat="-27.2744554" lon="151.2900608">
  <ele>343.09</ele>
  <time>2026-09-01T19:54:50Z</time>
  <course>122.89</course>
  <speed>0.0</speed>
  <fix>3d</fix>
</trkpt>
<trkpt lat="-27.2744556" lon="151.2900609">
  <ele>343.06</ele>
  <time>2026-09-01T19:54:50Z</time>
  <course>11.91</course>
  <speed>0.022360679774997897</speed>
  <fix>3d</fix>
</trkpt>
<trkpt lat="-27.2744554" lon="151.2900608">
  <ele>343.09</ele>
  <time>2026-09-01T19:54:50Z</time>
  <course>122.89</course>
  <speed>0.0</speed>
  <fix>3d</fix>
</trkpt>
<trkpt lat="-27.2744556" lon="151.2900609">
  <ele>343.06</ele>
  <time>2026-09-01T19:54:50Z</time>
  <course>11.91</course>
  <speed>0.022360679774997897</speed>
  <fix>3d</fix>
</trkpt>
<trkpt lat="-27.2744554" lon="151.2900608">
  <ele>343.09</ele>
  <time>2026-09-01T19:54:50Z</time>
  <course>162.08</course>
  <speed>0.0</speed>
  <fix>3d</fix>
</trkpt>
<trkpt lat="-27.2744556" lon="151.2900609">
  <ele>343.05</ele>
  <time>2026-09-01T19:54:50Z</time>
  <course>11.91</course>
  <speed>0.022360679774997897</speed>
  <fix>3d</fix>
</trkpt>
<trkpt lat="-27.2744554" lon="151.2900608">
  <ele>343.09</ele>
  <time>2026-09-01T19:54:50Z</time>
  <course>162.08</course>
  <speed>0.0</speed>
  <fix>3d</fix>
</trkpt>
<trkpt lat="-27.2744556" lon="151.2900609">
  <ele>343.05</ele>
  <time>2026-09-01T19:54:50Z</time>
  <course>11.91</course>
  <speed>0.022360679774997897</speed>
  <fix>3d</fix>
</trkpt>
<trkpt lat="-27.2744554" lon="151.2900608">
  <ele>343.09</ele>
  <time>2026-09-01T19:54:50Z</time>
  <course>303.06</course>
  <speed>0.0</speed>
  <fix>3d</fix>
</trkpt>
<trkpt lat="-27.2744556" lon="151.2900609">
  <ele>343.05</ele>
  <time>2026-09-01T19:54:50Z</time>
  <course>11.91</course>
  <speed>0.022360679774997897</speed>
  <fix>3d</fix>
</trkpt>
<trkpt lat="-27.2744554" lon="151.2900608">
  <ele>343.09</ele>
  <time>2026-09-01T19:54:50Z</time>
  <course>303.06</course>
  <speed>0.0</speed>
  <fix>3d</fix>
</trkpt>
<trkpt lat="-27.2744556" lon="151.2900609">
  <ele>343.05</ele>
  <time>2026-09-01T19:54:50Z</time>
  <course>11.91</course>
  <speed>0.022360679774997897</speed>
  <fix>3d</fix>
</trkpt>
<trkpt lat="-27.2744554" lon="151.2900608">
  <ele>343.09</ele>
  <time>2026-09-01T19:54:50Z</time>
  <course>121.41</course>
  <speed>0.0</speed>
  <fix>3d</fix>
</trkpt>
<trkpt lat="-27.2744556" lon="151.2900609">
  <ele>343.08</ele>
  <time>2026-09-01T19:54:50Z</time>
  <course>11.95</course>
  <speed>0.022360679774997897</speed>
  <fix>3d</fix>
</trkpt>
<trkpt lat="-27.2744554" lon="151.2900608">
  <ele>343.09</ele>
  <time>2026-09-01T19:54:50Z</time>
  <course>121.41</course>
  <speed>0.0</speed>
  <fix>3d</fix>
</trkpt>
<trkpt lat="-27.2744556" lon="151.2900609">
  <ele>343.08</ele>
  <time>2026-09-01T19:54:50Z</time>
  <course>12.03</course>
  <speed>0.022360679774997897</speed>
  <fix>3d</fix>
</trkpt>
<trkpt lat="-27.2744554" lon="151.2900608">
  <ele>343.09</ele>
  <time>2026-09-01T19:54:50Z</time>
  <course>123.24</course>
  <speed>0.0</speed>
  <fix>3d</fix>
</trkpt>
<trkpt lat="-27.2744556" lon="151.2900609">
  <ele>343.08</ele>
  <time>2026-09-01T19:54:50Z</time>
  <course>12.14</course>
  <speed>0.022360679774997897</speed>
  <fix>3d</fix>
</trkpt>
<trkpt lat="-27.2744554" lon="151.2900608">
  <ele>343.09</ele>
  <time>2026-09-01T19:54:50Z</time>
  <course>123.24</course>
  <speed>0.0</speed>
  <fix>3d</fix>
</trkpt>
<trkpt lat="-27.2744556" lon="151.2900609">
  <ele>343.08</ele>
  <time>2026-09-01T19:54:50Z</time>
  <course>12.23</course>
  <speed>0.022360679774997897</speed>
  <fix>3d</fix>
</trkpt>
<trkpt lat="-27.2744554" lon="151.2900608">
  <ele>343.09</ele>
  <time>2026-09-01T19:54:50Z</time>
  <course>302.32</course>
  <speed>0.0</speed>
  <fix>3d</fix>
</trkpt>
<trkpt lat="-27.2744556" lon="151.2900609">
  <ele>343.08</ele>
  <time>2026-09-01T19:54:50Z</time>
  <course>12.32</course>
  <speed>0.022360679774997897</speed>
  <fix>3d</fix>
</trkpt>
<trkpt lat="-27.2744554" lon="151.2900608">
  <ele>343.09</ele>
  <time>2026-09-01T19:54:50Z</time>
  <course>302.32</course>
  <speed>0.0</speed>
  <fix>3d</fix>
</trkpt>
<trkpt lat="-27.2744556" lon="151.2900609">
  <ele>343.09</ele>
  <time>2026-09-01T19:54:50Z</time>
  <course>12.39</course>
  <speed>0.022360679774997897</speed>
  <fix>3d</fix>
</trkpt>
<trkpt lat="-27.2744554" lon="151.2900608">
  <ele>343.09</ele>
  <time>2026-09-01T19:54:50Z</time>
  <course>303.56</course>
  <speed>0.0</speed>
  <fix>3d</fix>
</trkpt>
<trkpt lat="-27.2744556" lon="151.2900609">
  <ele>343.09</ele>
  <time>2026-09-01T19:54:50Z</time>
  <course>12.46</course>
  <speed>0.022360679774997897</speed>
  <fix>3d</fix>
</trkpt>
<trkpt lat="-27.2744554" lon="151.2900608">
  <ele>343.09</ele>
  <time>2026-09-01T19:54:50Z</time>
  <course>303.56</course>
  <speed>0.0</speed>
  <fix>3d</fix>
</trkpt>
<trkpt lat="-27.2744556" lon="151.2900609">
  <ele>343.09</ele>
  <time>2026-09-01T19:54:50Z</time>
  <course>12.52</course>
  <speed>0.022360679774997897</speed>
  <fix>3d</fix>
</trkpt>
<trkpt lat="-27.2744554" lon="151.2900608">
  <ele>343.09</ele>
  <time>2026-09-01T19:54:50Z</time>
  <course>122.51</course>
  <speed>0.0</speed>
  <fix>3d</fix>
</trkpt>
<trkpt lat="-27.2744556" lon="151.2900609">
  <ele>343.09</ele>
  <time>2026-09-01T19:54:50Z</time>
  <course>12.57</course>
  <speed>0.022360679774997897</speed>
  <fix>3d</fix>
</trkpt>
<trkpt lat="-27.2744554" lon="151.2900608">
  <ele>343.09</ele>
  <time>2026-09-01T19:54:50Z</time>
  <course>122.51</course>
  <speed>0.0</speed>
  <fix>3d</fix>
</trkpt>
<trkpt lat="-27.2744556" lon="151.2900609">
  <ele>343.09</ele>
  <time>2026-09-01T19:54:50Z</time>
  <course>12.62</course>
  <speed>0.022360679774997897</speed>
  <fix>3d</fix>
</trkpt>
<trkpt lat="-27.2744554" lon="151.2900608">
  <ele>343.09</ele>
  <time>2026-09-01T19:54:50Z</time>
  <course>123.42</course>
  <speed>0.0</speed>
  <fix>3d</fix>
</trkpt>
<trkpt lat="-27.2744556" lon="151.2900609">
  <ele>343.09</ele>
  <time>2026-09-01T19:54:50Z</time>
  <course>12.66</course>
  <speed>0.022360679774997897</speed>
  <fix>3d</fix>
</trkpt>
<trkpt lat="-27.2744554" lon="151.2900608">
  <ele>343.09</ele>
  <time>2026-09-01T19:54:50Z</time>
  <course>123.42</course>
  <speed>0.0</speed>
  <fix>3d</fix>
</trkpt>
<trkpt lat="-27.2744556" lon="151.2900609">
  <ele>343.09</ele>
  <time>2026-09-01T19:54:50Z</time>
  <course>12.71</course>
  <speed>0.022360679774997897</speed>
  <fix>3d</fix>
</trkpt>
<trkpt lat="-27.2744554" lon="151.2900608">
  <ele>343.09</ele>
  <time>2026-09-01T19:54:50Z</time>
  <course>303.63</course>
  <speed>0.0</speed>
  <fix>3d</fix>
</trkpt>
<trkpt lat="-27.2744556" lon="151.2900609">
  <ele>343.09</ele>
  <time>2026-09-01T19:54:50Z</time>
  <course>12.74</course>
  <speed>0.022360679774997897</speed>
  <fix>3d</fix>
</trkpt>
<trkpt lat="-27.2744554" lon="151.2900608">
  <ele>343.09</ele>
  <time>2026-09-01T19:54:50Z</time>
  <course>303.63</course>
  <speed>0.0</speed>
  <fix>3d</fix>
</trkpt>
<trkpt lat="-27.2744556" lon="151.2900609">
  <ele>343.09</ele>
  <time>2026-09-01T19:54:50Z</time>
  <course>12.78</course>
  <speed>0.022360679774997897</speed>
  <fix>3d</fix>
</trkpt>
<trkpt lat="-27.2744554" lon="151.2900608">
  <ele>343.09</ele>
  <time>2026-09-01T19:54:50Z</time>
  <course>323.72</course>
  <speed>0.0</speed>
  <fix>3d</fix>
</trkpt>
<trkpt lat="-27.2744556" lon="151.2900609">
  <ele>343.09</ele>
  <time>2026-09-01T19:54:50Z</time>
  <course>12.81</course>
  <speed>0.022360679774997897</speed>
  <fix>3d</fix>
</trkpt>
<trkpt lat="-27.2744554" lon="151.2900608">
  <ele>343.09</ele>
  <time>2026-09-01T19:54:50Z</time>
  <course>323.72</course>
  <speed>0.0</speed>
  <fix>3d</fix>
</trkpt>
<trkpt lat="-27.2744556" lon="151.2900609">
  <ele>343.09</ele>
  <time>2026-09-01T19:54:50Z</time>
  <course>12.85</course>
  <speed>0.022360679774997897</speed>
  <fix>3d</fix>
</trkpt>
<trkpt lat="-27.2744554" lon="151.2900608">
  <ele>343.09</ele>
  <time>2026-09-01T19:54:50Z</time>
  <course>115.84</course>
  <speed>0.0</speed>
  <fix>3d</fix>
</trkpt>
<trkpt lat="-27.2744556" lon="151.2900609">
  <ele>343.09</ele>
  <time>2026-09-01T19:54:50Z</time>
  <course>12.87</course>
  <speed>0.022360679774997897</speed>
  <fix>3d</fix>
</trkpt>
<trkpt lat="-27.2744554" lon="151.2900608">
  <ele>343.09</ele>
  <time>2026-09-01T19:54:50Z</time>
  <course>115.84</course>
  <speed>0.0</speed>
  <fix>3d</fix>
</trkpt>
<trkpt lat="-27.2744556" lon="151.2900609">
  <ele>343.08</ele>
  <time>2026-09-01T19:54:50Z</time>
  <course>12.9</course>
  <speed>0.022360679774997897</speed>
  <fix>3d</fix>
</trkpt>
<trkpt lat="-27.2744554" lon="151.2900608">
  <ele>343.09</ele>
  <time>2026-09-01T19:54:50Z</time>
  <course>347.22</course>
  <speed>0.0</speed>
  <fix>3d</fix>
</trkpt>
<trkpt lat="-27.2744556" lon="151.2900609">
  <ele>343.09</ele>
  <time>2026-09-01T19:54:50Z</time>
  <course>12.93</course>
  <speed>0.022360679774997897</speed>
  <fix>3d</fix>
</trkpt>
<trkpt lat="-27.2744554" lon="151.2900608">
  <ele>343.09</ele>
  <time>2026-09-01T19:54:50Z</time>
  <course>347.22</course>
  <speed>0.0</speed>
  <fix>3d</fix>
</trkpt>
<trkpt lat="-27.2744556" lon="151.2900609">
  <ele>343.09</ele>
  <time>2026-09-01T19:54:50Z</time>
  <course>12.95</course>
  <speed>0.022360679774997897</speed>
  <fix>3d</fix>
</trkpt>
<trkpt lat="-27.2744554" lon="151.2900608">
  <ele>343.09</ele>
  <time>2026-09-01T19:54:50Z</time>
  <course>324.63</course>
  <speed>0.0</speed>
  <fix>3d</fix>
</trkpt>
<trkpt lat="-27.2744555" lon="151.2900609">
  <ele>343.1</ele>
  <time>2026-09-01T19:54:50Z</time>
  <course>12.98</course>
  <speed>0.022360679774997897</speed>
  <fix>3d</fix>
</trkpt>
<trkpt lat="-27.2744554" lon="151.2900608">
  <ele>343.09</ele>
  <time>2026-09-01T19:54:50Z</time>
  <course>324.63</course>
  <speed>0.0</speed>
  <fix>3d</fix>
</trkpt>
<trkpt lat="-27.2744556" lon="151.2900609">
  <ele>343.1</ele>
  <time>2026-09-01T19:54:50Z</time>
  <course>13.0</course>
  <speed>0.022360679774997897</speed>
  <fix>3d</fix>
</trkpt>
<trkpt lat="-27.2744554" lon="151.2900608">
  <ele>343.09</ele>
  <time>2026-09-01T19:54:50Z</time>
  <course>324.7</course>
  <speed>0.0</speed>
  <fix>3d</fix>
</trkpt>
<trkpt lat="-27.2744555" lon="151.2900609">
  <ele>343.11</ele>
  <time>2026-09-01T19:54:50Z</time>
  <course>13.02</course>
  <speed>0.022360679774997897</speed>
  <fix>3d</fix>
</trkpt>
<trkpt lat="-27.2744554" lon="151.2900608">
  <ele>343.09</ele>
  <time>2026-09-01T19:54:50Z</time>
  <course>324.7</course>
  <speed>0.0</speed>
  <fix>3d</fix>
</trkpt>
<trkpt lat="-26.9720619" lon="149.6127921">
  <ele>339.29</ele>
  <time>2026-09-01T19:54:51Z</time>
  <course>310.27</course>
  <speed>0.0</speed>
  <fix>3d</fix>
</trkpt>
<trkpt lat="-26.9720619" lon="149.6127921">
  <ele>339.29</ele>
  <time>2026-09-01T19:54:51Z</time>
  <course>310.27</course>
  <speed>0.0</speed>
  <fix>3d</fix>
</trkpt>
<trkpt lat="-27.274439" lon="151.290064">
  <ele>-0.01</ele>
  <time>2026-09-01T19:54:51Z</time>
  <course>0.19</course>
  <speed>0.0</speed>
  <fix>3d</fix>
</trkpt>
<trkpt lat="-27.274439" lon="151.290064">
  <ele>343.1</ele>
  <time>2026-09-01T19:54:51Z</time>
  <course>294.58</course>
  <speed>0.0</speed>
  <fix>3d</fix>
</trkpt>
<trkpt lat="-27.274439" lon="151.290064">
  <ele>0.02</ele>
  <time>2026-09-01T19:54:51Z</time>
  <course>0.98</course>
  <speed>0.0</speed>
  <fix>3d</fix>
</trkpt>
<trkpt lat="-27.274439" lon="151.290064">
  <ele>343.1</ele>
  <time>2026-09-01T19:54:51Z</time>
  <course>294.58</course>
  <speed>0.0</speed>
  <fix>3d</fix>
</trkpt>
<trkpt lat="-27.274439" lon="151.290064">
  <ele>-0.08</ele>
  <time>2026-09-01T19:54:51Z</time>
  <course>1.4</course>
  <speed>0.0</speed>
  <fix>3d</fix>
</trkpt>
<trkpt lat="-27.274439" lon="151.290064">
  <ele>343.1</ele>
  <time>2026-09-01T19:54:51Z</time>
  <course>273.33</course>
  <speed>0.0</speed>
  <fix>3d</fix>
</trkpt>
<trkpt lat="-27.274439" lon="151.290064">
  <ele>0.22</ele>
  <time>2026-09-01T19:54:51Z</time>
  <course>1.74</course>
  <speed>0.0</speed>
  <fix>3d</fix>
</trkpt>
<trkpt lat="-27.274439" lon="151.290064">
  <ele>343.1</ele>
  <time>2026-09-01T19:54:51Z</time>
  <course>273.33</course>
  <speed>0.0</speed>
  <fix>3d</fix>
</trkpt>
<trkpt lat="-27.274439" lon="151.290064">
  <ele>0.09</ele>
  <time>2026-09-01T19:54:51Z</time>
  <course>2.06</course>
  <speed>0.0</speed>
  <fix>3d</fix>
</trkpt>
<trkpt lat="-27.274439" lon="151.290064">
  <ele>343.1</ele>
  <time>2026-09-01T19:54:51Z</time>
  <course>270.44</course>
  <speed>0.0</speed>
  <fix>3d</fix>
</trkpt>
<trkpt lat="-27.274439" lon="151.290064">
  <ele>0.08</ele>
  <time>2026-09-01T19:54:51Z</time>
  <course>2.39</course>
  <speed>0.0</speed>
  <fix>3d</fix>
</trkpt>
<trkpt lat="-27.274439" lon="151.290064">
  <ele>343.1</ele>
  <time>2026-09-01T19:54:51Z</time>
  <course>270.44</course>
  <speed>0.0</speed>
  <fix>3d</fix>
</trkpt>
<trkpt lat="-27.274439" lon="151.290064">
  <ele>0.09</ele>
  <time>2026-09-01T19:54:51Z</time>
  <course>2.75</course>
  <speed>0.0</speed>
  <fix>3d</fix>
</trkpt>
<trkpt lat="-27.274439" lon="151.290064">
  <ele>343.1</ele>
  <time>2026-09-01T19:54:51Z</time>
  <course>270.05</course>
  <speed>0.0</speed>
  <fix>3d</fix>
</trkpt>
<trkpt lat="-27.274439" lon="151.290064">
  <ele>-0.05</ele>
  <time>2026-09-01T19:54:51Z</time>
  <course>3.17</course>
  <speed>0.0</speed>
  <fix>3d</fix>
</trkpt>
<trkpt lat="-27.274439" lon="151.290064">
  <ele>343.1</ele>
  <time>2026-09-01T19:54:51Z</time>
  <course>270.05</course>
  <speed>0.0</speed>
  <fix>3d</fix>
</trkpt>
<trkpt lat="-27.274439" lon="151.290064">
  <ele>343.06</ele>
  <time>2026-09-01T19:54:51Z</time>
  <course>3.63</course>
  <speed>0.0</speed>
  <fix>3d</fix>
</trkpt>
<trkpt lat="-27.274439" lon="151.290064">
  <ele>343.1</ele>
  <time>2026-09-01T19:54:51Z</time>
  <course>270.0</course>
  <speed>0.0</speed>
  <fix>3d</fix>
</trkpt>
<trkpt lat="-27.274439" lon="151.290064">
  <ele>343.18</ele>
  <time>2026-09-01T19:54:51Z</time>
  <course>4.16</course>
  <speed>0.0</speed>
  <fix>3d</fix>
</trkpt>
<trkpt lat="-27.274439" lon="151.290064">
  <ele>343.1</ele>
  <time>2026-09-01T19:54:51Z</time>
  <course>270.0</course>
  <speed>0.0</speed>
  <fix>3d</fix>
</trkpt>
<trkpt lat="-27.274439" lon="151.290064">
  <ele>342.91</ele>
  <time>2026-09-01T19:54:51Z</time>
  <course>4.71</course>
  <speed>0.0</speed>
  <fix>3d</fix>
</trkpt>
<trkpt lat="-27.274439" lon="151.290064">
  <ele>343.1</ele>
  <time>2026-09-01T19:54:51Z</time>
  <course>270.0</course>
  <speed>0.0</speed>
  <fix>3d</fix>
</trkpt>
<trkpt lat="-27.274439" lon="151.290064">
  <ele>343.06</ele>
  <time>2026-09-01T19:54:51Z</time>
  <course>5.27</course>
  <speed>0.0</speed>
  <fix>3d</fix>
</trkpt>
<trkpt lat="-27.274439" lon="151.290064">
  <ele>343.1</ele>
  <time>2026-09-01T19:54:51Z</time>
  <course>270.0</course>
  <speed>0.0</speed>
  <fix>3d</fix>
</trkpt>
<trkpt lat="-27.274439" lon="151.290064">
  <ele>343.13</ele>
  <time>2026-09-01T19:54:51Z</time>
  <course>5.8</course>
  <speed>0.0</speed>
  <fix>3d</fix>
</trkpt>
<trkpt lat="-27.274439" lon="151.290064">
  <ele>343.1</ele>
  <time>2026-09-01T19:54:51Z</time>
  <course>270.0</course>
  <speed>0.0</speed>
  <fix>3d</fix>
</trkpt>
<trkpt lat="-27.274439" lon="151.290064">
  <ele>343.04</ele>
  <time>2026-09-01T19:54:51Z</time>
  <course>6.29</course>
  <speed>0.0</speed>
  <fix>3d</fix>
</trkpt>
<trkpt lat="-27.274439" lon="151.290064">
  <ele>343.1</ele>
  <time>2026-09-01T19:54:51Z</time>
  <course>270.0</course>
  <speed>0.0</speed>
  <fix>3d</fix>
</trkpt>
<trkpt lat="-27.274439" lon="151.290064">
  <ele>342.88</ele>
  <time>2026-09-01T19:54:51Z</time>
  <course>6.69</course>
  <speed>0.0</speed>
  <fix>3d</fix>
</trkpt>
<trkpt lat="-27.274439" lon="151.290064">
  <ele>343.1</ele>
  <time>2026-09-01T19:54:51Z</time>
  <course>270.0</course>
  <speed>0.0</speed>
  <fix>3d</fix>
</trkpt>
<trkpt lat="-27.274439" lon="151.290064">
  <ele>343.02</ele>
  <time>2026-09-01T19:54:51Z</time>
  <course>7.03</course>
  <speed>0.0</speed>
  <fix>3d</fix>
</trkpt>
<trkpt lat="-27.274439" lon="151.290064">
  <ele>343.1</ele>
  <time>2026-09-01T19:54:51Z</time>
  <course>270.0</course>
  <speed>0.0</speed>
  <fix>3d</fix>
</trkpt>
<trkpt lat="-27.274439" lon="151.290064">
  <ele>343.23</ele>
  <time>2026-09-01T19:54:51Z</time>
  <course>7.34</course>
  <speed>0.0</speed>
  <fix>3d</fix>
</trkpt>
<trkpt lat="-27.274439" lon="151.290064">
  <ele>343.1</ele>
  <time>2026-09-01T19:54:51Z</time>
  <course>270.0</course>
  <speed>0.0</speed>
  <fix>3d</fix>
</trkpt>
<trkpt lat="-27.274439" lon="151.290064">
  <ele>343.17</ele>
  <time>2026-09-01T19:54:51Z</time>
  <course>7.6</course>
  <speed>0.0</speed>
  <fix>3d</fix>
</trkpt>
<trkpt lat="-27.274439" lon="151.290064">
  <ele>343.1</ele>
  <time>2026-09-01T19:54:51Z</time>
  <course>270.0</course>
  <speed>0.0</speed>
  <fix>3d</fix>
</trkpt>
<trkpt lat="-27.274439" lon="151.290064">
  <ele>343.04</ele>
  <time>2026-09-01T19:54:51Z</time>
  <course>7.84</course>
  <speed>0.0</speed>
  <fix>3d</fix>
</trkpt>
<trkpt lat="-27.274439" lon="151.290064">
  <ele>343.1</ele>
  <time>2026-09-01T19:54:51Z</time>
  <course>270.0</course>
  <speed>0.0</speed>
  <fix>3d</fix>
</trkpt>
<trkpt lat="-27.274439" lon="151.290064">
  <ele>342.89</ele>
  <time>2026-09-01T19:54:51Z</time>
  <course>8.07</course>
  <speed>0.0</speed>
  <fix>3d</fix>
</trkpt>
<trkpt lat="-27.274439" lon="151.290064">
  <ele>343.1</ele>
  <time>2026-09-01T19:54:51Z</time>
  <course>270.0</course>
  <speed>0.0</speed>
  <fix>3d</fix>
</trkpt>
<trkpt lat="-27.274439" lon="151.290064">
  <ele>343.08</ele>
  <time>2026-09-01T19:54:51Z</time>
  <course>8.28</course>
  <speed>0.0</speed>
  <fix>3d</fix>
</trkpt>
<trkpt lat="-27.274439" lon="151.290064">
  <ele>343.1</ele>
  <time>2026-09-01T19:54:51Z</time>
  <course>270.0</course>
  <speed>0.0</speed>
  <fix>3d</fix>
</trkpt>
<trkpt lat="-27.274439" lon="151.290064">
  <ele>343.19</ele>
  <time>2026-09-01T19:54:51Z</time>
  <course>8.48</course>
  <speed>0.0</speed>
  <fix>3d</fix>
</trkpt>
<trkpt lat="-27.274439" lon="151.290064">
  <ele>343.1</ele>
  <time>2026-09-01T19:54:51Z</time>
  <course>270.0</course>
  <speed>0.0</speed>
  <fix>3d</fix>
</trkpt>
<trkpt lat="-27.274439" lon="151.290064">
  <ele>342.88</ele>
  <time>2026-09-01T19:54:51Z</time>
  <course>8.67</course>
  <speed>0.0</speed>
  <fix>3d</fix>
</trkpt>
<trkpt lat="-27.274439" lon="151.290064">
  <ele>343.1</ele>
  <time>2026-09-01T19:54:51Z</time>
  <course>270.0</course>
  <speed>0.0</speed>
  <fix>3d</fix>
</trkpt>
<trkpt lat="-27.274439" lon="151.290064">
  <ele>343.17</ele>
  <time>2026-09-01T19:54:51Z</time>
  <course>8.85</course>
  <speed>0.0</speed>
  <fix>3d</fix>
</trkpt>
<trkpt lat="-27.274439" lon="151.290064">
  <ele>343.1</ele>
  <time>2026-09-01T19:54:51Z</time>
  <course>270.0</course>
  <speed>0.0</speed>
  <fix>3d</fix>
</trkpt>
<trkpt lat="-27.274439" lon="151.290064">
  <ele>342.89</ele>
  <time>2026-09-01T19:54:51Z</time>
  <course>9.02</course>
  <speed>0.0</speed>
  <fix>3d</fix>
</trkpt>
<trkpt lat="-27.274439" lon="151.290064">
  <ele>343.1</ele>
  <time>2026-09-01T19:54:51Z</time>
  <course>270.0</course>
  <speed>0.0</speed>
  <fix>3d</fix>
</trkpt>
<trkpt lat="-27.274439" lon="151.290064">
  <ele>342.99</ele>
  <time>2026-09-01T19:54:51Z</time>
  <course>9.18</course>
  <speed>0.0</speed>
  <fix>3d</fix>
</trkpt>
<trkpt lat="-27.274439" lon="151.290064">
  <ele>343.1</ele>
  <time>2026-09-01T19:54:51Z</time>
  <course>270.0</course>
  <speed>0.0</speed>
  <fix>3d</fix>
</trkpt>
<trkpt lat="-27.274439" lon="151.290064">
  <ele>342.87</ele>
  <time>2026-09-01T19:54:51Z</time>
  <course>9.34</course>
  <speed>0.0</speed>
  <fix>3d</fix>
</trkpt>
<trkpt lat="-27.274439" lon="151.290064">
  <ele>343.1</ele>
  <time>2026-09-01T19:54:51Z</time>
  <course>270.0</course>
  <speed>0.0</speed>
  <fix>3d</fix>
</trkpt>
<trkpt lat="-27.274439" lon="151.290064">
  <ele>343.09</ele>
  <time>2026-09-01T19:54:51Z</time>
  <course>9.48</course>
  <speed>0.0</speed>
  <fix>3d</fix>
</trkpt>
<trkpt lat="-27.274439" lon="151.290064">
  <ele>343.1</ele>
  <time>2026-09-01T19:54:51Z</time>
  <course>270.0</course>
  <speed>0.0</speed>
  <fix>3d</fix>
</trkpt>
<trkpt lat="-27.274439" lon="151.290064">
  <ele>343.18</ele>
  <time>2026-09-01T19:54:51Z</time>
  <course>9.61</course>
  <speed>0.0</speed>
  <fix>3d</fix>
</trkpt>
<trkpt lat="-27.274439" lon="151.290064">
  <ele>343.1</ele>
  <time>2026-09-01T19:54:51Z</time>
  <course>270.0</course>
  <speed>0.0</speed>
  <fix>3d</fix>
</trkpt>
<trkpt lat="-27.274439" lon="151.290064">
  <ele>343.05</ele>
  <time>2026-09-01T19:54:51Z</time>
  <course>9.72</course>
  <speed>0.0</speed>
  <fix>3d</fix>
</trkpt>
<trkpt lat="-27.274439" lon="151.290064">
  <ele>343.1</ele>
  <time>2026-09-01T19:54:51Z</time>
  <course>270.0</course>
  <speed>0.0</speed>
  <fix>3d</fix>
</trkpt>
<trkpt lat="-27.274439" lon="151.290064">
  <ele>342.96</ele>
  <time>2026-09-01T19:54:51Z</time>
  <course>9.83</course>
  <speed>0.0</speed>
  <fix>3d</fix>
</trkpt>
<trkpt lat="-27.274439" lon="151.290064">
  <ele>343.1</ele>
  <time>2026-09-01T19:54:51Z</time>
  <course>270.0</course>
  <speed>0.0</speed>
  <fix>3d</fix>
</trkpt>
<trkpt lat="-27.274439" lon="151.290064">
  <ele>343.1</ele>
  <time>2026-09-01T19:54:51Z</time>
  <course>9.93</course>
  <speed>0.0</speed>
  <fix>3d</fix>
</trkpt>
<trkpt lat="-27.274439" lon="151.290064">
  <ele>343.1</ele>
  <time>2026-09-01T19:54:51Z</time>
  <course>270.0</course>
  <speed>0.0</speed>
  <fix>3d</fix>
</trkpt>
<trkpt lat="-27.274439" lon="151.290064">
  <ele>343.22</ele>
  <time>2026-09-01T19:54:51Z</time>
  <course>10.02</course>
  <speed>0.0</speed>
  <fix>3d</fix>
</trkpt>
<trkpt lat="-27.274439" lon="151.290064">
  <ele>343.1</ele>
  <time>2026-09-01T19:54:51Z</time>
  <course>270.0</course>
  <speed>0.0</speed>
  <fix>3d</fix>
</trkpt>
<trkpt lat="-27.274439" lon="151.290064">
  <ele>343.17</ele>
  <time>2026-09-01T19:54:51Z</time>
  <course>10.1</course>
  <speed>0.0</speed>
  <fix>3d</fix>
</trkpt>
<trkpt lat="-27.274439" lon="151.290064">
  <ele>343.1</ele>
  <time>2026-09-01T19:54:51Z</time>
  <course>270.0</course>
  <speed>0.0</speed>
  <fix>3d</fix>
</trkpt>
<trkpt lat="-27.274439" lon="151.290064">
  <ele>343.08</ele>
  <time>2026-09-01T19:54:51Z</time>
  <course>10.17</course>
  <speed>0.0</speed>
  <fix>3d</fix>
</trkpt>
<trkpt lat="-27.274439" lon="151.290064">
  <ele>343.1</ele>
  <time>2026-09-01T19:54:51Z</time>
  <course>270.0</course>
  <speed>0.0</speed>
  <fix>3d</fix>
</trkpt>
<trkpt lat="-27.274439" lon="151.290064">
  <ele>343.04</ele>
  <time>2026-09-01T19:54:51Z</time>
  <course>10.23</course>
  <speed>0.0</speed>
  <fix>3d</fix>
</trkpt>
<trkpt lat="-27.274439" lon="151.290064">
  <ele>343.1</ele>
  <time>2026-09-01T19:54:51Z</time>
  <course>270.0</course>
  <speed>0.0</speed>
  <fix>3d</fix>
</trkpt>
<trkpt lat="-27.274439" lon="151.290064">
  <ele>343.18</ele>
  <time>2026-09-01T19:54:51Z</time>
  <course>10.29</course>
  <speed>0.0</speed>
  <fix>3d</fix>
</trkpt>
<trkpt lat="-27.274439" lon="151.290064">
  <ele>343.1</ele>
  <time>2026-09-01T19:54:51Z</time>
  <course>270.0</course>
  <speed>0.0</speed>
  <fix>3d</fix>
</trkpt>
<trkpt lat="-27.274439" lon="151.290064">
  <ele>343.12</ele>
  <time>2026-09-01T19:54:51Z</time>
  <course>10.34</course>
  <speed>0.0</speed>
  <fix>3d</fix>
</trkpt>
<trkpt lat="-27.274439" lon="151.290064">
  <ele>343.1</ele>
  <time>2026-09-01T19:54:51Z</time>
  <course>270.0</course>
  <speed>0.0</speed>
  <fix>3d</fix>
</trkpt>
<trkpt lat="-27.274439" lon="151.290064">
  <ele>343.04</ele>
  <time>2026-09-01T19:54:51Z</time>
  <course>10.38</course>
  <speed>0.0</speed>
  <fix>3d</fix>
</trkpt>
<trkpt lat="-27.274439" lon="151.290064">
  <ele>343.1</ele>
  <time>2026-09-01T19:54:51Z</time>
  <course>270.0</course>
  <speed>0.0</speed>
  <fix>3d</fix>
</trkpt>
<trkpt lat="-27.274439" lon="151.290064">
  <ele>343.07</ele>
  <time>2026-09-01T19:54:51Z</time>
  <course>10.42</course>
  <speed>0.0</speed>
  <fix>3d</fix>
</trkpt>
<trkpt lat="-27.274439" lon="151.290064">
  <ele>343.1</ele>
  <time>2026-09-01T19:54:51Z</time>
  <course>270.0</course>
  <speed>0.0</speed>
  <fix>3d</fix>
</trkpt>
<trkpt lat="-27.274439" lon="151.290064">
  <ele>343.04</ele>
  <time>2026-09-01T19:54:51Z</time>
  <course>10.45</course>
  <speed>0.0</speed>
  <fix>3d</fix>
</trkpt>
<trkpt lat="-27.274439" lon="151.290064">
  <ele>343.1</ele>
  <time>2026-09-01T19:54:51Z</time>
  <course>270.0</course>
  <speed>0.0</speed>
  <fix>3d</fix>
</trkpt>
<trkpt lat="-27.274439" lon="151.290064">
  <ele>343.01</ele>
  <time>2026-09-01T19:54:51Z</time>
  <course>10.49</course>
  <speed>0.0</speed>
  <fix>3d</fix>
</trkpt>
<trkpt lat="-27.274439" lon="151.290064">
  <ele>343.1</ele>
  <time>2026-09-01T19:54:51Z</time>
  <course>270.0</course>
  <speed>0.0</speed>
  <fix>3d</fix>
</trkpt>
<trkpt lat="-27.274439" lon="151.290064">
  <ele>343.2</ele>
  <time>2026-09-01T19:54:51Z</time>
  <course>10.51</course>
  <speed>0.0</speed>
  <fix>3d</fix>
</trkpt>
<trkpt lat="-27.274439" lon="151.290064">
  <ele>343.1</ele>
  <time>2026-09-01T19:54:51Z</time>
  <course>270.0</course>
  <speed>0.0</speed>
  <fix>3d</fix>
</trkpt>
<trkpt lat="-27.274439" lon="151.290064">
  <ele>343.24</ele>
  <time>2026-09-01T19:54:51Z</time>
  <course>10.54</course>
  <speed>0.0</speed>
  <fix>3d</fix>
</trkpt>
<trkpt lat="-27.274439" lon="151.290064">
  <ele>343.1</ele>
  <time>2026-09-01T19:54:51Z</time>
  <course>270.0</course>
  <speed>0.0</speed>
  <fix>3d</fix>
</trkpt>
<trkpt lat="-27.274439" lon="151.290064">
  <ele>342.88</ele>
  <time>2026-09-01T19:54:51Z</time>
  <course>10.56</course>
  <speed>0.0</speed>
  <fix>3d</fix>
</trkpt>
<trkpt lat="-27.274439" lon="151.290064">
  <ele>343.1</ele>
  <time>2026-09-01T19:54:51Z</time>
  <course>270.0</course>
  <speed>0.0</speed>
  <fix>3d</fix>
</trkpt>
<trkpt lat="-27.274439" lon="151.290064">
  <ele>343.21</ele>
  <time>2026-09-01T19:54:51Z</time>
  <course>10.59</course>
  <speed>0.0</speed>
  <fix>3d</fix>
</trkpt>
<trkpt lat="-27.274439" lon="151.290064">
  <ele>343.1</ele>
  <time>2026-09-01T19:54:51Z</time>
  <course>270.0</course>
  <speed>0.0</speed>
  <fix>3d</fix>
</trkpt>
<trkpt lat="-27.274439" lon="151.290064">
  <ele>343.02</ele>
  <time>2026-09-01T19:54:51Z</time>
  <course>10.6</course>
  <speed>0.0</speed>
  <fix>3d</fix>
</trkpt>
<trkpt lat="-27.274439" lon="151.290064">
  <ele>343.1</ele>
  <time>2026-09-01T19:54:51Z</time>
  <course>270.0</course>
  <speed>0.0</speed>
  <fix>3d</fix>
</trkpt>
<trkpt lat="-27.274439" lon="151.290064">
  <ele>342.93</ele>
  <time>2026-09-01T19:54:51Z</time>
  <course>10.62</course>
  <speed>0.0</speed>
  <fix>3d</fix>
</trkpt>
<trkpt lat="-27.274439" lon="151.290064">
  <ele>343.1</ele>
  <time>2026-09-01T19:54:51Z</time>
  <course>270.0</course>
  <speed>0.0</speed>
  <fix>3d</fix>
</trkpt>
<trkpt lat="-27.274439" lon="151.290064">
  <ele>343.07</ele>
  <time>2026-09-01T19:54:51Z</time>
  <course>10.64</course>
  <speed>0.0</speed>
  <fix>3d</fix>
</trkpt>
<trkpt lat="-27.274439" lon="151.290064">
  <ele>343.1</ele>
  <time>2026-09-01T19:54:51Z</time>
  <course>270.0</course>
  <speed>0.0</speed>
  <fix>3d</fix>
</trkpt>
<trkpt lat="-27.274439" lon="151.290064">
  <ele>342.94</ele>
  <time>2026-09-01T19:54:51Z</time>
  <course>10.65</course>
  <speed>0.0</speed>
  <fix>3d</fix>
</trkpt>
<trkpt lat="-27.274439" lon="151.290064">
  <ele>343.1</ele>
  <time>2026-09-01T19:54:51Z</time>
  <course>270.0</course>
  <speed>0.0</speed>
  <fix>3d</fix>
</trkpt>
<trkpt lat="-27.274439" lon="151.290064">
  <ele>343.11</ele>
  <time>2026-09-01T19:54:51Z</time>
  <course>10.67</course>
  <speed>0.0</speed>
  <fix>3d</fix>
</trkpt>
<trkpt lat="-27.274439" lon="151.290064">
  <ele>343.1</ele>
  <time>2026-09-01T19:54:51Z</time>
  <course>270.0</course>
  <speed>0.0</speed>
  <fix>3d</fix>
</trkpt>
<trkpt lat="-27.274439" lon="151.290064">
  <ele>343.24</ele>
  <time>2026-09-01T19:54:51Z</time>
  <course>10.68</course>
  <speed>0.0</speed>
  <fix>3d</fix>
</trkpt>
<trkpt lat="-27.274439" lon="151.290064">
  <ele>343.1</ele>
  <time>2026-09-01T19:54:51Z</time>
  <course>270.0</course>
  <speed>0.0</speed>
  <fix>3d</fix>
</trkpt>
<trkpt lat="-27.274439" lon="151.290064">
  <ele>343.18</ele>
  <time>2026-09-01T19:54:51Z</time>
  <course>10.69</course>
  <speed>0.0</speed>
  <fix>3d</fix>
</trkpt>
<trkpt lat="-27.274439" lon="151.290064">
  <ele>343.1</ele>
  <time>2026-09-01T19:54:51Z</time>
  <course>270.0</course>
  <speed>0.0</speed>
  <fix>3d</fix>
</trkpt>
<trkpt lat="-27.274439" lon="151.290064">
  <ele>342.89</ele>
  <time>2026-09-01T19:54:51Z</time>
  <course>10.7</course>
  <speed>0.0</speed>
  <fix>3d</fix>
</trkpt>
<trkpt lat="-27.274439" lon="151.290064">
  <ele>343.1</ele>
  <time>2026-09-01T19:54:51Z</time>
  <course>270.0</course>
  <speed>0.0</speed>
  <fix>3d</fix>
</trkpt>
<trkpt lat="-27.274439" lon="151.290064">
  <ele>343.23</ele>
  <time>2026-09-01T19:54:51Z</time>
  <course>10.71</course>
  <speed>0.0</speed>
  <fix>3d</fix>
</trkpt>
<trkpt lat="-27.274439" lon="151.290064">
  <ele>343.1</ele>
  <time>2026-09-01T19:54:51Z</time>
  <course>270.0</course>
  <speed>0.0</speed>
  <fix>3d</fix>
</trkpt>
<trkpt lat="-27.274439" lon="151.290064">
  <ele>343.23</ele>
  <time>2026-09-01T19:54:51Z</time>
  <course>10.72</course>
  <speed>0.0</speed>
  <fix>3d</fix>
</trkpt>
<trkpt lat="-27.274439" lon="151.290064">
  <ele>343.1</ele>
  <time>2026-09-01T19:54:51Z</time>
  <course>270.0</course>
  <speed>0.0</speed>
  <fix>3d</fix>
</trkpt>
<trkpt lat="-27.274439" lon="151.290064">
  <ele>342.99</ele>
  <time>2026-09-01T19:54:51Z</time>
  <course>10.73</course>
  <speed>0.0</speed>
  <fix>3d</fix>
</trkpt>
<trkpt lat="-27.274439" lon="151.290064">
  <ele>343.1</ele>
  <time>2026-09-01T19:54:51Z</time>
  <course>270.0</course>
  <speed>0.0</speed>
  <fix>3d</fix>
</trkpt>
<trkpt lat="-27.274439" lon="151.290064">
  <ele>343.13</ele>
  <time>2026-09-01T19:54:51Z</time>
  <course>10.73</course>
  <speed>0.0</speed>
  <fix>3d</fix>
</trkpt>
<trkpt lat="-27.274439" lon="151.290064">
  <ele>343.1</ele>
  <time>2026-09-01T19:54:51Z</time>
  <course>270.0</course>
  <speed>0.0</speed>
  <fix>3d</fix>
</trkpt>
<trkpt lat="-27.274439" lon="151.290064">
  <ele>343.07</ele>
  <time>2026-09-01T19:54:51Z</time>
  <course>10.74</course>
  <speed>0.0</speed>
  <fix>3d</fix>
</trkpt>
<trkpt lat="-27.274439" lon="151.290064">
  <ele>343.1</ele>
  <time>2026-09-01T19:54:51Z</time>
  <course>270.0</course>
  <speed>0.0</speed>
  <fix>3d</fix>
</trkpt>
<trkpt lat="-27.274439" lon="151.290064">
  <ele>343.19</ele>
  <time>2026-09-01T19:54:51Z</time>
  <course>10.74</course>
  <speed>0.0</speed>
  <fix>3d</fix>
</trkpt>
<trkpt lat="-27.274439" lon="151.290064">
  <ele>343.1</ele>
  <time>2026-09-01T19:54:51Z</time>
  <course>270.0</course>
  <speed>0.0</speed>
  <fix>3d</fix>
</trkpt>
<trkpt lat="-27.274439" lon="151.290064">
  <ele>342.93</ele>
  <time>2026-09-01T19:54:51Z</time>
  <course>10.75</course>
  <speed>0.0</speed>
  <fix>3d</fix>
</trkpt>
<trkpt lat="-27.274439" lon="151.290064">
  <ele>343.1</ele>
  <time>2026-09-01T19:54:51Z</time>
  <course>270.0</course>
  <speed>0.0</speed>
  <fix>3d</fix>
</trkpt>
<trkpt lat="-27.274439" lon="151.290064">
  <ele>343.19</ele>
  <time>2026-09-01T19:54:51Z</time>
  <course>10.75</course>
  <speed>0.0</speed>
  <fix>3d</fix>
</trkpt>
<trkpt lat="-27.274439" lon="151.290064">
  <ele>343.1</ele>
  <time>2026-09-01T19:54:51Z</time>
  <course>270.0</course>
  <speed>0.0</speed>
  <fix>3d</fix>
</trkpt>
<trkpt lat="-27.274439" lon="151.290064">
  <ele>343.1</ele>
  <time>2026-09-01T19:54:51Z</time>
  <course>10.76</course>
  <speed>0.0</speed>
  <fix>3d</fix>
</trkpt>
<trkpt lat="-27.274439" lon="151.290064">
  <ele>343.1</ele>
  <time>2026-09-01T19:54:51Z</time>
  <course>270.0</course>
  <speed>0.0</speed>
  <fix>3d</fix>
</trkpt>
<trkpt lat="-27.274439" lon="151.290064">
  <ele>343.01</ele>
  <time>2026-09-01T19:54:51Z</time>
  <course>10.76</course>
  <speed>0.0</speed>
  <fix>3d</fix>
</trkpt>
<trkpt lat="-27.274439" lon="151.290064">
  <ele>343.1</ele>
  <time>2026-09-01T19:54:51Z</time>
  <course>270.0</course>
  <speed>0.0</speed>
  <fix>3d</fix>
</trkpt>
<trkpt lat="-27.274439" lon="151.290064">
  <ele>343.11</ele>
  <time>2026-09-01T19:54:51Z</time>
  <course>10.76</course>
  <speed>0.0</speed>
  <fix>3d</fix>
</trkpt>
<trkpt lat="-27.274439" lon="151.290064">
  <ele>343.1</ele>
  <time>2026-09-01T19:54:51Z</time>
  <course>270.0</course>
  <speed>0.0</speed>
  <fix>3d</fix>
</trkpt>
<trkpt lat="-27.274439" lon="151.290064">
  <ele>342.96</ele>
  <time>2026-09-01T19:54:51Z</time>
  <course>10.77</course>
  <speed>0.0</speed>
  <fix>3d</fix>
</trkpt>
<trkpt lat="-27.274439" lon="151.290064">
  <ele>343.1</ele>
  <time>2026-09-01T19:54:51Z</time>
  <course>270.0</course>
  <speed>0.0</speed>
  <fix>3d</fix>
</trkpt>
<trkpt lat="-27.274439" lon="151.290064">
  <ele>343.19</ele>
  <time>2026-09-01T19:54:51Z</time>
  <course>10.77</course>
  <speed>0.0</speed>
  <fix>3d</fix>
</trkpt>
<trkpt lat="-27.274439" lon="151.290064">
  <ele>343.1</ele>
  <time>2026-09-01T19:54:51Z</time>
  <course>270.0</course>
  <speed>0.0</speed>
  <fix>3d</fix>
</trkpt>
<trkpt lat="-27.274439" lon="151.290064">
  <ele>343.0</ele>
  <time>2026-09-01T19:54:51Z</time>
  <course>10.77</course>
  <speed>0.0</speed>
  <fix>3d</fix>
</trkpt>
<trkpt lat="-27.274439" lon="151.290064">
  <ele>343.1</ele>
  <time>2026-09-01T19:54:51Z</time>
  <course>270.0</course>
  <speed>0.0</speed>
  <fix>3d</fix>
</trkpt>
<trkpt lat="-27.274439" lon="151.290064">
  <ele>343.2</ele>
  <time>2026-09-01T19:54:51Z</time>
  <course>10.77</course>
  <speed>0.0</speed>
  <fix>3d</fix>
</trkpt>
<trkpt lat="-27.274439" lon="151.290064">
  <ele>343.1</ele>
  <time>2026-09-01T19:54:51Z</time>
  <course>270.0</course>
  <speed>0.0</speed>
  <fix>3d</fix>
</trkpt>
<trkpt lat="-27.274439" lon="151.290064">
  <ele>343.2</ele>
  <time>2026-09-01T19:54:51Z</time>
  <course>10.78</course>
  <speed>0.0</speed>
  <fix>3d</fix>
</trkpt>
<trkpt lat="-27.274439" lon="151.290064">
  <ele>343.1</ele>
  <time>2026-09-01T19:54:51Z</time>
  <course>270.0</course>
  <speed>0.0</speed>
  <fix>3d</fix>
</trkpt>
<trkpt lat="-27.274439" lon="151.290064">
  <ele>343.13</ele>
  <time>2026-09-01T19:54:51Z</time>
  <course>10.78</course>
  <speed>0.0</speed>
  <fix>3d</fix>
</trkpt>
<trkpt lat="-27.274439" lon="151.290064">
  <ele>343.1</ele>
  <time>2026-09-01T19:54:51Z</time>
  <course>270.0</course>
  <speed>0.0</speed>
  <fix>3d</fix>
</trkpt>
<trkpt lat="-27.274439" lon="151.290064">
  <ele>343.1</ele>
  <time>2026-09-01T19:54:51Z</time>
  <course>10.78</course>
  <speed>0.0</speed>
  <fix>3d</fix>
</trkpt>
<trkpt lat="-27.274439" lon="151.290064">
  <ele>343.1</ele>
  <time>2026-09-01T19:54:51Z</time>
  <course>270.0</course>
  <speed>0.0</speed>
  <fix>3d</fix>
</trkpt>
<trkpt lat="-27.274439" lon="151.290064">
  <ele>343.12</ele>
  <time>2026-09-01T19:54:51Z</time>
  <course>10.78</course>
  <speed>0.0</speed>
  <fix>3d</fix>
</trkpt>
<trkpt lat="-27.274439" lon="151.290064">
  <ele>343.1</ele>
  <time>2026-09-01T19:54:51Z</time>
  <course>270.0</course>
  <speed>0.0</speed>
  <fix>3d</fix>
</trkpt>
<trkpt lat="-27.274439" lon="151.290064">
  <ele>342.94</ele>
  <time>2026-09-01T19:54:52Z</time>
  <course>10.78</course>
  <speed>0.0</speed>
  <fix>3d</fix>
</trkpt>
<trkpt lat="-27.274439" lon="151.290064">
  <ele>343.1</ele>
  <time>2026-09-01T19:54:52Z</time>
  <course>270.0</course>
  <speed>0.0</speed>
  <fix>3d</fix>
</trkpt>
<trkpt lat="-27.274439" lon="151.290064">
  <ele>343.25</ele>
  <time>2026-09-01T19:54:52Z</time>
  <course>10.78</course>
  <speed>0.0</speed>
  <fix>3d</fix>
</trkpt>
<trkpt lat="-27.274439" lon="151.290064">
  <ele>343.1</ele>
  <time>2026-09-01T19:54:52Z</time>
  <course>270.0</course>
  <speed>0.0</speed>
  <fix>3d</fix>
</trkpt>
<trkpt lat="-27.274439" lon="151.290064">
  <ele>342.93</ele>
  <time>2026-09-01T19:54:52Z</time>
  <course>10.78</course>
  <speed>0.0</speed>
  <fix>3d</fix>
</trkpt>
<trkpt lat="-27.274439" lon="151.290064">
  <ele>343.1</ele>
  <time>2026-09-01T19:54:52Z</time>
  <course>270.0</course>
  <speed>0.0</speed>
  <fix>3d</fix>
</trkpt>
<trkpt lat="-27.274439" lon="151.290064">
  <ele>343.08</ele>
  <time>2026-09-01T19:54:52Z</time>
  <course>10.79</course>
  <speed>0.0</speed>
  <fix>3d</fix>
</trkpt>
<trkpt lat="-27.274439" lon="151.290064">
  <ele>343.1</ele>
  <time>2026-09-01T19:54:52Z</time>
  <course>270.0</course>
  <speed>0.0</speed>
  <fix>3d</fix>
</trkpt>
<trkpt lat="-27.274439" lon="151.290064">
  <ele>343.23</ele>
  <time>2026-09-01T19:54:52Z</time>
  <course>10.79</course>
  <speed>0.0</speed>
  <fix>3d</fix>
</trkpt>
<trkpt lat="-27.274439" lon="151.290064">
  <ele>343.1</ele>
  <time>2026-09-01T19:54:52Z</time>
  <course>270.0</course>
  <speed>0.0</speed>
  <fix>3d</fix>
</trkpt>
<trkpt lat="-27.274439" lon="151.290064">
  <ele>343.01</ele>
  <time>2026-09-01T19:54:52Z</time>
  <course>10.79</course>
  <speed>0.0</speed>
  <fix>3d</fix>
</trkpt>
<trkpt lat="-27.274439" lon="151.290064">
  <ele>343.1</ele>
  <time>2026-09-01T19:54:52Z</time>
  <course>270.0</course>
  <speed>0.0</speed>
  <fix>3d</fix>
</trkpt>
<trkpt lat="-27.274439" lon="151.290064">
  <ele>343.1</ele>
  <time>2026-09-01T19:54:52Z</time>
  <course>10.79</course>
  <speed>0.0</speed>
  <fix>3d</fix>
</trkpt>
<trkpt lat="-27.274439" lon="151.290064">
  <ele>343.1</ele>
  <time>2026-09-01T19:54:52Z</time>
  <course>270.0</course>
  <speed>0.0</speed>
  <fix>3d</fix>
</trkpt>
<trkpt lat="-27.274439" lon="151.290064">
  <ele>342.99</ele>
  <time>2026-09-01T19:54:52Z</time>
  <course>10.79</course>
  <speed>0.0</speed>
  <fix>3d</fix>
</trkpt>
<trkpt lat="-27.274439" lon="151.290064">
  <ele>343.1</ele>
  <time>2026-09-01T19:54:52Z</time>
  <course>270.0</course>
  <speed>0.0</speed>
  <fix>3d</fix>
</trkpt>
<trkpt lat="-27.274439" lon="151.290064">
  <ele>342.87</ele>
  <time>2026-09-01T19:54:52Z</time>
  <course>10.79</course>
  <speed>0.0</speed>
  <fix>3d</fix>
</trkpt>
<trkpt lat="-27.274439" lon="151.290064">
  <ele>343.1</ele>
  <time>2026-09-01T19:54:52Z</time>
  <course>270.0</course>
  <speed>0.0</speed>
  <fix>3d</fix>
</trkpt>
<trkpt lat="-27.274439" lon="151.290064">
  <ele>343.1</ele>
  <time>2026-09-01T19:54:52Z</time>
  <course>10.79</course>
  <speed>0.0</speed>
  <fix>3d</fix>
</trkpt>
<trkpt lat="-27.274439" lon="151.290064">
  <ele>343.1</ele>
  <time>2026-09-01T19:54:52Z</time>
  <course>270.0</course>
  <speed>0.0</speed>
  <fix>3d</fix>
</trkpt>
<trkpt lat="-27.274439" lon="151.290064">
  <ele>342.99</ele>
  <time>2026-09-01T19:54:52Z</time>
  <course>10.79</course>
  <speed>0.0</speed>
  <fix>3d</fix>
</trkpt>
<trkpt lat="-27.274439" lon="151.290064">
  <ele>343.1</ele>
  <time>2026-09-01T19:54:52Z</time>
  <course>270.0</course>
  <speed>0.0</speed>
  <fix>3d</fix>
</trkpt>
<trkpt lat="-27.274439" lon="151.290064">
  <ele>342.91</ele>
  <time>2026-09-01T19:54:52Z</time>
  <course>10.79</course>
  <speed>0.0</speed>
  <fix>3d</fix>
</trkpt>
<trkpt lat="-27.274439" lon="151.290064">
  <ele>343.1</ele>
  <time>2026-09-01T19:54:52Z</time>
  <course>270.0</course>
  <speed>0.0</speed>
  <fix>3d</fix>
</trkpt>
<trkpt lat="-27.274439" lon="151.290064">
  <ele>342.9</ele>
  <time>2026-09-01T19:54:52Z</time>
  <course>10.8</course>
  <speed>0.0</speed>
  <fix>3d</fix>
</trkpt>
<trkpt lat="-27.274439" lon="151.290064">
  <ele>343.1</ele>
  <time>2026-09-01T19:54:52Z</time>
  <course>270.0</course>
  <speed>0.0</speed>
  <fix>3d</fix>
</trkpt>
<trkpt lat="-27.274439" lon="151.290064">
  <ele>342.87</ele>
  <time>2026-09-01T19:54:52Z</time>
  <course>10.8</course>
  <speed>0.0</speed>
  <fix>3d</fix>
</trkpt>
<trkpt lat="-27.274439" lon="151.290064">
  <ele>343.1</ele>
  <time>2026-09-01T19:54:52Z</time>
  <course>270.0</course>
  <speed>0.0</speed>
  <fix>3d</fix>
</trkpt>
<trkpt lat="-27.274439" lon="151.290064">
  <ele>343.12</ele>
  <time>2026-09-01T19:54:52Z</time>
  <course>10.8</course>
  <speed>0.0</speed>
  <fix>3d</fix>
</trkpt>
<trkpt lat="-27.274439" lon="151.290064">
  <ele>343.1</ele>
  <time>2026-09-01T19:54:52Z</time>
  <course>270.0</course>
  <speed>0.0</speed>
  <fix>3d</fix>
</trkpt>
<trkpt lat="-27.274439" lon="151.290064">
  <ele>342.99</ele>
  <time>2026-09-01T19:54:52Z</time>
  <course>10.8</course>
  <speed>0.0</speed>
  <fix>3d</fix>
</trkpt>
<trkpt lat="-27.274439" lon="151.290064">
  <ele>343.1</ele>
  <time>2026-09-01T19:54:52Z</time>
  <course>270.0</course>
  <speed>0.0</speed>
  <fix>3d</fix>
</trkpt>
<trkpt lat="-27.274439" lon="151.290064">
  <ele>343.13</ele>
  <time>2026-09-01T19:54:52Z</time>
  <course>10.8</course>
  <speed>0.0</speed>
  <fix>3d</fix>
</trkpt>
<trkpt lat="-27.274439" lon="151.290064">
  <ele>343.1</ele>
  <time>2026-09-01T19:54:52Z</time>
  <course>270.0</course>
  <speed>0.0</speed>
  <fix>3d</fix>
</trkpt>
<trkpt lat="-27.274439" lon="151.290064">
  <ele>343.0</ele>
  <time>2026-09-01T19:54:52Z</time>
  <course>10.8</course>
  <speed>0.0</speed>
  <fix>3d</fix>
</trkpt>
<trkpt lat="-27.274439" lon="151.290064">
  <ele>343.1</ele>
  <time>2026-09-01T19:54:52Z</time>
  <course>270.0</course>
  <speed>0.0</speed>
  <fix>3d</fix>
</trkpt>
<trkpt lat="-27.274439" lon="151.290064">
  <ele>343.17</ele>
  <time>2026-09-01T19:54:52Z</time>
  <course>10.8</course>
  <speed>0.0</speed>
  <fix>3d</fix>
</trkpt>
<trkpt lat="-27.274439" lon="151.290064">
  <ele>343.1</ele>
  <time>2026-09-01T19:54:52Z</time>
  <course>270.0</course>
  <speed>0.0</speed>
  <fix>3d</fix>
</trkpt>
<trkpt lat="-27.274439" lon="151.290064">
  <ele>343.0</ele>
  <time>2026-09-01T19:54:52Z</time>
  <course>10.8</course>
  <speed>0.0</speed>
  <fix>3d</fix>
</trkpt>
<trkpt lat="-27.274439" lon="151.290064">
  <ele>343.1</ele>
  <time>2026-09-01T19:54:52Z</time>
  <course>270.0</course>
  <speed>0.0</speed>
  <fix>3d</fix>
</trkpt>
<trkpt lat="-27.274439" lon="151.290064">
  <ele>342.99</ele>
  <time>2026-09-01T19:54:52Z</time>
  <course>10.8</course>
  <speed>0.0</speed>
  <fix>3d</fix>
</trkpt>
<trkpt lat="-27.274439" lon="151.290064">
  <ele>343.1</ele>
  <time>2026-09-01T19:54:52Z</time>
  <course>270.0</course>
  <speed>0.0</speed>
  <fix>3d</fix>
</trkpt>
<trkpt lat="-27.274439" lon="151.290064">
  <ele>343.17</ele>
  <time>2026-09-01T19:54:52Z</time>
  <course>10.8</course>
  <speed>0.0</speed>
  <fix>3d</fix>
</trkpt>
<trkpt lat="-27.274439" lon="151.290064">
  <ele>343.1</ele>
  <time>2026-09-01T19:54:52Z</time>
  <course>270.0</course>
  <speed>0.0</speed>
  <fix>3d</fix>
</trkpt>
<trkpt lat="-27.274439" lon="151.290064">
  <ele>343.16</ele>
  <time>2026-09-01T19:54:52Z</time>
  <course>10.8</course>
  <speed>0.0</speed>
  <fix>3d</fix>
</trkpt>
<trkpt lat="-27.274439" lon="151.290064">
  <ele>343.1</ele>
  <time>2026-09-01T19:54:52Z</time>
  <course>270.0</course>
  <speed>0.0</speed>
  <fix>3d</fix>
</trkpt>
<trkpt lat="-27.274439" lon="151.290064">
  <ele>342.87</ele>
  <time>2026-09-01T19:54:52Z</time>
  <course>10.8</course>
  <speed>0.0</speed>
  <fix>3d</fix>
</trkpt>
<trkpt lat="-27.274439" lon="151.290064">
  <ele>343.1</ele>
  <time>2026-09-01T19:54:52Z</time>
  <course>270.0</course>
  <speed>0.0</speed>
  <fix>3d</fix>
</trkpt>
<trkpt lat="-27.274439" lon="151.290064">
  <ele>343.19</ele>
  <time>2026-09-01T19:54:52Z</time>
  <course>10.8</course>
  <speed>0.0</speed>
  <fix>3d</fix>
</trkpt>
<trkpt lat="-27.274439" lon="151.290064">
  <ele>343.1</ele>
  <time>2026-09-01T19:54:52Z</time>
  <course>270.0</course>
  <speed>0.0</speed>
  <fix>3d</fix>
</trkpt>
<trkpt lat="-27.274439" lon="151.290064">
  <ele>343.16</ele>
  <time>2026-09-01T19:54:52Z</time>
  <course>10.8</course>
  <speed>0.0</speed>
  <fix>3d</fix>
</trkpt>
<trkpt lat="-27.274439" lon="151.290064">
  <ele>343.1</ele>
  <time>2026-09-01T19:54:52Z</time>
  <course>270.0</course>
  <speed>0.0</speed>
  <fix>3d</fix>
</trkpt>
<trkpt lat="-27.274439" lon="151.290064">
  <ele>343.21</ele>
  <time>2026-09-01T19:54:52Z</time>
  <course>10.8</course>
  <speed>0.0</speed>
  <fix>3d</fix>
</trkpt>
<trkpt lat="-27.274439" lon="151.290064">
  <ele>343.1</ele>
  <time>2026-09-01T19:54:52Z</time>
  <course>270.0</course>
  <speed>0.0</speed>
  <fix>3d</fix>
</trkpt>
<trkpt lat="-27.274439" lon="151.290064">
  <ele>343.22</ele>
  <time>2026-09-01T19:54:52Z</time>
  <course>10.8</course>
  <speed>0.0</speed>
  <fix>3d</fix>
</trkpt>
<trkpt lat="-27.274439" lon="151.290064">
  <ele>343.1</ele>
  <time>2026-09-01T19:54:52Z</time>
  <course>270.0</course>
  <speed>0.0</speed>
  <fix>3d</fix>
</trkpt>
<trkpt lat="-27.274439" lon="151.290064">
  <ele>343.12</ele>
  <time>2026-09-01T19:54:52Z</time>
  <course>10.8</course>
  <speed>0.0</speed>
  <fix>3d</fix>
</trkpt>
<trkpt lat="-27.274439" lon="151.290064">
  <ele>343.1</ele>
  <time>2026-09-01T19:54:52Z</time>
  <course>270.0</course>
  <speed>0.0</speed>
  <fix>3d</fix>
</trkpt>
<trkpt lat="-27.274439" lon="151.290064">
  <ele>342.88</ele>
  <time>2026-09-01T19:54:52Z</time>
  <course>10.8</course>
  <speed>0.0</speed>
  <fix>3d</fix>
</trkpt>
<trkpt lat="-27.274439" lon="151.290064">
  <ele>343.1</ele>
  <time>2026-09-01T19:54:52Z</time>
  <course>270.0</course>
  <speed>0.0</speed>
  <fix>3d</fix>
</trkpt>
<trkpt lat="-27.274439" lon="151.290064">
  <ele>342.97</ele>
  <time>2026-09-01T19:54:52Z</time>
  <course>10.8</course>
  <speed>0.0</speed>
  <fix>3d</fix>
</trkpt>
<trkpt lat="-27.274439" lon="151.290064">
  <ele>343.1</ele>
  <time>2026-09-01T19:54:52Z</time>
  <course>270.0</course>
  <speed>0.0</speed>
  <fix>3d</fix>
</trkpt>
<trkpt lat="-27.274439" lon="151.290064">
  <ele>342.92</ele>
  <time>2026-09-01T19:54:52Z</time>
  <course>10.8</course>
  <speed>0.0</speed>
  <fix>3d</fix>
</trkpt>
<trkpt lat="-27.274439" lon="151.290064">
  <ele>343.1</ele>
  <time>2026-09-01T19:54:52Z</time>
  <course>270.0</course>
  <speed>0.0</speed>
  <fix>3d</fix>
</trkpt>
<trkpt lat="-27.274439" lon="151.290064">
  <ele>342.74</ele>
  <time>2026-09-01T19:54:52Z</time>
  <course>10.8</course>
  <speed>0.0</speed>
  <fix>3d</fix>
</trkpt>
<trkpt lat="-27.274439" lon="151.290064">
  <ele>343.1</ele>
  <time>2026-09-01T19:54:52Z</time>
  <course>270.0</course>
  <speed>0.0</speed>
  <fix>3d</fix>
</trkpt>
<trkpt lat="-27.274439" lon="151.290064">
  <ele>342.8</ele>
  <time>2026-09-01T19:54:52Z</time>
  <course>10.8</course>
  <speed>0.0</speed>
  <fix>3d</fix>
</trkpt>
<trkpt lat="-27.274439" lon="151.290064">
  <ele>343.1</ele>
  <time>2026-09-01T19:54:52Z</time>
  <course>270.0</course>
  <speed>0.0</speed>
  <fix>3d</fix>
</trkpt>
<trkpt lat="-27.274439" lon="151.290064">
  <ele>342.83</ele>
  <time>2026-09-01T19:54:52Z</time>
  <course>10.8</course>
  <speed>0.0</speed>
  <fix>3d</fix>
</trkpt>
<trkpt lat="-27.274439" lon="151.290064">
  <ele>343.1</ele>
  <time>2026-09-01T19:54:52Z</time>
  <course>270.0</course>
  <speed>0.0</speed>
  <fix>3d</fix>
</trkpt>
<trkpt lat="-27.274439" lon="151.290064">
  <ele>343.03</ele>
  <time>2026-09-01T19:54:52Z</time>
  <course>10.8</course>
  <speed>0.0</speed>
  <fix>3d</fix>
</trkpt>
<trkpt lat="-27.274439" lon="151.290064">
  <ele>343.1</ele>
  <time>2026-09-01T19:54:52Z</time>
  <course>270.0</course>
  <speed>0.0</speed>
  <fix>3d</fix>
</trkpt>
<trkpt lat="-27.274439" lon="151.290064">
  <ele>343.04</ele>
  <time>2026-09-01T19:54:52Z</time>
  <course>10.8</course>
  <speed>0.0</speed>
  <fix>3d</fix>
</trkpt>
<trkpt lat="-27.274439" lon="151.290064">
  <ele>343.1</ele>
  <time>2026-09-01T19:54:52Z</time>
  <course>270.0</course>
  <speed>0.0</speed>
  <fix>3d</fix>
</trkpt>
<trkpt lat="-27.274439" lon="151.290064">
  <ele>343.07</ele>
  <time>2026-09-01T19:54:52Z</time>
  <course>10.81</course>
  <speed>0.0</speed>
  <fix>3d</fix>
</trkpt>
<trkpt lat="-27.274439" lon="151.290064">
  <ele>343.1</ele>
  <time>2026-09-01T19:54:52Z</time>
  <course>270.0</course>
  <speed>0.0</speed>
  <fix>3d</fix>
</trkpt>
<trkpt lat="-27.274439" lon="151.290064">
  <ele>343.01</ele>
  <time>2026-09-01T19:54:52Z</time>
  <course>10.82</course>
  <speed>0.0</speed>
  <fix>3d</fix>
</trkpt>
<trkpt lat="-27.274439" lon="151.290064">
  <ele>343.1</ele>
  <time>2026-09-01T19:54:52Z</time>
  <course>270.0</course>
  <speed>0.0</speed>
  <fix>3d</fix>
</trkpt>
<trkpt lat="-27.274439" lon="151.290064">
  <ele>342.88</ele>
  <time>2026-09-01T19:54:52Z</time>
  <course>10.83</course>
  <speed>0.0</speed>
  <fix>3d</fix>
</trkpt>
<trkpt lat="-27.274439" lon="151.290064">
  <ele>343.1</ele>
  <time>2026-09-01T19:54:52Z</time>
  <course>270.0</course>
  <speed>0.0</speed>
  <fix>3d</fix>
</trkpt>
<trkpt lat="-27.274439" lon="151.290064">
  <ele>343.12</ele>
  <time>2026-09-01T19:54:52Z</time>
  <course>10.84</course>
  <speed>0.0</speed>
  <fix>3d</fix>
</trkpt>
<trkpt lat="-27.274439" lon="151.290064">
  <ele>343.1</ele>
  <time>2026-09-01T19:54:52Z</time>
  <course>270.0</course>
  <speed>0.0</speed>
  <fix>3d</fix>
</trkpt>
<trkpt lat="-27.274439" lon="151.290064">
  <ele>342.88</ele>
  <time>2026-09-01T19:54:52Z</time>
  <course>10.85</course>
  <speed>0.0</speed>
  <fix>3d</fix>
</trkpt>
<trkpt lat="-27.274439" lon="151.290064">
  <ele>343.1</ele>
  <time>2026-09-01T19:54:52Z</time>
  <course>270.0</course>
  <speed>0.0</speed>
  <fix>3d</fix>
</trkpt>
<trkpt lat="-27.274439" lon="151.290064">
  <ele>343.02</ele>
  <time>2026-09-01T19:54:52Z</time>
  <course>10.86</course>
  <speed>0.0</speed>
  <fix>3d</fix>
</trkpt>
<trkpt lat="-27.274439" lon="151.290064">
  <ele>343.1</ele>
  <time>2026-09-01T19:54:52Z</time>
  <course>270.0</course>
  <speed>0.0</speed>
  <fix>3d</fix>
</trkpt>
<trkpt lat="-27.274439" lon="151.290064">
  <ele>342.83</ele>
  <time>2026-09-01T19:54:52Z</time>
  <course>10.87</course>
  <speed>0.0</speed>
  <fix>3d</fix>
</trkpt>
<trkpt lat="-27.274439" lon="151.290064">
  <ele>343.1</ele>
  <time>2026-09-01T19:54:52Z</time>
  <course>270.0</course>
  <speed>0.0</speed>
  <fix>3d</fix>
</trkpt>
<trkpt lat="-27.274439" lon="151.290064">
  <ele>342.9</ele>
  <time>2026-09-01T19:54:52Z</time>
  <course>10.87</course>
  <speed>0.0</speed>
  <fix>3d</fix>
</trkpt>
<trkpt lat="-27.274439" lon="151.290064">
  <ele>343.1</ele>
  <time>2026-09-01T19:54:52Z</time>
  <course>270.0</course>
  <speed>0.0</speed>
  <fix>3d</fix>
</trkpt>
<trkpt lat="-27.274439" lon="151.290064">
  <ele>343.04</ele>
  <time>2026-09-01T19:54:52Z</time>
  <course>10.88</course>
  <speed>0.0</speed>
  <fix>3d</fix>
</trkpt>
<trkpt lat="-27.274439" lon="151.290064">
  <ele>343.1</ele>
  <time>2026-09-01T19:54:52Z</time>
  <course>270.0</course>
  <speed>0.0</speed>
  <fix>3d</fix>
</trkpt>
<trkpt lat="-27.274439" lon="151.290064">
  <ele>343.09</ele>
  <time>2026-09-01T19:54:52Z</time>
  <course>10.89</course>
  <speed>0.0</speed>
  <fix>3d</fix>
</trkpt>
<trkpt lat="-27.274439" lon="151.290064">
  <ele>343.1</ele>
  <time>2026-09-01T19:54:52Z</time>
  <course>270.0</course>
  <speed>0.0</speed>
  <fix>3d</fix>
</trkpt>
<trkpt lat="-27.274439" lon="151.290064">
  <ele>342.75</ele>
  <time>2026-09-01T19:54:52Z</time>
  <course>10.9</course>
  <speed>0.0</speed>
  <fix>3d</fix>
</trkpt>
<trkpt lat="-27.274439" lon="151.290064">
  <ele>343.1</ele>
  <time>2026-09-01T19:54:52Z</time>
  <course>270.0</course>
  <speed>0.0</speed>
  <fix>3d</fix>
</trkpt>
<trkpt lat="-27.274439" lon="151.290064">
  <ele>342.95</ele>
  <time>2026-09-01T19:54:52Z</time>
  <course>10.91</course>
  <speed>0.0</speed>
  <fix>3d</fix>
</trkpt>
<trkpt lat="-27.274439" lon="151.290064">
  <ele>343.1</ele>
  <time>2026-09-01T19:54:52Z</time>
  <course>270.0</course>
  <speed>0.0</speed>
  <fix>3d</fix>
</trkpt>
<trkpt lat="-27.274439" lon="151.290064">
  <ele>342.83</ele>
  <time>2026-09-01T19:54:52Z</time>
  <course>10.92</course>
  <speed>0.0</speed>
  <fix>3d</fix>
</trkpt>
<trkpt lat="-27.274439" lon="151.290064">
  <ele>343.1</ele>
  <time>2026-09-01T19:54:52Z</time>
  <course>270.0</course>
  <speed>0.0</speed>
  <fix>3d</fix>
</trkpt>
<trkpt lat="-27.274439" lon="151.290064">
  <ele>343.05</ele>
  <time>2026-09-01T19:54:52Z</time>
  <course>10.92</course>
  <speed>0.0</speed>
  <fix>3d</fix>
</trkpt>
<trkpt lat="-27.274439" lon="151.290064">
  <ele>343.1</ele>
  <time>2026-09-01T19:54:52Z</time>
  <course>270.0</course>
  <speed>0.0</speed>
  <fix>3d</fix>
</trkpt>
<trkpt lat="-27.274439" lon="151.290064">
  <ele>342.88</ele>
  <time>2026-09-01T19:54:52Z</time>
  <course>10.93</course>
  <speed>0.0</speed>
  <fix>3d</fix>
</trkpt>
<trkpt lat="-27.274439" lon="151.290064">
  <ele>343.1</ele>
  <time>2026-09-01T19:54:52Z</time>
  <course>270.0</course>
  <speed>0.0</speed>
  <fix>3d</fix>
</trkpt>
<trkpt lat="-27.274439" lon="151.290064">
  <ele>343.12</ele>
  <time>2026-09-01T19:54:52Z</time>
  <course>10.94</course>
  <speed>0.0</speed>
  <fix>3d</fix>
</trkpt>
<trkpt lat="-27.274439" lon="151.290064">
  <ele>343.1</ele>
  <time>2026-09-01T19:54:52Z</time>
  <course>270.0</course>
  <speed>0.0</speed>
  <fix>3d</fix>
</trkpt>
<trkpt lat="-27.274439" lon="151.290064">
  <ele>342.95</ele>
  <time>2026-09-01T19:54:52Z</time>
  <course>10.95</course>
  <speed>0.0</speed>
  <fix>3d</fix>
</trkpt>
<trkpt lat="-27.274439" lon="151.290064">
  <ele>343.1</ele>
  <time>2026-09-01T19:54:52Z</time>
  <course>270.0</course>
  <speed>0.0</speed>
  <fix>3d</fix>
</trkpt>
<trkpt lat="-27.274439" lon="151.290064">
  <ele>343.19</ele>
  <time>2026-09-01T19:54:52Z</time>
  <course>10.95</course>
  <speed>0.0</speed>
  <fix>3d</fix>
</trkpt>
<trkpt lat="-27.274439" lon="151.290064">
  <ele>343.1</ele>
  <time>2026-09-01T19:54:52Z</time>
  <course>270.0</course>
  <speed>0.0</speed>
  <fix>3d</fix>
</trkpt>
<trkpt lat="-27.274439" lon="151.290064">
  <ele>343.02</ele>
  <time>2026-09-01T19:54:52Z</time>
  <course>10.96</course>
  <speed>0.0</speed>
  <fix>3d</fix>
</trkpt>
<trkpt lat="-27.274439" lon="151.290064">
  <ele>343.1</ele>
  <time>2026-09-01T19:54:52Z</time>
  <course>270.0</course>
  <speed>0.0</speed>
  <fix>3d</fix>
</trkpt>
<trkpt lat="-27.274439" lon="151.290064">
  <ele>343.25</ele>
  <time>2026-09-01T19:54:52Z</time>
  <course>10.97</course>
  <speed>0.0</speed>
  <fix>3d</fix>
</trkpt>
<trkpt lat="-27.274439" lon="151.290064">
  <ele>343.1</ele>
  <time>2026-09-01T19:54:52Z</time>
  <course>270.0</course>
  <speed>0.0</speed>
  <fix>3d</fix>
</trkpt>
<trkpt lat="-27.274439" lon="151.290064">
  <ele>342.94</ele>
  <time>2026-09-01T19:54:52Z</time>
  <course>10.98</course>
  <speed>0.0</speed>
  <fix>3d</fix>
</trkpt>
<trkpt lat="-27.274439" lon="151.290064">
  <ele>343.1</ele>
  <time>2026-09-01T19:54:52Z</time>
  <course>270.0</course>
  <speed>0.0</speed>
  <fix>3d</fix>
</trkpt>
<trkpt lat="-27.274439" lon="151.290064">
  <ele>343.12</ele>
  <time>2026-09-01T19:54:52Z</time>
  <course>10.98</course>
  <speed>0.0</speed>
  <fix>3d</fix>
</trkpt>
<trkpt lat="-27.274439" lon="151.290064">
  <ele>343.1</ele>
  <time>2026-09-01T19:54:52Z</time>
  <course>270.0</course>
  <speed>0.0</speed>
  <fix>3d</fix>
</trkpt>
<trkpt lat="-27.274439" lon="151.290064">
  <ele>343.01</ele>
  <time>2026-09-01T19:54:52Z</time>
  <course>10.99</course>
  <speed>0.0</speed>
  <fix>3d</fix>
</trkpt>
<trkpt lat="-27.274439" lon="151.290064">
  <ele>343.1</ele>
  <time>2026-09-01T19:54:52Z</time>
  <course>270.0</course>
  <speed>0.0</speed>
  <fix>3d</fix>
</trkpt>
<trkpt lat="-27.274439" lon="151.290064">
  <ele>343.13</ele>
  <time>2026-09-01T19:54:52Z</time>
  <course>10.99</course>
  <speed>0.0</speed>
  <fix>3d</fix>
</trkpt>
<trkpt lat="-27.274439" lon="151.290064">
  <ele>343.1</ele>
  <time>2026-09-01T19:54:52Z</time>
  <course>270.0</course>
  <speed>0.0</speed>
  <fix>3d</fix>
</trkpt>
<trkpt lat="-27.274439" lon="151.290064">
  <ele>343.18</ele>
  <time>2026-09-01T19:54:52Z</time>
  <course>11.0</course>
  <speed>0.0</speed>
  <fix>3d</fix>
</trkpt>
<trkpt lat="-27.274439" lon="151.290064">
  <ele>343.1</ele>
  <time>2026-09-01T19:54:52Z</time>
  <course>270.0</course>
  <speed>0.0</speed>
  <fix>3d</fix>
</trkpt>
<trkpt lat="-27.274439" lon="151.290064">
  <ele>342.97</ele>
  <time>2026-09-01T19:54:52Z</time>
  <course>11.01</course>
  <speed>0.0</speed>
  <fix>3d</fix>
</trkpt>
<trkpt lat="-27.274439" lon="151.290064">
  <ele>343.1</ele>
  <time>2026-09-01T19:54:52Z</time>
  <course>270.0</course>
  <speed>0.0</speed>
  <fix>3d</fix>
</trkpt>
<trkpt lat="-27.274439" lon="151.290064">
  <ele>343.14</ele>
  <time>2026-09-01T19:54:52Z</time>
  <course>11.01</course>
  <speed>0.0</speed>
  <fix>3d</fix>
</trkpt>
<trkpt lat="-27.274439" lon="151.290064">
  <ele>343.1</ele>
  <time>2026-09-01T19:54:52Z</time>
  <course>270.0</course>
  <speed>0.0</speed>
  <fix>3d</fix>
</trkpt>
<trkpt lat="-27.274439" lon="151.290064">
  <ele>342.96</ele>
  <time>2026-09-01T19:54:52Z</time>
  <course>11.02</course>
  <speed>0.0</speed>
  <fix>3d</fix>
</trkpt>
<trkpt lat="-27.274439" lon="151.290064">
  <ele>343.1</ele>
  <time>2026-09-01T19:54:52Z</time>
  <course>270.0</course>
  <speed>0.0</speed>
  <fix>3d</fix>
</trkpt>
<trkpt lat="-27.274439" lon="151.290064">
  <ele>343.3</ele>
  <time>2026-09-01T19:54:52Z</time>
  <course>11.02</course>
  <speed>0.0</speed>
  <fix>3d</fix>
</trkpt>
<trkpt lat="-27.274439" lon="151.290064">
  <ele>343.1</ele>
  <time>2026-09-01T19:54:52Z</time>
  <course>270.0</course>
  <speed>0.0</speed>
  <fix>3d</fix>
</trkpt>
<trkpt lat="-27.274439" lon="151.290064">
  <ele>343.22</ele>
  <time>2026-09-01T19:54:52Z</time>
  <course>11.03</course>
  <speed>0.0</speed>
  <fix>3d</fix>
</trkpt>
<trkpt lat="-27.274439" lon="151.290064">
  <ele>343.1</ele>
  <time>2026-09-01T19:54:52Z</time>
  <course>270.0</course>
  <speed>0.0</speed>
  <fix>3d</fix>
</trkpt>
<trkpt lat="-27.274439" lon="151.290064">
  <ele>343.08</ele>
  <time>2026-09-01T19:54:52Z</time>
  <course>11.04</course>
  <speed>0.0</speed>
  <fix>3d</fix>
</trkpt>
<trkpt lat="-27.274439" lon="151.290064">
  <ele>343.1</ele>
  <time>2026-09-01T19:54:52Z</time>
  <course>270.0</course>
  <speed>0.0</speed>
  <fix>3d</fix>
</trkpt>
<trkpt lat="-27.274439" lon="151.290064">
  <ele>343.23</ele>
  <time>2026-09-01T19:54:52Z</time>
  <course>11.04</course>
  <speed>0.0</speed>
  <fix>3d</fix>
</trkpt>
<trkpt lat="-27.274439" lon="151.290064">
  <ele>343.1</ele>
  <time>2026-09-01T19:54:52Z</time>
  <course>270.0</course>
  <speed>0.0</speed>
  <fix>3d</fix>
</trkpt>
<trkpt lat="-27.274439" lon="151.290064">
  <ele>343.33</ele>
  <time>2026-09-01T19:54:52Z</time>
  <course>11.05</course>
  <speed>0.0</speed>
  <fix>3d</fix>
</trkpt>
<trkpt lat="-27.274439" lon="151.290064">
  <ele>343.1</ele>
  <time>2026-09-01T19:54:52Z</time>
  <course>270.0</course>
  <speed>0.0</speed>
  <fix>3d</fix>
</trkpt>
<trkpt lat="-27.274439" lon="151.290064">
  <ele>343.05</ele>
  <time>2026-09-01T19:54:52Z</time>
  <course>11.05</course>
  <speed>0.0</speed>
  <fix>3d</fix>
</trkpt>
<trkpt lat="-27.274439" lon="151.290064">
  <ele>343.1</ele>
  <time>2026-09-01T19:54:52Z</time>
  <course>270.0</course>
  <speed>0.0</speed>
  <fix>3d</fix>
</trkpt>
<trkpt lat="-27.274439" lon="151.290064">
  <ele>343.16</ele>
  <time>2026-09-01T19:54:52Z</time>
  <course>11.06</course>
  <speed>0.0</speed>
  <fix>3d</fix>
</trkpt>
<trkpt lat="-27.274439" lon="151.290064">
  <ele>343.1</ele>
  <time>2026-09-01T19:54:52Z</time>
  <course>270.0</course>
  <speed>0.0</speed>
  <fix>3d</fix>
</trkpt>
<trkpt lat="-27.274439" lon="151.290064">
  <ele>343.16</ele>
  <time>2026-09-01T19:54:52Z</time>
  <course>11.06</course>
  <speed>0.0</speed>
  <fix>3d</fix>
</trkpt>
<trkpt lat="-27.274439" lon="151.290064">
  <ele>343.1</ele>
  <time>2026-09-01T19:54:52Z</time>
  <course>270.0</course>
  <speed>0.0</speed>
  <fix>3d</fix>
</trkpt>
<trkpt lat="-27.274439" lon="151.290064">
  <ele>343.08</ele>
  <time>2026-09-01T19:54:52Z</time>
  <course>11.07</course>
  <speed>0.0</speed>
  <fix>3d</fix>
</trkpt>
<trkpt lat="-27.274439" lon="151.290064">
  <ele>343.1</ele>
  <time>2026-09-01T19:54:52Z</time>
  <course>270.0</course>
  <speed>0.0</speed>
  <fix>3d</fix>
</trkpt>
<trkpt lat="-27.274439" lon="151.290064">
  <ele>343.17</ele>
  <time>2026-09-01T19:54:52Z</time>
  <course>11.07</course>
  <speed>0.0</speed>
  <fix>3d</fix>
</trkpt>
<trkpt lat="-27.274439" lon="151.290064">
  <ele>343.1</ele>
  <time>2026-09-01T19:54:52Z</time>
  <course>270.0</course>
  <speed>0.0</speed>
  <fix>3d</fix>
</trkpt>
<trkpt lat="-27.274439" lon="151.290064">
  <ele>343.22</ele>
  <time>2026-09-01T19:54:52Z</time>
  <course>11.08</course>
  <speed>0.0</speed>
  <fix>3d</fix>
</trkpt>
<trkpt lat="-27.274439" lon="151.290064">
  <ele>343.1</ele>
  <time>2026-09-01T19:54:52Z</time>
  <course>270.0</course>
  <speed>0.0</speed>
  <fix>3d</fix>
</trkpt>
<trkpt lat="-27.274439" lon="151.290064">
  <ele>343.01</ele>
  <time>2026-09-01T19:54:52Z</time>
  <course>11.08</course>
  <speed>0.0</speed>
  <fix>3d</fix>
</trkpt>
<trkpt lat="-27.274439" lon="151.290064">
  <ele>343.1</ele>
  <time>2026-09-01T19:54:52Z</time>
  <course>270.0</course>
  <speed>0.0</speed>
  <fix>3d</fix>
</trkpt>
<trkpt lat="-27.274439" lon="151.290064">
  <ele>343.26</ele>
  <time>2026-09-01T19:54:52Z</time>
  <course>11.09</course>
  <speed>0.0</speed>
  <fix>3d</fix>
</trkpt>
<trkpt lat="-27.274439" lon="151.290064">
  <ele>343.1</ele>
  <time>2026-09-01T19:54:52Z</time>
  <course>270.0</course>
  <speed>0.0</speed>
  <fix>3d</fix>
</trkpt>
<trkpt lat="-27.274439" lon="151.290064">
  <ele>343.28</ele>
  <time>2026-09-01T19:54:52Z</time>
  <course>11.09</course>
  <speed>0.0</speed>
  <fix>3d</fix>
</trkpt>
<trkpt lat="-27.274439" lon="151.290064">
  <ele>343.1</ele>
  <time>2026-09-01T19:54:52Z</time>
  <course>270.0</course>
  <speed>0.0</speed>
  <fix>3d</fix>
</trkpt>
<trkpt lat="-27.274439" lon="151.290064">
  <ele>343.34</ele>
  <time>2026-09-01T19:54:52Z</time>
  <course>11.1</course>
  <speed>0.0</speed>
  <fix>3d</fix>
</trkpt>
<trkpt lat="-27.274439" lon="151.290064">
  <ele>343.1</ele>
  <time>2026-09-01T19:54:52Z</time>
  <course>270.0</course>
  <speed>0.0</speed>
  <fix>3d</fix>
</trkpt>
<trkpt lat="-27.274439" lon="151.290064">
  <ele>343.1</ele>
  <time>2026-09-01T19:54:52Z</time>
  <course>11.1</course>
  <speed>0.0</speed>
  <fix>3d</fix>
</trkpt>
<trkpt lat="-27.274439" lon="151.290064">
  <ele>343.1</ele>
  <time>2026-09-01T19:54:52Z</time>
  <course>270.0</course>
  <speed>0.0</speed>
  <fix>3d</fix>
</trkpt>
<trkpt lat="-27.274439" lon="151.290064">
  <ele>342.96</ele>
  <time>2026-09-01T19:54:52Z</time>
  <course>11.11</course>
  <speed>0.0</speed>
  <fix>3d</fix>
</trkpt>
<trkpt lat="-27.274439" lon="151.290064">
  <ele>343.1</ele>
  <time>2026-09-01T19:54:52Z</time>
  <course>270.0</course>
  <speed>0.0</speed>
  <fix>3d</fix>
</trkpt>
<trkpt lat="-27.274439" lon="151.290064">
  <ele>343.03</ele>
  <time>2026-09-01T19:54:52Z</time>
  <course>11.11</course>
  <speed>0.0</speed>
  <fix>3d</fix>
</trkpt>
<trkpt lat="-27.274439" lon="151.290064">
  <ele>343.1</ele>
  <time>2026-09-01T19:54:52Z</time>
  <course>270.0</course>
  <speed>0.0</speed>
  <fix>3d</fix>
</trkpt>
<trkpt lat="-27.274439" lon="151.290064">
  <ele>343.23</ele>
  <time>2026-09-01T19:54:52Z</time>
  <course>11.12</course>
  <speed>0.0</speed>
  <fix>3d</fix>
</trkpt>
<trkpt lat="-27.274439" lon="151.290064">
  <ele>343.1</ele>
  <time>2026-09-01T19:54:52Z</time>
  <course>270.0</course>
  <speed>0.0</speed>
  <fix>3d</fix>
</trkpt>
<trkpt lat="-27.274439" lon="151.290064">
  <ele>343.14</ele>
  <time>2026-09-01T19:54:52Z</time>
  <course>11.12</course>
  <speed>0.0</speed>
  <fix>3d</fix>
</trkpt>
<trkpt lat="-27.274439" lon="151.290064">
  <ele>343.1</ele>
  <time>2026-09-01T19:54:52Z</time>
  <course>270.0</course>
  <speed>0.0</speed>
  <fix>3d</fix>
</trkpt>
<trkpt lat="-27.274439" lon="151.290064">
  <ele>343.13</ele>
  <time>2026-09-01T19:54:52Z</time>
  <course>11.13</course>
  <speed>0.0</speed>
  <fix>3d</fix>
</trkpt>
<trkpt lat="-27.274439" lon="151.290064">
  <ele>343.1</ele>
  <time>2026-09-01T19:54:52Z</time>
  <course>270.0</course>
  <speed>0.0</speed>
  <fix>3d</fix>
</trkpt>
<trkpt lat="-27.274439" lon="151.290064">
  <ele>343.03</ele>
  <time>2026-09-01T19:54:52Z</time>
  <course>11.13</course>
  <speed>0.0</speed>
  <fix>3d</fix>
</trkpt>
<trkpt lat="-27.274439" lon="151.290064">
  <ele>343.1</ele>
  <time>2026-09-01T19:54:52Z</time>
  <course>270.0</course>
  <speed>0.0</speed>
  <fix>3d</fix>
</trkpt>
<trkpt lat="-27.274439" lon="151.290064">
  <ele>343.15</ele>
  <time>2026-09-01T19:54:52Z</time>
  <course>11.14</course>
  <speed>0.0</speed>
  <fix>3d</fix>
</trkpt>
<trkpt lat="-27.274439" lon="151.290064">
  <ele>343.1</ele>
  <time>2026-09-01T19:54:52Z</time>
  <course>270.0</course>
  <speed>0.0</speed>
  <fix>3d</fix>
</trkpt>
<trkpt lat="-27.274439" lon="151.290064">
  <ele>343.14</ele>
  <time>2026-09-01T19:54:52Z</time>
  <course>11.14</course>
  <speed>0.0</speed>
  <fix>3d</fix>
</trkpt>
<trkpt lat="-27.274439" lon="151.290064">
  <ele>343.1</ele>
  <time>2026-09-01T19:54:52Z</time>
  <course>270.0</course>
  <speed>0.0</speed>
  <fix>3d</fix>
</trkpt>
<trkpt lat="-27.274439" lon="151.290064">
  <ele>343.17</ele>
  <time>2026-09-01T19:54:52Z</time>
  <course>11.14</course>
  <speed>0.0</speed>
  <fix>3d</fix>
</trkpt>
<trkpt lat="-27.274439" lon="151.290064">
  <ele>343.1</ele>
  <time>2026-09-01T19:54:52Z</time>
  <course>270.0</course>
  <speed>0.0</speed>
  <fix>3d</fix>
</trkpt>
<trkpt lat="-27.274439" lon="151.290064">
  <ele>342.95</ele>
  <time>2026-09-01T19:54:52Z</time>
  <course>11.15</course>
  <speed>0.0</speed>
  <fix>3d</fix>
</trkpt>
<trkpt lat="-27.274439" lon="151.290064">
  <ele>343.1</ele>
  <time>2026-09-01T19:54:52Z</time>
  <course>270.0</course>
  <speed>0.0</speed>
  <fix>3d</fix>
</trkpt>
<trkpt lat="-27.274439" lon="151.290064">
  <ele>343.06</ele>
  <time>2026-09-01T19:54:52Z</time>
  <course>11.15</course>
  <speed>0.0</speed>
  <fix>3d</fix>
</trkpt>
<trkpt lat="-27.274439" lon="151.290064">
  <ele>343.1</ele>
  <time>2026-09-01T19:54:52Z</time>
  <course>270.0</course>
  <speed>0.0</speed>
  <fix>3d</fix>
</trkpt>
<trkpt lat="-27.274439" lon="151.290064">
  <ele>343.11</ele>
  <time>2026-09-01T19:54:52Z</time>
  <course>11.16</course>
  <speed>0.0</speed>
  <fix>3d</fix>
</trkpt>
<trkpt lat="-27.274439" lon="151.290064">
  <ele>343.1</ele>
  <time>2026-09-01T19:54:52Z</time>
  <course>270.0</course>
  <speed>0.0</speed>
  <fix>3d</fix>
</trkpt>
<trkpt lat="-27.274439" lon="151.290064">
  <ele>343.3</ele>
  <time>2026-09-01T19:54:52Z</time>
  <course>11.16</course>
  <speed>0.0</speed>
  <fix>3d</fix>
</trkpt>
<trkpt lat="-27.274439" lon="151.290064">
  <ele>343.1</ele>
  <time>2026-09-01T19:54:52Z</time>
  <course>270.0</course>
  <speed>0.0</speed>
  <fix>3d</fix>
</trkpt>
<trkpt lat="-27.274439" lon="151.290064">
  <ele>343.03</ele>
  <time>2026-09-01T19:54:52Z</time>
  <course>11.16</course>
  <speed>0.0</speed>
  <fix>3d</fix>
</trkpt>
<trkpt lat="-27.274439" lon="151.290064">
  <ele>343.1</ele>
  <time>2026-09-01T19:54:52Z</time>
  <course>270.0</course>
  <speed>0.0</speed>
  <fix>3d</fix>
</trkpt>
<trkpt lat="-27.274439" lon="151.290064">
  <ele>343.13</ele>
  <time>2026-09-01T19:54:52Z</time>
  <course>11.17</course>
  <speed>0.0</speed>
  <fix>3d</fix>
</trkpt>
<trkpt lat="-27.274439" lon="151.290064">
  <ele>343.1</ele>
  <time>2026-09-01T19:54:52Z</time>
  <course>270.0</course>
  <speed>0.0</speed>
  <fix>3d</fix>
</trkpt>
<trkpt lat="-27.274439" lon="151.290064">
  <ele>343.02</ele>
  <time>2026-09-01T19:54:52Z</time>
  <course>11.17</course>
  <speed>0.0</speed>
  <fix>3d</fix>
</trkpt>
<trkpt lat="-27.274439" lon="151.290064">
  <ele>343.1</ele>
  <time>2026-09-01T19:54:52Z</time>
  <course>270.0</course>
  <speed>0.0</speed>
  <fix>3d</fix>
</trkpt>
<trkpt lat="-27.274439" lon="151.290064">
  <ele>343.17</ele>
  <time>2026-09-01T19:54:52Z</time>
  <course>11.18</course>
  <speed>0.0</speed>
  <fix>3d</fix>
</trkpt>
<trkpt lat="-27.274439" lon="151.290064">
  <ele>343.1</ele>
  <time>2026-09-01T19:54:52Z</time>
  <course>270.0</course>
  <speed>0.0</speed>
  <fix>3d</fix>
</trkpt>
<trkpt lat="-27.274439" lon="151.290064">
  <ele>343.26</ele>
  <time>2026-09-01T19:54:52Z</time>
  <course>11.18</course>
  <speed>0.0</speed>
  <fix>3d</fix>
</trkpt>
<trkpt lat="-27.274439" lon="151.290064">
  <ele>343.1</ele>
  <time>2026-09-01T19:54:52Z</time>
  <course>270.0</course>
  <speed>0.0</speed>
  <fix>3d</fix>
</trkpt>
<trkpt lat="-27.274439" lon="151.290064">
  <ele>343.29</ele>
  <time>2026-09-01T19:54:52Z</time>
  <course>11.18</course>
  <speed>0.0</speed>
  <fix>3d</fix>
</trkpt>
<trkpt lat="-27.274439" lon="151.290064">
  <ele>343.1</ele>
  <time>2026-09-01T19:54:52Z</time>
  <course>270.0</course>
  <speed>0.0</speed>
  <fix>3d</fix>
</trkpt>
<trkpt lat="-27.274439" lon="151.290064">
  <ele>343.13</ele>
  <time>2026-09-01T19:54:52Z</time>
  <course>11.19</course>
  <speed>0.0</speed>
  <fix>3d</fix>
</trkpt>
<trkpt lat="-27.274439" lon="151.290064">
  <ele>343.1</ele>
  <time>2026-09-01T19:54:52Z</time>
  <course>270.0</course>
  <speed>0.0</speed>
  <fix>3d</fix>
</trkpt>
<trkpt lat="-27.274439" lon="151.290064">
  <ele>343.1</ele>
  <time>2026-09-01T19:54:52Z</time>
  <course>11.19</course>
  <speed>0.0</speed>
  <fix>3d</fix>
</trkpt>
<trkpt lat="-27.274439" lon="151.290064">
  <ele>343.1</ele>
  <time>2026-09-01T19:54:52Z</time>
  <course>270.0</course>
  <speed>0.0</speed>
  <fix>3d</fix>
</trkpt>
<trkpt lat="-27.274439" lon="151.290064">
  <ele>343.2</ele>
  <time>2026-09-01T19:54:52Z</time>
  <course>11.2</course>
  <speed>0.0</speed>
  <fix>3d</fix>
</trkpt>
<trkpt lat="-27.274439" lon="151.290064">
  <ele>343.1</ele>
  <time>2026-09-01T19:54:52Z</time>
  <course>270.0</course>
  <speed>0.0</speed>
  <fix>3d</fix>
</trkpt>
<trkpt lat="-27.274439" lon="151.290064">
  <ele>343.09</ele>
  <time>2026-09-01T19:54:52Z</time>
  <course>11.2</course>
  <speed>0.0</speed>
  <fix>3d</fix>
</trkpt>
<trkpt lat="-27.274439" lon="151.290064">
  <ele>343.1</ele>
  <time>2026-09-01T19:54:52Z</time>
  <course>270.0</course>
  <speed>0.0</speed>
  <fix>3d</fix>
</trkpt>
<trkpt lat="-27.274439" lon="151.290064">
  <ele>343.11</ele>
  <time>2026-09-01T19:54:52Z</time>
  <course>11.2</course>
  <speed>0.0</speed>
  <fix>3d</fix>
</trkpt>
<trkpt lat="-27.274439" lon="151.290064">
  <ele>343.1</ele>
  <time>2026-09-01T19:54:52Z</time>
  <course>270.0</course>
  <speed>0.0</speed>
  <fix>3d</fix>
</trkpt>
<trkpt lat="-27.274439" lon="151.290064">
  <ele>343.21</ele>
  <time>2026-09-01T19:54:52Z</time>
  <course>11.21</course>
  <speed>0.0</speed>
  <fix>3d</fix>
</trkpt>
<trkpt lat="-27.274439" lon="151.290064">
  <ele>343.1</ele>
  <time>2026-09-01T19:54:52Z</time>
  <course>270.0</course>
  <speed>0.0</speed>
  <fix>3d</fix>
</trkpt>
<trkpt lat="-27.274439" lon="151.290064">
  <ele>343.22</ele>
  <time>2026-09-01T19:54:52Z</time>
  <course>11.21</course>
  <speed>0.0</speed>
  <fix>3d</fix>
</trkpt>
<trkpt lat="-27.274439" lon="151.290064">
  <ele>343.1</ele>
  <time>2026-09-01T19:54:52Z</time>
  <course>270.0</course>
  <speed>0.0</speed>
  <fix>3d</fix>
</trkpt>
<trkpt lat="-27.274439" lon="151.290064">
  <ele>342.98</ele>
  <time>2026-09-01T19:54:52Z</time>
  <course>11.21</course>
  <speed>0.0</speed>
  <fix>3d</fix>
</trkpt>
<trkpt lat="-27.274439" lon="151.290064">
  <ele>343.1</ele>
  <time>2026-09-01T19:54:52Z</time>
  <course>270.0</course>
  <speed>0.0</speed>
  <fix>3d</fix>
</trkpt>
<trkpt lat="-27.274439" lon="151.290064">
  <ele>343.15</ele>
  <time>2026-09-01T19:54:52Z</time>
  <course>11.22</course>
  <speed>0.0</speed>
  <fix>3d</fix>
</trkpt>
<trkpt lat="-27.274439" lon="151.290064">
  <ele>343.1</ele>
  <time>2026-09-01T19:54:52Z</time>
  <course>270.0</course>
  <speed>0.0</speed>
  <fix>3d</fix>
</trkpt>
<trkpt lat="-27.274439" lon="151.290064">
  <ele>343.28</ele>
  <time>2026-09-01T19:54:52Z</time>
  <course>11.22</course>
  <speed>0.0</speed>
  <fix>3d</fix>
</trkpt>
<trkpt lat="-27.274439" lon="151.290064">
  <ele>343.1</ele>
  <time>2026-09-01T19:54:52Z</time>
  <course>270.0</course>
  <speed>0.0</speed>
  <fix>3d</fix>
</trkpt>
<trkpt lat="-27.274439" lon="151.290064">
  <ele>343.3</ele>
  <time>2026-09-01T19:54:52Z</time>
  <course>11.22</course>
  <speed>0.0</speed>
  <fix>3d</fix>
</trkpt>
<trkpt lat="-27.274439" lon="151.290064">
  <ele>343.1</ele>
  <time>2026-09-01T19:54:52Z</time>
  <course>270.0</course>
  <speed>0.0</speed>
  <fix>3d</fix>
</trkpt>
<trkpt lat="-27.274439" lon="151.290064">
  <ele>343.33</ele>
  <time>2026-09-01T19:54:52Z</time>
  <course>11.22</course>
  <speed>0.0</speed>
  <fix>3d</fix>
</trkpt>
<trkpt lat="-27.274439" lon="151.290064">
  <ele>343.1</ele>
  <time>2026-09-01T19:54:52Z</time>
  <course>270.0</course>
  <speed>0.0</speed>
  <fix>3d</fix>
</trkpt>
<trkpt lat="-27.274439" lon="151.290064">
  <ele>342.96</ele>
  <time>2026-09-01T19:54:52Z</time>
  <course>11.22</course>
  <speed>0.0</speed>
  <fix>3d</fix>
</trkpt>
<trkpt lat="-27.274439" lon="151.290064">
  <ele>343.1</ele>
  <time>2026-09-01T19:54:52Z</time>
  <course>270.0</course>
  <speed>0.0</speed>
  <fix>3d</fix>
</trkpt>
<trkpt lat="-27.274439" lon="151.290064">
  <ele>342.97</ele>
  <time>2026-09-01T19:54:52Z</time>
  <course>11.22</course>
  <speed>0.0</speed>
  <fix>3d</fix>
</trkpt>
<trkpt lat="-27.274439" lon="151.290064">
  <ele>343.1</ele>
  <time>2026-09-01T19:54:52Z</time>
  <course>270.0</course>
  <speed>0.0</speed>
  <fix>3d</fix>
</trkpt>
<trkpt lat="-27.274439" lon="151.290064">
  <ele>342.83</ele>
  <time>2026-09-01T19:54:52Z</time>
  <course>11.22</course>
  <speed>0.0</speed>
  <fix>3d</fix>
</trkpt>
<trkpt lat="-27.274439" lon="151.290064">
  <ele>343.1</ele>
  <time>2026-09-01T19:54:52Z</time>
  <course>270.0</course>
  <speed>0.0</speed>
  <fix>3d</fix>
</trkpt>
<trkpt lat="-27.274439" lon="151.290064">
  <ele>342.84</ele>
  <time>2026-09-01T19:54:52Z</time>
  <course>11.22</course>
  <speed>0.0</speed>
  <fix>3d</fix>
</trkpt>
<trkpt lat="-27.274439" lon="151.290064">
  <ele>343.1</ele>
  <time>2026-09-01T19:54:52Z</time>
  <course>270.0</course>
  <speed>0.0</speed>
  <fix>3d</fix>
</trkpt>
<trkpt lat="-27.274439" lon="151.290064">
  <ele>342.75</ele>
  <time>2026-09-01T19:54:52Z</time>
  <course>11.22</course>
  <speed>0.0</speed>
  <fix>3d</fix>
</trkpt>
<trkpt lat="-27.274439" lon="151.290064">
  <ele>343.1</ele>
  <time>2026-09-01T19:54:52Z</time>
  <course>270.0</course>
  <speed>0.0</speed>
  <fix>3d</fix>
</trkpt>
<trkpt lat="-27.274439" lon="151.290064">
  <ele>343.03</ele>
  <time>2026-09-01T19:54:52Z</time>
  <course>11.22</course>
  <speed>0.0</speed>
  <fix>3d</fix>
</trkpt>
<trkpt lat="-27.274439" lon="151.290064">
  <ele>343.1</ele>
  <time>2026-09-01T19:54:52Z</time>
  <course>270.0</course>
  <speed>0.0</speed>
  <fix>3d</fix>
</trkpt>
<trkpt lat="-27.274439" lon="151.290064">
  <ele>342.8</ele>
  <time>2026-09-01T19:54:52Z</time>
  <course>11.23</course>
  <speed>0.0</speed>
  <fix>3d</fix>
</trkpt>
<trkpt lat="-27.274439" lon="151.290064">
  <ele>343.1</ele>
  <time>2026-09-01T19:54:52Z</time>
  <course>270.0</course>
  <speed>0.0</speed>
  <fix>3d</fix>
</trkpt>
<trkpt lat="-27.274439" lon="151.290064">
  <ele>343.05</ele>
  <time>2026-09-01T19:54:52Z</time>
  <course>11.23</course>
  <speed>0.0</speed>
  <fix>3d</fix>
</trkpt>
<trkpt lat="-27.274439" lon="151.290064">
  <ele>343.1</ele>
  <time>2026-09-01T19:54:52Z</time>
  <course>270.0</course>
  <speed>0.0</speed>
  <fix>3d</fix>
</trkpt>
<trkpt lat="-27.274439" lon="151.290064">
  <ele>343.03</ele>
  <time>2026-09-01T19:54:52Z</time>
  <course>11.23</course>
  <speed>0.0</speed>
  <fix>3d</fix>
</trkpt>
<trkpt lat="-27.274439" lon="151.290064">
  <ele>343.1</ele>
  <time>2026-09-01T19:54:52Z</time>
  <course>270.0</course>
  <speed>0.0</speed>
  <fix>3d</fix>
</trkpt>
<trkpt lat="-27.274439" lon="151.290064">
  <ele>342.88</ele>
  <time>2026-09-01T19:54:52Z</time>
  <course>11.23</course>
  <speed>0.0</speed>
  <fix>3d</fix>
</trkpt>
<trkpt lat="-27.274439" lon="151.290064">
  <ele>343.1</ele>
  <time>2026-09-01T19:54:52Z</time>
  <course>270.0</course>
  <speed>0.0</speed>
  <fix>3d</fix>
</trkpt>
<trkpt lat="-27.274439" lon="151.290064">
  <ele>342.83</ele>
  <time>2026-09-01T19:54:52Z</time>
  <course>11.23</course>
  <speed>0.0</speed>
  <fix>3d</fix>
</trkpt>
<trkpt lat="-27.274439" lon="151.290064">
  <ele>343.1</ele>
  <time>2026-09-01T19:54:52Z</time>
  <course>270.0</course>
  <speed>0.0</speed>
  <fix>3d</fix>
</trkpt>
<trkpt lat="-27.274439" lon="151.290064">
  <ele>342.87</ele>
  <time>2026-09-01T19:54:52Z</time>
  <course>11.23</course>
  <speed>0.0</speed>
  <fix>3d</fix>
</trkpt>
<trkpt lat="-27.274439" lon="151.290064">
  <ele>343.1</ele>
  <time>2026-09-01T19:54:52Z</time>
  <course>270.0</course>
  <speed>0.0</speed>
  <fix>3d</fix>
</trkpt>
<trkpt lat="-27.274439" lon="151.290064">
  <ele>342.78</ele>
  <time>2026-09-01T19:54:52Z</time>
  <course>11.23</course>
  <speed>0.0</speed>
  <fix>3d</fix>
</trkpt>
<trkpt lat="-27.274439" lon="151.290064">
  <ele>343.1</ele>
  <time>2026-09-01T19:54:52Z</time>
  <course>270.0</course>
  <speed>0.0</speed>
  <fix>3d</fix>
</trkpt>
<trkpt lat="-27.274439" lon="151.290064">
  <ele>342.8</ele>
  <time>2026-09-01T19:54:52Z</time>
  <course>11.23</course>
  <speed>0.0</speed>
  <fix>3d</fix>
</trkpt>
<trkpt lat="-27.274439" lon="151.290064">
  <ele>343.1</ele>
  <time>2026-09-01T19:54:52Z</time>
  <course>270.0</course>
  <speed>0.0</speed>
  <fix>3d</fix>
</trkpt>
<trkpt lat="-27.274439" lon="151.290064">
  <ele>342.9</ele>
  <time>2026-09-01T19:54:52Z</time>
  <course>11.23</course>
  <speed>0.0</speed>
  <fix>3d</fix>
</trkpt>
<trkpt lat="-27.274439" lon="151.290064">
  <ele>343.1</ele>
  <time>2026-09-01T19:54:52Z</time>
  <course>270.0</course>
  <speed>0.0</speed>
  <fix>3d</fix>
</trkpt>
<trkpt lat="-27.274439" lon="151.290064">
  <ele>342.82</ele>
  <time>2026-09-01T19:54:52Z</time>
  <course>11.23</course>
  <speed>0.0</speed>
  <fix>3d</fix>
</trkpt>
<trkpt lat="-27.274439" lon="151.290064">
  <ele>343.1</ele>
  <time>2026-09-01T19:54:52Z</time>
  <course>270.0</course>
  <speed>0.0</speed>
  <fix>3d</fix>
</trkpt>
<trkpt lat="-27.274439" lon="151.290064">
  <ele>342.8</ele>
  <time>2026-09-01T19:54:52Z</time>
  <course>11.23</course>
  <speed>0.0</speed>
  <fix>3d</fix>
</trkpt>
<trkpt lat="-27.274439" lon="151.290064">
  <ele>343.1</ele>
  <time>2026-09-01T19:54:52Z</time>
  <course>270.0</course>
  <speed>0.0</speed>
  <fix>3d</fix>
</trkpt>
<trkpt lat="-27.274439" lon="151.290064">
  <ele>342.8</ele>
  <time>2026-09-01T19:54:52Z</time>
  <course>11.23</course>
  <speed>0.0</speed>
  <fix>3d</fix>
</trkpt>
<trkpt lat="-27.274439" lon="151.290064">
  <ele>343.1</ele>
  <time>2026-09-01T19:54:52Z</time>
  <course>270.0</course>
  <speed>0.0</speed>
  <fix>3d</fix>
</trkpt>
<trkpt lat="-27.274439" lon="151.290064">
  <ele>342.83</ele>
  <time>2026-09-01T19:54:52Z</time>
  <course>11.23</course>
  <speed>0.0</speed>
  <fix>3d</fix>
</trkpt>
<trkpt lat="-27.274439" lon="151.290064">
  <ele>343.1</ele>
  <time>2026-09-01T19:54:52Z</time>
  <course>270.0</course>
  <speed>0.0</speed>
  <fix>3d</fix>
</trkpt>
<trkpt lat="-27.274439" lon="151.290064">
  <ele>343.04</ele>
  <time>2026-09-01T19:54:52Z</time>
  <course>11.23</course>
  <speed>0.0</speed>
  <fix>3d</fix>
</trkpt>
<trkpt lat="-27.274439" lon="151.290064">
  <ele>343.1</ele>
  <time>2026-09-01T19:54:52Z</time>
  <course>270.0</course>
  <speed>0.0</speed>
  <fix>3d</fix>
</trkpt>
<trkpt lat="-27.274439" lon="151.290064">
  <ele>342.99</ele>
  <time>2026-09-01T19:54:52Z</time>
  <course>11.24</course>
  <speed>0.0</speed>
  <fix>3d</fix>
</trkpt>
<trkpt lat="-27.274439" lon="151.290064">
  <ele>343.1</ele>
  <time>2026-09-01T19:54:52Z</time>
  <course>270.0</course>
  <speed>0.0</speed>
  <fix>3d</fix>
</trkpt>
<trkpt lat="-27.274439" lon="151.290064">
  <ele>342.99</ele>
  <time>2026-09-01T19:54:52Z</time>
  <course>11.24</course>
  <speed>0.0</speed>
  <fix>3d</fix>
</trkpt>
<trkpt lat="-27.274439" lon="151.290064">
  <ele>343.1</ele>
  <time>2026-09-01T19:54:52Z</time>
  <course>270.0</course>
  <speed>0.0</speed>
  <fix>3d</fix>
</trkpt>
<trkpt lat="-27.274439" lon="151.290064">
  <ele>342.95</ele>
  <time>2026-09-01T19:54:52Z</time>
  <course>11.24</course>
  <speed>0.0</speed>
  <fix>3d</fix>
</trkpt>
<trkpt lat="-27.274439" lon="151.290064">
  <ele>343.1</ele>
  <time>2026-09-01T19:54:52Z</time>
  <course>270.0</course>
  <speed>0.0</speed>
  <fix>3d</fix>
</trkpt>
<trkpt lat="-27.274439" lon="151.290064">
  <ele>343.0</ele>
  <time>2026-09-01T19:54:52Z</time>
  <course>11.24</course>
  <speed>0.0</speed>
  <fix>3d</fix>
</trkpt>
<trkpt lat="-27.274439" lon="151.290064">
  <ele>343.1</ele>
  <time>2026-09-01T19:54:52Z</time>
  <course>270.0</course>
  <speed>0.0</speed>
  <fix>3d</fix>
</trkpt>
<trkpt lat="-27.274439" lon="151.290064">
  <ele>343.01</ele>
  <time>2026-09-01T19:54:52Z</time>
  <course>11.24</course>
  <speed>0.0</speed>
  <fix>3d</fix>
</trkpt>
<trkpt lat="-27.274439" lon="151.290064">
  <ele>343.1</ele>
  <time>2026-09-01T19:54:52Z</time>
  <course>270.0</course>
  <speed>0.0</speed>
  <fix>3d</fix>
</trkpt>
<trkpt lat="-27.274439" lon="151.290064">
  <ele>342.8</ele>
  <time>2026-09-01T19:54:52Z</time>
  <course>11.24</course>
  <speed>0.0</speed>
  <fix>3d</fix>
</trkpt>
<trkpt lat="-27.274439" lon="151.290064">
  <ele>343.1</ele>
  <time>2026-09-01T19:54:52Z</time>
  <course>270.0</course>
  <speed>0.0</speed>
  <fix>3d</fix>
</trkpt>
<trkpt lat="-27.274439" lon="151.290064">
  <ele>342.93</ele>
  <time>2026-09-01T19:54:52Z</time>
  <course>11.24</course>
  <speed>0.0</speed>
  <fix>3d</fix>
</trkpt>
<trkpt lat="-27.274439" lon="151.290064">
  <ele>343.1</ele>
  <time>2026-09-01T19:54:52Z</time>
  <course>270.0</course>
  <speed>0.0</speed>
  <fix>3d</fix>
</trkpt>
<trkpt lat="-27.274439" lon="151.290064">
  <ele>342.7</ele>
  <time>2026-09-01T19:54:52Z</time>
  <course>11.24</course>
  <speed>0.0</speed>
  <fix>3d</fix>
</trkpt>
<trkpt lat="-27.274439" lon="151.290064">
  <ele>343.1</ele>
  <time>2026-09-01T19:54:52Z</time>
  <course>270.0</course>
  <speed>0.0</speed>
  <fix>3d</fix>
</trkpt>
<trkpt lat="-27.274439" lon="151.290064">
  <ele>342.98</ele>
  <time>2026-09-01T19:54:52Z</time>
  <course>11.24</course>
  <speed>0.0</speed>
  <fix>3d</fix>
</trkpt>
<trkpt lat="-27.274439" lon="151.290064">
  <ele>343.1</ele>
  <time>2026-09-01T19:54:52Z</time>
  <course>270.0</course>
  <speed>0.0</speed>
  <fix>3d</fix>
</trkpt>
<trkpt lat="-27.274439" lon="151.290064">
  <ele>342.89</ele>
  <time>2026-09-01T19:54:52Z</time>
  <course>11.24</course>
  <speed>0.0</speed>
  <fix>3d</fix>
</trkpt>
<trkpt lat="-27.274439" lon="151.290064">
  <ele>343.1</ele>
  <time>2026-09-01T19:54:52Z</time>
  <course>270.0</course>
  <speed>0.0</speed>
  <fix>3d</fix>
</trkpt>
<trkpt lat="-27.274439" lon="151.290064">
  <ele>342.96</ele>
  <time>2026-09-01T19:54:52Z</time>
  <course>11.24</course>
  <speed>0.0</speed>
  <fix>3d</fix>
</trkpt>
<trkpt lat="-27.274439" lon="151.290064">
  <ele>343.1</ele>
  <time>2026-09-01T19:54:52Z</time>
  <course>270.0</course>
  <speed>0.0</speed>
  <fix>3d</fix>
</trkpt>
<trkpt lat="-27.274439" lon="151.290064">
  <ele>342.7</ele>
  <time>2026-09-01T19:54:52Z</time>
  <course>11.24</course>
  <speed>0.0</speed>
  <fix>3d</fix>
</trkpt>
<trkpt lat="-27.274439" lon="151.290064">
  <ele>343.1</ele>
  <time>2026-09-01T19:54:52Z</time>
  <course>270.0</course>
  <speed>0.0</speed>
  <fix>3d</fix>
</trkpt>
<trkpt lat="-27.274439" lon="151.290064">
  <ele>342.96</ele>
  <time>2026-09-01T19:54:52Z</time>
  <course>11.24</course>
  <speed>0.0</speed>
  <fix>3d</fix>
</trkpt>
<trkpt lat="-27.274439" lon="151.290064">
  <ele>343.1</ele>
  <time>2026-09-01T19:54:52Z</time>
  <course>270.0</course>
  <speed>0.0</speed>
  <fix>3d</fix>
</trkpt>
<trkpt lat="-27.274439" lon="151.290064">
  <ele>343.0</ele>
  <time>2026-09-01T19:54:52Z</time>
  <course>11.24</course>
  <speed>0.0</speed>
  <fix>3d</fix>
</trkpt>
<trkpt lat="-27.274439" lon="151.290064">
  <ele>343.1</ele>
  <time>2026-09-01T19:54:52Z</time>
  <course>270.0</course>
  <speed>0.0</speed>
  <fix>3d</fix>
</trkpt>
<trkpt lat="-27.274439" lon="151.290064">
  <ele>342.98</ele>
  <time>2026-09-01T19:54:52Z</time>
  <course>11.25</course>
  <speed>0.0</speed>
  <fix>3d</fix>
</trkpt>
<trkpt lat="-27.274439" lon="151.290064">
  <ele>343.1</ele>
  <time>2026-09-01T19:54:52Z</time>
  <course>270.0</course>
  <speed>0.0</speed>
  <fix>3d</fix>
</trkpt>
<trkpt lat="-27.274439" lon="151.290064">
  <ele>343.08</ele>
  <time>2026-09-01T19:54:52Z</time>
  <course>11.25</course>
  <speed>0.0</speed>
  <fix>3d</fix>
</trkpt>
<trkpt lat="-27.274439" lon="151.290064">
  <ele>343.1</ele>
  <time>2026-09-01T19:54:52Z</time>
  <course>270.0</course>
  <speed>0.0</speed>
  <fix>3d</fix>
</trkpt>
<trkpt lat="-27.274439" lon="151.290064">
  <ele>342.82</ele>
  <time>2026-09-01T19:54:52Z</time>
  <course>11.25</course>
  <speed>0.0</speed>
  <fix>3d</fix>
</trkpt>
<trkpt lat="-27.274439" lon="151.290064">
  <ele>343.1</ele>
  <time>2026-09-01T19:54:52Z</time>
  <course>270.0</course>
  <speed>0.0</speed>
  <fix>3d</fix>
</trkpt>
<trkpt lat="-27.274439" lon="151.290064">
  <ele>342.78</ele>
  <time>2026-09-01T19:54:52Z</time>
  <course>11.25</course>
  <speed>0.0</speed>
  <fix>3d</fix>
</trkpt>
<trkpt lat="-27.274439" lon="151.290064">
  <ele>343.1</ele>
  <time>2026-09-01T19:54:52Z</time>
  <course>270.0</course>
  <speed>0.0</speed>
  <fix>3d</fix>
</trkpt>
<trkpt lat="-27.274439" lon="151.290064">
  <ele>342.98</ele>
  <time>2026-09-01T19:54:52Z</time>
  <course>11.25</course>
  <speed>0.0</speed>
  <fix>3d</fix>
</trkpt>
<trkpt lat="-27.274439" lon="151.290064">
  <ele>343.1</ele>
  <time>2026-09-01T19:54:52Z</time>
  <course>270.0</course>
  <speed>0.0</speed>
  <fix>3d</fix>
</trkpt>
<trkpt lat="-27.274439" lon="151.290064">
  <ele>342.9</ele>
  <time>2026-09-01T19:54:52Z</time>
  <course>11.25</course>
  <speed>0.0</speed>
  <fix>3d</fix>
</trkpt>
<trkpt lat="-27.274439" lon="151.290064">
  <ele>343.1</ele>
  <time>2026-09-01T19:54:52Z</time>
  <course>270.0</course>
  <speed>0.0</speed>
  <fix>3d</fix>
</trkpt>
<trkpt lat="-27.274439" lon="151.290064">
  <ele>343.0</ele>
  <time>2026-09-01T19:54:52Z</time>
  <course>11.25</course>
  <speed>0.0</speed>
  <fix>3d</fix>
</trkpt>
<trkpt lat="-27.274439" lon="151.290064">
  <ele>343.1</ele>
  <time>2026-09-01T19:54:52Z</time>
  <course>270.0</course>
  <speed>0.0</speed>
  <fix>3d</fix>
</trkpt>
<trkpt lat="-27.274439" lon="151.290064">
  <ele>342.9</ele>
  <time>2026-09-01T19:54:52Z</time>
  <course>11.25</course>
  <speed>0.0</speed>
  <fix>3d</fix>
</trkpt>
<trkpt lat="-27.274439" lon="151.290064">
  <ele>343.1</ele>
  <time>2026-09-01T19:54:52Z</time>
  <course>270.0</course>
  <speed>0.0</speed>
  <fix>3d</fix>
</trkpt>
<trkpt lat="-27.274439" lon="151.290064">
  <ele>342.91</ele>
  <time>2026-09-01T19:54:52Z</time>
  <course>11.25</course>
  <speed>0.0</speed>
  <fix>3d</fix>
</trkpt>
<trkpt lat="-27.274439" lon="151.290064">
  <ele>343.1</ele>
  <time>2026-09-01T19:54:52Z</time>
  <course>270.0</course>
  <speed>0.0</speed>
  <fix>3d</fix>
</trkpt>
<trkpt lat="-27.274439" lon="151.290064">
  <ele>342.83</ele>
  <time>2026-09-01T19:54:52Z</time>
  <course>11.25</course>
  <speed>0.0</speed>
  <fix>3d</fix>
</trkpt>
<trkpt lat="-27.274439" lon="151.290064">
  <ele>343.1</ele>
  <time>2026-09-01T19:54:52Z</time>
  <course>270.0</course>
  <speed>0.0</speed>
  <fix>3d</fix>
</trkpt>
<trkpt lat="-27.274439" lon="151.290064">
  <ele>342.74</ele>
  <time>2026-09-01T19:54:52Z</time>
  <course>11.25</course>
  <speed>0.0</speed>
  <fix>3d</fix>
</trkpt>
<trkpt lat="-27.274439" lon="151.290064">
  <ele>343.1</ele>
  <time>2026-09-01T19:54:52Z</time>
  <course>270.0</course>
  <speed>0.0</speed>
  <fix>3d</fix>
</trkpt>
<trkpt lat="-27.274439" lon="151.290064">
  <ele>342.89</ele>
  <time>2026-09-01T19:54:52Z</time>
  <course>11.25</course>
  <speed>0.0</speed>
  <fix>3d</fix>
</trkpt>
<trkpt lat="-27.274439" lon="151.290064">
  <ele>343.1</ele>
  <time>2026-09-01T19:54:52Z</time>
  <course>270.0</course>
  <speed>0.0</speed>
  <fix>3d</fix>
</trkpt>
<trkpt lat="-27.274439" lon="151.290064">
  <ele>342.87</ele>
  <time>2026-09-01T19:54:52Z</time>
  <course>11.25</course>
  <speed>0.0</speed>
  <fix>3d</fix>
</trkpt>
<trkpt lat="-27.274439" lon="151.290064">
  <ele>343.1</ele>
  <time>2026-09-01T19:54:52Z</time>
  <course>270.0</course>
  <speed>0.0</speed>
  <fix>3d</fix>
</trkpt>
<trkpt lat="-27.274439" lon="151.290064">
  <ele>342.92</ele>
  <time>2026-09-01T19:54:52Z</time>
  <course>11.25</course>
  <speed>0.0</speed>
  <fix>3d</fix>
</trkpt>
<trkpt lat="-27.274439" lon="151.290064">
  <ele>343.1</ele>
  <time>2026-09-01T19:54:52Z</time>
  <course>270.0</course>
  <speed>0.0</speed>
  <fix>3d</fix>
</trkpt>
<trkpt lat="-27.274439" lon="151.290064">
  <ele>343.01</ele>
  <time>2026-09-01T19:54:52Z</time>
  <course>11.25</course>
  <speed>0.0</speed>
  <fix>3d</fix>
</trkpt>
<trkpt lat="-27.274439" lon="151.290064">
  <ele>343.1</ele>
  <time>2026-09-01T19:54:52Z</time>
  <course>270.0</course>
  <speed>0.0</speed>
  <fix>3d</fix>
</trkpt>
<trkpt lat="-27.274439" lon="151.290064">
  <ele>342.9</ele>
  <time>2026-09-01T19:54:52Z</time>
  <course>11.25</course>
  <speed>0.0</speed>
  <fix>3d</fix>
</trkpt>
<trkpt lat="-27.274439" lon="151.290064">
  <ele>343.1</ele>
  <time>2026-09-01T19:54:52Z</time>
  <course>270.0</course>
  <speed>0.0</speed>
  <fix>3d</fix>
</trkpt>
<trkpt lat="-27.274439" lon="151.290064">
  <ele>342.71</ele>
  <time>2026-09-01T19:54:52Z</time>
  <course>11.25</course>
  <speed>0.0</speed>
  <fix>3d</fix>
</trkpt>
<trkpt lat="-27.274439" lon="151.290064">
  <ele>343.1</ele>
  <time>2026-09-01T19:54:52Z</time>
  <course>270.0</course>
  <speed>0.0</speed>
  <fix>3d</fix>
</trkpt>
<trkpt lat="-27.274439" lon="151.290064">
  <ele>343.05</ele>
  <time>2026-09-01T19:54:52Z</time>
  <course>11.25</course>
  <speed>0.0</speed>
  <fix>3d</fix>
</trkpt>
<trkpt lat="-27.274439" lon="151.290064">
  <ele>343.1</ele>
  <time>2026-09-01T19:54:52Z</time>
  <course>270.0</course>
  <speed>0.0</speed>
  <fix>3d</fix>
</trkpt>
<trkpt lat="-27.274439" lon="151.290064">
  <ele>343.0</ele>
  <time>2026-09-01T19:54:52Z</time>
  <course>11.24</course>
  <speed>0.0</speed>
  <fix>3d</fix>
</trkpt>
<trkpt lat="-27.274439" lon="151.290064">
  <ele>343.1</ele>
  <time>2026-09-01T19:54:52Z</time>
  <course>270.0</course>
  <speed>0.0</speed>
  <fix>3d</fix>
</trkpt>
<trkpt lat="-27.274439" lon="151.290064">
  <ele>342.8</ele>
  <time>2026-09-01T19:54:52Z</time>
  <course>11.24</course>
  <speed>0.0</speed>
  <fix>3d</fix>
</trkpt>
<trkpt lat="-27.274439" lon="151.290064">
  <ele>343.1</ele>
  <time>2026-09-01T19:54:52Z</time>
  <course>270.0</course>
  <speed>0.0</speed>
  <fix>3d</fix>
</trkpt>
<trkpt lat="-27.274439" lon="151.290064">
  <ele>342.85</ele>
  <time>2026-09-01T19:54:52Z</time>
  <course>11.24</course>
  <speed>0.0</speed>
  <fix>3d</fix>
</trkpt>
<trkpt lat="-27.274439" lon="151.290064">
  <ele>343.1</ele>
  <time>2026-09-01T19:54:52Z</time>
  <course>270.0</course>
  <speed>0.0</speed>
  <fix>3d</fix>
</trkpt>
<trkpt lat="-27.274439" lon="151.290064">
  <ele>342.96</ele>
  <time>2026-09-01T19:54:52Z</time>
  <course>11.24</course>
  <speed>0.0</speed>
  <fix>3d</fix>
</trkpt>
<trkpt lat="-27.274439" lon="151.290064">
  <ele>343.1</ele>
  <time>2026-09-01T19:54:52Z</time>
  <course>270.0</course>
  <speed>0.0</speed>
  <fix>3d</fix>
</trkpt>
<trkpt lat="-27.274439" lon="151.290064">
  <ele>342.82</ele>
  <time>2026-09-01T19:54:52Z</time>
  <course>11.23</course>
  <speed>0.0</speed>
  <fix>3d</fix>
</trkpt>
<trkpt lat="-27.274439" lon="151.290064">
  <ele>343.1</ele>
  <time>2026-09-01T19:54:52Z</time>
  <course>270.0</course>
  <speed>0.0</speed>
  <fix>3d</fix>
</trkpt>
<trkpt lat="-27.274439" lon="151.290064">
  <ele>342.75</ele>
  <time>2026-09-01T19:54:52Z</time>
  <course>11.23</course>
  <speed>0.0</speed>
  <fix>3d</fix>
</trkpt>
<trkpt lat="-27.274439" lon="151.290064">
  <ele>343.1</ele>
  <time>2026-09-01T19:54:52Z</time>
  <course>270.0</course>
  <speed>0.0</speed>
  <fix>3d</fix>
</trkpt>
<trkpt lat="-27.274439" lon="151.290064">
  <ele>343.08</ele>
  <time>2026-09-01T19:54:52Z</time>
  <course>11.23</course>
  <speed>0.0</speed>
  <fix>3d</fix>
</trkpt>
<trkpt lat="-27.274439" lon="151.290064">
  <ele>343.1</ele>
  <time>2026-09-01T19:54:52Z</time>
  <course>270.0</course>
  <speed>0.0</speed>
  <fix>3d</fix>
</trkpt>
<trkpt lat="-27.274439" lon="151.290064">
  <ele>343.03</ele>
  <time>2026-09-01T19:54:52Z</time>
  <course>11.23</course>
  <speed>0.0</speed>
  <fix>3d</fix>
</trkpt>
<trkpt lat="-27.274439" lon="151.290064">
  <ele>343.1</ele>
  <time>2026-09-01T19:54:52Z</time>
  <course>270.0</course>
  <speed>0.0</speed>
  <fix>3d</fix>
</trkpt>
<trkpt lat="-27.274439" lon="151.290064">
  <ele>342.94</ele>
  <time>2026-09-01T19:54:52Z</time>
  <course>11.22</course>
  <speed>0.0</speed>
  <fix>3d</fix>
</trkpt>
<trkpt lat="-27.274439" lon="151.290064">
  <ele>343.1</ele>
  <time>2026-09-01T19:54:52Z</time>
  <course>270.0</course>
  <speed>0.0</speed>
  <fix>3d</fix>
</trkpt>
<trkpt lat="-27.274439" lon="151.290064">
  <ele>342.93</ele>
  <time>2026-09-01T19:54:52Z</time>
  <course>11.22</course>
  <speed>0.0</speed>
  <fix>3d</fix>
</trkpt>
<trkpt lat="-27.274439" lon="151.290064">
  <ele>343.1</ele>
  <time>2026-09-01T19:54:52Z</time>
  <course>270.0</course>
  <speed>0.0</speed>
  <fix>3d</fix>
</trkpt>
<trkpt lat="-27.274439" lon="151.290064">
  <ele>343.08</ele>
  <time>2026-09-01T19:54:52Z</time>
  <course>11.22</course>
  <speed>0.0</speed>
  <fix>3d</fix>
</trkpt>
<trkpt lat="-27.274439" lon="151.290064">
  <ele>343.1</ele>
  <time>2026-09-01T19:54:52Z</time>
  <course>270.0</course>
  <speed>0.0</speed>
  <fix>3d</fix>
</trkpt>
<trkpt lat="-27.274439" lon="151.290064">
  <ele>342.85</ele>
  <time>2026-09-01T19:54:52Z</time>
  <course>11.22</course>
  <speed>0.0</speed>
  <fix>3d</fix>
</trkpt>
<trkpt lat="-27.274439" lon="151.290064">
  <ele>343.1</ele>
  <time>2026-09-01T19:54:52Z</time>
  <course>270.0</course>
  <speed>0.0</speed>
  <fix>3d</fix>
</trkpt>
<trkpt lat="-27.274439" lon="151.290064">
  <ele>342.86</ele>
  <time>2026-09-01T19:54:52Z</time>
  <course>11.22</course>
  <speed>0.0</speed>
  <fix>3d</fix>
</trkpt>
<trkpt lat="-27.274439" lon="151.290064">
  <ele>343.1</ele>
  <time>2026-09-01T19:54:52Z</time>
  <course>270.0</course>
  <speed>0.0</speed>
  <fix>3d</fix>
</trkpt>
<trkpt lat="-27.274439" lon="151.290064">
  <ele>342.83</ele>
  <time>2026-09-01T19:54:52Z</time>
  <course>11.21</course>
  <speed>0.0</speed>
  <fix>3d</fix>
</trkpt>
<trkpt lat="-27.274439" lon="151.290064">
  <ele>343.1</ele>
  <time>2026-09-01T19:54:52Z</time>
  <course>270.0</course>
  <speed>0.0</speed>
  <fix>3d</fix>
</trkpt>
<trkpt lat="-27.274439" lon="151.290064">
  <ele>343.14</ele>
  <time>2026-09-01T19:54:52Z</time>
  <course>11.21</course>
  <speed>0.0</speed>
  <fix>3d</fix>
</trkpt>
<trkpt lat="-27.274439" lon="151.290064">
  <ele>343.1</ele>
  <time>2026-09-01T19:54:52Z</time>
  <course>270.0</course>
  <speed>0.0</speed>
  <fix>3d</fix>
</trkpt>
<trkpt lat="-27.274439" lon="151.290064">
  <ele>343.03</ele>
  <time>2026-09-01T19:54:52Z</time>
  <course>11.21</course>
  <speed>0.0</speed>
  <fix>3d</fix>
</trkpt>
<trkpt lat="-27.274439" lon="151.290064">
  <ele>343.1</ele>
  <time>2026-09-01T19:54:52Z</time>
  <course>270.0</course>
  <speed>0.0</speed>
  <fix>3d</fix>
</trkpt>
<trkpt lat="-27.274439" lon="151.290064">
  <ele>342.82</ele>
  <time>2026-09-01T19:54:52Z</time>
  <course>11.21</course>
  <speed>0.0</speed>
  <fix>3d</fix>
</trkpt>
<trkpt lat="-27.274439" lon="151.290064">
  <ele>343.1</ele>
  <time>2026-09-01T19:54:52Z</time>
  <course>270.0</course>
  <speed>0.0</speed>
  <fix>3d</fix>
</trkpt>
<trkpt lat="-27.274439" lon="151.290064">
  <ele>342.93</ele>
  <time>2026-09-01T19:54:52Z</time>
  <course>11.2</course>
  <speed>0.0</speed>
  <fix>3d</fix>
</trkpt>
<trkpt lat="-27.274439" lon="151.290064">
  <ele>343.1</ele>
  <time>2026-09-01T19:54:52Z</time>
  <course>270.0</course>
  <speed>0.0</speed>
  <fix>3d</fix>
</trkpt>
<trkpt lat="-27.274439" lon="151.290064">
  <ele>342.82</ele>
  <time>2026-09-01T19:54:52Z</time>
  <course>11.2</course>
  <speed>0.0</speed>
  <fix>3d</fix>
</trkpt>
<trkpt lat="-27.274439" lon="151.290064">
  <ele>343.1</ele>
  <time>2026-09-01T19:54:52Z</time>
  <course>270.0</course>
  <speed>0.0</speed>
  <fix>3d</fix>
</trkpt>
<trkpt lat="-27.274439" lon="151.290064">
  <ele>342.83</ele>
  <time>2026-09-01T19:54:52Z</time>
  <course>11.2</course>
  <speed>0.0</speed>
  <fix>3d</fix>
</trkpt>
<trkpt lat="-27.274439" lon="151.290064">
  <ele>343.1</ele>
  <time>2026-09-01T19:54:52Z</time>
  <course>270.0</course>
  <speed>0.0</speed>
  <fix>3d</fix>
</trkpt>
<trkpt lat="-27.274439" lon="151.290064">
  <ele>342.9</ele>
  <time>2026-09-01T19:54:52Z</time>
  <course>11.2</course>
  <speed>0.0</speed>
  <fix>3d</fix>
</trkpt>
<trkpt lat="-27.274439" lon="151.290064">
  <ele>343.1</ele>
  <time>2026-09-01T19:54:52Z</time>
  <course>270.0</course>
  <speed>0.0</speed>
  <fix>3d</fix>
</trkpt>
<trkpt lat="-27.274439" lon="151.290064">
  <ele>342.83</ele>
  <time>2026-09-01T19:54:52Z</time>
  <course>11.2</course>
  <speed>0.0</speed>
  <fix>3d</fix>
</trkpt>
<trkpt lat="-27.274439" lon="151.290064">
  <ele>343.1</ele>
  <time>2026-09-01T19:54:52Z</time>
  <course>270.0</course>
  <speed>0.0</speed>
  <fix>3d</fix>
</trkpt>
<trkpt lat="-27.274439" lon="151.290064">
  <ele>343.04</ele>
  <time>2026-09-01T19:54:53Z</time>
  <course>11.19</course>
  <speed>0.0</speed>
  <fix>3d</fix>
</trkpt>
<trkpt lat="-27.274439" lon="151.290064">
  <ele>343.1</ele>
  <time>2026-09-01T19:54:53Z</time>
  <course>270.0</course>
  <speed>0.0</speed>
  <fix>3d</fix>
</trkpt>
<trkpt lat="-27.274439" lon="151.290064">
  <ele>342.98</ele>
  <time>2026-09-01T19:54:53Z</time>
  <course>11.19</course>
  <speed>0.0</speed>
  <fix>3d</fix>
</trkpt>
<trkpt lat="-27.274439" lon="151.290064">
  <ele>343.1</ele>
  <time>2026-09-01T19:54:53Z</time>
  <course>270.0</course>
  <speed>0.0</speed>
  <fix>3d</fix>
</trkpt>
<trkpt lat="-27.274439" lon="151.290064">
  <ele>342.99</ele>
  <time>2026-09-01T19:54:53Z</time>
  <course>11.19</course>
  <speed>0.0</speed>
  <fix>3d</fix>
</trkpt>
<trkpt lat="-27.274439" lon="151.290064">
  <ele>343.1</ele>
  <time>2026-09-01T19:54:53Z</time>
  <course>270.0</course>
  <speed>0.0</speed>
  <fix>3d</fix>
</trkpt>
<trkpt lat="-27.274439" lon="151.290064">
  <ele>342.98</ele>
  <time>2026-09-01T19:54:53Z</time>
  <course>11.19</course>
  <speed>0.0</speed>
  <fix>3d</fix>
</trkpt>
<trkpt lat="-27.274439" lon="151.290064">
  <ele>343.1</ele>
  <time>2026-09-01T19:54:53Z</time>
  <course>270.0</course>
  <speed>0.0</speed>
  <fix>3d</fix>
</trkpt>
<trkpt lat="-27.274439" lon="151.290064">
  <ele>342.9</ele>
  <time>2026-09-01T19:54:53Z</time>
  <course>11.19</course>
  <speed>0.0</speed>
  <fix>3d</fix>
</trkpt>
<trkpt lat="-27.274439" lon="151.290064">
  <ele>343.1</ele>
  <time>2026-09-01T19:54:53Z</time>
  <course>270.0</course>
  <speed>0.0</speed>
  <fix>3d</fix>
</trkpt>
<trkpt lat="-27.274439" lon="151.290064">
  <ele>343.03</ele>
  <time>2026-09-01T19:54:53Z</time>
  <course>11.19</course>
  <speed>0.0</speed>
  <fix>3d</fix>
</trkpt>
<trkpt lat="-27.274439" lon="151.290064">
  <ele>343.1</ele>
  <time>2026-09-01T19:54:53Z</time>
  <course>270.0</course>
  <speed>0.0</speed>
  <fix>3d</fix>
</trkpt>
<trkpt lat="-27.274439" lon="151.290064">
  <ele>343.11</ele>
  <time>2026-09-01T19:54:53Z</time>
  <course>11.18</course>
  <speed>0.0</speed>
  <fix>3d</fix>
</trkpt>
<trkpt lat="-27.274439" lon="151.290064">
  <ele>343.1</ele>
  <time>2026-09-01T19:54:53Z</time>
  <course>270.0</course>
  <speed>0.0</speed>
  <fix>3d</fix>
</trkpt>
<trkpt lat="-27.274439" lon="151.290064">
  <ele>342.98</ele>
  <time>2026-09-01T19:54:53Z</time>
  <course>11.18</course>
  <speed>0.0</speed>
  <fix>3d</fix>
</trkpt>
<trkpt lat="-27.274439" lon="151.290064">
  <ele>343.1</ele>
  <time>2026-09-01T19:54:53Z</time>
  <course>270.0</course>
  <speed>0.0</speed>
  <fix>3d</fix>
</trkpt>
<trkpt lat="-27.274439" lon="151.290064">
  <ele>343.06</ele>
  <time>2026-09-01T19:54:53Z</time>
  <course>11.18</course>
  <speed>0.0</speed>
  <fix>3d</fix>
</trkpt>
<trkpt lat="-27.274439" lon="151.290064">
  <ele>343.1</ele>
  <time>2026-09-01T19:54:53Z</time>
  <course>270.0</course>
  <speed>0.0</speed>
  <fix>3d</fix>
</trkpt>
<trkpt lat="-27.274439" lon="151.290064">
  <ele>342.9</ele>
  <time>2026-09-01T19:54:53Z</time>
  <course>11.18</course>
  <speed>0.0</speed>
  <fix>3d</fix>
</trkpt>
<trkpt lat="-27.274439" lon="151.290064">
  <ele>343.1</ele>
  <time>2026-09-01T19:54:53Z</time>
  <course>270.0</course>
  <speed>0.0</speed>
  <fix>3d</fix>
</trkpt>
<trkpt lat="-27.274439" lon="151.290064">
  <ele>342.79</ele>
  <time>2026-09-01T19:54:53Z</time>
  <course>11.18</course>
  <speed>0.0</speed>
  <fix>3d</fix>
</trkpt>
<trkpt lat="-27.274439" lon="151.290064">
  <ele>343.1</ele>
  <time>2026-09-01T19:54:53Z</time>
  <course>270.0</course>
  <speed>0.0</speed>
  <fix>3d</fix>
</trkpt>
<trkpt lat="-27.274439" lon="151.290064">
  <ele>343.08</ele>
  <time>2026-09-01T19:54:53Z</time>
  <course>11.18</course>
  <speed>0.0</speed>
  <fix>3d</fix>
</trkpt>
<trkpt lat="-27.274439" lon="151.290064">
  <ele>343.1</ele>
  <time>2026-09-01T19:54:53Z</time>
  <course>270.0</course>
  <speed>0.0</speed>
  <fix>3d</fix>
</trkpt>
<trkpt lat="-27.274439" lon="151.290064">
  <ele>342.99</ele>
  <time>2026-09-01T19:54:53Z</time>
  <course>11.17</course>
  <speed>0.0</speed>
  <fix>3d</fix>
</trkpt>
<trkpt lat="-27.274439" lon="151.290064">
  <ele>343.1</ele>
  <time>2026-09-01T19:54:53Z</time>
  <course>270.0</course>
  <speed>0.0</speed>
  <fix>3d</fix>
</trkpt>
<trkpt lat="-27.274439" lon="151.290064">
  <ele>342.95</ele>
  <time>2026-09-01T19:54:53Z</time>
  <course>11.17</course>
  <speed>0.0</speed>
  <fix>3d</fix>
</trkpt>
<trkpt lat="-27.274439" lon="151.290064">
  <ele>343.1</ele>
  <time>2026-09-01T19:54:53Z</time>
  <course>270.0</course>
  <speed>0.0</speed>
  <fix>3d</fix>
</trkpt>
<trkpt lat="-27.274439" lon="151.290064">
  <ele>342.8</ele>
  <time>2026-09-01T19:54:53Z</time>
  <course>11.17</course>
  <speed>0.0</speed>
  <fix>3d</fix>
</trkpt>
<trkpt lat="-27.274439" lon="151.290064">
  <ele>343.1</ele>
  <time>2026-09-01T19:54:53Z</time>
  <course>270.0</course>
  <speed>0.0</speed>
  <fix>3d</fix>
</trkpt>
<trkpt lat="-27.274439" lon="151.290064">
  <ele>343.01</ele>
  <time>2026-09-01T19:54:53Z</time>
  <course>11.17</course>
  <speed>0.0</speed>
  <fix>3d</fix>
</trkpt>
<trkpt lat="-27.274439" lon="151.290064">
  <ele>343.1</ele>
  <time>2026-09-01T19:54:53Z</time>
  <course>270.0</course>
  <speed>0.0</speed>
  <fix>3d</fix>
</trkpt>
<trkpt lat="-27.274439" lon="151.290064">
  <ele>342.78</ele>
  <time>2026-09-01T19:54:53Z</time>
  <course>11.17</course>
  <speed>0.0</speed>
  <fix>3d</fix>
</trkpt>
<trkpt lat="-27.274439" lon="151.290064">
  <ele>343.1</ele>
  <time>2026-09-01T19:54:53Z</time>
  <course>270.0</course>
  <speed>0.0</speed>
  <fix>3d</fix>
</trkpt>
<trkpt lat="-27.274439" lon="151.290064">
  <ele>342.81</ele>
  <time>2026-09-01T19:54:53Z</time>
  <course>11.17</course>
  <speed>0.0</speed>
  <fix>3d</fix>
</trkpt>
<trkpt lat="-27.274439" lon="151.290064">
  <ele>343.1</ele>
  <time>2026-09-01T19:54:53Z</time>
  <course>270.0</course>
  <speed>0.0</speed>
  <fix>3d</fix>
</trkpt>
<trkpt lat="-27.274439" lon="151.290064">
  <ele>342.85</ele>
  <time>2026-09-01T19:54:53Z</time>
  <course>11.17</course>
  <speed>0.0</speed>
  <fix>3d</fix>
</trkpt>
<trkpt lat="-27.274439" lon="151.290064">
  <ele>343.1</ele>
  <time>2026-09-01T19:54:53Z</time>
  <course>270.0</course>
  <speed>0.0</speed>
  <fix>3d</fix>
</trkpt>
<trkpt lat="-27.274439" lon="151.290064">
  <ele>342.78</ele>
  <time>2026-09-01T19:54:53Z</time>
  <course>11.16</course>
  <speed>0.0</speed>
  <fix>3d</fix>
</trkpt>
<trkpt lat="-27.274439" lon="151.290064">
  <ele>343.1</ele>
  <time>2026-09-01T19:54:53Z</time>
  <course>270.0</course>
  <speed>0.0</speed>
  <fix>3d</fix>
</trkpt>
<trkpt lat="-27.274439" lon="151.290064">
  <ele>342.79</ele>
  <time>2026-09-01T19:54:53Z</time>
  <course>11.16</course>
  <speed>0.0</speed>
  <fix>3d</fix>
</trkpt>
<trkpt lat="-27.274439" lon="151.290064">
  <ele>343.1</ele>
  <time>2026-09-01T19:54:53Z</time>
  <course>270.0</course>
  <speed>0.0</speed>
  <fix>3d</fix>
</trkpt>
<trkpt lat="-27.274439" lon="151.290064">
  <ele>342.9</ele>
  <time>2026-09-01T19:54:53Z</time>
  <course>11.16</course>
  <speed>0.0</speed>
  <fix>3d</fix>
</trkpt>
<trkpt lat="-27.274439" lon="151.290064">
  <ele>343.1</ele>
  <time>2026-09-01T19:54:53Z</time>
  <course>270.0</course>
  <speed>0.0</speed>
  <fix>3d</fix>
</trkpt>
<trkpt lat="-27.274439" lon="151.290064">
  <ele>342.98</ele>
  <time>2026-09-01T19:54:53Z</time>
  <course>11.16</course>
  <speed>0.0</speed>
  <fix>3d</fix>
</trkpt>
<trkpt lat="-27.274439" lon="151.290064">
  <ele>343.1</ele>
  <time>2026-09-01T19:54:53Z</time>
  <course>270.0</course>
  <speed>0.0</speed>
  <fix>3d</fix>
</trkpt>
<trkpt lat="-27.274439" lon="151.290064">
  <ele>342.77</ele>
  <time>2026-09-01T19:54:53Z</time>
  <course>11.16</course>
  <speed>0.0</speed>
  <fix>3d</fix>
</trkpt>
<trkpt lat="-27.274439" lon="151.290064">
  <ele>343.1</ele>
  <time>2026-09-01T19:54:53Z</time>
  <course>270.0</course>
  <speed>0.0</speed>
  <fix>3d</fix>
</trkpt>
<trkpt lat="-27.274439" lon="151.290064">
  <ele>342.95</ele>
  <time>2026-09-01T19:54:53Z</time>
  <course>11.16</course>
  <speed>0.0</speed>
  <fix>3d</fix>
</trkpt>
<trkpt lat="-27.274439" lon="151.290064">
  <ele>343.1</ele>
  <time>2026-09-01T19:54:53Z</time>
  <course>270.0</course>
  <speed>0.0</speed>
  <fix>3d</fix>
</trkpt>
<trkpt lat="-27.274439" lon="151.290064">
  <ele>343.04</ele>
  <time>2026-09-01T19:54:53Z</time>
  <course>11.16</course>
  <speed>0.0</speed>
  <fix>3d</fix>
</trkpt>
<trkpt lat="-27.274439" lon="151.290064">
  <ele>343.1</ele>
  <time>2026-09-01T19:54:53Z</time>
  <course>270.0</course>
  <speed>0.0</speed>
  <fix>3d</fix>
</trkpt>
<trkpt lat="-27.274439" lon="151.290064">
  <ele>342.83</ele>
  <time>2026-09-01T19:54:53Z</time>
  <course>11.15</course>
  <speed>0.0</speed>
  <fix>3d</fix>
</trkpt>
<trkpt lat="-27.274439" lon="151.290064">
  <ele>343.1</ele>
  <time>2026-09-01T19:54:53Z</time>
  <course>270.0</course>
  <speed>0.0</speed>
  <fix>3d</fix>
</trkpt>
<trkpt lat="-27.274439" lon="151.290064">
  <ele>342.87</ele>
  <time>2026-09-01T19:54:53Z</time>
  <course>11.15</course>
  <speed>0.0</speed>
  <fix>3d</fix>
</trkpt>
<trkpt lat="-27.274439" lon="151.290064">
  <ele>343.1</ele>
  <time>2026-09-01T19:54:53Z</time>
  <course>270.0</course>
  <speed>0.0</speed>
  <fix>3d</fix>
</trkpt>
<trkpt lat="-27.274439" lon="151.290064">
  <ele>342.76</ele>
  <time>2026-09-01T19:54:53Z</time>
  <course>11.15</course>
  <speed>0.0</speed>
  <fix>3d</fix>
</trkpt>
<trkpt lat="-27.274439" lon="151.290064">
  <ele>343.1</ele>
  <time>2026-09-01T19:54:53Z</time>
  <course>270.0</course>
  <speed>0.0</speed>
  <fix>3d</fix>
</trkpt>
<trkpt lat="-27.274439" lon="151.290064">
  <ele>343.01</ele>
  <time>2026-09-01T19:54:53Z</time>
  <course>11.14</course>
  <speed>0.0</speed>
  <fix>3d</fix>
</trkpt>
<trkpt lat="-27.274439" lon="151.290064">
  <ele>343.1</ele>
  <time>2026-09-01T19:54:53Z</time>
  <course>270.0</course>
  <speed>0.0</speed>
  <fix>3d</fix>
</trkpt>
<trkpt lat="-27.274439" lon="151.290064">
  <ele>343.08</ele>
  <time>2026-09-01T19:54:53Z</time>
  <course>11.14</course>
  <speed>0.0</speed>
  <fix>3d</fix>
</trkpt>
<trkpt lat="-27.274439" lon="151.290064">
  <ele>343.1</ele>
  <time>2026-09-01T19:54:53Z</time>
  <course>270.0</course>
  <speed>0.0</speed>
  <fix>3d</fix>
</trkpt>
<trkpt lat="-27.274439" lon="151.290064">
  <ele>342.82</ele>
  <time>2026-09-01T19:54:53Z</time>
  <course>11.13</course>
  <speed>0.0</speed>
  <fix>3d</fix>
</trkpt>
<trkpt lat="-27.274439" lon="151.290064">
  <ele>343.1</ele>
  <time>2026-09-01T19:54:53Z</time>
  <course>270.0</course>
  <speed>0.0</speed>
  <fix>3d</fix>
</trkpt>
<trkpt lat="-27.274439" lon="151.290064">
  <ele>343.12</ele>
  <time>2026-09-01T19:54:53Z</time>
  <course>11.13</course>
  <speed>0.0</speed>
  <fix>3d</fix>
</trkpt>
<trkpt lat="-27.274439" lon="151.290064">
  <ele>343.1</ele>
  <time>2026-09-01T19:54:53Z</time>
  <course>270.0</course>
  <speed>0.0</speed>
  <fix>3d</fix>
</trkpt>
<trkpt lat="-27.274439" lon="151.290064">
  <ele>342.85</ele>
  <time>2026-09-01T19:54:53Z</time>
  <course>11.12</course>
  <speed>0.0</speed>
  <fix>3d</fix>
</trkpt>
<trkpt lat="-27.274439" lon="151.290064">
  <ele>343.1</ele>
  <time>2026-09-01T19:54:53Z</time>
  <course>270.0</course>
  <speed>0.0</speed>
  <fix>3d</fix>
</trkpt>
<trkpt lat="-27.274439" lon="151.290064">
  <ele>343.01</ele>
  <time>2026-09-01T19:54:53Z</time>
  <course>11.12</course>
  <speed>0.0</speed>
  <fix>3d</fix>
</trkpt>
<trkpt lat="-27.274439" lon="151.290064">
  <ele>343.1</ele>
  <time>2026-09-01T19:54:53Z</time>
  <course>270.0</course>
  <speed>0.0</speed>
  <fix>3d</fix>
</trkpt>
<trkpt lat="-27.274439" lon="151.290064">
  <ele>343.01</ele>
  <time>2026-09-01T19:54:53Z</time>
  <course>11.12</course>
  <speed>0.0</speed>
  <fix>3d</fix>
</trkpt>
<trkpt lat="-27.274439" lon="151.290064">
  <ele>343.1</ele>
  <time>2026-09-01T19:54:53Z</time>
  <course>270.0</course>
  <speed>0.0</speed>
  <fix>3d</fix>
</trkpt>
<trkpt lat="-27.274439" lon="151.290064">
  <ele>342.82</ele>
  <time>2026-09-01T19:54:53Z</time>
  <course>11.11</course>
  <speed>0.0</speed>
  <fix>3d</fix>
</trkpt>
<trkpt lat="-27.274439" lon="151.290064">
  <ele>343.1</ele>
  <time>2026-09-01T19:54:53Z</time>
  <course>270.0</course>
  <speed>0.0</speed>
  <fix>3d</fix>
</trkpt>
<trkpt lat="-27.274439" lon="151.290064">
  <ele>343.05</ele>
  <time>2026-09-01T19:54:53Z</time>
  <course>11.11</course>
  <speed>0.0</speed>
  <fix>3d</fix>
</trkpt>
<trkpt lat="-27.274439" lon="151.290064">
  <ele>343.1</ele>
  <time>2026-09-01T19:54:53Z</time>
  <course>270.0</course>
  <speed>0.0</speed>
  <fix>3d</fix>
</trkpt>
<trkpt lat="-27.274439" lon="151.290064">
  <ele>342.9</ele>
  <time>2026-09-01T19:54:53Z</time>
  <course>11.1</course>
  <speed>0.0</speed>
  <fix>3d</fix>
</trkpt>
<trkpt lat="-27.274439" lon="151.290064">
  <ele>343.1</ele>
  <time>2026-09-01T19:54:53Z</time>
  <course>270.0</course>
  <speed>0.0</speed>
  <fix>3d</fix>
</trkpt>
<trkpt lat="-27.274439" lon="151.290064">
  <ele>342.98</ele>
  <time>2026-09-01T19:54:53Z</time>
  <course>11.1</course>
  <speed>0.0</speed>
  <fix>3d</fix>
</trkpt>
<trkpt lat="-27.274439" lon="151.290064">
  <ele>343.1</ele>
  <time>2026-09-01T19:54:53Z</time>
  <course>270.0</course>
  <speed>0.0</speed>
  <fix>3d</fix>
</trkpt>
<trkpt lat="-27.274439" lon="151.290064">
  <ele>342.84</ele>
  <time>2026-09-01T19:54:53Z</time>
  <course>11.1</course>
  <speed>0.0</speed>
  <fix>3d</fix>
</trkpt>
<trkpt lat="-27.274439" lon="151.290064">
  <ele>343.1</ele>
  <time>2026-09-01T19:54:53Z</time>
  <course>270.0</course>
  <speed>0.0</speed>
  <fix>3d</fix>
</trkpt>
<trkpt lat="-27.274439" lon="151.290064">
  <ele>343.0</ele>
  <time>2026-09-01T19:54:53Z</time>
  <course>11.09</course>
  <speed>0.0</speed>
  <fix>3d</fix>
</trkpt>
<trkpt lat="-27.274439" lon="151.290064">
  <ele>343.1</ele>
  <time>2026-09-01T19:54:53Z</time>
  <course>270.0</course>
  <speed>0.0</speed>
  <fix>3d</fix>
</trkpt>
<trkpt lat="-27.274439" lon="151.290064">
  <ele>343.0</ele>
  <time>2026-09-01T19:54:53Z</time>
  <course>11.09</course>
  <speed>0.0</speed>
  <fix>3d</fix>
</trkpt>
<trkpt lat="-27.274439" lon="151.290064">
  <ele>343.1</ele>
  <time>2026-09-01T19:54:53Z</time>
  <course>270.0</course>
  <speed>0.0</speed>
  <fix>3d</fix>
</trkpt>
<trkpt lat="-27.274439" lon="151.290064">
  <ele>342.78</ele>
  <time>2026-09-01T19:54:53Z</time>
  <course>11.08</course>
  <speed>0.0</speed>
  <fix>3d</fix>
</trkpt>
<trkpt lat="-27.274439" lon="151.290064">
  <ele>343.1</ele>
  <time>2026-09-01T19:54:53Z</time>
  <course>270.0</course>
  <speed>0.0</speed>
  <fix>3d</fix>
</trkpt>
<trkpt lat="-27.274439" lon="151.290064">
  <ele>343.06</ele>
  <time>2026-09-01T19:54:53Z</time>
  <course>11.08</course>
  <speed>0.0</speed>
  <fix>3d</fix>
</trkpt>
<trkpt lat="-27.274439" lon="151.290064">
  <ele>343.1</ele>
  <time>2026-09-01T19:54:53Z</time>
  <course>270.0</course>
  <speed>0.0</speed>
  <fix>3d</fix>
</trkpt>
<trkpt lat="-27.274439" lon="151.290064">
  <ele>343.03</ele>
  <time>2026-09-01T19:54:53Z</time>
  <course>11.08</course>
  <speed>0.0</speed>
  <fix>3d</fix>
</trkpt>
<trkpt lat="-27.274439" lon="151.290064">
  <ele>343.1</ele>
  <time>2026-09-01T19:54:53Z</time>
  <course>270.0</course>
  <speed>0.0</speed>
  <fix>3d</fix>
</trkpt>
<trkpt lat="-27.274439" lon="151.290064">
  <ele>343.15</ele>
  <time>2026-09-01T19:54:53Z</time>
  <course>11.07</course>
  <speed>0.0</speed>
  <fix>3d</fix>
</trkpt>
<trkpt lat="-27.274439" lon="151.290064">
  <ele>343.1</ele>
  <time>2026-09-01T19:54:53Z</time>
  <course>270.0</course>
  <speed>0.0</speed>
  <fix>3d</fix>
</trkpt>
<trkpt lat="-27.274439" lon="151.290064">
  <ele>342.95</ele>
  <time>2026-09-01T19:54:53Z</time>
  <course>11.07</course>
  <speed>0.0</speed>
  <fix>3d</fix>
</trkpt>
<trkpt lat="-27.274439" lon="151.290064">
  <ele>343.1</ele>
  <time>2026-09-01T19:54:53Z</time>
  <course>270.0</course>
  <speed>0.0</speed>
  <fix>3d</fix>
</trkpt>
<trkpt lat="-27.274439" lon="151.290064">
  <ele>343.03</ele>
  <time>2026-09-01T19:54:53Z</time>
  <course>11.07</course>
  <speed>0.0</speed>
  <fix>3d</fix>
</trkpt>
<trkpt lat="-27.274439" lon="151.290064">
  <ele>343.1</ele>
  <time>2026-09-01T19:54:53Z</time>
  <course>270.0</course>
  <speed>0.0</speed>
  <fix>3d</fix>
</trkpt>
<trkpt lat="-27.274439" lon="151.290064">
  <ele>343.12</ele>
  <time>2026-09-01T19:54:53Z</time>
  <course>11.06</course>
  <speed>0.0</speed>
  <fix>3d</fix>
</trkpt>
<trkpt lat="-27.274439" lon="151.290064">
  <ele>343.1</ele>
  <time>2026-09-01T19:54:53Z</time>
  <course>270.0</course>
  <speed>0.0</speed>
  <fix>3d</fix>
</trkpt>
<trkpt lat="-27.274439" lon="151.290064">
  <ele>343.16</ele>
  <time>2026-09-01T19:54:53Z</time>
  <course>11.06</course>
  <speed>0.0</speed>
  <fix>3d</fix>
</trkpt>
<trkpt lat="-27.274439" lon="151.290064">
  <ele>343.1</ele>
  <time>2026-09-01T19:54:53Z</time>
  <course>270.0</course>
  <speed>0.0</speed>
  <fix>3d</fix>
</trkpt>
<trkpt lat="-27.274439" lon="151.290064">
  <ele>342.97</ele>
  <time>2026-09-01T19:54:53Z</time>
  <course>11.06</course>
  <speed>0.0</speed>
  <fix>3d</fix>
</trkpt>
<trkpt lat="-27.274439" lon="151.290064">
  <ele>343.1</ele>
  <time>2026-09-01T19:54:53Z</time>
  <course>270.0</course>
  <speed>0.0</speed>
  <fix>3d</fix>
</trkpt>
<trkpt lat="-27.274439" lon="151.290064">
  <ele>343.14</ele>
  <time>2026-09-01T19:54:53Z</time>
  <course>11.05</course>
  <speed>0.0</speed>
  <fix>3d</fix>
</trkpt>
<trkpt lat="-27.274439" lon="151.290064">
  <ele>343.1</ele>
  <time>2026-09-01T19:54:53Z</time>
  <course>270.0</course>
  <speed>0.0</speed>
  <fix>3d</fix>
</trkpt>
<trkpt lat="-27.274439" lon="151.290064">
  <ele>342.86</ele>
  <time>2026-09-01T19:54:53Z</time>
  <course>11.05</course>
  <speed>0.0</speed>
  <fix>3d</fix>
</trkpt>
<trkpt lat="-27.274439" lon="151.290064">
  <ele>343.1</ele>
  <time>2026-09-01T19:54:53Z</time>
  <course>270.0</course>
  <speed>0.0</speed>
  <fix>3d</fix>
</trkpt>
<trkpt lat="-27.274439" lon="151.290064">
  <ele>342.92</ele>
  <time>2026-09-01T19:54:53Z</time>
  <course>11.05</course>
  <speed>0.0</speed>
  <fix>3d</fix>
</trkpt>
<trkpt lat="-27.274439" lon="151.290064">
  <ele>343.1</ele>
  <time>2026-09-01T19:54:53Z</time>
  <course>270.0</course>
  <speed>0.0</speed>
  <fix>3d</fix>
</trkpt>
<trkpt lat="-27.274439" lon="151.290064">
  <ele>343.12</ele>
  <time>2026-09-01T19:54:53Z</time>
  <course>11.04</course>
  <speed>0.0</speed>
  <fix>3d</fix>
</trkpt>
<trkpt lat="-27.274439" lon="151.290064">
  <ele>343.1</ele>
  <time>2026-09-01T19:54:53Z</time>
  <course>270.0</course>
  <speed>0.0</speed>
  <fix>3d</fix>
</trkpt>
<trkpt lat="-27.274439" lon="151.290064">
  <ele>343.03</ele>
  <time>2026-09-01T19:54:53Z</time>
  <course>11.04</course>
  <speed>0.0</speed>
  <fix>3d</fix>
</trkpt>
<trkpt lat="-27.274439" lon="151.290064">
  <ele>343.1</ele>
  <time>2026-09-01T19:54:53Z</time>
  <course>270.0</course>
  <speed>0.0</speed>
  <fix>3d</fix>
</trkpt>
<trkpt lat="-27.274439" lon="151.290064">
  <ele>343.07</ele>
  <time>2026-09-01T19:54:53Z</time>
  <course>11.04</course>
  <speed>0.0</speed>
  <fix>3d</fix>
</trkpt>
<trkpt lat="-27.274439" lon="151.290064">
  <ele>343.1</ele>
  <time>2026-09-01T19:54:53Z</time>
  <course>270.0</course>
  <speed>0.0</speed>
  <fix>3d</fix>
</trkpt>
<trkpt lat="-27.274439" lon="151.290064">
  <ele>343.03</ele>
  <time>2026-09-01T19:54:53Z</time>
  <course>11.04</course>
  <speed>0.0</speed>
  <fix>3d</fix>
</trkpt>
<trkpt lat="-27.274439" lon="151.290064">
  <ele>343.1</ele>
  <time>2026-09-01T19:54:53Z</time>
  <course>270.0</course>
  <speed>0.0</speed>
  <fix>3d</fix>
</trkpt>
<trkpt lat="-27.274439" lon="151.290064">
  <ele>342.88</ele>
  <time>2026-09-01T19:54:53Z</time>
  <course>11.03</course>
  <speed>0.0</speed>
  <fix>3d</fix>
</trkpt>
<trkpt lat="-27.274439" lon="151.290064">
  <ele>343.1</ele>
  <time>2026-09-01T19:54:53Z</time>
  <course>270.0</course>
  <speed>0.0</speed>
  <fix>3d</fix>
</trkpt>
<trkpt lat="-27.274439" lon="151.290064">
  <ele>343.0</ele>
  <time>2026-09-01T19:54:53Z</time>
  <course>11.03</course>
  <speed>0.0</speed>
  <fix>3d</fix>
</trkpt>
<trkpt lat="-27.274439" lon="151.290064">
  <ele>343.1</ele>
  <time>2026-09-01T19:54:53Z</time>
  <course>270.0</course>
  <speed>0.0</speed>
  <fix>3d</fix>
</trkpt>
<trkpt lat="-27.274439" lon="151.290064">
  <ele>343.1</ele>
  <time>2026-09-01T19:54:53Z</time>
  <course>11.03</course>
  <speed>0.0</speed>
  <fix>3d</fix>
</trkpt>
<trkpt lat="-27.274439" lon="151.290064">
  <ele>343.1</ele>
  <time>2026-09-01T19:54:53Z</time>
  <course>270.0</course>
  <speed>0.0</speed>
  <fix>3d</fix>
</trkpt>
<trkpt lat="-27.274439" lon="151.290064">
  <ele>343.04</ele>
  <time>2026-09-01T19:54:53Z</time>
  <course>11.02</course>
  <speed>0.0</speed>
  <fix>3d</fix>
</trkpt>
<trkpt lat="-27.274439" lon="151.290064">
  <ele>343.1</ele>
  <time>2026-09-01T19:54:53Z</time>
  <course>270.0</course>
  <speed>0.0</speed>
  <fix>3d</fix>
</trkpt>
<trkpt lat="-27.274439" lon="151.290064">
  <ele>343.22</ele>
  <time>2026-09-01T19:54:53Z</time>
  <course>11.02</course>
  <speed>0.0</speed>
  <fix>3d</fix>
</trkpt>
<trkpt lat="-27.274439" lon="151.290064">
  <ele>343.1</ele>
  <time>2026-09-01T19:54:53Z</time>
  <course>270.0</course>
  <speed>0.0</speed>
  <fix>3d</fix>
</trkpt>
<trkpt lat="-27.274439" lon="151.290064">
  <ele>343.05</ele>
  <time>2026-09-01T19:54:53Z</time>
  <course>11.02</course>
  <speed>0.0</speed>
  <fix>3d</fix>
</trkpt>
<trkpt lat="-27.274439" lon="151.290064">
  <ele>343.1</ele>
  <time>2026-09-01T19:54:53Z</time>
  <course>270.0</course>
  <speed>0.0</speed>
  <fix>3d</fix>
</trkpt>
<trkpt lat="-27.274439" lon="151.290064">
  <ele>343.07</ele>
  <time>2026-09-01T19:54:53Z</time>
  <course>11.02</course>
  <speed>0.0</speed>
  <fix>3d</fix>
</trkpt>
<trkpt lat="-27.274439" lon="151.290064">
  <ele>343.1</ele>
  <time>2026-09-01T19:54:53Z</time>
  <course>270.0</course>
  <speed>0.0</speed>
  <fix>3d</fix>
</trkpt>
<trkpt lat="-27.274439" lon="151.290064">
  <ele>343.08</ele>
  <time>2026-09-01T19:54:53Z</time>
  <course>11.01</course>
  <speed>0.0</speed>
  <fix>3d</fix>
</trkpt>
<trkpt lat="-27.274439" lon="151.290064">
  <ele>343.1</ele>
  <time>2026-09-01T19:54:53Z</time>
  <course>270.0</course>
  <speed>0.0</speed>
  <fix>3d</fix>
</trkpt>
<trkpt lat="-27.274439" lon="151.290064">
  <ele>342.89</ele>
  <time>2026-09-01T19:54:53Z</time>
  <course>11.01</course>
  <speed>0.0</speed>
  <fix>3d</fix>
</trkpt>
<trkpt lat="-27.274439" lon="151.290064">
  <ele>343.1</ele>
  <time>2026-09-01T19:54:53Z</time>
  <course>270.0</course>
  <speed>0.0</speed>
  <fix>3d</fix>
</trkpt>
<trkpt lat="-27.274439" lon="151.290064">
  <ele>342.99</ele>
  <time>2026-09-01T19:54:53Z</time>
  <course>11.01</course>
  <speed>0.0</speed>
  <fix>3d</fix>
</trkpt>
<trkpt lat="-27.274439" lon="151.290064">
  <ele>343.1</ele>
  <time>2026-09-01T19:54:53Z</time>
  <course>270.0</course>
  <speed>0.0</speed>
  <fix>3d</fix>
</trkpt>
<trkpt lat="-27.274439" lon="151.290064">
  <ele>342.89</ele>
  <time>2026-09-01T19:54:53Z</time>
  <course>11.01</course>
  <speed>0.0</speed>
  <fix>3d</fix>
</trkpt>
<trkpt lat="-27.274439" lon="151.290064">
  <ele>343.1</ele>
  <time>2026-09-01T19:54:53Z</time>
  <course>270.0</course>
  <speed>0.0</speed>
  <fix>3d</fix>
</trkpt>
<trkpt lat="-27.274439" lon="151.290064">
  <ele>343.19</ele>
  <time>2026-09-01T19:54:53Z</time>
  <course>11.0</course>
  <speed>0.0</speed>
  <fix>3d</fix>
</trkpt>
<trkpt lat="-27.274439" lon="151.290064">
  <ele>343.1</ele>
  <time>2026-09-01T19:54:53Z</time>
  <course>270.0</course>
  <speed>0.0</speed>
  <fix>3d</fix>
</trkpt>
<trkpt lat="-27.274439" lon="151.290064">
  <ele>343.02</ele>
  <time>2026-09-01T19:54:53Z</time>
  <course>11.0</course>
  <speed>0.0</speed>
  <fix>3d</fix>
</trkpt>
<trkpt lat="-27.274439" lon="151.290064">
  <ele>343.1</ele>
  <time>2026-09-01T19:54:53Z</time>
  <course>270.0</course>
  <speed>0.0</speed>
  <fix>3d</fix>
</trkpt>
<trkpt lat="-27.274439" lon="151.290064">
  <ele>343.2</ele>
  <time>2026-09-01T19:54:53Z</time>
  <course>11.0</course>
  <speed>0.0</speed>
  <fix>3d</fix>
</trkpt>
<trkpt lat="-27.274439" lon="151.290064">
  <ele>343.1</ele>
  <time>2026-09-01T19:54:53Z</time>
  <course>270.0</course>
  <speed>0.0</speed>
  <fix>3d</fix>
</trkpt>
<trkpt lat="-27.274439" lon="151.290064">
  <ele>343.22</ele>
  <time>2026-09-01T19:54:53Z</time>
  <course>11.0</course>
  <speed>0.0</speed>
  <fix>3d</fix>
</trkpt>
<trkpt lat="-27.274439" lon="151.290064">
  <ele>343.1</ele>
  <time>2026-09-01T19:54:53Z</time>
  <course>270.0</course>
  <speed>0.0</speed>
  <fix>3d</fix>
</trkpt>
<trkpt lat="-27.274439" lon="151.290064">
  <ele>343.04</ele>
  <time>2026-09-01T19:54:53Z</time>
  <course>10.99</course>
  <speed>0.0</speed>
  <fix>3d</fix>
</trkpt>
<trkpt lat="-27.274439" lon="151.290064">
  <ele>343.1</ele>
  <time>2026-09-01T19:54:53Z</time>
  <course>270.0</course>
  <speed>0.0</speed>
  <fix>3d</fix>
</trkpt>
<trkpt lat="-27.274439" lon="151.290064">
  <ele>343.14</ele>
  <time>2026-09-01T19:54:53Z</time>
  <course>10.99</course>
  <speed>0.0</speed>
  <fix>3d</fix>
</trkpt>
<trkpt lat="-27.274439" lon="151.290064">
  <ele>343.1</ele>
  <time>2026-09-01T19:54:53Z</time>
  <course>270.0</course>
  <speed>0.0</speed>
  <fix>3d</fix>
</trkpt>
<trkpt lat="-27.274439" lon="151.290064">
  <ele>342.98</ele>
  <time>2026-09-01T19:54:53Z</time>
  <course>10.99</course>
  <speed>0.0</speed>
  <fix>3d</fix>
</trkpt>
<trkpt lat="-27.274439" lon="151.290064">
  <ele>343.1</ele>
  <time>2026-09-01T19:54:53Z</time>
  <course>270.0</course>
  <speed>0.0</speed>
  <fix>3d</fix>
</trkpt>
<trkpt lat="-27.274439" lon="151.290064">
  <ele>342.95</ele>
  <time>2026-09-01T19:54:53Z</time>
  <course>10.99</course>
  <speed>0.0</speed>
  <fix>3d</fix>
</trkpt>
<trkpt lat="-27.274439" lon="151.290064">
  <ele>343.1</ele>
  <time>2026-09-01T19:54:53Z</time>
  <course>270.0</course>
  <speed>0.0</speed>
  <fix>3d</fix>
</trkpt>
<trkpt lat="-27.274439" lon="151.290064">
  <ele>343.13</ele>
  <time>2026-09-01T19:54:53Z</time>
  <course>10.98</course>
  <speed>0.0</speed>
  <fix>3d</fix>
</trkpt>
<trkpt lat="-27.274439" lon="151.290064">
  <ele>343.1</ele>
  <time>2026-09-01T19:54:53Z</time>
  <course>270.0</course>
  <speed>0.0</speed>
  <fix>3d</fix>
</trkpt>
<trkpt lat="-27.274439" lon="151.290064">
  <ele>342.97</ele>
  <time>2026-09-01T19:54:53Z</time>
  <course>10.98</course>
  <speed>0.0</speed>
  <fix>3d</fix>
</trkpt>
<trkpt lat="-27.274439" lon="151.290064">
  <ele>343.1</ele>
  <time>2026-09-01T19:54:53Z</time>
  <course>270.0</course>
  <speed>0.0</speed>
  <fix>3d</fix>
</trkpt>
<trkpt lat="-27.274439" lon="151.290064">
  <ele>342.98</ele>
  <time>2026-09-01T19:54:53Z</time>
  <course>10.98</course>
  <speed>0.0</speed>
  <fix>3d</fix>
</trkpt>
<trkpt lat="-27.274439" lon="151.290064">
  <ele>343.1</ele>
  <time>2026-09-01T19:54:53Z</time>
  <course>270.0</course>
  <speed>0.0</speed>
  <fix>3d</fix>
</trkpt>
<trkpt lat="-27.274439" lon="151.290064">
  <ele>343.1</ele>
  <time>2026-09-01T19:54:53Z</time>
  <course>10.97</course>
  <speed>0.0</speed>
  <fix>3d</fix>
</trkpt>
<trkpt lat="-27.274439" lon="151.290064">
  <ele>343.1</ele>
  <time>2026-09-01T19:54:53Z</time>
  <course>270.0</course>
  <speed>0.0</speed>
  <fix>3d</fix>
</trkpt>
<trkpt lat="-27.274439" lon="151.290064">
  <ele>342.83</ele>
  <time>2026-09-01T19:54:53Z</time>
  <course>10.97</course>
  <speed>0.0</speed>
  <fix>3d</fix>
</trkpt>
<trkpt lat="-27.274439" lon="151.290064">
  <ele>343.1</ele>
  <time>2026-09-01T19:54:53Z</time>
  <course>270.0</course>
  <speed>0.0</speed>
  <fix>3d</fix>
</trkpt>
<trkpt lat="-27.274439" lon="151.290064">
  <ele>342.9</ele>
  <time>2026-09-01T19:54:53Z</time>
  <course>10.96</course>
  <speed>0.0</speed>
  <fix>3d</fix>
</trkpt>
<trkpt lat="-27.274439" lon="151.290064">
  <ele>343.1</ele>
  <time>2026-09-01T19:54:53Z</time>
  <course>270.0</course>
  <speed>0.0</speed>
  <fix>3d</fix>
</trkpt>
<trkpt lat="-27.274439" lon="151.290064">
  <ele>342.92</ele>
  <time>2026-09-01T19:54:53Z</time>
  <course>10.96</course>
  <speed>0.0</speed>
  <fix>3d</fix>
</trkpt>
<trkpt lat="-27.274439" lon="151.290064">
  <ele>343.1</ele>
  <time>2026-09-01T19:54:53Z</time>
  <course>270.0</course>
  <speed>0.0</speed>
  <fix>3d</fix>
</trkpt>
<trkpt lat="-27.274439" lon="151.290064">
  <ele>343.04</ele>
  <time>2026-09-01T19:54:53Z</time>
  <course>11.56</course>
  <speed>0.0</speed>
  <fix>3d</fix>
</trkpt>
<trkpt lat="-27.274439" lon="151.290064">
  <ele>343.1</ele>
  <time>2026-09-01T19:54:53Z</time>
  <course>270.0</course>
  <speed>0.0</speed>
  <fix>3d</fix>
</trkpt>
<trkpt lat="-27.274439" lon="151.290064">
  <ele>343.03</ele>
  <time>2026-09-01T19:54:53Z</time>
  <course>11.56</course>
  <speed>0.0</speed>
  <fix>3d</fix>
</trkpt>
<trkpt lat="-27.274439" lon="151.290064">
  <ele>343.1</ele>
  <time>2026-09-01T19:54:53Z</time>
  <course>270.0</course>
  <speed>0.0</speed>
  <fix>3d</fix>
</trkpt>
<trkpt lat="-27.274439" lon="151.290064">
  <ele>343.03</ele>
  <time>2026-09-01T19:54:53Z</time>
  <course>11.55</course>
  <speed>0.0</speed>
  <fix>3d</fix>
</trkpt>
<trkpt lat="-27.274439" lon="151.290064">
  <ele>343.1</ele>
  <time>2026-09-01T19:54:53Z</time>
  <course>270.0</course>
  <speed>0.0</speed>
  <fix>3d</fix>
</trkpt>
<trkpt lat="-27.274439" lon="151.290064">
  <ele>343.02</ele>
  <time>2026-09-01T19:54:53Z</time>
  <course>11.55</course>
  <speed>0.0</speed>
  <fix>3d</fix>
</trkpt>
<trkpt lat="-27.274439" lon="151.290064">
  <ele>343.1</ele>
  <time>2026-09-01T19:54:53Z</time>
  <course>270.0</course>
  <speed>0.0</speed>
  <fix>3d</fix>
</trkpt>
<trkpt lat="-27.274439" lon="151.290064">
  <ele>343.02</ele>
  <time>2026-09-01T19:54:53Z</time>
  <course>11.55</course>
  <speed>0.0</speed>
  <fix>3d</fix>
</trkpt>
<trkpt lat="-27.274439" lon="151.290064">
  <ele>343.1</ele>
  <time>2026-09-01T19:54:53Z</time>
  <course>270.0</course>
  <speed>0.0</speed>
  <fix>3d</fix>
</trkpt>
<trkpt lat="-27.274439" lon="151.290064">
  <ele>343.02</ele>
  <time>2026-09-01T19:54:53Z</time>
  <course>11.55</course>
  <speed>0.0</speed>
  <fix>3d</fix>
</trkpt>
<trkpt lat="-27.274439" lon="151.290064">
  <ele>343.1</ele>
  <time>2026-09-01T19:54:53Z</time>
  <course>270.0</course>
  <speed>0.0</speed>
  <fix>3d</fix>
</trkpt>
<trkpt lat="-27.274439" lon="151.290064">
  <ele>343.02</ele>
  <time>2026-09-01T19:54:53Z</time>
  <course>11.55</course>
  <speed>0.0</speed>
  <fix>3d</fix>
</trkpt>
<trkpt lat="-27.274439" lon="151.290064">
  <ele>343.1</ele>
  <time>2026-09-01T19:54:53Z</time>
  <course>270.0</course>
  <speed>0.0</speed>
  <fix>3d</fix>
</trkpt>
<trkpt lat="-27.274439" lon="151.290064">
  <ele>343.02</ele>
  <time>2026-09-01T19:54:53Z</time>
  <course>11.54</course>
  <speed>0.0</speed>
  <fix>3d</fix>
</trkpt>
<trkpt lat="-27.274439" lon="151.290064">
  <ele>343.1</ele>
  <time>2026-09-01T19:54:53Z</time>
  <course>270.0</course>
  <speed>0.0</speed>
  <fix>3d</fix>
</trkpt>
<trkpt lat="-27.274439" lon="151.290064">
  <ele>343.02</ele>
  <time>2026-09-01T19:54:53Z</time>
  <course>11.54</course>
  <speed>0.0</speed>
  <fix>3d</fix>
</trkpt>
<trkpt lat="-27.274439" lon="151.290064">
  <ele>343.1</ele>
  <time>2026-09-01T19:54:53Z</time>
  <course>270.0</course>
  <speed>0.0</speed>
  <fix>3d</fix>
</trkpt>
<trkpt lat="-27.274439" lon="151.290064">
  <ele>343.02</ele>
  <time>2026-09-01T19:54:53Z</time>
  <course>11.54</course>
  <speed>0.0</speed>
  <fix>3d</fix>
</trkpt>
<trkpt lat="-27.274439" lon="151.290064">
  <ele>343.1</ele>
  <time>2026-09-01T19:54:53Z</time>
  <course>270.0</course>
  <speed>0.0</speed>
  <fix>3d</fix>
</trkpt>
<trkpt lat="-27.274439" lon="151.290064">
  <ele>343.09</ele>
  <time>2026-09-01T19:54:53Z</time>
  <course>11.54</course>
  <speed>0.01</speed>
  <fix>3d</fix>
</trkpt>
<trkpt lat="-27.274439" lon="151.290064">
  <ele>343.1</ele>
  <time>2026-09-01T19:54:53Z</time>
  <course>270.0</course>
  <speed>0.0</speed>
  <fix>3d</fix>
</trkpt>
<trkpt lat="-27.274439" lon="151.290064">
  <ele>343.09</ele>
  <time>2026-09-01T19:54:53Z</time>
  <course>11.54</course>
  <speed>0.01</speed>
  <fix>3d</fix>
</trkpt>
<trkpt lat="-27.274439" lon="151.290064">
  <ele>343.1</ele>
  <time>2026-09-01T19:54:53Z</time>
  <course>270.0</course>
  <speed>0.0</speed>
  <fix>3d</fix>
</trkpt>
<trkpt lat="-27.274439" lon="151.290064">
  <ele>343.09</ele>
  <time>2026-09-01T19:54:53Z</time>
  <course>11.53</course>
  <speed>0.01</speed>
  <fix>3d</fix>
</trkpt>
<trkpt lat="-27.274439" lon="151.290064">
  <ele>343.1</ele>
  <time>2026-09-01T19:54:53Z</time>
  <course>270.0</course>
  <speed>0.0</speed>
  <fix>3d</fix>
</trkpt>
<trkpt lat="-27.274439" lon="151.290064">
  <ele>343.09</ele>
  <time>2026-09-01T19:54:53Z</time>
  <course>11.53</course>
  <speed>0.01</speed>
  <fix>3d</fix>
</trkpt>
<trkpt lat="-27.274439" lon="151.290064">
  <ele>343.1</ele>
  <time>2026-09-01T19:54:53Z</time>
  <course>270.0</course>
  <speed>0.0</speed>
  <fix>3d</fix>
</trkpt>
<trkpt lat="-27.274439" lon="151.290064">
  <ele>343.09</ele>
  <time>2026-09-01T19:54:53Z</time>
  <course>11.53</course>
  <speed>0.01</speed>
  <fix>3d</fix>
</trkpt>
<trkpt lat="-27.274439" lon="151.290064">
  <ele>343.1</ele>
  <time>2026-09-01T19:54:53Z</time>
  <course>270.0</course>
  <speed>0.0</speed>
  <fix>3d</fix>
</trkpt>
<trkpt lat="-27.274439" lon="151.290064">
  <ele>343.09</ele>
  <time>2026-09-01T19:54:53Z</time>
  <course>11.53</course>
  <speed>0.01414213562373095</speed>
  <fix>3d</fix>
</trkpt>
<trkpt lat="-27.274439" lon="151.290064">
  <ele>343.1</ele>
  <time>2026-09-01T19:54:53Z</time>
  <course>270.0</course>
  <speed>0.0</speed>
  <fix>3d</fix>
</trkpt>
<trkpt lat="-27.274439" lon="151.290064">
  <ele>343.09</ele>
  <time>2026-09-01T19:54:53Z</time>
  <course>11.53</course>
  <speed>0.01414213562373095</speed>
  <fix>3d</fix>
</trkpt>
<trkpt lat="-27.274439" lon="151.290064">
  <ele>343.1</ele>
  <time>2026-09-01T19:54:53Z</time>
  <course>270.0</course>
  <speed>0.0</speed>
  <fix>3d</fix>
</trkpt>
<trkpt lat="-27.274439" lon="151.290064">
  <ele>343.09</ele>
  <time>2026-09-01T19:54:53Z</time>
  <course>11.52</course>
  <speed>0.01414213562373095</speed>
  <fix>3d</fix>
</trkpt>
<trkpt lat="-27.274439" lon="151.290064">
  <ele>343.1</ele>
  <time>2026-09-01T19:54:53Z</time>
  <course>270.0</course>
  <speed>0.0</speed>
  <fix>3d</fix>
</trkpt>
<trkpt lat="-27.274439" lon="151.290064">
  <ele>343.09</ele>
  <time>2026-09-01T19:54:53Z</time>
  <course>11.52</course>
  <speed>0.01414213562373095</speed>
  <fix>3d</fix>
</trkpt>
<trkpt lat="-27.274439" lon="151.290064">
  <ele>343.1</ele>
  <time>2026-09-01T19:54:53Z</time>
  <course>270.0</course>
  <speed>0.0</speed>
  <fix>3d</fix>
</trkpt>
<trkpt lat="-27.274439" lon="151.290064">
  <ele>343.09</ele>
  <time>2026-09-01T19:54:53Z</time>
  <course>11.52</course>
  <speed>0.01414213562373095</speed>
  <fix>3d</fix>
</trkpt>
<trkpt lat="-27.274439" lon="151.290064">
  <ele>343.1</ele>
  <time>2026-09-01T19:54:53Z</time>
  <course>270.0</course>
  <speed>0.0</speed>
  <fix>3d</fix>
</trkpt>
<trkpt lat="-27.274439" lon="151.290064">
  <ele>343.09</ele>
  <time>2026-09-01T19:54:53Z</time>
  <course>11.52</course>
  <speed>0.01414213562373095</speed>
  <fix>3d</fix>
</trkpt>
<trkpt lat="-27.274439" lon="151.290064">
  <ele>343.1</ele>
  <time>2026-09-01T19:54:53Z</time>
  <course>270.0</course>
  <speed>0.0</speed>
  <fix>3d</fix>
</trkpt>
<trkpt lat="-27.274439" lon="151.290064">
  <ele>343.1</ele>
  <time>2026-09-01T19:54:53Z</time>
  <course>11.51</course>
  <speed>0.022360679774997897</speed>
  <fix>3d</fix>
</trkpt>
<trkpt lat="-27.274439" lon="151.290064">
  <ele>343.1</ele>
  <time>2026-09-01T19:54:53Z</time>
  <course>270.0</course>
  <speed>0.0</speed>
  <fix>3d</fix>
</trkpt>
<trkpt lat="-27.274439" lon="151.290064">
  <ele>343.1</ele>
  <time>2026-09-01T19:54:53Z</time>
  <course>11.51</course>
  <speed>0.022360679774997897</speed>
  <fix>3d</fix>
</trkpt>
<trkpt lat="-27.274439" lon="151.290064">
  <ele>343.1</ele>
  <time>2026-09-01T19:54:53Z</time>
  <course>270.0</course>
  <speed>0.0</speed>
  <fix>3d</fix>
</trkpt>
<trkpt lat="-27.274439" lon="151.290064">
  <ele>343.09</ele>
  <time>2026-09-01T19:54:53Z</time>
  <course>11.51</course>
  <speed>0.022360679774997897</speed>
  <fix>3d</fix>
</trkpt>
<trkpt lat="-27.274439" lon="151.290064">
  <ele>343.1</ele>
  <time>2026-09-01T19:54:53Z</time>
  <course>270.0</course>
  <speed>0.0</speed>
  <fix>3d</fix>
</trkpt>
<trkpt lat="-27.274439" lon="151.290064">
  <ele>343.09</ele>
  <time>2026-09-01T19:54:53Z</time>
  <course>11.51</course>
  <speed>0.022360679774997897</speed>
  <fix>3d</fix>
</trkpt>
<trkpt lat="-27.274439" lon="151.290064">
  <ele>343.1</ele>
  <time>2026-09-01T19:54:53Z</time>
  <course>270.0</course>
  <speed>0.0</speed>
  <fix>3d</fix>
</trkpt>
<trkpt lat="-27.274439" lon="151.290064">
  <ele>343.09</ele>
  <time>2026-09-01T19:54:53Z</time>
  <course>11.51</course>
  <speed>0.022360679774997897</speed>
  <fix>3d</fix>
</trkpt>
<trkpt lat="-27.274439" lon="151.290064">
  <ele>343.1</ele>
  <time>2026-09-01T19:54:53Z</time>
  <course>270.0</course>
  <speed>0.0</speed>
  <fix>3d</fix>
</trkpt>
<trkpt lat="-27.274439" lon="151.290064">
  <ele>343.08</ele>
  <time>2026-09-01T19:54:53Z</time>
  <course>11.5</course>
  <speed>0.022360679774997897</speed>
  <fix>3d</fix>
</trkpt>
<trkpt lat="-27.274439" lon="151.290064">
  <ele>343.1</ele>
  <time>2026-09-01T19:54:53Z</time>
  <course>270.0</course>
  <speed>0.0</speed>
  <fix>3d</fix>
</trkpt>
<trkpt lat="-27.2744391" lon="151.290064">
  <ele>343.09</ele>
  <time>2026-09-01T19:54:53Z</time>
  <course>11.5</course>
  <speed>0.022360679774997897</speed>
  <fix>3d</fix>
</trkpt>
<trkpt lat="-27.274439" lon="151.290064">
  <ele>343.1</ele>
  <time>2026-09-01T19:54:53Z</time>
  <course>270.0</course>
  <speed>0.0</speed>
  <fix>3d</fix>
</trkpt>
<trkpt lat="-27.2744391" lon="151.290064">
  <ele>343.09</ele>
  <time>2026-09-01T19:54:53Z</time>
  <course>11.5</course>
  <speed>0.022360679774997897</speed>
  <fix>3d</fix>
</trkpt>
<trkpt lat="-27.274439" lon="151.290064">
  <ele>343.1</ele>
  <time>2026-09-01T19:54:53Z</time>
  <course>270.0</course>
  <speed>0.0</speed>
  <fix>3d</fix>
</trkpt>
<trkpt lat="-27.2744391" lon="151.290064">
  <ele>343.09</ele>
  <time>2026-09-01T19:54:53Z</time>
  <course>11.5</course>
  <speed>0.022360679774997897</speed>
  <fix>3d</fix>
</trkpt>
<trkpt lat="-27.274439" lon="151.290064">
  <ele>343.1</ele>
  <time>2026-09-01T19:54:53Z</time>
  <course>270.0</course>
  <speed>0.0</speed>
  <fix>3d</fix>
</trkpt>
<trkpt lat="-27.2744391" lon="151.290064">
  <ele>343.09</ele>
  <time>2026-09-01T19:54:53Z</time>
  <course>11.5</course>
  <speed>0.022360679774997897</speed>
  <fix>3d</fix>
</trkpt>
<trkpt lat="-27.274439" lon="151.290064">
  <ele>343.1</ele>
  <time>2026-09-01T19:54:53Z</time>
  <course>270.0</course>
  <speed>0.0</speed>
  <fix>3d</fix>
</trkpt>
<trkpt lat="-27.2744391" lon="151.2900641">
  <ele>343.08</ele>
  <time>2026-09-01T19:54:53Z</time>
  <course>11.49</course>
  <speed>0.022360679774997897</speed>
  <fix>3d</fix>
</trkpt>
<trkpt lat="-27.274439" lon="151.290064">
  <ele>343.1</ele>
  <time>2026-09-01T19:54:53Z</time>
  <course>270.0</course>
  <speed>0.0</speed>
  <fix>3d</fix>
</trkpt>
<trkpt lat="-27.2744391" lon="151.2900641">
  <ele>343.07</ele>
  <time>2026-09-01T19:54:53Z</time>
  <course>11.49</course>
  <speed>0.022360679774997897</speed>
  <fix>3d</fix>
</trkpt>
<trkpt lat="-27.274439" lon="151.290064">
  <ele>343.1</ele>
  <time>2026-09-01T19:54:53Z</time>
  <course>270.0</course>
  <speed>0.0</speed>
  <fix>3d</fix>
</trkpt>
<trkpt lat="-27.2744391" lon="151.2900641">
  <ele>343.07</ele>
  <time>2026-09-01T19:54:53Z</time>
  <course>11.49</course>
  <speed>0.022360679774997897</speed>
  <fix>3d</fix>
</trkpt>
<trkpt lat="-27.274439" lon="151.290064">
  <ele>343.1</ele>
  <time>2026-09-01T19:54:53Z</time>
  <course>270.0</course>
  <speed>0.0</speed>
  <fix>3d</fix>
</trkpt>
<trkpt lat="-27.2744391" lon="151.2900641">
  <ele>343.06</ele>
  <time>2026-09-01T19:54:53Z</time>
  <course>11.49</course>
  <speed>0.022360679774997897</speed>
  <fix>3d</fix>
</trkpt>
<trkpt lat="-27.274439" lon="151.290064">
  <ele>343.1</ele>
  <time>2026-09-01T19:54:53Z</time>
  <course>270.0</course>
  <speed>0.0</speed>
  <fix>3d</fix>
</trkpt>
<trkpt lat="-27.2744391" lon="151.2900641">
  <ele>343.05</ele>
  <time>2026-09-01T19:54:53Z</time>
  <course>11.48</course>
  <speed>0.022360679774997897</speed>
  <fix>3d</fix>
</trkpt>
<trkpt lat="-27.274439" lon="151.290064">
  <ele>343.1</ele>
  <time>2026-09-01T19:54:53Z</time>
  <course>270.0</course>
  <speed>0.0</speed>
  <fix>3d</fix>
</trkpt>
<trkpt lat="-27.2744391" lon="151.2900641">
  <ele>343.05</ele>
  <time>2026-09-01T19:54:53Z</time>
  <course>11.48</course>
  <speed>0.022360679774997897</speed>
  <fix>3d</fix>
</trkpt>
<trkpt lat="-27.274439" lon="151.290064">
  <ele>343.1</ele>
  <time>2026-09-01T19:54:53Z</time>
  <course>270.0</course>
  <speed>0.0</speed>
  <fix>3d</fix>
</trkpt>
<trkpt lat="-27.2744391" lon="151.2900641">
  <ele>343.04</ele>
  <time>2026-09-01T19:54:53Z</time>
  <course>11.48</course>
  <speed>0.022360679774997897</speed>
  <fix>3d</fix>
</trkpt>
<trkpt lat="-27.274439" lon="151.290064">
  <ele>343.1</ele>
  <time>2026-09-01T19:54:53Z</time>
  <course>270.0</course>
  <speed>0.0</speed>
  <fix>3d</fix>
</trkpt>
<trkpt lat="-27.2744391" lon="151.2900641">
  <ele>343.03</ele>
  <time>2026-09-01T19:54:53Z</time>
  <course>11.48</course>
  <speed>0.022360679774997897</speed>
  <fix>3d</fix>
</trkpt>
<trkpt lat="-27.274439" lon="151.290064">
  <ele>343.1</ele>
  <time>2026-09-01T19:54:53Z</time>
  <course>270.0</course>
  <speed>0.0</speed>
  <fix>3d</fix>
</trkpt>
<trkpt lat="-27.2744391" lon="151.2900641">
  <ele>343.03</ele>
  <time>2026-09-01T19:54:53Z</time>
  <course>11.48</course>
  <speed>0.022360679774997897</speed>
  <fix>3d</fix>
</trkpt>
<trkpt lat="-27.274439" lon="151.290064">
  <ele>343.1</ele>
  <time>2026-09-01T19:54:53Z</time>
  <course>270.0</course>
  <speed>0.0</speed>
  <fix>3d</fix>
</trkpt>
<trkpt lat="-27.2744391" lon="151.2900641">
  <ele>343.02</ele>
  <time>2026-09-01T19:54:53Z</time>
  <course>11.48</course>
  <speed>0.022360679774997897</speed>
  <fix>3d</fix>
</trkpt>
<trkpt lat="-27.274439" lon="151.290064">
  <ele>343.1</ele>
  <time>2026-09-01T19:54:53Z</time>
  <course>270.0</course>
  <speed>0.0</speed>
  <fix>3d</fix>
</trkpt>
<trkpt lat="-27.2744391" lon="151.2900641">
  <ele>343.02</ele>
  <time>2026-09-01T19:54:53Z</time>
  <course>11.47</course>
  <speed>0.022360679774997897</speed>
  <fix>3d</fix>
</trkpt>
<trkpt lat="-27.274439" lon="151.290064">
  <ele>343.1</ele>
  <time>2026-09-01T19:54:53Z</time>
  <course>270.0</course>
  <speed>0.0</speed>
  <fix>3d</fix>
</trkpt>
<trkpt lat="-27.2744391" lon="151.2900641">
  <ele>343.01</ele>
  <time>2026-09-01T19:54:53Z</time>
  <course>11.47</course>
  <speed>0.022360679774997897</speed>
  <fix>3d</fix>
</trkpt>
<trkpt lat="-27.274439" lon="151.290064">
  <ele>343.1</ele>
  <time>2026-09-01T19:54:53Z</time>
  <course>270.0</course>
  <speed>0.0</speed>
  <fix>3d</fix>
</trkpt>
<trkpt lat="-27.2744391" lon="151.2900641">
  <ele>343.01</ele>
  <time>2026-09-01T19:54:53Z</time>
  <course>11.47</course>
  <speed>0.022360679774997897</speed>
  <fix>3d</fix>
</trkpt>
<trkpt lat="-27.274439" lon="151.290064">
  <ele>343.1</ele>
  <time>2026-09-01T19:54:53Z</time>
  <course>270.0</course>
  <speed>0.0</speed>
  <fix>3d</fix>
</trkpt>
<trkpt lat="-27.2744391" lon="151.2900641">
  <ele>343.01</ele>
  <time>2026-09-01T19:54:53Z</time>
  <course>11.47</course>
  <speed>0.022360679774997897</speed>
  <fix>3d</fix>
</trkpt>
<trkpt lat="-27.274439" lon="151.290064">
  <ele>343.1</ele>
  <time>2026-09-01T19:54:53Z</time>
  <course>270.0</course>
  <speed>0.0</speed>
  <fix>3d</fix>
</trkpt>
<trkpt lat="-27.2744391" lon="151.2900641">
  <ele>343.01</ele>
  <time>2026-09-01T19:54:53Z</time>
  <course>11.47</course>
  <speed>0.022360679774997897</speed>
  <fix>3d</fix>
</trkpt>
<trkpt lat="-27.274439" lon="151.290064">
  <ele>343.1</ele>
  <time>2026-09-01T19:54:53Z</time>
  <course>270.0</course>
  <speed>0.0</speed>
  <fix>3d</fix>
</trkpt>
<trkpt lat="-27.2744391" lon="151.2900641">
  <ele>343.0</ele>
  <time>2026-09-01T19:54:53Z</time>
  <course>11.46</course>
  <speed>0.022360679774997897</speed>
  <fix>3d</fix>
</trkpt>
<trkpt lat="-27.274439" lon="151.290064">
  <ele>343.1</ele>
  <time>2026-09-01T19:54:53Z</time>
  <course>270.0</course>
  <speed>0.0</speed>
  <fix>3d</fix>
</trkpt>
<trkpt lat="-27.2744391" lon="151.2900641">
  <ele>343.09</ele>
  <time>2026-09-01T19:54:53Z</time>
  <course>11.46</course>
  <speed>0.022360679774997897</speed>
  <fix>3d</fix>
</trkpt>
<trkpt lat="-27.274439" lon="151.290064">
  <ele>343.1</ele>
  <time>2026-09-01T19:54:53Z</time>
  <course>270.0</course>
  <speed>0.0</speed>
  <fix>3d</fix>
</trkpt>
<trkpt lat="-27.2744391" lon="151.2900641">
  <ele>343.09</ele>
  <time>2026-09-01T19:54:53Z</time>
  <course>11.46</course>
  <speed>0.022360679774997897</speed>
  <fix>3d</fix>
</trkpt>
<trkpt lat="-27.274439" lon="151.290064">
  <ele>343.1</ele>
  <time>2026-09-01T19:54:53Z</time>
  <course>270.0</course>
  <speed>0.0</speed>
  <fix>3d</fix>
</trkpt>
<trkpt lat="-27.2744391" lon="151.2900641">
  <ele>343.09</ele>
  <time>2026-09-01T19:54:53Z</time>
  <course>11.46</course>
  <speed>0.022360679774997897</speed>
  <fix>3d</fix>
</trkpt>
<trkpt lat="-27.274439" lon="151.290064">
  <ele>343.1</ele>
  <time>2026-09-01T19:54:53Z</time>
  <course>270.0</course>
  <speed>0.0</speed>
  <fix>3d</fix>
</trkpt>
<trkpt lat="-27.2744391" lon="151.2900641">
  <ele>343.09</ele>
  <time>2026-09-01T19:54:53Z</time>
  <course>11.46</course>
  <speed>0.022360679774997897</speed>
  <fix>3d</fix>
</trkpt>
<trkpt lat="-27.274439" lon="151.290064">
  <ele>343.1</ele>
  <time>2026-09-01T19:54:53Z</time>
  <course>270.0</course>
  <speed>0.0</speed>
  <fix>3d</fix>
</trkpt>
<trkpt lat="-27.2744391" lon="151.2900641">
  <ele>343.09</ele>
  <time>2026-09-01T19:54:53Z</time>
  <course>11.45</course>
  <speed>0.022360679774997897</speed>
  <fix>3d</fix>
</trkpt>
<trkpt lat="-27.274439" lon="151.290064">
  <ele>343.1</ele>
  <time>2026-09-01T19:54:53Z</time>
  <course>270.0</course>
  <speed>0.0</speed>
  <fix>3d</fix>
</trkpt>
<trkpt lat="-27.2744391" lon="151.2900641">
  <ele>343.1</ele>
  <time>2026-09-01T19:54:53Z</time>
  <course>11.45</course>
  <speed>0.022360679774997897</speed>
  <fix>3d</fix>
</trkpt>
<trkpt lat="-27.274439" lon="151.290064">
  <ele>343.1</ele>
  <time>2026-09-01T19:54:53Z</time>
  <course>270.0</course>
  <speed>0.0</speed>
  <fix>3d</fix>
</trkpt>
<trkpt lat="-27.2744391" lon="151.2900641">
  <ele>343.1</ele>
  <time>2026-09-01T19:54:53Z</time>
  <course>11.45</course>
  <speed>0.01414213562373095</speed>
  <fix>3d</fix>
</trkpt>
<trkpt lat="-27.274439" lon="151.290064">
  <ele>343.1</ele>
  <time>2026-09-01T19:54:53Z</time>
  <course>270.0</course>
  <speed>0.0</speed>
  <fix>3d</fix>
</trkpt>
<trkpt lat="-27.2744391" lon="151.290064">
  <ele>343.11</ele>
  <time>2026-09-01T19:54:53Z</time>
  <course>11.45</course>
  <speed>0.01414213562373095</speed>
  <fix>3d</fix>
</trkpt>
<trkpt lat="-27.274439" lon="151.290064">
  <ele>343.1</ele>
  <time>2026-09-01T19:54:53Z</time>
  <course>270.0</course>
  <speed>0.0</speed>
  <fix>3d</fix>
</trkpt>
<trkpt lat="-27.2744391" lon="151.290064">
  <ele>343.11</ele>
  <time>2026-09-01T19:54:53Z</time>
  <course>11.45</course>
  <speed>0.01414213562373095</speed>
  <fix>3d</fix>
</trkpt>
<trkpt lat="-27.274439" lon="151.290064">
  <ele>343.1</ele>
  <time>2026-09-01T19:54:53Z</time>
  <course>270.0</course>
  <speed>0.0</speed>
  <fix>3d</fix>
</trkpt>
<trkpt lat="-27.2744391" lon="151.290064">
  <ele>343.11</ele>
  <time>2026-09-01T19:54:53Z</time>
  <course>11.45</course>
  <speed>0.01414213562373095</speed>
  <fix>3d</fix>
</trkpt>
<trkpt lat="-27.274439" lon="151.290064">
  <ele>343.1</ele>
  <time>2026-09-01T19:54:53Z</time>
  <course>137.19</course>
  <speed>0.0</speed>
  <fix>3d</fix>
</trkpt>
<trkpt lat="-27.2744391" lon="151.290064">
  <ele>343.12</ele>
  <time>2026-09-01T19:54:53Z</time>
  <course>11.44</course>
  <speed>0.01414213562373095</speed>
  <fix>3d</fix>
</trkpt>
<trkpt lat="-27.274439" lon="151.290064">
  <ele>343.1</ele>
  <time>2026-09-01T19:54:53Z</time>
  <course>137.19</course>
  <speed>0.0</speed>
  <fix>3d</fix>
</trkpt>
<trkpt lat="-27.2744391" lon="151.290064">
  <ele>343.12</ele>
  <time>2026-09-01T19:54:53Z</time>
  <course>11.44</course>
  <speed>0.01414213562373095</speed>
  <fix>3d</fix>
</trkpt>
<trkpt lat="-27.2744391" lon="151.290064">
  <ele>343.12</ele>
  <time>2026-09-01T19:54:53Z</time>
  <course>11.44</course>
  <speed>0.01</speed>
  <fix>3d</fix>
</trkpt>
<trkpt lat="-27.274439" lon="151.290064">
  <ele>343.1</ele>
  <time>2026-09-01T19:54:53Z</time>
  <course>137.99</course>
  <speed>0.0</speed>
  <fix>3d</fix>
</trkpt>
<trkpt lat="-27.2744391" lon="151.290064">
  <ele>343.12</ele>
  <time>2026-09-01T19:54:53Z</time>
  <course>11.44</course>
  <speed>0.01</speed>
  <fix>3d</fix>
</trkpt>
<trkpt lat="-27.2744391" lon="151.290064">
  <ele>343.13</ele>
  <time>2026-09-01T19:54:53Z</time>
  <course>11.44</course>
  <speed>0.01</speed>
  <fix>3d</fix>
</trkpt>
<trkpt lat="-27.274439" lon="151.290064">
  <ele>343.1</ele>
  <time>2026-09-01T19:54:53Z</time>
  <course>137.99</course>
  <speed>0.0</speed>
  <fix>3d</fix>
</trkpt>
<trkpt lat="-27.2744391" lon="151.290064">
  <ele>343.13</ele>
  <time>2026-09-01T19:54:53Z</time>
  <course>11.44</course>
  <speed>0.01</speed>
  <fix>3d</fix>
</trkpt>
<trkpt lat="-27.2744391" lon="151.290064">
  <ele>343.14</ele>
  <time>2026-09-01T19:54:53Z</time>
  <course>11.44</course>
  <speed>0.01</speed>
  <fix>3d</fix>
</trkpt>
<trkpt lat="-27.274439" lon="151.290064">
  <ele>343.1</ele>
  <time>2026-09-01T19:54:53Z</time>
  <course>144.13</course>
  <speed>0.0</speed>
  <fix>3d</fix>
</trkpt>
<trkpt lat="-27.2744391" lon="151.290064">
  <ele>343.14</ele>
  <time>2026-09-01T19:54:53Z</time>
  <course>11.44</course>
  <speed>0.01</speed>
  <fix>3d</fix>
</trkpt>
<trkpt lat="-27.2744391" lon="151.290064">
  <ele>343.14</ele>
  <time>2026-09-01T19:54:53Z</time>
  <course>11.44</course>
  <speed>0.01</speed>
  <fix>3d</fix>
</trkpt>
<trkpt lat="-27.274439" lon="151.290064">
  <ele>343.1</ele>
  <time>2026-09-01T19:54:53Z</time>
  <course>144.13</course>
  <speed>0.0</speed>
  <fix>3d</fix>
</trkpt>
<trkpt lat="-27.2744391" lon="151.290064">
  <ele>343.14</ele>
  <time>2026-09-01T19:54:53Z</time>
  <course>11.44</course>
  <speed>0.01</speed>
  <fix>3d</fix>
</trkpt>
<trkpt lat="-27.2744391" lon="151.290064">
  <ele>343.14</ele>
  <time>2026-09-01T19:54:53Z</time>
  <course>11.44</course>
  <speed>0.01</speed>
  <fix>3d</fix>
</trkpt>
<trkpt lat="-27.274439" lon="151.290064">
  <ele>343.1</ele>
  <time>2026-09-01T19:54:53Z</time>
  <course>316.36</course>
  <speed>0.0</speed>
  <fix>3d</fix>
</trkpt>
<trkpt lat="-27.2744391" lon="151.290064">
  <ele>343.15</ele>
  <time>2026-09-01T19:54:53Z</time>
  <course>11.44</course>
  <speed>0.01</speed>
  <fix>3d</fix>
</trkpt>
<trkpt lat="-27.2744391" lon="151.290064">
  <ele>343.15</ele>
  <time>2026-09-01T19:54:53Z</time>
  <course>11.43</course>
  <speed>0.0</speed>
  <fix>3d</fix>
</trkpt>
<trkpt lat="-27.274439" lon="151.290064">
  <ele>343.1</ele>
  <time>2026-09-01T19:54:53Z</time>
  <course>316.36</course>
  <speed>0.0</speed>
  <fix>3d</fix>
</trkpt>
<trkpt lat="-27.2744391" lon="151.290064">
  <ele>343.15</ele>
  <time>2026-09-01T19:54:53Z</time>
  <course>11.43</course>
  <speed>0.0</speed>
  <fix>3d</fix>
</trkpt>
<trkpt lat="-27.2744391" lon="151.290064">
  <ele>343.16</ele>
  <time>2026-09-01T19:54:53Z</time>
  <course>11.43</course>
  <speed>0.0</speed>
  <fix>3d</fix>
</trkpt>
<trkpt lat="-27.274439" lon="151.290064">
  <ele>343.1</ele>
  <time>2026-09-01T19:54:53Z</time>
  <course>331.07</course>
  <speed>0.0</speed>
  <fix>3d</fix>
</trkpt>
<trkpt lat="-27.2744391" lon="151.290064">
  <ele>343.16</ele>
  <time>2026-09-01T19:54:53Z</time>
  <course>11.43</course>
  <speed>0.0</speed>
  <fix>3d</fix>
</trkpt>
<trkpt lat="-27.2744391" lon="151.290064">
  <ele>343.19</ele>
  <time>2026-09-01T19:54:53Z</time>
  <course>11.43</course>
  <speed>0.0</speed>
  <fix>3d</fix>
</trkpt>
<trkpt lat="-27.274439" lon="151.290064">
  <ele>343.1</ele>
  <time>2026-09-01T19:54:53Z</time>
  <course>331.07</course>
  <speed>0.0</speed>
  <fix>3d</fix>
</trkpt>
<trkpt lat="-27.2744391" lon="151.290064">
  <ele>343.2</ele>
  <time>2026-09-01T19:54:53Z</time>
  <course>11.43</course>
  <speed>0.0</speed>
  <fix>3d</fix>
</trkpt>
<trkpt lat="-27.2744391" lon="151.290064">
  <ele>343.24</ele>
  <time>2026-09-01T19:54:53Z</time>
  <course>11.43</course>
  <speed>0.0</speed>
  <fix>3d</fix>
</trkpt>
<trkpt lat="-27.274439" lon="151.290064">
  <ele>343.11</ele>
  <time>2026-09-01T19:54:53Z</time>
  <course>7.62</course>
  <speed>0.0</speed>
  <fix>3d</fix>
</trkpt>
<trkpt lat="-27.2744391" lon="151.290064">
  <ele>343.25</ele>
  <time>2026-09-01T19:54:53Z</time>
  <course>11.43</course>
  <speed>0.0</speed>
  <fix>3d</fix>
</trkpt>
<trkpt lat="-27.2744391" lon="151.290064">
  <ele>343.3</ele>
  <time>2026-09-01T19:54:53Z</time>
  <course>11.43</course>
  <speed>0.0</speed>
  <fix>3d</fix>
</trkpt>
<trkpt lat="-27.274439" lon="151.290064">
  <ele>343.11</ele>
  <time>2026-09-01T19:54:53Z</time>
  <course>7.62</course>
  <speed>0.0</speed>
  <fix>3d</fix>
</trkpt>
<trkpt lat="-27.2744391" lon="151.290064">
  <ele>343.3</ele>
  <time>2026-09-01T19:54:53Z</time>
  <course>11.43</course>
  <speed>0.0</speed>
  <fix>3d</fix>
</trkpt>
<trkpt lat="-27.2744391" lon="151.290064">
  <ele>343.42</ele>
  <time>2026-09-01T19:54:53Z</time>
  <course>11.44</course>
  <speed>0.02</speed>
  <fix>3d</fix>
</trkpt>
<trkpt lat="-27.274439" lon="151.290064">
  <ele>343.18</ele>
  <time>2026-09-01T19:54:53Z</time>
  <course>5.16</course>
  <speed>0.0</speed>
  <fix>3d</fix>
</trkpt>
<trkpt lat="-27.2744391" lon="151.290064">
  <ele>343.47</ele>
  <time>2026-09-01T19:54:53Z</time>
  <course>11.45</course>
  <speed>0.0316227766016838</speed>
  <fix>3d</fix>
</trkpt>
<trkpt lat="-27.274439" lon="151.290064">
  <ele>343.6</ele>
  <time>2026-09-01T19:54:53Z</time>
  <course>11.45</course>
  <speed>0.06082762530298219</speed>
  <fix>3d</fix>
</trkpt>
<trkpt lat="-27.274439" lon="151.290064">
  <ele>343.18</ele>
  <time>2026-09-01T19:54:53Z</time>
  <course>5.16</course>
  <speed>0.0</speed>
  <fix>3d</fix>
</trkpt>
<trkpt lat="-27.274439" lon="151.290064">
  <ele>343.61</ele>
  <time>2026-09-01T19:54:53Z</time>
  <course>11.46</course>
  <speed>0.06082762530298219</speed>
  <fix>3d</fix>
</trkpt>
<trkpt lat="-27.2744389" lon="151.290064">
  <ele>343.83</ele>
  <time>2026-09-01T19:54:53Z</time>
  <course>11.46</course>
  <speed>0.1019803902718557</speed>
  <fix>3d</fix>
</trkpt>
<trkpt lat="-27.274439" lon="151.290064">
  <ele>343.38</ele>
  <time>2026-09-01T19:54:53Z</time>
  <course>3.97</course>
  <speed>0.04</speed>
  <fix>3d</fix>
</trkpt>
<trkpt lat="-27.2744389" lon="151.290064">
  <ele>343.84</ele>
  <time>2026-09-01T19:54:53Z</time>
  <course>11.46</course>
  <speed>0.1019803902718557</speed>
  <fix>3d</fix>
</trkpt>
<trkpt lat="-27.2744388" lon="151.290064">
  <ele>344.08</ele>
  <time>2026-09-01T19:54:53Z</time>
  <course>11.45</course>
  <speed>0.1414213562373095</speed>
  <fix>3d</fix>
</trkpt>
<trkpt lat="-27.274439" lon="151.290064">
  <ele>343.38</ele>
  <time>2026-09-01T19:54:53Z</time>
  <course>3.97</course>
  <speed>0.04</speed>
  <fix>3d</fix>
</trkpt>
<trkpt lat="-27.2744388" lon="151.290064">
  <ele>344.14</ele>
  <time>2026-09-01T19:54:53Z</time>
  <course>11.45</course>
  <speed>0.15132745950421556</speed>
  <fix>3d</fix>
</trkpt>
<trkpt lat="-27.2744387" lon="151.290064">
  <ele>344.35</ele>
  <time>2026-09-01T19:54:53Z</time>
  <course>11.43</course>
  <speed>0.1824828759089466</speed>
  <fix>3d</fix>
</trkpt>
<trkpt lat="-27.2744389" lon="151.290064">
  <ele>343.77</ele>
  <time>2026-09-01T19:54:53Z</time>
  <course>4.39</course>
  <speed>0.11</speed>
  <fix>3d</fix>
</trkpt>
<trkpt lat="-27.2744386" lon="151.2900641">
  <ele>344.42</ele>
  <time>2026-09-01T19:54:53Z</time>
  <course>11.43</course>
  <speed>0.19235384061671343</speed>
  <fix>3d</fix>
</trkpt>
<trkpt lat="-27.2744385" lon="151.2900641">
  <ele>344.62</ele>
  <time>2026-09-01T19:54:53Z</time>
  <course>11.41</course>
  <speed>0.2220360331117452</speed>
  <fix>3d</fix>
</trkpt>
<trkpt lat="-27.2744389" lon="151.290064">
  <ele>343.77</ele>
  <time>2026-09-01T19:54:53Z</time>
  <course>4.39</course>
  <speed>0.11</speed>
  <fix>3d</fix>
</trkpt>
<trkpt lat="-27.2744384" lon="151.2900641">
  <ele>344.71</ele>
  <time>2026-09-01T19:54:53Z</time>
  <course>11.4</course>
  <speed>0.23345235059857505</speed>
  <fix>3d</fix>
</trkpt>
<trkpt lat="-27.2744383" lon="151.2900641">
  <ele>344.91</ele>
  <time>2026-09-01T19:54:53Z</time>
  <course>11.38</course>
  <speed>0.25317977802344327</speed>
  <fix>3d</fix>
</trkpt>
<trkpt lat="-27.2744387" lon="151.290064">
  <ele>344.28</ele>
  <time>2026-09-01T19:54:53Z</time>
  <course>5.01</course>
  <speed>0.19</speed>
  <fix>3d</fix>
</trkpt>
<trkpt lat="-27.2744382" lon="151.2900641">
  <ele>344.99</ele>
  <time>2026-09-01T19:54:53Z</time>
  <course>11.37</course>
  <speed>0.26305892875931813</speed>
  <fix>3d</fix>
</trkpt>
<trkpt lat="-27.274438" lon="151.2900641">
  <ele>345.21</ele>
  <time>2026-09-01T19:54:53Z</time>
  <course>10.47</course>
  <speed>0.2942787793912432</speed>
  <fix>3d</fix>
</trkpt>
<trkpt lat="-27.2744387" lon="151.290064">
  <ele>344.28</ele>
  <time>2026-09-01T19:54:53Z</time>
  <course>5.01</course>
  <speed>0.19</speed>
  <fix>3d</fix>
</trkpt>
<trkpt lat="-27.2744379" lon="151.2900641">
  <ele>345.3</ele>
  <time>2026-09-01T19:54:53Z</time>
  <course>10.47</course>
  <speed>0.304138126514911</speed>
  <fix>3d</fix>
</trkpt>
<trkpt lat="-27.2744378" lon="151.2900642">
  <ele>345.52</ele>
  <time>2026-09-01T19:54:53Z</time>
  <course>10.46</course>
  <speed>0.3238826948140329</speed>
  <fix>3d</fix>
</trkpt>
<trkpt lat="-27.2744382" lon="151.290064">
  <ele>344.85</ele>
  <time>2026-09-01T19:54:53Z</time>
  <course>5.6</course>
  <speed>0.26</speed>
  <fix>3d</fix>
</trkpt>
<trkpt lat="-27.2744377" lon="151.2900642">
  <ele>345.61</ele>
  <time>2026-09-01T19:54:53Z</time>
  <course>10.46</course>
  <speed>0.33376638536557274</speed>
  <fix>3d</fix>
</trkpt>
<trkpt lat="-27.2744374" lon="151.2900642">
  <ele>345.84</ele>
  <time>2026-09-01T19:54:53Z</time>
  <course>10.46</course>
  <speed>0.3535533905932738</speed>
  <fix>3d</fix>
</trkpt>
<trkpt lat="-27.2744382" lon="151.290064">
  <ele>344.85</ele>
  <time>2026-09-01T19:54:53Z</time>
  <course>5.6</course>
  <speed>0.26</speed>
  <fix>3d</fix>
</trkpt>
<trkpt lat="-27.2744374" lon="151.2900642">
  <ele>345.93</ele>
  <time>2026-09-01T19:54:53Z</time>
  <course>10.46</course>
  <speed>0.3535533905932738</speed>
  <fix>3d</fix>
</trkpt>
<trkpt lat="-27.2744371" lon="151.2900642">
  <ele>346.16</ele>
  <time>2026-09-01T19:54:53Z</time>
  <course>10.45</course>
  <speed>0.37483329627982626</speed>
  <fix>3d</fix>
</trkpt>
<trkpt lat="-27.2744377" lon="151.290064">
  <ele>345.45</ele>
  <time>2026-09-01T19:54:53Z</time>
  <course>6.14</course>
  <speed>0.33</speed>
  <fix>3d</fix>
</trkpt>
<trkpt lat="-27.274437" lon="151.2900642">
  <ele>346.26</ele>
  <time>2026-09-01T19:54:53Z</time>
  <course>10.45</course>
  <speed>0.38470768123342686</speed>
  <fix>3d</fix>
</trkpt>
<trkpt lat="-27.2744368" lon="151.2900643">
  <ele>346.49</ele>
  <time>2026-09-01T19:54:53Z</time>
  <course>10.45</course>
  <speed>0.3945883931389772</speed>
  <fix>3d</fix>
</trkpt>
<trkpt lat="-27.2744377" lon="151.290064">
  <ele>345.45</ele>
  <time>2026-09-01T19:54:53Z</time>
  <course>6.14</course>
  <speed>0.33</speed>
  <fix>3d</fix>
</trkpt>
<trkpt lat="-27.2744367" lon="151.2900643">
  <ele>346.57</ele>
  <time>2026-09-01T19:54:53Z</time>
  <course>10.46</course>
  <speed>0.3945883931389772</speed>
  <fix>3d</fix>
</trkpt>
<trkpt lat="-27.2744364" lon="151.2900643">
  <ele>346.81</ele>
  <time>2026-09-01T19:54:53Z</time>
  <course>10.45</course>
  <speed>0.4044749683231337</speed>
  <fix>3d</fix>
</trkpt>
<trkpt lat="-27.274437" lon="151.2900641">
  <ele>346.08</ele>
  <time>2026-09-01T19:54:53Z</time>
  <course>6.56</course>
  <speed>0.38</speed>
  <fix>3d</fix>
</trkpt>
<trkpt lat="-27.2744364" lon="151.2900643">
  <ele>346.81</ele>
  <time>2026-09-01T19:54:53Z</time>
  <course>10.45</course>
  <speed>0.4044749683231337</speed>
  <fix>3d</fix>
</trkpt>
<trkpt lat="-27.274436" lon="151.2900644">
  <ele>347.12</ele>
  <time>2026-09-01T19:54:53Z</time>
  <course>10.46</course>
  <speed>0.4143669871020132</speed>
  <fix>3d</fix>
</trkpt>
<trkpt lat="-27.274437" lon="151.2900641">
  <ele>346.08</ele>
  <time>2026-09-01T19:54:53Z</time>
  <course>6.56</course>
  <speed>0.38</speed>
  <fix>3d</fix>
</trkpt>
<trkpt lat="-27.274436" lon="151.2900644">
  <ele>347.13</ele>
  <time>2026-09-01T19:54:53Z</time>
  <course>10.46</course>
  <speed>0.4143669871020132</speed>
  <fix>3d</fix>
</trkpt>
<trkpt lat="-27.2744357" lon="151.2900644">
  <ele>347.43</ele>
  <time>2026-09-01T19:54:53Z</time>
  <course>10.46</course>
  <speed>0.4143669871020132</speed>
  <fix>3d</fix>
</trkpt>
<trkpt lat="-27.2744363" lon="151.2900642">
  <ele>346.7</ele>
  <time>2026-09-01T19:54:53Z</time>
  <course>6.91</course>
  <speed>0.41</speed>
  <fix>3d</fix>
</trkpt>
<trkpt lat="-27.2744356" lon="151.2900644">
  <ele>347.46</ele>
  <time>2026-09-01T19:54:53Z</time>
  <course>10.46</course>
  <speed>0.4143669871020132</speed>
  <fix>3d</fix>
</trkpt>
<trkpt lat="-27.2744353" lon="151.2900644">
  <ele>347.73</ele>
  <time>2026-09-01T19:54:53Z</time>
  <course>10.47</course>
  <speed>0.4044749683231337</speed>
  <fix>3d</fix>
</trkpt>
<trkpt lat="-27.2744363" lon="151.2900642">
  <ele>346.7</ele>
  <time>2026-09-01T19:54:53Z</time>
  <course>6.91</course>
  <speed>0.41</speed>
  <fix>3d</fix>
</trkpt>
<trkpt lat="-27.2744352" lon="151.2900644">
  <ele>347.81</ele>
  <time>2026-09-01T19:54:53Z</time>
  <course>10.48</course>
  <speed>0.4044749683231337</speed>
  <fix>3d</fix>
</trkpt>
<trkpt lat="-27.2744349" lon="151.2900645">
  <ele>348.03</ele>
  <time>2026-09-01T19:54:53Z</time>
  <course>10.48</course>
  <speed>0.4044749683231337</speed>
  <fix>3d</fix>
</trkpt>
<trkpt lat="-27.2744355" lon="151.2900643">
  <ele>347.31</ele>
  <time>2026-09-01T19:54:53Z</time>
  <course>7.3</course>
  <speed>0.42</speed>
  <fix>3d</fix>
</trkpt>
<trkpt lat="-27.2744348" lon="151.2900645">
  <ele>348.1</ele>
  <time>2026-09-01T19:54:53Z</time>
  <course>10.49</course>
  <speed>0.3945883931389772</speed>
  <fix>3d</fix>
</trkpt>
<trkpt lat="-27.2744346" lon="151.2900645">
  <ele>348.31</ele>
  <time>2026-09-01T19:54:53Z</time>
  <course>10.5</course>
  <speed>0.383275357934736</speed>
  <fix>3d</fix>
</trkpt>
<trkpt lat="-27.2744355" lon="151.2900643">
  <ele>347.31</ele>
  <time>2026-09-01T19:54:53Z</time>
  <course>7.3</course>
  <speed>0.42</speed>
  <fix>3d</fix>
</trkpt>
<trkpt lat="-27.2744342" lon="151.2900646">
  <ele>348.59</ele>
  <time>2026-09-01T19:54:53Z</time>
  <course>10.51</course>
  <speed>0.3634556369077249</speed>
  <fix>3d</fix>
</trkpt>
<trkpt lat="-27.2744348" lon="151.2900644">
  <ele>347.89</ele>
  <time>2026-09-01T19:54:53Z</time>
  <course>7.78</course>
  <speed>0.41</speed>
  <fix>3d</fix>
</trkpt>
<trkpt lat="-27.2744339" lon="151.2900646">
  <ele>348.86</ele>
  <time>2026-09-01T19:54:53Z</time>
  <course>10.53</course>
  <speed>0.34365680554879163</speed>
  <fix>3d</fix>
</trkpt>
<trkpt lat="-27.2744348" lon="151.2900644">
  <ele>347.89</ele>
  <time>2026-09-01T19:54:53Z</time>
  <course>7.78</course>
  <speed>0.41</speed>
  <fix>3d</fix>
</trkpt>
<trkpt lat="-27.2744336" lon="151.2900646">
  <ele>349.12</ele>
  <time>2026-09-01T19:54:53Z</time>
  <course>10.55</course>
  <speed>0.32249030993194194</speed>
  <fix>3d</fix>
</trkpt>
<trkpt lat="-27.2744341" lon="151.2900646">
  <ele>348.45</ele>
  <time>2026-09-01T19:54:53Z</time>
  <course>8.42</course>
  <speed>0.38</speed>
  <fix>3d</fix>
</trkpt>
<trkpt lat="-27.2744333" lon="151.2900647">
  <ele>349.36</ele>
  <time>2026-09-01T19:54:53Z</time>
  <course>10.57</course>
  <speed>0.29274562336608895</speed>
  <fix>3d</fix>
</trkpt>
<trkpt lat="-27.2744341" lon="151.2900646">
  <ele>348.45</ele>
  <time>2026-09-01T19:54:53Z</time>
  <course>8.42</course>
  <speed>0.38</speed>
  <fix>3d</fix>
</trkpt>
<trkpt lat="-27.274433" lon="151.2900647">
  <ele>349.59</ele>
  <time>2026-09-01T19:54:53Z</time>
  <course>10.59</course>
  <speed>0.26305892875931813</speed>
  <fix>3d</fix>
</trkpt>
<trkpt lat="-27.2744335" lon="151.2900647">
  <ele>348.96</ele>
  <time>2026-09-01T19:54:53Z</time>
  <course>9.28</course>
  <speed>0.34</speed>
  <fix>3d</fix>
</trkpt>
<trkpt lat="-27.2744328" lon="151.2900648">
  <ele>349.79</ele>
  <time>2026-09-01T19:54:53Z</time>
  <course>10.61</course>
  <speed>0.2220360331117452</speed>
  <fix>3d</fix>
</trkpt>
<trkpt lat="-27.2744335" lon="151.2900647">
  <ele>348.96</ele>
  <time>2026-09-01T19:54:53Z</time>
  <course>9.28</course>
  <speed>0.34</speed>
  <fix>3d</fix>
</trkpt>
<trkpt lat="-27.2744326" lon="151.2900648">
  <ele>349.97</ele>
  <time>2026-09-01T19:54:53Z</time>
  <course>10.62</course>
  <speed>0.1824828759089466</speed>
  <fix>3d</fix>
</trkpt>
<trkpt lat="-27.2744329" lon="151.2900648">
  <ele>349.41</ele>
  <time>2026-09-01T19:54:53Z</time>
  <course>10.57</course>
  <speed>0.28</speed>
  <fix>3d</fix>
</trkpt>
<trkpt lat="-27.2744324" lon="151.2900648">
  <ele>350.12</ele>
  <time>2026-09-01T19:54:53Z</time>
  <course>10.64</course>
  <speed>0.1414213562373095</speed>
  <fix>3d</fix>
</trkpt>
<trkpt lat="-27.2744329" lon="151.2900648">
  <ele>349.41</ele>
  <time>2026-09-01T19:54:53Z</time>
  <course>10.57</course>
  <speed>0.28</speed>
  <fix>3d</fix>
</trkpt>
<trkpt lat="-27.2744323" lon="151.2900649">
  <ele>350.25</ele>
  <time>2026-09-01T19:54:53Z</time>
  <course>10.64</course>
  <speed>0.09055385138137417</speed>
  <fix>3d</fix>
</trkpt>
<trkpt lat="-27.2744324" lon="151.2900649">
  <ele>349.79</ele>
  <time>2026-09-01T19:54:53Z</time>
  <course>13.0</course>
  <speed>0.2</speed>
  <fix>3d</fix>
</trkpt>
<trkpt lat="-27.2744322" lon="151.2900649">
  <ele>350.34</ele>
  <time>2026-09-01T19:54:53Z</time>
  <course>10.65</course>
  <speed>0.04</speed>
  <fix>3d</fix>
</trkpt>
<trkpt lat="-27.2744324" lon="151.2900649">
  <ele>349.79</ele>
  <time>2026-09-01T19:54:53Z</time>
  <course>13.0</course>
  <speed>0.2</speed>
  <fix>3d</fix>
</trkpt>
<trkpt lat="-27.2744322" lon="151.2900649">
  <ele>350.4</ele>
  <time>2026-09-01T19:54:53Z</time>
  <course>10.65</course>
  <speed>0.0</speed>
  <fix>3d</fix>
</trkpt>
<trkpt lat="-27.2744322" lon="151.290065">
  <ele>350.06</ele>
  <time>2026-09-01T19:54:53Z</time>
  <course>19.91</course>
  <speed>0.1</speed>
  <fix>3d</fix>
</trkpt>
<trkpt lat="-27.2744322" lon="151.2900649">
  <ele>350.42</ele>
  <time>2026-09-01T19:54:53Z</time>
  <course>10.65</course>
  <speed>0.04</speed>
  <fix>3d</fix>
</trkpt>
<trkpt lat="-27.2744322" lon="151.290065">
  <ele>350.06</ele>
  <time>2026-09-01T19:54:53Z</time>
  <course>19.91</course>
  <speed>0.1</speed>
  <fix>3d</fix>
</trkpt>
<trkpt lat="-27.2744323" lon="151.2900649">
  <ele>350.42</ele>
  <time>2026-09-01T19:54:53Z</time>
  <course>10.63</course>
  <speed>0.09</speed>
  <fix>3d</fix>
</trkpt>
<trkpt lat="-27.2744321" lon="151.290065">
  <ele>350.19</ele>
  <time>2026-09-01T19:54:53Z</time>
  <course>84.07</course>
  <speed>0.02</speed>
  <fix>3d</fix>
</trkpt>
<trkpt lat="-27.2744323" lon="151.290065">
  <ele>350.38</ele>
  <time>2026-09-01T19:54:53Z</time>
  <course>10.64</course>
  <speed>0.130384048104053</speed>
  <fix>3d</fix>
</trkpt>
<trkpt lat="-27.2744321" lon="151.290065">
  <ele>350.19</ele>
  <time>2026-09-01T19:54:53Z</time>
  <course>84.07</course>
  <speed>0.02</speed>
  <fix>3d</fix>
</trkpt>
<trkpt lat="-27.2744324" lon="151.290065">
  <ele>350.32</ele>
  <time>2026-09-01T19:54:53Z</time>
  <course>10.71</course>
  <speed>0.1711724276862369</speed>
  <fix>3d</fix>
</trkpt>
<trkpt lat="-27.2744322" lon="151.2900651">
  <ele>350.2</ele>
  <time>2026-09-01T19:54:53Z</time>
  <course>169.99</course>
  <speed>0.09</speed>
  <fix>3d</fix>
</trkpt>
<trkpt lat="-27.2744326" lon="151.290065">
  <ele>350.23</ele>
  <time>2026-09-01T19:54:53Z</time>
  <course>10.91</course>
  <speed>0.21377558326431947</speed>
  <fix>3d</fix>
</trkpt>
<trkpt lat="-27.2744322" lon="151.2900651">
  <ele>350.2</ele>
  <time>2026-09-01T19:54:53Z</time>
  <course>169.99</course>
  <speed>0.09</speed>
  <fix>3d</fix>
</trkpt>
<trkpt lat="-27.2744328" lon="151.290065">
  <ele>350.14</ele>
  <time>2026-09-01T19:54:53Z</time>
  <course>11.26</course>
  <speed>0.24738633753705963</speed>
  <fix>3d</fix>
</trkpt>
<trkpt lat="-27.2744324" lon="151.2900651">
  <ele>350.1</ele>
  <time>2026-09-01T19:54:53Z</time>
  <course>181.01</course>
  <speed>0.17</speed>
  <fix>3d</fix>
</trkpt>
<trkpt lat="-27.274433" lon="151.2900649">
  <ele>350.04</ele>
  <time>2026-09-01T19:54:54Z</time>
  <course>11.69</course>
  <speed>0.2692582403567252</speed>
  <fix>3d</fix>
</trkpt>
<trkpt lat="-27.2744324" lon="151.2900651">
  <ele>350.1</ele>
  <time>2026-09-01T19:54:54Z</time>
  <course>181.01</course>
  <speed>0.17</speed>
  <fix>3d</fix>
</trkpt>
<trkpt lat="-27.2744332" lon="151.2900649">
  <ele>349.93</ele>
  <time>2026-09-01T19:54:54Z</time>
  <course>11.99</course>
  <speed>0.29120439557122074</speed>
  <fix>3d</fix>
</trkpt>
<trkpt lat="-27.2744327" lon="151.2900651">
  <ele>349.93</ele>
  <time>2026-09-01T19:54:54Z</time>
  <course>187.74</course>
  <speed>0.24</speed>
  <fix>3d</fix>
</trkpt>
<trkpt lat="-27.2744335" lon="151.2900648">
  <ele>349.82</ele>
  <time>2026-09-01T19:54:54Z</time>
  <course>12.11</course>
  <speed>0.32015621187164245</speed>
  <fix>3d</fix>
</trkpt>
<trkpt lat="-27.2744327" lon="151.2900651">
  <ele>349.93</ele>
  <time>2026-09-01T19:54:54Z</time>
  <course>187.74</course>
  <speed>0.24</speed>
  <fix>3d</fix>
</trkpt>
<trkpt lat="-27.2744338" lon="151.2900648">
  <ele>349.72</ele>
  <time>2026-09-01T19:54:54Z</time>
  <course>12.07</course>
  <speed>0.3298484500494128</speed>
  <fix>3d</fix>
</trkpt>
<trkpt lat="-27.2744332" lon="151.290065">
  <ele>349.71</ele>
  <time>2026-09-01T19:54:54Z</time>
  <course>190.71</course>
  <speed>0.3</speed>
  <fix>3d</fix>
</trkpt>
<trkpt lat="-27.2744341" lon="151.2900647">
  <ele>349.61</ele>
  <time>2026-09-01T19:54:54Z</time>
  <course>11.89</course>
  <speed>0.34928498393145957</speed>
  <fix>3d</fix>
</trkpt>
<trkpt lat="-27.2744332" lon="151.290065">
  <ele>349.71</ele>
  <time>2026-09-01T19:54:54Z</time>
  <course>190.71</course>
  <speed>0.3</speed>
  <fix>3d</fix>
</trkpt>
<trkpt lat="-27.2744344" lon="151.2900646">
  <ele>349.51</ele>
  <time>2026-09-01T19:54:54Z</time>
  <course>11.6</course>
  <speed>0.366742416417845</speed>
  <fix>3d</fix>
</trkpt>
<trkpt lat="-27.2744338" lon="151.2900649">
  <ele>349.49</ele>
  <time>2026-09-01T19:54:54Z</time>
  <course>190.8</course>
  <speed>0.34</speed>
  <fix>3d</fix>
</trkpt>
<trkpt lat="-27.2744347" lon="151.2900646">
  <ele>349.42</ele>
  <time>2026-09-01T19:54:54Z</time>
  <course>11.26</course>
  <speed>0.37656340767525465</speed>
  <fix>3d</fix>
</trkpt>
<trkpt lat="-27.2744338" lon="151.2900649">
  <ele>349.49</ele>
  <time>2026-09-01T19:54:54Z</time>
  <course>190.8</course>
  <speed>0.34</speed>
  <fix>3d</fix>
</trkpt>
<trkpt lat="-27.274435" lon="151.2900646">
  <ele>349.34</ele>
  <time>2026-09-01T19:54:54Z</time>
  <course>10.92</course>
  <speed>0.38470768123342686</speed>
  <fix>3d</fix>
</trkpt>
<trkpt lat="-27.2744344" lon="151.2900648">
  <ele>349.3</ele>
  <time>2026-09-01T19:54:54Z</time>
  <course>190.07</course>
  <speed>0.37</speed>
  <fix>3d</fix>
</trkpt>
<trkpt lat="-27.2744354" lon="151.2900645">
  <ele>349.27</ele>
  <time>2026-09-01T19:54:54Z</time>
  <course>10.62</course>
  <speed>0.3945883931389772</speed>
  <fix>3d</fix>
</trkpt>
<trkpt lat="-27.2744344" lon="151.2900648">
  <ele>349.3</ele>
  <time>2026-09-01T19:54:54Z</time>
  <course>190.07</course>
  <speed>0.37</speed>
  <fix>3d</fix>
</trkpt>
<trkpt lat="-27.2744357" lon="151.2900645">
  <ele>349.2</ele>
  <time>2026-09-01T19:54:54Z</time>
  <course>10.4</course>
  <speed>0.39319206502675</speed>
  <fix>3d</fix>
</trkpt>
<trkpt lat="-27.2744351" lon="151.2900646">
  <ele>349.13</ele>
  <time>2026-09-01T19:54:54Z</time>
  <course>189.11</course>
  <speed>0.39</speed>
  <fix>3d</fix>
</trkpt>
<trkpt lat="-27.2744361" lon="151.2900644">
  <ele>349.14</ele>
  <time>2026-09-01T19:54:54Z</time>
  <course>10.26</course>
  <speed>0.39319206502675</speed>
  <fix>3d</fix>
</trkpt>
<trkpt lat="-27.2744351" lon="151.2900646">
  <ele>349.13</ele>
  <time>2026-09-01T19:54:54Z</time>
  <course>189.11</course>
  <speed>0.39</speed>
  <fix>3d</fix>
</trkpt>
<trkpt lat="-27.2744364" lon="151.2900644">
  <ele>349.09</ele>
  <time>2026-09-01T19:54:54Z</time>
  <course>10.22</course>
  <speed>0.39319206502675</speed>
  <fix>3d</fix>
</trkpt>
<trkpt lat="-27.2744358" lon="151.2900645">
  <ele>349.0</ele>
  <time>2026-09-01T19:54:54Z</time>
  <course>188.37</course>
  <speed>0.4</speed>
  <fix>3d</fix>
</trkpt>
<trkpt lat="-27.2744368" lon="151.2900643">
  <ele>349.05</ele>
  <time>2026-09-01T19:54:54Z</time>
  <course>10.24</course>
  <speed>0.3920459156782532</speed>
  <fix>3d</fix>
</trkpt>
<trkpt lat="-27.2744358" lon="151.2900645">
  <ele>349.0</ele>
  <time>2026-09-01T19:54:54Z</time>
  <course>188.37</course>
  <speed>0.4</speed>
  <fix>3d</fix>
</trkpt>
<trkpt lat="-27.2744371" lon="151.2900643">
  <ele>349.01</ele>
  <time>2026-09-01T19:54:54Z</time>
  <course>10.31</course>
  <speed>0.382099463490856</speed>
  <fix>3d</fix>
</trkpt>
<trkpt lat="-27.2744365" lon="151.2900644">
  <ele>348.89</ele>
  <time>2026-09-01T19:54:54Z</time>
  <course>188.03</course>
  <speed>0.4</speed>
  <fix>3d</fix>
</trkpt>
<trkpt lat="-27.2744375" lon="151.2900643">
  <ele>348.97</ele>
  <time>2026-09-01T19:54:54Z</time>
  <course>10.41</course>
  <speed>0.382099463490856</speed>
  <fix>3d</fix>
</trkpt>
<trkpt lat="-27.2744365" lon="151.2900644">
  <ele>348.89</ele>
  <time>2026-09-01T19:54:54Z</time>
  <course>188.03</course>
  <speed>0.4</speed>
  <fix>3d</fix>
</trkpt>
<trkpt lat="-27.2744378" lon="151.2900642">
  <ele>348.94</ele>
  <time>2026-09-01T19:54:54Z</time>
  <course>10.5</course>
  <speed>0.3721558813185679</speed>
  <fix>3d</fix>
</trkpt>
<trkpt lat="-27.2744372" lon="151.2900643">
  <ele>348.81</ele>
  <time>2026-09-01T19:54:54Z</time>
  <course>188.03</course>
  <speed>0.39</speed>
  <fix>3d</fix>
</trkpt>
<trkpt lat="-27.2744382" lon="151.2900642">
  <ele>348.9</ele>
  <time>2026-09-01T19:54:54Z</time>
  <course>10.57</course>
  <speed>0.35128336140500593</speed>
  <fix>3d</fix>
</trkpt>
<trkpt lat="-27.2744372" lon="151.2900643">
  <ele>348.81</ele>
  <time>2026-09-01T19:54:54Z</time>
  <course>188.03</course>
  <speed>0.39</speed>
  <fix>3d</fix>
</trkpt>
<trkpt lat="-27.2744385" lon="151.2900641">
  <ele>348.87</ele>
  <time>2026-09-01T19:54:54Z</time>
  <course>10.6</course>
  <speed>0.34132096331752027</speed>
  <fix>3d</fix>
</trkpt>
<trkpt lat="-27.2744379" lon="151.2900642">
  <ele>348.74</ele>
  <time>2026-09-01T19:54:54Z</time>
  <course>188.15</course>
  <speed>0.37</speed>
  <fix>3d</fix>
</trkpt>
<trkpt lat="-27.2744388" lon="151.2900641">
  <ele>348.83</ele>
  <time>2026-09-01T19:54:54Z</time>
  <course>10.58</course>
  <speed>0.3306055050963308</speed>
  <fix>3d</fix>
</trkpt>
<trkpt lat="-27.2744379" lon="151.2900642">
  <ele>348.74</ele>
  <time>2026-09-01T19:54:54Z</time>
  <course>188.15</course>
  <speed>0.37</speed>
  <fix>3d</fix>
</trkpt>
<trkpt lat="-27.2744391" lon="151.2900641">
  <ele>348.8</ele>
  <time>2026-09-01T19:54:54Z</time>
  <course>10.53</course>
  <speed>0.31064449134018135</speed>
  <fix>3d</fix>
</trkpt>
<trkpt lat="-27.2744386" lon="151.2900641">
  <ele>348.67</ele>
  <time>2026-09-01T19:54:54Z</time>
  <course>188.21</course>
  <speed>0.34</speed>
  <fix>3d</fix>
</trkpt>
<trkpt lat="-27.2744393" lon="151.2900641">
  <ele>348.76</ele>
  <time>2026-09-01T19:54:54Z</time>
  <course>10.44</course>
  <speed>0.29017236257093815</speed>
  <fix>3d</fix>
</trkpt>
<trkpt lat="-27.2744386" lon="151.2900641">
  <ele>348.67</ele>
  <time>2026-09-01T19:54:54Z</time>
  <course>188.21</course>
  <speed>0.34</speed>
  <fix>3d</fix>
</trkpt>
<trkpt lat="-27.2744396" lon="151.290064">
  <ele>348.72</ele>
  <time>2026-09-01T19:54:54Z</time>
  <course>10.33</course>
  <speed>0.27018512172212594</speed>
  <fix>3d</fix>
</trkpt>
<trkpt lat="-27.2744391" lon="151.290064">
  <ele>348.6</ele>
  <time>2026-09-01T19:54:54Z</time>
  <course>188.1</course>
  <speed>0.31</speed>
  <fix>3d</fix>
</trkpt>
<trkpt lat="-27.2744398" lon="151.290064">
  <ele>348.68</ele>
  <time>2026-09-01T19:54:54Z</time>
  <course>10.23</course>
  <speed>0.25</speed>
  <fix>3d</fix>
</trkpt>
<trkpt lat="-27.2744391" lon="151.290064">
  <ele>348.6</ele>
  <time>2026-09-01T19:54:54Z</time>
  <course>188.1</course>
  <speed>0.31</speed>
  <fix>3d</fix>
</trkpt>
<trkpt lat="-27.27444" lon="151.290064">
  <ele>348.64</ele>
  <time>2026-09-01T19:54:54Z</time>
  <course>10.13</course>
  <speed>0.23</speed>
  <fix>3d</fix>
</trkpt>
<trkpt lat="-27.2744396" lon="151.2900639">
  <ele>348.53</ele>
  <time>2026-09-01T19:54:54Z</time>
  <course>187.85</course>
  <speed>0.27</speed>
  <fix>3d</fix>
</trkpt>
<trkpt lat="-27.2744402" lon="151.290064">
  <ele>348.59</ele>
  <time>2026-09-01T19:54:54Z</time>
  <course>10.06</course>
  <speed>0.21</speed>
  <fix>3d</fix>
</trkpt>
<trkpt lat="-27.2744396" lon="151.2900639">
  <ele>348.53</ele>
  <time>2026-09-01T19:54:54Z</time>
  <course>187.85</course>
  <speed>0.27</speed>
  <fix>3d</fix>
</trkpt>
<trkpt lat="-27.2744404" lon="151.290064">
  <ele>348.54</ele>
  <time>2026-09-01T19:54:54Z</time>
  <course>10.0</course>
  <speed>0.19</speed>
  <fix>3d</fix>
</trkpt>
<trkpt lat="-27.2744401" lon="151.2900639">
  <ele>348.44</ele>
  <time>2026-09-01T19:54:54Z</time>
  <course>187.55</course>
  <speed>0.22</speed>
  <fix>3d</fix>
</trkpt>
<trkpt lat="-27.2744406" lon="151.2900639">
  <ele>348.49</ele>
  <time>2026-09-01T19:54:54Z</time>
  <course>9.96</course>
  <speed>0.17029386365926402</speed>
  <fix>3d</fix>
</trkpt>
<trkpt lat="-27.2744401" lon="151.2900639">
  <ele>348.44</ele>
  <time>2026-09-01T19:54:54Z</time>
  <course>187.55</course>
  <speed>0.22</speed>
  <fix>3d</fix>
</trkpt>
<trkpt lat="-27.2744407" lon="151.2900639">
  <ele>348.44</ele>
  <time>2026-09-01T19:54:54Z</time>
  <course>9.94</course>
  <speed>0.140356688476182</speed>
  <fix>3d</fix>
</trkpt>
<trkpt lat="-27.2744404" lon="151.2900638">
  <ele>348.34</ele>
  <time>2026-09-01T19:54:54Z</time>
  <course>187.19</course>
  <speed>0.18</speed>
  <fix>3d</fix>
</trkpt>
<trkpt lat="-27.2744408" lon="151.2900639">
  <ele>348.38</ele>
  <time>2026-09-01T19:54:54Z</time>
  <course>9.93</course>
  <speed>0.12165525060596438</speed>
  <fix>3d</fix>
</trkpt>
<trkpt lat="-27.2744404" lon="151.2900638">
  <ele>348.34</ele>
  <time>2026-09-01T19:54:54Z</time>
  <course>187.19</course>
  <speed>0.18</speed>
  <fix>3d</fix>
</trkpt>
<trkpt lat="-27.2744409" lon="151.2900639">
  <ele>348.33</ele>
  <time>2026-09-01T19:54:54Z</time>
  <course>9.91</course>
  <speed>0.09219544457292887</speed>
  <fix>3d</fix>
</trkpt>
<trkpt lat="-27.2744407" lon="151.2900637">
  <ele>348.24</ele>
  <time>2026-09-01T19:54:54Z</time>
  <course>186.74</course>
  <speed>0.13</speed>
  <fix>3d</fix>
</trkpt>
<trkpt lat="-27.274441" lon="151.2900639">
  <ele>348.28</ele>
  <time>2026-09-01T19:54:54Z</time>
  <course>9.91</course>
  <speed>0.07280109889280519</speed>
  <fix>3d</fix>
</trkpt>
<trkpt lat="-27.2744407" lon="151.2900637">
  <ele>348.24</ele>
  <time>2026-09-01T19:54:54Z</time>
  <course>186.74</course>
  <speed>0.13</speed>
  <fix>3d</fix>
</trkpt>
<trkpt lat="-27.274441" lon="151.2900639">
  <ele>348.22</ele>
  <time>2026-09-01T19:54:54Z</time>
  <course>9.89</course>
  <speed>0.05</speed>
  <fix>3d</fix>
</trkpt>
<trkpt lat="-27.2744409" lon="151.2900637">
  <ele>348.13</ele>
  <time>2026-09-01T19:54:54Z</time>
  <course>185.89</course>
  <speed>0.08</speed>
  <fix>3d</fix>
</trkpt>
<trkpt lat="-27.2744411" lon="151.2900639">
  <ele>348.17</ele>
  <time>2026-09-01T19:54:54Z</time>
  <course>9.9</course>
  <speed>0.03605551275463989</speed>
  <fix>3d</fix>
</trkpt>
<trkpt lat="-27.2744409" lon="151.2900637">
  <ele>348.13</ele>
  <time>2026-09-01T19:54:54Z</time>
  <course>185.89</course>
  <speed>0.08</speed>
  <fix>3d</fix>
</trkpt>
<trkpt lat="-27.2744411" lon="151.2900639">
  <ele>348.11</ele>
  <time>2026-09-01T19:54:54Z</time>
  <course>9.96</course>
  <speed>0.03</speed>
  <fix>3d</fix>
</trkpt>
<trkpt lat="-27.274441" lon="151.2900637">
  <ele>348.03</ele>
  <time>2026-09-01T19:54:54Z</time>
  <course>184.82</course>
  <speed>0.02</speed>
  <fix>3d</fix>
</trkpt>
<trkpt lat="-27.274441" lon="151.2900639">
  <ele>348.06</ele>
  <time>2026-09-01T19:54:54Z</time>
  <course>10.08</course>
  <speed>0.03605551275463989</speed>
  <fix>3d</fix>
</trkpt>
<trkpt lat="-27.274441" lon="151.2900637">
  <ele>348.03</ele>
  <time>2026-09-01T19:54:54Z</time>
  <course>184.82</course>
  <speed>0.02</speed>
  <fix>3d</fix>
</trkpt>
<trkpt lat="-27.274441" lon="151.2900639">
  <ele>348.01</ele>
  <time>2026-09-01T19:54:54Z</time>
  <course>10.21</course>
  <speed>0.05830951894845301</speed>
  <fix>3d</fix>
</trkpt>
<trkpt lat="-27.274441" lon="151.2900637">
  <ele>347.92</ele>
  <time>2026-09-01T19:54:54Z</time>
  <course>355.43</course>
  <speed>0.02</speed>
  <fix>3d</fix>
</trkpt>
<trkpt lat="-27.274441" lon="151.2900639">
  <ele>347.95</ele>
  <time>2026-09-01T19:54:54Z</time>
  <course>10.36</course>
  <speed>0.07280109889280519</speed>
  <fix>3d</fix>
</trkpt>
<trkpt lat="-27.274441" lon="151.2900637">
  <ele>347.92</ele>
  <time>2026-09-01T19:54:54Z</time>
  <course>355.43</course>
  <speed>0.02</speed>
  <fix>3d</fix>
</trkpt>
<trkpt lat="-27.2744409" lon="151.2900639">
  <ele>347.9</ele>
  <time>2026-09-01T19:54:54Z</time>
  <course>10.47</course>
  <speed>0.1019803902718557</speed>
  <fix>3d</fix>
</trkpt>
<trkpt lat="-27.274441" lon="151.2900637">
  <ele>347.82</ele>
  <time>2026-09-01T19:54:54Z</time>
  <course>356.35</course>
  <speed>0.07</speed>
  <fix>3d</fix>
</trkpt>
<trkpt lat="-27.2744408" lon="151.2900639">
  <ele>347.85</ele>
  <time>2026-09-01T19:54:54Z</time>
  <course>10.55</course>
  <speed>0.12165525060596438</speed>
  <fix>3d</fix>
</trkpt>
<trkpt lat="-27.274441" lon="151.2900637">
  <ele>347.82</ele>
  <time>2026-09-01T19:54:54Z</time>
  <course>356.35</course>
  <speed>0.07</speed>
  <fix>3d</fix>
</trkpt>
<trkpt lat="-27.2744407" lon="151.2900639">
  <ele>347.8</ele>
  <time>2026-09-01T19:54:54Z</time>
  <course>10.57</course>
  <speed>0.15132745950421556</speed>
  <fix>3d</fix>
</trkpt>
<trkpt lat="-27.2744409" lon="151.2900637">
  <ele>347.72</ele>
  <time>2026-09-01T19:54:54Z</time>
  <course>356.75</course>
  <speed>0.12</speed>
  <fix>3d</fix>
</trkpt>
<trkpt lat="-27.2744405" lon="151.2900639">
  <ele>347.75</ele>
  <time>2026-09-01T19:54:54Z</time>
  <course>10.58</course>
  <speed>0.1711724276862369</speed>
  <fix>3d</fix>
</trkpt>
<trkpt lat="-27.2744409" lon="151.2900637">
  <ele>347.72</ele>
  <time>2026-09-01T19:54:54Z</time>
  <course>356.75</course>
  <speed>0.12</speed>
  <fix>3d</fix>
</trkpt>
<trkpt lat="-27.2744403" lon="151.2900639">
  <ele>347.7</ele>
  <time>2026-09-01T19:54:54Z</time>
  <course>10.54</course>
  <speed>0.191049731745428</speed>
  <fix>3d</fix>
</trkpt>
<trkpt lat="-27.2744406" lon="151.2900637">
  <ele>347.62</ele>
  <time>2026-09-01T19:54:54Z</time>
  <course>357.02</course>
  <speed>0.17</speed>
  <fix>3d</fix>
</trkpt>
<trkpt lat="-27.2744402" lon="151.2900639">
  <ele>347.66</ele>
  <time>2026-09-01T19:54:54Z</time>
  <course>10.5</course>
  <speed>0.2109502310972899</speed>
  <fix>3d</fix>
</trkpt>
<trkpt lat="-27.2744406" lon="151.2900637">
  <ele>347.62</ele>
  <time>2026-09-01T19:54:54Z</time>
  <course>357.02</course>
  <speed>0.17</speed>
  <fix>3d</fix>
</trkpt>
<trkpt lat="-27.2744399" lon="151.2900639">
  <ele>347.61</ele>
  <time>2026-09-01T19:54:54Z</time>
  <course>10.44</course>
  <speed>0.2308679276123039</speed>
  <fix>3d</fix>
</trkpt>
<trkpt lat="-27.2744403" lon="151.2900637">
  <ele>347.52</ele>
  <time>2026-09-01T19:54:54Z</time>
  <course>357.3</course>
  <speed>0.22</speed>
  <fix>3d</fix>
</trkpt>
<trkpt lat="-27.2744397" lon="151.2900639">
  <ele>347.56</ele>
  <time>2026-09-01T19:54:54Z</time>
  <course>10.41</course>
  <speed>0.25079872407968906</speed>
  <fix>3d</fix>
</trkpt>
<trkpt lat="-27.2744403" lon="151.2900637">
  <ele>347.52</ele>
  <time>2026-09-01T19:54:54Z</time>
  <course>357.3</course>
  <speed>0.22</speed>
  <fix>3d</fix>
</trkpt>
<trkpt lat="-27.2744395" lon="151.2900639">
  <ele>347.51</ele>
  <time>2026-09-01T19:54:54Z</time>
  <course>10.37</course>
  <speed>0.260768096208106</speed>
  <fix>3d</fix>
</trkpt>
<trkpt lat="-27.2744398" lon="151.2900637">
  <ele>347.42</ele>
  <time>2026-09-01T19:54:54Z</time>
  <course>357.65</course>
  <speed>0.26</speed>
  <fix>3d</fix>
</trkpt>
<trkpt lat="-27.2744392" lon="151.2900639">
  <ele>347.47</ele>
  <time>2026-09-01T19:54:54Z</time>
  <course>10.36</course>
  <speed>0.280713376952364</speed>
  <fix>3d</fix>
</trkpt>
<trkpt lat="-27.2744398" lon="151.2900637">
  <ele>347.42</ele>
  <time>2026-09-01T19:54:54Z</time>
  <course>357.65</course>
  <speed>0.26</speed>
  <fix>3d</fix>
</trkpt>
<trkpt lat="-27.2744389" lon="151.2900639">
  <ele>347.42</ele>
  <time>2026-09-01T19:54:54Z</time>
  <course>10.35</course>
  <speed>0.2906888370749727</speed>
  <fix>3d</fix>
</trkpt>
<trkpt lat="-27.2744393" lon="151.2900637">
  <ele>347.33</ele>
  <time>2026-09-01T19:54:54Z</time>
  <course>358.08</course>
  <speed>0.3</speed>
  <fix>3d</fix>
</trkpt>
<trkpt lat="-27.2744387" lon="151.2900639">
  <ele>347.37</ele>
  <time>2026-09-01T19:54:54Z</time>
  <course>10.37</course>
  <speed>0.30066592756745814</speed>
  <fix>3d</fix>
</trkpt>
<trkpt lat="-27.2744393" lon="151.2900637">
  <ele>347.33</ele>
  <time>2026-09-01T19:54:54Z</time>
  <course>358.08</course>
  <speed>0.3</speed>
  <fix>3d</fix>
</trkpt>
<trkpt lat="-27.2744383" lon="151.2900639">
  <ele>347.32</ele>
  <time>2026-09-01T19:54:54Z</time>
  <course>10.38</course>
  <speed>0.32062439083762795</speed>
  <fix>3d</fix>
</trkpt>
<trkpt lat="-27.2744387" lon="151.2900636">
  <ele>347.24</ele>
  <time>2026-09-01T19:54:54Z</time>
  <course>358.54</course>
  <speed>0.33</speed>
  <fix>3d</fix>
</trkpt>
<trkpt lat="-27.274438" lon="151.2900639">
  <ele>347.27</ele>
  <time>2026-09-01T19:54:54Z</time>
  <course>10.41</course>
  <speed>0.32062439083762795</speed>
  <fix>3d</fix>
</trkpt>
<trkpt lat="-27.2744387" lon="151.2900636">
  <ele>347.24</ele>
  <time>2026-09-01T19:54:54Z</time>
  <course>358.54</course>
  <speed>0.33</speed>
  <fix>3d</fix>
</trkpt>
<trkpt lat="-27.2744377" lon="151.2900639">
  <ele>347.23</ele>
  <time>2026-09-01T19:54:54Z</time>
  <course>10.43</course>
  <speed>0.3306055050963308</speed>
  <fix>3d</fix>
</trkpt>
<trkpt lat="-27.2744381" lon="151.2900636">
  <ele>347.14</ele>
  <time>2026-09-01T19:54:54Z</time>
  <course>359.0</course>
  <speed>0.35</speed>
  <fix>3d</fix>
</trkpt>
<trkpt lat="-27.2744374" lon="151.2900639">
  <ele>347.18</ele>
  <time>2026-09-01T19:54:54Z</time>
  <course>10.46</course>
  <speed>0.34058772731852804</speed>
  <fix>3d</fix>
</trkpt>
<trkpt lat="-27.2744381" lon="151.2900636">
  <ele>347.14</ele>
  <time>2026-09-01T19:54:54Z</time>
  <course>359.0</course>
  <speed>0.35</speed>
  <fix>3d</fix>
</trkpt>
<trkpt lat="-27.2744371" lon="151.2900639">
  <ele>347.13</ele>
  <time>2026-09-01T19:54:54Z</time>
  <course>10.46</course>
  <speed>0.34058772731852804</speed>
  <fix>3d</fix>
</trkpt>
<trkpt lat="-27.2744374" lon="151.2900636">
  <ele>347.05</ele>
  <time>2026-09-01T19:54:54Z</time>
  <course>359.46</course>
  <speed>0.37</speed>
  <fix>3d</fix>
</trkpt>
<trkpt lat="-27.2744367" lon="151.2900639">
  <ele>347.08</ele>
  <time>2026-09-01T19:54:54Z</time>
  <course>10.47</course>
  <speed>0.3505709628591621</speed>
  <fix>3d</fix>
</trkpt>
<trkpt lat="-27.2744374" lon="151.2900636">
  <ele>347.05</ele>
  <time>2026-09-01T19:54:54Z</time>
  <course>359.46</course>
  <speed>0.37</speed>
  <fix>3d</fix>
</trkpt>
<trkpt lat="-27.2744364" lon="151.2900639">
  <ele>347.03</ele>
  <time>2026-09-01T19:54:54Z</time>
  <course>10.47</course>
  <speed>0.3505709628591621</speed>
  <fix>3d</fix>
</trkpt>
<trkpt lat="-27.2744367" lon="151.2900636">
  <ele>346.95</ele>
  <time>2026-09-01T19:54:54Z</time>
  <course>359.92</course>
  <speed>0.38</speed>
  <fix>3d</fix>
</trkpt>
<trkpt lat="-27.274436" lon="151.2900639">
  <ele>346.98</ele>
  <time>2026-09-01T19:54:54Z</time>
  <course>10.47</course>
  <speed>0.35128336140500593</speed>
  <fix>3d</fix>
</trkpt>
<trkpt lat="-27.2744367" lon="151.2900636">
  <ele>346.95</ele>
  <time>2026-09-01T19:54:54Z</time>
  <course>359.92</course>
  <speed>0.38</speed>
  <fix>3d</fix>
</trkpt>
<trkpt lat="-27.2744357" lon="151.2900638">
  <ele>346.93</ele>
  <time>2026-09-01T19:54:54Z</time>
  <course>10.46</course>
  <speed>0.35128336140500593</speed>
  <fix>3d</fix>
</trkpt>
<trkpt lat="-27.274436" lon="151.2900636">
  <ele>346.84</ele>
  <time>2026-09-01T19:54:54Z</time>
  <course>0.39</course>
  <speed>0.39</speed>
  <fix>3d</fix>
</trkpt>
<trkpt lat="-27.2744353" lon="151.2900638">
  <ele>346.88</ele>
  <time>2026-09-01T19:54:54Z</time>
  <course>10.47</course>
  <speed>0.34132096331752027</speed>
  <fix>3d</fix>
</trkpt>
<trkpt lat="-27.274436" lon="151.2900636">
  <ele>346.84</ele>
  <time>2026-09-01T19:54:54Z</time>
  <course>0.39</course>
  <speed>0.39</speed>
  <fix>3d</fix>
</trkpt>
<trkpt lat="-27.274435" lon="151.2900638">
  <ele>346.83</ele>
  <time>2026-09-01T19:54:54Z</time>
  <course>10.48</course>
  <speed>0.34132096331752027</speed>
  <fix>3d</fix>
</trkpt>
<trkpt lat="-27.2744353" lon="151.2900636">
  <ele>346.75</ele>
  <time>2026-09-01T19:54:54Z</time>
  <course>0.92</course>
  <speed>0.39</speed>
  <fix>3d</fix>
</trkpt>
<trkpt lat="-27.2744347" lon="151.2900638">
  <ele>346.78</ele>
  <time>2026-09-01T19:54:54Z</time>
  <course>10.49</course>
  <speed>0.3313608305156178</speed>
  <fix>3d</fix>
</trkpt>
<trkpt lat="-27.2744353" lon="151.2900636">
  <ele>346.75</ele>
  <time>2026-09-01T19:54:54Z</time>
  <course>0.92</course>
  <speed>0.39</speed>
  <fix>3d</fix>
</trkpt>
<trkpt lat="-27.2744343" lon="151.2900638">
  <ele>346.73</ele>
  <time>2026-09-01T19:54:54Z</time>
  <course>10.5</course>
  <speed>0.32140317359976395</speed>
  <fix>3d</fix>
</trkpt>
<trkpt lat="-27.2744346" lon="151.2900636">
  <ele>346.65</ele>
  <time>2026-09-01T19:54:54Z</time>
  <course>1.55</course>
  <speed>0.38</speed>
  <fix>3d</fix>
</trkpt>
<trkpt lat="-27.274434" lon="151.2900638">
  <ele>346.68</ele>
  <time>2026-09-01T19:54:54Z</time>
  <course>10.5</course>
  <speed>0.31144823004794875</speed>
  <fix>3d</fix>
</trkpt>
<trkpt lat="-27.2744346" lon="151.2900636">
  <ele>346.65</ele>
  <time>2026-09-01T19:54:54Z</time>
  <course>1.55</course>
  <speed>0.38</speed>
  <fix>3d</fix>
</trkpt>
<trkpt lat="-27.2744337" lon="151.2900638">
  <ele>346.63</ele>
  <time>2026-09-01T19:54:54Z</time>
  <course>10.5</course>
  <speed>0.3026549190084311</speed>
  <fix>3d</fix>
</trkpt>
<trkpt lat="-27.2744339" lon="151.2900636">
  <ele>346.56</ele>
  <time>2026-09-01T19:54:54Z</time>
  <course>2.3</course>
  <speed>0.36</speed>
  <fix>3d</fix>
</trkpt>
<trkpt lat="-27.2744334" lon="151.2900638">
  <ele>346.58</ele>
  <time>2026-09-01T19:54:54Z</time>
  <course>10.5</course>
  <speed>0.29274562336608895</speed>
  <fix>3d</fix>
</trkpt>
<trkpt lat="-27.2744339" lon="151.2900636">
  <ele>346.56</ele>
  <time>2026-09-01T19:54:54Z</time>
  <course>2.3</course>
  <speed>0.36</speed>
  <fix>3d</fix>
</trkpt>
<trkpt lat="-27.2744331" lon="151.2900639">
  <ele>346.53</ele>
  <time>2026-09-01T19:54:54Z</time>
  <course>10.51</course>
  <speed>0.27294688127912364</speed>
  <fix>3d</fix>
</trkpt>
<trkpt lat="-27.2744333" lon="151.2900636">
  <ele>346.46</ele>
  <time>2026-09-01T19:54:54Z</time>
  <course>3.15</course>
  <speed>0.34</speed>
  <fix>3d</fix>
</trkpt>
<trkpt lat="-27.2744328" lon="151.2900639">
  <ele>346.48</ele>
  <time>2026-09-01T19:54:54Z</time>
  <course>10.51</course>
  <speed>0.26305892875931813</speed>
  <fix>3d</fix>
</trkpt>
<trkpt lat="-27.2744333" lon="151.2900636">
  <ele>346.46</ele>
  <time>2026-09-01T19:54:54Z</time>
  <course>3.15</course>
  <speed>0.34</speed>
  <fix>3d</fix>
</trkpt>
<trkpt lat="-27.2744325" lon="151.2900639">
  <ele>346.43</ele>
  <time>2026-09-01T19:54:54Z</time>
  <course>10.52</course>
  <speed>0.25317977802344327</speed>
  <fix>3d</fix>
</trkpt>
<trkpt lat="-27.2744327" lon="151.2900636">
  <ele>346.36</ele>
  <time>2026-09-01T19:54:54Z</time>
  <course>4.11</course>
  <speed>0.32</speed>
  <fix>3d</fix>
</trkpt>
<trkpt lat="-27.2744323" lon="151.2900639">
  <ele>346.38</ele>
  <time>2026-09-01T19:54:54Z</time>
  <course>10.53</course>
  <speed>0.23345235059857505</speed>
  <fix>3d</fix>
</trkpt>
<trkpt lat="-27.2744327" lon="151.2900636">
  <ele>346.36</ele>
  <time>2026-09-01T19:54:54Z</time>
  <course>4.11</course>
  <speed>0.32</speed>
  <fix>3d</fix>
</trkpt>
<trkpt lat="-27.2744321" lon="151.2900639">
  <ele>346.33</ele>
  <time>2026-09-01T19:54:54Z</time>
  <course>10.53</course>
  <speed>0.21377558326431947</speed>
  <fix>3d</fix>
</trkpt>
<trkpt lat="-27.2744321" lon="151.2900637">
  <ele>346.26</ele>
  <time>2026-09-01T19:54:54Z</time>
  <course>5.29</course>
  <speed>0.29</speed>
  <fix>3d</fix>
</trkpt>
<trkpt lat="-27.2744318" lon="151.290064">
  <ele>346.28</ele>
  <time>2026-09-01T19:54:54Z</time>
  <course>10.54</course>
  <speed>0.2039607805437114</speed>
  <fix>3d</fix>
</trkpt>
<trkpt lat="-27.2744321" lon="151.2900637">
  <ele>346.26</ele>
  <time>2026-09-01T19:54:54Z</time>
  <course>5.29</course>
  <speed>0.29</speed>
  <fix>3d</fix>
</trkpt>
<trkpt lat="-27.2744316" lon="151.290064">
  <ele>346.23</ele>
  <time>2026-09-01T19:54:54Z</time>
  <course>10.55</course>
  <speed>0.18681541692269404</speed>
  <fix>3d</fix>
</trkpt>
<trkpt lat="-27.2744316" lon="151.2900637">
  <ele>346.15</ele>
  <time>2026-09-01T19:54:54Z</time>
  <course>6.76</course>
  <speed>0.26</speed>
  <fix>3d</fix>
</trkpt>
<trkpt lat="-27.2744314" lon="151.290064">
  <ele>346.18</ele>
  <time>2026-09-01T19:54:54Z</time>
  <course>10.55</course>
  <speed>0.1676305461424021</speed>
  <fix>3d</fix>
</trkpt>
<trkpt lat="-27.2744316" lon="151.2900637">
  <ele>346.15</ele>
  <time>2026-09-01T19:54:54Z</time>
  <course>6.76</course>
  <speed>0.26</speed>
  <fix>3d</fix>
</trkpt>
<trkpt lat="-27.2744312" lon="151.290064">
  <ele>346.13</ele>
  <time>2026-09-01T19:54:54Z</time>
  <course>10.56</course>
  <speed>0.14866068747318506</speed>
  <fix>3d</fix>
</trkpt>
<trkpt lat="-27.2744312" lon="151.2900638">
  <ele>346.06</ele>
  <time>2026-09-01T19:54:54Z</time>
  <course>8.6</course>
  <speed>0.22</speed>
  <fix>3d</fix>
</trkpt>
<trkpt lat="-27.2744311" lon="151.2900641">
  <ele>346.08</ele>
  <time>2026-09-01T19:54:54Z</time>
  <course>10.56</course>
  <speed>0.13</speed>
  <fix>3d</fix>
</trkpt>
<trkpt lat="-27.2744312" lon="151.2900638">
  <ele>346.06</ele>
  <time>2026-09-01T19:54:54Z</time>
  <course>8.6</course>
  <speed>0.22</speed>
  <fix>3d</fix>
</trkpt>
<trkpt lat="-27.2744309" lon="151.2900641">
  <ele>346.03</ele>
  <time>2026-09-01T19:54:54Z</time>
  <course>10.57</course>
  <speed>0.1118033988749895</speed>
  <fix>3d</fix>
</trkpt>
<trkpt lat="-27.2744308" lon="151.2900639">
  <ele>345.96</ele>
  <time>2026-09-01T19:54:54Z</time>
  <course>10.97</course>
  <speed>0.19</speed>
  <fix>3d</fix>
</trkpt>
<trkpt lat="-27.2744308" lon="151.2900641">
  <ele>345.98</ele>
  <time>2026-09-01T19:54:54Z</time>
  <course>10.58</course>
  <speed>0.10295630140987001</speed>
  <fix>3d</fix>
</trkpt>
<trkpt lat="-27.2744308" lon="151.2900639">
  <ele>345.96</ele>
  <time>2026-09-01T19:54:54Z</time>
  <course>10.97</course>
  <speed>0.19</speed>
  <fix>3d</fix>
</trkpt>
<trkpt lat="-27.2744307" lon="151.2900641">
  <ele>345.93</ele>
  <time>2026-09-01T19:54:54Z</time>
  <course>10.58</course>
  <speed>0.08602325267042626</speed>
  <fix>3d</fix>
</trkpt>
<trkpt lat="-27.2744305" lon="151.2900639">
  <ele>345.86</ele>
  <time>2026-09-01T19:54:54Z</time>
  <course>14.3</course>
  <speed>0.15</speed>
  <fix>3d</fix>
</trkpt>
<trkpt lat="-27.2744306" lon="151.2900642">
  <ele>345.88</ele>
  <time>2026-09-01T19:54:54Z</time>
  <course>10.59</course>
  <speed>0.07071067811865475</speed>
  <fix>3d</fix>
</trkpt>
<trkpt lat="-27.2744305" lon="151.2900639">
  <ele>345.86</ele>
  <time>2026-09-01T19:54:54Z</time>
  <course>14.3</course>
  <speed>0.15</speed>
  <fix>3d</fix>
</trkpt>
<trkpt lat="-27.2744305" lon="151.2900642">
  <ele>345.83</ele>
  <time>2026-09-01T19:54:54Z</time>
  <course>10.6</course>
  <speed>0.05830951894845301</speed>
  <fix>3d</fix>
</trkpt>
<trkpt lat="-27.2744303" lon="151.290064">
  <ele>345.77</ele>
  <time>2026-09-01T19:54:54Z</time>
  <course>19.41</course>
  <speed>0.11</speed>
  <fix>3d</fix>
</trkpt>
<trkpt lat="-27.2744305" lon="151.2900642">
  <ele>345.78</ele>
  <time>2026-09-01T19:54:54Z</time>
  <course>10.61</course>
  <speed>0.05099019513592785</speed>
  <fix>3d</fix>
</trkpt>
<trkpt lat="-27.2744303" lon="151.290064">
  <ele>345.77</ele>
  <time>2026-09-01T19:54:54Z</time>
  <course>19.41</course>
  <speed>0.11</speed>
  <fix>3d</fix>
</trkpt>
<trkpt lat="-27.2744304" lon="151.2900643">
  <ele>345.73</ele>
  <time>2026-09-01T19:54:54Z</time>
  <course>10.63</course>
  <speed>0.05</speed>
  <fix>3d</fix>
</trkpt>
<trkpt lat="-27.2744301" lon="151.2900641">
  <ele>345.66</ele>
  <time>2026-09-01T19:54:54Z</time>
  <course>28.24</course>
  <speed>0.08</speed>
  <fix>3d</fix>
</trkpt>
<trkpt lat="-27.2744304" lon="151.2900643">
  <ele>345.68</ele>
  <time>2026-09-01T19:54:54Z</time>
  <course>10.66</course>
  <speed>0.05099019513592785</speed>
  <fix>3d</fix>
</trkpt>
<trkpt lat="-27.2744301" lon="151.2900641">
  <ele>345.66</ele>
  <time>2026-09-01T19:54:54Z</time>
  <course>28.24</course>
  <speed>0.08</speed>
  <fix>3d</fix>
</trkpt>
<trkpt lat="-27.2744304" lon="151.2900643">
  <ele>345.63</ele>
  <time>2026-09-01T19:54:54Z</time>
  <course>10.69</course>
  <speed>0.044721359549995794</speed>
  <fix>3d</fix>
</trkpt>
<trkpt lat="-27.27443" lon="151.2900642">
  <ele>345.57</ele>
  <time>2026-09-01T19:54:54Z</time>
  <course>45.36</course>
  <speed>0.05</speed>
  <fix>3d</fix>
</trkpt>
<trkpt lat="-27.2744304" lon="151.2900644">
  <ele>345.58</ele>
  <time>2026-09-01T19:54:54Z</time>
  <course>10.73</course>
  <speed>0.0565685424949238</speed>
  <fix>3d</fix>
</trkpt>
<trkpt lat="-27.27443" lon="151.2900642">
  <ele>345.57</ele>
  <time>2026-09-01T19:54:54Z</time>
  <course>45.36</course>
  <speed>0.05</speed>
  <fix>3d</fix>
</trkpt>
<trkpt lat="-27.2744304" lon="151.2900644">
  <ele>345.53</ele>
  <time>2026-09-01T19:54:54Z</time>
  <course>10.78</course>
  <speed>0.06403124237432849</speed>
  <fix>3d</fix>
</trkpt>
<trkpt lat="-27.27443" lon="151.2900642">
  <ele>345.47</ele>
  <time>2026-09-01T19:54:54Z</time>
  <course>79.76</course>
  <speed>0.03</speed>
  <fix>3d</fix>
</trkpt>
<trkpt lat="-27.2744304" lon="151.2900644">
  <ele>345.48</ele>
  <time>2026-09-01T19:54:54Z</time>
  <course>10.83</course>
  <speed>0.08062257748298549</speed>
  <fix>3d</fix>
</trkpt>
<trkpt lat="-27.27443" lon="151.2900642">
  <ele>345.47</ele>
  <time>2026-09-01T19:54:54Z</time>
  <course>79.76</course>
  <speed>0.03</speed>
  <fix>3d</fix>
</trkpt>
<trkpt lat="-27.2744303" lon="151.2900644">
  <ele>345.43</ele>
  <time>2026-09-01T19:54:54Z</time>
  <course>10.88</course>
  <speed>0.0854400374531753</speed>
  <fix>3d</fix>
</trkpt>
<trkpt lat="-27.27443" lon="151.2900643">
  <ele>345.38</ele>
  <time>2026-09-01T19:54:54Z</time>
  <course>124.77</course>
  <speed>0.03</speed>
  <fix>3d</fix>
</trkpt>
<trkpt lat="-27.2744304" lon="151.2900645">
  <ele>345.38</ele>
  <time>2026-09-01T19:54:54Z</time>
  <course>10.93</course>
  <speed>0.09486832980505139</speed>
  <fix>3d</fix>
</trkpt>
<trkpt lat="-27.27443" lon="151.2900643">
  <ele>345.38</ele>
  <time>2026-09-01T19:54:54Z</time>
  <course>124.77</course>
  <speed>0.03</speed>
  <fix>3d</fix>
</trkpt>
<trkpt lat="-27.2744304" lon="151.2900645">
  <ele>345.33</ele>
  <time>2026-09-01T19:54:54Z</time>
  <course>10.96</course>
  <speed>0.1019803902718557</speed>
  <fix>3d</fix>
</trkpt>
<trkpt lat="-27.2744301" lon="151.2900644">
  <ele>345.28</ele>
  <time>2026-09-01T19:54:54Z</time>
  <course>151.16</course>
  <speed>0.05</speed>
  <fix>3d</fix>
</trkpt>
<trkpt lat="-27.2744305" lon="151.2900645">
  <ele>345.28</ele>
  <time>2026-09-01T19:54:54Z</time>
  <course>10.98</course>
  <speed>0.1118033988749895</speed>
  <fix>3d</fix>
</trkpt>
<trkpt lat="-27.2744301" lon="151.2900644">
  <ele>345.28</ele>
  <time>2026-09-01T19:54:54Z</time>
  <course>151.16</course>
  <speed>0.05</speed>
  <fix>3d</fix>
</trkpt>
<trkpt lat="-27.2744306" lon="151.2900645">
  <ele>345.23</ele>
  <time>2026-09-01T19:54:54Z</time>
  <course>10.99</course>
  <speed>0.1118033988749895</speed>
  <fix>3d</fix>
</trkpt>
<trkpt lat="-27.2744301" lon="151.2900644">
  <ele>345.19</ele>
  <time>2026-09-01T19:54:54Z</time>
  <course>163.81</course>
  <speed>0.07</speed>
  <fix>3d</fix>
</trkpt>
<trkpt lat="-27.2744306" lon="151.2900645">
  <ele>345.18</ele>
  <time>2026-09-01T19:54:54Z</time>
  <course>10.99</course>
  <speed>0.12165525060596438</speed>
  <fix>3d</fix>
</trkpt>
<trkpt lat="-27.2744301" lon="151.2900644">
  <ele>345.19</ele>
  <time>2026-09-01T19:54:54Z</time>
  <course>163.81</course>
  <speed>0.07</speed>
  <fix>3d</fix>
</trkpt>
<trkpt lat="-27.2744307" lon="151.2900645">
  <ele>345.13</ele>
  <time>2026-09-01T19:54:54Z</time>
  <course>10.98</course>
  <speed>0.130384048104053</speed>
  <fix>3d</fix>
</trkpt>
<trkpt lat="-27.2744302" lon="151.2900645">
  <ele>345.09</ele>
  <time>2026-09-01T19:54:54Z</time>
  <course>170.55</course>
  <speed>0.08</speed>
  <fix>3d</fix>
</trkpt>
<trkpt lat="-27.2744308" lon="151.2900645">
  <ele>345.08</ele>
  <time>2026-09-01T19:54:54Z</time>
  <course>10.97</course>
  <speed>0.130384048104053</speed>
  <fix>3d</fix>
</trkpt>
<trkpt lat="-27.2744302" lon="151.2900645">
  <ele>345.09</ele>
  <time>2026-09-01T19:54:54Z</time>
  <course>170.55</course>
  <speed>0.08</speed>
  <fix>3d</fix>
</trkpt>
<trkpt lat="-27.2744309" lon="151.2900645">
  <ele>345.03</ele>
  <time>2026-09-01T19:54:54Z</time>
  <course>10.97</course>
  <speed>0.140356688476182</speed>
  <fix>3d</fix>
</trkpt>
<trkpt lat="-27.2744304" lon="151.2900645">
  <ele>344.99</ele>
  <time>2026-09-01T19:54:54Z</time>
  <course>174.7</course>
  <speed>0.1</speed>
  <fix>3d</fix>
</trkpt>
<trkpt lat="-27.274431" lon="151.2900645">
  <ele>344.98</ele>
  <time>2026-09-01T19:54:54Z</time>
  <course>10.97</course>
  <speed>0.140356688476182</speed>
  <fix>3d</fix>
</trkpt>
<trkpt lat="-27.2744304" lon="151.2900645">
  <ele>344.99</ele>
  <time>2026-09-01T19:54:54Z</time>
  <course>174.7</course>
  <speed>0.1</speed>
  <fix>3d</fix>
</trkpt>
<trkpt lat="-27.2744311" lon="151.2900645">
  <ele>344.93</ele>
  <time>2026-09-01T19:54:54Z</time>
  <course>10.97</course>
  <speed>0.140356688476182</speed>
  <fix>3d</fix>
</trkpt>
<trkpt lat="-27.2744306" lon="151.2900645">
  <ele>344.89</ele>
  <time>2026-09-01T19:54:54Z</time>
  <course>177.65</course>
  <speed>0.11</speed>
  <fix>3d</fix>
</trkpt>
<trkpt lat="-27.2744312" lon="151.2900645">
  <ele>344.88</ele>
  <time>2026-09-01T19:54:54Z</time>
  <course>10.97</course>
  <speed>0.14</speed>
  <fix>3d</fix>
</trkpt>
<trkpt lat="-27.2744306" lon="151.2900645">
  <ele>344.89</ele>
  <time>2026-09-01T19:54:54Z</time>
  <course>177.65</course>
  <speed>0.11</speed>
  <fix>3d</fix>
</trkpt>
<trkpt lat="-27.2744313" lon="151.2900645">
  <ele>344.83</ele>
  <time>2026-09-01T19:54:54Z</time>
  <course>10.97</course>
  <speed>0.15</speed>
  <fix>3d</fix>
</trkpt>
<trkpt lat="-27.2744308" lon="151.2900645">
  <ele>344.8</ele>
  <time>2026-09-01T19:54:54Z</time>
  <course>179.91</course>
  <speed>0.12</speed>
  <fix>3d</fix>
</trkpt>
<trkpt lat="-27.2744314" lon="151.2900645">
  <ele>344.78</ele>
  <time>2026-09-01T19:54:54Z</time>
  <course>10.97</course>
  <speed>0.15</speed>
  <fix>3d</fix>
</trkpt>
<trkpt lat="-27.2744308" lon="151.2900645">
  <ele>344.8</ele>
  <time>2026-09-01T19:54:54Z</time>
  <course>179.91</course>
  <speed>0.12</speed>
  <fix>3d</fix>
</trkpt>
<trkpt lat="-27.2744315" lon="151.2900645">
  <ele>344.74</ele>
  <time>2026-09-01T19:54:54Z</time>
  <course>10.98</course>
  <speed>0.15</speed>
  <fix>3d</fix>
</trkpt>
<trkpt lat="-27.274431" lon="151.2900645">
  <ele>344.7</ele>
  <time>2026-09-01T19:54:54Z</time>
  <course>181.74</course>
  <speed>0.12</speed>
  <fix>3d</fix>
</trkpt>
<trkpt lat="-27.2744316" lon="151.2900645">
  <ele>344.69</ele>
  <time>2026-09-01T19:54:54Z</time>
  <course>10.99</course>
  <speed>0.14</speed>
  <fix>3d</fix>
</trkpt>
<trkpt lat="-27.274431" lon="151.2900645">
  <ele>344.7</ele>
  <time>2026-09-01T19:54:54Z</time>
  <course>181.74</course>
  <speed>0.12</speed>
  <fix>3d</fix>
</trkpt>
<trkpt lat="-27.2744317" lon="151.2900645">
  <ele>344.64</ele>
  <time>2026-09-01T19:54:54Z</time>
  <course>11.0</course>
  <speed>0.14</speed>
  <fix>3d</fix>
</trkpt>
<trkpt lat="-27.2744312" lon="151.2900645">
  <ele>344.6</ele>
  <time>2026-09-01T19:54:54Z</time>
  <course>183.25</course>
  <speed>0.12</speed>
  <fix>3d</fix>
</trkpt>
<trkpt lat="-27.2744318" lon="151.2900645">
  <ele>344.59</ele>
  <time>2026-09-01T19:54:54Z</time>
  <course>10.99</course>
  <speed>0.14</speed>
  <fix>3d</fix>
</trkpt>
<trkpt lat="-27.2744312" lon="151.2900645">
  <ele>344.6</ele>
  <time>2026-09-01T19:54:54Z</time>
  <course>183.25</course>
  <speed>0.12</speed>
  <fix>3d</fix>
</trkpt>
<trkpt lat="-27.2744319" lon="151.2900645">
  <ele>344.55</ele>
  <time>2026-09-01T19:54:54Z</time>
  <course>11.0</course>
  <speed>0.14</speed>
  <fix>3d</fix>
</trkpt>
<trkpt lat="-27.2744315" lon="151.2900645">
  <ele>344.51</ele>
  <time>2026-09-01T19:54:54Z</time>
  <course>184.78</course>
  <speed>0.12</speed>
  <fix>3d</fix>
</trkpt>
<trkpt lat="-27.274432" lon="151.2900645">
  <ele>344.5</ele>
  <time>2026-09-01T19:54:54Z</time>
  <course>11.0</course>
  <speed>0.14</speed>
  <fix>3d</fix>
</trkpt>
<trkpt lat="-27.2744315" lon="151.2900645">
  <ele>344.51</ele>
  <time>2026-09-01T19:54:54Z</time>
  <course>184.78</course>
  <speed>0.12</speed>
  <fix>3d</fix>
</trkpt>
<trkpt lat="-27.2744321" lon="151.2900645">
  <ele>344.45</ele>
  <time>2026-09-01T19:54:54Z</time>
  <course>11.0</course>
  <speed>0.13</speed>
  <fix>3d</fix>
</trkpt>
<trkpt lat="-27.2744317" lon="151.2900645">
  <ele>344.4</ele>
  <time>2026-09-01T19:54:54Z</time>
  <course>186.31</course>
  <speed>0.12</speed>
  <fix>3d</fix>
</trkpt>
<trkpt lat="-27.2744322" lon="151.2900645">
  <ele>344.4</ele>
  <time>2026-09-01T19:54:54Z</time>
  <course>11.0</course>
  <speed>0.13</speed>
  <fix>3d</fix>
</trkpt>
<trkpt lat="-27.2744317" lon="151.2900645">
  <ele>344.4</ele>
  <time>2026-09-01T19:54:54Z</time>
  <course>186.31</course>
  <speed>0.12</speed>
  <fix>3d</fix>
</trkpt>
<trkpt lat="-27.2744323" lon="151.2900645">
  <ele>344.35</ele>
  <time>2026-09-01T19:54:54Z</time>
  <course>11.0</course>
  <speed>0.12</speed>
  <fix>3d</fix>
</trkpt>
<trkpt lat="-27.2744318" lon="151.2900645">
  <ele>344.31</ele>
  <time>2026-09-01T19:54:54Z</time>
  <course>187.69</course>
  <speed>0.11</speed>
  <fix>3d</fix>
</trkpt>
<trkpt lat="-27.2744324" lon="151.2900645">
  <ele>344.3</ele>
  <time>2026-09-01T19:54:54Z</time>
  <course>10.99</course>
  <speed>0.12</speed>
  <fix>3d</fix>
</trkpt>
<trkpt lat="-27.2744318" lon="151.2900645">
  <ele>344.31</ele>
  <time>2026-09-01T19:54:54Z</time>
  <course>187.69</course>
  <speed>0.11</speed>
  <fix>3d</fix>
</trkpt>
<trkpt lat="-27.2744324" lon="151.2900645">
  <ele>344.25</ele>
  <time>2026-09-01T19:54:54Z</time>
  <course>10.99</course>
  <speed>0.12</speed>
  <fix>3d</fix>
</trkpt>
<trkpt lat="-27.2744321" lon="151.2900645">
  <ele>344.21</ele>
  <time>2026-09-01T19:54:54Z</time>
  <course>189.23</course>
  <speed>0.1</speed>
  <fix>3d</fix>
</trkpt>
<trkpt lat="-27.2744325" lon="151.2900645">
  <ele>344.2</ele>
  <time>2026-09-01T19:54:54Z</time>
  <course>10.95</course>
  <speed>0.11</speed>
  <fix>3d</fix>
</trkpt>
<trkpt lat="-27.2744321" lon="151.2900645">
  <ele>344.21</ele>
  <time>2026-09-01T19:54:54Z</time>
  <course>189.23</course>
  <speed>0.1</speed>
  <fix>3d</fix>
</trkpt>
<trkpt lat="-27.2744326" lon="151.2900645">
  <ele>344.14</ele>
  <time>2026-09-01T19:54:54Z</time>
  <course>10.89</course>
  <speed>0.11</speed>
  <fix>3d</fix>
</trkpt>
<trkpt lat="-27.2744323" lon="151.2900645">
  <ele>344.11</ele>
  <time>2026-09-01T19:54:54Z</time>
  <course>190.32</course>
  <speed>0.1</speed>
  <fix>3d</fix>
</trkpt>
<trkpt lat="-27.2744327" lon="151.2900645">
  <ele>344.09</ele>
  <time>2026-09-01T19:54:54Z</time>
  <course>10.83</course>
  <speed>0.1</speed>
  <fix>3d</fix>
</trkpt>
<trkpt lat="-27.2744323" lon="151.2900645">
  <ele>344.11</ele>
  <time>2026-09-01T19:54:54Z</time>
  <course>190.32</course>
  <speed>0.1</speed>
  <fix>3d</fix>
</trkpt>
<trkpt lat="-27.2744327" lon="151.2900645">
  <ele>344.04</ele>
  <time>2026-09-01T19:54:54Z</time>
  <course>10.77</course>
  <speed>0.1</speed>
  <fix>3d</fix>
</trkpt>
<trkpt lat="-27.2744324" lon="151.2900644">
  <ele>344.01</ele>
  <time>2026-09-01T19:54:54Z</time>
  <course>190.55</course>
  <speed>0.09</speed>
  <fix>3d</fix>
</trkpt>
<trkpt lat="-27.2744328" lon="151.2900645">
  <ele>343.99</ele>
  <time>2026-09-01T19:54:54Z</time>
  <course>10.72</course>
  <speed>0.09</speed>
  <fix>3d</fix>
</trkpt>
<trkpt lat="-27.2744324" lon="151.2900644">
  <ele>344.01</ele>
  <time>2026-09-01T19:54:54Z</time>
  <course>190.55</course>
  <speed>0.09</speed>
  <fix>3d</fix>
</trkpt>
<trkpt lat="-27.2744329" lon="151.2900645">
  <ele>343.94</ele>
  <time>2026-09-01T19:54:54Z</time>
  <course>10.7</course>
  <speed>0.08</speed>
  <fix>3d</fix>
</trkpt>
<trkpt lat="-27.2744326" lon="151.2900644">
  <ele>343.9</ele>
  <time>2026-09-01T19:54:54Z</time>
  <course>190.58</course>
  <speed>0.08</speed>
  <fix>3d</fix>
</trkpt>
<trkpt lat="-27.2744329" lon="151.2900645">
  <ele>343.89</ele>
  <time>2026-09-01T19:54:54Z</time>
  <course>10.7</course>
  <speed>0.08</speed>
  <fix>3d</fix>
</trkpt>
<trkpt lat="-27.2744326" lon="151.2900644">
  <ele>343.9</ele>
  <time>2026-09-01T19:54:54Z</time>
  <course>190.58</course>
  <speed>0.08</speed>
  <fix>3d</fix>
</trkpt>
<trkpt lat="-27.274433" lon="151.2900645">
  <ele>343.84</ele>
  <time>2026-09-01T19:54:54Z</time>
  <course>10.72</course>
  <speed>0.07071067811865475</speed>
  <fix>3d</fix>
</trkpt>
<trkpt lat="-27.2744327" lon="151.2900644">
  <ele>343.8</ele>
  <time>2026-09-01T19:54:54Z</time>
  <course>190.72</course>
  <speed>0.06</speed>
  <fix>3d</fix>
</trkpt>
<trkpt lat="-27.274433" lon="151.2900645">
  <ele>343.79</ele>
  <time>2026-09-01T19:54:54Z</time>
  <course>10.74</course>
  <speed>0.07071067811865475</speed>
  <fix>3d</fix>
</trkpt>
<trkpt lat="-27.2744327" lon="151.2900644">
  <ele>343.8</ele>
  <time>2026-09-01T19:54:54Z</time>
  <course>190.72</course>
  <speed>0.06</speed>
  <fix>3d</fix>
</trkpt>
<trkpt lat="-27.2744331" lon="151.2900645">
  <ele>343.73</ele>
  <time>2026-09-01T19:54:54Z</time>
  <course>10.76</course>
  <speed>0.06082762530298219</speed>
  <fix>3d</fix>
</trkpt>
<trkpt lat="-27.2744328" lon="151.2900644">
  <ele>343.7</ele>
  <time>2026-09-01T19:54:54Z</time>
  <course>190.95</course>
  <speed>0.05</speed>
  <fix>3d</fix>
</trkpt>
<trkpt lat="-27.2744331" lon="151.2900645">
  <ele>343.68</ele>
  <time>2026-09-01T19:54:54Z</time>
  <course>10.78</course>
  <speed>0.06082762530298219</speed>
  <fix>3d</fix>
</trkpt>
<trkpt lat="-27.2744328" lon="151.2900644">
  <ele>343.7</ele>
  <time>2026-09-01T19:54:54Z</time>
  <course>190.95</course>
  <speed>0.05</speed>
  <fix>3d</fix>
</trkpt>
<trkpt lat="-27.2744331" lon="151.2900645">
  <ele>343.63</ele>
  <time>2026-09-01T19:54:54Z</time>
  <course>10.79</course>
  <speed>0.05099019513592785</speed>
  <fix>3d</fix>
</trkpt>
<trkpt lat="-27.2744329" lon="151.2900643">
  <ele>343.59</ele>
  <time>2026-09-01T19:54:54Z</time>
  <course>191.28</course>
  <speed>0.04</speed>
  <fix>3d</fix>
</trkpt>
<trkpt lat="-27.2744331" lon="151.2900645">
  <ele>343.58</ele>
  <time>2026-09-01T19:54:54Z</time>
  <course>10.8</course>
  <speed>0.0412310562561766</speed>
  <fix>3d</fix>
</trkpt>
<trkpt lat="-27.2744329" lon="151.2900643">
  <ele>343.59</ele>
  <time>2026-09-01T19:54:54Z</time>
  <course>191.28</course>
  <speed>0.04</speed>
  <fix>3d</fix>
</trkpt>
<trkpt lat="-27.2744332" lon="151.2900645">
  <ele>343.53</ele>
  <time>2026-09-01T19:54:54Z</time>
  <course>10.79</course>
  <speed>0.0412310562561766</speed>
  <fix>3d</fix>
</trkpt>
<trkpt lat="-27.274433" lon="151.2900642">
  <ele>343.5</ele>
  <time>2026-09-01T19:54:54Z</time>
  <course>191.86</course>
  <speed>0.03</speed>
  <fix>3d</fix>
</trkpt>
<trkpt lat="-27.2744332" lon="151.2900645">
  <ele>343.48</ele>
  <time>2026-09-01T19:54:54Z</time>
  <course>10.78</course>
  <speed>0.0316227766016838</speed>
  <fix>3d</fix>
</trkpt>
<trkpt lat="-27.274433" lon="151.2900642">
  <ele>343.5</ele>
  <time>2026-09-01T19:54:54Z</time>
  <course>191.86</course>
  <speed>0.03</speed>
  <fix>3d</fix>
</trkpt>
<trkpt lat="-27.2744332" lon="151.2900644">
  <ele>343.43</ele>
  <time>2026-09-01T19:54:54Z</time>
  <course>10.77</course>
  <speed>0.03605551275463989</speed>
  <fix>3d</fix>
</trkpt>
<trkpt lat="-27.2744331" lon="151.2900642">
  <ele>343.4</ele>
  <time>2026-09-01T19:54:54Z</time>
  <course>193.17</course>
  <speed>0.02</speed>
  <fix>3d</fix>
</trkpt>
<trkpt lat="-27.2744332" lon="151.2900644">
  <ele>343.38</ele>
  <time>2026-09-01T19:54:54Z</time>
  <course>10.75</course>
  <speed>0.0282842712474619</speed>
  <fix>3d</fix>
</trkpt>
<trkpt lat="-27.2744331" lon="151.2900642">
  <ele>343.4</ele>
  <time>2026-09-01T19:54:54Z</time>
  <course>193.17</course>
  <speed>0.02</speed>
  <fix>3d</fix>
</trkpt>
<trkpt lat="-27.2744332" lon="151.2900644">
  <ele>343.33</ele>
  <time>2026-09-01T19:54:54Z</time>
  <course>10.73</course>
  <speed>0.0282842712474619</speed>
  <fix>3d</fix>
</trkpt>
<trkpt lat="-27.2744331" lon="151.2900642">
  <ele>343.3</ele>
  <time>2026-09-01T19:54:54Z</time>
  <course>196.38</course>
  <speed>0.01</speed>
  <fix>3d</fix>
</trkpt>
<trkpt lat="-27.2744332" lon="151.2900644">
  <ele>343.28</ele>
  <time>2026-09-01T19:54:54Z</time>
  <course>10.67</course>
  <speed>0.022360679774997897</speed>
  <fix>3d</fix>
</trkpt>
<trkpt lat="-27.2744331" lon="151.2900642">
  <ele>343.3</ele>
  <time>2026-09-01T19:54:54Z</time>
  <course>196.38</course>
  <speed>0.01</speed>
  <fix>3d</fix>
</trkpt>
<trkpt lat="-27.2744332" lon="151.2900644">
  <ele>343.23</ele>
  <time>2026-09-01T19:54:54Z</time>
  <course>10.6</course>
  <speed>0.022360679774997897</speed>
  <fix>3d</fix>
</trkpt>
<trkpt lat="-27.2744331" lon="151.2900642">
  <ele>343.21</ele>
  <time>2026-09-01T19:54:54Z</time>
  <course>71.54</course>
  <speed>0.0</speed>
  <fix>3d</fix>
</trkpt>
<trkpt lat="-27.2744332" lon="151.2900644">
  <ele>343.2</ele>
  <time>2026-09-01T19:54:54Z</time>
  <course>10.58</course>
  <speed>0.0282842712474619</speed>
  <fix>3d</fix>
</trkpt>
<trkpt lat="-27.2744331" lon="151.2900642">
  <ele>343.21</ele>
  <time>2026-09-01T19:54:54Z</time>
  <course>71.54</course>
  <speed>0.0</speed>
  <fix>3d</fix>
</trkpt>
<trkpt lat="-27.2744332" lon="151.2900644">
  <ele>343.21</ele>
  <time>2026-09-01T19:54:54Z</time>
  <course>10.58</course>
  <speed>0.0282842712474619</speed>
  <fix>3d</fix>
</trkpt>
<trkpt lat="-27.2744331" lon="151.2900642">
  <ele>343.11</ele>
  <time>2026-09-01T19:54:54Z</time>
  <course>27.55</course>
  <speed>0.0</speed>
  <fix>3d</fix>
</trkpt>
<trkpt lat="-27.2744332" lon="151.2900644">
  <ele>343.22</ele>
  <time>2026-09-01T19:54:54Z</time>
  <course>10.58</course>
  <speed>0.03605551275463989</speed>
  <fix>3d</fix>
</trkpt>
<trkpt lat="-27.2744331" lon="151.2900642">
  <ele>343.11</ele>
  <time>2026-09-01T19:54:54Z</time>
  <course>27.55</course>
  <speed>0.0</speed>
  <fix>3d</fix>
</trkpt>
<trkpt lat="-27.2744332" lon="151.2900644">
  <ele>343.23</ele>
  <time>2026-09-01T19:54:54Z</time>
  <course>10.57</course>
  <speed>0.0282842712474619</speed>
  <fix>3d</fix>
</trkpt>
<trkpt lat="-27.2744331" lon="151.2900642">
  <ele>343.07</ele>
  <time>2026-09-01T19:54:54Z</time>
  <course>28.48</course>
  <speed>0.0</speed>
  <fix>3d</fix>
</trkpt>
<trkpt lat="-27.2744332" lon="151.2900644">
  <ele>343.24</ele>
  <time>2026-09-01T19:54:54Z</time>
  <course>10.57</course>
  <speed>0.0282842712474619</speed>
  <fix>3d</fix>
</trkpt>
<trkpt lat="-27.2744331" lon="151.2900642">
  <ele>343.07</ele>
  <time>2026-09-01T19:54:54Z</time>
  <course>28.48</course>
  <speed>0.0</speed>
  <fix>3d</fix>
</trkpt>
<trkpt lat="-27.2744332" lon="151.2900644">
  <ele>343.23</ele>
  <time>2026-09-01T19:54:54Z</time>
  <course>10.57</course>
  <speed>0.0282842712474619</speed>
  <fix>3d</fix>
</trkpt>
<trkpt lat="-27.2744331" lon="151.2900642">
  <ele>343.09</ele>
  <time>2026-09-01T19:54:54Z</time>
  <course>208.25</course>
  <speed>0.0</speed>
  <fix>3d</fix>
</trkpt>
<trkpt lat="-27.2744332" lon="151.2900644">
  <ele>343.23</ele>
  <time>2026-09-01T19:54:54Z</time>
  <course>10.57</course>
  <speed>0.0282842712474619</speed>
  <fix>3d</fix>
</trkpt>
<trkpt lat="-27.2744331" lon="151.2900642">
  <ele>343.09</ele>
  <time>2026-09-01T19:54:54Z</time>
  <course>208.25</course>
  <speed>0.0</speed>
  <fix>3d</fix>
</trkpt>
<trkpt lat="-27.2744332" lon="151.2900644">
  <ele>343.23</ele>
  <time>2026-09-01T19:54:54Z</time>
  <course>10.57</course>
  <speed>0.022360679774997897</speed>
  <fix>3d</fix>
</trkpt>
<trkpt lat="-27.2744331" lon="151.2900642">
  <ele>343.1</ele>
  <time>2026-09-01T19:54:54Z</time>
  <course>28.21</course>
  <speed>0.0</speed>
  <fix>3d</fix>
</trkpt>
<trkpt lat="-27.2744332" lon="151.2900644">
  <ele>343.23</ele>
  <time>2026-09-01T19:54:54Z</time>
  <course>10.57</course>
  <speed>0.022360679774997897</speed>
  <fix>3d</fix>
</trkpt>
<trkpt lat="-27.2744331" lon="151.2900642">
  <ele>343.1</ele>
  <time>2026-09-01T19:54:54Z</time>
  <course>28.21</course>
  <speed>0.0</speed>
  <fix>3d</fix>
</trkpt>
<trkpt lat="-27.2744333" lon="151.2900644">
  <ele>343.23</ele>
  <time>2026-09-01T19:54:54Z</time>
  <course>10.57</course>
  <speed>0.022360679774997897</speed>
  <fix>3d</fix>
</trkpt>
<trkpt lat="-27.2744331" lon="151.2900642">
  <ele>343.09</ele>
  <time>2026-09-01T19:54:54Z</time>
  <course>28.25</course>
  <speed>0.0</speed>
  <fix>3d</fix>
</trkpt>
<trkpt lat="-27.2744333" lon="151.2900644">
  <ele>343.23</ele>
  <time>2026-09-01T19:54:54Z</time>
  <course>10.56</course>
  <speed>0.022360679774997897</speed>
  <fix>3d</fix>
</trkpt>
<trkpt lat="-27.2744331" lon="151.2900642">
  <ele>343.09</ele>
  <time>2026-09-01T19:54:54Z</time>
  <course>28.25</course>
  <speed>0.0</speed>
  <fix>3d</fix>
</trkpt>
<trkpt lat="-27.2744333" lon="151.2900644">
  <ele>343.22</ele>
  <time>2026-09-01T19:54:54Z</time>
  <course>10.56</course>
  <speed>0.022360679774997897</speed>
  <fix>3d</fix>
</trkpt>
<trkpt lat="-27.2744331" lon="151.2900642">
  <ele>343.09</ele>
  <time>2026-09-01T19:54:54Z</time>
  <course>208.23</course>
  <speed>0.0</speed>
  <fix>3d</fix>
</trkpt>
<trkpt lat="-27.2744333" lon="151.2900644">
  <ele>343.22</ele>
  <time>2026-09-01T19:54:54Z</time>
  <course>10.56</course>
  <speed>0.022360679774997897</speed>
  <fix>3d</fix>
</trkpt>
<trkpt lat="-27.2744331" lon="151.2900642">
  <ele>343.09</ele>
  <time>2026-09-01T19:54:54Z</time>
  <course>208.23</course>
  <speed>0.0</speed>
  <fix>3d</fix>
</trkpt>
<trkpt lat="-27.2744333" lon="151.2900644">
  <ele>343.22</ele>
  <time>2026-09-01T19:54:54Z</time>
  <course>10.56</course>
  <speed>0.022360679774997897</speed>
  <fix>3d</fix>
</trkpt>
<trkpt lat="-27.2744331" lon="151.2900642">
  <ele>343.09</ele>
  <time>2026-09-01T19:54:54Z</time>
  <course>208.25</course>
  <speed>0.0</speed>
  <fix>3d</fix>
</trkpt>
<trkpt lat="-27.2744333" lon="151.2900644">
  <ele>343.22</ele>
  <time>2026-09-01T19:54:54Z</time>
  <course>10.56</course>
  <speed>0.022360679774997897</speed>
  <fix>3d</fix>
</trkpt>
<trkpt lat="-27.2744331" lon="151.2900642">
  <ele>343.09</ele>
  <time>2026-09-01T19:54:54Z</time>
  <course>208.25</course>
  <speed>0.0</speed>
  <fix>3d</fix>
</trkpt>
<trkpt lat="-27.2744333" lon="151.2900644">
  <ele>343.22</ele>
  <time>2026-09-01T19:54:54Z</time>
  <course>10.55</course>
  <speed>0.022360679774997897</speed>
  <fix>3d</fix>
</trkpt>
<trkpt lat="-27.2744331" lon="151.2900642">
  <ele>343.09</ele>
  <time>2026-09-01T19:54:54Z</time>
  <course>28.32</course>
  <speed>0.0</speed>
  <fix>3d</fix>
</trkpt>
<trkpt lat="-27.2744333" lon="151.2900644">
  <ele>343.22</ele>
  <time>2026-09-01T19:54:54Z</time>
  <course>10.55</course>
  <speed>0.022360679774997897</speed>
  <fix>3d</fix>
</trkpt>
<trkpt lat="-27.2744331" lon="151.2900642">
  <ele>343.09</ele>
  <time>2026-09-01T19:54:54Z</time>
  <course>28.32</course>
  <speed>0.0</speed>
  <fix>3d</fix>
</trkpt>
<trkpt lat="-27.2744333" lon="151.2900644">
  <ele>343.23</ele>
  <time>2026-09-01T19:54:54Z</time>
  <course>10.55</course>
  <speed>0.022360679774997897</speed>
  <fix>3d</fix>
</trkpt>
<trkpt lat="-27.2744331" lon="151.2900642">
  <ele>343.09</ele>
  <time>2026-09-01T19:54:54Z</time>
  <course>28.98</course>
  <speed>0.0</speed>
  <fix>3d</fix>
</trkpt>
<trkpt lat="-27.2744333" lon="151.2900644">
  <ele>343.23</ele>
  <time>2026-09-01T19:54:54Z</time>
  <course>10.55</course>
  <speed>0.022360679774997897</speed>
  <fix>3d</fix>
</trkpt>
<trkpt lat="-27.2744331" lon="151.2900642">
  <ele>343.09</ele>
  <time>2026-09-01T19:54:54Z</time>
  <course>28.98</course>
  <speed>0.0</speed>
  <fix>3d</fix>
</trkpt>
<trkpt lat="-27.2744333" lon="151.2900644">
  <ele>343.23</ele>
  <time>2026-09-01T19:54:54Z</time>
  <course>10.55</course>
  <speed>0.022360679774997897</speed>
  <fix>3d</fix>
</trkpt>
<trkpt lat="-27.2744331" lon="151.2900642">
  <ele>343.09</ele>
  <time>2026-09-01T19:54:54Z</time>
  <course>207.6</course>
  <speed>0.0</speed>
  <fix>3d</fix>
</trkpt>
<trkpt lat="-27.2744333" lon="151.2900644">
  <ele>343.23</ele>
  <time>2026-09-01T19:54:54Z</time>
  <course>10.54</course>
  <speed>0.022360679774997897</speed>
  <fix>3d</fix>
</trkpt>
<trkpt lat="-27.2744331" lon="151.2900642">
  <ele>343.09</ele>
  <time>2026-09-01T19:54:54Z</time>
  <course>207.6</course>
  <speed>0.0</speed>
  <fix>3d</fix>
</trkpt>
<trkpt lat="-27.2744333" lon="151.2900644">
  <ele>343.23</ele>
  <time>2026-09-01T19:54:54Z</time>
  <course>10.54</course>
  <speed>0.022360679774997897</speed>
  <fix>3d</fix>
</trkpt>
<trkpt lat="-27.2744331" lon="151.2900642">
  <ele>343.09</ele>
  <time>2026-09-01T19:54:54Z</time>
  <course>206.23</course>
  <speed>0.0</speed>
  <fix>3d</fix>
</trkpt>
<trkpt lat="-27.2744333" lon="151.2900644">
  <ele>343.23</ele>
  <time>2026-09-01T19:54:54Z</time>
  <course>10.54</course>
  <speed>0.022360679774997897</speed>
  <fix>3d</fix>
</trkpt>
<trkpt lat="-27.2744331" lon="151.2900642">
  <ele>343.09</ele>
  <time>2026-09-01T19:54:54Z</time>
  <course>206.23</course>
  <speed>0.0</speed>
  <fix>3d</fix>
</trkpt>
<trkpt lat="-27.2744333" lon="151.2900644">
  <ele>343.23</ele>
  <time>2026-09-01T19:54:54Z</time>
  <course>10.54</course>
  <speed>0.022360679774997897</speed>
  <fix>3d</fix>
</trkpt>
<trkpt lat="-27.2744331" lon="151.2900642">
  <ele>343.09</ele>
  <time>2026-09-01T19:54:54Z</time>
  <course>60.25</course>
  <speed>0.0</speed>
  <fix>3d</fix>
</trkpt>
<trkpt lat="-27.2744333" lon="151.2900644">
  <ele>343.23</ele>
  <time>2026-09-01T19:54:54Z</time>
  <course>10.54</course>
  <speed>0.022360679774997897</speed>
  <fix>3d</fix>
</trkpt>
<trkpt lat="-27.2744331" lon="151.2900642">
  <ele>343.09</ele>
  <time>2026-09-01T19:54:54Z</time>
  <course>60.25</course>
  <speed>0.0</speed>
  <fix>3d</fix>
</trkpt>
<trkpt lat="-27.2744333" lon="151.2900644">
  <ele>343.23</ele>
  <time>2026-09-01T19:54:54Z</time>
  <course>10.53</course>
  <speed>0.022360679774997897</speed>
  <fix>3d</fix>
</trkpt>
<trkpt lat="-27.2744331" lon="151.2900642">
  <ele>343.09</ele>
  <time>2026-09-01T19:54:54Z</time>
  <course>139.83</course>
  <speed>0.0</speed>
  <fix>3d</fix>
</trkpt>
<trkpt lat="-27.2744333" lon="151.2900644">
  <ele>343.23</ele>
  <time>2026-09-01T19:54:54Z</time>
  <course>10.53</course>
  <speed>0.022360679774997897</speed>
  <fix>3d</fix>
</trkpt>
<trkpt lat="-27.2744331" lon="151.2900642">
  <ele>343.09</ele>
  <time>2026-09-01T19:54:54Z</time>
  <course>139.83</course>
  <speed>0.0</speed>
  <fix>3d</fix>
</trkpt>
<trkpt lat="-27.2744333" lon="151.2900644">
  <ele>343.23</ele>
  <time>2026-09-01T19:54:54Z</time>
  <course>10.53</course>
  <speed>0.022360679774997897</speed>
  <fix>3d</fix>
</trkpt>
<trkpt lat="-27.2744331" lon="151.2900642">
  <ele>343.09</ele>
  <time>2026-09-01T19:54:54Z</time>
  <course>165.55</course>
  <speed>0.0</speed>
  <fix>3d</fix>
</trkpt>
<trkpt lat="-27.2744333" lon="151.2900644">
  <ele>343.23</ele>
  <time>2026-09-01T19:54:54Z</time>
  <course>10.53</course>
  <speed>0.022360679774997897</speed>
  <fix>3d</fix>
</trkpt>
<trkpt lat="-27.2744331" lon="151.2900642">
  <ele>343.09</ele>
  <time>2026-09-01T19:54:54Z</time>
  <course>165.55</course>
  <speed>0.0</speed>
  <fix>3d</fix>
</trkpt>
<trkpt lat="-27.2744333" lon="151.2900644">
  <ele>343.23</ele>
  <time>2026-09-01T19:54:54Z</time>
  <course>10.53</course>
  <speed>0.022360679774997897</speed>
  <fix>3d</fix>
</trkpt>
<trkpt lat="-27.2744331" lon="151.2900642">
  <ele>343.09</ele>
  <time>2026-09-01T19:54:54Z</time>
  <course>194.94</course>
  <speed>0.0</speed>
  <fix>3d</fix>
</trkpt>
<trkpt lat="-27.2744333" lon="151.2900644">
  <ele>343.23</ele>
  <time>2026-09-01T19:54:54Z</time>
  <course>10.53</course>
  <speed>0.022360679774997897</speed>
  <fix>3d</fix>
</trkpt>
<trkpt lat="-27.2744331" lon="151.2900642">
  <ele>343.09</ele>
  <time>2026-09-01T19:54:54Z</time>
  <course>194.94</course>
  <speed>0.0</speed>
  <fix>3d</fix>
</trkpt>
<trkpt lat="-27.2744333" lon="151.2900644">
  <ele>343.23</ele>
  <time>2026-09-01T19:54:54Z</time>
  <course>10.52</course>
  <speed>0.022360679774997897</speed>
  <fix>3d</fix>
</trkpt>
<trkpt lat="-27.2744331" lon="151.2900642">
  <ele>343.09</ele>
  <time>2026-09-01T19:54:54Z</time>
  <course>198.43</course>
  <speed>0.0</speed>
  <fix>3d</fix>
</trkpt>
<trkpt lat="-27.2744333" lon="151.2900644">
  <ele>343.23</ele>
  <time>2026-09-01T19:54:54Z</time>
  <course>10.52</course>
  <speed>0.022360679774997897</speed>
  <fix>3d</fix>
</trkpt>
<trkpt lat="-27.2744331" lon="151.2900642">
  <ele>343.09</ele>
  <time>2026-09-01T19:54:54Z</time>
  <course>198.43</course>
  <speed>0.0</speed>
  <fix>3d</fix>
</trkpt>
<trkpt lat="-27.2744333" lon="151.2900644">
  <ele>343.23</ele>
  <time>2026-09-01T19:54:54Z</time>
  <course>10.52</course>
  <speed>0.022360679774997897</speed>
  <fix>3d</fix>
</trkpt>
<trkpt lat="-27.2744331" lon="151.2900642">
  <ele>343.09</ele>
  <time>2026-09-01T19:54:54Z</time>
  <course>191.07</course>
  <speed>0.0</speed>
  <fix>3d</fix>
</trkpt>
<trkpt lat="-27.2744333" lon="151.2900644">
  <ele>343.23</ele>
  <time>2026-09-01T19:54:54Z</time>
  <course>10.52</course>
  <speed>0.022360679774997897</speed>
  <fix>3d</fix>
</trkpt>
<trkpt lat="-27.2744331" lon="151.2900642">
  <ele>343.09</ele>
  <time>2026-09-01T19:54:54Z</time>
  <course>191.07</course>
  <speed>0.0</speed>
  <fix>3d</fix>
</trkpt>
<trkpt lat="-27.2744333" lon="151.2900644">
  <ele>343.23</ele>
  <time>2026-09-01T19:54:54Z</time>
  <course>10.52</course>
  <speed>0.022360679774997897</speed>
  <fix>3d</fix>
</trkpt>
<trkpt lat="-27.2744331" lon="151.2900642">
  <ele>343.09</ele>
  <time>2026-09-01T19:54:54Z</time>
  <course>23.51</course>
  <speed>0.0</speed>
  <fix>3d</fix>
</trkpt>
<trkpt lat="-27.2744333" lon="151.2900644">
  <ele>343.22</ele>
  <time>2026-09-01T19:54:54Z</time>
  <course>10.52</course>
  <speed>0.022360679774997897</speed>
  <fix>3d</fix>
</trkpt>
<trkpt lat="-27.2744331" lon="151.2900642">
  <ele>343.09</ele>
  <time>2026-09-01T19:54:54Z</time>
  <course>23.51</course>
  <speed>0.0</speed>
  <fix>3d</fix>
</trkpt>
<trkpt lat="-27.2744333" lon="151.2900644">
  <ele>343.22</ele>
  <time>2026-09-01T19:54:54Z</time>
  <course>10.52</course>
  <speed>0.022360679774997897</speed>
  <fix>3d</fix>
</trkpt>
<trkpt lat="-27.2744331" lon="151.2900642">
  <ele>343.09</ele>
  <time>2026-09-01T19:54:54Z</time>
  <course>22.78</course>
  <speed>0.0</speed>
  <fix>3d</fix>
</trkpt>
<trkpt lat="-27.2744333" lon="151.2900644">
  <ele>343.22</ele>
  <time>2026-09-01T19:54:54Z</time>
  <course>10.52</course>
  <speed>0.022360679774997897</speed>
  <fix>3d</fix>
</trkpt>
<trkpt lat="-27.2744331" lon="151.2900642">
  <ele>343.09</ele>
  <time>2026-09-01T19:54:54Z</time>
  <course>22.78</course>
  <speed>0.0</speed>
  <fix>3d</fix>
</trkpt>
<trkpt lat="-27.2744333" lon="151.2900644">
  <ele>343.22</ele>
  <time>2026-09-01T19:54:54Z</time>
  <course>10.52</course>
  <speed>0.022360679774997897</speed>
  <fix>3d</fix>
</trkpt>
<trkpt lat="-27.2744331" lon="151.2900642">
  <ele>343.09</ele>
  <time>2026-09-01T19:54:54Z</time>
  <course>21.91</course>
  <speed>0.0</speed>
  <fix>3d</fix>
</trkpt>
<trkpt lat="-27.2744333" lon="151.2900644">
  <ele>343.22</ele>
  <time>2026-09-01T19:54:54Z</time>
  <course>10.52</course>
  <speed>0.022360679774997897</speed>
  <fix>3d</fix>
</trkpt>
<trkpt lat="-27.2744331" lon="151.2900642">
  <ele>343.09</ele>
  <time>2026-09-01T19:54:54Z</time>
  <course>21.91</course>
  <speed>0.0</speed>
  <fix>3d</fix>
</trkpt>
<trkpt lat="-27.2744333" lon="151.2900644">
  <ele>343.22</ele>
  <time>2026-09-01T19:54:55Z</time>
  <course>10.52</course>
  <speed>0.022360679774997897</speed>
  <fix>3d</fix>
</trkpt>
<trkpt lat="-27.2744331" lon="151.2900642">
  <ele>343.09</ele>
  <time>2026-09-01T19:54:55Z</time>
  <course>202.71</course>
  <speed>0.0</speed>
  <fix>3d</fix>
</trkpt>
<trkpt lat="-27.2744333" lon="151.2900644">
  <ele>343.22</ele>
  <time>2026-09-01T19:54:55Z</time>
  <course>10.52</course>
  <speed>0.022360679774997897</speed>
  <fix>3d</fix>
</trkpt>
<trkpt lat="-27.2744331" lon="151.2900642">
  <ele>343.09</ele>
  <time>2026-09-01T19:54:55Z</time>
  <course>202.71</course>
  <speed>0.0</speed>
  <fix>3d</fix>
</trkpt>
<trkpt lat="-27.2744333" lon="151.2900644">
  <ele>343.22</ele>
  <time>2026-09-01T19:54:55Z</time>
  <course>10.51</course>
  <speed>0.022360679774997897</speed>
  <fix>3d</fix>
</trkpt>
<trkpt lat="-27.2744331" lon="151.2900642">
  <ele>343.09</ele>
  <time>2026-09-01T19:54:55Z</time>
  <course>25.07</course>
  <speed>0.0</speed>
  <fix>3d</fix>
</trkpt>
<trkpt lat="-27.2744333" lon="151.2900644">
  <ele>343.22</ele>
  <time>2026-09-01T19:54:55Z</time>
  <course>10.51</course>
  <speed>0.022360679774997897</speed>
  <fix>3d</fix>
</trkpt>
<trkpt lat="-27.2744331" lon="151.2900642">
  <ele>343.09</ele>
  <time>2026-09-01T19:54:55Z</time>
  <course>25.07</course>
  <speed>0.0</speed>
  <fix>3d</fix>
</trkpt>
<trkpt lat="-27.2744333" lon="151.2900644">
  <ele>343.22</ele>
  <time>2026-09-01T19:54:55Z</time>
  <course>10.51</course>
  <speed>0.022360679774997897</speed>
  <fix>3d</fix>
</trkpt>
<trkpt lat="-27.2744331" lon="151.2900642">
  <ele>343.09</ele>
  <time>2026-09-01T19:54:55Z</time>
  <course>22.64</course>
  <speed>0.0</speed>
  <fix>3d</fix>
</trkpt>
<trkpt lat="-27.2744333" lon="151.2900644">
  <ele>343.22</ele>
  <time>2026-09-01T19:54:55Z</time>
  <course>10.51</course>
  <speed>0.022360679774997897</speed>
  <fix>3d</fix>
</trkpt>
<trkpt lat="-27.2744331" lon="151.2900642">
  <ele>343.09</ele>
  <time>2026-09-01T19:54:55Z</time>
  <course>22.64</course>
  <speed>0.0</speed>
  <fix>3d</fix>
</trkpt>
<trkpt lat="-27.2744333" lon="151.2900644">
  <ele>343.22</ele>
  <time>2026-09-01T19:54:55Z</time>
  <course>10.51</course>
  <speed>0.022360679774997897</speed>
  <fix>3d</fix>
</trkpt>
<trkpt lat="-27.2744331" lon="151.2900642">
  <ele>343.09</ele>
  <time>2026-09-01T19:54:55Z</time>
  <course>203.14</course>
  <speed>0.0</speed>
  <fix>3d</fix>
</trkpt>
<trkpt lat="-27.2744333" lon="151.2900644">
  <ele>343.22</ele>
  <time>2026-09-01T19:54:55Z</time>
  <course>10.51</course>
  <speed>0.022360679774997897</speed>
  <fix>3d</fix>
</trkpt>
<trkpt lat="-27.2744331" lon="151.2900642">
  <ele>343.09</ele>
  <time>2026-09-01T19:54:55Z</time>
  <course>203.14</course>
  <speed>0.0</speed>
  <fix>3d</fix>
</trkpt>
<trkpt lat="-27.2744333" lon="151.2900644">
  <ele>343.22</ele>
  <time>2026-09-01T19:54:55Z</time>
  <course>10.51</course>
  <speed>0.022360679774997897</speed>
  <fix>3d</fix>
</trkpt>
<trkpt lat="-27.2744331" lon="151.2900642">
  <ele>343.09</ele>
  <time>2026-09-01T19:54:55Z</time>
  <course>202.57</course>
  <speed>0.0</speed>
  <fix>3d</fix>
</trkpt>
<trkpt lat="-27.2744333" lon="151.2900644">
  <ele>343.22</ele>
  <time>2026-09-01T19:54:55Z</time>
  <course>10.51</course>
  <speed>0.022360679774997897</speed>
  <fix>3d</fix>
</trkpt>
<trkpt lat="-27.2744331" lon="151.2900642">
  <ele>343.09</ele>
  <time>2026-09-01T19:54:55Z</time>
  <course>202.57</course>
  <speed>0.0</speed>
  <fix>3d</fix>
</trkpt>
<trkpt lat="-27.2744333" lon="151.2900644">
  <ele>343.22</ele>
  <time>2026-09-01T19:54:55Z</time>
  <course>10.51</course>
  <speed>0.022360679774997897</speed>
  <fix>3d</fix>
</trkpt>
<trkpt lat="-27.2744331" lon="151.2900642">
  <ele>343.09</ele>
  <time>2026-09-01T19:54:55Z</time>
  <course>22.9</course>
  <speed>0.0</speed>
  <fix>3d</fix>
</trkpt>
<trkpt lat="-27.2744333" lon="151.2900644">
  <ele>343.22</ele>
  <time>2026-09-01T19:54:55Z</time>
  <course>10.51</course>
  <speed>0.022360679774997897</speed>
  <fix>3d</fix>
</trkpt>
<trkpt lat="-27.2744331" lon="151.2900642">
  <ele>343.09</ele>
  <time>2026-09-01T19:54:55Z</time>
  <course>22.9</course>
  <speed>0.0</speed>
  <fix>3d</fix>
</trkpt>
<trkpt lat="-27.2744333" lon="151.2900644">
  <ele>343.22</ele>
  <time>2026-09-01T19:54:55Z</time>
  <course>10.51</course>
  <speed>0.022360679774997897</speed>
  <fix>3d</fix>
</trkpt>
<trkpt lat="-27.2744331" lon="151.2900642">
  <ele>343.09</ele>
  <time>2026-09-01T19:54:55Z</time>
  <course>22.45</course>
  <speed>0.0</speed>
  <fix>3d</fix>
</trkpt>
<trkpt lat="-27.2744333" lon="151.2900644">
  <ele>343.22</ele>
  <time>2026-09-01T19:54:55Z</time>
  <course>10.51</course>
  <speed>0.022360679774997897</speed>
  <fix>3d</fix>
</trkpt>
<trkpt lat="-27.2744331" lon="151.2900642">
  <ele>343.09</ele>
  <time>2026-09-01T19:54:55Z</time>
  <course>22.45</course>
  <speed>0.0</speed>
  <fix>3d</fix>
</trkpt>
<trkpt lat="-27.2744333" lon="151.2900644">
  <ele>343.22</ele>
  <time>2026-09-01T19:54:55Z</time>
  <course>10.51</course>
  <speed>0.022360679774997897</speed>
  <fix>3d</fix>
</trkpt>
<trkpt lat="-27.2744331" lon="151.2900642">
  <ele>343.09</ele>
  <time>2026-09-01T19:54:55Z</time>
  <course>202.8</course>
  <speed>0.0</speed>
  <fix>3d</fix>
</trkpt>
<trkpt lat="-27.2744333" lon="151.2900644">
  <ele>343.22</ele>
  <time>2026-09-01T19:54:55Z</time>
  <course>10.51</course>
  <speed>0.022360679774997897</speed>
  <fix>3d</fix>
</trkpt>
<trkpt lat="-27.2744331" lon="151.2900642">
  <ele>343.09</ele>
  <time>2026-09-01T19:54:55Z</time>
  <course>202.8</course>
  <speed>0.0</speed>
  <fix>3d</fix>
</trkpt>
<trkpt lat="-27.2744333" lon="151.2900644">
  <ele>343.22</ele>
  <time>2026-09-01T19:54:55Z</time>
  <course>10.51</course>
  <speed>0.022360679774997897</speed>
  <fix>3d</fix>
</trkpt>
<trkpt lat="-27.2744331" lon="151.2900642">
  <ele>343.09</ele>
  <time>2026-09-01T19:54:55Z</time>
  <course>202.16</course>
  <speed>0.0</speed>
  <fix>3d</fix>
</trkpt>
<trkpt lat="-27.2744333" lon="151.2900644">
  <ele>343.22</ele>
  <time>2026-09-01T19:54:55Z</time>
  <course>10.51</course>
  <speed>0.022360679774997897</speed>
  <fix>3d</fix>
</trkpt>
<trkpt lat="-27.2744331" lon="151.2900642">
  <ele>343.09</ele>
  <time>2026-09-01T19:54:55Z</time>
  <course>202.16</course>
  <speed>0.0</speed>
  <fix>3d</fix>
</trkpt>
<trkpt lat="-27.2744333" lon="151.2900644">
  <ele>343.22</ele>
  <time>2026-09-01T19:54:55Z</time>
  <course>10.51</course>
  <speed>0.022360679774997897</speed>
  <fix>3d</fix>
</trkpt>
<trkpt lat="-27.2744331" lon="151.2900642">
  <ele>343.09</ele>
  <time>2026-09-01T19:54:55Z</time>
  <course>22.73</course>
  <speed>0.0</speed>
  <fix>3d</fix>
</trkpt>
<trkpt lat="-27.2744333" lon="151.2900644">
  <ele>343.22</ele>
  <time>2026-09-01T19:54:55Z</time>
  <course>10.51</course>
  <speed>0.022360679774997897</speed>
  <fix>3d</fix>
</trkpt>
<trkpt lat="-27.2744331" lon="151.2900642">
  <ele>343.09</ele>
  <time>2026-09-01T19:54:55Z</time>
  <course>22.73</course>
  <speed>0.0</speed>
  <fix>3d</fix>
</trkpt>
<trkpt lat="-27.2744333" lon="151.2900644">
  <ele>343.23</ele>
  <time>2026-09-01T19:54:55Z</time>
  <course>10.51</course>
  <speed>0.022360679774997897</speed>
  <fix>3d</fix>
</trkpt>
<trkpt lat="-27.2744331" lon="151.2900642">
  <ele>343.09</ele>
  <time>2026-09-01T19:54:55Z</time>
  <course>10.39</course>
  <speed>0.0</speed>
  <fix>3d</fix>
</trkpt>
<trkpt lat="-27.2744333" lon="151.2900644">
  <ele>343.23</ele>
  <time>2026-09-01T19:54:55Z</time>
  <course>10.53</course>
  <speed>0.022360679774997897</speed>
  <fix>3d</fix>
</trkpt>
<trkpt lat="-27.2744331" lon="151.2900642">
  <ele>343.09</ele>
  <time>2026-09-01T19:54:55Z</time>
  <course>10.39</course>
  <speed>0.0</speed>
  <fix>3d</fix>
</trkpt>
<trkpt lat="-27.2744333" lon="151.2900644">
  <ele>343.23</ele>
  <time>2026-09-01T19:54:55Z</time>
  <course>10.58</course>
  <speed>0.022360679774997897</speed>
  <fix>3d</fix>
</trkpt>
<trkpt lat="-27.2744331" lon="151.2900642">
  <ele>343.09</ele>
  <time>2026-09-01T19:54:55Z</time>
  <course>202.66</course>
  <speed>0.0</speed>
  <fix>3d</fix>
</trkpt>
<trkpt lat="-27.2744333" lon="151.2900644">
  <ele>343.23</ele>
  <time>2026-09-01T19:54:55Z</time>
  <course>10.64</course>
  <speed>0.022360679774997897</speed>
  <fix>3d</fix>
</trkpt>
<trkpt lat="-27.2744331" lon="151.2900642">
  <ele>343.09</ele>
  <time>2026-09-01T19:54:55Z</time>
  <course>202.66</course>
  <speed>0.0</speed>
  <fix>3d</fix>
</trkpt>
<trkpt lat="-27.2744333" lon="151.2900644">
  <ele>343.09</ele>
  <time>2026-09-01T19:54:55Z</time>
  <course>10.7</course>
  <speed>0.022360679774997897</speed>
  <fix>3d</fix>
</trkpt>
<trkpt lat="-27.2744331" lon="151.2900642">
  <ele>343.09</ele>
  <time>2026-09-01T19:54:55Z</time>
  <course>23.29</course>
  <speed>0.0</speed>
  <fix>3d</fix>
</trkpt>
<trkpt lat="-27.2744333" lon="151.2900644">
  <ele>343.09</ele>
  <time>2026-09-01T19:54:55Z</time>
  <course>10.75</course>
  <speed>0.022360679774997897</speed>
  <fix>3d</fix>
</trkpt>
<trkpt lat="-27.2744331" lon="151.2900642">
  <ele>343.09</ele>
  <time>2026-09-01T19:54:55Z</time>
  <course>23.29</course>
  <speed>0.0</speed>
  <fix>3d</fix>
</trkpt>
<trkpt lat="-27.2744333" lon="151.2900644">
  <ele>343.09</ele>
  <time>2026-09-01T19:54:55Z</time>
  <course>10.8</course>
  <speed>0.022360679774997897</speed>
  <fix>3d</fix>
</trkpt>
<trkpt lat="-27.2744331" lon="151.2900642">
  <ele>343.09</ele>
  <time>2026-09-01T19:54:55Z</time>
  <course>22.59</course>
  <speed>0.0</speed>
  <fix>3d</fix>
</trkpt>
<trkpt lat="-27.2744333" lon="151.2900644">
  <ele>343.09</ele>
  <time>2026-09-01T19:54:55Z</time>
  <course>10.85</course>
  <speed>0.022360679774997897</speed>
  <fix>3d</fix>
</trkpt>
<trkpt lat="-27.2744331" lon="151.2900642">
  <ele>343.09</ele>
  <time>2026-09-01T19:54:55Z</time>
  <course>22.59</course>
  <speed>0.0</speed>
  <fix>3d</fix>
</trkpt>
<trkpt lat="-27.2744333" lon="151.2900644">
  <ele>343.09</ele>
  <time>2026-09-01T19:54:55Z</time>
  <course>10.89</course>
  <speed>0.022360679774997897</speed>
  <fix>3d</fix>
</trkpt>
<trkpt lat="-27.2744331" lon="151.2900642">
  <ele>343.09</ele>
  <time>2026-09-01T19:54:55Z</time>
  <course>202.95</course>
  <speed>0.0</speed>
  <fix>3d</fix>
</trkpt>
<trkpt lat="-27.2744333" lon="151.2900644">
  <ele>343.09</ele>
  <time>2026-09-01T19:54:55Z</time>
  <course>10.93</course>
  <speed>0.022360679774997897</speed>
  <fix>3d</fix>
</trkpt>
<trkpt lat="-27.2744331" lon="151.2900642">
  <ele>343.09</ele>
  <time>2026-09-01T19:54:55Z</time>
  <course>202.95</course>
  <speed>0.0</speed>
  <fix>3d</fix>
</trkpt>
<trkpt lat="-27.2744333" lon="151.2900644">
  <ele>343.09</ele>
  <time>2026-09-01T19:54:55Z</time>
  <course>10.97</course>
  <speed>0.022360679774997897</speed>
  <fix>3d</fix>
</trkpt>
<trkpt lat="-27.2744331" lon="151.2900642">
  <ele>343.09</ele>
  <time>2026-09-01T19:54:55Z</time>
  <course>202.49</course>
  <speed>0.0</speed>
  <fix>3d</fix>
</trkpt>
<trkpt lat="-27.2744333" lon="151.2900644">
  <ele>343.1</ele>
  <time>2026-09-01T19:54:55Z</time>
  <course>11.0</course>
  <speed>0.022360679774997897</speed>
  <fix>3d</fix>
</trkpt>
<trkpt lat="-27.2744331" lon="151.2900642">
  <ele>343.09</ele>
  <time>2026-09-01T19:54:55Z</time>
  <course>202.49</course>
  <speed>0.0</speed>
  <fix>3d</fix>
</trkpt>
<trkpt lat="-27.2744333" lon="151.2900644">
  <ele>343.1</ele>
  <time>2026-09-01T19:54:55Z</time>
  <course>11.04</course>
  <speed>0.022360679774997897</speed>
  <fix>3d</fix>
</trkpt>
<trkpt lat="-27.2744331" lon="151.2900642">
  <ele>343.09</ele>
  <time>2026-09-01T19:54:55Z</time>
  <course>22.83</course>
  <speed>0.0</speed>
  <fix>3d</fix>
</trkpt>
<trkpt lat="-27.2744333" lon="151.2900644">
  <ele>343.11</ele>
  <time>2026-09-01T19:54:55Z</time>
  <course>11.07</course>
  <speed>0.022360679774997897</speed>
  <fix>3d</fix>
</trkpt>
<trkpt lat="-27.2744331" lon="151.2900642">
  <ele>343.09</ele>
  <time>2026-09-01T19:54:55Z</time>
  <course>22.83</course>
  <speed>0.0</speed>
  <fix>3d</fix>
</trkpt>
<trkpt lat="-27.2744333" lon="151.2900644">
  <ele>343.12</ele>
  <time>2026-09-01T19:54:55Z</time>
  <course>11.1</course>
  <speed>0.022360679774997897</speed>
  <fix>3d</fix>
</trkpt>
<trkpt lat="-27.2744331" lon="151.2900642">
  <ele>343.09</ele>
  <time>2026-09-01T19:54:55Z</time>
  <course>22.3</course>
  <speed>0.0</speed>
  <fix>3d</fix>
</trkpt>
<trkpt lat="-27.2744333" lon="151.2900643">
  <ele>343.12</ele>
  <time>2026-09-01T19:54:55Z</time>
  <course>11.12</course>
  <speed>0.022360679774997897</speed>
  <fix>3d</fix>
</trkpt>
<trkpt lat="-27.2744331" lon="151.2900642">
  <ele>343.09</ele>
  <time>2026-09-01T19:54:55Z</time>
  <course>22.3</course>
  <speed>0.0</speed>
  <fix>3d</fix>
</trkpt>
<trkpt lat="-27.2744332" lon="151.2900643">
  <ele>343.13</ele>
  <time>2026-09-01T19:54:55Z</time>
  <course>11.15</course>
  <speed>0.022360679774997897</speed>
  <fix>3d</fix>
</trkpt>
<trkpt lat="-27.2744331" lon="151.2900642">
  <ele>343.09</ele>
  <time>2026-09-01T19:54:55Z</time>
  <course>202.95</course>
  <speed>0.0</speed>
  <fix>3d</fix>
</trkpt>
<trkpt lat="-27.2744332" lon="151.2900643">
  <ele>343.14</ele>
  <time>2026-09-01T19:54:55Z</time>
  <course>11.17</course>
  <speed>0.022360679774997897</speed>
  <fix>3d</fix>
</trkpt>
<trkpt lat="-27.2744331" lon="151.2900642">
  <ele>343.09</ele>
  <time>2026-09-01T19:54:55Z</time>
  <course>202.95</course>
  <speed>0.0</speed>
  <fix>3d</fix>
</trkpt>
<trkpt lat="-27.2744332" lon="151.2900643">
  <ele>343.14</ele>
  <time>2026-09-01T19:54:55Z</time>
  <course>11.2</course>
  <speed>0.022360679774997897</speed>
  <fix>3d</fix>
</trkpt>
<trkpt lat="-27.2744331" lon="151.2900642">
  <ele>343.09</ele>
  <time>2026-09-01T19:54:55Z</time>
  <course>214.07</course>
  <speed>0.0</speed>
  <fix>3d</fix>
</trkpt>
<trkpt lat="-27.2744332" lon="151.2900643">
  <ele>343.14</ele>
  <time>2026-09-01T19:54:55Z</time>
  <course>11.22</course>
  <speed>0.022360679774997897</speed>
  <fix>3d</fix>
</trkpt>
<trkpt lat="-27.2744331" lon="151.2900642">
  <ele>343.09</ele>
  <time>2026-09-01T19:54:55Z</time>
  <course>214.07</course>
  <speed>0.0</speed>
  <fix>3d</fix>
</trkpt>
<trkpt lat="-27.2744332" lon="151.2900643">
  <ele>343.14</ele>
  <time>2026-09-01T19:54:55Z</time>
  <course>11.24</course>
  <speed>0.02</speed>
  <fix>3d</fix>
</trkpt>
<trkpt lat="-27.2744331" lon="151.2900642">
  <ele>343.09</ele>
  <time>2026-09-01T19:54:55Z</time>
  <course>15.05</course>
  <speed>0.0</speed>
  <fix>3d</fix>
</trkpt>
<trkpt lat="-27.2744332" lon="151.2900643">
  <ele>343.14</ele>
  <time>2026-09-01T19:54:55Z</time>
  <course>11.26</course>
  <speed>0.02</speed>
  <fix>3d</fix>
</trkpt>
<trkpt lat="-27.2744331" lon="151.2900642">
  <ele>343.09</ele>
  <time>2026-09-01T19:54:55Z</time>
  <course>15.05</course>
  <speed>0.0</speed>
  <fix>3d</fix>
</trkpt>
<trkpt lat="-27.2744332" lon="151.2900643">
  <ele>343.14</ele>
  <time>2026-09-01T19:54:55Z</time>
  <course>11.28</course>
  <speed>0.01</speed>
  <fix>3d</fix>
</trkpt>
<trkpt lat="-27.2744331" lon="151.2900642">
  <ele>343.09</ele>
  <time>2026-09-01T19:54:55Z</time>
  <course>358.8</course>
  <speed>0.0</speed>
  <fix>3d</fix>
</trkpt>
<trkpt lat="-27.2744332" lon="151.2900643">
  <ele>343.14</ele>
  <time>2026-09-01T19:54:55Z</time>
  <course>11.3</course>
  <speed>0.01</speed>
  <fix>3d</fix>
</trkpt>
<trkpt lat="-27.2744331" lon="151.2900642">
  <ele>343.09</ele>
  <time>2026-09-01T19:54:55Z</time>
  <course>358.8</course>
  <speed>0.0</speed>
  <fix>3d</fix>
</trkpt>
<trkpt lat="-27.2744332" lon="151.2900643">
  <ele>343.14</ele>
  <time>2026-09-01T19:54:55Z</time>
  <course>11.32</course>
  <speed>0.01</speed>
  <fix>3d</fix>
</trkpt>
<trkpt lat="-27.2744331" lon="151.2900642">
  <ele>343.09</ele>
  <time>2026-09-01T19:54:55Z</time>
  <course>353.49</course>
  <speed>0.0</speed>
  <fix>3d</fix>
</trkpt>
<trkpt lat="-27.2744332" lon="151.2900643">
  <ele>343.15</ele>
  <time>2026-09-01T19:54:55Z</time>
  <course>11.34</course>
  <speed>0.01</speed>
  <fix>3d</fix>
</trkpt>
<trkpt lat="-27.2744331" lon="151.2900642">
  <ele>343.09</ele>
  <time>2026-09-01T19:54:55Z</time>
  <course>353.49</course>
  <speed>0.0</speed>
  <fix>3d</fix>
</trkpt>
<trkpt lat="-27.2744332" lon="151.2900643">
  <ele>343.15</ele>
  <time>2026-09-01T19:54:55Z</time>
  <course>11.35</course>
  <speed>0.01</speed>
  <fix>3d</fix>
</trkpt>
<trkpt lat="-27.2744331" lon="151.2900642">
  <ele>343.09</ele>
  <time>2026-09-01T19:54:55Z</time>
  <course>352.69</course>
  <speed>0.0</speed>
  <fix>3d</fix>
</trkpt>
<trkpt lat="-27.2744332" lon="151.2900643">
  <ele>343.15</ele>
  <time>2026-09-01T19:54:55Z</time>
  <course>11.37</course>
  <speed>0.01</speed>
  <fix>3d</fix>
</trkpt>
<trkpt lat="-27.2744331" lon="151.2900642">
  <ele>343.09</ele>
  <time>2026-09-01T19:54:55Z</time>
  <course>352.69</course>
  <speed>0.0</speed>
  <fix>3d</fix>
</trkpt>
<trkpt lat="-27.2744332" lon="151.2900643">
  <ele>343.15</ele>
  <time>2026-09-01T19:54:55Z</time>
  <course>11.38</course>
  <speed>0.01</speed>
  <fix>3d</fix>
</trkpt>
<trkpt lat="-27.2744331" lon="151.2900642">
  <ele>343.09</ele>
  <time>2026-09-01T19:54:55Z</time>
  <course>352.58</course>
  <speed>0.0</speed>
  <fix>3d</fix>
</trkpt>
<trkpt lat="-27.2744332" lon="151.2900643">
  <ele>343.16</ele>
  <time>2026-09-01T19:54:55Z</time>
  <course>11.4</course>
  <speed>0.01</speed>
  <fix>3d</fix>
</trkpt>
<trkpt lat="-27.2744331" lon="151.2900642">
  <ele>343.09</ele>
  <time>2026-09-01T19:54:55Z</time>
  <course>352.58</course>
  <speed>0.0</speed>
  <fix>3d</fix>
</trkpt>
<trkpt lat="-27.2744332" lon="151.2900643">
  <ele>343.09</ele>
  <time>2026-09-01T19:54:55Z</time>
  <course>11.41</course>
  <speed>0.01</speed>
  <fix>3d</fix>
</trkpt>
<trkpt lat="-27.2744331" lon="151.2900642">
  <ele>343.09</ele>
  <time>2026-09-01T19:54:55Z</time>
  <course>352.57</course>
  <speed>0.0</speed>
  <fix>3d</fix>
</trkpt>
<trkpt lat="-27.2744332" lon="151.2900643">
  <ele>343.09</ele>
  <time>2026-09-01T19:54:55Z</time>
  <course>11.43</course>
  <speed>0.01</speed>
  <fix>3d</fix>
</trkpt>
<trkpt lat="-27.2744331" lon="151.2900642">
  <ele>343.09</ele>
  <time>2026-09-01T19:54:55Z</time>
  <course>352.57</course>
  <speed>0.0</speed>
  <fix>3d</fix>
</trkpt>
<trkpt lat="-27.2744332" lon="151.2900643">
  <ele>343.08</ele>
  <time>2026-09-01T19:54:55Z</time>
  <course>11.44</course>
  <speed>0.01</speed>
  <fix>3d</fix>
</trkpt>
<trkpt lat="-27.2744331" lon="151.2900642">
  <ele>343.09</ele>
  <time>2026-09-01T19:54:55Z</time>
  <course>352.56</course>
  <speed>0.0</speed>
  <fix>3d</fix>
</trkpt>
<trkpt lat="-27.2744332" lon="151.2900643">
  <ele>343.08</ele>
  <time>2026-09-01T19:54:55Z</time>
  <course>11.45</course>
  <speed>0.01</speed>
  <fix>3d</fix>
</trkpt>
<trkpt lat="-27.2744331" lon="151.2900642">
  <ele>343.09</ele>
  <time>2026-09-01T19:54:55Z</time>
  <course>352.56</course>
  <speed>0.0</speed>
  <fix>3d</fix>
</trkpt>
<trkpt lat="-27.2744332" lon="151.2900643">
  <ele>343.08</ele>
  <time>2026-09-01T19:54:55Z</time>
  <course>11.47</course>
  <speed>0.01</speed>
  <fix>3d</fix>
</trkpt>
<trkpt lat="-27.2744331" lon="151.2900642">
  <ele>343.09</ele>
  <time>2026-09-01T19:54:55Z</time>
  <course>352.56</course>
  <speed>0.0</speed>
  <fix>3d</fix>
</trkpt>
<trkpt lat="-27.2744332" lon="151.2900643">
  <ele>343.08</ele>
  <time>2026-09-01T19:54:55Z</time>
  <course>11.48</course>
  <speed>0.01</speed>
  <fix>3d</fix>
</trkpt>
<trkpt lat="-27.2744331" lon="151.2900642">
  <ele>343.09</ele>
  <time>2026-09-01T19:54:55Z</time>
  <course>352.56</course>
  <speed>0.0</speed>
  <fix>3d</fix>
</trkpt>
<trkpt lat="-27.2744332" lon="151.2900643">
  <ele>343.08</ele>
  <time>2026-09-01T19:54:55Z</time>
  <course>11.49</course>
  <speed>0.01</speed>
  <fix>3d</fix>
</trkpt>
<trkpt lat="-27.2744331" lon="151.2900642">
  <ele>343.09</ele>
  <time>2026-09-01T19:54:55Z</time>
  <course>352.56</course>
  <speed>0.0</speed>
  <fix>3d</fix>
</trkpt>
<trkpt lat="-27.2744332" lon="151.2900643">
  <ele>343.07</ele>
  <time>2026-09-01T19:54:55Z</time>
  <course>11.5</course>
  <speed>0.01</speed>
  <fix>3d</fix>
</trkpt>
<trkpt lat="-27.2744331" lon="151.2900642">
  <ele>343.09</ele>
  <time>2026-09-01T19:54:55Z</time>
  <course>352.56</course>
  <speed>0.0</speed>
  <fix>3d</fix>
</trkpt>
<trkpt lat="-27.2744332" lon="151.2900643">
  <ele>343.07</ele>
  <time>2026-09-01T19:54:55Z</time>
  <course>11.51</course>
  <speed>0.01</speed>
  <fix>3d</fix>
</trkpt>
<trkpt lat="-27.2744331" lon="151.2900642">
  <ele>343.09</ele>
  <time>2026-09-01T19:54:55Z</time>
  <course>352.56</course>
  <speed>0.0</speed>
  <fix>3d</fix>
</trkpt>
<trkpt lat="-27.2744332" lon="151.2900643">
  <ele>343.07</ele>
  <time>2026-09-01T19:54:55Z</time>
  <course>11.52</course>
  <speed>0.01</speed>
  <fix>3d</fix>
</trkpt>
<trkpt lat="-27.2744331" lon="151.2900642">
  <ele>343.09</ele>
  <time>2026-09-01T19:54:55Z</time>
  <course>352.56</course>
  <speed>0.0</speed>
  <fix>3d</fix>
</trkpt>
<trkpt lat="-27.2744332" lon="151.2900643">
  <ele>343.06</ele>
  <time>2026-09-01T19:54:55Z</time>
  <course>11.53</course>
  <speed>0.01</speed>
  <fix>3d</fix>
</trkpt>
<trkpt lat="-27.2744331" lon="151.2900642">
  <ele>343.09</ele>
  <time>2026-09-01T19:54:55Z</time>
  <course>148.65</course>
  <speed>0.0</speed>
  <fix>3d</fix>
</trkpt>
<trkpt lat="-27.2744332" lon="151.2900643">
  <ele>343.06</ele>
  <time>2026-09-01T19:54:55Z</time>
  <course>11.54</course>
  <speed>0.01</speed>
  <fix>3d</fix>
</trkpt>
<trkpt lat="-27.2744331" lon="151.2900642">
  <ele>343.09</ele>
  <time>2026-09-01T19:54:55Z</time>
  <course>148.65</course>
  <speed>0.0</speed>
  <fix>3d</fix>
</trkpt>
<trkpt lat="-27.2744332" lon="151.2900643">
  <ele>343.06</ele>
  <time>2026-09-01T19:54:55Z</time>
  <course>11.54</course>
  <speed>0.01</speed>
  <fix>3d</fix>
</trkpt>
<trkpt lat="-27.2744332" lon="151.2900643">
  <ele>343.05</ele>
  <time>2026-09-01T19:54:55Z</time>
  <course>11.55</course>
  <speed>0.01</speed>
  <fix>3d</fix>
</trkpt>
<trkpt lat="-27.2744331" lon="151.2900642">
  <ele>343.09</ele>
  <time>2026-09-01T19:54:55Z</time>
  <course>149.65</course>
  <speed>0.0</speed>
  <fix>3d</fix>
</trkpt>
<trkpt lat="-27.2744332" lon="151.2900643">
  <ele>343.05</ele>
  <time>2026-09-01T19:54:55Z</time>
  <course>11.55</course>
  <speed>0.01</speed>
  <fix>3d</fix>
</trkpt>
<trkpt lat="-27.2744332" lon="151.2900643">
  <ele>343.05</ele>
  <time>2026-09-01T19:54:55Z</time>
  <course>11.56</course>
  <speed>0.01</speed>
  <fix>3d</fix>
</trkpt>
<trkpt lat="-27.2744331" lon="151.2900642">
  <ele>343.09</ele>
  <time>2026-09-01T19:54:55Z</time>
  <course>149.65</course>
  <speed>0.0</speed>
  <fix>3d</fix>
</trkpt>
<trkpt lat="-27.2744332" lon="151.2900643">
  <ele>343.05</ele>
  <time>2026-09-01T19:54:55Z</time>
  <course>11.56</course>
  <speed>0.01</speed>
  <fix>3d</fix>
</trkpt>
<trkpt lat="-27.2744332" lon="151.2900643">
  <ele>343.05</ele>
  <time>2026-09-01T19:54:55Z</time>
  <course>11.57</course>
  <speed>0.01</speed>
  <fix>3d</fix>
</trkpt>
<trkpt lat="-27.2744331" lon="151.2900642">
  <ele>343.09</ele>
  <time>2026-09-01T19:54:55Z</time>
  <course>149.25</course>
  <speed>0.0</speed>
  <fix>3d</fix>
</trkpt>
<trkpt lat="-27.2744332" lon="151.2900643">
  <ele>343.05</ele>
  <time>2026-09-01T19:54:55Z</time>
  <course>11.57</course>
  <speed>0.01</speed>
  <fix>3d</fix>
</trkpt>
<trkpt lat="-27.2744332" lon="151.2900643">
  <ele>343.05</ele>
  <time>2026-09-01T19:54:55Z</time>
  <course>11.58</course>
  <speed>0.01</speed>
  <fix>3d</fix>
</trkpt>
<trkpt lat="-27.2744331" lon="151.2900642">
  <ele>343.09</ele>
  <time>2026-09-01T19:54:55Z</time>
  <course>149.25</course>
  <speed>0.0</speed>
  <fix>3d</fix>
</trkpt>
<trkpt lat="-27.2744332" lon="151.2900643">
  <ele>343.05</ele>
  <time>2026-09-01T19:54:55Z</time>
  <course>11.58</course>
  <speed>0.01</speed>
  <fix>3d</fix>
</trkpt>
<trkpt lat="-27.2744332" lon="151.2900643">
  <ele>343.05</ele>
  <time>2026-09-01T19:54:55Z</time>
  <course>11.59</course>
  <speed>0.01</speed>
  <fix>3d</fix>
</trkpt>
<trkpt lat="-27.2744331" lon="151.2900642">
  <ele>343.09</ele>
  <time>2026-09-01T19:54:55Z</time>
  <course>331.9</course>
  <speed>0.0</speed>
  <fix>3d</fix>
</trkpt>
<trkpt lat="-27.2744332" lon="151.2900643">
  <ele>343.05</ele>
  <time>2026-09-01T19:54:55Z</time>
  <course>11.59</course>
  <speed>0.01</speed>
  <fix>3d</fix>
</trkpt>
<trkpt lat="-27.2744332" lon="151.2900643">
  <ele>343.05</ele>
  <time>2026-09-01T19:54:55Z</time>
  <course>11.6</course>
  <speed>0.01</speed>
  <fix>3d</fix>
</trkpt>
<trkpt lat="-27.2744331" lon="151.2900642">
  <ele>343.09</ele>
  <time>2026-09-01T19:54:55Z</time>
  <course>331.9</course>
  <speed>0.0</speed>
  <fix>3d</fix>
</trkpt>
<trkpt lat="-27.2744332" lon="151.2900643">
  <ele>343.05</ele>
  <time>2026-09-01T19:54:55Z</time>
  <course>11.6</course>
  <speed>0.01</speed>
  <fix>3d</fix>
</trkpt>
<trkpt lat="-27.2744332" lon="151.2900643">
  <ele>343.05</ele>
  <time>2026-09-01T19:54:55Z</time>
  <course>11.61</course>
  <speed>0.01</speed>
  <fix>3d</fix>
</trkpt>
<trkpt lat="-27.2744331" lon="151.2900642">
  <ele>343.09</ele>
  <time>2026-09-01T19:54:55Z</time>
  <course>329.39</course>
  <speed>0.0</speed>
  <fix>3d</fix>
</trkpt>
<trkpt lat="-27.2744332" lon="151.2900643">
  <ele>343.05</ele>
  <time>2026-09-01T19:54:55Z</time>
  <course>11.61</course>
  <speed>0.01</speed>
  <fix>3d</fix>
</trkpt>
<trkpt lat="-27.2744332" lon="151.2900643">
  <ele>343.05</ele>
  <time>2026-09-01T19:54:55Z</time>
  <course>11.61</course>
  <speed>0.01</speed>
  <fix>3d</fix>
</trkpt>
<trkpt lat="-27.2744331" lon="151.2900642">
  <ele>343.09</ele>
  <time>2026-09-01T19:54:55Z</time>
  <course>329.39</course>
  <speed>0.0</speed>
  <fix>3d</fix>
</trkpt>
<trkpt lat="-27.2744332" lon="151.2900643">
  <ele>343.06</ele>
  <time>2026-09-01T19:54:55Z</time>
  <course>11.62</course>
  <speed>0.01</speed>
  <fix>3d</fix>
</trkpt>
<trkpt lat="-27.2744332" lon="151.2900643">
  <ele>343.07</ele>
  <time>2026-09-01T19:54:55Z</time>
  <course>11.62</course>
  <speed>0.01</speed>
  <fix>3d</fix>
</trkpt>
<trkpt lat="-27.2744331" lon="151.2900642">
  <ele>343.09</ele>
  <time>2026-09-01T19:54:55Z</time>
  <course>6.17</course>
  <speed>0.0</speed>
  <fix>3d</fix>
</trkpt>
<trkpt lat="-27.2744332" lon="151.2900643">
  <ele>343.08</ele>
  <time>2026-09-01T19:54:55Z</time>
  <course>11.62</course>
  <speed>0.01</speed>
  <fix>3d</fix>
</trkpt>
<trkpt lat="-27.2744332" lon="151.2900643">
  <ele>343.1</ele>
  <time>2026-09-01T19:54:55Z</time>
  <course>11.63</course>
  <speed>0.01</speed>
  <fix>3d</fix>
</trkpt>
<trkpt lat="-27.2744331" lon="151.2900642">
  <ele>343.09</ele>
  <time>2026-09-01T19:54:55Z</time>
  <course>6.17</course>
  <speed>0.0</speed>
  <fix>3d</fix>
</trkpt>
<trkpt lat="-27.2744332" lon="151.2900643">
  <ele>343.12</ele>
  <time>2026-09-01T19:54:55Z</time>
  <course>11.63</course>
  <speed>0.01</speed>
  <fix>3d</fix>
</trkpt>
<trkpt lat="-27.2744332" lon="151.2900643">
  <ele>343.15</ele>
  <time>2026-09-01T19:54:55Z</time>
  <course>11.64</course>
  <speed>0.01</speed>
  <fix>3d</fix>
</trkpt>
<trkpt lat="-27.2744331" lon="151.2900642">
  <ele>343.12</ele>
  <time>2026-09-01T19:54:55Z</time>
  <course>8.82</course>
  <speed>0.0</speed>
  <fix>3d</fix>
</trkpt>
<trkpt lat="-27.2744332" lon="151.2900643">
  <ele>343.15</ele>
  <time>2026-09-01T19:54:55Z</time>
  <course>11.64</course>
  <speed>0.01</speed>
  <fix>3d</fix>
</trkpt>
<trkpt lat="-27.2744332" lon="151.2900643">
  <ele>343.21</ele>
  <time>2026-09-01T19:54:55Z</time>
  <course>11.64</course>
  <speed>0.01</speed>
  <fix>3d</fix>
</trkpt>
<trkpt lat="-27.2744331" lon="151.2900642">
  <ele>343.12</ele>
  <time>2026-09-01T19:54:55Z</time>
  <course>8.82</course>
  <speed>0.0</speed>
  <fix>3d</fix>
</trkpt>
<trkpt lat="-27.2744332" lon="151.2900643">
  <ele>343.21</ele>
  <time>2026-09-01T19:54:55Z</time>
  <course>11.64</course>
  <speed>0.01</speed>
  <fix>3d</fix>
</trkpt>
<trkpt lat="-27.2744332" lon="151.2900643">
  <ele>343.33</ele>
  <time>2026-09-01T19:54:55Z</time>
  <course>11.63</course>
  <speed>0.022360679774997897</speed>
  <fix>3d</fix>
</trkpt>
<trkpt lat="-27.2744331" lon="151.2900642">
  <ele>343.19</ele>
  <time>2026-09-01T19:54:55Z</time>
  <course>4.21</course>
  <speed>0.0</speed>
  <fix>3d</fix>
</trkpt>
<trkpt lat="-27.2744332" lon="151.2900643">
  <ele>343.38</ele>
  <time>2026-09-01T19:54:55Z</time>
  <course>11.63</course>
  <speed>0.0316227766016838</speed>
  <fix>3d</fix>
</trkpt>
<trkpt lat="-27.2744332" lon="151.2900643">
  <ele>343.51</ele>
  <time>2026-09-01T19:54:55Z</time>
  <course>11.61</course>
  <speed>0.06082762530298219</speed>
  <fix>3d</fix>
</trkpt>
<trkpt lat="-27.2744331" lon="151.2900642">
  <ele>343.19</ele>
  <time>2026-09-01T19:54:55Z</time>
  <course>4.21</course>
  <speed>0.0</speed>
  <fix>3d</fix>
</trkpt>
<trkpt lat="-27.2744331" lon="151.2900643">
  <ele>343.56</ele>
  <time>2026-09-01T19:54:55Z</time>
  <course>11.6</course>
  <speed>0.07280109889280519</speed>
  <fix>3d</fix>
</trkpt>
<trkpt lat="-27.2744331" lon="151.2900643">
  <ele>343.73</ele>
  <time>2026-09-01T19:54:55Z</time>
  <course>11.57</course>
  <speed>0.1019803902718557</speed>
  <fix>3d</fix>
</trkpt>
<trkpt lat="-27.2744331" lon="151.2900642">
  <ele>343.39</ele>
  <time>2026-09-01T19:54:55Z</time>
  <course>3.13</course>
  <speed>0.04</speed>
  <fix>3d</fix>
</trkpt>
<trkpt lat="-27.274433" lon="151.2900643">
  <ele>343.8</ele>
  <time>2026-09-01T19:54:55Z</time>
  <course>11.56</course>
  <speed>0.1118033988749895</speed>
  <fix>3d</fix>
</trkpt>
<trkpt lat="-27.274433" lon="151.2900643">
  <ele>343.96</ele>
  <time>2026-09-01T19:54:55Z</time>
  <course>11.52</course>
  <speed>0.1414213562373095</speed>
  <fix>3d</fix>
</trkpt>
<trkpt lat="-27.2744331" lon="151.2900642">
  <ele>343.39</ele>
  <time>2026-09-01T19:54:55Z</time>
  <course>3.13</course>
  <speed>0.04</speed>
  <fix>3d</fix>
</trkpt>
<trkpt lat="-27.2744329" lon="151.2900643">
  <ele>344.03</ele>
  <time>2026-09-01T19:54:55Z</time>
  <course>11.51</course>
  <speed>0.15297058540778355</speed>
  <fix>3d</fix>
</trkpt>
<trkpt lat="-27.2744328" lon="151.2900643">
  <ele>344.19</ele>
  <time>2026-09-01T19:54:55Z</time>
  <course>11.47</course>
  <speed>0.1824828759089466</speed>
  <fix>3d</fix>
</trkpt>
<trkpt lat="-27.274433" lon="151.2900642">
  <ele>343.76</ele>
  <time>2026-09-01T19:54:55Z</time>
  <course>3.65</course>
  <speed>0.12</speed>
  <fix>3d</fix>
</trkpt>
<trkpt lat="-27.2744327" lon="151.2900643">
  <ele>344.26</ele>
  <time>2026-09-01T19:54:55Z</time>
  <course>11.45</course>
  <speed>0.20223748416156684</speed>
  <fix>3d</fix>
</trkpt>
<trkpt lat="-27.2744326" lon="151.2900643">
  <ele>344.42</ele>
  <time>2026-09-01T19:54:55Z</time>
  <course>11.42</course>
  <speed>0.223606797749979</speed>
  <fix>3d</fix>
</trkpt>
<trkpt lat="-27.274433" lon="151.2900642">
  <ele>343.76</ele>
  <time>2026-09-01T19:54:55Z</time>
  <course>3.65</course>
  <speed>0.12</speed>
  <fix>3d</fix>
</trkpt>
<trkpt lat="-27.2744325" lon="151.2900643">
  <ele>344.48</ele>
  <time>2026-09-01T19:54:55Z</time>
  <course>11.41</course>
  <speed>0.23345235059857505</speed>
  <fix>3d</fix>
</trkpt>
<trkpt lat="-27.2744324" lon="151.2900643">
  <ele>344.65</ele>
  <time>2026-09-01T19:54:55Z</time>
  <course>11.38</course>
  <speed>0.26305892875931813</speed>
  <fix>3d</fix>
</trkpt>
<trkpt lat="-27.2744327" lon="151.2900642">
  <ele>344.22</ele>
  <time>2026-09-01T19:54:55Z</time>
  <course>4.29</course>
  <speed>0.2</speed>
  <fix>3d</fix>
</trkpt>
<trkpt lat="-27.2744323" lon="151.2900643">
  <ele>344.72</ele>
  <time>2026-09-01T19:54:55Z</time>
  <course>11.37</course>
  <speed>0.27294688127912364</speed>
  <fix>3d</fix>
</trkpt>
<trkpt lat="-27.2744321" lon="151.2900644">
  <ele>344.88</ele>
  <time>2026-09-01T19:54:55Z</time>
  <course>11.35</course>
  <speed>0.304138126514911</speed>
  <fix>3d</fix>
</trkpt>
<trkpt lat="-27.2744327" lon="151.2900642">
  <ele>344.22</ele>
  <time>2026-09-01T19:54:55Z</time>
  <course>4.29</course>
  <speed>0.2</speed>
  <fix>3d</fix>
</trkpt>
<trkpt lat="-27.274432" lon="151.2900644">
  <ele>344.94</ele>
  <time>2026-09-01T19:54:55Z</time>
  <course>11.35</course>
  <speed>0.31400636936215165</speed>
  <fix>3d</fix>
</trkpt>
<trkpt lat="-27.2744318" lon="151.2900644">
  <ele>345.1</ele>
  <time>2026-09-01T19:54:55Z</time>
  <course>11.1</course>
  <speed>0.33376638536557274</speed>
  <fix>3d</fix>
</trkpt>
<trkpt lat="-27.2744323" lon="151.2900642">
  <ele>344.68</ele>
  <time>2026-09-01T19:54:55Z</time>
  <course>4.73</course>
  <speed>0.28</speed>
  <fix>3d</fix>
</trkpt>
<trkpt lat="-27.2744317" lon="151.2900644">
  <ele>345.17</ele>
  <time>2026-09-01T19:54:55Z</time>
  <course>10.91</course>
  <speed>0.34365680554879163</speed>
  <fix>3d</fix>
</trkpt>
<trkpt lat="-27.2744315" lon="151.2900644">
  <ele>345.33</ele>
  <time>2026-09-01T19:54:55Z</time>
  <course>10.47</course>
  <speed>0.3634556369077249</speed>
  <fix>3d</fix>
</trkpt>
<trkpt lat="-27.2744323" lon="151.2900642">
  <ele>344.68</ele>
  <time>2026-09-01T19:54:55Z</time>
  <course>4.73</course>
  <speed>0.28</speed>
  <fix>3d</fix>
</trkpt>
<trkpt lat="-27.2744315" lon="151.2900644">
  <ele>345.33</ele>
  <time>2026-09-01T19:54:55Z</time>
  <course>10.45</course>
  <speed>0.3634556369077249</speed>
  <fix>3d</fix>
</trkpt>
<trkpt lat="-27.2744311" lon="151.2900645">
  <ele>345.54</ele>
  <time>2026-09-01T19:54:55Z</time>
  <course>10.17</course>
  <speed>0.3945883931389772</speed>
  <fix>3d</fix>
</trkpt>
<trkpt lat="-27.2744317" lon="151.2900643">
  <ele>345.13</ele>
  <time>2026-09-01T19:54:55Z</time>
  <course>5.0</course>
  <speed>0.35</speed>
  <fix>3d</fix>
</trkpt>
<trkpt lat="-27.2744311" lon="151.2900645">
  <ele>345.54</ele>
  <time>2026-09-01T19:54:55Z</time>
  <course>10.16</course>
  <speed>0.3945883931389772</speed>
  <fix>3d</fix>
</trkpt>
<trkpt lat="-27.2744308" lon="151.2900645">
  <ele>345.74</ele>
  <time>2026-09-01T19:54:55Z</time>
  <course>10.23</course>
  <speed>0.4143669871020132</speed>
  <fix>3d</fix>
</trkpt>
<trkpt lat="-27.2744317" lon="151.2900643">
  <ele>345.13</ele>
  <time>2026-09-01T19:54:55Z</time>
  <course>5.0</course>
  <speed>0.35</speed>
  <fix>3d</fix>
</trkpt>
<trkpt lat="-27.2744307" lon="151.2900645">
  <ele>345.79</ele>
  <time>2026-09-01T19:54:55Z</time>
  <course>10.3</course>
  <speed>0.4242640687119285</speed>
  <fix>3d</fix>
</trkpt>
<trkpt lat="-27.2744304" lon="151.2900645">
  <ele>345.93</ele>
  <time>2026-09-01T19:54:55Z</time>
  <course>10.52</course>
  <speed>0.4341658669218482</speed>
  <fix>3d</fix>
</trkpt>
<trkpt lat="-27.274431" lon="151.2900644">
  <ele>345.55</ele>
  <time>2026-09-01T19:54:55Z</time>
  <course>5.12</course>
  <speed>0.41</speed>
  <fix>3d</fix>
</trkpt>
<trkpt lat="-27.2744302" lon="151.2900646">
  <ele>345.99</ele>
  <time>2026-09-01T19:54:55Z</time>
  <course>10.63</course>
  <speed>0.4440720662234904</speed>
  <fix>3d</fix>
</trkpt>
<trkpt lat="-27.27443" lon="151.2900646">
  <ele>346.12</ele>
  <time>2026-09-01T19:54:55Z</time>
  <course>10.89</course>
  <speed>0.45398237851264667</speed>
  <fix>3d</fix>
</trkpt>
<trkpt lat="-27.274431" lon="151.2900644">
  <ele>345.55</ele>
  <time>2026-09-01T19:54:55Z</time>
  <course>5.12</course>
  <speed>0.41</speed>
  <fix>3d</fix>
</trkpt>
<trkpt lat="-27.2744299" lon="151.2900646">
  <ele>346.12</ele>
  <time>2026-09-01T19:54:55Z</time>
  <course>10.91</course>
  <speed>0.45398237851264667</speed>
  <fix>3d</fix>
</trkpt>
<trkpt lat="-27.2744295" lon="151.2900646">
  <ele>346.29</ele>
  <time>2026-09-01T19:54:55Z</time>
  <course>11.24</course>
  <speed>0.4738143096192854</speed>
  <fix>3d</fix>
</trkpt>
<trkpt lat="-27.2744302" lon="151.2900645">
  <ele>345.94</ele>
  <time>2026-09-01T19:54:55Z</time>
  <course>5.17</course>
  <speed>0.46</speed>
  <fix>3d</fix>
</trkpt>
<trkpt lat="-27.2744295" lon="151.2900646">
  <ele>346.3</ele>
  <time>2026-09-01T19:54:55Z</time>
  <course>11.25</course>
  <speed>0.4738143096192854</speed>
  <fix>3d</fix>
</trkpt>
<trkpt lat="-27.2744291" lon="151.2900647">
  <ele>346.45</ele>
  <time>2026-09-01T19:54:55Z</time>
  <course>11.5</course>
  <speed>0.48373546489791297</speed>
  <fix>3d</fix>
</trkpt>
<trkpt lat="-27.2744302" lon="151.2900645">
  <ele>345.94</ele>
  <time>2026-09-01T19:54:55Z</time>
  <course>5.17</course>
  <speed>0.46</speed>
  <fix>3d</fix>
</trkpt>
<trkpt lat="-27.274429" lon="151.2900647">
  <ele>346.5</ele>
  <time>2026-09-01T19:54:55Z</time>
  <course>11.56</course>
  <speed>0.4936598018878993</speed>
  <fix>3d</fix>
</trkpt>
<trkpt lat="-27.2744286" lon="151.2900647">
  <ele>346.61</ele>
  <time>2026-09-01T19:54:55Z</time>
  <course>11.67</course>
  <speed>0.5035871324805669</speed>
  <fix>3d</fix>
</trkpt>
<trkpt lat="-27.2744293" lon="151.2900645">
  <ele>346.3</ele>
  <time>2026-09-01T19:54:55Z</time>
  <course>5.18</course>
  <speed>0.49</speed>
  <fix>3d</fix>
</trkpt>
<trkpt lat="-27.2744285" lon="151.2900647">
  <ele>346.66</ele>
  <time>2026-09-01T19:54:55Z</time>
  <course>11.7</course>
  <speed>0.5035871324805669</speed>
  <fix>3d</fix>
</trkpt>
<trkpt lat="-27.2744282" lon="151.2900648">
  <ele>346.76</ele>
  <time>2026-09-01T19:54:55Z</time>
  <course>11.75</course>
  <speed>0.5135172830587107</speed>
  <fix>3d</fix>
</trkpt>
<trkpt lat="-27.2744293" lon="151.2900645">
  <ele>346.3</ele>
  <time>2026-09-01T19:54:55Z</time>
  <course>5.18</course>
  <speed>0.49</speed>
  <fix>3d</fix>
</trkpt>
<trkpt lat="-27.274428" lon="151.2900648">
  <ele>346.8</ele>
  <time>2026-09-01T19:54:55Z</time>
  <course>11.75</course>
  <speed>0.5135172830587107</speed>
  <fix>3d</fix>
</trkpt>
<trkpt lat="-27.2744277" lon="151.2900648">
  <ele>346.9</ele>
  <time>2026-09-01T19:54:55Z</time>
  <course>11.75</course>
  <speed>0.523450093132096</speed>
  <fix>3d</fix>
</trkpt>
<trkpt lat="-27.2744284" lon="151.2900646">
  <ele>346.61</ele>
  <time>2026-09-01T19:54:55Z</time>
  <course>5.16</course>
  <speed>0.52</speed>
  <fix>3d</fix>
</trkpt>
<trkpt lat="-27.2744275" lon="151.2900648">
  <ele>346.94</ele>
  <time>2026-09-01T19:54:55Z</time>
  <course>11.74</course>
  <speed>0.5333854141237835</speed>
  <fix>3d</fix>
</trkpt>
<trkpt lat="-27.2744272" lon="151.2900649">
  <ele>347.04</ele>
  <time>2026-09-01T19:54:55Z</time>
  <course>11.7</course>
  <speed>0.5333854141237835</speed>
  <fix>3d</fix>
</trkpt>
<trkpt lat="-27.2744284" lon="151.2900646">
  <ele>346.61</ele>
  <time>2026-09-01T19:54:55Z</time>
  <course>5.16</course>
  <speed>0.52</speed>
  <fix>3d</fix>
</trkpt>
<trkpt lat="-27.2744272" lon="151.2900649">
  <ele>347.04</ele>
  <time>2026-09-01T19:54:55Z</time>
  <course>11.7</course>
  <speed>0.5333854141237835</speed>
  <fix>3d</fix>
</trkpt>
<trkpt lat="-27.2744267" lon="151.2900649">
  <ele>347.17</ele>
  <time>2026-09-01T19:54:55Z</time>
  <course>11.62</course>
  <speed>0.5433231082882449</speed>
  <fix>3d</fix>
</trkpt>
<trkpt lat="-27.2744275" lon="151.2900647">
  <ele>346.9</ele>
  <time>2026-09-01T19:54:55Z</time>
  <course>5.11</course>
  <speed>0.55</speed>
  <fix>3d</fix>
</trkpt>
<trkpt lat="-27.2744265" lon="151.2900649">
  <ele>347.21</ele>
  <time>2026-09-01T19:54:55Z</time>
  <course>11.6</course>
  <speed>0.5532630477449222</speed>
  <fix>3d</fix>
</trkpt>
<trkpt lat="-27.2744262" lon="151.290065">
  <ele>347.3</ele>
  <time>2026-09-01T19:54:55Z</time>
  <course>11.54</course>
  <speed>0.5532630477449222</speed>
  <fix>3d</fix>
</trkpt>
<trkpt lat="-27.2744275" lon="151.2900647">
  <ele>346.9</ele>
  <time>2026-09-01T19:54:55Z</time>
  <course>5.11</course>
  <speed>0.55</speed>
  <fix>3d</fix>
</trkpt>
<trkpt lat="-27.2744262" lon="151.290065">
  <ele>347.3</ele>
  <time>2026-09-01T19:54:55Z</time>
  <course>11.54</course>
  <speed>0.5532630477449222</speed>
  <fix>3d</fix>
</trkpt>
<trkpt lat="-27.2744256" lon="151.290065">
  <ele>347.43</ele>
  <time>2026-09-01T19:54:55Z</time>
  <course>11.47</course>
  <speed>0.563205113613149</speed>
  <fix>3d</fix>
</trkpt>
<trkpt lat="-27.2744265" lon="151.2900648">
  <ele>347.16</ele>
  <time>2026-09-01T19:54:55Z</time>
  <course>5.0</course>
  <speed>0.57</speed>
  <fix>3d</fix>
</trkpt>
<trkpt lat="-27.2744255" lon="151.290065">
  <ele>347.46</ele>
  <time>2026-09-01T19:54:55Z</time>
  <course>11.45</course>
  <speed>0.5731491952362839</speed>
  <fix>3d</fix>
</trkpt>
<trkpt lat="-27.2744251" lon="151.2900651">
  <ele>347.56</ele>
  <time>2026-09-01T19:54:55Z</time>
  <course>11.41</course>
  <speed>0.5731491952362839</speed>
  <fix>3d</fix>
</trkpt>
<trkpt lat="-27.2744265" lon="151.2900648">
  <ele>347.16</ele>
  <time>2026-09-01T19:54:55Z</time>
  <course>5.0</course>
  <speed>0.57</speed>
  <fix>3d</fix>
</trkpt>
<trkpt lat="-27.274425" lon="151.2900651">
  <ele>347.6</ele>
  <time>2026-09-01T19:54:55Z</time>
  <course>11.4</course>
  <speed>0.58309518948453</speed>
  <fix>3d</fix>
</trkpt>
<trkpt lat="-27.2744246" lon="151.2900651">
  <ele>347.69</ele>
  <time>2026-09-01T19:54:55Z</time>
  <course>11.38</course>
  <speed>0.58309518948453</speed>
  <fix>3d</fix>
</trkpt>
<trkpt lat="-27.2744254" lon="151.2900649">
  <ele>347.43</ele>
  <time>2026-09-01T19:54:55Z</time>
  <course>4.88</course>
  <speed>0.59</speed>
  <fix>3d</fix>
</trkpt>
<trkpt lat="-27.2744244" lon="151.2900651">
  <ele>347.73</ele>
  <time>2026-09-01T19:54:55Z</time>
  <course>11.37</course>
  <speed>0.5930430001273095</speed>
  <fix>3d</fix>
</trkpt>
<trkpt lat="-27.274424" lon="151.2900652">
  <ele>347.83</ele>
  <time>2026-09-01T19:54:55Z</time>
  <course>11.37</course>
  <speed>0.5930430001273095</speed>
  <fix>3d</fix>
</trkpt>
<trkpt lat="-27.2744254" lon="151.2900649">
  <ele>347.43</ele>
  <time>2026-09-01T19:54:55Z</time>
  <course>4.88</course>
  <speed>0.59</speed>
  <fix>3d</fix>
</trkpt>
<trkpt lat="-27.2744239" lon="151.2900652">
  <ele>347.86</ele>
  <time>2026-09-01T19:54:55Z</time>
  <course>11.37</course>
  <speed>0.6029925372672534</speed>
  <fix>3d</fix>
</trkpt>
<trkpt lat="-27.2744235" lon="151.2900652">
  <ele>347.96</ele>
  <time>2026-09-01T19:54:55Z</time>
  <course>11.37</course>
  <speed>0.6029925372672534</speed>
  <fix>3d</fix>
</trkpt>
<trkpt lat="-27.2744243" lon="151.290065">
  <ele>347.69</ele>
  <time>2026-09-01T19:54:55Z</time>
  <course>4.74</course>
  <speed>0.61</speed>
  <fix>3d</fix>
</trkpt>
<trkpt lat="-27.2744233" lon="151.2900652">
  <ele>348.0</ele>
  <time>2026-09-01T19:54:55Z</time>
  <course>11.38</course>
  <speed>0.6129437168288782</speed>
  <fix>3d</fix>
</trkpt>
<trkpt lat="-27.2744229" lon="151.2900652">
  <ele>348.1</ele>
  <time>2026-09-01T19:54:55Z</time>
  <course>11.39</course>
  <speed>0.6129437168288782</speed>
  <fix>3d</fix>
</trkpt>
<trkpt lat="-27.2744243" lon="151.290065">
  <ele>347.69</ele>
  <time>2026-09-01T19:54:55Z</time>
  <course>4.74</course>
  <speed>0.61</speed>
  <fix>3d</fix>
</trkpt>
<trkpt lat="-27.2744228" lon="151.2900653">
  <ele>348.14</ele>
  <time>2026-09-01T19:54:55Z</time>
  <course>11.4</course>
  <speed>0.6228964600958975</speed>
  <fix>3d</fix>
</trkpt>
<trkpt lat="-27.2744223" lon="151.2900653">
  <ele>348.24</ele>
  <time>2026-09-01T19:54:55Z</time>
  <course>11.41</course>
  <speed>0.6228964600958975</speed>
  <fix>3d</fix>
</trkpt>
<trkpt lat="-27.2744232" lon="151.2900651">
  <ele>347.95</ele>
  <time>2026-09-01T19:54:55Z</time>
  <course>4.62</course>
  <speed>0.63</speed>
  <fix>3d</fix>
</trkpt>
<trkpt lat="-27.2744222" lon="151.2900653">
  <ele>348.28</ele>
  <time>2026-09-01T19:54:55Z</time>
  <course>11.42</course>
  <speed>0.6328506932918696</speed>
  <fix>3d</fix>
</trkpt>
<trkpt lat="-27.2744217" lon="151.2900653">
  <ele>348.38</ele>
  <time>2026-09-01T19:54:55Z</time>
  <course>11.44</course>
  <speed>0.6328506932918696</speed>
  <fix>3d</fix>
</trkpt>
<trkpt lat="-27.2744232" lon="151.2900651">
  <ele>347.95</ele>
  <time>2026-09-01T19:54:55Z</time>
  <course>4.62</course>
  <speed>0.63</speed>
  <fix>3d</fix>
</trkpt>
<trkpt lat="-27.2744211" lon="151.2900654">
  <ele>348.52</ele>
  <time>2026-09-01T19:54:55Z</time>
  <course>11.45</course>
  <speed>0.6428063471995279</speed>
  <fix>3d</fix>
</trkpt>
<trkpt lat="-27.2744221" lon="151.2900652">
  <ele>348.22</ele>
  <time>2026-09-01T19:54:55Z</time>
  <course>4.55</course>
  <speed>0.65</speed>
  <fix>3d</fix>
</trkpt>
<trkpt lat="-27.2744205" lon="151.2900654">
  <ele>348.66</ele>
  <time>2026-09-01T19:54:55Z</time>
  <course>11.46</course>
  <speed>0.6527633568147035</speed>
  <fix>3d</fix>
</trkpt>
<trkpt lat="-27.2744221" lon="151.2900652">
  <ele>348.22</ele>
  <time>2026-09-01T19:54:55Z</time>
  <course>4.55</course>
  <speed>0.65</speed>
  <fix>3d</fix>
</trkpt>
<trkpt lat="-27.2744199" lon="151.2900655">
  <ele>348.8</ele>
  <time>2026-09-01T19:54:55Z</time>
  <course>11.46</course>
  <speed>0.6627216610312356</speed>
  <fix>3d</fix>
</trkpt>
<trkpt lat="-27.2744209" lon="151.2900653">
  <ele>348.51</ele>
  <time>2026-09-01T19:54:55Z</time>
  <course>4.51</course>
  <speed>0.67</speed>
  <fix>3d</fix>
</trkpt>
<trkpt lat="-27.2744193" lon="151.2900655">
  <ele>348.93</ele>
  <time>2026-09-01T19:54:55Z</time>
  <course>11.46</course>
  <speed>0.6726812023536856</speed>
  <fix>3d</fix>
</trkpt>
<trkpt lat="-27.2744209" lon="151.2900653">
  <ele>348.51</ele>
  <time>2026-09-01T19:54:55Z</time>
  <course>4.51</course>
  <speed>0.67</speed>
  <fix>3d</fix>
</trkpt>
<trkpt lat="-27.2744187" lon="151.2900656">
  <ele>349.05</ele>
  <time>2026-09-01T19:54:55Z</time>
  <course>11.46</course>
  <speed>0.6726812023536856</speed>
  <fix>3d</fix>
</trkpt>
<trkpt lat="-27.2744197" lon="151.2900655">
  <ele>348.78</ele>
  <time>2026-09-01T19:54:55Z</time>
  <course>4.48</course>
  <speed>0.69</speed>
  <fix>3d</fix>
</trkpt>
<trkpt lat="-27.2744181" lon="151.2900656">
  <ele>349.15</ele>
  <time>2026-09-01T19:54:55Z</time>
  <course>11.46</course>
  <speed>0.6627216610312356</speed>
  <fix>3d</fix>
</trkpt>
<trkpt lat="-27.2744197" lon="151.2900655">
  <ele>348.78</ele>
  <time>2026-09-01T19:54:55Z</time>
  <course>4.48</course>
  <speed>0.69</speed>
  <fix>3d</fix>
</trkpt>
<trkpt lat="-27.2744175" lon="151.2900657">
  <ele>349.24</ele>
  <time>2026-09-01T19:54:55Z</time>
  <course>11.47</course>
  <speed>0.6419501538281613</speed>
  <fix>3d</fix>
</trkpt>
<trkpt lat="-27.2744184" lon="151.2900656">
  <ele>349.03</ele>
  <time>2026-09-01T19:54:55Z</time>
  <course>4.41</course>
  <speed>0.69</speed>
  <fix>3d</fix>
</trkpt>
<trkpt lat="-27.2744169" lon="151.2900657">
  <ele>349.3</ele>
  <time>2026-09-01T19:54:55Z</time>
  <course>11.48</course>
  <speed>0.6220128616033594</speed>
  <fix>3d</fix>
</trkpt>
<trkpt lat="-27.2744184" lon="151.2900656">
  <ele>349.03</ele>
  <time>2026-09-01T19:54:55Z</time>
  <course>4.41</course>
  <speed>0.69</speed>
  <fix>3d</fix>
</trkpt>
<trkpt lat="-27.2744163" lon="151.2900658">
  <ele>349.33</ele>
  <time>2026-09-01T19:54:55Z</time>
  <course>11.5</course>
  <speed>0.6020797289396147</speed>
  <fix>3d</fix>
</trkpt>
<trkpt lat="-27.2744172" lon="151.2900657">
  <ele>349.21</ele>
  <time>2026-09-01T19:54:55Z</time>
  <course>4.29</course>
  <speed>0.67</speed>
  <fix>3d</fix>
</trkpt>
<trkpt lat="-27.2744157" lon="151.2900658">
  <ele>349.35</ele>
  <time>2026-09-01T19:54:55Z</time>
  <course>11.53</course>
  <speed>0.5813776741499453</speed>
  <fix>3d</fix>
</trkpt>
<trkpt lat="-27.2744172" lon="151.2900657">
  <ele>349.21</ele>
  <time>2026-09-01T19:54:55Z</time>
  <course>4.29</course>
  <speed>0.67</speed>
  <fix>3d</fix>
</trkpt>
<trkpt lat="-27.2744152" lon="151.2900659">
  <ele>349.34</ele>
  <time>2026-09-01T19:54:55Z</time>
  <course>11.56</course>
  <speed>0.5514526271584895</speed>
  <fix>3d</fix>
</trkpt>
<trkpt lat="-27.274416" lon="151.2900658">
  <ele>349.31</ele>
  <time>2026-09-01T19:54:55Z</time>
  <course>4.1</course>
  <speed>0.62</speed>
  <fix>3d</fix>
</trkpt>
<trkpt lat="-27.2744147" lon="151.2900659">
  <ele>349.31</ele>
  <time>2026-09-01T19:54:55Z</time>
  <course>11.58</course>
  <speed>0.521536192416212</speed>
  <fix>3d</fix>
</trkpt>
<trkpt lat="-27.274416" lon="151.2900658">
  <ele>349.31</ele>
  <time>2026-09-01T19:54:55Z</time>
  <course>4.1</course>
  <speed>0.62</speed>
  <fix>3d</fix>
</trkpt>
<trkpt lat="-27.2744142" lon="151.2900659">
  <ele>349.26</ele>
  <time>2026-09-01T19:54:55Z</time>
  <course>11.6</course>
  <speed>0.4909175083453431</speed>
  <fix>3d</fix>
</trkpt>
<trkpt lat="-27.274415" lon="151.2900659">
  <ele>349.32</ele>
  <time>2026-09-01T19:54:55Z</time>
  <course>3.85</course>
  <speed>0.57</speed>
  <fix>3d</fix>
</trkpt>
<trkpt lat="-27.2744138" lon="151.290066">
  <ele>349.2</ele>
  <time>2026-09-01T19:54:55Z</time>
  <course>11.61</course>
  <speed>0.4509988913511872</speed>
  <fix>3d</fix>
</trkpt>
<trkpt lat="-27.274415" lon="151.2900659">
  <ele>349.32</ele>
  <time>2026-09-01T19:54:55Z</time>
  <course>3.85</course>
  <speed>0.57</speed>
  <fix>3d</fix>
</trkpt>
<trkpt lat="-27.2744134" lon="151.290066">
  <ele>349.14</ele>
  <time>2026-09-01T19:54:55Z</time>
  <course>11.61</course>
  <speed>0.4204759208325728</speed>
  <fix>3d</fix>
</trkpt>
<trkpt lat="-27.274414" lon="151.2900659">
  <ele>349.24</ele>
  <time>2026-09-01T19:54:55Z</time>
  <course>3.57</course>
  <speed>0.51</speed>
  <fix>3d</fix>
</trkpt>
<trkpt lat="-27.274413" lon="151.290066">
  <ele>349.06</ele>
  <time>2026-09-01T19:54:55Z</time>
  <course>11.61</course>
  <speed>0.38052595180880894</speed>
  <fix>3d</fix>
</trkpt>
<trkpt lat="-27.274414" lon="151.2900659">
  <ele>349.24</ele>
  <time>2026-09-01T19:54:55Z</time>
  <course>3.57</course>
  <speed>0.51</speed>
  <fix>3d</fix>
</trkpt>
<trkpt lat="-27.2744126" lon="151.290066">
  <ele>348.98</ele>
  <time>2026-09-01T19:54:55Z</time>
  <course>11.6</course>
  <speed>0.340147027033899</speed>
  <fix>3d</fix>
</trkpt>
<trkpt lat="-27.274413" lon="151.290066">
  <ele>349.12</ele>
  <time>2026-09-01T19:54:55Z</time>
  <course>3.24</course>
  <speed>0.44</speed>
  <fix>3d</fix>
</trkpt>
<trkpt lat="-27.2744123" lon="151.290066">
  <ele>348.91</ele>
  <time>2026-09-01T19:54:55Z</time>
  <course>11.58</course>
  <speed>0.30016662039607267</speed>
  <fix>3d</fix>
</trkpt>
<trkpt lat="-27.274413" lon="151.290066">
  <ele>349.12</ele>
  <time>2026-09-01T19:54:55Z</time>
  <course>3.24</course>
  <speed>0.44</speed>
  <fix>3d</fix>
</trkpt>
<trkpt lat="-27.274412" lon="151.2900661">
  <ele>348.83</ele>
  <time>2026-09-01T19:54:55Z</time>
  <course>11.57</course>
  <speed>0.2601922366251538</speed>
  <fix>3d</fix>
</trkpt>
<trkpt lat="-27.2744124" lon="151.2900661">
  <ele>348.97</ele>
  <time>2026-09-01T19:54:55Z</time>
  <course>2.85</course>
  <speed>0.36</speed>
  <fix>3d</fix>
</trkpt>
<trkpt lat="-27.2744118" lon="151.2900661">
  <ele>348.76</ele>
  <time>2026-09-01T19:54:55Z</time>
  <course>11.56</course>
  <speed>0.22022715545545238</speed>
  <fix>3d</fix>
</trkpt>
<trkpt lat="-27.2744124" lon="151.2900661">
  <ele>348.97</ele>
  <time>2026-09-01T19:54:55Z</time>
  <course>2.85</course>
  <speed>0.36</speed>
  <fix>3d</fix>
</trkpt>
<trkpt lat="-27.2744116" lon="151.2900661">
  <ele>348.69</ele>
  <time>2026-09-01T19:54:55Z</time>
  <course>11.56</course>
  <speed>0.18</speed>
  <fix>3d</fix>
</trkpt>
<trkpt lat="-27.2744118" lon="151.2900661">
  <ele>348.81</ele>
  <time>2026-09-01T19:54:55Z</time>
  <course>2.34</course>
  <speed>0.28</speed>
  <fix>3d</fix>
</trkpt>
<trkpt lat="-27.2744114" lon="151.2900661">
  <ele>348.62</ele>
  <time>2026-09-01T19:54:55Z</time>
  <course>11.56</course>
  <speed>0.14</speed>
  <fix>3d</fix>
</trkpt>
<trkpt lat="-27.2744118" lon="151.2900661">
  <ele>348.81</ele>
  <time>2026-09-01T19:54:55Z</time>
  <course>2.34</course>
  <speed>0.28</speed>
  <fix>3d</fix>
</trkpt>
<trkpt lat="-27.2744113" lon="151.2900661">
  <ele>348.57</ele>
  <time>2026-09-01T19:54:55Z</time>
  <course>11.57</course>
  <speed>0.1</speed>
  <fix>3d</fix>
</trkpt>
<trkpt lat="-27.2744114" lon="151.2900661">
  <ele>348.67</ele>
  <time>2026-09-01T19:54:55Z</time>
  <course>1.58</course>
  <speed>0.2</speed>
  <fix>3d</fix>
</trkpt>
<trkpt lat="-27.2744112" lon="151.2900661">
  <ele>348.52</ele>
  <time>2026-09-01T19:54:55Z</time>
  <course>11.59</course>
  <speed>0.07</speed>
  <fix>3d</fix>
</trkpt>
<trkpt lat="-27.2744114" lon="151.2900661">
  <ele>348.67</ele>
  <time>2026-09-01T19:54:55Z</time>
  <course>1.58</course>
  <speed>0.2</speed>
  <fix>3d</fix>
</trkpt>
<trkpt lat="-27.2744111" lon="151.2900661">
  <ele>348.47</ele>
  <time>2026-09-01T19:54:55Z</time>
  <course>11.61</course>
  <speed>0.04</speed>
  <fix>3d</fix>
</trkpt>
<trkpt lat="-27.2744111" lon="151.2900661">
  <ele>348.55</ele>
  <time>2026-09-01T19:54:55Z</time>
  <course>0.06</course>
  <speed>0.12</speed>
  <fix>3d</fix>
</trkpt>
<trkpt lat="-27.2744111" lon="151.2900661">
  <ele>348.43</ele>
  <time>2026-09-01T19:54:55Z</time>
  <course>11.62</course>
  <speed>0.01</speed>
  <fix>3d</fix>
</trkpt>
<trkpt lat="-27.2744111" lon="151.2900661">
  <ele>348.55</ele>
  <time>2026-09-01T19:54:55Z</time>
  <course>0.06</course>
  <speed>0.12</speed>
  <fix>3d</fix>
</trkpt>
<trkpt lat="-27.2744111" lon="151.2900661">
  <ele>348.39</ele>
  <time>2026-09-01T19:54:55Z</time>
  <course>11.62</course>
  <speed>0.01</speed>
  <fix>3d</fix>
</trkpt>
<trkpt lat="-27.2744109" lon="151.2900661">
  <ele>348.45</ele>
  <time>2026-09-01T19:54:55Z</time>
  <course>355.74</course>
  <speed>0.06</speed>
  <fix>3d</fix>
</trkpt>
<trkpt lat="-27.2744111" lon="151.2900661">
  <ele>348.35</ele>
  <time>2026-09-01T19:54:55Z</time>
  <course>11.6</course>
  <speed>0.04</speed>
  <fix>3d</fix>
</trkpt>
<trkpt lat="-27.2744109" lon="151.2900661">
  <ele>348.45</ele>
  <time>2026-09-01T19:54:55Z</time>
  <course>355.74</course>
  <speed>0.06</speed>
  <fix>3d</fix>
</trkpt>
<trkpt lat="-27.2744111" lon="151.2900661">
  <ele>348.32</ele>
  <time>2026-09-01T19:54:55Z</time>
  <course>11.56</course>
  <speed>0.06</speed>
  <fix>3d</fix>
</trkpt>
<trkpt lat="-27.2744109" lon="151.2900661">
  <ele>348.37</ele>
  <time>2026-09-01T19:54:55Z</time>
  <course>303.53</course>
  <speed>0.0</speed>
  <fix>3d</fix>
</trkpt>
<trkpt lat="-27.2744112" lon="151.2900661">
  <ele>348.28</ele>
  <time>2026-09-01T19:54:55Z</time>
  <course>11.56</course>
  <speed>0.08</speed>
  <fix>3d</fix>
</trkpt>
<trkpt lat="-27.2744109" lon="151.2900661">
  <ele>348.37</ele>
  <time>2026-09-01T19:54:55Z</time>
  <course>303.53</course>
  <speed>0.0</speed>
  <fix>3d</fix>
</trkpt>
<trkpt lat="-27.2744112" lon="151.2900661">
  <ele>348.25</ele>
  <time>2026-09-01T19:54:55Z</time>
  <course>11.61</course>
  <speed>0.1004987562112089</speed>
  <fix>3d</fix>
</trkpt>
<trkpt lat="-27.2744109" lon="151.2900661">
  <ele>348.31</ele>
  <time>2026-09-01T19:54:55Z</time>
  <course>193.08</course>
  <speed>0.04</speed>
  <fix>3d</fix>
</trkpt>
<trkpt lat="-27.2744112" lon="151.2900661">
  <ele>348.21</ele>
  <time>2026-09-01T19:54:55Z</time>
  <course>11.68</course>
  <speed>0.12041594578792296</speed>
  <fix>3d</fix>
</trkpt>
<trkpt lat="-27.2744109" lon="151.2900661">
  <ele>348.31</ele>
  <time>2026-09-01T19:54:55Z</time>
  <course>193.08</course>
  <speed>0.04</speed>
  <fix>3d</fix>
</trkpt>
<trkpt lat="-27.2744113" lon="151.2900661">
  <ele>348.18</ele>
  <time>2026-09-01T19:54:55Z</time>
  <course>11.77</course>
  <speed>0.140356688476182</speed>
  <fix>3d</fix>
</trkpt>
<trkpt lat="-27.274411" lon="151.2900661">
  <ele>348.24</ele>
  <time>2026-09-01T19:54:55Z</time>
  <course>190.58</course>
  <speed>0.08</speed>
  <fix>3d</fix>
</trkpt>
<trkpt lat="-27.2744114" lon="151.2900661">
  <ele>348.14</ele>
  <time>2026-09-01T19:54:55Z</time>
  <course>11.86</course>
  <speed>0.15033296378372907</speed>
  <fix>3d</fix>
</trkpt>
<trkpt lat="-27.274411" lon="151.2900661">
  <ele>348.24</ele>
  <time>2026-09-01T19:54:55Z</time>
  <course>190.58</course>
  <speed>0.08</speed>
  <fix>3d</fix>
</trkpt>
<trkpt lat="-27.2744115" lon="151.2900661">
  <ele>348.1</ele>
  <time>2026-09-01T19:54:55Z</time>
  <course>11.94</course>
  <speed>0.16124515496597097</speed>
  <fix>3d</fix>
</trkpt>
<trkpt lat="-27.2744111" lon="151.2900661">
  <ele>348.17</ele>
  <time>2026-09-01T19:54:55Z</time>
  <course>190.74</course>
  <speed>0.12</speed>
  <fix>3d</fix>
</trkpt>
<trkpt lat="-27.2744117" lon="151.290066">
  <ele>348.06</ele>
  <time>2026-09-01T19:54:55Z</time>
  <course>11.99</course>
  <speed>0.1711724276862369</speed>
  <fix>3d</fix>
</trkpt>
<trkpt lat="-27.2744111" lon="151.2900661">
  <ele>348.17</ele>
  <time>2026-09-01T19:54:55Z</time>
  <course>190.74</course>
  <speed>0.12</speed>
  <fix>3d</fix>
</trkpt>
<trkpt lat="-27.2744118" lon="151.290066">
  <ele>348.01</ele>
  <time>2026-09-01T19:54:55Z</time>
  <course>12.02</course>
  <speed>0.18110770276274835</speed>
  <fix>3d</fix>
</trkpt>
<trkpt lat="-27.2744113" lon="151.290066">
  <ele>348.1</ele>
  <time>2026-09-01T19:54:55Z</time>
  <course>191.14</course>
  <speed>0.14</speed>
  <fix>3d</fix>
</trkpt>
<trkpt lat="-27.2744119" lon="151.290066">
  <ele>347.96</ele>
  <time>2026-09-01T19:54:55Z</time>
  <course>12.02</course>
  <speed>0.18110770276274835</speed>
  <fix>3d</fix>
</trkpt>
<trkpt lat="-27.2744113" lon="151.290066">
  <ele>348.1</ele>
  <time>2026-09-01T19:54:55Z</time>
  <course>191.14</course>
  <speed>0.14</speed>
  <fix>3d</fix>
</trkpt>
<trkpt lat="-27.2744121" lon="151.290066">
  <ele>347.92</ele>
  <time>2026-09-01T19:54:55Z</time>
  <course>12.0</course>
  <speed>0.191049731745428</speed>
  <fix>3d</fix>
</trkpt>
<trkpt lat="-27.2744116" lon="151.290066">
  <ele>348.01</ele>
  <time>2026-09-01T19:54:55Z</time>
  <course>191.33</course>
  <speed>0.16</speed>
  <fix>3d</fix>
</trkpt>
<trkpt lat="-27.2744122" lon="151.2900659">
  <ele>347.87</ele>
  <time>2026-09-01T19:54:55Z</time>
  <course>11.95</course>
  <speed>0.191049731745428</speed>
  <fix>3d</fix>
</trkpt>
<trkpt lat="-27.2744116" lon="151.290066">
  <ele>348.01</ele>
  <time>2026-09-01T19:54:55Z</time>
  <course>191.33</course>
  <speed>0.16</speed>
  <fix>3d</fix>
</trkpt>
<trkpt lat="-27.2744124" lon="151.2900659">
  <ele>347.82</ele>
  <time>2026-09-01T19:54:55Z</time>
  <course>11.89</course>
  <speed>0.191049731745428</speed>
  <fix>3d</fix>
</trkpt>
<trkpt lat="-27.2744119" lon="151.2900659">
  <ele>347.91</ele>
  <time>2026-09-01T19:54:55Z</time>
  <course>191.24</course>
  <speed>0.17</speed>
  <fix>3d</fix>
</trkpt>
<trkpt lat="-27.2744125" lon="151.2900659">
  <ele>347.76</ele>
  <time>2026-09-01T19:54:55Z</time>
  <course>11.83</course>
  <speed>0.19026297590440447</speed>
  <fix>3d</fix>
</trkpt>
<trkpt lat="-27.2744119" lon="151.2900659">
  <ele>347.91</ele>
  <time>2026-09-01T19:54:55Z</time>
  <course>191.24</course>
  <speed>0.17</speed>
  <fix>3d</fix>
</trkpt>
<trkpt lat="-27.2744127" lon="151.2900659">
  <ele>347.71</ele>
  <time>2026-09-01T19:54:55Z</time>
  <course>11.78</course>
  <speed>0.19026297590440447</speed>
  <fix>3d</fix>
</trkpt>
<trkpt lat="-27.2744122" lon="151.2900658">
  <ele>347.82</ele>
  <time>2026-09-01T19:54:55Z</time>
  <course>191.09</course>
  <speed>0.18</speed>
  <fix>3d</fix>
</trkpt>
<trkpt lat="-27.2744128" lon="151.2900658">
  <ele>347.66</ele>
  <time>2026-09-01T19:54:55Z</time>
  <course>11.73</course>
  <speed>0.19026297590440447</speed>
  <fix>3d</fix>
</trkpt>
<trkpt lat="-27.2744122" lon="151.2900658">
  <ele>347.82</ele>
  <time>2026-09-01T19:54:55Z</time>
  <course>191.09</course>
  <speed>0.18</speed>
  <fix>3d</fix>
</trkpt>
<trkpt lat="-27.274413" lon="151.2900658">
  <ele>347.61</ele>
  <time>2026-09-01T19:54:55Z</time>
  <course>11.71</course>
  <speed>0.19026297590440447</speed>
  <fix>3d</fix>
</trkpt>
<trkpt lat="-27.2744125" lon="151.2900657">
  <ele>347.71</ele>
  <time>2026-09-01T19:54:55Z</time>
  <course>190.92</course>
  <speed>0.18</speed>
  <fix>3d</fix>
</trkpt>
<trkpt lat="-27.2744131" lon="151.2900658">
  <ele>347.55</ele>
  <time>2026-09-01T19:54:55Z</time>
  <course>11.69</course>
  <speed>0.19026297590440447</speed>
  <fix>3d</fix>
</trkpt>
<trkpt lat="-27.2744125" lon="151.2900657">
  <ele>347.71</ele>
  <time>2026-09-01T19:54:55Z</time>
  <course>190.92</course>
  <speed>0.18</speed>
  <fix>3d</fix>
</trkpt>
<trkpt lat="-27.2744133" lon="151.2900658">
  <ele>347.5</ele>
  <time>2026-09-01T19:54:55Z</time>
  <course>11.69</course>
  <speed>0.18027756377319945</speed>
  <fix>3d</fix>
</trkpt>
<trkpt lat="-27.2744128" lon="151.2900657">
  <ele>347.61</ele>
  <time>2026-09-01T19:54:55Z</time>
  <course>190.77</course>
  <speed>0.17</speed>
  <fix>3d</fix>
</trkpt>
<trkpt lat="-27.2744134" lon="151.2900657">
  <ele>347.45</ele>
  <time>2026-09-01T19:54:55Z</time>
  <course>11.69</course>
  <speed>0.18027756377319945</speed>
  <fix>3d</fix>
</trkpt>
<trkpt lat="-27.2744128" lon="151.2900657">
  <ele>347.61</ele>
  <time>2026-09-01T19:54:55Z</time>
  <course>190.77</course>
  <speed>0.17</speed>
  <fix>3d</fix>
</trkpt>
<trkpt lat="-27.2744136" lon="151.2900657">
  <ele>347.39</ele>
  <time>2026-09-01T19:54:55Z</time>
  <course>11.71</course>
  <speed>0.17</speed>
  <fix>3d</fix>
</trkpt>
<trkpt lat="-27.2744131" lon="151.2900656">
  <ele>347.5</ele>
  <time>2026-09-01T19:54:55Z</time>
  <course>190.71</course>
  <speed>0.17</speed>
  <fix>3d</fix>
</trkpt>
<trkpt lat="-27.2744137" lon="151.2900657">
  <ele>347.34</ele>
  <time>2026-09-01T19:54:55Z</time>
  <course>11.73</course>
  <speed>0.17</speed>
  <fix>3d</fix>
</trkpt>
<trkpt lat="-27.2744131" lon="151.2900656">
  <ele>347.5</ele>
  <time>2026-09-01T19:54:55Z</time>
  <course>190.71</course>
  <speed>0.17</speed>
  <fix>3d</fix>
</trkpt>
<trkpt lat="-27.2744138" lon="151.2900657">
  <ele>347.29</ele>
  <time>2026-09-01T19:54:55Z</time>
  <course>11.74</course>
  <speed>0.16</speed>
  <fix>3d</fix>
</trkpt>
<trkpt lat="-27.2744134" lon="151.2900656">
  <ele>347.4</ele>
  <time>2026-09-01T19:54:55Z</time>
  <course>190.71</course>
  <speed>0.16</speed>
  <fix>3d</fix>
</trkpt>
<trkpt lat="-27.274414" lon="151.2900657">
  <ele>347.24</ele>
  <time>2026-09-01T19:54:55Z</time>
  <course>11.73</course>
  <speed>0.15</speed>
  <fix>3d</fix>
</trkpt>
<trkpt lat="-27.2744134" lon="151.2900656">
  <ele>347.4</ele>
  <time>2026-09-01T19:54:55Z</time>
  <course>190.71</course>
  <speed>0.16</speed>
  <fix>3d</fix>
</trkpt>
<trkpt lat="-27.2744141" lon="151.2900656">
  <ele>347.19</ele>
  <time>2026-09-01T19:54:55Z</time>
  <course>11.71</course>
  <speed>0.15</speed>
  <fix>3d</fix>
</trkpt>
<trkpt lat="-27.2744137" lon="151.2900655">
  <ele>347.3</ele>
  <time>2026-09-01T19:54:55Z</time>
  <course>190.65</course>
  <speed>0.14</speed>
  <fix>3d</fix>
</trkpt>
<trkpt lat="-27.2744142" lon="151.2900656">
  <ele>347.14</ele>
  <time>2026-09-01T19:54:55Z</time>
  <course>11.69</course>
  <speed>0.14</speed>
  <fix>3d</fix>
</trkpt>
<trkpt lat="-27.2744137" lon="151.2900655">
  <ele>347.3</ele>
  <time>2026-09-01T19:54:55Z</time>
  <course>190.65</course>
  <speed>0.14</speed>
  <fix>3d</fix>
</trkpt>
<trkpt lat="-27.2744143" lon="151.2900656">
  <ele>347.09</ele>
  <time>2026-09-01T19:54:55Z</time>
  <course>11.66</course>
  <speed>0.13</speed>
  <fix>3d</fix>
</trkpt>
<trkpt lat="-27.274414" lon="151.2900655">
  <ele>347.2</ele>
  <time>2026-09-01T19:54:55Z</time>
  <course>190.56</course>
  <speed>0.13</speed>
  <fix>3d</fix>
</trkpt>
<trkpt lat="-27.2744144" lon="151.2900656">
  <ele>347.04</ele>
  <time>2026-09-01T19:54:55Z</time>
  <course>11.62</course>
  <speed>0.13</speed>
  <fix>3d</fix>
</trkpt>
<trkpt lat="-27.274414" lon="151.2900655">
  <ele>347.2</ele>
  <time>2026-09-01T19:54:55Z</time>
  <course>190.56</course>
  <speed>0.13</speed>
  <fix>3d</fix>
</trkpt>
<trkpt lat="-27.2744145" lon="151.2900656">
  <ele>346.99</ele>
  <time>2026-09-01T19:54:55Z</time>
  <course>11.6</course>
  <speed>0.12</speed>
  <fix>3d</fix>
</trkpt>
<trkpt lat="-27.2744142" lon="151.2900654">
  <ele>347.09</ele>
  <time>2026-09-01T19:54:55Z</time>
  <course>190.5</course>
  <speed>0.11</speed>
  <fix>3d</fix>
</trkpt>
<trkpt lat="-27.2744146" lon="151.2900656">
  <ele>346.94</ele>
  <time>2026-09-01T19:54:55Z</time>
  <course>11.58</course>
  <speed>0.11045361017187261</speed>
  <fix>3d</fix>
</trkpt>
<trkpt lat="-27.2744142" lon="151.2900654">
  <ele>347.09</ele>
  <time>2026-09-01T19:54:55Z</time>
  <course>190.5</course>
  <speed>0.11</speed>
  <fix>3d</fix>
</trkpt>
<trkpt lat="-27.2744147" lon="151.2900656">
  <ele>346.89</ele>
  <time>2026-09-01T19:54:55Z</time>
  <course>11.57</course>
  <speed>0.1004987562112089</speed>
  <fix>3d</fix>
</trkpt>
<trkpt lat="-27.2744144" lon="151.2900654">
  <ele>347.0</ele>
  <time>2026-09-01T19:54:55Z</time>
  <course>190.4</course>
  <speed>0.1</speed>
  <fix>3d</fix>
</trkpt>
<trkpt lat="-27.2744147" lon="151.2900656">
  <ele>346.84</ele>
  <time>2026-09-01T19:54:55Z</time>
  <course>11.56</course>
  <speed>0.09055385138137417</speed>
  <fix>3d</fix>
</trkpt>
<trkpt lat="-27.2744144" lon="151.2900654">
  <ele>347.0</ele>
  <time>2026-09-01T19:54:55Z</time>
  <course>190.4</course>
  <speed>0.1</speed>
  <fix>3d</fix>
</trkpt>
<trkpt lat="-27.2744148" lon="151.2900656">
  <ele>346.79</ele>
  <time>2026-09-01T19:54:55Z</time>
  <course>11.56</course>
  <speed>0.08062257748298549</speed>
  <fix>3d</fix>
</trkpt>
<trkpt lat="-27.2744146" lon="151.2900654">
  <ele>346.9</ele>
  <time>2026-09-01T19:54:55Z</time>
  <course>190.33</course>
  <speed>0.08</speed>
  <fix>3d</fix>
</trkpt>
<trkpt lat="-27.2744149" lon="151.2900656">
  <ele>346.74</ele>
  <time>2026-09-01T19:54:55Z</time>
  <course>11.55</course>
  <speed>0.0824621125123532</speed>
  <fix>3d</fix>
</trkpt>
<trkpt lat="-27.2744146" lon="151.2900654">
  <ele>346.9</ele>
  <time>2026-09-01T19:54:55Z</time>
  <course>190.33</course>
  <speed>0.08</speed>
  <fix>3d</fix>
</trkpt>
<trkpt lat="-27.2744149" lon="151.2900655">
  <ele>346.7</ele>
  <time>2026-09-01T19:54:55Z</time>
  <course>11.55</course>
  <speed>0.07280109889280519</speed>
  <fix>3d</fix>
</trkpt>
<trkpt lat="-27.2744147" lon="151.2900653">
  <ele>346.81</ele>
  <time>2026-09-01T19:54:55Z</time>
  <course>190.28</course>
  <speed>0.06</speed>
  <fix>3d</fix>
</trkpt>
<trkpt lat="-27.274415" lon="151.2900655">
  <ele>346.65</ele>
  <time>2026-09-01T19:54:55Z</time>
  <course>11.54</course>
  <speed>0.0632455532033676</speed>
  <fix>3d</fix>
</trkpt>
<trkpt lat="-27.2744147" lon="151.2900653">
  <ele>346.81</ele>
  <time>2026-09-01T19:54:55Z</time>
  <course>190.28</course>
  <speed>0.06</speed>
  <fix>3d</fix>
</trkpt>
<trkpt lat="-27.274415" lon="151.2900655">
  <ele>346.6</ele>
  <time>2026-09-01T19:54:55Z</time>
  <course>11.53</course>
  <speed>0.053851648071345036</speed>
  <fix>3d</fix>
</trkpt>
<trkpt lat="-27.2744148" lon="151.2900652">
  <ele>346.71</ele>
  <time>2026-09-01T19:54:55Z</time>
  <course>190.21</course>
  <speed>0.04</speed>
  <fix>3d</fix>
</trkpt>
<trkpt lat="-27.274415" lon="151.2900655">
  <ele>346.55</ele>
  <time>2026-09-01T19:54:55Z</time>
  <course>11.53</course>
  <speed>0.044721359549995794</speed>
  <fix>3d</fix>
</trkpt>
<trkpt lat="-27.2744148" lon="151.2900652">
  <ele>346.71</ele>
  <time>2026-09-01T19:54:55Z</time>
  <course>190.21</course>
  <speed>0.04</speed>
  <fix>3d</fix>
</trkpt>
<trkpt lat="-27.274415" lon="151.2900655">
  <ele>346.5</ele>
  <time>2026-09-01T19:54:55Z</time>
  <course>11.52</course>
  <speed>0.03605551275463989</speed>
  <fix>3d</fix>
</trkpt>
<trkpt lat="-27.2744148" lon="151.2900652">
  <ele>346.62</ele>
  <time>2026-09-01T19:54:55Z</time>
  <course>190.12</course>
  <speed>0.02</speed>
  <fix>3d</fix>
</trkpt>
<trkpt lat="-27.274415" lon="151.2900655">
  <ele>346.45</ele>
  <time>2026-09-01T19:54:55Z</time>
  <course>11.52</course>
  <speed>0.03605551275463989</speed>
  <fix>3d</fix>
</trkpt>
<trkpt lat="-27.2744148" lon="151.2900652">
  <ele>346.62</ele>
  <time>2026-09-01T19:54:55Z</time>
  <course>190.12</course>
  <speed>0.02</speed>
  <fix>3d</fix>
</trkpt>
<trkpt lat="-27.274415" lon="151.2900655">
  <ele>346.4</ele>
  <time>2026-09-01T19:54:55Z</time>
  <course>11.51</course>
  <speed>0.03605551275463989</speed>
  <fix>3d</fix>
</trkpt>
<trkpt lat="-27.2744149" lon="151.2900652">
  <ele>346.52</ele>
  <time>2026-09-01T19:54:55Z</time>
  <course>189.89</course>
  <speed>0.0</speed>
  <fix>3d</fix>
</trkpt>
<trkpt lat="-27.274415" lon="151.2900655">
  <ele>346.35</ele>
  <time>2026-09-01T19:54:55Z</time>
  <course>11.51</course>
  <speed>0.0316227766016838</speed>
  <fix>3d</fix>
</trkpt>
<trkpt lat="-27.2744149" lon="151.2900652">
  <ele>346.52</ele>
  <time>2026-09-01T19:54:55Z</time>
  <course>189.89</course>
  <speed>0.0</speed>
  <fix>3d</fix>
</trkpt>
<trkpt lat="-27.274415" lon="151.2900655">
  <ele>346.3</ele>
  <time>2026-09-01T19:54:55Z</time>
  <course>11.5</course>
  <speed>0.03</speed>
  <fix>3d</fix>
</trkpt>
<trkpt lat="-27.2744149" lon="151.2900652">
  <ele>346.41</ele>
  <time>2026-09-01T19:54:55Z</time>
  <course>9.13</course>
  <speed>0.0</speed>
  <fix>3d</fix>
</trkpt>
<trkpt lat="-27.274415" lon="151.2900655">
  <ele>346.25</ele>
  <time>2026-09-01T19:54:55Z</time>
  <course>11.5</course>
  <speed>0.03</speed>
  <fix>3d</fix>
</trkpt>
<trkpt lat="-27.2744149" lon="151.2900652">
  <ele>346.41</ele>
  <time>2026-09-01T19:54:55Z</time>
  <course>9.13</course>
  <speed>0.0</speed>
  <fix>3d</fix>
</trkpt>
<trkpt lat="-27.274415" lon="151.2900655">
  <ele>346.2</ele>
  <time>2026-09-01T19:54:55Z</time>
  <course>11.5</course>
  <speed>0.03</speed>
  <fix>3d</fix>
</trkpt>
<trkpt lat="-27.2744148" lon="151.2900652">
  <ele>346.32</ele>
  <time>2026-09-01T19:54:55Z</time>
  <course>7.68</course>
  <speed>0.02</speed>
  <fix>3d</fix>
</trkpt>
<trkpt lat="-27.274415" lon="151.2900655">
  <ele>346.15</ele>
  <time>2026-09-01T19:54:55Z</time>
  <course>11.51</course>
  <speed>0.0316227766016838</speed>
  <fix>3d</fix>
</trkpt>
<trkpt lat="-27.2744148" lon="151.2900652">
  <ele>346.32</ele>
  <time>2026-09-01T19:54:55Z</time>
  <course>7.68</course>
  <speed>0.02</speed>
  <fix>3d</fix>
</trkpt>
<trkpt lat="-27.274415" lon="151.2900655">
  <ele>346.1</ele>
  <time>2026-09-01T19:54:55Z</time>
  <course>11.52</course>
  <speed>0.03605551275463989</speed>
  <fix>3d</fix>
</trkpt>
<trkpt lat="-27.2744148" lon="151.2900652">
  <ele>346.22</ele>
  <time>2026-09-01T19:54:55Z</time>
  <course>6.64</course>
  <speed>0.04</speed>
  <fix>3d</fix>
</trkpt>
<trkpt lat="-27.2744149" lon="151.2900655">
  <ele>346.05</ele>
  <time>2026-09-01T19:54:55Z</time>
  <course>11.52</course>
  <speed>0.03605551275463989</speed>
  <fix>3d</fix>
</trkpt>
<trkpt lat="-27.2744148" lon="151.2900652">
  <ele>346.22</ele>
  <time>2026-09-01T19:54:55Z</time>
  <course>6.64</course>
  <speed>0.04</speed>
  <fix>3d</fix>
</trkpt>
<trkpt lat="-27.2744149" lon="151.2900655">
  <ele>346.0</ele>
  <time>2026-09-01T19:54:55Z</time>
  <course>11.52</course>
  <speed>0.04242640687119285</speed>
  <fix>3d</fix>
</trkpt>
<trkpt lat="-27.2744148" lon="151.2900652">
  <ele>346.13</ele>
  <time>2026-09-01T19:54:56Z</time>
  <course>6.58</course>
  <speed>0.05</speed>
  <fix>3d</fix>
</trkpt>
<trkpt lat="-27.2744148" lon="151.2900655">
  <ele>345.95</ele>
  <time>2026-09-01T19:54:56Z</time>
  <course>11.53</course>
  <speed>0.04242640687119285</speed>
  <fix>3d</fix>
</trkpt>
<trkpt lat="-27.2744148" lon="151.2900652">
  <ele>346.13</ele>
  <time>2026-09-01T19:54:56Z</time>
  <course>6.58</course>
  <speed>0.05</speed>
  <fix>3d</fix>
</trkpt>
<trkpt lat="-27.2744148" lon="151.2900655">
  <ele>345.9</ele>
  <time>2026-09-01T19:54:56Z</time>
  <course>11.52</course>
  <speed>0.05</speed>
  <fix>3d</fix>
</trkpt>
<trkpt lat="-27.2744147" lon="151.2900652">
  <ele>346.03</ele>
  <time>2026-09-01T19:54:56Z</time>
  <course>6.89</course>
  <speed>0.06</speed>
  <fix>3d</fix>
</trkpt>
<trkpt lat="-27.2744147" lon="151.2900655">
  <ele>345.85</ele>
  <time>2026-09-01T19:54:56Z</time>
  <course>11.52</course>
  <speed>0.05</speed>
  <fix>3d</fix>
</trkpt>
<trkpt lat="-27.2744147" lon="151.2900652">
  <ele>346.03</ele>
  <time>2026-09-01T19:54:56Z</time>
  <course>6.89</course>
  <speed>0.06</speed>
  <fix>3d</fix>
</trkpt>
<trkpt lat="-27.2744147" lon="151.2900655">
  <ele>345.8</ele>
  <time>2026-09-01T19:54:56Z</time>
  <course>11.51</course>
  <speed>0.05830951894845301</speed>
  <fix>3d</fix>
</trkpt>
<trkpt lat="-27.2744145" lon="151.2900652">
  <ele>345.93</ele>
  <time>2026-09-01T19:54:56Z</time>
  <course>7.31</course>
  <speed>0.07</speed>
  <fix>3d</fix>
</trkpt>
<trkpt lat="-27.2744146" lon="151.2900655">
  <ele>345.75</ele>
  <time>2026-09-01T19:54:56Z</time>
  <course>11.51</course>
  <speed>0.05830951894845301</speed>
  <fix>3d</fix>
</trkpt>
<trkpt lat="-27.2744145" lon="151.2900652">
  <ele>345.93</ele>
  <time>2026-09-01T19:54:56Z</time>
  <course>7.31</course>
  <speed>0.07</speed>
  <fix>3d</fix>
</trkpt>
<trkpt lat="-27.2744145" lon="151.2900655">
  <ele>345.7</ele>
  <time>2026-09-01T19:54:56Z</time>
  <course>11.49</course>
  <speed>0.05830951894845301</speed>
  <fix>3d</fix>
</trkpt>
<trkpt lat="-27.2744144" lon="151.2900652">
  <ele>345.83</ele>
  <time>2026-09-01T19:54:56Z</time>
  <course>7.78</course>
  <speed>0.08</speed>
  <fix>3d</fix>
</trkpt>
<trkpt lat="-27.2744144" lon="151.2900655">
  <ele>345.65</ele>
  <time>2026-09-01T19:54:56Z</time>
  <course>11.49</course>
  <speed>0.05830951894845301</speed>
  <fix>3d</fix>
</trkpt>
<trkpt lat="-27.2744144" lon="151.2900652">
  <ele>345.83</ele>
  <time>2026-09-01T19:54:56Z</time>
  <course>7.78</course>
  <speed>0.08</speed>
  <fix>3d</fix>
</trkpt>
<trkpt lat="-27.2744143" lon="151.2900655">
  <ele>345.6</ele>
  <time>2026-09-01T19:54:56Z</time>
  <course>11.48</course>
  <speed>0.0670820393249937</speed>
  <fix>3d</fix>
</trkpt>
<trkpt lat="-27.2744142" lon="151.2900652">
  <ele>345.72</ele>
  <time>2026-09-01T19:54:56Z</time>
  <course>8.06</course>
  <speed>0.09</speed>
  <fix>3d</fix>
</trkpt>
<trkpt lat="-27.2744143" lon="151.2900655">
  <ele>345.55</ele>
  <time>2026-09-01T19:54:56Z</time>
  <course>11.48</course>
  <speed>0.0670820393249937</speed>
  <fix>3d</fix>
</trkpt>
<trkpt lat="-27.2744142" lon="151.2900652">
  <ele>345.72</ele>
  <time>2026-09-01T19:54:56Z</time>
  <course>8.06</course>
  <speed>0.09</speed>
  <fix>3d</fix>
</trkpt>
<trkpt lat="-27.2744142" lon="151.2900655">
  <ele>345.5</ele>
  <time>2026-09-01T19:54:56Z</time>
  <course>11.47</course>
  <speed>0.0670820393249937</speed>
  <fix>3d</fix>
</trkpt>
<trkpt lat="-27.2744141" lon="151.2900653">
  <ele>345.63</ele>
  <time>2026-09-01T19:54:56Z</time>
  <course>8.29</course>
  <speed>0.1</speed>
  <fix>3d</fix>
</trkpt>
<trkpt lat="-27.2744141" lon="151.2900655">
  <ele>345.45</ele>
  <time>2026-09-01T19:54:56Z</time>
  <course>11.48</course>
  <speed>0.0670820393249937</speed>
  <fix>3d</fix>
</trkpt>
<trkpt lat="-27.2744141" lon="151.2900653">
  <ele>345.63</ele>
  <time>2026-09-01T19:54:56Z</time>
  <course>8.29</course>
  <speed>0.1</speed>
  <fix>3d</fix>
</trkpt>
<trkpt lat="-27.274414" lon="151.2900655">
  <ele>345.4</ele>
  <time>2026-09-01T19:54:56Z</time>
  <course>11.48</course>
  <speed>0.0670820393249937</speed>
  <fix>3d</fix>
</trkpt>
<trkpt lat="-27.2744139" lon="151.2900654">
  <ele>345.53</ele>
  <time>2026-09-01T19:54:56Z</time>
  <course>8.78</course>
  <speed>0.1</speed>
  <fix>3d</fix>
</trkpt>
<trkpt lat="-27.2744139" lon="151.2900655">
  <ele>345.35</ele>
  <time>2026-09-01T19:54:56Z</time>
  <course>11.5</course>
  <speed>0.0670820393249937</speed>
  <fix>3d</fix>
</trkpt>
<trkpt lat="-27.2744139" lon="151.2900654">
  <ele>345.53</ele>
  <time>2026-09-01T19:54:56Z</time>
  <course>8.78</course>
  <speed>0.1</speed>
  <fix>3d</fix>
</trkpt>
<trkpt lat="-27.2744138" lon="151.2900656">
  <ele>345.3</ele>
  <time>2026-09-01T19:54:56Z</time>
  <course>11.51</course>
  <speed>0.0670820393249937</speed>
  <fix>3d</fix>
</trkpt>
<trkpt lat="-27.2744136" lon="151.2900654">
  <ele>345.44</ele>
  <time>2026-09-01T19:54:56Z</time>
  <course>9.41</course>
  <speed>0.1</speed>
  <fix>3d</fix>
</trkpt>
<trkpt lat="-27.2744137" lon="151.2900656">
  <ele>345.25</ele>
  <time>2026-09-01T19:54:56Z</time>
  <course>11.52</course>
  <speed>0.0670820393249937</speed>
  <fix>3d</fix>
</trkpt>
<trkpt lat="-27.2744136" lon="151.2900654">
  <ele>345.44</ele>
  <time>2026-09-01T19:54:56Z</time>
  <course>9.41</course>
  <speed>0.1</speed>
  <fix>3d</fix>
</trkpt>
<trkpt lat="-27.2744136" lon="151.2900656">
  <ele>345.2</ele>
  <time>2026-09-01T19:54:56Z</time>
  <course>11.53</course>
  <speed>0.0670820393249937</speed>
  <fix>3d</fix>
</trkpt>
<trkpt lat="-27.2744135" lon="151.2900654">
  <ele>345.34</ele>
  <time>2026-09-01T19:54:56Z</time>
  <course>10.04</course>
  <speed>0.1</speed>
  <fix>3d</fix>
</trkpt>
<trkpt lat="-27.2744136" lon="151.2900656">
  <ele>345.15</ele>
  <time>2026-09-01T19:54:56Z</time>
  <course>11.54</course>
  <speed>0.0670820393249937</speed>
  <fix>3d</fix>
</trkpt>
<trkpt lat="-27.2744135" lon="151.2900654">
  <ele>345.34</ele>
  <time>2026-09-01T19:54:56Z</time>
  <course>10.04</course>
  <speed>0.1</speed>
  <fix>3d</fix>
</trkpt>
<trkpt lat="-27.2744135" lon="151.2900656">
  <ele>345.1</ele>
  <time>2026-09-01T19:54:56Z</time>
  <course>11.55</course>
  <speed>0.05830951894845301</speed>
  <fix>3d</fix>
</trkpt>
<trkpt lat="-27.2744133" lon="151.2900655">
  <ele>345.24</ele>
  <time>2026-09-01T19:54:56Z</time>
  <course>10.88</course>
  <speed>0.1</speed>
  <fix>3d</fix>
</trkpt>
<trkpt lat="-27.2744134" lon="151.2900656">
  <ele>345.05</ele>
  <time>2026-09-01T19:54:56Z</time>
  <course>11.56</course>
  <speed>0.06403124237432849</speed>
  <fix>3d</fix>
</trkpt>
<trkpt lat="-27.2744133" lon="151.2900655">
  <ele>345.24</ele>
  <time>2026-09-01T19:54:56Z</time>
  <course>10.88</course>
  <speed>0.1</speed>
  <fix>3d</fix>
</trkpt>
<trkpt lat="-27.2744133" lon="151.2900657">
  <ele>345.0</ele>
  <time>2026-09-01T19:54:56Z</time>
  <course>11.57</course>
  <speed>0.06403124237432849</speed>
  <fix>3d</fix>
</trkpt>
<trkpt lat="-27.2744131" lon="151.2900655">
  <ele>345.14</ele>
  <time>2026-09-01T19:54:56Z</time>
  <course>12.19</course>
  <speed>0.09</speed>
  <fix>3d</fix>
</trkpt>
<trkpt lat="-27.2744132" lon="151.2900657">
  <ele>344.95</ele>
  <time>2026-09-01T19:54:56Z</time>
  <course>11.59</course>
  <speed>0.0565685424949238</speed>
  <fix>3d</fix>
</trkpt>
<trkpt lat="-27.2744131" lon="151.2900655">
  <ele>345.14</ele>
  <time>2026-09-01T19:54:56Z</time>
  <course>12.19</course>
  <speed>0.09</speed>
  <fix>3d</fix>
</trkpt>
<trkpt lat="-27.2744132" lon="151.2900657">
  <ele>344.9</ele>
  <time>2026-09-01T19:54:56Z</time>
  <course>11.6</course>
  <speed>0.0565685424949238</speed>
  <fix>3d</fix>
</trkpt>
<trkpt lat="-27.274413" lon="151.2900656">
  <ele>345.04</ele>
  <time>2026-09-01T19:54:56Z</time>
  <course>13.81</course>
  <speed>0.09</speed>
  <fix>3d</fix>
</trkpt>
<trkpt lat="-27.2744131" lon="151.2900657">
  <ele>344.85</ele>
  <time>2026-09-01T19:54:56Z</time>
  <course>11.61</course>
  <speed>0.0565685424949238</speed>
  <fix>3d</fix>
</trkpt>
<trkpt lat="-27.274413" lon="151.2900656">
  <ele>345.04</ele>
  <time>2026-09-01T19:54:56Z</time>
  <course>13.81</course>
  <speed>0.09</speed>
  <fix>3d</fix>
</trkpt>
<trkpt lat="-27.274413" lon="151.2900658">
  <ele>344.8</ele>
  <time>2026-09-01T19:54:56Z</time>
  <course>11.61</course>
  <speed>0.05</speed>
  <fix>3d</fix>
</trkpt>
<trkpt lat="-27.2744128" lon="151.2900656">
  <ele>344.95</ele>
  <time>2026-09-01T19:54:56Z</time>
  <course>15.26</course>
  <speed>0.08</speed>
  <fix>3d</fix>
</trkpt>
<trkpt lat="-27.274413" lon="151.2900658">
  <ele>344.75</ele>
  <time>2026-09-01T19:54:56Z</time>
  <course>11.61</course>
  <speed>0.04242640687119285</speed>
  <fix>3d</fix>
</trkpt>
<trkpt lat="-27.2744128" lon="151.2900656">
  <ele>344.95</ele>
  <time>2026-09-01T19:54:56Z</time>
  <course>15.26</course>
  <speed>0.08</speed>
  <fix>3d</fix>
</trkpt>
<trkpt lat="-27.2744129" lon="151.2900658">
  <ele>344.7</ele>
  <time>2026-09-01T19:54:56Z</time>
  <course>11.61</course>
  <speed>0.03605551275463989</speed>
  <fix>3d</fix>
</trkpt>
<trkpt lat="-27.2744126" lon="151.2900656">
  <ele>344.84</ele>
  <time>2026-09-01T19:54:56Z</time>
  <course>16.45</course>
  <speed>0.08</speed>
  <fix>3d</fix>
</trkpt>
<trkpt lat="-27.2744128" lon="151.2900658">
  <ele>344.65</ele>
  <time>2026-09-01T19:54:56Z</time>
  <course>11.61</course>
  <speed>0.03605551275463989</speed>
  <fix>3d</fix>
</trkpt>
<trkpt lat="-27.2744126" lon="151.2900656">
  <ele>344.84</ele>
  <time>2026-09-01T19:54:56Z</time>
  <course>16.45</course>
  <speed>0.08</speed>
  <fix>3d</fix>
</trkpt>
<trkpt lat="-27.2744128" lon="151.2900658">
  <ele>344.6</ele>
  <time>2026-09-01T19:54:56Z</time>
  <course>11.6</course>
  <speed>0.03605551275463989</speed>
  <fix>3d</fix>
</trkpt>
<trkpt lat="-27.2744125" lon="151.2900656">
  <ele>344.75</ele>
  <time>2026-09-01T19:54:56Z</time>
  <course>17.58</course>
  <speed>0.07</speed>
  <fix>3d</fix>
</trkpt>
<trkpt lat="-27.2744127" lon="151.2900658">
  <ele>344.55</ele>
  <time>2026-09-01T19:54:56Z</time>
  <course>11.6</course>
  <speed>0.0316227766016838</speed>
  <fix>3d</fix>
</trkpt>
<trkpt lat="-27.2744125" lon="151.2900656">
  <ele>344.75</ele>
  <time>2026-09-01T19:54:56Z</time>
  <course>17.58</course>
  <speed>0.07</speed>
  <fix>3d</fix>
</trkpt>
<trkpt lat="-27.2744127" lon="151.2900659">
  <ele>344.5</ele>
  <time>2026-09-01T19:54:56Z</time>
  <course>11.59</course>
  <speed>0.0316227766016838</speed>
  <fix>3d</fix>
</trkpt>
<trkpt lat="-27.2744124" lon="151.2900657">
  <ele>344.65</ele>
  <time>2026-09-01T19:54:56Z</time>
  <course>18.66</course>
  <speed>0.06</speed>
  <fix>3d</fix>
</trkpt>
<trkpt lat="-27.2744126" lon="151.2900659">
  <ele>344.45</ele>
  <time>2026-09-01T19:54:56Z</time>
  <course>11.58</course>
  <speed>0.03</speed>
  <fix>3d</fix>
</trkpt>
<trkpt lat="-27.2744124" lon="151.2900657">
  <ele>344.65</ele>
  <time>2026-09-01T19:54:56Z</time>
  <course>18.66</course>
  <speed>0.06</speed>
  <fix>3d</fix>
</trkpt>
<trkpt lat="-27.2744126" lon="151.2900659">
  <ele>344.41</ele>
  <time>2026-09-01T19:54:56Z</time>
  <course>11.57</course>
  <speed>0.03</speed>
  <fix>3d</fix>
</trkpt>
<trkpt lat="-27.2744123" lon="151.2900657">
  <ele>344.55</ele>
  <time>2026-09-01T19:54:56Z</time>
  <course>20.08</course>
  <speed>0.05</speed>
  <fix>3d</fix>
</trkpt>
<trkpt lat="-27.2744126" lon="151.2900659">
  <ele>344.36</ele>
  <time>2026-09-01T19:54:56Z</time>
  <course>11.57</course>
  <speed>0.03</speed>
  <fix>3d</fix>
</trkpt>
<trkpt lat="-27.2744123" lon="151.2900657">
  <ele>344.55</ele>
  <time>2026-09-01T19:54:56Z</time>
  <course>20.08</course>
  <speed>0.05</speed>
  <fix>3d</fix>
</trkpt>
<trkpt lat="-27.2744125" lon="151.2900659">
  <ele>344.31</ele>
  <time>2026-09-01T19:54:56Z</time>
  <course>11.58</course>
  <speed>0.02</speed>
  <fix>3d</fix>
</trkpt>
<trkpt lat="-27.2744122" lon="151.2900657">
  <ele>344.45</ele>
  <time>2026-09-01T19:54:56Z</time>
  <course>22.97</course>
  <speed>0.04</speed>
  <fix>3d</fix>
</trkpt>
<trkpt lat="-27.2744125" lon="151.2900659">
  <ele>344.26</ele>
  <time>2026-09-01T19:54:56Z</time>
  <course>11.59</course>
  <speed>0.022360679774997897</speed>
  <fix>3d</fix>
</trkpt>
<trkpt lat="-27.2744122" lon="151.2900657">
  <ele>344.45</ele>
  <time>2026-09-01T19:54:56Z</time>
  <course>22.97</course>
  <speed>0.04</speed>
  <fix>3d</fix>
</trkpt>
<trkpt lat="-27.2744125" lon="151.2900659">
  <ele>344.21</ele>
  <time>2026-09-01T19:54:56Z</time>
  <course>11.6</course>
  <speed>0.022360679774997897</speed>
  <fix>3d</fix>
</trkpt>
<trkpt lat="-27.2744122" lon="151.2900658">
  <ele>344.36</ele>
  <time>2026-09-01T19:54:56Z</time>
  <course>28.34</course>
  <speed>0.03</speed>
  <fix>3d</fix>
</trkpt>
<trkpt lat="-27.2744125" lon="151.2900659">
  <ele>344.16</ele>
  <time>2026-09-01T19:54:56Z</time>
  <course>11.62</course>
  <speed>0.0282842712474619</speed>
  <fix>3d</fix>
</trkpt>
<trkpt lat="-27.2744122" lon="151.2900658">
  <ele>344.36</ele>
  <time>2026-09-01T19:54:56Z</time>
  <course>28.34</course>
  <speed>0.03</speed>
  <fix>3d</fix>
</trkpt>
<trkpt lat="-27.2744125" lon="151.2900659">
  <ele>344.11</ele>
  <time>2026-09-01T19:54:56Z</time>
  <course>11.64</course>
  <speed>0.0282842712474619</speed>
  <fix>3d</fix>
</trkpt>
<trkpt lat="-27.2744121" lon="151.2900659">
  <ele>344.26</ele>
  <time>2026-09-01T19:54:56Z</time>
  <course>37.73</course>
  <speed>0.02</speed>
  <fix>3d</fix>
</trkpt>
<trkpt lat="-27.2744125" lon="151.290066">
  <ele>344.06</ele>
  <time>2026-09-01T19:54:56Z</time>
  <course>11.67</course>
  <speed>0.03605551275463989</speed>
  <fix>3d</fix>
</trkpt>
<trkpt lat="-27.2744121" lon="151.2900659">
  <ele>344.26</ele>
  <time>2026-09-01T19:54:56Z</time>
  <course>37.73</course>
  <speed>0.02</speed>
  <fix>3d</fix>
</trkpt>
<trkpt lat="-27.2744124" lon="151.290066">
  <ele>344.01</ele>
  <time>2026-09-01T19:54:56Z</time>
  <course>11.71</course>
  <speed>0.03605551275463989</speed>
  <fix>3d</fix>
</trkpt>
<trkpt lat="-27.2744121" lon="151.2900659">
  <ele>344.15</ele>
  <time>2026-09-01T19:54:56Z</time>
  <course>54.28</course>
  <speed>0.01</speed>
  <fix>3d</fix>
</trkpt>
<trkpt lat="-27.2744124" lon="151.290066">
  <ele>343.96</ele>
  <time>2026-09-01T19:54:56Z</time>
  <course>11.75</course>
  <speed>0.0316227766016838</speed>
  <fix>3d</fix>
</trkpt>
<trkpt lat="-27.2744121" lon="151.2900659">
  <ele>344.15</ele>
  <time>2026-09-01T19:54:56Z</time>
  <course>54.28</course>
  <speed>0.01</speed>
  <fix>3d</fix>
</trkpt>
<trkpt lat="-27.2744124" lon="151.290066">
  <ele>343.91</ele>
  <time>2026-09-01T19:54:56Z</time>
  <course>11.81</course>
  <speed>0.0412310562561766</speed>
  <fix>3d</fix>
</trkpt>
<trkpt lat="-27.2744121" lon="151.2900659">
  <ele>344.06</ele>
  <time>2026-09-01T19:54:56Z</time>
  <course>90.25</course>
  <speed>0.0</speed>
  <fix>3d</fix>
</trkpt>
<trkpt lat="-27.2744125" lon="151.290066">
  <ele>343.86</ele>
  <time>2026-09-01T19:54:56Z</time>
  <course>11.88</course>
  <speed>0.0412310562561766</speed>
  <fix>3d</fix>
</trkpt>
<trkpt lat="-27.2744121" lon="151.2900659">
  <ele>344.06</ele>
  <time>2026-09-01T19:54:56Z</time>
  <course>90.25</course>
  <speed>0.0</speed>
  <fix>3d</fix>
</trkpt>
<trkpt lat="-27.2744125" lon="151.290066">
  <ele>343.81</ele>
  <time>2026-09-01T19:54:56Z</time>
  <course>11.92</course>
  <speed>0.0412310562561766</speed>
  <fix>3d</fix>
</trkpt>
<trkpt lat="-27.2744121" lon="151.2900659">
  <ele>343.96</ele>
  <time>2026-09-01T19:54:56Z</time>
  <course>170.3</course>
  <speed>0.0</speed>
  <fix>3d</fix>
</trkpt>
<trkpt lat="-27.2744125" lon="151.290066">
  <ele>343.76</ele>
  <time>2026-09-01T19:54:56Z</time>
  <course>11.91</course>
  <speed>0.0412310562561766</speed>
  <fix>3d</fix>
</trkpt>
<trkpt lat="-27.2744121" lon="151.2900659">
  <ele>343.96</ele>
  <time>2026-09-01T19:54:56Z</time>
  <course>170.3</course>
  <speed>0.0</speed>
  <fix>3d</fix>
</trkpt>
<trkpt lat="-27.2744124" lon="151.290066">
  <ele>343.71</ele>
  <time>2026-09-01T19:54:56Z</time>
  <course>11.87</course>
  <speed>0.05099019513592785</speed>
  <fix>3d</fix>
</trkpt>
<trkpt lat="-27.2744121" lon="151.2900659">
  <ele>343.86</ele>
  <time>2026-09-01T19:54:56Z</time>
  <course>193.37</course>
  <speed>0.01</speed>
  <fix>3d</fix>
</trkpt>
<trkpt lat="-27.2744124" lon="151.290066">
  <ele>343.66</ele>
  <time>2026-09-01T19:54:56Z</time>
  <course>11.81</course>
  <speed>0.05099019513592785</speed>
  <fix>3d</fix>
</trkpt>
<trkpt lat="-27.2744121" lon="151.2900659">
  <ele>343.86</ele>
  <time>2026-09-01T19:54:56Z</time>
  <course>193.37</course>
  <speed>0.01</speed>
  <fix>3d</fix>
</trkpt>
<trkpt lat="-27.2744124" lon="151.290066">
  <ele>343.61</ele>
  <time>2026-09-01T19:54:56Z</time>
  <course>11.75</course>
  <speed>0.05</speed>
  <fix>3d</fix>
</trkpt>
<trkpt lat="-27.2744121" lon="151.2900659">
  <ele>343.76</ele>
  <time>2026-09-01T19:54:56Z</time>
  <course>192.63</course>
  <speed>0.02</speed>
  <fix>3d</fix>
</trkpt>
<trkpt lat="-27.2744124" lon="151.290066">
  <ele>343.56</ele>
  <time>2026-09-01T19:54:56Z</time>
  <course>11.69</course>
  <speed>0.05</speed>
  <fix>3d</fix>
</trkpt>
<trkpt lat="-27.2744121" lon="151.2900659">
  <ele>343.76</ele>
  <time>2026-09-01T19:54:56Z</time>
  <course>192.63</course>
  <speed>0.02</speed>
  <fix>3d</fix>
</trkpt>
<trkpt lat="-27.2744125" lon="151.290066">
  <ele>343.51</ele>
  <time>2026-09-01T19:54:56Z</time>
  <course>11.64</course>
  <speed>0.06</speed>
  <fix>3d</fix>
</trkpt>
<trkpt lat="-27.2744121" lon="151.2900659">
  <ele>343.65</ele>
  <time>2026-09-01T19:54:56Z</time>
  <course>192.2</course>
  <speed>0.02</speed>
  <fix>3d</fix>
</trkpt>
<trkpt lat="-27.2744125" lon="151.290066">
  <ele>343.46</ele>
  <time>2026-09-01T19:54:56Z</time>
  <course>11.62</course>
  <speed>0.06</speed>
  <fix>3d</fix>
</trkpt>
<trkpt lat="-27.2744121" lon="151.2900659">
  <ele>343.65</ele>
  <time>2026-09-01T19:54:56Z</time>
  <course>192.2</course>
  <speed>0.02</speed>
  <fix>3d</fix>
</trkpt>
<trkpt lat="-27.2744125" lon="151.290066">
  <ele>343.41</ele>
  <time>2026-09-01T19:54:56Z</time>
  <course>11.61</course>
  <speed>0.06</speed>
  <fix>3d</fix>
</trkpt>
<trkpt lat="-27.2744122" lon="151.2900659">
  <ele>343.56</ele>
  <time>2026-09-01T19:54:56Z</time>
  <course>191.95</course>
  <speed>0.03</speed>
  <fix>3d</fix>
</trkpt>
<trkpt lat="-27.2744125" lon="151.290066">
  <ele>343.36</ele>
  <time>2026-09-01T19:54:56Z</time>
  <course>11.61</course>
  <speed>0.06</speed>
  <fix>3d</fix>
</trkpt>
<trkpt lat="-27.2744122" lon="151.2900659">
  <ele>343.56</ele>
  <time>2026-09-01T19:54:56Z</time>
  <course>191.95</course>
  <speed>0.03</speed>
  <fix>3d</fix>
</trkpt>
<trkpt lat="-27.2744125" lon="151.290066">
  <ele>343.31</ele>
  <time>2026-09-01T19:54:56Z</time>
  <course>11.63</course>
  <speed>0.06</speed>
  <fix>3d</fix>
</trkpt>
<trkpt lat="-27.2744122" lon="151.2900659">
  <ele>343.46</ele>
  <time>2026-09-01T19:54:56Z</time>
  <course>191.68</course>
  <speed>0.03</speed>
  <fix>3d</fix>
</trkpt>
<trkpt lat="-27.2744126" lon="151.290066">
  <ele>343.26</ele>
  <time>2026-09-01T19:54:56Z</time>
  <course>11.65</course>
  <speed>0.06</speed>
  <fix>3d</fix>
</trkpt>
<trkpt lat="-27.2744122" lon="151.2900659">
  <ele>343.46</ele>
  <time>2026-09-01T19:54:56Z</time>
  <course>191.68</course>
  <speed>0.03</speed>
  <fix>3d</fix>
</trkpt>
<trkpt lat="-27.2744126" lon="151.290066">
  <ele>343.21</ele>
  <time>2026-09-01T19:54:56Z</time>
  <course>11.67</course>
  <speed>0.06</speed>
  <fix>3d</fix>
</trkpt>
<trkpt lat="-27.2744123" lon="151.2900659">
  <ele>343.36</ele>
  <time>2026-09-01T19:54:56Z</time>
  <course>191.65</course>
  <speed>0.03</speed>
  <fix>3d</fix>
</trkpt>
<trkpt lat="-27.2744126" lon="151.290066">
  <ele>343.15</ele>
  <time>2026-09-01T19:54:56Z</time>
  <course>11.69</course>
  <speed>0.06</speed>
  <fix>3d</fix>
</trkpt>
<trkpt lat="-27.2744123" lon="151.2900659">
  <ele>343.36</ele>
  <time>2026-09-01T19:54:56Z</time>
  <course>191.65</course>
  <speed>0.03</speed>
  <fix>3d</fix>
</trkpt>
<trkpt lat="-27.2744127" lon="151.290066">
  <ele>343.1</ele>
  <time>2026-09-01T19:54:56Z</time>
  <course>11.7</course>
  <speed>0.06</speed>
  <fix>3d</fix>
</trkpt>
<trkpt lat="-27.2744123" lon="151.2900659">
  <ele>343.26</ele>
  <time>2026-09-01T19:54:56Z</time>
  <course>191.72</course>
  <speed>0.04</speed>
  <fix>3d</fix>
</trkpt>
<trkpt lat="-27.2744127" lon="151.290066">
  <ele>343.05</ele>
  <time>2026-09-01T19:54:56Z</time>
  <course>11.7</course>
  <speed>0.06</speed>
  <fix>3d</fix>
</trkpt>
<trkpt lat="-27.2744123" lon="151.2900659">
  <ele>343.26</ele>
  <time>2026-09-01T19:54:56Z</time>
  <course>191.72</course>
  <speed>0.04</speed>
  <fix>3d</fix>
</trkpt>
<trkpt lat="-27.2744127" lon="151.290066">
  <ele>343.01</ele>
  <time>2026-09-01T19:54:56Z</time>
  <course>11.7</course>
  <speed>0.0412310562561766</speed>
  <fix>3d</fix>
</trkpt>
<trkpt lat="-27.2744124" lon="151.2900659">
  <ele>343.15</ele>
  <time>2026-09-01T19:54:56Z</time>
  <course>191.55</course>
  <speed>0.04</speed>
  <fix>3d</fix>
</trkpt>
<trkpt lat="-27.2744127" lon="151.290066">
  <ele>343.01</ele>
  <time>2026-09-01T19:54:56Z</time>
  <course>11.71</course>
  <speed>0.022360679774997897</speed>
  <fix>3d</fix>
</trkpt>
<trkpt lat="-27.2744124" lon="151.2900659">
  <ele>343.15</ele>
  <time>2026-09-01T19:54:56Z</time>
  <course>191.55</course>
  <speed>0.04</speed>
  <fix>3d</fix>
</trkpt>
<trkpt lat="-27.2744127" lon="151.290066">
  <ele>343.02</ele>
  <time>2026-09-01T19:54:56Z</time>
  <course>11.72</course>
  <speed>0.022360679774997897</speed>
  <fix>3d</fix>
</trkpt>
<trkpt lat="-27.2744125" lon="151.2900659">
  <ele>343.09</ele>
  <time>2026-09-01T19:54:56Z</time>
  <course>191.4</course>
  <speed>0.01</speed>
  <fix>3d</fix>
</trkpt>
<trkpt lat="-27.2744127" lon="151.290066">
  <ele>343.03</ele>
  <time>2026-09-01T19:54:56Z</time>
  <course>11.73</course>
  <speed>0.0282842712474619</speed>
  <fix>3d</fix>
</trkpt>
<trkpt lat="-27.2744125" lon="151.2900659">
  <ele>343.09</ele>
  <time>2026-09-01T19:54:56Z</time>
  <course>191.4</course>
  <speed>0.01</speed>
  <fix>3d</fix>
</trkpt>
<trkpt lat="-27.2744127" lon="151.290066">
  <ele>343.03</ele>
  <time>2026-09-01T19:54:56Z</time>
  <course>11.74</course>
  <speed>0.022360679774997897</speed>
  <fix>3d</fix>
</trkpt>
<trkpt lat="-27.2744125" lon="151.2900659">
  <ele>343.08</ele>
  <time>2026-09-01T19:54:56Z</time>
  <course>11.38</course>
  <speed>0.0</speed>
  <fix>3d</fix>
</trkpt>
<trkpt lat="-27.2744127" lon="151.290066">
  <ele>343.03</ele>
  <time>2026-09-01T19:54:56Z</time>
  <course>11.74</course>
  <speed>0.022360679774997897</speed>
  <fix>3d</fix>
</trkpt>
<trkpt lat="-27.2744125" lon="151.2900659">
  <ele>343.08</ele>
  <time>2026-09-01T19:54:56Z</time>
  <course>11.38</course>
  <speed>0.0</speed>
  <fix>3d</fix>
</trkpt>
<trkpt lat="-27.2744127" lon="151.290066">
  <ele>343.03</ele>
  <time>2026-09-01T19:54:56Z</time>
  <course>11.75</course>
  <speed>0.022360679774997897</speed>
  <fix>3d</fix>
</trkpt>
<trkpt lat="-27.2744125" lon="151.2900659">
  <ele>343.09</ele>
  <time>2026-09-01T19:54:56Z</time>
  <course>11.38</course>
  <speed>0.0</speed>
  <fix>3d</fix>
</trkpt>
<trkpt lat="-27.2744127" lon="151.290066">
  <ele>343.03</ele>
  <time>2026-09-01T19:54:56Z</time>
  <course>11.76</course>
  <speed>0.022360679774997897</speed>
  <fix>3d</fix>
</trkpt>
<trkpt lat="-27.2744125" lon="151.2900659">
  <ele>343.09</ele>
  <time>2026-09-01T19:54:56Z</time>
  <course>11.38</course>
  <speed>0.0</speed>
  <fix>3d</fix>
</trkpt>
<trkpt lat="-27.2744127" lon="151.290066">
  <ele>343.03</ele>
  <time>2026-09-01T19:54:56Z</time>
  <course>11.77</course>
  <speed>0.022360679774997897</speed>
  <fix>3d</fix>
</trkpt>
<trkpt lat="-27.2744125" lon="151.2900659">
  <ele>343.09</ele>
  <time>2026-09-01T19:54:56Z</time>
  <course>191.39</course>
  <speed>0.0</speed>
  <fix>3d</fix>
</trkpt>
<trkpt lat="-27.2744127" lon="151.290066">
  <ele>343.03</ele>
  <time>2026-09-01T19:54:56Z</time>
  <course>11.77</course>
  <speed>0.022360679774997897</speed>
  <fix>3d</fix>
</trkpt>
<trkpt lat="-27.2744125" lon="151.2900659">
  <ele>343.09</ele>
  <time>2026-09-01T19:54:56Z</time>
  <course>191.39</course>
  <speed>0.0</speed>
  <fix>3d</fix>
</trkpt>
<trkpt lat="-27.2744127" lon="151.290066">
  <ele>343.03</ele>
  <time>2026-09-01T19:54:56Z</time>
  <course>11.78</course>
  <speed>0.022360679774997897</speed>
  <fix>3d</fix>
</trkpt>
<trkpt lat="-27.2744125" lon="151.2900659">
  <ele>343.09</ele>
  <time>2026-09-01T19:54:56Z</time>
  <course>191.4</course>
  <speed>0.0</speed>
  <fix>3d</fix>
</trkpt>
<trkpt lat="-27.2744127" lon="151.290066">
  <ele>343.03</ele>
  <time>2026-09-01T19:54:56Z</time>
  <course>11.79</course>
  <speed>0.022360679774997897</speed>
  <fix>3d</fix>
</trkpt>
<trkpt lat="-27.2744125" lon="151.2900659">
  <ele>343.09</ele>
  <time>2026-09-01T19:54:56Z</time>
  <course>191.4</course>
  <speed>0.0</speed>
  <fix>3d</fix>
</trkpt>
<trkpt lat="-27.2744127" lon="151.290066">
  <ele>343.03</ele>
  <time>2026-09-01T19:54:56Z</time>
  <course>11.79</course>
  <speed>0.022360679774997897</speed>
  <fix>3d</fix>
</trkpt>
<trkpt lat="-27.2744125" lon="151.2900659">
  <ele>343.09</ele>
  <time>2026-09-01T19:54:56Z</time>
  <course>11.37</course>
  <speed>0.0</speed>
  <fix>3d</fix>
</trkpt>
<trkpt lat="-27.2744127" lon="151.290066">
  <ele>343.03</ele>
  <time>2026-09-01T19:54:56Z</time>
  <course>11.8</course>
  <speed>0.022360679774997897</speed>
  <fix>3d</fix>
</trkpt>
<trkpt lat="-27.2744125" lon="151.2900659">
  <ele>343.09</ele>
  <time>2026-09-01T19:54:56Z</time>
  <course>11.37</course>
  <speed>0.0</speed>
  <fix>3d</fix>
</trkpt>
<trkpt lat="-27.2744127" lon="151.290066">
  <ele>343.03</ele>
  <time>2026-09-01T19:54:56Z</time>
  <course>11.81</course>
  <speed>0.022360679774997897</speed>
  <fix>3d</fix>
</trkpt>
<trkpt lat="-27.2744125" lon="151.2900659">
  <ele>343.09</ele>
  <time>2026-09-01T19:54:56Z</time>
  <course>193.81</course>
  <speed>0.0</speed>
  <fix>3d</fix>
</trkpt>
<trkpt lat="-27.2744127" lon="151.290066">
  <ele>343.03</ele>
  <time>2026-09-01T19:54:56Z</time>
  <course>11.81</course>
  <speed>0.022360679774997897</speed>
  <fix>3d</fix>
</trkpt>
<trkpt lat="-27.2744125" lon="151.2900659">
  <ele>343.09</ele>
  <time>2026-09-01T19:54:56Z</time>
  <course>193.81</course>
  <speed>0.0</speed>
  <fix>3d</fix>
</trkpt>
<trkpt lat="-27.2744127" lon="151.290066">
  <ele>343.03</ele>
  <time>2026-09-01T19:54:56Z</time>
  <course>11.82</course>
  <speed>0.022360679774997897</speed>
  <fix>3d</fix>
</trkpt>
<trkpt lat="-27.2744125" lon="151.2900659">
  <ele>343.09</ele>
  <time>2026-09-01T19:54:56Z</time>
  <course>191.45</course>
  <speed>0.0</speed>
  <fix>3d</fix>
</trkpt>
<trkpt lat="-27.2744127" lon="151.290066">
  <ele>343.03</ele>
  <time>2026-09-01T19:54:56Z</time>
  <course>11.82</course>
  <speed>0.022360679774997897</speed>
  <fix>3d</fix>
</trkpt>
<trkpt lat="-27.2744125" lon="151.2900659">
  <ele>343.09</ele>
  <time>2026-09-01T19:54:56Z</time>
  <course>191.45</course>
  <speed>0.0</speed>
  <fix>3d</fix>
</trkpt>
<trkpt lat="-27.2744127" lon="151.290066">
  <ele>343.03</ele>
  <time>2026-09-01T19:54:56Z</time>
  <course>11.83</course>
  <speed>0.022360679774997897</speed>
  <fix>3d</fix>
</trkpt>
<trkpt lat="-27.2744125" lon="151.2900659">
  <ele>343.09</ele>
  <time>2026-09-01T19:54:56Z</time>
  <course>11.2</course>
  <speed>0.0</speed>
  <fix>3d</fix>
</trkpt>
<trkpt lat="-27.2744127" lon="151.290066">
  <ele>343.03</ele>
  <time>2026-09-01T19:54:56Z</time>
  <course>11.84</course>
  <speed>0.022360679774997897</speed>
  <fix>3d</fix>
</trkpt>
<trkpt lat="-27.2744125" lon="151.2900659">
  <ele>343.09</ele>
  <time>2026-09-01T19:54:56Z</time>
  <course>11.2</course>
  <speed>0.0</speed>
  <fix>3d</fix>
</trkpt>
<trkpt lat="-27.2744127" lon="151.290066">
  <ele>343.03</ele>
  <time>2026-09-01T19:54:56Z</time>
  <course>11.84</course>
  <speed>0.022360679774997897</speed>
  <fix>3d</fix>
</trkpt>
<trkpt lat="-27.2744125" lon="151.2900659">
  <ele>343.09</ele>
  <time>2026-09-01T19:54:56Z</time>
  <course>11.12</course>
  <speed>0.0</speed>
  <fix>3d</fix>
</trkpt>
<trkpt lat="-27.2744127" lon="151.290066">
  <ele>343.03</ele>
  <time>2026-09-01T19:54:56Z</time>
  <course>11.85</course>
  <speed>0.022360679774997897</speed>
  <fix>3d</fix>
</trkpt>
<trkpt lat="-27.2744125" lon="151.2900659">
  <ele>343.09</ele>
  <time>2026-09-01T19:54:56Z</time>
  <course>11.12</course>
  <speed>0.0</speed>
  <fix>3d</fix>
</trkpt>
<trkpt lat="-27.2744127" lon="151.290066">
  <ele>343.03</ele>
  <time>2026-09-01T19:54:56Z</time>
  <course>11.85</course>
  <speed>0.022360679774997897</speed>
  <fix>3d</fix>
</trkpt>
<trkpt lat="-27.2744125" lon="151.2900659">
  <ele>343.09</ele>
  <time>2026-09-01T19:54:56Z</time>
  <course>193.89</course>
  <speed>0.0</speed>
  <fix>3d</fix>
</trkpt>
<trkpt lat="-27.2744127" lon="151.290066">
  <ele>343.03</ele>
  <time>2026-09-01T19:54:56Z</time>
  <course>11.86</course>
  <speed>0.022360679774997897</speed>
  <fix>3d</fix>
</trkpt>
<trkpt lat="-27.2744125" lon="151.2900659">
  <ele>343.09</ele>
  <time>2026-09-01T19:54:56Z</time>
  <course>193.89</course>
  <speed>0.0</speed>
  <fix>3d</fix>
</trkpt>
<trkpt lat="-27.2744127" lon="151.290066">
  <ele>343.04</ele>
  <time>2026-09-01T19:54:56Z</time>
  <course>11.86</course>
  <speed>0.022360679774997897</speed>
  <fix>3d</fix>
</trkpt>
<trkpt lat="-27.2744125" lon="151.2900659">
  <ele>343.09</ele>
  <time>2026-09-01T19:54:56Z</time>
  <course>184.49</course>
  <speed>0.0</speed>
  <fix>3d</fix>
</trkpt>
<trkpt lat="-27.2744127" lon="151.290066">
  <ele>343.04</ele>
  <time>2026-09-01T19:54:56Z</time>
  <course>11.87</course>
  <speed>0.022360679774997897</speed>
  <fix>3d</fix>
</trkpt>
<trkpt lat="-27.2744125" lon="151.2900659">
  <ele>343.09</ele>
  <time>2026-09-01T19:54:56Z</time>
  <course>184.49</course>
  <speed>0.0</speed>
  <fix>3d</fix>
</trkpt>
<trkpt lat="-27.2744127" lon="151.290066">
  <ele>343.04</ele>
  <time>2026-09-01T19:54:56Z</time>
  <course>11.87</course>
  <speed>0.022360679774997897</speed>
  <fix>3d</fix>
</trkpt>
<trkpt lat="-27.2744125" lon="151.2900659">
  <ele>343.09</ele>
  <time>2026-09-01T19:54:56Z</time>
  <course>80.79</course>
  <speed>0.0</speed>
  <fix>3d</fix>
</trkpt>
<trkpt lat="-27.2744127" lon="151.290066">
  <ele>343.04</ele>
  <time>2026-09-01T19:54:56Z</time>
  <course>11.88</course>
  <speed>0.022360679774997897</speed>
  <fix>3d</fix>
</trkpt>
<trkpt lat="-27.2744125" lon="151.2900659">
  <ele>343.09</ele>
  <time>2026-09-01T19:54:56Z</time>
  <course>80.79</course>
  <speed>0.0</speed>
  <fix>3d</fix>
</trkpt>
<trkpt lat="-27.2744127" lon="151.290066">
  <ele>343.03</ele>
  <time>2026-09-01T19:54:56Z</time>
  <course>11.88</course>
  <speed>0.022360679774997897</speed>
  <fix>3d</fix>
</trkpt>
<trkpt lat="-27.2744125" lon="151.2900659">
  <ele>343.09</ele>
  <time>2026-09-01T19:54:56Z</time>
  <course>61.69</course>
  <speed>0.0</speed>
  <fix>3d</fix>
</trkpt>
<trkpt lat="-27.2744127" lon="151.290066">
  <ele>343.03</ele>
  <time>2026-09-01T19:54:56Z</time>
  <course>11.89</course>
  <speed>0.022360679774997897</speed>
  <fix>3d</fix>
</trkpt>
<trkpt lat="-27.2744125" lon="151.2900659">
  <ele>343.09</ele>
  <time>2026-09-01T19:54:56Z</time>
  <course>61.69</course>
  <speed>0.0</speed>
  <fix>3d</fix>
</trkpt>
<trkpt lat="-27.2744127" lon="151.290066">
  <ele>343.03</ele>
  <time>2026-09-01T19:54:56Z</time>
  <course>11.89</course>
  <speed>0.022360679774997897</speed>
  <fix>3d</fix>
</trkpt>
<trkpt lat="-27.2744125" lon="151.2900659">
  <ele>343.09</ele>
  <time>2026-09-01T19:54:56Z</time>
  <course>3.07</course>
  <speed>0.0</speed>
  <fix>3d</fix>
</trkpt>
<trkpt lat="-27.2744127" lon="151.290066">
  <ele>343.03</ele>
  <time>2026-09-01T19:54:56Z</time>
  <course>11.89</course>
  <speed>0.022360679774997897</speed>
  <fix>3d</fix>
</trkpt>
<trkpt lat="-27.2744125" lon="151.2900659">
  <ele>343.09</ele>
  <time>2026-09-01T19:54:56Z</time>
  <course>3.07</course>
  <speed>0.0</speed>
  <fix>3d</fix>
</trkpt>
<trkpt lat="-27.2744127" lon="151.290066">
  <ele>343.03</ele>
  <time>2026-09-01T19:54:56Z</time>
  <course>11.9</course>
  <speed>0.022360679774997897</speed>
  <fix>3d</fix>
</trkpt>
<trkpt lat="-27.2744125" lon="151.2900659">
  <ele>343.09</ele>
  <time>2026-09-01T19:54:56Z</time>
  <course>17.36</course>
  <speed>0.0</speed>
  <fix>3d</fix>
</trkpt>
<trkpt lat="-27.2744127" lon="151.290066">
  <ele>343.03</ele>
  <time>2026-09-01T19:54:56Z</time>
  <course>11.9</course>
  <speed>0.022360679774997897</speed>
  <fix>3d</fix>
</trkpt>
<trkpt lat="-27.2744125" lon="151.2900659">
  <ele>343.09</ele>
  <time>2026-09-01T19:54:56Z</time>
  <course>17.36</course>
  <speed>0.0</speed>
  <fix>3d</fix>
</trkpt>
<trkpt lat="-27.2744127" lon="151.290066">
  <ele>343.03</ele>
  <time>2026-09-01T19:54:56Z</time>
  <course>11.91</course>
  <speed>0.022360679774997897</speed>
  <fix>3d</fix>
</trkpt>
<trkpt lat="-27.2744125" lon="151.2900659">
  <ele>343.09</ele>
  <time>2026-09-01T19:54:56Z</time>
  <course>43.35</course>
  <speed>0.0</speed>
  <fix>3d</fix>
</trkpt>
<trkpt lat="-27.2744127" lon="151.290066">
  <ele>343.03</ele>
  <time>2026-09-01T19:54:56Z</time>
  <course>11.91</course>
  <speed>0.022360679774997897</speed>
  <fix>3d</fix>
</trkpt>
<trkpt lat="-27.2744125" lon="151.2900659">
  <ele>343.09</ele>
  <time>2026-09-01T19:54:56Z</time>
  <course>43.35</course>
  <speed>0.0</speed>
  <fix>3d</fix>
</trkpt>
<trkpt lat="-27.2744127" lon="151.290066">
  <ele>343.03</ele>
  <time>2026-09-01T19:54:56Z</time>
  <course>11.91</course>
  <speed>0.022360679774997897</speed>
  <fix>3d</fix>
</trkpt>
<trkpt lat="-27.2744125" lon="151.2900659">
  <ele>343.09</ele>
  <time>2026-09-01T19:54:56Z</time>
  <course>59.92</course>
  <speed>0.0</speed>
  <fix>3d</fix>
</trkpt>
<trkpt lat="-27.2744127" lon="151.290066">
  <ele>343.03</ele>
  <time>2026-09-01T19:54:56Z</time>
  <course>11.92</course>
  <speed>0.022360679774997897</speed>
  <fix>3d</fix>
</trkpt>
<trkpt lat="-27.2744125" lon="151.2900659">
  <ele>343.09</ele>
  <time>2026-09-01T19:54:56Z</time>
  <course>59.92</course>
  <speed>0.0</speed>
  <fix>3d</fix>
</trkpt>
<trkpt lat="-27.2744127" lon="151.290066">
  <ele>343.02</ele>
  <time>2026-09-01T19:54:56Z</time>
  <course>11.92</course>
  <speed>0.022360679774997897</speed>
  <fix>3d</fix>
</trkpt>
<trkpt lat="-27.2744125" lon="151.2900659">
  <ele>343.09</ele>
  <time>2026-09-01T19:54:56Z</time>
  <course>66.98</course>
  <speed>0.0</speed>
  <fix>3d</fix>
</trkpt>
<trkpt lat="-27.2744127" lon="151.290066">
  <ele>343.02</ele>
  <time>2026-09-01T19:54:56Z</time>
  <course>11.92</course>
  <speed>0.022360679774997897</speed>
  <fix>3d</fix>
</trkpt>
<trkpt lat="-27.2744125" lon="151.2900659">
  <ele>343.09</ele>
  <time>2026-09-01T19:54:56Z</time>
  <course>66.98</course>
  <speed>0.0</speed>
  <fix>3d</fix>
</trkpt>
<trkpt lat="-27.2744127" lon="151.290066">
  <ele>343.02</ele>
  <time>2026-09-01T19:54:56Z</time>
  <course>11.93</course>
  <speed>0.022360679774997897</speed>
  <fix>3d</fix>
</trkpt>
<trkpt lat="-27.2744125" lon="151.2900659">
  <ele>343.09</ele>
  <time>2026-09-01T19:54:56Z</time>
  <course>69.18</course>
  <speed>0.0</speed>
  <fix>3d</fix>
</trkpt>
<trkpt lat="-27.2744127" lon="151.290066">
  <ele>343.02</ele>
  <time>2026-09-01T19:54:56Z</time>
  <course>11.93</course>
  <speed>0.022360679774997897</speed>
  <fix>3d</fix>
</trkpt>
<trkpt lat="-27.2744125" lon="151.2900659">
  <ele>343.09</ele>
  <time>2026-09-01T19:54:56Z</time>
  <course>69.18</course>
  <speed>0.0</speed>
  <fix>3d</fix>
</trkpt>
<trkpt lat="-27.2744127" lon="151.290066">
  <ele>343.02</ele>
  <time>2026-09-01T19:54:56Z</time>
  <course>11.93</course>
  <speed>0.022360679774997897</speed>
  <fix>3d</fix>
</trkpt>
<trkpt lat="-27.2744125" lon="151.2900659">
  <ele>343.09</ele>
  <time>2026-09-01T19:54:56Z</time>
  <course>63.83</course>
  <speed>0.0</speed>
  <fix>3d</fix>
</trkpt>
<trkpt lat="-27.2744127" lon="151.290066">
  <ele>343.02</ele>
  <time>2026-09-01T19:54:56Z</time>
  <course>11.96</course>
  <speed>0.022360679774997897</speed>
  <fix>3d</fix>
</trkpt>
<trkpt lat="-27.2744125" lon="151.2900659">
  <ele>343.09</ele>
  <time>2026-09-01T19:54:56Z</time>
  <course>63.83</course>
  <speed>0.0</speed>
  <fix>3d</fix>
</trkpt>
<trkpt lat="-27.2744127" lon="151.290066">
  <ele>343.09</ele>
  <time>2026-09-01T19:54:56Z</time>
  <course>12.03</course>
  <speed>0.022360679774997897</speed>
  <fix>3d</fix>
</trkpt>
<trkpt lat="-27.2744125" lon="151.2900659">
  <ele>343.09</ele>
  <time>2026-09-01T19:54:56Z</time>
  <course>191.55</course>
  <speed>0.0</speed>
  <fix>3d</fix>
</trkpt>
<trkpt lat="-27.2744127" lon="151.290066">
  <ele>343.09</ele>
  <time>2026-09-01T19:54:56Z</time>
  <course>12.12</course>
  <speed>0.022360679774997897</speed>
  <fix>3d</fix>
</trkpt>
<trkpt lat="-27.2744125" lon="151.2900659">
  <ele>343.09</ele>
  <time>2026-09-01T19:54:56Z</time>
  <course>191.55</course>
  <speed>0.0</speed>
  <fix>3d</fix>
</trkpt>
<trkpt lat="-27.2744127" lon="151.290066">
  <ele>343.08</ele>
  <time>2026-09-01T19:54:56Z</time>
  <course>12.2</course>
  <speed>0.022360679774997897</speed>
  <fix>3d</fix>
</trkpt>
<trkpt lat="-27.2744125" lon="151.2900659">
  <ele>343.09</ele>
  <time>2026-09-01T19:54:56Z</time>
  <course>192.62</course>
  <speed>0.0</speed>
  <fix>3d</fix>
</trkpt>
<trkpt lat="-27.2744127" lon="151.290066">
  <ele>343.08</ele>
  <time>2026-09-01T19:54:56Z</time>
  <course>12.27</course>
  <speed>0.022360679774997897</speed>
  <fix>3d</fix>
</trkpt>
<trkpt lat="-27.2744125" lon="151.2900659">
  <ele>343.09</ele>
  <time>2026-09-01T19:54:56Z</time>
  <course>192.62</course>
  <speed>0.0</speed>
  <fix>3d</fix>
</trkpt>
<trkpt lat="-27.2744127" lon="151.290066">
  <ele>343.08</ele>
  <time>2026-09-01T19:54:56Z</time>
  <course>12.34</course>
  <speed>0.022360679774997897</speed>
  <fix>3d</fix>
</trkpt>
<trkpt lat="-27.2744125" lon="151.2900659">
  <ele>343.09</ele>
  <time>2026-09-01T19:54:56Z</time>
  <course>195.29</course>
  <speed>0.0</speed>
  <fix>3d</fix>
</trkpt>
<trkpt lat="-27.2744127" lon="151.290066">
  <ele>343.08</ele>
  <time>2026-09-01T19:54:56Z</time>
  <course>12.4</course>
  <speed>0.022360679774997897</speed>
  <fix>3d</fix>
</trkpt>
<trkpt lat="-27.2744125" lon="151.2900659">
  <ele>343.09</ele>
  <time>2026-09-01T19:54:56Z</time>
  <course>195.29</course>
  <speed>0.0</speed>
  <fix>3d</fix>
</trkpt>
<trkpt lat="-27.2744127" lon="151.290066">
  <ele>343.08</ele>
  <time>2026-09-01T19:54:56Z</time>
  <course>12.45</course>
  <speed>0.022360679774997897</speed>
  <fix>3d</fix>
</trkpt>
<trkpt lat="-27.2744125" lon="151.2900659">
  <ele>343.09</ele>
  <time>2026-09-01T19:54:56Z</time>
  <course>12.86</course>
  <speed>0.0</speed>
  <fix>3d</fix>
</trkpt>
<trkpt lat="-27.2744127" lon="151.290066">
  <ele>343.08</ele>
  <time>2026-09-01T19:54:56Z</time>
  <course>12.5</course>
  <speed>0.022360679774997897</speed>
  <fix>3d</fix>
</trkpt>
<trkpt lat="-27.2744125" lon="151.2900659">
  <ele>343.09</ele>
  <time>2026-09-01T19:54:56Z</time>
  <course>12.86</course>
  <speed>0.0</speed>
  <fix>3d</fix>
</trkpt>
<trkpt lat="-27.2744127" lon="151.290066">
  <ele>343.08</ele>
  <time>2026-09-01T19:54:56Z</time>
  <course>12.54</course>
  <speed>0.022360679774997897</speed>
  <fix>3d</fix>
</trkpt>
<trkpt lat="-27.2744125" lon="151.2900659">
  <ele>343.09</ele>
  <time>2026-09-01T19:54:56Z</time>
  <course>182.07</course>
  <speed>0.0</speed>
  <fix>3d</fix>
</trkpt>
<trkpt lat="-27.2744127" lon="151.290066">
  <ele>343.08</ele>
  <time>2026-09-01T19:54:56Z</time>
  <course>12.58</course>
  <speed>0.022360679774997897</speed>
  <fix>3d</fix>
</trkpt>
<trkpt lat="-27.2744125" lon="151.2900659">
  <ele>343.09</ele>
  <time>2026-09-01T19:54:56Z</time>
  <course>182.07</course>
  <speed>0.0</speed>
  <fix>3d</fix>
</trkpt>
<trkpt lat="-27.2744127" lon="151.290066">
  <ele>343.08</ele>
  <time>2026-09-01T19:54:56Z</time>
  <course>12.62</course>
  <speed>0.022360679774997897</speed>
  <fix>3d</fix>
</trkpt>
<trkpt lat="-27.2744125" lon="151.2900659">
  <ele>343.09</ele>
  <time>2026-09-01T19:54:56Z</time>
  <course>193.08</course>
  <speed>0.0</speed>
  <fix>3d</fix>
</trkpt>
<trkpt lat="-27.2744127" lon="151.290066">
  <ele>343.08</ele>
  <time>2026-09-01T19:54:56Z</time>
  <course>12.65</course>
  <speed>0.022360679774997897</speed>
  <fix>3d</fix>
</trkpt>
<trkpt lat="-27.2744125" lon="151.2900659">
  <ele>343.09</ele>
  <time>2026-09-01T19:54:56Z</time>
  <course>193.08</course>
  <speed>0.0</speed>
  <fix>3d</fix>
</trkpt>
<trkpt lat="-27.2744127" lon="151.290066">
  <ele>343.08</ele>
  <time>2026-09-01T19:54:56Z</time>
  <course>12.69</course>
  <speed>0.022360679774997897</speed>
  <fix>3d</fix>
</trkpt>
<trkpt lat="-27.2744125" lon="151.2900659">
  <ele>343.09</ele>
  <time>2026-09-01T19:54:56Z</time>
  <course>11.3</course>
  <speed>0.0</speed>
  <fix>3d</fix>
</trkpt>
<trkpt lat="-27.2744127" lon="151.290066">
  <ele>343.08</ele>
  <time>2026-09-01T19:54:56Z</time>
  <course>12.72</course>
  <speed>0.022360679774997897</speed>
  <fix>3d</fix>
</trkpt>
<trkpt lat="-27.2744125" lon="151.2900659">
  <ele>343.09</ele>
  <time>2026-09-01T19:54:56Z</time>
  <course>11.3</course>
  <speed>0.0</speed>
  <fix>3d</fix>
</trkpt>
<trkpt lat="-27.2744127" lon="151.290066">
  <ele>343.08</ele>
  <time>2026-09-01T19:54:56Z</time>
  <course>12.75</course>
  <speed>0.022360679774997897</speed>
  <fix>3d</fix>
</trkpt>
<trkpt lat="-27.2744125" lon="151.2900659">
  <ele>343.09</ele>
  <time>2026-09-01T19:54:56Z</time>
  <course>13.34</course>
  <speed>0.0</speed>
  <fix>3d</fix>
</trkpt>
<trkpt lat="-27.2744127" lon="151.290066">
  <ele>343.08</ele>
  <time>2026-09-01T19:54:56Z</time>
  <course>12.77</course>
  <speed>0.022360679774997897</speed>
  <fix>3d</fix>
</trkpt>
<trkpt lat="-27.2744125" lon="151.2900659">
  <ele>343.09</ele>
  <time>2026-09-01T19:54:56Z</time>
  <course>13.34</course>
  <speed>0.0</speed>
  <fix>3d</fix>
</trkpt>
<trkpt lat="-27.2744127" lon="151.290066">
  <ele>343.08</ele>
  <time>2026-09-01T19:54:56Z</time>
  <course>12.8</course>
  <speed>0.022360679774997897</speed>
  <fix>3d</fix>
</trkpt>
<trkpt lat="-27.2744125" lon="151.2900659">
  <ele>343.09</ele>
  <time>2026-09-01T19:54:56Z</time>
  <course>192.16</course>
  <speed>0.0</speed>
  <fix>3d</fix>
</trkpt>
<trkpt lat="-27.2744127" lon="151.290066">
  <ele>343.07</ele>
  <time>2026-09-01T19:54:56Z</time>
  <course>12.83</course>
  <speed>0.022360679774997897</speed>
  <fix>3d</fix>
</trkpt>
<trkpt lat="-27.2744125" lon="151.2900659">
  <ele>343.09</ele>
  <time>2026-09-01T19:54:56Z</time>
  <course>192.16</course>
  <speed>0.0</speed>
  <fix>3d</fix>
</trkpt>
<trkpt lat="-27.2744127" lon="151.290066">
  <ele>343.07</ele>
  <time>2026-09-01T19:54:56Z</time>
  <course>12.85</course>
  <speed>0.022360679774997897</speed>
  <fix>3d</fix>
</trkpt>
<trkpt lat="-27.2744125" lon="151.2900659">
  <ele>343.09</ele>
  <time>2026-09-01T19:54:56Z</time>
  <course>193.73</course>
  <speed>0.0</speed>
  <fix>3d</fix>
</trkpt>
<trkpt lat="-27.2744127" lon="151.290066">
  <ele>343.07</ele>
  <time>2026-09-01T19:54:56Z</time>
  <course>12.87</course>
  <speed>0.022360679774997897</speed>
  <fix>3d</fix>
</trkpt>
<trkpt lat="-27.2744125" lon="151.2900659">
  <ele>343.09</ele>
  <time>2026-09-01T19:54:56Z</time>
  <course>193.73</course>
  <speed>0.0</speed>
  <fix>3d</fix>
</trkpt>
<trkpt lat="-27.2744127" lon="151.290066">
  <ele>343.07</ele>
  <time>2026-09-01T19:54:56Z</time>
  <course>12.89</course>
  <speed>0.022360679774997897</speed>
  <fix>3d</fix>
</trkpt>
<trkpt lat="-27.2744125" lon="151.2900659">
  <ele>343.09</ele>
  <time>2026-09-01T19:54:56Z</time>
  <course>12.54</course>
  <speed>0.0</speed>
  <fix>3d</fix>
</trkpt>
<trkpt lat="-27.2744127" lon="151.290066">
  <ele>343.07</ele>
  <time>2026-09-01T19:54:56Z</time>
  <course>12.91</course>
  <speed>0.022360679774997897</speed>
  <fix>3d</fix>
</trkpt>
<trkpt lat="-27.2744125" lon="151.2900659">
  <ele>343.09</ele>
  <time>2026-09-01T19:54:56Z</time>
  <course>12.54</course>
  <speed>0.0</speed>
  <fix>3d</fix>
</trkpt>
<trkpt lat="-27.2744127" lon="151.290066">
  <ele>343.07</ele>
  <time>2026-09-01T19:54:56Z</time>
  <course>12.93</course>
  <speed>0.022360679774997897</speed>
  <fix>3d</fix>
</trkpt>
<trkpt lat="-27.2744125" lon="151.2900659">
  <ele>343.09</ele>
  <time>2026-09-01T19:54:56Z</time>
  <course>14.64</course>
  <speed>0.0</speed>
  <fix>3d</fix>
</trkpt>
<trkpt lat="-27.2744127" lon="151.290066">
  <ele>343.07</ele>
  <time>2026-09-01T19:54:56Z</time>
  <course>12.95</course>
  <speed>0.022360679774997897</speed>
  <fix>3d</fix>
</trkpt>
<trkpt lat="-27.2744125" lon="151.2900659">
  <ele>343.09</ele>
  <time>2026-09-01T19:54:56Z</time>
  <course>14.64</course>
  <speed>0.0</speed>
  <fix>3d</fix>
</trkpt>
<trkpt lat="-27.2744127" lon="151.290066">
  <ele>343.07</ele>
  <time>2026-09-01T19:54:56Z</time>
  <course>13.02</course>
  <speed>0.022360679774997897</speed>
  <fix>3d</fix>
</trkpt>
<trkpt lat="-27.2744125" lon="151.2900659">
  <ele>343.09</ele>
  <time>2026-09-01T19:54:56Z</time>
  <course>208.59</course>
  <speed>0.0</speed>
  <fix>3d</fix>
</trkpt>
<trkpt lat="-27.2744127" lon="151.290066">
  <ele>343.09</ele>
  <time>2026-09-01T19:54:56Z</time>
  <course>13.08</course>
  <speed>0.022360679774997897</speed>
  <fix>3d</fix>
</trkpt>
<trkpt lat="-27.2744125" lon="151.2900659">
  <ele>343.09</ele>
  <time>2026-09-01T19:54:56Z</time>
  <course>190.69</course>
  <speed>0.0</speed>
  <fix>3d</fix>
</trkpt>
<trkpt lat="-27.2744127" lon="151.290066">
  <ele>343.09</ele>
  <time>2026-09-01T19:54:56Z</time>
  <course>13.09</course>
  <speed>0.022360679774997897</speed>
  <fix>3d</fix>
</trkpt>
<trkpt lat="-27.2744125" lon="151.2900659">
  <ele>343.09</ele>
  <time>2026-09-01T19:54:56Z</time>
  <course>193.44</course>
  <speed>0.0</speed>
  <fix>3d</fix>
</trkpt>
<trkpt lat="-27.2744127" lon="151.290066">
  <ele>343.08</ele>
  <time>2026-09-01T19:54:56Z</time>
  <course>13.12</course>
  <speed>0.022360679774997897</speed>
  <fix>3d</fix>
</trkpt>
<trkpt lat="-27.2744125" lon="151.2900659">
  <ele>343.09</ele>
  <time>2026-09-01T19:54:56Z</time>
  <course>11.74</course>
  <speed>0.0</speed>
  <fix>3d</fix>
</trkpt>
<trkpt lat="-27.2744127" lon="151.290066">
  <ele>343.08</ele>
  <time>2026-09-01T19:54:56Z</time>
  <course>13.13</course>
  <speed>0.022360679774997897</speed>
  <fix>3d</fix>
</trkpt>
<trkpt lat="-27.2744125" lon="151.2900659">
  <ele>343.09</ele>
  <time>2026-09-01T19:54:56Z</time>
  <course>11.74</course>
  <speed>0.0</speed>
  <fix>3d</fix>
</trkpt>
<trkpt lat="-27.2744127" lon="151.290066">
  <ele>343.08</ele>
  <time>2026-09-01T19:54:56Z</time>
  <course>13.14</course>
  <speed>0.022360679774997897</speed>
  <fix>3d</fix>
</trkpt>
<trkpt lat="-27.2744125" lon="151.2900659">
  <ele>343.09</ele>
  <time>2026-09-01T19:54:56Z</time>
  <course>12.5</course>
  <speed>0.0</speed>
  <fix>3d</fix>
</trkpt>
<trkpt lat="-27.2744127" lon="151.290066">
  <ele>343.08</ele>
  <time>2026-09-01T19:54:56Z</time>
  <course>13.15</course>
  <speed>0.022360679774997897</speed>
  <fix>3d</fix>
</trkpt>
<trkpt lat="-27.2744125" lon="151.2900659">
  <ele>343.09</ele>
  <time>2026-09-01T19:54:56Z</time>
  <course>12.5</course>
  <speed>0.0</speed>
  <fix>3d</fix>
</trkpt>
<trkpt lat="-27.2744127" lon="151.290066">
  <ele>343.08</ele>
  <time>2026-09-01T19:54:56Z</time>
  <course>13.16</course>
  <speed>0.022360679774997897</speed>
  <fix>3d</fix>
</trkpt>
<trkpt lat="-27.2744125" lon="151.2900659">
  <ele>343.09</ele>
  <time>2026-09-01T19:54:56Z</time>
  <course>8.32</course>
  <speed>0.0</speed>
  <fix>3d</fix>
</trkpt>
<trkpt lat="-27.2744127" lon="151.290066">
  <ele>343.08</ele>
  <time>2026-09-01T19:54:56Z</time>
  <course>13.17</course>
  <speed>0.022360679774997897</speed>
  <fix>3d</fix>
</trkpt>
<trkpt lat="-27.2744125" lon="151.2900659">
  <ele>343.09</ele>
  <time>2026-09-01T19:54:56Z</time>
  <course>8.32</course>
  <speed>0.0</speed>
  <fix>3d</fix>
</trkpt>
<trkpt lat="-27.2744127" lon="151.290066">
  <ele>343.08</ele>
  <time>2026-09-01T19:54:56Z</time>
  <course>13.18</course>
  <speed>0.022360679774997897</speed>
  <fix>3d</fix>
</trkpt>
<trkpt lat="-27.2744125" lon="151.2900659">
  <ele>343.09</ele>
  <time>2026-09-01T19:54:56Z</time>
  <course>10.39</course>
  <speed>0.0</speed>
  <fix>3d</fix>
</trkpt>
<trkpt lat="-27.2744127" lon="151.290066">
  <ele>343.08</ele>
  <time>2026-09-01T19:54:56Z</time>
  <course>13.19</course>
  <speed>0.022360679774997897</speed>
  <fix>3d</fix>
</trkpt>
<trkpt lat="-27.2744125" lon="151.2900659">
  <ele>343.09</ele>
  <time>2026-09-01T19:54:56Z</time>
  <course>10.39</course>
  <speed>0.0</speed>
  <fix>3d</fix>
</trkpt>
<trkpt lat="-27.2744127" lon="151.290066">
  <ele>343.08</ele>
  <time>2026-09-01T19:54:56Z</time>
  <course>13.2</course>
  <speed>0.022360679774997897</speed>
  <fix>3d</fix>
</trkpt>
<trkpt lat="-27.2744125" lon="151.2900659">
  <ele>343.09</ele>
  <time>2026-09-01T19:54:56Z</time>
  <course>11.03</course>
  <speed>0.0</speed>
  <fix>3d</fix>
</trkpt>
<trkpt lat="-27.2744127" lon="151.290066">
  <ele>343.08</ele>
  <time>2026-09-01T19:54:57Z</time>
  <course>13.21</course>
  <speed>0.022360679774997897</speed>
  <fix>3d</fix>
</trkpt>
<trkpt lat="-27.2744125" lon="151.2900659">
  <ele>343.09</ele>
  <time>2026-09-01T19:54:57Z</time>
  <course>11.03</course>
  <speed>0.0</speed>
  <fix>3d</fix>
</trkpt>
<trkpt lat="-27.2744127" lon="151.290066">
  <ele>343.08</ele>
  <time>2026-09-01T19:54:57Z</time>
  <course>13.22</course>
  <speed>0.022360679774997897</speed>
  <fix>3d</fix>
</trkpt>
<trkpt lat="-27.2744125" lon="151.2900659">
  <ele>343.09</ele>
  <time>2026-09-01T19:54:57Z</time>
  <course>10.9</course>
  <speed>0.0</speed>
  <fix>3d</fix>
</trkpt>
<trkpt lat="-27.2744127" lon="151.290066">
  <ele>343.08</ele>
  <time>2026-09-01T19:54:57Z</time>
  <course>13.23</course>
  <speed>0.022360679774997897</speed>
  <fix>3d</fix>
</trkpt>
<trkpt lat="-27.2744125" lon="151.2900659">
  <ele>343.09</ele>
  <time>2026-09-01T19:54:57Z</time>
  <course>10.9</course>
  <speed>0.0</speed>
  <fix>3d</fix>
</trkpt>
<trkpt lat="-27.2744127" lon="151.290066">
  <ele>343.08</ele>
  <time>2026-09-01T19:54:57Z</time>
  <course>13.26</course>
  <speed>0.022360679774997897</speed>
  <fix>3d</fix>
</trkpt>
<trkpt lat="-27.2744125" lon="151.2900659">
  <ele>343.09</ele>
  <time>2026-09-01T19:54:57Z</time>
  <course>10.84</course>
  <speed>0.0</speed>
  <fix>3d</fix>
</trkpt>
<trkpt lat="-27.2744127" lon="151.290066">
  <ele>343.08</ele>
  <time>2026-09-01T19:54:57Z</time>
  <course>13.27</course>
  <speed>0.022360679774997897</speed>
  <fix>3d</fix>
</trkpt>
<trkpt lat="-27.2744125" lon="151.2900659">
  <ele>343.09</ele>
  <time>2026-09-01T19:54:57Z</time>
  <course>10.84</course>
  <speed>0.0</speed>
  <fix>3d</fix>
</trkpt>
<trkpt lat="-27.2744127" lon="151.290066">
  <ele>343.08</ele>
  <time>2026-09-01T19:54:57Z</time>
  <course>13.28</course>
  <speed>0.022360679774997897</speed>
  <fix>3d</fix>
</trkpt>
<trkpt lat="-27.2744125" lon="151.2900659">
  <ele>343.09</ele>
  <time>2026-09-01T19:54:57Z</time>
  <course>10.84</course>
  <speed>0.0</speed>
  <fix>3d</fix>
</trkpt>
<trkpt lat="-27.2744127" lon="151.290066">
  <ele>343.08</ele>
  <time>2026-09-01T19:54:57Z</time>
  <course>13.28</course>
  <speed>0.022360679774997897</speed>
  <fix>3d</fix>
</trkpt>
<trkpt lat="-27.2744125" lon="151.2900659">
  <ele>343.09</ele>
  <time>2026-09-01T19:54:57Z</time>
  <course>10.84</course>
  <speed>0.0</speed>
  <fix>3d</fix>
</trkpt>
<trkpt lat="-27.2744127" lon="151.290066">
  <ele>343.08</ele>
  <time>2026-09-01T19:54:57Z</time>
  <course>13.29</course>
  <speed>0.022360679774997897</speed>
  <fix>3d</fix>
</trkpt>
<trkpt lat="-27.2744125" lon="151.2900659">
  <ele>343.09</ele>
  <time>2026-09-01T19:54:57Z</time>
  <course>10.84</course>
  <speed>0.0</speed>
  <fix>3d</fix>
</trkpt>
<trkpt lat="-27.2744127" lon="151.290066">
  <ele>343.08</ele>
  <time>2026-09-01T19:54:57Z</time>
  <course>13.3</course>
  <speed>0.022360679774997897</speed>
  <fix>3d</fix>
</trkpt>
<trkpt lat="-27.2744125" lon="151.2900659">
  <ele>343.09</ele>
  <time>2026-09-01T19:54:57Z</time>
  <course>10.84</course>
  <speed>0.0</speed>
  <fix>3d</fix>
</trkpt>
<trkpt lat="-27.2744127" lon="151.290066">
  <ele>343.08</ele>
  <time>2026-09-01T19:54:57Z</time>
  <course>13.31</course>
  <speed>0.022360679774997897</speed>
  <fix>3d</fix>
</trkpt>
<trkpt lat="-27.2744125" lon="151.2900659">
  <ele>343.09</ele>
  <time>2026-09-01T19:54:57Z</time>
  <course>10.84</course>
  <speed>0.0</speed>
  <fix>3d</fix>
</trkpt>
<trkpt lat="-27.2744127" lon="151.290066">
  <ele>343.08</ele>
  <time>2026-09-01T19:54:57Z</time>
  <course>13.32</course>
  <speed>0.022360679774997897</speed>
  <fix>3d</fix>
</trkpt>
<trkpt lat="-27.2744125" lon="151.2900659">
  <ele>343.09</ele>
  <time>2026-09-01T19:54:57Z</time>
  <course>10.84</course>
  <speed>0.0</speed>
  <fix>3d</fix>
</trkpt>
<trkpt lat="-27.2744127" lon="151.290066">
  <ele>343.08</ele>
  <time>2026-09-01T19:54:57Z</time>
  <course>13.32</course>
  <speed>0.022360679774997897</speed>
  <fix>3d</fix>
</trkpt>
<trkpt lat="-27.2744125" lon="151.2900659">
  <ele>343.09</ele>
  <time>2026-09-01T19:54:57Z</time>
  <course>10.84</course>
  <speed>0.0</speed>
  <fix>3d</fix>
</trkpt>
<trkpt lat="-27.2744127" lon="151.290066">
  <ele>343.07</ele>
  <time>2026-09-01T19:54:57Z</time>
  <course>13.33</course>
  <speed>0.022360679774997897</speed>
  <fix>3d</fix>
</trkpt>
<trkpt lat="-27.2744125" lon="151.2900659">
  <ele>343.09</ele>
  <time>2026-09-01T19:54:57Z</time>
  <course>10.84</course>
  <speed>0.0</speed>
  <fix>3d</fix>
</trkpt>
<trkpt lat="-27.2744127" lon="151.290066">
  <ele>343.08</ele>
  <time>2026-09-01T19:54:57Z</time>
  <course>13.34</course>
  <speed>0.022360679774997897</speed>
  <fix>3d</fix>
</trkpt>
<trkpt lat="-27.2744125" lon="151.2900659">
  <ele>343.09</ele>
  <time>2026-09-01T19:54:57Z</time>
  <course>10.84</course>
  <speed>0.0</speed>
  <fix>3d</fix>
</trkpt>
<trkpt lat="-27.2744127" lon="151.290066">
  <ele>343.08</ele>
  <time>2026-09-01T19:54:57Z</time>
  <course>13.34</course>
  <speed>0.022360679774997897</speed>
  <fix>3d</fix>
</trkpt>
<trkpt lat="-27.2744125" lon="151.2900659">
  <ele>343.09</ele>
  <time>2026-09-01T19:54:57Z</time>
  <course>14.75</course>
  <speed>0.0</speed>
  <fix>3d</fix>
</trkpt>
<trkpt lat="-27.2744127" lon="151.290066">
  <ele>343.08</ele>
  <time>2026-09-01T19:54:57Z</time>
  <course>13.35</course>
  <speed>0.022360679774997897</speed>
  <fix>3d</fix>
</trkpt>
<trkpt lat="-27.2744125" lon="151.2900659">
  <ele>343.09</ele>
  <time>2026-09-01T19:54:57Z</time>
  <course>14.75</course>
  <speed>0.0</speed>
  <fix>3d</fix>
</trkpt>
<trkpt lat="-27.2744127" lon="151.290066">
  <ele>343.08</ele>
  <time>2026-09-01T19:54:57Z</time>
  <course>13.36</course>
  <speed>0.022360679774997897</speed>
  <fix>3d</fix>
</trkpt>
<trkpt lat="-27.2744125" lon="151.2900659">
  <ele>343.09</ele>
  <time>2026-09-01T19:54:57Z</time>
  <course>31.88</course>
  <speed>0.0</speed>
  <fix>3d</fix>
</trkpt>
<trkpt lat="-27.2744127" lon="151.290066">
  <ele>343.08</ele>
  <time>2026-09-01T19:54:57Z</time>
  <course>13.36</course>
  <speed>0.022360679774997897</speed>
  <fix>3d</fix>
</trkpt>
<trkpt lat="-27.2744125" lon="151.2900659">
  <ele>343.09</ele>
  <time>2026-09-01T19:54:57Z</time>
  <course>31.88</course>
  <speed>0.0</speed>
  <fix>3d</fix>
</trkpt>
<trkpt lat="-27.2744127" lon="151.290066">
  <ele>343.09</ele>
  <time>2026-09-01T19:54:57Z</time>
  <course>13.37</course>
  <speed>0.022360679774997897</speed>
  <fix>3d</fix>
</trkpt>
<trkpt lat="-27.2744125" lon="151.2900659">
  <ele>343.09</ele>
  <time>2026-09-01T19:54:57Z</time>
  <course>44.09</course>
  <speed>0.0</speed>
  <fix>3d</fix>
</trkpt>
<trkpt lat="-27.2744127" lon="151.290066">
  <ele>343.09</ele>
  <time>2026-09-01T19:54:57Z</time>
  <course>13.38</course>
  <speed>0.022360679774997897</speed>
  <fix>3d</fix>
</trkpt>
<trkpt lat="-27.2744125" lon="151.2900659">
  <ele>343.09</ele>
  <time>2026-09-01T19:54:57Z</time>
  <course>44.09</course>
  <speed>0.0</speed>
  <fix>3d</fix>
</trkpt>
<trkpt lat="-27.2744127" lon="151.290066">
  <ele>343.09</ele>
  <time>2026-09-01T19:54:57Z</time>
  <course>13.38</course>
  <speed>0.022360679774997897</speed>
  <fix>3d</fix>
</trkpt>
<trkpt lat="-27.2744125" lon="151.2900659">
  <ele>343.09</ele>
  <time>2026-09-01T19:54:57Z</time>
  <course>38.29</course>
  <speed>0.0</speed>
  <fix>3d</fix>
</trkpt>
<trkpt lat="-27.2744127" lon="151.290066">
  <ele>343.1</ele>
  <time>2026-09-01T19:54:57Z</time>
  <course>13.39</course>
  <speed>0.022360679774997897</speed>
  <fix>3d</fix>
</trkpt>
<trkpt lat="-27.2744125" lon="151.2900659">
  <ele>343.09</ele>
  <time>2026-09-01T19:54:57Z</time>
  <course>38.29</course>
  <speed>0.0</speed>
  <fix>3d</fix>
</trkpt>
<trkpt lat="-27.2744127" lon="151.290066">
  <ele>343.1</ele>
  <time>2026-09-01T19:54:57Z</time>
  <course>13.4</course>
  <speed>0.022360679774997897</speed>
  <fix>3d</fix>
</trkpt>
<trkpt lat="-27.2744125" lon="151.2900659">
  <ele>343.09</ele>
  <time>2026-09-01T19:54:57Z</time>
  <course>22.6</course>
  <speed>0.0</speed>
  <fix>3d</fix>
</trkpt>
<trkpt lat="-27.2744127" lon="151.290066">
  <ele>343.11</ele>
  <time>2026-09-01T19:54:57Z</time>
  <course>13.4</course>
  <speed>0.022360679774997897</speed>
  <fix>3d</fix>
</trkpt>
<trkpt lat="-27.2744125" lon="151.2900659">
  <ele>343.09</ele>
  <time>2026-09-01T19:54:57Z</time>
  <course>22.6</course>
  <speed>0.0</speed>
  <fix>3d</fix>
</trkpt>
<trkpt lat="-27.2744127" lon="151.290066">
  <ele>343.11</ele>
  <time>2026-09-01T19:54:57Z</time>
  <course>13.41</course>
  <speed>0.022360679774997897</speed>
  <fix>3d</fix>
</trkpt>
<trkpt lat="-27.2744125" lon="151.2900659">
  <ele>343.09</ele>
  <time>2026-09-01T19:54:57Z</time>
  <course>12.98</course>
  <speed>0.0</speed>
  <fix>3d</fix>
</trkpt>
<trkpt lat="-27.2744127" lon="151.290066">
  <ele>343.11</ele>
  <time>2026-09-01T19:54:57Z</time>
  <course>13.41</course>
  <speed>0.022360679774997897</speed>
  <fix>3d</fix>
</trkpt>
<trkpt lat="-27.2744125" lon="151.2900659">
  <ele>343.09</ele>
  <time>2026-09-01T19:54:57Z</time>
  <course>12.98</course>
  <speed>0.0</speed>
  <fix>3d</fix>
</trkpt>
<trkpt lat="-27.2744127" lon="151.290066">
  <ele>343.12</ele>
  <time>2026-09-01T19:54:57Z</time>
  <course>13.42</course>
  <speed>0.022360679774997897</speed>
  <fix>3d</fix>
</trkpt>
<trkpt lat="-27.2744125" lon="151.2900659">
  <ele>343.09</ele>
  <time>2026-09-01T19:54:57Z</time>
  <course>12.33</course>
  <speed>0.0</speed>
  <fix>3d</fix>
</trkpt>
<trkpt lat="-27.2744127" lon="151.290066">
  <ele>343.12</ele>
  <time>2026-09-01T19:54:57Z</time>
  <course>13.43</course>
  <speed>0.022360679774997897</speed>
  <fix>3d</fix>
</trkpt>
<trkpt lat="-27.2744125" lon="151.2900659">
  <ele>343.09</ele>
  <time>2026-09-01T19:54:57Z</time>
  <course>12.33</course>
  <speed>0.0</speed>
  <fix>3d</fix>
</trkpt>
<trkpt lat="-27.2744127" lon="151.290066">
  <ele>343.12</ele>
  <time>2026-09-01T19:54:57Z</time>
  <course>13.43</course>
  <speed>0.022360679774997897</speed>
  <fix>3d</fix>
</trkpt>
<trkpt lat="-27.2744125" lon="151.2900659">
  <ele>343.09</ele>
  <time>2026-09-01T19:54:57Z</time>
  <course>12.73</course>
  <speed>0.0</speed>
  <fix>3d</fix>
</trkpt>
<trkpt lat="-27.2744127" lon="151.290066">
  <ele>343.13</ele>
  <time>2026-09-01T19:54:57Z</time>
  <course>13.44</course>
  <speed>0.022360679774997897</speed>
  <fix>3d</fix>
</trkpt>
<trkpt lat="-27.2744125" lon="151.2900659">
  <ele>343.09</ele>
  <time>2026-09-01T19:54:57Z</time>
  <course>12.73</course>
  <speed>0.0</speed>
  <fix>3d</fix>
</trkpt>
<trkpt lat="-27.2744127" lon="151.290066">
  <ele>343.13</ele>
  <time>2026-09-01T19:54:57Z</time>
  <course>13.44</course>
  <speed>0.022360679774997897</speed>
  <fix>3d</fix>
</trkpt>
<trkpt lat="-27.2744125" lon="151.2900659">
  <ele>343.09</ele>
  <time>2026-09-01T19:54:57Z</time>
  <course>12.63</course>
  <speed>0.0</speed>
  <fix>3d</fix>
</trkpt>
<trkpt lat="-27.2744127" lon="151.290066">
  <ele>343.14</ele>
  <time>2026-09-01T19:54:57Z</time>
  <course>13.45</course>
  <speed>0.022360679774997897</speed>
  <fix>3d</fix>
</trkpt>
<trkpt lat="-27.2744125" lon="151.2900659">
  <ele>343.09</ele>
  <time>2026-09-01T19:54:57Z</time>
  <course>12.63</course>
  <speed>0.0</speed>
  <fix>3d</fix>
</trkpt>
<trkpt lat="-27.2744127" lon="151.290066">
  <ele>343.14</ele>
  <time>2026-09-01T19:54:57Z</time>
  <course>13.45</course>
  <speed>0.022360679774997897</speed>
  <fix>3d</fix>
</trkpt>
<trkpt lat="-27.2744125" lon="151.2900659">
  <ele>343.09</ele>
  <time>2026-09-01T19:54:57Z</time>
  <course>12.61</course>
  <speed>0.0</speed>
  <fix>3d</fix>
</trkpt>
<trkpt lat="-27.2744127" lon="151.290066">
  <ele>343.14</ele>
  <time>2026-09-01T19:54:57Z</time>
  <course>13.46</course>
  <speed>0.022360679774997897</speed>
  <fix>3d</fix>
</trkpt>
<trkpt lat="-27.2744125" lon="151.2900659">
  <ele>343.09</ele>
  <time>2026-09-01T19:54:57Z</time>
  <course>12.61</course>
  <speed>0.0</speed>
  <fix>3d</fix>
</trkpt>
<trkpt lat="-27.2744127" lon="151.290066">
  <ele>343.14</ele>
  <time>2026-09-01T19:54:57Z</time>
  <course>13.47</course>
  <speed>0.022360679774997897</speed>
  <fix>3d</fix>
</trkpt>
<trkpt lat="-27.2744125" lon="151.2900659">
  <ele>343.09</ele>
  <time>2026-09-01T19:54:57Z</time>
  <course>12.62</course>
  <speed>0.0</speed>
  <fix>3d</fix>
</trkpt>
<trkpt lat="-27.2744127" lon="151.290066">
  <ele>343.15</ele>
  <time>2026-09-01T19:54:57Z</time>
  <course>13.47</course>
  <speed>0.022360679774997897</speed>
  <fix>3d</fix>
</trkpt>
<trkpt lat="-27.2744125" lon="151.2900659">
  <ele>343.09</ele>
  <time>2026-09-01T19:54:57Z</time>
  <course>12.62</course>
  <speed>0.0</speed>
  <fix>3d</fix>
</trkpt>
<trkpt lat="-27.2744127" lon="151.290066">
  <ele>343.15</ele>
  <time>2026-09-01T19:54:57Z</time>
  <course>13.48</course>
  <speed>0.022360679774997897</speed>
  <fix>3d</fix>
</trkpt>
<trkpt lat="-27.2744125" lon="151.2900659">
  <ele>343.09</ele>
  <time>2026-09-01T19:54:57Z</time>
  <course>12.62</course>
  <speed>0.0</speed>
  <fix>3d</fix>
</trkpt>
<trkpt lat="-27.2744127" lon="151.290066">
  <ele>343.16</ele>
  <time>2026-09-01T19:54:57Z</time>
  <course>13.48</course>
  <speed>0.022360679774997897</speed>
  <fix>3d</fix>
</trkpt>
<trkpt lat="-27.2744125" lon="151.2900659">
  <ele>343.09</ele>
  <time>2026-09-01T19:54:57Z</time>
  <course>12.62</course>
  <speed>0.0</speed>
  <fix>3d</fix>
</trkpt>
<trkpt lat="-27.2744127" lon="151.290066">
  <ele>343.16</ele>
  <time>2026-09-01T19:54:57Z</time>
  <course>13.49</course>
  <speed>0.022360679774997897</speed>
  <fix>3d</fix>
</trkpt>
<trkpt lat="-27.2744125" lon="151.2900659">
  <ele>343.09</ele>
  <time>2026-09-01T19:54:57Z</time>
  <course>12.62</course>
  <speed>0.0</speed>
  <fix>3d</fix>
</trkpt>
<trkpt lat="-27.2744127" lon="151.290066">
  <ele>343.16</ele>
  <time>2026-09-01T19:54:57Z</time>
  <course>13.49</course>
  <speed>0.022360679774997897</speed>
  <fix>3d</fix>
</trkpt>
<trkpt lat="-27.2744125" lon="151.2900659">
  <ele>343.09</ele>
  <time>2026-09-01T19:54:57Z</time>
  <course>12.62</course>
  <speed>0.0</speed>
  <fix>3d</fix>
</trkpt>
<trkpt lat="-27.2744127" lon="151.290066">
  <ele>343.16</ele>
  <time>2026-09-01T19:54:57Z</time>
  <course>13.5</course>
  <speed>0.022360679774997897</speed>
  <fix>3d</fix>
</trkpt>
<trkpt lat="-27.2744125" lon="151.2900659">
  <ele>343.09</ele>
  <time>2026-09-01T19:54:57Z</time>
  <course>12.62</course>
  <speed>0.0</speed>
  <fix>3d</fix>
</trkpt>
<trkpt lat="-27.2744127" lon="151.290066">
  <ele>343.17</ele>
  <time>2026-09-01T19:54:57Z</time>
  <course>13.5</course>
  <speed>0.022360679774997897</speed>
  <fix>3d</fix>
</trkpt>
<trkpt lat="-27.2744125" lon="151.2900659">
  <ele>343.09</ele>
  <time>2026-09-01T19:54:57Z</time>
  <course>12.62</course>
  <speed>0.0</speed>
  <fix>3d</fix>
</trkpt>
<trkpt lat="-27.2744127" lon="151.290066">
  <ele>343.17</ele>
  <time>2026-09-01T19:54:57Z</time>
  <course>13.51</course>
  <speed>0.022360679774997897</speed>
  <fix>3d</fix>
</trkpt>
<trkpt lat="-27.2744125" lon="151.2900659">
  <ele>343.09</ele>
  <time>2026-09-01T19:54:57Z</time>
  <course>12.62</course>
  <speed>0.0</speed>
  <fix>3d</fix>
</trkpt>
<trkpt lat="-27.2744127" lon="151.290066">
  <ele>343.18</ele>
  <time>2026-09-01T19:54:57Z</time>
  <course>13.51</course>
  <speed>0.022360679774997897</speed>
  <fix>3d</fix>
</trkpt>
<trkpt lat="-27.2744125" lon="151.2900659">
  <ele>343.09</ele>
  <time>2026-09-01T19:54:57Z</time>
  <course>12.62</course>
  <speed>0.0</speed>
  <fix>3d</fix>
</trkpt>
<trkpt lat="-27.2744127" lon="151.290066">
  <ele>343.18</ele>
  <time>2026-09-01T19:54:57Z</time>
  <course>13.52</course>
  <speed>0.022360679774997897</speed>
  <fix>3d</fix>
</trkpt>
<trkpt lat="-27.2744125" lon="151.2900659">
  <ele>343.09</ele>
  <time>2026-09-01T19:54:57Z</time>
  <course>12.62</course>
  <speed>0.0</speed>
  <fix>3d</fix>
</trkpt>
<trkpt lat="-27.2744127" lon="151.290066">
  <ele>343.18</ele>
  <time>2026-09-01T19:54:57Z</time>
  <course>13.52</course>
  <speed>0.022360679774997897</speed>
  <fix>3d</fix>
</trkpt>
<trkpt lat="-27.2744125" lon="151.2900659">
  <ele>343.09</ele>
  <time>2026-09-01T19:54:57Z</time>
  <course>12.62</course>
  <speed>0.0</speed>
  <fix>3d</fix>
</trkpt>
<trkpt lat="-27.2744127" lon="151.290066">
  <ele>343.18</ele>
  <time>2026-09-01T19:54:57Z</time>
  <course>13.53</course>
  <speed>0.022360679774997897</speed>
  <fix>3d</fix>
</trkpt>
<trkpt lat="-27.2744125" lon="151.2900659">
  <ele>343.09</ele>
  <time>2026-09-01T19:54:57Z</time>
  <course>12.62</course>
  <speed>0.0</speed>
  <fix>3d</fix>
</trkpt>
<trkpt lat="-27.2744127" lon="151.290066">
  <ele>343.19</ele>
  <time>2026-09-01T19:54:57Z</time>
  <course>13.53</course>
  <speed>0.022360679774997897</speed>
  <fix>3d</fix>
</trkpt>
<trkpt lat="-27.2744125" lon="151.2900659">
  <ele>343.09</ele>
  <time>2026-09-01T19:54:57Z</time>
  <course>12.62</course>
  <speed>0.0</speed>
  <fix>3d</fix>
</trkpt>
<trkpt lat="-27.2744127" lon="151.290066">
  <ele>343.19</ele>
  <time>2026-09-01T19:54:57Z</time>
  <course>13.54</course>
  <speed>0.022360679774997897</speed>
  <fix>3d</fix>
</trkpt>
<trkpt lat="-27.2744125" lon="151.2900659">
  <ele>343.09</ele>
  <time>2026-09-01T19:54:57Z</time>
  <course>12.62</course>
  <speed>0.0</speed>
  <fix>3d</fix>
</trkpt>
<trkpt lat="-27.2744127" lon="151.290066">
  <ele>343.19</ele>
  <time>2026-09-01T19:54:57Z</time>
  <course>13.54</course>
  <speed>0.022360679774997897</speed>
  <fix>3d</fix>
</trkpt>
<trkpt lat="-27.2744125" lon="151.2900659">
  <ele>343.09</ele>
  <time>2026-09-01T19:54:57Z</time>
  <course>12.62</course>
  <speed>0.0</speed>
  <fix>3d</fix>
</trkpt>
<trkpt lat="-27.2744127" lon="151.290066">
  <ele>343.19</ele>
  <time>2026-09-01T19:54:57Z</time>
  <course>13.55</course>
  <speed>0.022360679774997897</speed>
  <fix>3d</fix>
</trkpt>
<trkpt lat="-27.2744125" lon="151.2900659">
  <ele>343.09</ele>
  <time>2026-09-01T19:54:57Z</time>
  <course>12.62</course>
  <speed>0.0</speed>
  <fix>3d</fix>
</trkpt>
<trkpt lat="-27.2744127" lon="151.290066">
  <ele>343.2</ele>
  <time>2026-09-01T19:54:57Z</time>
  <course>13.55</course>
  <speed>0.022360679774997897</speed>
  <fix>3d</fix>
</trkpt>
<trkpt lat="-27.2744125" lon="151.2900659">
  <ele>343.09</ele>
  <time>2026-09-01T19:54:57Z</time>
  <course>12.62</course>
  <speed>0.0</speed>
  <fix>3d</fix>
</trkpt>
<trkpt lat="-27.2744127" lon="151.290066">
  <ele>343.2</ele>
  <time>2026-09-01T19:54:57Z</time>
  <course>13.56</course>
  <speed>0.022360679774997897</speed>
  <fix>3d</fix>
</trkpt>
<trkpt lat="-27.2744125" lon="151.2900659">
  <ele>343.09</ele>
  <time>2026-09-01T19:54:57Z</time>
  <course>12.62</course>
  <speed>0.0</speed>
  <fix>3d</fix>
</trkpt>
<trkpt lat="-27.2744127" lon="151.290066">
  <ele>343.2</ele>
  <time>2026-09-01T19:54:57Z</time>
  <course>13.56</course>
  <speed>0.022360679774997897</speed>
  <fix>3d</fix>
</trkpt>
<trkpt lat="-27.2744125" lon="151.2900659">
  <ele>343.09</ele>
  <time>2026-09-01T19:54:57Z</time>
  <course>12.62</course>
  <speed>0.0</speed>
  <fix>3d</fix>
</trkpt>
<trkpt lat="-27.2744127" lon="151.290066">
  <ele>343.21</ele>
  <time>2026-09-01T19:54:57Z</time>
  <course>13.57</course>
  <speed>0.022360679774997897</speed>
  <fix>3d</fix>
</trkpt>
<trkpt lat="-27.2744125" lon="151.2900659">
  <ele>343.09</ele>
  <time>2026-09-01T19:54:57Z</time>
  <course>12.62</course>
  <speed>0.0</speed>
  <fix>3d</fix>
</trkpt>
<trkpt lat="-27.2744127" lon="151.290066">
  <ele>343.21</ele>
  <time>2026-09-01T19:54:57Z</time>
  <course>13.57</course>
  <speed>0.022360679774997897</speed>
  <fix>3d</fix>
</trkpt>
<trkpt lat="-27.2744125" lon="151.2900659">
  <ele>343.09</ele>
  <time>2026-09-01T19:54:57Z</time>
  <course>12.62</course>
  <speed>0.0</speed>
  <fix>3d</fix>
</trkpt>
<trkpt lat="-27.2744127" lon="151.290066">
  <ele>343.21</ele>
  <time>2026-09-01T19:54:57Z</time>
  <course>13.58</course>
  <speed>0.022360679774997897</speed>
  <fix>3d</fix>
</trkpt>
<trkpt lat="-27.2744125" lon="151.2900659">
  <ele>343.09</ele>
  <time>2026-09-01T19:54:57Z</time>
  <course>12.62</course>
  <speed>0.0</speed>
  <fix>3d</fix>
</trkpt>
<trkpt lat="-27.2744127" lon="151.290066">
  <ele>343.22</ele>
  <time>2026-09-01T19:54:57Z</time>
  <course>13.58</course>
  <speed>0.022360679774997897</speed>
  <fix>3d</fix>
</trkpt>
<trkpt lat="-27.2744125" lon="151.2900659">
  <ele>343.09</ele>
  <time>2026-09-01T19:54:57Z</time>
  <course>12.62</course>
  <speed>0.0</speed>
  <fix>3d</fix>
</trkpt>
<trkpt lat="-27.2744127" lon="151.290066">
  <ele>343.22</ele>
  <time>2026-09-01T19:54:57Z</time>
  <course>13.58</course>
  <speed>0.022360679774997897</speed>
  <fix>3d</fix>
</trkpt>
<trkpt lat="-27.2744125" lon="151.2900659">
  <ele>343.09</ele>
  <time>2026-09-01T19:54:57Z</time>
  <course>12.62</course>
  <speed>0.0</speed>
  <fix>3d</fix>
</trkpt>
<trkpt lat="-27.2744127" lon="151.290066">
  <ele>343.22</ele>
  <time>2026-09-01T19:54:57Z</time>
  <course>13.59</course>
  <speed>0.022360679774997897</speed>
  <fix>3d</fix>
</trkpt>
<trkpt lat="-27.2744125" lon="151.2900659">
  <ele>343.09</ele>
  <time>2026-09-01T19:54:57Z</time>
  <course>12.62</course>
  <speed>0.0</speed>
  <fix>3d</fix>
</trkpt>
<trkpt lat="-27.2744127" lon="151.290066">
  <ele>343.22</ele>
  <time>2026-09-01T19:54:57Z</time>
  <course>13.59</course>
  <speed>0.022360679774997897</speed>
  <fix>3d</fix>
</trkpt>
<trkpt lat="-27.2744125" lon="151.2900659">
  <ele>343.09</ele>
  <time>2026-09-01T19:54:57Z</time>
  <course>12.62</course>
  <speed>0.0</speed>
  <fix>3d</fix>
</trkpt>
<trkpt lat="-27.2744127" lon="151.290066">
  <ele>343.23</ele>
  <time>2026-09-01T19:54:57Z</time>
  <course>13.6</course>
  <speed>0.022360679774997897</speed>
  <fix>3d</fix>
</trkpt>
<trkpt lat="-27.2744125" lon="151.2900659">
  <ele>343.09</ele>
  <time>2026-09-01T19:54:57Z</time>
  <course>12.62</course>
  <speed>0.0</speed>
  <fix>3d</fix>
</trkpt>
<trkpt lat="-27.2744127" lon="151.290066">
  <ele>343.23</ele>
  <time>2026-09-01T19:54:57Z</time>
  <course>13.6</course>
  <speed>0.022360679774997897</speed>
  <fix>3d</fix>
</trkpt>
<trkpt lat="-27.2744125" lon="151.2900659">
  <ele>343.09</ele>
  <time>2026-09-01T19:54:57Z</time>
  <course>12.62</course>
  <speed>0.0</speed>
  <fix>3d</fix>
</trkpt>
<trkpt lat="-27.2744127" lon="151.290066">
  <ele>343.23</ele>
  <time>2026-09-01T19:54:57Z</time>
  <course>13.61</course>
  <speed>0.022360679774997897</speed>
  <fix>3d</fix>
</trkpt>
<trkpt lat="-27.2744125" lon="151.2900659">
  <ele>343.09</ele>
  <time>2026-09-01T19:54:57Z</time>
  <course>12.62</course>
  <speed>0.0</speed>
  <fix>3d</fix>
</trkpt>
<trkpt lat="-27.2744127" lon="151.290066">
  <ele>343.23</ele>
  <time>2026-09-01T19:54:57Z</time>
  <course>13.61</course>
  <speed>0.022360679774997897</speed>
  <fix>3d</fix>
</trkpt>
<trkpt lat="-27.2744125" lon="151.2900659">
  <ele>343.09</ele>
  <time>2026-09-01T19:54:57Z</time>
  <course>12.62</course>
  <speed>0.0</speed>
  <fix>3d</fix>
</trkpt>
<trkpt lat="-27.2744127" lon="151.290066">
  <ele>343.23</ele>
  <time>2026-09-01T19:54:57Z</time>
  <course>13.62</course>
  <speed>0.022360679774997897</speed>
  <fix>3d</fix>
</trkpt>
<trkpt lat="-27.2744125" lon="151.2900659">
  <ele>343.09</ele>
  <time>2026-09-01T19:54:57Z</time>
  <course>12.62</course>
  <speed>0.0</speed>
  <fix>3d</fix>
</trkpt>
<trkpt lat="-27.2744127" lon="151.290066">
  <ele>343.23</ele>
  <time>2026-09-01T19:54:57Z</time>
  <course>13.62</course>
  <speed>0.022360679774997897</speed>
  <fix>3d</fix>
</trkpt>
<trkpt lat="-27.2744125" lon="151.2900659">
  <ele>343.09</ele>
  <time>2026-09-01T19:54:57Z</time>
  <course>12.62</course>
  <speed>0.0</speed>
  <fix>3d</fix>
</trkpt>
<trkpt lat="-27.2744127" lon="151.290066">
  <ele>343.23</ele>
  <time>2026-09-01T19:54:57Z</time>
  <course>13.62</course>
  <speed>0.022360679774997897</speed>
  <fix>3d</fix>
</trkpt>
<trkpt lat="-27.2744125" lon="151.2900659">
  <ele>343.09</ele>
  <time>2026-09-01T19:54:57Z</time>
  <course>12.62</course>
  <speed>0.0</speed>
  <fix>3d</fix>
</trkpt>
<trkpt lat="-27.2744127" lon="151.290066">
  <ele>343.23</ele>
  <time>2026-09-01T19:54:57Z</time>
  <course>13.63</course>
  <speed>0.022360679774997897</speed>
  <fix>3d</fix>
</trkpt>
<trkpt lat="-27.2744125" lon="151.2900659">
  <ele>343.09</ele>
  <time>2026-09-01T19:54:57Z</time>
  <course>12.62</course>
  <speed>0.0</speed>
  <fix>3d</fix>
</trkpt>
<trkpt lat="-27.2744127" lon="151.290066">
  <ele>343.23</ele>
  <time>2026-09-01T19:54:57Z</time>
  <course>13.63</course>
  <speed>0.022360679774997897</speed>
  <fix>3d</fix>
</trkpt>
<trkpt lat="-27.2744125" lon="151.2900659">
  <ele>343.09</ele>
  <time>2026-09-01T19:54:57Z</time>
  <course>12.62</course>
  <speed>0.0</speed>
  <fix>3d</fix>
</trkpt>
<trkpt lat="-27.2744127" lon="151.290066">
  <ele>343.23</ele>
  <time>2026-09-01T19:54:57Z</time>
  <course>13.64</course>
  <speed>0.022360679774997897</speed>
  <fix>3d</fix>
</trkpt>
<trkpt lat="-27.2744125" lon="151.2900659">
  <ele>343.09</ele>
  <time>2026-09-01T19:54:57Z</time>
  <course>12.62</course>
  <speed>0.0</speed>
  <fix>3d</fix>
</trkpt>
<trkpt lat="-27.2744127" lon="151.290066">
  <ele>343.23</ele>
  <time>2026-09-01T19:54:57Z</time>
  <course>13.64</course>
  <speed>0.022360679774997897</speed>
  <fix>3d</fix>
</trkpt>
<trkpt lat="-27.2744125" lon="151.2900659">
  <ele>343.09</ele>
  <time>2026-09-01T19:54:57Z</time>
  <course>12.62</course>
  <speed>0.0</speed>
  <fix>3d</fix>
</trkpt>
<trkpt lat="-27.2744127" lon="151.290066">
  <ele>343.23</ele>
  <time>2026-09-01T19:54:57Z</time>
  <course>13.65</course>
  <speed>0.022360679774997897</speed>
  <fix>3d</fix>
</trkpt>
<trkpt lat="-27.2744125" lon="151.2900659">
  <ele>343.09</ele>
  <time>2026-09-01T19:54:57Z</time>
  <course>12.62</course>
  <speed>0.0</speed>
  <fix>3d</fix>
</trkpt>
<trkpt lat="-27.2744127" lon="151.290066">
  <ele>343.23</ele>
  <time>2026-09-01T19:54:57Z</time>
  <course>13.65</course>
  <speed>0.022360679774997897</speed>
  <fix>3d</fix>
</trkpt>
<trkpt lat="-27.2744125" lon="151.2900659">
  <ele>343.09</ele>
  <time>2026-09-01T19:54:57Z</time>
  <course>12.62</course>
  <speed>0.0</speed>
  <fix>3d</fix>
</trkpt>
<trkpt lat="-27.2744127" lon="151.290066">
  <ele>343.23</ele>
  <time>2026-09-01T19:54:57Z</time>
  <course>13.66</course>
  <speed>0.022360679774997897</speed>
  <fix>3d</fix>
</trkpt>
<trkpt lat="-27.2744125" lon="151.2900659">
  <ele>343.09</ele>
  <time>2026-09-01T19:54:57Z</time>
  <course>12.62</course>
  <speed>0.0</speed>
  <fix>3d</fix>
</trkpt>
<trkpt lat="-27.2744127" lon="151.290066">
  <ele>343.09</ele>
  <time>2026-09-01T19:54:57Z</time>
  <course>13.66</course>
  <speed>0.022360679774997897</speed>
  <fix>3d</fix>
</trkpt>
<trkpt lat="-27.2744125" lon="151.2900659">
  <ele>343.09</ele>
  <time>2026-09-01T19:54:57Z</time>
  <course>12.62</course>
  <speed>0.0</speed>
  <fix>3d</fix>
</trkpt>
<trkpt lat="-27.2744127" lon="151.290066">
  <ele>343.09</ele>
  <time>2026-09-01T19:54:57Z</time>
  <course>13.66</course>
  <speed>0.022360679774997897</speed>
  <fix>3d</fix>
</trkpt>
<trkpt lat="-27.2744125" lon="151.2900659">
  <ele>343.09</ele>
  <time>2026-09-01T19:54:57Z</time>
  <course>12.62</course>
  <speed>0.0</speed>
  <fix>3d</fix>
</trkpt>
<trkpt lat="-27.2744127" lon="151.290066">
  <ele>343.09</ele>
  <time>2026-09-01T19:54:57Z</time>
  <course>13.67</course>
  <speed>0.022360679774997897</speed>
  <fix>3d</fix>
</trkpt>
<trkpt lat="-27.2744125" lon="151.2900659">
  <ele>343.09</ele>
  <time>2026-09-01T19:54:57Z</time>
  <course>12.62</course>
  <speed>0.0</speed>
  <fix>3d</fix>
</trkpt>
<trkpt lat="-27.2744127" lon="151.290066">
  <ele>343.09</ele>
  <time>2026-09-01T19:54:57Z</time>
  <course>13.67</course>
  <speed>0.022360679774997897</speed>
  <fix>3d</fix>
</trkpt>
<trkpt lat="-27.2744125" lon="151.2900659">
  <ele>343.09</ele>
  <time>2026-09-01T19:54:57Z</time>
  <course>12.62</course>
  <speed>0.0</speed>
  <fix>3d</fix>
</trkpt>
<trkpt lat="-27.2744127" lon="151.290066">
  <ele>343.09</ele>
  <time>2026-09-01T19:54:57Z</time>
  <course>13.68</course>
  <speed>0.022360679774997897</speed>
  <fix>3d</fix>
</trkpt>
<trkpt lat="-27.2744125" lon="151.2900659">
  <ele>343.09</ele>
  <time>2026-09-01T19:54:57Z</time>
  <course>12.62</course>
  <speed>0.0</speed>
  <fix>3d</fix>
</trkpt>
<trkpt lat="-27.2744127" lon="151.290066">
  <ele>343.09</ele>
  <time>2026-09-01T19:54:57Z</time>
  <course>13.68</course>
  <speed>0.022360679774997897</speed>
  <fix>3d</fix>
</trkpt>
<trkpt lat="-27.2744125" lon="151.2900659">
  <ele>343.09</ele>
  <time>2026-09-01T19:54:57Z</time>
  <course>12.62</course>
  <speed>0.0</speed>
  <fix>3d</fix>
</trkpt>
<trkpt lat="-27.2744127" lon="151.290066">
  <ele>343.08</ele>
  <time>2026-09-01T19:54:57Z</time>
  <course>13.68</course>
  <speed>0.022360679774997897</speed>
  <fix>3d</fix>
</trkpt>
<trkpt lat="-27.2744125" lon="151.2900659">
  <ele>343.09</ele>
  <time>2026-09-01T19:54:57Z</time>
  <course>12.62</course>
  <speed>0.0</speed>
  <fix>3d</fix>
</trkpt>
<trkpt lat="-27.2744127" lon="151.290066">
  <ele>343.08</ele>
  <time>2026-09-01T19:54:57Z</time>
  <course>13.69</course>
  <speed>0.022360679774997897</speed>
  <fix>3d</fix>
</trkpt>
<trkpt lat="-27.2744125" lon="151.2900659">
  <ele>343.09</ele>
  <time>2026-09-01T19:54:57Z</time>
  <course>12.62</course>
  <speed>0.0</speed>
  <fix>3d</fix>
</trkpt>
<trkpt lat="-27.2744127" lon="151.290066">
  <ele>343.08</ele>
  <time>2026-09-01T19:54:57Z</time>
  <course>13.69</course>
  <speed>0.022360679774997897</speed>
  <fix>3d</fix>
</trkpt>
<trkpt lat="-27.2744125" lon="151.2900659">
  <ele>343.09</ele>
  <time>2026-09-01T19:54:57Z</time>
  <course>12.62</course>
  <speed>0.0</speed>
  <fix>3d</fix>
</trkpt>
<trkpt lat="-27.2744127" lon="151.290066">
  <ele>343.08</ele>
  <time>2026-09-01T19:54:57Z</time>
  <course>13.7</course>
  <speed>0.022360679774997897</speed>
  <fix>3d</fix>
</trkpt>
<trkpt lat="-27.2744125" lon="151.2900659">
  <ele>343.09</ele>
  <time>2026-09-01T19:54:57Z</time>
  <course>12.62</course>
  <speed>0.0</speed>
  <fix>3d</fix>
</trkpt>
<trkpt lat="-27.2744127" lon="151.290066">
  <ele>343.08</ele>
  <time>2026-09-01T19:54:57Z</time>
  <course>13.7</course>
  <speed>0.022360679774997897</speed>
  <fix>3d</fix>
</trkpt>
<trkpt lat="-27.2744125" lon="151.2900659">
  <ele>343.09</ele>
  <time>2026-09-01T19:54:57Z</time>
  <course>12.62</course>
  <speed>0.0</speed>
  <fix>3d</fix>
</trkpt>
<trkpt lat="-27.2744127" lon="151.290066">
  <ele>343.09</ele>
  <time>2026-09-01T19:54:57Z</time>
  <course>13.71</course>
  <speed>0.022360679774997897</speed>
  <fix>3d</fix>
</trkpt>
<trkpt lat="-27.2744125" lon="151.2900659">
  <ele>343.09</ele>
  <time>2026-09-01T19:54:57Z</time>
  <course>12.62</course>
  <speed>0.0</speed>
  <fix>3d</fix>
</trkpt>
<trkpt lat="-27.2744127" lon="151.290066">
  <ele>343.09</ele>
  <time>2026-09-01T19:54:57Z</time>
  <course>13.71</course>
  <speed>0.022360679774997897</speed>
  <fix>3d</fix>
</trkpt>
<trkpt lat="-27.2744125" lon="151.2900659">
  <ele>343.09</ele>
  <time>2026-09-01T19:54:57Z</time>
  <course>12.62</course>
  <speed>0.0</speed>
  <fix>3d</fix>
</trkpt>
<trkpt lat="-27.2744127" lon="151.290066">
  <ele>343.09</ele>
  <time>2026-09-01T19:54:57Z</time>
  <course>13.71</course>
  <speed>0.022360679774997897</speed>
  <fix>3d</fix>
</trkpt>
<trkpt lat="-27.2744125" lon="151.2900659">
  <ele>343.09</ele>
  <time>2026-09-01T19:54:57Z</time>
  <course>12.62</course>
  <speed>0.0</speed>
  <fix>3d</fix>
</trkpt>
<trkpt lat="-27.2744127" lon="151.290066">
  <ele>343.09</ele>
  <time>2026-09-01T19:54:57Z</time>
  <course>13.72</course>
  <speed>0.022360679774997897</speed>
  <fix>3d</fix>
</trkpt>
<trkpt lat="-27.2744125" lon="151.2900659">
  <ele>343.09</ele>
  <time>2026-09-01T19:54:57Z</time>
  <course>12.62</course>
  <speed>0.0</speed>
  <fix>3d</fix>
</trkpt>
<trkpt lat="-27.2744127" lon="151.290066">
  <ele>343.09</ele>
  <time>2026-09-01T19:54:57Z</time>
  <course>13.72</course>
  <speed>0.022360679774997897</speed>
  <fix>3d</fix>
</trkpt>
<trkpt lat="-27.2744125" lon="151.2900659">
  <ele>343.09</ele>
  <time>2026-09-01T19:54:57Z</time>
  <course>12.62</course>
  <speed>0.0</speed>
  <fix>3d</fix>
</trkpt>
<trkpt lat="-27.2744127" lon="151.290066">
  <ele>343.09</ele>
  <time>2026-09-01T19:54:57Z</time>
  <course>13.73</course>
  <speed>0.022360679774997897</speed>
  <fix>3d</fix>
</trkpt>
<trkpt lat="-27.2744125" lon="151.2900659">
  <ele>343.09</ele>
  <time>2026-09-01T19:54:57Z</time>
  <course>12.62</course>
  <speed>0.0</speed>
  <fix>3d</fix>
</trkpt>
<trkpt lat="-27.2744127" lon="151.290066">
  <ele>343.09</ele>
  <time>2026-09-01T19:54:57Z</time>
  <course>13.73</course>
  <speed>0.022360679774997897</speed>
  <fix>3d</fix>
</trkpt>
<trkpt lat="-27.2744125" lon="151.2900659">
  <ele>343.09</ele>
  <time>2026-09-01T19:54:57Z</time>
  <course>12.62</course>
  <speed>0.0</speed>
  <fix>3d</fix>
</trkpt>
<trkpt lat="-27.2744127" lon="151.290066">
  <ele>343.09</ele>
  <time>2026-09-01T19:54:57Z</time>
  <course>13.73</course>
  <speed>0.022360679774997897</speed>
  <fix>3d</fix>
</trkpt>
<trkpt lat="-27.2744125" lon="151.2900659">
  <ele>343.09</ele>
  <time>2026-09-01T19:54:57Z</time>
  <course>12.62</course>
  <speed>0.0</speed>
  <fix>3d</fix>
</trkpt>
<trkpt lat="-27.2744127" lon="151.290066">
  <ele>343.1</ele>
  <time>2026-09-01T19:54:57Z</time>
  <course>13.74</course>
  <speed>0.022360679774997897</speed>
  <fix>3d</fix>
</trkpt>
<trkpt lat="-27.2744125" lon="151.2900659">
  <ele>343.09</ele>
  <time>2026-09-01T19:54:57Z</time>
  <course>12.62</course>
  <speed>0.0</speed>
  <fix>3d</fix>
</trkpt>
<trkpt lat="-27.2744127" lon="151.290066">
  <ele>343.1</ele>
  <time>2026-09-01T19:54:57Z</time>
  <course>13.74</course>
  <speed>0.022360679774997897</speed>
  <fix>3d</fix>
</trkpt>
<trkpt lat="-27.2744125" lon="151.2900659">
  <ele>343.09</ele>
  <time>2026-09-01T19:54:57Z</time>
  <course>12.62</course>
  <speed>0.0</speed>
  <fix>3d</fix>
</trkpt>
<trkpt lat="-27.2744127" lon="151.290066">
  <ele>343.1</ele>
  <time>2026-09-01T19:54:57Z</time>
  <course>13.75</course>
  <speed>0.022360679774997897</speed>
  <fix>3d</fix>
</trkpt>
<trkpt lat="-27.2744125" lon="151.2900659">
  <ele>343.09</ele>
  <time>2026-09-01T19:54:57Z</time>
  <course>12.62</course>
  <speed>0.0</speed>
  <fix>3d</fix>
</trkpt>
<trkpt lat="-27.2744127" lon="151.290066">
  <ele>343.1</ele>
  <time>2026-09-01T19:54:57Z</time>
  <course>13.75</course>
  <speed>0.022360679774997897</speed>
  <fix>3d</fix>
</trkpt>
<trkpt lat="-27.2744125" lon="151.2900659">
  <ele>343.09</ele>
  <time>2026-09-01T19:54:57Z</time>
  <course>12.62</course>
  <speed>0.0</speed>
  <fix>3d</fix>
</trkpt>
<trkpt lat="-27.2744127" lon="151.290066">
  <ele>343.1</ele>
  <time>2026-09-01T19:54:57Z</time>
  <course>13.75</course>
  <speed>0.022360679774997897</speed>
  <fix>3d</fix>
</trkpt>
<trkpt lat="-27.2744125" lon="151.2900659">
  <ele>343.09</ele>
  <time>2026-09-01T19:54:57Z</time>
  <course>12.62</course>
  <speed>0.0</speed>
  <fix>3d</fix>
</trkpt>
<trkpt lat="-27.2744127" lon="151.290066">
  <ele>343.09</ele>
  <time>2026-09-01T19:54:57Z</time>
  <course>13.76</course>
  <speed>0.022360679774997897</speed>
  <fix>3d</fix>
</trkpt>
<trkpt lat="-27.2744125" lon="151.2900659">
  <ele>343.09</ele>
  <time>2026-09-01T19:54:57Z</time>
  <course>12.62</course>
  <speed>0.0</speed>
  <fix>3d</fix>
</trkpt>
<trkpt lat="-27.2744127" lon="151.290066">
  <ele>343.09</ele>
  <time>2026-09-01T19:54:57Z</time>
  <course>13.76</course>
  <speed>0.022360679774997897</speed>
  <fix>3d</fix>
</trkpt>
<trkpt lat="-27.2744125" lon="151.2900659">
  <ele>343.09</ele>
  <time>2026-09-01T19:54:57Z</time>
  <course>12.62</course>
  <speed>0.0</speed>
  <fix>3d</fix>
</trkpt>
<trkpt lat="-27.2744127" lon="151.290066">
  <ele>343.09</ele>
  <time>2026-09-01T19:54:57Z</time>
  <course>13.77</course>
  <speed>0.022360679774997897</speed>
  <fix>3d</fix>
</trkpt>
<trkpt lat="-27.2744125" lon="151.2900659">
  <ele>343.09</ele>
  <time>2026-09-01T19:54:57Z</time>
  <course>12.62</course>
  <speed>0.0</speed>
  <fix>3d</fix>
</trkpt>
<trkpt lat="-27.2744127" lon="151.290066">
  <ele>343.08</ele>
  <time>2026-09-01T19:54:57Z</time>
  <course>13.77</course>
  <speed>0.022360679774997897</speed>
  <fix>3d</fix>
</trkpt>
<trkpt lat="-27.2744125" lon="151.2900659">
  <ele>343.09</ele>
  <time>2026-09-01T19:54:57Z</time>
  <course>12.62</course>
  <speed>0.0</speed>
  <fix>3d</fix>
</trkpt>
<trkpt lat="-27.2744127" lon="151.290066">
  <ele>343.08</ele>
  <time>2026-09-01T19:54:57Z</time>
  <course>13.77</course>
  <speed>0.022360679774997897</speed>
  <fix>3d</fix>
</trkpt>
<trkpt lat="-27.2744125" lon="151.2900659">
  <ele>343.09</ele>
  <time>2026-09-01T19:54:57Z</time>
  <course>12.62</course>
  <speed>0.0</speed>
  <fix>3d</fix>
</trkpt>
<trkpt lat="-27.2744127" lon="151.290066">
  <ele>343.08</ele>
  <time>2026-09-01T19:54:57Z</time>
  <course>13.78</course>
  <speed>0.022360679774997897</speed>
  <fix>3d</fix>
</trkpt>
<trkpt lat="-27.2744125" lon="151.2900659">
  <ele>343.09</ele>
  <time>2026-09-01T19:54:57Z</time>
  <course>12.62</course>
  <speed>0.0</speed>
  <fix>3d</fix>
</trkpt>
<trkpt lat="-27.2744127" lon="151.290066">
  <ele>343.08</ele>
  <time>2026-09-01T19:54:57Z</time>
  <course>13.78</course>
  <speed>0.022360679774997897</speed>
  <fix>3d</fix>
</trkpt>
<trkpt lat="-27.2744125" lon="151.2900659">
  <ele>343.09</ele>
  <time>2026-09-01T19:54:57Z</time>
  <course>12.62</course>
  <speed>0.0</speed>
  <fix>3d</fix>
</trkpt>
<trkpt lat="-27.2744127" lon="151.290066">
  <ele>343.08</ele>
  <time>2026-09-01T19:54:57Z</time>
  <course>13.79</course>
  <speed>0.022360679774997897</speed>
  <fix>3d</fix>
</trkpt>
<trkpt lat="-27.2744125" lon="151.2900659">
  <ele>343.09</ele>
  <time>2026-09-01T19:54:57Z</time>
  <course>12.62</course>
  <speed>0.0</speed>
  <fix>3d</fix>
</trkpt>
<trkpt lat="-27.2744127" lon="151.290066">
  <ele>343.08</ele>
  <time>2026-09-01T19:54:57Z</time>
  <course>13.79</course>
  <speed>0.022360679774997897</speed>
  <fix>3d</fix>
</trkpt>
<trkpt lat="-27.2744125" lon="151.2900659">
  <ele>343.09</ele>
  <time>2026-09-01T19:54:57Z</time>
  <course>12.62</course>
  <speed>0.0</speed>
  <fix>3d</fix>
</trkpt>
<trkpt lat="-27.2744127" lon="151.290066">
  <ele>343.07</ele>
  <time>2026-09-01T19:54:57Z</time>
  <course>13.79</course>
  <speed>0.022360679774997897</speed>
  <fix>3d</fix>
</trkpt>
<trkpt lat="-27.2744125" lon="151.2900659">
  <ele>343.09</ele>
  <time>2026-09-01T19:54:57Z</time>
  <course>12.62</course>
  <speed>0.0</speed>
  <fix>3d</fix>
</trkpt>
<trkpt lat="-27.2744127" lon="151.290066">
  <ele>343.07</ele>
  <time>2026-09-01T19:54:57Z</time>
  <course>13.8</course>
  <speed>0.022360679774997897</speed>
  <fix>3d</fix>
</trkpt>
<trkpt lat="-27.2744125" lon="151.2900659">
  <ele>343.09</ele>
  <time>2026-09-01T19:54:57Z</time>
  <course>12.62</course>
  <speed>0.0</speed>
  <fix>3d</fix>
</trkpt>
<trkpt lat="-27.2744127" lon="151.290066">
  <ele>343.07</ele>
  <time>2026-09-01T19:54:57Z</time>
  <course>13.8</course>
  <speed>0.022360679774997897</speed>
  <fix>3d</fix>
</trkpt>
<trkpt lat="-27.2744125" lon="151.2900659">
  <ele>343.09</ele>
  <time>2026-09-01T19:54:57Z</time>
  <course>12.62</course>
  <speed>0.0</speed>
  <fix>3d</fix>
</trkpt>
<trkpt lat="-27.2744127" lon="151.290066">
  <ele>343.07</ele>
  <time>2026-09-01T19:54:57Z</time>
  <course>13.81</course>
  <speed>0.022360679774997897</speed>
  <fix>3d</fix>
</trkpt>
<trkpt lat="-27.2744125" lon="151.2900659">
  <ele>343.09</ele>
  <time>2026-09-01T19:54:57Z</time>
  <course>12.62</course>
  <speed>0.0</speed>
  <fix>3d</fix>
</trkpt>
<trkpt lat="-27.2744127" lon="151.290066">
  <ele>343.07</ele>
  <time>2026-09-01T19:54:57Z</time>
  <course>13.81</course>
  <speed>0.022360679774997897</speed>
  <fix>3d</fix>
</trkpt>
<trkpt lat="-27.2744125" lon="151.2900659">
  <ele>343.09</ele>
  <time>2026-09-01T19:54:57Z</time>
  <course>12.62</course>
  <speed>0.0</speed>
  <fix>3d</fix>
</trkpt>
<trkpt lat="-27.2744127" lon="151.290066">
  <ele>343.07</ele>
  <time>2026-09-01T19:54:57Z</time>
  <course>13.81</course>
  <speed>0.022360679774997897</speed>
  <fix>3d</fix>
</trkpt>
<trkpt lat="-27.2744125" lon="151.2900659">
  <ele>343.09</ele>
  <time>2026-09-01T19:54:57Z</time>
  <course>12.62</course>
  <speed>0.0</speed>
  <fix>3d</fix>
</trkpt>
<trkpt lat="-27.2744127" lon="151.290066">
  <ele>343.07</ele>
  <time>2026-09-01T19:54:57Z</time>
  <course>13.82</course>
  <speed>0.022360679774997897</speed>
  <fix>3d</fix>
</trkpt>
<trkpt lat="-27.2744125" lon="151.2900659">
  <ele>343.09</ele>
  <time>2026-09-01T19:54:57Z</time>
  <course>12.62</course>
  <speed>0.0</speed>
  <fix>3d</fix>
</trkpt>
<trkpt lat="-27.2744127" lon="151.290066">
  <ele>343.07</ele>
  <time>2026-09-01T19:54:57Z</time>
  <course>13.82</course>
  <speed>0.022360679774997897</speed>
  <fix>3d</fix>
</trkpt>
<trkpt lat="-27.2744125" lon="151.2900659">
  <ele>343.09</ele>
  <time>2026-09-01T19:54:57Z</time>
  <course>12.62</course>
  <speed>0.0</speed>
  <fix>3d</fix>
</trkpt>
<trkpt lat="-27.2744127" lon="151.290066">
  <ele>343.06</ele>
  <time>2026-09-01T19:54:57Z</time>
  <course>13.83</course>
  <speed>0.022360679774997897</speed>
  <fix>3d</fix>
</trkpt>
<trkpt lat="-27.2744125" lon="151.2900659">
  <ele>343.09</ele>
  <time>2026-09-01T19:54:57Z</time>
  <course>12.62</course>
  <speed>0.0</speed>
  <fix>3d</fix>
</trkpt>
<trkpt lat="-27.2744127" lon="151.290066">
  <ele>343.06</ele>
  <time>2026-09-01T19:54:57Z</time>
  <course>13.83</course>
  <speed>0.022360679774997897</speed>
  <fix>3d</fix>
</trkpt>
<trkpt lat="-27.2744125" lon="151.2900659">
  <ele>343.09</ele>
  <time>2026-09-01T19:54:57Z</time>
  <course>12.62</course>
  <speed>0.0</speed>
  <fix>3d</fix>
</trkpt>
<trkpt lat="-27.2744127" lon="151.290066">
  <ele>343.06</ele>
  <time>2026-09-01T19:54:57Z</time>
  <course>13.83</course>
  <speed>0.022360679774997897</speed>
  <fix>3d</fix>
</trkpt>
<trkpt lat="-27.2744125" lon="151.2900659">
  <ele>343.09</ele>
  <time>2026-09-01T19:54:57Z</time>
  <course>12.62</course>
  <speed>0.0</speed>
  <fix>3d</fix>
</trkpt>
<trkpt lat="-27.2744127" lon="151.290066">
  <ele>343.06</ele>
  <time>2026-09-01T19:54:57Z</time>
  <course>13.84</course>
  <speed>0.022360679774997897</speed>
  <fix>3d</fix>
</trkpt>
<trkpt lat="-27.2744125" lon="151.2900659">
  <ele>343.09</ele>
  <time>2026-09-01T19:54:57Z</time>
  <course>12.62</course>
  <speed>0.0</speed>
  <fix>3d</fix>
</trkpt>
<trkpt lat="-27.2744127" lon="151.290066">
  <ele>343.06</ele>
  <time>2026-09-01T19:54:57Z</time>
  <course>13.84</course>
  <speed>0.022360679774997897</speed>
  <fix>3d</fix>
</trkpt>
<trkpt lat="-27.2744125" lon="151.2900659">
  <ele>343.09</ele>
  <time>2026-09-01T19:54:57Z</time>
  <course>12.62</course>
  <speed>0.0</speed>
  <fix>3d</fix>
</trkpt>
<trkpt lat="-27.2744127" lon="151.290066">
  <ele>343.06</ele>
  <time>2026-09-01T19:54:57Z</time>
  <course>13.84</course>
  <speed>0.022360679774997897</speed>
  <fix>3d</fix>
</trkpt>
<trkpt lat="-27.2744125" lon="151.2900659">
  <ele>343.09</ele>
  <time>2026-09-01T19:54:57Z</time>
  <course>12.62</course>
  <speed>0.0</speed>
  <fix>3d</fix>
</trkpt>
<trkpt lat="-27.2744127" lon="151.290066">
  <ele>343.06</ele>
  <time>2026-09-01T19:54:57Z</time>
  <course>13.85</course>
  <speed>0.022360679774997897</speed>
  <fix>3d</fix>
</trkpt>
<trkpt lat="-27.2744125" lon="151.2900659">
  <ele>343.09</ele>
  <time>2026-09-01T19:54:57Z</time>
  <course>12.62</course>
  <speed>0.0</speed>
  <fix>3d</fix>
</trkpt>
<trkpt lat="-27.2744127" lon="151.290066">
  <ele>343.06</ele>
  <time>2026-09-01T19:54:57Z</time>
  <course>13.85</course>
  <speed>0.022360679774997897</speed>
  <fix>3d</fix>
</trkpt>
<trkpt lat="-27.2744125" lon="151.2900659">
  <ele>343.09</ele>
  <time>2026-09-01T19:54:57Z</time>
  <course>12.62</course>
  <speed>0.0</speed>
  <fix>3d</fix>
</trkpt>
<trkpt lat="-27.2744127" lon="151.290066">
  <ele>343.06</ele>
  <time>2026-09-01T19:54:57Z</time>
  <course>13.86</course>
  <speed>0.022360679774997897</speed>
  <fix>3d</fix>
</trkpt>
<trkpt lat="-27.2744125" lon="151.2900659">
  <ele>343.09</ele>
  <time>2026-09-01T19:54:57Z</time>
  <course>12.62</course>
  <speed>0.0</speed>
  <fix>3d</fix>
</trkpt>
<trkpt lat="-27.2744127" lon="151.290066">
  <ele>343.06</ele>
  <time>2026-09-01T19:54:57Z</time>
  <course>13.86</course>
  <speed>0.022360679774997897</speed>
  <fix>3d</fix>
</trkpt>
<trkpt lat="-27.2744125" lon="151.2900659">
  <ele>343.09</ele>
  <time>2026-09-01T19:54:57Z</time>
  <course>12.62</course>
  <speed>0.0</speed>
  <fix>3d</fix>
</trkpt>
<trkpt lat="-27.2744127" lon="151.290066">
  <ele>343.06</ele>
  <time>2026-09-01T19:54:57Z</time>
  <course>13.86</course>
  <speed>0.022360679774997897</speed>
  <fix>3d</fix>
</trkpt>
<trkpt lat="-27.2744125" lon="151.2900659">
  <ele>343.09</ele>
  <time>2026-09-01T19:54:57Z</time>
  <course>12.62</course>
  <speed>0.0</speed>
  <fix>3d</fix>
</trkpt>
<trkpt lat="-27.2744127" lon="151.290066">
  <ele>343.06</ele>
  <time>2026-09-01T19:54:57Z</time>
  <course>13.87</course>
  <speed>0.022360679774997897</speed>
  <fix>3d</fix>
</trkpt>
<trkpt lat="-27.2744125" lon="151.2900659">
  <ele>343.09</ele>
  <time>2026-09-01T19:54:57Z</time>
  <course>12.62</course>
  <speed>0.0</speed>
  <fix>3d</fix>
</trkpt>
<trkpt lat="-27.2744127" lon="151.290066">
  <ele>343.06</ele>
  <time>2026-09-01T19:54:57Z</time>
  <course>13.87</course>
  <speed>0.022360679774997897</speed>
  <fix>3d</fix>
</trkpt>
<trkpt lat="-27.2744125" lon="151.2900659">
  <ele>343.09</ele>
  <time>2026-09-01T19:54:57Z</time>
  <course>12.62</course>
  <speed>0.0</speed>
  <fix>3d</fix>
</trkpt>
<trkpt lat="-27.2744127" lon="151.290066">
  <ele>343.06</ele>
  <time>2026-09-01T19:54:57Z</time>
  <course>13.87</course>
  <speed>0.022360679774997897</speed>
  <fix>3d</fix>
</trkpt>
<trkpt lat="-27.2744125" lon="151.2900659">
  <ele>343.09</ele>
  <time>2026-09-01T19:54:57Z</time>
  <course>12.62</course>
  <speed>0.0</speed>
  <fix>3d</fix>
</trkpt>
<trkpt lat="-27.2744127" lon="151.290066">
  <ele>343.06</ele>
  <time>2026-09-01T19:54:57Z</time>
  <course>13.88</course>
  <speed>0.022360679774997897</speed>
  <fix>3d</fix>
</trkpt>
<trkpt lat="-27.2744125" lon="151.2900659">
  <ele>343.09</ele>
  <time>2026-09-01T19:54:57Z</time>
  <course>12.62</course>
  <speed>0.0</speed>
  <fix>3d</fix>
</trkpt>
<trkpt lat="-27.2744127" lon="151.290066">
  <ele>343.05</ele>
  <time>2026-09-01T19:54:57Z</time>
  <course>13.88</course>
  <speed>0.022360679774997897</speed>
  <fix>3d</fix>
</trkpt>
<trkpt lat="-27.2744125" lon="151.2900659">
  <ele>343.09</ele>
  <time>2026-09-01T19:54:57Z</time>
  <course>12.62</course>
  <speed>0.0</speed>
  <fix>3d</fix>
</trkpt>
<trkpt lat="-27.2744127" lon="151.290066">
  <ele>343.05</ele>
  <time>2026-09-01T19:54:57Z</time>
  <course>13.89</course>
  <speed>0.022360679774997897</speed>
  <fix>3d</fix>
</trkpt>
<trkpt lat="-27.2744125" lon="151.2900659">
  <ele>343.09</ele>
  <time>2026-09-01T19:54:57Z</time>
  <course>12.62</course>
  <speed>0.0</speed>
  <fix>3d</fix>
</trkpt>
<trkpt lat="-27.2744127" lon="151.290066">
  <ele>343.05</ele>
  <time>2026-09-01T19:54:57Z</time>
  <course>13.89</course>
  <speed>0.022360679774997897</speed>
  <fix>3d</fix>
</trkpt>
<trkpt lat="-27.2744125" lon="151.2900659">
  <ele>343.09</ele>
  <time>2026-09-01T19:54:57Z</time>
  <course>12.62</course>
  <speed>0.0</speed>
  <fix>3d</fix>
</trkpt>
<trkpt lat="-27.2744127" lon="151.290066">
  <ele>343.05</ele>
  <time>2026-09-01T19:54:57Z</time>
  <course>13.89</course>
  <speed>0.022360679774997897</speed>
  <fix>3d</fix>
</trkpt>
<trkpt lat="-27.2744125" lon="151.2900659">
  <ele>343.09</ele>
  <time>2026-09-01T19:54:57Z</time>
  <course>12.62</course>
  <speed>0.0</speed>
  <fix>3d</fix>
</trkpt>
<trkpt lat="-27.2744127" lon="151.290066">
  <ele>343.08</ele>
  <time>2026-09-01T19:54:57Z</time>
  <course>13.9</course>
  <speed>0.022360679774997897</speed>
  <fix>3d</fix>
</trkpt>
<trkpt lat="-27.2744125" lon="151.2900659">
  <ele>343.09</ele>
  <time>2026-09-01T19:54:57Z</time>
  <course>12.62</course>
  <speed>0.0</speed>
  <fix>3d</fix>
</trkpt>
<trkpt lat="-27.2744127" lon="151.290066">
  <ele>343.08</ele>
  <time>2026-09-01T19:54:57Z</time>
  <course>13.9</course>
  <speed>0.022360679774997897</speed>
  <fix>3d</fix>
</trkpt>
<trkpt lat="-27.2744125" lon="151.2900659">
  <ele>343.09</ele>
  <time>2026-09-01T19:54:57Z</time>
  <course>12.62</course>
  <speed>0.0</speed>
  <fix>3d</fix>
</trkpt>
<trkpt lat="-27.2744127" lon="151.290066">
  <ele>343.08</ele>
  <time>2026-09-01T19:54:57Z</time>
  <course>13.9</course>
  <speed>0.022360679774997897</speed>
  <fix>3d</fix>
</trkpt>
<trkpt lat="-27.2744125" lon="151.2900659">
  <ele>343.09</ele>
  <time>2026-09-01T19:54:57Z</time>
  <course>12.62</course>
  <speed>0.0</speed>
  <fix>3d</fix>
</trkpt>
<trkpt lat="-27.2744127" lon="151.290066">
  <ele>343.09</ele>
  <time>2026-09-01T19:54:57Z</time>
  <course>13.91</course>
  <speed>0.022360679774997897</speed>
  <fix>3d</fix>
</trkpt>
<trkpt lat="-27.2744125" lon="151.2900659">
  <ele>343.09</ele>
  <time>2026-09-01T19:54:57Z</time>
  <course>12.62</course>
  <speed>0.0</speed>
  <fix>3d</fix>
</trkpt>
<trkpt lat="-27.2744127" lon="151.290066">
  <ele>343.09</ele>
  <time>2026-09-01T19:54:57Z</time>
  <course>13.91</course>
  <speed>0.022360679774997897</speed>
  <fix>3d</fix>
</trkpt>
<trkpt lat="-27.2744125" lon="151.2900659">
  <ele>343.09</ele>
  <time>2026-09-01T19:54:57Z</time>
  <course>12.62</course>
  <speed>0.0</speed>
  <fix>3d</fix>
</trkpt>
<trkpt lat="-27.2744127" lon="151.290066">
  <ele>343.1</ele>
  <time>2026-09-01T19:54:57Z</time>
  <course>13.91</course>
  <speed>0.022360679774997897</speed>
  <fix>3d</fix>
</trkpt>
<trkpt lat="-27.2744125" lon="151.2900659">
  <ele>343.09</ele>
  <time>2026-09-01T19:54:57Z</time>
  <course>12.62</course>
  <speed>0.0</speed>
  <fix>3d</fix>
</trkpt>
<trkpt lat="-27.2744127" lon="151.290066">
  <ele>343.1</ele>
  <time>2026-09-01T19:54:57Z</time>
  <course>13.92</course>
  <speed>0.022360679774997897</speed>
  <fix>3d</fix>
</trkpt>
<trkpt lat="-27.2744125" lon="151.2900659">
  <ele>343.09</ele>
  <time>2026-09-01T19:54:57Z</time>
  <course>12.62</course>
  <speed>0.0</speed>
  <fix>3d</fix>
</trkpt>
<trkpt lat="-27.2744127" lon="151.290066">
  <ele>343.1</ele>
  <time>2026-09-01T19:54:57Z</time>
  <course>13.92</course>
  <speed>0.022360679774997897</speed>
  <fix>3d</fix>
</trkpt>
<trkpt lat="-27.2744125" lon="151.2900659">
  <ele>343.09</ele>
  <time>2026-09-01T19:54:57Z</time>
  <course>12.62</course>
  <speed>0.0</speed>
  <fix>3d</fix>
</trkpt>
<trkpt lat="-27.2744127" lon="151.290066">
  <ele>343.11</ele>
  <time>2026-09-01T19:54:57Z</time>
  <course>13.93</course>
  <speed>0.022360679774997897</speed>
  <fix>3d</fix>
</trkpt>
<trkpt lat="-27.2744125" lon="151.2900659">
  <ele>343.09</ele>
  <time>2026-09-01T19:54:57Z</time>
  <course>12.62</course>
  <speed>0.0</speed>
  <fix>3d</fix>
</trkpt>
<trkpt lat="-27.2744127" lon="151.290066">
  <ele>343.11</ele>
  <time>2026-09-01T19:54:57Z</time>
  <course>13.93</course>
  <speed>0.022360679774997897</speed>
  <fix>3d</fix>
</trkpt>
<trkpt lat="-27.2744125" lon="151.2900659">
  <ele>343.09</ele>
  <time>2026-09-01T19:54:57Z</time>
  <course>12.62</course>
  <speed>0.0</speed>
  <fix>3d</fix>
</trkpt>
<trkpt lat="-27.2744127" lon="151.290066">
  <ele>343.11</ele>
  <time>2026-09-01T19:54:57Z</time>
  <course>13.93</course>
  <speed>0.022360679774997897</speed>
  <fix>3d</fix>
</trkpt>
<trkpt lat="-27.2744125" lon="151.2900659">
  <ele>343.09</ele>
  <time>2026-09-01T19:54:57Z</time>
  <course>12.62</course>
  <speed>0.0</speed>
  <fix>3d</fix>
</trkpt>
<trkpt lat="-27.2744127" lon="151.290066">
  <ele>343.11</ele>
  <time>2026-09-01T19:54:57Z</time>
  <course>13.94</course>
  <speed>0.022360679774997897</speed>
  <fix>3d</fix>
</trkpt>
<trkpt lat="-27.2744125" lon="151.2900659">
  <ele>343.09</ele>
  <time>2026-09-01T19:54:57Z</time>
  <course>12.62</course>
  <speed>0.0</speed>
  <fix>3d</fix>
</trkpt>
<trkpt lat="-27.2744127" lon="151.290066">
  <ele>343.11</ele>
  <time>2026-09-01T19:54:57Z</time>
  <course>13.94</course>
  <speed>0.022360679774997897</speed>
  <fix>3d</fix>
</trkpt>
<trkpt lat="-27.2744125" lon="151.2900659">
  <ele>343.09</ele>
  <time>2026-09-01T19:54:57Z</time>
  <course>12.62</course>
  <speed>0.0</speed>
  <fix>3d</fix>
</trkpt>
<trkpt lat="-27.2744127" lon="151.290066">
  <ele>343.12</ele>
  <time>2026-09-01T19:54:57Z</time>
  <course>13.94</course>
  <speed>0.022360679774997897</speed>
  <fix>3d</fix>
</trkpt>
<trkpt lat="-27.2744125" lon="151.2900659">
  <ele>343.09</ele>
  <time>2026-09-01T19:54:57Z</time>
  <course>12.62</course>
  <speed>0.0</speed>
  <fix>3d</fix>
</trkpt>
<trkpt lat="-27.2744127" lon="151.290066">
  <ele>343.12</ele>
  <time>2026-09-01T19:54:57Z</time>
  <course>13.95</course>
  <speed>0.022360679774997897</speed>
  <fix>3d</fix>
</trkpt>
<trkpt lat="-27.2744125" lon="151.2900659">
  <ele>343.09</ele>
  <time>2026-09-01T19:54:57Z</time>
  <course>12.62</course>
  <speed>0.0</speed>
  <fix>3d</fix>
</trkpt>
<trkpt lat="-27.2744127" lon="151.290066">
  <ele>343.12</ele>
  <time>2026-09-01T19:54:57Z</time>
  <course>13.95</course>
  <speed>0.022360679774997897</speed>
  <fix>3d</fix>
</trkpt>
<trkpt lat="-27.2744125" lon="151.2900659">
  <ele>343.09</ele>
  <time>2026-09-01T19:54:57Z</time>
  <course>12.62</course>
  <speed>0.0</speed>
  <fix>3d</fix>
</trkpt>
<trkpt lat="-27.2744127" lon="151.290066">
  <ele>343.12</ele>
  <time>2026-09-01T19:54:57Z</time>
  <course>13.95</course>
  <speed>0.022360679774997897</speed>
  <fix>3d</fix>
</trkpt>
<trkpt lat="-27.2744125" lon="151.2900659">
  <ele>343.09</ele>
  <time>2026-09-01T19:54:57Z</time>
  <course>12.62</course>
  <speed>0.0</speed>
  <fix>3d</fix>
</trkpt>
<trkpt lat="-27.2744127" lon="151.290066">
  <ele>343.13</ele>
  <time>2026-09-01T19:54:57Z</time>
  <course>13.96</course>
  <speed>0.022360679774997897</speed>
  <fix>3d</fix>
</trkpt>
<trkpt lat="-27.2744125" lon="151.2900659">
  <ele>343.09</ele>
  <time>2026-09-01T19:54:57Z</time>
  <course>12.62</course>
  <speed>0.0</speed>
  <fix>3d</fix>
</trkpt>
<trkpt lat="-27.2744127" lon="151.290066">
  <ele>343.13</ele>
  <time>2026-09-01T19:54:57Z</time>
  <course>13.96</course>
  <speed>0.022360679774997897</speed>
  <fix>3d</fix>
</trkpt>
<trkpt lat="-27.2744125" lon="151.2900659">
  <ele>343.09</ele>
  <time>2026-09-01T19:54:57Z</time>
  <course>12.62</course>
  <speed>0.0</speed>
  <fix>3d</fix>
</trkpt>
<trkpt lat="-27.2744127" lon="151.290066">
  <ele>343.13</ele>
  <time>2026-09-01T19:54:57Z</time>
  <course>13.96</course>
  <speed>0.022360679774997897</speed>
  <fix>3d</fix>
</trkpt>
<trkpt lat="-27.2744125" lon="151.2900659">
  <ele>343.09</ele>
  <time>2026-09-01T19:54:57Z</time>
  <course>12.62</course>
  <speed>0.0</speed>
  <fix>3d</fix>
</trkpt>
<trkpt lat="-27.2744127" lon="151.290066">
  <ele>343.14</ele>
  <time>2026-09-01T19:54:57Z</time>
  <course>13.97</course>
  <speed>0.022360679774997897</speed>
  <fix>3d</fix>
</trkpt>
<trkpt lat="-27.2744125" lon="151.2900659">
  <ele>343.09</ele>
  <time>2026-09-01T19:54:57Z</time>
  <course>12.62</course>
  <speed>0.0</speed>
  <fix>3d</fix>
</trkpt>
<trkpt lat="-27.2744127" lon="151.290066">
  <ele>343.14</ele>
  <time>2026-09-01T19:54:57Z</time>
  <course>13.97</course>
  <speed>0.022360679774997897</speed>
  <fix>3d</fix>
</trkpt>
<trkpt lat="-27.2744125" lon="151.2900659">
  <ele>343.09</ele>
  <time>2026-09-01T19:54:57Z</time>
  <course>12.62</course>
  <speed>0.0</speed>
  <fix>3d</fix>
</trkpt>
<trkpt lat="-27.2744127" lon="151.290066">
  <ele>343.14</ele>
  <time>2026-09-01T19:54:57Z</time>
  <course>13.98</course>
  <speed>0.022360679774997897</speed>
  <fix>3d</fix>
</trkpt>
<trkpt lat="-27.2744125" lon="151.2900659">
  <ele>343.09</ele>
  <time>2026-09-01T19:54:57Z</time>
  <course>12.62</course>
  <speed>0.0</speed>
  <fix>3d</fix>
</trkpt>
<trkpt lat="-27.2744127" lon="151.290066">
  <ele>343.15</ele>
  <time>2026-09-01T19:54:57Z</time>
  <course>13.98</course>
  <speed>0.022360679774997897</speed>
  <fix>3d</fix>
</trkpt>
<trkpt lat="-27.2744125" lon="151.2900659">
  <ele>343.09</ele>
  <time>2026-09-01T19:54:57Z</time>
  <course>12.62</course>
  <speed>0.0</speed>
  <fix>3d</fix>
</trkpt>
<trkpt lat="-27.2744127" lon="151.290066">
  <ele>343.15</ele>
  <time>2026-09-01T19:54:57Z</time>
  <course>13.98</course>
  <speed>0.022360679774997897</speed>
  <fix>3d</fix>
</trkpt>
<trkpt lat="-27.2744125" lon="151.2900659">
  <ele>343.09</ele>
  <time>2026-09-01T19:54:57Z</time>
  <course>12.62</course>
  <speed>0.0</speed>
  <fix>3d</fix>
</trkpt>
<trkpt lat="-27.2744127" lon="151.290066">
  <ele>343.15</ele>
  <time>2026-09-01T19:54:57Z</time>
  <course>13.99</course>
  <speed>0.022360679774997897</speed>
  <fix>3d</fix>
</trkpt>
<trkpt lat="-27.2744125" lon="151.2900659">
  <ele>343.09</ele>
  <time>2026-09-01T19:54:57Z</time>
  <course>12.62</course>
  <speed>0.0</speed>
  <fix>3d</fix>
</trkpt>
<trkpt lat="-27.2744127" lon="151.290066">
  <ele>343.16</ele>
  <time>2026-09-01T19:54:57Z</time>
  <course>13.99</course>
  <speed>0.022360679774997897</speed>
  <fix>3d</fix>
</trkpt>
<trkpt lat="-27.2744125" lon="151.2900659">
  <ele>343.09</ele>
  <time>2026-09-01T19:54:57Z</time>
  <course>12.62</course>
  <speed>0.0</speed>
  <fix>3d</fix>
</trkpt>
<trkpt lat="-27.2744127" lon="151.290066">
  <ele>343.16</ele>
  <time>2026-09-01T19:54:57Z</time>
  <course>13.99</course>
  <speed>0.022360679774997897</speed>
  <fix>3d</fix>
</trkpt>
<trkpt lat="-27.2744125" lon="151.2900659">
  <ele>343.09</ele>
  <time>2026-09-01T19:54:57Z</time>
  <course>12.62</course>
  <speed>0.0</speed>
  <fix>3d</fix>
</trkpt>
<trkpt lat="-27.2744127" lon="151.290066">
  <ele>343.16</ele>
  <time>2026-09-01T19:54:57Z</time>
  <course>14.0</course>
  <speed>0.022360679774997897</speed>
  <fix>3d</fix>
</trkpt>
<trkpt lat="-27.2744125" lon="151.2900659">
  <ele>343.09</ele>
  <time>2026-09-01T19:54:57Z</time>
  <course>12.62</course>
  <speed>0.0</speed>
  <fix>3d</fix>
</trkpt>
<trkpt lat="-27.2744127" lon="151.290066">
  <ele>343.16</ele>
  <time>2026-09-01T19:54:57Z</time>
  <course>14.0</course>
  <speed>0.022360679774997897</speed>
  <fix>3d</fix>
</trkpt>
<trkpt lat="-27.2744125" lon="151.2900659">
  <ele>343.09</ele>
  <time>2026-09-01T19:54:57Z</time>
  <course>12.62</course>
  <speed>0.0</speed>
  <fix>3d</fix>
</trkpt>
<trkpt lat="-27.2744127" lon="151.290066">
  <ele>343.17</ele>
  <time>2026-09-01T19:54:57Z</time>
  <course>14.0</course>
  <speed>0.022360679774997897</speed>
  <fix>3d</fix>
</trkpt>
<trkpt lat="-27.2744125" lon="151.2900659">
  <ele>343.09</ele>
  <time>2026-09-01T19:54:57Z</time>
  <course>12.62</course>
  <speed>0.0</speed>
  <fix>3d</fix>
</trkpt>
<trkpt lat="-27.2744127" lon="151.290066">
  <ele>343.17</ele>
  <time>2026-09-01T19:54:57Z</time>
  <course>14.01</course>
  <speed>0.022360679774997897</speed>
  <fix>3d</fix>
</trkpt>
<trkpt lat="-27.2744125" lon="151.2900659">
  <ele>343.09</ele>
  <time>2026-09-01T19:54:57Z</time>
  <course>12.62</course>
  <speed>0.0</speed>
  <fix>3d</fix>
</trkpt>
<trkpt lat="-27.2744127" lon="151.290066">
  <ele>343.17</ele>
  <time>2026-09-01T19:54:57Z</time>
  <course>14.01</course>
  <speed>0.022360679774997897</speed>
  <fix>3d</fix>
</trkpt>
<trkpt lat="-27.2744125" lon="151.2900659">
  <ele>343.09</ele>
  <time>2026-09-01T19:54:57Z</time>
  <course>12.62</course>
  <speed>0.0</speed>
  <fix>3d</fix>
</trkpt>
<trkpt lat="-27.2744127" lon="151.290066">
  <ele>343.17</ele>
  <time>2026-09-01T19:54:57Z</time>
  <course>14.01</course>
  <speed>0.022360679774997897</speed>
  <fix>3d</fix>
</trkpt>
<trkpt lat="-27.2744125" lon="151.2900659">
  <ele>343.09</ele>
  <time>2026-09-01T19:54:57Z</time>
  <course>12.62</course>
  <speed>0.0</speed>
  <fix>3d</fix>
</trkpt>
<trkpt lat="-27.2744127" lon="151.290066">
  <ele>343.17</ele>
  <time>2026-09-01T19:54:57Z</time>
  <course>14.02</course>
  <speed>0.022360679774997897</speed>
  <fix>3d</fix>
</trkpt>
<trkpt lat="-27.2744125" lon="151.2900659">
  <ele>343.09</ele>
  <time>2026-09-01T19:54:57Z</time>
  <course>12.62</course>
  <speed>0.0</speed>
  <fix>3d</fix>
</trkpt>
<trkpt lat="-27.2744127" lon="151.290066">
  <ele>343.17</ele>
  <time>2026-09-01T19:54:57Z</time>
  <course>14.02</course>
  <speed>0.022360679774997897</speed>
  <fix>3d</fix>
</trkpt>
<trkpt lat="-27.2744125" lon="151.2900659">
  <ele>343.09</ele>
  <time>2026-09-01T19:54:57Z</time>
  <course>12.62</course>
  <speed>0.0</speed>
  <fix>3d</fix>
</trkpt>
<trkpt lat="-27.2744127" lon="151.290066">
  <ele>343.17</ele>
  <time>2026-09-01T19:54:57Z</time>
  <course>14.02</course>
  <speed>0.022360679774997897</speed>
  <fix>3d</fix>
</trkpt>
<trkpt lat="-27.2744125" lon="151.2900659">
  <ele>343.09</ele>
  <time>2026-09-01T19:54:57Z</time>
  <course>12.62</course>
  <speed>0.0</speed>
  <fix>3d</fix>
</trkpt>
<trkpt lat="-27.2744127" lon="151.290066">
  <ele>343.17</ele>
  <time>2026-09-01T19:54:57Z</time>
  <course>14.03</course>
  <speed>0.022360679774997897</speed>
  <fix>3d</fix>
</trkpt>
<trkpt lat="-27.2744125" lon="151.2900659">
  <ele>343.09</ele>
  <time>2026-09-01T19:54:57Z</time>
  <course>12.62</course>
  <speed>0.0</speed>
  <fix>3d</fix>
</trkpt>
<trkpt lat="-27.2744127" lon="151.290066">
  <ele>343.17</ele>
  <time>2026-09-01T19:54:58Z</time>
  <course>14.03</course>
  <speed>0.022360679774997897</speed>
  <fix>3d</fix>
</trkpt>
<trkpt lat="-27.2744125" lon="151.2900659">
  <ele>343.09</ele>
  <time>2026-09-01T19:54:58Z</time>
  <course>12.62</course>
  <speed>0.0</speed>
  <fix>3d</fix>
</trkpt>
<trkpt lat="-27.2744127" lon="151.290066">
  <ele>343.17</ele>
  <time>2026-09-01T19:54:58Z</time>
  <course>14.03</course>
  <speed>0.022360679774997897</speed>
  <fix>3d</fix>
</trkpt>
<trkpt lat="-27.2744125" lon="151.2900659">
  <ele>343.09</ele>
  <time>2026-09-01T19:54:58Z</time>
  <course>12.62</course>
  <speed>0.0</speed>
  <fix>3d</fix>
</trkpt>
<trkpt lat="-27.2744127" lon="151.290066">
  <ele>343.18</ele>
  <time>2026-09-01T19:54:58Z</time>
  <course>14.04</course>
  <speed>0.022360679774997897</speed>
  <fix>3d</fix>
</trkpt>
<trkpt lat="-27.2744125" lon="151.2900659">
  <ele>343.09</ele>
  <time>2026-09-01T19:54:58Z</time>
  <course>12.62</course>
  <speed>0.0</speed>
  <fix>3d</fix>
</trkpt>
<trkpt lat="-27.2744127" lon="151.290066">
  <ele>343.18</ele>
  <time>2026-09-01T19:54:58Z</time>
  <course>14.04</course>
  <speed>0.022360679774997897</speed>
  <fix>3d</fix>
</trkpt>
<trkpt lat="-27.2744125" lon="151.2900659">
  <ele>343.09</ele>
  <time>2026-09-01T19:54:58Z</time>
  <course>12.62</course>
  <speed>0.0</speed>
  <fix>3d</fix>
</trkpt>
<trkpt lat="-27.2744127" lon="151.290066">
  <ele>343.18</ele>
  <time>2026-09-01T19:54:58Z</time>
  <course>14.04</course>
  <speed>0.022360679774997897</speed>
  <fix>3d</fix>
</trkpt>
<trkpt lat="-27.2744125" lon="151.2900659">
  <ele>343.09</ele>
  <time>2026-09-01T19:54:58Z</time>
  <course>12.62</course>
  <speed>0.0</speed>
  <fix>3d</fix>
</trkpt>
<trkpt lat="-27.2744127" lon="151.290066">
  <ele>343.18</ele>
  <time>2026-09-01T19:54:58Z</time>
  <course>14.05</course>
  <speed>0.022360679774997897</speed>
  <fix>3d</fix>
</trkpt>
<trkpt lat="-27.2744125" lon="151.2900659">
  <ele>343.09</ele>
  <time>2026-09-01T19:54:58Z</time>
  <course>12.62</course>
  <speed>0.0</speed>
  <fix>3d</fix>
</trkpt>
<trkpt lat="-27.2744127" lon="151.290066">
  <ele>343.18</ele>
  <time>2026-09-01T19:54:58Z</time>
  <course>14.05</course>
  <speed>0.022360679774997897</speed>
  <fix>3d</fix>
</trkpt>
<trkpt lat="-27.2744125" lon="151.2900659">
  <ele>343.09</ele>
  <time>2026-09-01T19:54:58Z</time>
  <course>12.62</course>
  <speed>0.0</speed>
  <fix>3d</fix>
</trkpt>
<trkpt lat="-27.2744127" lon="151.290066">
  <ele>343.18</ele>
  <time>2026-09-01T19:54:58Z</time>
  <course>14.05</course>
  <speed>0.022360679774997897</speed>
  <fix>3d</fix>
</trkpt>
<trkpt lat="-27.2744125" lon="151.2900659">
  <ele>343.09</ele>
  <time>2026-09-01T19:54:58Z</time>
  <course>12.62</course>
  <speed>0.0</speed>
  <fix>3d</fix>
</trkpt>
<trkpt lat="-27.2744127" lon="151.290066">
  <ele>343.19</ele>
  <time>2026-09-01T19:54:58Z</time>
  <course>14.06</course>
  <speed>0.022360679774997897</speed>
  <fix>3d</fix>
</trkpt>
<trkpt lat="-27.2744125" lon="151.2900659">
  <ele>343.09</ele>
  <time>2026-09-01T19:54:58Z</time>
  <course>12.62</course>
  <speed>0.0</speed>
  <fix>3d</fix>
</trkpt>
<trkpt lat="-27.2744127" lon="151.290066">
  <ele>343.19</ele>
  <time>2026-09-01T19:54:58Z</time>
  <course>14.06</course>
  <speed>0.022360679774997897</speed>
  <fix>3d</fix>
</trkpt>
<trkpt lat="-27.2744125" lon="151.2900659">
  <ele>343.09</ele>
  <time>2026-09-01T19:54:58Z</time>
  <course>12.62</course>
  <speed>0.0</speed>
  <fix>3d</fix>
</trkpt>
<trkpt lat="-27.2744127" lon="151.290066">
  <ele>343.19</ele>
  <time>2026-09-01T19:54:58Z</time>
  <course>14.06</course>
  <speed>0.022360679774997897</speed>
  <fix>3d</fix>
</trkpt>
<trkpt lat="-27.2744125" lon="151.2900659">
  <ele>343.09</ele>
  <time>2026-09-01T19:54:58Z</time>
  <course>12.62</course>
  <speed>0.0</speed>
  <fix>3d</fix>
</trkpt>
<trkpt lat="-27.2744127" lon="151.290066">
  <ele>343.19</ele>
  <time>2026-09-01T19:54:58Z</time>
  <course>14.07</course>
  <speed>0.022360679774997897</speed>
  <fix>3d</fix>
</trkpt>
<trkpt lat="-27.2744125" lon="151.2900659">
  <ele>343.09</ele>
  <time>2026-09-01T19:54:58Z</time>
  <course>12.62</course>
  <speed>0.0</speed>
  <fix>3d</fix>
</trkpt>
<trkpt lat="-27.2744127" lon="151.290066">
  <ele>343.19</ele>
  <time>2026-09-01T19:54:58Z</time>
  <course>14.07</course>
  <speed>0.022360679774997897</speed>
  <fix>3d</fix>
</trkpt>
<trkpt lat="-27.2744125" lon="151.2900659">
  <ele>343.09</ele>
  <time>2026-09-01T19:54:58Z</time>
  <course>12.62</course>
  <speed>0.0</speed>
  <fix>3d</fix>
</trkpt>
<trkpt lat="-27.2744127" lon="151.290066">
  <ele>343.2</ele>
  <time>2026-09-01T19:54:58Z</time>
  <course>14.07</course>
  <speed>0.022360679774997897</speed>
  <fix>3d</fix>
</trkpt>
<trkpt lat="-27.2744125" lon="151.2900659">
  <ele>343.09</ele>
  <time>2026-09-01T19:54:58Z</time>
  <course>12.62</course>
  <speed>0.0</speed>
  <fix>3d</fix>
</trkpt>
<trkpt lat="-27.2744127" lon="151.290066">
  <ele>343.2</ele>
  <time>2026-09-01T19:54:58Z</time>
  <course>14.08</course>
  <speed>0.022360679774997897</speed>
  <fix>3d</fix>
</trkpt>
<trkpt lat="-27.2744125" lon="151.2900659">
  <ele>343.09</ele>
  <time>2026-09-01T19:54:58Z</time>
  <course>12.62</course>
  <speed>0.0</speed>
  <fix>3d</fix>
</trkpt>
<trkpt lat="-27.2744127" lon="151.290066">
  <ele>343.2</ele>
  <time>2026-09-01T19:54:58Z</time>
  <course>14.08</course>
  <speed>0.022360679774997897</speed>
  <fix>3d</fix>
</trkpt>
<trkpt lat="-27.2744125" lon="151.2900659">
  <ele>343.09</ele>
  <time>2026-09-01T19:54:58Z</time>
  <course>12.62</course>
  <speed>0.0</speed>
  <fix>3d</fix>
</trkpt>
<trkpt lat="-27.2744127" lon="151.290066">
  <ele>343.2</ele>
  <time>2026-09-01T19:54:58Z</time>
  <course>14.08</course>
  <speed>0.022360679774997897</speed>
  <fix>3d</fix>
</trkpt>
<trkpt lat="-27.2744125" lon="151.2900659">
  <ele>343.09</ele>
  <time>2026-09-01T19:54:58Z</time>
  <course>12.62</course>
  <speed>0.0</speed>
  <fix>3d</fix>
</trkpt>
<trkpt lat="-27.2744127" lon="151.290066">
  <ele>343.2</ele>
  <time>2026-09-01T19:54:58Z</time>
  <course>14.09</course>
  <speed>0.022360679774997897</speed>
  <fix>3d</fix>
</trkpt>
<trkpt lat="-27.2744125" lon="151.2900659">
  <ele>343.09</ele>
  <time>2026-09-01T19:54:58Z</time>
  <course>12.62</course>
  <speed>0.0</speed>
  <fix>3d</fix>
</trkpt>
<trkpt lat="-27.2744127" lon="151.290066">
  <ele>343.2</ele>
  <time>2026-09-01T19:54:58Z</time>
  <course>14.09</course>
  <speed>0.022360679774997897</speed>
  <fix>3d</fix>
</trkpt>
<trkpt lat="-27.2744125" lon="151.2900659">
  <ele>343.09</ele>
  <time>2026-09-01T19:54:58Z</time>
  <course>12.62</course>
  <speed>0.0</speed>
  <fix>3d</fix>
</trkpt>
<trkpt lat="-27.2744127" lon="151.290066">
  <ele>343.2</ele>
  <time>2026-09-01T19:54:58Z</time>
  <course>14.09</course>
  <speed>0.022360679774997897</speed>
  <fix>3d</fix>
</trkpt>
<trkpt lat="-27.2744125" lon="151.2900659">
  <ele>343.09</ele>
  <time>2026-09-01T19:54:58Z</time>
  <course>12.62</course>
  <speed>0.0</speed>
  <fix>3d</fix>
</trkpt>
<trkpt lat="-27.2744127" lon="151.290066">
  <ele>343.2</ele>
  <time>2026-09-01T19:54:58Z</time>
  <course>14.1</course>
  <speed>0.022360679774997897</speed>
  <fix>3d</fix>
</trkpt>
<trkpt lat="-27.2744125" lon="151.2900659">
  <ele>343.09</ele>
  <time>2026-09-01T19:54:58Z</time>
  <course>12.62</course>
  <speed>0.0</speed>
  <fix>3d</fix>
</trkpt>
<trkpt lat="-27.2744127" lon="151.290066">
  <ele>343.21</ele>
  <time>2026-09-01T19:54:58Z</time>
  <course>14.1</course>
  <speed>0.022360679774997897</speed>
  <fix>3d</fix>
</trkpt>
<trkpt lat="-27.2744125" lon="151.2900659">
  <ele>343.09</ele>
  <time>2026-09-01T19:54:58Z</time>
  <course>12.62</course>
  <speed>0.0</speed>
  <fix>3d</fix>
</trkpt>
<trkpt lat="-27.2744127" lon="151.290066">
  <ele>343.09</ele>
  <time>2026-09-01T19:54:58Z</time>
  <course>14.1</course>
  <speed>0.022360679774997897</speed>
  <fix>3d</fix>
</trkpt>
<trkpt lat="-27.2744125" lon="151.2900659">
  <ele>343.09</ele>
  <time>2026-09-01T19:54:58Z</time>
  <course>12.62</course>
  <speed>0.0</speed>
  <fix>3d</fix>
</trkpt>
<trkpt lat="-27.2744127" lon="151.290066">
  <ele>343.09</ele>
  <time>2026-09-01T19:54:58Z</time>
  <course>14.11</course>
  <speed>0.022360679774997897</speed>
  <fix>3d</fix>
</trkpt>
<trkpt lat="-27.2744125" lon="151.2900659">
  <ele>343.09</ele>
  <time>2026-09-01T19:54:58Z</time>
  <course>12.62</course>
  <speed>0.0</speed>
  <fix>3d</fix>
</trkpt>
<trkpt lat="-27.2744127" lon="151.290066">
  <ele>343.09</ele>
  <time>2026-09-01T19:54:58Z</time>
  <course>14.11</course>
  <speed>0.022360679774997897</speed>
  <fix>3d</fix>
</trkpt>
<trkpt lat="-27.2744125" lon="151.2900659">
  <ele>343.09</ele>
  <time>2026-09-01T19:54:58Z</time>
  <course>12.62</course>
  <speed>0.0</speed>
  <fix>3d</fix>
</trkpt>
<trkpt lat="-27.2744127" lon="151.290066">
  <ele>343.09</ele>
  <time>2026-09-01T19:54:58Z</time>
  <course>14.11</course>
  <speed>0.022360679774997897</speed>
  <fix>3d</fix>
</trkpt>
<trkpt lat="-27.2744125" lon="151.2900659">
  <ele>343.09</ele>
  <time>2026-09-01T19:54:58Z</time>
  <course>12.62</course>
  <speed>0.0</speed>
  <fix>3d</fix>
</trkpt>
<trkpt lat="-27.2744127" lon="151.290066">
  <ele>343.09</ele>
  <time>2026-09-01T19:54:58Z</time>
  <course>14.11</course>
  <speed>0.022360679774997897</speed>
  <fix>3d</fix>
</trkpt>
<trkpt lat="-27.2744125" lon="151.2900659">
  <ele>343.09</ele>
  <time>2026-09-01T19:54:58Z</time>
  <course>12.62</course>
  <speed>0.0</speed>
  <fix>3d</fix>
</trkpt>
<trkpt lat="-27.2744127" lon="151.290066">
  <ele>343.09</ele>
  <time>2026-09-01T19:54:58Z</time>
  <course>14.12</course>
  <speed>0.022360679774997897</speed>
  <fix>3d</fix>
</trkpt>
<trkpt lat="-27.2744125" lon="151.2900659">
  <ele>343.09</ele>
  <time>2026-09-01T19:54:58Z</time>
  <course>12.62</course>
  <speed>0.0</speed>
  <fix>3d</fix>
</trkpt>
<trkpt lat="-27.2744127" lon="151.290066">
  <ele>343.09</ele>
  <time>2026-09-01T19:54:58Z</time>
  <course>14.12</course>
  <speed>0.022360679774997897</speed>
  <fix>3d</fix>
</trkpt>
<trkpt lat="-27.2744125" lon="151.2900659">
  <ele>343.09</ele>
  <time>2026-09-01T19:54:58Z</time>
  <course>12.62</course>
  <speed>0.0</speed>
  <fix>3d</fix>
</trkpt>
<trkpt lat="-27.2744127" lon="151.290066">
  <ele>343.09</ele>
  <time>2026-09-01T19:54:58Z</time>
  <course>14.12</course>
  <speed>0.022360679774997897</speed>
  <fix>3d</fix>
</trkpt>
<trkpt lat="-27.2744125" lon="151.2900659">
  <ele>343.09</ele>
  <time>2026-09-01T19:54:58Z</time>
  <course>12.62</course>
  <speed>0.0</speed>
  <fix>3d</fix>
</trkpt>
<trkpt lat="-27.2744127" lon="151.290066">
  <ele>343.09</ele>
  <time>2026-09-01T19:54:58Z</time>
  <course>14.13</course>
  <speed>0.022360679774997897</speed>
  <fix>3d</fix>
</trkpt>
<trkpt lat="-27.2744125" lon="151.2900659">
  <ele>343.09</ele>
  <time>2026-09-01T19:54:58Z</time>
  <course>12.62</course>
  <speed>0.0</speed>
  <fix>3d</fix>
</trkpt>
<trkpt lat="-27.2744127" lon="151.290066">
  <ele>343.09</ele>
  <time>2026-09-01T19:54:58Z</time>
  <course>14.13</course>
  <speed>0.022360679774997897</speed>
  <fix>3d</fix>
</trkpt>
<trkpt lat="-27.2744125" lon="151.2900659">
  <ele>343.09</ele>
  <time>2026-09-01T19:54:58Z</time>
  <course>12.62</course>
  <speed>0.0</speed>
  <fix>3d</fix>
</trkpt>
<trkpt lat="-27.2744127" lon="151.290066">
  <ele>343.09</ele>
  <time>2026-09-01T19:54:58Z</time>
  <course>14.13</course>
  <speed>0.022360679774997897</speed>
  <fix>3d</fix>
</trkpt>
<trkpt lat="-27.2744125" lon="151.2900659">
  <ele>343.09</ele>
  <time>2026-09-01T19:54:58Z</time>
  <course>12.62</course>
  <speed>0.0</speed>
  <fix>3d</fix>
</trkpt>
<trkpt lat="-27.2744127" lon="151.290066">
  <ele>343.09</ele>
  <time>2026-09-01T19:54:58Z</time>
  <course>14.14</course>
  <speed>0.022360679774997897</speed>
  <fix>3d</fix>
</trkpt>
<trkpt lat="-27.2744125" lon="151.2900659">
  <ele>343.09</ele>
  <time>2026-09-01T19:54:58Z</time>
  <course>12.62</course>
  <speed>0.0</speed>
  <fix>3d</fix>
</trkpt>
<trkpt lat="-27.2744127" lon="151.290066">
  <ele>343.09</ele>
  <time>2026-09-01T19:54:58Z</time>
  <course>14.14</course>
  <speed>0.022360679774997897</speed>
  <fix>3d</fix>
</trkpt>
<trkpt lat="-27.2744125" lon="151.2900659">
  <ele>343.09</ele>
  <time>2026-09-01T19:54:58Z</time>
  <course>12.62</course>
  <speed>0.0</speed>
  <fix>3d</fix>
</trkpt>
<trkpt lat="-27.2744127" lon="151.290066">
  <ele>343.09</ele>
  <time>2026-09-01T19:54:58Z</time>
  <course>14.14</course>
  <speed>0.022360679774997897</speed>
  <fix>3d</fix>
</trkpt>
<trkpt lat="-27.2744125" lon="151.2900659">
  <ele>343.09</ele>
  <time>2026-09-01T19:54:58Z</time>
  <course>12.62</course>
  <speed>0.0</speed>
  <fix>3d</fix>
</trkpt>
<trkpt lat="-27.2744127" lon="151.290066">
  <ele>343.09</ele>
  <time>2026-09-01T19:54:58Z</time>
  <course>14.15</course>
  <speed>0.022360679774997897</speed>
  <fix>3d</fix>
</trkpt>
<trkpt lat="-27.2744125" lon="151.2900659">
  <ele>343.09</ele>
  <time>2026-09-01T19:54:58Z</time>
  <course>12.62</course>
  <speed>0.0</speed>
  <fix>3d</fix>
</trkpt>
<trkpt lat="-27.2744127" lon="151.290066">
  <ele>343.09</ele>
  <time>2026-09-01T19:54:58Z</time>
  <course>14.15</course>
  <speed>0.022360679774997897</speed>
  <fix>3d</fix>
</trkpt>
<trkpt lat="-27.2744125" lon="151.2900659">
  <ele>343.09</ele>
  <time>2026-09-01T19:54:58Z</time>
  <course>12.62</course>
  <speed>0.0</speed>
  <fix>3d</fix>
</trkpt>
<trkpt lat="-27.2744127" lon="151.290066">
  <ele>343.09</ele>
  <time>2026-09-01T19:54:58Z</time>
  <course>14.15</course>
  <speed>0.022360679774997897</speed>
  <fix>3d</fix>
</trkpt>
<trkpt lat="-27.2744125" lon="151.2900659">
  <ele>343.09</ele>
  <time>2026-09-01T19:54:58Z</time>
  <course>12.62</course>
  <speed>0.0</speed>
  <fix>3d</fix>
</trkpt>
<trkpt lat="-27.2744127" lon="151.290066">
  <ele>343.09</ele>
  <time>2026-09-01T19:54:58Z</time>
  <course>14.15</course>
  <speed>0.022360679774997897</speed>
  <fix>3d</fix>
</trkpt>
<trkpt lat="-27.2744125" lon="151.2900659">
  <ele>343.09</ele>
  <time>2026-09-01T19:54:58Z</time>
  <course>12.62</course>
  <speed>0.0</speed>
  <fix>3d</fix>
</trkpt>
<trkpt lat="-27.2744127" lon="151.290066">
  <ele>343.09</ele>
  <time>2026-09-01T19:54:58Z</time>
  <course>14.16</course>
  <speed>0.022360679774997897</speed>
  <fix>3d</fix>
</trkpt>
<trkpt lat="-27.2744125" lon="151.2900659">
  <ele>343.09</ele>
  <time>2026-09-01T19:54:58Z</time>
  <course>12.62</course>
  <speed>0.0</speed>
  <fix>3d</fix>
</trkpt>
<trkpt lat="-27.2744127" lon="151.290066">
  <ele>343.09</ele>
  <time>2026-09-01T19:54:58Z</time>
  <course>14.16</course>
  <speed>0.022360679774997897</speed>
  <fix>3d</fix>
</trkpt>
<trkpt lat="-27.2744125" lon="151.2900659">
  <ele>343.09</ele>
  <time>2026-09-01T19:54:58Z</time>
  <course>12.62</course>
  <speed>0.0</speed>
  <fix>3d</fix>
</trkpt>
<trkpt lat="-27.2744127" lon="151.290066">
  <ele>343.09</ele>
  <time>2026-09-01T19:54:58Z</time>
  <course>14.16</course>
  <speed>0.022360679774997897</speed>
  <fix>3d</fix>
</trkpt>
<trkpt lat="-27.2744125" lon="151.2900659">
  <ele>343.09</ele>
  <time>2026-09-01T19:54:58Z</time>
  <course>12.62</course>
  <speed>0.0</speed>
  <fix>3d</fix>
</trkpt>
<trkpt lat="-27.2744127" lon="151.290066">
  <ele>343.09</ele>
  <time>2026-09-01T19:54:58Z</time>
  <course>14.17</course>
  <speed>0.022360679774997897</speed>
  <fix>3d</fix>
</trkpt>
<trkpt lat="-27.2744125" lon="151.2900659">
  <ele>343.09</ele>
  <time>2026-09-01T19:54:58Z</time>
  <course>12.62</course>
  <speed>0.0</speed>
  <fix>3d</fix>
</trkpt>
<trkpt lat="-27.2744127" lon="151.290066">
  <ele>343.09</ele>
  <time>2026-09-01T19:54:58Z</time>
  <course>14.17</course>
  <speed>0.022360679774997897</speed>
  <fix>3d</fix>
</trkpt>
<trkpt lat="-27.2744125" lon="151.2900659">
  <ele>343.09</ele>
  <time>2026-09-01T19:54:58Z</time>
  <course>12.62</course>
  <speed>0.0</speed>
  <fix>3d</fix>
</trkpt>
<trkpt lat="-27.2744127" lon="151.290066">
  <ele>343.09</ele>
  <time>2026-09-01T19:54:58Z</time>
  <course>14.17</course>
  <speed>0.022360679774997897</speed>
  <fix>3d</fix>
</trkpt>
<trkpt lat="-27.2744125" lon="151.2900659">
  <ele>343.09</ele>
  <time>2026-09-01T19:54:58Z</time>
  <course>12.62</course>
  <speed>0.0</speed>
  <fix>3d</fix>
</trkpt>
<trkpt lat="-27.2744127" lon="151.290066">
  <ele>343.09</ele>
  <time>2026-09-01T19:54:58Z</time>
  <course>14.17</course>
  <speed>0.022360679774997897</speed>
  <fix>3d</fix>
</trkpt>
<trkpt lat="-27.2744125" lon="151.2900659">
  <ele>343.09</ele>
  <time>2026-09-01T19:54:58Z</time>
  <course>12.62</course>
  <speed>0.0</speed>
  <fix>3d</fix>
</trkpt>
<trkpt lat="-27.2744127" lon="151.290066">
  <ele>343.09</ele>
  <time>2026-09-01T19:54:58Z</time>
  <course>14.18</course>
  <speed>0.022360679774997897</speed>
  <fix>3d</fix>
</trkpt>
<trkpt lat="-27.2744125" lon="151.2900659">
  <ele>343.09</ele>
  <time>2026-09-01T19:54:58Z</time>
  <course>12.62</course>
  <speed>0.0</speed>
  <fix>3d</fix>
</trkpt>
<trkpt lat="-27.2744127" lon="151.290066">
  <ele>343.09</ele>
  <time>2026-09-01T19:54:58Z</time>
  <course>14.18</course>
  <speed>0.022360679774997897</speed>
  <fix>3d</fix>
</trkpt>
<trkpt lat="-27.2744125" lon="151.2900659">
  <ele>343.09</ele>
  <time>2026-09-01T19:54:58Z</time>
  <course>12.62</course>
  <speed>0.0</speed>
  <fix>3d</fix>
</trkpt>
<trkpt lat="-27.2744127" lon="151.290066">
  <ele>343.09</ele>
  <time>2026-09-01T19:54:58Z</time>
  <course>14.18</course>
  <speed>0.022360679774997897</speed>
  <fix>3d</fix>
</trkpt>
<trkpt lat="-27.2744125" lon="151.2900659">
  <ele>343.09</ele>
  <time>2026-09-01T19:54:58Z</time>
  <course>12.62</course>
  <speed>0.0</speed>
  <fix>3d</fix>
</trkpt>
<trkpt lat="-27.2744127" lon="151.290066">
  <ele>343.09</ele>
  <time>2026-09-01T19:54:58Z</time>
  <course>14.19</course>
  <speed>0.022360679774997897</speed>
  <fix>3d</fix>
</trkpt>
<trkpt lat="-27.2744125" lon="151.2900659">
  <ele>343.09</ele>
  <time>2026-09-01T19:54:58Z</time>
  <course>12.62</course>
  <speed>0.0</speed>
  <fix>3d</fix>
</trkpt>
<trkpt lat="-27.2744127" lon="151.290066">
  <ele>343.09</ele>
  <time>2026-09-01T19:54:58Z</time>
  <course>14.19</course>
  <speed>0.022360679774997897</speed>
  <fix>3d</fix>
</trkpt>
<trkpt lat="-27.2744125" lon="151.2900659">
  <ele>343.09</ele>
  <time>2026-09-01T19:54:58Z</time>
  <course>12.62</course>
  <speed>0.0</speed>
  <fix>3d</fix>
</trkpt>
<trkpt lat="-27.2744127" lon="151.290066">
  <ele>343.09</ele>
  <time>2026-09-01T19:54:58Z</time>
  <course>14.19</course>
  <speed>0.022360679774997897</speed>
  <fix>3d</fix>
</trkpt>
<trkpt lat="-27.2744125" lon="151.2900659">
  <ele>343.09</ele>
  <time>2026-09-01T19:54:58Z</time>
  <course>12.62</course>
  <speed>0.0</speed>
  <fix>3d</fix>
</trkpt>
<trkpt lat="-27.2744127" lon="151.290066">
  <ele>343.09</ele>
  <time>2026-09-01T19:54:58Z</time>
  <course>14.19</course>
  <speed>0.022360679774997897</speed>
  <fix>3d</fix>
</trkpt>
<trkpt lat="-27.2744125" lon="151.2900659">
  <ele>343.09</ele>
  <time>2026-09-01T19:54:58Z</time>
  <course>12.62</course>
  <speed>0.0</speed>
  <fix>3d</fix>
</trkpt>
<trkpt lat="-27.2744127" lon="151.290066">
  <ele>343.09</ele>
  <time>2026-09-01T19:54:58Z</time>
  <course>14.2</course>
  <speed>0.022360679774997897</speed>
  <fix>3d</fix>
</trkpt>
<trkpt lat="-27.2744125" lon="151.2900659">
  <ele>343.09</ele>
  <time>2026-09-01T19:54:58Z</time>
  <course>12.62</course>
  <speed>0.0</speed>
  <fix>3d</fix>
</trkpt>
<trkpt lat="-27.2744127" lon="151.290066">
  <ele>343.09</ele>
  <time>2026-09-01T19:54:58Z</time>
  <course>14.2</course>
  <speed>0.022360679774997897</speed>
  <fix>3d</fix>
</trkpt>
<trkpt lat="-27.2744125" lon="151.2900659">
  <ele>343.09</ele>
  <time>2026-09-01T19:54:58Z</time>
  <course>12.62</course>
  <speed>0.0</speed>
  <fix>3d</fix>
</trkpt>
<trkpt lat="-27.2744127" lon="151.290066">
  <ele>343.1</ele>
  <time>2026-09-01T19:54:58Z</time>
  <course>14.2</course>
  <speed>0.022360679774997897</speed>
  <fix>3d</fix>
</trkpt>
<trkpt lat="-27.2744125" lon="151.2900659">
  <ele>343.09</ele>
  <time>2026-09-01T19:54:58Z</time>
  <course>12.62</course>
  <speed>0.0</speed>
  <fix>3d</fix>
</trkpt>
<trkpt lat="-27.2744127" lon="151.290066">
  <ele>343.1</ele>
  <time>2026-09-01T19:54:58Z</time>
  <course>14.21</course>
  <speed>0.022360679774997897</speed>
  <fix>3d</fix>
</trkpt>
<trkpt lat="-27.2744125" lon="151.2900659">
  <ele>343.09</ele>
  <time>2026-09-01T19:54:58Z</time>
  <course>12.62</course>
  <speed>0.0</speed>
  <fix>3d</fix>
</trkpt>
<trkpt lat="-27.2744127" lon="151.290066">
  <ele>343.1</ele>
  <time>2026-09-01T19:54:58Z</time>
  <course>14.21</course>
  <speed>0.022360679774997897</speed>
  <fix>3d</fix>
</trkpt>
<trkpt lat="-27.2744125" lon="151.2900659">
  <ele>343.09</ele>
  <time>2026-09-01T19:54:58Z</time>
  <course>12.62</course>
  <speed>0.0</speed>
  <fix>3d</fix>
</trkpt>
<trkpt lat="-27.2744127" lon="151.290066">
  <ele>343.1</ele>
  <time>2026-09-01T19:54:58Z</time>
  <course>14.21</course>
  <speed>0.022360679774997897</speed>
  <fix>3d</fix>
</trkpt>
<trkpt lat="-27.2744125" lon="151.2900659">
  <ele>343.09</ele>
  <time>2026-09-01T19:54:58Z</time>
  <course>12.62</course>
  <speed>0.0</speed>
  <fix>3d</fix>
</trkpt>
<trkpt lat="-27.2744127" lon="151.290066">
  <ele>343.1</ele>
  <time>2026-09-01T19:54:58Z</time>
  <course>14.22</course>
  <speed>0.022360679774997897</speed>
  <fix>3d</fix>
</trkpt>
<trkpt lat="-27.2744125" lon="151.2900659">
  <ele>343.09</ele>
  <time>2026-09-01T19:54:58Z</time>
  <course>12.62</course>
  <speed>0.0</speed>
  <fix>3d</fix>
</trkpt>
<trkpt lat="-27.2744127" lon="151.290066">
  <ele>343.1</ele>
  <time>2026-09-01T19:54:58Z</time>
  <course>14.22</course>
  <speed>0.022360679774997897</speed>
  <fix>3d</fix>
</trkpt>
<trkpt lat="-27.2744125" lon="151.2900659">
  <ele>343.09</ele>
  <time>2026-09-01T19:54:58Z</time>
  <course>12.62</course>
  <speed>0.0</speed>
  <fix>3d</fix>
</trkpt>
<trkpt lat="-27.2744127" lon="151.290066">
  <ele>343.1</ele>
  <time>2026-09-01T19:54:58Z</time>
  <course>14.22</course>
  <speed>0.022360679774997897</speed>
  <fix>3d</fix>
</trkpt>
<trkpt lat="-27.2744125" lon="151.2900659">
  <ele>343.09</ele>
  <time>2026-09-01T19:54:58Z</time>
  <course>12.62</course>
  <speed>0.0</speed>
  <fix>3d</fix>
</trkpt>
<trkpt lat="-27.2744127" lon="151.290066">
  <ele>343.1</ele>
  <time>2026-09-01T19:54:58Z</time>
  <course>14.22</course>
  <speed>0.022360679774997897</speed>
  <fix>3d</fix>
</trkpt>
<trkpt lat="-27.2744125" lon="151.2900659">
  <ele>343.09</ele>
  <time>2026-09-01T19:54:58Z</time>
  <course>12.62</course>
  <speed>0.0</speed>
  <fix>3d</fix>
</trkpt>
<trkpt lat="-27.2744127" lon="151.290066">
  <ele>343.1</ele>
  <time>2026-09-01T19:54:58Z</time>
  <course>14.23</course>
  <speed>0.022360679774997897</speed>
  <fix>3d</fix>
</trkpt>
<trkpt lat="-27.2744125" lon="151.2900659">
  <ele>343.09</ele>
  <time>2026-09-01T19:54:58Z</time>
  <course>12.62</course>
  <speed>0.0</speed>
  <fix>3d</fix>
</trkpt>
<trkpt lat="-27.2744127" lon="151.290066">
  <ele>343.1</ele>
  <time>2026-09-01T19:54:58Z</time>
  <course>14.23</course>
  <speed>0.022360679774997897</speed>
  <fix>3d</fix>
</trkpt>
<trkpt lat="-27.2744125" lon="151.2900659">
  <ele>343.09</ele>
  <time>2026-09-01T19:54:58Z</time>
  <course>12.62</course>
  <speed>0.0</speed>
  <fix>3d</fix>
</trkpt>
<trkpt lat="-27.2744127" lon="151.290066">
  <ele>343.1</ele>
  <time>2026-09-01T19:54:58Z</time>
  <course>14.23</course>
  <speed>0.022360679774997897</speed>
  <fix>3d</fix>
</trkpt>
<trkpt lat="-27.2744125" lon="151.2900659">
  <ele>343.09</ele>
  <time>2026-09-01T19:54:58Z</time>
  <course>12.62</course>
  <speed>0.0</speed>
  <fix>3d</fix>
</trkpt>
<trkpt lat="-27.2744127" lon="151.290066">
  <ele>343.1</ele>
  <time>2026-09-01T19:54:58Z</time>
  <course>14.23</course>
  <speed>0.022360679774997897</speed>
  <fix>3d</fix>
</trkpt>
<trkpt lat="-27.2744125" lon="151.2900659">
  <ele>343.09</ele>
  <time>2026-09-01T19:54:58Z</time>
  <course>12.62</course>
  <speed>0.0</speed>
  <fix>3d</fix>
</trkpt>
<trkpt lat="-27.2744127" lon="151.290066">
  <ele>343.1</ele>
  <time>2026-09-01T19:54:58Z</time>
  <course>14.24</course>
  <speed>0.022360679774997897</speed>
  <fix>3d</fix>
</trkpt>
<trkpt lat="-27.2744125" lon="151.2900659">
  <ele>343.09</ele>
  <time>2026-09-01T19:54:58Z</time>
  <course>12.62</course>
  <speed>0.0</speed>
  <fix>3d</fix>
</trkpt>
<trkpt lat="-27.2744127" lon="151.290066">
  <ele>343.1</ele>
  <time>2026-09-01T19:54:58Z</time>
  <course>14.24</course>
  <speed>0.022360679774997897</speed>
  <fix>3d</fix>
</trkpt>
<trkpt lat="-27.2744125" lon="151.2900659">
  <ele>343.09</ele>
  <time>2026-09-01T19:54:58Z</time>
  <course>12.62</course>
  <speed>0.0</speed>
  <fix>3d</fix>
</trkpt>
<trkpt lat="-27.2744127" lon="151.290066">
  <ele>343.11</ele>
  <time>2026-09-01T19:54:58Z</time>
  <course>14.24</course>
  <speed>0.022360679774997897</speed>
  <fix>3d</fix>
</trkpt>
<trkpt lat="-27.2744125" lon="151.2900659">
  <ele>343.09</ele>
  <time>2026-09-01T19:54:58Z</time>
  <course>12.62</course>
  <speed>0.0</speed>
  <fix>3d</fix>
</trkpt>
<trkpt lat="-27.2744127" lon="151.290066">
  <ele>343.11</ele>
  <time>2026-09-01T19:54:58Z</time>
  <course>14.25</course>
  <speed>0.022360679774997897</speed>
  <fix>3d</fix>
</trkpt>
<trkpt lat="-27.2744125" lon="151.2900659">
  <ele>343.09</ele>
  <time>2026-09-01T19:54:58Z</time>
  <course>12.62</course>
  <speed>0.0</speed>
  <fix>3d</fix>
</trkpt>
<trkpt lat="-27.2744127" lon="151.290066">
  <ele>343.11</ele>
  <time>2026-09-01T19:54:58Z</time>
  <course>14.25</course>
  <speed>0.022360679774997897</speed>
  <fix>3d</fix>
</trkpt>
<trkpt lat="-27.2744125" lon="151.2900659">
  <ele>343.09</ele>
  <time>2026-09-01T19:54:58Z</time>
  <course>12.62</course>
  <speed>0.0</speed>
  <fix>3d</fix>
</trkpt>
<trkpt lat="-27.2744127" lon="151.290066">
  <ele>343.11</ele>
  <time>2026-09-01T19:54:58Z</time>
  <course>14.25</course>
  <speed>0.022360679774997897</speed>
  <fix>3d</fix>
</trkpt>
<trkpt lat="-27.2744125" lon="151.2900659">
  <ele>343.09</ele>
  <time>2026-09-01T19:54:58Z</time>
  <course>12.62</course>
  <speed>0.0</speed>
  <fix>3d</fix>
</trkpt>
<trkpt lat="-27.2744127" lon="151.290066">
  <ele>343.11</ele>
  <time>2026-09-01T19:54:58Z</time>
  <course>14.25</course>
  <speed>0.022360679774997897</speed>
  <fix>3d</fix>
</trkpt>
<trkpt lat="-27.2744125" lon="151.2900659">
  <ele>343.09</ele>
  <time>2026-09-01T19:54:58Z</time>
  <course>12.62</course>
  <speed>0.0</speed>
  <fix>3d</fix>
</trkpt>
<trkpt lat="-27.2744127" lon="151.290066">
  <ele>343.11</ele>
  <time>2026-09-01T19:54:58Z</time>
  <course>14.26</course>
  <speed>0.022360679774997897</speed>
  <fix>3d</fix>
</trkpt>
<trkpt lat="-27.2744125" lon="151.2900659">
  <ele>343.09</ele>
  <time>2026-09-01T19:54:58Z</time>
  <course>12.62</course>
  <speed>0.0</speed>
  <fix>3d</fix>
</trkpt>
<trkpt lat="-27.2744127" lon="151.290066">
  <ele>343.12</ele>
  <time>2026-09-01T19:54:58Z</time>
  <course>14.26</course>
  <speed>0.022360679774997897</speed>
  <fix>3d</fix>
</trkpt>
<trkpt lat="-27.2744125" lon="151.2900659">
  <ele>343.09</ele>
  <time>2026-09-01T19:54:58Z</time>
  <course>12.62</course>
  <speed>0.0</speed>
  <fix>3d</fix>
</trkpt>
<trkpt lat="-27.2744127" lon="151.290066">
  <ele>343.12</ele>
  <time>2026-09-01T19:54:58Z</time>
  <course>14.26</course>
  <speed>0.022360679774997897</speed>
  <fix>3d</fix>
</trkpt>
<trkpt lat="-27.2744125" lon="151.2900659">
  <ele>343.09</ele>
  <time>2026-09-01T19:54:58Z</time>
  <course>12.62</course>
  <speed>0.0</speed>
  <fix>3d</fix>
</trkpt>
<trkpt lat="-27.2744127" lon="151.290066">
  <ele>343.12</ele>
  <time>2026-09-01T19:54:58Z</time>
  <course>14.26</course>
  <speed>0.022360679774997897</speed>
  <fix>3d</fix>
</trkpt>
<trkpt lat="-27.2744125" lon="151.2900659">
  <ele>343.09</ele>
  <time>2026-09-01T19:54:58Z</time>
  <course>12.62</course>
  <speed>0.0</speed>
  <fix>3d</fix>
</trkpt>
<trkpt lat="-27.2744127" lon="151.290066">
  <ele>343.12</ele>
  <time>2026-09-01T19:54:58Z</time>
  <course>14.27</course>
  <speed>0.022360679774997897</speed>
  <fix>3d</fix>
</trkpt>
<trkpt lat="-27.2744125" lon="151.2900659">
  <ele>343.09</ele>
  <time>2026-09-01T19:54:58Z</time>
  <course>12.62</course>
  <speed>0.0</speed>
  <fix>3d</fix>
</trkpt>
<trkpt lat="-27.2744127" lon="151.290066">
  <ele>343.12</ele>
  <time>2026-09-01T19:54:58Z</time>
  <course>14.27</course>
  <speed>0.022360679774997897</speed>
  <fix>3d</fix>
</trkpt>
<trkpt lat="-27.2744125" lon="151.2900659">
  <ele>343.09</ele>
  <time>2026-09-01T19:54:58Z</time>
  <course>12.62</course>
  <speed>0.0</speed>
  <fix>3d</fix>
</trkpt>
<trkpt lat="-27.2744127" lon="151.290066">
  <ele>343.12</ele>
  <time>2026-09-01T19:54:58Z</time>
  <course>14.27</course>
  <speed>0.022360679774997897</speed>
  <fix>3d</fix>
</trkpt>
<trkpt lat="-27.2744125" lon="151.2900659">
  <ele>343.09</ele>
  <time>2026-09-01T19:54:58Z</time>
  <course>12.62</course>
  <speed>0.0</speed>
  <fix>3d</fix>
</trkpt>
<trkpt lat="-27.2744127" lon="151.290066">
  <ele>343.09</ele>
  <time>2026-09-01T19:54:58Z</time>
  <course>14.27</course>
  <speed>0.022360679774997897</speed>
  <fix>3d</fix>
</trkpt>
<trkpt lat="-27.2744125" lon="151.2900659">
  <ele>343.09</ele>
  <time>2026-09-01T19:54:58Z</time>
  <course>12.62</course>
  <speed>0.0</speed>
  <fix>3d</fix>
</trkpt>
<trkpt lat="-27.2744127" lon="151.290066">
  <ele>343.08</ele>
  <time>2026-09-01T19:54:58Z</time>
  <course>14.28</course>
  <speed>0.022360679774997897</speed>
  <fix>3d</fix>
</trkpt>
<trkpt lat="-27.2744125" lon="151.2900659">
  <ele>343.09</ele>
  <time>2026-09-01T19:54:58Z</time>
  <course>12.62</course>
  <speed>0.0</speed>
  <fix>3d</fix>
</trkpt>
<trkpt lat="-27.2744127" lon="151.290066">
  <ele>343.09</ele>
  <time>2026-09-01T19:54:58Z</time>
  <course>14.28</course>
  <speed>0.022360679774997897</speed>
  <fix>3d</fix>
</trkpt>
<trkpt lat="-27.2744125" lon="151.2900659">
  <ele>343.09</ele>
  <time>2026-09-01T19:54:58Z</time>
  <course>12.62</course>
  <speed>0.0</speed>
  <fix>3d</fix>
</trkpt>
<trkpt lat="-27.2744127" lon="151.290066">
  <ele>343.09</ele>
  <time>2026-09-01T19:54:58Z</time>
  <course>14.28</course>
  <speed>0.022360679774997897</speed>
  <fix>3d</fix>
</trkpt>
<trkpt lat="-27.2744125" lon="151.2900659">
  <ele>343.09</ele>
  <time>2026-09-01T19:54:58Z</time>
  <course>12.62</course>
  <speed>0.0</speed>
  <fix>3d</fix>
</trkpt>
<trkpt lat="-27.2744127" lon="151.290066">
  <ele>343.09</ele>
  <time>2026-09-01T19:54:58Z</time>
  <course>14.28</course>
  <speed>0.022360679774997897</speed>
  <fix>3d</fix>
</trkpt>
<trkpt lat="-27.2744125" lon="151.2900659">
  <ele>343.09</ele>
  <time>2026-09-01T19:54:58Z</time>
  <course>12.62</course>
  <speed>0.0</speed>
  <fix>3d</fix>
</trkpt>
<trkpt lat="-27.2744127" lon="151.290066">
  <ele>343.1</ele>
  <time>2026-09-01T19:54:58Z</time>
  <course>14.29</course>
  <speed>0.022360679774997897</speed>
  <fix>3d</fix>
</trkpt>
<trkpt lat="-27.2744125" lon="151.2900659">
  <ele>343.09</ele>
  <time>2026-09-01T19:54:58Z</time>
  <course>12.62</course>
  <speed>0.0</speed>
  <fix>3d</fix>
</trkpt>
<trkpt lat="-27.2744127" lon="151.290066">
  <ele>343.1</ele>
  <time>2026-09-01T19:54:58Z</time>
  <course>14.29</course>
  <speed>0.022360679774997897</speed>
  <fix>3d</fix>
</trkpt>
<trkpt lat="-27.2744125" lon="151.2900659">
  <ele>343.09</ele>
  <time>2026-09-01T19:54:58Z</time>
  <course>12.62</course>
  <speed>0.0</speed>
  <fix>3d</fix>
</trkpt>
<trkpt lat="-27.2744127" lon="151.290066">
  <ele>343.1</ele>
  <time>2026-09-01T19:54:58Z</time>
  <course>14.29</course>
  <speed>0.022360679774997897</speed>
  <fix>3d</fix>
</trkpt>
<trkpt lat="-27.2744125" lon="151.2900659">
  <ele>343.09</ele>
  <time>2026-09-01T19:54:58Z</time>
  <course>12.62</course>
  <speed>0.0</speed>
  <fix>3d</fix>
</trkpt>
<trkpt lat="-27.2744127" lon="151.290066">
  <ele>343.11</ele>
  <time>2026-09-01T19:54:58Z</time>
  <course>14.29</course>
  <speed>0.022360679774997897</speed>
  <fix>3d</fix>
</trkpt>
<trkpt lat="-27.2744125" lon="151.2900659">
  <ele>343.09</ele>
  <time>2026-09-01T19:54:58Z</time>
  <course>12.62</course>
  <speed>0.0</speed>
  <fix>3d</fix>
</trkpt>
<trkpt lat="-27.2744127" lon="151.290066">
  <ele>343.11</ele>
  <time>2026-09-01T19:54:58Z</time>
  <course>14.3</course>
  <speed>0.022360679774997897</speed>
  <fix>3d</fix>
</trkpt>
<trkpt lat="-27.2744125" lon="151.2900659">
  <ele>343.09</ele>
  <time>2026-09-01T19:54:58Z</time>
  <course>12.62</course>
  <speed>0.0</speed>
  <fix>3d</fix>
</trkpt>
<trkpt lat="-27.2744127" lon="151.290066">
  <ele>343.11</ele>
  <time>2026-09-01T19:54:58Z</time>
  <course>14.3</course>
  <speed>0.022360679774997897</speed>
  <fix>3d</fix>
</trkpt>
<trkpt lat="-27.2744125" lon="151.2900659">
  <ele>343.09</ele>
  <time>2026-09-01T19:54:58Z</time>
  <course>12.62</course>
  <speed>0.0</speed>
  <fix>3d</fix>
</trkpt>
<trkpt lat="-27.2744127" lon="151.290066">
  <ele>343.11</ele>
  <time>2026-09-01T19:54:58Z</time>
  <course>14.3</course>
  <speed>0.022360679774997897</speed>
  <fix>3d</fix>
</trkpt>
<trkpt lat="-27.2744125" lon="151.2900659">
  <ele>343.09</ele>
  <time>2026-09-01T19:54:58Z</time>
  <course>12.62</course>
  <speed>0.0</speed>
  <fix>3d</fix>
</trkpt>
<trkpt lat="-27.2744127" lon="151.290066">
  <ele>343.12</ele>
  <time>2026-09-01T19:54:58Z</time>
  <course>14.3</course>
  <speed>0.022360679774997897</speed>
  <fix>3d</fix>
</trkpt>
<trkpt lat="-27.2744125" lon="151.2900659">
  <ele>343.09</ele>
  <time>2026-09-01T19:54:58Z</time>
  <course>12.62</course>
  <speed>0.0</speed>
  <fix>3d</fix>
</trkpt>
<trkpt lat="-27.2744127" lon="151.290066">
  <ele>343.12</ele>
  <time>2026-09-01T19:54:58Z</time>
  <course>14.31</course>
  <speed>0.022360679774997897</speed>
  <fix>3d</fix>
</trkpt>
<trkpt lat="-27.2744125" lon="151.2900659">
  <ele>343.09</ele>
  <time>2026-09-01T19:54:58Z</time>
  <course>12.62</course>
  <speed>0.0</speed>
  <fix>3d</fix>
</trkpt>
<trkpt lat="-27.2744127" lon="151.290066">
  <ele>343.12</ele>
  <time>2026-09-01T19:54:58Z</time>
  <course>14.31</course>
  <speed>0.022360679774997897</speed>
  <fix>3d</fix>
</trkpt>
<trkpt lat="-27.2744125" lon="151.2900659">
  <ele>343.09</ele>
  <time>2026-09-01T19:54:58Z</time>
  <course>12.62</course>
  <speed>0.0</speed>
  <fix>3d</fix>
</trkpt>
<trkpt lat="-27.2744127" lon="151.290066">
  <ele>343.12</ele>
  <time>2026-09-01T19:54:58Z</time>
  <course>14.31</course>
  <speed>0.022360679774997897</speed>
  <fix>3d</fix>
</trkpt>
<trkpt lat="-27.2744125" lon="151.2900659">
  <ele>343.09</ele>
  <time>2026-09-01T19:54:58Z</time>
  <course>12.62</course>
  <speed>0.0</speed>
  <fix>3d</fix>
</trkpt>
<trkpt lat="-27.2744127" lon="151.290066">
  <ele>343.12</ele>
  <time>2026-09-01T19:54:58Z</time>
  <course>14.31</course>
  <speed>0.022360679774997897</speed>
  <fix>3d</fix>
</trkpt>
<trkpt lat="-27.2744125" lon="151.2900659">
  <ele>343.09</ele>
  <time>2026-09-01T19:54:58Z</time>
  <course>12.62</course>
  <speed>0.0</speed>
  <fix>3d</fix>
</trkpt>
<trkpt lat="-27.2744127" lon="151.290066">
  <ele>343.13</ele>
  <time>2026-09-01T19:54:58Z</time>
  <course>14.31</course>
  <speed>0.022360679774997897</speed>
  <fix>3d</fix>
</trkpt>
<trkpt lat="-27.2744125" lon="151.2900659">
  <ele>343.09</ele>
  <time>2026-09-01T19:54:58Z</time>
  <course>12.62</course>
  <speed>0.0</speed>
  <fix>3d</fix>
</trkpt>
<trkpt lat="-27.2744127" lon="151.290066">
  <ele>343.13</ele>
  <time>2026-09-01T19:54:58Z</time>
  <course>14.32</course>
  <speed>0.022360679774997897</speed>
  <fix>3d</fix>
</trkpt>
<trkpt lat="-27.2744125" lon="151.2900659">
  <ele>343.09</ele>
  <time>2026-09-01T19:54:58Z</time>
  <course>12.62</course>
  <speed>0.0</speed>
  <fix>3d</fix>
</trkpt>
<trkpt lat="-27.2744127" lon="151.290066">
  <ele>343.14</ele>
  <time>2026-09-01T19:54:58Z</time>
  <course>14.32</course>
  <speed>0.022360679774997897</speed>
  <fix>3d</fix>
</trkpt>
<trkpt lat="-27.2744125" lon="151.2900659">
  <ele>343.09</ele>
  <time>2026-09-01T19:54:58Z</time>
  <course>12.62</course>
  <speed>0.0</speed>
  <fix>3d</fix>
</trkpt>
<trkpt lat="-27.2744127" lon="151.290066">
  <ele>343.14</ele>
  <time>2026-09-01T19:54:58Z</time>
  <course>14.32</course>
  <speed>0.022360679774997897</speed>
  <fix>3d</fix>
</trkpt>
<trkpt lat="-27.2744125" lon="151.2900659">
  <ele>343.09</ele>
  <time>2026-09-01T19:54:58Z</time>
  <course>12.62</course>
  <speed>0.0</speed>
  <fix>3d</fix>
</trkpt>
<trkpt lat="-27.2744127" lon="151.290066">
  <ele>343.14</ele>
  <time>2026-09-01T19:54:58Z</time>
  <course>14.32</course>
  <speed>0.022360679774997897</speed>
  <fix>3d</fix>
</trkpt>
<trkpt lat="-27.2744125" lon="151.2900659">
  <ele>343.09</ele>
  <time>2026-09-01T19:54:58Z</time>
  <course>12.62</course>
  <speed>0.0</speed>
  <fix>3d</fix>
</trkpt>
<trkpt lat="-27.2744127" lon="151.290066">
  <ele>343.14</ele>
  <time>2026-09-01T19:54:58Z</time>
  <course>14.33</course>
  <speed>0.022360679774997897</speed>
  <fix>3d</fix>
</trkpt>
<trkpt lat="-27.2744125" lon="151.2900659">
  <ele>343.09</ele>
  <time>2026-09-01T19:54:58Z</time>
  <course>12.62</course>
  <speed>0.0</speed>
  <fix>3d</fix>
</trkpt>
<trkpt lat="-27.2744127" lon="151.290066">
  <ele>343.15</ele>
  <time>2026-09-01T19:54:58Z</time>
  <course>14.33</course>
  <speed>0.022360679774997897</speed>
  <fix>3d</fix>
</trkpt>
<trkpt lat="-27.2744125" lon="151.2900659">
  <ele>343.09</ele>
  <time>2026-09-01T19:54:58Z</time>
  <course>12.62</course>
  <speed>0.0</speed>
  <fix>3d</fix>
</trkpt>
<trkpt lat="-27.2744127" lon="151.290066">
  <ele>343.15</ele>
  <time>2026-09-01T19:54:58Z</time>
  <course>14.33</course>
  <speed>0.022360679774997897</speed>
  <fix>3d</fix>
</trkpt>
<trkpt lat="-27.2744125" lon="151.2900659">
  <ele>343.09</ele>
  <time>2026-09-01T19:54:58Z</time>
  <course>12.62</course>
  <speed>0.0</speed>
  <fix>3d</fix>
</trkpt>
<trkpt lat="-27.2744127" lon="151.290066">
  <ele>343.15</ele>
  <time>2026-09-01T19:54:58Z</time>
  <course>14.33</course>
  <speed>0.022360679774997897</speed>
  <fix>3d</fix>
</trkpt>
<trkpt lat="-27.2744125" lon="151.2900659">
  <ele>343.09</ele>
  <time>2026-09-01T19:54:58Z</time>
  <course>12.62</course>
  <speed>0.0</speed>
  <fix>3d</fix>
</trkpt>
<trkpt lat="-27.2744127" lon="151.290066">
  <ele>343.16</ele>
  <time>2026-09-01T19:54:58Z</time>
  <course>14.34</course>
  <speed>0.022360679774997897</speed>
  <fix>3d</fix>
</trkpt>
<trkpt lat="-27.2744125" lon="151.2900659">
  <ele>343.09</ele>
  <time>2026-09-01T19:54:58Z</time>
  <course>12.62</course>
  <speed>0.0</speed>
  <fix>3d</fix>
</trkpt>
<trkpt lat="-27.2744127" lon="151.290066">
  <ele>343.16</ele>
  <time>2026-09-01T19:54:58Z</time>
  <course>14.34</course>
  <speed>0.022360679774997897</speed>
  <fix>3d</fix>
</trkpt>
<trkpt lat="-27.2744125" lon="151.2900659">
  <ele>343.09</ele>
  <time>2026-09-01T19:54:58Z</time>
  <course>12.62</course>
  <speed>0.0</speed>
  <fix>3d</fix>
</trkpt>
<trkpt lat="-27.2744127" lon="151.290066">
  <ele>343.16</ele>
  <time>2026-09-01T19:54:58Z</time>
  <course>14.34</course>
  <speed>0.022360679774997897</speed>
  <fix>3d</fix>
</trkpt>
<trkpt lat="-27.2744125" lon="151.2900659">
  <ele>343.09</ele>
  <time>2026-09-01T19:54:58Z</time>
  <course>12.62</course>
  <speed>0.0</speed>
  <fix>3d</fix>
</trkpt>
<trkpt lat="-27.2744127" lon="151.290066">
  <ele>343.17</ele>
  <time>2026-09-01T19:54:58Z</time>
  <course>14.34</course>
  <speed>0.022360679774997897</speed>
  <fix>3d</fix>
</trkpt>
<trkpt lat="-27.2744125" lon="151.2900659">
  <ele>343.09</ele>
  <time>2026-09-01T19:54:58Z</time>
  <course>12.62</course>
  <speed>0.0</speed>
  <fix>3d</fix>
</trkpt>
<trkpt lat="-27.2744127" lon="151.290066">
  <ele>343.17</ele>
  <time>2026-09-01T19:54:58Z</time>
  <course>14.34</course>
  <speed>0.022360679774997897</speed>
  <fix>3d</fix>
</trkpt>
<trkpt lat="-27.2744125" lon="151.2900659">
  <ele>343.09</ele>
  <time>2026-09-01T19:54:58Z</time>
  <course>12.62</course>
  <speed>0.0</speed>
  <fix>3d</fix>
</trkpt>
<trkpt lat="-27.2744127" lon="151.290066">
  <ele>343.17</ele>
  <time>2026-09-01T19:54:58Z</time>
  <course>14.35</course>
  <speed>0.022360679774997897</speed>
  <fix>3d</fix>
</trkpt>
<trkpt lat="-27.2744125" lon="151.2900659">
  <ele>343.09</ele>
  <time>2026-09-01T19:54:58Z</time>
  <course>12.62</course>
  <speed>0.0</speed>
  <fix>3d</fix>
</trkpt>
<trkpt lat="-27.2744127" lon="151.290066">
  <ele>343.18</ele>
  <time>2026-09-01T19:54:58Z</time>
  <course>14.35</course>
  <speed>0.022360679774997897</speed>
  <fix>3d</fix>
</trkpt>
<trkpt lat="-27.2744125" lon="151.2900659">
  <ele>343.09</ele>
  <time>2026-09-01T19:54:58Z</time>
  <course>12.62</course>
  <speed>0.0</speed>
  <fix>3d</fix>
</trkpt>
<trkpt lat="-27.2744127" lon="151.290066">
  <ele>343.18</ele>
  <time>2026-09-01T19:54:58Z</time>
  <course>14.35</course>
  <speed>0.022360679774997897</speed>
  <fix>3d</fix>
</trkpt>
<trkpt lat="-27.2744125" lon="151.2900659">
  <ele>343.09</ele>
  <time>2026-09-01T19:54:58Z</time>
  <course>12.62</course>
  <speed>0.0</speed>
  <fix>3d</fix>
</trkpt>
<trkpt lat="-27.2744127" lon="151.290066">
  <ele>343.18</ele>
  <time>2026-09-01T19:54:58Z</time>
  <course>14.35</course>
  <speed>0.022360679774997897</speed>
  <fix>3d</fix>
</trkpt>
<trkpt lat="-27.2744125" lon="151.2900659">
  <ele>343.09</ele>
  <time>2026-09-01T19:54:58Z</time>
  <course>12.62</course>
  <speed>0.0</speed>
  <fix>3d</fix>
</trkpt>
<trkpt lat="-27.2744127" lon="151.290066">
  <ele>343.19</ele>
  <time>2026-09-01T19:54:58Z</time>
  <course>14.36</course>
  <speed>0.022360679774997897</speed>
  <fix>3d</fix>
</trkpt>
<trkpt lat="-27.2744125" lon="151.2900659">
  <ele>343.09</ele>
  <time>2026-09-01T19:54:58Z</time>
  <course>12.62</course>
  <speed>0.0</speed>
  <fix>3d</fix>
</trkpt>
<trkpt lat="-27.2744127" lon="151.290066">
  <ele>343.19</ele>
  <time>2026-09-01T19:54:58Z</time>
  <course>14.36</course>
  <speed>0.022360679774997897</speed>
  <fix>3d</fix>
</trkpt>
<trkpt lat="-27.2744125" lon="151.2900659">
  <ele>343.09</ele>
  <time>2026-09-01T19:54:58Z</time>
  <course>12.62</course>
  <speed>0.0</speed>
  <fix>3d</fix>
</trkpt>
<trkpt lat="-27.2744127" lon="151.290066">
  <ele>343.2</ele>
  <time>2026-09-01T19:54:58Z</time>
  <course>14.36</course>
  <speed>0.022360679774997897</speed>
  <fix>3d</fix>
</trkpt>
<trkpt lat="-27.2744125" lon="151.2900659">
  <ele>343.09</ele>
  <time>2026-09-01T19:54:58Z</time>
  <course>12.62</course>
  <speed>0.0</speed>
  <fix>3d</fix>
</trkpt>
<trkpt lat="-27.2744127" lon="151.290066">
  <ele>343.2</ele>
  <time>2026-09-01T19:54:58Z</time>
  <course>14.36</course>
  <speed>0.022360679774997897</speed>
  <fix>3d</fix>
</trkpt>
<trkpt lat="-27.2744125" lon="151.2900659">
  <ele>343.09</ele>
  <time>2026-09-01T19:54:58Z</time>
  <course>12.62</course>
  <speed>0.0</speed>
  <fix>3d</fix>
</trkpt>
<trkpt lat="-27.2744127" lon="151.290066">
  <ele>343.21</ele>
  <time>2026-09-01T19:54:58Z</time>
  <course>14.36</course>
  <speed>0.022360679774997897</speed>
  <fix>3d</fix>
</trkpt>
<trkpt lat="-27.2744125" lon="151.2900659">
  <ele>343.09</ele>
  <time>2026-09-01T19:54:58Z</time>
  <course>12.62</course>
  <speed>0.0</speed>
  <fix>3d</fix>
</trkpt>
<trkpt lat="-27.2744127" lon="151.290066">
  <ele>343.21</ele>
  <time>2026-09-01T19:54:58Z</time>
  <course>14.37</course>
  <speed>0.022360679774997897</speed>
  <fix>3d</fix>
</trkpt>
<trkpt lat="-27.2744125" lon="151.2900659">
  <ele>343.09</ele>
  <time>2026-09-01T19:54:58Z</time>
  <course>12.62</course>
  <speed>0.0</speed>
  <fix>3d</fix>
</trkpt>
<trkpt lat="-27.2744127" lon="151.290066">
  <ele>343.22</ele>
  <time>2026-09-01T19:54:58Z</time>
  <course>14.37</course>
  <speed>0.022360679774997897</speed>
  <fix>3d</fix>
</trkpt>
<trkpt lat="-27.2744125" lon="151.2900659">
  <ele>343.09</ele>
  <time>2026-09-01T19:54:58Z</time>
  <course>12.62</course>
  <speed>0.0</speed>
  <fix>3d</fix>
</trkpt>
<trkpt lat="-27.2744127" lon="151.290066">
  <ele>343.22</ele>
  <time>2026-09-01T19:54:58Z</time>
  <course>14.37</course>
  <speed>0.022360679774997897</speed>
  <fix>3d</fix>
</trkpt>
<trkpt lat="-27.2744125" lon="151.2900659">
  <ele>343.09</ele>
  <time>2026-09-01T19:54:58Z</time>
  <course>12.62</course>
  <speed>0.0</speed>
  <fix>3d</fix>
</trkpt>
<trkpt lat="-27.2744127" lon="151.290066">
  <ele>343.23</ele>
  <time>2026-09-01T19:54:58Z</time>
  <course>14.37</course>
  <speed>0.022360679774997897</speed>
  <fix>3d</fix>
</trkpt>
<trkpt lat="-27.2744125" lon="151.2900659">
  <ele>343.09</ele>
  <time>2026-09-01T19:54:58Z</time>
  <course>12.62</course>
  <speed>0.0</speed>
  <fix>3d</fix>
</trkpt>
<trkpt lat="-27.2744127" lon="151.290066">
  <ele>343.23</ele>
  <time>2026-09-01T19:54:58Z</time>
  <course>14.38</course>
  <speed>0.022360679774997897</speed>
  <fix>3d</fix>
</trkpt>
<trkpt lat="-27.2744125" lon="151.2900659">
  <ele>343.09</ele>
  <time>2026-09-01T19:54:58Z</time>
  <course>12.62</course>
  <speed>0.0</speed>
  <fix>3d</fix>
</trkpt>
<trkpt lat="-27.2744127" lon="151.290066">
  <ele>343.23</ele>
  <time>2026-09-01T19:54:58Z</time>
  <course>14.38</course>
  <speed>0.022360679774997897</speed>
  <fix>3d</fix>
</trkpt>
<trkpt lat="-27.2744125" lon="151.2900659">
  <ele>343.09</ele>
  <time>2026-09-01T19:54:58Z</time>
  <course>12.62</course>
  <speed>0.0</speed>
  <fix>3d</fix>
</trkpt>
<trkpt lat="-27.2744127" lon="151.290066">
  <ele>343.24</ele>
  <time>2026-09-01T19:54:58Z</time>
  <course>14.38</course>
  <speed>0.022360679774997897</speed>
  <fix>3d</fix>
</trkpt>
<trkpt lat="-27.2744125" lon="151.2900659">
  <ele>343.09</ele>
  <time>2026-09-01T19:54:58Z</time>
  <course>12.62</course>
  <speed>0.0</speed>
  <fix>3d</fix>
</trkpt>
<trkpt lat="-27.2744127" lon="151.290066">
  <ele>343.24</ele>
  <time>2026-09-01T19:54:58Z</time>
  <course>14.38</course>
  <speed>0.022360679774997897</speed>
  <fix>3d</fix>
</trkpt>
<trkpt lat="-27.2744125" lon="151.2900659">
  <ele>343.09</ele>
  <time>2026-09-01T19:54:58Z</time>
  <course>12.62</course>
  <speed>0.0</speed>
  <fix>3d</fix>
</trkpt>
<trkpt lat="-27.2744127" lon="151.290066">
  <ele>343.24</ele>
  <time>2026-09-01T19:54:58Z</time>
  <course>14.38</course>
  <speed>0.022360679774997897</speed>
  <fix>3d</fix>
</trkpt>
<trkpt lat="-27.2744125" lon="151.2900659">
  <ele>343.09</ele>
  <time>2026-09-01T19:54:58Z</time>
  <course>12.62</course>
  <speed>0.0</speed>
  <fix>3d</fix>
</trkpt>
<trkpt lat="-27.2744127" lon="151.290066">
  <ele>343.24</ele>
  <time>2026-09-01T19:54:58Z</time>
  <course>14.39</course>
  <speed>0.022360679774997897</speed>
  <fix>3d</fix>
</trkpt>
<trkpt lat="-27.2744125" lon="151.2900659">
  <ele>343.09</ele>
  <time>2026-09-01T19:54:58Z</time>
  <course>12.62</course>
  <speed>0.0</speed>
  <fix>3d</fix>
</trkpt>
<trkpt lat="-27.2744127" lon="151.290066">
  <ele>343.24</ele>
  <time>2026-09-01T19:54:58Z</time>
  <course>14.39</course>
  <speed>0.022360679774997897</speed>
  <fix>3d</fix>
</trkpt>
<trkpt lat="-27.2744125" lon="151.2900659">
  <ele>343.09</ele>
  <time>2026-09-01T19:54:58Z</time>
  <course>12.62</course>
  <speed>0.0</speed>
  <fix>3d</fix>
</trkpt>
<trkpt lat="-27.2744127" lon="151.290066">
  <ele>343.24</ele>
  <time>2026-09-01T19:54:58Z</time>
  <course>14.39</course>
  <speed>0.022360679774997897</speed>
  <fix>3d</fix>
</trkpt>
<trkpt lat="-27.2744125" lon="151.2900659">
  <ele>343.09</ele>
  <time>2026-09-01T19:54:58Z</time>
  <course>12.62</course>
  <speed>0.0</speed>
  <fix>3d</fix>
</trkpt>
<trkpt lat="-27.2744127" lon="151.290066">
  <ele>343.24</ele>
  <time>2026-09-01T19:54:58Z</time>
  <course>14.39</course>
  <speed>0.022360679774997897</speed>
  <fix>3d</fix>
</trkpt>
<trkpt lat="-27.2744125" lon="151.2900659">
  <ele>343.09</ele>
  <time>2026-09-01T19:54:58Z</time>
  <course>12.62</course>
  <speed>0.0</speed>
  <fix>3d</fix>
</trkpt>
<trkpt lat="-27.2744127" lon="151.290066">
  <ele>343.24</ele>
  <time>2026-09-01T19:54:58Z</time>
  <course>14.39</course>
  <speed>0.022360679774997897</speed>
  <fix>3d</fix>
</trkpt>
<trkpt lat="-27.2744125" lon="151.2900659">
  <ele>343.09</ele>
  <time>2026-09-01T19:54:58Z</time>
  <course>12.62</course>
  <speed>0.0</speed>
  <fix>3d</fix>
</trkpt>
<trkpt lat="-27.2744127" lon="151.290066">
  <ele>343.24</ele>
  <time>2026-09-01T19:54:58Z</time>
  <course>14.39</course>
  <speed>0.022360679774997897</speed>
  <fix>3d</fix>
</trkpt>
<trkpt lat="-27.2744125" lon="151.2900659">
  <ele>343.09</ele>
  <time>2026-09-01T19:54:58Z</time>
  <course>12.62</course>
  <speed>0.0</speed>
  <fix>3d</fix>
</trkpt>
<trkpt lat="-27.2744127" lon="151.290066">
  <ele>343.24</ele>
  <time>2026-09-01T19:54:58Z</time>
  <course>14.4</course>
  <speed>0.022360679774997897</speed>
  <fix>3d</fix>
</trkpt>
<trkpt lat="-27.2744125" lon="151.2900659">
  <ele>343.09</ele>
  <time>2026-09-01T19:54:58Z</time>
  <course>12.62</course>
  <speed>0.0</speed>
  <fix>3d</fix>
</trkpt>
<trkpt lat="-27.2744127" lon="151.290066">
  <ele>343.24</ele>
  <time>2026-09-01T19:54:58Z</time>
  <course>14.4</course>
  <speed>0.022360679774997897</speed>
  <fix>3d</fix>
</trkpt>
<trkpt lat="-27.2744125" lon="151.2900659">
  <ele>343.09</ele>
  <time>2026-09-01T19:54:58Z</time>
  <course>12.62</course>
  <speed>0.0</speed>
  <fix>3d</fix>
</trkpt>
<trkpt lat="-27.2744127" lon="151.290066">
  <ele>343.24</ele>
  <time>2026-09-01T19:54:58Z</time>
  <course>14.4</course>
  <speed>0.022360679774997897</speed>
  <fix>3d</fix>
</trkpt>
<trkpt lat="-27.2744125" lon="151.2900659">
  <ele>343.09</ele>
  <time>2026-09-01T19:54:58Z</time>
  <course>12.62</course>
  <speed>0.0</speed>
  <fix>3d</fix>
</trkpt>
<trkpt lat="-27.2744127" lon="151.290066">
  <ele>343.25</ele>
  <time>2026-09-01T19:54:58Z</time>
  <course>14.4</course>
  <speed>0.022360679774997897</speed>
  <fix>3d</fix>
</trkpt>
<trkpt lat="-27.2744125" lon="151.2900659">
  <ele>343.09</ele>
  <time>2026-09-01T19:54:58Z</time>
  <course>12.62</course>
  <speed>0.0</speed>
  <fix>3d</fix>
</trkpt>
<trkpt lat="-27.2744127" lon="151.290066">
  <ele>343.25</ele>
  <time>2026-09-01T19:54:58Z</time>
  <course>14.4</course>
  <speed>0.022360679774997897</speed>
  <fix>3d</fix>
</trkpt>
<trkpt lat="-27.2744125" lon="151.2900659">
  <ele>343.09</ele>
  <time>2026-09-01T19:54:58Z</time>
  <course>12.62</course>
  <speed>0.0</speed>
  <fix>3d</fix>
</trkpt>
<trkpt lat="-27.2744127" lon="151.290066">
  <ele>343.09</ele>
  <time>2026-09-01T19:54:58Z</time>
  <course>14.41</course>
  <speed>0.022360679774997897</speed>
  <fix>3d</fix>
</trkpt>
<trkpt lat="-27.2744125" lon="151.2900659">
  <ele>343.09</ele>
  <time>2026-09-01T19:54:58Z</time>
  <course>12.62</course>
  <speed>0.0</speed>
  <fix>3d</fix>
</trkpt>
<trkpt lat="-27.2744127" lon="151.290066">
  <ele>343.09</ele>
  <time>2026-09-01T19:54:58Z</time>
  <course>14.41</course>
  <speed>0.022360679774997897</speed>
  <fix>3d</fix>
</trkpt>
<trkpt lat="-27.2744125" lon="151.2900659">
  <ele>343.09</ele>
  <time>2026-09-01T19:54:58Z</time>
  <course>12.62</course>
  <speed>0.0</speed>
  <fix>3d</fix>
</trkpt>
<trkpt lat="-27.2744127" lon="151.290066">
  <ele>343.09</ele>
  <time>2026-09-01T19:54:58Z</time>
  <course>14.41</course>
  <speed>0.022360679774997897</speed>
  <fix>3d</fix>
</trkpt>
<trkpt lat="-27.2744125" lon="151.2900659">
  <ele>343.09</ele>
  <time>2026-09-01T19:54:58Z</time>
  <course>12.62</course>
  <speed>0.0</speed>
  <fix>3d</fix>
</trkpt>
<trkpt lat="-27.2744127" lon="151.290066">
  <ele>343.09</ele>
  <time>2026-09-01T19:54:58Z</time>
  <course>14.41</course>
  <speed>0.022360679774997897</speed>
  <fix>3d</fix>
</trkpt>
<trkpt lat="-27.2744125" lon="151.2900659">
  <ele>343.09</ele>
  <time>2026-09-01T19:54:58Z</time>
  <course>12.62</course>
  <speed>0.0</speed>
  <fix>3d</fix>
</trkpt>
<trkpt lat="-27.2744127" lon="151.290066">
  <ele>343.09</ele>
  <time>2026-09-01T19:54:58Z</time>
  <course>14.41</course>
  <speed>0.022360679774997897</speed>
  <fix>3d</fix>
</trkpt>
<trkpt lat="-27.2744125" lon="151.2900659">
  <ele>343.09</ele>
  <time>2026-09-01T19:54:58Z</time>
  <course>12.62</course>
  <speed>0.0</speed>
  <fix>3d</fix>
</trkpt>
<trkpt lat="-27.2744127" lon="151.290066">
  <ele>343.09</ele>
  <time>2026-09-01T19:54:58Z</time>
  <course>14.42</course>
  <speed>0.022360679774997897</speed>
  <fix>3d</fix>
</trkpt>
<trkpt lat="-27.2744125" lon="151.2900659">
  <ele>343.09</ele>
  <time>2026-09-01T19:54:58Z</time>
  <course>12.62</course>
  <speed>0.0</speed>
  <fix>3d</fix>
</trkpt>
<trkpt lat="-27.2744127" lon="151.290066">
  <ele>343.1</ele>
  <time>2026-09-01T19:54:58Z</time>
  <course>14.42</course>
  <speed>0.022360679774997897</speed>
  <fix>3d</fix>
</trkpt>
<trkpt lat="-27.2744125" lon="151.2900659">
  <ele>343.09</ele>
  <time>2026-09-01T19:54:58Z</time>
  <course>12.62</course>
  <speed>0.0</speed>
  <fix>3d</fix>
</trkpt>
<trkpt lat="-27.2744127" lon="151.290066">
  <ele>343.1</ele>
  <time>2026-09-01T19:54:58Z</time>
  <course>14.42</course>
  <speed>0.022360679774997897</speed>
  <fix>3d</fix>
</trkpt>
<trkpt lat="-27.2744125" lon="151.2900659">
  <ele>343.09</ele>
  <time>2026-09-01T19:54:58Z</time>
  <course>12.62</course>
  <speed>0.0</speed>
  <fix>3d</fix>
</trkpt>
<trkpt lat="-27.2744127" lon="151.290066">
  <ele>343.11</ele>
  <time>2026-09-01T19:54:58Z</time>
  <course>14.42</course>
  <speed>0.022360679774997897</speed>
  <fix>3d</fix>
</trkpt>
<trkpt lat="-27.2744125" lon="151.2900659">
  <ele>343.09</ele>
  <time>2026-09-01T19:54:58Z</time>
  <course>12.62</course>
  <speed>0.0</speed>
  <fix>3d</fix>
</trkpt>
<trkpt lat="-27.2744127" lon="151.290066">
  <ele>343.11</ele>
  <time>2026-09-01T19:54:58Z</time>
  <course>14.42</course>
  <speed>0.022360679774997897</speed>
  <fix>3d</fix>
</trkpt>
<trkpt lat="-27.2744125" lon="151.2900659">
  <ele>343.09</ele>
  <time>2026-09-01T19:54:58Z</time>
  <course>12.62</course>
  <speed>0.0</speed>
  <fix>3d</fix>
</trkpt>
<trkpt lat="-27.2744127" lon="151.290066">
  <ele>343.11</ele>
  <time>2026-09-01T19:54:58Z</time>
  <course>14.43</course>
  <speed>0.022360679774997897</speed>
  <fix>3d</fix>
</trkpt>
<trkpt lat="-27.2744125" lon="151.2900659">
  <ele>343.09</ele>
  <time>2026-09-01T19:54:58Z</time>
  <course>12.62</course>
  <speed>0.0</speed>
  <fix>3d</fix>
</trkpt>
<trkpt lat="-27.2744127" lon="151.290066">
  <ele>343.11</ele>
  <time>2026-09-01T19:54:58Z</time>
  <course>14.43</course>
  <speed>0.022360679774997897</speed>
  <fix>3d</fix>
</trkpt>
<trkpt lat="-27.2744125" lon="151.2900659">
  <ele>343.09</ele>
  <time>2026-09-01T19:54:58Z</time>
  <course>12.62</course>
  <speed>0.0</speed>
  <fix>3d</fix>
</trkpt>
<trkpt lat="-27.2744127" lon="151.290066">
  <ele>343.12</ele>
  <time>2026-09-01T19:54:58Z</time>
  <course>14.43</course>
  <speed>0.022360679774997897</speed>
  <fix>3d</fix>
</trkpt>
<trkpt lat="-27.2744125" lon="151.2900659">
  <ele>343.09</ele>
  <time>2026-09-01T19:54:58Z</time>
  <course>12.62</course>
  <speed>0.0</speed>
  <fix>3d</fix>
</trkpt>
<trkpt lat="-27.2744127" lon="151.290066">
  <ele>343.12</ele>
  <time>2026-09-01T19:54:58Z</time>
  <course>14.43</course>
  <speed>0.022360679774997897</speed>
  <fix>3d</fix>
</trkpt>
<trkpt lat="-27.2744125" lon="151.2900659">
  <ele>343.09</ele>
  <time>2026-09-01T19:54:58Z</time>
  <course>12.62</course>
  <speed>0.0</speed>
  <fix>3d</fix>
</trkpt>
<trkpt lat="-27.2744127" lon="151.290066">
  <ele>343.12</ele>
  <time>2026-09-01T19:54:58Z</time>
  <course>14.43</course>
  <speed>0.022360679774997897</speed>
  <fix>3d</fix>
</trkpt>
<trkpt lat="-27.2744125" lon="151.2900659">
  <ele>343.09</ele>
  <time>2026-09-01T19:54:58Z</time>
  <course>12.62</course>
  <speed>0.0</speed>
  <fix>3d</fix>
</trkpt>
<trkpt lat="-27.2744127" lon="151.290066">
  <ele>343.13</ele>
  <time>2026-09-01T19:54:58Z</time>
  <course>14.43</course>
  <speed>0.022360679774997897</speed>
  <fix>3d</fix>
</trkpt>
<trkpt lat="-27.2744125" lon="151.2900659">
  <ele>343.09</ele>
  <time>2026-09-01T19:54:58Z</time>
  <course>12.62</course>
  <speed>0.0</speed>
  <fix>3d</fix>
</trkpt>
<trkpt lat="-27.2744127" lon="151.290066">
  <ele>343.13</ele>
  <time>2026-09-01T19:54:58Z</time>
  <course>14.44</course>
  <speed>0.022360679774997897</speed>
  <fix>3d</fix>
</trkpt>
<trkpt lat="-27.2744125" lon="151.2900659">
  <ele>343.09</ele>
  <time>2026-09-01T19:54:58Z</time>
  <course>12.62</course>
  <speed>0.0</speed>
  <fix>3d</fix>
</trkpt>
<trkpt lat="-27.2744127" lon="151.290066">
  <ele>343.13</ele>
  <time>2026-09-01T19:54:58Z</time>
  <course>14.44</course>
  <speed>0.022360679774997897</speed>
  <fix>3d</fix>
</trkpt>
<trkpt lat="-27.2744125" lon="151.2900659">
  <ele>343.09</ele>
  <time>2026-09-01T19:54:58Z</time>
  <course>12.62</course>
  <speed>0.0</speed>
  <fix>3d</fix>
</trkpt>
<trkpt lat="-27.2744127" lon="151.290066">
  <ele>343.13</ele>
  <time>2026-09-01T19:54:58Z</time>
  <course>14.44</course>
  <speed>0.022360679774997897</speed>
  <fix>3d</fix>
</trkpt>
<trkpt lat="-27.2744125" lon="151.2900659">
  <ele>343.09</ele>
  <time>2026-09-01T19:54:58Z</time>
  <course>12.62</course>
  <speed>0.0</speed>
  <fix>3d</fix>
</trkpt>
<trkpt lat="-27.2744127" lon="151.290066">
  <ele>343.14</ele>
  <time>2026-09-01T19:54:58Z</time>
  <course>14.44</course>
  <speed>0.022360679774997897</speed>
  <fix>3d</fix>
</trkpt>
<trkpt lat="-27.2744125" lon="151.2900659">
  <ele>343.09</ele>
  <time>2026-09-01T19:54:58Z</time>
  <course>12.62</course>
  <speed>0.0</speed>
  <fix>3d</fix>
</trkpt>
<trkpt lat="-27.2744127" lon="151.290066">
  <ele>343.14</ele>
  <time>2026-09-01T19:54:58Z</time>
  <course>14.44</course>
  <speed>0.022360679774997897</speed>
  <fix>3d</fix>
</trkpt>
<trkpt lat="-27.2744125" lon="151.2900659">
  <ele>343.09</ele>
  <time>2026-09-01T19:54:58Z</time>
  <course>12.62</course>
  <speed>0.0</speed>
  <fix>3d</fix>
</trkpt>
<trkpt lat="-27.2744127" lon="151.290066">
  <ele>343.14</ele>
  <time>2026-09-01T19:54:58Z</time>
  <course>14.44</course>
  <speed>0.022360679774997897</speed>
  <fix>3d</fix>
</trkpt>
<trkpt lat="-27.2744125" lon="151.2900659">
  <ele>343.09</ele>
  <time>2026-09-01T19:54:58Z</time>
  <course>12.62</course>
  <speed>0.0</speed>
  <fix>3d</fix>
</trkpt>
<trkpt lat="-27.2744127" lon="151.290066">
  <ele>343.14</ele>
  <time>2026-09-01T19:54:58Z</time>
  <course>14.45</course>
  <speed>0.022360679774997897</speed>
  <fix>3d</fix>
</trkpt>
<trkpt lat="-27.2744125" lon="151.2900659">
  <ele>343.09</ele>
  <time>2026-09-01T19:54:58Z</time>
  <course>12.62</course>
  <speed>0.0</speed>
  <fix>3d</fix>
</trkpt>
<trkpt lat="-27.2744127" lon="151.290066">
  <ele>343.14</ele>
  <time>2026-09-01T19:54:58Z</time>
  <course>14.45</course>
  <speed>0.022360679774997897</speed>
  <fix>3d</fix>
</trkpt>
<trkpt lat="-27.2744125" lon="151.2900659">
  <ele>343.09</ele>
  <time>2026-09-01T19:54:58Z</time>
  <course>12.62</course>
  <speed>0.0</speed>
  <fix>3d</fix>
</trkpt>
<trkpt lat="-27.2744127" lon="151.290066">
  <ele>343.14</ele>
  <time>2026-09-01T19:54:58Z</time>
  <course>14.45</course>
  <speed>0.022360679774997897</speed>
  <fix>3d</fix>
</trkpt>
<trkpt lat="-27.2744125" lon="151.2900659">
  <ele>343.09</ele>
  <time>2026-09-01T19:54:58Z</time>
  <course>12.62</course>
  <speed>0.0</speed>
  <fix>3d</fix>
</trkpt>
<trkpt lat="-27.2744127" lon="151.290066">
  <ele>343.15</ele>
  <time>2026-09-01T19:54:58Z</time>
  <course>14.45</course>
  <speed>0.022360679774997897</speed>
  <fix>3d</fix>
</trkpt>
<trkpt lat="-27.2744125" lon="151.2900659">
  <ele>343.09</ele>
  <time>2026-09-01T19:54:58Z</time>
  <course>12.62</course>
  <speed>0.0</speed>
  <fix>3d</fix>
</trkpt>
<trkpt lat="-27.2744127" lon="151.290066">
  <ele>343.15</ele>
  <time>2026-09-01T19:54:58Z</time>
  <course>14.45</course>
  <speed>0.022360679774997897</speed>
  <fix>3d</fix>
</trkpt>
<trkpt lat="-27.2744125" lon="151.2900659">
  <ele>343.09</ele>
  <time>2026-09-01T19:54:58Z</time>
  <course>12.62</course>
  <speed>0.0</speed>
  <fix>3d</fix>
</trkpt>
<trkpt lat="-27.2744127" lon="151.290066">
  <ele>343.15</ele>
  <time>2026-09-01T19:54:58Z</time>
  <course>14.45</course>
  <speed>0.022360679774997897</speed>
  <fix>3d</fix>
</trkpt>
<trkpt lat="-27.2744125" lon="151.2900659">
  <ele>343.09</ele>
  <time>2026-09-01T19:54:58Z</time>
  <course>12.62</course>
  <speed>0.0</speed>
  <fix>3d</fix>
</trkpt>
<trkpt lat="-27.2744127" lon="151.290066">
  <ele>343.15</ele>
  <time>2026-09-01T19:54:58Z</time>
  <course>14.46</course>
  <speed>0.022360679774997897</speed>
  <fix>3d</fix>
</trkpt>
<trkpt lat="-27.2744125" lon="151.2900659">
  <ele>343.09</ele>
  <time>2026-09-01T19:54:58Z</time>
  <course>12.62</course>
  <speed>0.0</speed>
  <fix>3d</fix>
</trkpt>
<trkpt lat="-27.2744127" lon="151.290066">
  <ele>343.15</ele>
  <time>2026-09-01T19:54:58Z</time>
  <course>14.46</course>
  <speed>0.022360679774997897</speed>
  <fix>3d</fix>
</trkpt>
<trkpt lat="-27.2744125" lon="151.2900659">
  <ele>343.09</ele>
  <time>2026-09-01T19:54:58Z</time>
  <course>12.62</course>
  <speed>0.0</speed>
  <fix>3d</fix>
</trkpt>
<trkpt lat="-27.2744127" lon="151.290066">
  <ele>343.15</ele>
  <time>2026-09-01T19:54:58Z</time>
  <course>14.46</course>
  <speed>0.022360679774997897</speed>
  <fix>3d</fix>
</trkpt>
<trkpt lat="-27.2744125" lon="151.2900659">
  <ele>343.09</ele>
  <time>2026-09-01T19:54:58Z</time>
  <course>12.62</course>
  <speed>0.0</speed>
  <fix>3d</fix>
</trkpt>
<trkpt lat="-27.2744127" lon="151.290066">
  <ele>343.15</ele>
  <time>2026-09-01T19:54:58Z</time>
  <course>14.46</course>
  <speed>0.022360679774997897</speed>
  <fix>3d</fix>
</trkpt>
<trkpt lat="-27.2744125" lon="151.2900659">
  <ele>343.09</ele>
  <time>2026-09-01T19:54:58Z</time>
  <course>12.62</course>
  <speed>0.0</speed>
  <fix>3d</fix>
</trkpt>
<trkpt lat="-27.2744127" lon="151.290066">
  <ele>343.16</ele>
  <time>2026-09-01T19:54:58Z</time>
  <course>14.46</course>
  <speed>0.022360679774997897</speed>
  <fix>3d</fix>
</trkpt>
<trkpt lat="-27.2744125" lon="151.2900659">
  <ele>343.09</ele>
  <time>2026-09-01T19:54:58Z</time>
  <course>12.62</course>
  <speed>0.0</speed>
  <fix>3d</fix>
</trkpt>
<trkpt lat="-27.2744127" lon="151.290066">
  <ele>343.16</ele>
  <time>2026-09-01T19:54:58Z</time>
  <course>14.46</course>
  <speed>0.022360679774997897</speed>
  <fix>3d</fix>
</trkpt>
<trkpt lat="-27.2744125" lon="151.2900659">
  <ele>343.09</ele>
  <time>2026-09-01T19:54:58Z</time>
  <course>12.62</course>
  <speed>0.0</speed>
  <fix>3d</fix>
</trkpt>
<trkpt lat="-27.2744127" lon="151.290066">
  <ele>343.16</ele>
  <time>2026-09-01T19:54:58Z</time>
  <course>14.46</course>
  <speed>0.022360679774997897</speed>
  <fix>3d</fix>
</trkpt>
<trkpt lat="-27.2744125" lon="151.2900659">
  <ele>343.09</ele>
  <time>2026-09-01T19:54:58Z</time>
  <course>12.62</course>
  <speed>0.0</speed>
  <fix>3d</fix>
</trkpt>
<trkpt lat="-27.2744127" lon="151.290066">
  <ele>343.17</ele>
  <time>2026-09-01T19:54:58Z</time>
  <course>14.47</course>
  <speed>0.022360679774997897</speed>
  <fix>3d</fix>
</trkpt>
<trkpt lat="-27.2744125" lon="151.2900659">
  <ele>343.09</ele>
  <time>2026-09-01T19:54:58Z</time>
  <course>12.62</course>
  <speed>0.0</speed>
  <fix>3d</fix>
</trkpt>
<trkpt lat="-27.2744127" lon="151.290066">
  <ele>343.17</ele>
  <time>2026-09-01T19:54:58Z</time>
  <course>14.47</course>
  <speed>0.022360679774997897</speed>
  <fix>3d</fix>
</trkpt>
<trkpt lat="-27.2744125" lon="151.2900659">
  <ele>343.09</ele>
  <time>2026-09-01T19:54:58Z</time>
  <course>12.62</course>
  <speed>0.0</speed>
  <fix>3d</fix>
</trkpt>
<trkpt lat="-27.2744127" lon="151.290066">
  <ele>343.17</ele>
  <time>2026-09-01T19:54:58Z</time>
  <course>14.47</course>
  <speed>0.022360679774997897</speed>
  <fix>3d</fix>
</trkpt>
<trkpt lat="-27.2744125" lon="151.2900659">
  <ele>343.09</ele>
  <time>2026-09-01T19:54:58Z</time>
  <course>12.62</course>
  <speed>0.0</speed>
  <fix>3d</fix>
</trkpt>
<trkpt lat="-27.2744127" lon="151.290066">
  <ele>343.18</ele>
  <time>2026-09-01T19:54:58Z</time>
  <course>14.47</course>
  <speed>0.022360679774997897</speed>
  <fix>3d</fix>
</trkpt>
<trkpt lat="-27.2744125" lon="151.2900659">
  <ele>343.09</ele>
  <time>2026-09-01T19:54:59Z</time>
  <course>12.62</course>
  <speed>0.0</speed>
  <fix>3d</fix>
</trkpt>
<trkpt lat="-27.2744127" lon="151.290066">
  <ele>343.18</ele>
  <time>2026-09-01T19:54:59Z</time>
  <course>14.47</course>
  <speed>0.022360679774997897</speed>
  <fix>3d</fix>
</trkpt>
<trkpt lat="-27.2744125" lon="151.2900659">
  <ele>343.09</ele>
  <time>2026-09-01T19:54:59Z</time>
  <course>12.62</course>
  <speed>0.0</speed>
  <fix>3d</fix>
</trkpt>
<trkpt lat="-27.2744127" lon="151.290066">
  <ele>343.18</ele>
  <time>2026-09-01T19:54:59Z</time>
  <course>14.47</course>
  <speed>0.022360679774997897</speed>
  <fix>3d</fix>
</trkpt>
<trkpt lat="-27.2744125" lon="151.2900659">
  <ele>343.09</ele>
  <time>2026-09-01T19:54:59Z</time>
  <course>12.62</course>
  <speed>0.0</speed>
  <fix>3d</fix>
</trkpt>
<trkpt lat="-27.2744127" lon="151.290066">
  <ele>343.18</ele>
  <time>2026-09-01T19:54:59Z</time>
  <course>14.47</course>
  <speed>0.022360679774997897</speed>
  <fix>3d</fix>
</trkpt>
<trkpt lat="-27.2744125" lon="151.2900659">
  <ele>343.09</ele>
  <time>2026-09-01T19:54:59Z</time>
  <course>12.62</course>
  <speed>0.0</speed>
  <fix>3d</fix>
</trkpt>
<trkpt lat="-27.2744127" lon="151.290066">
  <ele>343.19</ele>
  <time>2026-09-01T19:54:59Z</time>
  <course>14.48</course>
  <speed>0.022360679774997897</speed>
  <fix>3d</fix>
</trkpt>
<trkpt lat="-27.2744125" lon="151.2900659">
  <ele>343.09</ele>
  <time>2026-09-01T19:54:59Z</time>
  <course>12.62</course>
  <speed>0.0</speed>
  <fix>3d</fix>
</trkpt>
<trkpt lat="-27.2744127" lon="151.290066">
  <ele>343.19</ele>
  <time>2026-09-01T19:54:59Z</time>
  <course>14.48</course>
  <speed>0.022360679774997897</speed>
  <fix>3d</fix>
</trkpt>
<trkpt lat="-27.2744125" lon="151.2900659">
  <ele>343.09</ele>
  <time>2026-09-01T19:54:59Z</time>
  <course>12.62</course>
  <speed>0.0</speed>
  <fix>3d</fix>
</trkpt>
<trkpt lat="-27.2744127" lon="151.290066">
  <ele>343.19</ele>
  <time>2026-09-01T19:54:59Z</time>
  <course>14.48</course>
  <speed>0.022360679774997897</speed>
  <fix>3d</fix>
</trkpt>
<trkpt lat="-27.2744125" lon="151.2900659">
  <ele>343.09</ele>
  <time>2026-09-01T19:54:59Z</time>
  <course>12.62</course>
  <speed>0.0</speed>
  <fix>3d</fix>
</trkpt>
<trkpt lat="-27.2744127" lon="151.290066">
  <ele>343.19</ele>
  <time>2026-09-01T19:54:59Z</time>
  <course>14.48</course>
  <speed>0.022360679774997897</speed>
  <fix>3d</fix>
</trkpt>
<trkpt lat="-27.2744125" lon="151.2900659">
  <ele>343.09</ele>
  <time>2026-09-01T19:54:59Z</time>
  <course>12.62</course>
  <speed>0.0</speed>
  <fix>3d</fix>
</trkpt>
<trkpt lat="-27.2744127" lon="151.290066">
  <ele>343.19</ele>
  <time>2026-09-01T19:54:59Z</time>
  <course>14.48</course>
  <speed>0.022360679774997897</speed>
  <fix>3d</fix>
</trkpt>
<trkpt lat="-27.2744125" lon="151.2900659">
  <ele>343.09</ele>
  <time>2026-09-01T19:54:59Z</time>
  <course>12.62</course>
  <speed>0.0</speed>
  <fix>3d</fix>
</trkpt>
<trkpt lat="-27.2744127" lon="151.290066">
  <ele>343.19</ele>
  <time>2026-09-01T19:54:59Z</time>
  <course>14.48</course>
  <speed>0.022360679774997897</speed>
  <fix>3d</fix>
</trkpt>
<trkpt lat="-27.2744125" lon="151.2900659">
  <ele>343.09</ele>
  <time>2026-09-01T19:54:59Z</time>
  <course>12.62</course>
  <speed>0.0</speed>
  <fix>3d</fix>
</trkpt>
<trkpt lat="-27.2744127" lon="151.290066">
  <ele>343.19</ele>
  <time>2026-09-01T19:54:59Z</time>
  <course>14.48</course>
  <speed>0.022360679774997897</speed>
  <fix>3d</fix>
</trkpt>
<trkpt lat="-27.2744125" lon="151.2900659">
  <ele>343.09</ele>
  <time>2026-09-01T19:54:59Z</time>
  <course>12.62</course>
  <speed>0.0</speed>
  <fix>3d</fix>
</trkpt>
<trkpt lat="-27.2744127" lon="151.290066">
  <ele>343.2</ele>
  <time>2026-09-01T19:54:59Z</time>
  <course>14.49</course>
  <speed>0.022360679774997897</speed>
  <fix>3d</fix>
</trkpt>
<trkpt lat="-27.2744125" lon="151.2900659">
  <ele>343.09</ele>
  <time>2026-09-01T19:54:59Z</time>
  <course>12.62</course>
  <speed>0.0</speed>
  <fix>3d</fix>
</trkpt>
<trkpt lat="-27.2744127" lon="151.290066">
  <ele>343.2</ele>
  <time>2026-09-01T19:54:59Z</time>
  <course>14.49</course>
  <speed>0.022360679774997897</speed>
  <fix>3d</fix>
</trkpt>
<trkpt lat="-27.2744125" lon="151.2900659">
  <ele>343.09</ele>
  <time>2026-09-01T19:54:59Z</time>
  <course>12.62</course>
  <speed>0.0</speed>
  <fix>3d</fix>
</trkpt>
<trkpt lat="-27.2744127" lon="151.290066">
  <ele>343.2</ele>
  <time>2026-09-01T19:54:59Z</time>
  <course>14.49</course>
  <speed>0.022360679774997897</speed>
  <fix>3d</fix>
</trkpt>
<trkpt lat="-27.2744125" lon="151.2900659">
  <ele>343.09</ele>
  <time>2026-09-01T19:54:59Z</time>
  <course>12.62</course>
  <speed>0.0</speed>
  <fix>3d</fix>
</trkpt>
<trkpt lat="-27.2744127" lon="151.290066">
  <ele>343.21</ele>
  <time>2026-09-01T19:54:59Z</time>
  <course>14.49</course>
  <speed>0.022360679774997897</speed>
  <fix>3d</fix>
</trkpt>
<trkpt lat="-27.2744125" lon="151.2900659">
  <ele>343.09</ele>
  <time>2026-09-01T19:54:59Z</time>
  <course>12.62</course>
  <speed>0.0</speed>
  <fix>3d</fix>
</trkpt>
<trkpt lat="-27.2744127" lon="151.290066">
  <ele>343.21</ele>
  <time>2026-09-01T19:54:59Z</time>
  <course>14.49</course>
  <speed>0.022360679774997897</speed>
  <fix>3d</fix>
</trkpt>
<trkpt lat="-27.2744125" lon="151.2900659">
  <ele>343.09</ele>
  <time>2026-09-01T19:54:59Z</time>
  <course>12.62</course>
  <speed>0.0</speed>
  <fix>3d</fix>
</trkpt>
<trkpt lat="-27.2744127" lon="151.290066">
  <ele>343.21</ele>
  <time>2026-09-01T19:54:59Z</time>
  <course>14.49</course>
  <speed>0.022360679774997897</speed>
  <fix>3d</fix>
</trkpt>
<trkpt lat="-27.2744125" lon="151.2900659">
  <ele>343.09</ele>
  <time>2026-09-01T19:54:59Z</time>
  <course>12.62</course>
  <speed>0.0</speed>
  <fix>3d</fix>
</trkpt>
<trkpt lat="-27.2744127" lon="151.290066">
  <ele>343.22</ele>
  <time>2026-09-01T19:54:59Z</time>
  <course>14.49</course>
  <speed>0.022360679774997897</speed>
  <fix>3d</fix>
</trkpt>
<trkpt lat="-27.2744125" lon="151.2900659">
  <ele>343.09</ele>
  <time>2026-09-01T19:54:59Z</time>
  <course>12.62</course>
  <speed>0.0</speed>
  <fix>3d</fix>
</trkpt>
<trkpt lat="-27.2744127" lon="151.290066">
  <ele>343.22</ele>
  <time>2026-09-01T19:54:59Z</time>
  <course>14.49</course>
  <speed>0.022360679774997897</speed>
  <fix>3d</fix>
</trkpt>
<trkpt lat="-27.2744125" lon="151.2900659">
  <ele>343.09</ele>
  <time>2026-09-01T19:54:59Z</time>
  <course>12.62</course>
  <speed>0.0</speed>
  <fix>3d</fix>
</trkpt>
<trkpt lat="-27.2744127" lon="151.290066">
  <ele>343.22</ele>
  <time>2026-09-01T19:54:59Z</time>
  <course>14.49</course>
  <speed>0.022360679774997897</speed>
  <fix>3d</fix>
</trkpt>
<trkpt lat="-27.2744125" lon="151.2900659">
  <ele>343.09</ele>
  <time>2026-09-01T19:54:59Z</time>
  <course>12.62</course>
  <speed>0.0</speed>
  <fix>3d</fix>
</trkpt>
<trkpt lat="-27.2744127" lon="151.290066">
  <ele>343.22</ele>
  <time>2026-09-01T19:54:59Z</time>
  <course>14.5</course>
  <speed>0.022360679774997897</speed>
  <fix>3d</fix>
</trkpt>
<trkpt lat="-27.2744125" lon="151.2900659">
  <ele>343.09</ele>
  <time>2026-09-01T19:54:59Z</time>
  <course>12.62</course>
  <speed>0.0</speed>
  <fix>3d</fix>
</trkpt>
<trkpt lat="-27.2744127" lon="151.290066">
  <ele>343.22</ele>
  <time>2026-09-01T19:54:59Z</time>
  <course>14.5</course>
  <speed>0.022360679774997897</speed>
  <fix>3d</fix>
</trkpt>
<trkpt lat="-27.2744125" lon="151.2900659">
  <ele>343.09</ele>
  <time>2026-09-01T19:54:59Z</time>
  <course>12.62</course>
  <speed>0.0</speed>
  <fix>3d</fix>
</trkpt>
<trkpt lat="-27.2744127" lon="151.290066">
  <ele>343.09</ele>
  <time>2026-09-01T19:54:59Z</time>
  <course>14.5</course>
  <speed>0.022360679774997897</speed>
  <fix>3d</fix>
</trkpt>
<trkpt lat="-27.2744125" lon="151.2900659">
  <ele>343.09</ele>
  <time>2026-09-01T19:54:59Z</time>
  <course>12.62</course>
  <speed>0.0</speed>
  <fix>3d</fix>
</trkpt>
<trkpt lat="-27.2744127" lon="151.290066">
  <ele>343.09</ele>
  <time>2026-09-01T19:54:59Z</time>
  <course>14.5</course>
  <speed>0.022360679774997897</speed>
  <fix>3d</fix>
</trkpt>
<trkpt lat="-27.2744125" lon="151.2900659">
  <ele>343.09</ele>
  <time>2026-09-01T19:54:59Z</time>
  <course>12.62</course>
  <speed>0.0</speed>
  <fix>3d</fix>
</trkpt>
<trkpt lat="-27.2744127" lon="151.290066">
  <ele>343.09</ele>
  <time>2026-09-01T19:54:59Z</time>
  <course>14.5</course>
  <speed>0.022360679774997897</speed>
  <fix>3d</fix>
</trkpt>
<trkpt lat="-27.2744125" lon="151.2900659">
  <ele>343.09</ele>
  <time>2026-09-01T19:54:59Z</time>
  <course>12.62</course>
  <speed>0.0</speed>
  <fix>3d</fix>
</trkpt>
<trkpt lat="-27.2744127" lon="151.290066">
  <ele>343.09</ele>
  <time>2026-09-01T19:54:59Z</time>
  <course>14.5</course>
  <speed>0.022360679774997897</speed>
  <fix>3d</fix>
</trkpt>
<trkpt lat="-27.2744125" lon="151.2900659">
  <ele>343.09</ele>
  <time>2026-09-01T19:54:59Z</time>
  <course>12.62</course>
  <speed>0.0</speed>
  <fix>3d</fix>
</trkpt>
<trkpt lat="-27.2744127" lon="151.290066">
  <ele>343.1</ele>
  <time>2026-09-01T19:54:59Z</time>
  <course>14.5</course>
  <speed>0.022360679774997897</speed>
  <fix>3d</fix>
</trkpt>
<trkpt lat="-27.2744125" lon="151.2900659">
  <ele>343.09</ele>
  <time>2026-09-01T19:54:59Z</time>
  <course>12.62</course>
  <speed>0.0</speed>
  <fix>3d</fix>
</trkpt>
<trkpt lat="-27.2744127" lon="151.290066">
  <ele>343.1</ele>
  <time>2026-09-01T19:54:59Z</time>
  <course>14.5</course>
  <speed>0.022360679774997897</speed>
  <fix>3d</fix>
</trkpt>
<trkpt lat="-27.2744125" lon="151.2900659">
  <ele>343.09</ele>
  <time>2026-09-01T19:54:59Z</time>
  <course>12.62</course>
  <speed>0.0</speed>
  <fix>3d</fix>
</trkpt>
<trkpt lat="-27.2744127" lon="151.290066">
  <ele>343.11</ele>
  <time>2026-09-01T19:54:59Z</time>
  <course>14.51</course>
  <speed>0.022360679774997897</speed>
  <fix>3d</fix>
</trkpt>
<trkpt lat="-27.2744125" lon="151.2900659">
  <ele>343.09</ele>
  <time>2026-09-01T19:54:59Z</time>
  <course>12.62</course>
  <speed>0.0</speed>
  <fix>3d</fix>
</trkpt>
<trkpt lat="-27.2744127" lon="151.290066">
  <ele>343.11</ele>
  <time>2026-09-01T19:54:59Z</time>
  <course>14.51</course>
  <speed>0.022360679774997897</speed>
  <fix>3d</fix>
</trkpt>
<trkpt lat="-27.2744125" lon="151.2900659">
  <ele>343.09</ele>
  <time>2026-09-01T19:54:59Z</time>
  <course>12.62</course>
  <speed>0.0</speed>
  <fix>3d</fix>
</trkpt>
<trkpt lat="-27.2744127" lon="151.290066">
  <ele>343.12</ele>
  <time>2026-09-01T19:54:59Z</time>
  <course>14.51</course>
  <speed>0.022360679774997897</speed>
  <fix>3d</fix>
</trkpt>
<trkpt lat="-27.2744125" lon="151.2900659">
  <ele>343.09</ele>
  <time>2026-09-01T19:54:59Z</time>
  <course>12.62</course>
  <speed>0.0</speed>
  <fix>3d</fix>
</trkpt>
<trkpt lat="-27.2744127" lon="151.290066">
  <ele>343.12</ele>
  <time>2026-09-01T19:54:59Z</time>
  <course>14.51</course>
  <speed>0.022360679774997897</speed>
  <fix>3d</fix>
</trkpt>
<trkpt lat="-27.2744125" lon="151.2900659">
  <ele>343.09</ele>
  <time>2026-09-01T19:54:59Z</time>
  <course>12.62</course>
  <speed>0.0</speed>
  <fix>3d</fix>
</trkpt>
<trkpt lat="-27.2744127" lon="151.290066">
  <ele>343.13</ele>
  <time>2026-09-01T19:54:59Z</time>
  <course>14.51</course>
  <speed>0.022360679774997897</speed>
  <fix>3d</fix>
</trkpt>
<trkpt lat="-27.2744125" lon="151.2900659">
  <ele>343.09</ele>
  <time>2026-09-01T19:54:59Z</time>
  <course>12.62</course>
  <speed>0.0</speed>
  <fix>3d</fix>
</trkpt>
<trkpt lat="-27.2744127" lon="151.290066">
  <ele>343.13</ele>
  <time>2026-09-01T19:54:59Z</time>
  <course>14.51</course>
  <speed>0.022360679774997897</speed>
  <fix>3d</fix>
</trkpt>
<trkpt lat="-27.2744125" lon="151.2900659">
  <ele>343.09</ele>
  <time>2026-09-01T19:54:59Z</time>
  <course>12.62</course>
  <speed>0.0</speed>
  <fix>3d</fix>
</trkpt>
<trkpt lat="-27.2744127" lon="151.290066">
  <ele>343.14</ele>
  <time>2026-09-01T19:54:59Z</time>
  <course>14.51</course>
  <speed>0.022360679774997897</speed>
  <fix>3d</fix>
</trkpt>
<trkpt lat="-27.2744125" lon="151.2900659">
  <ele>343.09</ele>
  <time>2026-09-01T19:54:59Z</time>
  <course>12.62</course>
  <speed>0.0</speed>
  <fix>3d</fix>
</trkpt>
<trkpt lat="-27.2744127" lon="151.290066">
  <ele>343.15</ele>
  <time>2026-09-01T19:54:59Z</time>
  <course>14.51</course>
  <speed>0.022360679774997897</speed>
  <fix>3d</fix>
</trkpt>
<trkpt lat="-27.2744125" lon="151.2900659">
  <ele>343.09</ele>
  <time>2026-09-01T19:54:59Z</time>
  <course>12.62</course>
  <speed>0.0</speed>
  <fix>3d</fix>
</trkpt>
<trkpt lat="-27.2744127" lon="151.290066">
  <ele>343.15</ele>
  <time>2026-09-01T19:54:59Z</time>
  <course>14.51</course>
  <speed>0.022360679774997897</speed>
  <fix>3d</fix>
</trkpt>
<trkpt lat="-27.2744125" lon="151.2900659">
  <ele>343.09</ele>
  <time>2026-09-01T19:54:59Z</time>
  <course>12.62</course>
  <speed>0.0</speed>
  <fix>3d</fix>
</trkpt>
<trkpt lat="-27.2744127" lon="151.290066">
  <ele>343.16</ele>
  <time>2026-09-01T19:54:59Z</time>
  <course>14.52</course>
  <speed>0.022360679774997897</speed>
  <fix>3d</fix>
</trkpt>
<trkpt lat="-27.2744125" lon="151.2900659">
  <ele>343.09</ele>
  <time>2026-09-01T19:54:59Z</time>
  <course>12.62</course>
  <speed>0.0</speed>
  <fix>3d</fix>
</trkpt>
<trkpt lat="-27.2744127" lon="151.290066">
  <ele>343.17</ele>
  <time>2026-09-01T19:54:59Z</time>
  <course>14.52</course>
  <speed>0.022360679774997897</speed>
  <fix>3d</fix>
</trkpt>
<trkpt lat="-27.2744125" lon="151.2900659">
  <ele>343.09</ele>
  <time>2026-09-01T19:54:59Z</time>
  <course>12.62</course>
  <speed>0.0</speed>
  <fix>3d</fix>
</trkpt>
<trkpt lat="-27.2744127" lon="151.290066">
  <ele>343.17</ele>
  <time>2026-09-01T19:54:59Z</time>
  <course>14.52</course>
  <speed>0.022360679774997897</speed>
  <fix>3d</fix>
</trkpt>
<trkpt lat="-27.2744125" lon="151.2900659">
  <ele>343.09</ele>
  <time>2026-09-01T19:54:59Z</time>
  <course>12.62</course>
  <speed>0.0</speed>
  <fix>3d</fix>
</trkpt>
<trkpt lat="-27.2744127" lon="151.290066">
  <ele>343.18</ele>
  <time>2026-09-01T19:54:59Z</time>
  <course>14.52</course>
  <speed>0.022360679774997897</speed>
  <fix>3d</fix>
</trkpt>
<trkpt lat="-27.2744125" lon="151.2900659">
  <ele>343.09</ele>
  <time>2026-09-01T19:54:59Z</time>
  <course>12.62</course>
  <speed>0.0</speed>
  <fix>3d</fix>
</trkpt>
<trkpt lat="-27.2744127" lon="151.290066">
  <ele>343.18</ele>
  <time>2026-09-01T19:54:59Z</time>
  <course>14.52</course>
  <speed>0.022360679774997897</speed>
  <fix>3d</fix>
</trkpt>
<trkpt lat="-27.2744125" lon="151.2900659">
  <ele>343.09</ele>
  <time>2026-09-01T19:54:59Z</time>
  <course>12.62</course>
  <speed>0.0</speed>
  <fix>3d</fix>
</trkpt>
<trkpt lat="-27.2744127" lon="151.290066">
  <ele>343.19</ele>
  <time>2026-09-01T19:54:59Z</time>
  <course>14.52</course>
  <speed>0.022360679774997897</speed>
  <fix>3d</fix>
</trkpt>
<trkpt lat="-27.2744125" lon="151.2900659">
  <ele>343.09</ele>
  <time>2026-09-01T19:54:59Z</time>
  <course>12.62</course>
  <speed>0.0</speed>
  <fix>3d</fix>
</trkpt>
<trkpt lat="-27.2744127" lon="151.290066">
  <ele>343.19</ele>
  <time>2026-09-01T19:54:59Z</time>
  <course>14.52</course>
  <speed>0.022360679774997897</speed>
  <fix>3d</fix>
</trkpt>
<trkpt lat="-27.2744125" lon="151.2900659">
  <ele>343.09</ele>
  <time>2026-09-01T19:54:59Z</time>
  <course>12.62</course>
  <speed>0.0</speed>
  <fix>3d</fix>
</trkpt>
<trkpt lat="-27.2744127" lon="151.290066">
  <ele>343.2</ele>
  <time>2026-09-01T19:54:59Z</time>
  <course>14.52</course>
  <speed>0.022360679774997897</speed>
  <fix>3d</fix>
</trkpt>
<trkpt lat="-27.2744125" lon="151.2900659">
  <ele>343.09</ele>
  <time>2026-09-01T19:54:59Z</time>
  <course>12.62</course>
  <speed>0.0</speed>
  <fix>3d</fix>
</trkpt>
<trkpt lat="-27.2744127" lon="151.290066">
  <ele>343.2</ele>
  <time>2026-09-01T19:54:59Z</time>
  <course>14.52</course>
  <speed>0.022360679774997897</speed>
  <fix>3d</fix>
</trkpt>
<trkpt lat="-27.2744125" lon="151.2900659">
  <ele>343.09</ele>
  <time>2026-09-01T19:54:59Z</time>
  <course>12.62</course>
  <speed>0.0</speed>
  <fix>3d</fix>
</trkpt>
<trkpt lat="-27.2744127" lon="151.290066">
  <ele>343.21</ele>
  <time>2026-09-01T19:54:59Z</time>
  <course>14.53</course>
  <speed>0.022360679774997897</speed>
  <fix>3d</fix>
</trkpt>
<trkpt lat="-27.2744125" lon="151.2900659">
  <ele>343.09</ele>
  <time>2026-09-01T19:54:59Z</time>
  <course>12.62</course>
  <speed>0.0</speed>
  <fix>3d</fix>
</trkpt>
<trkpt lat="-27.2744127" lon="151.290066">
  <ele>343.21</ele>
  <time>2026-09-01T19:54:59Z</time>
  <course>14.53</course>
  <speed>0.022360679774997897</speed>
  <fix>3d</fix>
</trkpt>
<trkpt lat="-27.2744125" lon="151.2900659">
  <ele>343.09</ele>
  <time>2026-09-01T19:54:59Z</time>
  <course>12.62</course>
  <speed>0.0</speed>
  <fix>3d</fix>
</trkpt>
<trkpt lat="-27.2744127" lon="151.290066">
  <ele>343.22</ele>
  <time>2026-09-01T19:54:59Z</time>
  <course>14.53</course>
  <speed>0.022360679774997897</speed>
  <fix>3d</fix>
</trkpt>
<trkpt lat="-27.2744125" lon="151.2900659">
  <ele>343.09</ele>
  <time>2026-09-01T19:54:59Z</time>
  <course>12.62</course>
  <speed>0.0</speed>
  <fix>3d</fix>
</trkpt>
<trkpt lat="-27.2744127" lon="151.290066">
  <ele>343.23</ele>
  <time>2026-09-01T19:54:59Z</time>
  <course>14.53</course>
  <speed>0.022360679774997897</speed>
  <fix>3d</fix>
</trkpt>
<trkpt lat="-27.2744125" lon="151.2900659">
  <ele>343.09</ele>
  <time>2026-09-01T19:54:59Z</time>
  <course>12.62</course>
  <speed>0.0</speed>
  <fix>3d</fix>
</trkpt>
<trkpt lat="-27.2744127" lon="151.290066">
  <ele>343.23</ele>
  <time>2026-09-01T19:54:59Z</time>
  <course>14.53</course>
  <speed>0.022360679774997897</speed>
  <fix>3d</fix>
</trkpt>
<trkpt lat="-27.2744125" lon="151.2900659">
  <ele>343.09</ele>
  <time>2026-09-01T19:54:59Z</time>
  <course>12.62</course>
  <speed>0.0</speed>
  <fix>3d</fix>
</trkpt>
<trkpt lat="-27.2744127" lon="151.290066">
  <ele>343.24</ele>
  <time>2026-09-01T19:54:59Z</time>
  <course>14.53</course>
  <speed>0.022360679774997897</speed>
  <fix>3d</fix>
</trkpt>
<trkpt lat="-27.2744125" lon="151.2900659">
  <ele>343.09</ele>
  <time>2026-09-01T19:54:59Z</time>
  <course>12.62</course>
  <speed>0.0</speed>
  <fix>3d</fix>
</trkpt>
<trkpt lat="-27.2744127" lon="151.290066">
  <ele>343.24</ele>
  <time>2026-09-01T19:54:59Z</time>
  <course>14.53</course>
  <speed>0.022360679774997897</speed>
  <fix>3d</fix>
</trkpt>
<trkpt lat="-27.2744125" lon="151.2900659">
  <ele>343.09</ele>
  <time>2026-09-01T19:54:59Z</time>
  <course>12.62</course>
  <speed>0.0</speed>
  <fix>3d</fix>
</trkpt>
<trkpt lat="-27.2744127" lon="151.290066">
  <ele>343.24</ele>
  <time>2026-09-01T19:54:59Z</time>
  <course>14.53</course>
  <speed>0.022360679774997897</speed>
  <fix>3d</fix>
</trkpt>
<trkpt lat="-27.2744125" lon="151.2900659">
  <ele>343.09</ele>
  <time>2026-09-01T19:54:59Z</time>
  <course>12.62</course>
  <speed>0.0</speed>
  <fix>3d</fix>
</trkpt>
<trkpt lat="-27.2744127" lon="151.290066">
  <ele>343.24</ele>
  <time>2026-09-01T19:54:59Z</time>
  <course>14.53</course>
  <speed>0.022360679774997897</speed>
  <fix>3d</fix>
</trkpt>
<trkpt lat="-27.2744125" lon="151.2900659">
  <ele>343.09</ele>
  <time>2026-09-01T19:54:59Z</time>
  <course>12.62</course>
  <speed>0.0</speed>
  <fix>3d</fix>
</trkpt>
<trkpt lat="-27.2744127" lon="151.290066">
  <ele>343.24</ele>
  <time>2026-09-01T19:54:59Z</time>
  <course>14.53</course>
  <speed>0.022360679774997897</speed>
  <fix>3d</fix>
</trkpt>
<trkpt lat="-27.2744125" lon="151.2900659">
  <ele>343.09</ele>
  <time>2026-09-01T19:54:59Z</time>
  <course>12.62</course>
  <speed>0.0</speed>
  <fix>3d</fix>
</trkpt>
<trkpt lat="-27.2744127" lon="151.290066">
  <ele>343.25</ele>
  <time>2026-09-01T19:54:59Z</time>
  <course>14.53</course>
  <speed>0.022360679774997897</speed>
  <fix>3d</fix>
</trkpt>
<trkpt lat="-27.2744125" lon="151.2900659">
  <ele>343.09</ele>
  <time>2026-09-01T19:54:59Z</time>
  <course>12.62</course>
  <speed>0.0</speed>
  <fix>3d</fix>
</trkpt>
<trkpt lat="-27.2744127" lon="151.290066">
  <ele>343.25</ele>
  <time>2026-09-01T19:54:59Z</time>
  <course>14.54</course>
  <speed>0.022360679774997897</speed>
  <fix>3d</fix>
</trkpt>
<trkpt lat="-27.2744125" lon="151.2900659">
  <ele>343.09</ele>
  <time>2026-09-01T19:54:59Z</time>
  <course>12.62</course>
  <speed>0.0</speed>
  <fix>3d</fix>
</trkpt>
<trkpt lat="-27.2744127" lon="151.290066">
  <ele>343.25</ele>
  <time>2026-09-01T19:54:59Z</time>
  <course>14.54</course>
  <speed>0.022360679774997897</speed>
  <fix>3d</fix>
</trkpt>
<trkpt lat="-27.2744125" lon="151.2900659">
  <ele>343.09</ele>
  <time>2026-09-01T19:54:59Z</time>
  <course>12.62</course>
  <speed>0.0</speed>
  <fix>3d</fix>
</trkpt>
<trkpt lat="-27.2744127" lon="151.290066">
  <ele>343.25</ele>
  <time>2026-09-01T19:54:59Z</time>
  <course>14.54</course>
  <speed>0.022360679774997897</speed>
  <fix>3d</fix>
</trkpt>
<trkpt lat="-27.2744125" lon="151.2900659">
  <ele>343.09</ele>
  <time>2026-09-01T19:54:59Z</time>
  <course>12.62</course>
  <speed>0.0</speed>
  <fix>3d</fix>
</trkpt>
<trkpt lat="-27.2744127" lon="151.290066">
  <ele>343.25</ele>
  <time>2026-09-01T19:54:59Z</time>
  <course>14.54</course>
  <speed>0.022360679774997897</speed>
  <fix>3d</fix>
</trkpt>
<trkpt lat="-27.2744125" lon="151.2900659">
  <ele>343.09</ele>
  <time>2026-09-01T19:54:59Z</time>
  <course>12.62</course>
  <speed>0.0</speed>
  <fix>3d</fix>
</trkpt>
<trkpt lat="-27.2744127" lon="151.290066">
  <ele>343.25</ele>
  <time>2026-09-01T19:54:59Z</time>
  <course>14.54</course>
  <speed>0.022360679774997897</speed>
  <fix>3d</fix>
</trkpt>
<trkpt lat="-27.2744125" lon="151.2900659">
  <ele>343.09</ele>
  <time>2026-09-01T19:54:59Z</time>
  <course>12.62</course>
  <speed>0.0</speed>
  <fix>3d</fix>
</trkpt>
<trkpt lat="-27.2744127" lon="151.290066">
  <ele>343.25</ele>
  <time>2026-09-01T19:54:59Z</time>
  <course>14.54</course>
  <speed>0.022360679774997897</speed>
  <fix>3d</fix>
</trkpt>
<trkpt lat="-27.2744125" lon="151.2900659">
  <ele>343.09</ele>
  <time>2026-09-01T19:54:59Z</time>
  <course>12.62</course>
  <speed>0.0</speed>
  <fix>3d</fix>
</trkpt>
<trkpt lat="-27.2744127" lon="151.290066">
  <ele>343.26</ele>
  <time>2026-09-01T19:54:59Z</time>
  <course>14.54</course>
  <speed>0.022360679774997897</speed>
  <fix>3d</fix>
</trkpt>
<trkpt lat="-27.2744125" lon="151.2900659">
  <ele>343.09</ele>
  <time>2026-09-01T19:54:59Z</time>
  <course>12.62</course>
  <speed>0.0</speed>
  <fix>3d</fix>
</trkpt>
<trkpt lat="-27.2744127" lon="151.290066">
  <ele>343.26</ele>
  <time>2026-09-01T19:54:59Z</time>
  <course>14.54</course>
  <speed>0.022360679774997897</speed>
  <fix>3d</fix>
</trkpt>
<trkpt lat="-27.2744125" lon="151.2900659">
  <ele>343.09</ele>
  <time>2026-09-01T19:54:59Z</time>
  <course>12.62</course>
  <speed>0.0</speed>
  <fix>3d</fix>
</trkpt>
<trkpt lat="-27.2744127" lon="151.290066">
  <ele>343.26</ele>
  <time>2026-09-01T19:54:59Z</time>
  <course>14.54</course>
  <speed>0.022360679774997897</speed>
  <fix>3d</fix>
</trkpt>
<trkpt lat="-27.2744125" lon="151.2900659">
  <ele>343.09</ele>
  <time>2026-09-01T19:54:59Z</time>
  <course>12.62</course>
  <speed>0.0</speed>
  <fix>3d</fix>
</trkpt>
<trkpt lat="-27.2744127" lon="151.290066">
  <ele>343.26</ele>
  <time>2026-09-01T19:54:59Z</time>
  <course>14.54</course>
  <speed>0.022360679774997897</speed>
  <fix>3d</fix>
</trkpt>
<trkpt lat="-27.2744125" lon="151.2900659">
  <ele>343.09</ele>
  <time>2026-09-01T19:54:59Z</time>
  <course>12.62</course>
  <speed>0.0</speed>
  <fix>3d</fix>
</trkpt>
<trkpt lat="-27.2744127" lon="151.290066">
  <ele>343.27</ele>
  <time>2026-09-01T19:54:59Z</time>
  <course>14.54</course>
  <speed>0.022360679774997897</speed>
  <fix>3d</fix>
</trkpt>
<trkpt lat="-27.2744125" lon="151.2900659">
  <ele>343.09</ele>
  <time>2026-09-01T19:54:59Z</time>
  <course>12.62</course>
  <speed>0.0</speed>
  <fix>3d</fix>
</trkpt>
<trkpt lat="-27.2744127" lon="151.290066">
  <ele>343.27</ele>
  <time>2026-09-01T19:54:59Z</time>
  <course>14.54</course>
  <speed>0.022360679774997897</speed>
  <fix>3d</fix>
</trkpt>
<trkpt lat="-27.2744125" lon="151.2900659">
  <ele>343.09</ele>
  <time>2026-09-01T19:54:59Z</time>
  <course>12.62</course>
  <speed>0.0</speed>
  <fix>3d</fix>
</trkpt>
<trkpt lat="-27.2744127" lon="151.290066">
  <ele>343.27</ele>
  <time>2026-09-01T19:54:59Z</time>
  <course>14.55</course>
  <speed>0.022360679774997897</speed>
  <fix>3d</fix>
</trkpt>
<trkpt lat="-27.2744125" lon="151.2900659">
  <ele>343.09</ele>
  <time>2026-09-01T19:54:59Z</time>
  <course>12.62</course>
  <speed>0.0</speed>
  <fix>3d</fix>
</trkpt>
<trkpt lat="-27.2744127" lon="151.290066">
  <ele>343.28</ele>
  <time>2026-09-01T19:54:59Z</time>
  <course>14.55</course>
  <speed>0.022360679774997897</speed>
  <fix>3d</fix>
</trkpt>
<trkpt lat="-27.2744125" lon="151.2900659">
  <ele>343.09</ele>
  <time>2026-09-01T19:54:59Z</time>
  <course>12.62</course>
  <speed>0.0</speed>
  <fix>3d</fix>
</trkpt>
<trkpt lat="-27.2744127" lon="151.290066">
  <ele>343.28</ele>
  <time>2026-09-01T19:54:59Z</time>
  <course>14.55</course>
  <speed>0.022360679774997897</speed>
  <fix>3d</fix>
</trkpt>
<trkpt lat="-27.2744125" lon="151.2900659">
  <ele>343.09</ele>
  <time>2026-09-01T19:54:59Z</time>
  <course>12.62</course>
  <speed>0.0</speed>
  <fix>3d</fix>
</trkpt>
<trkpt lat="-27.2744127" lon="151.290066">
  <ele>343.28</ele>
  <time>2026-09-01T19:54:59Z</time>
  <course>14.55</course>
  <speed>0.022360679774997897</speed>
  <fix>3d</fix>
</trkpt>
<trkpt lat="-27.2744125" lon="151.2900659">
  <ele>343.09</ele>
  <time>2026-09-01T19:54:59Z</time>
  <course>12.62</course>
  <speed>0.0</speed>
  <fix>3d</fix>
</trkpt>
<trkpt lat="-27.2744127" lon="151.290066">
  <ele>343.28</ele>
  <time>2026-09-01T19:54:59Z</time>
  <course>14.55</course>
  <speed>0.022360679774997897</speed>
  <fix>3d</fix>
</trkpt>
<trkpt lat="-27.2744125" lon="151.2900659">
  <ele>343.09</ele>
  <time>2026-09-01T19:54:59Z</time>
  <course>12.62</course>
  <speed>0.0</speed>
  <fix>3d</fix>
</trkpt>
<trkpt lat="-27.2744127" lon="151.290066">
  <ele>343.28</ele>
  <time>2026-09-01T19:54:59Z</time>
  <course>14.55</course>
  <speed>0.022360679774997897</speed>
  <fix>3d</fix>
</trkpt>
<trkpt lat="-27.2744125" lon="151.2900659">
  <ele>343.09</ele>
  <time>2026-09-01T19:54:59Z</time>
  <course>12.62</course>
  <speed>0.0</speed>
  <fix>3d</fix>
</trkpt>
<trkpt lat="-27.2744127" lon="151.290066">
  <ele>343.29</ele>
  <time>2026-09-01T19:54:59Z</time>
  <course>14.55</course>
  <speed>0.022360679774997897</speed>
  <fix>3d</fix>
</trkpt>
<trkpt lat="-27.2744125" lon="151.2900659">
  <ele>343.09</ele>
  <time>2026-09-01T19:54:59Z</time>
  <course>12.62</course>
  <speed>0.0</speed>
  <fix>3d</fix>
</trkpt>
<trkpt lat="-27.2744127" lon="151.290066">
  <ele>343.29</ele>
  <time>2026-09-01T19:54:59Z</time>
  <course>14.55</course>
  <speed>0.022360679774997897</speed>
  <fix>3d</fix>
</trkpt>
<trkpt lat="-27.2744125" lon="151.2900659">
  <ele>343.09</ele>
  <time>2026-09-01T19:54:59Z</time>
  <course>12.62</course>
  <speed>0.0</speed>
  <fix>3d</fix>
</trkpt>
<trkpt lat="-27.2744127" lon="151.290066">
  <ele>343.29</ele>
  <time>2026-09-01T19:54:59Z</time>
  <course>14.55</course>
  <speed>0.022360679774997897</speed>
  <fix>3d</fix>
</trkpt>
<trkpt lat="-27.2744125" lon="151.2900659">
  <ele>343.09</ele>
  <time>2026-09-01T19:54:59Z</time>
  <course>12.62</course>
  <speed>0.0</speed>
  <fix>3d</fix>
</trkpt>
<trkpt lat="-27.2744127" lon="151.290066">
  <ele>343.29</ele>
  <time>2026-09-01T19:54:59Z</time>
  <course>14.55</course>
  <speed>0.022360679774997897</speed>
  <fix>3d</fix>
</trkpt>
<trkpt lat="-27.2744125" lon="151.2900659">
  <ele>343.09</ele>
  <time>2026-09-01T19:54:59Z</time>
  <course>12.62</course>
  <speed>0.0</speed>
  <fix>3d</fix>
</trkpt>
<trkpt lat="-27.2744127" lon="151.290066">
  <ele>343.29</ele>
  <time>2026-09-01T19:54:59Z</time>
  <course>14.55</course>
  <speed>0.022360679774997897</speed>
  <fix>3d</fix>
</trkpt>
<trkpt lat="-27.2744125" lon="151.2900659">
  <ele>343.09</ele>
  <time>2026-09-01T19:54:59Z</time>
  <course>12.62</course>
  <speed>0.0</speed>
  <fix>3d</fix>
</trkpt>
<trkpt lat="-27.2744127" lon="151.290066">
  <ele>343.29</ele>
  <time>2026-09-01T19:54:59Z</time>
  <course>14.55</course>
  <speed>0.022360679774997897</speed>
  <fix>3d</fix>
</trkpt>
<trkpt lat="-27.2744125" lon="151.2900659">
  <ele>343.09</ele>
  <time>2026-09-01T19:54:59Z</time>
  <course>12.62</course>
  <speed>0.0</speed>
  <fix>3d</fix>
</trkpt>
<trkpt lat="-27.2744127" lon="151.290066">
  <ele>343.29</ele>
  <time>2026-09-01T19:54:59Z</time>
  <course>14.55</course>
  <speed>0.022360679774997897</speed>
  <fix>3d</fix>
</trkpt>
<trkpt lat="-27.2744125" lon="151.2900659">
  <ele>343.09</ele>
  <time>2026-09-01T19:54:59Z</time>
  <course>12.62</course>
  <speed>0.0</speed>
  <fix>3d</fix>
</trkpt>
<trkpt lat="-27.2744127" lon="151.290066">
  <ele>343.09</ele>
  <time>2026-09-01T19:54:59Z</time>
  <course>14.55</course>
  <speed>0.022360679774997897</speed>
  <fix>3d</fix>
</trkpt>
<trkpt lat="-27.2744125" lon="151.2900659">
  <ele>343.09</ele>
  <time>2026-09-01T19:54:59Z</time>
  <course>12.62</course>
  <speed>0.0</speed>
  <fix>3d</fix>
</trkpt>
<trkpt lat="-27.2744127" lon="151.290066">
  <ele>343.09</ele>
  <time>2026-09-01T19:54:59Z</time>
  <course>14.55</course>
  <speed>0.022360679774997897</speed>
  <fix>3d</fix>
</trkpt>
<trkpt lat="-27.2744125" lon="151.2900659">
  <ele>343.09</ele>
  <time>2026-09-01T19:54:59Z</time>
  <course>12.62</course>
  <speed>0.0</speed>
  <fix>3d</fix>
</trkpt>
<trkpt lat="-27.2744127" lon="151.290066">
  <ele>343.09</ele>
  <time>2026-09-01T19:54:59Z</time>
  <course>14.56</course>
  <speed>0.022360679774997897</speed>
  <fix>3d</fix>
</trkpt>
<trkpt lat="-27.2744125" lon="151.2900659">
  <ele>343.09</ele>
  <time>2026-09-01T19:54:59Z</time>
  <course>12.62</course>
  <speed>0.0</speed>
  <fix>3d</fix>
</trkpt>
<trkpt lat="-27.2744127" lon="151.290066">
  <ele>343.09</ele>
  <time>2026-09-01T19:54:59Z</time>
  <course>14.56</course>
  <speed>0.022360679774997897</speed>
  <fix>3d</fix>
</trkpt>
<trkpt lat="-27.2744125" lon="151.2900659">
  <ele>343.09</ele>
  <time>2026-09-01T19:54:59Z</time>
  <course>12.62</course>
  <speed>0.0</speed>
  <fix>3d</fix>
</trkpt>
<trkpt lat="-27.2744127" lon="151.290066">
  <ele>343.09</ele>
  <time>2026-09-01T19:54:59Z</time>
  <course>14.56</course>
  <speed>0.022360679774997897</speed>
  <fix>3d</fix>
</trkpt>
<trkpt lat="-27.2744125" lon="151.2900659">
  <ele>343.09</ele>
  <time>2026-09-01T19:54:59Z</time>
  <course>12.62</course>
  <speed>0.0</speed>
  <fix>3d</fix>
</trkpt>
<trkpt lat="-27.2744127" lon="151.290066">
  <ele>343.1</ele>
  <time>2026-09-01T19:54:59Z</time>
  <course>14.56</course>
  <speed>0.022360679774997897</speed>
  <fix>3d</fix>
</trkpt>
<trkpt lat="-27.2744125" lon="151.2900659">
  <ele>343.09</ele>
  <time>2026-09-01T19:54:59Z</time>
  <course>12.62</course>
  <speed>0.0</speed>
  <fix>3d</fix>
</trkpt>
<trkpt lat="-27.2744127" lon="151.290066">
  <ele>343.1</ele>
  <time>2026-09-01T19:54:59Z</time>
  <course>14.56</course>
  <speed>0.022360679774997897</speed>
  <fix>3d</fix>
</trkpt>
<trkpt lat="-27.2744125" lon="151.2900659">
  <ele>343.09</ele>
  <time>2026-09-01T19:54:59Z</time>
  <course>12.62</course>
  <speed>0.0</speed>
  <fix>3d</fix>
</trkpt>
<trkpt lat="-27.2744127" lon="151.290066">
  <ele>343.11</ele>
  <time>2026-09-01T19:54:59Z</time>
  <course>14.56</course>
  <speed>0.022360679774997897</speed>
  <fix>3d</fix>
</trkpt>
<trkpt lat="-27.2744125" lon="151.2900659">
  <ele>343.09</ele>
  <time>2026-09-01T19:54:59Z</time>
  <course>12.62</course>
  <speed>0.0</speed>
  <fix>3d</fix>
</trkpt>
<trkpt lat="-27.2744127" lon="151.290066">
  <ele>343.11</ele>
  <time>2026-09-01T19:54:59Z</time>
  <course>14.56</course>
  <speed>0.022360679774997897</speed>
  <fix>3d</fix>
</trkpt>
<trkpt lat="-27.2744125" lon="151.2900659">
  <ele>343.09</ele>
  <time>2026-09-01T19:54:59Z</time>
  <course>12.62</course>
  <speed>0.0</speed>
  <fix>3d</fix>
</trkpt>
<trkpt lat="-27.2744127" lon="151.290066">
  <ele>343.12</ele>
  <time>2026-09-01T19:54:59Z</time>
  <course>14.56</course>
  <speed>0.022360679774997897</speed>
  <fix>3d</fix>
</trkpt>
<trkpt lat="-27.2744125" lon="151.2900659">
  <ele>343.09</ele>
  <time>2026-09-01T19:54:59Z</time>
  <course>12.62</course>
  <speed>0.0</speed>
  <fix>3d</fix>
</trkpt>
<trkpt lat="-27.2744127" lon="151.290066">
  <ele>343.12</ele>
  <time>2026-09-01T19:54:59Z</time>
  <course>14.56</course>
  <speed>0.022360679774997897</speed>
  <fix>3d</fix>
</trkpt>
<trkpt lat="-27.2744125" lon="151.2900659">
  <ele>343.09</ele>
  <time>2026-09-01T19:54:59Z</time>
  <course>12.62</course>
  <speed>0.0</speed>
  <fix>3d</fix>
</trkpt>
<trkpt lat="-27.2744127" lon="151.290066">
  <ele>343.12</ele>
  <time>2026-09-01T19:54:59Z</time>
  <course>14.56</course>
  <speed>0.022360679774997897</speed>
  <fix>3d</fix>
</trkpt>
<trkpt lat="-27.2744125" lon="151.2900659">
  <ele>343.09</ele>
  <time>2026-09-01T19:54:59Z</time>
  <course>12.62</course>
  <speed>0.0</speed>
  <fix>3d</fix>
</trkpt>
<trkpt lat="-27.2744127" lon="151.290066">
  <ele>343.12</ele>
  <time>2026-09-01T19:54:59Z</time>
  <course>14.56</course>
  <speed>0.022360679774997897</speed>
  <fix>3d</fix>
</trkpt>
<trkpt lat="-27.2744125" lon="151.2900659">
  <ele>343.09</ele>
  <time>2026-09-01T19:54:59Z</time>
  <course>12.62</course>
  <speed>0.0</speed>
  <fix>3d</fix>
</trkpt>
<trkpt lat="-27.2744127" lon="151.290066">
  <ele>343.13</ele>
  <time>2026-09-01T19:54:59Z</time>
  <course>14.56</course>
  <speed>0.022360679774997897</speed>
  <fix>3d</fix>
</trkpt>
<trkpt lat="-27.2744125" lon="151.2900659">
  <ele>343.09</ele>
  <time>2026-09-01T19:54:59Z</time>
  <course>12.62</course>
  <speed>0.0</speed>
  <fix>3d</fix>
</trkpt>
<trkpt lat="-27.2744127" lon="151.290066">
  <ele>343.13</ele>
  <time>2026-09-01T19:54:59Z</time>
  <course>14.56</course>
  <speed>0.022360679774997897</speed>
  <fix>3d</fix>
</trkpt>
<trkpt lat="-27.2744125" lon="151.2900659">
  <ele>343.09</ele>
  <time>2026-09-01T19:54:59Z</time>
  <course>12.62</course>
  <speed>0.0</speed>
  <fix>3d</fix>
</trkpt>
<trkpt lat="-27.2744127" lon="151.290066">
  <ele>343.13</ele>
  <time>2026-09-01T19:54:59Z</time>
  <course>14.56</course>
  <speed>0.022360679774997897</speed>
  <fix>3d</fix>
</trkpt>
<trkpt lat="-27.2744125" lon="151.2900659">
  <ele>343.09</ele>
  <time>2026-09-01T19:54:59Z</time>
  <course>12.62</course>
  <speed>0.0</speed>
  <fix>3d</fix>
</trkpt>
<trkpt lat="-27.2744127" lon="151.290066">
  <ele>343.14</ele>
  <time>2026-09-01T19:54:59Z</time>
  <course>14.56</course>
  <speed>0.022360679774997897</speed>
  <fix>3d</fix>
</trkpt>
<trkpt lat="-27.2744125" lon="151.2900659">
  <ele>343.09</ele>
  <time>2026-09-01T19:54:59Z</time>
  <course>12.62</course>
  <speed>0.0</speed>
  <fix>3d</fix>
</trkpt>
<trkpt lat="-27.2744127" lon="151.290066">
  <ele>343.14</ele>
  <time>2026-09-01T19:54:59Z</time>
  <course>14.56</course>
  <speed>0.022360679774997897</speed>
  <fix>3d</fix>
</trkpt>
<trkpt lat="-27.2744125" lon="151.2900659">
  <ele>343.09</ele>
  <time>2026-09-01T19:54:59Z</time>
  <course>12.62</course>
  <speed>0.0</speed>
  <fix>3d</fix>
</trkpt>
<trkpt lat="-27.2744127" lon="151.290066">
  <ele>343.14</ele>
  <time>2026-09-01T19:54:59Z</time>
  <course>14.56</course>
  <speed>0.022360679774997897</speed>
  <fix>3d</fix>
</trkpt>
<trkpt lat="-27.2744125" lon="151.2900659">
  <ele>343.09</ele>
  <time>2026-09-01T19:54:59Z</time>
  <course>12.62</course>
  <speed>0.0</speed>
  <fix>3d</fix>
</trkpt>
<trkpt lat="-27.2744127" lon="151.290066">
  <ele>343.14</ele>
  <time>2026-09-01T19:54:59Z</time>
  <course>14.57</course>
  <speed>0.022360679774997897</speed>
  <fix>3d</fix>
</trkpt>
<trkpt lat="-27.2744125" lon="151.2900659">
  <ele>343.09</ele>
  <time>2026-09-01T19:54:59Z</time>
  <course>12.62</course>
  <speed>0.0</speed>
  <fix>3d</fix>
</trkpt>
<trkpt lat="-27.2744127" lon="151.290066">
  <ele>343.14</ele>
  <time>2026-09-01T19:54:59Z</time>
  <course>14.57</course>
  <speed>0.022360679774997897</speed>
  <fix>3d</fix>
</trkpt>
<trkpt lat="-27.2744125" lon="151.2900659">
  <ele>343.09</ele>
  <time>2026-09-01T19:54:59Z</time>
  <course>12.62</course>
  <speed>0.0</speed>
  <fix>3d</fix>
</trkpt>
<trkpt lat="-27.2744127" lon="151.290066">
  <ele>343.14</ele>
  <time>2026-09-01T19:54:59Z</time>
  <course>14.57</course>
  <speed>0.022360679774997897</speed>
  <fix>3d</fix>
</trkpt>
<trkpt lat="-27.2744125" lon="151.2900659">
  <ele>343.09</ele>
  <time>2026-09-01T19:54:59Z</time>
  <course>12.62</course>
  <speed>0.0</speed>
  <fix>3d</fix>
</trkpt>
<trkpt lat="-27.2744127" lon="151.290066">
  <ele>343.14</ele>
  <time>2026-09-01T19:54:59Z</time>
  <course>14.57</course>
  <speed>0.022360679774997897</speed>
  <fix>3d</fix>
</trkpt>
<trkpt lat="-27.2744125" lon="151.2900659">
  <ele>343.09</ele>
  <time>2026-09-01T19:54:59Z</time>
  <course>12.62</course>
  <speed>0.0</speed>
  <fix>3d</fix>
</trkpt>
<trkpt lat="-27.2744127" lon="151.290066">
  <ele>343.14</ele>
  <time>2026-09-01T19:54:59Z</time>
  <course>14.57</course>
  <speed>0.022360679774997897</speed>
  <fix>3d</fix>
</trkpt>
<trkpt lat="-27.2744125" lon="151.2900659">
  <ele>343.09</ele>
  <time>2026-09-01T19:54:59Z</time>
  <course>12.62</course>
  <speed>0.0</speed>
  <fix>3d</fix>
</trkpt>
<trkpt lat="-27.2744127" lon="151.290066">
  <ele>343.14</ele>
  <time>2026-09-01T19:54:59Z</time>
  <course>14.57</course>
  <speed>0.022360679774997897</speed>
  <fix>3d</fix>
</trkpt>
<trkpt lat="-27.2744125" lon="151.2900659">
  <ele>343.09</ele>
  <time>2026-09-01T19:54:59Z</time>
  <course>12.62</course>
  <speed>0.0</speed>
  <fix>3d</fix>
</trkpt>
<trkpt lat="-27.2744127" lon="151.290066">
  <ele>343.14</ele>
  <time>2026-09-01T19:54:59Z</time>
  <course>14.57</course>
  <speed>0.022360679774997897</speed>
  <fix>3d</fix>
</trkpt>
<trkpt lat="-27.2744125" lon="151.2900659">
  <ele>343.09</ele>
  <time>2026-09-01T19:54:59Z</time>
  <course>12.62</course>
  <speed>0.0</speed>
  <fix>3d</fix>
</trkpt>
<trkpt lat="-27.2744127" lon="151.290066">
  <ele>343.15</ele>
  <time>2026-09-01T19:54:59Z</time>
  <course>14.57</course>
  <speed>0.022360679774997897</speed>
  <fix>3d</fix>
</trkpt>
<trkpt lat="-27.2744125" lon="151.2900659">
  <ele>343.09</ele>
  <time>2026-09-01T19:54:59Z</time>
  <course>12.62</course>
  <speed>0.0</speed>
  <fix>3d</fix>
</trkpt>
<trkpt lat="-27.2744127" lon="151.290066">
  <ele>343.15</ele>
  <time>2026-09-01T19:54:59Z</time>
  <course>14.57</course>
  <speed>0.022360679774997897</speed>
  <fix>3d</fix>
</trkpt>
<trkpt lat="-27.2744125" lon="151.2900659">
  <ele>343.09</ele>
  <time>2026-09-01T19:54:59Z</time>
  <course>12.62</course>
  <speed>0.0</speed>
  <fix>3d</fix>
</trkpt>
<trkpt lat="-27.2744127" lon="151.290066">
  <ele>343.15</ele>
  <time>2026-09-01T19:54:59Z</time>
  <course>14.57</course>
  <speed>0.022360679774997897</speed>
  <fix>3d</fix>
</trkpt>
<trkpt lat="-27.2744125" lon="151.2900659">
  <ele>343.09</ele>
  <time>2026-09-01T19:54:59Z</time>
  <course>12.62</course>
  <speed>0.0</speed>
  <fix>3d</fix>
</trkpt>
<trkpt lat="-27.2744127" lon="151.290066">
  <ele>343.15</ele>
  <time>2026-09-01T19:54:59Z</time>
  <course>14.57</course>
  <speed>0.022360679774997897</speed>
  <fix>3d</fix>
</trkpt>
<trkpt lat="-27.2744125" lon="151.2900659">
  <ele>343.09</ele>
  <time>2026-09-01T19:54:59Z</time>
  <course>12.62</course>
  <speed>0.0</speed>
  <fix>3d</fix>
</trkpt>
<trkpt lat="-27.2744127" lon="151.290066">
  <ele>343.15</ele>
  <time>2026-09-01T19:54:59Z</time>
  <course>14.57</course>
  <speed>0.022360679774997897</speed>
  <fix>3d</fix>
</trkpt>
<trkpt lat="-27.2744125" lon="151.2900659">
  <ele>343.09</ele>
  <time>2026-09-01T19:54:59Z</time>
  <course>12.62</course>
  <speed>0.0</speed>
  <fix>3d</fix>
</trkpt>
<trkpt lat="-27.2744127" lon="151.290066">
  <ele>343.16</ele>
  <time>2026-09-01T19:54:59Z</time>
  <course>14.57</course>
  <speed>0.022360679774997897</speed>
  <fix>3d</fix>
</trkpt>
<trkpt lat="-27.2744125" lon="151.2900659">
  <ele>343.09</ele>
  <time>2026-09-01T19:54:59Z</time>
  <course>12.62</course>
  <speed>0.0</speed>
  <fix>3d</fix>
</trkpt>
<trkpt lat="-27.2744127" lon="151.290066">
  <ele>343.16</ele>
  <time>2026-09-01T19:54:59Z</time>
  <course>14.57</course>
  <speed>0.022360679774997897</speed>
  <fix>3d</fix>
</trkpt>
<trkpt lat="-27.2744125" lon="151.2900659">
  <ele>343.09</ele>
  <time>2026-09-01T19:54:59Z</time>
  <course>12.62</course>
  <speed>0.0</speed>
  <fix>3d</fix>
</trkpt>
<trkpt lat="-27.2744127" lon="151.290066">
  <ele>343.17</ele>
  <time>2026-09-01T19:54:59Z</time>
  <course>14.57</course>
  <speed>0.022360679774997897</speed>
  <fix>3d</fix>
</trkpt>
<trkpt lat="-27.2744125" lon="151.2900659">
  <ele>343.09</ele>
  <time>2026-09-01T19:54:59Z</time>
  <course>12.62</course>
  <speed>0.0</speed>
  <fix>3d</fix>
</trkpt>
<trkpt lat="-27.2744127" lon="151.290066">
  <ele>343.17</ele>
  <time>2026-09-01T19:54:59Z</time>
  <course>14.57</course>
  <speed>0.022360679774997897</speed>
  <fix>3d</fix>
</trkpt>
<trkpt lat="-27.2744125" lon="151.2900659">
  <ele>343.09</ele>
  <time>2026-09-01T19:54:59Z</time>
  <course>12.62</course>
  <speed>0.0</speed>
  <fix>3d</fix>
</trkpt>
<trkpt lat="-27.2744127" lon="151.290066">
  <ele>343.17</ele>
  <time>2026-09-01T19:54:59Z</time>
  <course>14.57</course>
  <speed>0.022360679774997897</speed>
  <fix>3d</fix>
</trkpt>
<trkpt lat="-27.2744125" lon="151.2900659">
  <ele>343.09</ele>
  <time>2026-09-01T19:54:59Z</time>
  <course>12.62</course>
  <speed>0.0</speed>
  <fix>3d</fix>
</trkpt>
<trkpt lat="-27.2744127" lon="151.290066">
  <ele>343.17</ele>
  <time>2026-09-01T19:54:59Z</time>
  <course>14.57</course>
  <speed>0.022360679774997897</speed>
  <fix>3d</fix>
</trkpt>
<trkpt lat="-27.2744125" lon="151.2900659">
  <ele>343.09</ele>
  <time>2026-09-01T19:54:59Z</time>
  <course>12.62</course>
  <speed>0.0</speed>
  <fix>3d</fix>
</trkpt>
<trkpt lat="-27.2744127" lon="151.290066">
  <ele>343.17</ele>
  <time>2026-09-01T19:54:59Z</time>
  <course>14.57</course>
  <speed>0.022360679774997897</speed>
  <fix>3d</fix>
</trkpt>
<trkpt lat="-27.2744125" lon="151.2900659">
  <ele>343.09</ele>
  <time>2026-09-01T19:54:59Z</time>
  <course>12.62</course>
  <speed>0.0</speed>
  <fix>3d</fix>
</trkpt>
<trkpt lat="-27.2744127" lon="151.290066">
  <ele>343.17</ele>
  <time>2026-09-01T19:54:59Z</time>
  <course>14.57</course>
  <speed>0.022360679774997897</speed>
  <fix>3d</fix>
</trkpt>
<trkpt lat="-27.2744125" lon="151.2900659">
  <ele>343.09</ele>
  <time>2026-09-01T19:54:59Z</time>
  <course>12.62</course>
  <speed>0.0</speed>
  <fix>3d</fix>
</trkpt>
<trkpt lat="-27.2744127" lon="151.290066">
  <ele>343.17</ele>
  <time>2026-09-01T19:54:59Z</time>
  <course>14.57</course>
  <speed>0.022360679774997897</speed>
  <fix>3d</fix>
</trkpt>
<trkpt lat="-27.2744125" lon="151.2900659">
  <ele>343.09</ele>
  <time>2026-09-01T19:54:59Z</time>
  <course>12.62</course>
  <speed>0.0</speed>
  <fix>3d</fix>
</trkpt>
<trkpt lat="-27.2744127" lon="151.290066">
  <ele>343.17</ele>
  <time>2026-09-01T19:54:59Z</time>
  <course>14.58</course>
  <speed>0.022360679774997897</speed>
  <fix>3d</fix>
</trkpt>
<trkpt lat="-27.2744125" lon="151.2900659">
  <ele>343.09</ele>
  <time>2026-09-01T19:54:59Z</time>
  <course>12.62</course>
  <speed>0.0</speed>
  <fix>3d</fix>
</trkpt>
<trkpt lat="-27.2744127" lon="151.290066">
  <ele>343.17</ele>
  <time>2026-09-01T19:54:59Z</time>
  <course>14.58</course>
  <speed>0.022360679774997897</speed>
  <fix>3d</fix>
</trkpt>
<trkpt lat="-27.2744125" lon="151.2900659">
  <ele>343.09</ele>
  <time>2026-09-01T19:54:59Z</time>
  <course>12.62</course>
  <speed>0.0</speed>
  <fix>3d</fix>
</trkpt>
<trkpt lat="-27.2744127" lon="151.290066">
  <ele>343.17</ele>
  <time>2026-09-01T19:54:59Z</time>
  <course>14.58</course>
  <speed>0.022360679774997897</speed>
  <fix>3d</fix>
</trkpt>
<trkpt lat="-27.2744125" lon="151.2900659">
  <ele>343.09</ele>
  <time>2026-09-01T19:54:59Z</time>
  <course>12.62</course>
  <speed>0.0</speed>
  <fix>3d</fix>
</trkpt>
<trkpt lat="-27.2744127" lon="151.290066">
  <ele>343.18</ele>
  <time>2026-09-01T19:54:59Z</time>
  <course>14.58</course>
  <speed>0.022360679774997897</speed>
  <fix>3d</fix>
</trkpt>
<trkpt lat="-27.2744125" lon="151.2900659">
  <ele>343.09</ele>
  <time>2026-09-01T19:54:59Z</time>
  <course>12.62</course>
  <speed>0.0</speed>
  <fix>3d</fix>
</trkpt>
<trkpt lat="-27.2744127" lon="151.290066">
  <ele>343.18</ele>
  <time>2026-09-01T19:54:59Z</time>
  <course>14.58</course>
  <speed>0.022360679774997897</speed>
  <fix>3d</fix>
</trkpt>
<trkpt lat="-27.2744125" lon="151.2900659">
  <ele>343.09</ele>
  <time>2026-09-01T19:54:59Z</time>
  <course>12.62</course>
  <speed>0.0</speed>
  <fix>3d</fix>
</trkpt>
<trkpt lat="-27.2744127" lon="151.290066">
  <ele>343.18</ele>
  <time>2026-09-01T19:54:59Z</time>
  <course>14.58</course>
  <speed>0.022360679774997897</speed>
  <fix>3d</fix>
</trkpt>
<trkpt lat="-27.2744125" lon="151.2900659">
  <ele>343.09</ele>
  <time>2026-09-01T19:54:59Z</time>
  <course>12.62</course>
  <speed>0.0</speed>
  <fix>3d</fix>
</trkpt>
<trkpt lat="-27.2744127" lon="151.290066">
  <ele>343.18</ele>
  <time>2026-09-01T19:54:59Z</time>
  <course>14.58</course>
  <speed>0.022360679774997897</speed>
  <fix>3d</fix>
</trkpt>
<trkpt lat="-27.2744125" lon="151.2900659">
  <ele>343.09</ele>
  <time>2026-09-01T19:54:59Z</time>
  <course>12.62</course>
  <speed>0.0</speed>
  <fix>3d</fix>
</trkpt>
<trkpt lat="-27.2744127" lon="151.290066">
  <ele>343.18</ele>
  <time>2026-09-01T19:54:59Z</time>
  <course>14.58</course>
  <speed>0.022360679774997897</speed>
  <fix>3d</fix>
</trkpt>
<trkpt lat="-27.2744125" lon="151.2900659">
  <ele>343.09</ele>
  <time>2026-09-01T19:54:59Z</time>
  <course>12.62</course>
  <speed>0.0</speed>
  <fix>3d</fix>
</trkpt>
<trkpt lat="-27.2744127" lon="151.290066">
  <ele>343.19</ele>
  <time>2026-09-01T19:54:59Z</time>
  <course>14.58</course>
  <speed>0.022360679774997897</speed>
  <fix>3d</fix>
</trkpt>
<trkpt lat="-27.2744125" lon="151.2900659">
  <ele>343.09</ele>
  <time>2026-09-01T19:54:59Z</time>
  <course>12.62</course>
  <speed>0.0</speed>
  <fix>3d</fix>
</trkpt>
<trkpt lat="-27.2744127" lon="151.290066">
  <ele>343.19</ele>
  <time>2026-09-01T19:54:59Z</time>
  <course>14.58</course>
  <speed>0.022360679774997897</speed>
  <fix>3d</fix>
</trkpt>
<trkpt lat="-27.2744125" lon="151.2900659">
  <ele>343.09</ele>
  <time>2026-09-01T19:54:59Z</time>
  <course>12.62</course>
  <speed>0.0</speed>
  <fix>3d</fix>
</trkpt>
<trkpt lat="-27.2744127" lon="151.290066">
  <ele>343.19</ele>
  <time>2026-09-01T19:54:59Z</time>
  <course>14.58</course>
  <speed>0.022360679774997897</speed>
  <fix>3d</fix>
</trkpt>
<trkpt lat="-27.2744125" lon="151.2900659">
  <ele>343.09</ele>
  <time>2026-09-01T19:54:59Z</time>
  <course>12.62</course>
  <speed>0.0</speed>
  <fix>3d</fix>
</trkpt>
<trkpt lat="-27.2744127" lon="151.290066">
  <ele>343.19</ele>
  <time>2026-09-01T19:54:59Z</time>
  <course>14.58</course>
  <speed>0.022360679774997897</speed>
  <fix>3d</fix>
</trkpt>
<trkpt lat="-27.2744125" lon="151.2900659">
  <ele>343.09</ele>
  <time>2026-09-01T19:54:59Z</time>
  <course>12.62</course>
  <speed>0.0</speed>
  <fix>3d</fix>
</trkpt>
<trkpt lat="-27.2744127" lon="151.290066">
  <ele>343.19</ele>
  <time>2026-09-01T19:54:59Z</time>
  <course>14.58</course>
  <speed>0.022360679774997897</speed>
  <fix>3d</fix>
</trkpt>
<trkpt lat="-27.2744125" lon="151.2900659">
  <ele>343.09</ele>
  <time>2026-09-01T19:54:59Z</time>
  <course>12.62</course>
  <speed>0.0</speed>
  <fix>3d</fix>
</trkpt>
<trkpt lat="-27.2744127" lon="151.290066">
  <ele>343.2</ele>
  <time>2026-09-01T19:54:59Z</time>
  <course>14.58</course>
  <speed>0.022360679774997897</speed>
  <fix>3d</fix>
</trkpt>
<trkpt lat="-27.2744125" lon="151.2900659">
  <ele>343.09</ele>
  <time>2026-09-01T19:54:59Z</time>
  <course>12.62</course>
  <speed>0.0</speed>
  <fix>3d</fix>
</trkpt>
<trkpt lat="-27.2744127" lon="151.290066">
  <ele>343.2</ele>
  <time>2026-09-01T19:54:59Z</time>
  <course>14.58</course>
  <speed>0.022360679774997897</speed>
  <fix>3d</fix>
</trkpt>
<trkpt lat="-27.2744125" lon="151.2900659">
  <ele>343.09</ele>
  <time>2026-09-01T19:54:59Z</time>
  <course>12.62</course>
  <speed>0.0</speed>
  <fix>3d</fix>
</trkpt>
<trkpt lat="-27.2744127" lon="151.290066">
  <ele>343.2</ele>
  <time>2026-09-01T19:54:59Z</time>
  <course>14.58</course>
  <speed>0.022360679774997897</speed>
  <fix>3d</fix>
</trkpt>
<trkpt lat="-27.2744125" lon="151.2900659">
  <ele>343.09</ele>
  <time>2026-09-01T19:54:59Z</time>
  <course>12.62</course>
  <speed>0.0</speed>
  <fix>3d</fix>
</trkpt>
<trkpt lat="-27.2744127" lon="151.290066">
  <ele>343.2</ele>
  <time>2026-09-01T19:54:59Z</time>
  <course>14.58</course>
  <speed>0.022360679774997897</speed>
  <fix>3d</fix>
</trkpt>
<trkpt lat="-27.2744125" lon="151.2900659">
  <ele>343.09</ele>
  <time>2026-09-01T19:54:59Z</time>
  <course>12.62</course>
  <speed>0.0</speed>
  <fix>3d</fix>
</trkpt>
<trkpt lat="-27.2744127" lon="151.290066">
  <ele>343.21</ele>
  <time>2026-09-01T19:54:59Z</time>
  <course>14.58</course>
  <speed>0.022360679774997897</speed>
  <fix>3d</fix>
</trkpt>
<trkpt lat="-27.2744125" lon="151.2900659">
  <ele>343.09</ele>
  <time>2026-09-01T19:54:59Z</time>
  <course>12.62</course>
  <speed>0.0</speed>
  <fix>3d</fix>
</trkpt>
<trkpt lat="-27.2744127" lon="151.290066">
  <ele>343.21</ele>
  <time>2026-09-01T19:54:59Z</time>
  <course>14.58</course>
  <speed>0.022360679774997897</speed>
  <fix>3d</fix>
</trkpt>
<trkpt lat="-27.2744125" lon="151.2900659">
  <ele>343.09</ele>
  <time>2026-09-01T19:54:59Z</time>
  <course>12.62</course>
  <speed>0.0</speed>
  <fix>3d</fix>
</trkpt>
<trkpt lat="-27.2744127" lon="151.290066">
  <ele>343.21</ele>
  <time>2026-09-01T19:54:59Z</time>
  <course>14.58</course>
  <speed>0.022360679774997897</speed>
  <fix>3d</fix>
</trkpt>
<trkpt lat="-27.2744125" lon="151.2900659">
  <ele>343.09</ele>
  <time>2026-09-01T19:54:59Z</time>
  <course>12.62</course>
  <speed>0.0</speed>
  <fix>3d</fix>
</trkpt>
<trkpt lat="-27.2744127" lon="151.290066">
  <ele>343.09</ele>
  <time>2026-09-01T19:54:59Z</time>
  <course>14.58</course>
  <speed>0.022360679774997897</speed>
  <fix>3d</fix>
</trkpt>
<trkpt lat="-27.2744125" lon="151.2900659">
  <ele>343.09</ele>
  <time>2026-09-01T19:54:59Z</time>
  <course>12.62</course>
  <speed>0.0</speed>
  <fix>3d</fix>
</trkpt>
<trkpt lat="-27.2744127" lon="151.290066">
  <ele>343.09</ele>
  <time>2026-09-01T19:54:59Z</time>
  <course>14.58</course>
  <speed>0.022360679774997897</speed>
  <fix>3d</fix>
</trkpt>
<trkpt lat="-27.2744125" lon="151.2900659">
  <ele>343.09</ele>
  <time>2026-09-01T19:54:59Z</time>
  <course>12.62</course>
  <speed>0.0</speed>
  <fix>3d</fix>
</trkpt>
<trkpt lat="-27.2744127" lon="151.290066">
  <ele>343.09</ele>
  <time>2026-09-01T19:54:59Z</time>
  <course>14.58</course>
  <speed>0.022360679774997897</speed>
  <fix>3d</fix>
</trkpt>
<trkpt lat="-27.2744125" lon="151.2900659">
  <ele>343.09</ele>
  <time>2026-09-01T19:54:59Z</time>
  <course>12.62</course>
  <speed>0.0</speed>
  <fix>3d</fix>
</trkpt>
<trkpt lat="-27.2744127" lon="151.290066">
  <ele>343.09</ele>
  <time>2026-09-01T19:54:59Z</time>
  <course>14.58</course>
  <speed>0.022360679774997897</speed>
  <fix>3d</fix>
</trkpt>
<trkpt lat="-27.2744125" lon="151.2900659">
  <ele>343.09</ele>
  <time>2026-09-01T19:54:59Z</time>
  <course>12.62</course>
  <speed>0.0</speed>
  <fix>3d</fix>
</trkpt>
<trkpt lat="-27.2744127" lon="151.290066">
  <ele>343.09</ele>
  <time>2026-09-01T19:54:59Z</time>
  <course>14.58</course>
  <speed>0.022360679774997897</speed>
  <fix>3d</fix>
</trkpt>
<trkpt lat="-27.2744125" lon="151.2900659">
  <ele>343.09</ele>
  <time>2026-09-01T19:54:59Z</time>
  <course>12.62</course>
  <speed>0.0</speed>
  <fix>3d</fix>
</trkpt>
<trkpt lat="-27.2744127" lon="151.290066">
  <ele>343.09</ele>
  <time>2026-09-01T19:54:59Z</time>
  <course>14.58</course>
  <speed>0.022360679774997897</speed>
  <fix>3d</fix>
</trkpt>
<trkpt lat="-27.2744125" lon="151.2900659">
  <ele>343.09</ele>
  <time>2026-09-01T19:54:59Z</time>
  <course>12.62</course>
  <speed>0.0</speed>
  <fix>3d</fix>
</trkpt>
<trkpt lat="-27.2744127" lon="151.290066">
  <ele>343.1</ele>
  <time>2026-09-01T19:54:59Z</time>
  <course>14.58</course>
  <speed>0.022360679774997897</speed>
  <fix>3d</fix>
</trkpt>
<trkpt lat="-27.2744125" lon="151.2900659">
  <ele>343.09</ele>
  <time>2026-09-01T19:54:59Z</time>
  <course>12.62</course>
  <speed>0.0</speed>
  <fix>3d</fix>
</trkpt>
<trkpt lat="-27.2744127" lon="151.290066">
  <ele>343.1</ele>
  <time>2026-09-01T19:54:59Z</time>
  <course>14.58</course>
  <speed>0.022360679774997897</speed>
  <fix>3d</fix>
</trkpt>
<trkpt lat="-27.2744125" lon="151.2900659">
  <ele>343.09</ele>
  <time>2026-09-01T19:54:59Z</time>
  <course>12.62</course>
  <speed>0.0</speed>
  <fix>3d</fix>
</trkpt>
<trkpt lat="-27.2744127" lon="151.290066">
  <ele>343.1</ele>
  <time>2026-09-01T19:54:59Z</time>
  <course>14.58</course>
  <speed>0.022360679774997897</speed>
  <fix>3d</fix>
</trkpt>
<trkpt lat="-27.2744125" lon="151.2900659">
  <ele>343.09</ele>
  <time>2026-09-01T19:54:59Z</time>
  <course>12.62</course>
  <speed>0.0</speed>
  <fix>3d</fix>
</trkpt>
<trkpt lat="-27.2744127" lon="151.290066">
  <ele>343.11</ele>
  <time>2026-09-01T19:54:59Z</time>
  <course>14.58</course>
  <speed>0.022360679774997897</speed>
  <fix>3d</fix>
</trkpt>
<trkpt lat="-27.2744125" lon="151.2900659">
  <ele>343.09</ele>
  <time>2026-09-01T19:54:59Z</time>
  <course>12.62</course>
  <speed>0.0</speed>
  <fix>3d</fix>
</trkpt>
<trkpt lat="-27.2744127" lon="151.290066">
  <ele>343.11</ele>
  <time>2026-09-01T19:54:59Z</time>
  <course>14.58</course>
  <speed>0.022360679774997897</speed>
  <fix>3d</fix>
</trkpt>
<trkpt lat="-27.2744125" lon="151.2900659">
  <ele>343.09</ele>
  <time>2026-09-01T19:54:59Z</time>
  <course>12.62</course>
  <speed>0.0</speed>
  <fix>3d</fix>
</trkpt>
<trkpt lat="-27.2744127" lon="151.290066">
  <ele>343.11</ele>
  <time>2026-09-01T19:54:59Z</time>
  <course>14.58</course>
  <speed>0.022360679774997897</speed>
  <fix>3d</fix>
</trkpt>
<trkpt lat="-27.2744125" lon="151.2900659">
  <ele>343.09</ele>
  <time>2026-09-01T19:54:59Z</time>
  <course>12.62</course>
  <speed>0.0</speed>
  <fix>3d</fix>
</trkpt>
<trkpt lat="-27.2744127" lon="151.290066">
  <ele>343.11</ele>
  <time>2026-09-01T19:54:59Z</time>
  <course>14.58</course>
  <speed>0.022360679774997897</speed>
  <fix>3d</fix>
</trkpt>
<trkpt lat="-27.2744125" lon="151.2900659">
  <ele>343.09</ele>
  <time>2026-09-01T19:54:59Z</time>
  <course>12.62</course>
  <speed>0.0</speed>
  <fix>3d</fix>
</trkpt>
<trkpt lat="-27.2744127" lon="151.290066">
  <ele>343.11</ele>
  <time>2026-09-01T19:54:59Z</time>
  <course>14.58</course>
  <speed>0.022360679774997897</speed>
  <fix>3d</fix>
</trkpt>
<trkpt lat="-27.2744125" lon="151.2900659">
  <ele>343.09</ele>
  <time>2026-09-01T19:54:59Z</time>
  <course>12.62</course>
  <speed>0.0</speed>
  <fix>3d</fix>
</trkpt>
<trkpt lat="-27.2744127" lon="151.290066">
  <ele>343.12</ele>
  <time>2026-09-01T19:54:59Z</time>
  <course>14.58</course>
  <speed>0.022360679774997897</speed>
  <fix>3d</fix>
</trkpt>
<trkpt lat="-27.2744125" lon="151.2900659">
  <ele>343.09</ele>
  <time>2026-09-01T19:54:59Z</time>
  <course>12.62</course>
  <speed>0.0</speed>
  <fix>3d</fix>
</trkpt>
<trkpt lat="-27.2744127" lon="151.290066">
  <ele>343.12</ele>
  <time>2026-09-01T19:54:59Z</time>
  <course>14.58</course>
  <speed>0.022360679774997897</speed>
  <fix>3d</fix>
</trkpt>
<trkpt lat="-27.2744125" lon="151.2900659">
  <ele>343.09</ele>
  <time>2026-09-01T19:54:59Z</time>
  <course>12.62</course>
  <speed>0.0</speed>
  <fix>3d</fix>
</trkpt>
<trkpt lat="-27.2744127" lon="151.290066">
  <ele>343.12</ele>
  <time>2026-09-01T19:54:59Z</time>
  <course>14.58</course>
  <speed>0.022360679774997897</speed>
  <fix>3d</fix>
</trkpt>
<trkpt lat="-27.2744125" lon="151.2900659">
  <ele>343.09</ele>
  <time>2026-09-01T19:54:59Z</time>
  <course>12.62</course>
  <speed>0.0</speed>
  <fix>3d</fix>
</trkpt>
<trkpt lat="-27.2744127" lon="151.290066">
  <ele>343.12</ele>
  <time>2026-09-01T19:54:59Z</time>
  <course>14.59</course>
  <speed>0.022360679774997897</speed>
  <fix>3d</fix>
</trkpt>
<trkpt lat="-27.2744125" lon="151.2900659">
  <ele>343.09</ele>
  <time>2026-09-01T19:54:59Z</time>
  <course>12.62</course>
  <speed>0.0</speed>
  <fix>3d</fix>
</trkpt>
<trkpt lat="-27.2744127" lon="151.290066">
  <ele>343.13</ele>
  <time>2026-09-01T19:54:59Z</time>
  <course>14.59</course>
  <speed>0.022360679774997897</speed>
  <fix>3d</fix>
</trkpt>
<trkpt lat="-27.2744125" lon="151.2900659">
  <ele>343.09</ele>
  <time>2026-09-01T19:54:59Z</time>
  <course>12.62</course>
  <speed>0.0</speed>
  <fix>3d</fix>
</trkpt>
<trkpt lat="-27.2744127" lon="151.290066">
  <ele>343.13</ele>
  <time>2026-09-01T19:54:59Z</time>
  <course>14.59</course>
  <speed>0.022360679774997897</speed>
  <fix>3d</fix>
</trkpt>
<trkpt lat="-27.2744125" lon="151.2900659">
  <ele>343.09</ele>
  <time>2026-09-01T19:54:59Z</time>
  <course>12.62</course>
  <speed>0.0</speed>
  <fix>3d</fix>
</trkpt>
<trkpt lat="-27.2744127" lon="151.290066">
  <ele>343.13</ele>
  <time>2026-09-01T19:54:59Z</time>
  <course>14.59</course>
  <speed>0.022360679774997897</speed>
  <fix>3d</fix>
</trkpt>
<trkpt lat="-27.2744125" lon="151.2900659">
  <ele>343.09</ele>
  <time>2026-09-01T19:54:59Z</time>
  <course>12.62</course>
  <speed>0.0</speed>
  <fix>3d</fix>
</trkpt>
<trkpt lat="-27.2744127" lon="151.290066">
  <ele>343.14</ele>
  <time>2026-09-01T19:54:59Z</time>
  <course>14.59</course>
  <speed>0.022360679774997897</speed>
  <fix>3d</fix>
</trkpt>
<trkpt lat="-27.2744125" lon="151.2900659">
  <ele>343.09</ele>
  <time>2026-09-01T19:54:59Z</time>
  <course>12.62</course>
  <speed>0.0</speed>
  <fix>3d</fix>
</trkpt>
<trkpt lat="-27.2744127" lon="151.290066">
  <ele>343.14</ele>
  <time>2026-09-01T19:54:59Z</time>
  <course>14.59</course>
  <speed>0.022360679774997897</speed>
  <fix>3d</fix>
</trkpt>
<trkpt lat="-27.2744125" lon="151.2900659">
  <ele>343.09</ele>
  <time>2026-09-01T19:54:59Z</time>
  <course>12.62</course>
  <speed>0.0</speed>
  <fix>3d</fix>
</trkpt>
<trkpt lat="-27.2744127" lon="151.290066">
  <ele>343.14</ele>
  <time>2026-09-01T19:54:59Z</time>
  <course>14.59</course>
  <speed>0.022360679774997897</speed>
  <fix>3d</fix>
</trkpt>
<trkpt lat="-27.2744125" lon="151.2900659">
  <ele>343.09</ele>
  <time>2026-09-01T19:54:59Z</time>
  <course>12.62</course>
  <speed>0.0</speed>
  <fix>3d</fix>
</trkpt>
<trkpt lat="-27.2744127" lon="151.290066">
  <ele>343.15</ele>
  <time>2026-09-01T19:54:59Z</time>
  <course>14.59</course>
  <speed>0.022360679774997897</speed>
  <fix>3d</fix>
</trkpt>
<trkpt lat="-27.2744125" lon="151.2900659">
  <ele>343.09</ele>
  <time>2026-09-01T19:54:59Z</time>
  <course>12.62</course>
  <speed>0.0</speed>
  <fix>3d</fix>
</trkpt>
<trkpt lat="-27.2744127" lon="151.290066">
  <ele>343.15</ele>
  <time>2026-09-01T19:54:59Z</time>
  <course>14.59</course>
  <speed>0.022360679774997897</speed>
  <fix>3d</fix>
</trkpt>
<trkpt lat="-27.2744125" lon="151.2900659">
  <ele>343.09</ele>
  <time>2026-09-01T19:54:59Z</time>
  <course>12.62</course>
  <speed>0.0</speed>
  <fix>3d</fix>
</trkpt>
<trkpt lat="-27.2744127" lon="151.290066">
  <ele>343.15</ele>
  <time>2026-09-01T19:54:59Z</time>
  <course>14.59</course>
  <speed>0.022360679774997897</speed>
  <fix>3d</fix>
</trkpt>
<trkpt lat="-27.2744125" lon="151.2900659">
  <ele>343.09</ele>
  <time>2026-09-01T19:54:59Z</time>
  <course>12.62</course>
  <speed>0.0</speed>
  <fix>3d</fix>
</trkpt>
<trkpt lat="-27.2744127" lon="151.290066">
  <ele>343.15</ele>
  <time>2026-09-01T19:54:59Z</time>
  <course>14.59</course>
  <speed>0.022360679774997897</speed>
  <fix>3d</fix>
</trkpt>
<trkpt lat="-27.2744125" lon="151.2900659">
  <ele>343.09</ele>
  <time>2026-09-01T19:54:59Z</time>
  <course>12.62</course>
  <speed>0.0</speed>
  <fix>3d</fix>
</trkpt>
<trkpt lat="-27.2744127" lon="151.290066">
  <ele>343.15</ele>
  <time>2026-09-01T19:54:59Z</time>
  <course>14.59</course>
  <speed>0.022360679774997897</speed>
  <fix>3d</fix>
</trkpt>
<trkpt lat="-27.2744125" lon="151.2900659">
  <ele>343.09</ele>
  <time>2026-09-01T19:54:59Z</time>
  <course>12.62</course>
  <speed>0.0</speed>
  <fix>3d</fix>
</trkpt>
<trkpt lat="-27.2744127" lon="151.290066">
  <ele>343.16</ele>
  <time>2026-09-01T19:54:59Z</time>
  <course>14.59</course>
  <speed>0.022360679774997897</speed>
  <fix>3d</fix>
</trkpt>
<trkpt lat="-27.2744125" lon="151.2900659">
  <ele>343.09</ele>
  <time>2026-09-01T19:54:59Z</time>
  <course>12.62</course>
  <speed>0.0</speed>
  <fix>3d</fix>
</trkpt>
<trkpt lat="-27.2744127" lon="151.290066">
  <ele>343.16</ele>
  <time>2026-09-01T19:54:59Z</time>
  <course>14.59</course>
  <speed>0.022360679774997897</speed>
  <fix>3d</fix>
</trkpt>
<trkpt lat="-27.2744125" lon="151.2900659">
  <ele>343.09</ele>
  <time>2026-09-01T19:54:59Z</time>
  <course>12.62</course>
  <speed>0.0</speed>
  <fix>3d</fix>
</trkpt>
<trkpt lat="-27.2744127" lon="151.290066">
  <ele>343.17</ele>
  <time>2026-09-01T19:54:59Z</time>
  <course>14.59</course>
  <speed>0.022360679774997897</speed>
  <fix>3d</fix>
</trkpt>
<trkpt lat="-27.2744125" lon="151.2900659">
  <ele>343.09</ele>
  <time>2026-09-01T19:54:59Z</time>
  <course>12.62</course>
  <speed>0.0</speed>
  <fix>3d</fix>
</trkpt>
<trkpt lat="-27.2744127" lon="151.290066">
  <ele>343.17</ele>
  <time>2026-09-01T19:54:59Z</time>
  <course>14.59</course>
  <speed>0.022360679774997897</speed>
  <fix>3d</fix>
</trkpt>
<trkpt lat="-27.2744125" lon="151.2900659">
  <ele>343.09</ele>
  <time>2026-09-01T19:54:59Z</time>
  <course>12.62</course>
  <speed>0.0</speed>
  <fix>3d</fix>
</trkpt>
<trkpt lat="-27.2744127" lon="151.290066">
  <ele>343.17</ele>
  <time>2026-09-01T19:54:59Z</time>
  <course>14.59</course>
  <speed>0.022360679774997897</speed>
  <fix>3d</fix>
</trkpt>
<trkpt lat="-27.2744125" lon="151.2900659">
  <ele>343.09</ele>
  <time>2026-09-01T19:54:59Z</time>
  <course>12.62</course>
  <speed>0.0</speed>
  <fix>3d</fix>
</trkpt>
<trkpt lat="-27.2744127" lon="151.290066">
  <ele>343.18</ele>
  <time>2026-09-01T19:54:59Z</time>
  <course>14.59</course>
  <speed>0.022360679774997897</speed>
  <fix>3d</fix>
</trkpt>
<trkpt lat="-27.2744125" lon="151.2900659">
  <ele>343.09</ele>
  <time>2026-09-01T19:54:59Z</time>
  <course>12.62</course>
  <speed>0.0</speed>
  <fix>3d</fix>
</trkpt>
<trkpt lat="-27.2744127" lon="151.290066">
  <ele>343.18</ele>
  <time>2026-09-01T19:54:59Z</time>
  <course>14.59</course>
  <speed>0.022360679774997897</speed>
  <fix>3d</fix>
</trkpt>
<trkpt lat="-27.2744125" lon="151.2900659">
  <ele>343.09</ele>
  <time>2026-09-01T19:54:59Z</time>
  <course>12.62</course>
  <speed>0.0</speed>
  <fix>3d</fix>
</trkpt>
<trkpt lat="-27.2744127" lon="151.290066">
  <ele>343.18</ele>
  <time>2026-09-01T19:54:59Z</time>
  <course>14.59</course>
  <speed>0.022360679774997897</speed>
  <fix>3d</fix>
</trkpt>
<trkpt lat="-27.2744125" lon="151.2900659">
  <ele>343.09</ele>
  <time>2026-09-01T19:54:59Z</time>
  <course>12.62</course>
  <speed>0.0</speed>
  <fix>3d</fix>
</trkpt>
<trkpt lat="-27.2744127" lon="151.290066">
  <ele>343.18</ele>
  <time>2026-09-01T19:54:59Z</time>
  <course>14.59</course>
  <speed>0.022360679774997897</speed>
  <fix>3d</fix>
</trkpt>
<trkpt lat="-27.2744125" lon="151.2900659">
  <ele>343.09</ele>
  <time>2026-09-01T19:54:59Z</time>
  <course>12.62</course>
  <speed>0.0</speed>
  <fix>3d</fix>
</trkpt>
<trkpt lat="-27.2744127" lon="151.290066">
  <ele>343.19</ele>
  <time>2026-09-01T19:54:59Z</time>
  <course>14.59</course>
  <speed>0.022360679774997897</speed>
  <fix>3d</fix>
</trkpt>
<trkpt lat="-27.2744125" lon="151.2900659">
  <ele>343.09</ele>
  <time>2026-09-01T19:54:59Z</time>
  <course>12.62</course>
  <speed>0.0</speed>
  <fix>3d</fix>
</trkpt>
<trkpt lat="-27.2744127" lon="151.290066">
  <ele>343.19</ele>
  <time>2026-09-01T19:55:00Z</time>
  <course>14.59</course>
  <speed>0.022360679774997897</speed>
  <fix>3d</fix>
</trkpt>
<trkpt lat="-27.2744125" lon="151.2900659">
  <ele>343.09</ele>
  <time>2026-09-01T19:55:00Z</time>
  <course>12.62</course>
  <speed>0.0</speed>
  <fix>3d</fix>
</trkpt>
<trkpt lat="-27.2744127" lon="151.290066">
  <ele>343.2</ele>
  <time>2026-09-01T19:55:00Z</time>
  <course>14.59</course>
  <speed>0.022360679774997897</speed>
  <fix>3d</fix>
</trkpt>
<trkpt lat="-27.2744125" lon="151.2900659">
  <ele>343.09</ele>
  <time>2026-09-01T19:55:00Z</time>
  <course>12.62</course>
  <speed>0.0</speed>
  <fix>3d</fix>
</trkpt>
<trkpt lat="-27.2744127" lon="151.290066">
  <ele>343.2</ele>
  <time>2026-09-01T19:55:00Z</time>
  <course>14.59</course>
  <speed>0.022360679774997897</speed>
  <fix>3d</fix>
</trkpt>
<trkpt lat="-27.2744125" lon="151.2900659">
  <ele>343.09</ele>
  <time>2026-09-01T19:55:00Z</time>
  <course>12.62</course>
  <speed>0.0</speed>
  <fix>3d</fix>
</trkpt>
<trkpt lat="-27.2744127" lon="151.290066">
  <ele>343.2</ele>
  <time>2026-09-01T19:55:00Z</time>
  <course>14.59</course>
  <speed>0.022360679774997897</speed>
  <fix>3d</fix>
</trkpt>
<trkpt lat="-27.2744125" lon="151.2900659">
  <ele>343.09</ele>
  <time>2026-09-01T19:55:00Z</time>
  <course>12.62</course>
  <speed>0.0</speed>
  <fix>3d</fix>
</trkpt>
<trkpt lat="-27.2744127" lon="151.290066">
  <ele>343.2</ele>
  <time>2026-09-01T19:55:00Z</time>
  <course>14.59</course>
  <speed>0.022360679774997897</speed>
  <fix>3d</fix>
</trkpt>
<trkpt lat="-27.2744125" lon="151.2900659">
  <ele>343.09</ele>
  <time>2026-09-01T19:55:00Z</time>
  <course>12.62</course>
  <speed>0.0</speed>
  <fix>3d</fix>
</trkpt>
<trkpt lat="-27.2744127" lon="151.290066">
  <ele>343.2</ele>
  <time>2026-09-01T19:55:00Z</time>
  <course>14.59</course>
  <speed>0.022360679774997897</speed>
  <fix>3d</fix>
</trkpt>
<trkpt lat="-27.2744125" lon="151.2900659">
  <ele>343.09</ele>
  <time>2026-09-01T19:55:00Z</time>
  <course>12.62</course>
  <speed>0.0</speed>
  <fix>3d</fix>
</trkpt>
<trkpt lat="-27.2744127" lon="151.290066">
  <ele>343.21</ele>
  <time>2026-09-01T19:55:00Z</time>
  <course>14.59</course>
  <speed>0.022360679774997897</speed>
  <fix>3d</fix>
</trkpt>
<trkpt lat="-27.2744125" lon="151.2900659">
  <ele>343.09</ele>
  <time>2026-09-01T19:55:00Z</time>
  <course>12.62</course>
  <speed>0.0</speed>
  <fix>3d</fix>
</trkpt>
<trkpt lat="-27.2744127" lon="151.290066">
  <ele>343.21</ele>
  <time>2026-09-01T19:55:00Z</time>
  <course>14.59</course>
  <speed>0.022360679774997897</speed>
  <fix>3d</fix>
</trkpt>
<trkpt lat="-27.2744125" lon="151.2900659">
  <ele>343.09</ele>
  <time>2026-09-01T19:55:00Z</time>
  <course>12.62</course>
  <speed>0.0</speed>
  <fix>3d</fix>
</trkpt>
<trkpt lat="-27.2744127" lon="151.290066">
  <ele>343.22</ele>
  <time>2026-09-01T19:55:00Z</time>
  <course>14.59</course>
  <speed>0.022360679774997897</speed>
  <fix>3d</fix>
</trkpt>
<trkpt lat="-27.2744125" lon="151.2900659">
  <ele>343.09</ele>
  <time>2026-09-01T19:55:00Z</time>
  <course>12.62</course>
  <speed>0.0</speed>
  <fix>3d</fix>
</trkpt>
<trkpt lat="-27.2744127" lon="151.290066">
  <ele>343.22</ele>
  <time>2026-09-01T19:55:00Z</time>
  <course>14.59</course>
  <speed>0.022360679774997897</speed>
  <fix>3d</fix>
</trkpt>
<trkpt lat="-27.2744125" lon="151.2900659">
  <ele>343.09</ele>
  <time>2026-09-01T19:55:00Z</time>
  <course>12.62</course>
  <speed>0.0</speed>
  <fix>3d</fix>
</trkpt>
<trkpt lat="-27.2744127" lon="151.290066">
  <ele>343.22</ele>
  <time>2026-09-01T19:55:00Z</time>
  <course>14.59</course>
  <speed>0.022360679774997897</speed>
  <fix>3d</fix>
</trkpt>
<trkpt lat="-27.2744125" lon="151.2900659">
  <ele>343.09</ele>
  <time>2026-09-01T19:55:00Z</time>
  <course>12.62</course>
  <speed>0.0</speed>
  <fix>3d</fix>
</trkpt>
<trkpt lat="-27.2744127" lon="151.290066">
  <ele>343.23</ele>
  <time>2026-09-01T19:55:00Z</time>
  <course>14.59</course>
  <speed>0.022360679774997897</speed>
  <fix>3d</fix>
</trkpt>
<trkpt lat="-27.2744125" lon="151.2900659">
  <ele>343.09</ele>
  <time>2026-09-01T19:55:00Z</time>
  <course>12.62</course>
  <speed>0.0</speed>
  <fix>3d</fix>
</trkpt>
<trkpt lat="-27.2744127" lon="151.290066">
  <ele>343.23</ele>
  <time>2026-09-01T19:55:00Z</time>
  <course>14.59</course>
  <speed>0.022360679774997897</speed>
  <fix>3d</fix>
</trkpt>
<trkpt lat="-27.2744125" lon="151.2900659">
  <ele>343.09</ele>
  <time>2026-09-01T19:55:00Z</time>
  <course>12.62</course>
  <speed>0.0</speed>
  <fix>3d</fix>
</trkpt>
<trkpt lat="-27.2744127" lon="151.290066">
  <ele>343.23</ele>
  <time>2026-09-01T19:55:00Z</time>
  <course>14.59</course>
  <speed>0.022360679774997897</speed>
  <fix>3d</fix>
</trkpt>
<trkpt lat="-27.2744125" lon="151.2900659">
  <ele>343.09</ele>
  <time>2026-09-01T19:55:00Z</time>
  <course>12.62</course>
  <speed>0.0</speed>
  <fix>3d</fix>
</trkpt>
<trkpt lat="-27.2744127" lon="151.290066">
  <ele>343.23</ele>
  <time>2026-09-01T19:55:00Z</time>
  <course>14.59</course>
  <speed>0.022360679774997897</speed>
  <fix>3d</fix>
</trkpt>
<trkpt lat="-27.2744125" lon="151.2900659">
  <ele>343.09</ele>
  <time>2026-09-01T19:55:00Z</time>
  <course>12.62</course>
  <speed>0.0</speed>
  <fix>3d</fix>
</trkpt>
<trkpt lat="-27.2744127" lon="151.290066">
  <ele>343.23</ele>
  <time>2026-09-01T19:55:00Z</time>
  <course>14.59</course>
  <speed>0.022360679774997897</speed>
  <fix>3d</fix>
</trkpt>
<trkpt lat="-27.2744125" lon="151.2900659">
  <ele>343.09</ele>
  <time>2026-09-01T19:55:00Z</time>
  <course>12.62</course>
  <speed>0.0</speed>
  <fix>3d</fix>
</trkpt>
<trkpt lat="-27.2744127" lon="151.290066">
  <ele>343.23</ele>
  <time>2026-09-01T19:55:00Z</time>
  <course>14.59</course>
  <speed>0.022360679774997897</speed>
  <fix>3d</fix>
</trkpt>
<trkpt lat="-27.2744125" lon="151.2900659">
  <ele>343.09</ele>
  <time>2026-09-01T19:55:00Z</time>
  <course>12.62</course>
  <speed>0.0</speed>
  <fix>3d</fix>
</trkpt>
<trkpt lat="-27.2744127" lon="151.290066">
  <ele>343.23</ele>
  <time>2026-09-01T19:55:00Z</time>
  <course>14.59</course>
  <speed>0.022360679774997897</speed>
  <fix>3d</fix>
</trkpt>
<trkpt lat="-27.2744125" lon="151.2900659">
  <ele>343.09</ele>
  <time>2026-09-01T19:55:00Z</time>
  <course>12.62</course>
  <speed>0.0</speed>
  <fix>3d</fix>
</trkpt>
<trkpt lat="-27.2744127" lon="151.290066">
  <ele>343.23</ele>
  <time>2026-09-01T19:55:00Z</time>
  <course>14.59</course>
  <speed>0.022360679774997897</speed>
  <fix>3d</fix>
</trkpt>
<trkpt lat="-27.2744125" lon="151.2900659">
  <ele>343.09</ele>
  <time>2026-09-01T19:55:00Z</time>
  <course>12.62</course>
  <speed>0.0</speed>
  <fix>3d</fix>
</trkpt>
<trkpt lat="-27.2744127" lon="151.290066">
  <ele>343.24</ele>
  <time>2026-09-01T19:55:00Z</time>
  <course>14.59</course>
  <speed>0.022360679774997897</speed>
  <fix>3d</fix>
</trkpt>
<trkpt lat="-27.2744125" lon="151.2900659">
  <ele>343.09</ele>
  <time>2026-09-01T19:55:00Z</time>
  <course>12.62</course>
  <speed>0.0</speed>
  <fix>3d</fix>
</trkpt>
<trkpt lat="-27.2744127" lon="151.290066">
  <ele>343.24</ele>
  <time>2026-09-01T19:55:00Z</time>
  <course>14.59</course>
  <speed>0.022360679774997897</speed>
  <fix>3d</fix>
</trkpt>
<trkpt lat="-27.2744125" lon="151.2900659">
  <ele>343.09</ele>
  <time>2026-09-01T19:55:00Z</time>
  <course>12.62</course>
  <speed>0.0</speed>
  <fix>3d</fix>
</trkpt>
<trkpt lat="-27.2744127" lon="151.290066">
  <ele>343.09</ele>
  <time>2026-09-01T19:55:00Z</time>
  <course>14.59</course>
  <speed>0.022360679774997897</speed>
  <fix>3d</fix>
</trkpt>
<trkpt lat="-27.2744125" lon="151.2900659">
  <ele>343.09</ele>
  <time>2026-09-01T19:55:00Z</time>
  <course>12.62</course>
  <speed>0.0</speed>
  <fix>3d</fix>
</trkpt>
<trkpt lat="-27.2744127" lon="151.290066">
  <ele>343.09</ele>
  <time>2026-09-01T19:55:00Z</time>
  <course>14.59</course>
  <speed>0.022360679774997897</speed>
  <fix>3d</fix>
</trkpt>
<trkpt lat="-27.2744125" lon="151.2900659">
  <ele>343.09</ele>
  <time>2026-09-01T19:55:00Z</time>
  <course>12.62</course>
  <speed>0.0</speed>
  <fix>3d</fix>
</trkpt>
<trkpt lat="-27.2744127" lon="151.290066">
  <ele>343.09</ele>
  <time>2026-09-01T19:55:00Z</time>
  <course>14.59</course>
  <speed>0.022360679774997897</speed>
  <fix>3d</fix>
</trkpt>
<trkpt lat="-27.2744125" lon="151.2900659">
  <ele>343.09</ele>
  <time>2026-09-01T19:55:00Z</time>
  <course>12.62</course>
  <speed>0.0</speed>
  <fix>3d</fix>
</trkpt>
<trkpt lat="-27.2744127" lon="151.290066">
  <ele>343.09</ele>
  <time>2026-09-01T19:55:00Z</time>
  <course>14.59</course>
  <speed>0.022360679774997897</speed>
  <fix>3d</fix>
</trkpt>
<trkpt lat="-27.2744125" lon="151.2900659">
  <ele>343.09</ele>
  <time>2026-09-01T19:55:00Z</time>
  <course>12.62</course>
  <speed>0.0</speed>
  <fix>3d</fix>
</trkpt>
<trkpt lat="-27.2744127" lon="151.290066">
  <ele>343.09</ele>
  <time>2026-09-01T19:55:00Z</time>
  <course>14.59</course>
  <speed>0.022360679774997897</speed>
  <fix>3d</fix>
</trkpt>
<trkpt lat="-27.2744125" lon="151.2900659">
  <ele>343.09</ele>
  <time>2026-09-01T19:55:00Z</time>
  <course>12.62</course>
  <speed>0.0</speed>
  <fix>3d</fix>
</trkpt>
<trkpt lat="-27.2744127" lon="151.290066">
  <ele>343.09</ele>
  <time>2026-09-01T19:55:00Z</time>
  <course>14.59</course>
  <speed>0.022360679774997897</speed>
  <fix>3d</fix>
</trkpt>
<trkpt lat="-27.2744125" lon="151.2900659">
  <ele>343.09</ele>
  <time>2026-09-01T19:55:00Z</time>
  <course>12.62</course>
  <speed>0.0</speed>
  <fix>3d</fix>
</trkpt>
<trkpt lat="-27.2744127" lon="151.290066">
  <ele>343.09</ele>
  <time>2026-09-01T19:55:00Z</time>
  <course>14.59</course>
  <speed>0.022360679774997897</speed>
  <fix>3d</fix>
</trkpt>
<trkpt lat="-27.2744125" lon="151.2900659">
  <ele>343.09</ele>
  <time>2026-09-01T19:55:00Z</time>
  <course>12.62</course>
  <speed>0.0</speed>
  <fix>3d</fix>
</trkpt>
<trkpt lat="-27.2744127" lon="151.290066">
  <ele>343.1</ele>
  <time>2026-09-01T19:55:00Z</time>
  <course>14.59</course>
  <speed>0.022360679774997897</speed>
  <fix>3d</fix>
</trkpt>
<trkpt lat="-27.2744125" lon="151.2900659">
  <ele>343.09</ele>
  <time>2026-09-01T19:55:00Z</time>
  <course>12.62</course>
  <speed>0.0</speed>
  <fix>3d</fix>
</trkpt>
<trkpt lat="-27.2744127" lon="151.290066">
  <ele>343.1</ele>
  <time>2026-09-01T19:55:00Z</time>
  <course>14.59</course>
  <speed>0.022360679774997897</speed>
  <fix>3d</fix>
</trkpt>
<trkpt lat="-27.2744125" lon="151.2900659">
  <ele>343.09</ele>
  <time>2026-09-01T19:55:00Z</time>
  <course>12.62</course>
  <speed>0.0</speed>
  <fix>3d</fix>
</trkpt>
<trkpt lat="-27.2744127" lon="151.290066">
  <ele>343.1</ele>
  <time>2026-09-01T19:55:00Z</time>
  <course>14.59</course>
  <speed>0.022360679774997897</speed>
  <fix>3d</fix>
</trkpt>
<trkpt lat="-27.2744125" lon="151.2900659">
  <ele>343.09</ele>
  <time>2026-09-01T19:55:00Z</time>
  <course>12.62</course>
  <speed>0.0</speed>
  <fix>3d</fix>
</trkpt>
<trkpt lat="-27.2744127" lon="151.290066">
  <ele>343.1</ele>
  <time>2026-09-01T19:55:00Z</time>
  <course>14.59</course>
  <speed>0.022360679774997897</speed>
  <fix>3d</fix>
</trkpt>
<trkpt lat="-27.2744125" lon="151.2900659">
  <ele>343.09</ele>
  <time>2026-09-01T19:55:00Z</time>
  <course>12.62</course>
  <speed>0.0</speed>
  <fix>3d</fix>
</trkpt>
<trkpt lat="-27.2744127" lon="151.290066">
  <ele>343.11</ele>
  <time>2026-09-01T19:55:00Z</time>
  <course>14.59</course>
  <speed>0.022360679774997897</speed>
  <fix>3d</fix>
</trkpt>
<trkpt lat="-27.2744125" lon="151.2900659">
  <ele>343.09</ele>
  <time>2026-09-01T19:55:00Z</time>
  <course>12.62</course>
  <speed>0.0</speed>
  <fix>3d</fix>
</trkpt>
<trkpt lat="-27.2744127" lon="151.290066">
  <ele>343.11</ele>
  <time>2026-09-01T19:55:00Z</time>
  <course>14.59</course>
  <speed>0.022360679774997897</speed>
  <fix>3d</fix>
</trkpt>
<trkpt lat="-27.2744125" lon="151.2900659">
  <ele>343.09</ele>
  <time>2026-09-01T19:55:00Z</time>
  <course>12.62</course>
  <speed>0.0</speed>
  <fix>3d</fix>
</trkpt>
<trkpt lat="-27.2744127" lon="151.290066">
  <ele>343.11</ele>
  <time>2026-09-01T19:55:00Z</time>
  <course>14.59</course>
  <speed>0.022360679774997897</speed>
  <fix>3d</fix>
</trkpt>
<trkpt lat="-27.2744125" lon="151.2900659">
  <ele>343.09</ele>
  <time>2026-09-01T19:55:00Z</time>
  <course>12.62</course>
  <speed>0.0</speed>
  <fix>3d</fix>
</trkpt>
<trkpt lat="-27.2744127" lon="151.290066">
  <ele>343.11</ele>
  <time>2026-09-01T19:55:00Z</time>
  <course>14.59</course>
  <speed>0.022360679774997897</speed>
  <fix>3d</fix>
</trkpt>
<trkpt lat="-27.2744125" lon="151.2900659">
  <ele>343.09</ele>
  <time>2026-09-01T19:55:00Z</time>
  <course>12.62</course>
  <speed>0.0</speed>
  <fix>3d</fix>
</trkpt>
<trkpt lat="-27.2744127" lon="151.290066">
  <ele>343.11</ele>
  <time>2026-09-01T19:55:00Z</time>
  <course>14.58</course>
  <speed>0.022360679774997897</speed>
  <fix>3d</fix>
</trkpt>
<trkpt lat="-27.2744125" lon="151.2900659">
  <ele>343.09</ele>
  <time>2026-09-01T19:55:00Z</time>
  <course>12.62</course>
  <speed>0.0</speed>
  <fix>3d</fix>
</trkpt>
<trkpt lat="-27.2744127" lon="151.290066">
  <ele>343.11</ele>
  <time>2026-09-01T19:55:00Z</time>
  <course>14.58</course>
  <speed>0.022360679774997897</speed>
  <fix>3d</fix>
</trkpt>
<trkpt lat="-27.2744125" lon="151.2900659">
  <ele>343.09</ele>
  <time>2026-09-01T19:55:00Z</time>
  <course>12.62</course>
  <speed>0.0</speed>
  <fix>3d</fix>
</trkpt>
<trkpt lat="-27.2744127" lon="151.290066">
  <ele>343.11</ele>
  <time>2026-09-01T19:55:00Z</time>
  <course>14.58</course>
  <speed>0.022360679774997897</speed>
  <fix>3d</fix>
</trkpt>
<trkpt lat="-27.2744125" lon="151.2900659">
  <ele>343.09</ele>
  <time>2026-09-01T19:55:00Z</time>
  <course>12.62</course>
  <speed>0.0</speed>
  <fix>3d</fix>
</trkpt>
<trkpt lat="-27.2744127" lon="151.290066">
  <ele>343.11</ele>
  <time>2026-09-01T19:55:00Z</time>
  <course>14.59</course>
  <speed>0.022360679774997897</speed>
  <fix>3d</fix>
</trkpt>
<trkpt lat="-27.2744125" lon="151.2900659">
  <ele>343.09</ele>
  <time>2026-09-01T19:55:00Z</time>
  <course>12.62</course>
  <speed>0.0</speed>
  <fix>3d</fix>
</trkpt>
<trkpt lat="-27.2744127" lon="151.290066">
  <ele>343.11</ele>
  <time>2026-09-01T19:55:00Z</time>
  <course>14.58</course>
  <speed>0.022360679774997897</speed>
  <fix>3d</fix>
</trkpt>
<trkpt lat="-27.2744125" lon="151.2900659">
  <ele>343.09</ele>
  <time>2026-09-01T19:55:00Z</time>
  <course>12.62</course>
  <speed>0.0</speed>
  <fix>3d</fix>
</trkpt>
<trkpt lat="-27.2744127" lon="151.290066">
  <ele>343.12</ele>
  <time>2026-09-01T19:55:00Z</time>
  <course>14.58</course>
  <speed>0.022360679774997897</speed>
  <fix>3d</fix>
</trkpt>
<trkpt lat="-27.2744125" lon="151.2900659">
  <ele>343.09</ele>
  <time>2026-09-01T19:55:00Z</time>
  <course>12.62</course>
  <speed>0.0</speed>
  <fix>3d</fix>
</trkpt>
<trkpt lat="-27.2744127" lon="151.290066">
  <ele>343.12</ele>
  <time>2026-09-01T19:55:00Z</time>
  <course>14.58</course>
  <speed>0.022360679774997897</speed>
  <fix>3d</fix>
</trkpt>
<trkpt lat="-27.2744125" lon="151.2900659">
  <ele>343.09</ele>
  <time>2026-09-01T19:55:00Z</time>
  <course>12.62</course>
  <speed>0.0</speed>
  <fix>3d</fix>
</trkpt>
<trkpt lat="-27.2744127" lon="151.290066">
  <ele>343.12</ele>
  <time>2026-09-01T19:55:00Z</time>
  <course>14.58</course>
  <speed>0.022360679774997897</speed>
  <fix>3d</fix>
</trkpt>
<trkpt lat="-27.2744125" lon="151.2900659">
  <ele>343.09</ele>
  <time>2026-09-01T19:55:00Z</time>
  <course>12.62</course>
  <speed>0.0</speed>
  <fix>3d</fix>
</trkpt>
<trkpt lat="-27.2744127" lon="151.290066">
  <ele>343.12</ele>
  <time>2026-09-01T19:55:00Z</time>
  <course>14.58</course>
  <speed>0.022360679774997897</speed>
  <fix>3d</fix>
</trkpt>
<trkpt lat="-27.2744125" lon="151.2900659">
  <ele>343.09</ele>
  <time>2026-09-01T19:55:00Z</time>
  <course>12.62</course>
  <speed>0.0</speed>
  <fix>3d</fix>
</trkpt>
<trkpt lat="-27.2744127" lon="151.290066">
  <ele>343.12</ele>
  <time>2026-09-01T19:55:00Z</time>
  <course>14.58</course>
  <speed>0.022360679774997897</speed>
  <fix>3d</fix>
</trkpt>
<trkpt lat="-27.2744125" lon="151.2900659">
  <ele>343.09</ele>
  <time>2026-09-01T19:55:00Z</time>
  <course>12.62</course>
  <speed>0.0</speed>
  <fix>3d</fix>
</trkpt>
<trkpt lat="-27.2744127" lon="151.290066">
  <ele>343.12</ele>
  <time>2026-09-01T19:55:00Z</time>
  <course>14.58</course>
  <speed>0.022360679774997897</speed>
  <fix>3d</fix>
</trkpt>
<trkpt lat="-27.2744125" lon="151.2900659">
  <ele>343.09</ele>
  <time>2026-09-01T19:55:00Z</time>
  <course>12.62</course>
  <speed>0.0</speed>
  <fix>3d</fix>
</trkpt>
<trkpt lat="-27.2744127" lon="151.290066">
  <ele>343.12</ele>
  <time>2026-09-01T19:55:00Z</time>
  <course>14.58</course>
  <speed>0.022360679774997897</speed>
  <fix>3d</fix>
</trkpt>
<trkpt lat="-27.2744125" lon="151.2900659">
  <ele>343.09</ele>
  <time>2026-09-01T19:55:00Z</time>
  <course>12.62</course>
  <speed>0.0</speed>
  <fix>3d</fix>
</trkpt>
<trkpt lat="-27.2744127" lon="151.290066">
  <ele>343.12</ele>
  <time>2026-09-01T19:55:00Z</time>
  <course>14.58</course>
  <speed>0.022360679774997897</speed>
  <fix>3d</fix>
</trkpt>
<trkpt lat="-27.2744125" lon="151.2900659">
  <ele>343.09</ele>
  <time>2026-09-01T19:55:00Z</time>
  <course>12.62</course>
  <speed>0.0</speed>
  <fix>3d</fix>
</trkpt>
<trkpt lat="-27.2744127" lon="151.290066">
  <ele>343.12</ele>
  <time>2026-09-01T19:55:00Z</time>
  <course>14.58</course>
  <speed>0.022360679774997897</speed>
  <fix>3d</fix>
</trkpt>
<trkpt lat="-27.2744125" lon="151.2900659">
  <ele>343.09</ele>
  <time>2026-09-01T19:55:00Z</time>
  <course>12.62</course>
  <speed>0.0</speed>
  <fix>3d</fix>
</trkpt>
<trkpt lat="-27.2744127" lon="151.290066">
  <ele>343.12</ele>
  <time>2026-09-01T19:55:00Z</time>
  <course>14.58</course>
  <speed>0.022360679774997897</speed>
  <fix>3d</fix>
</trkpt>
<trkpt lat="-27.2744125" lon="151.2900659">
  <ele>343.09</ele>
  <time>2026-09-01T19:55:00Z</time>
  <course>12.62</course>
  <speed>0.0</speed>
  <fix>3d</fix>
</trkpt>
<trkpt lat="-27.2744127" lon="151.290066">
  <ele>343.12</ele>
  <time>2026-09-01T19:55:00Z</time>
  <course>14.58</course>
  <speed>0.022360679774997897</speed>
  <fix>3d</fix>
</trkpt>
<trkpt lat="-27.2744125" lon="151.2900659">
  <ele>343.09</ele>
  <time>2026-09-01T19:55:00Z</time>
  <course>12.62</course>
  <speed>0.0</speed>
  <fix>3d</fix>
</trkpt>
<trkpt lat="-27.2744127" lon="151.290066">
  <ele>343.12</ele>
  <time>2026-09-01T19:55:00Z</time>
  <course>14.58</course>
  <speed>0.022360679774997897</speed>
  <fix>3d</fix>
</trkpt>
<trkpt lat="-27.2744125" lon="151.2900659">
  <ele>343.09</ele>
  <time>2026-09-01T19:55:00Z</time>
  <course>12.62</course>
  <speed>0.0</speed>
  <fix>3d</fix>
</trkpt>
<trkpt lat="-27.2744127" lon="151.290066">
  <ele>343.12</ele>
  <time>2026-09-01T19:55:00Z</time>
  <course>14.58</course>
  <speed>0.022360679774997897</speed>
  <fix>3d</fix>
</trkpt>
<trkpt lat="-27.2744125" lon="151.2900659">
  <ele>343.09</ele>
  <time>2026-09-01T19:55:00Z</time>
  <course>12.62</course>
  <speed>0.0</speed>
  <fix>3d</fix>
</trkpt>
<trkpt lat="-27.2744127" lon="151.290066">
  <ele>343.12</ele>
  <time>2026-09-01T19:55:00Z</time>
  <course>14.58</course>
  <speed>0.022360679774997897</speed>
  <fix>3d</fix>
</trkpt>
<trkpt lat="-27.2744125" lon="151.2900659">
  <ele>343.09</ele>
  <time>2026-09-01T19:55:00Z</time>
  <course>12.62</course>
  <speed>0.0</speed>
  <fix>3d</fix>
</trkpt>
<trkpt lat="-27.2744127" lon="151.290066">
  <ele>343.12</ele>
  <time>2026-09-01T19:55:00Z</time>
  <course>14.58</course>
  <speed>0.022360679774997897</speed>
  <fix>3d</fix>
</trkpt>
<trkpt lat="-27.2744125" lon="151.2900659">
  <ele>343.09</ele>
  <time>2026-09-01T19:55:00Z</time>
  <course>12.62</course>
  <speed>0.0</speed>
  <fix>3d</fix>
</trkpt>
<trkpt lat="-27.2744127" lon="151.290066">
  <ele>343.12</ele>
  <time>2026-09-01T19:55:00Z</time>
  <course>14.58</course>
  <speed>0.022360679774997897</speed>
  <fix>3d</fix>
</trkpt>
<trkpt lat="-27.2744125" lon="151.2900659">
  <ele>343.09</ele>
  <time>2026-09-01T19:55:00Z</time>
  <course>12.62</course>
  <speed>0.0</speed>
  <fix>3d</fix>
</trkpt>
<trkpt lat="-27.2744127" lon="151.290066">
  <ele>343.12</ele>
  <time>2026-09-01T19:55:00Z</time>
  <course>14.58</course>
  <speed>0.022360679774997897</speed>
  <fix>3d</fix>
</trkpt>
<trkpt lat="-27.2744125" lon="151.2900659">
  <ele>343.09</ele>
  <time>2026-09-01T19:55:00Z</time>
  <course>12.62</course>
  <speed>0.0</speed>
  <fix>3d</fix>
</trkpt>
<trkpt lat="-27.2744127" lon="151.290066">
  <ele>343.11</ele>
  <time>2026-09-01T19:55:00Z</time>
  <course>14.58</course>
  <speed>0.022360679774997897</speed>
  <fix>3d</fix>
</trkpt>
<trkpt lat="-27.2744125" lon="151.2900659">
  <ele>343.09</ele>
  <time>2026-09-01T19:55:00Z</time>
  <course>12.62</course>
  <speed>0.0</speed>
  <fix>3d</fix>
</trkpt>
<trkpt lat="-27.2744127" lon="151.290066">
  <ele>343.11</ele>
  <time>2026-09-01T19:55:00Z</time>
  <course>14.58</course>
  <speed>0.022360679774997897</speed>
  <fix>3d</fix>
</trkpt>
<trkpt lat="-27.2744125" lon="151.2900659">
  <ele>343.09</ele>
  <time>2026-09-01T19:55:00Z</time>
  <course>12.62</course>
  <speed>0.0</speed>
  <fix>3d</fix>
</trkpt>
<trkpt lat="-27.2744127" lon="151.290066">
  <ele>343.12</ele>
  <time>2026-09-01T19:55:00Z</time>
  <course>14.58</course>
  <speed>0.022360679774997897</speed>
  <fix>3d</fix>
</trkpt>
<trkpt lat="-27.2744125" lon="151.2900659">
  <ele>343.09</ele>
  <time>2026-09-01T19:55:00Z</time>
  <course>12.62</course>
  <speed>0.0</speed>
  <fix>3d</fix>
</trkpt>
<trkpt lat="-27.2744127" lon="151.290066">
  <ele>343.12</ele>
  <time>2026-09-01T19:55:00Z</time>
  <course>14.58</course>
  <speed>0.022360679774997897</speed>
  <fix>3d</fix>
</trkpt>
<trkpt lat="-27.2744125" lon="151.2900659">
  <ele>343.09</ele>
  <time>2026-09-01T19:55:00Z</time>
  <course>12.62</course>
  <speed>0.0</speed>
  <fix>3d</fix>
</trkpt>
<trkpt lat="-27.2744127" lon="151.290066">
  <ele>343.12</ele>
  <time>2026-09-01T19:55:00Z</time>
  <course>14.58</course>
  <speed>0.022360679774997897</speed>
  <fix>3d</fix>
</trkpt>
<trkpt lat="-27.2744125" lon="151.2900659">
  <ele>343.09</ele>
  <time>2026-09-01T19:55:00Z</time>
  <course>12.62</course>
  <speed>0.0</speed>
  <fix>3d</fix>
</trkpt>
<trkpt lat="-27.2744127" lon="151.290066">
  <ele>343.12</ele>
  <time>2026-09-01T19:55:00Z</time>
  <course>14.58</course>
  <speed>0.022360679774997897</speed>
  <fix>3d</fix>
</trkpt>
<trkpt lat="-27.2744125" lon="151.2900659">
  <ele>343.09</ele>
  <time>2026-09-01T19:55:00Z</time>
  <course>12.62</course>
  <speed>0.0</speed>
  <fix>3d</fix>
</trkpt>
<trkpt lat="-27.2744127" lon="151.290066">
  <ele>343.12</ele>
  <time>2026-09-01T19:55:00Z</time>
  <course>14.58</course>
  <speed>0.022360679774997897</speed>
  <fix>3d</fix>
</trkpt>
<trkpt lat="-27.2744125" lon="151.2900659">
  <ele>343.09</ele>
  <time>2026-09-01T19:55:00Z</time>
  <course>12.62</course>
  <speed>0.0</speed>
  <fix>3d</fix>
</trkpt>
<trkpt lat="-27.2744127" lon="151.290066">
  <ele>343.12</ele>
  <time>2026-09-01T19:55:00Z</time>
  <course>14.58</course>
  <speed>0.022360679774997897</speed>
  <fix>3d</fix>
</trkpt>
<trkpt lat="-27.2744125" lon="151.2900659">
  <ele>343.09</ele>
  <time>2026-09-01T19:55:00Z</time>
  <course>12.62</course>
  <speed>0.0</speed>
  <fix>3d</fix>
</trkpt>
<trkpt lat="-27.2744127" lon="151.290066">
  <ele>343.12</ele>
  <time>2026-09-01T19:55:00Z</time>
  <course>14.58</course>
  <speed>0.022360679774997897</speed>
  <fix>3d</fix>
</trkpt>
<trkpt lat="-27.2744125" lon="151.2900659">
  <ele>343.09</ele>
  <time>2026-09-01T19:55:00Z</time>
  <course>12.62</course>
  <speed>0.0</speed>
  <fix>3d</fix>
</trkpt>
<trkpt lat="-27.2744127" lon="151.290066">
  <ele>343.12</ele>
  <time>2026-09-01T19:55:00Z</time>
  <course>14.58</course>
  <speed>0.022360679774997897</speed>
  <fix>3d</fix>
</trkpt>
<trkpt lat="-27.2744125" lon="151.2900659">
  <ele>343.09</ele>
  <time>2026-09-01T19:55:00Z</time>
  <course>12.62</course>
  <speed>0.0</speed>
  <fix>3d</fix>
</trkpt>
<trkpt lat="-27.2744127" lon="151.290066">
  <ele>343.12</ele>
  <time>2026-09-01T19:55:00Z</time>
  <course>14.58</course>
  <speed>0.022360679774997897</speed>
  <fix>3d</fix>
</trkpt>
<trkpt lat="-27.2744125" lon="151.2900659">
  <ele>343.09</ele>
  <time>2026-09-01T19:55:00Z</time>
  <course>12.62</course>
  <speed>0.0</speed>
  <fix>3d</fix>
</trkpt>
<trkpt lat="-27.2744127" lon="151.290066">
  <ele>343.12</ele>
  <time>2026-09-01T19:55:00Z</time>
  <course>14.58</course>
  <speed>0.022360679774997897</speed>
  <fix>3d</fix>
</trkpt>
<trkpt lat="-27.2744125" lon="151.2900659">
  <ele>343.09</ele>
  <time>2026-09-01T19:55:00Z</time>
  <course>12.62</course>
  <speed>0.0</speed>
  <fix>3d</fix>
</trkpt>
<trkpt lat="-27.2744127" lon="151.290066">
  <ele>343.12</ele>
  <time>2026-09-01T19:55:00Z</time>
  <course>14.58</course>
  <speed>0.022360679774997897</speed>
  <fix>3d</fix>
</trkpt>
<trkpt lat="-27.2744125" lon="151.2900659">
  <ele>343.09</ele>
  <time>2026-09-01T19:55:00Z</time>
  <course>12.62</course>
  <speed>0.0</speed>
  <fix>3d</fix>
</trkpt>
<trkpt lat="-27.2744127" lon="151.290066">
  <ele>343.12</ele>
  <time>2026-09-01T19:55:00Z</time>
  <course>14.58</course>
  <speed>0.022360679774997897</speed>
  <fix>3d</fix>
</trkpt>
<trkpt lat="-27.2744125" lon="151.2900659">
  <ele>343.09</ele>
  <time>2026-09-01T19:55:00Z</time>
  <course>12.62</course>
  <speed>0.0</speed>
  <fix>3d</fix>
</trkpt>
<trkpt lat="-27.2744127" lon="151.290066">
  <ele>343.12</ele>
  <time>2026-09-01T19:55:00Z</time>
  <course>14.58</course>
  <speed>0.022360679774997897</speed>
  <fix>3d</fix>
</trkpt>
<trkpt lat="-27.2744125" lon="151.2900659">
  <ele>343.09</ele>
  <time>2026-09-01T19:55:00Z</time>
  <course>12.62</course>
  <speed>0.0</speed>
  <fix>3d</fix>
</trkpt>
<trkpt lat="-27.2744127" lon="151.290066">
  <ele>343.13</ele>
  <time>2026-09-01T19:55:00Z</time>
  <course>14.58</course>
  <speed>0.022360679774997897</speed>
  <fix>3d</fix>
</trkpt>
<trkpt lat="-27.2744125" lon="151.2900659">
  <ele>343.09</ele>
  <time>2026-09-01T19:55:00Z</time>
  <course>12.62</course>
  <speed>0.0</speed>
  <fix>3d</fix>
</trkpt>
<trkpt lat="-27.2744127" lon="151.290066">
  <ele>343.13</ele>
  <time>2026-09-01T19:55:00Z</time>
  <course>14.58</course>
  <speed>0.022360679774997897</speed>
  <fix>3d</fix>
</trkpt>
<trkpt lat="-27.2744125" lon="151.2900659">
  <ele>343.09</ele>
  <time>2026-09-01T19:55:00Z</time>
  <course>12.62</course>
  <speed>0.0</speed>
  <fix>3d</fix>
</trkpt>
<trkpt lat="-27.2744127" lon="151.290066">
  <ele>343.12</ele>
  <time>2026-09-01T19:55:00Z</time>
  <course>14.58</course>
  <speed>0.022360679774997897</speed>
  <fix>3d</fix>
</trkpt>
<trkpt lat="-27.2744125" lon="151.2900659">
  <ele>343.09</ele>
  <time>2026-09-01T19:55:00Z</time>
  <course>12.62</course>
  <speed>0.0</speed>
  <fix>3d</fix>
</trkpt>
<trkpt lat="-27.2744127" lon="151.290066">
  <ele>343.12</ele>
  <time>2026-09-01T19:55:00Z</time>
  <course>14.58</course>
  <speed>0.022360679774997897</speed>
  <fix>3d</fix>
</trkpt>
<trkpt lat="-27.2744125" lon="151.2900659">
  <ele>343.09</ele>
  <time>2026-09-01T19:55:00Z</time>
  <course>12.62</course>
  <speed>0.0</speed>
  <fix>3d</fix>
</trkpt>
<trkpt lat="-27.2744127" lon="151.290066">
  <ele>343.12</ele>
  <time>2026-09-01T19:55:00Z</time>
  <course>14.58</course>
  <speed>0.022360679774997897</speed>
  <fix>3d</fix>
</trkpt>
<trkpt lat="-27.2744125" lon="151.2900659">
  <ele>343.09</ele>
  <time>2026-09-01T19:55:00Z</time>
  <course>12.62</course>
  <speed>0.0</speed>
  <fix>3d</fix>
</trkpt>
<trkpt lat="-27.2744127" lon="151.290066">
  <ele>343.12</ele>
  <time>2026-09-01T19:55:00Z</time>
  <course>14.58</course>
  <speed>0.022360679774997897</speed>
  <fix>3d</fix>
</trkpt>
<trkpt lat="-27.2744125" lon="151.2900659">
  <ele>343.09</ele>
  <time>2026-09-01T19:55:00Z</time>
  <course>12.62</course>
  <speed>0.0</speed>
  <fix>3d</fix>
</trkpt>
<trkpt lat="-27.2744127" lon="151.290066">
  <ele>343.12</ele>
  <time>2026-09-01T19:55:00Z</time>
  <course>14.58</course>
  <speed>0.022360679774997897</speed>
  <fix>3d</fix>
</trkpt>
<trkpt lat="-27.2744125" lon="151.2900659">
  <ele>343.09</ele>
  <time>2026-09-01T19:55:00Z</time>
  <course>12.62</course>
  <speed>0.0</speed>
  <fix>3d</fix>
</trkpt>
<trkpt lat="-27.2744127" lon="151.290066">
  <ele>343.13</ele>
  <time>2026-09-01T19:55:00Z</time>
  <course>14.58</course>
  <speed>0.022360679774997897</speed>
  <fix>3d</fix>
</trkpt>
<trkpt lat="-27.2744125" lon="151.2900659">
  <ele>343.09</ele>
  <time>2026-09-01T19:55:00Z</time>
  <course>12.62</course>
  <speed>0.0</speed>
  <fix>3d</fix>
</trkpt>
<trkpt lat="-27.2744127" lon="151.290066">
  <ele>343.09</ele>
  <time>2026-09-01T19:55:00Z</time>
  <course>14.58</course>
  <speed>0.022360679774997897</speed>
  <fix>3d</fix>
</trkpt>
<trkpt lat="-27.2744125" lon="151.2900659">
  <ele>343.09</ele>
  <time>2026-09-01T19:55:00Z</time>
  <course>12.62</course>
  <speed>0.0</speed>
  <fix>3d</fix>
</trkpt>
<trkpt lat="-27.2744127" lon="151.290066">
  <ele>343.09</ele>
  <time>2026-09-01T19:55:00Z</time>
  <course>14.58</course>
  <speed>0.022360679774997897</speed>
  <fix>3d</fix>
</trkpt>
<trkpt lat="-27.2744125" lon="151.2900659">
  <ele>343.09</ele>
  <time>2026-09-01T19:55:00Z</time>
  <course>12.62</course>
  <speed>0.0</speed>
  <fix>3d</fix>
</trkpt>
<trkpt lat="-27.2744127" lon="151.290066">
  <ele>343.08</ele>
  <time>2026-09-01T19:55:00Z</time>
  <course>14.58</course>
  <speed>0.022360679774997897</speed>
  <fix>3d</fix>
</trkpt>
<trkpt lat="-27.2744125" lon="151.2900659">
  <ele>343.09</ele>
  <time>2026-09-01T19:55:00Z</time>
  <course>12.62</course>
  <speed>0.0</speed>
  <fix>3d</fix>
</trkpt>
<trkpt lat="-27.2744127" lon="151.290066">
  <ele>343.08</ele>
  <time>2026-09-01T19:55:00Z</time>
  <course>14.58</course>
  <speed>0.022360679774997897</speed>
  <fix>3d</fix>
</trkpt>
<trkpt lat="-27.2744125" lon="151.2900659">
  <ele>343.09</ele>
  <time>2026-09-01T19:55:00Z</time>
  <course>12.62</course>
  <speed>0.0</speed>
  <fix>3d</fix>
</trkpt>
<trkpt lat="-27.2744127" lon="151.290066">
  <ele>343.08</ele>
  <time>2026-09-01T19:55:00Z</time>
  <course>14.58</course>
  <speed>0.022360679774997897</speed>
  <fix>3d</fix>
</trkpt>
<trkpt lat="-27.2744125" lon="151.2900659">
  <ele>343.09</ele>
  <time>2026-09-01T19:55:00Z</time>
  <course>12.62</course>
  <speed>0.0</speed>
  <fix>3d</fix>
</trkpt>
<trkpt lat="-27.2744127" lon="151.290066">
  <ele>343.08</ele>
  <time>2026-09-01T19:55:00Z</time>
  <course>14.58</course>
  <speed>0.022360679774997897</speed>
  <fix>3d</fix>
</trkpt>
<trkpt lat="-27.2744125" lon="151.2900659">
  <ele>343.09</ele>
  <time>2026-09-01T19:55:00Z</time>
  <course>12.62</course>
  <speed>0.0</speed>
  <fix>3d</fix>
</trkpt>
<trkpt lat="-27.2744127" lon="151.290066">
  <ele>343.08</ele>
  <time>2026-09-01T19:55:00Z</time>
  <course>14.58</course>
  <speed>0.022360679774997897</speed>
  <fix>3d</fix>
</trkpt>
<trkpt lat="-27.2744125" lon="151.2900659">
  <ele>343.09</ele>
  <time>2026-09-01T19:55:00Z</time>
  <course>12.62</course>
  <speed>0.0</speed>
  <fix>3d</fix>
</trkpt>
<trkpt lat="-27.2744127" lon="151.290066">
  <ele>343.08</ele>
  <time>2026-09-01T19:55:00Z</time>
  <course>14.58</course>
  <speed>0.022360679774997897</speed>
  <fix>3d</fix>
</trkpt>
<trkpt lat="-27.2744125" lon="151.2900659">
  <ele>343.09</ele>
  <time>2026-09-01T19:55:00Z</time>
  <course>12.62</course>
  <speed>0.0</speed>
  <fix>3d</fix>
</trkpt>
<trkpt lat="-27.2744127" lon="151.290066">
  <ele>343.07</ele>
  <time>2026-09-01T19:55:00Z</time>
  <course>14.58</course>
  <speed>0.022360679774997897</speed>
  <fix>3d</fix>
</trkpt>
<trkpt lat="-27.2744125" lon="151.2900659">
  <ele>343.09</ele>
  <time>2026-09-01T19:55:00Z</time>
  <course>12.62</course>
  <speed>0.0</speed>
  <fix>3d</fix>
</trkpt>
<trkpt lat="-27.2744127" lon="151.290066">
  <ele>343.07</ele>
  <time>2026-09-01T19:55:00Z</time>
  <course>14.58</course>
  <speed>0.022360679774997897</speed>
  <fix>3d</fix>
</trkpt>
<trkpt lat="-27.2744125" lon="151.2900659">
  <ele>343.09</ele>
  <time>2026-09-01T19:55:00Z</time>
  <course>12.62</course>
  <speed>0.0</speed>
  <fix>3d</fix>
</trkpt>
<trkpt lat="-27.2744127" lon="151.290066">
  <ele>343.07</ele>
  <time>2026-09-01T19:55:00Z</time>
  <course>14.58</course>
  <speed>0.022360679774997897</speed>
  <fix>3d</fix>
</trkpt>
<trkpt lat="-27.2744125" lon="151.2900659">
  <ele>343.09</ele>
  <time>2026-09-01T19:55:00Z</time>
  <course>12.62</course>
  <speed>0.0</speed>
  <fix>3d</fix>
</trkpt>
<trkpt lat="-27.2744127" lon="151.290066">
  <ele>343.07</ele>
  <time>2026-09-01T19:55:00Z</time>
  <course>14.58</course>
  <speed>0.022360679774997897</speed>
  <fix>3d</fix>
</trkpt>
<trkpt lat="-27.2744125" lon="151.2900659">
  <ele>343.09</ele>
  <time>2026-09-01T19:55:00Z</time>
  <course>12.62</course>
  <speed>0.0</speed>
  <fix>3d</fix>
</trkpt>
<trkpt lat="-27.2744127" lon="151.290066">
  <ele>343.07</ele>
  <time>2026-09-01T19:55:00Z</time>
  <course>14.58</course>
  <speed>0.022360679774997897</speed>
  <fix>3d</fix>
</trkpt>
<trkpt lat="-27.2744125" lon="151.2900659">
  <ele>343.09</ele>
  <time>2026-09-01T19:55:00Z</time>
  <course>12.62</course>
  <speed>0.0</speed>
  <fix>3d</fix>
</trkpt>
<trkpt lat="-27.2744127" lon="151.290066">
  <ele>343.06</ele>
  <time>2026-09-01T19:55:00Z</time>
  <course>14.58</course>
  <speed>0.022360679774997897</speed>
  <fix>3d</fix>
</trkpt>
<trkpt lat="-27.2744125" lon="151.2900659">
  <ele>343.09</ele>
  <time>2026-09-01T19:55:00Z</time>
  <course>12.62</course>
  <speed>0.0</speed>
  <fix>3d</fix>
</trkpt>
<trkpt lat="-27.2744127" lon="151.290066">
  <ele>343.06</ele>
  <time>2026-09-01T19:55:00Z</time>
  <course>14.58</course>
  <speed>0.022360679774997897</speed>
  <fix>3d</fix>
</trkpt>
<trkpt lat="-27.2744125" lon="151.2900659">
  <ele>343.09</ele>
  <time>2026-09-01T19:55:00Z</time>
  <course>12.62</course>
  <speed>0.0</speed>
  <fix>3d</fix>
</trkpt>
<trkpt lat="-27.2744127" lon="151.290066">
  <ele>343.05</ele>
  <time>2026-09-01T19:55:00Z</time>
  <course>14.58</course>
  <speed>0.022360679774997897</speed>
  <fix>3d</fix>
</trkpt>
<trkpt lat="-27.2744125" lon="151.2900659">
  <ele>343.09</ele>
  <time>2026-09-01T19:55:00Z</time>
  <course>12.62</course>
  <speed>0.0</speed>
  <fix>3d</fix>
</trkpt>
<trkpt lat="-27.2744127" lon="151.290066">
  <ele>343.05</ele>
  <time>2026-09-01T19:55:00Z</time>
  <course>14.57</course>
  <speed>0.022360679774997897</speed>
  <fix>3d</fix>
</trkpt>
<trkpt lat="-27.2744125" lon="151.2900659">
  <ele>343.09</ele>
  <time>2026-09-01T19:55:00Z</time>
  <course>12.62</course>
  <speed>0.0</speed>
  <fix>3d</fix>
</trkpt>
<trkpt lat="-27.2744127" lon="151.290066">
  <ele>343.04</ele>
  <time>2026-09-01T19:55:00Z</time>
  <course>14.57</course>
  <speed>0.022360679774997897</speed>
  <fix>3d</fix>
</trkpt>
<trkpt lat="-27.2744125" lon="151.2900659">
  <ele>343.09</ele>
  <time>2026-09-01T19:55:00Z</time>
  <course>12.62</course>
  <speed>0.0</speed>
  <fix>3d</fix>
</trkpt>
<trkpt lat="-27.2744127" lon="151.290066">
  <ele>343.04</ele>
  <time>2026-09-01T19:55:00Z</time>
  <course>14.57</course>
  <speed>0.022360679774997897</speed>
  <fix>3d</fix>
</trkpt>
<trkpt lat="-27.2744125" lon="151.2900659">
  <ele>343.09</ele>
  <time>2026-09-01T19:55:00Z</time>
  <course>12.62</course>
  <speed>0.0</speed>
  <fix>3d</fix>
</trkpt>
<trkpt lat="-27.2744127" lon="151.290066">
  <ele>343.03</ele>
  <time>2026-09-01T19:55:00Z</time>
  <course>14.57</course>
  <speed>0.022360679774997897</speed>
  <fix>3d</fix>
</trkpt>
<trkpt lat="-27.2744125" lon="151.2900659">
  <ele>343.09</ele>
  <time>2026-09-01T19:55:00Z</time>
  <course>12.62</course>
  <speed>0.0</speed>
  <fix>3d</fix>
</trkpt>
<trkpt lat="-27.2744127" lon="151.290066">
  <ele>343.03</ele>
  <time>2026-09-01T19:55:00Z</time>
  <course>14.57</course>
  <speed>0.022360679774997897</speed>
  <fix>3d</fix>
</trkpt>
<trkpt lat="-27.2744125" lon="151.2900659">
  <ele>343.09</ele>
  <time>2026-09-01T19:55:00Z</time>
  <course>12.62</course>
  <speed>0.0</speed>
  <fix>3d</fix>
</trkpt>
<trkpt lat="-27.2744127" lon="151.290066">
  <ele>343.02</ele>
  <time>2026-09-01T19:55:00Z</time>
  <course>14.57</course>
  <speed>0.022360679774997897</speed>
  <fix>3d</fix>
</trkpt>
<trkpt lat="-27.2744125" lon="151.2900659">
  <ele>343.09</ele>
  <time>2026-09-01T19:55:00Z</time>
  <course>12.62</course>
  <speed>0.0</speed>
  <fix>3d</fix>
</trkpt>
<trkpt lat="-27.2744127" lon="151.290066">
  <ele>343.02</ele>
  <time>2026-09-01T19:55:00Z</time>
  <course>14.57</course>
  <speed>0.022360679774997897</speed>
  <fix>3d</fix>
</trkpt>
<trkpt lat="-27.2744125" lon="151.2900659">
  <ele>343.09</ele>
  <time>2026-09-01T19:55:00Z</time>
  <course>12.62</course>
  <speed>0.0</speed>
  <fix>3d</fix>
</trkpt>
<trkpt lat="-27.2744127" lon="151.290066">
  <ele>343.02</ele>
  <time>2026-09-01T19:55:00Z</time>
  <course>14.57</course>
  <speed>0.022360679774997897</speed>
  <fix>3d</fix>
</trkpt>
<trkpt lat="-27.2744125" lon="151.2900659">
  <ele>343.09</ele>
  <time>2026-09-01T19:55:00Z</time>
  <course>12.62</course>
  <speed>0.0</speed>
  <fix>3d</fix>
</trkpt>
<trkpt lat="-27.2744127" lon="151.290066">
  <ele>343.02</ele>
  <time>2026-09-01T19:55:00Z</time>
  <course>14.57</course>
  <speed>0.022360679774997897</speed>
  <fix>3d</fix>
</trkpt>
<trkpt lat="-27.2744125" lon="151.2900659">
  <ele>343.09</ele>
  <time>2026-09-01T19:55:00Z</time>
  <course>12.62</course>
  <speed>0.0</speed>
  <fix>3d</fix>
</trkpt>
<trkpt lat="-27.2744127" lon="151.290066">
  <ele>343.02</ele>
  <time>2026-09-01T19:55:00Z</time>
  <course>14.57</course>
  <speed>0.022360679774997897</speed>
  <fix>3d</fix>
</trkpt>
<trkpt lat="-27.2744125" lon="151.2900659">
  <ele>343.09</ele>
  <time>2026-09-01T19:55:00Z</time>
  <course>12.62</course>
  <speed>0.0</speed>
  <fix>3d</fix>
</trkpt>
<trkpt lat="-27.2744127" lon="151.290066">
  <ele>343.02</ele>
  <time>2026-09-01T19:55:00Z</time>
  <course>14.57</course>
  <speed>0.022360679774997897</speed>
  <fix>3d</fix>
</trkpt>
<trkpt lat="-27.2744125" lon="151.2900659">
  <ele>343.09</ele>
  <time>2026-09-01T19:55:00Z</time>
  <course>12.62</course>
  <speed>0.0</speed>
  <fix>3d</fix>
</trkpt>
<trkpt lat="-27.2744127" lon="151.290066">
  <ele>343.02</ele>
  <time>2026-09-01T19:55:00Z</time>
  <course>14.57</course>
  <speed>0.022360679774997897</speed>
  <fix>3d</fix>
</trkpt>
<trkpt lat="-27.2744125" lon="151.2900659">
  <ele>343.09</ele>
  <time>2026-09-01T19:55:00Z</time>
  <course>12.62</course>
  <speed>0.0</speed>
  <fix>3d</fix>
</trkpt>
<trkpt lat="-27.2744127" lon="151.290066">
  <ele>343.01</ele>
  <time>2026-09-01T19:55:00Z</time>
  <course>14.57</course>
  <speed>0.022360679774997897</speed>
  <fix>3d</fix>
</trkpt>
<trkpt lat="-27.2744125" lon="151.2900659">
  <ele>343.09</ele>
  <time>2026-09-01T19:55:00Z</time>
  <course>12.62</course>
  <speed>0.0</speed>
  <fix>3d</fix>
</trkpt>
<trkpt lat="-27.2744127" lon="151.290066">
  <ele>343.01</ele>
  <time>2026-09-01T19:55:00Z</time>
  <course>14.57</course>
  <speed>0.022360679774997897</speed>
  <fix>3d</fix>
</trkpt>
<trkpt lat="-27.2744125" lon="151.2900659">
  <ele>343.09</ele>
  <time>2026-09-01T19:55:00Z</time>
  <course>12.62</course>
  <speed>0.0</speed>
  <fix>3d</fix>
</trkpt>
<trkpt lat="-27.2744127" lon="151.290066">
  <ele>343.01</ele>
  <time>2026-09-01T19:55:00Z</time>
  <course>14.57</course>
  <speed>0.022360679774997897</speed>
  <fix>3d</fix>
</trkpt>
<trkpt lat="-27.2744125" lon="151.2900659">
  <ele>343.09</ele>
  <time>2026-09-01T19:55:00Z</time>
  <course>12.62</course>
  <speed>0.0</speed>
  <fix>3d</fix>
</trkpt>
<trkpt lat="-27.2744127" lon="151.290066">
  <ele>343.01</ele>
  <time>2026-09-01T19:55:00Z</time>
  <course>14.57</course>
  <speed>0.022360679774997897</speed>
  <fix>3d</fix>
</trkpt>
<trkpt lat="-27.2744125" lon="151.2900659">
  <ele>343.09</ele>
  <time>2026-09-01T19:55:00Z</time>
  <course>12.62</course>
  <speed>0.0</speed>
  <fix>3d</fix>
</trkpt>
<trkpt lat="-27.2744127" lon="151.290066">
  <ele>343.0</ele>
  <time>2026-09-01T19:55:00Z</time>
  <course>14.57</course>
  <speed>0.022360679774997897</speed>
  <fix>3d</fix>
</trkpt>
<trkpt lat="-27.2744125" lon="151.2900659">
  <ele>343.09</ele>
  <time>2026-09-01T19:55:00Z</time>
  <course>12.62</course>
  <speed>0.0</speed>
  <fix>3d</fix>
</trkpt>
<trkpt lat="-27.2744127" lon="151.290066">
  <ele>343.0</ele>
  <time>2026-09-01T19:55:00Z</time>
  <course>14.57</course>
  <speed>0.022360679774997897</speed>
  <fix>3d</fix>
</trkpt>
<trkpt lat="-27.2744125" lon="151.2900659">
  <ele>343.09</ele>
  <time>2026-09-01T19:55:00Z</time>
  <course>12.62</course>
  <speed>0.0</speed>
  <fix>3d</fix>
</trkpt>
<trkpt lat="-27.2744127" lon="151.290066">
  <ele>343.0</ele>
  <time>2026-09-01T19:55:00Z</time>
  <course>14.57</course>
  <speed>0.022360679774997897</speed>
  <fix>3d</fix>
</trkpt>
<trkpt lat="-27.2744125" lon="151.2900659">
  <ele>343.09</ele>
  <time>2026-09-01T19:55:00Z</time>
  <course>12.62</course>
  <speed>0.0</speed>
  <fix>3d</fix>
</trkpt>
<trkpt lat="-27.2744127" lon="151.290066">
  <ele>343.0</ele>
  <time>2026-09-01T19:55:00Z</time>
  <course>14.57</course>
  <speed>0.022360679774997897</speed>
  <fix>3d</fix>
</trkpt>
<trkpt lat="-27.2744125" lon="151.2900659">
  <ele>343.09</ele>
  <time>2026-09-01T19:55:00Z</time>
  <course>12.62</course>
  <speed>0.0</speed>
  <fix>3d</fix>
</trkpt>
<trkpt lat="-27.2744127" lon="151.290066">
  <ele>343.0</ele>
  <time>2026-09-01T19:55:00Z</time>
  <course>14.57</course>
  <speed>0.022360679774997897</speed>
  <fix>3d</fix>
</trkpt>
<trkpt lat="-27.2744125" lon="151.2900659">
  <ele>343.09</ele>
  <time>2026-09-01T19:55:00Z</time>
  <course>12.62</course>
  <speed>0.0</speed>
  <fix>3d</fix>
</trkpt>
<trkpt lat="-27.2744127" lon="151.290066">
  <ele>343.0</ele>
  <time>2026-09-01T19:55:00Z</time>
  <course>14.57</course>
  <speed>0.022360679774997897</speed>
  <fix>3d</fix>
</trkpt>
<trkpt lat="-27.2744125" lon="151.2900659">
  <ele>343.09</ele>
  <time>2026-09-01T19:55:00Z</time>
  <course>12.62</course>
  <speed>0.0</speed>
  <fix>3d</fix>
</trkpt>
<trkpt lat="-27.2744127" lon="151.290066">
  <ele>342.99</ele>
  <time>2026-09-01T19:55:00Z</time>
  <course>14.57</course>
  <speed>0.022360679774997897</speed>
  <fix>3d</fix>
</trkpt>
<trkpt lat="-27.2744125" lon="151.2900659">
  <ele>343.09</ele>
  <time>2026-09-01T19:55:00Z</time>
  <course>12.62</course>
  <speed>0.0</speed>
  <fix>3d</fix>
</trkpt>
<trkpt lat="-27.2744127" lon="151.290066">
  <ele>342.99</ele>
  <time>2026-09-01T19:55:00Z</time>
  <course>14.57</course>
  <speed>0.022360679774997897</speed>
  <fix>3d</fix>
</trkpt>
<trkpt lat="-27.2744125" lon="151.2900659">
  <ele>343.09</ele>
  <time>2026-09-01T19:55:00Z</time>
  <course>12.62</course>
  <speed>0.0</speed>
  <fix>3d</fix>
</trkpt>
<trkpt lat="-27.2744127" lon="151.290066">
  <ele>342.99</ele>
  <time>2026-09-01T19:55:00Z</time>
  <course>14.57</course>
  <speed>0.022360679774997897</speed>
  <fix>3d</fix>
</trkpt>
<trkpt lat="-27.2744125" lon="151.2900659">
  <ele>343.09</ele>
  <time>2026-09-01T19:55:00Z</time>
  <course>12.62</course>
  <speed>0.0</speed>
  <fix>3d</fix>
</trkpt>
<trkpt lat="-27.2744127" lon="151.290066">
  <ele>342.99</ele>
  <time>2026-09-01T19:55:00Z</time>
  <course>14.57</course>
  <speed>0.022360679774997897</speed>
  <fix>3d</fix>
</trkpt>
<trkpt lat="-27.2744125" lon="151.2900659">
  <ele>343.09</ele>
  <time>2026-09-01T19:55:00Z</time>
  <course>12.62</course>
  <speed>0.0</speed>
  <fix>3d</fix>
</trkpt>
<trkpt lat="-27.2744127" lon="151.290066">
  <ele>342.99</ele>
  <time>2026-09-01T19:55:00Z</time>
  <course>14.57</course>
  <speed>0.022360679774997897</speed>
  <fix>3d</fix>
</trkpt>
<trkpt lat="-27.2744125" lon="151.2900659">
  <ele>343.09</ele>
  <time>2026-09-01T19:55:00Z</time>
  <course>12.62</course>
  <speed>0.0</speed>
  <fix>3d</fix>
</trkpt>
<trkpt lat="-27.2744127" lon="151.290066">
  <ele>342.99</ele>
  <time>2026-09-01T19:55:00Z</time>
  <course>14.57</course>
  <speed>0.022360679774997897</speed>
  <fix>3d</fix>
</trkpt>
<trkpt lat="-27.2744125" lon="151.2900659">
  <ele>343.09</ele>
  <time>2026-09-01T19:55:00Z</time>
  <course>12.62</course>
  <speed>0.0</speed>
  <fix>3d</fix>
</trkpt>
<trkpt lat="-27.2744127" lon="151.290066">
  <ele>342.99</ele>
  <time>2026-09-01T19:55:00Z</time>
  <course>14.57</course>
  <speed>0.022360679774997897</speed>
  <fix>3d</fix>
</trkpt>
<trkpt lat="-27.2744125" lon="151.2900659">
  <ele>343.09</ele>
  <time>2026-09-01T19:55:00Z</time>
  <course>12.62</course>
  <speed>0.0</speed>
  <fix>3d</fix>
</trkpt>
<trkpt lat="-27.2744127" lon="151.290066">
  <ele>342.99</ele>
  <time>2026-09-01T19:55:00Z</time>
  <course>14.57</course>
  <speed>0.022360679774997897</speed>
  <fix>3d</fix>
</trkpt>
<trkpt lat="-27.2744125" lon="151.2900659">
  <ele>343.09</ele>
  <time>2026-09-01T19:55:00Z</time>
  <course>12.62</course>
  <speed>0.0</speed>
  <fix>3d</fix>
</trkpt>
<trkpt lat="-27.2744127" lon="151.290066">
  <ele>342.99</ele>
  <time>2026-09-01T19:55:00Z</time>
  <course>14.57</course>
  <speed>0.022360679774997897</speed>
  <fix>3d</fix>
</trkpt>
<trkpt lat="-27.2744125" lon="151.2900659">
  <ele>343.09</ele>
  <time>2026-09-01T19:55:00Z</time>
  <course>12.62</course>
  <speed>0.0</speed>
  <fix>3d</fix>
</trkpt>
<trkpt lat="-27.2744127" lon="151.290066">
  <ele>342.98</ele>
  <time>2026-09-01T19:55:00Z</time>
  <course>14.57</course>
  <speed>0.022360679774997897</speed>
  <fix>3d</fix>
</trkpt>
<trkpt lat="-27.2744125" lon="151.2900659">
  <ele>343.09</ele>
  <time>2026-09-01T19:55:00Z</time>
  <course>12.62</course>
  <speed>0.0</speed>
  <fix>3d</fix>
</trkpt>
<trkpt lat="-27.2744127" lon="151.290066">
  <ele>342.98</ele>
  <time>2026-09-01T19:55:00Z</time>
  <course>14.57</course>
  <speed>0.022360679774997897</speed>
  <fix>3d</fix>
</trkpt>
<trkpt lat="-27.2744125" lon="151.2900659">
  <ele>343.09</ele>
  <time>2026-09-01T19:55:00Z</time>
  <course>12.62</course>
  <speed>0.0</speed>
  <fix>3d</fix>
</trkpt>
<trkpt lat="-27.2744127" lon="151.290066">
  <ele>342.98</ele>
  <time>2026-09-01T19:55:00Z</time>
  <course>14.57</course>
  <speed>0.022360679774997897</speed>
  <fix>3d</fix>
</trkpt>
<trkpt lat="-27.2744125" lon="151.2900659">
  <ele>343.09</ele>
  <time>2026-09-01T19:55:00Z</time>
  <course>12.62</course>
  <speed>0.0</speed>
  <fix>3d</fix>
</trkpt>
<trkpt lat="-27.2744127" lon="151.290066">
  <ele>342.98</ele>
  <time>2026-09-01T19:55:00Z</time>
  <course>14.57</course>
  <speed>0.022360679774997897</speed>
  <fix>3d</fix>
</trkpt>
<trkpt lat="-27.2744125" lon="151.2900659">
  <ele>343.09</ele>
  <time>2026-09-01T19:55:00Z</time>
  <course>12.62</course>
  <speed>0.0</speed>
  <fix>3d</fix>
</trkpt>
<trkpt lat="-27.2744127" lon="151.290066">
  <ele>342.98</ele>
  <time>2026-09-01T19:55:00Z</time>
  <course>14.57</course>
  <speed>0.022360679774997897</speed>
  <fix>3d</fix>
</trkpt>
<trkpt lat="-27.2744125" lon="151.2900659">
  <ele>343.09</ele>
  <time>2026-09-01T19:55:00Z</time>
  <course>12.62</course>
  <speed>0.0</speed>
  <fix>3d</fix>
</trkpt>
<trkpt lat="-27.2744127" lon="151.290066">
  <ele>342.98</ele>
  <time>2026-09-01T19:55:00Z</time>
  <course>14.57</course>
  <speed>0.022360679774997897</speed>
  <fix>3d</fix>
</trkpt>
<trkpt lat="-27.2744125" lon="151.2900659">
  <ele>343.09</ele>
  <time>2026-09-01T19:55:00Z</time>
  <course>12.62</course>
  <speed>0.0</speed>
  <fix>3d</fix>
</trkpt>
<trkpt lat="-27.2744127" lon="151.290066">
  <ele>342.98</ele>
  <time>2026-09-01T19:55:00Z</time>
  <course>14.57</course>
  <speed>0.022360679774997897</speed>
  <fix>3d</fix>
</trkpt>
<trkpt lat="-27.2744125" lon="151.2900659">
  <ele>343.09</ele>
  <time>2026-09-01T19:55:00Z</time>
  <course>12.62</course>
  <speed>0.0</speed>
  <fix>3d</fix>
</trkpt>
<trkpt lat="-27.2744127" lon="151.290066">
  <ele>342.98</ele>
  <time>2026-09-01T19:55:00Z</time>
  <course>14.57</course>
  <speed>0.022360679774997897</speed>
  <fix>3d</fix>
</trkpt>
<trkpt lat="-27.2744125" lon="151.2900659">
  <ele>343.09</ele>
  <time>2026-09-01T19:55:00Z</time>
  <course>12.62</course>
  <speed>0.0</speed>
  <fix>3d</fix>
</trkpt>
<trkpt lat="-27.2744127" lon="151.290066">
  <ele>342.97</ele>
  <time>2026-09-01T19:55:00Z</time>
  <course>14.57</course>
  <speed>0.022360679774997897</speed>
  <fix>3d</fix>
</trkpt>
<trkpt lat="-27.2744125" lon="151.2900659">
  <ele>343.09</ele>
  <time>2026-09-01T19:55:00Z</time>
  <course>12.62</course>
  <speed>0.0</speed>
  <fix>3d</fix>
</trkpt>
<trkpt lat="-27.2744127" lon="151.290066">
  <ele>342.97</ele>
  <time>2026-09-01T19:55:00Z</time>
  <course>14.57</course>
  <speed>0.022360679774997897</speed>
  <fix>3d</fix>
</trkpt>
<trkpt lat="-27.2744125" lon="151.2900659">
  <ele>343.09</ele>
  <time>2026-09-01T19:55:00Z</time>
  <course>12.62</course>
  <speed>0.0</speed>
  <fix>3d</fix>
</trkpt>
<trkpt lat="-27.2744127" lon="151.290066">
  <ele>342.97</ele>
  <time>2026-09-01T19:55:00Z</time>
  <course>14.57</course>
  <speed>0.022360679774997897</speed>
  <fix>3d</fix>
</trkpt>
<trkpt lat="-27.2744125" lon="151.2900659">
  <ele>343.09</ele>
  <time>2026-09-01T19:55:00Z</time>
  <course>12.62</course>
  <speed>0.0</speed>
  <fix>3d</fix>
</trkpt>
<trkpt lat="-27.2744127" lon="151.290066">
  <ele>342.97</ele>
  <time>2026-09-01T19:55:00Z</time>
  <course>14.57</course>
  <speed>0.022360679774997897</speed>
  <fix>3d</fix>
</trkpt>
<trkpt lat="-27.2744125" lon="151.2900659">
  <ele>343.09</ele>
  <time>2026-09-01T19:55:00Z</time>
  <course>12.62</course>
  <speed>0.0</speed>
  <fix>3d</fix>
</trkpt>
<trkpt lat="-27.2744127" lon="151.290066">
  <ele>342.97</ele>
  <time>2026-09-01T19:55:00Z</time>
  <course>14.57</course>
  <speed>0.022360679774997897</speed>
  <fix>3d</fix>
</trkpt>
<trkpt lat="-27.2744125" lon="151.2900659">
  <ele>343.09</ele>
  <time>2026-09-01T19:55:00Z</time>
  <course>12.62</course>
  <speed>0.0</speed>
  <fix>3d</fix>
</trkpt>
<trkpt lat="-27.2744127" lon="151.290066">
  <ele>343.08</ele>
  <time>2026-09-01T19:55:00Z</time>
  <course>14.57</course>
  <speed>0.022360679774997897</speed>
  <fix>3d</fix>
</trkpt>
<trkpt lat="-27.2744125" lon="151.2900659">
  <ele>343.09</ele>
  <time>2026-09-01T19:55:00Z</time>
  <course>12.62</course>
  <speed>0.0</speed>
  <fix>3d</fix>
</trkpt>
<trkpt lat="-27.2744127" lon="151.290066">
  <ele>343.08</ele>
  <time>2026-09-01T19:55:00Z</time>
  <course>14.57</course>
  <speed>0.022360679774997897</speed>
  <fix>3d</fix>
</trkpt>
<trkpt lat="-27.2744125" lon="151.2900659">
  <ele>343.09</ele>
  <time>2026-09-01T19:55:00Z</time>
  <course>12.62</course>
  <speed>0.0</speed>
  <fix>3d</fix>
</trkpt>
<trkpt lat="-27.2744127" lon="151.290066">
  <ele>343.08</ele>
  <time>2026-09-01T19:55:00Z</time>
  <course>14.57</course>
  <speed>0.022360679774997897</speed>
  <fix>3d</fix>
</trkpt>
<trkpt lat="-27.2744125" lon="151.2900659">
  <ele>343.09</ele>
  <time>2026-09-01T19:55:00Z</time>
  <course>12.62</course>
  <speed>0.0</speed>
  <fix>3d</fix>
</trkpt>
<trkpt lat="-27.2744127" lon="151.290066">
  <ele>343.08</ele>
  <time>2026-09-01T19:55:00Z</time>
  <course>14.57</course>
  <speed>0.022360679774997897</speed>
  <fix>3d</fix>
</trkpt>
<trkpt lat="-27.2744125" lon="151.2900659">
  <ele>343.09</ele>
  <time>2026-09-01T19:55:00Z</time>
  <course>12.62</course>
  <speed>0.0</speed>
  <fix>3d</fix>
</trkpt>
<trkpt lat="-27.2744127" lon="151.290066">
  <ele>343.08</ele>
  <time>2026-09-01T19:55:00Z</time>
  <course>14.56</course>
  <speed>0.022360679774997897</speed>
  <fix>3d</fix>
</trkpt>
<trkpt lat="-27.2744125" lon="151.2900659">
  <ele>343.09</ele>
  <time>2026-09-01T19:55:00Z</time>
  <course>12.62</course>
  <speed>0.0</speed>
  <fix>3d</fix>
</trkpt>
<trkpt lat="-27.2744127" lon="151.290066">
  <ele>343.07</ele>
  <time>2026-09-01T19:55:00Z</time>
  <course>14.56</course>
  <speed>0.022360679774997897</speed>
  <fix>3d</fix>
</trkpt>
<trkpt lat="-27.2744125" lon="151.2900659">
  <ele>343.09</ele>
  <time>2026-09-01T19:55:00Z</time>
  <course>12.62</course>
  <speed>0.0</speed>
  <fix>3d</fix>
</trkpt>
<trkpt lat="-27.2744127" lon="151.290066">
  <ele>343.07</ele>
  <time>2026-09-01T19:55:00Z</time>
  <course>14.56</course>
  <speed>0.022360679774997897</speed>
  <fix>3d</fix>
</trkpt>
<trkpt lat="-27.2744125" lon="151.2900659">
  <ele>343.09</ele>
  <time>2026-09-01T19:55:00Z</time>
  <course>12.62</course>
  <speed>0.0</speed>
  <fix>3d</fix>
</trkpt>
<trkpt lat="-27.2744127" lon="151.290066">
  <ele>343.07</ele>
  <time>2026-09-01T19:55:00Z</time>
  <course>14.56</course>
  <speed>0.022360679774997897</speed>
  <fix>3d</fix>
</trkpt>
<trkpt lat="-27.2744125" lon="151.2900659">
  <ele>343.09</ele>
  <time>2026-09-01T19:55:00Z</time>
  <course>12.62</course>
  <speed>0.0</speed>
  <fix>3d</fix>
</trkpt>
<trkpt lat="-27.2744127" lon="151.290066">
  <ele>343.07</ele>
  <time>2026-09-01T19:55:00Z</time>
  <course>14.56</course>
  <speed>0.022360679774997897</speed>
  <fix>3d</fix>
</trkpt>
<trkpt lat="-27.2744125" lon="151.2900659">
  <ele>343.09</ele>
  <time>2026-09-01T19:55:00Z</time>
  <course>12.62</course>
  <speed>0.0</speed>
  <fix>3d</fix>
</trkpt>
<trkpt lat="-27.2744127" lon="151.290066">
  <ele>343.07</ele>
  <time>2026-09-01T19:55:00Z</time>
  <course>14.56</course>
  <speed>0.022360679774997897</speed>
  <fix>3d</fix>
</trkpt>
<trkpt lat="-27.2744125" lon="151.2900659">
  <ele>343.09</ele>
  <time>2026-09-01T19:55:00Z</time>
  <course>12.62</course>
  <speed>0.0</speed>
  <fix>3d</fix>
</trkpt>
<trkpt lat="-27.2744127" lon="151.290066">
  <ele>343.07</ele>
  <time>2026-09-01T19:55:00Z</time>
  <course>14.56</course>
  <speed>0.022360679774997897</speed>
  <fix>3d</fix>
</trkpt>
<trkpt lat="-27.2744125" lon="151.2900659">
  <ele>343.09</ele>
  <time>2026-09-01T19:55:00Z</time>
  <course>12.62</course>
  <speed>0.0</speed>
  <fix>3d</fix>
</trkpt>
<trkpt lat="-27.2744127" lon="151.290066">
  <ele>343.07</ele>
  <time>2026-09-01T19:55:00Z</time>
  <course>14.56</course>
  <speed>0.022360679774997897</speed>
  <fix>3d</fix>
</trkpt>
<trkpt lat="-27.2744125" lon="151.2900659">
  <ele>343.09</ele>
  <time>2026-09-01T19:55:00Z</time>
  <course>12.62</course>
  <speed>0.0</speed>
  <fix>3d</fix>
</trkpt>
<trkpt lat="-27.2744127" lon="151.290066">
  <ele>343.07</ele>
  <time>2026-09-01T19:55:00Z</time>
  <course>14.56</course>
  <speed>0.022360679774997897</speed>
  <fix>3d</fix>
</trkpt>
<trkpt lat="-27.2744125" lon="151.2900659">
  <ele>343.09</ele>
  <time>2026-09-01T19:55:00Z</time>
  <course>12.62</course>
  <speed>0.0</speed>
  <fix>3d</fix>
</trkpt>
<trkpt lat="-27.2744127" lon="151.290066">
  <ele>343.07</ele>
  <time>2026-09-01T19:55:00Z</time>
  <course>14.56</course>
  <speed>0.022360679774997897</speed>
  <fix>3d</fix>
</trkpt>
<trkpt lat="-27.2744125" lon="151.2900659">
  <ele>343.09</ele>
  <time>2026-09-01T19:55:00Z</time>
  <course>12.62</course>
  <speed>0.0</speed>
  <fix>3d</fix>
</trkpt>
<trkpt lat="-27.2744127" lon="151.290066">
  <ele>343.07</ele>
  <time>2026-09-01T19:55:01Z</time>
  <course>14.56</course>
  <speed>0.022360679774997897</speed>
  <fix>3d</fix>
</trkpt>
<trkpt lat="-27.2744125" lon="151.2900659">
  <ele>343.09</ele>
  <time>2026-09-01T19:55:01Z</time>
  <course>12.62</course>
  <speed>0.0</speed>
  <fix>3d</fix>
</trkpt>
<trkpt lat="-27.2744127" lon="151.290066">
  <ele>343.07</ele>
  <time>2026-09-01T19:55:01Z</time>
  <course>14.56</course>
  <speed>0.022360679774997897</speed>
  <fix>3d</fix>
</trkpt>
<trkpt lat="-27.2744125" lon="151.2900659">
  <ele>343.09</ele>
  <time>2026-09-01T19:55:01Z</time>
  <course>12.62</course>
  <speed>0.0</speed>
  <fix>3d</fix>
</trkpt>
<trkpt lat="-27.2744127" lon="151.290066">
  <ele>343.07</ele>
  <time>2026-09-01T19:55:01Z</time>
  <course>14.56</course>
  <speed>0.022360679774997897</speed>
  <fix>3d</fix>
</trkpt>
<trkpt lat="-27.2744125" lon="151.2900659">
  <ele>343.09</ele>
  <time>2026-09-01T19:55:01Z</time>
  <course>12.62</course>
  <speed>0.0</speed>
  <fix>3d</fix>
</trkpt>
<trkpt lat="-27.2744127" lon="151.290066">
  <ele>343.07</ele>
  <time>2026-09-01T19:55:01Z</time>
  <course>14.56</course>
  <speed>0.022360679774997897</speed>
  <fix>3d</fix>
</trkpt>
<trkpt lat="-27.2744125" lon="151.2900659">
  <ele>343.09</ele>
  <time>2026-09-01T19:55:01Z</time>
  <course>12.62</course>
  <speed>0.0</speed>
  <fix>3d</fix>
</trkpt>
<trkpt lat="-27.2744127" lon="151.290066">
  <ele>343.07</ele>
  <time>2026-09-01T19:55:01Z</time>
  <course>14.56</course>
  <speed>0.022360679774997897</speed>
  <fix>3d</fix>
</trkpt>
<trkpt lat="-27.2744125" lon="151.2900659">
  <ele>343.09</ele>
  <time>2026-09-01T19:55:01Z</time>
  <course>12.62</course>
  <speed>0.0</speed>
  <fix>3d</fix>
</trkpt>
<trkpt lat="-27.2744127" lon="151.290066">
  <ele>343.08</ele>
  <time>2026-09-01T19:55:01Z</time>
  <course>14.56</course>
  <speed>0.022360679774997897</speed>
  <fix>3d</fix>
</trkpt>
<trkpt lat="-27.2744125" lon="151.2900659">
  <ele>343.09</ele>
  <time>2026-09-01T19:55:01Z</time>
  <course>12.62</course>
  <speed>0.0</speed>
  <fix>3d</fix>
</trkpt>
<trkpt lat="-27.2744127" lon="151.290066">
  <ele>343.08</ele>
  <time>2026-09-01T19:55:01Z</time>
  <course>14.56</course>
  <speed>0.022360679774997897</speed>
  <fix>3d</fix>
</trkpt>
<trkpt lat="-27.2744125" lon="151.2900659">
  <ele>343.09</ele>
  <time>2026-09-01T19:55:01Z</time>
  <course>12.62</course>
  <speed>0.0</speed>
  <fix>3d</fix>
</trkpt>
<trkpt lat="-27.2744127" lon="151.290066">
  <ele>343.08</ele>
  <time>2026-09-01T19:55:01Z</time>
  <course>14.56</course>
  <speed>0.022360679774997897</speed>
  <fix>3d</fix>
</trkpt>
<trkpt lat="-27.2744125" lon="151.2900659">
  <ele>343.09</ele>
  <time>2026-09-01T19:55:01Z</time>
  <course>12.62</course>
  <speed>0.0</speed>
  <fix>3d</fix>
</trkpt>
<trkpt lat="-27.2744127" lon="151.290066">
  <ele>343.08</ele>
  <time>2026-09-01T19:55:01Z</time>
  <course>14.56</course>
  <speed>0.022360679774997897</speed>
  <fix>3d</fix>
</trkpt>
<trkpt lat="-27.2744125" lon="151.2900659">
  <ele>343.09</ele>
  <time>2026-09-01T19:55:01Z</time>
  <course>12.62</course>
  <speed>0.0</speed>
  <fix>3d</fix>
</trkpt>
<trkpt lat="-27.2744127" lon="151.290066">
  <ele>343.08</ele>
  <time>2026-09-01T19:55:01Z</time>
  <course>14.56</course>
  <speed>0.022360679774997897</speed>
  <fix>3d</fix>
</trkpt>
<trkpt lat="-27.2744125" lon="151.2900659">
  <ele>343.09</ele>
  <time>2026-09-01T19:55:01Z</time>
  <course>12.62</course>
  <speed>0.0</speed>
  <fix>3d</fix>
</trkpt>
<trkpt lat="-27.2744127" lon="151.290066">
  <ele>343.07</ele>
  <time>2026-09-01T19:55:01Z</time>
  <course>14.56</course>
  <speed>0.022360679774997897</speed>
  <fix>3d</fix>
</trkpt>
<trkpt lat="-27.2744125" lon="151.2900659">
  <ele>343.09</ele>
  <time>2026-09-01T19:55:01Z</time>
  <course>12.62</course>
  <speed>0.0</speed>
  <fix>3d</fix>
</trkpt>
<trkpt lat="-27.2744127" lon="151.290066">
  <ele>343.07</ele>
  <time>2026-09-01T19:55:01Z</time>
  <course>14.56</course>
  <speed>0.022360679774997897</speed>
  <fix>3d</fix>
</trkpt>
<trkpt lat="-27.2744125" lon="151.2900659">
  <ele>343.09</ele>
  <time>2026-09-01T19:55:01Z</time>
  <course>12.62</course>
  <speed>0.0</speed>
  <fix>3d</fix>
</trkpt>
<trkpt lat="-27.2744127" lon="151.290066">
  <ele>343.07</ele>
  <time>2026-09-01T19:55:01Z</time>
  <course>14.56</course>
  <speed>0.022360679774997897</speed>
  <fix>3d</fix>
</trkpt>
<trkpt lat="-27.2744125" lon="151.2900659">
  <ele>343.09</ele>
  <time>2026-09-01T19:55:01Z</time>
  <course>12.62</course>
  <speed>0.0</speed>
  <fix>3d</fix>
</trkpt>
<trkpt lat="-27.2744127" lon="151.290066">
  <ele>343.07</ele>
  <time>2026-09-01T19:55:01Z</time>
  <course>14.56</course>
  <speed>0.022360679774997897</speed>
  <fix>3d</fix>
</trkpt>
<trkpt lat="-27.2744125" lon="151.2900659">
  <ele>343.09</ele>
  <time>2026-09-01T19:55:01Z</time>
  <course>12.62</course>
  <speed>0.0</speed>
  <fix>3d</fix>
</trkpt>
<trkpt lat="-27.2744127" lon="151.290066">
  <ele>343.07</ele>
  <time>2026-09-01T19:55:01Z</time>
  <course>14.56</course>
  <speed>0.022360679774997897</speed>
  <fix>3d</fix>
</trkpt>
<trkpt lat="-27.2744125" lon="151.2900659">
  <ele>343.09</ele>
  <time>2026-09-01T19:55:01Z</time>
  <course>12.62</course>
  <speed>0.0</speed>
  <fix>3d</fix>
</trkpt>
<trkpt lat="-27.2744127" lon="151.290066">
  <ele>343.07</ele>
  <time>2026-09-01T19:55:01Z</time>
  <course>14.56</course>
  <speed>0.022360679774997897</speed>
  <fix>3d</fix>
</trkpt>
<trkpt lat="-27.2744125" lon="151.2900659">
  <ele>343.09</ele>
  <time>2026-09-01T19:55:01Z</time>
  <course>12.62</course>
  <speed>0.0</speed>
  <fix>3d</fix>
</trkpt>
<trkpt lat="-27.2744127" lon="151.290066">
  <ele>343.07</ele>
  <time>2026-09-01T19:55:01Z</time>
  <course>14.56</course>
  <speed>0.022360679774997897</speed>
  <fix>3d</fix>
</trkpt>
<trkpt lat="-27.2744125" lon="151.2900659">
  <ele>343.09</ele>
  <time>2026-09-01T19:55:01Z</time>
  <course>12.62</course>
  <speed>0.0</speed>
  <fix>3d</fix>
</trkpt>
<trkpt lat="-27.2744127" lon="151.290066">
  <ele>343.07</ele>
  <time>2026-09-01T19:55:01Z</time>
  <course>14.56</course>
  <speed>0.022360679774997897</speed>
  <fix>3d</fix>
</trkpt>
<trkpt lat="-27.2744125" lon="151.2900659">
  <ele>343.09</ele>
  <time>2026-09-01T19:55:01Z</time>
  <course>12.62</course>
  <speed>0.0</speed>
  <fix>3d</fix>
</trkpt>
<trkpt lat="-27.2744127" lon="151.290066">
  <ele>343.07</ele>
  <time>2026-09-01T19:55:01Z</time>
  <course>14.56</course>
  <speed>0.022360679774997897</speed>
  <fix>3d</fix>
</trkpt>
<trkpt lat="-27.2744125" lon="151.2900659">
  <ele>343.09</ele>
  <time>2026-09-01T19:55:01Z</time>
  <course>12.62</course>
  <speed>0.0</speed>
  <fix>3d</fix>
</trkpt>
<trkpt lat="-27.2744127" lon="151.290066">
  <ele>343.07</ele>
  <time>2026-09-01T19:55:01Z</time>
  <course>14.56</course>
  <speed>0.022360679774997897</speed>
  <fix>3d</fix>
</trkpt>
<trkpt lat="-27.2744125" lon="151.2900659">
  <ele>343.09</ele>
  <time>2026-09-01T19:55:01Z</time>
  <course>12.62</course>
  <speed>0.0</speed>
  <fix>3d</fix>
</trkpt>
<trkpt lat="-27.2744127" lon="151.290066">
  <ele>343.07</ele>
  <time>2026-09-01T19:55:01Z</time>
  <course>14.56</course>
  <speed>0.022360679774997897</speed>
  <fix>3d</fix>
</trkpt>
<trkpt lat="-27.2744125" lon="151.2900659">
  <ele>343.09</ele>
  <time>2026-09-01T19:55:01Z</time>
  <course>12.62</course>
  <speed>0.0</speed>
  <fix>3d</fix>
</trkpt>
<trkpt lat="-27.2744127" lon="151.290066">
  <ele>343.07</ele>
  <time>2026-09-01T19:55:01Z</time>
  <course>14.56</course>
  <speed>0.022360679774997897</speed>
  <fix>3d</fix>
</trkpt>
<trkpt lat="-27.2744125" lon="151.2900659">
  <ele>343.09</ele>
  <time>2026-09-01T19:55:01Z</time>
  <course>12.62</course>
  <speed>0.0</speed>
  <fix>3d</fix>
</trkpt>
<trkpt lat="-27.2744127" lon="151.290066">
  <ele>343.07</ele>
  <time>2026-09-01T19:55:01Z</time>
  <course>14.56</course>
  <speed>0.022360679774997897</speed>
  <fix>3d</fix>
</trkpt>
<trkpt lat="-27.2744125" lon="151.2900659">
  <ele>343.09</ele>
  <time>2026-09-01T19:55:01Z</time>
  <course>12.62</course>
  <speed>0.0</speed>
  <fix>3d</fix>
</trkpt>
<trkpt lat="-27.2744127" lon="151.290066">
  <ele>343.07</ele>
  <time>2026-09-01T19:55:01Z</time>
  <course>14.56</course>
  <speed>0.022360679774997897</speed>
  <fix>3d</fix>
</trkpt>
<trkpt lat="-27.2744125" lon="151.2900659">
  <ele>343.09</ele>
  <time>2026-09-01T19:55:01Z</time>
  <course>12.62</course>
  <speed>0.0</speed>
  <fix>3d</fix>
</trkpt>
<trkpt lat="-27.2744127" lon="151.290066">
  <ele>343.07</ele>
  <time>2026-09-01T19:55:01Z</time>
  <course>14.56</course>
  <speed>0.022360679774997897</speed>
  <fix>3d</fix>
</trkpt>
<trkpt lat="-27.2744125" lon="151.2900659">
  <ele>343.09</ele>
  <time>2026-09-01T19:55:01Z</time>
  <course>12.62</course>
  <speed>0.0</speed>
  <fix>3d</fix>
</trkpt>
<trkpt lat="-27.2744127" lon="151.290066">
  <ele>343.07</ele>
  <time>2026-09-01T19:55:01Z</time>
  <course>14.56</course>
  <speed>0.022360679774997897</speed>
  <fix>3d</fix>
</trkpt>
<trkpt lat="-27.2744125" lon="151.2900659">
  <ele>343.09</ele>
  <time>2026-09-01T19:55:01Z</time>
  <course>12.62</course>
  <speed>0.0</speed>
  <fix>3d</fix>
</trkpt>
<trkpt lat="-27.2744127" lon="151.290066">
  <ele>343.07</ele>
  <time>2026-09-01T19:55:01Z</time>
  <course>14.56</course>
  <speed>0.022360679774997897</speed>
  <fix>3d</fix>
</trkpt>
<trkpt lat="-27.2744125" lon="151.2900659">
  <ele>343.09</ele>
  <time>2026-09-01T19:55:01Z</time>
  <course>12.62</course>
  <speed>0.0</speed>
  <fix>3d</fix>
</trkpt>
<trkpt lat="-27.2744127" lon="151.290066">
  <ele>343.07</ele>
  <time>2026-09-01T19:55:01Z</time>
  <course>14.56</course>
  <speed>0.022360679774997897</speed>
  <fix>3d</fix>
</trkpt>
<trkpt lat="-27.2744125" lon="151.2900659">
  <ele>343.09</ele>
  <time>2026-09-01T19:55:01Z</time>
  <course>12.62</course>
  <speed>0.0</speed>
  <fix>3d</fix>
</trkpt>
<trkpt lat="-27.2744127" lon="151.290066">
  <ele>343.07</ele>
  <time>2026-09-01T19:55:01Z</time>
  <course>14.56</course>
  <speed>0.022360679774997897</speed>
  <fix>3d</fix>
</trkpt>
<trkpt lat="-27.2744125" lon="151.2900659">
  <ele>343.09</ele>
  <time>2026-09-01T19:55:01Z</time>
  <course>12.62</course>
  <speed>0.0</speed>
  <fix>3d</fix>
</trkpt>
<trkpt lat="-27.2744127" lon="151.290066">
  <ele>343.07</ele>
  <time>2026-09-01T19:55:01Z</time>
  <course>14.55</course>
  <speed>0.022360679774997897</speed>
  <fix>3d</fix>
</trkpt>
<trkpt lat="-27.2744125" lon="151.2900659">
  <ele>343.09</ele>
  <time>2026-09-01T19:55:01Z</time>
  <course>12.62</course>
  <speed>0.0</speed>
  <fix>3d</fix>
</trkpt>
<trkpt lat="-27.2744127" lon="151.290066">
  <ele>343.07</ele>
  <time>2026-09-01T19:55:01Z</time>
  <course>14.55</course>
  <speed>0.022360679774997897</speed>
  <fix>3d</fix>
</trkpt>
<trkpt lat="-27.2744125" lon="151.2900659">
  <ele>343.09</ele>
  <time>2026-09-01T19:55:01Z</time>
  <course>12.62</course>
  <speed>0.0</speed>
  <fix>3d</fix>
</trkpt>
<trkpt lat="-27.2744127" lon="151.290066">
  <ele>343.07</ele>
  <time>2026-09-01T19:55:01Z</time>
  <course>14.55</course>
  <speed>0.022360679774997897</speed>
  <fix>3d</fix>
</trkpt>
<trkpt lat="-27.2744125" lon="151.2900659">
  <ele>343.09</ele>
  <time>2026-09-01T19:55:01Z</time>
  <course>12.62</course>
  <speed>0.0</speed>
  <fix>3d</fix>
</trkpt>
<trkpt lat="-27.2744127" lon="151.290066">
  <ele>343.07</ele>
  <time>2026-09-01T19:55:01Z</time>
  <course>14.55</course>
  <speed>0.022360679774997897</speed>
  <fix>3d</fix>
</trkpt>
<trkpt lat="-27.2744125" lon="151.2900659">
  <ele>343.09</ele>
  <time>2026-09-01T19:55:01Z</time>
  <course>12.62</course>
  <speed>0.0</speed>
  <fix>3d</fix>
</trkpt>
<trkpt lat="-27.2744127" lon="151.290066">
  <ele>343.07</ele>
  <time>2026-09-01T19:55:01Z</time>
  <course>14.55</course>
  <speed>0.022360679774997897</speed>
  <fix>3d</fix>
</trkpt>
<trkpt lat="-27.2744125" lon="151.2900659">
  <ele>343.09</ele>
  <time>2026-09-01T19:55:01Z</time>
  <course>12.62</course>
  <speed>0.0</speed>
  <fix>3d</fix>
</trkpt>
<trkpt lat="-27.2744127" lon="151.290066">
  <ele>343.07</ele>
  <time>2026-09-01T19:55:01Z</time>
  <course>14.55</course>
  <speed>0.022360679774997897</speed>
  <fix>3d</fix>
</trkpt>
<trkpt lat="-27.2744125" lon="151.2900659">
  <ele>343.09</ele>
  <time>2026-09-01T19:55:01Z</time>
  <course>12.62</course>
  <speed>0.0</speed>
  <fix>3d</fix>
</trkpt>
<trkpt lat="-27.2744127" lon="151.290066">
  <ele>343.07</ele>
  <time>2026-09-01T19:55:01Z</time>
  <course>14.55</course>
  <speed>0.022360679774997897</speed>
  <fix>3d</fix>
</trkpt>
<trkpt lat="-27.2744125" lon="151.2900659">
  <ele>343.09</ele>
  <time>2026-09-01T19:55:01Z</time>
  <course>12.62</course>
  <speed>0.0</speed>
  <fix>3d</fix>
</trkpt>
<trkpt lat="-27.2744127" lon="151.290066">
  <ele>343.08</ele>
  <time>2026-09-01T19:55:01Z</time>
  <course>14.55</course>
  <speed>0.022360679774997897</speed>
  <fix>3d</fix>
</trkpt>
<trkpt lat="-27.2744125" lon="151.2900659">
  <ele>343.09</ele>
  <time>2026-09-01T19:55:01Z</time>
  <course>12.62</course>
  <speed>0.0</speed>
  <fix>3d</fix>
</trkpt>
<trkpt lat="-27.2744127" lon="151.290066">
  <ele>343.08</ele>
  <time>2026-09-01T19:55:01Z</time>
  <course>14.55</course>
  <speed>0.022360679774997897</speed>
  <fix>3d</fix>
</trkpt>
<trkpt lat="-27.2744125" lon="151.2900659">
  <ele>343.09</ele>
  <time>2026-09-01T19:55:01Z</time>
  <course>12.62</course>
  <speed>0.0</speed>
  <fix>3d</fix>
</trkpt>
<trkpt lat="-27.2744127" lon="151.290066">
  <ele>343.08</ele>
  <time>2026-09-01T19:55:01Z</time>
  <course>14.55</course>
  <speed>0.022360679774997897</speed>
  <fix>3d</fix>
</trkpt>
<trkpt lat="-27.2744125" lon="151.2900659">
  <ele>343.09</ele>
  <time>2026-09-01T19:55:01Z</time>
  <course>12.62</course>
  <speed>0.0</speed>
  <fix>3d</fix>
</trkpt>
<trkpt lat="-27.2744127" lon="151.290066">
  <ele>343.08</ele>
  <time>2026-09-01T19:55:01Z</time>
  <course>14.55</course>
  <speed>0.022360679774997897</speed>
  <fix>3d</fix>
</trkpt>
<trkpt lat="-27.2744125" lon="151.2900659">
  <ele>343.09</ele>
  <time>2026-09-01T19:55:01Z</time>
  <course>12.62</course>
  <speed>0.0</speed>
  <fix>3d</fix>
</trkpt>
<trkpt lat="-27.2744127" lon="151.290066">
  <ele>343.08</ele>
  <time>2026-09-01T19:55:01Z</time>
  <course>14.55</course>
  <speed>0.022360679774997897</speed>
  <fix>3d</fix>
</trkpt>
<trkpt lat="-27.2744125" lon="151.2900659">
  <ele>343.09</ele>
  <time>2026-09-01T19:55:01Z</time>
  <course>12.62</course>
  <speed>0.0</speed>
  <fix>3d</fix>
</trkpt>
<trkpt lat="-27.2744127" lon="151.290066">
  <ele>343.08</ele>
  <time>2026-09-01T19:55:01Z</time>
  <course>14.55</course>
  <speed>0.022360679774997897</speed>
  <fix>3d</fix>
</trkpt>
<trkpt lat="-27.2744125" lon="151.2900659">
  <ele>343.09</ele>
  <time>2026-09-01T19:55:01Z</time>
  <course>12.62</course>
  <speed>0.0</speed>
  <fix>3d</fix>
</trkpt>
<trkpt lat="-27.2744127" lon="151.290066">
  <ele>343.08</ele>
  <time>2026-09-01T19:55:01Z</time>
  <course>14.55</course>
  <speed>0.022360679774997897</speed>
  <fix>3d</fix>
</trkpt>
<trkpt lat="-27.2744125" lon="151.2900659">
  <ele>343.09</ele>
  <time>2026-09-01T19:55:01Z</time>
  <course>12.62</course>
  <speed>0.0</speed>
  <fix>3d</fix>
</trkpt>
<trkpt lat="-27.2744127" lon="151.290066">
  <ele>343.09</ele>
  <time>2026-09-01T19:55:01Z</time>
  <course>14.55</course>
  <speed>0.022360679774997897</speed>
  <fix>3d</fix>
</trkpt>
<trkpt lat="-27.2744125" lon="151.2900659">
  <ele>343.09</ele>
  <time>2026-09-01T19:55:01Z</time>
  <course>12.62</course>
  <speed>0.0</speed>
  <fix>3d</fix>
</trkpt>
<trkpt lat="-27.2744127" lon="151.290066">
  <ele>343.09</ele>
  <time>2026-09-01T19:55:01Z</time>
  <course>14.55</course>
  <speed>0.022360679774997897</speed>
  <fix>3d</fix>
</trkpt>
<trkpt lat="-27.2744125" lon="151.2900659">
  <ele>343.09</ele>
  <time>2026-09-01T19:55:01Z</time>
  <course>12.62</course>
  <speed>0.0</speed>
  <fix>3d</fix>
</trkpt>
<trkpt lat="-27.2744127" lon="151.290066">
  <ele>343.09</ele>
  <time>2026-09-01T19:55:01Z</time>
  <course>14.55</course>
  <speed>0.022360679774997897</speed>
  <fix>3d</fix>
</trkpt>
<trkpt lat="-27.2744125" lon="151.2900659">
  <ele>343.09</ele>
  <time>2026-09-01T19:55:01Z</time>
  <course>12.62</course>
  <speed>0.0</speed>
  <fix>3d</fix>
</trkpt>
<trkpt lat="-27.2744127" lon="151.290066">
  <ele>343.09</ele>
  <time>2026-09-01T19:55:01Z</time>
  <course>14.55</course>
  <speed>0.022360679774997897</speed>
  <fix>3d</fix>
</trkpt>
<trkpt lat="-27.2744125" lon="151.2900659">
  <ele>343.09</ele>
  <time>2026-09-01T19:55:01Z</time>
  <course>12.62</course>
  <speed>0.0</speed>
  <fix>3d</fix>
</trkpt>
<trkpt lat="-27.2744127" lon="151.290066">
  <ele>343.09</ele>
  <time>2026-09-01T19:55:01Z</time>
  <course>14.55</course>
  <speed>0.022360679774997897</speed>
  <fix>3d</fix>
</trkpt>
<trkpt lat="-27.2744125" lon="151.2900659">
  <ele>343.09</ele>
  <time>2026-09-01T19:55:01Z</time>
  <course>12.62</course>
  <speed>0.0</speed>
  <fix>3d</fix>
</trkpt>
<trkpt lat="-27.2744127" lon="151.290066">
  <ele>343.08</ele>
  <time>2026-09-01T19:55:01Z</time>
  <course>14.55</course>
  <speed>0.022360679774997897</speed>
  <fix>3d</fix>
</trkpt>
<trkpt lat="-27.2744125" lon="151.2900659">
  <ele>343.09</ele>
  <time>2026-09-01T19:55:01Z</time>
  <course>12.62</course>
  <speed>0.0</speed>
  <fix>3d</fix>
</trkpt>
<trkpt lat="-27.2744127" lon="151.290066">
  <ele>343.08</ele>
  <time>2026-09-01T19:55:01Z</time>
  <course>14.55</course>
  <speed>0.022360679774997897</speed>
  <fix>3d</fix>
</trkpt>
<trkpt lat="-27.2744125" lon="151.2900659">
  <ele>343.09</ele>
  <time>2026-09-01T19:55:01Z</time>
  <course>12.62</course>
  <speed>0.0</speed>
  <fix>3d</fix>
</trkpt>
<trkpt lat="-27.2744127" lon="151.290066">
  <ele>343.08</ele>
  <time>2026-09-01T19:55:01Z</time>
  <course>14.55</course>
  <speed>0.022360679774997897</speed>
  <fix>3d</fix>
</trkpt>
<trkpt lat="-27.2744125" lon="151.2900659">
  <ele>343.09</ele>
  <time>2026-09-01T19:55:01Z</time>
  <course>12.62</course>
  <speed>0.0</speed>
  <fix>3d</fix>
</trkpt>
<trkpt lat="-27.2744127" lon="151.290066">
  <ele>343.08</ele>
  <time>2026-09-01T19:55:01Z</time>
  <course>14.55</course>
  <speed>0.022360679774997897</speed>
  <fix>3d</fix>
</trkpt>
<trkpt lat="-27.2744125" lon="151.2900659">
  <ele>343.09</ele>
  <time>2026-09-01T19:55:01Z</time>
  <course>12.62</course>
  <speed>0.0</speed>
  <fix>3d</fix>
</trkpt>
<trkpt lat="-27.2744127" lon="151.290066">
  <ele>343.08</ele>
  <time>2026-09-01T19:55:01Z</time>
  <course>14.55</course>
  <speed>0.022360679774997897</speed>
  <fix>3d</fix>
</trkpt>
<trkpt lat="-27.2744125" lon="151.2900659">
  <ele>343.09</ele>
  <time>2026-09-01T19:55:01Z</time>
  <course>12.62</course>
  <speed>0.0</speed>
  <fix>3d</fix>
</trkpt>
<trkpt lat="-27.2744127" lon="151.290066">
  <ele>343.08</ele>
  <time>2026-09-01T19:55:01Z</time>
  <course>14.55</course>
  <speed>0.022360679774997897</speed>
  <fix>3d</fix>
</trkpt>
<trkpt lat="-27.2744125" lon="151.2900659">
  <ele>343.09</ele>
  <time>2026-09-01T19:55:01Z</time>
  <course>12.62</course>
  <speed>0.0</speed>
  <fix>3d</fix>
</trkpt>
<trkpt lat="-27.2744127" lon="151.290066">
  <ele>343.08</ele>
  <time>2026-09-01T19:55:01Z</time>
  <course>14.55</course>
  <speed>0.022360679774997897</speed>
  <fix>3d</fix>
</trkpt>
<trkpt lat="-27.2744125" lon="151.2900659">
  <ele>343.09</ele>
  <time>2026-09-01T19:55:01Z</time>
  <course>12.62</course>
  <speed>0.0</speed>
  <fix>3d</fix>
</trkpt>
<trkpt lat="-27.2744127" lon="151.290066">
  <ele>343.07</ele>
  <time>2026-09-01T19:55:01Z</time>
  <course>14.55</course>
  <speed>0.022360679774997897</speed>
  <fix>3d</fix>
</trkpt>
<trkpt lat="-27.2744125" lon="151.2900659">
  <ele>343.09</ele>
  <time>2026-09-01T19:55:01Z</time>
  <course>12.62</course>
  <speed>0.0</speed>
  <fix>3d</fix>
</trkpt>
<trkpt lat="-27.2744127" lon="151.290066">
  <ele>343.07</ele>
  <time>2026-09-01T19:55:01Z</time>
  <course>14.55</course>
  <speed>0.022360679774997897</speed>
  <fix>3d</fix>
</trkpt>
<trkpt lat="-27.2744125" lon="151.2900659">
  <ele>343.09</ele>
  <time>2026-09-01T19:55:01Z</time>
  <course>12.62</course>
  <speed>0.0</speed>
  <fix>3d</fix>
</trkpt>
<trkpt lat="-27.2744127" lon="151.290066">
  <ele>343.07</ele>
  <time>2026-09-01T19:55:01Z</time>
  <course>14.55</course>
  <speed>0.022360679774997897</speed>
  <fix>3d</fix>
</trkpt>
<trkpt lat="-27.2744125" lon="151.2900659">
  <ele>343.09</ele>
  <time>2026-09-01T19:55:01Z</time>
  <course>12.62</course>
  <speed>0.0</speed>
  <fix>3d</fix>
</trkpt>
<trkpt lat="-27.2744127" lon="151.290066">
  <ele>343.06</ele>
  <time>2026-09-01T19:55:01Z</time>
  <course>14.55</course>
  <speed>0.022360679774997897</speed>
  <fix>3d</fix>
</trkpt>
<trkpt lat="-27.2744125" lon="151.2900659">
  <ele>343.09</ele>
  <time>2026-09-01T19:55:01Z</time>
  <course>12.62</course>
  <speed>0.0</speed>
  <fix>3d</fix>
</trkpt>
<trkpt lat="-27.2744127" lon="151.290066">
  <ele>343.06</ele>
  <time>2026-09-01T19:55:01Z</time>
  <course>14.55</course>
  <speed>0.022360679774997897</speed>
  <fix>3d</fix>
</trkpt>
<trkpt lat="-27.2744125" lon="151.2900659">
  <ele>343.09</ele>
  <time>2026-09-01T19:55:01Z</time>
  <course>12.62</course>
  <speed>0.0</speed>
  <fix>3d</fix>
</trkpt>
<trkpt lat="-27.2744127" lon="151.290066">
  <ele>343.06</ele>
  <time>2026-09-01T19:55:01Z</time>
  <course>14.55</course>
  <speed>0.022360679774997897</speed>
  <fix>3d</fix>
</trkpt>
<trkpt lat="-27.2744125" lon="151.2900659">
  <ele>343.09</ele>
  <time>2026-09-01T19:55:01Z</time>
  <course>12.62</course>
  <speed>0.0</speed>
  <fix>3d</fix>
</trkpt>
<trkpt lat="-27.2744127" lon="151.290066">
  <ele>343.06</ele>
  <time>2026-09-01T19:55:01Z</time>
  <course>14.55</course>
  <speed>0.022360679774997897</speed>
  <fix>3d</fix>
</trkpt>
<trkpt lat="-27.2744125" lon="151.2900659">
  <ele>343.09</ele>
  <time>2026-09-01T19:55:01Z</time>
  <course>12.62</course>
  <speed>0.0</speed>
  <fix>3d</fix>
</trkpt>
<trkpt lat="-27.2744127" lon="151.290066">
  <ele>343.06</ele>
  <time>2026-09-01T19:55:01Z</time>
  <course>14.55</course>
  <speed>0.022360679774997897</speed>
  <fix>3d</fix>
</trkpt>
<trkpt lat="-27.2744125" lon="151.2900659">
  <ele>343.09</ele>
  <time>2026-09-01T19:55:01Z</time>
  <course>12.62</course>
  <speed>0.0</speed>
  <fix>3d</fix>
</trkpt>
<trkpt lat="-27.2744127" lon="151.290066">
  <ele>343.06</ele>
  <time>2026-09-01T19:55:01Z</time>
  <course>14.55</course>
  <speed>0.022360679774997897</speed>
  <fix>3d</fix>
</trkpt>
<trkpt lat="-27.2744125" lon="151.2900659">
  <ele>343.09</ele>
  <time>2026-09-01T19:55:01Z</time>
  <course>12.62</course>
  <speed>0.0</speed>
  <fix>3d</fix>
</trkpt>
<trkpt lat="-27.2744127" lon="151.290066">
  <ele>343.06</ele>
  <time>2026-09-01T19:55:01Z</time>
  <course>14.55</course>
  <speed>0.022360679774997897</speed>
  <fix>3d</fix>
</trkpt>
<trkpt lat="-27.2744125" lon="151.2900659">
  <ele>343.09</ele>
  <time>2026-09-01T19:55:01Z</time>
  <course>12.62</course>
  <speed>0.0</speed>
  <fix>3d</fix>
</trkpt>
<trkpt lat="-27.2744127" lon="151.290066">
  <ele>343.05</ele>
  <time>2026-09-01T19:55:01Z</time>
  <course>14.55</course>
  <speed>0.022360679774997897</speed>
  <fix>3d</fix>
</trkpt>
<trkpt lat="-27.2744125" lon="151.2900659">
  <ele>343.09</ele>
  <time>2026-09-01T19:55:01Z</time>
  <course>12.62</course>
  <speed>0.0</speed>
  <fix>3d</fix>
</trkpt>
<trkpt lat="-27.2744127" lon="151.290066">
  <ele>343.05</ele>
  <time>2026-09-01T19:55:01Z</time>
  <course>14.55</course>
  <speed>0.022360679774997897</speed>
  <fix>3d</fix>
</trkpt>
<trkpt lat="-27.2744125" lon="151.2900659">
  <ele>343.09</ele>
  <time>2026-09-01T19:55:01Z</time>
  <course>12.62</course>
  <speed>0.0</speed>
  <fix>3d</fix>
</trkpt>
<trkpt lat="-27.2744127" lon="151.290066">
  <ele>343.05</ele>
  <time>2026-09-01T19:55:01Z</time>
  <course>14.55</course>
  <speed>0.022360679774997897</speed>
  <fix>3d</fix>
</trkpt>
<trkpt lat="-27.2744125" lon="151.2900659">
  <ele>343.09</ele>
  <time>2026-09-01T19:55:01Z</time>
  <course>12.62</course>
  <speed>0.0</speed>
  <fix>3d</fix>
</trkpt>
<trkpt lat="-27.2744127" lon="151.290066">
  <ele>343.05</ele>
  <time>2026-09-01T19:55:01Z</time>
  <course>14.54</course>
  <speed>0.022360679774997897</speed>
  <fix>3d</fix>
</trkpt>
<trkpt lat="-27.2744125" lon="151.2900659">
  <ele>343.09</ele>
  <time>2026-09-01T19:55:01Z</time>
  <course>12.62</course>
  <speed>0.0</speed>
  <fix>3d</fix>
</trkpt>
<trkpt lat="-27.2744127" lon="151.290066">
  <ele>343.04</ele>
  <time>2026-09-01T19:55:01Z</time>
  <course>14.54</course>
  <speed>0.022360679774997897</speed>
  <fix>3d</fix>
</trkpt>
<trkpt lat="-27.2744125" lon="151.2900659">
  <ele>343.09</ele>
  <time>2026-09-01T19:55:01Z</time>
  <course>12.62</course>
  <speed>0.0</speed>
  <fix>3d</fix>
</trkpt>
<trkpt lat="-27.2744127" lon="151.290066">
  <ele>343.04</ele>
  <time>2026-09-01T19:55:01Z</time>
  <course>14.54</course>
  <speed>0.022360679774997897</speed>
  <fix>3d</fix>
</trkpt>
<trkpt lat="-27.2744125" lon="151.2900659">
  <ele>343.09</ele>
  <time>2026-09-01T19:55:01Z</time>
  <course>12.62</course>
  <speed>0.0</speed>
  <fix>3d</fix>
</trkpt>
<trkpt lat="-27.2744127" lon="151.290066">
  <ele>343.04</ele>
  <time>2026-09-01T19:55:01Z</time>
  <course>14.54</course>
  <speed>0.022360679774997897</speed>
  <fix>3d</fix>
</trkpt>
<trkpt lat="-27.2744125" lon="151.2900659">
  <ele>343.09</ele>
  <time>2026-09-01T19:55:01Z</time>
  <course>12.62</course>
  <speed>0.0</speed>
  <fix>3d</fix>
</trkpt>
<trkpt lat="-27.2744127" lon="151.290066">
  <ele>343.04</ele>
  <time>2026-09-01T19:55:01Z</time>
  <course>14.54</course>
  <speed>0.022360679774997897</speed>
  <fix>3d</fix>
</trkpt>
<trkpt lat="-27.2744125" lon="151.2900659">
  <ele>343.09</ele>
  <time>2026-09-01T19:55:01Z</time>
  <course>12.62</course>
  <speed>0.0</speed>
  <fix>3d</fix>
</trkpt>
<trkpt lat="-27.2744127" lon="151.290066">
  <ele>343.04</ele>
  <time>2026-09-01T19:55:01Z</time>
  <course>14.54</course>
  <speed>0.022360679774997897</speed>
  <fix>3d</fix>
</trkpt>
<trkpt lat="-27.2744125" lon="151.2900659">
  <ele>343.09</ele>
  <time>2026-09-01T19:55:01Z</time>
  <course>12.62</course>
  <speed>0.0</speed>
  <fix>3d</fix>
</trkpt>
<trkpt lat="-27.2744127" lon="151.290066">
  <ele>343.03</ele>
  <time>2026-09-01T19:55:01Z</time>
  <course>14.54</course>
  <speed>0.022360679774997897</speed>
  <fix>3d</fix>
</trkpt>
<trkpt lat="-27.2744125" lon="151.2900659">
  <ele>343.09</ele>
  <time>2026-09-01T19:55:01Z</time>
  <course>12.62</course>
  <speed>0.0</speed>
  <fix>3d</fix>
</trkpt>
<trkpt lat="-27.2744127" lon="151.290066">
  <ele>343.03</ele>
  <time>2026-09-01T19:55:01Z</time>
  <course>14.54</course>
  <speed>0.022360679774997897</speed>
  <fix>3d</fix>
</trkpt>
<trkpt lat="-27.2744125" lon="151.2900659">
  <ele>343.09</ele>
  <time>2026-09-01T19:55:01Z</time>
  <course>12.62</course>
  <speed>0.0</speed>
  <fix>3d</fix>
</trkpt>
<trkpt lat="-27.2744127" lon="151.290066">
  <ele>343.03</ele>
  <time>2026-09-01T19:55:01Z</time>
  <course>14.54</course>
  <speed>0.022360679774997897</speed>
  <fix>3d</fix>
</trkpt>
<trkpt lat="-27.2744125" lon="151.2900659">
  <ele>343.09</ele>
  <time>2026-09-01T19:55:01Z</time>
  <course>12.62</course>
  <speed>0.0</speed>
  <fix>3d</fix>
</trkpt>
<trkpt lat="-27.2744127" lon="151.290066">
  <ele>343.03</ele>
  <time>2026-09-01T19:55:01Z</time>
  <course>14.54</course>
  <speed>0.022360679774997897</speed>
  <fix>3d</fix>
</trkpt>
<trkpt lat="-27.2744125" lon="151.2900659">
  <ele>343.09</ele>
  <time>2026-09-01T19:55:01Z</time>
  <course>12.62</course>
  <speed>0.0</speed>
  <fix>3d</fix>
</trkpt>
<trkpt lat="-27.2744127" lon="151.290066">
  <ele>343.03</ele>
  <time>2026-09-01T19:55:01Z</time>
  <course>14.54</course>
  <speed>0.022360679774997897</speed>
  <fix>3d</fix>
</trkpt>
<trkpt lat="-27.2744125" lon="151.2900659">
  <ele>343.09</ele>
  <time>2026-09-01T19:55:01Z</time>
  <course>12.62</course>
  <speed>0.0</speed>
  <fix>3d</fix>
</trkpt>
<trkpt lat="-27.2744127" lon="151.290066">
  <ele>343.03</ele>
  <time>2026-09-01T19:55:01Z</time>
  <course>14.54</course>
  <speed>0.022360679774997897</speed>
  <fix>3d</fix>
</trkpt>
<trkpt lat="-27.2744125" lon="151.2900659">
  <ele>343.09</ele>
  <time>2026-09-01T19:55:01Z</time>
  <course>12.62</course>
  <speed>0.0</speed>
  <fix>3d</fix>
</trkpt>
<trkpt lat="-27.2744127" lon="151.290066">
  <ele>343.03</ele>
  <time>2026-09-01T19:55:01Z</time>
  <course>14.54</course>
  <speed>0.022360679774997897</speed>
  <fix>3d</fix>
</trkpt>
<trkpt lat="-27.2744125" lon="151.2900659">
  <ele>343.09</ele>
  <time>2026-09-01T19:55:01Z</time>
  <course>12.62</course>
  <speed>0.0</speed>
  <fix>3d</fix>
</trkpt>
<trkpt lat="-27.2744127" lon="151.290066">
  <ele>343.02</ele>
  <time>2026-09-01T19:55:01Z</time>
  <course>14.54</course>
  <speed>0.022360679774997897</speed>
  <fix>3d</fix>
</trkpt>
<trkpt lat="-27.2744125" lon="151.2900659">
  <ele>343.09</ele>
  <time>2026-09-01T19:55:01Z</time>
  <course>12.62</course>
  <speed>0.0</speed>
  <fix>3d</fix>
</trkpt>
<trkpt lat="-27.2744127" lon="151.290066">
  <ele>343.02</ele>
  <time>2026-09-01T19:55:01Z</time>
  <course>14.54</course>
  <speed>0.022360679774997897</speed>
  <fix>3d</fix>
</trkpt>
<trkpt lat="-27.2744125" lon="151.2900659">
  <ele>343.09</ele>
  <time>2026-09-01T19:55:01Z</time>
  <course>12.62</course>
  <speed>0.0</speed>
  <fix>3d</fix>
</trkpt>
<trkpt lat="-27.2744127" lon="151.290066">
  <ele>343.02</ele>
  <time>2026-09-01T19:55:01Z</time>
  <course>14.54</course>
  <speed>0.022360679774997897</speed>
  <fix>3d</fix>
</trkpt>
<trkpt lat="-27.2744125" lon="151.2900659">
  <ele>343.09</ele>
  <time>2026-09-01T19:55:01Z</time>
  <course>12.62</course>
  <speed>0.0</speed>
  <fix>3d</fix>
</trkpt>
<trkpt lat="-27.2744127" lon="151.290066">
  <ele>343.01</ele>
  <time>2026-09-01T19:55:01Z</time>
  <course>14.54</course>
  <speed>0.022360679774997897</speed>
  <fix>3d</fix>
</trkpt>
<trkpt lat="-27.2744125" lon="151.2900659">
  <ele>343.09</ele>
  <time>2026-09-01T19:55:01Z</time>
  <course>12.62</course>
  <speed>0.0</speed>
  <fix>3d</fix>
</trkpt>
<trkpt lat="-27.2744127" lon="151.290066">
  <ele>343.01</ele>
  <time>2026-09-01T19:55:01Z</time>
  <course>14.54</course>
  <speed>0.022360679774997897</speed>
  <fix>3d</fix>
</trkpt>
<trkpt lat="-27.2744125" lon="151.2900659">
  <ele>343.09</ele>
  <time>2026-09-01T19:55:01Z</time>
  <course>12.62</course>
  <speed>0.0</speed>
  <fix>3d</fix>
</trkpt>
<trkpt lat="-27.2744127" lon="151.290066">
  <ele>343.01</ele>
  <time>2026-09-01T19:55:01Z</time>
  <course>14.54</course>
  <speed>0.022360679774997897</speed>
  <fix>3d</fix>
</trkpt>
<trkpt lat="-27.2744125" lon="151.2900659">
  <ele>343.09</ele>
  <time>2026-09-01T19:55:01Z</time>
  <course>12.62</course>
  <speed>0.0</speed>
  <fix>3d</fix>
</trkpt>
<trkpt lat="-27.2744127" lon="151.290066">
  <ele>343.01</ele>
  <time>2026-09-01T19:55:01Z</time>
  <course>14.54</course>
  <speed>0.022360679774997897</speed>
  <fix>3d</fix>
</trkpt>
<trkpt lat="-27.2744125" lon="151.2900659">
  <ele>343.09</ele>
  <time>2026-09-01T19:55:01Z</time>
  <course>12.62</course>
  <speed>0.0</speed>
  <fix>3d</fix>
</trkpt>
<trkpt lat="-27.2744127" lon="151.290066">
  <ele>343.01</ele>
  <time>2026-09-01T19:55:01Z</time>
  <course>14.54</course>
  <speed>0.022360679774997897</speed>
  <fix>3d</fix>
</trkpt>
<trkpt lat="-27.2744125" lon="151.2900659">
  <ele>343.09</ele>
  <time>2026-09-01T19:55:01Z</time>
  <course>12.62</course>
  <speed>0.0</speed>
  <fix>3d</fix>
</trkpt>
<trkpt lat="-27.2744127" lon="151.290066">
  <ele>343.01</ele>
  <time>2026-09-01T19:55:01Z</time>
  <course>14.54</course>
  <speed>0.022360679774997897</speed>
  <fix>3d</fix>
</trkpt>
<trkpt lat="-27.2744125" lon="151.2900659">
  <ele>343.09</ele>
  <time>2026-09-01T19:55:01Z</time>
  <course>12.62</course>
  <speed>0.0</speed>
  <fix>3d</fix>
</trkpt>
<trkpt lat="-27.2744127" lon="151.290066">
  <ele>343.01</ele>
  <time>2026-09-01T19:55:01Z</time>
  <course>14.54</course>
  <speed>0.022360679774997897</speed>
  <fix>3d</fix>
</trkpt>
<trkpt lat="-27.2744125" lon="151.2900659">
  <ele>343.09</ele>
  <time>2026-09-01T19:55:01Z</time>
  <course>12.62</course>
  <speed>0.0</speed>
  <fix>3d</fix>
</trkpt>
<trkpt lat="-27.2744127" lon="151.290066">
  <ele>343.01</ele>
  <time>2026-09-01T19:55:01Z</time>
  <course>14.54</course>
  <speed>0.022360679774997897</speed>
  <fix>3d</fix>
</trkpt>
<trkpt lat="-27.2744125" lon="151.2900659">
  <ele>343.09</ele>
  <time>2026-09-01T19:55:01Z</time>
  <course>12.62</course>
  <speed>0.0</speed>
  <fix>3d</fix>
</trkpt>
<trkpt lat="-27.2744127" lon="151.290066">
  <ele>343.01</ele>
  <time>2026-09-01T19:55:01Z</time>
  <course>14.54</course>
  <speed>0.022360679774997897</speed>
  <fix>3d</fix>
</trkpt>
<trkpt lat="-27.2744125" lon="151.2900659">
  <ele>343.09</ele>
  <time>2026-09-01T19:55:01Z</time>
  <course>12.62</course>
  <speed>0.0</speed>
  <fix>3d</fix>
</trkpt>
<trkpt lat="-27.2744127" lon="151.290066">
  <ele>343.01</ele>
  <time>2026-09-01T19:55:01Z</time>
  <course>14.54</course>
  <speed>0.022360679774997897</speed>
  <fix>3d</fix>
</trkpt>
<trkpt lat="-27.2744125" lon="151.2900659">
  <ele>343.09</ele>
  <time>2026-09-01T19:55:01Z</time>
  <course>12.62</course>
  <speed>0.0</speed>
  <fix>3d</fix>
</trkpt>
<trkpt lat="-27.2744127" lon="151.290066">
  <ele>343.0</ele>
  <time>2026-09-01T19:55:01Z</time>
  <course>14.54</course>
  <speed>0.022360679774997897</speed>
  <fix>3d</fix>
</trkpt>
<trkpt lat="-27.2744125" lon="151.2900659">
  <ele>343.09</ele>
  <time>2026-09-01T19:55:01Z</time>
  <course>12.62</course>
  <speed>0.0</speed>
  <fix>3d</fix>
</trkpt>
<trkpt lat="-27.2744127" lon="151.290066">
  <ele>343.0</ele>
  <time>2026-09-01T19:55:01Z</time>
  <course>14.54</course>
  <speed>0.022360679774997897</speed>
  <fix>3d</fix>
</trkpt>
<trkpt lat="-27.2744125" lon="151.2900659">
  <ele>343.09</ele>
  <time>2026-09-01T19:55:01Z</time>
  <course>12.62</course>
  <speed>0.0</speed>
  <fix>3d</fix>
</trkpt>
<trkpt lat="-27.2744127" lon="151.290066">
  <ele>343.0</ele>
  <time>2026-09-01T19:55:01Z</time>
  <course>14.54</course>
  <speed>0.022360679774997897</speed>
  <fix>3d</fix>
</trkpt>
<trkpt lat="-27.2744125" lon="151.2900659">
  <ele>343.09</ele>
  <time>2026-09-01T19:55:01Z</time>
  <course>12.62</course>
  <speed>0.0</speed>
  <fix>3d</fix>
</trkpt>
<trkpt lat="-27.2744127" lon="151.290066">
  <ele>343.0</ele>
  <time>2026-09-01T19:55:01Z</time>
  <course>14.54</course>
  <speed>0.022360679774997897</speed>
  <fix>3d</fix>
</trkpt>
<trkpt lat="-27.2744125" lon="151.2900659">
  <ele>343.09</ele>
  <time>2026-09-01T19:55:01Z</time>
  <course>12.62</course>
  <speed>0.0</speed>
  <fix>3d</fix>
</trkpt>
<trkpt lat="-27.2744127" lon="151.290066">
  <ele>343.0</ele>
  <time>2026-09-01T19:55:01Z</time>
  <course>14.54</course>
  <speed>0.022360679774997897</speed>
  <fix>3d</fix>
</trkpt>
<trkpt lat="-27.2744125" lon="151.2900659">
  <ele>343.09</ele>
  <time>2026-09-01T19:55:01Z</time>
  <course>12.62</course>
  <speed>0.0</speed>
  <fix>3d</fix>
</trkpt>
<trkpt lat="-27.2744127" lon="151.290066">
  <ele>343.0</ele>
  <time>2026-09-01T19:55:01Z</time>
  <course>14.54</course>
  <speed>0.022360679774997897</speed>
  <fix>3d</fix>
</trkpt>
<trkpt lat="-27.2744125" lon="151.2900659">
  <ele>343.09</ele>
  <time>2026-09-01T19:55:01Z</time>
  <course>12.62</course>
  <speed>0.0</speed>
  <fix>3d</fix>
</trkpt>
<trkpt lat="-27.2744127" lon="151.290066">
  <ele>343.0</ele>
  <time>2026-09-01T19:55:01Z</time>
  <course>14.54</course>
  <speed>0.022360679774997897</speed>
  <fix>3d</fix>
</trkpt>
<trkpt lat="-27.2744125" lon="151.2900659">
  <ele>343.09</ele>
  <time>2026-09-01T19:55:01Z</time>
  <course>12.62</course>
  <speed>0.0</speed>
  <fix>3d</fix>
</trkpt>
<trkpt lat="-27.2744127" lon="151.290066">
  <ele>342.99</ele>
  <time>2026-09-01T19:55:01Z</time>
  <course>14.54</course>
  <speed>0.022360679774997897</speed>
  <fix>3d</fix>
</trkpt>
<trkpt lat="-27.2744125" lon="151.2900659">
  <ele>343.09</ele>
  <time>2026-09-01T19:55:01Z</time>
  <course>12.62</course>
  <speed>0.0</speed>
  <fix>3d</fix>
</trkpt>
<trkpt lat="-27.2744127" lon="151.290066">
  <ele>342.99</ele>
  <time>2026-09-01T19:55:01Z</time>
  <course>14.54</course>
  <speed>0.022360679774997897</speed>
  <fix>3d</fix>
</trkpt>
<trkpt lat="-27.2744125" lon="151.2900659">
  <ele>343.09</ele>
  <time>2026-09-01T19:55:01Z</time>
  <course>12.62</course>
  <speed>0.0</speed>
  <fix>3d</fix>
</trkpt>
<trkpt lat="-27.2744127" lon="151.290066">
  <ele>342.99</ele>
  <time>2026-09-01T19:55:01Z</time>
  <course>14.54</course>
  <speed>0.022360679774997897</speed>
  <fix>3d</fix>
</trkpt>
<trkpt lat="-27.2744125" lon="151.2900659">
  <ele>343.09</ele>
  <time>2026-09-01T19:55:01Z</time>
  <course>12.62</course>
  <speed>0.0</speed>
  <fix>3d</fix>
</trkpt>
<trkpt lat="-27.2744127" lon="151.290066">
  <ele>342.99</ele>
  <time>2026-09-01T19:55:01Z</time>
  <course>14.54</course>
  <speed>0.022360679774997897</speed>
  <fix>3d</fix>
</trkpt>
<trkpt lat="-27.2744125" lon="151.2900659">
  <ele>343.09</ele>
  <time>2026-09-01T19:55:01Z</time>
  <course>12.62</course>
  <speed>0.0</speed>
  <fix>3d</fix>
</trkpt>
<trkpt lat="-27.2744127" lon="151.290066">
  <ele>342.98</ele>
  <time>2026-09-01T19:55:01Z</time>
  <course>14.54</course>
  <speed>0.022360679774997897</speed>
  <fix>3d</fix>
</trkpt>
<trkpt lat="-27.2744125" lon="151.2900659">
  <ele>343.09</ele>
  <time>2026-09-01T19:55:01Z</time>
  <course>12.62</course>
  <speed>0.0</speed>
  <fix>3d</fix>
</trkpt>
<trkpt lat="-27.2744127" lon="151.290066">
  <ele>343.08</ele>
  <time>2026-09-01T19:55:01Z</time>
  <course>14.54</course>
  <speed>0.022360679774997897</speed>
  <fix>3d</fix>
</trkpt>
<trkpt lat="-27.2744125" lon="151.2900659">
  <ele>343.09</ele>
  <time>2026-09-01T19:55:01Z</time>
  <course>12.62</course>
  <speed>0.0</speed>
  <fix>3d</fix>
</trkpt>
<trkpt lat="-27.2744127" lon="151.290066">
  <ele>343.08</ele>
  <time>2026-09-01T19:55:01Z</time>
  <course>14.54</course>
  <speed>0.022360679774997897</speed>
  <fix>3d</fix>
</trkpt>
<trkpt lat="-27.2744125" lon="151.2900659">
  <ele>343.09</ele>
  <time>2026-09-01T19:55:01Z</time>
  <course>12.62</course>
  <speed>0.0</speed>
  <fix>3d</fix>
</trkpt>
<trkpt lat="-27.2744127" lon="151.290066">
  <ele>343.08</ele>
  <time>2026-09-01T19:55:01Z</time>
  <course>14.54</course>
  <speed>0.022360679774997897</speed>
  <fix>3d</fix>
</trkpt>
<trkpt lat="-27.2744125" lon="151.2900659">
  <ele>343.09</ele>
  <time>2026-09-01T19:55:01Z</time>
  <course>12.62</course>
  <speed>0.0</speed>
  <fix>3d</fix>
</trkpt>
<trkpt lat="-27.2744127" lon="151.290066">
  <ele>343.08</ele>
  <time>2026-09-01T19:55:01Z</time>
  <course>14.54</course>
  <speed>0.022360679774997897</speed>
  <fix>3d</fix>
</trkpt>
<trkpt lat="-27.2744125" lon="151.2900659">
  <ele>343.09</ele>
  <time>2026-09-01T19:55:01Z</time>
  <course>12.62</course>
  <speed>0.0</speed>
  <fix>3d</fix>
</trkpt>
<trkpt lat="-27.2744127" lon="151.290066">
  <ele>343.08</ele>
  <time>2026-09-01T19:55:01Z</time>
  <course>14.54</course>
  <speed>0.022360679774997897</speed>
  <fix>3d</fix>
</trkpt>
<trkpt lat="-27.2744125" lon="151.2900659">
  <ele>343.09</ele>
  <time>2026-09-01T19:55:01Z</time>
  <course>12.62</course>
  <speed>0.0</speed>
  <fix>3d</fix>
</trkpt>
<trkpt lat="-27.2744127" lon="151.290066">
  <ele>343.08</ele>
  <time>2026-09-01T19:55:01Z</time>
  <course>14.54</course>
  <speed>0.022360679774997897</speed>
  <fix>3d</fix>
</trkpt>
<trkpt lat="-27.2744125" lon="151.2900659">
  <ele>343.09</ele>
  <time>2026-09-01T19:55:01Z</time>
  <course>12.62</course>
  <speed>0.0</speed>
  <fix>3d</fix>
</trkpt>
<trkpt lat="-27.2744127" lon="151.290066">
  <ele>343.08</ele>
  <time>2026-09-01T19:55:01Z</time>
  <course>14.54</course>
  <speed>0.022360679774997897</speed>
  <fix>3d</fix>
</trkpt>
<trkpt lat="-27.2744125" lon="151.2900659">
  <ele>343.09</ele>
  <time>2026-09-01T19:55:01Z</time>
  <course>12.62</course>
  <speed>0.0</speed>
  <fix>3d</fix>
</trkpt>
<trkpt lat="-27.2744127" lon="151.290066">
  <ele>343.08</ele>
  <time>2026-09-01T19:55:01Z</time>
  <course>14.54</course>
  <speed>0.022360679774997897</speed>
  <fix>3d</fix>
</trkpt>
<trkpt lat="-27.2744125" lon="151.2900659">
  <ele>343.09</ele>
  <time>2026-09-01T19:55:01Z</time>
  <course>12.62</course>
  <speed>0.0</speed>
  <fix>3d</fix>
</trkpt>
<trkpt lat="-27.2744127" lon="151.290066">
  <ele>343.08</ele>
  <time>2026-09-01T19:55:01Z</time>
  <course>14.54</course>
  <speed>0.022360679774997897</speed>
  <fix>3d</fix>
</trkpt>
<trkpt lat="-27.2744125" lon="151.2900659">
  <ele>343.09</ele>
  <time>2026-09-01T19:55:01Z</time>
  <course>12.62</course>
  <speed>0.0</speed>
  <fix>3d</fix>
</trkpt>
<trkpt lat="-27.2744127" lon="151.290066">
  <ele>343.09</ele>
  <time>2026-09-01T19:55:01Z</time>
  <course>14.54</course>
  <speed>0.022360679774997897</speed>
  <fix>3d</fix>
</trkpt>
<trkpt lat="-27.2744125" lon="151.2900659">
  <ele>343.09</ele>
  <time>2026-09-01T19:55:01Z</time>
  <course>12.62</course>
  <speed>0.0</speed>
  <fix>3d</fix>
</trkpt>
<trkpt lat="-27.2744127" lon="151.290066">
  <ele>343.09</ele>
  <time>2026-09-01T19:55:01Z</time>
  <course>14.53</course>
  <speed>0.022360679774997897</speed>
  <fix>3d</fix>
</trkpt>
<trkpt lat="-27.2744125" lon="151.2900659">
  <ele>343.09</ele>
  <time>2026-09-01T19:55:01Z</time>
  <course>12.62</course>
  <speed>0.0</speed>
  <fix>3d</fix>
</trkpt>
<trkpt lat="-27.2744127" lon="151.290066">
  <ele>343.09</ele>
  <time>2026-09-01T19:55:01Z</time>
  <course>14.53</course>
  <speed>0.022360679774997897</speed>
  <fix>3d</fix>
</trkpt>
<trkpt lat="-27.2744125" lon="151.2900659">
  <ele>343.09</ele>
  <time>2026-09-01T19:55:01Z</time>
  <course>12.62</course>
  <speed>0.0</speed>
  <fix>3d</fix>
</trkpt>
<trkpt lat="-27.2744127" lon="151.290066">
  <ele>343.09</ele>
  <time>2026-09-01T19:55:01Z</time>
  <course>14.53</course>
  <speed>0.022360679774997897</speed>
  <fix>3d</fix>
</trkpt>
<trkpt lat="-27.2744125" lon="151.2900659">
  <ele>343.09</ele>
  <time>2026-09-01T19:55:01Z</time>
  <course>12.62</course>
  <speed>0.0</speed>
  <fix>3d</fix>
</trkpt>
<trkpt lat="-27.2744127" lon="151.290066">
  <ele>343.09</ele>
  <time>2026-09-01T19:55:01Z</time>
  <course>14.53</course>
  <speed>0.022360679774997897</speed>
  <fix>3d</fix>
</trkpt>
<trkpt lat="-27.2744125" lon="151.2900659">
  <ele>343.09</ele>
  <time>2026-09-01T19:55:01Z</time>
  <course>12.62</course>
  <speed>0.0</speed>
  <fix>3d</fix>
</trkpt>
<trkpt lat="-27.2744127" lon="151.290066">
  <ele>343.09</ele>
  <time>2026-09-01T19:55:01Z</time>
  <course>14.53</course>
  <speed>0.022360679774997897</speed>
  <fix>3d</fix>
</trkpt>
<trkpt lat="-27.2744125" lon="151.2900659">
  <ele>343.09</ele>
  <time>2026-09-01T19:55:01Z</time>
  <course>12.62</course>
  <speed>0.0</speed>
  <fix>3d</fix>
</trkpt>
<trkpt lat="-27.2744127" lon="151.290066">
  <ele>343.1</ele>
  <time>2026-09-01T19:55:01Z</time>
  <course>14.53</course>
  <speed>0.022360679774997897</speed>
  <fix>3d</fix>
</trkpt>
<trkpt lat="-27.2744125" lon="151.2900659">
  <ele>343.09</ele>
  <time>2026-09-01T19:55:01Z</time>
  <course>12.62</course>
  <speed>0.0</speed>
  <fix>3d</fix>
</trkpt>
<trkpt lat="-27.2744127" lon="151.290066">
  <ele>343.1</ele>
  <time>2026-09-01T19:55:01Z</time>
  <course>14.53</course>
  <speed>0.022360679774997897</speed>
  <fix>3d</fix>
</trkpt>
<trkpt lat="-27.2744125" lon="151.2900659">
  <ele>343.09</ele>
  <time>2026-09-01T19:55:01Z</time>
  <course>12.62</course>
  <speed>0.0</speed>
  <fix>3d</fix>
</trkpt>
<trkpt lat="-27.2744127" lon="151.290066">
  <ele>343.1</ele>
  <time>2026-09-01T19:55:01Z</time>
  <course>14.53</course>
  <speed>0.022360679774997897</speed>
  <fix>3d</fix>
</trkpt>
<trkpt lat="-27.2744125" lon="151.2900659">
  <ele>343.09</ele>
  <time>2026-09-01T19:55:01Z</time>
  <course>12.62</course>
  <speed>0.0</speed>
  <fix>3d</fix>
</trkpt>
<trkpt lat="-27.2744127" lon="151.290066">
  <ele>343.11</ele>
  <time>2026-09-01T19:55:01Z</time>
  <course>14.53</course>
  <speed>0.022360679774997897</speed>
  <fix>3d</fix>
</trkpt>
<trkpt lat="-27.2744125" lon="151.2900659">
  <ele>343.09</ele>
  <time>2026-09-01T19:55:01Z</time>
  <course>12.62</course>
  <speed>0.0</speed>
  <fix>3d</fix>
</trkpt>
<trkpt lat="-27.2744127" lon="151.290066">
  <ele>343.11</ele>
  <time>2026-09-01T19:55:01Z</time>
  <course>14.53</course>
  <speed>0.022360679774997897</speed>
  <fix>3d</fix>
</trkpt>
<trkpt lat="-27.2744125" lon="151.2900659">
  <ele>343.09</ele>
  <time>2026-09-01T19:55:01Z</time>
  <course>12.62</course>
  <speed>0.0</speed>
  <fix>3d</fix>
</trkpt>
<trkpt lat="-27.2744127" lon="151.290066">
  <ele>343.12</ele>
  <time>2026-09-01T19:55:01Z</time>
  <course>14.53</course>
  <speed>0.022360679774997897</speed>
  <fix>3d</fix>
</trkpt>
<trkpt lat="-27.2744125" lon="151.2900659">
  <ele>343.09</ele>
  <time>2026-09-01T19:55:01Z</time>
  <course>12.62</course>
  <speed>0.0</speed>
  <fix>3d</fix>
</trkpt>
<trkpt lat="-27.2744127" lon="151.290066">
  <ele>343.12</ele>
  <time>2026-09-01T19:55:01Z</time>
  <course>14.53</course>
  <speed>0.022360679774997897</speed>
  <fix>3d</fix>
</trkpt>
<trkpt lat="-27.2744125" lon="151.2900659">
  <ele>343.09</ele>
  <time>2026-09-01T19:55:01Z</time>
  <course>12.62</course>
  <speed>0.0</speed>
  <fix>3d</fix>
</trkpt>
<trkpt lat="-27.2744127" lon="151.290066">
  <ele>343.12</ele>
  <time>2026-09-01T19:55:01Z</time>
  <course>14.53</course>
  <speed>0.022360679774997897</speed>
  <fix>3d</fix>
</trkpt>
<trkpt lat="-27.2744125" lon="151.2900659">
  <ele>343.09</ele>
  <time>2026-09-01T19:55:01Z</time>
  <course>12.62</course>
  <speed>0.0</speed>
  <fix>3d</fix>
</trkpt>
<trkpt lat="-27.2744127" lon="151.290066">
  <ele>343.13</ele>
  <time>2026-09-01T19:55:01Z</time>
  <course>14.53</course>
  <speed>0.022360679774997897</speed>
  <fix>3d</fix>
</trkpt>
<trkpt lat="-27.2744125" lon="151.2900659">
  <ele>343.09</ele>
  <time>2026-09-01T19:55:01Z</time>
  <course>12.62</course>
  <speed>0.0</speed>
  <fix>3d</fix>
</trkpt>
<trkpt lat="-27.2744127" lon="151.290066">
  <ele>343.13</ele>
  <time>2026-09-01T19:55:01Z</time>
  <course>14.53</course>
  <speed>0.022360679774997897</speed>
  <fix>3d</fix>
</trkpt>
<trkpt lat="-27.2744125" lon="151.2900659">
  <ele>343.09</ele>
  <time>2026-09-01T19:55:01Z</time>
  <course>12.62</course>
  <speed>0.0</speed>
  <fix>3d</fix>
</trkpt>
<trkpt lat="-27.2744127" lon="151.290066">
  <ele>343.13</ele>
  <time>2026-09-01T19:55:01Z</time>
  <course>14.53</course>
  <speed>0.022360679774997897</speed>
  <fix>3d</fix>
</trkpt>
<trkpt lat="-27.2744125" lon="151.2900659">
  <ele>343.09</ele>
  <time>2026-09-01T19:55:01Z</time>
  <course>12.62</course>
  <speed>0.0</speed>
  <fix>3d</fix>
</trkpt>
<trkpt lat="-27.2744127" lon="151.290066">
  <ele>343.14</ele>
  <time>2026-09-01T19:55:01Z</time>
  <course>14.53</course>
  <speed>0.022360679774997897</speed>
  <fix>3d</fix>
</trkpt>
<trkpt lat="-27.2744125" lon="151.2900659">
  <ele>343.09</ele>
  <time>2026-09-01T19:55:01Z</time>
  <course>12.62</course>
  <speed>0.0</speed>
  <fix>3d</fix>
</trkpt>
<trkpt lat="-27.2744127" lon="151.290066">
  <ele>343.14</ele>
  <time>2026-09-01T19:55:01Z</time>
  <course>14.53</course>
  <speed>0.022360679774997897</speed>
  <fix>3d</fix>
</trkpt>
<trkpt lat="-27.2744125" lon="151.2900659">
  <ele>343.09</ele>
  <time>2026-09-01T19:55:01Z</time>
  <course>12.62</course>
  <speed>0.0</speed>
  <fix>3d</fix>
</trkpt>
<trkpt lat="-27.2744127" lon="151.290066">
  <ele>343.14</ele>
  <time>2026-09-01T19:55:01Z</time>
  <course>14.53</course>
  <speed>0.022360679774997897</speed>
  <fix>3d</fix>
</trkpt>
<trkpt lat="-27.2744125" lon="151.2900659">
  <ele>343.09</ele>
  <time>2026-09-01T19:55:01Z</time>
  <course>12.62</course>
  <speed>0.0</speed>
  <fix>3d</fix>
</trkpt>
<trkpt lat="-27.2744127" lon="151.290066">
  <ele>343.15</ele>
  <time>2026-09-01T19:55:01Z</time>
  <course>14.53</course>
  <speed>0.022360679774997897</speed>
  <fix>3d</fix>
</trkpt>
<trkpt lat="-27.2744125" lon="151.2900659">
  <ele>343.09</ele>
  <time>2026-09-01T19:55:01Z</time>
  <course>12.62</course>
  <speed>0.0</speed>
  <fix>3d</fix>
</trkpt>
<trkpt lat="-27.2744127" lon="151.290066">
  <ele>343.15</ele>
  <time>2026-09-01T19:55:01Z</time>
  <course>14.53</course>
  <speed>0.022360679774997897</speed>
  <fix>3d</fix>
</trkpt>
<trkpt lat="-27.2744125" lon="151.2900659">
  <ele>343.09</ele>
  <time>2026-09-01T19:55:01Z</time>
  <course>12.62</course>
  <speed>0.0</speed>
  <fix>3d</fix>
</trkpt>
<trkpt lat="-27.2744127" lon="151.290066">
  <ele>343.15</ele>
  <time>2026-09-01T19:55:01Z</time>
  <course>14.53</course>
  <speed>0.022360679774997897</speed>
  <fix>3d</fix>
</trkpt>
<trkpt lat="-27.2744125" lon="151.2900659">
  <ele>343.09</ele>
  <time>2026-09-01T19:55:01Z</time>
  <course>12.62</course>
  <speed>0.0</speed>
  <fix>3d</fix>
</trkpt>
<trkpt lat="-27.2744127" lon="151.290066">
  <ele>343.16</ele>
  <time>2026-09-01T19:55:01Z</time>
  <course>14.53</course>
  <speed>0.022360679774997897</speed>
  <fix>3d</fix>
</trkpt>
<trkpt lat="-27.2744125" lon="151.2900659">
  <ele>343.09</ele>
  <time>2026-09-01T19:55:01Z</time>
  <course>12.62</course>
  <speed>0.0</speed>
  <fix>3d</fix>
</trkpt>
<trkpt lat="-27.2744127" lon="151.290066">
  <ele>343.16</ele>
  <time>2026-09-01T19:55:01Z</time>
  <course>14.53</course>
  <speed>0.022360679774997897</speed>
  <fix>3d</fix>
</trkpt>
<trkpt lat="-27.2744125" lon="151.2900659">
  <ele>343.09</ele>
  <time>2026-09-01T19:55:01Z</time>
  <course>12.62</course>
  <speed>0.0</speed>
  <fix>3d</fix>
</trkpt>
<trkpt lat="-27.2744127" lon="151.290066">
  <ele>343.16</ele>
  <time>2026-09-01T19:55:01Z</time>
  <course>14.53</course>
  <speed>0.022360679774997897</speed>
  <fix>3d</fix>
</trkpt>
<trkpt lat="-27.2744125" lon="151.2900659">
  <ele>343.09</ele>
  <time>2026-09-01T19:55:01Z</time>
  <course>12.62</course>
  <speed>0.0</speed>
  <fix>3d</fix>
</trkpt>
<trkpt lat="-27.2744127" lon="151.290066">
  <ele>343.16</ele>
  <time>2026-09-01T19:55:01Z</time>
  <course>14.53</course>
  <speed>0.022360679774997897</speed>
  <fix>3d</fix>
</trkpt>
<trkpt lat="-27.2744125" lon="151.2900659">
  <ele>343.09</ele>
  <time>2026-09-01T19:55:01Z</time>
  <course>12.62</course>
  <speed>0.0</speed>
  <fix>3d</fix>
</trkpt>
<trkpt lat="-27.2744127" lon="151.290066">
  <ele>343.16</ele>
  <time>2026-09-01T19:55:01Z</time>
  <course>14.53</course>
  <speed>0.022360679774997897</speed>
  <fix>3d</fix>
</trkpt>
<trkpt lat="-27.2744125" lon="151.2900659">
  <ele>343.09</ele>
  <time>2026-09-01T19:55:01Z</time>
  <course>12.62</course>
  <speed>0.0</speed>
  <fix>3d</fix>
</trkpt>
<trkpt lat="-27.2744127" lon="151.290066">
  <ele>343.16</ele>
  <time>2026-09-01T19:55:01Z</time>
  <course>14.53</course>
  <speed>0.022360679774997897</speed>
  <fix>3d</fix>
</trkpt>
<trkpt lat="-27.2744125" lon="151.2900659">
  <ele>343.09</ele>
  <time>2026-09-01T19:55:01Z</time>
  <course>12.62</course>
  <speed>0.0</speed>
  <fix>3d</fix>
</trkpt>
<trkpt lat="-27.2744127" lon="151.290066">
  <ele>343.16</ele>
  <time>2026-09-01T19:55:01Z</time>
  <course>14.53</course>
  <speed>0.022360679774997897</speed>
  <fix>3d</fix>
</trkpt>
<trkpt lat="-27.2744125" lon="151.2900659">
  <ele>343.09</ele>
  <time>2026-09-01T19:55:01Z</time>
  <course>12.62</course>
  <speed>0.0</speed>
  <fix>3d</fix>
</trkpt>
<trkpt lat="-27.2744127" lon="151.290066">
  <ele>343.16</ele>
  <time>2026-09-01T19:55:01Z</time>
  <course>14.53</course>
  <speed>0.022360679774997897</speed>
  <fix>3d</fix>
</trkpt>
<trkpt lat="-27.2744125" lon="151.2900659">
  <ele>343.09</ele>
  <time>2026-09-01T19:55:01Z</time>
  <course>12.62</course>
  <speed>0.0</speed>
  <fix>3d</fix>
</trkpt>
<trkpt lat="-27.2744127" lon="151.290066">
  <ele>343.16</ele>
  <time>2026-09-01T19:55:01Z</time>
  <course>14.53</course>
  <speed>0.022360679774997897</speed>
  <fix>3d</fix>
</trkpt>
<trkpt lat="-27.2744125" lon="151.2900659">
  <ele>343.09</ele>
  <time>2026-09-01T19:55:01Z</time>
  <course>12.62</course>
  <speed>0.0</speed>
  <fix>3d</fix>
</trkpt>
<trkpt lat="-27.2744127" lon="151.290066">
  <ele>343.16</ele>
  <time>2026-09-01T19:55:01Z</time>
  <course>14.53</course>
  <speed>0.022360679774997897</speed>
  <fix>3d</fix>
</trkpt>
<trkpt lat="-27.2744125" lon="151.2900659">
  <ele>343.09</ele>
  <time>2026-09-01T19:55:01Z</time>
  <course>12.62</course>
  <speed>0.0</speed>
  <fix>3d</fix>
</trkpt>
<trkpt lat="-27.2744127" lon="151.290066">
  <ele>343.16</ele>
  <time>2026-09-01T19:55:01Z</time>
  <course>14.53</course>
  <speed>0.022360679774997897</speed>
  <fix>3d</fix>
</trkpt>
<trkpt lat="-27.2744125" lon="151.2900659">
  <ele>343.09</ele>
  <time>2026-09-01T19:55:01Z</time>
  <course>12.62</course>
  <speed>0.0</speed>
  <fix>3d</fix>
</trkpt>
<trkpt lat="-27.2744127" lon="151.290066">
  <ele>343.16</ele>
  <time>2026-09-01T19:55:01Z</time>
  <course>14.53</course>
  <speed>0.022360679774997897</speed>
  <fix>3d</fix>
</trkpt>
<trkpt lat="-27.2744125" lon="151.2900659">
  <ele>343.09</ele>
  <time>2026-09-01T19:55:01Z</time>
  <course>12.62</course>
  <speed>0.0</speed>
  <fix>3d</fix>
</trkpt>
<trkpt lat="-27.2744127" lon="151.290066">
  <ele>343.16</ele>
  <time>2026-09-01T19:55:01Z</time>
  <course>14.53</course>
  <speed>0.022360679774997897</speed>
  <fix>3d</fix>
</trkpt>
<trkpt lat="-27.2744125" lon="151.2900659">
  <ele>343.09</ele>
  <time>2026-09-01T19:55:01Z</time>
  <course>12.62</course>
  <speed>0.0</speed>
  <fix>3d</fix>
</trkpt>
<trkpt lat="-27.2744127" lon="151.290066">
  <ele>343.17</ele>
  <time>2026-09-01T19:55:01Z</time>
  <course>14.53</course>
  <speed>0.022360679774997897</speed>
  <fix>3d</fix>
</trkpt>
<trkpt lat="-27.2744125" lon="151.2900659">
  <ele>343.09</ele>
  <time>2026-09-01T19:55:01Z</time>
  <course>12.62</course>
  <speed>0.0</speed>
  <fix>3d</fix>
</trkpt>
<trkpt lat="-27.2744127" lon="151.290066">
  <ele>343.17</ele>
  <time>2026-09-01T19:55:01Z</time>
  <course>14.53</course>
  <speed>0.022360679774997897</speed>
  <fix>3d</fix>
</trkpt>
<trkpt lat="-27.2744125" lon="151.2900659">
  <ele>343.09</ele>
  <time>2026-09-01T19:55:01Z</time>
  <course>12.62</course>
  <speed>0.0</speed>
  <fix>3d</fix>
</trkpt>
<trkpt lat="-27.2744127" lon="151.290066">
  <ele>343.17</ele>
  <time>2026-09-01T19:55:01Z</time>
  <course>14.53</course>
  <speed>0.022360679774997897</speed>
  <fix>3d</fix>
</trkpt>
<trkpt lat="-27.2744125" lon="151.2900659">
  <ele>343.09</ele>
  <time>2026-09-01T19:55:01Z</time>
  <course>12.62</course>
  <speed>0.0</speed>
  <fix>3d</fix>
</trkpt>
<trkpt lat="-27.2744127" lon="151.290066">
  <ele>343.17</ele>
  <time>2026-09-01T19:55:01Z</time>
  <course>14.53</course>
  <speed>0.022360679774997897</speed>
  <fix>3d</fix>
</trkpt>
<trkpt lat="-27.2744125" lon="151.2900659">
  <ele>343.09</ele>
  <time>2026-09-01T19:55:01Z</time>
  <course>12.62</course>
  <speed>0.0</speed>
  <fix>3d</fix>
</trkpt>
<trkpt lat="-27.2744127" lon="151.290066">
  <ele>343.18</ele>
  <time>2026-09-01T19:55:01Z</time>
  <course>14.53</course>
  <speed>0.022360679774997897</speed>
  <fix>3d</fix>
</trkpt>
<trkpt lat="-27.2744125" lon="151.2900659">
  <ele>343.09</ele>
  <time>2026-09-01T19:55:01Z</time>
  <course>12.62</course>
  <speed>0.0</speed>
  <fix>3d</fix>
</trkpt>
<trkpt lat="-27.2744127" lon="151.290066">
  <ele>343.18</ele>
  <time>2026-09-01T19:55:01Z</time>
  <course>14.53</course>
  <speed>0.022360679774997897</speed>
  <fix>3d</fix>
</trkpt>
<trkpt lat="-27.2744125" lon="151.2900659">
  <ele>343.09</ele>
  <time>2026-09-01T19:55:01Z</time>
  <course>12.62</course>
  <speed>0.0</speed>
  <fix>3d</fix>
</trkpt>
<trkpt lat="-27.2744127" lon="151.290066">
  <ele>343.18</ele>
  <time>2026-09-01T19:55:01Z</time>
  <course>14.53</course>
  <speed>0.022360679774997897</speed>
  <fix>3d</fix>
</trkpt>
<trkpt lat="-27.2744125" lon="151.2900659">
  <ele>343.09</ele>
  <time>2026-09-01T19:55:01Z</time>
  <course>12.62</course>
  <speed>0.0</speed>
  <fix>3d</fix>
</trkpt>
<trkpt lat="-27.2744127" lon="151.290066">
  <ele>343.18</ele>
  <time>2026-09-01T19:55:01Z</time>
  <course>14.53</course>
  <speed>0.022360679774997897</speed>
  <fix>3d</fix>
</trkpt>
<trkpt lat="-27.2744125" lon="151.2900659">
  <ele>343.09</ele>
  <time>2026-09-01T19:55:01Z</time>
  <course>12.62</course>
  <speed>0.0</speed>
  <fix>3d</fix>
</trkpt>
<trkpt lat="-27.2744127" lon="151.290066">
  <ele>343.18</ele>
  <time>2026-09-01T19:55:01Z</time>
  <course>14.53</course>
  <speed>0.022360679774997897</speed>
  <fix>3d</fix>
</trkpt>
<trkpt lat="-27.2744125" lon="151.2900659">
  <ele>343.09</ele>
  <time>2026-09-01T19:55:01Z</time>
  <course>12.62</course>
  <speed>0.0</speed>
  <fix>3d</fix>
</trkpt>
<trkpt lat="-27.2744127" lon="151.290066">
  <ele>343.18</ele>
  <time>2026-09-01T19:55:01Z</time>
  <course>14.53</course>
  <speed>0.022360679774997897</speed>
  <fix>3d</fix>
</trkpt>
<trkpt lat="-27.2744125" lon="151.2900659">
  <ele>343.09</ele>
  <time>2026-09-01T19:55:01Z</time>
  <course>12.62</course>
  <speed>0.0</speed>
  <fix>3d</fix>
</trkpt>
<trkpt lat="-27.2744127" lon="151.290066">
  <ele>343.18</ele>
  <time>2026-09-01T19:55:01Z</time>
  <course>14.53</course>
  <speed>0.022360679774997897</speed>
  <fix>3d</fix>
</trkpt>
<trkpt lat="-27.2744125" lon="151.2900659">
  <ele>343.09</ele>
  <time>2026-09-01T19:55:01Z</time>
  <course>12.62</course>
  <speed>0.0</speed>
  <fix>3d</fix>
</trkpt>
<trkpt lat="-27.2744127" lon="151.290066">
  <ele>343.18</ele>
  <time>2026-09-01T19:55:01Z</time>
  <course>14.53</course>
  <speed>0.022360679774997897</speed>
  <fix>3d</fix>
</trkpt>
<trkpt lat="-27.2744125" lon="151.2900659">
  <ele>343.09</ele>
  <time>2026-09-01T19:55:01Z</time>
  <course>12.62</course>
  <speed>0.0</speed>
  <fix>3d</fix>
</trkpt>
<trkpt lat="-27.2744127" lon="151.290066">
  <ele>343.19</ele>
  <time>2026-09-01T19:55:01Z</time>
  <course>14.53</course>
  <speed>0.022360679774997897</speed>
  <fix>3d</fix>
</trkpt>
<trkpt lat="-27.2744125" lon="151.2900659">
  <ele>343.09</ele>
  <time>2026-09-01T19:55:01Z</time>
  <course>12.62</course>
  <speed>0.0</speed>
  <fix>3d</fix>
</trkpt>
<trkpt lat="-27.2744127" lon="151.290066">
  <ele>343.19</ele>
  <time>2026-09-01T19:55:01Z</time>
  <course>14.52</course>
  <speed>0.022360679774997897</speed>
  <fix>3d</fix>
</trkpt>
<trkpt lat="-27.2744125" lon="151.2900659">
  <ele>343.09</ele>
  <time>2026-09-01T19:55:01Z</time>
  <course>12.62</course>
  <speed>0.0</speed>
  <fix>3d</fix>
</trkpt>
<trkpt lat="-27.2744127" lon="151.290066">
  <ele>343.19</ele>
  <time>2026-09-01T19:55:01Z</time>
  <course>14.52</course>
  <speed>0.022360679774997897</speed>
  <fix>3d</fix>
</trkpt>
<trkpt lat="-27.2744125" lon="151.2900659">
  <ele>343.09</ele>
  <time>2026-09-01T19:55:01Z</time>
  <course>12.62</course>
  <speed>0.0</speed>
  <fix>3d</fix>
</trkpt>
<trkpt lat="-27.2744127" lon="151.290066">
  <ele>343.09</ele>
  <time>2026-09-01T19:55:01Z</time>
  <course>14.52</course>
  <speed>0.022360679774997897</speed>
  <fix>3d</fix>
</trkpt>
<trkpt lat="-27.2744125" lon="151.2900659">
  <ele>343.09</ele>
  <time>2026-09-01T19:55:01Z</time>
  <course>12.62</course>
  <speed>0.0</speed>
  <fix>3d</fix>
</trkpt>
<trkpt lat="-27.2744127" lon="151.290066">
  <ele>343.09</ele>
  <time>2026-09-01T19:55:01Z</time>
  <course>14.52</course>
  <speed>0.022360679774997897</speed>
  <fix>3d</fix>
</trkpt>
<trkpt lat="-27.2744125" lon="151.2900659">
  <ele>343.09</ele>
  <time>2026-09-01T19:55:01Z</time>
  <course>12.62</course>
  <speed>0.0</speed>
  <fix>3d</fix>
</trkpt>
<trkpt lat="-27.2744127" lon="151.290066">
  <ele>343.09</ele>
  <time>2026-09-01T19:55:01Z</time>
  <course>14.52</course>
  <speed>0.022360679774997897</speed>
  <fix>3d</fix>
</trkpt>
<trkpt lat="-27.2744125" lon="151.2900659">
  <ele>343.09</ele>
  <time>2026-09-01T19:55:01Z</time>
  <course>12.62</course>
  <speed>0.0</speed>
  <fix>3d</fix>
</trkpt>
<trkpt lat="-27.2744127" lon="151.290066">
  <ele>343.09</ele>
  <time>2026-09-01T19:55:01Z</time>
  <course>14.52</course>
  <speed>0.022360679774997897</speed>
  <fix>3d</fix>
</trkpt>
<trkpt lat="-27.2744125" lon="151.2900659">
  <ele>343.09</ele>
  <time>2026-09-01T19:55:01Z</time>
  <course>12.62</course>
  <speed>0.0</speed>
  <fix>3d</fix>
</trkpt>
<trkpt lat="-27.2744127" lon="151.290066">
  <ele>343.09</ele>
  <time>2026-09-01T19:55:01Z</time>
  <course>14.52</course>
  <speed>0.022360679774997897</speed>
  <fix>3d</fix>
</trkpt>
<trkpt lat="-27.2744125" lon="151.2900659">
  <ele>343.09</ele>
  <time>2026-09-01T19:55:01Z</time>
  <course>12.62</course>
  <speed>0.0</speed>
  <fix>3d</fix>
</trkpt>
<trkpt lat="-27.2744127" lon="151.290066">
  <ele>343.08</ele>
  <time>2026-09-01T19:55:01Z</time>
  <course>14.52</course>
  <speed>0.022360679774997897</speed>
  <fix>3d</fix>
</trkpt>
<trkpt lat="-27.2744125" lon="151.2900659">
  <ele>343.09</ele>
  <time>2026-09-01T19:55:01Z</time>
  <course>12.62</course>
  <speed>0.0</speed>
  <fix>3d</fix>
</trkpt>
<trkpt lat="-27.2744127" lon="151.290066">
  <ele>343.08</ele>
  <time>2026-09-01T19:55:01Z</time>
  <course>14.52</course>
  <speed>0.022360679774997897</speed>
  <fix>3d</fix>
</trkpt>
<trkpt lat="-27.2744125" lon="151.2900659">
  <ele>343.09</ele>
  <time>2026-09-01T19:55:01Z</time>
  <course>12.62</course>
  <speed>0.0</speed>
  <fix>3d</fix>
</trkpt>
<trkpt lat="-27.2744127" lon="151.290066">
  <ele>343.08</ele>
  <time>2026-09-01T19:55:01Z</time>
  <course>14.52</course>
  <speed>0.022360679774997897</speed>
  <fix>3d</fix>
</trkpt>
<trkpt lat="-27.2744125" lon="151.2900659">
  <ele>343.09</ele>
  <time>2026-09-01T19:55:01Z</time>
  <course>12.62</course>
  <speed>0.0</speed>
  <fix>3d</fix>
</trkpt>
<trkpt lat="-27.2744127" lon="151.290066">
  <ele>343.07</ele>
  <time>2026-09-01T19:55:01Z</time>
  <course>14.52</course>
  <speed>0.022360679774997897</speed>
  <fix>3d</fix>
</trkpt>
<trkpt lat="-27.2744125" lon="151.2900659">
  <ele>343.09</ele>
  <time>2026-09-01T19:55:01Z</time>
  <course>12.62</course>
  <speed>0.0</speed>
  <fix>3d</fix>
</trkpt>
<trkpt lat="-27.2744127" lon="151.290066">
  <ele>343.07</ele>
  <time>2026-09-01T19:55:01Z</time>
  <course>14.52</course>
  <speed>0.022360679774997897</speed>
  <fix>3d</fix>
</trkpt>
<trkpt lat="-27.2744125" lon="151.2900659">
  <ele>343.09</ele>
  <time>2026-09-01T19:55:01Z</time>
  <course>12.62</course>
  <speed>0.0</speed>
  <fix>3d</fix>
</trkpt>
<trkpt lat="-27.2744127" lon="151.290066">
  <ele>343.07</ele>
  <time>2026-09-01T19:55:01Z</time>
  <course>14.52</course>
  <speed>0.022360679774997897</speed>
  <fix>3d</fix>
</trkpt>
<trkpt lat="-27.2744125" lon="151.2900659">
  <ele>343.09</ele>
  <time>2026-09-01T19:55:01Z</time>
  <course>12.62</course>
  <speed>0.0</speed>
  <fix>3d</fix>
</trkpt>
<trkpt lat="-27.2744127" lon="151.290066">
  <ele>343.06</ele>
  <time>2026-09-01T19:55:01Z</time>
  <course>14.52</course>
  <speed>0.022360679774997897</speed>
  <fix>3d</fix>
</trkpt>
<trkpt lat="-27.2744125" lon="151.2900659">
  <ele>343.09</ele>
  <time>2026-09-01T19:55:01Z</time>
  <course>12.62</course>
  <speed>0.0</speed>
  <fix>3d</fix>
</trkpt>
<trkpt lat="-27.2744127" lon="151.290066">
  <ele>343.06</ele>
  <time>2026-09-01T19:55:02Z</time>
  <course>14.52</course>
  <speed>0.022360679774997897</speed>
  <fix>3d</fix>
</trkpt>
<trkpt lat="-27.2744125" lon="151.2900659">
  <ele>343.09</ele>
  <time>2026-09-01T19:55:02Z</time>
  <course>12.62</course>
  <speed>0.0</speed>
  <fix>3d</fix>
</trkpt>
<trkpt lat="-27.2744127" lon="151.290066">
  <ele>343.05</ele>
  <time>2026-09-01T19:55:02Z</time>
  <course>14.52</course>
  <speed>0.022360679774997897</speed>
  <fix>3d</fix>
</trkpt>
<trkpt lat="-27.2744125" lon="151.2900659">
  <ele>343.09</ele>
  <time>2026-09-01T19:55:02Z</time>
  <course>12.62</course>
  <speed>0.0</speed>
  <fix>3d</fix>
</trkpt>
<trkpt lat="-27.2744127" lon="151.290066">
  <ele>343.05</ele>
  <time>2026-09-01T19:55:02Z</time>
  <course>14.52</course>
  <speed>0.022360679774997897</speed>
  <fix>3d</fix>
</trkpt>
<trkpt lat="-27.2744125" lon="151.2900659">
  <ele>343.09</ele>
  <time>2026-09-01T19:55:02Z</time>
  <course>12.62</course>
  <speed>0.0</speed>
  <fix>3d</fix>
</trkpt>
<trkpt lat="-27.2744127" lon="151.290066">
  <ele>343.05</ele>
  <time>2026-09-01T19:55:02Z</time>
  <course>14.52</course>
  <speed>0.022360679774997897</speed>
  <fix>3d</fix>
</trkpt>
<trkpt lat="-27.2744125" lon="151.2900659">
  <ele>343.09</ele>
  <time>2026-09-01T19:55:02Z</time>
  <course>12.62</course>
  <speed>0.0</speed>
  <fix>3d</fix>
</trkpt>
<trkpt lat="-27.2744127" lon="151.290066">
  <ele>343.05</ele>
  <time>2026-09-01T19:55:02Z</time>
  <course>14.52</course>
  <speed>0.022360679774997897</speed>
  <fix>3d</fix>
</trkpt>
<trkpt lat="-27.2744125" lon="151.2900659">
  <ele>343.09</ele>
  <time>2026-09-01T19:55:02Z</time>
  <course>12.62</course>
  <speed>0.0</speed>
  <fix>3d</fix>
</trkpt>
<trkpt lat="-27.2744127" lon="151.290066">
  <ele>343.05</ele>
  <time>2026-09-01T19:55:02Z</time>
  <course>14.52</course>
  <speed>0.022360679774997897</speed>
  <fix>3d</fix>
</trkpt>
<trkpt lat="-27.2744125" lon="151.2900659">
  <ele>343.09</ele>
  <time>2026-09-01T19:55:02Z</time>
  <course>12.62</course>
  <speed>0.0</speed>
  <fix>3d</fix>
</trkpt>
<trkpt lat="-27.2744127" lon="151.290066">
  <ele>343.05</ele>
  <time>2026-09-01T19:55:02Z</time>
  <course>14.52</course>
  <speed>0.022360679774997897</speed>
  <fix>3d</fix>
</trkpt>
<trkpt lat="-27.2744125" lon="151.2900659">
  <ele>343.09</ele>
  <time>2026-09-01T19:55:02Z</time>
  <course>12.62</course>
  <speed>0.0</speed>
  <fix>3d</fix>
</trkpt>
<trkpt lat="-27.2744127" lon="151.290066">
  <ele>343.05</ele>
  <time>2026-09-01T19:55:02Z</time>
  <course>14.52</course>
  <speed>0.022360679774997897</speed>
  <fix>3d</fix>
</trkpt>
<trkpt lat="-27.2744125" lon="151.2900659">
  <ele>343.09</ele>
  <time>2026-09-01T19:55:02Z</time>
  <course>12.62</course>
  <speed>0.0</speed>
  <fix>3d</fix>
</trkpt>
<trkpt lat="-27.2744127" lon="151.290066">
  <ele>343.04</ele>
  <time>2026-09-01T19:55:02Z</time>
  <course>14.52</course>
  <speed>0.022360679774997897</speed>
  <fix>3d</fix>
</trkpt>
<trkpt lat="-27.2744125" lon="151.2900659">
  <ele>343.09</ele>
  <time>2026-09-01T19:55:02Z</time>
  <course>12.62</course>
  <speed>0.0</speed>
  <fix>3d</fix>
</trkpt>
<trkpt lat="-27.2744127" lon="151.290066">
  <ele>343.04</ele>
  <time>2026-09-01T19:55:02Z</time>
  <course>14.52</course>
  <speed>0.022360679774997897</speed>
  <fix>3d</fix>
</trkpt>
<trkpt lat="-27.2744125" lon="151.2900659">
  <ele>343.09</ele>
  <time>2026-09-01T19:55:02Z</time>
  <course>12.62</course>
  <speed>0.0</speed>
  <fix>3d</fix>
</trkpt>
<trkpt lat="-27.2744127" lon="151.290066">
  <ele>343.04</ele>
  <time>2026-09-01T19:55:02Z</time>
  <course>14.52</course>
  <speed>0.022360679774997897</speed>
  <fix>3d</fix>
</trkpt>
<trkpt lat="-27.2744125" lon="151.2900659">
  <ele>343.09</ele>
  <time>2026-09-01T19:55:02Z</time>
  <course>12.62</course>
  <speed>0.0</speed>
  <fix>3d</fix>
</trkpt>
<trkpt lat="-27.2744127" lon="151.290066">
  <ele>343.04</ele>
  <time>2026-09-01T19:55:02Z</time>
  <course>14.52</course>
  <speed>0.022360679774997897</speed>
  <fix>3d</fix>
</trkpt>
<trkpt lat="-27.2744125" lon="151.2900659">
  <ele>343.09</ele>
  <time>2026-09-01T19:55:02Z</time>
  <course>12.62</course>
  <speed>0.0</speed>
  <fix>3d</fix>
</trkpt>
<trkpt lat="-27.2744127" lon="151.290066">
  <ele>343.03</ele>
  <time>2026-09-01T19:55:02Z</time>
  <course>14.52</course>
  <speed>0.022360679774997897</speed>
  <fix>3d</fix>
</trkpt>
<trkpt lat="-27.2744125" lon="151.2900659">
  <ele>343.09</ele>
  <time>2026-09-01T19:55:02Z</time>
  <course>12.62</course>
  <speed>0.0</speed>
  <fix>3d</fix>
</trkpt>
<trkpt lat="-27.2744127" lon="151.290066">
  <ele>343.03</ele>
  <time>2026-09-01T19:55:02Z</time>
  <course>14.52</course>
  <speed>0.022360679774997897</speed>
  <fix>3d</fix>
</trkpt>
<trkpt lat="-27.2744125" lon="151.2900659">
  <ele>343.09</ele>
  <time>2026-09-01T19:55:02Z</time>
  <course>12.62</course>
  <speed>0.0</speed>
  <fix>3d</fix>
</trkpt>
<trkpt lat="-27.2744127" lon="151.290066">
  <ele>343.02</ele>
  <time>2026-09-01T19:55:02Z</time>
  <course>14.52</course>
  <speed>0.022360679774997897</speed>
  <fix>3d</fix>
</trkpt>
<trkpt lat="-27.2744125" lon="151.2900659">
  <ele>343.09</ele>
  <time>2026-09-01T19:55:02Z</time>
  <course>12.62</course>
  <speed>0.0</speed>
  <fix>3d</fix>
</trkpt>
<trkpt lat="-27.2744127" lon="151.290066">
  <ele>343.02</ele>
  <time>2026-09-01T19:55:02Z</time>
  <course>14.52</course>
  <speed>0.022360679774997897</speed>
  <fix>3d</fix>
</trkpt>
<trkpt lat="-27.2744125" lon="151.2900659">
  <ele>343.09</ele>
  <time>2026-09-01T19:55:02Z</time>
  <course>12.62</course>
  <speed>0.0</speed>
  <fix>3d</fix>
</trkpt>
<trkpt lat="-27.2744127" lon="151.290066">
  <ele>343.01</ele>
  <time>2026-09-01T19:55:02Z</time>
  <course>14.52</course>
  <speed>0.022360679774997897</speed>
  <fix>3d</fix>
</trkpt>
<trkpt lat="-27.2744125" lon="151.2900659">
  <ele>343.09</ele>
  <time>2026-09-01T19:55:02Z</time>
  <course>12.62</course>
  <speed>0.0</speed>
  <fix>3d</fix>
</trkpt>
<trkpt lat="-27.2744127" lon="151.290066">
  <ele>343.01</ele>
  <time>2026-09-01T19:55:02Z</time>
  <course>14.52</course>
  <speed>0.022360679774997897</speed>
  <fix>3d</fix>
</trkpt>
<trkpt lat="-27.2744125" lon="151.2900659">
  <ele>343.09</ele>
  <time>2026-09-01T19:55:02Z</time>
  <course>12.62</course>
  <speed>0.0</speed>
  <fix>3d</fix>
</trkpt>
<trkpt lat="-27.2744127" lon="151.290066">
  <ele>343.01</ele>
  <time>2026-09-01T19:55:02Z</time>
  <course>14.52</course>
  <speed>0.022360679774997897</speed>
  <fix>3d</fix>
</trkpt>
<trkpt lat="-27.2744125" lon="151.2900659">
  <ele>343.09</ele>
  <time>2026-09-01T19:55:02Z</time>
  <course>12.62</course>
  <speed>0.0</speed>
  <fix>3d</fix>
</trkpt>
<trkpt lat="-27.2744127" lon="151.290066">
  <ele>343.01</ele>
  <time>2026-09-01T19:55:02Z</time>
  <course>14.52</course>
  <speed>0.022360679774997897</speed>
  <fix>3d</fix>
</trkpt>
<trkpt lat="-27.2744125" lon="151.2900659">
  <ele>343.09</ele>
  <time>2026-09-01T19:55:02Z</time>
  <course>12.62</course>
  <speed>0.0</speed>
  <fix>3d</fix>
</trkpt>
<trkpt lat="-27.2744127" lon="151.290066">
  <ele>343.0</ele>
  <time>2026-09-01T19:55:02Z</time>
  <course>14.52</course>
  <speed>0.022360679774997897</speed>
  <fix>3d</fix>
</trkpt>
<trkpt lat="-27.2744125" lon="151.2900659">
  <ele>343.09</ele>
  <time>2026-09-01T19:55:02Z</time>
  <course>12.62</course>
  <speed>0.0</speed>
  <fix>3d</fix>
</trkpt>
<trkpt lat="-27.2744127" lon="151.290066">
  <ele>343.0</ele>
  <time>2026-09-01T19:55:02Z</time>
  <course>14.52</course>
  <speed>0.022360679774997897</speed>
  <fix>3d</fix>
</trkpt>
<trkpt lat="-27.2744125" lon="151.2900659">
  <ele>343.09</ele>
  <time>2026-09-01T19:55:02Z</time>
  <course>12.62</course>
  <speed>0.0</speed>
  <fix>3d</fix>
</trkpt>
<trkpt lat="-27.2744127" lon="151.290066">
  <ele>343.0</ele>
  <time>2026-09-01T19:55:02Z</time>
  <course>14.52</course>
  <speed>0.022360679774997897</speed>
  <fix>3d</fix>
</trkpt>
<trkpt lat="-27.2744125" lon="151.2900659">
  <ele>343.09</ele>
  <time>2026-09-01T19:55:02Z</time>
  <course>12.62</course>
  <speed>0.0</speed>
  <fix>3d</fix>
</trkpt>
<trkpt lat="-27.2744127" lon="151.290066">
  <ele>342.99</ele>
  <time>2026-09-01T19:55:02Z</time>
  <course>14.52</course>
  <speed>0.022360679774997897</speed>
  <fix>3d</fix>
</trkpt>
<trkpt lat="-27.2744125" lon="151.2900659">
  <ele>343.09</ele>
  <time>2026-09-01T19:55:02Z</time>
  <course>12.62</course>
  <speed>0.0</speed>
  <fix>3d</fix>
</trkpt>
<trkpt lat="-27.2744127" lon="151.290066">
  <ele>342.99</ele>
  <time>2026-09-01T19:55:02Z</time>
  <course>14.52</course>
  <speed>0.022360679774997897</speed>
  <fix>3d</fix>
</trkpt>
<trkpt lat="-27.2744125" lon="151.2900659">
  <ele>343.09</ele>
  <time>2026-09-01T19:55:02Z</time>
  <course>12.62</course>
  <speed>0.0</speed>
  <fix>3d</fix>
</trkpt>
<trkpt lat="-27.2744127" lon="151.290066">
  <ele>342.99</ele>
  <time>2026-09-01T19:55:02Z</time>
  <course>14.52</course>
  <speed>0.022360679774997897</speed>
  <fix>3d</fix>
</trkpt>
<trkpt lat="-27.2744125" lon="151.2900659">
  <ele>343.09</ele>
  <time>2026-09-01T19:55:02Z</time>
  <course>12.62</course>
  <speed>0.0</speed>
  <fix>3d</fix>
</trkpt>
<trkpt lat="-27.2744127" lon="151.290066">
  <ele>342.98</ele>
  <time>2026-09-01T19:55:02Z</time>
  <course>14.52</course>
  <speed>0.022360679774997897</speed>
  <fix>3d</fix>
</trkpt>
<trkpt lat="-27.2744125" lon="151.2900659">
  <ele>343.09</ele>
  <time>2026-09-01T19:55:02Z</time>
  <course>12.62</course>
  <speed>0.0</speed>
  <fix>3d</fix>
</trkpt>
<trkpt lat="-27.2744127" lon="151.290066">
  <ele>342.98</ele>
  <time>2026-09-01T19:55:02Z</time>
  <course>14.52</course>
  <speed>0.022360679774997897</speed>
  <fix>3d</fix>
</trkpt>
<trkpt lat="-27.2744125" lon="151.2900659">
  <ele>343.09</ele>
  <time>2026-09-01T19:55:02Z</time>
  <course>12.62</course>
  <speed>0.0</speed>
  <fix>3d</fix>
</trkpt>
<trkpt lat="-27.2744127" lon="151.290066">
  <ele>342.98</ele>
  <time>2026-09-01T19:55:02Z</time>
  <course>14.52</course>
  <speed>0.022360679774997897</speed>
  <fix>3d</fix>
</trkpt>
<trkpt lat="-27.2744125" lon="151.2900659">
  <ele>343.09</ele>
  <time>2026-09-01T19:55:02Z</time>
  <course>12.62</course>
  <speed>0.0</speed>
  <fix>3d</fix>
</trkpt>
<trkpt lat="-27.2744127" lon="151.290066">
  <ele>342.97</ele>
  <time>2026-09-01T19:55:02Z</time>
  <course>14.52</course>
  <speed>0.022360679774997897</speed>
  <fix>3d</fix>
</trkpt>
<trkpt lat="-27.2744125" lon="151.2900659">
  <ele>343.09</ele>
  <time>2026-09-01T19:55:02Z</time>
  <course>12.62</course>
  <speed>0.0</speed>
  <fix>3d</fix>
</trkpt>
<trkpt lat="-27.2744127" lon="151.290066">
  <ele>342.97</ele>
  <time>2026-09-01T19:55:02Z</time>
  <course>14.52</course>
  <speed>0.022360679774997897</speed>
  <fix>3d</fix>
</trkpt>
<trkpt lat="-27.2744125" lon="151.2900659">
  <ele>343.09</ele>
  <time>2026-09-01T19:55:02Z</time>
  <course>12.62</course>
  <speed>0.0</speed>
  <fix>3d</fix>
</trkpt>
<trkpt lat="-27.2744127" lon="151.290066">
  <ele>342.96</ele>
  <time>2026-09-01T19:55:02Z</time>
  <course>14.52</course>
  <speed>0.022360679774997897</speed>
  <fix>3d</fix>
</trkpt>
<trkpt lat="-27.2744125" lon="151.2900659">
  <ele>343.09</ele>
  <time>2026-09-01T19:55:02Z</time>
  <course>12.62</course>
  <speed>0.0</speed>
  <fix>3d</fix>
</trkpt>
<trkpt lat="-27.2744127" lon="151.290066">
  <ele>342.96</ele>
  <time>2026-09-01T19:55:02Z</time>
  <course>14.52</course>
  <speed>0.022360679774997897</speed>
  <fix>3d</fix>
</trkpt>
<trkpt lat="-27.2744125" lon="151.2900659">
  <ele>343.09</ele>
  <time>2026-09-01T19:55:02Z</time>
  <course>12.62</course>
  <speed>0.0</speed>
  <fix>3d</fix>
</trkpt>
<trkpt lat="-27.2744127" lon="151.290066">
  <ele>342.96</ele>
  <time>2026-09-01T19:55:02Z</time>
  <course>14.52</course>
  <speed>0.022360679774997897</speed>
  <fix>3d</fix>
</trkpt>
<trkpt lat="-27.2744125" lon="151.2900659">
  <ele>343.09</ele>
  <time>2026-09-01T19:55:02Z</time>
  <course>12.62</course>
  <speed>0.0</speed>
  <fix>3d</fix>
</trkpt>
<trkpt lat="-27.2744127" lon="151.290066">
  <ele>342.95</ele>
  <time>2026-09-01T19:55:02Z</time>
  <course>14.52</course>
  <speed>0.022360679774997897</speed>
  <fix>3d</fix>
</trkpt>
<trkpt lat="-27.2744125" lon="151.2900659">
  <ele>343.09</ele>
  <time>2026-09-01T19:55:02Z</time>
  <course>12.62</course>
  <speed>0.0</speed>
  <fix>3d</fix>
</trkpt>
<trkpt lat="-27.2744127" lon="151.290066">
  <ele>342.95</ele>
  <time>2026-09-01T19:55:02Z</time>
  <course>14.52</course>
  <speed>0.022360679774997897</speed>
  <fix>3d</fix>
</trkpt>
<trkpt lat="-27.2744125" lon="151.2900659">
  <ele>343.09</ele>
  <time>2026-09-01T19:55:02Z</time>
  <course>12.62</course>
  <speed>0.0</speed>
  <fix>3d</fix>
</trkpt>
<trkpt lat="-27.2744127" lon="151.290066">
  <ele>342.95</ele>
  <time>2026-09-01T19:55:02Z</time>
  <course>14.52</course>
  <speed>0.022360679774997897</speed>
  <fix>3d</fix>
</trkpt>
<trkpt lat="-27.2744125" lon="151.2900659">
  <ele>343.09</ele>
  <time>2026-09-01T19:55:02Z</time>
  <course>12.62</course>
  <speed>0.0</speed>
  <fix>3d</fix>
</trkpt>
<trkpt lat="-27.2744127" lon="151.290066">
  <ele>342.94</ele>
  <time>2026-09-01T19:55:02Z</time>
  <course>14.52</course>
  <speed>0.022360679774997897</speed>
  <fix>3d</fix>
</trkpt>
<trkpt lat="-27.2744125" lon="151.2900659">
  <ele>343.09</ele>
  <time>2026-09-01T19:55:02Z</time>
  <course>12.62</course>
  <speed>0.0</speed>
  <fix>3d</fix>
</trkpt>
<trkpt lat="-27.2744127" lon="151.290066">
  <ele>342.94</ele>
  <time>2026-09-01T19:55:02Z</time>
  <course>14.52</course>
  <speed>0.022360679774997897</speed>
  <fix>3d</fix>
</trkpt>
<trkpt lat="-27.2744125" lon="151.2900659">
  <ele>343.09</ele>
  <time>2026-09-01T19:55:02Z</time>
  <course>12.62</course>
  <speed>0.0</speed>
  <fix>3d</fix>
</trkpt>
<trkpt lat="-27.2744127" lon="151.290066">
  <ele>342.94</ele>
  <time>2026-09-01T19:55:02Z</time>
  <course>14.52</course>
  <speed>0.022360679774997897</speed>
  <fix>3d</fix>
</trkpt>
<trkpt lat="-27.2744125" lon="151.2900659">
  <ele>343.09</ele>
  <time>2026-09-01T19:55:02Z</time>
  <course>12.62</course>
  <speed>0.0</speed>
  <fix>3d</fix>
</trkpt>
<trkpt lat="-27.2744127" lon="151.290066">
  <ele>342.94</ele>
  <time>2026-09-01T19:55:02Z</time>
  <course>14.52</course>
  <speed>0.022360679774997897</speed>
  <fix>3d</fix>
</trkpt>
<trkpt lat="-27.2744125" lon="151.2900659">
  <ele>343.09</ele>
  <time>2026-09-01T19:55:02Z</time>
  <course>12.62</course>
  <speed>0.0</speed>
  <fix>3d</fix>
</trkpt>
<trkpt lat="-27.2744127" lon="151.290066">
  <ele>342.93</ele>
  <time>2026-09-01T19:55:02Z</time>
  <course>14.52</course>
  <speed>0.022360679774997897</speed>
  <fix>3d</fix>
</trkpt>
<trkpt lat="-27.2744125" lon="151.2900659">
  <ele>343.09</ele>
  <time>2026-09-01T19:55:02Z</time>
  <course>12.62</course>
  <speed>0.0</speed>
  <fix>3d</fix>
</trkpt>
<trkpt lat="-27.2744127" lon="151.290066">
  <ele>342.93</ele>
  <time>2026-09-01T19:55:02Z</time>
  <course>14.52</course>
  <speed>0.022360679774997897</speed>
  <fix>3d</fix>
</trkpt>
<trkpt lat="-27.2744125" lon="151.2900659">
  <ele>343.09</ele>
  <time>2026-09-01T19:55:02Z</time>
  <course>12.62</course>
  <speed>0.0</speed>
  <fix>3d</fix>
</trkpt>
<trkpt lat="-27.2744127" lon="151.290066">
  <ele>342.93</ele>
  <time>2026-09-01T19:55:02Z</time>
  <course>14.52</course>
  <speed>0.022360679774997897</speed>
  <fix>3d</fix>
</trkpt>
<trkpt lat="-27.2744125" lon="151.2900659">
  <ele>343.09</ele>
  <time>2026-09-01T19:55:02Z</time>
  <course>12.62</course>
  <speed>0.0</speed>
  <fix>3d</fix>
</trkpt>
<trkpt lat="-27.2744127" lon="151.290066">
  <ele>342.92</ele>
  <time>2026-09-01T19:55:02Z</time>
  <course>14.52</course>
  <speed>0.022360679774997897</speed>
  <fix>3d</fix>
</trkpt>
<trkpt lat="-27.2744125" lon="151.2900659">
  <ele>343.09</ele>
  <time>2026-09-01T19:55:02Z</time>
  <course>12.62</course>
  <speed>0.0</speed>
  <fix>3d</fix>
</trkpt>
<trkpt lat="-27.2744127" lon="151.290066">
  <ele>342.92</ele>
  <time>2026-09-01T19:55:02Z</time>
  <course>14.52</course>
  <speed>0.022360679774997897</speed>
  <fix>3d</fix>
</trkpt>
<trkpt lat="-27.2744125" lon="151.2900659">
  <ele>343.09</ele>
  <time>2026-09-01T19:55:02Z</time>
  <course>12.62</course>
  <speed>0.0</speed>
  <fix>3d</fix>
</trkpt>
<trkpt lat="-27.2744127" lon="151.290066">
  <ele>342.92</ele>
  <time>2026-09-01T19:55:02Z</time>
  <course>14.52</course>
  <speed>0.022360679774997897</speed>
  <fix>3d</fix>
</trkpt>
<trkpt lat="-27.2744125" lon="151.2900659">
  <ele>343.09</ele>
  <time>2026-09-01T19:55:02Z</time>
  <course>12.62</course>
  <speed>0.0</speed>
  <fix>3d</fix>
</trkpt>
<trkpt lat="-27.2744127" lon="151.290066">
  <ele>342.91</ele>
  <time>2026-09-01T19:55:02Z</time>
  <course>14.52</course>
  <speed>0.022360679774997897</speed>
  <fix>3d</fix>
</trkpt>
<trkpt lat="-27.2744125" lon="151.2900659">
  <ele>343.09</ele>
  <time>2026-09-01T19:55:02Z</time>
  <course>12.62</course>
  <speed>0.0</speed>
  <fix>3d</fix>
</trkpt>
<trkpt lat="-27.2744127" lon="151.290066">
  <ele>343.08</ele>
  <time>2026-09-01T19:55:02Z</time>
  <course>14.52</course>
  <speed>0.022360679774997897</speed>
  <fix>3d</fix>
</trkpt>
<trkpt lat="-27.2744125" lon="151.2900659">
  <ele>343.09</ele>
  <time>2026-09-01T19:55:02Z</time>
  <course>12.62</course>
  <speed>0.0</speed>
  <fix>3d</fix>
</trkpt>
<trkpt lat="-27.2744127" lon="151.290066">
  <ele>343.08</ele>
  <time>2026-09-01T19:55:02Z</time>
  <course>14.52</course>
  <speed>0.022360679774997897</speed>
  <fix>3d</fix>
</trkpt>
<trkpt lat="-27.2744125" lon="151.2900659">
  <ele>343.09</ele>
  <time>2026-09-01T19:55:02Z</time>
  <course>12.62</course>
  <speed>0.0</speed>
  <fix>3d</fix>
</trkpt>
<trkpt lat="-27.2744127" lon="151.290066">
  <ele>343.08</ele>
  <time>2026-09-01T19:55:02Z</time>
  <course>14.52</course>
  <speed>0.022360679774997897</speed>
  <fix>3d</fix>
</trkpt>
<trkpt lat="-27.2744125" lon="151.2900659">
  <ele>343.09</ele>
  <time>2026-09-01T19:55:02Z</time>
  <course>12.62</course>
  <speed>0.0</speed>
  <fix>3d</fix>
</trkpt>
<trkpt lat="-27.2744127" lon="151.290066">
  <ele>343.08</ele>
  <time>2026-09-01T19:55:02Z</time>
  <course>14.52</course>
  <speed>0.022360679774997897</speed>
  <fix>3d</fix>
</trkpt>
<trkpt lat="-27.2744125" lon="151.2900659">
  <ele>343.09</ele>
  <time>2026-09-01T19:55:02Z</time>
  <course>12.62</course>
  <speed>0.0</speed>
  <fix>3d</fix>
</trkpt>
<trkpt lat="-27.2744127" lon="151.290066">
  <ele>343.07</ele>
  <time>2026-09-01T19:55:02Z</time>
  <course>14.52</course>
  <speed>0.022360679774997897</speed>
  <fix>3d</fix>
</trkpt>
<trkpt lat="-27.2744125" lon="151.2900659">
  <ele>343.09</ele>
  <time>2026-09-01T19:55:02Z</time>
  <course>12.62</course>
  <speed>0.0</speed>
  <fix>3d</fix>
</trkpt>
<trkpt lat="-27.2744127" lon="151.290066">
  <ele>343.07</ele>
  <time>2026-09-01T19:55:02Z</time>
  <course>14.52</course>
  <speed>0.022360679774997897</speed>
  <fix>3d</fix>
</trkpt>
<trkpt lat="-27.2744125" lon="151.2900659">
  <ele>343.09</ele>
  <time>2026-09-01T19:55:02Z</time>
  <course>12.62</course>
  <speed>0.0</speed>
  <fix>3d</fix>
</trkpt>
<trkpt lat="-27.2744127" lon="151.290066">
  <ele>343.07</ele>
  <time>2026-09-01T19:55:02Z</time>
  <course>14.52</course>
  <speed>0.022360679774997897</speed>
  <fix>3d</fix>
</trkpt>
<trkpt lat="-27.2744125" lon="151.2900659">
  <ele>343.09</ele>
  <time>2026-09-01T19:55:02Z</time>
  <course>12.62</course>
  <speed>0.0</speed>
  <fix>3d</fix>
</trkpt>
<trkpt lat="-27.2744127" lon="151.290066">
  <ele>343.07</ele>
  <time>2026-09-01T19:55:02Z</time>
  <course>14.52</course>
  <speed>0.022360679774997897</speed>
  <fix>3d</fix>
</trkpt>
<trkpt lat="-27.2744125" lon="151.2900659">
  <ele>343.09</ele>
  <time>2026-09-01T19:55:02Z</time>
  <course>12.62</course>
  <speed>0.0</speed>
  <fix>3d</fix>
</trkpt>
<trkpt lat="-27.2744127" lon="151.290066">
  <ele>343.08</ele>
  <time>2026-09-01T19:55:02Z</time>
  <course>14.52</course>
  <speed>0.022360679774997897</speed>
  <fix>3d</fix>
</trkpt>
<trkpt lat="-27.2744125" lon="151.2900659">
  <ele>343.09</ele>
  <time>2026-09-01T19:55:02Z</time>
  <course>12.62</course>
  <speed>0.0</speed>
  <fix>3d</fix>
</trkpt>
<trkpt lat="-27.2744127" lon="151.290066">
  <ele>343.08</ele>
  <time>2026-09-01T19:55:02Z</time>
  <course>14.52</course>
  <speed>0.022360679774997897</speed>
  <fix>3d</fix>
</trkpt>
<trkpt lat="-27.2744125" lon="151.2900659">
  <ele>343.09</ele>
  <time>2026-09-01T19:55:02Z</time>
  <course>12.62</course>
  <speed>0.0</speed>
  <fix>3d</fix>
</trkpt>
<trkpt lat="-27.2744127" lon="151.290066">
  <ele>343.08</ele>
  <time>2026-09-01T19:55:02Z</time>
  <course>14.52</course>
  <speed>0.022360679774997897</speed>
  <fix>3d</fix>
</trkpt>
<trkpt lat="-27.2744125" lon="151.2900659">
  <ele>343.09</ele>
  <time>2026-09-01T19:55:02Z</time>
  <course>12.62</course>
  <speed>0.0</speed>
  <fix>3d</fix>
</trkpt>
<trkpt lat="-27.2744127" lon="151.290066">
  <ele>343.08</ele>
  <time>2026-09-01T19:55:02Z</time>
  <course>14.52</course>
  <speed>0.022360679774997897</speed>
  <fix>3d</fix>
</trkpt>
<trkpt lat="-27.2744125" lon="151.2900659">
  <ele>343.09</ele>
  <time>2026-09-01T19:55:02Z</time>
  <course>12.62</course>
  <speed>0.0</speed>
  <fix>3d</fix>
</trkpt>
<trkpt lat="-27.2744127" lon="151.290066">
  <ele>343.08</ele>
  <time>2026-09-01T19:55:02Z</time>
  <course>14.52</course>
  <speed>0.022360679774997897</speed>
  <fix>3d</fix>
</trkpt>
<trkpt lat="-27.2744125" lon="151.2900659">
  <ele>343.09</ele>
  <time>2026-09-01T19:55:02Z</time>
  <course>12.62</course>
  <speed>0.0</speed>
  <fix>3d</fix>
</trkpt>
<trkpt lat="-27.2744127" lon="151.290066">
  <ele>343.08</ele>
  <time>2026-09-01T19:55:02Z</time>
  <course>14.52</course>
  <speed>0.022360679774997897</speed>
  <fix>3d</fix>
</trkpt>
<trkpt lat="-27.2744125" lon="151.2900659">
  <ele>343.09</ele>
  <time>2026-09-01T19:55:02Z</time>
  <course>12.62</course>
  <speed>0.0</speed>
  <fix>3d</fix>
</trkpt>
<trkpt lat="-27.2744127" lon="151.290066">
  <ele>343.08</ele>
  <time>2026-09-01T19:55:02Z</time>
  <course>14.52</course>
  <speed>0.022360679774997897</speed>
  <fix>3d</fix>
</trkpt>
<trkpt lat="-27.2744125" lon="151.2900659">
  <ele>343.09</ele>
  <time>2026-09-01T19:55:02Z</time>
  <course>12.62</course>
  <speed>0.0</speed>
  <fix>3d</fix>
</trkpt>
<trkpt lat="-27.2744127" lon="151.290066">
  <ele>343.07</ele>
  <time>2026-09-01T19:55:02Z</time>
  <course>14.52</course>
  <speed>0.022360679774997897</speed>
  <fix>3d</fix>
</trkpt>
<trkpt lat="-27.2744125" lon="151.2900659">
  <ele>343.09</ele>
  <time>2026-09-01T19:55:02Z</time>
  <course>12.62</course>
  <speed>0.0</speed>
  <fix>3d</fix>
</trkpt>
<trkpt lat="-27.2744127" lon="151.290066">
  <ele>343.07</ele>
  <time>2026-09-01T19:55:02Z</time>
  <course>14.52</course>
  <speed>0.022360679774997897</speed>
  <fix>3d</fix>
</trkpt>
<trkpt lat="-27.2744125" lon="151.2900659">
  <ele>343.09</ele>
  <time>2026-09-01T19:55:02Z</time>
  <course>12.62</course>
  <speed>0.0</speed>
  <fix>3d</fix>
</trkpt>
<trkpt lat="-27.2744127" lon="151.290066">
  <ele>343.07</ele>
  <time>2026-09-01T19:55:02Z</time>
  <course>14.52</course>
  <speed>0.022360679774997897</speed>
  <fix>3d</fix>
</trkpt>
<trkpt lat="-27.2744125" lon="151.2900659">
  <ele>343.09</ele>
  <time>2026-09-01T19:55:02Z</time>
  <course>12.62</course>
  <speed>0.0</speed>
  <fix>3d</fix>
</trkpt>
<trkpt lat="-27.2744127" lon="151.290066">
  <ele>343.07</ele>
  <time>2026-09-01T19:55:02Z</time>
  <course>14.52</course>
  <speed>0.022360679774997897</speed>
  <fix>3d</fix>
</trkpt>
<trkpt lat="-27.2744125" lon="151.2900659">
  <ele>343.09</ele>
  <time>2026-09-01T19:55:02Z</time>
  <course>12.62</course>
  <speed>0.0</speed>
  <fix>3d</fix>
</trkpt>
<trkpt lat="-27.2744127" lon="151.290066">
  <ele>343.07</ele>
  <time>2026-09-01T19:55:02Z</time>
  <course>14.52</course>
  <speed>0.022360679774997897</speed>
  <fix>3d</fix>
</trkpt>
<trkpt lat="-27.2744125" lon="151.2900659">
  <ele>343.09</ele>
  <time>2026-09-01T19:55:02Z</time>
  <course>12.62</course>
  <speed>0.0</speed>
  <fix>3d</fix>
</trkpt>
<trkpt lat="-27.2744127" lon="151.290066">
  <ele>343.07</ele>
  <time>2026-09-01T19:55:02Z</time>
  <course>14.52</course>
  <speed>0.022360679774997897</speed>
  <fix>3d</fix>
</trkpt>
<trkpt lat="-27.2744125" lon="151.2900659">
  <ele>343.09</ele>
  <time>2026-09-01T19:55:02Z</time>
  <course>12.62</course>
  <speed>0.0</speed>
  <fix>3d</fix>
</trkpt>
<trkpt lat="-27.2744127" lon="151.290066">
  <ele>343.07</ele>
  <time>2026-09-01T19:55:02Z</time>
  <course>14.52</course>
  <speed>0.022360679774997897</speed>
  <fix>3d</fix>
</trkpt>
<trkpt lat="-27.2744125" lon="151.2900659">
  <ele>343.09</ele>
  <time>2026-09-01T19:55:02Z</time>
  <course>12.62</course>
  <speed>0.0</speed>
  <fix>3d</fix>
</trkpt>
<trkpt lat="-27.2744127" lon="151.290066">
  <ele>343.07</ele>
  <time>2026-09-01T19:55:02Z</time>
  <course>14.52</course>
  <speed>0.022360679774997897</speed>
  <fix>3d</fix>
</trkpt>
<trkpt lat="-27.2744125" lon="151.2900659">
  <ele>343.09</ele>
  <time>2026-09-01T19:55:02Z</time>
  <course>12.62</course>
  <speed>0.0</speed>
  <fix>3d</fix>
</trkpt>
<trkpt lat="-27.2744127" lon="151.290066">
  <ele>343.07</ele>
  <time>2026-09-01T19:55:02Z</time>
  <course>14.52</course>
  <speed>0.022360679774997897</speed>
  <fix>3d</fix>
</trkpt>
<trkpt lat="-27.2744125" lon="151.2900659">
  <ele>343.09</ele>
  <time>2026-09-01T19:55:02Z</time>
  <course>12.62</course>
  <speed>0.0</speed>
  <fix>3d</fix>
</trkpt>
<trkpt lat="-27.2744127" lon="151.290066">
  <ele>343.07</ele>
  <time>2026-09-01T19:55:02Z</time>
  <course>14.52</course>
  <speed>0.022360679774997897</speed>
  <fix>3d</fix>
</trkpt>
<trkpt lat="-27.2744125" lon="151.2900659">
  <ele>343.09</ele>
  <time>2026-09-01T19:55:02Z</time>
  <course>12.62</course>
  <speed>0.0</speed>
  <fix>3d</fix>
</trkpt>
<trkpt lat="-27.2744127" lon="151.290066">
  <ele>343.07</ele>
  <time>2026-09-01T19:55:02Z</time>
  <course>14.52</course>
  <speed>0.022360679774997897</speed>
  <fix>3d</fix>
</trkpt>
<trkpt lat="-27.2744125" lon="151.2900659">
  <ele>343.09</ele>
  <time>2026-09-01T19:55:02Z</time>
  <course>12.62</course>
  <speed>0.0</speed>
  <fix>3d</fix>
</trkpt>
<trkpt lat="-27.2744127" lon="151.290066">
  <ele>343.07</ele>
  <time>2026-09-01T19:55:02Z</time>
  <course>14.52</course>
  <speed>0.022360679774997897</speed>
  <fix>3d</fix>
</trkpt>
<trkpt lat="-27.2744125" lon="151.2900659">
  <ele>343.09</ele>
  <time>2026-09-01T19:55:02Z</time>
  <course>12.62</course>
  <speed>0.0</speed>
  <fix>3d</fix>
</trkpt>
<trkpt lat="-27.2744127" lon="151.290066">
  <ele>343.07</ele>
  <time>2026-09-01T19:55:02Z</time>
  <course>14.52</course>
  <speed>0.022360679774997897</speed>
  <fix>3d</fix>
</trkpt>
<trkpt lat="-27.2744125" lon="151.2900659">
  <ele>343.09</ele>
  <time>2026-09-01T19:55:02Z</time>
  <course>12.62</course>
  <speed>0.0</speed>
  <fix>3d</fix>
</trkpt>
<trkpt lat="-27.2744127" lon="151.290066">
  <ele>343.07</ele>
  <time>2026-09-01T19:55:02Z</time>
  <course>14.52</course>
  <speed>0.022360679774997897</speed>
  <fix>3d</fix>
</trkpt>
<trkpt lat="-27.2744125" lon="151.2900659">
  <ele>343.09</ele>
  <time>2026-09-01T19:55:02Z</time>
  <course>12.62</course>
  <speed>0.0</speed>
  <fix>3d</fix>
</trkpt>
<trkpt lat="-27.2744127" lon="151.290066">
  <ele>343.07</ele>
  <time>2026-09-01T19:55:02Z</time>
  <course>14.52</course>
  <speed>0.022360679774997897</speed>
  <fix>3d</fix>
</trkpt>
<trkpt lat="-27.2744125" lon="151.2900659">
  <ele>343.09</ele>
  <time>2026-09-01T19:55:02Z</time>
  <course>12.62</course>
  <speed>0.0</speed>
  <fix>3d</fix>
</trkpt>
<trkpt lat="-27.2744127" lon="151.290066">
  <ele>343.07</ele>
  <time>2026-09-01T19:55:02Z</time>
  <course>14.52</course>
  <speed>0.022360679774997897</speed>
  <fix>3d</fix>
</trkpt>
<trkpt lat="-27.2744125" lon="151.2900659">
  <ele>343.09</ele>
  <time>2026-09-01T19:55:02Z</time>
  <course>12.62</course>
  <speed>0.0</speed>
  <fix>3d</fix>
</trkpt>
<trkpt lat="-27.2744127" lon="151.290066">
  <ele>343.07</ele>
  <time>2026-09-01T19:55:02Z</time>
  <course>14.52</course>
  <speed>0.022360679774997897</speed>
  <fix>3d</fix>
</trkpt>
<trkpt lat="-27.2744125" lon="151.2900659">
  <ele>343.09</ele>
  <time>2026-09-01T19:55:02Z</time>
  <course>12.62</course>
  <speed>0.0</speed>
  <fix>3d</fix>
</trkpt>
<trkpt lat="-27.2744127" lon="151.290066">
  <ele>343.07</ele>
  <time>2026-09-01T19:55:02Z</time>
  <course>14.52</course>
  <speed>0.022360679774997897</speed>
  <fix>3d</fix>
</trkpt>
<trkpt lat="-27.2744125" lon="151.2900659">
  <ele>343.09</ele>
  <time>2026-09-01T19:55:02Z</time>
  <course>12.62</course>
  <speed>0.0</speed>
  <fix>3d</fix>
</trkpt>
<trkpt lat="-27.2744127" lon="151.290066">
  <ele>343.07</ele>
  <time>2026-09-01T19:55:02Z</time>
  <course>14.52</course>
  <speed>0.022360679774997897</speed>
  <fix>3d</fix>
</trkpt>
<trkpt lat="-27.2744125" lon="151.2900659">
  <ele>343.09</ele>
  <time>2026-09-01T19:55:02Z</time>
  <course>12.62</course>
  <speed>0.0</speed>
  <fix>3d</fix>
</trkpt>
<trkpt lat="-27.2744127" lon="151.290066">
  <ele>343.07</ele>
  <time>2026-09-01T19:55:02Z</time>
  <course>14.52</course>
  <speed>0.022360679774997897</speed>
  <fix>3d</fix>
</trkpt>
<trkpt lat="-27.2744125" lon="151.2900659">
  <ele>343.09</ele>
  <time>2026-09-01T19:55:02Z</time>
  <course>12.62</course>
  <speed>0.0</speed>
  <fix>3d</fix>
</trkpt>
<trkpt lat="-27.2744127" lon="151.290066">
  <ele>343.07</ele>
  <time>2026-09-01T19:55:02Z</time>
  <course>14.52</course>
  <speed>0.022360679774997897</speed>
  <fix>3d</fix>
</trkpt>
<trkpt lat="-27.2744125" lon="151.2900659">
  <ele>343.09</ele>
  <time>2026-09-01T19:55:02Z</time>
  <course>12.62</course>
  <speed>0.0</speed>
  <fix>3d</fix>
</trkpt>
<trkpt lat="-27.2744127" lon="151.290066">
  <ele>343.07</ele>
  <time>2026-09-01T19:55:02Z</time>
  <course>14.52</course>
  <speed>0.022360679774997897</speed>
  <fix>3d</fix>
</trkpt>
<trkpt lat="-27.2744125" lon="151.2900659">
  <ele>343.09</ele>
  <time>2026-09-01T19:55:02Z</time>
  <course>12.62</course>
  <speed>0.0</speed>
  <fix>3d</fix>
</trkpt>
<trkpt lat="-27.2744127" lon="151.290066">
  <ele>343.07</ele>
  <time>2026-09-01T19:55:02Z</time>
  <course>14.52</course>
  <speed>0.022360679774997897</speed>
  <fix>3d</fix>
</trkpt>
<trkpt lat="-27.2744125" lon="151.2900659">
  <ele>343.09</ele>
  <time>2026-09-01T19:55:02Z</time>
  <course>12.62</course>
  <speed>0.0</speed>
  <fix>3d</fix>
</trkpt>
<trkpt lat="-27.2744127" lon="151.290066">
  <ele>343.07</ele>
  <time>2026-09-01T19:55:02Z</time>
  <course>14.52</course>
  <speed>0.022360679774997897</speed>
  <fix>3d</fix>
</trkpt>
<trkpt lat="-27.2744125" lon="151.2900659">
  <ele>343.09</ele>
  <time>2026-09-01T19:55:02Z</time>
  <course>12.62</course>
  <speed>0.0</speed>
  <fix>3d</fix>
</trkpt>
<trkpt lat="-27.2744127" lon="151.290066">
  <ele>343.07</ele>
  <time>2026-09-01T19:55:02Z</time>
  <course>14.52</course>
  <speed>0.022360679774997897</speed>
  <fix>3d</fix>
</trkpt>
<trkpt lat="-27.2744125" lon="151.2900659">
  <ele>343.09</ele>
  <time>2026-09-01T19:55:02Z</time>
  <course>12.62</course>
  <speed>0.0</speed>
  <fix>3d</fix>
</trkpt>
<trkpt lat="-27.2744127" lon="151.290066">
  <ele>343.07</ele>
  <time>2026-09-01T19:55:02Z</time>
  <course>14.52</course>
  <speed>0.022360679774997897</speed>
  <fix>3d</fix>
</trkpt>
<trkpt lat="-27.2744125" lon="151.2900659">
  <ele>343.09</ele>
  <time>2026-09-01T19:55:02Z</time>
  <course>12.62</course>
  <speed>0.0</speed>
  <fix>3d</fix>
</trkpt>
<trkpt lat="-27.2744127" lon="151.290066">
  <ele>343.07</ele>
  <time>2026-09-01T19:55:02Z</time>
  <course>14.52</course>
  <speed>0.022360679774997897</speed>
  <fix>3d</fix>
</trkpt>
<trkpt lat="-27.2744125" lon="151.2900659">
  <ele>343.09</ele>
  <time>2026-09-01T19:55:02Z</time>
  <course>12.62</course>
  <speed>0.0</speed>
  <fix>3d</fix>
</trkpt>
<trkpt lat="-27.2744127" lon="151.290066">
  <ele>343.08</ele>
  <time>2026-09-01T19:55:02Z</time>
  <course>14.52</course>
  <speed>0.022360679774997897</speed>
  <fix>3d</fix>
</trkpt>
<trkpt lat="-27.2744125" lon="151.2900659">
  <ele>343.09</ele>
  <time>2026-09-01T19:55:02Z</time>
  <course>12.62</course>
  <speed>0.0</speed>
  <fix>3d</fix>
</trkpt>
<trkpt lat="-27.2744127" lon="151.290066">
  <ele>343.08</ele>
  <time>2026-09-01T19:55:02Z</time>
  <course>14.52</course>
  <speed>0.022360679774997897</speed>
  <fix>3d</fix>
</trkpt>
<trkpt lat="-27.2744125" lon="151.2900659">
  <ele>343.09</ele>
  <time>2026-09-01T19:55:02Z</time>
  <course>12.62</course>
  <speed>0.0</speed>
  <fix>3d</fix>
</trkpt>
<trkpt lat="-27.2744127" lon="151.290066">
  <ele>343.08</ele>
  <time>2026-09-01T19:55:02Z</time>
  <course>14.52</course>
  <speed>0.022360679774997897</speed>
  <fix>3d</fix>
</trkpt>
<trkpt lat="-27.2744125" lon="151.2900659">
  <ele>343.09</ele>
  <time>2026-09-01T19:55:02Z</time>
  <course>12.62</course>
  <speed>0.0</speed>
  <fix>3d</fix>
</trkpt>
<trkpt lat="-27.2744127" lon="151.290066">
  <ele>343.08</ele>
  <time>2026-09-01T19:55:02Z</time>
  <course>14.52</course>
  <speed>0.022360679774997897</speed>
  <fix>3d</fix>
</trkpt>
<trkpt lat="-27.2744125" lon="151.2900659">
  <ele>343.09</ele>
  <time>2026-09-01T19:55:02Z</time>
  <course>12.62</course>
  <speed>0.0</speed>
  <fix>3d</fix>
</trkpt>
<trkpt lat="-27.2744127" lon="151.290066">
  <ele>343.08</ele>
  <time>2026-09-01T19:55:02Z</time>
  <course>14.52</course>
  <speed>0.022360679774997897</speed>
  <fix>3d</fix>
</trkpt>
<trkpt lat="-27.2744125" lon="151.2900659">
  <ele>343.09</ele>
  <time>2026-09-01T19:55:02Z</time>
  <course>12.62</course>
  <speed>0.0</speed>
  <fix>3d</fix>
</trkpt>
<trkpt lat="-27.2744127" lon="151.290066">
  <ele>343.08</ele>
  <time>2026-09-01T19:55:02Z</time>
  <course>14.52</course>
  <speed>0.022360679774997897</speed>
  <fix>3d</fix>
</trkpt>
<trkpt lat="-27.2744125" lon="151.2900659">
  <ele>343.09</ele>
  <time>2026-09-01T19:55:02Z</time>
  <course>12.62</course>
  <speed>0.0</speed>
  <fix>3d</fix>
</trkpt>
<trkpt lat="-27.2744127" lon="151.290066">
  <ele>343.08</ele>
  <time>2026-09-01T19:55:02Z</time>
  <course>14.52</course>
  <speed>0.022360679774997897</speed>
  <fix>3d</fix>
</trkpt>
<trkpt lat="-27.2744125" lon="151.2900659">
  <ele>343.09</ele>
  <time>2026-09-01T19:55:02Z</time>
  <course>12.62</course>
  <speed>0.0</speed>
  <fix>3d</fix>
</trkpt>
<trkpt lat="-27.2744127" lon="151.290066">
  <ele>343.08</ele>
  <time>2026-09-01T19:55:02Z</time>
  <course>14.52</course>
  <speed>0.022360679774997897</speed>
  <fix>3d</fix>
</trkpt>
<trkpt lat="-27.2744125" lon="151.2900659">
  <ele>343.09</ele>
  <time>2026-09-01T19:55:02Z</time>
  <course>12.62</course>
  <speed>0.0</speed>
  <fix>3d</fix>
</trkpt>
<trkpt lat="-27.2744127" lon="151.290066">
  <ele>343.08</ele>
  <time>2026-09-01T19:55:02Z</time>
  <course>14.52</course>
  <speed>0.022360679774997897</speed>
  <fix>3d</fix>
</trkpt>
<trkpt lat="-27.2744125" lon="151.2900659">
  <ele>343.09</ele>
  <time>2026-09-01T19:55:02Z</time>
  <course>12.62</course>
  <speed>0.0</speed>
  <fix>3d</fix>
</trkpt>
<trkpt lat="-27.2744127" lon="151.290066">
  <ele>343.07</ele>
  <time>2026-09-01T19:55:02Z</time>
  <course>14.52</course>
  <speed>0.022360679774997897</speed>
  <fix>3d</fix>
</trkpt>
<trkpt lat="-27.2744125" lon="151.2900659">
  <ele>343.09</ele>
  <time>2026-09-01T19:55:02Z</time>
  <course>12.62</course>
  <speed>0.0</speed>
  <fix>3d</fix>
</trkpt>
<trkpt lat="-27.2744127" lon="151.290066">
  <ele>343.07</ele>
  <time>2026-09-01T19:55:02Z</time>
  <course>14.52</course>
  <speed>0.022360679774997897</speed>
  <fix>3d</fix>
</trkpt>
<trkpt lat="-27.2744125" lon="151.2900659">
  <ele>343.09</ele>
  <time>2026-09-01T19:55:02Z</time>
  <course>12.62</course>
  <speed>0.0</speed>
  <fix>3d</fix>
</trkpt>
<trkpt lat="-27.2744127" lon="151.290066">
  <ele>343.07</ele>
  <time>2026-09-01T19:55:02Z</time>
  <course>14.52</course>
  <speed>0.022360679774997897</speed>
  <fix>3d</fix>
</trkpt>
<trkpt lat="-27.2744125" lon="151.2900659">
  <ele>343.09</ele>
  <time>2026-09-01T19:55:02Z</time>
  <course>12.62</course>
  <speed>0.0</speed>
  <fix>3d</fix>
</trkpt>
<trkpt lat="-27.2744127" lon="151.290066">
  <ele>343.08</ele>
  <time>2026-09-01T19:55:02Z</time>
  <course>14.52</course>
  <speed>0.022360679774997897</speed>
  <fix>3d</fix>
</trkpt>
<trkpt lat="-27.2744125" lon="151.2900659">
  <ele>343.09</ele>
  <time>2026-09-01T19:55:02Z</time>
  <course>12.62</course>
  <speed>0.0</speed>
  <fix>3d</fix>
</trkpt>
<trkpt lat="-27.2744127" lon="151.290066">
  <ele>343.08</ele>
  <time>2026-09-01T19:55:02Z</time>
  <course>14.52</course>
  <speed>0.022360679774997897</speed>
  <fix>3d</fix>
</trkpt>
<trkpt lat="-27.2744125" lon="151.2900659">
  <ele>343.09</ele>
  <time>2026-09-01T19:55:02Z</time>
  <course>12.62</course>
  <speed>0.0</speed>
  <fix>3d</fix>
</trkpt>
<trkpt lat="-27.2744127" lon="151.290066">
  <ele>343.08</ele>
  <time>2026-09-01T19:55:02Z</time>
  <course>14.52</course>
  <speed>0.022360679774997897</speed>
  <fix>3d</fix>
</trkpt>
<trkpt lat="-27.2744125" lon="151.2900659">
  <ele>343.09</ele>
  <time>2026-09-01T19:55:02Z</time>
  <course>12.62</course>
  <speed>0.0</speed>
  <fix>3d</fix>
</trkpt>
<trkpt lat="-27.2744127" lon="151.290066">
  <ele>343.08</ele>
  <time>2026-09-01T19:55:02Z</time>
  <course>14.52</course>
  <speed>0.022360679774997897</speed>
  <fix>3d</fix>
</trkpt>
<trkpt lat="-27.2744125" lon="151.2900659">
  <ele>343.09</ele>
  <time>2026-09-01T19:55:02Z</time>
  <course>12.62</course>
  <speed>0.0</speed>
  <fix>3d</fix>
</trkpt>
<trkpt lat="-27.2744127" lon="151.290066">
  <ele>343.08</ele>
  <time>2026-09-01T19:55:02Z</time>
  <course>14.52</course>
  <speed>0.022360679774997897</speed>
  <fix>3d</fix>
</trkpt>
<trkpt lat="-27.2744125" lon="151.2900659">
  <ele>343.09</ele>
  <time>2026-09-01T19:55:02Z</time>
  <course>12.62</course>
  <speed>0.0</speed>
  <fix>3d</fix>
</trkpt>
<trkpt lat="-27.2744127" lon="151.290066">
  <ele>343.08</ele>
  <time>2026-09-01T19:55:02Z</time>
  <course>14.52</course>
  <speed>0.022360679774997897</speed>
  <fix>3d</fix>
</trkpt>
<trkpt lat="-27.2744125" lon="151.2900659">
  <ele>343.09</ele>
  <time>2026-09-01T19:55:02Z</time>
  <course>12.62</course>
  <speed>0.0</speed>
  <fix>3d</fix>
</trkpt>
<trkpt lat="-27.2744127" lon="151.290066">
  <ele>343.08</ele>
  <time>2026-09-01T19:55:02Z</time>
  <course>14.52</course>
  <speed>0.022360679774997897</speed>
  <fix>3d</fix>
</trkpt>
<trkpt lat="-27.2744125" lon="151.2900659">
  <ele>343.09</ele>
  <time>2026-09-01T19:55:02Z</time>
  <course>12.62</course>
  <speed>0.0</speed>
  <fix>3d</fix>
</trkpt>
<trkpt lat="-27.2744127" lon="151.290066">
  <ele>343.08</ele>
  <time>2026-09-01T19:55:02Z</time>
  <course>14.52</course>
  <speed>0.022360679774997897</speed>
  <fix>3d</fix>
</trkpt>
<trkpt lat="-27.2744125" lon="151.2900659">
  <ele>343.09</ele>
  <time>2026-09-01T19:55:02Z</time>
  <course>12.62</course>
  <speed>0.0</speed>
  <fix>3d</fix>
</trkpt>
<trkpt lat="-27.2744127" lon="151.290066">
  <ele>343.08</ele>
  <time>2026-09-01T19:55:02Z</time>
  <course>14.52</course>
  <speed>0.022360679774997897</speed>
  <fix>3d</fix>
</trkpt>
<trkpt lat="-27.2744125" lon="151.2900659">
  <ele>343.09</ele>
  <time>2026-09-01T19:55:02Z</time>
  <course>12.62</course>
  <speed>0.0</speed>
  <fix>3d</fix>
</trkpt>
<trkpt lat="-27.2744127" lon="151.290066">
  <ele>343.09</ele>
  <time>2026-09-01T19:55:02Z</time>
  <course>14.52</course>
  <speed>0.022360679774997897</speed>
  <fix>3d</fix>
</trkpt>
<trkpt lat="-27.2744125" lon="151.2900659">
  <ele>343.09</ele>
  <time>2026-09-01T19:55:02Z</time>
  <course>12.62</course>
  <speed>0.0</speed>
  <fix>3d</fix>
</trkpt>
<trkpt lat="-27.2744127" lon="151.290066">
  <ele>343.09</ele>
  <time>2026-09-01T19:55:02Z</time>
  <course>14.52</course>
  <speed>0.022360679774997897</speed>
  <fix>3d</fix>
</trkpt>
<trkpt lat="-27.2744125" lon="151.2900659">
  <ele>343.09</ele>
  <time>2026-09-01T19:55:02Z</time>
  <course>12.62</course>
  <speed>0.0</speed>
  <fix>3d</fix>
</trkpt>
<trkpt lat="-27.2744127" lon="151.290066">
  <ele>343.09</ele>
  <time>2026-09-01T19:55:02Z</time>
  <course>14.52</course>
  <speed>0.022360679774997897</speed>
  <fix>3d</fix>
</trkpt>
<trkpt lat="-27.2744125" lon="151.2900659">
  <ele>343.09</ele>
  <time>2026-09-01T19:55:02Z</time>
  <course>12.62</course>
  <speed>0.0</speed>
  <fix>3d</fix>
</trkpt>
<trkpt lat="-27.2744127" lon="151.290066">
  <ele>343.09</ele>
  <time>2026-09-01T19:55:02Z</time>
  <course>14.52</course>
  <speed>0.022360679774997897</speed>
  <fix>3d</fix>
</trkpt>
<trkpt lat="-27.2744125" lon="151.2900659">
  <ele>343.09</ele>
  <time>2026-09-01T19:55:02Z</time>
  <course>12.62</course>
  <speed>0.0</speed>
  <fix>3d</fix>
</trkpt>
<trkpt lat="-27.2744127" lon="151.290066">
  <ele>343.09</ele>
  <time>2026-09-01T19:55:02Z</time>
  <course>14.52</course>
  <speed>0.022360679774997897</speed>
  <fix>3d</fix>
</trkpt>
<trkpt lat="-27.2744125" lon="151.2900659">
  <ele>343.09</ele>
  <time>2026-09-01T19:55:02Z</time>
  <course>12.62</course>
  <speed>0.0</speed>
  <fix>3d</fix>
</trkpt>
<trkpt lat="-27.2744127" lon="151.290066">
  <ele>343.09</ele>
  <time>2026-09-01T19:55:02Z</time>
  <course>14.52</course>
  <speed>0.022360679774997897</speed>
  <fix>3d</fix>
</trkpt>
<trkpt lat="-27.2744125" lon="151.2900659">
  <ele>343.09</ele>
  <time>2026-09-01T19:55:02Z</time>
  <course>12.62</course>
  <speed>0.0</speed>
  <fix>3d</fix>
</trkpt>
<trkpt lat="-27.2744127" lon="151.290066">
  <ele>343.1</ele>
  <time>2026-09-01T19:55:02Z</time>
  <course>14.52</course>
  <speed>0.022360679774997897</speed>
  <fix>3d</fix>
</trkpt>
<trkpt lat="-27.2744125" lon="151.2900659">
  <ele>343.09</ele>
  <time>2026-09-01T19:55:02Z</time>
  <course>12.62</course>
  <speed>0.0</speed>
  <fix>3d</fix>
</trkpt>
<trkpt lat="-27.2744127" lon="151.290066">
  <ele>343.1</ele>
  <time>2026-09-01T19:55:02Z</time>
  <course>14.52</course>
  <speed>0.022360679774997897</speed>
  <fix>3d</fix>
</trkpt>
<trkpt lat="-27.2744125" lon="151.2900659">
  <ele>343.09</ele>
  <time>2026-09-01T19:55:02Z</time>
  <course>12.62</course>
  <speed>0.0</speed>
  <fix>3d</fix>
</trkpt>
<trkpt lat="-27.2744127" lon="151.290066">
  <ele>343.1</ele>
  <time>2026-09-01T19:55:02Z</time>
  <course>14.52</course>
  <speed>0.022360679774997897</speed>
  <fix>3d</fix>
</trkpt>
<trkpt lat="-27.2744125" lon="151.2900659">
  <ele>343.09</ele>
  <time>2026-09-01T19:55:02Z</time>
  <course>12.62</course>
  <speed>0.0</speed>
  <fix>3d</fix>
</trkpt>
<trkpt lat="-27.2744127" lon="151.290066">
  <ele>343.1</ele>
  <time>2026-09-01T19:55:02Z</time>
  <course>14.52</course>
  <speed>0.022360679774997897</speed>
  <fix>3d</fix>
</trkpt>
<trkpt lat="-27.2744125" lon="151.2900659">
  <ele>343.09</ele>
  <time>2026-09-01T19:55:02Z</time>
  <course>12.62</course>
  <speed>0.0</speed>
  <fix>3d</fix>
</trkpt>
<trkpt lat="-27.2744127" lon="151.290066">
  <ele>343.1</ele>
  <time>2026-09-01T19:55:02Z</time>
  <course>14.52</course>
  <speed>0.022360679774997897</speed>
  <fix>3d</fix>
</trkpt>
<trkpt lat="-27.2744125" lon="151.2900659">
  <ele>343.09</ele>
  <time>2026-09-01T19:55:02Z</time>
  <course>12.62</course>
  <speed>0.0</speed>
  <fix>3d</fix>
</trkpt>
<trkpt lat="-27.2744127" lon="151.290066">
  <ele>343.1</ele>
  <time>2026-09-01T19:55:02Z</time>
  <course>14.52</course>
  <speed>0.022360679774997897</speed>
  <fix>3d</fix>
</trkpt>
<trkpt lat="-27.2744125" lon="151.2900659">
  <ele>343.09</ele>
  <time>2026-09-01T19:55:02Z</time>
  <course>12.62</course>
  <speed>0.0</speed>
  <fix>3d</fix>
</trkpt>
<trkpt lat="-27.2744127" lon="151.290066">
  <ele>343.1</ele>
  <time>2026-09-01T19:55:02Z</time>
  <course>14.52</course>
  <speed>0.022360679774997897</speed>
  <fix>3d</fix>
</trkpt>
<trkpt lat="-27.2744125" lon="151.2900659">
  <ele>343.09</ele>
  <time>2026-09-01T19:55:02Z</time>
  <course>12.62</course>
  <speed>0.0</speed>
  <fix>3d</fix>
</trkpt>
<trkpt lat="-27.2744127" lon="151.290066">
  <ele>343.1</ele>
  <time>2026-09-01T19:55:02Z</time>
  <course>14.52</course>
  <speed>0.022360679774997897</speed>
  <fix>3d</fix>
</trkpt>
<trkpt lat="-27.2744125" lon="151.2900659">
  <ele>343.09</ele>
  <time>2026-09-01T19:55:02Z</time>
  <course>12.62</course>
  <speed>0.0</speed>
  <fix>3d</fix>
</trkpt>
<trkpt lat="-27.2744127" lon="151.290066">
  <ele>343.1</ele>
  <time>2026-09-01T19:55:02Z</time>
  <course>14.52</course>
  <speed>0.022360679774997897</speed>
  <fix>3d</fix>
</trkpt>
<trkpt lat="-27.2744125" lon="151.2900659">
  <ele>343.09</ele>
  <time>2026-09-01T19:55:02Z</time>
  <course>12.62</course>
  <speed>0.0</speed>
  <fix>3d</fix>
</trkpt>
<trkpt lat="-27.2744127" lon="151.290066">
  <ele>343.1</ele>
  <time>2026-09-01T19:55:02Z</time>
  <course>14.52</course>
  <speed>0.022360679774997897</speed>
  <fix>3d</fix>
</trkpt>
<trkpt lat="-27.2744125" lon="151.2900659">
  <ele>343.09</ele>
  <time>2026-09-01T19:55:02Z</time>
  <course>12.62</course>
  <speed>0.0</speed>
  <fix>3d</fix>
</trkpt>
<trkpt lat="-27.2744127" lon="151.290066">
  <ele>343.1</ele>
  <time>2026-09-01T19:55:02Z</time>
  <course>14.52</course>
  <speed>0.022360679774997897</speed>
  <fix>3d</fix>
</trkpt>
<trkpt lat="-27.2744125" lon="151.2900659">
  <ele>343.09</ele>
  <time>2026-09-01T19:55:02Z</time>
  <course>12.62</course>
  <speed>0.0</speed>
  <fix>3d</fix>
</trkpt>
<trkpt lat="-27.2744127" lon="151.290066">
  <ele>343.11</ele>
  <time>2026-09-01T19:55:02Z</time>
  <course>14.52</course>
  <speed>0.022360679774997897</speed>
  <fix>3d</fix>
</trkpt>
<trkpt lat="-27.2744125" lon="151.2900659">
  <ele>343.09</ele>
  <time>2026-09-01T19:55:02Z</time>
  <course>12.62</course>
  <speed>0.0</speed>
  <fix>3d</fix>
</trkpt>
<trkpt lat="-27.2744127" lon="151.290066">
  <ele>343.11</ele>
  <time>2026-09-01T19:55:02Z</time>
  <course>14.52</course>
  <speed>0.022360679774997897</speed>
  <fix>3d</fix>
</trkpt>
<trkpt lat="-27.2744125" lon="151.2900659">
  <ele>343.09</ele>
  <time>2026-09-01T19:55:02Z</time>
  <course>12.62</course>
  <speed>0.0</speed>
  <fix>3d</fix>
</trkpt>
<trkpt lat="-27.2744127" lon="151.290066">
  <ele>343.11</ele>
  <time>2026-09-01T19:55:02Z</time>
  <course>14.52</course>
  <speed>0.022360679774997897</speed>
  <fix>3d</fix>
</trkpt>
<trkpt lat="-27.2744125" lon="151.2900659">
  <ele>343.09</ele>
  <time>2026-09-01T19:55:02Z</time>
  <course>12.62</course>
  <speed>0.0</speed>
  <fix>3d</fix>
</trkpt>
<trkpt lat="-27.2744127" lon="151.290066">
  <ele>343.11</ele>
  <time>2026-09-01T19:55:02Z</time>
  <course>14.52</course>
  <speed>0.022360679774997897</speed>
  <fix>3d</fix>
</trkpt>
<trkpt lat="-27.2744125" lon="151.2900659">
  <ele>343.09</ele>
  <time>2026-09-01T19:55:02Z</time>
  <course>12.62</course>
  <speed>0.0</speed>
  <fix>3d</fix>
</trkpt>
<trkpt lat="-27.2744127" lon="151.290066">
  <ele>343.11</ele>
  <time>2026-09-01T19:55:02Z</time>
  <course>14.52</course>
  <speed>0.022360679774997897</speed>
  <fix>3d</fix>
</trkpt>
<trkpt lat="-27.2744125" lon="151.2900659">
  <ele>343.09</ele>
  <time>2026-09-01T19:55:02Z</time>
  <course>12.62</course>
  <speed>0.0</speed>
  <fix>3d</fix>
</trkpt>
<trkpt lat="-27.2744127" lon="151.290066">
  <ele>343.12</ele>
  <time>2026-09-01T19:55:02Z</time>
  <course>14.52</course>
  <speed>0.022360679774997897</speed>
  <fix>3d</fix>
</trkpt>
<trkpt lat="-27.2744125" lon="151.2900659">
  <ele>343.09</ele>
  <time>2026-09-01T19:55:02Z</time>
  <course>12.62</course>
  <speed>0.0</speed>
  <fix>3d</fix>
</trkpt>
<trkpt lat="-27.2744127" lon="151.290066">
  <ele>343.12</ele>
  <time>2026-09-01T19:55:02Z</time>
  <course>14.52</course>
  <speed>0.022360679774997897</speed>
  <fix>3d</fix>
</trkpt>
<trkpt lat="-27.2744125" lon="151.2900659">
  <ele>343.09</ele>
  <time>2026-09-01T19:55:02Z</time>
  <course>12.62</course>
  <speed>0.0</speed>
  <fix>3d</fix>
</trkpt>
<trkpt lat="-27.2744127" lon="151.290066">
  <ele>343.12</ele>
  <time>2026-09-01T19:55:02Z</time>
  <course>14.52</course>
  <speed>0.022360679774997897</speed>
  <fix>3d</fix>
</trkpt>
<trkpt lat="-27.2744125" lon="151.2900659">
  <ele>343.09</ele>
  <time>2026-09-01T19:55:02Z</time>
  <course>12.62</course>
  <speed>0.0</speed>
  <fix>3d</fix>
</trkpt>
<trkpt lat="-27.2744127" lon="151.290066">
  <ele>343.12</ele>
  <time>2026-09-01T19:55:02Z</time>
  <course>14.52</course>
  <speed>0.022360679774997897</speed>
  <fix>3d</fix>
</trkpt>
<trkpt lat="-27.2744125" lon="151.2900659">
  <ele>343.09</ele>
  <time>2026-09-01T19:55:02Z</time>
  <course>12.62</course>
  <speed>0.0</speed>
  <fix>3d</fix>
</trkpt>
<trkpt lat="-27.2744127" lon="151.290066">
  <ele>343.12</ele>
  <time>2026-09-01T19:55:02Z</time>
  <course>14.52</course>
  <speed>0.022360679774997897</speed>
  <fix>3d</fix>
</trkpt>
<trkpt lat="-27.2744125" lon="151.2900659">
  <ele>343.09</ele>
  <time>2026-09-01T19:55:02Z</time>
  <course>12.62</course>
  <speed>0.0</speed>
  <fix>3d</fix>
</trkpt>
<trkpt lat="-27.2744127" lon="151.290066">
  <ele>343.12</ele>
  <time>2026-09-01T19:55:02Z</time>
  <course>14.52</course>
  <speed>0.022360679774997897</speed>
  <fix>3d</fix>
</trkpt>
<trkpt lat="-27.2744125" lon="151.2900659">
  <ele>343.09</ele>
  <time>2026-09-01T19:55:02Z</time>
  <course>12.62</course>
  <speed>0.0</speed>
  <fix>3d</fix>
</trkpt>
<trkpt lat="-27.2744127" lon="151.290066">
  <ele>343.12</ele>
  <time>2026-09-01T19:55:02Z</time>
  <course>14.52</course>
  <speed>0.022360679774997897</speed>
  <fix>3d</fix>
</trkpt>
<trkpt lat="-27.2744125" lon="151.2900659">
  <ele>343.09</ele>
  <time>2026-09-01T19:55:02Z</time>
  <course>12.62</course>
  <speed>0.0</speed>
  <fix>3d</fix>
</trkpt>
<trkpt lat="-27.2744127" lon="151.290066">
  <ele>343.13</ele>
  <time>2026-09-01T19:55:02Z</time>
  <course>14.52</course>
  <speed>0.022360679774997897</speed>
  <fix>3d</fix>
</trkpt>
<trkpt lat="-27.2744125" lon="151.2900659">
  <ele>343.09</ele>
  <time>2026-09-01T19:55:02Z</time>
  <course>12.62</course>
  <speed>0.0</speed>
  <fix>3d</fix>
</trkpt>
<trkpt lat="-27.2744127" lon="151.290066">
  <ele>343.13</ele>
  <time>2026-09-01T19:55:02Z</time>
  <course>14.52</course>
  <speed>0.022360679774997897</speed>
  <fix>3d</fix>
</trkpt>
<trkpt lat="-27.2744125" lon="151.2900659">
  <ele>343.09</ele>
  <time>2026-09-01T19:55:02Z</time>
  <course>12.62</course>
  <speed>0.0</speed>
  <fix>3d</fix>
</trkpt>
<trkpt lat="-27.2744127" lon="151.290066">
  <ele>343.13</ele>
  <time>2026-09-01T19:55:02Z</time>
  <course>14.52</course>
  <speed>0.022360679774997897</speed>
  <fix>3d</fix>
</trkpt>
<trkpt lat="-27.2744125" lon="151.2900659">
  <ele>343.09</ele>
  <time>2026-09-01T19:55:02Z</time>
  <course>12.62</course>
  <speed>0.0</speed>
  <fix>3d</fix>
</trkpt>
<trkpt lat="-27.2744127" lon="151.290066">
  <ele>343.13</ele>
  <time>2026-09-01T19:55:02Z</time>
  <course>14.52</course>
  <speed>0.022360679774997897</speed>
  <fix>3d</fix>
</trkpt>
<trkpt lat="-27.2744125" lon="151.2900659">
  <ele>343.09</ele>
  <time>2026-09-01T19:55:02Z</time>
  <course>12.62</course>
  <speed>0.0</speed>
  <fix>3d</fix>
</trkpt>
<trkpt lat="-27.2744127" lon="151.290066">
  <ele>343.13</ele>
  <time>2026-09-01T19:55:02Z</time>
  <course>14.52</course>
  <speed>0.022360679774997897</speed>
  <fix>3d</fix>
</trkpt>
<trkpt lat="-27.2744125" lon="151.2900659">
  <ele>343.09</ele>
  <time>2026-09-01T19:55:02Z</time>
  <course>12.62</course>
  <speed>0.0</speed>
  <fix>3d</fix>
</trkpt>
<trkpt lat="-27.2744127" lon="151.290066">
  <ele>343.13</ele>
  <time>2026-09-01T19:55:02Z</time>
  <course>14.52</course>
  <speed>0.022360679774997897</speed>
  <fix>3d</fix>
</trkpt>
<trkpt lat="-27.2744125" lon="151.2900659">
  <ele>343.09</ele>
  <time>2026-09-01T19:55:02Z</time>
  <course>12.62</course>
  <speed>0.0</speed>
  <fix>3d</fix>
</trkpt>
<trkpt lat="-27.2744127" lon="151.290066">
  <ele>343.14</ele>
  <time>2026-09-01T19:55:02Z</time>
  <course>14.52</course>
  <speed>0.022360679774997897</speed>
  <fix>3d</fix>
</trkpt>
<trkpt lat="-27.2744125" lon="151.2900659">
  <ele>343.09</ele>
  <time>2026-09-01T19:55:02Z</time>
  <course>12.62</course>
  <speed>0.0</speed>
  <fix>3d</fix>
</trkpt>
<trkpt lat="-27.2744127" lon="151.290066">
  <ele>343.14</ele>
  <time>2026-09-01T19:55:02Z</time>
  <course>14.52</course>
  <speed>0.022360679774997897</speed>
  <fix>3d</fix>
</trkpt>
<trkpt lat="-27.2744125" lon="151.2900659">
  <ele>343.09</ele>
  <time>2026-09-01T19:55:02Z</time>
  <course>12.62</course>
  <speed>0.0</speed>
  <fix>3d</fix>
</trkpt>
<trkpt lat="-27.2744127" lon="151.290066">
  <ele>343.14</ele>
  <time>2026-09-01T19:55:02Z</time>
  <course>14.52</course>
  <speed>0.022360679774997897</speed>
  <fix>3d</fix>
</trkpt>
<trkpt lat="-27.2744125" lon="151.2900659">
  <ele>343.09</ele>
  <time>2026-09-01T19:55:02Z</time>
  <course>12.62</course>
  <speed>0.0</speed>
  <fix>3d</fix>
</trkpt>
<trkpt lat="-27.2744127" lon="151.290066">
  <ele>343.14</ele>
  <time>2026-09-01T19:55:02Z</time>
  <course>14.52</course>
  <speed>0.022360679774997897</speed>
  <fix>3d</fix>
</trkpt>
<trkpt lat="-27.2744125" lon="151.2900659">
  <ele>343.09</ele>
  <time>2026-09-01T19:55:02Z</time>
  <course>12.62</course>
  <speed>0.0</speed>
  <fix>3d</fix>
</trkpt>
<trkpt lat="-27.2744127" lon="151.290066">
  <ele>343.15</ele>
  <time>2026-09-01T19:55:03Z</time>
  <course>14.52</course>
  <speed>0.022360679774997897</speed>
  <fix>3d</fix>
</trkpt>
<trkpt lat="-27.2744125" lon="151.2900659">
  <ele>343.09</ele>
  <time>2026-09-01T19:55:03Z</time>
  <course>12.62</course>
  <speed>0.0</speed>
  <fix>3d</fix>
</trkpt>
<trkpt lat="-27.2744127" lon="151.290066">
  <ele>343.15</ele>
  <time>2026-09-01T19:55:03Z</time>
  <course>14.52</course>
  <speed>0.022360679774997897</speed>
  <fix>3d</fix>
</trkpt>
<trkpt lat="-27.2744125" lon="151.2900659">
  <ele>343.09</ele>
  <time>2026-09-01T19:55:03Z</time>
  <course>12.62</course>
  <speed>0.0</speed>
  <fix>3d</fix>
</trkpt>
<trkpt lat="-27.2744127" lon="151.290066">
  <ele>343.15</ele>
  <time>2026-09-01T19:55:03Z</time>
  <course>14.52</course>
  <speed>0.022360679774997897</speed>
  <fix>3d</fix>
</trkpt>
<trkpt lat="-27.2744125" lon="151.2900659">
  <ele>343.09</ele>
  <time>2026-09-01T19:55:03Z</time>
  <course>12.62</course>
  <speed>0.0</speed>
  <fix>3d</fix>
</trkpt>
<trkpt lat="-27.2744127" lon="151.290066">
  <ele>343.15</ele>
  <time>2026-09-01T19:55:03Z</time>
  <course>14.52</course>
  <speed>0.022360679774997897</speed>
  <fix>3d</fix>
</trkpt>
<trkpt lat="-27.2744125" lon="151.2900659">
  <ele>343.09</ele>
  <time>2026-09-01T19:55:03Z</time>
  <course>12.62</course>
  <speed>0.0</speed>
  <fix>3d</fix>
</trkpt>
<trkpt lat="-27.2744127" lon="151.290066">
  <ele>343.15</ele>
  <time>2026-09-01T19:55:03Z</time>
  <course>14.52</course>
  <speed>0.022360679774997897</speed>
  <fix>3d</fix>
</trkpt>
<trkpt lat="-27.2744125" lon="151.2900659">
  <ele>343.09</ele>
  <time>2026-09-01T19:55:03Z</time>
  <course>12.62</course>
  <speed>0.0</speed>
  <fix>3d</fix>
</trkpt>
<trkpt lat="-27.2744127" lon="151.290066">
  <ele>343.15</ele>
  <time>2026-09-01T19:55:03Z</time>
  <course>14.52</course>
  <speed>0.022360679774997897</speed>
  <fix>3d</fix>
</trkpt>
<trkpt lat="-27.2744125" lon="151.2900659">
  <ele>343.09</ele>
  <time>2026-09-01T19:55:03Z</time>
  <course>12.62</course>
  <speed>0.0</speed>
  <fix>3d</fix>
</trkpt>
<trkpt lat="-27.2744127" lon="151.290066">
  <ele>343.15</ele>
  <time>2026-09-01T19:55:03Z</time>
  <course>14.52</course>
  <speed>0.022360679774997897</speed>
  <fix>3d</fix>
</trkpt>
<trkpt lat="-27.2744125" lon="151.2900659">
  <ele>343.09</ele>
  <time>2026-09-01T19:55:03Z</time>
  <course>12.62</course>
  <speed>0.0</speed>
  <fix>3d</fix>
</trkpt>
<trkpt lat="-27.2744127" lon="151.290066">
  <ele>343.15</ele>
  <time>2026-09-01T19:55:03Z</time>
  <course>14.52</course>
  <speed>0.022360679774997897</speed>
  <fix>3d</fix>
</trkpt>
<trkpt lat="-27.2744125" lon="151.2900659">
  <ele>343.09</ele>
  <time>2026-09-01T19:55:03Z</time>
  <course>12.62</course>
  <speed>0.0</speed>
  <fix>3d</fix>
</trkpt>
<trkpt lat="-27.2744127" lon="151.290066">
  <ele>343.15</ele>
  <time>2026-09-01T19:55:03Z</time>
  <course>14.52</course>
  <speed>0.022360679774997897</speed>
  <fix>3d</fix>
</trkpt>
<trkpt lat="-27.2744125" lon="151.2900659">
  <ele>343.09</ele>
  <time>2026-09-01T19:55:03Z</time>
  <course>12.62</course>
  <speed>0.0</speed>
  <fix>3d</fix>
</trkpt>
<trkpt lat="-27.2744127" lon="151.290066">
  <ele>343.15</ele>
  <time>2026-09-01T19:55:03Z</time>
  <course>14.52</course>
  <speed>0.022360679774997897</speed>
  <fix>3d</fix>
</trkpt>
<trkpt lat="-27.2744125" lon="151.2900659">
  <ele>343.09</ele>
  <time>2026-09-01T19:55:03Z</time>
  <course>12.62</course>
  <speed>0.0</speed>
  <fix>3d</fix>
</trkpt>
<trkpt lat="-27.2744127" lon="151.290066">
  <ele>343.15</ele>
  <time>2026-09-01T19:55:03Z</time>
  <course>14.52</course>
  <speed>0.022360679774997897</speed>
  <fix>3d</fix>
</trkpt>
<trkpt lat="-27.2744125" lon="151.2900659">
  <ele>343.09</ele>
  <time>2026-09-01T19:55:03Z</time>
  <course>12.62</course>
  <speed>0.0</speed>
  <fix>3d</fix>
</trkpt>
<trkpt lat="-27.2744127" lon="151.290066">
  <ele>343.15</ele>
  <time>2026-09-01T19:55:03Z</time>
  <course>14.52</course>
  <speed>0.022360679774997897</speed>
  <fix>3d</fix>
</trkpt>
<trkpt lat="-27.2744125" lon="151.2900659">
  <ele>343.09</ele>
  <time>2026-09-01T19:55:03Z</time>
  <course>12.62</course>
  <speed>0.0</speed>
  <fix>3d</fix>
</trkpt>
<trkpt lat="-27.2744127" lon="151.290066">
  <ele>343.15</ele>
  <time>2026-09-01T19:55:03Z</time>
  <course>14.52</course>
  <speed>0.022360679774997897</speed>
  <fix>3d</fix>
</trkpt>
<trkpt lat="-27.2744125" lon="151.2900659">
  <ele>343.09</ele>
  <time>2026-09-01T19:55:03Z</time>
  <course>12.62</course>
  <speed>0.0</speed>
  <fix>3d</fix>
</trkpt>
<trkpt lat="-27.2744127" lon="151.290066">
  <ele>343.15</ele>
  <time>2026-09-01T19:55:03Z</time>
  <course>14.52</course>
  <speed>0.022360679774997897</speed>
  <fix>3d</fix>
</trkpt>
<trkpt lat="-27.2744125" lon="151.2900659">
  <ele>343.09</ele>
  <time>2026-09-01T19:55:03Z</time>
  <course>12.62</course>
  <speed>0.0</speed>
  <fix>3d</fix>
</trkpt>
<trkpt lat="-27.2744127" lon="151.290066">
  <ele>343.15</ele>
  <time>2026-09-01T19:55:03Z</time>
  <course>14.52</course>
  <speed>0.022360679774997897</speed>
  <fix>3d</fix>
</trkpt>
<trkpt lat="-27.2744125" lon="151.2900659">
  <ele>343.09</ele>
  <time>2026-09-01T19:55:03Z</time>
  <course>12.62</course>
  <speed>0.0</speed>
  <fix>3d</fix>
</trkpt>
<trkpt lat="-27.2744127" lon="151.290066">
  <ele>343.15</ele>
  <time>2026-09-01T19:55:03Z</time>
  <course>14.52</course>
  <speed>0.022360679774997897</speed>
  <fix>3d</fix>
</trkpt>
<trkpt lat="-27.2744125" lon="151.2900659">
  <ele>343.09</ele>
  <time>2026-09-01T19:55:03Z</time>
  <course>12.62</course>
  <speed>0.0</speed>
  <fix>3d</fix>
</trkpt>
<trkpt lat="-27.2744127" lon="151.290066">
  <ele>343.15</ele>
  <time>2026-09-01T19:55:03Z</time>
  <course>14.52</course>
  <speed>0.022360679774997897</speed>
  <fix>3d</fix>
</trkpt>
<trkpt lat="-27.2744125" lon="151.2900659">
  <ele>343.09</ele>
  <time>2026-09-01T19:55:03Z</time>
  <course>12.62</course>
  <speed>0.0</speed>
  <fix>3d</fix>
</trkpt>
<trkpt lat="-27.2744127" lon="151.290066">
  <ele>343.15</ele>
  <time>2026-09-01T19:55:03Z</time>
  <course>14.52</course>
  <speed>0.022360679774997897</speed>
  <fix>3d</fix>
</trkpt>
<trkpt lat="-27.2744125" lon="151.2900659">
  <ele>343.09</ele>
  <time>2026-09-01T19:55:03Z</time>
  <course>12.62</course>
  <speed>0.0</speed>
  <fix>3d</fix>
</trkpt>
<trkpt lat="-27.2744127" lon="151.290066">
  <ele>343.09</ele>
  <time>2026-09-01T19:55:03Z</time>
  <course>14.52</course>
  <speed>0.022360679774997897</speed>
  <fix>3d</fix>
</trkpt>
<trkpt lat="-27.2744125" lon="151.2900659">
  <ele>343.09</ele>
  <time>2026-09-01T19:55:03Z</time>
  <course>12.62</course>
  <speed>0.0</speed>
  <fix>3d</fix>
</trkpt>
<trkpt lat="-27.2744127" lon="151.290066">
  <ele>343.09</ele>
  <time>2026-09-01T19:55:03Z</time>
  <course>14.52</course>
  <speed>0.022360679774997897</speed>
  <fix>3d</fix>
</trkpt>
<trkpt lat="-27.2744125" lon="151.2900659">
  <ele>343.09</ele>
  <time>2026-09-01T19:55:03Z</time>
  <course>12.62</course>
  <speed>0.0</speed>
  <fix>3d</fix>
</trkpt>
<trkpt lat="-27.2744127" lon="151.290066">
  <ele>343.09</ele>
  <time>2026-09-01T19:55:03Z</time>
  <course>14.52</course>
  <speed>0.022360679774997897</speed>
  <fix>3d</fix>
</trkpt>
<trkpt lat="-27.2744125" lon="151.2900659">
  <ele>343.09</ele>
  <time>2026-09-01T19:55:03Z</time>
  <course>12.62</course>
  <speed>0.0</speed>
  <fix>3d</fix>
</trkpt>
<trkpt lat="-27.2744127" lon="151.290066">
  <ele>343.09</ele>
  <time>2026-09-01T19:55:03Z</time>
  <course>14.52</course>
  <speed>0.022360679774997897</speed>
  <fix>3d</fix>
</trkpt>
<trkpt lat="-27.2744125" lon="151.2900659">
  <ele>343.09</ele>
  <time>2026-09-01T19:55:03Z</time>
  <course>12.62</course>
  <speed>0.0</speed>
  <fix>3d</fix>
</trkpt>
<trkpt lat="-27.2744127" lon="151.290066">
  <ele>343.09</ele>
  <time>2026-09-01T19:55:03Z</time>
  <course>14.52</course>
  <speed>0.022360679774997897</speed>
  <fix>3d</fix>
</trkpt>
<trkpt lat="-27.2744125" lon="151.2900659">
  <ele>343.09</ele>
  <time>2026-09-01T19:55:03Z</time>
  <course>12.62</course>
  <speed>0.0</speed>
  <fix>3d</fix>
</trkpt>
<trkpt lat="-27.2744127" lon="151.290066">
  <ele>343.09</ele>
  <time>2026-09-01T19:55:03Z</time>
  <course>14.52</course>
  <speed>0.022360679774997897</speed>
  <fix>3d</fix>
</trkpt>
<trkpt lat="-27.2744125" lon="151.2900659">
  <ele>343.09</ele>
  <time>2026-09-01T19:55:03Z</time>
  <course>12.62</course>
  <speed>0.0</speed>
  <fix>3d</fix>
</trkpt>
<trkpt lat="-27.2744127" lon="151.290066">
  <ele>343.09</ele>
  <time>2026-09-01T19:55:03Z</time>
  <course>14.52</course>
  <speed>0.022360679774997897</speed>
  <fix>3d</fix>
</trkpt>
<trkpt lat="-27.2744125" lon="151.2900659">
  <ele>343.09</ele>
  <time>2026-09-01T19:55:03Z</time>
  <course>12.62</course>
  <speed>0.0</speed>
  <fix>3d</fix>
</trkpt>
<trkpt lat="-27.2744127" lon="151.290066">
  <ele>343.08</ele>
  <time>2026-09-01T19:55:03Z</time>
  <course>14.52</course>
  <speed>0.022360679774997897</speed>
  <fix>3d</fix>
</trkpt>
<trkpt lat="-27.2744125" lon="151.2900659">
  <ele>343.09</ele>
  <time>2026-09-01T19:55:03Z</time>
  <course>12.62</course>
  <speed>0.0</speed>
  <fix>3d</fix>
</trkpt>
<trkpt lat="-27.2744127" lon="151.290066">
  <ele>343.08</ele>
  <time>2026-09-01T19:55:03Z</time>
  <course>14.52</course>
  <speed>0.022360679774997897</speed>
  <fix>3d</fix>
</trkpt>
<trkpt lat="-27.2744125" lon="151.2900659">
  <ele>343.09</ele>
  <time>2026-09-01T19:55:03Z</time>
  <course>12.62</course>
  <speed>0.0</speed>
  <fix>3d</fix>
</trkpt>
<trkpt lat="-27.2744127" lon="151.290066">
  <ele>343.07</ele>
  <time>2026-09-01T19:55:03Z</time>
  <course>14.52</course>
  <speed>0.022360679774997897</speed>
  <fix>3d</fix>
</trkpt>
<trkpt lat="-27.2744125" lon="151.2900659">
  <ele>343.09</ele>
  <time>2026-09-01T19:55:03Z</time>
  <course>12.62</course>
  <speed>0.0</speed>
  <fix>3d</fix>
</trkpt>
<trkpt lat="-27.2744127" lon="151.290066">
  <ele>343.07</ele>
  <time>2026-09-01T19:55:03Z</time>
  <course>14.52</course>
  <speed>0.022360679774997897</speed>
  <fix>3d</fix>
</trkpt>
<trkpt lat="-27.2744125" lon="151.2900659">
  <ele>343.09</ele>
  <time>2026-09-01T19:55:03Z</time>
  <course>12.62</course>
  <speed>0.0</speed>
  <fix>3d</fix>
</trkpt>
<trkpt lat="-27.2744127" lon="151.290066">
  <ele>343.07</ele>
  <time>2026-09-01T19:55:03Z</time>
  <course>14.52</course>
  <speed>0.022360679774997897</speed>
  <fix>3d</fix>
</trkpt>
<trkpt lat="-27.2744125" lon="151.2900659">
  <ele>343.09</ele>
  <time>2026-09-01T19:55:03Z</time>
  <course>12.62</course>
  <speed>0.0</speed>
  <fix>3d</fix>
</trkpt>
<trkpt lat="-27.2744127" lon="151.290066">
  <ele>343.07</ele>
  <time>2026-09-01T19:55:03Z</time>
  <course>14.52</course>
  <speed>0.022360679774997897</speed>
  <fix>3d</fix>
</trkpt>
<trkpt lat="-27.2744125" lon="151.2900659">
  <ele>343.09</ele>
  <time>2026-09-01T19:55:03Z</time>
  <course>12.62</course>
  <speed>0.0</speed>
  <fix>3d</fix>
</trkpt>
<trkpt lat="-27.2744127" lon="151.290066">
  <ele>343.07</ele>
  <time>2026-09-01T19:55:03Z</time>
  <course>14.52</course>
  <speed>0.022360679774997897</speed>
  <fix>3d</fix>
</trkpt>
<trkpt lat="-27.2744125" lon="151.2900659">
  <ele>343.09</ele>
  <time>2026-09-01T19:55:03Z</time>
  <course>12.62</course>
  <speed>0.0</speed>
  <fix>3d</fix>
</trkpt>
<trkpt lat="-27.2744127" lon="151.290066">
  <ele>343.06</ele>
  <time>2026-09-01T19:55:03Z</time>
  <course>14.52</course>
  <speed>0.022360679774997897</speed>
  <fix>3d</fix>
</trkpt>
<trkpt lat="-27.2744125" lon="151.2900659">
  <ele>343.09</ele>
  <time>2026-09-01T19:55:03Z</time>
  <course>12.62</course>
  <speed>0.0</speed>
  <fix>3d</fix>
</trkpt>
<trkpt lat="-27.2744127" lon="151.290066">
  <ele>343.06</ele>
  <time>2026-09-01T19:55:03Z</time>
  <course>14.52</course>
  <speed>0.022360679774997897</speed>
  <fix>3d</fix>
</trkpt>
<trkpt lat="-27.2744125" lon="151.2900659">
  <ele>343.09</ele>
  <time>2026-09-01T19:55:03Z</time>
  <course>12.62</course>
  <speed>0.0</speed>
  <fix>3d</fix>
</trkpt>
<trkpt lat="-27.2744127" lon="151.290066">
  <ele>343.06</ele>
  <time>2026-09-01T19:55:03Z</time>
  <course>14.52</course>
  <speed>0.022360679774997897</speed>
  <fix>3d</fix>
</trkpt>
<trkpt lat="-27.2744125" lon="151.2900659">
  <ele>343.09</ele>
  <time>2026-09-01T19:55:03Z</time>
  <course>12.62</course>
  <speed>0.0</speed>
  <fix>3d</fix>
</trkpt>
<trkpt lat="-27.2744127" lon="151.290066">
  <ele>343.05</ele>
  <time>2026-09-01T19:55:03Z</time>
  <course>14.52</course>
  <speed>0.022360679774997897</speed>
  <fix>3d</fix>
</trkpt>
<trkpt lat="-27.2744125" lon="151.2900659">
  <ele>343.09</ele>
  <time>2026-09-01T19:55:03Z</time>
  <course>12.62</course>
  <speed>0.0</speed>
  <fix>3d</fix>
</trkpt>
<trkpt lat="-27.2744127" lon="151.290066">
  <ele>343.05</ele>
  <time>2026-09-01T19:55:03Z</time>
  <course>14.52</course>
  <speed>0.022360679774997897</speed>
  <fix>3d</fix>
</trkpt>
<trkpt lat="-27.2744125" lon="151.2900659">
  <ele>343.09</ele>
  <time>2026-09-01T19:55:03Z</time>
  <course>12.62</course>
  <speed>0.0</speed>
  <fix>3d</fix>
</trkpt>
<trkpt lat="-27.2744127" lon="151.290066">
  <ele>343.05</ele>
  <time>2026-09-01T19:55:03Z</time>
  <course>14.52</course>
  <speed>0.022360679774997897</speed>
  <fix>3d</fix>
</trkpt>
<trkpt lat="-27.2744125" lon="151.2900659">
  <ele>343.09</ele>
  <time>2026-09-01T19:55:03Z</time>
  <course>12.62</course>
  <speed>0.0</speed>
  <fix>3d</fix>
</trkpt>
<trkpt lat="-27.2744127" lon="151.290066">
  <ele>343.05</ele>
  <time>2026-09-01T19:55:03Z</time>
  <course>14.52</course>
  <speed>0.022360679774997897</speed>
  <fix>3d</fix>
</trkpt>
<trkpt lat="-27.2744125" lon="151.2900659">
  <ele>343.09</ele>
  <time>2026-09-01T19:55:03Z</time>
  <course>12.62</course>
  <speed>0.0</speed>
  <fix>3d</fix>
</trkpt>
<trkpt lat="-27.2744127" lon="151.290066">
  <ele>343.05</ele>
  <time>2026-09-01T19:55:03Z</time>
  <course>14.52</course>
  <speed>0.022360679774997897</speed>
  <fix>3d</fix>
</trkpt>
<trkpt lat="-27.2744125" lon="151.2900659">
  <ele>343.09</ele>
  <time>2026-09-01T19:55:03Z</time>
  <course>12.62</course>
  <speed>0.0</speed>
  <fix>3d</fix>
</trkpt>
<trkpt lat="-27.2744127" lon="151.290066">
  <ele>343.04</ele>
  <time>2026-09-01T19:55:03Z</time>
  <course>14.52</course>
  <speed>0.022360679774997897</speed>
  <fix>3d</fix>
</trkpt>
<trkpt lat="-27.2744125" lon="151.2900659">
  <ele>343.09</ele>
  <time>2026-09-01T19:55:03Z</time>
  <course>12.62</course>
  <speed>0.0</speed>
  <fix>3d</fix>
</trkpt>
<trkpt lat="-27.2744127" lon="151.290066">
  <ele>343.04</ele>
  <time>2026-09-01T19:55:03Z</time>
  <course>14.52</course>
  <speed>0.022360679774997897</speed>
  <fix>3d</fix>
</trkpt>
<trkpt lat="-27.2744125" lon="151.2900659">
  <ele>343.09</ele>
  <time>2026-09-01T19:55:03Z</time>
  <course>12.62</course>
  <speed>0.0</speed>
  <fix>3d</fix>
</trkpt>
<trkpt lat="-27.2744127" lon="151.290066">
  <ele>343.04</ele>
  <time>2026-09-01T19:55:03Z</time>
  <course>14.52</course>
  <speed>0.022360679774997897</speed>
  <fix>3d</fix>
</trkpt>
<trkpt lat="-27.2744125" lon="151.2900659">
  <ele>343.09</ele>
  <time>2026-09-01T19:55:03Z</time>
  <course>12.62</course>
  <speed>0.0</speed>
  <fix>3d</fix>
</trkpt>
<trkpt lat="-27.2744127" lon="151.290066">
  <ele>343.04</ele>
  <time>2026-09-01T19:55:03Z</time>
  <course>14.52</course>
  <speed>0.022360679774997897</speed>
  <fix>3d</fix>
</trkpt>
<trkpt lat="-27.2744125" lon="151.2900659">
  <ele>343.09</ele>
  <time>2026-09-01T19:55:03Z</time>
  <course>12.62</course>
  <speed>0.0</speed>
  <fix>3d</fix>
</trkpt>
<trkpt lat="-27.2744127" lon="151.290066">
  <ele>343.03</ele>
  <time>2026-09-01T19:55:03Z</time>
  <course>14.52</course>
  <speed>0.022360679774997897</speed>
  <fix>3d</fix>
</trkpt>
<trkpt lat="-27.2744125" lon="151.2900659">
  <ele>343.09</ele>
  <time>2026-09-01T19:55:03Z</time>
  <course>12.62</course>
  <speed>0.0</speed>
  <fix>3d</fix>
</trkpt>
<trkpt lat="-27.2744127" lon="151.290066">
  <ele>343.03</ele>
  <time>2026-09-01T19:55:03Z</time>
  <course>14.52</course>
  <speed>0.022360679774997897</speed>
  <fix>3d</fix>
</trkpt>
<trkpt lat="-27.2744125" lon="151.2900659">
  <ele>343.09</ele>
  <time>2026-09-01T19:55:03Z</time>
  <course>12.62</course>
  <speed>0.0</speed>
  <fix>3d</fix>
</trkpt>
<trkpt lat="-27.2744127" lon="151.290066">
  <ele>343.03</ele>
  <time>2026-09-01T19:55:03Z</time>
  <course>14.52</course>
  <speed>0.022360679774997897</speed>
  <fix>3d</fix>
</trkpt>
<trkpt lat="-27.2744125" lon="151.2900659">
  <ele>343.09</ele>
  <time>2026-09-01T19:55:03Z</time>
  <course>12.62</course>
  <speed>0.0</speed>
  <fix>3d</fix>
</trkpt>
<trkpt lat="-27.2744127" lon="151.290066">
  <ele>343.03</ele>
  <time>2026-09-01T19:55:03Z</time>
  <course>14.52</course>
  <speed>0.022360679774997897</speed>
  <fix>3d</fix>
</trkpt>
<trkpt lat="-27.2744125" lon="151.2900659">
  <ele>343.09</ele>
  <time>2026-09-01T19:55:03Z</time>
  <course>12.62</course>
  <speed>0.0</speed>
  <fix>3d</fix>
</trkpt>
<trkpt lat="-27.2744127" lon="151.290066">
  <ele>343.03</ele>
  <time>2026-09-01T19:55:03Z</time>
  <course>14.52</course>
  <speed>0.022360679774997897</speed>
  <fix>3d</fix>
</trkpt>
<trkpt lat="-27.2744125" lon="151.2900659">
  <ele>343.09</ele>
  <time>2026-09-01T19:55:03Z</time>
  <course>12.62</course>
  <speed>0.0</speed>
  <fix>3d</fix>
</trkpt>
<trkpt lat="-27.2744127" lon="151.290066">
  <ele>343.03</ele>
  <time>2026-09-01T19:55:03Z</time>
  <course>14.52</course>
  <speed>0.022360679774997897</speed>
  <fix>3d</fix>
</trkpt>
<trkpt lat="-27.2744125" lon="151.2900659">
  <ele>343.09</ele>
  <time>2026-09-01T19:55:03Z</time>
  <course>12.62</course>
  <speed>0.0</speed>
  <fix>3d</fix>
</trkpt>
<trkpt lat="-27.2744127" lon="151.290066">
  <ele>343.03</ele>
  <time>2026-09-01T19:55:03Z</time>
  <course>14.52</course>
  <speed>0.022360679774997897</speed>
  <fix>3d</fix>
</trkpt>
<trkpt lat="-27.2744125" lon="151.2900659">
  <ele>343.09</ele>
  <time>2026-09-01T19:55:03Z</time>
  <course>12.62</course>
  <speed>0.0</speed>
  <fix>3d</fix>
</trkpt>
<trkpt lat="-27.2744127" lon="151.290066">
  <ele>343.03</ele>
  <time>2026-09-01T19:55:03Z</time>
  <course>14.52</course>
  <speed>0.022360679774997897</speed>
  <fix>3d</fix>
</trkpt>
<trkpt lat="-27.2744125" lon="151.2900659">
  <ele>343.09</ele>
  <time>2026-09-01T19:55:03Z</time>
  <course>12.62</course>
  <speed>0.0</speed>
  <fix>3d</fix>
</trkpt>
<trkpt lat="-27.2744127" lon="151.290066">
  <ele>343.03</ele>
  <time>2026-09-01T19:55:03Z</time>
  <course>14.52</course>
  <speed>0.022360679774997897</speed>
  <fix>3d</fix>
</trkpt>
<trkpt lat="-27.2744125" lon="151.2900659">
  <ele>343.09</ele>
  <time>2026-09-01T19:55:03Z</time>
  <course>12.62</course>
  <speed>0.0</speed>
  <fix>3d</fix>
</trkpt>
<trkpt lat="-27.2744127" lon="151.290066">
  <ele>343.03</ele>
  <time>2026-09-01T19:55:03Z</time>
  <course>14.52</course>
  <speed>0.022360679774997897</speed>
  <fix>3d</fix>
</trkpt>
<trkpt lat="-27.2744125" lon="151.2900659">
  <ele>343.09</ele>
  <time>2026-09-01T19:55:03Z</time>
  <course>12.62</course>
  <speed>0.0</speed>
  <fix>3d</fix>
</trkpt>
<trkpt lat="-27.2744127" lon="151.290066">
  <ele>343.02</ele>
  <time>2026-09-01T19:55:03Z</time>
  <course>14.52</course>
  <speed>0.022360679774997897</speed>
  <fix>3d</fix>
</trkpt>
<trkpt lat="-27.2744125" lon="151.2900659">
  <ele>343.09</ele>
  <time>2026-09-01T19:55:03Z</time>
  <course>12.62</course>
  <speed>0.0</speed>
  <fix>3d</fix>
</trkpt>
<trkpt lat="-27.2744127" lon="151.290066">
  <ele>343.02</ele>
  <time>2026-09-01T19:55:03Z</time>
  <course>14.52</course>
  <speed>0.022360679774997897</speed>
  <fix>3d</fix>
</trkpt>
<trkpt lat="-27.2744125" lon="151.2900659">
  <ele>343.09</ele>
  <time>2026-09-01T19:55:03Z</time>
  <course>12.62</course>
  <speed>0.0</speed>
  <fix>3d</fix>
</trkpt>
<trkpt lat="-27.2744127" lon="151.290066">
  <ele>343.02</ele>
  <time>2026-09-01T19:55:03Z</time>
  <course>14.52</course>
  <speed>0.022360679774997897</speed>
  <fix>3d</fix>
</trkpt>
<trkpt lat="-27.2744125" lon="151.2900659">
  <ele>343.09</ele>
  <time>2026-09-01T19:55:03Z</time>
  <course>12.62</course>
  <speed>0.0</speed>
  <fix>3d</fix>
</trkpt>
<trkpt lat="-27.2744127" lon="151.290066">
  <ele>343.02</ele>
  <time>2026-09-01T19:55:03Z</time>
  <course>14.52</course>
  <speed>0.022360679774997897</speed>
  <fix>3d</fix>
</trkpt>
<trkpt lat="-27.2744125" lon="151.2900659">
  <ele>343.09</ele>
  <time>2026-09-01T19:55:03Z</time>
  <course>12.62</course>
  <speed>0.0</speed>
  <fix>3d</fix>
</trkpt>
<trkpt lat="-27.2744127" lon="151.290066">
  <ele>343.01</ele>
  <time>2026-09-01T19:55:03Z</time>
  <course>14.52</course>
  <speed>0.022360679774997897</speed>
  <fix>3d</fix>
</trkpt>
<trkpt lat="-27.2744125" lon="151.2900659">
  <ele>343.09</ele>
  <time>2026-09-01T19:55:03Z</time>
  <course>12.62</course>
  <speed>0.0</speed>
  <fix>3d</fix>
</trkpt>
<trkpt lat="-27.2744127" lon="151.290066">
  <ele>343.01</ele>
  <time>2026-09-01T19:55:03Z</time>
  <course>14.52</course>
  <speed>0.022360679774997897</speed>
  <fix>3d</fix>
</trkpt>
<trkpt lat="-27.2744125" lon="151.2900659">
  <ele>343.09</ele>
  <time>2026-09-01T19:55:03Z</time>
  <course>12.62</course>
  <speed>0.0</speed>
  <fix>3d</fix>
</trkpt>
<trkpt lat="-27.2744127" lon="151.290066">
  <ele>343.01</ele>
  <time>2026-09-01T19:55:03Z</time>
  <course>14.52</course>
  <speed>0.022360679774997897</speed>
  <fix>3d</fix>
</trkpt>
<trkpt lat="-27.2744125" lon="151.2900659">
  <ele>343.09</ele>
  <time>2026-09-01T19:55:03Z</time>
  <course>12.62</course>
  <speed>0.0</speed>
  <fix>3d</fix>
</trkpt>
<trkpt lat="-27.2744127" lon="151.290066">
  <ele>343.01</ele>
  <time>2026-09-01T19:55:03Z</time>
  <course>14.52</course>
  <speed>0.022360679774997897</speed>
  <fix>3d</fix>
</trkpt>
<trkpt lat="-27.2744125" lon="151.2900659">
  <ele>343.09</ele>
  <time>2026-09-01T19:55:03Z</time>
  <course>12.62</course>
  <speed>0.0</speed>
  <fix>3d</fix>
</trkpt>
<trkpt lat="-27.2744127" lon="151.290066">
  <ele>343.01</ele>
  <time>2026-09-01T19:55:03Z</time>
  <course>14.52</course>
  <speed>0.022360679774997897</speed>
  <fix>3d</fix>
</trkpt>
<trkpt lat="-27.2744125" lon="151.2900659">
  <ele>343.09</ele>
  <time>2026-09-01T19:55:03Z</time>
  <course>12.62</course>
  <speed>0.0</speed>
  <fix>3d</fix>
</trkpt>
<trkpt lat="-27.2744127" lon="151.290066">
  <ele>343.01</ele>
  <time>2026-09-01T19:55:03Z</time>
  <course>14.52</course>
  <speed>0.022360679774997897</speed>
  <fix>3d</fix>
</trkpt>
<trkpt lat="-27.2744125" lon="151.2900659">
  <ele>343.09</ele>
  <time>2026-09-01T19:55:03Z</time>
  <course>12.62</course>
  <speed>0.0</speed>
  <fix>3d</fix>
</trkpt>
<trkpt lat="-27.2744127" lon="151.290066">
  <ele>343.01</ele>
  <time>2026-09-01T19:55:03Z</time>
  <course>14.52</course>
  <speed>0.022360679774997897</speed>
  <fix>3d</fix>
</trkpt>
<trkpt lat="-27.2744125" lon="151.2900659">
  <ele>343.09</ele>
  <time>2026-09-01T19:55:03Z</time>
  <course>12.62</course>
  <speed>0.0</speed>
  <fix>3d</fix>
</trkpt>
<trkpt lat="-27.2744127" lon="151.290066">
  <ele>343.01</ele>
  <time>2026-09-01T19:55:03Z</time>
  <course>14.52</course>
  <speed>0.022360679774997897</speed>
  <fix>3d</fix>
</trkpt>
<trkpt lat="-27.2744125" lon="151.2900659">
  <ele>343.09</ele>
  <time>2026-09-01T19:55:03Z</time>
  <course>12.62</course>
  <speed>0.0</speed>
  <fix>3d</fix>
</trkpt>
<trkpt lat="-27.2744127" lon="151.290066">
  <ele>343.01</ele>
  <time>2026-09-01T19:55:03Z</time>
  <course>14.52</course>
  <speed>0.022360679774997897</speed>
  <fix>3d</fix>
</trkpt>
<trkpt lat="-27.2744125" lon="151.2900659">
  <ele>343.09</ele>
  <time>2026-09-01T19:55:03Z</time>
  <course>12.62</course>
  <speed>0.0</speed>
  <fix>3d</fix>
</trkpt>
<trkpt lat="-27.2744127" lon="151.290066">
  <ele>343.01</ele>
  <time>2026-09-01T19:55:03Z</time>
  <course>14.52</course>
  <speed>0.022360679774997897</speed>
  <fix>3d</fix>
</trkpt>
<trkpt lat="-27.2744125" lon="151.2900659">
  <ele>343.09</ele>
  <time>2026-09-01T19:55:03Z</time>
  <course>12.62</course>
  <speed>0.0</speed>
  <fix>3d</fix>
</trkpt>
<trkpt lat="-27.2744127" lon="151.290066">
  <ele>343.01</ele>
  <time>2026-09-01T19:55:03Z</time>
  <course>14.52</course>
  <speed>0.022360679774997897</speed>
  <fix>3d</fix>
</trkpt>
<trkpt lat="-27.2744125" lon="151.2900659">
  <ele>343.09</ele>
  <time>2026-09-01T19:55:03Z</time>
  <course>12.62</course>
  <speed>0.0</speed>
  <fix>3d</fix>
</trkpt>
<trkpt lat="-27.2744127" lon="151.290066">
  <ele>343.01</ele>
  <time>2026-09-01T19:55:03Z</time>
  <course>14.52</course>
  <speed>0.022360679774997897</speed>
  <fix>3d</fix>
</trkpt>
<trkpt lat="-27.2744125" lon="151.2900659">
  <ele>343.09</ele>
  <time>2026-09-01T19:55:03Z</time>
  <course>12.62</course>
  <speed>0.0</speed>
  <fix>3d</fix>
</trkpt>
<trkpt lat="-27.2744127" lon="151.290066">
  <ele>343.0</ele>
  <time>2026-09-01T19:55:03Z</time>
  <course>14.52</course>
  <speed>0.022360679774997897</speed>
  <fix>3d</fix>
</trkpt>
<trkpt lat="-27.2744125" lon="151.2900659">
  <ele>343.09</ele>
  <time>2026-09-01T19:55:03Z</time>
  <course>12.62</course>
  <speed>0.0</speed>
  <fix>3d</fix>
</trkpt>
<trkpt lat="-27.2744127" lon="151.290066">
  <ele>343.0</ele>
  <time>2026-09-01T19:55:03Z</time>
  <course>14.52</course>
  <speed>0.022360679774997897</speed>
  <fix>3d</fix>
</trkpt>
<trkpt lat="-27.2744125" lon="151.2900659">
  <ele>343.09</ele>
  <time>2026-09-01T19:55:03Z</time>
  <course>12.62</course>
  <speed>0.0</speed>
  <fix>3d</fix>
</trkpt>
<trkpt lat="-27.2744127" lon="151.290066">
  <ele>343.0</ele>
  <time>2026-09-01T19:55:03Z</time>
  <course>14.52</course>
  <speed>0.022360679774997897</speed>
  <fix>3d</fix>
</trkpt>
<trkpt lat="-27.2744125" lon="151.2900659">
  <ele>343.09</ele>
  <time>2026-09-01T19:55:03Z</time>
  <course>12.62</course>
  <speed>0.0</speed>
  <fix>3d</fix>
</trkpt>
<trkpt lat="-27.2744127" lon="151.290066">
  <ele>343.0</ele>
  <time>2026-09-01T19:55:03Z</time>
  <course>14.52</course>
  <speed>0.022360679774997897</speed>
  <fix>3d</fix>
</trkpt>
<trkpt lat="-27.2744125" lon="151.2900659">
  <ele>343.09</ele>
  <time>2026-09-01T19:55:03Z</time>
  <course>12.62</course>
  <speed>0.0</speed>
  <fix>3d</fix>
</trkpt>
<trkpt lat="-27.2744127" lon="151.290066">
  <ele>343.0</ele>
  <time>2026-09-01T19:55:03Z</time>
  <course>14.52</course>
  <speed>0.022360679774997897</speed>
  <fix>3d</fix>
</trkpt>
<trkpt lat="-27.2744125" lon="151.2900659">
  <ele>343.09</ele>
  <time>2026-09-01T19:55:03Z</time>
  <course>12.62</course>
  <speed>0.0</speed>
  <fix>3d</fix>
</trkpt>
<trkpt lat="-27.2744127" lon="151.290066">
  <ele>343.0</ele>
  <time>2026-09-01T19:55:03Z</time>
  <course>14.52</course>
  <speed>0.022360679774997897</speed>
  <fix>3d</fix>
</trkpt>
<trkpt lat="-27.2744125" lon="151.2900659">
  <ele>343.09</ele>
  <time>2026-09-01T19:55:03Z</time>
  <course>12.62</course>
  <speed>0.0</speed>
  <fix>3d</fix>
</trkpt>
<trkpt lat="-27.2744127" lon="151.290066">
  <ele>343.0</ele>
  <time>2026-09-01T19:55:03Z</time>
  <course>14.52</course>
  <speed>0.022360679774997897</speed>
  <fix>3d</fix>
</trkpt>
<trkpt lat="-27.2744125" lon="151.2900659">
  <ele>343.09</ele>
  <time>2026-09-01T19:55:03Z</time>
  <course>12.62</course>
  <speed>0.0</speed>
  <fix>3d</fix>
</trkpt>
<trkpt lat="-27.2744127" lon="151.290066">
  <ele>343.0</ele>
  <time>2026-09-01T19:55:03Z</time>
  <course>14.52</course>
  <speed>0.022360679774997897</speed>
  <fix>3d</fix>
</trkpt>
<trkpt lat="-27.2744125" lon="151.2900659">
  <ele>343.09</ele>
  <time>2026-09-01T19:55:03Z</time>
  <course>12.62</course>
  <speed>0.0</speed>
  <fix>3d</fix>
</trkpt>
<trkpt lat="-27.2744127" lon="151.290066">
  <ele>343.08</ele>
  <time>2026-09-01T19:55:03Z</time>
  <course>14.52</course>
  <speed>0.022360679774997897</speed>
  <fix>3d</fix>
</trkpt>
<trkpt lat="-27.2744125" lon="151.2900659">
  <ele>343.09</ele>
  <time>2026-09-01T19:55:03Z</time>
  <course>12.62</course>
  <speed>0.0</speed>
  <fix>3d</fix>
</trkpt>
<trkpt lat="-27.2744127" lon="151.290066">
  <ele>343.08</ele>
  <time>2026-09-01T19:55:03Z</time>
  <course>14.52</course>
  <speed>0.022360679774997897</speed>
  <fix>3d</fix>
</trkpt>
<trkpt lat="-27.2744125" lon="151.2900659">
  <ele>343.09</ele>
  <time>2026-09-01T19:55:03Z</time>
  <course>12.62</course>
  <speed>0.0</speed>
  <fix>3d</fix>
</trkpt>
<trkpt lat="-27.2744127" lon="151.290066">
  <ele>343.08</ele>
  <time>2026-09-01T19:55:03Z</time>
  <course>14.52</course>
  <speed>0.022360679774997897</speed>
  <fix>3d</fix>
</trkpt>
<trkpt lat="-27.2744125" lon="151.2900659">
  <ele>343.09</ele>
  <time>2026-09-01T19:55:03Z</time>
  <course>12.62</course>
  <speed>0.0</speed>
  <fix>3d</fix>
</trkpt>
<trkpt lat="-27.2744127" lon="151.290066">
  <ele>343.08</ele>
  <time>2026-09-01T19:55:03Z</time>
  <course>14.52</course>
  <speed>0.022360679774997897</speed>
  <fix>3d</fix>
</trkpt>
<trkpt lat="-27.2744125" lon="151.2900659">
  <ele>343.09</ele>
  <time>2026-09-01T19:55:03Z</time>
  <course>12.62</course>
  <speed>0.0</speed>
  <fix>3d</fix>
</trkpt>
<trkpt lat="-27.2744127" lon="151.290066">
  <ele>343.08</ele>
  <time>2026-09-01T19:55:03Z</time>
  <course>14.52</course>
  <speed>0.022360679774997897</speed>
  <fix>3d</fix>
</trkpt>
<trkpt lat="-27.2744125" lon="151.2900659">
  <ele>343.09</ele>
  <time>2026-09-01T19:55:03Z</time>
  <course>12.62</course>
  <speed>0.0</speed>
  <fix>3d</fix>
</trkpt>
<trkpt lat="-27.2744127" lon="151.290066">
  <ele>343.08</ele>
  <time>2026-09-01T19:55:03Z</time>
  <course>14.52</course>
  <speed>0.022360679774997897</speed>
  <fix>3d</fix>
</trkpt>
<trkpt lat="-27.2744125" lon="151.2900659">
  <ele>343.09</ele>
  <time>2026-09-01T19:55:03Z</time>
  <course>12.62</course>
  <speed>0.0</speed>
  <fix>3d</fix>
</trkpt>
<trkpt lat="-27.2744127" lon="151.290066">
  <ele>343.08</ele>
  <time>2026-09-01T19:55:03Z</time>
  <course>14.52</course>
  <speed>0.022360679774997897</speed>
  <fix>3d</fix>
</trkpt>
<trkpt lat="-27.2744125" lon="151.2900659">
  <ele>343.09</ele>
  <time>2026-09-01T19:55:03Z</time>
  <course>12.62</course>
  <speed>0.0</speed>
  <fix>3d</fix>
</trkpt>
<trkpt lat="-27.2744127" lon="151.290066">
  <ele>343.08</ele>
  <time>2026-09-01T19:55:03Z</time>
  <course>14.52</course>
  <speed>0.022360679774997897</speed>
  <fix>3d</fix>
</trkpt>
<trkpt lat="-27.2744125" lon="151.2900659">
  <ele>343.09</ele>
  <time>2026-09-01T19:55:03Z</time>
  <course>12.62</course>
  <speed>0.0</speed>
  <fix>3d</fix>
</trkpt>
<trkpt lat="-27.2744127" lon="151.290066">
  <ele>343.08</ele>
  <time>2026-09-01T19:55:03Z</time>
  <course>14.52</course>
  <speed>0.022360679774997897</speed>
  <fix>3d</fix>
</trkpt>
<trkpt lat="-27.2744125" lon="151.2900659">
  <ele>343.09</ele>
  <time>2026-09-01T19:55:03Z</time>
  <course>12.62</course>
  <speed>0.0</speed>
  <fix>3d</fix>
</trkpt>
<trkpt lat="-27.2744127" lon="151.290066">
  <ele>343.07</ele>
  <time>2026-09-01T19:55:03Z</time>
  <course>14.52</course>
  <speed>0.022360679774997897</speed>
  <fix>3d</fix>
</trkpt>
<trkpt lat="-27.2744125" lon="151.2900659">
  <ele>343.09</ele>
  <time>2026-09-01T19:55:03Z</time>
  <course>12.62</course>
  <speed>0.0</speed>
  <fix>3d</fix>
</trkpt>
<trkpt lat="-27.2744127" lon="151.290066">
  <ele>343.07</ele>
  <time>2026-09-01T19:55:03Z</time>
  <course>14.52</course>
  <speed>0.022360679774997897</speed>
  <fix>3d</fix>
</trkpt>
<trkpt lat="-27.2744125" lon="151.2900659">
  <ele>343.09</ele>
  <time>2026-09-01T19:55:03Z</time>
  <course>12.62</course>
  <speed>0.0</speed>
  <fix>3d</fix>
</trkpt>
<trkpt lat="-27.2744127" lon="151.290066">
  <ele>343.07</ele>
  <time>2026-09-01T19:55:03Z</time>
  <course>14.52</course>
  <speed>0.022360679774997897</speed>
  <fix>3d</fix>
</trkpt>
<trkpt lat="-27.2744125" lon="151.2900659">
  <ele>343.09</ele>
  <time>2026-09-01T19:55:03Z</time>
  <course>12.62</course>
  <speed>0.0</speed>
  <fix>3d</fix>
</trkpt>
<trkpt lat="-27.2744127" lon="151.290066">
  <ele>343.07</ele>
  <time>2026-09-01T19:55:03Z</time>
  <course>14.52</course>
  <speed>0.022360679774997897</speed>
  <fix>3d</fix>
</trkpt>
<trkpt lat="-27.2744125" lon="151.2900659">
  <ele>343.09</ele>
  <time>2026-09-01T19:55:03Z</time>
  <course>12.62</course>
  <speed>0.0</speed>
  <fix>3d</fix>
</trkpt>
<trkpt lat="-27.2744127" lon="151.290066">
  <ele>343.07</ele>
  <time>2026-09-01T19:55:03Z</time>
  <course>14.52</course>
  <speed>0.022360679774997897</speed>
  <fix>3d</fix>
</trkpt>
<trkpt lat="-27.2744125" lon="151.2900659">
  <ele>343.09</ele>
  <time>2026-09-01T19:55:03Z</time>
  <course>12.62</course>
  <speed>0.0</speed>
  <fix>3d</fix>
</trkpt>
<trkpt lat="-27.2744127" lon="151.290066">
  <ele>343.07</ele>
  <time>2026-09-01T19:55:03Z</time>
  <course>14.52</course>
  <speed>0.022360679774997897</speed>
  <fix>3d</fix>
</trkpt>
<trkpt lat="-27.2744125" lon="151.2900659">
  <ele>343.09</ele>
  <time>2026-09-01T19:55:03Z</time>
  <course>12.62</course>
  <speed>0.0</speed>
  <fix>3d</fix>
</trkpt>
<trkpt lat="-27.2744127" lon="151.290066">
  <ele>343.07</ele>
  <time>2026-09-01T19:55:03Z</time>
  <course>14.52</course>
  <speed>0.022360679774997897</speed>
  <fix>3d</fix>
</trkpt>
<trkpt lat="-27.2744125" lon="151.2900659">
  <ele>343.09</ele>
  <time>2026-09-01T19:55:03Z</time>
  <course>12.62</course>
  <speed>0.0</speed>
  <fix>3d</fix>
</trkpt>
<trkpt lat="-27.2744127" lon="151.290066">
  <ele>343.07</ele>
  <time>2026-09-01T19:55:03Z</time>
  <course>14.52</course>
  <speed>0.022360679774997897</speed>
  <fix>3d</fix>
</trkpt>
<trkpt lat="-27.2744125" lon="151.2900659">
  <ele>343.09</ele>
  <time>2026-09-01T19:55:03Z</time>
  <course>12.62</course>
  <speed>0.0</speed>
  <fix>3d</fix>
</trkpt>
<trkpt lat="-27.2744127" lon="151.290066">
  <ele>343.07</ele>
  <time>2026-09-01T19:55:03Z</time>
  <course>14.52</course>
  <speed>0.022360679774997897</speed>
  <fix>3d</fix>
</trkpt>
<trkpt lat="-27.2744125" lon="151.2900659">
  <ele>343.09</ele>
  <time>2026-09-01T19:55:03Z</time>
  <course>12.62</course>
  <speed>0.0</speed>
  <fix>3d</fix>
</trkpt>
<trkpt lat="-27.2744127" lon="151.290066">
  <ele>343.07</ele>
  <time>2026-09-01T19:55:03Z</time>
  <course>14.52</course>
  <speed>0.022360679774997897</speed>
  <fix>3d</fix>
</trkpt>
<trkpt lat="-27.2744125" lon="151.2900659">
  <ele>343.09</ele>
  <time>2026-09-01T19:55:03Z</time>
  <course>12.62</course>
  <speed>0.0</speed>
  <fix>3d</fix>
</trkpt>
<trkpt lat="-27.2744127" lon="151.290066">
  <ele>343.07</ele>
  <time>2026-09-01T19:55:03Z</time>
  <course>14.52</course>
  <speed>0.022360679774997897</speed>
  <fix>3d</fix>
</trkpt>
<trkpt lat="-27.2744125" lon="151.2900659">
  <ele>343.09</ele>
  <time>2026-09-01T19:55:03Z</time>
  <course>12.62</course>
  <speed>0.0</speed>
  <fix>3d</fix>
</trkpt>
<trkpt lat="-27.2744127" lon="151.290066">
  <ele>343.07</ele>
  <time>2026-09-01T19:55:03Z</time>
  <course>14.52</course>
  <speed>0.022360679774997897</speed>
  <fix>3d</fix>
</trkpt>
<trkpt lat="-27.2744125" lon="151.2900659">
  <ele>343.09</ele>
  <time>2026-09-01T19:55:03Z</time>
  <course>12.62</course>
  <speed>0.0</speed>
  <fix>3d</fix>
</trkpt>
<trkpt lat="-27.2744127" lon="151.290066">
  <ele>343.07</ele>
  <time>2026-09-01T19:55:03Z</time>
  <course>14.52</course>
  <speed>0.022360679774997897</speed>
  <fix>3d</fix>
</trkpt>
<trkpt lat="-27.2744125" lon="151.2900659">
  <ele>343.09</ele>
  <time>2026-09-01T19:55:03Z</time>
  <course>12.62</course>
  <speed>0.0</speed>
  <fix>3d</fix>
</trkpt>
<trkpt lat="-27.2744127" lon="151.290066">
  <ele>343.07</ele>
  <time>2026-09-01T19:55:03Z</time>
  <course>14.52</course>
  <speed>0.022360679774997897</speed>
  <fix>3d</fix>
</trkpt>
<trkpt lat="-27.2744125" lon="151.2900659">
  <ele>343.09</ele>
  <time>2026-09-01T19:55:03Z</time>
  <course>12.62</course>
  <speed>0.0</speed>
  <fix>3d</fix>
</trkpt>
<trkpt lat="-27.2744127" lon="151.290066">
  <ele>343.08</ele>
  <time>2026-09-01T19:55:03Z</time>
  <course>14.52</course>
  <speed>0.022360679774997897</speed>
  <fix>3d</fix>
</trkpt>
<trkpt lat="-27.2744125" lon="151.2900659">
  <ele>343.09</ele>
  <time>2026-09-01T19:55:03Z</time>
  <course>12.62</course>
  <speed>0.0</speed>
  <fix>3d</fix>
</trkpt>
<trkpt lat="-27.2744127" lon="151.290066">
  <ele>343.08</ele>
  <time>2026-09-01T19:55:03Z</time>
  <course>14.52</course>
  <speed>0.022360679774997897</speed>
  <fix>3d</fix>
</trkpt>
<trkpt lat="-27.2744125" lon="151.2900659">
  <ele>343.09</ele>
  <time>2026-09-01T19:55:03Z</time>
  <course>12.62</course>
  <speed>0.0</speed>
  <fix>3d</fix>
</trkpt>
<trkpt lat="-27.2744127" lon="151.290066">
  <ele>343.07</ele>
  <time>2026-09-01T19:55:03Z</time>
  <course>14.52</course>
  <speed>0.022360679774997897</speed>
  <fix>3d</fix>
</trkpt>
<trkpt lat="-27.2744125" lon="151.2900659">
  <ele>343.09</ele>
  <time>2026-09-01T19:55:03Z</time>
  <course>12.62</course>
  <speed>0.0</speed>
  <fix>3d</fix>
</trkpt>
<trkpt lat="-27.2744127" lon="151.290066">
  <ele>343.07</ele>
  <time>2026-09-01T19:55:03Z</time>
  <course>14.52</course>
  <speed>0.022360679774997897</speed>
  <fix>3d</fix>
</trkpt>
<trkpt lat="-27.2744125" lon="151.2900659">
  <ele>343.09</ele>
  <time>2026-09-01T19:55:03Z</time>
  <course>12.62</course>
  <speed>0.0</speed>
  <fix>3d</fix>
</trkpt>
<trkpt lat="-27.2744127" lon="151.290066">
  <ele>343.07</ele>
  <time>2026-09-01T19:55:03Z</time>
  <course>14.52</course>
  <speed>0.022360679774997897</speed>
  <fix>3d</fix>
</trkpt>
<trkpt lat="-27.2744125" lon="151.2900659">
  <ele>343.09</ele>
  <time>2026-09-01T19:55:03Z</time>
  <course>12.62</course>
  <speed>0.0</speed>
  <fix>3d</fix>
</trkpt>
<trkpt lat="-27.2744127" lon="151.290066">
  <ele>343.07</ele>
  <time>2026-09-01T19:55:03Z</time>
  <course>14.52</course>
  <speed>0.022360679774997897</speed>
  <fix>3d</fix>
</trkpt>
<trkpt lat="-27.2744125" lon="151.2900659">
  <ele>343.09</ele>
  <time>2026-09-01T19:55:03Z</time>
  <course>12.62</course>
  <speed>0.0</speed>
  <fix>3d</fix>
</trkpt>
<trkpt lat="-27.2744127" lon="151.290066">
  <ele>343.07</ele>
  <time>2026-09-01T19:55:03Z</time>
  <course>14.52</course>
  <speed>0.022360679774997897</speed>
  <fix>3d</fix>
</trkpt>
<trkpt lat="-27.2744125" lon="151.2900659">
  <ele>343.09</ele>
  <time>2026-09-01T19:55:03Z</time>
  <course>12.62</course>
  <speed>0.0</speed>
  <fix>3d</fix>
</trkpt>
<trkpt lat="-27.2744127" lon="151.290066">
  <ele>343.07</ele>
  <time>2026-09-01T19:55:03Z</time>
  <course>14.52</course>
  <speed>0.022360679774997897</speed>
  <fix>3d</fix>
</trkpt>
<trkpt lat="-27.2744125" lon="151.2900659">
  <ele>343.09</ele>
  <time>2026-09-01T19:55:03Z</time>
  <course>12.62</course>
  <speed>0.0</speed>
  <fix>3d</fix>
</trkpt>
<trkpt lat="-27.2744127" lon="151.290066">
  <ele>343.07</ele>
  <time>2026-09-01T19:55:03Z</time>
  <course>14.52</course>
  <speed>0.022360679774997897</speed>
  <fix>3d</fix>
</trkpt>
<trkpt lat="-27.2744125" lon="151.2900659">
  <ele>343.09</ele>
  <time>2026-09-01T19:55:03Z</time>
  <course>12.62</course>
  <speed>0.0</speed>
  <fix>3d</fix>
</trkpt>
<trkpt lat="-27.2744127" lon="151.290066">
  <ele>343.07</ele>
  <time>2026-09-01T19:55:03Z</time>
  <course>14.52</course>
  <speed>0.022360679774997897</speed>
  <fix>3d</fix>
</trkpt>
<trkpt lat="-27.2744125" lon="151.2900659">
  <ele>343.09</ele>
  <time>2026-09-01T19:55:03Z</time>
  <course>12.62</course>
  <speed>0.0</speed>
  <fix>3d</fix>
</trkpt>
<trkpt lat="-27.2744127" lon="151.290066">
  <ele>343.07</ele>
  <time>2026-09-01T19:55:03Z</time>
  <course>14.52</course>
  <speed>0.022360679774997897</speed>
  <fix>3d</fix>
</trkpt>
<trkpt lat="-27.2744125" lon="151.2900659">
  <ele>343.09</ele>
  <time>2026-09-01T19:55:03Z</time>
  <course>12.62</course>
  <speed>0.0</speed>
  <fix>3d</fix>
</trkpt>
<trkpt lat="-27.2744127" lon="151.290066">
  <ele>343.07</ele>
  <time>2026-09-01T19:55:03Z</time>
  <course>14.52</course>
  <speed>0.022360679774997897</speed>
  <fix>3d</fix>
</trkpt>
<trkpt lat="-27.2744125" lon="151.2900659">
  <ele>343.09</ele>
  <time>2026-09-01T19:55:03Z</time>
  <course>12.62</course>
  <speed>0.0</speed>
  <fix>3d</fix>
</trkpt>
<trkpt lat="-27.2744127" lon="151.290066">
  <ele>343.07</ele>
  <time>2026-09-01T19:55:03Z</time>
  <course>14.52</course>
  <speed>0.022360679774997897</speed>
  <fix>3d</fix>
</trkpt>
<trkpt lat="-27.2744125" lon="151.2900659">
  <ele>343.09</ele>
  <time>2026-09-01T19:55:03Z</time>
  <course>12.62</course>
  <speed>0.0</speed>
  <fix>3d</fix>
</trkpt>
<trkpt lat="-27.2744127" lon="151.290066">
  <ele>343.07</ele>
  <time>2026-09-01T19:55:03Z</time>
  <course>14.52</course>
  <speed>0.022360679774997897</speed>
  <fix>3d</fix>
</trkpt>
<trkpt lat="-27.2744125" lon="151.2900659">
  <ele>343.09</ele>
  <time>2026-09-01T19:55:03Z</time>
  <course>12.62</course>
  <speed>0.0</speed>
  <fix>3d</fix>
</trkpt>
<trkpt lat="-27.2744127" lon="151.290066">
  <ele>343.07</ele>
  <time>2026-09-01T19:55:03Z</time>
  <course>14.52</course>
  <speed>0.022360679774997897</speed>
  <fix>3d</fix>
</trkpt>
<trkpt lat="-27.2744125" lon="151.2900659">
  <ele>343.09</ele>
  <time>2026-09-01T19:55:03Z</time>
  <course>12.62</course>
  <speed>0.0</speed>
  <fix>3d</fix>
</trkpt>
<trkpt lat="-27.2744127" lon="151.290066">
  <ele>343.07</ele>
  <time>2026-09-01T19:55:03Z</time>
  <course>14.52</course>
  <speed>0.022360679774997897</speed>
  <fix>3d</fix>
</trkpt>
<trkpt lat="-27.2744125" lon="151.2900659">
  <ele>343.09</ele>
  <time>2026-09-01T19:55:03Z</time>
  <course>12.62</course>
  <speed>0.0</speed>
  <fix>3d</fix>
</trkpt>
<trkpt lat="-27.2744127" lon="151.290066">
  <ele>343.06</ele>
  <time>2026-09-01T19:55:03Z</time>
  <course>14.52</course>
  <speed>0.022360679774997897</speed>
  <fix>3d</fix>
</trkpt>
<trkpt lat="-27.2744125" lon="151.2900659">
  <ele>343.09</ele>
  <time>2026-09-01T19:55:03Z</time>
  <course>12.62</course>
  <speed>0.0</speed>
  <fix>3d</fix>
</trkpt>
<trkpt lat="-27.2744127" lon="151.290066">
  <ele>343.06</ele>
  <time>2026-09-01T19:55:03Z</time>
  <course>14.52</course>
  <speed>0.022360679774997897</speed>
  <fix>3d</fix>
</trkpt>
<trkpt lat="-27.2744125" lon="151.2900659">
  <ele>343.09</ele>
  <time>2026-09-01T19:55:03Z</time>
  <course>12.62</course>
  <speed>0.0</speed>
  <fix>3d</fix>
</trkpt>
<trkpt lat="-27.2744127" lon="151.290066">
  <ele>343.06</ele>
  <time>2026-09-01T19:55:03Z</time>
  <course>14.52</course>
  <speed>0.022360679774997897</speed>
  <fix>3d</fix>
</trkpt>
<trkpt lat="-27.2744125" lon="151.2900659">
  <ele>343.09</ele>
  <time>2026-09-01T19:55:03Z</time>
  <course>12.62</course>
  <speed>0.0</speed>
  <fix>3d</fix>
</trkpt>
<trkpt lat="-27.2744127" lon="151.290066">
  <ele>343.06</ele>
  <time>2026-09-01T19:55:03Z</time>
  <course>14.52</course>
  <speed>0.022360679774997897</speed>
  <fix>3d</fix>
</trkpt>
<trkpt lat="-27.2744125" lon="151.2900659">
  <ele>343.09</ele>
  <time>2026-09-01T19:55:03Z</time>
  <course>12.62</course>
  <speed>0.0</speed>
  <fix>3d</fix>
</trkpt>
<trkpt lat="-27.2744127" lon="151.290066">
  <ele>343.06</ele>
  <time>2026-09-01T19:55:03Z</time>
  <course>14.52</course>
  <speed>0.022360679774997897</speed>
  <fix>3d</fix>
</trkpt>
<trkpt lat="-27.2744125" lon="151.2900659">
  <ele>343.09</ele>
  <time>2026-09-01T19:55:03Z</time>
  <course>12.62</course>
  <speed>0.0</speed>
  <fix>3d</fix>
</trkpt>
<trkpt lat="-27.2744127" lon="151.290066">
  <ele>343.06</ele>
  <time>2026-09-01T19:55:03Z</time>
  <course>14.52</course>
  <speed>0.022360679774997897</speed>
  <fix>3d</fix>
</trkpt>
<trkpt lat="-27.2744125" lon="151.2900659">
  <ele>343.09</ele>
  <time>2026-09-01T19:55:03Z</time>
  <course>12.62</course>
  <speed>0.0</speed>
  <fix>3d</fix>
</trkpt>
<trkpt lat="-27.2744127" lon="151.290066">
  <ele>343.06</ele>
  <time>2026-09-01T19:55:03Z</time>
  <course>14.52</course>
  <speed>0.022360679774997897</speed>
  <fix>3d</fix>
</trkpt>
<trkpt lat="-27.2744125" lon="151.2900659">
  <ele>343.09</ele>
  <time>2026-09-01T19:55:03Z</time>
  <course>12.62</course>
  <speed>0.0</speed>
  <fix>3d</fix>
</trkpt>
<trkpt lat="-27.2744127" lon="151.290066">
  <ele>343.06</ele>
  <time>2026-09-01T19:55:03Z</time>
  <course>14.52</course>
  <speed>0.022360679774997897</speed>
  <fix>3d</fix>
</trkpt>
<trkpt lat="-27.2744125" lon="151.2900659">
  <ele>343.09</ele>
  <time>2026-09-01T19:55:03Z</time>
  <course>12.62</course>
  <speed>0.0</speed>
  <fix>3d</fix>
</trkpt>
<trkpt lat="-27.2744127" lon="151.290066">
  <ele>343.06</ele>
  <time>2026-09-01T19:55:03Z</time>
  <course>14.52</course>
  <speed>0.022360679774997897</speed>
  <fix>3d</fix>
</trkpt>
<trkpt lat="-27.2744125" lon="151.2900659">
  <ele>343.09</ele>
  <time>2026-09-01T19:55:03Z</time>
  <course>12.62</course>
  <speed>0.0</speed>
  <fix>3d</fix>
</trkpt>
<trkpt lat="-27.2744127" lon="151.290066">
  <ele>343.06</ele>
  <time>2026-09-01T19:55:03Z</time>
  <course>14.52</course>
  <speed>0.022360679774997897</speed>
  <fix>3d</fix>
</trkpt>
<trkpt lat="-27.2744125" lon="151.2900659">
  <ele>343.09</ele>
  <time>2026-09-01T19:55:03Z</time>
  <course>12.62</course>
  <speed>0.0</speed>
  <fix>3d</fix>
</trkpt>
<trkpt lat="-27.2744127" lon="151.290066">
  <ele>343.06</ele>
  <time>2026-09-01T19:55:03Z</time>
  <course>14.52</course>
  <speed>0.022360679774997897</speed>
  <fix>3d</fix>
</trkpt>
<trkpt lat="-27.2744125" lon="151.2900659">
  <ele>343.09</ele>
  <time>2026-09-01T19:55:03Z</time>
  <course>12.62</course>
  <speed>0.0</speed>
  <fix>3d</fix>
</trkpt>
<trkpt lat="-27.2744127" lon="151.290066">
  <ele>343.06</ele>
  <time>2026-09-01T19:55:03Z</time>
  <course>14.52</course>
  <speed>0.022360679774997897</speed>
  <fix>3d</fix>
</trkpt>
<trkpt lat="-27.2744125" lon="151.2900659">
  <ele>343.09</ele>
  <time>2026-09-01T19:55:03Z</time>
  <course>12.62</course>
  <speed>0.0</speed>
  <fix>3d</fix>
</trkpt>
<trkpt lat="-27.2744127" lon="151.290066">
  <ele>343.07</ele>
  <time>2026-09-01T19:55:03Z</time>
  <course>14.52</course>
  <speed>0.022360679774997897</speed>
  <fix>3d</fix>
</trkpt>
<trkpt lat="-27.2744125" lon="151.2900659">
  <ele>343.09</ele>
  <time>2026-09-01T19:55:03Z</time>
  <course>12.62</course>
  <speed>0.0</speed>
  <fix>3d</fix>
</trkpt>
<trkpt lat="-27.2744127" lon="151.290066">
  <ele>343.07</ele>
  <time>2026-09-01T19:55:03Z</time>
  <course>14.52</course>
  <speed>0.022360679774997897</speed>
  <fix>3d</fix>
</trkpt>
<trkpt lat="-27.2744125" lon="151.2900659">
  <ele>343.09</ele>
  <time>2026-09-01T19:55:03Z</time>
  <course>12.62</course>
  <speed>0.0</speed>
  <fix>3d</fix>
</trkpt>
<trkpt lat="-27.2744127" lon="151.290066">
  <ele>343.07</ele>
  <time>2026-09-01T19:55:03Z</time>
  <course>14.52</course>
  <speed>0.022360679774997897</speed>
  <fix>3d</fix>
</trkpt>
<trkpt lat="-27.2744125" lon="151.2900659">
  <ele>343.09</ele>
  <time>2026-09-01T19:55:03Z</time>
  <course>12.62</course>
  <speed>0.0</speed>
  <fix>3d</fix>
</trkpt>
<trkpt lat="-27.2744127" lon="151.290066">
  <ele>343.07</ele>
  <time>2026-09-01T19:55:03Z</time>
  <course>14.52</course>
  <speed>0.022360679774997897</speed>
  <fix>3d</fix>
</trkpt>
<trkpt lat="-27.2744125" lon="151.2900659">
  <ele>343.09</ele>
  <time>2026-09-01T19:55:03Z</time>
  <course>12.62</course>
  <speed>0.0</speed>
  <fix>3d</fix>
</trkpt>
<trkpt lat="-27.2744127" lon="151.290066">
  <ele>343.07</ele>
  <time>2026-09-01T19:55:03Z</time>
  <course>14.52</course>
  <speed>0.022360679774997897</speed>
  <fix>3d</fix>
</trkpt>
<trkpt lat="-27.2744125" lon="151.2900659">
  <ele>343.09</ele>
  <time>2026-09-01T19:55:03Z</time>
  <course>12.62</course>
  <speed>0.0</speed>
  <fix>3d</fix>
</trkpt>
<trkpt lat="-27.2744127" lon="151.290066">
  <ele>343.08</ele>
  <time>2026-09-01T19:55:03Z</time>
  <course>14.52</course>
  <speed>0.022360679774997897</speed>
  <fix>3d</fix>
</trkpt>
<trkpt lat="-27.2744125" lon="151.2900659">
  <ele>343.09</ele>
  <time>2026-09-01T19:55:03Z</time>
  <course>12.62</course>
  <speed>0.0</speed>
  <fix>3d</fix>
</trkpt>
<trkpt lat="-27.2744127" lon="151.290066">
  <ele>343.08</ele>
  <time>2026-09-01T19:55:03Z</time>
  <course>14.52</course>
  <speed>0.022360679774997897</speed>
  <fix>3d</fix>
</trkpt>
<trkpt lat="-27.2744125" lon="151.2900659">
  <ele>343.09</ele>
  <time>2026-09-01T19:55:03Z</time>
  <course>12.62</course>
  <speed>0.0</speed>
  <fix>3d</fix>
</trkpt>
<trkpt lat="-27.2744127" lon="151.290066">
  <ele>343.08</ele>
  <time>2026-09-01T19:55:03Z</time>
  <course>14.52</course>
  <speed>0.022360679774997897</speed>
  <fix>3d</fix>
</trkpt>
<trkpt lat="-27.2744125" lon="151.2900659">
  <ele>343.09</ele>
  <time>2026-09-01T19:55:03Z</time>
  <course>12.62</course>
  <speed>0.0</speed>
  <fix>3d</fix>
</trkpt>
<trkpt lat="-27.2744127" lon="151.290066">
  <ele>343.08</ele>
  <time>2026-09-01T19:55:03Z</time>
  <course>14.52</course>
  <speed>0.022360679774997897</speed>
  <fix>3d</fix>
</trkpt>
<trkpt lat="-27.2744125" lon="151.2900659">
  <ele>343.09</ele>
  <time>2026-09-01T19:55:03Z</time>
  <course>12.62</course>
  <speed>0.0</speed>
  <fix>3d</fix>
</trkpt>
<trkpt lat="-27.2744127" lon="151.290066">
  <ele>343.08</ele>
  <time>2026-09-01T19:55:03Z</time>
  <course>14.52</course>
  <speed>0.022360679774997897</speed>
  <fix>3d</fix>
</trkpt>
<trkpt lat="-27.2744125" lon="151.2900659">
  <ele>343.09</ele>
  <time>2026-09-01T19:55:03Z</time>
  <course>12.62</course>
  <speed>0.0</speed>
  <fix>3d</fix>
</trkpt>
<trkpt lat="-27.2744127" lon="151.290066">
  <ele>343.08</ele>
  <time>2026-09-01T19:55:03Z</time>
  <course>14.52</course>
  <speed>0.022360679774997897</speed>
  <fix>3d</fix>
</trkpt>
<trkpt lat="-27.2744125" lon="151.2900659">
  <ele>343.09</ele>
  <time>2026-09-01T19:55:03Z</time>
  <course>12.62</course>
  <speed>0.0</speed>
  <fix>3d</fix>
</trkpt>
<trkpt lat="-27.2744127" lon="151.290066">
  <ele>343.09</ele>
  <time>2026-09-01T19:55:03Z</time>
  <course>14.52</course>
  <speed>0.022360679774997897</speed>
  <fix>3d</fix>
</trkpt>
<trkpt lat="-27.2744125" lon="151.2900659">
  <ele>343.09</ele>
  <time>2026-09-01T19:55:03Z</time>
  <course>12.62</course>
  <speed>0.0</speed>
  <fix>3d</fix>
</trkpt>
<trkpt lat="-27.2744127" lon="151.290066">
  <ele>343.09</ele>
  <time>2026-09-01T19:55:03Z</time>
  <course>14.52</course>
  <speed>0.022360679774997897</speed>
  <fix>3d</fix>
</trkpt>
<trkpt lat="-27.2744125" lon="151.2900659">
  <ele>343.09</ele>
  <time>2026-09-01T19:55:03Z</time>
  <course>12.62</course>
  <speed>0.0</speed>
  <fix>3d</fix>
</trkpt>
<trkpt lat="-27.2744127" lon="151.290066">
  <ele>343.09</ele>
  <time>2026-09-01T19:55:03Z</time>
  <course>14.52</course>
  <speed>0.022360679774997897</speed>
  <fix>3d</fix>
</trkpt>
<trkpt lat="-27.2744125" lon="151.2900659">
  <ele>343.09</ele>
  <time>2026-09-01T19:55:03Z</time>
  <course>12.62</course>
  <speed>0.0</speed>
  <fix>3d</fix>
</trkpt>
<trkpt lat="-27.2744127" lon="151.290066">
  <ele>343.1</ele>
  <time>2026-09-01T19:55:03Z</time>
  <course>14.52</course>
  <speed>0.022360679774997897</speed>
  <fix>3d</fix>
</trkpt>
<trkpt lat="-27.2744125" lon="151.2900659">
  <ele>343.09</ele>
  <time>2026-09-01T19:55:03Z</time>
  <course>12.62</course>
  <speed>0.0</speed>
  <fix>3d</fix>
</trkpt>
<trkpt lat="-27.2744127" lon="151.290066">
  <ele>343.1</ele>
  <time>2026-09-01T19:55:03Z</time>
  <course>14.52</course>
  <speed>0.022360679774997897</speed>
  <fix>3d</fix>
</trkpt>
<trkpt lat="-27.2744125" lon="151.2900659">
  <ele>343.09</ele>
  <time>2026-09-01T19:55:03Z</time>
  <course>12.62</course>
  <speed>0.0</speed>
  <fix>3d</fix>
</trkpt>
<trkpt lat="-27.2744127" lon="151.290066">
  <ele>343.11</ele>
  <time>2026-09-01T19:55:03Z</time>
  <course>14.52</course>
  <speed>0.022360679774997897</speed>
  <fix>3d</fix>
</trkpt>
<trkpt lat="-27.2744125" lon="151.2900659">
  <ele>343.09</ele>
  <time>2026-09-01T19:55:03Z</time>
  <course>12.62</course>
  <speed>0.0</speed>
  <fix>3d</fix>
</trkpt>
<trkpt lat="-27.2744127" lon="151.290066">
  <ele>343.11</ele>
  <time>2026-09-01T19:55:03Z</time>
  <course>14.52</course>
  <speed>0.022360679774997897</speed>
  <fix>3d</fix>
</trkpt>
<trkpt lat="-27.2744125" lon="151.2900659">
  <ele>343.09</ele>
  <time>2026-09-01T19:55:03Z</time>
  <course>12.62</course>
  <speed>0.0</speed>
  <fix>3d</fix>
</trkpt>
<trkpt lat="-27.2744127" lon="151.290066">
  <ele>343.12</ele>
  <time>2026-09-01T19:55:03Z</time>
  <course>14.52</course>
  <speed>0.022360679774997897</speed>
  <fix>3d</fix>
</trkpt>
<trkpt lat="-27.2744125" lon="151.2900659">
  <ele>343.09</ele>
  <time>2026-09-01T19:55:03Z</time>
  <course>12.62</course>
  <speed>0.0</speed>
  <fix>3d</fix>
</trkpt>
<trkpt lat="-27.2744127" lon="151.290066">
  <ele>343.12</ele>
  <time>2026-09-01T19:55:03Z</time>
  <course>14.52</course>
  <speed>0.022360679774997897</speed>
  <fix>3d</fix>
</trkpt>
<trkpt lat="-27.2744125" lon="151.2900659">
  <ele>343.09</ele>
  <time>2026-09-01T19:55:03Z</time>
  <course>12.62</course>
  <speed>0.0</speed>
  <fix>3d</fix>
</trkpt>
<trkpt lat="-27.2744127" lon="151.290066">
  <ele>343.13</ele>
  <time>2026-09-01T19:55:03Z</time>
  <course>14.52</course>
  <speed>0.022360679774997897</speed>
  <fix>3d</fix>
</trkpt>
<trkpt lat="-27.2744125" lon="151.2900659">
  <ele>343.09</ele>
  <time>2026-09-01T19:55:03Z</time>
  <course>12.62</course>
  <speed>0.0</speed>
  <fix>3d</fix>
</trkpt>
<trkpt lat="-27.2744127" lon="151.290066">
  <ele>343.13</ele>
  <time>2026-09-01T19:55:03Z</time>
  <course>14.52</course>
  <speed>0.022360679774997897</speed>
  <fix>3d</fix>
</trkpt>
<trkpt lat="-27.2744125" lon="151.2900659">
  <ele>343.09</ele>
  <time>2026-09-01T19:55:03Z</time>
  <course>12.62</course>
  <speed>0.0</speed>
  <fix>3d</fix>
</trkpt>
<trkpt lat="-27.2744127" lon="151.290066">
  <ele>343.13</ele>
  <time>2026-09-01T19:55:03Z</time>
  <course>14.52</course>
  <speed>0.022360679774997897</speed>
  <fix>3d</fix>
</trkpt>
<trkpt lat="-27.2744125" lon="151.2900659">
  <ele>343.09</ele>
  <time>2026-09-01T19:55:03Z</time>
  <course>12.62</course>
  <speed>0.0</speed>
  <fix>3d</fix>
</trkpt>
<trkpt lat="-27.2744127" lon="151.290066">
  <ele>343.13</ele>
  <time>2026-09-01T19:55:03Z</time>
  <course>14.53</course>
  <speed>0.022360679774997897</speed>
  <fix>3d</fix>
</trkpt>
<trkpt lat="-27.2744125" lon="151.2900659">
  <ele>343.09</ele>
  <time>2026-09-01T19:55:03Z</time>
  <course>12.62</course>
  <speed>0.0</speed>
  <fix>3d</fix>
</trkpt>
<trkpt lat="-27.2744127" lon="151.290066">
  <ele>343.13</ele>
  <time>2026-09-01T19:55:03Z</time>
  <course>14.53</course>
  <speed>0.022360679774997897</speed>
  <fix>3d</fix>
</trkpt>
<trkpt lat="-27.2744125" lon="151.2900659">
  <ele>343.09</ele>
  <time>2026-09-01T19:55:03Z</time>
  <course>12.62</course>
  <speed>0.0</speed>
  <fix>3d</fix>
</trkpt>
<trkpt lat="-27.2744127" lon="151.290066">
  <ele>343.14</ele>
  <time>2026-09-01T19:55:03Z</time>
  <course>14.53</course>
  <speed>0.022360679774997897</speed>
  <fix>3d</fix>
</trkpt>
<trkpt lat="-27.2744125" lon="151.2900659">
  <ele>343.09</ele>
  <time>2026-09-01T19:55:03Z</time>
  <course>12.62</course>
  <speed>0.0</speed>
  <fix>3d</fix>
</trkpt>
<trkpt lat="-27.2744127" lon="151.290066">
  <ele>343.14</ele>
  <time>2026-09-01T19:55:03Z</time>
  <course>14.53</course>
  <speed>0.022360679774997897</speed>
  <fix>3d</fix>
</trkpt>
<trkpt lat="-27.2744125" lon="151.2900659">
  <ele>343.09</ele>
  <time>2026-09-01T19:55:03Z</time>
  <course>12.62</course>
  <speed>0.0</speed>
  <fix>3d</fix>
</trkpt>
<trkpt lat="-27.2744127" lon="151.290066">
  <ele>343.14</ele>
  <time>2026-09-01T19:55:03Z</time>
  <course>14.53</course>
  <speed>0.022360679774997897</speed>
  <fix>3d</fix>
</trkpt>
<trkpt lat="-27.2744125" lon="151.2900659">
  <ele>343.09</ele>
  <time>2026-09-01T19:55:03Z</time>
  <course>12.62</course>
  <speed>0.0</speed>
  <fix>3d</fix>
</trkpt>
<trkpt lat="-27.2744127" lon="151.290066">
  <ele>343.14</ele>
  <time>2026-09-01T19:55:03Z</time>
  <course>14.53</course>
  <speed>0.022360679774997897</speed>
  <fix>3d</fix>
</trkpt>
<trkpt lat="-27.2744125" lon="151.2900659">
  <ele>343.09</ele>
  <time>2026-09-01T19:55:03Z</time>
  <course>12.62</course>
  <speed>0.0</speed>
  <fix>3d</fix>
</trkpt>
<trkpt lat="-27.2744127" lon="151.290066">
  <ele>343.15</ele>
  <time>2026-09-01T19:55:03Z</time>
  <course>14.53</course>
  <speed>0.022360679774997897</speed>
  <fix>3d</fix>
</trkpt>
<trkpt lat="-27.2744125" lon="151.2900659">
  <ele>343.09</ele>
  <time>2026-09-01T19:55:03Z</time>
  <course>12.62</course>
  <speed>0.0</speed>
  <fix>3d</fix>
</trkpt>
<trkpt lat="-27.2744127" lon="151.290066">
  <ele>343.15</ele>
  <time>2026-09-01T19:55:03Z</time>
  <course>14.53</course>
  <speed>0.022360679774997897</speed>
  <fix>3d</fix>
</trkpt>
<trkpt lat="-27.2744125" lon="151.2900659">
  <ele>343.09</ele>
  <time>2026-09-01T19:55:03Z</time>
  <course>12.62</course>
  <speed>0.0</speed>
  <fix>3d</fix>
</trkpt>
<trkpt lat="-27.2744127" lon="151.290066">
  <ele>343.15</ele>
  <time>2026-09-01T19:55:03Z</time>
  <course>14.53</course>
  <speed>0.022360679774997897</speed>
  <fix>3d</fix>
</trkpt>
<trkpt lat="-27.2744125" lon="151.2900659">
  <ele>343.09</ele>
  <time>2026-09-01T19:55:03Z</time>
  <course>12.62</course>
  <speed>0.0</speed>
  <fix>3d</fix>
</trkpt>
<trkpt lat="-27.2744127" lon="151.290066">
  <ele>343.15</ele>
  <time>2026-09-01T19:55:03Z</time>
  <course>14.53</course>
  <speed>0.022360679774997897</speed>
  <fix>3d</fix>
</trkpt>
<trkpt lat="-27.2744125" lon="151.2900659">
  <ele>343.09</ele>
  <time>2026-09-01T19:55:03Z</time>
  <course>12.62</course>
  <speed>0.0</speed>
  <fix>3d</fix>
</trkpt>
<trkpt lat="-27.2744127" lon="151.290066">
  <ele>343.16</ele>
  <time>2026-09-01T19:55:03Z</time>
  <course>14.53</course>
  <speed>0.022360679774997897</speed>
  <fix>3d</fix>
</trkpt>
<trkpt lat="-27.2744125" lon="151.2900659">
  <ele>343.09</ele>
  <time>2026-09-01T19:55:03Z</time>
  <course>12.62</course>
  <speed>0.0</speed>
  <fix>3d</fix>
</trkpt>
<trkpt lat="-27.2744127" lon="151.290066">
  <ele>343.16</ele>
  <time>2026-09-01T19:55:03Z</time>
  <course>14.53</course>
  <speed>0.022360679774997897</speed>
  <fix>3d</fix>
</trkpt>
<trkpt lat="-27.2744125" lon="151.2900659">
  <ele>343.09</ele>
  <time>2026-09-01T19:55:03Z</time>
  <course>12.62</course>
  <speed>0.0</speed>
  <fix>3d</fix>
</trkpt>
<trkpt lat="-27.2744127" lon="151.290066">
  <ele>343.16</ele>
  <time>2026-09-01T19:55:03Z</time>
  <course>14.53</course>
  <speed>0.022360679774997897</speed>
  <fix>3d</fix>
</trkpt>
<trkpt lat="-27.2744125" lon="151.2900659">
  <ele>343.09</ele>
  <time>2026-09-01T19:55:03Z</time>
  <course>12.62</course>
  <speed>0.0</speed>
  <fix>3d</fix>
</trkpt>
<trkpt lat="-27.2744127" lon="151.290066">
  <ele>343.17</ele>
  <time>2026-09-01T19:55:03Z</time>
  <course>14.53</course>
  <speed>0.022360679774997897</speed>
  <fix>3d</fix>
</trkpt>
<trkpt lat="-27.2744125" lon="151.2900659">
  <ele>343.09</ele>
  <time>2026-09-01T19:55:03Z</time>
  <course>12.62</course>
  <speed>0.0</speed>
  <fix>3d</fix>
</trkpt>
<trkpt lat="-27.2744127" lon="151.290066">
  <ele>343.17</ele>
  <time>2026-09-01T19:55:03Z</time>
  <course>14.53</course>
  <speed>0.022360679774997897</speed>
  <fix>3d</fix>
</trkpt>
<trkpt lat="-27.2744125" lon="151.2900659">
  <ele>343.09</ele>
  <time>2026-09-01T19:55:03Z</time>
  <course>12.62</course>
  <speed>0.0</speed>
  <fix>3d</fix>
</trkpt>
<trkpt lat="-27.2744127" lon="151.290066">
  <ele>343.17</ele>
  <time>2026-09-01T19:55:04Z</time>
  <course>14.53</course>
  <speed>0.022360679774997897</speed>
  <fix>3d</fix>
</trkpt>
<trkpt lat="-27.2744125" lon="151.2900659">
  <ele>343.09</ele>
  <time>2026-09-01T19:55:04Z</time>
  <course>12.62</course>
  <speed>0.0</speed>
  <fix>3d</fix>
</trkpt>
<trkpt lat="-27.2744127" lon="151.290066">
  <ele>343.17</ele>
  <time>2026-09-01T19:55:04Z</time>
  <course>14.53</course>
  <speed>0.022360679774997897</speed>
  <fix>3d</fix>
</trkpt>
<trkpt lat="-27.2744125" lon="151.2900659">
  <ele>343.09</ele>
  <time>2026-09-01T19:55:04Z</time>
  <course>12.62</course>
  <speed>0.0</speed>
  <fix>3d</fix>
</trkpt>
<trkpt lat="-27.2744127" lon="151.290066">
  <ele>343.18</ele>
  <time>2026-09-01T19:55:04Z</time>
  <course>14.53</course>
  <speed>0.022360679774997897</speed>
  <fix>3d</fix>
</trkpt>
<trkpt lat="-27.2744125" lon="151.2900659">
  <ele>343.09</ele>
  <time>2026-09-01T19:55:04Z</time>
  <course>12.62</course>
  <speed>0.0</speed>
  <fix>3d</fix>
</trkpt>
<trkpt lat="-27.2744127" lon="151.290066">
  <ele>343.18</ele>
  <time>2026-09-01T19:55:04Z</time>
  <course>14.53</course>
  <speed>0.022360679774997897</speed>
  <fix>3d</fix>
</trkpt>
<trkpt lat="-27.2744125" lon="151.2900659">
  <ele>343.09</ele>
  <time>2026-09-01T19:55:04Z</time>
  <course>12.62</course>
  <speed>0.0</speed>
  <fix>3d</fix>
</trkpt>
<trkpt lat="-27.2744127" lon="151.290066">
  <ele>343.18</ele>
  <time>2026-09-01T19:55:04Z</time>
  <course>14.53</course>
  <speed>0.022360679774997897</speed>
  <fix>3d</fix>
</trkpt>
<trkpt lat="-27.2744125" lon="151.2900659">
  <ele>343.09</ele>
  <time>2026-09-01T19:55:04Z</time>
  <course>12.62</course>
  <speed>0.0</speed>
  <fix>3d</fix>
</trkpt>
<trkpt lat="-27.2744127" lon="151.290066">
  <ele>343.19</ele>
  <time>2026-09-01T19:55:04Z</time>
  <course>14.53</course>
  <speed>0.022360679774997897</speed>
  <fix>3d</fix>
</trkpt>
<trkpt lat="-27.2744125" lon="151.2900659">
  <ele>343.09</ele>
  <time>2026-09-01T19:55:04Z</time>
  <course>12.62</course>
  <speed>0.0</speed>
  <fix>3d</fix>
</trkpt>
<trkpt lat="-27.2744127" lon="151.290066">
  <ele>343.19</ele>
  <time>2026-09-01T19:55:04Z</time>
  <course>14.53</course>
  <speed>0.022360679774997897</speed>
  <fix>3d</fix>
</trkpt>
<trkpt lat="-27.2744125" lon="151.2900659">
  <ele>343.09</ele>
  <time>2026-09-01T19:55:04Z</time>
  <course>12.62</course>
  <speed>0.0</speed>
  <fix>3d</fix>
</trkpt>
<trkpt lat="-27.2744127" lon="151.290066">
  <ele>343.19</ele>
  <time>2026-09-01T19:55:04Z</time>
  <course>14.53</course>
  <speed>0.022360679774997897</speed>
  <fix>3d</fix>
</trkpt>
<trkpt lat="-27.2744125" lon="151.2900659">
  <ele>343.09</ele>
  <time>2026-09-01T19:55:04Z</time>
  <course>12.62</course>
  <speed>0.0</speed>
  <fix>3d</fix>
</trkpt>
<trkpt lat="-27.2744127" lon="151.290066">
  <ele>343.2</ele>
  <time>2026-09-01T19:55:04Z</time>
  <course>14.53</course>
  <speed>0.022360679774997897</speed>
  <fix>3d</fix>
</trkpt>
<trkpt lat="-27.2744125" lon="151.2900659">
  <ele>343.09</ele>
  <time>2026-09-01T19:55:04Z</time>
  <course>12.62</course>
  <speed>0.0</speed>
  <fix>3d</fix>
</trkpt>
<trkpt lat="-27.2744127" lon="151.290066">
  <ele>343.2</ele>
  <time>2026-09-01T19:55:04Z</time>
  <course>14.53</course>
  <speed>0.022360679774997897</speed>
  <fix>3d</fix>
</trkpt>
<trkpt lat="-27.2744125" lon="151.2900659">
  <ele>343.09</ele>
  <time>2026-09-01T19:55:04Z</time>
  <course>12.62</course>
  <speed>0.0</speed>
  <fix>3d</fix>
</trkpt>
<trkpt lat="-27.2744127" lon="151.290066">
  <ele>343.2</ele>
  <time>2026-09-01T19:55:04Z</time>
  <course>14.53</course>
  <speed>0.022360679774997897</speed>
  <fix>3d</fix>
</trkpt>
<trkpt lat="-27.2744125" lon="151.2900659">
  <ele>343.09</ele>
  <time>2026-09-01T19:55:04Z</time>
  <course>12.62</course>
  <speed>0.0</speed>
  <fix>3d</fix>
</trkpt>
<trkpt lat="-27.2744127" lon="151.290066">
  <ele>343.21</ele>
  <time>2026-09-01T19:55:04Z</time>
  <course>14.53</course>
  <speed>0.022360679774997897</speed>
  <fix>3d</fix>
</trkpt>
<trkpt lat="-27.2744125" lon="151.2900659">
  <ele>343.09</ele>
  <time>2026-09-01T19:55:04Z</time>
  <course>12.62</course>
  <speed>0.0</speed>
  <fix>3d</fix>
</trkpt>
<trkpt lat="-27.2744127" lon="151.290066">
  <ele>343.21</ele>
  <time>2026-09-01T19:55:04Z</time>
  <course>14.53</course>
  <speed>0.022360679774997897</speed>
  <fix>3d</fix>
</trkpt>
<trkpt lat="-27.2744125" lon="151.2900659">
  <ele>343.09</ele>
  <time>2026-09-01T19:55:04Z</time>
  <course>12.62</course>
  <speed>0.0</speed>
  <fix>3d</fix>
</trkpt>
<trkpt lat="-27.2744127" lon="151.290066">
  <ele>343.21</ele>
  <time>2026-09-01T19:55:04Z</time>
  <course>14.53</course>
  <speed>0.022360679774997897</speed>
  <fix>3d</fix>
</trkpt>
<trkpt lat="-27.2744125" lon="151.2900659">
  <ele>343.09</ele>
  <time>2026-09-01T19:55:04Z</time>
  <course>12.62</course>
  <speed>0.0</speed>
  <fix>3d</fix>
</trkpt>
<trkpt lat="-27.2744127" lon="151.290066">
  <ele>343.22</ele>
  <time>2026-09-01T19:55:04Z</time>
  <course>14.53</course>
  <speed>0.022360679774997897</speed>
  <fix>3d</fix>
</trkpt>
<trkpt lat="-27.2744125" lon="151.2900659">
  <ele>343.09</ele>
  <time>2026-09-01T19:55:04Z</time>
  <course>12.62</course>
  <speed>0.0</speed>
  <fix>3d</fix>
</trkpt>
<trkpt lat="-27.2744127" lon="151.290066">
  <ele>343.22</ele>
  <time>2026-09-01T19:55:04Z</time>
  <course>14.53</course>
  <speed>0.022360679774997897</speed>
  <fix>3d</fix>
</trkpt>
<trkpt lat="-27.2744125" lon="151.2900659">
  <ele>343.09</ele>
  <time>2026-09-01T19:55:04Z</time>
  <course>12.62</course>
  <speed>0.0</speed>
  <fix>3d</fix>
</trkpt>
<trkpt lat="-27.2744127" lon="151.290066">
  <ele>343.22</ele>
  <time>2026-09-01T19:55:04Z</time>
  <course>14.53</course>
  <speed>0.022360679774997897</speed>
  <fix>3d</fix>
</trkpt>
<trkpt lat="-27.2744125" lon="151.2900659">
  <ele>343.09</ele>
  <time>2026-09-01T19:55:04Z</time>
  <course>12.62</course>
  <speed>0.0</speed>
  <fix>3d</fix>
</trkpt>
<trkpt lat="-27.2744127" lon="151.290066">
  <ele>343.23</ele>
  <time>2026-09-01T19:55:04Z</time>
  <course>14.53</course>
  <speed>0.022360679774997897</speed>
  <fix>3d</fix>
</trkpt>
<trkpt lat="-27.2744125" lon="151.2900659">
  <ele>343.09</ele>
  <time>2026-09-01T19:55:04Z</time>
  <course>12.62</course>
  <speed>0.0</speed>
  <fix>3d</fix>
</trkpt>
<trkpt lat="-27.2744127" lon="151.290066">
  <ele>343.23</ele>
  <time>2026-09-01T19:55:04Z</time>
  <course>14.53</course>
  <speed>0.022360679774997897</speed>
  <fix>3d</fix>
</trkpt>
<trkpt lat="-27.2744125" lon="151.2900659">
  <ele>343.09</ele>
  <time>2026-09-01T19:55:04Z</time>
  <course>12.62</course>
  <speed>0.0</speed>
  <fix>3d</fix>
</trkpt>
<trkpt lat="-27.2744127" lon="151.290066">
  <ele>343.23</ele>
  <time>2026-09-01T19:55:04Z</time>
  <course>14.53</course>
  <speed>0.022360679774997897</speed>
  <fix>3d</fix>
</trkpt>
<trkpt lat="-27.2744125" lon="151.2900659">
  <ele>343.09</ele>
  <time>2026-09-01T19:55:04Z</time>
  <course>12.62</course>
  <speed>0.0</speed>
  <fix>3d</fix>
</trkpt>
<trkpt lat="-27.2744127" lon="151.290066">
  <ele>343.24</ele>
  <time>2026-09-01T19:55:04Z</time>
  <course>14.53</course>
  <speed>0.022360679774997897</speed>
  <fix>3d</fix>
</trkpt>
<trkpt lat="-27.2744125" lon="151.2900659">
  <ele>343.09</ele>
  <time>2026-09-01T19:55:04Z</time>
  <course>12.62</course>
  <speed>0.0</speed>
  <fix>3d</fix>
</trkpt>
<trkpt lat="-27.2744127" lon="151.290066">
  <ele>343.24</ele>
  <time>2026-09-01T19:55:04Z</time>
  <course>14.53</course>
  <speed>0.022360679774997897</speed>
  <fix>3d</fix>
</trkpt>
<trkpt lat="-27.2744125" lon="151.2900659">
  <ele>343.09</ele>
  <time>2026-09-01T19:55:04Z</time>
  <course>12.62</course>
  <speed>0.0</speed>
  <fix>3d</fix>
</trkpt>
<trkpt lat="-27.2744127" lon="151.290066">
  <ele>343.24</ele>
  <time>2026-09-01T19:55:04Z</time>
  <course>14.53</course>
  <speed>0.022360679774997897</speed>
  <fix>3d</fix>
</trkpt>
<trkpt lat="-27.2744125" lon="151.2900659">
  <ele>343.09</ele>
  <time>2026-09-01T19:55:04Z</time>
  <course>12.62</course>
  <speed>0.0</speed>
  <fix>3d</fix>
</trkpt>
<trkpt lat="-27.2744127" lon="151.290066">
  <ele>343.24</ele>
  <time>2026-09-01T19:55:04Z</time>
  <course>14.53</course>
  <speed>0.022360679774997897</speed>
  <fix>3d</fix>
</trkpt>
<trkpt lat="-27.2744125" lon="151.2900659">
  <ele>343.09</ele>
  <time>2026-09-01T19:55:04Z</time>
  <course>12.62</course>
  <speed>0.0</speed>
  <fix>3d</fix>
</trkpt>
<trkpt lat="-27.2744127" lon="151.290066">
  <ele>343.24</ele>
  <time>2026-09-01T19:55:04Z</time>
  <course>14.53</course>
  <speed>0.022360679774997897</speed>
  <fix>3d</fix>
</trkpt>
<trkpt lat="-27.2744125" lon="151.2900659">
  <ele>343.09</ele>
  <time>2026-09-01T19:55:04Z</time>
  <course>12.62</course>
  <speed>0.0</speed>
  <fix>3d</fix>
</trkpt>
<trkpt lat="-27.2744127" lon="151.290066">
  <ele>343.24</ele>
  <time>2026-09-01T19:55:04Z</time>
  <course>14.53</course>
  <speed>0.022360679774997897</speed>
  <fix>3d</fix>
</trkpt>
<trkpt lat="-27.2744125" lon="151.2900659">
  <ele>343.09</ele>
  <time>2026-09-01T19:55:04Z</time>
  <course>12.62</course>
  <speed>0.0</speed>
  <fix>3d</fix>
</trkpt>
<trkpt lat="-27.2744127" lon="151.290066">
  <ele>343.24</ele>
  <time>2026-09-01T19:55:04Z</time>
  <course>14.53</course>
  <speed>0.022360679774997897</speed>
  <fix>3d</fix>
</trkpt>
<trkpt lat="-27.2744125" lon="151.2900659">
  <ele>343.09</ele>
  <time>2026-09-01T19:55:04Z</time>
  <course>12.62</course>
  <speed>0.0</speed>
  <fix>3d</fix>
</trkpt>
<trkpt lat="-27.2744127" lon="151.290066">
  <ele>343.24</ele>
  <time>2026-09-01T19:55:04Z</time>
  <course>14.53</course>
  <speed>0.022360679774997897</speed>
  <fix>3d</fix>
</trkpt>
<trkpt lat="-27.2744125" lon="151.2900659">
  <ele>343.09</ele>
  <time>2026-09-01T19:55:04Z</time>
  <course>12.62</course>
  <speed>0.0</speed>
  <fix>3d</fix>
</trkpt>
<trkpt lat="-27.2744127" lon="151.290066">
  <ele>343.24</ele>
  <time>2026-09-01T19:55:04Z</time>
  <course>14.53</course>
  <speed>0.022360679774997897</speed>
  <fix>3d</fix>
</trkpt>
<trkpt lat="-27.2744125" lon="151.2900659">
  <ele>343.09</ele>
  <time>2026-09-01T19:55:04Z</time>
  <course>12.62</course>
  <speed>0.0</speed>
  <fix>3d</fix>
</trkpt>
<trkpt lat="-27.2744127" lon="151.290066">
  <ele>343.24</ele>
  <time>2026-09-01T19:55:04Z</time>
  <course>14.53</course>
  <speed>0.022360679774997897</speed>
  <fix>3d</fix>
</trkpt>
<trkpt lat="-27.2744125" lon="151.2900659">
  <ele>343.09</ele>
  <time>2026-09-01T19:55:04Z</time>
  <course>12.62</course>
  <speed>0.0</speed>
  <fix>3d</fix>
</trkpt>
<trkpt lat="-27.2744127" lon="151.290066">
  <ele>343.25</ele>
  <time>2026-09-01T19:55:04Z</time>
  <course>14.53</course>
  <speed>0.022360679774997897</speed>
  <fix>3d</fix>
</trkpt>
<trkpt lat="-27.2744125" lon="151.2900659">
  <ele>343.09</ele>
  <time>2026-09-01T19:55:04Z</time>
  <course>12.62</course>
  <speed>0.0</speed>
  <fix>3d</fix>
</trkpt>
<trkpt lat="-27.2744127" lon="151.290066">
  <ele>343.09</ele>
  <time>2026-09-01T19:55:04Z</time>
  <course>14.53</course>
  <speed>0.022360679774997897</speed>
  <fix>3d</fix>
</trkpt>
<trkpt lat="-27.2744125" lon="151.2900659">
  <ele>343.09</ele>
  <time>2026-09-01T19:55:04Z</time>
  <course>12.62</course>
  <speed>0.0</speed>
  <fix>3d</fix>
</trkpt>
<trkpt lat="-27.2744127" lon="151.290066">
  <ele>343.09</ele>
  <time>2026-09-01T19:55:04Z</time>
  <course>14.53</course>
  <speed>0.022360679774997897</speed>
  <fix>3d</fix>
</trkpt>
<trkpt lat="-27.2744125" lon="151.2900659">
  <ele>343.09</ele>
  <time>2026-09-01T19:55:04Z</time>
  <course>12.62</course>
  <speed>0.0</speed>
  <fix>3d</fix>
</trkpt>
<trkpt lat="-27.2744127" lon="151.290066">
  <ele>343.09</ele>
  <time>2026-09-01T19:55:04Z</time>
  <course>14.53</course>
  <speed>0.022360679774997897</speed>
  <fix>3d</fix>
</trkpt>
<trkpt lat="-27.2744125" lon="151.2900659">
  <ele>343.09</ele>
  <time>2026-09-01T19:55:04Z</time>
  <course>12.62</course>
  <speed>0.0</speed>
  <fix>3d</fix>
</trkpt>
<trkpt lat="-27.2744127" lon="151.290066">
  <ele>343.09</ele>
  <time>2026-09-01T19:55:04Z</time>
  <course>14.53</course>
  <speed>0.022360679774997897</speed>
  <fix>3d</fix>
</trkpt>
<trkpt lat="-27.2744125" lon="151.2900659">
  <ele>343.09</ele>
  <time>2026-09-01T19:55:04Z</time>
  <course>12.62</course>
  <speed>0.0</speed>
  <fix>3d</fix>
</trkpt>
<trkpt lat="-27.2744127" lon="151.290066">
  <ele>343.09</ele>
  <time>2026-09-01T19:55:04Z</time>
  <course>14.53</course>
  <speed>0.022360679774997897</speed>
  <fix>3d</fix>
</trkpt>
<trkpt lat="-27.2744125" lon="151.2900659">
  <ele>343.09</ele>
  <time>2026-09-01T19:55:04Z</time>
  <course>12.62</course>
  <speed>0.0</speed>
  <fix>3d</fix>
</trkpt>
<trkpt lat="-27.2744127" lon="151.290066">
  <ele>343.09</ele>
  <time>2026-09-01T19:55:04Z</time>
  <course>14.53</course>
  <speed>0.022360679774997897</speed>
  <fix>3d</fix>
</trkpt>
<trkpt lat="-27.2744125" lon="151.2900659">
  <ele>343.09</ele>
  <time>2026-09-01T19:55:04Z</time>
  <course>12.62</course>
  <speed>0.0</speed>
  <fix>3d</fix>
</trkpt>
<trkpt lat="-27.2744127" lon="151.290066">
  <ele>343.08</ele>
  <time>2026-09-01T19:55:04Z</time>
  <course>14.53</course>
  <speed>0.022360679774997897</speed>
  <fix>3d</fix>
</trkpt>
<trkpt lat="-27.2744125" lon="151.2900659">
  <ele>343.09</ele>
  <time>2026-09-01T19:55:04Z</time>
  <course>12.62</course>
  <speed>0.0</speed>
  <fix>3d</fix>
</trkpt>
<trkpt lat="-27.2744127" lon="151.290066">
  <ele>343.08</ele>
  <time>2026-09-01T19:55:04Z</time>
  <course>14.53</course>
  <speed>0.022360679774997897</speed>
  <fix>3d</fix>
</trkpt>
<trkpt lat="-27.2744125" lon="151.2900659">
  <ele>343.09</ele>
  <time>2026-09-01T19:55:04Z</time>
  <course>12.62</course>
  <speed>0.0</speed>
  <fix>3d</fix>
</trkpt>
<trkpt lat="-27.2744127" lon="151.290066">
  <ele>343.08</ele>
  <time>2026-09-01T19:55:04Z</time>
  <course>14.53</course>
  <speed>0.022360679774997897</speed>
  <fix>3d</fix>
</trkpt>
<trkpt lat="-27.2744125" lon="151.2900659">
  <ele>343.09</ele>
  <time>2026-09-01T19:55:04Z</time>
  <course>12.62</course>
  <speed>0.0</speed>
  <fix>3d</fix>
</trkpt>
<trkpt lat="-27.2744127" lon="151.290066">
  <ele>343.07</ele>
  <time>2026-09-01T19:55:04Z</time>
  <course>14.53</course>
  <speed>0.022360679774997897</speed>
  <fix>3d</fix>
</trkpt>
<trkpt lat="-27.2744125" lon="151.2900659">
  <ele>343.09</ele>
  <time>2026-09-01T19:55:04Z</time>
  <course>12.62</course>
  <speed>0.0</speed>
  <fix>3d</fix>
</trkpt>
<trkpt lat="-27.2744127" lon="151.290066">
  <ele>343.07</ele>
  <time>2026-09-01T19:55:04Z</time>
  <course>14.53</course>
  <speed>0.022360679774997897</speed>
  <fix>3d</fix>
</trkpt>
<trkpt lat="-27.2744125" lon="151.2900659">
  <ele>343.09</ele>
  <time>2026-09-01T19:55:04Z</time>
  <course>12.62</course>
  <speed>0.0</speed>
  <fix>3d</fix>
</trkpt>
<trkpt lat="-27.2744127" lon="151.290066">
  <ele>343.07</ele>
  <time>2026-09-01T19:55:04Z</time>
  <course>14.53</course>
  <speed>0.022360679774997897</speed>
  <fix>3d</fix>
</trkpt>
<trkpt lat="-27.2744125" lon="151.2900659">
  <ele>343.09</ele>
  <time>2026-09-01T19:55:04Z</time>
  <course>12.62</course>
  <speed>0.0</speed>
  <fix>3d</fix>
</trkpt>
<trkpt lat="-27.2744127" lon="151.290066">
  <ele>343.07</ele>
  <time>2026-09-01T19:55:04Z</time>
  <course>14.53</course>
  <speed>0.022360679774997897</speed>
  <fix>3d</fix>
</trkpt>
<trkpt lat="-27.2744125" lon="151.2900659">
  <ele>343.09</ele>
  <time>2026-09-01T19:55:04Z</time>
  <course>12.62</course>
  <speed>0.0</speed>
  <fix>3d</fix>
</trkpt>
<trkpt lat="-27.2744127" lon="151.290066">
  <ele>343.07</ele>
  <time>2026-09-01T19:55:04Z</time>
  <course>14.53</course>
  <speed>0.022360679774997897</speed>
  <fix>3d</fix>
</trkpt>
<trkpt lat="-27.2744125" lon="151.2900659">
  <ele>343.09</ele>
  <time>2026-09-01T19:55:04Z</time>
  <course>12.62</course>
  <speed>0.0</speed>
  <fix>3d</fix>
</trkpt>
<trkpt lat="-27.2744127" lon="151.290066">
  <ele>343.06</ele>
  <time>2026-09-01T19:55:04Z</time>
  <course>14.53</course>
  <speed>0.022360679774997897</speed>
  <fix>3d</fix>
</trkpt>
<trkpt lat="-27.2744125" lon="151.2900659">
  <ele>343.09</ele>
  <time>2026-09-01T19:55:04Z</time>
  <course>12.62</course>
  <speed>0.0</speed>
  <fix>3d</fix>
</trkpt>
<trkpt lat="-27.2744127" lon="151.290066">
  <ele>343.06</ele>
  <time>2026-09-01T19:55:04Z</time>
  <course>14.53</course>
  <speed>0.022360679774997897</speed>
  <fix>3d</fix>
</trkpt>
<trkpt lat="-27.2744125" lon="151.2900659">
  <ele>343.09</ele>
  <time>2026-09-01T19:55:04Z</time>
  <course>12.62</course>
  <speed>0.0</speed>
  <fix>3d</fix>
</trkpt>
<trkpt lat="-27.2744127" lon="151.290066">
  <ele>343.06</ele>
  <time>2026-09-01T19:55:04Z</time>
  <course>14.53</course>
  <speed>0.022360679774997897</speed>
  <fix>3d</fix>
</trkpt>
<trkpt lat="-27.2744125" lon="151.2900659">
  <ele>343.09</ele>
  <time>2026-09-01T19:55:04Z</time>
  <course>12.62</course>
  <speed>0.0</speed>
  <fix>3d</fix>
</trkpt>
<trkpt lat="-27.2744127" lon="151.290066">
  <ele>343.06</ele>
  <time>2026-09-01T19:55:04Z</time>
  <course>14.53</course>
  <speed>0.022360679774997897</speed>
  <fix>3d</fix>
</trkpt>
<trkpt lat="-27.2744125" lon="151.2900659">
  <ele>343.09</ele>
  <time>2026-09-01T19:55:04Z</time>
  <course>12.62</course>
  <speed>0.0</speed>
  <fix>3d</fix>
</trkpt>
<trkpt lat="-27.2744127" lon="151.290066">
  <ele>343.05</ele>
  <time>2026-09-01T19:55:04Z</time>
  <course>14.53</course>
  <speed>0.022360679774997897</speed>
  <fix>3d</fix>
</trkpt>
<trkpt lat="-27.2744125" lon="151.2900659">
  <ele>343.09</ele>
  <time>2026-09-01T19:55:04Z</time>
  <course>12.62</course>
  <speed>0.0</speed>
  <fix>3d</fix>
</trkpt>
<trkpt lat="-27.2744127" lon="151.290066">
  <ele>343.05</ele>
  <time>2026-09-01T19:55:04Z</time>
  <course>14.53</course>
  <speed>0.022360679774997897</speed>
  <fix>3d</fix>
</trkpt>
<trkpt lat="-27.2744125" lon="151.2900659">
  <ele>343.09</ele>
  <time>2026-09-01T19:55:04Z</time>
  <course>12.62</course>
  <speed>0.0</speed>
  <fix>3d</fix>
</trkpt>
<trkpt lat="-27.2744127" lon="151.290066">
  <ele>343.05</ele>
  <time>2026-09-01T19:55:04Z</time>
  <course>14.53</course>
  <speed>0.022360679774997897</speed>
  <fix>3d</fix>
</trkpt>
<trkpt lat="-27.2744125" lon="151.2900659">
  <ele>343.09</ele>
  <time>2026-09-01T19:55:04Z</time>
  <course>12.62</course>
  <speed>0.0</speed>
  <fix>3d</fix>
</trkpt>
<trkpt lat="-27.2744127" lon="151.290066">
  <ele>343.05</ele>
  <time>2026-09-01T19:55:04Z</time>
  <course>14.53</course>
  <speed>0.022360679774997897</speed>
  <fix>3d</fix>
</trkpt>
<trkpt lat="-27.2744125" lon="151.2900659">
  <ele>343.09</ele>
  <time>2026-09-01T19:55:04Z</time>
  <course>12.62</course>
  <speed>0.0</speed>
  <fix>3d</fix>
</trkpt>
<trkpt lat="-27.2744127" lon="151.290066">
  <ele>343.04</ele>
  <time>2026-09-01T19:55:04Z</time>
  <course>14.53</course>
  <speed>0.022360679774997897</speed>
  <fix>3d</fix>
</trkpt>
<trkpt lat="-27.2744125" lon="151.2900659">
  <ele>343.09</ele>
  <time>2026-09-01T19:55:04Z</time>
  <course>12.62</course>
  <speed>0.0</speed>
  <fix>3d</fix>
</trkpt>
<trkpt lat="-27.2744127" lon="151.290066">
  <ele>343.04</ele>
  <time>2026-09-01T19:55:04Z</time>
  <course>14.53</course>
  <speed>0.022360679774997897</speed>
  <fix>3d</fix>
</trkpt>
<trkpt lat="-27.2744125" lon="151.2900659">
  <ele>343.09</ele>
  <time>2026-09-01T19:55:04Z</time>
  <course>12.62</course>
  <speed>0.0</speed>
  <fix>3d</fix>
</trkpt>
<trkpt lat="-27.2744127" lon="151.290066">
  <ele>343.04</ele>
  <time>2026-09-01T19:55:04Z</time>
  <course>14.53</course>
  <speed>0.022360679774997897</speed>
  <fix>3d</fix>
</trkpt>
<trkpt lat="-27.2744125" lon="151.2900659">
  <ele>343.09</ele>
  <time>2026-09-01T19:55:04Z</time>
  <course>12.62</course>
  <speed>0.0</speed>
  <fix>3d</fix>
</trkpt>
<trkpt lat="-27.2744127" lon="151.290066">
  <ele>343.03</ele>
  <time>2026-09-01T19:55:04Z</time>
  <course>14.53</course>
  <speed>0.022360679774997897</speed>
  <fix>3d</fix>
</trkpt>
<trkpt lat="-27.2744125" lon="151.2900659">
  <ele>343.09</ele>
  <time>2026-09-01T19:55:04Z</time>
  <course>12.62</course>
  <speed>0.0</speed>
  <fix>3d</fix>
</trkpt>
<trkpt lat="-27.2744127" lon="151.290066">
  <ele>343.03</ele>
  <time>2026-09-01T19:55:04Z</time>
  <course>14.53</course>
  <speed>0.022360679774997897</speed>
  <fix>3d</fix>
</trkpt>
<trkpt lat="-27.2744125" lon="151.2900659">
  <ele>343.09</ele>
  <time>2026-09-01T19:55:04Z</time>
  <course>12.62</course>
  <speed>0.0</speed>
  <fix>3d</fix>
</trkpt>
<trkpt lat="-27.2744127" lon="151.290066">
  <ele>343.03</ele>
  <time>2026-09-01T19:55:04Z</time>
  <course>14.53</course>
  <speed>0.022360679774997897</speed>
  <fix>3d</fix>
</trkpt>
<trkpt lat="-27.2744125" lon="151.2900659">
  <ele>343.09</ele>
  <time>2026-09-01T19:55:04Z</time>
  <course>12.62</course>
  <speed>0.0</speed>
  <fix>3d</fix>
</trkpt>
<trkpt lat="-27.2744127" lon="151.290066">
  <ele>343.03</ele>
  <time>2026-09-01T19:55:04Z</time>
  <course>14.53</course>
  <speed>0.022360679774997897</speed>
  <fix>3d</fix>
</trkpt>
<trkpt lat="-27.2744125" lon="151.2900659">
  <ele>343.09</ele>
  <time>2026-09-01T19:55:04Z</time>
  <course>12.62</course>
  <speed>0.0</speed>
  <fix>3d</fix>
</trkpt>
<trkpt lat="-27.2744127" lon="151.290066">
  <ele>343.03</ele>
  <time>2026-09-01T19:55:04Z</time>
  <course>14.53</course>
  <speed>0.022360679774997897</speed>
  <fix>3d</fix>
</trkpt>
<trkpt lat="-27.2744125" lon="151.2900659">
  <ele>343.09</ele>
  <time>2026-09-01T19:55:04Z</time>
  <course>12.62</course>
  <speed>0.0</speed>
  <fix>3d</fix>
</trkpt>
<trkpt lat="-27.2744127" lon="151.290066">
  <ele>343.03</ele>
  <time>2026-09-01T19:55:04Z</time>
  <course>14.53</course>
  <speed>0.022360679774997897</speed>
  <fix>3d</fix>
</trkpt>
<trkpt lat="-27.2744125" lon="151.2900659">
  <ele>343.09</ele>
  <time>2026-09-01T19:55:04Z</time>
  <course>12.62</course>
  <speed>0.0</speed>
  <fix>3d</fix>
</trkpt>
<trkpt lat="-27.2744127" lon="151.290066">
  <ele>343.02</ele>
  <time>2026-09-01T19:55:04Z</time>
  <course>14.53</course>
  <speed>0.022360679774997897</speed>
  <fix>3d</fix>
</trkpt>
<trkpt lat="-27.2744125" lon="151.2900659">
  <ele>343.09</ele>
  <time>2026-09-01T19:55:04Z</time>
  <course>12.62</course>
  <speed>0.0</speed>
  <fix>3d</fix>
</trkpt>
<trkpt lat="-27.2744127" lon="151.290066">
  <ele>343.02</ele>
  <time>2026-09-01T19:55:04Z</time>
  <course>14.53</course>
  <speed>0.022360679774997897</speed>
  <fix>3d</fix>
</trkpt>
<trkpt lat="-27.2744125" lon="151.2900659">
  <ele>343.09</ele>
  <time>2026-09-01T19:55:04Z</time>
  <course>12.62</course>
  <speed>0.0</speed>
  <fix>3d</fix>
</trkpt>
<trkpt lat="-27.2744127" lon="151.290066">
  <ele>343.02</ele>
  <time>2026-09-01T19:55:04Z</time>
  <course>14.53</course>
  <speed>0.022360679774997897</speed>
  <fix>3d</fix>
</trkpt>
<trkpt lat="-27.2744125" lon="151.2900659">
  <ele>343.09</ele>
  <time>2026-09-01T19:55:04Z</time>
  <course>12.62</course>
  <speed>0.0</speed>
  <fix>3d</fix>
</trkpt>
<trkpt lat="-27.2744127" lon="151.290066">
  <ele>343.02</ele>
  <time>2026-09-01T19:55:04Z</time>
  <course>14.53</course>
  <speed>0.022360679774997897</speed>
  <fix>3d</fix>
</trkpt>
<trkpt lat="-27.2744125" lon="151.2900659">
  <ele>343.09</ele>
  <time>2026-09-01T19:55:04Z</time>
  <course>12.62</course>
  <speed>0.0</speed>
  <fix>3d</fix>
</trkpt>
<trkpt lat="-27.2744127" lon="151.290066">
  <ele>343.01</ele>
  <time>2026-09-01T19:55:04Z</time>
  <course>14.53</course>
  <speed>0.022360679774997897</speed>
  <fix>3d</fix>
</trkpt>
<trkpt lat="-27.2744125" lon="151.2900659">
  <ele>343.09</ele>
  <time>2026-09-01T19:55:04Z</time>
  <course>12.62</course>
  <speed>0.0</speed>
  <fix>3d</fix>
</trkpt>
<trkpt lat="-27.2744127" lon="151.290066">
  <ele>343.01</ele>
  <time>2026-09-01T19:55:04Z</time>
  <course>14.53</course>
  <speed>0.022360679774997897</speed>
  <fix>3d</fix>
</trkpt>
<trkpt lat="-27.2744125" lon="151.2900659">
  <ele>343.09</ele>
  <time>2026-09-01T19:55:04Z</time>
  <course>12.62</course>
  <speed>0.0</speed>
  <fix>3d</fix>
</trkpt>
<trkpt lat="-27.2744127" lon="151.290066">
  <ele>343.01</ele>
  <time>2026-09-01T19:55:04Z</time>
  <course>14.54</course>
  <speed>0.022360679774997897</speed>
  <fix>3d</fix>
</trkpt>
<trkpt lat="-27.2744125" lon="151.2900659">
  <ele>343.09</ele>
  <time>2026-09-01T19:55:04Z</time>
  <course>12.62</course>
  <speed>0.0</speed>
  <fix>3d</fix>
</trkpt>
<trkpt lat="-27.2744127" lon="151.290066">
  <ele>343.01</ele>
  <time>2026-09-01T19:55:04Z</time>
  <course>14.54</course>
  <speed>0.022360679774997897</speed>
  <fix>3d</fix>
</trkpt>
<trkpt lat="-27.2744125" lon="151.2900659">
  <ele>343.09</ele>
  <time>2026-09-01T19:55:04Z</time>
  <course>12.62</course>
  <speed>0.0</speed>
  <fix>3d</fix>
</trkpt>
<trkpt lat="-27.2744127" lon="151.290066">
  <ele>343.01</ele>
  <time>2026-09-01T19:55:04Z</time>
  <course>14.54</course>
  <speed>0.022360679774997897</speed>
  <fix>3d</fix>
</trkpt>
<trkpt lat="-27.2744125" lon="151.2900659">
  <ele>343.09</ele>
  <time>2026-09-01T19:55:04Z</time>
  <course>12.62</course>
  <speed>0.0</speed>
  <fix>3d</fix>
</trkpt>
<trkpt lat="-27.2744127" lon="151.290066">
  <ele>343.01</ele>
  <time>2026-09-01T19:55:04Z</time>
  <course>14.54</course>
  <speed>0.022360679774997897</speed>
  <fix>3d</fix>
</trkpt>
<trkpt lat="-27.2744125" lon="151.2900659">
  <ele>343.09</ele>
  <time>2026-09-01T19:55:04Z</time>
  <course>12.62</course>
  <speed>0.0</speed>
  <fix>3d</fix>
</trkpt>
<trkpt lat="-27.2744127" lon="151.290066">
  <ele>343.01</ele>
  <time>2026-09-01T19:55:04Z</time>
  <course>14.54</course>
  <speed>0.022360679774997897</speed>
  <fix>3d</fix>
</trkpt>
<trkpt lat="-27.2744125" lon="151.2900659">
  <ele>343.09</ele>
  <time>2026-09-01T19:55:04Z</time>
  <course>12.62</course>
  <speed>0.0</speed>
  <fix>3d</fix>
</trkpt>
<trkpt lat="-27.2744127" lon="151.290066">
  <ele>343.0</ele>
  <time>2026-09-01T19:55:04Z</time>
  <course>14.54</course>
  <speed>0.022360679774997897</speed>
  <fix>3d</fix>
</trkpt>
<trkpt lat="-27.2744125" lon="151.2900659">
  <ele>343.09</ele>
  <time>2026-09-01T19:55:04Z</time>
  <course>12.62</course>
  <speed>0.0</speed>
  <fix>3d</fix>
</trkpt>
<trkpt lat="-27.2744127" lon="151.290066">
  <ele>343.0</ele>
  <time>2026-09-01T19:55:04Z</time>
  <course>14.54</course>
  <speed>0.022360679774997897</speed>
  <fix>3d</fix>
</trkpt>
<trkpt lat="-27.2744125" lon="151.2900659">
  <ele>343.09</ele>
  <time>2026-09-01T19:55:04Z</time>
  <course>12.62</course>
  <speed>0.0</speed>
  <fix>3d</fix>
</trkpt>
<trkpt lat="-27.2744127" lon="151.290066">
  <ele>343.0</ele>
  <time>2026-09-01T19:55:04Z</time>
  <course>14.54</course>
  <speed>0.022360679774997897</speed>
  <fix>3d</fix>
</trkpt>
<trkpt lat="-27.2744125" lon="151.2900659">
  <ele>343.09</ele>
  <time>2026-09-01T19:55:04Z</time>
  <course>12.62</course>
  <speed>0.0</speed>
  <fix>3d</fix>
</trkpt>
<trkpt lat="-27.2744127" lon="151.290066">
  <ele>343.0</ele>
  <time>2026-09-01T19:55:04Z</time>
  <course>14.54</course>
  <speed>0.022360679774997897</speed>
  <fix>3d</fix>
</trkpt>
<trkpt lat="-27.2744125" lon="151.2900659">
  <ele>343.09</ele>
  <time>2026-09-01T19:55:04Z</time>
  <course>12.62</course>
  <speed>0.0</speed>
  <fix>3d</fix>
</trkpt>
<trkpt lat="-27.2744127" lon="151.290066">
  <ele>342.99</ele>
  <time>2026-09-01T19:55:04Z</time>
  <course>14.54</course>
  <speed>0.022360679774997897</speed>
  <fix>3d</fix>
</trkpt>
<trkpt lat="-27.2744125" lon="151.2900659">
  <ele>343.09</ele>
  <time>2026-09-01T19:55:04Z</time>
  <course>12.62</course>
  <speed>0.0</speed>
  <fix>3d</fix>
</trkpt>
<trkpt lat="-27.2744127" lon="151.290066">
  <ele>342.99</ele>
  <time>2026-09-01T19:55:04Z</time>
  <course>14.54</course>
  <speed>0.022360679774997897</speed>
  <fix>3d</fix>
</trkpt>
<trkpt lat="-27.2744125" lon="151.2900659">
  <ele>343.09</ele>
  <time>2026-09-01T19:55:04Z</time>
  <course>12.62</course>
  <speed>0.0</speed>
  <fix>3d</fix>
</trkpt>
<trkpt lat="-27.2744127" lon="151.290066">
  <ele>342.99</ele>
  <time>2026-09-01T19:55:04Z</time>
  <course>14.54</course>
  <speed>0.022360679774997897</speed>
  <fix>3d</fix>
</trkpt>
<trkpt lat="-27.2744125" lon="151.2900659">
  <ele>343.09</ele>
  <time>2026-09-01T19:55:04Z</time>
  <course>12.62</course>
  <speed>0.0</speed>
  <fix>3d</fix>
</trkpt>
<trkpt lat="-27.2744127" lon="151.290066">
  <ele>342.99</ele>
  <time>2026-09-01T19:55:04Z</time>
  <course>14.54</course>
  <speed>0.022360679774997897</speed>
  <fix>3d</fix>
</trkpt>
<trkpt lat="-27.2744125" lon="151.2900659">
  <ele>343.09</ele>
  <time>2026-09-01T19:55:04Z</time>
  <course>12.62</course>
  <speed>0.0</speed>
  <fix>3d</fix>
</trkpt>
<trkpt lat="-27.2744127" lon="151.290066">
  <ele>342.99</ele>
  <time>2026-09-01T19:55:04Z</time>
  <course>14.54</course>
  <speed>0.022360679774997897</speed>
  <fix>3d</fix>
</trkpt>
<trkpt lat="-27.2744125" lon="151.2900659">
  <ele>343.09</ele>
  <time>2026-09-01T19:55:04Z</time>
  <course>12.62</course>
  <speed>0.0</speed>
  <fix>3d</fix>
</trkpt>
<trkpt lat="-27.2744127" lon="151.290066">
  <ele>342.99</ele>
  <time>2026-09-01T19:55:04Z</time>
  <course>14.54</course>
  <speed>0.022360679774997897</speed>
  <fix>3d</fix>
</trkpt>
<trkpt lat="-27.2744125" lon="151.2900659">
  <ele>343.09</ele>
  <time>2026-09-01T19:55:04Z</time>
  <course>12.62</course>
  <speed>0.0</speed>
  <fix>3d</fix>
</trkpt>
<trkpt lat="-27.2744127" lon="151.290066">
  <ele>342.99</ele>
  <time>2026-09-01T19:55:04Z</time>
  <course>14.54</course>
  <speed>0.022360679774997897</speed>
  <fix>3d</fix>
</trkpt>
<trkpt lat="-27.2744125" lon="151.2900659">
  <ele>343.09</ele>
  <time>2026-09-01T19:55:04Z</time>
  <course>12.62</course>
  <speed>0.0</speed>
  <fix>3d</fix>
</trkpt>
<trkpt lat="-27.2744127" lon="151.290066">
  <ele>342.99</ele>
  <time>2026-09-01T19:55:04Z</time>
  <course>14.54</course>
  <speed>0.022360679774997897</speed>
  <fix>3d</fix>
</trkpt>
<trkpt lat="-27.2744125" lon="151.2900659">
  <ele>343.09</ele>
  <time>2026-09-01T19:55:04Z</time>
  <course>12.62</course>
  <speed>0.0</speed>
  <fix>3d</fix>
</trkpt>
<trkpt lat="-27.2744127" lon="151.290066">
  <ele>342.99</ele>
  <time>2026-09-01T19:55:04Z</time>
  <course>14.54</course>
  <speed>0.022360679774997897</speed>
  <fix>3d</fix>
</trkpt>
<trkpt lat="-27.2744125" lon="151.2900659">
  <ele>343.09</ele>
  <time>2026-09-01T19:55:04Z</time>
  <course>12.62</course>
  <speed>0.0</speed>
  <fix>3d</fix>
</trkpt>
<trkpt lat="-27.2744127" lon="151.290066">
  <ele>342.99</ele>
  <time>2026-09-01T19:55:04Z</time>
  <course>14.54</course>
  <speed>0.022360679774997897</speed>
  <fix>3d</fix>
</trkpt>
<trkpt lat="-27.2744125" lon="151.2900659">
  <ele>343.09</ele>
  <time>2026-09-01T19:55:04Z</time>
  <course>12.62</course>
  <speed>0.0</speed>
  <fix>3d</fix>
</trkpt>
<trkpt lat="-27.2744127" lon="151.290066">
  <ele>342.99</ele>
  <time>2026-09-01T19:55:04Z</time>
  <course>14.54</course>
  <speed>0.022360679774997897</speed>
  <fix>3d</fix>
</trkpt>
<trkpt lat="-27.2744125" lon="151.2900659">
  <ele>343.09</ele>
  <time>2026-09-01T19:55:04Z</time>
  <course>12.62</course>
  <speed>0.0</speed>
  <fix>3d</fix>
</trkpt>
<trkpt lat="-27.2744127" lon="151.290066">
  <ele>342.99</ele>
  <time>2026-09-01T19:55:04Z</time>
  <course>14.54</course>
  <speed>0.022360679774997897</speed>
  <fix>3d</fix>
</trkpt>
<trkpt lat="-27.2744125" lon="151.2900659">
  <ele>343.09</ele>
  <time>2026-09-01T19:55:04Z</time>
  <course>12.62</course>
  <speed>0.0</speed>
  <fix>3d</fix>
</trkpt>
<trkpt lat="-27.2744127" lon="151.290066">
  <ele>342.99</ele>
  <time>2026-09-01T19:55:04Z</time>
  <course>14.54</course>
  <speed>0.022360679774997897</speed>
  <fix>3d</fix>
</trkpt>
<trkpt lat="-27.2744125" lon="151.2900659">
  <ele>343.09</ele>
  <time>2026-09-01T19:55:04Z</time>
  <course>12.62</course>
  <speed>0.0</speed>
  <fix>3d</fix>
</trkpt>
<trkpt lat="-27.2744127" lon="151.290066">
  <ele>342.99</ele>
  <time>2026-09-01T19:55:04Z</time>
  <course>14.54</course>
  <speed>0.022360679774997897</speed>
  <fix>3d</fix>
</trkpt>
<trkpt lat="-27.2744125" lon="151.2900659">
  <ele>343.09</ele>
  <time>2026-09-01T19:55:04Z</time>
  <course>12.62</course>
  <speed>0.0</speed>
  <fix>3d</fix>
</trkpt>
<trkpt lat="-27.2744127" lon="151.290066">
  <ele>343.08</ele>
  <time>2026-09-01T19:55:04Z</time>
  <course>14.54</course>
  <speed>0.022360679774997897</speed>
  <fix>3d</fix>
</trkpt>
<trkpt lat="-27.2744125" lon="151.2900659">
  <ele>343.09</ele>
  <time>2026-09-01T19:55:04Z</time>
  <course>12.62</course>
  <speed>0.0</speed>
  <fix>3d</fix>
</trkpt>
<trkpt lat="-27.2744127" lon="151.290066">
  <ele>343.08</ele>
  <time>2026-09-01T19:55:04Z</time>
  <course>14.54</course>
  <speed>0.022360679774997897</speed>
  <fix>3d</fix>
</trkpt>
<trkpt lat="-27.2744125" lon="151.2900659">
  <ele>343.09</ele>
  <time>2026-09-01T19:55:04Z</time>
  <course>12.62</course>
  <speed>0.0</speed>
  <fix>3d</fix>
</trkpt>
<trkpt lat="-27.2744127" lon="151.290066">
  <ele>343.08</ele>
  <time>2026-09-01T19:55:04Z</time>
  <course>14.54</course>
  <speed>0.022360679774997897</speed>
  <fix>3d</fix>
</trkpt>
<trkpt lat="-27.2744125" lon="151.2900659">
  <ele>343.09</ele>
  <time>2026-09-01T19:55:04Z</time>
  <course>12.62</course>
  <speed>0.0</speed>
  <fix>3d</fix>
</trkpt>
<trkpt lat="-27.2744127" lon="151.290066">
  <ele>343.08</ele>
  <time>2026-09-01T19:55:04Z</time>
  <course>14.54</course>
  <speed>0.022360679774997897</speed>
  <fix>3d</fix>
</trkpt>
<trkpt lat="-27.2744125" lon="151.2900659">
  <ele>343.09</ele>
  <time>2026-09-01T19:55:04Z</time>
  <course>12.62</course>
  <speed>0.0</speed>
  <fix>3d</fix>
</trkpt>
<trkpt lat="-27.2744127" lon="151.290066">
  <ele>343.09</ele>
  <time>2026-09-01T19:55:04Z</time>
  <course>14.54</course>
  <speed>0.022360679774997897</speed>
  <fix>3d</fix>
</trkpt>
<trkpt lat="-27.2744125" lon="151.2900659">
  <ele>343.09</ele>
  <time>2026-09-01T19:55:04Z</time>
  <course>12.62</course>
  <speed>0.0</speed>
  <fix>3d</fix>
</trkpt>
<trkpt lat="-27.2744127" lon="151.290066">
  <ele>343.09</ele>
  <time>2026-09-01T19:55:04Z</time>
  <course>14.54</course>
  <speed>0.022360679774997897</speed>
  <fix>3d</fix>
</trkpt>
<trkpt lat="-27.2744125" lon="151.2900659">
  <ele>343.09</ele>
  <time>2026-09-01T19:55:04Z</time>
  <course>12.62</course>
  <speed>0.0</speed>
  <fix>3d</fix>
</trkpt>
<trkpt lat="-27.2744127" lon="151.290066">
  <ele>343.09</ele>
  <time>2026-09-01T19:55:04Z</time>
  <course>14.54</course>
  <speed>0.022360679774997897</speed>
  <fix>3d</fix>
</trkpt>
<trkpt lat="-27.2744125" lon="151.2900659">
  <ele>343.09</ele>
  <time>2026-09-01T19:55:04Z</time>
  <course>12.62</course>
  <speed>0.0</speed>
  <fix>3d</fix>
</trkpt>
<trkpt lat="-27.2744127" lon="151.290066">
  <ele>343.09</ele>
  <time>2026-09-01T19:55:04Z</time>
  <course>14.54</course>
  <speed>0.022360679774997897</speed>
  <fix>3d</fix>
</trkpt>
<trkpt lat="-27.2744125" lon="151.2900659">
  <ele>343.09</ele>
  <time>2026-09-01T19:55:04Z</time>
  <course>12.62</course>
  <speed>0.0</speed>
  <fix>3d</fix>
</trkpt>
<trkpt lat="-27.2744127" lon="151.290066">
  <ele>343.1</ele>
  <time>2026-09-01T19:55:04Z</time>
  <course>14.54</course>
  <speed>0.022360679774997897</speed>
  <fix>3d</fix>
</trkpt>
<trkpt lat="-27.2744125" lon="151.2900659">
  <ele>343.09</ele>
  <time>2026-09-01T19:55:04Z</time>
  <course>12.62</course>
  <speed>0.0</speed>
  <fix>3d</fix>
</trkpt>
<trkpt lat="-27.2744127" lon="151.290066">
  <ele>343.1</ele>
  <time>2026-09-01T19:55:04Z</time>
  <course>14.54</course>
  <speed>0.022360679774997897</speed>
  <fix>3d</fix>
</trkpt>
<trkpt lat="-27.2744125" lon="151.2900659">
  <ele>343.09</ele>
  <time>2026-09-01T19:55:04Z</time>
  <course>12.62</course>
  <speed>0.0</speed>
  <fix>3d</fix>
</trkpt>
<trkpt lat="-27.2744127" lon="151.290066">
  <ele>343.11</ele>
  <time>2026-09-01T19:55:04Z</time>
  <course>14.54</course>
  <speed>0.022360679774997897</speed>
  <fix>3d</fix>
</trkpt>
<trkpt lat="-27.2744125" lon="151.2900659">
  <ele>343.09</ele>
  <time>2026-09-01T19:55:04Z</time>
  <course>12.62</course>
  <speed>0.0</speed>
  <fix>3d</fix>
</trkpt>
<trkpt lat="-27.2744127" lon="151.290066">
  <ele>343.11</ele>
  <time>2026-09-01T19:55:04Z</time>
  <course>14.54</course>
  <speed>0.022360679774997897</speed>
  <fix>3d</fix>
</trkpt>
<trkpt lat="-27.2744125" lon="151.2900659">
  <ele>343.09</ele>
  <time>2026-09-01T19:55:04Z</time>
  <course>12.62</course>
  <speed>0.0</speed>
  <fix>3d</fix>
</trkpt>
<trkpt lat="-27.2744127" lon="151.290066">
  <ele>343.12</ele>
  <time>2026-09-01T19:55:04Z</time>
  <course>14.54</course>
  <speed>0.022360679774997897</speed>
  <fix>3d</fix>
</trkpt>
<trkpt lat="-27.2744125" lon="151.2900659">
  <ele>343.09</ele>
  <time>2026-09-01T19:55:04Z</time>
  <course>12.62</course>
  <speed>0.0</speed>
  <fix>3d</fix>
</trkpt>
<trkpt lat="-27.2744127" lon="151.290066">
  <ele>343.12</ele>
  <time>2026-09-01T19:55:04Z</time>
  <course>14.54</course>
  <speed>0.022360679774997897</speed>
  <fix>3d</fix>
</trkpt>
<trkpt lat="-27.2744125" lon="151.2900659">
  <ele>343.09</ele>
  <time>2026-09-01T19:55:04Z</time>
  <course>12.62</course>
  <speed>0.0</speed>
  <fix>3d</fix>
</trkpt>
<trkpt lat="-27.2744127" lon="151.290066">
  <ele>343.13</ele>
  <time>2026-09-01T19:55:04Z</time>
  <course>14.54</course>
  <speed>0.022360679774997897</speed>
  <fix>3d</fix>
</trkpt>
<trkpt lat="-27.2744125" lon="151.2900659">
  <ele>343.09</ele>
  <time>2026-09-01T19:55:04Z</time>
  <course>12.62</course>
  <speed>0.0</speed>
  <fix>3d</fix>
</trkpt>
<trkpt lat="-27.2744127" lon="151.290066">
  <ele>343.13</ele>
  <time>2026-09-01T19:55:04Z</time>
  <course>14.54</course>
  <speed>0.022360679774997897</speed>
  <fix>3d</fix>
</trkpt>
<trkpt lat="-27.2744125" lon="151.2900659">
  <ele>343.09</ele>
  <time>2026-09-01T19:55:04Z</time>
  <course>12.62</course>
  <speed>0.0</speed>
  <fix>3d</fix>
</trkpt>
<trkpt lat="-27.2744127" lon="151.290066">
  <ele>343.14</ele>
  <time>2026-09-01T19:55:04Z</time>
  <course>14.54</course>
  <speed>0.022360679774997897</speed>
  <fix>3d</fix>
</trkpt>
<trkpt lat="-27.2744125" lon="151.2900659">
  <ele>343.09</ele>
  <time>2026-09-01T19:55:04Z</time>
  <course>12.62</course>
  <speed>0.0</speed>
  <fix>3d</fix>
</trkpt>
<trkpt lat="-27.2744127" lon="151.290066">
  <ele>343.14</ele>
  <time>2026-09-01T19:55:04Z</time>
  <course>14.54</course>
  <speed>0.022360679774997897</speed>
  <fix>3d</fix>
</trkpt>
<trkpt lat="-27.2744125" lon="151.2900659">
  <ele>343.09</ele>
  <time>2026-09-01T19:55:04Z</time>
  <course>12.62</course>
  <speed>0.0</speed>
  <fix>3d</fix>
</trkpt>
<trkpt lat="-27.2744127" lon="151.290066">
  <ele>343.15</ele>
  <time>2026-09-01T19:55:04Z</time>
  <course>14.54</course>
  <speed>0.022360679774997897</speed>
  <fix>3d</fix>
</trkpt>
<trkpt lat="-27.2744125" lon="151.2900659">
  <ele>343.09</ele>
  <time>2026-09-01T19:55:04Z</time>
  <course>12.62</course>
  <speed>0.0</speed>
  <fix>3d</fix>
</trkpt>
<trkpt lat="-27.2744127" lon="151.290066">
  <ele>343.15</ele>
  <time>2026-09-01T19:55:04Z</time>
  <course>14.54</course>
  <speed>0.022360679774997897</speed>
  <fix>3d</fix>
</trkpt>
<trkpt lat="-27.2744125" lon="151.2900659">
  <ele>343.09</ele>
  <time>2026-09-01T19:55:04Z</time>
  <course>12.62</course>
  <speed>0.0</speed>
  <fix>3d</fix>
</trkpt>
<trkpt lat="-27.2744127" lon="151.290066">
  <ele>343.16</ele>
  <time>2026-09-01T19:55:04Z</time>
  <course>14.54</course>
  <speed>0.022360679774997897</speed>
  <fix>3d</fix>
</trkpt>
<trkpt lat="-27.2744125" lon="151.2900659">
  <ele>343.09</ele>
  <time>2026-09-01T19:55:04Z</time>
  <course>12.62</course>
  <speed>0.0</speed>
  <fix>3d</fix>
</trkpt>
<trkpt lat="-27.2744127" lon="151.290066">
  <ele>343.16</ele>
  <time>2026-09-01T19:55:04Z</time>
  <course>14.54</course>
  <speed>0.022360679774997897</speed>
  <fix>3d</fix>
</trkpt>
<trkpt lat="-27.2744125" lon="151.2900659">
  <ele>343.09</ele>
  <time>2026-09-01T19:55:04Z</time>
  <course>12.62</course>
  <speed>0.0</speed>
  <fix>3d</fix>
</trkpt>
<trkpt lat="-27.2744127" lon="151.290066">
  <ele>343.17</ele>
  <time>2026-09-01T19:55:04Z</time>
  <course>14.54</course>
  <speed>0.022360679774997897</speed>
  <fix>3d</fix>
</trkpt>
<trkpt lat="-27.2744125" lon="151.2900659">
  <ele>343.09</ele>
  <time>2026-09-01T19:55:04Z</time>
  <course>12.62</course>
  <speed>0.0</speed>
  <fix>3d</fix>
</trkpt>
<trkpt lat="-27.2744127" lon="151.290066">
  <ele>343.17</ele>
  <time>2026-09-01T19:55:04Z</time>
  <course>14.54</course>
  <speed>0.022360679774997897</speed>
  <fix>3d</fix>
</trkpt>
<trkpt lat="-27.2744125" lon="151.2900659">
  <ele>343.09</ele>
  <time>2026-09-01T19:55:04Z</time>
  <course>12.62</course>
  <speed>0.0</speed>
  <fix>3d</fix>
</trkpt>
<trkpt lat="-27.2744127" lon="151.290066">
  <ele>343.18</ele>
  <time>2026-09-01T19:55:04Z</time>
  <course>14.54</course>
  <speed>0.022360679774997897</speed>
  <fix>3d</fix>
</trkpt>
<trkpt lat="-27.2744125" lon="151.2900659">
  <ele>343.09</ele>
  <time>2026-09-01T19:55:04Z</time>
  <course>12.62</course>
  <speed>0.0</speed>
  <fix>3d</fix>
</trkpt>
<trkpt lat="-27.2744127" lon="151.290066">
  <ele>343.19</ele>
  <time>2026-09-01T19:55:04Z</time>
  <course>14.54</course>
  <speed>0.022360679774997897</speed>
  <fix>3d</fix>
</trkpt>
<trkpt lat="-27.2744125" lon="151.2900659">
  <ele>343.09</ele>
  <time>2026-09-01T19:55:04Z</time>
  <course>12.62</course>
  <speed>0.0</speed>
  <fix>3d</fix>
</trkpt>
<trkpt lat="-27.2744127" lon="151.290066">
  <ele>343.19</ele>
  <time>2026-09-01T19:55:04Z</time>
  <course>14.54</course>
  <speed>0.022360679774997897</speed>
  <fix>3d</fix>
</trkpt>
<trkpt lat="-27.2744125" lon="151.2900659">
  <ele>343.09</ele>
  <time>2026-09-01T19:55:04Z</time>
  <course>12.62</course>
  <speed>0.0</speed>
  <fix>3d</fix>
</trkpt>
<trkpt lat="-27.2744127" lon="151.290066">
  <ele>343.19</ele>
  <time>2026-09-01T19:55:04Z</time>
  <course>14.54</course>
  <speed>0.022360679774997897</speed>
  <fix>3d</fix>
</trkpt>
<trkpt lat="-27.2744125" lon="151.2900659">
  <ele>343.09</ele>
  <time>2026-09-01T19:55:04Z</time>
  <course>12.62</course>
  <speed>0.0</speed>
  <fix>3d</fix>
</trkpt>
<trkpt lat="-27.2744127" lon="151.290066">
  <ele>343.2</ele>
  <time>2026-09-01T19:55:04Z</time>
  <course>14.54</course>
  <speed>0.022360679774997897</speed>
  <fix>3d</fix>
</trkpt>
<trkpt lat="-27.2744125" lon="151.2900659">
  <ele>343.09</ele>
  <time>2026-09-01T19:55:04Z</time>
  <course>12.62</course>
  <speed>0.0</speed>
  <fix>3d</fix>
</trkpt>
<trkpt lat="-27.2744127" lon="151.290066">
  <ele>343.2</ele>
  <time>2026-09-01T19:55:04Z</time>
  <course>14.54</course>
  <speed>0.022360679774997897</speed>
  <fix>3d</fix>
</trkpt>
<trkpt lat="-27.2744125" lon="151.2900659">
  <ele>343.09</ele>
  <time>2026-09-01T19:55:04Z</time>
  <course>12.62</course>
  <speed>0.0</speed>
  <fix>3d</fix>
</trkpt>
<trkpt lat="-27.2744127" lon="151.290066">
  <ele>343.21</ele>
  <time>2026-09-01T19:55:04Z</time>
  <course>14.54</course>
  <speed>0.022360679774997897</speed>
  <fix>3d</fix>
</trkpt>
<trkpt lat="-27.2744125" lon="151.2900659">
  <ele>343.09</ele>
  <time>2026-09-01T19:55:04Z</time>
  <course>12.62</course>
  <speed>0.0</speed>
  <fix>3d</fix>
</trkpt>
<trkpt lat="-27.2744127" lon="151.290066">
  <ele>343.21</ele>
  <time>2026-09-01T19:55:04Z</time>
  <course>14.54</course>
  <speed>0.022360679774997897</speed>
  <fix>3d</fix>
</trkpt>
<trkpt lat="-27.2744125" lon="151.2900659">
  <ele>343.09</ele>
  <time>2026-09-01T19:55:04Z</time>
  <course>12.62</course>
  <speed>0.0</speed>
  <fix>3d</fix>
</trkpt>
<trkpt lat="-27.2744127" lon="151.290066">
  <ele>343.22</ele>
  <time>2026-09-01T19:55:04Z</time>
  <course>14.54</course>
  <speed>0.022360679774997897</speed>
  <fix>3d</fix>
</trkpt>
<trkpt lat="-27.2744125" lon="151.2900659">
  <ele>343.09</ele>
  <time>2026-09-01T19:55:04Z</time>
  <course>12.62</course>
  <speed>0.0</speed>
  <fix>3d</fix>
</trkpt>
<trkpt lat="-27.2744127" lon="151.290066">
  <ele>343.22</ele>
  <time>2026-09-01T19:55:04Z</time>
  <course>14.54</course>
  <speed>0.022360679774997897</speed>
  <fix>3d</fix>
</trkpt>
<trkpt lat="-27.2744125" lon="151.2900659">
  <ele>343.09</ele>
  <time>2026-09-01T19:55:04Z</time>
  <course>12.62</course>
  <speed>0.0</speed>
  <fix>3d</fix>
</trkpt>
<trkpt lat="-27.2744127" lon="151.290066">
  <ele>343.23</ele>
  <time>2026-09-01T19:55:04Z</time>
  <course>14.54</course>
  <speed>0.022360679774997897</speed>
  <fix>3d</fix>
</trkpt>
<trkpt lat="-27.2744125" lon="151.2900659">
  <ele>343.09</ele>
  <time>2026-09-01T19:55:04Z</time>
  <course>12.62</course>
  <speed>0.0</speed>
  <fix>3d</fix>
</trkpt>
<trkpt lat="-26.9720619" lon="149.6127921">
  <ele>339.29</ele>
  <time>2026-09-01T19:55:05Z</time>
  <course>310.27</course>
  <speed>0.0</speed>
  <fix>3d</fix>
</trkpt>
<trkpt lat="-26.9720619" lon="149.6127921">
  <ele>339.29</ele>
  <time>2026-09-01T19:55:05Z</time>
  <course>310.27</course>
  <speed>0.0</speed>
  <fix>3d</fix>
</trkpt>
<trkpt lat="-27.274439" lon="151.290064">
  <ele>-0.01</ele>
  <time>2026-09-01T19:55:05Z</time>
  <course>0.22</course>
  <speed>0.0</speed>
  <fix>3d</fix>
</trkpt>
<trkpt lat="-27.274439" lon="151.290064">
  <ele>343.1</ele>
  <time>2026-09-01T19:55:05Z</time>
  <course>294.58</course>
  <speed>0.0</speed>
  <fix>3d</fix>
</trkpt>
<trkpt lat="-27.274439" lon="151.290064">
  <ele>0.02</ele>
  <time>2026-09-01T19:55:05Z</time>
  <course>1.25</course>
  <speed>0.0</speed>
  <fix>3d</fix>
</trkpt>
<trkpt lat="-27.274439" lon="151.290064">
  <ele>343.1</ele>
  <time>2026-09-01T19:55:05Z</time>
  <course>294.58</course>
  <speed>0.0</speed>
  <fix>3d</fix>
</trkpt>
<trkpt lat="-27.274439" lon="151.290064">
  <ele>-0.08</ele>
  <time>2026-09-01T19:55:05Z</time>
  <course>2.21</course>
  <speed>0.0</speed>
  <fix>3d</fix>
</trkpt>
<trkpt lat="-27.274439" lon="151.290064">
  <ele>343.1</ele>
  <time>2026-09-01T19:55:05Z</time>
  <course>273.33</course>
  <speed>0.0</speed>
  <fix>3d</fix>
</trkpt>
<trkpt lat="-27.274439" lon="151.290064">
  <ele>0.22</ele>
  <time>2026-09-01T19:55:05Z</time>
  <course>3.09</course>
  <speed>0.0</speed>
  <fix>3d</fix>
</trkpt>
<trkpt lat="-27.274439" lon="151.290064">
  <ele>343.1</ele>
  <time>2026-09-01T19:55:05Z</time>
  <course>273.33</course>
  <speed>0.0</speed>
  <fix>3d</fix>
</trkpt>
<trkpt lat="-27.274439" lon="151.290064">
  <ele>0.09</ele>
  <time>2026-09-01T19:55:05Z</time>
  <course>3.88</course>
  <speed>0.0</speed>
  <fix>3d</fix>
</trkpt>
<trkpt lat="-27.274439" lon="151.290064">
  <ele>343.1</ele>
  <time>2026-09-01T19:55:05Z</time>
  <course>270.44</course>
  <speed>0.0</speed>
  <fix>3d</fix>
</trkpt>
<trkpt lat="-27.274439" lon="151.290064">
  <ele>0.08</ele>
  <time>2026-09-01T19:55:05Z</time>
  <course>4.6</course>
  <speed>0.0</speed>
  <fix>3d</fix>
</trkpt>
<trkpt lat="-27.274439" lon="151.290064">
  <ele>343.1</ele>
  <time>2026-09-01T19:55:05Z</time>
  <course>270.44</course>
  <speed>0.0</speed>
  <fix>3d</fix>
</trkpt>
<trkpt lat="-27.274439" lon="151.290064">
  <ele>0.09</ele>
  <time>2026-09-01T19:55:05Z</time>
  <course>5.25</course>
  <speed>0.0</speed>
  <fix>3d</fix>
</trkpt>
<trkpt lat="-27.274439" lon="151.290064">
  <ele>343.1</ele>
  <time>2026-09-01T19:55:05Z</time>
  <course>270.05</course>
  <speed>0.0</speed>
  <fix>3d</fix>
</trkpt>
<trkpt lat="-27.274439" lon="151.290064">
  <ele>-0.05</ele>
  <time>2026-09-01T19:55:05Z</time>
  <course>5.82</course>
  <speed>0.0</speed>
  <fix>3d</fix>
</trkpt>
<trkpt lat="-27.274439" lon="151.290064">
  <ele>343.1</ele>
  <time>2026-09-01T19:55:05Z</time>
  <course>270.05</course>
  <speed>0.0</speed>
  <fix>3d</fix>
</trkpt>
<trkpt lat="-27.274439" lon="151.290064">
  <ele>343.06</ele>
  <time>2026-09-01T19:55:05Z</time>
  <course>6.31</course>
  <speed>0.0</speed>
  <fix>3d</fix>
</trkpt>
<trkpt lat="-27.274439" lon="151.290064">
  <ele>343.1</ele>
  <time>2026-09-01T19:55:05Z</time>
  <course>270.0</course>
  <speed>0.0</speed>
  <fix>3d</fix>
</trkpt>
<trkpt lat="-27.274439" lon="151.290064">
  <ele>343.18</ele>
  <time>2026-09-01T19:55:05Z</time>
  <course>6.77</course>
  <speed>0.0</speed>
  <fix>3d</fix>
</trkpt>
<trkpt lat="-27.274439" lon="151.290064">
  <ele>343.1</ele>
  <time>2026-09-01T19:55:05Z</time>
  <course>270.0</course>
  <speed>0.0</speed>
  <fix>3d</fix>
</trkpt>
<trkpt lat="-27.274439" lon="151.290064">
  <ele>342.91</ele>
  <time>2026-09-01T19:55:05Z</time>
  <course>7.17</course>
  <speed>0.0</speed>
  <fix>3d</fix>
</trkpt>
<trkpt lat="-27.274439" lon="151.290064">
  <ele>343.1</ele>
  <time>2026-09-01T19:55:05Z</time>
  <course>270.0</course>
  <speed>0.0</speed>
  <fix>3d</fix>
</trkpt>
<trkpt lat="-27.274439" lon="151.290064">
  <ele>343.06</ele>
  <time>2026-09-01T19:55:05Z</time>
  <course>7.52</course>
  <speed>0.0</speed>
  <fix>3d</fix>
</trkpt>
<trkpt lat="-27.274439" lon="151.290064">
  <ele>343.1</ele>
  <time>2026-09-01T19:55:05Z</time>
  <course>270.0</course>
  <speed>0.0</speed>
  <fix>3d</fix>
</trkpt>
<trkpt lat="-27.274439" lon="151.290064">
  <ele>343.13</ele>
  <time>2026-09-01T19:55:05Z</time>
  <course>7.84</course>
  <speed>0.0</speed>
  <fix>3d</fix>
</trkpt>
<trkpt lat="-27.274439" lon="151.290064">
  <ele>343.1</ele>
  <time>2026-09-01T19:55:05Z</time>
  <course>270.0</course>
  <speed>0.0</speed>
  <fix>3d</fix>
</trkpt>
<trkpt lat="-27.274439" lon="151.290064">
  <ele>343.04</ele>
  <time>2026-09-01T19:55:05Z</time>
  <course>8.11</course>
  <speed>0.0</speed>
  <fix>3d</fix>
</trkpt>
<trkpt lat="-27.274439" lon="151.290064">
  <ele>343.1</ele>
  <time>2026-09-01T19:55:05Z</time>
  <course>270.0</course>
  <speed>0.0</speed>
  <fix>3d</fix>
</trkpt>
<trkpt lat="-27.274439" lon="151.290064">
  <ele>342.88</ele>
  <time>2026-09-01T19:55:05Z</time>
  <course>8.36</course>
  <speed>0.0</speed>
  <fix>3d</fix>
</trkpt>
<trkpt lat="-27.274439" lon="151.290064">
  <ele>343.1</ele>
  <time>2026-09-01T19:55:05Z</time>
  <course>270.0</course>
  <speed>0.0</speed>
  <fix>3d</fix>
</trkpt>
<trkpt lat="-27.274439" lon="151.290064">
  <ele>343.02</ele>
  <time>2026-09-01T19:55:05Z</time>
  <course>8.58</course>
  <speed>0.0</speed>
  <fix>3d</fix>
</trkpt>
<trkpt lat="-27.274439" lon="151.290064">
  <ele>343.1</ele>
  <time>2026-09-01T19:55:05Z</time>
  <course>270.0</course>
  <speed>0.0</speed>
  <fix>3d</fix>
</trkpt>
<trkpt lat="-27.274439" lon="151.290064">
  <ele>343.23</ele>
  <time>2026-09-01T19:55:05Z</time>
  <course>8.78</course>
  <speed>0.0</speed>
  <fix>3d</fix>
</trkpt>
<trkpt lat="-27.274439" lon="151.290064">
  <ele>343.1</ele>
  <time>2026-09-01T19:55:05Z</time>
  <course>270.0</course>
  <speed>0.0</speed>
  <fix>3d</fix>
</trkpt>
<trkpt lat="-27.274439" lon="151.290064">
  <ele>343.17</ele>
  <time>2026-09-01T19:55:05Z</time>
  <course>8.95</course>
  <speed>0.0</speed>
  <fix>3d</fix>
</trkpt>
<trkpt lat="-27.274439" lon="151.290064">
  <ele>343.1</ele>
  <time>2026-09-01T19:55:05Z</time>
  <course>270.0</course>
  <speed>0.0</speed>
  <fix>3d</fix>
</trkpt>
<trkpt lat="-27.274439" lon="151.290064">
  <ele>343.04</ele>
  <time>2026-09-01T19:55:05Z</time>
  <course>9.11</course>
  <speed>0.0</speed>
  <fix>3d</fix>
</trkpt>
<trkpt lat="-27.274439" lon="151.290064">
  <ele>343.1</ele>
  <time>2026-09-01T19:55:05Z</time>
  <course>270.0</course>
  <speed>0.0</speed>
  <fix>3d</fix>
</trkpt>
<trkpt lat="-27.274439" lon="151.290064">
  <ele>342.89</ele>
  <time>2026-09-01T19:55:05Z</time>
  <course>9.26</course>
  <speed>0.0</speed>
  <fix>3d</fix>
</trkpt>
<trkpt lat="-27.274439" lon="151.290064">
  <ele>343.1</ele>
  <time>2026-09-01T19:55:05Z</time>
  <course>270.0</course>
  <speed>0.0</speed>
  <fix>3d</fix>
</trkpt>
<trkpt lat="-27.274439" lon="151.290064">
  <ele>343.08</ele>
  <time>2026-09-01T19:55:05Z</time>
  <course>9.39</course>
  <speed>0.0</speed>
  <fix>3d</fix>
</trkpt>
<trkpt lat="-27.274439" lon="151.290064">
  <ele>343.1</ele>
  <time>2026-09-01T19:55:05Z</time>
  <course>270.0</course>
  <speed>0.0</speed>
  <fix>3d</fix>
</trkpt>
<trkpt lat="-27.274439" lon="151.290064">
  <ele>343.19</ele>
  <time>2026-09-01T19:55:05Z</time>
  <course>9.52</course>
  <speed>0.0</speed>
  <fix>3d</fix>
</trkpt>
<trkpt lat="-27.274439" lon="151.290064">
  <ele>343.1</ele>
  <time>2026-09-01T19:55:05Z</time>
  <course>270.0</course>
  <speed>0.0</speed>
  <fix>3d</fix>
</trkpt>
<trkpt lat="-27.274439" lon="151.290064">
  <ele>342.88</ele>
  <time>2026-09-01T19:55:05Z</time>
  <course>9.63</course>
  <speed>0.0</speed>
  <fix>3d</fix>
</trkpt>
<trkpt lat="-27.274439" lon="151.290064">
  <ele>343.1</ele>
  <time>2026-09-01T19:55:05Z</time>
  <course>270.0</course>
  <speed>0.0</speed>
  <fix>3d</fix>
</trkpt>
<trkpt lat="-27.274439" lon="151.290064">
  <ele>343.17</ele>
  <time>2026-09-01T19:55:05Z</time>
  <course>9.74</course>
  <speed>0.0</speed>
  <fix>3d</fix>
</trkpt>
<trkpt lat="-27.274439" lon="151.290064">
  <ele>343.1</ele>
  <time>2026-09-01T19:55:05Z</time>
  <course>270.0</course>
  <speed>0.0</speed>
  <fix>3d</fix>
</trkpt>
<trkpt lat="-27.274439" lon="151.290064">
  <ele>342.89</ele>
  <time>2026-09-01T19:55:05Z</time>
  <course>9.83</course>
  <speed>0.0</speed>
  <fix>3d</fix>
</trkpt>
<trkpt lat="-27.274439" lon="151.290064">
  <ele>343.1</ele>
  <time>2026-09-01T19:55:05Z</time>
  <course>270.0</course>
  <speed>0.0</speed>
  <fix>3d</fix>
</trkpt>
<trkpt lat="-27.274439" lon="151.290064">
  <ele>342.99</ele>
  <time>2026-09-01T19:55:05Z</time>
  <course>9.92</course>
  <speed>0.0</speed>
  <fix>3d</fix>
</trkpt>
<trkpt lat="-27.274439" lon="151.290064">
  <ele>343.1</ele>
  <time>2026-09-01T19:55:05Z</time>
  <course>270.0</course>
  <speed>0.0</speed>
  <fix>3d</fix>
</trkpt>
<trkpt lat="-27.274439" lon="151.290064">
  <ele>342.87</ele>
  <time>2026-09-01T19:55:05Z</time>
  <course>10.0</course>
  <speed>0.0</speed>
  <fix>3d</fix>
</trkpt>
<trkpt lat="-27.274439" lon="151.290064">
  <ele>343.1</ele>
  <time>2026-09-01T19:55:05Z</time>
  <course>270.0</course>
  <speed>0.0</speed>
  <fix>3d</fix>
</trkpt>
<trkpt lat="-27.274439" lon="151.290064">
  <ele>343.09</ele>
  <time>2026-09-01T19:55:05Z</time>
  <course>10.08</course>
  <speed>0.0</speed>
  <fix>3d</fix>
</trkpt>
<trkpt lat="-27.274439" lon="151.290064">
  <ele>343.1</ele>
  <time>2026-09-01T19:55:05Z</time>
  <course>270.0</course>
  <speed>0.0</speed>
  <fix>3d</fix>
</trkpt>
<trkpt lat="-27.274439" lon="151.290064">
  <ele>343.18</ele>
  <time>2026-09-01T19:55:05Z</time>
  <course>10.15</course>
  <speed>0.0</speed>
  <fix>3d</fix>
</trkpt>
<trkpt lat="-27.274439" lon="151.290064">
  <ele>343.1</ele>
  <time>2026-09-01T19:55:05Z</time>
  <course>270.0</course>
  <speed>0.0</speed>
  <fix>3d</fix>
</trkpt>
<trkpt lat="-27.274439" lon="151.290064">
  <ele>343.05</ele>
  <time>2026-09-01T19:55:05Z</time>
  <course>10.21</course>
  <speed>0.0</speed>
  <fix>3d</fix>
</trkpt>
<trkpt lat="-27.274439" lon="151.290064">
  <ele>343.1</ele>
  <time>2026-09-01T19:55:05Z</time>
  <course>270.0</course>
  <speed>0.0</speed>
  <fix>3d</fix>
</trkpt>
<trkpt lat="-27.274439" lon="151.290064">
  <ele>342.96</ele>
  <time>2026-09-01T19:55:05Z</time>
  <course>10.27</course>
  <speed>0.0</speed>
  <fix>3d</fix>
</trkpt>
<trkpt lat="-27.274439" lon="151.290064">
  <ele>343.1</ele>
  <time>2026-09-01T19:55:05Z</time>
  <course>270.0</course>
  <speed>0.0</speed>
  <fix>3d</fix>
</trkpt>
<trkpt lat="-27.274439" lon="151.290064">
  <ele>343.1</ele>
  <time>2026-09-01T19:55:05Z</time>
  <course>10.32</course>
  <speed>0.0</speed>
  <fix>3d</fix>
</trkpt>
<trkpt lat="-27.274439" lon="151.290064">
  <ele>343.1</ele>
  <time>2026-09-01T19:55:05Z</time>
  <course>270.0</course>
  <speed>0.0</speed>
  <fix>3d</fix>
</trkpt>
<trkpt lat="-27.274439" lon="151.290064">
  <ele>343.22</ele>
  <time>2026-09-01T19:55:05Z</time>
  <course>10.37</course>
  <speed>0.0</speed>
  <fix>3d</fix>
</trkpt>
<trkpt lat="-27.274439" lon="151.290064">
  <ele>343.1</ele>
  <time>2026-09-01T19:55:05Z</time>
  <course>270.0</course>
  <speed>0.0</speed>
  <fix>3d</fix>
</trkpt>
<trkpt lat="-27.274439" lon="151.290064">
  <ele>343.17</ele>
  <time>2026-09-01T19:55:05Z</time>
  <course>10.41</course>
  <speed>0.0</speed>
  <fix>3d</fix>
</trkpt>
<trkpt lat="-27.274439" lon="151.290064">
  <ele>343.1</ele>
  <time>2026-09-01T19:55:05Z</time>
  <course>270.0</course>
  <speed>0.0</speed>
  <fix>3d</fix>
</trkpt>
<trkpt lat="-27.274439" lon="151.290064">
  <ele>343.08</ele>
  <time>2026-09-01T19:55:05Z</time>
  <course>10.45</course>
  <speed>0.0</speed>
  <fix>3d</fix>
</trkpt>
<trkpt lat="-27.274439" lon="151.290064">
  <ele>343.1</ele>
  <time>2026-09-01T19:55:05Z</time>
  <course>270.0</course>
  <speed>0.0</speed>
  <fix>3d</fix>
</trkpt>
<trkpt lat="-27.274439" lon="151.290064">
  <ele>343.04</ele>
  <time>2026-09-01T19:55:05Z</time>
  <course>10.48</course>
  <speed>0.0</speed>
  <fix>3d</fix>
</trkpt>
<trkpt lat="-27.274439" lon="151.290064">
  <ele>343.1</ele>
  <time>2026-09-01T19:55:05Z</time>
  <course>270.0</course>
  <speed>0.0</speed>
  <fix>3d</fix>
</trkpt>
<trkpt lat="-27.274439" lon="151.290064">
  <ele>343.18</ele>
  <time>2026-09-01T19:55:05Z</time>
  <course>10.51</course>
  <speed>0.0</speed>
  <fix>3d</fix>
</trkpt>
<trkpt lat="-27.274439" lon="151.290064">
  <ele>343.1</ele>
  <time>2026-09-01T19:55:05Z</time>
  <course>270.0</course>
  <speed>0.0</speed>
  <fix>3d</fix>
</trkpt>
<trkpt lat="-27.274439" lon="151.290064">
  <ele>343.12</ele>
  <time>2026-09-01T19:55:05Z</time>
  <course>10.54</course>
  <speed>0.0</speed>
  <fix>3d</fix>
</trkpt>
<trkpt lat="-27.274439" lon="151.290064">
  <ele>343.1</ele>
  <time>2026-09-01T19:55:05Z</time>
  <course>270.0</course>
  <speed>0.0</speed>
  <fix>3d</fix>
</trkpt>
<trkpt lat="-27.274439" lon="151.290064">
  <ele>343.04</ele>
  <time>2026-09-01T19:55:05Z</time>
  <course>10.56</course>
  <speed>0.0</speed>
  <fix>3d</fix>
</trkpt>
<trkpt lat="-27.274439" lon="151.290064">
  <ele>343.1</ele>
  <time>2026-09-01T19:55:05Z</time>
  <course>270.0</course>
  <speed>0.0</speed>
  <fix>3d</fix>
</trkpt>
<trkpt lat="-27.274439" lon="151.290064">
  <ele>343.07</ele>
  <time>2026-09-01T19:55:05Z</time>
  <course>10.59</course>
  <speed>0.0</speed>
  <fix>3d</fix>
</trkpt>
<trkpt lat="-27.274439" lon="151.290064">
  <ele>343.1</ele>
  <time>2026-09-01T19:55:05Z</time>
  <course>270.0</course>
  <speed>0.0</speed>
  <fix>3d</fix>
</trkpt>
<trkpt lat="-27.274439" lon="151.290064">
  <ele>343.04</ele>
  <time>2026-09-01T19:55:05Z</time>
  <course>10.61</course>
  <speed>0.0</speed>
  <fix>3d</fix>
</trkpt>
<trkpt lat="-27.274439" lon="151.290064">
  <ele>343.1</ele>
  <time>2026-09-01T19:55:05Z</time>
  <course>270.0</course>
  <speed>0.0</speed>
  <fix>3d</fix>
</trkpt>
<trkpt lat="-27.274439" lon="151.290064">
  <ele>343.01</ele>
  <time>2026-09-01T19:55:05Z</time>
  <course>10.62</course>
  <speed>0.0</speed>
  <fix>3d</fix>
</trkpt>
<trkpt lat="-27.274439" lon="151.290064">
  <ele>343.1</ele>
  <time>2026-09-01T19:55:05Z</time>
  <course>270.0</course>
  <speed>0.0</speed>
  <fix>3d</fix>
</trkpt>
<trkpt lat="-27.274439" lon="151.290064">
  <ele>343.2</ele>
  <time>2026-09-01T19:55:05Z</time>
  <course>10.64</course>
  <speed>0.0</speed>
  <fix>3d</fix>
</trkpt>
<trkpt lat="-27.274439" lon="151.290064">
  <ele>343.1</ele>
  <time>2026-09-01T19:55:05Z</time>
  <course>270.0</course>
  <speed>0.0</speed>
  <fix>3d</fix>
</trkpt>
<trkpt lat="-27.274439" lon="151.290064">
  <ele>343.24</ele>
  <time>2026-09-01T19:55:05Z</time>
  <course>10.65</course>
  <speed>0.0</speed>
  <fix>3d</fix>
</trkpt>
<trkpt lat="-27.274439" lon="151.290064">
  <ele>343.1</ele>
  <time>2026-09-01T19:55:05Z</time>
  <course>270.0</course>
  <speed>0.0</speed>
  <fix>3d</fix>
</trkpt>
<trkpt lat="-27.274439" lon="151.290064">
  <ele>342.88</ele>
  <time>2026-09-01T19:55:05Z</time>
  <course>10.67</course>
  <speed>0.0</speed>
  <fix>3d</fix>
</trkpt>
<trkpt lat="-27.274439" lon="151.290064">
  <ele>343.1</ele>
  <time>2026-09-01T19:55:05Z</time>
  <course>270.0</course>
  <speed>0.0</speed>
  <fix>3d</fix>
</trkpt>
<trkpt lat="-27.274439" lon="151.290064">
  <ele>343.21</ele>
  <time>2026-09-01T19:55:05Z</time>
  <course>10.68</course>
  <speed>0.0</speed>
  <fix>3d</fix>
</trkpt>
<trkpt lat="-27.274439" lon="151.290064">
  <ele>343.1</ele>
  <time>2026-09-01T19:55:05Z</time>
  <course>270.0</course>
  <speed>0.0</speed>
  <fix>3d</fix>
</trkpt>
<trkpt lat="-27.274439" lon="151.290064">
  <ele>343.02</ele>
  <time>2026-09-01T19:55:05Z</time>
  <course>10.69</course>
  <speed>0.0</speed>
  <fix>3d</fix>
</trkpt>
<trkpt lat="-27.274439" lon="151.290064">
  <ele>343.1</ele>
  <time>2026-09-01T19:55:05Z</time>
  <course>270.0</course>
  <speed>0.0</speed>
  <fix>3d</fix>
</trkpt>
<trkpt lat="-27.274439" lon="151.290064">
  <ele>342.93</ele>
  <time>2026-09-01T19:55:05Z</time>
  <course>10.7</course>
  <speed>0.0</speed>
  <fix>3d</fix>
</trkpt>
<trkpt lat="-27.274439" lon="151.290064">
  <ele>343.1</ele>
  <time>2026-09-01T19:55:05Z</time>
  <course>270.0</course>
  <speed>0.0</speed>
  <fix>3d</fix>
</trkpt>
<trkpt lat="-27.274439" lon="151.290064">
  <ele>343.07</ele>
  <time>2026-09-01T19:55:05Z</time>
  <course>10.71</course>
  <speed>0.0</speed>
  <fix>3d</fix>
</trkpt>
<trkpt lat="-27.274439" lon="151.290064">
  <ele>343.1</ele>
  <time>2026-09-01T19:55:05Z</time>
  <course>270.0</course>
  <speed>0.0</speed>
  <fix>3d</fix>
</trkpt>
<trkpt lat="-27.274439" lon="151.290064">
  <ele>342.94</ele>
  <time>2026-09-01T19:55:05Z</time>
  <course>10.72</course>
  <speed>0.0</speed>
  <fix>3d</fix>
</trkpt>
<trkpt lat="-27.274439" lon="151.290064">
  <ele>343.1</ele>
  <time>2026-09-01T19:55:05Z</time>
  <course>270.0</course>
  <speed>0.0</speed>
  <fix>3d</fix>
</trkpt>
<trkpt lat="-27.274439" lon="151.290064">
  <ele>343.11</ele>
  <time>2026-09-01T19:55:05Z</time>
  <course>10.72</course>
  <speed>0.0</speed>
  <fix>3d</fix>
</trkpt>
<trkpt lat="-27.274439" lon="151.290064">
  <ele>343.1</ele>
  <time>2026-09-01T19:55:05Z</time>
  <course>270.0</course>
  <speed>0.0</speed>
  <fix>3d</fix>
</trkpt>
<trkpt lat="-27.274439" lon="151.290064">
  <ele>343.24</ele>
  <time>2026-09-01T19:55:05Z</time>
  <course>10.73</course>
  <speed>0.0</speed>
  <fix>3d</fix>
</trkpt>
<trkpt lat="-27.274439" lon="151.290064">
  <ele>343.1</ele>
  <time>2026-09-01T19:55:05Z</time>
  <course>270.0</course>
  <speed>0.0</speed>
  <fix>3d</fix>
</trkpt>
<trkpt lat="-27.274439" lon="151.290064">
  <ele>343.18</ele>
  <time>2026-09-01T19:55:05Z</time>
  <course>10.74</course>
  <speed>0.0</speed>
  <fix>3d</fix>
</trkpt>
<trkpt lat="-27.274439" lon="151.290064">
  <ele>343.1</ele>
  <time>2026-09-01T19:55:05Z</time>
  <course>270.0</course>
  <speed>0.0</speed>
  <fix>3d</fix>
</trkpt>
<trkpt lat="-27.274439" lon="151.290064">
  <ele>342.89</ele>
  <time>2026-09-01T19:55:05Z</time>
  <course>10.74</course>
  <speed>0.0</speed>
  <fix>3d</fix>
</trkpt>
<trkpt lat="-27.274439" lon="151.290064">
  <ele>343.1</ele>
  <time>2026-09-01T19:55:05Z</time>
  <course>270.0</course>
  <speed>0.0</speed>
  <fix>3d</fix>
</trkpt>
<trkpt lat="-27.274439" lon="151.290064">
  <ele>343.23</ele>
  <time>2026-09-01T19:55:05Z</time>
  <course>10.75</course>
  <speed>0.0</speed>
  <fix>3d</fix>
</trkpt>
<trkpt lat="-27.274439" lon="151.290064">
  <ele>343.1</ele>
  <time>2026-09-01T19:55:05Z</time>
  <course>270.0</course>
  <speed>0.0</speed>
  <fix>3d</fix>
</trkpt>
<trkpt lat="-27.274439" lon="151.290064">
  <ele>343.23</ele>
  <time>2026-09-01T19:55:05Z</time>
  <course>10.75</course>
  <speed>0.0</speed>
  <fix>3d</fix>
</trkpt>
<trkpt lat="-27.274439" lon="151.290064">
  <ele>343.1</ele>
  <time>2026-09-01T19:55:05Z</time>
  <course>270.0</course>
  <speed>0.0</speed>
  <fix>3d</fix>
</trkpt>
<trkpt lat="-27.274439" lon="151.290064">
  <ele>342.99</ele>
  <time>2026-09-01T19:55:05Z</time>
  <course>10.76</course>
  <speed>0.0</speed>
  <fix>3d</fix>
</trkpt>
<trkpt lat="-27.274439" lon="151.290064">
  <ele>343.1</ele>
  <time>2026-09-01T19:55:05Z</time>
  <course>270.0</course>
  <speed>0.0</speed>
  <fix>3d</fix>
</trkpt>
<trkpt lat="-27.274439" lon="151.290064">
  <ele>343.13</ele>
  <time>2026-09-01T19:55:05Z</time>
  <course>10.76</course>
  <speed>0.0</speed>
  <fix>3d</fix>
</trkpt>
<trkpt lat="-27.274439" lon="151.290064">
  <ele>343.1</ele>
  <time>2026-09-01T19:55:05Z</time>
  <course>270.0</course>
  <speed>0.0</speed>
  <fix>3d</fix>
</trkpt>
<trkpt lat="-27.274439" lon="151.290064">
  <ele>343.07</ele>
  <time>2026-09-01T19:55:05Z</time>
  <course>10.76</course>
  <speed>0.0</speed>
  <fix>3d</fix>
</trkpt>
<trkpt lat="-27.274439" lon="151.290064">
  <ele>343.1</ele>
  <time>2026-09-01T19:55:05Z</time>
  <course>270.0</course>
  <speed>0.0</speed>
  <fix>3d</fix>
</trkpt>
<trkpt lat="-27.274439" lon="151.290064">
  <ele>343.19</ele>
  <time>2026-09-01T19:55:05Z</time>
  <course>10.77</course>
  <speed>0.0</speed>
  <fix>3d</fix>
</trkpt>
<trkpt lat="-27.274439" lon="151.290064">
  <ele>343.1</ele>
  <time>2026-09-01T19:55:05Z</time>
  <course>270.0</course>
  <speed>0.0</speed>
  <fix>3d</fix>
</trkpt>
<trkpt lat="-27.274439" lon="151.290064">
  <ele>342.93</ele>
  <time>2026-09-01T19:55:05Z</time>
  <course>10.77</course>
  <speed>0.0</speed>
  <fix>3d</fix>
</trkpt>
<trkpt lat="-27.274439" lon="151.290064">
  <ele>343.1</ele>
  <time>2026-09-01T19:55:05Z</time>
  <course>270.0</course>
  <speed>0.0</speed>
  <fix>3d</fix>
</trkpt>
<trkpt lat="-27.274439" lon="151.290064">
  <ele>343.19</ele>
  <time>2026-09-01T19:55:05Z</time>
  <course>10.77</course>
  <speed>0.0</speed>
  <fix>3d</fix>
</trkpt>
<trkpt lat="-27.274439" lon="151.290064">
  <ele>343.1</ele>
  <time>2026-09-01T19:55:05Z</time>
  <course>270.0</course>
  <speed>0.0</speed>
  <fix>3d</fix>
</trkpt>
<trkpt lat="-27.274439" lon="151.290064">
  <ele>343.1</ele>
  <time>2026-09-01T19:55:05Z</time>
  <course>10.77</course>
  <speed>0.0</speed>
  <fix>3d</fix>
</trkpt>
<trkpt lat="-27.274439" lon="151.290064">
  <ele>343.1</ele>
  <time>2026-09-01T19:55:05Z</time>
  <course>270.0</course>
  <speed>0.0</speed>
  <fix>3d</fix>
</trkpt>
<trkpt lat="-27.274439" lon="151.290064">
  <ele>343.01</ele>
  <time>2026-09-01T19:55:05Z</time>
  <course>10.77</course>
  <speed>0.0</speed>
  <fix>3d</fix>
</trkpt>
<trkpt lat="-27.274439" lon="151.290064">
  <ele>343.1</ele>
  <time>2026-09-01T19:55:05Z</time>
  <course>270.0</course>
  <speed>0.0</speed>
  <fix>3d</fix>
</trkpt>
<trkpt lat="-27.274439" lon="151.290064">
  <ele>343.11</ele>
  <time>2026-09-01T19:55:05Z</time>
  <course>10.78</course>
  <speed>0.0</speed>
  <fix>3d</fix>
</trkpt>
<trkpt lat="-27.274439" lon="151.290064">
  <ele>343.1</ele>
  <time>2026-09-01T19:55:05Z</time>
  <course>270.0</course>
  <speed>0.0</speed>
  <fix>3d</fix>
</trkpt>
<trkpt lat="-27.274439" lon="151.290064">
  <ele>342.96</ele>
  <time>2026-09-01T19:55:05Z</time>
  <course>10.78</course>
  <speed>0.0</speed>
  <fix>3d</fix>
</trkpt>
<trkpt lat="-27.274439" lon="151.290064">
  <ele>343.1</ele>
  <time>2026-09-01T19:55:05Z</time>
  <course>270.0</course>
  <speed>0.0</speed>
  <fix>3d</fix>
</trkpt>
<trkpt lat="-27.274439" lon="151.290064">
  <ele>343.19</ele>
  <time>2026-09-01T19:55:05Z</time>
  <course>10.78</course>
  <speed>0.0</speed>
  <fix>3d</fix>
</trkpt>
<trkpt lat="-27.274439" lon="151.290064">
  <ele>343.1</ele>
  <time>2026-09-01T19:55:05Z</time>
  <course>270.0</course>
  <speed>0.0</speed>
  <fix>3d</fix>
</trkpt>
<trkpt lat="-27.274439" lon="151.290064">
  <ele>343.0</ele>
  <time>2026-09-01T19:55:05Z</time>
  <course>10.78</course>
  <speed>0.0</speed>
  <fix>3d</fix>
</trkpt>
<trkpt lat="-27.274439" lon="151.290064">
  <ele>343.1</ele>
  <time>2026-09-01T19:55:05Z</time>
  <course>270.0</course>
  <speed>0.0</speed>
  <fix>3d</fix>
</trkpt>
<trkpt lat="-27.274439" lon="151.290064">
  <ele>343.2</ele>
  <time>2026-09-01T19:55:05Z</time>
  <course>10.78</course>
  <speed>0.0</speed>
  <fix>3d</fix>
</trkpt>
<trkpt lat="-27.274439" lon="151.290064">
  <ele>343.1</ele>
  <time>2026-09-01T19:55:05Z</time>
  <course>270.0</course>
  <speed>0.0</speed>
  <fix>3d</fix>
</trkpt>
<trkpt lat="-27.274439" lon="151.290064">
  <ele>343.2</ele>
  <time>2026-09-01T19:55:06Z</time>
  <course>10.78</course>
  <speed>0.0</speed>
  <fix>3d</fix>
</trkpt>
<trkpt lat="-27.274439" lon="151.290064">
  <ele>343.1</ele>
  <time>2026-09-01T19:55:06Z</time>
  <course>270.0</course>
  <speed>0.0</speed>
  <fix>3d</fix>
</trkpt>
<trkpt lat="-27.274439" lon="151.290064">
  <ele>343.13</ele>
  <time>2026-09-01T19:55:06Z</time>
  <course>10.78</course>
  <speed>0.0</speed>
  <fix>3d</fix>
</trkpt>
<trkpt lat="-27.274439" lon="151.290064">
  <ele>343.1</ele>
  <time>2026-09-01T19:55:06Z</time>
  <course>270.0</course>
  <speed>0.0</speed>
  <fix>3d</fix>
</trkpt>
<trkpt lat="-27.274439" lon="151.290064">
  <ele>343.1</ele>
  <time>2026-09-01T19:55:06Z</time>
  <course>10.78</course>
  <speed>0.0</speed>
  <fix>3d</fix>
</trkpt>
<trkpt lat="-27.274439" lon="151.290064">
  <ele>343.1</ele>
  <time>2026-09-01T19:55:06Z</time>
  <course>270.0</course>
  <speed>0.0</speed>
  <fix>3d</fix>
</trkpt>
<trkpt lat="-27.274439" lon="151.290064">
  <ele>343.12</ele>
  <time>2026-09-01T19:55:06Z</time>
  <course>10.79</course>
  <speed>0.0</speed>
  <fix>3d</fix>
</trkpt>
<trkpt lat="-27.274439" lon="151.290064">
  <ele>343.1</ele>
  <time>2026-09-01T19:55:06Z</time>
  <course>270.0</course>
  <speed>0.0</speed>
  <fix>3d</fix>
</trkpt>
<trkpt lat="-27.274439" lon="151.290064">
  <ele>342.94</ele>
  <time>2026-09-01T19:55:06Z</time>
  <course>10.79</course>
  <speed>0.0</speed>
  <fix>3d</fix>
</trkpt>
<trkpt lat="-27.274439" lon="151.290064">
  <ele>343.1</ele>
  <time>2026-09-01T19:55:06Z</time>
  <course>270.0</course>
  <speed>0.0</speed>
  <fix>3d</fix>
</trkpt>
<trkpt lat="-27.274439" lon="151.290064">
  <ele>343.25</ele>
  <time>2026-09-01T19:55:06Z</time>
  <course>10.79</course>
  <speed>0.0</speed>
  <fix>3d</fix>
</trkpt>
<trkpt lat="-27.274439" lon="151.290064">
  <ele>343.1</ele>
  <time>2026-09-01T19:55:06Z</time>
  <course>270.0</course>
  <speed>0.0</speed>
  <fix>3d</fix>
</trkpt>
<trkpt lat="-27.274439" lon="151.290064">
  <ele>342.93</ele>
  <time>2026-09-01T19:55:06Z</time>
  <course>10.79</course>
  <speed>0.0</speed>
  <fix>3d</fix>
</trkpt>
<trkpt lat="-27.274439" lon="151.290064">
  <ele>343.1</ele>
  <time>2026-09-01T19:55:06Z</time>
  <course>270.0</course>
  <speed>0.0</speed>
  <fix>3d</fix>
</trkpt>
<trkpt lat="-27.274439" lon="151.290064">
  <ele>343.08</ele>
  <time>2026-09-01T19:55:06Z</time>
  <course>10.79</course>
  <speed>0.0</speed>
  <fix>3d</fix>
</trkpt>
<trkpt lat="-27.274439" lon="151.290064">
  <ele>343.1</ele>
  <time>2026-09-01T19:55:06Z</time>
  <course>270.0</course>
  <speed>0.0</speed>
  <fix>3d</fix>
</trkpt>
<trkpt lat="-27.274439" lon="151.290064">
  <ele>343.23</ele>
  <time>2026-09-01T19:55:06Z</time>
  <course>10.79</course>
  <speed>0.0</speed>
  <fix>3d</fix>
</trkpt>
<trkpt lat="-27.274439" lon="151.290064">
  <ele>343.1</ele>
  <time>2026-09-01T19:55:06Z</time>
  <course>270.0</course>
  <speed>0.0</speed>
  <fix>3d</fix>
</trkpt>
<trkpt lat="-27.274439" lon="151.290064">
  <ele>343.01</ele>
  <time>2026-09-01T19:55:06Z</time>
  <course>10.79</course>
  <speed>0.0</speed>
  <fix>3d</fix>
</trkpt>
<trkpt lat="-27.274439" lon="151.290064">
  <ele>343.1</ele>
  <time>2026-09-01T19:55:06Z</time>
  <course>270.0</course>
  <speed>0.0</speed>
  <fix>3d</fix>
</trkpt>
<trkpt lat="-27.274439" lon="151.290064">
  <ele>343.1</ele>
  <time>2026-09-01T19:55:06Z</time>
  <course>10.79</course>
  <speed>0.0</speed>
  <fix>3d</fix>
</trkpt>
<trkpt lat="-27.274439" lon="151.290064">
  <ele>343.1</ele>
  <time>2026-09-01T19:55:06Z</time>
  <course>270.0</course>
  <speed>0.0</speed>
  <fix>3d</fix>
</trkpt>
<trkpt lat="-27.274439" lon="151.290064">
  <ele>342.99</ele>
  <time>2026-09-01T19:55:06Z</time>
  <course>10.79</course>
  <speed>0.0</speed>
  <fix>3d</fix>
</trkpt>
<trkpt lat="-27.274439" lon="151.290064">
  <ele>343.1</ele>
  <time>2026-09-01T19:55:06Z</time>
  <course>270.0</course>
  <speed>0.0</speed>
  <fix>3d</fix>
</trkpt>
<trkpt lat="-27.274439" lon="151.290064">
  <ele>342.87</ele>
  <time>2026-09-01T19:55:06Z</time>
  <course>10.79</course>
  <speed>0.0</speed>
  <fix>3d</fix>
</trkpt>
<trkpt lat="-27.274439" lon="151.290064">
  <ele>343.1</ele>
  <time>2026-09-01T19:55:06Z</time>
  <course>270.0</course>
  <speed>0.0</speed>
  <fix>3d</fix>
</trkpt>
<trkpt lat="-27.274439" lon="151.290064">
  <ele>343.1</ele>
  <time>2026-09-01T19:55:06Z</time>
  <course>10.79</course>
  <speed>0.0</speed>
  <fix>3d</fix>
</trkpt>
<trkpt lat="-27.274439" lon="151.290064">
  <ele>343.1</ele>
  <time>2026-09-01T19:55:06Z</time>
  <course>270.0</course>
  <speed>0.0</speed>
  <fix>3d</fix>
</trkpt>
<trkpt lat="-27.274439" lon="151.290064">
  <ele>342.99</ele>
  <time>2026-09-01T19:55:06Z</time>
  <course>10.79</course>
  <speed>0.0</speed>
  <fix>3d</fix>
</trkpt>
<trkpt lat="-27.274439" lon="151.290064">
  <ele>343.1</ele>
  <time>2026-09-01T19:55:06Z</time>
  <course>270.0</course>
  <speed>0.0</speed>
  <fix>3d</fix>
</trkpt>
<trkpt lat="-27.274439" lon="151.290064">
  <ele>342.91</ele>
  <time>2026-09-01T19:55:06Z</time>
  <course>10.79</course>
  <speed>0.0</speed>
  <fix>3d</fix>
</trkpt>
<trkpt lat="-27.274439" lon="151.290064">
  <ele>343.1</ele>
  <time>2026-09-01T19:55:06Z</time>
  <course>270.0</course>
  <speed>0.0</speed>
  <fix>3d</fix>
</trkpt>
<trkpt lat="-27.274439" lon="151.290064">
  <ele>342.9</ele>
  <time>2026-09-01T19:55:06Z</time>
  <course>10.79</course>
  <speed>0.0</speed>
  <fix>3d</fix>
</trkpt>
<trkpt lat="-27.274439" lon="151.290064">
  <ele>343.1</ele>
  <time>2026-09-01T19:55:06Z</time>
  <course>270.0</course>
  <speed>0.0</speed>
  <fix>3d</fix>
</trkpt>
<trkpt lat="-27.274439" lon="151.290064">
  <ele>342.87</ele>
  <time>2026-09-01T19:55:06Z</time>
  <course>10.79</course>
  <speed>0.0</speed>
  <fix>3d</fix>
</trkpt>
<trkpt lat="-27.274439" lon="151.290064">
  <ele>343.1</ele>
  <time>2026-09-01T19:55:06Z</time>
  <course>270.0</course>
  <speed>0.0</speed>
  <fix>3d</fix>
</trkpt>
<trkpt lat="-27.274439" lon="151.290064">
  <ele>343.12</ele>
  <time>2026-09-01T19:55:06Z</time>
  <course>10.79</course>
  <speed>0.0</speed>
  <fix>3d</fix>
</trkpt>
<trkpt lat="-27.274439" lon="151.290064">
  <ele>343.1</ele>
  <time>2026-09-01T19:55:06Z</time>
  <course>270.0</course>
  <speed>0.0</speed>
  <fix>3d</fix>
</trkpt>
<trkpt lat="-27.274439" lon="151.290064">
  <ele>342.99</ele>
  <time>2026-09-01T19:55:06Z</time>
  <course>10.79</course>
  <speed>0.0</speed>
  <fix>3d</fix>
</trkpt>
<trkpt lat="-27.274439" lon="151.290064">
  <ele>343.1</ele>
  <time>2026-09-01T19:55:06Z</time>
  <course>270.0</course>
  <speed>0.0</speed>
  <fix>3d</fix>
</trkpt>
<trkpt lat="-27.274439" lon="151.290064">
  <ele>343.13</ele>
  <time>2026-09-01T19:55:06Z</time>
  <course>10.79</course>
  <speed>0.0</speed>
  <fix>3d</fix>
</trkpt>
<trkpt lat="-27.274439" lon="151.290064">
  <ele>343.1</ele>
  <time>2026-09-01T19:55:06Z</time>
  <course>270.0</course>
  <speed>0.0</speed>
  <fix>3d</fix>
</trkpt>
<trkpt lat="-27.274439" lon="151.290064">
  <ele>343.0</ele>
  <time>2026-09-01T19:55:06Z</time>
  <course>10.79</course>
  <speed>0.0</speed>
  <fix>3d</fix>
</trkpt>
<trkpt lat="-27.274439" lon="151.290064">
  <ele>343.1</ele>
  <time>2026-09-01T19:55:06Z</time>
  <course>270.0</course>
  <speed>0.0</speed>
  <fix>3d</fix>
</trkpt>
<trkpt lat="-27.274439" lon="151.290064">
  <ele>343.17</ele>
  <time>2026-09-01T19:55:06Z</time>
  <course>10.8</course>
  <speed>0.0</speed>
  <fix>3d</fix>
</trkpt>
<trkpt lat="-27.274439" lon="151.290064">
  <ele>343.1</ele>
  <time>2026-09-01T19:55:06Z</time>
  <course>270.0</course>
  <speed>0.0</speed>
  <fix>3d</fix>
</trkpt>
<trkpt lat="-27.274439" lon="151.290064">
  <ele>343.0</ele>
  <time>2026-09-01T19:55:06Z</time>
  <course>10.8</course>
  <speed>0.0</speed>
  <fix>3d</fix>
</trkpt>
<trkpt lat="-27.274439" lon="151.290064">
  <ele>343.1</ele>
  <time>2026-09-01T19:55:06Z</time>
  <course>270.0</course>
  <speed>0.0</speed>
  <fix>3d</fix>
</trkpt>
<trkpt lat="-27.274439" lon="151.290064">
  <ele>342.99</ele>
  <time>2026-09-01T19:55:06Z</time>
  <course>10.8</course>
  <speed>0.0</speed>
  <fix>3d</fix>
</trkpt>
<trkpt lat="-27.274439" lon="151.290064">
  <ele>343.1</ele>
  <time>2026-09-01T19:55:06Z</time>
  <course>270.0</course>
  <speed>0.0</speed>
  <fix>3d</fix>
</trkpt>
<trkpt lat="-27.274439" lon="151.290064">
  <ele>343.17</ele>
  <time>2026-09-01T19:55:06Z</time>
  <course>10.8</course>
  <speed>0.0</speed>
  <fix>3d</fix>
</trkpt>
<trkpt lat="-27.274439" lon="151.290064">
  <ele>343.1</ele>
  <time>2026-09-01T19:55:06Z</time>
  <course>270.0</course>
  <speed>0.0</speed>
  <fix>3d</fix>
</trkpt>
<trkpt lat="-27.274439" lon="151.290064">
  <ele>343.16</ele>
  <time>2026-09-01T19:55:06Z</time>
  <course>10.8</course>
  <speed>0.0</speed>
  <fix>3d</fix>
</trkpt>
<trkpt lat="-27.274439" lon="151.290064">
  <ele>343.1</ele>
  <time>2026-09-01T19:55:06Z</time>
  <course>270.0</course>
  <speed>0.0</speed>
  <fix>3d</fix>
</trkpt>
<trkpt lat="-27.274439" lon="151.290064">
  <ele>342.87</ele>
  <time>2026-09-01T19:55:06Z</time>
  <course>10.8</course>
  <speed>0.0</speed>
  <fix>3d</fix>
</trkpt>
<trkpt lat="-27.274439" lon="151.290064">
  <ele>343.1</ele>
  <time>2026-09-01T19:55:06Z</time>
  <course>270.0</course>
  <speed>0.0</speed>
  <fix>3d</fix>
</trkpt>
<trkpt lat="-27.274439" lon="151.290064">
  <ele>343.19</ele>
  <time>2026-09-01T19:55:06Z</time>
  <course>10.8</course>
  <speed>0.0</speed>
  <fix>3d</fix>
</trkpt>
<trkpt lat="-27.274439" lon="151.290064">
  <ele>343.1</ele>
  <time>2026-09-01T19:55:06Z</time>
  <course>270.0</course>
  <speed>0.0</speed>
  <fix>3d</fix>
</trkpt>
<trkpt lat="-27.274439" lon="151.290064">
  <ele>343.16</ele>
  <time>2026-09-01T19:55:06Z</time>
  <course>10.8</course>
  <speed>0.0</speed>
  <fix>3d</fix>
</trkpt>
<trkpt lat="-27.274439" lon="151.290064">
  <ele>343.1</ele>
  <time>2026-09-01T19:55:06Z</time>
  <course>270.0</course>
  <speed>0.0</speed>
  <fix>3d</fix>
</trkpt>
<trkpt lat="-27.274439" lon="151.290064">
  <ele>343.21</ele>
  <time>2026-09-01T19:55:06Z</time>
  <course>10.8</course>
  <speed>0.0</speed>
  <fix>3d</fix>
</trkpt>
<trkpt lat="-27.274439" lon="151.290064">
  <ele>343.1</ele>
  <time>2026-09-01T19:55:06Z</time>
  <course>270.0</course>
  <speed>0.0</speed>
  <fix>3d</fix>
</trkpt>
<trkpt lat="-27.274439" lon="151.290064">
  <ele>343.22</ele>
  <time>2026-09-01T19:55:06Z</time>
  <course>10.8</course>
  <speed>0.0</speed>
  <fix>3d</fix>
</trkpt>
<trkpt lat="-27.274439" lon="151.290064">
  <ele>343.1</ele>
  <time>2026-09-01T19:55:06Z</time>
  <course>270.0</course>
  <speed>0.0</speed>
  <fix>3d</fix>
</trkpt>
<trkpt lat="-27.274439" lon="151.290064">
  <ele>343.12</ele>
  <time>2026-09-01T19:55:06Z</time>
  <course>10.8</course>
  <speed>0.0</speed>
  <fix>3d</fix>
</trkpt>
<trkpt lat="-27.274439" lon="151.290064">
  <ele>343.1</ele>
  <time>2026-09-01T19:55:06Z</time>
  <course>270.0</course>
  <speed>0.0</speed>
  <fix>3d</fix>
</trkpt>
<trkpt lat="-27.274439" lon="151.290064">
  <ele>342.88</ele>
  <time>2026-09-01T19:55:06Z</time>
  <course>10.8</course>
  <speed>0.0</speed>
  <fix>3d</fix>
</trkpt>
<trkpt lat="-27.274439" lon="151.290064">
  <ele>343.1</ele>
  <time>2026-09-01T19:55:06Z</time>
  <course>270.0</course>
  <speed>0.0</speed>
  <fix>3d</fix>
</trkpt>
<trkpt lat="-27.274439" lon="151.290064">
  <ele>342.97</ele>
  <time>2026-09-01T19:55:06Z</time>
  <course>10.8</course>
  <speed>0.0</speed>
  <fix>3d</fix>
</trkpt>
<trkpt lat="-27.274439" lon="151.290064">
  <ele>343.1</ele>
  <time>2026-09-01T19:55:06Z</time>
  <course>270.0</course>
  <speed>0.0</speed>
  <fix>3d</fix>
</trkpt>
<trkpt lat="-27.274439" lon="151.290064">
  <ele>342.92</ele>
  <time>2026-09-01T19:55:06Z</time>
  <course>10.8</course>
  <speed>0.0</speed>
  <fix>3d</fix>
</trkpt>
<trkpt lat="-27.274439" lon="151.290064">
  <ele>343.1</ele>
  <time>2026-09-01T19:55:06Z</time>
  <course>270.0</course>
  <speed>0.0</speed>
  <fix>3d</fix>
</trkpt>
<trkpt lat="-27.274439" lon="151.290064">
  <ele>342.74</ele>
  <time>2026-09-01T19:55:06Z</time>
  <course>10.8</course>
  <speed>0.0</speed>
  <fix>3d</fix>
</trkpt>
<trkpt lat="-27.274439" lon="151.290064">
  <ele>343.1</ele>
  <time>2026-09-01T19:55:06Z</time>
  <course>270.0</course>
  <speed>0.0</speed>
  <fix>3d</fix>
</trkpt>
<trkpt lat="-27.274439" lon="151.290064">
  <ele>342.8</ele>
  <time>2026-09-01T19:55:06Z</time>
  <course>10.8</course>
  <speed>0.0</speed>
  <fix>3d</fix>
</trkpt>
<trkpt lat="-27.274439" lon="151.290064">
  <ele>343.1</ele>
  <time>2026-09-01T19:55:06Z</time>
  <course>270.0</course>
  <speed>0.0</speed>
  <fix>3d</fix>
</trkpt>
<trkpt lat="-27.274439" lon="151.290064">
  <ele>342.83</ele>
  <time>2026-09-01T19:55:06Z</time>
  <course>10.8</course>
  <speed>0.0</speed>
  <fix>3d</fix>
</trkpt>
<trkpt lat="-27.274439" lon="151.290064">
  <ele>343.1</ele>
  <time>2026-09-01T19:55:06Z</time>
  <course>270.0</course>
  <speed>0.0</speed>
  <fix>3d</fix>
</trkpt>
<trkpt lat="-27.274439" lon="151.290064">
  <ele>343.03</ele>
  <time>2026-09-01T19:55:06Z</time>
  <course>10.8</course>
  <speed>0.0</speed>
  <fix>3d</fix>
</trkpt>
<trkpt lat="-27.274439" lon="151.290064">
  <ele>343.1</ele>
  <time>2026-09-01T19:55:06Z</time>
  <course>270.0</course>
  <speed>0.0</speed>
  <fix>3d</fix>
</trkpt>
<trkpt lat="-27.274439" lon="151.290064">
  <ele>343.04</ele>
  <time>2026-09-01T19:55:06Z</time>
  <course>10.8</course>
  <speed>0.0</speed>
  <fix>3d</fix>
</trkpt>
<trkpt lat="-27.274439" lon="151.290064">
  <ele>343.1</ele>
  <time>2026-09-01T19:55:06Z</time>
  <course>270.0</course>
  <speed>0.0</speed>
  <fix>3d</fix>
</trkpt>
<trkpt lat="-27.274439" lon="151.290064">
  <ele>343.07</ele>
  <time>2026-09-01T19:55:06Z</time>
  <course>10.81</course>
  <speed>0.0</speed>
  <fix>3d</fix>
</trkpt>
<trkpt lat="-27.274439" lon="151.290064">
  <ele>343.1</ele>
  <time>2026-09-01T19:55:06Z</time>
  <course>270.0</course>
  <speed>0.0</speed>
  <fix>3d</fix>
</trkpt>
<trkpt lat="-27.274439" lon="151.290064">
  <ele>343.01</ele>
  <time>2026-09-01T19:55:06Z</time>
  <course>10.81</course>
  <speed>0.0</speed>
  <fix>3d</fix>
</trkpt>
<trkpt lat="-27.274439" lon="151.290064">
  <ele>343.1</ele>
  <time>2026-09-01T19:55:06Z</time>
  <course>270.0</course>
  <speed>0.0</speed>
  <fix>3d</fix>
</trkpt>
<trkpt lat="-27.274439" lon="151.290064">
  <ele>342.88</ele>
  <time>2026-09-01T19:55:06Z</time>
  <course>10.82</course>
  <speed>0.0</speed>
  <fix>3d</fix>
</trkpt>
<trkpt lat="-27.274439" lon="151.290064">
  <ele>343.1</ele>
  <time>2026-09-01T19:55:06Z</time>
  <course>270.0</course>
  <speed>0.0</speed>
  <fix>3d</fix>
</trkpt>
<trkpt lat="-27.274439" lon="151.290064">
  <ele>343.12</ele>
  <time>2026-09-01T19:55:06Z</time>
  <course>10.83</course>
  <speed>0.0</speed>
  <fix>3d</fix>
</trkpt>
<trkpt lat="-27.274439" lon="151.290064">
  <ele>343.1</ele>
  <time>2026-09-01T19:55:06Z</time>
  <course>270.0</course>
  <speed>0.0</speed>
  <fix>3d</fix>
</trkpt>
<trkpt lat="-27.274439" lon="151.290064">
  <ele>342.88</ele>
  <time>2026-09-01T19:55:06Z</time>
  <course>10.84</course>
  <speed>0.0</speed>
  <fix>3d</fix>
</trkpt>
<trkpt lat="-27.274439" lon="151.290064">
  <ele>343.1</ele>
  <time>2026-09-01T19:55:06Z</time>
  <course>270.0</course>
  <speed>0.0</speed>
  <fix>3d</fix>
</trkpt>
<trkpt lat="-27.274439" lon="151.290064">
  <ele>343.02</ele>
  <time>2026-09-01T19:55:06Z</time>
  <course>10.85</course>
  <speed>0.0</speed>
  <fix>3d</fix>
</trkpt>
<trkpt lat="-27.274439" lon="151.290064">
  <ele>343.1</ele>
  <time>2026-09-01T19:55:06Z</time>
  <course>270.0</course>
  <speed>0.0</speed>
  <fix>3d</fix>
</trkpt>
<trkpt lat="-27.274439" lon="151.290064">
  <ele>342.83</ele>
  <time>2026-09-01T19:55:06Z</time>
  <course>10.85</course>
  <speed>0.0</speed>
  <fix>3d</fix>
</trkpt>
<trkpt lat="-27.274439" lon="151.290064">
  <ele>343.1</ele>
  <time>2026-09-01T19:55:06Z</time>
  <course>270.0</course>
  <speed>0.0</speed>
  <fix>3d</fix>
</trkpt>
<trkpt lat="-27.274439" lon="151.290064">
  <ele>342.9</ele>
  <time>2026-09-01T19:55:06Z</time>
  <course>10.86</course>
  <speed>0.0</speed>
  <fix>3d</fix>
</trkpt>
<trkpt lat="-27.274439" lon="151.290064">
  <ele>343.1</ele>
  <time>2026-09-01T19:55:06Z</time>
  <course>270.0</course>
  <speed>0.0</speed>
  <fix>3d</fix>
</trkpt>
<trkpt lat="-27.274439" lon="151.290064">
  <ele>343.04</ele>
  <time>2026-09-01T19:55:06Z</time>
  <course>10.87</course>
  <speed>0.0</speed>
  <fix>3d</fix>
</trkpt>
<trkpt lat="-27.274439" lon="151.290064">
  <ele>343.1</ele>
  <time>2026-09-01T19:55:06Z</time>
  <course>270.0</course>
  <speed>0.0</speed>
  <fix>3d</fix>
</trkpt>
<trkpt lat="-27.274439" lon="151.290064">
  <ele>343.09</ele>
  <time>2026-09-01T19:55:06Z</time>
  <course>10.88</course>
  <speed>0.0</speed>
  <fix>3d</fix>
</trkpt>
<trkpt lat="-27.274439" lon="151.290064">
  <ele>343.1</ele>
  <time>2026-09-01T19:55:06Z</time>
  <course>270.0</course>
  <speed>0.0</speed>
  <fix>3d</fix>
</trkpt>
<trkpt lat="-27.274439" lon="151.290064">
  <ele>342.75</ele>
  <time>2026-09-01T19:55:06Z</time>
  <course>10.88</course>
  <speed>0.0</speed>
  <fix>3d</fix>
</trkpt>
<trkpt lat="-27.274439" lon="151.290064">
  <ele>343.1</ele>
  <time>2026-09-01T19:55:06Z</time>
  <course>270.0</course>
  <speed>0.0</speed>
  <fix>3d</fix>
</trkpt>
<trkpt lat="-27.274439" lon="151.290064">
  <ele>342.95</ele>
  <time>2026-09-01T19:55:06Z</time>
  <course>10.89</course>
  <speed>0.0</speed>
  <fix>3d</fix>
</trkpt>
<trkpt lat="-27.274439" lon="151.290064">
  <ele>343.1</ele>
  <time>2026-09-01T19:55:06Z</time>
  <course>270.0</course>
  <speed>0.0</speed>
  <fix>3d</fix>
</trkpt>
<trkpt lat="-27.274439" lon="151.290064">
  <ele>342.83</ele>
  <time>2026-09-01T19:55:06Z</time>
  <course>10.9</course>
  <speed>0.0</speed>
  <fix>3d</fix>
</trkpt>
<trkpt lat="-27.274439" lon="151.290064">
  <ele>343.1</ele>
  <time>2026-09-01T19:55:06Z</time>
  <course>270.0</course>
  <speed>0.0</speed>
  <fix>3d</fix>
</trkpt>
<trkpt lat="-27.274439" lon="151.290064">
  <ele>343.05</ele>
  <time>2026-09-01T19:55:06Z</time>
  <course>10.91</course>
  <speed>0.0</speed>
  <fix>3d</fix>
</trkpt>
<trkpt lat="-27.274439" lon="151.290064">
  <ele>343.1</ele>
  <time>2026-09-01T19:55:06Z</time>
  <course>270.0</course>
  <speed>0.0</speed>
  <fix>3d</fix>
</trkpt>
<trkpt lat="-27.274439" lon="151.290064">
  <ele>342.88</ele>
  <time>2026-09-01T19:55:06Z</time>
  <course>10.91</course>
  <speed>0.0</speed>
  <fix>3d</fix>
</trkpt>
<trkpt lat="-27.274439" lon="151.290064">
  <ele>343.1</ele>
  <time>2026-09-01T19:55:06Z</time>
  <course>270.0</course>
  <speed>0.0</speed>
  <fix>3d</fix>
</trkpt>
<trkpt lat="-27.274439" lon="151.290064">
  <ele>343.12</ele>
  <time>2026-09-01T19:55:06Z</time>
  <course>10.92</course>
  <speed>0.0</speed>
  <fix>3d</fix>
</trkpt>
<trkpt lat="-27.274439" lon="151.290064">
  <ele>343.1</ele>
  <time>2026-09-01T19:55:06Z</time>
  <course>270.0</course>
  <speed>0.0</speed>
  <fix>3d</fix>
</trkpt>
<trkpt lat="-27.274439" lon="151.290064">
  <ele>342.95</ele>
  <time>2026-09-01T19:55:06Z</time>
  <course>10.93</course>
  <speed>0.0</speed>
  <fix>3d</fix>
</trkpt>
<trkpt lat="-27.274439" lon="151.290064">
  <ele>343.1</ele>
  <time>2026-09-01T19:55:06Z</time>
  <course>270.0</course>
  <speed>0.0</speed>
  <fix>3d</fix>
</trkpt>
<trkpt lat="-27.274439" lon="151.290064">
  <ele>343.19</ele>
  <time>2026-09-01T19:55:06Z</time>
  <course>10.93</course>
  <speed>0.0</speed>
  <fix>3d</fix>
</trkpt>
<trkpt lat="-27.274439" lon="151.290064">
  <ele>343.1</ele>
  <time>2026-09-01T19:55:06Z</time>
  <course>270.0</course>
  <speed>0.0</speed>
  <fix>3d</fix>
</trkpt>
<trkpt lat="-27.274439" lon="151.290064">
  <ele>343.02</ele>
  <time>2026-09-01T19:55:06Z</time>
  <course>10.94</course>
  <speed>0.0</speed>
  <fix>3d</fix>
</trkpt>
<trkpt lat="-27.274439" lon="151.290064">
  <ele>343.1</ele>
  <time>2026-09-01T19:55:06Z</time>
  <course>270.0</course>
  <speed>0.0</speed>
  <fix>3d</fix>
</trkpt>
<trkpt lat="-27.274439" lon="151.290064">
  <ele>343.25</ele>
  <time>2026-09-01T19:55:06Z</time>
  <course>10.95</course>
  <speed>0.0</speed>
  <fix>3d</fix>
</trkpt>
<trkpt lat="-27.274439" lon="151.290064">
  <ele>343.1</ele>
  <time>2026-09-01T19:55:06Z</time>
  <course>270.0</course>
  <speed>0.0</speed>
  <fix>3d</fix>
</trkpt>
<trkpt lat="-27.274439" lon="151.290064">
  <ele>342.94</ele>
  <time>2026-09-01T19:55:06Z</time>
  <course>10.95</course>
  <speed>0.0</speed>
  <fix>3d</fix>
</trkpt>
<trkpt lat="-27.274439" lon="151.290064">
  <ele>343.1</ele>
  <time>2026-09-01T19:55:06Z</time>
  <course>270.0</course>
  <speed>0.0</speed>
  <fix>3d</fix>
</trkpt>
<trkpt lat="-27.274439" lon="151.290064">
  <ele>343.12</ele>
  <time>2026-09-01T19:55:06Z</time>
  <course>10.96</course>
  <speed>0.0</speed>
  <fix>3d</fix>
</trkpt>
<trkpt lat="-27.274439" lon="151.290064">
  <ele>343.1</ele>
  <time>2026-09-01T19:55:06Z</time>
  <course>270.0</course>
  <speed>0.0</speed>
  <fix>3d</fix>
</trkpt>
<trkpt lat="-27.274439" lon="151.290064">
  <ele>343.01</ele>
  <time>2026-09-01T19:55:06Z</time>
  <course>10.97</course>
  <speed>0.0</speed>
  <fix>3d</fix>
</trkpt>
<trkpt lat="-27.274439" lon="151.290064">
  <ele>343.1</ele>
  <time>2026-09-01T19:55:06Z</time>
  <course>270.0</course>
  <speed>0.0</speed>
  <fix>3d</fix>
</trkpt>
<trkpt lat="-27.274439" lon="151.290064">
  <ele>343.13</ele>
  <time>2026-09-01T19:55:06Z</time>
  <course>10.97</course>
  <speed>0.0</speed>
  <fix>3d</fix>
</trkpt>
<trkpt lat="-27.274439" lon="151.290064">
  <ele>343.1</ele>
  <time>2026-09-01T19:55:06Z</time>
  <course>270.0</course>
  <speed>0.0</speed>
  <fix>3d</fix>
</trkpt>
<trkpt lat="-27.274439" lon="151.290064">
  <ele>343.18</ele>
  <time>2026-09-01T19:55:06Z</time>
  <course>10.98</course>
  <speed>0.0</speed>
  <fix>3d</fix>
</trkpt>
<trkpt lat="-27.274439" lon="151.290064">
  <ele>343.1</ele>
  <time>2026-09-01T19:55:06Z</time>
  <course>270.0</course>
  <speed>0.0</speed>
  <fix>3d</fix>
</trkpt>
<trkpt lat="-27.274439" lon="151.290064">
  <ele>342.97</ele>
  <time>2026-09-01T19:55:06Z</time>
  <course>10.98</course>
  <speed>0.0</speed>
  <fix>3d</fix>
</trkpt>
<trkpt lat="-27.274439" lon="151.290064">
  <ele>343.1</ele>
  <time>2026-09-01T19:55:06Z</time>
  <course>270.0</course>
  <speed>0.0</speed>
  <fix>3d</fix>
</trkpt>
<trkpt lat="-27.274439" lon="151.290064">
  <ele>343.14</ele>
  <time>2026-09-01T19:55:06Z</time>
  <course>10.99</course>
  <speed>0.0</speed>
  <fix>3d</fix>
</trkpt>
<trkpt lat="-27.274439" lon="151.290064">
  <ele>343.1</ele>
  <time>2026-09-01T19:55:06Z</time>
  <course>270.0</course>
  <speed>0.0</speed>
  <fix>3d</fix>
</trkpt>
<trkpt lat="-27.274439" lon="151.290064">
  <ele>342.96</ele>
  <time>2026-09-01T19:55:06Z</time>
  <course>10.99</course>
  <speed>0.0</speed>
  <fix>3d</fix>
</trkpt>
<trkpt lat="-27.274439" lon="151.290064">
  <ele>343.1</ele>
  <time>2026-09-01T19:55:06Z</time>
  <course>270.0</course>
  <speed>0.0</speed>
  <fix>3d</fix>
</trkpt>
<trkpt lat="-27.274439" lon="151.290064">
  <ele>343.3</ele>
  <time>2026-09-01T19:55:06Z</time>
  <course>11.0</course>
  <speed>0.0</speed>
  <fix>3d</fix>
</trkpt>
<trkpt lat="-27.274439" lon="151.290064">
  <ele>343.1</ele>
  <time>2026-09-01T19:55:06Z</time>
  <course>270.0</course>
  <speed>0.0</speed>
  <fix>3d</fix>
</trkpt>
<trkpt lat="-27.274439" lon="151.290064">
  <ele>343.22</ele>
  <time>2026-09-01T19:55:06Z</time>
  <course>11.0</course>
  <speed>0.0</speed>
  <fix>3d</fix>
</trkpt>
<trkpt lat="-27.274439" lon="151.290064">
  <ele>343.1</ele>
  <time>2026-09-01T19:55:06Z</time>
  <course>270.0</course>
  <speed>0.0</speed>
  <fix>3d</fix>
</trkpt>
<trkpt lat="-27.274439" lon="151.290064">
  <ele>343.08</ele>
  <time>2026-09-01T19:55:06Z</time>
  <course>11.01</course>
  <speed>0.0</speed>
  <fix>3d</fix>
</trkpt>
<trkpt lat="-27.274439" lon="151.290064">
  <ele>343.1</ele>
  <time>2026-09-01T19:55:06Z</time>
  <course>270.0</course>
  <speed>0.0</speed>
  <fix>3d</fix>
</trkpt>
<trkpt lat="-27.274439" lon="151.290064">
  <ele>343.23</ele>
  <time>2026-09-01T19:55:06Z</time>
  <course>11.02</course>
  <speed>0.0</speed>
  <fix>3d</fix>
</trkpt>
<trkpt lat="-27.274439" lon="151.290064">
  <ele>343.1</ele>
  <time>2026-09-01T19:55:06Z</time>
  <course>270.0</course>
  <speed>0.0</speed>
  <fix>3d</fix>
</trkpt>
<trkpt lat="-27.274439" lon="151.290064">
  <ele>343.33</ele>
  <time>2026-09-01T19:55:06Z</time>
  <course>11.02</course>
  <speed>0.0</speed>
  <fix>3d</fix>
</trkpt>
<trkpt lat="-27.274439" lon="151.290064">
  <ele>343.1</ele>
  <time>2026-09-01T19:55:06Z</time>
  <course>270.0</course>
  <speed>0.0</speed>
  <fix>3d</fix>
</trkpt>
<trkpt lat="-27.274439" lon="151.290064">
  <ele>343.05</ele>
  <time>2026-09-01T19:55:06Z</time>
  <course>11.03</course>
  <speed>0.0</speed>
  <fix>3d</fix>
</trkpt>
<trkpt lat="-27.274439" lon="151.290064">
  <ele>343.1</ele>
  <time>2026-09-01T19:55:06Z</time>
  <course>270.0</course>
  <speed>0.0</speed>
  <fix>3d</fix>
</trkpt>
<trkpt lat="-27.274439" lon="151.290064">
  <ele>343.16</ele>
  <time>2026-09-01T19:55:06Z</time>
  <course>11.03</course>
  <speed>0.0</speed>
  <fix>3d</fix>
</trkpt>
<trkpt lat="-27.274439" lon="151.290064">
  <ele>343.1</ele>
  <time>2026-09-01T19:55:06Z</time>
  <course>270.0</course>
  <speed>0.0</speed>
  <fix>3d</fix>
</trkpt>
<trkpt lat="-27.274439" lon="151.290064">
  <ele>343.16</ele>
  <time>2026-09-01T19:55:06Z</time>
  <course>11.04</course>
  <speed>0.0</speed>
  <fix>3d</fix>
</trkpt>
<trkpt lat="-27.274439" lon="151.290064">
  <ele>343.1</ele>
  <time>2026-09-01T19:55:06Z</time>
  <course>270.0</course>
  <speed>0.0</speed>
  <fix>3d</fix>
</trkpt>
<trkpt lat="-27.274439" lon="151.290064">
  <ele>343.08</ele>
  <time>2026-09-01T19:55:06Z</time>
  <course>11.04</course>
  <speed>0.0</speed>
  <fix>3d</fix>
</trkpt>
<trkpt lat="-27.274439" lon="151.290064">
  <ele>343.1</ele>
  <time>2026-09-01T19:55:06Z</time>
  <course>270.0</course>
  <speed>0.0</speed>
  <fix>3d</fix>
</trkpt>
<trkpt lat="-27.274439" lon="151.290064">
  <ele>343.17</ele>
  <time>2026-09-01T19:55:06Z</time>
  <course>11.04</course>
  <speed>0.0</speed>
  <fix>3d</fix>
</trkpt>
<trkpt lat="-27.274439" lon="151.290064">
  <ele>343.1</ele>
  <time>2026-09-01T19:55:06Z</time>
  <course>270.0</course>
  <speed>0.0</speed>
  <fix>3d</fix>
</trkpt>
<trkpt lat="-27.274439" lon="151.290064">
  <ele>343.22</ele>
  <time>2026-09-01T19:55:06Z</time>
  <course>11.05</course>
  <speed>0.0</speed>
  <fix>3d</fix>
</trkpt>
<trkpt lat="-27.274439" lon="151.290064">
  <ele>343.1</ele>
  <time>2026-09-01T19:55:06Z</time>
  <course>270.0</course>
  <speed>0.0</speed>
  <fix>3d</fix>
</trkpt>
<trkpt lat="-27.274439" lon="151.290064">
  <ele>343.01</ele>
  <time>2026-09-01T19:55:06Z</time>
  <course>11.05</course>
  <speed>0.0</speed>
  <fix>3d</fix>
</trkpt>
<trkpt lat="-27.274439" lon="151.290064">
  <ele>343.1</ele>
  <time>2026-09-01T19:55:06Z</time>
  <course>270.0</course>
  <speed>0.0</speed>
  <fix>3d</fix>
</trkpt>
<trkpt lat="-27.274439" lon="151.290064">
  <ele>343.26</ele>
  <time>2026-09-01T19:55:06Z</time>
  <course>11.06</course>
  <speed>0.0</speed>
  <fix>3d</fix>
</trkpt>
<trkpt lat="-27.274439" lon="151.290064">
  <ele>343.1</ele>
  <time>2026-09-01T19:55:06Z</time>
  <course>270.0</course>
  <speed>0.0</speed>
  <fix>3d</fix>
</trkpt>
<trkpt lat="-27.274439" lon="151.290064">
  <ele>343.28</ele>
  <time>2026-09-01T19:55:06Z</time>
  <course>11.06</course>
  <speed>0.0</speed>
  <fix>3d</fix>
</trkpt>
<trkpt lat="-27.274439" lon="151.290064">
  <ele>343.1</ele>
  <time>2026-09-01T19:55:06Z</time>
  <course>270.0</course>
  <speed>0.0</speed>
  <fix>3d</fix>
</trkpt>
<trkpt lat="-27.274439" lon="151.290064">
  <ele>343.34</ele>
  <time>2026-09-01T19:55:06Z</time>
  <course>11.07</course>
  <speed>0.0</speed>
  <fix>3d</fix>
</trkpt>
<trkpt lat="-27.274439" lon="151.290064">
  <ele>343.1</ele>
  <time>2026-09-01T19:55:06Z</time>
  <course>270.0</course>
  <speed>0.0</speed>
  <fix>3d</fix>
</trkpt>
<trkpt lat="-27.274439" lon="151.290064">
  <ele>343.1</ele>
  <time>2026-09-01T19:55:06Z</time>
  <course>11.07</course>
  <speed>0.0</speed>
  <fix>3d</fix>
</trkpt>
<trkpt lat="-27.274439" lon="151.290064">
  <ele>343.1</ele>
  <time>2026-09-01T19:55:06Z</time>
  <course>270.0</course>
  <speed>0.0</speed>
  <fix>3d</fix>
</trkpt>
<trkpt lat="-27.274439" lon="151.290064">
  <ele>342.96</ele>
  <time>2026-09-01T19:55:06Z</time>
  <course>11.08</course>
  <speed>0.0</speed>
  <fix>3d</fix>
</trkpt>
<trkpt lat="-27.274439" lon="151.290064">
  <ele>343.1</ele>
  <time>2026-09-01T19:55:06Z</time>
  <course>270.0</course>
  <speed>0.0</speed>
  <fix>3d</fix>
</trkpt>
<trkpt lat="-27.274439" lon="151.290064">
  <ele>343.03</ele>
  <time>2026-09-01T19:55:06Z</time>
  <course>11.08</course>
  <speed>0.0</speed>
  <fix>3d</fix>
</trkpt>
<trkpt lat="-27.274439" lon="151.290064">
  <ele>343.1</ele>
  <time>2026-09-01T19:55:06Z</time>
  <course>270.0</course>
  <speed>0.0</speed>
  <fix>3d</fix>
</trkpt>
<trkpt lat="-27.274439" lon="151.290064">
  <ele>343.23</ele>
  <time>2026-09-01T19:55:06Z</time>
  <course>11.09</course>
  <speed>0.0</speed>
  <fix>3d</fix>
</trkpt>
<trkpt lat="-27.274439" lon="151.290064">
  <ele>343.1</ele>
  <time>2026-09-01T19:55:06Z</time>
  <course>270.0</course>
  <speed>0.0</speed>
  <fix>3d</fix>
</trkpt>
<trkpt lat="-27.274439" lon="151.290064">
  <ele>343.14</ele>
  <time>2026-09-01T19:55:06Z</time>
  <course>11.09</course>
  <speed>0.0</speed>
  <fix>3d</fix>
</trkpt>
<trkpt lat="-27.274439" lon="151.290064">
  <ele>343.1</ele>
  <time>2026-09-01T19:55:06Z</time>
  <course>270.0</course>
  <speed>0.0</speed>
  <fix>3d</fix>
</trkpt>
<trkpt lat="-27.274439" lon="151.290064">
  <ele>343.13</ele>
  <time>2026-09-01T19:55:06Z</time>
  <course>11.09</course>
  <speed>0.0</speed>
  <fix>3d</fix>
</trkpt>
<trkpt lat="-27.274439" lon="151.290064">
  <ele>343.1</ele>
  <time>2026-09-01T19:55:06Z</time>
  <course>270.0</course>
  <speed>0.0</speed>
  <fix>3d</fix>
</trkpt>
<trkpt lat="-27.274439" lon="151.290064">
  <ele>343.03</ele>
  <time>2026-09-01T19:55:06Z</time>
  <course>11.1</course>
  <speed>0.0</speed>
  <fix>3d</fix>
</trkpt>
<trkpt lat="-27.274439" lon="151.290064">
  <ele>343.1</ele>
  <time>2026-09-01T19:55:06Z</time>
  <course>270.0</course>
  <speed>0.0</speed>
  <fix>3d</fix>
</trkpt>
<trkpt lat="-27.274439" lon="151.290064">
  <ele>343.15</ele>
  <time>2026-09-01T19:55:06Z</time>
  <course>11.1</course>
  <speed>0.0</speed>
  <fix>3d</fix>
</trkpt>
<trkpt lat="-27.274439" lon="151.290064">
  <ele>343.1</ele>
  <time>2026-09-01T19:55:06Z</time>
  <course>270.0</course>
  <speed>0.0</speed>
  <fix>3d</fix>
</trkpt>
<trkpt lat="-27.274439" lon="151.290064">
  <ele>343.14</ele>
  <time>2026-09-01T19:55:06Z</time>
  <course>11.11</course>
  <speed>0.0</speed>
  <fix>3d</fix>
</trkpt>
<trkpt lat="-27.274439" lon="151.290064">
  <ele>343.1</ele>
  <time>2026-09-01T19:55:06Z</time>
  <course>270.0</course>
  <speed>0.0</speed>
  <fix>3d</fix>
</trkpt>
<trkpt lat="-27.274439" lon="151.290064">
  <ele>343.17</ele>
  <time>2026-09-01T19:55:06Z</time>
  <course>11.11</course>
  <speed>0.0</speed>
  <fix>3d</fix>
</trkpt>
<trkpt lat="-27.274439" lon="151.290064">
  <ele>343.1</ele>
  <time>2026-09-01T19:55:06Z</time>
  <course>270.0</course>
  <speed>0.0</speed>
  <fix>3d</fix>
</trkpt>
<trkpt lat="-27.274439" lon="151.290064">
  <ele>342.95</ele>
  <time>2026-09-01T19:55:06Z</time>
  <course>11.11</course>
  <speed>0.0</speed>
  <fix>3d</fix>
</trkpt>
<trkpt lat="-27.274439" lon="151.290064">
  <ele>343.1</ele>
  <time>2026-09-01T19:55:06Z</time>
  <course>270.0</course>
  <speed>0.0</speed>
  <fix>3d</fix>
</trkpt>
<trkpt lat="-27.274439" lon="151.290064">
  <ele>343.06</ele>
  <time>2026-09-01T19:55:06Z</time>
  <course>11.12</course>
  <speed>0.0</speed>
  <fix>3d</fix>
</trkpt>
<trkpt lat="-27.274439" lon="151.290064">
  <ele>343.1</ele>
  <time>2026-09-01T19:55:06Z</time>
  <course>270.0</course>
  <speed>0.0</speed>
  <fix>3d</fix>
</trkpt>
<trkpt lat="-27.274439" lon="151.290064">
  <ele>343.11</ele>
  <time>2026-09-01T19:55:06Z</time>
  <course>11.12</course>
  <speed>0.0</speed>
  <fix>3d</fix>
</trkpt>
<trkpt lat="-27.274439" lon="151.290064">
  <ele>343.1</ele>
  <time>2026-09-01T19:55:06Z</time>
  <course>270.0</course>
  <speed>0.0</speed>
  <fix>3d</fix>
</trkpt>
<trkpt lat="-27.274439" lon="151.290064">
  <ele>343.3</ele>
  <time>2026-09-01T19:55:06Z</time>
  <course>11.13</course>
  <speed>0.0</speed>
  <fix>3d</fix>
</trkpt>
<trkpt lat="-27.274439" lon="151.290064">
  <ele>343.1</ele>
  <time>2026-09-01T19:55:06Z</time>
  <course>270.0</course>
  <speed>0.0</speed>
  <fix>3d</fix>
</trkpt>
<trkpt lat="-27.274439" lon="151.290064">
  <ele>343.03</ele>
  <time>2026-09-01T19:55:06Z</time>
  <course>11.13</course>
  <speed>0.0</speed>
  <fix>3d</fix>
</trkpt>
<trkpt lat="-27.274439" lon="151.290064">
  <ele>343.1</ele>
  <time>2026-09-01T19:55:06Z</time>
  <course>270.0</course>
  <speed>0.0</speed>
  <fix>3d</fix>
</trkpt>
<trkpt lat="-27.274439" lon="151.290064">
  <ele>343.13</ele>
  <time>2026-09-01T19:55:06Z</time>
  <course>11.13</course>
  <speed>0.0</speed>
  <fix>3d</fix>
</trkpt>
<trkpt lat="-27.274439" lon="151.290064">
  <ele>343.1</ele>
  <time>2026-09-01T19:55:06Z</time>
  <course>270.0</course>
  <speed>0.0</speed>
  <fix>3d</fix>
</trkpt>
<trkpt lat="-27.274439" lon="151.290064">
  <ele>343.02</ele>
  <time>2026-09-01T19:55:06Z</time>
  <course>11.14</course>
  <speed>0.0</speed>
  <fix>3d</fix>
</trkpt>
<trkpt lat="-27.274439" lon="151.290064">
  <ele>343.1</ele>
  <time>2026-09-01T19:55:06Z</time>
  <course>270.0</course>
  <speed>0.0</speed>
  <fix>3d</fix>
</trkpt>
<trkpt lat="-27.274439" lon="151.290064">
  <ele>343.17</ele>
  <time>2026-09-01T19:55:06Z</time>
  <course>11.14</course>
  <speed>0.0</speed>
  <fix>3d</fix>
</trkpt>
<trkpt lat="-27.274439" lon="151.290064">
  <ele>343.1</ele>
  <time>2026-09-01T19:55:06Z</time>
  <course>270.0</course>
  <speed>0.0</speed>
  <fix>3d</fix>
</trkpt>
<trkpt lat="-27.274439" lon="151.290064">
  <ele>343.26</ele>
  <time>2026-09-01T19:55:06Z</time>
  <course>11.14</course>
  <speed>0.0</speed>
  <fix>3d</fix>
</trkpt>
<trkpt lat="-27.274439" lon="151.290064">
  <ele>343.1</ele>
  <time>2026-09-01T19:55:06Z</time>
  <course>270.0</course>
  <speed>0.0</speed>
  <fix>3d</fix>
</trkpt>
<trkpt lat="-27.274439" lon="151.290064">
  <ele>343.29</ele>
  <time>2026-09-01T19:55:06Z</time>
  <course>11.15</course>
  <speed>0.0</speed>
  <fix>3d</fix>
</trkpt>
<trkpt lat="-27.274439" lon="151.290064">
  <ele>343.1</ele>
  <time>2026-09-01T19:55:06Z</time>
  <course>270.0</course>
  <speed>0.0</speed>
  <fix>3d</fix>
</trkpt>
<trkpt lat="-27.274439" lon="151.290064">
  <ele>343.13</ele>
  <time>2026-09-01T19:55:06Z</time>
  <course>11.15</course>
  <speed>0.0</speed>
  <fix>3d</fix>
</trkpt>
<trkpt lat="-27.274439" lon="151.290064">
  <ele>343.1</ele>
  <time>2026-09-01T19:55:06Z</time>
  <course>270.0</course>
  <speed>0.0</speed>
  <fix>3d</fix>
</trkpt>
<trkpt lat="-27.274439" lon="151.290064">
  <ele>343.1</ele>
  <time>2026-09-01T19:55:06Z</time>
  <course>11.15</course>
  <speed>0.0</speed>
  <fix>3d</fix>
</trkpt>
<trkpt lat="-27.274439" lon="151.290064">
  <ele>343.1</ele>
  <time>2026-09-01T19:55:06Z</time>
  <course>270.0</course>
  <speed>0.0</speed>
  <fix>3d</fix>
</trkpt>
<trkpt lat="-27.274439" lon="151.290064">
  <ele>343.2</ele>
  <time>2026-09-01T19:55:06Z</time>
  <course>11.16</course>
  <speed>0.0</speed>
  <fix>3d</fix>
</trkpt>
<trkpt lat="-27.274439" lon="151.290064">
  <ele>343.1</ele>
  <time>2026-09-01T19:55:06Z</time>
  <course>270.0</course>
  <speed>0.0</speed>
  <fix>3d</fix>
</trkpt>
<trkpt lat="-27.274439" lon="151.290064">
  <ele>343.09</ele>
  <time>2026-09-01T19:55:06Z</time>
  <course>11.16</course>
  <speed>0.0</speed>
  <fix>3d</fix>
</trkpt>
<trkpt lat="-27.274439" lon="151.290064">
  <ele>343.1</ele>
  <time>2026-09-01T19:55:06Z</time>
  <course>270.0</course>
  <speed>0.0</speed>
  <fix>3d</fix>
</trkpt>
<trkpt lat="-27.274439" lon="151.290064">
  <ele>343.11</ele>
  <time>2026-09-01T19:55:06Z</time>
  <course>11.16</course>
  <speed>0.0</speed>
  <fix>3d</fix>
</trkpt>
<trkpt lat="-27.274439" lon="151.290064">
  <ele>343.1</ele>
  <time>2026-09-01T19:55:06Z</time>
  <course>270.0</course>
  <speed>0.0</speed>
  <fix>3d</fix>
</trkpt>
<trkpt lat="-27.274439" lon="151.290064">
  <ele>343.21</ele>
  <time>2026-09-01T19:55:06Z</time>
  <course>11.17</course>
  <speed>0.0</speed>
  <fix>3d</fix>
</trkpt>
<trkpt lat="-27.274439" lon="151.290064">
  <ele>343.1</ele>
  <time>2026-09-01T19:55:06Z</time>
  <course>270.0</course>
  <speed>0.0</speed>
  <fix>3d</fix>
</trkpt>
<trkpt lat="-27.274439" lon="151.290064">
  <ele>343.22</ele>
  <time>2026-09-01T19:55:06Z</time>
  <course>11.17</course>
  <speed>0.0</speed>
  <fix>3d</fix>
</trkpt>
<trkpt lat="-27.274439" lon="151.290064">
  <ele>343.1</ele>
  <time>2026-09-01T19:55:06Z</time>
  <course>270.0</course>
  <speed>0.0</speed>
  <fix>3d</fix>
</trkpt>
<trkpt lat="-27.274439" lon="151.290064">
  <ele>342.98</ele>
  <time>2026-09-01T19:55:06Z</time>
  <course>11.17</course>
  <speed>0.0</speed>
  <fix>3d</fix>
</trkpt>
<trkpt lat="-27.274439" lon="151.290064">
  <ele>343.1</ele>
  <time>2026-09-01T19:55:06Z</time>
  <course>270.0</course>
  <speed>0.0</speed>
  <fix>3d</fix>
</trkpt>
<trkpt lat="-27.274439" lon="151.290064">
  <ele>343.15</ele>
  <time>2026-09-01T19:55:06Z</time>
  <course>11.18</course>
  <speed>0.0</speed>
  <fix>3d</fix>
</trkpt>
<trkpt lat="-27.274439" lon="151.290064">
  <ele>343.1</ele>
  <time>2026-09-01T19:55:06Z</time>
  <course>270.0</course>
  <speed>0.0</speed>
  <fix>3d</fix>
</trkpt>
<trkpt lat="-27.274439" lon="151.290064">
  <ele>343.28</ele>
  <time>2026-09-01T19:55:06Z</time>
  <course>11.18</course>
  <speed>0.0</speed>
  <fix>3d</fix>
</trkpt>
<trkpt lat="-27.274439" lon="151.290064">
  <ele>343.1</ele>
  <time>2026-09-01T19:55:06Z</time>
  <course>270.0</course>
  <speed>0.0</speed>
  <fix>3d</fix>
</trkpt>
<trkpt lat="-27.274439" lon="151.290064">
  <ele>343.3</ele>
  <time>2026-09-01T19:55:06Z</time>
  <course>11.18</course>
  <speed>0.0</speed>
  <fix>3d</fix>
</trkpt>
<trkpt lat="-27.274439" lon="151.290064">
  <ele>343.1</ele>
  <time>2026-09-01T19:55:06Z</time>
  <course>270.0</course>
  <speed>0.0</speed>
  <fix>3d</fix>
</trkpt>
<trkpt lat="-27.274439" lon="151.290064">
  <ele>343.33</ele>
  <time>2026-09-01T19:55:06Z</time>
  <course>11.18</course>
  <speed>0.0</speed>
  <fix>3d</fix>
</trkpt>
<trkpt lat="-27.274439" lon="151.290064">
  <ele>343.1</ele>
  <time>2026-09-01T19:55:06Z</time>
  <course>270.0</course>
  <speed>0.0</speed>
  <fix>3d</fix>
</trkpt>
<trkpt lat="-27.274439" lon="151.290064">
  <ele>342.96</ele>
  <time>2026-09-01T19:55:06Z</time>
  <course>11.18</course>
  <speed>0.0</speed>
  <fix>3d</fix>
</trkpt>
<trkpt lat="-27.274439" lon="151.290064">
  <ele>343.1</ele>
  <time>2026-09-01T19:55:06Z</time>
  <course>270.0</course>
  <speed>0.0</speed>
  <fix>3d</fix>
</trkpt>
<trkpt lat="-27.274439" lon="151.290064">
  <ele>342.97</ele>
  <time>2026-09-01T19:55:06Z</time>
  <course>11.18</course>
  <speed>0.0</speed>
  <fix>3d</fix>
</trkpt>
<trkpt lat="-27.274439" lon="151.290064">
  <ele>343.1</ele>
  <time>2026-09-01T19:55:06Z</time>
  <course>270.0</course>
  <speed>0.0</speed>
  <fix>3d</fix>
</trkpt>
<trkpt lat="-27.274439" lon="151.290064">
  <ele>342.83</ele>
  <time>2026-09-01T19:55:06Z</time>
  <course>11.18</course>
  <speed>0.0</speed>
  <fix>3d</fix>
</trkpt>
<trkpt lat="-27.274439" lon="151.290064">
  <ele>343.1</ele>
  <time>2026-09-01T19:55:06Z</time>
  <course>270.0</course>
  <speed>0.0</speed>
  <fix>3d</fix>
</trkpt>
<trkpt lat="-27.274439" lon="151.290064">
  <ele>342.84</ele>
  <time>2026-09-01T19:55:06Z</time>
  <course>11.18</course>
  <speed>0.0</speed>
  <fix>3d</fix>
</trkpt>
<trkpt lat="-27.274439" lon="151.290064">
  <ele>343.1</ele>
  <time>2026-09-01T19:55:06Z</time>
  <course>270.0</course>
  <speed>0.0</speed>
  <fix>3d</fix>
</trkpt>
<trkpt lat="-27.274439" lon="151.290064">
  <ele>342.75</ele>
  <time>2026-09-01T19:55:06Z</time>
  <course>11.18</course>
  <speed>0.0</speed>
  <fix>3d</fix>
</trkpt>
<trkpt lat="-27.274439" lon="151.290064">
  <ele>343.1</ele>
  <time>2026-09-01T19:55:06Z</time>
  <course>270.0</course>
  <speed>0.0</speed>
  <fix>3d</fix>
</trkpt>
<trkpt lat="-27.274439" lon="151.290064">
  <ele>343.03</ele>
  <time>2026-09-01T19:55:06Z</time>
  <course>11.19</course>
  <speed>0.0</speed>
  <fix>3d</fix>
</trkpt>
<trkpt lat="-27.274439" lon="151.290064">
  <ele>343.1</ele>
  <time>2026-09-01T19:55:06Z</time>
  <course>270.0</course>
  <speed>0.0</speed>
  <fix>3d</fix>
</trkpt>
<trkpt lat="-27.274439" lon="151.290064">
  <ele>342.8</ele>
  <time>2026-09-01T19:55:06Z</time>
  <course>11.19</course>
  <speed>0.0</speed>
  <fix>3d</fix>
</trkpt>
<trkpt lat="-27.274439" lon="151.290064">
  <ele>343.1</ele>
  <time>2026-09-01T19:55:06Z</time>
  <course>270.0</course>
  <speed>0.0</speed>
  <fix>3d</fix>
</trkpt>
<trkpt lat="-27.274439" lon="151.290064">
  <ele>343.05</ele>
  <time>2026-09-01T19:55:06Z</time>
  <course>11.19</course>
  <speed>0.0</speed>
  <fix>3d</fix>
</trkpt>
<trkpt lat="-27.274439" lon="151.290064">
  <ele>343.1</ele>
  <time>2026-09-01T19:55:06Z</time>
  <course>270.0</course>
  <speed>0.0</speed>
  <fix>3d</fix>
</trkpt>
<trkpt lat="-27.274439" lon="151.290064">
  <ele>343.03</ele>
  <time>2026-09-01T19:55:06Z</time>
  <course>11.19</course>
  <speed>0.0</speed>
  <fix>3d</fix>
</trkpt>
<trkpt lat="-27.274439" lon="151.290064">
  <ele>343.1</ele>
  <time>2026-09-01T19:55:06Z</time>
  <course>270.0</course>
  <speed>0.0</speed>
  <fix>3d</fix>
</trkpt>
<trkpt lat="-27.274439" lon="151.290064">
  <ele>342.88</ele>
  <time>2026-09-01T19:55:06Z</time>
  <course>11.19</course>
  <speed>0.0</speed>
  <fix>3d</fix>
</trkpt>
<trkpt lat="-27.274439" lon="151.290064">
  <ele>343.1</ele>
  <time>2026-09-01T19:55:06Z</time>
  <course>270.0</course>
  <speed>0.0</speed>
  <fix>3d</fix>
</trkpt>
<trkpt lat="-27.274439" lon="151.290064">
  <ele>342.83</ele>
  <time>2026-09-01T19:55:06Z</time>
  <course>11.19</course>
  <speed>0.0</speed>
  <fix>3d</fix>
</trkpt>
<trkpt lat="-27.274439" lon="151.290064">
  <ele>343.1</ele>
  <time>2026-09-01T19:55:06Z</time>
  <course>270.0</course>
  <speed>0.0</speed>
  <fix>3d</fix>
</trkpt>
<trkpt lat="-27.274439" lon="151.290064">
  <ele>342.87</ele>
  <time>2026-09-01T19:55:06Z</time>
  <course>11.19</course>
  <speed>0.0</speed>
  <fix>3d</fix>
</trkpt>
<trkpt lat="-27.274439" lon="151.290064">
  <ele>343.1</ele>
  <time>2026-09-01T19:55:06Z</time>
  <course>270.0</course>
  <speed>0.0</speed>
  <fix>3d</fix>
</trkpt>
<trkpt lat="-27.274439" lon="151.290064">
  <ele>342.78</ele>
  <time>2026-09-01T19:55:06Z</time>
  <course>11.19</course>
  <speed>0.0</speed>
  <fix>3d</fix>
</trkpt>
<trkpt lat="-27.274439" lon="151.290064">
  <ele>343.1</ele>
  <time>2026-09-01T19:55:06Z</time>
  <course>270.0</course>
  <speed>0.0</speed>
  <fix>3d</fix>
</trkpt>
<trkpt lat="-27.274439" lon="151.290064">
  <ele>342.8</ele>
  <time>2026-09-01T19:55:06Z</time>
  <course>11.19</course>
  <speed>0.0</speed>
  <fix>3d</fix>
</trkpt>
<trkpt lat="-27.274439" lon="151.290064">
  <ele>343.1</ele>
  <time>2026-09-01T19:55:06Z</time>
  <course>270.0</course>
  <speed>0.0</speed>
  <fix>3d</fix>
</trkpt>
<trkpt lat="-27.274439" lon="151.290064">
  <ele>342.9</ele>
  <time>2026-09-01T19:55:06Z</time>
  <course>11.19</course>
  <speed>0.0</speed>
  <fix>3d</fix>
</trkpt>
<trkpt lat="-27.274439" lon="151.290064">
  <ele>343.1</ele>
  <time>2026-09-01T19:55:06Z</time>
  <course>270.0</course>
  <speed>0.0</speed>
  <fix>3d</fix>
</trkpt>
<trkpt lat="-27.274439" lon="151.290064">
  <ele>342.82</ele>
  <time>2026-09-01T19:55:06Z</time>
  <course>11.19</course>
  <speed>0.0</speed>
  <fix>3d</fix>
</trkpt>
<trkpt lat="-27.274439" lon="151.290064">
  <ele>343.1</ele>
  <time>2026-09-01T19:55:06Z</time>
  <course>270.0</course>
  <speed>0.0</speed>
  <fix>3d</fix>
</trkpt>
<trkpt lat="-27.274439" lon="151.290064">
  <ele>342.8</ele>
  <time>2026-09-01T19:55:06Z</time>
  <course>11.19</course>
  <speed>0.0</speed>
  <fix>3d</fix>
</trkpt>
<trkpt lat="-27.274439" lon="151.290064">
  <ele>343.1</ele>
  <time>2026-09-01T19:55:06Z</time>
  <course>270.0</course>
  <speed>0.0</speed>
  <fix>3d</fix>
</trkpt>
<trkpt lat="-27.274439" lon="151.290064">
  <ele>342.8</ele>
  <time>2026-09-01T19:55:06Z</time>
  <course>11.19</course>
  <speed>0.0</speed>
  <fix>3d</fix>
</trkpt>
<trkpt lat="-27.274439" lon="151.290064">
  <ele>343.1</ele>
  <time>2026-09-01T19:55:06Z</time>
  <course>270.0</course>
  <speed>0.0</speed>
  <fix>3d</fix>
</trkpt>
<trkpt lat="-27.274439" lon="151.290064">
  <ele>342.83</ele>
  <time>2026-09-01T19:55:06Z</time>
  <course>11.2</course>
  <speed>0.0</speed>
  <fix>3d</fix>
</trkpt>
<trkpt lat="-27.274439" lon="151.290064">
  <ele>343.1</ele>
  <time>2026-09-01T19:55:06Z</time>
  <course>270.0</course>
  <speed>0.0</speed>
  <fix>3d</fix>
</trkpt>
<trkpt lat="-27.274439" lon="151.290064">
  <ele>343.04</ele>
  <time>2026-09-01T19:55:06Z</time>
  <course>11.2</course>
  <speed>0.0</speed>
  <fix>3d</fix>
</trkpt>
<trkpt lat="-27.274439" lon="151.290064">
  <ele>343.1</ele>
  <time>2026-09-01T19:55:06Z</time>
  <course>270.0</course>
  <speed>0.0</speed>
  <fix>3d</fix>
</trkpt>
<trkpt lat="-27.274439" lon="151.290064">
  <ele>342.99</ele>
  <time>2026-09-01T19:55:06Z</time>
  <course>11.2</course>
  <speed>0.0</speed>
  <fix>3d</fix>
</trkpt>
<trkpt lat="-27.274439" lon="151.290064">
  <ele>343.1</ele>
  <time>2026-09-01T19:55:06Z</time>
  <course>270.0</course>
  <speed>0.0</speed>
  <fix>3d</fix>
</trkpt>
<trkpt lat="-27.274439" lon="151.290064">
  <ele>342.99</ele>
  <time>2026-09-01T19:55:06Z</time>
  <course>11.2</course>
  <speed>0.0</speed>
  <fix>3d</fix>
</trkpt>
<trkpt lat="-27.274439" lon="151.290064">
  <ele>343.1</ele>
  <time>2026-09-01T19:55:06Z</time>
  <course>270.0</course>
  <speed>0.0</speed>
  <fix>3d</fix>
</trkpt>
<trkpt lat="-27.274439" lon="151.290064">
  <ele>342.95</ele>
  <time>2026-09-01T19:55:06Z</time>
  <course>11.2</course>
  <speed>0.0</speed>
  <fix>3d</fix>
</trkpt>
<trkpt lat="-27.274439" lon="151.290064">
  <ele>343.1</ele>
  <time>2026-09-01T19:55:06Z</time>
  <course>270.0</course>
  <speed>0.0</speed>
  <fix>3d</fix>
</trkpt>
<trkpt lat="-27.274439" lon="151.290064">
  <ele>343.0</ele>
  <time>2026-09-01T19:55:06Z</time>
  <course>11.2</course>
  <speed>0.0</speed>
  <fix>3d</fix>
</trkpt>
<trkpt lat="-27.274439" lon="151.290064">
  <ele>343.1</ele>
  <time>2026-09-01T19:55:06Z</time>
  <course>270.0</course>
  <speed>0.0</speed>
  <fix>3d</fix>
</trkpt>
<trkpt lat="-27.274439" lon="151.290064">
  <ele>343.01</ele>
  <time>2026-09-01T19:55:06Z</time>
  <course>11.2</course>
  <speed>0.0</speed>
  <fix>3d</fix>
</trkpt>
<trkpt lat="-27.274439" lon="151.290064">
  <ele>343.1</ele>
  <time>2026-09-01T19:55:06Z</time>
  <course>270.0</course>
  <speed>0.0</speed>
  <fix>3d</fix>
</trkpt>
<trkpt lat="-27.274439" lon="151.290064">
  <ele>342.8</ele>
  <time>2026-09-01T19:55:06Z</time>
  <course>11.2</course>
  <speed>0.0</speed>
  <fix>3d</fix>
</trkpt>
<trkpt lat="-27.274439" lon="151.290064">
  <ele>343.1</ele>
  <time>2026-09-01T19:55:06Z</time>
  <course>270.0</course>
  <speed>0.0</speed>
  <fix>3d</fix>
</trkpt>
<trkpt lat="-27.274439" lon="151.290064">
  <ele>342.93</ele>
  <time>2026-09-01T19:55:06Z</time>
  <course>11.2</course>
  <speed>0.0</speed>
  <fix>3d</fix>
</trkpt>
<trkpt lat="-27.274439" lon="151.290064">
  <ele>343.1</ele>
  <time>2026-09-01T19:55:06Z</time>
  <course>270.0</course>
  <speed>0.0</speed>
  <fix>3d</fix>
</trkpt>
<trkpt lat="-27.274439" lon="151.290064">
  <ele>342.7</ele>
  <time>2026-09-01T19:55:06Z</time>
  <course>11.2</course>
  <speed>0.0</speed>
  <fix>3d</fix>
</trkpt>
<trkpt lat="-27.274439" lon="151.290064">
  <ele>343.1</ele>
  <time>2026-09-01T19:55:06Z</time>
  <course>270.0</course>
  <speed>0.0</speed>
  <fix>3d</fix>
</trkpt>
<trkpt lat="-27.274439" lon="151.290064">
  <ele>342.98</ele>
  <time>2026-09-01T19:55:06Z</time>
  <course>11.2</course>
  <speed>0.0</speed>
  <fix>3d</fix>
</trkpt>
<trkpt lat="-27.274439" lon="151.290064">
  <ele>343.1</ele>
  <time>2026-09-01T19:55:06Z</time>
  <course>270.0</course>
  <speed>0.0</speed>
  <fix>3d</fix>
</trkpt>
<trkpt lat="-27.274439" lon="151.290064">
  <ele>342.89</ele>
  <time>2026-09-01T19:55:06Z</time>
  <course>11.2</course>
  <speed>0.0</speed>
  <fix>3d</fix>
</trkpt>
<trkpt lat="-27.274439" lon="151.290064">
  <ele>343.1</ele>
  <time>2026-09-01T19:55:06Z</time>
  <course>270.0</course>
  <speed>0.0</speed>
  <fix>3d</fix>
</trkpt>
<trkpt lat="-27.274439" lon="151.290064">
  <ele>342.96</ele>
  <time>2026-09-01T19:55:06Z</time>
  <course>11.2</course>
  <speed>0.0</speed>
  <fix>3d</fix>
</trkpt>
<trkpt lat="-27.274439" lon="151.290064">
  <ele>343.1</ele>
  <time>2026-09-01T19:55:06Z</time>
  <course>270.0</course>
  <speed>0.0</speed>
  <fix>3d</fix>
</trkpt>
<trkpt lat="-27.274439" lon="151.290064">
  <ele>342.7</ele>
  <time>2026-09-01T19:55:06Z</time>
  <course>11.21</course>
  <speed>0.0</speed>
  <fix>3d</fix>
</trkpt>
<trkpt lat="-27.274439" lon="151.290064">
  <ele>343.1</ele>
  <time>2026-09-01T19:55:06Z</time>
  <course>270.0</course>
  <speed>0.0</speed>
  <fix>3d</fix>
</trkpt>
<trkpt lat="-27.274439" lon="151.290064">
  <ele>342.96</ele>
  <time>2026-09-01T19:55:06Z</time>
  <course>11.21</course>
  <speed>0.0</speed>
  <fix>3d</fix>
</trkpt>
<trkpt lat="-27.274439" lon="151.290064">
  <ele>343.1</ele>
  <time>2026-09-01T19:55:06Z</time>
  <course>270.0</course>
  <speed>0.0</speed>
  <fix>3d</fix>
</trkpt>
<trkpt lat="-27.274439" lon="151.290064">
  <ele>343.0</ele>
  <time>2026-09-01T19:55:06Z</time>
  <course>11.21</course>
  <speed>0.0</speed>
  <fix>3d</fix>
</trkpt>
<trkpt lat="-27.274439" lon="151.290064">
  <ele>343.1</ele>
  <time>2026-09-01T19:55:06Z</time>
  <course>270.0</course>
  <speed>0.0</speed>
  <fix>3d</fix>
</trkpt>
<trkpt lat="-27.274439" lon="151.290064">
  <ele>342.98</ele>
  <time>2026-09-01T19:55:06Z</time>
  <course>11.21</course>
  <speed>0.0</speed>
  <fix>3d</fix>
</trkpt>
<trkpt lat="-27.274439" lon="151.290064">
  <ele>343.1</ele>
  <time>2026-09-01T19:55:06Z</time>
  <course>270.0</course>
  <speed>0.0</speed>
  <fix>3d</fix>
</trkpt>
<trkpt lat="-27.274439" lon="151.290064">
  <ele>343.08</ele>
  <time>2026-09-01T19:55:06Z</time>
  <course>11.21</course>
  <speed>0.0</speed>
  <fix>3d</fix>
</trkpt>
<trkpt lat="-27.274439" lon="151.290064">
  <ele>343.1</ele>
  <time>2026-09-01T19:55:06Z</time>
  <course>270.0</course>
  <speed>0.0</speed>
  <fix>3d</fix>
</trkpt>
<trkpt lat="-27.274439" lon="151.290064">
  <ele>342.82</ele>
  <time>2026-09-01T19:55:06Z</time>
  <course>11.21</course>
  <speed>0.0</speed>
  <fix>3d</fix>
</trkpt>
<trkpt lat="-27.274439" lon="151.290064">
  <ele>343.1</ele>
  <time>2026-09-01T19:55:06Z</time>
  <course>270.0</course>
  <speed>0.0</speed>
  <fix>3d</fix>
</trkpt>
<trkpt lat="-27.274439" lon="151.290064">
  <ele>342.78</ele>
  <time>2026-09-01T19:55:06Z</time>
  <course>11.21</course>
  <speed>0.0</speed>
  <fix>3d</fix>
</trkpt>
<trkpt lat="-27.274439" lon="151.290064">
  <ele>343.1</ele>
  <time>2026-09-01T19:55:06Z</time>
  <course>270.0</course>
  <speed>0.0</speed>
  <fix>3d</fix>
</trkpt>
<trkpt lat="-27.274439" lon="151.290064">
  <ele>342.98</ele>
  <time>2026-09-01T19:55:06Z</time>
  <course>11.21</course>
  <speed>0.0</speed>
  <fix>3d</fix>
</trkpt>
<trkpt lat="-27.274439" lon="151.290064">
  <ele>343.1</ele>
  <time>2026-09-01T19:55:06Z</time>
  <course>270.0</course>
  <speed>0.0</speed>
  <fix>3d</fix>
</trkpt>
<trkpt lat="-27.274439" lon="151.290064">
  <ele>342.9</ele>
  <time>2026-09-01T19:55:06Z</time>
  <course>11.21</course>
  <speed>0.0</speed>
  <fix>3d</fix>
</trkpt>
<trkpt lat="-27.274439" lon="151.290064">
  <ele>343.1</ele>
  <time>2026-09-01T19:55:06Z</time>
  <course>270.0</course>
  <speed>0.0</speed>
  <fix>3d</fix>
</trkpt>
<trkpt lat="-27.274439" lon="151.290064">
  <ele>343.0</ele>
  <time>2026-09-01T19:55:06Z</time>
  <course>11.21</course>
  <speed>0.0</speed>
  <fix>3d</fix>
</trkpt>
<trkpt lat="-27.274439" lon="151.290064">
  <ele>343.1</ele>
  <time>2026-09-01T19:55:06Z</time>
  <course>270.0</course>
  <speed>0.0</speed>
  <fix>3d</fix>
</trkpt>
<trkpt lat="-27.274439" lon="151.290064">
  <ele>342.9</ele>
  <time>2026-09-01T19:55:06Z</time>
  <course>11.21</course>
  <speed>0.0</speed>
  <fix>3d</fix>
</trkpt>
<trkpt lat="-27.274439" lon="151.290064">
  <ele>343.1</ele>
  <time>2026-09-01T19:55:06Z</time>
  <course>270.0</course>
  <speed>0.0</speed>
  <fix>3d</fix>
</trkpt>
<trkpt lat="-27.274439" lon="151.290064">
  <ele>342.91</ele>
  <time>2026-09-01T19:55:06Z</time>
  <course>11.21</course>
  <speed>0.0</speed>
  <fix>3d</fix>
</trkpt>
<trkpt lat="-27.274439" lon="151.290064">
  <ele>343.1</ele>
  <time>2026-09-01T19:55:06Z</time>
  <course>270.0</course>
  <speed>0.0</speed>
  <fix>3d</fix>
</trkpt>
<trkpt lat="-27.274439" lon="151.290064">
  <ele>342.83</ele>
  <time>2026-09-01T19:55:06Z</time>
  <course>11.21</course>
  <speed>0.0</speed>
  <fix>3d</fix>
</trkpt>
<trkpt lat="-27.274439" lon="151.290064">
  <ele>343.1</ele>
  <time>2026-09-01T19:55:06Z</time>
  <course>270.0</course>
  <speed>0.0</speed>
  <fix>3d</fix>
</trkpt>
<trkpt lat="-27.274439" lon="151.290064">
  <ele>342.74</ele>
  <time>2026-09-01T19:55:06Z</time>
  <course>11.21</course>
  <speed>0.0</speed>
  <fix>3d</fix>
</trkpt>
<trkpt lat="-27.274439" lon="151.290064">
  <ele>343.1</ele>
  <time>2026-09-01T19:55:06Z</time>
  <course>270.0</course>
  <speed>0.0</speed>
  <fix>3d</fix>
</trkpt>
<trkpt lat="-27.274439" lon="151.290064">
  <ele>342.89</ele>
  <time>2026-09-01T19:55:06Z</time>
  <course>11.21</course>
  <speed>0.0</speed>
  <fix>3d</fix>
</trkpt>
<trkpt lat="-27.274439" lon="151.290064">
  <ele>343.1</ele>
  <time>2026-09-01T19:55:06Z</time>
  <course>270.0</course>
  <speed>0.0</speed>
  <fix>3d</fix>
</trkpt>
<trkpt lat="-27.274439" lon="151.290064">
  <ele>342.87</ele>
  <time>2026-09-01T19:55:06Z</time>
  <course>11.22</course>
  <speed>0.0</speed>
  <fix>3d</fix>
</trkpt>
<trkpt lat="-27.274439" lon="151.290064">
  <ele>343.1</ele>
  <time>2026-09-01T19:55:06Z</time>
  <course>270.0</course>
  <speed>0.0</speed>
  <fix>3d</fix>
</trkpt>
<trkpt lat="-27.274439" lon="151.290064">
  <ele>342.92</ele>
  <time>2026-09-01T19:55:06Z</time>
  <course>11.22</course>
  <speed>0.0</speed>
  <fix>3d</fix>
</trkpt>
<trkpt lat="-27.274439" lon="151.290064">
  <ele>343.1</ele>
  <time>2026-09-01T19:55:06Z</time>
  <course>270.0</course>
  <speed>0.0</speed>
  <fix>3d</fix>
</trkpt>
<trkpt lat="-27.274439" lon="151.290064">
  <ele>343.01</ele>
  <time>2026-09-01T19:55:06Z</time>
  <course>11.22</course>
  <speed>0.0</speed>
  <fix>3d</fix>
</trkpt>
<trkpt lat="-27.274439" lon="151.290064">
  <ele>343.1</ele>
  <time>2026-09-01T19:55:06Z</time>
  <course>270.0</course>
  <speed>0.0</speed>
  <fix>3d</fix>
</trkpt>
<trkpt lat="-27.274439" lon="151.290064">
  <ele>342.9</ele>
  <time>2026-09-01T19:55:06Z</time>
  <course>11.21</course>
  <speed>0.0</speed>
  <fix>3d</fix>
</trkpt>
<trkpt lat="-27.274439" lon="151.290064">
  <ele>343.1</ele>
  <time>2026-09-01T19:55:06Z</time>
  <course>270.0</course>
  <speed>0.0</speed>
  <fix>3d</fix>
</trkpt>
<trkpt lat="-27.274439" lon="151.290064">
  <ele>342.71</ele>
  <time>2026-09-01T19:55:06Z</time>
  <course>11.21</course>
  <speed>0.0</speed>
  <fix>3d</fix>
</trkpt>
<trkpt lat="-27.274439" lon="151.290064">
  <ele>343.1</ele>
  <time>2026-09-01T19:55:06Z</time>
  <course>270.0</course>
  <speed>0.0</speed>
  <fix>3d</fix>
</trkpt>
<trkpt lat="-27.274439" lon="151.290064">
  <ele>343.05</ele>
  <time>2026-09-01T19:55:07Z</time>
  <course>11.21</course>
  <speed>0.0</speed>
  <fix>3d</fix>
</trkpt>
<trkpt lat="-27.274439" lon="151.290064">
  <ele>343.1</ele>
  <time>2026-09-01T19:55:07Z</time>
  <course>270.0</course>
  <speed>0.0</speed>
  <fix>3d</fix>
</trkpt>
<trkpt lat="-27.274439" lon="151.290064">
  <ele>343.0</ele>
  <time>2026-09-01T19:55:07Z</time>
  <course>11.21</course>
  <speed>0.0</speed>
  <fix>3d</fix>
</trkpt>
<trkpt lat="-27.274439" lon="151.290064">
  <ele>343.1</ele>
  <time>2026-09-01T19:55:07Z</time>
  <course>270.0</course>
  <speed>0.0</speed>
  <fix>3d</fix>
</trkpt>
<trkpt lat="-27.274439" lon="151.290064">
  <ele>342.8</ele>
  <time>2026-09-01T19:55:07Z</time>
  <course>11.2</course>
  <speed>0.0</speed>
  <fix>3d</fix>
</trkpt>
<trkpt lat="-27.274439" lon="151.290064">
  <ele>343.1</ele>
  <time>2026-09-01T19:55:07Z</time>
  <course>270.0</course>
  <speed>0.0</speed>
  <fix>3d</fix>
</trkpt>
<trkpt lat="-27.274439" lon="151.290064">
  <ele>342.85</ele>
  <time>2026-09-01T19:55:07Z</time>
  <course>11.2</course>
  <speed>0.0</speed>
  <fix>3d</fix>
</trkpt>
<trkpt lat="-27.274439" lon="151.290064">
  <ele>343.1</ele>
  <time>2026-09-01T19:55:07Z</time>
  <course>270.0</course>
  <speed>0.0</speed>
  <fix>3d</fix>
</trkpt>
<trkpt lat="-27.274439" lon="151.290064">
  <ele>342.96</ele>
  <time>2026-09-01T19:55:07Z</time>
  <course>11.2</course>
  <speed>0.0</speed>
  <fix>3d</fix>
</trkpt>
<trkpt lat="-27.274439" lon="151.290064">
  <ele>343.1</ele>
  <time>2026-09-01T19:55:07Z</time>
  <course>270.0</course>
  <speed>0.0</speed>
  <fix>3d</fix>
</trkpt>
<trkpt lat="-27.274439" lon="151.290064">
  <ele>342.82</ele>
  <time>2026-09-01T19:55:07Z</time>
  <course>11.2</course>
  <speed>0.0</speed>
  <fix>3d</fix>
</trkpt>
<trkpt lat="-27.274439" lon="151.290064">
  <ele>343.1</ele>
  <time>2026-09-01T19:55:07Z</time>
  <course>270.0</course>
  <speed>0.0</speed>
  <fix>3d</fix>
</trkpt>
<trkpt lat="-27.274439" lon="151.290064">
  <ele>342.75</ele>
  <time>2026-09-01T19:55:07Z</time>
  <course>11.2</course>
  <speed>0.0</speed>
  <fix>3d</fix>
</trkpt>
<trkpt lat="-27.274439" lon="151.290064">
  <ele>343.1</ele>
  <time>2026-09-01T19:55:07Z</time>
  <course>270.0</course>
  <speed>0.0</speed>
  <fix>3d</fix>
</trkpt>
<trkpt lat="-27.274439" lon="151.290064">
  <ele>343.08</ele>
  <time>2026-09-01T19:55:07Z</time>
  <course>11.19</course>
  <speed>0.0</speed>
  <fix>3d</fix>
</trkpt>
<trkpt lat="-27.274439" lon="151.290064">
  <ele>343.1</ele>
  <time>2026-09-01T19:55:07Z</time>
  <course>270.0</course>
  <speed>0.0</speed>
  <fix>3d</fix>
</trkpt>
<trkpt lat="-27.274439" lon="151.290064">
  <ele>343.03</ele>
  <time>2026-09-01T19:55:07Z</time>
  <course>11.19</course>
  <speed>0.0</speed>
  <fix>3d</fix>
</trkpt>
<trkpt lat="-27.274439" lon="151.290064">
  <ele>343.1</ele>
  <time>2026-09-01T19:55:07Z</time>
  <course>270.0</course>
  <speed>0.0</speed>
  <fix>3d</fix>
</trkpt>
<trkpt lat="-27.274439" lon="151.290064">
  <ele>342.94</ele>
  <time>2026-09-01T19:55:07Z</time>
  <course>11.19</course>
  <speed>0.0</speed>
  <fix>3d</fix>
</trkpt>
<trkpt lat="-27.274439" lon="151.290064">
  <ele>343.1</ele>
  <time>2026-09-01T19:55:07Z</time>
  <course>270.0</course>
  <speed>0.0</speed>
  <fix>3d</fix>
</trkpt>
<trkpt lat="-27.274439" lon="151.290064">
  <ele>342.93</ele>
  <time>2026-09-01T19:55:07Z</time>
  <course>11.19</course>
  <speed>0.0</speed>
  <fix>3d</fix>
</trkpt>
<trkpt lat="-27.274439" lon="151.290064">
  <ele>343.1</ele>
  <time>2026-09-01T19:55:07Z</time>
  <course>270.0</course>
  <speed>0.0</speed>
  <fix>3d</fix>
</trkpt>
<trkpt lat="-27.274439" lon="151.290064">
  <ele>343.08</ele>
  <time>2026-09-01T19:55:07Z</time>
  <course>11.19</course>
  <speed>0.0</speed>
  <fix>3d</fix>
</trkpt>
<trkpt lat="-27.274439" lon="151.290064">
  <ele>343.1</ele>
  <time>2026-09-01T19:55:07Z</time>
  <course>270.0</course>
  <speed>0.0</speed>
  <fix>3d</fix>
</trkpt>
<trkpt lat="-27.274439" lon="151.290064">
  <ele>342.85</ele>
  <time>2026-09-01T19:55:07Z</time>
  <course>11.18</course>
  <speed>0.0</speed>
  <fix>3d</fix>
</trkpt>
<trkpt lat="-27.274439" lon="151.290064">
  <ele>343.1</ele>
  <time>2026-09-01T19:55:07Z</time>
  <course>270.0</course>
  <speed>0.0</speed>
  <fix>3d</fix>
</trkpt>
<trkpt lat="-27.274439" lon="151.290064">
  <ele>342.86</ele>
  <time>2026-09-01T19:55:07Z</time>
  <course>11.18</course>
  <speed>0.0</speed>
  <fix>3d</fix>
</trkpt>
<trkpt lat="-27.274439" lon="151.290064">
  <ele>343.1</ele>
  <time>2026-09-01T19:55:07Z</time>
  <course>270.0</course>
  <speed>0.0</speed>
  <fix>3d</fix>
</trkpt>
<trkpt lat="-27.274439" lon="151.290064">
  <ele>342.83</ele>
  <time>2026-09-01T19:55:07Z</time>
  <course>11.18</course>
  <speed>0.0</speed>
  <fix>3d</fix>
</trkpt>
<trkpt lat="-27.274439" lon="151.290064">
  <ele>343.1</ele>
  <time>2026-09-01T19:55:07Z</time>
  <course>270.0</course>
  <speed>0.0</speed>
  <fix>3d</fix>
</trkpt>
<trkpt lat="-27.274439" lon="151.290064">
  <ele>343.14</ele>
  <time>2026-09-01T19:55:07Z</time>
  <course>11.18</course>
  <speed>0.0</speed>
  <fix>3d</fix>
</trkpt>
<trkpt lat="-27.274439" lon="151.290064">
  <ele>343.1</ele>
  <time>2026-09-01T19:55:07Z</time>
  <course>270.0</course>
  <speed>0.0</speed>
  <fix>3d</fix>
</trkpt>
<trkpt lat="-27.274439" lon="151.290064">
  <ele>343.03</ele>
  <time>2026-09-01T19:55:07Z</time>
  <course>11.18</course>
  <speed>0.0</speed>
  <fix>3d</fix>
</trkpt>
<trkpt lat="-27.274439" lon="151.290064">
  <ele>343.1</ele>
  <time>2026-09-01T19:55:07Z</time>
  <course>270.0</course>
  <speed>0.0</speed>
  <fix>3d</fix>
</trkpt>
<trkpt lat="-27.274439" lon="151.290064">
  <ele>342.82</ele>
  <time>2026-09-01T19:55:07Z</time>
  <course>11.17</course>
  <speed>0.0</speed>
  <fix>3d</fix>
</trkpt>
<trkpt lat="-27.274439" lon="151.290064">
  <ele>343.1</ele>
  <time>2026-09-01T19:55:07Z</time>
  <course>270.0</course>
  <speed>0.0</speed>
  <fix>3d</fix>
</trkpt>
<trkpt lat="-27.274439" lon="151.290064">
  <ele>342.93</ele>
  <time>2026-09-01T19:55:07Z</time>
  <course>11.17</course>
  <speed>0.0</speed>
  <fix>3d</fix>
</trkpt>
<trkpt lat="-27.274439" lon="151.290064">
  <ele>343.1</ele>
  <time>2026-09-01T19:55:07Z</time>
  <course>270.0</course>
  <speed>0.0</speed>
  <fix>3d</fix>
</trkpt>
<trkpt lat="-27.274439" lon="151.290064">
  <ele>342.82</ele>
  <time>2026-09-01T19:55:07Z</time>
  <course>11.17</course>
  <speed>0.0</speed>
  <fix>3d</fix>
</trkpt>
<trkpt lat="-27.274439" lon="151.290064">
  <ele>343.1</ele>
  <time>2026-09-01T19:55:07Z</time>
  <course>270.0</course>
  <speed>0.0</speed>
  <fix>3d</fix>
</trkpt>
<trkpt lat="-27.274439" lon="151.290064">
  <ele>342.83</ele>
  <time>2026-09-01T19:55:07Z</time>
  <course>11.17</course>
  <speed>0.0</speed>
  <fix>3d</fix>
</trkpt>
<trkpt lat="-27.274439" lon="151.290064">
  <ele>343.1</ele>
  <time>2026-09-01T19:55:07Z</time>
  <course>270.0</course>
  <speed>0.0</speed>
  <fix>3d</fix>
</trkpt>
<trkpt lat="-27.274439" lon="151.290064">
  <ele>342.9</ele>
  <time>2026-09-01T19:55:07Z</time>
  <course>11.17</course>
  <speed>0.0</speed>
  <fix>3d</fix>
</trkpt>
<trkpt lat="-27.274439" lon="151.290064">
  <ele>343.1</ele>
  <time>2026-09-01T19:55:07Z</time>
  <course>270.0</course>
  <speed>0.0</speed>
  <fix>3d</fix>
</trkpt>
<trkpt lat="-27.274439" lon="151.290064">
  <ele>342.83</ele>
  <time>2026-09-01T19:55:07Z</time>
  <course>11.17</course>
  <speed>0.0</speed>
  <fix>3d</fix>
</trkpt>
<trkpt lat="-27.274439" lon="151.290064">
  <ele>343.1</ele>
  <time>2026-09-01T19:55:07Z</time>
  <course>270.0</course>
  <speed>0.0</speed>
  <fix>3d</fix>
</trkpt>
<trkpt lat="-27.274439" lon="151.290064">
  <ele>343.04</ele>
  <time>2026-09-01T19:55:07Z</time>
  <course>11.16</course>
  <speed>0.0</speed>
  <fix>3d</fix>
</trkpt>
<trkpt lat="-27.274439" lon="151.290064">
  <ele>343.1</ele>
  <time>2026-09-01T19:55:07Z</time>
  <course>270.0</course>
  <speed>0.0</speed>
  <fix>3d</fix>
</trkpt>
<trkpt lat="-27.274439" lon="151.290064">
  <ele>342.98</ele>
  <time>2026-09-01T19:55:07Z</time>
  <course>11.16</course>
  <speed>0.0</speed>
  <fix>3d</fix>
</trkpt>
<trkpt lat="-27.274439" lon="151.290064">
  <ele>343.1</ele>
  <time>2026-09-01T19:55:07Z</time>
  <course>270.0</course>
  <speed>0.0</speed>
  <fix>3d</fix>
</trkpt>
<trkpt lat="-27.274439" lon="151.290064">
  <ele>342.99</ele>
  <time>2026-09-01T19:55:07Z</time>
  <course>11.16</course>
  <speed>0.0</speed>
  <fix>3d</fix>
</trkpt>
<trkpt lat="-27.274439" lon="151.290064">
  <ele>343.1</ele>
  <time>2026-09-01T19:55:07Z</time>
  <course>270.0</course>
  <speed>0.0</speed>
  <fix>3d</fix>
</trkpt>
<trkpt lat="-27.274439" lon="151.290064">
  <ele>342.98</ele>
  <time>2026-09-01T19:55:07Z</time>
  <course>11.16</course>
  <speed>0.0</speed>
  <fix>3d</fix>
</trkpt>
<trkpt lat="-27.274439" lon="151.290064">
  <ele>343.1</ele>
  <time>2026-09-01T19:55:07Z</time>
  <course>270.0</course>
  <speed>0.0</speed>
  <fix>3d</fix>
</trkpt>
<trkpt lat="-27.274439" lon="151.290064">
  <ele>342.9</ele>
  <time>2026-09-01T19:55:07Z</time>
  <course>11.16</course>
  <speed>0.0</speed>
  <fix>3d</fix>
</trkpt>
<trkpt lat="-27.274439" lon="151.290064">
  <ele>343.1</ele>
  <time>2026-09-01T19:55:07Z</time>
  <course>270.0</course>
  <speed>0.0</speed>
  <fix>3d</fix>
</trkpt>
<trkpt lat="-27.274439" lon="151.290064">
  <ele>343.03</ele>
  <time>2026-09-01T19:55:07Z</time>
  <course>11.16</course>
  <speed>0.0</speed>
  <fix>3d</fix>
</trkpt>
<trkpt lat="-27.274439" lon="151.290064">
  <ele>343.1</ele>
  <time>2026-09-01T19:55:07Z</time>
  <course>270.0</course>
  <speed>0.0</speed>
  <fix>3d</fix>
</trkpt>
<trkpt lat="-27.274439" lon="151.290064">
  <ele>343.11</ele>
  <time>2026-09-01T19:55:07Z</time>
  <course>11.15</course>
  <speed>0.0</speed>
  <fix>3d</fix>
</trkpt>
<trkpt lat="-27.274439" lon="151.290064">
  <ele>343.1</ele>
  <time>2026-09-01T19:55:07Z</time>
  <course>270.0</course>
  <speed>0.0</speed>
  <fix>3d</fix>
</trkpt>
<trkpt lat="-27.274439" lon="151.290064">
  <ele>342.98</ele>
  <time>2026-09-01T19:55:07Z</time>
  <course>11.15</course>
  <speed>0.0</speed>
  <fix>3d</fix>
</trkpt>
<trkpt lat="-27.274439" lon="151.290064">
  <ele>343.1</ele>
  <time>2026-09-01T19:55:07Z</time>
  <course>270.0</course>
  <speed>0.0</speed>
  <fix>3d</fix>
</trkpt>
<trkpt lat="-27.274439" lon="151.290064">
  <ele>343.06</ele>
  <time>2026-09-01T19:55:07Z</time>
  <course>11.15</course>
  <speed>0.0</speed>
  <fix>3d</fix>
</trkpt>
<trkpt lat="-27.274439" lon="151.290064">
  <ele>343.1</ele>
  <time>2026-09-01T19:55:07Z</time>
  <course>270.0</course>
  <speed>0.0</speed>
  <fix>3d</fix>
</trkpt>
<trkpt lat="-27.274439" lon="151.290064">
  <ele>342.9</ele>
  <time>2026-09-01T19:55:07Z</time>
  <course>11.15</course>
  <speed>0.0</speed>
  <fix>3d</fix>
</trkpt>
<trkpt lat="-27.274439" lon="151.290064">
  <ele>343.1</ele>
  <time>2026-09-01T19:55:07Z</time>
  <course>270.0</course>
  <speed>0.0</speed>
  <fix>3d</fix>
</trkpt>
<trkpt lat="-27.274439" lon="151.290064">
  <ele>342.79</ele>
  <time>2026-09-01T19:55:07Z</time>
  <course>11.15</course>
  <speed>0.0</speed>
  <fix>3d</fix>
</trkpt>
<trkpt lat="-27.274439" lon="151.290064">
  <ele>343.1</ele>
  <time>2026-09-01T19:55:07Z</time>
  <course>270.0</course>
  <speed>0.0</speed>
  <fix>3d</fix>
</trkpt>
<trkpt lat="-27.274439" lon="151.290064">
  <ele>343.08</ele>
  <time>2026-09-01T19:55:07Z</time>
  <course>11.15</course>
  <speed>0.0</speed>
  <fix>3d</fix>
</trkpt>
<trkpt lat="-27.274439" lon="151.290064">
  <ele>343.1</ele>
  <time>2026-09-01T19:55:07Z</time>
  <course>270.0</course>
  <speed>0.0</speed>
  <fix>3d</fix>
</trkpt>
<trkpt lat="-27.274439" lon="151.290064">
  <ele>342.99</ele>
  <time>2026-09-01T19:55:07Z</time>
  <course>11.15</course>
  <speed>0.0</speed>
  <fix>3d</fix>
</trkpt>
<trkpt lat="-27.274439" lon="151.290064">
  <ele>343.1</ele>
  <time>2026-09-01T19:55:07Z</time>
  <course>270.0</course>
  <speed>0.0</speed>
  <fix>3d</fix>
</trkpt>
<trkpt lat="-27.274439" lon="151.290064">
  <ele>342.95</ele>
  <time>2026-09-01T19:55:07Z</time>
  <course>11.14</course>
  <speed>0.0</speed>
  <fix>3d</fix>
</trkpt>
<trkpt lat="-27.274439" lon="151.290064">
  <ele>343.1</ele>
  <time>2026-09-01T19:55:07Z</time>
  <course>270.0</course>
  <speed>0.0</speed>
  <fix>3d</fix>
</trkpt>
<trkpt lat="-27.274439" lon="151.290064">
  <ele>342.8</ele>
  <time>2026-09-01T19:55:07Z</time>
  <course>11.14</course>
  <speed>0.0</speed>
  <fix>3d</fix>
</trkpt>
<trkpt lat="-27.274439" lon="151.290064">
  <ele>343.1</ele>
  <time>2026-09-01T19:55:07Z</time>
  <course>270.0</course>
  <speed>0.0</speed>
  <fix>3d</fix>
</trkpt>
<trkpt lat="-27.274439" lon="151.290064">
  <ele>343.01</ele>
  <time>2026-09-01T19:55:07Z</time>
  <course>11.14</course>
  <speed>0.0</speed>
  <fix>3d</fix>
</trkpt>
<trkpt lat="-27.274439" lon="151.290064">
  <ele>343.1</ele>
  <time>2026-09-01T19:55:07Z</time>
  <course>270.0</course>
  <speed>0.0</speed>
  <fix>3d</fix>
</trkpt>
<trkpt lat="-27.274439" lon="151.290064">
  <ele>342.78</ele>
  <time>2026-09-01T19:55:07Z</time>
  <course>11.14</course>
  <speed>0.0</speed>
  <fix>3d</fix>
</trkpt>
<trkpt lat="-27.274439" lon="151.290064">
  <ele>343.1</ele>
  <time>2026-09-01T19:55:07Z</time>
  <course>270.0</course>
  <speed>0.0</speed>
  <fix>3d</fix>
</trkpt>
<trkpt lat="-27.274439" lon="151.290064">
  <ele>342.81</ele>
  <time>2026-09-01T19:55:07Z</time>
  <course>11.14</course>
  <speed>0.0</speed>
  <fix>3d</fix>
</trkpt>
<trkpt lat="-27.274439" lon="151.290064">
  <ele>343.1</ele>
  <time>2026-09-01T19:55:07Z</time>
  <course>270.0</course>
  <speed>0.0</speed>
  <fix>3d</fix>
</trkpt>
<trkpt lat="-27.274439" lon="151.290064">
  <ele>342.85</ele>
  <time>2026-09-01T19:55:07Z</time>
  <course>11.14</course>
  <speed>0.0</speed>
  <fix>3d</fix>
</trkpt>
<trkpt lat="-27.274439" lon="151.290064">
  <ele>343.1</ele>
  <time>2026-09-01T19:55:07Z</time>
  <course>270.0</course>
  <speed>0.0</speed>
  <fix>3d</fix>
</trkpt>
<trkpt lat="-27.274439" lon="151.290064">
  <ele>342.78</ele>
  <time>2026-09-01T19:55:07Z</time>
  <course>11.14</course>
  <speed>0.0</speed>
  <fix>3d</fix>
</trkpt>
<trkpt lat="-27.274439" lon="151.290064">
  <ele>343.1</ele>
  <time>2026-09-01T19:55:07Z</time>
  <course>270.0</course>
  <speed>0.0</speed>
  <fix>3d</fix>
</trkpt>
<trkpt lat="-27.274439" lon="151.290064">
  <ele>342.79</ele>
  <time>2026-09-01T19:55:07Z</time>
  <course>11.13</course>
  <speed>0.0</speed>
  <fix>3d</fix>
</trkpt>
<trkpt lat="-27.274439" lon="151.290064">
  <ele>343.1</ele>
  <time>2026-09-01T19:55:07Z</time>
  <course>270.0</course>
  <speed>0.0</speed>
  <fix>3d</fix>
</trkpt>
<trkpt lat="-27.274439" lon="151.290064">
  <ele>342.9</ele>
  <time>2026-09-01T19:55:07Z</time>
  <course>11.13</course>
  <speed>0.0</speed>
  <fix>3d</fix>
</trkpt>
<trkpt lat="-27.274439" lon="151.290064">
  <ele>343.1</ele>
  <time>2026-09-01T19:55:07Z</time>
  <course>270.0</course>
  <speed>0.0</speed>
  <fix>3d</fix>
</trkpt>
<trkpt lat="-27.274439" lon="151.290064">
  <ele>342.98</ele>
  <time>2026-09-01T19:55:07Z</time>
  <course>11.13</course>
  <speed>0.0</speed>
  <fix>3d</fix>
</trkpt>
<trkpt lat="-27.274439" lon="151.290064">
  <ele>343.1</ele>
  <time>2026-09-01T19:55:07Z</time>
  <course>270.0</course>
  <speed>0.0</speed>
  <fix>3d</fix>
</trkpt>
<trkpt lat="-27.274439" lon="151.290064">
  <ele>342.77</ele>
  <time>2026-09-01T19:55:07Z</time>
  <course>11.13</course>
  <speed>0.0</speed>
  <fix>3d</fix>
</trkpt>
<trkpt lat="-27.274439" lon="151.290064">
  <ele>343.1</ele>
  <time>2026-09-01T19:55:07Z</time>
  <course>270.0</course>
  <speed>0.0</speed>
  <fix>3d</fix>
</trkpt>
<trkpt lat="-27.274439" lon="151.290064">
  <ele>342.95</ele>
  <time>2026-09-01T19:55:07Z</time>
  <course>11.13</course>
  <speed>0.0</speed>
  <fix>3d</fix>
</trkpt>
<trkpt lat="-27.274439" lon="151.290064">
  <ele>343.1</ele>
  <time>2026-09-01T19:55:07Z</time>
  <course>270.0</course>
  <speed>0.0</speed>
  <fix>3d</fix>
</trkpt>
<trkpt lat="-27.274439" lon="151.290064">
  <ele>343.04</ele>
  <time>2026-09-01T19:55:07Z</time>
  <course>11.13</course>
  <speed>0.0</speed>
  <fix>3d</fix>
</trkpt>
<trkpt lat="-27.274439" lon="151.290064">
  <ele>343.1</ele>
  <time>2026-09-01T19:55:07Z</time>
  <course>270.0</course>
  <speed>0.0</speed>
  <fix>3d</fix>
</trkpt>
<trkpt lat="-27.274439" lon="151.290064">
  <ele>342.83</ele>
  <time>2026-09-01T19:55:07Z</time>
  <course>11.13</course>
  <speed>0.0</speed>
  <fix>3d</fix>
</trkpt>
<trkpt lat="-27.274439" lon="151.290064">
  <ele>343.1</ele>
  <time>2026-09-01T19:55:07Z</time>
  <course>270.0</course>
  <speed>0.0</speed>
  <fix>3d</fix>
</trkpt>
<trkpt lat="-27.274439" lon="151.290064">
  <ele>342.87</ele>
  <time>2026-09-01T19:55:07Z</time>
  <course>11.12</course>
  <speed>0.0</speed>
  <fix>3d</fix>
</trkpt>
<trkpt lat="-27.274439" lon="151.290064">
  <ele>343.1</ele>
  <time>2026-09-01T19:55:07Z</time>
  <course>270.0</course>
  <speed>0.0</speed>
  <fix>3d</fix>
</trkpt>
<trkpt lat="-27.274439" lon="151.290064">
  <ele>342.76</ele>
  <time>2026-09-01T19:55:07Z</time>
  <course>11.12</course>
  <speed>0.0</speed>
  <fix>3d</fix>
</trkpt>
<trkpt lat="-27.274439" lon="151.290064">
  <ele>343.1</ele>
  <time>2026-09-01T19:55:07Z</time>
  <course>270.0</course>
  <speed>0.0</speed>
  <fix>3d</fix>
</trkpt>
<trkpt lat="-27.274439" lon="151.290064">
  <ele>343.01</ele>
  <time>2026-09-01T19:55:07Z</time>
  <course>11.12</course>
  <speed>0.0</speed>
  <fix>3d</fix>
</trkpt>
<trkpt lat="-27.274439" lon="151.290064">
  <ele>343.1</ele>
  <time>2026-09-01T19:55:07Z</time>
  <course>270.0</course>
  <speed>0.0</speed>
  <fix>3d</fix>
</trkpt>
<trkpt lat="-27.274439" lon="151.290064">
  <ele>343.08</ele>
  <time>2026-09-01T19:55:07Z</time>
  <course>11.11</course>
  <speed>0.0</speed>
  <fix>3d</fix>
</trkpt>
<trkpt lat="-27.274439" lon="151.290064">
  <ele>343.1</ele>
  <time>2026-09-01T19:55:07Z</time>
  <course>270.0</course>
  <speed>0.0</speed>
  <fix>3d</fix>
</trkpt>
<trkpt lat="-27.274439" lon="151.290064">
  <ele>342.82</ele>
  <time>2026-09-01T19:55:07Z</time>
  <course>11.11</course>
  <speed>0.0</speed>
  <fix>3d</fix>
</trkpt>
<trkpt lat="-27.274439" lon="151.290064">
  <ele>343.1</ele>
  <time>2026-09-01T19:55:07Z</time>
  <course>270.0</course>
  <speed>0.0</speed>
  <fix>3d</fix>
</trkpt>
<trkpt lat="-27.274439" lon="151.290064">
  <ele>343.12</ele>
  <time>2026-09-01T19:55:07Z</time>
  <course>11.1</course>
  <speed>0.0</speed>
  <fix>3d</fix>
</trkpt>
<trkpt lat="-27.274439" lon="151.290064">
  <ele>343.1</ele>
  <time>2026-09-01T19:55:07Z</time>
  <course>270.0</course>
  <speed>0.0</speed>
  <fix>3d</fix>
</trkpt>
<trkpt lat="-27.274439" lon="151.290064">
  <ele>342.85</ele>
  <time>2026-09-01T19:55:07Z</time>
  <course>11.1</course>
  <speed>0.0</speed>
  <fix>3d</fix>
</trkpt>
<trkpt lat="-27.274439" lon="151.290064">
  <ele>343.1</ele>
  <time>2026-09-01T19:55:07Z</time>
  <course>270.0</course>
  <speed>0.0</speed>
  <fix>3d</fix>
</trkpt>
<trkpt lat="-27.274439" lon="151.290064">
  <ele>343.01</ele>
  <time>2026-09-01T19:55:07Z</time>
  <course>11.1</course>
  <speed>0.0</speed>
  <fix>3d</fix>
</trkpt>
<trkpt lat="-27.274439" lon="151.290064">
  <ele>343.1</ele>
  <time>2026-09-01T19:55:07Z</time>
  <course>270.0</course>
  <speed>0.0</speed>
  <fix>3d</fix>
</trkpt>
<trkpt lat="-27.274439" lon="151.290064">
  <ele>343.01</ele>
  <time>2026-09-01T19:55:07Z</time>
  <course>11.09</course>
  <speed>0.0</speed>
  <fix>3d</fix>
</trkpt>
<trkpt lat="-27.274439" lon="151.290064">
  <ele>343.1</ele>
  <time>2026-09-01T19:55:07Z</time>
  <course>270.0</course>
  <speed>0.0</speed>
  <fix>3d</fix>
</trkpt>
<trkpt lat="-27.274439" lon="151.290064">
  <ele>342.82</ele>
  <time>2026-09-01T19:55:07Z</time>
  <course>11.09</course>
  <speed>0.0</speed>
  <fix>3d</fix>
</trkpt>
<trkpt lat="-27.274439" lon="151.290064">
  <ele>343.1</ele>
  <time>2026-09-01T19:55:07Z</time>
  <course>270.0</course>
  <speed>0.0</speed>
  <fix>3d</fix>
</trkpt>
<trkpt lat="-27.274439" lon="151.290064">
  <ele>343.05</ele>
  <time>2026-09-01T19:55:07Z</time>
  <course>11.08</course>
  <speed>0.0</speed>
  <fix>3d</fix>
</trkpt>
<trkpt lat="-27.274439" lon="151.290064">
  <ele>343.1</ele>
  <time>2026-09-01T19:55:07Z</time>
  <course>270.0</course>
  <speed>0.0</speed>
  <fix>3d</fix>
</trkpt>
<trkpt lat="-27.274439" lon="151.290064">
  <ele>342.9</ele>
  <time>2026-09-01T19:55:07Z</time>
  <course>11.08</course>
  <speed>0.0</speed>
  <fix>3d</fix>
</trkpt>
<trkpt lat="-27.274439" lon="151.290064">
  <ele>343.1</ele>
  <time>2026-09-01T19:55:07Z</time>
  <course>270.0</course>
  <speed>0.0</speed>
  <fix>3d</fix>
</trkpt>
<trkpt lat="-27.274439" lon="151.290064">
  <ele>342.98</ele>
  <time>2026-09-01T19:55:07Z</time>
  <course>11.08</course>
  <speed>0.0</speed>
  <fix>3d</fix>
</trkpt>
<trkpt lat="-27.274439" lon="151.290064">
  <ele>343.1</ele>
  <time>2026-09-01T19:55:07Z</time>
  <course>270.0</course>
  <speed>0.0</speed>
  <fix>3d</fix>
</trkpt>
<trkpt lat="-27.274439" lon="151.290064">
  <ele>342.84</ele>
  <time>2026-09-01T19:55:07Z</time>
  <course>11.07</course>
  <speed>0.0</speed>
  <fix>3d</fix>
</trkpt>
<trkpt lat="-27.274439" lon="151.290064">
  <ele>343.1</ele>
  <time>2026-09-01T19:55:07Z</time>
  <course>270.0</course>
  <speed>0.0</speed>
  <fix>3d</fix>
</trkpt>
<trkpt lat="-27.274439" lon="151.290064">
  <ele>343.0</ele>
  <time>2026-09-01T19:55:07Z</time>
  <course>11.07</course>
  <speed>0.0</speed>
  <fix>3d</fix>
</trkpt>
<trkpt lat="-27.274439" lon="151.290064">
  <ele>343.1</ele>
  <time>2026-09-01T19:55:07Z</time>
  <course>270.0</course>
  <speed>0.0</speed>
  <fix>3d</fix>
</trkpt>
<trkpt lat="-27.274439" lon="151.290064">
  <ele>343.0</ele>
  <time>2026-09-01T19:55:07Z</time>
  <course>11.07</course>
  <speed>0.0</speed>
  <fix>3d</fix>
</trkpt>
<trkpt lat="-27.274439" lon="151.290064">
  <ele>343.1</ele>
  <time>2026-09-01T19:55:07Z</time>
  <course>270.0</course>
  <speed>0.0</speed>
  <fix>3d</fix>
</trkpt>
<trkpt lat="-27.274439" lon="151.290064">
  <ele>342.78</ele>
  <time>2026-09-01T19:55:07Z</time>
  <course>11.06</course>
  <speed>0.0</speed>
  <fix>3d</fix>
</trkpt>
<trkpt lat="-27.274439" lon="151.290064">
  <ele>343.1</ele>
  <time>2026-09-01T19:55:07Z</time>
  <course>270.0</course>
  <speed>0.0</speed>
  <fix>3d</fix>
</trkpt>
<trkpt lat="-27.274439" lon="151.290064">
  <ele>343.06</ele>
  <time>2026-09-01T19:55:07Z</time>
  <course>11.06</course>
  <speed>0.0</speed>
  <fix>3d</fix>
</trkpt>
<trkpt lat="-27.274439" lon="151.290064">
  <ele>343.1</ele>
  <time>2026-09-01T19:55:07Z</time>
  <course>270.0</course>
  <speed>0.0</speed>
  <fix>3d</fix>
</trkpt>
<trkpt lat="-27.274439" lon="151.290064">
  <ele>343.03</ele>
  <time>2026-09-01T19:55:07Z</time>
  <course>11.06</course>
  <speed>0.0</speed>
  <fix>3d</fix>
</trkpt>
<trkpt lat="-27.274439" lon="151.290064">
  <ele>343.1</ele>
  <time>2026-09-01T19:55:07Z</time>
  <course>270.0</course>
  <speed>0.0</speed>
  <fix>3d</fix>
</trkpt>
<trkpt lat="-27.274439" lon="151.290064">
  <ele>343.15</ele>
  <time>2026-09-01T19:55:07Z</time>
  <course>11.05</course>
  <speed>0.0</speed>
  <fix>3d</fix>
</trkpt>
<trkpt lat="-27.274439" lon="151.290064">
  <ele>343.1</ele>
  <time>2026-09-01T19:55:07Z</time>
  <course>270.0</course>
  <speed>0.0</speed>
  <fix>3d</fix>
</trkpt>
<trkpt lat="-27.274439" lon="151.290064">
  <ele>342.95</ele>
  <time>2026-09-01T19:55:07Z</time>
  <course>11.05</course>
  <speed>0.0</speed>
  <fix>3d</fix>
</trkpt>
<trkpt lat="-27.274439" lon="151.290064">
  <ele>343.1</ele>
  <time>2026-09-01T19:55:07Z</time>
  <course>270.0</course>
  <speed>0.0</speed>
  <fix>3d</fix>
</trkpt>
<trkpt lat="-27.274439" lon="151.290064">
  <ele>343.03</ele>
  <time>2026-09-01T19:55:07Z</time>
  <course>11.05</course>
  <speed>0.0</speed>
  <fix>3d</fix>
</trkpt>
<trkpt lat="-27.274439" lon="151.290064">
  <ele>343.1</ele>
  <time>2026-09-01T19:55:07Z</time>
  <course>270.0</course>
  <speed>0.0</speed>
  <fix>3d</fix>
</trkpt>
<trkpt lat="-27.274439" lon="151.290064">
  <ele>343.12</ele>
  <time>2026-09-01T19:55:07Z</time>
  <course>11.04</course>
  <speed>0.0</speed>
  <fix>3d</fix>
</trkpt>
<trkpt lat="-27.274439" lon="151.290064">
  <ele>343.1</ele>
  <time>2026-09-01T19:55:07Z</time>
  <course>270.0</course>
  <speed>0.0</speed>
  <fix>3d</fix>
</trkpt>
<trkpt lat="-27.274439" lon="151.290064">
  <ele>343.16</ele>
  <time>2026-09-01T19:55:07Z</time>
  <course>11.04</course>
  <speed>0.0</speed>
  <fix>3d</fix>
</trkpt>
<trkpt lat="-27.274439" lon="151.290064">
  <ele>343.1</ele>
  <time>2026-09-01T19:55:07Z</time>
  <course>270.0</course>
  <speed>0.0</speed>
  <fix>3d</fix>
</trkpt>
<trkpt lat="-27.274439" lon="151.290064">
  <ele>342.97</ele>
  <time>2026-09-01T19:55:07Z</time>
  <course>11.04</course>
  <speed>0.0</speed>
  <fix>3d</fix>
</trkpt>
<trkpt lat="-27.274439" lon="151.290064">
  <ele>343.1</ele>
  <time>2026-09-01T19:55:07Z</time>
  <course>270.0</course>
  <speed>0.0</speed>
  <fix>3d</fix>
</trkpt>
<trkpt lat="-27.274439" lon="151.290064">
  <ele>343.14</ele>
  <time>2026-09-01T19:55:07Z</time>
  <course>11.04</course>
  <speed>0.0</speed>
  <fix>3d</fix>
</trkpt>
<trkpt lat="-27.274439" lon="151.290064">
  <ele>343.1</ele>
  <time>2026-09-01T19:55:07Z</time>
  <course>270.0</course>
  <speed>0.0</speed>
  <fix>3d</fix>
</trkpt>
<trkpt lat="-27.274439" lon="151.290064">
  <ele>342.86</ele>
  <time>2026-09-01T19:55:07Z</time>
  <course>11.03</course>
  <speed>0.0</speed>
  <fix>3d</fix>
</trkpt>
<trkpt lat="-27.274439" lon="151.290064">
  <ele>343.1</ele>
  <time>2026-09-01T19:55:07Z</time>
  <course>270.0</course>
  <speed>0.0</speed>
  <fix>3d</fix>
</trkpt>
<trkpt lat="-27.274439" lon="151.290064">
  <ele>342.92</ele>
  <time>2026-09-01T19:55:07Z</time>
  <course>11.03</course>
  <speed>0.0</speed>
  <fix>3d</fix>
</trkpt>
<trkpt lat="-27.274439" lon="151.290064">
  <ele>343.1</ele>
  <time>2026-09-01T19:55:07Z</time>
  <course>270.0</course>
  <speed>0.0</speed>
  <fix>3d</fix>
</trkpt>
<trkpt lat="-27.274439" lon="151.290064">
  <ele>343.12</ele>
  <time>2026-09-01T19:55:07Z</time>
  <course>11.03</course>
  <speed>0.0</speed>
  <fix>3d</fix>
</trkpt>
<trkpt lat="-27.274439" lon="151.290064">
  <ele>343.1</ele>
  <time>2026-09-01T19:55:07Z</time>
  <course>270.0</course>
  <speed>0.0</speed>
  <fix>3d</fix>
</trkpt>
<trkpt lat="-27.274439" lon="151.290064">
  <ele>343.03</ele>
  <time>2026-09-01T19:55:07Z</time>
  <course>11.03</course>
  <speed>0.0</speed>
  <fix>3d</fix>
</trkpt>
<trkpt lat="-27.274439" lon="151.290064">
  <ele>343.1</ele>
  <time>2026-09-01T19:55:07Z</time>
  <course>270.0</course>
  <speed>0.0</speed>
  <fix>3d</fix>
</trkpt>
<trkpt lat="-27.274439" lon="151.290064">
  <ele>343.07</ele>
  <time>2026-09-01T19:55:07Z</time>
  <course>11.02</course>
  <speed>0.0</speed>
  <fix>3d</fix>
</trkpt>
<trkpt lat="-27.274439" lon="151.290064">
  <ele>343.1</ele>
  <time>2026-09-01T19:55:07Z</time>
  <course>270.0</course>
  <speed>0.0</speed>
  <fix>3d</fix>
</trkpt>
<trkpt lat="-27.274439" lon="151.290064">
  <ele>343.03</ele>
  <time>2026-09-01T19:55:07Z</time>
  <course>11.02</course>
  <speed>0.0</speed>
  <fix>3d</fix>
</trkpt>
<trkpt lat="-27.274439" lon="151.290064">
  <ele>343.1</ele>
  <time>2026-09-01T19:55:07Z</time>
  <course>270.0</course>
  <speed>0.0</speed>
  <fix>3d</fix>
</trkpt>
<trkpt lat="-27.274439" lon="151.290064">
  <ele>343.07</ele>
  <time>2026-09-01T19:55:07Z</time>
  <course>12.69</course>
  <speed>0.0</speed>
  <fix>3d</fix>
</trkpt>
<trkpt lat="-27.274439" lon="151.290064">
  <ele>343.1</ele>
  <time>2026-09-01T19:55:07Z</time>
  <course>270.0</course>
  <speed>0.0</speed>
  <fix>3d</fix>
</trkpt>
<trkpt lat="-27.274439" lon="151.290064">
  <ele>343.07</ele>
  <time>2026-09-01T19:55:07Z</time>
  <course>12.69</course>
  <speed>0.0</speed>
  <fix>3d</fix>
</trkpt>
<trkpt lat="-27.274439" lon="151.290064">
  <ele>343.1</ele>
  <time>2026-09-01T19:55:07Z</time>
  <course>270.0</course>
  <speed>0.0</speed>
  <fix>3d</fix>
</trkpt>
<trkpt lat="-27.274439" lon="151.290064">
  <ele>343.06</ele>
  <time>2026-09-01T19:55:07Z</time>
  <course>12.68</course>
  <speed>0.0</speed>
  <fix>3d</fix>
</trkpt>
<trkpt lat="-27.274439" lon="151.290064">
  <ele>343.1</ele>
  <time>2026-09-01T19:55:07Z</time>
  <course>270.0</course>
  <speed>0.0</speed>
  <fix>3d</fix>
</trkpt>
<trkpt lat="-27.274439" lon="151.290064">
  <ele>343.06</ele>
  <time>2026-09-01T19:55:07Z</time>
  <course>12.68</course>
  <speed>0.0</speed>
  <fix>3d</fix>
</trkpt>
<trkpt lat="-27.274439" lon="151.290064">
  <ele>343.1</ele>
  <time>2026-09-01T19:55:07Z</time>
  <course>270.0</course>
  <speed>0.0</speed>
  <fix>3d</fix>
</trkpt>
<trkpt lat="-27.274439" lon="151.290064">
  <ele>343.06</ele>
  <time>2026-09-01T19:55:07Z</time>
  <course>12.67</course>
  <speed>0.0</speed>
  <fix>3d</fix>
</trkpt>
<trkpt lat="-27.274439" lon="151.290064">
  <ele>343.1</ele>
  <time>2026-09-01T19:55:07Z</time>
  <course>270.0</course>
  <speed>0.0</speed>
  <fix>3d</fix>
</trkpt>
<trkpt lat="-27.274439" lon="151.290064">
  <ele>343.06</ele>
  <time>2026-09-01T19:55:07Z</time>
  <course>12.67</course>
  <speed>0.0</speed>
  <fix>3d</fix>
</trkpt>
<trkpt lat="-27.274439" lon="151.290064">
  <ele>343.1</ele>
  <time>2026-09-01T19:55:07Z</time>
  <course>270.0</course>
  <speed>0.0</speed>
  <fix>3d</fix>
</trkpt>
<trkpt lat="-27.274439" lon="151.290064">
  <ele>343.06</ele>
  <time>2026-09-01T19:55:07Z</time>
  <course>12.66</course>
  <speed>0.0</speed>
  <fix>3d</fix>
</trkpt>
<trkpt lat="-27.274439" lon="151.290064">
  <ele>343.1</ele>
  <time>2026-09-01T19:55:07Z</time>
  <course>270.0</course>
  <speed>0.0</speed>
  <fix>3d</fix>
</trkpt>
<trkpt lat="-27.274439" lon="151.290064">
  <ele>343.06</ele>
  <time>2026-09-01T19:55:07Z</time>
  <course>12.66</course>
  <speed>0.0</speed>
  <fix>3d</fix>
</trkpt>
<trkpt lat="-27.274439" lon="151.290064">
  <ele>343.1</ele>
  <time>2026-09-01T19:55:07Z</time>
  <course>270.0</course>
  <speed>0.0</speed>
  <fix>3d</fix>
</trkpt>
<trkpt lat="-27.274439" lon="151.290064">
  <ele>343.06</ele>
  <time>2026-09-01T19:55:07Z</time>
  <course>12.65</course>
  <speed>0.0</speed>
  <fix>3d</fix>
</trkpt>
<trkpt lat="-27.274439" lon="151.290064">
  <ele>343.1</ele>
  <time>2026-09-01T19:55:07Z</time>
  <course>270.0</course>
  <speed>0.0</speed>
  <fix>3d</fix>
</trkpt>
<trkpt lat="-27.274439" lon="151.290064">
  <ele>343.06</ele>
  <time>2026-09-01T19:55:07Z</time>
  <course>12.65</course>
  <speed>0.01</speed>
  <fix>3d</fix>
</trkpt>
<trkpt lat="-27.274439" lon="151.290064">
  <ele>343.1</ele>
  <time>2026-09-01T19:55:07Z</time>
  <course>270.0</course>
  <speed>0.0</speed>
  <fix>3d</fix>
</trkpt>
<trkpt lat="-27.274439" lon="151.290064">
  <ele>343.06</ele>
  <time>2026-09-01T19:55:07Z</time>
  <course>12.64</course>
  <speed>0.01</speed>
  <fix>3d</fix>
</trkpt>
<trkpt lat="-27.274439" lon="151.290064">
  <ele>343.1</ele>
  <time>2026-09-01T19:55:07Z</time>
  <course>270.0</course>
  <speed>0.0</speed>
  <fix>3d</fix>
</trkpt>
<trkpt lat="-27.274439" lon="151.290064">
  <ele>343.05</ele>
  <time>2026-09-01T19:55:07Z</time>
  <course>12.64</course>
  <speed>0.01</speed>
  <fix>3d</fix>
</trkpt>
<trkpt lat="-27.274439" lon="151.290064">
  <ele>343.1</ele>
  <time>2026-09-01T19:55:07Z</time>
  <course>270.0</course>
  <speed>0.0</speed>
  <fix>3d</fix>
</trkpt>
<trkpt lat="-27.274439" lon="151.290064">
  <ele>343.05</ele>
  <time>2026-09-01T19:55:07Z</time>
  <course>12.64</course>
  <speed>0.01</speed>
  <fix>3d</fix>
</trkpt>
<trkpt lat="-27.274439" lon="151.290064">
  <ele>343.1</ele>
  <time>2026-09-01T19:55:07Z</time>
  <course>270.0</course>
  <speed>0.0</speed>
  <fix>3d</fix>
</trkpt>
<trkpt lat="-27.274439" lon="151.290064">
  <ele>343.09</ele>
  <time>2026-09-01T19:55:07Z</time>
  <course>12.63</course>
  <speed>0.01</speed>
  <fix>3d</fix>
</trkpt>
<trkpt lat="-27.274439" lon="151.290064">
  <ele>343.1</ele>
  <time>2026-09-01T19:55:07Z</time>
  <course>270.0</course>
  <speed>0.0</speed>
  <fix>3d</fix>
</trkpt>
<trkpt lat="-27.274439" lon="151.290064">
  <ele>343.09</ele>
  <time>2026-09-01T19:55:07Z</time>
  <course>12.63</course>
  <speed>0.01</speed>
  <fix>3d</fix>
</trkpt>
<trkpt lat="-27.274439" lon="151.290064">
  <ele>343.1</ele>
  <time>2026-09-01T19:55:07Z</time>
  <course>270.0</course>
  <speed>0.0</speed>
  <fix>3d</fix>
</trkpt>
<trkpt lat="-27.274439" lon="151.290064">
  <ele>343.09</ele>
  <time>2026-09-01T19:55:07Z</time>
  <course>12.62</course>
  <speed>0.01414213562373095</speed>
  <fix>3d</fix>
</trkpt>
<trkpt lat="-27.274439" lon="151.290064">
  <ele>343.1</ele>
  <time>2026-09-01T19:55:07Z</time>
  <course>270.0</course>
  <speed>0.0</speed>
  <fix>3d</fix>
</trkpt>
<trkpt lat="-27.274439" lon="151.290064">
  <ele>343.1</ele>
  <time>2026-09-01T19:55:07Z</time>
  <course>12.62</course>
  <speed>0.01414213562373095</speed>
  <fix>3d</fix>
</trkpt>
<trkpt lat="-27.274439" lon="151.290064">
  <ele>343.1</ele>
  <time>2026-09-01T19:55:07Z</time>
  <course>143.0</course>
  <speed>0.0</speed>
  <fix>3d</fix>
</trkpt>
<trkpt lat="-27.274439" lon="151.290064">
  <ele>343.1</ele>
  <time>2026-09-01T19:55:07Z</time>
  <course>12.61</course>
  <speed>0.01414213562373095</speed>
  <fix>3d</fix>
</trkpt>
<trkpt lat="-27.274439" lon="151.290064">
  <ele>343.1</ele>
  <time>2026-09-01T19:55:07Z</time>
  <course>143.0</course>
  <speed>0.0</speed>
  <fix>3d</fix>
</trkpt>
<trkpt lat="-27.274439" lon="151.290064">
  <ele>343.1</ele>
  <time>2026-09-01T19:55:07Z</time>
  <course>12.61</course>
  <speed>0.01414213562373095</speed>
  <fix>3d</fix>
</trkpt>
<trkpt lat="-27.274439" lon="151.290064">
  <ele>343.1</ele>
  <time>2026-09-01T19:55:07Z</time>
  <course>141.41</course>
  <speed>0.0</speed>
  <fix>3d</fix>
</trkpt>
<trkpt lat="-27.274439" lon="151.290064">
  <ele>343.1</ele>
  <time>2026-09-01T19:55:07Z</time>
  <course>12.6</course>
  <speed>0.01414213562373095</speed>
  <fix>3d</fix>
</trkpt>
<trkpt lat="-27.274439" lon="151.290064">
  <ele>343.1</ele>
  <time>2026-09-01T19:55:07Z</time>
  <course>141.41</course>
  <speed>0.0</speed>
  <fix>3d</fix>
</trkpt>
<trkpt lat="-27.274439" lon="151.290064">
  <ele>343.1</ele>
  <time>2026-09-01T19:55:07Z</time>
  <course>12.6</course>
  <speed>0.01414213562373095</speed>
  <fix>3d</fix>
</trkpt>
<trkpt lat="-27.274439" lon="151.290064">
  <ele>343.1</ele>
  <time>2026-09-01T19:55:07Z</time>
  <course>140.93</course>
  <speed>0.0</speed>
  <fix>3d</fix>
</trkpt>
<trkpt lat="-27.274439" lon="151.290064">
  <ele>343.1</ele>
  <time>2026-09-01T19:55:07Z</time>
  <course>12.6</course>
  <speed>0.022360679774997897</speed>
  <fix>3d</fix>
</trkpt>
<trkpt lat="-27.274439" lon="151.290064">
  <ele>343.1</ele>
  <time>2026-09-01T19:55:07Z</time>
  <course>140.93</course>
  <speed>0.0</speed>
  <fix>3d</fix>
</trkpt>
<trkpt lat="-27.274439" lon="151.290064">
  <ele>343.1</ele>
  <time>2026-09-01T19:55:07Z</time>
  <course>12.6</course>
  <speed>0.022360679774997897</speed>
  <fix>3d</fix>
</trkpt>
<trkpt lat="-27.274439" lon="151.290064">
  <ele>343.1</ele>
  <time>2026-09-01T19:55:07Z</time>
  <course>12.59</course>
  <speed>0.01414213562373095</speed>
  <fix>3d</fix>
</trkpt>
<trkpt lat="-27.274439" lon="151.290064">
  <ele>343.1</ele>
  <time>2026-09-01T19:55:07Z</time>
  <course>319.46</course>
  <speed>0.0</speed>
  <fix>3d</fix>
</trkpt>
<trkpt lat="-27.274439" lon="151.290064">
  <ele>343.1</ele>
  <time>2026-09-01T19:55:07Z</time>
  <course>12.59</course>
  <speed>0.022360679774997897</speed>
  <fix>3d</fix>
</trkpt>
<trkpt lat="-27.274439" lon="151.290064">
  <ele>343.1</ele>
  <time>2026-09-01T19:55:07Z</time>
  <course>12.59</course>
  <speed>0.022360679774997897</speed>
  <fix>3d</fix>
</trkpt>
<trkpt lat="-27.274439" lon="151.290064">
  <ele>343.1</ele>
  <time>2026-09-01T19:55:07Z</time>
  <course>319.46</course>
  <speed>0.0</speed>
  <fix>3d</fix>
</trkpt>
<trkpt lat="-27.274439" lon="151.290064">
  <ele>343.1</ele>
  <time>2026-09-01T19:55:07Z</time>
  <course>12.59</course>
  <speed>0.022360679774997897</speed>
  <fix>3d</fix>
</trkpt>
<trkpt lat="-27.274439" lon="151.290064">
  <ele>343.1</ele>
  <time>2026-09-01T19:55:07Z</time>
  <course>12.58</course>
  <speed>0.01414213562373095</speed>
  <fix>3d</fix>
</trkpt>
<trkpt lat="-27.274439" lon="151.290064">
  <ele>343.1</ele>
  <time>2026-09-01T19:55:07Z</time>
  <course>320.81</course>
  <speed>0.0</speed>
  <fix>3d</fix>
</trkpt>
<trkpt lat="-27.274439" lon="151.290064">
  <ele>343.1</ele>
  <time>2026-09-01T19:55:07Z</time>
  <course>12.58</course>
  <speed>0.01414213562373095</speed>
  <fix>3d</fix>
</trkpt>
<trkpt lat="-27.274439" lon="151.290064">
  <ele>343.11</ele>
  <time>2026-09-01T19:55:07Z</time>
  <course>12.58</course>
  <speed>0.01414213562373095</speed>
  <fix>3d</fix>
</trkpt>
<trkpt lat="-27.274439" lon="151.290064">
  <ele>343.1</ele>
  <time>2026-09-01T19:55:07Z</time>
  <course>320.81</course>
  <speed>0.0</speed>
  <fix>3d</fix>
</trkpt>
<trkpt lat="-27.274439" lon="151.290064">
  <ele>343.12</ele>
  <time>2026-09-01T19:55:07Z</time>
  <course>12.58</course>
  <speed>0.01414213562373095</speed>
  <fix>3d</fix>
</trkpt>
<trkpt lat="-27.274439" lon="151.290064">
  <ele>343.15</ele>
  <time>2026-09-01T19:55:07Z</time>
  <course>12.57</course>
  <speed>0.01414213562373095</speed>
  <fix>3d</fix>
</trkpt>
<trkpt lat="-27.274439" lon="151.290064">
  <ele>343.1</ele>
  <time>2026-09-01T19:55:07Z</time>
  <course>7.15</course>
  <speed>0.0</speed>
  <fix>3d</fix>
</trkpt>
<trkpt lat="-27.274439" lon="151.290064">
  <ele>343.17</ele>
  <time>2026-09-01T19:55:07Z</time>
  <course>12.57</course>
  <speed>0.01414213562373095</speed>
  <fix>3d</fix>
</trkpt>
<trkpt lat="-27.274439" lon="151.290064">
  <ele>343.21</ele>
  <time>2026-09-01T19:55:07Z</time>
  <course>12.57</course>
  <speed>0.01414213562373095</speed>
  <fix>3d</fix>
</trkpt>
<trkpt lat="-27.274439" lon="151.290064">
  <ele>343.1</ele>
  <time>2026-09-01T19:55:07Z</time>
  <course>7.15</course>
  <speed>0.0</speed>
  <fix>3d</fix>
</trkpt>
<trkpt lat="-27.274439" lon="151.290064">
  <ele>343.22</ele>
  <time>2026-09-01T19:55:07Z</time>
  <course>12.57</course>
  <speed>0.01414213562373095</speed>
  <fix>3d</fix>
</trkpt>
<trkpt lat="-27.274439" lon="151.290064">
  <ele>343.28</ele>
  <time>2026-09-01T19:55:07Z</time>
  <course>12.58</course>
  <speed>0.01</speed>
  <fix>3d</fix>
</trkpt>
<trkpt lat="-27.274439" lon="151.290064">
  <ele>343.15</ele>
  <time>2026-09-01T19:55:07Z</time>
  <course>7.73</course>
  <speed>0.0</speed>
  <fix>3d</fix>
</trkpt>
<trkpt lat="-27.274439" lon="151.290064">
  <ele>343.33</ele>
  <time>2026-09-01T19:55:07Z</time>
  <course>12.59</course>
  <speed>0.01414213562373095</speed>
  <fix>3d</fix>
</trkpt>
<trkpt lat="-27.274439" lon="151.290064">
  <ele>343.43</ele>
  <time>2026-09-01T19:55:07Z</time>
  <course>12.61</course>
  <speed>0.0316227766016838</speed>
  <fix>3d</fix>
</trkpt>
<trkpt lat="-27.274439" lon="151.290064">
  <ele>343.15</ele>
  <time>2026-09-01T19:55:07Z</time>
  <course>7.73</course>
  <speed>0.0</speed>
  <fix>3d</fix>
</trkpt>
<trkpt lat="-27.274439" lon="151.290064">
  <ele>343.5</ele>
  <time>2026-09-01T19:55:07Z</time>
  <course>12.63</course>
  <speed>0.044721359549995794</speed>
  <fix>3d</fix>
</trkpt>
<trkpt lat="-27.274439" lon="151.290064">
  <ele>343.64</ele>
  <time>2026-09-01T19:55:07Z</time>
  <course>12.64</course>
  <speed>0.07280109889280519</speed>
  <fix>3d</fix>
</trkpt>
<trkpt lat="-27.274439" lon="151.290064">
  <ele>343.31</ele>
  <time>2026-09-01T19:55:07Z</time>
  <course>1.66</course>
  <speed>0.03</speed>
  <fix>3d</fix>
</trkpt>
<trkpt lat="-27.274439" lon="151.290064">
  <ele>343.71</ele>
  <time>2026-09-01T19:55:07Z</time>
  <course>12.65</course>
  <speed>0.09219544457292887</speed>
  <fix>3d</fix>
</trkpt>
<trkpt lat="-27.2744389" lon="151.290064">
  <ele>343.89</ele>
  <time>2026-09-01T19:55:07Z</time>
  <course>12.65</course>
  <speed>0.12369316876852982</speed>
  <fix>3d</fix>
</trkpt>
<trkpt lat="-27.274439" lon="151.290064">
  <ele>343.31</ele>
  <time>2026-09-01T19:55:07Z</time>
  <course>1.66</course>
  <speed>0.03</speed>
  <fix>3d</fix>
</trkpt>
<trkpt lat="-27.2744389" lon="151.290064">
  <ele>343.92</ele>
  <time>2026-09-01T19:55:07Z</time>
  <course>12.65</course>
  <speed>0.12369316876852982</speed>
  <fix>3d</fix>
</trkpt>
<trkpt lat="-27.2744388" lon="151.2900641">
  <ele>344.14</ele>
  <time>2026-09-01T19:55:07Z</time>
  <course>12.63</course>
  <speed>0.16278820596099705</speed>
  <fix>3d</fix>
</trkpt>
<trkpt lat="-27.2744389" lon="151.290064">
  <ele>343.65</ele>
  <time>2026-09-01T19:55:07Z</time>
  <course>2.07</course>
  <speed>0.09</speed>
  <fix>3d</fix>
</trkpt>
<trkpt lat="-27.2744388" lon="151.2900641">
  <ele>344.15</ele>
  <time>2026-09-01T19:55:07Z</time>
  <course>12.63</course>
  <speed>0.16278820596099705</speed>
  <fix>3d</fix>
</trkpt>
<trkpt lat="-27.2744386" lon="151.2900641">
  <ele>344.41</ele>
  <time>2026-09-01T19:55:07Z</time>
  <course>12.6</course>
  <speed>0.2039607805437114</speed>
  <fix>3d</fix>
</trkpt>
<trkpt lat="-27.2744389" lon="151.290064">
  <ele>343.65</ele>
  <time>2026-09-01T19:55:07Z</time>
  <course>2.07</course>
  <speed>0.09</speed>
  <fix>3d</fix>
</trkpt>
<trkpt lat="-27.2744386" lon="151.2900641">
  <ele>344.43</ele>
  <time>2026-09-01T19:55:07Z</time>
  <course>12.6</course>
  <speed>0.2039607805437114</speed>
  <fix>3d</fix>
</trkpt>
<trkpt lat="-27.2744384" lon="151.2900641">
  <ele>344.69</ele>
  <time>2026-09-01T19:55:07Z</time>
  <course>12.55</course>
  <speed>0.24331050121192876</speed>
  <fix>3d</fix>
</trkpt>
<trkpt lat="-27.2744387" lon="151.290064">
  <ele>344.15</ele>
  <time>2026-09-01T19:55:07Z</time>
  <course>3.03</course>
  <speed>0.18</speed>
  <fix>3d</fix>
</trkpt>
<trkpt lat="-27.2744383" lon="151.2900641">
  <ele>344.79</ele>
  <time>2026-09-01T19:55:07Z</time>
  <course>12.54</course>
  <speed>0.25317977802344327</speed>
  <fix>3d</fix>
</trkpt>
<trkpt lat="-27.2744381" lon="151.2900641">
  <ele>344.99</ele>
  <time>2026-09-01T19:55:07Z</time>
  <course>12.51</course>
  <speed>0.28442925306655786</speed>
  <fix>3d</fix>
</trkpt>
<trkpt lat="-27.2744387" lon="151.290064">
  <ele>344.15</ele>
  <time>2026-09-01T19:55:07Z</time>
  <course>3.03</course>
  <speed>0.18</speed>
  <fix>3d</fix>
</trkpt>
<trkpt lat="-27.2744381" lon="151.2900641">
  <ele>345.06</ele>
  <time>2026-09-01T19:55:07Z</time>
  <course>12.5</course>
  <speed>0.2942787793912432</speed>
  <fix>3d</fix>
</trkpt>
<trkpt lat="-27.2744379" lon="151.2900642">
  <ele>345.29</ele>
  <time>2026-09-01T19:55:07Z</time>
  <course>10.5</course>
  <speed>0.31400636936215165</speed>
  <fix>3d</fix>
</trkpt>
<trkpt lat="-27.2744383" lon="151.290064">
  <ele>344.71</ele>
  <time>2026-09-01T19:55:07Z</time>
  <course>3.9</course>
  <speed>0.26</speed>
  <fix>3d</fix>
</trkpt>
<trkpt lat="-27.2744378" lon="151.2900642">
  <ele>345.39</ele>
  <time>2026-09-01T19:55:07Z</time>
  <course>10.5</course>
  <speed>0.3238826948140329</speed>
  <fix>3d</fix>
</trkpt>
<trkpt lat="-27.2744375" lon="151.2900642">
  <ele>345.61</ele>
  <time>2026-09-01T19:55:07Z</time>
  <course>10.49</course>
  <speed>0.34525353003264136</speed>
  <fix>3d</fix>
</trkpt>
<trkpt lat="-27.2744383" lon="151.290064">
  <ele>344.71</ele>
  <time>2026-09-01T19:55:07Z</time>
  <course>3.9</course>
  <speed>0.26</speed>
  <fix>3d</fix>
</trkpt>
<trkpt lat="-27.2744374" lon="151.2900642">
  <ele>345.72</ele>
  <time>2026-09-01T19:55:07Z</time>
  <course>10.49</course>
  <speed>0.3649657518178932</speed>
  <fix>3d</fix>
</trkpt>
<trkpt lat="-27.2744372" lon="151.2900642">
  <ele>345.92</ele>
  <time>2026-09-01T19:55:07Z</time>
  <course>10.49</course>
  <speed>0.37483329627982626</speed>
  <fix>3d</fix>
</trkpt>
<trkpt lat="-27.2744378" lon="151.290064">
  <ele>345.31</ele>
  <time>2026-09-01T19:55:07Z</time>
  <course>4.66</course>
  <speed>0.33</speed>
  <fix>3d</fix>
</trkpt>
<trkpt lat="-27.2744371" lon="151.2900642">
  <ele>346.01</ele>
  <time>2026-09-01T19:55:07Z</time>
  <course>10.49</course>
  <speed>0.38470768123342686</speed>
  <fix>3d</fix>
</trkpt>
<trkpt lat="-27.2744369" lon="151.2900642">
  <ele>346.24</ele>
  <time>2026-09-01T19:55:07Z</time>
  <course>10.5</course>
  <speed>0.3945883931389772</speed>
  <fix>3d</fix>
</trkpt>
<trkpt lat="-27.2744378" lon="151.290064">
  <ele>345.31</ele>
  <time>2026-09-01T19:55:07Z</time>
  <course>4.66</course>
  <speed>0.33</speed>
  <fix>3d</fix>
</trkpt>
<trkpt lat="-27.2744368" lon="151.2900643">
  <ele>346.33</ele>
  <time>2026-09-01T19:55:07Z</time>
  <course>10.5</course>
  <speed>0.4044749683231337</speed>
  <fix>3d</fix>
</trkpt>
<trkpt lat="-27.2744365" lon="151.2900643">
  <ele>346.56</ele>
  <time>2026-09-01T19:55:07Z</time>
  <course>10.5</course>
  <speed>0.4143669871020132</speed>
  <fix>3d</fix>
</trkpt>
<trkpt lat="-27.2744371" lon="151.2900641">
  <ele>345.94</ele>
  <time>2026-09-01T19:55:07Z</time>
  <course>5.2</course>
  <speed>0.39</speed>
  <fix>3d</fix>
</trkpt>
<trkpt lat="-27.2744364" lon="151.2900643">
  <ele>346.64</ele>
  <time>2026-09-01T19:55:07Z</time>
  <course>10.51</course>
  <speed>0.4143669871020132</speed>
  <fix>3d</fix>
</trkpt>
<trkpt lat="-27.2744361" lon="151.2900643">
  <ele>346.87</ele>
  <time>2026-09-01T19:55:07Z</time>
  <course>10.51</course>
  <speed>0.4242640687119285</speed>
  <fix>3d</fix>
</trkpt>
<trkpt lat="-27.2744371" lon="151.2900641">
  <ele>345.94</ele>
  <time>2026-09-01T19:55:07Z</time>
  <course>5.2</course>
  <speed>0.39</speed>
  <fix>3d</fix>
</trkpt>
<trkpt lat="-27.274436" lon="151.2900643">
  <ele>346.95</ele>
  <time>2026-09-01T19:55:07Z</time>
  <course>10.52</course>
  <speed>0.4242640687119285</speed>
  <fix>3d</fix>
</trkpt>
<trkpt lat="-27.2744357" lon="151.2900643">
  <ele>347.18</ele>
  <time>2026-09-01T19:55:07Z</time>
  <course>10.52</course>
  <speed>0.4341658669218482</speed>
  <fix>3d</fix>
</trkpt>
<trkpt lat="-27.2744364" lon="151.2900641">
  <ele>346.57</ele>
  <time>2026-09-01T19:55:07Z</time>
  <course>5.59</course>
  <speed>0.43</speed>
  <fix>3d</fix>
</trkpt>
<trkpt lat="-27.2744356" lon="151.2900644">
  <ele>347.27</ele>
  <time>2026-09-01T19:55:07Z</time>
  <course>10.52</course>
  <speed>0.4341658669218482</speed>
  <fix>3d</fix>
</trkpt>
<trkpt lat="-27.2744353" lon="151.2900644">
  <ele>347.49</ele>
  <time>2026-09-01T19:55:07Z</time>
  <course>10.53</course>
  <speed>0.4242640687119285</speed>
  <fix>3d</fix>
</trkpt>
<trkpt lat="-27.2744364" lon="151.2900641">
  <ele>346.57</ele>
  <time>2026-09-01T19:55:07Z</time>
  <course>5.59</course>
  <speed>0.43</speed>
  <fix>3d</fix>
</trkpt>
<trkpt lat="-27.2744353" lon="151.2900644">
  <ele>347.49</ele>
  <time>2026-09-01T19:55:07Z</time>
  <course>10.53</course>
  <speed>0.4242640687119285</speed>
  <fix>3d</fix>
</trkpt>
<trkpt lat="-27.2744349" lon="151.2900644">
  <ele>347.79</ele>
  <time>2026-09-01T19:55:07Z</time>
  <course>10.53</course>
  <speed>0.422965719651132</speed>
  <fix>3d</fix>
</trkpt>
<trkpt lat="-27.2744355" lon="151.2900642">
  <ele>347.2</ele>
  <time>2026-09-01T19:55:07Z</time>
  <course>5.95</course>
  <speed>0.45</speed>
  <fix>3d</fix>
</trkpt>
<trkpt lat="-27.2744349" lon="151.2900644">
  <ele>347.8</ele>
  <time>2026-09-01T19:55:07Z</time>
  <course>10.53</course>
  <speed>0.422965719651132</speed>
  <fix>3d</fix>
</trkpt>
<trkpt lat="-27.2744345" lon="151.2900644">
  <ele>348.08</ele>
  <time>2026-09-01T19:55:07Z</time>
  <course>10.55</course>
  <speed>0.41303752856126763</speed>
  <fix>3d</fix>
</trkpt>
<trkpt lat="-27.2744355" lon="151.2900642">
  <ele>347.2</ele>
  <time>2026-09-01T19:55:07Z</time>
  <course>5.95</course>
  <speed>0.45</speed>
  <fix>3d</fix>
</trkpt>
<trkpt lat="-27.2744345" lon="151.2900644">
  <ele>348.09</ele>
  <time>2026-09-01T19:55:07Z</time>
  <course>10.55</course>
  <speed>0.41303752856126763</speed>
  <fix>3d</fix>
</trkpt>
<trkpt lat="-27.2744342" lon="151.2900645">
  <ele>348.37</ele>
  <time>2026-09-01T19:55:07Z</time>
  <course>10.56</course>
  <speed>0.39319206502675</speed>
  <fix>3d</fix>
</trkpt>
<trkpt lat="-27.2744348" lon="151.2900643">
  <ele>347.8</ele>
  <time>2026-09-01T19:55:07Z</time>
  <course>6.35</course>
  <speed>0.44</speed>
  <fix>3d</fix>
</trkpt>
<trkpt lat="-27.2744341" lon="151.2900645">
  <ele>348.38</ele>
  <time>2026-09-01T19:55:07Z</time>
  <course>10.56</course>
  <speed>0.39319206502675</speed>
  <fix>3d</fix>
</trkpt>
<trkpt lat="-27.2744338" lon="151.2900645">
  <ele>348.65</ele>
  <time>2026-09-01T19:55:07Z</time>
  <course>10.58</course>
  <speed>0.3721558813185679</speed>
  <fix>3d</fix>
</trkpt>
<trkpt lat="-27.2744348" lon="151.2900643">
  <ele>347.8</ele>
  <time>2026-09-01T19:55:07Z</time>
  <course>6.35</course>
  <speed>0.44</speed>
  <fix>3d</fix>
</trkpt>
<trkpt lat="-27.2744337" lon="151.2900645">
  <ele>348.72</ele>
  <time>2026-09-01T19:55:07Z</time>
  <course>10.58</course>
  <speed>0.3721558813185679</speed>
  <fix>3d</fix>
</trkpt>
<trkpt lat="-27.2744334" lon="151.2900645">
  <ele>348.92</ele>
  <time>2026-09-01T19:55:07Z</time>
  <course>10.59</course>
  <speed>0.3522782990761707</speed>
  <fix>3d</fix>
</trkpt>
<trkpt lat="-27.274434" lon="151.2900644">
  <ele>348.38</ele>
  <time>2026-09-01T19:55:07Z</time>
  <course>6.87</course>
  <speed>0.41</speed>
  <fix>3d</fix>
</trkpt>
<trkpt lat="-27.2744333" lon="151.2900645">
  <ele>349.0</ele>
  <time>2026-09-01T19:55:07Z</time>
  <course>10.6</course>
  <speed>0.3423448553724738</speed>
  <fix>3d</fix>
</trkpt>
<trkpt lat="-27.2744331" lon="151.2900646">
  <ele>349.19</ele>
  <time>2026-09-01T19:55:07Z</time>
  <course>10.62</course>
  <speed>0.32249030993194194</speed>
  <fix>3d</fix>
</trkpt>
<trkpt lat="-27.274434" lon="151.2900644">
  <ele>348.38</ele>
  <time>2026-09-01T19:55:07Z</time>
  <course>6.87</course>
  <speed>0.41</speed>
  <fix>3d</fix>
</trkpt>
<trkpt lat="-27.274433" lon="151.2900646">
  <ele>349.28</ele>
  <time>2026-09-01T19:55:07Z</time>
  <course>10.62</course>
  <speed>0.3125699921617557</speed>
  <fix>3d</fix>
</trkpt>
<trkpt lat="-27.2744328" lon="151.2900646">
  <ele>349.45</ele>
  <time>2026-09-01T19:55:07Z</time>
  <course>10.64</course>
  <speed>0.291547594742265</speed>
  <fix>3d</fix>
</trkpt>
<trkpt lat="-27.2744333" lon="151.2900645">
  <ele>348.92</ele>
  <time>2026-09-01T19:55:07Z</time>
  <course>7.56</course>
  <speed>0.37</speed>
  <fix>3d</fix>
</trkpt>
<trkpt lat="-27.2744327" lon="151.2900646">
  <ele>349.54</ele>
  <time>2026-09-01T19:55:07Z</time>
  <course>10.64</course>
  <speed>0.2816025568065745</speed>
  <fix>3d</fix>
</trkpt>
<trkpt lat="-27.2744326" lon="151.2900646">
  <ele>349.7</ele>
  <time>2026-09-01T19:55:07Z</time>
  <course>10.66</course>
  <speed>0.261725046566048</speed>
  <fix>3d</fix>
</trkpt>
<trkpt lat="-27.2744333" lon="151.2900645">
  <ele>348.92</ele>
  <time>2026-09-01T19:55:07Z</time>
  <course>7.56</course>
  <speed>0.37</speed>
  <fix>3d</fix>
</trkpt>
<trkpt lat="-27.2744325" lon="151.2900646">
  <ele>349.77</ele>
  <time>2026-09-01T19:55:07Z</time>
  <course>10.66</course>
  <speed>0.25179356624028343</speed>
  <fix>3d</fix>
</trkpt>
<trkpt lat="-27.2744323" lon="151.2900646">
  <ele>349.96</ele>
  <time>2026-09-01T19:55:07Z</time>
  <course>10.68</course>
  <speed>0.2308679276123039</speed>
  <fix>3d</fix>
</trkpt>
<trkpt lat="-27.2744327" lon="151.2900646">
  <ele>349.44</ele>
  <time>2026-09-01T19:55:07Z</time>
  <course>8.6</course>
  <speed>0.31</speed>
  <fix>3d</fix>
</trkpt>
<trkpt lat="-27.2744323" lon="151.2900646">
  <ele>350.03</ele>
  <time>2026-09-01T19:55:07Z</time>
  <course>10.68</course>
  <speed>0.22090722034374521</speed>
  <fix>3d</fix>
</trkpt>
<trkpt lat="-27.2744321" lon="151.2900647">
  <ele>350.2</ele>
  <time>2026-09-01T19:55:07Z</time>
  <course>10.7</course>
  <speed>0.191049731745428</speed>
  <fix>3d</fix>
</trkpt>
<trkpt lat="-27.2744327" lon="151.2900646">
  <ele>349.44</ele>
  <time>2026-09-01T19:55:07Z</time>
  <course>8.6</course>
  <speed>0.31</speed>
  <fix>3d</fix>
</trkpt>
<trkpt lat="-27.2744321" lon="151.2900647">
  <ele>350.21</ele>
  <time>2026-09-01T19:55:07Z</time>
  <course>10.7</course>
  <speed>0.191049731745428</speed>
  <fix>3d</fix>
</trkpt>
<trkpt lat="-27.2744319" lon="151.2900647">
  <ele>350.45</ele>
  <time>2026-09-01T19:55:07Z</time>
  <course>10.72</course>
  <speed>0.16124515496597097</speed>
  <fix>3d</fix>
</trkpt>
<trkpt lat="-27.2744322" lon="151.2900647">
  <ele>349.95</ele>
  <time>2026-09-01T19:55:07Z</time>
  <course>10.21</course>
  <speed>0.25</speed>
  <fix>3d</fix>
</trkpt>
<trkpt lat="-27.2744319" lon="151.2900647">
  <ele>350.47</ele>
  <time>2026-09-01T19:55:07Z</time>
  <course>10.72</course>
  <speed>0.15132745950421556</speed>
  <fix>3d</fix>
</trkpt>
<trkpt lat="-27.2744318" lon="151.2900647">
  <ele>350.7</ele>
  <time>2026-09-01T19:55:07Z</time>
  <course>10.74</course>
  <speed>0.12041594578792296</speed>
  <fix>3d</fix>
</trkpt>
<trkpt lat="-27.2744322" lon="151.2900647">
  <ele>349.95</ele>
  <time>2026-09-01T19:55:07Z</time>
  <course>10.21</course>
  <speed>0.25</speed>
  <fix>3d</fix>
</trkpt>
<trkpt lat="-27.2744318" lon="151.2900647">
  <ele>350.77</ele>
  <time>2026-09-01T19:55:07Z</time>
  <course>10.75</course>
  <speed>0.11045361017187261</speed>
  <fix>3d</fix>
</trkpt>
<trkpt lat="-27.2744317" lon="151.2900647">
  <ele>350.94</ele>
  <time>2026-09-01T19:55:07Z</time>
  <course>10.76</course>
  <speed>0.09055385138137417</speed>
  <fix>3d</fix>
</trkpt>
<trkpt lat="-27.2744318" lon="151.2900648">
  <ele>350.44</ele>
  <time>2026-09-01T19:55:07Z</time>
  <course>12.96</course>
  <speed>0.17</speed>
  <fix>3d</fix>
</trkpt>
<trkpt lat="-27.2744317" lon="151.2900647">
  <ele>351.01</ele>
  <time>2026-09-01T19:55:07Z</time>
  <course>10.77</course>
  <speed>0.08062257748298549</speed>
  <fix>3d</fix>
</trkpt>
<trkpt lat="-27.2744316" lon="151.2900648">
  <ele>351.18</ele>
  <time>2026-09-01T19:55:07Z</time>
  <course>10.79</course>
  <speed>0.05</speed>
  <fix>3d</fix>
</trkpt>
<trkpt lat="-27.2744318" lon="151.2900648">
  <ele>350.44</ele>
  <time>2026-09-01T19:55:07Z</time>
  <course>12.96</course>
  <speed>0.17</speed>
  <fix>3d</fix>
</trkpt>
<trkpt lat="-27.2744316" lon="151.2900648">
  <ele>351.25</ele>
  <time>2026-09-01T19:55:07Z</time>
  <course>10.79</course>
  <speed>0.04</speed>
  <fix>3d</fix>
</trkpt>
<trkpt lat="-27.2744316" lon="151.2900648">
  <ele>351.42</ele>
  <time>2026-09-01T19:55:07Z</time>
  <course>10.81</course>
  <speed>0.02</speed>
  <fix>3d</fix>
</trkpt>
<trkpt lat="-27.2744316" lon="151.2900649">
  <ele>350.91</ele>
  <time>2026-09-01T19:55:07Z</time>
  <course>18.96</course>
  <speed>0.1</speed>
  <fix>3d</fix>
</trkpt>
<trkpt lat="-27.2744316" lon="151.2900648">
  <ele>351.49</ele>
  <time>2026-09-01T19:55:07Z</time>
  <course>10.82</course>
  <speed>0.01</speed>
  <fix>3d</fix>
</trkpt>
<trkpt lat="-27.2744316" lon="151.2900649">
  <ele>351.66</ele>
  <time>2026-09-01T19:55:07Z</time>
  <course>10.85</course>
  <speed>0.0</speed>
  <fix>3d</fix>
</trkpt>
<trkpt lat="-27.2744316" lon="151.2900649">
  <ele>350.91</ele>
  <time>2026-09-01T19:55:07Z</time>
  <course>18.96</course>
  <speed>0.1</speed>
  <fix>3d</fix>
</trkpt>
<trkpt lat="-27.2744316" lon="151.2900649">
  <ele>351.72</ele>
  <time>2026-09-01T19:55:07Z</time>
  <course>10.86</course>
  <speed>0.01</speed>
  <fix>3d</fix>
</trkpt>
<trkpt lat="-27.2744316" lon="151.2900649">
  <ele>351.9</ele>
  <time>2026-09-01T19:55:07Z</time>
  <course>10.89</course>
  <speed>0.03</speed>
  <fix>3d</fix>
</trkpt>
<trkpt lat="-27.2744314" lon="151.290065">
  <ele>351.38</ele>
  <time>2026-09-01T19:55:07Z</time>
  <course>41.37</course>
  <speed>0.04</speed>
  <fix>3d</fix>
</trkpt>
<trkpt lat="-27.2744316" lon="151.2900649">
  <ele>351.91</ele>
  <time>2026-09-01T19:55:07Z</time>
  <course>10.89</course>
  <speed>0.03</speed>
  <fix>3d</fix>
</trkpt>
<trkpt lat="-27.2744316" lon="151.2900649">
  <ele>352.14</ele>
  <time>2026-09-01T19:55:07Z</time>
  <course>10.94</course>
  <speed>0.06</speed>
  <fix>3d</fix>
</trkpt>
<trkpt lat="-27.2744314" lon="151.290065">
  <ele>351.38</ele>
  <time>2026-09-01T19:55:07Z</time>
  <course>41.37</course>
  <speed>0.04</speed>
  <fix>3d</fix>
</trkpt>
<trkpt lat="-27.2744316" lon="151.2900649">
  <ele>352.2</ele>
  <time>2026-09-01T19:55:07Z</time>
  <course>10.95</course>
  <speed>0.07</speed>
  <fix>3d</fix>
</trkpt>
<trkpt lat="-27.2744316" lon="151.2900649">
  <ele>352.38</ele>
  <time>2026-09-01T19:55:07Z</time>
  <course>11.0</course>
  <speed>0.08062257748298549</speed>
  <fix>3d</fix>
</trkpt>
<trkpt lat="-27.2744314" lon="151.290065">
  <ele>351.86</ele>
  <time>2026-09-01T19:55:07Z</time>
  <course>145.27</course>
  <speed>0.03</speed>
  <fix>3d</fix>
</trkpt>
<trkpt lat="-27.2744316" lon="151.2900649">
  <ele>352.62</ele>
  <time>2026-09-01T19:55:07Z</time>
  <course>11.06</course>
  <speed>0.11045361017187261</speed>
  <fix>3d</fix>
</trkpt>
<trkpt lat="-27.2744314" lon="151.290065">
  <ele>351.86</ele>
  <time>2026-09-01T19:55:07Z</time>
  <course>145.27</course>
  <speed>0.03</speed>
  <fix>3d</fix>
</trkpt>
<trkpt lat="-27.2744317" lon="151.2900649">
  <ele>352.86</ele>
  <time>2026-09-01T19:55:07Z</time>
  <course>11.13</course>
  <speed>0.12041594578792296</speed>
  <fix>3d</fix>
</trkpt>
<trkpt lat="-27.2744314" lon="151.2900651">
  <ele>352.34</ele>
  <time>2026-09-01T19:55:07Z</time>
  <course>172.45</course>
  <speed>0.08</speed>
  <fix>3d</fix>
</trkpt>
<trkpt lat="-27.2744318" lon="151.2900649">
  <ele>353.1</ele>
  <time>2026-09-01T19:55:07Z</time>
  <course>11.2</course>
  <speed>0.1414213562373095</speed>
  <fix>3d</fix>
</trkpt>
<trkpt lat="-27.2744314" lon="151.2900651">
  <ele>352.34</ele>
  <time>2026-09-01T19:55:07Z</time>
  <course>172.45</course>
  <speed>0.08</speed>
  <fix>3d</fix>
</trkpt>
<trkpt lat="-27.2744319" lon="151.2900649">
  <ele>353.35</ele>
  <time>2026-09-01T19:55:07Z</time>
  <course>11.26</course>
  <speed>0.16124515496597097</speed>
  <fix>3d</fix>
</trkpt>
<trkpt lat="-27.2744316" lon="151.2900651">
  <ele>352.82</ele>
  <time>2026-09-01T19:55:07Z</time>
  <course>180.05</course>
  <speed>0.12</speed>
  <fix>3d</fix>
</trkpt>
<trkpt lat="-27.2744321" lon="151.2900649">
  <ele>353.6</ele>
  <time>2026-09-01T19:55:07Z</time>
  <course>11.31</course>
  <speed>0.17262676501632068</speed>
  <fix>3d</fix>
</trkpt>
<trkpt lat="-27.2744316" lon="151.2900651">
  <ele>352.82</ele>
  <time>2026-09-01T19:55:07Z</time>
  <course>180.05</course>
  <speed>0.12</speed>
  <fix>3d</fix>
</trkpt>
<trkpt lat="-27.2744322" lon="151.2900649">
  <ele>353.84</ele>
  <time>2026-09-01T19:55:07Z</time>
  <course>11.32</course>
  <speed>0.1824828759089466</speed>
  <fix>3d</fix>
</trkpt>
<trkpt lat="-27.2744318" lon="151.290065">
  <ele>353.3</ele>
  <time>2026-09-01T19:55:07Z</time>
  <course>183.99</course>
  <speed>0.16</speed>
  <fix>3d</fix>
</trkpt>
<trkpt lat="-27.2744324" lon="151.2900649">
  <ele>354.09</ele>
  <time>2026-09-01T19:55:07Z</time>
  <course>11.27</course>
  <speed>0.1824828759089466</speed>
  <fix>3d</fix>
</trkpt>
<trkpt lat="-27.2744318" lon="151.290065">
  <ele>353.3</ele>
  <time>2026-09-01T19:55:07Z</time>
  <course>183.99</course>
  <speed>0.16</speed>
  <fix>3d</fix>
</trkpt>
<trkpt lat="-27.2744325" lon="151.2900649">
  <ele>354.32</ele>
  <time>2026-09-01T19:55:07Z</time>
  <course>11.21</course>
  <speed>0.19235384061671343</speed>
  <fix>3d</fix>
</trkpt>
<trkpt lat="-27.2744322" lon="151.290065">
  <ele>353.78</ele>
  <time>2026-09-01T19:55:07Z</time>
  <course>185.43</course>
  <speed>0.18</speed>
  <fix>3d</fix>
</trkpt>
<trkpt lat="-27.2744327" lon="151.2900649">
  <ele>354.54</ele>
  <time>2026-09-01T19:55:07Z</time>
  <course>11.14</course>
  <speed>0.20223748416156684</speed>
  <fix>3d</fix>
</trkpt>
<trkpt lat="-27.2744322" lon="151.290065">
  <ele>353.78</ele>
  <time>2026-09-01T19:55:07Z</time>
  <course>185.43</course>
  <speed>0.18</speed>
  <fix>3d</fix>
</trkpt>
<trkpt lat="-27.2744329" lon="151.2900649">
  <ele>354.73</ele>
  <time>2026-09-01T19:55:07Z</time>
  <course>11.09</course>
  <speed>0.21213203435596426</speed>
  <fix>3d</fix>
</trkpt>
<trkpt lat="-27.2744325" lon="151.290065">
  <ele>354.25</ele>
  <time>2026-09-01T19:55:07Z</time>
  <course>185.79</course>
  <speed>0.2</speed>
  <fix>3d</fix>
</trkpt>
<trkpt lat="-27.2744331" lon="151.2900649">
  <ele>354.91</ele>
  <time>2026-09-01T19:55:07Z</time>
  <course>11.06</course>
  <speed>0.223606797749979</speed>
  <fix>3d</fix>
</trkpt>
<trkpt lat="-27.2744325" lon="151.290065">
  <ele>354.25</ele>
  <time>2026-09-01T19:55:07Z</time>
  <course>185.79</course>
  <speed>0.2</speed>
  <fix>3d</fix>
</trkpt>
<trkpt lat="-27.2744333" lon="151.2900648">
  <ele>355.06</ele>
  <time>2026-09-01T19:55:07Z</time>
  <course>11.04</course>
  <speed>0.23345235059857505</speed>
  <fix>3d</fix>
</trkpt>
<trkpt lat="-27.2744329" lon="151.290065">
  <ele>354.66</ele>
  <time>2026-09-01T19:55:07Z</time>
  <course>186.47</course>
  <speed>0.22</speed>
  <fix>3d</fix>
</trkpt>
<trkpt lat="-27.2744335" lon="151.2900648">
  <ele>355.17</ele>
  <time>2026-09-01T19:55:07Z</time>
  <course>11.04</course>
  <speed>0.25317977802344327</speed>
  <fix>3d</fix>
</trkpt>
<trkpt lat="-27.2744329" lon="151.290065">
  <ele>354.66</ele>
  <time>2026-09-01T19:55:07Z</time>
  <course>186.47</course>
  <speed>0.22</speed>
  <fix>3d</fix>
</trkpt>
<trkpt lat="-27.2744337" lon="151.2900648">
  <ele>355.26</ele>
  <time>2026-09-01T19:55:07Z</time>
  <course>11.03</course>
  <speed>0.27294688127912364</speed>
  <fix>3d</fix>
</trkpt>
<trkpt lat="-27.2744333" lon="151.290065">
  <ele>354.98</ele>
  <time>2026-09-01T19:55:07Z</time>
  <course>187.22</course>
  <speed>0.24</speed>
  <fix>3d</fix>
</trkpt>
<trkpt lat="-27.274434" lon="151.2900648">
  <ele>355.32</ele>
  <time>2026-09-01T19:55:07Z</time>
  <course>11.03</course>
  <speed>0.304138126514911</speed>
  <fix>3d</fix>
</trkpt>
<trkpt lat="-27.2744333" lon="151.290065">
  <ele>354.98</ele>
  <time>2026-09-01T19:55:07Z</time>
  <course>187.22</course>
  <speed>0.24</speed>
  <fix>3d</fix>
</trkpt>
<trkpt lat="-27.2744343" lon="151.2900647">
  <ele>355.34</ele>
  <time>2026-09-01T19:55:07Z</time>
  <course>11.03</course>
  <speed>0.3238826948140329</speed>
  <fix>3d</fix>
</trkpt>
<trkpt lat="-27.2744338" lon="151.2900649">
  <ele>355.19</ele>
  <time>2026-09-01T19:55:07Z</time>
  <course>187.87</course>
  <speed>0.29</speed>
  <fix>3d</fix>
</trkpt>
<trkpt lat="-27.2744346" lon="151.2900647">
  <ele>355.33</ele>
  <time>2026-09-01T19:55:07Z</time>
  <course>11.02</course>
  <speed>0.34525353003264136</speed>
  <fix>3d</fix>
</trkpt>
<trkpt lat="-27.2744338" lon="151.2900649">
  <ele>355.19</ele>
  <time>2026-09-01T19:55:07Z</time>
  <course>187.87</course>
  <speed>0.29</speed>
  <fix>3d</fix>
</trkpt>
<trkpt lat="-27.2744349" lon="151.2900646">
  <ele>355.28</ele>
  <time>2026-09-01T19:55:07Z</time>
  <course>11.01</course>
  <speed>0.35510561809129404</speed>
  <fix>3d</fix>
</trkpt>
<trkpt lat="-27.2744343" lon="151.2900648">
  <ele>355.28</ele>
  <time>2026-09-01T19:55:07Z</time>
  <course>188.29</course>
  <speed>0.33</speed>
  <fix>3d</fix>
</trkpt>
<trkpt lat="-27.2744352" lon="151.2900646">
  <ele>355.2</ele>
  <time>2026-09-01T19:55:07Z</time>
  <course>10.99</course>
  <speed>0.3649657518178932</speed>
  <fix>3d</fix>
</trkpt>
<trkpt lat="-27.2744343" lon="151.2900648">
  <ele>355.28</ele>
  <time>2026-09-01T19:55:07Z</time>
  <course>188.29</course>
  <speed>0.33</speed>
  <fix>3d</fix>
</trkpt>
<trkpt lat="-27.2744355" lon="151.2900645">
  <ele>355.1</ele>
  <time>2026-09-01T19:55:07Z</time>
  <course>10.96</course>
  <speed>0.3649657518178932</speed>
  <fix>3d</fix>
</trkpt>
<trkpt lat="-27.274435" lon="151.2900647">
  <ele>355.23</ele>
  <time>2026-09-01T19:55:07Z</time>
  <course>188.54</course>
  <speed>0.36</speed>
  <fix>3d</fix>
</trkpt>
<trkpt lat="-27.2744359" lon="151.2900645">
  <ele>354.97</ele>
  <time>2026-09-01T19:55:07Z</time>
  <course>10.92</course>
  <speed>0.3649657518178932</speed>
  <fix>3d</fix>
</trkpt>
<trkpt lat="-27.274435" lon="151.2900647">
  <ele>355.23</ele>
  <time>2026-09-01T19:55:07Z</time>
  <course>188.54</course>
  <speed>0.36</speed>
  <fix>3d</fix>
</trkpt>
<trkpt lat="-27.2744362" lon="151.2900644">
  <ele>354.82</ele>
  <time>2026-09-01T19:55:07Z</time>
  <course>10.87</course>
  <speed>0.3535533905932738</speed>
  <fix>3d</fix>
</trkpt>
<trkpt lat="-27.2744356" lon="151.2900646">
  <ele>355.05</ele>
  <time>2026-09-01T19:55:07Z</time>
  <course>188.68</course>
  <speed>0.37</speed>
  <fix>3d</fix>
</trkpt>
<trkpt lat="-27.2744365" lon="151.2900644">
  <ele>354.67</ele>
  <time>2026-09-01T19:55:07Z</time>
  <course>10.82</course>
  <speed>0.34365680554879163</speed>
  <fix>3d</fix>
</trkpt>
<trkpt lat="-27.2744356" lon="151.2900646">
  <ele>355.05</ele>
  <time>2026-09-01T19:55:07Z</time>
  <course>188.68</course>
  <speed>0.37</speed>
  <fix>3d</fix>
</trkpt>
<trkpt lat="-27.2744368" lon="151.2900643">
  <ele>354.5</ele>
  <time>2026-09-01T19:55:08Z</time>
  <course>10.75</course>
  <speed>0.3423448553724738</speed>
  <fix>3d</fix>
</trkpt>
<trkpt lat="-27.2744363" lon="151.2900645">
  <ele>354.78</ele>
  <time>2026-09-01T19:55:08Z</time>
  <course>188.61</course>
  <speed>0.37</speed>
  <fix>3d</fix>
</trkpt>
<trkpt lat="-27.2744371" lon="151.2900643">
  <ele>354.33</ele>
  <time>2026-09-01T19:55:08Z</time>
  <course>10.68</course>
  <speed>0.3313608305156178</speed>
  <fix>3d</fix>
</trkpt>
<trkpt lat="-27.2744363" lon="151.2900645">
  <ele>354.78</ele>
  <time>2026-09-01T19:55:08Z</time>
  <course>188.61</course>
  <speed>0.37</speed>
  <fix>3d</fix>
</trkpt>
<trkpt lat="-27.2744374" lon="151.2900643">
  <ele>354.15</ele>
  <time>2026-09-01T19:55:08Z</time>
  <course>10.6</course>
  <speed>0.32140317359976395</speed>
  <fix>3d</fix>
</trkpt>
<trkpt lat="-27.274437" lon="151.2900643">
  <ele>354.46</ele>
  <time>2026-09-01T19:55:08Z</time>
  <course>188.35</course>
  <speed>0.35</speed>
  <fix>3d</fix>
</trkpt>
<trkpt lat="-27.2744377" lon="151.2900643">
  <ele>353.98</ele>
  <time>2026-09-01T19:55:08Z</time>
  <course>10.52</course>
  <speed>0.31064449134018135</speed>
  <fix>3d</fix>
</trkpt>
<trkpt lat="-27.274437" lon="151.2900643">
  <ele>354.46</ele>
  <time>2026-09-01T19:55:08Z</time>
  <course>188.35</course>
  <speed>0.35</speed>
  <fix>3d</fix>
</trkpt>
<trkpt lat="-27.274438" lon="151.2900642">
  <ele>353.81</ele>
  <time>2026-09-01T19:55:08Z</time>
  <course>10.43</course>
  <speed>0.31064449134018135</speed>
  <fix>3d</fix>
</trkpt>
<trkpt lat="-27.2744376" lon="151.2900642">
  <ele>354.12</ele>
  <time>2026-09-01T19:55:08Z</time>
  <course>187.9</course>
  <speed>0.33</speed>
  <fix>3d</fix>
</trkpt>
<trkpt lat="-27.2744383" lon="151.2900642">
  <ele>353.64</ele>
  <time>2026-09-01T19:55:08Z</time>
  <course>10.34</course>
  <speed>0.30066592756745814</speed>
  <fix>3d</fix>
</trkpt>
<trkpt lat="-27.2744376" lon="151.2900642">
  <ele>354.12</ele>
  <time>2026-09-01T19:55:08Z</time>
  <course>187.9</course>
  <speed>0.33</speed>
  <fix>3d</fix>
</trkpt>
<trkpt lat="-27.2744386" lon="151.2900642">
  <ele>353.48</ele>
  <time>2026-09-01T19:55:08Z</time>
  <course>10.26</course>
  <speed>0.30016662039607267</speed>
  <fix>3d</fix>
</trkpt>
<trkpt lat="-27.2744382" lon="151.2900642">
  <ele>353.78</ele>
  <time>2026-09-01T19:55:08Z</time>
  <course>187.33</course>
  <speed>0.31</speed>
  <fix>3d</fix>
</trkpt>
<trkpt lat="-27.2744389" lon="151.2900642">
  <ele>353.33</ele>
  <time>2026-09-01T19:55:08Z</time>
  <course>10.2</course>
  <speed>0.30016662039607267</speed>
  <fix>3d</fix>
</trkpt>
<trkpt lat="-27.2744382" lon="151.2900642">
  <ele>353.78</ele>
  <time>2026-09-01T19:55:08Z</time>
  <course>187.33</course>
  <speed>0.31</speed>
  <fix>3d</fix>
</trkpt>
<trkpt lat="-27.2744391" lon="151.2900641">
  <ele>353.18</ele>
  <time>2026-09-01T19:55:08Z</time>
  <course>10.14</course>
  <speed>0.29</speed>
  <fix>3d</fix>
</trkpt>
<trkpt lat="-27.2744387" lon="151.2900641">
  <ele>353.46</ele>
  <time>2026-09-01T19:55:08Z</time>
  <course>186.85</course>
  <speed>0.3</speed>
  <fix>3d</fix>
</trkpt>
<trkpt lat="-27.2744394" lon="151.2900641">
  <ele>353.04</ele>
  <time>2026-09-01T19:55:08Z</time>
  <course>10.09</course>
  <speed>0.29</speed>
  <fix>3d</fix>
</trkpt>
<trkpt lat="-27.2744387" lon="151.2900641">
  <ele>353.46</ele>
  <time>2026-09-01T19:55:08Z</time>
  <course>186.85</course>
  <speed>0.3</speed>
  <fix>3d</fix>
</trkpt>
<trkpt lat="-27.2744397" lon="151.2900641">
  <ele>352.9</ele>
  <time>2026-09-01T19:55:08Z</time>
  <course>10.05</course>
  <speed>0.29</speed>
  <fix>3d</fix>
</trkpt>
<trkpt lat="-27.2744392" lon="151.290064">
  <ele>353.17</ele>
  <time>2026-09-01T19:55:08Z</time>
  <course>186.42</course>
  <speed>0.29</speed>
  <fix>3d</fix>
</trkpt>
<trkpt lat="-27.2744399" lon="151.2900641">
  <ele>352.78</ele>
  <time>2026-09-01T19:55:08Z</time>
  <course>10.01</course>
  <speed>0.28</speed>
  <fix>3d</fix>
</trkpt>
<trkpt lat="-27.2744392" lon="151.290064">
  <ele>353.17</ele>
  <time>2026-09-01T19:55:08Z</time>
  <course>186.42</course>
  <speed>0.29</speed>
  <fix>3d</fix>
</trkpt>
<trkpt lat="-27.2744402" lon="151.2900641">
  <ele>352.66</ele>
  <time>2026-09-01T19:55:08Z</time>
  <course>9.97</course>
  <speed>0.28</speed>
  <fix>3d</fix>
</trkpt>
<trkpt lat="-27.2744397" lon="151.290064">
  <ele>352.91</ele>
  <time>2026-09-01T19:55:08Z</time>
  <course>186.11</course>
  <speed>0.28</speed>
  <fix>3d</fix>
</trkpt>
<trkpt lat="-27.2744404" lon="151.2900641">
  <ele>352.55</ele>
  <time>2026-09-01T19:55:08Z</time>
  <course>9.93</course>
  <speed>0.27</speed>
  <fix>3d</fix>
</trkpt>
<trkpt lat="-27.2744397" lon="151.290064">
  <ele>352.91</ele>
  <time>2026-09-01T19:55:08Z</time>
  <course>186.11</course>
  <speed>0.28</speed>
  <fix>3d</fix>
</trkpt>
<trkpt lat="-27.2744407" lon="151.290064">
  <ele>352.44</ele>
  <time>2026-09-01T19:55:08Z</time>
  <course>9.89</course>
  <speed>0.27</speed>
  <fix>3d</fix>
</trkpt>
<trkpt lat="-27.2744402" lon="151.2900639">
  <ele>352.68</ele>
  <time>2026-09-01T19:55:08Z</time>
  <course>185.87</course>
  <speed>0.27</speed>
  <fix>3d</fix>
</trkpt>
<trkpt lat="-27.2744409" lon="151.290064">
  <ele>352.33</ele>
  <time>2026-09-01T19:55:08Z</time>
  <course>9.85</course>
  <speed>0.26</speed>
  <fix>3d</fix>
</trkpt>
<trkpt lat="-27.2744402" lon="151.2900639">
  <ele>352.68</ele>
  <time>2026-09-01T19:55:08Z</time>
  <course>185.87</course>
  <speed>0.27</speed>
  <fix>3d</fix>
</trkpt>
<trkpt lat="-27.2744411" lon="151.290064">
  <ele>352.23</ele>
  <time>2026-09-01T19:55:08Z</time>
  <course>9.8</course>
  <speed>0.2501999200639361</speed>
  <fix>3d</fix>
</trkpt>
<trkpt lat="-27.2744407" lon="151.2900639">
  <ele>352.46</ele>
  <time>2026-09-01T19:55:08Z</time>
  <course>185.65</course>
  <speed>0.25</speed>
  <fix>3d</fix>
</trkpt>
<trkpt lat="-27.2744413" lon="151.290064">
  <ele>352.14</ele>
  <time>2026-09-01T19:55:08Z</time>
  <course>9.78</course>
  <speed>0.24020824298928628</speed>
  <fix>3d</fix>
</trkpt>
<trkpt lat="-27.2744407" lon="151.2900639">
  <ele>352.46</ele>
  <time>2026-09-01T19:55:08Z</time>
  <course>185.65</course>
  <speed>0.25</speed>
  <fix>3d</fix>
</trkpt>
<trkpt lat="-27.2744416" lon="151.290064">
  <ele>352.05</ele>
  <time>2026-09-01T19:55:08Z</time>
  <course>9.75</course>
  <speed>0.23021728866442676</speed>
  <fix>3d</fix>
</trkpt>
<trkpt lat="-27.2744412" lon="151.2900638">
  <ele>352.26</ele>
  <time>2026-09-01T19:55:08Z</time>
  <course>185.46</course>
  <speed>0.23</speed>
  <fix>3d</fix>
</trkpt>
<trkpt lat="-27.2744418" lon="151.290064">
  <ele>351.96</ele>
  <time>2026-09-01T19:55:08Z</time>
  <course>9.73</course>
  <speed>0.22022715545545238</speed>
  <fix>3d</fix>
</trkpt>
<trkpt lat="-27.2744412" lon="151.2900638">
  <ele>352.26</ele>
  <time>2026-09-01T19:55:08Z</time>
  <course>185.46</course>
  <speed>0.23</speed>
  <fix>3d</fix>
</trkpt>
<trkpt lat="-27.2744419" lon="151.290064">
  <ele>351.87</ele>
  <time>2026-09-01T19:55:08Z</time>
  <course>9.7</course>
  <speed>0.2109502310972899</speed>
  <fix>3d</fix>
</trkpt>
<trkpt lat="-27.2744415" lon="151.2900637">
  <ele>352.08</ele>
  <time>2026-09-01T19:55:08Z</time>
  <course>185.22</course>
  <speed>0.21</speed>
  <fix>3d</fix>
</trkpt>
<trkpt lat="-27.2744421" lon="151.290064">
  <ele>351.78</ele>
  <time>2026-09-01T19:55:08Z</time>
  <course>9.68</course>
  <speed>0.191049731745428</speed>
  <fix>3d</fix>
</trkpt>
<trkpt lat="-27.2744415" lon="151.2900637">
  <ele>352.08</ele>
  <time>2026-09-01T19:55:08Z</time>
  <course>185.22</course>
  <speed>0.21</speed>
  <fix>3d</fix>
</trkpt>
<trkpt lat="-27.2744423" lon="151.290064">
  <ele>351.69</ele>
  <time>2026-09-01T19:55:08Z</time>
  <course>9.64</course>
  <speed>0.18110770276274835</speed>
  <fix>3d</fix>
</trkpt>
<trkpt lat="-27.2744419" lon="151.2900637">
  <ele>351.9</ele>
  <time>2026-09-01T19:55:08Z</time>
  <course>184.8</course>
  <speed>0.18</speed>
  <fix>3d</fix>
</trkpt>
<trkpt lat="-27.2744424" lon="151.290064">
  <ele>351.6</ele>
  <time>2026-09-01T19:55:08Z</time>
  <course>9.61</course>
  <speed>0.16124515496597097</speed>
  <fix>3d</fix>
</trkpt>
<trkpt lat="-27.2744419" lon="151.2900637">
  <ele>351.9</ele>
  <time>2026-09-01T19:55:08Z</time>
  <course>184.8</course>
  <speed>0.18</speed>
  <fix>3d</fix>
</trkpt>
<trkpt lat="-27.2744425" lon="151.2900639">
  <ele>351.51</ele>
  <time>2026-09-01T19:55:08Z</time>
  <course>9.56</course>
  <speed>0.15297058540778355</speed>
  <fix>3d</fix>
</trkpt>
<trkpt lat="-27.2744422" lon="151.2900637">
  <ele>351.72</ele>
  <time>2026-09-01T19:55:08Z</time>
  <course>184.04</course>
  <speed>0.15</speed>
  <fix>3d</fix>
</trkpt>
<trkpt lat="-27.2744427" lon="151.2900639">
  <ele>351.42</ele>
  <time>2026-09-01T19:55:08Z</time>
  <course>9.52</course>
  <speed>0.13341664064126335</speed>
  <fix>3d</fix>
</trkpt>
<trkpt lat="-27.2744422" lon="151.2900637">
  <ele>351.72</ele>
  <time>2026-09-01T19:55:08Z</time>
  <course>184.04</course>
  <speed>0.15</speed>
  <fix>3d</fix>
</trkpt>
<trkpt lat="-27.2744427" lon="151.2900639">
  <ele>351.33</ele>
  <time>2026-09-01T19:55:08Z</time>
  <course>9.47</course>
  <speed>0.11401754250991379</speed>
  <fix>3d</fix>
</trkpt>
<trkpt lat="-27.2744425" lon="151.2900637">
  <ele>351.54</ele>
  <time>2026-09-01T19:55:08Z</time>
  <course>182.74</course>
  <speed>0.12</speed>
  <fix>3d</fix>
</trkpt>
<trkpt lat="-27.2744428" lon="151.2900639">
  <ele>351.23</ele>
  <time>2026-09-01T19:55:08Z</time>
  <course>9.43</course>
  <speed>0.10770329614269007</speed>
  <fix>3d</fix>
</trkpt>
<trkpt lat="-27.2744425" lon="151.2900637">
  <ele>351.54</ele>
  <time>2026-09-01T19:55:08Z</time>
  <course>182.74</course>
  <speed>0.12</speed>
  <fix>3d</fix>
</trkpt>
<trkpt lat="-27.2744429" lon="151.2900639">
  <ele>351.14</ele>
  <time>2026-09-01T19:55:08Z</time>
  <course>9.39</course>
  <speed>0.08944271909999159</speed>
  <fix>3d</fix>
</trkpt>
<trkpt lat="-27.2744427" lon="151.2900637">
  <ele>351.36</ele>
  <time>2026-09-01T19:55:08Z</time>
  <course>180.48</course>
  <speed>0.08</speed>
  <fix>3d</fix>
</trkpt>
<trkpt lat="-27.274443" lon="151.2900639">
  <ele>351.05</ele>
  <time>2026-09-01T19:55:08Z</time>
  <course>9.38</course>
  <speed>0.07211102550927978</speed>
  <fix>3d</fix>
</trkpt>
<trkpt lat="-27.2744427" lon="151.2900637">
  <ele>351.36</ele>
  <time>2026-09-01T19:55:08Z</time>
  <course>180.48</course>
  <speed>0.08</speed>
  <fix>3d</fix>
</trkpt>
<trkpt lat="-27.274443" lon="151.2900639">
  <ele>350.95</ele>
  <time>2026-09-01T19:55:08Z</time>
  <course>9.35</course>
  <speed>0.0565685424949238</speed>
  <fix>3d</fix>
</trkpt>
<trkpt lat="-27.2744428" lon="151.2900637">
  <ele>351.18</ele>
  <time>2026-09-01T19:55:08Z</time>
  <course>175.28</course>
  <speed>0.05</speed>
  <fix>3d</fix>
</trkpt>
<trkpt lat="-27.274443" lon="151.290064">
  <ele>350.87</ele>
  <time>2026-09-01T19:55:08Z</time>
  <course>9.44</course>
  <speed>0.044721359549995794</speed>
  <fix>3d</fix>
</trkpt>
<trkpt lat="-27.2744428" lon="151.2900637">
  <ele>351.18</ele>
  <time>2026-09-01T19:55:08Z</time>
  <course>175.28</course>
  <speed>0.05</speed>
  <fix>3d</fix>
</trkpt>
<trkpt lat="-27.274443" lon="151.2900639">
  <ele>350.78</ele>
  <time>2026-09-01T19:55:08Z</time>
  <course>9.65</course>
  <speed>0.03</speed>
  <fix>3d</fix>
</trkpt>
<trkpt lat="-27.2744429" lon="151.2900637">
  <ele>351.0</ele>
  <time>2026-09-01T19:55:08Z</time>
  <course>165.03</course>
  <speed>0.01</speed>
  <fix>3d</fix>
</trkpt>
<trkpt lat="-27.274443" lon="151.2900639">
  <ele>350.69</ele>
  <time>2026-09-01T19:55:08Z</time>
  <course>9.94</course>
  <speed>0.02</speed>
  <fix>3d</fix>
</trkpt>
<trkpt lat="-27.2744429" lon="151.2900637">
  <ele>351.0</ele>
  <time>2026-09-01T19:55:08Z</time>
  <course>165.03</course>
  <speed>0.01</speed>
  <fix>3d</fix>
</trkpt>
<trkpt lat="-27.2744429" lon="151.2900639">
  <ele>350.6</ele>
  <time>2026-09-01T19:55:08Z</time>
  <course>10.23</course>
  <speed>0.022360679774997897</speed>
  <fix>3d</fix>
</trkpt>
<trkpt lat="-27.2744429" lon="151.2900637">
  <ele>350.82</ele>
  <time>2026-09-01T19:55:08Z</time>
  <course>343.2</course>
  <speed>0.02</speed>
  <fix>3d</fix>
</trkpt>
<trkpt lat="-27.2744429" lon="151.2900639">
  <ele>350.52</ele>
  <time>2026-09-01T19:55:08Z</time>
  <course>10.5</course>
  <speed>0.04</speed>
  <fix>3d</fix>
</trkpt>
<trkpt lat="-27.2744429" lon="151.2900637">
  <ele>350.82</ele>
  <time>2026-09-01T19:55:08Z</time>
  <course>343.2</course>
  <speed>0.02</speed>
  <fix>3d</fix>
</trkpt>
<trkpt lat="-27.2744429" lon="151.2900639">
  <ele>350.44</ele>
  <time>2026-09-01T19:55:08Z</time>
  <course>10.7</course>
  <speed>0.06</speed>
  <fix>3d</fix>
</trkpt>
<trkpt lat="-27.2744428" lon="151.2900637">
  <ele>350.64</ele>
  <time>2026-09-01T19:55:08Z</time>
  <course>339.88</course>
  <speed>0.06</speed>
  <fix>3d</fix>
</trkpt>
<trkpt lat="-27.2744428" lon="151.2900639">
  <ele>350.36</ele>
  <time>2026-09-01T19:55:08Z</time>
  <course>10.82</course>
  <speed>0.08</speed>
  <fix>3d</fix>
</trkpt>
<trkpt lat="-27.2744428" lon="151.2900637">
  <ele>350.64</ele>
  <time>2026-09-01T19:55:08Z</time>
  <course>339.88</course>
  <speed>0.06</speed>
  <fix>3d</fix>
</trkpt>
<trkpt lat="-27.2744427" lon="151.2900639">
  <ele>350.28</ele>
  <time>2026-09-01T19:55:08Z</time>
  <course>10.86</course>
  <speed>0.1004987562112089</speed>
  <fix>3d</fix>
</trkpt>
<trkpt lat="-27.2744427" lon="151.2900636">
  <ele>350.47</ele>
  <time>2026-09-01T19:55:08Z</time>
  <course>339.83</course>
  <speed>0.1</speed>
  <fix>3d</fix>
</trkpt>
<trkpt lat="-27.2744426" lon="151.2900638">
  <ele>350.21</ele>
  <time>2026-09-01T19:55:08Z</time>
  <course>10.84</course>
  <speed>0.11045361017187261</speed>
  <fix>3d</fix>
</trkpt>
<trkpt lat="-27.2744427" lon="151.2900636">
  <ele>350.47</ele>
  <time>2026-09-01T19:55:08Z</time>
  <course>339.83</course>
  <speed>0.1</speed>
  <fix>3d</fix>
</trkpt>
<trkpt lat="-27.2744425" lon="151.2900638">
  <ele>350.13</ele>
  <time>2026-09-01T19:55:08Z</time>
  <course>10.78</course>
  <speed>0.13152946437965907</speed>
  <fix>3d</fix>
</trkpt>
<trkpt lat="-27.2744425" lon="151.2900635">
  <ele>350.32</ele>
  <time>2026-09-01T19:55:08Z</time>
  <course>340.35</course>
  <speed>0.14</speed>
  <fix>3d</fix>
</trkpt>
<trkpt lat="-27.2744423" lon="151.2900637">
  <ele>350.06</ele>
  <time>2026-09-01T19:55:08Z</time>
  <course>10.7</course>
  <speed>0.1414213562373095</speed>
  <fix>3d</fix>
</trkpt>
<trkpt lat="-27.2744425" lon="151.2900635">
  <ele>350.32</ele>
  <time>2026-09-01T19:55:08Z</time>
  <course>340.35</course>
  <speed>0.14</speed>
  <fix>3d</fix>
</trkpt>
<trkpt lat="-27.2744421" lon="151.2900636">
  <ele>349.99</ele>
  <time>2026-09-01T19:55:08Z</time>
  <course>10.62</course>
  <speed>0.16278820596099705</speed>
  <fix>3d</fix>
</trkpt>
<trkpt lat="-27.2744422" lon="151.2900634">
  <ele>350.17</ele>
  <time>2026-09-01T19:55:08Z</time>
  <course>341.01</course>
  <speed>0.18</speed>
  <fix>3d</fix>
</trkpt>
<trkpt lat="-27.274442" lon="151.2900636">
  <ele>349.92</ele>
  <time>2026-09-01T19:55:08Z</time>
  <course>10.57</course>
  <speed>0.17262676501632068</speed>
  <fix>3d</fix>
</trkpt>
<trkpt lat="-27.2744422" lon="151.2900634">
  <ele>350.17</ele>
  <time>2026-09-01T19:55:08Z</time>
  <course>341.01</course>
  <speed>0.18</speed>
  <fix>3d</fix>
</trkpt>
<trkpt lat="-27.2744418" lon="151.2900635">
  <ele>349.85</ele>
  <time>2026-09-01T19:55:08Z</time>
  <course>10.53</course>
  <speed>0.1824828759089466</speed>
  <fix>3d</fix>
</trkpt>
<trkpt lat="-27.2744419" lon="151.2900632">
  <ele>350.02</ele>
  <time>2026-09-01T19:55:08Z</time>
  <course>341.84</course>
  <speed>0.21</speed>
  <fix>3d</fix>
</trkpt>
<trkpt lat="-27.2744416" lon="151.2900634">
  <ele>349.79</ele>
  <time>2026-09-01T19:55:08Z</time>
  <course>10.52</course>
  <speed>0.19235384061671343</speed>
  <fix>3d</fix>
</trkpt>
<trkpt lat="-27.2744419" lon="151.2900632">
  <ele>350.02</ele>
  <time>2026-09-01T19:55:08Z</time>
  <course>341.84</course>
  <speed>0.21</speed>
  <fix>3d</fix>
</trkpt>
<trkpt lat="-27.2744414" lon="151.2900633">
  <ele>349.72</ele>
  <time>2026-09-01T19:55:08Z</time>
  <course>10.52</course>
  <speed>0.21213203435596426</speed>
  <fix>3d</fix>
</trkpt>
<trkpt lat="-27.2744415" lon="151.2900631">
  <ele>349.88</ele>
  <time>2026-09-01T19:55:08Z</time>
  <course>342.89</course>
  <speed>0.23</speed>
  <fix>3d</fix>
</trkpt>
<trkpt lat="-27.2744412" lon="151.2900633">
  <ele>349.65</ele>
  <time>2026-09-01T19:55:08Z</time>
  <course>10.54</course>
  <speed>0.21213203435596426</speed>
  <fix>3d</fix>
</trkpt>
<trkpt lat="-27.2744415" lon="151.2900631">
  <ele>349.88</ele>
  <time>2026-09-01T19:55:08Z</time>
  <course>342.89</course>
  <speed>0.23</speed>
  <fix>3d</fix>
</trkpt>
<trkpt lat="-27.2744409" lon="151.2900632">
  <ele>349.59</ele>
  <time>2026-09-01T19:55:08Z</time>
  <course>10.56</course>
  <speed>0.223606797749979</speed>
  <fix>3d</fix>
</trkpt>
<trkpt lat="-27.2744411" lon="151.2900629">
  <ele>349.75</ele>
  <time>2026-09-01T19:55:08Z</time>
  <course>344.1</course>
  <speed>0.26</speed>
  <fix>3d</fix>
</trkpt>
<trkpt lat="-27.2744407" lon="151.2900631">
  <ele>349.52</ele>
  <time>2026-09-01T19:55:08Z</time>
  <course>10.6</course>
  <speed>0.23194827009486402</speed>
  <fix>3d</fix>
</trkpt>
<trkpt lat="-27.2744411" lon="151.2900629">
  <ele>349.75</ele>
  <time>2026-09-01T19:55:08Z</time>
  <course>344.1</course>
  <speed>0.26</speed>
  <fix>3d</fix>
</trkpt>
<trkpt lat="-27.2744404" lon="151.290063">
  <ele>349.46</ele>
  <time>2026-09-01T19:55:08Z</time>
  <course>10.64</course>
  <speed>0.24186773244895649</speed>
  <fix>3d</fix>
</trkpt>
<trkpt lat="-27.2744406" lon="151.2900628">
  <ele>349.62</ele>
  <time>2026-09-01T19:55:08Z</time>
  <course>345.42</course>
  <speed>0.28</speed>
  <fix>3d</fix>
</trkpt>
<trkpt lat="-27.2744402" lon="151.2900629">
  <ele>349.4</ele>
  <time>2026-09-01T19:55:08Z</time>
  <course>10.69</course>
  <speed>0.24186773244895649</speed>
  <fix>3d</fix>
</trkpt>
<trkpt lat="-27.2744406" lon="151.2900628">
  <ele>349.62</ele>
  <time>2026-09-01T19:55:08Z</time>
  <course>345.42</course>
  <speed>0.28</speed>
  <fix>3d</fix>
</trkpt>
<trkpt lat="-27.2744399" lon="151.2900629">
  <ele>349.33</ele>
  <time>2026-09-01T19:55:08Z</time>
  <course>10.72</course>
  <speed>0.25179356624028343</speed>
  <fix>3d</fix>
</trkpt>
<trkpt lat="-27.2744401" lon="151.2900627">
  <ele>349.49</ele>
  <time>2026-09-01T19:55:08Z</time>
  <course>346.8</course>
  <speed>0.29</speed>
  <fix>3d</fix>
</trkpt>
<trkpt lat="-27.2744397" lon="151.2900628">
  <ele>349.27</ele>
  <time>2026-09-01T19:55:08Z</time>
  <course>10.75</course>
  <speed>0.25179356624028343</speed>
  <fix>3d</fix>
</trkpt>
<trkpt lat="-27.2744401" lon="151.2900627">
  <ele>349.49</ele>
  <time>2026-09-01T19:55:08Z</time>
  <course>346.8</course>
  <speed>0.29</speed>
  <fix>3d</fix>
</trkpt>
<trkpt lat="-27.2744394" lon="151.2900627">
  <ele>349.21</ele>
  <time>2026-09-01T19:55:08Z</time>
  <course>10.75</course>
  <speed>0.25079872407968906</speed>
  <fix>3d</fix>
</trkpt>
<trkpt lat="-27.2744396" lon="151.2900626">
  <ele>349.37</ele>
  <time>2026-09-01T19:55:08Z</time>
  <course>348.33</course>
  <speed>0.3</speed>
  <fix>3d</fix>
</trkpt>
<trkpt lat="-27.2744392" lon="151.2900627">
  <ele>349.16</ele>
  <time>2026-09-01T19:55:08Z</time>
  <course>10.76</course>
  <speed>0.25079872407968906</speed>
  <fix>3d</fix>
</trkpt>
<trkpt lat="-27.2744396" lon="151.2900626">
  <ele>349.37</ele>
  <time>2026-09-01T19:55:08Z</time>
  <course>348.33</course>
  <speed>0.3</speed>
  <fix>3d</fix>
</trkpt>
<trkpt lat="-27.2744389" lon="151.2900626">
  <ele>349.1</ele>
  <time>2026-09-01T19:55:08Z</time>
  <course>10.76</course>
  <speed>0.25079872407968906</speed>
  <fix>3d</fix>
</trkpt>
<trkpt lat="-27.274439" lon="151.2900624">
  <ele>349.26</ele>
  <time>2026-09-01T19:55:08Z</time>
  <course>350.06</course>
  <speed>0.3</speed>
  <fix>3d</fix>
</trkpt>
<trkpt lat="-27.2744386" lon="151.2900626">
  <ele>349.05</ele>
  <time>2026-09-01T19:55:08Z</time>
  <course>10.76</course>
  <speed>0.2501999200639361</speed>
  <fix>3d</fix>
</trkpt>
<trkpt lat="-27.274439" lon="151.2900624">
  <ele>349.26</ele>
  <time>2026-09-01T19:55:08Z</time>
  <course>350.06</course>
  <speed>0.3</speed>
  <fix>3d</fix>
</trkpt>
<trkpt lat="-27.2744383" lon="151.2900625">
  <ele>348.99</ele>
  <time>2026-09-01T19:55:08Z</time>
  <course>10.76</course>
  <speed>0.2501999200639361</speed>
  <fix>3d</fix>
</trkpt>
<trkpt lat="-27.2744385" lon="151.2900623">
  <ele>349.14</ele>
  <time>2026-09-01T19:55:08Z</time>
  <course>351.88</course>
  <speed>0.3</speed>
  <fix>3d</fix>
</trkpt>
<trkpt lat="-27.2744381" lon="151.2900625">
  <ele>348.94</ele>
  <time>2026-09-01T19:55:08Z</time>
  <course>10.76</course>
  <speed>0.25</speed>
  <fix>3d</fix>
</trkpt>
<trkpt lat="-27.2744385" lon="151.2900623">
  <ele>349.14</ele>
  <time>2026-09-01T19:55:08Z</time>
  <course>351.88</course>
  <speed>0.3</speed>
  <fix>3d</fix>
</trkpt>
<trkpt lat="-27.2744378" lon="151.2900625">
  <ele>348.89</ele>
  <time>2026-09-01T19:55:08Z</time>
  <course>10.76</course>
  <speed>0.24</speed>
  <fix>3d</fix>
</trkpt>
<trkpt lat="-27.2744379" lon="151.2900623">
  <ele>349.03</ele>
  <time>2026-09-01T19:55:08Z</time>
  <course>353.78</course>
  <speed>0.3</speed>
  <fix>3d</fix>
</trkpt>
<trkpt lat="-27.2744376" lon="151.2900624">
  <ele>348.84</ele>
  <time>2026-09-01T19:55:08Z</time>
  <course>10.77</course>
  <speed>0.24</speed>
  <fix>3d</fix>
</trkpt>
<trkpt lat="-27.2744379" lon="151.2900623">
  <ele>349.03</ele>
  <time>2026-09-01T19:55:08Z</time>
  <course>353.78</course>
  <speed>0.3</speed>
  <fix>3d</fix>
</trkpt>
<trkpt lat="-27.2744373" lon="151.2900624">
  <ele>348.78</ele>
  <time>2026-09-01T19:55:08Z</time>
  <course>10.77</course>
  <speed>0.23</speed>
  <fix>3d</fix>
</trkpt>
<trkpt lat="-27.2744374" lon="151.2900622">
  <ele>348.93</ele>
  <time>2026-09-01T19:55:08Z</time>
  <course>355.87</course>
  <speed>0.29</speed>
  <fix>3d</fix>
</trkpt>
<trkpt lat="-27.2744371" lon="151.2900624">
  <ele>348.73</ele>
  <time>2026-09-01T19:55:08Z</time>
  <course>10.77</course>
  <speed>0.22022715545545238</speed>
  <fix>3d</fix>
</trkpt>
<trkpt lat="-27.2744374" lon="151.2900622">
  <ele>348.93</ele>
  <time>2026-09-01T19:55:08Z</time>
  <course>355.87</course>
  <speed>0.29</speed>
  <fix>3d</fix>
</trkpt>
<trkpt lat="-27.2744368" lon="151.2900624">
  <ele>348.68</ele>
  <time>2026-09-01T19:55:08Z</time>
  <course>10.78</course>
  <speed>0.22090722034374521</speed>
  <fix>3d</fix>
</trkpt>
<trkpt lat="-27.2744369" lon="151.2900622">
  <ele>348.83</ele>
  <time>2026-09-01T19:55:08Z</time>
  <course>358.19</course>
  <speed>0.27</speed>
  <fix>3d</fix>
</trkpt>
<trkpt lat="-27.2744366" lon="151.2900624">
  <ele>348.63</ele>
  <time>2026-09-01T19:55:08Z</time>
  <course>10.79</course>
  <speed>0.2109502310972899</speed>
  <fix>3d</fix>
</trkpt>
<trkpt lat="-27.2744369" lon="151.2900622">
  <ele>348.83</ele>
  <time>2026-09-01T19:55:08Z</time>
  <course>358.19</course>
  <speed>0.27</speed>
  <fix>3d</fix>
</trkpt>
<trkpt lat="-27.2744364" lon="151.2900624">
  <ele>348.59</ele>
  <time>2026-09-01T19:55:08Z</time>
  <course>10.8</course>
  <speed>0.20223748416156684</speed>
  <fix>3d</fix>
</trkpt>
<trkpt lat="-27.2744364" lon="151.2900622">
  <ele>348.72</ele>
  <time>2026-09-01T19:55:08Z</time>
  <course>0.75</course>
  <speed>0.26</speed>
  <fix>3d</fix>
</trkpt>
<trkpt lat="-27.2744362" lon="151.2900624">
  <ele>348.54</ele>
  <time>2026-09-01T19:55:08Z</time>
  <course>10.81</course>
  <speed>0.19235384061671343</speed>
  <fix>3d</fix>
</trkpt>
<trkpt lat="-27.2744364" lon="151.2900622">
  <ele>348.72</ele>
  <time>2026-09-01T19:55:08Z</time>
  <course>0.75</course>
  <speed>0.26</speed>
  <fix>3d</fix>
</trkpt>
<trkpt lat="-27.274436" lon="151.2900624">
  <ele>348.49</ele>
  <time>2026-09-01T19:55:08Z</time>
  <course>10.82</course>
  <speed>0.17464249196572978</speed>
  <fix>3d</fix>
</trkpt>
<trkpt lat="-27.274436" lon="151.2900622">
  <ele>348.63</ele>
  <time>2026-09-01T19:55:08Z</time>
  <course>3.6</course>
  <speed>0.24</speed>
  <fix>3d</fix>
</trkpt>
<trkpt lat="-27.2744358" lon="151.2900624">
  <ele>348.44</ele>
  <time>2026-09-01T19:55:08Z</time>
  <course>10.83</course>
  <speed>0.1649242250247064</speed>
  <fix>3d</fix>
</trkpt>
<trkpt lat="-27.274436" lon="151.2900622">
  <ele>348.63</ele>
  <time>2026-09-01T19:55:08Z</time>
  <course>3.6</course>
  <speed>0.24</speed>
  <fix>3d</fix>
</trkpt>
<trkpt lat="-27.2744356" lon="151.2900624">
  <ele>348.39</ele>
  <time>2026-09-01T19:55:08Z</time>
  <course>10.83</course>
  <speed>0.15811388300841897</speed>
  <fix>3d</fix>
</trkpt>
<trkpt lat="-27.2744355" lon="151.2900622">
  <ele>348.53</ele>
  <time>2026-09-01T19:55:08Z</time>
  <course>6.98</course>
  <speed>0.22</speed>
  <fix>3d</fix>
</trkpt>
<trkpt lat="-27.2744354" lon="151.2900624">
  <ele>348.34</ele>
  <time>2026-09-01T19:55:08Z</time>
  <course>10.84</course>
  <speed>0.14866068747318506</speed>
  <fix>3d</fix>
</trkpt>
<trkpt lat="-27.2744355" lon="151.2900622">
  <ele>348.53</ele>
  <time>2026-09-01T19:55:08Z</time>
  <course>6.98</course>
  <speed>0.22</speed>
  <fix>3d</fix>
</trkpt>
<trkpt lat="-27.2744352" lon="151.2900625">
  <ele>348.29</ele>
  <time>2026-09-01T19:55:08Z</time>
  <course>10.85</course>
  <speed>0.1392838827718412</speed>
  <fix>3d</fix>
</trkpt>
<trkpt lat="-27.2744352" lon="151.2900622">
  <ele>348.43</ele>
  <time>2026-09-01T19:55:08Z</time>
  <course>11.02</course>
  <speed>0.19</speed>
  <fix>3d</fix>
</trkpt>
<trkpt lat="-27.2744351" lon="151.2900625">
  <ele>348.24</ele>
  <time>2026-09-01T19:55:08Z</time>
  <course>10.85</course>
  <speed>0.12529964086141668</speed>
  <fix>3d</fix>
</trkpt>
<trkpt lat="-27.2744352" lon="151.2900622">
  <ele>348.43</ele>
  <time>2026-09-01T19:55:08Z</time>
  <course>11.02</course>
  <speed>0.19</speed>
  <fix>3d</fix>
</trkpt>
<trkpt lat="-27.274435" lon="151.2900625">
  <ele>348.19</ele>
  <time>2026-09-01T19:55:08Z</time>
  <course>10.85</course>
  <speed>0.11661903789690602</speed>
  <fix>3d</fix>
</trkpt>
<trkpt lat="-27.2744348" lon="151.2900623">
  <ele>348.33</ele>
  <time>2026-09-01T19:55:08Z</time>
  <course>15.83</course>
  <speed>0.17</speed>
  <fix>3d</fix>
</trkpt>
<trkpt lat="-27.2744348" lon="151.2900626">
  <ele>348.14</ele>
  <time>2026-09-01T19:55:08Z</time>
  <course>10.84</course>
  <speed>0.1</speed>
  <fix>3d</fix>
</trkpt>
<trkpt lat="-27.2744348" lon="151.2900623">
  <ele>348.33</ele>
  <time>2026-09-01T19:55:08Z</time>
  <course>15.83</course>
  <speed>0.17</speed>
  <fix>3d</fix>
</trkpt>
<trkpt lat="-27.2744347" lon="151.2900626">
  <ele>348.09</ele>
  <time>2026-09-01T19:55:08Z</time>
  <course>10.84</course>
  <speed>0.09899494936611665</speed>
  <fix>3d</fix>
</trkpt>
<trkpt lat="-27.2744346" lon="151.2900624">
  <ele>348.22</ele>
  <time>2026-09-01T19:55:08Z</time>
  <course>21.93</course>
  <speed>0.15</speed>
  <fix>3d</fix>
</trkpt>
<trkpt lat="-27.2744346" lon="151.2900627">
  <ele>348.04</ele>
  <time>2026-09-01T19:55:08Z</time>
  <course>10.85</course>
  <speed>0.09219544457292887</speed>
  <fix>3d</fix>
</trkpt>
<trkpt lat="-27.2744346" lon="151.2900624">
  <ele>348.22</ele>
  <time>2026-09-01T19:55:08Z</time>
  <course>21.93</course>
  <speed>0.15</speed>
  <fix>3d</fix>
</trkpt>
<trkpt lat="-27.2744345" lon="151.2900628">
  <ele>347.98</ele>
  <time>2026-09-01T19:55:08Z</time>
  <course>10.86</course>
  <speed>0.08062257748298549</speed>
  <fix>3d</fix>
</trkpt>
<trkpt lat="-27.2744343" lon="151.2900625">
  <ele>348.13</ele>
  <time>2026-09-01T19:55:08Z</time>
  <course>29.94</course>
  <speed>0.12</speed>
  <fix>3d</fix>
</trkpt>
<trkpt lat="-27.2744345" lon="151.2900628">
  <ele>347.93</ele>
  <time>2026-09-01T19:55:08Z</time>
  <course>10.88</course>
  <speed>0.07615773105863909</speed>
  <fix>3d</fix>
</trkpt>
<trkpt lat="-27.2744343" lon="151.2900625">
  <ele>348.13</ele>
  <time>2026-09-01T19:55:08Z</time>
  <course>29.94</course>
  <speed>0.12</speed>
  <fix>3d</fix>
</trkpt>
<trkpt lat="-27.2744344" lon="151.2900629">
  <ele>347.88</ele>
  <time>2026-09-01T19:55:08Z</time>
  <course>10.91</course>
  <speed>0.07280109889280519</speed>
  <fix>3d</fix>
</trkpt>
<trkpt lat="-27.2744342" lon="151.2900627">
  <ele>348.03</ele>
  <time>2026-09-01T19:55:08Z</time>
  <course>40.31</course>
  <speed>0.1</speed>
  <fix>3d</fix>
</trkpt>
<trkpt lat="-27.2744344" lon="151.2900629">
  <ele>347.83</ele>
  <time>2026-09-01T19:55:08Z</time>
  <course>10.93</course>
  <speed>0.08</speed>
  <fix>3d</fix>
</trkpt>
<trkpt lat="-27.2744342" lon="151.2900627">
  <ele>348.03</ele>
  <time>2026-09-01T19:55:08Z</time>
  <course>40.31</course>
  <speed>0.1</speed>
  <fix>3d</fix>
</trkpt>
<trkpt lat="-27.2744343" lon="151.290063">
  <ele>347.78</ele>
  <time>2026-09-01T19:55:08Z</time>
  <course>10.95</course>
  <speed>0.08</speed>
  <fix>3d</fix>
</trkpt>
<trkpt lat="-27.274434" lon="151.2900628">
  <ele>347.93</ele>
  <time>2026-09-01T19:55:08Z</time>
  <course>53.67</course>
  <speed>0.09</speed>
  <fix>3d</fix>
</trkpt>
<trkpt lat="-27.2744343" lon="151.2900631">
  <ele>347.73</ele>
  <time>2026-09-01T19:55:08Z</time>
  <course>10.96</course>
  <speed>0.08062257748298549</speed>
  <fix>3d</fix>
</trkpt>
<trkpt lat="-27.274434" lon="151.2900628">
  <ele>347.93</ele>
  <time>2026-09-01T19:55:08Z</time>
  <course>53.67</course>
  <speed>0.09</speed>
  <fix>3d</fix>
</trkpt>
<trkpt lat="-27.2744343" lon="151.2900631">
  <ele>347.68</ele>
  <time>2026-09-01T19:55:08Z</time>
  <course>10.98</course>
  <speed>0.0824621125123532</speed>
  <fix>3d</fix>
</trkpt>
<trkpt lat="-27.274434" lon="151.2900629">
  <ele>347.83</ele>
  <time>2026-09-01T19:55:08Z</time>
  <course>69.69</course>
  <speed>0.08</speed>
  <fix>3d</fix>
</trkpt>
<trkpt lat="-27.2744343" lon="151.2900632">
  <ele>347.63</ele>
  <time>2026-09-01T19:55:08Z</time>
  <course>11.0</course>
  <speed>0.0854400374531753</speed>
  <fix>3d</fix>
</trkpt>
<trkpt lat="-27.274434" lon="151.2900629">
  <ele>347.83</ele>
  <time>2026-09-01T19:55:08Z</time>
  <course>69.69</course>
  <speed>0.08</speed>
  <fix>3d</fix>
</trkpt>
<trkpt lat="-27.2744343" lon="151.2900633">
  <ele>347.58</ele>
  <time>2026-09-01T19:55:08Z</time>
  <course>11.01</course>
  <speed>0.08944271909999159</speed>
  <fix>3d</fix>
</trkpt>
<trkpt lat="-27.2744339" lon="151.2900632">
  <ele>347.72</ele>
  <time>2026-09-01T19:55:08Z</time>
  <course>86.28</course>
  <speed>0.08</speed>
  <fix>3d</fix>
</trkpt>
<trkpt lat="-27.2744343" lon="151.2900634">
  <ele>347.53</ele>
  <time>2026-09-01T19:55:08Z</time>
  <course>11.03</course>
  <speed>0.08602325267042626</speed>
  <fix>3d</fix>
</trkpt>
<trkpt lat="-27.2744339" lon="151.2900632">
  <ele>347.72</ele>
  <time>2026-09-01T19:55:08Z</time>
  <course>86.28</course>
  <speed>0.08</speed>
  <fix>3d</fix>
</trkpt>
<trkpt lat="-27.2744343" lon="151.2900634">
  <ele>347.48</ele>
  <time>2026-09-01T19:55:08Z</time>
  <course>11.04</course>
  <speed>0.09219544457292887</speed>
  <fix>3d</fix>
</trkpt>
<trkpt lat="-27.2744339" lon="151.2900633">
  <ele>347.63</ele>
  <time>2026-09-01T19:55:08Z</time>
  <course>101.42</course>
  <speed>0.08</speed>
  <fix>3d</fix>
</trkpt>
<trkpt lat="-27.2744343" lon="151.2900635">
  <ele>347.43</ele>
  <time>2026-09-01T19:55:08Z</time>
  <course>11.06</course>
  <speed>0.09899494936611665</speed>
  <fix>3d</fix>
</trkpt>
<trkpt lat="-27.2744339" lon="151.2900633">
  <ele>347.63</ele>
  <time>2026-09-01T19:55:08Z</time>
  <course>101.42</course>
  <speed>0.08</speed>
  <fix>3d</fix>
</trkpt>
<trkpt lat="-27.2744343" lon="151.2900636">
  <ele>347.38</ele>
  <time>2026-09-01T19:55:08Z</time>
  <course>11.07</course>
  <speed>0.1063014581273465</speed>
  <fix>3d</fix>
</trkpt>
<trkpt lat="-27.274434" lon="151.2900634">
  <ele>347.53</ele>
  <time>2026-09-01T19:55:08Z</time>
  <course>114.26</course>
  <speed>0.08</speed>
  <fix>3d</fix>
</trkpt>
<trkpt lat="-27.2744343" lon="151.2900636">
  <ele>347.33</ele>
  <time>2026-09-01T19:55:08Z</time>
  <course>11.09</course>
  <speed>0.1063014581273465</speed>
  <fix>3d</fix>
</trkpt>
<trkpt lat="-27.274434" lon="151.2900634">
  <ele>347.53</ele>
  <time>2026-09-01T19:55:08Z</time>
  <course>114.26</course>
  <speed>0.08</speed>
  <fix>3d</fix>
</trkpt>
<trkpt lat="-27.2744344" lon="151.2900637">
  <ele>347.28</ele>
  <time>2026-09-01T19:55:08Z</time>
  <course>11.11</course>
  <speed>0.11401754250991379</speed>
  <fix>3d</fix>
</trkpt>
<trkpt lat="-27.274434" lon="151.2900636">
  <ele>347.43</ele>
  <time>2026-09-01T19:55:08Z</time>
  <course>124.89</course>
  <speed>0.09</speed>
  <fix>3d</fix>
</trkpt>
<trkpt lat="-27.2744344" lon="151.2900638">
  <ele>347.23</ele>
  <time>2026-09-01T19:55:08Z</time>
  <course>11.12</course>
  <speed>0.10816653826391968</speed>
  <fix>3d</fix>
</trkpt>
<trkpt lat="-27.274434" lon="151.2900636">
  <ele>347.43</ele>
  <time>2026-09-01T19:55:08Z</time>
  <course>124.89</course>
  <speed>0.09</speed>
  <fix>3d</fix>
</trkpt>
<trkpt lat="-27.2744345" lon="151.2900638">
  <ele>347.18</ele>
  <time>2026-09-01T19:55:08Z</time>
  <course>11.14</course>
  <speed>0.11661903789690602</speed>
  <fix>3d</fix>
</trkpt>
<trkpt lat="-27.2744341" lon="151.2900637">
  <ele>347.34</ele>
  <time>2026-09-01T19:55:08Z</time>
  <course>133.36</course>
  <speed>0.09</speed>
  <fix>3d</fix>
</trkpt>
<trkpt lat="-27.2744346" lon="151.2900639">
  <ele>347.13</ele>
  <time>2026-09-01T19:55:08Z</time>
  <course>11.15</course>
  <speed>0.11661903789690602</speed>
  <fix>3d</fix>
</trkpt>
<trkpt lat="-27.2744341" lon="151.2900637">
  <ele>347.34</ele>
  <time>2026-09-01T19:55:08Z</time>
  <course>133.36</course>
  <speed>0.09</speed>
  <fix>3d</fix>
</trkpt>
<trkpt lat="-27.2744346" lon="151.290064">
  <ele>347.08</ele>
  <time>2026-09-01T19:55:08Z</time>
  <course>11.16</course>
  <speed>0.12083045973594572</speed>
  <fix>3d</fix>
</trkpt>
<trkpt lat="-27.2744342" lon="151.2900639">
  <ele>347.24</ele>
  <time>2026-09-01T19:55:08Z</time>
  <course>140.28</course>
  <speed>0.1</speed>
  <fix>3d</fix>
</trkpt>
<trkpt lat="-27.2744347" lon="151.290064">
  <ele>347.03</ele>
  <time>2026-09-01T19:55:08Z</time>
  <course>11.15</course>
  <speed>0.12083045973594572</speed>
  <fix>3d</fix>
</trkpt>
<trkpt lat="-27.2744342" lon="151.2900639">
  <ele>347.24</ele>
  <time>2026-09-01T19:55:08Z</time>
  <course>140.28</course>
  <speed>0.1</speed>
  <fix>3d</fix>
</trkpt>
<trkpt lat="-27.2744348" lon="151.2900641">
  <ele>346.98</ele>
  <time>2026-09-01T19:55:08Z</time>
  <course>11.14</course>
  <speed>0.12083045973594572</speed>
  <fix>3d</fix>
</trkpt>
<trkpt lat="-27.2744343" lon="151.290064">
  <ele>347.14</ele>
  <time>2026-09-01T19:55:08Z</time>
  <course>146.43</course>
  <speed>0.1</speed>
  <fix>3d</fix>
</trkpt>
<trkpt lat="-27.2744348" lon="151.2900641">
  <ele>346.93</ele>
  <time>2026-09-01T19:55:08Z</time>
  <course>11.14</course>
  <speed>0.11704699910719625</speed>
  <fix>3d</fix>
</trkpt>
<trkpt lat="-27.2744343" lon="151.290064">
  <ele>347.14</ele>
  <time>2026-09-01T19:55:08Z</time>
  <course>146.43</course>
  <speed>0.1</speed>
  <fix>3d</fix>
</trkpt>
<trkpt lat="-27.2744349" lon="151.2900641">
  <ele>346.88</ele>
  <time>2026-09-01T19:55:08Z</time>
  <course>11.14</course>
  <speed>0.11704699910719625</speed>
  <fix>3d</fix>
</trkpt>
<trkpt lat="-27.2744345" lon="151.2900641">
  <ele>347.03</ele>
  <time>2026-09-01T19:55:08Z</time>
  <course>151.89</course>
  <speed>0.1</speed>
  <fix>3d</fix>
</trkpt>
<trkpt lat="-27.274435" lon="151.2900642">
  <ele>346.84</ele>
  <time>2026-09-01T19:55:08Z</time>
  <course>11.15</course>
  <speed>0.11401754250991379</speed>
  <fix>3d</fix>
</trkpt>
<trkpt lat="-27.2744345" lon="151.2900641">
  <ele>347.03</ele>
  <time>2026-09-01T19:55:08Z</time>
  <course>151.89</course>
  <speed>0.1</speed>
  <fix>3d</fix>
</trkpt>
<trkpt lat="-27.2744351" lon="151.2900642">
  <ele>346.79</ele>
  <time>2026-09-01T19:55:08Z</time>
  <course>11.15</course>
  <speed>0.11401754250991379</speed>
  <fix>3d</fix>
</trkpt>
<trkpt lat="-27.2744347" lon="151.2900642">
  <ele>346.94</ele>
  <time>2026-09-01T19:55:08Z</time>
  <course>156.83</course>
  <speed>0.1</speed>
  <fix>3d</fix>
</trkpt>
<trkpt lat="-27.2744351" lon="151.2900643">
  <ele>346.74</ele>
  <time>2026-09-01T19:55:08Z</time>
  <course>11.15</course>
  <speed>0.11401754250991379</speed>
  <fix>3d</fix>
</trkpt>
<trkpt lat="-27.2744347" lon="151.2900642">
  <ele>346.94</ele>
  <time>2026-09-01T19:55:08Z</time>
  <course>156.83</course>
  <speed>0.1</speed>
  <fix>3d</fix>
</trkpt>
<trkpt lat="-27.2744352" lon="151.2900643">
  <ele>346.69</ele>
  <time>2026-09-01T19:55:08Z</time>
  <course>11.16</course>
  <speed>0.1118033988749895</speed>
  <fix>3d</fix>
</trkpt>
<trkpt lat="-27.2744349" lon="151.2900643">
  <ele>346.84</ele>
  <time>2026-09-01T19:55:08Z</time>
  <course>161.37</course>
  <speed>0.1</speed>
  <fix>3d</fix>
</trkpt>
<trkpt lat="-27.2744353" lon="151.2900643">
  <ele>346.64</ele>
  <time>2026-09-01T19:55:08Z</time>
  <course>11.17</course>
  <speed>0.1118033988749895</speed>
  <fix>3d</fix>
</trkpt>
<trkpt lat="-27.2744349" lon="151.2900643">
  <ele>346.84</ele>
  <time>2026-09-01T19:55:08Z</time>
  <course>161.37</course>
  <speed>0.1</speed>
  <fix>3d</fix>
</trkpt>
<trkpt lat="-27.2744354" lon="151.2900643">
  <ele>346.59</ele>
  <time>2026-09-01T19:55:08Z</time>
  <course>11.18</course>
  <speed>0.1118033988749895</speed>
  <fix>3d</fix>
</trkpt>
<trkpt lat="-27.2744351" lon="151.2900644">
  <ele>346.74</ele>
  <time>2026-09-01T19:55:08Z</time>
  <course>165.5</course>
  <speed>0.1</speed>
  <fix>3d</fix>
</trkpt>
<trkpt lat="-27.2744355" lon="151.2900643">
  <ele>346.54</ele>
  <time>2026-09-01T19:55:08Z</time>
  <course>11.19</course>
  <speed>0.11045361017187261</speed>
  <fix>3d</fix>
</trkpt>
<trkpt lat="-27.2744351" lon="151.2900644">
  <ele>346.74</ele>
  <time>2026-09-01T19:55:08Z</time>
  <course>165.5</course>
  <speed>0.1</speed>
  <fix>3d</fix>
</trkpt>
<trkpt lat="-27.2744355" lon="151.2900644">
  <ele>346.49</ele>
  <time>2026-09-01T19:55:08Z</time>
  <course>11.19</course>
  <speed>0.1004987562112089</speed>
  <fix>3d</fix>
</trkpt>
<trkpt lat="-27.2744352" lon="151.2900644">
  <ele>346.64</ele>
  <time>2026-09-01T19:55:08Z</time>
  <course>169.73</course>
  <speed>0.09</speed>
  <fix>3d</fix>
</trkpt>
<trkpt lat="-27.2744356" lon="151.2900644">
  <ele>346.43</ele>
  <time>2026-09-01T19:55:08Z</time>
  <course>11.19</course>
  <speed>0.1</speed>
  <fix>3d</fix>
</trkpt>
<trkpt lat="-27.2744352" lon="151.2900644">
  <ele>346.64</ele>
  <time>2026-09-01T19:55:08Z</time>
  <course>169.73</course>
  <speed>0.09</speed>
  <fix>3d</fix>
</trkpt>
<trkpt lat="-27.2744357" lon="151.2900644">
  <ele>346.38</ele>
  <time>2026-09-01T19:55:08Z</time>
  <course>11.19</course>
  <speed>0.1</speed>
  <fix>3d</fix>
</trkpt>
<trkpt lat="-27.2744354" lon="151.2900645">
  <ele>346.53</ele>
  <time>2026-09-01T19:55:08Z</time>
  <course>174.73</course>
  <speed>0.09</speed>
  <fix>3d</fix>
</trkpt>
<trkpt lat="-27.2744358" lon="151.2900644">
  <ele>346.33</ele>
  <time>2026-09-01T19:55:08Z</time>
  <course>11.18</course>
  <speed>0.09</speed>
  <fix>3d</fix>
</trkpt>
<trkpt lat="-27.2744354" lon="151.2900645">
  <ele>346.53</ele>
  <time>2026-09-01T19:55:08Z</time>
  <course>174.73</course>
  <speed>0.09</speed>
  <fix>3d</fix>
</trkpt>
<trkpt lat="-27.2744358" lon="151.2900644">
  <ele>346.28</ele>
  <time>2026-09-01T19:55:08Z</time>
  <course>11.17</course>
  <speed>0.09</speed>
  <fix>3d</fix>
</trkpt>
<trkpt lat="-27.2744355" lon="151.2900645">
  <ele>346.43</ele>
  <time>2026-09-01T19:55:08Z</time>
  <course>180.51</course>
  <speed>0.08</speed>
  <fix>3d</fix>
</trkpt>
<trkpt lat="-27.2744359" lon="151.2900644">
  <ele>346.23</ele>
  <time>2026-09-01T19:55:08Z</time>
  <course>11.15</course>
  <speed>0.08</speed>
  <fix>3d</fix>
</trkpt>
<trkpt lat="-27.2744355" lon="151.2900645">
  <ele>346.43</ele>
  <time>2026-09-01T19:55:08Z</time>
  <course>180.51</course>
  <speed>0.08</speed>
  <fix>3d</fix>
</trkpt>
<trkpt lat="-27.2744359" lon="151.2900644">
  <ele>346.18</ele>
  <time>2026-09-01T19:55:08Z</time>
  <course>11.07</course>
  <speed>0.08</speed>
  <fix>3d</fix>
</trkpt>
<trkpt lat="-27.2744357" lon="151.2900645">
  <ele>346.33</ele>
  <time>2026-09-01T19:55:08Z</time>
  <course>186.34</course>
  <speed>0.07</speed>
  <fix>3d</fix>
</trkpt>
<trkpt lat="-27.274436" lon="151.2900644">
  <ele>346.13</ele>
  <time>2026-09-01T19:55:08Z</time>
  <course>10.94</course>
  <speed>0.08</speed>
  <fix>3d</fix>
</trkpt>
<trkpt lat="-27.2744357" lon="151.2900645">
  <ele>346.33</ele>
  <time>2026-09-01T19:55:08Z</time>
  <course>186.34</course>
  <speed>0.07</speed>
  <fix>3d</fix>
</trkpt>
<trkpt lat="-27.274436" lon="151.2900644">
  <ele>346.08</ele>
  <time>2026-09-01T19:55:08Z</time>
  <course>10.8</course>
  <speed>0.07</speed>
  <fix>3d</fix>
</trkpt>
<trkpt lat="-27.2744358" lon="151.2900645">
  <ele>346.22</ele>
  <time>2026-09-01T19:55:08Z</time>
  <course>189.21</course>
  <speed>0.07</speed>
  <fix>3d</fix>
</trkpt>
<trkpt lat="-27.2744361" lon="151.2900644">
  <ele>346.03</ele>
  <time>2026-09-01T19:55:08Z</time>
  <course>10.66</course>
  <speed>0.07</speed>
  <fix>3d</fix>
</trkpt>
<trkpt lat="-27.2744358" lon="151.2900645">
  <ele>346.22</ele>
  <time>2026-09-01T19:55:08Z</time>
  <course>189.21</course>
  <speed>0.07</speed>
  <fix>3d</fix>
</trkpt>
<trkpt lat="-27.2744361" lon="151.2900644">
  <ele>345.98</ele>
  <time>2026-09-01T19:55:08Z</time>
  <course>10.55</course>
  <speed>0.07</speed>
  <fix>3d</fix>
</trkpt>
<trkpt lat="-27.274436" lon="151.2900645">
  <ele>346.13</ele>
  <time>2026-09-01T19:55:08Z</time>
  <course>188.98</course>
  <speed>0.06</speed>
  <fix>3d</fix>
</trkpt>
<trkpt lat="-27.2744362" lon="151.2900644">
  <ele>345.93</ele>
  <time>2026-09-01T19:55:08Z</time>
  <course>10.47</course>
  <speed>0.06</speed>
  <fix>3d</fix>
</trkpt>
<trkpt lat="-27.274436" lon="151.2900645">
  <ele>346.13</ele>
  <time>2026-09-01T19:55:08Z</time>
  <course>188.98</course>
  <speed>0.06</speed>
  <fix>3d</fix>
</trkpt>
<trkpt lat="-27.2744362" lon="151.2900644">
  <ele>345.88</ele>
  <time>2026-09-01T19:55:08Z</time>
  <course>10.43</course>
  <speed>0.06</speed>
  <fix>3d</fix>
</trkpt>
<trkpt lat="-27.2744361" lon="151.2900645">
  <ele>346.03</ele>
  <time>2026-09-01T19:55:08Z</time>
  <course>188.51</course>
  <speed>0.05</speed>
  <fix>3d</fix>
</trkpt>
<trkpt lat="-27.2744363" lon="151.2900644">
  <ele>345.83</ele>
  <time>2026-09-01T19:55:08Z</time>
  <course>10.42</course>
  <speed>0.06</speed>
  <fix>3d</fix>
</trkpt>
<trkpt lat="-27.2744361" lon="151.2900645">
  <ele>346.03</ele>
  <time>2026-09-01T19:55:08Z</time>
  <course>188.51</course>
  <speed>0.05</speed>
  <fix>3d</fix>
</trkpt>
<trkpt lat="-27.2744363" lon="151.2900644">
  <ele>345.78</ele>
  <time>2026-09-01T19:55:08Z</time>
  <course>10.43</course>
  <speed>0.05</speed>
  <fix>3d</fix>
</trkpt>
<trkpt lat="-27.2744362" lon="151.2900645">
  <ele>345.93</ele>
  <time>2026-09-01T19:55:08Z</time>
  <course>188.15</course>
  <speed>0.04</speed>
  <fix>3d</fix>
</trkpt>
<trkpt lat="-27.2744364" lon="151.2900644">
  <ele>345.72</ele>
  <time>2026-09-01T19:55:08Z</time>
  <course>10.45</course>
  <speed>0.05099019513592785</speed>
  <fix>3d</fix>
</trkpt>
<trkpt lat="-27.2744362" lon="151.2900645">
  <ele>345.93</ele>
  <time>2026-09-01T19:55:08Z</time>
  <course>188.15</course>
  <speed>0.04</speed>
  <fix>3d</fix>
</trkpt>
<trkpt lat="-27.2744364" lon="151.2900644">
  <ele>345.67</ele>
  <time>2026-09-01T19:55:08Z</time>
  <course>10.46</course>
  <speed>0.0412310562561766</speed>
  <fix>3d</fix>
</trkpt>
<trkpt lat="-27.2744362" lon="151.2900645">
  <ele>345.83</ele>
  <time>2026-09-01T19:55:08Z</time>
  <course>187.63</course>
  <speed>0.04</speed>
  <fix>3d</fix>
</trkpt>
<trkpt lat="-27.2744364" lon="151.2900644">
  <ele>345.62</ele>
  <time>2026-09-01T19:55:08Z</time>
  <course>10.47</course>
  <speed>0.0412310562561766</speed>
  <fix>3d</fix>
</trkpt>
<trkpt lat="-27.2744362" lon="151.2900645">
  <ele>345.83</ele>
  <time>2026-09-01T19:55:08Z</time>
  <course>187.63</course>
  <speed>0.04</speed>
  <fix>3d</fix>
</trkpt>
<trkpt lat="-27.2744364" lon="151.2900644">
  <ele>345.57</ele>
  <time>2026-09-01T19:55:08Z</time>
  <course>10.47</course>
  <speed>0.0316227766016838</speed>
  <fix>3d</fix>
</trkpt>
<trkpt lat="-27.2744363" lon="151.2900645">
  <ele>345.72</ele>
  <time>2026-09-01T19:55:08Z</time>
  <course>186.79</course>
  <speed>0.03</speed>
  <fix>3d</fix>
</trkpt>
<trkpt lat="-27.2744365" lon="151.2900645">
  <ele>345.52</ele>
  <time>2026-09-01T19:55:08Z</time>
  <course>10.47</course>
  <speed>0.0316227766016838</speed>
  <fix>3d</fix>
</trkpt>
<trkpt lat="-27.2744363" lon="151.2900645">
  <ele>345.72</ele>
  <time>2026-09-01T19:55:08Z</time>
  <course>186.79</course>
  <speed>0.03</speed>
  <fix>3d</fix>
</trkpt>
<trkpt lat="-27.2744365" lon="151.2900645">
  <ele>345.47</ele>
  <time>2026-09-01T19:55:08Z</time>
  <course>10.47</course>
  <speed>0.0316227766016838</speed>
  <fix>3d</fix>
</trkpt>
<trkpt lat="-27.2744364" lon="151.2900645">
  <ele>345.63</ele>
  <time>2026-09-01T19:55:08Z</time>
  <course>185.87</course>
  <speed>0.02</speed>
  <fix>3d</fix>
</trkpt>
<trkpt lat="-27.2744365" lon="151.2900645">
  <ele>345.43</ele>
  <time>2026-09-01T19:55:08Z</time>
  <course>10.46</course>
  <speed>0.022360679774997897</speed>
  <fix>3d</fix>
</trkpt>
<trkpt lat="-27.2744364" lon="151.2900645">
  <ele>345.63</ele>
  <time>2026-09-01T19:55:08Z</time>
  <course>185.87</course>
  <speed>0.02</speed>
  <fix>3d</fix>
</trkpt>
<trkpt lat="-27.2744365" lon="151.2900645">
  <ele>345.38</ele>
  <time>2026-09-01T19:55:08Z</time>
  <course>10.45</course>
  <speed>0.022360679774997897</speed>
  <fix>3d</fix>
</trkpt>
<trkpt lat="-27.2744364" lon="151.2900645">
  <ele>345.53</ele>
  <time>2026-09-01T19:55:08Z</time>
  <course>183.66</course>
  <speed>0.01</speed>
  <fix>3d</fix>
</trkpt>
<trkpt lat="-27.2744365" lon="151.2900645">
  <ele>345.32</ele>
  <time>2026-09-01T19:55:08Z</time>
  <course>10.43</course>
  <speed>0.022360679774997897</speed>
  <fix>3d</fix>
</trkpt>
<trkpt lat="-27.2744364" lon="151.2900645">
  <ele>345.53</ele>
  <time>2026-09-01T19:55:08Z</time>
  <course>183.66</course>
  <speed>0.01</speed>
  <fix>3d</fix>
</trkpt>
<trkpt lat="-27.2744365" lon="151.2900645">
  <ele>345.27</ele>
  <time>2026-09-01T19:55:08Z</time>
  <course>10.42</course>
  <speed>0.01414213562373095</speed>
  <fix>3d</fix>
</trkpt>
<trkpt lat="-27.2744364" lon="151.2900645">
  <ele>345.43</ele>
  <time>2026-09-01T19:55:08Z</time>
  <course>174.79</course>
  <speed>0.0</speed>
  <fix>3d</fix>
</trkpt>
<trkpt lat="-27.2744365" lon="151.2900645">
  <ele>345.22</ele>
  <time>2026-09-01T19:55:08Z</time>
  <course>10.44</course>
  <speed>0.01414213562373095</speed>
  <fix>3d</fix>
</trkpt>
<trkpt lat="-27.2744364" lon="151.2900645">
  <ele>345.43</ele>
  <time>2026-09-01T19:55:08Z</time>
  <course>174.79</course>
  <speed>0.0</speed>
  <fix>3d</fix>
</trkpt>
<trkpt lat="-27.2744365" lon="151.2900645">
  <ele>345.17</ele>
  <time>2026-09-01T19:55:08Z</time>
  <course>10.48</course>
  <speed>0.01</speed>
  <fix>3d</fix>
</trkpt>
<trkpt lat="-27.2744364" lon="151.2900645">
  <ele>345.34</ele>
  <time>2026-09-01T19:55:08Z</time>
  <course>349.24</course>
  <speed>0.0</speed>
  <fix>3d</fix>
</trkpt>
<trkpt lat="-27.2744365" lon="151.2900645">
  <ele>345.12</ele>
  <time>2026-09-01T19:55:08Z</time>
  <course>10.54</course>
  <speed>0.01</speed>
  <fix>3d</fix>
</trkpt>
<trkpt lat="-27.2744364" lon="151.2900645">
  <ele>345.34</ele>
  <time>2026-09-01T19:55:08Z</time>
  <course>349.24</course>
  <speed>0.0</speed>
  <fix>3d</fix>
</trkpt>
<trkpt lat="-27.2744365" lon="151.2900645">
  <ele>345.07</ele>
  <time>2026-09-01T19:55:08Z</time>
  <course>10.59</course>
  <speed>0.0</speed>
  <fix>3d</fix>
</trkpt>
<trkpt lat="-27.2744364" lon="151.2900644">
  <ele>345.24</ele>
  <time>2026-09-01T19:55:08Z</time>
  <course>339.02</course>
  <speed>0.01</speed>
  <fix>3d</fix>
</trkpt>
<trkpt lat="-27.2744365" lon="151.2900645">
  <ele>345.02</ele>
  <time>2026-09-01T19:55:08Z</time>
  <course>10.64</course>
  <speed>0.0</speed>
  <fix>3d</fix>
</trkpt>
<trkpt lat="-27.2744364" lon="151.2900644">
  <ele>345.24</ele>
  <time>2026-09-01T19:55:08Z</time>
  <course>339.02</course>
  <speed>0.01</speed>
  <fix>3d</fix>
</trkpt>
<trkpt lat="-27.2744365" lon="151.2900645">
  <ele>344.97</ele>
  <time>2026-09-01T19:55:08Z</time>
  <course>10.68</course>
  <speed>0.0</speed>
  <fix>3d</fix>
</trkpt>
<trkpt lat="-27.2744364" lon="151.2900644">
  <ele>345.14</ele>
  <time>2026-09-01T19:55:08Z</time>
  <course>337.76</course>
  <speed>0.02</speed>
  <fix>3d</fix>
</trkpt>
<trkpt lat="-27.2744365" lon="151.2900645">
  <ele>344.92</ele>
  <time>2026-09-01T19:55:08Z</time>
  <course>10.69</course>
  <speed>0.0</speed>
  <fix>3d</fix>
</trkpt>
<trkpt lat="-27.2744364" lon="151.2900644">
  <ele>345.14</ele>
  <time>2026-09-01T19:55:08Z</time>
  <course>337.76</course>
  <speed>0.02</speed>
  <fix>3d</fix>
</trkpt>
<trkpt lat="-27.2744365" lon="151.2900645">
  <ele>344.87</ele>
  <time>2026-09-01T19:55:08Z</time>
  <course>10.7</course>
  <speed>0.01</speed>
  <fix>3d</fix>
</trkpt>
<trkpt lat="-27.2744364" lon="151.2900644">
  <ele>345.03</ele>
  <time>2026-09-01T19:55:08Z</time>
  <course>337.25</course>
  <speed>0.02</speed>
  <fix>3d</fix>
</trkpt>
<trkpt lat="-27.2744365" lon="151.2900645">
  <ele>344.82</ele>
  <time>2026-09-01T19:55:08Z</time>
  <course>10.69</course>
  <speed>0.01</speed>
  <fix>3d</fix>
</trkpt>
<trkpt lat="-27.2744364" lon="151.2900644">
  <ele>345.03</ele>
  <time>2026-09-01T19:55:08Z</time>
  <course>337.25</course>
  <speed>0.02</speed>
  <fix>3d</fix>
</trkpt>
<trkpt lat="-27.2744364" lon="151.2900645">
  <ele>344.77</ele>
  <time>2026-09-01T19:55:08Z</time>
  <course>10.68</course>
  <speed>0.01</speed>
  <fix>3d</fix>
</trkpt>
<trkpt lat="-27.2744364" lon="151.2900644">
  <ele>344.94</ele>
  <time>2026-09-01T19:55:08Z</time>
  <course>336.38</course>
  <speed>0.03</speed>
  <fix>3d</fix>
</trkpt>
<trkpt lat="-27.2744364" lon="151.2900645">
  <ele>344.73</ele>
  <time>2026-09-01T19:55:08Z</time>
  <course>10.66</course>
  <speed>0.01</speed>
  <fix>3d</fix>
</trkpt>
<trkpt lat="-27.2744364" lon="151.2900644">
  <ele>344.94</ele>
  <time>2026-09-01T19:55:08Z</time>
  <course>336.38</course>
  <speed>0.03</speed>
  <fix>3d</fix>
</trkpt>
<trkpt lat="-27.2744364" lon="151.2900645">
  <ele>344.68</ele>
  <time>2026-09-01T19:55:08Z</time>
  <course>10.65</course>
  <speed>0.02</speed>
  <fix>3d</fix>
</trkpt>
<trkpt lat="-27.2744363" lon="151.2900643">
  <ele>344.84</ele>
  <time>2026-09-01T19:55:08Z</time>
  <course>336.08</course>
  <speed>0.04</speed>
  <fix>3d</fix>
</trkpt>
<trkpt lat="-27.2744364" lon="151.2900645">
  <ele>344.63</ele>
  <time>2026-09-01T19:55:08Z</time>
  <course>10.63</course>
  <speed>0.02</speed>
  <fix>3d</fix>
</trkpt>
<trkpt lat="-27.2744363" lon="151.2900643">
  <ele>344.84</ele>
  <time>2026-09-01T19:55:08Z</time>
  <course>336.08</course>
  <speed>0.04</speed>
  <fix>3d</fix>
</trkpt>
<trkpt lat="-27.2744363" lon="151.2900645">
  <ele>344.58</ele>
  <time>2026-09-01T19:55:08Z</time>
  <course>10.62</course>
  <speed>0.02</speed>
  <fix>3d</fix>
</trkpt>
<trkpt lat="-27.2744362" lon="151.2900642">
  <ele>344.74</ele>
  <time>2026-09-01T19:55:08Z</time>
  <course>336.24</course>
  <speed>0.04</speed>
  <fix>3d</fix>
</trkpt>
<trkpt lat="-27.2744363" lon="151.2900644">
  <ele>344.54</ele>
  <time>2026-09-01T19:55:08Z</time>
  <course>10.61</course>
  <speed>0.02</speed>
  <fix>3d</fix>
</trkpt>
<trkpt lat="-27.2744362" lon="151.2900642">
  <ele>344.74</ele>
  <time>2026-09-01T19:55:08Z</time>
  <course>336.24</course>
  <speed>0.04</speed>
  <fix>3d</fix>
</trkpt>
<trkpt lat="-27.2744362" lon="151.2900644">
  <ele>344.49</ele>
  <time>2026-09-01T19:55:08Z</time>
  <course>10.6</course>
  <speed>0.02</speed>
  <fix>3d</fix>
</trkpt>
<trkpt lat="-27.2744362" lon="151.2900642">
  <ele>344.65</ele>
  <time>2026-09-01T19:55:08Z</time>
  <course>336.31</course>
  <speed>0.05</speed>
  <fix>3d</fix>
</trkpt>
<trkpt lat="-27.2744362" lon="151.2900644">
  <ele>344.44</ele>
  <time>2026-09-01T19:55:08Z</time>
  <course>10.6</course>
  <speed>0.02</speed>
  <fix>3d</fix>
</trkpt>
<trkpt lat="-27.2744362" lon="151.2900642">
  <ele>344.65</ele>
  <time>2026-09-01T19:55:08Z</time>
  <course>336.31</course>
  <speed>0.05</speed>
  <fix>3d</fix>
</trkpt>
<trkpt lat="-27.2744362" lon="151.2900643">
  <ele>344.39</ele>
  <time>2026-09-01T19:55:08Z</time>
  <course>10.6</course>
  <speed>0.02</speed>
  <fix>3d</fix>
</trkpt>
<trkpt lat="-27.2744361" lon="151.2900642">
  <ele>344.55</ele>
  <time>2026-09-01T19:55:08Z</time>
  <course>336.72</course>
  <speed>0.05</speed>
  <fix>3d</fix>
</trkpt>
<trkpt lat="-27.2744361" lon="151.2900643">
  <ele>344.34</ele>
  <time>2026-09-01T19:55:08Z</time>
  <course>10.6</course>
  <speed>0.03</speed>
  <fix>3d</fix>
</trkpt>
<trkpt lat="-27.2744361" lon="151.2900642">
  <ele>344.55</ele>
  <time>2026-09-01T19:55:08Z</time>
  <course>336.72</course>
  <speed>0.05</speed>
  <fix>3d</fix>
</trkpt>
<trkpt lat="-27.2744361" lon="151.2900643">
  <ele>344.29</ele>
  <time>2026-09-01T19:55:08Z</time>
  <course>10.61</course>
  <speed>0.03</speed>
  <fix>3d</fix>
</trkpt>
<trkpt lat="-27.274436" lon="151.2900642">
  <ele>344.45</ele>
  <time>2026-09-01T19:55:08Z</time>
  <course>337.81</course>
  <speed>0.05</speed>
  <fix>3d</fix>
</trkpt>
<trkpt lat="-27.274436" lon="151.2900643">
  <ele>344.24</ele>
  <time>2026-09-01T19:55:08Z</time>
  <course>10.62</course>
  <speed>0.03</speed>
  <fix>3d</fix>
</trkpt>
<trkpt lat="-27.274436" lon="151.2900642">
  <ele>344.45</ele>
  <time>2026-09-01T19:55:08Z</time>
  <course>337.81</course>
  <speed>0.05</speed>
  <fix>3d</fix>
</trkpt>
<trkpt lat="-27.274436" lon="151.2900642">
  <ele>344.19</ele>
  <time>2026-09-01T19:55:08Z</time>
  <course>10.63</course>
  <speed>0.03</speed>
  <fix>3d</fix>
</trkpt>
<trkpt lat="-27.2744359" lon="151.2900641">
  <ele>344.34</ele>
  <time>2026-09-01T19:55:08Z</time>
  <course>339.21</course>
  <speed>0.06</speed>
  <fix>3d</fix>
</trkpt>
<trkpt lat="-27.274436" lon="151.2900642">
  <ele>344.14</ele>
  <time>2026-09-01T19:55:08Z</time>
  <course>10.63</course>
  <speed>0.03</speed>
  <fix>3d</fix>
</trkpt>
<trkpt lat="-27.2744359" lon="151.2900641">
  <ele>344.34</ele>
  <time>2026-09-01T19:55:08Z</time>
  <course>339.21</course>
  <speed>0.06</speed>
  <fix>3d</fix>
</trkpt>
<trkpt lat="-27.2744359" lon="151.2900642">
  <ele>344.09</ele>
  <time>2026-09-01T19:55:08Z</time>
  <course>10.63</course>
  <speed>0.03</speed>
  <fix>3d</fix>
</trkpt>
<trkpt lat="-27.2744358" lon="151.2900641">
  <ele>344.24</ele>
  <time>2026-09-01T19:55:08Z</time>
  <course>340.41</course>
  <speed>0.06</speed>
  <fix>3d</fix>
</trkpt>
<trkpt lat="-27.2744359" lon="151.2900642">
  <ele>344.04</ele>
  <time>2026-09-01T19:55:08Z</time>
  <course>10.63</course>
  <speed>0.02</speed>
  <fix>3d</fix>
</trkpt>
<trkpt lat="-27.2744358" lon="151.2900641">
  <ele>344.24</ele>
  <time>2026-09-01T19:55:08Z</time>
  <course>340.41</course>
  <speed>0.06</speed>
  <fix>3d</fix>
</trkpt>
<trkpt lat="-27.2744358" lon="151.2900642">
  <ele>343.99</ele>
  <time>2026-09-01T19:55:08Z</time>
  <course>10.63</course>
  <speed>0.02</speed>
  <fix>3d</fix>
</trkpt>
<trkpt lat="-27.2744357" lon="151.2900641">
  <ele>344.14</ele>
  <time>2026-09-01T19:55:08Z</time>
  <course>341.13</course>
  <speed>0.06</speed>
  <fix>3d</fix>
</trkpt>
<trkpt lat="-27.2744358" lon="151.2900641">
  <ele>343.93</ele>
  <time>2026-09-01T19:55:08Z</time>
  <course>10.64</course>
  <speed>0.02</speed>
  <fix>3d</fix>
</trkpt>
<trkpt lat="-27.2744357" lon="151.2900641">
  <ele>344.14</ele>
  <time>2026-09-01T19:55:08Z</time>
  <course>341.13</course>
  <speed>0.06</speed>
  <fix>3d</fix>
</trkpt>
<trkpt lat="-27.2744357" lon="151.2900641">
  <ele>343.88</ele>
  <time>2026-09-01T19:55:08Z</time>
  <course>10.64</course>
  <speed>0.02</speed>
  <fix>3d</fix>
</trkpt>
<trkpt lat="-27.2744356" lon="151.290064">
  <ele>344.03</ele>
  <time>2026-09-01T19:55:08Z</time>
  <course>341.84</course>
  <speed>0.05</speed>
  <fix>3d</fix>
</trkpt>
<trkpt lat="-27.2744357" lon="151.2900641">
  <ele>343.83</ele>
  <time>2026-09-01T19:55:08Z</time>
  <course>10.65</course>
  <speed>0.02</speed>
  <fix>3d</fix>
</trkpt>
<trkpt lat="-27.2744356" lon="151.290064">
  <ele>344.03</ele>
  <time>2026-09-01T19:55:08Z</time>
  <course>341.84</course>
  <speed>0.05</speed>
  <fix>3d</fix>
</trkpt>
<trkpt lat="-27.2744356" lon="151.2900641">
  <ele>343.78</ele>
  <time>2026-09-01T19:55:08Z</time>
  <course>10.65</course>
  <speed>0.02</speed>
  <fix>3d</fix>
</trkpt>
<trkpt lat="-27.2744355" lon="151.290064">
  <ele>343.94</ele>
  <time>2026-09-01T19:55:08Z</time>
  <course>343.27</course>
  <speed>0.05</speed>
  <fix>3d</fix>
</trkpt>
<trkpt lat="-27.2744356" lon="151.2900641">
  <ele>343.73</ele>
  <time>2026-09-01T19:55:09Z</time>
  <course>10.64</course>
  <speed>0.02</speed>
  <fix>3d</fix>
</trkpt>
<trkpt lat="-27.2744355" lon="151.290064">
  <ele>343.94</ele>
  <time>2026-09-01T19:55:09Z</time>
  <course>343.27</course>
  <speed>0.05</speed>
  <fix>3d</fix>
</trkpt>
<trkpt lat="-27.2744356" lon="151.2900641">
  <ele>343.68</ele>
  <time>2026-09-01T19:55:09Z</time>
  <course>10.64</course>
  <speed>0.01</speed>
  <fix>3d</fix>
</trkpt>
<trkpt lat="-27.2744354" lon="151.290064">
  <ele>343.83</ele>
  <time>2026-09-01T19:55:09Z</time>
  <course>344.98</course>
  <speed>0.05</speed>
  <fix>3d</fix>
</trkpt>
<trkpt lat="-27.2744355" lon="151.2900641">
  <ele>343.63</ele>
  <time>2026-09-01T19:55:09Z</time>
  <course>10.63</course>
  <speed>0.01</speed>
  <fix>3d</fix>
</trkpt>
<trkpt lat="-27.2744354" lon="151.290064">
  <ele>343.83</ele>
  <time>2026-09-01T19:55:09Z</time>
  <course>344.98</course>
  <speed>0.05</speed>
  <fix>3d</fix>
</trkpt>
<trkpt lat="-27.2744355" lon="151.290064">
  <ele>343.58</ele>
  <time>2026-09-01T19:55:09Z</time>
  <course>10.63</course>
  <speed>0.01</speed>
  <fix>3d</fix>
</trkpt>
<trkpt lat="-27.2744353" lon="151.2900639">
  <ele>343.72</ele>
  <time>2026-09-01T19:55:09Z</time>
  <course>346.24</course>
  <speed>0.04</speed>
  <fix>3d</fix>
</trkpt>
<trkpt lat="-27.2744355" lon="151.290064">
  <ele>343.53</ele>
  <time>2026-09-01T19:55:09Z</time>
  <course>10.63</course>
  <speed>0.01</speed>
  <fix>3d</fix>
</trkpt>
<trkpt lat="-27.2744353" lon="151.2900639">
  <ele>343.72</ele>
  <time>2026-09-01T19:55:09Z</time>
  <course>346.24</course>
  <speed>0.04</speed>
  <fix>3d</fix>
</trkpt>
<trkpt lat="-27.2744354" lon="151.290064">
  <ele>343.48</ele>
  <time>2026-09-01T19:55:09Z</time>
  <course>10.64</course>
  <speed>0.0</speed>
  <fix>3d</fix>
</trkpt>
<trkpt lat="-27.2744352" lon="151.2900639">
  <ele>343.63</ele>
  <time>2026-09-01T19:55:09Z</time>
  <course>347.38</course>
  <speed>0.04</speed>
  <fix>3d</fix>
</trkpt>
<trkpt lat="-27.2744354" lon="151.290064">
  <ele>343.43</ele>
  <time>2026-09-01T19:55:09Z</time>
  <course>10.64</course>
  <speed>0.0</speed>
  <fix>3d</fix>
</trkpt>
<trkpt lat="-27.2744352" lon="151.2900639">
  <ele>343.63</ele>
  <time>2026-09-01T19:55:09Z</time>
  <course>347.38</course>
  <speed>0.04</speed>
  <fix>3d</fix>
</trkpt>
<trkpt lat="-27.2744354" lon="151.290064">
  <ele>343.38</ele>
  <time>2026-09-01T19:55:09Z</time>
  <course>10.65</course>
  <speed>0.0</speed>
  <fix>3d</fix>
</trkpt>
<trkpt lat="-27.2744351" lon="151.2900639">
  <ele>343.53</ele>
  <time>2026-09-01T19:55:09Z</time>
  <course>349.04</course>
  <speed>0.03</speed>
  <fix>3d</fix>
</trkpt>
<trkpt lat="-27.2744353" lon="151.290064">
  <ele>343.33</ele>
  <time>2026-09-01T19:55:09Z</time>
  <course>10.66</course>
  <speed>0.0</speed>
  <fix>3d</fix>
</trkpt>
<trkpt lat="-27.2744351" lon="151.2900639">
  <ele>343.53</ele>
  <time>2026-09-01T19:55:09Z</time>
  <course>349.04</course>
  <speed>0.03</speed>
  <fix>3d</fix>
</trkpt>
<trkpt lat="-27.2744353" lon="151.290064">
  <ele>343.28</ele>
  <time>2026-09-01T19:55:09Z</time>
  <course>10.68</course>
  <speed>0.0</speed>
  <fix>3d</fix>
</trkpt>
<trkpt lat="-27.2744351" lon="151.2900639">
  <ele>343.43</ele>
  <time>2026-09-01T19:55:09Z</time>
  <course>352.06</course>
  <speed>0.03</speed>
  <fix>3d</fix>
</trkpt>
<trkpt lat="-27.2744353" lon="151.290064">
  <ele>343.23</ele>
  <time>2026-09-01T19:55:09Z</time>
  <course>10.69</course>
  <speed>0.0</speed>
  <fix>3d</fix>
</trkpt>
<trkpt lat="-27.2744351" lon="151.2900639">
  <ele>343.43</ele>
  <time>2026-09-01T19:55:09Z</time>
  <course>352.06</course>
  <speed>0.03</speed>
  <fix>3d</fix>
</trkpt>
<trkpt lat="-27.2744353" lon="151.290064">
  <ele>343.18</ele>
  <time>2026-09-01T19:55:09Z</time>
  <course>10.71</course>
  <speed>0.0</speed>
  <fix>3d</fix>
</trkpt>
<trkpt lat="-27.274435" lon="151.2900639">
  <ele>343.33</ele>
  <time>2026-09-01T19:55:09Z</time>
  <course>356.42</course>
  <speed>0.02</speed>
  <fix>3d</fix>
</trkpt>
<trkpt lat="-27.2744352" lon="151.290064">
  <ele>343.13</ele>
  <time>2026-09-01T19:55:09Z</time>
  <course>10.72</course>
  <speed>0.0</speed>
  <fix>3d</fix>
</trkpt>
<trkpt lat="-27.274435" lon="151.2900639">
  <ele>343.33</ele>
  <time>2026-09-01T19:55:09Z</time>
  <course>356.42</course>
  <speed>0.02</speed>
  <fix>3d</fix>
</trkpt>
<trkpt lat="-27.2744352" lon="151.290064">
  <ele>343.08</ele>
  <time>2026-09-01T19:55:09Z</time>
  <course>10.72</course>
  <speed>0.01</speed>
  <fix>3d</fix>
</trkpt>
<trkpt lat="-27.274435" lon="151.2900639">
  <ele>343.23</ele>
  <time>2026-09-01T19:55:09Z</time>
  <course>0.84</course>
  <speed>0.02</speed>
  <fix>3d</fix>
</trkpt>
<trkpt lat="-27.2744352" lon="151.290064">
  <ele>343.03</ele>
  <time>2026-09-01T19:55:09Z</time>
  <course>10.72</course>
  <speed>0.01</speed>
  <fix>3d</fix>
</trkpt>
<trkpt lat="-27.274435" lon="151.2900639">
  <ele>343.23</ele>
  <time>2026-09-01T19:55:09Z</time>
  <course>0.84</course>
  <speed>0.02</speed>
  <fix>3d</fix>
</trkpt>
<trkpt lat="-27.2744352" lon="151.290064">
  <ele>343.02</ele>
  <time>2026-09-01T19:55:09Z</time>
  <course>10.72</course>
  <speed>0.02</speed>
  <fix>3d</fix>
</trkpt>
<trkpt lat="-27.274435" lon="151.2900639">
  <ele>343.14</ele>
  <time>2026-09-01T19:55:09Z</time>
  <course>5.6</course>
  <speed>0.01</speed>
  <fix>3d</fix>
</trkpt>
<trkpt lat="-27.2744352" lon="151.290064">
  <ele>343.03</ele>
  <time>2026-09-01T19:55:09Z</time>
  <course>10.72</course>
  <speed>0.03</speed>
  <fix>3d</fix>
</trkpt>
<trkpt lat="-27.274435" lon="151.2900639">
  <ele>343.14</ele>
  <time>2026-09-01T19:55:09Z</time>
  <course>5.6</course>
  <speed>0.01</speed>
  <fix>3d</fix>
</trkpt>
<trkpt lat="-27.2744352" lon="151.290064">
  <ele>343.03</ele>
  <time>2026-09-01T19:55:09Z</time>
  <course>10.72</course>
  <speed>0.03</speed>
  <fix>3d</fix>
</trkpt>
<trkpt lat="-27.274435" lon="151.2900639">
  <ele>343.08</ele>
  <time>2026-09-01T19:55:09Z</time>
  <course>9.28</course>
  <speed>0.0</speed>
  <fix>3d</fix>
</trkpt>
<trkpt lat="-27.2744352" lon="151.290064">
  <ele>343.04</ele>
  <time>2026-09-01T19:55:09Z</time>
  <course>10.72</course>
  <speed>0.02</speed>
  <fix>3d</fix>
</trkpt>
<trkpt lat="-27.274435" lon="151.2900639">
  <ele>343.08</ele>
  <time>2026-09-01T19:55:09Z</time>
  <course>9.28</course>
  <speed>0.0</speed>
  <fix>3d</fix>
</trkpt>
<trkpt lat="-27.2744352" lon="151.290064">
  <ele>343.03</ele>
  <time>2026-09-01T19:55:09Z</time>
  <course>10.71</course>
  <speed>0.02</speed>
  <fix>3d</fix>
</trkpt>
<trkpt lat="-27.274435" lon="151.2900639">
  <ele>343.09</ele>
  <time>2026-09-01T19:55:09Z</time>
  <course>189.28</course>
  <speed>0.0</speed>
  <fix>3d</fix>
</trkpt>
<trkpt lat="-27.2744352" lon="151.290064">
  <ele>343.03</ele>
  <time>2026-09-01T19:55:09Z</time>
  <course>10.71</course>
  <speed>0.02</speed>
  <fix>3d</fix>
</trkpt>
<trkpt lat="-27.274435" lon="151.2900639">
  <ele>343.09</ele>
  <time>2026-09-01T19:55:09Z</time>
  <course>189.28</course>
  <speed>0.0</speed>
  <fix>3d</fix>
</trkpt>
<trkpt lat="-27.2744352" lon="151.290064">
  <ele>343.02</ele>
  <time>2026-09-01T19:55:09Z</time>
  <course>10.71</course>
  <speed>0.02</speed>
  <fix>3d</fix>
</trkpt>
<trkpt lat="-27.274435" lon="151.2900639">
  <ele>343.1</ele>
  <time>2026-09-01T19:55:09Z</time>
  <course>189.29</course>
  <speed>0.0</speed>
  <fix>3d</fix>
</trkpt>
<trkpt lat="-27.2744352" lon="151.290064">
  <ele>343.02</ele>
  <time>2026-09-01T19:55:09Z</time>
  <course>10.71</course>
  <speed>0.02</speed>
  <fix>3d</fix>
</trkpt>
<trkpt lat="-27.274435" lon="151.2900639">
  <ele>343.1</ele>
  <time>2026-09-01T19:55:09Z</time>
  <course>189.29</course>
  <speed>0.0</speed>
  <fix>3d</fix>
</trkpt>
<trkpt lat="-27.2744352" lon="151.290064">
  <ele>343.02</ele>
  <time>2026-09-01T19:55:09Z</time>
  <course>10.71</course>
  <speed>0.02</speed>
  <fix>3d</fix>
</trkpt>
<trkpt lat="-27.274435" lon="151.2900639">
  <ele>343.09</ele>
  <time>2026-09-01T19:55:09Z</time>
  <course>9.27</course>
  <speed>0.0</speed>
  <fix>3d</fix>
</trkpt>
<trkpt lat="-27.2744352" lon="151.290064">
  <ele>343.02</ele>
  <time>2026-09-01T19:55:09Z</time>
  <course>10.71</course>
  <speed>0.02</speed>
  <fix>3d</fix>
</trkpt>
<trkpt lat="-27.274435" lon="151.2900639">
  <ele>343.09</ele>
  <time>2026-09-01T19:55:09Z</time>
  <course>9.27</course>
  <speed>0.0</speed>
  <fix>3d</fix>
</trkpt>
<trkpt lat="-27.2744352" lon="151.290064">
  <ele>343.02</ele>
  <time>2026-09-01T19:55:09Z</time>
  <course>10.71</course>
  <speed>0.02</speed>
  <fix>3d</fix>
</trkpt>
<trkpt lat="-27.274435" lon="151.2900639">
  <ele>343.09</ele>
  <time>2026-09-01T19:55:09Z</time>
  <course>189.47</course>
  <speed>0.0</speed>
  <fix>3d</fix>
</trkpt>
<trkpt lat="-27.2744352" lon="151.290064">
  <ele>343.02</ele>
  <time>2026-09-01T19:55:09Z</time>
  <course>10.71</course>
  <speed>0.02</speed>
  <fix>3d</fix>
</trkpt>
<trkpt lat="-27.274435" lon="151.2900639">
  <ele>343.09</ele>
  <time>2026-09-01T19:55:09Z</time>
  <course>189.47</course>
  <speed>0.0</speed>
  <fix>3d</fix>
</trkpt>
<trkpt lat="-27.2744352" lon="151.290064">
  <ele>343.02</ele>
  <time>2026-09-01T19:55:09Z</time>
  <course>10.71</course>
  <speed>0.02</speed>
  <fix>3d</fix>
</trkpt>
<trkpt lat="-27.274435" lon="151.2900639">
  <ele>343.09</ele>
  <time>2026-09-01T19:55:09Z</time>
  <course>189.38</course>
  <speed>0.0</speed>
  <fix>3d</fix>
</trkpt>
<trkpt lat="-27.2744352" lon="151.290064">
  <ele>343.03</ele>
  <time>2026-09-01T19:55:09Z</time>
  <course>10.71</course>
  <speed>0.02</speed>
  <fix>3d</fix>
</trkpt>
<trkpt lat="-27.274435" lon="151.2900639">
  <ele>343.09</ele>
  <time>2026-09-01T19:55:09Z</time>
  <course>189.38</course>
  <speed>0.0</speed>
  <fix>3d</fix>
</trkpt>
<trkpt lat="-27.2744352" lon="151.290064">
  <ele>343.03</ele>
  <time>2026-09-01T19:55:09Z</time>
  <course>10.71</course>
  <speed>0.02</speed>
  <fix>3d</fix>
</trkpt>
<trkpt lat="-27.274435" lon="151.2900639">
  <ele>343.09</ele>
  <time>2026-09-01T19:55:09Z</time>
  <course>8.92</course>
  <speed>0.0</speed>
  <fix>3d</fix>
</trkpt>
<trkpt lat="-27.2744352" lon="151.290064">
  <ele>343.03</ele>
  <time>2026-09-01T19:55:09Z</time>
  <course>10.71</course>
  <speed>0.02</speed>
  <fix>3d</fix>
</trkpt>
<trkpt lat="-27.274435" lon="151.2900639">
  <ele>343.09</ele>
  <time>2026-09-01T19:55:09Z</time>
  <course>8.92</course>
  <speed>0.0</speed>
  <fix>3d</fix>
</trkpt>
<trkpt lat="-27.2744352" lon="151.290064">
  <ele>343.03</ele>
  <time>2026-09-01T19:55:09Z</time>
  <course>10.71</course>
  <speed>0.02</speed>
  <fix>3d</fix>
</trkpt>
<trkpt lat="-27.274435" lon="151.2900639">
  <ele>343.09</ele>
  <time>2026-09-01T19:55:09Z</time>
  <course>9.03</course>
  <speed>0.0</speed>
  <fix>3d</fix>
</trkpt>
<trkpt lat="-27.2744352" lon="151.290064">
  <ele>343.03</ele>
  <time>2026-09-01T19:55:09Z</time>
  <course>10.71</course>
  <speed>0.02</speed>
  <fix>3d</fix>
</trkpt>
<trkpt lat="-27.274435" lon="151.2900639">
  <ele>343.09</ele>
  <time>2026-09-01T19:55:09Z</time>
  <course>9.03</course>
  <speed>0.0</speed>
  <fix>3d</fix>
</trkpt>
<trkpt lat="-27.2744352" lon="151.290064">
  <ele>343.03</ele>
  <time>2026-09-01T19:55:09Z</time>
  <course>10.71</course>
  <speed>0.02</speed>
  <fix>3d</fix>
</trkpt>
<trkpt lat="-27.274435" lon="151.2900639">
  <ele>343.09</ele>
  <time>2026-09-01T19:55:09Z</time>
  <course>190.48</course>
  <speed>0.0</speed>
  <fix>3d</fix>
</trkpt>
<trkpt lat="-27.2744352" lon="151.290064">
  <ele>343.03</ele>
  <time>2026-09-01T19:55:09Z</time>
  <course>10.7</course>
  <speed>0.02</speed>
  <fix>3d</fix>
</trkpt>
<trkpt lat="-27.274435" lon="151.2900639">
  <ele>343.09</ele>
  <time>2026-09-01T19:55:09Z</time>
  <course>190.48</course>
  <speed>0.0</speed>
  <fix>3d</fix>
</trkpt>
<trkpt lat="-27.2744352" lon="151.290064">
  <ele>343.03</ele>
  <time>2026-09-01T19:55:09Z</time>
  <course>10.7</course>
  <speed>0.02</speed>
  <fix>3d</fix>
</trkpt>
<trkpt lat="-27.274435" lon="151.2900639">
  <ele>343.09</ele>
  <time>2026-09-01T19:55:09Z</time>
  <course>194.55</course>
  <speed>0.0</speed>
  <fix>3d</fix>
</trkpt>
<trkpt lat="-27.2744352" lon="151.290064">
  <ele>343.03</ele>
  <time>2026-09-01T19:55:09Z</time>
  <course>10.7</course>
  <speed>0.02</speed>
  <fix>3d</fix>
</trkpt>
<trkpt lat="-27.274435" lon="151.2900639">
  <ele>343.09</ele>
  <time>2026-09-01T19:55:09Z</time>
  <course>194.55</course>
  <speed>0.0</speed>
  <fix>3d</fix>
</trkpt>
<trkpt lat="-27.2744352" lon="151.290064">
  <ele>343.03</ele>
  <time>2026-09-01T19:55:09Z</time>
  <course>10.7</course>
  <speed>0.02</speed>
  <fix>3d</fix>
</trkpt>
<trkpt lat="-27.274435" lon="151.2900639">
  <ele>343.09</ele>
  <time>2026-09-01T19:55:09Z</time>
  <course>2.56</course>
  <speed>0.0</speed>
  <fix>3d</fix>
</trkpt>
<trkpt lat="-27.2744352" lon="151.290064">
  <ele>343.03</ele>
  <time>2026-09-01T19:55:09Z</time>
  <course>10.7</course>
  <speed>0.02</speed>
  <fix>3d</fix>
</trkpt>
<trkpt lat="-27.274435" lon="151.2900639">
  <ele>343.09</ele>
  <time>2026-09-01T19:55:09Z</time>
  <course>2.56</course>
  <speed>0.0</speed>
  <fix>3d</fix>
</trkpt>
<trkpt lat="-27.2744352" lon="151.290064">
  <ele>343.03</ele>
  <time>2026-09-01T19:55:09Z</time>
  <course>10.7</course>
  <speed>0.02</speed>
  <fix>3d</fix>
</trkpt>
<trkpt lat="-27.274435" lon="151.2900639">
  <ele>343.09</ele>
  <time>2026-09-01T19:55:09Z</time>
  <course>123.52</course>
  <speed>0.0</speed>
  <fix>3d</fix>
</trkpt>
<trkpt lat="-27.2744352" lon="151.290064">
  <ele>343.03</ele>
  <time>2026-09-01T19:55:09Z</time>
  <course>10.7</course>
  <speed>0.02</speed>
  <fix>3d</fix>
</trkpt>
<trkpt lat="-27.274435" lon="151.2900639">
  <ele>343.09</ele>
  <time>2026-09-01T19:55:09Z</time>
  <course>123.52</course>
  <speed>0.0</speed>
  <fix>3d</fix>
</trkpt>
<trkpt lat="-27.2744352" lon="151.290064">
  <ele>343.03</ele>
  <time>2026-09-01T19:55:09Z</time>
  <course>10.7</course>
  <speed>0.02</speed>
  <fix>3d</fix>
</trkpt>
<trkpt lat="-27.274435" lon="151.2900639">
  <ele>343.09</ele>
  <time>2026-09-01T19:55:09Z</time>
  <course>157.15</course>
  <speed>0.0</speed>
  <fix>3d</fix>
</trkpt>
<trkpt lat="-27.2744352" lon="151.290064">
  <ele>343.04</ele>
  <time>2026-09-01T19:55:09Z</time>
  <course>10.7</course>
  <speed>0.02</speed>
  <fix>3d</fix>
</trkpt>
<trkpt lat="-27.274435" lon="151.2900639">
  <ele>343.09</ele>
  <time>2026-09-01T19:55:09Z</time>
  <course>157.15</course>
  <speed>0.0</speed>
  <fix>3d</fix>
</trkpt>
<trkpt lat="-27.2744352" lon="151.290064">
  <ele>343.04</ele>
  <time>2026-09-01T19:55:09Z</time>
  <course>10.7</course>
  <speed>0.02</speed>
  <fix>3d</fix>
</trkpt>
<trkpt lat="-27.274435" lon="151.2900639">
  <ele>343.09</ele>
  <time>2026-09-01T19:55:09Z</time>
  <course>194.38</course>
  <speed>0.0</speed>
  <fix>3d</fix>
</trkpt>
<trkpt lat="-27.2744352" lon="151.290064">
  <ele>343.04</ele>
  <time>2026-09-01T19:55:09Z</time>
  <course>10.69</course>
  <speed>0.02</speed>
  <fix>3d</fix>
</trkpt>
<trkpt lat="-27.274435" lon="151.2900639">
  <ele>343.09</ele>
  <time>2026-09-01T19:55:09Z</time>
  <course>194.38</course>
  <speed>0.0</speed>
  <fix>3d</fix>
</trkpt>
<trkpt lat="-27.2744352" lon="151.290064">
  <ele>343.04</ele>
  <time>2026-09-01T19:55:09Z</time>
  <course>10.69</course>
  <speed>0.02</speed>
  <fix>3d</fix>
</trkpt>
<trkpt lat="-27.274435" lon="151.2900639">
  <ele>343.09</ele>
  <time>2026-09-01T19:55:09Z</time>
  <course>300.04</course>
  <speed>0.0</speed>
  <fix>3d</fix>
</trkpt>
<trkpt lat="-27.2744352" lon="151.290064">
  <ele>343.04</ele>
  <time>2026-09-01T19:55:09Z</time>
  <course>10.69</course>
  <speed>0.02</speed>
  <fix>3d</fix>
</trkpt>
<trkpt lat="-27.274435" lon="151.2900639">
  <ele>343.09</ele>
  <time>2026-09-01T19:55:09Z</time>
  <course>300.04</course>
  <speed>0.0</speed>
  <fix>3d</fix>
</trkpt>
<trkpt lat="-27.2744352" lon="151.290064">
  <ele>343.04</ele>
  <time>2026-09-01T19:55:09Z</time>
  <course>10.69</course>
  <speed>0.02</speed>
  <fix>3d</fix>
</trkpt>
<trkpt lat="-27.274435" lon="151.2900639">
  <ele>343.09</ele>
  <time>2026-09-01T19:55:09Z</time>
  <course>189.16</course>
  <speed>0.0</speed>
  <fix>3d</fix>
</trkpt>
<trkpt lat="-27.2744352" lon="151.290064">
  <ele>343.04</ele>
  <time>2026-09-01T19:55:09Z</time>
  <course>10.69</course>
  <speed>0.02</speed>
  <fix>3d</fix>
</trkpt>
<trkpt lat="-27.274435" lon="151.2900639">
  <ele>343.09</ele>
  <time>2026-09-01T19:55:09Z</time>
  <course>189.16</course>
  <speed>0.0</speed>
  <fix>3d</fix>
</trkpt>
<trkpt lat="-27.2744352" lon="151.290064">
  <ele>343.03</ele>
  <time>2026-09-01T19:55:09Z</time>
  <course>10.69</course>
  <speed>0.02</speed>
  <fix>3d</fix>
</trkpt>
<trkpt lat="-27.274435" lon="151.2900639">
  <ele>343.09</ele>
  <time>2026-09-01T19:55:09Z</time>
  <course>149.94</course>
  <speed>0.0</speed>
  <fix>3d</fix>
</trkpt>
<trkpt lat="-27.2744352" lon="151.290064">
  <ele>343.03</ele>
  <time>2026-09-01T19:55:09Z</time>
  <course>10.69</course>
  <speed>0.02</speed>
  <fix>3d</fix>
</trkpt>
<trkpt lat="-27.274435" lon="151.2900639">
  <ele>343.09</ele>
  <time>2026-09-01T19:55:09Z</time>
  <course>149.94</course>
  <speed>0.0</speed>
  <fix>3d</fix>
</trkpt>
<trkpt lat="-27.2744352" lon="151.290064">
  <ele>343.03</ele>
  <time>2026-09-01T19:55:09Z</time>
  <course>10.69</course>
  <speed>0.02</speed>
  <fix>3d</fix>
</trkpt>
<trkpt lat="-27.274435" lon="151.2900639">
  <ele>343.09</ele>
  <time>2026-09-01T19:55:09Z</time>
  <course>151.71</course>
  <speed>0.0</speed>
  <fix>3d</fix>
</trkpt>
<trkpt lat="-27.2744352" lon="151.290064">
  <ele>343.03</ele>
  <time>2026-09-01T19:55:09Z</time>
  <course>10.69</course>
  <speed>0.02</speed>
  <fix>3d</fix>
</trkpt>
<trkpt lat="-27.274435" lon="151.2900639">
  <ele>343.09</ele>
  <time>2026-09-01T19:55:09Z</time>
  <course>151.71</course>
  <speed>0.0</speed>
  <fix>3d</fix>
</trkpt>
<trkpt lat="-27.2744352" lon="151.290064">
  <ele>343.04</ele>
  <time>2026-09-01T19:55:09Z</time>
  <course>10.69</course>
  <speed>0.02</speed>
  <fix>3d</fix>
</trkpt>
<trkpt lat="-27.274435" lon="151.2900639">
  <ele>343.09</ele>
  <time>2026-09-01T19:55:09Z</time>
  <course>155.23</course>
  <speed>0.0</speed>
  <fix>3d</fix>
</trkpt>
<trkpt lat="-27.2744352" lon="151.290064">
  <ele>343.04</ele>
  <time>2026-09-01T19:55:09Z</time>
  <course>10.69</course>
  <speed>0.02</speed>
  <fix>3d</fix>
</trkpt>
<trkpt lat="-27.274435" lon="151.2900639">
  <ele>343.09</ele>
  <time>2026-09-01T19:55:09Z</time>
  <course>155.23</course>
  <speed>0.0</speed>
  <fix>3d</fix>
</trkpt>
<trkpt lat="-27.2744352" lon="151.290064">
  <ele>343.04</ele>
  <time>2026-09-01T19:55:09Z</time>
  <course>10.68</course>
  <speed>0.02</speed>
  <fix>3d</fix>
</trkpt>
<trkpt lat="-27.274435" lon="151.2900639">
  <ele>343.09</ele>
  <time>2026-09-01T19:55:09Z</time>
  <course>332.75</course>
  <speed>0.0</speed>
  <fix>3d</fix>
</trkpt>
<trkpt lat="-27.2744352" lon="151.290064">
  <ele>343.04</ele>
  <time>2026-09-01T19:55:09Z</time>
  <course>10.68</course>
  <speed>0.02</speed>
  <fix>3d</fix>
</trkpt>
<trkpt lat="-27.274435" lon="151.2900639">
  <ele>343.09</ele>
  <time>2026-09-01T19:55:09Z</time>
  <course>332.75</course>
  <speed>0.0</speed>
  <fix>3d</fix>
</trkpt>
<trkpt lat="-27.2744352" lon="151.290064">
  <ele>343.04</ele>
  <time>2026-09-01T19:55:09Z</time>
  <course>10.68</course>
  <speed>0.02</speed>
  <fix>3d</fix>
</trkpt>
<trkpt lat="-27.274435" lon="151.2900639">
  <ele>343.09</ele>
  <time>2026-09-01T19:55:09Z</time>
  <course>336.58</course>
  <speed>0.0</speed>
  <fix>3d</fix>
</trkpt>
<trkpt lat="-27.2744352" lon="151.290064">
  <ele>343.04</ele>
  <time>2026-09-01T19:55:09Z</time>
  <course>10.68</course>
  <speed>0.02</speed>
  <fix>3d</fix>
</trkpt>
<trkpt lat="-27.274435" lon="151.2900639">
  <ele>343.09</ele>
  <time>2026-09-01T19:55:09Z</time>
  <course>336.58</course>
  <speed>0.0</speed>
  <fix>3d</fix>
</trkpt>
<trkpt lat="-27.2744352" lon="151.290064">
  <ele>343.04</ele>
  <time>2026-09-01T19:55:09Z</time>
  <course>10.68</course>
  <speed>0.02</speed>
  <fix>3d</fix>
</trkpt>
<trkpt lat="-27.274435" lon="151.2900639">
  <ele>343.09</ele>
  <time>2026-09-01T19:55:09Z</time>
  <course>153.37</course>
  <speed>0.0</speed>
  <fix>3d</fix>
</trkpt>
<trkpt lat="-27.2744352" lon="151.290064">
  <ele>343.04</ele>
  <time>2026-09-01T19:55:09Z</time>
  <course>10.68</course>
  <speed>0.02</speed>
  <fix>3d</fix>
</trkpt>
<trkpt lat="-27.274435" lon="151.2900639">
  <ele>343.09</ele>
  <time>2026-09-01T19:55:09Z</time>
  <course>153.37</course>
  <speed>0.0</speed>
  <fix>3d</fix>
</trkpt>
<trkpt lat="-27.2744352" lon="151.290064">
  <ele>343.04</ele>
  <time>2026-09-01T19:55:09Z</time>
  <course>10.68</course>
  <speed>0.02</speed>
  <fix>3d</fix>
</trkpt>
<trkpt lat="-27.274435" lon="151.2900639">
  <ele>343.09</ele>
  <time>2026-09-01T19:55:09Z</time>
  <course>162.6</course>
  <speed>0.0</speed>
  <fix>3d</fix>
</trkpt>
<trkpt lat="-27.2744352" lon="151.290064">
  <ele>343.04</ele>
  <time>2026-09-01T19:55:09Z</time>
  <course>10.68</course>
  <speed>0.02</speed>
  <fix>3d</fix>
</trkpt>
<trkpt lat="-27.274435" lon="151.2900639">
  <ele>343.09</ele>
  <time>2026-09-01T19:55:09Z</time>
  <course>162.6</course>
  <speed>0.0</speed>
  <fix>3d</fix>
</trkpt>
<trkpt lat="-27.2744352" lon="151.290064">
  <ele>343.04</ele>
  <time>2026-09-01T19:55:09Z</time>
  <course>10.68</course>
  <speed>0.02</speed>
  <fix>3d</fix>
</trkpt>
<trkpt lat="-27.274435" lon="151.2900639">
  <ele>343.09</ele>
  <time>2026-09-01T19:55:09Z</time>
  <course>333.86</course>
  <speed>0.0</speed>
  <fix>3d</fix>
</trkpt>
<trkpt lat="-27.2744352" lon="151.290064">
  <ele>343.04</ele>
  <time>2026-09-01T19:55:09Z</time>
  <course>10.67</course>
  <speed>0.02</speed>
  <fix>3d</fix>
</trkpt>
<trkpt lat="-27.274435" lon="151.2900639">
  <ele>343.09</ele>
  <time>2026-09-01T19:55:09Z</time>
  <course>333.86</course>
  <speed>0.0</speed>
  <fix>3d</fix>
</trkpt>
<trkpt lat="-27.2744352" lon="151.290064">
  <ele>343.04</ele>
  <time>2026-09-01T19:55:09Z</time>
  <course>10.67</course>
  <speed>0.02</speed>
  <fix>3d</fix>
</trkpt>
<trkpt lat="-27.274435" lon="151.2900639">
  <ele>343.09</ele>
  <time>2026-09-01T19:55:09Z</time>
  <course>145.1</course>
  <speed>0.0</speed>
  <fix>3d</fix>
</trkpt>
<trkpt lat="-27.2744352" lon="151.290064">
  <ele>343.04</ele>
  <time>2026-09-01T19:55:09Z</time>
  <course>10.67</course>
  <speed>0.02</speed>
  <fix>3d</fix>
</trkpt>
<trkpt lat="-27.274435" lon="151.2900639">
  <ele>343.09</ele>
  <time>2026-09-01T19:55:09Z</time>
  <course>145.1</course>
  <speed>0.0</speed>
  <fix>3d</fix>
</trkpt>
<trkpt lat="-27.2744352" lon="151.290064">
  <ele>343.04</ele>
  <time>2026-09-01T19:55:09Z</time>
  <course>10.67</course>
  <speed>0.02</speed>
  <fix>3d</fix>
</trkpt>
<trkpt lat="-27.274435" lon="151.2900639">
  <ele>343.09</ele>
  <time>2026-09-01T19:55:09Z</time>
  <course>154.35</course>
  <speed>0.0</speed>
  <fix>3d</fix>
</trkpt>
<trkpt lat="-27.2744352" lon="151.290064">
  <ele>343.04</ele>
  <time>2026-09-01T19:55:09Z</time>
  <course>10.67</course>
  <speed>0.02</speed>
  <fix>3d</fix>
</trkpt>
<trkpt lat="-27.274435" lon="151.2900639">
  <ele>343.09</ele>
  <time>2026-09-01T19:55:09Z</time>
  <course>154.35</course>
  <speed>0.0</speed>
  <fix>3d</fix>
</trkpt>
<trkpt lat="-27.2744352" lon="151.290064">
  <ele>343.04</ele>
  <time>2026-09-01T19:55:09Z</time>
  <course>10.67</course>
  <speed>0.02</speed>
  <fix>3d</fix>
</trkpt>
<trkpt lat="-27.274435" lon="151.2900639">
  <ele>343.09</ele>
  <time>2026-09-01T19:55:09Z</time>
  <course>331.13</course>
  <speed>0.0</speed>
  <fix>3d</fix>
</trkpt>
<trkpt lat="-27.2744352" lon="151.290064">
  <ele>343.05</ele>
  <time>2026-09-01T19:55:09Z</time>
  <course>10.67</course>
  <speed>0.02</speed>
  <fix>3d</fix>
</trkpt>
<trkpt lat="-27.274435" lon="151.2900639">
  <ele>343.09</ele>
  <time>2026-09-01T19:55:09Z</time>
  <course>331.13</course>
  <speed>0.0</speed>
  <fix>3d</fix>
</trkpt>
<trkpt lat="-27.2744352" lon="151.290064">
  <ele>343.05</ele>
  <time>2026-09-01T19:55:09Z</time>
  <course>10.67</course>
  <speed>0.02</speed>
  <fix>3d</fix>
</trkpt>
<trkpt lat="-27.274435" lon="151.2900639">
  <ele>343.09</ele>
  <time>2026-09-01T19:55:09Z</time>
  <course>334.96</course>
  <speed>0.0</speed>
  <fix>3d</fix>
</trkpt>
<trkpt lat="-27.2744352" lon="151.290064">
  <ele>343.05</ele>
  <time>2026-09-01T19:55:09Z</time>
  <course>10.67</course>
  <speed>0.02</speed>
  <fix>3d</fix>
</trkpt>
<trkpt lat="-27.274435" lon="151.2900639">
  <ele>343.09</ele>
  <time>2026-09-01T19:55:09Z</time>
  <course>334.96</course>
  <speed>0.0</speed>
  <fix>3d</fix>
</trkpt>
<trkpt lat="-27.2744352" lon="151.290064">
  <ele>343.05</ele>
  <time>2026-09-01T19:55:09Z</time>
  <course>10.66</course>
  <speed>0.02</speed>
  <fix>3d</fix>
</trkpt>
<trkpt lat="-27.274435" lon="151.2900639">
  <ele>343.09</ele>
  <time>2026-09-01T19:55:09Z</time>
  <course>152.51</course>
  <speed>0.0</speed>
  <fix>3d</fix>
</trkpt>
<trkpt lat="-27.2744352" lon="151.290064">
  <ele>343.05</ele>
  <time>2026-09-01T19:55:09Z</time>
  <course>10.66</course>
  <speed>0.02</speed>
  <fix>3d</fix>
</trkpt>
<trkpt lat="-27.274435" lon="151.2900639">
  <ele>343.09</ele>
  <time>2026-09-01T19:55:09Z</time>
  <course>152.51</course>
  <speed>0.0</speed>
  <fix>3d</fix>
</trkpt>
<trkpt lat="-27.2744352" lon="151.290064">
  <ele>343.05</ele>
  <time>2026-09-01T19:55:09Z</time>
  <course>10.66</course>
  <speed>0.02</speed>
  <fix>3d</fix>
</trkpt>
<trkpt lat="-27.274435" lon="151.2900639">
  <ele>343.09</ele>
  <time>2026-09-01T19:55:09Z</time>
  <course>156.04</course>
  <speed>0.0</speed>
  <fix>3d</fix>
</trkpt>
<trkpt lat="-27.2744352" lon="151.290064">
  <ele>343.05</ele>
  <time>2026-09-01T19:55:09Z</time>
  <course>10.67</course>
  <speed>0.02</speed>
  <fix>3d</fix>
</trkpt>
<trkpt lat="-27.274435" lon="151.2900639">
  <ele>343.09</ele>
  <time>2026-09-01T19:55:09Z</time>
  <course>156.04</course>
  <speed>0.0</speed>
  <fix>3d</fix>
</trkpt>
<trkpt lat="-27.2744352" lon="151.290064">
  <ele>343.09</ele>
  <time>2026-09-01T19:55:09Z</time>
  <course>10.71</course>
  <speed>0.02</speed>
  <fix>3d</fix>
</trkpt>
<trkpt lat="-27.274435" lon="151.2900639">
  <ele>343.09</ele>
  <time>2026-09-01T19:55:09Z</time>
  <course>333.21</course>
  <speed>0.0</speed>
  <fix>3d</fix>
</trkpt>
<trkpt lat="-27.2744352" lon="151.290064">
  <ele>343.09</ele>
  <time>2026-09-01T19:55:09Z</time>
  <course>10.76</course>
  <speed>0.02</speed>
  <fix>3d</fix>
</trkpt>
<trkpt lat="-27.274435" lon="151.2900639">
  <ele>343.09</ele>
  <time>2026-09-01T19:55:09Z</time>
  <course>333.21</course>
  <speed>0.0</speed>
  <fix>3d</fix>
</trkpt>
<trkpt lat="-27.2744352" lon="151.290064">
  <ele>343.09</ele>
  <time>2026-09-01T19:55:09Z</time>
  <course>10.8</course>
  <speed>0.02</speed>
  <fix>3d</fix>
</trkpt>
<trkpt lat="-27.274435" lon="151.2900639">
  <ele>343.09</ele>
  <time>2026-09-01T19:55:09Z</time>
  <course>339.3</course>
  <speed>0.0</speed>
  <fix>3d</fix>
</trkpt>
<trkpt lat="-27.2744352" lon="151.290064">
  <ele>343.09</ele>
  <time>2026-09-01T19:55:09Z</time>
  <course>10.85</course>
  <speed>0.02</speed>
  <fix>3d</fix>
</trkpt>
<trkpt lat="-27.274435" lon="151.2900639">
  <ele>343.09</ele>
  <time>2026-09-01T19:55:09Z</time>
  <course>339.3</course>
  <speed>0.0</speed>
  <fix>3d</fix>
</trkpt>
<trkpt lat="-27.2744352" lon="151.290064">
  <ele>343.09</ele>
  <time>2026-09-01T19:55:09Z</time>
  <course>10.89</course>
  <speed>0.022360679774997897</speed>
  <fix>3d</fix>
</trkpt>
<trkpt lat="-27.274435" lon="151.2900639">
  <ele>343.09</ele>
  <time>2026-09-01T19:55:09Z</time>
  <course>153.71</course>
  <speed>0.0</speed>
  <fix>3d</fix>
</trkpt>
<trkpt lat="-27.2744352" lon="151.290064">
  <ele>343.09</ele>
  <time>2026-09-01T19:55:09Z</time>
  <course>10.92</course>
  <speed>0.022360679774997897</speed>
  <fix>3d</fix>
</trkpt>
<trkpt lat="-27.274435" lon="151.2900639">
  <ele>343.09</ele>
  <time>2026-09-01T19:55:09Z</time>
  <course>153.71</course>
  <speed>0.0</speed>
  <fix>3d</fix>
</trkpt>
<trkpt lat="-27.2744352" lon="151.290064">
  <ele>343.09</ele>
  <time>2026-09-01T19:55:09Z</time>
  <course>10.95</course>
  <speed>0.022360679774997897</speed>
  <fix>3d</fix>
</trkpt>
<trkpt lat="-27.274435" lon="151.2900639">
  <ele>343.09</ele>
  <time>2026-09-01T19:55:09Z</time>
  <course>312.78</course>
  <speed>0.0</speed>
  <fix>3d</fix>
</trkpt>
<trkpt lat="-27.2744352" lon="151.290064">
  <ele>343.09</ele>
  <time>2026-09-01T19:55:09Z</time>
  <course>10.99</course>
  <speed>0.022360679774997897</speed>
  <fix>3d</fix>
</trkpt>
<trkpt lat="-27.274435" lon="151.2900639">
  <ele>343.09</ele>
  <time>2026-09-01T19:55:09Z</time>
  <course>312.78</course>
  <speed>0.0</speed>
  <fix>3d</fix>
</trkpt>
<trkpt lat="-27.2744352" lon="151.290064">
  <ele>343.1</ele>
  <time>2026-09-01T19:55:09Z</time>
  <course>11.01</course>
  <speed>0.022360679774997897</speed>
  <fix>3d</fix>
</trkpt>
<trkpt lat="-27.274435" lon="151.2900639">
  <ele>343.09</ele>
  <time>2026-09-01T19:55:09Z</time>
  <course>334.1</course>
  <speed>0.0</speed>
  <fix>3d</fix>
</trkpt>
<trkpt lat="-27.2744352" lon="151.290064">
  <ele>343.1</ele>
  <time>2026-09-01T19:55:09Z</time>
  <course>11.04</course>
  <speed>0.022360679774997897</speed>
  <fix>3d</fix>
</trkpt>
<trkpt lat="-27.274435" lon="151.2900639">
  <ele>343.09</ele>
  <time>2026-09-01T19:55:09Z</time>
  <course>334.1</course>
  <speed>0.0</speed>
  <fix>3d</fix>
</trkpt>
<trkpt lat="-27.2744352" lon="151.290064">
  <ele>343.11</ele>
  <time>2026-09-01T19:55:09Z</time>
  <course>11.06</course>
  <speed>0.022360679774997897</speed>
  <fix>3d</fix>
</trkpt>
<trkpt lat="-27.274435" lon="151.2900639">
  <ele>343.09</ele>
  <time>2026-09-01T19:55:09Z</time>
  <course>150.65</course>
  <speed>0.0</speed>
  <fix>3d</fix>
</trkpt>
<trkpt lat="-27.2744352" lon="151.290064">
  <ele>343.11</ele>
  <time>2026-09-01T19:55:09Z</time>
  <course>11.09</course>
  <speed>0.022360679774997897</speed>
  <fix>3d</fix>
</trkpt>
<trkpt lat="-27.274435" lon="151.2900639">
  <ele>343.09</ele>
  <time>2026-09-01T19:55:09Z</time>
  <course>150.65</course>
  <speed>0.0</speed>
  <fix>3d</fix>
</trkpt>
<trkpt lat="-27.2744352" lon="151.290064">
  <ele>343.12</ele>
  <time>2026-09-01T19:55:09Z</time>
  <course>11.11</course>
  <speed>0.02</speed>
  <fix>3d</fix>
</trkpt>
<trkpt lat="-27.274435" lon="151.2900639">
  <ele>343.09</ele>
  <time>2026-09-01T19:55:09Z</time>
  <course>154.8</course>
  <speed>0.0</speed>
  <fix>3d</fix>
</trkpt>
<trkpt lat="-27.2744352" lon="151.290064">
  <ele>343.13</ele>
  <time>2026-09-01T19:55:09Z</time>
  <course>11.13</course>
  <speed>0.02</speed>
  <fix>3d</fix>
</trkpt>
<trkpt lat="-27.274435" lon="151.2900639">
  <ele>343.09</ele>
  <time>2026-09-01T19:55:09Z</time>
  <course>154.8</course>
  <speed>0.0</speed>
  <fix>3d</fix>
</trkpt>
<trkpt lat="-27.2744352" lon="151.290064">
  <ele>343.13</ele>
  <time>2026-09-01T19:55:09Z</time>
  <course>11.15</course>
  <speed>0.01</speed>
  <fix>3d</fix>
</trkpt>
<trkpt lat="-27.274435" lon="151.2900639">
  <ele>343.09</ele>
  <time>2026-09-01T19:55:09Z</time>
  <course>332.07</course>
  <speed>0.0</speed>
  <fix>3d</fix>
</trkpt>
<trkpt lat="-27.2744352" lon="151.290064">
  <ele>343.13</ele>
  <time>2026-09-01T19:55:09Z</time>
  <course>11.17</course>
  <speed>0.01</speed>
  <fix>3d</fix>
</trkpt>
<trkpt lat="-27.274435" lon="151.2900639">
  <ele>343.09</ele>
  <time>2026-09-01T19:55:09Z</time>
  <course>332.07</course>
  <speed>0.0</speed>
  <fix>3d</fix>
</trkpt>
<trkpt lat="-27.2744352" lon="151.290064">
  <ele>343.13</ele>
  <time>2026-09-01T19:55:09Z</time>
  <course>11.19</course>
  <speed>0.01</speed>
  <fix>3d</fix>
</trkpt>
<trkpt lat="-27.274435" lon="151.2900639">
  <ele>343.09</ele>
  <time>2026-09-01T19:55:09Z</time>
  <course>334.89</course>
  <speed>0.0</speed>
  <fix>3d</fix>
</trkpt>
<trkpt lat="-27.2744352" lon="151.290064">
  <ele>343.13</ele>
  <time>2026-09-01T19:55:09Z</time>
  <course>11.21</course>
  <speed>0.01</speed>
  <fix>3d</fix>
</trkpt>
<trkpt lat="-27.274435" lon="151.2900639">
  <ele>343.09</ele>
  <time>2026-09-01T19:55:09Z</time>
  <course>334.89</course>
  <speed>0.0</speed>
  <fix>3d</fix>
</trkpt>
<trkpt lat="-27.2744352" lon="151.290064">
  <ele>343.13</ele>
  <time>2026-09-01T19:55:09Z</time>
  <course>11.22</course>
  <speed>0.01</speed>
  <fix>3d</fix>
</trkpt>
<trkpt lat="-27.274435" lon="151.2900639">
  <ele>343.09</ele>
  <time>2026-09-01T19:55:09Z</time>
  <course>335.39</course>
  <speed>0.0</speed>
  <fix>3d</fix>
</trkpt>
<trkpt lat="-27.2744352" lon="151.290064">
  <ele>343.13</ele>
  <time>2026-09-01T19:55:09Z</time>
  <course>11.24</course>
  <speed>0.01</speed>
  <fix>3d</fix>
</trkpt>
<trkpt lat="-27.274435" lon="151.2900639">
  <ele>343.09</ele>
  <time>2026-09-01T19:55:09Z</time>
  <course>335.39</course>
  <speed>0.0</speed>
  <fix>3d</fix>
</trkpt>
<trkpt lat="-27.2744352" lon="151.290064">
  <ele>343.14</ele>
  <time>2026-09-01T19:55:09Z</time>
  <course>11.25</course>
  <speed>0.01</speed>
  <fix>3d</fix>
</trkpt>
<trkpt lat="-27.274435" lon="151.2900639">
  <ele>343.09</ele>
  <time>2026-09-01T19:55:09Z</time>
  <course>335.53</course>
  <speed>0.0</speed>
  <fix>3d</fix>
</trkpt>
<trkpt lat="-27.2744352" lon="151.290064">
  <ele>343.14</ele>
  <time>2026-09-01T19:55:09Z</time>
  <course>11.27</course>
  <speed>0.01</speed>
  <fix>3d</fix>
</trkpt>
<trkpt lat="-27.274435" lon="151.2900639">
  <ele>343.09</ele>
  <time>2026-09-01T19:55:09Z</time>
  <course>335.53</course>
  <speed>0.0</speed>
  <fix>3d</fix>
</trkpt>
<trkpt lat="-27.2744352" lon="151.290064">
  <ele>343.14</ele>
  <time>2026-09-01T19:55:09Z</time>
  <course>11.28</course>
  <speed>0.01</speed>
  <fix>3d</fix>
</trkpt>
<trkpt lat="-27.274435" lon="151.2900639">
  <ele>343.09</ele>
  <time>2026-09-01T19:55:09Z</time>
  <course>335.55</course>
  <speed>0.0</speed>
  <fix>3d</fix>
</trkpt>
<trkpt lat="-27.2744352" lon="151.290064">
  <ele>343.14</ele>
  <time>2026-09-01T19:55:09Z</time>
  <course>11.3</course>
  <speed>0.01</speed>
  <fix>3d</fix>
</trkpt>
<trkpt lat="-27.274435" lon="151.2900639">
  <ele>343.09</ele>
  <time>2026-09-01T19:55:09Z</time>
  <course>335.55</course>
  <speed>0.0</speed>
  <fix>3d</fix>
</trkpt>
<trkpt lat="-27.2744352" lon="151.290064">
  <ele>343.15</ele>
  <time>2026-09-01T19:55:09Z</time>
  <course>11.31</course>
  <speed>0.01</speed>
  <fix>3d</fix>
</trkpt>
<trkpt lat="-27.274435" lon="151.2900639">
  <ele>343.09</ele>
  <time>2026-09-01T19:55:09Z</time>
  <course>335.55</course>
  <speed>0.0</speed>
  <fix>3d</fix>
</trkpt>
<trkpt lat="-27.2744352" lon="151.290064">
  <ele>343.15</ele>
  <time>2026-09-01T19:55:09Z</time>
  <course>11.32</course>
  <speed>0.01</speed>
  <fix>3d</fix>
</trkpt>
<trkpt lat="-27.274435" lon="151.2900639">
  <ele>343.09</ele>
  <time>2026-09-01T19:55:09Z</time>
  <course>335.55</course>
  <speed>0.0</speed>
  <fix>3d</fix>
</trkpt>
<trkpt lat="-27.2744352" lon="151.290064">
  <ele>343.16</ele>
  <time>2026-09-01T19:55:09Z</time>
  <course>11.34</course>
  <speed>0.01</speed>
  <fix>3d</fix>
</trkpt>
<trkpt lat="-27.274435" lon="151.2900639">
  <ele>343.09</ele>
  <time>2026-09-01T19:55:09Z</time>
  <course>335.55</course>
  <speed>0.0</speed>
  <fix>3d</fix>
</trkpt>
<trkpt lat="-27.2744385" lon="151.290064">
  <ele>342.017</ele>
  <time>2026-09-01T19:55:10Z</time>
  <course>0.0</course>
  <speed>0.59</speed>
  <fix>3d</fix>
</trkpt>
<trkpt lat="-27.274437" lon="151.290064">
  <ele>342.016</ele>
  <time>2026-09-01T19:55:10Z</time>
  <course>0.02</course>
  <speed>0.99</speed>
  <fix>3d</fix>
</trkpt>
<trkpt lat="-27.2744352" lon="151.290064">
  <ele>342.016</ele>
  <time>2026-09-01T19:55:10Z</time>
  <course>0.04</course>
  <speed>0.99</speed>
  <fix>3d</fix>
</trkpt>
<trkpt lat="-27.2744334" lon="151.290064">
  <ele>342.016</ele>
  <time>2026-09-01T19:55:10Z</time>
  <course>0.07</course>
  <speed>0.99</speed>
  <fix>3d</fix>
</trkpt>
<trkpt lat="-27.2744316" lon="151.290064">
  <ele>342.016</ele>
  <time>2026-09-01T19:55:10Z</time>
  <course>0.09</course>
  <speed>0.99</speed>
  <fix>3d</fix>
</trkpt>
<trkpt lat="-27.2744298" lon="151.290064">
  <ele>342.016</ele>
  <time>2026-09-01T19:55:10Z</time>
  <course>0.11</course>
  <speed>0.99</speed>
  <fix>3d</fix>
</trkpt>
<trkpt lat="-27.274428" lon="151.290064">
  <ele>342.016</ele>
  <time>2026-09-01T19:55:10Z</time>
  <course>0.14</course>
  <speed>0.99</speed>
  <fix>3d</fix>
</trkpt>
<trkpt lat="-27.2744262" lon="151.290064">
  <ele>342.016</ele>
  <time>2026-09-01T19:55:10Z</time>
  <course>0.16</course>
  <speed>0.99</speed>
  <fix>3d</fix>
</trkpt>
<trkpt lat="-27.2744244" lon="151.290064">
  <ele>342.016</ele>
  <time>2026-09-01T19:55:10Z</time>
  <course>0.18</course>
  <speed>0.99</speed>
  <fix>3d</fix>
</trkpt>
<trkpt lat="-27.2744226" lon="151.290064">
  <ele>342.016</ele>
  <time>2026-09-01T19:55:10Z</time>
  <course>0.21</course>
  <speed>0.99</speed>
  <fix>3d</fix>
</trkpt>
<trkpt lat="-27.2744208" lon="151.290064">
  <ele>342.015</ele>
  <time>2026-09-01T19:55:10Z</time>
  <course>0.23</course>
  <speed>0.99</speed>
  <fix>3d</fix>
</trkpt>
<trkpt lat="-27.274419" lon="151.290064">
  <ele>342.015</ele>
  <time>2026-09-01T19:55:10Z</time>
  <course>0.25</course>
  <speed>0.99</speed>
  <fix>3d</fix>
</trkpt>
<trkpt lat="-27.2744172" lon="151.290064">
  <ele>342.015</ele>
  <time>2026-09-01T19:55:10Z</time>
  <course>0.27</course>
  <speed>0.99</speed>
  <fix>3d</fix>
</trkpt>
<trkpt lat="-27.2744154" lon="151.290064">
  <ele>342.015</ele>
  <time>2026-09-01T19:55:10Z</time>
  <course>0.3</course>
  <speed>0.99</speed>
  <fix>3d</fix>
</trkpt>
<trkpt lat="-26.9720383" lon="149.6127921">
  <ele>339.28</ele>
  <time>2026-09-01T19:55:10Z</time>
  <course>0.3</course>
  <speed>0.98</speed>
  <fix>3d</fix>
</trkpt>
<trkpt lat="-27.2744136" lon="151.290064">
  <ele>342.015</ele>
  <time>2026-09-01T19:55:10Z</time>
  <course>0.32</course>
  <speed>0.99</speed>
  <fix>3d</fix>
</trkpt>
<trkpt lat="-26.9720383" lon="149.6127921">
  <ele>339.28</ele>
  <time>2026-09-01T19:55:10Z</time>
  <course>0.3</course>
  <speed>0.98</speed>
  <fix>3d</fix>
</trkpt>
<trkpt lat="-27.2744125" lon="151.290064">
  <ele>-0.02</ele>
  <time>2026-09-01T19:55:10Z</time>
  <course>0.47</course>
  <speed>0.99</speed>
  <fix>3d</fix>
</trkpt>
<trkpt lat="-27.2744143" lon="151.290064">
  <ele>343.09</ele>
  <time>2026-09-01T19:55:10Z</time>
  <course>0.31</course>
  <speed>0.99</speed>
  <fix>3d</fix>
</trkpt>
<trkpt lat="-27.2744118" lon="151.290064">
  <ele>342.015</ele>
  <time>2026-09-01T19:55:10Z</time>
  <course>0.34</course>
  <speed>0.99</speed>
  <fix>3d</fix>
</trkpt>
<trkpt lat="-27.2744116" lon="151.290064">
  <ele>0.0</ele>
  <time>2026-09-01T19:55:10Z</time>
  <course>1.48</course>
  <speed>0.99</speed>
  <fix>3d</fix>
</trkpt>
<trkpt lat="-27.2744143" lon="151.290064">
  <ele>343.09</ele>
  <time>2026-09-01T19:55:10Z</time>
  <course>0.31</course>
  <speed>0.99</speed>
  <fix>3d</fix>
</trkpt>
<trkpt lat="-27.2744107" lon="151.290064">
  <ele>-0.09</ele>
  <time>2026-09-01T19:55:10Z</time>
  <course>2.38</course>
  <speed>0.99</speed>
  <fix>3d</fix>
</trkpt>
<trkpt lat="-27.2744125" lon="151.290064">
  <ele>343.09</ele>
  <time>2026-09-01T19:55:10Z</time>
  <course>0.33</course>
  <speed>0.99</speed>
  <fix>3d</fix>
</trkpt>
<trkpt lat="-27.27441" lon="151.2900641">
  <ele>342.015</ele>
  <time>2026-09-01T19:55:10Z</time>
  <course>0.37</course>
  <speed>0.99</speed>
  <fix>3d</fix>
</trkpt>
<trkpt lat="-27.2744098" lon="151.290064">
  <ele>0.21</ele>
  <time>2026-09-01T19:55:10Z</time>
  <course>3.2</course>
  <speed>0.99</speed>
  <fix>3d</fix>
</trkpt>
<trkpt lat="-27.2744125" lon="151.290064">
  <ele>343.09</ele>
  <time>2026-09-01T19:55:10Z</time>
  <course>0.33</course>
  <speed>0.99</speed>
  <fix>3d</fix>
</trkpt>
<trkpt lat="-27.2744089" lon="151.290064">
  <ele>0.09</ele>
  <time>2026-09-01T19:55:10Z</time>
  <course>3.95</course>
  <speed>0.99</speed>
  <fix>3d</fix>
</trkpt>
<trkpt lat="-27.2744107" lon="151.290064">
  <ele>343.09</ele>
  <time>2026-09-01T19:55:10Z</time>
  <course>0.36</course>
  <speed>0.99</speed>
  <fix>3d</fix>
</trkpt>
<trkpt lat="-27.2744082" lon="151.2900641">
  <ele>342.015</ele>
  <time>2026-09-01T19:55:10Z</time>
  <course>0.39</course>
  <speed>0.99</speed>
  <fix>3d</fix>
</trkpt>
<trkpt lat="-27.274408" lon="151.290064">
  <ele>0.08</ele>
  <time>2026-09-01T19:55:10Z</time>
  <course>4.62</course>
  <speed>0.99</speed>
  <fix>3d</fix>
</trkpt>
<trkpt lat="-27.2744107" lon="151.290064">
  <ele>343.09</ele>
  <time>2026-09-01T19:55:10Z</time>
  <course>0.36</course>
  <speed>0.99</speed>
  <fix>3d</fix>
</trkpt>
<trkpt lat="-27.2744071" lon="151.290064">
  <ele>0.09</ele>
  <time>2026-09-01T19:55:10Z</time>
  <course>5.23</course>
  <speed>0.99</speed>
  <fix>3d</fix>
</trkpt>
<trkpt lat="-27.2744089" lon="151.290064">
  <ele>343.09</ele>
  <time>2026-09-01T19:55:10Z</time>
  <course>0.38</course>
  <speed>0.99</speed>
  <fix>3d</fix>
</trkpt>
<trkpt lat="-27.2744064" lon="151.2900641">
  <ele>342.015</ele>
  <time>2026-09-01T19:55:10Z</time>
  <course>0.41</course>
  <speed>0.99</speed>
  <fix>3d</fix>
</trkpt>
<trkpt lat="-27.2744062" lon="151.290064">
  <ele>-0.05</ele>
  <time>2026-09-01T19:55:10Z</time>
  <course>5.79</course>
  <speed>0.99</speed>
  <fix>3d</fix>
</trkpt>
<trkpt lat="-27.2744089" lon="151.290064">
  <ele>343.09</ele>
  <time>2026-09-01T19:55:10Z</time>
  <course>0.38</course>
  <speed>0.99</speed>
  <fix>3d</fix>
</trkpt>
<trkpt lat="-27.2744053" lon="151.2900641">
  <ele>343.05</ele>
  <time>2026-09-01T19:55:10Z</time>
  <course>6.28</course>
  <speed>0.99</speed>
  <fix>3d</fix>
</trkpt>
<trkpt lat="-27.2744071" lon="151.2900641">
  <ele>343.09</ele>
  <time>2026-09-01T19:55:10Z</time>
  <course>0.4</course>
  <speed>0.99</speed>
  <fix>3d</fix>
</trkpt>
<trkpt lat="-27.2744046" lon="151.2900641">
  <ele>342.015</ele>
  <time>2026-09-01T19:55:10Z</time>
  <course>0.43</course>
  <speed>0.99</speed>
  <fix>3d</fix>
</trkpt>
<trkpt lat="-27.2744043" lon="151.2900641">
  <ele>343.17</ele>
  <time>2026-09-01T19:55:10Z</time>
  <course>6.76</course>
  <speed>0.99</speed>
  <fix>3d</fix>
</trkpt>
<trkpt lat="-27.2744053" lon="151.2900641">
  <ele>343.09</ele>
  <time>2026-09-01T19:55:10Z</time>
  <course>0.42</course>
  <speed>0.99</speed>
  <fix>3d</fix>
</trkpt>
<trkpt lat="-27.2744034" lon="151.2900641">
  <ele>342.9</ele>
  <time>2026-09-01T19:55:10Z</time>
  <course>7.19</course>
  <speed>0.99</speed>
  <fix>3d</fix>
</trkpt>
<trkpt lat="-27.2744053" lon="151.2900641">
  <ele>343.09</ele>
  <time>2026-09-01T19:55:10Z</time>
  <course>0.42</course>
  <speed>0.99</speed>
  <fix>3d</fix>
</trkpt>
<trkpt lat="-27.2744028" lon="151.2900641">
  <ele>342.014</ele>
  <time>2026-09-01T19:55:10Z</time>
  <course>0.46</course>
  <speed>0.99</speed>
  <fix>3d</fix>
</trkpt>
<trkpt lat="-27.2744025" lon="151.2900641">
  <ele>343.05</ele>
  <time>2026-09-01T19:55:10Z</time>
  <course>7.58</course>
  <speed>0.99</speed>
  <fix>3d</fix>
</trkpt>
<trkpt lat="-27.2744053" lon="151.2900641">
  <ele>343.09</ele>
  <time>2026-09-01T19:55:10Z</time>
  <course>0.42</course>
  <speed>0.99</speed>
  <fix>3d</fix>
</trkpt>
<trkpt lat="-27.2744018" lon="151.2900641">
  <ele>343.12</ele>
  <time>2026-09-01T19:55:10Z</time>
  <course>7.94</course>
  <speed>0.99</speed>
  <fix>3d</fix>
</trkpt>
<trkpt lat="-27.2744035" lon="151.2900641">
  <ele>343.09</ele>
  <time>2026-09-01T19:55:10Z</time>
  <course>0.45</course>
  <speed>0.99</speed>
  <fix>3d</fix>
</trkpt>
<trkpt lat="-27.274401" lon="151.2900641">
  <ele>342.014</ele>
  <time>2026-09-01T19:55:10Z</time>
  <course>0.48</course>
  <speed>0.99</speed>
  <fix>3d</fix>
</trkpt>
<trkpt lat="-27.2744009" lon="151.2900641">
  <ele>343.03</ele>
  <time>2026-09-01T19:55:10Z</time>
  <course>8.27</course>
  <speed>0.99</speed>
  <fix>3d</fix>
</trkpt>
<trkpt lat="-27.2744035" lon="151.2900641">
  <ele>343.09</ele>
  <time>2026-09-01T19:55:10Z</time>
  <course>0.45</course>
  <speed>0.99</speed>
  <fix>3d</fix>
</trkpt>
<trkpt lat="-27.2744" lon="151.2900641">
  <ele>342.87</ele>
  <time>2026-09-01T19:55:10Z</time>
  <course>8.56</course>
  <speed>0.99</speed>
  <fix>3d</fix>
</trkpt>
<trkpt lat="-27.2744017" lon="151.2900641">
  <ele>343.09</ele>
  <time>2026-09-01T19:55:10Z</time>
  <course>0.47</course>
  <speed>0.99</speed>
  <fix>3d</fix>
</trkpt>
<trkpt lat="-27.2743992" lon="151.2900641">
  <ele>342.014</ele>
  <time>2026-09-01T19:55:10Z</time>
  <course>0.5</course>
  <speed>0.99</speed>
  <fix>3d</fix>
</trkpt>
<trkpt lat="-27.2743991" lon="151.2900641">
  <ele>343.01</ele>
  <time>2026-09-01T19:55:10Z</time>
  <course>8.83</course>
  <speed>0.99</speed>
  <fix>3d</fix>
</trkpt>
<trkpt lat="-27.2744017" lon="151.2900641">
  <ele>343.09</ele>
  <time>2026-09-01T19:55:10Z</time>
  <course>0.47</course>
  <speed>0.99</speed>
  <fix>3d</fix>
</trkpt>
<trkpt lat="-27.2743981" lon="151.2900641">
  <ele>343.22</ele>
  <time>2026-09-01T19:55:10Z</time>
  <course>9.08</course>
  <speed>0.99</speed>
  <fix>3d</fix>
</trkpt>
<trkpt lat="-27.2743999" lon="151.2900641">
  <ele>343.09</ele>
  <time>2026-09-01T19:55:10Z</time>
  <course>0.49</course>
  <speed>0.99</speed>
  <fix>3d</fix>
</trkpt>
<trkpt lat="-27.2743974" lon="151.2900642">
  <ele>342.014</ele>
  <time>2026-09-01T19:55:10Z</time>
  <course>0.53</course>
  <speed>0.99</speed>
  <fix>3d</fix>
</trkpt>
<trkpt lat="-27.2743972" lon="151.2900641">
  <ele>343.16</ele>
  <time>2026-09-01T19:55:10Z</time>
  <course>9.3</course>
  <speed>0.99</speed>
  <fix>3d</fix>
</trkpt>
<trkpt lat="-27.2743999" lon="151.2900641">
  <ele>343.09</ele>
  <time>2026-09-01T19:55:10Z</time>
  <course>0.49</course>
  <speed>0.99</speed>
  <fix>3d</fix>
</trkpt>
<trkpt lat="-27.2743963" lon="151.2900641">
  <ele>343.03</ele>
  <time>2026-09-01T19:55:10Z</time>
  <course>9.5</course>
  <speed>0.99</speed>
  <fix>3d</fix>
</trkpt>
<trkpt lat="-27.2743981" lon="151.2900641">
  <ele>343.09</ele>
  <time>2026-09-01T19:55:10Z</time>
  <course>0.52</course>
  <speed>0.99</speed>
  <fix>3d</fix>
</trkpt>
<trkpt lat="-27.2743956" lon="151.2900642">
  <ele>342.014</ele>
  <time>2026-09-01T19:55:10Z</time>
  <course>0.55</course>
  <speed>0.99</speed>
  <fix>3d</fix>
</trkpt>
<trkpt lat="-27.2743954" lon="151.2900641">
  <ele>342.88</ele>
  <time>2026-09-01T19:55:10Z</time>
  <course>9.69</course>
  <speed>0.99</speed>
  <fix>3d</fix>
</trkpt>
<trkpt lat="-27.2743981" lon="151.2900641">
  <ele>343.09</ele>
  <time>2026-09-01T19:55:10Z</time>
  <course>0.52</course>
  <speed>0.99</speed>
  <fix>3d</fix>
</trkpt>
<trkpt lat="-27.2743945" lon="151.2900642">
  <ele>343.06</ele>
  <time>2026-09-01T19:55:10Z</time>
  <course>9.85</course>
  <speed>0.99</speed>
  <fix>3d</fix>
</trkpt>
<trkpt lat="-27.2743963" lon="151.2900642">
  <ele>343.09</ele>
  <time>2026-09-01T19:55:10Z</time>
  <course>0.54</course>
  <speed>0.99</speed>
  <fix>3d</fix>
</trkpt>
<trkpt lat="-27.2743938" lon="151.2900642">
  <ele>342.014</ele>
  <time>2026-09-01T19:55:10Z</time>
  <course>0.57</course>
  <speed>0.9900505037623081</speed>
  <fix>3d</fix>
</trkpt>
<trkpt lat="-27.2743936" lon="151.2900642">
  <ele>343.18</ele>
  <time>2026-09-01T19:55:10Z</time>
  <course>10.01</course>
  <speed>0.99</speed>
  <fix>3d</fix>
</trkpt>
<trkpt lat="-27.2743963" lon="151.2900642">
  <ele>343.09</ele>
  <time>2026-09-01T19:55:10Z</time>
  <course>0.54</course>
  <speed>0.99</speed>
  <fix>3d</fix>
</trkpt>
<trkpt lat="-27.2743927" lon="151.2900642">
  <ele>342.87</ele>
  <time>2026-09-01T19:55:10Z</time>
  <course>10.14</course>
  <speed>0.99</speed>
  <fix>3d</fix>
</trkpt>
<trkpt lat="-27.2743945" lon="151.2900642">
  <ele>343.09</ele>
  <time>2026-09-01T19:55:10Z</time>
  <course>0.56</course>
  <speed>0.99</speed>
  <fix>3d</fix>
</trkpt>
<trkpt lat="-27.274392" lon="151.2900642">
  <ele>342.014</ele>
  <time>2026-09-01T19:55:10Z</time>
  <course>0.59</course>
  <speed>0.9900505037623081</speed>
  <fix>3d</fix>
</trkpt>
<trkpt lat="-27.2743918" lon="151.2900642">
  <ele>343.16</ele>
  <time>2026-09-01T19:55:10Z</time>
  <course>10.27</course>
  <speed>0.99</speed>
  <fix>3d</fix>
</trkpt>
<trkpt lat="-27.2743945" lon="151.2900642">
  <ele>343.09</ele>
  <time>2026-09-01T19:55:10Z</time>
  <course>0.56</course>
  <speed>0.99</speed>
  <fix>3d</fix>
</trkpt>
<trkpt lat="-27.2743909" lon="151.2900642">
  <ele>342.88</ele>
  <time>2026-09-01T19:55:10Z</time>
  <course>10.39</course>
  <speed>0.9900505037623081</speed>
  <fix>3d</fix>
</trkpt>
<trkpt lat="-27.2743927" lon="151.2900642">
  <ele>343.09</ele>
  <time>2026-09-01T19:55:10Z</time>
  <course>0.58</course>
  <speed>0.99</speed>
  <fix>3d</fix>
</trkpt>
<trkpt lat="-27.2743902" lon="151.2900642">
  <ele>342.014</ele>
  <time>2026-09-01T19:55:10Z</time>
  <course>0.62</course>
  <speed>0.9900505037623081</speed>
  <fix>3d</fix>
</trkpt>
<trkpt lat="-27.27439" lon="151.2900642">
  <ele>342.97</ele>
  <time>2026-09-01T19:55:10Z</time>
  <course>10.49</course>
  <speed>0.9900505037623081</speed>
  <fix>3d</fix>
</trkpt>
<trkpt lat="-27.2743927" lon="151.2900642">
  <ele>343.09</ele>
  <time>2026-09-01T19:55:10Z</time>
  <course>0.58</course>
  <speed>0.99</speed>
  <fix>3d</fix>
</trkpt>
<trkpt lat="-27.2743891" lon="151.2900642">
  <ele>342.86</ele>
  <time>2026-09-01T19:55:10Z</time>
  <course>10.59</course>
  <speed>0.9900505037623081</speed>
  <fix>3d</fix>
</trkpt>
<trkpt lat="-27.2743909" lon="151.2900642">
  <ele>343.09</ele>
  <time>2026-09-01T19:55:10Z</time>
  <course>0.61</course>
  <speed>0.99</speed>
  <fix>3d</fix>
</trkpt>
<trkpt lat="-27.2743884" lon="151.2900643">
  <ele>342.014</ele>
  <time>2026-09-01T19:55:10Z</time>
  <course>0.64</course>
  <speed>0.9900505037623081</speed>
  <fix>3d</fix>
</trkpt>
<trkpt lat="-27.2743882" lon="151.2900642">
  <ele>343.08</ele>
  <time>2026-09-01T19:55:10Z</time>
  <course>10.68</course>
  <speed>0.9900505037623081</speed>
  <fix>3d</fix>
</trkpt>
<trkpt lat="-27.2743909" lon="151.2900642">
  <ele>343.09</ele>
  <time>2026-09-01T19:55:10Z</time>
  <course>0.61</course>
  <speed>0.99</speed>
  <fix>3d</fix>
</trkpt>
<trkpt lat="-27.2743873" lon="151.2900642">
  <ele>343.17</ele>
  <time>2026-09-01T19:55:10Z</time>
  <course>10.77</course>
  <speed>0.9900505037623081</speed>
  <fix>3d</fix>
</trkpt>
<trkpt lat="-27.2743891" lon="151.2900642">
  <ele>343.09</ele>
  <time>2026-09-01T19:55:10Z</time>
  <course>0.63</course>
  <speed>0.99</speed>
  <fix>3d</fix>
</trkpt>
<trkpt lat="-27.2743866" lon="151.2900643">
  <ele>342.013</ele>
  <time>2026-09-01T19:55:10Z</time>
  <course>0.66</course>
  <speed>0.9900505037623081</speed>
  <fix>3d</fix>
</trkpt>
<trkpt lat="-27.2743864" lon="151.2900642">
  <ele>343.04</ele>
  <time>2026-09-01T19:55:10Z</time>
  <course>10.84</course>
  <speed>0.9900505037623081</speed>
  <fix>3d</fix>
</trkpt>
<trkpt lat="-27.2743891" lon="151.2900642">
  <ele>343.09</ele>
  <time>2026-09-01T19:55:10Z</time>
  <course>0.63</course>
  <speed>0.99</speed>
  <fix>3d</fix>
</trkpt>
<trkpt lat="-27.2743855" lon="151.2900642">
  <ele>342.94</ele>
  <time>2026-09-01T19:55:10Z</time>
  <course>10.91</course>
  <speed>0.9900505037623081</speed>
  <fix>3d</fix>
</trkpt>
<trkpt lat="-27.2743873" lon="151.2900642">
  <ele>343.09</ele>
  <time>2026-09-01T19:55:10Z</time>
  <course>0.65</course>
  <speed>0.99</speed>
  <fix>3d</fix>
</trkpt>
<trkpt lat="-27.2743849" lon="151.2900643">
  <ele>342.013</ele>
  <time>2026-09-01T19:55:10Z</time>
  <course>0.69</course>
  <speed>0.9900505037623081</speed>
  <fix>3d</fix>
</trkpt>
<trkpt lat="-27.2743846" lon="151.2900642">
  <ele>343.09</ele>
  <time>2026-09-01T19:55:10Z</time>
  <course>10.98</course>
  <speed>0.9900505037623081</speed>
  <fix>3d</fix>
</trkpt>
<trkpt lat="-27.2743873" lon="151.2900642">
  <ele>343.09</ele>
  <time>2026-09-01T19:55:10Z</time>
  <course>0.65</course>
  <speed>0.99</speed>
  <fix>3d</fix>
</trkpt>
<trkpt lat="-27.2743837" lon="151.2900642">
  <ele>343.21</ele>
  <time>2026-09-01T19:55:10Z</time>
  <course>11.04</course>
  <speed>0.9900505037623081</speed>
  <fix>3d</fix>
</trkpt>
<trkpt lat="-27.2743855" lon="151.2900642">
  <ele>343.09</ele>
  <time>2026-09-01T19:55:10Z</time>
  <course>0.68</course>
  <speed>0.99</speed>
  <fix>3d</fix>
</trkpt>
<trkpt lat="-27.274383" lon="151.2900643">
  <ele>342.013</ele>
  <time>2026-09-01T19:55:10Z</time>
  <course>0.71</course>
  <speed>0.9900505037623081</speed>
  <fix>3d</fix>
</trkpt>
<trkpt lat="-27.2743828" lon="151.2900642">
  <ele>343.16</ele>
  <time>2026-09-01T19:55:10Z</time>
  <course>11.1</course>
  <speed>0.9900505037623081</speed>
  <fix>3d</fix>
</trkpt>
<trkpt lat="-27.2743855" lon="151.2900642">
  <ele>343.09</ele>
  <time>2026-09-01T19:55:10Z</time>
  <course>0.68</course>
  <speed>0.99</speed>
  <fix>3d</fix>
</trkpt>
<trkpt lat="-27.2743819" lon="151.2900642">
  <ele>343.06</ele>
  <time>2026-09-01T19:55:10Z</time>
  <course>11.15</course>
  <speed>0.9900505037623081</speed>
  <fix>3d</fix>
</trkpt>
<trkpt lat="-27.2743837" lon="151.2900642">
  <ele>343.09</ele>
  <time>2026-09-01T19:55:10Z</time>
  <course>0.7</course>
  <speed>0.99</speed>
  <fix>3d</fix>
</trkpt>
<trkpt lat="-27.2743813" lon="151.2900644">
  <ele>342.013</ele>
  <time>2026-09-01T19:55:10Z</time>
  <course>0.73</course>
  <speed>0.9900505037623081</speed>
  <fix>3d</fix>
</trkpt>
<trkpt lat="-27.274381" lon="151.2900642">
  <ele>343.03</ele>
  <time>2026-09-01T19:55:10Z</time>
  <course>11.2</course>
  <speed>0.9900505037623081</speed>
  <fix>3d</fix>
</trkpt>
<trkpt lat="-27.2743837" lon="151.2900642">
  <ele>343.09</ele>
  <time>2026-09-01T19:55:10Z</time>
  <course>0.7</course>
  <speed>0.99</speed>
  <fix>3d</fix>
</trkpt>
<trkpt lat="-27.2743801" lon="151.2900643">
  <ele>343.17</ele>
  <time>2026-09-01T19:55:10Z</time>
  <course>11.24</course>
  <speed>0.9900505037623081</speed>
  <fix>3d</fix>
</trkpt>
<trkpt lat="-27.2743819" lon="151.2900643">
  <ele>343.09</ele>
  <time>2026-09-01T19:55:10Z</time>
  <course>0.72</course>
  <speed>0.99</speed>
  <fix>3d</fix>
</trkpt>
<trkpt lat="-27.2743795" lon="151.2900644">
  <ele>342.013</ele>
  <time>2026-09-01T19:55:10Z</time>
  <course>0.76</course>
  <speed>0.9900505037623081</speed>
  <fix>3d</fix>
</trkpt>
<trkpt lat="-27.2743792" lon="151.2900643">
  <ele>343.1</ele>
  <time>2026-09-01T19:55:10Z</time>
  <course>11.28</course>
  <speed>0.9900505037623081</speed>
  <fix>3d</fix>
</trkpt>
<trkpt lat="-27.2743819" lon="151.2900643">
  <ele>343.09</ele>
  <time>2026-09-01T19:55:10Z</time>
  <course>0.72</course>
  <speed>0.99</speed>
  <fix>3d</fix>
</trkpt>
<trkpt lat="-27.2743783" lon="151.2900644">
  <ele>343.03</ele>
  <time>2026-09-01T19:55:10Z</time>
  <course>11.32</course>
  <speed>0.9900505037623081</speed>
  <fix>3d</fix>
</trkpt>
<trkpt lat="-27.2743801" lon="151.2900644">
  <ele>343.09</ele>
  <time>2026-09-01T19:55:10Z</time>
  <course>0.74</course>
  <speed>0.99</speed>
  <fix>3d</fix>
</trkpt>
<trkpt lat="-27.2743777" lon="151.2900644">
  <ele>342.013</ele>
  <time>2026-09-01T19:55:10Z</time>
  <course>0.78</course>
  <speed>0.9900505037623081</speed>
  <fix>3d</fix>
</trkpt>
<trkpt lat="-27.2743774" lon="151.2900644">
  <ele>343.06</ele>
  <time>2026-09-01T19:55:10Z</time>
  <course>11.36</course>
  <speed>0.9900505037623081</speed>
  <fix>3d</fix>
</trkpt>
<trkpt lat="-27.2743801" lon="151.2900644">
  <ele>343.09</ele>
  <time>2026-09-01T19:55:10Z</time>
  <course>0.74</course>
  <speed>0.99</speed>
  <fix>3d</fix>
</trkpt>
<trkpt lat="-27.2743765" lon="151.2900644">
  <ele>343.03</ele>
  <time>2026-09-01T19:55:10Z</time>
  <course>11.39</course>
  <speed>0.9900505037623081</speed>
  <fix>3d</fix>
</trkpt>
<trkpt lat="-27.2743783" lon="151.2900644">
  <ele>343.09</ele>
  <time>2026-09-01T19:55:10Z</time>
  <course>0.77</course>
  <speed>0.99</speed>
  <fix>3d</fix>
</trkpt>
<trkpt lat="-27.2743759" lon="151.2900645">
  <ele>342.013</ele>
  <time>2026-09-01T19:55:10Z</time>
  <course>0.8</course>
  <speed>0.9900505037623081</speed>
  <fix>3d</fix>
</trkpt>
<trkpt lat="-27.2743756" lon="151.2900644">
  <ele>343.0</ele>
  <time>2026-09-01T19:55:10Z</time>
  <course>11.42</course>
  <speed>0.9900505037623081</speed>
  <fix>3d</fix>
</trkpt>
<trkpt lat="-27.2743783" lon="151.2900644">
  <ele>343.09</ele>
  <time>2026-09-01T19:55:10Z</time>
  <course>0.77</course>
  <speed>0.99</speed>
  <fix>3d</fix>
</trkpt>
<trkpt lat="-27.2743747" lon="151.2900644">
  <ele>343.19</ele>
  <time>2026-09-01T19:55:10Z</time>
  <course>11.45</course>
  <speed>0.9900505037623081</speed>
  <fix>3d</fix>
</trkpt>
<trkpt lat="-27.2743765" lon="151.2900644">
  <ele>343.09</ele>
  <time>2026-09-01T19:55:10Z</time>
  <course>0.79</course>
  <speed>0.99</speed>
  <fix>3d</fix>
</trkpt>
<trkpt lat="-27.2743741" lon="151.2900645">
  <ele>342.013</ele>
  <time>2026-09-01T19:55:10Z</time>
  <course>0.82</course>
  <speed>0.9900505037623081</speed>
  <fix>3d</fix>
</trkpt>
<trkpt lat="-27.2743738" lon="151.2900644">
  <ele>343.23</ele>
  <time>2026-09-01T19:55:10Z</time>
  <course>11.48</course>
  <speed>0.9900505037623081</speed>
  <fix>3d</fix>
</trkpt>
<trkpt lat="-27.2743765" lon="151.2900644">
  <ele>343.09</ele>
  <time>2026-09-01T19:55:10Z</time>
  <course>0.79</course>
  <speed>0.99</speed>
  <fix>3d</fix>
</trkpt>
<trkpt lat="-27.2743729" lon="151.2900644">
  <ele>342.87</ele>
  <time>2026-09-01T19:55:10Z</time>
  <course>11.5</course>
  <speed>0.9900505037623081</speed>
  <fix>3d</fix>
</trkpt>
<trkpt lat="-27.2743747" lon="151.2900644">
  <ele>343.09</ele>
  <time>2026-09-01T19:55:10Z</time>
  <course>0.81</course>
  <speed>0.99</speed>
  <fix>3d</fix>
</trkpt>
<trkpt lat="-27.2743723" lon="151.2900645">
  <ele>342.013</ele>
  <time>2026-09-01T19:55:10Z</time>
  <course>0.85</course>
  <speed>0.9900505037623081</speed>
  <fix>3d</fix>
</trkpt>
<trkpt lat="-27.274372" lon="151.2900644">
  <ele>343.2</ele>
  <time>2026-09-01T19:55:10Z</time>
  <course>11.53</course>
  <speed>0.9900505037623081</speed>
  <fix>3d</fix>
</trkpt>
<trkpt lat="-27.2743747" lon="151.2900644">
  <ele>343.09</ele>
  <time>2026-09-01T19:55:10Z</time>
  <course>0.81</course>
  <speed>0.99</speed>
  <fix>3d</fix>
</trkpt>
<trkpt lat="-27.2743711" lon="151.2900645">
  <ele>343.01</ele>
  <time>2026-09-01T19:55:10Z</time>
  <course>11.55</course>
  <speed>0.9900505037623081</speed>
  <fix>3d</fix>
</trkpt>
<trkpt lat="-27.2743729" lon="151.2900645">
  <ele>343.09</ele>
  <time>2026-09-01T19:55:10Z</time>
  <course>0.84</course>
  <speed>0.99</speed>
  <fix>3d</fix>
</trkpt>
<trkpt lat="-27.2743705" lon="151.2900645">
  <ele>342.013</ele>
  <time>2026-09-01T19:55:10Z</time>
  <course>0.87</course>
  <speed>0.9900505037623081</speed>
  <fix>3d</fix>
</trkpt>
<trkpt lat="-27.2743702" lon="151.2900645">
  <ele>342.92</ele>
  <time>2026-09-01T19:55:10Z</time>
  <course>11.58</course>
  <speed>0.9900505037623081</speed>
  <fix>3d</fix>
</trkpt>
<trkpt lat="-27.2743729" lon="151.2900645">
  <ele>343.09</ele>
  <time>2026-09-01T19:55:10Z</time>
  <course>0.84</course>
  <speed>0.99</speed>
  <fix>3d</fix>
</trkpt>
<trkpt lat="-27.2743694" lon="151.2900645">
  <ele>343.06</ele>
  <time>2026-09-01T19:55:10Z</time>
  <course>11.6</course>
  <speed>0.9900505037623081</speed>
  <fix>3d</fix>
</trkpt>
<trkpt lat="-27.2743712" lon="151.2900645">
  <ele>343.09</ele>
  <time>2026-09-01T19:55:10Z</time>
  <course>0.86</course>
  <speed>0.99</speed>
  <fix>3d</fix>
</trkpt>
<trkpt lat="-27.2743687" lon="151.2900646">
  <ele>342.012</ele>
  <time>2026-09-01T19:55:10Z</time>
  <course>0.89</course>
  <speed>0.9900505037623081</speed>
  <fix>3d</fix>
</trkpt>
<trkpt lat="-27.2743685" lon="151.2900645">
  <ele>342.92</ele>
  <time>2026-09-01T19:55:10Z</time>
  <course>11.62</course>
  <speed>0.9900505037623081</speed>
  <fix>3d</fix>
</trkpt>
<trkpt lat="-27.2743712" lon="151.2900645">
  <ele>343.09</ele>
  <time>2026-09-01T19:55:10Z</time>
  <course>0.86</course>
  <speed>0.99</speed>
  <fix>3d</fix>
</trkpt>
<trkpt lat="-27.2743676" lon="151.2900645">
  <ele>343.1</ele>
  <time>2026-09-01T19:55:10Z</time>
  <course>11.64</course>
  <speed>0.9900505037623081</speed>
  <fix>3d</fix>
</trkpt>
<trkpt lat="-27.2743694" lon="151.2900645">
  <ele>343.09</ele>
  <time>2026-09-01T19:55:10Z</time>
  <course>0.88</course>
  <speed>0.99</speed>
  <fix>3d</fix>
</trkpt>
<trkpt lat="-27.2743669" lon="151.2900646">
  <ele>342.012</ele>
  <time>2026-09-01T19:55:10Z</time>
  <course>0.92</course>
  <speed>0.9900505037623081</speed>
  <fix>3d</fix>
</trkpt>
<trkpt lat="-27.2743667" lon="151.2900645">
  <ele>343.23</ele>
  <time>2026-09-01T19:55:10Z</time>
  <course>11.65</course>
  <speed>0.9900505037623081</speed>
  <fix>3d</fix>
</trkpt>
<trkpt lat="-27.2743694" lon="151.2900645">
  <ele>343.09</ele>
  <time>2026-09-01T19:55:10Z</time>
  <course>0.88</course>
  <speed>0.99</speed>
  <fix>3d</fix>
</trkpt>
<trkpt lat="-27.2743658" lon="151.2900646">
  <ele>343.17</ele>
  <time>2026-09-01T19:55:10Z</time>
  <course>11.67</course>
  <speed>0.9900505037623081</speed>
  <fix>3d</fix>
</trkpt>
<trkpt lat="-27.2743676" lon="151.2900646">
  <ele>343.09</ele>
  <time>2026-09-01T19:55:10Z</time>
  <course>0.9</course>
  <speed>0.99</speed>
  <fix>3d</fix>
</trkpt>
<trkpt lat="-27.2743651" lon="151.2900646">
  <ele>342.012</ele>
  <time>2026-09-01T19:55:10Z</time>
  <course>0.94</course>
  <speed>0.9900505037623081</speed>
  <fix>3d</fix>
</trkpt>
<trkpt lat="-27.2743649" lon="151.2900646">
  <ele>342.88</ele>
  <time>2026-09-01T19:55:10Z</time>
  <course>11.69</course>
  <speed>0.9900505037623081</speed>
  <fix>3d</fix>
</trkpt>
<trkpt lat="-27.2743676" lon="151.2900646">
  <ele>343.09</ele>
  <time>2026-09-01T19:55:10Z</time>
  <course>0.9</course>
  <speed>0.99</speed>
  <fix>3d</fix>
</trkpt>
<trkpt lat="-27.274364" lon="151.2900646">
  <ele>343.21</ele>
  <time>2026-09-01T19:55:10Z</time>
  <course>11.71</course>
  <speed>0.9900505037623081</speed>
  <fix>3d</fix>
</trkpt>
<trkpt lat="-27.2743658" lon="151.2900646">
  <ele>343.09</ele>
  <time>2026-09-01T19:55:10Z</time>
  <course>0.93</course>
  <speed>0.99</speed>
  <fix>3d</fix>
</trkpt>
<trkpt lat="-27.2743633" lon="151.2900647">
  <ele>342.012</ele>
  <time>2026-09-01T19:55:10Z</time>
  <course>0.96</course>
  <speed>0.9900505037623081</speed>
  <fix>3d</fix>
</trkpt>
<trkpt lat="-27.2743631" lon="151.2900646">
  <ele>343.21</ele>
  <time>2026-09-01T19:55:10Z</time>
  <course>11.72</course>
  <speed>0.9900505037623081</speed>
  <fix>3d</fix>
</trkpt>
<trkpt lat="-27.2743658" lon="151.2900646">
  <ele>343.09</ele>
  <time>2026-09-01T19:55:10Z</time>
  <course>0.93</course>
  <speed>0.99</speed>
  <fix>3d</fix>
</trkpt>
<trkpt lat="-27.2743622" lon="151.2900646">
  <ele>342.97</ele>
  <time>2026-09-01T19:55:10Z</time>
  <course>11.74</course>
  <speed>0.9900505037623081</speed>
  <fix>3d</fix>
</trkpt>
<trkpt lat="-27.274364" lon="151.2900646">
  <ele>343.09</ele>
  <time>2026-09-01T19:55:10Z</time>
  <course>0.95</course>
  <speed>0.99</speed>
  <fix>3d</fix>
</trkpt>
<trkpt lat="-27.2743615" lon="151.2900647">
  <ele>342.012</ele>
  <time>2026-09-01T19:55:10Z</time>
  <course>0.98</course>
  <speed>0.9900505037623081</speed>
  <fix>3d</fix>
</trkpt>
<trkpt lat="-27.2743613" lon="151.2900646">
  <ele>343.12</ele>
  <time>2026-09-01T19:55:10Z</time>
  <course>11.75</course>
  <speed>0.9900505037623081</speed>
  <fix>3d</fix>
</trkpt>
<trkpt lat="-27.274364" lon="151.2900646">
  <ele>343.09</ele>
  <time>2026-09-01T19:55:10Z</time>
  <course>0.95</course>
  <speed>0.99</speed>
  <fix>3d</fix>
</trkpt>
<trkpt lat="-27.2743604" lon="151.2900646">
  <ele>343.06</ele>
  <time>2026-09-01T19:55:10Z</time>
  <course>11.77</course>
  <speed>0.9900505037623081</speed>
  <fix>3d</fix>
</trkpt>
<trkpt lat="-27.2743622" lon="151.2900646">
  <ele>343.09</ele>
  <time>2026-09-01T19:55:10Z</time>
  <course>0.97</course>
  <speed>0.99</speed>
  <fix>3d</fix>
</trkpt>
<trkpt lat="-27.2743597" lon="151.2900647">
  <ele>342.012</ele>
  <time>2026-09-01T19:55:10Z</time>
  <course>1.01</course>
  <speed>0.9900505037623081</speed>
  <fix>3d</fix>
</trkpt>
<trkpt lat="-27.2743595" lon="151.2900646">
  <ele>343.18</ele>
  <time>2026-09-01T19:55:10Z</time>
  <course>11.78</course>
  <speed>0.9900505037623081</speed>
  <fix>3d</fix>
</trkpt>
<trkpt lat="-27.2743622" lon="151.2900646">
  <ele>343.09</ele>
  <time>2026-09-01T19:55:10Z</time>
  <course>0.97</course>
  <speed>0.99</speed>
  <fix>3d</fix>
</trkpt>
<trkpt lat="-27.2743586" lon="151.2900646">
  <ele>342.92</ele>
  <time>2026-09-01T19:55:10Z</time>
  <course>11.8</course>
  <speed>0.9900505037623081</speed>
  <fix>3d</fix>
</trkpt>
<trkpt lat="-27.2743604" lon="151.2900646">
  <ele>343.09</ele>
  <time>2026-09-01T19:55:10Z</time>
  <course>1.0</course>
  <speed>0.99</speed>
  <fix>3d</fix>
</trkpt>
<trkpt lat="-27.2743579" lon="151.2900648">
  <ele>342.012</ele>
  <time>2026-09-01T19:55:10Z</time>
  <course>1.03</course>
  <speed>0.9900505037623081</speed>
  <fix>3d</fix>
</trkpt>
<trkpt lat="-27.2743577" lon="151.2900646">
  <ele>343.18</ele>
  <time>2026-09-01T19:55:10Z</time>
  <course>11.81</course>
  <speed>0.9900505037623081</speed>
  <fix>3d</fix>
</trkpt>
<trkpt lat="-27.2743604" lon="151.2900646">
  <ele>343.09</ele>
  <time>2026-09-01T19:55:10Z</time>
  <course>1.0</course>
  <speed>0.99</speed>
  <fix>3d</fix>
</trkpt>
<trkpt lat="-27.2743568" lon="151.2900647">
  <ele>343.09</ele>
  <time>2026-09-01T19:55:10Z</time>
  <course>11.83</course>
  <speed>0.9900505037623081</speed>
  <fix>3d</fix>
</trkpt>
<trkpt lat="-27.2743586" lon="151.2900647">
  <ele>343.09</ele>
  <time>2026-09-01T19:55:10Z</time>
  <course>1.02</course>
  <speed>0.99</speed>
  <fix>3d</fix>
</trkpt>
<trkpt lat="-27.2743561" lon="151.2900648">
  <ele>342.012</ele>
  <time>2026-09-01T19:55:10Z</time>
  <course>1.05</course>
  <speed>0.9900505037623081</speed>
  <fix>3d</fix>
</trkpt>
<trkpt lat="-27.2743559" lon="151.2900647">
  <ele>342.99</ele>
  <time>2026-09-01T19:55:10Z</time>
  <course>11.84</course>
  <speed>0.9900505037623081</speed>
  <fix>3d</fix>
</trkpt>
<trkpt lat="-27.2743586" lon="151.2900647">
  <ele>343.09</ele>
  <time>2026-09-01T19:55:10Z</time>
  <course>1.02</course>
  <speed>0.99</speed>
  <fix>3d</fix>
</trkpt>
<trkpt lat="-27.274355" lon="151.2900647">
  <ele>343.1</ele>
  <time>2026-09-01T19:55:10Z</time>
  <course>11.85</course>
  <speed>0.9900505037623081</speed>
  <fix>3d</fix>
</trkpt>
<trkpt lat="-27.2743568" lon="151.2900647">
  <ele>343.09</ele>
  <time>2026-09-01T19:55:10Z</time>
  <course>1.04</course>
  <speed>0.99</speed>
  <fix>3d</fix>
</trkpt>
<trkpt lat="-27.2743543" lon="151.2900648">
  <ele>342.012</ele>
  <time>2026-09-01T19:55:10Z</time>
  <course>1.08</course>
  <speed>0.9900505037623081</speed>
  <fix>3d</fix>
</trkpt>
<trkpt lat="-27.2743541" lon="151.2900647">
  <ele>342.95</ele>
  <time>2026-09-01T19:55:10Z</time>
  <course>11.87</course>
  <speed>0.9900505037623081</speed>
  <fix>3d</fix>
</trkpt>
<trkpt lat="-27.2743568" lon="151.2900647">
  <ele>343.09</ele>
  <time>2026-09-01T19:55:10Z</time>
  <course>1.04</course>
  <speed>0.99</speed>
  <fix>3d</fix>
</trkpt>
<trkpt lat="-27.2743532" lon="151.2900647">
  <ele>343.17</ele>
  <time>2026-09-01T19:55:10Z</time>
  <course>11.88</course>
  <speed>0.9900505037623081</speed>
  <fix>3d</fix>
</trkpt>
<trkpt lat="-27.274355" lon="151.2900647">
  <ele>343.09</ele>
  <time>2026-09-01T19:55:10Z</time>
  <course>1.07</course>
  <speed>0.99</speed>
  <fix>3d</fix>
</trkpt>
<trkpt lat="-27.2743525" lon="151.2900649">
  <ele>342.012</ele>
  <time>2026-09-01T19:55:10Z</time>
  <course>1.1</course>
  <speed>0.9900505037623081</speed>
  <fix>3d</fix>
</trkpt>
<trkpt lat="-27.2743523" lon="151.2900647">
  <ele>342.99</ele>
  <time>2026-09-01T19:55:10Z</time>
  <course>11.89</course>
  <speed>0.9900505037623081</speed>
  <fix>3d</fix>
</trkpt>
<trkpt lat="-27.274355" lon="151.2900647">
  <ele>343.09</ele>
  <time>2026-09-01T19:55:10Z</time>
  <course>1.07</course>
  <speed>0.99</speed>
  <fix>3d</fix>
</trkpt>
<trkpt lat="-27.2743514" lon="151.2900648">
  <ele>343.19</ele>
  <time>2026-09-01T19:55:10Z</time>
  <course>11.91</course>
  <speed>0.9900505037623081</speed>
  <fix>3d</fix>
</trkpt>
<trkpt lat="-27.2743532" lon="151.2900648">
  <ele>343.09</ele>
  <time>2026-09-01T19:55:10Z</time>
  <course>1.09</course>
  <speed>0.99</speed>
  <fix>3d</fix>
</trkpt>
<trkpt lat="-27.2743507" lon="151.2900649">
  <ele>342.011</ele>
  <time>2026-09-01T19:55:10Z</time>
  <course>1.12</course>
  <speed>0.9900505037623081</speed>
  <fix>3d</fix>
</trkpt>
<trkpt lat="-27.2743505" lon="151.2900648">
  <ele>343.19</ele>
  <time>2026-09-01T19:55:10Z</time>
  <course>11.92</course>
  <speed>0.9900505037623081</speed>
  <fix>3d</fix>
</trkpt>
<trkpt lat="-27.2743532" lon="151.2900648">
  <ele>343.09</ele>
  <time>2026-09-01T19:55:10Z</time>
  <course>1.09</course>
  <speed>0.99</speed>
  <fix>3d</fix>
</trkpt>
<trkpt lat="-27.2743496" lon="151.2900649">
  <ele>343.12</ele>
  <time>2026-09-01T19:55:10Z</time>
  <course>11.93</course>
  <speed>0.9900505037623081</speed>
  <fix>3d</fix>
</trkpt>
<trkpt lat="-27.2743514" lon="151.2900649">
  <ele>343.09</ele>
  <time>2026-09-01T19:55:10Z</time>
  <course>1.11</course>
  <speed>0.99</speed>
  <fix>3d</fix>
</trkpt>
<trkpt lat="-27.2743489" lon="151.290065">
  <ele>342.011</ele>
  <time>2026-09-01T19:55:10Z</time>
  <course>1.14</course>
  <speed>0.9902019995940222</speed>
  <fix>3d</fix>
</trkpt>
<trkpt lat="-27.2743487" lon="151.2900649">
  <ele>343.09</ele>
  <time>2026-09-01T19:55:10Z</time>
  <course>11.95</course>
  <speed>0.9900505037623081</speed>
  <fix>3d</fix>
</trkpt>
<trkpt lat="-27.2743514" lon="151.2900649">
  <ele>343.09</ele>
  <time>2026-09-01T19:55:10Z</time>
  <course>1.11</course>
  <speed>0.99</speed>
  <fix>3d</fix>
</trkpt>
<trkpt lat="-27.2743478" lon="151.2900649">
  <ele>343.11</ele>
  <time>2026-09-01T19:55:10Z</time>
  <course>11.96</course>
  <speed>0.9900505037623081</speed>
  <fix>3d</fix>
</trkpt>
<trkpt lat="-27.2743496" lon="151.2900649">
  <ele>343.09</ele>
  <time>2026-09-01T19:55:10Z</time>
  <course>1.13</course>
  <speed>0.99</speed>
  <fix>3d</fix>
</trkpt>
<trkpt lat="-27.2743471" lon="151.290065">
  <ele>342.011</ele>
  <time>2026-09-01T19:55:10Z</time>
  <course>1.17</course>
  <speed>0.9902019995940222</speed>
  <fix>3d</fix>
</trkpt>
<trkpt lat="-27.2743469" lon="151.2900649">
  <ele>342.93</ele>
  <time>2026-09-01T19:55:10Z</time>
  <course>11.97</course>
  <speed>0.9900505037623081</speed>
  <fix>3d</fix>
</trkpt>
<trkpt lat="-27.2743496" lon="151.2900649">
  <ele>343.09</ele>
  <time>2026-09-01T19:55:10Z</time>
  <course>1.13</course>
  <speed>0.99</speed>
  <fix>3d</fix>
</trkpt>
<trkpt lat="-27.274346" lon="151.290065">
  <ele>343.23</ele>
  <time>2026-09-01T19:55:10Z</time>
  <course>11.98</course>
  <speed>0.9902019995940222</speed>
  <fix>3d</fix>
</trkpt>
<trkpt lat="-27.2743478" lon="151.290065">
  <ele>343.09</ele>
  <time>2026-09-01T19:55:10Z</time>
  <course>1.16</course>
  <speed>0.99</speed>
  <fix>3d</fix>
</trkpt>
<trkpt lat="-27.2743453" lon="151.2900651">
  <ele>342.011</ele>
  <time>2026-09-01T19:55:10Z</time>
  <course>1.19</course>
  <speed>0.9902019995940222</speed>
  <fix>3d</fix>
</trkpt>
<trkpt lat="-27.2743451" lon="151.290065">
  <ele>342.91</ele>
  <time>2026-09-01T19:55:10Z</time>
  <course>12.0</course>
  <speed>0.9902019995940222</speed>
  <fix>3d</fix>
</trkpt>
<trkpt lat="-27.2743478" lon="151.290065">
  <ele>343.09</ele>
  <time>2026-09-01T19:55:10Z</time>
  <course>1.16</course>
  <speed>0.99</speed>
  <fix>3d</fix>
</trkpt>
<trkpt lat="-27.2743442" lon="151.290065">
  <ele>343.07</ele>
  <time>2026-09-01T19:55:10Z</time>
  <course>12.01</course>
  <speed>0.9902019995940222</speed>
  <fix>3d</fix>
</trkpt>
<trkpt lat="-27.274346" lon="151.290065">
  <ele>343.09</ele>
  <time>2026-09-01T19:55:10Z</time>
  <course>1.18</course>
  <speed>0.99</speed>
  <fix>3d</fix>
</trkpt>
<trkpt lat="-27.2743435" lon="151.2900651">
  <ele>342.011</ele>
  <time>2026-09-01T19:55:10Z</time>
  <course>1.21</course>
  <speed>0.9902019995940222</speed>
  <fix>3d</fix>
</trkpt>
<trkpt lat="-27.2743433" lon="151.290065">
  <ele>343.22</ele>
  <time>2026-09-01T19:55:10Z</time>
  <course>12.02</course>
  <speed>0.9902019995940222</speed>
  <fix>3d</fix>
</trkpt>
<trkpt lat="-27.274346" lon="151.290065">
  <ele>343.09</ele>
  <time>2026-09-01T19:55:10Z</time>
  <course>1.18</course>
  <speed>0.99</speed>
  <fix>3d</fix>
</trkpt>
<trkpt lat="-27.2743424" lon="151.290065">
  <ele>343.0</ele>
  <time>2026-09-01T19:55:10Z</time>
  <course>12.03</course>
  <speed>0.9902019995940222</speed>
  <fix>3d</fix>
</trkpt>
<trkpt lat="-27.2743442" lon="151.290065">
  <ele>343.09</ele>
  <time>2026-09-01T19:55:10Z</time>
  <course>1.2</course>
  <speed>0.99</speed>
  <fix>3d</fix>
</trkpt>
<trkpt lat="-27.2743417" lon="151.2900651">
  <ele>342.011</ele>
  <time>2026-09-01T19:55:10Z</time>
  <course>1.24</course>
  <speed>0.9902019995940222</speed>
  <fix>3d</fix>
</trkpt>
<trkpt lat="-27.2743415" lon="151.290065">
  <ele>343.09</ele>
  <time>2026-09-01T19:55:10Z</time>
  <course>12.04</course>
  <speed>0.9902019995940222</speed>
  <fix>3d</fix>
</trkpt>
<trkpt lat="-27.2743442" lon="151.290065">
  <ele>343.09</ele>
  <time>2026-09-01T19:55:10Z</time>
  <course>1.2</course>
  <speed>0.99</speed>
  <fix>3d</fix>
</trkpt>
<trkpt lat="-27.2743406" lon="151.2900651">
  <ele>342.98</ele>
  <time>2026-09-01T19:55:10Z</time>
  <course>12.06</course>
  <speed>0.9902019995940222</speed>
  <fix>3d</fix>
</trkpt>
<trkpt lat="-27.2743424" lon="151.2900651">
  <ele>343.09</ele>
  <time>2026-09-01T19:55:10Z</time>
  <course>1.23</course>
  <speed>0.99</speed>
  <fix>3d</fix>
</trkpt>
<trkpt lat="-27.2743399" lon="151.2900652">
  <ele>342.011</ele>
  <time>2026-09-01T19:55:10Z</time>
  <course>1.26</course>
  <speed>0.9902019995940222</speed>
  <fix>3d</fix>
</trkpt>
<trkpt lat="-27.2743397" lon="151.2900651">
  <ele>342.86</ele>
  <time>2026-09-01T19:55:10Z</time>
  <course>12.07</course>
  <speed>0.9902019995940222</speed>
  <fix>3d</fix>
</trkpt>
<trkpt lat="-27.2743424" lon="151.2900651">
  <ele>343.09</ele>
  <time>2026-09-01T19:55:10Z</time>
  <course>1.23</course>
  <speed>0.99</speed>
  <fix>3d</fix>
</trkpt>
<trkpt lat="-27.2743388" lon="151.2900651">
  <ele>343.09</ele>
  <time>2026-09-01T19:55:10Z</time>
  <course>12.08</course>
  <speed>0.9902019995940222</speed>
  <fix>3d</fix>
</trkpt>
<trkpt lat="-27.2743406" lon="151.2900651">
  <ele>343.09</ele>
  <time>2026-09-01T19:55:10Z</time>
  <course>1.25</course>
  <speed>0.99</speed>
  <fix>3d</fix>
</trkpt>
<trkpt lat="-27.2743382" lon="151.2900652">
  <ele>342.011</ele>
  <time>2026-09-01T19:55:10Z</time>
  <course>1.28</course>
  <speed>0.9902019995940222</speed>
  <fix>3d</fix>
</trkpt>
<trkpt lat="-27.2743379" lon="151.2900651">
  <ele>342.98</ele>
  <time>2026-09-01T19:55:10Z</time>
  <course>12.09</course>
  <speed>0.9902019995940222</speed>
  <fix>3d</fix>
</trkpt>
<trkpt lat="-27.2743406" lon="151.2900651">
  <ele>343.09</ele>
  <time>2026-09-01T19:55:10Z</time>
  <course>1.25</course>
  <speed>0.99</speed>
  <fix>3d</fix>
</trkpt>
<trkpt lat="-27.274337" lon="151.2900651">
  <ele>342.9</ele>
  <time>2026-09-01T19:55:10Z</time>
  <course>12.1</course>
  <speed>0.9902019995940222</speed>
  <fix>3d</fix>
</trkpt>
<trkpt lat="-27.2743388" lon="151.2900651">
  <ele>343.09</ele>
  <time>2026-09-01T19:55:10Z</time>
  <course>1.27</course>
  <speed>0.99</speed>
  <fix>3d</fix>
</trkpt>
<trkpt lat="-27.2743364" lon="151.2900653">
  <ele>342.011</ele>
  <time>2026-09-01T19:55:10Z</time>
  <course>1.31</course>
  <speed>0.9902019995940222</speed>
  <fix>3d</fix>
</trkpt>
<trkpt lat="-27.2743361" lon="151.2900651">
  <ele>342.88</ele>
  <time>2026-09-01T19:55:10Z</time>
  <course>12.12</course>
  <speed>0.9902019995940222</speed>
  <fix>3d</fix>
</trkpt>
<trkpt lat="-27.2743388" lon="151.2900651">
  <ele>343.09</ele>
  <time>2026-09-01T19:55:10Z</time>
  <course>1.27</course>
  <speed>0.99</speed>
  <fix>3d</fix>
</trkpt>
<trkpt lat="-27.2743352" lon="151.2900652">
  <ele>342.86</ele>
  <time>2026-09-01T19:55:10Z</time>
  <course>12.13</course>
  <speed>0.9902019995940222</speed>
  <fix>3d</fix>
</trkpt>
<trkpt lat="-27.274337" lon="151.2900652">
  <ele>343.09</ele>
  <time>2026-09-01T19:55:10Z</time>
  <course>1.29</course>
  <speed>0.99</speed>
  <fix>3d</fix>
</trkpt>
<trkpt lat="-27.2743346" lon="151.2900653">
  <ele>342.011</ele>
  <time>2026-09-01T19:55:10Z</time>
  <course>1.33</course>
  <speed>0.9902019995940222</speed>
  <fix>3d</fix>
</trkpt>
<trkpt lat="-27.2743343" lon="151.2900652">
  <ele>343.11</ele>
  <time>2026-09-01T19:55:10Z</time>
  <course>12.14</course>
  <speed>0.9902019995940222</speed>
  <fix>3d</fix>
</trkpt>
<trkpt lat="-27.274337" lon="151.2900652">
  <ele>343.09</ele>
  <time>2026-09-01T19:55:10Z</time>
  <course>1.29</course>
  <speed>0.99</speed>
  <fix>3d</fix>
</trkpt>
<trkpt lat="-27.2743334" lon="151.2900652">
  <ele>342.98</ele>
  <time>2026-09-01T19:55:10Z</time>
  <course>12.15</course>
  <speed>0.9902019995940222</speed>
  <fix>3d</fix>
</trkpt>
<trkpt lat="-27.2743352" lon="151.2900652">
  <ele>343.09</ele>
  <time>2026-09-01T19:55:10Z</time>
  <course>1.32</course>
  <speed>0.99</speed>
  <fix>3d</fix>
</trkpt>
<trkpt lat="-27.2743328" lon="151.2900654">
  <ele>342.01</ele>
  <time>2026-09-01T19:55:10Z</time>
  <course>1.35</course>
  <speed>0.9902019995940222</speed>
  <fix>3d</fix>
</trkpt>
<trkpt lat="-27.2743325" lon="151.2900652">
  <ele>343.12</ele>
  <time>2026-09-01T19:55:10Z</time>
  <course>12.16</course>
  <speed>0.9902019995940222</speed>
  <fix>3d</fix>
</trkpt>
<trkpt lat="-27.2743352" lon="151.2900652">
  <ele>343.09</ele>
  <time>2026-09-01T19:55:10Z</time>
  <course>1.32</course>
  <speed>0.99</speed>
  <fix>3d</fix>
</trkpt>
<trkpt lat="-27.2743316" lon="151.2900653">
  <ele>342.99</ele>
  <time>2026-09-01T19:55:10Z</time>
  <course>12.18</course>
  <speed>0.9902019995940222</speed>
  <fix>3d</fix>
</trkpt>
<trkpt lat="-27.2743334" lon="151.2900653">
  <ele>343.09</ele>
  <time>2026-09-01T19:55:10Z</time>
  <course>1.34</course>
  <speed>0.99</speed>
  <fix>3d</fix>
</trkpt>
<trkpt lat="-27.274331" lon="151.2900654">
  <ele>342.01</ele>
  <time>2026-09-01T19:55:10Z</time>
  <course>1.37</course>
  <speed>0.9902019995940222</speed>
  <fix>3d</fix>
</trkpt>
<trkpt lat="-27.2743307" lon="151.2900653">
  <ele>343.15</ele>
  <time>2026-09-01T19:55:10Z</time>
  <course>12.19</course>
  <speed>0.9902019995940222</speed>
  <fix>3d</fix>
</trkpt>
<trkpt lat="-27.2743334" lon="151.2900653">
  <ele>343.09</ele>
  <time>2026-09-01T19:55:10Z</time>
  <course>1.34</course>
  <speed>0.99</speed>
  <fix>3d</fix>
</trkpt>
<trkpt lat="-27.2743298" lon="151.2900654">
  <ele>342.99</ele>
  <time>2026-09-01T19:55:10Z</time>
  <course>12.2</course>
  <speed>0.9902019995940222</speed>
  <fix>3d</fix>
</trkpt>
<trkpt lat="-27.2743316" lon="151.2900654">
  <ele>343.09</ele>
  <time>2026-09-01T19:55:10Z</time>
  <course>1.36</course>
  <speed>0.99</speed>
  <fix>3d</fix>
</trkpt>
<trkpt lat="-27.2743292" lon="151.2900655">
  <ele>342.01</ele>
  <time>2026-09-01T19:55:10Z</time>
  <course>1.4</course>
  <speed>0.9902019995940222</speed>
  <fix>3d</fix>
</trkpt>
<trkpt lat="-27.2743289" lon="151.2900654">
  <ele>342.98</ele>
  <time>2026-09-01T19:55:10Z</time>
  <course>12.21</course>
  <speed>0.9902019995940222</speed>
  <fix>3d</fix>
</trkpt>
<trkpt lat="-27.2743316" lon="151.2900654">
  <ele>343.09</ele>
  <time>2026-09-01T19:55:10Z</time>
  <course>1.36</course>
  <speed>0.99</speed>
  <fix>3d</fix>
</trkpt>
<trkpt lat="-27.2743281" lon="151.2900654">
  <ele>343.16</ele>
  <time>2026-09-01T19:55:10Z</time>
  <course>12.22</course>
  <speed>0.9902019995940222</speed>
  <fix>3d</fix>
</trkpt>
<trkpt lat="-27.2743299" lon="151.2900654">
  <ele>343.09</ele>
  <time>2026-09-01T19:55:10Z</time>
  <course>1.39</course>
  <speed>0.99</speed>
  <fix>3d</fix>
</trkpt>
<trkpt lat="-27.2743274" lon="151.2900655">
  <ele>342.01</ele>
  <time>2026-09-01T19:55:10Z</time>
  <course>1.42</course>
  <speed>0.9902019995940222</speed>
  <fix>3d</fix>
</trkpt>
<trkpt lat="-27.2743272" lon="151.2900654">
  <ele>343.15</ele>
  <time>2026-09-01T19:55:10Z</time>
  <course>12.23</course>
  <speed>0.9902019995940222</speed>
  <fix>3d</fix>
</trkpt>
<trkpt lat="-27.2743299" lon="151.2900654">
  <ele>343.09</ele>
  <time>2026-09-01T19:55:10Z</time>
  <course>1.39</course>
  <speed>0.99</speed>
  <fix>3d</fix>
</trkpt>
<trkpt lat="-27.2743263" lon="151.2900654">
  <ele>342.86</ele>
  <time>2026-09-01T19:55:10Z</time>
  <course>12.25</course>
  <speed>0.9902019995940222</speed>
  <fix>3d</fix>
</trkpt>
<trkpt lat="-27.2743281" lon="151.2900654">
  <ele>343.09</ele>
  <time>2026-09-01T19:55:10Z</time>
  <course>1.41</course>
  <speed>0.99</speed>
  <fix>3d</fix>
</trkpt>
<trkpt lat="-27.2743256" lon="151.2900656">
  <ele>342.01</ele>
  <time>2026-09-01T19:55:10Z</time>
  <course>1.44</course>
  <speed>0.9902019995940222</speed>
  <fix>3d</fix>
</trkpt>
<trkpt lat="-27.2743254" lon="151.2900654">
  <ele>343.17</ele>
  <time>2026-09-01T19:55:10Z</time>
  <course>12.26</course>
  <speed>0.9902019995940222</speed>
  <fix>3d</fix>
</trkpt>
<trkpt lat="-27.2743281" lon="151.2900654">
  <ele>343.09</ele>
  <time>2026-09-01T19:55:10Z</time>
  <course>1.41</course>
  <speed>0.99</speed>
  <fix>3d</fix>
</trkpt>
<trkpt lat="-27.2743245" lon="151.2900655">
  <ele>343.15</ele>
  <time>2026-09-01T19:55:10Z</time>
  <course>12.27</course>
  <speed>0.9902019995940222</speed>
  <fix>3d</fix>
</trkpt>
<trkpt lat="-27.2743263" lon="151.2900655">
  <ele>343.09</ele>
  <time>2026-09-01T19:55:10Z</time>
  <course>1.43</course>
  <speed>0.99</speed>
  <fix>3d</fix>
</trkpt>
<trkpt lat="-27.2743238" lon="151.2900656">
  <ele>342.01</ele>
  <time>2026-09-01T19:55:10Z</time>
  <course>1.47</course>
  <speed>0.9902019995940222</speed>
  <fix>3d</fix>
</trkpt>
<trkpt lat="-27.2743236" lon="151.2900655">
  <ele>343.2</ele>
  <time>2026-09-01T19:55:10Z</time>
  <course>12.28</course>
  <speed>0.9902019995940222</speed>
  <fix>3d</fix>
</trkpt>
<trkpt lat="-27.2743263" lon="151.2900655">
  <ele>343.09</ele>
  <time>2026-09-01T19:55:10Z</time>
  <course>1.43</course>
  <speed>0.99</speed>
  <fix>3d</fix>
</trkpt>
<trkpt lat="-27.2743227" lon="151.2900655">
  <ele>343.21</ele>
  <time>2026-09-01T19:55:10Z</time>
  <course>12.29</course>
  <speed>0.9902019995940222</speed>
  <fix>3d</fix>
</trkpt>
<trkpt lat="-27.2743245" lon="151.2900655">
  <ele>343.09</ele>
  <time>2026-09-01T19:55:10Z</time>
  <course>1.46</course>
  <speed>0.99</speed>
  <fix>3d</fix>
</trkpt>
<trkpt lat="-27.274322" lon="151.2900657">
  <ele>342.01</ele>
  <time>2026-09-01T19:55:10Z</time>
  <course>1.49</course>
  <speed>0.9902019995940222</speed>
  <fix>3d</fix>
</trkpt>
<trkpt lat="-27.2743218" lon="151.2900655">
  <ele>343.11</ele>
  <time>2026-09-01T19:55:10Z</time>
  <course>12.3</course>
  <speed>0.9902019995940222</speed>
  <fix>3d</fix>
</trkpt>
<trkpt lat="-27.2743245" lon="151.2900655">
  <ele>343.09</ele>
  <time>2026-09-01T19:55:10Z</time>
  <course>1.46</course>
  <speed>0.99</speed>
  <fix>3d</fix>
</trkpt>
<trkpt lat="-27.2743209" lon="151.2900656">
  <ele>342.87</ele>
  <time>2026-09-01T19:55:10Z</time>
  <course>12.31</course>
  <speed>0.9902019995940222</speed>
  <fix>3d</fix>
</trkpt>
<trkpt lat="-27.2743227" lon="151.2900656">
  <ele>343.09</ele>
  <time>2026-09-01T19:55:10Z</time>
  <course>1.48</course>
  <speed>0.99</speed>
  <fix>3d</fix>
</trkpt>
<trkpt lat="-27.2743202" lon="151.2900657">
  <ele>342.01</ele>
  <time>2026-09-01T19:55:10Z</time>
  <course>1.51</course>
  <speed>0.9902019995940222</speed>
  <fix>3d</fix>
</trkpt>
<trkpt lat="-27.27432" lon="151.2900656">
  <ele>342.97</ele>
  <time>2026-09-01T19:55:10Z</time>
  <course>12.33</course>
  <speed>0.9902019995940222</speed>
  <fix>3d</fix>
</trkpt>
<trkpt lat="-27.2743227" lon="151.2900656">
  <ele>343.09</ele>
  <time>2026-09-01T19:55:10Z</time>
  <course>1.48</course>
  <speed>0.99</speed>
  <fix>3d</fix>
</trkpt>
<trkpt lat="-27.2743191" lon="151.2900656">
  <ele>342.91</ele>
  <time>2026-09-01T19:55:10Z</time>
  <course>12.34</course>
  <speed>0.9902019995940222</speed>
  <fix>3d</fix>
</trkpt>
<trkpt lat="-27.2743209" lon="151.2900656">
  <ele>343.09</ele>
  <time>2026-09-01T19:55:10Z</time>
  <course>1.5</course>
  <speed>0.99</speed>
  <fix>3d</fix>
</trkpt>
<trkpt lat="-27.2743184" lon="151.2900658">
  <ele>342.01</ele>
  <time>2026-09-01T19:55:10Z</time>
  <course>1.53</course>
  <speed>0.9902019995940222</speed>
  <fix>3d</fix>
</trkpt>
<trkpt lat="-27.2743182" lon="151.2900656">
  <ele>342.73</ele>
  <time>2026-09-01T19:55:10Z</time>
  <course>12.35</course>
  <speed>0.9902019995940222</speed>
  <fix>3d</fix>
</trkpt>
<trkpt lat="-27.2743209" lon="151.2900656">
  <ele>343.09</ele>
  <time>2026-09-01T19:55:10Z</time>
  <course>1.5</course>
  <speed>0.99</speed>
  <fix>3d</fix>
</trkpt>
<trkpt lat="-27.2743173" lon="151.2900657">
  <ele>342.79</ele>
  <time>2026-09-01T19:55:10Z</time>
  <course>12.36</course>
  <speed>0.9902019995940222</speed>
  <fix>3d</fix>
</trkpt>
<trkpt lat="-27.2743191" lon="151.2900657">
  <ele>343.09</ele>
  <time>2026-09-01T19:55:10Z</time>
  <course>1.52</course>
  <speed>0.99</speed>
  <fix>3d</fix>
</trkpt>
<trkpt lat="-27.2743166" lon="151.2900658">
  <ele>342.009</ele>
  <time>2026-09-01T19:55:10Z</time>
  <course>1.56</course>
  <speed>0.9902019995940222</speed>
  <fix>3d</fix>
</trkpt>
<trkpt lat="-27.2743164" lon="151.2900657">
  <ele>342.83</ele>
  <time>2026-09-01T19:55:10Z</time>
  <course>12.37</course>
  <speed>0.9902019995940222</speed>
  <fix>3d</fix>
</trkpt>
<trkpt lat="-27.2743191" lon="151.2900657">
  <ele>343.09</ele>
  <time>2026-09-01T19:55:10Z</time>
  <course>1.52</course>
  <speed>0.99</speed>
  <fix>3d</fix>
</trkpt>
<trkpt lat="-27.2743155" lon="151.2900657">
  <ele>343.02</ele>
  <time>2026-09-01T19:55:10Z</time>
  <course>12.39</course>
  <speed>0.9902019995940222</speed>
  <fix>3d</fix>
</trkpt>
<trkpt lat="-27.2743173" lon="151.2900657">
  <ele>343.09</ele>
  <time>2026-09-01T19:55:10Z</time>
  <course>1.55</course>
  <speed>0.99</speed>
  <fix>3d</fix>
</trkpt>
<trkpt lat="-27.2743148" lon="151.2900659">
  <ele>342.009</ele>
  <time>2026-09-01T19:55:10Z</time>
  <course>1.58</course>
  <speed>0.9902019995940222</speed>
  <fix>3d</fix>
</trkpt>
<trkpt lat="-27.2743146" lon="151.2900657">
  <ele>343.03</ele>
  <time>2026-09-01T19:55:10Z</time>
  <course>12.4</course>
  <speed>0.9902019995940222</speed>
  <fix>3d</fix>
</trkpt>
<trkpt lat="-27.2743173" lon="151.2900657">
  <ele>343.09</ele>
  <time>2026-09-01T19:55:10Z</time>
  <course>1.55</course>
  <speed>0.99</speed>
  <fix>3d</fix>
</trkpt>
<trkpt lat="-27.2743137" lon="151.2900658">
  <ele>343.06</ele>
  <time>2026-09-01T19:55:10Z</time>
  <course>12.42</course>
  <speed>0.9902019995940222</speed>
  <fix>3d</fix>
</trkpt>
<trkpt lat="-27.2743155" lon="151.2900658">
  <ele>343.09</ele>
  <time>2026-09-01T19:55:10Z</time>
  <course>1.57</course>
  <speed>0.99</speed>
  <fix>3d</fix>
</trkpt>
<trkpt lat="-27.274313" lon="151.2900659">
  <ele>342.009</ele>
  <time>2026-09-01T19:55:10Z</time>
  <course>1.6</course>
  <speed>0.9902019995940222</speed>
  <fix>3d</fix>
</trkpt>
<trkpt lat="-27.2743128" lon="151.2900658">
  <ele>343.0</ele>
  <time>2026-09-01T19:55:10Z</time>
  <course>12.44</course>
  <speed>0.9902019995940222</speed>
  <fix>3d</fix>
</trkpt>
<trkpt lat="-27.2743155" lon="151.2900658">
  <ele>343.09</ele>
  <time>2026-09-01T19:55:10Z</time>
  <course>1.57</course>
  <speed>0.99</speed>
  <fix>3d</fix>
</trkpt>
<trkpt lat="-27.2743119" lon="151.2900659">
  <ele>342.87</ele>
  <time>2026-09-01T19:55:10Z</time>
  <course>12.46</course>
  <speed>0.9902019995940222</speed>
  <fix>3d</fix>
</trkpt>
<trkpt lat="-27.2743137" lon="151.2900659">
  <ele>343.09</ele>
  <time>2026-09-01T19:55:10Z</time>
  <course>1.59</course>
  <speed>0.99</speed>
  <fix>3d</fix>
</trkpt>
<trkpt lat="-27.2743112" lon="151.290066">
  <ele>342.009</ele>
  <time>2026-09-01T19:55:10Z</time>
  <course>1.63</course>
  <speed>0.9902019995940222</speed>
  <fix>3d</fix>
</trkpt>
<trkpt lat="-27.274311" lon="151.2900659">
  <ele>343.11</ele>
  <time>2026-09-01T19:55:10Z</time>
  <course>12.48</course>
  <speed>0.9902019995940222</speed>
  <fix>3d</fix>
</trkpt>
<trkpt lat="-27.2743137" lon="151.2900659">
  <ele>343.09</ele>
  <time>2026-09-01T19:55:10Z</time>
  <course>1.59</course>
  <speed>0.99</speed>
  <fix>3d</fix>
</trkpt>
<trkpt lat="-27.2743101" lon="151.2900659">
  <ele>342.87</ele>
  <time>2026-09-01T19:55:10Z</time>
  <course>12.5</course>
  <speed>0.9902019995940222</speed>
  <fix>3d</fix>
</trkpt>
<trkpt lat="-27.2743119" lon="151.2900659">
  <ele>343.09</ele>
  <time>2026-09-01T19:55:10Z</time>
  <course>1.62</course>
  <speed>0.99</speed>
  <fix>3d</fix>
</trkpt>
<trkpt lat="-27.2743094" lon="151.2900661">
  <ele>342.009</ele>
  <time>2026-09-01T19:55:10Z</time>
  <course>1.65</course>
  <speed>0.9902019995940222</speed>
  <fix>3d</fix>
</trkpt>
<trkpt lat="-27.2743092" lon="151.2900659">
  <ele>343.01</ele>
  <time>2026-09-01T19:55:10Z</time>
  <course>12.52</course>
  <speed>0.9902019995940222</speed>
  <fix>3d</fix>
</trkpt>
<trkpt lat="-27.2743119" lon="151.2900659">
  <ele>343.09</ele>
  <time>2026-09-01T19:55:10Z</time>
  <course>1.62</course>
  <speed>0.99</speed>
  <fix>3d</fix>
</trkpt>
<trkpt lat="-27.2743083" lon="151.290066">
  <ele>342.82</ele>
  <time>2026-09-01T19:55:10Z</time>
  <course>12.53</course>
  <speed>0.9902019995940222</speed>
  <fix>3d</fix>
</trkpt>
<trkpt lat="-27.2743101" lon="151.290066">
  <ele>343.09</ele>
  <time>2026-09-01T19:55:10Z</time>
  <course>1.64</course>
  <speed>0.99</speed>
  <fix>3d</fix>
</trkpt>
<trkpt lat="-27.2743076" lon="151.2900661">
  <ele>342.009</ele>
  <time>2026-09-01T19:55:10Z</time>
  <course>1.67</course>
  <speed>0.9902019995940222</speed>
  <fix>3d</fix>
</trkpt>
<trkpt lat="-27.2743074" lon="151.290066">
  <ele>342.89</ele>
  <time>2026-09-01T19:55:10Z</time>
  <course>12.55</course>
  <speed>0.9902019995940222</speed>
  <fix>3d</fix>
</trkpt>
<trkpt lat="-27.2743101" lon="151.290066">
  <ele>343.09</ele>
  <time>2026-09-01T19:55:10Z</time>
  <course>1.64</course>
  <speed>0.99</speed>
  <fix>3d</fix>
</trkpt>
<trkpt lat="-27.2743065" lon="151.290066">
  <ele>343.03</ele>
  <time>2026-09-01T19:55:10Z</time>
  <course>12.57</course>
  <speed>0.9902019995940222</speed>
  <fix>3d</fix>
</trkpt>
<trkpt lat="-27.2743083" lon="151.290066">
  <ele>343.09</ele>
  <time>2026-09-01T19:55:10Z</time>
  <course>1.66</course>
  <speed>0.99</speed>
  <fix>3d</fix>
</trkpt>
<trkpt lat="-27.2743058" lon="151.2900662">
  <ele>342.009</ele>
  <time>2026-09-01T19:55:10Z</time>
  <course>1.69</course>
  <speed>0.9902019995940222</speed>
  <fix>3d</fix>
</trkpt>
<trkpt lat="-27.2743056" lon="151.290066">
  <ele>343.08</ele>
  <time>2026-09-01T19:55:10Z</time>
  <course>12.59</course>
  <speed>0.9902019995940222</speed>
  <fix>3d</fix>
</trkpt>
<trkpt lat="-27.2743083" lon="151.290066">
  <ele>343.09</ele>
  <time>2026-09-01T19:55:10Z</time>
  <course>1.66</course>
  <speed>0.99</speed>
  <fix>3d</fix>
</trkpt>
<trkpt lat="-27.2743047" lon="151.2900661">
  <ele>342.75</ele>
  <time>2026-09-01T19:55:10Z</time>
  <course>12.61</course>
  <speed>0.9902019995940222</speed>
  <fix>3d</fix>
</trkpt>
<trkpt lat="-27.2743065" lon="151.2900661">
  <ele>343.09</ele>
  <time>2026-09-01T19:55:10Z</time>
  <course>1.68</course>
  <speed>0.99</speed>
  <fix>3d</fix>
</trkpt>
<trkpt lat="-27.274304" lon="151.2900662">
  <ele>342.009</ele>
  <time>2026-09-01T19:55:10Z</time>
  <course>1.72</course>
  <speed>0.9904544411531506</speed>
  <fix>3d</fix>
</trkpt>
<trkpt lat="-27.2743038" lon="151.2900661">
  <ele>342.94</ele>
  <time>2026-09-01T19:55:10Z</time>
  <course>12.63</course>
  <speed>0.9902019995940222</speed>
  <fix>3d</fix>
</trkpt>
<trkpt lat="-27.2743065" lon="151.2900661">
  <ele>343.09</ele>
  <time>2026-09-01T19:55:10Z</time>
  <course>1.68</course>
  <speed>0.99</speed>
  <fix>3d</fix>
</trkpt>
<trkpt lat="-27.2743029" lon="151.2900661">
  <ele>342.82</ele>
  <time>2026-09-01T19:55:10Z</time>
  <course>12.65</course>
  <speed>0.9902019995940222</speed>
  <fix>3d</fix>
</trkpt>
<trkpt lat="-27.2743047" lon="151.2900661">
  <ele>343.09</ele>
  <time>2026-09-01T19:55:10Z</time>
  <course>1.71</course>
  <speed>0.99</speed>
  <fix>3d</fix>
</trkpt>
<trkpt lat="-27.2743022" lon="151.2900663">
  <ele>342.009</ele>
  <time>2026-09-01T19:55:10Z</time>
  <course>1.74</course>
  <speed>0.9904544411531506</speed>
  <fix>3d</fix>
</trkpt>
<trkpt lat="-27.274302" lon="151.2900661">
  <ele>343.04</ele>
  <time>2026-09-01T19:55:10Z</time>
  <course>12.67</course>
  <speed>0.9902019995940222</speed>
  <fix>3d</fix>
</trkpt>
<trkpt lat="-27.2743047" lon="151.2900661">
  <ele>343.09</ele>
  <time>2026-09-01T19:55:10Z</time>
  <course>1.71</course>
  <speed>0.99</speed>
  <fix>3d</fix>
</trkpt>
<trkpt lat="-27.2743011" lon="151.2900662">
  <ele>342.87</ele>
  <time>2026-09-01T19:55:10Z</time>
  <course>12.68</course>
  <speed>0.9904544411531506</speed>
  <fix>3d</fix>
</trkpt>
<trkpt lat="-27.2743029" lon="151.2900662">
  <ele>343.09</ele>
  <time>2026-09-01T19:55:10Z</time>
  <course>1.73</course>
  <speed>0.99</speed>
  <fix>3d</fix>
</trkpt>
<trkpt lat="-27.2743004" lon="151.2900664">
  <ele>342.009</ele>
  <time>2026-09-01T19:55:10Z</time>
  <course>1.76</course>
  <speed>0.9904544411531506</speed>
  <fix>3d</fix>
</trkpt>
<trkpt lat="-27.2743002" lon="151.2900662">
  <ele>343.1</ele>
  <time>2026-09-01T19:55:10Z</time>
  <course>12.7</course>
  <speed>0.9904544411531506</speed>
  <fix>3d</fix>
</trkpt>
<trkpt lat="-27.2743029" lon="151.2900662">
  <ele>343.09</ele>
  <time>2026-09-01T19:55:10Z</time>
  <course>1.73</course>
  <speed>0.99</speed>
  <fix>3d</fix>
</trkpt>
<trkpt lat="-27.2742993" lon="151.2900663">
  <ele>342.94</ele>
  <time>2026-09-01T19:55:10Z</time>
  <course>12.72</course>
  <speed>0.9904544411531506</speed>
  <fix>3d</fix>
</trkpt>
<trkpt lat="-27.2743011" lon="151.2900663">
  <ele>343.09</ele>
  <time>2026-09-01T19:55:10Z</time>
  <course>1.75</course>
  <speed>0.99</speed>
  <fix>3d</fix>
</trkpt>
<trkpt lat="-27.2742986" lon="151.2900664">
  <ele>342.008</ele>
  <time>2026-09-01T19:55:10Z</time>
  <course>1.79</course>
  <speed>0.9904544411531506</speed>
  <fix>3d</fix>
</trkpt>
<trkpt lat="-27.2742984" lon="151.2900663">
  <ele>343.18</ele>
  <time>2026-09-01T19:55:10Z</time>
  <course>12.74</course>
  <speed>0.9904544411531506</speed>
  <fix>3d</fix>
</trkpt>
<trkpt lat="-27.2743011" lon="151.2900663">
  <ele>343.09</ele>
  <time>2026-09-01T19:55:10Z</time>
  <course>1.75</course>
  <speed>0.99</speed>
  <fix>3d</fix>
</trkpt>
<trkpt lat="-27.2742975" lon="151.2900663">
  <ele>343.01</ele>
  <time>2026-09-01T19:55:10Z</time>
  <course>12.76</course>
  <speed>0.9904544411531506</speed>
  <fix>3d</fix>
</trkpt>
<trkpt lat="-27.2742993" lon="151.2900663">
  <ele>343.09</ele>
  <time>2026-09-01T19:55:10Z</time>
  <course>1.78</course>
  <speed>0.99</speed>
  <fix>3d</fix>
</trkpt>
<trkpt lat="-27.2742969" lon="151.2900665">
  <ele>342.008</ele>
  <time>2026-09-01T19:55:10Z</time>
  <course>1.81</course>
  <speed>0.9904544411531506</speed>
  <fix>3d</fix>
</trkpt>
<trkpt lat="-27.2742966" lon="151.2900663">
  <ele>343.24</ele>
  <time>2026-09-01T19:55:10Z</time>
  <course>12.78</course>
  <speed>0.9904544411531506</speed>
  <fix>3d</fix>
</trkpt>
<trkpt lat="-27.2742993" lon="151.2900663">
  <ele>343.09</ele>
  <time>2026-09-01T19:55:10Z</time>
  <course>1.78</course>
  <speed>0.99</speed>
  <fix>3d</fix>
</trkpt>
<trkpt lat="-27.2742957" lon="151.2900664">
  <ele>342.93</ele>
  <time>2026-09-01T19:55:10Z</time>
  <course>12.79</course>
  <speed>0.9904544411531506</speed>
  <fix>3d</fix>
</trkpt>
<trkpt lat="-27.2742975" lon="151.2900664">
  <ele>343.09</ele>
  <time>2026-09-01T19:55:10Z</time>
  <course>1.8</course>
  <speed>0.99</speed>
  <fix>3d</fix>
</trkpt>
<trkpt lat="-27.2742951" lon="151.2900665">
  <ele>342.008</ele>
  <time>2026-09-01T19:55:10Z</time>
  <course>1.83</course>
  <speed>0.9904544411531506</speed>
  <fix>3d</fix>
</trkpt>
<trkpt lat="-27.2742948" lon="151.2900664">
  <ele>343.11</ele>
  <time>2026-09-01T19:55:10Z</time>
  <course>12.81</course>
  <speed>0.9904544411531506</speed>
  <fix>3d</fix>
</trkpt>
<trkpt lat="-27.2742975" lon="151.2900664">
  <ele>343.09</ele>
  <time>2026-09-01T19:55:10Z</time>
  <course>1.8</course>
  <speed>0.99</speed>
  <fix>3d</fix>
</trkpt>
<trkpt lat="-27.2742939" lon="151.2900665">
  <ele>343.0</ele>
  <time>2026-09-01T19:55:10Z</time>
  <course>12.83</course>
  <speed>0.9904544411531506</speed>
  <fix>3d</fix>
</trkpt>
<trkpt lat="-27.2742957" lon="151.2900665">
  <ele>343.09</ele>
  <time>2026-09-01T19:55:10Z</time>
  <course>1.82</course>
  <speed>0.99</speed>
  <fix>3d</fix>
</trkpt>
<trkpt lat="-27.2742933" lon="151.2900666">
  <ele>342.008</ele>
  <time>2026-09-01T19:55:10Z</time>
  <course>1.86</course>
  <speed>0.9904544411531506</speed>
  <fix>3d</fix>
</trkpt>
<trkpt lat="-27.274293" lon="151.2900665">
  <ele>343.12</ele>
  <time>2026-09-01T19:55:10Z</time>
  <course>12.84</course>
  <speed>0.9904544411531506</speed>
  <fix>3d</fix>
</trkpt>
<trkpt lat="-27.2742957" lon="151.2900665">
  <ele>343.09</ele>
  <time>2026-09-01T19:55:10Z</time>
  <course>1.82</course>
  <speed>0.99</speed>
  <fix>3d</fix>
</trkpt>
<trkpt lat="-27.2742921" lon="151.2900665">
  <ele>343.17</ele>
  <time>2026-09-01T19:55:11Z</time>
  <course>12.86</course>
  <speed>0.9904544411531506</speed>
  <fix>3d</fix>
</trkpt>
<trkpt lat="-27.2742939" lon="151.2900665">
  <ele>343.09</ele>
  <time>2026-09-01T19:55:11Z</time>
  <course>1.84</course>
  <speed>0.99</speed>
  <fix>3d</fix>
</trkpt>
<trkpt lat="-27.2742915" lon="151.2900667">
  <ele>342.008</ele>
  <time>2026-09-01T19:55:11Z</time>
  <course>1.88</course>
  <speed>0.9904544411531506</speed>
  <fix>3d</fix>
</trkpt>
<trkpt lat="-27.2742912" lon="151.2900665">
  <ele>342.96</ele>
  <time>2026-09-01T19:55:11Z</time>
  <course>12.88</course>
  <speed>0.9904544411531506</speed>
  <fix>3d</fix>
</trkpt>
<trkpt lat="-27.2742939" lon="151.2900665">
  <ele>343.09</ele>
  <time>2026-09-01T19:55:11Z</time>
  <course>1.84</course>
  <speed>0.99</speed>
  <fix>3d</fix>
</trkpt>
<trkpt lat="-27.2742903" lon="151.2900666">
  <ele>343.13</ele>
  <time>2026-09-01T19:55:11Z</time>
  <course>12.9</course>
  <speed>0.9904544411531506</speed>
  <fix>3d</fix>
</trkpt>
<trkpt lat="-27.2742921" lon="151.2900666">
  <ele>343.09</ele>
  <time>2026-09-01T19:55:11Z</time>
  <course>1.87</course>
  <speed>0.99</speed>
  <fix>3d</fix>
</trkpt>
<trkpt lat="-27.2742897" lon="151.2900667">
  <ele>342.008</ele>
  <time>2026-09-01T19:55:11Z</time>
  <course>1.9</course>
  <speed>0.9904544411531506</speed>
  <fix>3d</fix>
</trkpt>
<trkpt lat="-27.2742894" lon="151.2900666">
  <ele>342.95</ele>
  <time>2026-09-01T19:55:11Z</time>
  <course>12.91</course>
  <speed>0.9904544411531506</speed>
  <fix>3d</fix>
</trkpt>
<trkpt lat="-27.2742921" lon="151.2900666">
  <ele>343.09</ele>
  <time>2026-09-01T19:55:11Z</time>
  <course>1.87</course>
  <speed>0.99</speed>
  <fix>3d</fix>
</trkpt>
<trkpt lat="-27.2742886" lon="151.2900666">
  <ele>343.29</ele>
  <time>2026-09-01T19:55:11Z</time>
  <course>12.93</course>
  <speed>0.9904544411531506</speed>
  <fix>3d</fix>
</trkpt>
<trkpt lat="-27.2742904" lon="151.2900666">
  <ele>343.09</ele>
  <time>2026-09-01T19:55:11Z</time>
  <course>1.89</course>
  <speed>0.99</speed>
  <fix>3d</fix>
</trkpt>
<trkpt lat="-27.2742879" lon="151.2900668">
  <ele>342.008</ele>
  <time>2026-09-01T19:55:11Z</time>
  <course>1.92</course>
  <speed>0.9904544411531506</speed>
  <fix>3d</fix>
</trkpt>
<trkpt lat="-27.2742877" lon="151.2900667">
  <ele>343.21</ele>
  <time>2026-09-01T19:55:11Z</time>
  <course>12.95</course>
  <speed>0.9904544411531506</speed>
  <fix>3d</fix>
</trkpt>
<trkpt lat="-27.2742904" lon="151.2900666">
  <ele>343.09</ele>
  <time>2026-09-01T19:55:11Z</time>
  <course>1.89</course>
  <speed>0.99</speed>
  <fix>3d</fix>
</trkpt>
<trkpt lat="-27.2742868" lon="151.2900667">
  <ele>343.06</ele>
  <time>2026-09-01T19:55:11Z</time>
  <course>12.96</course>
  <speed>0.9904544411531506</speed>
  <fix>3d</fix>
</trkpt>
<trkpt lat="-27.2742886" lon="151.2900667">
  <ele>343.09</ele>
  <time>2026-09-01T19:55:11Z</time>
  <course>1.91</course>
  <speed>0.99</speed>
  <fix>3d</fix>
</trkpt>
<trkpt lat="-27.2742861" lon="151.2900669">
  <ele>342.008</ele>
  <time>2026-09-01T19:55:11Z</time>
  <course>1.95</course>
  <speed>0.9904544411531506</speed>
  <fix>3d</fix>
</trkpt>
<trkpt lat="-27.2742859" lon="151.2900668">
  <ele>343.22</ele>
  <time>2026-09-01T19:55:11Z</time>
  <course>12.98</course>
  <speed>0.9904544411531506</speed>
  <fix>3d</fix>
</trkpt>
<trkpt lat="-27.2742886" lon="151.2900667">
  <ele>343.09</ele>
  <time>2026-09-01T19:55:11Z</time>
  <course>1.91</course>
  <speed>0.99</speed>
  <fix>3d</fix>
</trkpt>
<trkpt lat="-27.274285" lon="151.2900668">
  <ele>343.32</ele>
  <time>2026-09-01T19:55:11Z</time>
  <course>13.0</course>
  <speed>0.9904544411531506</speed>
  <fix>3d</fix>
</trkpt>
<trkpt lat="-27.2742868" lon="151.2900668">
  <ele>343.09</ele>
  <time>2026-09-01T19:55:11Z</time>
  <course>1.94</course>
  <speed>0.99</speed>
  <fix>3d</fix>
</trkpt>
<trkpt lat="-27.2742843" lon="151.290067">
  <ele>342.008</ele>
  <time>2026-09-01T19:55:11Z</time>
  <course>1.97</course>
  <speed>0.9904544411531506</speed>
  <fix>3d</fix>
</trkpt>
<trkpt lat="-27.2742841" lon="151.2900669">
  <ele>343.04</ele>
  <time>2026-09-01T19:55:11Z</time>
  <course>13.01</course>
  <speed>0.9904544411531506</speed>
  <fix>3d</fix>
</trkpt>
<trkpt lat="-27.2742868" lon="151.2900668">
  <ele>343.09</ele>
  <time>2026-09-01T19:55:11Z</time>
  <course>1.94</course>
  <speed>0.99</speed>
  <fix>3d</fix>
</trkpt>
<trkpt lat="-27.2742832" lon="151.2900669">
  <ele>343.15</ele>
  <time>2026-09-01T19:55:11Z</time>
  <course>13.03</course>
  <speed>0.9904544411531506</speed>
  <fix>3d</fix>
</trkpt>
<trkpt lat="-27.274285" lon="151.2900669">
  <ele>343.09</ele>
  <time>2026-09-01T19:55:11Z</time>
  <course>1.96</course>
  <speed>0.99</speed>
  <fix>3d</fix>
</trkpt>
<trkpt lat="-27.2742825" lon="151.290067">
  <ele>342.008</ele>
  <time>2026-09-01T19:55:11Z</time>
  <course>1.99</course>
  <speed>0.9904544411531506</speed>
  <fix>3d</fix>
</trkpt>
<trkpt lat="-27.2742823" lon="151.290067">
  <ele>343.15</ele>
  <time>2026-09-01T19:55:11Z</time>
  <course>13.05</course>
  <speed>0.9904544411531506</speed>
  <fix>3d</fix>
</trkpt>
<trkpt lat="-27.274285" lon="151.2900669">
  <ele>343.09</ele>
  <time>2026-09-01T19:55:11Z</time>
  <course>1.96</course>
  <speed>0.99</speed>
  <fix>3d</fix>
</trkpt>
<trkpt lat="-27.2742814" lon="151.2900669">
  <ele>343.07</ele>
  <time>2026-09-01T19:55:11Z</time>
  <course>13.06</course>
  <speed>0.9904544411531506</speed>
  <fix>3d</fix>
</trkpt>
<trkpt lat="-27.2742832" lon="151.2900669">
  <ele>343.09</ele>
  <time>2026-09-01T19:55:11Z</time>
  <course>1.98</course>
  <speed>0.99</speed>
  <fix>3d</fix>
</trkpt>
<trkpt lat="-27.2742807" lon="151.2900671">
  <ele>342.007</ele>
  <time>2026-09-01T19:55:11Z</time>
  <course>2.02</course>
  <speed>0.9904544411531506</speed>
  <fix>3d</fix>
</trkpt>
<trkpt lat="-27.2742805" lon="151.290067">
  <ele>343.16</ele>
  <time>2026-09-01T19:55:11Z</time>
  <course>13.08</course>
  <speed>0.9904544411531506</speed>
  <fix>3d</fix>
</trkpt>
<trkpt lat="-27.2742832" lon="151.2900669">
  <ele>343.09</ele>
  <time>2026-09-01T19:55:11Z</time>
  <course>1.98</course>
  <speed>0.99</speed>
  <fix>3d</fix>
</trkpt>
<trkpt lat="-27.2742796" lon="151.290067">
  <ele>343.22</ele>
  <time>2026-09-01T19:55:11Z</time>
  <course>13.1</course>
  <speed>0.9904544411531506</speed>
  <fix>3d</fix>
</trkpt>
<trkpt lat="-27.2742814" lon="151.290067">
  <ele>343.09</ele>
  <time>2026-09-01T19:55:11Z</time>
  <course>2.01</course>
  <speed>0.99</speed>
  <fix>3d</fix>
</trkpt>
<trkpt lat="-27.2742789" lon="151.2900672">
  <ele>342.007</ele>
  <time>2026-09-01T19:55:11Z</time>
  <course>2.04</course>
  <speed>0.9904544411531506</speed>
  <fix>3d</fix>
</trkpt>
<trkpt lat="-27.2742787" lon="151.2900671">
  <ele>343.0</ele>
  <time>2026-09-01T19:55:11Z</time>
  <course>13.11</course>
  <speed>0.9904544411531506</speed>
  <fix>3d</fix>
</trkpt>
<trkpt lat="-27.2742814" lon="151.290067">
  <ele>343.09</ele>
  <time>2026-09-01T19:55:11Z</time>
  <course>2.01</course>
  <speed>0.99</speed>
  <fix>3d</fix>
</trkpt>
<trkpt lat="-27.2742778" lon="151.290067">
  <ele>343.25</ele>
  <time>2026-09-01T19:55:11Z</time>
  <course>13.13</course>
  <speed>0.9904544411531506</speed>
  <fix>3d</fix>
</trkpt>
<trkpt lat="-27.2742796" lon="151.290067">
  <ele>343.09</ele>
  <time>2026-09-01T19:55:11Z</time>
  <course>2.03</course>
  <speed>0.99</speed>
  <fix>3d</fix>
</trkpt>
<trkpt lat="-27.2742771" lon="151.2900672">
  <ele>342.007</ele>
  <time>2026-09-01T19:55:11Z</time>
  <course>2.06</course>
  <speed>0.9904544411531506</speed>
  <fix>3d</fix>
</trkpt>
<trkpt lat="-27.2742769" lon="151.2900671">
  <ele>343.27</ele>
  <time>2026-09-01T19:55:11Z</time>
  <course>13.14</course>
  <speed>0.9904544411531506</speed>
  <fix>3d</fix>
</trkpt>
<trkpt lat="-27.2742796" lon="151.290067">
  <ele>343.09</ele>
  <time>2026-09-01T19:55:11Z</time>
  <course>2.03</course>
  <speed>0.99</speed>
  <fix>3d</fix>
</trkpt>
<trkpt lat="-27.274276" lon="151.2900671">
  <ele>343.33</ele>
  <time>2026-09-01T19:55:11Z</time>
  <course>13.16</course>
  <speed>0.9904544411531506</speed>
  <fix>3d</fix>
</trkpt>
<trkpt lat="-27.2742778" lon="151.2900671">
  <ele>343.09</ele>
  <time>2026-09-01T19:55:11Z</time>
  <course>2.05</course>
  <speed>0.99</speed>
  <fix>3d</fix>
</trkpt>
<trkpt lat="-27.2742753" lon="151.2900673">
  <ele>342.007</ele>
  <time>2026-09-01T19:55:11Z</time>
  <course>2.08</course>
  <speed>0.9904544411531506</speed>
  <fix>3d</fix>
</trkpt>
<trkpt lat="-27.2742751" lon="151.2900672">
  <ele>343.09</ele>
  <time>2026-09-01T19:55:11Z</time>
  <course>13.18</course>
  <speed>0.9904544411531506</speed>
  <fix>3d</fix>
</trkpt>
<trkpt lat="-27.2742778" lon="151.2900671">
  <ele>343.09</ele>
  <time>2026-09-01T19:55:11Z</time>
  <course>2.05</course>
  <speed>0.99</speed>
  <fix>3d</fix>
</trkpt>
<trkpt lat="-27.2742742" lon="151.2900672">
  <ele>342.95</ele>
  <time>2026-09-01T19:55:11Z</time>
  <course>13.19</course>
  <speed>0.9904544411531506</speed>
  <fix>3d</fix>
</trkpt>
<trkpt lat="-27.274276" lon="151.2900672">
  <ele>343.09</ele>
  <time>2026-09-01T19:55:11Z</time>
  <course>2.07</course>
  <speed>0.99</speed>
  <fix>3d</fix>
</trkpt>
<trkpt lat="-27.2742735" lon="151.2900674">
  <ele>342.007</ele>
  <time>2026-09-01T19:55:11Z</time>
  <course>2.11</course>
  <speed>0.9904544411531506</speed>
  <fix>3d</fix>
</trkpt>
<trkpt lat="-27.2742733" lon="151.2900673">
  <ele>343.02</ele>
  <time>2026-09-01T19:55:11Z</time>
  <course>13.21</course>
  <speed>0.9904544411531506</speed>
  <fix>3d</fix>
</trkpt>
<trkpt lat="-27.274276" lon="151.2900672">
  <ele>343.09</ele>
  <time>2026-09-01T19:55:11Z</time>
  <course>2.07</course>
  <speed>0.99</speed>
  <fix>3d</fix>
</trkpt>
<trkpt lat="-27.2742724" lon="151.2900673">
  <ele>343.22</ele>
  <time>2026-09-01T19:55:11Z</time>
  <course>13.22</course>
  <speed>0.9904544411531506</speed>
  <fix>3d</fix>
</trkpt>
<trkpt lat="-27.2742742" lon="151.2900673">
  <ele>343.09</ele>
  <time>2026-09-01T19:55:11Z</time>
  <course>2.1</course>
  <speed>0.99</speed>
  <fix>3d</fix>
</trkpt>
<trkpt lat="-27.2742717" lon="151.2900675">
  <ele>342.007</ele>
  <time>2026-09-01T19:55:11Z</time>
  <course>2.13</course>
  <speed>0.9904544411531506</speed>
  <fix>3d</fix>
</trkpt>
<trkpt lat="-27.2742715" lon="151.2900674">
  <ele>343.13</ele>
  <time>2026-09-01T19:55:11Z</time>
  <course>13.24</course>
  <speed>0.9904544411531506</speed>
  <fix>3d</fix>
</trkpt>
<trkpt lat="-27.2742742" lon="151.2900673">
  <ele>343.09</ele>
  <time>2026-09-01T19:55:11Z</time>
  <course>2.1</course>
  <speed>0.99</speed>
  <fix>3d</fix>
</trkpt>
<trkpt lat="-27.2742706" lon="151.2900674">
  <ele>343.12</ele>
  <time>2026-09-01T19:55:11Z</time>
  <course>13.26</course>
  <speed>0.9904544411531506</speed>
  <fix>3d</fix>
</trkpt>
<trkpt lat="-27.2742724" lon="151.2900674">
  <ele>343.09</ele>
  <time>2026-09-01T19:55:11Z</time>
  <course>2.12</course>
  <speed>0.99</speed>
  <fix>3d</fix>
</trkpt>
<trkpt lat="-27.2742699" lon="151.2900675">
  <ele>342.007</ele>
  <time>2026-09-01T19:55:11Z</time>
  <course>2.15</course>
  <speed>0.9904544411531506</speed>
  <fix>3d</fix>
</trkpt>
<trkpt lat="-27.2742697" lon="151.2900675">
  <ele>343.02</ele>
  <time>2026-09-01T19:55:11Z</time>
  <course>13.27</course>
  <speed>0.9904544411531506</speed>
  <fix>3d</fix>
</trkpt>
<trkpt lat="-27.2742724" lon="151.2900674">
  <ele>343.09</ele>
  <time>2026-09-01T19:55:11Z</time>
  <course>2.12</course>
  <speed>0.99</speed>
  <fix>3d</fix>
</trkpt>
<trkpt lat="-27.2742688" lon="151.2900674">
  <ele>343.14</ele>
  <time>2026-09-01T19:55:11Z</time>
  <course>13.29</course>
  <speed>0.9904544411531506</speed>
  <fix>3d</fix>
</trkpt>
<trkpt lat="-27.2742706" lon="151.2900674">
  <ele>343.09</ele>
  <time>2026-09-01T19:55:11Z</time>
  <course>2.14</course>
  <speed>0.99</speed>
  <fix>3d</fix>
</trkpt>
<trkpt lat="-27.2742681" lon="151.2900676">
  <ele>342.007</ele>
  <time>2026-09-01T19:55:11Z</time>
  <course>2.18</course>
  <speed>0.9904544411531506</speed>
  <fix>3d</fix>
</trkpt>
<trkpt lat="-27.2742679" lon="151.2900675">
  <ele>343.13</ele>
  <time>2026-09-01T19:55:11Z</time>
  <course>13.3</course>
  <speed>0.9904544411531506</speed>
  <fix>3d</fix>
</trkpt>
<trkpt lat="-27.2742706" lon="151.2900674">
  <ele>343.09</ele>
  <time>2026-09-01T19:55:11Z</time>
  <course>2.14</course>
  <speed>0.99</speed>
  <fix>3d</fix>
</trkpt>
<trkpt lat="-27.274267" lon="151.2900675">
  <ele>343.16</ele>
  <time>2026-09-01T19:55:11Z</time>
  <course>13.32</course>
  <speed>0.9904544411531506</speed>
  <fix>3d</fix>
</trkpt>
<trkpt lat="-27.2742688" lon="151.2900675">
  <ele>343.09</ele>
  <time>2026-09-01T19:55:11Z</time>
  <course>2.17</course>
  <speed>0.99</speed>
  <fix>3d</fix>
</trkpt>
<trkpt lat="-27.2742664" lon="151.2900677">
  <ele>342.007</ele>
  <time>2026-09-01T19:55:11Z</time>
  <course>2.2</course>
  <speed>0.9904544411531506</speed>
  <fix>3d</fix>
</trkpt>
<trkpt lat="-27.2742661" lon="151.2900676">
  <ele>342.94</ele>
  <time>2026-09-01T19:55:11Z</time>
  <course>13.33</course>
  <speed>0.9904544411531506</speed>
  <fix>3d</fix>
</trkpt>
<trkpt lat="-27.2742688" lon="151.2900675">
  <ele>343.09</ele>
  <time>2026-09-01T19:55:11Z</time>
  <course>2.17</course>
  <speed>0.99</speed>
  <fix>3d</fix>
</trkpt>
<trkpt lat="-27.2742652" lon="151.2900676">
  <ele>343.05</ele>
  <time>2026-09-01T19:55:11Z</time>
  <course>13.35</course>
  <speed>0.9904544411531506</speed>
  <fix>3d</fix>
</trkpt>
<trkpt lat="-27.274267" lon="151.2900676">
  <ele>343.09</ele>
  <time>2026-09-01T19:55:11Z</time>
  <course>2.19</course>
  <speed>0.99</speed>
  <fix>3d</fix>
</trkpt>
<trkpt lat="-27.2742646" lon="151.2900678">
  <ele>342.007</ele>
  <time>2026-09-01T19:55:11Z</time>
  <course>2.22</course>
  <speed>0.9904544411531506</speed>
  <fix>3d</fix>
</trkpt>
<trkpt lat="-27.2742643" lon="151.2900677">
  <ele>343.09</ele>
  <time>2026-09-01T19:55:11Z</time>
  <course>13.36</course>
  <speed>0.9904544411531506</speed>
  <fix>3d</fix>
</trkpt>
<trkpt lat="-27.274267" lon="151.2900676">
  <ele>343.09</ele>
  <time>2026-09-01T19:55:11Z</time>
  <course>2.19</course>
  <speed>0.99</speed>
  <fix>3d</fix>
</trkpt>
<trkpt lat="-27.2742634" lon="151.2900677">
  <ele>343.28</ele>
  <time>2026-09-01T19:55:11Z</time>
  <course>13.38</course>
  <speed>0.9904544411531506</speed>
  <fix>3d</fix>
</trkpt>
<trkpt lat="-27.2742652" lon="151.2900677">
  <ele>343.08</ele>
  <time>2026-09-01T19:55:11Z</time>
  <course>2.21</course>
  <speed>0.99</speed>
  <fix>3d</fix>
</trkpt>
<trkpt lat="-27.2742628" lon="151.2900678">
  <ele>342.006</ele>
  <time>2026-09-01T19:55:11Z</time>
  <course>2.24</course>
  <speed>0.9904544411531506</speed>
  <fix>3d</fix>
</trkpt>
<trkpt lat="-27.2742625" lon="151.2900678">
  <ele>343.01</ele>
  <time>2026-09-01T19:55:11Z</time>
  <course>13.39</course>
  <speed>0.9904544411531506</speed>
  <fix>3d</fix>
</trkpt>
<trkpt lat="-27.2742652" lon="151.2900677">
  <ele>343.08</ele>
  <time>2026-09-01T19:55:11Z</time>
  <course>2.21</course>
  <speed>0.99</speed>
  <fix>3d</fix>
</trkpt>
<trkpt lat="-27.2742616" lon="151.2900678">
  <ele>343.11</ele>
  <time>2026-09-01T19:55:11Z</time>
  <course>13.41</course>
  <speed>0.9904544411531506</speed>
  <fix>3d</fix>
</trkpt>
<trkpt lat="-27.2742634" lon="151.2900678">
  <ele>343.08</ele>
  <time>2026-09-01T19:55:11Z</time>
  <course>2.23</course>
  <speed>0.99</speed>
  <fix>3d</fix>
</trkpt>
<trkpt lat="-27.274261" lon="151.2900679">
  <ele>342.006</ele>
  <time>2026-09-01T19:55:11Z</time>
  <course>2.27</course>
  <speed>0.9904544411531506</speed>
  <fix>3d</fix>
</trkpt>
<trkpt lat="-27.2742607" lon="151.2900679">
  <ele>343.0</ele>
  <time>2026-09-01T19:55:11Z</time>
  <course>13.42</course>
  <speed>0.9904544411531506</speed>
  <fix>3d</fix>
</trkpt>
<trkpt lat="-27.2742634" lon="151.2900678">
  <ele>343.08</ele>
  <time>2026-09-01T19:55:11Z</time>
  <course>2.23</course>
  <speed>0.99</speed>
  <fix>3d</fix>
</trkpt>
<trkpt lat="-27.2742598" lon="151.2900678">
  <ele>343.15</ele>
  <time>2026-09-01T19:55:11Z</time>
  <course>13.44</course>
  <speed>0.9904544411531506</speed>
  <fix>3d</fix>
</trkpt>
<trkpt lat="-27.2742616" lon="151.2900678">
  <ele>343.08</ele>
  <time>2026-09-01T19:55:11Z</time>
  <course>2.26</course>
  <speed>0.99</speed>
  <fix>3d</fix>
</trkpt>
<trkpt lat="-27.2742592" lon="151.290068">
  <ele>342.006</ele>
  <time>2026-09-01T19:55:11Z</time>
  <course>2.29</course>
  <speed>0.9908077512817509</speed>
  <fix>3d</fix>
</trkpt>
<trkpt lat="-27.2742589" lon="151.2900679">
  <ele>343.24</ele>
  <time>2026-09-01T19:55:11Z</time>
  <course>13.46</course>
  <speed>0.9904544411531506</speed>
  <fix>3d</fix>
</trkpt>
<trkpt lat="-27.2742616" lon="151.2900678">
  <ele>343.08</ele>
  <time>2026-09-01T19:55:11Z</time>
  <course>2.26</course>
  <speed>0.99</speed>
  <fix>3d</fix>
</trkpt>
<trkpt lat="-27.274258" lon="151.2900679">
  <ele>343.27</ele>
  <time>2026-09-01T19:55:11Z</time>
  <course>13.47</course>
  <speed>0.9904544411531506</speed>
  <fix>3d</fix>
</trkpt>
<trkpt lat="-27.2742598" lon="151.2900679">
  <ele>343.08</ele>
  <time>2026-09-01T19:55:11Z</time>
  <course>2.28</course>
  <speed>0.99</speed>
  <fix>3d</fix>
</trkpt>
<trkpt lat="-27.2742574" lon="151.2900681">
  <ele>342.006</ele>
  <time>2026-09-01T19:55:11Z</time>
  <course>2.31</course>
  <speed>0.9908077512817509</speed>
  <fix>3d</fix>
</trkpt>
<trkpt lat="-27.2742571" lon="151.290068">
  <ele>343.11</ele>
  <time>2026-09-01T19:55:11Z</time>
  <course>13.49</course>
  <speed>0.9904544411531506</speed>
  <fix>3d</fix>
</trkpt>
<trkpt lat="-27.2742598" lon="151.2900679">
  <ele>343.08</ele>
  <time>2026-09-01T19:55:11Z</time>
  <course>2.28</course>
  <speed>0.99</speed>
  <fix>3d</fix>
</trkpt>
<trkpt lat="-27.2742562" lon="151.290068">
  <ele>343.08</ele>
  <time>2026-09-01T19:55:11Z</time>
  <course>13.5</course>
  <speed>0.9908077512817509</speed>
  <fix>3d</fix>
</trkpt>
<trkpt lat="-27.274258" lon="151.290068">
  <ele>343.08</ele>
  <time>2026-09-01T19:55:11Z</time>
  <course>2.3</course>
  <speed>0.99</speed>
  <fix>3d</fix>
</trkpt>
<trkpt lat="-27.2742556" lon="151.2900682">
  <ele>342.006</ele>
  <time>2026-09-01T19:55:11Z</time>
  <course>2.34</course>
  <speed>0.9908077512817509</speed>
  <fix>3d</fix>
</trkpt>
<trkpt lat="-27.2742553" lon="151.2900681">
  <ele>343.18</ele>
  <time>2026-09-01T19:55:11Z</time>
  <course>13.52</course>
  <speed>0.9908077512817509</speed>
  <fix>3d</fix>
</trkpt>
<trkpt lat="-27.274258" lon="151.290068">
  <ele>343.08</ele>
  <time>2026-09-01T19:55:11Z</time>
  <course>2.3</course>
  <speed>0.99</speed>
  <fix>3d</fix>
</trkpt>
<trkpt lat="-27.2742544" lon="151.2900681">
  <ele>343.07</ele>
  <time>2026-09-01T19:55:11Z</time>
  <course>13.53</course>
  <speed>0.9908077512817509</speed>
  <fix>3d</fix>
</trkpt>
<trkpt lat="-27.2742562" lon="151.2900681">
  <ele>343.08</ele>
  <time>2026-09-01T19:55:11Z</time>
  <course>2.33</course>
  <speed>0.99</speed>
  <fix>3d</fix>
</trkpt>
<trkpt lat="-27.2742538" lon="151.2900683">
  <ele>342.006</ele>
  <time>2026-09-01T19:55:11Z</time>
  <course>2.36</course>
  <speed>0.9908077512817509</speed>
  <fix>3d</fix>
</trkpt>
<trkpt lat="-27.2742535" lon="151.2900682">
  <ele>343.09</ele>
  <time>2026-09-01T19:55:11Z</time>
  <course>13.55</course>
  <speed>0.9908077512817509</speed>
  <fix>3d</fix>
</trkpt>
<trkpt lat="-27.2742562" lon="151.2900681">
  <ele>343.08</ele>
  <time>2026-09-01T19:55:11Z</time>
  <course>2.33</course>
  <speed>0.99</speed>
  <fix>3d</fix>
</trkpt>
<trkpt lat="-27.2742527" lon="151.2900681">
  <ele>343.19</ele>
  <time>2026-09-01T19:55:11Z</time>
  <course>13.56</course>
  <speed>0.9908077512817509</speed>
  <fix>3d</fix>
</trkpt>
<trkpt lat="-27.2742545" lon="151.2900681">
  <ele>343.08</ele>
  <time>2026-09-01T19:55:11Z</time>
  <course>2.35</course>
  <speed>0.99</speed>
  <fix>3d</fix>
</trkpt>
<trkpt lat="-27.274252" lon="151.2900683">
  <ele>342.006</ele>
  <time>2026-09-01T19:55:11Z</time>
  <course>2.38</course>
  <speed>0.9908077512817509</speed>
  <fix>3d</fix>
</trkpt>
<trkpt lat="-27.2742518" lon="151.2900682">
  <ele>343.2</ele>
  <time>2026-09-01T19:55:11Z</time>
  <course>13.58</course>
  <speed>0.9908077512817509</speed>
  <fix>3d</fix>
</trkpt>
<trkpt lat="-27.2742545" lon="151.2900681">
  <ele>343.08</ele>
  <time>2026-09-01T19:55:11Z</time>
  <course>2.35</course>
  <speed>0.99</speed>
  <fix>3d</fix>
</trkpt>
<trkpt lat="-27.2742509" lon="151.2900682">
  <ele>342.96</ele>
  <time>2026-09-01T19:55:11Z</time>
  <course>13.59</course>
  <speed>0.9908077512817509</speed>
  <fix>3d</fix>
</trkpt>
<trkpt lat="-27.2742527" lon="151.2900682">
  <ele>343.08</ele>
  <time>2026-09-01T19:55:11Z</time>
  <course>2.37</course>
  <speed>0.99</speed>
  <fix>3d</fix>
</trkpt>
<trkpt lat="-27.2742502" lon="151.2900684">
  <ele>342.006</ele>
  <time>2026-09-01T19:55:11Z</time>
  <course>2.41</course>
  <speed>0.9908077512817509</speed>
  <fix>3d</fix>
</trkpt>
<trkpt lat="-27.27425" lon="151.2900683">
  <ele>343.13</ele>
  <time>2026-09-01T19:55:11Z</time>
  <course>13.6</course>
  <speed>0.9908077512817509</speed>
  <fix>3d</fix>
</trkpt>
<trkpt lat="-27.2742527" lon="151.2900682">
  <ele>343.08</ele>
  <time>2026-09-01T19:55:11Z</time>
  <course>2.37</course>
  <speed>0.99</speed>
  <fix>3d</fix>
</trkpt>
<trkpt lat="-27.2742491" lon="151.2900683">
  <ele>343.26</ele>
  <time>2026-09-01T19:55:11Z</time>
  <course>13.62</course>
  <speed>0.9908077512817509</speed>
  <fix>3d</fix>
</trkpt>
<trkpt lat="-27.2742509" lon="151.2900683">
  <ele>343.08</ele>
  <time>2026-09-01T19:55:11Z</time>
  <course>2.39</course>
  <speed>0.99</speed>
  <fix>3d</fix>
</trkpt>
<trkpt lat="-27.2742484" lon="151.2900685">
  <ele>342.005</ele>
  <time>2026-09-01T19:55:11Z</time>
  <course>2.43</course>
  <speed>0.9908077512817509</speed>
  <fix>3d</fix>
</trkpt>
<trkpt lat="-27.2742482" lon="151.2900684">
  <ele>343.28</ele>
  <time>2026-09-01T19:55:11Z</time>
  <course>13.63</course>
  <speed>0.9908077512817509</speed>
  <fix>3d</fix>
</trkpt>
<trkpt lat="-27.2742509" lon="151.2900683">
  <ele>343.08</ele>
  <time>2026-09-01T19:55:11Z</time>
  <course>2.39</course>
  <speed>0.99</speed>
  <fix>3d</fix>
</trkpt>
<trkpt lat="-27.2742473" lon="151.2900684">
  <ele>343.3</ele>
  <time>2026-09-01T19:55:11Z</time>
  <course>13.64</course>
  <speed>0.9908077512817509</speed>
  <fix>3d</fix>
</trkpt>
<trkpt lat="-27.2742491" lon="151.2900684">
  <ele>343.08</ele>
  <time>2026-09-01T19:55:11Z</time>
  <course>2.42</course>
  <speed>0.99</speed>
  <fix>3d</fix>
</trkpt>
<trkpt lat="-27.2742466" lon="151.2900686">
  <ele>342.005</ele>
  <time>2026-09-01T19:55:11Z</time>
  <course>2.45</course>
  <speed>0.9908077512817509</speed>
  <fix>3d</fix>
</trkpt>
<trkpt lat="-27.2742464" lon="151.2900685">
  <ele>342.94</ele>
  <time>2026-09-01T19:55:11Z</time>
  <course>13.66</course>
  <speed>0.9908077512817509</speed>
  <fix>3d</fix>
</trkpt>
<trkpt lat="-27.2742491" lon="151.2900684">
  <ele>343.08</ele>
  <time>2026-09-01T19:55:11Z</time>
  <course>2.42</course>
  <speed>0.99</speed>
  <fix>3d</fix>
</trkpt>
<trkpt lat="-27.2742455" lon="151.2900685">
  <ele>342.95</ele>
  <time>2026-09-01T19:55:11Z</time>
  <course>13.67</course>
  <speed>0.9908077512817509</speed>
  <fix>3d</fix>
</trkpt>
<trkpt lat="-27.2742473" lon="151.2900685">
  <ele>343.08</ele>
  <time>2026-09-01T19:55:11Z</time>
  <course>2.44</course>
  <speed>0.99</speed>
  <fix>3d</fix>
</trkpt>
<trkpt lat="-27.2742448" lon="151.2900687">
  <ele>342.005</ele>
  <time>2026-09-01T19:55:11Z</time>
  <course>2.47</course>
  <speed>0.9908077512817509</speed>
  <fix>3d</fix>
</trkpt>
<trkpt lat="-27.2742446" lon="151.2900686">
  <ele>342.81</ele>
  <time>2026-09-01T19:55:11Z</time>
  <course>13.68</course>
  <speed>0.9908077512817509</speed>
  <fix>3d</fix>
</trkpt>
<trkpt lat="-27.2742473" lon="151.2900685">
  <ele>343.08</ele>
  <time>2026-09-01T19:55:11Z</time>
  <course>2.44</course>
  <speed>0.99</speed>
  <fix>3d</fix>
</trkpt>
<trkpt lat="-27.2742437" lon="151.2900686">
  <ele>342.81</ele>
  <time>2026-09-01T19:55:11Z</time>
  <course>13.69</course>
  <speed>0.9908077512817509</speed>
  <fix>3d</fix>
</trkpt>
<trkpt lat="-27.2742455" lon="151.2900686">
  <ele>343.08</ele>
  <time>2026-09-01T19:55:11Z</time>
  <course>2.46</course>
  <speed>0.99</speed>
  <fix>3d</fix>
</trkpt>
<trkpt lat="-27.274243" lon="151.2900688">
  <ele>342.005</ele>
  <time>2026-09-01T19:55:11Z</time>
  <course>2.5</course>
  <speed>0.9908077512817509</speed>
  <fix>3d</fix>
</trkpt>
<trkpt lat="-27.2742428" lon="151.2900687">
  <ele>342.72</ele>
  <time>2026-09-01T19:55:11Z</time>
  <course>13.71</course>
  <speed>0.9908077512817509</speed>
  <fix>3d</fix>
</trkpt>
<trkpt lat="-27.2742455" lon="151.2900686">
  <ele>343.08</ele>
  <time>2026-09-01T19:55:11Z</time>
  <course>2.46</course>
  <speed>0.99</speed>
  <fix>3d</fix>
</trkpt>
<trkpt lat="-27.2742419" lon="151.2900687">
  <ele>343.0</ele>
  <time>2026-09-01T19:55:11Z</time>
  <course>13.72</course>
  <speed>0.9908077512817509</speed>
  <fix>3d</fix>
</trkpt>
<trkpt lat="-27.2742437" lon="151.2900687">
  <ele>343.08</ele>
  <time>2026-09-01T19:55:11Z</time>
  <course>2.49</course>
  <speed>0.99</speed>
  <fix>3d</fix>
</trkpt>
<trkpt lat="-27.2742412" lon="151.2900689">
  <ele>342.005</ele>
  <time>2026-09-01T19:55:11Z</time>
  <course>2.52</course>
  <speed>0.9908077512817509</speed>
  <fix>3d</fix>
</trkpt>
<trkpt lat="-27.274241" lon="151.2900688">
  <ele>342.77</ele>
  <time>2026-09-01T19:55:11Z</time>
  <course>13.73</course>
  <speed>0.9908077512817509</speed>
  <fix>3d</fix>
</trkpt>
<trkpt lat="-27.2742437" lon="151.2900687">
  <ele>343.08</ele>
  <time>2026-09-01T19:55:11Z</time>
  <course>2.49</course>
  <speed>0.99</speed>
  <fix>3d</fix>
</trkpt>
<trkpt lat="-27.2742401" lon="151.2900688">
  <ele>343.03</ele>
  <time>2026-09-01T19:55:11Z</time>
  <course>13.74</course>
  <speed>0.9908077512817509</speed>
  <fix>3d</fix>
</trkpt>
<trkpt lat="-27.2742419" lon="151.2900688">
  <ele>343.08</ele>
  <time>2026-09-01T19:55:11Z</time>
  <course>2.51</course>
  <speed>0.99</speed>
  <fix>3d</fix>
</trkpt>
<trkpt lat="-27.2742394" lon="151.2900689">
  <ele>342.005</ele>
  <time>2026-09-01T19:55:11Z</time>
  <course>2.54</course>
  <speed>0.9908077512817509</speed>
  <fix>3d</fix>
</trkpt>
<trkpt lat="-27.2742392" lon="151.2900689">
  <ele>343.0</ele>
  <time>2026-09-01T19:55:11Z</time>
  <course>13.76</course>
  <speed>0.9908077512817509</speed>
  <fix>3d</fix>
</trkpt>
<trkpt lat="-27.2742419" lon="151.2900688">
  <ele>343.08</ele>
  <time>2026-09-01T19:55:11Z</time>
  <course>2.51</course>
  <speed>0.99</speed>
  <fix>3d</fix>
</trkpt>
<trkpt lat="-27.2742383" lon="151.2900688">
  <ele>342.85</ele>
  <time>2026-09-01T19:55:11Z</time>
  <course>13.77</course>
  <speed>0.9908077512817509</speed>
  <fix>3d</fix>
</trkpt>
<trkpt lat="-27.2742401" lon="151.2900688">
  <ele>343.08</ele>
  <time>2026-09-01T19:55:11Z</time>
  <course>2.53</course>
  <speed>0.99</speed>
  <fix>3d</fix>
</trkpt>
<trkpt lat="-27.2742377" lon="151.290069">
  <ele>342.005</ele>
  <time>2026-09-01T19:55:11Z</time>
  <course>2.57</course>
  <speed>0.9908077512817509</speed>
  <fix>3d</fix>
</trkpt>
<trkpt lat="-27.2742374" lon="151.2900689">
  <ele>342.81</ele>
  <time>2026-09-01T19:55:11Z</time>
  <course>13.78</course>
  <speed>0.9908077512817509</speed>
  <fix>3d</fix>
</trkpt>
<trkpt lat="-27.2742401" lon="151.2900688">
  <ele>343.08</ele>
  <time>2026-09-01T19:55:11Z</time>
  <course>2.53</course>
  <speed>0.99</speed>
  <fix>3d</fix>
</trkpt>
<trkpt lat="-27.2742365" lon="151.2900689">
  <ele>342.84</ele>
  <time>2026-09-01T19:55:11Z</time>
  <course>13.79</course>
  <speed>0.9908077512817509</speed>
  <fix>3d</fix>
</trkpt>
<trkpt lat="-27.2742383" lon="151.2900689">
  <ele>343.08</ele>
  <time>2026-09-01T19:55:11Z</time>
  <course>2.56</course>
  <speed>0.99</speed>
  <fix>3d</fix>
</trkpt>
<trkpt lat="-27.2742359" lon="151.2900691">
  <ele>342.005</ele>
  <time>2026-09-01T19:55:11Z</time>
  <course>2.59</course>
  <speed>0.9908077512817509</speed>
  <fix>3d</fix>
</trkpt>
<trkpt lat="-27.2742356" lon="151.290069">
  <ele>342.76</ele>
  <time>2026-09-01T19:55:11Z</time>
  <course>13.81</course>
  <speed>0.9908077512817509</speed>
  <fix>3d</fix>
</trkpt>
<trkpt lat="-27.2742383" lon="151.2900689">
  <ele>343.08</ele>
  <time>2026-09-01T19:55:11Z</time>
  <course>2.56</course>
  <speed>0.99</speed>
  <fix>3d</fix>
</trkpt>
<trkpt lat="-27.2742347" lon="151.290069">
  <ele>342.78</ele>
  <time>2026-09-01T19:55:11Z</time>
  <course>13.82</course>
  <speed>0.9908077512817509</speed>
  <fix>3d</fix>
</trkpt>
<trkpt lat="-27.2742365" lon="151.290069">
  <ele>343.08</ele>
  <time>2026-09-01T19:55:11Z</time>
  <course>2.58</course>
  <speed>0.99</speed>
  <fix>3d</fix>
</trkpt>
<trkpt lat="-27.2742341" lon="151.2900692">
  <ele>342.005</ele>
  <time>2026-09-01T19:55:11Z</time>
  <course>2.61</course>
  <speed>0.9908077512817509</speed>
  <fix>3d</fix>
</trkpt>
<trkpt lat="-27.2742338" lon="151.2900691">
  <ele>342.88</ele>
  <time>2026-09-01T19:55:11Z</time>
  <course>13.83</course>
  <speed>0.9908077512817509</speed>
  <fix>3d</fix>
</trkpt>
<trkpt lat="-27.2742365" lon="151.290069">
  <ele>343.08</ele>
  <time>2026-09-01T19:55:11Z</time>
  <course>2.58</course>
  <speed>0.99</speed>
  <fix>3d</fix>
</trkpt>
<trkpt lat="-27.2742329" lon="151.2900691">
  <ele>342.8</ele>
  <time>2026-09-01T19:55:11Z</time>
  <course>13.84</course>
  <speed>0.9908077512817509</speed>
  <fix>3d</fix>
</trkpt>
<trkpt lat="-27.2742347" lon="151.2900691">
  <ele>343.08</ele>
  <time>2026-09-01T19:55:11Z</time>
  <course>2.6</course>
  <speed>0.99</speed>
  <fix>3d</fix>
</trkpt>
<trkpt lat="-27.2742323" lon="151.2900693">
  <ele>342.005</ele>
  <time>2026-09-01T19:55:11Z</time>
  <course>2.63</course>
  <speed>0.9908077512817509</speed>
  <fix>3d</fix>
</trkpt>
<trkpt lat="-27.274232" lon="151.2900692">
  <ele>342.77</ele>
  <time>2026-09-01T19:55:11Z</time>
  <course>13.86</course>
  <speed>0.9908077512817509</speed>
  <fix>3d</fix>
</trkpt>
<trkpt lat="-27.2742347" lon="151.2900691">
  <ele>343.08</ele>
  <time>2026-09-01T19:55:11Z</time>
  <course>2.6</course>
  <speed>0.99</speed>
  <fix>3d</fix>
</trkpt>
<trkpt lat="-27.2742311" lon="151.2900692">
  <ele>342.77</ele>
  <time>2026-09-01T19:55:11Z</time>
  <course>13.87</course>
  <speed>0.9908077512817509</speed>
  <fix>3d</fix>
</trkpt>
<trkpt lat="-27.2742329" lon="151.2900692">
  <ele>343.08</ele>
  <time>2026-09-01T19:55:11Z</time>
  <course>2.62</course>
  <speed>0.99</speed>
  <fix>3d</fix>
</trkpt>
<trkpt lat="-27.2742305" lon="151.2900694">
  <ele>342.004</ele>
  <time>2026-09-01T19:55:11Z</time>
  <course>2.66</course>
  <speed>0.9908077512817509</speed>
  <fix>3d</fix>
</trkpt>
<trkpt lat="-27.2742302" lon="151.2900693">
  <ele>342.81</ele>
  <time>2026-09-01T19:55:11Z</time>
  <course>13.88</course>
  <speed>0.9908077512817509</speed>
  <fix>3d</fix>
</trkpt>
<trkpt lat="-27.2742329" lon="151.2900692">
  <ele>343.08</ele>
  <time>2026-09-01T19:55:11Z</time>
  <course>2.62</course>
  <speed>0.99</speed>
  <fix>3d</fix>
</trkpt>
<trkpt lat="-27.2742293" lon="151.2900693">
  <ele>343.02</ele>
  <time>2026-09-01T19:55:11Z</time>
  <course>13.89</course>
  <speed>0.9908077512817509</speed>
  <fix>3d</fix>
</trkpt>
<trkpt lat="-27.2742311" lon="151.2900693">
  <ele>343.08</ele>
  <time>2026-09-01T19:55:11Z</time>
  <course>2.65</course>
  <speed>0.99</speed>
  <fix>3d</fix>
</trkpt>
<trkpt lat="-27.2742287" lon="151.2900695">
  <ele>342.004</ele>
  <time>2026-09-01T19:55:11Z</time>
  <course>2.68</course>
  <speed>0.9908077512817509</speed>
  <fix>3d</fix>
</trkpt>
<trkpt lat="-27.2742284" lon="151.2900694">
  <ele>342.97</ele>
  <time>2026-09-01T19:55:11Z</time>
  <course>13.91</course>
  <speed>0.9908077512817509</speed>
  <fix>3d</fix>
</trkpt>
<trkpt lat="-27.2742311" lon="151.2900693">
  <ele>343.08</ele>
  <time>2026-09-01T19:55:11Z</time>
  <course>2.65</course>
  <speed>0.99</speed>
  <fix>3d</fix>
</trkpt>
<trkpt lat="-27.2742275" lon="151.2900694">
  <ele>342.97</ele>
  <time>2026-09-01T19:55:11Z</time>
  <course>13.92</course>
  <speed>0.9908077512817509</speed>
  <fix>3d</fix>
</trkpt>
<trkpt lat="-27.2742293" lon="151.2900694">
  <ele>343.08</ele>
  <time>2026-09-01T19:55:11Z</time>
  <course>2.67</course>
  <speed>0.99</speed>
  <fix>3d</fix>
</trkpt>
<trkpt lat="-27.2742269" lon="151.2900696">
  <ele>342.004</ele>
  <time>2026-09-01T19:55:11Z</time>
  <course>2.7</course>
  <speed>0.9908077512817509</speed>
  <fix>3d</fix>
</trkpt>
<trkpt lat="-27.2742266" lon="151.2900695">
  <ele>342.92</ele>
  <time>2026-09-01T19:55:11Z</time>
  <course>13.93</course>
  <speed>0.9908077512817509</speed>
  <fix>3d</fix>
</trkpt>
<trkpt lat="-27.2742293" lon="151.2900694">
  <ele>343.08</ele>
  <time>2026-09-01T19:55:11Z</time>
  <course>2.67</course>
  <speed>0.99</speed>
  <fix>3d</fix>
</trkpt>
<trkpt lat="-27.2742257" lon="151.2900695">
  <ele>342.97</ele>
  <time>2026-09-01T19:55:11Z</time>
  <course>13.94</course>
  <speed>0.9908077512817509</speed>
  <fix>3d</fix>
</trkpt>
<trkpt lat="-27.2742275" lon="151.2900695">
  <ele>343.08</ele>
  <time>2026-09-01T19:55:11Z</time>
  <course>2.69</course>
  <speed>0.99</speed>
  <fix>3d</fix>
</trkpt>
<trkpt lat="-27.2742251" lon="151.2900697">
  <ele>342.004</ele>
  <time>2026-09-01T19:55:11Z</time>
  <course>2.73</course>
  <speed>0.9908077512817509</speed>
  <fix>3d</fix>
</trkpt>
<trkpt lat="-27.2742248" lon="151.2900696">
  <ele>342.99</ele>
  <time>2026-09-01T19:55:11Z</time>
  <course>13.96</course>
  <speed>0.9908077512817509</speed>
  <fix>3d</fix>
</trkpt>
<trkpt lat="-27.2742275" lon="151.2900695">
  <ele>343.08</ele>
  <time>2026-09-01T19:55:11Z</time>
  <course>2.69</course>
  <speed>0.99</speed>
  <fix>3d</fix>
</trkpt>
<trkpt lat="-27.2742239" lon="151.2900696">
  <ele>342.77</ele>
  <time>2026-09-01T19:55:11Z</time>
  <course>13.97</course>
  <speed>0.9908077512817509</speed>
  <fix>3d</fix>
</trkpt>
<trkpt lat="-27.2742257" lon="151.2900696">
  <ele>343.08</ele>
  <time>2026-09-01T19:55:11Z</time>
  <course>2.72</course>
  <speed>0.99</speed>
  <fix>3d</fix>
</trkpt>
<trkpt lat="-27.2742233" lon="151.2900698">
  <ele>342.004</ele>
  <time>2026-09-01T19:55:11Z</time>
  <course>2.75</course>
  <speed>0.9908077512817509</speed>
  <fix>3d</fix>
</trkpt>
<trkpt lat="-27.274223" lon="151.2900697">
  <ele>342.91</ele>
  <time>2026-09-01T19:55:11Z</time>
  <course>13.98</course>
  <speed>0.9908077512817509</speed>
  <fix>3d</fix>
</trkpt>
<trkpt lat="-27.2742257" lon="151.2900696">
  <ele>343.08</ele>
  <time>2026-09-01T19:55:11Z</time>
  <course>2.72</course>
  <speed>0.99</speed>
  <fix>3d</fix>
</trkpt>
<trkpt lat="-27.2742221" lon="151.2900697">
  <ele>342.69</ele>
  <time>2026-09-01T19:55:11Z</time>
  <course>13.99</course>
  <speed>0.9908077512817509</speed>
  <fix>3d</fix>
</trkpt>
<trkpt lat="-27.2742239" lon="151.2900697">
  <ele>343.08</ele>
  <time>2026-09-01T19:55:11Z</time>
  <course>2.74</course>
  <speed>0.99</speed>
  <fix>3d</fix>
</trkpt>
<trkpt lat="-27.2742215" lon="151.2900699">
  <ele>342.004</ele>
  <time>2026-09-01T19:55:11Z</time>
  <course>2.77</course>
  <speed>0.9908077512817509</speed>
  <fix>3d</fix>
</trkpt>
<trkpt lat="-27.2742212" lon="151.2900698">
  <ele>342.96</ele>
  <time>2026-09-01T19:55:11Z</time>
  <course>14.01</course>
  <speed>0.9908077512817509</speed>
  <fix>3d</fix>
</trkpt>
<trkpt lat="-27.2742239" lon="151.2900697">
  <ele>343.08</ele>
  <time>2026-09-01T19:55:11Z</time>
  <course>2.74</course>
  <speed>0.99</speed>
  <fix>3d</fix>
</trkpt>
<trkpt lat="-27.2742203" lon="151.2900698">
  <ele>342.87</ele>
  <time>2026-09-01T19:55:11Z</time>
  <course>14.02</course>
  <speed>0.9908077512817509</speed>
  <fix>3d</fix>
</trkpt>
<trkpt lat="-27.2742221" lon="151.2900698">
  <ele>343.08</ele>
  <time>2026-09-01T19:55:11Z</time>
  <course>2.76</course>
  <speed>0.99</speed>
  <fix>3d</fix>
</trkpt>
<trkpt lat="-27.2742197" lon="151.29007">
  <ele>342.004</ele>
  <time>2026-09-01T19:55:11Z</time>
  <course>2.79</course>
  <speed>0.9908077512817509</speed>
  <fix>3d</fix>
</trkpt>
<trkpt lat="-27.2742194" lon="151.2900699">
  <ele>342.94</ele>
  <time>2026-09-01T19:55:11Z</time>
  <course>14.03</course>
  <speed>0.9908077512817509</speed>
  <fix>3d</fix>
</trkpt>
<trkpt lat="-27.2742221" lon="151.2900698">
  <ele>343.08</ele>
  <time>2026-09-01T19:55:11Z</time>
  <course>2.76</course>
  <speed>0.99</speed>
  <fix>3d</fix>
</trkpt>
<trkpt lat="-27.2742186" lon="151.2900699">
  <ele>342.69</ele>
  <time>2026-09-01T19:55:11Z</time>
  <course>14.04</course>
  <speed>0.9908077512817509</speed>
  <fix>3d</fix>
</trkpt>
<trkpt lat="-27.2742204" lon="151.2900699">
  <ele>343.08</ele>
  <time>2026-09-01T19:55:11Z</time>
  <course>2.78</course>
  <speed>0.99</speed>
  <fix>3d</fix>
</trkpt>
<trkpt lat="-27.2742179" lon="151.2900701">
  <ele>342.004</ele>
  <time>2026-09-01T19:55:11Z</time>
  <course>2.82</course>
  <speed>0.9908077512817509</speed>
  <fix>3d</fix>
</trkpt>
<trkpt lat="-27.2742177" lon="151.29007">
  <ele>342.94</ele>
  <time>2026-09-01T19:55:11Z</time>
  <course>14.05</course>
  <speed>0.9908077512817509</speed>
  <fix>3d</fix>
</trkpt>
<trkpt lat="-27.2742204" lon="151.2900699">
  <ele>343.08</ele>
  <time>2026-09-01T19:55:11Z</time>
  <course>2.78</course>
  <speed>0.99</speed>
  <fix>3d</fix>
</trkpt>
<trkpt lat="-27.2742168" lon="151.2900701">
  <ele>342.98</ele>
  <time>2026-09-01T19:55:11Z</time>
  <course>14.07</course>
  <speed>0.9908077512817509</speed>
  <fix>3d</fix>
</trkpt>
<trkpt lat="-27.2742186" lon="151.29007">
  <ele>343.08</ele>
  <time>2026-09-01T19:55:11Z</time>
  <course>2.81</course>
  <speed>0.99</speed>
  <fix>3d</fix>
</trkpt>
<trkpt lat="-27.2742161" lon="151.2900702">
  <ele>342.004</ele>
  <time>2026-09-01T19:55:11Z</time>
  <course>2.84</course>
  <speed>0.9908077512817509</speed>
  <fix>3d</fix>
</trkpt>
<trkpt lat="-27.2742159" lon="151.2900701">
  <ele>342.96</ele>
  <time>2026-09-01T19:55:11Z</time>
  <course>14.08</course>
  <speed>0.9908077512817509</speed>
  <fix>3d</fix>
</trkpt>
<trkpt lat="-27.2742186" lon="151.29007">
  <ele>343.08</ele>
  <time>2026-09-01T19:55:11Z</time>
  <course>2.81</course>
  <speed>0.99</speed>
  <fix>3d</fix>
</trkpt>
<trkpt lat="-27.274215" lon="151.2900702">
  <ele>343.06</ele>
  <time>2026-09-01T19:55:11Z</time>
  <course>14.09</course>
  <speed>0.9908077512817509</speed>
  <fix>3d</fix>
</trkpt>
<trkpt lat="-27.2742168" lon="151.2900701">
  <ele>343.08</ele>
  <time>2026-09-01T19:55:11Z</time>
  <course>2.83</course>
  <speed>0.99</speed>
  <fix>3d</fix>
</trkpt>
<trkpt lat="-27.2742143" lon="151.2900703">
  <ele>342.003</ele>
  <time>2026-09-01T19:55:11Z</time>
  <course>2.86</course>
  <speed>0.9912618221237011</speed>
  <fix>3d</fix>
</trkpt>
<trkpt lat="-27.2742141" lon="151.2900702">
  <ele>342.8</ele>
  <time>2026-09-01T19:55:11Z</time>
  <course>14.1</course>
  <speed>0.9908077512817509</speed>
  <fix>3d</fix>
</trkpt>
<trkpt lat="-27.2742168" lon="151.2900701">
  <ele>343.08</ele>
  <time>2026-09-01T19:55:11Z</time>
  <course>2.83</course>
  <speed>0.99</speed>
  <fix>3d</fix>
</trkpt>
<trkpt lat="-27.2742132" lon="151.2900703">
  <ele>342.76</ele>
  <time>2026-09-01T19:55:11Z</time>
  <course>14.12</course>
  <speed>0.9908077512817509</speed>
  <fix>3d</fix>
</trkpt>
<trkpt lat="-27.274215" lon="151.2900702">
  <ele>343.08</ele>
  <time>2026-09-01T19:55:11Z</time>
  <course>2.85</course>
  <speed>0.99</speed>
  <fix>3d</fix>
</trkpt>
<trkpt lat="-27.2742125" lon="151.2900704">
  <ele>342.003</ele>
  <time>2026-09-01T19:55:11Z</time>
  <course>2.89</course>
  <speed>0.9912618221237011</speed>
  <fix>3d</fix>
</trkpt>
<trkpt lat="-27.2742123" lon="151.2900703">
  <ele>342.96</ele>
  <time>2026-09-01T19:55:11Z</time>
  <course>14.13</course>
  <speed>0.9908077512817509</speed>
  <fix>3d</fix>
</trkpt>
<trkpt lat="-27.274215" lon="151.2900702">
  <ele>343.08</ele>
  <time>2026-09-01T19:55:11Z</time>
  <course>2.85</course>
  <speed>0.99</speed>
  <fix>3d</fix>
</trkpt>
<trkpt lat="-27.2742114" lon="151.2900704">
  <ele>342.88</ele>
  <time>2026-09-01T19:55:11Z</time>
  <course>14.14</course>
  <speed>0.9912618221237011</speed>
  <fix>3d</fix>
</trkpt>
<trkpt lat="-27.2742132" lon="151.2900703">
  <ele>343.08</ele>
  <time>2026-09-01T19:55:11Z</time>
  <course>2.88</course>
  <speed>0.99</speed>
  <fix>3d</fix>
</trkpt>
<trkpt lat="-27.2742107" lon="151.2900705">
  <ele>342.003</ele>
  <time>2026-09-01T19:55:11Z</time>
  <course>2.91</course>
  <speed>0.9912618221237011</speed>
  <fix>3d</fix>
</trkpt>
<trkpt lat="-27.2742105" lon="151.2900704">
  <ele>342.98</ele>
  <time>2026-09-01T19:55:11Z</time>
  <course>14.15</course>
  <speed>0.9912618221237011</speed>
  <fix>3d</fix>
</trkpt>
<trkpt lat="-27.2742132" lon="151.2900703">
  <ele>343.08</ele>
  <time>2026-09-01T19:55:11Z</time>
  <course>2.88</course>
  <speed>0.99</speed>
  <fix>3d</fix>
</trkpt>
<trkpt lat="-27.2742096" lon="151.2900705">
  <ele>342.88</ele>
  <time>2026-09-01T19:55:11Z</time>
  <course>14.17</course>
  <speed>0.9912618221237011</speed>
  <fix>3d</fix>
</trkpt>
<trkpt lat="-27.2742114" lon="151.2900704">
  <ele>343.08</ele>
  <time>2026-09-01T19:55:11Z</time>
  <course>2.9</course>
  <speed>0.99</speed>
  <fix>3d</fix>
</trkpt>
<trkpt lat="-27.274209" lon="151.2900706">
  <ele>342.003</ele>
  <time>2026-09-01T19:55:11Z</time>
  <course>2.93</course>
  <speed>0.9912618221237011</speed>
  <fix>3d</fix>
</trkpt>
<trkpt lat="-27.2742087" lon="151.2900705">
  <ele>342.88</ele>
  <time>2026-09-01T19:55:11Z</time>
  <course>14.18</course>
  <speed>0.9912618221237011</speed>
  <fix>3d</fix>
</trkpt>
<trkpt lat="-27.2742114" lon="151.2900704">
  <ele>343.08</ele>
  <time>2026-09-01T19:55:11Z</time>
  <course>2.9</course>
  <speed>0.99</speed>
  <fix>3d</fix>
</trkpt>
<trkpt lat="-27.2742078" lon="151.2900706">
  <ele>342.81</ele>
  <time>2026-09-01T19:55:11Z</time>
  <course>14.19</course>
  <speed>0.9912618221237011</speed>
  <fix>3d</fix>
</trkpt>
<trkpt lat="-27.2742096" lon="151.2900705">
  <ele>343.08</ele>
  <time>2026-09-01T19:55:11Z</time>
  <course>2.92</course>
  <speed>0.99</speed>
  <fix>3d</fix>
</trkpt>
<trkpt lat="-27.2742072" lon="151.2900707">
  <ele>342.003</ele>
  <time>2026-09-01T19:55:11Z</time>
  <course>2.95</course>
  <speed>0.9912618221237011</speed>
  <fix>3d</fix>
</trkpt>
<trkpt lat="-27.2742069" lon="151.2900706">
  <ele>342.72</ele>
  <time>2026-09-01T19:55:11Z</time>
  <course>14.2</course>
  <speed>0.9912618221237011</speed>
  <fix>3d</fix>
</trkpt>
<trkpt lat="-27.2742096" lon="151.2900705">
  <ele>343.08</ele>
  <time>2026-09-01T19:55:11Z</time>
  <course>2.92</course>
  <speed>0.99</speed>
  <fix>3d</fix>
</trkpt>
<trkpt lat="-27.274206" lon="151.2900707">
  <ele>342.87</ele>
  <time>2026-09-01T19:55:11Z</time>
  <course>14.22</course>
  <speed>0.9912618221237011</speed>
  <fix>3d</fix>
</trkpt>
<trkpt lat="-27.2742078" lon="151.2900706">
  <ele>343.08</ele>
  <time>2026-09-01T19:55:11Z</time>
  <course>2.94</course>
  <speed>0.99</speed>
  <fix>3d</fix>
</trkpt>
<trkpt lat="-27.2742054" lon="151.2900708">
  <ele>342.003</ele>
  <time>2026-09-01T19:55:11Z</time>
  <course>2.98</course>
  <speed>0.9912618221237011</speed>
  <fix>3d</fix>
</trkpt>
<trkpt lat="-27.2742051" lon="151.2900707">
  <ele>342.85</ele>
  <time>2026-09-01T19:55:11Z</time>
  <course>14.23</course>
  <speed>0.9912618221237011</speed>
  <fix>3d</fix>
</trkpt>
<trkpt lat="-27.2742078" lon="151.2900706">
  <ele>343.08</ele>
  <time>2026-09-01T19:55:11Z</time>
  <course>2.94</course>
  <speed>0.99</speed>
  <fix>3d</fix>
</trkpt>
<trkpt lat="-27.2742042" lon="151.2900708">
  <ele>342.89</ele>
  <time>2026-09-01T19:55:11Z</time>
  <course>14.24</course>
  <speed>0.9912618221237011</speed>
  <fix>3d</fix>
</trkpt>
<trkpt lat="-27.274206" lon="151.2900707">
  <ele>343.08</ele>
  <time>2026-09-01T19:55:11Z</time>
  <course>2.97</course>
  <speed>0.99</speed>
  <fix>3d</fix>
</trkpt>
<trkpt lat="-27.2742036" lon="151.2900709">
  <ele>342.003</ele>
  <time>2026-09-01T19:55:11Z</time>
  <course>3.0</course>
  <speed>0.9912618221237011</speed>
  <fix>3d</fix>
</trkpt>
<trkpt lat="-27.2742033" lon="151.2900708">
  <ele>342.99</ele>
  <time>2026-09-01T19:55:11Z</time>
  <course>14.25</course>
  <speed>0.9912618221237011</speed>
  <fix>3d</fix>
</trkpt>
<trkpt lat="-27.274206" lon="151.2900707">
  <ele>343.08</ele>
  <time>2026-09-01T19:55:11Z</time>
  <course>2.97</course>
  <speed>0.99</speed>
  <fix>3d</fix>
</trkpt>
<trkpt lat="-27.2742024" lon="151.2900709">
  <ele>342.88</ele>
  <time>2026-09-01T19:55:11Z</time>
  <course>14.26</course>
  <speed>0.9912618221237011</speed>
  <fix>3d</fix>
</trkpt>
<trkpt lat="-27.2742042" lon="151.2900708">
  <ele>343.08</ele>
  <time>2026-09-01T19:55:11Z</time>
  <course>2.99</course>
  <speed>0.99</speed>
  <fix>3d</fix>
</trkpt>
<trkpt lat="-27.2742018" lon="151.290071">
  <ele>342.003</ele>
  <time>2026-09-01T19:55:11Z</time>
  <course>3.02</course>
  <speed>0.9912618221237011</speed>
  <fix>3d</fix>
</trkpt>
<trkpt lat="-27.2742015" lon="151.2900709">
  <ele>342.69</ele>
  <time>2026-09-01T19:55:11Z</time>
  <course>14.27</course>
  <speed>0.9912618221237011</speed>
  <fix>3d</fix>
</trkpt>
<trkpt lat="-27.2742042" lon="151.2900708">
  <ele>343.08</ele>
  <time>2026-09-01T19:55:11Z</time>
  <course>2.99</course>
  <speed>0.99</speed>
  <fix>3d</fix>
</trkpt>
<trkpt lat="-27.2742006" lon="151.290071">
  <ele>343.02</ele>
  <time>2026-09-01T19:55:11Z</time>
  <course>14.28</course>
  <speed>0.9912618221237011</speed>
  <fix>3d</fix>
</trkpt>
<trkpt lat="-27.2742024" lon="151.2900709">
  <ele>343.08</ele>
  <time>2026-09-01T19:55:11Z</time>
  <course>3.01</course>
  <speed>0.99</speed>
  <fix>3d</fix>
</trkpt>
<trkpt lat="-27.2742" lon="151.2900711">
  <ele>342.002</ele>
  <time>2026-09-01T19:55:11Z</time>
  <course>3.05</course>
  <speed>0.9912618221237011</speed>
  <fix>3d</fix>
</trkpt>
<trkpt lat="-27.2741997" lon="151.290071">
  <ele>342.98</ele>
  <time>2026-09-01T19:55:11Z</time>
  <course>14.29</course>
  <speed>0.9912618221237011</speed>
  <fix>3d</fix>
</trkpt>
<trkpt lat="-27.2742024" lon="151.2900709">
  <ele>343.08</ele>
  <time>2026-09-01T19:55:11Z</time>
  <course>3.01</course>
  <speed>0.99</speed>
  <fix>3d</fix>
</trkpt>
<trkpt lat="-27.2741988" lon="151.2900711">
  <ele>342.77</ele>
  <time>2026-09-01T19:55:11Z</time>
  <course>14.3</course>
  <speed>0.9912618221237011</speed>
  <fix>3d</fix>
</trkpt>
<trkpt lat="-27.2742006" lon="151.290071">
  <ele>343.08</ele>
  <time>2026-09-01T19:55:11Z</time>
  <course>3.04</course>
  <speed>0.99</speed>
  <fix>3d</fix>
</trkpt>
<trkpt lat="-27.2741982" lon="151.2900712">
  <ele>342.002</ele>
  <time>2026-09-01T19:55:11Z</time>
  <course>3.07</course>
  <speed>0.9912618221237011</speed>
  <fix>3d</fix>
</trkpt>
<trkpt lat="-27.2741979" lon="151.2900711">
  <ele>342.83</ele>
  <time>2026-09-01T19:55:11Z</time>
  <course>14.31</course>
  <speed>0.9912618221237011</speed>
  <fix>3d</fix>
</trkpt>
<trkpt lat="-27.2742006" lon="151.290071">
  <ele>343.08</ele>
  <time>2026-09-01T19:55:11Z</time>
  <course>3.04</course>
  <speed>0.99</speed>
  <fix>3d</fix>
</trkpt>
<trkpt lat="-27.274197" lon="151.2900712">
  <ele>342.94</ele>
  <time>2026-09-01T19:55:11Z</time>
  <course>14.32</course>
  <speed>0.9912618221237011</speed>
  <fix>3d</fix>
</trkpt>
<trkpt lat="-27.2741988" lon="151.2900711">
  <ele>343.08</ele>
  <time>2026-09-01T19:55:11Z</time>
  <course>3.06</course>
  <speed>0.99</speed>
  <fix>3d</fix>
</trkpt>
<trkpt lat="-27.2741964" lon="151.2900713">
  <ele>342.002</ele>
  <time>2026-09-01T19:55:11Z</time>
  <course>3.09</course>
  <speed>0.9912618221237011</speed>
  <fix>3d</fix>
</trkpt>
<trkpt lat="-27.2741961" lon="151.2900712">
  <ele>342.8</ele>
  <time>2026-09-01T19:55:11Z</time>
  <course>14.33</course>
  <speed>0.9912618221237011</speed>
  <fix>3d</fix>
</trkpt>
<trkpt lat="-27.2741988" lon="151.2900711">
  <ele>343.08</ele>
  <time>2026-09-01T19:55:11Z</time>
  <course>3.06</course>
  <speed>0.99</speed>
  <fix>3d</fix>
</trkpt>
<trkpt lat="-27.2741952" lon="151.2900713">
  <ele>342.73</ele>
  <time>2026-09-01T19:55:11Z</time>
  <course>14.34</course>
  <speed>0.9912618221237011</speed>
  <fix>3d</fix>
</trkpt>
<trkpt lat="-27.274197" lon="151.2900712">
  <ele>343.08</ele>
  <time>2026-09-01T19:55:11Z</time>
  <course>3.08</course>
  <speed>0.99</speed>
  <fix>3d</fix>
</trkpt>
<trkpt lat="-27.2741946" lon="151.2900714">
  <ele>342.002</ele>
  <time>2026-09-01T19:55:11Z</time>
  <course>3.11</course>
  <speed>0.9912618221237011</speed>
  <fix>3d</fix>
</trkpt>
<trkpt lat="-27.2741943" lon="151.2900713">
  <ele>343.06</ele>
  <time>2026-09-01T19:55:11Z</time>
  <course>14.35</course>
  <speed>0.9912618221237011</speed>
  <fix>3d</fix>
</trkpt>
<trkpt lat="-27.274197" lon="151.2900712">
  <ele>343.08</ele>
  <time>2026-09-01T19:55:11Z</time>
  <course>3.08</course>
  <speed>0.99</speed>
  <fix>3d</fix>
</trkpt>
<trkpt lat="-27.2741934" lon="151.2900714">
  <ele>343.02</ele>
  <time>2026-09-01T19:55:11Z</time>
  <course>14.36</course>
  <speed>0.9912618221237011</speed>
  <fix>3d</fix>
</trkpt>
<trkpt lat="-27.2741952" lon="151.2900713">
  <ele>343.08</ele>
  <time>2026-09-01T19:55:11Z</time>
  <course>3.1</course>
  <speed>0.99</speed>
  <fix>3d</fix>
</trkpt>
<trkpt lat="-27.2741928" lon="151.2900716">
  <ele>342.002</ele>
  <time>2026-09-01T19:55:11Z</time>
  <course>3.14</course>
  <speed>0.9912618221237011</speed>
  <fix>3d</fix>
</trkpt>
<trkpt lat="-27.2741925" lon="151.2900714">
  <ele>342.92</ele>
  <time>2026-09-01T19:55:11Z</time>
  <course>14.37</course>
  <speed>0.9912618221237011</speed>
  <fix>3d</fix>
</trkpt>
<trkpt lat="-27.2741952" lon="151.2900713">
  <ele>343.08</ele>
  <time>2026-09-01T19:55:11Z</time>
  <course>3.1</course>
  <speed>0.99</speed>
  <fix>3d</fix>
</trkpt>
<trkpt lat="-27.2741916" lon="151.2900715">
  <ele>342.91</ele>
  <time>2026-09-01T19:55:11Z</time>
  <course>14.38</course>
  <speed>0.9912618221237011</speed>
  <fix>3d</fix>
</trkpt>
<trkpt lat="-27.2741934" lon="151.2900714">
  <ele>343.08</ele>
  <time>2026-09-01T19:55:11Z</time>
  <course>3.13</course>
  <speed>0.99</speed>
  <fix>3d</fix>
</trkpt>
<trkpt lat="-27.274191" lon="151.2900717">
  <ele>342.002</ele>
  <time>2026-09-01T19:55:11Z</time>
  <course>3.16</course>
  <speed>0.9912618221237011</speed>
  <fix>3d</fix>
</trkpt>
<trkpt lat="-27.2741907" lon="151.2900715">
  <ele>343.05</ele>
  <time>2026-09-01T19:55:11Z</time>
  <course>14.39</course>
  <speed>0.9912618221237011</speed>
  <fix>3d</fix>
</trkpt>
<trkpt lat="-27.2741934" lon="151.2900714">
  <ele>343.08</ele>
  <time>2026-09-01T19:55:11Z</time>
  <course>3.13</course>
  <speed>0.99</speed>
  <fix>3d</fix>
</trkpt>
<trkpt lat="-27.2741899" lon="151.2900716">
  <ele>342.82</ele>
  <time>2026-09-01T19:55:11Z</time>
  <course>14.4</course>
  <speed>0.9912618221237011</speed>
  <fix>3d</fix>
</trkpt>
<trkpt lat="-27.2741917" lon="151.2900715">
  <ele>343.08</ele>
  <time>2026-09-01T19:55:11Z</time>
  <course>3.15</course>
  <speed>0.99</speed>
  <fix>3d</fix>
</trkpt>
<trkpt lat="-27.2741892" lon="151.2900718">
  <ele>342.002</ele>
  <time>2026-09-01T19:55:11Z</time>
  <course>3.18</course>
  <speed>0.9912618221237011</speed>
  <fix>3d</fix>
</trkpt>
<trkpt lat="-27.274189" lon="151.2900716">
  <ele>342.84</ele>
  <time>2026-09-01T19:55:11Z</time>
  <course>14.41</course>
  <speed>0.9912618221237011</speed>
  <fix>3d</fix>
</trkpt>
<trkpt lat="-27.2741917" lon="151.2900715">
  <ele>343.08</ele>
  <time>2026-09-01T19:55:11Z</time>
  <course>3.15</course>
  <speed>0.99</speed>
  <fix>3d</fix>
</trkpt>
<trkpt lat="-27.2741881" lon="151.2900718">
  <ele>342.81</ele>
  <time>2026-09-01T19:55:11Z</time>
  <course>14.42</course>
  <speed>0.9912618221237011</speed>
  <fix>3d</fix>
</trkpt>
<trkpt lat="-27.2741899" lon="151.2900717">
  <ele>343.08</ele>
  <time>2026-09-01T19:55:11Z</time>
  <course>3.17</course>
  <speed>0.99</speed>
  <fix>3d</fix>
</trkpt>
<trkpt lat="-27.2741874" lon="151.2900719">
  <ele>342.002</ele>
  <time>2026-09-01T19:55:11Z</time>
  <course>3.21</course>
  <speed>0.9912618221237011</speed>
  <fix>3d</fix>
</trkpt>
<trkpt lat="-27.2741872" lon="151.2900718">
  <ele>343.12</ele>
  <time>2026-09-01T19:55:11Z</time>
  <course>14.43</course>
  <speed>0.9912618221237011</speed>
  <fix>3d</fix>
</trkpt>
<trkpt lat="-27.2741899" lon="151.2900717">
  <ele>343.08</ele>
  <time>2026-09-01T19:55:11Z</time>
  <course>3.17</course>
  <speed>0.99</speed>
  <fix>3d</fix>
</trkpt>
<trkpt lat="-27.2741863" lon="151.2900719">
  <ele>343.01</ele>
  <time>2026-09-01T19:55:11Z</time>
  <course>14.44</course>
  <speed>0.9912618221237011</speed>
  <fix>3d</fix>
</trkpt>
<trkpt lat="-27.2741881" lon="151.2900718">
  <ele>343.08</ele>
  <time>2026-09-01T19:55:11Z</time>
  <course>3.2</course>
  <speed>0.99</speed>
  <fix>3d</fix>
</trkpt>
<trkpt lat="-27.2741856" lon="151.290072">
  <ele>342.001</ele>
  <time>2026-09-01T19:55:11Z</time>
  <course>3.23</course>
  <speed>0.9912618221237011</speed>
  <fix>3d</fix>
</trkpt>
<trkpt lat="-27.2741854" lon="151.2900719">
  <ele>342.79</ele>
  <time>2026-09-01T19:55:11Z</time>
  <course>14.45</course>
  <speed>0.9912618221237011</speed>
  <fix>3d</fix>
</trkpt>
<trkpt lat="-27.2741881" lon="151.2900718">
  <ele>343.08</ele>
  <time>2026-09-01T19:55:11Z</time>
  <course>3.2</course>
  <speed>0.99</speed>
  <fix>3d</fix>
</trkpt>
<trkpt lat="-27.2741845" lon="151.290072">
  <ele>342.91</ele>
  <time>2026-09-01T19:55:11Z</time>
  <course>14.46</course>
  <speed>0.9912618221237011</speed>
  <fix>3d</fix>
</trkpt>
<trkpt lat="-27.2741863" lon="151.2900719">
  <ele>343.08</ele>
  <time>2026-09-01T19:55:11Z</time>
  <course>3.22</course>
  <speed>0.99</speed>
  <fix>3d</fix>
</trkpt>
<trkpt lat="-27.2741838" lon="151.2900721">
  <ele>342.001</ele>
  <time>2026-09-01T19:55:11Z</time>
  <course>3.25</course>
  <speed>0.9912618221237011</speed>
  <fix>3d</fix>
</trkpt>
<trkpt lat="-27.2741836" lon="151.290072">
  <ele>342.79</ele>
  <time>2026-09-01T19:55:11Z</time>
  <course>14.47</course>
  <speed>0.9912618221237011</speed>
  <fix>3d</fix>
</trkpt>
<trkpt lat="-27.2741863" lon="151.2900719">
  <ele>343.08</ele>
  <time>2026-09-01T19:55:11Z</time>
  <course>3.22</course>
  <speed>0.99</speed>
  <fix>3d</fix>
</trkpt>
<trkpt lat="-27.2741826" lon="151.2900721">
  <ele>342.81</ele>
  <time>2026-09-01T19:55:11Z</time>
  <course>14.48</course>
  <speed>0.9912618221237011</speed>
  <fix>3d</fix>
</trkpt>
<trkpt lat="-27.2741844" lon="151.290072">
  <ele>343.08</ele>
  <time>2026-09-01T19:55:11Z</time>
  <course>3.24</course>
  <speed>0.99</speed>
  <fix>3d</fix>
</trkpt>
<trkpt lat="-27.2741821" lon="151.2900722">
  <ele>342.001</ele>
  <time>2026-09-01T19:55:11Z</time>
  <course>3.28</course>
  <speed>0.9912618221237011</speed>
  <fix>3d</fix>
</trkpt>
<trkpt lat="-27.2741817" lon="151.2900721">
  <ele>342.87</ele>
  <time>2026-09-01T19:55:11Z</time>
  <course>14.49</course>
  <speed>0.9912618221237011</speed>
  <fix>3d</fix>
</trkpt>
<trkpt lat="-27.2741844" lon="151.290072">
  <ele>343.08</ele>
  <time>2026-09-01T19:55:11Z</time>
  <course>3.24</course>
  <speed>0.99</speed>
  <fix>3d</fix>
</trkpt>
<trkpt lat="-27.2741809" lon="151.2900722">
  <ele>342.81</ele>
  <time>2026-09-01T19:55:11Z</time>
  <course>14.5</course>
  <speed>0.9912618221237011</speed>
  <fix>3d</fix>
</trkpt>
<trkpt lat="-27.2741827" lon="151.2900721">
  <ele>343.08</ele>
  <time>2026-09-01T19:55:11Z</time>
  <course>3.27</course>
  <speed>0.99</speed>
  <fix>3d</fix>
</trkpt>
<trkpt lat="-27.2741803" lon="151.2900723">
  <ele>342.001</ele>
  <time>2026-09-01T19:55:11Z</time>
  <course>3.3</course>
  <speed>0.9912618221237011</speed>
  <fix>3d</fix>
</trkpt>
<trkpt lat="-27.27418" lon="151.2900722">
  <ele>343.02</ele>
  <time>2026-09-01T19:55:11Z</time>
  <course>14.51</course>
  <speed>0.9912618221237011</speed>
  <fix>3d</fix>
</trkpt>
<trkpt lat="-27.2741827" lon="151.2900721">
  <ele>343.08</ele>
  <time>2026-09-01T19:55:11Z</time>
  <course>3.27</course>
  <speed>0.99</speed>
  <fix>3d</fix>
</trkpt>
<trkpt lat="-27.2741791" lon="151.2900723">
  <ele>342.96</ele>
  <time>2026-09-01T19:55:11Z</time>
  <course>14.52</course>
  <speed>0.9912618221237011</speed>
  <fix>3d</fix>
</trkpt>
<trkpt lat="-27.2741809" lon="151.2900722">
  <ele>343.08</ele>
  <time>2026-09-01T19:55:11Z</time>
  <course>3.29</course>
  <speed>0.99</speed>
  <fix>3d</fix>
</trkpt>
<trkpt lat="-27.2741785" lon="151.2900725">
  <ele>342.001</ele>
  <time>2026-09-01T19:55:11Z</time>
  <course>3.32</course>
  <speed>0.9912618221237011</speed>
  <fix>3d</fix>
</trkpt>
<trkpt lat="-27.2741782" lon="151.2900723">
  <ele>342.97</ele>
  <time>2026-09-01T19:55:11Z</time>
  <course>14.53</course>
  <speed>0.9912618221237011</speed>
  <fix>3d</fix>
</trkpt>
<trkpt lat="-27.2741809" lon="151.2900722">
  <ele>343.08</ele>
  <time>2026-09-01T19:55:11Z</time>
  <course>3.29</course>
  <speed>0.99</speed>
  <fix>3d</fix>
</trkpt>
<trkpt lat="-27.2741773" lon="151.2900724">
  <ele>342.96</ele>
  <time>2026-09-01T19:55:11Z</time>
  <course>14.54</course>
  <speed>0.9912618221237011</speed>
  <fix>3d</fix>
</trkpt>
<trkpt lat="-27.2741791" lon="151.2900723">
  <ele>343.08</ele>
  <time>2026-09-01T19:55:11Z</time>
  <course>3.31</course>
  <speed>0.99</speed>
  <fix>3d</fix>
</trkpt>
<trkpt lat="-27.2741767" lon="151.2900726">
  <ele>342.001</ele>
  <time>2026-09-01T19:55:11Z</time>
  <course>3.34</course>
  <speed>0.9912618221237011</speed>
  <fix>3d</fix>
</trkpt>
<trkpt lat="-27.2741764" lon="151.2900724">
  <ele>342.88</ele>
  <time>2026-09-01T19:55:11Z</time>
  <course>14.55</course>
  <speed>0.9912618221237011</speed>
  <fix>3d</fix>
</trkpt>
<trkpt lat="-27.2741791" lon="151.2900723">
  <ele>343.08</ele>
  <time>2026-09-01T19:55:11Z</time>
  <course>3.31</course>
  <speed>0.99</speed>
  <fix>3d</fix>
</trkpt>
<trkpt lat="-27.2741755" lon="151.2900726">
  <ele>343.0</ele>
  <time>2026-09-01T19:55:11Z</time>
  <course>14.56</course>
  <speed>0.9912618221237011</speed>
  <fix>3d</fix>
</trkpt>
<trkpt lat="-27.2741773" lon="151.2900725">
  <ele>343.08</ele>
  <time>2026-09-01T19:55:11Z</time>
  <course>3.33</course>
  <speed>0.99</speed>
  <fix>3d</fix>
</trkpt>
<trkpt lat="-27.2741749" lon="151.2900727">
  <ele>342.001</ele>
  <time>2026-09-01T19:55:11Z</time>
  <course>3.37</course>
  <speed>0.9912618221237011</speed>
  <fix>3d</fix>
</trkpt>
<trkpt lat="-27.2741746" lon="151.2900726">
  <ele>343.09</ele>
  <time>2026-09-01T19:55:11Z</time>
  <course>14.57</course>
  <speed>0.9912618221237011</speed>
  <fix>3d</fix>
</trkpt>
<trkpt lat="-27.2741773" lon="151.2900725">
  <ele>343.08</ele>
  <time>2026-09-01T19:55:11Z</time>
  <course>3.33</course>
  <speed>0.99</speed>
  <fix>3d</fix>
</trkpt>
<trkpt lat="-27.2741737" lon="151.2900727">
  <ele>342.96</ele>
  <time>2026-09-01T19:55:11Z</time>
  <course>14.58</course>
  <speed>0.9912618221237011</speed>
  <fix>3d</fix>
</trkpt>
<trkpt lat="-27.2741755" lon="151.2900726">
  <ele>343.08</ele>
  <time>2026-09-01T19:55:11Z</time>
  <course>3.36</course>
  <speed>0.99</speed>
  <fix>3d</fix>
</trkpt>
<trkpt lat="-27.2741731" lon="151.2900728">
  <ele>342.001</ele>
  <time>2026-09-01T19:55:11Z</time>
  <course>3.39</course>
  <speed>0.9912618221237011</speed>
  <fix>3d</fix>
</trkpt>
<trkpt lat="-27.2741728" lon="151.2900727">
  <ele>343.04</ele>
  <time>2026-09-01T19:55:11Z</time>
  <course>14.59</course>
  <speed>0.9912618221237011</speed>
  <fix>3d</fix>
</trkpt>
<trkpt lat="-27.2741755" lon="151.2900726">
  <ele>343.08</ele>
  <time>2026-09-01T19:55:11Z</time>
  <course>3.36</course>
  <speed>0.99</speed>
  <fix>3d</fix>
</trkpt>
<trkpt lat="-27.2741719" lon="151.2900728">
  <ele>342.88</ele>
  <time>2026-09-01T19:55:11Z</time>
  <course>14.6</course>
  <speed>0.9912618221237011</speed>
  <fix>3d</fix>
</trkpt>
<trkpt lat="-27.2741737" lon="151.2900727">
  <ele>343.08</ele>
  <time>2026-09-01T19:55:11Z</time>
  <course>3.38</course>
  <speed>0.99</speed>
  <fix>3d</fix>
</trkpt>
<trkpt lat="-27.2741713" lon="151.2900729">
  <ele>342.001</ele>
  <time>2026-09-01T19:55:11Z</time>
  <course>3.41</course>
  <speed>0.9912618221237011</speed>
  <fix>3d</fix>
</trkpt>
<trkpt lat="-27.274171" lon="151.2900728">
  <ele>342.77</ele>
  <time>2026-09-01T19:55:11Z</time>
  <course>14.61</course>
  <speed>0.9912618221237011</speed>
  <fix>3d</fix>
</trkpt>
<trkpt lat="-27.2741737" lon="151.2900727">
  <ele>343.08</ele>
  <time>2026-09-01T19:55:11Z</time>
  <course>3.38</course>
  <speed>0.99</speed>
  <fix>3d</fix>
</trkpt>
<trkpt lat="-27.2741701" lon="151.2900729">
  <ele>343.05</ele>
  <time>2026-09-01T19:55:11Z</time>
  <course>14.62</course>
  <speed>0.9912618221237011</speed>
  <fix>3d</fix>
</trkpt>
<trkpt lat="-27.2741719" lon="151.2900728">
  <ele>343.08</ele>
  <time>2026-09-01T19:55:11Z</time>
  <course>3.4</course>
  <speed>0.99</speed>
  <fix>3d</fix>
</trkpt>
<trkpt lat="-27.2741695" lon="151.2900731">
  <ele>342.0</ele>
  <time>2026-09-01T19:55:11Z</time>
  <course>3.44</course>
  <speed>0.9918165152889924</speed>
  <fix>3d</fix>
</trkpt>
<trkpt lat="-27.2741692" lon="151.2900729">
  <ele>342.97</ele>
  <time>2026-09-01T19:55:11Z</time>
  <course>14.63</course>
  <speed>0.9912618221237011</speed>
  <fix>3d</fix>
</trkpt>
<trkpt lat="-27.2741719" lon="151.2900728">
  <ele>343.08</ele>
  <time>2026-09-01T19:55:11Z</time>
  <course>3.4</course>
  <speed>0.99</speed>
  <fix>3d</fix>
</trkpt>
<trkpt lat="-27.2741683" lon="151.290073">
  <ele>342.93</ele>
  <time>2026-09-01T19:55:11Z</time>
  <course>14.64</course>
  <speed>0.9912618221237011</speed>
  <fix>3d</fix>
</trkpt>
<trkpt lat="-27.2741701" lon="151.2900729">
  <ele>343.08</ele>
  <time>2026-09-01T19:55:11Z</time>
  <course>3.43</course>
  <speed>0.99</speed>
  <fix>3d</fix>
</trkpt>
<trkpt lat="-27.2741677" lon="151.2900732">
  <ele>342.0</ele>
  <time>2026-09-01T19:55:11Z</time>
  <course>3.46</course>
  <speed>0.9918165152889924</speed>
  <fix>3d</fix>
</trkpt>
<trkpt lat="-27.2741674" lon="151.290073">
  <ele>342.78</ele>
  <time>2026-09-01T19:55:11Z</time>
  <course>14.65</course>
  <speed>0.9912618221237011</speed>
  <fix>3d</fix>
</trkpt>
<trkpt lat="-27.2741701" lon="151.2900729">
  <ele>343.08</ele>
  <time>2026-09-01T19:55:11Z</time>
  <course>3.43</course>
  <speed>0.99</speed>
  <fix>3d</fix>
</trkpt>
<trkpt lat="-27.2741665" lon="151.2900732">
  <ele>342.99</ele>
  <time>2026-09-01T19:55:11Z</time>
  <course>14.66</course>
  <speed>0.9918165152889924</speed>
  <fix>3d</fix>
</trkpt>
<trkpt lat="-27.2741683" lon="151.2900731">
  <ele>343.08</ele>
  <time>2026-09-01T19:55:11Z</time>
  <course>3.45</course>
  <speed>0.99</speed>
  <fix>3d</fix>
</trkpt>
<trkpt lat="-27.2741659" lon="151.2900733">
  <ele>342.0</ele>
  <time>2026-09-01T19:55:11Z</time>
  <course>3.48</course>
  <speed>0.9918165152889924</speed>
  <fix>3d</fix>
</trkpt>
<trkpt lat="-27.2741656" lon="151.2900732">
  <ele>342.76</ele>
  <time>2026-09-01T19:55:11Z</time>
  <course>14.67</course>
  <speed>0.9918165152889924</speed>
  <fix>3d</fix>
</trkpt>
<trkpt lat="-27.2741683" lon="151.2900731">
  <ele>343.08</ele>
  <time>2026-09-01T19:55:11Z</time>
  <course>3.45</course>
  <speed>0.99</speed>
  <fix>3d</fix>
</trkpt>
<trkpt lat="-27.2741648" lon="151.2900733">
  <ele>342.79</ele>
  <time>2026-09-01T19:55:11Z</time>
  <course>14.68</course>
  <speed>0.9918165152889924</speed>
  <fix>3d</fix>
</trkpt>
<trkpt lat="-27.2741666" lon="151.2900732">
  <ele>343.08</ele>
  <time>2026-09-01T19:55:11Z</time>
  <course>3.47</course>
  <speed>0.99</speed>
  <fix>3d</fix>
</trkpt>
<trkpt lat="-27.2741641" lon="151.2900734">
  <ele>342.0</ele>
  <time>2026-09-01T19:55:11Z</time>
  <course>3.5</course>
  <speed>0.9918165152889924</speed>
  <fix>3d</fix>
</trkpt>
<trkpt lat="-27.2741639" lon="151.2900733">
  <ele>342.83</ele>
  <time>2026-09-01T19:55:11Z</time>
  <course>14.69</course>
  <speed>0.9918165152889924</speed>
  <fix>3d</fix>
</trkpt>
<trkpt lat="-27.2741666" lon="151.2900732">
  <ele>343.08</ele>
  <time>2026-09-01T19:55:11Z</time>
  <course>3.47</course>
  <speed>0.99</speed>
  <fix>3d</fix>
</trkpt>
<trkpt lat="-27.274163" lon="151.2900734">
  <ele>342.76</ele>
  <time>2026-09-01T19:55:11Z</time>
  <course>14.7</course>
  <speed>0.9918165152889924</speed>
  <fix>3d</fix>
</trkpt>
<trkpt lat="-27.2741648" lon="151.2900733">
  <ele>343.08</ele>
  <time>2026-09-01T19:55:11Z</time>
  <course>3.49</course>
  <speed>0.99</speed>
  <fix>3d</fix>
</trkpt>
<trkpt lat="-27.2741623" lon="151.2900736">
  <ele>342.0</ele>
  <time>2026-09-01T19:55:11Z</time>
  <course>3.53</course>
  <speed>0.9918165152889924</speed>
  <fix>3d</fix>
</trkpt>
<trkpt lat="-27.2741621" lon="151.2900734">
  <ele>342.77</ele>
  <time>2026-09-01T19:55:11Z</time>
  <course>14.71</course>
  <speed>0.9918165152889924</speed>
  <fix>3d</fix>
</trkpt>
<trkpt lat="-27.2741648" lon="151.2900733">
  <ele>343.08</ele>
  <time>2026-09-01T19:55:11Z</time>
  <course>3.49</course>
  <speed>0.99</speed>
  <fix>3d</fix>
</trkpt>
<trkpt lat="-27.2741612" lon="151.2900735">
  <ele>342.88</ele>
  <time>2026-09-01T19:55:11Z</time>
  <course>14.72</course>
  <speed>0.9918165152889924</speed>
  <fix>3d</fix>
</trkpt>
<trkpt lat="-27.274163" lon="151.2900734">
  <ele>343.08</ele>
  <time>2026-09-01T19:55:11Z</time>
  <course>3.52</course>
  <speed>0.99</speed>
  <fix>3d</fix>
</trkpt>
<trkpt lat="-27.2741605" lon="151.2900737">
  <ele>342.0</ele>
  <time>2026-09-01T19:55:11Z</time>
  <course>3.55</course>
  <speed>0.9918165152889924</speed>
  <fix>3d</fix>
</trkpt>
<trkpt lat="-27.2741603" lon="151.2900735">
  <ele>342.96</ele>
  <time>2026-09-01T19:55:11Z</time>
  <course>14.73</course>
  <speed>0.9918165152889924</speed>
  <fix>3d</fix>
</trkpt>
<trkpt lat="-27.274163" lon="151.2900734">
  <ele>343.08</ele>
  <time>2026-09-01T19:55:11Z</time>
  <course>3.52</course>
  <speed>0.99</speed>
  <fix>3d</fix>
</trkpt>
<trkpt lat="-27.2741594" lon="151.2900737">
  <ele>342.75</ele>
  <time>2026-09-01T19:55:11Z</time>
  <course>14.74</course>
  <speed>0.9918165152889924</speed>
  <fix>3d</fix>
</trkpt>
<trkpt lat="-27.2741612" lon="151.2900736">
  <ele>343.08</ele>
  <time>2026-09-01T19:55:11Z</time>
  <course>3.54</course>
  <speed>0.99</speed>
  <fix>3d</fix>
</trkpt>
<trkpt lat="-27.2741587" lon="151.2900738">
  <ele>342.0</ele>
  <time>2026-09-01T19:55:11Z</time>
  <course>3.57</course>
  <speed>0.9918165152889924</speed>
  <fix>3d</fix>
</trkpt>
<trkpt lat="-27.2741585" lon="151.2900737">
  <ele>342.93</ele>
  <time>2026-09-01T19:55:11Z</time>
  <course>14.75</course>
  <speed>0.9918165152889924</speed>
  <fix>3d</fix>
</trkpt>
<trkpt lat="-27.2741612" lon="151.2900736">
  <ele>343.08</ele>
  <time>2026-09-01T19:55:11Z</time>
  <course>3.54</course>
  <speed>0.99</speed>
  <fix>3d</fix>
</trkpt>
<trkpt lat="-27.2741576" lon="151.2900738">
  <ele>343.02</ele>
  <time>2026-09-01T19:55:11Z</time>
  <course>14.76</course>
  <speed>0.9918165152889924</speed>
  <fix>3d</fix>
</trkpt>
<trkpt lat="-27.2741594" lon="151.2900737">
  <ele>343.08</ele>
  <time>2026-09-01T19:55:11Z</time>
  <course>3.56</course>
  <speed>0.99</speed>
  <fix>3d</fix>
</trkpt>
<trkpt lat="-27.2741569" lon="151.2900739">
  <ele>342.0</ele>
  <time>2026-09-01T19:55:11Z</time>
  <course>3.6</course>
  <speed>0.9918165152889924</speed>
  <fix>3d</fix>
</trkpt>
<trkpt lat="-27.2741567" lon="151.2900738">
  <ele>342.82</ele>
  <time>2026-09-01T19:55:11Z</time>
  <course>14.77</course>
  <speed>0.9918165152889924</speed>
  <fix>3d</fix>
</trkpt>
<trkpt lat="-27.2741594" lon="151.2900737">
  <ele>343.08</ele>
  <time>2026-09-01T19:55:11Z</time>
  <course>3.56</course>
  <speed>0.99</speed>
  <fix>3d</fix>
</trkpt>
<trkpt lat="-27.2741558" lon="151.2900739">
  <ele>342.85</ele>
  <time>2026-09-01T19:55:11Z</time>
  <course>14.78</course>
  <speed>0.9918165152889924</speed>
  <fix>3d</fix>
</trkpt>
<trkpt lat="-27.2741576" lon="151.2900738">
  <ele>343.08</ele>
  <time>2026-09-01T19:55:11Z</time>
  <course>3.59</course>
  <speed>0.99</speed>
  <fix>3d</fix>
</trkpt>
<trkpt lat="-27.2741551" lon="151.2900741">
  <ele>342.0</ele>
  <time>2026-09-01T19:55:11Z</time>
  <course>3.62</course>
  <speed>0.9918165152889924</speed>
  <fix>3d</fix>
</trkpt>
<trkpt lat="-27.2741549" lon="151.2900739">
  <ele>342.74</ele>
  <time>2026-09-01T19:55:11Z</time>
  <course>14.79</course>
  <speed>0.9918165152889924</speed>
  <fix>3d</fix>
</trkpt>
<trkpt lat="-27.2741576" lon="151.2900738">
  <ele>343.08</ele>
  <time>2026-09-01T19:55:11Z</time>
  <course>3.59</course>
  <speed>0.99</speed>
  <fix>3d</fix>
</trkpt>
<trkpt lat="-27.274154" lon="151.290074">
  <ele>342.99</ele>
  <time>2026-09-01T19:55:11Z</time>
  <course>14.8</course>
  <speed>0.9918165152889924</speed>
  <fix>3d</fix>
</trkpt>
<trkpt lat="-27.2741558" lon="151.2900739">
  <ele>343.08</ele>
  <time>2026-09-01T19:55:11Z</time>
  <course>3.61</course>
  <speed>0.99</speed>
  <fix>3d</fix>
</trkpt>
<trkpt lat="-27.2741534" lon="151.2900742">
  <ele>342.0</ele>
  <time>2026-09-01T19:55:11Z</time>
  <course>3.64</course>
  <speed>0.9918165152889924</speed>
  <fix>3d</fix>
</trkpt>
<trkpt lat="-27.2741531" lon="151.290074">
  <ele>343.06</ele>
  <time>2026-09-01T19:55:11Z</time>
  <course>14.81</course>
  <speed>0.9918165152889924</speed>
  <fix>3d</fix>
</trkpt>
<trkpt lat="-27.2741558" lon="151.2900739">
  <ele>343.08</ele>
  <time>2026-09-01T19:55:11Z</time>
  <course>3.61</course>
  <speed>0.99</speed>
  <fix>3d</fix>
</trkpt>
<trkpt lat="-27.2741522" lon="151.2900742">
  <ele>342.79</ele>
  <time>2026-09-01T19:55:11Z</time>
  <course>14.81</course>
  <speed>0.9918165152889924</speed>
  <fix>3d</fix>
</trkpt>
<trkpt lat="-27.274154" lon="151.2900741">
  <ele>343.08</ele>
  <time>2026-09-01T19:55:11Z</time>
  <course>3.63</course>
  <speed>0.99</speed>
  <fix>3d</fix>
</trkpt>
<trkpt lat="-27.2741516" lon="151.2900743">
  <ele>342.0</ele>
  <time>2026-09-01T19:55:11Z</time>
  <course>3.66</course>
  <speed>0.9918165152889924</speed>
  <fix>3d</fix>
</trkpt>
<trkpt lat="-27.2741513" lon="151.2900742">
  <ele>343.1</ele>
  <time>2026-09-01T19:55:11Z</time>
  <course>14.82</course>
  <speed>0.9918165152889924</speed>
  <fix>3d</fix>
</trkpt>
<trkpt lat="-27.274154" lon="151.2900741">
  <ele>343.08</ele>
  <time>2026-09-01T19:55:11Z</time>
  <course>3.63</course>
  <speed>0.99</speed>
  <fix>3d</fix>
</trkpt>
<trkpt lat="-27.2741504" lon="151.2900743">
  <ele>342.83</ele>
  <time>2026-09-01T19:55:11Z</time>
  <course>14.83</course>
  <speed>0.9918165152889924</speed>
  <fix>3d</fix>
</trkpt>
<trkpt lat="-27.2741522" lon="151.2900742">
  <ele>343.08</ele>
  <time>2026-09-01T19:55:11Z</time>
  <course>3.65</course>
  <speed>0.99</speed>
  <fix>3d</fix>
</trkpt>
<trkpt lat="-27.2741498" lon="151.2900744">
  <ele>342.0</ele>
  <time>2026-09-01T19:55:11Z</time>
  <course>3.69</course>
  <speed>0.9918165152889924</speed>
  <fix>3d</fix>
</trkpt>
<trkpt lat="-27.2741495" lon="151.2900743">
  <ele>342.99</ele>
  <time>2026-09-01T19:55:11Z</time>
  <course>14.84</course>
  <speed>0.9918165152889924</speed>
  <fix>3d</fix>
</trkpt>
<trkpt lat="-27.2741522" lon="151.2900742">
  <ele>343.08</ele>
  <time>2026-09-01T19:55:11Z</time>
  <course>3.65</course>
  <speed>0.99</speed>
  <fix>3d</fix>
</trkpt>
<trkpt lat="-27.2741486" lon="151.2900744">
  <ele>342.99</ele>
  <time>2026-09-01T19:55:11Z</time>
  <course>14.84</course>
  <speed>0.9918165152889924</speed>
  <fix>3d</fix>
</trkpt>
<trkpt lat="-27.2741504" lon="151.2900743">
  <ele>343.08</ele>
  <time>2026-09-01T19:55:11Z</time>
  <course>3.68</course>
  <speed>0.99</speed>
  <fix>3d</fix>
</trkpt>
<trkpt lat="-27.274148" lon="151.2900746">
  <ele>342.0</ele>
  <time>2026-09-01T19:55:11Z</time>
  <course>3.71</course>
  <speed>0.9918165152889924</speed>
  <fix>3d</fix>
</trkpt>
<trkpt lat="-27.2741477" lon="151.2900744">
  <ele>342.8</ele>
  <time>2026-09-01T19:55:11Z</time>
  <course>14.85</course>
  <speed>0.9918165152889924</speed>
  <fix>3d</fix>
</trkpt>
<trkpt lat="-27.2741504" lon="151.2900743">
  <ele>343.08</ele>
  <time>2026-09-01T19:55:11Z</time>
  <course>3.68</course>
  <speed>0.99</speed>
  <fix>3d</fix>
</trkpt>
<trkpt lat="-27.2741468" lon="151.2900746">
  <ele>343.04</ele>
  <time>2026-09-01T19:55:11Z</time>
  <course>14.86</course>
  <speed>0.9918165152889924</speed>
  <fix>3d</fix>
</trkpt>
<trkpt lat="-27.2741486" lon="151.2900745">
  <ele>343.08</ele>
  <time>2026-09-01T19:55:11Z</time>
  <course>3.7</course>
  <speed>0.99</speed>
  <fix>3d</fix>
</trkpt>
<trkpt lat="-27.2741462" lon="151.2900747">
  <ele>341.999</ele>
  <time>2026-09-01T19:55:11Z</time>
  <course>3.73</course>
  <speed>0.9918165152889924</speed>
  <fix>3d</fix>
</trkpt>
<trkpt lat="-27.2741459" lon="151.2900746">
  <ele>342.88</ele>
  <time>2026-09-01T19:55:11Z</time>
  <course>14.87</course>
  <speed>0.9918165152889924</speed>
  <fix>3d</fix>
</trkpt>
<trkpt lat="-27.2741486" lon="151.2900745">
  <ele>343.08</ele>
  <time>2026-09-01T19:55:11Z</time>
  <course>3.7</course>
  <speed>0.99</speed>
  <fix>3d</fix>
</trkpt>
<trkpt lat="-27.2741449" lon="151.2900747">
  <ele>342.96</ele>
  <time>2026-09-01T19:55:11Z</time>
  <course>14.88</course>
  <speed>0.9918165152889924</speed>
  <fix>3d</fix>
</trkpt>
<trkpt lat="-27.2741467" lon="151.2900746">
  <ele>343.08</ele>
  <time>2026-09-01T19:55:11Z</time>
  <course>3.72</course>
  <speed>0.99</speed>
  <fix>3d</fix>
</trkpt>
<trkpt lat="-27.2741444" lon="151.2900748">
  <ele>342.0</ele>
  <time>2026-09-01T19:55:11Z</time>
  <course>3.76</course>
  <speed>0.9918165152889924</speed>
  <fix>3d</fix>
</trkpt>
<trkpt lat="-27.274144" lon="151.2900747">
  <ele>342.82</ele>
  <time>2026-09-01T19:55:11Z</time>
  <course>14.89</course>
  <speed>0.9918165152889924</speed>
  <fix>3d</fix>
</trkpt>
<trkpt lat="-27.2741467" lon="151.2900746">
  <ele>343.08</ele>
  <time>2026-09-01T19:55:11Z</time>
  <course>3.72</course>
  <speed>0.99</speed>
  <fix>3d</fix>
</trkpt>
<trkpt lat="-27.2741432" lon="151.2900748">
  <ele>342.98</ele>
  <time>2026-09-01T19:55:11Z</time>
  <course>14.89</course>
  <speed>0.9918165152889924</speed>
  <fix>3d</fix>
</trkpt>
<trkpt lat="-27.274145" lon="151.2900747">
  <ele>343.08</ele>
  <time>2026-09-01T19:55:11Z</time>
  <course>3.75</course>
  <speed>0.99</speed>
  <fix>3d</fix>
</trkpt>
<trkpt lat="-27.2741426" lon="151.290075">
  <ele>342.0</ele>
  <time>2026-09-01T19:55:11Z</time>
  <course>3.78</course>
  <speed>0.9918165152889924</speed>
  <fix>3d</fix>
</trkpt>
<trkpt lat="-27.2741423" lon="151.2900748">
  <ele>342.98</ele>
  <time>2026-09-01T19:55:11Z</time>
  <course>14.9</course>
  <speed>0.9918165152889924</speed>
  <fix>3d</fix>
</trkpt>
<trkpt lat="-27.274145" lon="151.2900747">
  <ele>343.08</ele>
  <time>2026-09-01T19:55:11Z</time>
  <course>3.75</course>
  <speed>0.99</speed>
  <fix>3d</fix>
</trkpt>
<trkpt lat="-27.2741415" lon="151.2900749">
  <ele>342.75</ele>
  <time>2026-09-01T19:55:11Z</time>
  <course>14.91</course>
  <speed>0.9918165152889924</speed>
  <fix>3d</fix>
</trkpt>
<trkpt lat="-27.2741433" lon="151.2900748">
  <ele>343.08</ele>
  <time>2026-09-01T19:55:11Z</time>
  <course>3.77</course>
  <speed>0.99</speed>
  <fix>3d</fix>
</trkpt>
<trkpt lat="-27.2741408" lon="151.2900751">
  <ele>342.0</ele>
  <time>2026-09-01T19:55:11Z</time>
  <course>3.8</course>
  <speed>0.9918165152889924</speed>
  <fix>3d</fix>
</trkpt>
<trkpt lat="-27.2741406" lon="151.2900749">
  <ele>343.04</ele>
  <time>2026-09-01T19:55:11Z</time>
  <course>14.92</course>
  <speed>0.9918165152889924</speed>
  <fix>3d</fix>
</trkpt>
<trkpt lat="-27.2741433" lon="151.2900748">
  <ele>343.08</ele>
  <time>2026-09-01T19:55:11Z</time>
  <course>3.77</course>
  <speed>0.99</speed>
  <fix>3d</fix>
</trkpt>
<trkpt lat="-27.2741397" lon="151.2900751">
  <ele>343.01</ele>
  <time>2026-09-01T19:55:11Z</time>
  <course>14.93</course>
  <speed>0.9918165152889924</speed>
  <fix>3d</fix>
</trkpt>
<trkpt lat="-27.2741415" lon="151.290075">
  <ele>343.08</ele>
  <time>2026-09-01T19:55:11Z</time>
  <course>3.79</course>
  <speed>0.99</speed>
  <fix>3d</fix>
</trkpt>
<trkpt lat="-27.274139" lon="151.2900752">
  <ele>341.999</ele>
  <time>2026-09-01T19:55:11Z</time>
  <course>3.82</course>
  <speed>0.9918165152889924</speed>
  <fix>3d</fix>
</trkpt>
<trkpt lat="-27.2741388" lon="151.2900752">
  <ele>343.13</ele>
  <time>2026-09-01T19:55:11Z</time>
  <course>14.94</course>
  <speed>0.9918165152889924</speed>
  <fix>3d</fix>
</trkpt>
<trkpt lat="-27.2741415" lon="151.290075">
  <ele>343.08</ele>
  <time>2026-09-01T19:55:11Z</time>
  <course>3.79</course>
  <speed>0.99</speed>
  <fix>3d</fix>
</trkpt>
<trkpt lat="-27.2741379" lon="151.2900752">
  <ele>342.94</ele>
  <time>2026-09-01T19:55:11Z</time>
  <course>14.94</course>
  <speed>0.9918165152889924</speed>
  <fix>3d</fix>
</trkpt>
<trkpt lat="-27.2741397" lon="151.2900751">
  <ele>343.08</ele>
  <time>2026-09-01T19:55:11Z</time>
  <course>3.81</course>
  <speed>0.99</speed>
  <fix>3d</fix>
</trkpt>
<trkpt lat="-27.2741372" lon="151.2900754">
  <ele>342.0</ele>
  <time>2026-09-01T19:55:11Z</time>
  <course>3.85</course>
  <speed>0.9918165152889924</speed>
  <fix>3d</fix>
</trkpt>
<trkpt lat="-27.274137" lon="151.2900753">
  <ele>343.0</ele>
  <time>2026-09-01T19:55:11Z</time>
  <course>14.95</course>
  <speed>0.9918165152889924</speed>
  <fix>3d</fix>
</trkpt>
<trkpt lat="-27.2741397" lon="151.2900751">
  <ele>343.08</ele>
  <time>2026-09-01T19:55:11Z</time>
  <course>3.81</course>
  <speed>0.99</speed>
  <fix>3d</fix>
</trkpt>
<trkpt lat="-27.2741361" lon="151.2900754">
  <ele>343.09</ele>
  <time>2026-09-01T19:55:11Z</time>
  <course>14.96</course>
  <speed>0.9918165152889924</speed>
  <fix>3d</fix>
</trkpt>
<trkpt lat="-27.2741379" lon="151.2900753">
  <ele>343.08</ele>
  <time>2026-09-01T19:55:11Z</time>
  <course>3.84</course>
  <speed>0.99</speed>
  <fix>3d</fix>
</trkpt>
<trkpt lat="-27.2741354" lon="151.2900755">
  <ele>342.0</ele>
  <time>2026-09-01T19:55:11Z</time>
  <course>3.87</course>
  <speed>0.9918165152889924</speed>
  <fix>3d</fix>
</trkpt>
<trkpt lat="-27.2741352" lon="151.2900755">
  <ele>343.13</ele>
  <time>2026-09-01T19:55:11Z</time>
  <course>14.97</course>
  <speed>0.9918165152889924</speed>
  <fix>3d</fix>
</trkpt>
<trkpt lat="-27.2741379" lon="151.2900753">
  <ele>343.08</ele>
  <time>2026-09-01T19:55:11Z</time>
  <course>3.84</course>
  <speed>0.99</speed>
  <fix>3d</fix>
</trkpt>
<trkpt lat="-27.2741343" lon="151.2900755">
  <ele>342.95</ele>
  <time>2026-09-01T19:55:11Z</time>
  <course>14.98</course>
  <speed>0.9918165152889924</speed>
  <fix>3d</fix>
</trkpt>
<trkpt lat="-27.2741361" lon="151.2900754">
  <ele>343.08</ele>
  <time>2026-09-01T19:55:11Z</time>
  <course>3.86</course>
  <speed>0.99</speed>
  <fix>3d</fix>
</trkpt>
<trkpt lat="-27.2741336" lon="151.2900757">
  <ele>342.0</ele>
  <time>2026-09-01T19:55:11Z</time>
  <course>3.89</course>
  <speed>0.9918165152889924</speed>
  <fix>3d</fix>
</trkpt>
<trkpt lat="-27.2741334" lon="151.2900756">
  <ele>343.12</ele>
  <time>2026-09-01T19:55:11Z</time>
  <course>14.99</course>
  <speed>0.9918165152889924</speed>
  <fix>3d</fix>
</trkpt>
<trkpt lat="-27.2741361" lon="151.2900754">
  <ele>343.08</ele>
  <time>2026-09-01T19:55:11Z</time>
  <course>3.86</course>
  <speed>0.99</speed>
  <fix>3d</fix>
</trkpt>
<trkpt lat="-27.2741325" lon="151.2900756">
  <ele>342.84</ele>
  <time>2026-09-01T19:55:11Z</time>
  <course>15.0</course>
  <speed>0.9918165152889924</speed>
  <fix>3d</fix>
</trkpt>
<trkpt lat="-27.2741343" lon="151.2900755">
  <ele>343.08</ele>
  <time>2026-09-01T19:55:11Z</time>
  <course>3.88</course>
  <speed>0.99</speed>
  <fix>3d</fix>
</trkpt>
<trkpt lat="-27.2741318" lon="151.2900758">
  <ele>342.0</ele>
  <time>2026-09-01T19:55:11Z</time>
  <course>3.92</course>
  <speed>0.9918165152889924</speed>
  <fix>3d</fix>
</trkpt>
<trkpt lat="-27.2741316" lon="151.2900757">
  <ele>342.9</ele>
  <time>2026-09-01T19:55:11Z</time>
  <course>15.01</course>
  <speed>0.9918165152889924</speed>
  <fix>3d</fix>
</trkpt>
<trkpt lat="-27.2741343" lon="151.2900755">
  <ele>343.08</ele>
  <time>2026-09-01T19:55:11Z</time>
  <course>3.88</course>
  <speed>0.99</speed>
  <fix>3d</fix>
</trkpt>
<trkpt lat="-27.2741307" lon="151.2900758">
  <ele>343.09</ele>
  <time>2026-09-01T19:55:11Z</time>
  <course>15.01</course>
  <speed>0.9918165152889924</speed>
  <fix>3d</fix>
</trkpt>
<trkpt lat="-27.2741325" lon="151.2900757">
  <ele>343.08</ele>
  <time>2026-09-01T19:55:11Z</time>
  <course>3.91</course>
  <speed>0.99</speed>
  <fix>3d</fix>
</trkpt>
<trkpt lat="-27.27413" lon="151.2900759">
  <ele>342.0</ele>
  <time>2026-09-01T19:55:11Z</time>
  <course>3.94</course>
  <speed>0.9918165152889924</speed>
  <fix>3d</fix>
</trkpt>
<trkpt lat="-27.2741298" lon="151.2900759">
  <ele>343.01</ele>
  <time>2026-09-01T19:55:11Z</time>
  <course>15.02</course>
  <speed>0.9918165152889924</speed>
  <fix>3d</fix>
</trkpt>
<trkpt lat="-27.2741325" lon="151.2900757">
  <ele>343.08</ele>
  <time>2026-09-01T19:55:11Z</time>
  <course>3.91</course>
  <speed>0.99</speed>
  <fix>3d</fix>
</trkpt>
<trkpt lat="-27.2741289" lon="151.2900759">
  <ele>343.05</ele>
  <time>2026-09-01T19:55:11Z</time>
  <course>15.03</course>
  <speed>0.9918165152889924</speed>
  <fix>3d</fix>
</trkpt>
<trkpt lat="-27.2741307" lon="151.2900758">
  <ele>343.08</ele>
  <time>2026-09-01T19:55:11Z</time>
  <course>3.93</course>
  <speed>0.99</speed>
  <fix>3d</fix>
</trkpt>
<trkpt lat="-27.2741282" lon="151.2900761">
  <ele>342.0</ele>
  <time>2026-09-01T19:55:11Z</time>
  <course>3.96</course>
  <speed>0.9918165152889924</speed>
  <fix>3d</fix>
</trkpt>
<trkpt lat="-27.274128" lon="151.290076">
  <ele>343.01</ele>
  <time>2026-09-01T19:55:11Z</time>
  <course>15.04</course>
  <speed>0.9918165152889924</speed>
  <fix>3d</fix>
</trkpt>
<trkpt lat="-27.2741307" lon="151.2900758">
  <ele>343.08</ele>
  <time>2026-09-01T19:55:11Z</time>
  <course>3.93</course>
  <speed>0.99</speed>
  <fix>3d</fix>
</trkpt>
<trkpt lat="-27.2741271" lon="151.2900761">
  <ele>342.86</ele>
  <time>2026-09-01T19:55:11Z</time>
  <course>15.05</course>
  <speed>0.9918165152889924</speed>
  <fix>3d</fix>
</trkpt>
<trkpt lat="-27.2741289" lon="151.290076">
  <ele>343.08</ele>
  <time>2026-09-01T19:55:11Z</time>
  <course>3.95</course>
  <speed>0.99</speed>
  <fix>3d</fix>
</trkpt>
<trkpt lat="-27.2741265" lon="151.2900762">
  <ele>342.0</ele>
  <time>2026-09-01T19:55:12Z</time>
  <course>3.98</course>
  <speed>0.9918165152889924</speed>
  <fix>3d</fix>
</trkpt>
<trkpt lat="-27.2741262" lon="151.2900762">
  <ele>342.98</ele>
  <time>2026-09-01T19:55:12Z</time>
  <course>15.06</course>
  <speed>0.9918165152889924</speed>
  <fix>3d</fix>
</trkpt>
<trkpt lat="-27.2741289" lon="151.290076">
  <ele>343.08</ele>
  <time>2026-09-01T19:55:12Z</time>
  <course>3.95</course>
  <speed>0.99</speed>
  <fix>3d</fix>
</trkpt>
<trkpt lat="-27.2741253" lon="151.2900762">
  <ele>343.09</ele>
  <time>2026-09-01T19:55:12Z</time>
  <course>15.07</course>
  <speed>0.9918165152889924</speed>
  <fix>3d</fix>
</trkpt>
<trkpt lat="-27.2741271" lon="151.2900761">
  <ele>343.08</ele>
  <time>2026-09-01T19:55:12Z</time>
  <course>3.97</course>
  <speed>0.99</speed>
  <fix>3d</fix>
</trkpt>
<trkpt lat="-27.2741247" lon="151.2900763">
  <ele>342.0</ele>
  <time>2026-09-01T19:55:12Z</time>
  <course>4.01</course>
  <speed>0.9918165152889924</speed>
  <fix>3d</fix>
</trkpt>
<trkpt lat="-27.2741244" lon="151.2900763">
  <ele>343.02</ele>
  <time>2026-09-01T19:55:12Z</time>
  <course>15.08</course>
  <speed>0.9918165152889924</speed>
  <fix>3d</fix>
</trkpt>
<trkpt lat="-27.2741271" lon="151.2900761">
  <ele>343.08</ele>
  <time>2026-09-01T19:55:12Z</time>
  <course>3.97</course>
  <speed>0.99</speed>
  <fix>3d</fix>
</trkpt>
<trkpt lat="-27.2741235" lon="151.2900763">
  <ele>343.2</ele>
  <time>2026-09-01T19:55:12Z</time>
  <course>15.09</course>
  <speed>0.9918165152889924</speed>
  <fix>3d</fix>
</trkpt>
<trkpt lat="-27.2741253" lon="151.2900762">
  <ele>343.08</ele>
  <time>2026-09-01T19:55:12Z</time>
  <course>4.0</course>
  <speed>0.99</speed>
  <fix>3d</fix>
</trkpt>
<trkpt lat="-27.2741229" lon="151.2900765">
  <ele>342.0</ele>
  <time>2026-09-01T19:55:12Z</time>
  <course>4.03</course>
  <speed>0.9924716620639604</speed>
  <fix>3d</fix>
</trkpt>
<trkpt lat="-27.2741226" lon="151.2900764">
  <ele>343.02</ele>
  <time>2026-09-01T19:55:12Z</time>
  <course>15.1</course>
  <speed>0.9918165152889924</speed>
  <fix>3d</fix>
</trkpt>
<trkpt lat="-27.2741253" lon="151.2900762">
  <ele>343.08</ele>
  <time>2026-09-01T19:55:12Z</time>
  <course>4.0</course>
  <speed>0.99</speed>
  <fix>3d</fix>
</trkpt>
<trkpt lat="-27.2741217" lon="151.2900764">
  <ele>343.05</ele>
  <time>2026-09-01T19:55:12Z</time>
  <course>15.11</course>
  <speed>0.9924716620639604</speed>
  <fix>3d</fix>
</trkpt>
<trkpt lat="-27.2741235" lon="151.2900763">
  <ele>343.08</ele>
  <time>2026-09-01T19:55:12Z</time>
  <course>4.02</course>
  <speed>0.99</speed>
  <fix>3d</fix>
</trkpt>
<trkpt lat="-27.2741211" lon="151.2900766">
  <ele>342.0</ele>
  <time>2026-09-01T19:55:12Z</time>
  <course>4.05</course>
  <speed>0.9924716620639604</speed>
  <fix>3d</fix>
</trkpt>
<trkpt lat="-27.2741208" lon="151.2900765">
  <ele>343.06</ele>
  <time>2026-09-01T19:55:12Z</time>
  <course>15.12</course>
  <speed>0.9924716620639604</speed>
  <fix>3d</fix>
</trkpt>
<trkpt lat="-27.2741235" lon="151.2900763">
  <ele>343.08</ele>
  <time>2026-09-01T19:55:12Z</time>
  <course>4.02</course>
  <speed>0.99</speed>
  <fix>3d</fix>
</trkpt>
<trkpt lat="-27.2741199" lon="151.2900766">
  <ele>342.87</ele>
  <time>2026-09-01T19:55:12Z</time>
  <course>15.12</course>
  <speed>0.9924716620639604</speed>
  <fix>3d</fix>
</trkpt>
<trkpt lat="-27.2741217" lon="151.2900765">
  <ele>343.08</ele>
  <time>2026-09-01T19:55:12Z</time>
  <course>4.04</course>
  <speed>0.99</speed>
  <fix>3d</fix>
</trkpt>
<trkpt lat="-27.2741193" lon="151.2900768">
  <ele>342.0</ele>
  <time>2026-09-01T19:55:12Z</time>
  <course>4.08</course>
  <speed>0.9924716620639604</speed>
  <fix>3d</fix>
</trkpt>
<trkpt lat="-27.274119" lon="151.2900767">
  <ele>342.97</ele>
  <time>2026-09-01T19:55:12Z</time>
  <course>15.13</course>
  <speed>0.9924716620639604</speed>
  <fix>3d</fix>
</trkpt>
<trkpt lat="-27.2741217" lon="151.2900765">
  <ele>343.08</ele>
  <time>2026-09-01T19:55:12Z</time>
  <course>4.04</course>
  <speed>0.99</speed>
  <fix>3d</fix>
</trkpt>
<trkpt lat="-27.2741191" lon="151.2900766">
  <ele>343.03</ele>
  <time>2026-09-01T19:55:12Z</time>
  <course>16.94</course>
  <speed>0.9924716620639604</speed>
  <fix>3d</fix>
</trkpt>
<trkpt lat="-27.2741199" lon="151.2900766">
  <ele>343.08</ele>
  <time>2026-09-01T19:55:12Z</time>
  <course>4.07</course>
  <speed>0.99</speed>
  <fix>3d</fix>
</trkpt>
<trkpt lat="-27.2741175" lon="151.2900769">
  <ele>342.0</ele>
  <time>2026-09-01T19:55:12Z</time>
  <course>4.1</course>
  <speed>0.9924716620639604</speed>
  <fix>3d</fix>
</trkpt>
<trkpt lat="-27.2741179" lon="151.2900767">
  <ele>343.03</ele>
  <time>2026-09-01T19:55:12Z</time>
  <course>16.95</course>
  <speed>0.9924716620639604</speed>
  <fix>3d</fix>
</trkpt>
<trkpt lat="-27.2741199" lon="151.2900766">
  <ele>343.08</ele>
  <time>2026-09-01T19:55:12Z</time>
  <course>4.07</course>
  <speed>0.99</speed>
  <fix>3d</fix>
</trkpt>
<trkpt lat="-27.2741169" lon="151.2900768">
  <ele>343.02</ele>
  <time>2026-09-01T19:55:12Z</time>
  <course>16.95</course>
  <speed>0.9924716620639604</speed>
  <fix>3d</fix>
</trkpt>
<trkpt lat="-27.2741182" lon="151.2900768">
  <ele>343.08</ele>
  <time>2026-09-01T19:55:12Z</time>
  <course>4.09</course>
  <speed>0.99</speed>
  <fix>3d</fix>
</trkpt>
<trkpt lat="-27.2741157" lon="151.2900771">
  <ele>342.0</ele>
  <time>2026-09-01T19:55:12Z</time>
  <course>4.12</course>
  <speed>0.9924716620639604</speed>
  <fix>3d</fix>
</trkpt>
<trkpt lat="-27.2741158" lon="151.2900769">
  <ele>343.02</ele>
  <time>2026-09-01T19:55:12Z</time>
  <course>16.96</course>
  <speed>0.9924716620639604</speed>
  <fix>3d</fix>
</trkpt>
<trkpt lat="-27.2741182" lon="151.2900768">
  <ele>343.08</ele>
  <time>2026-09-01T19:55:12Z</time>
  <course>4.09</course>
  <speed>0.99</speed>
  <fix>3d</fix>
</trkpt>
<trkpt lat="-27.2741149" lon="151.2900769">
  <ele>343.02</ele>
  <time>2026-09-01T19:55:12Z</time>
  <course>16.97</course>
  <speed>0.9924716620639604</speed>
  <fix>3d</fix>
</trkpt>
<trkpt lat="-27.2741163" lon="151.290077">
  <ele>343.08</ele>
  <time>2026-09-01T19:55:12Z</time>
  <course>4.11</course>
  <speed>0.99</speed>
  <fix>3d</fix>
</trkpt>
<trkpt lat="-27.2741139" lon="151.2900772">
  <ele>342.0</ele>
  <time>2026-09-01T19:55:12Z</time>
  <course>4.15</course>
  <speed>0.9924716620639604</speed>
  <fix>3d</fix>
</trkpt>
<trkpt lat="-27.2741139" lon="151.290077">
  <ele>343.03</ele>
  <time>2026-09-01T19:55:12Z</time>
  <course>16.97</course>
  <speed>0.9924716620639604</speed>
  <fix>3d</fix>
</trkpt>
<trkpt lat="-27.2741163" lon="151.290077">
  <ele>343.08</ele>
  <time>2026-09-01T19:55:12Z</time>
  <course>4.11</course>
  <speed>0.99</speed>
  <fix>3d</fix>
</trkpt>
<trkpt lat="-27.274113" lon="151.2900771">
  <ele>343.03</ele>
  <time>2026-09-01T19:55:12Z</time>
  <course>16.98</course>
  <speed>0.9924716620639604</speed>
  <fix>3d</fix>
</trkpt>
<trkpt lat="-27.2741146" lon="151.2900771">
  <ele>343.08</ele>
  <time>2026-09-01T19:55:12Z</time>
  <course>4.13</course>
  <speed>0.99</speed>
  <fix>3d</fix>
</trkpt>
<trkpt lat="-27.2741121" lon="151.2900774">
  <ele>342.0</ele>
  <time>2026-09-01T19:55:12Z</time>
  <course>4.17</course>
  <speed>0.9924716620639604</speed>
  <fix>3d</fix>
</trkpt>
<trkpt lat="-27.274112" lon="151.2900772">
  <ele>343.03</ele>
  <time>2026-09-01T19:55:12Z</time>
  <course>16.98</course>
  <speed>0.9924716620639604</speed>
  <fix>3d</fix>
</trkpt>
<trkpt lat="-27.2741146" lon="151.2900771">
  <ele>343.08</ele>
  <time>2026-09-01T19:55:12Z</time>
  <course>4.13</course>
  <speed>0.99</speed>
  <fix>3d</fix>
</trkpt>
<trkpt lat="-27.2741111" lon="151.2900773">
  <ele>343.03</ele>
  <time>2026-09-01T19:55:12Z</time>
  <course>16.99</course>
  <speed>0.9924716620639604</speed>
  <fix>3d</fix>
</trkpt>
<trkpt lat="-27.2741128" lon="151.2900772">
  <ele>343.08</ele>
  <time>2026-09-01T19:55:12Z</time>
  <course>4.16</course>
  <speed>0.99</speed>
  <fix>3d</fix>
</trkpt>
<trkpt lat="-27.2741103" lon="151.2900775">
  <ele>341.999</ele>
  <time>2026-09-01T19:55:12Z</time>
  <course>4.19</course>
  <speed>0.9924716620639604</speed>
  <fix>3d</fix>
</trkpt>
<trkpt lat="-27.2741102" lon="151.2900774">
  <ele>343.03</ele>
  <time>2026-09-01T19:55:12Z</time>
  <course>17.0</course>
  <speed>0.9924716620639604</speed>
  <fix>3d</fix>
</trkpt>
<trkpt lat="-27.2741128" lon="151.2900772">
  <ele>343.08</ele>
  <time>2026-09-01T19:55:12Z</time>
  <course>4.16</course>
  <speed>0.99</speed>
  <fix>3d</fix>
</trkpt>
<trkpt lat="-27.2741093" lon="151.2900774">
  <ele>343.07</ele>
  <time>2026-09-01T19:55:12Z</time>
  <course>17.0</course>
  <speed>0.9924716620639604</speed>
  <fix>3d</fix>
</trkpt>
<trkpt lat="-27.274111" lon="151.2900774">
  <ele>343.08</ele>
  <time>2026-09-01T19:55:12Z</time>
  <course>4.18</course>
  <speed>0.99</speed>
  <fix>3d</fix>
</trkpt>
<trkpt lat="-27.2741085" lon="151.2900777">
  <ele>342.0</ele>
  <time>2026-09-01T19:55:12Z</time>
  <course>4.21</course>
  <speed>0.9924716620639604</speed>
  <fix>3d</fix>
</trkpt>
<trkpt lat="-27.2741084" lon="151.2900775">
  <ele>343.07</ele>
  <time>2026-09-01T19:55:12Z</time>
  <course>17.01</course>
  <speed>0.9924716620639604</speed>
  <fix>3d</fix>
</trkpt>
<trkpt lat="-27.274111" lon="151.2900774">
  <ele>343.08</ele>
  <time>2026-09-01T19:55:12Z</time>
  <course>4.18</course>
  <speed>0.99</speed>
  <fix>3d</fix>
</trkpt>
<trkpt lat="-27.2741075" lon="151.2900776">
  <ele>343.07</ele>
  <time>2026-09-01T19:55:12Z</time>
  <course>17.02</course>
  <speed>0.9924716620639604</speed>
  <fix>3d</fix>
</trkpt>
<trkpt lat="-27.2741092" lon="151.2900775">
  <ele>343.08</ele>
  <time>2026-09-01T19:55:12Z</time>
  <course>4.2</course>
  <speed>0.99</speed>
  <fix>3d</fix>
</trkpt>
<trkpt lat="-27.2741067" lon="151.2900778">
  <ele>342.0</ele>
  <time>2026-09-01T19:55:12Z</time>
  <course>4.24</course>
  <speed>0.9924716620639604</speed>
  <fix>3d</fix>
</trkpt>
<trkpt lat="-27.2741067" lon="151.2900777">
  <ele>343.07</ele>
  <time>2026-09-01T19:55:12Z</time>
  <course>17.02</course>
  <speed>0.9924716620639604</speed>
  <fix>3d</fix>
</trkpt>
<trkpt lat="-27.2741092" lon="151.2900775">
  <ele>343.08</ele>
  <time>2026-09-01T19:55:12Z</time>
  <course>4.2</course>
  <speed>0.99</speed>
  <fix>3d</fix>
</trkpt>
<trkpt lat="-27.2741058" lon="151.2900777">
  <ele>343.06</ele>
  <time>2026-09-01T19:55:12Z</time>
  <course>17.03</course>
  <speed>0.9924716620639604</speed>
  <fix>3d</fix>
</trkpt>
<trkpt lat="-27.2741074" lon="151.2900776">
  <ele>343.08</ele>
  <time>2026-09-01T19:55:12Z</time>
  <course>4.23</course>
  <speed>0.99</speed>
  <fix>3d</fix>
</trkpt>
<trkpt lat="-27.2741049" lon="151.290078">
  <ele>342.0</ele>
  <time>2026-09-01T19:55:12Z</time>
  <course>4.26</course>
  <speed>0.9924716620639604</speed>
  <fix>3d</fix>
</trkpt>
<trkpt lat="-27.2741049" lon="151.2900778">
  <ele>343.06</ele>
  <time>2026-09-01T19:55:12Z</time>
  <course>17.03</course>
  <speed>0.9924716620639604</speed>
  <fix>3d</fix>
</trkpt>
<trkpt lat="-27.2741074" lon="151.2900776">
  <ele>343.08</ele>
  <time>2026-09-01T19:55:12Z</time>
  <course>4.23</course>
  <speed>0.99</speed>
  <fix>3d</fix>
</trkpt>
<trkpt lat="-27.274104" lon="151.2900779">
  <ele>343.05</ele>
  <time>2026-09-01T19:55:12Z</time>
  <course>17.04</course>
  <speed>0.9924716620639604</speed>
  <fix>3d</fix>
</trkpt>
<trkpt lat="-27.2741056" lon="151.2900778">
  <ele>343.08</ele>
  <time>2026-09-01T19:55:12Z</time>
  <course>4.25</course>
  <speed>0.99</speed>
  <fix>3d</fix>
</trkpt>
<trkpt lat="-27.2741031" lon="151.2900781">
  <ele>342.0</ele>
  <time>2026-09-01T19:55:12Z</time>
  <course>4.28</course>
  <speed>0.9924716620639604</speed>
  <fix>3d</fix>
</trkpt>
<trkpt lat="-27.2741031" lon="151.290078">
  <ele>343.05</ele>
  <time>2026-09-01T19:55:12Z</time>
  <course>17.04</course>
  <speed>0.9932270636667125</speed>
  <fix>3d</fix>
</trkpt>
<trkpt lat="-27.2741056" lon="151.2900778">
  <ele>343.08</ele>
  <time>2026-09-01T19:55:12Z</time>
  <course>4.25</course>
  <speed>0.99</speed>
  <fix>3d</fix>
</trkpt>
<trkpt lat="-27.2741022" lon="151.2900781">
  <ele>343.04</ele>
  <time>2026-09-01T19:55:12Z</time>
  <course>17.05</course>
  <speed>0.9932270636667125</speed>
  <fix>3d</fix>
</trkpt>
<trkpt lat="-27.2741038" lon="151.290078">
  <ele>343.08</ele>
  <time>2026-09-01T19:55:12Z</time>
  <course>4.27</course>
  <speed>0.99</speed>
  <fix>3d</fix>
</trkpt>
<trkpt lat="-27.2741013" lon="151.2900783">
  <ele>342.0</ele>
  <time>2026-09-01T19:55:12Z</time>
  <course>4.31</course>
  <speed>0.9924716620639604</speed>
  <fix>3d</fix>
</trkpt>
<trkpt lat="-27.2741013" lon="151.2900781">
  <ele>343.03</ele>
  <time>2026-09-01T19:55:12Z</time>
  <course>17.06</course>
  <speed>0.9932270636667125</speed>
  <fix>3d</fix>
</trkpt>
<trkpt lat="-27.2741038" lon="151.290078">
  <ele>343.08</ele>
  <time>2026-09-01T19:55:12Z</time>
  <course>4.27</course>
  <speed>0.99</speed>
  <fix>3d</fix>
</trkpt>
<trkpt lat="-27.2741004" lon="151.2900782">
  <ele>343.03</ele>
  <time>2026-09-01T19:55:12Z</time>
  <course>17.06</course>
  <speed>0.9932270636667125</speed>
  <fix>3d</fix>
</trkpt>
<trkpt lat="-27.274102" lon="151.2900781">
  <ele>343.08</ele>
  <time>2026-09-01T19:55:12Z</time>
  <course>4.29</course>
  <speed>0.99</speed>
  <fix>3d</fix>
</trkpt>
<trkpt lat="-27.2740995" lon="151.2900784">
  <ele>342.0</ele>
  <time>2026-09-01T19:55:12Z</time>
  <course>4.33</course>
  <speed>0.9924716620639604</speed>
  <fix>3d</fix>
</trkpt>
<trkpt lat="-27.2740995" lon="151.2900783">
  <ele>343.02</ele>
  <time>2026-09-01T19:55:12Z</time>
  <course>17.07</course>
  <speed>0.9932270636667125</speed>
  <fix>3d</fix>
</trkpt>
<trkpt lat="-27.274102" lon="151.2900781">
  <ele>343.08</ele>
  <time>2026-09-01T19:55:12Z</time>
  <course>4.29</course>
  <speed>0.99</speed>
  <fix>3d</fix>
</trkpt>
<trkpt lat="-27.2740986" lon="151.2900784">
  <ele>343.02</ele>
  <time>2026-09-01T19:55:12Z</time>
  <course>17.08</course>
  <speed>0.9932270636667125</speed>
  <fix>3d</fix>
</trkpt>
<trkpt lat="-27.2741002" lon="151.2900783">
  <ele>343.08</ele>
  <time>2026-09-01T19:55:12Z</time>
  <course>4.32</course>
  <speed>0.99</speed>
  <fix>3d</fix>
</trkpt>
<trkpt lat="-27.2740977" lon="151.2900786">
  <ele>341.999</ele>
  <time>2026-09-01T19:55:12Z</time>
  <course>4.35</course>
  <speed>0.9924716620639604</speed>
  <fix>3d</fix>
</trkpt>
<trkpt lat="-27.2740977" lon="151.2900785">
  <ele>343.02</ele>
  <time>2026-09-01T19:55:12Z</time>
  <course>17.08</course>
  <speed>0.9932270636667125</speed>
  <fix>3d</fix>
</trkpt>
<trkpt lat="-27.2741002" lon="151.2900783">
  <ele>343.08</ele>
  <time>2026-09-01T19:55:12Z</time>
  <course>4.32</course>
  <speed>0.99</speed>
  <fix>3d</fix>
</trkpt>
<trkpt lat="-27.2740973" lon="151.2900785">
  <ele>343.02</ele>
  <time>2026-09-01T19:55:12Z</time>
  <course>17.09</course>
  <speed>0.9932270636667125</speed>
  <fix>3d</fix>
</trkpt>
<trkpt lat="-27.2740968" lon="151.2900785">
  <ele>343.02</ele>
  <time>2026-09-01T19:55:12Z</time>
  <course>17.09</course>
  <speed>0.9932270636667125</speed>
  <fix>3d</fix>
</trkpt>
<trkpt lat="-27.2740985" lon="151.2900784">
  <ele>343.08</ele>
  <time>2026-09-01T19:55:12Z</time>
  <course>4.34</course>
  <speed>0.99</speed>
  <fix>3d</fix>
</trkpt>
<trkpt lat="-27.2740968" lon="151.2900785">
  <ele>343.02</ele>
  <time>2026-09-01T19:55:12Z</time>
  <course>17.09</course>
  <speed>0.9932270636667125</speed>
  <fix>3d</fix>
</trkpt>
<trkpt lat="-27.274096" lon="151.2900787">
  <ele>342.0</ele>
  <time>2026-09-01T19:55:12Z</time>
  <course>4.37</course>
  <speed>0.9924716620639604</speed>
  <fix>3d</fix>
</trkpt>
<trkpt lat="-27.2740959" lon="151.2900786">
  <ele>343.02</ele>
  <time>2026-09-01T19:55:12Z</time>
  <course>17.1</course>
  <speed>0.9932270636667125</speed>
  <fix>3d</fix>
</trkpt>
<trkpt lat="-27.2740985" lon="151.2900784">
  <ele>343.08</ele>
  <time>2026-09-01T19:55:12Z</time>
  <course>4.34</course>
  <speed>0.99</speed>
  <fix>3d</fix>
</trkpt>
<trkpt lat="-27.2740959" lon="151.2900786">
  <ele>343.02</ele>
  <time>2026-09-01T19:55:12Z</time>
  <course>17.1</course>
  <speed>0.9932270636667125</speed>
  <fix>3d</fix>
</trkpt>
<trkpt lat="-27.274095" lon="151.2900787">
  <ele>343.01</ele>
  <time>2026-09-01T19:55:12Z</time>
  <course>17.1</course>
  <speed>0.9932270636667125</speed>
  <fix>3d</fix>
</trkpt>
<trkpt lat="-27.2740967" lon="151.2900785">
  <ele>343.08</ele>
  <time>2026-09-01T19:55:12Z</time>
  <course>4.36</course>
  <speed>0.99</speed>
  <fix>3d</fix>
</trkpt>
<trkpt lat="-27.274095" lon="151.2900787">
  <ele>343.01</ele>
  <time>2026-09-01T19:55:12Z</time>
  <course>17.1</course>
  <speed>0.9932270636667125</speed>
  <fix>3d</fix>
</trkpt>
<trkpt lat="-27.2740942" lon="151.2900789">
  <ele>342.0</ele>
  <time>2026-09-01T19:55:12Z</time>
  <course>4.4</course>
  <speed>0.9924716620639604</speed>
  <fix>3d</fix>
</trkpt>
<trkpt lat="-27.2740941" lon="151.2900788">
  <ele>343.01</ele>
  <time>2026-09-01T19:55:12Z</time>
  <course>17.11</course>
  <speed>0.9932270636667125</speed>
  <fix>3d</fix>
</trkpt>
<trkpt lat="-27.2740967" lon="151.2900785">
  <ele>343.08</ele>
  <time>2026-09-01T19:55:12Z</time>
  <course>4.36</course>
  <speed>0.99</speed>
  <fix>3d</fix>
</trkpt>
<trkpt lat="-27.2740941" lon="151.2900788">
  <ele>343.01</ele>
  <time>2026-09-01T19:55:12Z</time>
  <course>17.11</course>
  <speed>0.9932270636667125</speed>
  <fix>3d</fix>
</trkpt>
<trkpt lat="-27.2740932" lon="151.2900788">
  <ele>343.01</ele>
  <time>2026-09-01T19:55:12Z</time>
  <course>17.11</course>
  <speed>0.9932270636667125</speed>
  <fix>3d</fix>
</trkpt>
<trkpt lat="-27.2740949" lon="151.2900788">
  <ele>343.08</ele>
  <time>2026-09-01T19:55:12Z</time>
  <course>4.39</course>
  <speed>0.99</speed>
  <fix>3d</fix>
</trkpt>
<trkpt lat="-27.2740932" lon="151.2900788">
  <ele>343.01</ele>
  <time>2026-09-01T19:55:12Z</time>
  <course>17.11</course>
  <speed>0.9932270636667125</speed>
  <fix>3d</fix>
</trkpt>
<trkpt lat="-27.2740924" lon="151.290079">
  <ele>342.0</ele>
  <time>2026-09-01T19:55:12Z</time>
  <course>4.42</course>
  <speed>0.9924716620639604</speed>
  <fix>3d</fix>
</trkpt>
<trkpt lat="-27.2740924" lon="151.2900789">
  <ele>343.0</ele>
  <time>2026-09-01T19:55:12Z</time>
  <course>17.12</course>
  <speed>0.9932270636667125</speed>
  <fix>3d</fix>
</trkpt>
<trkpt lat="-27.2740949" lon="151.2900788">
  <ele>343.08</ele>
  <time>2026-09-01T19:55:12Z</time>
  <course>4.39</course>
  <speed>0.99</speed>
  <fix>3d</fix>
</trkpt>
<trkpt lat="-27.2740923" lon="151.2900789">
  <ele>343.0</ele>
  <time>2026-09-01T19:55:12Z</time>
  <course>17.12</course>
  <speed>0.9932270636667125</speed>
  <fix>3d</fix>
</trkpt>
<trkpt lat="-27.2740915" lon="151.290079">
  <ele>343.0</ele>
  <time>2026-09-01T19:55:12Z</time>
  <course>17.13</course>
  <speed>0.9832598842625484</speed>
  <fix>3d</fix>
</trkpt>
<trkpt lat="-27.2740931" lon="151.2900789">
  <ele>343.08</ele>
  <time>2026-09-01T19:55:12Z</time>
  <course>4.41</course>
  <speed>0.99</speed>
  <fix>3d</fix>
</trkpt>
<trkpt lat="-27.2740913" lon="151.290079">
  <ele>343.0</ele>
  <time>2026-09-01T19:55:12Z</time>
  <course>17.13</course>
  <speed>0.9832598842625484</speed>
  <fix>3d</fix>
</trkpt>
<trkpt lat="-27.2740906" lon="151.2900792">
  <ele>341.999</ele>
  <time>2026-09-01T19:55:12Z</time>
  <course>4.44</course>
  <speed>0.9924716620639604</speed>
  <fix>3d</fix>
</trkpt>
<trkpt lat="-27.2740906" lon="151.2900791">
  <ele>343.0</ele>
  <time>2026-09-01T19:55:12Z</time>
  <course>17.13</course>
  <speed>0.9832598842625484</speed>
  <fix>3d</fix>
</trkpt>
<trkpt lat="-27.2740931" lon="151.2900789">
  <ele>343.08</ele>
  <time>2026-09-01T19:55:12Z</time>
  <course>4.41</course>
  <speed>0.99</speed>
  <fix>3d</fix>
</trkpt>
<trkpt lat="-27.2740906" lon="151.2900791">
  <ele>343.0</ele>
  <time>2026-09-01T19:55:12Z</time>
  <course>17.13</course>
  <speed>0.9832598842625484</speed>
  <fix>3d</fix>
</trkpt>
<trkpt lat="-27.2740897" lon="151.2900792">
  <ele>342.99</ele>
  <time>2026-09-01T19:55:12Z</time>
  <course>17.14</course>
  <speed>0.9832598842625484</speed>
  <fix>3d</fix>
</trkpt>
<trkpt lat="-27.2740913" lon="151.290079">
  <ele>343.08</ele>
  <time>2026-09-01T19:55:12Z</time>
  <course>4.43</course>
  <speed>0.99</speed>
  <fix>3d</fix>
</trkpt>
<trkpt lat="-27.2740897" lon="151.2900792">
  <ele>342.99</ele>
  <time>2026-09-01T19:55:12Z</time>
  <course>17.14</course>
  <speed>0.9832598842625484</speed>
  <fix>3d</fix>
</trkpt>
<trkpt lat="-27.2740888" lon="151.2900793">
  <ele>341.999</ele>
  <time>2026-09-01T19:55:12Z</time>
  <course>4.47</course>
  <speed>0.9924716620639604</speed>
  <fix>3d</fix>
</trkpt>
<trkpt lat="-27.2740888" lon="151.2900792">
  <ele>342.99</ele>
  <time>2026-09-01T19:55:12Z</time>
  <course>17.15</course>
  <speed>0.9832598842625484</speed>
  <fix>3d</fix>
</trkpt>
<trkpt lat="-27.2740913" lon="151.290079">
  <ele>343.08</ele>
  <time>2026-09-01T19:55:12Z</time>
  <course>4.43</course>
  <speed>0.99</speed>
  <fix>3d</fix>
</trkpt>
<trkpt lat="-27.2740888" lon="151.2900792">
  <ele>342.99</ele>
  <time>2026-09-01T19:55:12Z</time>
  <course>17.15</course>
  <speed>0.9832598842625484</speed>
  <fix>3d</fix>
</trkpt>
<trkpt lat="-27.2740879" lon="151.2900793">
  <ele>343.0</ele>
  <time>2026-09-01T19:55:12Z</time>
  <course>17.15</course>
  <speed>0.9932270636667125</speed>
  <fix>3d</fix>
</trkpt>
<trkpt lat="-27.2740895" lon="151.2900792">
  <ele>343.08</ele>
  <time>2026-09-01T19:55:12Z</time>
  <course>4.45</course>
  <speed>0.99</speed>
  <fix>3d</fix>
</trkpt>
<trkpt lat="-27.2740879" lon="151.2900793">
  <ele>343.0</ele>
  <time>2026-09-01T19:55:12Z</time>
  <course>17.15</course>
  <speed>0.9932270636667125</speed>
  <fix>3d</fix>
</trkpt>
<trkpt lat="-27.274087" lon="151.2900795">
  <ele>342.0</ele>
  <time>2026-09-01T19:55:12Z</time>
  <course>4.49</course>
  <speed>0.9924716620639604</speed>
  <fix>3d</fix>
</trkpt>
<trkpt lat="-27.274087" lon="151.2900794">
  <ele>343.02</ele>
  <time>2026-09-01T19:55:12Z</time>
  <course>17.16</course>
  <speed>0.9932270636667125</speed>
  <fix>3d</fix>
</trkpt>
<trkpt lat="-27.2740895" lon="151.2900792">
  <ele>343.08</ele>
  <time>2026-09-01T19:55:12Z</time>
  <course>4.45</course>
  <speed>0.99</speed>
  <fix>3d</fix>
</trkpt>
<trkpt lat="-27.274087" lon="151.2900794">
  <ele>343.02</ele>
  <time>2026-09-01T19:55:12Z</time>
  <course>17.16</course>
  <speed>0.9932270636667125</speed>
  <fix>3d</fix>
</trkpt>
<trkpt lat="-27.2740861" lon="151.2900795">
  <ele>343.05</ele>
  <time>2026-09-01T19:55:12Z</time>
  <course>17.17</course>
  <speed>0.9932270636667125</speed>
  <fix>3d</fix>
</trkpt>
<trkpt lat="-27.2740877" lon="151.2900794">
  <ele>343.09</ele>
  <time>2026-09-01T19:55:12Z</time>
  <course>4.48</course>
  <speed>1.0</speed>
  <fix>3d</fix>
</trkpt>
<trkpt lat="-27.2740861" lon="151.2900795">
  <ele>343.06</ele>
  <time>2026-09-01T19:55:12Z</time>
  <course>17.17</course>
  <speed>0.9932270636667125</speed>
  <fix>3d</fix>
</trkpt>
<trkpt lat="-27.2740852" lon="151.2900797">
  <ele>342.0</ele>
  <time>2026-09-01T19:55:12Z</time>
  <course>4.51</course>
  <speed>0.9924716620639604</speed>
  <fix>3d</fix>
</trkpt>
<trkpt lat="-27.2740852" lon="151.2900795">
  <ele>343.09</ele>
  <time>2026-09-01T19:55:12Z</time>
  <course>17.17</course>
  <speed>0.9932270636667125</speed>
  <fix>3d</fix>
</trkpt>
<trkpt lat="-27.2740877" lon="151.2900794">
  <ele>343.09</ele>
  <time>2026-09-01T19:55:12Z</time>
  <course>4.48</course>
  <speed>1.0</speed>
  <fix>3d</fix>
</trkpt>
<trkpt lat="-27.2740852" lon="151.2900796">
  <ele>343.1</ele>
  <time>2026-09-01T19:55:12Z</time>
  <course>17.17</course>
  <speed>0.9932270636667125</speed>
  <fix>3d</fix>
</trkpt>
<trkpt lat="-27.2740843" lon="151.2900796">
  <ele>343.14</ele>
  <time>2026-09-01T19:55:12Z</time>
  <course>17.19</course>
  <speed>0.9732933781753578</speed>
  <fix>3d</fix>
</trkpt>
<trkpt lat="-27.2740859" lon="151.2900795">
  <ele>343.14</ele>
  <time>2026-09-01T19:55:12Z</time>
  <course>4.52</course>
  <speed>1.0</speed>
  <fix>3d</fix>
</trkpt>
<trkpt lat="-27.2740843" lon="151.2900796">
  <ele>343.15</ele>
  <time>2026-09-01T19:55:12Z</time>
  <course>17.19</course>
  <speed>0.9732933781753578</speed>
  <fix>3d</fix>
</trkpt>
<trkpt lat="-27.2740834" lon="151.2900798">
  <ele>342.0</ele>
  <time>2026-09-01T19:55:12Z</time>
  <course>4.53</course>
  <speed>0.9924716620639604</speed>
  <fix>3d</fix>
</trkpt>
<trkpt lat="-27.2740835" lon="151.2900797">
  <ele>343.24</ele>
  <time>2026-09-01T19:55:12Z</time>
  <course>17.24</course>
  <speed>0.8229823813423954</speed>
  <fix>3d</fix>
</trkpt>
<trkpt lat="-27.2740859" lon="151.2900795">
  <ele>343.14</ele>
  <time>2026-09-01T19:55:12Z</time>
  <course>4.52</course>
  <speed>1.0</speed>
  <fix>3d</fix>
</trkpt>
<trkpt lat="-27.2740835" lon="151.2900797">
  <ele>343.25</ele>
  <time>2026-09-01T19:55:12Z</time>
  <course>17.24</course>
  <speed>0.8130190649671138</speed>
  <fix>3d</fix>
</trkpt>
<trkpt lat="-27.2740829" lon="151.2900798">
  <ele>343.41</ele>
  <time>2026-09-01T19:55:12Z</time>
  <course>17.21</course>
  <speed>0.6129437168288782</speed>
  <fix>3d</fix>
</trkpt>
<trkpt lat="-27.2740841" lon="151.2900796">
  <ele>343.24</ele>
  <time>2026-09-01T19:55:12Z</time>
  <course>5.13</course>
  <speed>0.92</speed>
  <fix>3d</fix>
</trkpt>
<trkpt lat="-27.2740829" lon="151.2900798">
  <ele>343.41</ele>
  <time>2026-09-01T19:55:12Z</time>
  <course>17.21</course>
  <speed>0.6029925372672534</speed>
  <fix>3d</fix>
</trkpt>
<trkpt lat="-27.2740816" lon="151.29008">
  <ele>342.0</ele>
  <time>2026-09-01T19:55:12Z</time>
  <course>4.56</course>
  <speed>0.9924716620639604</speed>
  <fix>3d</fix>
</trkpt>
<trkpt lat="-27.2740824" lon="151.2900798">
  <ele>343.59</ele>
  <time>2026-09-01T19:55:12Z</time>
  <course>17.1</course>
  <speed>0.4019950248448356</speed>
  <fix>3d</fix>
</trkpt>
<trkpt lat="-27.2740841" lon="151.2900796">
  <ele>343.24</ele>
  <time>2026-09-01T19:55:12Z</time>
  <course>5.13</course>
  <speed>0.92</speed>
  <fix>3d</fix>
</trkpt>
<trkpt lat="-27.2740824" lon="151.2900798">
  <ele>343.6</ele>
  <time>2026-09-01T19:55:12Z</time>
  <course>17.1</course>
  <speed>0.4019950248448356</speed>
  <fix>3d</fix>
</trkpt>
<trkpt lat="-27.2740821" lon="151.2900799">
  <ele>343.79</ele>
  <time>2026-09-01T19:55:12Z</time>
  <course>16.98</course>
  <speed>0.20223748416156684</speed>
  <fix>3d</fix>
</trkpt>
<trkpt lat="-27.2740827" lon="151.2900799">
  <ele>343.49</ele>
  <time>2026-09-01T19:55:12Z</time>
  <course>7.76</course>
  <speed>0.64</speed>
  <fix>3d</fix>
</trkpt>
<trkpt lat="-27.2740821" lon="151.2900799">
  <ele>343.79</ele>
  <time>2026-09-01T19:55:12Z</time>
  <course>16.98</course>
  <speed>0.20223748416156684</speed>
  <fix>3d</fix>
</trkpt>
<trkpt lat="-27.2740798" lon="151.2900801">
  <ele>342.0</ele>
  <time>2026-09-01T19:55:12Z</time>
  <course>4.58</course>
  <speed>0.9924716620639604</speed>
  <fix>3d</fix>
</trkpt>
<trkpt lat="-27.274082" lon="151.2900799">
  <ele>343.97</ele>
  <time>2026-09-01T19:55:12Z</time>
  <course>16.91</course>
  <speed>0.0316227766016838</speed>
  <fix>3d</fix>
</trkpt>
<trkpt lat="-27.2740827" lon="151.2900799">
  <ele>343.49</ele>
  <time>2026-09-01T19:55:12Z</time>
  <course>7.76</course>
  <speed>0.64</speed>
  <fix>3d</fix>
</trkpt>
<trkpt lat="-27.274082" lon="151.2900799">
  <ele>343.98</ele>
  <time>2026-09-01T19:55:12Z</time>
  <course>16.91</course>
  <speed>0.022360679774997897</speed>
  <fix>3d</fix>
</trkpt>
<trkpt lat="-27.274082" lon="151.2900799">
  <ele>344.15</ele>
  <time>2026-09-01T19:55:12Z</time>
  <course>16.91</course>
  <speed>0.11045361017187261</speed>
  <fix>3d</fix>
</trkpt>
<trkpt lat="-27.2740819" lon="151.2900801">
  <ele>343.86</ele>
  <time>2026-09-01T19:55:12Z</time>
  <course>20.15</course>
  <speed>0.25</speed>
  <fix>3d</fix>
</trkpt>
<trkpt lat="-27.2740821" lon="151.29008">
  <ele>344.2</ele>
  <time>2026-09-01T19:55:12Z</time>
  <course>16.92</course>
  <speed>0.15</speed>
  <fix>3d</fix>
</trkpt>
<trkpt lat="-27.274078" lon="151.2900803">
  <ele>342.0</ele>
  <time>2026-09-01T19:55:12Z</time>
  <course>4.6</course>
  <speed>0.9932270636667125</speed>
  <fix>3d</fix>
</trkpt>
<trkpt lat="-27.2740822" lon="151.29008">
  <ele>344.31</ele>
  <time>2026-09-01T19:55:12Z</time>
  <course>17.02</course>
  <speed>0.24</speed>
  <fix>3d</fix>
</trkpt>
<trkpt lat="-27.2740819" lon="151.2900801">
  <ele>343.86</ele>
  <time>2026-09-01T19:55:12Z</time>
  <course>20.15</course>
  <speed>0.25</speed>
  <fix>3d</fix>
</trkpt>
<trkpt lat="-27.2740822" lon="151.29008">
  <ele>344.32</ele>
  <time>2026-09-01T19:55:12Z</time>
  <course>17.03</course>
  <speed>0.24</speed>
  <fix>3d</fix>
</trkpt>
<trkpt lat="-27.2740824" lon="151.29008">
  <ele>344.47</ele>
  <time>2026-09-01T19:55:12Z</time>
  <course>17.4</course>
  <speed>0.3313608305156178</speed>
  <fix>3d</fix>
</trkpt>
<trkpt lat="-27.2740818" lon="151.2900802">
  <ele>344.22</ele>
  <time>2026-09-01T19:55:12Z</time>
  <course>137.6</course>
  <speed>0.12</speed>
  <fix>3d</fix>
</trkpt>
<trkpt lat="-27.2740824" lon="151.29008">
  <ele>344.48</ele>
  <time>2026-09-01T19:55:12Z</time>
  <course>17.42</course>
  <speed>0.34132096331752027</speed>
  <fix>3d</fix>
</trkpt>
<trkpt lat="-27.2740762" lon="151.2900805">
  <ele>342.0</ele>
  <time>2026-09-01T19:55:12Z</time>
  <course>4.63</course>
  <speed>0.9932270636667125</speed>
  <fix>3d</fix>
</trkpt>
<trkpt lat="-27.2740827" lon="151.29008">
  <ele>344.63</ele>
  <time>2026-09-01T19:55:12Z</time>
  <course>18.18</course>
  <speed>0.4143669871020132</speed>
  <fix>3d</fix>
</trkpt>
<trkpt lat="-27.2740818" lon="151.2900802">
  <ele>344.22</ele>
  <time>2026-09-01T19:55:12Z</time>
  <course>137.6</course>
  <speed>0.12</speed>
  <fix>3d</fix>
</trkpt>
<trkpt lat="-27.2740827" lon="151.29008">
  <ele>344.63</ele>
  <time>2026-09-01T19:55:12Z</time>
  <course>18.21</course>
  <speed>0.4143669871020132</speed>
  <fix>3d</fix>
</trkpt>
<trkpt lat="-27.2740831" lon="151.29008">
  <ele>344.77</ele>
  <time>2026-09-01T19:55:12Z</time>
  <course>19.16</course>
  <speed>0.47853944456021597</speed>
  <fix>3d</fix>
</trkpt>
<trkpt lat="-27.2740822" lon="151.2900803">
  <ele>344.55</ele>
  <time>2026-09-01T19:55:12Z</time>
  <course>170.96</course>
  <speed>0.33</speed>
  <fix>3d</fix>
</trkpt>
<trkpt lat="-27.2740831" lon="151.29008">
  <ele>344.77</ele>
  <time>2026-09-01T19:55:12Z</time>
  <course>19.19</course>
  <speed>0.47853944456021597</speed>
  <fix>3d</fix>
</trkpt>
<trkpt lat="-27.2740744" lon="151.2900806">
  <ele>342.0</ele>
  <time>2026-09-01T19:55:12Z</time>
  <course>4.65</course>
  <speed>0.9932270636667125</speed>
  <fix>3d</fix>
</trkpt>
<trkpt lat="-27.2740834" lon="151.29008">
  <ele>344.9</ele>
  <time>2026-09-01T19:55:12Z</time>
  <course>18.5</course>
  <speed>0.5315072906367324</speed>
  <fix>3d</fix>
</trkpt>
<trkpt lat="-27.2740822" lon="151.2900803">
  <ele>344.55</ele>
  <time>2026-09-01T19:55:12Z</time>
  <course>170.96</course>
  <speed>0.33</speed>
  <fix>3d</fix>
</trkpt>
<trkpt lat="-27.2740834" lon="151.29008">
  <ele>344.9</ele>
  <time>2026-09-01T19:55:12Z</time>
  <course>18.53</course>
  <speed>0.5315072906367324</speed>
  <fix>3d</fix>
</trkpt>
<trkpt lat="-27.2740839" lon="151.29008">
  <ele>345.02</ele>
  <time>2026-09-01T19:55:12Z</time>
  <course>19.29</course>
  <speed>0.5727128425310541</speed>
  <fix>3d</fix>
</trkpt>
<trkpt lat="-27.2740828" lon="151.2900804">
  <ele>344.84</ele>
  <time>2026-09-01T19:55:12Z</time>
  <course>180.43</course>
  <speed>0.48</speed>
  <fix>3d</fix>
</trkpt>
<trkpt lat="-27.2740839" lon="151.29008">
  <ele>345.02</ele>
  <time>2026-09-01T19:55:12Z</time>
  <course>19.3</course>
  <speed>0.5727128425310541</speed>
  <fix>3d</fix>
</trkpt>
<trkpt lat="-27.2740726" lon="151.2900808">
  <ele>342.0</ele>
  <time>2026-09-01T19:55:12Z</time>
  <course>4.67</course>
  <speed>0.9932270636667125</speed>
  <fix>3d</fix>
</trkpt>
<trkpt lat="-27.2740844" lon="151.2900799">
  <ele>345.13</ele>
  <time>2026-09-01T19:55:12Z</time>
  <course>19.63</course>
  <speed>0.6041522986797286</speed>
  <fix>3d</fix>
</trkpt>
<trkpt lat="-27.2740828" lon="151.2900804">
  <ele>344.84</ele>
  <time>2026-09-01T19:55:12Z</time>
  <course>180.43</course>
  <speed>0.48</speed>
  <fix>3d</fix>
</trkpt>
<trkpt lat="-27.2740844" lon="151.2900799">
  <ele>345.13</ele>
  <time>2026-09-01T19:55:12Z</time>
  <course>19.63</course>
  <speed>0.6041522986797286</speed>
  <fix>3d</fix>
</trkpt>
<trkpt lat="-27.2740849" lon="151.2900799">
  <ele>345.23</ele>
  <time>2026-09-01T19:55:12Z</time>
  <course>19.62</course>
  <speed>0.6334824385884742</speed>
  <fix>3d</fix>
</trkpt>
<trkpt lat="-27.2740838" lon="151.2900804">
  <ele>345.1</ele>
  <time>2026-09-01T19:55:12Z</time>
  <course>184.64</course>
  <speed>0.58</speed>
  <fix>3d</fix>
</trkpt>
<trkpt lat="-27.2740849" lon="151.2900799">
  <ele>345.23</ele>
  <time>2026-09-01T19:55:12Z</time>
  <course>19.62</course>
  <speed>0.6334824385884742</speed>
  <fix>3d</fix>
</trkpt>
<trkpt lat="-27.2740708" lon="151.290081">
  <ele>342.0</ele>
  <time>2026-09-01T19:55:12Z</time>
  <course>4.69</course>
  <speed>0.9932270636667125</speed>
  <fix>3d</fix>
</trkpt>
<trkpt lat="-27.2740855" lon="151.2900798">
  <ele>345.33</ele>
  <time>2026-09-01T19:55:12Z</time>
  <course>19.36</course>
  <speed>0.6530696746902278</speed>
  <fix>3d</fix>
</trkpt>
<trkpt lat="-27.2740838" lon="151.2900804">
  <ele>345.1</ele>
  <time>2026-09-01T19:55:12Z</time>
  <course>184.64</course>
  <speed>0.58</speed>
  <fix>3d</fix>
</trkpt>
<trkpt lat="-27.2740855" lon="151.2900798">
  <ele>345.33</ele>
  <time>2026-09-01T19:55:12Z</time>
  <course>19.35</course>
  <speed>0.6511528238439882</speed>
  <fix>3d</fix>
</trkpt>
<trkpt lat="-27.274086" lon="151.2900798">
  <ele>345.42</ele>
  <time>2026-09-01T19:55:12Z</time>
  <course>18.92</course>
  <speed>0.6609841147864296</speed>
  <fix>3d</fix>
</trkpt>
<trkpt lat="-27.2740849" lon="151.2900803">
  <ele>345.32</ele>
  <time>2026-09-01T19:55:12Z</time>
  <course>186.46</course>
  <speed>0.64</speed>
  <fix>3d</fix>
</trkpt>
<trkpt lat="-27.274086" lon="151.2900798">
  <ele>345.42</ele>
  <time>2026-09-01T19:55:12Z</time>
  <course>18.9</course>
  <speed>0.6609841147864296</speed>
  <fix>3d</fix>
</trkpt>
<trkpt lat="-27.2740691" lon="151.2900811">
  <ele>342.0</ele>
  <time>2026-09-01T19:55:12Z</time>
  <course>4.72</course>
  <speed>0.9932270636667125</speed>
  <fix>3d</fix>
</trkpt>
<trkpt lat="-27.2740866" lon="151.2900797">
  <ele>345.5</ele>
  <time>2026-09-01T19:55:12Z</time>
  <course>18.39</course>
  <speed>0.669103878332804</speed>
  <fix>3d</fix>
</trkpt>
<trkpt lat="-27.2740849" lon="151.2900803">
  <ele>345.32</ele>
  <time>2026-09-01T19:55:12Z</time>
  <course>186.46</course>
  <speed>0.64</speed>
  <fix>3d</fix>
</trkpt>
<trkpt lat="-27.2740866" lon="151.2900797">
  <ele>345.5</ele>
  <time>2026-09-01T19:55:12Z</time>
  <course>18.37</course>
  <speed>0.669103878332804</speed>
  <fix>3d</fix>
</trkpt>
<trkpt lat="-27.2740872" lon="151.2900797">
  <ele>345.59</ele>
  <time>2026-09-01T19:55:12Z</time>
  <course>17.85</course>
  <speed>0.669103878332804</speed>
  <fix>3d</fix>
</trkpt>
<trkpt lat="-27.2740861" lon="151.2900801">
  <ele>345.51</ele>
  <time>2026-09-01T19:55:12Z</time>
  <course>187.53</course>
  <speed>0.68</speed>
  <fix>3d</fix>
</trkpt>
<trkpt lat="-27.2740872" lon="151.2900797">
  <ele>345.59</ele>
  <time>2026-09-01T19:55:12Z</time>
  <course>17.83</course>
  <speed>0.669103878332804</speed>
  <fix>3d</fix>
</trkpt>
<trkpt lat="-27.2740673" lon="151.2900813">
  <ele>342.0</ele>
  <time>2026-09-01T19:55:12Z</time>
  <course>4.74</course>
  <speed>0.9932270636667125</speed>
  <fix>3d</fix>
</trkpt>
<trkpt lat="-27.2740878" lon="151.2900796">
  <ele>345.67</ele>
  <time>2026-09-01T19:55:12Z</time>
  <course>17.36</course>
  <speed>0.6576473218982953</speed>
  <fix>3d</fix>
</trkpt>
<trkpt lat="-27.2740861" lon="151.2900801">
  <ele>345.51</ele>
  <time>2026-09-01T19:55:12Z</time>
  <course>187.53</course>
  <speed>0.68</speed>
  <fix>3d</fix>
</trkpt>
<trkpt lat="-27.2740878" lon="151.2900796">
  <ele>345.67</ele>
  <time>2026-09-01T19:55:12Z</time>
  <course>17.35</course>
  <speed>0.6576473218982953</speed>
  <fix>3d</fix>
</trkpt>
<trkpt lat="-27.2740884" lon="151.2900796">
  <ele>345.75</ele>
  <time>2026-09-01T19:55:12Z</time>
  <course>16.98</course>
  <speed>0.6477653896280658</speed>
  <fix>3d</fix>
</trkpt>
<trkpt lat="-27.2740873" lon="151.29008">
  <ele>345.68</ele>
  <time>2026-09-01T19:55:12Z</time>
  <course>188.7</course>
  <speed>0.68</speed>
  <fix>3d</fix>
</trkpt>
<trkpt lat="-27.2740886" lon="151.2900795">
  <ele>345.77</ele>
  <time>2026-09-01T19:55:12Z</time>
  <course>16.9</course>
  <speed>0.6477653896280658</speed>
  <fix>3d</fix>
</trkpt>
<trkpt lat="-27.2740655" lon="151.2900815">
  <ele>342.0</ele>
  <time>2026-09-01T19:55:12Z</time>
  <course>4.76</course>
  <speed>0.9932270636667125</speed>
  <fix>3d</fix>
</trkpt>
<trkpt lat="-27.274089" lon="151.2900795">
  <ele>345.84</ele>
  <time>2026-09-01T19:55:12Z</time>
  <course>16.72</course>
  <speed>0.6378871373526824</speed>
  <fix>3d</fix>
</trkpt>
<trkpt lat="-27.2740873" lon="151.29008">
  <ele>345.68</ele>
  <time>2026-09-01T19:55:12Z</time>
  <course>188.7</course>
  <speed>0.68</speed>
  <fix>3d</fix>
</trkpt>
<trkpt lat="-27.274089" lon="151.2900795">
  <ele>345.84</ele>
  <time>2026-09-01T19:55:12Z</time>
  <course>16.72</course>
  <speed>0.6378871373526824</speed>
  <fix>3d</fix>
</trkpt>
<trkpt lat="-27.2740896" lon="151.2900794">
  <ele>345.92</ele>
  <time>2026-09-01T19:55:12Z</time>
  <course>16.6</course>
  <speed>0.6181423784210236</speed>
  <fix>3d</fix>
</trkpt>
<trkpt lat="-27.2740886" lon="151.2900798">
  <ele>345.84</ele>
  <time>2026-09-01T19:55:12Z</time>
  <course>190.44</course>
  <speed>0.67</speed>
  <fix>3d</fix>
</trkpt>
<trkpt lat="-27.2740896" lon="151.2900794">
  <ele>345.92</ele>
  <time>2026-09-01T19:55:12Z</time>
  <course>16.6</course>
  <speed>0.6181423784210236</speed>
  <fix>3d</fix>
</trkpt>
<trkpt lat="-27.2740637" lon="151.2900816">
  <ele>342.0</ele>
  <time>2026-09-01T19:55:12Z</time>
  <course>4.79</course>
  <speed>0.9932270636667125</speed>
  <fix>3d</fix>
</trkpt>
<trkpt lat="-27.2740901" lon="151.2900793">
  <ele>346.01</ele>
  <time>2026-09-01T19:55:12Z</time>
  <course>16.57</course>
  <speed>0.596824932455071</speed>
  <fix>3d</fix>
</trkpt>
<trkpt lat="-27.2740886" lon="151.2900798">
  <ele>345.84</ele>
  <time>2026-09-01T19:55:12Z</time>
  <course>190.44</course>
  <speed>0.67</speed>
  <fix>3d</fix>
</trkpt>
<trkpt lat="-27.2740901" lon="151.2900793">
  <ele>346.01</ele>
  <time>2026-09-01T19:55:12Z</time>
  <course>16.56</course>
  <speed>0.596824932455071</speed>
  <fix>3d</fix>
</trkpt>
<trkpt lat="-27.2740906" lon="151.2900793">
  <ele>346.09</ele>
  <time>2026-09-01T19:55:12Z</time>
  <course>16.39</course>
  <speed>0.5755866572463264</speed>
  <fix>3d</fix>
</trkpt>
<trkpt lat="-27.2740897" lon="151.2900795">
  <ele>346.01</ele>
  <time>2026-09-01T19:55:12Z</time>
  <course>192.59</course>
  <speed>0.64</speed>
  <fix>3d</fix>
</trkpt>
<trkpt lat="-27.2740907" lon="151.2900793">
  <ele>346.1</ele>
  <time>2026-09-01T19:55:12Z</time>
  <course>16.38</course>
  <speed>0.5755866572463264</speed>
  <fix>3d</fix>
</trkpt>
<trkpt lat="-27.2740619" lon="151.2900818">
  <ele>342.0</ele>
  <time>2026-09-01T19:55:12Z</time>
  <course>4.81</course>
  <speed>0.9932270636667125</speed>
  <fix>3d</fix>
</trkpt>
<trkpt lat="-27.2740912" lon="151.2900792">
  <ele>346.18</ele>
  <time>2026-09-01T19:55:12Z</time>
  <course>16.06</course>
  <speed>0.5532630477449222</speed>
  <fix>3d</fix>
</trkpt>
<trkpt lat="-27.2740897" lon="151.2900795">
  <ele>346.01</ele>
  <time>2026-09-01T19:55:12Z</time>
  <course>192.59</course>
  <speed>0.64</speed>
  <fix>3d</fix>
</trkpt>
<trkpt lat="-27.2740912" lon="151.2900792">
  <ele>346.18</ele>
  <time>2026-09-01T19:55:12Z</time>
  <course>16.05</course>
  <speed>0.5532630477449222</speed>
  <fix>3d</fix>
</trkpt>
<trkpt lat="-27.2740917" lon="151.2900791">
  <ele>346.27</ele>
  <time>2026-09-01T19:55:12Z</time>
  <course>15.63</course>
  <speed>0.5323532661682466</speed>
  <fix>3d</fix>
</trkpt>
<trkpt lat="-27.2740907" lon="151.2900792">
  <ele>346.19</ele>
  <time>2026-09-01T19:55:12Z</time>
  <course>193.54</course>
  <speed>0.6</speed>
  <fix>3d</fix>
</trkpt>
<trkpt lat="-27.2740917" lon="151.2900791">
  <ele>346.27</ele>
  <time>2026-09-01T19:55:12Z</time>
  <course>15.62</course>
  <speed>0.5323532661682466</speed>
  <fix>3d</fix>
</trkpt>
<trkpt lat="-27.2740601" lon="151.290082">
  <ele>342.0</ele>
  <time>2026-09-01T19:55:12Z</time>
  <course>4.83</course>
  <speed>0.9932270636667125</speed>
  <fix>3d</fix>
</trkpt>
<trkpt lat="-27.2740921" lon="151.290079">
  <ele>346.36</ele>
  <time>2026-09-01T19:55:12Z</time>
  <course>15.19</course>
  <speed>0.5115662224971466</speed>
  <fix>3d</fix>
</trkpt>
<trkpt lat="-27.2740907" lon="151.2900792">
  <ele>346.19</ele>
  <time>2026-09-01T19:55:12Z</time>
  <course>193.54</course>
  <speed>0.6</speed>
  <fix>3d</fix>
</trkpt>
<trkpt lat="-27.2740921" lon="151.290079">
  <ele>346.36</ele>
  <time>2026-09-01T19:55:12Z</time>
  <course>15.18</course>
  <speed>0.5015974481593781</speed>
  <fix>3d</fix>
</trkpt>
<trkpt lat="-27.2740926" lon="151.2900789">
  <ele>346.45</ele>
  <time>2026-09-01T19:55:12Z</time>
  <course>14.79</course>
  <speed>0.480936586256442</speed>
  <fix>3d</fix>
</trkpt>
<trkpt lat="-27.2740918" lon="151.2900789">
  <ele>346.37</ele>
  <time>2026-09-01T19:55:12Z</time>
  <course>193.03</course>
  <speed>0.54</speed>
  <fix>3d</fix>
</trkpt>
<trkpt lat="-27.2740926" lon="151.2900789">
  <ele>346.46</ele>
  <time>2026-09-01T19:55:12Z</time>
  <course>14.77</course>
  <speed>0.480936586256442</speed>
  <fix>3d</fix>
</trkpt>
<trkpt lat="-27.2740583" lon="151.2900821">
  <ele>342.0</ele>
  <time>2026-09-01T19:55:12Z</time>
  <course>4.86</course>
  <speed>0.9932270636667125</speed>
  <fix>3d</fix>
</trkpt>
<trkpt lat="-27.274093" lon="151.2900789">
  <ele>346.55</ele>
  <time>2026-09-01T19:55:12Z</time>
  <course>14.49</course>
  <speed>0.45044422518220834</speed>
  <fix>3d</fix>
</trkpt>
<trkpt lat="-27.2740918" lon="151.2900789">
  <ele>346.37</ele>
  <time>2026-09-01T19:55:12Z</time>
  <course>193.03</course>
  <speed>0.54</speed>
  <fix>3d</fix>
</trkpt>
<trkpt lat="-27.274093" lon="151.2900789">
  <ele>346.55</ele>
  <time>2026-09-01T19:55:12Z</time>
  <course>14.48</course>
  <speed>0.45044422518220834</speed>
  <fix>3d</fix>
</trkpt>
<trkpt lat="-27.2740934" lon="151.2900788">
  <ele>346.64</ele>
  <time>2026-09-01T19:55:12Z</time>
  <course>14.3</course>
  <speed>0.4201190307520001</speed>
  <fix>3d</fix>
</trkpt>
<trkpt lat="-27.2740927" lon="151.2900786">
  <ele>346.56</ele>
  <time>2026-09-01T19:55:12Z</time>
  <course>192.47</course>
  <speed>0.49</speed>
  <fix>3d</fix>
</trkpt>
<trkpt lat="-27.2740934" lon="151.2900788">
  <ele>346.65</ele>
  <time>2026-09-01T19:55:12Z</time>
  <course>14.3</course>
  <speed>0.4201190307520001</speed>
  <fix>3d</fix>
</trkpt>
<trkpt lat="-27.2740565" lon="151.2900823">
  <ele>342.0</ele>
  <time>2026-09-01T19:55:12Z</time>
  <course>4.88</course>
  <speed>0.9932270636667125</speed>
  <fix>3d</fix>
</trkpt>
<trkpt lat="-27.2740938" lon="151.2900786">
  <ele>346.74</ele>
  <time>2026-09-01T19:55:12Z</time>
  <course>14.26</course>
  <speed>0.3901281840626232</speed>
  <fix>3d</fix>
</trkpt>
<trkpt lat="-27.2740927" lon="151.2900786">
  <ele>346.56</ele>
  <time>2026-09-01T19:55:12Z</time>
  <course>192.47</course>
  <speed>0.49</speed>
  <fix>3d</fix>
</trkpt>
<trkpt lat="-27.2740938" lon="151.2900786">
  <ele>346.75</ele>
  <time>2026-09-01T19:55:12Z</time>
  <course>14.26</course>
  <speed>0.3901281840626232</speed>
  <fix>3d</fix>
</trkpt>
<trkpt lat="-27.2740941" lon="151.2900786">
  <ele>346.84</ele>
  <time>2026-09-01T19:55:12Z</time>
  <course>14.32</course>
  <speed>0.36013886210738216</speed>
  <fix>3d</fix>
</trkpt>
<trkpt lat="-27.2740935" lon="151.2900785">
  <ele>346.75</ele>
  <time>2026-09-01T19:55:12Z</time>
  <course>192.15</course>
  <speed>0.43</speed>
  <fix>3d</fix>
</trkpt>
<trkpt lat="-27.2740941" lon="151.2900786">
  <ele>346.85</ele>
  <time>2026-09-01T19:55:12Z</time>
  <course>14.33</course>
  <speed>0.36013886210738216</speed>
  <fix>3d</fix>
</trkpt>
<trkpt lat="-27.2740547" lon="151.2900825">
  <ele>341.999</ele>
  <time>2026-09-01T19:55:12Z</time>
  <course>4.9</course>
  <speed>0.9932270636667125</speed>
  <fix>3d</fix>
</trkpt>
<trkpt lat="-27.2740944" lon="151.2900785">
  <ele>346.94</ele>
  <time>2026-09-01T19:55:12Z</time>
  <course>14.48</course>
  <speed>0.33</speed>
  <fix>3d</fix>
</trkpt>
<trkpt lat="-27.2740935" lon="151.2900785">
  <ele>346.75</ele>
  <time>2026-09-01T19:55:12Z</time>
  <course>192.15</course>
  <speed>0.43</speed>
  <fix>3d</fix>
</trkpt>
<trkpt lat="-27.2740944" lon="151.2900785">
  <ele>346.94</ele>
  <time>2026-09-01T19:55:12Z</time>
  <course>14.49</course>
  <speed>0.33</speed>
  <fix>3d</fix>
</trkpt>
<trkpt lat="-27.2740947" lon="151.2900785">
  <ele>347.04</ele>
  <time>2026-09-01T19:55:12Z</time>
  <course>14.68</course>
  <speed>0.3</speed>
  <fix>3d</fix>
</trkpt>
<trkpt lat="-27.2740942" lon="151.2900783">
  <ele>346.95</ele>
  <time>2026-09-01T19:55:12Z</time>
  <course>192.19</course>
  <speed>0.36</speed>
  <fix>3d</fix>
</trkpt>
<trkpt lat="-27.2740948" lon="151.2900785">
  <ele>347.07</ele>
  <time>2026-09-01T19:55:12Z</time>
  <course>14.73</course>
  <speed>0.3</speed>
  <fix>3d</fix>
</trkpt>
<trkpt lat="-27.2740529" lon="151.2900827">
  <ele>342.0</ele>
  <time>2026-09-01T19:55:12Z</time>
  <course>4.92</course>
  <speed>0.9932270636667125</speed>
  <fix>3d</fix>
</trkpt>
<trkpt lat="-27.274095" lon="151.2900784">
  <ele>347.14</ele>
  <time>2026-09-01T19:55:12Z</time>
  <course>14.89</course>
  <speed>0.27</speed>
  <fix>3d</fix>
</trkpt>
<trkpt lat="-27.2740942" lon="151.2900783">
  <ele>346.95</ele>
  <time>2026-09-01T19:55:12Z</time>
  <course>192.19</course>
  <speed>0.36</speed>
  <fix>3d</fix>
</trkpt>
<trkpt lat="-27.274095" lon="151.2900784">
  <ele>347.14</ele>
  <time>2026-09-01T19:55:12Z</time>
  <course>14.89</course>
  <speed>0.27</speed>
  <fix>3d</fix>
</trkpt>
<trkpt lat="-27.2740952" lon="151.2900783">
  <ele>347.24</ele>
  <time>2026-09-01T19:55:12Z</time>
  <course>15.05</course>
  <speed>0.25</speed>
  <fix>3d</fix>
</trkpt>
<trkpt lat="-27.2740948" lon="151.2900781">
  <ele>347.15</ele>
  <time>2026-09-01T19:55:12Z</time>
  <course>192.56</course>
  <speed>0.3</speed>
  <fix>3d</fix>
</trkpt>
<trkpt lat="-27.2740952" lon="151.2900783">
  <ele>347.24</ele>
  <time>2026-09-01T19:55:12Z</time>
  <course>15.06</course>
  <speed>0.24</speed>
  <fix>3d</fix>
</trkpt>
<trkpt lat="-27.2740511" lon="151.2900828">
  <ele>342.0</ele>
  <time>2026-09-01T19:55:12Z</time>
  <course>4.95</course>
  <speed>0.9932270636667125</speed>
  <fix>3d</fix>
</trkpt>
<trkpt lat="-27.2740954" lon="151.2900783">
  <ele>347.34</ele>
  <time>2026-09-01T19:55:12Z</time>
  <course>15.17</course>
  <speed>0.22</speed>
  <fix>3d</fix>
</trkpt>
<trkpt lat="-27.2740948" lon="151.2900781">
  <ele>347.15</ele>
  <time>2026-09-01T19:55:12Z</time>
  <course>192.56</course>
  <speed>0.3</speed>
  <fix>3d</fix>
</trkpt>
<trkpt lat="-27.2740954" lon="151.2900783">
  <ele>347.34</ele>
  <time>2026-09-01T19:55:12Z</time>
  <course>15.18</course>
  <speed>0.22</speed>
  <fix>3d</fix>
</trkpt>
<trkpt lat="-27.2740956" lon="151.2900782">
  <ele>347.44</ele>
  <time>2026-09-01T19:55:12Z</time>
  <course>15.23</course>
  <speed>0.19</speed>
  <fix>3d</fix>
</trkpt>
<trkpt lat="-27.2740953" lon="151.290078">
  <ele>347.35</ele>
  <time>2026-09-01T19:55:12Z</time>
  <course>192.97</course>
  <speed>0.24</speed>
  <fix>3d</fix>
</trkpt>
<trkpt lat="-27.2740956" lon="151.2900782">
  <ele>347.44</ele>
  <time>2026-09-01T19:55:12Z</time>
  <course>15.23</course>
  <speed>0.19</speed>
  <fix>3d</fix>
</trkpt>
<trkpt lat="-27.2740493" lon="151.290083">
  <ele>341.999</ele>
  <time>2026-09-01T19:55:12Z</time>
  <course>4.97</course>
  <speed>0.9932270636667125</speed>
  <fix>3d</fix>
</trkpt>
<trkpt lat="-27.2740958" lon="151.2900782">
  <ele>347.53</ele>
  <time>2026-09-01T19:55:12Z</time>
  <course>15.23</course>
  <speed>0.16031219541881397</speed>
  <fix>3d</fix>
</trkpt>
<trkpt lat="-27.2740953" lon="151.290078">
  <ele>347.35</ele>
  <time>2026-09-01T19:55:12Z</time>
  <course>192.97</course>
  <speed>0.24</speed>
  <fix>3d</fix>
</trkpt>
<trkpt lat="-27.2740958" lon="151.2900782">
  <ele>347.54</ele>
  <time>2026-09-01T19:55:12Z</time>
  <course>15.23</course>
  <speed>0.16031219541881397</speed>
  <fix>3d</fix>
</trkpt>
<trkpt lat="-27.2740959" lon="151.2900781">
  <ele>347.63</ele>
  <time>2026-09-01T19:55:12Z</time>
  <course>15.19</course>
  <speed>0.130384048104053</speed>
  <fix>3d</fix>
</trkpt>
<trkpt lat="-27.2740956" lon="151.2900779">
  <ele>347.54</ele>
  <time>2026-09-01T19:55:12Z</time>
  <course>193.29</course>
  <speed>0.18</speed>
  <fix>3d</fix>
</trkpt>
<trkpt lat="-27.2740959" lon="151.2900781">
  <ele>347.63</ele>
  <time>2026-09-01T19:55:12Z</time>
  <course>15.19</course>
  <speed>0.130384048104053</speed>
  <fix>3d</fix>
</trkpt>
<trkpt lat="-27.2740475" lon="151.2900832">
  <ele>342.0</ele>
  <time>2026-09-01T19:55:12Z</time>
  <course>4.99</course>
  <speed>0.9932270636667125</speed>
  <fix>3d</fix>
</trkpt>
<trkpt lat="-27.274096" lon="151.290078">
  <ele>347.72</ele>
  <time>2026-09-01T19:55:12Z</time>
  <course>15.12</course>
  <speed>0.1118033988749895</speed>
  <fix>3d</fix>
</trkpt>
<trkpt lat="-27.2740956" lon="151.2900779">
  <ele>347.54</ele>
  <time>2026-09-01T19:55:12Z</time>
  <course>193.29</course>
  <speed>0.18</speed>
  <fix>3d</fix>
</trkpt>
<trkpt lat="-27.274096" lon="151.290078">
  <ele>347.74</ele>
  <time>2026-09-01T19:55:12Z</time>
  <course>15.11</course>
  <speed>0.1019803902718557</speed>
  <fix>3d</fix>
</trkpt>
<trkpt lat="-27.2740961" lon="151.290078">
  <ele>347.81</ele>
  <time>2026-09-01T19:55:12Z</time>
  <course>15.04</course>
  <speed>0.0824621125123532</speed>
  <fix>3d</fix>
</trkpt>
<trkpt lat="-27.274096" lon="151.2900779">
  <ele>347.73</ele>
  <time>2026-09-01T19:55:12Z</time>
  <course>193.51</course>
  <speed>0.12</speed>
  <fix>3d</fix>
</trkpt>
<trkpt lat="-27.2740961" lon="151.290078">
  <ele>347.83</ele>
  <time>2026-09-01T19:55:12Z</time>
  <course>15.03</course>
  <speed>0.0824621125123532</speed>
  <fix>3d</fix>
</trkpt>
<trkpt lat="-27.2740457" lon="151.2900834">
  <ele>342.0</ele>
  <time>2026-09-01T19:55:12Z</time>
  <course>5.02</course>
  <speed>0.9932270636667125</speed>
  <fix>3d</fix>
</trkpt>
<trkpt lat="-27.2740961" lon="151.290078">
  <ele>347.9</ele>
  <time>2026-09-01T19:55:12Z</time>
  <course>14.97</course>
  <speed>0.0670820393249937</speed>
  <fix>3d</fix>
</trkpt>
<trkpt lat="-27.274096" lon="151.2900779">
  <ele>347.73</ele>
  <time>2026-09-01T19:55:12Z</time>
  <course>193.51</course>
  <speed>0.12</speed>
  <fix>3d</fix>
</trkpt>
<trkpt lat="-27.2740961" lon="151.290078">
  <ele>347.9</ele>
  <time>2026-09-01T19:55:12Z</time>
  <course>14.97</course>
  <speed>0.0670820393249937</speed>
  <fix>3d</fix>
</trkpt>
<trkpt lat="-27.2740962" lon="151.290078">
  <ele>347.99</ele>
  <time>2026-09-01T19:55:12Z</time>
  <course>14.91</course>
  <speed>0.05</speed>
  <fix>3d</fix>
</trkpt>
<trkpt lat="-27.2740961" lon="151.2900778">
  <ele>347.91</ele>
  <time>2026-09-01T19:55:12Z</time>
  <course>193.71</course>
  <speed>0.07</speed>
  <fix>3d</fix>
</trkpt>
<trkpt lat="-27.2740962" lon="151.290078">
  <ele>348.01</ele>
  <time>2026-09-01T19:55:12Z</time>
  <course>14.91</course>
  <speed>0.04242640687119285</speed>
  <fix>3d</fix>
</trkpt>
<trkpt lat="-27.2740439" lon="151.2900835">
  <ele>342.0</ele>
  <time>2026-09-01T19:55:12Z</time>
  <course>5.04</course>
  <speed>0.9932270636667125</speed>
  <fix>3d</fix>
</trkpt>
<trkpt lat="-27.2740962" lon="151.290078">
  <ele>348.08</ele>
  <time>2026-09-01T19:55:12Z</time>
  <course>14.9</course>
  <speed>0.0412310562561766</speed>
  <fix>3d</fix>
</trkpt>
<trkpt lat="-27.2740961" lon="151.2900778">
  <ele>347.91</ele>
  <time>2026-09-01T19:55:12Z</time>
  <course>193.71</course>
  <speed>0.07</speed>
  <fix>3d</fix>
</trkpt>
<trkpt lat="-27.2740962" lon="151.290078">
  <ele>348.08</ele>
  <time>2026-09-01T19:55:12Z</time>
  <course>14.9</course>
  <speed>0.0412310562561766</speed>
  <fix>3d</fix>
</trkpt>
<trkpt lat="-27.2740962" lon="151.290078">
  <ele>348.16</ele>
  <time>2026-09-01T19:55:12Z</time>
  <course>14.91</course>
  <speed>0.04</speed>
  <fix>3d</fix>
</trkpt>
<trkpt lat="-27.2740962" lon="151.2900778">
  <ele>348.1</ele>
  <time>2026-09-01T19:55:12Z</time>
  <course>195.18</course>
  <speed>0.02</speed>
  <fix>3d</fix>
</trkpt>
<trkpt lat="-27.2740962" lon="151.290078">
  <ele>348.17</ele>
  <time>2026-09-01T19:55:12Z</time>
  <course>14.91</course>
  <speed>0.04</speed>
  <fix>3d</fix>
</trkpt>
<trkpt lat="-27.2740421" lon="151.2900837">
  <ele>342.0</ele>
  <time>2026-09-01T19:55:12Z</time>
  <course>5.06</course>
  <speed>0.9932270636667125</speed>
  <fix>3d</fix>
</trkpt>
<trkpt lat="-27.2740962" lon="151.290078">
  <ele>348.25</ele>
  <time>2026-09-01T19:55:12Z</time>
  <course>14.95</course>
  <speed>0.044721359549995794</speed>
  <fix>3d</fix>
</trkpt>
<trkpt lat="-27.2740962" lon="151.2900778">
  <ele>348.1</ele>
  <time>2026-09-01T19:55:12Z</time>
  <course>195.18</course>
  <speed>0.02</speed>
  <fix>3d</fix>
</trkpt>
<trkpt lat="-27.2740962" lon="151.290078">
  <ele>348.25</ele>
  <time>2026-09-01T19:55:12Z</time>
  <course>14.95</course>
  <speed>0.044721359549995794</speed>
  <fix>3d</fix>
</trkpt>
<trkpt lat="-27.2740961" lon="151.290078">
  <ele>348.34</ele>
  <time>2026-09-01T19:55:12Z</time>
  <course>15.0</course>
  <speed>0.06403124237432849</speed>
  <fix>3d</fix>
</trkpt>
<trkpt lat="-27.2740962" lon="151.2900778">
  <ele>348.27</ele>
  <time>2026-09-01T19:55:12Z</time>
  <course>8.8</course>
  <speed>0.02</speed>
  <fix>3d</fix>
</trkpt>
<trkpt lat="-27.2740961" lon="151.290078">
  <ele>348.36</ele>
  <time>2026-09-01T19:55:12Z</time>
  <course>15.01</course>
  <speed>0.07071067811865475</speed>
  <fix>3d</fix>
</trkpt>
<trkpt lat="-27.2740404" lon="151.2900839">
  <ele>342.0</ele>
  <time>2026-09-01T19:55:12Z</time>
  <course>5.08</course>
  <speed>0.9932270636667125</speed>
  <fix>3d</fix>
</trkpt>
<trkpt lat="-27.2740961" lon="151.290078">
  <ele>348.42</ele>
  <time>2026-09-01T19:55:12Z</time>
  <course>15.06</course>
  <speed>0.08602325267042626</speed>
  <fix>3d</fix>
</trkpt>
<trkpt lat="-27.2740962" lon="151.2900778">
  <ele>348.27</ele>
  <time>2026-09-01T19:55:12Z</time>
  <course>8.8</course>
  <speed>0.02</speed>
  <fix>3d</fix>
</trkpt>
<trkpt lat="-27.2740961" lon="151.290078">
  <ele>348.42</ele>
  <time>2026-09-01T19:55:12Z</time>
  <course>15.06</course>
  <speed>0.08602325267042626</speed>
  <fix>3d</fix>
</trkpt>
<trkpt lat="-27.274096" lon="151.290078">
  <ele>348.51</ele>
  <time>2026-09-01T19:55:12Z</time>
  <course>15.1</course>
  <speed>0.10295630140987001</speed>
  <fix>3d</fix>
</trkpt>
<trkpt lat="-27.2740961" lon="151.2900778">
  <ele>348.45</ele>
  <time>2026-09-01T19:55:12Z</time>
  <course>9.67</course>
  <speed>0.07</speed>
  <fix>3d</fix>
</trkpt>
<trkpt lat="-27.274096" lon="151.290078">
  <ele>348.51</ele>
  <time>2026-09-01T19:55:12Z</time>
  <course>15.1</course>
  <speed>0.10295630140987001</speed>
  <fix>3d</fix>
</trkpt>
<trkpt lat="-27.2740386" lon="151.2900841">
  <ele>342.0</ele>
  <time>2026-09-01T19:55:12Z</time>
  <course>5.11</course>
  <speed>0.9932270636667125</speed>
  <fix>3d</fix>
</trkpt>
<trkpt lat="-27.2740959" lon="151.290078">
  <ele>348.6</ele>
  <time>2026-09-01T19:55:12Z</time>
  <course>15.14</course>
  <speed>0.12083045973594572</speed>
  <fix>3d</fix>
</trkpt>
<trkpt lat="-27.2740961" lon="151.2900778">
  <ele>348.45</ele>
  <time>2026-09-01T19:55:12Z</time>
  <course>9.67</course>
  <speed>0.07</speed>
  <fix>3d</fix>
</trkpt>
<trkpt lat="-27.2740959" lon="151.290078">
  <ele>348.6</ele>
  <time>2026-09-01T19:55:12Z</time>
  <course>15.14</course>
  <speed>0.12083045973594572</speed>
  <fix>3d</fix>
</trkpt>
<trkpt lat="-27.2740958" lon="151.290078">
  <ele>348.68</ele>
  <time>2026-09-01T19:55:12Z</time>
  <course>15.16</course>
  <speed>0.1341640786499874</speed>
  <fix>3d</fix>
</trkpt>
<trkpt lat="-27.274096" lon="151.2900779">
  <ele>348.63</ele>
  <time>2026-09-01T19:55:12Z</time>
  <course>10.02</course>
  <speed>0.11</speed>
  <fix>3d</fix>
</trkpt>
<trkpt lat="-27.2740958" lon="151.290078">
  <ele>348.73</ele>
  <time>2026-09-01T19:55:12Z</time>
  <course>15.17</course>
  <speed>0.14317821063276354</speed>
  <fix>3d</fix>
</trkpt>
<trkpt lat="-27.2740368" lon="151.2900842">
  <ele>342.0</ele>
  <time>2026-09-01T19:55:12Z</time>
  <course>5.13</course>
  <speed>0.9932270636667125</speed>
  <fix>3d</fix>
</trkpt>
<trkpt lat="-27.2740957" lon="151.2900781">
  <ele>348.77</ele>
  <time>2026-09-01T19:55:12Z</time>
  <course>15.18</course>
  <speed>0.15231546211727817</speed>
  <fix>3d</fix>
</trkpt>
<trkpt lat="-27.274096" lon="151.2900779">
  <ele>348.63</ele>
  <time>2026-09-01T19:55:12Z</time>
  <course>10.02</course>
  <speed>0.11</speed>
  <fix>3d</fix>
</trkpt>
<trkpt lat="-27.2740957" lon="151.2900781">
  <ele>348.78</ele>
  <time>2026-09-01T19:55:12Z</time>
  <course>15.18</course>
  <speed>0.15231546211727817</speed>
  <fix>3d</fix>
</trkpt>
<trkpt lat="-27.2740956" lon="151.2900781">
  <ele>348.86</ele>
  <time>2026-09-01T19:55:12Z</time>
  <course>15.18</course>
  <speed>0.1708800749063506</speed>
  <fix>3d</fix>
</trkpt>
<trkpt lat="-27.2740958" lon="151.2900779">
  <ele>348.81</ele>
  <time>2026-09-01T19:55:12Z</time>
  <course>10.3</course>
  <speed>0.15</speed>
  <fix>3d</fix>
</trkpt>
<trkpt lat="-27.2740955" lon="151.2900781">
  <ele>348.88</ele>
  <time>2026-09-01T19:55:12Z</time>
  <course>15.18</course>
  <speed>0.1708800749063506</speed>
  <fix>3d</fix>
</trkpt>
<trkpt lat="-27.274035" lon="151.2900844">
  <ele>342.0</ele>
  <time>2026-09-01T19:55:12Z</time>
  <course>5.15</course>
  <speed>0.9932270636667125</speed>
  <fix>3d</fix>
</trkpt>
<trkpt lat="-27.2740954" lon="151.2900781">
  <ele>348.95</ele>
  <time>2026-09-01T19:55:12Z</time>
  <course>15.18</course>
  <speed>0.18027756377319945</speed>
  <fix>3d</fix>
</trkpt>
<trkpt lat="-27.2740958" lon="151.2900779">
  <ele>348.81</ele>
  <time>2026-09-01T19:55:12Z</time>
  <course>10.3</course>
  <speed>0.15</speed>
  <fix>3d</fix>
</trkpt>
<trkpt lat="-27.2740954" lon="151.2900781">
  <ele>348.96</ele>
  <time>2026-09-01T19:55:12Z</time>
  <course>15.18</course>
  <speed>0.18027756377319945</speed>
  <fix>3d</fix>
</trkpt>
<trkpt lat="-27.2740952" lon="151.2900782">
  <ele>349.05</ele>
  <time>2026-09-01T19:55:12Z</time>
  <course>15.17</course>
  <speed>0.20248456731316586</speed>
  <fix>3d</fix>
</trkpt>
<trkpt lat="-27.2740955" lon="151.2900779">
  <ele>348.99</ele>
  <time>2026-09-01T19:55:12Z</time>
  <course>10.36</course>
  <speed>0.19</speed>
  <fix>3d</fix>
</trkpt>
<trkpt lat="-27.2740952" lon="151.2900782">
  <ele>349.07</ele>
  <time>2026-09-01T19:55:12Z</time>
  <course>15.17</course>
  <speed>0.20248456731316586</speed>
  <fix>3d</fix>
</trkpt>
<trkpt lat="-27.2740332" lon="151.2900846">
  <ele>342.0</ele>
  <time>2026-09-01T19:55:12Z</time>
  <course>5.18</course>
  <speed>0.9940824915468535</speed>
  <fix>3d</fix>
</trkpt>
<trkpt lat="-27.274095" lon="151.2900782">
  <ele>349.14</ele>
  <time>2026-09-01T19:55:12Z</time>
  <course>15.16</course>
  <speed>0.21189620100417092</speed>
  <fix>3d</fix>
</trkpt>
<trkpt lat="-27.2740955" lon="151.2900779">
  <ele>348.99</ele>
  <time>2026-09-01T19:55:12Z</time>
  <course>10.36</course>
  <speed>0.19</speed>
  <fix>3d</fix>
</trkpt>
<trkpt lat="-27.274095" lon="151.2900782">
  <ele>349.14</ele>
  <time>2026-09-01T19:55:12Z</time>
  <course>15.16</course>
  <speed>0.21189620100417092</speed>
  <fix>3d</fix>
</trkpt>
<trkpt lat="-27.2740948" lon="151.2900782">
  <ele>349.24</ele>
  <time>2026-09-01T19:55:12Z</time>
  <course>15.15</course>
  <speed>0.22135943621178655</speed>
  <fix>3d</fix>
</trkpt>
<trkpt lat="-27.2740951" lon="151.2900779">
  <ele>349.16</ele>
  <time>2026-09-01T19:55:12Z</time>
  <course>10.42</course>
  <speed>0.22</speed>
  <fix>3d</fix>
</trkpt>
<trkpt lat="-27.2740948" lon="151.2900782">
  <ele>349.26</ele>
  <time>2026-09-01T19:55:12Z</time>
  <course>15.15</course>
  <speed>0.22135943621178655</speed>
  <fix>3d</fix>
</trkpt>
<trkpt lat="-27.2740314" lon="151.2900848">
  <ele>342.0</ele>
  <time>2026-09-01T19:55:12Z</time>
  <course>5.2</course>
  <speed>0.9940824915468535</speed>
  <fix>3d</fix>
</trkpt>
<trkpt lat="-27.2740946" lon="151.2900783">
  <ele>349.33</ele>
  <time>2026-09-01T19:55:12Z</time>
  <course>15.14</course>
  <speed>0.2308679276123039</speed>
  <fix>3d</fix>
</trkpt>
<trkpt lat="-27.2740951" lon="151.2900779">
  <ele>349.16</ele>
  <time>2026-09-01T19:55:12Z</time>
  <course>10.42</course>
  <speed>0.22</speed>
  <fix>3d</fix>
</trkpt>
<trkpt lat="-27.2740946" lon="151.2900783">
  <ele>349.33</ele>
  <time>2026-09-01T19:55:12Z</time>
  <course>15.14</course>
  <speed>0.2308679276123039</speed>
  <fix>3d</fix>
</trkpt>
<trkpt lat="-27.2740944" lon="151.2900783">
  <ele>349.42</ele>
  <time>2026-09-01T19:55:12Z</time>
  <course>15.14</course>
  <speed>0.24041630560342614</speed>
  <fix>3d</fix>
</trkpt>
<trkpt lat="-27.2740947" lon="151.290078">
  <ele>349.35</ele>
  <time>2026-09-01T19:55:12Z</time>
  <course>10.5</course>
  <speed>0.24</speed>
  <fix>3d</fix>
</trkpt>
<trkpt lat="-27.2740944" lon="151.2900783">
  <ele>349.45</ele>
  <time>2026-09-01T19:55:12Z</time>
  <course>15.14</course>
  <speed>0.24041630560342614</speed>
  <fix>3d</fix>
</trkpt>
<trkpt lat="-27.2740296" lon="151.290085">
  <ele>341.999</ele>
  <time>2026-09-01T19:55:12Z</time>
  <course>5.22</course>
  <speed>0.9940824915468535</speed>
  <fix>3d</fix>
</trkpt>
<trkpt lat="-27.2740942" lon="151.2900783">
  <ele>349.52</ele>
  <time>2026-09-01T19:55:12Z</time>
  <course>15.14</course>
  <speed>0.24041630560342614</speed>
  <fix>3d</fix>
</trkpt>
<trkpt lat="-27.2740947" lon="151.290078">
  <ele>349.35</ele>
  <time>2026-09-01T19:55:12Z</time>
  <course>10.5</course>
  <speed>0.24</speed>
  <fix>3d</fix>
</trkpt>
<trkpt lat="-27.2740942" lon="151.2900783">
  <ele>349.52</ele>
  <time>2026-09-01T19:55:12Z</time>
  <course>15.14</course>
  <speed>0.24041630560342614</speed>
  <fix>3d</fix>
</trkpt>
<trkpt lat="-27.274094" lon="151.2900784">
  <ele>349.61</ele>
  <time>2026-09-01T19:55:12Z</time>
  <course>15.15</course>
  <speed>0.25</speed>
  <fix>3d</fix>
</trkpt>
<trkpt lat="-27.2740942" lon="151.2900781">
  <ele>349.54</ele>
  <time>2026-09-01T19:55:12Z</time>
  <course>10.56</course>
  <speed>0.26</speed>
  <fix>3d</fix>
</trkpt>
<trkpt lat="-27.2740939" lon="151.2900784">
  <ele>349.62</ele>
  <time>2026-09-01T19:55:12Z</time>
  <course>15.15</course>
  <speed>0.25</speed>
  <fix>3d</fix>
</trkpt>
<trkpt lat="-27.2740278" lon="151.2900852">
  <ele>342.0</ele>
  <time>2026-09-01T19:55:12Z</time>
  <course>5.24</course>
  <speed>0.9940824915468535</speed>
  <fix>3d</fix>
</trkpt>
<trkpt lat="-27.2740937" lon="151.2900784">
  <ele>349.7</ele>
  <time>2026-09-01T19:55:12Z</time>
  <course>15.16</course>
  <speed>0.25</speed>
  <fix>3d</fix>
</trkpt>
<trkpt lat="-27.2740942" lon="151.2900781">
  <ele>349.54</ele>
  <time>2026-09-01T19:55:12Z</time>
  <course>10.56</course>
  <speed>0.26</speed>
  <fix>3d</fix>
</trkpt>
<trkpt lat="-27.2740937" lon="151.2900784">
  <ele>349.7</ele>
  <time>2026-09-01T19:55:12Z</time>
  <course>15.16</course>
  <speed>0.25</speed>
  <fix>3d</fix>
</trkpt>
<trkpt lat="-27.2740935" lon="151.2900785">
  <ele>349.79</ele>
  <time>2026-09-01T19:55:12Z</time>
  <course>15.17</course>
  <speed>0.2596150997149434</speed>
  <fix>3d</fix>
</trkpt>
<trkpt lat="-27.2740937" lon="151.2900782">
  <ele>349.72</ele>
  <time>2026-09-01T19:55:12Z</time>
  <course>10.67</course>
  <speed>0.27</speed>
  <fix>3d</fix>
</trkpt>
<trkpt lat="-27.2740934" lon="151.2900785">
  <ele>349.81</ele>
  <time>2026-09-01T19:55:12Z</time>
  <course>15.17</course>
  <speed>0.2596150997149434</speed>
  <fix>3d</fix>
</trkpt>
<trkpt lat="-27.2740261" lon="151.2900853">
  <ele>341.999</ele>
  <time>2026-09-01T19:55:12Z</time>
  <course>5.27</course>
  <speed>0.9940824915468535</speed>
  <fix>3d</fix>
</trkpt>
<trkpt lat="-27.2740932" lon="151.2900785">
  <ele>349.88</ele>
  <time>2026-09-01T19:55:12Z</time>
  <course>15.18</course>
  <speed>0.2596150997149434</speed>
  <fix>3d</fix>
</trkpt>
<trkpt lat="-27.2740937" lon="151.2900782">
  <ele>349.72</ele>
  <time>2026-09-01T19:55:12Z</time>
  <course>10.67</course>
  <speed>0.27</speed>
  <fix>3d</fix>
</trkpt>
<trkpt lat="-27.2740932" lon="151.2900785">
  <ele>349.89</ele>
  <time>2026-09-01T19:55:12Z</time>
  <course>15.18</course>
  <speed>0.2596150997149434</speed>
  <fix>3d</fix>
</trkpt>
<trkpt lat="-27.274093" lon="151.2900786">
  <ele>349.97</ele>
  <time>2026-09-01T19:55:12Z</time>
  <course>15.19</course>
  <speed>0.2596150997149434</speed>
  <fix>3d</fix>
</trkpt>
<trkpt lat="-27.2740932" lon="151.2900783">
  <ele>349.9</ele>
  <time>2026-09-01T19:55:12Z</time>
  <course>10.79</course>
  <speed>0.28</speed>
  <fix>3d</fix>
</trkpt>
<trkpt lat="-27.274093" lon="151.2900786">
  <ele>349.97</ele>
  <time>2026-09-01T19:55:12Z</time>
  <course>15.19</course>
  <speed>0.2596150997149434</speed>
  <fix>3d</fix>
</trkpt>
<trkpt lat="-27.2740243" lon="151.2900855">
  <ele>341.999</ele>
  <time>2026-09-01T19:55:12Z</time>
  <course>5.29</course>
  <speed>0.9940824915468535</speed>
  <fix>3d</fix>
</trkpt>
<trkpt lat="-27.2740927" lon="151.2900786">
  <ele>350.06</ele>
  <time>2026-09-01T19:55:12Z</time>
  <course>15.2</course>
  <speed>0.2596150997149434</speed>
  <fix>3d</fix>
</trkpt>
<trkpt lat="-27.2740932" lon="151.2900783">
  <ele>349.9</ele>
  <time>2026-09-01T19:55:12Z</time>
  <course>10.79</course>
  <speed>0.28</speed>
  <fix>3d</fix>
</trkpt>
<trkpt lat="-27.2740927" lon="151.2900786">
  <ele>350.06</ele>
  <time>2026-09-01T19:55:12Z</time>
  <course>15.2</course>
  <speed>0.2596150997149434</speed>
  <fix>3d</fix>
</trkpt>
<trkpt lat="-27.2740925" lon="151.2900786">
  <ele>350.15</ele>
  <time>2026-09-01T19:55:12Z</time>
  <course>15.21</course>
  <speed>0.2596150997149434</speed>
  <fix>3d</fix>
</trkpt>
<trkpt lat="-27.2740927" lon="151.2900784">
  <ele>350.08</ele>
  <time>2026-09-01T19:55:12Z</time>
  <course>10.87</course>
  <speed>0.29</speed>
  <fix>3d</fix>
</trkpt>
<trkpt lat="-27.2740924" lon="151.2900787">
  <ele>350.17</ele>
  <time>2026-09-01T19:55:12Z</time>
  <course>15.21</course>
  <speed>0.2596150997149434</speed>
  <fix>3d</fix>
</trkpt>
<trkpt lat="-27.2740225" lon="151.2900857">
  <ele>342.0</ele>
  <time>2026-09-01T19:55:12Z</time>
  <course>5.31</course>
  <speed>0.9940824915468535</speed>
  <fix>3d</fix>
</trkpt>
<trkpt lat="-27.2740922" lon="151.2900787">
  <ele>350.24</ele>
  <time>2026-09-01T19:55:12Z</time>
  <course>15.22</course>
  <speed>0.25</speed>
  <fix>3d</fix>
</trkpt>
<trkpt lat="-27.2740927" lon="151.2900784">
  <ele>350.08</ele>
  <time>2026-09-01T19:55:12Z</time>
  <course>10.87</course>
  <speed>0.29</speed>
  <fix>3d</fix>
</trkpt>
<trkpt lat="-27.2740922" lon="151.2900787">
  <ele>350.24</ele>
  <time>2026-09-01T19:55:12Z</time>
  <course>15.22</course>
  <speed>0.25</speed>
  <fix>3d</fix>
</trkpt>
<trkpt lat="-27.274092" lon="151.2900787">
  <ele>350.33</ele>
  <time>2026-09-01T19:55:12Z</time>
  <course>15.23</course>
  <speed>0.24738633753705963</speed>
  <fix>3d</fix>
</trkpt>
<trkpt lat="-27.2740922" lon="151.2900785">
  <ele>350.26</ele>
  <time>2026-09-01T19:55:12Z</time>
  <course>11.07</course>
  <speed>0.28</speed>
  <fix>3d</fix>
</trkpt>
<trkpt lat="-27.2740919" lon="151.2900788">
  <ele>350.35</ele>
  <time>2026-09-01T19:55:12Z</time>
  <course>15.23</course>
  <speed>0.24738633753705963</speed>
  <fix>3d</fix>
</trkpt>
<trkpt lat="-27.2740207" lon="151.2900859">
  <ele>342.0</ele>
  <time>2026-09-01T19:55:12Z</time>
  <course>5.34</course>
  <speed>0.9940824915468535</speed>
  <fix>3d</fix>
</trkpt>
<trkpt lat="-27.2740917" lon="151.2900788">
  <ele>350.42</ele>
  <time>2026-09-01T19:55:12Z</time>
  <course>15.24</course>
  <speed>0.23769728648009425</speed>
  <fix>3d</fix>
</trkpt>
<trkpt lat="-27.2740922" lon="151.2900785">
  <ele>350.26</ele>
  <time>2026-09-01T19:55:12Z</time>
  <course>11.07</course>
  <speed>0.28</speed>
  <fix>3d</fix>
</trkpt>
<trkpt lat="-27.2740917" lon="151.2900788">
  <ele>350.42</ele>
  <time>2026-09-01T19:55:12Z</time>
  <course>15.24</course>
  <speed>0.23769728648009425</speed>
  <fix>3d</fix>
</trkpt>
<trkpt lat="-27.2740915" lon="151.2900788">
  <ele>350.51</ele>
  <time>2026-09-01T19:55:12Z</time>
  <course>15.25</course>
  <speed>0.23769728648009425</speed>
  <fix>3d</fix>
</trkpt>
<trkpt lat="-27.2740917" lon="151.2900786">
  <ele>350.43</ele>
  <time>2026-09-01T19:55:12Z</time>
  <course>11.41</course>
  <speed>0.27</speed>
  <fix>3d</fix>
</trkpt>
<trkpt lat="-27.2740914" lon="151.2900788">
  <ele>350.52</ele>
  <time>2026-09-01T19:55:12Z</time>
  <course>15.25</course>
  <speed>0.23769728648009425</speed>
  <fix>3d</fix>
</trkpt>
<trkpt lat="-27.2740189" lon="151.2900861">
  <ele>342.0</ele>
  <time>2026-09-01T19:55:12Z</time>
  <course>5.36</course>
  <speed>0.9940824915468535</speed>
  <fix>3d</fix>
</trkpt>
<trkpt lat="-27.2740913" lon="151.2900789">
  <ele>350.6</ele>
  <time>2026-09-01T19:55:12Z</time>
  <course>15.25</course>
  <speed>0.22803508501982758</speed>
  <fix>3d</fix>
</trkpt>
<trkpt lat="-27.2740917" lon="151.2900786">
  <ele>350.43</ele>
  <time>2026-09-01T19:55:12Z</time>
  <course>11.41</course>
  <speed>0.27</speed>
  <fix>3d</fix>
</trkpt>
<trkpt lat="-27.2740912" lon="151.2900789">
  <ele>350.62</ele>
  <time>2026-09-01T19:55:12Z</time>
  <course>15.25</course>
  <speed>0.22803508501982758</speed>
  <fix>3d</fix>
</trkpt>
<trkpt lat="-27.274091" lon="151.2900789">
  <ele>350.69</ele>
  <time>2026-09-01T19:55:12Z</time>
  <course>15.26</course>
  <speed>0.21840329667841554</speed>
  <fix>3d</fix>
</trkpt>
<trkpt lat="-27.2740913" lon="151.2900788">
  <ele>350.61</ele>
  <time>2026-09-01T19:55:12Z</time>
  <course>11.81</course>
  <speed>0.26</speed>
  <fix>3d</fix>
</trkpt>
<trkpt lat="-27.274091" lon="151.2900789">
  <ele>350.71</ele>
  <time>2026-09-01T19:55:12Z</time>
  <course>15.26</course>
  <speed>0.21840329667841554</speed>
  <fix>3d</fix>
</trkpt>
<trkpt lat="-27.2740171" lon="151.2900863">
  <ele>342.0</ele>
  <time>2026-09-01T19:55:12Z</time>
  <course>5.38</course>
  <speed>0.9940824915468535</speed>
  <fix>3d</fix>
</trkpt>
<trkpt lat="-27.2740908" lon="151.290079">
  <ele>350.78</ele>
  <time>2026-09-01T19:55:12Z</time>
  <course>15.26</course>
  <speed>0.208806130178211</speed>
  <fix>3d</fix>
</trkpt>
<trkpt lat="-27.2740913" lon="151.2900788">
  <ele>350.61</ele>
  <time>2026-09-01T19:55:12Z</time>
  <course>11.81</course>
  <speed>0.26</speed>
  <fix>3d</fix>
</trkpt>
<trkpt lat="-27.2740908" lon="151.290079">
  <ele>350.78</ele>
  <time>2026-09-01T19:55:12Z</time>
  <course>15.26</course>
  <speed>0.208806130178211</speed>
  <fix>3d</fix>
</trkpt>
<trkpt lat="-27.2740906" lon="151.290079">
  <ele>350.87</ele>
  <time>2026-09-01T19:55:12Z</time>
  <course>15.27</course>
  <speed>0.19924858845171275</speed>
  <fix>3d</fix>
</trkpt>
<trkpt lat="-27.2740908" lon="151.2900789">
  <ele>350.79</ele>
  <time>2026-09-01T19:55:12Z</time>
  <course>12.29</course>
  <speed>0.25</speed>
  <fix>3d</fix>
</trkpt>
<trkpt lat="-27.2740905" lon="151.2900791">
  <ele>350.92</ele>
  <time>2026-09-01T19:55:12Z</time>
  <course>15.27</course>
  <speed>0.19924858845171275</speed>
  <fix>3d</fix>
</trkpt>
<trkpt lat="-27.2740154" lon="151.2900865">
  <ele>342.0</ele>
  <time>2026-09-01T19:55:12Z</time>
  <course>5.4</course>
  <speed>0.9940824915468535</speed>
  <fix>3d</fix>
</trkpt>
<trkpt lat="-27.2740904" lon="151.2900791">
  <ele>350.96</ele>
  <time>2026-09-01T19:55:12Z</time>
  <course>15.27</course>
  <speed>0.18681541692269404</speed>
  <fix>3d</fix>
</trkpt>
<trkpt lat="-27.2740908" lon="151.2900789">
  <ele>350.79</ele>
  <time>2026-09-01T19:55:12Z</time>
  <course>12.29</course>
  <speed>0.25</speed>
  <fix>3d</fix>
</trkpt>
<trkpt lat="-27.2740904" lon="151.2900791">
  <ele>350.97</ele>
  <time>2026-09-01T19:55:12Z</time>
  <course>15.27</course>
  <speed>0.18681541692269404</speed>
  <fix>3d</fix>
</trkpt>
<trkpt lat="-27.2740902" lon="151.2900791">
  <ele>351.05</ele>
  <time>2026-09-01T19:55:12Z</time>
  <course>15.28</course>
  <speed>0.1772004514666935</speed>
  <fix>3d</fix>
</trkpt>
<trkpt lat="-27.2740904" lon="151.290079">
  <ele>350.96</ele>
  <time>2026-09-01T19:55:12Z</time>
  <course>12.84</course>
  <speed>0.23</speed>
  <fix>3d</fix>
</trkpt>
<trkpt lat="-27.2740902" lon="151.2900791">
  <ele>351.07</ele>
  <time>2026-09-01T19:55:12Z</time>
  <course>15.28</course>
  <speed>0.1772004514666935</speed>
  <fix>3d</fix>
</trkpt>
<trkpt lat="-27.2740136" lon="151.2900867">
  <ele>342.0</ele>
  <time>2026-09-01T19:55:12Z</time>
  <course>5.43</course>
  <speed>0.9940824915468535</speed>
  <fix>3d</fix>
</trkpt>
<trkpt lat="-27.2740901" lon="151.2900792">
  <ele>351.14</ele>
  <time>2026-09-01T19:55:12Z</time>
  <course>15.28</course>
  <speed>0.1676305461424021</speed>
  <fix>3d</fix>
</trkpt>
<trkpt lat="-27.2740904" lon="151.290079">
  <ele>350.96</ele>
  <time>2026-09-01T19:55:12Z</time>
  <course>12.84</course>
  <speed>0.23</speed>
  <fix>3d</fix>
</trkpt>
<trkpt lat="-27.2740901" lon="151.2900792">
  <ele>351.15</ele>
  <time>2026-09-01T19:55:12Z</time>
  <course>15.28</course>
  <speed>0.1676305461424021</speed>
  <fix>3d</fix>
</trkpt>
<trkpt lat="-27.2740899" lon="151.2900792">
  <ele>351.24</ele>
  <time>2026-09-01T19:55:12Z</time>
  <course>15.29</course>
  <speed>0.15811388300841897</speed>
  <fix>3d</fix>
</trkpt>
<trkpt lat="-27.27409" lon="151.2900791">
  <ele>351.14</ele>
  <time>2026-09-01T19:55:12Z</time>
  <course>13.46</course>
  <speed>0.2</speed>
  <fix>3d</fix>
</trkpt>
<trkpt lat="-27.2740899" lon="151.2900792">
  <ele>351.26</ele>
  <time>2026-09-01T19:55:12Z</time>
  <course>15.29</course>
  <speed>0.14866068747318506</speed>
  <fix>3d</fix>
</trkpt>
<trkpt lat="-27.2740118" lon="151.2900869">
  <ele>341.999</ele>
  <time>2026-09-01T19:55:12Z</time>
  <course>5.45</course>
  <speed>0.9940824915468535</speed>
  <fix>3d</fix>
</trkpt>
<trkpt lat="-27.2740898" lon="151.2900793">
  <ele>351.33</ele>
  <time>2026-09-01T19:55:12Z</time>
  <course>15.29</course>
  <speed>0.13601470508735444</speed>
  <fix>3d</fix>
</trkpt>
<trkpt lat="-27.27409" lon="151.2900791">
  <ele>351.14</ele>
  <time>2026-09-01T19:55:12Z</time>
  <course>13.46</course>
  <speed>0.2</speed>
  <fix>3d</fix>
</trkpt>
<trkpt lat="-27.2740898" lon="151.2900793">
  <ele>351.33</ele>
  <time>2026-09-01T19:55:12Z</time>
  <course>15.29</course>
  <speed>0.13601470508735444</speed>
  <fix>3d</fix>
</trkpt>
<trkpt lat="-27.2740896" lon="151.2900793">
  <ele>351.42</ele>
  <time>2026-09-01T19:55:12Z</time>
  <course>15.3</course>
  <speed>0.1264911064067352</speed>
  <fix>3d</fix>
</trkpt>
<trkpt lat="-27.2740896" lon="151.2900792">
  <ele>351.32</ele>
  <time>2026-09-01T19:55:12Z</time>
  <course>14.19</course>
  <speed>0.18</speed>
  <fix>3d</fix>
</trkpt>
<trkpt lat="-27.2740896" lon="151.2900793">
  <ele>351.44</ele>
  <time>2026-09-01T19:55:12Z</time>
  <course>15.3</course>
  <speed>0.1264911064067352</speed>
  <fix>3d</fix>
</trkpt>
<trkpt lat="-27.27401" lon="151.2900871">
  <ele>342.0</ele>
  <time>2026-09-01T19:55:12Z</time>
  <course>5.47</course>
  <speed>0.9940824915468535</speed>
  <fix>3d</fix>
</trkpt>
<trkpt lat="-27.2740895" lon="151.2900793">
  <ele>351.51</ele>
  <time>2026-09-01T19:55:12Z</time>
  <course>15.3</course>
  <speed>0.11704699910719625</speed>
  <fix>3d</fix>
</trkpt>
<trkpt lat="-27.2740896" lon="151.2900792">
  <ele>351.32</ele>
  <time>2026-09-01T19:55:12Z</time>
  <course>14.19</course>
  <speed>0.18</speed>
  <fix>3d</fix>
</trkpt>
<trkpt lat="-27.2740895" lon="151.2900793">
  <ele>351.51</ele>
  <time>2026-09-01T19:55:12Z</time>
  <course>15.3</course>
  <speed>0.11704699910719625</speed>
  <fix>3d</fix>
</trkpt>
<trkpt lat="-27.2740894" lon="151.2900794">
  <ele>351.6</ele>
  <time>2026-09-01T19:55:12Z</time>
  <course>15.31</course>
  <speed>0.09848857801796104</speed>
  <fix>3d</fix>
</trkpt>
<trkpt lat="-27.2740894" lon="151.2900793">
  <ele>351.5</ele>
  <time>2026-09-01T19:55:12Z</time>
  <course>15.07</course>
  <speed>0.15</speed>
  <fix>3d</fix>
</trkpt>
<trkpt lat="-27.2740894" lon="151.2900794">
  <ele>351.6</ele>
  <time>2026-09-01T19:55:12Z</time>
  <course>15.31</course>
  <speed>0.09848857801796104</speed>
  <fix>3d</fix>
</trkpt>
<trkpt lat="-27.2740082" lon="151.2900872">
  <ele>342.0</ele>
  <time>2026-09-01T19:55:12Z</time>
  <course>5.5</course>
  <speed>0.9940824915468535</speed>
  <fix>3d</fix>
</trkpt>
<trkpt lat="-27.2740893" lon="151.2900794">
  <ele>351.68</ele>
  <time>2026-09-01T19:55:12Z</time>
  <course>15.31</course>
  <speed>0.0854400374531753</speed>
  <fix>3d</fix>
</trkpt>
<trkpt lat="-27.2740894" lon="151.2900793">
  <ele>351.5</ele>
  <time>2026-09-01T19:55:12Z</time>
  <course>15.07</course>
  <speed>0.15</speed>
  <fix>3d</fix>
</trkpt>
<trkpt lat="-27.2740893" lon="151.2900794">
  <ele>351.69</ele>
  <time>2026-09-01T19:55:12Z</time>
  <course>15.31</course>
  <speed>0.0854400374531753</speed>
  <fix>3d</fix>
</trkpt>
<trkpt lat="-27.2740892" lon="151.2900794">
  <ele>351.77</ele>
  <time>2026-09-01T19:55:12Z</time>
  <course>15.32</course>
  <speed>0.07615773105863909</speed>
  <fix>3d</fix>
</trkpt>
<trkpt lat="-27.2740891" lon="151.2900793">
  <ele>351.67</ele>
  <time>2026-09-01T19:55:12Z</time>
  <course>16.21</course>
  <speed>0.13</speed>
  <fix>3d</fix>
</trkpt>
<trkpt lat="-27.2740892" lon="151.2900794">
  <ele>351.79</ele>
  <time>2026-09-01T19:55:12Z</time>
  <course>15.32</course>
  <speed>0.0670820393249937</speed>
  <fix>3d</fix>
</trkpt>
<trkpt lat="-27.2740064" lon="151.2900874">
  <ele>341.999</ele>
  <time>2026-09-01T19:55:12Z</time>
  <course>5.52</course>
  <speed>0.9940824915468535</speed>
  <fix>3d</fix>
</trkpt>
<trkpt lat="-27.2740891" lon="151.2900795">
  <ele>351.86</ele>
  <time>2026-09-01T19:55:12Z</time>
  <course>15.33</course>
  <speed>0.05830951894845301</speed>
  <fix>3d</fix>
</trkpt>
<trkpt lat="-27.2740891" lon="151.2900793">
  <ele>351.67</ele>
  <time>2026-09-01T19:55:12Z</time>
  <course>16.21</course>
  <speed>0.13</speed>
  <fix>3d</fix>
</trkpt>
<trkpt lat="-27.2740891" lon="151.2900795">
  <ele>351.86</ele>
  <time>2026-09-01T19:55:12Z</time>
  <course>15.33</course>
  <speed>0.05830951894845301</speed>
  <fix>3d</fix>
</trkpt>
<trkpt lat="-27.274089" lon="151.2900795">
  <ele>351.95</ele>
  <time>2026-09-01T19:55:12Z</time>
  <course>15.34</course>
  <speed>0.044721359549995794</speed>
  <fix>3d</fix>
</trkpt>
<trkpt lat="-27.2740889" lon="151.2900794">
  <ele>351.85</ele>
  <time>2026-09-01T19:55:12Z</time>
  <course>17.85</course>
  <speed>0.1</speed>
  <fix>3d</fix>
</trkpt>
<trkpt lat="-27.274089" lon="151.2900795">
  <ele>351.96</ele>
  <time>2026-09-01T19:55:12Z</time>
  <course>15.34</course>
  <speed>0.044721359549995794</speed>
  <fix>3d</fix>
</trkpt>
<trkpt lat="-27.2740046" lon="151.2900876">
  <ele>341.999</ele>
  <time>2026-09-01T19:55:12Z</time>
  <course>5.54</course>
  <speed>0.9940824915468535</speed>
  <fix>3d</fix>
</trkpt>
<trkpt lat="-27.274089" lon="151.2900795">
  <ele>352.03</ele>
  <time>2026-09-01T19:55:12Z</time>
  <course>15.35</course>
  <speed>0.03605551275463989</speed>
  <fix>3d</fix>
</trkpt>
<trkpt lat="-27.2740889" lon="151.2900794">
  <ele>351.85</ele>
  <time>2026-09-01T19:55:12Z</time>
  <course>17.85</course>
  <speed>0.1</speed>
  <fix>3d</fix>
</trkpt>
<trkpt lat="-27.274089" lon="151.2900795">
  <ele>352.04</ele>
  <time>2026-09-01T19:55:12Z</time>
  <course>15.35</course>
  <speed>0.03605551275463989</speed>
  <fix>3d</fix>
</trkpt>
<trkpt lat="-27.2740889" lon="151.2900795">
  <ele>352.12</ele>
  <time>2026-09-01T19:55:12Z</time>
  <course>15.36</course>
  <speed>0.022360679774997897</speed>
  <fix>3d</fix>
</trkpt>
<trkpt lat="-27.2740888" lon="151.2900795">
  <ele>352.02</ele>
  <time>2026-09-01T19:55:12Z</time>
  <course>20.43</course>
  <speed>0.07</speed>
  <fix>3d</fix>
</trkpt>
<trkpt lat="-27.2740889" lon="151.2900795">
  <ele>352.17</ele>
  <time>2026-09-01T19:55:12Z</time>
  <course>15.36</course>
  <speed>0.022360679774997897</speed>
  <fix>3d</fix>
</trkpt>
<trkpt lat="-27.2740029" lon="151.2900878">
  <ele>342.0</ele>
  <time>2026-09-01T19:55:12Z</time>
  <course>5.56</course>
  <speed>0.9940824915468535</speed>
  <fix>3d</fix>
</trkpt>
<trkpt lat="-27.2740889" lon="151.2900795">
  <ele>352.21</ele>
  <time>2026-09-01T19:55:12Z</time>
  <course>15.36</course>
  <speed>0.01</speed>
  <fix>3d</fix>
</trkpt>
<trkpt lat="-27.2740888" lon="151.2900795">
  <ele>352.02</ele>
  <time>2026-09-01T19:55:12Z</time>
  <course>20.43</course>
  <speed>0.07</speed>
  <fix>3d</fix>
</trkpt>
<trkpt lat="-27.2740889" lon="151.2900795">
  <ele>352.21</ele>
  <time>2026-09-01T19:55:12Z</time>
  <course>15.36</course>
  <speed>0.01</speed>
  <fix>3d</fix>
</trkpt>
<trkpt lat="-27.2740889" lon="151.2900795">
  <ele>352.3</ele>
  <time>2026-09-01T19:55:12Z</time>
  <course>15.38</course>
  <speed>0.01</speed>
  <fix>3d</fix>
</trkpt>
<trkpt lat="-27.2740887" lon="151.2900795">
  <ele>352.2</ele>
  <time>2026-09-01T19:55:12Z</time>
  <course>25.08</course>
  <speed>0.04</speed>
  <fix>3d</fix>
</trkpt>
<trkpt lat="-27.2740889" lon="151.2900795">
  <ele>352.32</ele>
  <time>2026-09-01T19:55:12Z</time>
  <course>15.38</course>
  <speed>0.01</speed>
  <fix>3d</fix>
</trkpt>
<trkpt lat="-27.2740011" lon="151.290088">
  <ele>341.999</ele>
  <time>2026-09-01T19:55:12Z</time>
  <course>5.59</course>
  <speed>0.9940824915468535</speed>
  <fix>3d</fix>
</trkpt>
<trkpt lat="-27.2740889" lon="151.2900795">
  <ele>352.39</ele>
  <time>2026-09-01T19:55:12Z</time>
  <course>15.39</course>
  <speed>0.01414213562373095</speed>
  <fix>3d</fix>
</trkpt>
<trkpt lat="-27.2740887" lon="151.2900795">
  <ele>352.2</ele>
  <time>2026-09-01T19:55:12Z</time>
  <course>25.08</course>
  <speed>0.04</speed>
  <fix>3d</fix>
</trkpt>
<trkpt lat="-27.2740889" lon="151.2900795">
  <ele>352.39</ele>
  <time>2026-09-01T19:55:12Z</time>
  <course>15.39</course>
  <speed>0.01414213562373095</speed>
  <fix>3d</fix>
</trkpt>
<trkpt lat="-27.2740888" lon="151.2900795">
  <ele>352.48</ele>
  <time>2026-09-01T19:55:12Z</time>
  <course>15.42</course>
  <speed>0.02</speed>
  <fix>3d</fix>
</trkpt>
<trkpt lat="-27.2740886" lon="151.2900795">
  <ele>352.38</ele>
  <time>2026-09-01T19:55:12Z</time>
  <course>37.52</course>
  <speed>0.02</speed>
  <fix>3d</fix>
</trkpt>
<trkpt lat="-27.2740889" lon="151.2900795">
  <ele>352.48</ele>
  <time>2026-09-01T19:55:12Z</time>
  <course>15.42</course>
  <speed>0.02</speed>
  <fix>3d</fix>
</trkpt>
<trkpt lat="-27.2739993" lon="151.2900882">
  <ele>342.0</ele>
  <time>2026-09-01T19:55:12Z</time>
  <course>5.61</course>
  <speed>0.9940824915468535</speed>
  <fix>3d</fix>
</trkpt>
<trkpt lat="-27.2740889" lon="151.2900795">
  <ele>352.57</ele>
  <time>2026-09-01T19:55:12Z</time>
  <course>15.45</course>
  <speed>0.03</speed>
  <fix>3d</fix>
</trkpt>
<trkpt lat="-27.2740886" lon="151.2900795">
  <ele>352.38</ele>
  <time>2026-09-01T19:55:12Z</time>
  <course>37.52</course>
  <speed>0.02</speed>
  <fix>3d</fix>
</trkpt>
<trkpt lat="-27.2740889" lon="151.2900795">
  <ele>352.57</ele>
  <time>2026-09-01T19:55:12Z</time>
  <course>15.46</course>
  <speed>0.03</speed>
  <fix>3d</fix>
</trkpt>
<trkpt lat="-27.2740889" lon="151.2900795">
  <ele>352.66</ele>
  <time>2026-09-01T19:55:12Z</time>
  <course>15.55</course>
  <speed>0.04</speed>
  <fix>3d</fix>
</trkpt>
<trkpt lat="-27.2740886" lon="151.2900795">
  <ele>352.56</ele>
  <time>2026-09-01T19:55:12Z</time>
  <course>121.83</course>
  <speed>0.0</speed>
  <fix>3d</fix>
</trkpt>
<trkpt lat="-27.2740889" lon="151.2900795">
  <ele>352.68</ele>
  <time>2026-09-01T19:55:12Z</time>
  <course>15.57</course>
  <speed>0.04</speed>
  <fix>3d</fix>
</trkpt>
<trkpt lat="-27.2739975" lon="151.2900884">
  <ele>342.0</ele>
  <time>2026-09-01T19:55:12Z</time>
  <course>5.63</course>
  <speed>0.9940824915468535</speed>
  <fix>3d</fix>
</trkpt>
<trkpt lat="-27.2740889" lon="151.2900795">
  <ele>352.75</ele>
  <time>2026-09-01T19:55:12Z</time>
  <course>15.61</course>
  <speed>0.05</speed>
  <fix>3d</fix>
</trkpt>
<trkpt lat="-27.2740886" lon="151.2900795">
  <ele>352.56</ele>
  <time>2026-09-01T19:55:12Z</time>
  <course>121.83</course>
  <speed>0.0</speed>
  <fix>3d</fix>
</trkpt>
<trkpt lat="-27.2740889" lon="151.2900795">
  <ele>352.75</ele>
  <time>2026-09-01T19:55:12Z</time>
  <course>15.61</course>
  <speed>0.05</speed>
  <fix>3d</fix>
</trkpt>
<trkpt lat="-27.2740889" lon="151.2900795">
  <ele>352.84</ele>
  <time>2026-09-01T19:55:12Z</time>
  <course>15.62</course>
  <speed>0.05</speed>
  <fix>3d</fix>
</trkpt>
<trkpt lat="-27.2740886" lon="151.2900795">
  <ele>352.74</ele>
  <time>2026-09-01T19:55:12Z</time>
  <course>185.37</course>
  <speed>0.02</speed>
  <fix>3d</fix>
</trkpt>
<trkpt lat="-27.2740889" lon="151.2900795">
  <ele>352.86</ele>
  <time>2026-09-01T19:55:12Z</time>
  <course>15.62</course>
  <speed>0.06</speed>
  <fix>3d</fix>
</trkpt>
<trkpt lat="-27.2739957" lon="151.2900886">
  <ele>342.0</ele>
  <time>2026-09-01T19:55:12Z</time>
  <course>5.66</course>
  <speed>0.9940824915468535</speed>
  <fix>3d</fix>
</trkpt>
<trkpt lat="-27.2740889" lon="151.2900795">
  <ele>352.93</ele>
  <time>2026-09-01T19:55:12Z</time>
  <course>15.6</course>
  <speed>0.06</speed>
  <fix>3d</fix>
</trkpt>
<trkpt lat="-27.2740886" lon="151.2900795">
  <ele>352.74</ele>
  <time>2026-09-01T19:55:12Z</time>
  <course>185.37</course>
  <speed>0.02</speed>
  <fix>3d</fix>
</trkpt>
<trkpt lat="-27.2740889" lon="151.2900795">
  <ele>352.93</ele>
  <time>2026-09-01T19:55:12Z</time>
  <course>15.59</course>
  <speed>0.06</speed>
  <fix>3d</fix>
</trkpt>
<trkpt lat="-27.2740889" lon="151.2900795">
  <ele>353.02</ele>
  <time>2026-09-01T19:55:12Z</time>
  <course>15.55</course>
  <speed>0.07</speed>
  <fix>3d</fix>
</trkpt>
<trkpt lat="-27.2740887" lon="151.2900795">
  <ele>352.91</ele>
  <time>2026-09-01T19:55:12Z</time>
  <course>191.72</course>
  <speed>0.03</speed>
  <fix>3d</fix>
</trkpt>
<trkpt lat="-27.2740889" lon="151.2900795">
  <ele>353.04</ele>
  <time>2026-09-01T19:55:12Z</time>
  <course>15.54</course>
  <speed>0.07</speed>
  <fix>3d</fix>
</trkpt>
<trkpt lat="-27.2739939" lon="151.2900888">
  <ele>342.0</ele>
  <time>2026-09-01T19:55:12Z</time>
  <course>5.68</course>
  <speed>0.9940824915468535</speed>
  <fix>3d</fix>
</trkpt>
<trkpt lat="-27.2740889" lon="151.2900795">
  <ele>353.11</ele>
  <time>2026-09-01T19:55:12Z</time>
  <course>15.5</course>
  <speed>0.07</speed>
  <fix>3d</fix>
</trkpt>
<trkpt lat="-27.2740887" lon="151.2900795">
  <ele>352.91</ele>
  <time>2026-09-01T19:55:12Z</time>
  <course>191.72</course>
  <speed>0.03</speed>
  <fix>3d</fix>
</trkpt>
<trkpt lat="-27.2740889" lon="151.2900795">
  <ele>353.11</ele>
  <time>2026-09-01T19:55:12Z</time>
  <course>15.5</course>
  <speed>0.07</speed>
  <fix>3d</fix>
</trkpt>
<trkpt lat="-27.274089" lon="151.2900795">
  <ele>353.2</ele>
  <time>2026-09-01T19:55:12Z</time>
  <course>15.45</course>
  <speed>0.08062257748298549</speed>
  <fix>3d</fix>
</trkpt>
<trkpt lat="-27.2740887" lon="151.2900795">
  <ele>353.1</ele>
  <time>2026-09-01T19:55:12Z</time>
  <course>191.85</course>
  <speed>0.05</speed>
  <fix>3d</fix>
</trkpt>
<trkpt lat="-27.274089" lon="151.2900795">
  <ele>353.22</ele>
  <time>2026-09-01T19:55:12Z</time>
  <course>15.44</course>
  <speed>0.08062257748298549</speed>
  <fix>3d</fix>
</trkpt>
<trkpt lat="-27.2739921" lon="151.290089">
  <ele>342.0</ele>
  <time>2026-09-01T19:55:12Z</time>
  <course>5.7</course>
  <speed>0.9940824915468535</speed>
  <fix>3d</fix>
</trkpt>
<trkpt lat="-27.2740891" lon="151.2900795">
  <ele>353.29</ele>
  <time>2026-09-01T19:55:12Z</time>
  <course>15.4</course>
  <speed>0.08062257748298549</speed>
  <fix>3d</fix>
</trkpt>
<trkpt lat="-27.2740887" lon="151.2900795">
  <ele>353.1</ele>
  <time>2026-09-01T19:55:12Z</time>
  <course>191.85</course>
  <speed>0.05</speed>
  <fix>3d</fix>
</trkpt>
<trkpt lat="-27.2740891" lon="151.2900795">
  <ele>353.29</ele>
  <time>2026-09-01T19:55:12Z</time>
  <course>15.4</course>
  <speed>0.08062257748298549</speed>
  <fix>3d</fix>
</trkpt>
<trkpt lat="-27.2740891" lon="151.2900795">
  <ele>353.38</ele>
  <time>2026-09-01T19:55:12Z</time>
  <course>15.37</course>
  <speed>0.09055385138137417</speed>
  <fix>3d</fix>
</trkpt>
<trkpt lat="-27.2740888" lon="151.2900795">
  <ele>353.28</ele>
  <time>2026-09-01T19:55:12Z</time>
  <course>191.95</course>
  <speed>0.06</speed>
  <fix>3d</fix>
</trkpt>
<trkpt lat="-27.2740891" lon="151.2900795">
  <ele>353.42</ele>
  <time>2026-09-01T19:55:12Z</time>
  <course>15.36</course>
  <speed>0.09055385138137417</speed>
  <fix>3d</fix>
</trkpt>
<trkpt lat="-27.2739904" lon="151.2900892">
  <ele>342.0</ele>
  <time>2026-09-01T19:55:12Z</time>
  <course>5.73</course>
  <speed>0.9940824915468535</speed>
  <fix>3d</fix>
</trkpt>
<trkpt lat="-27.2740892" lon="151.2900795">
  <ele>353.47</ele>
  <time>2026-09-01T19:55:12Z</time>
  <course>15.34</course>
  <speed>0.09055385138137417</speed>
  <fix>3d</fix>
</trkpt>
<trkpt lat="-27.2740888" lon="151.2900795">
  <ele>353.28</ele>
  <time>2026-09-01T19:55:12Z</time>
  <course>191.95</course>
  <speed>0.06</speed>
  <fix>3d</fix>
</trkpt>
<trkpt lat="-27.2740892" lon="151.2900795">
  <ele>353.48</ele>
  <time>2026-09-01T19:55:12Z</time>
  <course>15.34</course>
  <speed>0.09055385138137417</speed>
  <fix>3d</fix>
</trkpt>
<trkpt lat="-27.2740892" lon="151.2900795">
  <ele>353.56</ele>
  <time>2026-09-01T19:55:12Z</time>
  <course>15.33</course>
  <speed>0.09055385138137417</speed>
  <fix>3d</fix>
</trkpt>
<trkpt lat="-27.2740889" lon="151.2900795">
  <ele>353.46</ele>
  <time>2026-09-01T19:55:12Z</time>
  <course>192.08</course>
  <speed>0.07</speed>
  <fix>3d</fix>
</trkpt>
<trkpt lat="-27.2740893" lon="151.2900795">
  <ele>353.61</ele>
  <time>2026-09-01T19:55:12Z</time>
  <course>15.33</course>
  <speed>0.09055385138137417</speed>
  <fix>3d</fix>
</trkpt>
<trkpt lat="-27.2739886" lon="151.2900894">
  <ele>342.0</ele>
  <time>2026-09-01T19:55:12Z</time>
  <course>5.75</course>
  <speed>0.9950376877284599</speed>
  <fix>3d</fix>
</trkpt>
<trkpt lat="-27.2740893" lon="151.2900795">
  <ele>353.65</ele>
  <time>2026-09-01T19:55:12Z</time>
  <course>15.33</course>
  <speed>0.1004987562112089</speed>
  <fix>3d</fix>
</trkpt>
<trkpt lat="-27.2740889" lon="151.2900795">
  <ele>353.46</ele>
  <time>2026-09-01T19:55:12Z</time>
  <course>192.08</course>
  <speed>0.07</speed>
  <fix>3d</fix>
</trkpt>
<trkpt lat="-27.2740893" lon="151.2900795">
  <ele>353.66</ele>
  <time>2026-09-01T19:55:12Z</time>
  <course>15.33</course>
  <speed>0.1004987562112089</speed>
  <fix>3d</fix>
</trkpt>
<trkpt lat="-27.2740894" lon="151.2900795">
  <ele>353.75</ele>
  <time>2026-09-01T19:55:12Z</time>
  <course>15.33</course>
  <speed>0.1004987562112089</speed>
  <fix>3d</fix>
</trkpt>
<trkpt lat="-27.274089" lon="151.2900795">
  <ele>353.64</ele>
  <time>2026-09-01T19:55:12Z</time>
  <course>192.24</course>
  <speed>0.08</speed>
  <fix>3d</fix>
</trkpt>
<trkpt lat="-27.2740894" lon="151.2900795">
  <ele>353.76</ele>
  <time>2026-09-01T19:55:12Z</time>
  <course>15.33</course>
  <speed>0.1004987562112089</speed>
  <fix>3d</fix>
</trkpt>
<trkpt lat="-27.2739868" lon="151.2900896">
  <ele>342.0</ele>
  <time>2026-09-01T19:55:12Z</time>
  <course>5.77</course>
  <speed>0.9950376877284599</speed>
  <fix>3d</fix>
</trkpt>
<trkpt lat="-27.2740894" lon="151.2900795">
  <ele>353.84</ele>
  <time>2026-09-01T19:55:12Z</time>
  <course>15.34</course>
  <speed>0.1004987562112089</speed>
  <fix>3d</fix>
</trkpt>
<trkpt lat="-27.274089" lon="151.2900795">
  <ele>353.64</ele>
  <time>2026-09-01T19:55:12Z</time>
  <course>192.24</course>
  <speed>0.08</speed>
  <fix>3d</fix>
</trkpt>
<trkpt lat="-27.2740894" lon="151.2900795">
  <ele>353.84</ele>
  <time>2026-09-01T19:55:12Z</time>
  <course>15.34</course>
  <speed>0.1004987562112089</speed>
  <fix>3d</fix>
</trkpt>
<trkpt lat="-27.2740895" lon="151.2900794">
  <ele>353.93</ele>
  <time>2026-09-01T19:55:12Z</time>
  <course>15.34</course>
  <speed>0.1</speed>
  <fix>3d</fix>
</trkpt>
<trkpt lat="-27.2740892" lon="151.2900795">
  <ele>353.83</ele>
  <time>2026-09-01T19:55:12Z</time>
  <course>192.44</course>
  <speed>0.08</speed>
  <fix>3d</fix>
</trkpt>
<trkpt lat="-27.2740895" lon="151.2900794">
  <ele>353.95</ele>
  <time>2026-09-01T19:55:12Z</time>
  <course>15.34</course>
  <speed>0.1</speed>
  <fix>3d</fix>
</trkpt>
<trkpt lat="-27.273985" lon="151.2900898">
  <ele>342.0</ele>
  <time>2026-09-01T19:55:12Z</time>
  <course>5.79</course>
  <speed>0.9950376877284599</speed>
  <fix>3d</fix>
</trkpt>
<trkpt lat="-27.2740896" lon="151.2900794">
  <ele>354.02</ele>
  <time>2026-09-01T19:55:12Z</time>
  <course>15.33</course>
  <speed>0.1</speed>
  <fix>3d</fix>
</trkpt>
<trkpt lat="-27.2740892" lon="151.2900795">
  <ele>353.83</ele>
  <time>2026-09-01T19:55:12Z</time>
  <course>192.44</course>
  <speed>0.08</speed>
  <fix>3d</fix>
</trkpt>
<trkpt lat="-27.2740896" lon="151.2900794">
  <ele>354.02</ele>
  <time>2026-09-01T19:55:12Z</time>
  <course>15.33</course>
  <speed>0.1</speed>
  <fix>3d</fix>
</trkpt>
<trkpt lat="-27.2740897" lon="151.2900794">
  <ele>354.11</ele>
  <time>2026-09-01T19:55:12Z</time>
  <course>15.33</course>
  <speed>0.1</speed>
  <fix>3d</fix>
</trkpt>
<trkpt lat="-27.2740894" lon="151.2900795">
  <ele>354.01</ele>
  <time>2026-09-01T19:55:12Z</time>
  <course>192.67</course>
  <speed>0.09</speed>
  <fix>3d</fix>
</trkpt>
<trkpt lat="-27.2740897" lon="151.2900794">
  <ele>354.13</ele>
  <time>2026-09-01T19:55:12Z</time>
  <course>15.32</course>
  <speed>0.1</speed>
  <fix>3d</fix>
</trkpt>
<trkpt lat="-27.2739832" lon="151.29009">
  <ele>342.0</ele>
  <time>2026-09-01T19:55:12Z</time>
  <course>5.82</course>
  <speed>0.9950376877284599</speed>
  <fix>3d</fix>
</trkpt>
<trkpt lat="-27.2740897" lon="151.2900794">
  <ele>354.2</ele>
  <time>2026-09-01T19:55:12Z</time>
  <course>15.31</course>
  <speed>0.1</speed>
  <fix>3d</fix>
</trkpt>
<trkpt lat="-27.2740894" lon="151.2900795">
  <ele>354.01</ele>
  <time>2026-09-01T19:55:12Z</time>
  <course>192.67</course>
  <speed>0.09</speed>
  <fix>3d</fix>
</trkpt>
<trkpt lat="-27.2740897" lon="151.2900794">
  <ele>354.2</ele>
  <time>2026-09-01T19:55:12Z</time>
  <course>15.31</course>
  <speed>0.1</speed>
  <fix>3d</fix>
</trkpt>
<trkpt lat="-27.2740898" lon="151.2900794">
  <ele>354.29</ele>
  <time>2026-09-01T19:55:12Z</time>
  <course>15.28</course>
  <speed>0.1</speed>
  <fix>3d</fix>
</trkpt>
<trkpt lat="-27.2740895" lon="151.2900795">
  <ele>354.19</ele>
  <time>2026-09-01T19:55:12Z</time>
  <course>192.81</course>
  <speed>0.09</speed>
  <fix>3d</fix>
</trkpt>
<trkpt lat="-27.2740898" lon="151.2900794">
  <ele>354.31</ele>
  <time>2026-09-01T19:55:12Z</time>
  <course>15.28</course>
  <speed>0.1</speed>
  <fix>3d</fix>
</trkpt>
<trkpt lat="-27.2739814" lon="151.2900902">
  <ele>342.0</ele>
  <time>2026-09-01T19:55:12Z</time>
  <course>5.84</course>
  <speed>0.9950376877284599</speed>
  <fix>3d</fix>
</trkpt>
<trkpt lat="-27.2740899" lon="151.2900794">
  <ele>354.38</ele>
  <time>2026-09-01T19:55:12Z</time>
  <course>15.26</course>
  <speed>0.1</speed>
  <fix>3d</fix>
</trkpt>
<trkpt lat="-27.2740895" lon="151.2900795">
  <ele>354.19</ele>
  <time>2026-09-01T19:55:12Z</time>
  <course>192.81</course>
  <speed>0.09</speed>
  <fix>3d</fix>
</trkpt>
<trkpt lat="-27.2740899" lon="151.2900794">
  <ele>354.39</ele>
  <time>2026-09-01T19:55:12Z</time>
  <course>15.25</course>
  <speed>0.1</speed>
  <fix>3d</fix>
</trkpt>
<trkpt lat="-27.27409" lon="151.2900794">
  <ele>354.47</ele>
  <time>2026-09-01T19:55:12Z</time>
  <course>15.24</course>
  <speed>0.1</speed>
  <fix>3d</fix>
</trkpt>
<trkpt lat="-27.2740897" lon="151.2900794">
  <ele>354.37</ele>
  <time>2026-09-01T19:55:12Z</time>
  <course>192.93</course>
  <speed>0.09</speed>
  <fix>3d</fix>
</trkpt>
<trkpt lat="-27.27409" lon="151.2900794">
  <ele>354.5</ele>
  <time>2026-09-01T19:55:12Z</time>
  <course>15.24</course>
  <speed>0.1</speed>
  <fix>3d</fix>
</trkpt>
<trkpt lat="-27.2739796" lon="151.2900904">
  <ele>342.0</ele>
  <time>2026-09-01T19:55:12Z</time>
  <course>5.86</course>
  <speed>0.9950376877284599</speed>
  <fix>3d</fix>
</trkpt>
<trkpt lat="-27.27409" lon="151.2900794">
  <ele>354.55</ele>
  <time>2026-09-01T19:55:12Z</time>
  <course>15.22</course>
  <speed>0.1</speed>
  <fix>3d</fix>
</trkpt>
<trkpt lat="-27.2740897" lon="151.2900794">
  <ele>354.37</ele>
  <time>2026-09-01T19:55:12Z</time>
  <course>192.93</course>
  <speed>0.09</speed>
  <fix>3d</fix>
</trkpt>
<trkpt lat="-27.27409" lon="151.2900794">
  <ele>354.56</ele>
  <time>2026-09-01T19:55:12Z</time>
  <course>15.22</course>
  <speed>0.1</speed>
  <fix>3d</fix>
</trkpt>
<trkpt lat="-27.2740901" lon="151.2900794">
  <ele>354.64</ele>
  <time>2026-09-01T19:55:12Z</time>
  <course>15.21</course>
  <speed>0.1</speed>
  <fix>3d</fix>
</trkpt>
<trkpt lat="-27.2740898" lon="151.2900794">
  <ele>354.55</ele>
  <time>2026-09-01T19:55:12Z</time>
  <course>193.04</course>
  <speed>0.09</speed>
  <fix>3d</fix>
</trkpt>
<trkpt lat="-27.2740901" lon="151.2900794">
  <ele>354.69</ele>
  <time>2026-09-01T19:55:12Z</time>
  <course>15.2</course>
  <speed>0.1</speed>
  <fix>3d</fix>
</trkpt>
<trkpt lat="-27.2739779" lon="151.2900907">
  <ele>342.0</ele>
  <time>2026-09-01T19:55:12Z</time>
  <course>5.89</course>
  <speed>0.9950376877284599</speed>
  <fix>3d</fix>
</trkpt>
<trkpt lat="-27.2740902" lon="151.2900794">
  <ele>354.73</ele>
  <time>2026-09-01T19:55:13Z</time>
  <course>15.19</course>
  <speed>0.09</speed>
  <fix>3d</fix>
</trkpt>
<trkpt lat="-27.2740898" lon="151.2900794">
  <ele>354.55</ele>
  <time>2026-09-01T19:55:13Z</time>
  <course>193.04</course>
  <speed>0.09</speed>
  <fix>3d</fix>
</trkpt>
<trkpt lat="-27.2740902" lon="151.2900794">
  <ele>354.73</ele>
  <time>2026-09-01T19:55:13Z</time>
  <course>15.19</course>
  <speed>0.09</speed>
  <fix>3d</fix>
</trkpt>
<trkpt lat="-27.2740902" lon="151.2900794">
  <ele>354.82</ele>
  <time>2026-09-01T19:55:13Z</time>
  <course>15.19</course>
  <speed>0.09</speed>
  <fix>3d</fix>
</trkpt>
<trkpt lat="-27.27409" lon="151.2900793">
  <ele>354.73</ele>
  <time>2026-09-01T19:55:13Z</time>
  <course>193.17</course>
  <speed>0.08</speed>
  <fix>3d</fix>
</trkpt>
<trkpt lat="-27.2740903" lon="151.2900794">
  <ele>354.84</ele>
  <time>2026-09-01T19:55:13Z</time>
  <course>15.18</course>
  <speed>0.09</speed>
  <fix>3d</fix>
</trkpt>
<trkpt lat="-27.2739761" lon="151.2900909">
  <ele>342.0</ele>
  <time>2026-09-01T19:55:13Z</time>
  <course>5.91</course>
  <speed>0.9950376877284599</speed>
  <fix>3d</fix>
</trkpt>
<trkpt lat="-27.2740903" lon="151.2900794">
  <ele>354.91</ele>
  <time>2026-09-01T19:55:13Z</time>
  <course>15.17</course>
  <speed>0.09</speed>
  <fix>3d</fix>
</trkpt>
<trkpt lat="-27.27409" lon="151.2900793">
  <ele>354.73</ele>
  <time>2026-09-01T19:55:13Z</time>
  <course>193.17</course>
  <speed>0.08</speed>
  <fix>3d</fix>
</trkpt>
<trkpt lat="-27.2740903" lon="151.2900794">
  <ele>354.91</ele>
  <time>2026-09-01T19:55:13Z</time>
  <course>15.17</course>
  <speed>0.09</speed>
  <fix>3d</fix>
</trkpt>
<trkpt lat="-27.2740904" lon="151.2900794">
  <ele>355.0</ele>
  <time>2026-09-01T19:55:13Z</time>
  <course>15.14</course>
  <speed>0.09</speed>
  <fix>3d</fix>
</trkpt>
<trkpt lat="-27.2740901" lon="151.2900793">
  <ele>354.91</ele>
  <time>2026-09-01T19:55:13Z</time>
  <course>193.41</course>
  <speed>0.08</speed>
  <fix>3d</fix>
</trkpt>
<trkpt lat="-27.2740904" lon="151.2900794">
  <ele>355.02</ele>
  <time>2026-09-01T19:55:13Z</time>
  <course>15.14</course>
  <speed>0.08</speed>
  <fix>3d</fix>
</trkpt>
<trkpt lat="-27.2739743" lon="151.2900911">
  <ele>342.0</ele>
  <time>2026-09-01T19:55:13Z</time>
  <course>5.93</course>
  <speed>0.9950376877284599</speed>
  <fix>3d</fix>
</trkpt>
<trkpt lat="-27.2740904" lon="151.2900794">
  <ele>355.09</ele>
  <time>2026-09-01T19:55:13Z</time>
  <course>15.12</course>
  <speed>0.08</speed>
  <fix>3d</fix>
</trkpt>
<trkpt lat="-27.2740901" lon="151.2900793">
  <ele>354.91</ele>
  <time>2026-09-01T19:55:13Z</time>
  <course>193.41</course>
  <speed>0.08</speed>
  <fix>3d</fix>
</trkpt>
<trkpt lat="-27.2740904" lon="151.2900794">
  <ele>355.09</ele>
  <time>2026-09-01T19:55:13Z</time>
  <course>15.12</course>
  <speed>0.08</speed>
  <fix>3d</fix>
</trkpt>
<trkpt lat="-27.2740905" lon="151.2900794">
  <ele>355.18</ele>
  <time>2026-09-01T19:55:13Z</time>
  <course>15.1</course>
  <speed>0.08</speed>
  <fix>3d</fix>
</trkpt>
<trkpt lat="-27.2740903" lon="151.2900793">
  <ele>355.09</ele>
  <time>2026-09-01T19:55:13Z</time>
  <course>193.56</course>
  <speed>0.07</speed>
  <fix>3d</fix>
</trkpt>
<trkpt lat="-27.2740905" lon="151.2900794">
  <ele>355.2</ele>
  <time>2026-09-01T19:55:13Z</time>
  <course>15.1</course>
  <speed>0.08</speed>
  <fix>3d</fix>
</trkpt>
<trkpt lat="-27.2739725" lon="151.2900913">
  <ele>341.999</ele>
  <time>2026-09-01T19:55:13Z</time>
  <course>5.95</course>
  <speed>0.9950376877284599</speed>
  <fix>3d</fix>
</trkpt>
<trkpt lat="-27.2740906" lon="151.2900794">
  <ele>355.28</ele>
  <time>2026-09-01T19:55:13Z</time>
  <course>15.09</course>
  <speed>0.08</speed>
  <fix>3d</fix>
</trkpt>
<trkpt lat="-27.2740903" lon="151.2900793">
  <ele>355.09</ele>
  <time>2026-09-01T19:55:13Z</time>
  <course>193.56</course>
  <speed>0.07</speed>
  <fix>3d</fix>
</trkpt>
<trkpt lat="-27.2740906" lon="151.2900794">
  <ele>355.28</ele>
  <time>2026-09-01T19:55:13Z</time>
  <course>15.09</course>
  <speed>0.08</speed>
  <fix>3d</fix>
</trkpt>
<trkpt lat="-27.2740906" lon="151.2900794">
  <ele>355.37</ele>
  <time>2026-09-01T19:55:13Z</time>
  <course>15.1</course>
  <speed>0.07</speed>
  <fix>3d</fix>
</trkpt>
<trkpt lat="-27.2740904" lon="151.2900792">
  <ele>355.27</ele>
  <time>2026-09-01T19:55:13Z</time>
  <course>193.64</course>
  <speed>0.07</speed>
  <fix>3d</fix>
</trkpt>
<trkpt lat="-27.2740906" lon="151.2900794">
  <ele>355.37</ele>
  <time>2026-09-01T19:55:13Z</time>
  <course>15.1</course>
  <speed>0.07</speed>
  <fix>3d</fix>
</trkpt>
<trkpt lat="-27.2739707" lon="151.2900915">
  <ele>342.0</ele>
  <time>2026-09-01T19:55:13Z</time>
  <course>5.98</course>
  <speed>0.9950376877284599</speed>
  <fix>3d</fix>
</trkpt>
<trkpt lat="-27.2740907" lon="151.2900794">
  <ele>355.46</ele>
  <time>2026-09-01T19:55:13Z</time>
  <course>15.1</course>
  <speed>0.07</speed>
  <fix>3d</fix>
</trkpt>
<trkpt lat="-27.2740904" lon="151.2900792">
  <ele>355.27</ele>
  <time>2026-09-01T19:55:13Z</time>
  <course>193.64</course>
  <speed>0.07</speed>
  <fix>3d</fix>
</trkpt>
<trkpt lat="-27.2740907" lon="151.2900794">
  <ele>355.46</ele>
  <time>2026-09-01T19:55:13Z</time>
  <course>15.1</course>
  <speed>0.07</speed>
  <fix>3d</fix>
</trkpt>
<trkpt lat="-27.2740907" lon="151.2900793">
  <ele>355.55</ele>
  <time>2026-09-01T19:55:13Z</time>
  <course>15.1</course>
  <speed>0.06</speed>
  <fix>3d</fix>
</trkpt>
<trkpt lat="-27.2740905" lon="151.2900791">
  <ele>355.46</ele>
  <time>2026-09-01T19:55:13Z</time>
  <course>194.07</course>
  <speed>0.06</speed>
  <fix>3d</fix>
</trkpt>
<trkpt lat="-27.2740907" lon="151.2900793">
  <ele>355.58</ele>
  <time>2026-09-01T19:55:13Z</time>
  <course>15.1</course>
  <speed>0.06</speed>
  <fix>3d</fix>
</trkpt>
<trkpt lat="-27.2739689" lon="151.2900917">
  <ele>342.0</ele>
  <time>2026-09-01T19:55:13Z</time>
  <course>6.0</course>
  <speed>0.9950376877284599</speed>
  <fix>3d</fix>
</trkpt>
<trkpt lat="-27.2740908" lon="151.2900793">
  <ele>355.64</ele>
  <time>2026-09-01T19:55:13Z</time>
  <course>15.1</course>
  <speed>0.06</speed>
  <fix>3d</fix>
</trkpt>
<trkpt lat="-27.2740905" lon="151.2900791">
  <ele>355.46</ele>
  <time>2026-09-01T19:55:13Z</time>
  <course>194.07</course>
  <speed>0.06</speed>
  <fix>3d</fix>
</trkpt>
<trkpt lat="-27.2740908" lon="151.2900793">
  <ele>355.65</ele>
  <time>2026-09-01T19:55:13Z</time>
  <course>15.1</course>
  <speed>0.06</speed>
  <fix>3d</fix>
</trkpt>
<trkpt lat="-27.2740908" lon="151.2900793">
  <ele>355.73</ele>
  <time>2026-09-01T19:55:13Z</time>
  <course>15.09</course>
  <speed>0.06</speed>
  <fix>3d</fix>
</trkpt>
<trkpt lat="-27.2740906" lon="151.2900791">
  <ele>355.64</ele>
  <time>2026-09-01T19:55:13Z</time>
  <course>194.53</course>
  <speed>0.05</speed>
  <fix>3d</fix>
</trkpt>
<trkpt lat="-27.2740908" lon="151.2900793">
  <ele>355.76</ele>
  <time>2026-09-01T19:55:13Z</time>
  <course>15.09</course>
  <speed>0.06</speed>
  <fix>3d</fix>
</trkpt>
<trkpt lat="-27.2739671" lon="151.2900919">
  <ele>342.0</ele>
  <time>2026-09-01T19:55:13Z</time>
  <course>6.02</course>
  <speed>0.9950376877284599</speed>
  <fix>3d</fix>
</trkpt>
<trkpt lat="-27.2740908" lon="151.2900793">
  <ele>355.83</ele>
  <time>2026-09-01T19:55:13Z</time>
  <course>15.08</course>
  <speed>0.05</speed>
  <fix>3d</fix>
</trkpt>
<trkpt lat="-27.2740906" lon="151.2900791">
  <ele>355.64</ele>
  <time>2026-09-01T19:55:13Z</time>
  <course>194.53</course>
  <speed>0.05</speed>
  <fix>3d</fix>
</trkpt>
<trkpt lat="-27.2740908" lon="151.2900793">
  <ele>355.83</ele>
  <time>2026-09-01T19:55:13Z</time>
  <course>15.08</course>
  <speed>0.05</speed>
  <fix>3d</fix>
</trkpt>
<trkpt lat="-27.2740909" lon="151.2900793">
  <ele>355.92</ele>
  <time>2026-09-01T19:55:13Z</time>
  <course>15.07</course>
  <speed>0.05</speed>
  <fix>3d</fix>
</trkpt>
<trkpt lat="-27.2740907" lon="151.2900791">
  <ele>355.82</ele>
  <time>2026-09-01T19:55:13Z</time>
  <course>195.14</course>
  <speed>0.05</speed>
  <fix>3d</fix>
</trkpt>
<trkpt lat="-27.2740909" lon="151.2900793">
  <ele>355.95</ele>
  <time>2026-09-01T19:55:13Z</time>
  <course>15.06</course>
  <speed>0.05</speed>
  <fix>3d</fix>
</trkpt>
<trkpt lat="-27.2739654" lon="151.2900921">
  <ele>342.0</ele>
  <time>2026-09-01T19:55:13Z</time>
  <course>6.05</course>
  <speed>0.9950376877284599</speed>
  <fix>3d</fix>
</trkpt>
<trkpt lat="-27.2740909" lon="151.2900793">
  <ele>356.01</ele>
  <time>2026-09-01T19:55:13Z</time>
  <course>15.05</course>
  <speed>0.05099019513592785</speed>
  <fix>3d</fix>
</trkpt>
<trkpt lat="-27.2740907" lon="151.2900791">
  <ele>355.82</ele>
  <time>2026-09-01T19:55:13Z</time>
  <course>195.14</course>
  <speed>0.05</speed>
  <fix>3d</fix>
</trkpt>
<trkpt lat="-27.2740909" lon="151.2900793">
  <ele>356.01</ele>
  <time>2026-09-01T19:55:13Z</time>
  <course>15.05</course>
  <speed>0.05099019513592785</speed>
  <fix>3d</fix>
</trkpt>
<trkpt lat="-27.2740909" lon="151.2900793">
  <ele>356.1</ele>
  <time>2026-09-01T19:55:13Z</time>
  <course>15.03</course>
  <speed>0.0412310562561766</speed>
  <fix>3d</fix>
</trkpt>
<trkpt lat="-27.2740908" lon="151.290079">
  <ele>356.01</ele>
  <time>2026-09-01T19:55:13Z</time>
  <course>195.85</course>
  <speed>0.04</speed>
  <fix>3d</fix>
</trkpt>
<trkpt lat="-27.2740909" lon="151.2900793">
  <ele>356.13</ele>
  <time>2026-09-01T19:55:13Z</time>
  <course>15.02</course>
  <speed>0.0412310562561766</speed>
  <fix>3d</fix>
</trkpt>
<trkpt lat="-27.2739636" lon="151.2900923">
  <ele>341.999</ele>
  <time>2026-09-01T19:55:13Z</time>
  <course>6.07</course>
  <speed>0.9950376877284599</speed>
  <fix>3d</fix>
</trkpt>
<trkpt lat="-27.274091" lon="151.2900793">
  <ele>356.19</ele>
  <time>2026-09-01T19:55:13Z</time>
  <course>15.01</course>
  <speed>0.0412310562561766</speed>
  <fix>3d</fix>
</trkpt>
<trkpt lat="-27.2740908" lon="151.290079">
  <ele>356.01</ele>
  <time>2026-09-01T19:55:13Z</time>
  <course>195.85</course>
  <speed>0.04</speed>
  <fix>3d</fix>
</trkpt>
<trkpt lat="-27.274091" lon="151.2900793">
  <ele>356.19</ele>
  <time>2026-09-01T19:55:13Z</time>
  <course>15.01</course>
  <speed>0.0412310562561766</speed>
  <fix>3d</fix>
</trkpt>
<trkpt lat="-27.274091" lon="151.2900792">
  <ele>356.28</ele>
  <time>2026-09-01T19:55:13Z</time>
  <course>15.01</course>
  <speed>0.0412310562561766</speed>
  <fix>3d</fix>
</trkpt>
<trkpt lat="-27.2740909" lon="151.290079">
  <ele>356.19</ele>
  <time>2026-09-01T19:55:13Z</time>
  <course>196.02</course>
  <speed>0.03</speed>
  <fix>3d</fix>
</trkpt>
<trkpt lat="-27.274091" lon="151.2900792">
  <ele>356.3</ele>
  <time>2026-09-01T19:55:13Z</time>
  <course>15.01</course>
  <speed>0.0412310562561766</speed>
  <fix>3d</fix>
</trkpt>
<trkpt lat="-27.2739618" lon="151.2900926">
  <ele>342.0</ele>
  <time>2026-09-01T19:55:13Z</time>
  <course>6.09</course>
  <speed>0.9950376877284599</speed>
  <fix>3d</fix>
</trkpt>
<trkpt lat="-27.274091" lon="151.2900792">
  <ele>356.37</ele>
  <time>2026-09-01T19:55:13Z</time>
  <course>15.02</course>
  <speed>0.0316227766016838</speed>
  <fix>3d</fix>
</trkpt>
<trkpt lat="-27.2740909" lon="151.290079">
  <ele>356.19</ele>
  <time>2026-09-01T19:55:13Z</time>
  <course>196.02</course>
  <speed>0.03</speed>
  <fix>3d</fix>
</trkpt>
<trkpt lat="-27.274091" lon="151.2900792">
  <ele>356.4</ele>
  <time>2026-09-01T19:55:13Z</time>
  <course>15.03</course>
  <speed>0.0316227766016838</speed>
  <fix>3d</fix>
</trkpt>
<trkpt lat="-27.274091" lon="151.2900792">
  <ele>356.46</ele>
  <time>2026-09-01T19:55:13Z</time>
  <course>15.04</course>
  <speed>0.0316227766016838</speed>
  <fix>3d</fix>
</trkpt>
<trkpt lat="-27.274091" lon="151.290079">
  <ele>356.37</ele>
  <time>2026-09-01T19:55:13Z</time>
  <course>196.73</course>
  <speed>0.02</speed>
  <fix>3d</fix>
</trkpt>
<trkpt lat="-27.274091" lon="151.2900792">
  <ele>356.49</ele>
  <time>2026-09-01T19:55:13Z</time>
  <course>15.05</course>
  <speed>0.0316227766016838</speed>
  <fix>3d</fix>
</trkpt>
<trkpt lat="-27.27396" lon="151.2900928">
  <ele>341.999</ele>
  <time>2026-09-01T19:55:13Z</time>
  <course>6.11</course>
  <speed>0.9950376877284599</speed>
  <fix>3d</fix>
</trkpt>
<trkpt lat="-27.2740911" lon="151.2900792">
  <ele>356.55</ele>
  <time>2026-09-01T19:55:13Z</time>
  <course>15.07</course>
  <speed>0.0316227766016838</speed>
  <fix>3d</fix>
</trkpt>
<trkpt lat="-27.274091" lon="151.290079">
  <ele>356.37</ele>
  <time>2026-09-01T19:55:13Z</time>
  <course>196.73</course>
  <speed>0.02</speed>
  <fix>3d</fix>
</trkpt>
<trkpt lat="-27.2740911" lon="151.2900792">
  <ele>356.56</ele>
  <time>2026-09-01T19:55:13Z</time>
  <course>15.07</course>
  <speed>0.0316227766016838</speed>
  <fix>3d</fix>
</trkpt>
<trkpt lat="-27.2740911" lon="151.2900792">
  <ele>356.65</ele>
  <time>2026-09-01T19:55:13Z</time>
  <course>15.08</course>
  <speed>0.022360679774997897</speed>
  <fix>3d</fix>
</trkpt>
<trkpt lat="-27.274091" lon="151.290079">
  <ele>356.55</ele>
  <time>2026-09-01T19:55:13Z</time>
  <course>199.13</course>
  <speed>0.02</speed>
  <fix>3d</fix>
</trkpt>
<trkpt lat="-27.2740911" lon="151.2900792">
  <ele>356.67</ele>
  <time>2026-09-01T19:55:13Z</time>
  <course>15.08</course>
  <speed>0.022360679774997897</speed>
  <fix>3d</fix>
</trkpt>
<trkpt lat="-27.2739582" lon="151.290093">
  <ele>342.0</ele>
  <time>2026-09-01T19:55:13Z</time>
  <course>6.14</course>
  <speed>0.9950376877284599</speed>
  <fix>3d</fix>
</trkpt>
<trkpt lat="-27.2740911" lon="151.2900792">
  <ele>356.74</ele>
  <time>2026-09-01T19:55:13Z</time>
  <course>15.09</course>
  <speed>0.022360679774997897</speed>
  <fix>3d</fix>
</trkpt>
<trkpt lat="-27.274091" lon="151.290079">
  <ele>356.55</ele>
  <time>2026-09-01T19:55:13Z</time>
  <course>199.13</course>
  <speed>0.02</speed>
  <fix>3d</fix>
</trkpt>
<trkpt lat="-27.2740911" lon="151.2900792">
  <ele>356.76</ele>
  <time>2026-09-01T19:55:13Z</time>
  <course>15.09</course>
  <speed>0.022360679774997897</speed>
  <fix>3d</fix>
</trkpt>
<trkpt lat="-27.2740911" lon="151.2900792">
  <ele>356.83</ele>
  <time>2026-09-01T19:55:13Z</time>
  <course>15.08</course>
  <speed>0.022360679774997897</speed>
  <fix>3d</fix>
</trkpt>
<trkpt lat="-27.274091" lon="151.290079">
  <ele>356.73</ele>
  <time>2026-09-01T19:55:13Z</time>
  <course>202.93</course>
  <speed>0.01</speed>
  <fix>3d</fix>
</trkpt>
<trkpt lat="-27.2740911" lon="151.2900792">
  <ele>356.85</ele>
  <time>2026-09-01T19:55:13Z</time>
  <course>15.08</course>
  <speed>0.022360679774997897</speed>
  <fix>3d</fix>
</trkpt>
<trkpt lat="-27.2739564" lon="151.2900932">
  <ele>342.0</ele>
  <time>2026-09-01T19:55:13Z</time>
  <course>6.16</course>
  <speed>0.9950376877284599</speed>
  <fix>3d</fix>
</trkpt>
<trkpt lat="-27.2740911" lon="151.2900792">
  <ele>356.92</ele>
  <time>2026-09-01T19:55:13Z</time>
  <course>15.07</course>
  <speed>0.01414213562373095</speed>
  <fix>3d</fix>
</trkpt>
<trkpt lat="-27.274091" lon="151.290079">
  <ele>356.73</ele>
  <time>2026-09-01T19:55:13Z</time>
  <course>202.93</course>
  <speed>0.01</speed>
  <fix>3d</fix>
</trkpt>
<trkpt lat="-27.2740911" lon="151.2900792">
  <ele>356.93</ele>
  <time>2026-09-01T19:55:13Z</time>
  <course>15.07</course>
  <speed>0.01414213562373095</speed>
  <fix>3d</fix>
</trkpt>
<trkpt lat="-27.2740911" lon="151.2900792">
  <ele>357.01</ele>
  <time>2026-09-01T19:55:13Z</time>
  <course>15.07</course>
  <speed>0.01414213562373095</speed>
  <fix>3d</fix>
</trkpt>
<trkpt lat="-27.2740911" lon="151.290079">
  <ele>356.91</ele>
  <time>2026-09-01T19:55:13Z</time>
  <course>213.07</course>
  <speed>0.0</speed>
  <fix>3d</fix>
</trkpt>
<trkpt lat="-27.2740911" lon="151.2900792">
  <ele>357.03</ele>
  <time>2026-09-01T19:55:13Z</time>
  <course>15.07</course>
  <speed>0.01414213562373095</speed>
  <fix>3d</fix>
</trkpt>
<trkpt lat="-27.2739547" lon="151.2900934">
  <ele>342.0</ele>
  <time>2026-09-01T19:55:13Z</time>
  <course>6.18</course>
  <speed>0.9950376877284599</speed>
  <fix>3d</fix>
</trkpt>
<trkpt lat="-27.2740911" lon="151.2900792">
  <ele>357.1</ele>
  <time>2026-09-01T19:55:13Z</time>
  <course>15.09</course>
  <speed>0.01414213562373095</speed>
  <fix>3d</fix>
</trkpt>
<trkpt lat="-27.2740911" lon="151.290079">
  <ele>356.91</ele>
  <time>2026-09-01T19:55:13Z</time>
  <course>213.07</course>
  <speed>0.0</speed>
  <fix>3d</fix>
</trkpt>
<trkpt lat="-27.2740911" lon="151.2900792">
  <ele>357.11</ele>
  <time>2026-09-01T19:55:13Z</time>
  <course>15.09</course>
  <speed>0.01414213562373095</speed>
  <fix>3d</fix>
</trkpt>
<trkpt lat="-27.2740911" lon="151.2900792">
  <ele>357.19</ele>
  <time>2026-09-01T19:55:13Z</time>
  <course>15.12</course>
  <speed>0.01</speed>
  <fix>3d</fix>
</trkpt>
<trkpt lat="-27.2740911" lon="151.290079">
  <ele>357.09</ele>
  <time>2026-09-01T19:55:13Z</time>
  <course>279.84</course>
  <speed>0.0</speed>
  <fix>3d</fix>
</trkpt>
<trkpt lat="-27.2740911" lon="151.2900792">
  <ele>357.22</ele>
  <time>2026-09-01T19:55:13Z</time>
  <course>15.13</course>
  <speed>0.01</speed>
  <fix>3d</fix>
</trkpt>
<trkpt lat="-27.2739529" lon="151.2900936">
  <ele>342.0</ele>
  <time>2026-09-01T19:55:13Z</time>
  <course>6.21</course>
  <speed>0.9950376877284599</speed>
  <fix>3d</fix>
</trkpt>
<trkpt lat="-27.2740911" lon="151.2900792">
  <ele>357.28</ele>
  <time>2026-09-01T19:55:13Z</time>
  <course>15.15</course>
  <speed>0.01</speed>
  <fix>3d</fix>
</trkpt>
<trkpt lat="-27.2740911" lon="151.290079">
  <ele>357.09</ele>
  <time>2026-09-01T19:55:13Z</time>
  <course>279.84</course>
  <speed>0.0</speed>
  <fix>3d</fix>
</trkpt>
<trkpt lat="-27.2740911" lon="151.2900792">
  <ele>357.28</ele>
  <time>2026-09-01T19:55:13Z</time>
  <course>15.15</course>
  <speed>0.01</speed>
  <fix>3d</fix>
</trkpt>
<trkpt lat="-27.2740911" lon="151.2900792">
  <ele>357.37</ele>
  <time>2026-09-01T19:55:13Z</time>
  <course>15.18</course>
  <speed>0.0</speed>
  <fix>3d</fix>
</trkpt>
<trkpt lat="-27.2740911" lon="151.290079">
  <ele>357.27</ele>
  <time>2026-09-01T19:55:13Z</time>
  <course>319.69</course>
  <speed>0.0</speed>
  <fix>3d</fix>
</trkpt>
<trkpt lat="-27.2740911" lon="151.2900792">
  <ele>357.37</ele>
  <time>2026-09-01T19:55:13Z</time>
  <course>15.18</course>
  <speed>0.0</speed>
  <fix>3d</fix>
</trkpt>
<trkpt lat="-27.2739511" lon="151.2900939">
  <ele>342.0</ele>
  <time>2026-09-01T19:55:13Z</time>
  <course>6.23</course>
  <speed>0.9950376877284599</speed>
  <fix>3d</fix>
</trkpt>
<trkpt lat="-27.2740911" lon="151.2900792">
  <ele>357.46</ele>
  <time>2026-09-01T19:55:13Z</time>
  <course>15.19</course>
  <speed>0.0</speed>
  <fix>3d</fix>
</trkpt>
<trkpt lat="-27.2740911" lon="151.290079">
  <ele>357.27</ele>
  <time>2026-09-01T19:55:13Z</time>
  <course>319.69</course>
  <speed>0.0</speed>
  <fix>3d</fix>
</trkpt>
<trkpt lat="-27.2740911" lon="151.2900792">
  <ele>357.46</ele>
  <time>2026-09-01T19:55:13Z</time>
  <course>15.19</course>
  <speed>0.0</speed>
  <fix>3d</fix>
</trkpt>
<trkpt lat="-27.2740911" lon="151.2900791">
  <ele>357.54</ele>
  <time>2026-09-01T19:55:13Z</time>
  <course>15.2</course>
  <speed>0.0</speed>
  <fix>3d</fix>
</trkpt>
<trkpt lat="-27.2740911" lon="151.290079">
  <ele>357.45</ele>
  <time>2026-09-01T19:55:13Z</time>
  <course>328.09</course>
  <speed>0.01</speed>
  <fix>3d</fix>
</trkpt>
<trkpt lat="-27.2740911" lon="151.2900791">
  <ele>357.56</ele>
  <time>2026-09-01T19:55:13Z</time>
  <course>15.2</course>
  <speed>0.0</speed>
  <fix>3d</fix>
</trkpt>
<trkpt lat="-27.2739493" lon="151.2900941">
  <ele>342.0</ele>
  <time>2026-09-01T19:55:13Z</time>
  <course>6.25</course>
  <speed>0.9950376877284599</speed>
  <fix>3d</fix>
</trkpt>
<trkpt lat="-27.2740911" lon="151.2900791">
  <ele>357.63</ele>
  <time>2026-09-01T19:55:13Z</time>
  <course>15.2</course>
  <speed>0.0</speed>
  <fix>3d</fix>
</trkpt>
<trkpt lat="-27.2740911" lon="151.290079">
  <ele>357.45</ele>
  <time>2026-09-01T19:55:13Z</time>
  <course>328.09</course>
  <speed>0.01</speed>
  <fix>3d</fix>
</trkpt>
<trkpt lat="-27.2740911" lon="151.2900791">
  <ele>357.64</ele>
  <time>2026-09-01T19:55:13Z</time>
  <course>15.2</course>
  <speed>0.0</speed>
  <fix>3d</fix>
</trkpt>
<trkpt lat="-27.2740911" lon="151.2900791">
  <ele>357.72</ele>
  <time>2026-09-01T19:55:13Z</time>
  <course>15.19</course>
  <speed>0.0</speed>
  <fix>3d</fix>
</trkpt>
<trkpt lat="-27.2740911" lon="151.290079">
  <ele>357.62</ele>
  <time>2026-09-01T19:55:13Z</time>
  <course>333.69</course>
  <speed>0.01</speed>
  <fix>3d</fix>
</trkpt>
<trkpt lat="-27.2740911" lon="151.2900791">
  <ele>357.73</ele>
  <time>2026-09-01T19:55:13Z</time>
  <course>15.19</course>
  <speed>0.0</speed>
  <fix>3d</fix>
</trkpt>
<trkpt lat="-27.2739475" lon="151.2900943">
  <ele>342.0</ele>
  <time>2026-09-01T19:55:13Z</time>
  <course>6.27</course>
  <speed>0.9950376877284599</speed>
  <fix>3d</fix>
</trkpt>
<trkpt lat="-27.2740911" lon="151.2900791">
  <ele>357.81</ele>
  <time>2026-09-01T19:55:13Z</time>
  <course>15.19</course>
  <speed>0.0</speed>
  <fix>3d</fix>
</trkpt>
<trkpt lat="-27.2740911" lon="151.290079">
  <ele>357.62</ele>
  <time>2026-09-01T19:55:13Z</time>
  <course>333.69</course>
  <speed>0.01</speed>
  <fix>3d</fix>
</trkpt>
<trkpt lat="-27.2740911" lon="151.2900791">
  <ele>357.81</ele>
  <time>2026-09-01T19:55:13Z</time>
  <course>15.19</course>
  <speed>0.0</speed>
  <fix>3d</fix>
</trkpt>
<trkpt lat="-27.2740911" lon="151.2900791">
  <ele>357.9</ele>
  <time>2026-09-01T19:55:13Z</time>
  <course>15.18</course>
  <speed>0.0</speed>
  <fix>3d</fix>
</trkpt>
<trkpt lat="-27.2740911" lon="151.290079">
  <ele>357.8</ele>
  <time>2026-09-01T19:55:13Z</time>
  <course>337.55</course>
  <speed>0.02</speed>
  <fix>3d</fix>
</trkpt>
<trkpt lat="-27.2740911" lon="151.2900791">
  <ele>357.91</ele>
  <time>2026-09-01T19:55:13Z</time>
  <course>15.18</course>
  <speed>0.0</speed>
  <fix>3d</fix>
</trkpt>
<trkpt lat="-27.2739457" lon="151.2900945">
  <ele>342.0</ele>
  <time>2026-09-01T19:55:13Z</time>
  <course>6.3</course>
  <speed>0.9950376877284599</speed>
  <fix>3d</fix>
</trkpt>
<trkpt lat="-27.2740911" lon="151.2900791">
  <ele>357.99</ele>
  <time>2026-09-01T19:55:13Z</time>
  <course>15.18</course>
  <speed>0.0</speed>
  <fix>3d</fix>
</trkpt>
<trkpt lat="-27.2740911" lon="151.290079">
  <ele>357.8</ele>
  <time>2026-09-01T19:55:13Z</time>
  <course>337.55</course>
  <speed>0.02</speed>
  <fix>3d</fix>
</trkpt>
<trkpt lat="-27.2740911" lon="151.2900791">
  <ele>357.99</ele>
  <time>2026-09-01T19:55:13Z</time>
  <course>15.18</course>
  <speed>0.0</speed>
  <fix>3d</fix>
</trkpt>
<trkpt lat="-27.2740911" lon="151.2900791">
  <ele>358.08</ele>
  <time>2026-09-01T19:55:13Z</time>
  <course>15.18</course>
  <speed>0.01</speed>
  <fix>3d</fix>
</trkpt>
<trkpt lat="-27.274091" lon="151.2900789">
  <ele>357.98</ele>
  <time>2026-09-01T19:55:13Z</time>
  <course>339.95</course>
  <speed>0.02</speed>
  <fix>3d</fix>
</trkpt>
<trkpt lat="-27.2740911" lon="151.2900791">
  <ele>358.1</ele>
  <time>2026-09-01T19:55:13Z</time>
  <course>15.18</course>
  <speed>0.01</speed>
  <fix>3d</fix>
</trkpt>
<trkpt lat="-27.2739439" lon="151.2900947">
  <ele>342.0</ele>
  <time>2026-09-01T19:55:13Z</time>
  <course>6.32</course>
  <speed>0.9960923651951158</speed>
  <fix>3d</fix>
</trkpt>
<trkpt lat="-27.2740911" lon="151.2900791">
  <ele>358.17</ele>
  <time>2026-09-01T19:55:13Z</time>
  <course>15.19</course>
  <speed>0.01</speed>
  <fix>3d</fix>
</trkpt>
<trkpt lat="-27.274091" lon="151.2900789">
  <ele>357.98</ele>
  <time>2026-09-01T19:55:13Z</time>
  <course>339.95</course>
  <speed>0.02</speed>
  <fix>3d</fix>
</trkpt>
<trkpt lat="-27.2740911" lon="151.2900791">
  <ele>358.17</ele>
  <time>2026-09-01T19:55:13Z</time>
  <course>15.19</course>
  <speed>0.01</speed>
  <fix>3d</fix>
</trkpt>
<trkpt lat="-27.2740911" lon="151.2900791">
  <ele>358.26</ele>
  <time>2026-09-01T19:55:13Z</time>
  <course>15.2</course>
  <speed>0.01</speed>
  <fix>3d</fix>
</trkpt>
<trkpt lat="-27.274091" lon="151.2900789">
  <ele>358.16</ele>
  <time>2026-09-01T19:55:13Z</time>
  <course>342.68</course>
  <speed>0.03</speed>
  <fix>3d</fix>
</trkpt>
<trkpt lat="-27.2740911" lon="151.2900791">
  <ele>358.26</ele>
  <time>2026-09-01T19:55:13Z</time>
  <course>15.2</course>
  <speed>0.01</speed>
  <fix>3d</fix>
</trkpt>
<trkpt lat="-27.2739422" lon="151.290095">
  <ele>342.0</ele>
  <time>2026-09-01T19:55:13Z</time>
  <course>6.34</course>
  <speed>0.9960923651951158</speed>
  <fix>3d</fix>
</trkpt>
<trkpt lat="-27.274091" lon="151.2900791">
  <ele>358.35</ele>
  <time>2026-09-01T19:55:13Z</time>
  <course>15.21</course>
  <speed>0.01</speed>
  <fix>3d</fix>
</trkpt>
<trkpt lat="-27.274091" lon="151.2900789">
  <ele>358.16</ele>
  <time>2026-09-01T19:55:13Z</time>
  <course>342.68</course>
  <speed>0.03</speed>
  <fix>3d</fix>
</trkpt>
<trkpt lat="-27.274091" lon="151.2900791">
  <ele>358.36</ele>
  <time>2026-09-01T19:55:13Z</time>
  <course>15.21</course>
  <speed>0.01</speed>
  <fix>3d</fix>
</trkpt>
<trkpt lat="-27.274091" lon="151.2900791">
  <ele>358.44</ele>
  <time>2026-09-01T19:55:13Z</time>
  <course>15.21</course>
  <speed>0.01</speed>
  <fix>3d</fix>
</trkpt>
<trkpt lat="-27.2740909" lon="151.2900789">
  <ele>358.34</ele>
  <time>2026-09-01T19:55:13Z</time>
  <course>345.2</course>
  <speed>0.03</speed>
  <fix>3d</fix>
</trkpt>
<trkpt lat="-27.274091" lon="151.2900791">
  <ele>358.47</ele>
  <time>2026-09-01T19:55:13Z</time>
  <course>15.22</course>
  <speed>0.01</speed>
  <fix>3d</fix>
</trkpt>
<trkpt lat="-27.2739404" lon="151.2900952">
  <ele>342.0</ele>
  <time>2026-09-01T19:55:13Z</time>
  <course>6.37</course>
  <speed>0.9960923651951158</speed>
  <fix>3d</fix>
</trkpt>
<trkpt lat="-27.274091" lon="151.290079">
  <ele>358.52</ele>
  <time>2026-09-01T19:55:13Z</time>
  <course>15.22</course>
  <speed>0.02</speed>
  <fix>3d</fix>
</trkpt>
<trkpt lat="-27.2740909" lon="151.2900789">
  <ele>358.34</ele>
  <time>2026-09-01T19:55:13Z</time>
  <course>345.2</course>
  <speed>0.03</speed>
  <fix>3d</fix>
</trkpt>
<trkpt lat="-27.274091" lon="151.290079">
  <ele>358.53</ele>
  <time>2026-09-01T19:55:13Z</time>
  <course>15.22</course>
  <speed>0.02</speed>
  <fix>3d</fix>
</trkpt>
<trkpt lat="-27.2740909" lon="151.290079">
  <ele>358.61</ele>
  <time>2026-09-01T19:55:13Z</time>
  <course>15.23</course>
  <speed>0.02</speed>
  <fix>3d</fix>
</trkpt>
<trkpt lat="-27.2740908" lon="151.2900789">
  <ele>358.52</ele>
  <time>2026-09-01T19:55:13Z</time>
  <course>346.99</course>
  <speed>0.03</speed>
  <fix>3d</fix>
</trkpt>
<trkpt lat="-27.2740909" lon="151.290079">
  <ele>358.64</ele>
  <time>2026-09-01T19:55:13Z</time>
  <course>15.23</course>
  <speed>0.02</speed>
  <fix>3d</fix>
</trkpt>
<trkpt lat="-27.2739386" lon="151.2900954">
  <ele>342.0</ele>
  <time>2026-09-01T19:55:13Z</time>
  <course>6.39</course>
  <speed>0.9960923651951158</speed>
  <fix>3d</fix>
</trkpt>
<trkpt lat="-27.2740909" lon="151.290079">
  <ele>358.71</ele>
  <time>2026-09-01T19:55:13Z</time>
  <course>15.24</course>
  <speed>0.02</speed>
  <fix>3d</fix>
</trkpt>
<trkpt lat="-27.2740908" lon="151.2900789">
  <ele>358.52</ele>
  <time>2026-09-01T19:55:13Z</time>
  <course>346.99</course>
  <speed>0.03</speed>
  <fix>3d</fix>
</trkpt>
<trkpt lat="-27.2740909" lon="151.290079">
  <ele>358.71</ele>
  <time>2026-09-01T19:55:13Z</time>
  <course>15.24</course>
  <speed>0.02</speed>
  <fix>3d</fix>
</trkpt>
<trkpt lat="-27.2740909" lon="151.290079">
  <ele>358.8</ele>
  <time>2026-09-01T19:55:13Z</time>
  <course>15.25</course>
  <speed>0.02</speed>
  <fix>3d</fix>
</trkpt>
<trkpt lat="-27.2740908" lon="151.2900789">
  <ele>358.71</ele>
  <time>2026-09-01T19:55:13Z</time>
  <course>347.85</course>
  <speed>0.04</speed>
  <fix>3d</fix>
</trkpt>
<trkpt lat="-27.2740909" lon="151.290079">
  <ele>358.81</ele>
  <time>2026-09-01T19:55:13Z</time>
  <course>15.25</course>
  <speed>0.02</speed>
  <fix>3d</fix>
</trkpt>
<trkpt lat="-27.2739368" lon="151.2900956">
  <ele>342.0</ele>
  <time>2026-09-01T19:55:13Z</time>
  <course>6.41</course>
  <speed>0.9960923651951158</speed>
  <fix>3d</fix>
</trkpt>
<trkpt lat="-27.2740908" lon="151.290079">
  <ele>358.89</ele>
  <time>2026-09-01T19:55:13Z</time>
  <course>15.26</course>
  <speed>0.02</speed>
  <fix>3d</fix>
</trkpt>
<trkpt lat="-27.2740908" lon="151.2900789">
  <ele>358.71</ele>
  <time>2026-09-01T19:55:13Z</time>
  <course>347.85</course>
  <speed>0.04</speed>
  <fix>3d</fix>
</trkpt>
<trkpt lat="-27.2740908" lon="151.290079">
  <ele>358.89</ele>
  <time>2026-09-01T19:55:13Z</time>
  <course>15.26</course>
  <speed>0.02</speed>
  <fix>3d</fix>
</trkpt>
<trkpt lat="-27.2740908" lon="151.290079">
  <ele>358.98</ele>
  <time>2026-09-01T19:55:13Z</time>
  <course>15.26</course>
  <speed>0.02</speed>
  <fix>3d</fix>
</trkpt>
<trkpt lat="-27.2740907" lon="151.2900788">
  <ele>358.89</ele>
  <time>2026-09-01T19:55:13Z</time>
  <course>348.3</course>
  <speed>0.04</speed>
  <fix>3d</fix>
</trkpt>
<trkpt lat="-27.2740908" lon="151.290079">
  <ele>358.99</ele>
  <time>2026-09-01T19:55:13Z</time>
  <course>15.26</course>
  <speed>0.02</speed>
  <fix>3d</fix>
</trkpt>
<trkpt lat="-27.273935" lon="151.2900959">
  <ele>342.0</ele>
  <time>2026-09-01T19:55:13Z</time>
  <course>6.44</course>
  <speed>0.9960923651951158</speed>
  <fix>3d</fix>
</trkpt>
<trkpt lat="-27.2740908" lon="151.290079">
  <ele>359.07</ele>
  <time>2026-09-01T19:55:13Z</time>
  <course>15.26</course>
  <speed>0.02</speed>
  <fix>3d</fix>
</trkpt>
<trkpt lat="-27.2740907" lon="151.2900788">
  <ele>358.89</ele>
  <time>2026-09-01T19:55:13Z</time>
  <course>348.3</course>
  <speed>0.04</speed>
  <fix>3d</fix>
</trkpt>
<trkpt lat="-27.2740908" lon="151.290079">
  <ele>359.08</ele>
  <time>2026-09-01T19:55:13Z</time>
  <course>15.26</course>
  <speed>0.02</speed>
  <fix>3d</fix>
</trkpt>
<trkpt lat="-27.2740907" lon="151.290079">
  <ele>359.16</ele>
  <time>2026-09-01T19:55:13Z</time>
  <course>15.26</course>
  <speed>0.02</speed>
  <fix>3d</fix>
</trkpt>
<trkpt lat="-27.2740906" lon="151.2900788">
  <ele>359.07</ele>
  <time>2026-09-01T19:55:13Z</time>
  <course>349.73</course>
  <speed>0.04</speed>
  <fix>3d</fix>
</trkpt>
<trkpt lat="-27.2740907" lon="151.290079">
  <ele>359.18</ele>
  <time>2026-09-01T19:55:13Z</time>
  <course>15.26</course>
  <speed>0.02</speed>
  <fix>3d</fix>
</trkpt>
<trkpt lat="-27.2739332" lon="151.2900961">
  <ele>342.0</ele>
  <time>2026-09-01T19:55:13Z</time>
  <course>6.46</course>
  <speed>0.9960923651951158</speed>
  <fix>3d</fix>
</trkpt>
<trkpt lat="-27.2740907" lon="151.290079">
  <ele>359.25</ele>
  <time>2026-09-01T19:55:13Z</time>
  <course>15.26</course>
  <speed>0.02</speed>
  <fix>3d</fix>
</trkpt>
<trkpt lat="-27.2740906" lon="151.2900788">
  <ele>359.07</ele>
  <time>2026-09-01T19:55:13Z</time>
  <course>349.73</course>
  <speed>0.04</speed>
  <fix>3d</fix>
</trkpt>
<trkpt lat="-27.2740907" lon="151.290079">
  <ele>359.26</ele>
  <time>2026-09-01T19:55:13Z</time>
  <course>15.26</course>
  <speed>0.02</speed>
  <fix>3d</fix>
</trkpt>
<trkpt lat="-27.2740907" lon="151.2900789">
  <ele>359.34</ele>
  <time>2026-09-01T19:55:13Z</time>
  <course>15.27</course>
  <speed>0.02</speed>
  <fix>3d</fix>
</trkpt>
<trkpt lat="-27.2740905" lon="151.2900788">
  <ele>359.26</ele>
  <time>2026-09-01T19:55:13Z</time>
  <course>351.57</course>
  <speed>0.04</speed>
  <fix>3d</fix>
</trkpt>
<trkpt lat="-27.2740907" lon="151.2900789">
  <ele>359.35</ele>
  <time>2026-09-01T19:55:13Z</time>
  <course>15.27</course>
  <speed>0.02</speed>
  <fix>3d</fix>
</trkpt>
<trkpt lat="-27.2739314" lon="151.2900963">
  <ele>342.0</ele>
  <time>2026-09-01T19:55:13Z</time>
  <course>6.48</course>
  <speed>0.9960923651951158</speed>
  <fix>3d</fix>
</trkpt>
<trkpt lat="-27.2740906" lon="151.2900789">
  <ele>359.43</ele>
  <time>2026-09-01T19:55:13Z</time>
  <course>15.28</course>
  <speed>0.02</speed>
  <fix>3d</fix>
</trkpt>
<trkpt lat="-27.2740905" lon="151.2900788">
  <ele>359.26</ele>
  <time>2026-09-01T19:55:13Z</time>
  <course>351.57</course>
  <speed>0.04</speed>
  <fix>3d</fix>
</trkpt>
<trkpt lat="-27.2740906" lon="151.2900789">
  <ele>359.44</ele>
  <time>2026-09-01T19:55:13Z</time>
  <course>15.28</course>
  <speed>0.02</speed>
  <fix>3d</fix>
</trkpt>
<trkpt lat="-27.2740906" lon="151.2900789">
  <ele>359.52</ele>
  <time>2026-09-01T19:55:13Z</time>
  <course>15.28</course>
  <speed>0.02</speed>
  <fix>3d</fix>
</trkpt>
<trkpt lat="-27.2740904" lon="151.2900788">
  <ele>359.44</ele>
  <time>2026-09-01T19:55:13Z</time>
  <course>352.44</course>
  <speed>0.04</speed>
  <fix>3d</fix>
</trkpt>
<trkpt lat="-27.2740906" lon="151.2900789">
  <ele>359.54</ele>
  <time>2026-09-01T19:55:13Z</time>
  <course>15.29</course>
  <speed>0.02</speed>
  <fix>3d</fix>
</trkpt>
<trkpt lat="-27.2739297" lon="151.2900965">
  <ele>342.0</ele>
  <time>2026-09-01T19:55:13Z</time>
  <course>6.5</course>
  <speed>0.9960923651951158</speed>
  <fix>3d</fix>
</trkpt>
<trkpt lat="-27.2740905" lon="151.2900789">
  <ele>359.61</ele>
  <time>2026-09-01T19:55:13Z</time>
  <course>15.29</course>
  <speed>0.01</speed>
  <fix>3d</fix>
</trkpt>
<trkpt lat="-27.2740904" lon="151.2900788">
  <ele>359.44</ele>
  <time>2026-09-01T19:55:13Z</time>
  <course>352.44</course>
  <speed>0.04</speed>
  <fix>3d</fix>
</trkpt>
<trkpt lat="-27.2740905" lon="151.2900789">
  <ele>359.61</ele>
  <time>2026-09-01T19:55:13Z</time>
  <course>15.29</course>
  <speed>0.01</speed>
  <fix>3d</fix>
</trkpt>
<trkpt lat="-27.2740905" lon="151.2900789">
  <ele>359.7</ele>
  <time>2026-09-01T19:55:13Z</time>
  <course>15.3</course>
  <speed>0.01</speed>
  <fix>3d</fix>
</trkpt>
<trkpt lat="-27.2740904" lon="151.2900788">
  <ele>359.62</ele>
  <time>2026-09-01T19:55:13Z</time>
  <course>353.25</course>
  <speed>0.04</speed>
  <fix>3d</fix>
</trkpt>
<trkpt lat="-27.2740905" lon="151.2900789">
  <ele>359.74</ele>
  <time>2026-09-01T19:55:13Z</time>
  <course>15.3</course>
  <speed>0.01</speed>
  <fix>3d</fix>
</trkpt>
<trkpt lat="-27.2739279" lon="151.2900968">
  <ele>342.0</ele>
  <time>2026-09-01T19:55:13Z</time>
  <course>6.53</course>
  <speed>0.9960923651951158</speed>
  <fix>3d</fix>
</trkpt>
<trkpt lat="-27.2740905" lon="151.2900789">
  <ele>359.79</ele>
  <time>2026-09-01T19:55:13Z</time>
  <course>15.3</course>
  <speed>0.01</speed>
  <fix>3d</fix>
</trkpt>
<trkpt lat="-27.2740904" lon="151.2900788">
  <ele>359.62</ele>
  <time>2026-09-01T19:55:13Z</time>
  <course>353.25</course>
  <speed>0.04</speed>
  <fix>3d</fix>
</trkpt>
<trkpt lat="-27.2740905" lon="151.2900789">
  <ele>359.79</ele>
  <time>2026-09-01T19:55:13Z</time>
  <course>15.3</course>
  <speed>0.01</speed>
  <fix>3d</fix>
</trkpt>
<trkpt lat="-27.2740904" lon="151.2900789">
  <ele>359.88</ele>
  <time>2026-09-01T19:55:13Z</time>
  <course>15.32</course>
  <speed>0.01</speed>
  <fix>3d</fix>
</trkpt>
<trkpt lat="-27.2740903" lon="151.2900788">
  <ele>359.81</ele>
  <time>2026-09-01T19:55:13Z</time>
  <course>355.42</course>
  <speed>0.03</speed>
  <fix>3d</fix>
</trkpt>
<trkpt lat="-27.2740904" lon="151.2900789">
  <ele>359.89</ele>
  <time>2026-09-01T19:55:13Z</time>
  <course>15.32</course>
  <speed>0.01</speed>
  <fix>3d</fix>
</trkpt>
<trkpt lat="-27.2739261" lon="151.290097">
  <ele>342.0</ele>
  <time>2026-09-01T19:55:13Z</time>
  <course>6.55</course>
  <speed>0.9960923651951158</speed>
  <fix>3d</fix>
</trkpt>
<trkpt lat="-27.2740904" lon="151.2900789">
  <ele>359.97</ele>
  <time>2026-09-01T19:55:13Z</time>
  <course>15.33</course>
  <speed>0.01</speed>
  <fix>3d</fix>
</trkpt>
<trkpt lat="-27.2740903" lon="151.2900788">
  <ele>359.81</ele>
  <time>2026-09-01T19:55:13Z</time>
  <course>355.42</course>
  <speed>0.03</speed>
  <fix>3d</fix>
</trkpt>
<trkpt lat="-27.2740904" lon="151.2900789">
  <ele>359.97</ele>
  <time>2026-09-01T19:55:13Z</time>
  <course>15.33</course>
  <speed>0.01</speed>
  <fix>3d</fix>
</trkpt>
<trkpt lat="-27.2740904" lon="151.2900789">
  <ele>360.06</ele>
  <time>2026-09-01T19:55:13Z</time>
  <course>15.34</course>
  <speed>0.01</speed>
  <fix>3d</fix>
</trkpt>
<trkpt lat="-27.2740902" lon="151.2900788">
  <ele>359.99</ele>
  <time>2026-09-01T19:55:13Z</time>
  <course>358.23</course>
  <speed>0.03</speed>
  <fix>3d</fix>
</trkpt>
<trkpt lat="-27.2740904" lon="151.2900789">
  <ele>360.08</ele>
  <time>2026-09-01T19:55:13Z</time>
  <course>15.34</course>
  <speed>0.01</speed>
  <fix>3d</fix>
</trkpt>
<trkpt lat="-27.2739243" lon="151.2900972">
  <ele>341.999</ele>
  <time>2026-09-01T19:55:13Z</time>
  <course>6.57</course>
  <speed>0.9960923651951158</speed>
  <fix>3d</fix>
</trkpt>
<trkpt lat="-27.2740904" lon="151.2900789">
  <ele>360.15</ele>
  <time>2026-09-01T19:55:13Z</time>
  <course>15.35</course>
  <speed>0.01</speed>
  <fix>3d</fix>
</trkpt>
<trkpt lat="-27.2740902" lon="151.2900788">
  <ele>359.99</ele>
  <time>2026-09-01T19:55:13Z</time>
  <course>358.23</course>
  <speed>0.03</speed>
  <fix>3d</fix>
</trkpt>
<trkpt lat="-27.2740904" lon="151.2900789">
  <ele>360.15</ele>
  <time>2026-09-01T19:55:13Z</time>
  <course>15.35</course>
  <speed>0.01</speed>
  <fix>3d</fix>
</trkpt>
<trkpt lat="-27.2740903" lon="151.2900789">
  <ele>360.24</ele>
  <time>2026-09-01T19:55:13Z</time>
  <course>15.36</course>
  <speed>0.0</speed>
  <fix>3d</fix>
</trkpt>
<trkpt lat="-27.2740902" lon="151.2900788">
  <ele>360.17</ele>
  <time>2026-09-01T19:55:13Z</time>
  <course>0.57</course>
  <speed>0.03</speed>
  <fix>3d</fix>
</trkpt>
<trkpt lat="-27.2740903" lon="151.2900789">
  <ele>360.26</ele>
  <time>2026-09-01T19:55:13Z</time>
  <course>15.37</course>
  <speed>0.0</speed>
  <fix>3d</fix>
</trkpt>
<trkpt lat="-27.2739225" lon="151.2900975">
  <ele>342.0</ele>
  <time>2026-09-01T19:55:13Z</time>
  <course>6.6</course>
  <speed>0.9960923651951158</speed>
  <fix>3d</fix>
</trkpt>
<trkpt lat="-27.2740903" lon="151.2900789">
  <ele>360.34</ele>
  <time>2026-09-01T19:55:13Z</time>
  <course>15.37</course>
  <speed>0.0</speed>
  <fix>3d</fix>
</trkpt>
<trkpt lat="-27.2740902" lon="151.2900788">
  <ele>360.17</ele>
  <time>2026-09-01T19:55:13Z</time>
  <course>0.57</course>
  <speed>0.03</speed>
  <fix>3d</fix>
</trkpt>
<trkpt lat="-27.2740903" lon="151.2900789">
  <ele>360.36</ele>
  <time>2026-09-01T19:55:13Z</time>
  <course>15.38</course>
  <speed>0.0</speed>
  <fix>3d</fix>
</trkpt>
<trkpt lat="-27.2740903" lon="151.2900789">
  <ele>360.43</ele>
  <time>2026-09-01T19:55:13Z</time>
  <course>15.38</course>
  <speed>0.0</speed>
  <fix>3d</fix>
</trkpt>
<trkpt lat="-27.2740901" lon="151.2900788">
  <ele>360.36</ele>
  <time>2026-09-01T19:55:13Z</time>
  <course>3.43</course>
  <speed>0.02</speed>
  <fix>3d</fix>
</trkpt>
<trkpt lat="-27.2740903" lon="151.2900789">
  <ele>360.47</ele>
  <time>2026-09-01T19:55:13Z</time>
  <course>15.39</course>
  <speed>0.0</speed>
  <fix>3d</fix>
</trkpt>
<trkpt lat="-27.2739207" lon="151.2900977">
  <ele>342.0</ele>
  <time>2026-09-01T19:55:13Z</time>
  <course>6.62</course>
  <speed>0.9960923651951158</speed>
  <fix>3d</fix>
</trkpt>
<trkpt lat="-27.2740903" lon="151.2900789">
  <ele>360.53</ele>
  <time>2026-09-01T19:55:13Z</time>
  <course>15.4</course>
  <speed>0.0</speed>
  <fix>3d</fix>
</trkpt>
<trkpt lat="-27.2740901" lon="151.2900788">
  <ele>360.36</ele>
  <time>2026-09-01T19:55:13Z</time>
  <course>3.43</course>
  <speed>0.02</speed>
  <fix>3d</fix>
</trkpt>
<trkpt lat="-27.2740903" lon="151.2900789">
  <ele>360.53</ele>
  <time>2026-09-01T19:55:13Z</time>
  <course>15.4</course>
  <speed>0.0</speed>
  <fix>3d</fix>
</trkpt>
<trkpt lat="-27.2740902" lon="151.2900789">
  <ele>360.62</ele>
  <time>2026-09-01T19:55:13Z</time>
  <course>15.41</course>
  <speed>0.0</speed>
  <fix>3d</fix>
</trkpt>
<trkpt lat="-27.2740901" lon="151.2900788">
  <ele>360.54</ele>
  <time>2026-09-01T19:55:13Z</time>
  <course>6.35</course>
  <speed>0.02</speed>
  <fix>3d</fix>
</trkpt>
<trkpt lat="-27.2740902" lon="151.2900789">
  <ele>360.65</ele>
  <time>2026-09-01T19:55:13Z</time>
  <course>15.41</course>
  <speed>0.0</speed>
  <fix>3d</fix>
</trkpt>
<trkpt lat="-27.2739189" lon="151.2900979">
  <ele>342.0</ele>
  <time>2026-09-01T19:55:13Z</time>
  <course>6.64</course>
  <speed>0.9960923651951158</speed>
  <fix>3d</fix>
</trkpt>
<trkpt lat="-27.2740902" lon="151.2900789">
  <ele>360.72</ele>
  <time>2026-09-01T19:55:13Z</time>
  <course>15.41</course>
  <speed>0.0</speed>
  <fix>3d</fix>
</trkpt>
<trkpt lat="-27.2740901" lon="151.2900788">
  <ele>360.54</ele>
  <time>2026-09-01T19:55:13Z</time>
  <course>6.35</course>
  <speed>0.02</speed>
  <fix>3d</fix>
</trkpt>
<trkpt lat="-27.2740902" lon="151.2900789">
  <ele>360.72</ele>
  <time>2026-09-01T19:55:13Z</time>
  <course>15.41</course>
  <speed>0.0</speed>
  <fix>3d</fix>
</trkpt>
<trkpt lat="-27.2740902" lon="151.2900789">
  <ele>360.81</ele>
  <time>2026-09-01T19:55:13Z</time>
  <course>15.42</course>
  <speed>0.0</speed>
  <fix>3d</fix>
</trkpt>
<trkpt lat="-27.27409" lon="151.2900788">
  <ele>360.72</ele>
  <time>2026-09-01T19:55:13Z</time>
  <course>8.8</course>
  <speed>0.02</speed>
  <fix>3d</fix>
</trkpt>
<trkpt lat="-27.2740902" lon="151.2900789">
  <ele>360.83</ele>
  <time>2026-09-01T19:55:13Z</time>
  <course>15.42</course>
  <speed>0.0</speed>
  <fix>3d</fix>
</trkpt>
<trkpt lat="-27.2739172" lon="151.2900982">
  <ele>342.0</ele>
  <time>2026-09-01T19:55:13Z</time>
  <course>6.66</course>
  <speed>0.9960923651951158</speed>
  <fix>3d</fix>
</trkpt>
<trkpt lat="-27.2740902" lon="151.2900789">
  <ele>360.91</ele>
  <time>2026-09-01T19:55:13Z</time>
  <course>15.43</course>
  <speed>0.0</speed>
  <fix>3d</fix>
</trkpt>
<trkpt lat="-27.27409" lon="151.2900788">
  <ele>360.72</ele>
  <time>2026-09-01T19:55:13Z</time>
  <course>8.8</course>
  <speed>0.02</speed>
  <fix>3d</fix>
</trkpt>
<trkpt lat="-27.2740902" lon="151.2900789">
  <ele>360.91</ele>
  <time>2026-09-01T19:55:13Z</time>
  <course>15.43</course>
  <speed>0.0</speed>
  <fix>3d</fix>
</trkpt>
<trkpt lat="-27.2740902" lon="151.2900789">
  <ele>361.0</ele>
  <time>2026-09-01T19:55:13Z</time>
  <course>15.44</course>
  <speed>0.0</speed>
  <fix>3d</fix>
</trkpt>
<trkpt lat="-27.27409" lon="151.2900788">
  <ele>360.91</ele>
  <time>2026-09-01T19:55:13Z</time>
  <course>11.88</course>
  <speed>0.01</speed>
  <fix>3d</fix>
</trkpt>
<trkpt lat="-27.2740902" lon="151.2900789">
  <ele>361.03</ele>
  <time>2026-09-01T19:55:13Z</time>
  <course>15.44</course>
  <speed>0.0</speed>
  <fix>3d</fix>
</trkpt>
<trkpt lat="-27.2739154" lon="151.2900984">
  <ele>342.0</ele>
  <time>2026-09-01T19:55:13Z</time>
  <course>6.69</course>
  <speed>0.9960923651951158</speed>
  <fix>3d</fix>
</trkpt>
<trkpt lat="-27.2740902" lon="151.2900789">
  <ele>361.09</ele>
  <time>2026-09-01T19:55:13Z</time>
  <course>15.45</course>
  <speed>0.0</speed>
  <fix>3d</fix>
</trkpt>
<trkpt lat="-27.27409" lon="151.2900788">
  <ele>360.91</ele>
  <time>2026-09-01T19:55:13Z</time>
  <course>11.88</course>
  <speed>0.01</speed>
  <fix>3d</fix>
</trkpt>
<trkpt lat="-27.2740902" lon="151.2900789">
  <ele>361.09</ele>
  <time>2026-09-01T19:55:13Z</time>
  <course>15.45</course>
  <speed>0.0</speed>
  <fix>3d</fix>
</trkpt>
<trkpt lat="-27.2740901" lon="151.2900789">
  <ele>361.18</ele>
  <time>2026-09-01T19:55:13Z</time>
  <course>15.46</course>
  <speed>0.0</speed>
  <fix>3d</fix>
</trkpt>
<trkpt lat="-27.27409" lon="151.2900788">
  <ele>361.09</ele>
  <time>2026-09-01T19:55:13Z</time>
  <course>15.38</course>
  <speed>0.01</speed>
  <fix>3d</fix>
</trkpt>
<trkpt lat="-27.2740901" lon="151.2900789">
  <ele>361.19</ele>
  <time>2026-09-01T19:55:13Z</time>
  <course>15.46</course>
  <speed>0.0</speed>
  <fix>3d</fix>
</trkpt>
<trkpt lat="-27.2739136" lon="151.2900986">
  <ele>342.0</ele>
  <time>2026-09-01T19:55:13Z</time>
  <course>6.71</course>
  <speed>0.9960923651951158</speed>
  <fix>3d</fix>
</trkpt>
<trkpt lat="-27.2740901" lon="151.2900789">
  <ele>361.27</ele>
  <time>2026-09-01T19:55:13Z</time>
  <course>15.46</course>
  <speed>0.01</speed>
  <fix>3d</fix>
</trkpt>
<trkpt lat="-27.27409" lon="151.2900788">
  <ele>361.09</ele>
  <time>2026-09-01T19:55:13Z</time>
  <course>15.38</course>
  <speed>0.01</speed>
  <fix>3d</fix>
</trkpt>
<trkpt lat="-27.2740901" lon="151.2900789">
  <ele>361.27</ele>
  <time>2026-09-01T19:55:13Z</time>
  <course>15.46</course>
  <speed>0.01</speed>
  <fix>3d</fix>
</trkpt>
<trkpt lat="-27.2740901" lon="151.2900789">
  <ele>361.36</ele>
  <time>2026-09-01T19:55:13Z</time>
  <course>15.47</course>
  <speed>0.01</speed>
  <fix>3d</fix>
</trkpt>
<trkpt lat="-27.27409" lon="151.2900788">
  <ele>361.27</ele>
  <time>2026-09-01T19:55:13Z</time>
  <course>19.8</course>
  <speed>0.01</speed>
  <fix>3d</fix>
</trkpt>
<trkpt lat="-27.2740901" lon="151.2900789">
  <ele>361.36</ele>
  <time>2026-09-01T19:55:13Z</time>
  <course>15.47</course>
  <speed>0.01</speed>
  <fix>3d</fix>
</trkpt>
<trkpt lat="-27.2739118" lon="151.2900989">
  <ele>342.0</ele>
  <time>2026-09-01T19:55:13Z</time>
  <course>6.73</course>
  <speed>0.9960923651951158</speed>
  <fix>3d</fix>
</trkpt>
<trkpt lat="-27.2740901" lon="151.2900789">
  <ele>361.45</ele>
  <time>2026-09-01T19:55:13Z</time>
  <course>15.49</course>
  <speed>0.01</speed>
  <fix>3d</fix>
</trkpt>
<trkpt lat="-27.27409" lon="151.2900788">
  <ele>361.27</ele>
  <time>2026-09-01T19:55:13Z</time>
  <course>19.8</course>
  <speed>0.01</speed>
  <fix>3d</fix>
</trkpt>
<trkpt lat="-27.2740901" lon="151.2900789">
  <ele>361.45</ele>
  <time>2026-09-01T19:55:13Z</time>
  <course>15.49</course>
  <speed>0.01</speed>
  <fix>3d</fix>
</trkpt>
<trkpt lat="-27.2740901" lon="151.2900789">
  <ele>361.54</ele>
  <time>2026-09-01T19:55:13Z</time>
  <course>15.5</course>
  <speed>0.01</speed>
  <fix>3d</fix>
</trkpt>
<trkpt lat="-27.2740899" lon="151.2900788">
  <ele>361.44</ele>
  <time>2026-09-01T19:55:13Z</time>
  <course>26.85</course>
  <speed>0.0</speed>
  <fix>3d</fix>
</trkpt>
<trkpt lat="-27.2740901" lon="151.2900789">
  <ele>361.56</ele>
  <time>2026-09-01T19:55:13Z</time>
  <course>15.5</course>
  <speed>0.01</speed>
  <fix>3d</fix>
</trkpt>
<trkpt lat="-27.27391" lon="151.2900991">
  <ele>342.0</ele>
  <time>2026-09-01T19:55:13Z</time>
  <course>6.76</course>
  <speed>0.9960923651951158</speed>
  <fix>3d</fix>
</trkpt>
<trkpt lat="-27.2740901" lon="151.2900789">
  <ele>361.63</ele>
  <time>2026-09-01T19:55:13Z</time>
  <course>15.51</course>
  <speed>0.01</speed>
  <fix>3d</fix>
</trkpt>
<trkpt lat="-27.2740899" lon="151.2900788">
  <ele>361.44</ele>
  <time>2026-09-01T19:55:13Z</time>
  <course>26.85</course>
  <speed>0.0</speed>
  <fix>3d</fix>
</trkpt>
<trkpt lat="-27.2740901" lon="151.2900789">
  <ele>361.63</ele>
  <time>2026-09-01T19:55:13Z</time>
  <course>15.51</course>
  <speed>0.01</speed>
  <fix>3d</fix>
</trkpt>
<trkpt lat="-27.2740901" lon="151.2900789">
  <ele>361.71</ele>
  <time>2026-09-01T19:55:13Z</time>
  <course>15.52</course>
  <speed>0.01</speed>
  <fix>3d</fix>
</trkpt>
<trkpt lat="-27.2740899" lon="151.2900788">
  <ele>361.62</ele>
  <time>2026-09-01T19:55:13Z</time>
  <course>41.71</course>
  <speed>0.0</speed>
  <fix>3d</fix>
</trkpt>
<trkpt lat="-27.2740901" lon="151.2900789">
  <ele>361.74</ele>
  <time>2026-09-01T19:55:13Z</time>
  <course>15.52</course>
  <speed>0.02</speed>
  <fix>3d</fix>
</trkpt>
<trkpt lat="-27.2739082" lon="151.2900994">
  <ele>342.0</ele>
  <time>2026-09-01T19:55:13Z</time>
  <course>6.78</course>
  <speed>0.9960923651951158</speed>
  <fix>3d</fix>
</trkpt>
<trkpt lat="-27.2740901" lon="151.2900789">
  <ele>361.8</ele>
  <time>2026-09-01T19:55:13Z</time>
  <course>15.53</course>
  <speed>0.02</speed>
  <fix>3d</fix>
</trkpt>
<trkpt lat="-27.2740899" lon="151.2900788">
  <ele>361.62</ele>
  <time>2026-09-01T19:55:13Z</time>
  <course>41.71</course>
  <speed>0.0</speed>
  <fix>3d</fix>
</trkpt>
<trkpt lat="-27.2740901" lon="151.2900789">
  <ele>361.81</ele>
  <time>2026-09-01T19:55:13Z</time>
  <course>15.53</course>
  <speed>0.02</speed>
  <fix>3d</fix>
</trkpt>
<trkpt lat="-27.2740901" lon="151.2900789">
  <ele>361.89</ele>
  <time>2026-09-01T19:55:13Z</time>
  <course>15.54</course>
  <speed>0.02</speed>
  <fix>3d</fix>
</trkpt>
<trkpt lat="-27.2740899" lon="151.2900788">
  <ele>361.79</ele>
  <time>2026-09-01T19:55:13Z</time>
  <course>84.05</course>
  <speed>0.0</speed>
  <fix>3d</fix>
</trkpt>
<trkpt lat="-27.2740901" lon="151.2900789">
  <ele>361.92</ele>
  <time>2026-09-01T19:55:13Z</time>
  <course>15.54</course>
  <speed>0.02</speed>
  <fix>3d</fix>
</trkpt>
<trkpt lat="-27.2739064" lon="151.2900996">
  <ele>342.0</ele>
  <time>2026-09-01T19:55:13Z</time>
  <course>6.8</course>
  <speed>0.9960923651951158</speed>
  <fix>3d</fix>
</trkpt>
<trkpt lat="-27.2740901" lon="151.2900789">
  <ele>361.98</ele>
  <time>2026-09-01T19:55:13Z</time>
  <course>15.55</course>
  <speed>0.02</speed>
  <fix>3d</fix>
</trkpt>
<trkpt lat="-27.2740899" lon="151.2900788">
  <ele>361.79</ele>
  <time>2026-09-01T19:55:13Z</time>
  <course>84.05</course>
  <speed>0.0</speed>
  <fix>3d</fix>
</trkpt>
<trkpt lat="-27.2740901" lon="151.2900789">
  <ele>361.98</ele>
  <time>2026-09-01T19:55:13Z</time>
  <course>15.55</course>
  <speed>0.02</speed>
  <fix>3d</fix>
</trkpt>
<trkpt lat="-27.2740901" lon="151.2900789">
  <ele>362.07</ele>
  <time>2026-09-01T19:55:13Z</time>
  <course>15.56</course>
  <speed>0.02</speed>
  <fix>3d</fix>
</trkpt>
<trkpt lat="-27.2740899" lon="151.2900788">
  <ele>361.97</ele>
  <time>2026-09-01T19:55:13Z</time>
  <course>151.09</course>
  <speed>0.0</speed>
  <fix>3d</fix>
</trkpt>
<trkpt lat="-27.2740901" lon="151.2900789">
  <ele>362.09</ele>
  <time>2026-09-01T19:55:13Z</time>
  <course>15.56</course>
  <speed>0.02</speed>
  <fix>3d</fix>
</trkpt>
<trkpt lat="-27.2739047" lon="151.2900998">
  <ele>342.0</ele>
  <time>2026-09-01T19:55:13Z</time>
  <course>6.82</course>
  <speed>0.9960923651951158</speed>
  <fix>3d</fix>
</trkpt>
<trkpt lat="-27.2740901" lon="151.2900789">
  <ele>362.15</ele>
  <time>2026-09-01T19:55:13Z</time>
  <course>15.57</course>
  <speed>0.02</speed>
  <fix>3d</fix>
</trkpt>
<trkpt lat="-27.2740899" lon="151.2900788">
  <ele>361.97</ele>
  <time>2026-09-01T19:55:13Z</time>
  <course>151.09</course>
  <speed>0.0</speed>
  <fix>3d</fix>
</trkpt>
<trkpt lat="-27.2740901" lon="151.2900789">
  <ele>362.16</ele>
  <time>2026-09-01T19:55:13Z</time>
  <course>15.57</course>
  <speed>0.02</speed>
  <fix>3d</fix>
</trkpt>
<trkpt lat="-27.2740901" lon="151.2900789">
  <ele>362.24</ele>
  <time>2026-09-01T19:55:13Z</time>
  <course>15.58</course>
  <speed>0.02</speed>
  <fix>3d</fix>
</trkpt>
<trkpt lat="-27.2740899" lon="151.2900788">
  <ele>362.15</ele>
  <time>2026-09-01T19:55:13Z</time>
  <course>173.21</course>
  <speed>0.0</speed>
  <fix>3d</fix>
</trkpt>
<trkpt lat="-27.2740901" lon="151.2900789">
  <ele>362.25</ele>
  <time>2026-09-01T19:55:13Z</time>
  <course>15.58</course>
  <speed>0.02</speed>
  <fix>3d</fix>
</trkpt>
<trkpt lat="-27.2739029" lon="151.2901001">
  <ele>342.0</ele>
  <time>2026-09-01T19:55:13Z</time>
  <course>6.85</course>
  <speed>0.9960923651951158</speed>
  <fix>3d</fix>
</trkpt>
<trkpt lat="-27.2740901" lon="151.2900789">
  <ele>362.33</ele>
  <time>2026-09-01T19:55:13Z</time>
  <course>15.59</course>
  <speed>0.02</speed>
  <fix>3d</fix>
</trkpt>
<trkpt lat="-27.2740899" lon="151.2900788">
  <ele>362.15</ele>
  <time>2026-09-01T19:55:13Z</time>
  <course>173.21</course>
  <speed>0.0</speed>
  <fix>3d</fix>
</trkpt>
<trkpt lat="-27.2740901" lon="151.2900789">
  <ele>362.33</ele>
  <time>2026-09-01T19:55:13Z</time>
  <course>15.59</course>
  <speed>0.02</speed>
  <fix>3d</fix>
</trkpt>
<trkpt lat="-27.2740901" lon="151.2900789">
  <ele>362.42</ele>
  <time>2026-09-01T19:55:13Z</time>
  <course>15.59</course>
  <speed>0.02</speed>
  <fix>3d</fix>
</trkpt>
<trkpt lat="-27.2740899" lon="151.2900788">
  <ele>362.32</ele>
  <time>2026-09-01T19:55:13Z</time>
  <course>181.74</course>
  <speed>0.0</speed>
  <fix>3d</fix>
</trkpt>
<trkpt lat="-27.2740901" lon="151.2900789">
  <ele>362.44</ele>
  <time>2026-09-01T19:55:13Z</time>
  <course>15.59</course>
  <speed>0.02</speed>
  <fix>3d</fix>
</trkpt>
<trkpt lat="-27.2739011" lon="151.2901003">
  <ele>342.0</ele>
  <time>2026-09-01T19:55:13Z</time>
  <course>6.87</course>
  <speed>0.9960923651951158</speed>
  <fix>3d</fix>
</trkpt>
<trkpt lat="-27.2740901" lon="151.2900789">
  <ele>362.51</ele>
  <time>2026-09-01T19:55:13Z</time>
  <course>15.59</course>
  <speed>0.02</speed>
  <fix>3d</fix>
</trkpt>
<trkpt lat="-27.2740899" lon="151.2900788">
  <ele>362.32</ele>
  <time>2026-09-01T19:55:13Z</time>
  <course>181.74</course>
  <speed>0.0</speed>
  <fix>3d</fix>
</trkpt>
<trkpt lat="-27.2740901" lon="151.2900789">
  <ele>362.51</ele>
  <time>2026-09-01T19:55:13Z</time>
  <course>15.59</course>
  <speed>0.02</speed>
  <fix>3d</fix>
</trkpt>
<trkpt lat="-27.2740901" lon="151.2900789">
  <ele>362.6</ele>
  <time>2026-09-01T19:55:13Z</time>
  <course>15.6</course>
  <speed>0.02</speed>
  <fix>3d</fix>
</trkpt>
<trkpt lat="-27.2740899" lon="151.2900788">
  <ele>362.5</ele>
  <time>2026-09-01T19:55:13Z</time>
  <course>183.74</course>
  <speed>0.0</speed>
  <fix>3d</fix>
</trkpt>
<trkpt lat="-27.2740901" lon="151.2900789">
  <ele>362.62</ele>
  <time>2026-09-01T19:55:13Z</time>
  <course>15.6</course>
  <speed>0.02</speed>
  <fix>3d</fix>
</trkpt>
<trkpt lat="-27.2738993" lon="151.2901006">
  <ele>342.0</ele>
  <time>2026-09-01T19:55:13Z</time>
  <course>6.89</course>
  <speed>0.9972462083156798</speed>
  <fix>3d</fix>
</trkpt>
<trkpt lat="-27.2740901" lon="151.2900789">
  <ele>362.69</ele>
  <time>2026-09-01T19:55:13Z</time>
  <course>15.61</course>
  <speed>0.02</speed>
  <fix>3d</fix>
</trkpt>
<trkpt lat="-27.2740899" lon="151.2900788">
  <ele>362.5</ele>
  <time>2026-09-01T19:55:13Z</time>
  <course>183.74</course>
  <speed>0.0</speed>
  <fix>3d</fix>
</trkpt>
<trkpt lat="-27.2740901" lon="151.2900789">
  <ele>362.69</ele>
  <time>2026-09-01T19:55:13Z</time>
  <course>15.61</course>
  <speed>0.02</speed>
  <fix>3d</fix>
</trkpt>
<trkpt lat="-27.2740901" lon="151.2900789">
  <ele>362.78</ele>
  <time>2026-09-01T19:55:13Z</time>
  <course>15.62</course>
  <speed>0.02</speed>
  <fix>3d</fix>
</trkpt>
<trkpt lat="-27.2740899" lon="151.2900788">
  <ele>362.68</ele>
  <time>2026-09-01T19:55:13Z</time>
  <course>183.58</course>
  <speed>0.01</speed>
  <fix>3d</fix>
</trkpt>
<trkpt lat="-27.2740901" lon="151.2900789">
  <ele>362.8</ele>
  <time>2026-09-01T19:55:13Z</time>
  <course>15.62</course>
  <speed>0.02</speed>
  <fix>3d</fix>
</trkpt>
<trkpt lat="-27.2738975" lon="151.2901008">
  <ele>342.0</ele>
  <time>2026-09-01T19:55:13Z</time>
  <course>6.92</course>
  <speed>0.9972462083156798</speed>
  <fix>3d</fix>
</trkpt>
<trkpt lat="-27.2740901" lon="151.2900789">
  <ele>362.87</ele>
  <time>2026-09-01T19:55:13Z</time>
  <course>15.62</course>
  <speed>0.02</speed>
  <fix>3d</fix>
</trkpt>
<trkpt lat="-27.2740899" lon="151.2900788">
  <ele>362.68</ele>
  <time>2026-09-01T19:55:13Z</time>
  <course>183.58</course>
  <speed>0.01</speed>
  <fix>3d</fix>
</trkpt>
<trkpt lat="-27.2740901" lon="151.2900789">
  <ele>362.87</ele>
  <time>2026-09-01T19:55:13Z</time>
  <course>15.62</course>
  <speed>0.02</speed>
  <fix>3d</fix>
</trkpt>
<trkpt lat="-27.2740901" lon="151.2900789">
  <ele>362.96</ele>
  <time>2026-09-01T19:55:13Z</time>
  <course>15.62</course>
  <speed>0.02</speed>
  <fix>3d</fix>
</trkpt>
<trkpt lat="-27.2740899" lon="151.2900788">
  <ele>362.87</ele>
  <time>2026-09-01T19:55:13Z</time>
  <course>185.02</course>
  <speed>0.01</speed>
  <fix>3d</fix>
</trkpt>
<trkpt lat="-27.2740901" lon="151.2900789">
  <ele>362.99</ele>
  <time>2026-09-01T19:55:13Z</time>
  <course>15.62</course>
  <speed>0.02</speed>
  <fix>3d</fix>
</trkpt>
<trkpt lat="-27.2738957" lon="151.290101">
  <ele>342.0</ele>
  <time>2026-09-01T19:55:13Z</time>
  <course>6.94</course>
  <speed>0.9972462083156798</speed>
  <fix>3d</fix>
</trkpt>
<trkpt lat="-27.2740901" lon="151.2900789">
  <ele>363.05</ele>
  <time>2026-09-01T19:55:13Z</time>
  <course>15.62</course>
  <speed>0.02</speed>
  <fix>3d</fix>
</trkpt>
<trkpt lat="-27.2740899" lon="151.2900788">
  <ele>362.87</ele>
  <time>2026-09-01T19:55:13Z</time>
  <course>185.02</course>
  <speed>0.01</speed>
  <fix>3d</fix>
</trkpt>
<trkpt lat="-27.2740901" lon="151.2900789">
  <ele>363.05</ele>
  <time>2026-09-01T19:55:13Z</time>
  <course>15.62</course>
  <speed>0.02</speed>
  <fix>3d</fix>
</trkpt>
<trkpt lat="-27.2740901" lon="151.2900789">
  <ele>363.14</ele>
  <time>2026-09-01T19:55:13Z</time>
  <course>15.61</course>
  <speed>0.02</speed>
  <fix>3d</fix>
</trkpt>
<trkpt lat="-27.2740899" lon="151.2900788">
  <ele>363.05</ele>
  <time>2026-09-01T19:55:13Z</time>
  <course>185.92</course>
  <speed>0.01</speed>
  <fix>3d</fix>
</trkpt>
<trkpt lat="-27.2738939" lon="151.2901013">
  <ele>342.0</ele>
  <time>2026-09-01T19:55:13Z</time>
  <course>6.96</course>
  <speed>0.9972462083156798</speed>
  <fix>3d</fix>
</trkpt>
<trkpt lat="-27.2740901" lon="151.2900789">
  <ele>363.19</ele>
  <time>2026-09-01T19:55:13Z</time>
  <course>15.61</course>
  <speed>0.02</speed>
  <fix>3d</fix>
</trkpt>
<trkpt lat="-27.2740899" lon="151.2900788">
  <ele>363.05</ele>
  <time>2026-09-01T19:55:13Z</time>
  <course>185.92</course>
  <speed>0.01</speed>
  <fix>3d</fix>
</trkpt>
<trkpt lat="-27.2740901" lon="151.2900789">
  <ele>363.14</ele>
  <time>2026-09-01T19:55:13Z</time>
  <course>15.65</course>
  <speed>0.02</speed>
  <fix>3d</fix>
</trkpt>
<trkpt lat="-27.2740899" lon="151.2900788">
  <ele>363.21</ele>
  <time>2026-09-01T19:55:13Z</time>
  <course>187.59</course>
  <speed>0.01</speed>
  <fix>3d</fix>
</trkpt>
<trkpt lat="-27.2738922" lon="151.2901015">
  <ele>342.0</ele>
  <time>2026-09-01T19:55:13Z</time>
  <course>6.98</course>
  <speed>0.9972462083156798</speed>
  <fix>3d</fix>
</trkpt>
<trkpt lat="-27.2740901" lon="151.2900789">
  <ele>362.99</ele>
  <time>2026-09-01T19:55:13Z</time>
  <course>15.74</course>
  <speed>0.01</speed>
  <fix>3d</fix>
</trkpt>
<trkpt lat="-27.2740899" lon="151.2900788">
  <ele>363.21</ele>
  <time>2026-09-01T19:55:13Z</time>
  <course>187.59</course>
  <speed>0.01</speed>
  <fix>3d</fix>
</trkpt>
<trkpt lat="-27.2740901" lon="151.2900789">
  <ele>362.76</ele>
  <time>2026-09-01T19:55:13Z</time>
  <course>15.84</course>
  <speed>0.0</speed>
  <fix>3d</fix>
</trkpt>
<trkpt lat="-27.27409" lon="151.2900788">
  <ele>363.19</ele>
  <time>2026-09-01T19:55:13Z</time>
  <course>211.79</course>
  <speed>0.0</speed>
  <fix>3d</fix>
</trkpt>
<trkpt lat="-27.2738904" lon="151.2901018">
  <ele>342.0</ele>
  <time>2026-09-01T19:55:13Z</time>
  <course>7.01</course>
  <speed>0.9972462083156798</speed>
  <fix>3d</fix>
</trkpt>
<trkpt lat="-27.2740901" lon="151.2900789">
  <ele>362.45</ele>
  <time>2026-09-01T19:55:13Z</time>
  <course>15.93</course>
  <speed>0.022360679774997897</speed>
  <fix>3d</fix>
</trkpt>
<trkpt lat="-27.27409" lon="151.2900788">
  <ele>363.19</ele>
  <time>2026-09-01T19:55:13Z</time>
  <course>211.79</course>
  <speed>0.0</speed>
  <fix>3d</fix>
</trkpt>
<trkpt lat="-27.2740901" lon="151.2900789">
  <ele>362.82</ele>
  <time>2026-09-01T19:55:13Z</time>
  <course>16.01</course>
  <speed>0.0632455532033676</speed>
  <fix>3d</fix>
</trkpt>
<trkpt lat="-27.2740899" lon="151.2900788">
  <ele>362.83</ele>
  <time>2026-09-01T19:55:13Z</time>
  <course>2.62</course>
  <speed>0.01</speed>
  <fix>3d</fix>
</trkpt>
<trkpt lat="-27.2738886" lon="151.290102">
  <ele>342.0</ele>
  <time>2026-09-01T19:55:13Z</time>
  <course>7.03</course>
  <speed>0.9972462083156798</speed>
  <fix>3d</fix>
</trkpt>
<trkpt lat="-27.27409" lon="151.2900789">
  <ele>362.78</ele>
  <time>2026-09-01T19:55:13Z</time>
  <course>16.08</course>
  <speed>0.1044030650891055</speed>
  <fix>3d</fix>
</trkpt>
<trkpt lat="-27.2740899" lon="151.2900788">
  <ele>362.83</ele>
  <time>2026-09-01T19:55:13Z</time>
  <course>2.62</course>
  <speed>0.01</speed>
  <fix>3d</fix>
</trkpt>
<trkpt lat="-27.2740899" lon="151.2900789">
  <ele>362.6</ele>
  <time>2026-09-01T19:55:13Z</time>
  <course>16.14</course>
  <speed>0.15811388300841897</speed>
  <fix>3d</fix>
</trkpt>
<trkpt lat="-27.2740899" lon="151.2900788">
  <ele>362.18</ele>
  <time>2026-09-01T19:55:13Z</time>
  <course>11.1</course>
  <speed>0.07</speed>
  <fix>3d</fix>
</trkpt>
<trkpt lat="-27.2738868" lon="151.2901023">
  <ele>342.0</ele>
  <time>2026-09-01T19:55:13Z</time>
  <course>7.05</course>
  <speed>0.9972462083156798</speed>
  <fix>3d</fix>
</trkpt>
<trkpt lat="-27.2740897" lon="151.2900789">
  <ele>362.33</ele>
  <time>2026-09-01T19:55:13Z</time>
  <course>16.2</course>
  <speed>0.24041630560342614</speed>
  <fix>3d</fix>
</trkpt>
<trkpt lat="-27.2740899" lon="151.2900788">
  <ele>362.18</ele>
  <time>2026-09-01T19:55:13Z</time>
  <course>11.1</course>
  <speed>0.07</speed>
  <fix>3d</fix>
</trkpt>
<trkpt lat="-27.2740894" lon="151.290079">
  <ele>361.96</ele>
  <time>2026-09-01T19:55:13Z</time>
  <course>16.26</course>
  <speed>0.354400902933387</speed>
  <fix>3d</fix>
</trkpt>
<trkpt lat="-27.2740897" lon="151.2900788">
  <ele>361.3</ele>
  <time>2026-09-01T19:55:13Z</time>
  <course>12.56</course>
  <speed>0.18</speed>
  <fix>3d</fix>
</trkpt>
<trkpt lat="-27.274089" lon="151.2900791">
  <ele>361.53</ele>
  <time>2026-09-01T19:55:13Z</time>
  <course>16.33</course>
  <speed>0.49040799340956914</speed>
  <fix>3d</fix>
</trkpt>
<trkpt lat="-27.2740897" lon="151.2900788">
  <ele>361.3</ele>
  <time>2026-09-01T19:55:13Z</time>
  <course>12.56</course>
  <speed>0.18</speed>
  <fix>3d</fix>
</trkpt>
<trkpt lat="-27.2740885" lon="151.2900793">
  <ele>361.0</ele>
  <time>2026-09-01T19:55:13Z</time>
  <course>16.4</course>
  <speed>0.6168468205316454</speed>
  <fix>3d</fix>
</trkpt>
<trkpt lat="-27.2740893" lon="151.2900789">
  <ele>360.22</ele>
  <time>2026-09-01T19:55:13Z</time>
  <course>12.99</course>
  <speed>0.37</speed>
  <fix>3d</fix>
</trkpt>
<trkpt lat="-27.2740878" lon="151.2900795">
  <ele>360.41</ele>
  <time>2026-09-01T19:55:13Z</time>
  <course>16.49</course>
  <speed>1.3036103712382776</speed>
  <fix>3d</fix>
</trkpt>
<trkpt lat="-27.2740893" lon="151.2900789">
  <ele>360.22</ele>
  <time>2026-09-01T19:55:13Z</time>
  <course>12.99</course>
  <speed>0.37</speed>
  <fix>3d</fix>
</trkpt>
<trkpt lat="-27.2740863" lon="151.29008">
  <ele>359.73</ele>
  <time>2026-09-01T19:55:13Z</time>
  <course>16.65</course>
  <speed>2.0</speed>
  <fix>3d</fix>
</trkpt>
<trkpt lat="-27.2740883" lon="151.2900791">
  <ele>358.92</ele>
  <time>2026-09-01T19:55:13Z</time>
  <course>13.2</course>
  <speed>0.88</speed>
  <fix>3d</fix>
</trkpt>
<trkpt lat="-27.2740844" lon="151.2900806">
  <ele>358.98</ele>
  <time>2026-09-01T19:55:13Z</time>
  <course>16.96</course>
  <speed>2.2308070288574937</speed>
  <fix>3d</fix>
</trkpt>
<trkpt lat="-27.2740883" lon="151.2900791">
  <ele>358.92</ele>
  <time>2026-09-01T19:55:13Z</time>
  <course>13.2</course>
  <speed>0.88</speed>
  <fix>3d</fix>
</trkpt>
<trkpt lat="-27.2740825" lon="151.2900812">
  <ele>358.12</ele>
  <time>2026-09-01T19:55:13Z</time>
  <course>17.25</course>
  <speed>2.126405417600322</speed>
  <fix>3d</fix>
</trkpt>
<trkpt lat="-27.274086" lon="151.2900797">
  <ele>357.36</ele>
  <time>2026-09-01T19:55:13Z</time>
  <course>13.29</course>
  <speed>1.75</speed>
  <fix>3d</fix>
</trkpt>
<trkpt lat="-27.2740807" lon="151.2900817">
  <ele>357.17</ele>
  <time>2026-09-01T19:55:13Z</time>
  <course>17.06</course>
  <speed>1.9904019694524018</speed>
  <fix>3d</fix>
</trkpt>
<trkpt lat="-27.274086" lon="151.2900797">
  <ele>357.36</ele>
  <time>2026-09-01T19:55:13Z</time>
  <course>13.29</course>
  <speed>1.75</speed>
  <fix>3d</fix>
</trkpt>
<trkpt lat="-27.2740789" lon="151.2900822">
  <ele>356.12</ele>
  <time>2026-09-01T19:55:13Z</time>
  <course>16.79</course>
  <speed>2.155203006679417</speed>
  <fix>3d</fix>
</trkpt>
<trkpt lat="-27.2740825" lon="151.2900807">
  <ele>355.47</ele>
  <time>2026-09-01T19:55:13Z</time>
  <course>13.31</course>
  <speed>2.11</speed>
  <fix>3d</fix>
</trkpt>
<trkpt lat="-27.2740768" lon="151.2900828">
  <ele>354.99</ele>
  <time>2026-09-01T19:55:13Z</time>
  <course>16.73</course>
  <speed>2.800803456153252</speed>
  <fix>3d</fix>
</trkpt>
<trkpt lat="-27.2740825" lon="151.2900807">
  <ele>355.47</ele>
  <time>2026-09-01T19:55:13Z</time>
  <course>13.31</course>
  <speed>2.11</speed>
  <fix>3d</fix>
</trkpt>
<trkpt lat="-27.2740739" lon="151.2900837">
  <ele>353.78</ele>
  <time>2026-09-01T19:55:13Z</time>
  <course>16.72</course>
  <speed>3.9080046059338263</speed>
  <fix>3d</fix>
</trkpt>
<trkpt lat="-27.2740786" lon="151.2900817">
  <ele>353.22</ele>
  <time>2026-09-01T19:55:13Z</time>
  <course>13.48</course>
  <speed>2.39</speed>
  <fix>3d</fix>
</trkpt>
<trkpt lat="-26.9720619" lon="149.6127921">
  <ele>339.29</ele>
  <time>2026-09-01T19:55:14Z</time>
  <course>107.81</course>
  <speed>0.0</speed>
  <fix>3d</fix>
</trkpt>
<trkpt lat="-26.9720619" lon="149.6127921">
  <ele>339.29</ele>
  <time>2026-09-01T19:55:14Z</time>
  <course>107.81</course>
  <speed>0.0</speed>
  <fix>3d</fix>
</trkpt>
<trkpt lat="-27.274439" lon="151.290064">
  <ele>-0.01</ele>
  <time>2026-09-01T19:55:14Z</time>
  <course>0.17</course>
  <speed>0.0</speed>
  <fix>3d</fix>
</trkpt>
<trkpt lat="-27.274439" lon="151.290064">
  <ele>343.1</ele>
  <time>2026-09-01T19:55:14Z</time>
  <course>107.54</course>
  <speed>0.0</speed>
  <fix>3d</fix>
</trkpt>
<trkpt lat="-27.274439" lon="151.290064">
  <ele>0.02</ele>
  <time>2026-09-01T19:55:14Z</time>
  <course>1.16</course>
  <speed>0.0</speed>
  <fix>3d</fix>
</trkpt>
<trkpt lat="-27.274439" lon="151.290064">
  <ele>343.1</ele>
  <time>2026-09-01T19:55:14Z</time>
  <course>107.54</course>
  <speed>0.0</speed>
  <fix>3d</fix>
</trkpt>
<trkpt lat="-27.274439" lon="151.290064">
  <ele>-0.08</ele>
  <time>2026-09-01T19:55:14Z</time>
  <course>2.05</course>
  <speed>0.0</speed>
  <fix>3d</fix>
</trkpt>
<trkpt lat="-27.274439" lon="151.290064">
  <ele>343.1</ele>
  <time>2026-09-01T19:55:14Z</time>
  <course>107.02</course>
  <speed>0.0</speed>
  <fix>3d</fix>
</trkpt>
<trkpt lat="-27.274439" lon="151.290064">
  <ele>0.22</ele>
  <time>2026-09-01T19:55:14Z</time>
  <course>2.86</course>
  <speed>0.0</speed>
  <fix>3d</fix>
</trkpt>
<trkpt lat="-27.274439" lon="151.290064">
  <ele>343.1</ele>
  <time>2026-09-01T19:55:14Z</time>
  <course>107.02</course>
  <speed>0.0</speed>
  <fix>3d</fix>
</trkpt>
<trkpt lat="-27.274439" lon="151.290064">
  <ele>0.09</ele>
  <time>2026-09-01T19:55:14Z</time>
  <course>3.59</course>
  <speed>0.0</speed>
  <fix>3d</fix>
</trkpt>
<trkpt lat="-27.274439" lon="151.290064">
  <ele>343.1</ele>
  <time>2026-09-01T19:55:14Z</time>
  <course>106.57</course>
  <speed>0.0</speed>
  <fix>3d</fix>
</trkpt>
<trkpt lat="-27.274439" lon="151.290064">
  <ele>0.08</ele>
  <time>2026-09-01T19:55:14Z</time>
  <course>4.25</course>
  <speed>0.0</speed>
  <fix>3d</fix>
</trkpt>
<trkpt lat="-27.274439" lon="151.290064">
  <ele>343.1</ele>
  <time>2026-09-01T19:55:14Z</time>
  <course>106.57</course>
  <speed>0.0</speed>
  <fix>3d</fix>
</trkpt>
<trkpt lat="-27.274439" lon="151.290064">
  <ele>0.09</ele>
  <time>2026-09-01T19:55:14Z</time>
  <course>4.86</course>
  <speed>0.0</speed>
  <fix>3d</fix>
</trkpt>
<trkpt lat="-27.274439" lon="151.290064">
  <ele>343.1</ele>
  <time>2026-09-01T19:55:14Z</time>
  <course>106.19</course>
  <speed>0.0</speed>
  <fix>3d</fix>
</trkpt>
<trkpt lat="-27.274439" lon="151.290064">
  <ele>-0.05</ele>
  <time>2026-09-01T19:55:14Z</time>
  <course>5.4</course>
  <speed>0.0</speed>
  <fix>3d</fix>
</trkpt>
<trkpt lat="-27.274439" lon="151.290064">
  <ele>343.1</ele>
  <time>2026-09-01T19:55:14Z</time>
  <course>106.19</course>
  <speed>0.0</speed>
  <fix>3d</fix>
</trkpt>
<trkpt lat="-27.274439" lon="151.290064">
  <ele>343.06</ele>
  <time>2026-09-01T19:55:14Z</time>
  <course>5.88</course>
  <speed>0.0</speed>
  <fix>3d</fix>
</trkpt>
<trkpt lat="-27.274439" lon="151.290064">
  <ele>343.1</ele>
  <time>2026-09-01T19:55:14Z</time>
  <course>105.92</course>
  <speed>0.0</speed>
  <fix>3d</fix>
</trkpt>
<trkpt lat="-27.274439" lon="151.290064">
  <ele>343.18</ele>
  <time>2026-09-01T19:55:14Z</time>
  <course>6.34</course>
  <speed>0.0</speed>
  <fix>3d</fix>
</trkpt>
<trkpt lat="-27.274439" lon="151.290064">
  <ele>343.1</ele>
  <time>2026-09-01T19:55:14Z</time>
  <course>105.71</course>
  <speed>0.0</speed>
  <fix>3d</fix>
</trkpt>
<trkpt lat="-27.274439" lon="151.290064">
  <ele>342.91</ele>
  <time>2026-09-01T19:55:14Z</time>
  <course>6.75</course>
  <speed>0.0</speed>
  <fix>3d</fix>
</trkpt>
<trkpt lat="-27.274439" lon="151.290064">
  <ele>343.1</ele>
  <time>2026-09-01T19:55:14Z</time>
  <course>105.71</course>
  <speed>0.0</speed>
  <fix>3d</fix>
</trkpt>
<trkpt lat="-27.274439" lon="151.290064">
  <ele>343.06</ele>
  <time>2026-09-01T19:55:14Z</time>
  <course>7.13</course>
  <speed>0.0</speed>
  <fix>3d</fix>
</trkpt>
<trkpt lat="-27.274439" lon="151.290064">
  <ele>343.1</ele>
  <time>2026-09-01T19:55:14Z</time>
  <course>105.71</course>
  <speed>0.0</speed>
  <fix>3d</fix>
</trkpt>
<trkpt lat="-27.274439" lon="151.290064">
  <ele>343.13</ele>
  <time>2026-09-01T19:55:14Z</time>
  <course>7.47</course>
  <speed>0.0</speed>
  <fix>3d</fix>
</trkpt>
<trkpt lat="-27.274439" lon="151.290064">
  <ele>343.1</ele>
  <time>2026-09-01T19:55:14Z</time>
  <course>105.54</course>
  <speed>0.0</speed>
  <fix>3d</fix>
</trkpt>
<trkpt lat="-27.274439" lon="151.290064">
  <ele>343.04</ele>
  <time>2026-09-01T19:55:14Z</time>
  <course>7.78</course>
  <speed>0.0</speed>
  <fix>3d</fix>
</trkpt>
<trkpt lat="-27.274439" lon="151.290064">
  <ele>343.1</ele>
  <time>2026-09-01T19:55:14Z</time>
  <course>105.54</course>
  <speed>0.0</speed>
  <fix>3d</fix>
</trkpt>
<trkpt lat="-27.274439" lon="151.290064">
  <ele>342.88</ele>
  <time>2026-09-01T19:55:14Z</time>
  <course>8.06</course>
  <speed>0.0</speed>
  <fix>3d</fix>
</trkpt>
<trkpt lat="-27.274439" lon="151.290064">
  <ele>343.1</ele>
  <time>2026-09-01T19:55:14Z</time>
  <course>105.41</course>
  <speed>0.0</speed>
  <fix>3d</fix>
</trkpt>
<trkpt lat="-27.274439" lon="151.290064">
  <ele>343.02</ele>
  <time>2026-09-01T19:55:14Z</time>
  <course>8.31</course>
  <speed>0.0</speed>
  <fix>3d</fix>
</trkpt>
<trkpt lat="-27.274439" lon="151.290064">
  <ele>343.1</ele>
  <time>2026-09-01T19:55:14Z</time>
  <course>105.41</course>
  <speed>0.0</speed>
  <fix>3d</fix>
</trkpt>
<trkpt lat="-27.274439" lon="151.290064">
  <ele>343.23</ele>
  <time>2026-09-01T19:55:14Z</time>
  <course>8.55</course>
  <speed>0.0</speed>
  <fix>3d</fix>
</trkpt>
<trkpt lat="-27.274439" lon="151.290064">
  <ele>343.1</ele>
  <time>2026-09-01T19:55:14Z</time>
  <course>105.31</course>
  <speed>0.0</speed>
  <fix>3d</fix>
</trkpt>
<trkpt lat="-27.274439" lon="151.290064">
  <ele>343.17</ele>
  <time>2026-09-01T19:55:14Z</time>
  <course>8.75</course>
  <speed>0.0</speed>
  <fix>3d</fix>
</trkpt>
<trkpt lat="-27.274439" lon="151.290064">
  <ele>343.1</ele>
  <time>2026-09-01T19:55:14Z</time>
  <course>105.31</course>
  <speed>0.0</speed>
  <fix>3d</fix>
</trkpt>
<trkpt lat="-27.274439" lon="151.290064">
  <ele>343.04</ele>
  <time>2026-09-01T19:55:14Z</time>
  <course>8.93</course>
  <speed>0.0</speed>
  <fix>3d</fix>
</trkpt>
<trkpt lat="-27.274439" lon="151.290064">
  <ele>343.1</ele>
  <time>2026-09-01T19:55:14Z</time>
  <course>105.24</course>
  <speed>0.0</speed>
  <fix>3d</fix>
</trkpt>
<trkpt lat="-27.274439" lon="151.290064">
  <ele>342.89</ele>
  <time>2026-09-01T19:55:14Z</time>
  <course>9.1</course>
  <speed>0.0</speed>
  <fix>3d</fix>
</trkpt>
<trkpt lat="-27.274439" lon="151.290064">
  <ele>343.1</ele>
  <time>2026-09-01T19:55:14Z</time>
  <course>105.24</course>
  <speed>0.0</speed>
  <fix>3d</fix>
</trkpt>
<trkpt lat="-27.274439" lon="151.290064">
  <ele>343.08</ele>
  <time>2026-09-01T19:55:14Z</time>
  <course>9.25</course>
  <speed>0.0</speed>
  <fix>3d</fix>
</trkpt>
<trkpt lat="-27.274439" lon="151.290064">
  <ele>343.1</ele>
  <time>2026-09-01T19:55:14Z</time>
  <course>105.19</course>
  <speed>0.0</speed>
  <fix>3d</fix>
</trkpt>
<trkpt lat="-27.274439" lon="151.290064">
  <ele>343.19</ele>
  <time>2026-09-01T19:55:14Z</time>
  <course>9.39</course>
  <speed>0.0</speed>
  <fix>3d</fix>
</trkpt>
<trkpt lat="-27.274439" lon="151.290064">
  <ele>343.1</ele>
  <time>2026-09-01T19:55:14Z</time>
  <course>105.19</course>
  <speed>0.0</speed>
  <fix>3d</fix>
</trkpt>
<trkpt lat="-27.274439" lon="151.290064">
  <ele>342.88</ele>
  <time>2026-09-01T19:55:14Z</time>
  <course>9.51</course>
  <speed>0.0</speed>
  <fix>3d</fix>
</trkpt>
<trkpt lat="-27.274439" lon="151.290064">
  <ele>343.1</ele>
  <time>2026-09-01T19:55:14Z</time>
  <course>105.14</course>
  <speed>0.0</speed>
  <fix>3d</fix>
</trkpt>
<trkpt lat="-27.274439" lon="151.290064">
  <ele>343.17</ele>
  <time>2026-09-01T19:55:14Z</time>
  <course>9.62</course>
  <speed>0.0</speed>
  <fix>3d</fix>
</trkpt>
<trkpt lat="-27.274439" lon="151.290064">
  <ele>343.1</ele>
  <time>2026-09-01T19:55:14Z</time>
  <course>105.14</course>
  <speed>0.0</speed>
  <fix>3d</fix>
</trkpt>
<trkpt lat="-27.274439" lon="151.290064">
  <ele>342.89</ele>
  <time>2026-09-01T19:55:14Z</time>
  <course>9.72</course>
  <speed>0.0</speed>
  <fix>3d</fix>
</trkpt>
<trkpt lat="-27.274439" lon="151.290064">
  <ele>343.1</ele>
  <time>2026-09-01T19:55:14Z</time>
  <course>105.1</course>
  <speed>0.0</speed>
  <fix>3d</fix>
</trkpt>
<trkpt lat="-27.274439" lon="151.290064">
  <ele>342.99</ele>
  <time>2026-09-01T19:55:14Z</time>
  <course>9.81</course>
  <speed>0.0</speed>
  <fix>3d</fix>
</trkpt>
<trkpt lat="-27.274439" lon="151.290064">
  <ele>343.1</ele>
  <time>2026-09-01T19:55:14Z</time>
  <course>105.1</course>
  <speed>0.0</speed>
  <fix>3d</fix>
</trkpt>
<trkpt lat="-27.274439" lon="151.290064">
  <ele>342.87</ele>
  <time>2026-09-01T19:55:14Z</time>
  <course>9.9</course>
  <speed>0.0</speed>
  <fix>3d</fix>
</trkpt>
<trkpt lat="-27.274439" lon="151.290064">
  <ele>343.1</ele>
  <time>2026-09-01T19:55:14Z</time>
  <course>105.07</course>
  <speed>0.0</speed>
  <fix>3d</fix>
</trkpt>
<trkpt lat="-27.274439" lon="151.290064">
  <ele>343.09</ele>
  <time>2026-09-01T19:55:14Z</time>
  <course>9.98</course>
  <speed>0.0</speed>
  <fix>3d</fix>
</trkpt>
<trkpt lat="-27.274439" lon="151.290064">
  <ele>343.1</ele>
  <time>2026-09-01T19:55:14Z</time>
  <course>105.07</course>
  <speed>0.0</speed>
  <fix>3d</fix>
</trkpt>
<trkpt lat="-27.274439" lon="151.290064">
  <ele>343.18</ele>
  <time>2026-09-01T19:55:14Z</time>
  <course>10.04</course>
  <speed>0.0</speed>
  <fix>3d</fix>
</trkpt>
<trkpt lat="-27.274439" lon="151.290064">
  <ele>343.1</ele>
  <time>2026-09-01T19:55:14Z</time>
  <course>105.05</course>
  <speed>0.0</speed>
  <fix>3d</fix>
</trkpt>
<trkpt lat="-27.274439" lon="151.290064">
  <ele>343.05</ele>
  <time>2026-09-01T19:55:14Z</time>
  <course>10.11</course>
  <speed>0.0</speed>
  <fix>3d</fix>
</trkpt>
<trkpt lat="-27.274439" lon="151.290064">
  <ele>343.1</ele>
  <time>2026-09-01T19:55:14Z</time>
  <course>105.05</course>
  <speed>0.0</speed>
  <fix>3d</fix>
</trkpt>
<trkpt lat="-27.274439" lon="151.290064">
  <ele>342.96</ele>
  <time>2026-09-01T19:55:14Z</time>
  <course>10.17</course>
  <speed>0.0</speed>
  <fix>3d</fix>
</trkpt>
<trkpt lat="-27.274439" lon="151.290064">
  <ele>343.1</ele>
  <time>2026-09-01T19:55:14Z</time>
  <course>105.03</course>
  <speed>0.0</speed>
  <fix>3d</fix>
</trkpt>
<trkpt lat="-27.274439" lon="151.290064">
  <ele>343.1</ele>
  <time>2026-09-01T19:55:14Z</time>
  <course>10.22</course>
  <speed>0.0</speed>
  <fix>3d</fix>
</trkpt>
<trkpt lat="-27.274439" lon="151.290064">
  <ele>343.1</ele>
  <time>2026-09-01T19:55:14Z</time>
  <course>105.03</course>
  <speed>0.0</speed>
  <fix>3d</fix>
</trkpt>
<trkpt lat="-27.274439" lon="151.290064">
  <ele>343.22</ele>
  <time>2026-09-01T19:55:14Z</time>
  <course>10.26</course>
  <speed>0.0</speed>
  <fix>3d</fix>
</trkpt>
<trkpt lat="-27.274439" lon="151.290064">
  <ele>343.1</ele>
  <time>2026-09-01T19:55:14Z</time>
  <course>105.02</course>
  <speed>0.0</speed>
  <fix>3d</fix>
</trkpt>
<trkpt lat="-27.274439" lon="151.290064">
  <ele>343.17</ele>
  <time>2026-09-01T19:55:14Z</time>
  <course>10.31</course>
  <speed>0.0</speed>
  <fix>3d</fix>
</trkpt>
<trkpt lat="-27.274439" lon="151.290064">
  <ele>343.1</ele>
  <time>2026-09-01T19:55:14Z</time>
  <course>105.02</course>
  <speed>0.0</speed>
  <fix>3d</fix>
</trkpt>
<trkpt lat="-27.274439" lon="151.290064">
  <ele>343.08</ele>
  <time>2026-09-01T19:55:14Z</time>
  <course>10.34</course>
  <speed>0.0</speed>
  <fix>3d</fix>
</trkpt>
<trkpt lat="-27.274439" lon="151.290064">
  <ele>343.1</ele>
  <time>2026-09-01T19:55:14Z</time>
  <course>105.0</course>
  <speed>0.0</speed>
  <fix>3d</fix>
</trkpt>
<trkpt lat="-27.274439" lon="151.290064">
  <ele>343.04</ele>
  <time>2026-09-01T19:55:14Z</time>
  <course>10.38</course>
  <speed>0.0</speed>
  <fix>3d</fix>
</trkpt>
<trkpt lat="-27.274439" lon="151.290064">
  <ele>343.1</ele>
  <time>2026-09-01T19:55:14Z</time>
  <course>105.0</course>
  <speed>0.0</speed>
  <fix>3d</fix>
</trkpt>
<trkpt lat="-27.274439" lon="151.290064">
  <ele>343.18</ele>
  <time>2026-09-01T19:55:14Z</time>
  <course>10.41</course>
  <speed>0.0</speed>
  <fix>3d</fix>
</trkpt>
<trkpt lat="-27.274439" lon="151.290064">
  <ele>343.1</ele>
  <time>2026-09-01T19:55:14Z</time>
  <course>104.99</course>
  <speed>0.0</speed>
  <fix>3d</fix>
</trkpt>
<trkpt lat="-27.274439" lon="151.290064">
  <ele>343.12</ele>
  <time>2026-09-01T19:55:14Z</time>
  <course>10.44</course>
  <speed>0.0</speed>
  <fix>3d</fix>
</trkpt>
<trkpt lat="-27.274439" lon="151.290064">
  <ele>343.1</ele>
  <time>2026-09-01T19:55:14Z</time>
  <course>104.99</course>
  <speed>0.0</speed>
  <fix>3d</fix>
</trkpt>
<trkpt lat="-27.274439" lon="151.290064">
  <ele>343.04</ele>
  <time>2026-09-01T19:55:14Z</time>
  <course>10.46</course>
  <speed>0.0</speed>
  <fix>3d</fix>
</trkpt>
<trkpt lat="-27.274439" lon="151.290064">
  <ele>343.1</ele>
  <time>2026-09-01T19:55:14Z</time>
  <course>104.99</course>
  <speed>0.0</speed>
  <fix>3d</fix>
</trkpt>
<trkpt lat="-27.274439" lon="151.290064">
  <ele>343.07</ele>
  <time>2026-09-01T19:55:14Z</time>
  <course>10.48</course>
  <speed>0.0</speed>
  <fix>3d</fix>
</trkpt>
<trkpt lat="-27.274439" lon="151.290064">
  <ele>343.1</ele>
  <time>2026-09-01T19:55:14Z</time>
  <course>104.99</course>
  <speed>0.0</speed>
  <fix>3d</fix>
</trkpt>
<trkpt lat="-27.274439" lon="151.290064">
  <ele>343.04</ele>
  <time>2026-09-01T19:55:14Z</time>
  <course>10.5</course>
  <speed>0.0</speed>
  <fix>3d</fix>
</trkpt>
<trkpt lat="-27.274439" lon="151.290064">
  <ele>343.1</ele>
  <time>2026-09-01T19:55:14Z</time>
  <course>104.98</course>
  <speed>0.0</speed>
  <fix>3d</fix>
</trkpt>
<trkpt lat="-27.274439" lon="151.290064">
  <ele>343.01</ele>
  <time>2026-09-01T19:55:14Z</time>
  <course>10.52</course>
  <speed>0.0</speed>
  <fix>3d</fix>
</trkpt>
<trkpt lat="-27.274439" lon="151.290064">
  <ele>343.1</ele>
  <time>2026-09-01T19:55:14Z</time>
  <course>104.98</course>
  <speed>0.0</speed>
  <fix>3d</fix>
</trkpt>
<trkpt lat="-27.274439" lon="151.290064">
  <ele>343.2</ele>
  <time>2026-09-01T19:55:14Z</time>
  <course>10.54</course>
  <speed>0.0</speed>
  <fix>3d</fix>
</trkpt>
<trkpt lat="-27.274439" lon="151.290064">
  <ele>343.1</ele>
  <time>2026-09-01T19:55:14Z</time>
  <course>104.96</course>
  <speed>0.0</speed>
  <fix>3d</fix>
</trkpt>
<trkpt lat="-27.274439" lon="151.290064">
  <ele>343.24</ele>
  <time>2026-09-01T19:55:14Z</time>
  <course>10.55</course>
  <speed>0.0</speed>
  <fix>3d</fix>
</trkpt>
<trkpt lat="-27.274439" lon="151.290064">
  <ele>343.1</ele>
  <time>2026-09-01T19:55:14Z</time>
  <course>104.96</course>
  <speed>0.0</speed>
  <fix>3d</fix>
</trkpt>
<trkpt lat="-27.274439" lon="151.290064">
  <ele>342.88</ele>
  <time>2026-09-01T19:55:14Z</time>
  <course>10.56</course>
  <speed>0.0</speed>
  <fix>3d</fix>
</trkpt>
<trkpt lat="-27.274439" lon="151.290064">
  <ele>343.1</ele>
  <time>2026-09-01T19:55:14Z</time>
  <course>104.96</course>
  <speed>0.0</speed>
  <fix>3d</fix>
</trkpt>
<trkpt lat="-27.274439" lon="151.290064">
  <ele>343.21</ele>
  <time>2026-09-01T19:55:14Z</time>
  <course>10.58</course>
  <speed>0.0</speed>
  <fix>3d</fix>
</trkpt>
<trkpt lat="-27.274439" lon="151.290064">
  <ele>343.1</ele>
  <time>2026-09-01T19:55:14Z</time>
  <course>104.96</course>
  <speed>0.0</speed>
  <fix>3d</fix>
</trkpt>
<trkpt lat="-27.274439" lon="151.290064">
  <ele>343.02</ele>
  <time>2026-09-01T19:55:14Z</time>
  <course>10.59</course>
  <speed>0.0</speed>
  <fix>3d</fix>
</trkpt>
<trkpt lat="-27.274439" lon="151.290064">
  <ele>343.1</ele>
  <time>2026-09-01T19:55:14Z</time>
  <course>104.96</course>
  <speed>0.0</speed>
  <fix>3d</fix>
</trkpt>
<trkpt lat="-27.274439" lon="151.290064">
  <ele>342.93</ele>
  <time>2026-09-01T19:55:14Z</time>
  <course>10.6</course>
  <speed>0.0</speed>
  <fix>3d</fix>
</trkpt>
<trkpt lat="-27.274439" lon="151.290064">
  <ele>343.1</ele>
  <time>2026-09-01T19:55:14Z</time>
  <course>104.96</course>
  <speed>0.0</speed>
  <fix>3d</fix>
</trkpt>
<trkpt lat="-27.274439" lon="151.290064">
  <ele>343.07</ele>
  <time>2026-09-01T19:55:14Z</time>
  <course>10.6</course>
  <speed>0.0</speed>
  <fix>3d</fix>
</trkpt>
<trkpt lat="-27.274439" lon="151.290064">
  <ele>343.1</ele>
  <time>2026-09-01T19:55:14Z</time>
  <course>104.96</course>
  <speed>0.0</speed>
  <fix>3d</fix>
</trkpt>
<trkpt lat="-27.274439" lon="151.290064">
  <ele>342.94</ele>
  <time>2026-09-01T19:55:14Z</time>
  <course>10.61</course>
  <speed>0.0</speed>
  <fix>3d</fix>
</trkpt>
<trkpt lat="-27.274439" lon="151.290064">
  <ele>343.1</ele>
  <time>2026-09-01T19:55:14Z</time>
  <course>104.96</course>
  <speed>0.0</speed>
  <fix>3d</fix>
</trkpt>
<trkpt lat="-27.274439" lon="151.290064">
  <ele>343.11</ele>
  <time>2026-09-01T19:55:14Z</time>
  <course>10.62</course>
  <speed>0.0</speed>
  <fix>3d</fix>
</trkpt>
<trkpt lat="-27.274439" lon="151.290064">
  <ele>343.1</ele>
  <time>2026-09-01T19:55:14Z</time>
  <course>104.95</course>
  <speed>0.0</speed>
  <fix>3d</fix>
</trkpt>
<trkpt lat="-27.274439" lon="151.290064">
  <ele>343.24</ele>
  <time>2026-09-01T19:55:15Z</time>
  <course>10.62</course>
  <speed>0.0</speed>
  <fix>3d</fix>
</trkpt>
<trkpt lat="-27.274439" lon="151.290064">
  <ele>343.1</ele>
  <time>2026-09-01T19:55:15Z</time>
  <course>104.95</course>
  <speed>0.0</speed>
  <fix>3d</fix>
</trkpt>
<trkpt lat="-27.274439" lon="151.290064">
  <ele>343.18</ele>
  <time>2026-09-01T19:55:15Z</time>
  <course>10.63</course>
  <speed>0.0</speed>
  <fix>3d</fix>
</trkpt>
<trkpt lat="-27.274439" lon="151.290064">
  <ele>343.1</ele>
  <time>2026-09-01T19:55:15Z</time>
  <course>104.95</course>
  <speed>0.0</speed>
  <fix>3d</fix>
</trkpt>
<trkpt lat="-27.274439" lon="151.290064">
  <ele>342.89</ele>
  <time>2026-09-01T19:55:15Z</time>
  <course>10.63</course>
  <speed>0.0</speed>
  <fix>3d</fix>
</trkpt>
<trkpt lat="-27.274439" lon="151.290064">
  <ele>343.1</ele>
  <time>2026-09-01T19:55:15Z</time>
  <course>104.95</course>
  <speed>0.0</speed>
  <fix>3d</fix>
</trkpt>
<trkpt lat="-27.274439" lon="151.290064">
  <ele>343.23</ele>
  <time>2026-09-01T19:55:15Z</time>
  <course>10.64</course>
  <speed>0.0</speed>
  <fix>3d</fix>
</trkpt>
<trkpt lat="-27.274439" lon="151.290064">
  <ele>343.1</ele>
  <time>2026-09-01T19:55:15Z</time>
  <course>104.95</course>
  <speed>0.0</speed>
  <fix>3d</fix>
</trkpt>
<trkpt lat="-27.274439" lon="151.290064">
  <ele>343.23</ele>
  <time>2026-09-01T19:55:15Z</time>
  <course>10.64</course>
  <speed>0.0</speed>
  <fix>3d</fix>
</trkpt>
<trkpt lat="-27.274439" lon="151.290064">
  <ele>343.1</ele>
  <time>2026-09-01T19:55:15Z</time>
  <course>104.95</course>
  <speed>0.0</speed>
  <fix>3d</fix>
</trkpt>
<trkpt lat="-27.274439" lon="151.290064">
  <ele>342.99</ele>
  <time>2026-09-01T19:55:15Z</time>
  <course>10.64</course>
  <speed>0.0</speed>
  <fix>3d</fix>
</trkpt>
<trkpt lat="-27.274439" lon="151.290064">
  <ele>343.1</ele>
  <time>2026-09-01T19:55:15Z</time>
  <course>104.95</course>
  <speed>0.0</speed>
  <fix>3d</fix>
</trkpt>
<trkpt lat="-27.274439" lon="151.290064">
  <ele>343.13</ele>
  <time>2026-09-01T19:55:15Z</time>
  <course>10.65</course>
  <speed>0.0</speed>
  <fix>3d</fix>
</trkpt>
<trkpt lat="-27.274439" lon="151.290064">
  <ele>343.1</ele>
  <time>2026-09-01T19:55:15Z</time>
  <course>104.95</course>
  <speed>0.0</speed>
  <fix>3d</fix>
</trkpt>
<trkpt lat="-27.274439" lon="151.290064">
  <ele>343.07</ele>
  <time>2026-09-01T19:55:15Z</time>
  <course>10.65</course>
  <speed>0.0</speed>
  <fix>3d</fix>
</trkpt>
<trkpt lat="-27.274439" lon="151.290064">
  <ele>343.1</ele>
  <time>2026-09-01T19:55:15Z</time>
  <course>104.94</course>
  <speed>0.0</speed>
  <fix>3d</fix>
</trkpt>
<trkpt lat="-27.274439" lon="151.290064">
  <ele>343.19</ele>
  <time>2026-09-01T19:55:15Z</time>
  <course>10.65</course>
  <speed>0.0</speed>
  <fix>3d</fix>
</trkpt>
<trkpt lat="-27.274439" lon="151.290064">
  <ele>343.1</ele>
  <time>2026-09-01T19:55:15Z</time>
  <course>104.94</course>
  <speed>0.0</speed>
  <fix>3d</fix>
</trkpt>
<trkpt lat="-27.274439" lon="151.290064">
  <ele>342.93</ele>
  <time>2026-09-01T19:55:15Z</time>
  <course>10.65</course>
  <speed>0.0</speed>
  <fix>3d</fix>
</trkpt>
<trkpt lat="-27.274439" lon="151.290064">
  <ele>343.1</ele>
  <time>2026-09-01T19:55:15Z</time>
  <course>104.94</course>
  <speed>0.0</speed>
  <fix>3d</fix>
</trkpt>
<trkpt lat="-27.274439" lon="151.290064">
  <ele>343.19</ele>
  <time>2026-09-01T19:55:15Z</time>
  <course>10.65</course>
  <speed>0.0</speed>
  <fix>3d</fix>
</trkpt>
<trkpt lat="-27.274439" lon="151.290064">
  <ele>343.1</ele>
  <time>2026-09-01T19:55:15Z</time>
  <course>104.94</course>
  <speed>0.0</speed>
  <fix>3d</fix>
</trkpt>
<trkpt lat="-27.274439" lon="151.290064">
  <ele>343.1</ele>
  <time>2026-09-01T19:55:15Z</time>
  <course>10.66</course>
  <speed>0.0</speed>
  <fix>3d</fix>
</trkpt>
<trkpt lat="-27.274439" lon="151.290064">
  <ele>343.1</ele>
  <time>2026-09-01T19:55:15Z</time>
  <course>104.94</course>
  <speed>0.0</speed>
  <fix>3d</fix>
</trkpt>
<trkpt lat="-27.274439" lon="151.290064">
  <ele>343.01</ele>
  <time>2026-09-01T19:55:15Z</time>
  <course>10.66</course>
  <speed>0.0</speed>
  <fix>3d</fix>
</trkpt>
<trkpt lat="-27.274439" lon="151.290064">
  <ele>343.1</ele>
  <time>2026-09-01T19:55:15Z</time>
  <course>104.94</course>
  <speed>0.0</speed>
  <fix>3d</fix>
</trkpt>
<trkpt lat="-27.274439" lon="151.290064">
  <ele>343.11</ele>
  <time>2026-09-01T19:55:15Z</time>
  <course>10.66</course>
  <speed>0.0</speed>
  <fix>3d</fix>
</trkpt>
<trkpt lat="-27.274439" lon="151.290064">
  <ele>343.1</ele>
  <time>2026-09-01T19:55:15Z</time>
  <course>104.94</course>
  <speed>0.0</speed>
  <fix>3d</fix>
</trkpt>
<trkpt lat="-27.274439" lon="151.290064">
  <ele>342.96</ele>
  <time>2026-09-01T19:55:15Z</time>
  <course>10.66</course>
  <speed>0.0</speed>
  <fix>3d</fix>
</trkpt>
<trkpt lat="-27.274439" lon="151.290064">
  <ele>343.1</ele>
  <time>2026-09-01T19:55:15Z</time>
  <course>104.94</course>
  <speed>0.0</speed>
  <fix>3d</fix>
</trkpt>
<trkpt lat="-27.274439" lon="151.290064">
  <ele>343.19</ele>
  <time>2026-09-01T19:55:15Z</time>
  <course>10.66</course>
  <speed>0.0</speed>
  <fix>3d</fix>
</trkpt>
<trkpt lat="-27.274439" lon="151.290064">
  <ele>343.1</ele>
  <time>2026-09-01T19:55:15Z</time>
  <course>104.94</course>
  <speed>0.0</speed>
  <fix>3d</fix>
</trkpt>
<trkpt lat="-27.274439" lon="151.290064">
  <ele>343.0</ele>
  <time>2026-09-01T19:55:15Z</time>
  <course>10.66</course>
  <speed>0.0</speed>
  <fix>3d</fix>
</trkpt>
<trkpt lat="-27.274439" lon="151.290064">
  <ele>343.1</ele>
  <time>2026-09-01T19:55:15Z</time>
  <course>104.94</course>
  <speed>0.0</speed>
  <fix>3d</fix>
</trkpt>
<trkpt lat="-27.274439" lon="151.290064">
  <ele>343.2</ele>
  <time>2026-09-01T19:55:15Z</time>
  <course>10.66</course>
  <speed>0.0</speed>
  <fix>3d</fix>
</trkpt>
<trkpt lat="-27.274439" lon="151.290064">
  <ele>343.1</ele>
  <time>2026-09-01T19:55:15Z</time>
  <course>104.93</course>
  <speed>0.0</speed>
  <fix>3d</fix>
</trkpt>
<trkpt lat="-27.274439" lon="151.290064">
  <ele>343.2</ele>
  <time>2026-09-01T19:55:15Z</time>
  <course>10.66</course>
  <speed>0.0</speed>
  <fix>3d</fix>
</trkpt>
<trkpt lat="-27.274439" lon="151.290064">
  <ele>343.1</ele>
  <time>2026-09-01T19:55:15Z</time>
  <course>104.93</course>
  <speed>0.0</speed>
  <fix>3d</fix>
</trkpt>
<trkpt lat="-27.274439" lon="151.290064">
  <ele>343.13</ele>
  <time>2026-09-01T19:55:15Z</time>
  <course>10.66</course>
  <speed>0.0</speed>
  <fix>3d</fix>
</trkpt>
<trkpt lat="-27.274439" lon="151.290064">
  <ele>343.1</ele>
  <time>2026-09-01T19:55:15Z</time>
  <course>104.93</course>
  <speed>0.0</speed>
  <fix>3d</fix>
</trkpt>
<trkpt lat="-27.274439" lon="151.290064">
  <ele>343.1</ele>
  <time>2026-09-01T19:55:15Z</time>
  <course>10.66</course>
  <speed>0.0</speed>
  <fix>3d</fix>
</trkpt>
<trkpt lat="-27.274439" lon="151.290064">
  <ele>343.1</ele>
  <time>2026-09-01T19:55:15Z</time>
  <course>104.93</course>
  <speed>0.0</speed>
  <fix>3d</fix>
</trkpt>
<trkpt lat="-27.274439" lon="151.290064">
  <ele>343.12</ele>
  <time>2026-09-01T19:55:15Z</time>
  <course>10.66</course>
  <speed>0.0</speed>
  <fix>3d</fix>
</trkpt>
<trkpt lat="-27.274439" lon="151.290064">
  <ele>343.1</ele>
  <time>2026-09-01T19:55:15Z</time>
  <course>104.93</course>
  <speed>0.0</speed>
  <fix>3d</fix>
</trkpt>
<trkpt lat="-27.274439" lon="151.290064">
  <ele>342.94</ele>
  <time>2026-09-01T19:55:15Z</time>
  <course>10.66</course>
  <speed>0.0</speed>
  <fix>3d</fix>
</trkpt>
<trkpt lat="-27.274439" lon="151.290064">
  <ele>343.1</ele>
  <time>2026-09-01T19:55:15Z</time>
  <course>104.93</course>
  <speed>0.0</speed>
  <fix>3d</fix>
</trkpt>
<trkpt lat="-27.274439" lon="151.290064">
  <ele>343.25</ele>
  <time>2026-09-01T19:55:15Z</time>
  <course>10.66</course>
  <speed>0.0</speed>
  <fix>3d</fix>
</trkpt>
<trkpt lat="-27.274439" lon="151.290064">
  <ele>343.1</ele>
  <time>2026-09-01T19:55:15Z</time>
  <course>104.93</course>
  <speed>0.0</speed>
  <fix>3d</fix>
</trkpt>
<trkpt lat="-27.274439" lon="151.290064">
  <ele>342.93</ele>
  <time>2026-09-01T19:55:15Z</time>
  <course>10.66</course>
  <speed>0.0</speed>
  <fix>3d</fix>
</trkpt>
<trkpt lat="-27.274439" lon="151.290064">
  <ele>343.1</ele>
  <time>2026-09-01T19:55:15Z</time>
  <course>104.93</course>
  <speed>0.0</speed>
  <fix>3d</fix>
</trkpt>
<trkpt lat="-27.274439" lon="151.290064">
  <ele>343.08</ele>
  <time>2026-09-01T19:55:15Z</time>
  <course>10.65</course>
  <speed>0.0</speed>
  <fix>3d</fix>
</trkpt>
<trkpt lat="-27.274439" lon="151.290064">
  <ele>343.1</ele>
  <time>2026-09-01T19:55:15Z</time>
  <course>104.93</course>
  <speed>0.0</speed>
  <fix>3d</fix>
</trkpt>
<trkpt lat="-27.274439" lon="151.290064">
  <ele>343.23</ele>
  <time>2026-09-01T19:55:15Z</time>
  <course>10.65</course>
  <speed>0.0</speed>
  <fix>3d</fix>
</trkpt>
<trkpt lat="-27.274439" lon="151.290064">
  <ele>343.1</ele>
  <time>2026-09-01T19:55:15Z</time>
  <course>104.93</course>
  <speed>0.0</speed>
  <fix>3d</fix>
</trkpt>
<trkpt lat="-27.274439" lon="151.290064">
  <ele>343.01</ele>
  <time>2026-09-01T19:55:15Z</time>
  <course>10.65</course>
  <speed>0.0</speed>
  <fix>3d</fix>
</trkpt>
<trkpt lat="-27.274439" lon="151.290064">
  <ele>343.1</ele>
  <time>2026-09-01T19:55:15Z</time>
  <course>104.92</course>
  <speed>0.0</speed>
  <fix>3d</fix>
</trkpt>
<trkpt lat="-27.274439" lon="151.290064">
  <ele>343.1</ele>
  <time>2026-09-01T19:55:15Z</time>
  <course>10.65</course>
  <speed>0.0</speed>
  <fix>3d</fix>
</trkpt>
<trkpt lat="-27.274439" lon="151.290064">
  <ele>343.1</ele>
  <time>2026-09-01T19:55:15Z</time>
  <course>104.92</course>
  <speed>0.0</speed>
  <fix>3d</fix>
</trkpt>
<trkpt lat="-27.274439" lon="151.290064">
  <ele>342.99</ele>
  <time>2026-09-01T19:55:15Z</time>
  <course>10.65</course>
  <speed>0.0</speed>
  <fix>3d</fix>
</trkpt>
<trkpt lat="-27.274439" lon="151.290064">
  <ele>343.1</ele>
  <time>2026-09-01T19:55:15Z</time>
  <course>104.92</course>
  <speed>0.0</speed>
  <fix>3d</fix>
</trkpt>
<trkpt lat="-27.274439" lon="151.290064">
  <ele>342.87</ele>
  <time>2026-09-01T19:55:15Z</time>
  <course>10.65</course>
  <speed>0.0</speed>
  <fix>3d</fix>
</trkpt>
<trkpt lat="-27.274439" lon="151.290064">
  <ele>343.1</ele>
  <time>2026-09-01T19:55:15Z</time>
  <course>104.92</course>
  <speed>0.0</speed>
  <fix>3d</fix>
</trkpt>
<trkpt lat="-27.274439" lon="151.290064">
  <ele>343.1</ele>
  <time>2026-09-01T19:55:15Z</time>
  <course>10.65</course>
  <speed>0.0</speed>
  <fix>3d</fix>
</trkpt>
<trkpt lat="-27.274439" lon="151.290064">
  <ele>343.1</ele>
  <time>2026-09-01T19:55:15Z</time>
  <course>104.92</course>
  <speed>0.0</speed>
  <fix>3d</fix>
</trkpt>
<trkpt lat="-27.274439" lon="151.290064">
  <ele>342.99</ele>
  <time>2026-09-01T19:55:15Z</time>
  <course>10.65</course>
  <speed>0.0</speed>
  <fix>3d</fix>
</trkpt>
<trkpt lat="-27.274439" lon="151.290064">
  <ele>343.1</ele>
  <time>2026-09-01T19:55:15Z</time>
  <course>104.92</course>
  <speed>0.0</speed>
  <fix>3d</fix>
</trkpt>
<trkpt lat="-27.274439" lon="151.290064">
  <ele>342.91</ele>
  <time>2026-09-01T19:55:15Z</time>
  <course>10.65</course>
  <speed>0.0</speed>
  <fix>3d</fix>
</trkpt>
<trkpt lat="-27.274439" lon="151.290064">
  <ele>343.1</ele>
  <time>2026-09-01T19:55:15Z</time>
  <course>104.92</course>
  <speed>0.0</speed>
  <fix>3d</fix>
</trkpt>
<trkpt lat="-27.274439" lon="151.290064">
  <ele>342.9</ele>
  <time>2026-09-01T19:55:15Z</time>
  <course>10.65</course>
  <speed>0.0</speed>
  <fix>3d</fix>
</trkpt>
<trkpt lat="-27.274439" lon="151.290064">
  <ele>343.1</ele>
  <time>2026-09-01T19:55:15Z</time>
  <course>104.92</course>
  <speed>0.0</speed>
  <fix>3d</fix>
</trkpt>
<trkpt lat="-27.274439" lon="151.290064">
  <ele>342.87</ele>
  <time>2026-09-01T19:55:15Z</time>
  <course>10.65</course>
  <speed>0.0</speed>
  <fix>3d</fix>
</trkpt>
<trkpt lat="-27.274439" lon="151.290064">
  <ele>343.1</ele>
  <time>2026-09-01T19:55:15Z</time>
  <course>104.92</course>
  <speed>0.0</speed>
  <fix>3d</fix>
</trkpt>
<trkpt lat="-27.274439" lon="151.290064">
  <ele>343.12</ele>
  <time>2026-09-01T19:55:15Z</time>
  <course>10.65</course>
  <speed>0.0</speed>
  <fix>3d</fix>
</trkpt>
<trkpt lat="-27.274439" lon="151.290064">
  <ele>343.1</ele>
  <time>2026-09-01T19:55:15Z</time>
  <course>104.92</course>
  <speed>0.0</speed>
  <fix>3d</fix>
</trkpt>
<trkpt lat="-27.274439" lon="151.290064">
  <ele>342.99</ele>
  <time>2026-09-01T19:55:15Z</time>
  <course>10.64</course>
  <speed>0.0</speed>
  <fix>3d</fix>
</trkpt>
<trkpt lat="-27.274439" lon="151.290064">
  <ele>343.1</ele>
  <time>2026-09-01T19:55:15Z</time>
  <course>104.91</course>
  <speed>0.0</speed>
  <fix>3d</fix>
</trkpt>
<trkpt lat="-27.274439" lon="151.290064">
  <ele>343.13</ele>
  <time>2026-09-01T19:55:15Z</time>
  <course>10.64</course>
  <speed>0.0</speed>
  <fix>3d</fix>
</trkpt>
<trkpt lat="-27.274439" lon="151.290064">
  <ele>343.1</ele>
  <time>2026-09-01T19:55:15Z</time>
  <course>104.91</course>
  <speed>0.0</speed>
  <fix>3d</fix>
</trkpt>
<trkpt lat="-27.274439" lon="151.290064">
  <ele>343.0</ele>
  <time>2026-09-01T19:55:15Z</time>
  <course>10.64</course>
  <speed>0.0</speed>
  <fix>3d</fix>
</trkpt>
<trkpt lat="-27.274439" lon="151.290064">
  <ele>343.1</ele>
  <time>2026-09-01T19:55:15Z</time>
  <course>104.91</course>
  <speed>0.0</speed>
  <fix>3d</fix>
</trkpt>
<trkpt lat="-27.274439" lon="151.290064">
  <ele>343.17</ele>
  <time>2026-09-01T19:55:15Z</time>
  <course>10.64</course>
  <speed>0.0</speed>
  <fix>3d</fix>
</trkpt>
<trkpt lat="-27.274439" lon="151.290064">
  <ele>343.1</ele>
  <time>2026-09-01T19:55:15Z</time>
  <course>104.91</course>
  <speed>0.0</speed>
  <fix>3d</fix>
</trkpt>
<trkpt lat="-27.274439" lon="151.290064">
  <ele>343.0</ele>
  <time>2026-09-01T19:55:15Z</time>
  <course>10.64</course>
  <speed>0.0</speed>
  <fix>3d</fix>
</trkpt>
<trkpt lat="-27.274439" lon="151.290064">
  <ele>343.1</ele>
  <time>2026-09-01T19:55:15Z</time>
  <course>104.91</course>
  <speed>0.0</speed>
  <fix>3d</fix>
</trkpt>
<trkpt lat="-27.274439" lon="151.290064">
  <ele>342.99</ele>
  <time>2026-09-01T19:55:15Z</time>
  <course>10.64</course>
  <speed>0.0</speed>
  <fix>3d</fix>
</trkpt>
<trkpt lat="-27.274439" lon="151.290064">
  <ele>343.1</ele>
  <time>2026-09-01T19:55:15Z</time>
  <course>104.91</course>
  <speed>0.0</speed>
  <fix>3d</fix>
</trkpt>
<trkpt lat="-27.274439" lon="151.290064">
  <ele>343.17</ele>
  <time>2026-09-01T19:55:15Z</time>
  <course>10.64</course>
  <speed>0.0</speed>
  <fix>3d</fix>
</trkpt>
<trkpt lat="-27.274439" lon="151.290064">
  <ele>343.1</ele>
  <time>2026-09-01T19:55:15Z</time>
  <course>104.91</course>
  <speed>0.0</speed>
  <fix>3d</fix>
</trkpt>
<trkpt lat="-27.274439" lon="151.290064">
  <ele>343.16</ele>
  <time>2026-09-01T19:55:15Z</time>
  <course>10.64</course>
  <speed>0.0</speed>
  <fix>3d</fix>
</trkpt>
<trkpt lat="-27.274439" lon="151.290064">
  <ele>343.1</ele>
  <time>2026-09-01T19:55:15Z</time>
  <course>104.91</course>
  <speed>0.0</speed>
  <fix>3d</fix>
</trkpt>
<trkpt lat="-27.274439" lon="151.290064">
  <ele>342.87</ele>
  <time>2026-09-01T19:55:15Z</time>
  <course>10.64</course>
  <speed>0.0</speed>
  <fix>3d</fix>
</trkpt>
<trkpt lat="-27.274439" lon="151.290064">
  <ele>343.1</ele>
  <time>2026-09-01T19:55:15Z</time>
  <course>104.91</course>
  <speed>0.0</speed>
  <fix>3d</fix>
</trkpt>
<trkpt lat="-27.274439" lon="151.290064">
  <ele>343.19</ele>
  <time>2026-09-01T19:55:15Z</time>
  <course>10.63</course>
  <speed>0.0</speed>
  <fix>3d</fix>
</trkpt>
<trkpt lat="-27.274439" lon="151.290064">
  <ele>343.1</ele>
  <time>2026-09-01T19:55:15Z</time>
  <course>104.91</course>
  <speed>0.0</speed>
  <fix>3d</fix>
</trkpt>
<trkpt lat="-27.274439" lon="151.290064">
  <ele>343.16</ele>
  <time>2026-09-01T19:55:15Z</time>
  <course>10.63</course>
  <speed>0.0</speed>
  <fix>3d</fix>
</trkpt>
<trkpt lat="-27.274439" lon="151.290064">
  <ele>343.1</ele>
  <time>2026-09-01T19:55:15Z</time>
  <course>104.9</course>
  <speed>0.0</speed>
  <fix>3d</fix>
</trkpt>
<trkpt lat="-27.274439" lon="151.290064">
  <ele>343.21</ele>
  <time>2026-09-01T19:55:15Z</time>
  <course>10.63</course>
  <speed>0.0</speed>
  <fix>3d</fix>
</trkpt>
<trkpt lat="-27.274439" lon="151.290064">
  <ele>343.1</ele>
  <time>2026-09-01T19:55:15Z</time>
  <course>104.9</course>
  <speed>0.0</speed>
  <fix>3d</fix>
</trkpt>
<trkpt lat="-27.274439" lon="151.290064">
  <ele>343.22</ele>
  <time>2026-09-01T19:55:15Z</time>
  <course>10.63</course>
  <speed>0.0</speed>
  <fix>3d</fix>
</trkpt>
<trkpt lat="-27.274439" lon="151.290064">
  <ele>343.1</ele>
  <time>2026-09-01T19:55:15Z</time>
  <course>104.9</course>
  <speed>0.0</speed>
  <fix>3d</fix>
</trkpt>
<trkpt lat="-27.274439" lon="151.290064">
  <ele>343.24</ele>
  <time>2026-09-01T19:55:15Z</time>
  <course>10.63</course>
  <speed>0.0</speed>
  <fix>3d</fix>
</trkpt>
<trkpt lat="-27.274439" lon="151.290064">
  <ele>343.1</ele>
  <time>2026-09-01T19:55:15Z</time>
  <course>104.9</course>
  <speed>0.0</speed>
  <fix>3d</fix>
</trkpt>
<trkpt lat="-27.274439" lon="151.290064">
  <ele>343.0</ele>
  <time>2026-09-01T19:55:15Z</time>
  <course>10.63</course>
  <speed>0.0</speed>
  <fix>3d</fix>
</trkpt>
<trkpt lat="-27.274439" lon="151.290064">
  <ele>343.1</ele>
  <time>2026-09-01T19:55:15Z</time>
  <course>104.9</course>
  <speed>0.0</speed>
  <fix>3d</fix>
</trkpt>
<trkpt lat="-27.274439" lon="151.290064">
  <ele>343.1</ele>
  <time>2026-09-01T19:55:15Z</time>
  <course>10.63</course>
  <speed>0.0</speed>
  <fix>3d</fix>
</trkpt>
<trkpt lat="-27.274439" lon="151.290064">
  <ele>343.1</ele>
  <time>2026-09-01T19:55:15Z</time>
  <course>104.9</course>
  <speed>0.0</speed>
  <fix>3d</fix>
</trkpt>
<trkpt lat="-27.274439" lon="151.290064">
  <ele>343.05</ele>
  <time>2026-09-01T19:55:15Z</time>
  <course>10.63</course>
  <speed>0.0</speed>
  <fix>3d</fix>
</trkpt>
<trkpt lat="-27.274439" lon="151.290064">
  <ele>343.1</ele>
  <time>2026-09-01T19:55:15Z</time>
  <course>104.9</course>
  <speed>0.0</speed>
  <fix>3d</fix>
</trkpt>
<trkpt lat="-27.274439" lon="151.290064">
  <ele>342.87</ele>
  <time>2026-09-01T19:55:15Z</time>
  <course>10.63</course>
  <speed>0.0</speed>
  <fix>3d</fix>
</trkpt>
<trkpt lat="-27.274439" lon="151.290064">
  <ele>343.1</ele>
  <time>2026-09-01T19:55:15Z</time>
  <course>104.9</course>
  <speed>0.0</speed>
  <fix>3d</fix>
</trkpt>
<trkpt lat="-27.274439" lon="151.290064">
  <ele>342.92</ele>
  <time>2026-09-01T19:55:15Z</time>
  <course>10.62</course>
  <speed>0.0</speed>
  <fix>3d</fix>
</trkpt>
<trkpt lat="-27.274439" lon="151.290064">
  <ele>343.1</ele>
  <time>2026-09-01T19:55:15Z</time>
  <course>104.89</course>
  <speed>0.0</speed>
  <fix>3d</fix>
</trkpt>
<trkpt lat="-27.274439" lon="151.290064">
  <ele>342.96</ele>
  <time>2026-09-01T19:55:15Z</time>
  <course>10.62</course>
  <speed>0.0</speed>
  <fix>3d</fix>
</trkpt>
<trkpt lat="-27.274439" lon="151.290064">
  <ele>343.1</ele>
  <time>2026-09-01T19:55:15Z</time>
  <course>104.89</course>
  <speed>0.0</speed>
  <fix>3d</fix>
</trkpt>
<trkpt lat="-27.274439" lon="151.290064">
  <ele>343.15</ele>
  <time>2026-09-01T19:55:15Z</time>
  <course>10.62</course>
  <speed>0.0</speed>
  <fix>3d</fix>
</trkpt>
<trkpt lat="-27.274439" lon="151.290064">
  <ele>343.1</ele>
  <time>2026-09-01T19:55:15Z</time>
  <course>104.89</course>
  <speed>0.0</speed>
  <fix>3d</fix>
</trkpt>
<trkpt lat="-27.274439" lon="151.290064">
  <ele>343.16</ele>
  <time>2026-09-01T19:55:15Z</time>
  <course>10.62</course>
  <speed>0.0</speed>
  <fix>3d</fix>
</trkpt>
<trkpt lat="-27.274439" lon="151.290064">
  <ele>343.1</ele>
  <time>2026-09-01T19:55:15Z</time>
  <course>104.89</course>
  <speed>0.0</speed>
  <fix>3d</fix>
</trkpt>
<trkpt lat="-27.274439" lon="151.290064">
  <ele>343.2</ele>
  <time>2026-09-01T19:55:15Z</time>
  <course>10.63</course>
  <speed>0.0</speed>
  <fix>3d</fix>
</trkpt>
<trkpt lat="-27.274439" lon="151.290064">
  <ele>343.1</ele>
  <time>2026-09-01T19:55:15Z</time>
  <course>104.89</course>
  <speed>0.0</speed>
  <fix>3d</fix>
</trkpt>
<trkpt lat="-27.274439" lon="151.290064">
  <ele>343.13</ele>
  <time>2026-09-01T19:55:15Z</time>
  <course>10.64</course>
  <speed>0.0</speed>
  <fix>3d</fix>
</trkpt>
<trkpt lat="-27.274439" lon="151.290064">
  <ele>343.1</ele>
  <time>2026-09-01T19:55:15Z</time>
  <course>104.89</course>
  <speed>0.0</speed>
  <fix>3d</fix>
</trkpt>
<trkpt lat="-27.274439" lon="151.290064">
  <ele>343.09</ele>
  <time>2026-09-01T19:55:15Z</time>
  <course>10.53</course>
  <speed>0.0</speed>
  <fix>3d</fix>
</trkpt>
<trkpt lat="-27.274439" lon="151.290064">
  <ele>343.1</ele>
  <time>2026-09-01T19:55:15Z</time>
  <course>104.89</course>
  <speed>0.0</speed>
  <fix>3d</fix>
</trkpt>
<trkpt lat="-27.274439" lon="151.290064">
  <ele>343.09</ele>
  <time>2026-09-01T19:55:15Z</time>
  <course>10.53</course>
  <speed>0.0</speed>
  <fix>3d</fix>
</trkpt>
<trkpt lat="-27.274439" lon="151.290064">
  <ele>343.1</ele>
  <time>2026-09-01T19:55:15Z</time>
  <course>104.89</course>
  <speed>0.0</speed>
  <fix>3d</fix>
</trkpt>
<trkpt lat="-27.274439" lon="151.290064">
  <ele>343.1</ele>
  <time>2026-09-01T19:55:15Z</time>
  <course>10.52</course>
  <speed>0.0</speed>
  <fix>3d</fix>
</trkpt>
<trkpt lat="-27.274439" lon="151.290064">
  <ele>343.1</ele>
  <time>2026-09-01T19:55:15Z</time>
  <course>104.89</course>
  <speed>0.0</speed>
  <fix>3d</fix>
</trkpt>
<trkpt lat="-27.274439" lon="151.290064">
  <ele>343.1</ele>
  <time>2026-09-01T19:55:15Z</time>
  <course>10.52</course>
  <speed>0.0</speed>
  <fix>3d</fix>
</trkpt>
<trkpt lat="-27.274439" lon="151.290064">
  <ele>343.1</ele>
  <time>2026-09-01T19:55:15Z</time>
  <course>104.89</course>
  <speed>0.0</speed>
  <fix>3d</fix>
</trkpt>
<trkpt lat="-27.274439" lon="151.290064">
  <ele>343.1</ele>
  <time>2026-09-01T19:55:15Z</time>
  <course>10.52</course>
  <speed>0.0</speed>
  <fix>3d</fix>
</trkpt>
<trkpt lat="-27.274439" lon="151.290064">
  <ele>343.1</ele>
  <time>2026-09-01T19:55:15Z</time>
  <course>104.88</course>
  <speed>0.0</speed>
  <fix>3d</fix>
</trkpt>
<trkpt lat="-27.274439" lon="151.290064">
  <ele>343.1</ele>
  <time>2026-09-01T19:55:15Z</time>
  <course>10.52</course>
  <speed>0.0</speed>
  <fix>3d</fix>
</trkpt>
<trkpt lat="-27.274439" lon="151.290064">
  <ele>343.1</ele>
  <time>2026-09-01T19:55:15Z</time>
  <course>104.88</course>
  <speed>0.0</speed>
  <fix>3d</fix>
</trkpt>
<trkpt lat="-27.274439" lon="151.290064">
  <ele>343.1</ele>
  <time>2026-09-01T19:55:15Z</time>
  <course>10.52</course>
  <speed>0.0</speed>
  <fix>3d</fix>
</trkpt>
<trkpt lat="-27.274439" lon="151.290064">
  <ele>343.1</ele>
  <time>2026-09-01T19:55:15Z</time>
  <course>104.88</course>
  <speed>0.0</speed>
  <fix>3d</fix>
</trkpt>
<trkpt lat="-27.274439" lon="151.290064">
  <ele>343.11</ele>
  <time>2026-09-01T19:55:15Z</time>
  <course>10.52</course>
  <speed>0.0</speed>
  <fix>3d</fix>
</trkpt>
<trkpt lat="-27.274439" lon="151.290064">
  <ele>343.1</ele>
  <time>2026-09-01T19:55:15Z</time>
  <course>104.88</course>
  <speed>0.0</speed>
  <fix>3d</fix>
</trkpt>
<trkpt lat="-27.274439" lon="151.290064">
  <ele>343.11</ele>
  <time>2026-09-01T19:55:15Z</time>
  <course>10.51</course>
  <speed>0.0</speed>
  <fix>3d</fix>
</trkpt>
<trkpt lat="-27.274439" lon="151.290064">
  <ele>343.1</ele>
  <time>2026-09-01T19:55:15Z</time>
  <course>104.88</course>
  <speed>0.0</speed>
  <fix>3d</fix>
</trkpt>
<trkpt lat="-27.274439" lon="151.290064">
  <ele>343.11</ele>
  <time>2026-09-01T19:55:15Z</time>
  <course>10.51</course>
  <speed>0.0</speed>
  <fix>3d</fix>
</trkpt>
<trkpt lat="-27.274439" lon="151.290064">
  <ele>343.1</ele>
  <time>2026-09-01T19:55:15Z</time>
  <course>104.88</course>
  <speed>0.0</speed>
  <fix>3d</fix>
</trkpt>
<trkpt lat="-27.274439" lon="151.290064">
  <ele>343.1</ele>
  <time>2026-09-01T19:55:15Z</time>
  <course>10.51</course>
  <speed>0.0</speed>
  <fix>3d</fix>
</trkpt>
<trkpt lat="-27.274439" lon="151.290064">
  <ele>343.1</ele>
  <time>2026-09-01T19:55:15Z</time>
  <course>104.88</course>
  <speed>0.0</speed>
  <fix>3d</fix>
</trkpt>
<trkpt lat="-27.274439" lon="151.290064">
  <ele>343.1</ele>
  <time>2026-09-01T19:55:15Z</time>
  <course>10.51</course>
  <speed>0.0</speed>
  <fix>3d</fix>
</trkpt>
<trkpt lat="-27.274439" lon="151.290064">
  <ele>343.1</ele>
  <time>2026-09-01T19:55:15Z</time>
  <course>104.88</course>
  <speed>0.0</speed>
  <fix>3d</fix>
</trkpt>
<trkpt lat="-27.274439" lon="151.290064">
  <ele>343.1</ele>
  <time>2026-09-01T19:55:15Z</time>
  <course>10.51</course>
  <speed>0.0</speed>
  <fix>3d</fix>
</trkpt>
<trkpt lat="-27.274439" lon="151.290064">
  <ele>343.1</ele>
  <time>2026-09-01T19:55:15Z</time>
  <course>104.88</course>
  <speed>0.0</speed>
  <fix>3d</fix>
</trkpt>
<trkpt lat="-27.274439" lon="151.290064">
  <ele>343.1</ele>
  <time>2026-09-01T19:55:15Z</time>
  <course>10.51</course>
  <speed>0.02</speed>
  <fix>3d</fix>
</trkpt>
<trkpt lat="-27.274439" lon="151.290064">
  <ele>343.1</ele>
  <time>2026-09-01T19:55:15Z</time>
  <course>104.88</course>
  <speed>0.0</speed>
  <fix>3d</fix>
</trkpt>
<trkpt lat="-27.274439" lon="151.290064">
  <ele>343.09</ele>
  <time>2026-09-01T19:55:15Z</time>
  <course>10.51</course>
  <speed>0.05099019513592785</speed>
  <fix>3d</fix>
</trkpt>
<trkpt lat="-27.274439" lon="151.290064">
  <ele>343.1</ele>
  <time>2026-09-01T19:55:15Z</time>
  <course>7.25</course>
  <speed>0.01</speed>
  <fix>3d</fix>
</trkpt>
<trkpt lat="-27.2744389" lon="151.290064">
  <ele>343.09</ele>
  <time>2026-09-01T19:55:15Z</time>
  <course>10.5</course>
  <speed>0.06082762530298219</speed>
  <fix>3d</fix>
</trkpt>
<trkpt lat="-27.274439" lon="151.290064">
  <ele>343.1</ele>
  <time>2026-09-01T19:55:15Z</time>
  <course>7.25</course>
  <speed>0.01</speed>
  <fix>3d</fix>
</trkpt>
<trkpt lat="-27.2744389" lon="151.290064">
  <ele>343.09</ele>
  <time>2026-09-01T19:55:15Z</time>
  <course>10.5</course>
  <speed>0.06082762530298219</speed>
  <fix>3d</fix>
</trkpt>
<trkpt lat="-27.274439" lon="151.290064">
  <ele>343.1</ele>
  <time>2026-09-01T19:55:15Z</time>
  <course>7.83</course>
  <speed>0.04</speed>
  <fix>3d</fix>
</trkpt>
<trkpt lat="-27.2744388" lon="151.290064">
  <ele>343.09</ele>
  <time>2026-09-01T19:55:15Z</time>
  <course>10.5</course>
  <speed>0.06082762530298219</speed>
  <fix>3d</fix>
</trkpt>
<trkpt lat="-27.274439" lon="151.290064">
  <ele>343.1</ele>
  <time>2026-09-01T19:55:15Z</time>
  <course>7.83</course>
  <speed>0.04</speed>
  <fix>3d</fix>
</trkpt>
<trkpt lat="-27.2744388" lon="151.290064">
  <ele>343.09</ele>
  <time>2026-09-01T19:55:15Z</time>
  <course>10.5</course>
  <speed>0.05099019513592785</speed>
  <fix>3d</fix>
</trkpt>
<trkpt lat="-27.2744389" lon="151.290064">
  <ele>343.1</ele>
  <time>2026-09-01T19:55:15Z</time>
  <course>7.45</course>
  <speed>0.06</speed>
  <fix>3d</fix>
</trkpt>
<trkpt lat="-27.2744387" lon="151.290064">
  <ele>343.09</ele>
  <time>2026-09-01T19:55:15Z</time>
  <course>10.5</course>
  <speed>0.06082762530298219</speed>
  <fix>3d</fix>
</trkpt>
<trkpt lat="-27.2744389" lon="151.290064">
  <ele>343.1</ele>
  <time>2026-09-01T19:55:15Z</time>
  <course>7.45</course>
  <speed>0.06</speed>
  <fix>3d</fix>
</trkpt>
<trkpt lat="-27.2744387" lon="151.290064">
  <ele>343.09</ele>
  <time>2026-09-01T19:55:15Z</time>
  <course>10.5</course>
  <speed>0.06082762530298219</speed>
  <fix>3d</fix>
</trkpt>
<trkpt lat="-27.2744388" lon="151.290064">
  <ele>343.1</ele>
  <time>2026-09-01T19:55:15Z</time>
  <course>7.76</course>
  <speed>0.06</speed>
  <fix>3d</fix>
</trkpt>
<trkpt lat="-27.2744386" lon="151.290064">
  <ele>343.09</ele>
  <time>2026-09-01T19:55:15Z</time>
  <course>10.5</course>
  <speed>0.06</speed>
  <fix>3d</fix>
</trkpt>
<trkpt lat="-27.2744388" lon="151.290064">
  <ele>343.1</ele>
  <time>2026-09-01T19:55:15Z</time>
  <course>7.76</course>
  <speed>0.06</speed>
  <fix>3d</fix>
</trkpt>
<trkpt lat="-27.2744386" lon="151.290064">
  <ele>343.09</ele>
  <time>2026-09-01T19:55:15Z</time>
  <course>10.5</course>
  <speed>0.05</speed>
  <fix>3d</fix>
</trkpt>
<trkpt lat="-27.2744387" lon="151.290064">
  <ele>343.1</ele>
  <time>2026-09-01T19:55:15Z</time>
  <course>8.66</course>
  <speed>0.06</speed>
  <fix>3d</fix>
</trkpt>
<trkpt lat="-27.2744385" lon="151.290064">
  <ele>343.09</ele>
  <time>2026-09-01T19:55:15Z</time>
  <course>10.5</course>
  <speed>0.03</speed>
  <fix>3d</fix>
</trkpt>
<trkpt lat="-27.2744387" lon="151.290064">
  <ele>343.1</ele>
  <time>2026-09-01T19:55:15Z</time>
  <course>8.66</course>
  <speed>0.06</speed>
  <fix>3d</fix>
</trkpt>
<trkpt lat="-27.2744385" lon="151.290064">
  <ele>343.09</ele>
  <time>2026-09-01T19:55:15Z</time>
  <course>10.5</course>
  <speed>0.01</speed>
  <fix>3d</fix>
</trkpt>
<trkpt lat="-27.2744386" lon="151.290064">
  <ele>343.1</ele>
  <time>2026-09-01T19:55:15Z</time>
  <course>7.55</course>
  <speed>0.05</speed>
  <fix>3d</fix>
</trkpt>
<trkpt lat="-27.2744385" lon="151.290064">
  <ele>343.09</ele>
  <time>2026-09-01T19:55:15Z</time>
  <course>10.5</course>
  <speed>0.0</speed>
  <fix>3d</fix>
</trkpt>
<trkpt lat="-27.2744386" lon="151.290064">
  <ele>343.1</ele>
  <time>2026-09-01T19:55:15Z</time>
  <course>7.55</course>
  <speed>0.05</speed>
  <fix>3d</fix>
</trkpt>
<trkpt lat="-27.2744385" lon="151.290064">
  <ele>343.08</ele>
  <time>2026-09-01T19:55:15Z</time>
  <course>10.5</course>
  <speed>0.01</speed>
  <fix>3d</fix>
</trkpt>
<trkpt lat="-27.2744385" lon="151.290064">
  <ele>343.1</ele>
  <time>2026-09-01T19:55:15Z</time>
  <course>6.37</course>
  <speed>0.01</speed>
  <fix>3d</fix>
</trkpt>
<trkpt lat="-27.2744385" lon="151.290064">
  <ele>343.09</ele>
  <time>2026-09-01T19:55:15Z</time>
  <course>10.49</course>
  <speed>0.01</speed>
  <fix>3d</fix>
</trkpt>
<trkpt lat="-27.2744385" lon="151.290064">
  <ele>343.1</ele>
  <time>2026-09-01T19:55:15Z</time>
  <course>6.37</course>
  <speed>0.01</speed>
  <fix>3d</fix>
</trkpt>
<trkpt lat="-27.2744385" lon="151.290064">
  <ele>343.09</ele>
  <time>2026-09-01T19:55:15Z</time>
  <course>10.49</course>
  <speed>0.0</speed>
  <fix>3d</fix>
</trkpt>
<trkpt lat="-27.2744385" lon="151.2900641">
  <ele>343.1</ele>
  <time>2026-09-01T19:55:15Z</time>
  <course>354.78</course>
  <speed>0.0</speed>
  <fix>3d</fix>
</trkpt>
<trkpt lat="-27.2744385" lon="151.290064">
  <ele>343.11</ele>
  <time>2026-09-01T19:55:15Z</time>
  <course>10.49</course>
  <speed>0.01</speed>
  <fix>3d</fix>
</trkpt>
<trkpt lat="-27.2744385" lon="151.2900641">
  <ele>343.1</ele>
  <time>2026-09-01T19:55:15Z</time>
  <course>354.78</course>
  <speed>0.0</speed>
  <fix>3d</fix>
</trkpt>
<trkpt lat="-27.2744385" lon="151.290064">
  <ele>343.15</ele>
  <time>2026-09-01T19:55:15Z</time>
  <course>10.49</course>
  <speed>0.0</speed>
  <fix>3d</fix>
</trkpt>
<trkpt lat="-27.2744385" lon="151.2900641">
  <ele>343.11</ele>
  <time>2026-09-01T19:55:15Z</time>
  <course>15.31</course>
  <speed>0.0</speed>
  <fix>3d</fix>
</trkpt>
<trkpt lat="-27.2744385" lon="151.290064">
  <ele>343.2</ele>
  <time>2026-09-01T19:55:15Z</time>
  <course>10.49</course>
  <speed>0.0</speed>
  <fix>3d</fix>
</trkpt>
<trkpt lat="-27.2744385" lon="151.2900641">
  <ele>343.11</ele>
  <time>2026-09-01T19:55:15Z</time>
  <course>15.31</course>
  <speed>0.0</speed>
  <fix>3d</fix>
</trkpt>
<trkpt lat="-27.2744384" lon="151.290064">
  <ele>343.28</ele>
  <time>2026-09-01T19:55:15Z</time>
  <course>10.25</course>
  <speed>0.3080584360149873</speed>
  <fix>3d</fix>
</trkpt>
<trkpt lat="-27.2744385" lon="151.2900641">
  <ele>343.16</ele>
  <time>2026-09-01T19:55:15Z</time>
  <course>19.9</course>
  <speed>0.0</speed>
  <fix>3d</fix>
</trkpt>
<trkpt lat="-27.2744378" lon="151.2900642">
  <ele>343.42</ele>
  <time>2026-09-01T19:55:15Z</time>
  <course>9.69</course>
  <speed>0.9924716620639604</speed>
  <fix>3d</fix>
</trkpt>
<trkpt lat="-27.2744385" lon="151.2900641">
  <ele>343.16</ele>
  <time>2026-09-01T19:55:15Z</time>
  <course>19.9</course>
  <speed>0.0</speed>
  <fix>3d</fix>
</trkpt>
<trkpt lat="-27.2744366" lon="151.2900645">
  <ele>343.62</ele>
  <time>2026-09-01T19:55:15Z</time>
  <course>8.96</course>
  <speed>1.7984715733088472</speed>
  <fix>3d</fix>
</trkpt>
<trkpt lat="-27.2744382" lon="151.2900641">
  <ele>343.3</ele>
  <time>2026-09-01T19:55:15Z</time>
  <course>9.83</course>
  <speed>0.48</speed>
  <fix>3d</fix>
</trkpt>
<trkpt lat="-27.2744346" lon="151.2900649">
  <ele>343.86</ele>
  <time>2026-09-01T19:55:15Z</time>
  <course>8.17</course>
  <speed>2.522102297687388</speed>
  <fix>3d</fix>
</trkpt>
<trkpt lat="-27.2744382" lon="151.2900641">
  <ele>343.3</ele>
  <time>2026-09-01T19:55:15Z</time>
  <course>9.83</course>
  <speed>0.48</speed>
  <fix>3d</fix>
</trkpt>
<trkpt lat="-27.2744322" lon="151.2900655">
  <ele>344.11</ele>
  <time>2026-09-01T19:55:15Z</time>
  <course>7.17</course>
  <speed>3.1633684578309875</speed>
  <fix>3d</fix>
</trkpt>
<trkpt lat="-27.2744363" lon="151.2900644">
  <ele>343.63</ele>
  <time>2026-09-01T19:55:15Z</time>
  <course>9.42</course>
  <speed>1.73</speed>
  <fix>3d</fix>
</trkpt>
<trkpt lat="-27.2744291" lon="151.2900661">
  <ele>344.36</ele>
  <time>2026-09-01T19:55:15Z</time>
  <course>6.02</course>
  <speed>3.7713260267444393</speed>
  <fix>3d</fix>
</trkpt>
<trkpt lat="-27.2744363" lon="151.2900644">
  <ele>343.63</ele>
  <time>2026-09-01T19:55:15Z</time>
  <course>9.42</course>
  <speed>1.73</speed>
  <fix>3d</fix>
</trkpt>
<trkpt lat="-27.2744256" lon="151.2900668">
  <ele>344.62</ele>
  <time>2026-09-01T19:55:15Z</time>
  <course>4.69</course>
  <speed>4.383617227815403</speed>
  <fix>3d</fix>
</trkpt>
<trkpt lat="-27.274432" lon="151.2900652">
  <ele>344.1</ele>
  <time>2026-09-01T19:55:15Z</time>
  <course>9.02</course>
  <speed>3.12</speed>
  <fix>3d</fix>
</trkpt>
<trkpt lat="-27.2744215" lon="151.2900675">
  <ele>344.87</ele>
  <time>2026-09-01T19:55:15Z</time>
  <course>3.51</course>
  <speed>5.0061761854733</speed>
  <fix>3d</fix>
</trkpt>
<trkpt lat="-27.274432" lon="151.2900652">
  <ele>344.1</ele>
  <time>2026-09-01T19:55:15Z</time>
  <course>9.02</course>
  <speed>3.12</speed>
  <fix>3d</fix>
</trkpt>
<trkpt lat="-27.2744168" lon="151.2900683">
  <ele>345.14</ele>
  <time>2026-09-01T19:55:15Z</time>
  <course>3.25</course>
  <speed>5.635601121442148</speed>
  <fix>3d</fix>
</trkpt>
<trkpt lat="-27.2744253" lon="151.2900664">
  <ele>344.62</ele>
  <time>2026-09-01T19:55:15Z</time>
  <course>8.4</course>
  <speed>4.38</speed>
  <fix>3d</fix>
</trkpt>
<trkpt lat="-27.2744116" lon="151.2900691">
  <ele>345.4</ele>
  <time>2026-09-01T19:55:15Z</time>
  <course>2.05</course>
  <speed>6.245782577067505</speed>
  <fix>3d</fix>
</trkpt>
<trkpt lat="-27.2744253" lon="151.2900664">
  <ele>344.62</ele>
  <time>2026-09-01T19:55:15Z</time>
  <course>8.4</course>
  <speed>4.38</speed>
  <fix>3d</fix>
</trkpt>
<trkpt lat="-27.2744059" lon="151.2900699">
  <ele>345.68</ele>
  <time>2026-09-01T19:55:15Z</time>
  <course>0.87</course>
  <speed>6.832108020223334</speed>
  <fix>3d</fix>
</trkpt>
<trkpt lat="-27.2744164" lon="151.2900678">
  <ele>345.14</ele>
  <time>2026-09-01T19:55:15Z</time>
  <course>7.6</course>
  <speed>5.63</speed>
  <fix>3d</fix>
</trkpt>
<trkpt lat="-27.2743996" lon="151.2900708">
  <ele>345.95</ele>
  <time>2026-09-01T19:55:15Z</time>
  <course>359.81</course>
  <speed>7.399256719427973</speed>
  <fix>3d</fix>
</trkpt>
<trkpt lat="-27.2744164" lon="151.2900678">
  <ele>345.14</ele>
  <time>2026-09-01T19:55:15Z</time>
  <course>7.6</course>
  <speed>5.63</speed>
  <fix>3d</fix>
</trkpt>
<trkpt lat="-27.2743928" lon="151.2900716">
  <ele>346.22</ele>
  <time>2026-09-01T19:55:15Z</time>
  <course>358.69</course>
  <speed>7.96178999974252</speed>
  <fix>3d</fix>
</trkpt>
<trkpt lat="-27.2744052" lon="151.2900694">
  <ele>345.66</ele>
  <time>2026-09-01T19:55:15Z</time>
  <course>6.85</course>
  <speed>6.85</speed>
  <fix>3d</fix>
</trkpt>
<trkpt lat="-27.2743855" lon="151.2900724">
  <ele>346.5</ele>
  <time>2026-09-01T19:55:15Z</time>
  <course>357.79</course>
  <speed>8.505492343186255</speed>
  <fix>3d</fix>
</trkpt>
<trkpt lat="-27.2744052" lon="151.2900694">
  <ele>345.66</ele>
  <time>2026-09-01T19:55:15Z</time>
  <course>6.85</course>
  <speed>6.85</speed>
  <fix>3d</fix>
</trkpt>
<trkpt lat="-27.2743776" lon="151.2900732">
  <ele>346.78</ele>
  <time>2026-09-01T19:55:15Z</time>
  <course>357.0</course>
  <speed>9.048955740857616</speed>
  <fix>3d</fix>
</trkpt>
<trkpt lat="-27.2743919" lon="151.2900711">
  <ele>346.2</ele>
  <time>2026-09-01T19:55:15Z</time>
  <course>6.1</course>
  <speed>8.01</speed>
  <fix>3d</fix>
</trkpt>
<trkpt lat="-27.2743693" lon="151.290074">
  <ele>347.06</ele>
  <time>2026-09-01T19:55:15Z</time>
  <course>356.44</course>
  <speed>9.574304152260884</speed>
  <fix>3d</fix>
</trkpt>
<trkpt lat="-27.2743919" lon="151.2900711">
  <ele>346.2</ele>
  <time>2026-09-01T19:55:15Z</time>
  <course>6.1</course>
  <speed>8.01</speed>
  <fix>3d</fix>
</trkpt>
<trkpt lat="-27.2743605" lon="151.2900748">
  <ele>347.34</ele>
  <time>2026-09-01T19:55:15Z</time>
  <course>356.11</course>
  <speed>10.099292054396685</speed>
  <fix>3d</fix>
</trkpt>
<trkpt lat="-27.2743765" lon="151.2900728">
  <ele>346.75</ele>
  <time>2026-09-01T19:55:15Z</time>
  <course>5.4</course>
  <speed>9.11</speed>
  <fix>3d</fix>
</trkpt>
<trkpt lat="-27.2743513" lon="151.2900755">
  <ele>347.63</ele>
  <time>2026-09-01T19:55:15Z</time>
  <course>355.99</course>
  <speed>10.604928099709117</speed>
  <fix>3d</fix>
</trkpt>
<trkpt lat="-27.2743765" lon="151.2900728">
  <ele>346.75</ele>
  <time>2026-09-01T19:55:15Z</time>
  <course>5.4</course>
  <speed>9.11</speed>
  <fix>3d</fix>
</trkpt>
<trkpt lat="-27.2743416" lon="151.2900763">
  <ele>347.91</ele>
  <time>2026-09-01T19:55:15Z</time>
  <course>355.99</course>
  <speed>11.103355348722296</speed>
  <fix>3d</fix>
</trkpt>
<trkpt lat="-27.2743593" lon="151.2900745">
  <ele>347.31</ele>
  <time>2026-09-01T19:55:15Z</time>
  <course>4.81</course>
  <speed>10.17</speed>
  <fix>3d</fix>
</trkpt>
<trkpt lat="-27.2743314" lon="151.2900771">
  <ele>348.2</ele>
  <time>2026-09-01T19:55:15Z</time>
  <course>355.81</course>
  <speed>11.591945479512919</speed>
  <fix>3d</fix>
</trkpt>
<trkpt lat="-27.2743593" lon="151.2900745">
  <ele>347.31</ele>
  <time>2026-09-01T19:55:15Z</time>
  <course>4.81</course>
  <speed>10.17</speed>
  <fix>3d</fix>
</trkpt>
<trkpt lat="-27.2743208" lon="151.2900779">
  <ele>348.49</ele>
  <time>2026-09-01T19:55:15Z</time>
  <course>355.63</course>
  <speed>12.06141782710474</speed>
  <fix>3d</fix>
</trkpt>
<trkpt lat="-27.2743402" lon="151.2900763">
  <ele>347.87</ele>
  <time>2026-09-01T19:55:15Z</time>
  <course>4.44</course>
  <speed>11.19</speed>
  <fix>3d</fix>
</trkpt>
<trkpt lat="-27.2743098" lon="151.2900788">
  <ele>348.78</ele>
  <time>2026-09-01T19:55:15Z</time>
  <course>355.54</course>
  <speed>12.530937714313323</speed>
  <fix>3d</fix>
</trkpt>
<trkpt lat="-27.2743402" lon="151.2900763">
  <ele>347.87</ele>
  <time>2026-09-01T19:55:15Z</time>
  <course>4.44</course>
  <speed>11.19</speed>
  <fix>3d</fix>
</trkpt>
<trkpt lat="-27.2742983" lon="151.2900797">
  <ele>349.06</ele>
  <time>2026-09-01T19:55:15Z</time>
  <course>355.52</course>
  <speed>12.991212414551615</speed>
  <fix>3d</fix>
</trkpt>
<trkpt lat="-27.2743193" lon="151.2900781">
  <ele>348.43</ele>
  <time>2026-09-01T19:55:15Z</time>
  <course>4.23</course>
  <speed>12.16</speed>
  <fix>3d</fix>
</trkpt>
<trkpt lat="-27.2742865" lon="151.2900806">
  <ele>349.35</ele>
  <time>2026-09-01T19:55:15Z</time>
  <course>355.45</course>
  <speed>13.441521491259834</speed>
  <fix>3d</fix>
</trkpt>
<trkpt lat="-27.2743193" lon="151.2900781">
  <ele>348.43</ele>
  <time>2026-09-01T19:55:15Z</time>
  <course>4.23</course>
  <speed>12.16</speed>
  <fix>3d</fix>
</trkpt>
<trkpt lat="-27.2742742" lon="151.2900815">
  <ele>349.64</ele>
  <time>2026-09-01T19:55:15Z</time>
  <course>355.37</course>
  <speed>13.882542994711018</speed>
  <fix>3d</fix>
</trkpt>
<trkpt lat="-27.2742966" lon="151.2900799">
  <ele>349.0</ele>
  <time>2026-09-01T19:55:15Z</time>
  <course>4.11</course>
  <speed>13.09</speed>
  <fix>3d</fix>
</trkpt>
<trkpt lat="-27.2742615" lon="151.2900825">
  <ele>349.93</ele>
  <time>2026-09-01T19:55:15Z</time>
  <course>355.28</course>
  <speed>14.302929769805905</speed>
  <fix>3d</fix>
</trkpt>
<trkpt lat="-27.2742966" lon="151.2900799">
  <ele>349.0</ele>
  <time>2026-09-01T19:55:15Z</time>
  <course>4.11</course>
  <speed>13.09</speed>
  <fix>3d</fix>
</trkpt>
<trkpt lat="-27.2742485" lon="151.2900836">
  <ele>350.21</ele>
  <time>2026-09-01T19:55:15Z</time>
  <course>355.3</course>
  <speed>14.714703530822494</speed>
  <fix>3d</fix>
</trkpt>
<trkpt lat="-27.2742723" lon="151.2900819">
  <ele>349.57</ele>
  <time>2026-09-01T19:55:15Z</time>
  <course>4.09</course>
  <speed>13.98</speed>
  <fix>3d</fix>
</trkpt>
<trkpt lat="-27.2742352" lon="151.2900846">
  <ele>350.49</ele>
  <time>2026-09-01T19:55:15Z</time>
  <course>355.3</course>
  <speed>15.10653500972344</speed>
  <fix>3d</fix>
</trkpt>
<trkpt lat="-27.2742723" lon="151.2900819">
  <ele>349.57</ele>
  <time>2026-09-01T19:55:15Z</time>
  <course>4.09</course>
  <speed>13.98</speed>
  <fix>3d</fix>
</trkpt>
<trkpt lat="-27.2742215" lon="151.2900858">
  <ele>350.78</ele>
  <time>2026-09-01T19:55:15Z</time>
  <course>355.41</course>
  <speed>15.50835258820227</speed>
  <fix>3d</fix>
</trkpt>
<trkpt lat="-27.2742465" lon="151.2900839">
  <ele>350.14</ele>
  <time>2026-09-01T19:55:15Z</time>
  <course>4.15</course>
  <speed>14.81</speed>
  <fix>3d</fix>
</trkpt>
<trkpt lat="-27.2742074" lon="151.2900869">
  <ele>351.06</ele>
  <time>2026-09-01T19:55:15Z</time>
  <course>355.44</course>
  <speed>15.890229702556221</speed>
  <fix>3d</fix>
</trkpt>
<trkpt lat="-27.2742465" lon="151.2900839">
  <ele>350.14</ele>
  <time>2026-09-01T19:55:15Z</time>
  <course>4.15</course>
  <speed>14.81</speed>
  <fix>3d</fix>
</trkpt>
<trkpt lat="-27.2741927" lon="151.2900882">
  <ele>351.35</ele>
  <time>2026-09-01T19:55:15Z</time>
  <course>355.48</course>
  <speed>16.262143155193293</speed>
  <fix>3d</fix>
</trkpt>
<trkpt lat="-27.2742193" lon="151.2900862">
  <ele>350.7</ele>
  <time>2026-09-01T19:55:15Z</time>
  <course>4.25</course>
  <speed>15.6</speed>
  <fix>3d</fix>
</trkpt>
<trkpt lat="-27.2741779" lon="151.2900894">
  <ele>351.62</ele>
  <time>2026-09-01T19:55:15Z</time>
  <course>355.57</course>
  <speed>16.634797864717203</speed>
  <fix>3d</fix>
</trkpt>
<trkpt lat="-27.2742193" lon="151.2900862">
  <ele>350.7</ele>
  <time>2026-09-01T19:55:15Z</time>
  <course>4.25</course>
  <speed>15.6</speed>
  <fix>3d</fix>
</trkpt>
<trkpt lat="-27.2741628" lon="151.2900908">
  <ele>351.9</ele>
  <time>2026-09-01T19:55:15Z</time>
  <course>355.62</course>
  <speed>16.978318526874208</speed>
  <fix>3d</fix>
</trkpt>
<trkpt lat="-27.2741906" lon="151.2900887">
  <ele>351.26</ele>
  <time>2026-09-01T19:55:15Z</time>
  <course>4.37</course>
  <speed>16.36</speed>
  <fix>3d</fix>
</trkpt>
<trkpt lat="-27.2741474" lon="151.2900921">
  <ele>352.18</ele>
  <time>2026-09-01T19:55:15Z</time>
  <course>355.76</course>
  <speed>17.311166916184476</speed>
  <fix>3d</fix>
</trkpt>
<trkpt lat="-27.2741906" lon="151.2900887">
  <ele>351.26</ele>
  <time>2026-09-01T19:55:15Z</time>
  <course>4.37</course>
  <speed>16.36</speed>
  <fix>3d</fix>
</trkpt>
<trkpt lat="-27.2741317" lon="151.2900936">
  <ele>352.46</ele>
  <time>2026-09-01T19:55:15Z</time>
  <course>355.9</course>
  <speed>17.625688639029114</speed>
  <fix>3d</fix>
</trkpt>
<trkpt lat="-27.2741607" lon="151.2900913">
  <ele>351.81</ele>
  <time>2026-09-01T19:55:15Z</time>
  <course>4.54</course>
  <speed>17.06</speed>
  <fix>3d</fix>
</trkpt>
<trkpt lat="-27.2741157" lon="151.2900951">
  <ele>352.75</ele>
  <time>2026-09-01T19:55:15Z</time>
  <course>355.92</course>
  <speed>17.931182336923577</speed>
  <fix>3d</fix>
</trkpt>
<trkpt lat="-27.2741607" lon="151.2900913">
  <ele>351.81</ele>
  <time>2026-09-01T19:55:15Z</time>
  <course>4.54</course>
  <speed>17.06</speed>
  <fix>3d</fix>
</trkpt>
<trkpt lat="-27.2740996" lon="151.2900967">
  <ele>353.05</ele>
  <time>2026-09-01T19:55:15Z</time>
  <course>355.95</course>
  <speed>18.196136952661135</speed>
  <fix>3d</fix>
</trkpt>
<trkpt lat="-27.2741295" lon="151.2900942">
  <ele>352.36</ele>
  <time>2026-09-01T19:55:15Z</time>
  <course>4.8</course>
  <speed>17.71</speed>
  <fix>3d</fix>
</trkpt>
<trkpt lat="-27.2740832" lon="151.2900984">
  <ele>353.37</ele>
  <time>2026-09-01T19:55:15Z</time>
  <course>356.06</course>
  <speed>18.441293338592065</speed>
  <fix>3d</fix>
</trkpt>
<trkpt lat="-27.2741295" lon="151.2900942">
  <ele>352.36</ele>
  <time>2026-09-01T19:55:15Z</time>
  <course>4.8</course>
  <speed>17.71</speed>
  <fix>3d</fix>
</trkpt>
<trkpt lat="-27.2740667" lon="151.2901001">
  <ele>353.7</ele>
  <time>2026-09-01T19:55:15Z</time>
  <course>356.13</course>
  <speed>18.677526602845465</speed>
  <fix>3d</fix>
</trkpt>
<trkpt lat="-27.2740972" lon="151.2900973">
  <ele>352.96</ele>
  <time>2026-09-01T19:55:15Z</time>
  <course>5.11</course>
  <speed>18.28</speed>
  <fix>3d</fix>
</trkpt>
<trkpt lat="-27.2740499" lon="151.2901019">
  <ele>354.05</ele>
  <time>2026-09-01T19:55:15Z</time>
  <course>356.2</course>
  <speed>18.893093976371368</speed>
  <fix>3d</fix>
</trkpt>
<trkpt lat="-27.2740972" lon="151.2900973">
  <ele>352.96</ele>
  <time>2026-09-01T19:55:15Z</time>
  <course>5.11</course>
  <speed>18.28</speed>
  <fix>3d</fix>
</trkpt>
<trkpt lat="-27.274033" lon="151.2901038">
  <ele>354.42</ele>
  <time>2026-09-01T19:55:15Z</time>
  <course>356.34</course>
  <speed>19.098840278927934</speed>
  <fix>3d</fix>
</trkpt>
<trkpt lat="-27.274064" lon="151.2901008">
  <ele>353.61</ele>
  <time>2026-09-01T19:55:15Z</time>
  <course>5.44</course>
  <speed>18.77</speed>
  <fix>3d</fix>
</trkpt>
<trkpt lat="-27.2740159" lon="151.2901058">
  <ele>354.81</ele>
  <time>2026-09-01T19:55:15Z</time>
  <course>356.49</course>
  <speed>19.29675879519667</speed>
  <fix>3d</fix>
</trkpt>
<trkpt lat="-27.274064" lon="151.2901008">
  <ele>353.61</ele>
  <time>2026-09-01T19:55:15Z</time>
  <course>5.44</course>
  <speed>18.77</speed>
  <fix>3d</fix>
</trkpt>
<trkpt lat="-27.2739986" lon="151.2901078">
  <ele>355.21</ele>
  <time>2026-09-01T19:55:15Z</time>
  <course>356.62</course>
  <speed>19.484989094171954</speed>
  <fix>3d</fix>
</trkpt>
<trkpt lat="-27.2740301" lon="151.2901045">
  <ele>354.32</ele>
  <time>2026-09-01T19:55:15Z</time>
  <course>5.78</course>
  <speed>19.21</speed>
  <fix>3d</fix>
</trkpt>
<trkpt lat="-27.2739811" lon="151.29011">
  <ele>355.62</ele>
  <time>2026-09-01T19:55:15Z</time>
  <course>356.7</course>
  <speed>19.655749794907344</speed>
  <fix>3d</fix>
</trkpt>
<trkpt lat="-27.2740301" lon="151.2901045">
  <ele>354.32</ele>
  <time>2026-09-01T19:55:15Z</time>
  <course>5.78</course>
  <speed>19.21</speed>
  <fix>3d</fix>
</trkpt>
<trkpt lat="-27.2739635" lon="151.2901123">
  <ele>356.05</ele>
  <time>2026-09-01T19:55:15Z</time>
  <course>356.76</course>
  <speed>19.8258139807676</speed>
  <fix>3d</fix>
</trkpt>
<trkpt lat="-27.2739955" lon="151.2901086">
  <ele>355.1</ele>
  <time>2026-09-01T19:55:15Z</time>
  <course>6.18</course>
  <speed>19.6</speed>
  <fix>3d</fix>
</trkpt>
<trkpt lat="-27.2739458" lon="151.2901146">
  <ele>356.48</ele>
  <time>2026-09-01T19:55:15Z</time>
  <course>356.76</course>
  <speed>19.986280294241848</speed>
  <fix>3d</fix>
</trkpt>
<trkpt lat="-27.2739955" lon="151.2901086">
  <ele>355.1</ele>
  <time>2026-09-01T19:55:15Z</time>
  <course>6.18</course>
  <speed>19.6</speed>
  <fix>3d</fix>
</trkpt>
<trkpt lat="-27.2739279" lon="151.2901171">
  <ele>356.92</ele>
  <time>2026-09-01T19:55:15Z</time>
  <course>356.84</course>
  <speed>20.14708167452547</speed>
  <fix>3d</fix>
</trkpt>
<trkpt lat="-27.2739602" lon="151.290113">
  <ele>355.93</ele>
  <time>2026-09-01T19:55:15Z</time>
  <course>6.64</course>
  <speed>19.95</speed>
  <fix>3d</fix>
</trkpt>
<trkpt lat="-27.2739098" lon="151.2901197">
  <ele>357.38</ele>
  <time>2026-09-01T19:55:15Z</time>
  <course>356.94</course>
  <speed>20.300790624997834</speed>
  <fix>3d</fix>
</trkpt>
<trkpt lat="-27.2739602" lon="151.290113">
  <ele>355.93</ele>
  <time>2026-09-01T19:55:15Z</time>
  <course>6.64</course>
  <speed>19.95</speed>
  <fix>3d</fix>
</trkpt>
<trkpt lat="-27.2738918" lon="151.2901224">
  <ele>357.83</ele>
  <time>2026-09-01T19:55:15Z</time>
  <course>356.98</course>
  <speed>20.445092320652407</speed>
  <fix>3d</fix>
</trkpt>
<trkpt lat="-27.2739243" lon="151.2901179">
  <ele>356.8</ele>
  <time>2026-09-01T19:55:15Z</time>
  <course>7.13</course>
  <speed>20.27</speed>
  <fix>3d</fix>
</trkpt>
<trkpt lat="-27.2738735" lon="151.2901252">
  <ele>358.3</ele>
  <time>2026-09-01T19:55:15Z</time>
  <course>357.1</course>
  <speed>20.58855021607884</speed>
  <fix>3d</fix>
</trkpt>
<trkpt lat="-27.2739243" lon="151.2901179">
  <ele>356.8</ele>
  <time>2026-09-01T19:55:15Z</time>
  <course>7.13</course>
  <speed>20.27</speed>
  <fix>3d</fix>
</trkpt>
<trkpt lat="-27.2738551" lon="151.2901281">
  <ele>358.78</ele>
  <time>2026-09-01T19:55:15Z</time>
  <course>357.16</course>
  <speed>20.72251191337575</speed>
  <fix>3d</fix>
</trkpt>
<trkpt lat="-27.2738879" lon="151.2901232">
  <ele>357.71</ele>
  <time>2026-09-01T19:55:15Z</time>
  <course>7.63</course>
  <speed>20.57</speed>
  <fix>3d</fix>
</trkpt>
<trkpt lat="-27.2738366" lon="151.2901311">
  <ele>359.26</ele>
  <time>2026-09-01T19:55:15Z</time>
  <course>357.21</course>
  <speed>20.846987792004867</speed>
  <fix>3d</fix>
</trkpt>
<trkpt lat="-27.2738879" lon="151.2901232">
  <ele>357.71</ele>
  <time>2026-09-01T19:55:15Z</time>
  <course>7.63</course>
  <speed>20.57</speed>
  <fix>3d</fix>
</trkpt>
<trkpt lat="-27.2738178" lon="151.2901343">
  <ele>359.74</ele>
  <time>2026-09-01T19:55:15Z</time>
  <course>357.27</course>
  <speed>20.971878790418373</speed>
  <fix>3d</fix>
</trkpt>
<trkpt lat="-27.273851" lon="151.2901289">
  <ele>358.65</ele>
  <time>2026-09-01T19:55:15Z</time>
  <course>8.14</course>
  <speed>20.84</speed>
  <fix>3d</fix>
</trkpt>
<trkpt lat="-27.273799" lon="151.2901375">
  <ele>360.23</ele>
  <time>2026-09-01T19:55:15Z</time>
  <course>357.34</course>
  <speed>21.08729475300234</speed>
  <fix>3d</fix>
</trkpt>
<trkpt lat="-27.273851" lon="151.2901289">
  <ele>358.65</ele>
  <time>2026-09-01T19:55:15Z</time>
  <course>8.14</course>
  <speed>20.84</speed>
  <fix>3d</fix>
</trkpt>
<trkpt lat="-27.2737802" lon="151.2901409">
  <ele>360.72</ele>
  <time>2026-09-01T19:55:15Z</time>
  <course>357.44</course>
  <speed>21.201556546631192</speed>
  <fix>3d</fix>
</trkpt>
<trkpt lat="-27.2738138" lon="151.2901352">
  <ele>359.61</ele>
  <time>2026-09-01T19:55:15Z</time>
  <course>8.63</course>
  <speed>21.08</speed>
  <fix>3d</fix>
</trkpt>
<trkpt lat="-27.2737613" lon="151.2901443">
  <ele>361.21</ele>
  <time>2026-09-01T19:55:15Z</time>
  <course>357.53</course>
  <speed>21.3046708493701</speed>
  <fix>3d</fix>
</trkpt>
<trkpt lat="-27.2738138" lon="151.2901352">
  <ele>359.61</ele>
  <time>2026-09-01T19:55:15Z</time>
  <course>8.63</course>
  <speed>21.08</speed>
  <fix>3d</fix>
</trkpt>
<trkpt lat="-27.2737424" lon="151.2901479">
  <ele>361.71</ele>
  <time>2026-09-01T19:55:15Z</time>
  <course>357.57</course>
  <speed>21.408045216693655</speed>
  <fix>3d</fix>
</trkpt>
<trkpt lat="-27.2737761" lon="151.2901417">
  <ele>360.59</ele>
  <time>2026-09-01T19:55:15Z</time>
  <course>9.08</course>
  <speed>21.3</speed>
  <fix>3d</fix>
</trkpt>
<trkpt lat="-27.2737233" lon="151.2901515">
  <ele>362.2</ele>
  <time>2026-09-01T19:55:15Z</time>
  <course>357.46</course>
  <speed>21.506689656941624</speed>
  <fix>3d</fix>
</trkpt>
<trkpt lat="-27.2737761" lon="151.2901417">
  <ele>360.59</ele>
  <time>2026-09-01T19:55:15Z</time>
  <course>9.08</course>
  <speed>21.3</speed>
  <fix>3d</fix>
</trkpt>
<trkpt lat="-27.273704" lon="151.2901552">
  <ele>362.7</ele>
  <time>2026-09-01T19:55:15Z</time>
  <course>357.41</course>
  <speed>21.592223137046357</speed>
  <fix>3d</fix>
</trkpt>
<trkpt lat="-27.2737381" lon="151.2901488">
  <ele>361.58</ele>
  <time>2026-09-01T19:55:15Z</time>
  <course>9.45</course>
  <speed>21.5</speed>
  <fix>3d</fix>
</trkpt>
<trkpt lat="-27.2736848" lon="151.2901588">
  <ele>363.2</ele>
  <time>2026-09-01T19:55:15Z</time>
  <course>357.36</course>
  <speed>21.662910700088297</speed>
  <fix>3d</fix>
</trkpt>
<trkpt lat="-27.2737381" lon="151.2901488">
  <ele>361.58</ele>
  <time>2026-09-01T19:55:15Z</time>
  <course>9.45</course>
  <speed>21.5</speed>
  <fix>3d</fix>
</trkpt>
<trkpt lat="-27.2736655" lon="151.2901625">
  <ele>363.7</ele>
  <time>2026-09-01T19:55:15Z</time>
  <course>357.23</course>
  <speed>21.73193502659163</speed>
  <fix>3d</fix>
</trkpt>
<trkpt lat="-27.2736998" lon="151.290156">
  <ele>362.58</ele>
  <time>2026-09-01T19:55:15Z</time>
  <course>9.63</course>
  <speed>21.67</speed>
  <fix>3d</fix>
</trkpt>
<trkpt lat="-27.2736462" lon="151.2901662">
  <ele>364.21</ele>
  <time>2026-09-01T19:55:15Z</time>
  <course>357.1</course>
  <speed>21.78451284743361</speed>
  <fix>3d</fix>
</trkpt>
<trkpt lat="-27.2736998" lon="151.290156">
  <ele>362.58</ele>
  <time>2026-09-01T19:55:15Z</time>
  <course>9.63</course>
  <speed>21.67</speed>
  <fix>3d</fix>
</trkpt>
<trkpt lat="-27.2736268" lon="151.2901698">
  <ele>364.71</ele>
  <time>2026-09-01T19:55:15Z</time>
  <course>356.93</course>
  <speed>21.820900531371294</speed>
  <fix>3d</fix>
</trkpt>
<trkpt lat="-27.2736614" lon="151.2901633">
  <ele>363.58</ele>
  <time>2026-09-01T19:55:15Z</time>
  <course>9.56</course>
  <speed>21.8</speed>
  <fix>3d</fix>
</trkpt>
<trkpt lat="-27.2736074" lon="151.2901732">
  <ele>365.22</ele>
  <time>2026-09-01T19:55:15Z</time>
  <course>356.67</course>
  <speed>21.852974625894753</speed>
  <fix>3d</fix>
</trkpt>
<trkpt lat="-27.2736614" lon="151.2901633">
  <ele>363.58</ele>
  <time>2026-09-01T19:55:15Z</time>
  <course>9.56</course>
  <speed>21.8</speed>
  <fix>3d</fix>
</trkpt>
<trkpt lat="-27.273588" lon="151.2901766">
  <ele>365.73</ele>
  <time>2026-09-01T19:55:15Z</time>
  <course>356.32</course>
  <speed>21.871316832783528</speed>
  <fix>3d</fix>
</trkpt>
<trkpt lat="-27.2736227" lon="151.2901706">
  <ele>364.58</ele>
  <time>2026-09-01T19:55:15Z</time>
  <course>9.2</course>
  <speed>21.89</speed>
  <fix>3d</fix>
</trkpt>
<trkpt lat="-27.2735685" lon="151.2901798">
  <ele>366.24</ele>
  <time>2026-09-01T19:55:15Z</time>
  <course>356.05</course>
  <speed>21.884983436137208</speed>
  <fix>3d</fix>
</trkpt>
<trkpt lat="-27.2736227" lon="151.2901706">
  <ele>364.58</ele>
  <time>2026-09-01T19:55:15Z</time>
  <course>9.2</course>
  <speed>21.89</speed>
  <fix>3d</fix>
</trkpt>
<trkpt lat="-27.273549" lon="151.2901829">
  <ele>366.75</ele>
  <time>2026-09-01T19:55:15Z</time>
  <course>355.68</course>
  <speed>21.877744399274803</speed>
  <fix>3d</fix>
</trkpt>
<trkpt lat="-27.2735838" lon="151.2901775">
  <ele>365.59</ele>
  <time>2026-09-01T19:55:15Z</time>
  <course>8.51</course>
  <speed>21.93</speed>
  <fix>3d</fix>
</trkpt>
<trkpt lat="-27.2735294" lon="151.2901857">
  <ele>367.26</ele>
  <time>2026-09-01T19:55:16Z</time>
  <course>355.23</course>
  <speed>21.86752157881638</speed>
  <fix>3d</fix>
</trkpt>
<trkpt lat="-27.2735838" lon="151.2901775">
  <ele>365.59</ele>
  <time>2026-09-01T19:55:16Z</time>
  <course>8.51</course>
  <speed>21.93</speed>
  <fix>3d</fix>
</trkpt>
<trkpt lat="-27.2735099" lon="151.2901882">
  <ele>367.77</ele>
  <time>2026-09-01T19:55:16Z</time>
  <course>354.7</course>
  <speed>21.85670148947457</speed>
  <fix>3d</fix>
</trkpt>
<trkpt lat="-27.2735447" lon="151.2901837">
  <ele>366.6</ele>
  <time>2026-09-01T19:55:16Z</time>
  <course>7.48</course>
  <speed>21.95</speed>
  <fix>3d</fix>
</trkpt>
<trkpt lat="-27.2734905" lon="151.2901905">
  <ele>368.27</ele>
  <time>2026-09-01T19:55:16Z</time>
  <course>354.06</course>
  <speed>21.816528138088334</speed>
  <fix>3d</fix>
</trkpt>
<trkpt lat="-27.2735447" lon="151.2901837">
  <ele>366.6</ele>
  <time>2026-09-01T19:55:16Z</time>
  <course>7.48</course>
  <speed>21.95</speed>
  <fix>3d</fix>
</trkpt>
<trkpt lat="-27.2734709" lon="151.2901924">
  <ele>368.77</ele>
  <time>2026-09-01T19:55:16Z</time>
  <course>353.35</course>
  <speed>21.77645747131521</speed>
  <fix>3d</fix>
</trkpt>
<trkpt lat="-27.2735056" lon="151.2901889">
  <ele>367.61</ele>
  <time>2026-09-01T19:55:16Z</time>
  <course>6.13</course>
  <speed>21.92</speed>
  <fix>3d</fix>
</trkpt>
<trkpt lat="-27.2734514" lon="151.290194">
  <ele>369.27</ele>
  <time>2026-09-01T19:55:16Z</time>
  <course>352.61</course>
  <speed>21.73012885373669</speed>
  <fix>3d</fix>
</trkpt>
<trkpt lat="-27.2735056" lon="151.2901889">
  <ele>367.61</ele>
  <time>2026-09-01T19:55:16Z</time>
  <course>6.13</course>
  <speed>21.92</speed>
  <fix>3d</fix>
</trkpt>
<trkpt lat="-27.2734319" lon="151.2901951">
  <ele>369.77</ele>
  <time>2026-09-01T19:55:16Z</time>
  <course>351.79</course>
  <speed>21.669116271781828</speed>
  <fix>3d</fix>
</trkpt>
<trkpt lat="-27.2734664" lon="151.2901929">
  <ele>368.62</ele>
  <time>2026-09-01T19:55:16Z</time>
  <course>4.42</course>
  <speed>21.86</speed>
  <fix>3d</fix>
</trkpt>
<trkpt lat="-27.2734122" lon="151.2901959">
  <ele>370.27</ele>
  <time>2026-09-01T19:55:16Z</time>
  <course>350.9</course>
  <speed>21.60511282081165</speed>
  <fix>3d</fix>
</trkpt>
<trkpt lat="-27.2734664" lon="151.2901929">
  <ele>368.62</ele>
  <time>2026-09-01T19:55:16Z</time>
  <course>4.42</course>
  <speed>21.86</speed>
  <fix>3d</fix>
</trkpt>
<trkpt lat="-27.2733928" lon="151.2901962">
  <ele>370.77</ele>
  <time>2026-09-01T19:55:16Z</time>
  <course>349.96</course>
  <speed>21.53</speed>
  <fix>3d</fix>
</trkpt>
<trkpt lat="-27.2734273" lon="151.2901956">
  <ele>369.61</ele>
  <time>2026-09-01T19:55:16Z</time>
  <course>2.34</course>
  <speed>21.76</speed>
  <fix>3d</fix>
</trkpt>
<trkpt lat="-27.2733734" lon="151.290196">
  <ele>371.26</ele>
  <time>2026-09-01T19:55:16Z</time>
  <course>349.0</course>
  <speed>21.445372461209434</speed>
  <fix>3d</fix>
</trkpt>
<trkpt lat="-27.2734273" lon="151.2901956">
  <ele>369.61</ele>
  <time>2026-09-01T19:55:16Z</time>
  <course>2.34</course>
  <speed>21.76</speed>
  <fix>3d</fix>
</trkpt>
<trkpt lat="-27.2733541" lon="151.2901953">
  <ele>371.75</ele>
  <time>2026-09-01T19:55:16Z</time>
  <course>347.95</course>
  <speed>21.373406373341616</speed>
  <fix>3d</fix>
</trkpt>
<trkpt lat="-27.2733884" lon="151.2901965">
  <ele>370.61</ele>
  <time>2026-09-01T19:55:16Z</time>
  <course>359.93</course>
  <speed>21.62</speed>
  <fix>3d</fix>
</trkpt>
<trkpt lat="-27.2733349" lon="151.2901941">
  <ele>372.25</ele>
  <time>2026-09-01T19:55:16Z</time>
  <course>346.85</course>
  <speed>21.285781639394877</speed>
  <fix>3d</fix>
</trkpt>
<trkpt lat="-27.2733884" lon="151.2901965">
  <ele>370.61</ele>
  <time>2026-09-01T19:55:16Z</time>
  <course>359.93</course>
  <speed>21.62</speed>
  <fix>3d</fix>
</trkpt>
<trkpt lat="-27.2733157" lon="151.2901923">
  <ele>372.74</ele>
  <time>2026-09-01T19:55:16Z</time>
  <course>345.68</course>
  <speed>21.194294043444806</speed>
  <fix>3d</fix>
</trkpt>
<trkpt lat="-27.2733496" lon="151.2901954">
  <ele>371.59</ele>
  <time>2026-09-01T19:55:16Z</time>
  <course>357.2</course>
  <speed>21.47</speed>
  <fix>3d</fix>
</trkpt>
<trkpt lat="-27.2732967" lon="151.2901899">
  <ele>373.23</ele>
  <time>2026-09-01T19:55:16Z</time>
  <course>344.53</course>
  <speed>21.10088386774355</speed>
  <fix>3d</fix>
</trkpt>
<trkpt lat="-27.2733496" lon="151.2901954">
  <ele>371.59</ele>
  <time>2026-09-01T19:55:16Z</time>
  <course>357.2</course>
  <speed>21.47</speed>
  <fix>3d</fix>
</trkpt>
<trkpt lat="-27.2732779" lon="151.2901869">
  <ele>373.71</ele>
  <time>2026-09-01T19:55:16Z</time>
  <course>343.3</course>
  <speed>21.009202745463714</speed>
  <fix>3d</fix>
</trkpt>
<trkpt lat="-27.2733112" lon="151.2901923">
  <ele>372.58</ele>
  <time>2026-09-01T19:55:16Z</time>
  <course>354.17</course>
  <speed>21.3</speed>
  <fix>3d</fix>
</trkpt>
<trkpt lat="-27.2732592" lon="151.2901833">
  <ele>374.2</ele>
  <time>2026-09-01T19:55:16Z</time>
  <course>342.01</course>
  <speed>20.916799468369916</speed>
  <fix>3d</fix>
</trkpt>
<trkpt lat="-27.2733112" lon="151.2901923">
  <ele>372.58</ele>
  <time>2026-09-01T19:55:16Z</time>
  <course>354.17</course>
  <speed>21.3</speed>
  <fix>3d</fix>
</trkpt>
<trkpt lat="-27.2732407" lon="151.2901791">
  <ele>374.68</ele>
  <time>2026-09-01T19:55:16Z</time>
  <course>340.48</course>
  <speed>20.8058549451831</speed>
  <fix>3d</fix>
</trkpt>
<trkpt lat="-27.2732735" lon="151.2901867">
  <ele>373.55</ele>
  <time>2026-09-01T19:55:16Z</time>
  <course>350.86</course>
  <speed>21.11</speed>
  <fix>3d</fix>
</trkpt>
<trkpt lat="-27.2732224" lon="151.2901742">
  <ele>375.17</ele>
  <time>2026-09-01T19:55:16Z</time>
  <course>338.78</course>
  <speed>20.66133829160154</speed>
  <fix>3d</fix>
</trkpt>
<trkpt lat="-27.2732735" lon="151.2901867">
  <ele>373.55</ele>
  <time>2026-09-01T19:55:16Z</time>
  <course>350.86</course>
  <speed>21.11</speed>
  <fix>3d</fix>
</trkpt>
<trkpt lat="-27.2732045" lon="151.2901684">
  <ele>375.68</ele>
  <time>2026-09-01T19:55:16Z</time>
  <course>337.08</course>
  <speed>20.502263289695602</speed>
  <fix>3d</fix>
</trkpt>
<trkpt lat="-27.2732365" lon="151.2901786">
  <ele>374.51</ele>
  <time>2026-09-01T19:55:16Z</time>
  <course>347.06</course>
  <speed>20.88</speed>
  <fix>3d</fix>
</trkpt>
<trkpt lat="-27.273187" lon="151.2901619">
  <ele>376.2</ele>
  <time>2026-09-01T19:55:16Z</time>
  <course>335.15</course>
  <speed>20.332953548365765</speed>
  <fix>3d</fix>
</trkpt>
<trkpt lat="-27.2732365" lon="151.2901786">
  <ele>374.51</ele>
  <time>2026-09-01T19:55:16Z</time>
  <course>347.06</course>
  <speed>20.88</speed>
  <fix>3d</fix>
</trkpt>
<trkpt lat="-27.2731698" lon="151.2901545">
  <ele>376.75</ele>
  <time>2026-09-01T19:55:16Z</time>
  <course>333.03</course>
  <speed>20.13153993116274</speed>
  <fix>3d</fix>
</trkpt>
<trkpt lat="-27.2732005" lon="151.2901677">
  <ele>375.51</ele>
  <time>2026-09-01T19:55:16Z</time>
  <course>342.52</course>
  <speed>20.58</speed>
  <fix>3d</fix>
</trkpt>
<trkpt lat="-27.2731532" lon="151.2901462">
  <ele>377.32</ele>
  <time>2026-09-01T19:55:16Z</time>
  <course>330.85</course>
  <speed>19.908533346281438</speed>
  <fix>3d</fix>
</trkpt>
<trkpt lat="-27.2732005" lon="151.2901677">
  <ele>375.51</ele>
  <time>2026-09-01T19:55:16Z</time>
  <course>342.52</course>
  <speed>20.58</speed>
  <fix>3d</fix>
</trkpt>
<trkpt lat="-27.2731372" lon="151.2901372">
  <ele>377.92</ele>
  <time>2026-09-01T19:55:16Z</time>
  <course>328.73</course>
  <speed>19.66725705328529</speed>
  <fix>3d</fix>
</trkpt>
<trkpt lat="-27.2731661" lon="151.2901536">
  <ele>376.57</ele>
  <time>2026-09-01T19:55:16Z</time>
  <course>337.16</course>
  <speed>20.19</speed>
  <fix>3d</fix>
</trkpt>
<trkpt lat="-27.273122" lon="151.2901274">
  <ele>378.55</ele>
  <time>2026-09-01T19:55:16Z</time>
  <course>326.82</course>
  <speed>19.44013631639449</speed>
  <fix>3d</fix>
</trkpt>
<trkpt lat="-27.2731661" lon="151.2901536">
  <ele>376.57</ele>
  <time>2026-09-01T19:55:16Z</time>
  <course>337.16</course>
  <speed>20.19</speed>
  <fix>3d</fix>
</trkpt>
<trkpt lat="-27.2731072" lon="151.2901168">
  <ele>379.22</ele>
  <time>2026-09-01T19:55:16Z</time>
  <course>324.97</course>
  <speed>19.2267027854492</speed>
  <fix>3d</fix>
</trkpt>
<trkpt lat="-27.2731338" lon="151.290136">
  <ele>377.74</ele>
  <time>2026-09-01T19:55:16Z</time>
  <course>331.27</course>
  <speed>19.75</speed>
  <fix>3d</fix>
</trkpt>
<trkpt lat="-27.2730931" lon="151.2901056">
  <ele>379.93</ele>
  <time>2026-09-01T19:55:16Z</time>
  <course>323.31</course>
  <speed>19.014060586839413</speed>
  <fix>3d</fix>
</trkpt>
<trkpt lat="-27.2731338" lon="151.290136">
  <ele>377.74</ele>
  <time>2026-09-01T19:55:16Z</time>
  <course>331.27</course>
  <speed>19.75</speed>
  <fix>3d</fix>
</trkpt>
<trkpt lat="-27.2730795" lon="151.2900938">
  <ele>380.65</ele>
  <time>2026-09-01T19:55:16Z</time>
  <course>321.91</course>
  <speed>18.820799664201306</speed>
  <fix>3d</fix>
</trkpt>
<trkpt lat="-27.273104" lon="151.2901154">
  <ele>379.03</ele>
  <time>2026-09-01T19:55:16Z</time>
  <course>325.58</course>
  <speed>19.31</speed>
  <fix>3d</fix>
</trkpt>
<trkpt lat="-27.2730665" lon="151.2900817">
  <ele>381.41</ele>
  <time>2026-09-01T19:55:16Z</time>
  <course>320.77</course>
  <speed>18.63883311798247</speed>
  <fix>3d</fix>
</trkpt>
<trkpt lat="-27.273104" lon="151.2901154">
  <ele>379.03</ele>
  <time>2026-09-01T19:55:16Z</time>
  <course>325.58</course>
  <speed>19.31</speed>
  <fix>3d</fix>
</trkpt>
<trkpt lat="-27.2730537" lon="151.2900691">
  <ele>382.18</ele>
  <time>2026-09-01T19:55:16Z</time>
  <course>319.86</course>
  <speed>18.475638013340703</speed>
  <fix>3d</fix>
</trkpt>
<trkpt lat="-27.2730765" lon="151.2900922">
  <ele>380.45</ele>
  <time>2026-09-01T19:55:16Z</time>
  <course>320.79</course>
  <speed>18.91</speed>
  <fix>3d</fix>
</trkpt>
<trkpt lat="-27.2730415" lon="151.2900564">
  <ele>382.97</ele>
  <time>2026-09-01T19:55:16Z</time>
  <course>319.05</course>
  <speed>18.335675607950748</speed>
  <fix>3d</fix>
</trkpt>
<trkpt lat="-27.2730765" lon="151.2900922">
  <ele>380.45</ele>
  <time>2026-09-01T19:55:16Z</time>
  <course>320.79</course>
  <speed>18.91</speed>
  <fix>3d</fix>
</trkpt>
<trkpt lat="-27.2730295" lon="151.2900436">
  <ele>383.76</ele>
  <time>2026-09-01T19:55:16Z</time>
  <course>318.49</course>
  <speed>18.2103075207422</speed>
  <fix>3d</fix>
</trkpt>
<trkpt lat="-27.2730512" lon="151.2900673">
  <ele>381.96</ele>
  <time>2026-09-01T19:55:16Z</time>
  <course>317.36</course>
  <speed>18.57</speed>
  <fix>3d</fix>
</trkpt>
<trkpt lat="-27.2730177" lon="151.2900307">
  <ele>384.55</ele>
  <time>2026-09-01T19:55:16Z</time>
  <course>317.91</course>
  <speed>18.09559338623633</speed>
  <fix>3d</fix>
</trkpt>
<trkpt lat="-27.2730512" lon="151.2900673">
  <ele>381.96</ele>
  <time>2026-09-01T19:55:16Z</time>
  <course>317.36</course>
  <speed>18.57</speed>
  <fix>3d</fix>
</trkpt>
<trkpt lat="-27.2730061" lon="151.2900178">
  <ele>385.34</ele>
  <time>2026-09-01T19:55:16Z</time>
  <course>317.36</course>
  <speed>18.003210824739014</speed>
  <fix>3d</fix>
</trkpt>
<trkpt lat="-27.2730272" lon="151.2900415">
  <ele>383.53</ele>
  <time>2026-09-01T19:55:16Z</time>
  <course>315.43</course>
  <speed>18.29</speed>
  <fix>3d</fix>
</trkpt>
<trkpt lat="-27.2729945" lon="151.2900049">
  <ele>386.13</ele>
  <time>2026-09-01T19:55:16Z</time>
  <course>316.92</course>
  <speed>17.918443012717372</speed>
  <fix>3d</fix>
</trkpt>
<trkpt lat="-27.2730272" lon="151.2900415">
  <ele>383.53</ele>
  <time>2026-09-01T19:55:16Z</time>
  <course>315.43</course>
  <speed>18.29</speed>
  <fix>3d</fix>
</trkpt>
<trkpt lat="-27.272983" lon="151.2899921">
  <ele>386.9</ele>
  <time>2026-09-01T19:55:16Z</time>
  <course>316.67</course>
  <speed>17.841179893717793</speed>
  <fix>3d</fix>
</trkpt>
<trkpt lat="-27.2730041" lon="151.2900155">
  <ele>385.1</ele>
  <time>2026-09-01T19:55:16Z</time>
  <course>314.74</course>
  <speed>18.06</speed>
  <fix>3d</fix>
</trkpt>
<trkpt lat="-27.2729716" lon="151.2899794">
  <ele>387.68</ele>
  <time>2026-09-01T19:55:16Z</time>
  <course>316.43</course>
  <speed>17.76500492541446</speed>
  <fix>3d</fix>
</trkpt>
<trkpt lat="-27.2730041" lon="151.2900155">
  <ele>385.1</ele>
  <time>2026-09-01T19:55:16Z</time>
  <course>314.74</course>
  <speed>18.06</speed>
  <fix>3d</fix>
</trkpt>
<trkpt lat="-27.27296" lon="151.2899669">
  <ele>388.45</ele>
  <time>2026-09-01T19:55:16Z</time>
  <course>316.36</course>
  <speed>17.6907122524787</speed>
  <fix>3d</fix>
</trkpt>
<trkpt lat="-27.2729813" lon="151.2899898">
  <ele>386.66</ele>
  <time>2026-09-01T19:55:16Z</time>
  <course>314.95</course>
  <speed>17.89</speed>
  <fix>3d</fix>
</trkpt>
<trkpt lat="-27.2729485" lon="151.2899546">
  <ele>389.21</ele>
  <time>2026-09-01T19:55:16Z</time>
  <course>316.4</course>
  <speed>17.61270280223907</speed>
  <fix>3d</fix>
</trkpt>
<trkpt lat="-27.2729813" lon="151.2899898">
  <ele>386.66</ele>
  <time>2026-09-01T19:55:16Z</time>
  <course>314.95</course>
  <speed>17.89</speed>
  <fix>3d</fix>
</trkpt>
<trkpt lat="-27.2729368" lon="151.2899424">
  <ele>389.97</ele>
  <time>2026-09-01T19:55:16Z</time>
  <course>316.65</course>
  <speed>17.530618928035597</speed>
  <fix>3d</fix>
</trkpt>
<trkpt lat="-27.2729585" lon="151.2899645">
  <ele>388.19</ele>
  <time>2026-09-01T19:55:16Z</time>
  <course>315.85</course>
  <speed>17.73</speed>
  <fix>3d</fix>
</trkpt>
<trkpt lat="-27.2729251" lon="151.2899305">
  <ele>390.72</ele>
  <time>2026-09-01T19:55:16Z</time>
  <course>317.02</course>
  <speed>17.454137045411326</speed>
  <fix>3d</fix>
</trkpt>
<trkpt lat="-27.2729585" lon="151.2899645">
  <ele>388.19</ele>
  <time>2026-09-01T19:55:16Z</time>
  <course>315.85</course>
  <speed>17.73</speed>
  <fix>3d</fix>
</trkpt>
<trkpt lat="-27.2729133" lon="151.2899188">
  <ele>391.47</ele>
  <time>2026-09-01T19:55:16Z</time>
  <course>317.46</course>
  <speed>17.38936744105432</speed>
  <fix>3d</fix>
</trkpt>
<trkpt lat="-27.2729355" lon="151.2899399">
  <ele>389.7</ele>
  <time>2026-09-01T19:55:16Z</time>
  <course>317.29</course>
  <speed>17.57</speed>
  <fix>3d</fix>
</trkpt>
<trkpt lat="-27.2729013" lon="151.2899074">
  <ele>392.22</ele>
  <time>2026-09-01T19:55:16Z</time>
  <course>318.02</course>
  <speed>17.326800050788375</speed>
  <fix>3d</fix>
</trkpt>
<trkpt lat="-27.2729355" lon="151.2899399">
  <ele>389.7</ele>
  <time>2026-09-01T19:55:16Z</time>
  <course>317.29</course>
  <speed>17.57</speed>
  <fix>3d</fix>
</trkpt>
<trkpt lat="-27.2728892" lon="151.2898963">
  <ele>392.96</ele>
  <time>2026-09-01T19:55:16Z</time>
  <course>318.58</course>
  <speed>17.2782232882898</speed>
  <fix>3d</fix>
</trkpt>
<trkpt lat="-27.2729122" lon="151.2899163">
  <ele>391.2</ele>
  <time>2026-09-01T19:55:16Z</time>
  <course>319.13</course>
  <speed>17.42</speed>
  <fix>3d</fix>
</trkpt>
<trkpt lat="-27.272877" lon="151.2898855">
  <ele>393.69</ele>
  <time>2026-09-01T19:55:16Z</time>
  <course>319.15</course>
  <speed>17.23606683672351</speed>
  <fix>3d</fix>
</trkpt>
<trkpt lat="-27.2729122" lon="151.2899163">
  <ele>391.2</ele>
  <time>2026-09-01T19:55:16Z</time>
  <course>319.13</course>
  <speed>17.42</speed>
  <fix>3d</fix>
</trkpt>
<trkpt lat="-27.2728646" lon="151.2898749">
  <ele>394.41</ele>
  <time>2026-09-01T19:55:16Z</time>
  <course>319.81</course>
  <speed>17.20261608011991</speed>
  <fix>3d</fix>
</trkpt>
<trkpt lat="-27.2728882" lon="151.2898939">
  <ele>392.68</ele>
  <time>2026-09-01T19:55:16Z</time>
  <course>321.29</course>
  <speed>17.31</speed>
  <fix>3d</fix>
</trkpt>
<trkpt lat="-27.272852" lon="151.2898647">
  <ele>395.12</ele>
  <time>2026-09-01T19:55:16Z</time>
  <course>320.42</course>
  <speed>17.170535809927422</speed>
  <fix>3d</fix>
</trkpt>
<trkpt lat="-27.2728882" lon="151.2898939">
  <ele>392.68</ele>
  <time>2026-09-01T19:55:16Z</time>
  <course>321.29</course>
  <speed>17.31</speed>
  <fix>3d</fix>
</trkpt>
<trkpt lat="-27.2728393" lon="151.2898548">
  <ele>395.81</ele>
  <time>2026-09-01T19:55:16Z</time>
  <course>321.01</course>
  <speed>17.148600525990453</speed>
  <fix>3d</fix>
</trkpt>
<trkpt lat="-27.2728636" lon="151.2898726">
  <ele>394.13</ele>
  <time>2026-09-01T19:55:16Z</time>
  <course>323.63</course>
  <speed>17.22</speed>
  <fix>3d</fix>
</trkpt>
<trkpt lat="-27.2728265" lon="151.2898452">
  <ele>396.47</ele>
  <time>2026-09-01T19:55:16Z</time>
  <course>321.67</course>
  <speed>17.124794889282615</speed>
  <fix>3d</fix>
</trkpt>
<trkpt lat="-27.2728636" lon="151.2898726">
  <ele>394.13</ele>
  <time>2026-09-01T19:55:16Z</time>
  <course>323.63</course>
  <speed>17.22</speed>
  <fix>3d</fix>
</trkpt>
<trkpt lat="-27.2728134" lon="151.2898358">
  <ele>397.12</ele>
  <time>2026-09-01T19:55:16Z</time>
  <course>322.26</course>
  <speed>17.1177831508639</speed>
  <fix>3d</fix>
</trkpt>
<trkpt lat="-27.2728384" lon="151.2898526">
  <ele>395.53</ele>
  <time>2026-09-01T19:55:16Z</time>
  <course>325.98</course>
  <speed>17.17</speed>
  <fix>3d</fix>
</trkpt>
<trkpt lat="-27.2728002" lon="151.2898268">
  <ele>397.74</ele>
  <time>2026-09-01T19:55:16Z</time>
  <course>322.87</course>
  <speed>17.116524179867827</speed>
  <fix>3d</fix>
</trkpt>
<trkpt lat="-27.2728384" lon="151.2898526">
  <ele>395.53</ele>
  <time>2026-09-01T19:55:16Z</time>
  <course>325.98</course>
  <speed>17.17</speed>
  <fix>3d</fix>
</trkpt>
<trkpt lat="-27.272787" lon="151.289818">
  <ele>398.33</ele>
  <time>2026-09-01T19:55:16Z</time>
  <course>323.42</course>
  <speed>17.108483275848855</speed>
  <fix>3d</fix>
</trkpt>
<trkpt lat="-27.2728125" lon="151.2898338">
  <ele>396.84</ele>
  <time>2026-09-01T19:55:16Z</time>
  <course>328.21</course>
  <speed>17.15</speed>
  <fix>3d</fix>
</trkpt>
<trkpt lat="-27.2727736" lon="151.2898096">
  <ele>398.88</ele>
  <time>2026-09-01T19:55:16Z</time>
  <course>323.89</course>
  <speed>17.111025685212443</speed>
  <fix>3d</fix>
</trkpt>
<trkpt lat="-27.2728125" lon="151.2898338">
  <ele>396.84</ele>
  <time>2026-09-01T19:55:16Z</time>
  <course>328.21</course>
  <speed>17.15</speed>
  <fix>3d</fix>
</trkpt>
<trkpt lat="-27.2727602" lon="151.2898013">
  <ele>399.39</ele>
  <time>2026-09-01T19:55:16Z</time>
  <course>324.41</course>
  <speed>17.118063558708972</speed>
  <fix>3d</fix>
</trkpt>
<trkpt lat="-27.2727859" lon="151.289816">
  <ele>398.05</ele>
  <time>2026-09-01T19:55:16Z</time>
  <course>330.27</course>
  <speed>17.15</speed>
  <fix>3d</fix>
</trkpt>
<trkpt lat="-27.2727466" lon="151.2897933">
  <ele>399.86</ele>
  <time>2026-09-01T19:55:16Z</time>
  <course>324.98</course>
  <speed>17.128412068840472</speed>
  <fix>3d</fix>
</trkpt>
<trkpt lat="-27.2727859" lon="151.289816">
  <ele>398.05</ele>
  <time>2026-09-01T19:55:16Z</time>
  <course>330.27</course>
  <speed>17.15</speed>
  <fix>3d</fix>
</trkpt>
<trkpt lat="-27.2727329" lon="151.2897855">
  <ele>400.3</ele>
  <time>2026-09-01T19:55:16Z</time>
  <course>325.54</course>
  <speed>17.14745753748934</speed>
  <fix>3d</fix>
</trkpt>
<trkpt lat="-27.2727589" lon="151.2897993">
  <ele>399.11</ele>
  <time>2026-09-01T19:55:16Z</time>
  <course>332.12</course>
  <speed>17.17</speed>
  <fix>3d</fix>
</trkpt>
<trkpt lat="-27.272719" lon="151.2897779">
  <ele>400.69</ele>
  <time>2026-09-01T19:55:16Z</time>
  <course>326.21</course>
  <speed>17.149276952688123</speed>
  <fix>3d</fix>
</trkpt>
<trkpt lat="-27.2727589" lon="151.2897993">
  <ele>399.11</ele>
  <time>2026-09-01T19:55:16Z</time>
  <course>332.12</course>
  <speed>17.17</speed>
  <fix>3d</fix>
</trkpt>
<trkpt lat="-27.2727051" lon="151.2897707">
  <ele>401.05</ele>
  <time>2026-09-01T19:55:16Z</time>
  <course>326.99</course>
  <speed>17.154480464298533</speed>
  <fix>3d</fix>
</trkpt>
<trkpt lat="-27.2727314" lon="151.2897835">
  <ele>400.02</ele>
  <time>2026-09-01T19:55:16Z</time>
  <course>333.97</course>
  <speed>17.2</speed>
  <fix>3d</fix>
</trkpt>
<trkpt lat="-27.272691" lon="151.2897638">
  <ele>401.37</ele>
  <time>2026-09-01T19:55:16Z</time>
  <course>327.7</course>
  <speed>17.16313491178112</speed>
  <fix>3d</fix>
</trkpt>
<trkpt lat="-27.2727314" lon="151.2897835">
  <ele>400.02</ele>
  <time>2026-09-01T19:55:16Z</time>
  <course>333.97</course>
  <speed>17.2</speed>
  <fix>3d</fix>
</trkpt>
<trkpt lat="-27.2726767" lon="151.2897573">
  <ele>401.66</ele>
  <time>2026-09-01T19:55:16Z</time>
  <course>328.54</course>
  <speed>17.162869806649468</speed>
  <fix>3d</fix>
</trkpt>
<trkpt lat="-27.2727033" lon="151.2897689">
  <ele>400.77</ele>
  <time>2026-09-01T19:55:16Z</time>
  <course>336.15</course>
  <speed>17.22</speed>
  <fix>3d</fix>
</trkpt>
<trkpt lat="-27.2726623" lon="151.2897511">
  <ele>401.93</ele>
  <time>2026-09-01T19:55:16Z</time>
  <course>329.39</course>
  <speed>17.176088029583454</speed>
  <fix>3d</fix>
</trkpt>
<trkpt lat="-27.2727033" lon="151.2897689">
  <ele>400.77</ele>
  <time>2026-09-01T19:55:16Z</time>
  <course>336.15</course>
  <speed>17.22</speed>
  <fix>3d</fix>
</trkpt>
<trkpt lat="-27.2726478" lon="151.2897453">
  <ele>402.16</ele>
  <time>2026-09-01T19:55:16Z</time>
  <course>330.35</course>
  <speed>17.18068974168383</speed>
  <fix>3d</fix>
</trkpt>
<trkpt lat="-27.2726748" lon="151.2897555">
  <ele>401.39</ele>
  <time>2026-09-01T19:55:16Z</time>
  <course>338.7</course>
  <speed>17.24</speed>
  <fix>3d</fix>
</trkpt>
<trkpt lat="-27.2726331" lon="151.28974">
  <ele>402.38</ele>
  <time>2026-09-01T19:55:16Z</time>
  <course>331.41</course>
  <speed>17.188196531340918</speed>
  <fix>3d</fix>
</trkpt>
<trkpt lat="-27.2726748" lon="151.2897555">
  <ele>401.39</ele>
  <time>2026-09-01T19:55:16Z</time>
  <course>338.7</course>
  <speed>17.24</speed>
  <fix>3d</fix>
</trkpt>
<trkpt lat="-27.2726182" lon="151.2897351">
  <ele>402.57</ele>
  <time>2026-09-01T19:55:16Z</time>
  <course>332.47</course>
  <speed>17.193905897148557</speed>
  <fix>3d</fix>
</trkpt>
<trkpt lat="-27.2726456" lon="151.2897436">
  <ele>401.89</ele>
  <time>2026-09-01T19:55:16Z</time>
  <course>341.58</course>
  <speed>17.26</speed>
  <fix>3d</fix>
</trkpt>
<trkpt lat="-27.2726033" lon="151.2897307">
  <ele>402.75</ele>
  <time>2026-09-01T19:55:16Z</time>
  <course>333.54</course>
  <speed>17.220990099294525</speed>
  <fix>3d</fix>
</trkpt>
<trkpt lat="-27.2726456" lon="151.2897436">
  <ele>401.89</ele>
  <time>2026-09-01T19:55:16Z</time>
  <course>341.58</course>
  <speed>17.26</speed>
  <fix>3d</fix>
</trkpt>
<trkpt lat="-27.2725882" lon="151.2897268">
  <ele>402.9</ele>
  <time>2026-09-01T19:55:16Z</time>
  <course>334.63</course>
  <speed>17.23903709607935</speed>
  <fix>3d</fix>
</trkpt>
<trkpt lat="-27.2726159" lon="151.2897335">
  <ele>402.3</ele>
  <time>2026-09-01T19:55:16Z</time>
  <course>344.79</course>
  <speed>17.29</speed>
  <fix>3d</fix>
</trkpt>
<trkpt lat="-27.2725729" lon="151.2897234">
  <ele>403.04</ele>
  <time>2026-09-01T19:55:16Z</time>
  <course>335.81</course>
  <speed>17.26733911174504</speed>
  <fix>3d</fix>
</trkpt>
<trkpt lat="-27.2726159" lon="151.2897335">
  <ele>402.3</ele>
  <time>2026-09-01T19:55:16Z</time>
  <course>344.79</course>
  <speed>17.29</speed>
  <fix>3d</fix>
</trkpt>
<trkpt lat="-27.2725576" lon="151.2897206">
  <ele>403.16</ele>
  <time>2026-09-01T19:55:16Z</time>
  <course>337.03</course>
  <speed>17.291596224756116</speed>
  <fix>3d</fix>
</trkpt>
<trkpt lat="-27.2725857" lon="151.2897254">
  <ele>402.64</ele>
  <time>2026-09-01T19:55:16Z</time>
  <course>348.24</course>
  <speed>17.34</speed>
  <fix>3d</fix>
</trkpt>
<trkpt lat="-27.2725421" lon="151.2897183">
  <ele>403.26</ele>
  <time>2026-09-01T19:55:16Z</time>
  <course>338.2</course>
  <speed>17.32232086066991</speed>
  <fix>3d</fix>
</trkpt>
<trkpt lat="-27.2725857" lon="151.2897254">
  <ele>402.64</ele>
  <time>2026-09-01T19:55:16Z</time>
  <course>348.24</course>
  <speed>17.34</speed>
  <fix>3d</fix>
</trkpt>
<trkpt lat="-27.2725266" lon="151.2897165">
  <ele>403.35</ele>
  <time>2026-09-01T19:55:16Z</time>
  <course>339.33</course>
  <speed>17.351818348518982</speed>
  <fix>3d</fix>
</trkpt>
<trkpt lat="-27.2725549" lon="151.2897193">
  <ele>402.9</ele>
  <time>2026-09-01T19:55:16Z</time>
  <course>351.87</course>
  <speed>17.39</speed>
  <fix>3d</fix>
</trkpt>
<trkpt lat="-27.2725111" lon="151.2897154">
  <ele>403.41</ele>
  <time>2026-09-01T19:55:16Z</time>
  <course>340.49</course>
  <speed>17.38841280853431</speed>
  <fix>3d</fix>
</trkpt>
<trkpt lat="-27.2725549" lon="151.2897193">
  <ele>402.9</ele>
  <time>2026-09-01T19:55:16Z</time>
  <course>351.87</course>
  <speed>17.39</speed>
  <fix>3d</fix>
</trkpt>
<trkpt lat="-27.2724954" lon="151.2897147">
  <ele>403.46</ele>
  <time>2026-09-01T19:55:16Z</time>
  <course>341.74</course>
  <speed>17.431652245269234</speed>
  <fix>3d</fix>
</trkpt>
<trkpt lat="-27.2725238" lon="151.2897154">
  <ele>403.09</ele>
  <time>2026-09-01T19:55:16Z</time>
  <course>355.55</course>
  <speed>17.46</speed>
  <fix>3d</fix>
</trkpt>
<trkpt lat="-27.2724797" lon="151.2897146">
  <ele>403.49</ele>
  <time>2026-09-01T19:55:16Z</time>
  <course>342.99</course>
  <speed>17.47293049262201</speed>
  <fix>3d</fix>
</trkpt>
<trkpt lat="-27.2725238" lon="151.2897154">
  <ele>403.09</ele>
  <time>2026-09-01T19:55:16Z</time>
  <course>355.55</course>
  <speed>17.46</speed>
  <fix>3d</fix>
</trkpt>
<trkpt lat="-27.2724639" lon="151.2897151">
  <ele>403.51</ele>
  <time>2026-09-01T19:55:16Z</time>
  <course>344.21</course>
  <speed>17.522616813706794</speed>
  <fix>3d</fix>
</trkpt>
<trkpt lat="-27.2724924" lon="151.2897138">
  <ele>403.22</ele>
  <time>2026-09-01T19:55:16Z</time>
  <course>359.25</course>
  <speed>17.55</speed>
  <fix>3d</fix>
</trkpt>
<trkpt lat="-27.272448" lon="151.2897162">
  <ele>403.51</ele>
  <time>2026-09-01T19:55:16Z</time>
  <course>345.47</course>
  <speed>17.57076264707938</speed>
  <fix>3d</fix>
</trkpt>
<trkpt lat="-27.2724924" lon="151.2897138">
  <ele>403.22</ele>
  <time>2026-09-01T19:55:16Z</time>
  <course>359.25</course>
  <speed>17.55</speed>
  <fix>3d</fix>
</trkpt>
<trkpt lat="-27.2724322" lon="151.2897178">
  <ele>403.49</ele>
  <time>2026-09-01T19:55:16Z</time>
  <course>346.69</course>
  <speed>17.626131169374634</speed>
  <fix>3d</fix>
</trkpt>
<trkpt lat="-27.2724608" lon="151.2897146">
  <ele>403.28</ele>
  <time>2026-09-01T19:55:16Z</time>
  <course>3.01</course>
  <speed>17.64</speed>
  <fix>3d</fix>
</trkpt>
<trkpt lat="-27.2724163" lon="151.2897201">
  <ele>403.46</ele>
  <time>2026-09-01T19:55:16Z</time>
  <course>347.98</course>
  <speed>17.670837557965385</speed>
  <fix>3d</fix>
</trkpt>
<trkpt lat="-27.2724608" lon="151.2897146">
  <ele>403.28</ele>
  <time>2026-09-01T19:55:16Z</time>
  <course>3.01</course>
  <speed>17.64</speed>
  <fix>3d</fix>
</trkpt>
<trkpt lat="-27.2724005" lon="151.2897229">
  <ele>403.4</ele>
  <time>2026-09-01T19:55:16Z</time>
  <course>349.28</course>
  <speed>17.7338123368891</speed>
  <fix>3d</fix>
</trkpt>
<trkpt lat="-27.272429" lon="151.2897176">
  <ele>403.28</ele>
  <time>2026-09-01T19:55:16Z</time>
  <course>6.74</course>
  <speed>17.75</speed>
  <fix>3d</fix>
</trkpt>
<trkpt lat="-27.2723848" lon="151.2897264">
  <ele>403.33</ele>
  <time>2026-09-01T19:55:16Z</time>
  <course>350.57</course>
  <speed>17.80718113571039</speed>
  <fix>3d</fix>
</trkpt>
<trkpt lat="-27.272429" lon="151.2897176">
  <ele>403.28</ele>
  <time>2026-09-01T19:55:16Z</time>
  <course>6.74</course>
  <speed>17.75</speed>
  <fix>3d</fix>
</trkpt>
<trkpt lat="-27.272369" lon="151.2897304">
  <ele>403.25</ele>
  <time>2026-09-01T19:55:16Z</time>
  <course>351.83</course>
  <speed>17.89673154517327</speed>
  <fix>3d</fix>
</trkpt>
<trkpt lat="-27.2723974" lon="151.2897229">
  <ele>403.2</ele>
  <time>2026-09-01T19:55:16Z</time>
  <course>10.44</course>
  <speed>17.87</speed>
  <fix>3d</fix>
</trkpt>
<trkpt lat="-27.2723534" lon="151.2897349">
  <ele>403.14</ele>
  <time>2026-09-01T19:55:16Z</time>
  <course>353.08</course>
  <speed>17.991645283297466</speed>
  <fix>3d</fix>
</trkpt>
<trkpt lat="-27.2723974" lon="151.2897229">
  <ele>403.2</ele>
  <time>2026-09-01T19:55:16Z</time>
  <course>10.44</course>
  <speed>17.87</speed>
  <fix>3d</fix>
</trkpt>
<trkpt lat="-27.2723378" lon="151.2897401">
  <ele>403.02</ele>
  <time>2026-09-01T19:55:16Z</time>
  <course>354.4</course>
  <speed>18.090992233705702</speed>
  <fix>3d</fix>
</trkpt>
<trkpt lat="-27.272366" lon="151.2897306">
  <ele>403.05</ele>
  <time>2026-09-01T19:55:16Z</time>
  <course>14.1</course>
  <speed>18.03</speed>
  <fix>3d</fix>
</trkpt>
<trkpt lat="-27.2723222" lon="151.2897458">
  <ele>402.88</ele>
  <time>2026-09-01T19:55:16Z</time>
  <course>355.8</course>
  <speed>18.216476058777122</speed>
  <fix>3d</fix>
</trkpt>
<trkpt lat="-27.272366" lon="151.2897306">
  <ele>403.05</ele>
  <time>2026-09-01T19:55:16Z</time>
  <course>14.1</course>
  <speed>18.03</speed>
  <fix>3d</fix>
</trkpt>
<trkpt lat="-27.2723067" lon="151.2897521">
  <ele>402.73</ele>
  <time>2026-09-01T19:55:16Z</time>
  <course>357.18</course>
  <speed>18.353882423073326</speed>
  <fix>3d</fix>
</trkpt>
<trkpt lat="-27.2723347" lon="151.2897406">
  <ele>402.83</ele>
  <time>2026-09-01T19:55:16Z</time>
  <course>17.68</course>
  <speed>18.23</speed>
  <fix>3d</fix>
</trkpt>
<trkpt lat="-27.2722913" lon="151.2897591">
  <ele>402.56</ele>
  <time>2026-09-01T19:55:16Z</time>
  <course>358.61</course>
  <speed>18.509348989091972</speed>
  <fix>3d</fix>
</trkpt>
<trkpt lat="-27.2723347" lon="151.2897406">
  <ele>402.83</ele>
  <time>2026-09-01T19:55:16Z</time>
  <course>17.68</course>
  <speed>18.23</speed>
  <fix>3d</fix>
</trkpt>
<trkpt lat="-27.2722759" lon="151.2897666">
  <ele>402.37</ele>
  <time>2026-09-01T19:55:16Z</time>
  <course>0.05</course>
  <speed>18.690751723780398</speed>
  <fix>3d</fix>
</trkpt>
<trkpt lat="-27.2723036" lon="151.289753">
  <ele>402.54</ele>
  <time>2026-09-01T19:55:16Z</time>
  <course>21.26</course>
  <speed>18.5</speed>
  <fix>3d</fix>
</trkpt>
<trkpt lat="-27.2722606" lon="151.2897748">
  <ele>402.18</ele>
  <time>2026-09-01T19:55:16Z</time>
  <course>1.53</course>
  <speed>18.87246671741667</speed>
  <fix>3d</fix>
</trkpt>
<trkpt lat="-27.2723036" lon="151.289753">
  <ele>402.54</ele>
  <time>2026-09-01T19:55:16Z</time>
  <course>21.26</course>
  <speed>18.5</speed>
  <fix>3d</fix>
</trkpt>
<trkpt lat="-27.2722453" lon="151.2897836">
  <ele>401.97</ele>
  <time>2026-09-01T19:55:16Z</time>
  <course>3.08</course>
  <speed>19.081850015132183</speed>
  <fix>3d</fix>
</trkpt>
<trkpt lat="-27.2722727" lon="151.2897679">
  <ele>402.2</ele>
  <time>2026-09-01T19:55:16Z</time>
  <course>24.87</course>
  <speed>18.83</speed>
  <fix>3d</fix>
</trkpt>
<trkpt lat="-27.2722302" lon="151.289793">
  <ele>401.75</ele>
  <time>2026-09-01T19:55:16Z</time>
  <course>4.68</course>
  <speed>19.311304979208423</speed>
  <fix>3d</fix>
</trkpt>
<trkpt lat="-27.2722727" lon="151.2897679">
  <ele>402.2</ele>
  <time>2026-09-01T19:55:16Z</time>
  <course>24.87</course>
  <speed>18.83</speed>
  <fix>3d</fix>
</trkpt>
<trkpt lat="-27.2722151" lon="151.2898031">
  <ele>401.53</ele>
  <time>2026-09-01T19:55:16Z</time>
  <course>6.3</course>
  <speed>19.551698135967627</speed>
  <fix>3d</fix>
</trkpt>
<trkpt lat="-27.2722422" lon="151.2897851">
  <ele>401.8</ele>
  <time>2026-09-01T19:55:16Z</time>
  <course>28.49</course>
  <speed>19.23</speed>
  <fix>3d</fix>
</trkpt>
<trkpt lat="-27.2722002" lon="151.2898139">
  <ele>401.3</ele>
  <time>2026-09-01T19:55:16Z</time>
  <course>7.97</course>
  <speed>19.805577497260714</speed>
  <fix>3d</fix>
</trkpt>
<trkpt lat="-27.2722422" lon="151.2897851">
  <ele>401.8</ele>
  <time>2026-09-01T19:55:16Z</time>
  <course>28.49</course>
  <speed>19.23</speed>
  <fix>3d</fix>
</trkpt>
<trkpt lat="-27.2721854" lon="151.2898253">
  <ele>401.06</ele>
  <time>2026-09-01T19:55:16Z</time>
  <course>9.64</course>
  <speed>20.073644412512643</speed>
  <fix>3d</fix>
</trkpt>
<trkpt lat="-27.2722119" lon="151.289805">
  <ele>401.36</ele>
  <time>2026-09-01T19:55:16Z</time>
  <course>32.14</course>
  <speed>19.7</speed>
  <fix>3d</fix>
</trkpt>
<trkpt lat="-27.2721707" lon="151.2898375">
  <ele>400.82</ele>
  <time>2026-09-01T19:55:16Z</time>
  <course>11.34</course>
  <speed>20.356613176066396</speed>
  <fix>3d</fix>
</trkpt>
<trkpt lat="-27.2722119" lon="151.289805">
  <ele>401.36</ele>
  <time>2026-09-01T19:55:16Z</time>
  <course>32.14</course>
  <speed>19.7</speed>
  <fix>3d</fix>
</trkpt>
<trkpt lat="-27.2721562" lon="151.2898503">
  <ele>400.57</ele>
  <time>2026-09-01T19:55:16Z</time>
  <course>13.13</course>
  <speed>20.643662465754474</speed>
  <fix>3d</fix>
</trkpt>
<trkpt lat="-27.2721823" lon="151.2898275">
  <ele>400.9</ele>
  <time>2026-09-01T19:55:16Z</time>
  <course>35.75</course>
  <speed>20.22</speed>
  <fix>3d</fix>
</trkpt>
<trkpt lat="-27.2721418" lon="151.2898638">
  <ele>400.32</ele>
  <time>2026-09-01T19:55:16Z</time>
  <course>14.95</course>
  <speed>20.9623114183527</speed>
  <fix>3d</fix>
</trkpt>
<trkpt lat="-27.2721823" lon="151.2898275">
  <ele>400.9</ele>
  <time>2026-09-01T19:55:16Z</time>
  <course>35.75</course>
  <speed>20.22</speed>
  <fix>3d</fix>
</trkpt>
<trkpt lat="-27.2721274" lon="151.2898782">
  <ele>400.06</ele>
  <time>2026-09-01T19:55:16Z</time>
  <course>16.78</course>
  <speed>21.293475526555074</speed>
  <fix>3d</fix>
</trkpt>
<trkpt lat="-27.272153" lon="151.2898528">
  <ele>400.42</ele>
  <time>2026-09-01T19:55:16Z</time>
  <course>39.35</course>
  <speed>20.8</speed>
  <fix>3d</fix>
</trkpt>
<trkpt lat="-27.2721134" lon="151.2898932">
  <ele>399.81</ele>
  <time>2026-09-01T19:55:16Z</time>
  <course>18.69</course>
  <speed>21.638133006338602</speed>
  <fix>3d</fix>
</trkpt>
<trkpt lat="-27.272153" lon="151.2898528">
  <ele>400.42</ele>
  <time>2026-09-01T19:55:16Z</time>
  <course>39.35</course>
  <speed>20.8</speed>
  <fix>3d</fix>
</trkpt>
<trkpt lat="-27.2720996" lon="151.289909">
  <ele>399.56</ele>
  <time>2026-09-01T19:55:16Z</time>
  <course>20.62</course>
  <speed>21.997245282080208</speed>
  <fix>3d</fix>
</trkpt>
<trkpt lat="-27.2721244" lon="151.2898809">
  <ele>399.93</ele>
  <time>2026-09-01T19:55:16Z</time>
  <course>42.96</course>
  <speed>21.44</speed>
  <fix>3d</fix>
</trkpt>
<trkpt lat="-27.2720855" lon="151.289926">
  <ele>399.3</ele>
  <time>2026-09-01T19:55:16Z</time>
  <course>22.62</course>
  <speed>22.380795338861393</speed>
  <fix>3d</fix>
</trkpt>
<trkpt lat="-27.2721244" lon="151.2898809">
  <ele>399.93</ele>
  <time>2026-09-01T19:55:16Z</time>
  <course>42.96</course>
  <speed>21.44</speed>
  <fix>3d</fix>
</trkpt>
<trkpt lat="-27.2720723" lon="151.2899432">
  <ele>399.05</ele>
  <time>2026-09-01T19:55:16Z</time>
  <course>24.59</course>
  <speed>22.76628428180585</speed>
  <fix>3d</fix>
</trkpt>
<trkpt lat="-27.2720967" lon="151.2899119">
  <ele>399.44</ele>
  <time>2026-09-01T19:55:16Z</time>
  <course>46.58</course>
  <speed>22.13</speed>
  <fix>3d</fix>
</trkpt>
<trkpt lat="-27.2720592" lon="151.2899613">
  <ele>398.8</ele>
  <time>2026-09-01T19:55:16Z</time>
  <course>26.67</course>
  <speed>23.164973559233776</speed>
  <fix>3d</fix>
</trkpt>
<trkpt lat="-27.2720967" lon="151.2899119">
  <ele>399.44</ele>
  <time>2026-09-01T19:55:16Z</time>
  <course>46.58</course>
  <speed>22.13</speed>
  <fix>3d</fix>
</trkpt>
<trkpt lat="-27.2720465" lon="151.2899801">
  <ele>398.56</ele>
  <time>2026-09-01T19:55:16Z</time>
  <course>28.82</course>
  <speed>23.577686485319123</speed>
  <fix>3d</fix>
</trkpt>
<trkpt lat="-27.2720698" lon="151.2899459">
  <ele>398.94</ele>
  <time>2026-09-01T19:55:16Z</time>
  <course>50.24</course>
  <speed>22.88</speed>
  <fix>3d</fix>
</trkpt>
<trkpt lat="-27.2720341" lon="151.2899998">
  <ele>398.33</ele>
  <time>2026-09-01T19:55:16Z</time>
  <course>30.95</course>
  <speed>24.00040207996524</speed>
  <fix>3d</fix>
</trkpt>
<trkpt lat="-27.2720698" lon="151.2899459">
  <ele>398.94</ele>
  <time>2026-09-01T19:55:16Z</time>
  <course>50.24</course>
  <speed>22.88</speed>
  <fix>3d</fix>
</trkpt>
<trkpt lat="-27.272022" lon="151.2900204">
  <ele>398.1</ele>
  <time>2026-09-01T19:55:16Z</time>
  <course>33.12</course>
  <speed>24.432457919742745</speed>
  <fix>3d</fix>
</trkpt>
<trkpt lat="-27.2720442" lon="151.2899831">
  <ele>398.47</ele>
  <time>2026-09-01T19:55:16Z</time>
  <course>53.96</course>
  <speed>23.69</speed>
  <fix>3d</fix>
</trkpt>
<trkpt lat="-27.2720106" lon="151.2900412">
  <ele>397.88</ele>
  <time>2026-09-01T19:55:16Z</time>
  <course>35.32</course>
  <speed>24.849082478031256</speed>
  <fix>3d</fix>
</trkpt>
<trkpt lat="-27.2720442" lon="151.2899831">
  <ele>398.47</ele>
  <time>2026-09-01T19:55:16Z</time>
  <course>53.96</course>
  <speed>23.69</speed>
  <fix>3d</fix>
</trkpt>
<trkpt lat="-27.2719994" lon="151.2900632">
  <ele>397.67</ele>
  <time>2026-09-01T19:55:16Z</time>
  <course>37.68</course>
  <speed>25.296960291703034</speed>
  <fix>3d</fix>
</trkpt>
<trkpt lat="-27.2720198" lon="151.2900234">
  <ele>398.02</ele>
  <time>2026-09-01T19:55:16Z</time>
  <course>57.73</course>
  <speed>24.53</speed>
  <fix>3d</fix>
</trkpt>
<trkpt lat="-27.2719888" lon="151.2900861">
  <ele>397.47</ele>
  <time>2026-09-01T19:55:16Z</time>
  <course>40.1</course>
  <speed>25.74161611088162</speed>
  <fix>3d</fix>
</trkpt>
<trkpt lat="-27.2720198" lon="151.2900234">
  <ele>398.02</ele>
  <time>2026-09-01T19:55:16Z</time>
  <course>57.73</course>
  <speed>24.53</speed>
  <fix>3d</fix>
</trkpt>
<trkpt lat="-27.2719786" lon="151.2901099">
  <ele>397.27</ele>
  <time>2026-09-01T19:55:16Z</time>
  <course>42.52</course>
  <speed>26.20455876369606</speed>
  <fix>3d</fix>
</trkpt>
<trkpt lat="-27.2719972" lon="151.290067">
  <ele>397.59</ele>
  <time>2026-09-01T19:55:16Z</time>
  <course>61.59</course>
  <speed>25.4</speed>
  <fix>3d</fix>
</trkpt>
<trkpt lat="-27.271969" lon="151.2901344">
  <ele>397.09</ele>
  <time>2026-09-01T19:55:16Z</time>
  <course>44.91</course>
  <speed>26.647710971113447</speed>
  <fix>3d</fix>
</trkpt>
<trkpt lat="-27.2719972" lon="151.290067">
  <ele>397.59</ele>
  <time>2026-09-01T19:55:16Z</time>
  <course>61.59</course>
  <speed>25.4</speed>
  <fix>3d</fix>
</trkpt>
<trkpt lat="-27.2719601" lon="151.2901597">
  <ele>396.92</ele>
  <time>2026-09-01T19:55:16Z</time>
  <course>47.39</course>
  <speed>27.109077815373947</speed>
  <fix>3d</fix>
</trkpt>
<trkpt lat="-27.2719766" lon="151.2901137">
  <ele>397.22</ele>
  <time>2026-09-01T19:55:16Z</time>
  <course>65.57</course>
  <speed>26.29</speed>
  <fix>3d</fix>
</trkpt>
<trkpt lat="-27.2719518" lon="151.2901858">
  <ele>396.77</ele>
  <time>2026-09-01T19:55:16Z</time>
  <course>49.9</course>
  <speed>27.5687395431855</speed>
  <fix>3d</fix>
</trkpt>
<trkpt lat="-27.2719766" lon="151.2901137">
  <ele>397.22</ele>
  <time>2026-09-01T19:55:16Z</time>
  <course>65.57</course>
  <speed>26.29</speed>
  <fix>3d</fix>
</trkpt>
<trkpt lat="-27.2719443" lon="151.2902126">
  <ele>396.62</ele>
  <time>2026-09-01T19:55:16Z</time>
  <course>52.43</course>
  <speed>28.010087468624583</speed>
  <fix>3d</fix>
</trkpt>
<trkpt lat="-27.2719583" lon="151.2901637">
  <ele>396.88</ele>
  <time>2026-09-01T19:55:16Z</time>
  <course>69.63</course>
  <speed>27.19</speed>
  <fix>3d</fix>
</trkpt>
<trkpt lat="-27.2719375" lon="151.29024">
  <ele>396.49</ele>
  <time>2026-09-01T19:55:16Z</time>
  <course>54.98</course>
  <speed>28.457115103256687</speed>
  <fix>3d</fix>
</trkpt>
<trkpt lat="-27.2719583" lon="151.2901637">
  <ele>396.88</ele>
  <time>2026-09-01T19:55:16Z</time>
  <course>69.63</course>
  <speed>27.19</speed>
  <fix>3d</fix>
</trkpt>
<trkpt lat="-27.2719315" lon="151.2902682">
  <ele>396.37</ele>
  <time>2026-09-01T19:55:16Z</time>
  <course>57.67</course>
  <speed>28.897655614253555</speed>
  <fix>3d</fix>
</trkpt>
<trkpt lat="-27.2719427" lon="151.2902167">
  <ele>396.59</ele>
  <time>2026-09-01T19:55:16Z</time>
  <course>73.74</course>
  <speed>28.08</speed>
  <fix>3d</fix>
</trkpt>
<trkpt lat="-27.2719264" lon="151.2902971">
  <ele>396.27</ele>
  <time>2026-09-01T19:55:16Z</time>
  <course>60.28</course>
  <speed>29.32926524821241</speed>
  <fix>3d</fix>
</trkpt>
<trkpt lat="-27.2719427" lon="151.2902167">
  <ele>396.59</ele>
  <time>2026-09-01T19:55:16Z</time>
  <course>73.74</course>
  <speed>28.08</speed>
  <fix>3d</fix>
</trkpt>
<trkpt lat="-27.2719221" lon="151.2903266">
  <ele>396.18</ele>
  <time>2026-09-01T19:55:16Z</time>
  <course>63.05</course>
  <speed>29.760769479299423</speed>
  <fix>3d</fix>
</trkpt>
<trkpt lat="-27.2719302" lon="151.2902726">
  <ele>396.34</ele>
  <time>2026-09-01T19:55:16Z</time>
  <course>77.9</course>
  <speed>28.96</speed>
  <fix>3d</fix>
</trkpt>
<trkpt lat="-27.2719188" lon="151.290357">
  <ele>396.09</ele>
  <time>2026-09-01T19:55:16Z</time>
  <course>65.95</course>
  <speed>30.194438229581287</speed>
  <fix>3d</fix>
</trkpt>
<trkpt lat="-27.2719302" lon="151.2902726">
  <ele>396.34</ele>
  <time>2026-09-01T19:55:16Z</time>
  <course>77.9</course>
  <speed>28.96</speed>
  <fix>3d</fix>
</trkpt>
<trkpt lat="-27.2719165" lon="151.2903876">
  <ele>396.03</ele>
  <time>2026-09-01T19:55:16Z</time>
  <course>68.76</course>
  <speed>30.619007168750592</speed>
  <fix>3d</fix>
</trkpt>
<trkpt lat="-27.2719211" lon="151.2903313">
  <ele>396.15</ele>
  <time>2026-09-01T19:55:16Z</time>
  <course>82.17</course>
  <speed>29.82</speed>
  <fix>3d</fix>
</trkpt>
<trkpt lat="-27.2719153" lon="151.2904188">
  <ele>395.97</ele>
  <time>2026-09-01T19:55:16Z</time>
  <course>71.56</course>
  <speed>31.02858843067148</speed>
  <fix>3d</fix>
</trkpt>
<trkpt lat="-27.2719211" lon="151.2903313">
  <ele>396.15</ele>
  <time>2026-09-01T19:55:16Z</time>
  <course>82.17</course>
  <speed>29.82</speed>
  <fix>3d</fix>
</trkpt>
<trkpt lat="-27.2719151" lon="151.2904514">
  <ele>395.93</ele>
  <time>2026-09-01T19:55:16Z</time>
  <course>74.55</course>
  <speed>31.434137494132077</speed>
  <fix>3d</fix>
</trkpt>
<trkpt lat="-27.2719157" lon="151.2903922">
  <ele>396.01</ele>
  <time>2026-09-01T19:55:16Z</time>
  <course>86.58</course>
  <speed>30.67</speed>
  <fix>3d</fix>
</trkpt>
<trkpt lat="-27.271916" lon="151.2904831">
  <ele>395.89</ele>
  <time>2026-09-01T19:55:16Z</time>
  <course>77.44</course>
  <speed>31.818713047513405</speed>
  <fix>3d</fix>
</trkpt>
<trkpt lat="-27.2719157" lon="151.2903922">
  <ele>396.01</ele>
  <time>2026-09-01T19:55:16Z</time>
  <course>86.58</course>
  <speed>30.67</speed>
  <fix>3d</fix>
</trkpt>
<trkpt lat="-27.2719181" lon="151.2905154">
  <ele>395.87</ele>
  <time>2026-09-01T19:55:16Z</time>
  <course>80.48</course>
  <speed>32.194797716401325</speed>
  <fix>3d</fix>
</trkpt>
<trkpt lat="-27.2719145" lon="151.290455">
  <ele>395.91</ele>
  <time>2026-09-01T19:55:16Z</time>
  <course>91.04</course>
  <speed>31.47</speed>
  <fix>3d</fix>
</trkpt>
<trkpt lat="-27.2719214" lon="151.2905479">
  <ele>395.86</ele>
  <time>2026-09-01T19:55:16Z</time>
  <course>83.58</course>
  <speed>32.555982553134534</speed>
  <fix>3d</fix>
</trkpt>
<trkpt lat="-27.2719145" lon="151.290455">
  <ele>395.91</ele>
  <time>2026-09-01T19:55:16Z</time>
  <course>91.04</course>
  <speed>31.47</speed>
  <fix>3d</fix>
</trkpt>
<trkpt lat="-27.2719258" lon="151.2905807">
  <ele>395.86</ele>
  <time>2026-09-01T19:55:16Z</time>
  <course>86.75</course>
  <speed>32.92136844057367</speed>
  <fix>3d</fix>
</trkpt>
<trkpt lat="-27.2719178" lon="151.2905192">
  <ele>395.86</ele>
  <time>2026-09-01T19:55:16Z</time>
  <course>95.56</course>
  <speed>32.22</speed>
  <fix>3d</fix>
</trkpt>
<trkpt lat="-27.2719316" lon="151.2906137">
  <ele>395.88</ele>
  <time>2026-09-01T19:55:16Z</time>
  <course>89.94</course>
  <speed>33.26520404266296</speed>
  <fix>3d</fix>
</trkpt>
<trkpt lat="-27.2719178" lon="151.2905192">
  <ele>395.86</ele>
  <time>2026-09-01T19:55:16Z</time>
  <course>95.56</course>
  <speed>32.22</speed>
  <fix>3d</fix>
</trkpt>
<trkpt lat="-27.2719387" lon="151.2906466">
  <ele>395.9</ele>
  <time>2026-09-01T19:55:16Z</time>
  <course>93.16</course>
  <speed>33.57860181722878</speed>
  <fix>3d</fix>
</trkpt>
<trkpt lat="-27.2719258" lon="151.2905844">
  <ele>395.85</ele>
  <time>2026-09-01T19:55:16Z</time>
  <course>100.24</course>
  <speed>32.94</speed>
  <fix>3d</fix>
</trkpt>
<trkpt lat="-27.2719471" lon="151.2906794">
  <ele>395.94</ele>
  <time>2026-09-01T19:55:16Z</time>
  <course>96.39</course>
  <speed>33.889415751824345</speed>
  <fix>3d</fix>
</trkpt>
<trkpt lat="-27.2719258" lon="151.2905844">
  <ele>395.85</ele>
  <time>2026-09-01T19:55:16Z</time>
  <course>100.24</course>
  <speed>32.94</speed>
  <fix>3d</fix>
</trkpt>
<trkpt lat="-27.2719567" lon="151.290712">
  <ele>395.99</ele>
  <time>2026-09-01T19:55:16Z</time>
  <course>99.71</course>
  <speed>34.16249405415243</speed>
  <fix>3d</fix>
</trkpt>
<trkpt lat="-27.2719389" lon="151.2906499">
  <ele>395.88</ele>
  <time>2026-09-01T19:55:16Z</time>
  <course>105.06</course>
  <speed>33.6</speed>
  <fix>3d</fix>
</trkpt>
<trkpt lat="-27.2719677" lon="151.2907443">
  <ele>396.04</ele>
  <time>2026-09-01T19:55:16Z</time>
  <course>103.04</course>
  <speed>34.41983439820709</speed>
  <fix>3d</fix>
</trkpt>
<trkpt lat="-27.2719389" lon="151.2906499">
  <ele>395.88</ele>
  <time>2026-09-01T19:55:16Z</time>
  <course>105.06</course>
  <speed>33.6</speed>
  <fix>3d</fix>
</trkpt>
<trkpt lat="-27.27198" lon="151.2907763">
  <ele>396.11</ele>
  <time>2026-09-01T19:55:16Z</time>
  <course>106.36</course>
  <speed>34.654018525994935</speed>
  <fix>3d</fix>
</trkpt>
<trkpt lat="-27.2719572" lon="151.2907152">
  <ele>395.96</ele>
  <time>2026-09-01T19:55:16Z</time>
  <course>109.94</course>
  <speed>34.18</speed>
  <fix>3d</fix>
</trkpt>
<trkpt lat="-27.2719936" lon="151.2908079">
  <ele>396.18</ele>
  <time>2026-09-01T19:55:16Z</time>
  <course>109.63</course>
  <speed>34.8626232518438</speed>
  <fix>3d</fix>
</trkpt>
<trkpt lat="-27.2719572" lon="151.2907152">
  <ele>395.96</ele>
  <time>2026-09-01T19:55:16Z</time>
  <course>109.94</course>
  <speed>34.18</speed>
  <fix>3d</fix>
</trkpt>
<trkpt lat="-27.2720085" lon="151.290839">
  <ele>396.26</ele>
  <time>2026-09-01T19:55:16Z</time>
  <course>113.04</course>
  <speed>35.055946713788806</speed>
  <fix>3d</fix>
</trkpt>
<trkpt lat="-27.2719809" lon="151.2907796">
  <ele>396.07</ele>
  <time>2026-09-01T19:55:16Z</time>
  <course>114.87</course>
  <speed>34.67</speed>
  <fix>3d</fix>
</trkpt>
<trkpt lat="-27.2720243" lon="151.2908687">
  <ele>396.35</ele>
  <time>2026-09-01T19:55:16Z</time>
  <course>116.44</course>
  <speed>35.21113034254936</speed>
  <fix>3d</fix>
</trkpt>
<trkpt lat="-27.2719809" lon="151.2907796">
  <ele>396.07</ele>
  <time>2026-09-01T19:55:16Z</time>
  <course>114.87</course>
  <speed>34.67</speed>
  <fix>3d</fix>
</trkpt>
<trkpt lat="-27.2720415" lon="151.2908982">
  <ele>396.44</ele>
  <time>2026-09-01T19:55:16Z</time>
  <course>119.84</course>
  <speed>35.35363206234969</speed>
  <fix>3d</fix>
</trkpt>
<trkpt lat="-27.2720097" lon="151.2908421">
  <ele>396.22</ele>
  <time>2026-09-01T19:55:16Z</time>
  <course>119.85</course>
  <speed>35.08</speed>
  <fix>3d</fix>
</trkpt>
<trkpt lat="-27.2720602" lon="151.2909272">
  <ele>396.54</ele>
  <time>2026-09-01T19:55:16Z</time>
  <course>123.3</course>
  <speed>35.46074590304045</speed>
  <fix>3d</fix>
</trkpt>
<trkpt lat="-27.2720097" lon="151.2908421">
  <ele>396.22</ele>
  <time>2026-09-01T19:55:16Z</time>
  <course>119.85</course>
  <speed>35.08</speed>
  <fix>3d</fix>
</trkpt>
<trkpt lat="-27.27208" lon="151.2909553">
  <ele>396.65</ele>
  <time>2026-09-01T19:55:16Z</time>
  <course>126.74</course>
  <speed>35.545604510262585</speed>
  <fix>3d</fix>
</trkpt>
<trkpt lat="-27.2720436" lon="151.2909022">
  <ele>396.39</ele>
  <time>2026-09-01T19:55:16Z</time>
  <course>124.91</course>
  <speed>35.38</speed>
  <fix>3d</fix>
</trkpt>
<trkpt lat="-27.272101" lon="151.2909825">
  <ele>396.75</ele>
  <time>2026-09-01T19:55:16Z</time>
  <course>130.24</course>
  <speed>35.6133303693996</speed>
  <fix>3d</fix>
</trkpt>
<trkpt lat="-27.2720436" lon="151.2909022">
  <ele>396.39</ele>
  <time>2026-09-01T19:55:16Z</time>
  <course>124.91</course>
  <speed>35.38</speed>
  <fix>3d</fix>
</trkpt>
<trkpt lat="-27.2721233" lon="151.2910089">
  <ele>396.86</ele>
  <time>2026-09-01T19:55:16Z</time>
  <course>133.87</course>
  <speed>35.65234915121302</speed>
  <fix>3d</fix>
</trkpt>
<trkpt lat="-27.2720824" lon="151.2909593">
  <ele>396.59</ele>
  <time>2026-09-01T19:55:16Z</time>
  <course>130.02</course>
  <speed>35.59</speed>
  <fix>3d</fix>
</trkpt>
<trkpt lat="-27.2721464" lon="151.2910339">
  <ele>396.98</ele>
  <time>2026-09-01T19:55:16Z</time>
  <course>137.52</course>
  <speed>35.659865395146966</speed>
  <fix>3d</fix>
</trkpt>
<trkpt lat="-27.2720824" lon="151.2909593">
  <ele>396.59</ele>
  <time>2026-09-01T19:55:16Z</time>
  <course>130.02</course>
  <speed>35.59</speed>
  <fix>3d</fix>
</trkpt>
<trkpt lat="-27.2721704" lon="151.2910576">
  <ele>397.1</ele>
  <time>2026-09-01T19:55:16Z</time>
  <course>141.06</course>
  <speed>35.63010524823074</speed>
  <fix>3d</fix>
</trkpt>
<trkpt lat="-27.2721258" lon="151.2910124">
  <ele>396.81</ele>
  <time>2026-09-01T19:55:16Z</time>
  <course>135.18</course>
  <speed>35.68</speed>
  <fix>3d</fix>
</trkpt>
<trkpt lat="-27.2721962" lon="151.2910807">
  <ele>397.24</ele>
  <time>2026-09-01T19:55:16Z</time>
  <course>144.75</course>
  <speed>35.566267726597346</speed>
  <fix>3d</fix>
</trkpt>
<trkpt lat="-27.2721258" lon="151.2910124">
  <ele>396.81</ele>
  <time>2026-09-01T19:55:16Z</time>
  <course>135.18</course>
  <speed>35.68</speed>
  <fix>3d</fix>
</trkpt>
<trkpt lat="-27.2722217" lon="151.2911015">
  <ele>397.38</ele>
  <time>2026-09-01T19:55:16Z</time>
  <course>148.29</course>
  <speed>35.46830979903046</speed>
  <fix>3d</fix>
</trkpt>
<trkpt lat="-27.2721733" lon="151.2910608">
  <ele>397.05</ele>
  <time>2026-09-01T19:55:16Z</time>
  <course>140.42</course>
  <speed>35.66</speed>
  <fix>3d</fix>
</trkpt>
<trkpt lat="-27.2722482" lon="151.2911211">
  <ele>397.51</ele>
  <time>2026-09-01T19:55:16Z</time>
  <course>151.85</course>
  <speed>35.340379171706694</speed>
  <fix>3d</fix>
</trkpt>
<trkpt lat="-27.2721733" lon="151.2910608">
  <ele>397.05</ele>
  <time>2026-09-01T19:55:16Z</time>
  <course>140.42</course>
  <speed>35.66</speed>
  <fix>3d</fix>
</trkpt>
<trkpt lat="-27.2722753" lon="151.2911392">
  <ele>397.65</ele>
  <time>2026-09-01T19:55:16Z</time>
  <course>155.32</course>
  <speed>35.18225120710726</speed>
  <fix>3d</fix>
</trkpt>
<trkpt lat="-27.2722244" lon="151.291104">
  <ele>397.3</ele>
  <time>2026-09-01T19:55:16Z</time>
  <course>145.66</course>
  <speed>35.51</speed>
  <fix>3d</fix>
</trkpt>
<trkpt lat="-27.272303" lon="151.2911558">
  <ele>397.8</ele>
  <time>2026-09-01T19:55:16Z</time>
  <course>158.72</course>
  <speed>34.999144275253364</speed>
  <fix>3d</fix>
</trkpt>
<trkpt lat="-27.2722244" lon="151.291104">
  <ele>397.3</ele>
  <time>2026-09-01T19:55:16Z</time>
  <course>145.66</course>
  <speed>35.51</speed>
  <fix>3d</fix>
</trkpt>
<trkpt lat="-27.2723314" lon="151.2911712">
  <ele>397.94</ele>
  <time>2026-09-01T19:55:16Z</time>
  <course>162.19</course>
  <speed>34.79117416817087</speed>
  <fix>3d</fix>
</trkpt>
<trkpt lat="-27.2722785" lon="151.2911416">
  <ele>397.56</ele>
  <time>2026-09-01T19:55:16Z</time>
  <course>150.87</course>
  <speed>35.25</speed>
  <fix>3d</fix>
</trkpt>
<trkpt lat="-27.27236" lon="151.2911848">
  <ele>398.07</ele>
  <time>2026-09-01T19:55:16Z</time>
  <course>165.65</course>
  <speed>34.55241959689654</speed>
  <fix>3d</fix>
</trkpt>
<trkpt lat="-27.2722785" lon="151.2911416">
  <ele>397.56</ele>
  <time>2026-09-01T19:55:16Z</time>
  <course>150.87</course>
  <speed>35.25</speed>
  <fix>3d</fix>
</trkpt>
<trkpt lat="-27.2723888" lon="151.291197">
  <ele>398.2</ele>
  <time>2026-09-01T19:55:16Z</time>
  <course>169.04</course>
  <speed>34.28772958362802</speed>
  <fix>3d</fix>
</trkpt>
<trkpt lat="-27.2723348" lon="151.2911733">
  <ele>397.81</ele>
  <time>2026-09-01T19:55:16Z</time>
  <course>156.0</course>
  <speed>34.88</speed>
  <fix>3d</fix>
</trkpt>
<trkpt lat="-27.272418" lon="151.2912076">
  <ele>398.33</ele>
  <time>2026-09-01T19:55:16Z</time>
  <course>172.3</course>
  <speed>34.00862390629765</speed>
  <fix>3d</fix>
</trkpt>
<trkpt lat="-27.2723348" lon="151.2911733">
  <ele>397.81</ele>
  <time>2026-09-01T19:55:16Z</time>
  <course>156.0</course>
  <speed>34.88</speed>
  <fix>3d</fix>
</trkpt>
<trkpt lat="-27.2724472" lon="151.2912168">
  <ele>398.45</ele>
  <time>2026-09-01T19:55:16Z</time>
  <course>175.48</course>
  <speed>33.717409449719</speed>
  <fix>3d</fix>
</trkpt>
<trkpt lat="-27.2723927" lon="151.2911988">
  <ele>398.06</ele>
  <time>2026-09-01T19:55:16Z</time>
  <course>161.08</course>
  <speed>34.39</speed>
  <fix>3d</fix>
</trkpt>
<trkpt lat="-27.2724766" lon="151.2912244">
  <ele>398.56</ele>
  <time>2026-09-01T19:55:16Z</time>
  <course>178.66</course>
  <speed>33.40158828558906</speed>
  <fix>3d</fix>
</trkpt>
<trkpt lat="-27.2723927" lon="151.2911988">
  <ele>398.06</ele>
  <time>2026-09-01T19:55:16Z</time>
  <course>161.08</course>
  <speed>34.39</speed>
  <fix>3d</fix>
</trkpt>
<trkpt lat="-27.2725059" lon="151.2912306">
  <ele>398.67</ele>
  <time>2026-09-01T19:55:16Z</time>
  <course>181.84</course>
  <speed>33.07055034316786</speed>
  <fix>3d</fix>
</trkpt>
<trkpt lat="-27.2724515" lon="151.2912183">
  <ele>398.3</ele>
  <time>2026-09-01T19:55:16Z</time>
  <course>166.05</course>
  <speed>33.83</speed>
  <fix>3d</fix>
</trkpt>
<trkpt lat="-27.2725351" lon="151.2912354">
  <ele>398.77</ele>
  <time>2026-09-01T19:55:16Z</time>
  <course>184.94</course>
  <speed>32.71058697119329</speed>
  <fix>3d</fix>
</trkpt>
<trkpt lat="-27.2724515" lon="151.2912183">
  <ele>398.3</ele>
  <time>2026-09-01T19:55:16Z</time>
  <course>166.05</course>
  <speed>33.83</speed>
  <fix>3d</fix>
</trkpt>
<trkpt lat="-27.2725642" lon="151.2912388">
  <ele>398.86</ele>
  <time>2026-09-01T19:55:16Z</time>
  <course>187.89</course>
  <speed>32.3554415825221</speed>
  <fix>3d</fix>
</trkpt>
<trkpt lat="-27.2725104" lon="151.2912318">
  <ele>398.5</ele>
  <time>2026-09-01T19:55:16Z</time>
  <course>170.88</course>
  <speed>33.18</speed>
  <fix>3d</fix>
</trkpt>
<trkpt lat="-27.2725931" lon="151.2912409">
  <ele>398.95</ele>
  <time>2026-09-01T19:55:16Z</time>
  <course>190.79</course>
  <speed>31.987247458948385</speed>
  <fix>3d</fix>
</trkpt>
<trkpt lat="-27.2725104" lon="151.2912318">
  <ele>398.5</ele>
  <time>2026-09-01T19:55:16Z</time>
  <course>170.88</course>
  <speed>33.18</speed>
  <fix>3d</fix>
</trkpt>
<trkpt lat="-27.2726217" lon="151.2912416">
  <ele>399.02</ele>
  <time>2026-09-01T19:55:16Z</time>
  <course>193.62</course>
  <speed>31.600077531550454</speed>
  <fix>3d</fix>
</trkpt>
<trkpt lat="-27.272569" lon="151.2912396">
  <ele>398.68</ele>
  <time>2026-09-01T19:55:16Z</time>
  <course>175.61</course>
  <speed>32.47</speed>
  <fix>3d</fix>
</trkpt>
<trkpt lat="-27.27265" lon="151.2912411">
  <ele>399.08</ele>
  <time>2026-09-01T19:55:16Z</time>
  <course>196.45</course>
  <speed>31.210462989196426</speed>
  <fix>3d</fix>
</trkpt>
<trkpt lat="-27.272569" lon="151.2912396">
  <ele>398.68</ele>
  <time>2026-09-01T19:55:16Z</time>
  <course>175.61</course>
  <speed>32.47</speed>
  <fix>3d</fix>
</trkpt>
<trkpt lat="-27.2726778" lon="151.2912395">
  <ele>399.12</ele>
  <time>2026-09-01T19:55:16Z</time>
  <course>199.11</course>
  <speed>30.81446575879582</speed>
  <fix>3d</fix>
</trkpt>
<trkpt lat="-27.2726267" lon="151.291242">
  <ele>398.82</ele>
  <time>2026-09-01T19:55:16Z</time>
  <course>180.16</course>
  <speed>31.71</speed>
  <fix>3d</fix>
</trkpt>
<trkpt lat="-27.2727053" lon="151.2912367">
  <ele>399.16</ele>
  <time>2026-09-01T19:55:16Z</time>
  <course>201.69</course>
  <speed>30.416155246842095</speed>
  <fix>3d</fix>
</trkpt>
<trkpt lat="-27.2726267" lon="151.291242">
  <ele>398.82</ele>
  <time>2026-09-01T19:55:16Z</time>
  <course>180.16</course>
  <speed>31.71</speed>
  <fix>3d</fix>
</trkpt>
<trkpt lat="-27.2727323" lon="151.2912329">
  <ele>399.18</ele>
  <time>2026-09-01T19:55:16Z</time>
  <course>204.25</course>
  <speed>30.021232486358716</speed>
  <fix>3d</fix>
</trkpt>
<trkpt lat="-27.272683" lon="151.2912394">
  <ele>398.92</ele>
  <time>2026-09-01T19:55:16Z</time>
  <course>184.55</course>
  <speed>30.92</speed>
  <fix>3d</fix>
</trkpt>
<trkpt lat="-27.2727582" lon="151.2912281">
  <ele>399.18</ele>
  <time>2026-09-01T19:55:16Z</time>
  <course>206.66</course>
  <speed>29.63328196470988</speed>
  <fix>3d</fix>
</trkpt>
<trkpt lat="-27.272683" lon="151.2912394">
  <ele>398.92</ele>
  <time>2026-09-01T19:55:16Z</time>
  <course>184.55</course>
  <speed>30.92</speed>
  <fix>3d</fix>
</trkpt>
<trkpt lat="-27.2727851" lon="151.291222">
  <ele>399.16</ele>
  <time>2026-09-01T19:55:16Z</time>
  <course>209.11</course>
  <speed>29.220617721054428</speed>
  <fix>3d</fix>
</trkpt>
<trkpt lat="-27.2727374" lon="151.2912323">
  <ele>398.97</ele>
  <time>2026-09-01T19:55:16Z</time>
  <course>188.74</course>
  <speed>30.11</speed>
  <fix>3d</fix>
</trkpt>
<trkpt lat="-27.2728104" lon="151.2912153">
  <ele>399.14</ele>
  <time>2026-09-01T19:55:16Z</time>
  <course>211.46</course>
  <speed>28.835403586563515</speed>
  <fix>3d</fix>
</trkpt>
<trkpt lat="-27.2727374" lon="151.2912323">
  <ele>398.97</ele>
  <time>2026-09-01T19:55:16Z</time>
  <course>188.74</course>
  <speed>30.11</speed>
  <fix>3d</fix>
</trkpt>
<trkpt lat="-27.2728353" lon="151.2912077">
  <ele>399.09</ele>
  <time>2026-09-01T19:55:16Z</time>
  <course>213.76</course>
  <speed>28.44360385042655</speed>
  <fix>3d</fix>
</trkpt>
<trkpt lat="-27.2727898" lon="151.2912211">
  <ele>398.96</ele>
  <time>2026-09-01T19:55:16Z</time>
  <course>192.75</course>
  <speed>29.3</speed>
  <fix>3d</fix>
</trkpt>
<trkpt lat="-27.2728597" lon="151.2911992">
  <ele>399.03</ele>
  <time>2026-09-01T19:55:16Z</time>
  <course>216.03</course>
  <speed>28.043455564534124</speed>
  <fix>3d</fix>
</trkpt>
<trkpt lat="-27.2727898" lon="151.2912211">
  <ele>398.96</ele>
  <time>2026-09-01T19:55:16Z</time>
  <course>192.75</course>
  <speed>29.3</speed>
  <fix>3d</fix>
</trkpt>
<trkpt lat="-27.2728835" lon="151.29119">
  <ele>398.95</ele>
  <time>2026-09-01T19:55:16Z</time>
  <course>218.25</course>
  <speed>27.661543702403883</speed>
  <fix>3d</fix>
</trkpt>
<trkpt lat="-27.27284" lon="151.2912063">
  <ele>398.89</ele>
  <time>2026-09-01T19:55:16Z</time>
  <course>196.62</course>
  <speed>28.49</speed>
  <fix>3d</fix>
</trkpt>
<trkpt lat="-27.2729068" lon="151.29118">
  <ele>398.85</ele>
  <time>2026-09-01T19:55:16Z</time>
  <course>220.43</course>
  <speed>27.267542976953386</speed>
  <fix>3d</fix>
</trkpt>
<trkpt lat="-27.27284" lon="151.2912063">
  <ele>398.89</ele>
  <time>2026-09-01T19:55:16Z</time>
  <course>196.62</course>
  <speed>28.49</speed>
  <fix>3d</fix>
</trkpt>
<trkpt lat="-27.2729293" lon="151.2911693">
  <ele>398.74</ele>
  <time>2026-09-01T19:55:16Z</time>
  <course>222.57</course>
  <speed>26.87840955116206</speed>
  <fix>3d</fix>
</trkpt>
<trkpt lat="-27.2728878" lon="151.2911882">
  <ele>398.75</ele>
  <time>2026-09-01T19:55:16Z</time>
  <course>200.42</course>
  <speed>27.69</speed>
  <fix>3d</fix>
</trkpt>
<trkpt lat="-27.2729512" lon="151.2911579">
  <ele>398.61</ele>
  <time>2026-09-01T19:55:16Z</time>
  <course>224.7</course>
  <speed>26.49648467249948</speed>
  <fix>3d</fix>
</trkpt>
<trkpt lat="-27.2728878" lon="151.2911882">
  <ele>398.75</ele>
  <time>2026-09-01T19:55:16Z</time>
  <course>200.42</course>
  <speed>27.69</speed>
  <fix>3d</fix>
</trkpt>
<trkpt lat="-27.2729725" lon="151.291146">
  <ele>398.46</ele>
  <time>2026-09-01T19:55:16Z</time>
  <course>226.9</course>
  <speed>26.121102580097954</speed>
  <fix>3d</fix>
</trkpt>
<trkpt lat="-27.2729332" lon="151.2911673">
  <ele>398.55</ele>
  <time>2026-09-01T19:55:16Z</time>
  <course>204.18</course>
  <speed>26.9</speed>
  <fix>3d</fix>
</trkpt>
<trkpt lat="-27.2729931" lon="151.2911334">
  <ele>398.31</ele>
  <time>2026-09-01T19:55:16Z</time>
  <course>229.05</course>
  <speed>25.738758711328718</speed>
  <fix>3d</fix>
</trkpt>
<trkpt lat="-27.2729332" lon="151.2911673">
  <ele>398.55</ele>
  <time>2026-09-01T19:55:16Z</time>
  <course>204.18</course>
  <speed>26.9</speed>
  <fix>3d</fix>
</trkpt>
<trkpt lat="-27.273013" lon="151.2911202">
  <ele>398.13</ele>
  <time>2026-09-01T19:55:16Z</time>
  <course>231.21</course>
  <speed>25.367122422537406</speed>
  <fix>3d</fix>
</trkpt>
<trkpt lat="-27.2729759" lon="151.2911438">
  <ele>398.3</ele>
  <time>2026-09-01T19:55:16Z</time>
  <course>207.95</course>
  <speed>26.12</speed>
  <fix>3d</fix>
</trkpt>
<trkpt lat="-27.2730322" lon="151.2911065">
  <ele>397.95</ele>
  <time>2026-09-01T19:55:16Z</time>
  <course>233.38</course>
  <speed>24.989541812526294</speed>
  <fix>3d</fix>
</trkpt>
<trkpt lat="-27.2729759" lon="151.2911438">
  <ele>398.3</ele>
  <time>2026-09-01T19:55:16Z</time>
  <course>207.95</course>
  <speed>26.12</speed>
  <fix>3d</fix>
</trkpt>
<trkpt lat="-27.2730506" lon="151.2910922">
  <ele>397.76</ele>
  <time>2026-09-01T19:55:16Z</time>
  <course>235.56</course>
  <speed>24.60966070469075</speed>
  <fix>3d</fix>
</trkpt>
<trkpt lat="-27.273016" lon="151.2911179">
  <ele>397.99</ele>
  <time>2026-09-01T19:55:16Z</time>
  <course>211.84</course>
  <speed>25.34</speed>
  <fix>3d</fix>
</trkpt>
<trkpt lat="-27.2730683" lon="151.2910774">
  <ele>397.56</ele>
  <time>2026-09-01T19:55:16Z</time>
  <course>237.75</course>
  <speed>24.24335166597226</speed>
  <fix>3d</fix>
</trkpt>
<trkpt lat="-27.273016" lon="151.2911179">
  <ele>397.99</ele>
  <time>2026-09-01T19:55:16Z</time>
  <course>211.84</course>
  <speed>25.34</speed>
  <fix>3d</fix>
</trkpt>
<trkpt lat="-27.2730853" lon="151.2910622">
  <ele>397.35</ele>
  <time>2026-09-01T19:55:16Z</time>
  <course>239.95</course>
  <speed>23.880372693909113</speed>
  <fix>3d</fix>
</trkpt>
<trkpt lat="-27.2730533" lon="151.2910898">
  <ele>397.63</ele>
  <time>2026-09-01T19:55:16Z</time>
  <course>215.85</course>
  <speed>24.58</speed>
  <fix>3d</fix>
</trkpt>
<trkpt lat="-27.2731015" lon="151.2910465">
  <ele>397.15</ele>
  <time>2026-09-01T19:55:16Z</time>
  <course>242.09</course>
  <speed>23.515169572001813</speed>
  <fix>3d</fix>
</trkpt>
<trkpt lat="-27.2730533" lon="151.2910898">
  <ele>397.63</ele>
  <time>2026-09-01T19:55:16Z</time>
  <course>215.85</course>
  <speed>24.58</speed>
  <fix>3d</fix>
</trkpt>
<trkpt lat="-27.273117" lon="151.2910304">
  <ele>396.93</ele>
  <time>2026-09-01T19:55:16Z</time>
  <course>244.21</course>
  <speed>23.16259268734828</speed>
  <fix>3d</fix>
</trkpt>
<trkpt lat="-27.2730875" lon="151.2910597">
  <ele>397.24</ele>
  <time>2026-09-01T19:55:16Z</time>
  <course>219.99</course>
  <speed>23.83</speed>
  <fix>3d</fix>
</trkpt>
<trkpt lat="-27.2731316" lon="151.2910139">
  <ele>396.71</ele>
  <time>2026-09-01T19:55:16Z</time>
  <course>246.35</course>
  <speed>22.807755259998736</speed>
  <fix>3d</fix>
</trkpt>
<trkpt lat="-27.2730875" lon="151.2910597">
  <ele>397.24</ele>
  <time>2026-09-01T19:55:16Z</time>
  <course>219.99</course>
  <speed>23.83</speed>
  <fix>3d</fix>
</trkpt>
<trkpt lat="-27.2731455" lon="151.290997">
  <ele>396.5</ele>
  <time>2026-09-01T19:55:16Z</time>
  <course>248.44</course>
  <speed>22.464714554162487</speed>
  <fix>3d</fix>
</trkpt>
<trkpt lat="-27.2731188" lon="151.2910279">
  <ele>396.83</ele>
  <time>2026-09-01T19:55:16Z</time>
  <course>224.26</course>
  <speed>23.1</speed>
  <fix>3d</fix>
</trkpt>
<trkpt lat="-27.2731585" lon="151.2909799">
  <ele>396.28</ele>
  <time>2026-09-01T19:55:16Z</time>
  <course>250.51</course>
  <speed>22.124929378418365</speed>
  <fix>3d</fix>
</trkpt>
<trkpt lat="-27.2731188" lon="151.2910279">
  <ele>396.83</ele>
  <time>2026-09-01T19:55:16Z</time>
  <course>224.26</course>
  <speed>23.1</speed>
  <fix>3d</fix>
</trkpt>
<trkpt lat="-27.2731708" lon="151.2909624">
  <ele>396.06</ele>
  <time>2026-09-01T19:55:16Z</time>
  <course>252.55</course>
  <speed>21.79484572094971</speed>
  <fix>3d</fix>
</trkpt>
<trkpt lat="-27.273147" lon="151.2909945">
  <ele>396.41</ele>
  <time>2026-09-01T19:55:16Z</time>
  <course>228.65</course>
  <speed>22.39</speed>
  <fix>3d</fix>
</trkpt>
<trkpt lat="-27.2731823" lon="151.2909447">
  <ele>395.85</ele>
  <time>2026-09-01T19:55:16Z</time>
  <course>254.62</course>
  <speed>21.479536773403655</speed>
  <fix>3d</fix>
</trkpt>
<trkpt lat="-27.273147" lon="151.2909945">
  <ele>396.41</ele>
  <time>2026-09-01T19:55:16Z</time>
  <course>228.65</course>
  <speed>22.39</speed>
  <fix>3d</fix>
</trkpt>
<trkpt lat="-27.273193" lon="151.2909268">
  <ele>395.64</ele>
  <time>2026-09-01T19:55:16Z</time>
  <course>256.61</course>
  <speed>21.171986208195015</speed>
  <fix>3d</fix>
</trkpt>
<trkpt lat="-27.273172" lon="151.29096">
  <ele>395.99</ele>
  <time>2026-09-01T19:55:16Z</time>
  <course>233.08</course>
  <speed>21.72</speed>
  <fix>3d</fix>
</trkpt>
<trkpt lat="-27.2732029" lon="151.2909087">
  <ele>395.43</ele>
  <time>2026-09-01T19:55:16Z</time>
  <course>258.46</course>
  <speed>20.87836200471675</speed>
  <fix>3d</fix>
</trkpt>
<trkpt lat="-27.273172" lon="151.29096">
  <ele>395.99</ele>
  <time>2026-09-01T19:55:16Z</time>
  <course>233.08</course>
  <speed>21.72</speed>
  <fix>3d</fix>
</trkpt>
<trkpt lat="-27.2732121" lon="151.2908904">
  <ele>395.22</ele>
  <time>2026-09-01T19:55:16Z</time>
  <course>260.29</course>
  <speed>20.603417192300896</speed>
  <fix>3d</fix>
</trkpt>
<trkpt lat="-27.2731939" lon="151.2909245">
  <ele>395.58</ele>
  <time>2026-09-01T19:55:16Z</time>
  <course>237.5</course>
  <speed>21.09</speed>
  <fix>3d</fix>
</trkpt>
<trkpt lat="-27.2732206" lon="151.2908721">
  <ele>395.02</ele>
  <time>2026-09-01T19:55:16Z</time>
  <course>262.1</course>
  <speed>20.334802679150833</speed>
  <fix>3d</fix>
</trkpt>
<trkpt lat="-27.2731939" lon="151.2909245">
  <ele>395.58</ele>
  <time>2026-09-01T19:55:16Z</time>
  <course>237.5</course>
  <speed>21.09</speed>
  <fix>3d</fix>
</trkpt>
<trkpt lat="-27.2732284" lon="151.2908534">
  <ele>394.82</ele>
  <time>2026-09-01T19:55:16Z</time>
  <course>263.84</course>
  <speed>20.08020169221415</speed>
  <fix>3d</fix>
</trkpt>
<trkpt lat="-27.2732127" lon="151.2908882">
  <ele>395.18</ele>
  <time>2026-09-01T19:55:16Z</time>
  <course>241.82</course>
  <speed>20.51</speed>
  <fix>3d</fix>
</trkpt>
<trkpt lat="-27.2732355" lon="151.2908349">
  <ele>394.63</ele>
  <time>2026-09-01T19:55:16Z</time>
  <course>265.51</course>
  <speed>19.850123425308972</speed>
  <fix>3d</fix>
</trkpt>
<trkpt lat="-27.2732127" lon="151.2908882">
  <ele>395.18</ele>
  <time>2026-09-01T19:55:16Z</time>
  <course>241.82</course>
  <speed>20.51</speed>
  <fix>3d</fix>
</trkpt>
<trkpt lat="-27.2732419" lon="151.2908163">
  <ele>394.45</ele>
  <time>2026-09-01T19:55:16Z</time>
  <course>267.13</course>
  <speed>19.624336931473632</speed>
  <fix>3d</fix>
</trkpt>
<trkpt lat="-27.2732288" lon="151.2908514">
  <ele>394.79</ele>
  <time>2026-09-01T19:55:16Z</time>
  <course>246.01</course>
  <speed>20.0</speed>
  <fix>3d</fix>
</trkpt>
<trkpt lat="-27.2732477" lon="151.2907976">
  <ele>394.27</ele>
  <time>2026-09-01T19:55:16Z</time>
  <course>268.69</course>
  <speed>19.4132351760339</speed>
  <fix>3d</fix>
</trkpt>
<trkpt lat="-27.2732288" lon="151.2908514">
  <ele>394.79</ele>
  <time>2026-09-01T19:55:16Z</time>
  <course>246.01</course>
  <speed>20.0</speed>
  <fix>3d</fix>
</trkpt>
<trkpt lat="-27.2732529" lon="151.290779">
  <ele>394.09</ele>
  <time>2026-09-01T19:55:16Z</time>
  <course>270.13</course>
  <speed>19.226453131037978</speed>
  <fix>3d</fix>
</trkpt>
<trkpt lat="-27.273242" lon="151.2908144">
  <ele>394.43</ele>
  <time>2026-09-01T19:55:16Z</time>
  <course>250.03</course>
  <speed>19.53</speed>
  <fix>3d</fix>
</trkpt>
<trkpt lat="-27.2732575" lon="151.2907603">
  <ele>393.92</ele>
  <time>2026-09-01T19:55:16Z</time>
  <course>271.58</course>
  <speed>19.05093436028795</speed>
  <fix>3d</fix>
</trkpt>
<trkpt lat="-27.273242" lon="151.2908144">
  <ele>394.43</ele>
  <time>2026-09-01T19:55:16Z</time>
  <course>250.03</course>
  <speed>19.53</speed>
  <fix>3d</fix>
</trkpt>
<trkpt lat="-27.2732616" lon="151.2907417">
  <ele>393.76</ele>
  <time>2026-09-01T19:55:16Z</time>
  <course>273.0</course>
  <speed>18.88375492321376</speed>
  <fix>3d</fix>
</trkpt>
<trkpt lat="-27.2732528" lon="151.2907773">
  <ele>394.08</ele>
  <time>2026-09-01T19:55:16Z</time>
  <course>253.8</course>
  <speed>19.14</speed>
  <fix>3d</fix>
</trkpt>
<trkpt lat="-27.2732651" lon="151.2907231">
  <ele>393.6</ele>
  <time>2026-09-01T19:55:16Z</time>
  <course>274.33</course>
  <speed>18.729111030692298</speed>
  <fix>3d</fix>
</trkpt>
<trkpt lat="-27.2732528" lon="151.2907773">
  <ele>394.08</ele>
  <time>2026-09-01T19:55:16Z</time>
  <course>253.8</course>
  <speed>19.14</speed>
  <fix>3d</fix>
</trkpt>
<trkpt lat="-27.2732681" lon="151.2907046">
  <ele>393.44</ele>
  <time>2026-09-01T19:55:16Z</time>
  <course>275.55</course>
  <speed>18.588838048678568</speed>
  <fix>3d</fix>
</trkpt>
<trkpt lat="-27.2732612" lon="151.2907402">
  <ele>393.75</ele>
  <time>2026-09-01T19:55:16Z</time>
  <course>257.37</course>
  <speed>18.79</speed>
  <fix>3d</fix>
</trkpt>
<trkpt lat="-27.2732706" lon="151.2906861">
  <ele>393.29</ele>
  <time>2026-09-01T19:55:16Z</time>
  <course>276.77</course>
  <speed>18.456903857364594</speed>
  <fix>3d</fix>
</trkpt>
<trkpt lat="-27.2732612" lon="151.2907402">
  <ele>393.75</ele>
  <time>2026-09-01T19:55:16Z</time>
  <course>257.37</course>
  <speed>18.79</speed>
  <fix>3d</fix>
</trkpt>
<trkpt lat="-27.2732726" lon="151.2906677">
  <ele>393.15</ele>
  <time>2026-09-01T19:55:16Z</time>
  <course>277.96</course>
  <speed>18.332989390713127</speed>
  <fix>3d</fix>
</trkpt>
<trkpt lat="-27.2732675" lon="151.2907032">
  <ele>393.45</ele>
  <time>2026-09-01T19:55:16Z</time>
  <course>260.75</course>
  <speed>18.49</speed>
  <fix>3d</fix>
</trkpt>
<trkpt lat="-27.2732742" lon="151.2906494">
  <ele>393.0</ele>
  <time>2026-09-01T19:55:16Z</time>
  <course>279.14</course>
  <speed>18.223045848595124</speed>
  <fix>3d</fix>
</trkpt>
<trkpt lat="-27.2732675" lon="151.2907032">
  <ele>393.45</ele>
  <time>2026-09-01T19:55:16Z</time>
  <course>260.75</course>
  <speed>18.49</speed>
  <fix>3d</fix>
</trkpt>
<trkpt lat="-27.2732754" lon="151.2906312">
  <ele>392.87</ele>
  <time>2026-09-01T19:55:16Z</time>
  <course>280.24</course>
  <speed>18.10719470265894</speed>
  <fix>3d</fix>
</trkpt>
<trkpt lat="-27.2732719" lon="151.2906664">
  <ele>393.15</ele>
  <time>2026-09-01T19:55:16Z</time>
  <course>263.88</course>
  <speed>18.24</speed>
  <fix>3d</fix>
</trkpt>
<trkpt lat="-27.2732761" lon="151.2906131">
  <ele>392.74</ele>
  <time>2026-09-01T19:55:17Z</time>
  <course>281.34</course>
  <speed>18.013605968822567</speed>
  <fix>3d</fix>
</trkpt>
<trkpt lat="-27.2732719" lon="151.2906664">
  <ele>393.15</ele>
  <time>2026-09-01T19:55:17Z</time>
  <course>263.88</course>
  <speed>18.24</speed>
  <fix>3d</fix>
</trkpt>
<trkpt lat="-27.2732764" lon="151.2905951">
  <ele>392.62</ele>
  <time>2026-09-01T19:55:17Z</time>
  <course>282.44</course>
  <speed>17.9117447503028</speed>
  <fix>3d</fix>
</trkpt>
<trkpt lat="-27.2732746" lon="151.2906298">
  <ele>392.89</ele>
  <time>2026-09-01T19:55:17Z</time>
  <course>266.86</course>
  <speed>18.03</speed>
  <fix>3d</fix>
</trkpt>
<trkpt lat="-27.2732764" lon="151.2905772">
  <ele>392.51</ele>
  <time>2026-09-01T19:55:17Z</time>
  <course>283.44</course>
  <speed>17.830717876742934</speed>
  <fix>3d</fix>
</trkpt>
<trkpt lat="-27.2732746" lon="151.2906298">
  <ele>392.89</ele>
  <time>2026-09-01T19:55:17Z</time>
  <course>266.86</course>
  <speed>18.03</speed>
  <fix>3d</fix>
</trkpt>
<trkpt lat="-27.2732759" lon="151.2905593">
  <ele>392.4</ele>
  <time>2026-09-01T19:55:17Z</time>
  <course>284.43</course>
  <speed>17.749478865589264</speed>
  <fix>3d</fix>
</trkpt>
<trkpt lat="-27.2732755" lon="151.2905935">
  <ele>392.64</ele>
  <time>2026-09-01T19:55:17Z</time>
  <course>269.7</course>
  <speed>17.84</speed>
  <fix>3d</fix>
</trkpt>
<trkpt lat="-27.2732752" lon="151.2905416">
  <ele>392.3</ele>
  <time>2026-09-01T19:55:17Z</time>
  <course>285.38</course>
  <speed>17.67718586200869</speed>
  <fix>3d</fix>
</trkpt>
<trkpt lat="-27.2732755" lon="151.2905935">
  <ele>392.64</ele>
  <time>2026-09-01T19:55:17Z</time>
  <course>269.7</course>
  <speed>17.84</speed>
  <fix>3d</fix>
</trkpt>
<trkpt lat="-27.273274" lon="151.2905239">
  <ele>392.21</ele>
  <time>2026-09-01T19:55:17Z</time>
  <course>286.22</course>
  <speed>17.602616282814324</speed>
  <fix>3d</fix>
</trkpt>
<trkpt lat="-27.2732749" lon="151.2905576">
  <ele>392.43</ele>
  <time>2026-09-01T19:55:17Z</time>
  <course>272.39</course>
  <speed>17.68</speed>
  <fix>3d</fix>
</trkpt>
<trkpt lat="-27.2732726" lon="151.2905063">
  <ele>392.12</ele>
  <time>2026-09-01T19:55:17Z</time>
  <course>287.15</course>
  <speed>17.5355467550915</speed>
  <fix>3d</fix>
</trkpt>
<trkpt lat="-27.2732749" lon="151.2905576">
  <ele>392.43</ele>
  <time>2026-09-01T19:55:17Z</time>
  <course>272.39</course>
  <speed>17.68</speed>
  <fix>3d</fix>
</trkpt>
<trkpt lat="-27.2732707" lon="151.2904888">
  <ele>392.05</ele>
  <time>2026-09-01T19:55:17Z</time>
  <course>287.99</course>
  <speed>17.475428463989086</speed>
  <fix>3d</fix>
</trkpt>
<trkpt lat="-27.2732729" lon="151.2905221">
  <ele>392.25</ele>
  <time>2026-09-01T19:55:17Z</time>
  <course>274.94</course>
  <speed>17.55</speed>
  <fix>3d</fix>
</trkpt>
<trkpt lat="-27.2732686" lon="151.2904716">
  <ele>391.98</ele>
  <time>2026-09-01T19:55:17Z</time>
  <course>288.81</course>
  <speed>17.420315726185905</speed>
  <fix>3d</fix>
</trkpt>
<trkpt lat="-27.2732729" lon="151.2905221">
  <ele>392.25</ele>
  <time>2026-09-01T19:55:17Z</time>
  <course>274.94</course>
  <speed>17.55</speed>
  <fix>3d</fix>
</trkpt>
<trkpt lat="-27.2732662" lon="151.2904543">
  <ele>391.92</ele>
  <time>2026-09-01T19:55:17Z</time>
  <course>289.62</course>
  <speed>17.37066780523996</speed>
  <fix>3d</fix>
</trkpt>
<trkpt lat="-27.2732697" lon="151.2904869">
  <ele>392.1</ele>
  <time>2026-09-01T19:55:17Z</time>
  <course>277.34</course>
  <speed>17.43</speed>
  <fix>3d</fix>
</trkpt>
<trkpt lat="-27.2732635" lon="151.2904371">
  <ele>391.87</ele>
  <time>2026-09-01T19:55:17Z</time>
  <course>290.47</course>
  <speed>17.325960290846798</speed>
  <fix>3d</fix>
</trkpt>
<trkpt lat="-27.2732697" lon="151.2904869">
  <ele>392.1</ele>
  <time>2026-09-01T19:55:17Z</time>
  <course>277.34</course>
  <speed>17.43</speed>
  <fix>3d</fix>
</trkpt>
<trkpt lat="-27.2732605" lon="151.2904201">
  <ele>391.83</ele>
  <time>2026-09-01T19:55:17Z</time>
  <course>291.25</course>
  <speed>17.277835512586638</speed>
  <fix>3d</fix>
</trkpt>
<trkpt lat="-27.273265" lon="151.2904522">
  <ele>391.97</ele>
  <time>2026-09-01T19:55:17Z</time>
  <course>279.61</course>
  <speed>17.33</speed>
  <fix>3d</fix>
</trkpt>
<trkpt lat="-27.2732572" lon="151.2904029">
  <ele>391.79</ele>
  <time>2026-09-01T19:55:17Z</time>
  <course>292.01</course>
  <speed>17.226456397065533</speed>
  <fix>3d</fix>
</trkpt>
<trkpt lat="-27.273265" lon="151.2904522">
  <ele>391.97</ele>
  <time>2026-09-01T19:55:17Z</time>
  <course>279.61</course>
  <speed>17.33</speed>
  <fix>3d</fix>
</trkpt>
<trkpt lat="-27.2732537" lon="151.2903861">
  <ele>391.76</ele>
  <time>2026-09-01T19:55:17Z</time>
  <course>292.76</course>
  <speed>17.17937426101428</speed>
  <fix>3d</fix>
</trkpt>
<trkpt lat="-27.2732593" lon="151.2904179">
  <ele>391.89</ele>
  <time>2026-09-01T19:55:17Z</time>
  <course>281.8</course>
  <speed>17.24</speed>
  <fix>3d</fix>
</trkpt>
<trkpt lat="-27.2732498" lon="151.2903694">
  <ele>391.74</ele>
  <time>2026-09-01T19:55:17Z</time>
  <course>293.43</course>
  <speed>17.13861137898867</speed>
  <fix>3d</fix>
</trkpt>
<trkpt lat="-27.2732593" lon="151.2904179">
  <ele>391.89</ele>
  <time>2026-09-01T19:55:17Z</time>
  <course>281.8</course>
  <speed>17.24</speed>
  <fix>3d</fix>
</trkpt>
<trkpt lat="-27.2732457" lon="151.2903526">
  <ele>391.73</ele>
  <time>2026-09-01T19:55:17Z</time>
  <course>294.14</course>
  <speed>17.098786506650114</speed>
  <fix>3d</fix>
</trkpt>
<trkpt lat="-27.2732523" lon="151.290384">
  <ele>391.83</ele>
  <time>2026-09-01T19:55:17Z</time>
  <course>283.96</course>
  <speed>17.15</speed>
  <fix>3d</fix>
</trkpt>
<trkpt lat="-27.2732413" lon="151.2903361">
  <ele>391.72</ele>
  <time>2026-09-01T19:55:17Z</time>
  <course>294.79</course>
  <speed>17.05888624734921</speed>
  <fix>3d</fix>
</trkpt>
<trkpt lat="-27.2732523" lon="151.290384">
  <ele>391.83</ele>
  <time>2026-09-01T19:55:17Z</time>
  <course>283.96</course>
  <speed>17.15</speed>
  <fix>3d</fix>
</trkpt>
<trkpt lat="-27.2732367" lon="151.2903197">
  <ele>391.72</ele>
  <time>2026-09-01T19:55:17Z</time>
  <course>295.49</course>
  <speed>17.01753507415219</speed>
  <fix>3d</fix>
</trkpt>
<trkpt lat="-27.2732444" lon="151.2903506">
  <ele>391.8</ele>
  <time>2026-09-01T19:55:17Z</time>
  <course>286.05</course>
  <speed>17.07</speed>
  <fix>3d</fix>
</trkpt>
<trkpt lat="-27.2732319" lon="151.2903035">
  <ele>391.72</ele>
  <time>2026-09-01T19:55:17Z</time>
  <course>296.2</course>
  <speed>16.991165351440728</speed>
  <fix>3d</fix>
</trkpt>
<trkpt lat="-27.2732444" lon="151.2903506">
  <ele>391.8</ele>
  <time>2026-09-01T19:55:17Z</time>
  <course>286.05</course>
  <speed>17.07</speed>
  <fix>3d</fix>
</trkpt>
<trkpt lat="-27.2732268" lon="151.2902873">
  <ele>391.72</ele>
  <time>2026-09-01T19:55:17Z</time>
  <course>296.9</course>
  <speed>16.95743199897909</speed>
  <fix>3d</fix>
</trkpt>
<trkpt lat="-27.2732354" lon="151.2903177">
  <ele>391.79</ele>
  <time>2026-09-01T19:55:17Z</time>
  <course>288.06</course>
  <speed>17.0</speed>
  <fix>3d</fix>
</trkpt>
<trkpt lat="-27.2732215" lon="151.2902713">
  <ele>391.73</ele>
  <time>2026-09-01T19:55:17Z</time>
  <course>297.58</course>
  <speed>16.910236544767788</speed>
  <fix>3d</fix>
</trkpt>
<trkpt lat="-27.2732354" lon="151.2903177">
  <ele>391.79</ele>
  <time>2026-09-01T19:55:17Z</time>
  <course>288.06</course>
  <speed>17.0</speed>
  <fix>3d</fix>
</trkpt>
<trkpt lat="-27.2732159" lon="151.2902554">
  <ele>391.75</ele>
  <time>2026-09-01T19:55:17Z</time>
  <course>298.3</course>
  <speed>16.881566870406314</speed>
  <fix>3d</fix>
</trkpt>
<trkpt lat="-27.2732254" lon="151.2902852">
  <ele>391.8</ele>
  <time>2026-09-01T19:55:17Z</time>
  <course>290.06</course>
  <speed>16.93</speed>
  <fix>3d</fix>
</trkpt>
<trkpt lat="-27.2732101" lon="151.2902397">
  <ele>391.77</ele>
  <time>2026-09-01T19:55:17Z</time>
  <course>298.96</course>
  <speed>16.841674501070255</speed>
  <fix>3d</fix>
</trkpt>
<trkpt lat="-27.2732254" lon="151.2902852">
  <ele>391.8</ele>
  <time>2026-09-01T19:55:17Z</time>
  <course>290.06</course>
  <speed>16.93</speed>
  <fix>3d</fix>
</trkpt>
<trkpt lat="-27.273204" lon="151.2902241">
  <ele>391.8</ele>
  <time>2026-09-01T19:55:17Z</time>
  <course>299.57</course>
  <speed>16.80704911636781</speed>
  <fix>3d</fix>
</trkpt>
<trkpt lat="-27.2732145" lon="151.2902533">
  <ele>391.83</ele>
  <time>2026-09-01T19:55:17Z</time>
  <course>292.08</course>
  <speed>16.86</speed>
  <fix>3d</fix>
</trkpt>
<trkpt lat="-27.2731978" lon="151.2902087">
  <ele>391.83</ele>
  <time>2026-09-01T19:55:17Z</time>
  <course>300.22</course>
  <speed>16.772864990811797</speed>
  <fix>3d</fix>
</trkpt>
<trkpt lat="-27.2732145" lon="151.2902533">
  <ele>391.83</ele>
  <time>2026-09-01T19:55:17Z</time>
  <course>292.08</course>
  <speed>16.86</speed>
  <fix>3d</fix>
</trkpt>
<trkpt lat="-27.2731912" lon="151.2901934">
  <ele>391.86</ele>
  <time>2026-09-01T19:55:17Z</time>
  <course>300.86</course>
  <speed>16.74449461763478</speed>
  <fix>3d</fix>
</trkpt>
<trkpt lat="-27.2732026" lon="151.290222">
  <ele>391.88</ele>
  <time>2026-09-01T19:55:17Z</time>
  <course>294.11</course>
  <speed>16.79</speed>
  <fix>3d</fix>
</trkpt>
<trkpt lat="-27.2731845" lon="151.2901783">
  <ele>391.9</ele>
  <time>2026-09-01T19:55:17Z</time>
  <course>301.53</course>
  <speed>16.7128752762653</speed>
  <fix>3d</fix>
</trkpt>
<trkpt lat="-27.2732026" lon="151.290222">
  <ele>391.88</ele>
  <time>2026-09-01T19:55:17Z</time>
  <course>294.11</course>
  <speed>16.79</speed>
  <fix>3d</fix>
</trkpt>
<trkpt lat="-27.2731775" lon="151.2901633">
  <ele>391.94</ele>
  <time>2026-09-01T19:55:17Z</time>
  <course>302.3</course>
  <speed>16.682352951547333</speed>
  <fix>3d</fix>
</trkpt>
<trkpt lat="-27.2731899" lon="151.2901914">
  <ele>391.94</ele>
  <time>2026-09-01T19:55:17Z</time>
  <course>296.17</course>
  <speed>16.72</speed>
  <fix>3d</fix>
</trkpt>
<trkpt lat="-27.2731704" lon="151.2901487">
  <ele>391.99</ele>
  <time>2026-09-01T19:55:17Z</time>
  <course>302.92</course>
  <speed>16.648834794062918</speed>
  <fix>3d</fix>
</trkpt>
<trkpt lat="-27.2731899" lon="151.2901914">
  <ele>391.94</ele>
  <time>2026-09-01T19:55:17Z</time>
  <course>296.17</course>
  <speed>16.72</speed>
  <fix>3d</fix>
</trkpt>
<trkpt lat="-27.2731629" lon="151.2901341">
  <ele>392.03</ele>
  <time>2026-09-01T19:55:17Z</time>
  <course>303.57</course>
  <speed>16.616233026772342</speed>
  <fix>3d</fix>
</trkpt>
<trkpt lat="-27.2731762" lon="151.2901614">
  <ele>392.02</ele>
  <time>2026-09-01T19:55:17Z</time>
  <course>298.25</course>
  <speed>16.66</speed>
  <fix>3d</fix>
</trkpt>
<trkpt lat="-27.2731553" lon="151.2901197">
  <ele>392.08</ele>
  <time>2026-09-01T19:55:17Z</time>
  <course>304.28</course>
  <speed>16.589288712901467</speed>
  <fix>3d</fix>
</trkpt>
<trkpt lat="-27.2731762" lon="151.2901614">
  <ele>392.02</ele>
  <time>2026-09-01T19:55:17Z</time>
  <course>298.25</course>
  <speed>16.66</speed>
  <fix>3d</fix>
</trkpt>
<trkpt lat="-27.2731474" lon="151.2901055">
  <ele>392.14</ele>
  <time>2026-09-01T19:55:17Z</time>
  <course>304.99</course>
  <speed>16.5595803086914</speed>
  <fix>3d</fix>
</trkpt>
<trkpt lat="-27.2731615" lon="151.2901321">
  <ele>392.12</ele>
  <time>2026-09-01T19:55:17Z</time>
  <course>300.36</course>
  <speed>16.59</speed>
  <fix>3d</fix>
</trkpt>
<trkpt lat="-27.2731393" lon="151.2900915">
  <ele>392.19</ele>
  <time>2026-09-01T19:55:17Z</time>
  <course>305.74</course>
  <speed>16.532951944525816</speed>
  <fix>3d</fix>
</trkpt>
<trkpt lat="-27.2731615" lon="151.2901321">
  <ele>392.12</ele>
  <time>2026-09-01T19:55:17Z</time>
  <course>300.36</course>
  <speed>16.59</speed>
  <fix>3d</fix>
</trkpt>
<trkpt lat="-27.2731309" lon="151.2900775">
  <ele>392.24</ele>
  <time>2026-09-01T19:55:17Z</time>
  <course>306.44</course>
  <speed>16.50456906435306</speed>
  <fix>3d</fix>
</trkpt>
<trkpt lat="-27.273146" lon="151.2901034">
  <ele>392.22</ele>
  <time>2026-09-01T19:55:17Z</time>
  <course>302.49</course>
  <speed>16.53</speed>
  <fix>3d</fix>
</trkpt>
<trkpt lat="-27.2731224" lon="151.2900639">
  <ele>392.29</ele>
  <time>2026-09-01T19:55:17Z</time>
  <course>307.12</course>
  <speed>16.477068914099984</speed>
  <fix>3d</fix>
</trkpt>
<trkpt lat="-27.273146" lon="151.2901034">
  <ele>392.22</ele>
  <time>2026-09-01T19:55:17Z</time>
  <course>302.49</course>
  <speed>16.53</speed>
  <fix>3d</fix>
</trkpt>
<trkpt lat="-27.2731136" lon="151.2900505">
  <ele>392.35</ele>
  <time>2026-09-01T19:55:17Z</time>
  <course>307.83</course>
  <speed>16.462007775481094</speed>
  <fix>3d</fix>
</trkpt>
<trkpt lat="-27.2731296" lon="151.2900757">
  <ele>392.32</ele>
  <time>2026-09-01T19:55:17Z</time>
  <course>304.73</course>
  <speed>16.48</speed>
  <fix>3d</fix>
</trkpt>
<trkpt lat="-27.2731046" lon="151.2900373">
  <ele>392.4</ele>
  <time>2026-09-01T19:55:17Z</time>
  <course>308.61</course>
  <speed>16.43181365522382</speed>
  <fix>3d</fix>
</trkpt>
<trkpt lat="-27.2731296" lon="151.2900757">
  <ele>392.32</ele>
  <time>2026-09-01T19:55:17Z</time>
  <course>304.73</course>
  <speed>16.48</speed>
  <fix>3d</fix>
</trkpt>
<trkpt lat="-27.2730954" lon="151.2900244">
  <ele>392.46</ele>
  <time>2026-09-01T19:55:17Z</time>
  <course>309.32</course>
  <speed>16.414932226482083</speed>
  <fix>3d</fix>
</trkpt>
<trkpt lat="-27.2731123" lon="151.2900488">
  <ele>392.42</ele>
  <time>2026-09-01T19:55:17Z</time>
  <course>307.02</course>
  <speed>16.43</speed>
  <fix>3d</fix>
</trkpt>
<trkpt lat="-27.2730859" lon="151.2900117">
  <ele>392.52</ele>
  <time>2026-09-01T19:55:17Z</time>
  <course>310.03</course>
  <speed>16.39888410837762</speed>
  <fix>3d</fix>
</trkpt>
<trkpt lat="-27.2731123" lon="151.2900488">
  <ele>392.42</ele>
  <time>2026-09-01T19:55:17Z</time>
  <course>307.02</course>
  <speed>16.43</speed>
  <fix>3d</fix>
</trkpt>
<trkpt lat="-27.2730763" lon="151.2899992">
  <ele>392.58</ele>
  <time>2026-09-01T19:55:17Z</time>
  <course>310.77</course>
  <speed>16.38239603965183</speed>
  <fix>3d</fix>
</trkpt>
<trkpt lat="-27.273094" lon="151.2900227">
  <ele>392.54</ele>
  <time>2026-09-01T19:55:17Z</time>
  <course>309.36</course>
  <speed>16.38</speed>
  <fix>3d</fix>
</trkpt>
<trkpt lat="-27.2730664" lon="151.289987">
  <ele>392.64</ele>
  <time>2026-09-01T19:55:17Z</time>
  <course>311.53</course>
  <speed>16.365906635441863</speed>
  <fix>3d</fix>
</trkpt>
<trkpt lat="-27.273094" lon="151.2900227">
  <ele>392.54</ele>
  <time>2026-09-01T19:55:17Z</time>
  <course>309.36</course>
  <speed>16.38</speed>
  <fix>3d</fix>
</trkpt>
<trkpt lat="-27.2730562" lon="151.289975">
  <ele>392.69</ele>
  <time>2026-09-01T19:55:17Z</time>
  <course>312.33</course>
  <speed>16.349874617256244</speed>
  <fix>3d</fix>
</trkpt>
<trkpt lat="-27.2730749" lon="151.2899976">
  <ele>392.65</ele>
  <time>2026-09-01T19:55:17Z</time>
  <course>311.77</course>
  <speed>16.34</speed>
  <fix>3d</fix>
</trkpt>
<trkpt lat="-27.2730459" lon="151.2899633">
  <ele>392.75</ele>
  <time>2026-09-01T19:55:17Z</time>
  <course>313.1</course>
  <speed>16.341679840212265</speed>
  <fix>3d</fix>
</trkpt>
<trkpt lat="-27.2730749" lon="151.2899976">
  <ele>392.65</ele>
  <time>2026-09-01T19:55:17Z</time>
  <course>311.77</course>
  <speed>16.34</speed>
  <fix>3d</fix>
</trkpt>
<trkpt lat="-27.2730353" lon="151.2899517">
  <ele>392.8</ele>
  <time>2026-09-01T19:55:17Z</time>
  <course>313.91</course>
  <speed>16.3339676747568</speed>
  <fix>3d</fix>
</trkpt>
<trkpt lat="-27.2730549" lon="151.2899734">
  <ele>392.76</ele>
  <time>2026-09-01T19:55:17Z</time>
  <course>314.22</course>
  <speed>16.31</speed>
  <fix>3d</fix>
</trkpt>
<trkpt lat="-27.2730245" lon="151.2899406">
  <ele>392.86</ele>
  <time>2026-09-01T19:55:17Z</time>
  <course>314.79</course>
  <speed>16.33464110410755</speed>
  <fix>3d</fix>
</trkpt>
<trkpt lat="-27.2730549" lon="151.2899734">
  <ele>392.76</ele>
  <time>2026-09-01T19:55:17Z</time>
  <course>314.22</course>
  <speed>16.31</speed>
  <fix>3d</fix>
</trkpt>
<trkpt lat="-27.2730135" lon="151.2899296">
  <ele>392.91</ele>
  <time>2026-09-01T19:55:17Z</time>
  <course>315.58</course>
  <speed>16.329497848984825</speed>
  <fix>3d</fix>
</trkpt>
<trkpt lat="-27.273034" lon="151.2899502">
  <ele>392.87</ele>
  <time>2026-09-01T19:55:17Z</time>
  <course>316.71</course>
  <speed>16.29</speed>
  <fix>3d</fix>
</trkpt>
<trkpt lat="-27.2730023" lon="151.289919">
  <ele>392.96</ele>
  <time>2026-09-01T19:55:17Z</time>
  <course>316.36</course>
  <speed>16.332681959800723</speed>
  <fix>3d</fix>
</trkpt>
<trkpt lat="-27.273034" lon="151.2899502">
  <ele>392.87</ele>
  <time>2026-09-01T19:55:17Z</time>
  <course>316.71</course>
  <speed>16.29</speed>
  <fix>3d</fix>
</trkpt>
<trkpt lat="-27.2729909" lon="151.2899087">
  <ele>393.01</ele>
  <time>2026-09-01T19:55:17Z</time>
  <course>317.18</course>
  <speed>16.338010894842736</speed>
  <fix>3d</fix>
</trkpt>
<trkpt lat="-27.2730123" lon="151.2899282">
  <ele>392.98</ele>
  <time>2026-09-01T19:55:17Z</time>
  <course>319.26</course>
  <speed>16.28</speed>
  <fix>3d</fix>
</trkpt>
<trkpt lat="-27.2729793" lon="151.2898986">
  <ele>393.06</ele>
  <time>2026-09-01T19:55:17Z</time>
  <course>317.96</course>
  <speed>16.352005993149586</speed>
  <fix>3d</fix>
</trkpt>
<trkpt lat="-27.2730123" lon="151.2899282">
  <ele>392.98</ele>
  <time>2026-09-01T19:55:17Z</time>
  <course>319.26</course>
  <speed>16.28</speed>
  <fix>3d</fix>
</trkpt>
<trkpt lat="-27.2729676" lon="151.2898889">
  <ele>393.12</ele>
  <time>2026-09-01T19:55:17Z</time>
  <course>318.77</course>
  <speed>16.366505430298798</speed>
  <fix>3d</fix>
</trkpt>
<trkpt lat="-27.2729896" lon="151.2899073">
  <ele>393.09</ele>
  <time>2026-09-01T19:55:17Z</time>
  <course>321.87</course>
  <speed>16.29</speed>
  <fix>3d</fix>
</trkpt>
<trkpt lat="-27.2729555" lon="151.2898795">
  <ele>393.16</ele>
  <time>2026-09-01T19:55:17Z</time>
  <course>319.65</course>
  <speed>16.38372973409901</speed>
  <fix>3d</fix>
</trkpt>
<trkpt lat="-27.2729896" lon="151.2899073">
  <ele>393.09</ele>
  <time>2026-09-01T19:55:17Z</time>
  <course>321.87</course>
  <speed>16.29</speed>
  <fix>3d</fix>
</trkpt>
<trkpt lat="-27.2729433" lon="151.2898703">
  <ele>393.21</ele>
  <time>2026-09-01T19:55:17Z</time>
  <course>320.52</course>
  <speed>16.395819589151376</speed>
  <fix>3d</fix>
</trkpt>
<trkpt lat="-27.2729662" lon="151.2898876">
  <ele>393.19</ele>
  <time>2026-09-01T19:55:17Z</time>
  <course>324.51</course>
  <speed>16.31</speed>
  <fix>3d</fix>
</trkpt>
<trkpt lat="-27.2729309" lon="151.2898615">
  <ele>393.26</ele>
  <time>2026-09-01T19:55:17Z</time>
  <course>321.37</course>
  <speed>16.42522754789108</speed>
  <fix>3d</fix>
</trkpt>
<trkpt lat="-27.2729662" lon="151.2898876">
  <ele>393.19</ele>
  <time>2026-09-01T19:55:17Z</time>
  <course>324.51</course>
  <speed>16.31</speed>
  <fix>3d</fix>
</trkpt>
<trkpt lat="-27.2729182" lon="151.2898529">
  <ele>393.31</ele>
  <time>2026-09-01T19:55:17Z</time>
  <course>322.19</course>
  <speed>16.44131989835366</speed>
  <fix>3d</fix>
</trkpt>
<trkpt lat="-27.2729419" lon="151.289869">
  <ele>393.29</ele>
  <time>2026-09-01T19:55:17Z</time>
  <course>327.16</course>
  <speed>16.35</speed>
  <fix>3d</fix>
</trkpt>
<trkpt lat="-27.2729053" lon="151.2898447">
  <ele>393.35</ele>
  <time>2026-09-01T19:55:17Z</time>
  <course>323.09</course>
  <speed>16.483813272419706</speed>
  <fix>3d</fix>
</trkpt>
<trkpt lat="-27.2729419" lon="151.289869">
  <ele>393.29</ele>
  <time>2026-09-01T19:55:17Z</time>
  <course>327.16</course>
  <speed>16.35</speed>
  <fix>3d</fix>
</trkpt>
<trkpt lat="-27.2728923" lon="151.2898368">
  <ele>393.4</ele>
  <time>2026-09-01T19:55:17Z</time>
  <course>323.99</course>
  <speed>16.51749678371393</speed>
  <fix>3d</fix>
</trkpt>
<trkpt lat="-27.2729168" lon="151.2898518">
  <ele>393.38</ele>
  <time>2026-09-01T19:55:17Z</time>
  <course>329.83</course>
  <speed>16.39</speed>
  <fix>3d</fix>
</trkpt>
<trkpt lat="-27.2728791" lon="151.2898293">
  <ele>393.44</ele>
  <time>2026-09-01T19:55:17Z</time>
  <course>324.87</course>
  <speed>16.552033107748425</speed>
  <fix>3d</fix>
</trkpt>
<trkpt lat="-27.2729168" lon="151.2898518">
  <ele>393.38</ele>
  <time>2026-09-01T19:55:17Z</time>
  <course>329.83</course>
  <speed>16.39</speed>
  <fix>3d</fix>
</trkpt>
<trkpt lat="-27.2728657" lon="151.2898221">
  <ele>393.48</ele>
  <time>2026-09-01T19:55:17Z</time>
  <course>325.78</course>
  <speed>16.58286163483251</speed>
  <fix>3d</fix>
</trkpt>
<trkpt lat="-27.272891" lon="151.2898358">
  <ele>393.47</ele>
  <time>2026-09-01T19:55:17Z</time>
  <course>332.56</course>
  <speed>16.45</speed>
  <fix>3d</fix>
</trkpt>
<trkpt lat="-27.2728522" lon="151.2898153">
  <ele>393.52</ele>
  <time>2026-09-01T19:55:17Z</time>
  <course>326.72</course>
  <speed>16.632597512114575</speed>
  <fix>3d</fix>
</trkpt>
<trkpt lat="-27.272891" lon="151.2898358">
  <ele>393.47</ele>
  <time>2026-09-01T19:55:17Z</time>
  <course>332.56</course>
  <speed>16.45</speed>
  <fix>3d</fix>
</trkpt>
<trkpt lat="-27.2728384" lon="151.2898089">
  <ele>393.57</ele>
  <time>2026-09-01T19:55:17Z</time>
  <course>327.62</course>
  <speed>16.68844510432293</speed>
  <fix>3d</fix>
</trkpt>
<trkpt lat="-27.2728643" lon="151.2898212">
  <ele>393.56</ele>
  <time>2026-09-01T19:55:17Z</time>
  <course>335.34</course>
  <speed>16.53</speed>
  <fix>3d</fix>
</trkpt>
<trkpt lat="-27.2728244" lon="151.2898028">
  <ele>393.61</ele>
  <time>2026-09-01T19:55:17Z</time>
  <course>328.52</course>
  <speed>16.735737211129962</speed>
  <fix>3d</fix>
</trkpt>
<trkpt lat="-27.2728643" lon="151.2898212">
  <ele>393.56</ele>
  <time>2026-09-01T19:55:17Z</time>
  <course>335.34</course>
  <speed>16.53</speed>
  <fix>3d</fix>
</trkpt>
<trkpt lat="-27.2728103" lon="151.289797">
  <ele>393.65</ele>
  <time>2026-09-01T19:55:17Z</time>
  <course>329.45</course>
  <speed>16.802217115607096</speed>
  <fix>3d</fix>
</trkpt>
<trkpt lat="-27.272837" lon="151.2898079">
  <ele>393.65</ele>
  <time>2026-09-01T19:55:17Z</time>
  <course>338.15</course>
  <speed>16.62</speed>
  <fix>3d</fix>
</trkpt>
<trkpt lat="-27.272796" lon="151.2897916">
  <ele>393.68</ele>
  <time>2026-09-01T19:55:17Z</time>
  <course>330.42</course>
  <speed>16.862888246086435</speed>
  <fix>3d</fix>
</trkpt>
<trkpt lat="-27.272837" lon="151.2898079">
  <ele>393.65</ele>
  <time>2026-09-01T19:55:17Z</time>
  <course>338.15</course>
  <speed>16.62</speed>
  <fix>3d</fix>
</trkpt>
<trkpt lat="-27.2727816" lon="151.2897867">
  <ele>393.72</ele>
  <time>2026-09-01T19:55:17Z</time>
  <course>331.34</course>
  <speed>16.931213778108173</speed>
  <fix>3d</fix>
</trkpt>
<trkpt lat="-27.2728089" lon="151.2897962">
  <ele>393.72</ele>
  <time>2026-09-01T19:55:17Z</time>
  <course>340.98</course>
  <speed>16.74</speed>
  <fix>3d</fix>
</trkpt>
<trkpt lat="-27.2727669" lon="151.2897821">
  <ele>393.75</ele>
  <time>2026-09-01T19:55:17Z</time>
  <course>332.34</course>
  <speed>17.00525212985682</speed>
  <fix>3d</fix>
</trkpt>
<trkpt lat="-27.2728089" lon="151.2897962">
  <ele>393.72</ele>
  <time>2026-09-01T19:55:17Z</time>
  <course>340.98</course>
  <speed>16.74</speed>
  <fix>3d</fix>
</trkpt>
<trkpt lat="-27.2727521" lon="151.2897779">
  <ele>393.79</ele>
  <time>2026-09-01T19:55:17Z</time>
  <course>333.34</course>
  <speed>17.083471544156357</speed>
  <fix>3d</fix>
</trkpt>
<trkpt lat="-27.27278" lon="151.2897859">
  <ele>393.8</ele>
  <time>2026-09-01T19:55:17Z</time>
  <course>343.87</course>
  <speed>16.87</speed>
  <fix>3d</fix>
</trkpt>
<trkpt lat="-27.2727372" lon="151.2897742">
  <ele>393.82</ele>
  <time>2026-09-01T19:55:17Z</time>
  <course>334.33</course>
  <speed>17.16275327562568</speed>
  <fix>3d</fix>
</trkpt>
<trkpt lat="-27.27278" lon="151.2897859">
  <ele>393.8</ele>
  <time>2026-09-01T19:55:17Z</time>
  <course>343.87</course>
  <speed>16.87</speed>
  <fix>3d</fix>
</trkpt>
<trkpt lat="-27.2727221" lon="151.2897708">
  <ele>393.86</ele>
  <time>2026-09-01T19:55:17Z</time>
  <course>335.27</course>
  <speed>17.25082316876502</speed>
  <fix>3d</fix>
</trkpt>
<trkpt lat="-27.2727506" lon="151.2897772">
  <ele>393.87</ele>
  <time>2026-09-01T19:55:17Z</time>
  <course>346.8</course>
  <speed>17.02</speed>
  <fix>3d</fix>
</trkpt>
<trkpt lat="-27.2727068" lon="151.2897679">
  <ele>393.89</ele>
  <time>2026-09-01T19:55:17Z</time>
  <course>336.3</course>
  <speed>17.33683362093551</speed>
  <fix>3d</fix>
</trkpt>
<trkpt lat="-27.2727506" lon="151.2897772">
  <ele>393.87</ele>
  <time>2026-09-01T19:55:17Z</time>
  <course>346.8</course>
  <speed>17.02</speed>
  <fix>3d</fix>
</trkpt>
<trkpt lat="-27.2726914" lon="151.2897654">
  <ele>393.93</ele>
  <time>2026-09-01T19:55:17Z</time>
  <course>337.33</course>
  <speed>17.425868701444987</speed>
  <fix>3d</fix>
</trkpt>
<trkpt lat="-27.2727206" lon="151.2897702">
  <ele>393.94</ele>
  <time>2026-09-01T19:55:17Z</time>
  <course>349.73</course>
  <speed>17.19</speed>
  <fix>3d</fix>
</trkpt>
<trkpt lat="-27.2726759" lon="151.2897633">
  <ele>393.96</ele>
  <time>2026-09-01T19:55:17Z</time>
  <course>338.34</course>
  <speed>17.52476248055876</speed>
  <fix>3d</fix>
</trkpt>
<trkpt lat="-27.2727206" lon="151.2897702">
  <ele>393.94</ele>
  <time>2026-09-01T19:55:17Z</time>
  <course>349.73</course>
  <speed>17.19</speed>
  <fix>3d</fix>
</trkpt>
<trkpt lat="-27.2726602" lon="151.2897616">
  <ele>393.99</ele>
  <time>2026-09-01T19:55:17Z</time>
  <course>339.43</course>
  <speed>17.634080639488978</speed>
  <fix>3d</fix>
</trkpt>
<trkpt lat="-27.2726899" lon="151.2897648">
  <ele>394.01</ele>
  <time>2026-09-01T19:55:17Z</time>
  <course>352.64</course>
  <speed>17.37</speed>
  <fix>3d</fix>
</trkpt>
<trkpt lat="-27.2726444" lon="151.2897604">
  <ele>394.02</ele>
  <time>2026-09-01T19:55:17Z</time>
  <course>340.49</course>
  <speed>17.754374108934396</speed>
  <fix>3d</fix>
</trkpt>
<trkpt lat="-27.2726899" lon="151.2897648">
  <ele>394.01</ele>
  <time>2026-09-01T19:55:17Z</time>
  <course>352.64</course>
  <speed>17.37</speed>
  <fix>3d</fix>
</trkpt>
<trkpt lat="-27.2726285" lon="151.2897597">
  <ele>394.05</ele>
  <time>2026-09-01T19:55:17Z</time>
  <course>341.58</course>
  <speed>17.86618314022332</speed>
  <fix>3d</fix>
</trkpt>
<trkpt lat="-27.2726586" lon="151.2897612">
  <ele>394.07</ele>
  <time>2026-09-01T19:55:17Z</time>
  <course>355.59</course>
  <speed>17.58</speed>
  <fix>3d</fix>
</trkpt>
<trkpt lat="-27.2726124" lon="151.2897594">
  <ele>394.08</ele>
  <time>2026-09-01T19:55:17Z</time>
  <course>342.68</course>
  <speed>17.98</speed>
  <fix>3d</fix>
</trkpt>
<trkpt lat="-27.2726586" lon="151.2897612">
  <ele>394.07</ele>
  <time>2026-09-01T19:55:17Z</time>
  <course>355.59</course>
  <speed>17.58</speed>
  <fix>3d</fix>
</trkpt>
<trkpt lat="-27.2725962" lon="151.2897597">
  <ele>394.11</ele>
  <time>2026-09-01T19:55:17Z</time>
  <course>343.81</course>
  <speed>18.106363522253716</speed>
  <fix>3d</fix>
</trkpt>
<trkpt lat="-27.2726269" lon="151.2897594">
  <ele>394.14</ele>
  <time>2026-09-01T19:55:17Z</time>
  <course>358.58</course>
  <speed>17.81</speed>
  <fix>3d</fix>
</trkpt>
<trkpt lat="-27.27258" lon="151.2897603">
  <ele>394.13</ele>
  <time>2026-09-01T19:55:17Z</time>
  <course>344.97</course>
  <speed>18.245802256957628</speed>
  <fix>3d</fix>
</trkpt>
<trkpt lat="-27.2726269" lon="151.2897594">
  <ele>394.14</ele>
  <time>2026-09-01T19:55:17Z</time>
  <course>358.58</course>
  <speed>17.81</speed>
  <fix>3d</fix>
</trkpt>
<trkpt lat="-27.2725636" lon="151.2897615">
  <ele>394.16</ele>
  <time>2026-09-01T19:55:17Z</time>
  <course>346.08</course>
  <speed>18.379684436899346</speed>
  <fix>3d</fix>
</trkpt>
<trkpt lat="-27.2725947" lon="151.2897595">
  <ele>394.2</ele>
  <time>2026-09-01T19:55:17Z</time>
  <course>1.63</course>
  <speed>18.06</speed>
  <fix>3d</fix>
</trkpt>
<trkpt lat="-27.2725472" lon="151.2897632">
  <ele>394.19</ele>
  <time>2026-09-01T19:55:17Z</time>
  <course>347.21</course>
  <speed>18.516168610163387</speed>
  <fix>3d</fix>
</trkpt>
<trkpt lat="-27.2725947" lon="151.2897595">
  <ele>394.2</ele>
  <time>2026-09-01T19:55:17Z</time>
  <course>1.63</course>
  <speed>18.06</speed>
  <fix>3d</fix>
</trkpt>
<trkpt lat="-27.2725307" lon="151.2897655">
  <ele>394.22</ele>
  <time>2026-09-01T19:55:17Z</time>
  <course>348.35</course>
  <speed>18.66681815414721</speed>
  <fix>3d</fix>
</trkpt>
<trkpt lat="-27.2725621" lon="151.2897615">
  <ele>394.26</ele>
  <time>2026-09-01T19:55:17Z</time>
  <course>4.72</course>
  <speed>18.33</speed>
  <fix>3d</fix>
</trkpt>
<trkpt lat="-27.2725141" lon="151.2897682">
  <ele>394.25</ele>
  <time>2026-09-01T19:55:17Z</time>
  <course>349.54</course>
  <speed>18.823835953386332</speed>
  <fix>3d</fix>
</trkpt>
<trkpt lat="-27.2725621" lon="151.2897615">
  <ele>394.26</ele>
  <time>2026-09-01T19:55:17Z</time>
  <course>4.72</course>
  <speed>18.33</speed>
  <fix>3d</fix>
</trkpt>
<trkpt lat="-27.2724975" lon="151.2897715">
  <ele>394.28</ele>
  <time>2026-09-01T19:55:17Z</time>
  <course>350.71</course>
  <speed>18.973170531041987</speed>
  <fix>3d</fix>
</trkpt>
<trkpt lat="-27.2725291" lon="151.2897655">
  <ele>394.32</ele>
  <time>2026-09-01T19:55:17Z</time>
  <course>7.82</course>
  <speed>18.62</speed>
  <fix>3d</fix>
</trkpt>
<trkpt lat="-27.2724808" lon="151.2897753">
  <ele>394.31</ele>
  <time>2026-09-01T19:55:17Z</time>
  <course>351.86</course>
  <speed>19.135663040511556</speed>
  <fix>3d</fix>
</trkpt>
<trkpt lat="-27.2725291" lon="151.2897655">
  <ele>394.32</ele>
  <time>2026-09-01T19:55:17Z</time>
  <course>7.82</course>
  <speed>18.62</speed>
  <fix>3d</fix>
</trkpt>
<trkpt lat="-27.272464" lon="151.2897797">
  <ele>394.33</ele>
  <time>2026-09-01T19:55:17Z</time>
  <course>353.05</course>
  <speed>19.29392909699836</speed>
  <fix>3d</fix>
</trkpt>
<trkpt lat="-27.2724957" lon="151.2897717">
  <ele>394.38</ele>
  <time>2026-09-01T19:55:17Z</time>
  <course>10.88</course>
  <speed>18.93</speed>
  <fix>3d</fix>
</trkpt>
<trkpt lat="-27.2724472" lon="151.2897845">
  <ele>394.36</ele>
  <time>2026-09-01T19:55:17Z</time>
  <course>354.31</course>
  <speed>19.480341372778867</speed>
  <fix>3d</fix>
</trkpt>
<trkpt lat="-27.2724957" lon="151.2897717">
  <ele>394.38</ele>
  <time>2026-09-01T19:55:17Z</time>
  <course>10.88</course>
  <speed>18.93</speed>
  <fix>3d</fix>
</trkpt>
<trkpt lat="-27.2724304" lon="151.28979">
  <ele>394.38</ele>
  <time>2026-09-01T19:55:17Z</time>
  <course>355.54</course>
  <speed>19.66424165840117</speed>
  <fix>3d</fix>
</trkpt>
<trkpt lat="-27.2724622" lon="151.2897801">
  <ele>394.43</ele>
  <time>2026-09-01T19:55:17Z</time>
  <course>13.93</course>
  <speed>19.27</speed>
  <fix>3d</fix>
</trkpt>
<trkpt lat="-27.2724135" lon="151.289796">
  <ele>394.4</ele>
  <time>2026-09-01T19:55:17Z</time>
  <course>356.85</course>
  <speed>19.855943694521294</speed>
  <fix>3d</fix>
</trkpt>
<trkpt lat="-27.2724622" lon="151.2897801">
  <ele>394.43</ele>
  <time>2026-09-01T19:55:17Z</time>
  <course>13.93</course>
  <speed>19.27</speed>
  <fix>3d</fix>
</trkpt>
<trkpt lat="-27.2723966" lon="151.2898026">
  <ele>394.42</ele>
  <time>2026-09-01T19:55:17Z</time>
  <course>358.21</course>
  <speed>20.050067331557766</speed>
  <fix>3d</fix>
</trkpt>
<trkpt lat="-27.2724284" lon="151.2897906">
  <ele>394.47</ele>
  <time>2026-09-01T19:55:17Z</time>
  <course>17.01</course>
  <speed>19.63</speed>
  <fix>3d</fix>
</trkpt>
<trkpt lat="-27.2723798" lon="151.2898098">
  <ele>394.44</ele>
  <time>2026-09-01T19:55:17Z</time>
  <course>359.58</course>
  <speed>20.253900858846922</speed>
  <fix>3d</fix>
</trkpt>
<trkpt lat="-27.2724284" lon="151.2897906">
  <ele>394.47</ele>
  <time>2026-09-01T19:55:17Z</time>
  <course>17.01</course>
  <speed>19.63</speed>
  <fix>3d</fix>
</trkpt>
<trkpt lat="-27.2723629" lon="151.2898176">
  <ele>394.46</ele>
  <time>2026-09-01T19:55:17Z</time>
  <course>0.87</course>
  <speed>20.46804827041406</speed>
  <fix>3d</fix>
</trkpt>
<trkpt lat="-27.2723947" lon="151.2898033">
  <ele>394.52</ele>
  <time>2026-09-01T19:55:17Z</time>
  <course>20.16</course>
  <speed>20.02</speed>
  <fix>3d</fix>
</trkpt>
<trkpt lat="-27.2723461" lon="151.2898261">
  <ele>394.48</ele>
  <time>2026-09-01T19:55:17Z</time>
  <course>2.27</course>
  <speed>20.684027654207004</speed>
  <fix>3d</fix>
</trkpt>
<trkpt lat="-27.2723947" lon="151.2898033">
  <ele>394.52</ele>
  <time>2026-09-01T19:55:17Z</time>
  <course>20.16</course>
  <speed>20.02</speed>
  <fix>3d</fix>
</trkpt>
<trkpt lat="-27.2723293" lon="151.2898352">
  <ele>394.5</ele>
  <time>2026-09-01T19:55:17Z</time>
  <course>3.74</course>
  <speed>20.90724754720238</speed>
  <fix>3d</fix>
</trkpt>
<trkpt lat="-27.272361" lon="151.2898185">
  <ele>394.56</ele>
  <time>2026-09-01T19:55:17Z</time>
  <course>23.38</course>
  <speed>20.44</speed>
  <fix>3d</fix>
</trkpt>
<trkpt lat="-27.2723125" lon="151.2898449">
  <ele>394.52</ele>
  <time>2026-09-01T19:55:17Z</time>
  <course>5.21</course>
  <speed>21.13883866251881</speed>
  <fix>3d</fix>
</trkpt>
<trkpt lat="-27.272361" lon="151.2898185">
  <ele>394.56</ele>
  <time>2026-09-01T19:55:17Z</time>
  <course>23.38</course>
  <speed>20.44</speed>
  <fix>3d</fix>
</trkpt>
<trkpt lat="-27.2722959" lon="151.2898552">
  <ele>394.55</ele>
  <time>2026-09-01T19:55:17Z</time>
  <course>6.7</course>
  <speed>21.379883067968358</speed>
  <fix>3d</fix>
</trkpt>
<trkpt lat="-27.2723274" lon="151.2898361">
  <ele>394.6</ele>
  <time>2026-09-01T19:55:17Z</time>
  <course>26.64</course>
  <speed>20.88</speed>
  <fix>3d</fix>
</trkpt>
<trkpt lat="-27.2722793" lon="151.2898663">
  <ele>394.58</ele>
  <time>2026-09-01T19:55:17Z</time>
  <course>8.27</course>
  <speed>21.621695123185876</speed>
  <fix>3d</fix>
</trkpt>
<trkpt lat="-27.2723274" lon="151.2898361">
  <ele>394.6</ele>
  <time>2026-09-01T19:55:17Z</time>
  <course>26.64</course>
  <speed>20.88</speed>
  <fix>3d</fix>
</trkpt>
<trkpt lat="-27.272263" lon="151.2898779">
  <ele>394.61</ele>
  <time>2026-09-01T19:55:17Z</time>
  <course>9.77</course>
  <speed>21.870018289887184</speed>
  <fix>3d</fix>
</trkpt>
<trkpt lat="-27.272294" lon="151.2898564">
  <ele>394.65</ele>
  <time>2026-09-01T19:55:17Z</time>
  <course>29.96</course>
  <speed>21.35</speed>
  <fix>3d</fix>
</trkpt>
<trkpt lat="-27.2722467" lon="151.2898903">
  <ele>394.63</ele>
  <time>2026-09-01T19:55:17Z</time>
  <course>11.32</course>
  <speed>22.13160861754066</speed>
  <fix>3d</fix>
</trkpt>
<trkpt lat="-27.272294" lon="151.2898564">
  <ele>394.65</ele>
  <time>2026-09-01T19:55:17Z</time>
  <course>29.96</course>
  <speed>21.35</speed>
  <fix>3d</fix>
</trkpt>
<trkpt lat="-27.2722305" lon="151.2899034">
  <ele>394.66</ele>
  <time>2026-09-01T19:55:17Z</time>
  <course>12.9</course>
  <speed>22.394260425385788</speed>
  <fix>3d</fix>
</trkpt>
<trkpt lat="-27.272261" lon="151.2898793">
  <ele>394.7</ele>
  <time>2026-09-01T19:55:17Z</time>
  <course>33.32</course>
  <speed>21.85</speed>
  <fix>3d</fix>
</trkpt>
<trkpt lat="-27.2722144" lon="151.2899172">
  <ele>394.7</ele>
  <time>2026-09-01T19:55:17Z</time>
  <course>14.5</course>
  <speed>22.655021518418383</speed>
  <fix>3d</fix>
</trkpt>
<trkpt lat="-27.272261" lon="151.2898793">
  <ele>394.7</ele>
  <time>2026-09-01T19:55:17Z</time>
  <course>33.32</course>
  <speed>21.85</speed>
  <fix>3d</fix>
</trkpt>
<trkpt lat="-27.2721984" lon="151.2899319">
  <ele>394.73</ele>
  <time>2026-09-01T19:55:17Z</time>
  <course>16.22</course>
  <speed>22.93286070249414</speed>
  <fix>3d</fix>
</trkpt>
<trkpt lat="-27.2722285" lon="151.2899049">
  <ele>394.76</ele>
  <time>2026-09-01T19:55:17Z</time>
  <course>36.74</course>
  <speed>22.38</speed>
  <fix>3d</fix>
</trkpt>
<trkpt lat="-27.2721827" lon="151.2899471">
  <ele>394.76</ele>
  <time>2026-09-01T19:55:17Z</time>
  <course>17.98</course>
  <speed>23.215447443458846</speed>
  <fix>3d</fix>
</trkpt>
<trkpt lat="-27.2722285" lon="151.2899049">
  <ele>394.76</ele>
  <time>2026-09-01T19:55:17Z</time>
  <course>36.74</course>
  <speed>22.38</speed>
  <fix>3d</fix>
</trkpt>
<trkpt lat="-27.2721673" lon="151.2899631">
  <ele>394.79</ele>
  <time>2026-09-01T19:55:17Z</time>
  <course>19.8</course>
  <speed>23.525518060183074</speed>
  <fix>3d</fix>
</trkpt>
<trkpt lat="-27.2721966" lon="151.2899334">
  <ele>394.82</ele>
  <time>2026-09-01T19:55:17Z</time>
  <course>40.18</course>
  <speed>22.93</speed>
  <fix>3d</fix>
</trkpt>
<trkpt lat="-27.2721522" lon="151.2899798">
  <ele>394.82</ele>
  <time>2026-09-01T19:55:17Z</time>
  <course>21.59</course>
  <speed>23.823083343681606</speed>
  <fix>3d</fix>
</trkpt>
<trkpt lat="-27.2721966" lon="151.2899334">
  <ele>394.82</ele>
  <time>2026-09-01T19:55:17Z</time>
  <course>40.18</course>
  <speed>22.93</speed>
  <fix>3d</fix>
</trkpt>
<trkpt lat="-27.2721374" lon="151.2899973">
  <ele>394.85</ele>
  <time>2026-09-01T19:55:17Z</time>
  <course>23.44</course>
  <speed>24.130951079474677</speed>
  <fix>3d</fix>
</trkpt>
<trkpt lat="-27.2721655" lon="151.2899648">
  <ele>394.88</ele>
  <time>2026-09-01T19:55:17Z</time>
  <course>43.73</course>
  <speed>23.51</speed>
  <fix>3d</fix>
</trkpt>
<trkpt lat="-27.2721228" lon="151.2900155">
  <ele>394.88</ele>
  <time>2026-09-01T19:55:17Z</time>
  <course>25.34</course>
  <speed>24.450572590432316</speed>
  <fix>3d</fix>
</trkpt>
<trkpt lat="-27.2721655" lon="151.2899648">
  <ele>394.88</ele>
  <time>2026-09-01T19:55:17Z</time>
  <course>43.73</course>
  <speed>23.51</speed>
  <fix>3d</fix>
</trkpt>
<trkpt lat="-27.2721086" lon="151.2900345">
  <ele>394.92</ele>
  <time>2026-09-01T19:55:17Z</time>
  <course>27.27</course>
  <speed>24.775990393927746</speed>
  <fix>3d</fix>
</trkpt>
<trkpt lat="-27.2721355" lon="151.2899993">
  <ele>394.94</ele>
  <time>2026-09-01T19:55:17Z</time>
  <course>47.38</course>
  <speed>24.13</speed>
  <fix>3d</fix>
</trkpt>
<trkpt lat="-27.2720948" lon="151.2900543">
  <ele>394.95</ele>
  <time>2026-09-01T19:55:17Z</time>
  <course>29.25</course>
  <speed>25.102368414155666</speed>
  <fix>3d</fix>
</trkpt>
<trkpt lat="-27.2721355" lon="151.2899993">
  <ele>394.94</ele>
  <time>2026-09-01T19:55:17Z</time>
  <course>47.38</course>
  <speed>24.13</speed>
  <fix>3d</fix>
</trkpt>
<trkpt lat="-27.2720814" lon="151.2900748">
  <ele>394.99</ele>
  <time>2026-09-01T19:55:17Z</time>
  <course>31.25</course>
  <speed>25.437523464362645</speed>
  <fix>3d</fix>
</trkpt>
<trkpt lat="-27.2721069" lon="151.2900367">
  <ele>395.0</ele>
  <time>2026-09-01T19:55:17Z</time>
  <course>51.07</course>
  <speed>24.78</speed>
  <fix>3d</fix>
</trkpt>
<trkpt lat="-27.2720684" lon="151.2900962">
  <ele>395.03</ele>
  <time>2026-09-01T19:55:17Z</time>
  <course>33.29</course>
  <speed>25.782753925831894</speed>
  <fix>3d</fix>
</trkpt>
<trkpt lat="-27.2721069" lon="151.2900367">
  <ele>395.0</ele>
  <time>2026-09-01T19:55:17Z</time>
  <course>51.07</course>
  <speed>24.78</speed>
  <fix>3d</fix>
</trkpt>
<trkpt lat="-27.2720559" lon="151.2901182">
  <ele>395.07</ele>
  <time>2026-09-01T19:55:17Z</time>
  <course>35.43</course>
  <speed>26.137455882315706</speed>
  <fix>3d</fix>
</trkpt>
<trkpt lat="-27.2720797" lon="151.2900772">
  <ele>395.08</ele>
  <time>2026-09-01T19:55:17Z</time>
  <course>54.81</course>
  <speed>25.45</speed>
  <fix>3d</fix>
</trkpt>
<trkpt lat="-27.272044" lon="151.2901411">
  <ele>395.11</ele>
  <time>2026-09-01T19:55:17Z</time>
  <course>37.65</course>
  <speed>26.496529961487408</speed>
  <fix>3d</fix>
</trkpt>
<trkpt lat="-27.2720797" lon="151.2900772">
  <ele>395.08</ele>
  <time>2026-09-01T19:55:17Z</time>
  <course>54.81</course>
  <speed>25.45</speed>
  <fix>3d</fix>
</trkpt>
<trkpt lat="-27.2720325" lon="151.2901647">
  <ele>395.15</ele>
  <time>2026-09-01T19:55:17Z</time>
  <course>39.86</course>
  <speed>26.858899828548452</speed>
  <fix>3d</fix>
</trkpt>
<trkpt lat="-27.2720543" lon="151.2901208">
  <ele>395.16</ele>
  <time>2026-09-01T19:55:17Z</time>
  <course>58.64</course>
  <speed>26.14</speed>
  <fix>3d</fix>
</trkpt>
<trkpt lat="-27.2720217" lon="151.2901891">
  <ele>395.19</ele>
  <time>2026-09-01T19:55:17Z</time>
  <course>42.13</course>
  <speed>27.222110498636948</speed>
  <fix>3d</fix>
</trkpt>
<trkpt lat="-27.2720543" lon="151.2901208">
  <ele>395.16</ele>
  <time>2026-09-01T19:55:17Z</time>
  <course>58.64</course>
  <speed>26.14</speed>
  <fix>3d</fix>
</trkpt>
<trkpt lat="-27.2720115" lon="151.2902142">
  <ele>395.24</ele>
  <time>2026-09-01T19:55:17Z</time>
  <course>44.59</course>
  <speed>27.59823907425979</speed>
  <fix>3d</fix>
</trkpt>
<trkpt lat="-27.2720309" lon="151.2901675">
  <ele>395.24</ele>
  <time>2026-09-01T19:55:17Z</time>
  <course>62.59</course>
  <speed>26.87</speed>
  <fix>3d</fix>
</trkpt>
<trkpt lat="-27.2720019" lon="151.2902402">
  <ele>395.29</ele>
  <time>2026-09-01T19:55:17Z</time>
  <course>47.02</course>
  <speed>27.99640691231644</speed>
  <fix>3d</fix>
</trkpt>
<trkpt lat="-27.2720309" lon="151.2901675">
  <ele>395.24</ele>
  <time>2026-09-01T19:55:17Z</time>
  <course>62.59</course>
  <speed>26.87</speed>
  <fix>3d</fix>
</trkpt>
<trkpt lat="-27.2719932" lon="151.2902668">
  <ele>395.35</ele>
  <time>2026-09-01T19:55:17Z</time>
  <course>49.45</course>
  <speed>28.374752862359877</speed>
  <fix>3d</fix>
</trkpt>
<trkpt lat="-27.27201" lon="151.2902172">
  <ele>395.33</ele>
  <time>2026-09-01T19:55:17Z</time>
  <course>66.68</course>
  <speed>27.62</speed>
  <fix>3d</fix>
</trkpt>
<trkpt lat="-27.2719852" lon="151.2902939">
  <ele>395.4</ele>
  <time>2026-09-01T19:55:17Z</time>
  <course>51.99</course>
  <speed>28.755717692312952</speed>
  <fix>3d</fix>
</trkpt>
<trkpt lat="-27.27201" lon="151.2902172">
  <ele>395.33</ele>
  <time>2026-09-01T19:55:17Z</time>
  <course>66.68</course>
  <speed>27.62</speed>
  <fix>3d</fix>
</trkpt>
<trkpt lat="-27.271978" lon="151.290322">
  <ele>395.46</ele>
  <time>2026-09-01T19:55:17Z</time>
  <course>54.57</course>
  <speed>29.13972203024593</speed>
  <fix>3d</fix>
</trkpt>
<trkpt lat="-27.2719918" lon="151.29027">
  <ele>395.43</ele>
  <time>2026-09-01T19:55:17Z</time>
  <course>70.87</course>
  <speed>28.39</speed>
  <fix>3d</fix>
</trkpt>
<trkpt lat="-27.2719716" lon="151.2903507">
  <ele>395.52</ele>
  <time>2026-09-01T19:55:17Z</time>
  <course>57.2</course>
  <speed>29.535444807891416</speed>
  <fix>3d</fix>
</trkpt>
<trkpt lat="-27.2719918" lon="151.29027">
  <ele>395.43</ele>
  <time>2026-09-01T19:55:17Z</time>
  <course>70.87</course>
  <speed>28.39</speed>
  <fix>3d</fix>
</trkpt>
<trkpt lat="-27.2719662" lon="151.2903801">
  <ele>395.58</ele>
  <time>2026-09-01T19:55:17Z</time>
  <course>59.88</course>
  <speed>29.931530198103804</speed>
  <fix>3d</fix>
</trkpt>
<trkpt lat="-27.2719767" lon="151.2903256">
  <ele>395.55</ele>
  <time>2026-09-01T19:55:17Z</time>
  <course>75.13</course>
  <speed>29.16</speed>
  <fix>3d</fix>
</trkpt>
<trkpt lat="-27.2719616" lon="151.2904103">
  <ele>395.65</ele>
  <time>2026-09-01T19:55:17Z</time>
  <course>62.71</course>
  <speed>30.32094985319556</speed>
  <fix>3d</fix>
</trkpt>
<trkpt lat="-27.2719767" lon="151.2903256">
  <ele>395.55</ele>
  <time>2026-09-01T19:55:17Z</time>
  <course>75.13</course>
  <speed>29.16</speed>
  <fix>3d</fix>
</trkpt>
<trkpt lat="-27.2719581" lon="151.2904408">
  <ele>395.72</ele>
  <time>2026-09-01T19:55:17Z</time>
  <course>65.56</course>
  <speed>30.712442104137537</speed>
  <fix>3d</fix>
</trkpt>
<trkpt lat="-27.2719651" lon="151.2903838">
  <ele>395.67</ele>
  <time>2026-09-01T19:55:17Z</time>
  <course>79.51</course>
  <speed>29.95</speed>
  <fix>3d</fix>
</trkpt>
<trkpt lat="-27.2719557" lon="151.2904719">
  <ele>395.8</ele>
  <time>2026-09-01T19:55:17Z</time>
  <course>68.46</course>
  <speed>31.09764299750063</speed>
  <fix>3d</fix>
</trkpt>
<trkpt lat="-27.2719651" lon="151.2903838">
  <ele>395.67</ele>
  <time>2026-09-01T19:55:17Z</time>
  <course>79.51</course>
  <speed>29.95</speed>
  <fix>3d</fix>
</trkpt>
<trkpt lat="-27.2719544" lon="151.2905034">
  <ele>395.88</ele>
  <time>2026-09-01T19:55:17Z</time>
  <course>71.44</course>
  <speed>31.48016677211225</speed>
  <fix>3d</fix>
</trkpt>
<trkpt lat="-27.2719572" lon="151.2904444">
  <ele>395.81</ele>
  <time>2026-09-01T19:55:17Z</time>
  <course>84.01</course>
  <speed>30.73</speed>
  <fix>3d</fix>
</trkpt>
<trkpt lat="-27.2719542" lon="151.2905353">
  <ele>395.96</ele>
  <time>2026-09-01T19:55:17Z</time>
  <course>74.46</course>
  <speed>31.85392440500856</speed>
  <fix>3d</fix>
</trkpt>
<trkpt lat="-27.2719572" lon="151.2904444">
  <ele>395.81</ele>
  <time>2026-09-01T19:55:17Z</time>
  <course>84.01</course>
  <speed>30.73</speed>
  <fix>3d</fix>
</trkpt>
<trkpt lat="-27.2719551" lon="151.2905676">
  <ele>396.05</ele>
  <time>2026-09-01T19:55:17Z</time>
  <course>77.59</course>
  <speed>32.223725731206194</speed>
  <fix>3d</fix>
</trkpt>
<trkpt lat="-27.2719537" lon="151.2905074">
  <ele>395.96</ele>
  <time>2026-09-01T19:55:17Z</time>
  <course>88.66</course>
  <speed>31.5</speed>
  <fix>3d</fix>
</trkpt>
<trkpt lat="-27.2719573" lon="151.2906005">
  <ele>396.14</ele>
  <time>2026-09-01T19:55:17Z</time>
  <course>80.82</course>
  <speed>32.5844947789589</speed>
  <fix>3d</fix>
</trkpt>
<trkpt lat="-27.2719537" lon="151.2905074">
  <ele>395.96</ele>
  <time>2026-09-01T19:55:17Z</time>
  <course>88.66</course>
  <speed>31.5</speed>
  <fix>3d</fix>
</trkpt>
<trkpt lat="-27.2719608" lon="151.2906333">
  <ele>396.23</ele>
  <time>2026-09-01T19:55:17Z</time>
  <course>84.02</course>
  <speed>32.937061192522926</speed>
  <fix>3d</fix>
</trkpt>
<trkpt lat="-27.2719547" lon="151.2905719">
  <ele>396.12</ele>
  <time>2026-09-01T19:55:17Z</time>
  <course>93.43</course>
  <speed>32.25</speed>
  <fix>3d</fix>
</trkpt>
<trkpt lat="-27.2719657" lon="151.2906663">
  <ele>396.32</ele>
  <time>2026-09-01T19:55:17Z</time>
  <course>87.31</course>
  <speed>33.26717601480475</speed>
  <fix>3d</fix>
</trkpt>
<trkpt lat="-27.2719547" lon="151.2905719">
  <ele>396.12</ele>
  <time>2026-09-01T19:55:17Z</time>
  <course>93.43</course>
  <speed>32.25</speed>
  <fix>3d</fix>
</trkpt>
<trkpt lat="-27.2719718" lon="151.2906994">
  <ele>396.42</ele>
  <time>2026-09-01T19:55:17Z</time>
  <course>90.69</course>
  <speed>33.59950148439705</speed>
  <fix>3d</fix>
</trkpt>
<trkpt lat="-27.2719607" lon="151.2906373">
  <ele>396.3</ele>
  <time>2026-09-01T19:55:17Z</time>
  <course>98.31</course>
  <speed>32.95</speed>
  <fix>3d</fix>
</trkpt>
<trkpt lat="-27.2719793" lon="151.2907324">
  <ele>396.52</ele>
  <time>2026-09-01T19:55:17Z</time>
  <course>94.2</course>
  <speed>33.92266498964962</speed>
  <fix>3d</fix>
</trkpt>
<trkpt lat="-27.2719607" lon="151.2906373">
  <ele>396.3</ele>
  <time>2026-09-01T19:55:17Z</time>
  <course>98.31</course>
  <speed>32.95</speed>
  <fix>3d</fix>
</trkpt>
<trkpt lat="-27.2719883" lon="151.2907654">
  <ele>396.63</ele>
  <time>2026-09-01T19:55:17Z</time>
  <course>97.78</course>
  <speed>34.234827296190645</speed>
  <fix>3d</fix>
</trkpt>
<trkpt lat="-27.2719718" lon="151.2907035">
  <ele>396.5</ele>
  <time>2026-09-01T19:55:17Z</time>
  <course>103.33</course>
  <speed>33.62</speed>
  <fix>3d</fix>
</trkpt>
<trkpt lat="-27.2719987" lon="151.2907981">
  <ele>396.74</ele>
  <time>2026-09-01T19:55:17Z</time>
  <course>101.34</course>
  <speed>34.517353606555645</speed>
  <fix>3d</fix>
</trkpt>
<trkpt lat="-27.2719718" lon="151.2907035">
  <ele>396.5</ele>
  <time>2026-09-01T19:55:17Z</time>
  <course>103.33</course>
  <speed>33.62</speed>
  <fix>3d</fix>
</trkpt>
<trkpt lat="-27.2720105" lon="151.2908305">
  <ele>396.85</ele>
  <time>2026-09-01T19:55:17Z</time>
  <course>104.9</course>
  <speed>34.783831013848946</speed>
  <fix>3d</fix>
</trkpt>
<trkpt lat="-27.2719886" lon="151.2907693">
  <ele>396.7</ele>
  <time>2026-09-01T19:55:17Z</time>
  <course>108.56</course>
  <speed>34.24</speed>
  <fix>3d</fix>
</trkpt>
<trkpt lat="-27.2720237" lon="151.2908625">
  <ele>396.97</ele>
  <time>2026-09-01T19:55:17Z</time>
  <course>108.67</course>
  <speed>35.021299233466486</speed>
  <fix>3d</fix>
</trkpt>
<trkpt lat="-27.2719886" lon="151.2907693">
  <ele>396.7</ele>
  <time>2026-09-01T19:55:17Z</time>
  <course>108.56</course>
  <speed>34.24</speed>
  <fix>3d</fix>
</trkpt>
<trkpt lat="-27.2720384" lon="151.2908939">
  <ele>397.1</ele>
  <time>2026-09-01T19:55:17Z</time>
  <course>112.48</course>
  <speed>35.23564246611661</speed>
  <fix>3d</fix>
</trkpt>
<trkpt lat="-27.2720111" lon="151.2908343">
  <ele>396.93</ele>
  <time>2026-09-01T19:55:17Z</time>
  <course>113.92</course>
  <speed>34.78</speed>
  <fix>3d</fix>
</trkpt>
<trkpt lat="-27.2720545" lon="151.2909246">
  <ele>397.23</ele>
  <time>2026-09-01T19:55:17Z</time>
  <course>116.34</course>
  <speed>35.42305040506817</speed>
  <fix>3d</fix>
</trkpt>
<trkpt lat="-27.2720111" lon="151.2908343">
  <ele>396.93</ele>
  <time>2026-09-01T19:55:17Z</time>
  <course>113.92</course>
  <speed>34.78</speed>
  <fix>3d</fix>
</trkpt>
<trkpt lat="-27.2720719" lon="151.2909543">
  <ele>397.37</ele>
  <time>2026-09-01T19:55:17Z</time>
  <course>120.18</course>
  <speed>35.580921854274656</speed>
  <fix>3d</fix>
</trkpt>
<trkpt lat="-27.2720393" lon="151.2908975">
  <ele>397.17</ele>
  <time>2026-09-01T19:55:17Z</time>
  <course>119.39</course>
  <speed>35.23</speed>
  <fix>3d</fix>
</trkpt>
<trkpt lat="-27.2720908" lon="151.2909834">
  <ele>397.51</ele>
  <time>2026-09-01T19:55:17Z</time>
  <course>124.09</course>
  <speed>35.704236443313</speed>
  <fix>3d</fix>
</trkpt>
<trkpt lat="-27.2720393" lon="151.2908975">
  <ele>397.17</ele>
  <time>2026-09-01T19:55:17Z</time>
  <course>119.39</course>
  <speed>35.23</speed>
  <fix>3d</fix>
</trkpt>
<trkpt lat="-27.272111" lon="151.2910115">
  <ele>397.66</ele>
  <time>2026-09-01T19:55:17Z</time>
  <course>128.0</course>
  <speed>35.79895249864163</speed>
  <fix>3d</fix>
</trkpt>
<trkpt lat="-27.2720732" lon="151.2909581">
  <ele>397.43</ele>
  <time>2026-09-01T19:55:17Z</time>
  <course>125.01</course>
  <speed>35.57</speed>
  <fix>3d</fix>
</trkpt>
<trkpt lat="-27.2721325" lon="151.2910384">
  <ele>397.81</ele>
  <time>2026-09-01T19:55:17Z</time>
  <course>131.87</course>
  <speed>35.84832492599898</speed>
  <fix>3d</fix>
</trkpt>
<trkpt lat="-27.2720732" lon="151.2909581">
  <ele>397.43</ele>
  <time>2026-09-01T19:55:17Z</time>
  <course>125.01</course>
  <speed>35.57</speed>
  <fix>3d</fix>
</trkpt>
<trkpt lat="-27.2721553" lon="151.2910643">
  <ele>397.97</ele>
  <time>2026-09-01T19:55:17Z</time>
  <course>135.85</course>
  <speed>35.8606915716917</speed>
  <fix>3d</fix>
</trkpt>
<trkpt lat="-27.2721126" lon="151.2910149">
  <ele>397.71</ele>
  <time>2026-09-01T19:55:17Z</time>
  <course>130.73</course>
  <speed>35.78</speed>
  <fix>3d</fix>
</trkpt>
<trkpt lat="-27.2721791" lon="151.2910887">
  <ele>398.13</ele>
  <time>2026-09-01T19:55:17Z</time>
  <course>139.85</course>
  <speed>35.84351684754162</speed>
  <fix>3d</fix>
</trkpt>
<trkpt lat="-27.2721126" lon="151.2910149">
  <ele>397.71</ele>
  <time>2026-09-01T19:55:17Z</time>
  <course>130.73</course>
  <speed>35.78</speed>
  <fix>3d</fix>
</trkpt>
<trkpt lat="-27.2722039" lon="151.2911117">
  <ele>398.3</ele>
  <time>2026-09-01T19:55:17Z</time>
  <course>143.7</course>
  <speed>35.77520090789149</speed>
  <fix>3d</fix>
</trkpt>
<trkpt lat="-27.2721569" lon="151.2910673">
  <ele>398.01</ele>
  <time>2026-09-01T19:55:17Z</time>
  <course>136.49</course>
  <speed>35.85</speed>
  <fix>3d</fix>
</trkpt>
<trkpt lat="-27.2722297" lon="151.2911332">
  <ele>398.47</ele>
  <time>2026-09-01T19:55:17Z</time>
  <course>147.65</course>
  <speed>35.67918861185047</speed>
  <fix>3d</fix>
</trkpt>
<trkpt lat="-27.2721569" lon="151.2910673">
  <ele>398.01</ele>
  <time>2026-09-01T19:55:17Z</time>
  <course>136.49</course>
  <speed>35.85</speed>
  <fix>3d</fix>
</trkpt>
<trkpt lat="-27.2722562" lon="151.2911532">
  <ele>398.63</ele>
  <time>2026-09-01T19:55:17Z</time>
  <course>151.51</course>
  <speed>35.53865782496576</speed>
  <fix>3d</fix>
</trkpt>
<trkpt lat="-27.2722058" lon="151.2911145">
  <ele>398.33</ele>
  <time>2026-09-01T19:55:17Z</time>
  <course>142.24</course>
  <speed>35.76</speed>
  <fix>3d</fix>
</trkpt>
<trkpt lat="-27.2722836" lon="151.2911715">
  <ele>398.8</ele>
  <time>2026-09-01T19:55:17Z</time>
  <course>155.33</course>
  <speed>35.36582672580976</speed>
  <fix>3d</fix>
</trkpt>
<trkpt lat="-27.2722058" lon="151.2911145">
  <ele>398.33</ele>
  <time>2026-09-01T19:55:17Z</time>
  <course>142.24</course>
  <speed>35.76</speed>
  <fix>3d</fix>
</trkpt>
<trkpt lat="-27.2723115" lon="151.2911883">
  <ele>398.96</ele>
  <time>2026-09-01T19:55:17Z</time>
  <course>159.02</course>
  <speed>35.1599431171326</speed>
  <fix>3d</fix>
</trkpt>
<trkpt lat="-27.2722585" lon="151.2911558">
  <ele>398.65</ele>
  <time>2026-09-01T19:55:17Z</time>
  <course>147.97</course>
  <speed>35.53</speed>
  <fix>3d</fix>
</trkpt>
<trkpt lat="-27.2723399" lon="151.2912034">
  <ele>399.13</ele>
  <time>2026-09-01T19:55:17Z</time>
  <course>162.67</course>
  <speed>34.93209985099665</speed>
  <fix>3d</fix>
</trkpt>
<trkpt lat="-27.2722585" lon="151.2911558">
  <ele>398.65</ele>
  <time>2026-09-01T19:55:17Z</time>
  <course>147.97</course>
  <speed>35.53</speed>
  <fix>3d</fix>
</trkpt>
<trkpt lat="-27.2723687" lon="151.291217">
  <ele>399.29</ele>
  <time>2026-09-01T19:55:17Z</time>
  <course>166.33</course>
  <speed>34.66447749498036</speed>
  <fix>3d</fix>
</trkpt>
<trkpt lat="-27.2723139" lon="151.2911906">
  <ele>398.97</ele>
  <time>2026-09-01T19:55:17Z</time>
  <course>153.57</course>
  <speed>35.16</speed>
  <fix>3d</fix>
</trkpt>
<trkpt lat="-27.2723979" lon="151.2912288">
  <ele>399.44</ele>
  <time>2026-09-01T19:55:17Z</time>
  <course>169.92</course>
  <speed>34.367638848195554</speed>
  <fix>3d</fix>
</trkpt>
<trkpt lat="-27.2723139" lon="151.2911906">
  <ele>398.97</ele>
  <time>2026-09-01T19:55:17Z</time>
  <course>153.57</course>
  <speed>35.16</speed>
  <fix>3d</fix>
</trkpt>
<trkpt lat="-27.2724272" lon="151.2912391">
  <ele>399.59</ele>
  <time>2026-09-01T19:55:17Z</time>
  <course>173.43</course>
  <speed>34.050483109641775</speed>
  <fix>3d</fix>
</trkpt>
<trkpt lat="-27.2723713" lon="151.2912189">
  <ele>399.28</ele>
  <time>2026-09-01T19:55:17Z</time>
  <course>159.03</course>
  <speed>34.66</speed>
  <fix>3d</fix>
</trkpt>
<trkpt lat="-27.2724566" lon="151.2912477">
  <ele>399.74</ele>
  <time>2026-09-01T19:55:17Z</time>
  <course>176.88</course>
  <speed>33.704321681351196</speed>
  <fix>3d</fix>
</trkpt>
<trkpt lat="-27.2723713" lon="151.2912189">
  <ele>399.28</ele>
  <time>2026-09-01T19:55:17Z</time>
  <course>159.03</course>
  <speed>34.66</speed>
  <fix>3d</fix>
</trkpt>
<trkpt lat="-27.2724861" lon="151.2912548">
  <ele>399.87</ele>
  <time>2026-09-01T19:55:17Z</time>
  <course>180.26</course>
  <speed>33.33657600894249</speed>
  <fix>3d</fix>
</trkpt>
<trkpt lat="-27.2724299" lon="151.2912407">
  <ele>399.57</ele>
  <time>2026-09-01T19:55:17Z</time>
  <course>164.37</course>
  <speed>34.05</speed>
  <fix>3d</fix>
</trkpt>
<trkpt lat="-27.2725157" lon="151.2912603">
  <ele>400.0</ele>
  <time>2026-09-01T19:55:17Z</time>
  <course>183.5</course>
  <speed>32.945542945897856</speed>
  <fix>3d</fix>
</trkpt>
<trkpt lat="-27.2724299" lon="151.2912407">
  <ele>399.57</ele>
  <time>2026-09-01T19:55:17Z</time>
  <course>164.37</course>
  <speed>34.05</speed>
  <fix>3d</fix>
</trkpt>
<trkpt lat="-27.2725449" lon="151.2912644">
  <ele>400.12</ele>
  <time>2026-09-01T19:55:17Z</time>
  <course>186.61</course>
  <speed>32.54768962614705</speed>
  <fix>3d</fix>
</trkpt>
<trkpt lat="-27.2724889" lon="151.2912561">
  <ele>399.84</ele>
  <time>2026-09-01T19:55:17Z</time>
  <course>169.55</course>
  <speed>33.35</speed>
  <fix>3d</fix>
</trkpt>
<trkpt lat="-27.2725738" lon="151.291267">
  <ele>400.23</ele>
  <time>2026-09-01T19:55:17Z</time>
  <course>189.66</course>
  <speed>32.133298928059034</speed>
  <fix>3d</fix>
</trkpt>
<trkpt lat="-27.2724889" lon="151.2912561">
  <ele>399.84</ele>
  <time>2026-09-01T19:55:17Z</time>
  <course>169.55</course>
  <speed>33.35</speed>
  <fix>3d</fix>
</trkpt>
<trkpt lat="-27.2726025" lon="151.2912683">
  <ele>400.32</ele>
  <time>2026-09-01T19:55:17Z</time>
  <course>192.53</course>
  <speed>31.725302205022412</speed>
  <fix>3d</fix>
</trkpt>
<trkpt lat="-27.2725475" lon="151.2912653">
  <ele>400.08</ele>
  <time>2026-09-01T19:55:17Z</time>
  <course>174.48</course>
  <speed>32.57</speed>
  <fix>3d</fix>
</trkpt>
<trkpt lat="-27.2726306" lon="151.2912683">
  <ele>400.4</ele>
  <time>2026-09-01T19:55:17Z</time>
  <course>195.18</course>
  <speed>31.305373340690252</speed>
  <fix>3d</fix>
</trkpt>
<trkpt lat="-27.2725475" lon="151.2912653">
  <ele>400.08</ele>
  <time>2026-09-01T19:55:17Z</time>
  <course>174.48</course>
  <speed>32.57</speed>
  <fix>3d</fix>
</trkpt>
<trkpt lat="-27.2726586" lon="151.2912672">
  <ele>400.45</ele>
  <time>2026-09-01T19:55:17Z</time>
  <course>197.82</course>
  <speed>30.896804041842255</speed>
  <fix>3d</fix>
</trkpt>
<trkpt lat="-27.2726052" lon="151.291269">
  <ele>400.27</ele>
  <time>2026-09-01T19:55:17Z</time>
  <course>179.08</course>
  <speed>31.75</speed>
  <fix>3d</fix>
</trkpt>
<trkpt lat="-27.2726861" lon="151.291265">
  <ele>400.49</ele>
  <time>2026-09-01T19:55:17Z</time>
  <course>200.38</course>
  <speed>30.464374275536994</speed>
  <fix>3d</fix>
</trkpt>
<trkpt lat="-27.2726052" lon="151.291269">
  <ele>400.27</ele>
  <time>2026-09-01T19:55:17Z</time>
  <course>179.08</course>
  <speed>31.75</speed>
  <fix>3d</fix>
</trkpt>
<trkpt lat="-27.2727132" lon="151.2912618">
  <ele>400.52</ele>
  <time>2026-09-01T19:55:17Z</time>
  <course>202.8</course>
  <speed>30.04245329529531</speed>
  <fix>3d</fix>
</trkpt>
<trkpt lat="-27.2726613" lon="151.2912676">
  <ele>400.4</ele>
  <time>2026-09-01T19:55:17Z</time>
  <course>183.37</course>
  <speed>30.91</speed>
  <fix>3d</fix>
</trkpt>
<trkpt lat="-27.27274" lon="151.2912575">
  <ele>400.52</ele>
  <time>2026-09-01T19:55:17Z</time>
  <course>205.14</course>
  <speed>29.62561729314682</speed>
  <fix>3d</fix>
</trkpt>
<trkpt lat="-27.2726613" lon="151.2912676">
  <ele>400.4</ele>
  <time>2026-09-01T19:55:17Z</time>
  <course>183.37</course>
  <speed>30.91</speed>
  <fix>3d</fix>
</trkpt>
<trkpt lat="-27.272766" lon="151.2912526">
  <ele>400.5</ele>
  <time>2026-09-01T19:55:17Z</time>
  <course>207.35</course>
  <speed>29.21849414326481</speed>
  <fix>3d</fix>
</trkpt>
<trkpt lat="-27.2727159" lon="151.2912619">
  <ele>400.47</ele>
  <time>2026-09-01T19:55:17Z</time>
  <course>187.35</course>
  <speed>30.07</speed>
  <fix>3d</fix>
</trkpt>
<trkpt lat="-27.2727915" lon="151.2912467">
  <ele>400.47</ele>
  <time>2026-09-01T19:55:17Z</time>
  <course>209.52</course>
  <speed>28.81595738475472</speed>
  <fix>3d</fix>
</trkpt>
<trkpt lat="-27.2727159" lon="151.2912619">
  <ele>400.47</ele>
  <time>2026-09-01T19:55:17Z</time>
  <course>187.35</course>
  <speed>30.07</speed>
  <fix>3d</fix>
</trkpt>
<trkpt lat="-27.2728164" lon="151.2912401">
  <ele>400.4</ele>
  <time>2026-09-01T19:55:17Z</time>
  <course>211.72</course>
  <speed>28.406001126522543</speed>
  <fix>3d</fix>
</trkpt>
<trkpt lat="-27.2727685" lon="151.2912523">
  <ele>400.45</ele>
  <time>2026-09-01T19:55:17Z</time>
  <course>191.05</course>
  <speed>29.24</speed>
  <fix>3d</fix>
</trkpt>
<trkpt lat="-27.2728407" lon="151.2912327">
  <ele>400.32</ele>
  <time>2026-09-01T19:55:17Z</time>
  <course>213.83</course>
  <speed>27.99547284830174</speed>
  <fix>3d</fix>
</trkpt>
<trkpt lat="-27.2727685" lon="151.2912523">
  <ele>400.45</ele>
  <time>2026-09-01T19:55:17Z</time>
  <course>191.05</course>
  <speed>29.24</speed>
  <fix>3d</fix>
</trkpt>
<trkpt lat="-27.2728645" lon="151.2912246">
  <ele>400.21</ele>
  <time>2026-09-01T19:55:17Z</time>
  <course>215.93</course>
  <speed>27.58678125479665</speed>
  <fix>3d</fix>
</trkpt>
<trkpt lat="-27.2728191" lon="151.2912393">
  <ele>400.34</ele>
  <time>2026-09-01T19:55:17Z</time>
  <course>194.56</course>
  <speed>28.43</speed>
  <fix>3d</fix>
</trkpt>
<trkpt lat="-27.2728878" lon="151.2912158">
  <ele>400.08</ele>
  <time>2026-09-01T19:55:17Z</time>
  <course>218.0</course>
  <speed>27.193076324682355</speed>
  <fix>3d</fix>
</trkpt>
<trkpt lat="-27.2728191" lon="151.2912393">
  <ele>400.34</ele>
  <time>2026-09-01T19:55:17Z</time>
  <course>194.56</course>
  <speed>28.43</speed>
  <fix>3d</fix>
</trkpt>
<trkpt lat="-27.2729105" lon="151.2912064">
  <ele>399.93</ele>
  <time>2026-09-01T19:55:17Z</time>
  <course>220.07</course>
  <speed>26.807137109359516</speed>
  <fix>3d</fix>
</trkpt>
<trkpt lat="-27.2728674" lon="151.2912234">
  <ele>400.14</ele>
  <time>2026-09-01T19:55:17Z</time>
  <course>198.02</course>
  <speed>27.62</speed>
  <fix>3d</fix>
</trkpt>
<trkpt lat="-27.2729326" lon="151.2911963">
  <ele>399.75</ele>
  <time>2026-09-01T19:55:17Z</time>
  <course>222.15</course>
  <speed>26.419405746534117</speed>
  <fix>3d</fix>
</trkpt>
<trkpt lat="-27.2728674" lon="151.2912234">
  <ele>400.14</ele>
  <time>2026-09-01T19:55:17Z</time>
  <course>198.02</course>
  <speed>27.62</speed>
  <fix>3d</fix>
</trkpt>
<trkpt lat="-27.2729541" lon="151.2911857">
  <ele>399.56</ele>
  <time>2026-09-01T19:55:17Z</time>
  <course>224.23</course>
  <speed>26.03410263481344</speed>
  <fix>3d</fix>
</trkpt>
<trkpt lat="-27.2729135" lon="151.2912048">
  <ele>399.85</ele>
  <time>2026-09-01T19:55:17Z</time>
  <course>201.44</course>
  <speed>26.84</speed>
  <fix>3d</fix>
</trkpt>
<trkpt lat="-27.272975" lon="151.2911744">
  <ele>399.34</ele>
  <time>2026-09-01T19:55:17Z</time>
  <course>226.35</course>
  <speed>25.64778742893819</speed>
  <fix>3d</fix>
</trkpt>
<trkpt lat="-27.2729135" lon="151.2912048">
  <ele>399.85</ele>
  <time>2026-09-01T19:55:17Z</time>
  <course>201.44</course>
  <speed>26.84</speed>
  <fix>3d</fix>
</trkpt>
<trkpt lat="-27.2729953" lon="151.2911626">
  <ele>399.11</ele>
  <time>2026-09-01T19:55:17Z</time>
  <course>228.56</course>
  <speed>25.266137417500126</speed>
  <fix>3d</fix>
</trkpt>
<trkpt lat="-27.2729572" lon="151.2911838">
  <ele>399.47</ele>
  <time>2026-09-01T19:55:17Z</time>
  <course>204.96</course>
  <speed>26.07</speed>
  <fix>3d</fix>
</trkpt>
<trkpt lat="-27.2730149" lon="151.2911502">
  <ele>398.86</ele>
  <time>2026-09-01T19:55:17Z</time>
  <course>230.77</course>
  <speed>24.868924383655997</speed>
  <fix>3d</fix>
</trkpt>
<trkpt lat="-27.2729572" lon="151.2911838">
  <ele>399.47</ele>
  <time>2026-09-01T19:55:17Z</time>
  <course>204.96</course>
  <speed>26.07</speed>
  <fix>3d</fix>
</trkpt>
<trkpt lat="-27.2730338" lon="151.2911372">
  <ele>398.6</ele>
  <time>2026-09-01T19:55:17Z</time>
  <course>232.94</course>
  <speed>24.491592434956125</speed>
  <fix>3d</fix>
</trkpt>
<trkpt lat="-27.2729983" lon="151.2911604">
  <ele>399.03</ele>
  <time>2026-09-01T19:55:17Z</time>
  <course>208.69</course>
  <speed>25.3</speed>
  <fix>3d</fix>
</trkpt>
<trkpt lat="-27.2730521" lon="151.2911237">
  <ele>398.33</ele>
  <time>2026-09-01T19:55:17Z</time>
  <course>235.16</course>
  <speed>24.117217915837642</speed>
  <fix>3d</fix>
</trkpt>
<trkpt lat="-27.2729983" lon="151.2911604">
  <ele>399.03</ele>
  <time>2026-09-01T19:55:17Z</time>
  <course>208.69</course>
  <speed>25.3</speed>
  <fix>3d</fix>
</trkpt>
<trkpt lat="-27.2730696" lon="151.2911096">
  <ele>398.05</ele>
  <time>2026-09-01T19:55:17Z</time>
  <course>237.41</course>
  <speed>23.754666909893725</speed>
  <fix>3d</fix>
</trkpt>
<trkpt lat="-27.2730368" lon="151.2911346">
  <ele>398.53</ele>
  <time>2026-09-01T19:55:17Z</time>
  <course>212.65</course>
  <speed>24.53</speed>
  <fix>3d</fix>
</trkpt>
<trkpt lat="-27.2730864" lon="151.2910951">
  <ele>397.76</ele>
  <time>2026-09-01T19:55:17Z</time>
  <course>239.74</course>
  <speed>23.379212989320237</speed>
  <fix>3d</fix>
</trkpt>
<trkpt lat="-27.2730368" lon="151.2911346">
  <ele>398.53</ele>
  <time>2026-09-01T19:55:17Z</time>
  <course>212.65</course>
  <speed>24.53</speed>
  <fix>3d</fix>
</trkpt>
<trkpt lat="-27.2731025" lon="151.2910801">
  <ele>397.47</ele>
  <time>2026-09-01T19:55:17Z</time>
  <course>242.01</course>
  <speed>23.011236385731213</speed>
  <fix>3d</fix>
</trkpt>
<trkpt lat="-27.2730725" lon="151.2911069">
  <ele>397.99</ele>
  <time>2026-09-01T19:55:17Z</time>
  <course>216.82</course>
  <speed>23.78</speed>
  <fix>3d</fix>
</trkpt>
<trkpt lat="-27.2731177" lon="151.2910646">
  <ele>397.18</ele>
  <time>2026-09-01T19:55:17Z</time>
  <course>244.34</course>
  <speed>22.638462845343543</speed>
  <fix>3d</fix>
</trkpt>
<trkpt lat="-27.2730725" lon="151.2911069">
  <ele>397.99</ele>
  <time>2026-09-01T19:55:17Z</time>
  <course>216.82</course>
  <speed>23.78</speed>
  <fix>3d</fix>
</trkpt>
<trkpt lat="-27.2731321" lon="151.2910486">
  <ele>396.89</ele>
  <time>2026-09-01T19:55:17Z</time>
  <course>246.61</course>
  <speed>22.28901523172345</speed>
  <fix>3d</fix>
</trkpt>
<trkpt lat="-27.2731051" lon="151.2910771">
  <ele>397.42</ele>
  <time>2026-09-01T19:55:17Z</time>
  <course>221.24</course>
  <speed>23.04</speed>
  <fix>3d</fix>
</trkpt>
<trkpt lat="-27.2731458" lon="151.2910323">
  <ele>396.6</ele>
  <time>2026-09-01T19:55:17Z</time>
  <course>248.89</course>
  <speed>21.942062346096822</speed>
  <fix>3d</fix>
</trkpt>
<trkpt lat="-27.2731051" lon="151.2910771">
  <ele>397.42</ele>
  <time>2026-09-01T19:55:17Z</time>
  <course>221.24</course>
  <speed>23.04</speed>
  <fix>3d</fix>
</trkpt>
<trkpt lat="-27.2731587" lon="151.2910155">
  <ele>396.31</ele>
  <time>2026-09-01T19:55:17Z</time>
  <course>251.15</course>
  <speed>21.59096570327506</speed>
  <fix>3d</fix>
</trkpt>
<trkpt lat="-27.2731346" lon="151.2910456">
  <ele>396.85</ele>
  <time>2026-09-01T19:55:17Z</time>
  <course>225.89</course>
  <speed>22.32</speed>
  <fix>3d</fix>
</trkpt>
<trkpt lat="-27.2731707" lon="151.2909985">
  <ele>396.03</ele>
  <time>2026-09-01T19:55:17Z</time>
  <course>253.27</course>
  <speed>21.260397456303586</speed>
  <fix>3d</fix>
</trkpt>
<trkpt lat="-27.2731346" lon="151.2910456">
  <ele>396.85</ele>
  <time>2026-09-01T19:55:17Z</time>
  <course>225.89</course>
  <speed>22.32</speed>
  <fix>3d</fix>
</trkpt>
<trkpt lat="-27.2731819" lon="151.2909812">
  <ele>395.76</ele>
  <time>2026-09-01T19:55:17Z</time>
  <course>255.35</course>
  <speed>20.947004559124917</speed>
  <fix>3d</fix>
</trkpt>
<trkpt lat="-27.2731609" lon="151.2910125">
  <ele>396.29</ele>
  <time>2026-09-01T19:55:17Z</time>
  <course>230.68</course>
  <speed>21.62</speed>
  <fix>3d</fix>
</trkpt>
<trkpt lat="-27.2731923" lon="151.2909637">
  <ele>395.5</ele>
  <time>2026-09-01T19:55:17Z</time>
  <course>257.41</course>
  <speed>20.647472000223175</speed>
  <fix>3d</fix>
</trkpt>
<trkpt lat="-27.2731609" lon="151.2910125">
  <ele>396.29</ele>
  <time>2026-09-01T19:55:17Z</time>
  <course>230.68</course>
  <speed>21.62</speed>
  <fix>3d</fix>
</trkpt>
<trkpt lat="-27.2732019" lon="151.2909459">
  <ele>395.24</ele>
  <time>2026-09-01T19:55:17Z</time>
  <course>259.43</course>
  <speed>20.362160985514283</speed>
  <fix>3d</fix>
</trkpt>
<trkpt lat="-27.2731839" lon="151.290978">
  <ele>395.74</ele>
  <time>2026-09-01T19:55:17Z</time>
  <course>235.46</course>
  <speed>20.97</speed>
  <fix>3d</fix>
</trkpt>
<trkpt lat="-27.2732107" lon="151.290928">
  <ele>394.99</ele>
  <time>2026-09-01T19:55:17Z</time>
  <course>261.34</course>
  <speed>20.094218073863935</speed>
  <fix>3d</fix>
</trkpt>
<trkpt lat="-27.2731839" lon="151.290978">
  <ele>395.74</ele>
  <time>2026-09-01T19:55:17Z</time>
  <course>235.46</course>
  <speed>20.97</speed>
  <fix>3d</fix>
</trkpt>
<trkpt lat="-27.2732188" lon="151.29091">
  <ele>394.74</ele>
  <time>2026-09-01T19:55:17Z</time>
  <course>263.13</course>
  <speed>19.840725793176013</speed>
  <fix>3d</fix>
</trkpt>
<trkpt lat="-27.2732037" lon="151.2909426">
  <ele>395.22</ele>
  <time>2026-09-01T19:55:17Z</time>
  <course>240.15</course>
  <speed>20.39</speed>
  <fix>3d</fix>
</trkpt>
<trkpt lat="-27.2732262" lon="151.2908918">
  <ele>394.51</ele>
  <time>2026-09-01T19:55:17Z</time>
  <course>264.83</course>
  <speed>19.614943283119633</speed>
  <fix>3d</fix>
</trkpt>
<trkpt lat="-27.2732037" lon="151.2909426">
  <ele>395.22</ele>
  <time>2026-09-01T19:55:17Z</time>
  <course>240.15</course>
  <speed>20.39</speed>
  <fix>3d</fix>
</trkpt>
<trkpt lat="-27.273233" lon="151.2908736">
  <ele>394.28</ele>
  <time>2026-09-01T19:55:18Z</time>
  <course>266.51</course>
  <speed>19.399860824243046</speed>
  <fix>3d</fix>
</trkpt>
<trkpt lat="-27.2732204" lon="151.2909065">
  <ele>394.73</ele>
  <time>2026-09-01T19:55:18Z</time>
  <course>244.66</course>
  <speed>19.86</speed>
  <fix>3d</fix>
</trkpt>
<trkpt lat="-27.2732391" lon="151.2908553">
  <ele>394.06</ele>
  <time>2026-09-01T19:55:18Z</time>
  <course>268.07</course>
  <speed>19.20485355320368</speed>
  <fix>3d</fix>
</trkpt>
<trkpt lat="-27.2732204" lon="151.2909065">
  <ele>394.73</ele>
  <time>2026-09-01T19:55:18Z</time>
  <course>244.66</course>
  <speed>19.86</speed>
  <fix>3d</fix>
</trkpt>
<trkpt lat="-27.2732446" lon="151.2908369">
  <ele>393.85</ele>
  <time>2026-09-01T19:55:18Z</time>
  <course>269.54</course>
  <speed>19.022999237764797</speed>
  <fix>3d</fix>
</trkpt>
<trkpt lat="-27.2732343" lon="151.2908701">
  <ele>394.28</ele>
  <time>2026-09-01T19:55:18Z</time>
  <course>248.87</course>
  <speed>19.42</speed>
  <fix>3d</fix>
</trkpt>
<trkpt lat="-27.2732495" lon="151.2908185">
  <ele>393.64</ele>
  <time>2026-09-01T19:55:18Z</time>
  <course>270.97</course>
  <speed>18.856884684379867</speed>
  <fix>3d</fix>
</trkpt>
<trkpt lat="-27.2732343" lon="151.2908701">
  <ele>394.28</ele>
  <time>2026-09-01T19:55:18Z</time>
  <course>248.87</course>
  <speed>19.42</speed>
  <fix>3d</fix>
</trkpt>
<trkpt lat="-27.2732539" lon="151.2908001">
  <ele>393.44</ele>
  <time>2026-09-01T19:55:18Z</time>
  <course>272.32</course>
  <speed>18.714061558090485</speed>
  <fix>3d</fix>
</trkpt>
<trkpt lat="-27.2732456" lon="151.2908334">
  <ele>393.85</ele>
  <time>2026-09-01T19:55:18Z</time>
  <course>252.75</course>
  <speed>19.04</speed>
  <fix>3d</fix>
</trkpt>
<trkpt lat="-27.2732577" lon="151.2907818">
  <ele>393.24</ele>
  <time>2026-09-01T19:55:18Z</time>
  <course>273.61</course>
  <speed>18.580096878111263</speed>
  <fix>3d</fix>
</trkpt>
<trkpt lat="-27.2732456" lon="151.2908334">
  <ele>393.85</ele>
  <time>2026-09-01T19:55:18Z</time>
  <course>252.75</course>
  <speed>19.04</speed>
  <fix>3d</fix>
</trkpt>
<trkpt lat="-27.2732611" lon="151.2907634">
  <ele>393.06</ele>
  <time>2026-09-01T19:55:18Z</time>
  <course>274.89</course>
  <speed>18.46474749353481</speed>
  <fix>3d</fix>
</trkpt>
<trkpt lat="-27.2732547" lon="151.2907966">
  <ele>393.46</ele>
  <time>2026-09-01T19:55:18Z</time>
  <course>256.29</course>
  <speed>18.72</speed>
  <fix>3d</fix>
</trkpt>
<trkpt lat="-27.273264" lon="151.290745">
  <ele>392.87</ele>
  <time>2026-09-01T19:55:18Z</time>
  <course>276.05</course>
  <speed>18.346934348822423</speed>
  <fix>3d</fix>
</trkpt>
<trkpt lat="-27.2732547" lon="151.2907966">
  <ele>393.46</ele>
  <time>2026-09-01T19:55:18Z</time>
  <course>256.29</course>
  <speed>18.72</speed>
  <fix>3d</fix>
</trkpt>
<trkpt lat="-27.2732665" lon="151.2907267">
  <ele>392.7</ele>
  <time>2026-09-01T19:55:18Z</time>
  <course>277.16</course>
  <speed>18.256157865224544</speed>
  <fix>3d</fix>
</trkpt>
<trkpt lat="-27.2732617" lon="151.2907599">
  <ele>393.09</ele>
  <time>2026-09-01T19:55:18Z</time>
  <course>259.52</course>
  <speed>18.46</speed>
  <fix>3d</fix>
</trkpt>
<trkpt lat="-27.2732686" lon="151.2907084">
  <ele>392.53</ele>
  <time>2026-09-01T19:55:18Z</time>
  <course>278.28</course>
  <speed>18.168307571152575</speed>
  <fix>3d</fix>
</trkpt>
<trkpt lat="-27.2732617" lon="151.2907599">
  <ele>393.09</ele>
  <time>2026-09-01T19:55:18Z</time>
  <course>259.52</course>
  <speed>18.46</speed>
  <fix>3d</fix>
</trkpt>
<trkpt lat="-27.2732702" lon="151.2906901">
  <ele>392.37</ele>
  <time>2026-09-01T19:55:18Z</time>
  <course>279.31</course>
  <speed>18.083611364990123</speed>
  <fix>3d</fix>
</trkpt>
<trkpt lat="-27.2732668" lon="151.2907233">
  <ele>392.73</ele>
  <time>2026-09-01T19:55:18Z</time>
  <course>262.5</course>
  <speed>18.25</speed>
  <fix>3d</fix>
</trkpt>
<trkpt lat="-27.2732715" lon="151.2906719">
  <ele>392.22</ele>
  <time>2026-09-01T19:55:18Z</time>
  <course>280.26</course>
  <speed>18.010691269354435</speed>
  <fix>3d</fix>
</trkpt>
<trkpt lat="-27.2732668" lon="151.2907233">
  <ele>392.73</ele>
  <time>2026-09-01T19:55:18Z</time>
  <course>262.5</course>
  <speed>18.25</speed>
  <fix>3d</fix>
</trkpt>
<trkpt lat="-27.2732723" lon="151.2906539">
  <ele>392.07</ele>
  <time>2026-09-01T19:55:18Z</time>
  <course>281.2</course>
  <speed>17.94828682632412</speed>
  <fix>3d</fix>
</trkpt>
<trkpt lat="-27.2732703" lon="151.2906868">
  <ele>392.41</ele>
  <time>2026-09-01T19:55:18Z</time>
  <course>265.29</course>
  <speed>18.08</speed>
  <fix>3d</fix>
</trkpt>
<trkpt lat="-27.2732729" lon="151.2906357">
  <ele>391.94</ele>
  <time>2026-09-01T19:55:18Z</time>
  <course>282.19</course>
  <speed>17.895166945295593</speed>
  <fix>3d</fix>
</trkpt>
<trkpt lat="-27.2732703" lon="151.2906868">
  <ele>392.41</ele>
  <time>2026-09-01T19:55:18Z</time>
  <course>265.29</course>
  <speed>18.08</speed>
  <fix>3d</fix>
</trkpt>
<trkpt lat="-27.273273" lon="151.2906177">
  <ele>391.81</ele>
  <time>2026-09-01T19:55:18Z</time>
  <course>283.17</course>
  <speed>17.83007010642415</speed>
  <fix>3d</fix>
</trkpt>
<trkpt lat="-27.2732722" lon="151.2906504">
  <ele>392.12</ele>
  <time>2026-09-01T19:55:18Z</time>
  <course>267.89</course>
  <speed>17.94</speed>
  <fix>3d</fix>
</trkpt>
<trkpt lat="-27.2732729" lon="151.2905996">
  <ele>391.69</ele>
  <time>2026-09-01T19:55:18Z</time>
  <course>284.04</course>
  <speed>17.78270226934028</speed>
  <fix>3d</fix>
</trkpt>
<trkpt lat="-27.2732722" lon="151.2906504">
  <ele>392.12</ele>
  <time>2026-09-01T19:55:18Z</time>
  <course>267.89</course>
  <speed>17.94</speed>
  <fix>3d</fix>
</trkpt>
<trkpt lat="-27.2732725" lon="151.2905817">
  <ele>391.58</ele>
  <time>2026-09-01T19:55:18Z</time>
  <course>284.85</course>
  <speed>17.73191755000006</speed>
  <fix>3d</fix>
</trkpt>
<trkpt lat="-27.2732727" lon="151.2906142">
  <ele>391.87</ele>
  <time>2026-09-01T19:55:18Z</time>
  <course>270.33</course>
  <speed>17.82</speed>
  <fix>3d</fix>
</trkpt>
<trkpt lat="-27.2732717" lon="151.2905636">
  <ele>391.48</ele>
  <time>2026-09-01T19:55:18Z</time>
  <course>285.73</course>
  <speed>17.688289911690163</speed>
  <fix>3d</fix>
</trkpt>
<trkpt lat="-27.2732727" lon="151.2906142">
  <ele>391.87</ele>
  <time>2026-09-01T19:55:18Z</time>
  <course>270.33</course>
  <speed>17.82</speed>
  <fix>3d</fix>
</trkpt>
<trkpt lat="-27.2732706" lon="151.2905458">
  <ele>391.4</ele>
  <time>2026-09-01T19:55:18Z</time>
  <course>286.54</course>
  <speed>17.650937652147547</speed>
  <fix>3d</fix>
</trkpt>
<trkpt lat="-27.2732719" lon="151.2905782">
  <ele>391.65</ele>
  <time>2026-09-01T19:55:18Z</time>
  <course>272.64</course>
  <speed>17.72</speed>
  <fix>3d</fix>
</trkpt>
<trkpt lat="-27.2732692" lon="151.2905279">
  <ele>391.32</ele>
  <time>2026-09-01T19:55:18Z</time>
  <course>287.31</course>
  <speed>17.609366825641402</speed>
  <fix>3d</fix>
</trkpt>
<trkpt lat="-27.2732719" lon="151.2905782">
  <ele>391.65</ele>
  <time>2026-09-01T19:55:18Z</time>
  <course>272.64</course>
  <speed>17.72</speed>
  <fix>3d</fix>
</trkpt>
<trkpt lat="-27.2732674" lon="151.2905102">
  <ele>391.26</ele>
  <time>2026-09-01T19:55:18Z</time>
  <course>288.06</course>
  <speed>17.573039008663244</speed>
  <fix>3d</fix>
</trkpt>
<trkpt lat="-27.2732698" lon="151.2905426">
  <ele>391.47</ele>
  <time>2026-09-01T19:55:18Z</time>
  <course>274.85</course>
  <speed>17.63</speed>
  <fix>3d</fix>
</trkpt>
<trkpt lat="-27.2732655" lon="151.2904926">
  <ele>391.2</ele>
  <time>2026-09-01T19:55:18Z</time>
  <course>288.84</course>
  <speed>17.531525889094766</speed>
  <fix>3d</fix>
</trkpt>
<trkpt lat="-27.2732698" lon="151.2905426">
  <ele>391.47</ele>
  <time>2026-09-01T19:55:18Z</time>
  <course>274.85</course>
  <speed>17.63</speed>
  <fix>3d</fix>
</trkpt>
<trkpt lat="-27.2732632" lon="151.2904751">
  <ele>391.16</ele>
  <time>2026-09-01T19:55:18Z</time>
  <course>289.49</course>
  <speed>17.495773775400732</speed>
  <fix>3d</fix>
</trkpt>
<trkpt lat="-27.2732666" lon="151.2905072">
  <ele>391.34</ele>
  <time>2026-09-01T19:55:18Z</time>
  <course>276.99</course>
  <speed>17.56</speed>
  <fix>3d</fix>
</trkpt>
<trkpt lat="-27.2732606" lon="151.2904576">
  <ele>391.12</ele>
  <time>2026-09-01T19:55:18Z</time>
  <course>290.16</course>
  <speed>17.464148991577</speed>
  <fix>3d</fix>
</trkpt>
<trkpt lat="-27.2732666" lon="151.2905072">
  <ele>391.34</ele>
  <time>2026-09-01T19:55:18Z</time>
  <course>276.99</course>
  <speed>17.56</speed>
  <fix>3d</fix>
</trkpt>
<trkpt lat="-27.2732578" lon="151.2904403">
  <ele>391.1</ele>
  <time>2026-09-01T19:55:18Z</time>
  <course>290.91</course>
  <speed>17.42449425377965</speed>
  <fix>3d</fix>
</trkpt>
<trkpt lat="-27.2732622" lon="151.2904721">
  <ele>391.24</ele>
  <time>2026-09-01T19:55:18Z</time>
  <course>279.05</course>
  <speed>17.48</speed>
  <fix>3d</fix>
</trkpt>
<trkpt lat="-27.2732548" lon="151.290423">
  <ele>391.09</ele>
  <time>2026-09-01T19:55:18Z</time>
  <course>291.59</course>
  <speed>17.38972397710786</speed>
  <fix>3d</fix>
</trkpt>
<trkpt lat="-27.2732622" lon="151.2904721">
  <ele>391.24</ele>
  <time>2026-09-01T19:55:18Z</time>
  <course>279.05</course>
  <speed>17.48</speed>
  <fix>3d</fix>
</trkpt>
<trkpt lat="-27.2732515" lon="151.2904058">
  <ele>391.07</ele>
  <time>2026-09-01T19:55:18Z</time>
  <course>292.23</course>
  <speed>17.357710102429987</speed>
  <fix>3d</fix>
</trkpt>
<trkpt lat="-27.2732567" lon="151.2904374">
  <ele>391.19</ele>
  <time>2026-09-01T19:55:18Z</time>
  <course>281.01</course>
  <speed>17.41</speed>
  <fix>3d</fix>
</trkpt>
<trkpt lat="-27.2732479" lon="151.2903888">
  <ele>391.07</ele>
  <time>2026-09-01T19:55:18Z</time>
  <course>292.93</course>
  <speed>17.32290102725291</speed>
  <fix>3d</fix>
</trkpt>
<trkpt lat="-27.2732567" lon="151.2904374">
  <ele>391.19</ele>
  <time>2026-09-01T19:55:18Z</time>
  <course>281.01</course>
  <speed>17.41</speed>
  <fix>3d</fix>
</trkpt>
<trkpt lat="-27.2732441" lon="151.2903718">
  <ele>391.08</ele>
  <time>2026-09-01T19:55:18Z</time>
  <course>293.57</course>
  <speed>17.280963514804377</speed>
  <fix>3d</fix>
</trkpt>
<trkpt lat="-27.2732502" lon="151.2904031">
  <ele>391.16</ele>
  <time>2026-09-01T19:55:18Z</time>
  <course>282.91</course>
  <speed>17.34</speed>
  <fix>3d</fix>
</trkpt>
<trkpt lat="-27.2732401" lon="151.290355">
  <ele>391.09</ele>
  <time>2026-09-01T19:55:18Z</time>
  <course>294.17</course>
  <speed>17.24121225436309</speed>
  <fix>3d</fix>
</trkpt>
<trkpt lat="-27.2732502" lon="151.2904031">
  <ele>391.16</ele>
  <time>2026-09-01T19:55:18Z</time>
  <course>282.91</course>
  <speed>17.34</speed>
  <fix>3d</fix>
</trkpt>
<trkpt lat="-27.2732358" lon="151.2903382">
  <ele>391.11</ele>
  <time>2026-09-01T19:55:18Z</time>
  <course>294.78</course>
  <speed>17.206001859816244</speed>
  <fix>3d</fix>
</trkpt>
<trkpt lat="-27.2732428" lon="151.2903691">
  <ele>391.16</ele>
  <time>2026-09-01T19:55:18Z</time>
  <course>284.79</course>
  <speed>17.27</speed>
  <fix>3d</fix>
</trkpt>
<trkpt lat="-27.2732313" lon="151.2903216">
  <ele>391.13</ele>
  <time>2026-09-01T19:55:18Z</time>
  <course>295.41</course>
  <speed>17.165806127298538</speed>
  <fix>3d</fix>
</trkpt>
<trkpt lat="-27.2732428" lon="151.2903691">
  <ele>391.16</ele>
  <time>2026-09-01T19:55:18Z</time>
  <course>284.79</course>
  <speed>17.27</speed>
  <fix>3d</fix>
</trkpt>
<trkpt lat="-27.2732265" lon="151.2903051">
  <ele>391.16</ele>
  <time>2026-09-01T19:55:18Z</time>
  <course>296.09</course>
  <speed>17.13980746682996</speed>
  <fix>3d</fix>
</trkpt>
<trkpt lat="-27.2732344" lon="151.2903356">
  <ele>391.2</ele>
  <time>2026-09-01T19:55:18Z</time>
  <course>286.65</course>
  <speed>17.19</speed>
  <fix>3d</fix>
</trkpt>
<trkpt lat="-27.2732216" lon="151.2902888">
  <ele>391.19</ele>
  <time>2026-09-01T19:55:18Z</time>
  <course>296.74</course>
  <speed>17.108974253297596</speed>
  <fix>3d</fix>
</trkpt>
<trkpt lat="-27.2732344" lon="151.2903356">
  <ele>391.2</ele>
  <time>2026-09-01T19:55:18Z</time>
  <course>286.65</course>
  <speed>17.19</speed>
  <fix>3d</fix>
</trkpt>
<trkpt lat="-27.2732164" lon="151.2902726">
  <ele>391.23</ele>
  <time>2026-09-01T19:55:18Z</time>
  <course>297.4</course>
  <speed>17.064096811727246</speed>
  <fix>3d</fix>
</trkpt>
<trkpt lat="-27.2732251" lon="151.2903025">
  <ele>391.26</ele>
  <time>2026-09-01T19:55:18Z</time>
  <course>288.51</course>
  <speed>17.13</speed>
  <fix>3d</fix>
</trkpt>
<trkpt lat="-27.273211" lon="151.2902565">
  <ele>391.27</ele>
  <time>2026-09-01T19:55:18Z</time>
  <course>298.09</course>
  <speed>17.027815479385488</speed>
  <fix>3d</fix>
</trkpt>
<trkpt lat="-27.2732251" lon="151.2903025">
  <ele>391.26</ele>
  <time>2026-09-01T19:55:18Z</time>
  <course>288.51</course>
  <speed>17.13</speed>
  <fix>3d</fix>
</trkpt>
<trkpt lat="-27.2732053" lon="151.2902405">
  <ele>391.32</ele>
  <time>2026-09-01T19:55:18Z</time>
  <course>298.75</course>
  <speed>16.97836859065087</speed>
  <fix>3d</fix>
</trkpt>
<trkpt lat="-27.2732148" lon="151.2902699">
  <ele>391.33</ele>
  <time>2026-09-01T19:55:18Z</time>
  <course>290.43</course>
  <speed>17.06</speed>
  <fix>3d</fix>
</trkpt>
<trkpt lat="-27.2731993" lon="151.2902246">
  <ele>391.37</ele>
  <time>2026-09-01T19:55:18Z</time>
  <course>299.41</course>
  <speed>16.938530042480075</speed>
  <fix>3d</fix>
</trkpt>
<trkpt lat="-27.2732148" lon="151.2902699">
  <ele>391.33</ele>
  <time>2026-09-01T19:55:18Z</time>
  <course>290.43</course>
  <speed>17.06</speed>
  <fix>3d</fix>
</trkpt>
<trkpt lat="-27.2731931" lon="151.290209">
  <ele>391.43</ele>
  <time>2026-09-01T19:55:18Z</time>
  <course>299.95</course>
  <speed>16.905658815911316</speed>
  <fix>3d</fix>
</trkpt>
<trkpt lat="-27.2732036" lon="151.2902379">
  <ele>391.41</ele>
  <time>2026-09-01T19:55:18Z</time>
  <course>292.45</course>
  <speed>16.97</speed>
  <fix>3d</fix>
</trkpt>
<trkpt lat="-27.2731867" lon="151.2901935">
  <ele>391.48</ele>
  <time>2026-09-01T19:55:18Z</time>
  <course>300.63</course>
  <speed>16.86901597604318</speed>
  <fix>3d</fix>
</trkpt>
<trkpt lat="-27.2732036" lon="151.2902379">
  <ele>391.41</ele>
  <time>2026-09-01T19:55:18Z</time>
  <course>292.45</course>
  <speed>16.97</speed>
  <fix>3d</fix>
</trkpt>
<trkpt lat="-27.2731799" lon="151.2901777">
  <ele>391.55</ele>
  <time>2026-09-01T19:55:18Z</time>
  <course>301.41</course>
  <speed>16.828764066324062</speed>
  <fix>3d</fix>
</trkpt>
<trkpt lat="-27.2731915" lon="151.2902064">
  <ele>391.52</ele>
  <time>2026-09-01T19:55:18Z</time>
  <course>294.51</course>
  <speed>16.9</speed>
  <fix>3d</fix>
</trkpt>
<trkpt lat="-27.273173" lon="151.2901625">
  <ele>391.61</ele>
  <time>2026-09-01T19:55:18Z</time>
  <course>302.14</course>
  <speed>16.785794589473564</speed>
  <fix>3d</fix>
</trkpt>
<trkpt lat="-27.2731915" lon="151.2902064">
  <ele>391.52</ele>
  <time>2026-09-01T19:55:18Z</time>
  <course>294.51</course>
  <speed>16.9</speed>
  <fix>3d</fix>
</trkpt>
<trkpt lat="-27.2731659" lon="151.2901477">
  <ele>391.68</ele>
  <time>2026-09-01T19:55:18Z</time>
  <course>302.79</course>
  <speed>16.744673780041225</speed>
  <fix>3d</fix>
</trkpt>
<trkpt lat="-27.2731784" lon="151.2901757">
  <ele>391.64</ele>
  <time>2026-09-01T19:55:18Z</time>
  <course>296.59</course>
  <speed>16.82</speed>
  <fix>3d</fix>
</trkpt>
<trkpt lat="-27.2731586" lon="151.2901329">
  <ele>391.75</ele>
  <time>2026-09-01T19:55:18Z</time>
  <course>303.49</course>
  <speed>16.709976062221035</speed>
  <fix>3d</fix>
</trkpt>
<trkpt lat="-27.2731784" lon="151.2901757">
  <ele>391.64</ele>
  <time>2026-09-01T19:55:18Z</time>
  <course>296.59</course>
  <speed>16.82</speed>
  <fix>3d</fix>
</trkpt>
<trkpt lat="-27.273151" lon="151.2901184">
  <ele>391.81</ele>
  <time>2026-09-01T19:55:18Z</time>
  <course>304.15</course>
  <speed>16.676624358664434</speed>
  <fix>3d</fix>
</trkpt>
<trkpt lat="-27.2731644" lon="151.2901456">
  <ele>391.76</ele>
  <time>2026-09-01T19:55:18Z</time>
  <course>298.76</course>
  <speed>16.74</speed>
  <fix>3d</fix>
</trkpt>
<trkpt lat="-27.2731432" lon="151.290104">
  <ele>391.88</ele>
  <time>2026-09-01T19:55:18Z</time>
  <course>304.86</course>
  <speed>16.632453216528223</speed>
  <fix>3d</fix>
</trkpt>
<trkpt lat="-27.2731644" lon="151.2901456">
  <ele>391.76</ele>
  <time>2026-09-01T19:55:18Z</time>
  <course>298.76</course>
  <speed>16.74</speed>
  <fix>3d</fix>
</trkpt>
<trkpt lat="-27.2731353" lon="151.2900901">
  <ele>391.95</ele>
  <time>2026-09-01T19:55:18Z</time>
  <course>305.61</course>
  <speed>16.59783118362155</speed>
  <fix>3d</fix>
</trkpt>
<trkpt lat="-27.2731495" lon="151.2901164">
  <ele>391.89</ele>
  <time>2026-09-01T19:55:18Z</time>
  <course>300.97</course>
  <speed>16.66</speed>
  <fix>3d</fix>
</trkpt>
<trkpt lat="-27.273127" lon="151.2900761">
  <ele>392.02</ele>
  <time>2026-09-01T19:55:18Z</time>
  <course>306.31</course>
  <speed>16.566656270955825</speed>
  <fix>3d</fix>
</trkpt>
<trkpt lat="-27.2731495" lon="151.2901164">
  <ele>391.89</ele>
  <time>2026-09-01T19:55:18Z</time>
  <course>300.97</course>
  <speed>16.66</speed>
  <fix>3d</fix>
</trkpt>
<trkpt lat="-27.2731185" lon="151.2900624">
  <ele>392.08</ele>
  <time>2026-09-01T19:55:18Z</time>
  <course>307.05</course>
  <speed>16.54217639852749</speed>
  <fix>3d</fix>
</trkpt>
<trkpt lat="-27.2731336" lon="151.2900879">
  <ele>392.03</ele>
  <time>2026-09-01T19:55:18Z</time>
  <course>303.2</course>
  <speed>16.59</speed>
  <fix>3d</fix>
</trkpt>
<trkpt lat="-27.2731098" lon="151.2900489">
  <ele>392.15</ele>
  <time>2026-09-01T19:55:18Z</time>
  <course>307.77</course>
  <speed>16.51043609357427</speed>
  <fix>3d</fix>
</trkpt>
<trkpt lat="-27.2731336" lon="151.2900879">
  <ele>392.03</ele>
  <time>2026-09-01T19:55:18Z</time>
  <course>303.2</course>
  <speed>16.59</speed>
  <fix>3d</fix>
</trkpt>
<trkpt lat="-27.2731008" lon="151.2900356">
  <ele>392.21</ele>
  <time>2026-09-01T19:55:18Z</time>
  <course>308.55</course>
  <speed>16.483549375058757</speed>
  <fix>3d</fix>
</trkpt>
<trkpt lat="-27.2731168" lon="151.2900603">
  <ele>392.16</ele>
  <time>2026-09-01T19:55:18Z</time>
  <course>305.5</course>
  <speed>16.53</speed>
  <fix>3d</fix>
</trkpt>
<trkpt lat="-27.2730916" lon="151.2900225">
  <ele>392.28</ele>
  <time>2026-09-01T19:55:18Z</time>
  <course>309.33</course>
  <speed>16.463939382784424</speed>
  <fix>3d</fix>
</trkpt>
<trkpt lat="-27.2731168" lon="151.2900603">
  <ele>392.16</ele>
  <time>2026-09-01T19:55:18Z</time>
  <course>305.5</course>
  <speed>16.53</speed>
  <fix>3d</fix>
</trkpt>
<trkpt lat="-27.2730822" lon="151.2900097">
  <ele>392.34</ele>
  <time>2026-09-01T19:55:18Z</time>
  <course>310.17</course>
  <speed>16.435133099552313</speed>
  <fix>3d</fix>
</trkpt>
<trkpt lat="-27.2730991" lon="151.2900335">
  <ele>392.29</ele>
  <time>2026-09-01T19:55:18Z</time>
  <course>307.85</course>
  <speed>16.48</speed>
  <fix>3d</fix>
</trkpt>
<trkpt lat="-27.2730725" lon="151.2899971">
  <ele>392.4</ele>
  <time>2026-09-01T19:55:18Z</time>
  <course>310.95</course>
  <speed>16.414837799990593</speed>
  <fix>3d</fix>
</trkpt>
<trkpt lat="-27.2730991" lon="151.2900335">
  <ele>392.29</ele>
  <time>2026-09-01T19:55:18Z</time>
  <course>307.85</course>
  <speed>16.48</speed>
  <fix>3d</fix>
</trkpt>
<trkpt lat="-27.2730627" lon="151.2899849">
  <ele>392.47</ele>
  <time>2026-09-01T19:55:18Z</time>
  <course>311.68</course>
  <speed>16.403639839986734</speed>
  <fix>3d</fix>
</trkpt>
<trkpt lat="-27.2730805" lon="151.2900077">
  <ele>392.41</ele>
  <time>2026-09-01T19:55:18Z</time>
  <course>310.33</course>
  <speed>16.43</speed>
  <fix>3d</fix>
</trkpt>
<trkpt lat="-27.2730526" lon="151.2899728">
  <ele>392.54</ele>
  <time>2026-09-01T19:55:18Z</time>
  <course>312.42</course>
  <speed>16.379035380632157</speed>
  <fix>3d</fix>
</trkpt>
<trkpt lat="-27.2730805" lon="151.2900077">
  <ele>392.41</ele>
  <time>2026-09-01T19:55:18Z</time>
  <course>310.33</course>
  <speed>16.43</speed>
  <fix>3d</fix>
</trkpt>
<trkpt lat="-27.2730422" lon="151.2899611">
  <ele>392.6</ele>
  <time>2026-09-01T19:55:18Z</time>
  <course>313.21</course>
  <speed>16.369706778070277</speed>
  <fix>3d</fix>
</trkpt>
<trkpt lat="-27.2730609" lon="151.2899829">
  <ele>392.54</ele>
  <time>2026-09-01T19:55:18Z</time>
  <course>312.89</course>
  <speed>16.38</speed>
  <fix>3d</fix>
</trkpt>
<trkpt lat="-27.2730316" lon="151.2899495">
  <ele>392.66</ele>
  <time>2026-09-01T19:55:18Z</time>
  <course>314.05</course>
  <speed>16.354186008481133</speed>
  <fix>3d</fix>
</trkpt>
<trkpt lat="-27.2730609" lon="151.2899829">
  <ele>392.54</ele>
  <time>2026-09-01T19:55:18Z</time>
  <course>312.89</course>
  <speed>16.38</speed>
  <fix>3d</fix>
</trkpt>
<trkpt lat="-27.2730208" lon="151.2899382">
  <ele>392.73</ele>
  <time>2026-09-01T19:55:18Z</time>
  <course>314.96</course>
  <speed>16.347333115832686</speed>
  <fix>3d</fix>
</trkpt>
<trkpt lat="-27.2730404" lon="151.2899592">
  <ele>392.66</ele>
  <time>2026-09-01T19:55:18Z</time>
  <course>315.43</course>
  <speed>16.35</speed>
  <fix>3d</fix>
</trkpt>
<trkpt lat="-27.2730097" lon="151.2899273">
  <ele>392.78</ele>
  <time>2026-09-01T19:55:18Z</time>
  <course>315.72</course>
  <speed>16.34256099881533</speed>
  <fix>3d</fix>
</trkpt>
<trkpt lat="-27.2730404" lon="151.2899592">
  <ele>392.66</ele>
  <time>2026-09-01T19:55:18Z</time>
  <course>315.43</course>
  <speed>16.35</speed>
  <fix>3d</fix>
</trkpt>
<trkpt lat="-27.2729985" lon="151.2899166">
  <ele>392.84</ele>
  <time>2026-09-01T19:55:18Z</time>
  <course>316.61</course>
  <speed>16.34675808837948</speed>
  <fix>3d</fix>
</trkpt>
<trkpt lat="-27.273019" lon="151.2899365">
  <ele>392.79</ele>
  <time>2026-09-01T19:55:18Z</time>
  <course>318.02</course>
  <speed>16.33</speed>
  <fix>3d</fix>
</trkpt>
<trkpt lat="-27.2729867" lon="151.2899059">
  <ele>392.9</ele>
  <time>2026-09-01T19:55:18Z</time>
  <course>317.49</course>
  <speed>16.34757780223113</speed>
  <fix>3d</fix>
</trkpt>
<trkpt lat="-27.273019" lon="151.2899365">
  <ele>392.79</ele>
  <time>2026-09-01T19:55:18Z</time>
  <course>318.02</course>
  <speed>16.33</speed>
  <fix>3d</fix>
</trkpt>
<trkpt lat="-27.2729751" lon="151.2898959">
  <ele>392.95</ele>
  <time>2026-09-01T19:55:18Z</time>
  <course>318.34</course>
  <speed>16.35402396965346</speed>
  <fix>3d</fix>
</trkpt>
<trkpt lat="-27.2729967" lon="151.289915">
  <ele>392.91</ele>
  <time>2026-09-01T19:55:18Z</time>
  <course>320.69</course>
  <speed>16.32</speed>
  <fix>3d</fix>
</trkpt>
<trkpt lat="-27.2729632" lon="151.2898862">
  <ele>393.0</ele>
  <time>2026-09-01T19:55:18Z</time>
  <course>319.23</course>
  <speed>16.379334540816973</speed>
  <fix>3d</fix>
</trkpt>
<trkpt lat="-27.2729967" lon="151.289915">
  <ele>392.91</ele>
  <time>2026-09-01T19:55:18Z</time>
  <course>320.69</course>
  <speed>16.32</speed>
  <fix>3d</fix>
</trkpt>
<trkpt lat="-27.2729511" lon="151.2898767">
  <ele>393.06</ele>
  <time>2026-09-01T19:55:18Z</time>
  <course>320.13</course>
  <speed>16.380537231727168</speed>
  <fix>3d</fix>
</trkpt>
<trkpt lat="-27.2729736" lon="151.2898947">
  <ele>393.02</ele>
  <time>2026-09-01T19:55:18Z</time>
  <course>323.36</course>
  <speed>16.33</speed>
  <fix>3d</fix>
</trkpt>
<trkpt lat="-27.2729388" lon="151.2898676">
  <ele>393.11</ele>
  <time>2026-09-01T19:55:18Z</time>
  <course>321.0</course>
  <speed>16.40542593168492</speed>
  <fix>3d</fix>
</trkpt>
<trkpt lat="-27.2729736" lon="151.2898947">
  <ele>393.02</ele>
  <time>2026-09-01T19:55:18Z</time>
  <course>323.36</course>
  <speed>16.33</speed>
  <fix>3d</fix>
</trkpt>
<trkpt lat="-27.2729263" lon="151.2898589">
  <ele>393.17</ele>
  <time>2026-09-01T19:55:18Z</time>
  <course>321.86</course>
  <speed>16.422910826038116</speed>
  <fix>3d</fix>
</trkpt>
<trkpt lat="-27.2729497" lon="151.2898756">
  <ele>393.13</ele>
  <time>2026-09-01T19:55:18Z</time>
  <course>326.08</course>
  <speed>16.36</speed>
  <fix>3d</fix>
</trkpt>
<trkpt lat="-27.2729134" lon="151.2898503">
  <ele>393.21</ele>
  <time>2026-09-01T19:55:18Z</time>
  <course>322.68</course>
  <speed>16.449547106227577</speed>
  <fix>3d</fix>
</trkpt>
<trkpt lat="-27.2729497" lon="151.2898756">
  <ele>393.13</ele>
  <time>2026-09-01T19:55:18Z</time>
  <course>326.08</course>
  <speed>16.36</speed>
  <fix>3d</fix>
</trkpt>
<trkpt lat="-27.2729005" lon="151.2898422">
  <ele>393.27</ele>
  <time>2026-09-01T19:55:18Z</time>
  <course>323.6</course>
  <speed>16.47573974060042</speed>
  <fix>3d</fix>
</trkpt>
<trkpt lat="-27.2729249" lon="151.2898578">
  <ele>393.24</ele>
  <time>2026-09-01T19:55:18Z</time>
  <course>328.84</course>
  <speed>16.39</speed>
  <fix>3d</fix>
</trkpt>
<trkpt lat="-27.2728874" lon="151.2898344">
  <ele>393.32</ele>
  <time>2026-09-01T19:55:18Z</time>
  <course>324.53</course>
  <speed>16.51182606497537</speed>
  <fix>3d</fix>
</trkpt>
<trkpt lat="-27.2729249" lon="151.2898578">
  <ele>393.24</ele>
  <time>2026-09-01T19:55:18Z</time>
  <course>328.84</course>
  <speed>16.39</speed>
  <fix>3d</fix>
</trkpt>
<trkpt lat="-27.2728741" lon="151.289827">
  <ele>393.36</ele>
  <time>2026-09-01T19:55:18Z</time>
  <course>325.44</course>
  <speed>16.54873106917869</speed>
  <fix>3d</fix>
</trkpt>
<trkpt lat="-27.2728993" lon="151.2898414">
  <ele>393.34</ele>
  <time>2026-09-01T19:55:18Z</time>
  <course>331.61</course>
  <speed>16.45</speed>
  <fix>3d</fix>
</trkpt>
<trkpt lat="-27.2728607" lon="151.2898199">
  <ele>393.41</ele>
  <time>2026-09-01T19:55:18Z</time>
  <course>326.34</course>
  <speed>16.591060846130365</speed>
  <fix>3d</fix>
</trkpt>
<trkpt lat="-27.2728993" lon="151.2898414">
  <ele>393.34</ele>
  <time>2026-09-01T19:55:18Z</time>
  <course>331.61</course>
  <speed>16.45</speed>
  <fix>3d</fix>
</trkpt>
<trkpt lat="-27.272847" lon="151.2898132">
  <ele>393.45</ele>
  <time>2026-09-01T19:55:18Z</time>
  <course>327.23</course>
  <speed>16.639405037440493</speed>
  <fix>3d</fix>
</trkpt>
<trkpt lat="-27.2728729" lon="151.2898262">
  <ele>393.43</ele>
  <time>2026-09-01T19:55:18Z</time>
  <course>334.39</course>
  <speed>16.51</speed>
  <fix>3d</fix>
</trkpt>
<trkpt lat="-27.2728332" lon="151.2898068">
  <ele>393.49</ele>
  <time>2026-09-01T19:55:18Z</time>
  <course>328.15</course>
  <speed>16.685050194710232</speed>
  <fix>3d</fix>
</trkpt>
<trkpt lat="-27.2728729" lon="151.2898262">
  <ele>393.43</ele>
  <time>2026-09-01T19:55:18Z</time>
  <course>334.39</course>
  <speed>16.51</speed>
  <fix>3d</fix>
</trkpt>
<trkpt lat="-27.2728195" lon="151.289801">
  <ele>393.53</ele>
  <time>2026-09-01T19:55:18Z</time>
  <course>329.08</course>
  <speed>16.73517254168597</speed>
  <fix>3d</fix>
</trkpt>
<trkpt lat="-27.2728457" lon="151.2898126">
  <ele>393.52</ele>
  <time>2026-09-01T19:55:18Z</time>
  <course>337.21</course>
  <speed>16.6</speed>
  <fix>3d</fix>
</trkpt>
<trkpt lat="-27.2728055" lon="151.2897954">
  <ele>393.57</ele>
  <time>2026-09-01T19:55:18Z</time>
  <course>330.1</course>
  <speed>16.791813481574884</speed>
  <fix>3d</fix>
</trkpt>
<trkpt lat="-27.2728457" lon="151.2898126">
  <ele>393.52</ele>
  <time>2026-09-01T19:55:18Z</time>
  <course>337.21</course>
  <speed>16.6</speed>
  <fix>3d</fix>
</trkpt>
<trkpt lat="-27.2727911" lon="151.2897902">
  <ele>393.6</ele>
  <time>2026-09-01T19:55:18Z</time>
  <course>331.07</course>
  <speed>16.86216178311666</speed>
  <fix>3d</fix>
</trkpt>
<trkpt lat="-27.2728179" lon="151.2898003">
  <ele>393.6</ele>
  <time>2026-09-01T19:55:18Z</time>
  <course>340.07</course>
  <speed>16.7</speed>
  <fix>3d</fix>
</trkpt>
<trkpt lat="-27.2727765" lon="151.2897854">
  <ele>393.64</ele>
  <time>2026-09-01T19:55:18Z</time>
  <course>332.1</course>
  <speed>16.93122559060625</speed>
  <fix>3d</fix>
</trkpt>
<trkpt lat="-27.2728179" lon="151.2898003">
  <ele>393.6</ele>
  <time>2026-09-01T19:55:18Z</time>
  <course>340.07</course>
  <speed>16.7</speed>
  <fix>3d</fix>
</trkpt>
<trkpt lat="-27.2727618" lon="151.289781">
  <ele>393.67</ele>
  <time>2026-09-01T19:55:18Z</time>
  <course>333.05</course>
  <speed>17.00908580729723</speed>
  <fix>3d</fix>
</trkpt>
<trkpt lat="-27.2727893" lon="151.2897896">
  <ele>393.68</ele>
  <time>2026-09-01T19:55:18Z</time>
  <course>342.97</course>
  <speed>16.83</speed>
  <fix>3d</fix>
</trkpt>
<trkpt lat="-27.2727468" lon="151.2897769">
  <ele>393.71</ele>
  <time>2026-09-01T19:55:18Z</time>
  <course>334.01</course>
  <speed>17.088782870643538</speed>
  <fix>3d</fix>
</trkpt>
<trkpt lat="-27.2727893" lon="151.2897896">
  <ele>393.68</ele>
  <time>2026-09-01T19:55:18Z</time>
  <course>342.97</course>
  <speed>16.83</speed>
  <fix>3d</fix>
</trkpt>
<trkpt lat="-27.2727317" lon="151.2897733">
  <ele>393.74</ele>
  <time>2026-09-01T19:55:18Z</time>
  <course>335.02</course>
  <speed>17.169976703536904</speed>
  <fix>3d</fix>
</trkpt>
<trkpt lat="-27.27276" lon="151.2897803">
  <ele>393.75</ele>
  <time>2026-09-01T19:55:18Z</time>
  <course>345.92</course>
  <speed>16.98</speed>
  <fix>3d</fix>
</trkpt>
<trkpt lat="-27.2727165" lon="151.2897701">
  <ele>393.77</ele>
  <time>2026-09-01T19:55:18Z</time>
  <course>336.09</course>
  <speed>17.260504048260003</speed>
  <fix>3d</fix>
</trkpt>
<trkpt lat="-27.27276" lon="151.2897803">
  <ele>393.75</ele>
  <time>2026-09-01T19:55:18Z</time>
  <course>345.92</course>
  <speed>16.98</speed>
  <fix>3d</fix>
</trkpt>
<trkpt lat="-27.2727006" lon="151.2897673">
  <ele>393.8</ele>
  <time>2026-09-01T19:55:18Z</time>
  <course>337.1</course>
  <speed>17.358075930240656</speed>
  <fix>3d</fix>
</trkpt>
<trkpt lat="-27.27273" lon="151.2897729">
  <ele>393.82</ele>
  <time>2026-09-01T19:55:18Z</time>
  <course>348.88</course>
  <speed>17.14</speed>
  <fix>3d</fix>
</trkpt>
<trkpt lat="-27.2726852" lon="151.289765">
  <ele>393.84</ele>
  <time>2026-09-01T19:55:18Z</time>
  <course>338.07</course>
  <speed>17.461935746073515</speed>
  <fix>3d</fix>
</trkpt>
<trkpt lat="-27.27273" lon="151.2897729">
  <ele>393.82</ele>
  <time>2026-09-01T19:55:18Z</time>
  <course>348.88</course>
  <speed>17.14</speed>
  <fix>3d</fix>
</trkpt>
<trkpt lat="-27.2726696" lon="151.2897631">
  <ele>393.87</ele>
  <time>2026-09-01T19:55:18Z</time>
  <course>339.03</course>
  <speed>17.556765077883796</speed>
  <fix>3d</fix>
</trkpt>
<trkpt lat="-27.2726996" lon="151.2897671">
  <ele>393.89</ele>
  <time>2026-09-01T19:55:18Z</time>
  <course>351.84</course>
  <speed>17.32</speed>
  <fix>3d</fix>
</trkpt>
<trkpt lat="-27.2726538" lon="151.2897617">
  <ele>393.9</ele>
  <time>2026-09-01T19:55:18Z</time>
  <course>340.09</course>
  <speed>17.671474188646513</speed>
  <fix>3d</fix>
</trkpt>
<trkpt lat="-27.2726996" lon="151.2897671">
  <ele>393.89</ele>
  <time>2026-09-01T19:55:18Z</time>
  <course>351.84</course>
  <speed>17.32</speed>
  <fix>3d</fix>
</trkpt>
<trkpt lat="-27.2726379" lon="151.2897607">
  <ele>393.92</ele>
  <time>2026-09-01T19:55:18Z</time>
  <course>341.15</course>
  <speed>17.78582019475065</speed>
  <fix>3d</fix>
</trkpt>
<trkpt lat="-27.2726685" lon="151.289763">
  <ele>393.96</ele>
  <time>2026-09-01T19:55:18Z</time>
  <course>354.74</course>
  <speed>17.52</speed>
  <fix>3d</fix>
</trkpt>
<trkpt lat="-27.2726217" lon="151.2897602">
  <ele>393.95</ele>
  <time>2026-09-01T19:55:18Z</time>
  <course>342.19</course>
  <speed>17.902349007881618</speed>
  <fix>3d</fix>
</trkpt>
<trkpt lat="-27.2726685" lon="151.289763">
  <ele>393.96</ele>
  <time>2026-09-01T19:55:18Z</time>
  <course>354.74</course>
  <speed>17.52</speed>
  <fix>3d</fix>
</trkpt>
<trkpt lat="-27.2726056" lon="151.2897601">
  <ele>393.98</ele>
  <time>2026-09-01T19:55:18Z</time>
  <course>343.25</course>
  <speed>18.030709913921857</speed>
  <fix>3d</fix>
</trkpt>
<trkpt lat="-27.2726369" lon="151.2897606">
  <ele>394.02</ele>
  <time>2026-09-01T19:55:18Z</time>
  <course>357.66</course>
  <speed>17.74</speed>
  <fix>3d</fix>
</trkpt>
<trkpt lat="-27.2725893" lon="151.2897605">
  <ele>394.01</ele>
  <time>2026-09-01T19:55:18Z</time>
  <course>344.35</course>
  <speed>18.15093661495186</speed>
  <fix>3d</fix>
</trkpt>
<trkpt lat="-27.2726369" lon="151.2897606">
  <ele>394.02</ele>
  <time>2026-09-01T19:55:18Z</time>
  <course>357.66</course>
  <speed>17.74</speed>
  <fix>3d</fix>
</trkpt>
<trkpt lat="-27.272573" lon="151.2897614">
  <ele>394.03</ele>
  <time>2026-09-01T19:55:18Z</time>
  <course>345.47</course>
  <speed>18.283725003401248</speed>
  <fix>3d</fix>
</trkpt>
<trkpt lat="-27.2726048" lon="151.28976">
  <ele>394.07</ele>
  <time>2026-09-01T19:55:18Z</time>
  <course>0.62</course>
  <speed>17.98</speed>
  <fix>3d</fix>
</trkpt>
<trkpt lat="-27.2725565" lon="151.2897628">
  <ele>394.06</ele>
  <time>2026-09-01T19:55:18Z</time>
  <course>346.67</course>
  <speed>18.431332019146094</speed>
  <fix>3d</fix>
</trkpt>
<trkpt lat="-27.2726048" lon="151.28976">
  <ele>394.07</ele>
  <time>2026-09-01T19:55:18Z</time>
  <course>0.62</course>
  <speed>17.98</speed>
  <fix>3d</fix>
</trkpt>
<trkpt lat="-27.27254" lon="151.2897647">
  <ele>394.08</ele>
  <time>2026-09-01T19:55:18Z</time>
  <course>347.83</course>
  <speed>18.581334720627577</speed>
  <fix>3d</fix>
</trkpt>
<trkpt lat="-27.2725723" lon="151.2897613">
  <ele>394.12</ele>
  <time>2026-09-01T19:55:18Z</time>
  <course>3.61</course>
  <speed>18.24</speed>
  <fix>3d</fix>
</trkpt>
<trkpt lat="-27.2725234" lon="151.289767">
  <ele>394.11</ele>
  <time>2026-09-01T19:55:18Z</time>
  <course>349.03</course>
  <speed>18.73691810303925</speed>
  <fix>3d</fix>
</trkpt>
<trkpt lat="-27.2725723" lon="151.2897613">
  <ele>394.12</ele>
  <time>2026-09-01T19:55:18Z</time>
  <course>3.61</course>
  <speed>18.24</speed>
  <fix>3d</fix>
</trkpt>
<trkpt lat="-27.2725067" lon="151.2897699">
  <ele>394.13</ele>
  <time>2026-09-01T19:55:18Z</time>
  <course>350.27</course>
  <speed>18.89945237301864</speed>
  <fix>3d</fix>
</trkpt>
<trkpt lat="-27.2725394" lon="151.2897646">
  <ele>394.17</ele>
  <time>2026-09-01T19:55:18Z</time>
  <course>6.66</course>
  <speed>18.52</speed>
  <fix>3d</fix>
</trkpt>
<trkpt lat="-27.2724899" lon="151.2897734">
  <ele>394.15</ele>
  <time>2026-09-01T19:55:18Z</time>
  <course>351.43</course>
  <speed>19.070332980837016</speed>
  <fix>3d</fix>
</trkpt>
<trkpt lat="-27.2725394" lon="151.2897646">
  <ele>394.17</ele>
  <time>2026-09-01T19:55:18Z</time>
  <course>6.66</course>
  <speed>18.52</speed>
  <fix>3d</fix>
</trkpt>
<trkpt lat="-27.2724731" lon="151.2897775">
  <ele>394.18</ele>
  <time>2026-09-01T19:55:18Z</time>
  <course>352.66</course>
  <speed>19.244264080499416</speed>
  <fix>3d</fix>
</trkpt>
<trkpt lat="-27.2725062" lon="151.2897701">
  <ele>394.22</ele>
  <time>2026-09-01T19:55:18Z</time>
  <course>9.79</course>
  <speed>18.84</speed>
  <fix>3d</fix>
</trkpt>
<trkpt lat="-27.2724563" lon="151.2897821">
  <ele>394.2</ele>
  <time>2026-09-01T19:55:18Z</time>
  <course>353.88</course>
  <speed>19.422710933337807</speed>
  <fix>3d</fix>
</trkpt>
<trkpt lat="-27.2725062" lon="151.2897701">
  <ele>394.22</ele>
  <time>2026-09-01T19:55:18Z</time>
  <course>9.79</course>
  <speed>18.84</speed>
  <fix>3d</fix>
</trkpt>
<trkpt lat="-27.2724394" lon="151.2897873">
  <ele>394.22</ele>
  <time>2026-09-01T19:55:18Z</time>
  <course>355.16</course>
  <speed>19.601369850089558</speed>
  <fix>3d</fix>
</trkpt>
<trkpt lat="-27.2724728" lon="151.2897776">
  <ele>394.27</ele>
  <time>2026-09-01T19:55:18Z</time>
  <course>12.95</course>
  <speed>19.18</speed>
  <fix>3d</fix>
</trkpt>
<trkpt lat="-27.2724225" lon="151.289793">
  <ele>394.25</ele>
  <time>2026-09-01T19:55:18Z</time>
  <course>356.5</course>
  <speed>19.78837284872104</speed>
  <fix>3d</fix>
</trkpt>
<trkpt lat="-27.2724728" lon="151.2897776">
  <ele>394.27</ele>
  <time>2026-09-01T19:55:18Z</time>
  <course>12.95</course>
  <speed>19.18</speed>
  <fix>3d</fix>
</trkpt>
<trkpt lat="-27.2724056" lon="151.2897994">
  <ele>394.27</ele>
  <time>2026-09-01T19:55:18Z</time>
  <course>357.79</course>
  <speed>19.984326358423992</speed>
  <fix>3d</fix>
</trkpt>
<trkpt lat="-27.272439" lon="151.2897875">
  <ele>394.32</ele>
  <time>2026-09-01T19:55:18Z</time>
  <course>16.13</course>
  <speed>19.55</speed>
  <fix>3d</fix>
</trkpt>
<trkpt lat="-27.2723887" lon="151.2898063">
  <ele>394.3</ele>
  <time>2026-09-01T19:55:18Z</time>
  <course>359.16</course>
  <speed>20.18983159909958</speed>
  <fix>3d</fix>
</trkpt>
<trkpt lat="-27.272439" lon="151.2897875">
  <ele>394.32</ele>
  <time>2026-09-01T19:55:18Z</time>
  <course>16.13</course>
  <speed>19.55</speed>
  <fix>3d</fix>
</trkpt>
<trkpt lat="-27.2723722" lon="151.2898137">
  <ele>394.32</ele>
  <time>2026-09-01T19:55:18Z</time>
  <course>0.47</course>
  <speed>20.388609565146908</speed>
  <fix>3d</fix>
</trkpt>
<trkpt lat="-27.2724052" lon="151.2897997">
  <ele>394.37</ele>
  <time>2026-09-01T19:55:18Z</time>
  <course>19.33</course>
  <speed>19.93</speed>
  <fix>3d</fix>
</trkpt>
<trkpt lat="-27.2723548" lon="151.2898221">
  <ele>394.35</ele>
  <time>2026-09-01T19:55:18Z</time>
  <course>1.94</course>
  <speed>20.60855404922917</speed>
  <fix>3d</fix>
</trkpt>
<trkpt lat="-27.2724052" lon="151.2897997">
  <ele>394.37</ele>
  <time>2026-09-01T19:55:18Z</time>
  <course>19.33</course>
  <speed>19.93</speed>
  <fix>3d</fix>
</trkpt>
<trkpt lat="-27.2723382" lon="151.2898308">
  <ele>394.38</ele>
  <time>2026-09-01T19:55:18Z</time>
  <course>3.39</course>
  <speed>20.819822285504742</speed>
  <fix>3d</fix>
</trkpt>
<trkpt lat="-27.2723714" lon="151.2898142">
  <ele>394.42</ele>
  <time>2026-09-01T19:55:18Z</time>
  <course>22.56</course>
  <speed>20.34</speed>
  <fix>3d</fix>
</trkpt>
<trkpt lat="-27.2723214" lon="151.2898403">
  <ele>394.41</ele>
  <time>2026-09-01T19:55:18Z</time>
  <course>4.75</course>
  <speed>21.04372828184207</speed>
  <fix>3d</fix>
</trkpt>
<trkpt lat="-27.2723714" lon="151.2898142">
  <ele>394.42</ele>
  <time>2026-09-01T19:55:18Z</time>
  <course>22.56</course>
  <speed>20.34</speed>
  <fix>3d</fix>
</trkpt>
<trkpt lat="-27.2723049" lon="151.2898503">
  <ele>394.44</ele>
  <time>2026-09-01T19:55:18Z</time>
  <course>6.2</course>
  <speed>21.267275330892765</speed>
  <fix>3d</fix>
</trkpt>
<trkpt lat="-27.2723377" lon="151.2898312">
  <ele>394.48</ele>
  <time>2026-09-01T19:55:18Z</time>
  <course>25.85</course>
  <speed>20.78</speed>
  <fix>3d</fix>
</trkpt>
<trkpt lat="-27.2722883" lon="151.289861">
  <ele>394.47</ele>
  <time>2026-09-01T19:55:18Z</time>
  <course>7.71</course>
  <speed>21.495832154164212</speed>
  <fix>3d</fix>
</trkpt>
<trkpt lat="-27.2723377" lon="151.2898312">
  <ele>394.48</ele>
  <time>2026-09-01T19:55:18Z</time>
  <course>25.85</course>
  <speed>20.78</speed>
  <fix>3d</fix>
</trkpt>
<trkpt lat="-27.2722718" lon="151.2898724">
  <ele>394.51</ele>
  <time>2026-09-01T19:55:18Z</time>
  <course>9.3</course>
  <speed>21.735799962274218</speed>
  <fix>3d</fix>
</trkpt>
<trkpt lat="-27.2723042" lon="151.2898509">
  <ele>394.54</ele>
  <time>2026-09-01T19:55:18Z</time>
  <course>29.15</course>
  <speed>21.24</speed>
  <fix>3d</fix>
</trkpt>
<trkpt lat="-27.2722555" lon="151.2898845">
  <ele>394.54</ele>
  <time>2026-09-01T19:55:18Z</time>
  <course>10.84</course>
  <speed>21.983377811428344</speed>
  <fix>3d</fix>
</trkpt>
<trkpt lat="-27.2723042" lon="151.2898509">
  <ele>394.54</ele>
  <time>2026-09-01T19:55:18Z</time>
  <course>29.15</course>
  <speed>21.24</speed>
  <fix>3d</fix>
</trkpt>
<trkpt lat="-27.2722393" lon="151.2898972">
  <ele>394.57</ele>
  <time>2026-09-01T19:55:18Z</time>
  <course>12.47</course>
  <speed>22.245489430444096</speed>
  <fix>3d</fix>
</trkpt>
<trkpt lat="-27.2722711" lon="151.2898731">
  <ele>394.6</ele>
  <time>2026-09-01T19:55:18Z</time>
  <course>32.48</course>
  <speed>21.72</speed>
  <fix>3d</fix>
</trkpt>
<trkpt lat="-27.2722233" lon="151.2899107">
  <ele>394.6</ele>
  <time>2026-09-01T19:55:18Z</time>
  <course>14.12</course>
  <speed>22.511741380888328</speed>
  <fix>3d</fix>
</trkpt>
<trkpt lat="-27.2722711" lon="151.2898731">
  <ele>394.6</ele>
  <time>2026-09-01T19:55:18Z</time>
  <course>32.48</course>
  <speed>21.72</speed>
  <fix>3d</fix>
</trkpt>
<trkpt lat="-27.2722075" lon="151.2899248">
  <ele>394.64</ele>
  <time>2026-09-01T19:55:18Z</time>
  <course>15.73</course>
  <speed>22.78108864826262</speed>
  <fix>3d</fix>
</trkpt>
<trkpt lat="-27.2722385" lon="151.2898981">
  <ele>394.66</ele>
  <time>2026-09-01T19:55:18Z</time>
  <course>35.9</course>
  <speed>22.24</speed>
  <fix>3d</fix>
</trkpt>
<trkpt lat="-27.2721918" lon="151.2899397">
  <ele>394.67</ele>
  <time>2026-09-01T19:55:18Z</time>
  <course>17.36</course>
  <speed>23.057139892016092</speed>
  <fix>3d</fix>
</trkpt>
<trkpt lat="-27.2722385" lon="151.2898981">
  <ele>394.66</ele>
  <time>2026-09-01T19:55:18Z</time>
  <course>35.9</course>
  <speed>22.24</speed>
  <fix>3d</fix>
</trkpt>
<trkpt lat="-27.2721764" lon="151.2899553">
  <ele>394.7</ele>
  <time>2026-09-01T19:55:18Z</time>
  <course>19.15</course>
  <speed>23.34419199715424</speed>
  <fix>3d</fix>
</trkpt>
<trkpt lat="-27.2722065" lon="151.2899259">
  <ele>394.72</ele>
  <time>2026-09-01T19:55:18Z</time>
  <course>39.36</course>
  <speed>22.79</speed>
  <fix>3d</fix>
</trkpt>
<trkpt lat="-27.2721612" lon="151.2899717">
  <ele>394.73</ele>
  <time>2026-09-01T19:55:18Z</time>
  <course>20.94</course>
  <speed>23.646162479353812</speed>
  <fix>3d</fix>
</trkpt>
<trkpt lat="-27.2722065" lon="151.2899259">
  <ele>394.72</ele>
  <time>2026-09-01T19:55:18Z</time>
  <course>39.36</course>
  <speed>22.79</speed>
  <fix>3d</fix>
</trkpt>
<trkpt lat="-27.2721463" lon="151.2899888">
  <ele>394.77</ele>
  <time>2026-09-01T19:55:18Z</time>
  <course>22.7</course>
  <speed>23.942758821823354</speed>
  <fix>3d</fix>
</trkpt>
<trkpt lat="-27.2721753" lon="151.2899565">
  <ele>394.78</ele>
  <time>2026-09-01T19:55:18Z</time>
  <course>42.88</course>
  <speed>23.36</speed>
  <fix>3d</fix>
</trkpt>
<trkpt lat="-27.2721316" lon="151.2900066">
  <ele>394.8</ele>
  <time>2026-09-01T19:55:18Z</time>
  <course>24.54</course>
  <speed>24.249371125866336</speed>
  <fix>3d</fix>
</trkpt>
<trkpt lat="-27.2721753" lon="151.2899565">
  <ele>394.78</ele>
  <time>2026-09-01T19:55:18Z</time>
  <course>42.88</course>
  <speed>23.36</speed>
  <fix>3d</fix>
</trkpt>
<trkpt lat="-27.2721173" lon="151.2900252">
  <ele>394.84</ele>
  <time>2026-09-01T19:55:18Z</time>
  <course>26.43</course>
  <speed>24.567810240231015</speed>
  <fix>3d</fix>
</trkpt>
<trkpt lat="-27.272145" lon="151.2899901">
  <ele>394.84</ele>
  <time>2026-09-01T19:55:18Z</time>
  <course>46.44</course>
  <speed>23.97</speed>
  <fix>3d</fix>
</trkpt>
<trkpt lat="-27.2721033" lon="151.2900446">
  <ele>394.88</ele>
  <time>2026-09-01T19:55:18Z</time>
  <course>28.33</course>
  <speed>24.877992282336614</speed>
  <fix>3d</fix>
</trkpt>
<trkpt lat="-27.272145" lon="151.2899901">
  <ele>394.84</ele>
  <time>2026-09-01T19:55:18Z</time>
  <course>46.44</course>
  <speed>23.97</speed>
  <fix>3d</fix>
</trkpt>
<trkpt lat="-27.2720897" lon="151.2900647">
  <ele>394.92</ele>
  <time>2026-09-01T19:55:18Z</time>
  <course>30.3</course>
  <speed>25.20929987127766</speed>
  <fix>3d</fix>
</trkpt>
<trkpt lat="-27.2721159" lon="151.2900268">
  <ele>394.91</ele>
  <time>2026-09-01T19:55:18Z</time>
  <course>50.06</course>
  <speed>24.59</speed>
  <fix>3d</fix>
</trkpt>
<trkpt lat="-27.2720765" lon="151.2900855">
  <ele>394.96</ele>
  <time>2026-09-01T19:55:18Z</time>
  <course>32.37</course>
  <speed>25.5293654445229</speed>
  <fix>3d</fix>
</trkpt>
<trkpt lat="-27.2721159" lon="151.2900268">
  <ele>394.91</ele>
  <time>2026-09-01T19:55:18Z</time>
  <course>50.06</course>
  <speed>24.59</speed>
  <fix>3d</fix>
</trkpt>
<trkpt lat="-27.2720638" lon="151.2901072">
  <ele>395.0</ele>
  <time>2026-09-01T19:55:18Z</time>
  <course>34.49</course>
  <speed>25.87970053922572</speed>
  <fix>3d</fix>
</trkpt>
<trkpt lat="-27.2720883" lon="151.2900666">
  <ele>394.99</ele>
  <time>2026-09-01T19:55:18Z</time>
  <course>53.74</course>
  <speed>25.25</speed>
  <fix>3d</fix>
</trkpt>
<trkpt lat="-27.2720516" lon="151.2901296">
  <ele>395.04</ele>
  <time>2026-09-01T19:55:18Z</time>
  <course>36.63</course>
  <speed>26.22461629843228</speed>
  <fix>3d</fix>
</trkpt>
<trkpt lat="-27.2720883" lon="151.2900666">
  <ele>394.99</ele>
  <time>2026-09-01T19:55:18Z</time>
  <course>53.74</course>
  <speed>25.25</speed>
  <fix>3d</fix>
</trkpt>
<trkpt lat="-27.2720398" lon="151.2901528">
  <ele>395.08</ele>
  <time>2026-09-01T19:55:18Z</time>
  <course>38.78</course>
  <speed>26.576299591929647</speed>
  <fix>3d</fix>
</trkpt>
<trkpt lat="-27.2720624" lon="151.2901092">
  <ele>395.07</ele>
  <time>2026-09-01T19:55:18Z</time>
  <course>57.53</course>
  <speed>25.92</speed>
  <fix>3d</fix>
</trkpt>
<trkpt lat="-27.2720287" lon="151.2901767">
  <ele>395.12</ele>
  <time>2026-09-01T19:55:18Z</time>
  <course>40.99</course>
  <speed>26.944619128872464</speed>
  <fix>3d</fix>
</trkpt>
<trkpt lat="-27.2720624" lon="151.2901092">
  <ele>395.07</ele>
  <time>2026-09-01T19:55:18Z</time>
  <course>57.53</course>
  <speed>25.92</speed>
  <fix>3d</fix>
</trkpt>
<trkpt lat="-27.2720182" lon="151.2902014">
  <ele>395.17</ele>
  <time>2026-09-01T19:55:18Z</time>
  <course>43.33</course>
  <speed>27.315162456042614</speed>
  <fix>3d</fix>
</trkpt>
<trkpt lat="-27.2720384" lon="151.290155">
  <ele>395.15</ele>
  <time>2026-09-01T19:55:18Z</time>
  <course>61.45</course>
  <speed>26.63</speed>
  <fix>3d</fix>
</trkpt>
<trkpt lat="-27.2720083" lon="151.2902269">
  <ele>395.22</ele>
  <time>2026-09-01T19:55:18Z</time>
  <course>45.69</course>
  <speed>27.68928312542598</speed>
  <fix>3d</fix>
</trkpt>
<trkpt lat="-27.2720384" lon="151.290155">
  <ele>395.15</ele>
  <time>2026-09-01T19:55:18Z</time>
  <course>61.45</course>
  <speed>26.63</speed>
  <fix>3d</fix>
</trkpt>
<trkpt lat="-27.2719991" lon="151.2902531">
  <ele>395.27</ele>
  <time>2026-09-01T19:55:18Z</time>
  <course>48.15</course>
  <speed>28.07589891704271</speed>
  <fix>3d</fix>
</trkpt>
<trkpt lat="-27.2720167" lon="151.2902038">
  <ele>395.23</ele>
  <time>2026-09-01T19:55:18Z</time>
  <course>65.46</course>
  <speed>27.36</speed>
  <fix>3d</fix>
</trkpt>
<trkpt lat="-27.2719907" lon="151.2902798">
  <ele>395.32</ele>
  <time>2026-09-01T19:55:18Z</time>
  <course>50.69</course>
  <speed>28.466924667058787</speed>
  <fix>3d</fix>
</trkpt>
<trkpt lat="-27.2720167" lon="151.2902038">
  <ele>395.23</ele>
  <time>2026-09-01T19:55:18Z</time>
  <course>65.46</course>
  <speed>27.36</speed>
  <fix>3d</fix>
</trkpt>
<trkpt lat="-27.2719829" lon="151.2903079">
  <ele>395.38</ele>
  <time>2026-09-01T19:55:18Z</time>
  <course>53.24</course>
  <speed>28.863696921912133</speed>
  <fix>3d</fix>
</trkpt>
<trkpt lat="-27.2719977" lon="151.2902556">
  <ele>395.33</ele>
  <time>2026-09-01T19:55:18Z</time>
  <course>69.59</course>
  <speed>28.13</speed>
  <fix>3d</fix>
</trkpt>
<trkpt lat="-27.271976" lon="151.2903362">
  <ele>395.44</ele>
  <time>2026-09-01T19:55:18Z</time>
  <course>55.81</course>
  <speed>29.2570846121072</speed>
  <fix>3d</fix>
</trkpt>
<trkpt lat="-27.2719977" lon="151.2902556">
  <ele>395.33</ele>
  <time>2026-09-01T19:55:18Z</time>
  <course>69.59</course>
  <speed>28.13</speed>
  <fix>3d</fix>
</trkpt>
<trkpt lat="-27.2719701" lon="151.2903652">
  <ele>395.5</ele>
  <time>2026-09-01T19:55:18Z</time>
  <course>58.51</course>
  <speed>29.645977804754562</speed>
  <fix>3d</fix>
</trkpt>
<trkpt lat="-27.2719817" lon="151.2903103">
  <ele>395.43</ele>
  <time>2026-09-01T19:55:18Z</time>
  <course>73.84</course>
  <speed>28.9</speed>
  <fix>3d</fix>
</trkpt>
<trkpt lat="-27.271965" lon="151.2903948">
  <ele>395.57</ele>
  <time>2026-09-01T19:55:18Z</time>
  <course>61.29</course>
  <speed>30.037385039313925</speed>
  <fix>3d</fix>
</trkpt>
<trkpt lat="-27.2719817" lon="151.2903103">
  <ele>395.43</ele>
  <time>2026-09-01T19:55:18Z</time>
  <course>73.84</course>
  <speed>28.9</speed>
  <fix>3d</fix>
</trkpt>
<trkpt lat="-27.271961" lon="151.290425">
  <ele>395.64</ele>
  <time>2026-09-01T19:55:18Z</time>
  <course>64.09</course>
  <speed>30.427114552648597</speed>
  <fix>3d</fix>
</trkpt>
<trkpt lat="-27.271969" lon="151.2903678">
  <ele>395.55</ele>
  <time>2026-09-01T19:55:18Z</time>
  <course>78.19</course>
  <speed>29.68</speed>
  <fix>3d</fix>
</trkpt>
<trkpt lat="-27.271958" lon="151.2904557">
  <ele>395.71</ele>
  <time>2026-09-01T19:55:18Z</time>
  <course>66.97</course>
  <speed>30.80766463073759</speed>
  <fix>3d</fix>
</trkpt>
<trkpt lat="-27.271969" lon="151.2903678">
  <ele>395.55</ele>
  <time>2026-09-01T19:55:18Z</time>
  <course>78.19</course>
  <speed>29.68</speed>
  <fix>3d</fix>
</trkpt>
<trkpt lat="-27.271956" lon="151.2904869">
  <ele>395.78</ele>
  <time>2026-09-01T19:55:18Z</time>
  <course>69.91</course>
  <speed>31.195127824710063</speed>
  <fix>3d</fix>
</trkpt>
<trkpt lat="-27.27196" lon="151.2904277">
  <ele>395.67</ele>
  <time>2026-09-01T19:55:18Z</time>
  <course>82.66</course>
  <speed>30.46</speed>
  <fix>3d</fix>
</trkpt>
<trkpt lat="-27.2719552" lon="151.2905186">
  <ele>395.86</ele>
  <time>2026-09-01T19:55:18Z</time>
  <course>72.9</course>
  <speed>31.570633506472436</speed>
  <fix>3d</fix>
</trkpt>
<trkpt lat="-27.27196" lon="151.2904277">
  <ele>395.67</ele>
  <time>2026-09-01T19:55:18Z</time>
  <course>82.66</course>
  <speed>30.46</speed>
  <fix>3d</fix>
</trkpt>
<trkpt lat="-27.2719555" lon="151.2905506">
  <ele>395.94</ele>
  <time>2026-09-01T19:55:18Z</time>
  <course>75.93</course>
  <speed>31.949287941987063</speed>
  <fix>3d</fix>
</trkpt>
<trkpt lat="-27.2719551" lon="151.2904897">
  <ele>395.81</ele>
  <time>2026-09-01T19:55:18Z</time>
  <course>87.26</course>
  <speed>31.23</speed>
  <fix>3d</fix>
</trkpt>
<trkpt lat="-27.271957" lon="151.290583">
  <ele>396.02</ele>
  <time>2026-09-01T19:55:18Z</time>
  <course>79.17</course>
  <speed>32.31607185287222</speed>
  <fix>3d</fix>
</trkpt>
<trkpt lat="-27.2719551" lon="151.2904897">
  <ele>395.81</ele>
  <time>2026-09-01T19:55:18Z</time>
  <course>87.26</course>
  <speed>31.23</speed>
  <fix>3d</fix>
</trkpt>
<trkpt lat="-27.2719598" lon="151.2906157">
  <ele>396.11</ele>
  <time>2026-09-01T19:55:18Z</time>
  <course>82.4</course>
  <speed>32.68711366884509</speed>
  <fix>3d</fix>
</trkpt>
<trkpt lat="-27.2719547" lon="151.2905536">
  <ele>395.96</ele>
  <time>2026-09-01T19:55:18Z</time>
  <course>91.98</course>
  <speed>31.99</speed>
  <fix>3d</fix>
</trkpt>
<trkpt lat="-27.2719638" lon="151.2906485">
  <ele>396.2</ele>
  <time>2026-09-01T19:55:18Z</time>
  <course>85.77</course>
  <speed>33.03762249315165</speed>
  <fix>3d</fix>
</trkpt>
<trkpt lat="-27.2719547" lon="151.2905536">
  <ele>395.96</ele>
  <time>2026-09-01T19:55:18Z</time>
  <course>91.98</course>
  <speed>31.99</speed>
  <fix>3d</fix>
</trkpt>
<trkpt lat="-27.2719692" lon="151.2906815">
  <ele>396.3</ele>
  <time>2026-09-01T19:55:18Z</time>
  <course>89.13</course>
  <speed>33.37172605664861</speed>
  <fix>3d</fix>
</trkpt>
<trkpt lat="-27.2719592" lon="151.290619">
  <ele>396.13</ele>
  <time>2026-09-01T19:55:18Z</time>
  <course>96.91</course>
  <speed>32.72</speed>
  <fix>3d</fix>
</trkpt>
<trkpt lat="-27.2719761" lon="151.2907145">
  <ele>396.4</ele>
  <time>2026-09-01T19:55:18Z</time>
  <course>92.5</course>
  <speed>33.70422525440987</speed>
  <fix>3d</fix>
</trkpt>
<trkpt lat="-27.2719592" lon="151.290619">
  <ele>396.13</ele>
  <time>2026-09-01T19:55:18Z</time>
  <course>96.91</course>
  <speed>32.72</speed>
  <fix>3d</fix>
</trkpt>
<trkpt lat="-27.2719843" lon="151.2907474">
  <ele>396.51</ele>
  <time>2026-09-01T19:55:18Z</time>
  <course>95.9</course>
  <speed>34.00661847346778</speed>
  <fix>3d</fix>
</trkpt>
<trkpt lat="-27.271969" lon="151.290685">
  <ele>396.31</ele>
  <time>2026-09-01T19:55:18Z</time>
  <course>102.0</course>
  <speed>33.42</speed>
  <fix>3d</fix>
</trkpt>
<trkpt lat="-27.2719939" lon="151.2907802">
  <ele>396.62</ele>
  <time>2026-09-01T19:55:18Z</time>
  <course>99.51</course>
  <speed>34.290863214564894</speed>
  <fix>3d</fix>
</trkpt>
<trkpt lat="-27.271969" lon="151.290685">
  <ele>396.31</ele>
  <time>2026-09-01T19:55:18Z</time>
  <course>102.0</course>
  <speed>33.42</speed>
  <fix>3d</fix>
</trkpt>
<trkpt lat="-27.2720049" lon="151.2908127">
  <ele>396.73</ele>
  <time>2026-09-01T19:55:18Z</time>
  <course>103.13</course>
  <speed>34.56175487442731</speed>
  <fix>3d</fix>
</trkpt>
<trkpt lat="-27.2719842" lon="151.290751">
  <ele>396.51</ele>
  <time>2026-09-01T19:55:18Z</time>
  <course>107.15</course>
  <speed>34.05</speed>
  <fix>3d</fix>
</trkpt>
<trkpt lat="-27.2720173" lon="151.2908448">
  <ele>396.85</ele>
  <time>2026-09-01T19:55:18Z</time>
  <course>106.78</course>
  <speed>34.82225294262277</speed>
  <fix>3d</fix>
</trkpt>
<trkpt lat="-27.2719842" lon="151.290751">
  <ele>396.51</ele>
  <time>2026-09-01T19:55:18Z</time>
  <course>107.15</course>
  <speed>34.05</speed>
  <fix>3d</fix>
</trkpt>
<trkpt lat="-27.2720312" lon="151.2908764">
  <ele>396.97</ele>
  <time>2026-09-01T19:55:18Z</time>
  <course>110.51</course>
  <speed>35.034411654828745</speed>
  <fix>3d</fix>
</trkpt>
<trkpt lat="-27.2720051" lon="151.2908162">
  <ele>396.72</ele>
  <time>2026-09-01T19:55:18Z</time>
  <course>112.42</course>
  <speed>34.6</speed>
  <fix>3d</fix>
</trkpt>
<trkpt lat="-27.2720465" lon="151.2909074">
  <ele>397.09</ele>
  <time>2026-09-01T19:55:18Z</time>
  <course>114.24</course>
  <speed>35.23850876526985</speed>
  <fix>3d</fix>
</trkpt>
<trkpt lat="-27.2720051" lon="151.2908162">
  <ele>396.72</ele>
  <time>2026-09-01T19:55:18Z</time>
  <course>112.42</course>
  <speed>34.6</speed>
  <fix>3d</fix>
</trkpt>
<trkpt lat="-27.272063" lon="151.2909375">
  <ele>397.22</ele>
  <time>2026-09-01T19:55:18Z</time>
  <course>118.09</course>
  <speed>35.40981925963475</speed>
  <fix>3d</fix>
</trkpt>
<trkpt lat="-27.2720317" lon="151.2908799">
  <ele>396.96</ele>
  <time>2026-09-01T19:55:18Z</time>
  <course>117.86</course>
  <speed>35.08</speed>
  <fix>3d</fix>
</trkpt>
<trkpt lat="-27.2720811" lon="151.290967">
  <ele>397.35</ele>
  <time>2026-09-01T19:55:18Z</time>
  <course>122.08</course>
  <speed>35.55009563981509</speed>
  <fix>3d</fix>
</trkpt>
<trkpt lat="-27.2720317" lon="151.2908799">
  <ele>396.96</ele>
  <time>2026-09-01T19:55:18Z</time>
  <course>117.86</course>
  <speed>35.08</speed>
  <fix>3d</fix>
</trkpt>
<trkpt lat="-27.2721006" lon="151.2909956">
  <ele>397.49</ele>
  <time>2026-09-01T19:55:18Z</time>
  <course>125.99</course>
  <speed>35.66827722220405</speed>
  <fix>3d</fix>
</trkpt>
<trkpt lat="-27.272064" lon="151.2909412">
  <ele>397.21</ele>
  <time>2026-09-01T19:55:18Z</time>
  <course>123.45</course>
  <speed>35.45</speed>
  <fix>3d</fix>
</trkpt>
<trkpt lat="-27.2721214" lon="151.291023">
  <ele>397.63</ele>
  <time>2026-09-01T19:55:18Z</time>
  <course>129.97</course>
  <speed>35.742064853614714</speed>
  <fix>3d</fix>
</trkpt>
<trkpt lat="-27.272064" lon="151.2909412">
  <ele>397.21</ele>
  <time>2026-09-01T19:55:18Z</time>
  <course>123.45</course>
  <speed>35.45</speed>
  <fix>3d</fix>
</trkpt>
<trkpt lat="-27.2721435" lon="151.2910496">
  <ele>397.78</ele>
  <time>2026-09-01T19:55:18Z</time>
  <course>134.08</course>
  <speed>35.77253275908766</speed>
  <fix>3d</fix>
</trkpt>
<trkpt lat="-27.2721018" lon="151.2909991">
  <ele>397.47</ele>
  <time>2026-09-01T19:55:18Z</time>
  <course>129.17</course>
  <speed>35.71</speed>
  <fix>3d</fix>
</trkpt>
<trkpt lat="-27.2721668" lon="151.2910745">
  <ele>397.94</ele>
  <time>2026-09-01T19:55:18Z</time>
  <course>137.96</course>
  <speed>35.76288718769781</speed>
  <fix>3d</fix>
</trkpt>
<trkpt lat="-27.2721018" lon="151.2909991">
  <ele>397.47</ele>
  <time>2026-09-01T19:55:18Z</time>
  <course>129.17</course>
  <speed>35.71</speed>
  <fix>3d</fix>
</trkpt>
<trkpt lat="-27.272191" lon="151.2910982">
  <ele>398.1</ele>
  <time>2026-09-01T19:55:18Z</time>
  <course>141.86</course>
  <speed>35.735755203997016</speed>
  <fix>3d</fix>
</trkpt>
<trkpt lat="-27.2721449" lon="151.2910528">
  <ele>397.76</ele>
  <time>2026-09-01T19:55:18Z</time>
  <course>135.0</course>
  <speed>35.82</speed>
  <fix>3d</fix>
</trkpt>
<trkpt lat="-27.2722165" lon="151.2911206">
  <ele>398.26</ele>
  <time>2026-09-01T19:55:18Z</time>
  <course>145.84</course>
  <speed>35.643660025311654</speed>
  <fix>3d</fix>
</trkpt>
<trkpt lat="-27.2721449" lon="151.2910528">
  <ele>397.76</ele>
  <time>2026-09-01T19:55:18Z</time>
  <course>135.0</course>
  <speed>35.82</speed>
  <fix>3d</fix>
</trkpt>
<trkpt lat="-27.2722426" lon="151.2911413">
  <ele>398.42</ele>
  <time>2026-09-01T19:55:18Z</time>
  <course>149.71</course>
  <speed>35.52882913916528</speed>
  <fix>3d</fix>
</trkpt>
<trkpt lat="-27.2721926" lon="151.2911012">
  <ele>398.06</ele>
  <time>2026-09-01T19:55:18Z</time>
  <course>140.81</course>
  <speed>35.77</speed>
  <fix>3d</fix>
</trkpt>
<trkpt lat="-27.2722695" lon="151.2911604">
  <ele>398.58</ele>
  <time>2026-09-01T19:55:18Z</time>
  <course>153.61</course>
  <speed>35.368823842474605</speed>
  <fix>3d</fix>
</trkpt>
<trkpt lat="-27.2721926" lon="151.2911012">
  <ele>398.06</ele>
  <time>2026-09-01T19:55:18Z</time>
  <course>140.81</course>
  <speed>35.77</speed>
  <fix>3d</fix>
</trkpt>
<trkpt lat="-27.2722971" lon="151.2911779">
  <ele>398.74</ele>
  <time>2026-09-01T19:55:18Z</time>
  <course>157.46</course>
  <speed>35.18993748218374</speed>
  <fix>3d</fix>
</trkpt>
<trkpt lat="-27.2722442" lon="151.2911439">
  <ele>398.38</ele>
  <time>2026-09-01T19:55:18Z</time>
  <course>146.54</course>
  <speed>35.58</speed>
  <fix>3d</fix>
</trkpt>
<trkpt lat="-27.2723253" lon="151.2911938">
  <ele>398.9</ele>
  <time>2026-09-01T19:55:18Z</time>
  <course>161.22</course>
  <speed>34.972655032181926</speed>
  <fix>3d</fix>
</trkpt>
<trkpt lat="-27.2722442" lon="151.2911439">
  <ele>398.38</ele>
  <time>2026-09-01T19:55:18Z</time>
  <course>146.54</course>
  <speed>35.58</speed>
  <fix>3d</fix>
</trkpt>
<trkpt lat="-27.272354" lon="151.291208">
  <ele>399.06</ele>
  <time>2026-09-01T19:55:18Z</time>
  <course>164.93</course>
  <speed>34.729493229818374</speed>
  <fix>3d</fix>
</trkpt>
<trkpt lat="-27.2722991" lon="151.2911803">
  <ele>398.7</ele>
  <time>2026-09-01T19:55:18Z</time>
  <course>152.25</course>
  <speed>35.24</speed>
  <fix>3d</fix>
</trkpt>
<trkpt lat="-27.272383" lon="151.2912206">
  <ele>399.21</ele>
  <time>2026-09-01T19:55:18Z</time>
  <course>168.6</course>
  <speed>34.44855004205547</speed>
  <fix>3d</fix>
</trkpt>
<trkpt lat="-27.2722991" lon="151.2911803">
  <ele>398.7</ele>
  <time>2026-09-01T19:55:18Z</time>
  <course>152.25</course>
  <speed>35.24</speed>
  <fix>3d</fix>
</trkpt>
<trkpt lat="-27.2724124" lon="151.2912315">
  <ele>399.36</ele>
  <time>2026-09-01T19:55:18Z</time>
  <course>172.27</course>
  <speed>34.13693014903361</speed>
  <fix>3d</fix>
</trkpt>
<trkpt lat="-27.2723563" lon="151.2912102">
  <ele>399.01</ele>
  <time>2026-09-01T19:55:18Z</time>
  <course>157.87</course>
  <speed>34.78</speed>
  <fix>3d</fix>
</trkpt>
<trkpt lat="-27.2724418" lon="151.2912407">
  <ele>399.51</ele>
  <time>2026-09-01T19:55:18Z</time>
  <course>175.87</course>
  <speed>33.797374158357336</speed>
  <fix>3d</fix>
</trkpt>
<trkpt lat="-27.2723563" lon="151.2912102">
  <ele>399.01</ele>
  <time>2026-09-01T19:55:18Z</time>
  <course>157.87</course>
  <speed>34.78</speed>
  <fix>3d</fix>
</trkpt>
<trkpt lat="-27.2724713" lon="151.2912482">
  <ele>399.65</ele>
  <time>2026-09-01T19:55:19Z</time>
  <course>179.25</course>
  <speed>33.44172543395451</speed>
  <fix>3d</fix>
</trkpt>
<trkpt lat="-27.2724147" lon="151.2912333">
  <ele>399.31</ele>
  <time>2026-09-01T19:55:19Z</time>
  <course>163.37</course>
  <speed>34.19</speed>
  <fix>3d</fix>
</trkpt>
<trkpt lat="-27.2725008" lon="151.2912542">
  <ele>399.79</ele>
  <time>2026-09-01T19:55:19Z</time>
  <course>182.54</course>
  <speed>33.066357525436636</speed>
  <fix>3d</fix>
</trkpt>
<trkpt lat="-27.2724147" lon="151.2912333">
  <ele>399.31</ele>
  <time>2026-09-01T19:55:19Z</time>
  <course>163.37</course>
  <speed>34.19</speed>
  <fix>3d</fix>
</trkpt>
<trkpt lat="-27.2725301" lon="151.2912587">
  <ele>399.92</ele>
  <time>2026-09-01T19:55:19Z</time>
  <course>185.64</course>
  <speed>32.68883754433614</speed>
  <fix>3d</fix>
</trkpt>
<trkpt lat="-27.2724737" lon="151.2912498">
  <ele>399.59</ele>
  <time>2026-09-01T19:55:19Z</time>
  <course>168.72</course>
  <speed>33.5</speed>
  <fix>3d</fix>
</trkpt>
<trkpt lat="-27.2725592" lon="151.2912618">
  <ele>400.03</ele>
  <time>2026-09-01T19:55:19Z</time>
  <course>188.56</course>
  <speed>32.28779490767371</speed>
  <fix>3d</fix>
</trkpt>
<trkpt lat="-27.2724737" lon="151.2912498">
  <ele>399.59</ele>
  <time>2026-09-01T19:55:19Z</time>
  <course>168.72</course>
  <speed>33.5</speed>
  <fix>3d</fix>
</trkpt>
<trkpt lat="-27.2725881" lon="151.2912635">
  <ele>400.13</ele>
  <time>2026-09-01T19:55:19Z</time>
  <course>191.4</course>
  <speed>31.885063901457055</speed>
  <fix>3d</fix>
</trkpt>
<trkpt lat="-27.2725324" lon="151.2912599">
  <ele>399.85</ele>
  <time>2026-09-01T19:55:19Z</time>
  <course>173.72</course>
  <speed>32.74</speed>
  <fix>3d</fix>
</trkpt>
<trkpt lat="-27.2726163" lon="151.291264">
  <ele>400.22</ele>
  <time>2026-09-01T19:55:19Z</time>
  <course>194.13</course>
  <speed>31.480573374702058</speed>
  <fix>3d</fix>
</trkpt>
<trkpt lat="-27.2725324" lon="151.2912599">
  <ele>399.85</ele>
  <time>2026-09-01T19:55:19Z</time>
  <course>173.72</course>
  <speed>32.74</speed>
  <fix>3d</fix>
</trkpt>
<trkpt lat="-27.2726445" lon="151.2912633">
  <ele>400.29</ele>
  <time>2026-09-01T19:55:19Z</time>
  <course>196.77</course>
  <speed>31.057639961851578</speed>
  <fix>3d</fix>
</trkpt>
<trkpt lat="-27.2725904" lon="151.2912644">
  <ele>400.06</ele>
  <time>2026-09-01T19:55:19Z</time>
  <course>178.32</course>
  <speed>31.93</speed>
  <fix>3d</fix>
</trkpt>
<trkpt lat="-27.2726722" lon="151.2912616">
  <ele>400.35</ele>
  <time>2026-09-01T19:55:19Z</time>
  <course>199.23</course>
  <speed>30.64025130445245</speed>
  <fix>3d</fix>
</trkpt>
<trkpt lat="-27.2725904" lon="151.2912644">
  <ele>400.06</ele>
  <time>2026-09-01T19:55:19Z</time>
  <course>178.32</course>
  <speed>31.93</speed>
  <fix>3d</fix>
</trkpt>
<trkpt lat="-27.2726995" lon="151.2912588">
  <ele>400.38</ele>
  <time>2026-09-01T19:55:19Z</time>
  <course>201.58</course>
  <speed>30.230654971402785</speed>
  <fix>3d</fix>
</trkpt>
<trkpt lat="-27.272647" lon="151.2912639">
  <ele>400.21</ele>
  <time>2026-09-01T19:55:19Z</time>
  <course>182.56</course>
  <speed>31.11</speed>
  <fix>3d</fix>
</trkpt>
<trkpt lat="-27.2727265" lon="151.2912551">
  <ele>400.4</ele>
  <time>2026-09-01T19:55:19Z</time>
  <course>203.89</course>
  <speed>29.82718390998386</speed>
  <fix>3d</fix>
</trkpt>
<trkpt lat="-27.272647" lon="151.2912639">
  <ele>400.21</ele>
  <time>2026-09-01T19:55:19Z</time>
  <course>182.56</course>
  <speed>31.11</speed>
  <fix>3d</fix>
</trkpt>
<trkpt lat="-27.2727528" lon="151.2912505">
  <ele>400.39</ele>
  <time>2026-09-01T19:55:19Z</time>
  <course>206.1</course>
  <speed>29.426562830204958</speed>
  <fix>3d</fix>
</trkpt>
<trkpt lat="-27.2727019" lon="151.291259">
  <ele>400.3</ele>
  <time>2026-09-01T19:55:19Z</time>
  <course>186.45</course>
  <speed>30.28</speed>
  <fix>3d</fix>
</trkpt>
<trkpt lat="-27.2727787" lon="151.291245">
  <ele>400.35</ele>
  <time>2026-09-01T19:55:19Z</time>
  <course>208.26</course>
  <speed>29.023619691554668</speed>
  <fix>3d</fix>
</trkpt>
<trkpt lat="-27.2727019" lon="151.291259">
  <ele>400.3</ele>
  <time>2026-09-01T19:55:19Z</time>
  <course>186.45</course>
  <speed>30.28</speed>
  <fix>3d</fix>
</trkpt>
<trkpt lat="-27.272804" lon="151.2912387">
  <ele>400.29</ele>
  <time>2026-09-01T19:55:19Z</time>
  <course>210.4</course>
  <speed>28.63109498429985</speed>
  <fix>3d</fix>
</trkpt>
<trkpt lat="-27.272755" lon="151.2912504">
  <ele>400.3</ele>
  <time>2026-09-01T19:55:19Z</time>
  <course>190.07</course>
  <speed>29.47</speed>
  <fix>3d</fix>
</trkpt>
<trkpt lat="-27.2728288" lon="151.2912317">
  <ele>400.21</ele>
  <time>2026-09-01T19:55:19Z</time>
  <course>212.53</course>
  <speed>28.235355496256815</speed>
  <fix>3d</fix>
</trkpt>
<trkpt lat="-27.272755" lon="151.2912504">
  <ele>400.3</ele>
  <time>2026-09-01T19:55:19Z</time>
  <course>190.07</course>
  <speed>29.47</speed>
  <fix>3d</fix>
</trkpt>
<trkpt lat="-27.2728531" lon="151.2912239">
  <ele>400.1</ele>
  <time>2026-09-01T19:55:19Z</time>
  <course>214.63</course>
  <speed>27.849763015149698</speed>
  <fix>3d</fix>
</trkpt>
<trkpt lat="-27.2728061" lon="151.2912384">
  <ele>400.21</ele>
  <time>2026-09-01T19:55:19Z</time>
  <course>193.56</course>
  <speed>28.67</speed>
  <fix>3d</fix>
</trkpt>
<trkpt lat="-27.2728768" lon="151.2912155">
  <ele>399.97</ele>
  <time>2026-09-01T19:55:19Z</time>
  <course>216.72</course>
  <speed>27.458057105337954</speed>
  <fix>3d</fix>
</trkpt>
<trkpt lat="-27.2728061" lon="151.2912384">
  <ele>400.21</ele>
  <time>2026-09-01T19:55:19Z</time>
  <course>193.56</course>
  <speed>28.67</speed>
  <fix>3d</fix>
</trkpt>
<trkpt lat="-27.2729" lon="151.2912064">
  <ele>399.81</ele>
  <time>2026-09-01T19:55:19Z</time>
  <course>218.84</course>
  <speed>27.068745815053934</speed>
  <fix>3d</fix>
</trkpt>
<trkpt lat="-27.2728551" lon="151.2912233">
  <ele>400.02</ele>
  <time>2026-09-01T19:55:19Z</time>
  <course>196.98</course>
  <speed>27.88</speed>
  <fix>3d</fix>
</trkpt>
<trkpt lat="-27.2729226" lon="151.2911966">
  <ele>399.64</ele>
  <time>2026-09-01T19:55:19Z</time>
  <course>220.98</course>
  <speed>26.682642297943435</speed>
  <fix>3d</fix>
</trkpt>
<trkpt lat="-27.2728551" lon="151.2912233">
  <ele>400.02</ele>
  <time>2026-09-01T19:55:19Z</time>
  <course>196.98</course>
  <speed>27.88</speed>
  <fix>3d</fix>
</trkpt>
<trkpt lat="-27.2729445" lon="151.2911862">
  <ele>399.45</ele>
  <time>2026-09-01T19:55:19Z</time>
  <course>223.13</course>
  <speed>26.29663476568818</speed>
  <fix>3d</fix>
</trkpt>
<trkpt lat="-27.272902" lon="151.2912055">
  <ele>399.74</ele>
  <time>2026-09-01T19:55:19Z</time>
  <course>200.45</course>
  <speed>27.1</speed>
  <fix>3d</fix>
</trkpt>
<trkpt lat="-27.272966" lon="151.291175">
  <ele>399.24</ele>
  <time>2026-09-01T19:55:19Z</time>
  <course>225.3</course>
  <speed>25.906169149451642</speed>
  <fix>3d</fix>
</trkpt>
<trkpt lat="-27.272902" lon="151.2912055">
  <ele>399.74</ele>
  <time>2026-09-01T19:55:19Z</time>
  <course>200.45</course>
  <speed>27.1</speed>
  <fix>3d</fix>
</trkpt>
<trkpt lat="-27.2729867" lon="151.2911634">
  <ele>399.01</ele>
  <time>2026-09-01T19:55:19Z</time>
  <course>227.53</course>
  <speed>25.525941706428775</speed>
  <fix>3d</fix>
</trkpt>
<trkpt lat="-27.2729464" lon="151.291185">
  <ele>399.38</ele>
  <time>2026-09-01T19:55:19Z</time>
  <course>204.04</course>
  <speed>26.32</speed>
  <fix>3d</fix>
</trkpt>
<trkpt lat="-27.2730068" lon="151.2911511">
  <ele>398.78</ele>
  <time>2026-09-01T19:55:19Z</time>
  <course>229.79</course>
  <speed>25.139586313223216</speed>
  <fix>3d</fix>
</trkpt>
<trkpt lat="-27.2729464" lon="151.291185">
  <ele>399.38</ele>
  <time>2026-09-01T19:55:19Z</time>
  <course>204.04</course>
  <speed>26.32</speed>
  <fix>3d</fix>
</trkpt>
<trkpt lat="-27.2730261" lon="151.2911382">
  <ele>398.52</ele>
  <time>2026-09-01T19:55:19Z</time>
  <course>232.01</course>
  <speed>24.7570696973612</speed>
  <fix>3d</fix>
</trkpt>
<trkpt lat="-27.2729883" lon="151.2911621">
  <ele>398.95</ele>
  <time>2026-09-01T19:55:19Z</time>
  <course>207.81</course>
  <speed>25.54</speed>
  <fix>3d</fix>
</trkpt>
<trkpt lat="-27.2730448" lon="151.2911248">
  <ele>398.26</ele>
  <time>2026-09-01T19:55:19Z</time>
  <course>234.27</course>
  <speed>24.37908940054981</speed>
  <fix>3d</fix>
</trkpt>
<trkpt lat="-27.2729883" lon="151.2911621">
  <ele>398.95</ele>
  <time>2026-09-01T19:55:19Z</time>
  <course>207.81</course>
  <speed>25.54</speed>
  <fix>3d</fix>
</trkpt>
<trkpt lat="-27.2730627" lon="151.2911108">
  <ele>397.99</ele>
  <time>2026-09-01T19:55:19Z</time>
  <course>236.62</course>
  <speed>23.99610801775988</speed>
  <fix>3d</fix>
</trkpt>
<trkpt lat="-27.2730275" lon="151.2911368">
  <ele>398.47</ele>
  <time>2026-09-01T19:55:19Z</time>
  <course>211.81</course>
  <speed>24.77</speed>
  <fix>3d</fix>
</trkpt>
<trkpt lat="-27.2730797" lon="151.2910964">
  <ele>397.72</ele>
  <time>2026-09-01T19:55:19Z</time>
  <course>238.93</course>
  <speed>23.616597976846705</speed>
  <fix>3d</fix>
</trkpt>
<trkpt lat="-27.2730275" lon="151.2911368">
  <ele>398.47</ele>
  <time>2026-09-01T19:55:19Z</time>
  <course>211.81</course>
  <speed>24.77</speed>
  <fix>3d</fix>
</trkpt>
<trkpt lat="-27.273096" lon="151.2910814">
  <ele>397.44</ele>
  <time>2026-09-01T19:55:19Z</time>
  <course>241.22</course>
  <speed>23.24336034225688</speed>
  <fix>3d</fix>
</trkpt>
<trkpt lat="-27.2730638" lon="151.2911094">
  <ele>397.95</ele>
  <time>2026-09-01T19:55:19Z</time>
  <course>216.06</course>
  <speed>24.0</speed>
  <fix>3d</fix>
</trkpt>
<trkpt lat="-27.2731116" lon="151.2910659">
  <ele>397.16</ele>
  <time>2026-09-01T19:55:19Z</time>
  <course>243.53</course>
  <speed>22.873915274827787</speed>
  <fix>3d</fix>
</trkpt>
<trkpt lat="-27.2730638" lon="151.2911094">
  <ele>397.95</ele>
  <time>2026-09-01T19:55:19Z</time>
  <course>216.06</course>
  <speed>24.0</speed>
  <fix>3d</fix>
</trkpt>
<trkpt lat="-27.2731263" lon="151.2910499">
  <ele>396.88</ele>
  <time>2026-09-01T19:55:19Z</time>
  <course>245.84</course>
  <speed>22.5142976794747</speed>
  <fix>3d</fix>
</trkpt>
<trkpt lat="-27.2730971" lon="151.2910799">
  <ele>397.41</ele>
  <time>2026-09-01T19:55:19Z</time>
  <course>220.53</course>
  <speed>23.24</speed>
  <fix>3d</fix>
</trkpt>
<trkpt lat="-27.2731403" lon="151.2910336">
  <ele>396.61</ele>
  <time>2026-09-01T19:55:19Z</time>
  <course>248.12</course>
  <speed>22.157718745394344</speed>
  <fix>3d</fix>
</trkpt>
<trkpt lat="-27.2730971" lon="151.2910799">
  <ele>397.41</ele>
  <time>2026-09-01T19:55:19Z</time>
  <course>220.53</course>
  <speed>23.24</speed>
  <fix>3d</fix>
</trkpt>
<trkpt lat="-27.2731535" lon="151.2910167">
  <ele>396.33</ele>
  <time>2026-09-01T19:55:19Z</time>
  <course>250.36</course>
  <speed>21.80407530715302</speed>
  <fix>3d</fix>
</trkpt>
<trkpt lat="-27.2731272" lon="151.2910484">
  <ele>396.86</ele>
  <time>2026-09-01T19:55:19Z</time>
  <course>225.19</course>
  <speed>22.5</speed>
  <fix>3d</fix>
</trkpt>
<trkpt lat="-27.2731657" lon="151.2909997">
  <ele>396.06</ele>
  <time>2026-09-01T19:55:19Z</time>
  <course>252.54</course>
  <speed>21.4712575318727</speed>
  <fix>3d</fix>
</trkpt>
<trkpt lat="-27.2731272" lon="151.2910484">
  <ele>396.86</ele>
  <time>2026-09-01T19:55:19Z</time>
  <course>225.19</course>
  <speed>22.5</speed>
  <fix>3d</fix>
</trkpt>
<trkpt lat="-27.2731771" lon="151.2909824">
  <ele>395.8</ele>
  <time>2026-09-01T19:55:19Z</time>
  <course>254.64</course>
  <speed>21.15010165460204</speed>
  <fix>3d</fix>
</trkpt>
<trkpt lat="-27.2731541" lon="151.2910154">
  <ele>396.32</ele>
  <time>2026-09-01T19:55:19Z</time>
  <course>229.95</course>
  <speed>21.8</speed>
  <fix>3d</fix>
</trkpt>
<trkpt lat="-27.2731877" lon="151.2909649">
  <ele>395.54</ele>
  <time>2026-09-01T19:55:19Z</time>
  <course>256.71</course>
  <speed>20.838296475479947</speed>
  <fix>3d</fix>
</trkpt>
<trkpt lat="-27.2731541" lon="151.2910154">
  <ele>396.32</ele>
  <time>2026-09-01T19:55:19Z</time>
  <course>229.95</course>
  <speed>21.8</speed>
  <fix>3d</fix>
</trkpt>
<trkpt lat="-27.2731975" lon="151.2909472">
  <ele>395.29</ele>
  <time>2026-09-01T19:55:19Z</time>
  <course>258.68</course>
  <speed>20.538743875904387</speed>
  <fix>3d</fix>
</trkpt>
<trkpt lat="-27.2731776" lon="151.2909811">
  <ele>395.8</ele>
  <time>2026-09-01T19:55:19Z</time>
  <course>234.71</course>
  <speed>21.14</speed>
  <fix>3d</fix>
</trkpt>
<trkpt lat="-27.2732065" lon="151.2909293">
  <ele>395.05</ele>
  <time>2026-09-01T19:55:19Z</time>
  <course>260.57</course>
  <speed>20.257842925642404</speed>
  <fix>3d</fix>
</trkpt>
<trkpt lat="-27.2731776" lon="151.2909811">
  <ele>395.8</ele>
  <time>2026-09-01T19:55:19Z</time>
  <course>234.71</course>
  <speed>21.14</speed>
  <fix>3d</fix>
</trkpt>
<trkpt lat="-27.2732148" lon="151.2909113">
  <ele>394.82</ele>
  <time>2026-09-01T19:55:19Z</time>
  <course>262.42</course>
  <speed>19.99056027228852</speed>
  <fix>3d</fix>
</trkpt>
<trkpt lat="-27.273198" lon="151.2909457">
  <ele>395.3</ele>
  <time>2026-09-01T19:55:19Z</time>
  <course>239.37</course>
  <speed>20.54</speed>
  <fix>3d</fix>
</trkpt>
<trkpt lat="-27.2732224" lon="151.2908932">
  <ele>394.59</ele>
  <time>2026-09-01T19:55:19Z</time>
  <course>264.22</course>
  <speed>19.747660620944444</speed>
  <fix>3d</fix>
</trkpt>
<trkpt lat="-27.273198" lon="151.2909457">
  <ele>395.3</ele>
  <time>2026-09-01T19:55:19Z</time>
  <course>239.37</course>
  <speed>20.54</speed>
  <fix>3d</fix>
</trkpt>
<trkpt lat="-27.2732293" lon="151.290875">
  <ele>394.37</ele>
  <time>2026-09-01T19:55:19Z</time>
  <course>265.87</course>
  <speed>19.511394107033972</speed>
  <fix>3d</fix>
</trkpt>
<trkpt lat="-27.2732153" lon="151.2909096">
  <ele>394.83</ele>
  <time>2026-09-01T19:55:19Z</time>
  <course>243.86</course>
  <speed>20.0</speed>
  <fix>3d</fix>
</trkpt>
<trkpt lat="-27.2732356" lon="151.2908568">
  <ele>394.16</ele>
  <time>2026-09-01T19:55:19Z</time>
  <course>267.42</course>
  <speed>19.308632784327326</speed>
  <fix>3d</fix>
</trkpt>
<trkpt lat="-27.2732153" lon="151.2909096">
  <ele>394.83</ele>
  <time>2026-09-01T19:55:19Z</time>
  <course>243.86</course>
  <speed>20.0</speed>
  <fix>3d</fix>
</trkpt>
<trkpt lat="-27.2732412" lon="151.2908385">
  <ele>393.96</ele>
  <time>2026-09-01T19:55:19Z</time>
  <course>268.96</course>
  <speed>19.109675559778612</speed>
  <fix>3d</fix>
</trkpt>
<trkpt lat="-27.2732297" lon="151.2908731">
  <ele>394.39</ele>
  <time>2026-09-01T19:55:19Z</time>
  <course>248.07</course>
  <speed>19.53</speed>
  <fix>3d</fix>
</trkpt>
<trkpt lat="-27.2732463" lon="151.2908202">
  <ele>393.76</ele>
  <time>2026-09-01T19:55:19Z</time>
  <course>270.45</course>
  <speed>18.92774154515007</speed>
  <fix>3d</fix>
</trkpt>
<trkpt lat="-27.2732297" lon="151.2908731">
  <ele>394.39</ele>
  <time>2026-09-01T19:55:19Z</time>
  <course>248.07</course>
  <speed>19.53</speed>
  <fix>3d</fix>
</trkpt>
<trkpt lat="-27.2732508" lon="151.2908018">
  <ele>393.56</ele>
  <time>2026-09-01T19:55:19Z</time>
  <course>271.79</course>
  <speed>18.76633688283358</speed>
  <fix>3d</fix>
</trkpt>
<trkpt lat="-27.2732416" lon="151.2908364">
  <ele>393.97</ele>
  <time>2026-09-01T19:55:19Z</time>
  <course>251.96</course>
  <speed>19.13</speed>
  <fix>3d</fix>
</trkpt>
<trkpt lat="-27.2732549" lon="151.2907835">
  <ele>393.37</ele>
  <time>2026-09-01T19:55:19Z</time>
  <course>273.09</course>
  <speed>18.622129308970013</speed>
  <fix>3d</fix>
</trkpt>
<trkpt lat="-27.2732416" lon="151.2908364">
  <ele>393.97</ele>
  <time>2026-09-01T19:55:19Z</time>
  <course>251.96</course>
  <speed>19.13</speed>
  <fix>3d</fix>
</trkpt>
<trkpt lat="-27.2732584" lon="151.2907652">
  <ele>393.18</ele>
  <time>2026-09-01T19:55:19Z</time>
  <course>274.37</course>
  <speed>18.4919036337528</speed>
  <fix>3d</fix>
</trkpt>
<trkpt lat="-27.2732511" lon="151.2907996">
  <ele>393.58</ele>
  <time>2026-09-01T19:55:19Z</time>
  <course>255.54</course>
  <speed>18.79</speed>
  <fix>3d</fix>
</trkpt>
<trkpt lat="-27.2732614" lon="151.2907469">
  <ele>393.0</ele>
  <time>2026-09-01T19:55:19Z</time>
  <course>275.62</course>
  <speed>18.37722503535286</speed>
  <fix>3d</fix>
</trkpt>
<trkpt lat="-27.2732511" lon="151.2907996">
  <ele>393.58</ele>
  <time>2026-09-01T19:55:19Z</time>
  <course>255.54</course>
  <speed>18.79</speed>
  <fix>3d</fix>
</trkpt>
<trkpt lat="-27.273264" lon="151.2907286">
  <ele>392.83</ele>
  <time>2026-09-01T19:55:19Z</time>
  <course>276.78</course>
  <speed>18.26912696326784</speed>
  <fix>3d</fix>
</trkpt>
<trkpt lat="-27.2732585" lon="151.2907629">
  <ele>393.21</ele>
  <time>2026-09-01T19:55:19Z</time>
  <course>258.81</course>
  <speed>18.52</speed>
  <fix>3d</fix>
</trkpt>
<trkpt lat="-27.2732662" lon="151.2907104">
  <ele>392.66</ele>
  <time>2026-09-01T19:55:19Z</time>
  <course>277.87</course>
  <speed>18.167382860500297</speed>
  <fix>3d</fix>
</trkpt>
<trkpt lat="-27.2732585" lon="151.2907629">
  <ele>393.21</ele>
  <time>2026-09-01T19:55:19Z</time>
  <course>258.81</course>
  <speed>18.52</speed>
  <fix>3d</fix>
</trkpt>
<trkpt lat="-27.273268" lon="151.2906922">
  <ele>392.5</ele>
  <time>2026-09-01T19:55:19Z</time>
  <course>278.89</course>
  <speed>18.087796991341982</speed>
  <fix>3d</fix>
</trkpt>
<trkpt lat="-27.2732641" lon="151.2907263">
  <ele>392.86</ele>
  <time>2026-09-01T19:55:19Z</time>
  <course>261.84</course>
  <speed>18.29</speed>
  <fix>3d</fix>
</trkpt>
<trkpt lat="-27.2732694" lon="151.290674">
  <ele>392.34</ele>
  <time>2026-09-01T19:55:19Z</time>
  <course>279.88</course>
  <speed>18.001447164047672</speed>
  <fix>3d</fix>
</trkpt>
<trkpt lat="-27.2732641" lon="151.2907263">
  <ele>392.86</ele>
  <time>2026-09-01T19:55:19Z</time>
  <course>261.84</course>
  <speed>18.29</speed>
  <fix>3d</fix>
</trkpt>
<trkpt lat="-27.2732704" lon="151.2906557">
  <ele>392.19</ele>
  <time>2026-09-01T19:55:19Z</time>
  <course>280.88</course>
  <speed>17.935177724237917</speed>
  <fix>3d</fix>
</trkpt>
<trkpt lat="-27.2732679" lon="151.2906897">
  <ele>392.53</ele>
  <time>2026-09-01T19:55:19Z</time>
  <course>264.65</course>
  <speed>18.11</speed>
  <fix>3d</fix>
</trkpt>
<trkpt lat="-27.273271" lon="151.2906376">
  <ele>392.06</ele>
  <time>2026-09-01T19:55:19Z</time>
  <course>281.87</course>
  <speed>17.868777238524185</speed>
  <fix>3d</fix>
</trkpt>
<trkpt lat="-27.2732679" lon="151.2906897">
  <ele>392.53</ele>
  <time>2026-09-01T19:55:19Z</time>
  <course>264.65</course>
  <speed>18.11</speed>
  <fix>3d</fix>
</trkpt>
<trkpt lat="-27.2732713" lon="151.2906196">
  <ele>391.93</ele>
  <time>2026-09-01T19:55:19Z</time>
  <course>282.8</course>
  <speed>17.810909578120935</speed>
  <fix>3d</fix>
</trkpt>
<trkpt lat="-27.2732701" lon="151.2906533">
  <ele>392.24</ele>
  <time>2026-09-01T19:55:19Z</time>
  <course>267.27</course>
  <speed>17.96</speed>
  <fix>3d</fix>
</trkpt>
<trkpt lat="-27.2732713" lon="151.2906016">
  <ele>391.8</ele>
  <time>2026-09-01T19:55:19Z</time>
  <course>283.6</course>
  <speed>17.76091213873882</speed>
  <fix>3d</fix>
</trkpt>
<trkpt lat="-27.2732701" lon="151.2906533">
  <ele>392.24</ele>
  <time>2026-09-01T19:55:19Z</time>
  <course>267.27</course>
  <speed>17.96</speed>
  <fix>3d</fix>
</trkpt>
<trkpt lat="-27.2732709" lon="151.2905837">
  <ele>391.69</ele>
  <time>2026-09-01T19:55:19Z</time>
  <course>284.39</course>
  <speed>17.71792877285604</speed>
  <fix>3d</fix>
</trkpt>
<trkpt lat="-27.273271" lon="151.2906171">
  <ele>391.97</ele>
  <time>2026-09-01T19:55:19Z</time>
  <course>269.72</course>
  <speed>17.84</speed>
  <fix>3d</fix>
</trkpt>
<trkpt lat="-27.2732702" lon="151.2905658">
  <ele>391.59</ele>
  <time>2026-09-01T19:55:19Z</time>
  <course>285.26</course>
  <speed>17.660951276757434</speed>
  <fix>3d</fix>
</trkpt>
<trkpt lat="-27.273271" lon="151.2906171">
  <ele>391.97</ele>
  <time>2026-09-01T19:55:19Z</time>
  <course>269.72</course>
  <speed>17.84</speed>
  <fix>3d</fix>
</trkpt>
<trkpt lat="-27.2732693" lon="151.290548">
  <ele>391.49</ele>
  <time>2026-09-01T19:55:19Z</time>
  <course>286.07</course>
  <speed>17.620908035626314</speed>
  <fix>3d</fix>
</trkpt>
<trkpt lat="-27.2732705" lon="151.2905812">
  <ele>391.74</ele>
  <time>2026-09-01T19:55:19Z</time>
  <course>272.03</course>
  <speed>17.74</speed>
  <fix>3d</fix>
</trkpt>
<trkpt lat="-27.273268" lon="151.2905302">
  <ele>391.41</ele>
  <time>2026-09-01T19:55:19Z</time>
  <course>286.89</course>
  <speed>17.585812463460424</speed>
  <fix>3d</fix>
</trkpt>
<trkpt lat="-27.2732705" lon="151.2905812">
  <ele>391.74</ele>
  <time>2026-09-01T19:55:19Z</time>
  <course>272.03</course>
  <speed>17.74</speed>
  <fix>3d</fix>
</trkpt>
<trkpt lat="-27.2732665" lon="151.2905126">
  <ele>391.34</ele>
  <time>2026-09-01T19:55:19Z</time>
  <course>287.68</course>
  <speed>17.545694628597637</speed>
  <fix>3d</fix>
</trkpt>
<trkpt lat="-27.2732688" lon="151.2905456">
  <ele>391.55</ele>
  <time>2026-09-01T19:55:19Z</time>
  <course>274.22</course>
  <speed>17.65</speed>
  <fix>3d</fix>
</trkpt>
<trkpt lat="-27.2732647" lon="151.2904949">
  <ele>391.28</ele>
  <time>2026-09-01T19:55:19Z</time>
  <course>288.43</course>
  <speed>17.51247840826649</speed>
  <fix>3d</fix>
</trkpt>
<trkpt lat="-27.2732688" lon="151.2905456">
  <ele>391.55</ele>
  <time>2026-09-01T19:55:19Z</time>
  <course>274.22</course>
  <speed>17.65</speed>
  <fix>3d</fix>
</trkpt>
<trkpt lat="-27.2732626" lon="151.2904774">
  <ele>391.23</ele>
  <time>2026-09-01T19:55:19Z</time>
  <course>289.12</course>
  <speed>17.47262144041357</speed>
  <fix>3d</fix>
</trkpt>
<trkpt lat="-27.2732659" lon="151.29051">
  <ele>391.4</ele>
  <time>2026-09-01T19:55:19Z</time>
  <course>276.33</course>
  <speed>17.57</speed>
  <fix>3d</fix>
</trkpt>
<trkpt lat="-27.2732602" lon="151.2904599">
  <ele>391.18</ele>
  <time>2026-09-01T19:55:19Z</time>
  <course>289.83</course>
  <speed>17.436628114403312</speed>
  <fix>3d</fix>
</trkpt>
<trkpt lat="-27.2732659" lon="151.29051">
  <ele>391.4</ele>
  <time>2026-09-01T19:55:19Z</time>
  <course>276.33</course>
  <speed>17.57</speed>
  <fix>3d</fix>
</trkpt>
<trkpt lat="-27.2732576" lon="151.2904425">
  <ele>391.15</ele>
  <time>2026-09-01T19:55:19Z</time>
  <course>290.54</course>
  <speed>17.405760540694565</speed>
  <fix>3d</fix>
</trkpt>
<trkpt lat="-27.2732619" lon="151.2904748">
  <ele>391.3</ele>
  <time>2026-09-01T19:55:19Z</time>
  <course>278.36</course>
  <speed>17.49</speed>
  <fix>3d</fix>
</trkpt>
<trkpt lat="-27.2732547" lon="151.2904253">
  <ele>391.13</ele>
  <time>2026-09-01T19:55:19Z</time>
  <course>291.23</course>
  <speed>17.37023028056911</speed>
  <fix>3d</fix>
</trkpt>
<trkpt lat="-27.2732619" lon="151.2904748">
  <ele>391.3</ele>
  <time>2026-09-01T19:55:19Z</time>
  <course>278.36</course>
  <speed>17.49</speed>
  <fix>3d</fix>
</trkpt>
<trkpt lat="-27.2732515" lon="151.290408">
  <ele>391.12</ele>
  <time>2026-09-01T19:55:19Z</time>
  <course>291.94</course>
  <speed>17.33786607400115</speed>
  <fix>3d</fix>
</trkpt>
<trkpt lat="-27.2732568" lon="151.29044">
  <ele>391.23</ele>
  <time>2026-09-01T19:55:19Z</time>
  <course>280.33</course>
  <speed>17.42</speed>
  <fix>3d</fix>
</trkpt>
<trkpt lat="-27.2732481" lon="151.2903909">
  <ele>391.11</ele>
  <time>2026-09-01T19:55:19Z</time>
  <course>292.57</course>
  <speed>17.302939056703632</speed>
  <fix>3d</fix>
</trkpt>
<trkpt lat="-27.2732568" lon="151.29044">
  <ele>391.23</ele>
  <time>2026-09-01T19:55:19Z</time>
  <course>280.33</course>
  <speed>17.42</speed>
  <fix>3d</fix>
</trkpt>
<trkpt lat="-27.2732445" lon="151.2903739">
  <ele>391.11</ele>
  <time>2026-09-01T19:55:19Z</time>
  <course>293.12</course>
  <speed>17.268561028643933</speed>
  <fix>3d</fix>
</trkpt>
<trkpt lat="-27.2732507" lon="151.2904055">
  <ele>391.2</ele>
  <time>2026-09-01T19:55:19Z</time>
  <course>282.28</course>
  <speed>17.36</speed>
  <fix>3d</fix>
</trkpt>
<trkpt lat="-27.2732406" lon="151.290357">
  <ele>391.12</ele>
  <time>2026-09-01T19:55:19Z</time>
  <course>293.72</course>
  <speed>17.236356923665745</speed>
  <fix>3d</fix>
</trkpt>
<trkpt lat="-27.2732507" lon="151.2904055">
  <ele>391.2</ele>
  <time>2026-09-01T19:55:19Z</time>
  <course>282.28</course>
  <speed>17.36</speed>
  <fix>3d</fix>
</trkpt>
<trkpt lat="-27.2732364" lon="151.2903402">
  <ele>391.14</ele>
  <time>2026-09-01T19:55:19Z</time>
  <course>294.41</course>
  <speed>17.20860249991265</speed>
  <fix>3d</fix>
</trkpt>
<trkpt lat="-27.2732435" lon="151.2903715">
  <ele>391.19</ele>
  <time>2026-09-01T19:55:19Z</time>
  <course>284.19</course>
  <speed>17.29</speed>
  <fix>3d</fix>
</trkpt>
<trkpt lat="-27.2732321" lon="151.2903235">
  <ele>391.16</ele>
  <time>2026-09-01T19:55:19Z</time>
  <course>295.05</course>
  <speed>17.169044819092296</speed>
  <fix>3d</fix>
</trkpt>
<trkpt lat="-27.2732435" lon="151.2903715">
  <ele>391.19</ele>
  <time>2026-09-01T19:55:19Z</time>
  <course>284.19</course>
  <speed>17.29</speed>
  <fix>3d</fix>
</trkpt>
<trkpt lat="-27.2732275" lon="151.290307">
  <ele>391.19</ele>
  <time>2026-09-01T19:55:19Z</time>
  <course>295.73</course>
  <speed>17.13144769130735</speed>
  <fix>3d</fix>
</trkpt>
<trkpt lat="-27.2732354" lon="151.2903378">
  <ele>391.22</ele>
  <time>2026-09-01T19:55:19Z</time>
  <course>286.06</course>
  <speed>17.22</speed>
  <fix>3d</fix>
</trkpt>
<trkpt lat="-27.2732227" lon="151.2902907">
  <ele>391.22</ele>
  <time>2026-09-01T19:55:19Z</time>
  <course>296.41</course>
  <speed>17.08909008695314</speed>
  <fix>3d</fix>
</trkpt>
<trkpt lat="-27.2732354" lon="151.2903378">
  <ele>391.22</ele>
  <time>2026-09-01T19:55:19Z</time>
  <course>286.06</course>
  <speed>17.22</speed>
  <fix>3d</fix>
</trkpt>
<trkpt lat="-27.2732176" lon="151.2902744">
  <ele>391.26</ele>
  <time>2026-09-01T19:55:19Z</time>
  <course>297.06</course>
  <speed>17.051583504179312</speed>
  <fix>3d</fix>
</trkpt>
<trkpt lat="-27.2732264" lon="151.2903046">
  <ele>391.27</ele>
  <time>2026-09-01T19:55:19Z</time>
  <course>287.97</course>
  <speed>17.14</speed>
  <fix>3d</fix>
</trkpt>
<trkpt lat="-27.2732123" lon="151.2902582">
  <ele>391.31</ele>
  <time>2026-09-01T19:55:19Z</time>
  <course>297.76</course>
  <speed>17.003767229646495</speed>
  <fix>3d</fix>
</trkpt>
<trkpt lat="-27.2732264" lon="151.2903046">
  <ele>391.27</ele>
  <time>2026-09-01T19:55:19Z</time>
  <course>287.97</course>
  <speed>17.14</speed>
  <fix>3d</fix>
</trkpt>
<trkpt lat="-27.2732067" lon="151.2902422">
  <ele>391.36</ele>
  <time>2026-09-01T19:55:19Z</time>
  <course>298.41</course>
  <speed>16.967041580664556</speed>
  <fix>3d</fix>
</trkpt>
<trkpt lat="-27.2732164" lon="151.2902719">
  <ele>391.34</ele>
  <time>2026-09-01T19:55:19Z</time>
  <course>289.91</course>
  <speed>17.06</speed>
  <fix>3d</fix>
</trkpt>
<trkpt lat="-27.2732008" lon="151.290226">
  <ele>391.41</ele>
  <time>2026-09-01T19:55:19Z</time>
  <course>299.09</course>
  <speed>16.92464770682096</speed>
  <fix>3d</fix>
</trkpt>
<trkpt lat="-27.2732164" lon="151.2902719">
  <ele>391.34</ele>
  <time>2026-09-01T19:55:19Z</time>
  <course>289.91</course>
  <speed>17.06</speed>
  <fix>3d</fix>
</trkpt>
<trkpt lat="-27.2731948" lon="151.2902103">
  <ele>391.47</ele>
  <time>2026-09-01T19:55:19Z</time>
  <course>299.77</course>
  <speed>16.87108769463309</speed>
  <fix>3d</fix>
</trkpt>
<trkpt lat="-27.2732055" lon="151.2902398">
  <ele>391.44</ele>
  <time>2026-09-01T19:55:19Z</time>
  <course>291.91</course>
  <speed>16.98</speed>
  <fix>3d</fix>
</trkpt>
<trkpt lat="-27.2731885" lon="151.2901948">
  <ele>391.53</ele>
  <time>2026-09-01T19:55:19Z</time>
  <course>300.43</course>
  <speed>16.836368373256747</speed>
  <fix>3d</fix>
</trkpt>
<trkpt lat="-27.2732055" lon="151.2902398">
  <ele>391.44</ele>
  <time>2026-09-01T19:55:19Z</time>
  <course>291.91</course>
  <speed>16.98</speed>
  <fix>3d</fix>
</trkpt>
<trkpt lat="-27.273182" lon="151.2901794">
  <ele>391.59</ele>
  <time>2026-09-01T19:55:19Z</time>
  <course>301.06</course>
  <speed>16.8030741235049</speed>
  <fix>3d</fix>
</trkpt>
<trkpt lat="-27.2731937" lon="151.2902083">
  <ele>391.55</ele>
  <time>2026-09-01T19:55:19Z</time>
  <course>293.96</course>
  <speed>16.89</speed>
  <fix>3d</fix>
</trkpt>
<trkpt lat="-27.2731753" lon="151.2901642">
  <ele>391.64</ele>
  <time>2026-09-01T19:55:19Z</time>
  <course>301.73</course>
  <speed>16.76196885810256</speed>
  <fix>3d</fix>
</trkpt>
<trkpt lat="-27.2731937" lon="151.2902083">
  <ele>391.55</ele>
  <time>2026-09-01T19:55:19Z</time>
  <course>293.96</course>
  <speed>16.89</speed>
  <fix>3d</fix>
</trkpt>
<trkpt lat="-27.2731683" lon="151.2901492">
  <ele>391.7</ele>
  <time>2026-09-01T19:55:19Z</time>
  <course>302.43</course>
  <speed>16.727058916617707</speed>
  <fix>3d</fix>
</trkpt>
<trkpt lat="-27.2731808" lon="151.2901773">
  <ele>391.66</ele>
  <time>2026-09-01T19:55:19Z</time>
  <course>296.06</course>
  <speed>16.81</speed>
  <fix>3d</fix>
</trkpt>
<trkpt lat="-27.2731611" lon="151.2901343">
  <ele>391.76</ele>
  <time>2026-09-01T19:55:19Z</time>
  <course>303.14</course>
  <speed>16.689652482900893</speed>
  <fix>3d</fix>
</trkpt>
<trkpt lat="-27.2731808" lon="151.2901773">
  <ele>391.66</ele>
  <time>2026-09-01T19:55:19Z</time>
  <course>296.06</course>
  <speed>16.81</speed>
  <fix>3d</fix>
</trkpt>
<trkpt lat="-27.2731536" lon="151.2901196">
  <ele>391.82</ele>
  <time>2026-09-01T19:55:19Z</time>
  <course>303.85</course>
  <speed>16.65870643237343</speed>
  <fix>3d</fix>
</trkpt>
<trkpt lat="-27.2731671" lon="151.2901471">
  <ele>391.78</ele>
  <time>2026-09-01T19:55:19Z</time>
  <course>298.23</course>
  <speed>16.73</speed>
  <fix>3d</fix>
</trkpt>
<trkpt lat="-27.2731459" lon="151.2901051">
  <ele>391.89</ele>
  <time>2026-09-01T19:55:19Z</time>
  <course>304.63</course>
  <speed>16.6257270517713</speed>
  <fix>3d</fix>
</trkpt>
<trkpt lat="-27.2731671" lon="151.2901471">
  <ele>391.78</ele>
  <time>2026-09-01T19:55:19Z</time>
  <course>298.23</course>
  <speed>16.73</speed>
  <fix>3d</fix>
</trkpt>
<trkpt lat="-27.2731379" lon="151.2900909">
  <ele>391.95</ele>
  <time>2026-09-01T19:55:19Z</time>
  <course>305.41</course>
  <speed>16.599484931768213</speed>
  <fix>3d</fix>
</trkpt>
<trkpt lat="-27.2731524" lon="151.2901177">
  <ele>391.9</ele>
  <time>2026-09-01T19:55:19Z</time>
  <course>300.48</course>
  <speed>16.66</speed>
  <fix>3d</fix>
</trkpt>
<trkpt lat="-27.2731297" lon="151.2900768">
  <ele>392.01</ele>
  <time>2026-09-01T19:55:19Z</time>
  <course>306.12</course>
  <speed>16.566140166013323</speed>
  <fix>3d</fix>
</trkpt>
<trkpt lat="-27.2731524" lon="151.2901177">
  <ele>391.9</ele>
  <time>2026-09-01T19:55:19Z</time>
  <course>300.48</course>
  <speed>16.66</speed>
  <fix>3d</fix>
</trkpt>
<trkpt lat="-27.2731212" lon="151.2900629">
  <ele>392.08</ele>
  <time>2026-09-01T19:55:19Z</time>
  <course>306.91</course>
  <speed>16.54275067816716</speed>
  <fix>3d</fix>
</trkpt>
<trkpt lat="-27.2731367" lon="151.2900891">
  <ele>392.02</ele>
  <time>2026-09-01T19:55:19Z</time>
  <course>302.77</course>
  <speed>16.59</speed>
  <fix>3d</fix>
</trkpt>
<trkpt lat="-27.2731125" lon="151.2900493">
  <ele>392.14</ele>
  <time>2026-09-01T19:55:19Z</time>
  <course>307.64</course>
  <speed>16.51302516197441</speed>
  <fix>3d</fix>
</trkpt>
<trkpt lat="-27.2731367" lon="151.2900891">
  <ele>392.02</ele>
  <time>2026-09-01T19:55:19Z</time>
  <course>302.77</course>
  <speed>16.59</speed>
  <fix>3d</fix>
</trkpt>
<trkpt lat="-27.2731036" lon="151.2900359">
  <ele>392.2</ele>
  <time>2026-09-01T19:55:19Z</time>
  <course>308.42</course>
  <speed>16.490876265377775</speed>
  <fix>3d</fix>
</trkpt>
<trkpt lat="-27.2731201" lon="151.2900614">
  <ele>392.15</ele>
  <time>2026-09-01T19:55:19Z</time>
  <course>305.15</course>
  <speed>16.53</speed>
  <fix>3d</fix>
</trkpt>
<trkpt lat="-27.2730944" lon="151.2900227">
  <ele>392.27</ele>
  <time>2026-09-01T19:55:19Z</time>
  <course>309.2</course>
  <speed>16.46227809265777</speed>
  <fix>3d</fix>
</trkpt>
<trkpt lat="-27.2731201" lon="151.2900614">
  <ele>392.15</ele>
  <time>2026-09-01T19:55:19Z</time>
  <course>305.15</course>
  <speed>16.53</speed>
  <fix>3d</fix>
</trkpt>
<trkpt lat="-27.273085" lon="151.2900098">
  <ele>392.33</ele>
  <time>2026-09-01T19:55:19Z</time>
  <course>310.01</course>
  <speed>16.447665487843555</speed>
  <fix>3d</fix>
</trkpt>
<trkpt lat="-27.2731025" lon="151.2900345">
  <ele>392.28</ele>
  <time>2026-09-01T19:55:19Z</time>
  <course>307.59</course>
  <speed>16.47</speed>
  <fix>3d</fix>
</trkpt>
<trkpt lat="-27.2730754" lon="151.2899972">
  <ele>392.39</ele>
  <time>2026-09-01T19:55:19Z</time>
  <course>310.82</course>
  <speed>16.426868234694037</speed>
  <fix>3d</fix>
</trkpt>
<trkpt lat="-27.2731025" lon="151.2900345">
  <ele>392.28</ele>
  <time>2026-09-01T19:55:19Z</time>
  <course>307.59</course>
  <speed>16.47</speed>
  <fix>3d</fix>
</trkpt>
<trkpt lat="-27.2730656" lon="151.2899849">
  <ele>392.45</ele>
  <time>2026-09-01T19:55:19Z</time>
  <course>311.65</course>
  <speed>16.42072470995114</speed>
  <fix>3d</fix>
</trkpt>
<trkpt lat="-27.273084" lon="151.2900086">
  <ele>392.41</ele>
  <time>2026-09-01T19:55:19Z</time>
  <course>310.07</course>
  <speed>16.42</speed>
  <fix>3d</fix>
</trkpt>
<trkpt lat="-27.2730555" lon="151.2899728">
  <ele>392.51</ele>
  <time>2026-09-01T19:55:19Z</time>
  <course>312.47</course>
  <speed>16.40868672380578</speed>
  <fix>3d</fix>
</trkpt>
<trkpt lat="-27.273084" lon="151.2900086">
  <ele>392.41</ele>
  <time>2026-09-01T19:55:19Z</time>
  <course>310.07</course>
  <speed>16.42</speed>
  <fix>3d</fix>
</trkpt>
<trkpt lat="-27.2730452" lon="151.2899609">
  <ele>392.57</ele>
  <time>2026-09-01T19:55:19Z</time>
  <course>313.31</course>
  <speed>16.397819977057924</speed>
  <fix>3d</fix>
</trkpt>
<trkpt lat="-27.2730645" lon="151.2899838">
  <ele>392.54</ele>
  <time>2026-09-01T19:55:19Z</time>
  <course>312.61</course>
  <speed>16.39</speed>
  <fix>3d</fix>
</trkpt>
<trkpt lat="-27.2730346" lon="151.2899494">
  <ele>392.63</ele>
  <time>2026-09-01T19:55:19Z</time>
  <course>314.1</course>
  <speed>16.388621052425368</speed>
  <fix>3d</fix>
</trkpt>
<trkpt lat="-27.2730645" lon="151.2899838">
  <ele>392.54</ele>
  <time>2026-09-01T19:55:19Z</time>
  <course>312.61</course>
  <speed>16.39</speed>
  <fix>3d</fix>
</trkpt>
<trkpt lat="-27.2730237" lon="151.289938">
  <ele>392.69</ele>
  <time>2026-09-01T19:55:19Z</time>
  <course>314.93</course>
  <speed>16.387656940514713</speed>
  <fix>3d</fix>
</trkpt>
<trkpt lat="-27.2730441" lon="151.2899599">
  <ele>392.66</ele>
  <time>2026-09-01T19:55:19Z</time>
  <course>315.19</course>
  <speed>16.37</speed>
  <fix>3d</fix>
</trkpt>
<trkpt lat="-27.2730127" lon="151.289927">
  <ele>392.75</ele>
  <time>2026-09-01T19:55:19Z</time>
  <course>315.79</course>
  <speed>16.381834451611333</speed>
  <fix>3d</fix>
</trkpt>
<trkpt lat="-27.2730441" lon="151.2899599">
  <ele>392.66</ele>
  <time>2026-09-01T19:55:19Z</time>
  <course>315.19</course>
  <speed>16.37</speed>
  <fix>3d</fix>
</trkpt>
<trkpt lat="-27.2730015" lon="151.2899163">
  <ele>392.81</ele>
  <time>2026-09-01T19:55:19Z</time>
  <course>316.67</course>
  <speed>16.38495956662695</speed>
  <fix>3d</fix>
</trkpt>
<trkpt lat="-27.2730228" lon="151.2899372">
  <ele>392.78</ele>
  <time>2026-09-01T19:55:19Z</time>
  <course>317.81</course>
  <speed>16.35</speed>
  <fix>3d</fix>
</trkpt>
<trkpt lat="-27.27299" lon="151.2899058">
  <ele>392.87</ele>
  <time>2026-09-01T19:55:19Z</time>
  <course>317.53</course>
  <speed>16.39083280373514</speed>
  <fix>3d</fix>
</trkpt>
<trkpt lat="-27.2730228" lon="151.2899372">
  <ele>392.78</ele>
  <time>2026-09-01T19:55:19Z</time>
  <course>317.81</course>
  <speed>16.35</speed>
  <fix>3d</fix>
</trkpt>
<trkpt lat="-27.2729783" lon="151.2898958">
  <ele>392.92</ele>
  <time>2026-09-01T19:55:19Z</time>
  <course>318.37</course>
  <speed>16.4</speed>
  <fix>3d</fix>
</trkpt>
<trkpt lat="-27.2730005" lon="151.2899155">
  <ele>392.89</ele>
  <time>2026-09-01T19:55:19Z</time>
  <course>320.48</course>
  <speed>16.35</speed>
  <fix>3d</fix>
</trkpt>
<trkpt lat="-27.2729664" lon="151.289886">
  <ele>392.98</ele>
  <time>2026-09-01T19:55:19Z</time>
  <course>319.27</course>
  <speed>16.404877323527902</speed>
  <fix>3d</fix>
</trkpt>
<trkpt lat="-27.2730005" lon="151.2899155">
  <ele>392.89</ele>
  <time>2026-09-01T19:55:19Z</time>
  <course>320.48</course>
  <speed>16.35</speed>
  <fix>3d</fix>
</trkpt>
<trkpt lat="-27.2729542" lon="151.2898765">
  <ele>393.04</ele>
  <time>2026-09-01T19:55:19Z</time>
  <course>320.11</course>
  <speed>16.42218621256013</speed>
  <fix>3d</fix>
</trkpt>
<trkpt lat="-27.2729774" lon="151.2898951">
  <ele>393.01</ele>
  <time>2026-09-01T19:55:19Z</time>
  <course>323.24</course>
  <speed>16.36</speed>
  <fix>3d</fix>
</trkpt>
<trkpt lat="-27.2729419" lon="151.2898673">
  <ele>393.1</ele>
  <time>2026-09-01T19:55:19Z</time>
  <course>320.98</course>
  <speed>16.443843832875572</speed>
  <fix>3d</fix>
</trkpt>
<trkpt lat="-27.2729774" lon="151.2898951">
  <ele>393.01</ele>
  <time>2026-09-01T19:55:19Z</time>
  <course>323.24</course>
  <speed>16.36</speed>
  <fix>3d</fix>
</trkpt>
<trkpt lat="-27.2729294" lon="151.2898585">
  <ele>393.15</ele>
  <time>2026-09-01T19:55:19Z</time>
  <course>321.91</course>
  <speed>16.455579600852715</speed>
  <fix>3d</fix>
</trkpt>
<trkpt lat="-27.2729534" lon="151.2898759">
  <ele>393.12</ele>
  <time>2026-09-01T19:55:19Z</time>
  <course>326.02</course>
  <speed>16.39</speed>
  <fix>3d</fix>
</trkpt>
<trkpt lat="-27.2729166" lon="151.2898501">
  <ele>393.2</ele>
  <time>2026-09-01T19:55:19Z</time>
  <course>322.84</course>
  <speed>16.480540039695303</speed>
  <fix>3d</fix>
</trkpt>
<trkpt lat="-27.2729534" lon="151.2898759">
  <ele>393.12</ele>
  <time>2026-09-01T19:55:19Z</time>
  <course>326.02</course>
  <speed>16.39</speed>
  <fix>3d</fix>
</trkpt>
<trkpt lat="-27.2729037" lon="151.2898419">
  <ele>393.26</ele>
  <time>2026-09-01T19:55:19Z</time>
  <course>323.72</course>
  <speed>16.510905486980416</speed>
  <fix>3d</fix>
</trkpt>
<trkpt lat="-27.2729286" lon="151.2898581">
  <ele>393.23</ele>
  <time>2026-09-01T19:55:19Z</time>
  <course>328.81</course>
  <speed>16.42</speed>
  <fix>3d</fix>
</trkpt>
<trkpt lat="-27.2728905" lon="151.2898342">
  <ele>393.31</ele>
  <time>2026-09-01T19:55:19Z</time>
  <course>324.58</course>
  <speed>16.53853983881286</speed>
  <fix>3d</fix>
</trkpt>
<trkpt lat="-27.2729286" lon="151.2898581">
  <ele>393.23</ele>
  <time>2026-09-01T19:55:19Z</time>
  <course>328.81</course>
  <speed>16.42</speed>
  <fix>3d</fix>
</trkpt>
<trkpt lat="-27.2728772" lon="151.2898267">
  <ele>393.36</ele>
  <time>2026-09-01T19:55:19Z</time>
  <course>325.44</course>
  <speed>16.571436268471118</speed>
  <fix>3d</fix>
</trkpt>
<trkpt lat="-27.2729029" lon="151.2898416">
  <ele>393.34</ele>
  <time>2026-09-01T19:55:19Z</time>
  <course>331.63</course>
  <speed>16.47</speed>
  <fix>3d</fix>
</trkpt>
<trkpt lat="-27.2728637" lon="151.2898197">
  <ele>393.41</ele>
  <time>2026-09-01T19:55:19Z</time>
  <course>326.32</course>
  <speed>16.618405459008397</speed>
  <fix>3d</fix>
</trkpt>
<trkpt lat="-27.2729029" lon="151.2898416">
  <ele>393.34</ele>
  <time>2026-09-01T19:55:19Z</time>
  <course>331.63</course>
  <speed>16.47</speed>
  <fix>3d</fix>
</trkpt>
<trkpt lat="-27.27285" lon="151.2898129">
  <ele>393.46</ele>
  <time>2026-09-01T19:55:19Z</time>
  <course>327.22</course>
  <speed>16.65640117192186</speed>
  <fix>3d</fix>
</trkpt>
<trkpt lat="-27.2728765" lon="151.2898264">
  <ele>393.44</ele>
  <time>2026-09-01T19:55:19Z</time>
  <course>334.43</course>
  <speed>16.54</speed>
  <fix>3d</fix>
</trkpt>
<trkpt lat="-27.2728361" lon="151.2898066">
  <ele>393.5</ele>
  <time>2026-09-01T19:55:19Z</time>
  <course>328.19</course>
  <speed>16.70534345651115</speed>
  <fix>3d</fix>
</trkpt>
<trkpt lat="-27.2728765" lon="151.2898264">
  <ele>393.44</ele>
  <time>2026-09-01T19:55:19Z</time>
  <course>334.43</course>
  <speed>16.54</speed>
  <fix>3d</fix>
</trkpt>
<trkpt lat="-27.272822" lon="151.2898006">
  <ele>393.54</ele>
  <time>2026-09-01T19:55:19Z</time>
  <course>329.15</course>
  <speed>16.754873917758974</speed>
  <fix>3d</fix>
</trkpt>
<trkpt lat="-27.2728493" lon="151.2898126">
  <ele>393.53</ele>
  <time>2026-09-01T19:55:19Z</time>
  <course>337.18</course>
  <speed>16.62</speed>
  <fix>3d</fix>
</trkpt>
<trkpt lat="-27.2728079" lon="151.289795">
  <ele>393.58</ele>
  <time>2026-09-01T19:55:19Z</time>
  <course>330.04</course>
  <speed>16.80769169160358</speed>
  <fix>3d</fix>
</trkpt>
<trkpt lat="-27.2728493" lon="151.2898126">
  <ele>393.53</ele>
  <time>2026-09-01T19:55:19Z</time>
  <course>337.18</course>
  <speed>16.62</speed>
  <fix>3d</fix>
</trkpt>
<trkpt lat="-27.2727936" lon="151.2897897">
  <ele>393.62</ele>
  <time>2026-09-01T19:55:19Z</time>
  <course>331.03</course>
  <speed>16.877630165399406</speed>
  <fix>3d</fix>
</trkpt>
<trkpt lat="-27.2728215" lon="151.2898004">
  <ele>393.62</ele>
  <time>2026-09-01T19:55:19Z</time>
  <course>339.96</course>
  <speed>16.72</speed>
  <fix>3d</fix>
</trkpt>
<trkpt lat="-27.272779" lon="151.2897849">
  <ele>393.66</ele>
  <time>2026-09-01T19:55:19Z</time>
  <course>331.99</course>
  <speed>16.939365395433207</speed>
  <fix>3d</fix>
</trkpt>
<trkpt lat="-27.2728215" lon="151.2898004">
  <ele>393.62</ele>
  <time>2026-09-01T19:55:19Z</time>
  <course>339.96</course>
  <speed>16.72</speed>
  <fix>3d</fix>
</trkpt>
<trkpt lat="-27.2727643" lon="151.2897804">
  <ele>393.7</ele>
  <time>2026-09-01T19:55:19Z</time>
  <course>332.92</course>
  <speed>17.011725368110078</speed>
  <fix>3d</fix>
</trkpt>
<trkpt lat="-27.2727929" lon="151.2897896">
  <ele>393.7</ele>
  <time>2026-09-01T19:55:19Z</time>
  <course>342.85</course>
  <speed>16.84</speed>
  <fix>3d</fix>
</trkpt>
<trkpt lat="-27.2727493" lon="151.2897763">
  <ele>393.74</ele>
  <time>2026-09-01T19:55:19Z</time>
  <course>333.89</course>
  <speed>17.08259055295771</speed>
  <fix>3d</fix>
</trkpt>
<trkpt lat="-27.2727929" lon="151.2897896">
  <ele>393.7</ele>
  <time>2026-09-01T19:55:19Z</time>
  <course>342.85</course>
  <speed>16.84</speed>
  <fix>3d</fix>
</trkpt>
<trkpt lat="-27.2727343" lon="151.2897727">
  <ele>393.77</ele>
  <time>2026-09-01T19:55:19Z</time>
  <course>334.94</course>
  <speed>17.164171987019937</speed>
  <fix>3d</fix>
</trkpt>
<trkpt lat="-27.2727637" lon="151.2897803">
  <ele>393.77</ele>
  <time>2026-09-01T19:55:19Z</time>
  <course>345.73</course>
  <speed>16.97</speed>
  <fix>3d</fix>
</trkpt>
<trkpt lat="-27.2727191" lon="151.2897694">
  <ele>393.8</ele>
  <time>2026-09-01T19:55:19Z</time>
  <course>335.93</course>
  <speed>17.24298118075874</speed>
  <fix>3d</fix>
</trkpt>
<trkpt lat="-27.2727637" lon="151.2897803">
  <ele>393.77</ele>
  <time>2026-09-01T19:55:19Z</time>
  <course>345.73</course>
  <speed>16.97</speed>
  <fix>3d</fix>
</trkpt>
<trkpt lat="-27.2727038" lon="151.2897666">
  <ele>393.83</ele>
  <time>2026-09-01T19:55:19Z</time>
  <course>336.93</course>
  <speed>17.34297840625998</speed>
  <fix>3d</fix>
</trkpt>
<trkpt lat="-27.2727338" lon="151.2897726">
  <ele>393.84</ele>
  <time>2026-09-01T19:55:19Z</time>
  <course>348.59</course>
  <speed>17.13</speed>
  <fix>3d</fix>
</trkpt>
<trkpt lat="-27.2726883" lon="151.2897642">
  <ele>393.86</ele>
  <time>2026-09-01T19:55:19Z</time>
  <course>338.01</course>
  <speed>17.441780299040577</speed>
  <fix>3d</fix>
</trkpt>
<trkpt lat="-27.2727338" lon="151.2897726">
  <ele>393.84</ele>
  <time>2026-09-01T19:55:19Z</time>
  <course>348.59</course>
  <speed>17.13</speed>
  <fix>3d</fix>
</trkpt>
<trkpt lat="-27.2726727" lon="151.2897623">
  <ele>393.88</ele>
  <time>2026-09-01T19:55:19Z</time>
  <course>339.07</course>
  <speed>17.541599128927786</speed>
  <fix>3d</fix>
</trkpt>
<trkpt lat="-27.2727032" lon="151.2897666">
  <ele>393.9</ele>
  <time>2026-09-01T19:55:19Z</time>
  <course>351.53</course>
  <speed>17.31</speed>
  <fix>3d</fix>
</trkpt>
<trkpt lat="-27.272657" lon="151.2897609">
  <ele>393.91</ele>
  <time>2026-09-01T19:55:19Z</time>
  <course>340.1</course>
  <speed>17.65290344390973</speed>
  <fix>3d</fix>
</trkpt>
<trkpt lat="-27.2727032" lon="151.2897666">
  <ele>393.9</ele>
  <time>2026-09-01T19:55:19Z</time>
  <course>351.53</course>
  <speed>17.31</speed>
  <fix>3d</fix>
</trkpt>
<trkpt lat="-27.2726411" lon="151.2897598">
  <ele>393.94</ele>
  <time>2026-09-01T19:55:19Z</time>
  <course>341.18</course>
  <speed>17.75713940926297</speed>
  <fix>3d</fix>
</trkpt>
<trkpt lat="-27.2726722" lon="151.2897623">
  <ele>393.96</ele>
  <time>2026-09-01T19:55:19Z</time>
  <course>354.54</course>
  <speed>17.51</speed>
  <fix>3d</fix>
</trkpt>
<trkpt lat="-27.2726251" lon="151.2897593">
  <ele>393.96</ele>
  <time>2026-09-01T19:55:19Z</time>
  <course>342.26</course>
  <speed>17.882687158254488</speed>
  <fix>3d</fix>
</trkpt>
<trkpt lat="-27.2726722" lon="151.2897623">
  <ele>393.96</ele>
  <time>2026-09-01T19:55:19Z</time>
  <course>354.54</course>
  <speed>17.51</speed>
  <fix>3d</fix>
</trkpt>
<trkpt lat="-27.272609" lon="151.2897592">
  <ele>393.98</ele>
  <time>2026-09-01T19:55:19Z</time>
  <course>343.38</course>
  <speed>18.00062498914968</speed>
  <fix>3d</fix>
</trkpt>
<trkpt lat="-27.2726406" lon="151.2897599">
  <ele>394.01</ele>
  <time>2026-09-01T19:55:19Z</time>
  <course>357.55</course>
  <speed>17.73</speed>
  <fix>3d</fix>
</trkpt>
<trkpt lat="-27.2725928" lon="151.2897596">
  <ele>394.01</ele>
  <time>2026-09-01T19:55:19Z</time>
  <course>344.48</course>
  <speed>18.130948678985334</speed>
  <fix>3d</fix>
</trkpt>
<trkpt lat="-27.2726406" lon="151.2897599">
  <ele>394.01</ele>
  <time>2026-09-01T19:55:19Z</time>
  <course>357.55</course>
  <speed>17.73</speed>
  <fix>3d</fix>
</trkpt>
<trkpt lat="-27.2725765" lon="151.2897605">
  <ele>394.03</ele>
  <time>2026-09-01T19:55:19Z</time>
  <course>345.57</course>
  <speed>18.264372422834573</speed>
  <fix>3d</fix>
</trkpt>
<trkpt lat="-27.2726085" lon="151.2897593">
  <ele>394.06</ele>
  <time>2026-09-01T19:55:19Z</time>
  <course>0.56</course>
  <speed>17.97</speed>
  <fix>3d</fix>
</trkpt>
<trkpt lat="-27.2725601" lon="151.2897619">
  <ele>394.05</ele>
  <time>2026-09-01T19:55:19Z</time>
  <course>346.67</course>
  <speed>18.400570643325167</speed>
  <fix>3d</fix>
</trkpt>
<trkpt lat="-27.2726085" lon="151.2897593">
  <ele>394.06</ele>
  <time>2026-09-01T19:55:19Z</time>
  <course>0.56</course>
  <speed>17.97</speed>
  <fix>3d</fix>
</trkpt>
<trkpt lat="-27.2725434" lon="151.2897637">
  <ele>394.07</ele>
  <time>2026-09-01T19:55:19Z</time>
  <course>347.85</course>
  <speed>18.552676356795534</speed>
  <fix>3d</fix>
</trkpt>
<trkpt lat="-27.272576" lon="151.2897607">
  <ele>394.11</ele>
  <time>2026-09-01T19:55:19Z</time>
  <course>3.59</course>
  <speed>18.23</speed>
  <fix>3d</fix>
</trkpt>
<trkpt lat="-27.2725269" lon="151.2897662">
  <ele>394.1</ele>
  <time>2026-09-01T19:55:19Z</time>
  <course>348.99</course>
  <speed>18.70863169769505</speed>
  <fix>3d</fix>
</trkpt>
<trkpt lat="-27.272576" lon="151.2897607">
  <ele>394.11</ele>
  <time>2026-09-01T19:55:19Z</time>
  <course>3.59</course>
  <speed>18.23</speed>
  <fix>3d</fix>
</trkpt>
<trkpt lat="-27.2725102" lon="151.2897691">
  <ele>394.12</ele>
  <time>2026-09-01T19:55:19Z</time>
  <course>350.14</course>
  <speed>18.856661952742325</speed>
  <fix>3d</fix>
</trkpt>
<trkpt lat="-27.2725432" lon="151.289764">
  <ele>394.16</ele>
  <time>2026-09-01T19:55:19Z</time>
  <course>6.64</course>
  <speed>18.52</speed>
  <fix>3d</fix>
</trkpt>
<trkpt lat="-27.2724935" lon="151.2897726">
  <ele>394.14</ele>
  <time>2026-09-01T19:55:19Z</time>
  <course>351.41</course>
  <speed>19.02134853263564</speed>
  <fix>3d</fix>
</trkpt>
<trkpt lat="-27.2725432" lon="151.289764">
  <ele>394.16</ele>
  <time>2026-09-01T19:55:19Z</time>
  <course>6.64</course>
  <speed>18.52</speed>
  <fix>3d</fix>
</trkpt>
<trkpt lat="-27.2724769" lon="151.2897766">
  <ele>394.17</ele>
  <time>2026-09-01T19:55:19Z</time>
  <course>352.63</course>
  <speed>19.18220529553367</speed>
  <fix>3d</fix>
</trkpt>
<trkpt lat="-27.2725099" lon="151.2897693">
  <ele>394.21</ele>
  <time>2026-09-01T19:55:19Z</time>
  <course>9.71</course>
  <speed>18.82</speed>
  <fix>3d</fix>
</trkpt>
<trkpt lat="-27.2724601" lon="151.2897811">
  <ele>394.19</ele>
  <time>2026-09-01T19:55:19Z</time>
  <course>353.89</course>
  <speed>19.3618619972357</speed>
  <fix>3d</fix>
</trkpt>
<trkpt lat="-27.2725099" lon="151.2897693">
  <ele>394.21</ele>
  <time>2026-09-01T19:55:19Z</time>
  <course>9.71</course>
  <speed>18.82</speed>
  <fix>3d</fix>
</trkpt>
<trkpt lat="-27.2724433" lon="151.2897862">
  <ele>394.22</ele>
  <time>2026-09-01T19:55:19Z</time>
  <course>355.16</course>
  <speed>19.53680117112318</speed>
  <fix>3d</fix>
</trkpt>
<trkpt lat="-27.2724765" lon="151.2897768">
  <ele>394.27</ele>
  <time>2026-09-01T19:55:19Z</time>
  <course>12.8</course>
  <speed>19.15</speed>
  <fix>3d</fix>
</trkpt>
<trkpt lat="-27.2724264" lon="151.2897919">
  <ele>394.24</ele>
  <time>2026-09-01T19:55:19Z</time>
  <course>356.46</course>
  <speed>19.722601248314078</speed>
  <fix>3d</fix>
</trkpt>
<trkpt lat="-27.2724765" lon="151.2897768">
  <ele>394.27</ele>
  <time>2026-09-01T19:55:19Z</time>
  <course>12.8</course>
  <speed>19.15</speed>
  <fix>3d</fix>
</trkpt>
<trkpt lat="-27.2724094" lon="151.2897983">
  <ele>394.27</ele>
  <time>2026-09-01T19:55:19Z</time>
  <course>357.74</course>
  <speed>19.917399428640277</speed>
  <fix>3d</fix>
</trkpt>
<trkpt lat="-27.2724429" lon="151.2897865">
  <ele>394.32</ele>
  <time>2026-09-01T19:55:19Z</time>
  <course>15.95</course>
  <speed>19.51</speed>
  <fix>3d</fix>
</trkpt>
<trkpt lat="-27.2723926" lon="151.2898052">
  <ele>394.29</ele>
  <time>2026-09-01T19:55:19Z</time>
  <course>358.99</course>
  <speed>20.112446395205133</speed>
  <fix>3d</fix>
</trkpt>
<trkpt lat="-27.2724429" lon="151.2897865">
  <ele>394.32</ele>
  <time>2026-09-01T19:55:19Z</time>
  <course>15.95</course>
  <speed>19.51</speed>
  <fix>3d</fix>
</trkpt>
<trkpt lat="-27.2723757" lon="151.2898126">
  <ele>394.32</ele>
  <time>2026-09-01T19:55:19Z</time>
  <course>0.36</course>
  <speed>20.31954969973498</speed>
  <fix>3d</fix>
</trkpt>
<trkpt lat="-27.2724092" lon="151.2897985">
  <ele>394.37</ele>
  <time>2026-09-01T19:55:19Z</time>
  <course>19.13</course>
  <speed>19.89</speed>
  <fix>3d</fix>
</trkpt>
<trkpt lat="-27.2723589" lon="151.2898207">
  <ele>394.34</ele>
  <time>2026-09-01T19:55:19Z</time>
  <course>1.75</course>
  <speed>20.535379227080274</speed>
  <fix>3d</fix>
</trkpt>
<trkpt lat="-27.2724092" lon="151.2897985">
  <ele>394.37</ele>
  <time>2026-09-01T19:55:19Z</time>
  <course>19.13</course>
  <speed>19.89</speed>
  <fix>3d</fix>
</trkpt>
<trkpt lat="-27.2723421" lon="151.2898295">
  <ele>394.37</ele>
  <time>2026-09-01T19:55:19Z</time>
  <course>3.1</course>
  <speed>20.749479511544383</speed>
  <fix>3d</fix>
</trkpt>
<trkpt lat="-27.2723754" lon="151.2898129">
  <ele>394.42</ele>
  <time>2026-09-01T19:55:19Z</time>
  <course>22.35</course>
  <speed>20.3</speed>
  <fix>3d</fix>
</trkpt>
<trkpt lat="-27.2723253" lon="151.2898388">
  <ele>394.4</ele>
  <time>2026-09-01T19:55:19Z</time>
  <course>4.57</course>
  <speed>20.975509528972115</speed>
  <fix>3d</fix>
</trkpt>
<trkpt lat="-27.2723754" lon="151.2898129">
  <ele>394.42</ele>
  <time>2026-09-01T19:55:19Z</time>
  <course>22.35</course>
  <speed>20.3</speed>
  <fix>3d</fix>
</trkpt>
<trkpt lat="-27.2723086" lon="151.2898488">
  <ele>394.42</ele>
  <time>2026-09-01T19:55:19Z</time>
  <course>6.05</course>
  <speed>21.201363163721336</speed>
  <fix>3d</fix>
</trkpt>
<trkpt lat="-27.2723417" lon="151.2898298">
  <ele>394.48</ele>
  <time>2026-09-01T19:55:19Z</time>
  <course>25.58</course>
  <speed>20.73</speed>
  <fix>3d</fix>
</trkpt>
<trkpt lat="-27.272292" lon="151.2898595">
  <ele>394.45</ele>
  <time>2026-09-01T19:55:19Z</time>
  <course>7.49</course>
  <speed>21.4398530778548</speed>
  <fix>3d</fix>
</trkpt>
<trkpt lat="-27.2723417" lon="151.2898298">
  <ele>394.48</ele>
  <time>2026-09-01T19:55:19Z</time>
  <course>25.58</course>
  <speed>20.73</speed>
  <fix>3d</fix>
</trkpt>
<trkpt lat="-27.2722755" lon="151.2898708">
  <ele>394.48</ele>
  <time>2026-09-01T19:55:19Z</time>
  <course>8.96</course>
  <speed>21.688656021063174</speed>
  <fix>3d</fix>
</trkpt>
<trkpt lat="-27.2723082" lon="151.2898492">
  <ele>394.53</ele>
  <time>2026-09-01T19:55:19Z</time>
  <course>28.84</course>
  <speed>21.19</speed>
  <fix>3d</fix>
</trkpt>
<trkpt lat="-27.272259" lon="151.2898828">
  <ele>394.51</ele>
  <time>2026-09-01T19:55:19Z</time>
  <course>10.5</course>
  <speed>21.94121692158391</speed>
  <fix>3d</fix>
</trkpt>
<trkpt lat="-27.2723082" lon="151.2898492">
  <ele>394.53</ele>
  <time>2026-09-01T19:55:19Z</time>
  <course>28.84</course>
  <speed>21.19</speed>
  <fix>3d</fix>
</trkpt>
<trkpt lat="-27.2722428" lon="151.2898954">
  <ele>394.54</ele>
  <time>2026-09-01T19:55:19Z</time>
  <course>12.1</course>
  <speed>22.202137284504843</speed>
  <fix>3d</fix>
</trkpt>
<trkpt lat="-27.272275" lon="151.2898711">
  <ele>394.59</ele>
  <time>2026-09-01T19:55:19Z</time>
  <course>32.15</course>
  <speed>21.67</speed>
  <fix>3d</fix>
</trkpt>
<trkpt lat="-27.2722266" lon="151.2899088">
  <ele>394.57</ele>
  <time>2026-09-01T19:55:19Z</time>
  <course>13.72</course>
  <speed>22.468342172933006</speed>
  <fix>3d</fix>
</trkpt>
<trkpt lat="-27.272275" lon="151.2898711">
  <ele>394.59</ele>
  <time>2026-09-01T19:55:19Z</time>
  <course>32.15</course>
  <speed>21.67</speed>
  <fix>3d</fix>
</trkpt>
<trkpt lat="-27.2722106" lon="151.2899229">
  <ele>394.6</ele>
  <time>2026-09-01T19:55:19Z</time>
  <course>15.44</course>
  <speed>22.740716787295863</speed>
  <fix>3d</fix>
</trkpt>
<trkpt lat="-27.2722423" lon="151.2898958">
  <ele>394.65</ele>
  <time>2026-09-01T19:55:19Z</time>
  <course>35.51</course>
  <speed>22.18</speed>
  <fix>3d</fix>
</trkpt>
<trkpt lat="-27.2721949" lon="151.2899377">
  <ele>394.63</ele>
  <time>2026-09-01T19:55:19Z</time>
  <course>17.19</course>
  <speed>23.030488488089</speed>
  <fix>3d</fix>
</trkpt>
<trkpt lat="-27.2722423" lon="151.2898958">
  <ele>394.65</ele>
  <time>2026-09-01T19:55:19Z</time>
  <course>35.51</course>
  <speed>22.18</speed>
  <fix>3d</fix>
</trkpt>
<trkpt lat="-27.2721793" lon="151.2899532">
  <ele>394.67</ele>
  <time>2026-09-01T19:55:19Z</time>
  <course>18.89</course>
  <speed>23.327254446248062</speed>
  <fix>3d</fix>
</trkpt>
<trkpt lat="-27.2722101" lon="151.2899233">
  <ele>394.71</ele>
  <time>2026-09-01T19:55:19Z</time>
  <course>38.98</course>
  <speed>22.73</speed>
  <fix>3d</fix>
</trkpt>
<trkpt lat="-27.272164" lon="151.2899695">
  <ele>394.7</ele>
  <time>2026-09-01T19:55:19Z</time>
  <course>20.57</course>
  <speed>23.61906009984309</speed>
  <fix>3d</fix>
</trkpt>
<trkpt lat="-27.2722101" lon="151.2899233">
  <ele>394.71</ele>
  <time>2026-09-01T19:55:19Z</time>
  <course>38.98</course>
  <speed>22.73</speed>
  <fix>3d</fix>
</trkpt>
<trkpt lat="-27.272149" lon="151.2899865">
  <ele>394.74</ele>
  <time>2026-09-01T19:55:19Z</time>
  <course>22.32</course>
  <speed>23.911430321082843</speed>
  <fix>3d</fix>
</trkpt>
<trkpt lat="-27.2721789" lon="151.2899536">
  <ele>394.77</ele>
  <time>2026-09-01T19:55:19Z</time>
  <course>42.53</course>
  <speed>23.31</speed>
  <fix>3d</fix>
</trkpt>
<trkpt lat="-27.2721342" lon="151.2900043">
  <ele>394.77</ele>
  <time>2026-09-01T19:55:19Z</time>
  <course>24.15</course>
  <speed>24.22703448629237</speed>
  <fix>3d</fix>
</trkpt>
<trkpt lat="-27.2721789" lon="151.2899536">
  <ele>394.77</ele>
  <time>2026-09-01T19:55:19Z</time>
  <course>42.53</course>
  <speed>23.31</speed>
  <fix>3d</fix>
</trkpt>
<trkpt lat="-27.2721198" lon="151.2900228">
  <ele>394.81</ele>
  <time>2026-09-01T19:55:19Z</time>
  <course>26.07</course>
  <speed>24.54054807863916</speed>
  <fix>3d</fix>
</trkpt>
<trkpt lat="-27.2721486" lon="151.289987">
  <ele>394.84</ele>
  <time>2026-09-01T19:55:19Z</time>
  <course>46.07</course>
  <speed>23.91</speed>
  <fix>3d</fix>
</trkpt>
<trkpt lat="-27.2721057" lon="151.290042">
  <ele>394.85</ele>
  <time>2026-09-01T19:55:19Z</time>
  <course>28.01</course>
  <speed>24.859857199911666</speed>
  <fix>3d</fix>
</trkpt>
<trkpt lat="-27.2721486" lon="151.289987">
  <ele>394.84</ele>
  <time>2026-09-01T19:55:19Z</time>
  <course>46.07</course>
  <speed>23.91</speed>
  <fix>3d</fix>
</trkpt>
<trkpt lat="-27.2720921" lon="151.2900621">
  <ele>394.89</ele>
  <time>2026-09-01T19:55:19Z</time>
  <course>30.02</course>
  <speed>25.19423148262316</speed>
  <fix>3d</fix>
</trkpt>
<trkpt lat="-27.2721194" lon="151.2900232">
  <ele>394.91</ele>
  <time>2026-09-01T19:55:19Z</time>
  <course>49.67</course>
  <speed>24.53</speed>
  <fix>3d</fix>
</trkpt>
<trkpt lat="-27.2720787" lon="151.290083">
  <ele>394.92</ele>
  <time>2026-09-01T19:55:19Z</time>
  <course>32.0</course>
  <speed>25.53412814254679</speed>
  <fix>3d</fix>
</trkpt>
<trkpt lat="-27.2721194" lon="151.2900232">
  <ele>394.91</ele>
  <time>2026-09-01T19:55:19Z</time>
  <course>49.67</course>
  <speed>24.53</speed>
  <fix>3d</fix>
</trkpt>
<trkpt lat="-27.2720658" lon="151.2901046">
  <ele>394.96</ele>
  <time>2026-09-01T19:55:19Z</time>
  <course>34.12</course>
  <speed>25.885478554587323</speed>
  <fix>3d</fix>
</trkpt>
<trkpt lat="-27.2720915" lon="151.2900626">
  <ele>394.99</ele>
  <time>2026-09-01T19:55:19Z</time>
  <course>53.37</course>
  <speed>25.19</speed>
  <fix>3d</fix>
</trkpt>
<trkpt lat="-27.2720535" lon="151.2901269">
  <ele>395.01</ele>
  <time>2026-09-01T19:55:19Z</time>
  <course>36.36</course>
  <speed>26.242812349289093</speed>
  <fix>3d</fix>
</trkpt>
<trkpt lat="-27.2720915" lon="151.2900626">
  <ele>394.99</ele>
  <time>2026-09-01T19:55:19Z</time>
  <course>53.37</course>
  <speed>25.19</speed>
  <fix>3d</fix>
</trkpt>
<trkpt lat="-27.2720417" lon="151.29015">
  <ele>395.05</ele>
  <time>2026-09-01T19:55:19Z</time>
  <course>38.59</course>
  <speed>26.60279120693917</speed>
  <fix>3d</fix>
</trkpt>
<trkpt lat="-27.2720654" lon="151.290105">
  <ele>395.07</ele>
  <time>2026-09-01T19:55:19Z</time>
  <course>57.2</course>
  <speed>25.88</speed>
  <fix>3d</fix>
</trkpt>
<trkpt lat="-27.2720305" lon="151.2901739">
  <ele>395.1</ele>
  <time>2026-09-01T19:55:19Z</time>
  <course>40.81</course>
  <speed>26.967211572574573</speed>
  <fix>3d</fix>
</trkpt>
<trkpt lat="-27.2720654" lon="151.290105">
  <ele>395.07</ele>
  <time>2026-09-01T19:55:19Z</time>
  <course>57.2</course>
  <speed>25.88</speed>
  <fix>3d</fix>
</trkpt>
<trkpt lat="-27.2720199" lon="151.2901986">
  <ele>395.15</ele>
  <time>2026-09-01T19:55:19Z</time>
  <course>43.05</course>
  <speed>27.33307520203316</speed>
  <fix>3d</fix>
</trkpt>
<trkpt lat="-27.2720413" lon="151.2901506">
  <ele>395.15</ele>
  <time>2026-09-01T19:55:19Z</time>
  <course>61.15</course>
  <speed>26.6</speed>
  <fix>3d</fix>
</trkpt>
<trkpt lat="-27.2720099" lon="151.290224">
  <ele>395.2</ele>
  <time>2026-09-01T19:55:19Z</time>
  <course>45.37</course>
  <speed>27.698555919036643</speed>
  <fix>3d</fix>
</trkpt>
<trkpt lat="-27.2720413" lon="151.2901506">
  <ele>395.15</ele>
  <time>2026-09-01T19:55:19Z</time>
  <course>61.15</course>
  <speed>26.6</speed>
  <fix>3d</fix>
</trkpt>
<trkpt lat="-27.2720006" lon="151.2902502">
  <ele>395.26</ele>
  <time>2026-09-01T19:55:19Z</time>
  <course>47.84</course>
  <speed>28.07476625014</speed>
  <fix>3d</fix>
</trkpt>
<trkpt lat="-27.2720194" lon="151.2901994">
  <ele>395.25</ele>
  <time>2026-09-01T19:55:19Z</time>
  <course>65.17</course>
  <speed>27.34</speed>
  <fix>3d</fix>
</trkpt>
<trkpt lat="-27.271992" lon="151.2902771">
  <ele>395.31</ele>
  <time>2026-09-01T19:55:19Z</time>
  <course>50.33</course>
  <speed>28.463754144525627</speed>
  <fix>3d</fix>
</trkpt>
<trkpt lat="-27.2720194" lon="151.2901994">
  <ele>395.25</ele>
  <time>2026-09-01T19:55:19Z</time>
  <course>65.17</course>
  <speed>27.34</speed>
  <fix>3d</fix>
</trkpt>
<trkpt lat="-27.2719843" lon="151.2903047">
  <ele>395.38</ele>
  <time>2026-09-01T19:55:20Z</time>
  <course>52.87</course>
  <speed>28.844202190388277</speed>
  <fix>3d</fix>
</trkpt>
<trkpt lat="-27.2720001" lon="151.290251">
  <ele>395.34</ele>
  <time>2026-09-01T19:55:20Z</time>
  <course>69.28</course>
  <speed>28.09</speed>
  <fix>3d</fix>
</trkpt>
<trkpt lat="-27.2719773" lon="151.2903329">
  <ele>395.44</ele>
  <time>2026-09-01T19:55:20Z</time>
  <course>55.41</course>
  <speed>29.230805667993486</speed>
  <fix>3d</fix>
</trkpt>
<trkpt lat="-27.2720001" lon="151.290251">
  <ele>395.34</ele>
  <time>2026-09-01T19:55:20Z</time>
  <course>69.28</course>
  <speed>28.09</speed>
  <fix>3d</fix>
</trkpt>
<trkpt lat="-27.2719712" lon="151.2903619">
  <ele>395.5</ele>
  <time>2026-09-01T19:55:20Z</time>
  <course>58.08</course>
  <speed>29.61697148595717</speed>
  <fix>3d</fix>
</trkpt>
<trkpt lat="-27.2719838" lon="151.2903055">
  <ele>395.46</ele>
  <time>2026-09-01T19:55:20Z</time>
  <course>73.5</course>
  <speed>28.85</speed>
  <fix>3d</fix>
</trkpt>
<trkpt lat="-27.2719661" lon="151.2903914">
  <ele>395.56</ele>
  <time>2026-09-01T19:55:20Z</time>
  <course>60.79</course>
  <speed>30.01043151972327</speed>
  <fix>3d</fix>
</trkpt>
<trkpt lat="-27.2719838" lon="151.2903055">
  <ele>395.46</ele>
  <time>2026-09-01T19:55:20Z</time>
  <course>73.5</course>
  <speed>28.85</speed>
  <fix>3d</fix>
</trkpt>
<trkpt lat="-27.2719619" lon="151.2904215">
  <ele>395.63</ele>
  <time>2026-09-01T19:55:20Z</time>
  <course>63.64</course>
  <speed>30.403647807458892</speed>
  <fix>3d</fix>
</trkpt>
<trkpt lat="-27.2719708" lon="151.2903627">
  <ele>395.58</ele>
  <time>2026-09-01T19:55:20Z</time>
  <course>77.81</course>
  <speed>29.62</speed>
  <fix>3d</fix>
</trkpt>
<trkpt lat="-27.2719587" lon="151.2904522">
  <ele>395.7</ele>
  <time>2026-09-01T19:55:20Z</time>
  <course>66.57</course>
  <speed>30.795903948414956</speed>
  <fix>3d</fix>
</trkpt>
<trkpt lat="-27.2719708" lon="151.2903627">
  <ele>395.58</ele>
  <time>2026-09-01T19:55:20Z</time>
  <course>77.81</course>
  <speed>29.62</speed>
  <fix>3d</fix>
</trkpt>
<trkpt lat="-27.2719566" lon="151.2904834">
  <ele>395.77</ele>
  <time>2026-09-01T19:55:20Z</time>
  <course>69.56</course>
  <speed>31.183683233383448</speed>
  <fix>3d</fix>
</trkpt>
<trkpt lat="-27.2719615" lon="151.2904224">
  <ele>395.71</ele>
  <time>2026-09-01T19:55:20Z</time>
  <course>82.28</course>
  <speed>30.4</speed>
  <fix>3d</fix>
</trkpt>
<trkpt lat="-27.2719557" lon="151.2905151">
  <ele>395.85</ele>
  <time>2026-09-01T19:55:20Z</time>
  <course>72.61</course>
  <speed>31.571940073425957</speed>
  <fix>3d</fix>
</trkpt>
<trkpt lat="-27.2719615" lon="151.2904224">
  <ele>395.71</ele>
  <time>2026-09-01T19:55:20Z</time>
  <course>82.28</course>
  <speed>30.4</speed>
  <fix>3d</fix>
</trkpt>
<trkpt lat="-27.271956" lon="151.2905472">
  <ele>395.94</ele>
  <time>2026-09-01T19:55:20Z</time>
  <course>75.67</course>
  <speed>31.954725785085376</speed>
  <fix>3d</fix>
</trkpt>
<trkpt lat="-27.2719563" lon="151.2904844">
  <ele>395.85</ele>
  <time>2026-09-01T19:55:20Z</time>
  <course>86.93</course>
  <speed>31.19</speed>
  <fix>3d</fix>
</trkpt>
<trkpt lat="-27.2719574" lon="151.2905796">
  <ele>396.02</ele>
  <time>2026-09-01T19:55:20Z</time>
  <course>78.77</course>
  <speed>32.3255332515954</speed>
  <fix>3d</fix>
</trkpt>
<trkpt lat="-27.2719563" lon="151.2904844">
  <ele>395.85</ele>
  <time>2026-09-01T19:55:20Z</time>
  <course>86.93</course>
  <speed>31.19</speed>
  <fix>3d</fix>
</trkpt>
<trkpt lat="-27.2719601" lon="151.2906123">
  <ele>396.11</ele>
  <time>2026-09-01T19:55:20Z</time>
  <course>82.01</course>
  <speed>32.68928417692868</speed>
  <fix>3d</fix>
</trkpt>
<trkpt lat="-27.2719557" lon="151.2905482">
  <ele>396.0</ele>
  <time>2026-09-01T19:55:20Z</time>
  <course>91.71</course>
  <speed>31.95</speed>
  <fix>3d</fix>
</trkpt>
<trkpt lat="-27.2719641" lon="151.2906451">
  <ele>396.21</ele>
  <time>2026-09-01T19:55:20Z</time>
  <course>85.35</course>
  <speed>33.03977754162398</speed>
  <fix>3d</fix>
</trkpt>
<trkpt lat="-27.2719557" lon="151.2905482">
  <ele>396.0</ele>
  <time>2026-09-01T19:55:20Z</time>
  <course>91.71</course>
  <speed>31.95</speed>
  <fix>3d</fix>
</trkpt>
<trkpt lat="-27.2719694" lon="151.2906778">
  <ele>396.31</ele>
  <time>2026-09-01T19:55:20Z</time>
  <course>88.73</course>
  <speed>33.38163716776036</speed>
  <fix>3d</fix>
</trkpt>
<trkpt lat="-27.2719599" lon="151.2906133">
  <ele>396.18</ele>
  <time>2026-09-01T19:55:20Z</time>
  <course>96.61</course>
  <speed>32.69</speed>
  <fix>3d</fix>
</trkpt>
<trkpt lat="-27.2719761" lon="151.2907109">
  <ele>396.41</ele>
  <time>2026-09-01T19:55:20Z</time>
  <course>92.17</course>
  <speed>33.71030999560817</speed>
  <fix>3d</fix>
</trkpt>
<trkpt lat="-27.2719599" lon="151.2906133">
  <ele>396.18</ele>
  <time>2026-09-01T19:55:20Z</time>
  <course>96.61</course>
  <speed>32.69</speed>
  <fix>3d</fix>
</trkpt>
<trkpt lat="-27.2719842" lon="151.2907438">
  <ele>396.52</ele>
  <time>2026-09-01T19:55:20Z</time>
  <course>95.66</course>
  <speed>34.028895074627385</speed>
  <fix>3d</fix>
</trkpt>
<trkpt lat="-27.2719693" lon="151.2906792">
  <ele>396.37</ele>
  <time>2026-09-01T19:55:20Z</time>
  <course>101.66</course>
  <speed>33.39</speed>
  <fix>3d</fix>
</trkpt>
<trkpt lat="-27.2719938" lon="151.2907766">
  <ele>396.63</ele>
  <time>2026-09-01T19:55:20Z</time>
  <course>99.23</course>
  <speed>34.326562600994585</speed>
  <fix>3d</fix>
</trkpt>
<trkpt lat="-27.2719693" lon="151.2906792">
  <ele>396.37</ele>
  <time>2026-09-01T19:55:20Z</time>
  <course>101.66</course>
  <speed>33.39</speed>
  <fix>3d</fix>
</trkpt>
<trkpt lat="-27.2720048" lon="151.2908094">
  <ele>396.75</ele>
  <time>2026-09-01T19:55:20Z</time>
  <course>102.88</course>
  <speed>34.60535941151312</speed>
  <fix>3d</fix>
</trkpt>
<trkpt lat="-27.2719842" lon="151.2907454">
  <ele>396.57</ele>
  <time>2026-09-01T19:55:20Z</time>
  <course>106.87</course>
  <speed>34.04</speed>
  <fix>3d</fix>
</trkpt>
<trkpt lat="-27.2720173" lon="151.2908416">
  <ele>396.87</ele>
  <time>2026-09-01T19:55:20Z</time>
  <course>106.62</course>
  <speed>34.85604825564711</speed>
  <fix>3d</fix>
</trkpt>
<trkpt lat="-27.2719842" lon="151.2907454">
  <ele>396.57</ele>
  <time>2026-09-01T19:55:20Z</time>
  <course>106.87</course>
  <speed>34.04</speed>
  <fix>3d</fix>
</trkpt>
<trkpt lat="-27.2720313" lon="151.2908736">
  <ele>397.0</ele>
  <time>2026-09-01T19:55:20Z</time>
  <course>110.5</course>
  <speed>35.07815844653194</speed>
  <fix>3d</fix>
</trkpt>
<trkpt lat="-27.2720049" lon="151.2908109">
  <ele>396.79</ele>
  <time>2026-09-01T19:55:20Z</time>
  <course>112.21</course>
  <speed>34.62</speed>
  <fix>3d</fix>
</trkpt>
<trkpt lat="-27.2720466" lon="151.2909046">
  <ele>397.13</ele>
  <time>2026-09-01T19:55:20Z</time>
  <course>114.27</course>
  <speed>35.281553253789724</speed>
  <fix>3d</fix>
</trkpt>
<trkpt lat="-27.2720049" lon="151.2908109">
  <ele>396.79</ele>
  <time>2026-09-01T19:55:20Z</time>
  <course>112.21</course>
  <speed>34.62</speed>
  <fix>3d</fix>
</trkpt>
<trkpt lat="-27.2720634" lon="151.290935">
  <ele>397.26</ele>
  <time>2026-09-01T19:55:20Z</time>
  <course>118.16</course>
  <speed>35.45137656001527</speed>
  <fix>3d</fix>
</trkpt>
<trkpt lat="-27.2720313" lon="151.2908747">
  <ele>397.03</ele>
  <time>2026-09-01T19:55:20Z</time>
  <course>117.7</course>
  <speed>35.1</speed>
  <fix>3d</fix>
</trkpt>
<trkpt lat="-27.2720816" lon="151.2909645">
  <ele>397.4</ele>
  <time>2026-09-01T19:55:20Z</time>
  <course>122.1</course>
  <speed>35.59794376084102</speed>
  <fix>3d</fix>
</trkpt>
<trkpt lat="-27.2720313" lon="151.2908747">
  <ele>397.03</ele>
  <time>2026-09-01T19:55:20Z</time>
  <course>117.7</course>
  <speed>35.1</speed>
  <fix>3d</fix>
</trkpt>
<trkpt lat="-27.2721011" lon="151.290993">
  <ele>397.55</ele>
  <time>2026-09-01T19:55:20Z</time>
  <course>125.92</course>
  <speed>35.697857078541844</speed>
  <fix>3d</fix>
</trkpt>
<trkpt lat="-27.2720635" lon="151.2909361">
  <ele>397.29</ele>
  <time>2026-09-01T19:55:20Z</time>
  <course>123.33</course>
  <speed>35.47</speed>
  <fix>3d</fix>
</trkpt>
<trkpt lat="-27.2721219" lon="151.2910205">
  <ele>397.7</ele>
  <time>2026-09-01T19:55:20Z</time>
  <course>129.82</course>
  <speed>35.772517384159585</speed>
  <fix>3d</fix>
</trkpt>
<trkpt lat="-27.2720635" lon="151.2909361">
  <ele>397.29</ele>
  <time>2026-09-01T19:55:20Z</time>
  <course>123.33</course>
  <speed>35.47</speed>
  <fix>3d</fix>
</trkpt>
<trkpt lat="-27.272144" lon="151.2910468">
  <ele>397.85</ele>
  <time>2026-09-01T19:55:20Z</time>
  <course>133.78</course>
  <speed>35.81504292891466</speed>
  <fix>3d</fix>
</trkpt>
<trkpt lat="-27.2721012" lon="151.2909942">
  <ele>397.56</ele>
  <time>2026-09-01T19:55:20Z</time>
  <course>129.04</course>
  <speed>35.72</speed>
  <fix>3d</fix>
</trkpt>
<trkpt lat="-27.2721672" lon="151.2910718">
  <ele>398.0</ele>
  <time>2026-09-01T19:55:20Z</time>
  <course>137.6</course>
  <speed>35.81377528270372</speed>
  <fix>3d</fix>
</trkpt>
<trkpt lat="-27.2721012" lon="151.2909942">
  <ele>397.56</ele>
  <time>2026-09-01T19:55:20Z</time>
  <course>129.04</course>
  <speed>35.72</speed>
  <fix>3d</fix>
</trkpt>
<trkpt lat="-27.2721914" lon="151.2910956">
  <ele>398.16</ele>
  <time>2026-09-01T19:55:20Z</time>
  <course>141.41</course>
  <speed>35.77171089003153</speed>
  <fix>3d</fix>
</trkpt>
<trkpt lat="-27.2721442" lon="151.291048">
  <ele>397.86</ele>
  <time>2026-09-01T19:55:20Z</time>
  <course>134.78</course>
  <speed>35.84</speed>
  <fix>3d</fix>
</trkpt>
<trkpt lat="-27.2722166" lon="151.2911179">
  <ele>398.33</ele>
  <time>2026-09-01T19:55:20Z</time>
  <course>145.23</course>
  <speed>35.698259061192324</speed>
  <fix>3d</fix>
</trkpt>
<trkpt lat="-27.2721442" lon="151.291048">
  <ele>397.86</ele>
  <time>2026-09-01T19:55:20Z</time>
  <course>134.78</course>
  <speed>35.84</speed>
  <fix>3d</fix>
</trkpt>
<trkpt lat="-27.2722427" lon="151.2911387">
  <ele>398.49</ele>
  <time>2026-09-01T19:55:20Z</time>
  <course>149.15</course>
  <speed>35.581384177684825</speed>
  <fix>3d</fix>
</trkpt>
<trkpt lat="-27.2721917" lon="151.2910967">
  <ele>398.16</ele>
  <time>2026-09-01T19:55:20Z</time>
  <course>140.46</course>
  <speed>35.81</speed>
  <fix>3d</fix>
</trkpt>
<trkpt lat="-27.2722696" lon="151.2911581">
  <ele>398.65</ele>
  <time>2026-09-01T19:55:20Z</time>
  <course>152.98</course>
  <speed>35.43335293194817</speed>
  <fix>3d</fix>
</trkpt>
<trkpt lat="-27.2721917" lon="151.2910967">
  <ele>398.16</ele>
  <time>2026-09-01T19:55:20Z</time>
  <course>140.46</course>
  <speed>35.81</speed>
  <fix>3d</fix>
</trkpt>
<trkpt lat="-27.2722971" lon="151.2911758">
  <ele>398.81</ele>
  <time>2026-09-01T19:55:20Z</time>
  <course>156.68</course>
  <speed>35.251363094212394</speed>
  <fix>3d</fix>
</trkpt>
<trkpt lat="-27.2722432" lon="151.2911399">
  <ele>398.48</ele>
  <time>2026-09-01T19:55:20Z</time>
  <course>146.08</course>
  <speed>35.63</speed>
  <fix>3d</fix>
</trkpt>
<trkpt lat="-27.2723252" lon="151.2911919">
  <ele>398.97</ele>
  <time>2026-09-01T19:55:20Z</time>
  <course>160.35</course>
  <speed>35.045185118643616</speed>
  <fix>3d</fix>
</trkpt>
<trkpt lat="-27.2722432" lon="151.2911399">
  <ele>398.48</ele>
  <time>2026-09-01T19:55:20Z</time>
  <course>146.08</course>
  <speed>35.63</speed>
  <fix>3d</fix>
</trkpt>
<trkpt lat="-27.2723536" lon="151.2912063">
  <ele>399.12</ele>
  <time>2026-09-01T19:55:20Z</time>
  <course>164.01</course>
  <speed>34.79708033729267</speed>
  <fix>3d</fix>
</trkpt>
<trkpt lat="-27.2722977" lon="151.2911769">
  <ele>398.79</ele>
  <time>2026-09-01T19:55:20Z</time>
  <course>151.66</course>
  <speed>35.31</speed>
  <fix>3d</fix>
</trkpt>
<trkpt lat="-27.2723825" lon="151.2912192">
  <ele>399.28</ele>
  <time>2026-09-01T19:55:20Z</time>
  <course>167.66</course>
  <speed>34.530631329299496</speed>
  <fix>3d</fix>
</trkpt>
<trkpt lat="-27.2722977" lon="151.2911769">
  <ele>398.79</ele>
  <time>2026-09-01T19:55:20Z</time>
  <course>151.66</course>
  <speed>35.31</speed>
  <fix>3d</fix>
</trkpt>
<trkpt lat="-27.2724118" lon="151.2912305">
  <ele>399.42</ele>
  <time>2026-09-01T19:55:20Z</time>
  <course>171.31</course>
  <speed>34.24077686034591</speed>
  <fix>3d</fix>
</trkpt>
<trkpt lat="-27.2723546" lon="151.2912075">
  <ele>399.09</ele>
  <time>2026-09-01T19:55:20Z</time>
  <course>157.15</course>
  <speed>34.86</speed>
  <fix>3d</fix>
</trkpt>
<trkpt lat="-27.2724412" lon="151.2912401">
  <ele>399.56</ele>
  <time>2026-09-01T19:55:20Z</time>
  <course>174.83</course>
  <speed>33.91583995716456</speed>
  <fix>3d</fix>
</trkpt>
<trkpt lat="-27.2723546" lon="151.2912075">
  <ele>399.09</ele>
  <time>2026-09-01T19:55:20Z</time>
  <course>157.15</course>
  <speed>34.86</speed>
  <fix>3d</fix>
</trkpt>
<trkpt lat="-27.2724707" lon="151.2912481">
  <ele>399.69</ele>
  <time>2026-09-01T19:55:20Z</time>
  <course>178.18</course>
  <speed>33.562371787464606</speed>
  <fix>3d</fix>
</trkpt>
<trkpt lat="-27.272413" lon="151.2912316">
  <ele>399.38</ele>
  <time>2026-09-01T19:55:20Z</time>
  <course>162.59</course>
  <speed>34.3</speed>
  <fix>3d</fix>
</trkpt>
<trkpt lat="-27.2725004" lon="151.2912545">
  <ele>399.82</ele>
  <time>2026-09-01T19:55:20Z</time>
  <course>181.51</course>
  <speed>33.1971037893368</speed>
  <fix>3d</fix>
</trkpt>
<trkpt lat="-27.272413" lon="151.2912316">
  <ele>399.38</ele>
  <time>2026-09-01T19:55:20Z</time>
  <course>162.59</course>
  <speed>34.3</speed>
  <fix>3d</fix>
</trkpt>
<trkpt lat="-27.2725297" lon="151.2912594">
  <ele>399.94</ele>
  <time>2026-09-01T19:55:20Z</time>
  <course>184.66</course>
  <speed>32.81960542115033</speed>
  <fix>3d</fix>
</trkpt>
<trkpt lat="-27.2724721" lon="151.291249">
  <ele>399.65</ele>
  <time>2026-09-01T19:55:20Z</time>
  <course>167.87</course>
  <speed>33.63</speed>
  <fix>3d</fix>
</trkpt>
<trkpt lat="-27.2725589" lon="151.2912629">
  <ele>400.05</ele>
  <time>2026-09-01T19:55:20Z</time>
  <course>187.73</course>
  <speed>32.41931060340426</speed>
  <fix>3d</fix>
</trkpt>
<trkpt lat="-27.2724721" lon="151.291249">
  <ele>399.65</ele>
  <time>2026-09-01T19:55:20Z</time>
  <course>167.87</course>
  <speed>33.63</speed>
  <fix>3d</fix>
</trkpt>
<trkpt lat="-27.2725888" lon="151.2912651">
  <ele>400.14</ele>
  <time>2026-09-01T19:55:20Z</time>
  <course>190.8</course>
  <speed>32.00600724864006</speed>
  <fix>3d</fix>
</trkpt>
<trkpt lat="-27.272531" lon="151.2912602">
  <ele>399.89</ele>
  <time>2026-09-01T19:55:20Z</time>
  <course>172.86</course>
  <speed>32.89</speed>
  <fix>3d</fix>
</trkpt>
<trkpt lat="-27.2726171" lon="151.2912658">
  <ele>400.23</ele>
  <time>2026-09-01T19:55:20Z</time>
  <course>193.66</course>
  <speed>31.5800142495218</speed>
  <fix>3d</fix>
</trkpt>
<trkpt lat="-27.272531" lon="151.2912602">
  <ele>399.89</ele>
  <time>2026-09-01T19:55:20Z</time>
  <course>172.86</course>
  <speed>32.89</speed>
  <fix>3d</fix>
</trkpt>
<trkpt lat="-27.2726454" lon="151.2912654">
  <ele>400.29</ele>
  <time>2026-09-01T19:55:20Z</time>
  <course>196.32</course>
  <speed>31.160860065152246</speed>
  <fix>3d</fix>
</trkpt>
<trkpt lat="-27.2725891" lon="151.2912657">
  <ele>400.08</ele>
  <time>2026-09-01T19:55:20Z</time>
  <course>177.58</course>
  <speed>32.09</speed>
  <fix>3d</fix>
</trkpt>
<trkpt lat="-27.2726732" lon="151.2912638">
  <ele>400.34</ele>
  <time>2026-09-01T19:55:20Z</time>
  <course>198.92</course>
  <speed>30.75096421252511</speed>
  <fix>3d</fix>
</trkpt>
<trkpt lat="-27.2725891" lon="151.2912657">
  <ele>400.08</ele>
  <time>2026-09-01T19:55:20Z</time>
  <course>177.58</course>
  <speed>32.09</speed>
  <fix>3d</fix>
</trkpt>
<trkpt lat="-27.2727006" lon="151.2912611">
  <ele>400.37</ele>
  <time>2026-09-01T19:55:20Z</time>
  <course>201.43</course>
  <speed>30.33460235440709</speed>
  <fix>3d</fix>
</trkpt>
<trkpt lat="-27.272646" lon="151.291266">
  <ele>400.22</ele>
  <time>2026-09-01T19:55:20Z</time>
  <course>182.0</course>
  <speed>31.26</speed>
  <fix>3d</fix>
</trkpt>
<trkpt lat="-27.2727277" lon="151.2912573">
  <ele>400.38</ele>
  <time>2026-09-01T19:55:20Z</time>
  <course>203.93</course>
  <speed>29.900717382698364</speed>
  <fix>3d</fix>
</trkpt>
<trkpt lat="-27.272646" lon="151.291266">
  <ele>400.22</ele>
  <time>2026-09-01T19:55:20Z</time>
  <course>182.0</course>
  <speed>31.26</speed>
  <fix>3d</fix>
</trkpt>
<trkpt lat="-27.2727535" lon="151.2912528">
  <ele>400.38</ele>
  <time>2026-09-01T19:55:20Z</time>
  <course>206.18</course>
  <speed>29.494279106294492</speed>
  <fix>3d</fix>
</trkpt>
<trkpt lat="-27.2727012" lon="151.2912617">
  <ele>400.3</ele>
  <time>2026-09-01T19:55:20Z</time>
  <course>186.11</course>
  <speed>30.41</speed>
  <fix>3d</fix>
</trkpt>
<trkpt lat="-27.2727794" lon="151.2912472">
  <ele>400.35</ele>
  <time>2026-09-01T19:55:20Z</time>
  <course>208.35</course>
  <speed>29.088774467137664</speed>
  <fix>3d</fix>
</trkpt>
<trkpt lat="-27.2727012" lon="151.2912617">
  <ele>400.3</ele>
  <time>2026-09-01T19:55:20Z</time>
  <course>186.11</course>
  <speed>30.41</speed>
  <fix>3d</fix>
</trkpt>
<trkpt lat="-27.2728047" lon="151.2912409">
  <ele>400.3</ele>
  <time>2026-09-01T19:55:20Z</time>
  <course>210.57</course>
  <speed>28.681147117924</speed>
  <fix>3d</fix>
</trkpt>
<trkpt lat="-27.2727546" lon="151.2912532">
  <ele>400.31</ele>
  <time>2026-09-01T19:55:20Z</time>
  <course>189.94</course>
  <speed>29.58</speed>
  <fix>3d</fix>
</trkpt>
<trkpt lat="-27.2728296" lon="151.2912338">
  <ele>400.22</ele>
  <time>2026-09-01T19:55:20Z</time>
  <course>212.71</course>
  <speed>28.283369671946797</speed>
  <fix>3d</fix>
</trkpt>
<trkpt lat="-27.2727546" lon="151.2912532">
  <ele>400.31</ele>
  <time>2026-09-01T19:55:20Z</time>
  <course>189.94</course>
  <speed>29.58</speed>
  <fix>3d</fix>
</trkpt>
<trkpt lat="-27.2728538" lon="151.2912261">
  <ele>400.13</ele>
  <time>2026-09-01T19:55:20Z</time>
  <course>214.77</course>
  <speed>27.878724863235767</speed>
  <fix>3d</fix>
</trkpt>
<trkpt lat="-27.2728059" lon="151.2912411">
  <ele>400.24</ele>
  <time>2026-09-01T19:55:20Z</time>
  <course>193.53</course>
  <speed>28.75</speed>
  <fix>3d</fix>
</trkpt>
<trkpt lat="-27.2728774" lon="151.2912176">
  <ele>400.02</ele>
  <time>2026-09-01T19:55:20Z</time>
  <course>216.86</course>
  <speed>27.48035662068453</speed>
  <fix>3d</fix>
</trkpt>
<trkpt lat="-27.2728059" lon="151.2912411">
  <ele>400.24</ele>
  <time>2026-09-01T19:55:20Z</time>
  <course>193.53</course>
  <speed>28.75</speed>
  <fix>3d</fix>
</trkpt>
<trkpt lat="-27.2729004" lon="151.2912085">
  <ele>399.88</ele>
  <time>2026-09-01T19:55:20Z</time>
  <course>218.98</course>
  <speed>27.077669766802316</speed>
  <fix>3d</fix>
</trkpt>
<trkpt lat="-27.272855" lon="151.291226">
  <ele>400.07</ele>
  <time>2026-09-01T19:55:20Z</time>
  <course>196.99</course>
  <speed>27.95</speed>
  <fix>3d</fix>
</trkpt>
<trkpt lat="-27.2729226" lon="151.2911988">
  <ele>399.72</ele>
  <time>2026-09-01T19:55:20Z</time>
  <course>221.03</course>
  <speed>26.682827811159747</speed>
  <fix>3d</fix>
</trkpt>
<trkpt lat="-27.272855" lon="151.291226">
  <ele>400.07</ele>
  <time>2026-09-01T19:55:20Z</time>
  <course>196.99</course>
  <speed>27.95</speed>
  <fix>3d</fix>
</trkpt>
<trkpt lat="-27.2729445" lon="151.2911885">
  <ele>399.54</ele>
  <time>2026-09-01T19:55:20Z</time>
  <course>223.15</course>
  <speed>26.29554525009892</speed>
  <fix>3d</fix>
</trkpt>
<trkpt lat="-27.2729018" lon="151.2912082">
  <ele>399.81</ele>
  <time>2026-09-01T19:55:20Z</time>
  <course>200.42</course>
  <speed>27.16</speed>
  <fix>3d</fix>
</trkpt>
<trkpt lat="-27.2729657" lon="151.2911776">
  <ele>399.34</ele>
  <time>2026-09-01T19:55:20Z</time>
  <course>225.36</course>
  <speed>25.897152353106318</speed>
  <fix>3d</fix>
</trkpt>
<trkpt lat="-27.2729018" lon="151.2912082">
  <ele>399.81</ele>
  <time>2026-09-01T19:55:20Z</time>
  <course>200.42</course>
  <speed>27.16</speed>
  <fix>3d</fix>
</trkpt>
<trkpt lat="-27.2729863" lon="151.291166">
  <ele>399.13</ele>
  <time>2026-09-01T19:55:20Z</time>
  <course>227.54</course>
  <speed>25.499337246289365</speed>
  <fix>3d</fix>
</trkpt>
<trkpt lat="-27.2729463" lon="151.2911878">
  <ele>399.47</ele>
  <time>2026-09-01T19:55:20Z</time>
  <course>203.94</course>
  <speed>26.38</speed>
  <fix>3d</fix>
</trkpt>
<trkpt lat="-27.2730064" lon="151.2911538">
  <ele>398.9</ele>
  <time>2026-09-01T19:55:20Z</time>
  <course>229.73</course>
  <speed>25.10362722795254</speed>
  <fix>3d</fix>
</trkpt>
<trkpt lat="-27.2729463" lon="151.2911878">
  <ele>399.47</ele>
  <time>2026-09-01T19:55:20Z</time>
  <course>203.94</course>
  <speed>26.38</speed>
  <fix>3d</fix>
</trkpt>
<trkpt lat="-27.2730256" lon="151.291141">
  <ele>398.66</ele>
  <time>2026-09-01T19:55:20Z</time>
  <course>231.99</course>
  <speed>24.71911203906807</speed>
  <fix>3d</fix>
</trkpt>
<trkpt lat="-27.2729884" lon="151.2911649">
  <ele>399.05</ele>
  <time>2026-09-01T19:55:20Z</time>
  <course>207.66</course>
  <speed>25.59</speed>
  <fix>3d</fix>
</trkpt>
<trkpt lat="-27.2730442" lon="151.2911278">
  <ele>398.4</ele>
  <time>2026-09-01T19:55:20Z</time>
  <course>234.29</course>
  <speed>24.32643418177025</speed>
  <fix>3d</fix>
</trkpt>
<trkpt lat="-27.2729884" lon="151.2911649">
  <ele>399.05</ele>
  <time>2026-09-01T19:55:20Z</time>
  <course>207.66</course>
  <speed>25.59</speed>
  <fix>3d</fix>
</trkpt>
<trkpt lat="-27.2730626" lon="151.2911135">
  <ele>398.12</ele>
  <time>2026-09-01T19:55:20Z</time>
  <course>236.66</course>
  <speed>23.92630769675923</speed>
  <fix>3d</fix>
</trkpt>
<trkpt lat="-27.2730278" lon="151.2911396">
  <ele>398.58</ele>
  <time>2026-09-01T19:55:20Z</time>
  <course>211.63</course>
  <speed>24.81</speed>
  <fix>3d</fix>
</trkpt>
<trkpt lat="-27.2730796" lon="151.2910991">
  <ele>397.85</ele>
  <time>2026-09-01T19:55:20Z</time>
  <course>238.96</course>
  <speed>23.54026338000491</speed>
  <fix>3d</fix>
</trkpt>
<trkpt lat="-27.2730278" lon="151.2911396">
  <ele>398.58</ele>
  <time>2026-09-01T19:55:20Z</time>
  <course>211.63</course>
  <speed>24.81</speed>
  <fix>3d</fix>
</trkpt>
<trkpt lat="-27.2730958" lon="151.2910844">
  <ele>397.58</ele>
  <time>2026-09-01T19:55:20Z</time>
  <course>241.27</course>
  <speed>23.153507293712547</speed>
  <fix>3d</fix>
</trkpt>
<trkpt lat="-27.2730643" lon="151.2911123">
  <ele>398.06</ele>
  <time>2026-09-01T19:55:20Z</time>
  <course>215.83</course>
  <speed>24.04</speed>
  <fix>3d</fix>
</trkpt>
<trkpt lat="-27.2731113" lon="151.291069">
  <ele>397.3</ele>
  <time>2026-09-01T19:55:20Z</time>
  <course>243.57</course>
  <speed>22.782978295209784</speed>
  <fix>3d</fix>
</trkpt>
<trkpt lat="-27.2730643" lon="151.2911123">
  <ele>398.06</ele>
  <time>2026-09-01T19:55:20Z</time>
  <course>215.83</course>
  <speed>24.04</speed>
  <fix>3d</fix>
</trkpt>
<trkpt lat="-27.2731261" lon="151.2910533">
  <ele>397.02</ele>
  <time>2026-09-01T19:55:20Z</time>
  <course>245.81</course>
  <speed>22.41535634336425</speed>
  <fix>3d</fix>
</trkpt>
<trkpt lat="-27.2730978" lon="151.2910828">
  <ele>397.51</ele>
  <time>2026-09-01T19:55:20Z</time>
  <course>220.28</course>
  <speed>23.27</speed>
  <fix>3d</fix>
</trkpt>
<trkpt lat="-27.27314" lon="151.2910371">
  <ele>396.74</ele>
  <time>2026-09-01T19:55:20Z</time>
  <course>248.05</course>
  <speed>22.056039989082354</speed>
  <fix>3d</fix>
</trkpt>
<trkpt lat="-27.2730978" lon="151.2910828">
  <ele>397.51</ele>
  <time>2026-09-01T19:55:20Z</time>
  <course>220.28</course>
  <speed>23.27</speed>
  <fix>3d</fix>
</trkpt>
<trkpt lat="-27.2731532" lon="151.2910204">
  <ele>396.46</ele>
  <time>2026-09-01T19:55:20Z</time>
  <course>250.33</course>
  <speed>21.71263457068257</speed>
  <fix>3d</fix>
</trkpt>
<trkpt lat="-27.2731281" lon="151.2910515">
  <ele>396.96</ele>
  <time>2026-09-01T19:55:20Z</time>
  <course>224.89</course>
  <speed>22.52</speed>
  <fix>3d</fix>
</trkpt>
<trkpt lat="-27.2731656" lon="151.2910035">
  <ele>396.19</ele>
  <time>2026-09-01T19:55:20Z</time>
  <course>252.54</course>
  <speed>21.374950292339864</speed>
  <fix>3d</fix>
</trkpt>
<trkpt lat="-27.2731281" lon="151.2910515">
  <ele>396.96</ele>
  <time>2026-09-01T19:55:20Z</time>
  <course>224.89</course>
  <speed>22.52</speed>
  <fix>3d</fix>
</trkpt>
<trkpt lat="-27.2731771" lon="151.2909864">
  <ele>395.92</ele>
  <time>2026-09-01T19:55:20Z</time>
  <course>254.64</course>
  <speed>21.05023040253954</speed>
  <fix>3d</fix>
</trkpt>
<trkpt lat="-27.273155" lon="151.2910187">
  <ele>396.41</ele>
  <time>2026-09-01T19:55:20Z</time>
  <course>229.57</course>
  <speed>21.82</speed>
  <fix>3d</fix>
</trkpt>
<trkpt lat="-27.2731878" lon="151.290969">
  <ele>395.66</ele>
  <time>2026-09-01T19:55:20Z</time>
  <course>256.67</course>
  <speed>20.73505244748612</speed>
  <fix>3d</fix>
</trkpt>
<trkpt lat="-27.273155" lon="151.2910187">
  <ele>396.41</ele>
  <time>2026-09-01T19:55:20Z</time>
  <course>229.57</course>
  <speed>21.82</speed>
  <fix>3d</fix>
</trkpt>
<trkpt lat="-27.2731977" lon="151.2909513">
  <ele>395.41</ele>
  <time>2026-09-01T19:55:20Z</time>
  <course>258.67</course>
  <speed>20.44607541803561</speed>
  <fix>3d</fix>
</trkpt>
<trkpt lat="-27.2731789" lon="151.2909844">
  <ele>395.88</ele>
  <time>2026-09-01T19:55:20Z</time>
  <course>234.31</course>
  <speed>21.15</speed>
  <fix>3d</fix>
</trkpt>
<trkpt lat="-27.2732069" lon="151.2909335">
  <ele>395.16</ele>
  <time>2026-09-01T19:55:20Z</time>
  <course>260.58</course>
  <speed>20.16612010278626</speed>
  <fix>3d</fix>
</trkpt>
<trkpt lat="-27.2731789" lon="151.2909844">
  <ele>395.88</ele>
  <time>2026-09-01T19:55:20Z</time>
  <course>234.31</course>
  <speed>21.15</speed>
  <fix>3d</fix>
</trkpt>
<trkpt lat="-27.2732153" lon="151.2909155">
  <ele>394.91</ele>
  <time>2026-09-01T19:55:20Z</time>
  <course>262.38</course>
  <speed>19.90994977391957</speed>
  <fix>3d</fix>
</trkpt>
<trkpt lat="-27.2731994" lon="151.2909493">
  <ele>395.37</ele>
  <time>2026-09-01T19:55:20Z</time>
  <course>239.0</course>
  <speed>20.54</speed>
  <fix>3d</fix>
</trkpt>
<trkpt lat="-27.2732229" lon="151.2908979">
  <ele>394.69</ele>
  <time>2026-09-01T19:55:20Z</time>
  <course>264.08</course>
  <speed>19.67220374030322</speed>
  <fix>3d</fix>
</trkpt>
<trkpt lat="-27.2731994" lon="151.2909493">
  <ele>395.37</ele>
  <time>2026-09-01T19:55:20Z</time>
  <course>239.0</course>
  <speed>20.54</speed>
  <fix>3d</fix>
</trkpt>
<trkpt lat="-27.2732299" lon="151.2908798">
  <ele>394.46</ele>
  <time>2026-09-01T19:55:20Z</time>
  <course>265.74</course>
  <speed>19.458519984829266</speed>
  <fix>3d</fix>
</trkpt>
<trkpt lat="-27.273217" lon="151.2909134">
  <ele>394.88</ele>
  <time>2026-09-01T19:55:20Z</time>
  <course>243.48</course>
  <speed>20.0</speed>
  <fix>3d</fix>
</trkpt>
<trkpt lat="-27.2732364" lon="151.2908616">
  <ele>394.24</ele>
  <time>2026-09-01T19:55:20Z</time>
  <course>267.31</course>
  <speed>19.248597351495512</speed>
  <fix>3d</fix>
</trkpt>
<trkpt lat="-27.273217" lon="151.2909134">
  <ele>394.88</ele>
  <time>2026-09-01T19:55:20Z</time>
  <course>243.48</course>
  <speed>20.0</speed>
  <fix>3d</fix>
</trkpt>
<trkpt lat="-27.2732422" lon="151.2908433">
  <ele>394.02</ele>
  <time>2026-09-01T19:55:20Z</time>
  <course>268.79</course>
  <speed>19.068639175358058</speed>
  <fix>3d</fix>
</trkpt>
<trkpt lat="-27.2732316" lon="151.290877">
  <ele>394.43</ele>
  <time>2026-09-01T19:55:20Z</time>
  <course>247.67</course>
  <speed>19.54</speed>
  <fix>3d</fix>
</trkpt>
<trkpt lat="-27.2732475" lon="151.2908249">
  <ele>393.81</ele>
  <time>2026-09-01T19:55:20Z</time>
  <course>270.23</course>
  <speed>18.89891531278978</speed>
  <fix>3d</fix>
</trkpt>
<trkpt lat="-27.2732316" lon="151.290877">
  <ele>394.43</ele>
  <time>2026-09-01T19:55:20Z</time>
  <course>247.67</course>
  <speed>19.54</speed>
  <fix>3d</fix>
</trkpt>
<trkpt lat="-27.2732523" lon="151.2908064">
  <ele>393.6</ele>
  <time>2026-09-01T19:55:20Z</time>
  <course>271.59</course>
  <speed>18.74631697160805</speed>
  <fix>3d</fix>
</trkpt>
<trkpt lat="-27.2732437" lon="151.2908403">
  <ele>394.0</ele>
  <time>2026-09-01T19:55:20Z</time>
  <course>251.55</course>
  <speed>19.14</speed>
  <fix>3d</fix>
</trkpt>
<trkpt lat="-27.2732565" lon="151.290788">
  <ele>393.4</ele>
  <time>2026-09-01T19:55:20Z</time>
  <course>272.97</course>
  <speed>18.608395954514727</speed>
  <fix>3d</fix>
</trkpt>
<trkpt lat="-27.2732437" lon="151.2908403">
  <ele>394.0</ele>
  <time>2026-09-01T19:55:20Z</time>
  <course>251.55</course>
  <speed>19.14</speed>
  <fix>3d</fix>
</trkpt>
<trkpt lat="-27.2732602" lon="151.2907696">
  <ele>393.2</ele>
  <time>2026-09-01T19:55:20Z</time>
  <course>274.21</course>
  <speed>18.482754123777116</speed>
  <fix>3d</fix>
</trkpt>
<trkpt lat="-27.2732535" lon="151.2908035">
  <ele>393.59</ele>
  <time>2026-09-01T19:55:20Z</time>
  <course>255.11</course>
  <speed>18.81</speed>
  <fix>3d</fix>
</trkpt>
<trkpt lat="-27.2732635" lon="151.2907506">
  <ele>393.01</ele>
  <time>2026-09-01T19:55:20Z</time>
  <course>275.41</course>
  <speed>18.373331216739114</speed>
  <fix>3d</fix>
</trkpt>
<trkpt lat="-27.2732535" lon="151.2908035">
  <ele>393.59</ele>
  <time>2026-09-01T19:55:20Z</time>
  <course>255.11</course>
  <speed>18.81</speed>
  <fix>3d</fix>
</trkpt>
<trkpt lat="-27.2732663" lon="151.2907323">
  <ele>392.82</ele>
  <time>2026-09-01T19:55:20Z</time>
  <course>276.6</course>
  <speed>18.264353259833758</speed>
  <fix>3d</fix>
</trkpt>
<trkpt lat="-27.2732611" lon="151.2907668">
  <ele>393.2</ele>
  <time>2026-09-01T19:55:20Z</time>
  <course>258.39</course>
  <speed>18.54</speed>
  <fix>3d</fix>
</trkpt>
<trkpt lat="-27.2732686" lon="151.290714">
  <ele>392.64</ele>
  <time>2026-09-01T19:55:20Z</time>
  <course>277.74</course>
  <speed>18.17737604826395</speed>
  <fix>3d</fix>
</trkpt>
<trkpt lat="-27.2732611" lon="151.2907668">
  <ele>393.2</ele>
  <time>2026-09-01T19:55:20Z</time>
  <course>258.39</course>
  <speed>18.54</speed>
  <fix>3d</fix>
</trkpt>
<trkpt lat="-27.2732705" lon="151.2906956">
  <ele>392.47</ele>
  <time>2026-09-01T19:55:20Z</time>
  <course>278.77</course>
  <speed>18.096875420911754</speed>
  <fix>3d</fix>
</trkpt>
<trkpt lat="-27.2732669" lon="151.2907301">
  <ele>392.83</ele>
  <time>2026-09-01T19:55:20Z</time>
  <course>261.45</course>
  <speed>18.31</speed>
  <fix>3d</fix>
</trkpt>
<trkpt lat="-27.273272" lon="151.2906773">
  <ele>392.31</ele>
  <time>2026-09-01T19:55:20Z</time>
  <course>279.72</course>
  <speed>18.017635804955102</speed>
  <fix>3d</fix>
</trkpt>
<trkpt lat="-27.2732669" lon="151.2907301">
  <ele>392.83</ele>
  <time>2026-09-01T19:55:20Z</time>
  <course>261.45</course>
  <speed>18.31</speed>
  <fix>3d</fix>
</trkpt>
<trkpt lat="-27.2732732" lon="151.2906591">
  <ele>392.16</ele>
  <time>2026-09-01T19:55:20Z</time>
  <course>280.7</course>
  <speed>17.96013641373584</speed>
  <fix>3d</fix>
</trkpt>
<trkpt lat="-27.273271" lon="151.2906936">
  <ele>392.49</ele>
  <time>2026-09-01T19:55:20Z</time>
  <course>264.3</course>
  <speed>18.13</speed>
  <fix>3d</fix>
</trkpt>
<trkpt lat="-27.2732739" lon="151.2906407">
  <ele>392.01</ele>
  <time>2026-09-01T19:55:20Z</time>
  <course>281.7</course>
  <speed>17.90144407582807</speed>
  <fix>3d</fix>
</trkpt>
<trkpt lat="-27.273271" lon="151.2906936">
  <ele>392.49</ele>
  <time>2026-09-01T19:55:20Z</time>
  <course>264.3</course>
  <speed>18.13</speed>
  <fix>3d</fix>
</trkpt>
<trkpt lat="-27.2732744" lon="151.2906226">
  <ele>391.88</ele>
  <time>2026-09-01T19:55:20Z</time>
  <course>282.7</course>
  <speed>17.84189451823993</speed>
  <fix>3d</fix>
</trkpt>
<trkpt lat="-27.2732734" lon="151.2906573">
  <ele>392.18</ele>
  <time>2026-09-01T19:55:20Z</time>
  <course>266.94</course>
  <speed>17.98</speed>
  <fix>3d</fix>
</trkpt>
<trkpt lat="-27.2732744" lon="151.2906045">
  <ele>391.75</ele>
  <time>2026-09-01T19:55:20Z</time>
  <course>283.65</course>
  <speed>17.790281054553354</speed>
  <fix>3d</fix>
</trkpt>
<trkpt lat="-27.2732734" lon="151.2906573">
  <ele>392.18</ele>
  <time>2026-09-01T19:55:20Z</time>
  <course>266.94</course>
  <speed>17.98</speed>
  <fix>3d</fix>
</trkpt>
<trkpt lat="-27.2732742" lon="151.2905865">
  <ele>391.64</ele>
  <time>2026-09-01T19:55:20Z</time>
  <course>284.53</course>
  <speed>17.74622495067613</speed>
  <fix>3d</fix>
</trkpt>
<trkpt lat="-27.2732744" lon="151.2906211">
  <ele>391.91</ele>
  <time>2026-09-01T19:55:20Z</time>
  <course>269.43</course>
  <speed>17.85</speed>
  <fix>3d</fix>
</trkpt>
<trkpt lat="-27.2732736" lon="151.2905685">
  <ele>391.53</ele>
  <time>2026-09-01T19:55:20Z</time>
  <course>285.38</course>
  <speed>17.69900562178565</speed>
  <fix>3d</fix>
</trkpt>
<trkpt lat="-27.2732744" lon="151.2906211">
  <ele>391.91</ele>
  <time>2026-09-01T19:55:20Z</time>
  <course>269.43</course>
  <speed>17.85</speed>
  <fix>3d</fix>
</trkpt>
<trkpt lat="-27.2732726" lon="151.2905506">
  <ele>391.44</ele>
  <time>2026-09-01T19:55:20Z</time>
  <course>286.25</course>
  <speed>17.659467715647605</speed>
  <fix>3d</fix>
</trkpt>
<trkpt lat="-27.2732741" lon="151.2905851">
  <ele>391.68</ele>
  <time>2026-09-01T19:55:20Z</time>
  <course>271.82</course>
  <speed>17.75</speed>
  <fix>3d</fix>
</trkpt>
<trkpt lat="-27.2732715" lon="151.2905328">
  <ele>391.35</ele>
  <time>2026-09-01T19:55:20Z</time>
  <course>287.03</course>
  <speed>17.615700383464745</speed>
  <fix>3d</fix>
</trkpt>
<trkpt lat="-27.2732741" lon="151.2905851">
  <ele>391.68</ele>
  <time>2026-09-01T19:55:20Z</time>
  <course>271.82</course>
  <speed>17.75</speed>
  <fix>3d</fix>
</trkpt>
<trkpt lat="-27.2732699" lon="151.290515">
  <ele>391.28</ele>
  <time>2026-09-01T19:55:20Z</time>
  <course>287.76</course>
  <speed>17.576575320579376</speed>
  <fix>3d</fix>
</trkpt>
<trkpt lat="-27.2732725" lon="151.2905493">
  <ele>391.49</ele>
  <time>2026-09-01T19:55:20Z</time>
  <course>274.13</course>
  <speed>17.65</speed>
  <fix>3d</fix>
</trkpt>
<trkpt lat="-27.2732681" lon="151.2904973">
  <ele>391.22</ele>
  <time>2026-09-01T19:55:20Z</time>
  <course>288.53</course>
  <speed>17.533556399088006</speed>
  <fix>3d</fix>
</trkpt>
<trkpt lat="-27.2732725" lon="151.2905493">
  <ele>391.49</ele>
  <time>2026-09-01T19:55:20Z</time>
  <course>274.13</course>
  <speed>17.65</speed>
  <fix>3d</fix>
</trkpt>
<trkpt lat="-27.273266" lon="151.2904797">
  <ele>391.17</ele>
  <time>2026-09-01T19:55:20Z</time>
  <course>289.3</course>
  <speed>17.496651108140664</speed>
  <fix>3d</fix>
</trkpt>
<trkpt lat="-27.2732696" lon="151.2905139">
  <ele>391.34</ele>
  <time>2026-09-01T19:55:20Z</time>
  <course>276.34</course>
  <speed>17.57</speed>
  <fix>3d</fix>
</trkpt>
<trkpt lat="-27.2732636" lon="151.2904622">
  <ele>391.14</ele>
  <time>2026-09-01T19:55:20Z</time>
  <course>290.02</course>
  <speed>17.464297867363577</speed>
  <fix>3d</fix>
</trkpt>
<trkpt lat="-27.2732696" lon="151.2905139">
  <ele>391.34</ele>
  <time>2026-09-01T19:55:20Z</time>
  <course>276.34</course>
  <speed>17.57</speed>
  <fix>3d</fix>
</trkpt>
<trkpt lat="-27.2732609" lon="151.2904448">
  <ele>391.11</ele>
  <time>2026-09-01T19:55:20Z</time>
  <course>290.73</course>
  <speed>17.424376602908925</speed>
  <fix>3d</fix>
</trkpt>
<trkpt lat="-27.2732656" lon="151.2904788">
  <ele>391.24</ele>
  <time>2026-09-01T19:55:20Z</time>
  <course>278.47</course>
  <speed>17.49</speed>
  <fix>3d</fix>
</trkpt>
<trkpt lat="-27.2732579" lon="151.2904275">
  <ele>391.09</ele>
  <time>2026-09-01T19:55:20Z</time>
  <course>291.42</course>
  <speed>17.399477003634335</speed>
  <fix>3d</fix>
</trkpt>
<trkpt lat="-27.2732656" lon="151.2904788">
  <ele>391.24</ele>
  <time>2026-09-01T19:55:20Z</time>
  <course>278.47</course>
  <speed>17.49</speed>
  <fix>3d</fix>
</trkpt>
<trkpt lat="-27.2732547" lon="151.2904103">
  <ele>391.08</ele>
  <time>2026-09-01T19:55:20Z</time>
  <course>292.11</course>
  <speed>17.3559932011971</speed>
  <fix>3d</fix>
</trkpt>
<trkpt lat="-27.2732604" lon="151.2904439">
  <ele>391.17</ele>
  <time>2026-09-01T19:55:20Z</time>
  <course>280.51</course>
  <speed>17.42</speed>
  <fix>3d</fix>
</trkpt>
<trkpt lat="-27.2732514" lon="151.2903936">
  <ele>391.08</ele>
  <time>2026-09-01T19:55:20Z</time>
  <course>292.8</course>
  <speed>17.317187993435887</speed>
  <fix>3d</fix>
</trkpt>
<trkpt lat="-27.2732604" lon="151.2904439">
  <ele>391.17</ele>
  <time>2026-09-01T19:55:20Z</time>
  <course>280.51</course>
  <speed>17.42</speed>
  <fix>3d</fix>
</trkpt>
<trkpt lat="-27.2732476" lon="151.290376">
  <ele>391.09</ele>
  <time>2026-09-01T19:55:20Z</time>
  <course>293.44</course>
  <speed>17.287940883748995</speed>
  <fix>3d</fix>
</trkpt>
<trkpt lat="-27.2732541" lon="151.2904095">
  <ele>391.14</ele>
  <time>2026-09-01T19:55:20Z</time>
  <course>282.44</course>
  <speed>17.35</speed>
  <fix>3d</fix>
</trkpt>
<trkpt lat="-27.2732436" lon="151.2903592">
  <ele>391.1</ele>
  <time>2026-09-01T19:55:20Z</time>
  <course>294.06</course>
  <speed>17.249246360348614</speed>
  <fix>3d</fix>
</trkpt>
<trkpt lat="-27.2732541" lon="151.2904095">
  <ele>391.14</ele>
  <time>2026-09-01T19:55:20Z</time>
  <course>282.44</course>
  <speed>17.35</speed>
  <fix>3d</fix>
</trkpt>
<trkpt lat="-27.2732394" lon="151.2903425">
  <ele>391.12</ele>
  <time>2026-09-01T19:55:20Z</time>
  <course>294.63</course>
  <speed>17.21265232321852</speed>
  <fix>3d</fix>
</trkpt>
<trkpt lat="-27.2732469" lon="151.2903754">
  <ele>391.15</ele>
  <time>2026-09-01T19:55:20Z</time>
  <course>284.36</course>
  <speed>17.27</speed>
  <fix>3d</fix>
</trkpt>
<trkpt lat="-27.273235" lon="151.2903258">
  <ele>391.14</ele>
  <time>2026-09-01T19:55:20Z</time>
  <course>295.32</course>
  <speed>17.171051220003974</speed>
  <fix>3d</fix>
</trkpt>
<trkpt lat="-27.2732469" lon="151.2903754">
  <ele>391.15</ele>
  <time>2026-09-01T19:55:20Z</time>
  <course>284.36</course>
  <speed>17.27</speed>
  <fix>3d</fix>
</trkpt>
<trkpt lat="-27.2732304" lon="151.2903093">
  <ele>391.17</ele>
  <time>2026-09-01T19:55:20Z</time>
  <course>296.0</course>
  <speed>17.13413551948274</speed>
  <fix>3d</fix>
</trkpt>
<trkpt lat="-27.2732388" lon="151.2903418">
  <ele>391.17</ele>
  <time>2026-09-01T19:55:20Z</time>
  <course>286.25</course>
  <speed>17.2</speed>
  <fix>3d</fix>
</trkpt>
<trkpt lat="-27.2732254" lon="151.2902927">
  <ele>391.2</ele>
  <time>2026-09-01T19:55:20Z</time>
  <course>296.7</course>
  <speed>17.095695364623225</speed>
  <fix>3d</fix>
</trkpt>
<trkpt lat="-27.2732388" lon="151.2903418">
  <ele>391.17</ele>
  <time>2026-09-01T19:55:20Z</time>
  <course>286.25</course>
  <speed>17.2</speed>
  <fix>3d</fix>
</trkpt>
<trkpt lat="-27.2732203" lon="151.2902765">
  <ele>391.23</ele>
  <time>2026-09-01T19:55:20Z</time>
  <course>297.31</course>
  <speed>17.049633427144407</speed>
  <fix>3d</fix>
</trkpt>
<trkpt lat="-27.2732297" lon="151.2903087">
  <ele>391.22</ele>
  <time>2026-09-01T19:55:20Z</time>
  <course>288.13</course>
  <speed>17.12</speed>
  <fix>3d</fix>
</trkpt>
<trkpt lat="-27.273215" lon="151.2902604">
  <ele>391.27</ele>
  <time>2026-09-01T19:55:20Z</time>
  <course>297.95</course>
  <speed>17.01212802679312</speed>
  <fix>3d</fix>
</trkpt>
<trkpt lat="-27.2732297" lon="151.2903087">
  <ele>391.22</ele>
  <time>2026-09-01T19:55:20Z</time>
  <course>288.13</course>
  <speed>17.12</speed>
  <fix>3d</fix>
</trkpt>
<trkpt lat="-27.2732093" lon="151.2902444">
  <ele>391.32</ele>
  <time>2026-09-01T19:55:20Z</time>
  <course>298.66</course>
  <speed>16.966985589667953</speed>
  <fix>3d</fix>
</trkpt>
<trkpt lat="-27.2732196" lon="151.2902761">
  <ele>391.28</ele>
  <time>2026-09-01T19:55:20Z</time>
  <course>290.08</course>
  <speed>17.05</speed>
  <fix>3d</fix>
</trkpt>
<trkpt lat="-27.2732035" lon="151.2902286">
  <ele>391.36</ele>
  <time>2026-09-01T19:55:20Z</time>
  <course>299.35</course>
  <speed>16.930930275681842</speed>
  <fix>3d</fix>
</trkpt>
<trkpt lat="-27.2732196" lon="151.2902761">
  <ele>391.28</ele>
  <time>2026-09-01T19:55:20Z</time>
  <course>290.08</course>
  <speed>17.05</speed>
  <fix>3d</fix>
</trkpt>
<trkpt lat="-27.2731974" lon="151.2902129">
  <ele>391.41</ele>
  <time>2026-09-01T19:55:20Z</time>
  <course>300.01</course>
  <speed>16.887249628047783</speed>
  <fix>3d</fix>
</trkpt>
<trkpt lat="-27.2732086" lon="151.290244">
  <ele>391.36</ele>
  <time>2026-09-01T19:55:20Z</time>
  <course>292.07</course>
  <speed>16.97</speed>
  <fix>3d</fix>
</trkpt>
<trkpt lat="-27.2731911" lon="151.2901974">
  <ele>391.46</ele>
  <time>2026-09-01T19:55:20Z</time>
  <course>300.68</course>
  <speed>16.85742566348729</speed>
  <fix>3d</fix>
</trkpt>
<trkpt lat="-27.2732086" lon="151.290244">
  <ele>391.36</ele>
  <time>2026-09-01T19:55:20Z</time>
  <course>292.07</course>
  <speed>16.97</speed>
  <fix>3d</fix>
</trkpt>
<trkpt lat="-27.2731845" lon="151.290182">
  <ele>391.51</ele>
  <time>2026-09-01T19:55:20Z</time>
  <course>301.39</course>
  <speed>16.820350769231894</speed>
  <fix>3d</fix>
</trkpt>
<trkpt lat="-27.2731967" lon="151.2902125">
  <ele>391.46</ele>
  <time>2026-09-01T19:55:20Z</time>
  <course>294.13</course>
  <speed>16.9</speed>
  <fix>3d</fix>
</trkpt>
<trkpt lat="-27.2731777" lon="151.2901669">
  <ele>391.57</ele>
  <time>2026-09-01T19:55:20Z</time>
  <course>302.11</course>
  <speed>16.77603350020499</speed>
  <fix>3d</fix>
</trkpt>
<trkpt lat="-27.2731967" lon="151.2902125">
  <ele>391.46</ele>
  <time>2026-09-01T19:55:20Z</time>
  <course>294.13</course>
  <speed>16.9</speed>
  <fix>3d</fix>
</trkpt>
<trkpt lat="-27.2731707" lon="151.2901519">
  <ele>391.63</ele>
  <time>2026-09-01T19:55:20Z</time>
  <course>302.83</course>
  <speed>16.73369355521966</speed>
  <fix>3d</fix>
</trkpt>
<trkpt lat="-27.2731838" lon="151.2901817">
  <ele>391.56</ele>
  <time>2026-09-01T19:55:20Z</time>
  <course>296.27</course>
  <speed>16.82</speed>
  <fix>3d</fix>
</trkpt>
<trkpt lat="-27.2731634" lon="151.2901371">
  <ele>391.69</ele>
  <time>2026-09-01T19:55:20Z</time>
  <course>303.55</course>
  <speed>16.69777530091958</speed>
  <fix>3d</fix>
</trkpt>
<trkpt lat="-27.2731838" lon="151.2901817">
  <ele>391.56</ele>
  <time>2026-09-01T19:55:20Z</time>
  <course>296.27</course>
  <speed>16.82</speed>
  <fix>3d</fix>
</trkpt>
<trkpt lat="-27.2731558" lon="151.2901225">
  <ele>391.75</ele>
  <time>2026-09-01T19:55:20Z</time>
  <course>304.31</course>
  <speed>16.65971188226255</speed>
  <fix>3d</fix>
</trkpt>
<trkpt lat="-27.2731699" lon="151.2901516">
  <ele>391.68</ele>
  <time>2026-09-01T19:55:20Z</time>
  <course>298.48</course>
  <speed>16.74</speed>
  <fix>3d</fix>
</trkpt>
<trkpt lat="-27.273148" lon="151.2901082">
  <ele>391.81</ele>
  <time>2026-09-01T19:55:20Z</time>
  <course>305.01</course>
  <speed>16.62511654094491</speed>
  <fix>3d</fix>
</trkpt>
<trkpt lat="-27.2731699" lon="151.2901516">
  <ele>391.68</ele>
  <time>2026-09-01T19:55:20Z</time>
  <course>298.48</course>
  <speed>16.74</speed>
  <fix>3d</fix>
</trkpt>
<trkpt lat="-27.27314" lon="151.290094">
  <ele>391.88</ele>
  <time>2026-09-01T19:55:20Z</time>
  <course>305.76</course>
  <speed>16.59533970727927</speed>
  <fix>3d</fix>
</trkpt>
<trkpt lat="-27.273155" lon="151.2901221">
  <ele>391.8</ele>
  <time>2026-09-01T19:55:20Z</time>
  <course>300.77</course>
  <speed>16.67</speed>
  <fix>3d</fix>
</trkpt>
<trkpt lat="-27.2731317" lon="151.2900801">
  <ele>391.95</ele>
  <time>2026-09-01T19:55:20Z</time>
  <course>306.51</course>
  <speed>16.56932406587547</speed>
  <fix>3d</fix>
</trkpt>
<trkpt lat="-27.273155" lon="151.2901221">
  <ele>391.8</ele>
  <time>2026-09-01T19:55:20Z</time>
  <course>300.77</course>
  <speed>16.67</speed>
  <fix>3d</fix>
</trkpt>
<trkpt lat="-27.2731232" lon="151.2900663">
  <ele>392.01</ele>
  <time>2026-09-01T19:55:20Z</time>
  <course>307.29</course>
  <speed>16.54217639852749</speed>
  <fix>3d</fix>
</trkpt>
<trkpt lat="-27.2731392" lon="151.2900936">
  <ele>391.93</ele>
  <time>2026-09-01T19:55:20Z</time>
  <course>303.09</course>
  <speed>16.6</speed>
  <fix>3d</fix>
</trkpt>
<trkpt lat="-27.2731145" lon="151.2900528">
  <ele>392.08</ele>
  <time>2026-09-01T19:55:20Z</time>
  <course>308.05</course>
  <speed>16.508340316337073</speed>
  <fix>3d</fix>
</trkpt>
<trkpt lat="-27.2731392" lon="151.2900936">
  <ele>391.93</ele>
  <time>2026-09-01T19:55:20Z</time>
  <course>303.09</course>
  <speed>16.6</speed>
  <fix>3d</fix>
</trkpt>
<trkpt lat="-27.2731055" lon="151.2900395">
  <ele>392.14</ele>
  <time>2026-09-01T19:55:20Z</time>
  <course>308.82</course>
  <speed>16.481747480167265</speed>
  <fix>3d</fix>
</trkpt>
<trkpt lat="-27.2731225" lon="151.2900659">
  <ele>392.07</ele>
  <time>2026-09-01T19:55:20Z</time>
  <course>305.43</course>
  <speed>16.54</speed>
  <fix>3d</fix>
</trkpt>
<trkpt lat="-27.2730963" lon="151.2900265">
  <ele>392.21</ele>
  <time>2026-09-01T19:55:20Z</time>
  <course>309.56</course>
  <speed>16.454652837419573</speed>
  <fix>3d</fix>
</trkpt>
<trkpt lat="-27.2731225" lon="151.2900659">
  <ele>392.07</ele>
  <time>2026-09-01T19:55:20Z</time>
  <course>305.43</course>
  <speed>16.54</speed>
  <fix>3d</fix>
</trkpt>
<trkpt lat="-27.2730868" lon="151.2900137">
  <ele>392.27</ele>
  <time>2026-09-01T19:55:20Z</time>
  <course>310.29</course>
  <speed>16.442776529528096</speed>
  <fix>3d</fix>
</trkpt>
<trkpt lat="-27.2731048" lon="151.2900391">
  <ele>392.2</ele>
  <time>2026-09-01T19:55:20Z</time>
  <course>307.82</course>
  <speed>16.48</speed>
  <fix>3d</fix>
</trkpt>
<trkpt lat="-27.2730772" lon="151.2900011">
  <ele>392.33</ele>
  <time>2026-09-01T19:55:20Z</time>
  <course>311.06</course>
  <speed>16.42321527594399</speed>
  <fix>3d</fix>
</trkpt>
<trkpt lat="-27.2731048" lon="151.2900391">
  <ele>392.2</ele>
  <time>2026-09-01T19:55:20Z</time>
  <course>307.82</course>
  <speed>16.48</speed>
  <fix>3d</fix>
</trkpt>
<trkpt lat="-27.2730674" lon="151.2899889">
  <ele>392.39</ele>
  <time>2026-09-01T19:55:20Z</time>
  <course>311.86</course>
  <speed>16.404206777531183</speed>
  <fix>3d</fix>
</trkpt>
<trkpt lat="-27.2730861" lon="151.2900133">
  <ele>392.33</ele>
  <time>2026-09-01T19:55:20Z</time>
  <course>310.25</course>
  <speed>16.43</speed>
  <fix>3d</fix>
</trkpt>
<trkpt lat="-27.2730571" lon="151.2899766">
  <ele>392.46</ele>
  <time>2026-09-01T19:55:20Z</time>
  <course>312.66</course>
  <speed>16.38648528513665</speed>
  <fix>3d</fix>
</trkpt>
<trkpt lat="-27.2730861" lon="151.2900133">
  <ele>392.33</ele>
  <time>2026-09-01T19:55:20Z</time>
  <course>310.25</course>
  <speed>16.43</speed>
  <fix>3d</fix>
</trkpt>
<trkpt lat="-27.2730467" lon="151.2899649">
  <ele>392.52</ele>
  <time>2026-09-01T19:55:20Z</time>
  <course>313.49</course>
  <speed>16.36964568950715</speed>
  <fix>3d</fix>
</trkpt>
<trkpt lat="-27.2730666" lon="151.2899885">
  <ele>392.46</ele>
  <time>2026-09-01T19:55:20Z</time>
  <course>312.73</course>
  <speed>16.39</speed>
  <fix>3d</fix>
</trkpt>
<trkpt lat="-27.2730361" lon="151.2899534">
  <ele>392.59</ele>
  <time>2026-09-01T19:55:20Z</time>
  <course>314.34</course>
  <speed>16.361066591148635</speed>
  <fix>3d</fix>
</trkpt>
<trkpt lat="-27.2730666" lon="151.2899885">
  <ele>392.46</ele>
  <time>2026-09-01T19:55:20Z</time>
  <course>312.73</course>
  <speed>16.39</speed>
  <fix>3d</fix>
</trkpt>
<trkpt lat="-27.2730253" lon="151.2899421">
  <ele>392.65</ele>
  <time>2026-09-01T19:55:20Z</time>
  <course>315.16</course>
  <speed>16.35404537110008</speed>
  <fix>3d</fix>
</trkpt>
<trkpt lat="-27.2730462" lon="151.2899646">
  <ele>392.59</ele>
  <time>2026-09-01T19:55:20Z</time>
  <course>315.27</course>
  <speed>16.37</speed>
  <fix>3d</fix>
</trkpt>
<trkpt lat="-27.2730143" lon="151.2899312">
  <ele>392.71</ele>
  <time>2026-09-01T19:55:20Z</time>
  <course>315.9</course>
  <speed>16.34807633943517</speed>
  <fix>3d</fix>
</trkpt>
<trkpt lat="-27.2730462" lon="151.2899646">
  <ele>392.59</ele>
  <time>2026-09-01T19:55:20Z</time>
  <course>315.27</course>
  <speed>16.37</speed>
  <fix>3d</fix>
</trkpt>
<trkpt lat="-27.2730031" lon="151.2899205">
  <ele>392.78</ele>
  <time>2026-09-01T19:55:20Z</time>
  <course>316.77</course>
  <speed>16.350425070927056</speed>
  <fix>3d</fix>
</trkpt>
<trkpt lat="-27.2730249" lon="151.2899419">
  <ele>392.72</ele>
  <time>2026-09-01T19:55:20Z</time>
  <course>317.85</course>
  <speed>16.35</speed>
  <fix>3d</fix>
</trkpt>
<trkpt lat="-27.2729916" lon="151.2899101">
  <ele>392.84</ele>
  <time>2026-09-01T19:55:20Z</time>
  <course>317.64</course>
  <speed>16.3565552608121</speed>
  <fix>3d</fix>
</trkpt>
<trkpt lat="-27.2730249" lon="151.2899419">
  <ele>392.72</ele>
  <time>2026-09-01T19:55:20Z</time>
  <course>317.85</course>
  <speed>16.35</speed>
  <fix>3d</fix>
</trkpt>
<trkpt lat="-27.2729799" lon="151.2899">
  <ele>392.9</ele>
  <time>2026-09-01T19:55:20Z</time>
  <course>318.4</course>
  <speed>16.362007823002653</speed>
  <fix>3d</fix>
</trkpt>
<trkpt lat="-27.2730026" lon="151.2899203">
  <ele>392.84</ele>
  <time>2026-09-01T19:55:20Z</time>
  <course>320.45</course>
  <speed>16.34</speed>
  <fix>3d</fix>
</trkpt>
<trkpt lat="-27.272968" lon="151.2898902">
  <ele>392.95</ele>
  <time>2026-09-01T19:55:20Z</time>
  <course>319.27</course>
  <speed>16.370003054367462</speed>
  <fix>3d</fix>
</trkpt>
<trkpt lat="-27.2730026" lon="151.2899203">
  <ele>392.84</ele>
  <time>2026-09-01T19:55:20Z</time>
  <course>320.45</course>
  <speed>16.34</speed>
  <fix>3d</fix>
</trkpt>
<trkpt lat="-27.272956" lon="151.2898807">
  <ele>393.01</ele>
  <time>2026-09-01T19:55:20Z</time>
  <course>320.11</course>
  <speed>16.38108665504215</speed>
  <fix>3d</fix>
</trkpt>
<trkpt lat="-27.2729796" lon="151.2898999">
  <ele>392.96</ele>
  <time>2026-09-01T19:55:20Z</time>
  <course>323.07</course>
  <speed>16.35</speed>
  <fix>3d</fix>
</trkpt>
<trkpt lat="-27.2729437" lon="151.2898716">
  <ele>393.06</ele>
  <time>2026-09-01T19:55:20Z</time>
  <course>320.94</course>
  <speed>16.395819589151376</speed>
  <fix>3d</fix>
</trkpt>
<trkpt lat="-27.2729796" lon="151.2898999">
  <ele>392.96</ele>
  <time>2026-09-01T19:55:20Z</time>
  <course>323.07</course>
  <speed>16.35</speed>
  <fix>3d</fix>
</trkpt>
<trkpt lat="-27.2729312" lon="151.2898627">
  <ele>393.11</ele>
  <time>2026-09-01T19:55:20Z</time>
  <course>321.82</course>
  <speed>16.411474644284713</speed>
  <fix>3d</fix>
</trkpt>
<trkpt lat="-27.2729557" lon="151.2898806">
  <ele>393.07</ele>
  <time>2026-09-01T19:55:20Z</time>
  <course>325.74</course>
  <speed>16.37</speed>
  <fix>3d</fix>
</trkpt>
<trkpt lat="-27.2729185" lon="151.2898542">
  <ele>393.16</ele>
  <time>2026-09-01T19:55:20Z</time>
  <course>322.68</course>
  <speed>16.436292160946763</speed>
  <fix>3d</fix>
</trkpt>
<trkpt lat="-27.2729557" lon="151.2898806">
  <ele>393.07</ele>
  <time>2026-09-01T19:55:20Z</time>
  <course>325.74</course>
  <speed>16.37</speed>
  <fix>3d</fix>
</trkpt>
<trkpt lat="-27.2729056" lon="151.289846">
  <ele>393.21</ele>
  <time>2026-09-01T19:55:20Z</time>
  <course>323.58</course>
  <speed>16.470230720909772</speed>
  <fix>3d</fix>
</trkpt>
<trkpt lat="-27.2729309" lon="151.2898626">
  <ele>393.18</ele>
  <time>2026-09-01T19:55:20Z</time>
  <course>328.46</course>
  <speed>16.4</speed>
  <fix>3d</fix>
</trkpt>
<trkpt lat="-27.2728926" lon="151.2898381">
  <ele>393.26</ele>
  <time>2026-09-01T19:55:20Z</time>
  <course>324.52</course>
  <speed>16.495138677804437</speed>
  <fix>3d</fix>
</trkpt>
<trkpt lat="-27.2729309" lon="151.2898626">
  <ele>393.18</ele>
  <time>2026-09-01T19:55:20Z</time>
  <course>328.46</course>
  <speed>16.4</speed>
  <fix>3d</fix>
</trkpt>
<trkpt lat="-27.2728793" lon="151.2898306">
  <ele>393.31</ele>
  <time>2026-09-01T19:55:20Z</time>
  <course>325.42</course>
  <speed>16.538657744811093</speed>
  <fix>3d</fix>
</trkpt>
<trkpt lat="-27.2729053" lon="151.2898459">
  <ele>393.28</ele>
  <time>2026-09-01T19:55:20Z</time>
  <course>331.18</course>
  <speed>16.46</speed>
  <fix>3d</fix>
</trkpt>
<trkpt lat="-27.2728658" lon="151.2898235">
  <ele>393.35</ele>
  <time>2026-09-01T19:55:20Z</time>
  <course>326.36</course>
  <speed>16.578691142548013</speed>
  <fix>3d</fix>
</trkpt>
<trkpt lat="-27.2729053" lon="151.2898459">
  <ele>393.28</ele>
  <time>2026-09-01T19:55:20Z</time>
  <course>331.18</course>
  <speed>16.46</speed>
  <fix>3d</fix>
</trkpt>
<trkpt lat="-27.2728523" lon="151.2898167">
  <ele>393.4</ele>
  <time>2026-09-01T19:55:20Z</time>
  <course>327.27</course>
  <speed>16.624707516224156</speed>
  <fix>3d</fix>
</trkpt>
<trkpt lat="-27.272879" lon="151.2898305">
  <ele>393.38</ele>
  <time>2026-09-01T19:55:20Z</time>
  <course>333.95</course>
  <speed>16.52</speed>
  <fix>3d</fix>
</trkpt>
<trkpt lat="-27.2728385" lon="151.2898103">
  <ele>393.44</ele>
  <time>2026-09-01T19:55:20Z</time>
  <course>328.17</course>
  <speed>16.666160325641897</speed>
  <fix>3d</fix>
</trkpt>
<trkpt lat="-27.272879" lon="151.2898305">
  <ele>393.38</ele>
  <time>2026-09-01T19:55:20Z</time>
  <course>333.95</course>
  <speed>16.52</speed>
  <fix>3d</fix>
</trkpt>
<trkpt lat="-27.2728246" lon="151.2898042">
  <ele>393.48</ele>
  <time>2026-09-01T19:55:20Z</time>
  <course>329.1</course>
  <speed>16.715899616831873</speed>
  <fix>3d</fix>
</trkpt>
<trkpt lat="-27.272852" lon="151.2898166">
  <ele>393.47</ele>
  <time>2026-09-01T19:55:20Z</time>
  <course>336.75</course>
  <speed>16.61</speed>
  <fix>3d</fix>
</trkpt>
<trkpt lat="-27.2728107" lon="151.2897986">
  <ele>393.52</ele>
  <time>2026-09-01T19:55:20Z</time>
  <course>329.96</course>
  <speed>16.767027166435913</speed>
  <fix>3d</fix>
</trkpt>
<trkpt lat="-27.272852" lon="151.2898166">
  <ele>393.47</ele>
  <time>2026-09-01T19:55:20Z</time>
  <course>336.75</course>
  <speed>16.61</speed>
  <fix>3d</fix>
</trkpt>
<trkpt lat="-27.2727964" lon="151.2897933">
  <ele>393.56</ele>
  <time>2026-09-01T19:55:20Z</time>
  <course>330.9</course>
  <speed>16.819191419328103</speed>
  <fix>3d</fix>
</trkpt>
<trkpt lat="-27.2728242" lon="151.2898041">
  <ele>393.56</ele>
  <time>2026-09-01T19:55:20Z</time>
  <course>339.6</course>
  <speed>16.71</speed>
  <fix>3d</fix>
</trkpt>
<trkpt lat="-27.272782" lon="151.2897884">
  <ele>393.6</ele>
  <time>2026-09-01T19:55:20Z</time>
  <course>331.93</course>
  <speed>16.881670533451363</speed>
  <fix>3d</fix>
</trkpt>
<trkpt lat="-27.2728242" lon="151.2898041">
  <ele>393.56</ele>
  <time>2026-09-01T19:55:20Z</time>
  <course>339.6</course>
  <speed>16.71</speed>
  <fix>3d</fix>
</trkpt>
<trkpt lat="-27.2727674" lon="151.2897839">
  <ele>393.64</ele>
  <time>2026-09-01T19:55:20Z</time>
  <course>332.9</course>
  <speed>16.949289070636564</speed>
  <fix>3d</fix>
</trkpt>
<trkpt lat="-27.2727958" lon="151.2897931">
  <ele>393.64</ele>
  <time>2026-09-01T19:55:20Z</time>
  <course>342.47</course>
  <speed>16.83</speed>
  <fix>3d</fix>
</trkpt>
<trkpt lat="-27.2727526" lon="151.2897797">
  <ele>393.68</ele>
  <time>2026-09-01T19:55:20Z</time>
  <course>333.91</course>
  <speed>17.018204958220476</speed>
  <fix>3d</fix>
</trkpt>
<trkpt lat="-27.2727958" lon="151.2897931">
  <ele>393.64</ele>
  <time>2026-09-01T19:55:20Z</time>
  <course>342.47</course>
  <speed>16.83</speed>
  <fix>3d</fix>
</trkpt>
<trkpt lat="-27.2727377" lon="151.289776">
  <ele>393.72</ele>
  <time>2026-09-01T19:55:20Z</time>
  <course>334.94</course>
  <speed>17.095862072443143</speed>
  <fix>3d</fix>
</trkpt>
<trkpt lat="-27.2727666" lon="151.2897836">
  <ele>393.72</ele>
  <time>2026-09-01T19:55:20Z</time>
  <course>345.34</course>
  <speed>16.96</speed>
  <fix>3d</fix>
</trkpt>
<trkpt lat="-27.2727226" lon="151.2897727">
  <ele>393.76</ele>
  <time>2026-09-01T19:55:20Z</time>
  <course>335.94</course>
  <speed>17.17479548640973</speed>
  <fix>3d</fix>
</trkpt>
<trkpt lat="-27.2727666" lon="151.2897836">
  <ele>393.72</ele>
  <time>2026-09-01T19:55:20Z</time>
  <course>345.34</course>
  <speed>16.96</speed>
  <fix>3d</fix>
</trkpt>
<trkpt lat="-27.2727074" lon="151.2897698">
  <ele>393.8</ele>
  <time>2026-09-01T19:55:20Z</time>
  <course>336.95</course>
  <speed>17.263058825132934</speed>
  <fix>3d</fix>
</trkpt>
<trkpt lat="-27.2727368" lon="151.2897757">
  <ele>393.8</ele>
  <time>2026-09-01T19:55:20Z</time>
  <course>348.24</course>
  <speed>17.12</speed>
  <fix>3d</fix>
</trkpt>
<trkpt lat="-27.272692" lon="151.2897673">
  <ele>393.83</ele>
  <time>2026-09-01T19:55:20Z</time>
  <course>337.89</course>
  <speed>17.352593466107592</speed>
  <fix>3d</fix>
</trkpt>
<trkpt lat="-27.2727368" lon="151.2897757">
  <ele>393.8</ele>
  <time>2026-09-01T19:55:20Z</time>
  <course>348.24</course>
  <speed>17.12</speed>
  <fix>3d</fix>
</trkpt>
<trkpt lat="-27.2726765" lon="151.2897653">
  <ele>393.86</ele>
  <time>2026-09-01T19:55:20Z</time>
  <course>338.93</course>
  <speed>17.442092764344537</speed>
  <fix>3d</fix>
</trkpt>
<trkpt lat="-27.2727064" lon="151.2897696">
  <ele>393.87</ele>
  <time>2026-09-01T19:55:20Z</time>
  <course>351.15</course>
  <speed>17.29</speed>
  <fix>3d</fix>
</trkpt>
<trkpt lat="-27.2726609" lon="151.2897637">
  <ele>393.89</ele>
  <time>2026-09-01T19:55:20Z</time>
  <course>339.97</course>
  <speed>17.55199418869548</speed>
  <fix>3d</fix>
</trkpt>
<trkpt lat="-27.2727064" lon="151.2897696">
  <ele>393.87</ele>
  <time>2026-09-01T19:55:20Z</time>
  <course>351.15</course>
  <speed>17.29</speed>
  <fix>3d</fix>
</trkpt>
<trkpt lat="-27.2726452" lon="151.2897626">
  <ele>393.92</ele>
  <time>2026-09-01T19:55:20Z</time>
  <course>340.96</course>
  <speed>17.652957259337597</speed>
  <fix>3d</fix>
</trkpt>
<trkpt lat="-27.2726754" lon="151.2897651">
  <ele>393.94</ele>
  <time>2026-09-01T19:55:20Z</time>
  <course>354.08</course>
  <speed>17.48</speed>
  <fix>3d</fix>
</trkpt>
<trkpt lat="-27.2726293" lon="151.2897618">
  <ele>393.95</ele>
  <time>2026-09-01T19:55:20Z</time>
  <course>342.07</course>
  <speed>17.765700098785864</speed>
  <fix>3d</fix>
</trkpt>
<trkpt lat="-27.2726754" lon="151.2897651">
  <ele>393.94</ele>
  <time>2026-09-01T19:55:20Z</time>
  <course>354.08</course>
  <speed>17.48</speed>
  <fix>3d</fix>
</trkpt>
<trkpt lat="-27.2726133" lon="151.2897616">
  <ele>393.98</ele>
  <time>2026-09-01T19:55:20Z</time>
  <course>343.14</course>
  <speed>17.88</speed>
  <fix>3d</fix>
</trkpt>
<trkpt lat="-27.2726439" lon="151.2897623">
  <ele>394.0</ele>
  <time>2026-09-01T19:55:20Z</time>
  <course>357.03</course>
  <speed>17.69</speed>
  <fix>3d</fix>
</trkpt>
<trkpt lat="-27.2725972" lon="151.2897617">
  <ele>394.0</ele>
  <time>2026-09-01T19:55:20Z</time>
  <course>344.17</course>
  <speed>17.995880084063685</speed>
  <fix>3d</fix>
</trkpt>
<trkpt lat="-27.2726439" lon="151.2897623">
  <ele>394.0</ele>
  <time>2026-09-01T19:55:20Z</time>
  <course>357.03</course>
  <speed>17.69</speed>
  <fix>3d</fix>
</trkpt>
<trkpt lat="-27.272581" lon="151.2897624">
  <ele>394.03</ele>
  <time>2026-09-01T19:55:20Z</time>
  <course>345.27</course>
  <speed>18.123876516904435</speed>
  <fix>3d</fix>
</trkpt>
<trkpt lat="-27.2726119" lon="151.2897613">
  <ele>394.06</ele>
  <time>2026-09-01T19:55:20Z</time>
  <course>359.98</course>
  <speed>17.92</speed>
  <fix>3d</fix>
</trkpt>
<trkpt lat="-27.2725647" lon="151.2897635">
  <ele>394.05</ele>
  <time>2026-09-01T19:55:20Z</time>
  <course>346.39</course>
  <speed>18.254536422489615</speed>
  <fix>3d</fix>
</trkpt>
<trkpt lat="-27.2726119" lon="151.2897613">
  <ele>394.06</ele>
  <time>2026-09-01T19:55:20Z</time>
  <course>359.98</course>
  <speed>17.92</speed>
  <fix>3d</fix>
</trkpt>
<trkpt lat="-27.2725484" lon="151.2897652">
  <ele>394.07</ele>
  <time>2026-09-01T19:55:20Z</time>
  <course>347.52</course>
  <speed>18.399404881680276</speed>
  <fix>3d</fix>
</trkpt>
<trkpt lat="-27.2725794" lon="151.2897622">
  <ele>394.11</ele>
  <time>2026-09-01T19:55:20Z</time>
  <course>2.94</course>
  <speed>18.17</speed>
  <fix>3d</fix>
</trkpt>
<trkpt lat="-27.2725319" lon="151.2897673">
  <ele>394.1</ele>
  <time>2026-09-01T19:55:20Z</time>
  <course>348.65</course>
  <speed>18.548544417285147</speed>
  <fix>3d</fix>
</trkpt>
<trkpt lat="-27.2725794" lon="151.2897622">
  <ele>394.11</ele>
  <time>2026-09-01T19:55:20Z</time>
  <course>2.94</course>
  <speed>18.17</speed>
  <fix>3d</fix>
</trkpt>
<trkpt lat="-27.2725153" lon="151.28977">
  <ele>394.12</ele>
  <time>2026-09-01T19:55:20Z</time>
  <course>349.8</course>
  <speed>18.70095719475343</speed>
  <fix>3d</fix>
</trkpt>
<trkpt lat="-27.2725466" lon="151.2897651">
  <ele>394.16</ele>
  <time>2026-09-01T19:55:20Z</time>
  <course>5.96</course>
  <speed>18.45</speed>
  <fix>3d</fix>
</trkpt>
<trkpt lat="-27.2724986" lon="151.2897732">
  <ele>394.15</ele>
  <time>2026-09-01T19:55:20Z</time>
  <course>350.98</course>
  <speed>18.8582634407307</speed>
  <fix>3d</fix>
</trkpt>
<trkpt lat="-27.2725466" lon="151.2897651">
  <ele>394.16</ele>
  <time>2026-09-01T19:55:20Z</time>
  <course>5.96</course>
  <speed>18.45</speed>
  <fix>3d</fix>
</trkpt>
<trkpt lat="-27.272482" lon="151.2897769">
  <ele>394.17</ele>
  <time>2026-09-01T19:55:20Z</time>
  <course>352.21</course>
  <speed>19.03083024988663</speed>
  <fix>3d</fix>
</trkpt>
<trkpt lat="-27.2725135" lon="151.28977">
  <ele>394.21</ele>
  <time>2026-09-01T19:55:20Z</time>
  <course>9.02</course>
  <speed>18.75</speed>
  <fix>3d</fix>
</trkpt>
<trkpt lat="-27.2724653" lon="151.2897812">
  <ele>394.2</ele>
  <time>2026-09-01T19:55:20Z</time>
  <course>353.42</course>
  <speed>19.199635413205115</speed>
  <fix>3d</fix>
</trkpt>
<trkpt lat="-27.2725135" lon="151.28977">
  <ele>394.21</ele>
  <time>2026-09-01T19:55:20Z</time>
  <course>9.02</course>
  <speed>18.75</speed>
  <fix>3d</fix>
</trkpt>
<trkpt lat="-27.2724484" lon="151.289786">
  <ele>394.22</ele>
  <time>2026-09-01T19:55:20Z</time>
  <course>354.72</course>
  <speed>19.375110322266554</speed>
  <fix>3d</fix>
</trkpt>
<trkpt lat="-27.2724801" lon="151.289777">
  <ele>394.26</ele>
  <time>2026-09-01T19:55:20Z</time>
  <course>12.08</course>
  <speed>19.07</speed>
  <fix>3d</fix>
</trkpt>
<trkpt lat="-27.2724316" lon="151.2897914">
  <ele>394.25</ele>
  <time>2026-09-01T19:55:20Z</time>
  <course>356.02</course>
  <speed>19.563624408580328</speed>
  <fix>3d</fix>
</trkpt>
<trkpt lat="-27.2724801" lon="151.289777">
  <ele>394.26</ele>
  <time>2026-09-01T19:55:20Z</time>
  <course>12.08</course>
  <speed>19.07</speed>
  <fix>3d</fix>
</trkpt>
<trkpt lat="-27.2724145" lon="151.2897974">
  <ele>394.27</ele>
  <time>2026-09-01T19:55:20Z</time>
  <course>357.22</course>
  <speed>19.76107537559634</speed>
  <fix>3d</fix>
</trkpt>
<trkpt lat="-27.2724465" lon="151.2897862">
  <ele>394.31</ele>
  <time>2026-09-01T19:55:20Z</time>
  <course>15.2</course>
  <speed>19.42</speed>
  <fix>3d</fix>
</trkpt>
<trkpt lat="-27.2723976" lon="151.289804">
  <ele>394.3</ele>
  <time>2026-09-01T19:55:20Z</time>
  <course>358.48</course>
  <speed>19.951814453828504</speed>
  <fix>3d</fix>
</trkpt>
<trkpt lat="-27.2724465" lon="151.2897862">
  <ele>394.31</ele>
  <time>2026-09-01T19:55:20Z</time>
  <course>15.2</course>
  <speed>19.42</speed>
  <fix>3d</fix>
</trkpt>
<trkpt lat="-27.2723808" lon="151.2898111">
  <ele>394.33</ele>
  <time>2026-09-01T19:55:20Z</time>
  <course>359.84</course>
  <speed>20.164793576925106</speed>
  <fix>3d</fix>
</trkpt>
<trkpt lat="-27.2724128" lon="151.2897977">
  <ele>394.36</ele>
  <time>2026-09-01T19:55:20Z</time>
  <course>18.38</course>
  <speed>19.8</speed>
  <fix>3d</fix>
</trkpt>
<trkpt lat="-27.2723639" lon="151.2898189">
  <ele>394.36</ele>
  <time>2026-09-01T19:55:20Z</time>
  <course>1.19</course>
  <speed>20.365627905861388</speed>
  <fix>3d</fix>
</trkpt>
<trkpt lat="-27.2724128" lon="151.2897977">
  <ele>394.36</ele>
  <time>2026-09-01T19:55:20Z</time>
  <course>18.38</course>
  <speed>19.8</speed>
  <fix>3d</fix>
</trkpt>
<trkpt lat="-27.272347" lon="151.2898273">
  <ele>394.39</ele>
  <time>2026-09-01T19:55:20Z</time>
  <course>2.6</course>
  <speed>20.582043144449973</speed>
  <fix>3d</fix>
</trkpt>
<trkpt lat="-27.2723791" lon="151.2898114">
  <ele>394.42</ele>
  <time>2026-09-01T19:55:20Z</time>
  <course>21.59</course>
  <speed>20.19</speed>
  <fix>3d</fix>
</trkpt>
<trkpt lat="-27.2723302" lon="151.2898363">
  <ele>394.41</ele>
  <time>2026-09-01T19:55:20Z</time>
  <course>3.97</course>
  <speed>20.804499513326437</speed>
  <fix>3d</fix>
</trkpt>
<trkpt lat="-27.2723791" lon="151.2898114">
  <ele>394.42</ele>
  <time>2026-09-01T19:55:20Z</time>
  <course>21.59</course>
  <speed>20.19</speed>
  <fix>3d</fix>
</trkpt>
<trkpt lat="-27.2723135" lon="151.2898459">
  <ele>394.43</ele>
  <time>2026-09-01T19:55:20Z</time>
  <course>5.41</course>
  <speed>21.034716541945603</speed>
  <fix>3d</fix>
</trkpt>
<trkpt lat="-27.2723454" lon="151.2898277">
  <ele>394.48</ele>
  <time>2026-09-01T19:55:20Z</time>
  <course>24.77</course>
  <speed>20.61</speed>
  <fix>3d</fix>
</trkpt>
<trkpt lat="-27.2722968" lon="151.2898562">
  <ele>394.46</ele>
  <time>2026-09-01T19:55:21Z</time>
  <course>6.88</course>
  <speed>21.26949223653447</speed>
  <fix>3d</fix>
</trkpt>
<trkpt lat="-27.2723454" lon="151.2898277">
  <ele>394.48</ele>
  <time>2026-09-01T19:55:21Z</time>
  <course>24.77</course>
  <speed>20.61</speed>
  <fix>3d</fix>
</trkpt>
<trkpt lat="-27.2722802" lon="151.2898671">
  <ele>394.48</ele>
  <time>2026-09-01T19:55:21Z</time>
  <course>8.38</course>
  <speed>21.51317735714555</speed>
  <fix>3d</fix>
</trkpt>
<trkpt lat="-27.2723118" lon="151.2898465">
  <ele>394.53</ele>
  <time>2026-09-01T19:55:21Z</time>
  <course>28.02</course>
  <speed>21.06</speed>
  <fix>3d</fix>
</trkpt>
<trkpt lat="-27.2722637" lon="151.2898788">
  <ele>394.5</ele>
  <time>2026-09-01T19:55:21Z</time>
  <course>9.96</course>
  <speed>21.770608627229514</speed>
  <fix>3d</fix>
</trkpt>
<trkpt lat="-27.2723118" lon="151.2898465">
  <ele>394.53</ele>
  <time>2026-09-01T19:55:21Z</time>
  <course>28.02</course>
  <speed>21.06</speed>
  <fix>3d</fix>
</trkpt>
<trkpt lat="-27.2722472" lon="151.2898912">
  <ele>394.52</ele>
  <time>2026-09-01T19:55:21Z</time>
  <course>11.59</course>
  <speed>22.042377367244217</speed>
  <fix>3d</fix>
</trkpt>
<trkpt lat="-27.2722785" lon="151.2898678">
  <ele>394.58</ele>
  <time>2026-09-01T19:55:21Z</time>
  <course>31.35</course>
  <speed>21.55</speed>
  <fix>3d</fix>
</trkpt>
<trkpt lat="-27.2722309" lon="151.2899042">
  <ele>394.55</ele>
  <time>2026-09-01T19:55:21Z</time>
  <course>13.21</course>
  <speed>22.312402380738835</speed>
  <fix>3d</fix>
</trkpt>
<trkpt lat="-27.2722785" lon="151.2898678">
  <ele>394.58</ele>
  <time>2026-09-01T19:55:21Z</time>
  <course>31.35</course>
  <speed>21.55</speed>
  <fix>3d</fix>
</trkpt>
<trkpt lat="-27.2722149" lon="151.289918">
  <ele>394.58</ele>
  <time>2026-09-01T19:55:21Z</time>
  <course>14.86</course>
  <speed>22.590991567436784</speed>
  <fix>3d</fix>
</trkpt>
<trkpt lat="-27.2722457" lon="151.2898918">
  <ele>394.63</ele>
  <time>2026-09-01T19:55:21Z</time>
  <course>34.78</course>
  <speed>22.06</speed>
  <fix>3d</fix>
</trkpt>
<trkpt lat="-27.272199" lon="151.2899325">
  <ele>394.61</ele>
  <time>2026-09-01T19:55:21Z</time>
  <course>16.51</course>
  <speed>22.868847806568656</speed>
  <fix>3d</fix>
</trkpt>
<trkpt lat="-27.2722457" lon="151.2898918">
  <ele>394.63</ele>
  <time>2026-09-01T19:55:21Z</time>
  <course>34.78</course>
  <speed>22.06</speed>
  <fix>3d</fix>
</trkpt>
<trkpt lat="-27.2721833" lon="151.2899477">
  <ele>394.64</ele>
  <time>2026-09-01T19:55:21Z</time>
  <course>18.18</course>
  <speed>23.158968025367628</speed>
  <fix>3d</fix>
</trkpt>
<trkpt lat="-27.2722134" lon="151.2899187">
  <ele>394.69</ele>
  <time>2026-09-01T19:55:21Z</time>
  <course>38.27</course>
  <speed>22.61</speed>
  <fix>3d</fix>
</trkpt>
<trkpt lat="-27.2721678" lon="151.2899637">
  <ele>394.68</ele>
  <time>2026-09-01T19:55:21Z</time>
  <course>19.97</course>
  <speed>23.462073650894546</speed>
  <fix>3d</fix>
</trkpt>
<trkpt lat="-27.2722134" lon="151.2899187">
  <ele>394.69</ele>
  <time>2026-09-01T19:55:21Z</time>
  <course>38.27</course>
  <speed>22.61</speed>
  <fix>3d</fix>
</trkpt>
<trkpt lat="-27.2721526" lon="151.2899804">
  <ele>394.72</ele>
  <time>2026-09-01T19:55:21Z</time>
  <course>21.78</course>
  <speed>23.76632281191182</speed>
  <fix>3d</fix>
</trkpt>
<trkpt lat="-27.272182" lon="151.2899484">
  <ele>394.76</ele>
  <time>2026-09-01T19:55:21Z</time>
  <course>41.79</course>
  <speed>23.18</speed>
  <fix>3d</fix>
</trkpt>
<trkpt lat="-27.2721379" lon="151.2899977">
  <ele>394.76</ele>
  <time>2026-09-01T19:55:21Z</time>
  <course>23.58</course>
  <speed>24.073329640911744</speed>
  <fix>3d</fix>
</trkpt>
<trkpt lat="-27.272182" lon="151.2899484">
  <ele>394.76</ele>
  <time>2026-09-01T19:55:21Z</time>
  <course>41.79</course>
  <speed>23.18</speed>
  <fix>3d</fix>
</trkpt>
<trkpt lat="-27.2721233" lon="151.2900159">
  <ele>394.8</ele>
  <time>2026-09-01T19:55:21Z</time>
  <course>25.39</course>
  <speed>24.391147984463547</speed>
  <fix>3d</fix>
</trkpt>
<trkpt lat="-27.2721515" lon="151.2899812">
  <ele>394.83</ele>
  <time>2026-09-01T19:55:21Z</time>
  <course>45.37</course>
  <speed>23.77</speed>
  <fix>3d</fix>
</trkpt>
<trkpt lat="-27.272109" lon="151.2900349">
  <ele>394.84</ele>
  <time>2026-09-01T19:55:21Z</time>
  <course>27.31</course>
  <speed>24.712484699034214</speed>
  <fix>3d</fix>
</trkpt>
<trkpt lat="-27.2721515" lon="151.2899812">
  <ele>394.83</ele>
  <time>2026-09-01T19:55:21Z</time>
  <course>45.37</course>
  <speed>23.77</speed>
  <fix>3d</fix>
</trkpt>
<trkpt lat="-27.2720951" lon="151.2900547">
  <ele>394.88</ele>
  <time>2026-09-01T19:55:21Z</time>
  <course>29.28</course>
  <speed>25.02883137503627</speed>
  <fix>3d</fix>
</trkpt>
<trkpt lat="-27.2721221" lon="151.2900169">
  <ele>394.91</ele>
  <time>2026-09-01T19:55:21Z</time>
  <course>49.0</course>
  <speed>24.4</speed>
  <fix>3d</fix>
</trkpt>
<trkpt lat="-27.2720815" lon="151.2900753">
  <ele>394.92</ele>
  <time>2026-09-01T19:55:21Z</time>
  <course>31.33</course>
  <speed>25.369923137447618</speed>
  <fix>3d</fix>
</trkpt>
<trkpt lat="-27.2721221" lon="151.2900169">
  <ele>394.91</ele>
  <time>2026-09-01T19:55:21Z</time>
  <course>49.0</course>
  <speed>24.4</speed>
  <fix>3d</fix>
</trkpt>
<trkpt lat="-27.2720685" lon="151.2900966">
  <ele>394.97</ele>
  <time>2026-09-01T19:55:21Z</time>
  <course>33.45</course>
  <speed>25.72435616298297</speed>
  <fix>3d</fix>
</trkpt>
<trkpt lat="-27.272094" lon="151.2900556">
  <ele>395.0</ele>
  <time>2026-09-01T19:55:21Z</time>
  <course>52.69</course>
  <speed>25.04</speed>
  <fix>3d</fix>
</trkpt>
<trkpt lat="-27.272056" lon="151.2901187">
  <ele>395.01</ele>
  <time>2026-09-01T19:55:21Z</time>
  <course>35.58</course>
  <speed>26.07255261764755</speed>
  <fix>3d</fix>
</trkpt>
<trkpt lat="-27.272094" lon="151.2900556">
  <ele>395.0</ele>
  <time>2026-09-01T19:55:21Z</time>
  <course>52.69</course>
  <speed>25.04</speed>
  <fix>3d</fix>
</trkpt>
<trkpt lat="-27.2720439" lon="151.2901416">
  <ele>395.06</ele>
  <time>2026-09-01T19:55:21Z</time>
  <course>37.75</course>
  <speed>26.43563125783078</speed>
  <fix>3d</fix>
</trkpt>
<trkpt lat="-27.2720676" lon="151.2900975">
  <ele>395.08</ele>
  <time>2026-09-01T19:55:21Z</time>
  <course>56.51</course>
  <speed>25.72</speed>
  <fix>3d</fix>
</trkpt>
<trkpt lat="-27.2720324" lon="151.2901652">
  <ele>395.11</ele>
  <time>2026-09-01T19:55:21Z</time>
  <course>40.01</course>
  <speed>26.805702751466896</speed>
  <fix>3d</fix>
</trkpt>
<trkpt lat="-27.2720676" lon="151.2900975">
  <ele>395.08</ele>
  <time>2026-09-01T19:55:21Z</time>
  <course>56.51</course>
  <speed>25.72</speed>
  <fix>3d</fix>
</trkpt>
<trkpt lat="-27.2720215" lon="151.2901897">
  <ele>395.16</ele>
  <time>2026-09-01T19:55:21Z</time>
  <course>42.28</course>
  <speed>27.186012947837717</speed>
  <fix>3d</fix>
</trkpt>
<trkpt lat="-27.2720432" lon="151.2901424">
  <ele>395.17</ele>
  <time>2026-09-01T19:55:21Z</time>
  <course>60.45</course>
  <speed>26.44</speed>
  <fix>3d</fix>
</trkpt>
<trkpt lat="-27.2720113" lon="151.2902149">
  <ele>395.21</ele>
  <time>2026-09-01T19:55:21Z</time>
  <course>44.65</course>
  <speed>27.56553101248006</speed>
  <fix>3d</fix>
</trkpt>
<trkpt lat="-27.2720432" lon="151.2901424">
  <ele>395.17</ele>
  <time>2026-09-01T19:55:21Z</time>
  <course>60.45</course>
  <speed>26.44</speed>
  <fix>3d</fix>
</trkpt>
<trkpt lat="-27.2720017" lon="151.2902408">
  <ele>395.27</ele>
  <time>2026-09-01T19:55:21Z</time>
  <course>47.04</course>
  <speed>27.94215811278721</speed>
  <fix>3d</fix>
</trkpt>
<trkpt lat="-27.2720209" lon="151.2901904">
  <ele>395.27</ele>
  <time>2026-09-01T19:55:21Z</time>
  <course>64.47</course>
  <speed>27.17</speed>
  <fix>3d</fix>
</trkpt>
<trkpt lat="-27.2719929" lon="151.2902675">
  <ele>395.32</ele>
  <time>2026-09-01T19:55:21Z</time>
  <course>49.54</course>
  <speed>28.32803028803803</speed>
  <fix>3d</fix>
</trkpt>
<trkpt lat="-27.2720209" lon="151.2901904">
  <ele>395.27</ele>
  <time>2026-09-01T19:55:21Z</time>
  <course>64.47</course>
  <speed>27.17</speed>
  <fix>3d</fix>
</trkpt>
<trkpt lat="-27.2719848" lon="151.2902949">
  <ele>395.38</ele>
  <time>2026-09-01T19:55:21Z</time>
  <course>52.14</course>
  <speed>28.726357235124677</speed>
  <fix>3d</fix>
</trkpt>
<trkpt lat="-27.2720012" lon="151.2902416">
  <ele>395.37</ele>
  <time>2026-09-01T19:55:21Z</time>
  <course>68.59</course>
  <speed>27.93</speed>
  <fix>3d</fix>
</trkpt>
<trkpt lat="-27.2719776" lon="151.290323">
  <ele>395.44</ele>
  <time>2026-09-01T19:55:21Z</time>
  <course>54.68</course>
  <speed>29.11851644572573</speed>
  <fix>3d</fix>
</trkpt>
<trkpt lat="-27.2720012" lon="151.2902416">
  <ele>395.37</ele>
  <time>2026-09-01T19:55:21Z</time>
  <course>68.59</course>
  <speed>27.93</speed>
  <fix>3d</fix>
</trkpt>
<trkpt lat="-27.2719712" lon="151.2903518">
  <ele>395.5</ele>
  <time>2026-09-01T19:55:21Z</time>
  <course>57.25</course>
  <speed>29.510638759606678</speed>
  <fix>3d</fix>
</trkpt>
<trkpt lat="-27.2719844" lon="151.2902957">
  <ele>395.49</ele>
  <time>2026-09-01T19:55:21Z</time>
  <course>72.83</course>
  <speed>28.71</speed>
  <fix>3d</fix>
</trkpt>
<trkpt lat="-27.2719657" lon="151.2903813">
  <ele>395.56</ele>
  <time>2026-09-01T19:55:21Z</time>
  <course>59.97</course>
  <speed>29.905735235904167</speed>
  <fix>3d</fix>
</trkpt>
<trkpt lat="-27.2719844" lon="151.2902957">
  <ele>395.49</ele>
  <time>2026-09-01T19:55:21Z</time>
  <course>72.83</course>
  <speed>28.71</speed>
  <fix>3d</fix>
</trkpt>
<trkpt lat="-27.2719612" lon="151.2904113">
  <ele>395.63</ele>
  <time>2026-09-01T19:55:21Z</time>
  <course>62.78</course>
  <speed>30.295639950329488</speed>
  <fix>3d</fix>
</trkpt>
<trkpt lat="-27.2719709" lon="151.2903525">
  <ele>395.61</ele>
  <time>2026-09-01T19:55:21Z</time>
  <course>77.17</course>
  <speed>29.49</speed>
  <fix>3d</fix>
</trkpt>
<trkpt lat="-27.2719577" lon="151.2904419">
  <ele>395.7</ele>
  <time>2026-09-01T19:55:21Z</time>
  <course>65.69</course>
  <speed>30.68473561887083</speed>
  <fix>3d</fix>
</trkpt>
<trkpt lat="-27.2719709" lon="151.2903525">
  <ele>395.61</ele>
  <time>2026-09-01T19:55:21Z</time>
  <course>77.17</course>
  <speed>29.49</speed>
  <fix>3d</fix>
</trkpt>
<trkpt lat="-27.2719553" lon="151.290473">
  <ele>395.78</ele>
  <time>2026-09-01T19:55:21Z</time>
  <course>68.55</course>
  <speed>31.079679856781024</speed>
  <fix>3d</fix>
</trkpt>
<trkpt lat="-27.271961" lon="151.2904118">
  <ele>395.74</ele>
  <time>2026-09-01T19:55:21Z</time>
  <course>81.62</course>
  <speed>30.27</speed>
  <fix>3d</fix>
</trkpt>
<trkpt lat="-27.271954" lon="151.2905046">
  <ele>395.85</ele>
  <time>2026-09-01T19:55:21Z</time>
  <course>71.5</course>
  <speed>31.46095039886748</speed>
  <fix>3d</fix>
</trkpt>
<trkpt lat="-27.271961" lon="151.2904118">
  <ele>395.74</ele>
  <time>2026-09-01T19:55:21Z</time>
  <course>81.62</course>
  <speed>30.27</speed>
  <fix>3d</fix>
</trkpt>
<trkpt lat="-27.2719538" lon="151.2905366">
  <ele>395.93</ele>
  <time>2026-09-01T19:55:21Z</time>
  <course>74.69</course>
  <speed>31.843617884907488</speed>
  <fix>3d</fix>
</trkpt>
<trkpt lat="-27.2719551" lon="151.2904735">
  <ele>395.88</ele>
  <time>2026-09-01T19:55:21Z</time>
  <course>86.18</course>
  <speed>31.05</speed>
  <fix>3d</fix>
</trkpt>
<trkpt lat="-27.2719549" lon="151.290569">
  <ele>396.01</ele>
  <time>2026-09-01T19:55:21Z</time>
  <course>77.92</course>
  <speed>32.22547129213163</speed>
  <fix>3d</fix>
</trkpt>
<trkpt lat="-27.2719551" lon="151.2904735">
  <ele>395.88</ele>
  <time>2026-09-01T19:55:21Z</time>
  <course>86.18</course>
  <speed>31.05</speed>
  <fix>3d</fix>
</trkpt>
<trkpt lat="-27.2719571" lon="151.2906016">
  <ele>396.1</ele>
  <time>2026-09-01T19:55:21Z</time>
  <course>81.11</course>
  <speed>32.58955047250575</speed>
  <fix>3d</fix>
</trkpt>
<trkpt lat="-27.2719537" lon="151.2905369">
  <ele>396.03</ele>
  <time>2026-09-01T19:55:21Z</time>
  <course>90.93</course>
  <speed>31.82</speed>
  <fix>3d</fix>
</trkpt>
<trkpt lat="-27.2719608" lon="151.2906345">
  <ele>396.19</ele>
  <time>2026-09-01T19:55:21Z</time>
  <course>84.33</course>
  <speed>32.95846628713175</speed>
  <fix>3d</fix>
</trkpt>
<trkpt lat="-27.2719537" lon="151.2905369">
  <ele>396.03</ele>
  <time>2026-09-01T19:55:21Z</time>
  <course>90.93</course>
  <speed>31.82</speed>
  <fix>3d</fix>
</trkpt>
<trkpt lat="-27.2719658" lon="151.2906678">
  <ele>396.28</ele>
  <time>2026-09-01T19:55:21Z</time>
  <course>87.77</course>
  <speed>33.3092809889376</speed>
  <fix>3d</fix>
</trkpt>
<trkpt lat="-27.2719571" lon="151.2906019">
  <ele>396.19</ele>
  <time>2026-09-01T19:55:21Z</time>
  <course>95.85</course>
  <speed>32.57</speed>
  <fix>3d</fix>
</trkpt>
<trkpt lat="-27.2719721" lon="151.2907009">
  <ele>396.38</ele>
  <time>2026-09-01T19:55:21Z</time>
  <course>91.25</course>
  <speed>33.6387663269627</speed>
  <fix>3d</fix>
</trkpt>
<trkpt lat="-27.2719571" lon="151.2906019">
  <ele>396.19</ele>
  <time>2026-09-01T19:55:21Z</time>
  <course>95.85</course>
  <speed>32.57</speed>
  <fix>3d</fix>
</trkpt>
<trkpt lat="-27.2719799" lon="151.2907339">
  <ele>396.48</ele>
  <time>2026-09-01T19:55:21Z</time>
  <course>94.76</course>
  <speed>33.95292034567866</speed>
  <fix>3d</fix>
</trkpt>
<trkpt lat="-27.2719657" lon="151.2906677">
  <ele>396.37</ele>
  <time>2026-09-01T19:55:21Z</time>
  <course>100.9</course>
  <speed>33.29</speed>
  <fix>3d</fix>
</trkpt>
<trkpt lat="-27.271989" lon="151.2907667">
  <ele>396.59</ele>
  <time>2026-09-01T19:55:21Z</time>
  <course>98.31</course>
  <speed>34.26067716785528</speed>
  <fix>3d</fix>
</trkpt>
<trkpt lat="-27.2719657" lon="151.2906677">
  <ele>396.37</ele>
  <time>2026-09-01T19:55:21Z</time>
  <course>100.9</course>
  <speed>33.29</speed>
  <fix>3d</fix>
</trkpt>
<trkpt lat="-27.2719996" lon="151.2907994">
  <ele>396.71</ele>
  <time>2026-09-01T19:55:21Z</time>
  <course>101.99</course>
  <speed>34.54184997940904</speed>
  <fix>3d</fix>
</trkpt>
<trkpt lat="-27.2719798" lon="151.2907338">
  <ele>396.57</ele>
  <time>2026-09-01T19:55:21Z</time>
  <course>106.09</course>
  <speed>33.94</speed>
  <fix>3d</fix>
</trkpt>
<trkpt lat="-27.2720117" lon="151.2908316">
  <ele>396.82</ele>
  <time>2026-09-01T19:55:21Z</time>
  <course>105.65</course>
  <speed>34.79712775503174</speed>
  <fix>3d</fix>
</trkpt>
<trkpt lat="-27.2719798" lon="151.2907338">
  <ele>396.57</ele>
  <time>2026-09-01T19:55:21Z</time>
  <course>106.09</course>
  <speed>33.94</speed>
  <fix>3d</fix>
</trkpt>
<trkpt lat="-27.2720252" lon="151.2908635">
  <ele>396.95</ele>
  <time>2026-09-01T19:55:21Z</time>
  <course>109.43</course>
  <speed>35.026454288151974</speed>
  <fix>3d</fix>
</trkpt>
<trkpt lat="-27.2719996" lon="151.2907993">
  <ele>396.78</ele>
  <time>2026-09-01T19:55:21Z</time>
  <course>111.41</course>
  <speed>34.53</speed>
  <fix>3d</fix>
</trkpt>
<trkpt lat="-27.2720402" lon="151.2908947">
  <ele>397.07</ele>
  <time>2026-09-01T19:55:21Z</time>
  <course>113.18</course>
  <speed>35.23083308694247</speed>
  <fix>3d</fix>
</trkpt>
<trkpt lat="-27.2719996" lon="151.2907993">
  <ele>396.78</ele>
  <time>2026-09-01T19:55:21Z</time>
  <course>111.41</course>
  <speed>34.53</speed>
  <fix>3d</fix>
</trkpt>
<trkpt lat="-27.2720566" lon="151.2909252">
  <ele>397.2</ele>
  <time>2026-09-01T19:55:21Z</time>
  <course>117.12</course>
  <speed>35.405424725598195</speed>
  <fix>3d</fix>
</trkpt>
<trkpt lat="-27.2720252" lon="151.2908635">
  <ele>397.02</ele>
  <time>2026-09-01T19:55:21Z</time>
  <course>116.89</course>
  <speed>35.03</speed>
  <fix>3d</fix>
</trkpt>
<trkpt lat="-27.2720744" lon="151.290955">
  <ele>397.34</ele>
  <time>2026-09-01T19:55:21Z</time>
  <course>121.02</course>
  <speed>35.54744575915406</speed>
  <fix>3d</fix>
</trkpt>
<trkpt lat="-27.2720252" lon="151.2908635">
  <ele>397.02</ele>
  <time>2026-09-01T19:55:21Z</time>
  <course>116.89</course>
  <speed>35.03</speed>
  <fix>3d</fix>
</trkpt>
<trkpt lat="-27.2720935" lon="151.2909838">
  <ele>397.48</ele>
  <time>2026-09-01T19:55:21Z</time>
  <course>124.92</course>
  <speed>35.67705284913539</speed>
  <fix>3d</fix>
</trkpt>
<trkpt lat="-27.2720566" lon="151.2909254">
  <ele>397.27</ele>
  <time>2026-09-01T19:55:21Z</time>
  <course>122.52</course>
  <speed>35.42</speed>
  <fix>3d</fix>
</trkpt>
<trkpt lat="-27.272114" lon="151.2910115">
  <ele>397.62</ele>
  <time>2026-09-01T19:55:21Z</time>
  <course>128.84</course>
  <speed>35.76714833474986</speed>
  <fix>3d</fix>
</trkpt>
<trkpt lat="-27.2720566" lon="151.2909254">
  <ele>397.27</ele>
  <time>2026-09-01T19:55:21Z</time>
  <course>122.52</course>
  <speed>35.42</speed>
  <fix>3d</fix>
</trkpt>
<trkpt lat="-27.2721358" lon="151.2910382">
  <ele>397.77</ele>
  <time>2026-09-01T19:55:21Z</time>
  <course>132.85</course>
  <speed>35.819537964636005</speed>
  <fix>3d</fix>
</trkpt>
<trkpt lat="-27.2720936" lon="151.2909841">
  <ele>397.53</ele>
  <time>2026-09-01T19:55:21Z</time>
  <course>128.23</course>
  <speed>35.7</speed>
  <fix>3d</fix>
</trkpt>
<trkpt lat="-27.2721588" lon="151.2910636">
  <ele>397.92</ele>
  <time>2026-09-01T19:55:21Z</time>
  <course>136.87</course>
  <speed>35.82318383393637</speed>
  <fix>3d</fix>
</trkpt>
<trkpt lat="-27.2720936" lon="151.2909841">
  <ele>397.53</ele>
  <time>2026-09-01T19:55:21Z</time>
  <course>128.23</course>
  <speed>35.7</speed>
  <fix>3d</fix>
</trkpt>
<trkpt lat="-27.2721829" lon="151.2910876">
  <ele>398.07</ele>
  <time>2026-09-01T19:55:21Z</time>
  <course>140.8</course>
  <speed>35.785374107308144</speed>
  <fix>3d</fix>
</trkpt>
<trkpt lat="-27.2721359" lon="151.2910385">
  <ele>397.81</ele>
  <time>2026-09-01T19:55:21Z</time>
  <course>134.03</course>
  <speed>35.85</speed>
  <fix>3d</fix>
</trkpt>
<trkpt lat="-27.2722079" lon="151.2911102">
  <ele>398.23</ele>
  <time>2026-09-01T19:55:21Z</time>
  <course>144.71</course>
  <speed>35.71649478882271</speed>
  <fix>3d</fix>
</trkpt>
<trkpt lat="-27.2721359" lon="151.2910385">
  <ele>397.81</ele>
  <time>2026-09-01T19:55:21Z</time>
  <course>134.03</course>
  <speed>35.85</speed>
  <fix>3d</fix>
</trkpt>
<trkpt lat="-27.2722339" lon="151.2911313">
  <ele>398.39</ele>
  <time>2026-09-01T19:55:21Z</time>
  <course>148.57</course>
  <speed>35.60551923508489</speed>
  <fix>3d</fix>
</trkpt>
<trkpt lat="-27.2721829" lon="151.2910879">
  <ele>398.11</ele>
  <time>2026-09-01T19:55:21Z</time>
  <course>139.84</course>
  <speed>35.84</speed>
  <fix>3d</fix>
</trkpt>
<trkpt lat="-27.2722607" lon="151.2911508">
  <ele>398.55</ele>
  <time>2026-09-01T19:55:21Z</time>
  <course>152.44</course>
  <speed>35.45860262334092</speed>
  <fix>3d</fix>
</trkpt>
<trkpt lat="-27.2721829" lon="151.2910879">
  <ele>398.11</ele>
  <time>2026-09-01T19:55:21Z</time>
  <course>139.84</course>
  <speed>35.84</speed>
  <fix>3d</fix>
</trkpt>
<trkpt lat="-27.2722882" lon="151.2911688">
  <ele>398.71</ele>
  <time>2026-09-01T19:55:21Z</time>
  <course>156.18</course>
  <speed>35.27704210956469</speed>
  <fix>3d</fix>
</trkpt>
<trkpt lat="-27.272234" lon="151.2911317">
  <ele>398.41</ele>
  <time>2026-09-01T19:55:21Z</time>
  <course>145.59</course>
  <speed>35.66</speed>
  <fix>3d</fix>
</trkpt>
<trkpt lat="-27.2723163" lon="151.2911851">
  <ele>398.87</ele>
  <time>2026-09-01T19:55:21Z</time>
  <course>159.87</course>
  <speed>35.06848442690388</speed>
  <fix>3d</fix>
</trkpt>
<trkpt lat="-27.272234" lon="151.2911317">
  <ele>398.41</ele>
  <time>2026-09-01T19:55:21Z</time>
  <course>145.59</course>
  <speed>35.66</speed>
  <fix>3d</fix>
</trkpt>
<trkpt lat="-27.2723447" lon="151.2911997">
  <ele>399.03</ele>
  <time>2026-09-01T19:55:21Z</time>
  <course>163.54</course>
  <speed>34.831659449414694</speed>
  <fix>3d</fix>
</trkpt>
<trkpt lat="-27.2722883" lon="151.2911692">
  <ele>398.73</ele>
  <time>2026-09-01T19:55:21Z</time>
  <course>151.22</course>
  <speed>35.34</speed>
  <fix>3d</fix>
</trkpt>
<trkpt lat="-27.2723736" lon="151.2912128">
  <ele>399.18</ele>
  <time>2026-09-01T19:55:21Z</time>
  <course>167.29</course>
  <speed>34.556465386378854</speed>
  <fix>3d</fix>
</trkpt>
<trkpt lat="-27.2722883" lon="151.2911692">
  <ele>398.73</ele>
  <time>2026-09-01T19:55:21Z</time>
  <course>151.22</course>
  <speed>35.34</speed>
  <fix>3d</fix>
</trkpt>
<trkpt lat="-27.2724028" lon="151.2912243">
  <ele>399.33</ele>
  <time>2026-09-01T19:55:21Z</time>
  <course>170.81</course>
  <speed>34.256412538384694</speed>
  <fix>3d</fix>
</trkpt>
<trkpt lat="-27.272345" lon="151.2912003">
  <ele>399.04</ele>
  <time>2026-09-01T19:55:21Z</time>
  <course>156.73</course>
  <speed>34.9</speed>
  <fix>3d</fix>
</trkpt>
<trkpt lat="-27.2724322" lon="151.2912341">
  <ele>399.47</ele>
  <time>2026-09-01T19:55:21Z</time>
  <course>174.31</course>
  <speed>33.92913939374237</speed>
  <fix>3d</fix>
</trkpt>
<trkpt lat="-27.272345" lon="151.2912003">
  <ele>399.04</ele>
  <time>2026-09-01T19:55:21Z</time>
  <course>156.73</course>
  <speed>34.9</speed>
  <fix>3d</fix>
</trkpt>
<trkpt lat="-27.2724622" lon="151.2912424">
  <ele>399.61</ele>
  <time>2026-09-01T19:55:21Z</time>
  <course>177.69</course>
  <speed>33.57978111900076</speed>
  <fix>3d</fix>
</trkpt>
<trkpt lat="-27.2724033" lon="151.2912249">
  <ele>399.34</ele>
  <time>2026-09-01T19:55:21Z</time>
  <course>162.15</course>
  <speed>34.33</speed>
  <fix>3d</fix>
</trkpt>
<trkpt lat="-27.2724917" lon="151.291249">
  <ele>399.75</ele>
  <time>2026-09-01T19:55:21Z</time>
  <course>180.98</course>
  <speed>33.217936419952395</speed>
  <fix>3d</fix>
</trkpt>
<trkpt lat="-27.2724033" lon="151.2912249">
  <ele>399.34</ele>
  <time>2026-09-01T19:55:21Z</time>
  <course>162.15</course>
  <speed>34.33</speed>
  <fix>3d</fix>
</trkpt>
<trkpt lat="-27.2725209" lon="151.2912542">
  <ele>399.87</ele>
  <time>2026-09-01T19:55:21Z</time>
  <course>184.11</course>
  <speed>32.84270999780621</speed>
  <fix>3d</fix>
</trkpt>
<trkpt lat="-27.2724622" lon="151.2912428">
  <ele>399.62</ele>
  <time>2026-09-01T19:55:21Z</time>
  <course>167.39</course>
  <speed>33.67</speed>
  <fix>3d</fix>
</trkpt>
<trkpt lat="-27.27255" lon="151.2912579">
  <ele>399.99</ele>
  <time>2026-09-01T19:55:21Z</time>
  <course>187.21</course>
  <speed>32.43988440176691</speed>
  <fix>3d</fix>
</trkpt>
<trkpt lat="-27.2724622" lon="151.2912428">
  <ele>399.62</ele>
  <time>2026-09-01T19:55:21Z</time>
  <course>167.39</course>
  <speed>33.67</speed>
  <fix>3d</fix>
</trkpt>
<trkpt lat="-27.2725787" lon="151.2912602">
  <ele>400.09</ele>
  <time>2026-09-01T19:55:21Z</time>
  <course>190.2</course>
  <speed>32.02850293098321</speed>
  <fix>3d</fix>
</trkpt>
<trkpt lat="-27.2725211" lon="151.2912547">
  <ele>399.86</ele>
  <time>2026-09-01T19:55:21Z</time>
  <course>172.35</course>
  <speed>32.94</speed>
  <fix>3d</fix>
</trkpt>
<trkpt lat="-27.2726072" lon="151.2912613">
  <ele>400.19</ele>
  <time>2026-09-01T19:55:21Z</time>
  <course>192.99</course>
  <speed>31.6017230542893</speed>
  <fix>3d</fix>
</trkpt>
<trkpt lat="-27.2725211" lon="151.2912547">
  <ele>399.86</ele>
  <time>2026-09-01T19:55:21Z</time>
  <course>172.35</course>
  <speed>32.94</speed>
  <fix>3d</fix>
</trkpt>
<trkpt lat="-27.2726352" lon="151.2912611">
  <ele>400.26</ele>
  <time>2026-09-01T19:55:21Z</time>
  <course>195.66</course>
  <speed>31.190780689171604</speed>
  <fix>3d</fix>
</trkpt>
<trkpt lat="-27.2725794" lon="151.2912607">
  <ele>400.07</ele>
  <time>2026-09-01T19:55:21Z</time>
  <course>177.05</course>
  <speed>32.14</speed>
  <fix>3d</fix>
</trkpt>
<trkpt lat="-27.2726629" lon="151.2912598">
  <ele>400.32</ele>
  <time>2026-09-01T19:55:21Z</time>
  <course>198.2</course>
  <speed>30.768719505367784</speed>
  <fix>3d</fix>
</trkpt>
<trkpt lat="-27.2725794" lon="151.2912607">
  <ele>400.07</ele>
  <time>2026-09-01T19:55:21Z</time>
  <course>177.05</course>
  <speed>32.14</speed>
  <fix>3d</fix>
</trkpt>
<trkpt lat="-27.2726903" lon="151.2912574">
  <ele>400.36</ele>
  <time>2026-09-01T19:55:21Z</time>
  <course>200.71</course>
  <speed>30.350790763998226</speed>
  <fix>3d</fix>
</trkpt>
<trkpt lat="-27.2726365" lon="151.2912615">
  <ele>400.22</ele>
  <time>2026-09-01T19:55:21Z</time>
  <course>181.43</course>
  <speed>31.32</speed>
  <fix>3d</fix>
</trkpt>
<trkpt lat="-27.2727171" lon="151.2912542">
  <ele>400.38</ele>
  <time>2026-09-01T19:55:21Z</time>
  <course>203.09</course>
  <speed>29.931242874294412</speed>
  <fix>3d</fix>
</trkpt>
<trkpt lat="-27.2726365" lon="151.2912615">
  <ele>400.22</ele>
  <time>2026-09-01T19:55:21Z</time>
  <course>181.43</course>
  <speed>31.32</speed>
  <fix>3d</fix>
</trkpt>
<trkpt lat="-27.2727436" lon="151.2912499">
  <ele>400.38</ele>
  <time>2026-09-01T19:55:21Z</time>
  <course>205.38</course>
  <speed>29.524601606118246</speed>
  <fix>3d</fix>
</trkpt>
<trkpt lat="-27.2726919" lon="151.2912579">
  <ele>400.31</ele>
  <time>2026-09-01T19:55:21Z</time>
  <course>185.47</course>
  <speed>30.49</speed>
  <fix>3d</fix>
</trkpt>
<trkpt lat="-27.2727695" lon="151.2912447">
  <ele>400.35</ele>
  <time>2026-09-01T19:55:21Z</time>
  <course>207.58</course>
  <speed>29.11962911851729</speed>
  <fix>3d</fix>
</trkpt>
<trkpt lat="-27.2726919" lon="151.2912579">
  <ele>400.31</ele>
  <time>2026-09-01T19:55:21Z</time>
  <course>185.47</course>
  <speed>30.49</speed>
  <fix>3d</fix>
</trkpt>
<trkpt lat="-27.272795" lon="151.2912388">
  <ele>400.3</ele>
  <time>2026-09-01T19:55:21Z</time>
  <course>209.77</course>
  <speed>28.72298208752009</speed>
  <fix>3d</fix>
</trkpt>
<trkpt lat="-27.2727455" lon="151.2912501">
  <ele>400.32</ele>
  <time>2026-09-01T19:55:21Z</time>
  <course>189.24</course>
  <speed>29.67</speed>
  <fix>3d</fix>
</trkpt>
<trkpt lat="-27.2728199" lon="151.291232">
  <ele>400.23</ele>
  <time>2026-09-01T19:55:21Z</time>
  <course>211.9</course>
  <speed>28.32681591707758</speed>
  <fix>3d</fix>
</trkpt>
<trkpt lat="-27.2727455" lon="151.2912501">
  <ele>400.32</ele>
  <time>2026-09-01T19:55:21Z</time>
  <course>189.24</course>
  <speed>29.67</speed>
  <fix>3d</fix>
</trkpt>
<trkpt lat="-27.2728444" lon="151.2912245">
  <ele>400.13</ele>
  <time>2026-09-01T19:55:21Z</time>
  <course>214.02</course>
  <speed>27.92720000286459</speed>
  <fix>3d</fix>
</trkpt>
<trkpt lat="-27.272797" lon="151.2912387">
  <ele>400.24</ele>
  <time>2026-09-01T19:55:21Z</time>
  <course>192.81</course>
  <speed>28.86</speed>
  <fix>3d</fix>
</trkpt>
<trkpt lat="-27.2728683" lon="151.2912163">
  <ele>400.01</ele>
  <time>2026-09-01T19:55:21Z</time>
  <course>216.12</course>
  <speed>27.541243617527513</speed>
  <fix>3d</fix>
</trkpt>
<trkpt lat="-27.272797" lon="151.2912387">
  <ele>400.24</ele>
  <time>2026-09-01T19:55:21Z</time>
  <course>192.81</course>
  <speed>28.86</speed>
  <fix>3d</fix>
</trkpt>
<trkpt lat="-27.2728916" lon="151.2912074">
  <ele>399.87</ele>
  <time>2026-09-01T19:55:21Z</time>
  <course>218.18</course>
  <speed>27.15445635618581</speed>
  <fix>3d</fix>
</trkpt>
<trkpt lat="-27.2728465" lon="151.2912243">
  <ele>400.07</ele>
  <time>2026-09-01T19:55:21Z</time>
  <course>196.29</course>
  <speed>28.06</speed>
  <fix>3d</fix>
</trkpt>
<trkpt lat="-27.2729142" lon="151.291198">
  <ele>399.71</ele>
  <time>2026-09-01T19:55:21Z</time>
  <course>220.25</course>
  <speed>26.772420510667317</speed>
  <fix>3d</fix>
</trkpt>
<trkpt lat="-27.2728465" lon="151.2912243">
  <ele>400.07</ele>
  <time>2026-09-01T19:55:21Z</time>
  <course>196.29</course>
  <speed>28.06</speed>
  <fix>3d</fix>
</trkpt>
<trkpt lat="-27.2729364" lon="151.2911879">
  <ele>399.52</ele>
  <time>2026-09-01T19:55:21Z</time>
  <course>222.37</course>
  <speed>26.39260881383271</speed>
  <fix>3d</fix>
</trkpt>
<trkpt lat="-27.2728937" lon="151.2912071">
  <ele>399.81</ele>
  <time>2026-09-01T19:55:21Z</time>
  <course>199.72</course>
  <speed>27.27</speed>
  <fix>3d</fix>
</trkpt>
<trkpt lat="-27.272958" lon="151.2911771">
  <ele>399.32</ele>
  <time>2026-09-01T19:55:21Z</time>
  <course>224.54</course>
  <speed>26.00687024614842</speed>
  <fix>3d</fix>
</trkpt>
<trkpt lat="-27.2728937" lon="151.2912071">
  <ele>399.81</ele>
  <time>2026-09-01T19:55:21Z</time>
  <course>199.72</course>
  <speed>27.27</speed>
  <fix>3d</fix>
</trkpt>
<trkpt lat="-27.2729789" lon="151.2911657">
  <ele>399.1</ele>
  <time>2026-09-01T19:55:21Z</time>
  <course>226.7</course>
  <speed>25.621172884940297</speed>
  <fix>3d</fix>
</trkpt>
<trkpt lat="-27.2729386" lon="151.2911872">
  <ele>399.47</ele>
  <time>2026-09-01T19:55:21Z</time>
  <course>203.22</course>
  <speed>26.5</speed>
  <fix>3d</fix>
</trkpt>
<trkpt lat="-27.2729994" lon="151.2911536">
  <ele>398.87</ele>
  <time>2026-09-01T19:55:21Z</time>
  <course>228.96</course>
  <speed>25.237212603613735</speed>
  <fix>3d</fix>
</trkpt>
<trkpt lat="-27.2729386" lon="151.2911872">
  <ele>399.47</ele>
  <time>2026-09-01T19:55:21Z</time>
  <course>203.22</course>
  <speed>26.5</speed>
  <fix>3d</fix>
</trkpt>
<trkpt lat="-27.273019" lon="151.2911411">
  <ele>398.62</ele>
  <time>2026-09-01T19:55:21Z</time>
  <course>231.23</course>
  <speed>24.848511021789612</speed>
  <fix>3d</fix>
</trkpt>
<trkpt lat="-27.2729811" lon="151.2911648">
  <ele>399.05</ele>
  <time>2026-09-01T19:55:21Z</time>
  <course>206.92</course>
  <speed>25.72</speed>
  <fix>3d</fix>
</trkpt>
<trkpt lat="-27.2730379" lon="151.2911279">
  <ele>398.37</ele>
  <time>2026-09-01T19:55:21Z</time>
  <course>233.49</course>
  <speed>24.467547895120184</speed>
  <fix>3d</fix>
</trkpt>
<trkpt lat="-27.2729811" lon="151.2911648">
  <ele>399.05</ele>
  <time>2026-09-01T19:55:21Z</time>
  <course>206.92</course>
  <speed>25.72</speed>
  <fix>3d</fix>
</trkpt>
<trkpt lat="-27.273056" lon="151.2911142">
  <ele>398.11</ele>
  <time>2026-09-01T19:55:21Z</time>
  <course>235.75</course>
  <speed>24.088696519322088</speed>
  <fix>3d</fix>
</trkpt>
<trkpt lat="-27.2730209" lon="151.2911401">
  <ele>398.58</ele>
  <time>2026-09-01T19:55:21Z</time>
  <course>210.87</course>
  <speed>24.94</speed>
  <fix>3d</fix>
</trkpt>
<trkpt lat="-27.2730735" lon="151.2911">
  <ele>397.84</ele>
  <time>2026-09-01T19:55:21Z</time>
  <course>238.04</course>
  <speed>23.704313953371443</speed>
  <fix>3d</fix>
</trkpt>
<trkpt lat="-27.2730209" lon="151.2911401">
  <ele>398.58</ele>
  <time>2026-09-01T19:55:21Z</time>
  <course>210.87</course>
  <speed>24.94</speed>
  <fix>3d</fix>
</trkpt>
<trkpt lat="-27.2730901" lon="151.2910852">
  <ele>397.56</ele>
  <time>2026-09-01T19:55:21Z</time>
  <course>240.4</course>
  <speed>23.332745230683848</speed>
  <fix>3d</fix>
</trkpt>
<trkpt lat="-27.273058" lon="151.2911131">
  <ele>398.07</ele>
  <time>2026-09-01T19:55:21Z</time>
  <course>215.07</course>
  <speed>24.17</speed>
  <fix>3d</fix>
</trkpt>
<trkpt lat="-27.273106" lon="151.29107">
  <ele>397.28</ele>
  <time>2026-09-01T19:55:21Z</time>
  <course>242.68</course>
  <speed>22.95544597693541</speed>
  <fix>3d</fix>
</trkpt>
<trkpt lat="-27.273058" lon="151.2911131">
  <ele>398.07</ele>
  <time>2026-09-01T19:55:21Z</time>
  <course>215.07</course>
  <speed>24.17</speed>
  <fix>3d</fix>
</trkpt>
<trkpt lat="-27.2731212" lon="151.2910542">
  <ele>397.0</ele>
  <time>2026-09-01T19:55:21Z</time>
  <course>244.96</course>
  <speed>22.595169837821537</speed>
  <fix>3d</fix>
</trkpt>
<trkpt lat="-27.2730921" lon="151.2910839">
  <ele>397.53</ele>
  <time>2026-09-01T19:55:21Z</time>
  <course>219.48</course>
  <speed>23.4</speed>
  <fix>3d</fix>
</trkpt>
<trkpt lat="-27.2731355" lon="151.2910381">
  <ele>396.72</ele>
  <time>2026-09-01T19:55:21Z</time>
  <course>247.18</course>
  <speed>22.237931558488075</speed>
  <fix>3d</fix>
</trkpt>
<trkpt lat="-27.2730921" lon="151.2910839">
  <ele>397.53</ele>
  <time>2026-09-01T19:55:21Z</time>
  <course>219.48</course>
  <speed>23.4</speed>
  <fix>3d</fix>
</trkpt>
<trkpt lat="-27.273149" lon="151.2910216">
  <ele>396.45</ele>
  <time>2026-09-01T19:55:21Z</time>
  <course>249.38</course>
  <speed>21.901920007159188</speed>
  <fix>3d</fix>
</trkpt>
<trkpt lat="-27.2731229" lon="151.2910529">
  <ele>396.98</ele>
  <time>2026-09-01T19:55:21Z</time>
  <course>224.08</course>
  <speed>22.66</speed>
  <fix>3d</fix>
</trkpt>
<trkpt lat="-27.2731616" lon="151.2910047">
  <ele>396.17</ele>
  <time>2026-09-01T19:55:21Z</time>
  <course>251.57</course>
  <speed>21.566327921090323</speed>
  <fix>3d</fix>
</trkpt>
<trkpt lat="-27.2731229" lon="151.2910529">
  <ele>396.98</ele>
  <time>2026-09-01T19:55:21Z</time>
  <course>224.08</course>
  <speed>22.66</speed>
  <fix>3d</fix>
</trkpt>
<trkpt lat="-27.2731735" lon="151.2909876">
  <ele>395.9</ele>
  <time>2026-09-01T19:55:21Z</time>
  <course>253.73</course>
  <speed>21.250235292814995</speed>
  <fix>3d</fix>
</trkpt>
<trkpt lat="-27.2731506" lon="151.2910202">
  <ele>396.44</ele>
  <time>2026-09-01T19:55:21Z</time>
  <course>228.74</course>
  <speed>21.96</speed>
  <fix>3d</fix>
</trkpt>
<trkpt lat="-27.2731846" lon="151.2909701">
  <ele>395.64</ele>
  <time>2026-09-01T19:55:21Z</time>
  <course>255.83</course>
  <speed>20.93248671324074</speed>
  <fix>3d</fix>
</trkpt>
<trkpt lat="-27.2731506" lon="151.2910202">
  <ele>396.44</ele>
  <time>2026-09-01T19:55:21Z</time>
  <course>228.74</course>
  <speed>21.96</speed>
  <fix>3d</fix>
</trkpt>
<trkpt lat="-27.2731949" lon="151.2909525">
  <ele>395.38</ele>
  <time>2026-09-01T19:55:21Z</time>
  <course>257.84</course>
  <speed>20.642453827004193</speed>
  <fix>3d</fix>
</trkpt>
<trkpt lat="-27.273175" lon="151.2909862">
  <ele>395.9</ele>
  <time>2026-09-01T19:55:21Z</time>
  <course>233.44</course>
  <speed>21.3</speed>
  <fix>3d</fix>
</trkpt>
<trkpt lat="-27.2732044" lon="151.2909346">
  <ele>395.13</ele>
  <time>2026-09-01T19:55:21Z</time>
  <course>259.81</course>
  <speed>20.354176475603232</speed>
  <fix>3d</fix>
</trkpt>
<trkpt lat="-27.273175" lon="151.2909862">
  <ele>395.9</ele>
  <time>2026-09-01T19:55:21Z</time>
  <course>233.44</course>
  <speed>21.3</speed>
  <fix>3d</fix>
</trkpt>
<trkpt lat="-27.2732131" lon="151.2909166">
  <ele>394.89</ele>
  <time>2026-09-01T19:55:21Z</time>
  <course>261.7</course>
  <speed>20.09056743847719</speed>
  <fix>3d</fix>
</trkpt>
<trkpt lat="-27.2731961" lon="151.2909512">
  <ele>395.39</ele>
  <time>2026-09-01T19:55:21Z</time>
  <course>238.16</course>
  <speed>20.68</speed>
  <fix>3d</fix>
</trkpt>
<trkpt lat="-27.2732211" lon="151.2908984">
  <ele>394.66</ele>
  <time>2026-09-01T19:55:21Z</time>
  <course>263.53</course>
  <speed>19.840022681438647</speed>
  <fix>3d</fix>
</trkpt>
<trkpt lat="-27.2731961" lon="151.2909512">
  <ele>395.39</ele>
  <time>2026-09-01T19:55:21Z</time>
  <course>238.16</course>
  <speed>20.68</speed>
  <fix>3d</fix>
</trkpt>
<trkpt lat="-27.2732284" lon="151.2908803">
  <ele>394.43</ele>
  <time>2026-09-01T19:55:21Z</time>
  <course>265.22</course>
  <speed>19.61593484899458</speed>
  <fix>3d</fix>
</trkpt>
<trkpt lat="-27.2732142" lon="151.2909154">
  <ele>394.91</ele>
  <time>2026-09-01T19:55:21Z</time>
  <course>242.72</course>
  <speed>20.13</speed>
  <fix>3d</fix>
</trkpt>
<trkpt lat="-27.273235" lon="151.290862">
  <ele>394.22</ele>
  <time>2026-09-01T19:55:21Z</time>
  <course>266.79</course>
  <speed>19.40497358926314</speed>
  <fix>3d</fix>
</trkpt>
<trkpt lat="-27.2732142" lon="151.2909154">
  <ele>394.91</ele>
  <time>2026-09-01T19:55:21Z</time>
  <course>242.72</course>
  <speed>20.13</speed>
  <fix>3d</fix>
</trkpt>
<trkpt lat="-27.273241" lon="151.2908436">
  <ele>394.0</ele>
  <time>2026-09-01T19:55:21Z</time>
  <course>268.32</course>
  <speed>19.209023921063768</speed>
  <fix>3d</fix>
</trkpt>
<trkpt lat="-27.2732293" lon="151.290879">
  <ele>394.46</ele>
  <time>2026-09-01T19:55:21Z</time>
  <course>247.01</course>
  <speed>19.65</speed>
  <fix>3d</fix>
</trkpt>
<trkpt lat="-27.2732464" lon="151.2908252">
  <ele>393.8</ele>
  <time>2026-09-01T19:55:21Z</time>
  <course>269.8</course>
  <speed>19.02817384827036</speed>
  <fix>3d</fix>
</trkpt>
<trkpt lat="-27.2732293" lon="151.290879">
  <ele>394.46</ele>
  <time>2026-09-01T19:55:21Z</time>
  <course>247.01</course>
  <speed>19.65</speed>
  <fix>3d</fix>
</trkpt>
<trkpt lat="-27.2732513" lon="151.2908066">
  <ele>393.6</ele>
  <time>2026-09-01T19:55:21Z</time>
  <course>271.19</course>
  <speed>18.86301407516837</speed>
  <fix>3d</fix>
</trkpt>
<trkpt lat="-27.2732418" lon="151.2908423">
  <ele>394.03</ele>
  <time>2026-09-01T19:55:21Z</time>
  <course>250.99</course>
  <speed>19.23</speed>
  <fix>3d</fix>
</trkpt>
<trkpt lat="-27.2732556" lon="151.2907882">
  <ele>393.41</ele>
  <time>2026-09-01T19:55:21Z</time>
  <course>272.56</course>
  <speed>18.71908117403202</speed>
  <fix>3d</fix>
</trkpt>
<trkpt lat="-27.2732418" lon="151.2908423">
  <ele>394.03</ele>
  <time>2026-09-01T19:55:21Z</time>
  <course>250.99</course>
  <speed>19.23</speed>
  <fix>3d</fix>
</trkpt>
<trkpt lat="-27.2732594" lon="151.2907698">
  <ele>393.22</ele>
  <time>2026-09-01T19:55:21Z</time>
  <course>273.88</course>
  <speed>18.578266872881333</speed>
  <fix>3d</fix>
</trkpt>
<trkpt lat="-27.2732519" lon="151.2908055">
  <ele>393.64</ele>
  <time>2026-09-01T19:55:21Z</time>
  <course>254.65</course>
  <speed>18.88</speed>
  <fix>3d</fix>
</trkpt>
<trkpt lat="-27.2732627" lon="151.2907514">
  <ele>393.04</ele>
  <time>2026-09-01T19:55:21Z</time>
  <course>275.1</course>
  <speed>18.46571146747398</speed>
  <fix>3d</fix>
</trkpt>
<trkpt lat="-27.2732519" lon="151.2908055">
  <ele>393.64</ele>
  <time>2026-09-01T19:55:21Z</time>
  <course>254.65</course>
  <speed>18.88</speed>
  <fix>3d</fix>
</trkpt>
<trkpt lat="-27.2732656" lon="151.290733">
  <ele>392.86</ele>
  <time>2026-09-01T19:55:21Z</time>
  <course>276.29</course>
  <speed>18.352179707053875</speed>
  <fix>3d</fix>
</trkpt>
<trkpt lat="-27.2732599" lon="151.2907686">
  <ele>393.26</ele>
  <time>2026-09-01T19:55:21Z</time>
  <course>257.99</course>
  <speed>18.6</speed>
  <fix>3d</fix>
</trkpt>
<trkpt lat="-27.273268" lon="151.2907147">
  <ele>392.7</ele>
  <time>2026-09-01T19:55:21Z</time>
  <course>277.44</course>
  <speed>18.252479283648018</speed>
  <fix>3d</fix>
</trkpt>
<trkpt lat="-27.2732599" lon="151.2907686">
  <ele>393.26</ele>
  <time>2026-09-01T19:55:21Z</time>
  <course>257.99</course>
  <speed>18.6</speed>
  <fix>3d</fix>
</trkpt>
<trkpt lat="-27.27327" lon="151.2906963">
  <ele>392.54</ele>
  <time>2026-09-01T19:55:21Z</time>
  <course>278.48</course>
  <speed>18.15827359635271</speed>
  <fix>3d</fix>
</trkpt>
<trkpt lat="-27.2732659" lon="151.2907319">
  <ele>392.91</ele>
  <time>2026-09-01T19:55:21Z</time>
  <course>261.08</course>
  <speed>18.36</speed>
  <fix>3d</fix>
</trkpt>
<trkpt lat="-27.2732716" lon="151.2906781">
  <ele>392.39</ele>
  <time>2026-09-01T19:55:21Z</time>
  <course>279.53</course>
  <speed>18.076576003214768</speed>
  <fix>3d</fix>
</trkpt>
<trkpt lat="-27.2732659" lon="151.2907319">
  <ele>392.91</ele>
  <time>2026-09-01T19:55:21Z</time>
  <course>261.08</course>
  <speed>18.36</speed>
  <fix>3d</fix>
</trkpt>
<trkpt lat="-27.2732728" lon="151.2906599">
  <ele>392.24</ele>
  <time>2026-09-01T19:55:21Z</time>
  <course>280.57</course>
  <speed>17.994888163031188</speed>
  <fix>3d</fix>
</trkpt>
<trkpt lat="-27.2732702" lon="151.2906953">
  <ele>392.59</ele>
  <time>2026-09-01T19:55:21Z</time>
  <course>263.95</course>
  <speed>18.16</speed>
  <fix>3d</fix>
</trkpt>
<trkpt lat="-27.2732736" lon="151.2906417">
  <ele>392.1</ele>
  <time>2026-09-01T19:55:21Z</time>
  <course>281.59</course>
  <speed>17.924067618707536</speed>
  <fix>3d</fix>
</trkpt>
<trkpt lat="-27.2732702" lon="151.2906953">
  <ele>392.59</ele>
  <time>2026-09-01T19:55:21Z</time>
  <course>263.95</course>
  <speed>18.16</speed>
  <fix>3d</fix>
</trkpt>
<trkpt lat="-27.273274" lon="151.2906236">
  <ele>391.97</ele>
  <time>2026-09-01T19:55:21Z</time>
  <course>282.55</course>
  <speed>17.86269016693734</speed>
  <fix>3d</fix>
</trkpt>
<trkpt lat="-27.2732728" lon="151.2906588">
  <ele>392.29</ele>
  <time>2026-09-01T19:55:21Z</time>
  <course>266.66</course>
  <speed>18.0</speed>
  <fix>3d</fix>
</trkpt>
<trkpt lat="-27.2732741" lon="151.2906055">
  <ele>391.85</ele>
  <time>2026-09-01T19:55:21Z</time>
  <course>283.53</course>
  <speed>17.810101066529636</speed>
  <fix>3d</fix>
</trkpt>
<trkpt lat="-27.2732728" lon="151.2906588">
  <ele>392.29</ele>
  <time>2026-09-01T19:55:21Z</time>
  <course>266.66</course>
  <speed>18.0</speed>
  <fix>3d</fix>
</trkpt>
<trkpt lat="-27.273274" lon="151.2905875">
  <ele>391.74</ele>
  <time>2026-09-01T19:55:21Z</time>
  <course>284.41</course>
  <speed>17.745455756333786</speed>
  <fix>3d</fix>
</trkpt>
<trkpt lat="-27.273274" lon="151.2906226">
  <ele>392.03</ele>
  <time>2026-09-01T19:55:21Z</time>
  <course>269.23</course>
  <speed>17.87</speed>
  <fix>3d</fix>
</trkpt>
<trkpt lat="-27.2732734" lon="151.2905694">
  <ele>391.64</ele>
  <time>2026-09-01T19:55:21Z</time>
  <course>285.24</course>
  <speed>17.698545137948486</speed>
  <fix>3d</fix>
</trkpt>
<trkpt lat="-27.273274" lon="151.2906226">
  <ele>392.03</ele>
  <time>2026-09-01T19:55:21Z</time>
  <course>269.23</course>
  <speed>17.87</speed>
  <fix>3d</fix>
</trkpt>
<trkpt lat="-27.2732725" lon="151.2905516">
  <ele>391.55</ele>
  <time>2026-09-01T19:55:21Z</time>
  <course>286.03</course>
  <speed>17.648164210478097</speed>
  <fix>3d</fix>
</trkpt>
<trkpt lat="-27.2732737" lon="151.2905867">
  <ele>391.8</ele>
  <time>2026-09-01T19:55:21Z</time>
  <course>271.69</course>
  <speed>17.75</speed>
  <fix>3d</fix>
</trkpt>
<trkpt lat="-27.2732712" lon="151.2905338">
  <ele>391.47</ele>
  <time>2026-09-01T19:55:21Z</time>
  <course>286.83</course>
  <speed>17.592364821137604</speed>
  <fix>3d</fix>
</trkpt>
<trkpt lat="-27.2732737" lon="151.2905867">
  <ele>391.8</ele>
  <time>2026-09-01T19:55:21Z</time>
  <course>271.69</course>
  <speed>17.75</speed>
  <fix>3d</fix>
</trkpt>
<trkpt lat="-27.2732697" lon="151.2905161">
  <ele>391.4</ele>
  <time>2026-09-01T19:55:21Z</time>
  <course>287.66</course>
  <speed>17.553566589157885</speed>
  <fix>3d</fix>
</trkpt>
<trkpt lat="-27.2732722" lon="151.290551">
  <ele>391.61</ele>
  <time>2026-09-01T19:55:21Z</time>
  <course>274.0</course>
  <speed>17.64</speed>
  <fix>3d</fix>
</trkpt>
<trkpt lat="-27.2732679" lon="151.2904986">
  <ele>391.34</ele>
  <time>2026-09-01T19:55:21Z</time>
  <course>288.48</course>
  <speed>17.51003426610011</speed>
  <fix>3d</fix>
</trkpt>
<trkpt lat="-27.2732722" lon="151.290551">
  <ele>391.61</ele>
  <time>2026-09-01T19:55:21Z</time>
  <course>274.0</course>
  <speed>17.64</speed>
  <fix>3d</fix>
</trkpt>
<trkpt lat="-27.2732658" lon="151.290481">
  <ele>391.29</ele>
  <time>2026-09-01T19:55:21Z</time>
  <course>289.24</course>
  <speed>17.471222052277852</speed>
  <fix>3d</fix>
</trkpt>
<trkpt lat="-27.2732693" lon="151.2905155">
  <ele>391.46</ele>
  <time>2026-09-01T19:55:21Z</time>
  <course>276.17</course>
  <speed>17.55</speed>
  <fix>3d</fix>
</trkpt>
<trkpt lat="-27.2732635" lon="151.2904636">
  <ele>391.24</ele>
  <time>2026-09-01T19:55:21Z</time>
  <course>289.97</course>
  <speed>17.428327515857625</speed>
  <fix>3d</fix>
</trkpt>
<trkpt lat="-27.2732693" lon="151.2905155">
  <ele>391.46</ele>
  <time>2026-09-01T19:55:21Z</time>
  <course>276.17</course>
  <speed>17.55</speed>
  <fix>3d</fix>
</trkpt>
<trkpt lat="-27.2732608" lon="151.2904462">
  <ele>391.21</ele>
  <time>2026-09-01T19:55:21Z</time>
  <course>290.68</course>
  <speed>17.399408035907427</speed>
  <fix>3d</fix>
</trkpt>
<trkpt lat="-27.2732654" lon="151.2904804">
  <ele>391.34</ele>
  <time>2026-09-01T19:55:21Z</time>
  <course>278.29</course>
  <speed>17.47</speed>
  <fix>3d</fix>
</trkpt>
<trkpt lat="-27.2732579" lon="151.2904287">
  <ele>391.19</ele>
  <time>2026-09-01T19:55:21Z</time>
  <course>291.39</course>
  <speed>17.36617689648473</speed>
  <fix>3d</fix>
</trkpt>
<trkpt lat="-27.2732654" lon="151.2904804">
  <ele>391.34</ele>
  <time>2026-09-01T19:55:21Z</time>
  <course>278.29</course>
  <speed>17.47</speed>
  <fix>3d</fix>
</trkpt>
<trkpt lat="-27.2732547" lon="151.2904115">
  <ele>391.17</ele>
  <time>2026-09-01T19:55:21Z</time>
  <course>292.04</course>
  <speed>17.326661536487634</speed>
  <fix>3d</fix>
</trkpt>
<trkpt lat="-27.2732603" lon="151.2904457">
  <ele>391.27</ele>
  <time>2026-09-01T19:55:21Z</time>
  <course>280.35</course>
  <speed>17.39</speed>
  <fix>3d</fix>
</trkpt>
<trkpt lat="-27.2732512" lon="151.2903944">
  <ele>391.16</ele>
  <time>2026-09-01T19:55:21Z</time>
  <course>292.63</course>
  <speed>17.297705050092627</speed>
  <fix>3d</fix>
</trkpt>
<trkpt lat="-27.2732603" lon="151.2904457">
  <ele>391.27</ele>
  <time>2026-09-01T19:55:21Z</time>
  <course>280.35</course>
  <speed>17.39</speed>
  <fix>3d</fix>
</trkpt>
<trkpt lat="-27.2732475" lon="151.2903774">
  <ele>391.15</ele>
  <time>2026-09-01T19:55:21Z</time>
  <course>293.29</course>
  <speed>17.26368732339647</speed>
  <fix>3d</fix>
</trkpt>
<trkpt lat="-27.2732541" lon="151.2904113">
  <ele>391.22</ele>
  <time>2026-09-01T19:55:21Z</time>
  <course>282.33</course>
  <speed>17.32</speed>
  <fix>3d</fix>
</trkpt>
<trkpt lat="-27.2732436" lon="151.2903605">
  <ele>391.15</ele>
  <time>2026-09-01T19:55:21Z</time>
  <course>294.03</course>
  <speed>17.22733873818008</speed>
  <fix>3d</fix>
</trkpt>
<trkpt lat="-27.2732541" lon="151.2904113">
  <ele>391.22</ele>
  <time>2026-09-01T19:55:21Z</time>
  <course>282.33</course>
  <speed>17.32</speed>
  <fix>3d</fix>
</trkpt>
<trkpt lat="-27.2732394" lon="151.2903438">
  <ele>391.16</ele>
  <time>2026-09-01T19:55:21Z</time>
  <course>294.72</course>
  <speed>17.193423161197423</speed>
  <fix>3d</fix>
</trkpt>
<trkpt lat="-27.273247" lon="151.2903772">
  <ele>391.21</ele>
  <time>2026-09-01T19:55:21Z</time>
  <course>284.25</course>
  <speed>17.25</speed>
  <fix>3d</fix>
</trkpt>
<trkpt lat="-27.273235" lon="151.2903271">
  <ele>391.19</ele>
  <time>2026-09-01T19:55:21Z</time>
  <course>295.36</course>
  <speed>17.15482730895301</speed>
  <fix>3d</fix>
</trkpt>
<trkpt lat="-27.273247" lon="151.2903772">
  <ele>391.21</ele>
  <time>2026-09-01T19:55:21Z</time>
  <course>284.25</course>
  <speed>17.25</speed>
  <fix>3d</fix>
</trkpt>
<trkpt lat="-27.2732303" lon="151.2903106">
  <ele>391.21</ele>
  <time>2026-09-01T19:55:21Z</time>
  <course>295.91</course>
  <speed>17.124616784033446</speed>
  <fix>3d</fix>
</trkpt>
<trkpt lat="-27.2732389" lon="151.2903436">
  <ele>391.22</ele>
  <time>2026-09-01T19:55:21Z</time>
  <course>286.18</course>
  <speed>17.18</speed>
  <fix>3d</fix>
</trkpt>
<trkpt lat="-27.2732255" lon="151.2902942">
  <ele>391.24</ele>
  <time>2026-09-01T19:55:21Z</time>
  <course>296.59</course>
  <speed>17.095695364623225</speed>
  <fix>3d</fix>
</trkpt>
<trkpt lat="-27.2732389" lon="151.2903436">
  <ele>391.22</ele>
  <time>2026-09-01T19:55:21Z</time>
  <course>286.18</course>
  <speed>17.18</speed>
  <fix>3d</fix>
</trkpt>
<trkpt lat="-27.2732203" lon="151.290278">
  <ele>391.27</ele>
  <time>2026-09-01T19:55:21Z</time>
  <course>297.29</course>
  <speed>17.049633427144407</speed>
  <fix>3d</fix>
</trkpt>
<trkpt lat="-27.2732298" lon="151.2903104">
  <ele>391.26</ele>
  <time>2026-09-01T19:55:21Z</time>
  <course>288.08</course>
  <speed>17.11</speed>
  <fix>3d</fix>
</trkpt>
<trkpt lat="-27.273215" lon="151.2902619">
  <ele>391.31</ele>
  <time>2026-09-01T19:55:21Z</time>
  <course>297.95</course>
  <speed>17.002782125287617</speed>
  <fix>3d</fix>
</trkpt>
<trkpt lat="-27.2732298" lon="151.2903104">
  <ele>391.26</ele>
  <time>2026-09-01T19:55:21Z</time>
  <course>288.08</course>
  <speed>17.11</speed>
  <fix>3d</fix>
</trkpt>
<trkpt lat="-27.2732094" lon="151.290246">
  <ele>391.35</ele>
  <time>2026-09-01T19:55:21Z</time>
  <course>298.64</course>
  <speed>16.9577032642985</speed>
  <fix>3d</fix>
</trkpt>
<trkpt lat="-27.2732198" lon="151.2902777">
  <ele>391.31</ele>
  <time>2026-09-01T19:55:21Z</time>
  <course>290.01</course>
  <speed>17.04</speed>
  <fix>3d</fix>
</trkpt>
<trkpt lat="-27.2732037" lon="151.2902303">
  <ele>391.4</ele>
  <time>2026-09-01T19:55:21Z</time>
  <course>299.29</course>
  <speed>16.917830830221703</speed>
  <fix>3d</fix>
</trkpt>
<trkpt lat="-27.2732198" lon="151.2902777">
  <ele>391.31</ele>
  <time>2026-09-01T19:55:21Z</time>
  <course>290.01</course>
  <speed>17.04</speed>
  <fix>3d</fix>
</trkpt>
<trkpt lat="-27.2731976" lon="151.2902147">
  <ele>391.45</ele>
  <time>2026-09-01T19:55:21Z</time>
  <course>299.97</course>
  <speed>16.878107121356944</speed>
  <fix>3d</fix>
</trkpt>
<trkpt lat="-27.2732089" lon="151.2902457">
  <ele>391.39</ele>
  <time>2026-09-01T19:55:21Z</time>
  <course>292.01</course>
  <speed>16.97</speed>
  <fix>3d</fix>
</trkpt>
<trkpt lat="-27.2731914" lon="151.2901993">
  <ele>391.51</ele>
  <time>2026-09-01T19:55:21Z</time>
  <course>300.64</course>
  <speed>16.83085262249064</speed>
  <fix>3d</fix>
</trkpt>
<trkpt lat="-27.2732089" lon="151.2902457">
  <ele>391.39</ele>
  <time>2026-09-01T19:55:21Z</time>
  <course>292.01</course>
  <speed>16.97</speed>
  <fix>3d</fix>
</trkpt>
<trkpt lat="-27.2731848" lon="151.290184">
  <ele>391.56</ele>
  <time>2026-09-01T19:55:21Z</time>
  <course>301.26</course>
  <speed>16.78921379934153</speed>
  <fix>3d</fix>
</trkpt>
<trkpt lat="-27.2731969" lon="151.2902143">
  <ele>391.47</ele>
  <time>2026-09-01T19:55:21Z</time>
  <course>294.06</course>
  <speed>16.89</speed>
  <fix>3d</fix>
</trkpt>
<trkpt lat="-27.2731781" lon="151.290169">
  <ele>391.62</ele>
  <time>2026-09-01T19:55:21Z</time>
  <course>301.92</course>
  <speed>16.753232523904156</speed>
  <fix>3d</fix>
</trkpt>
<trkpt lat="-27.2731969" lon="151.2902143">
  <ele>391.47</ele>
  <time>2026-09-01T19:55:21Z</time>
  <course>294.06</course>
  <speed>16.89</speed>
  <fix>3d</fix>
</trkpt>
<trkpt lat="-27.2731711" lon="151.2901541">
  <ele>391.67</ele>
  <time>2026-09-01T19:55:21Z</time>
  <course>302.63</course>
  <speed>16.71412576236041</speed>
  <fix>3d</fix>
</trkpt>
<trkpt lat="-27.2731841" lon="151.2901834">
  <ele>391.58</ele>
  <time>2026-09-01T19:55:21Z</time>
  <course>296.14</course>
  <speed>16.81</speed>
  <fix>3d</fix>
</trkpt>
<trkpt lat="-27.2731639" lon="151.2901393">
  <ele>391.72</ele>
  <time>2026-09-01T19:55:21Z</time>
  <course>303.38</course>
  <speed>16.672195416321152</speed>
  <fix>3d</fix>
</trkpt>
<trkpt lat="-27.2731841" lon="151.2901834">
  <ele>391.58</ele>
  <time>2026-09-01T19:55:21Z</time>
  <course>296.14</course>
  <speed>16.81</speed>
  <fix>3d</fix>
</trkpt>
<trkpt lat="-27.2731565" lon="151.2901248">
  <ele>391.78</ele>
  <time>2026-09-01T19:55:21Z</time>
  <course>304.13</course>
  <speed>16.632816959252573</speed>
  <fix>3d</fix>
</trkpt>
<trkpt lat="-27.2731703" lon="151.2901532">
  <ele>391.69</ele>
  <time>2026-09-01T19:55:21Z</time>
  <course>298.26</course>
  <speed>16.74</speed>
  <fix>3d</fix>
</trkpt>
<trkpt lat="-27.2731488" lon="151.2901104">
  <ele>391.84</ele>
  <time>2026-09-01T19:55:21Z</time>
  <course>304.85</course>
  <speed>16.594920909724156</speed>
  <fix>3d</fix>
</trkpt>
<trkpt lat="-27.2731703" lon="151.2901532">
  <ele>391.69</ele>
  <time>2026-09-01T19:55:21Z</time>
  <course>298.26</course>
  <speed>16.74</speed>
  <fix>3d</fix>
</trkpt>
<trkpt lat="-27.2731408" lon="151.2900961">
  <ele>391.9</ele>
  <time>2026-09-01T19:55:21Z</time>
  <course>305.63</course>
  <speed>16.563435633949858</speed>
  <fix>3d</fix>
</trkpt>
<trkpt lat="-27.2731556" lon="151.2901238">
  <ele>391.8</ele>
  <time>2026-09-01T19:55:21Z</time>
  <course>300.46</course>
  <speed>16.67</speed>
  <fix>3d</fix>
</trkpt>
<trkpt lat="-27.2731327" lon="151.2900822">
  <ele>391.96</ele>
  <time>2026-09-01T19:55:21Z</time>
  <course>306.34</course>
  <speed>16.535646343581494</speed>
  <fix>3d</fix>
</trkpt>
<trkpt lat="-27.2731556" lon="151.2901238">
  <ele>391.8</ele>
  <time>2026-09-01T19:55:21Z</time>
  <course>300.46</course>
  <speed>16.67</speed>
  <fix>3d</fix>
</trkpt>
<trkpt lat="-27.2731243" lon="151.2900684">
  <ele>392.01</ele>
  <time>2026-09-01T19:55:21Z</time>
  <course>307.06</course>
  <speed>16.50096966847706</speed>
  <fix>3d</fix>
</trkpt>
<trkpt lat="-27.27314" lon="151.2900952">
  <ele>391.91</ele>
  <time>2026-09-01T19:55:21Z</time>
  <course>302.72</course>
  <speed>16.61</speed>
  <fix>3d</fix>
</trkpt>
<trkpt lat="-27.2731156" lon="151.2900548">
  <ele>392.07</ele>
  <time>2026-09-01T19:55:21Z</time>
  <course>307.85</course>
  <speed>16.471095895537736</speed>
  <fix>3d</fix>
</trkpt>
<trkpt lat="-27.27314" lon="151.2900952">
  <ele>391.91</ele>
  <time>2026-09-01T19:55:21Z</time>
  <course>302.72</course>
  <speed>16.61</speed>
  <fix>3d</fix>
</trkpt>
<trkpt lat="-27.2731067" lon="151.2900415">
  <ele>392.14</ele>
  <time>2026-09-01T19:55:21Z</time>
  <course>308.59</course>
  <speed>16.45675849005508</speed>
  <fix>3d</fix>
</trkpt>
<trkpt lat="-27.2731233" lon="151.2900673">
  <ele>392.04</ele>
  <time>2026-09-01T19:55:21Z</time>
  <course>305.06</course>
  <speed>16.55</speed>
  <fix>3d</fix>
</trkpt>
<trkpt lat="-27.2730976" lon="151.2900283">
  <ele>392.2</ele>
  <time>2026-09-01T19:55:21Z</time>
  <course>309.35</course>
  <speed>16.429488732154752</speed>
  <fix>3d</fix>
</trkpt>
<trkpt lat="-27.2731233" lon="151.2900673">
  <ele>392.04</ele>
  <time>2026-09-01T19:55:21Z</time>
  <course>305.06</course>
  <speed>16.55</speed>
  <fix>3d</fix>
</trkpt>
<trkpt lat="-27.2730882" lon="151.2900154">
  <ele>392.26</ele>
  <time>2026-09-01T19:55:21Z</time>
  <course>310.15</course>
  <speed>16.406660232966367</speed>
  <fix>3d</fix>
</trkpt>
<trkpt lat="-27.2731057" lon="151.2900404">
  <ele>392.16</ele>
  <time>2026-09-01T19:55:21Z</time>
  <course>307.46</course>
  <speed>16.49</speed>
  <fix>3d</fix>
</trkpt>
<trkpt lat="-27.2730786" lon="151.2900028">
  <ele>392.33</ele>
  <time>2026-09-01T19:55:21Z</time>
  <course>310.88</course>
  <speed>16.38548137834223</speed>
  <fix>3d</fix>
</trkpt>
<trkpt lat="-27.2731057" lon="151.2900404">
  <ele>392.16</ele>
  <time>2026-09-01T19:55:21Z</time>
  <course>307.46</course>
  <speed>16.49</speed>
  <fix>3d</fix>
</trkpt>
<trkpt lat="-27.2730687" lon="151.2899904">
  <ele>392.39</ele>
  <time>2026-09-01T19:55:21Z</time>
  <course>311.67</course>
  <speed>16.372223428722197</speed>
  <fix>3d</fix>
</trkpt>
<trkpt lat="-27.2730873" lon="151.2900144">
  <ele>392.29</ele>
  <time>2026-09-01T19:55:21Z</time>
  <course>309.92</course>
  <speed>16.44</speed>
  <fix>3d</fix>
</trkpt>
<trkpt lat="-27.2730586" lon="151.2899783">
  <ele>392.45</ele>
  <time>2026-09-01T19:55:21Z</time>
  <course>312.51</course>
  <speed>16.35967297961668</speed>
  <fix>3d</fix>
</trkpt>
<trkpt lat="-27.2730873" lon="151.2900144">
  <ele>392.29</ele>
  <time>2026-09-01T19:55:21Z</time>
  <course>309.92</course>
  <speed>16.44</speed>
  <fix>3d</fix>
</trkpt>
<trkpt lat="-27.2730483" lon="151.2899664">
  <ele>392.52</ele>
  <time>2026-09-01T19:55:21Z</time>
  <course>313.36</course>
  <speed>16.355381377393805</speed>
  <fix>3d</fix>
</trkpt>
<trkpt lat="-27.2730678" lon="151.2899894">
  <ele>392.41</ele>
  <time>2026-09-01T19:55:21Z</time>
  <course>312.43</course>
  <speed>16.4</speed>
  <fix>3d</fix>
</trkpt>
<trkpt lat="-27.2730378" lon="151.2899548">
  <ele>392.58</ele>
  <time>2026-09-01T19:55:21Z</time>
  <course>314.16</course>
  <speed>16.338304685615334</speed>
  <fix>3d</fix>
</trkpt>
<trkpt lat="-27.2730678" lon="151.2899894">
  <ele>392.41</ele>
  <time>2026-09-01T19:55:21Z</time>
  <course>312.43</course>
  <speed>16.4</speed>
  <fix>3d</fix>
</trkpt>
<trkpt lat="-27.273027" lon="151.2899435">
  <ele>392.64</ele>
  <time>2026-09-01T19:55:21Z</time>
  <course>314.93</course>
  <speed>16.3365847103977</speed>
  <fix>3d</fix>
</trkpt>
<trkpt lat="-27.2730474" lon="151.2899655">
  <ele>392.55</ele>
  <time>2026-09-01T19:55:21Z</time>
  <course>314.99</course>
  <speed>16.37</speed>
  <fix>3d</fix>
</trkpt>
<trkpt lat="-27.273016" lon="151.2899324">
  <ele>392.71</ele>
  <time>2026-09-01T19:55:21Z</time>
  <course>315.73</course>
  <speed>16.329041613027997</speed>
  <fix>3d</fix>
</trkpt>
<trkpt lat="-27.2730474" lon="151.2899655">
  <ele>392.55</ele>
  <time>2026-09-01T19:55:21Z</time>
  <course>314.99</course>
  <speed>16.37</speed>
  <fix>3d</fix>
</trkpt>
<trkpt lat="-27.2730048" lon="151.2899217">
  <ele>392.77</ele>
  <time>2026-09-01T19:55:21Z</time>
  <course>316.53</course>
  <speed>16.32855780526866</speed>
  <fix>3d</fix>
</trkpt>
<trkpt lat="-27.2730262" lon="151.2899426">
  <ele>392.68</ele>
  <time>2026-09-01T19:55:21Z</time>
  <course>317.56</course>
  <speed>16.35</speed>
  <fix>3d</fix>
</trkpt>
<trkpt lat="-27.2729934" lon="151.2899112">
  <ele>392.82</ele>
  <time>2026-09-01T19:55:21Z</time>
  <course>317.38</course>
  <speed>16.3373498462878</speed>
  <fix>3d</fix>
</trkpt>
<trkpt lat="-27.2730262" lon="151.2899426">
  <ele>392.68</ele>
  <time>2026-09-01T19:55:21Z</time>
  <course>317.56</course>
  <speed>16.35</speed>
  <fix>3d</fix>
</trkpt>
<trkpt lat="-27.2729818" lon="151.289901">
  <ele>392.88</ele>
  <time>2026-09-01T19:55:21Z</time>
  <course>318.2</course>
  <speed>16.342343773155672</speed>
  <fix>3d</fix>
</trkpt>
<trkpt lat="-27.2730041" lon="151.2899209">
  <ele>392.81</ele>
  <time>2026-09-01T19:55:21Z</time>
  <course>320.11</course>
  <speed>16.34</speed>
  <fix>3d</fix>
</trkpt>
<trkpt lat="-27.27297" lon="151.2898911">
  <ele>392.93</ele>
  <time>2026-09-01T19:55:21Z</time>
  <course>319.01</course>
  <speed>16.348262904663603</speed>
  <fix>3d</fix>
</trkpt>
<trkpt lat="-27.2730041" lon="151.2899209">
  <ele>392.81</ele>
  <time>2026-09-01T19:55:21Z</time>
  <course>320.11</course>
  <speed>16.34</speed>
  <fix>3d</fix>
</trkpt>
<trkpt lat="-27.272958" lon="151.2898815">
  <ele>392.98</ele>
  <time>2026-09-01T19:55:21Z</time>
  <course>319.91</course>
  <speed>16.362915388157454</speed>
  <fix>3d</fix>
</trkpt>
<trkpt lat="-27.2729811" lon="151.2899003">
  <ele>392.92</ele>
  <time>2026-09-01T19:55:21Z</time>
  <course>322.71</course>
  <speed>16.35</speed>
  <fix>3d</fix>
</trkpt>
<trkpt lat="-27.2729458" lon="151.2898723">
  <ele>393.04</ele>
  <time>2026-09-01T19:55:21Z</time>
  <course>320.8</course>
  <speed>16.38079363156743</speed>
  <fix>3d</fix>
</trkpt>
<trkpt lat="-27.2729811" lon="151.2899003">
  <ele>392.92</ele>
  <time>2026-09-01T19:55:21Z</time>
  <course>322.71</course>
  <speed>16.35</speed>
  <fix>3d</fix>
</trkpt>
<trkpt lat="-27.2729334" lon="151.2898633">
  <ele>393.09</ele>
  <time>2026-09-01T19:55:21Z</time>
  <course>321.75</course>
  <speed>16.402454084678915</speed>
  <fix>3d</fix>
</trkpt>
<trkpt lat="-27.2729574" lon="151.2898809">
  <ele>393.03</ele>
  <time>2026-09-01T19:55:21Z</time>
  <course>325.37</course>
  <speed>16.37</speed>
  <fix>3d</fix>
</trkpt>
<trkpt lat="-27.2729208" lon="151.2898548">
  <ele>393.13</ele>
  <time>2026-09-01T19:55:21Z</time>
  <course>322.61</course>
  <speed>16.424923135284377</speed>
  <fix>3d</fix>
</trkpt>
<trkpt lat="-27.2729574" lon="151.2898809">
  <ele>393.03</ele>
  <time>2026-09-01T19:55:21Z</time>
  <course>325.37</course>
  <speed>16.37</speed>
  <fix>3d</fix>
</trkpt>
<trkpt lat="-27.272908" lon="151.2898465">
  <ele>393.18</ele>
  <time>2026-09-01T19:55:21Z</time>
  <course>323.52</course>
  <speed>16.455527946559478</speed>
  <fix>3d</fix>
</trkpt>
<trkpt lat="-27.2729328" lon="151.2898627">
  <ele>393.13</ele>
  <time>2026-09-01T19:55:21Z</time>
  <course>328.08</course>
  <speed>16.4</speed>
  <fix>3d</fix>
</trkpt>
<trkpt lat="-27.272895" lon="151.2898386">
  <ele>393.23</ele>
  <time>2026-09-01T19:55:21Z</time>
  <course>324.45</course>
  <speed>16.482794059260705</speed>
  <fix>3d</fix>
</trkpt>
<trkpt lat="-27.2729328" lon="151.2898627">
  <ele>393.13</ele>
  <time>2026-09-01T19:55:21Z</time>
  <course>328.08</course>
  <speed>16.4</speed>
  <fix>3d</fix>
</trkpt>
<trkpt lat="-27.2728818" lon="151.289831">
  <ele>393.28</ele>
  <time>2026-09-01T19:55:21Z</time>
  <course>325.31</course>
  <speed>16.52478441614292</speed>
  <fix>3d</fix>
</trkpt>
<trkpt lat="-27.2729074" lon="151.2898459">
  <ele>393.24</ele>
  <time>2026-09-01T19:55:21Z</time>
  <course>330.88</course>
  <speed>16.45</speed>
  <fix>3d</fix>
</trkpt>
<trkpt lat="-27.2728683" lon="151.2898237">
  <ele>393.33</ele>
  <time>2026-09-01T19:55:21Z</time>
  <course>326.22</course>
  <speed>16.563287717117035</speed>
  <fix>3d</fix>
</trkpt>
<trkpt lat="-27.2729074" lon="151.2898459">
  <ele>393.24</ele>
  <time>2026-09-01T19:55:21Z</time>
  <course>330.88</course>
  <speed>16.45</speed>
  <fix>3d</fix>
</trkpt>
<trkpt lat="-27.2728547" lon="151.2898168">
  <ele>393.38</ele>
  <time>2026-09-01T19:55:22Z</time>
  <course>327.16</course>
  <speed>16.607757223659068</speed>
  <fix>3d</fix>
</trkpt>
<trkpt lat="-27.2728811" lon="151.2898303">
  <ele>393.34</ele>
  <time>2026-09-01T19:55:22Z</time>
  <course>333.71</course>
  <speed>16.52</speed>
  <fix>3d</fix>
</trkpt>
<trkpt lat="-27.2728408" lon="151.2898102">
  <ele>393.43</ele>
  <time>2026-09-01T19:55:22Z</time>
  <course>328.08</course>
  <speed>16.66253582141686</speed>
  <fix>3d</fix>
</trkpt>
<trkpt lat="-27.2728811" lon="151.2898303">
  <ele>393.34</ele>
  <time>2026-09-01T19:55:22Z</time>
  <course>333.71</course>
  <speed>16.52</speed>
  <fix>3d</fix>
</trkpt>
<trkpt lat="-27.2728268" lon="151.2898041">
  <ele>393.48</ele>
  <time>2026-09-01T19:55:22Z</time>
  <course>329.0</course>
  <speed>16.70528359531798</speed>
  <fix>3d</fix>
</trkpt>
<trkpt lat="-27.272854" lon="151.2898162">
  <ele>393.44</ele>
  <time>2026-09-01T19:55:22Z</time>
  <course>336.54</course>
  <speed>16.6</speed>
  <fix>3d</fix>
</trkpt>
<trkpt lat="-27.2728127" lon="151.2897983">
  <ele>393.52</ele>
  <time>2026-09-01T19:55:22Z</time>
  <course>329.92</course>
  <speed>16.76769513081628</speed>
  <fix>3d</fix>
</trkpt>
<trkpt lat="-27.272854" lon="151.2898162">
  <ele>393.44</ele>
  <time>2026-09-01T19:55:22Z</time>
  <course>336.54</course>
  <speed>16.6</speed>
  <fix>3d</fix>
</trkpt>
<trkpt lat="-27.2727983" lon="151.2897929">
  <ele>393.56</ele>
  <time>2026-09-01T19:55:22Z</time>
  <course>330.85</course>
  <speed>16.827813286342344</speed>
  <fix>3d</fix>
</trkpt>
<trkpt lat="-27.2728263" lon="151.2898036">
  <ele>393.53</ele>
  <time>2026-09-01T19:55:22Z</time>
  <course>339.38</course>
  <speed>16.7</speed>
  <fix>3d</fix>
</trkpt>
<trkpt lat="-27.2727839" lon="151.2897879">
  <ele>393.6</ele>
  <time>2026-09-01T19:55:22Z</time>
  <course>331.78</course>
  <speed>16.888803983704708</speed>
  <fix>3d</fix>
</trkpt>
<trkpt lat="-27.2728263" lon="151.2898036">
  <ele>393.53</ele>
  <time>2026-09-01T19:55:22Z</time>
  <course>339.38</course>
  <speed>16.7</speed>
  <fix>3d</fix>
</trkpt>
<trkpt lat="-27.2727692" lon="151.2897833">
  <ele>393.64</ele>
  <time>2026-09-01T19:55:22Z</time>
  <course>332.7</course>
  <speed>16.96000294811295</speed>
  <fix>3d</fix>
</trkpt>
<trkpt lat="-27.2727979" lon="151.2897924">
  <ele>393.62</ele>
  <time>2026-09-01T19:55:22Z</time>
  <course>342.23</course>
  <speed>16.81</speed>
  <fix>3d</fix>
</trkpt>
<trkpt lat="-27.2727544" lon="151.289779">
  <ele>393.68</ele>
  <time>2026-09-01T19:55:22Z</time>
  <course>333.73</course>
  <speed>17.029224879600363</speed>
  <fix>3d</fix>
</trkpt>
<trkpt lat="-27.2727979" lon="151.2897924">
  <ele>393.62</ele>
  <time>2026-09-01T19:55:22Z</time>
  <course>342.23</course>
  <speed>16.81</speed>
  <fix>3d</fix>
</trkpt>
<trkpt lat="-27.2727395" lon="151.2897752">
  <ele>393.71</ele>
  <time>2026-09-01T19:55:22Z</time>
  <course>334.74</course>
  <speed>17.11227921698334</speed>
  <fix>3d</fix>
</trkpt>
<trkpt lat="-27.2727688" lon="151.2897828">
  <ele>393.71</ele>
  <time>2026-09-01T19:55:22Z</time>
  <course>345.08</course>
  <speed>16.95</speed>
  <fix>3d</fix>
</trkpt>
<trkpt lat="-27.2727244" lon="151.2897718">
  <ele>393.75</ele>
  <time>2026-09-01T19:55:22Z</time>
  <course>335.75</course>
  <speed>17.19906102088134</speed>
  <fix>3d</fix>
</trkpt>
<trkpt lat="-27.2727688" lon="151.2897828">
  <ele>393.71</ele>
  <time>2026-09-01T19:55:22Z</time>
  <course>345.08</course>
  <speed>16.95</speed>
  <fix>3d</fix>
</trkpt>
<trkpt lat="-27.2727091" lon="151.2897688">
  <ele>393.78</ele>
  <time>2026-09-01T19:55:22Z</time>
  <course>336.77</course>
  <speed>17.283778522070918</speed>
  <fix>3d</fix>
</trkpt>
<trkpt lat="-27.272739" lon="151.2897749">
  <ele>393.78</ele>
  <time>2026-09-01T19:55:22Z</time>
  <course>347.98</course>
  <speed>17.1</speed>
  <fix>3d</fix>
</trkpt>
<trkpt lat="-27.2726938" lon="151.2897663">
  <ele>393.81</ele>
  <time>2026-09-01T19:55:22Z</time>
  <course>337.74</course>
  <speed>17.380198502894032</speed>
  <fix>3d</fix>
</trkpt>
<trkpt lat="-27.272739" lon="151.2897749">
  <ele>393.78</ele>
  <time>2026-09-01T19:55:22Z</time>
  <course>347.98</course>
  <speed>17.1</speed>
  <fix>3d</fix>
</trkpt>
<trkpt lat="-27.2726782" lon="151.2897641">
  <ele>393.85</ele>
  <time>2026-09-01T19:55:22Z</time>
  <course>338.74</course>
  <speed>17.478183544064297</speed>
  <fix>3d</fix>
</trkpt>
<trkpt lat="-27.2727087" lon="151.2897685">
  <ele>393.85</ele>
  <time>2026-09-01T19:55:22Z</time>
  <course>350.95</course>
  <speed>17.28</speed>
  <fix>3d</fix>
</trkpt>
<trkpt lat="-27.2726626" lon="151.2897625">
  <ele>393.88</ele>
  <time>2026-09-01T19:55:22Z</time>
  <course>339.76</course>
  <speed>17.58661422787229</speed>
  <fix>3d</fix>
</trkpt>
<trkpt lat="-27.2727087" lon="151.2897685">
  <ele>393.85</ele>
  <time>2026-09-01T19:55:22Z</time>
  <course>350.95</course>
  <speed>17.28</speed>
  <fix>3d</fix>
</trkpt>
<trkpt lat="-27.2726468" lon="151.2897613">
  <ele>393.91</ele>
  <time>2026-09-01T19:55:22Z</time>
  <course>340.82</course>
  <speed>17.696604194025475</speed>
  <fix>3d</fix>
</trkpt>
<trkpt lat="-27.2726777" lon="151.2897639">
  <ele>393.92</ele>
  <time>2026-09-01T19:55:22Z</time>
  <course>353.9</course>
  <speed>17.47</speed>
  <fix>3d</fix>
</trkpt>
<trkpt lat="-27.2726308" lon="151.2897605">
  <ele>393.95</ele>
  <time>2026-09-01T19:55:22Z</time>
  <course>341.92</course>
  <speed>17.817300581176713</speed>
  <fix>3d</fix>
</trkpt>
<trkpt lat="-27.2726777" lon="151.2897639">
  <ele>393.92</ele>
  <time>2026-09-01T19:55:22Z</time>
  <course>353.9</course>
  <speed>17.47</speed>
  <fix>3d</fix>
</trkpt>
<trkpt lat="-27.2726149" lon="151.2897602">
  <ele>393.98</ele>
  <time>2026-09-01T19:55:22Z</time>
  <course>342.98</course>
  <speed>17.930044617903214</speed>
  <fix>3d</fix>
</trkpt>
<trkpt lat="-27.2726463" lon="151.2897611">
  <ele>393.99</ele>
  <time>2026-09-01T19:55:22Z</time>
  <course>356.86</course>
  <speed>17.69</speed>
  <fix>3d</fix>
</trkpt>
<trkpt lat="-27.2725988" lon="151.2897604">
  <ele>394.01</ele>
  <time>2026-09-01T19:55:22Z</time>
  <course>344.05</course>
  <speed>18.054885765354484</speed>
  <fix>3d</fix>
</trkpt>
<trkpt lat="-27.2726463" lon="151.2897611">
  <ele>393.99</ele>
  <time>2026-09-01T19:55:22Z</time>
  <course>356.86</course>
  <speed>17.69</speed>
  <fix>3d</fix>
</trkpt>
<trkpt lat="-27.2725825" lon="151.289761">
  <ele>394.05</ele>
  <time>2026-09-01T19:55:22Z</time>
  <course>345.19</course>
  <speed>18.18228808483685</speed>
  <fix>3d</fix>
</trkpt>
<trkpt lat="-27.2726144" lon="151.28976">
  <ele>394.05</ele>
  <time>2026-09-01T19:55:22Z</time>
  <course>359.85</course>
  <speed>17.92</speed>
  <fix>3d</fix>
</trkpt>
<trkpt lat="-27.2725662" lon="151.2897621">
  <ele>394.08</ele>
  <time>2026-09-01T19:55:22Z</time>
  <course>346.32</course>
  <speed>18.31207252060782</speed>
  <fix>3d</fix>
</trkpt>
<trkpt lat="-27.2726144" lon="151.28976">
  <ele>394.05</ele>
  <time>2026-09-01T19:55:22Z</time>
  <course>359.85</course>
  <speed>17.92</speed>
  <fix>3d</fix>
</trkpt>
<trkpt lat="-27.2725496" lon="151.2897637">
  <ele>394.11</ele>
  <time>2026-09-01T19:55:22Z</time>
  <course>347.44</course>
  <speed>18.45600173385341</speed>
  <fix>3d</fix>
</trkpt>
<trkpt lat="-27.2725819" lon="151.2897609">
  <ele>394.11</ele>
  <time>2026-09-01T19:55:22Z</time>
  <course>2.86</course>
  <speed>18.18</speed>
  <fix>3d</fix>
</trkpt>
<trkpt lat="-27.2725331" lon="151.2897659">
  <ele>394.13</ele>
  <time>2026-09-01T19:55:22Z</time>
  <course>348.62</course>
  <speed>18.604155449791318</speed>
  <fix>3d</fix>
</trkpt>
<trkpt lat="-27.2725819" lon="151.2897609">
  <ele>394.11</ele>
  <time>2026-09-01T19:55:22Z</time>
  <course>2.86</course>
  <speed>18.18</speed>
  <fix>3d</fix>
</trkpt>
<trkpt lat="-27.2725165" lon="151.2897685">
  <ele>394.16</ele>
  <time>2026-09-01T19:55:22Z</time>
  <course>349.77</course>
  <speed>18.757105320384593</speed>
  <fix>3d</fix>
</trkpt>
<trkpt lat="-27.272549" lon="151.2897637">
  <ele>394.17</ele>
  <time>2026-09-01T19:55:22Z</time>
  <course>5.88</course>
  <speed>18.45</speed>
  <fix>3d</fix>
</trkpt>
<trkpt lat="-27.2724993" lon="151.2897718">
  <ele>394.19</ele>
  <time>2026-09-01T19:55:22Z</time>
  <course>350.96</course>
  <speed>18.91725402906035</speed>
  <fix>3d</fix>
</trkpt>
<trkpt lat="-27.2725158" lon="151.2897685">
  <ele>394.23</ele>
  <time>2026-09-01T19:55:22Z</time>
  <course>8.93</course>
  <speed>18.75</speed>
  <fix>3d</fix>
</trkpt>
<trkpt lat="-27.2724827" lon="151.2897755">
  <ele>394.21</ele>
  <time>2026-09-01T19:55:22Z</time>
  <course>352.23</course>
  <speed>19.0797274613659</speed>
  <fix>3d</fix>
</trkpt>
<trkpt lat="-27.2725158" lon="151.2897685">
  <ele>394.23</ele>
  <time>2026-09-01T19:55:22Z</time>
  <course>8.93</course>
  <speed>18.75</speed>
  <fix>3d</fix>
</trkpt>
<trkpt lat="-27.2724659" lon="151.2897798">
  <ele>394.24</ele>
  <time>2026-09-01T19:55:22Z</time>
  <course>353.38</course>
  <speed>19.248233685198233</speed>
  <fix>3d</fix>
</trkpt>
<trkpt lat="-27.2724824" lon="151.2897755">
  <ele>394.28</ele>
  <time>2026-09-01T19:55:22Z</time>
  <course>12.01</course>
  <speed>19.07</speed>
  <fix>3d</fix>
</trkpt>
<trkpt lat="-27.2724491" lon="151.2897847">
  <ele>394.26</ele>
  <time>2026-09-01T19:55:22Z</time>
  <course>354.6</course>
  <speed>19.4233725186951</speed>
  <fix>3d</fix>
</trkpt>
<trkpt lat="-27.2724824" lon="151.2897755">
  <ele>394.28</ele>
  <time>2026-09-01T19:55:22Z</time>
  <course>12.01</course>
  <speed>19.07</speed>
  <fix>3d</fix>
</trkpt>
<trkpt lat="-27.2724322" lon="151.2897901">
  <ele>394.29</ele>
  <time>2026-09-01T19:55:22Z</time>
  <course>355.88</course>
  <speed>19.605746606543704</speed>
  <fix>3d</fix>
</trkpt>
<trkpt lat="-27.2724489" lon="151.2897846">
  <ele>394.33</ele>
  <time>2026-09-01T19:55:22Z</time>
  <course>15.12</course>
  <speed>19.41</speed>
  <fix>3d</fix>
</trkpt>
<trkpt lat="-27.2724152" lon="151.2897961">
  <ele>394.31</ele>
  <time>2026-09-01T19:55:22Z</time>
  <course>357.22</course>
  <speed>19.792738567464585</speed>
  <fix>3d</fix>
</trkpt>
<trkpt lat="-27.2724489" lon="151.2897846">
  <ele>394.33</ele>
  <time>2026-09-01T19:55:22Z</time>
  <course>15.12</course>
  <speed>19.41</speed>
  <fix>3d</fix>
</trkpt>
<trkpt lat="-27.2723987" lon="151.2898025">
  <ele>394.34</ele>
  <time>2026-09-01T19:55:22Z</time>
  <course>358.55</course>
  <speed>19.982594926585488</speed>
  <fix>3d</fix>
</trkpt>
<trkpt lat="-27.2724489" lon="151.2897846">
  <ele>394.33</ele>
  <time>2026-09-01T19:55:22Z</time>
  <course>15.12</course>
  <speed>19.41</speed>
  <fix>3d</fix>
</trkpt>
<trkpt lat="-27.2723818" lon="151.2898097">
  <ele>394.36</ele>
  <time>2026-09-01T19:55:22Z</time>
  <course>359.92</course>
  <speed>20.189019292674917</speed>
  <fix>3d</fix>
</trkpt>
<trkpt lat="-27.2724152" lon="151.289796">
  <ele>394.38</ele>
  <time>2026-09-01T19:55:22Z</time>
  <course>18.28</course>
  <speed>19.78</speed>
  <fix>3d</fix>
</trkpt>
<trkpt lat="-27.272365" lon="151.2898174">
  <ele>394.39</ele>
  <time>2026-09-01T19:55:22Z</time>
  <course>1.23</course>
  <speed>20.402401819393717</speed>
  <fix>3d</fix>
</trkpt>
<trkpt lat="-27.2724152" lon="151.289796">
  <ele>394.38</ele>
  <time>2026-09-01T19:55:22Z</time>
  <course>18.28</course>
  <speed>19.78</speed>
  <fix>3d</fix>
</trkpt>
<trkpt lat="-27.2723482" lon="151.2898258">
  <ele>394.42</ele>
  <time>2026-09-01T19:55:22Z</time>
  <course>2.6</course>
  <speed>20.61766233111795</speed>
  <fix>3d</fix>
</trkpt>
<trkpt lat="-27.2723814" lon="151.2898098">
  <ele>394.43</ele>
  <time>2026-09-01T19:55:22Z</time>
  <course>21.52</course>
  <speed>20.18</speed>
  <fix>3d</fix>
</trkpt>
<trkpt lat="-27.2723314" lon="151.2898349">
  <ele>394.45</ele>
  <time>2026-09-01T19:55:22Z</time>
  <course>3.97</course>
  <speed>20.831303367768424</speed>
  <fix>3d</fix>
</trkpt>
<trkpt lat="-27.2723814" lon="151.2898098">
  <ele>394.43</ele>
  <time>2026-09-01T19:55:22Z</time>
  <course>21.52</course>
  <speed>20.18</speed>
  <fix>3d</fix>
</trkpt>
<trkpt lat="-27.2723146" lon="151.2898445">
  <ele>394.48</ele>
  <time>2026-09-01T19:55:22Z</time>
  <course>5.4</course>
  <speed>21.05707007159353</speed>
  <fix>3d</fix>
</trkpt>
<trkpt lat="-27.2723478" lon="151.289826">
  <ele>394.49</ele>
  <time>2026-09-01T19:55:22Z</time>
  <course>24.77</course>
  <speed>20.61</speed>
  <fix>3d</fix>
</trkpt>
<trkpt lat="-27.272298" lon="151.2898548">
  <ele>394.51</ele>
  <time>2026-09-01T19:55:22Z</time>
  <course>6.87</course>
  <speed>21.286871540928697</speed>
  <fix>3d</fix>
</trkpt>
<trkpt lat="-27.2723478" lon="151.289826">
  <ele>394.49</ele>
  <time>2026-09-01T19:55:22Z</time>
  <course>24.77</course>
  <speed>20.61</speed>
  <fix>3d</fix>
</trkpt>
<trkpt lat="-27.2722815" lon="151.2898657">
  <ele>394.54</ele>
  <time>2026-09-01T19:55:22Z</time>
  <course>8.36</course>
  <speed>21.521721585412262</speed>
  <fix>3d</fix>
</trkpt>
<trkpt lat="-27.2723143" lon="151.2898447">
  <ele>394.54</ele>
  <time>2026-09-01T19:55:22Z</time>
  <course>28.02</course>
  <speed>21.05</speed>
  <fix>3d</fix>
</trkpt>
<trkpt lat="-27.2722651" lon="151.2898774">
  <ele>394.56</ele>
  <time>2026-09-01T19:55:22Z</time>
  <course>9.89</course>
  <speed>21.768098217345493</speed>
  <fix>3d</fix>
</trkpt>
<trkpt lat="-27.2723143" lon="151.2898447">
  <ele>394.54</ele>
  <time>2026-09-01T19:55:22Z</time>
  <course>28.02</course>
  <speed>21.05</speed>
  <fix>3d</fix>
</trkpt>
<trkpt lat="-27.2722487" lon="151.2898897">
  <ele>394.59</ele>
  <time>2026-09-01T19:55:22Z</time>
  <course>11.44</course>
  <speed>22.030326824629725</speed>
  <fix>3d</fix>
</trkpt>
<trkpt lat="-27.272281" lon="151.289866">
  <ele>394.6</ele>
  <time>2026-09-01T19:55:22Z</time>
  <course>31.32</course>
  <speed>21.52</speed>
  <fix>3d</fix>
</trkpt>
<trkpt lat="-27.2722325" lon="151.2899027">
  <ele>394.62</ele>
  <time>2026-09-01T19:55:22Z</time>
  <course>13.05</course>
  <speed>22.292844143356856</speed>
  <fix>3d</fix>
</trkpt>
<trkpt lat="-27.272281" lon="151.289866">
  <ele>394.6</ele>
  <time>2026-09-01T19:55:22Z</time>
  <course>31.32</course>
  <speed>21.52</speed>
  <fix>3d</fix>
</trkpt>
<trkpt lat="-27.2722164" lon="151.2899164">
  <ele>394.64</ele>
  <time>2026-09-01T19:55:22Z</time>
  <course>14.69</course>
  <speed>22.571275994059352</speed>
  <fix>3d</fix>
</trkpt>
<trkpt lat="-27.2722482" lon="151.28989">
  <ele>394.65</ele>
  <time>2026-09-01T19:55:22Z</time>
  <course>34.7</course>
  <speed>22.03</speed>
  <fix>3d</fix>
</trkpt>
<trkpt lat="-27.2722004" lon="151.289931">
  <ele>394.67</ele>
  <time>2026-09-01T19:55:22Z</time>
  <course>16.36</course>
  <speed>22.84690788706428</speed>
  <fix>3d</fix>
</trkpt>
<trkpt lat="-27.2722482" lon="151.28989">
  <ele>394.65</ele>
  <time>2026-09-01T19:55:22Z</time>
  <course>34.7</course>
  <speed>22.03</speed>
  <fix>3d</fix>
</trkpt>
<trkpt lat="-27.2721847" lon="151.2899462">
  <ele>394.69</ele>
  <time>2026-09-01T19:55:22Z</time>
  <course>18.04</course>
  <speed>23.142292453428205</speed>
  <fix>3d</fix>
</trkpt>
<trkpt lat="-27.2722159" lon="151.2899168">
  <ele>394.71</ele>
  <time>2026-09-01T19:55:22Z</time>
  <course>38.14</course>
  <speed>22.57</speed>
  <fix>3d</fix>
</trkpt>
<trkpt lat="-27.2721693" lon="151.2899621">
  <ele>394.72</ele>
  <time>2026-09-01T19:55:22Z</time>
  <course>19.82</course>
  <speed>23.44294350119029</speed>
  <fix>3d</fix>
</trkpt>
<trkpt lat="-27.2722159" lon="151.2899168">
  <ele>394.71</ele>
  <time>2026-09-01T19:55:22Z</time>
  <course>38.14</course>
  <speed>22.57</speed>
  <fix>3d</fix>
</trkpt>
<trkpt lat="-27.2721536" lon="151.2899793">
  <ele>394.75</ele>
  <time>2026-09-01T19:55:22Z</time>
  <course>21.67</course>
  <speed>23.75905722035283</speed>
  <fix>3d</fix>
</trkpt>
<trkpt lat="-27.2721844" lon="151.2899464">
  <ele>394.76</ele>
  <time>2026-09-01T19:55:22Z</time>
  <course>41.63</course>
  <speed>23.14</speed>
  <fix>3d</fix>
</trkpt>
<trkpt lat="-27.2721388" lon="151.2899966">
  <ele>394.78</ele>
  <time>2026-09-01T19:55:22Z</time>
  <course>23.52</course>
  <speed>24.064939227016552</speed>
  <fix>3d</fix>
</trkpt>
<trkpt lat="-27.2721538" lon="151.289979">
  <ele>394.82</ele>
  <time>2026-09-01T19:55:22Z</time>
  <course>45.22</course>
  <speed>23.74</speed>
  <fix>3d</fix>
</trkpt>
<trkpt lat="-27.2721242" lon="151.2900148">
  <ele>394.82</ele>
  <time>2026-09-01T19:55:22Z</time>
  <course>25.33</course>
  <speed>24.374111265849265</speed>
  <fix>3d</fix>
</trkpt>
<trkpt lat="-27.2721538" lon="151.289979">
  <ele>394.82</ele>
  <time>2026-09-01T19:55:22Z</time>
  <course>45.22</course>
  <speed>23.74</speed>
  <fix>3d</fix>
</trkpt>
<trkpt lat="-27.27211" lon="151.2900338">
  <ele>394.85</ele>
  <time>2026-09-01T19:55:22Z</time>
  <course>27.2</course>
  <speed>24.694163277989396</speed>
  <fix>3d</fix>
</trkpt>
<trkpt lat="-27.2721244" lon="151.2900146">
  <ele>394.88</ele>
  <time>2026-09-01T19:55:22Z</time>
  <course>48.86</course>
  <speed>24.37</speed>
  <fix>3d</fix>
</trkpt>
<trkpt lat="-27.2720961" lon="151.2900535">
  <ele>394.89</ele>
  <time>2026-09-01T19:55:22Z</time>
  <course>29.12</course>
  <speed>25.021350882796078</speed>
  <fix>3d</fix>
</trkpt>
<trkpt lat="-27.2721244" lon="151.2900146">
  <ele>394.88</ele>
  <time>2026-09-01T19:55:22Z</time>
  <course>48.86</course>
  <speed>24.37</speed>
  <fix>3d</fix>
</trkpt>
<trkpt lat="-27.2720825" lon="151.2900741">
  <ele>394.93</ele>
  <time>2026-09-01T19:55:22Z</time>
  <course>31.15</course>
  <speed>25.350142011436542</speed>
  <fix>3d</fix>
</trkpt>
<trkpt lat="-27.2720963" lon="151.2900532">
  <ele>394.95</ele>
  <time>2026-09-01T19:55:22Z</time>
  <course>52.51</course>
  <speed>25.01</speed>
  <fix>3d</fix>
</trkpt>
<trkpt lat="-27.2720695" lon="151.2900953">
  <ele>394.96</ele>
  <time>2026-09-01T19:55:22Z</time>
  <course>33.35</course>
  <speed>25.69371323884502</speed>
  <fix>3d</fix>
</trkpt>
<trkpt lat="-27.2720963" lon="151.2900532">
  <ele>394.95</ele>
  <time>2026-09-01T19:55:22Z</time>
  <course>52.51</course>
  <speed>25.01</speed>
  <fix>3d</fix>
</trkpt>
<trkpt lat="-27.2720569" lon="151.2901174">
  <ele>395.0</ele>
  <time>2026-09-01T19:55:22Z</time>
  <course>35.54</course>
  <speed>26.05618928393022</speed>
  <fix>3d</fix>
</trkpt>
<trkpt lat="-27.2720698" lon="151.2900948">
  <ele>395.03</ele>
  <time>2026-09-01T19:55:22Z</time>
  <course>56.29</course>
  <speed>25.69</speed>
  <fix>3d</fix>
</trkpt>
<trkpt lat="-27.2720449" lon="151.2901402">
  <ele>395.05</ele>
  <time>2026-09-01T19:55:22Z</time>
  <course>37.65</course>
  <speed>26.420647229013902</speed>
  <fix>3d</fix>
</trkpt>
<trkpt lat="-27.2720698" lon="151.2900948">
  <ele>395.03</ele>
  <time>2026-09-01T19:55:22Z</time>
  <course>56.29</course>
  <speed>25.69</speed>
  <fix>3d</fix>
</trkpt>
<trkpt lat="-27.2720334" lon="151.2901637">
  <ele>395.09</ele>
  <time>2026-09-01T19:55:22Z</time>
  <course>39.89</course>
  <speed>26.788820429425403</speed>
  <fix>3d</fix>
</trkpt>
<trkpt lat="-27.2720452" lon="151.2901395">
  <ele>395.11</ele>
  <time>2026-09-01T19:55:22Z</time>
  <course>60.23</course>
  <speed>26.4</speed>
  <fix>3d</fix>
</trkpt>
<trkpt lat="-27.2720225" lon="151.2901881">
  <ele>395.14</ele>
  <time>2026-09-01T19:55:22Z</time>
  <course>42.21</course>
  <speed>27.167217376831218</speed>
  <fix>3d</fix>
</trkpt>
<trkpt lat="-27.2720452" lon="151.2901395">
  <ele>395.11</ele>
  <time>2026-09-01T19:55:22Z</time>
  <course>60.23</course>
  <speed>26.4</speed>
  <fix>3d</fix>
</trkpt>
<trkpt lat="-27.2720123" lon="151.2902132">
  <ele>395.19</ele>
  <time>2026-09-01T19:55:22Z</time>
  <course>44.55</course>
  <speed>27.54600878530318</speed>
  <fix>3d</fix>
</trkpt>
<trkpt lat="-27.2720229" lon="151.2901875">
  <ele>395.19</ele>
  <time>2026-09-01T19:55:22Z</time>
  <course>64.29</course>
  <speed>27.15</speed>
  <fix>3d</fix>
</trkpt>
<trkpt lat="-27.272003" lon="151.2902385">
  <ele>395.24</ele>
  <time>2026-09-01T19:55:22Z</time>
  <course>46.9</course>
  <speed>27.91396066487162</speed>
  <fix>3d</fix>
</trkpt>
<trkpt lat="-27.2720229" lon="151.2901875">
  <ele>395.19</ele>
  <time>2026-09-01T19:55:22Z</time>
  <course>64.29</course>
  <speed>27.15</speed>
  <fix>3d</fix>
</trkpt>
<trkpt lat="-27.2719942" lon="151.2902648">
  <ele>395.3</ele>
  <time>2026-09-01T19:55:22Z</time>
  <course>49.41</course>
  <speed>28.288050480724188</speed>
  <fix>3d</fix>
</trkpt>
<trkpt lat="-27.2720229" lon="151.2901875">
  <ele>395.19</ele>
  <time>2026-09-01T19:55:22Z</time>
  <course>64.29</course>
  <speed>27.15</speed>
  <fix>3d</fix>
</trkpt>
<trkpt lat="-27.2719861" lon="151.2902922">
  <ele>395.36</ele>
  <time>2026-09-01T19:55:22Z</time>
  <course>51.84</course>
  <speed>28.677351690837842</speed>
  <fix>3d</fix>
</trkpt>
<trkpt lat="-27.272003" lon="151.2902384">
  <ele>395.28</ele>
  <time>2026-09-01T19:55:22Z</time>
  <course>68.43</course>
  <speed>27.91</speed>
  <fix>3d</fix>
</trkpt>
<trkpt lat="-27.2719789" lon="151.2903201">
  <ele>395.42</ele>
  <time>2026-09-01T19:55:22Z</time>
  <course>54.4</course>
  <speed>29.052547220510633</speed>
  <fix>3d</fix>
</trkpt>
<trkpt lat="-27.272003" lon="151.2902384">
  <ele>395.28</ele>
  <time>2026-09-01T19:55:22Z</time>
  <course>68.43</course>
  <speed>27.91</speed>
  <fix>3d</fix>
</trkpt>
<trkpt lat="-27.2719724" lon="151.2903488">
  <ele>395.48</ele>
  <time>2026-09-01T19:55:22Z</time>
  <course>57.04</course>
  <speed>29.45287252544308</speed>
  <fix>3d</fix>
</trkpt>
<trkpt lat="-27.2719861" lon="151.2902923">
  <ele>395.4</ele>
  <time>2026-09-01T19:55:22Z</time>
  <course>72.61</course>
  <speed>28.68</speed>
  <fix>3d</fix>
</trkpt>
<trkpt lat="-27.2719669" lon="151.2903783">
  <ele>395.54</ele>
  <time>2026-09-01T19:55:22Z</time>
  <course>59.75</course>
  <speed>29.845820477916167</speed>
  <fix>3d</fix>
</trkpt>
<trkpt lat="-27.2719861" lon="151.2902923">
  <ele>395.4</ele>
  <time>2026-09-01T19:55:22Z</time>
  <course>72.61</course>
  <speed>28.68</speed>
  <fix>3d</fix>
</trkpt>
<trkpt lat="-27.2719623" lon="151.2904083">
  <ele>395.61</ele>
  <time>2026-09-01T19:55:22Z</time>
  <course>62.64</course>
  <speed>30.231324813841685</speed>
  <fix>3d</fix>
</trkpt>
<trkpt lat="-27.2719724" lon="151.2903491">
  <ele>395.52</ele>
  <time>2026-09-01T19:55:22Z</time>
  <course>76.91</course>
  <speed>29.45</speed>
  <fix>3d</fix>
</trkpt>
<trkpt lat="-27.2719587" lon="151.2904388">
  <ele>395.68</ele>
  <time>2026-09-01T19:55:22Z</time>
  <course>65.51</course>
  <speed>30.624878775270275</speed>
  <fix>3d</fix>
</trkpt>
<trkpt lat="-27.2719724" lon="151.2903491">
  <ele>395.52</ele>
  <time>2026-09-01T19:55:22Z</time>
  <course>76.91</course>
  <speed>29.45</speed>
  <fix>3d</fix>
</trkpt>
<trkpt lat="-27.2719562" lon="151.2904708">
  <ele>395.76</ele>
  <time>2026-09-01T19:55:22Z</time>
  <course>68.5</course>
  <speed>31.03181754264484</speed>
  <fix>3d</fix>
</trkpt>
<trkpt lat="-27.2719623" lon="151.2904084">
  <ele>395.64</ele>
  <time>2026-09-01T19:55:22Z</time>
  <course>81.38</course>
  <speed>30.24</speed>
  <fix>3d</fix>
</trkpt>
<trkpt lat="-27.2719549" lon="151.2905023">
  <ele>395.83</ele>
  <time>2026-09-01T19:55:22Z</time>
  <course>71.49</course>
  <speed>31.41150267020029</speed>
  <fix>3d</fix>
</trkpt>
<trkpt lat="-27.2719562" lon="151.2904699">
  <ele>395.78</ele>
  <time>2026-09-01T19:55:22Z</time>
  <course>85.99</course>
  <speed>31.03</speed>
  <fix>3d</fix>
</trkpt>
<trkpt lat="-27.2719547" lon="151.290534">
  <ele>395.91</ele>
  <time>2026-09-01T19:55:22Z</time>
  <course>74.46</course>
  <speed>31.79290801420971</speed>
  <fix>3d</fix>
</trkpt>
<trkpt lat="-27.2719562" lon="151.2904699">
  <ele>395.78</ele>
  <time>2026-09-01T19:55:22Z</time>
  <course>85.99</course>
  <speed>31.03</speed>
  <fix>3d</fix>
</trkpt>
<trkpt lat="-27.2719557" lon="151.2905663">
  <ele>396.0</ele>
  <time>2026-09-01T19:55:22Z</time>
  <course>77.62</course>
  <speed>32.16983835831321</speed>
  <fix>3d</fix>
</trkpt>
<trkpt lat="-27.2719546" lon="151.2905334">
  <ele>395.93</ele>
  <time>2026-09-01T19:55:22Z</time>
  <course>90.71</course>
  <speed>31.8</speed>
  <fix>3d</fix>
</trkpt>
<trkpt lat="-27.2719578" lon="151.2905989">
  <ele>396.08</ele>
  <time>2026-09-01T19:55:22Z</time>
  <course>80.82</course>
  <speed>32.538723084964474</speed>
  <fix>3d</fix>
</trkpt>
<trkpt lat="-27.2719546" lon="151.2905334">
  <ele>395.93</ele>
  <time>2026-09-01T19:55:22Z</time>
  <course>90.71</course>
  <speed>31.8</speed>
  <fix>3d</fix>
</trkpt>
<trkpt lat="-27.2719613" lon="151.2906317">
  <ele>396.17</ele>
  <time>2026-09-01T19:55:22Z</time>
  <course>84.12</course>
  <speed>32.89036485051511</speed>
  <fix>3d</fix>
</trkpt>
<trkpt lat="-27.2719577" lon="151.2905983">
  <ele>396.09</ele>
  <time>2026-09-01T19:55:22Z</time>
  <course>95.56</course>
  <speed>32.54</speed>
  <fix>3d</fix>
</trkpt>
<trkpt lat="-27.2719662" lon="151.290665">
  <ele>396.27</ele>
  <time>2026-09-01T19:55:22Z</time>
  <course>87.52</course>
  <speed>33.247523216023176</speed>
  <fix>3d</fix>
</trkpt>
<trkpt lat="-27.2719577" lon="151.2905983">
  <ele>396.09</ele>
  <time>2026-09-01T19:55:22Z</time>
  <course>95.56</course>
  <speed>32.54</speed>
  <fix>3d</fix>
</trkpt>
<trkpt lat="-27.2719724" lon="151.290698">
  <ele>396.36</ele>
  <time>2026-09-01T19:55:22Z</time>
  <course>91.0</course>
  <speed>33.57946991838912</speed>
  <fix>3d</fix>
</trkpt>
<trkpt lat="-27.271966" lon="151.2906641">
  <ele>396.27</ele>
  <time>2026-09-01T19:55:22Z</time>
  <course>100.58</course>
  <speed>33.25</speed>
  <fix>3d</fix>
</trkpt>
<trkpt lat="-27.2719801" lon="151.290731">
  <ele>396.46</ele>
  <time>2026-09-01T19:55:22Z</time>
  <course>94.47</course>
  <speed>33.890973724577464</speed>
  <fix>3d</fix>
</trkpt>
<trkpt lat="-27.271966" lon="151.2906641">
  <ele>396.27</ele>
  <time>2026-09-01T19:55:22Z</time>
  <course>100.58</course>
  <speed>33.25</speed>
  <fix>3d</fix>
</trkpt>
<trkpt lat="-27.2719891" lon="151.2907639">
  <ele>396.57</ele>
  <time>2026-09-01T19:55:22Z</time>
  <course>97.91</course>
  <speed>34.196941383696874</speed>
  <fix>3d</fix>
</trkpt>
<trkpt lat="-27.2719797" lon="151.2907301">
  <ele>396.47</ele>
  <time>2026-09-01T19:55:22Z</time>
  <course>105.76</course>
  <speed>33.9</speed>
  <fix>3d</fix>
</trkpt>
<trkpt lat="-27.2719996" lon="151.2907966">
  <ele>396.68</ele>
  <time>2026-09-01T19:55:22Z</time>
  <course>101.45</course>
  <speed>34.47644123165847</speed>
  <fix>3d</fix>
</trkpt>
<trkpt lat="-27.2719797" lon="151.2907301">
  <ele>396.47</ele>
  <time>2026-09-01T19:55:22Z</time>
  <course>105.76</course>
  <speed>33.9</speed>
  <fix>3d</fix>
</trkpt>
<trkpt lat="-27.2720115" lon="151.2908289">
  <ele>396.79</ele>
  <time>2026-09-01T19:55:22Z</time>
  <course>105.11</course>
  <speed>34.734053895276894</speed>
  <fix>3d</fix>
</trkpt>
<trkpt lat="-27.2719991" lon="151.2907957">
  <ele>396.68</ele>
  <time>2026-09-01T19:55:22Z</time>
  <course>111.03</course>
  <speed>34.49</speed>
  <fix>3d</fix>
</trkpt>
<trkpt lat="-27.2720248" lon="151.2908608">
  <ele>396.91</ele>
  <time>2026-09-01T19:55:22Z</time>
  <course>108.86</course>
  <speed>34.97657644767423</speed>
  <fix>3d</fix>
</trkpt>
<trkpt lat="-27.2719991" lon="151.2907957">
  <ele>396.68</ele>
  <time>2026-09-01T19:55:22Z</time>
  <course>111.03</course>
  <speed>34.49</speed>
  <fix>3d</fix>
</trkpt>
<trkpt lat="-27.2720395" lon="151.2908921">
  <ele>397.03</ele>
  <time>2026-09-01T19:55:22Z</time>
  <course>112.57</course>
  <speed>35.183327017210864</speed>
  <fix>3d</fix>
</trkpt>
<trkpt lat="-27.2720243" lon="151.29086">
  <ele>396.9</ele>
  <time>2026-09-01T19:55:22Z</time>
  <course>116.41</course>
  <speed>34.99</speed>
  <fix>3d</fix>
</trkpt>
<trkpt lat="-27.2720557" lon="151.2909228">
  <ele>397.15</ele>
  <time>2026-09-01T19:55:22Z</time>
  <course>116.33</course>
  <speed>35.370066440423884</speed>
  <fix>3d</fix>
</trkpt>
<trkpt lat="-27.2720243" lon="151.29086">
  <ele>396.9</ele>
  <time>2026-09-01T19:55:22Z</time>
  <course>116.41</course>
  <speed>34.99</speed>
  <fix>3d</fix>
</trkpt>
<trkpt lat="-27.2720733" lon="151.2909527">
  <ele>397.28</ele>
  <time>2026-09-01T19:55:22Z</time>
  <course>120.25</course>
  <speed>35.52847449581814</speed>
  <fix>3d</fix>
</trkpt>
<trkpt lat="-27.2720551" lon="151.2909221">
  <ele>397.14</ele>
  <time>2026-09-01T19:55:22Z</time>
  <course>121.94</course>
  <speed>35.4</speed>
  <fix>3d</fix>
</trkpt>
<trkpt lat="-27.2720922" lon="151.2909817">
  <ele>397.41</ele>
  <time>2026-09-01T19:55:22Z</time>
  <course>124.2</course>
  <speed>35.65681561777495</speed>
  <fix>3d</fix>
</trkpt>
<trkpt lat="-27.2720551" lon="151.2909221">
  <ele>397.14</ele>
  <time>2026-09-01T19:55:22Z</time>
  <course>121.94</course>
  <speed>35.4</speed>
  <fix>3d</fix>
</trkpt>
<trkpt lat="-27.2721125" lon="151.2910096">
  <ele>397.55</ele>
  <time>2026-09-01T19:55:22Z</time>
  <course>128.17</course>
  <speed>35.738273601280746</speed>
  <fix>3d</fix>
</trkpt>
<trkpt lat="-27.2720916" lon="151.2909812">
  <ele>397.4</ele>
  <time>2026-09-01T19:55:22Z</time>
  <course>127.62</course>
  <speed>35.68</speed>
  <fix>3d</fix>
</trkpt>
<trkpt lat="-27.272134" lon="151.2910365">
  <ele>397.69</ele>
  <time>2026-09-01T19:55:22Z</time>
  <course>132.1</course>
  <speed>35.80448295954014</speed>
  <fix>3d</fix>
</trkpt>
<trkpt lat="-27.2720916" lon="151.2909812">
  <ele>397.4</ele>
  <time>2026-09-01T19:55:22Z</time>
  <course>127.62</course>
  <speed>35.68</speed>
  <fix>3d</fix>
</trkpt>
<trkpt lat="-27.2721568" lon="151.2910621">
  <ele>397.84</ele>
  <time>2026-09-01T19:55:22Z</time>
  <course>136.19</course>
  <speed>35.8207984277291</speed>
  <fix>3d</fix>
</trkpt>
<trkpt lat="-27.2721334" lon="151.2910362">
  <ele>397.68</ele>
  <time>2026-09-01T19:55:22Z</time>
  <course>133.42</course>
  <speed>35.83</speed>
  <fix>3d</fix>
</trkpt>
<trkpt lat="-27.2721801" lon="151.2910858">
  <ele>397.98</ele>
  <time>2026-09-01T19:55:22Z</time>
  <course>140.18</course>
  <speed>35.80221222215186</speed>
  <fix>3d</fix>
</trkpt>
<trkpt lat="-27.2721334" lon="151.2910362">
  <ele>397.68</ele>
  <time>2026-09-01T19:55:22Z</time>
  <course>133.42</course>
  <speed>35.83</speed>
  <fix>3d</fix>
</trkpt>
<trkpt lat="-27.2722059" lon="151.2911094">
  <ele>398.14</ele>
  <time>2026-09-01T19:55:22Z</time>
  <course>144.28</course>
  <speed>35.74614944298197</speed>
  <fix>3d</fix>
</trkpt>
<trkpt lat="-27.27218" lon="151.2910862">
  <ele>397.97</ele>
  <time>2026-09-01T19:55:22Z</time>
  <course>139.29</course>
  <speed>35.83</speed>
  <fix>3d</fix>
</trkpt>
<trkpt lat="-27.2722314" lon="151.2911304">
  <ele>398.3</ele>
  <time>2026-09-01T19:55:22Z</time>
  <course>148.27</course>
  <speed>35.63830102572231</speed>
  <fix>3d</fix>
</trkpt>
<trkpt lat="-27.27218" lon="151.2910862">
  <ele>397.97</ele>
  <time>2026-09-01T19:55:22Z</time>
  <course>139.29</course>
  <speed>35.83</speed>
  <fix>3d</fix>
</trkpt>
<trkpt lat="-27.2722581" lon="151.29115">
  <ele>398.47</ele>
  <time>2026-09-01T19:55:22Z</time>
  <course>152.21</course>
  <speed>35.495813837690775</speed>
  <fix>3d</fix>
</trkpt>
<trkpt lat="-27.2722307" lon="151.2911303">
  <ele>398.27</ele>
  <time>2026-09-01T19:55:22Z</time>
  <course>145.2</course>
  <speed>35.68</speed>
  <fix>3d</fix>
</trkpt>
<trkpt lat="-27.2722854" lon="151.291168">
  <ele>398.64</ele>
  <time>2026-09-01T19:55:22Z</time>
  <course>156.14</course>
  <speed>35.30188238607114</speed>
  <fix>3d</fix>
</trkpt>
<trkpt lat="-27.2722307" lon="151.2911303">
  <ele>398.27</ele>
  <time>2026-09-01T19:55:22Z</time>
  <course>145.2</course>
  <speed>35.68</speed>
  <fix>3d</fix>
</trkpt>
<trkpt lat="-27.2723133" lon="151.2911843">
  <ele>398.81</ele>
  <time>2026-09-01T19:55:22Z</time>
  <course>159.98</course>
  <speed>35.07311791101555</speed>
  <fix>3d</fix>
</trkpt>
<trkpt lat="-27.2722849" lon="151.2911682">
  <ele>398.58</ele>
  <time>2026-09-01T19:55:22Z</time>
  <course>151.03</course>
  <speed>35.37</speed>
  <fix>3d</fix>
</trkpt>
<trkpt lat="-27.2723416" lon="151.2911989">
  <ele>398.98</ele>
  <time>2026-09-01T19:55:22Z</time>
  <course>163.65</course>
  <speed>34.81728593672976</speed>
  <fix>3d</fix>
</trkpt>
<trkpt lat="-27.2722849" lon="151.2911682">
  <ele>398.58</ele>
  <time>2026-09-01T19:55:22Z</time>
  <course>151.03</course>
  <speed>35.37</speed>
  <fix>3d</fix>
</trkpt>
<trkpt lat="-27.2723707" lon="151.291212">
  <ele>399.15</ele>
  <time>2026-09-01T19:55:22Z</time>
  <course>167.38</course>
  <speed>34.5414548043362</speed>
  <fix>3d</fix>
</trkpt>
<trkpt lat="-27.2723416" lon="151.2911995">
  <ele>398.9</ele>
  <time>2026-09-01T19:55:22Z</time>
  <course>156.68</course>
  <speed>34.93</speed>
  <fix>3d</fix>
</trkpt>
<trkpt lat="-27.2723997" lon="151.2912234">
  <ele>399.31</ele>
  <time>2026-09-01T19:55:22Z</time>
  <course>171.0</course>
  <speed>34.23213986884255</speed>
  <fix>3d</fix>
</trkpt>
<trkpt lat="-27.2723416" lon="151.2911995">
  <ele>398.9</ele>
  <time>2026-09-01T19:55:22Z</time>
  <course>156.68</course>
  <speed>34.93</speed>
  <fix>3d</fix>
</trkpt>
<trkpt lat="-27.2724289" lon="151.2912331">
  <ele>399.46</ele>
  <time>2026-09-01T19:55:22Z</time>
  <course>174.43</course>
  <speed>33.9058284075172</speed>
  <fix>3d</fix>
</trkpt>
<trkpt lat="-27.2723998" lon="151.2912241">
  <ele>399.21</ele>
  <time>2026-09-01T19:55:22Z</time>
  <course>162.15</course>
  <speed>34.36</speed>
  <fix>3d</fix>
</trkpt>
<trkpt lat="-27.2724582" lon="151.2912412">
  <ele>399.61</ele>
  <time>2026-09-01T19:55:22Z</time>
  <course>177.81</course>
  <speed>33.54735906148203</speed>
  <fix>3d</fix>
</trkpt>
<trkpt lat="-27.2723998" lon="151.2912241">
  <ele>399.21</ele>
  <time>2026-09-01T19:55:22Z</time>
  <course>162.15</course>
  <speed>34.36</speed>
  <fix>3d</fix>
</trkpt>
<trkpt lat="-27.2724875" lon="151.2912478">
  <ele>399.75</ele>
  <time>2026-09-01T19:55:22Z</time>
  <course>181.09</course>
  <speed>33.176372616668026</speed>
  <fix>3d</fix>
</trkpt>
<trkpt lat="-27.2724588" lon="151.2912422">
  <ele>399.49</ele>
  <time>2026-09-01T19:55:22Z</time>
  <course>167.42</course>
  <speed>33.69</speed>
  <fix>3d</fix>
</trkpt>
<trkpt lat="-27.2725167" lon="151.2912529">
  <ele>399.88</ele>
  <time>2026-09-01T19:55:22Z</time>
  <course>184.22</course>
  <speed>32.802580691159044</speed>
  <fix>3d</fix>
</trkpt>
<trkpt lat="-27.2724588" lon="151.2912422">
  <ele>399.49</ele>
  <time>2026-09-01T19:55:22Z</time>
  <course>167.42</course>
  <speed>33.69</speed>
  <fix>3d</fix>
</trkpt>
<trkpt lat="-27.2725458" lon="151.2912566">
  <ele>400.0</ele>
  <time>2026-09-01T19:55:22Z</time>
  <course>187.24</course>
  <speed>32.404691018431265</speed>
  <fix>3d</fix>
</trkpt>
<trkpt lat="-27.2725178" lon="151.2912539">
  <ele>399.75</ele>
  <time>2026-09-01T19:55:22Z</time>
  <course>172.4</course>
  <speed>32.96</speed>
  <fix>3d</fix>
</trkpt>
<trkpt lat="-27.2725746" lon="151.2912589">
  <ele>400.11</ele>
  <time>2026-09-01T19:55:22Z</time>
  <course>190.06</course>
  <speed>32.00706953158942</speed>
  <fix>3d</fix>
</trkpt>
<trkpt lat="-27.2725178" lon="151.2912539">
  <ele>399.75</ele>
  <time>2026-09-01T19:55:22Z</time>
  <course>172.4</course>
  <speed>32.96</speed>
  <fix>3d</fix>
</trkpt>
<trkpt lat="-27.2726032" lon="151.29126">
  <ele>400.2</ele>
  <time>2026-09-01T19:55:22Z</time>
  <course>192.84</course>
  <speed>31.601829060989495</speed>
  <fix>3d</fix>
</trkpt>
<trkpt lat="-27.272576" lon="151.2912599">
  <ele>399.96</ele>
  <time>2026-09-01T19:55:22Z</time>
  <course>177.03</course>
  <speed>32.17</speed>
  <fix>3d</fix>
</trkpt>
<trkpt lat="-27.2726314" lon="151.2912599">
  <ele>400.27</ele>
  <time>2026-09-01T19:55:22Z</time>
  <course>195.51</course>
  <speed>31.19026130060471</speed>
  <fix>3d</fix>
</trkpt>
<trkpt lat="-27.272576" lon="151.2912599">
  <ele>399.96</ele>
  <time>2026-09-01T19:55:22Z</time>
  <course>177.03</course>
  <speed>32.17</speed>
  <fix>3d</fix>
</trkpt>
<trkpt lat="-27.2726592" lon="151.2912587">
  <ele>400.32</ele>
  <time>2026-09-01T19:55:22Z</time>
  <course>198.01</course>
  <speed>30.76627536768141</speed>
  <fix>3d</fix>
</trkpt>
<trkpt lat="-27.272633" lon="151.2912608">
  <ele>400.12</ele>
  <time>2026-09-01T19:55:22Z</time>
  <course>181.32</course>
  <speed>31.35</speed>
  <fix>3d</fix>
</trkpt>
<trkpt lat="-27.2726866" lon="151.2912564">
  <ele>400.36</ele>
  <time>2026-09-01T19:55:22Z</time>
  <course>200.35</course>
  <speed>30.36311084194108</speed>
  <fix>3d</fix>
</trkpt>
<trkpt lat="-27.272633" lon="151.2912608">
  <ele>400.12</ele>
  <time>2026-09-01T19:55:22Z</time>
  <course>181.32</course>
  <speed>31.35</speed>
  <fix>3d</fix>
</trkpt>
<trkpt lat="-27.2727136" lon="151.2912532">
  <ele>400.37</ele>
  <time>2026-09-01T19:55:22Z</time>
  <course>202.71</course>
  <speed>29.965570243197444</speed>
  <fix>3d</fix>
</trkpt>
<trkpt lat="-27.2726886" lon="151.2912572">
  <ele>400.2</ele>
  <time>2026-09-01T19:55:22Z</time>
  <course>185.27</course>
  <speed>30.53</speed>
  <fix>3d</fix>
</trkpt>
<trkpt lat="-27.2727402" lon="151.2912491">
  <ele>400.36</ele>
  <time>2026-09-01T19:55:22Z</time>
  <course>204.97</course>
  <speed>29.56322715807596</speed>
  <fix>3d</fix>
</trkpt>
<trkpt lat="-27.2726886" lon="151.2912572">
  <ele>400.2</ele>
  <time>2026-09-01T19:55:22Z</time>
  <course>185.27</course>
  <speed>30.53</speed>
  <fix>3d</fix>
</trkpt>
<trkpt lat="-27.2727663" lon="151.2912442">
  <ele>400.32</ele>
  <time>2026-09-01T19:55:22Z</time>
  <course>207.12</course>
  <speed>29.171719181426383</speed>
  <fix>3d</fix>
</trkpt>
<trkpt lat="-27.2727424" lon="151.2912496">
  <ele>400.21</ele>
  <time>2026-09-01T19:55:22Z</time>
  <course>188.94</course>
  <speed>29.71</speed>
  <fix>3d</fix>
</trkpt>
<trkpt lat="-27.272792" lon="151.2912384">
  <ele>400.26</ele>
  <time>2026-09-01T19:55:22Z</time>
  <course>209.22</course>
  <speed>28.785623147675647</speed>
  <fix>3d</fix>
</trkpt>
<trkpt lat="-27.2727424" lon="151.2912496">
  <ele>400.21</ele>
  <time>2026-09-01T19:55:22Z</time>
  <course>188.94</course>
  <speed>29.71</speed>
  <fix>3d</fix>
</trkpt>
<trkpt lat="-27.2728171" lon="151.2912318">
  <ele>400.18</ele>
  <time>2026-09-01T19:55:22Z</time>
  <course>211.37</course>
  <speed>28.400971814358744</speed>
  <fix>3d</fix>
</trkpt>
<trkpt lat="-27.2727941" lon="151.2912387">
  <ele>400.12</ele>
  <time>2026-09-01T19:55:22Z</time>
  <course>192.43</course>
  <speed>28.92</speed>
  <fix>3d</fix>
</trkpt>
<trkpt lat="-27.2728417" lon="151.2912245">
  <ele>400.07</ele>
  <time>2026-09-01T19:55:22Z</time>
  <course>213.49</course>
  <speed>28.014728269251513</speed>
  <fix>3d</fix>
</trkpt>
<trkpt lat="-27.2727941" lon="151.2912387">
  <ele>400.12</ele>
  <time>2026-09-01T19:55:22Z</time>
  <course>192.43</course>
  <speed>28.92</speed>
  <fix>3d</fix>
</trkpt>
<trkpt lat="-27.2728658" lon="151.2912165">
  <ele>399.94</ele>
  <time>2026-09-01T19:55:22Z</time>
  <course>215.59</course>
  <speed>27.62881104933761</speed>
  <fix>3d</fix>
</trkpt>
<trkpt lat="-27.2728438" lon="151.2912246">
  <ele>399.94</ele>
  <time>2026-09-01T19:55:22Z</time>
  <course>195.85</course>
  <speed>28.13</speed>
  <fix>3d</fix>
</trkpt>
<trkpt lat="-27.2728893" lon="151.2912077">
  <ele>399.79</ele>
  <time>2026-09-01T19:55:22Z</time>
  <course>217.66</course>
  <speed>27.249190813673717</speed>
  <fix>3d</fix>
</trkpt>
<trkpt lat="-27.2728438" lon="151.2912246">
  <ele>399.94</ele>
  <time>2026-09-01T19:55:22Z</time>
  <course>195.85</course>
  <speed>28.13</speed>
  <fix>3d</fix>
</trkpt>
<trkpt lat="-27.2729121" lon="151.2911984">
  <ele>399.62</ele>
  <time>2026-09-01T19:55:22Z</time>
  <course>219.77</course>
  <speed>26.88178937496535</speed>
  <fix>3d</fix>
</trkpt>
<trkpt lat="-27.2728913" lon="151.2912077">
  <ele>399.67</ele>
  <time>2026-09-01T19:55:22Z</time>
  <course>199.32</course>
  <speed>27.35</speed>
  <fix>3d</fix>
</trkpt>
<trkpt lat="-27.2729348" lon="151.2911882">
  <ele>399.42</ele>
  <time>2026-09-01T19:55:22Z</time>
  <course>221.95</course>
  <speed>26.486345538786587</speed>
  <fix>3d</fix>
</trkpt>
<trkpt lat="-27.2728913" lon="151.2912077">
  <ele>399.67</ele>
  <time>2026-09-01T19:55:22Z</time>
  <course>199.32</course>
  <speed>27.35</speed>
  <fix>3d</fix>
</trkpt>
<trkpt lat="-27.2729566" lon="151.2911775">
  <ele>399.21</ele>
  <time>2026-09-01T19:55:22Z</time>
  <course>224.17</course>
  <speed>26.104566650300864</speed>
  <fix>3d</fix>
</trkpt>
<trkpt lat="-27.2729365" lon="151.2911881">
  <ele>399.32</ele>
  <time>2026-09-01T19:55:22Z</time>
  <course>202.87</course>
  <speed>26.58</speed>
  <fix>3d</fix>
</trkpt>
<trkpt lat="-27.2729777" lon="151.2911662">
  <ele>398.99</ele>
  <time>2026-09-01T19:55:22Z</time>
  <course>226.38</course>
  <speed>25.728198537791176</speed>
  <fix>3d</fix>
</trkpt>
<trkpt lat="-27.2729365" lon="151.2911881">
  <ele>399.32</ele>
  <time>2026-09-01T19:55:22Z</time>
  <course>202.87</course>
  <speed>26.58</speed>
  <fix>3d</fix>
</trkpt>
<trkpt lat="-27.2729981" lon="151.2911543">
  <ele>398.75</ele>
  <time>2026-09-01T19:55:22Z</time>
  <course>228.61</course>
  <speed>25.349654829997192</speed>
  <fix>3d</fix>
</trkpt>
<trkpt lat="-27.2729792" lon="151.2911659">
  <ele>398.9</ele>
  <time>2026-09-01T19:55:22Z</time>
  <course>206.62</course>
  <speed>25.81</speed>
  <fix>3d</fix>
</trkpt>
<trkpt lat="-27.2730179" lon="151.2911418">
  <ele>398.5</ele>
  <time>2026-09-01T19:55:22Z</time>
  <course>230.88</course>
  <speed>24.970782927253204</speed>
  <fix>3d</fix>
</trkpt>
<trkpt lat="-27.2729792" lon="151.2911659">
  <ele>398.9</ele>
  <time>2026-09-01T19:55:22Z</time>
  <course>206.62</course>
  <speed>25.81</speed>
  <fix>3d</fix>
</trkpt>
<trkpt lat="-27.2730369" lon="151.2911286">
  <ele>398.24</ele>
  <time>2026-09-01T19:55:22Z</time>
  <course>233.14</course>
  <speed>24.58287208606838</speed>
  <fix>3d</fix>
</trkpt>
<trkpt lat="-27.2730193" lon="151.2911413">
  <ele>398.43</ele>
  <time>2026-09-01T19:55:22Z</time>
  <course>210.6</course>
  <speed>25.04</speed>
  <fix>3d</fix>
</trkpt>
<trkpt lat="-27.2730552" lon="151.291115">
  <ele>397.98</ele>
  <time>2026-09-01T19:55:22Z</time>
  <course>235.44</course>
  <speed>24.200297518832286</speed>
  <fix>3d</fix>
</trkpt>
<trkpt lat="-27.2730193" lon="151.2911413">
  <ele>398.43</ele>
  <time>2026-09-01T19:55:22Z</time>
  <course>210.6</course>
  <speed>25.04</speed>
  <fix>3d</fix>
</trkpt>
<trkpt lat="-27.2730728" lon="151.2911007">
  <ele>397.7</ele>
  <time>2026-09-01T19:55:22Z</time>
  <course>237.76</course>
  <speed>23.82204441268633</speed>
  <fix>3d</fix>
</trkpt>
<trkpt lat="-27.2730565" lon="151.2911145">
  <ele>397.91</ele>
  <time>2026-09-01T19:55:22Z</time>
  <course>214.82</course>
  <speed>24.26</speed>
  <fix>3d</fix>
</trkpt>
<trkpt lat="-27.2730896" lon="151.291086">
  <ele>397.42</ele>
  <time>2026-09-01T19:55:22Z</time>
  <course>240.09</course>
  <speed>23.45373744203682</speed>
  <fix>3d</fix>
</trkpt>
<trkpt lat="-27.2730565" lon="151.2911145">
  <ele>397.91</ele>
  <time>2026-09-01T19:55:22Z</time>
  <course>214.82</course>
  <speed>24.26</speed>
  <fix>3d</fix>
</trkpt>
<trkpt lat="-27.2731056" lon="151.2910707">
  <ele>397.14</ele>
  <time>2026-09-01T19:55:22Z</time>
  <course>242.45</course>
  <speed>23.07255729215988</speed>
  <fix>3d</fix>
</trkpt>
<trkpt lat="-27.2730908" lon="151.2910854">
  <ele>397.38</ele>
  <time>2026-09-01T19:55:22Z</time>
  <course>219.26</course>
  <speed>23.5</speed>
  <fix>3d</fix>
</trkpt>
<trkpt lat="-27.2731208" lon="151.291055">
  <ele>396.86</ele>
  <time>2026-09-01T19:55:22Z</time>
  <course>244.81</course>
  <speed>22.70209241457712</speed>
  <fix>3d</fix>
</trkpt>
<trkpt lat="-27.2730908" lon="151.2910854">
  <ele>397.38</ele>
  <time>2026-09-01T19:55:22Z</time>
  <course>219.26</course>
  <speed>23.5</speed>
  <fix>3d</fix>
</trkpt>
<trkpt lat="-27.2731351" lon="151.2910389">
  <ele>396.58</ele>
  <time>2026-09-01T19:55:22Z</time>
  <course>247.13</course>
  <speed>22.336561955681542</speed>
  <fix>3d</fix>
</trkpt>
<trkpt lat="-27.2731219" lon="151.2910543">
  <ele>396.83</ele>
  <time>2026-09-01T19:55:22Z</time>
  <course>223.95</course>
  <speed>22.75</speed>
  <fix>3d</fix>
</trkpt>
<trkpt lat="-27.2731486" lon="151.2910223">
  <ele>396.31</ele>
  <time>2026-09-01T19:55:22Z</time>
  <course>249.38</course>
  <speed>21.98842650123014</speed>
  <fix>3d</fix>
</trkpt>
<trkpt lat="-27.2731219" lon="151.2910543">
  <ele>396.83</ele>
  <time>2026-09-01T19:55:22Z</time>
  <course>223.95</course>
  <speed>22.75</speed>
  <fix>3d</fix>
</trkpt>
<trkpt lat="-27.2731613" lon="151.2910054">
  <ele>396.05</ele>
  <time>2026-09-01T19:55:22Z</time>
  <course>251.6</course>
  <speed>21.64113906429142</speed>
  <fix>3d</fix>
</trkpt>
<trkpt lat="-27.2731497" lon="151.2910215">
  <ele>396.29</ele>
  <time>2026-09-01T19:55:22Z</time>
  <course>228.77</course>
  <speed>22.03</speed>
  <fix>3d</fix>
</trkpt>
<trkpt lat="-27.2731731" lon="151.2909882">
  <ele>395.79</ele>
  <time>2026-09-01T19:55:22Z</time>
  <course>253.81</course>
  <speed>21.314513834474386</speed>
  <fix>3d</fix>
</trkpt>
<trkpt lat="-27.2731497" lon="151.2910215">
  <ele>396.29</ele>
  <time>2026-09-01T19:55:22Z</time>
  <course>228.77</course>
  <speed>22.03</speed>
  <fix>3d</fix>
</trkpt>
<trkpt lat="-27.2731842" lon="151.2909708">
  <ele>395.53</ele>
  <time>2026-09-01T19:55:22Z</time>
  <course>255.95</course>
  <speed>20.99308695737718</speed>
  <fix>3d</fix>
</trkpt>
<trkpt lat="-27.2731742" lon="151.2909874">
  <ele>395.78</ele>
  <time>2026-09-01T19:55:22Z</time>
  <course>233.59</course>
  <speed>21.35</speed>
  <fix>3d</fix>
</trkpt>
<trkpt lat="-27.2731944" lon="151.290953">
  <ele>395.29</ele>
  <time>2026-09-01T19:55:22Z</time>
  <course>257.97</course>
  <speed>20.680899400171164</speed>
  <fix>3d</fix>
</trkpt>
<trkpt lat="-27.2731742" lon="151.2909874">
  <ele>395.78</ele>
  <time>2026-09-01T19:55:22Z</time>
  <course>233.59</course>
  <speed>21.35</speed>
  <fix>3d</fix>
</trkpt>
<trkpt lat="-27.2732038" lon="151.2909351">
  <ele>395.05</ele>
  <time>2026-09-01T19:55:22Z</time>
  <course>259.9</course>
  <speed>20.390510047568696</speed>
  <fix>3d</fix>
</trkpt>
<trkpt lat="-27.2731953" lon="151.2909522">
  <ele>395.29</ele>
  <time>2026-09-01T19:55:22Z</time>
  <course>238.36</course>
  <speed>20.72</speed>
  <fix>3d</fix>
</trkpt>
<trkpt lat="-27.2732125" lon="151.2909171">
  <ele>394.83</ele>
  <time>2026-09-01T19:55:22Z</time>
  <course>261.75</course>
  <speed>20.121284750234018</speed>
  <fix>3d</fix>
</trkpt>
<trkpt lat="-27.2731953" lon="151.2909522">
  <ele>395.29</ele>
  <time>2026-09-01T19:55:22Z</time>
  <course>238.36</course>
  <speed>20.72</speed>
  <fix>3d</fix>
</trkpt>
<trkpt lat="-27.2732204" lon="151.2908989">
  <ele>394.61</ele>
  <time>2026-09-01T19:55:22Z</time>
  <course>263.54</course>
  <speed>19.8725967100427</speed>
  <fix>3d</fix>
</trkpt>
<trkpt lat="-27.2732133" lon="151.2909162">
  <ele>394.84</ele>
  <time>2026-09-01T19:55:22Z</time>
  <course>242.91</course>
  <speed>20.16</speed>
  <fix>3d</fix>
</trkpt>
<trkpt lat="-27.2732276" lon="151.2908808">
  <ele>394.4</ele>
  <time>2026-09-01T19:55:22Z</time>
  <course>265.28</course>
  <speed>19.641043760452245</speed>
  <fix>3d</fix>
</trkpt>
<trkpt lat="-27.2732133" lon="151.2909162">
  <ele>394.84</ele>
  <time>2026-09-01T19:55:22Z</time>
  <course>242.91</course>
  <speed>20.16</speed>
  <fix>3d</fix>
</trkpt>
<trkpt lat="-27.2732342" lon="151.2908624">
  <ele>394.19</ele>
  <time>2026-09-01T19:55:22Z</time>
  <course>266.86</course>
  <speed>19.422234680901166</speed>
  <fix>3d</fix>
</trkpt>
<trkpt lat="-27.2732283" lon="151.2908797">
  <ele>394.41</ele>
  <time>2026-09-01T19:55:22Z</time>
  <course>247.16</course>
  <speed>19.67</speed>
  <fix>3d</fix>
</trkpt>
<trkpt lat="-27.2732402" lon="151.2908441">
  <ele>393.99</ele>
  <time>2026-09-01T19:55:22Z</time>
  <course>268.36</course>
  <speed>19.224653442910224</speed>
  <fix>3d</fix>
</trkpt>
<trkpt lat="-27.2732283" lon="151.2908797">
  <ele>394.41</ele>
  <time>2026-09-01T19:55:22Z</time>
  <course>247.16</course>
  <speed>19.67</speed>
  <fix>3d</fix>
</trkpt>
<trkpt lat="-27.2732456" lon="151.2908257">
  <ele>393.79</ele>
  <time>2026-09-01T19:55:22Z</time>
  <course>269.84</course>
  <speed>19.047272770661944</speed>
  <fix>3d</fix>
</trkpt>
<trkpt lat="-27.2732407" lon="151.290843">
  <ele>394.0</ele>
  <time>2026-09-01T19:55:22Z</time>
  <course>251.08</course>
  <speed>19.26</speed>
  <fix>3d</fix>
</trkpt>
<trkpt lat="-27.2732504" lon="151.2908071">
  <ele>393.6</ele>
  <time>2026-09-01T19:55:22Z</time>
  <course>271.3</course>
  <speed>18.875319864839376</speed>
  <fix>3d</fix>
</trkpt>
<trkpt lat="-27.2732407" lon="151.290843">
  <ele>394.0</ele>
  <time>2026-09-01T19:55:22Z</time>
  <course>251.08</course>
  <speed>19.26</speed>
  <fix>3d</fix>
</trkpt>
<trkpt lat="-27.2732547" lon="151.2907887">
  <ele>393.41</ele>
  <time>2026-09-01T19:55:22Z</time>
  <course>272.64</course>
  <speed>18.71908117403202</speed>
  <fix>3d</fix>
</trkpt>
<trkpt lat="-27.2732509" lon="151.2908061">
  <ele>393.62</ele>
  <time>2026-09-01T19:55:22Z</time>
  <course>254.68</course>
  <speed>18.91</speed>
  <fix>3d</fix>
</trkpt>
<trkpt lat="-27.2732585" lon="151.2907703">
  <ele>393.23</ele>
  <time>2026-09-01T19:55:22Z</time>
  <course>273.88</course>
  <speed>18.578266872881333</speed>
  <fix>3d</fix>
</trkpt>
<trkpt lat="-27.2732509" lon="151.2908061">
  <ele>393.62</ele>
  <time>2026-09-01T19:55:22Z</time>
  <course>254.68</course>
  <speed>18.91</speed>
  <fix>3d</fix>
</trkpt>
<trkpt lat="-27.2732618" lon="151.2907519">
  <ele>393.06</ele>
  <time>2026-09-01T19:55:22Z</time>
  <course>275.11</course>
  <speed>18.457727379068096</speed>
  <fix>3d</fix>
</trkpt>
<trkpt lat="-27.2732588" lon="151.2907693">
  <ele>393.26</ele>
  <time>2026-09-01T19:55:22Z</time>
  <course>258.01</course>
  <speed>18.61</speed>
  <fix>3d</fix>
</trkpt>
<trkpt lat="-27.2732647" lon="151.2907334">
  <ele>392.88</ele>
  <time>2026-09-01T19:55:22Z</time>
  <course>276.31</course>
  <speed>18.342306289013933</speed>
  <fix>3d</fix>
</trkpt>
<trkpt lat="-27.2732588" lon="151.2907693">
  <ele>393.26</ele>
  <time>2026-09-01T19:55:22Z</time>
  <course>258.01</course>
  <speed>18.61</speed>
  <fix>3d</fix>
</trkpt>
<trkpt lat="-27.2732671" lon="151.290715">
  <ele>392.72</ele>
  <time>2026-09-01T19:55:22Z</time>
  <course>277.4</course>
  <speed>18.233992980145626</speed>
  <fix>3d</fix>
</trkpt>
<trkpt lat="-27.2732648" lon="151.2907325">
  <ele>392.92</ele>
  <time>2026-09-01T19:55:22Z</time>
  <course>261.06</course>
  <speed>18.37</speed>
  <fix>3d</fix>
</trkpt>
<trkpt lat="-27.2732691" lon="151.2906968">
  <ele>392.55</ele>
  <time>2026-09-01T19:55:22Z</time>
  <course>278.44</course>
  <speed>18.139487313592962</speed>
  <fix>3d</fix>
</trkpt>
<trkpt lat="-27.2732648" lon="151.2907325">
  <ele>392.92</ele>
  <time>2026-09-01T19:55:22Z</time>
  <course>261.06</course>
  <speed>18.37</speed>
  <fix>3d</fix>
</trkpt>
<trkpt lat="-27.2732707" lon="151.2906785">
  <ele>392.4</ele>
  <time>2026-09-01T19:55:22Z</time>
  <course>279.5</course>
  <speed>18.056649744623172</speed>
  <fix>3d</fix>
</trkpt>
<trkpt lat="-27.2732691" lon="151.2906959">
  <ele>392.6</ele>
  <time>2026-09-01T19:55:22Z</time>
  <course>263.91</course>
  <speed>18.17</speed>
  <fix>3d</fix>
</trkpt>
<trkpt lat="-27.2732718" lon="151.2906603">
  <ele>392.25</ele>
  <time>2026-09-01T19:55:22Z</time>
  <course>280.5</course>
  <speed>17.97555284268053</speed>
  <fix>3d</fix>
</trkpt>
<trkpt lat="-27.2732691" lon="151.2906959">
  <ele>392.6</ele>
  <time>2026-09-01T19:55:22Z</time>
  <course>263.91</course>
  <speed>18.17</speed>
  <fix>3d</fix>
</trkpt>
<trkpt lat="-27.2732727" lon="151.2906421">
  <ele>392.12</ele>
  <time>2026-09-01T19:55:22Z</time>
  <course>281.42</course>
  <speed>17.904887600875913</speed>
  <fix>3d</fix>
</trkpt>
<trkpt lat="-27.2732717" lon="151.2906594">
  <ele>392.31</ele>
  <time>2026-09-01T19:55:22Z</time>
  <course>266.59</course>
  <speed>18.01</speed>
  <fix>3d</fix>
</trkpt>
<trkpt lat="-27.2732731" lon="151.290624">
  <ele>391.98</ele>
  <time>2026-09-01T19:55:22Z</time>
  <course>282.43</course>
  <speed>17.843432965659943</speed>
  <fix>3d</fix>
</trkpt>
<trkpt lat="-27.2732717" lon="151.2906594">
  <ele>392.31</ele>
  <time>2026-09-01T19:55:22Z</time>
  <course>266.59</course>
  <speed>18.01</speed>
  <fix>3d</fix>
</trkpt>
<trkpt lat="-27.2732733" lon="151.2906059">
  <ele>391.86</ele>
  <time>2026-09-01T19:55:22Z</time>
  <course>283.38</course>
  <speed>17.790011242267386</speed>
  <fix>3d</fix>
</trkpt>
<trkpt lat="-27.2732729" lon="151.2906231">
  <ele>392.04</ele>
  <time>2026-09-01T19:55:22Z</time>
  <course>269.1</course>
  <speed>17.87</speed>
  <fix>3d</fix>
</trkpt>
<trkpt lat="-27.273273" lon="151.2905879">
  <ele>391.75</ele>
  <time>2026-09-01T19:55:22Z</time>
  <course>284.23</course>
  <speed>17.734288821376516</speed>
  <fix>3d</fix>
</trkpt>
<trkpt lat="-27.2732729" lon="151.2906231">
  <ele>392.04</ele>
  <time>2026-09-01T19:55:22Z</time>
  <course>269.1</course>
  <speed>17.87</speed>
  <fix>3d</fix>
</trkpt>
<trkpt lat="-27.2732725" lon="151.29057">
  <ele>391.65</ele>
  <time>2026-09-01T19:55:22Z</time>
  <course>285.06</course>
  <speed>17.68590964581692</speed>
  <fix>3d</fix>
</trkpt>
<trkpt lat="-27.2732728" lon="151.2905871">
  <ele>391.81</ele>
  <time>2026-09-01T19:55:22Z</time>
  <course>271.49</course>
  <speed>17.76</speed>
  <fix>3d</fix>
</trkpt>
<trkpt lat="-27.2732717" lon="151.2905521">
  <ele>391.55</ele>
  <time>2026-09-01T19:55:22Z</time>
  <course>285.86</course>
  <speed>17.64432203288072</speed>
  <fix>3d</fix>
</trkpt>
<trkpt lat="-27.2732728" lon="151.2905871">
  <ele>391.81</ele>
  <time>2026-09-01T19:55:22Z</time>
  <course>271.49</course>
  <speed>17.76</speed>
  <fix>3d</fix>
</trkpt>
<trkpt lat="-27.2732705" lon="151.2905343">
  <ele>391.47</ele>
  <time>2026-09-01T19:55:22Z</time>
  <course>286.7</course>
  <speed>17.598195930265124</speed>
  <fix>3d</fix>
</trkpt>
<trkpt lat="-27.2732714" lon="151.2905514">
  <ele>391.62</ele>
  <time>2026-09-01T19:55:22Z</time>
  <course>273.78</course>
  <speed>17.66</speed>
  <fix>3d</fix>
</trkpt>
<trkpt lat="-27.2732691" lon="151.2905165">
  <ele>391.4</ele>
  <time>2026-09-01T19:55:22Z</time>
  <course>287.48</course>
  <speed>17.557431475019346</speed>
  <fix>3d</fix>
</trkpt>
<trkpt lat="-27.2732714" lon="151.2905514">
  <ele>391.62</ele>
  <time>2026-09-01T19:55:22Z</time>
  <course>273.78</course>
  <speed>17.66</speed>
  <fix>3d</fix>
</trkpt>
<trkpt lat="-27.2732673" lon="151.290499">
  <ele>391.34</ele>
  <time>2026-09-01T19:55:22Z</time>
  <course>288.25</course>
  <speed>17.522696710266942</speed>
  <fix>3d</fix>
</trkpt>
<trkpt lat="-27.2732687" lon="151.2905159">
  <ele>391.47</ele>
  <time>2026-09-01T19:55:22Z</time>
  <course>275.95</course>
  <speed>17.57</speed>
  <fix>3d</fix>
</trkpt>
<trkpt lat="-27.2732653" lon="151.2904814">
  <ele>391.28</ele>
  <time>2026-09-01T19:55:22Z</time>
  <course>289.08</course>
  <speed>17.472850368500268</speed>
  <fix>3d</fix>
</trkpt>
<trkpt lat="-27.2732687" lon="151.2905159">
  <ele>391.47</ele>
  <time>2026-09-01T19:55:22Z</time>
  <course>275.95</course>
  <speed>17.57</speed>
  <fix>3d</fix>
</trkpt>
<trkpt lat="-27.273263" lon="151.2904639">
  <ele>391.25</ele>
  <time>2026-09-01T19:55:22Z</time>
  <course>289.76</course>
  <speed>17.428841040069187</speed>
  <fix>3d</fix>
</trkpt>
<trkpt lat="-27.2732649" lon="151.2904808">
  <ele>391.36</ele>
  <time>2026-09-01T19:55:22Z</time>
  <course>278.05</course>
  <speed>17.49</speed>
  <fix>3d</fix>
</trkpt>
<trkpt lat="-27.2732604" lon="151.2904465">
  <ele>391.22</ele>
  <time>2026-09-01T19:55:22Z</time>
  <course>290.47</course>
  <speed>17.397126199461795</speed>
  <fix>3d</fix>
</trkpt>
<trkpt lat="-27.2732649" lon="151.2904808">
  <ele>391.36</ele>
  <time>2026-09-01T19:55:22Z</time>
  <course>278.05</course>
  <speed>17.49</speed>
  <fix>3d</fix>
</trkpt>
<trkpt lat="-27.2732575" lon="151.290429">
  <ele>391.2</ele>
  <time>2026-09-01T19:55:22Z</time>
  <course>291.19</course>
  <speed>17.36262940916496</speed>
  <fix>3d</fix>
</trkpt>
<trkpt lat="-27.2732599" lon="151.290446">
  <ele>391.29</ele>
  <time>2026-09-01T19:55:22Z</time>
  <course>280.09</course>
  <speed>17.41</speed>
  <fix>3d</fix>
</trkpt>
<trkpt lat="-27.2732544" lon="151.2904118">
  <ele>391.19</ele>
  <time>2026-09-01T19:55:22Z</time>
  <course>291.79</course>
  <speed>17.327553202919333</speed>
  <fix>3d</fix>
</trkpt>
<trkpt lat="-27.2732599" lon="151.290446">
  <ele>391.29</ele>
  <time>2026-09-01T19:55:22Z</time>
  <course>280.09</course>
  <speed>17.41</speed>
  <fix>3d</fix>
</trkpt>
<trkpt lat="-27.273251" lon="151.2903947">
  <ele>391.18</ele>
  <time>2026-09-01T19:55:22Z</time>
  <course>292.47</course>
  <speed>17.28733640558892</speed>
  <fix>3d</fix>
</trkpt>
<trkpt lat="-27.2732539" lon="151.2904115">
  <ele>391.26</ele>
  <time>2026-09-01T19:55:22Z</time>
  <course>282.02</course>
  <speed>17.33</speed>
  <fix>3d</fix>
</trkpt>
<trkpt lat="-27.2732474" lon="151.2903777">
  <ele>391.18</ele>
  <time>2026-09-01T19:55:22Z</time>
  <course>293.14</course>
  <speed>17.256584250656328</speed>
  <fix>3d</fix>
</trkpt>
<trkpt lat="-27.2732539" lon="151.2904115">
  <ele>391.26</ele>
  <time>2026-09-01T19:55:22Z</time>
  <course>282.02</course>
  <speed>17.33</speed>
  <fix>3d</fix>
</trkpt>
<trkpt lat="-27.2732435" lon="151.2903608">
  <ele>391.18</ele>
  <time>2026-09-01T19:55:22Z</time>
  <course>293.81</course>
  <speed>17.216471763982305</speed>
  <fix>3d</fix>
</trkpt>
<trkpt lat="-27.2732469" lon="151.2903774">
  <ele>391.25</ele>
  <time>2026-09-01T19:55:22Z</time>
  <course>283.93</course>
  <speed>17.26</speed>
  <fix>3d</fix>
</trkpt>
<trkpt lat="-27.2732394" lon="151.290344">
  <ele>391.2</ele>
  <time>2026-09-01T19:55:22Z</time>
  <course>294.48</course>
  <speed>17.181213577626</speed>
  <fix>3d</fix>
</trkpt>
<trkpt lat="-27.2732469" lon="151.2903774">
  <ele>391.25</ele>
  <time>2026-09-01T19:55:22Z</time>
  <course>283.93</course>
  <speed>17.26</speed>
  <fix>3d</fix>
</trkpt>
<trkpt lat="-27.2732351" lon="151.2903273">
  <ele>391.21</ele>
  <time>2026-09-01T19:55:23Z</time>
  <course>295.15</course>
  <speed>17.150839629592483</speed>
  <fix>3d</fix>
</trkpt>
<trkpt lat="-27.2732389" lon="151.2903438">
  <ele>391.27</ele>
  <time>2026-09-01T19:55:23Z</time>
  <course>285.86</course>
  <speed>17.19</speed>
  <fix>3d</fix>
</trkpt>
<trkpt lat="-27.2732305" lon="151.2903107">
  <ele>391.23</ele>
  <time>2026-09-01T19:55:23Z</time>
  <course>295.83</course>
  <speed>17.115846458764462</speed>
  <fix>3d</fix>
</trkpt>
<trkpt lat="-27.2732389" lon="151.2903438">
  <ele>391.27</ele>
  <time>2026-09-01T19:55:23Z</time>
  <course>285.86</course>
  <speed>17.19</speed>
  <fix>3d</fix>
</trkpt>
<trkpt lat="-27.2732257" lon="151.2902943">
  <ele>391.26</ele>
  <time>2026-09-01T19:55:23Z</time>
  <course>296.47</course>
  <speed>17.066941729554244</speed>
  <fix>3d</fix>
</trkpt>
<trkpt lat="-27.2732301" lon="151.2903106">
  <ele>391.31</ele>
  <time>2026-09-01T19:55:23Z</time>
  <course>287.8</course>
  <speed>17.11</speed>
  <fix>3d</fix>
</trkpt>
<trkpt lat="-27.2732206" lon="151.290278">
  <ele>391.29</ele>
  <time>2026-09-01T19:55:23Z</time>
  <course>297.11</course>
  <speed>17.0293863659264</speed>
  <fix>3d</fix>
</trkpt>
<trkpt lat="-27.2732301" lon="151.2903106">
  <ele>391.31</ele>
  <time>2026-09-01T19:55:23Z</time>
  <course>287.8</course>
  <speed>17.11</speed>
  <fix>3d</fix>
</trkpt>
<trkpt lat="-27.2732153" lon="151.2902619">
  <ele>391.32</ele>
  <time>2026-09-01T19:55:23Z</time>
  <course>297.78</course>
  <speed>16.99088284934011</speed>
  <fix>3d</fix>
</trkpt>
<trkpt lat="-27.2732202" lon="151.2902778">
  <ele>391.37</ele>
  <time>2026-09-01T19:55:23Z</time>
  <course>289.77</course>
  <speed>17.03</speed>
  <fix>3d</fix>
</trkpt>
<trkpt lat="-27.2732097" lon="151.2902458">
  <ele>391.36</ele>
  <time>2026-09-01T19:55:23Z</time>
  <course>298.5</course>
  <speed>16.9484542068001</speed>
  <fix>3d</fix>
</trkpt>
<trkpt lat="-27.2732202" lon="151.2902778">
  <ele>391.37</ele>
  <time>2026-09-01T19:55:23Z</time>
  <course>289.77</course>
  <speed>17.03</speed>
  <fix>3d</fix>
</trkpt>
<trkpt lat="-27.2732039" lon="151.2902299">
  <ele>391.41</ele>
  <time>2026-09-01T19:55:23Z</time>
  <course>299.14</course>
  <speed>16.91156113432465</speed>
  <fix>3d</fix>
</trkpt>
<trkpt lat="-27.2732093" lon="151.2902457">
  <ele>391.44</ele>
  <time>2026-09-01T19:55:23Z</time>
  <course>291.78</course>
  <speed>16.95</speed>
  <fix>3d</fix>
</trkpt>
<trkpt lat="-27.2731979" lon="151.2902142">
  <ele>391.45</ele>
  <time>2026-09-01T19:55:23Z</time>
  <course>299.83</course>
  <speed>16.87108769463309</speed>
  <fix>3d</fix>
</trkpt>
<trkpt lat="-27.2732093" lon="151.2902457">
  <ele>391.44</ele>
  <time>2026-09-01T19:55:23Z</time>
  <course>291.78</course>
  <speed>16.95</speed>
  <fix>3d</fix>
</trkpt>
<trkpt lat="-27.2731916" lon="151.2901987">
  <ele>391.5</ele>
  <time>2026-09-01T19:55:23Z</time>
  <course>300.51</course>
  <speed>16.836368373256747</speed>
  <fix>3d</fix>
</trkpt>
<trkpt lat="-27.2731975" lon="151.2902143">
  <ele>391.53</ele>
  <time>2026-09-01T19:55:23Z</time>
  <course>293.85</course>
  <speed>16.87</speed>
  <fix>3d</fix>
</trkpt>
<trkpt lat="-27.2731851" lon="151.2901833">
  <ele>391.56</ele>
  <time>2026-09-01T19:55:23Z</time>
  <course>301.28</course>
  <speed>16.794076336613454</speed>
  <fix>3d</fix>
</trkpt>
<trkpt lat="-27.2731975" lon="151.2902143">
  <ele>391.53</ele>
  <time>2026-09-01T19:55:23Z</time>
  <course>293.85</course>
  <speed>16.87</speed>
  <fix>3d</fix>
</trkpt>
<trkpt lat="-27.2731784" lon="151.2901682">
  <ele>391.61</ele>
  <time>2026-09-01T19:55:23Z</time>
  <course>302.01</course>
  <speed>16.753056437557895</speed>
  <fix>3d</fix>
</trkpt>
<trkpt lat="-27.2731848" lon="151.2901834">
  <ele>391.64</ele>
  <time>2026-09-01T19:55:23Z</time>
  <course>295.97</course>
  <speed>16.79</speed>
  <fix>3d</fix>
</trkpt>
<trkpt lat="-27.2731715" lon="151.2901534">
  <ele>391.67</ele>
  <time>2026-09-01T19:55:23Z</time>
  <course>302.68</course>
  <speed>16.71412576236041</speed>
  <fix>3d</fix>
</trkpt>
<trkpt lat="-27.2731848" lon="151.2901834">
  <ele>391.64</ele>
  <time>2026-09-01T19:55:23Z</time>
  <course>295.97</course>
  <speed>16.79</speed>
  <fix>3d</fix>
</trkpt>
<trkpt lat="-27.2731643" lon="151.2901387">
  <ele>391.73</ele>
  <time>2026-09-01T19:55:23Z</time>
  <course>303.34</course>
  <speed>16.680923235840396</speed>
  <fix>3d</fix>
</trkpt>
<trkpt lat="-27.2731711" lon="151.2901532">
  <ele>391.76</ele>
  <time>2026-09-01T19:55:23Z</time>
  <course>298.16</course>
  <speed>16.72</speed>
  <fix>3d</fix>
</trkpt>
<trkpt lat="-27.2731569" lon="151.2901241">
  <ele>391.79</ele>
  <time>2026-09-01T19:55:23Z</time>
  <course>304.02</course>
  <speed>16.641445249737174</speed>
  <fix>3d</fix>
</trkpt>
<trkpt lat="-27.2731711" lon="151.2901532">
  <ele>391.76</ele>
  <time>2026-09-01T19:55:23Z</time>
  <course>298.16</course>
  <speed>16.72</speed>
  <fix>3d</fix>
</trkpt>
<trkpt lat="-27.2731492" lon="151.2901098">
  <ele>391.85</ele>
  <time>2026-09-01T19:55:23Z</time>
  <course>304.74</course>
  <speed>16.60867243340057</speed>
  <fix>3d</fix>
</trkpt>
<trkpt lat="-27.2731564" lon="151.2901238">
  <ele>391.88</ele>
  <time>2026-09-01T19:55:23Z</time>
  <course>300.4</course>
  <speed>16.65</speed>
  <fix>3d</fix>
</trkpt>
<trkpt lat="-27.2731413" lon="151.2900955">
  <ele>391.91</ele>
  <time>2026-09-01T19:55:23Z</time>
  <course>305.53</course>
  <speed>16.568829168049263</speed>
  <fix>3d</fix>
</trkpt>
<trkpt lat="-27.2731564" lon="151.2901238">
  <ele>391.88</ele>
  <time>2026-09-01T19:55:23Z</time>
  <course>300.4</course>
  <speed>16.65</speed>
  <fix>3d</fix>
</trkpt>
<trkpt lat="-27.2731331" lon="151.2900816">
  <ele>391.98</ele>
  <time>2026-09-01T19:55:23Z</time>
  <course>306.34</course>
  <speed>16.538479373872313</speed>
  <fix>3d</fix>
</trkpt>
<trkpt lat="-27.2731408" lon="151.2900952">
  <ele>392.0</ele>
  <time>2026-09-01T19:55:23Z</time>
  <course>302.7</course>
  <speed>16.58</speed>
  <fix>3d</fix>
</trkpt>
<trkpt lat="-27.2731247" lon="151.2900679">
  <ele>392.05</ele>
  <time>2026-09-01T19:55:23Z</time>
  <course>307.07</course>
  <speed>16.49607225978354</speed>
  <fix>3d</fix>
</trkpt>
<trkpt lat="-27.2731408" lon="151.2900952">
  <ele>392.0</ele>
  <time>2026-09-01T19:55:23Z</time>
  <course>302.7</course>
  <speed>16.58</speed>
  <fix>3d</fix>
</trkpt>
<trkpt lat="-27.2731161" lon="151.2900544">
  <ele>392.12</ele>
  <time>2026-09-01T19:55:23Z</time>
  <course>307.85</course>
  <speed>16.46894046379426</speed>
  <fix>3d</fix>
</trkpt>
<trkpt lat="-27.2731243" lon="151.2900674">
  <ele>392.14</ele>
  <time>2026-09-01T19:55:23Z</time>
  <course>305.07</course>
  <speed>16.52</speed>
  <fix>3d</fix>
</trkpt>
<trkpt lat="-27.2731072" lon="151.2900411">
  <ele>392.19</ele>
  <time>2026-09-01T19:55:23Z</time>
  <course>308.65</course>
  <speed>16.44696324553563</speed>
  <fix>3d</fix>
</trkpt>
<trkpt lat="-27.2731243" lon="151.2900674">
  <ele>392.14</ele>
  <time>2026-09-01T19:55:23Z</time>
  <course>305.07</course>
  <speed>16.52</speed>
  <fix>3d</fix>
</trkpt>
<trkpt lat="-27.2730981" lon="151.2900281">
  <ele>392.25</ele>
  <time>2026-09-01T19:55:23Z</time>
  <course>309.38</course>
  <speed>16.410755619410097</speed>
  <fix>3d</fix>
</trkpt>
<trkpt lat="-27.2731068" lon="151.2900406">
  <ele>392.28</ele>
  <time>2026-09-01T19:55:23Z</time>
  <course>307.49</course>
  <speed>16.46</speed>
  <fix>3d</fix>
</trkpt>
<trkpt lat="-27.2730888" lon="151.2900153">
  <ele>392.32</ele>
  <time>2026-09-01T19:55:23Z</time>
  <course>310.13</course>
  <speed>16.383650386894857</speed>
  <fix>3d</fix>
</trkpt>
<trkpt lat="-27.2731068" lon="151.2900406">
  <ele>392.28</ele>
  <time>2026-09-01T19:55:23Z</time>
  <course>307.49</course>
  <speed>16.46</speed>
  <fix>3d</fix>
</trkpt>
<trkpt lat="-27.2730793" lon="151.2900027">
  <ele>392.39</ele>
  <time>2026-09-01T19:55:23Z</time>
  <course>310.89</course>
  <speed>16.363841236091236</speed>
  <fix>3d</fix>
</trkpt>
<trkpt lat="-27.2730883" lon="151.2900146">
  <ele>392.41</ele>
  <time>2026-09-01T19:55:23Z</time>
  <course>309.92</course>
  <speed>16.41</speed>
  <fix>3d</fix>
</trkpt>
<trkpt lat="-27.2730695" lon="151.2899904">
  <ele>392.45</ele>
  <time>2026-09-01T19:55:23Z</time>
  <course>311.71</course>
  <speed>16.34396830638141</speed>
  <fix>3d</fix>
</trkpt>
<trkpt lat="-27.2730883" lon="151.2900146">
  <ele>392.41</ele>
  <time>2026-09-01T19:55:23Z</time>
  <course>309.92</course>
  <speed>16.41</speed>
  <fix>3d</fix>
</trkpt>
<trkpt lat="-27.2730595" lon="151.2899784">
  <ele>392.51</ele>
  <time>2026-09-01T19:55:23Z</time>
  <course>312.5</course>
  <speed>16.32449080369737</speed>
  <fix>3d</fix>
</trkpt>
<trkpt lat="-27.2730688" lon="151.2899896">
  <ele>392.54</ele>
  <time>2026-09-01T19:55:23Z</time>
  <course>312.38</course>
  <speed>16.37</speed>
  <fix>3d</fix>
</trkpt>
<trkpt lat="-27.2730493" lon="151.2899666">
  <ele>392.58</ele>
  <time>2026-09-01T19:55:23Z</time>
  <course>313.28</course>
  <speed>16.31295497449803</speed>
  <fix>3d</fix>
</trkpt>
<trkpt lat="-27.2730688" lon="151.2899896">
  <ele>392.54</ele>
  <time>2026-09-01T19:55:23Z</time>
  <course>312.38</course>
  <speed>16.37</speed>
  <fix>3d</fix>
</trkpt>
<trkpt lat="-27.2730388" lon="151.289955">
  <ele>392.64</ele>
  <time>2026-09-01T19:55:23Z</time>
  <course>314.07</course>
  <speed>16.30249367428186</speed>
  <fix>3d</fix>
</trkpt>
<trkpt lat="-27.2730485" lon="151.2899657">
  <ele>392.66</ele>
  <time>2026-09-01T19:55:23Z</time>
  <course>314.91</course>
  <speed>16.34</speed>
  <fix>3d</fix>
</trkpt>
<trkpt lat="-27.2730281" lon="151.2899437">
  <ele>392.71</ele>
  <time>2026-09-01T19:55:23Z</time>
  <course>314.89</course>
  <speed>16.292949395367312</speed>
  <fix>3d</fix>
</trkpt>
<trkpt lat="-27.2730485" lon="151.2899657">
  <ele>392.66</ele>
  <time>2026-09-01T19:55:23Z</time>
  <course>314.91</course>
  <speed>16.34</speed>
  <fix>3d</fix>
</trkpt>
<trkpt lat="-27.2730173" lon="151.2899327">
  <ele>392.77</ele>
  <time>2026-09-01T19:55:23Z</time>
  <course>315.66</course>
  <speed>16.29141184796456</speed>
  <fix>3d</fix>
</trkpt>
<trkpt lat="-27.2730273" lon="151.2899429">
  <ele>392.79</ele>
  <time>2026-09-01T19:55:23Z</time>
  <course>317.45</course>
  <speed>16.32</speed>
  <fix>3d</fix>
</trkpt>
<trkpt lat="-27.2730061" lon="151.289922">
  <ele>392.83</ele>
  <time>2026-09-01T19:55:23Z</time>
  <course>316.48</course>
  <speed>16.29146095351795</speed>
  <fix>3d</fix>
</trkpt>
<trkpt lat="-27.2730273" lon="151.2899429">
  <ele>392.79</ele>
  <time>2026-09-01T19:55:23Z</time>
  <course>317.45</course>
  <speed>16.32</speed>
  <fix>3d</fix>
</trkpt>
<trkpt lat="-27.2729948" lon="151.2899116">
  <ele>392.89</ele>
  <time>2026-09-01T19:55:23Z</time>
  <course>317.33</course>
  <speed>16.293612245294167</speed>
  <fix>3d</fix>
</trkpt>
<trkpt lat="-27.2730054" lon="151.2899211">
  <ele>392.91</ele>
  <time>2026-09-01T19:55:23Z</time>
  <course>320.02</course>
  <speed>16.31</speed>
  <fix>3d</fix>
</trkpt>
<trkpt lat="-27.2729833" lon="151.2899014">
  <ele>392.95</ele>
  <time>2026-09-01T19:55:23Z</time>
  <course>318.24</course>
  <speed>16.296502692295668</speed>
  <fix>3d</fix>
</trkpt>
<trkpt lat="-27.2730054" lon="151.2899211">
  <ele>392.91</ele>
  <time>2026-09-01T19:55:23Z</time>
  <course>320.02</course>
  <speed>16.31</speed>
  <fix>3d</fix>
</trkpt>
<trkpt lat="-27.2729715" lon="151.2898915">
  <ele>393.0</ele>
  <time>2026-09-01T19:55:23Z</time>
  <course>319.08</course>
  <speed>16.31000919680918</speed>
  <fix>3d</fix>
</trkpt>
<trkpt lat="-27.2729825" lon="151.2899006">
  <ele>393.02</ele>
  <time>2026-09-01T19:55:23Z</time>
  <course>322.64</course>
  <speed>16.32</speed>
  <fix>3d</fix>
</trkpt>
<trkpt lat="-27.2729596" lon="151.289882">
  <ele>393.05</ele>
  <time>2026-09-01T19:55:23Z</time>
  <course>319.93</course>
  <speed>16.32431621845154</speed>
  <fix>3d</fix>
</trkpt>
<trkpt lat="-27.2729825" lon="151.2899006">
  <ele>393.02</ele>
  <time>2026-09-01T19:55:23Z</time>
  <course>322.64</course>
  <speed>16.32</speed>
  <fix>3d</fix>
</trkpt>
<trkpt lat="-27.2729474" lon="151.2898728">
  <ele>393.1</ele>
  <time>2026-09-01T19:55:23Z</time>
  <course>320.82</course>
  <speed>16.336376587236227</speed>
  <fix>3d</fix>
</trkpt>
<trkpt lat="-27.2729587" lon="151.2898812">
  <ele>393.13</ele>
  <time>2026-09-01T19:55:23Z</time>
  <course>325.33</course>
  <speed>16.34</speed>
  <fix>3d</fix>
</trkpt>
<trkpt lat="-27.272935" lon="151.2898638">
  <ele>393.15</ele>
  <time>2026-09-01T19:55:23Z</time>
  <course>321.7</course>
  <speed>16.361139935835766</speed>
  <fix>3d</fix>
</trkpt>
<trkpt lat="-27.2729587" lon="151.2898812">
  <ele>393.13</ele>
  <time>2026-09-01T19:55:23Z</time>
  <course>325.33</course>
  <speed>16.34</speed>
  <fix>3d</fix>
</trkpt>
<trkpt lat="-27.2729223" lon="151.2898552">
  <ele>393.21</ele>
  <time>2026-09-01T19:55:23Z</time>
  <course>322.57</course>
  <speed>16.38740064805886</speed>
  <fix>3d</fix>
</trkpt>
<trkpt lat="-27.2729342" lon="151.289863">
  <ele>393.22</ele>
  <time>2026-09-01T19:55:23Z</time>
  <course>328.11</course>
  <speed>16.37</speed>
  <fix>3d</fix>
</trkpt>
<trkpt lat="-27.2729095" lon="151.2898469">
  <ele>393.26</ele>
  <time>2026-09-01T19:55:23Z</time>
  <course>323.46</course>
  <speed>16.409878122643082</speed>
  <fix>3d</fix>
</trkpt>
<trkpt lat="-27.2729342" lon="151.289863">
  <ele>393.22</ele>
  <time>2026-09-01T19:55:23Z</time>
  <course>328.11</course>
  <speed>16.37</speed>
  <fix>3d</fix>
</trkpt>
<trkpt lat="-27.2728965" lon="151.289839">
  <ele>393.31</ele>
  <time>2026-09-01T19:55:23Z</time>
  <course>324.27</course>
  <speed>16.44272483501442</speed>
  <fix>3d</fix>
</trkpt>
<trkpt lat="-27.2729087" lon="151.2898462">
  <ele>393.33</ele>
  <time>2026-09-01T19:55:23Z</time>
  <course>330.89</course>
  <speed>16.43</speed>
  <fix>3d</fix>
</trkpt>
<trkpt lat="-27.2728833" lon="151.2898314">
  <ele>393.36</ele>
  <time>2026-09-01T19:55:23Z</time>
  <course>325.16</course>
  <speed>16.479957524217106</speed>
  <fix>3d</fix>
</trkpt>
<trkpt lat="-27.2729087" lon="151.2898462">
  <ele>393.33</ele>
  <time>2026-09-01T19:55:23Z</time>
  <course>330.89</course>
  <speed>16.43</speed>
  <fix>3d</fix>
</trkpt>
<trkpt lat="-27.2728699" lon="151.2898241">
  <ele>393.4</ele>
  <time>2026-09-01T19:55:23Z</time>
  <course>326.07</course>
  <speed>16.517303048621464</speed>
  <fix>3d</fix>
</trkpt>
<trkpt lat="-27.2728826" lon="151.2898306">
  <ele>393.43</ele>
  <time>2026-09-01T19:55:23Z</time>
  <course>333.6</course>
  <speed>16.49</speed>
  <fix>3d</fix>
</trkpt>
<trkpt lat="-27.2728563" lon="151.2898172">
  <ele>393.44</ele>
  <time>2026-09-01T19:55:23Z</time>
  <course>326.99</course>
  <speed>16.564700419868753</speed>
  <fix>3d</fix>
</trkpt>
<trkpt lat="-27.2728826" lon="151.2898306">
  <ele>393.43</ele>
  <time>2026-09-01T19:55:23Z</time>
  <course>333.6</course>
  <speed>16.49</speed>
  <fix>3d</fix>
</trkpt>
<trkpt lat="-27.2728425" lon="151.2898106">
  <ele>393.49</ele>
  <time>2026-09-01T19:55:23Z</time>
  <course>327.97</course>
  <speed>16.618212900309107</speed>
  <fix>3d</fix>
</trkpt>
<trkpt lat="-27.2728557" lon="151.2898166">
  <ele>393.52</ele>
  <time>2026-09-01T19:55:23Z</time>
  <course>336.36</course>
  <speed>16.57</speed>
  <fix>3d</fix>
</trkpt>
<trkpt lat="-27.2728286" lon="151.2898044">
  <ele>393.53</ele>
  <time>2026-09-01T19:55:23Z</time>
  <course>328.89</course>
  <speed>16.67842918262988</speed>
  <fix>3d</fix>
</trkpt>
<trkpt lat="-27.2728557" lon="151.2898166">
  <ele>393.52</ele>
  <time>2026-09-01T19:55:23Z</time>
  <course>336.36</course>
  <speed>16.57</speed>
  <fix>3d</fix>
</trkpt>
<trkpt lat="-27.2728145" lon="151.2897986">
  <ele>393.57</ele>
  <time>2026-09-01T19:55:23Z</time>
  <course>329.79</course>
  <speed>16.730361621913616</speed>
  <fix>3d</fix>
</trkpt>
<trkpt lat="-27.272828" lon="151.2898038">
  <ele>393.6</ele>
  <time>2026-09-01T19:55:23Z</time>
  <course>339.21</course>
  <speed>16.67</speed>
  <fix>3d</fix>
</trkpt>
<trkpt lat="-27.2728001" lon="151.2897931">
  <ele>393.62</ele>
  <time>2026-09-01T19:55:23Z</time>
  <course>330.66</course>
  <speed>16.79243877463902</speed>
  <fix>3d</fix>
</trkpt>
<trkpt lat="-27.272828" lon="151.2898038">
  <ele>393.6</ele>
  <time>2026-09-01T19:55:23Z</time>
  <course>339.21</course>
  <speed>16.67</speed>
  <fix>3d</fix>
</trkpt>
<trkpt lat="-27.2727857" lon="151.2897881">
  <ele>393.65</ele>
  <time>2026-09-01T19:55:23Z</time>
  <course>331.54</course>
  <speed>16.86454861536472</speed>
  <fix>3d</fix>
</trkpt>
<trkpt lat="-27.2727996" lon="151.2897926">
  <ele>393.69</ele>
  <time>2026-09-01T19:55:23Z</time>
  <course>342.05</course>
  <speed>16.78</speed>
  <fix>3d</fix>
</trkpt>
<trkpt lat="-27.272771" lon="151.2897834">
  <ele>393.69</ele>
  <time>2026-09-01T19:55:23Z</time>
  <course>332.54</course>
  <speed>16.931701036812573</speed>
  <fix>3d</fix>
</trkpt>
<trkpt lat="-27.2727996" lon="151.2897926">
  <ele>393.69</ele>
  <time>2026-09-01T19:55:23Z</time>
  <course>342.05</course>
  <speed>16.78</speed>
  <fix>3d</fix>
</trkpt>
<trkpt lat="-27.2727562" lon="151.2897791">
  <ele>393.73</ele>
  <time>2026-09-01T19:55:23Z</time>
  <course>333.55</course>
  <speed>17.00943855628398</speed>
  <fix>3d</fix>
</trkpt>
<trkpt lat="-27.2727706" lon="151.2897829">
  <ele>393.76</ele>
  <time>2026-09-01T19:55:23Z</time>
  <course>344.88</course>
  <speed>16.92</speed>
  <fix>3d</fix>
</trkpt>
<trkpt lat="-27.2727413" lon="151.2897752">
  <ele>393.76</ele>
  <time>2026-09-01T19:55:23Z</time>
  <course>334.53</course>
  <speed>17.085727962249663</speed>
  <fix>3d</fix>
</trkpt>
<trkpt lat="-27.2727706" lon="151.2897829">
  <ele>393.76</ele>
  <time>2026-09-01T19:55:23Z</time>
  <course>344.88</course>
  <speed>16.92</speed>
  <fix>3d</fix>
</trkpt>
<trkpt lat="-27.2727262" lon="151.2897717">
  <ele>393.8</ele>
  <time>2026-09-01T19:55:23Z</time>
  <course>335.47</course>
  <speed>17.174553851556087</speed>
  <fix>3d</fix>
</trkpt>
<trkpt lat="-27.2727409" lon="151.2897748">
  <ele>393.83</ele>
  <time>2026-09-01T19:55:23Z</time>
  <course>347.74</course>
  <speed>17.07</speed>
  <fix>3d</fix>
</trkpt>
<trkpt lat="-27.2727109" lon="151.2897686">
  <ele>393.83</ele>
  <time>2026-09-01T19:55:23Z</time>
  <course>336.43</course>
  <speed>17.260272303761607</speed>
  <fix>3d</fix>
</trkpt>
<trkpt lat="-27.2727409" lon="151.2897748">
  <ele>393.83</ele>
  <time>2026-09-01T19:55:23Z</time>
  <course>347.74</course>
  <speed>17.07</speed>
  <fix>3d</fix>
</trkpt>
<trkpt lat="-27.2726956" lon="151.2897659">
  <ele>393.86</ele>
  <time>2026-09-01T19:55:23Z</time>
  <course>337.45</course>
  <speed>17.346826799158396</speed>
  <fix>3d</fix>
</trkpt>
<trkpt lat="-27.2727107" lon="151.2897683">
  <ele>393.9</ele>
  <time>2026-09-01T19:55:23Z</time>
  <course>350.58</course>
  <speed>17.23</speed>
  <fix>3d</fix>
</trkpt>
<trkpt lat="-27.27268" lon="151.2897637">
  <ele>393.88</ele>
  <time>2026-09-01T19:55:23Z</time>
  <course>338.52</course>
  <speed>17.45267887746749</speed>
  <fix>3d</fix>
</trkpt>
<trkpt lat="-27.2727107" lon="151.2897683">
  <ele>393.9</ele>
  <time>2026-09-01T19:55:23Z</time>
  <course>350.58</course>
  <speed>17.23</speed>
  <fix>3d</fix>
</trkpt>
<trkpt lat="-27.2726644" lon="151.2897619">
  <ele>393.91</ele>
  <time>2026-09-01T19:55:23Z</time>
  <course>339.63</course>
  <speed>17.555924925790723</speed>
  <fix>3d</fix>
</trkpt>
<trkpt lat="-27.2726799" lon="151.2897635">
  <ele>393.96</ele>
  <time>2026-09-01T19:55:23Z</time>
  <course>353.49</course>
  <speed>17.42</speed>
  <fix>3d</fix>
</trkpt>
<trkpt lat="-27.2726486" lon="151.2897606">
  <ele>393.94</ele>
  <time>2026-09-01T19:55:23Z</time>
  <course>340.7</course>
  <speed>17.671819374359846</speed>
  <fix>3d</fix>
</trkpt>
<trkpt lat="-27.2726799" lon="151.2897635">
  <ele>393.96</ele>
  <time>2026-09-01T19:55:23Z</time>
  <course>353.49</course>
  <speed>17.42</speed>
  <fix>3d</fix>
</trkpt>
<trkpt lat="-27.2726327" lon="151.2897597">
  <ele>393.98</ele>
  <time>2026-09-01T19:55:23Z</time>
  <course>341.74</course>
  <speed>17.78012654623133</speed>
  <fix>3d</fix>
</trkpt>
<trkpt lat="-27.2726485" lon="151.2897604">
  <ele>394.02</ele>
  <time>2026-09-01T19:55:23Z</time>
  <course>356.52</course>
  <speed>17.64</speed>
  <fix>3d</fix>
</trkpt>
<trkpt lat="-27.2726168" lon="151.2897593">
  <ele>394.01</ele>
  <time>2026-09-01T19:55:23Z</time>
  <course>342.77</course>
  <speed>17.900472060814486</speed>
  <fix>3d</fix>
</trkpt>
<trkpt lat="-27.2726485" lon="151.2897604">
  <ele>394.02</ele>
  <time>2026-09-01T19:55:23Z</time>
  <course>356.52</course>
  <speed>17.64</speed>
  <fix>3d</fix>
</trkpt>
<trkpt lat="-27.2726007" lon="151.2897594">
  <ele>394.04</ele>
  <time>2026-09-01T19:55:23Z</time>
  <course>343.84</course>
  <speed>18.02284106349496</speed>
  <fix>3d</fix>
</trkpt>
<trkpt lat="-27.2726166" lon="151.2897592">
  <ele>394.08</ele>
  <time>2026-09-01T19:55:23Z</time>
  <course>359.55</course>
  <speed>17.87</speed>
  <fix>3d</fix>
</trkpt>
<trkpt lat="-27.2725845" lon="151.28976">
  <ele>394.07</ele>
  <time>2026-09-01T19:55:23Z</time>
  <course>344.99</course>
  <speed>18.15763200420143</speed>
  <fix>3d</fix>
</trkpt>
<trkpt lat="-27.2726166" lon="151.2897592">
  <ele>394.08</ele>
  <time>2026-09-01T19:55:23Z</time>
  <course>359.55</course>
  <speed>17.87</speed>
  <fix>3d</fix>
</trkpt>
<trkpt lat="-27.2725678" lon="151.289761">
  <ele>394.09</ele>
  <time>2026-09-01T19:55:23Z</time>
  <course>346.15</course>
  <speed>18.296242783697423</speed>
  <fix>3d</fix>
</trkpt>
<trkpt lat="-27.2725843" lon="151.2897598">
  <ele>394.14</ele>
  <time>2026-09-01T19:55:23Z</time>
  <course>2.56</course>
  <speed>18.12</speed>
  <fix>3d</fix>
</trkpt>
<trkpt lat="-27.2725514" lon="151.2897626">
  <ele>394.12</ele>
  <time>2026-09-01T19:55:23Z</time>
  <course>347.22</course>
  <speed>18.447051254875397</speed>
  <fix>3d</fix>
</trkpt>
<trkpt lat="-27.2725843" lon="151.2897598">
  <ele>394.14</ele>
  <time>2026-09-01T19:55:23Z</time>
  <course>2.56</course>
  <speed>18.12</speed>
  <fix>3d</fix>
</trkpt>
<trkpt lat="-27.2725349" lon="151.2897647">
  <ele>394.14</ele>
  <time>2026-09-01T19:55:23Z</time>
  <course>348.34</course>
  <speed>18.591573359992964</speed>
  <fix>3d</fix>
</trkpt>
<trkpt lat="-27.2725516" lon="151.2897623">
  <ele>394.19</ele>
  <time>2026-09-01T19:55:23Z</time>
  <course>5.58</course>
  <speed>18.4</speed>
  <fix>3d</fix>
</trkpt>
<trkpt lat="-27.2725183" lon="151.2897671">
  <ele>394.17</ele>
  <time>2026-09-01T19:55:23Z</time>
  <course>349.52</course>
  <speed>18.74035485256349</speed>
  <fix>3d</fix>
</trkpt>
<trkpt lat="-27.2725516" lon="151.2897623">
  <ele>394.19</ele>
  <time>2026-09-01T19:55:23Z</time>
  <course>5.58</course>
  <speed>18.4</speed>
  <fix>3d</fix>
</trkpt>
<trkpt lat="-27.2725016" lon="151.2897702">
  <ele>394.19</ele>
  <time>2026-09-01T19:55:23Z</time>
  <course>350.77</course>
  <speed>18.897502480486672</speed>
  <fix>3d</fix>
</trkpt>
<trkpt lat="-27.2725185" lon="151.289767">
  <ele>394.24</ele>
  <time>2026-09-01T19:55:23Z</time>
  <course>8.65</course>
  <speed>18.7</speed>
  <fix>3d</fix>
</trkpt>
<trkpt lat="-27.2724848" lon="151.2897739">
  <ele>394.21</ele>
  <time>2026-09-01T19:55:23Z</time>
  <course>351.99</course>
  <speed>19.070946489359148</speed>
  <fix>3d</fix>
</trkpt>
<trkpt lat="-27.2725185" lon="151.289767">
  <ele>394.24</ele>
  <time>2026-09-01T19:55:23Z</time>
  <course>8.65</course>
  <speed>18.7</speed>
  <fix>3d</fix>
</trkpt>
<trkpt lat="-27.272468" lon="151.2897781">
  <ele>394.24</ele>
  <time>2026-09-01T19:55:23Z</time>
  <course>353.25</course>
  <speed>19.239334707832285</speed>
  <fix>3d</fix>
</trkpt>
<trkpt lat="-27.2724851" lon="151.2897738">
  <ele>394.29</ele>
  <time>2026-09-01T19:55:23Z</time>
  <course>11.79</course>
  <speed>19.03</speed>
  <fix>3d</fix>
</trkpt>
<trkpt lat="-27.2724513" lon="151.2897828">
  <ele>394.27</ele>
  <time>2026-09-01T19:55:23Z</time>
  <course>354.56</course>
  <speed>19.41745863907015</speed>
  <fix>3d</fix>
</trkpt>
<trkpt lat="-27.2724851" lon="151.2897738">
  <ele>394.29</ele>
  <time>2026-09-01T19:55:23Z</time>
  <course>11.79</course>
  <speed>19.03</speed>
  <fix>3d</fix>
</trkpt>
<trkpt lat="-27.2724345" lon="151.2897882">
  <ele>394.3</ele>
  <time>2026-09-01T19:55:23Z</time>
  <course>355.81</course>
  <speed>19.601033136036477</speed>
  <fix>3d</fix>
</trkpt>
<trkpt lat="-27.2724515" lon="151.2897828">
  <ele>394.35</ele>
  <time>2026-09-01T19:55:23Z</time>
  <course>14.97</course>
  <speed>19.38</speed>
  <fix>3d</fix>
</trkpt>
<trkpt lat="-27.2724177" lon="151.289794">
  <ele>394.33</ele>
  <time>2026-09-01T19:55:23Z</time>
  <course>357.07</course>
  <speed>19.786755671408084</speed>
  <fix>3d</fix>
</trkpt>
<trkpt lat="-27.2724515" lon="151.2897828">
  <ele>394.35</ele>
  <time>2026-09-01T19:55:23Z</time>
  <course>14.97</course>
  <speed>19.38</speed>
  <fix>3d</fix>
</trkpt>
<trkpt lat="-27.2724009" lon="151.2898005">
  <ele>394.35</ele>
  <time>2026-09-01T19:55:23Z</time>
  <course>358.43</course>
  <speed>19.97771258177472</speed>
  <fix>3d</fix>
</trkpt>
<trkpt lat="-27.2724178" lon="151.2897941">
  <ele>394.4</ele>
  <time>2026-09-01T19:55:23Z</time>
  <course>18.14</course>
  <speed>19.76</speed>
  <fix>3d</fix>
</trkpt>
<trkpt lat="-27.2723841" lon="151.2898076">
  <ele>394.38</ele>
  <time>2026-09-01T19:55:23Z</time>
  <course>359.82</course>
  <speed>20.18570038418286</speed>
  <fix>3d</fix>
</trkpt>
<trkpt lat="-27.2724178" lon="151.2897941">
  <ele>394.4</ele>
  <time>2026-09-01T19:55:23Z</time>
  <course>18.14</course>
  <speed>19.76</speed>
  <fix>3d</fix>
</trkpt>
<trkpt lat="-27.2723673" lon="151.2898153">
  <ele>394.4</ele>
  <time>2026-09-01T19:55:23Z</time>
  <course>1.16</course>
  <speed>20.388097017622805</speed>
  <fix>3d</fix>
</trkpt>
<trkpt lat="-27.2723841" lon="151.2898078">
  <ele>394.45</ele>
  <time>2026-09-01T19:55:23Z</time>
  <course>21.37</course>
  <speed>20.17</speed>
  <fix>3d</fix>
</trkpt>
<trkpt lat="-27.2723505" lon="151.2898236">
  <ele>394.42</ele>
  <time>2026-09-01T19:55:23Z</time>
  <course>2.54</course>
  <speed>20.605848684293495</speed>
  <fix>3d</fix>
</trkpt>
<trkpt lat="-27.2723841" lon="151.2898078">
  <ele>394.45</ele>
  <time>2026-09-01T19:55:23Z</time>
  <course>21.37</course>
  <speed>20.17</speed>
  <fix>3d</fix>
</trkpt>
<trkpt lat="-27.2723338" lon="151.2898326">
  <ele>394.45</ele>
  <time>2026-09-01T19:55:23Z</time>
  <course>4.06</course>
  <speed>20.826948888399375</speed>
  <fix>3d</fix>
</trkpt>
<trkpt lat="-27.2723504" lon="151.2898238">
  <ele>394.49</ele>
  <time>2026-09-01T19:55:23Z</time>
  <course>24.67</course>
  <speed>20.6</speed>
  <fix>3d</fix>
</trkpt>
<trkpt lat="-27.2723172" lon="151.2898422">
  <ele>394.48</ele>
  <time>2026-09-01T19:55:23Z</time>
  <course>5.54</course>
  <speed>21.06589898390287</speed>
  <fix>3d</fix>
</trkpt>
<trkpt lat="-27.2723504" lon="151.2898238">
  <ele>394.49</ele>
  <time>2026-09-01T19:55:23Z</time>
  <course>24.67</course>
  <speed>20.6</speed>
  <fix>3d</fix>
</trkpt>
<trkpt lat="-27.2723006" lon="151.2898525">
  <ele>394.5</ele>
  <time>2026-09-01T19:55:23Z</time>
  <course>7.0</course>
  <speed>21.296772055877387</speed>
  <fix>3d</fix>
</trkpt>
<trkpt lat="-27.2723169" lon="151.2898425">
  <ele>394.54</ele>
  <time>2026-09-01T19:55:23Z</time>
  <course>28.03</course>
  <speed>21.06</speed>
  <fix>3d</fix>
</trkpt>
<trkpt lat="-27.2722841" lon="151.2898635">
  <ele>394.53</ele>
  <time>2026-09-01T19:55:23Z</time>
  <course>8.53</course>
  <speed>21.533991734000455</speed>
  <fix>3d</fix>
</trkpt>
<trkpt lat="-27.2723169" lon="151.2898425">
  <ele>394.54</ele>
  <time>2026-09-01T19:55:23Z</time>
  <course>28.03</course>
  <speed>21.06</speed>
  <fix>3d</fix>
</trkpt>
<trkpt lat="-27.2722679" lon="151.289875">
  <ele>394.57</ele>
  <time>2026-09-01T19:55:23Z</time>
  <course>10.05</course>
  <speed>21.776062545832293</speed>
  <fix>3d</fix>
</trkpt>
<trkpt lat="-27.2722837" lon="151.2898639">
  <ele>394.6</ele>
  <time>2026-09-01T19:55:23Z</time>
  <course>31.41</course>
  <speed>21.54</speed>
  <fix>3d</fix>
</trkpt>
<trkpt lat="-27.2722516" lon="151.2898873">
  <ele>394.6</ele>
  <time>2026-09-01T19:55:23Z</time>
  <course>11.66</course>
  <speed>22.0227541420232</speed>
  <fix>3d</fix>
</trkpt>
<trkpt lat="-27.2722837" lon="151.2898639">
  <ele>394.6</ele>
  <time>2026-09-01T19:55:23Z</time>
  <course>31.41</course>
  <speed>21.54</speed>
  <fix>3d</fix>
</trkpt>
<trkpt lat="-27.2722355" lon="151.2899003">
  <ele>394.63</ele>
  <time>2026-09-01T19:55:23Z</time>
  <course>13.25</course>
  <speed>22.28651834630075</speed>
  <fix>3d</fix>
</trkpt>
<trkpt lat="-27.2722508" lon="151.289888">
  <ele>394.66</ele>
  <time>2026-09-01T19:55:23Z</time>
  <course>34.81</course>
  <speed>22.05</speed>
  <fix>3d</fix>
</trkpt>
<trkpt lat="-27.2722195" lon="151.289914">
  <ele>394.66</ele>
  <time>2026-09-01T19:55:23Z</time>
  <course>14.84</course>
  <speed>22.552181712641463</speed>
  <fix>3d</fix>
</trkpt>
<trkpt lat="-27.2722508" lon="151.289888">
  <ele>394.66</ele>
  <time>2026-09-01T19:55:23Z</time>
  <course>34.81</course>
  <speed>22.05</speed>
  <fix>3d</fix>
</trkpt>
<trkpt lat="-27.2722036" lon="151.2899285">
  <ele>394.69</ele>
  <time>2026-09-01T19:55:23Z</time>
  <course>16.44</course>
  <speed>22.822631311923697</speed>
  <fix>3d</fix>
</trkpt>
<trkpt lat="-27.2722186" lon="151.2899148">
  <ele>394.72</ele>
  <time>2026-09-01T19:55:23Z</time>
  <course>38.23</course>
  <speed>22.58</speed>
  <fix>3d</fix>
</trkpt>
<trkpt lat="-27.272188" lon="151.2899437">
  <ele>394.72</ele>
  <time>2026-09-01T19:55:23Z</time>
  <course>18.07</course>
  <speed>23.091626187862992</speed>
  <fix>3d</fix>
</trkpt>
<trkpt lat="-27.2722186" lon="151.2899148">
  <ele>394.72</ele>
  <time>2026-09-01T19:55:23Z</time>
  <course>38.23</course>
  <speed>22.58</speed>
  <fix>3d</fix>
</trkpt>
<trkpt lat="-27.2721727" lon="151.2899595">
  <ele>394.75</ele>
  <time>2026-09-01T19:55:23Z</time>
  <course>19.88</course>
  <speed>23.379129581744483</speed>
  <fix>3d</fix>
</trkpt>
<trkpt lat="-27.2721872" lon="151.2899445">
  <ele>394.78</ele>
  <time>2026-09-01T19:55:23Z</time>
  <course>41.67</course>
  <speed>23.14</speed>
  <fix>3d</fix>
</trkpt>
<trkpt lat="-27.2721575" lon="151.2899761">
  <ele>394.78</ele>
  <time>2026-09-01T19:55:23Z</time>
  <course>21.68</course>
  <speed>23.681133841098067</speed>
  <fix>3d</fix>
</trkpt>
<trkpt lat="-27.2721872" lon="151.2899445">
  <ele>394.78</ele>
  <time>2026-09-01T19:55:23Z</time>
  <course>41.67</course>
  <speed>23.14</speed>
  <fix>3d</fix>
</trkpt>
<trkpt lat="-27.2721427" lon="151.2899934">
  <ele>394.81</ele>
  <time>2026-09-01T19:55:23Z</time>
  <course>23.47</course>
  <speed>23.978125447999474</speed>
  <fix>3d</fix>
</trkpt>
<trkpt lat="-27.2721566" lon="151.2899771">
  <ele>394.84</ele>
  <time>2026-09-01T19:55:23Z</time>
  <course>45.18</course>
  <speed>23.72</speed>
  <fix>3d</fix>
</trkpt>
<trkpt lat="-27.2721282" lon="151.2900115">
  <ele>394.84</ele>
  <time>2026-09-01T19:55:23Z</time>
  <course>25.28</course>
  <speed>24.2922415598067</speed>
  <fix>3d</fix>
</trkpt>
<trkpt lat="-27.2721566" lon="151.2899771">
  <ele>394.84</ele>
  <time>2026-09-01T19:55:23Z</time>
  <course>45.18</course>
  <speed>23.72</speed>
  <fix>3d</fix>
</trkpt>
<trkpt lat="-27.2721138" lon="151.2900304">
  <ele>394.87</ele>
  <time>2026-09-01T19:55:23Z</time>
  <course>27.19</course>
  <speed>24.61188330867835</speed>
  <fix>3d</fix>
</trkpt>
<trkpt lat="-27.2721271" lon="151.2900126">
  <ele>394.91</ele>
  <time>2026-09-01T19:55:23Z</time>
  <course>48.78</course>
  <speed>24.34</speed>
  <fix>3d</fix>
</trkpt>
<trkpt lat="-27.2721" lon="151.29005">
  <ele>394.91</ele>
  <time>2026-09-01T19:55:23Z</time>
  <course>29.11</course>
  <speed>24.937780574862714</speed>
  <fix>3d</fix>
</trkpt>
<trkpt lat="-27.2721271" lon="151.2900126">
  <ele>394.91</ele>
  <time>2026-09-01T19:55:23Z</time>
  <course>48.78</course>
  <speed>24.34</speed>
  <fix>3d</fix>
</trkpt>
<trkpt lat="-27.2720865" lon="151.2900703">
  <ele>394.94</ele>
  <time>2026-09-01T19:55:23Z</time>
  <course>31.08</course>
  <speed>25.26535176877615</speed>
  <fix>3d</fix>
</trkpt>
<trkpt lat="-27.272099" lon="151.2900512">
  <ele>394.97</ele>
  <time>2026-09-01T19:55:23Z</time>
  <course>52.43</course>
  <speed>24.99</speed>
  <fix>3d</fix>
</trkpt>
<trkpt lat="-27.2720735" lon="151.2900914">
  <ele>394.97</ele>
  <time>2026-09-01T19:55:23Z</time>
  <course>33.15</course>
  <speed>25.610562274186794</speed>
  <fix>3d</fix>
</trkpt>
<trkpt lat="-27.272099" lon="151.2900512">
  <ele>394.97</ele>
  <time>2026-09-01T19:55:23Z</time>
  <course>52.43</course>
  <speed>24.99</speed>
  <fix>3d</fix>
</trkpt>
<trkpt lat="-27.2720609" lon="151.2901133">
  <ele>395.01</ele>
  <time>2026-09-01T19:55:23Z</time>
  <course>35.24</course>
  <speed>25.95094603285206</speed>
  <fix>3d</fix>
</trkpt>
<trkpt lat="-27.2720725" lon="151.2900927">
  <ele>395.03</ele>
  <time>2026-09-01T19:55:23Z</time>
  <course>56.19</course>
  <speed>25.66</speed>
  <fix>3d</fix>
</trkpt>
<trkpt lat="-27.2720488" lon="151.2901359">
  <ele>395.05</ele>
  <time>2026-09-01T19:55:23Z</time>
  <course>37.38</course>
  <speed>26.29806076500699</speed>
  <fix>3d</fix>
</trkpt>
<trkpt lat="-27.2720725" lon="151.2900927">
  <ele>395.03</ele>
  <time>2026-09-01T19:55:23Z</time>
  <course>56.19</course>
  <speed>25.66</speed>
  <fix>3d</fix>
</trkpt>
<trkpt lat="-27.2720373" lon="151.2901593">
  <ele>395.09</ele>
  <time>2026-09-01T19:55:23Z</time>
  <course>39.66</course>
  <speed>26.653541978506347</speed>
  <fix>3d</fix>
</trkpt>
<trkpt lat="-27.2720478" lon="151.2901374">
  <ele>395.11</ele>
  <time>2026-09-01T19:55:23Z</time>
  <course>60.02</course>
  <speed>26.36</speed>
  <fix>3d</fix>
</trkpt>
<trkpt lat="-27.2720263" lon="151.2901835">
  <ele>395.13</ele>
  <time>2026-09-01T19:55:23Z</time>
  <course>41.85</course>
  <speed>27.01741845550755</speed>
  <fix>3d</fix>
</trkpt>
<trkpt lat="-27.2720478" lon="151.2901374">
  <ele>395.11</ele>
  <time>2026-09-01T19:55:23Z</time>
  <course>60.02</course>
  <speed>26.36</speed>
  <fix>3d</fix>
</trkpt>
<trkpt lat="-27.2720159" lon="151.2902084">
  <ele>395.17</ele>
  <time>2026-09-01T19:55:23Z</time>
  <course>44.13</course>
  <speed>27.38795355626265</speed>
  <fix>3d</fix>
</trkpt>
<trkpt lat="-27.2720253" lon="151.290185">
  <ele>395.19</ele>
  <time>2026-09-01T19:55:23Z</time>
  <course>63.95</course>
  <speed>27.08</speed>
  <fix>3d</fix>
</trkpt>
<trkpt lat="-27.2720062" lon="151.290234">
  <ele>395.22</ele>
  <time>2026-09-01T19:55:23Z</time>
  <course>46.56</course>
  <speed>27.772684421927963</speed>
  <fix>3d</fix>
</trkpt>
<trkpt lat="-27.2720253" lon="151.290185">
  <ele>395.19</ele>
  <time>2026-09-01T19:55:23Z</time>
  <course>63.95</course>
  <speed>27.08</speed>
  <fix>3d</fix>
</trkpt>
<trkpt lat="-27.2719973" lon="151.2902602">
  <ele>395.26</ele>
  <time>2026-09-01T19:55:23Z</time>
  <course>49.02</course>
  <speed>28.158881369827178</speed>
  <fix>3d</fix>
</trkpt>
<trkpt lat="-27.2720052" lon="151.2902358">
  <ele>395.27</ele>
  <time>2026-09-01T19:55:23Z</time>
  <course>68.04</course>
  <speed>27.84</speed>
  <fix>3d</fix>
</trkpt>
<trkpt lat="-27.271989" lon="151.2902874">
  <ele>395.32</ele>
  <time>2026-09-01T19:55:23Z</time>
  <course>51.59</course>
  <speed>28.551399265184887</speed>
  <fix>3d</fix>
</trkpt>
<trkpt lat="-27.2720052" lon="151.2902358">
  <ele>395.27</ele>
  <time>2026-09-01T19:55:23Z</time>
  <course>68.04</course>
  <speed>27.84</speed>
  <fix>3d</fix>
</trkpt>
<trkpt lat="-27.2719816" lon="151.2903152">
  <ele>395.37</ele>
  <time>2026-09-01T19:55:23Z</time>
  <course>54.18</course>
  <speed>28.944078841794223</speed>
  <fix>3d</fix>
</trkpt>
<trkpt lat="-27.271988" lon="151.2902894">
  <ele>395.37</ele>
  <time>2026-09-01T19:55:23Z</time>
  <course>72.29</course>
  <speed>28.62</speed>
  <fix>3d</fix>
</trkpt>
<trkpt lat="-27.271975" lon="151.2903437">
  <ele>395.43</ele>
  <time>2026-09-01T19:55:23Z</time>
  <course>56.85</course>
  <speed>29.349126051724266</speed>
  <fix>3d</fix>
</trkpt>
<trkpt lat="-27.271988" lon="151.2902894">
  <ele>395.37</ele>
  <time>2026-09-01T19:55:23Z</time>
  <course>72.29</course>
  <speed>28.62</speed>
  <fix>3d</fix>
</trkpt>
<trkpt lat="-27.2719694" lon="151.2903729">
  <ele>395.49</ele>
  <time>2026-09-01T19:55:23Z</time>
  <course>59.61</course>
  <speed>29.74323788695508</speed>
  <fix>3d</fix>
</trkpt>
<trkpt lat="-27.2719741" lon="151.2903459">
  <ele>395.47</ele>
  <time>2026-09-01T19:55:23Z</time>
  <course>76.67</course>
  <speed>29.41</speed>
  <fix>3d</fix>
</trkpt>
<trkpt lat="-27.2719646" lon="151.290403">
  <ele>395.55</ele>
  <time>2026-09-01T19:55:23Z</time>
  <course>62.4</course>
  <speed>30.152943471575046</speed>
  <fix>3d</fix>
</trkpt>
<trkpt lat="-27.2719741" lon="151.2903459">
  <ele>395.47</ele>
  <time>2026-09-01T19:55:23Z</time>
  <course>76.67</course>
  <speed>29.41</speed>
  <fix>3d</fix>
</trkpt>
<trkpt lat="-27.271961" lon="151.2904334">
  <ele>395.62</ele>
  <time>2026-09-01T19:55:23Z</time>
  <course>65.32</course>
  <speed>30.544330079410813</speed>
  <fix>3d</fix>
</trkpt>
<trkpt lat="-27.2719638" lon="151.290405">
  <ele>395.59</ele>
  <time>2026-09-01T19:55:23Z</time>
  <course>81.18</course>
  <speed>30.21</speed>
  <fix>3d</fix>
</trkpt>
<trkpt lat="-27.2719583" lon="151.2904643">
  <ele>395.69</ele>
  <time>2026-09-01T19:55:23Z</time>
  <course>68.21</course>
  <speed>30.940467029442203</speed>
  <fix>3d</fix>
</trkpt>
<trkpt lat="-27.2719638" lon="151.290405">
  <ele>395.59</ele>
  <time>2026-09-01T19:55:23Z</time>
  <course>81.18</course>
  <speed>30.21</speed>
  <fix>3d</fix>
</trkpt>
<trkpt lat="-27.2719568" lon="151.2904958">
  <ele>395.76</ele>
  <time>2026-09-01T19:55:23Z</time>
  <course>71.08</course>
  <speed>31.325965268447835</speed>
  <fix>3d</fix>
</trkpt>
<trkpt lat="-27.2719576" lon="151.2904666">
  <ele>395.72</ele>
  <time>2026-09-01T19:55:23Z</time>
  <course>85.79</course>
  <speed>31.0</speed>
  <fix>3d</fix>
</trkpt>
<trkpt lat="-27.2719564" lon="151.2905277">
  <ele>395.84</ele>
  <time>2026-09-01T19:55:23Z</time>
  <course>74.14</course>
  <speed>31.711236178994977</speed>
  <fix>3d</fix>
</trkpt>
<trkpt lat="-27.2719576" lon="151.2904666">
  <ele>395.72</ele>
  <time>2026-09-01T19:55:23Z</time>
  <course>85.79</course>
  <speed>31.0</speed>
  <fix>3d</fix>
</trkpt>
<trkpt lat="-27.2719572" lon="151.29056">
  <ele>395.92</ele>
  <time>2026-09-01T19:55:23Z</time>
  <course>77.31</course>
  <speed>32.09193200790504</speed>
  <fix>3d</fix>
</trkpt>
<trkpt lat="-27.2719558" lon="151.2905301">
  <ele>395.88</ele>
  <time>2026-09-01T19:55:23Z</time>
  <course>90.5</course>
  <speed>31.77</speed>
  <fix>3d</fix>
</trkpt>
<trkpt lat="-27.2719592" lon="151.2905927">
  <ele>396.0</ele>
  <time>2026-09-01T19:55:23Z</time>
  <course>80.53</course>
  <speed>32.474489988296966</speed>
  <fix>3d</fix>
</trkpt>
<trkpt lat="-27.2719558" lon="151.2905301">
  <ele>395.88</ele>
  <time>2026-09-01T19:55:23Z</time>
  <course>90.5</course>
  <speed>31.77</speed>
  <fix>3d</fix>
</trkpt>
<trkpt lat="-27.2719626" lon="151.2906256">
  <ele>396.09</ele>
  <time>2026-09-01T19:55:23Z</time>
  <course>83.72</course>
  <speed>32.83124274224173</speed>
  <fix>3d</fix>
</trkpt>
<trkpt lat="-27.2719587" lon="151.290595">
  <ele>396.04</ele>
  <time>2026-09-01T19:55:23Z</time>
  <course>95.38</course>
  <speed>32.52</speed>
  <fix>3d</fix>
</trkpt>
<trkpt lat="-27.2719672" lon="151.2906586">
  <ele>396.18</ele>
  <time>2026-09-01T19:55:23Z</time>
  <course>86.99</course>
  <speed>33.183278921770224</speed>
  <fix>3d</fix>
</trkpt>
<trkpt lat="-27.2719587" lon="151.290595">
  <ele>396.04</ele>
  <time>2026-09-01T19:55:23Z</time>
  <course>95.38</course>
  <speed>32.52</speed>
  <fix>3d</fix>
</trkpt>
<trkpt lat="-27.2719731" lon="151.2906917">
  <ele>396.28</ele>
  <time>2026-09-01T19:55:23Z</time>
  <course>90.46</course>
  <speed>33.52733959025082</speed>
  <fix>3d</fix>
</trkpt>
<trkpt lat="-27.2719667" lon="151.2906608">
  <ele>396.22</ele>
  <time>2026-09-01T19:55:23Z</time>
  <course>100.37</course>
  <speed>33.23</speed>
  <fix>3d</fix>
</trkpt>
<trkpt lat="-27.2719805" lon="151.2907249">
  <ele>396.38</ele>
  <time>2026-09-01T19:55:23Z</time>
  <course>93.91</course>
  <speed>33.84517247703134</speed>
  <fix>3d</fix>
</trkpt>
<trkpt lat="-27.2719667" lon="151.2906608">
  <ele>396.22</ele>
  <time>2026-09-01T19:55:23Z</time>
  <course>100.37</course>
  <speed>33.23</speed>
  <fix>3d</fix>
</trkpt>
<trkpt lat="-27.2719893" lon="151.2907578">
  <ele>396.48</ele>
  <time>2026-09-01T19:55:23Z</time>
  <course>97.32</course>
  <speed>34.15312577202854</speed>
  <fix>3d</fix>
</trkpt>
<trkpt lat="-27.2719802" lon="151.2907268">
  <ele>396.42</ele>
  <time>2026-09-01T19:55:23Z</time>
  <course>105.48</course>
  <speed>33.89</speed>
  <fix>3d</fix>
</trkpt>
<trkpt lat="-27.2719995" lon="151.2907906">
  <ele>396.59</ele>
  <time>2026-09-01T19:55:23Z</time>
  <course>101.0</course>
  <speed>34.44659925159522</speed>
  <fix>3d</fix>
</trkpt>
<trkpt lat="-27.2719802" lon="151.2907268">
  <ele>396.42</ele>
  <time>2026-09-01T19:55:23Z</time>
  <course>105.48</course>
  <speed>33.89</speed>
  <fix>3d</fix>
</trkpt>
<trkpt lat="-27.2720112" lon="151.2908233">
  <ele>396.71</ele>
  <time>2026-09-01T19:55:23Z</time>
  <course>104.61</course>
  <speed>34.7178801196156</speed>
  <fix>3d</fix>
</trkpt>
<trkpt lat="-27.2719994" lon="151.2907925">
  <ele>396.63</ele>
  <time>2026-09-01T19:55:23Z</time>
  <course>110.76</course>
  <speed>34.48</speed>
  <fix>3d</fix>
</trkpt>
<trkpt lat="-27.2720243" lon="151.2908554">
  <ele>396.83</ele>
  <time>2026-09-01T19:55:23Z</time>
  <course>108.28</course>
  <speed>34.955018237729476</speed>
  <fix>3d</fix>
</trkpt>
<trkpt lat="-27.2719994" lon="151.2907925">
  <ele>396.63</ele>
  <time>2026-09-01T19:55:23Z</time>
  <course>110.76</course>
  <speed>34.48</speed>
  <fix>3d</fix>
</trkpt>
<trkpt lat="-27.2720388" lon="151.2908869">
  <ele>396.95</ele>
  <time>2026-09-01T19:55:23Z</time>
  <course>112.08</course>
  <speed>35.18102471503637</speed>
  <fix>3d</fix>
</trkpt>
<trkpt lat="-27.2720242" lon="151.2908569">
  <ele>396.86</ele>
  <time>2026-09-01T19:55:23Z</time>
  <course>116.16</course>
  <speed>35.0</speed>
  <fix>3d</fix>
</trkpt>
<trkpt lat="-27.2720546" lon="151.2909175">
  <ele>397.07</ele>
  <time>2026-09-01T19:55:23Z</time>
  <course>115.87</course>
  <speed>35.37793238729477</speed>
  <fix>3d</fix>
</trkpt>
<trkpt lat="-27.2720242" lon="151.2908569">
  <ele>396.86</ele>
  <time>2026-09-01T19:55:23Z</time>
  <course>116.16</course>
  <speed>35.0</speed>
  <fix>3d</fix>
</trkpt>
<trkpt lat="-27.272072" lon="151.2909476">
  <ele>397.2</ele>
  <time>2026-09-01T19:55:23Z</time>
  <course>119.74</course>
  <speed>35.54094118055964</speed>
  <fix>3d</fix>
</trkpt>
<trkpt lat="-27.2720548" lon="151.2909191">
  <ele>397.1</ele>
  <time>2026-09-01T19:55:23Z</time>
  <course>121.7</course>
  <speed>35.41</speed>
  <fix>3d</fix>
</trkpt>
<trkpt lat="-27.2720908" lon="151.2909769">
  <ele>397.34</ele>
  <time>2026-09-01T19:55:23Z</time>
  <course>123.65</course>
  <speed>35.67367797129979</speed>
  <fix>3d</fix>
</trkpt>
<trkpt lat="-27.2720548" lon="151.2909191">
  <ele>397.1</ele>
  <time>2026-09-01T19:55:23Z</time>
  <course>121.7</course>
  <speed>35.41</speed>
  <fix>3d</fix>
</trkpt>
<trkpt lat="-27.2721109" lon="151.2910051">
  <ele>397.48</ele>
  <time>2026-09-01T19:55:23Z</time>
  <course>127.58</course>
  <speed>35.77230772539004</speed>
  <fix>3d</fix>
</trkpt>
<trkpt lat="-27.272091" lon="151.2909783">
  <ele>397.36</ele>
  <time>2026-09-01T19:55:23Z</time>
  <course>127.39</course>
  <speed>35.7</speed>
  <fix>3d</fix>
</trkpt>
<trkpt lat="-27.2721325" lon="151.2910324">
  <ele>397.63</ele>
  <time>2026-09-01T19:55:23Z</time>
  <course>131.51</course>
  <speed>35.832601077789484</speed>
  <fix>3d</fix>
</trkpt>
<trkpt lat="-27.272091" lon="151.2909783">
  <ele>397.36</ele>
  <time>2026-09-01T19:55:23Z</time>
  <course>127.39</course>
  <speed>35.7</speed>
  <fix>3d</fix>
</trkpt>
<trkpt lat="-27.2721551" lon="151.2910583">
  <ele>397.78</ele>
  <time>2026-09-01T19:55:23Z</time>
  <course>135.45</course>
  <speed>35.84233530338111</speed>
  <fix>3d</fix>
</trkpt>
<trkpt lat="-27.2721325" lon="151.2910334">
  <ele>397.64</ele>
  <time>2026-09-01T19:55:23Z</time>
  <course>133.13</course>
  <speed>35.85</speed>
  <fix>3d</fix>
</trkpt>
<trkpt lat="-27.2721789" lon="151.2910829">
  <ele>397.94</ele>
  <time>2026-09-01T19:55:23Z</time>
  <course>139.38</course>
  <speed>35.83590378377529</speed>
  <fix>3d</fix>
</trkpt>
<trkpt lat="-27.2721325" lon="151.2910334">
  <ele>397.64</ele>
  <time>2026-09-01T19:55:23Z</time>
  <course>133.13</course>
  <speed>35.85</speed>
  <fix>3d</fix>
</trkpt>
<trkpt lat="-27.2722036" lon="151.291106">
  <ele>398.09</ele>
  <time>2026-09-01T19:55:23Z</time>
  <course>143.25</course>
  <speed>35.775815853730016</speed>
  <fix>3d</fix>
</trkpt>
<trkpt lat="-27.272179" lon="151.2910838">
  <ele>397.94</ele>
  <time>2026-09-01T19:55:23Z</time>
  <course>138.87</course>
  <speed>35.85</speed>
  <fix>3d</fix>
</trkpt>
<trkpt lat="-27.2722293" lon="151.2911278">
  <ele>398.25</ele>
  <time>2026-09-01T19:55:23Z</time>
  <course>147.08</course>
  <speed>35.68580950461962</speed>
  <fix>3d</fix>
</trkpt>
<trkpt lat="-27.272179" lon="151.2910838">
  <ele>397.94</ele>
  <time>2026-09-01T19:55:23Z</time>
  <course>138.87</course>
  <speed>35.85</speed>
  <fix>3d</fix>
</trkpt>
<trkpt lat="-27.2722558" lon="151.291148">
  <ele>398.41</ele>
  <time>2026-09-01T19:55:23Z</time>
  <course>151.01</course>
  <speed>35.549617438166614</speed>
  <fix>3d</fix>
</trkpt>
<trkpt lat="-27.2722295" lon="151.2911287">
  <ele>398.24</ele>
  <time>2026-09-01T19:55:23Z</time>
  <course>144.59</course>
  <speed>35.7</speed>
  <fix>3d</fix>
</trkpt>
<trkpt lat="-27.2722831" lon="151.2911666">
  <ele>398.56</ele>
  <time>2026-09-01T19:55:23Z</time>
  <course>154.89</course>
  <speed>35.385909625160124</speed>
  <fix>3d</fix>
</trkpt>
<trkpt lat="-27.2722295" lon="151.2911287">
  <ele>398.24</ele>
  <time>2026-09-01T19:55:23Z</time>
  <course>144.59</course>
  <speed>35.7</speed>
  <fix>3d</fix>
</trkpt>
<trkpt lat="-27.2723111" lon="151.2911835">
  <ele>398.72</ele>
  <time>2026-09-01T19:55:23Z</time>
  <course>158.7</course>
  <speed>35.191547280561565</speed>
  <fix>3d</fix>
</trkpt>
<trkpt lat="-27.2722834" lon="151.2911673">
  <ele>398.55</ele>
  <time>2026-09-01T19:55:23Z</time>
  <course>150.3</course>
  <speed>35.41</speed>
  <fix>3d</fix>
</trkpt>
<trkpt lat="-27.2723396" lon="151.2911988">
  <ele>398.87</ele>
  <time>2026-09-01T19:55:23Z</time>
  <course>162.54</course>
  <speed>34.984775260104215</speed>
  <fix>3d</fix>
</trkpt>
<trkpt lat="-27.2722834" lon="151.2911673">
  <ele>398.55</ele>
  <time>2026-09-01T19:55:23Z</time>
  <course>150.3</course>
  <speed>35.41</speed>
  <fix>3d</fix>
</trkpt>
<trkpt lat="-27.2723685" lon="151.2912124">
  <ele>399.02</ele>
  <time>2026-09-01T19:55:23Z</time>
  <course>166.37</course>
  <speed>34.7234214904004</speed>
  <fix>3d</fix>
</trkpt>
<trkpt lat="-27.2723398" lon="151.2911995">
  <ele>398.86</ele>
  <time>2026-09-01T19:55:23Z</time>
  <course>155.98</course>
  <speed>35.0</speed>
  <fix>3d</fix>
</trkpt>
<trkpt lat="-27.2723977" lon="151.2912243">
  <ele>399.17</ele>
  <time>2026-09-01T19:55:23Z</time>
  <course>170.09</course>
  <speed>34.43091633982459</speed>
  <fix>3d</fix>
</trkpt>
<trkpt lat="-27.2723398" lon="151.2911995">
  <ele>398.86</ele>
  <time>2026-09-01T19:55:23Z</time>
  <course>155.98</course>
  <speed>35.0</speed>
  <fix>3d</fix>
</trkpt>
<trkpt lat="-27.2724272" lon="151.2912344">
  <ele>399.32</ele>
  <time>2026-09-01T19:55:23Z</time>
  <course>173.74</course>
  <speed>34.10051319261925</speed>
  <fix>3d</fix>
</trkpt>
<trkpt lat="-27.272398" lon="151.2912248">
  <ele>399.15</ele>
  <time>2026-09-01T19:55:23Z</time>
  <course>161.6</course>
  <speed>34.46</speed>
  <fix>3d</fix>
</trkpt>
<trkpt lat="-27.2724568" lon="151.2912429">
  <ele>399.46</ele>
  <time>2026-09-01T19:55:23Z</time>
  <course>177.15</course>
  <speed>33.760465044190376</speed>
  <fix>3d</fix>
</trkpt>
<trkpt lat="-27.272398" lon="151.2912248">
  <ele>399.15</ele>
  <time>2026-09-01T19:55:23Z</time>
  <course>161.6</course>
  <speed>34.46</speed>
  <fix>3d</fix>
</trkpt>
<trkpt lat="-27.2724864" lon="151.2912498">
  <ele>399.59</ele>
  <time>2026-09-01T19:55:23Z</time>
  <course>180.55</course>
  <speed>33.38986223391765</speed>
  <fix>3d</fix>
</trkpt>
<trkpt lat="-27.2724569" lon="151.2912434">
  <ele>399.43</ele>
  <time>2026-09-01T19:55:23Z</time>
  <course>167.04</course>
  <speed>33.8</speed>
  <fix>3d</fix>
</trkpt>
<trkpt lat="-27.2725159" lon="151.2912552">
  <ele>399.72</ele>
  <time>2026-09-01T19:55:23Z</time>
  <course>183.87</course>
  <speed>33.002751400451444</speed>
  <fix>3d</fix>
</trkpt>
<trkpt lat="-27.2724569" lon="151.2912434">
  <ele>399.43</ele>
  <time>2026-09-01T19:55:23Z</time>
  <course>167.04</course>
  <speed>33.8</speed>
  <fix>3d</fix>
</trkpt>
<trkpt lat="-27.2725452" lon="151.291259">
  <ele>399.84</ele>
  <time>2026-09-01T19:55:23Z</time>
  <course>186.97</course>
  <speed>32.600184048560216</speed>
  <fix>3d</fix>
</trkpt>
<trkpt lat="-27.272516" lon="151.2912556">
  <ele>399.69</ele>
  <time>2026-09-01T19:55:23Z</time>
  <course>172.16</course>
  <speed>33.05</speed>
  <fix>3d</fix>
</trkpt>
<trkpt lat="-27.2725744" lon="151.2912614">
  <ele>399.95</ele>
  <time>2026-09-01T19:55:23Z</time>
  <course>190.01</course>
  <speed>32.19282684077309</speed>
  <fix>3d</fix>
</trkpt>
<trkpt lat="-27.272516" lon="151.2912556">
  <ele>399.69</ele>
  <time>2026-09-01T19:55:23Z</time>
  <course>172.16</course>
  <speed>33.05</speed>
  <fix>3d</fix>
</trkpt>
<trkpt lat="-27.2726032" lon="151.2912624">
  <ele>400.05</ele>
  <time>2026-09-01T19:55:23Z</time>
  <course>192.94</course>
  <speed>31.762040236735423</speed>
  <fix>3d</fix>
</trkpt>
<trkpt lat="-27.2725744" lon="151.2912617">
  <ele>399.92</ele>
  <time>2026-09-01T19:55:23Z</time>
  <course>177.01</course>
  <speed>32.23</speed>
  <fix>3d</fix>
</trkpt>
<trkpt lat="-27.2726316" lon="151.2912622">
  <ele>400.13</ele>
  <time>2026-09-01T19:55:23Z</time>
  <course>195.73</course>
  <speed>31.34152836094628</speed>
  <fix>3d</fix>
</trkpt>
<trkpt lat="-27.2725744" lon="151.2912617">
  <ele>399.92</ele>
  <time>2026-09-01T19:55:23Z</time>
  <course>177.01</course>
  <speed>32.23</speed>
  <fix>3d</fix>
</trkpt>
<trkpt lat="-27.2726596" lon="151.2912608">
  <ele>400.2</ele>
  <time>2026-09-01T19:55:23Z</time>
  <course>198.41</course>
  <speed>30.914116516568935</speed>
  <fix>3d</fix>
</trkpt>
<trkpt lat="-27.2726315" lon="151.2912626">
  <ele>400.1</ele>
  <time>2026-09-01T19:55:23Z</time>
  <course>181.53</course>
  <speed>31.39</speed>
  <fix>3d</fix>
</trkpt>
<trkpt lat="-27.2726872" lon="151.2912583">
  <ele>400.25</ele>
  <time>2026-09-01T19:55:23Z</time>
  <course>200.97</course>
  <speed>30.493920705609504</speed>
  <fix>3d</fix>
</trkpt>
<trkpt lat="-27.2726315" lon="151.2912626">
  <ele>400.1</ele>
  <time>2026-09-01T19:55:23Z</time>
  <course>181.53</course>
  <speed>31.39</speed>
  <fix>3d</fix>
</trkpt>
<trkpt lat="-27.2727145" lon="151.2912548">
  <ele>400.28</ele>
  <time>2026-09-01T19:55:23Z</time>
  <course>203.36</course>
  <speed>30.062696153206222</speed>
  <fix>3d</fix>
</trkpt>
<trkpt lat="-27.272687" lon="151.2912587">
  <ele>400.22</ele>
  <time>2026-09-01T19:55:23Z</time>
  <course>185.73</course>
  <speed>30.54</speed>
  <fix>3d</fix>
</trkpt>
<trkpt lat="-27.272741" lon="151.2912503">
  <ele>400.3</ele>
  <time>2026-09-01T19:55:23Z</time>
  <course>205.71</course>
  <speed>29.64450201976751</speed>
  <fix>3d</fix>
</trkpt>
<trkpt lat="-27.272687" lon="151.2912587">
  <ele>400.22</ele>
  <time>2026-09-01T19:55:23Z</time>
  <course>185.73</course>
  <speed>30.54</speed>
  <fix>3d</fix>
</trkpt>
<trkpt lat="-27.2727669" lon="151.2912449">
  <ele>400.29</ele>
  <time>2026-09-01T19:55:23Z</time>
  <course>208.03</course>
  <speed>29.219406222577486</speed>
  <fix>3d</fix>
</trkpt>
<trkpt lat="-27.2727406" lon="151.2912505">
  <ele>400.26</ele>
  <time>2026-09-01T19:55:23Z</time>
  <course>189.6</course>
  <speed>29.7</speed>
  <fix>3d</fix>
</trkpt>
<trkpt lat="-27.2727923" lon="151.2912387">
  <ele>400.26</ele>
  <time>2026-09-01T19:55:23Z</time>
  <course>210.22</course>
  <speed>28.80398757116799</speed>
  <fix>3d</fix>
</trkpt>
<trkpt lat="-27.2727406" lon="151.2912505">
  <ele>400.26</ele>
  <time>2026-09-01T19:55:23Z</time>
  <course>189.6</course>
  <speed>29.7</speed>
  <fix>3d</fix>
</trkpt>
<trkpt lat="-27.2728172" lon="151.2912317">
  <ele>400.21</ele>
  <time>2026-09-01T19:55:23Z</time>
  <course>212.34</course>
  <speed>28.389915463065403</speed>
  <fix>3d</fix>
</trkpt>
<trkpt lat="-27.2727922" lon="151.2912387">
  <ele>400.22</ele>
  <time>2026-09-01T19:55:23Z</time>
  <course>193.23</course>
  <speed>28.87</speed>
  <fix>3d</fix>
</trkpt>
<trkpt lat="-27.2728415" lon="151.2912239">
  <ele>400.13</ele>
  <time>2026-09-01T19:55:23Z</time>
  <course>214.41</course>
  <speed>27.990578772151174</speed>
  <fix>3d</fix>
</trkpt>
<trkpt lat="-27.2727922" lon="151.2912387">
  <ele>400.22</ele>
  <time>2026-09-01T19:55:23Z</time>
  <course>193.23</course>
  <speed>28.87</speed>
  <fix>3d</fix>
</trkpt>
<trkpt lat="-27.2728652" lon="151.2912155">
  <ele>400.03</ele>
  <time>2026-09-01T19:55:23Z</time>
  <course>216.48</course>
  <speed>27.587769029046186</speed>
  <fix>3d</fix>
</trkpt>
<trkpt lat="-27.2728417" lon="151.2912238">
  <ele>400.09</ele>
  <time>2026-09-01T19:55:23Z</time>
  <course>196.7</course>
  <speed>28.06</speed>
  <fix>3d</fix>
</trkpt>
<trkpt lat="-27.2728885" lon="151.2912064">
  <ele>399.91</ele>
  <time>2026-09-01T19:55:23Z</time>
  <course>218.51</course>
  <speed>27.19933087412262</speed>
  <fix>3d</fix>
</trkpt>
<trkpt lat="-27.2728417" lon="151.2912238">
  <ele>400.09</ele>
  <time>2026-09-01T19:55:23Z</time>
  <course>196.7</course>
  <speed>28.06</speed>
  <fix>3d</fix>
</trkpt>
<trkpt lat="-27.2729111" lon="151.2911967">
  <ele>399.76</ele>
  <time>2026-09-01T19:55:23Z</time>
  <course>220.52</course>
  <speed>26.80888285624748</speed>
  <fix>3d</fix>
</trkpt>
<trkpt lat="-27.2728889" lon="151.2912062">
  <ele>399.87</ele>
  <time>2026-09-01T19:55:23Z</time>
  <course>200.08</course>
  <speed>27.28</speed>
  <fix>3d</fix>
</trkpt>
<trkpt lat="-27.2729332" lon="151.2911864">
  <ele>399.6</ele>
  <time>2026-09-01T19:55:23Z</time>
  <course>222.55</course>
  <speed>26.421631289532446</speed>
  <fix>3d</fix>
</trkpt>
<trkpt lat="-27.2728889" lon="151.2912062">
  <ele>399.87</ele>
  <time>2026-09-01T19:55:23Z</time>
  <course>200.08</course>
  <speed>27.28</speed>
  <fix>3d</fix>
</trkpt>
<trkpt lat="-27.2729547" lon="151.2911755">
  <ele>399.41</ele>
  <time>2026-09-01T19:55:23Z</time>
  <course>224.61</course>
  <speed>26.040716195988157</speed>
  <fix>3d</fix>
</trkpt>
<trkpt lat="-27.2729337" lon="151.2911861">
  <ele>399.56</ele>
  <time>2026-09-01T19:55:23Z</time>
  <course>203.47</course>
  <speed>26.5</speed>
  <fix>3d</fix>
</trkpt>
<trkpt lat="-27.2729756" lon="151.2911641">
  <ele>399.2</ele>
  <time>2026-09-01T19:55:23Z</time>
  <course>226.7</course>
  <speed>25.661490603626284</speed>
  <fix>3d</fix>
</trkpt>
<trkpt lat="-27.2729337" lon="151.2911861">
  <ele>399.56</ele>
  <time>2026-09-01T19:55:23Z</time>
  <course>203.47</course>
  <speed>26.5</speed>
  <fix>3d</fix>
</trkpt>
<trkpt lat="-27.2729958" lon="151.2911521">
  <ele>398.98</ele>
  <time>2026-09-01T19:55:23Z</time>
  <course>228.82</course>
  <speed>25.281048237761027</speed>
  <fix>3d</fix>
</trkpt>
<trkpt lat="-27.2729762" lon="151.2911636">
  <ele>399.16</ele>
  <time>2026-09-01T19:55:23Z</time>
  <course>206.98</course>
  <speed>25.74</speed>
  <fix>3d</fix>
</trkpt>
<trkpt lat="-27.2730154" lon="151.2911395">
  <ele>398.74</ele>
  <time>2026-09-01T19:55:23Z</time>
  <course>231.02</course>
  <speed>24.896837148521495</speed>
  <fix>3d</fix>
</trkpt>
<trkpt lat="-27.2729762" lon="151.2911636">
  <ele>399.16</ele>
  <time>2026-09-01T19:55:23Z</time>
  <course>206.98</course>
  <speed>25.74</speed>
  <fix>3d</fix>
</trkpt>
<trkpt lat="-27.2730343" lon="151.2911264">
  <ele>398.49</ele>
  <time>2026-09-01T19:55:23Z</time>
  <course>233.23</course>
  <speed>24.510773141620806</speed>
  <fix>3d</fix>
</trkpt>
<trkpt lat="-27.273016" lon="151.2911389">
  <ele>398.71</ele>
  <time>2026-09-01T19:55:23Z</time>
  <course>210.74</course>
  <speed>24.97</speed>
  <fix>3d</fix>
</trkpt>
<trkpt lat="-27.2730525" lon="151.2911128">
  <ele>398.23</ele>
  <time>2026-09-01T19:55:23Z</time>
  <course>235.42</course>
  <speed>24.135770134801998</speed>
  <fix>3d</fix>
</trkpt>
<trkpt lat="-27.273016" lon="151.2911389">
  <ele>398.71</ele>
  <time>2026-09-01T19:55:23Z</time>
  <course>210.74</course>
  <speed>24.97</speed>
  <fix>3d</fix>
</trkpt>
<trkpt lat="-27.27307" lon="151.2910986">
  <ele>397.96</ele>
  <time>2026-09-01T19:55:23Z</time>
  <course>237.62</course>
  <speed>23.756037127433522</speed>
  <fix>3d</fix>
</trkpt>
<trkpt lat="-27.2730532" lon="151.291112">
  <ele>398.2</ele>
  <time>2026-09-01T19:55:23Z</time>
  <course>214.75</course>
  <speed>24.21</speed>
  <fix>3d</fix>
</trkpt>
<trkpt lat="-27.2730867" lon="151.291084">
  <ele>397.68</ele>
  <time>2026-09-01T19:55:23Z</time>
  <course>239.82</course>
  <speed>23.38880287659033</speed>
  <fix>3d</fix>
</trkpt>
<trkpt lat="-27.2730532" lon="151.291112">
  <ele>398.2</ele>
  <time>2026-09-01T19:55:23Z</time>
  <course>214.75</course>
  <speed>24.21</speed>
  <fix>3d</fix>
</trkpt>
<trkpt lat="-27.2731027" lon="151.2910688">
  <ele>397.39</ele>
  <time>2026-09-01T19:55:23Z</time>
  <course>242.1</course>
  <speed>23.02698634211607</speed>
  <fix>3d</fix>
</trkpt>
<trkpt lat="-27.2730875" lon="151.2910831">
  <ele>397.66</ele>
  <time>2026-09-01T19:55:23Z</time>
  <course>218.98</course>
  <speed>23.47</speed>
  <fix>3d</fix>
</trkpt>
<trkpt lat="-27.2731179" lon="151.2910533">
  <ele>397.11</ele>
  <time>2026-09-01T19:55:23Z</time>
  <course>244.4</course>
  <speed>22.66463765428426</speed>
  <fix>3d</fix>
</trkpt>
<trkpt lat="-27.2730875" lon="151.2910831">
  <ele>397.66</ele>
  <time>2026-09-01T19:55:23Z</time>
  <course>218.98</course>
  <speed>23.47</speed>
  <fix>3d</fix>
</trkpt>
<trkpt lat="-27.2731324" lon="151.2910373">
  <ele>396.82</ele>
  <time>2026-09-01T19:55:23Z</time>
  <course>246.65</course>
  <speed>22.31092333364982</speed>
  <fix>3d</fix>
</trkpt>
<trkpt lat="-27.2731187" lon="151.2910523">
  <ele>397.1</ele>
  <time>2026-09-01T19:55:23Z</time>
  <course>223.44</course>
  <speed>22.74</speed>
  <fix>3d</fix>
</trkpt>
<trkpt lat="-27.2731459" lon="151.2910211">
  <ele>396.54</ele>
  <time>2026-09-01T19:55:23Z</time>
  <course>248.9</course>
  <speed>21.958399304138723</speed>
  <fix>3d</fix>
</trkpt>
<trkpt lat="-27.2731187" lon="151.2910523">
  <ele>397.1</ele>
  <time>2026-09-01T19:55:23Z</time>
  <course>223.44</course>
  <speed>22.74</speed>
  <fix>3d</fix>
</trkpt>
<trkpt lat="-27.2731587" lon="151.2910044">
  <ele>396.26</ele>
  <time>2026-09-01T19:55:23Z</time>
  <course>251.11</course>
  <speed>21.621789935155693</speed>
  <fix>3d</fix>
</trkpt>
<trkpt lat="-27.2731467" lon="151.29102">
  <ele>396.54</ele>
  <time>2026-09-01T19:55:23Z</time>
  <course>228.1</course>
  <speed>22.03</speed>
  <fix>3d</fix>
</trkpt>
<trkpt lat="-27.2731707" lon="151.2909873">
  <ele>395.99</ele>
  <time>2026-09-01T19:55:24Z</time>
  <course>253.2</course>
  <speed>21.298305096885056</speed>
  <fix>3d</fix>
</trkpt>
<trkpt lat="-27.2731467" lon="151.29102">
  <ele>396.54</ele>
  <time>2026-09-01T19:55:24Z</time>
  <course>228.1</course>
  <speed>22.03</speed>
  <fix>3d</fix>
</trkpt>
<trkpt lat="-27.2731819" lon="151.29097">
  <ele>395.72</ele>
  <time>2026-09-01T19:55:24Z</time>
  <course>255.38</course>
  <speed>20.979842706750688</speed>
  <fix>3d</fix>
</trkpt>
<trkpt lat="-27.2731715" lon="151.2909861">
  <ele>395.99</ele>
  <time>2026-09-01T19:55:24Z</time>
  <course>232.87</course>
  <speed>21.36</speed>
  <fix>3d</fix>
</trkpt>
<trkpt lat="-27.2731924" lon="151.2909523">
  <ele>395.46</ele>
  <time>2026-09-01T19:55:24Z</time>
  <course>257.49</course>
  <speed>20.673570083563217</speed>
  <fix>3d</fix>
</trkpt>
<trkpt lat="-27.2731715" lon="151.2909861">
  <ele>395.99</ele>
  <time>2026-09-01T19:55:24Z</time>
  <course>232.87</course>
  <speed>21.36</speed>
  <fix>3d</fix>
</trkpt>
<trkpt lat="-27.273202" lon="151.2909345">
  <ele>395.21</ele>
  <time>2026-09-01T19:55:24Z</time>
  <course>259.45</course>
  <speed>20.390355563353964</speed>
  <fix>3d</fix>
</trkpt>
<trkpt lat="-27.2731931" lon="151.2909511">
  <ele>395.48</ele>
  <time>2026-09-01T19:55:24Z</time>
  <course>237.63</course>
  <speed>20.74</speed>
  <fix>3d</fix>
</trkpt>
<trkpt lat="-27.2732109" lon="151.2909163">
  <ele>394.96</ele>
  <time>2026-09-01T19:55:24Z</time>
  <course>261.38</course>
  <speed>20.12443788034836</speed>
  <fix>3d</fix>
</trkpt>
<trkpt lat="-27.2731931" lon="151.2909511">
  <ele>395.48</ele>
  <time>2026-09-01T19:55:24Z</time>
  <course>237.63</course>
  <speed>20.74</speed>
  <fix>3d</fix>
</trkpt>
<trkpt lat="-27.273219" lon="151.2908982">
  <ele>394.72</ele>
  <time>2026-09-01T19:55:24Z</time>
  <course>263.2</course>
  <speed>19.868530393564594</speed>
  <fix>3d</fix>
</trkpt>
<trkpt lat="-27.2732115" lon="151.2909153">
  <ele>394.99</ele>
  <time>2026-09-01T19:55:24Z</time>
  <course>242.25</course>
  <speed>20.18</speed>
  <fix>3d</fix>
</trkpt>
<trkpt lat="-27.2732263" lon="151.29088">
  <ele>394.49</ele>
  <time>2026-09-01T19:55:24Z</time>
  <course>264.89</course>
  <speed>19.631721778794645</speed>
  <fix>3d</fix>
</trkpt>
<trkpt lat="-27.2732115" lon="151.2909153">
  <ele>394.99</ele>
  <time>2026-09-01T19:55:24Z</time>
  <course>242.25</course>
  <speed>20.18</speed>
  <fix>3d</fix>
</trkpt>
<trkpt lat="-27.2732331" lon="151.2908617">
  <ele>394.27</ele>
  <time>2026-09-01T19:55:24Z</time>
  <course>266.5</course>
  <speed>19.422486967430306</speed>
  <fix>3d</fix>
</trkpt>
<trkpt lat="-27.273227" lon="151.2908789">
  <ele>394.53</ele>
  <time>2026-09-01T19:55:24Z</time>
  <course>246.6</course>
  <speed>19.69</speed>
  <fix>3d</fix>
</trkpt>
<trkpt lat="-27.2732391" lon="151.2908433">
  <ele>394.06</ele>
  <time>2026-09-01T19:55:24Z</time>
  <course>268.1</course>
  <speed>19.219815295678572</speed>
  <fix>3d</fix>
</trkpt>
<trkpt lat="-27.273227" lon="151.2908789">
  <ele>394.53</ele>
  <time>2026-09-01T19:55:24Z</time>
  <course>246.6</course>
  <speed>19.69</speed>
  <fix>3d</fix>
</trkpt>
<trkpt lat="-27.2732446" lon="151.290825">
  <ele>393.86</ele>
  <time>2026-09-01T19:55:24Z</time>
  <course>269.67</course>
  <speed>19.036535924374476</speed>
  <fix>3d</fix>
</trkpt>
<trkpt lat="-27.2732397" lon="151.2908423">
  <ele>394.1</ele>
  <time>2026-09-01T19:55:24Z</time>
  <course>250.65</course>
  <speed>19.27</speed>
  <fix>3d</fix>
</trkpt>
<trkpt lat="-27.2732495" lon="151.2908066">
  <ele>393.66</ele>
  <time>2026-09-01T19:55:24Z</time>
  <course>271.12</course>
  <speed>18.859843583656783</speed>
  <fix>3d</fix>
</trkpt>
<trkpt lat="-27.2732397" lon="151.2908423">
  <ele>394.1</ele>
  <time>2026-09-01T19:55:24Z</time>
  <course>250.65</course>
  <speed>19.27</speed>
  <fix>3d</fix>
</trkpt>
<trkpt lat="-27.2732538" lon="151.2907882">
  <ele>393.47</ele>
  <time>2026-09-01T19:55:24Z</time>
  <course>272.53</course>
  <speed>18.70923835969813</speed>
  <fix>3d</fix>
</trkpt>
<trkpt lat="-27.27325" lon="151.2908054">
  <ele>393.71</ele>
  <time>2026-09-01T19:55:24Z</time>
  <course>254.38</course>
  <speed>18.91</speed>
  <fix>3d</fix>
</trkpt>
<trkpt lat="-27.2732577" lon="151.2907698">
  <ele>393.28</ele>
  <time>2026-09-01T19:55:24Z</time>
  <course>273.81</course>
  <speed>18.56083241667787</speed>
  <fix>3d</fix>
</trkpt>
<trkpt lat="-27.27325" lon="151.2908054">
  <ele>393.71</ele>
  <time>2026-09-01T19:55:24Z</time>
  <course>254.38</course>
  <speed>18.91</speed>
  <fix>3d</fix>
</trkpt>
<trkpt lat="-27.273261" lon="151.2907514">
  <ele>393.1</ele>
  <time>2026-09-01T19:55:24Z</time>
  <course>274.99</course>
  <speed>18.43807202502474</speed>
  <fix>3d</fix>
</trkpt>
<trkpt lat="-27.2732581" lon="151.2907687">
  <ele>393.34</ele>
  <time>2026-09-01T19:55:24Z</time>
  <course>257.79</course>
  <speed>18.61</speed>
  <fix>3d</fix>
</trkpt>
<trkpt lat="-27.2732638" lon="151.290733">
  <ele>392.93</ele>
  <time>2026-09-01T19:55:24Z</time>
  <course>276.21</course>
  <speed>18.33243300819616</speed>
  <fix>3d</fix>
</trkpt>
<trkpt lat="-27.2732581" lon="151.2907687">
  <ele>393.34</ele>
  <time>2026-09-01T19:55:24Z</time>
  <course>257.79</course>
  <speed>18.61</speed>
  <fix>3d</fix>
</trkpt>
<trkpt lat="-27.2732663" lon="151.2907147">
  <ele>392.76</ele>
  <time>2026-09-01T19:55:24Z</time>
  <course>277.35</course>
  <speed>18.224082967326503</speed>
  <fix>3d</fix>
</trkpt>
<trkpt lat="-27.2732642" lon="151.290732">
  <ele>393.0</ele>
  <time>2026-09-01T19:55:24Z</time>
  <course>260.92</course>
  <speed>18.37</speed>
  <fix>3d</fix>
</trkpt>
<trkpt lat="-27.2732683" lon="151.2906964">
  <ele>392.6</ele>
  <time>2026-09-01T19:55:24Z</time>
  <course>278.43</course>
  <speed>18.12845277457511</speed>
  <fix>3d</fix>
</trkpt>
<trkpt lat="-27.2732642" lon="151.290732">
  <ele>393.0</ele>
  <time>2026-09-01T19:55:24Z</time>
  <course>260.92</course>
  <speed>18.37</speed>
  <fix>3d</fix>
</trkpt>
<trkpt lat="-27.2732699" lon="151.2906782">
  <ele>392.44</ele>
  <time>2026-09-01T19:55:24Z</time>
  <course>279.45</course>
  <speed>18.046686676506578</speed>
  <fix>3d</fix>
</trkpt>
<trkpt lat="-27.2732685" lon="151.2906954">
  <ele>392.67</ele>
  <time>2026-09-01T19:55:24Z</time>
  <course>263.8</course>
  <speed>18.17</speed>
  <fix>3d</fix>
</trkpt>
<trkpt lat="-27.2732711" lon="151.29066">
  <ele>392.3</ele>
  <time>2026-09-01T19:55:24Z</time>
  <course>280.47</course>
  <speed>17.9662043849</speed>
  <fix>3d</fix>
</trkpt>
<trkpt lat="-27.2732685" lon="151.2906954">
  <ele>392.67</ele>
  <time>2026-09-01T19:55:24Z</time>
  <course>263.8</course>
  <speed>18.17</speed>
  <fix>3d</fix>
</trkpt>
<trkpt lat="-27.273272" lon="151.290642">
  <ele>392.16</ele>
  <time>2026-09-01T19:55:24Z</time>
  <course>281.48</course>
  <speed>17.905298098607574</speed>
  <fix>3d</fix>
</trkpt>
<trkpt lat="-27.2732713" lon="151.290659">
  <ele>392.37</ele>
  <time>2026-09-01T19:55:24Z</time>
  <course>266.47</course>
  <speed>18.0</speed>
  <fix>3d</fix>
</trkpt>
<trkpt lat="-27.2732725" lon="151.2906239">
  <ele>392.03</ele>
  <time>2026-09-01T19:55:24Z</time>
  <course>282.46</course>
  <speed>17.843432965659943</speed>
  <fix>3d</fix>
</trkpt>
<trkpt lat="-27.2732713" lon="151.290659">
  <ele>392.37</ele>
  <time>2026-09-01T19:55:24Z</time>
  <course>266.47</course>
  <speed>18.0</speed>
  <fix>3d</fix>
</trkpt>
<trkpt lat="-27.2732726" lon="151.2906059">
  <ele>391.91</ele>
  <time>2026-09-01T19:55:24Z</time>
  <course>283.39</course>
  <speed>17.790011242267386</speed>
  <fix>3d</fix>
</trkpt>
<trkpt lat="-27.2732725" lon="151.2906228">
  <ele>392.1</ele>
  <time>2026-09-01T19:55:24Z</time>
  <course>269.0</course>
  <speed>17.87</speed>
  <fix>3d</fix>
</trkpt>
<trkpt lat="-27.2732724" lon="151.2905879">
  <ele>391.79</ele>
  <time>2026-09-01T19:55:24Z</time>
  <course>284.22</course>
  <speed>17.734288821376516</speed>
  <fix>3d</fix>
</trkpt>
<trkpt lat="-27.2732725" lon="151.2906228">
  <ele>392.1</ele>
  <time>2026-09-01T19:55:24Z</time>
  <course>269.0</course>
  <speed>17.87</speed>
  <fix>3d</fix>
</trkpt>
<trkpt lat="-27.2732719" lon="151.2905698">
  <ele>391.69</ele>
  <time>2026-09-01T19:55:24Z</time>
  <course>285.07</course>
  <speed>17.685488401511563</speed>
  <fix>3d</fix>
</trkpt>
<trkpt lat="-27.2732724" lon="151.2905867">
  <ele>391.87</ele>
  <time>2026-09-01T19:55:24Z</time>
  <course>271.41</course>
  <speed>17.75</speed>
  <fix>3d</fix>
</trkpt>
<trkpt lat="-27.2732711" lon="151.290552">
  <ele>391.6</ele>
  <time>2026-09-01T19:55:24Z</time>
  <course>285.92</course>
  <speed>17.63372053765172</speed>
  <fix>3d</fix>
</trkpt>
<trkpt lat="-27.2732724" lon="151.2905867">
  <ele>391.87</ele>
  <time>2026-09-01T19:55:24Z</time>
  <course>271.41</course>
  <speed>17.75</speed>
  <fix>3d</fix>
</trkpt>
<trkpt lat="-27.2732699" lon="151.2905342">
  <ele>391.51</ele>
  <time>2026-09-01T19:55:24Z</time>
  <course>286.72</course>
  <speed>17.59738616954234</speed>
  <fix>3d</fix>
</trkpt>
<trkpt lat="-27.2732711" lon="151.2905509">
  <ele>391.68</ele>
  <time>2026-09-01T19:55:24Z</time>
  <course>273.69</course>
  <speed>17.65</speed>
  <fix>3d</fix>
</trkpt>
<trkpt lat="-27.2732684" lon="151.2905159">
  <ele>391.44</ele>
  <time>2026-09-01T19:55:24Z</time>
  <course>287.52</course>
  <speed>17.54848141578068</speed>
  <fix>3d</fix>
</trkpt>
<trkpt lat="-27.2732711" lon="151.2905509">
  <ele>391.68</ele>
  <time>2026-09-01T19:55:24Z</time>
  <course>273.69</course>
  <speed>17.65</speed>
  <fix>3d</fix>
</trkpt>
<trkpt lat="-27.2732668" lon="151.2904984">
  <ele>391.38</ele>
  <time>2026-09-01T19:55:24Z</time>
  <course>288.28</course>
  <speed>17.513951581524942</speed>
  <fix>3d</fix>
</trkpt>
<trkpt lat="-27.2732684" lon="151.2905154">
  <ele>391.53</ele>
  <time>2026-09-01T19:55:24Z</time>
  <course>275.87</course>
  <speed>17.57</speed>
  <fix>3d</fix>
</trkpt>
<trkpt lat="-27.2732648" lon="151.2904808">
  <ele>391.33</ele>
  <time>2026-09-01T19:55:24Z</time>
  <course>289.08</course>
  <speed>17.472850368500268</speed>
  <fix>3d</fix>
</trkpt>
<trkpt lat="-27.2732684" lon="151.2905154">
  <ele>391.53</ele>
  <time>2026-09-01T19:55:24Z</time>
  <course>275.87</course>
  <speed>17.57</speed>
  <fix>3d</fix>
</trkpt>
<trkpt lat="-27.2732625" lon="151.2904633">
  <ele>391.29</ele>
  <time>2026-09-01T19:55:24Z</time>
  <course>289.76</course>
  <speed>17.4371815383106</speed>
  <fix>3d</fix>
</trkpt>
<trkpt lat="-27.2732646" lon="151.2904803">
  <ele>391.41</ele>
  <time>2026-09-01T19:55:24Z</time>
  <course>277.98</course>
  <speed>17.49</speed>
  <fix>3d</fix>
</trkpt>
<trkpt lat="-27.2732599" lon="151.2904459">
  <ele>391.26</ele>
  <time>2026-09-01T19:55:24Z</time>
  <course>290.4</course>
  <speed>17.40697848565339</speed>
  <fix>3d</fix>
</trkpt>
<trkpt lat="-27.2732646" lon="151.2904803">
  <ele>391.41</ele>
  <time>2026-09-01T19:55:24Z</time>
  <course>277.98</course>
  <speed>17.49</speed>
  <fix>3d</fix>
</trkpt>
<trkpt lat="-27.2732571" lon="151.2904284">
  <ele>391.24</ele>
  <time>2026-09-01T19:55:24Z</time>
  <course>291.1</course>
  <speed>17.36868446371227</speed>
  <fix>3d</fix>
</trkpt>
<trkpt lat="-27.2732597" lon="151.2904454">
  <ele>391.34</ele>
  <time>2026-09-01T19:55:24Z</time>
  <course>279.98</course>
  <speed>17.41</speed>
  <fix>3d</fix>
</trkpt>
<trkpt lat="-27.2732541" lon="151.2904116">
  <ele>391.22</ele>
  <time>2026-09-01T19:55:24Z</time>
  <course>291.85</course>
  <speed>17.333257051114195</speed>
  <fix>3d</fix>
</trkpt>
<trkpt lat="-27.2732597" lon="151.2904454">
  <ele>391.34</ele>
  <time>2026-09-01T19:55:24Z</time>
  <course>279.98</course>
  <speed>17.41</speed>
  <fix>3d</fix>
</trkpt>
<trkpt lat="-27.2732508" lon="151.2903945">
  <ele>391.21</ele>
  <time>2026-09-01T19:55:24Z</time>
  <course>292.51</course>
  <speed>17.30463810658865</speed>
  <fix>3d</fix>
</trkpt>
<trkpt lat="-27.2732538" lon="151.290411">
  <ele>391.3</ele>
  <time>2026-09-01T19:55:24Z</time>
  <course>281.92</course>
  <speed>17.34</speed>
  <fix>3d</fix>
</trkpt>
<trkpt lat="-27.2732472" lon="151.2903775">
  <ele>391.21</ele>
  <time>2026-09-01T19:55:24Z</time>
  <course>293.1</course>
  <speed>17.26889689586454</speed>
  <fix>3d</fix>
</trkpt>
<trkpt lat="-27.2732538" lon="151.290411">
  <ele>391.3</ele>
  <time>2026-09-01T19:55:24Z</time>
  <course>281.92</course>
  <speed>17.34</speed>
  <fix>3d</fix>
</trkpt>
<trkpt lat="-27.2732434" lon="151.2903606">
  <ele>391.21</ele>
  <time>2026-09-01T19:55:24Z</time>
  <course>293.76</course>
  <speed>17.23537060814185</speed>
  <fix>3d</fix>
</trkpt>
<trkpt lat="-27.2732468" lon="151.2903769">
  <ele>391.29</ele>
  <time>2026-09-01T19:55:24Z</time>
  <course>283.81</course>
  <speed>17.27</speed>
  <fix>3d</fix>
</trkpt>
<trkpt lat="-27.2732393" lon="151.2903438">
  <ele>391.22</ele>
  <time>2026-09-01T19:55:24Z</time>
  <course>294.43</course>
  <speed>17.18969749588398</speed>
  <fix>3d</fix>
</trkpt>
<trkpt lat="-27.2732468" lon="151.2903769">
  <ele>391.29</ele>
  <time>2026-09-01T19:55:24Z</time>
  <course>283.81</course>
  <speed>17.27</speed>
  <fix>3d</fix>
</trkpt>
<trkpt lat="-27.2732351" lon="151.2903271">
  <ele>391.23</ele>
  <time>2026-09-01T19:55:24Z</time>
  <course>295.12</course>
  <speed>17.15858094365615</speed>
  <fix>3d</fix>
</trkpt>
<trkpt lat="-27.2732389" lon="151.2903432">
  <ele>391.3</ele>
  <time>2026-09-01T19:55:24Z</time>
  <course>285.7</course>
  <speed>17.2</speed>
  <fix>3d</fix>
</trkpt>
<trkpt lat="-27.2732305" lon="151.2903105">
  <ele>391.25</ele>
  <time>2026-09-01T19:55:24Z</time>
  <course>295.8</course>
  <speed>17.11630801312012</speed>
  <fix>3d</fix>
</trkpt>
<trkpt lat="-27.2732389" lon="151.2903432">
  <ele>391.3</ele>
  <time>2026-09-01T19:55:24Z</time>
  <course>285.7</course>
  <speed>17.2</speed>
  <fix>3d</fix>
</trkpt>
<trkpt lat="-27.2732257" lon="151.2902941">
  <ele>391.27</ele>
  <time>2026-09-01T19:55:24Z</time>
  <course>296.41</course>
  <speed>17.073151437271328</speed>
  <fix>3d</fix>
</trkpt>
<trkpt lat="-27.2732301" lon="151.2903099">
  <ele>391.33</ele>
  <time>2026-09-01T19:55:24Z</time>
  <course>287.65</course>
  <speed>17.12</speed>
  <fix>3d</fix>
</trkpt>
<trkpt lat="-27.2732207" lon="151.2902778">
  <ele>391.3</ele>
  <time>2026-09-01T19:55:24Z</time>
  <course>297.04</course>
  <speed>17.047609803136627</speed>
  <fix>3d</fix>
</trkpt>
<trkpt lat="-27.2732301" lon="151.2903099">
  <ele>391.33</ele>
  <time>2026-09-01T19:55:24Z</time>
  <course>287.65</course>
  <speed>17.12</speed>
  <fix>3d</fix>
</trkpt>
<trkpt lat="-27.2732155" lon="151.2902617">
  <ele>391.34</ele>
  <time>2026-09-01T19:55:24Z</time>
  <course>297.69</course>
  <speed>17.004922816643422</speed>
  <fix>3d</fix>
</trkpt>
<trkpt lat="-27.2732203" lon="151.2902772">
  <ele>391.39</ele>
  <time>2026-09-01T19:55:24Z</time>
  <course>289.62</course>
  <speed>17.04</speed>
  <fix>3d</fix>
</trkpt>
<trkpt lat="-27.27321" lon="151.2902456">
  <ele>391.37</ele>
  <time>2026-09-01T19:55:24Z</time>
  <course>298.43</course>
  <speed>16.9616272804233</speed>
  <fix>3d</fix>
</trkpt>
<trkpt lat="-27.2732203" lon="151.2902772">
  <ele>391.39</ele>
  <time>2026-09-01T19:55:24Z</time>
  <course>289.62</course>
  <speed>17.04</speed>
  <fix>3d</fix>
</trkpt>
<trkpt lat="-27.2732042" lon="151.2902297">
  <ele>391.41</ele>
  <time>2026-09-01T19:55:24Z</time>
  <course>299.13</course>
  <speed>16.92385889801732</speed>
  <fix>3d</fix>
</trkpt>
<trkpt lat="-27.2732095" lon="151.2902451">
  <ele>391.46</ele>
  <time>2026-09-01T19:55:24Z</time>
  <course>291.63</course>
  <speed>16.97</speed>
  <fix>3d</fix>
</trkpt>
<trkpt lat="-27.2731982" lon="151.2902138">
  <ele>391.46</ele>
  <time>2026-09-01T19:55:24Z</time>
  <course>299.79</course>
  <speed>16.895659205843376</speed>
  <fix>3d</fix>
</trkpt>
<trkpt lat="-27.2732095" lon="151.2902451">
  <ele>391.46</ele>
  <time>2026-09-01T19:55:24Z</time>
  <course>291.63</course>
  <speed>16.97</speed>
  <fix>3d</fix>
</trkpt>
<trkpt lat="-27.2731919" lon="151.2901982">
  <ele>391.51</ele>
  <time>2026-09-01T19:55:24Z</time>
  <course>300.57</course>
  <speed>16.855224709270416</speed>
  <fix>3d</fix>
</trkpt>
<trkpt lat="-27.2731978" lon="151.2902134">
  <ele>391.54</ele>
  <time>2026-09-01T19:55:24Z</time>
  <course>293.72</course>
  <speed>16.89</speed>
  <fix>3d</fix>
</trkpt>
<trkpt lat="-27.2731854" lon="151.2901828">
  <ele>391.56</ele>
  <time>2026-09-01T19:55:24Z</time>
  <course>301.31</course>
  <speed>16.812073042905805</speed>
  <fix>3d</fix>
</trkpt>
<trkpt lat="-27.2731978" lon="151.2902134">
  <ele>391.54</ele>
  <time>2026-09-01T19:55:24Z</time>
  <course>293.72</course>
  <speed>16.89</speed>
  <fix>3d</fix>
</trkpt>
<trkpt lat="-27.2731785" lon="151.2901671">
  <ele>391.62</ele>
  <time>2026-09-01T19:55:24Z</time>
  <course>301.98</course>
  <speed>16.766505300747678</speed>
  <fix>3d</fix>
</trkpt>
<trkpt lat="-27.2731851" lon="151.2901824">
  <ele>391.64</ele>
  <time>2026-09-01T19:55:24Z</time>
  <course>295.9</course>
  <speed>16.81</speed>
  <fix>3d</fix>
</trkpt>
<trkpt lat="-27.2731715" lon="151.2901522">
  <ele>391.67</ele>
  <time>2026-09-01T19:55:24Z</time>
  <course>302.65</course>
  <speed>16.736478124145474</speed>
  <fix>3d</fix>
</trkpt>
<trkpt lat="-27.2731851" lon="151.2901824">
  <ele>391.64</ele>
  <time>2026-09-01T19:55:24Z</time>
  <course>295.9</course>
  <speed>16.81</speed>
  <fix>3d</fix>
</trkpt>
<trkpt lat="-27.2731643" lon="151.2901373">
  <ele>391.73</ele>
  <time>2026-09-01T19:55:24Z</time>
  <course>303.35</course>
  <speed>16.708141727912174</speed>
  <fix>3d</fix>
</trkpt>
<trkpt lat="-27.2731714" lon="151.2901523">
  <ele>391.75</ele>
  <time>2026-09-01T19:55:24Z</time>
  <course>298.13</course>
  <speed>16.73</speed>
  <fix>3d</fix>
</trkpt>
<trkpt lat="-27.2731568" lon="151.2901227">
  <ele>391.79</ele>
  <time>2026-09-01T19:55:24Z</time>
  <course>304.07</course>
  <speed>16.668812195234548</speed>
  <fix>3d</fix>
</trkpt>
<trkpt lat="-27.2731714" lon="151.2901523">
  <ele>391.75</ele>
  <time>2026-09-01T19:55:24Z</time>
  <course>298.13</course>
  <speed>16.73</speed>
  <fix>3d</fix>
</trkpt>
<trkpt lat="-27.2731491" lon="151.2901082">
  <ele>391.85</ele>
  <time>2026-09-01T19:55:24Z</time>
  <course>304.79</course>
  <speed>16.62765467526915</speed>
  <fix>3d</fix>
</trkpt>
<trkpt lat="-27.2731567" lon="151.2901228">
  <ele>391.87</ele>
  <time>2026-09-01T19:55:24Z</time>
  <course>300.4</course>
  <speed>16.66</speed>
  <fix>3d</fix>
</trkpt>
<trkpt lat="-27.2731411" lon="151.2900939">
  <ele>391.91</ele>
  <time>2026-09-01T19:55:24Z</time>
  <course>305.53</course>
  <speed>16.596460466015035</speed>
  <fix>3d</fix>
</trkpt>
<trkpt lat="-27.2731567" lon="151.2901228">
  <ele>391.87</ele>
  <time>2026-09-01T19:55:24Z</time>
  <course>300.4</course>
  <speed>16.66</speed>
  <fix>3d</fix>
</trkpt>
<trkpt lat="-27.2731329" lon="151.2900799">
  <ele>391.98</ele>
  <time>2026-09-01T19:55:24Z</time>
  <course>306.28</course>
  <speed>16.560658199479874</speed>
  <fix>3d</fix>
</trkpt>
<trkpt lat="-27.2731411" lon="151.2900943">
  <ele>391.99</ele>
  <time>2026-09-01T19:55:24Z</time>
  <course>302.7</course>
  <speed>16.59</speed>
  <fix>3d</fix>
</trkpt>
<trkpt lat="-27.2731245" lon="151.2900661">
  <ele>392.04</ele>
  <time>2026-09-01T19:55:24Z</time>
  <course>307.11</course>
  <speed>16.53211722678012</speed>
  <fix>3d</fix>
</trkpt>
<trkpt lat="-27.2731411" lon="151.2900943">
  <ele>391.99</ele>
  <time>2026-09-01T19:55:24Z</time>
  <course>302.7</course>
  <speed>16.59</speed>
  <fix>3d</fix>
</trkpt>
<trkpt lat="-27.2731158" lon="151.2900525">
  <ele>392.11</ele>
  <time>2026-09-01T19:55:24Z</time>
  <course>307.89</course>
  <speed>16.504959860599477</speed>
  <fix>3d</fix>
</trkpt>
<trkpt lat="-27.2731245" lon="151.2900665">
  <ele>392.11</ele>
  <time>2026-09-01T19:55:24Z</time>
  <course>305.05</course>
  <speed>16.52</speed>
  <fix>3d</fix>
</trkpt>
<trkpt lat="-27.2731069" lon="151.2900392">
  <ele>392.18</ele>
  <time>2026-09-01T19:55:24Z</time>
  <course>308.57</course>
  <speed>16.476856496310212</speed>
  <fix>3d</fix>
</trkpt>
<trkpt lat="-27.2731245" lon="151.2900665">
  <ele>392.11</ele>
  <time>2026-09-01T19:55:24Z</time>
  <course>305.05</course>
  <speed>16.52</speed>
  <fix>3d</fix>
</trkpt>
<trkpt lat="-27.2730978" lon="151.2900261">
  <ele>392.24</ele>
  <time>2026-09-01T19:55:24Z</time>
  <course>309.34</course>
  <speed>16.448221788387947</speed>
  <fix>3d</fix>
</trkpt>
<trkpt lat="-27.2731069" lon="151.2900396">
  <ele>392.24</ele>
  <time>2026-09-01T19:55:24Z</time>
  <course>307.43</course>
  <speed>16.47</speed>
  <fix>3d</fix>
</trkpt>
<trkpt lat="-27.2730884" lon="151.2900132">
  <ele>392.31</ele>
  <time>2026-09-01T19:55:24Z</time>
  <course>310.18</course>
  <speed>16.427160436301826</speed>
  <fix>3d</fix>
</trkpt>
<trkpt lat="-27.2731069" lon="151.2900396">
  <ele>392.24</ele>
  <time>2026-09-01T19:55:24Z</time>
  <course>307.43</course>
  <speed>16.47</speed>
  <fix>3d</fix>
</trkpt>
<trkpt lat="-27.2730788" lon="151.2900006">
  <ele>392.37</ele>
  <time>2026-09-01T19:55:24Z</time>
  <course>310.94</course>
  <speed>16.40617261886513</speed>
  <fix>3d</fix>
</trkpt>
<trkpt lat="-27.2730885" lon="151.2900136">
  <ele>392.37</ele>
  <time>2026-09-01T19:55:24Z</time>
  <course>309.88</course>
  <speed>16.42</speed>
  <fix>3d</fix>
</trkpt>
<trkpt lat="-27.2730693" lon="151.2899887">
  <ele>392.43</ele>
  <time>2026-09-01T19:55:24Z</time>
  <course>311.75</course>
  <speed>16.386351027608313</speed>
  <fix>3d</fix>
</trkpt>
<trkpt lat="-27.2730885" lon="151.2900136">
  <ele>392.37</ele>
  <time>2026-09-01T19:55:24Z</time>
  <course>309.88</course>
  <speed>16.42</speed>
  <fix>3d</fix>
</trkpt>
<trkpt lat="-27.2730592" lon="151.2899766">
  <ele>392.5</ele>
  <time>2026-09-01T19:55:24Z</time>
  <course>312.59</course>
  <speed>16.37381140724419</speed>
  <fix>3d</fix>
</trkpt>
<trkpt lat="-27.2730692" lon="151.2899886">
  <ele>392.49</ele>
  <time>2026-09-01T19:55:24Z</time>
  <course>312.4</course>
  <speed>16.38</speed>
  <fix>3d</fix>
</trkpt>
<trkpt lat="-27.2730489" lon="151.2899648">
  <ele>392.56</ele>
  <time>2026-09-01T19:55:24Z</time>
  <course>313.4</course>
  <speed>16.36245091665671</speed>
  <fix>3d</fix>
</trkpt>
<trkpt lat="-27.2730692" lon="151.2899886">
  <ele>392.49</ele>
  <time>2026-09-01T19:55:24Z</time>
  <course>312.4</course>
  <speed>16.38</speed>
  <fix>3d</fix>
</trkpt>
<trkpt lat="-27.2730384" lon="151.2899532">
  <ele>392.62</ele>
  <time>2026-09-01T19:55:24Z</time>
  <course>314.24</course>
  <speed>16.34553455840463</speed>
  <fix>3d</fix>
</trkpt>
<trkpt lat="-27.2730488" lon="151.2899647">
  <ele>392.62</ele>
  <time>2026-09-01T19:55:24Z</time>
  <course>314.98</course>
  <speed>16.35</speed>
  <fix>3d</fix>
</trkpt>
<trkpt lat="-27.2730277" lon="151.2899419">
  <ele>392.69</ele>
  <time>2026-09-01T19:55:24Z</time>
  <course>315.08</course>
  <speed>16.33788235971847</speed>
  <fix>3d</fix>
</trkpt>
<trkpt lat="-27.2730488" lon="151.2899647">
  <ele>392.62</ele>
  <time>2026-09-01T19:55:24Z</time>
  <course>314.98</course>
  <speed>16.35</speed>
  <fix>3d</fix>
</trkpt>
<trkpt lat="-27.2730166" lon="151.2899308">
  <ele>392.75</ele>
  <time>2026-09-01T19:55:24Z</time>
  <course>315.88</course>
  <speed>16.346069864037656</speed>
  <fix>3d</fix>
</trkpt>
<trkpt lat="-27.2730275" lon="151.2899418">
  <ele>392.74</ele>
  <time>2026-09-01T19:55:24Z</time>
  <course>317.63</course>
  <speed>16.33</speed>
  <fix>3d</fix>
</trkpt>
<trkpt lat="-27.2730054" lon="151.2899202">
  <ele>392.81</ele>
  <time>2026-09-01T19:55:24Z</time>
  <course>316.7</course>
  <speed>16.333701356398066</speed>
  <fix>3d</fix>
</trkpt>
<trkpt lat="-27.2730275" lon="151.2899418">
  <ele>392.74</ele>
  <time>2026-09-01T19:55:24Z</time>
  <course>317.63</course>
  <speed>16.33</speed>
  <fix>3d</fix>
</trkpt>
<trkpt lat="-27.2729941" lon="151.2899098">
  <ele>392.87</ele>
  <time>2026-09-01T19:55:24Z</time>
  <course>317.58</course>
  <speed>16.33135021974607</speed>
  <fix>3d</fix>
</trkpt>
<trkpt lat="-27.2730054" lon="151.2899202">
  <ele>392.86</ele>
  <time>2026-09-01T19:55:24Z</time>
  <course>320.29</course>
  <speed>16.32</speed>
  <fix>3d</fix>
</trkpt>
<trkpt lat="-27.2729821" lon="151.2898994">
  <ele>392.94</ele>
  <time>2026-09-01T19:55:24Z</time>
  <course>318.48</course>
  <speed>16.326009922819477</speed>
  <fix>3d</fix>
</trkpt>
<trkpt lat="-27.2730054" lon="151.2899202">
  <ele>392.86</ele>
  <time>2026-09-01T19:55:24Z</time>
  <course>320.29</course>
  <speed>16.32</speed>
  <fix>3d</fix>
</trkpt>
<trkpt lat="-27.2729705" lon="151.2898898">
  <ele>393.0</ele>
  <time>2026-09-01T19:55:24Z</time>
  <course>319.34</course>
  <speed>16.3339676747568</speed>
  <fix>3d</fix>
</trkpt>
<trkpt lat="-27.2729825" lon="151.2898997">
  <ele>392.98</ele>
  <time>2026-09-01T19:55:24Z</time>
  <course>322.96</course>
  <speed>16.33</speed>
  <fix>3d</fix>
</trkpt>
<trkpt lat="-27.2729585" lon="151.2898804">
  <ele>393.06</ele>
  <time>2026-09-01T19:55:24Z</time>
  <course>320.19</course>
  <speed>16.34503288464113</speed>
  <fix>3d</fix>
</trkpt>
<trkpt lat="-27.2729825" lon="151.2898997">
  <ele>392.98</ele>
  <time>2026-09-01T19:55:24Z</time>
  <course>322.96</course>
  <speed>16.33</speed>
  <fix>3d</fix>
</trkpt>
<trkpt lat="-27.2729463" lon="151.2898713">
  <ele>393.12</ele>
  <time>2026-09-01T19:55:24Z</time>
  <course>321.06</course>
  <speed>16.356802866086024</speed>
  <fix>3d</fix>
</trkpt>
<trkpt lat="-27.2729586" lon="151.2898804">
  <ele>393.09</ele>
  <time>2026-09-01T19:55:24Z</time>
  <course>325.66</course>
  <speed>16.34</speed>
  <fix>3d</fix>
</trkpt>
<trkpt lat="-27.2729339" lon="151.2898625">
  <ele>393.17</ele>
  <time>2026-09-01T19:55:24Z</time>
  <course>321.95</course>
  <speed>16.36169306642806</speed>
  <fix>3d</fix>
</trkpt>
<trkpt lat="-27.2729586" lon="151.2898804">
  <ele>393.09</ele>
  <time>2026-09-01T19:55:24Z</time>
  <course>325.66</course>
  <speed>16.34</speed>
  <fix>3d</fix>
</trkpt>
<trkpt lat="-27.2729213" lon="151.289854">
  <ele>393.23</ele>
  <time>2026-09-01T19:55:24Z</time>
  <course>322.79</course>
  <speed>16.386634797907714</speed>
  <fix>3d</fix>
</trkpt>
<trkpt lat="-27.272934" lon="151.2898625">
  <ele>393.2</ele>
  <time>2026-09-01T19:55:24Z</time>
  <course>328.38</course>
  <speed>16.38</speed>
  <fix>3d</fix>
</trkpt>
<trkpt lat="-27.2729085" lon="151.2898458">
  <ele>393.28</ele>
  <time>2026-09-01T19:55:24Z</time>
  <course>323.66</course>
  <speed>16.40714478512334</speed>
  <fix>3d</fix>
</trkpt>
<trkpt lat="-27.272934" lon="151.2898625">
  <ele>393.2</ele>
  <time>2026-09-01T19:55:24Z</time>
  <course>328.38</course>
  <speed>16.38</speed>
  <fix>3d</fix>
</trkpt>
<trkpt lat="-27.2728955" lon="151.289838">
  <ele>393.33</ele>
  <time>2026-09-01T19:55:24Z</time>
  <course>324.53</course>
  <speed>16.44581709736552</speed>
  <fix>3d</fix>
</trkpt>
<trkpt lat="-27.2729085" lon="151.2898458">
  <ele>393.3</ele>
  <time>2026-09-01T19:55:24Z</time>
  <course>331.12</course>
  <speed>16.42</speed>
  <fix>3d</fix>
</trkpt>
<trkpt lat="-27.2728824" lon="151.2898306">
  <ele>393.37</ele>
  <time>2026-09-01T19:55:24Z</time>
  <course>325.46</course>
  <speed>16.47157855216069</speed>
  <fix>3d</fix>
</trkpt>
<trkpt lat="-27.2729085" lon="151.2898458">
  <ele>393.3</ele>
  <time>2026-09-01T19:55:24Z</time>
  <course>331.12</course>
  <speed>16.42</speed>
  <fix>3d</fix>
</trkpt>
<trkpt lat="-27.272869" lon="151.2898234">
  <ele>393.42</ele>
  <time>2026-09-01T19:55:24Z</time>
  <course>326.37</course>
  <speed>16.511647404181087</speed>
  <fix>3d</fix>
</trkpt>
<trkpt lat="-27.2728823" lon="151.2898304">
  <ele>393.39</ele>
  <time>2026-09-01T19:55:24Z</time>
  <course>333.87</course>
  <speed>16.49</speed>
  <fix>3d</fix>
</trkpt>
<trkpt lat="-27.2728555" lon="151.2898167">
  <ele>393.46</ele>
  <time>2026-09-01T19:55:24Z</time>
  <course>327.23</course>
  <speed>16.55249225947561</speed>
  <fix>3d</fix>
</trkpt>
<trkpt lat="-27.2728823" lon="151.2898304">
  <ele>393.39</ele>
  <time>2026-09-01T19:55:24Z</time>
  <course>333.87</course>
  <speed>16.49</speed>
  <fix>3d</fix>
</trkpt>
<trkpt lat="-27.2728418" lon="151.2898102">
  <ele>393.5</ele>
  <time>2026-09-01T19:55:24Z</time>
  <course>328.18</course>
  <speed>16.593745809792313</speed>
  <fix>3d</fix>
</trkpt>
<trkpt lat="-27.2728553" lon="151.2898165">
  <ele>393.47</ele>
  <time>2026-09-01T19:55:24Z</time>
  <course>336.65</course>
  <speed>16.57</speed>
  <fix>3d</fix>
</trkpt>
<trkpt lat="-27.2728279" lon="151.2898042">
  <ele>393.54</ele>
  <time>2026-09-01T19:55:24Z</time>
  <course>329.06</course>
  <speed>16.65029729464312</speed>
  <fix>3d</fix>
</trkpt>
<trkpt lat="-27.2728553" lon="151.2898165">
  <ele>393.47</ele>
  <time>2026-09-01T19:55:24Z</time>
  <course>336.65</course>
  <speed>16.57</speed>
  <fix>3d</fix>
</trkpt>
<trkpt lat="-27.2728138" lon="151.2897985">
  <ele>393.57</ele>
  <time>2026-09-01T19:55:24Z</time>
  <course>329.94</course>
  <speed>16.697904060090895</speed>
  <fix>3d</fix>
</trkpt>
<trkpt lat="-27.2728277" lon="151.2898039">
  <ele>393.56</ele>
  <time>2026-09-01T19:55:24Z</time>
  <course>339.42</course>
  <speed>16.66</speed>
  <fix>3d</fix>
</trkpt>
<trkpt lat="-27.2727996" lon="151.2897931">
  <ele>393.61</ele>
  <time>2026-09-01T19:55:24Z</time>
  <course>330.9</course>
  <speed>16.76153334274642</speed>
  <fix>3d</fix>
</trkpt>
<trkpt lat="-27.2728277" lon="151.2898039">
  <ele>393.56</ele>
  <time>2026-09-01T19:55:24Z</time>
  <course>339.42</course>
  <speed>16.66</speed>
  <fix>3d</fix>
</trkpt>
<trkpt lat="-27.2727852" lon="151.2897881">
  <ele>393.64</ele>
  <time>2026-09-01T19:55:24Z</time>
  <course>331.85</course>
  <speed>16.825602515214722</speed>
  <fix>3d</fix>
</trkpt>
<trkpt lat="-27.2727993" lon="151.2897928">
  <ele>393.63</ele>
  <time>2026-09-01T19:55:24Z</time>
  <course>342.21</course>
  <speed>16.78</speed>
  <fix>3d</fix>
</trkpt>
<trkpt lat="-27.2727706" lon="151.2897835">
  <ele>393.67</ele>
  <time>2026-09-01T19:55:24Z</time>
  <course>332.77</course>
  <speed>16.896878409931226</speed>
  <fix>3d</fix>
</trkpt>
<trkpt lat="-27.2727993" lon="151.2897928">
  <ele>393.63</ele>
  <time>2026-09-01T19:55:24Z</time>
  <course>342.21</course>
  <speed>16.78</speed>
  <fix>3d</fix>
</trkpt>
<trkpt lat="-27.2727559" lon="151.2897793">
  <ele>393.71</ele>
  <time>2026-09-01T19:55:24Z</time>
  <course>333.73</course>
  <speed>16.96854737448082</speed>
  <fix>3d</fix>
</trkpt>
<trkpt lat="-27.2727702" lon="151.2897832">
  <ele>393.7</ele>
  <time>2026-09-01T19:55:24Z</time>
  <course>345.01</course>
  <speed>16.92</speed>
  <fix>3d</fix>
</trkpt>
<trkpt lat="-27.272741" lon="151.2897755">
  <ele>393.74</ele>
  <time>2026-09-01T19:55:24Z</time>
  <course>334.73</course>
  <speed>17.045893933730785</speed>
  <fix>3d</fix>
</trkpt>
<trkpt lat="-27.2727702" lon="151.2897832">
  <ele>393.7</ele>
  <time>2026-09-01T19:55:24Z</time>
  <course>345.01</course>
  <speed>16.92</speed>
  <fix>3d</fix>
</trkpt>
<trkpt lat="-27.2727263" lon="151.2897722">
  <ele>393.76</ele>
  <time>2026-09-01T19:55:24Z</time>
  <course>335.7</course>
  <speed>17.133919574925056</speed>
  <fix>3d</fix>
</trkpt>
<trkpt lat="-27.2727405" lon="151.2897751">
  <ele>393.76</ele>
  <time>2026-09-01T19:55:24Z</time>
  <course>347.86</course>
  <speed>17.07</speed>
  <fix>3d</fix>
</trkpt>
<trkpt lat="-27.2727106" lon="151.289769">
  <ele>393.79</ele>
  <time>2026-09-01T19:55:24Z</time>
  <course>336.67</course>
  <speed>17.226099384364414</speed>
  <fix>3d</fix>
</trkpt>
<trkpt lat="-27.2727405" lon="151.2897751">
  <ele>393.76</ele>
  <time>2026-09-01T19:55:24Z</time>
  <course>347.86</course>
  <speed>17.07</speed>
  <fix>3d</fix>
</trkpt>
<trkpt lat="-27.2726953" lon="151.2897665">
  <ele>393.82</ele>
  <time>2026-09-01T19:55:24Z</time>
  <course>337.66</course>
  <speed>17.314782701495275</speed>
  <fix>3d</fix>
</trkpt>
<trkpt lat="-27.2727102" lon="151.2897687">
  <ele>393.82</ele>
  <time>2026-09-01T19:55:24Z</time>
  <course>350.77</course>
  <speed>17.24</speed>
  <fix>3d</fix>
</trkpt>
<trkpt lat="-27.2726799" lon="151.2897643">
  <ele>393.85</ele>
  <time>2026-09-01T19:55:24Z</time>
  <course>338.7</course>
  <speed>17.412874547299765</speed>
  <fix>3d</fix>
</trkpt>
<trkpt lat="-27.2727102" lon="151.2897687">
  <ele>393.82</ele>
  <time>2026-09-01T19:55:24Z</time>
  <course>350.77</course>
  <speed>17.24</speed>
  <fix>3d</fix>
</trkpt>
<trkpt lat="-27.2726643" lon="151.2897626">
  <ele>393.87</ele>
  <time>2026-09-01T19:55:24Z</time>
  <course>339.81</course>
  <speed>17.520936048054054</speed>
  <fix>3d</fix>
</trkpt>
<trkpt lat="-27.2726793" lon="151.289764">
  <ele>393.88</ele>
  <time>2026-09-01T19:55:24Z</time>
  <course>353.67</course>
  <speed>17.44</speed>
  <fix>3d</fix>
</trkpt>
<trkpt lat="-27.2726485" lon="151.2897613">
  <ele>393.9</ele>
  <time>2026-09-01T19:55:24Z</time>
  <course>340.86</course>
  <speed>17.638939877441615</speed>
  <fix>3d</fix>
</trkpt>
<trkpt lat="-27.2726793" lon="151.289764">
  <ele>393.88</ele>
  <time>2026-09-01T19:55:24Z</time>
  <course>353.67</course>
  <speed>17.44</speed>
  <fix>3d</fix>
</trkpt>
<trkpt lat="-27.2726326" lon="151.2897605">
  <ele>393.92</ele>
  <time>2026-09-01T19:55:24Z</time>
  <course>341.87</course>
  <speed>17.748836581590357</speed>
  <fix>3d</fix>
</trkpt>
<trkpt lat="-27.2726479" lon="151.289761">
  <ele>393.93</ele>
  <time>2026-09-01T19:55:24Z</time>
  <course>356.61</course>
  <speed>17.65</speed>
  <fix>3d</fix>
</trkpt>
<trkpt lat="-27.2726164" lon="151.2897601">
  <ele>393.95</ele>
  <time>2026-09-01T19:55:24Z</time>
  <course>342.94</course>
  <speed>17.87022663538434</speed>
  <fix>3d</fix>
</trkpt>
<trkpt lat="-27.2726479" lon="151.289761">
  <ele>393.93</ele>
  <time>2026-09-01T19:55:24Z</time>
  <course>356.61</course>
  <speed>17.65</speed>
  <fix>3d</fix>
</trkpt>
<trkpt lat="-27.2726003" lon="151.2897602">
  <ele>393.97</ele>
  <time>2026-09-01T19:55:24Z</time>
  <course>344.06</course>
  <speed>17.99380448932354</speed>
  <fix>3d</fix>
</trkpt>
<trkpt lat="-27.272616" lon="151.2897598">
  <ele>393.98</ele>
  <time>2026-09-01T19:55:24Z</time>
  <course>359.59</course>
  <speed>17.88</speed>
  <fix>3d</fix>
</trkpt>
<trkpt lat="-27.272584" lon="151.2897608">
  <ele>393.99</ele>
  <time>2026-09-01T19:55:24Z</time>
  <course>345.19</course>
  <speed>18.129936569111322</speed>
  <fix>3d</fix>
</trkpt>
<trkpt lat="-27.272616" lon="151.2897598">
  <ele>393.98</ele>
  <time>2026-09-01T19:55:24Z</time>
  <course>359.59</course>
  <speed>17.88</speed>
  <fix>3d</fix>
</trkpt>
<trkpt lat="-27.2725676" lon="151.2897619">
  <ele>394.02</ele>
  <time>2026-09-01T19:55:24Z</time>
  <course>346.34</course>
  <speed>18.27068690553259</speed>
  <fix>3d</fix>
</trkpt>
<trkpt lat="-27.2725837" lon="151.2897605">
  <ele>394.03</ele>
  <time>2026-09-01T19:55:24Z</time>
  <course>2.63</course>
  <speed>18.14</speed>
  <fix>3d</fix>
</trkpt>
<trkpt lat="-27.2725512" lon="151.2897634">
  <ele>394.04</ele>
  <time>2026-09-01T19:55:24Z</time>
  <course>347.4</course>
  <speed>18.414179319209424</speed>
  <fix>3d</fix>
</trkpt>
<trkpt lat="-27.2725837" lon="151.2897605">
  <ele>394.03</ele>
  <time>2026-09-01T19:55:24Z</time>
  <course>2.63</course>
  <speed>18.14</speed>
  <fix>3d</fix>
</trkpt>
<trkpt lat="-27.2725346" lon="151.2897655">
  <ele>394.07</ele>
  <time>2026-09-01T19:55:24Z</time>
  <course>348.52</course>
  <speed>18.57056811193454</speed>
  <fix>3d</fix>
</trkpt>
<trkpt lat="-27.2725509" lon="151.2897631">
  <ele>394.09</ele>
  <time>2026-09-01T19:55:24Z</time>
  <course>5.69</course>
  <speed>18.42</speed>
  <fix>3d</fix>
</trkpt>
<trkpt lat="-27.272518" lon="151.2897681">
  <ele>394.09</ele>
  <time>2026-09-01T19:55:24Z</time>
  <course>349.68</course>
  <speed>18.721295361165584</speed>
  <fix>3d</fix>
</trkpt>
<trkpt lat="-27.2725509" lon="151.2897631">
  <ele>394.09</ele>
  <time>2026-09-01T19:55:24Z</time>
  <course>5.69</course>
  <speed>18.42</speed>
  <fix>3d</fix>
</trkpt>
<trkpt lat="-27.2725013" lon="151.2897713">
  <ele>394.12</ele>
  <time>2026-09-01T19:55:24Z</time>
  <course>350.86</course>
  <speed>18.88672814438753</speed>
  <fix>3d</fix>
</trkpt>
<trkpt lat="-27.2725178" lon="151.2897678">
  <ele>394.15</ele>
  <time>2026-09-01T19:55:24Z</time>
  <course>8.74</course>
  <speed>18.72</speed>
  <fix>3d</fix>
</trkpt>
<trkpt lat="-27.2724845" lon="151.289775">
  <ele>394.15</ele>
  <time>2026-09-01T19:55:24Z</time>
  <course>352.09</course>
  <speed>19.047729523489146</speed>
  <fix>3d</fix>
</trkpt>
<trkpt lat="-27.2725178" lon="151.2897678">
  <ele>394.15</ele>
  <time>2026-09-01T19:55:24Z</time>
  <course>8.74</course>
  <speed>18.72</speed>
  <fix>3d</fix>
</trkpt>
<trkpt lat="-27.2724677" lon="151.2897792">
  <ele>394.18</ele>
  <time>2026-09-01T19:55:24Z</time>
  <course>353.31</course>
  <speed>19.214778166817332</speed>
  <fix>3d</fix>
</trkpt>
<trkpt lat="-27.2724845" lon="151.2897746">
  <ele>394.21</ele>
  <time>2026-09-01T19:55:24Z</time>
  <course>11.8</course>
  <speed>19.04</speed>
  <fix>3d</fix>
</trkpt>
<trkpt lat="-27.2724508" lon="151.2897839">
  <ele>394.2</ele>
  <time>2026-09-01T19:55:24Z</time>
  <course>354.55</course>
  <speed>19.398136508438125</speed>
  <fix>3d</fix>
</trkpt>
<trkpt lat="-27.2724845" lon="151.2897746">
  <ele>394.21</ele>
  <time>2026-09-01T19:55:24Z</time>
  <course>11.8</course>
  <speed>19.04</speed>
  <fix>3d</fix>
</trkpt>
<trkpt lat="-27.272434" lon="151.2897893">
  <ele>394.22</ele>
  <time>2026-09-01T19:55:24Z</time>
  <course>355.75</course>
  <speed>19.579014275494057</speed>
  <fix>3d</fix>
</trkpt>
<trkpt lat="-27.2724509" lon="151.2897836">
  <ele>394.26</ele>
  <time>2026-09-01T19:55:24Z</time>
  <course>14.89</course>
  <speed>19.38</speed>
  <fix>3d</fix>
</trkpt>
<trkpt lat="-27.272417" lon="151.2897951">
  <ele>394.25</ele>
  <time>2026-09-01T19:55:24Z</time>
  <course>357.06</course>
  <speed>19.767743927924602</speed>
  <fix>3d</fix>
</trkpt>
<trkpt lat="-27.2724509" lon="151.2897836">
  <ele>394.26</ele>
  <time>2026-09-01T19:55:24Z</time>
  <course>14.89</course>
  <speed>19.38</speed>
  <fix>3d</fix>
</trkpt>
<trkpt lat="-27.2724001" lon="151.2898016">
  <ele>394.27</ele>
  <time>2026-09-01T19:55:24Z</time>
  <course>358.4</course>
  <speed>19.968297373586964</speed>
  <fix>3d</fix>
</trkpt>
<trkpt lat="-27.2724171" lon="151.2897949">
  <ele>394.31</ele>
  <time>2026-09-01T19:55:24Z</time>
  <course>18.05</course>
  <speed>19.75</speed>
  <fix>3d</fix>
</trkpt>
<trkpt lat="-27.2723832" lon="151.2898087">
  <ele>394.29</ele>
  <time>2026-09-01T19:55:24Z</time>
  <course>359.76</course>
  <speed>20.178426598721714</speed>
  <fix>3d</fix>
</trkpt>
<trkpt lat="-27.2724171" lon="151.2897949">
  <ele>394.31</ele>
  <time>2026-09-01T19:55:24Z</time>
  <course>18.05</course>
  <speed>19.75</speed>
  <fix>3d</fix>
</trkpt>
<trkpt lat="-27.2723663" lon="151.2898164">
  <ele>394.31</ele>
  <time>2026-09-01T19:55:24Z</time>
  <course>1.15</course>
  <speed>20.389507105371628</speed>
  <fix>3d</fix>
</trkpt>
<trkpt lat="-27.2723834" lon="151.2898084">
  <ele>394.36</ele>
  <time>2026-09-01T19:55:24Z</time>
  <course>21.25</course>
  <speed>20.16</speed>
  <fix>3d</fix>
</trkpt>
<trkpt lat="-27.2723494" lon="151.2898248">
  <ele>394.34</ele>
  <time>2026-09-01T19:55:24Z</time>
  <course>2.52</course>
  <speed>20.615707603669584</speed>
  <fix>3d</fix>
</trkpt>
<trkpt lat="-27.2723834" lon="151.2898084">
  <ele>394.36</ele>
  <time>2026-09-01T19:55:24Z</time>
  <course>21.25</course>
  <speed>20.16</speed>
  <fix>3d</fix>
</trkpt>
<trkpt lat="-27.2723326" lon="151.2898337">
  <ele>394.37</ele>
  <time>2026-09-01T19:55:24Z</time>
  <course>3.93</course>
  <speed>20.845001798992485</speed>
  <fix>3d</fix>
</trkpt>
<trkpt lat="-27.2723497" lon="151.2898244">
  <ele>394.42</ele>
  <time>2026-09-01T19:55:24Z</time>
  <course>24.52</course>
  <speed>20.59</speed>
  <fix>3d</fix>
</trkpt>
<trkpt lat="-27.2723158" lon="151.2898434">
  <ele>394.4</ele>
  <time>2026-09-01T19:55:24Z</time>
  <course>5.37</course>
  <speed>21.073666031329243</speed>
  <fix>3d</fix>
</trkpt>
<trkpt lat="-27.2723497" lon="151.2898244">
  <ele>394.42</ele>
  <time>2026-09-01T19:55:24Z</time>
  <course>24.52</course>
  <speed>20.59</speed>
  <fix>3d</fix>
</trkpt>
<trkpt lat="-27.2722991" lon="151.2898536">
  <ele>394.42</ele>
  <time>2026-09-01T19:55:24Z</time>
  <course>6.96</course>
  <speed>21.311773741291454</speed>
  <fix>3d</fix>
</trkpt>
<trkpt lat="-27.2723161" lon="151.289843">
  <ele>394.47</ele>
  <time>2026-09-01T19:55:24Z</time>
  <course>27.84</course>
  <speed>21.05</speed>
  <fix>3d</fix>
</trkpt>
<trkpt lat="-27.2722825" lon="151.2898646">
  <ele>394.45</ele>
  <time>2026-09-01T19:55:24Z</time>
  <course>8.54</course>
  <speed>21.552552053063227</speed>
  <fix>3d</fix>
</trkpt>
<trkpt lat="-27.2723161" lon="151.289843">
  <ele>394.47</ele>
  <time>2026-09-01T19:55:24Z</time>
  <course>27.84</course>
  <speed>21.05</speed>
  <fix>3d</fix>
</trkpt>
<trkpt lat="-27.2722658" lon="151.2898763">
  <ele>394.48</ele>
  <time>2026-09-01T19:55:24Z</time>
  <course>10.09</course>
  <speed>21.815045266971143</speed>
  <fix>3d</fix>
</trkpt>
<trkpt lat="-27.2722828" lon="151.2898642">
  <ele>394.53</ele>
  <time>2026-09-01T19:55:24Z</time>
  <course>31.23</course>
  <speed>21.53</speed>
  <fix>3d</fix>
</trkpt>
<trkpt lat="-27.2722494" lon="151.2898887">
  <ele>394.52</ele>
  <time>2026-09-01T19:55:24Z</time>
  <course>11.63</course>
  <speed>22.08093521570135</speed>
  <fix>3d</fix>
</trkpt>
<trkpt lat="-27.2722828" lon="151.2898642">
  <ele>394.53</ele>
  <time>2026-09-01T19:55:24Z</time>
  <course>31.23</course>
  <speed>21.53</speed>
  <fix>3d</fix>
</trkpt>
<trkpt lat="-27.2722332" lon="151.2899018">
  <ele>394.55</ele>
  <time>2026-09-01T19:55:24Z</time>
  <course>13.22</course>
  <speed>22.342464053904173</speed>
  <fix>3d</fix>
</trkpt>
<trkpt lat="-27.27225" lon="151.2898882">
  <ele>394.6</ele>
  <time>2026-09-01T19:55:24Z</time>
  <course>34.7</course>
  <speed>22.05</speed>
  <fix>3d</fix>
</trkpt>
<trkpt lat="-27.2722172" lon="151.2899156">
  <ele>394.59</ele>
  <time>2026-09-01T19:55:24Z</time>
  <course>14.81</course>
  <speed>22.622398192941436</speed>
  <fix>3d</fix>
</trkpt>
<trkpt lat="-27.27225" lon="151.2898882">
  <ele>394.6</ele>
  <time>2026-09-01T19:55:24Z</time>
  <course>34.7</course>
  <speed>22.05</speed>
  <fix>3d</fix>
</trkpt>
<trkpt lat="-27.2722013" lon="151.2899301">
  <ele>394.62</ele>
  <time>2026-09-01T19:55:24Z</time>
  <course>16.41</course>
  <speed>22.893066635992653</speed>
  <fix>3d</fix>
</trkpt>
<trkpt lat="-27.2722178" lon="151.289915">
  <ele>394.66</ele>
  <time>2026-09-01T19:55:24Z</time>
  <course>38.16</course>
  <speed>22.59</speed>
  <fix>3d</fix>
</trkpt>
<trkpt lat="-27.2721856" lon="151.2899453">
  <ele>394.66</ele>
  <time>2026-09-01T19:55:24Z</time>
  <course>18.1</course>
  <speed>23.16886056758079</speed>
  <fix>3d</fix>
</trkpt>
<trkpt lat="-27.2722178" lon="151.289915">
  <ele>394.66</ele>
  <time>2026-09-01T19:55:24Z</time>
  <course>38.16</course>
  <speed>22.59</speed>
  <fix>3d</fix>
</trkpt>
<trkpt lat="-27.2721702" lon="151.2899612">
  <ele>394.69</ele>
  <time>2026-09-01T19:55:24Z</time>
  <course>19.9</course>
  <speed>23.463948943006162</speed>
  <fix>3d</fix>
</trkpt>
<trkpt lat="-27.2721862" lon="151.2899446">
  <ele>394.74</ele>
  <time>2026-09-01T19:55:24Z</time>
  <course>41.61</course>
  <speed>23.15</speed>
  <fix>3d</fix>
</trkpt>
<trkpt lat="-27.2721549" lon="151.2899779">
  <ele>394.72</ele>
  <time>2026-09-01T19:55:24Z</time>
  <course>21.7</course>
  <speed>23.766036691042956</speed>
  <fix>3d</fix>
</trkpt>
<trkpt lat="-27.2721862" lon="151.2899446">
  <ele>394.74</ele>
  <time>2026-09-01T19:55:24Z</time>
  <course>41.61</course>
  <speed>23.15</speed>
  <fix>3d</fix>
</trkpt>
<trkpt lat="-27.27214" lon="151.2899954">
  <ele>394.76</ele>
  <time>2026-09-01T19:55:24Z</time>
  <course>23.49</course>
  <speed>24.070733266770247</speed>
  <fix>3d</fix>
</trkpt>
<trkpt lat="-27.2721556" lon="151.2899772">
  <ele>394.81</ele>
  <time>2026-09-01T19:55:24Z</time>
  <course>45.14</course>
  <speed>23.74</speed>
  <fix>3d</fix>
</trkpt>
<trkpt lat="-27.2721255" lon="151.2900135">
  <ele>394.79</ele>
  <time>2026-09-01T19:55:24Z</time>
  <course>25.41</course>
  <speed>24.386309683918967</speed>
  <fix>3d</fix>
</trkpt>
<trkpt lat="-27.2721556" lon="151.2899772">
  <ele>394.81</ele>
  <time>2026-09-01T19:55:24Z</time>
  <course>45.14</course>
  <speed>23.74</speed>
  <fix>3d</fix>
</trkpt>
<trkpt lat="-27.2721113" lon="151.2900323">
  <ele>394.83</ele>
  <time>2026-09-01T19:55:24Z</time>
  <course>27.37</course>
  <speed>24.715974591344764</speed>
  <fix>3d</fix>
</trkpt>
<trkpt lat="-27.2721262" lon="151.2900126">
  <ele>394.89</ele>
  <time>2026-09-01T19:55:24Z</time>
  <course>48.79</course>
  <speed>24.36</speed>
  <fix>3d</fix>
</trkpt>
<trkpt lat="-27.2720976" lon="151.2900519">
  <ele>394.87</ele>
  <time>2026-09-01T19:55:24Z</time>
  <course>29.36</course>
  <speed>25.03115059281135</speed>
  <fix>3d</fix>
</trkpt>
<trkpt lat="-27.2721262" lon="151.2900126">
  <ele>394.89</ele>
  <time>2026-09-01T19:55:24Z</time>
  <course>48.79</course>
  <speed>24.36</speed>
  <fix>3d</fix>
</trkpt>
<trkpt lat="-27.2720842" lon="151.2900723">
  <ele>394.91</ele>
  <time>2026-09-01T19:55:24Z</time>
  <course>31.4</course>
  <speed>25.365239994922185</speed>
  <fix>3d</fix>
</trkpt>
<trkpt lat="-27.272098" lon="151.2900513">
  <ele>394.96</ele>
  <time>2026-09-01T19:55:24Z</time>
  <course>52.52</course>
  <speed>25.02</speed>
  <fix>3d</fix>
</trkpt>
<trkpt lat="-27.2720712" lon="151.2900934">
  <ele>394.95</ele>
  <time>2026-09-01T19:55:24Z</time>
  <course>33.46</course>
  <speed>25.69654062320452</speed>
  <fix>3d</fix>
</trkpt>
<trkpt lat="-27.272098" lon="151.2900513">
  <ele>394.96</ele>
  <time>2026-09-01T19:55:24Z</time>
  <course>52.52</course>
  <speed>25.02</speed>
  <fix>3d</fix>
</trkpt>
<trkpt lat="-27.2720588" lon="151.2901153">
  <ele>394.99</ele>
  <time>2026-09-01T19:55:24Z</time>
  <course>35.61</course>
  <speed>26.048953913737115</speed>
  <fix>3d</fix>
</trkpt>
<trkpt lat="-27.2720715" lon="151.2900931">
  <ele>395.04</ele>
  <time>2026-09-01T19:55:24Z</time>
  <course>56.35</course>
  <speed>25.71</speed>
  <fix>3d</fix>
</trkpt>
<trkpt lat="-27.2720468" lon="151.290138">
  <ele>395.03</ele>
  <time>2026-09-01T19:55:24Z</time>
  <course>37.85</course>
  <speed>26.405796712085774</speed>
  <fix>3d</fix>
</trkpt>
<trkpt lat="-27.2720715" lon="151.2900931">
  <ele>395.04</ele>
  <time>2026-09-01T19:55:24Z</time>
  <course>56.35</course>
  <speed>25.71</speed>
  <fix>3d</fix>
</trkpt>
<trkpt lat="-27.2720354" lon="151.2901615">
  <ele>395.08</ele>
  <time>2026-09-01T19:55:24Z</time>
  <course>40.07</course>
  <speed>26.761393835149917</speed>
  <fix>3d</fix>
</trkpt>
<trkpt lat="-27.2720469" lon="151.290138">
  <ele>395.13</ele>
  <time>2026-09-01T19:55:24Z</time>
  <course>60.28</course>
  <speed>26.42</speed>
  <fix>3d</fix>
</trkpt>
<trkpt lat="-27.2720246" lon="151.2901857">
  <ele>395.13</ele>
  <time>2026-09-01T19:55:24Z</time>
  <course>42.35</course>
  <speed>27.12286857985342</speed>
  <fix>3d</fix>
</trkpt>
<trkpt lat="-27.2720469" lon="151.290138">
  <ele>395.13</ele>
  <time>2026-09-01T19:55:24Z</time>
  <course>60.28</course>
  <speed>26.42</speed>
  <fix>3d</fix>
</trkpt>
<trkpt lat="-27.2720144" lon="151.2902108">
  <ele>395.18</ele>
  <time>2026-09-01T19:55:24Z</time>
  <course>44.65</course>
  <speed>27.492182525219782</speed>
  <fix>3d</fix>
</trkpt>
<trkpt lat="-27.2720246" lon="151.2901858">
  <ele>395.22</ele>
  <time>2026-09-01T19:55:24Z</time>
  <course>64.3</course>
  <speed>27.16</speed>
  <fix>3d</fix>
</trkpt>
<trkpt lat="-27.2720049" lon="151.2902365">
  <ele>395.23</ele>
  <time>2026-09-01T19:55:24Z</time>
  <course>47.06</course>
  <speed>27.862067403550654</speed>
  <fix>3d</fix>
</trkpt>
<trkpt lat="-27.2720246" lon="151.2901858">
  <ele>395.22</ele>
  <time>2026-09-01T19:55:24Z</time>
  <course>64.3</course>
  <speed>27.16</speed>
  <fix>3d</fix>
</trkpt>
<trkpt lat="-27.2719962" lon="151.2902628">
  <ele>395.28</ele>
  <time>2026-09-01T19:55:24Z</time>
  <course>49.47</course>
  <speed>28.246445794117175</speed>
  <fix>3d</fix>
</trkpt>
<trkpt lat="-27.2720047" lon="151.2902368">
  <ele>395.32</ele>
  <time>2026-09-01T19:55:24Z</time>
  <course>68.41</course>
  <speed>27.91</speed>
  <fix>3d</fix>
</trkpt>
<trkpt lat="-27.2719881" lon="151.29029">
  <ele>395.34</ele>
  <time>2026-09-01T19:55:24Z</time>
  <course>51.98</course>
  <speed>28.620679586620582</speed>
  <fix>3d</fix>
</trkpt>
<trkpt lat="-27.2720047" lon="151.2902368">
  <ele>395.32</ele>
  <time>2026-09-01T19:55:24Z</time>
  <course>68.41</course>
  <speed>27.91</speed>
  <fix>3d</fix>
</trkpt>
<trkpt lat="-27.2719809" lon="151.2903179">
  <ele>395.4</ele>
  <time>2026-09-01T19:55:24Z</time>
  <course>54.56</course>
  <speed>29.013100489261742</speed>
  <fix>3d</fix>
</trkpt>
<trkpt lat="-27.2719878" lon="151.2902907">
  <ele>395.43</ele>
  <time>2026-09-01T19:55:24Z</time>
  <course>72.6</course>
  <speed>28.69</speed>
  <fix>3d</fix>
</trkpt>
<trkpt lat="-27.2719745" lon="151.2903465">
  <ele>395.46</ele>
  <time>2026-09-01T19:55:24Z</time>
  <course>57.18</course>
  <speed>29.407131788054407</speed>
  <fix>3d</fix>
</trkpt>
<trkpt lat="-27.2719878" lon="151.2902907">
  <ele>395.43</ele>
  <time>2026-09-01T19:55:24Z</time>
  <course>72.6</course>
  <speed>28.69</speed>
  <fix>3d</fix>
</trkpt>
<trkpt lat="-27.271969" lon="151.2903757">
  <ele>395.52</ele>
  <time>2026-09-01T19:55:24Z</time>
  <course>59.89</course>
  <speed>29.789187635784902</speed>
  <fix>3d</fix>
</trkpt>
<trkpt lat="-27.2719741" lon="151.2903474">
  <ele>395.54</ele>
  <time>2026-09-01T19:55:24Z</time>
  <course>76.89</course>
  <speed>29.47</speed>
  <fix>3d</fix>
</trkpt>
<trkpt lat="-27.2719643" lon="151.2904058">
  <ele>395.58</ele>
  <time>2026-09-01T19:55:24Z</time>
  <course>62.68</course>
  <speed>30.187290371942957</speed>
  <fix>3d</fix>
</trkpt>
<trkpt lat="-27.2719741" lon="151.2903474">
  <ele>395.54</ele>
  <time>2026-09-01T19:55:24Z</time>
  <course>76.89</course>
  <speed>29.47</speed>
  <fix>3d</fix>
</trkpt>
<trkpt lat="-27.2719608" lon="151.2904362">
  <ele>395.64</ele>
  <time>2026-09-01T19:55:24Z</time>
  <course>65.63</course>
  <speed>30.591779941677142</speed>
  <fix>3d</fix>
</trkpt>
<trkpt lat="-27.2719639" lon="151.2904067">
  <ele>395.66</ele>
  <time>2026-09-01T19:55:24Z</time>
  <course>81.35</course>
  <speed>30.26</speed>
  <fix>3d</fix>
</trkpt>
<trkpt lat="-27.2719583" lon="151.2904672">
  <ele>395.72</ele>
  <time>2026-09-01T19:55:24Z</time>
  <course>68.59</course>
  <speed>30.980577786736</speed>
  <fix>3d</fix>
</trkpt>
<trkpt lat="-27.2719639" lon="151.2904067">
  <ele>395.66</ele>
  <time>2026-09-01T19:55:24Z</time>
  <course>81.35</course>
  <speed>30.26</speed>
  <fix>3d</fix>
</trkpt>
<trkpt lat="-27.271957" lon="151.2904989">
  <ele>395.8</ele>
  <time>2026-09-01T19:55:24Z</time>
  <course>71.65</course>
  <speed>31.369948995814447</speed>
  <fix>3d</fix>
</trkpt>
<trkpt lat="-27.2719578" lon="151.2904682">
  <ele>395.8</ele>
  <time>2026-09-01T19:55:24Z</time>
  <course>86.01</course>
  <speed>31.05</speed>
  <fix>3d</fix>
</trkpt>
<trkpt lat="-27.2719568" lon="151.2905308">
  <ele>395.88</ele>
  <time>2026-09-01T19:55:24Z</time>
  <course>74.7</course>
  <speed>31.744097089065235</speed>
  <fix>3d</fix>
</trkpt>
<trkpt lat="-27.2719578" lon="151.2904682">
  <ele>395.8</ele>
  <time>2026-09-01T19:55:24Z</time>
  <course>86.01</course>
  <speed>31.05</speed>
  <fix>3d</fix>
</trkpt>
<trkpt lat="-27.2719578" lon="151.2905631">
  <ele>395.97</ele>
  <time>2026-09-01T19:55:24Z</time>
  <course>77.84</course>
  <speed>32.11390975885683</speed>
  <fix>3d</fix>
</trkpt>
<trkpt lat="-27.2719563" lon="151.2905317">
  <ele>395.96</ele>
  <time>2026-09-01T19:55:24Z</time>
  <course>90.8</course>
  <speed>31.82</speed>
  <fix>3d</fix>
</trkpt>
<trkpt lat="-27.27196" lon="151.2905957">
  <ele>396.06</ele>
  <time>2026-09-01T19:55:24Z</time>
  <course>81.01</course>
  <speed>32.48500115437892</speed>
  <fix>3d</fix>
</trkpt>
<trkpt lat="-27.2719563" lon="151.2905317">
  <ele>395.96</ele>
  <time>2026-09-01T19:55:24Z</time>
  <course>90.8</course>
  <speed>31.82</speed>
  <fix>3d</fix>
</trkpt>
<trkpt lat="-27.2719636" lon="151.2906285">
  <ele>396.15</ele>
  <time>2026-09-01T19:55:24Z</time>
  <course>84.21</course>
  <speed>32.83952039844675</speed>
  <fix>3d</fix>
</trkpt>
<trkpt lat="-27.2719595" lon="151.2905968">
  <ele>396.13</ele>
  <time>2026-09-01T19:55:24Z</time>
  <course>95.66</course>
  <speed>32.56</speed>
  <fix>3d</fix>
</trkpt>
<trkpt lat="-27.2719684" lon="151.2906615">
  <ele>396.25</ele>
  <time>2026-09-01T19:55:24Z</time>
  <course>87.49</course>
  <speed>33.18060276727956</speed>
  <fix>3d</fix>
</trkpt>
<trkpt lat="-27.2719595" lon="151.2905968">
  <ele>396.13</ele>
  <time>2026-09-01T19:55:24Z</time>
  <course>95.66</course>
  <speed>32.56</speed>
  <fix>3d</fix>
</trkpt>
<trkpt lat="-27.2719745" lon="151.2906945">
  <ele>396.35</ele>
  <time>2026-09-01T19:55:24Z</time>
  <course>90.91</course>
  <speed>33.51647952873333</speed>
  <fix>3d</fix>
</trkpt>
<trkpt lat="-27.2719679" lon="151.2906627">
  <ele>396.31</ele>
  <time>2026-09-01T19:55:24Z</time>
  <course>100.65</course>
  <speed>33.26</speed>
  <fix>3d</fix>
</trkpt>
<trkpt lat="-27.271982" lon="151.2907276">
  <ele>396.45</ele>
  <time>2026-09-01T19:55:24Z</time>
  <course>94.25</course>
  <speed>33.83607690025544</speed>
  <fix>3d</fix>
</trkpt>
<trkpt lat="-27.2719679" lon="151.2906627">
  <ele>396.31</ele>
  <time>2026-09-01T19:55:24Z</time>
  <course>100.65</course>
  <speed>33.26</speed>
  <fix>3d</fix>
</trkpt>
<trkpt lat="-27.2719909" lon="151.2907605">
  <ele>396.56</ele>
  <time>2026-09-01T19:55:24Z</time>
  <course>97.75</course>
  <speed>34.12730285270138</speed>
  <fix>3d</fix>
</trkpt>
<trkpt lat="-27.2719817" lon="151.2907287">
  <ele>396.51</ele>
  <time>2026-09-01T19:55:24Z</time>
  <course>105.73</course>
  <speed>33.9</speed>
  <fix>3d</fix>
</trkpt>
<trkpt lat="-27.2720013" lon="151.2907932">
  <ele>396.67</ele>
  <time>2026-09-01T19:55:24Z</time>
  <course>101.29</course>
  <speed>34.4160427707777</speed>
  <fix>3d</fix>
</trkpt>
<trkpt lat="-27.2719817" lon="151.2907287">
  <ele>396.51</ele>
  <time>2026-09-01T19:55:24Z</time>
  <course>105.73</course>
  <speed>33.9</speed>
  <fix>3d</fix>
</trkpt>
<trkpt lat="-27.2720131" lon="151.2908256">
  <ele>396.78</ele>
  <time>2026-09-01T19:55:24Z</time>
  <course>104.91</course>
  <speed>34.67030573848463</speed>
  <fix>3d</fix>
</trkpt>
<trkpt lat="-27.272001" lon="151.2907943">
  <ele>396.72</ele>
  <time>2026-09-01T19:55:24Z</time>
  <course>110.95</course>
  <speed>34.48</speed>
  <fix>3d</fix>
</trkpt>
<trkpt lat="-27.2720263" lon="151.2908576">
  <ele>396.9</ele>
  <time>2026-09-01T19:55:24Z</time>
  <course>108.56</course>
  <speed>34.91854092026183</speed>
  <fix>3d</fix>
</trkpt>
<trkpt lat="-27.272001" lon="151.2907943">
  <ele>396.72</ele>
  <time>2026-09-01T19:55:24Z</time>
  <course>110.95</course>
  <speed>34.48</speed>
  <fix>3d</fix>
</trkpt>
<trkpt lat="-27.2720409" lon="151.290889">
  <ele>397.02</ele>
  <time>2026-09-01T19:55:24Z</time>
  <course>112.28</course>
  <speed>35.12854252598591</speed>
  <fix>3d</fix>
</trkpt>
<trkpt lat="-27.272026" lon="151.2908587">
  <ele>396.95</ele>
  <time>2026-09-01T19:55:24Z</time>
  <course>116.3</course>
  <speed>34.98</speed>
  <fix>3d</fix>
</trkpt>
<trkpt lat="-27.2720568" lon="151.2909195">
  <ele>397.15</ele>
  <time>2026-09-01T19:55:24Z</time>
  <course>115.97</course>
  <speed>35.316038849225436</speed>
  <fix>3d</fix>
</trkpt>
<trkpt lat="-27.272026" lon="151.2908587">
  <ele>396.95</ele>
  <time>2026-09-01T19:55:24Z</time>
  <course>116.3</course>
  <speed>34.98</speed>
  <fix>3d</fix>
</trkpt>
<trkpt lat="-27.2720742" lon="151.2909495">
  <ele>397.28</ele>
  <time>2026-09-01T19:55:24Z</time>
  <course>119.71</course>
  <speed>35.47508562357532</speed>
  <fix>3d</fix>
</trkpt>
<trkpt lat="-27.2720567" lon="151.2909208">
  <ele>397.19</ele>
  <time>2026-09-01T19:55:24Z</time>
  <course>121.76</course>
  <speed>35.38</speed>
  <fix>3d</fix>
</trkpt>
<trkpt lat="-27.2720929" lon="151.2909787">
  <ele>397.41</ele>
  <time>2026-09-01T19:55:24Z</time>
  <course>123.6</course>
  <speed>35.609661610298964</speed>
  <fix>3d</fix>
</trkpt>
<trkpt lat="-27.2720567" lon="151.2909208">
  <ele>397.19</ele>
  <time>2026-09-01T19:55:24Z</time>
  <course>121.76</course>
  <speed>35.38</speed>
  <fix>3d</fix>
</trkpt>
<trkpt lat="-27.272113" lon="151.2910069">
  <ele>397.55</ele>
  <time>2026-09-01T19:55:24Z</time>
  <course>127.47</course>
  <speed>35.70416502314541</speed>
  <fix>3d</fix>
</trkpt>
<trkpt lat="-27.2720928" lon="151.2909799">
  <ele>397.45</ele>
  <time>2026-09-01T19:55:24Z</time>
  <course>127.32</course>
  <speed>35.66</speed>
  <fix>3d</fix>
</trkpt>
<trkpt lat="-27.2721345" lon="151.2910342">
  <ele>397.69</ele>
  <time>2026-09-01T19:55:24Z</time>
  <course>131.52</course>
  <speed>35.769665919602886</speed>
  <fix>3d</fix>
</trkpt>
<trkpt lat="-27.2720928" lon="151.2909799">
  <ele>397.45</ele>
  <time>2026-09-01T19:55:24Z</time>
  <course>127.32</course>
  <speed>35.66</speed>
  <fix>3d</fix>
</trkpt>
<trkpt lat="-27.272157" lon="151.2910601">
  <ele>397.83</ele>
  <time>2026-09-01T19:55:24Z</time>
  <course>135.43</course>
  <speed>35.79991620101924</speed>
  <fix>3d</fix>
</trkpt>
<trkpt lat="-27.2721343" lon="151.291035">
  <ele>397.71</ele>
  <time>2026-09-01T19:55:24Z</time>
  <course>133.02</course>
  <speed>35.82</speed>
  <fix>3d</fix>
</trkpt>
<trkpt lat="-27.2721807" lon="151.2910846">
  <ele>397.98</ele>
  <time>2026-09-01T19:55:24Z</time>
  <course>139.35</course>
  <speed>35.79260817543198</speed>
  <fix>3d</fix>
</trkpt>
<trkpt lat="-27.2721343" lon="151.291035">
  <ele>397.71</ele>
  <time>2026-09-01T19:55:24Z</time>
  <course>133.02</course>
  <speed>35.82</speed>
  <fix>3d</fix>
</trkpt>
<trkpt lat="-27.2722054" lon="151.2911078">
  <ele>398.12</ele>
  <time>2026-09-01T19:55:24Z</time>
  <course>143.36</course>
  <speed>35.749405589464</speed>
  <fix>3d</fix>
</trkpt>
<trkpt lat="-27.2721805" lon="151.2910855">
  <ele>398.0</ele>
  <time>2026-09-01T19:55:24Z</time>
  <course>138.79</course>
  <speed>35.84</speed>
  <fix>3d</fix>
</trkpt>
<trkpt lat="-27.2722311" lon="151.2911295">
  <ele>398.27</ele>
  <time>2026-09-01T19:55:24Z</time>
  <course>147.36</course>
  <speed>35.66641697731915</speed>
  <fix>3d</fix>
</trkpt>
<trkpt lat="-27.2721805" lon="151.2910855">
  <ele>398.0</ele>
  <time>2026-09-01T19:55:24Z</time>
  <course>138.79</course>
  <speed>35.84</speed>
  <fix>3d</fix>
</trkpt>
<trkpt lat="-27.2722577" lon="151.2911496">
  <ele>398.43</ele>
  <time>2026-09-01T19:55:24Z</time>
  <course>151.3</course>
  <speed>35.53591000663976</speed>
  <fix>3d</fix>
</trkpt>
<trkpt lat="-27.272231" lon="151.2911303">
  <ele>398.3</ele>
  <time>2026-09-01T19:55:24Z</time>
  <course>144.59</course>
  <speed>35.71</speed>
  <fix>3d</fix>
</trkpt>
<trkpt lat="-27.272285" lon="151.2911681">
  <ele>398.58</ele>
  <time>2026-09-01T19:55:24Z</time>
  <course>155.1</course>
  <speed>35.37892310401774</speed>
  <fix>3d</fix>
</trkpt>
<trkpt lat="-27.272231" lon="151.2911303">
  <ele>398.3</ele>
  <time>2026-09-01T19:55:24Z</time>
  <course>144.59</course>
  <speed>35.71</speed>
  <fix>3d</fix>
</trkpt>
<trkpt lat="-27.2723129" lon="151.2911849">
  <ele>398.73</ele>
  <time>2026-09-01T19:55:24Z</time>
  <course>158.91</course>
  <speed>35.17783535125491</speed>
  <fix>3d</fix>
</trkpt>
<trkpt lat="-27.2722849" lon="151.2911689">
  <ele>398.6</ele>
  <time>2026-09-01T19:55:24Z</time>
  <course>150.38</course>
  <speed>35.43</speed>
  <fix>3d</fix>
</trkpt>
<trkpt lat="-27.2723414" lon="151.2912002">
  <ele>398.88</ele>
  <time>2026-09-01T19:55:24Z</time>
  <course>162.7</course>
  <speed>34.94528580509823</speed>
  <fix>3d</fix>
</trkpt>
<trkpt lat="-27.2722849" lon="151.2911689">
  <ele>398.6</ele>
  <time>2026-09-01T19:55:24Z</time>
  <course>150.38</course>
  <speed>35.43</speed>
  <fix>3d</fix>
</trkpt>
<trkpt lat="-27.2723703" lon="151.2912137">
  <ele>399.04</ele>
  <time>2026-09-01T19:55:24Z</time>
  <course>166.37</course>
  <speed>34.68168681018846</speed>
  <fix>3d</fix>
</trkpt>
<trkpt lat="-27.2723414" lon="151.291201">
  <ele>398.9</ele>
  <time>2026-09-01T19:55:24Z</time>
  <course>156.03</course>
  <speed>35.01</speed>
  <fix>3d</fix>
</trkpt>
<trkpt lat="-27.2723995" lon="151.2912256">
  <ele>399.18</ele>
  <time>2026-09-01T19:55:25Z</time>
  <course>170.03</course>
  <speed>34.39935464510926</speed>
  <fix>3d</fix>
</trkpt>
<trkpt lat="-27.2723414" lon="151.291201">
  <ele>398.9</ele>
  <time>2026-09-01T19:55:25Z</time>
  <course>156.03</course>
  <speed>35.01</speed>
  <fix>3d</fix>
</trkpt>
<trkpt lat="-27.2724292" lon="151.2912358">
  <ele>399.32</ele>
  <time>2026-09-01T19:55:25Z</time>
  <course>173.73</course>
  <speed>34.08551745243132</speed>
  <fix>3d</fix>
</trkpt>
<trkpt lat="-27.2723997" lon="151.2912264">
  <ele>399.19</ele>
  <time>2026-09-01T19:55:25Z</time>
  <course>161.58</course>
  <speed>34.46</speed>
  <fix>3d</fix>
</trkpt>
<trkpt lat="-27.2724588" lon="151.2912443">
  <ele>399.46</ele>
  <time>2026-09-01T19:55:25Z</time>
  <course>177.25</course>
  <speed>33.72984583421632</speed>
  <fix>3d</fix>
</trkpt>
<trkpt lat="-27.2723997" lon="151.2912264">
  <ele>399.19</ele>
  <time>2026-09-01T19:55:25Z</time>
  <course>161.58</course>
  <speed>34.46</speed>
  <fix>3d</fix>
</trkpt>
<trkpt lat="-27.2724883" lon="151.2912512">
  <ele>399.59</ele>
  <time>2026-09-01T19:55:25Z</time>
  <course>180.57</course>
  <speed>33.37916865351802</speed>
  <fix>3d</fix>
</trkpt>
<trkpt lat="-27.2724588" lon="151.291245">
  <ele>399.47</ele>
  <time>2026-09-01T19:55:25Z</time>
  <course>166.99</course>
  <speed>33.81</speed>
  <fix>3d</fix>
</trkpt>
<trkpt lat="-27.2725178" lon="151.2912565">
  <ele>399.72</ele>
  <time>2026-09-01T19:55:25Z</time>
  <course>183.84</course>
  <speed>33.00594188930229</speed>
  <fix>3d</fix>
</trkpt>
<trkpt lat="-27.2724588" lon="151.291245">
  <ele>399.47</ele>
  <time>2026-09-01T19:55:25Z</time>
  <course>166.99</course>
  <speed>33.81</speed>
  <fix>3d</fix>
</trkpt>
<trkpt lat="-27.2725472" lon="151.2912603">
  <ele>399.83</ele>
  <time>2026-09-01T19:55:25Z</time>
  <course>187.05</course>
  <speed>32.604639240451654</speed>
  <fix>3d</fix>
</trkpt>
<trkpt lat="-27.2725178" lon="151.2912572">
  <ele>399.72</ele>
  <time>2026-09-01T19:55:25Z</time>
  <course>172.17</course>
  <speed>33.07</speed>
  <fix>3d</fix>
</trkpt>
<trkpt lat="-27.2725763" lon="151.2912627">
  <ele>399.94</ele>
  <time>2026-09-01T19:55:25Z</time>
  <course>190.14</course>
  <speed>32.188311543167345</speed>
  <fix>3d</fix>
</trkpt>
<trkpt lat="-27.2725178" lon="151.2912572">
  <ele>399.72</ele>
  <time>2026-09-01T19:55:25Z</time>
  <course>172.17</course>
  <speed>33.07</speed>
  <fix>3d</fix>
</trkpt>
<trkpt lat="-27.2726049" lon="151.2912637">
  <ele>400.03</ele>
  <time>2026-09-01T19:55:25Z</time>
  <course>192.98</course>
  <speed>31.77123384447006</speed>
  <fix>3d</fix>
</trkpt>
<trkpt lat="-27.2725762" lon="151.2912634">
  <ele>399.94</ele>
  <time>2026-09-01T19:55:25Z</time>
  <course>177.05</course>
  <speed>32.27</speed>
  <fix>3d</fix>
</trkpt>
<trkpt lat="-27.2726334" lon="151.2912635">
  <ele>400.11</ele>
  <time>2026-09-01T19:55:25Z</time>
  <course>195.69</course>
  <speed>31.353208767205953</speed>
  <fix>3d</fix>
</trkpt>
<trkpt lat="-27.2725762" lon="151.2912634">
  <ele>399.94</ele>
  <time>2026-09-01T19:55:25Z</time>
  <course>177.05</course>
  <speed>32.27</speed>
  <fix>3d</fix>
</trkpt>
<trkpt lat="-27.2726615" lon="151.2912621">
  <ele>400.17</ele>
  <time>2026-09-01T19:55:25Z</time>
  <course>198.36</course>
  <speed>30.936674029378143</speed>
  <fix>3d</fix>
</trkpt>
<trkpt lat="-27.2726334" lon="151.291264">
  <ele>400.11</ele>
  <time>2026-09-01T19:55:25Z</time>
  <course>181.56</course>
  <speed>31.42</speed>
  <fix>3d</fix>
</trkpt>
<trkpt lat="-27.2726891" lon="151.2912596">
  <ele>400.22</ele>
  <time>2026-09-01T19:55:25Z</time>
  <course>200.94</course>
  <speed>30.50588303917787</speed>
  <fix>3d</fix>
</trkpt>
<trkpt lat="-27.2726334" lon="151.291264">
  <ele>400.11</ele>
  <time>2026-09-01T19:55:25Z</time>
  <course>181.56</course>
  <speed>31.42</speed>
  <fix>3d</fix>
</trkpt>
<trkpt lat="-27.2727165" lon="151.291256">
  <ele>400.25</ele>
  <time>2026-09-01T19:55:25Z</time>
  <course>203.3</course>
  <speed>30.07529883475807</speed>
  <fix>3d</fix>
</trkpt>
<trkpt lat="-27.272689" lon="151.2912601">
  <ele>400.22</ele>
  <time>2026-09-01T19:55:25Z</time>
  <course>185.71</course>
  <speed>30.57</speed>
  <fix>3d</fix>
</trkpt>
<trkpt lat="-27.2727431" lon="151.2912515">
  <ele>400.26</ele>
  <time>2026-09-01T19:55:25Z</time>
  <course>205.55</course>
  <speed>29.664222558496284</speed>
  <fix>3d</fix>
</trkpt>
<trkpt lat="-27.272689" lon="151.2912601">
  <ele>400.22</ele>
  <time>2026-09-01T19:55:25Z</time>
  <course>185.71</course>
  <speed>30.57</speed>
  <fix>3d</fix>
</trkpt>
<trkpt lat="-27.2727693" lon="151.2912461">
  <ele>400.25</ele>
  <time>2026-09-01T19:55:25Z</time>
  <course>207.79</course>
  <speed>29.264466508036673</speed>
  <fix>3d</fix>
</trkpt>
<trkpt lat="-27.2727426" lon="151.291252">
  <ele>400.27</ele>
  <time>2026-09-01T19:55:25Z</time>
  <course>189.53</course>
  <speed>29.73</speed>
  <fix>3d</fix>
</trkpt>
<trkpt lat="-27.2727949" lon="151.2912399">
  <ele>400.21</ele>
  <time>2026-09-01T19:55:25Z</time>
  <course>210.02</course>
  <speed>28.865302700647362</speed>
  <fix>3d</fix>
</trkpt>
<trkpt lat="-27.2727426" lon="151.291252">
  <ele>400.27</ele>
  <time>2026-09-01T19:55:25Z</time>
  <course>189.53</course>
  <speed>29.73</speed>
  <fix>3d</fix>
</trkpt>
<trkpt lat="-27.27282" lon="151.2912329">
  <ele>400.15</ele>
  <time>2026-09-01T19:55:25Z</time>
  <course>212.23</course>
  <speed>28.45755435732312</speed>
  <fix>3d</fix>
</trkpt>
<trkpt lat="-27.2727942" lon="151.2912404">
  <ele>400.23</ele>
  <time>2026-09-01T19:55:25Z</time>
  <course>193.11</course>
  <speed>28.91</speed>
  <fix>3d</fix>
</trkpt>
<trkpt lat="-27.2728445" lon="151.2912251">
  <ele>400.07</ele>
  <time>2026-09-01T19:55:25Z</time>
  <course>214.35</course>
  <speed>28.053792969935458</speed>
  <fix>3d</fix>
</trkpt>
<trkpt lat="-27.2727942" lon="151.2912404">
  <ele>400.23</ele>
  <time>2026-09-01T19:55:25Z</time>
  <course>193.11</course>
  <speed>28.91</speed>
  <fix>3d</fix>
</trkpt>
<trkpt lat="-27.2728684" lon="151.2912166">
  <ele>399.97</ele>
  <time>2026-09-01T19:55:25Z</time>
  <course>216.41</course>
  <speed>27.66679779085393</speed>
  <fix>3d</fix>
</trkpt>
<trkpt lat="-27.2728436" lon="151.2912256">
  <ele>400.1</ele>
  <time>2026-09-01T19:55:25Z</time>
  <course>196.61</course>
  <speed>28.1</speed>
  <fix>3d</fix>
</trkpt>
<trkpt lat="-27.2728918" lon="151.2912075">
  <ele>399.84</ele>
  <time>2026-09-01T19:55:25Z</time>
  <course>218.47</course>
  <speed>27.272823469527317</speed>
  <fix>3d</fix>
</trkpt>
<trkpt lat="-27.2728436" lon="151.2912256">
  <ele>400.1</ele>
  <time>2026-09-01T19:55:25Z</time>
  <course>196.61</course>
  <speed>28.1</speed>
  <fix>3d</fix>
</trkpt>
<trkpt lat="-27.2729146" lon="151.2911977">
  <ele>399.69</ele>
  <time>2026-09-01T19:55:25Z</time>
  <course>220.57</course>
  <speed>26.881257411066173</speed>
  <fix>3d</fix>
</trkpt>
<trkpt lat="-27.272891" lon="151.291208">
  <ele>399.87</ele>
  <time>2026-09-01T19:55:25Z</time>
  <course>200.07</course>
  <speed>27.3</speed>
  <fix>3d</fix>
</trkpt>
<trkpt lat="-27.2729368" lon="151.2911873">
  <ele>399.53</ele>
  <time>2026-09-01T19:55:25Z</time>
  <course>222.63</course>
  <speed>26.494159733797936</speed>
  <fix>3d</fix>
</trkpt>
<trkpt lat="-27.272891" lon="151.291208">
  <ele>399.87</ele>
  <time>2026-09-01T19:55:25Z</time>
  <course>200.07</course>
  <speed>27.3</speed>
  <fix>3d</fix>
</trkpt>
<trkpt lat="-27.2729583" lon="151.2911763">
  <ele>399.34</ele>
  <time>2026-09-01T19:55:25Z</time>
  <course>224.72</course>
  <speed>26.110430865843636</speed>
  <fix>3d</fix>
</trkpt>
<trkpt lat="-27.272936" lon="151.2911878">
  <ele>399.56</ele>
  <time>2026-09-01T19:55:25Z</time>
  <course>203.55</course>
  <speed>26.52</speed>
  <fix>3d</fix>
</trkpt>
<trkpt lat="-27.2729793" lon="151.2911647">
  <ele>399.14</ele>
  <time>2026-09-01T19:55:25Z</time>
  <course>226.87</course>
  <speed>25.724859572017102</speed>
  <fix>3d</fix>
</trkpt>
<trkpt lat="-27.272936" lon="151.2911878">
  <ele>399.56</ele>
  <time>2026-09-01T19:55:25Z</time>
  <course>203.55</course>
  <speed>26.52</speed>
  <fix>3d</fix>
</trkpt>
<trkpt lat="-27.2729996" lon="151.2911526">
  <ele>398.92</ele>
  <time>2026-09-01T19:55:25Z</time>
  <course>229.05</course>
  <speed>25.335035030565873</speed>
  <fix>3d</fix>
</trkpt>
<trkpt lat="-27.2729784" lon="151.2911652">
  <ele>399.18</ele>
  <time>2026-09-01T19:55:25Z</time>
  <course>207.14</course>
  <speed>25.74</speed>
  <fix>3d</fix>
</trkpt>
<trkpt lat="-27.2730192" lon="151.2911398">
  <ele>398.69</ele>
  <time>2026-09-01T19:55:25Z</time>
  <course>231.25</course>
  <speed>24.951330625840377</speed>
  <fix>3d</fix>
</trkpt>
<trkpt lat="-27.2729784" lon="151.2911652">
  <ele>399.18</ele>
  <time>2026-09-01T19:55:25Z</time>
  <course>207.14</course>
  <speed>25.74</speed>
  <fix>3d</fix>
</trkpt>
<trkpt lat="-27.2730381" lon="151.2911266">
  <ele>398.44</ele>
  <time>2026-09-01T19:55:25Z</time>
  <course>233.48</course>
  <speed>24.561386361522835</speed>
  <fix>3d</fix>
</trkpt>
<trkpt lat="-27.2730182" lon="151.2911404">
  <ele>398.73</ele>
  <time>2026-09-01T19:55:25Z</time>
  <course>210.96</course>
  <speed>24.97</speed>
  <fix>3d</fix>
</trkpt>
<trkpt lat="-27.2730562" lon="151.2911128">
  <ele>398.19</ele>
  <time>2026-09-01T19:55:25Z</time>
  <course>235.69</course>
  <speed>24.180454917143308</speed>
  <fix>3d</fix>
</trkpt>
<trkpt lat="-27.2730182" lon="151.2911404">
  <ele>398.73</ele>
  <time>2026-09-01T19:55:25Z</time>
  <course>210.96</course>
  <speed>24.97</speed>
  <fix>3d</fix>
</trkpt>
<trkpt lat="-27.2730737" lon="151.2910985">
  <ele>397.92</ele>
  <time>2026-09-01T19:55:25Z</time>
  <course>237.9</course>
  <speed>23.806244978996585</speed>
  <fix>3d</fix>
</trkpt>
<trkpt lat="-27.2730552" lon="151.2911133">
  <ele>398.24</ele>
  <time>2026-09-01T19:55:25Z</time>
  <course>215.03</course>
  <speed>24.2</speed>
  <fix>3d</fix>
</trkpt>
<trkpt lat="-27.2730903" lon="151.2910837">
  <ele>397.65</ele>
  <time>2026-09-01T19:55:25Z</time>
  <course>240.18</course>
  <speed>23.42909515965139</speed>
  <fix>3d</fix>
</trkpt>
<trkpt lat="-27.2730552" lon="151.2911133">
  <ele>398.24</ele>
  <time>2026-09-01T19:55:25Z</time>
  <course>215.03</course>
  <speed>24.2</speed>
  <fix>3d</fix>
</trkpt>
<trkpt lat="-27.2731062" lon="151.2910684">
  <ele>397.38</ele>
  <time>2026-09-01T19:55:25Z</time>
  <course>242.5</course>
  <speed>23.057590940946106</speed>
  <fix>3d</fix>
</trkpt>
<trkpt lat="-27.2730893" lon="151.2910842">
  <ele>397.71</ele>
  <time>2026-09-01T19:55:25Z</time>
  <course>219.32</course>
  <speed>23.44</speed>
  <fix>3d</fix>
</trkpt>
<trkpt lat="-27.2731213" lon="151.2910528">
  <ele>397.11</ele>
  <time>2026-09-01T19:55:25Z</time>
  <course>244.81</course>
  <speed>22.688499289287517</speed>
  <fix>3d</fix>
</trkpt>
<trkpt lat="-27.2730893" lon="151.2910842">
  <ele>397.71</ele>
  <time>2026-09-01T19:55:25Z</time>
  <course>219.32</course>
  <speed>23.44</speed>
  <fix>3d</fix>
</trkpt>
<trkpt lat="-27.2731355" lon="151.2910367">
  <ele>396.83</ele>
  <time>2026-09-01T19:55:25Z</time>
  <course>247.11</course>
  <speed>22.32146948567679</speed>
  <fix>3d</fix>
</trkpt>
<trkpt lat="-27.2731203" lon="151.2910532">
  <ele>397.16</ele>
  <time>2026-09-01T19:55:25Z</time>
  <course>223.87</course>
  <speed>22.7</speed>
  <fix>3d</fix>
</trkpt>
<trkpt lat="-27.2731489" lon="151.2910202">
  <ele>396.56</ele>
  <time>2026-09-01T19:55:25Z</time>
  <course>249.34</course>
  <speed>21.949965831408484</speed>
  <fix>3d</fix>
</trkpt>
<trkpt lat="-27.2731203" lon="151.2910532">
  <ele>397.16</ele>
  <time>2026-09-01T19:55:25Z</time>
  <course>223.87</course>
  <speed>22.7</speed>
  <fix>3d</fix>
</trkpt>
<trkpt lat="-27.2731615" lon="151.2910034">
  <ele>396.29</ele>
  <time>2026-09-01T19:55:25Z</time>
  <course>251.57</course>
  <speed>21.607038205177496</speed>
  <fix>3d</fix>
</trkpt>
<trkpt lat="-27.2731481" lon="151.2910207">
  <ele>396.63</ele>
  <time>2026-09-01T19:55:25Z</time>
  <course>228.57</course>
  <speed>21.99</speed>
  <fix>3d</fix>
</trkpt>
<trkpt lat="-27.2731732" lon="151.2909863">
  <ele>396.03</ele>
  <time>2026-09-01T19:55:25Z</time>
  <course>253.78</course>
  <speed>21.264225826490836</speed>
  <fix>3d</fix>
</trkpt>
<trkpt lat="-27.2731481" lon="151.2910207">
  <ele>396.63</ele>
  <time>2026-09-01T19:55:25Z</time>
  <course>228.57</course>
  <speed>21.99</speed>
  <fix>3d</fix>
</trkpt>
<trkpt lat="-27.2731841" lon="151.290969">
  <ele>395.78</ele>
  <time>2026-09-01T19:55:25Z</time>
  <course>255.85</course>
  <speed>20.93811118510932</speed>
  <fix>3d</fix>
</trkpt>
<trkpt lat="-27.2731726" lon="151.2909867">
  <ele>396.09</ele>
  <time>2026-09-01T19:55:25Z</time>
  <course>233.32</course>
  <speed>21.31</speed>
  <fix>3d</fix>
</trkpt>
<trkpt lat="-27.2731943" lon="151.2909514">
  <ele>395.53</ele>
  <time>2026-09-01T19:55:25Z</time>
  <course>257.86</course>
  <speed>20.630758590027657</speed>
  <fix>3d</fix>
</trkpt>
<trkpt lat="-27.2731726" lon="151.2909867">
  <ele>396.09</ele>
  <time>2026-09-01T19:55:25Z</time>
  <course>233.32</course>
  <speed>21.31</speed>
  <fix>3d</fix>
</trkpt>
<trkpt lat="-27.2732037" lon="151.2909337">
  <ele>395.29</ele>
  <time>2026-09-01T19:55:25Z</time>
  <course>259.79</course>
  <speed>20.341730506522794</speed>
  <fix>3d</fix>
</trkpt>
<trkpt lat="-27.2731938" lon="151.2909517">
  <ele>395.59</ele>
  <time>2026-09-01T19:55:25Z</time>
  <course>238.01</course>
  <speed>20.69</speed>
  <fix>3d</fix>
</trkpt>
<trkpt lat="-27.2732123" lon="151.2909158">
  <ele>395.06</ele>
  <time>2026-09-01T19:55:25Z</time>
  <course>261.66</course>
  <speed>20.068515141883317</speed>
  <fix>3d</fix>
</trkpt>
<trkpt lat="-27.2731938" lon="151.2909517">
  <ele>395.59</ele>
  <time>2026-09-01T19:55:25Z</time>
  <course>238.01</course>
  <speed>20.69</speed>
  <fix>3d</fix>
</trkpt>
<trkpt lat="-27.2732202" lon="151.2908977">
  <ele>394.83</ele>
  <time>2026-09-01T19:55:25Z</time>
  <course>263.44</course>
  <speed>19.81234211293556</speed>
  <fix>3d</fix>
</trkpt>
<trkpt lat="-27.273212" lon="151.2909158">
  <ele>395.11</ele>
  <time>2026-09-01T19:55:25Z</time>
  <course>242.53</course>
  <speed>20.12</speed>
  <fix>3d</fix>
</trkpt>
<trkpt lat="-27.2732274" lon="151.2908796">
  <ele>394.61</ele>
  <time>2026-09-01T19:55:25Z</time>
  <course>265.17</course>
  <speed>19.56466713235878</speed>
  <fix>3d</fix>
</trkpt>
<trkpt lat="-27.273212" lon="151.2909158">
  <ele>395.11</ele>
  <time>2026-09-01T19:55:25Z</time>
  <course>242.53</course>
  <speed>20.12</speed>
  <fix>3d</fix>
</trkpt>
<trkpt lat="-27.273234" lon="151.2908614">
  <ele>394.39</ele>
  <time>2026-09-01T19:55:25Z</time>
  <course>266.82</course>
  <speed>19.3489896377046</speed>
  <fix>3d</fix>
</trkpt>
<trkpt lat="-27.2732273" lon="151.2908795">
  <ele>394.66</ele>
  <time>2026-09-01T19:55:25Z</time>
  <course>246.81</course>
  <speed>19.63</speed>
  <fix>3d</fix>
</trkpt>
<trkpt lat="-27.2732399" lon="151.2908431">
  <ele>394.18</ele>
  <time>2026-09-01T19:55:25Z</time>
  <course>268.35</course>
  <speed>19.142896854969468</speed>
  <fix>3d</fix>
</trkpt>
<trkpt lat="-27.2732273" lon="151.2908795">
  <ele>394.66</ele>
  <time>2026-09-01T19:55:25Z</time>
  <course>246.81</course>
  <speed>19.63</speed>
  <fix>3d</fix>
</trkpt>
<trkpt lat="-27.2732453" lon="151.2908248">
  <ele>393.98</ele>
  <time>2026-09-01T19:55:25Z</time>
  <course>269.82</course>
  <speed>18.958364908398615</speed>
  <fix>3d</fix>
</trkpt>
<trkpt lat="-27.2732399" lon="151.2908429">
  <ele>394.23</ele>
  <time>2026-09-01T19:55:25Z</time>
  <course>250.77</course>
  <speed>19.2</speed>
  <fix>3d</fix>
</trkpt>
<trkpt lat="-27.2732501" lon="151.2908065">
  <ele>393.78</ele>
  <time>2026-09-01T19:55:25Z</time>
  <course>271.22</course>
  <speed>18.785922921166264</speed>
  <fix>3d</fix>
</trkpt>
<trkpt lat="-27.2732399" lon="151.2908429">
  <ele>394.23</ele>
  <time>2026-09-01T19:55:25Z</time>
  <course>250.77</course>
  <speed>19.2</speed>
  <fix>3d</fix>
</trkpt>
<trkpt lat="-27.2732543" lon="151.2907882">
  <ele>393.59</ele>
  <time>2026-09-01T19:55:25Z</time>
  <course>272.51</course>
  <speed>18.641394797600313</speed>
  <fix>3d</fix>
</trkpt>
<trkpt lat="-27.2732501" lon="151.2908062">
  <ele>393.83</ele>
  <time>2026-09-01T19:55:25Z</time>
  <course>254.42</course>
  <speed>18.85</speed>
  <fix>3d</fix>
</trkpt>
<trkpt lat="-27.2732581" lon="151.2907699">
  <ele>393.4</ele>
  <time>2026-09-01T19:55:25Z</time>
  <course>273.81</course>
  <speed>18.497959346911756</speed>
  <fix>3d</fix>
</trkpt>
<trkpt lat="-27.2732501" lon="151.2908062">
  <ele>393.83</ele>
  <time>2026-09-01T19:55:25Z</time>
  <course>254.42</course>
  <speed>18.85</speed>
  <fix>3d</fix>
</trkpt>
<trkpt lat="-27.2732614" lon="151.2907516">
  <ele>393.21</ele>
  <time>2026-09-01T19:55:25Z</time>
  <course>275.07</course>
  <speed>18.377257684431594</speed>
  <fix>3d</fix>
</trkpt>
<trkpt lat="-27.2732582" lon="151.2907695">
  <ele>393.45</ele>
  <time>2026-09-01T19:55:25Z</time>
  <course>257.76</course>
  <speed>18.56</speed>
  <fix>3d</fix>
</trkpt>
<trkpt lat="-27.2732642" lon="151.2907333">
  <ele>393.03</ele>
  <time>2026-09-01T19:55:25Z</time>
  <course>276.26</course>
  <speed>18.261733214566462</speed>
  <fix>3d</fix>
</trkpt>
<trkpt lat="-27.2732582" lon="151.2907695">
  <ele>393.45</ele>
  <time>2026-09-01T19:55:25Z</time>
  <course>257.76</course>
  <speed>18.56</speed>
  <fix>3d</fix>
</trkpt>
<trkpt lat="-27.2732666" lon="151.290715">
  <ele>392.85</ele>
  <time>2026-09-01T19:55:25Z</time>
  <course>277.41</course>
  <speed>18.163284394624228</speed>
  <fix>3d</fix>
</trkpt>
<trkpt lat="-27.2732643" lon="151.2907329">
  <ele>393.09</ele>
  <time>2026-09-01T19:55:25Z</time>
  <course>260.84</course>
  <speed>18.32</speed>
  <fix>3d</fix>
</trkpt>
<trkpt lat="-27.2732686" lon="151.2906968">
  <ele>392.68</ele>
  <time>2026-09-01T19:55:25Z</time>
  <course>278.52</course>
  <speed>18.067719834002297</speed>
  <fix>3d</fix>
</trkpt>
<trkpt lat="-27.2732643" lon="151.2907329">
  <ele>393.09</ele>
  <time>2026-09-01T19:55:25Z</time>
  <course>260.84</course>
  <speed>18.32</speed>
  <fix>3d</fix>
</trkpt>
<trkpt lat="-27.2732702" lon="151.2906787">
  <ele>392.52</ele>
  <time>2026-09-01T19:55:25Z</time>
  <course>279.58</course>
  <speed>17.986050150046843</speed>
  <fix>3d</fix>
</trkpt>
<trkpt lat="-27.2732687" lon="151.2906965">
  <ele>392.75</ele>
  <time>2026-09-01T19:55:25Z</time>
  <course>263.72</course>
  <speed>18.12</speed>
  <fix>3d</fix>
</trkpt>
<trkpt lat="-27.2732714" lon="151.2906605">
  <ele>392.37</ele>
  <time>2026-09-01T19:55:25Z</time>
  <course>280.59</course>
  <speed>17.915043957523523</speed>
  <fix>3d</fix>
</trkpt>
<trkpt lat="-27.2732687" lon="151.2906965">
  <ele>392.75</ele>
  <time>2026-09-01T19:55:25Z</time>
  <course>263.72</course>
  <speed>18.12</speed>
  <fix>3d</fix>
</trkpt>
<trkpt lat="-27.2732722" lon="151.2906426">
  <ele>392.23</ele>
  <time>2026-09-01T19:55:25Z</time>
  <course>281.5</course>
  <speed>17.844130687707935</speed>
  <fix>3d</fix>
</trkpt>
<trkpt lat="-27.2732715" lon="151.2906602">
  <ele>392.44</ele>
  <time>2026-09-01T19:55:25Z</time>
  <course>266.42</course>
  <speed>17.96</speed>
  <fix>3d</fix>
</trkpt>
<trkpt lat="-27.2732727" lon="151.2906246">
  <ele>392.09</ele>
  <time>2026-09-01T19:55:25Z</time>
  <course>282.44</course>
  <speed>17.782879406890213</speed>
  <fix>3d</fix>
</trkpt>
<trkpt lat="-27.2732715" lon="151.2906602">
  <ele>392.44</ele>
  <time>2026-09-01T19:55:25Z</time>
  <course>266.42</course>
  <speed>17.96</speed>
  <fix>3d</fix>
</trkpt>
<trkpt lat="-27.2732728" lon="151.2906066">
  <ele>391.96</ele>
  <time>2026-09-01T19:55:25Z</time>
  <course>283.35</course>
  <speed>17.73004512120598</speed>
  <fix>3d</fix>
</trkpt>
<trkpt lat="-27.2732727" lon="151.290624">
  <ele>392.16</ele>
  <time>2026-09-01T19:55:25Z</time>
  <course>268.95</course>
  <speed>17.83</speed>
  <fix>3d</fix>
</trkpt>
<trkpt lat="-27.2732726" lon="151.2905883">
  <ele>391.84</ele>
  <time>2026-09-01T19:55:25Z</time>
  <course>284.2</course>
  <speed>17.674526867783477</speed>
  <fix>3d</fix>
</trkpt>
<trkpt lat="-27.2732727" lon="151.290624">
  <ele>392.16</ele>
  <time>2026-09-01T19:55:25Z</time>
  <course>268.95</course>
  <speed>17.83</speed>
  <fix>3d</fix>
</trkpt>
<trkpt lat="-27.2732721" lon="151.2905705">
  <ele>391.74</ele>
  <time>2026-09-01T19:55:25Z</time>
  <course>285.02</course>
  <speed>17.635532314052785</speed>
  <fix>3d</fix>
</trkpt>
<trkpt lat="-27.2732726" lon="151.290588">
  <ele>391.92</ele>
  <time>2026-09-01T19:55:25Z</time>
  <course>271.31</course>
  <speed>17.72</speed>
  <fix>3d</fix>
</trkpt>
<trkpt lat="-27.2732713" lon="151.2905526">
  <ele>391.64</ele>
  <time>2026-09-01T19:55:25Z</time>
  <course>285.87</course>
  <speed>17.5931804969994</speed>
  <fix>3d</fix>
</trkpt>
<trkpt lat="-27.2732726" lon="151.290588">
  <ele>391.92</ele>
  <time>2026-09-01T19:55:25Z</time>
  <course>271.31</course>
  <speed>17.72</speed>
  <fix>3d</fix>
</trkpt>
<trkpt lat="-27.2732701" lon="151.2905349">
  <ele>391.55</ele>
  <time>2026-09-01T19:55:25Z</time>
  <course>286.69</course>
  <speed>17.55671096760438</speed>
  <fix>3d</fix>
</trkpt>
<trkpt lat="-27.2732713" lon="151.2905524">
  <ele>391.72</ele>
  <time>2026-09-01T19:55:25Z</time>
  <course>273.55</course>
  <speed>17.63</speed>
  <fix>3d</fix>
</trkpt>
<trkpt lat="-27.2732688" lon="151.2905172">
  <ele>391.47</ele>
  <time>2026-09-01T19:55:25Z</time>
  <course>287.44</course>
  <speed>17.515644435760848</speed>
  <fix>3d</fix>
</trkpt>
<trkpt lat="-27.2732713" lon="151.2905524">
  <ele>391.72</ele>
  <time>2026-09-01T19:55:25Z</time>
  <course>273.55</course>
  <speed>17.63</speed>
  <fix>3d</fix>
</trkpt>
<trkpt lat="-27.2732671" lon="151.2904996">
  <ele>391.4</ele>
  <time>2026-09-01T19:55:25Z</time>
  <course>288.22</course>
  <speed>17.46951916911281</speed>
  <fix>3d</fix>
</trkpt>
<trkpt lat="-27.2732688" lon="151.2905169">
  <ele>391.55</ele>
  <time>2026-09-01T19:55:25Z</time>
  <course>275.7</course>
  <speed>17.55</speed>
  <fix>3d</fix>
</trkpt>
<trkpt lat="-27.2732652" lon="151.2904821">
  <ele>391.34</ele>
  <time>2026-09-01T19:55:25Z</time>
  <course>289.01</course>
  <speed>17.439062474800647</speed>
  <fix>3d</fix>
</trkpt>
<trkpt lat="-27.2732688" lon="151.2905169">
  <ele>391.55</ele>
  <time>2026-09-01T19:55:25Z</time>
  <course>275.7</course>
  <speed>17.55</speed>
  <fix>3d</fix>
</trkpt>
<trkpt lat="-27.2732629" lon="151.2904646">
  <ele>391.29</ele>
  <time>2026-09-01T19:55:25Z</time>
  <course>289.71</course>
  <speed>17.394588238874757</speed>
  <fix>3d</fix>
</trkpt>
<trkpt lat="-27.2732651" lon="151.2904817">
  <ele>391.43</ele>
  <time>2026-09-01T19:55:25Z</time>
  <course>277.79</course>
  <speed>17.47</speed>
  <fix>3d</fix>
</trkpt>
<trkpt lat="-27.2732604" lon="151.2904473">
  <ele>391.25</ele>
  <time>2026-09-01T19:55:25Z</time>
  <course>290.4</course>
  <speed>17.35429629803525</speed>
  <fix>3d</fix>
</trkpt>
<trkpt lat="-27.2732651" lon="151.2904817">
  <ele>391.43</ele>
  <time>2026-09-01T19:55:25Z</time>
  <course>277.79</course>
  <speed>17.47</speed>
  <fix>3d</fix>
</trkpt>
<trkpt lat="-27.2732576" lon="151.29043">
  <ele>391.22</ele>
  <time>2026-09-01T19:55:25Z</time>
  <course>291.05</course>
  <speed>17.327518575953107</speed>
  <fix>3d</fix>
</trkpt>
<trkpt lat="-27.2732603" lon="151.2904469">
  <ele>391.35</ele>
  <time>2026-09-01T19:55:25Z</time>
  <course>279.85</course>
  <speed>17.39</speed>
  <fix>3d</fix>
</trkpt>
<trkpt lat="-27.2732545" lon="151.2904128">
  <ele>391.21</ele>
  <time>2026-09-01T19:55:25Z</time>
  <course>291.72</course>
  <speed>17.284307912091823</speed>
  <fix>3d</fix>
</trkpt>
<trkpt lat="-27.2732603" lon="151.2904469">
  <ele>391.35</ele>
  <time>2026-09-01T19:55:25Z</time>
  <course>279.85</course>
  <speed>17.39</speed>
  <fix>3d</fix>
</trkpt>
<trkpt lat="-27.2732512" lon="151.2903957">
  <ele>391.2</ele>
  <time>2026-09-01T19:55:25Z</time>
  <course>292.4</course>
  <speed>17.25366337912039</speed>
  <fix>3d</fix>
</trkpt>
<trkpt lat="-27.2732545" lon="151.2904125">
  <ele>391.3</ele>
  <time>2026-09-01T19:55:25Z</time>
  <course>281.82</course>
  <speed>17.32</speed>
  <fix>3d</fix>
</trkpt>
<trkpt lat="-27.2732477" lon="151.2903787">
  <ele>391.19</ele>
  <time>2026-09-01T19:55:25Z</time>
  <course>293.06</course>
  <speed>17.217949936040586</speed>
  <fix>3d</fix>
</trkpt>
<trkpt lat="-27.2732545" lon="151.2904125">
  <ele>391.3</ele>
  <time>2026-09-01T19:55:25Z</time>
  <course>281.82</course>
  <speed>17.32</speed>
  <fix>3d</fix>
</trkpt>
<trkpt lat="-27.2732439" lon="151.2903619">
  <ele>391.19</ele>
  <time>2026-09-01T19:55:25Z</time>
  <course>293.76</course>
  <speed>17.186986355961302</speed>
  <fix>3d</fix>
</trkpt>
<trkpt lat="-27.2732476" lon="151.2903784">
  <ele>391.29</ele>
  <time>2026-09-01T19:55:25Z</time>
  <course>283.72</course>
  <speed>17.25</speed>
  <fix>3d</fix>
</trkpt>
<trkpt lat="-27.2732399" lon="151.2903451">
  <ele>391.2</ele>
  <time>2026-09-01T19:55:25Z</time>
  <course>294.43</course>
  <speed>17.148480982291115</speed>
  <fix>3d</fix>
</trkpt>
<trkpt lat="-27.2732476" lon="151.2903784">
  <ele>391.29</ele>
  <time>2026-09-01T19:55:25Z</time>
  <course>283.72</course>
  <speed>17.25</speed>
  <fix>3d</fix>
</trkpt>
<trkpt lat="-27.2732356" lon="151.2903284">
  <ele>391.21</ele>
  <time>2026-09-01T19:55:25Z</time>
  <course>295.11</course>
  <speed>17.120236563786143</speed>
  <fix>3d</fix>
</trkpt>
<trkpt lat="-27.2732397" lon="151.2903447">
  <ele>391.3</ele>
  <time>2026-09-01T19:55:25Z</time>
  <course>285.62</course>
  <speed>17.18</speed>
  <fix>3d</fix>
</trkpt>
<trkpt lat="-27.2732311" lon="151.2903118">
  <ele>391.23</ele>
  <time>2026-09-01T19:55:25Z</time>
  <course>295.77</course>
  <speed>17.091214117200686</speed>
  <fix>3d</fix>
</trkpt>
<trkpt lat="-27.2732397" lon="151.2903447">
  <ele>391.3</ele>
  <time>2026-09-01T19:55:25Z</time>
  <course>285.62</course>
  <speed>17.18</speed>
  <fix>3d</fix>
</trkpt>
<trkpt lat="-27.2732263" lon="151.2902954">
  <ele>391.25</ele>
  <time>2026-09-01T19:55:25Z</time>
  <course>296.47</course>
  <speed>17.051011700189523</speed>
  <fix>3d</fix>
</trkpt>
<trkpt lat="-27.2732309" lon="151.2903116">
  <ele>391.33</ele>
  <time>2026-09-01T19:55:25Z</time>
  <course>287.55</course>
  <speed>17.11</speed>
  <fix>3d</fix>
</trkpt>
<trkpt lat="-27.2732214" lon="151.2902792">
  <ele>391.28</ele>
  <time>2026-09-01T19:55:25Z</time>
  <course>297.11</course>
  <speed>17.025419231255363</speed>
  <fix>3d</fix>
</trkpt>
<trkpt lat="-27.2732309" lon="151.2903116">
  <ele>391.33</ele>
  <time>2026-09-01T19:55:25Z</time>
  <course>287.55</course>
  <speed>17.11</speed>
  <fix>3d</fix>
</trkpt>
<trkpt lat="-27.2732162" lon="151.2902631">
  <ele>391.31</ele>
  <time>2026-09-01T19:55:25Z</time>
  <course>297.77</course>
  <speed>16.98268824420916</speed>
  <fix>3d</fix>
</trkpt>
<trkpt lat="-27.2732212" lon="151.2902788">
  <ele>391.38</ele>
  <time>2026-09-01T19:55:25Z</time>
  <course>289.51</course>
  <speed>17.04</speed>
  <fix>3d</fix>
</trkpt>
<trkpt lat="-27.2732107" lon="151.290247">
  <ele>391.34</ele>
  <time>2026-09-01T19:55:25Z</time>
  <course>298.44</course>
  <speed>16.948657763964672</speed>
  <fix>3d</fix>
</trkpt>
<trkpt lat="-27.2732212" lon="151.2902788">
  <ele>391.38</ele>
  <time>2026-09-01T19:55:25Z</time>
  <course>289.51</course>
  <speed>17.04</speed>
  <fix>3d</fix>
</trkpt>
<trkpt lat="-27.273205" lon="151.2902311">
  <ele>391.38</ele>
  <time>2026-09-01T19:55:25Z</time>
  <course>299.07</course>
  <speed>16.910789455256076</speed>
  <fix>3d</fix>
</trkpt>
<trkpt lat="-27.2732105" lon="151.2902466">
  <ele>391.45</ele>
  <time>2026-09-01T19:55:25Z</time>
  <course>291.53</course>
  <speed>16.96</speed>
  <fix>3d</fix>
</trkpt>
<trkpt lat="-27.273199" lon="151.2902153">
  <ele>391.42</ele>
  <time>2026-09-01T19:55:25Z</time>
  <course>299.77</course>
  <speed>16.86932423068571</speed>
  <fix>3d</fix>
</trkpt>
<trkpt lat="-27.2732105" lon="151.2902466">
  <ele>391.45</ele>
  <time>2026-09-01T19:55:25Z</time>
  <course>291.53</course>
  <speed>16.96</speed>
  <fix>3d</fix>
</trkpt>
<trkpt lat="-27.2731928" lon="151.2901997">
  <ele>391.47</ele>
  <time>2026-09-01T19:55:25Z</time>
  <course>300.43</course>
  <speed>16.83360923866299</speed>
  <fix>3d</fix>
</trkpt>
<trkpt lat="-27.2731988" lon="151.2902151">
  <ele>391.53</ele>
  <time>2026-09-01T19:55:25Z</time>
  <course>293.61</course>
  <speed>16.88</speed>
  <fix>3d</fix>
</trkpt>
<trkpt lat="-27.2731863" lon="151.2901843">
  <ele>391.52</ele>
  <time>2026-09-01T19:55:25Z</time>
  <course>301.09</course>
  <speed>16.794671774107407</speed>
  <fix>3d</fix>
</trkpt>
<trkpt lat="-27.2731988" lon="151.2902151">
  <ele>391.53</ele>
  <time>2026-09-01T19:55:25Z</time>
  <course>293.61</course>
  <speed>16.88</speed>
  <fix>3d</fix>
</trkpt>
<trkpt lat="-27.2731796" lon="151.2901691">
  <ele>391.57</ele>
  <time>2026-09-01T19:55:25Z</time>
  <course>301.77</course>
  <speed>16.770643994790422</speed>
  <fix>3d</fix>
</trkpt>
<trkpt lat="-27.2731862" lon="151.290184">
  <ele>391.63</ele>
  <time>2026-09-01T19:55:25Z</time>
  <course>295.73</course>
  <speed>16.81</speed>
  <fix>3d</fix>
</trkpt>
<trkpt lat="-27.2731727" lon="151.290154">
  <ele>391.63</ele>
  <time>2026-09-01T19:55:25Z</time>
  <course>302.53</course>
  <speed>16.738948593026983</speed>
  <fix>3d</fix>
</trkpt>
<trkpt lat="-27.2731862" lon="151.290184">
  <ele>391.63</ele>
  <time>2026-09-01T19:55:25Z</time>
  <course>295.73</course>
  <speed>16.81</speed>
  <fix>3d</fix>
</trkpt>
<trkpt lat="-27.2731656" lon="151.2901391">
  <ele>391.69</ele>
  <time>2026-09-01T19:55:25Z</time>
  <course>303.26</course>
  <speed>16.700305386429317</speed>
  <fix>3d</fix>
</trkpt>
<trkpt lat="-27.2731725" lon="151.2901537">
  <ele>391.74</ele>
  <time>2026-09-01T19:55:25Z</time>
  <course>297.89</course>
  <speed>16.74</speed>
  <fix>3d</fix>
</trkpt>
<trkpt lat="-27.2731581" lon="151.2901243">
  <ele>391.75</ele>
  <time>2026-09-01T19:55:25Z</time>
  <course>303.99</course>
  <speed>16.668113270553448</speed>
  <fix>3d</fix>
</trkpt>
<trkpt lat="-27.2731725" lon="151.2901537">
  <ele>391.74</ele>
  <time>2026-09-01T19:55:25Z</time>
  <course>297.89</course>
  <speed>16.74</speed>
  <fix>3d</fix>
</trkpt>
<trkpt lat="-27.2731504" lon="151.2901098">
  <ele>391.81</ele>
  <time>2026-09-01T19:55:25Z</time>
  <course>304.77</course>
  <speed>16.642409681293152</speed>
  <fix>3d</fix>
</trkpt>
<trkpt lat="-27.273158" lon="151.2901242">
  <ele>391.86</ele>
  <time>2026-09-01T19:55:25Z</time>
  <course>300.11</course>
  <speed>16.68</speed>
  <fix>3d</fix>
</trkpt>
<trkpt lat="-27.2731425" lon="151.2900955">
  <ele>391.87</ele>
  <time>2026-09-01T19:55:25Z</time>
  <course>305.5</course>
  <speed>16.61169768566717</speed>
  <fix>3d</fix>
</trkpt>
<trkpt lat="-27.273158" lon="151.2901242">
  <ele>391.86</ele>
  <time>2026-09-01T19:55:25Z</time>
  <course>300.11</course>
  <speed>16.68</speed>
  <fix>3d</fix>
</trkpt>
<trkpt lat="-27.2731344" lon="151.2900814">
  <ele>391.93</ele>
  <time>2026-09-01T19:55:25Z</time>
  <course>306.18</course>
  <speed>16.579990952952897</speed>
  <fix>3d</fix>
</trkpt>
<trkpt lat="-27.2731425" lon="151.2900955">
  <ele>391.98</ele>
  <time>2026-09-01T19:55:25Z</time>
  <course>302.43</course>
  <speed>16.61</speed>
  <fix>3d</fix>
</trkpt>
<trkpt lat="-27.273126" lon="151.2900675">
  <ele>392.0</ele>
  <time>2026-09-01T19:55:25Z</time>
  <course>306.97</course>
  <speed>16.550166162307857</speed>
  <fix>3d</fix>
</trkpt>
<trkpt lat="-27.2731425" lon="151.2900955">
  <ele>391.98</ele>
  <time>2026-09-01T19:55:25Z</time>
  <course>302.43</course>
  <speed>16.61</speed>
  <fix>3d</fix>
</trkpt>
<trkpt lat="-27.2731174" lon="151.2900539">
  <ele>392.07</ele>
  <time>2026-09-01T19:55:25Z</time>
  <course>307.73</course>
  <speed>16.519545998604197</speed>
  <fix>3d</fix>
</trkpt>
<trkpt lat="-27.273126" lon="151.2900675">
  <ele>392.1</ele>
  <time>2026-09-01T19:55:25Z</time>
  <course>304.84</course>
  <speed>16.55</speed>
  <fix>3d</fix>
</trkpt>
<trkpt lat="-27.2731085" lon="151.2900405">
  <ele>392.13</ele>
  <time>2026-09-01T19:55:25Z</time>
  <course>308.52</course>
  <speed>16.49649659776281</speed>
  <fix>3d</fix>
</trkpt>
<trkpt lat="-27.273126" lon="151.2900675">
  <ele>392.1</ele>
  <time>2026-09-01T19:55:25Z</time>
  <course>304.84</course>
  <speed>16.55</speed>
  <fix>3d</fix>
</trkpt>
<trkpt lat="-27.2730994" lon="151.2900273">
  <ele>392.2</ele>
  <time>2026-09-01T19:55:25Z</time>
  <course>309.33</course>
  <speed>16.47482018111275</speed>
  <fix>3d</fix>
</trkpt>
<trkpt lat="-27.2731085" lon="151.2900406">
  <ele>392.23</ele>
  <time>2026-09-01T19:55:25Z</time>
  <course>307.26</course>
  <speed>16.49</speed>
  <fix>3d</fix>
</trkpt>
<trkpt lat="-27.27309" lon="151.2900144">
  <ele>392.27</ele>
  <time>2026-09-01T19:55:25Z</time>
  <course>310.17</course>
  <speed>16.443776938404387</speed>
  <fix>3d</fix>
</trkpt>
<trkpt lat="-27.2731085" lon="151.2900406">
  <ele>392.23</ele>
  <time>2026-09-01T19:55:25Z</time>
  <course>307.26</course>
  <speed>16.49</speed>
  <fix>3d</fix>
</trkpt>
<trkpt lat="-27.2730804" lon="151.2900017">
  <ele>392.33</ele>
  <time>2026-09-01T19:55:25Z</time>
  <course>310.88</course>
  <speed>16.428767452246685</speed>
  <fix>3d</fix>
</trkpt>
<trkpt lat="-27.27309" lon="151.2900145">
  <ele>392.36</ele>
  <time>2026-09-01T19:55:25Z</time>
  <course>309.76</course>
  <speed>16.44</speed>
  <fix>3d</fix>
</trkpt>
<trkpt lat="-27.2730706" lon="151.2899893">
  <ele>392.4</ele>
  <time>2026-09-01T19:55:25Z</time>
  <course>311.67</course>
  <speed>16.40851608159617</speed>
  <fix>3d</fix>
</trkpt>
<trkpt lat="-27.27309" lon="151.2900145">
  <ele>392.36</ele>
  <time>2026-09-01T19:55:25Z</time>
  <course>309.76</course>
  <speed>16.44</speed>
  <fix>3d</fix>
</trkpt>
<trkpt lat="-27.2730606" lon="151.2899773">
  <ele>392.47</ele>
  <time>2026-09-01T19:55:25Z</time>
  <course>312.45</course>
  <speed>16.39586533245501</speed>
  <fix>3d</fix>
</trkpt>
<trkpt lat="-27.2730707" lon="151.2899895">
  <ele>392.5</ele>
  <time>2026-09-01T19:55:25Z</time>
  <course>312.28</course>
  <speed>16.4</speed>
  <fix>3d</fix>
</trkpt>
<trkpt lat="-27.2730503" lon="151.2899654">
  <ele>392.53</ele>
  <time>2026-09-01T19:55:25Z</time>
  <course>313.27</course>
  <speed>16.383738889520913</speed>
  <fix>3d</fix>
</trkpt>
<trkpt lat="-27.2730707" lon="151.2899895">
  <ele>392.5</ele>
  <time>2026-09-01T19:55:25Z</time>
  <course>312.28</course>
  <speed>16.4</speed>
  <fix>3d</fix>
</trkpt>
<trkpt lat="-27.2730398" lon="151.2899538">
  <ele>392.59</ele>
  <time>2026-09-01T19:55:25Z</time>
  <course>314.12</course>
  <speed>16.36568360930884</speed>
  <fix>3d</fix>
</trkpt>
<trkpt lat="-27.2730504" lon="151.2899655">
  <ele>392.63</ele>
  <time>2026-09-01T19:55:25Z</time>
  <course>314.8</course>
  <speed>16.37</speed>
  <fix>3d</fix>
</trkpt>
<trkpt lat="-27.2730291" lon="151.2899424">
  <ele>392.66</ele>
  <time>2026-09-01T19:55:25Z</time>
  <course>314.94</course>
  <speed>16.362988724557628</speed>
  <fix>3d</fix>
</trkpt>
<trkpt lat="-27.2730504" lon="151.2899655">
  <ele>392.63</ele>
  <time>2026-09-01T19:55:25Z</time>
  <course>314.8</course>
  <speed>16.37</speed>
  <fix>3d</fix>
</trkpt>
<trkpt lat="-27.2730181" lon="151.2899313">
  <ele>392.72</ele>
  <time>2026-09-01T19:55:25Z</time>
  <course>315.81</course>
  <speed>16.356313765638028</speed>
  <fix>3d</fix>
</trkpt>
<trkpt lat="-27.2730293" lon="151.2899426">
  <ele>392.76</ele>
  <time>2026-09-01T19:55:25Z</time>
  <course>317.41</course>
  <speed>16.35</speed>
  <fix>3d</fix>
</trkpt>
<trkpt lat="-27.2730069" lon="151.2899205">
  <ele>392.79</ele>
  <time>2026-09-01T19:55:25Z</time>
  <course>316.59</course>
  <speed>16.350318039720204</speed>
  <fix>3d</fix>
</trkpt>
<trkpt lat="-27.2730293" lon="151.2899426">
  <ele>392.76</ele>
  <time>2026-09-01T19:55:25Z</time>
  <course>317.41</course>
  <speed>16.35</speed>
  <fix>3d</fix>
</trkpt>
<trkpt lat="-27.2729955" lon="151.2899101">
  <ele>392.85</ele>
  <time>2026-09-01T19:55:25Z</time>
  <course>317.42</course>
  <speed>16.35298749464452</speed>
  <fix>3d</fix>
</trkpt>
<trkpt lat="-27.2730072" lon="151.2899208">
  <ele>392.88</ele>
  <time>2026-09-01T19:55:25Z</time>
  <course>320.06</course>
  <speed>16.34</speed>
  <fix>3d</fix>
</trkpt>
<trkpt lat="-27.2729839" lon="151.2898999">
  <ele>392.91</ele>
  <time>2026-09-01T19:55:25Z</time>
  <course>318.33</course>
  <speed>16.35030580753767</speed>
  <fix>3d</fix>
</trkpt>
<trkpt lat="-27.2730072" lon="151.2899208">
  <ele>392.88</ele>
  <time>2026-09-01T19:55:25Z</time>
  <course>320.06</course>
  <speed>16.34</speed>
  <fix>3d</fix>
</trkpt>
<trkpt lat="-27.2729721" lon="151.2898901">
  <ele>392.97</ele>
  <time>2026-09-01T19:55:25Z</time>
  <course>319.21</course>
  <speed>16.358606297603718</speed>
  <fix>3d</fix>
</trkpt>
<trkpt lat="-27.2729842" lon="151.2899001">
  <ele>393.01</ele>
  <time>2026-09-01T19:55:25Z</time>
  <course>322.75</course>
  <speed>16.34</speed>
  <fix>3d</fix>
</trkpt>
<trkpt lat="-27.2729601" lon="151.2898806">
  <ele>393.03</ele>
  <time>2026-09-01T19:55:25Z</time>
  <course>320.06</course>
  <speed>16.36238674521538</speed>
  <fix>3d</fix>
</trkpt>
<trkpt lat="-27.2729842" lon="151.2899001">
  <ele>393.01</ele>
  <time>2026-09-01T19:55:25Z</time>
  <course>322.75</course>
  <speed>16.34</speed>
  <fix>3d</fix>
</trkpt>
<trkpt lat="-27.2729479" lon="151.2898713">
  <ele>393.09</ele>
  <time>2026-09-01T19:55:25Z</time>
  <course>320.94</course>
  <speed>16.381114125724174</speed>
  <fix>3d</fix>
</trkpt>
<trkpt lat="-27.2729604" lon="151.2898807">
  <ele>393.13</ele>
  <time>2026-09-01T19:55:25Z</time>
  <course>325.48</course>
  <speed>16.36</speed>
  <fix>3d</fix>
</trkpt>
<trkpt lat="-27.2729355" lon="151.2898625">
  <ele>393.15</ele>
  <time>2026-09-01T19:55:25Z</time>
  <course>321.82</course>
  <speed>16.395136473966907</speed>
  <fix>3d</fix>
</trkpt>
<trkpt lat="-27.2729604" lon="151.2898807">
  <ele>393.13</ele>
  <time>2026-09-01T19:55:25Z</time>
  <course>325.48</course>
  <speed>16.36</speed>
  <fix>3d</fix>
</trkpt>
<trkpt lat="-27.2729228" lon="151.2898539">
  <ele>393.2</ele>
  <time>2026-09-01T19:55:25Z</time>
  <course>322.67</course>
  <speed>16.41327511497934</speed>
  <fix>3d</fix>
</trkpt>
<trkpt lat="-27.2729358" lon="151.2898626">
  <ele>393.24</ele>
  <time>2026-09-01T19:55:25Z</time>
  <course>328.21</course>
  <speed>16.38</speed>
  <fix>3d</fix>
</trkpt>
<trkpt lat="-27.27291" lon="151.2898457">
  <ele>393.25</ele>
  <time>2026-09-01T19:55:25Z</time>
  <course>323.52</course>
  <speed>16.440964083653977</speed>
  <fix>3d</fix>
</trkpt>
<trkpt lat="-27.2729358" lon="151.2898626">
  <ele>393.24</ele>
  <time>2026-09-01T19:55:25Z</time>
  <course>328.21</course>
  <speed>16.38</speed>
  <fix>3d</fix>
</trkpt>
<trkpt lat="-27.272897" lon="151.2898378">
  <ele>393.3</ele>
  <time>2026-09-01T19:55:25Z</time>
  <course>324.44</course>
  <speed>16.469295674071798</speed>
  <fix>3d</fix>
</trkpt>
<trkpt lat="-27.2729104" lon="151.2898459">
  <ele>393.34</ele>
  <time>2026-09-01T19:55:25Z</time>
  <course>330.94</course>
  <speed>16.43</speed>
  <fix>3d</fix>
</trkpt>
<trkpt lat="-27.2728838" lon="151.2898302">
  <ele>393.35</ele>
  <time>2026-09-01T19:55:25Z</time>
  <course>325.41</course>
  <speed>16.50697428361721</speed>
  <fix>3d</fix>
</trkpt>
<trkpt lat="-27.2729104" lon="151.2898459">
  <ele>393.34</ele>
  <time>2026-09-01T19:55:25Z</time>
  <course>330.94</course>
  <speed>16.43</speed>
  <fix>3d</fix>
</trkpt>
<trkpt lat="-27.2728704" lon="151.289823">
  <ele>393.4</ele>
  <time>2026-09-01T19:55:25Z</time>
  <course>326.29</course>
  <speed>16.53673788871312</speed>
  <fix>3d</fix>
</trkpt>
<trkpt lat="-27.2728842" lon="151.2898304">
  <ele>393.45</ele>
  <time>2026-09-01T19:55:25Z</time>
  <course>333.73</course>
  <speed>16.49</speed>
  <fix>3d</fix>
</trkpt>
<trkpt lat="-27.2728567" lon="151.2898161">
  <ele>393.45</ele>
  <time>2026-09-01T19:55:25Z</time>
  <course>327.23</course>
  <speed>16.57749377921765</speed>
  <fix>3d</fix>
</trkpt>
<trkpt lat="-27.2728842" lon="151.2898304">
  <ele>393.45</ele>
  <time>2026-09-01T19:55:25Z</time>
  <course>333.73</course>
  <speed>16.49</speed>
  <fix>3d</fix>
</trkpt>
<trkpt lat="-27.272843" lon="151.2898097">
  <ele>393.49</ele>
  <time>2026-09-01T19:55:25Z</time>
  <course>328.12</course>
  <speed>16.623492412847547</speed>
  <fix>3d</fix>
</trkpt>
<trkpt lat="-27.2728572" lon="151.2898164">
  <ele>393.54</ele>
  <time>2026-09-01T19:55:25Z</time>
  <course>336.57</course>
  <speed>16.57</speed>
  <fix>3d</fix>
</trkpt>
<trkpt lat="-27.272829" lon="151.2898036">
  <ele>393.54</ele>
  <time>2026-09-01T19:55:25Z</time>
  <course>329.02</course>
  <speed>16.66666433333317</speed>
  <fix>3d</fix>
</trkpt>
<trkpt lat="-27.2728572" lon="151.2898164">
  <ele>393.54</ele>
  <time>2026-09-01T19:55:25Z</time>
  <course>336.57</course>
  <speed>16.57</speed>
  <fix>3d</fix>
</trkpt>
<trkpt lat="-27.272815" lon="151.2897979">
  <ele>393.58</ele>
  <time>2026-09-01T19:55:25Z</time>
  <course>329.99</course>
  <speed>16.72007476059841</speed>
  <fix>3d</fix>
</trkpt>
<trkpt lat="-27.2728295" lon="151.2898038">
  <ele>393.63</ele>
  <time>2026-09-01T19:55:25Z</time>
  <course>339.43</course>
  <speed>16.66</speed>
  <fix>3d</fix>
</trkpt>
<trkpt lat="-27.2728007" lon="151.2897926">
  <ele>393.63</ele>
  <time>2026-09-01T19:55:25Z</time>
  <course>330.9</course>
  <speed>16.780589977709365</speed>
  <fix>3d</fix>
</trkpt>
<trkpt lat="-27.2728295" lon="151.2898038">
  <ele>393.63</ele>
  <time>2026-09-01T19:55:25Z</time>
  <course>339.43</course>
  <speed>16.66</speed>
  <fix>3d</fix>
</trkpt>
<trkpt lat="-27.2727862" lon="151.2897876">
  <ele>393.67</ele>
  <time>2026-09-01T19:55:25Z</time>
  <course>331.81</course>
  <speed>16.842001068756648</speed>
  <fix>3d</fix>
</trkpt>
<trkpt lat="-27.2728011" lon="151.2897927">
  <ele>393.72</ele>
  <time>2026-09-01T19:55:25Z</time>
  <course>342.26</course>
  <speed>16.77</speed>
  <fix>3d</fix>
</trkpt>
<trkpt lat="-27.2727716" lon="151.289783">
  <ele>393.71</ele>
  <time>2026-09-01T19:55:25Z</time>
  <course>332.78</course>
  <speed>16.903978821567424</speed>
  <fix>3d</fix>
</trkpt>
<trkpt lat="-27.2728011" lon="151.2897927">
  <ele>393.72</ele>
  <time>2026-09-01T19:55:25Z</time>
  <course>342.26</course>
  <speed>16.77</speed>
  <fix>3d</fix>
</trkpt>
<trkpt lat="-27.2727568" lon="151.2897788">
  <ele>393.74</ele>
  <time>2026-09-01T19:55:25Z</time>
  <course>333.74</course>
  <speed>16.97361776404783</speed>
  <fix>3d</fix>
</trkpt>
<trkpt lat="-27.2727721" lon="151.2897831">
  <ele>393.8</ele>
  <time>2026-09-01T19:55:25Z</time>
  <course>345.07</course>
  <speed>16.9</speed>
  <fix>3d</fix>
</trkpt>
<trkpt lat="-27.2727418" lon="151.289775">
  <ele>393.78</ele>
  <time>2026-09-01T19:55:25Z</time>
  <course>334.74</course>
  <speed>17.051510197047065</speed>
  <fix>3d</fix>
</trkpt>
<trkpt lat="-27.2727721" lon="151.2897831">
  <ele>393.8</ele>
  <time>2026-09-01T19:55:25Z</time>
  <course>345.07</course>
  <speed>16.9</speed>
  <fix>3d</fix>
</trkpt>
<trkpt lat="-27.2727267" lon="151.2897716">
  <ele>393.81</ele>
  <time>2026-09-01T19:55:25Z</time>
  <course>335.72</course>
  <speed>17.138243784005407</speed>
  <fix>3d</fix>
</trkpt>
<trkpt lat="-27.2727425" lon="151.2897752">
  <ele>393.87</ele>
  <time>2026-09-01T19:55:25Z</time>
  <course>347.92</course>
  <speed>17.04</speed>
  <fix>3d</fix>
</trkpt>
<trkpt lat="-27.2727116" lon="151.2897687">
  <ele>393.85</ele>
  <time>2026-09-01T19:55:25Z</time>
  <course>336.7</course>
  <speed>17.226099384364414</speed>
  <fix>3d</fix>
</trkpt>
<trkpt lat="-27.2727425" lon="151.2897752">
  <ele>393.87</ele>
  <time>2026-09-01T19:55:25Z</time>
  <course>347.92</course>
  <speed>17.04</speed>
  <fix>3d</fix>
</trkpt>
<trkpt lat="-27.2726963" lon="151.2897661">
  <ele>393.88</ele>
  <time>2026-09-01T19:55:25Z</time>
  <course>337.72</course>
  <speed>17.313451417900477</speed>
  <fix>3d</fix>
</trkpt>
<trkpt lat="-27.2727122" lon="151.2897688">
  <ele>393.93</ele>
  <time>2026-09-01T19:55:25Z</time>
  <course>350.81</course>
  <speed>17.21</speed>
  <fix>3d</fix>
</trkpt>
<trkpt lat="-27.2726809" lon="151.289764">
  <ele>393.91</ele>
  <time>2026-09-01T19:55:25Z</time>
  <course>338.75</course>
  <speed>17.41179198129819</speed>
  <fix>3d</fix>
</trkpt>
<trkpt lat="-27.2727122" lon="151.2897688">
  <ele>393.93</ele>
  <time>2026-09-01T19:55:25Z</time>
  <course>350.81</course>
  <speed>17.21</speed>
  <fix>3d</fix>
</trkpt>
<trkpt lat="-27.2726653" lon="151.2897623">
  <ele>393.94</ele>
  <time>2026-09-01T19:55:25Z</time>
  <course>339.8</course>
  <speed>17.51013991948665</speed>
  <fix>3d</fix>
</trkpt>
<trkpt lat="-27.2726813" lon="151.289764">
  <ele>393.99</ele>
  <time>2026-09-01T19:55:25Z</time>
  <course>353.71</course>
  <speed>17.4</speed>
  <fix>3d</fix>
</trkpt>
<trkpt lat="-27.2726497" lon="151.2897611">
  <ele>393.97</ele>
  <time>2026-09-01T19:55:25Z</time>
  <course>340.85</course>
  <speed>17.608418441188864</speed>
  <fix>3d</fix>
</trkpt>
<trkpt lat="-27.2726813" lon="151.289764">
  <ele>393.99</ele>
  <time>2026-09-01T19:55:25Z</time>
  <course>353.71</course>
  <speed>17.4</speed>
  <fix>3d</fix>
</trkpt>
<trkpt lat="-27.2726339" lon="151.2897603">
  <ele>393.99</ele>
  <time>2026-09-01T19:55:25Z</time>
  <course>341.87</course>
  <speed>17.718538314432145</speed>
  <fix>3d</fix>
</trkpt>
<trkpt lat="-27.27265" lon="151.2897611">
  <ele>394.05</ele>
  <time>2026-09-01T19:55:25Z</time>
  <course>356.64</course>
  <speed>17.62</speed>
  <fix>3d</fix>
</trkpt>
<trkpt lat="-27.272618" lon="151.28976">
  <ele>394.02</ele>
  <time>2026-09-01T19:55:25Z</time>
  <course>342.94</course>
  <speed>17.840280266856794</speed>
  <fix>3d</fix>
</trkpt>
<trkpt lat="-27.27265" lon="151.2897611">
  <ele>394.05</ele>
  <time>2026-09-01T19:55:25Z</time>
  <course>356.64</course>
  <speed>17.62</speed>
  <fix>3d</fix>
</trkpt>
<trkpt lat="-27.2726019" lon="151.2897601">
  <ele>394.04</ele>
  <time>2026-09-01T19:55:25Z</time>
  <course>344.05</course>
  <speed>17.963607655479453</speed>
  <fix>3d</fix>
</trkpt>
<trkpt lat="-27.2726181" lon="151.28976">
  <ele>394.09</ele>
  <time>2026-09-01T19:55:25Z</time>
  <course>359.6</course>
  <speed>17.85</speed>
  <fix>3d</fix>
</trkpt>
<trkpt lat="-27.2725858" lon="151.2897606">
  <ele>394.06</ele>
  <time>2026-09-01T19:55:25Z</time>
  <course>345.18</course>
  <speed>18.08998065228374</speed>
  <fix>3d</fix>
</trkpt>
<trkpt lat="-27.2726181" lon="151.28976">
  <ele>394.09</ele>
  <time>2026-09-01T19:55:25Z</time>
  <course>359.6</course>
  <speed>17.85</speed>
  <fix>3d</fix>
</trkpt>
<trkpt lat="-27.2725696" lon="151.2897617">
  <ele>394.09</ele>
  <time>2026-09-01T19:55:25Z</time>
  <course>346.32</course>
  <speed>18.229317046998773</speed>
  <fix>3d</fix>
</trkpt>
<trkpt lat="-27.2725859" lon="151.2897606">
  <ele>394.14</ele>
  <time>2026-09-01T19:55:25Z</time>
  <course>2.62</course>
  <speed>18.11</speed>
  <fix>3d</fix>
</trkpt>
<trkpt lat="-27.2725533" lon="151.2897633">
  <ele>394.11</ele>
  <time>2026-09-01T19:55:25Z</time>
  <course>347.39</course>
  <speed>18.37237056016452</speed>
  <fix>3d</fix>
</trkpt>
<trkpt lat="-27.2725859" lon="151.2897606">
  <ele>394.14</ele>
  <time>2026-09-01T19:55:25Z</time>
  <course>2.62</course>
  <speed>18.11</speed>
  <fix>3d</fix>
</trkpt>
<trkpt lat="-27.2725369" lon="151.2897654">
  <ele>394.14</ele>
  <time>2026-09-01T19:55:25Z</time>
  <course>348.55</course>
  <speed>18.508516958416738</speed>
  <fix>3d</fix>
</trkpt>
<trkpt lat="-27.2725532" lon="151.2897633">
  <ele>394.19</ele>
  <time>2026-09-01T19:55:25Z</time>
  <course>5.66</course>
  <speed>18.39</speed>
  <fix>3d</fix>
</trkpt>
<trkpt lat="-27.2725204" lon="151.289768">
  <ele>394.16</ele>
  <time>2026-09-01T19:55:25Z</time>
  <course>349.7</course>
  <speed>18.657416755810544</speed>
  <fix>3d</fix>
</trkpt>
<trkpt lat="-27.2725532" lon="151.2897633">
  <ele>394.19</ele>
  <time>2026-09-01T19:55:25Z</time>
  <course>5.66</course>
  <speed>18.39</speed>
  <fix>3d</fix>
</trkpt>
<trkpt lat="-27.2725038" lon="151.2897711">
  <ele>394.19</ele>
  <time>2026-09-01T19:55:25Z</time>
  <course>350.84</course>
  <speed>18.812487873750243</speed>
  <fix>3d</fix>
</trkpt>
<trkpt lat="-27.2725202" lon="151.2897679">
  <ele>394.24</ele>
  <time>2026-09-01T19:55:25Z</time>
  <course>8.68</course>
  <speed>18.69</speed>
  <fix>3d</fix>
</trkpt>
<trkpt lat="-27.2724872" lon="151.2897747">
  <ele>394.21</ele>
  <time>2026-09-01T19:55:25Z</time>
  <course>352.02</course>
  <speed>18.973059848110953</speed>
  <fix>3d</fix>
</trkpt>
<trkpt lat="-27.2725202" lon="151.2897679">
  <ele>394.24</ele>
  <time>2026-09-01T19:55:25Z</time>
  <course>8.68</course>
  <speed>18.69</speed>
  <fix>3d</fix>
</trkpt>
<trkpt lat="-27.2724705" lon="151.2897789">
  <ele>394.24</ele>
  <time>2026-09-01T19:55:25Z</time>
  <course>353.19</course>
  <speed>19.1374188437208</speed>
  <fix>3d</fix>
</trkpt>
<trkpt lat="-27.2724868" lon="151.2897747">
  <ele>394.28</ele>
  <time>2026-09-01T19:55:25Z</time>
  <course>11.73</course>
  <speed>19.0</speed>
  <fix>3d</fix>
</trkpt>
<trkpt lat="-27.2724538" lon="151.2897836">
  <ele>394.26</ele>
  <time>2026-09-01T19:55:25Z</time>
  <course>354.41</course>
  <speed>19.305390438942176</speed>
  <fix>3d</fix>
</trkpt>
<trkpt lat="-27.2724868" lon="151.2897747">
  <ele>394.28</ele>
  <time>2026-09-01T19:55:25Z</time>
  <course>11.73</course>
  <speed>19.0</speed>
  <fix>3d</fix>
</trkpt>
<trkpt lat="-27.272437" lon="151.2897889">
  <ele>394.28</ele>
  <time>2026-09-01T19:55:25Z</time>
  <course>355.71</course>
  <speed>19.485281624857258</speed>
  <fix>3d</fix>
</trkpt>
<trkpt lat="-27.2724533" lon="151.2897836">
  <ele>394.33</ele>
  <time>2026-09-01T19:55:25Z</time>
  <course>14.8</course>
  <speed>19.34</speed>
  <fix>3d</fix>
</trkpt>
<trkpt lat="-27.2724201" lon="151.2897948">
  <ele>394.3</ele>
  <time>2026-09-01T19:55:25Z</time>
  <course>357.02</course>
  <speed>19.676183573040785</speed>
  <fix>3d</fix>
</trkpt>
<trkpt lat="-27.2724533" lon="151.2897836">
  <ele>394.33</ele>
  <time>2026-09-01T19:55:25Z</time>
  <course>14.8</course>
  <speed>19.34</speed>
  <fix>3d</fix>
</trkpt>
<trkpt lat="-27.2724033" lon="151.2898012">
  <ele>394.33</ele>
  <time>2026-09-01T19:55:25Z</time>
  <course>358.28</course>
  <speed>19.869423746047595</speed>
  <fix>3d</fix>
</trkpt>
<trkpt lat="-27.2724197" lon="151.2897946">
  <ele>394.38</ele>
  <time>2026-09-01T19:55:25Z</time>
  <course>17.9</course>
  <speed>19.71</speed>
  <fix>3d</fix>
</trkpt>
<trkpt lat="-27.2723864" lon="151.2898082">
  <ele>394.35</ele>
  <time>2026-09-01T19:55:25Z</time>
  <course>359.57</course>
  <speed>20.071273003972617</speed>
  <fix>3d</fix>
</trkpt>
<trkpt lat="-27.2724197" lon="151.2897946">
  <ele>394.38</ele>
  <time>2026-09-01T19:55:25Z</time>
  <course>17.9</course>
  <speed>19.71</speed>
  <fix>3d</fix>
</trkpt>
<trkpt lat="-27.2723696" lon="151.2898158">
  <ele>394.36</ele>
  <time>2026-09-01T19:55:25Z</time>
  <course>0.9</course>
  <speed>20.27310780319584</speed>
  <fix>3d</fix>
</trkpt>
<trkpt lat="-27.2723859" lon="151.2898081">
  <ele>394.42</ele>
  <time>2026-09-01T19:55:25Z</time>
  <course>21.05</course>
  <speed>20.1</speed>
  <fix>3d</fix>
</trkpt>
<trkpt lat="-27.2723528" lon="151.2898239">
  <ele>394.38</ele>
  <time>2026-09-01T19:55:25Z</time>
  <course>2.3</course>
  <speed>20.484965218423</speed>
  <fix>3d</fix>
</trkpt>
<trkpt lat="-27.2723859" lon="151.2898081">
  <ele>394.42</ele>
  <time>2026-09-01T19:55:25Z</time>
  <course>21.05</course>
  <speed>20.1</speed>
  <fix>3d</fix>
</trkpt>
<trkpt lat="-27.272336" lon="151.2898328">
  <ele>394.4</ele>
  <time>2026-09-01T19:55:25Z</time>
  <course>3.67</course>
  <speed>20.711574058965194</speed>
  <fix>3d</fix>
</trkpt>
<trkpt lat="-27.2723522" lon="151.289824">
  <ele>394.47</ele>
  <time>2026-09-01T19:55:25Z</time>
  <course>24.24</course>
  <speed>20.52</speed>
  <fix>3d</fix>
</trkpt>
<trkpt lat="-27.2723193" lon="151.2898422">
  <ele>394.42</ele>
  <time>2026-09-01T19:55:25Z</time>
  <course>5.03</course>
  <speed>20.941910132554767</speed>
  <fix>3d</fix>
</trkpt>
<trkpt lat="-27.2723522" lon="151.289824">
  <ele>394.47</ele>
  <time>2026-09-01T19:55:25Z</time>
  <course>24.24</course>
  <speed>20.52</speed>
  <fix>3d</fix>
</trkpt>
<trkpt lat="-27.2723026" lon="151.2898524">
  <ele>394.44</ele>
  <time>2026-09-01T19:55:25Z</time>
  <course>6.5</course>
  <speed>21.176071401466324</speed>
  <fix>3d</fix>
</trkpt>
<trkpt lat="-27.2723187" lon="151.2898422">
  <ele>394.51</ele>
  <time>2026-09-01T19:55:25Z</time>
  <course>27.48</course>
  <speed>20.97</speed>
  <fix>3d</fix>
</trkpt>
<trkpt lat="-27.272286" lon="151.2898631">
  <ele>394.46</ele>
  <time>2026-09-01T19:55:25Z</time>
  <course>8.02</course>
  <speed>21.42876804671701</speed>
  <fix>3d</fix>
</trkpt>
<trkpt lat="-27.2723187" lon="151.2898422">
  <ele>394.51</ele>
  <time>2026-09-01T19:55:25Z</time>
  <course>27.48</course>
  <speed>20.97</speed>
  <fix>3d</fix>
</trkpt>
<trkpt lat="-27.2722695" lon="151.2898746">
  <ele>394.48</ele>
  <time>2026-09-01T19:55:25Z</time>
  <course>9.57</course>
  <speed>21.679063632915515</speed>
  <fix>3d</fix>
</trkpt>
<trkpt lat="-27.2722854" lon="151.2898631">
  <ele>394.54</ele>
  <time>2026-09-01T19:55:25Z</time>
  <course>30.79</course>
  <speed>21.45</speed>
  <fix>3d</fix>
</trkpt>
<trkpt lat="-27.2722531" lon="151.2898867">
  <ele>394.5</ele>
  <time>2026-09-01T19:55:25Z</time>
  <course>11.11</course>
  <speed>21.947979405858757</speed>
  <fix>3d</fix>
</trkpt>
<trkpt lat="-27.2722854" lon="151.2898631">
  <ele>394.54</ele>
  <time>2026-09-01T19:55:25Z</time>
  <course>30.79</course>
  <speed>21.45</speed>
  <fix>3d</fix>
</trkpt>
<trkpt lat="-27.2722368" lon="151.2898995">
  <ele>394.53</ele>
  <time>2026-09-01T19:55:25Z</time>
  <course>12.55</course>
  <speed>22.206422494404634</speed>
  <fix>3d</fix>
</trkpt>
<trkpt lat="-27.2722525" lon="151.2898867">
  <ele>394.58</ele>
  <time>2026-09-01T19:55:25Z</time>
  <course>34.19</course>
  <speed>21.97</speed>
  <fix>3d</fix>
</trkpt>
<trkpt lat="-27.2722207" lon="151.2899131">
  <ele>394.55</ele>
  <time>2026-09-01T19:55:25Z</time>
  <course>13.86</course>
  <speed>22.472138305021176</speed>
  <fix>3d</fix>
</trkpt>
<trkpt lat="-27.2722525" lon="151.2898867">
  <ele>394.58</ele>
  <time>2026-09-01T19:55:25Z</time>
  <course>34.19</course>
  <speed>21.97</speed>
  <fix>3d</fix>
</trkpt>
<trkpt lat="-27.2722047" lon="151.2899273">
  <ele>394.58</ele>
  <time>2026-09-01T19:55:25Z</time>
  <course>15.1</course>
  <speed>22.702325872033466</speed>
  <fix>3d</fix>
</trkpt>
<trkpt lat="-27.2722202" lon="151.289913">
  <ele>394.64</ele>
  <time>2026-09-01T19:55:25Z</time>
  <course>37.49</course>
  <speed>22.48</speed>
  <fix>3d</fix>
</trkpt>
<trkpt lat="-27.2721889" lon="151.289942">
  <ele>394.62</ele>
  <time>2026-09-01T19:55:25Z</time>
  <course>16.27</course>
  <speed>22.897074048882313</speed>
  <fix>3d</fix>
</trkpt>
<trkpt lat="-27.2722202" lon="151.289913">
  <ele>394.64</ele>
  <time>2026-09-01T19:55:25Z</time>
  <course>37.49</course>
  <speed>22.48</speed>
  <fix>3d</fix>
</trkpt>
<trkpt lat="-27.2721733" lon="151.2899573">
  <ele>394.66</ele>
  <time>2026-09-01T19:55:25Z</time>
  <course>17.37</course>
  <speed>23.05095659620225</speed>
  <fix>3d</fix>
</trkpt>
<trkpt lat="-27.2721885" lon="151.2899418">
  <ele>394.71</ele>
  <time>2026-09-01T19:55:25Z</time>
  <course>40.27</course>
  <speed>22.9</speed>
  <fix>3d</fix>
</trkpt>
<trkpt lat="-27.2721577" lon="151.2899729">
  <ele>394.7</ele>
  <time>2026-09-01T19:55:25Z</time>
  <course>18.48</course>
  <speed>23.180433559362086</speed>
  <fix>3d</fix>
</trkpt>
<trkpt lat="-27.2721885" lon="151.2899418">
  <ele>394.71</ele>
  <time>2026-09-01T19:55:25Z</time>
  <course>40.27</course>
  <speed>22.9</speed>
  <fix>3d</fix>
</trkpt>
<trkpt lat="-27.2721424" lon="151.2899889">
  <ele>394.73</ele>
  <time>2026-09-01T19:55:25Z</time>
  <course>19.56</course>
  <speed>23.28869253521975</speed>
  <fix>3d</fix>
</trkpt>
<trkpt lat="-27.2721574" lon="151.2899727">
  <ele>394.78</ele>
  <time>2026-09-01T19:55:25Z</time>
  <course>42.35</course>
  <speed>23.19</speed>
  <fix>3d</fix>
</trkpt>
<trkpt lat="-27.2721271" lon="151.2900052">
  <ele>394.75</ele>
  <time>2026-09-01T19:55:25Z</time>
  <course>20.53</course>
  <speed>23.401395257548216</speed>
  <fix>3d</fix>
</trkpt>
<trkpt lat="-27.2721574" lon="151.2899727">
  <ele>394.78</ele>
  <time>2026-09-01T19:55:25Z</time>
  <course>42.35</course>
  <speed>23.19</speed>
  <fix>3d</fix>
</trkpt>
<trkpt lat="-27.272112" lon="151.2900218">
  <ele>394.75</ele>
  <time>2026-09-01T19:55:25Z</time>
  <course>21.52</course>
  <speed>23.518477841901248</speed>
  <fix>3d</fix>
</trkpt>
<trkpt lat="-27.2721268" lon="151.2900049">
  <ele>394.84</ele>
  <time>2026-09-01T19:55:25Z</time>
  <course>44.0</course>
  <speed>23.42</speed>
  <fix>3d</fix>
</trkpt>
<trkpt lat="-27.272097" lon="151.2900388">
  <ele>394.74</ele>
  <time>2026-09-01T19:55:25Z</time>
  <course>22.53</course>
  <speed>23.65449851508165</speed>
  <fix>3d</fix>
</trkpt>
<trkpt lat="-27.2721268" lon="151.2900049">
  <ele>394.84</ele>
  <time>2026-09-01T19:55:25Z</time>
  <course>44.0</course>
  <speed>23.42</speed>
  <fix>3d</fix>
</trkpt>
<trkpt lat="-27.2720823" lon="151.2900559">
  <ele>394.72</ele>
  <time>2026-09-01T19:55:25Z</time>
  <course>23.56</course>
  <speed>23.804438661728614</speed>
  <fix>3d</fix>
</trkpt>
<trkpt lat="-27.2720969" lon="151.2900384">
  <ele>394.84</ele>
  <time>2026-09-01T19:55:25Z</time>
  <course>45.72</course>
  <speed>23.67</speed>
  <fix>3d</fix>
</trkpt>
<trkpt lat="-27.2720677" lon="151.2900737">
  <ele>394.68</ele>
  <time>2026-09-01T19:55:25Z</time>
  <course>24.71</course>
  <speed>23.992234160244433</speed>
  <fix>3d</fix>
</trkpt>
<trkpt lat="-27.2720969" lon="151.2900384">
  <ele>394.84</ele>
  <time>2026-09-01T19:55:25Z</time>
  <course>45.72</course>
  <speed>23.67</speed>
  <fix>3d</fix>
</trkpt>
<trkpt lat="-27.2720533" lon="151.2900919">
  <ele>394.64</ele>
  <time>2026-09-01T19:55:25Z</time>
  <course>25.99</course>
  <speed>24.21530507757439</speed>
  <fix>3d</fix>
</trkpt>
<trkpt lat="-27.2720676" lon="151.2900735">
  <ele>394.78</ele>
  <time>2026-09-01T19:55:25Z</time>
  <course>47.84</course>
  <speed>24.01</speed>
  <fix>3d</fix>
</trkpt>
<trkpt lat="-27.2720391" lon="151.2901107">
  <ele>394.6</ele>
  <time>2026-09-01T19:55:25Z</time>
  <course>27.3</course>
  <speed>24.472010542658733</speed>
  <fix>3d</fix>
</trkpt>
<trkpt lat="-27.2720676" lon="151.2900735">
  <ele>394.78</ele>
  <time>2026-09-01T19:55:25Z</time>
  <course>47.84</course>
  <speed>24.01</speed>
  <fix>3d</fix>
</trkpt>
<trkpt lat="-27.2720251" lon="151.2901303">
  <ele>394.55</ele>
  <time>2026-09-01T19:55:25Z</time>
  <course>28.61</course>
  <speed>24.760236267047212</speed>
  <fix>3d</fix>
</trkpt>
<trkpt lat="-27.2720676" lon="151.2900735">
  <ele>394.78</ele>
  <time>2026-09-01T19:55:25Z</time>
  <course>47.84</course>
  <speed>24.01</speed>
  <fix>3d</fix>
</trkpt>
<trkpt lat="-27.2720117" lon="151.2901501">
  <ele>394.52</ele>
  <time>2026-09-01T19:55:25Z</time>
  <course>29.57</course>
  <speed>25.05503741765316</speed>
  <fix>3d</fix>
</trkpt>
<trkpt lat="-27.272039" lon="151.2901106">
  <ele>394.7</ele>
  <time>2026-09-01T19:55:25Z</time>
  <course>50.53</course>
  <speed>24.48</speed>
  <fix>3d</fix>
</trkpt>
<trkpt lat="-27.2719986" lon="151.2901708">
  <ele>394.5</ele>
  <time>2026-09-01T19:55:25Z</time>
  <course>30.02</course>
  <speed>25.292152933271613</speed>
  <fix>3d</fix>
</trkpt>
<trkpt lat="-27.2720116" lon="151.2901501">
  <ele>394.63</ele>
  <time>2026-09-01T19:55:25Z</time>
  <course>53.52</course>
  <speed>25.03</speed>
  <fix>3d</fix>
</trkpt>
<trkpt lat="-27.2719857" lon="151.2901918">
  <ele>394.52</ele>
  <time>2026-09-01T19:55:25Z</time>
  <course>29.96</course>
  <speed>25.417104477103603</speed>
  <fix>3d</fix>
</trkpt>
<trkpt lat="-27.2720116" lon="151.2901501">
  <ele>394.63</ele>
  <time>2026-09-01T19:55:25Z</time>
  <course>53.52</course>
  <speed>25.03</speed>
  <fix>3d</fix>
</trkpt>
<trkpt lat="-27.2719729" lon="151.290213">
  <ele>394.56</ele>
  <time>2026-09-01T19:55:25Z</time>
  <course>29.91</course>
  <speed>25.372514656612182</speed>
  <fix>3d</fix>
</trkpt>
<trkpt lat="-27.2719854" lon="151.2901918">
  <ele>394.63</ele>
  <time>2026-09-01T19:55:25Z</time>
  <course>55.49</course>
  <speed>25.37</speed>
  <fix>3d</fix>
</trkpt>
<trkpt lat="-27.2719601" lon="151.2902342">
  <ele>394.62</ele>
  <time>2026-09-01T19:55:25Z</time>
  <course>30.5</course>
  <speed>25.22551287882964</speed>
  <fix>3d</fix>
</trkpt>
<trkpt lat="-27.2719854" lon="151.2901918">
  <ele>394.63</ele>
  <time>2026-09-01T19:55:25Z</time>
  <course>55.49</course>
  <speed>25.37</speed>
  <fix>3d</fix>
</trkpt>
<trkpt lat="-27.271947" lon="151.290255">
  <ele>394.67</ele>
  <time>2026-09-01T19:55:25Z</time>
  <course>31.56</course>
  <speed>25.037431976942045</speed>
  <fix>3d</fix>
</trkpt>
<trkpt lat="-27.2719597" lon="151.290234">
  <ele>394.71</ele>
  <time>2026-09-01T19:55:25Z</time>
  <course>55.31</course>
  <speed>25.25</speed>
  <fix>3d</fix>
</trkpt>
<trkpt lat="-27.2719338" lon="151.2902754">
  <ele>394.67</ele>
  <time>2026-09-01T19:55:25Z</time>
  <course>32.2</course>
  <speed>24.842417354194822</speed>
  <fix>3d</fix>
</trkpt>
<trkpt lat="-27.2719597" lon="151.290234">
  <ele>394.71</ele>
  <time>2026-09-01T19:55:25Z</time>
  <course>55.31</course>
  <speed>25.25</speed>
  <fix>3d</fix>
</trkpt>
<trkpt lat="-27.2719203" lon="151.2902954">
  <ele>394.65</ele>
  <time>2026-09-01T19:55:25Z</time>
  <course>31.83</course>
  <speed>24.61026208718631</speed>
  <fix>3d</fix>
</trkpt>
<trkpt lat="-27.2719335" lon="151.2902753">
  <ele>394.75</ele>
  <time>2026-09-01T19:55:25Z</time>
  <course>53.43</course>
  <speed>24.86</speed>
  <fix>3d</fix>
</trkpt>
<trkpt lat="-27.2719064" lon="151.2903147">
  <ele>394.61</ele>
  <time>2026-09-01T19:55:25Z</time>
  <course>30.47</course>
  <speed>24.33981100994829</speed>
  <fix>3d</fix>
</trkpt>
<trkpt lat="-27.2719335" lon="151.2902753">
  <ele>394.75</ele>
  <time>2026-09-01T19:55:25Z</time>
  <course>53.43</course>
  <speed>24.86</speed>
  <fix>3d</fix>
</trkpt>
<trkpt lat="-27.2718921" lon="151.2903332">
  <ele>394.57</ele>
  <time>2026-09-01T19:55:25Z</time>
  <course>28.42</course>
  <speed>24.024023393262006</speed>
  <fix>3d</fix>
</trkpt>
<trkpt lat="-27.2719063" lon="151.2903144">
  <ele>394.71</ele>
  <time>2026-09-01T19:55:25Z</time>
  <course>50.2</course>
  <speed>24.34</speed>
  <fix>3d</fix>
</trkpt>
<trkpt lat="-27.2718773" lon="151.2903508">
  <ele>394.55</ele>
  <time>2026-09-01T19:55:25Z</time>
  <course>26.11</course>
  <speed>23.69603553339672</speed>
  <fix>3d</fix>
</trkpt>
<trkpt lat="-27.2719063" lon="151.2903144">
  <ele>394.71</ele>
  <time>2026-09-01T19:55:25Z</time>
  <course>50.2</course>
  <speed>24.34</speed>
  <fix>3d</fix>
</trkpt>
<trkpt lat="-27.2718621" lon="151.2903675">
  <ele>394.54</ele>
  <time>2026-09-01T19:55:25Z</time>
  <course>23.68</course>
  <speed>23.348935735917383</speed>
  <fix>3d</fix>
</trkpt>
<trkpt lat="-27.2718775" lon="151.2903505">
  <ele>394.65</ele>
  <time>2026-09-01T19:55:25Z</time>
  <course>45.71</course>
  <speed>23.68</speed>
  <fix>3d</fix>
</trkpt>
<trkpt lat="-27.2718465" lon="151.2903831">
  <ele>394.55</ele>
  <time>2026-09-01T19:55:25Z</time>
  <course>21.26</course>
  <speed>23.0087505093171</speed>
  <fix>3d</fix>
</trkpt>
<trkpt lat="-27.2718775" lon="151.2903505">
  <ele>394.65</ele>
  <time>2026-09-01T19:55:25Z</time>
  <course>45.71</course>
  <speed>23.68</speed>
  <fix>3d</fix>
</trkpt>
<trkpt lat="-27.2718306" lon="151.2903978">
  <ele>394.58</ele>
  <time>2026-09-01T19:55:25Z</time>
  <course>18.83</course>
  <speed>22.66679068593523</speed>
  <fix>3d</fix>
</trkpt>
<trkpt lat="-27.2718469" lon="151.2903828">
  <ele>394.64</ele>
  <time>2026-09-01T19:55:25Z</time>
  <course>40.77</course>
  <speed>22.99</speed>
  <fix>3d</fix>
</trkpt>
<trkpt lat="-27.2718145" lon="151.2904114">
  <ele>394.61</ele>
  <time>2026-09-01T19:55:25Z</time>
  <course>16.47</course>
  <speed>22.33350845702484</speed>
  <fix>3d</fix>
</trkpt>
<trkpt lat="-27.2718469" lon="151.2903828">
  <ele>394.64</ele>
  <time>2026-09-01T19:55:25Z</time>
  <course>40.77</course>
  <speed>22.99</speed>
  <fix>3d</fix>
</trkpt>
<trkpt lat="-27.2717981" lon="151.2904241">
  <ele>394.66</ele>
  <time>2026-09-01T19:55:25Z</time>
  <course>14.07</course>
  <speed>21.984003275108925</speed>
  <fix>3d</fix>
</trkpt>
<trkpt lat="-27.271815" lon="151.2904112">
  <ele>394.7</ele>
  <time>2026-09-01T19:55:25Z</time>
  <course>35.83</course>
  <speed>22.3</speed>
  <fix>3d</fix>
</trkpt>
<trkpt lat="-27.2717816" lon="151.2904356">
  <ele>394.71</ele>
  <time>2026-09-01T19:55:25Z</time>
  <course>11.66</course>
  <speed>21.63708390703331</speed>
  <fix>3d</fix>
</trkpt>
<trkpt lat="-27.271815" lon="151.2904112">
  <ele>394.7</ele>
  <time>2026-09-01T19:55:25Z</time>
  <course>35.83</course>
  <speed>22.3</speed>
  <fix>3d</fix>
</trkpt>
<trkpt lat="-27.2717649" lon="151.2904461">
  <ele>394.76</ele>
  <time>2026-09-01T19:55:25Z</time>
  <course>9.21</course>
  <speed>21.273457640919588</speed>
  <fix>3d</fix>
</trkpt>
<trkpt lat="-27.2717821" lon="151.2904355">
  <ele>394.79</ele>
  <time>2026-09-01T19:55:25Z</time>
  <course>30.63</course>
  <speed>21.6</speed>
  <fix>3d</fix>
</trkpt>
<trkpt lat="-27.271748" lon="151.2904555">
  <ele>394.82</ele>
  <time>2026-09-01T19:55:25Z</time>
  <course>6.65</course>
  <speed>20.908911975518954</speed>
  <fix>3d</fix>
</trkpt>
<trkpt lat="-27.2717821" lon="151.2904355">
  <ele>394.79</ele>
  <time>2026-09-01T19:55:25Z</time>
  <course>30.63</course>
  <speed>21.6</speed>
  <fix>3d</fix>
</trkpt>
<trkpt lat="-27.2717309" lon="151.2904637">
  <ele>394.89</ele>
  <time>2026-09-01T19:55:25Z</time>
  <course>3.95</course>
  <speed>20.528774926916608</speed>
  <fix>3d</fix>
</trkpt>
<trkpt lat="-27.2717821" lon="151.2904355">
  <ele>394.79</ele>
  <time>2026-09-01T19:55:25Z</time>
  <course>30.63</course>
  <speed>21.6</speed>
  <fix>3d</fix>
</trkpt>
<trkpt lat="-27.2717138" lon="151.2904708">
  <ele>394.97</ele>
  <time>2026-09-01T19:55:25Z</time>
  <course>1.22</course>
  <speed>20.13431151045399</speed>
  <fix>3d</fix>
</trkpt>
<trkpt lat="-27.2717483" lon="151.2904555">
  <ele>394.91</ele>
  <time>2026-09-01T19:55:25Z</time>
  <course>24.85</course>
  <speed>20.87</speed>
  <fix>3d</fix>
</trkpt>
<trkpt lat="-27.2716969" lon="151.2904765">
  <ele>395.05</ele>
  <time>2026-09-01T19:55:25Z</time>
  <course>358.6</course>
  <speed>19.771750048996676</speed>
  <fix>3d</fix>
</trkpt>
<trkpt lat="-27.2717483" lon="151.2904555">
  <ele>394.91</ele>
  <time>2026-09-01T19:55:25Z</time>
  <course>24.85</course>
  <speed>20.87</speed>
  <fix>3d</fix>
</trkpt>
<trkpt lat="-27.27168" lon="151.2904811">
  <ele>395.13</ele>
  <time>2026-09-01T19:55:25Z</time>
  <course>355.99</course>
  <speed>19.40995878408813</speed>
  <fix>3d</fix>
</trkpt>
<trkpt lat="-27.271714" lon="151.2904709">
  <ele>395.04</ele>
  <time>2026-09-01T19:55:25Z</time>
  <course>18.49</course>
  <speed>20.12</speed>
  <fix>3d</fix>
</trkpt>
<trkpt lat="-27.2716626" lon="151.2904845">
  <ele>395.23</ele>
  <time>2026-09-01T19:55:25Z</time>
  <course>353.42</course>
  <speed>19.056560550109772</speed>
  <fix>3d</fix>
</trkpt>
<trkpt lat="-27.271714" lon="151.2904709">
  <ele>395.04</ele>
  <time>2026-09-01T19:55:25Z</time>
  <course>18.49</course>
  <speed>20.12</speed>
  <fix>3d</fix>
</trkpt>
<trkpt lat="-27.2716461" lon="151.2904868">
  <ele>395.32</ele>
  <time>2026-09-01T19:55:25Z</time>
  <course>350.98</course>
  <speed>18.73192995929677</speed>
  <fix>3d</fix>
</trkpt>
<trkpt lat="-27.2716798" lon="151.2904813">
  <ele>395.21</ele>
  <time>2026-09-01T19:55:25Z</time>
  <course>11.85</course>
  <speed>19.42</speed>
  <fix>3d</fix>
</trkpt>
<trkpt lat="-27.2716296" lon="151.2904879">
  <ele>395.42</ele>
  <time>2026-09-01T19:55:26Z</time>
  <course>348.6</course>
  <speed>18.419134073023084</speed>
  <fix>3d</fix>
</trkpt>
<trkpt lat="-27.2716798" lon="151.2904813">
  <ele>395.21</ele>
  <time>2026-09-01T19:55:26Z</time>
  <course>11.85</course>
  <speed>19.42</speed>
  <fix>3d</fix>
</trkpt>
<trkpt lat="-27.2716134" lon="151.2904881">
  <ele>395.52</ele>
  <time>2026-09-01T19:55:26Z</time>
  <course>346.43</course>
  <speed>18.13441203899371</speed>
  <fix>3d</fix>
</trkpt>
<trkpt lat="-27.2716459" lon="151.2904871">
  <ele>395.4</ele>
  <time>2026-09-01T19:55:26Z</time>
  <course>5.26</course>
  <speed>18.77</speed>
  <fix>3d</fix>
</trkpt>
<trkpt lat="-27.2715974" lon="151.2904872">
  <ele>395.62</ele>
  <time>2026-09-01T19:55:26Z</time>
  <course>344.25</course>
  <speed>17.870310573686176</speed>
  <fix>3d</fix>
</trkpt>
<trkpt lat="-27.2716459" lon="151.2904871">
  <ele>395.4</ele>
  <time>2026-09-01T19:55:26Z</time>
  <course>5.26</course>
  <speed>18.77</speed>
  <fix>3d</fix>
</trkpt>
<trkpt lat="-27.2715815" lon="151.2904855">
  <ele>395.72</ele>
  <time>2026-09-01T19:55:26Z</time>
  <course>342.09</course>
  <speed>17.625492900909183</speed>
  <fix>3d</fix>
</trkpt>
<trkpt lat="-27.2716127" lon="151.2904884">
  <ele>395.59</ele>
  <time>2026-09-01T19:55:26Z</time>
  <course>358.93</course>
  <speed>18.2</speed>
  <fix>3d</fix>
</trkpt>
<trkpt lat="-27.2715665" lon="151.290483">
  <ele>395.81</ele>
  <time>2026-09-01T19:55:26Z</time>
  <course>340.11</course>
  <speed>17.398402225491857</speed>
  <fix>3d</fix>
</trkpt>
<trkpt lat="-27.2715806" lon="151.2904859">
  <ele>395.78</ele>
  <time>2026-09-01T19:55:26Z</time>
  <course>352.82</course>
  <speed>17.71</speed>
  <fix>3d</fix>
</trkpt>
<trkpt lat="-27.2715512" lon="151.2904795">
  <ele>395.89</ele>
  <time>2026-09-01T19:55:26Z</time>
  <course>338.15</course>
  <speed>17.19284734998831</speed>
  <fix>3d</fix>
</trkpt>
<trkpt lat="-27.2715806" lon="151.2904859">
  <ele>395.78</ele>
  <time>2026-09-01T19:55:26Z</time>
  <course>352.82</course>
  <speed>17.71</speed>
  <fix>3d</fix>
</trkpt>
<trkpt lat="-27.2715363" lon="151.2904752">
  <ele>395.97</ele>
  <time>2026-09-01T19:55:26Z</time>
  <course>336.17</course>
  <speed>17.008056914298</speed>
  <fix>3d</fix>
</trkpt>
<trkpt lat="-27.2715497" lon="151.2904797">
  <ele>395.95</ele>
  <time>2026-09-01T19:55:26Z</time>
  <course>346.86</course>
  <speed>17.28</speed>
  <fix>3d</fix>
</trkpt>
<trkpt lat="-27.2715218" lon="151.2904701">
  <ele>396.03</ele>
  <time>2026-09-01T19:55:26Z</time>
  <course>334.22</course>
  <speed>16.84002672206906</speed>
  <fix>3d</fix>
</trkpt>
<trkpt lat="-27.2715497" lon="151.2904797">
  <ele>395.95</ele>
  <time>2026-09-01T19:55:26Z</time>
  <course>346.86</course>
  <speed>17.28</speed>
  <fix>3d</fix>
</trkpt>
<trkpt lat="-27.2715076" lon="151.2904642">
  <ele>396.09</ele>
  <time>2026-09-01T19:55:26Z</time>
  <course>332.42</course>
  <speed>16.68662038880252</speed>
  <fix>3d</fix>
</trkpt>
<trkpt lat="-27.2715202" lon="151.2904701">
  <ele>396.08</ele>
  <time>2026-09-01T19:55:26Z</time>
  <course>341.0</course>
  <speed>16.93</speed>
  <fix>3d</fix>
</trkpt>
<trkpt lat="-27.2714938" lon="151.2904576">
  <ele>396.14</ele>
  <time>2026-09-01T19:55:26Z</time>
  <course>330.51</course>
  <speed>16.559785626631765</speed>
  <fix>3d</fix>
</trkpt>
<trkpt lat="-27.2715202" lon="151.2904701">
  <ele>396.08</ele>
  <time>2026-09-01T19:55:26Z</time>
  <course>341.0</course>
  <speed>16.93</speed>
  <fix>3d</fix>
</trkpt>
<trkpt lat="-27.2714804" lon="151.2904502">
  <ele>396.18</ele>
  <time>2026-09-01T19:55:26Z</time>
  <course>328.58</course>
  <speed>16.42880701694435</speed>
  <fix>3d</fix>
</trkpt>
<trkpt lat="-27.2714922" lon="151.2904574">
  <ele>396.18</ele>
  <time>2026-09-01T19:55:26Z</time>
  <course>335.21</course>
  <speed>16.63</speed>
  <fix>3d</fix>
</trkpt>
<trkpt lat="-27.2714674" lon="151.2904422">
  <ele>396.21</ele>
  <time>2026-09-01T19:55:26Z</time>
  <course>326.72</course>
  <speed>16.31692372967405</speed>
  <fix>3d</fix>
</trkpt>
<trkpt lat="-27.2714922" lon="151.2904574">
  <ele>396.18</ele>
  <time>2026-09-01T19:55:26Z</time>
  <course>335.21</course>
  <speed>16.63</speed>
  <fix>3d</fix>
</trkpt>
<trkpt lat="-27.271455" lon="151.2904336">
  <ele>396.23</ele>
  <time>2026-09-01T19:55:26Z</time>
  <course>324.88</course>
  <speed>16.216984923221702</speed>
  <fix>3d</fix>
</trkpt>
<trkpt lat="-27.2714659" lon="151.2904419">
  <ele>396.24</ele>
  <time>2026-09-01T19:55:26Z</time>
  <course>329.46</course>
  <speed>16.39</speed>
  <fix>3d</fix>
</trkpt>
<trkpt lat="-27.2714429" lon="151.2904242">
  <ele>396.24</ele>
  <time>2026-09-01T19:55:26Z</time>
  <course>323.12</course>
  <speed>16.14316573662056</speed>
  <fix>3d</fix>
</trkpt>
<trkpt lat="-27.2714659" lon="151.2904419">
  <ele>396.24</ele>
  <time>2026-09-01T19:55:26Z</time>
  <course>329.46</course>
  <speed>16.39</speed>
  <fix>3d</fix>
</trkpt>
<trkpt lat="-27.2714313" lon="151.2904143">
  <ele>396.24</ele>
  <time>2026-09-01T19:55:26Z</time>
  <course>321.4</course>
  <speed>16.076756513675264</speed>
  <fix>3d</fix>
</trkpt>
<trkpt lat="-27.2714415" lon="151.2904239">
  <ele>396.25</ele>
  <time>2026-09-01T19:55:26Z</time>
  <course>323.75</course>
  <speed>16.22</speed>
  <fix>3d</fix>
</trkpt>
<trkpt lat="-27.2714201" lon="151.2904037">
  <ele>396.22</ele>
  <time>2026-09-01T19:55:26Z</time>
  <course>319.63</course>
  <speed>16.035267381618556</speed>
  <fix>3d</fix>
</trkpt>
<trkpt lat="-27.2714415" lon="151.2904239">
  <ele>396.25</ele>
  <time>2026-09-01T19:55:26Z</time>
  <course>323.75</course>
  <speed>16.22</speed>
  <fix>3d</fix>
</trkpt>
<trkpt lat="-27.2714095" lon="151.2903925">
  <ele>396.2</ele>
  <time>2026-09-01T19:55:26Z</time>
  <course>317.79</course>
  <speed>16.00940348670118</speed>
  <fix>3d</fix>
</trkpt>
<trkpt lat="-27.2714415" lon="151.2904239">
  <ele>396.25</ele>
  <time>2026-09-01T19:55:26Z</time>
  <course>323.75</course>
  <speed>16.22</speed>
  <fix>3d</fix>
</trkpt>
<trkpt lat="-27.2713994" lon="151.2903809">
  <ele>396.16</ele>
  <time>2026-09-01T19:55:26Z</time>
  <course>315.97</course>
  <speed>15.994430280569546</speed>
  <fix>3d</fix>
</trkpt>
<trkpt lat="-27.271419" lon="151.2904032">
  <ele>396.22</ele>
  <time>2026-09-01T19:55:26Z</time>
  <course>318.13</course>
  <speed>16.11</speed>
  <fix>3d</fix>
</trkpt>
<trkpt lat="-27.2713899" lon="151.2903688">
  <ele>396.13</ele>
  <time>2026-09-01T19:55:26Z</time>
  <course>314.28</course>
  <speed>15.989246386243474</speed>
  <fix>3d</fix>
</trkpt>
<trkpt lat="-27.271419" lon="151.2904032">
  <ele>396.22</ele>
  <time>2026-09-01T19:55:26Z</time>
  <course>318.13</course>
  <speed>16.11</speed>
  <fix>3d</fix>
</trkpt>
<trkpt lat="-27.2713806" lon="151.2903558">
  <ele>396.08</ele>
  <time>2026-09-01T19:55:26Z</time>
  <course>312.52</course>
  <speed>15.99405514558456</speed>
  <fix>3d</fix>
</trkpt>
<trkpt lat="-27.2713984" lon="151.2903803">
  <ele>396.16</ele>
  <time>2026-09-01T19:55:26Z</time>
  <course>312.5</course>
  <speed>16.06</speed>
  <fix>3d</fix>
</trkpt>
<trkpt lat="-27.2713723" lon="151.2903428">
  <ele>396.03</ele>
  <time>2026-09-01T19:55:26Z</time>
  <course>310.74</course>
  <speed>16.02054930394086</speed>
  <fix>3d</fix>
</trkpt>
<trkpt lat="-27.2713984" lon="151.2903803">
  <ele>396.16</ele>
  <time>2026-09-01T19:55:26Z</time>
  <course>312.5</course>
  <speed>16.06</speed>
  <fix>3d</fix>
</trkpt>
<trkpt lat="-27.2713645" lon="151.2903293">
  <ele>395.98</ele>
  <time>2026-09-01T19:55:26Z</time>
  <course>309.02</course>
  <speed>16.039357842507286</speed>
  <fix>3d</fix>
</trkpt>
<trkpt lat="-27.27138" lon="151.2903554">
  <ele>396.08</ele>
  <time>2026-09-01T19:55:26Z</time>
  <course>306.92</course>
  <speed>16.08</speed>
  <fix>3d</fix>
</trkpt>
<trkpt lat="-27.2713573" lon="151.2903154">
  <ele>395.92</ele>
  <time>2026-09-01T19:55:26Z</time>
  <course>307.4</course>
  <speed>16.086478794316672</speed>
  <fix>3d</fix>
</trkpt>
<trkpt lat="-27.27138" lon="151.2903554">
  <ele>396.08</ele>
  <time>2026-09-01T19:55:26Z</time>
  <course>306.92</course>
  <speed>16.08</speed>
  <fix>3d</fix>
</trkpt>
<trkpt lat="-27.2713506" lon="151.2903012">
  <ele>395.86</ele>
  <time>2026-09-01T19:55:26Z</time>
  <course>305.82</course>
  <speed>16.139969021035945</speed>
  <fix>3d</fix>
</trkpt>
<trkpt lat="-27.2713637" lon="151.2903284">
  <ele>395.97</ele>
  <time>2026-09-01T19:55:26Z</time>
  <course>301.5</course>
  <speed>16.15</speed>
  <fix>3d</fix>
</trkpt>
<trkpt lat="-27.2713443" lon="151.2902864">
  <ele>395.79</ele>
  <time>2026-09-01T19:55:26Z</time>
  <course>304.14</course>
  <speed>16.200867260736384</speed>
  <fix>3d</fix>
</trkpt>
<trkpt lat="-27.2713637" lon="151.2903284">
  <ele>395.97</ele>
  <time>2026-09-01T19:55:26Z</time>
  <course>301.5</course>
  <speed>16.15</speed>
  <fix>3d</fix>
</trkpt>
<trkpt lat="-27.2713387" lon="151.2902714">
  <ele>395.72</ele>
  <time>2026-09-01T19:55:26Z</time>
  <course>302.54</course>
  <speed>16.27820628939196</speed>
  <fix>3d</fix>
</trkpt>
<trkpt lat="-27.2713497" lon="151.2902998">
  <ele>395.85</ele>
  <time>2026-09-01T19:55:26Z</time>
  <course>296.36</course>
  <speed>16.27</speed>
  <fix>3d</fix>
</trkpt>
<trkpt lat="-27.2713336" lon="151.2902561">
  <ele>395.65</ele>
  <time>2026-09-01T19:55:26Z</time>
  <course>301.03</course>
  <speed>16.35376715010948</speed>
  <fix>3d</fix>
</trkpt>
<trkpt lat="-27.2713497" lon="151.2902998">
  <ele>395.85</ele>
  <time>2026-09-01T19:55:26Z</time>
  <course>296.36</course>
  <speed>16.27</speed>
  <fix>3d</fix>
</trkpt>
<trkpt lat="-27.271329" lon="151.2902405">
  <ele>395.57</ele>
  <time>2026-09-01T19:55:26Z</time>
  <course>299.59</course>
  <speed>16.4489817314021</speed>
  <fix>3d</fix>
</trkpt>
<trkpt lat="-27.2713378" lon="151.2902696">
  <ele>395.7</ele>
  <time>2026-09-01T19:55:26Z</time>
  <course>291.52</course>
  <speed>16.43</speed>
  <fix>3d</fix>
</trkpt>
<trkpt lat="-27.2713249" lon="151.2902245">
  <ele>395.49</ele>
  <time>2026-09-01T19:55:26Z</time>
  <course>298.17</course>
  <speed>16.54260257637836</speed>
  <fix>3d</fix>
</trkpt>
<trkpt lat="-27.2713378" lon="151.2902696">
  <ele>395.7</ele>
  <time>2026-09-01T19:55:26Z</time>
  <course>291.52</course>
  <speed>16.43</speed>
  <fix>3d</fix>
</trkpt>
<trkpt lat="-27.2713213" lon="151.2902082">
  <ele>395.4</ele>
  <time>2026-09-01T19:55:26Z</time>
  <course>296.74</course>
  <speed>16.653939473890254</speed>
  <fix>3d</fix>
</trkpt>
<trkpt lat="-27.271328" lon="151.2902381">
  <ele>395.53</ele>
  <time>2026-09-01T19:55:26Z</time>
  <course>286.97</course>
  <speed>16.62</speed>
  <fix>3d</fix>
</trkpt>
<trkpt lat="-27.2713182" lon="151.2901917">
  <ele>395.32</ele>
  <time>2026-09-01T19:55:26Z</time>
  <course>295.41</course>
  <speed>16.766648442667364</speed>
  <fix>3d</fix>
</trkpt>
<trkpt lat="-27.271328" lon="151.2902381">
  <ele>395.53</ele>
  <time>2026-09-01T19:55:26Z</time>
  <course>286.97</course>
  <speed>16.62</speed>
  <fix>3d</fix>
</trkpt>
<trkpt lat="-27.2713155" lon="151.2901749">
  <ele>395.22</ele>
  <time>2026-09-01T19:55:26Z</time>
  <course>294.15</course>
  <speed>16.87619032838869</speed>
  <fix>3d</fix>
</trkpt>
<trkpt lat="-27.2713203" lon="151.2902054">
  <ele>395.37</ele>
  <time>2026-09-01T19:55:26Z</time>
  <course>282.75</course>
  <speed>16.84</speed>
  <fix>3d</fix>
</trkpt>
<trkpt lat="-27.2713134" lon="151.2901583">
  <ele>395.13</ele>
  <time>2026-09-01T19:55:26Z</time>
  <course>292.83</course>
  <speed>16.995269930189398</speed>
  <fix>3d</fix>
</trkpt>
<trkpt lat="-27.2713146" lon="151.2901717">
  <ele>395.19</ele>
  <time>2026-09-01T19:55:26Z</time>
  <course>278.92</course>
  <speed>17.07</speed>
  <fix>3d</fix>
</trkpt>
<trkpt lat="-27.2713116" lon="151.290141">
  <ele>395.03</ele>
  <time>2026-09-01T19:55:26Z</time>
  <course>291.56</course>
  <speed>17.128692302683238</speed>
  <fix>3d</fix>
</trkpt>
<trkpt lat="-27.2713146" lon="151.2901717">
  <ele>395.19</ele>
  <time>2026-09-01T19:55:26Z</time>
  <course>278.92</course>
  <speed>17.07</speed>
  <fix>3d</fix>
</trkpt>
<trkpt lat="-27.2713103" lon="151.2901235">
  <ele>394.93</ele>
  <time>2026-09-01T19:55:26Z</time>
  <course>290.38</course>
  <speed>17.25835739576626</speed>
  <fix>3d</fix>
</trkpt>
<trkpt lat="-27.2713108" lon="151.2901372">
  <ele>395.0</ele>
  <time>2026-09-01T19:55:26Z</time>
  <course>275.42</course>
  <speed>17.32</speed>
  <fix>3d</fix>
</trkpt>
<trkpt lat="-27.2713094" lon="151.2901056">
  <ele>394.82</ele>
  <time>2026-09-01T19:55:26Z</time>
  <course>289.24</course>
  <speed>17.40328991886304</speed>
  <fix>3d</fix>
</trkpt>
<trkpt lat="-27.2713108" lon="151.2901372">
  <ele>395.0</ele>
  <time>2026-09-01T19:55:26Z</time>
  <course>275.42</course>
  <speed>17.32</speed>
  <fix>3d</fix>
</trkpt>
<trkpt lat="-27.2713089" lon="151.2900877">
  <ele>394.72</ele>
  <time>2026-09-01T19:55:26Z</time>
  <course>288.18</course>
  <speed>17.531642820910996</speed>
  <fix>3d</fix>
</trkpt>
<trkpt lat="-27.2713108" lon="151.2901372">
  <ele>395.0</ele>
  <time>2026-09-01T19:55:26Z</time>
  <course>275.42</course>
  <speed>17.32</speed>
  <fix>3d</fix>
</trkpt>
<trkpt lat="-27.2713088" lon="151.2900696">
  <ele>394.62</ele>
  <time>2026-09-01T19:55:26Z</time>
  <course>287.09</course>
  <speed>17.660917303469827</speed>
  <fix>3d</fix>
</trkpt>
<trkpt lat="-27.2713087" lon="151.290102">
  <ele>394.8</ele>
  <time>2026-09-01T19:55:26Z</time>
  <course>272.19</course>
  <speed>17.57</speed>
  <fix>3d</fix>
</trkpt>
<trkpt lat="-27.2713091" lon="151.2900516">
  <ele>394.53</ele>
  <time>2026-09-01T19:55:26Z</time>
  <course>286.04</course>
  <speed>17.779791899794553</speed>
  <fix>3d</fix>
</trkpt>
<trkpt lat="-27.2713087" lon="151.290102">
  <ele>394.8</ele>
  <time>2026-09-01T19:55:26Z</time>
  <course>272.19</course>
  <speed>17.57</speed>
  <fix>3d</fix>
</trkpt>
<trkpt lat="-27.2713098" lon="151.2900336">
  <ele>394.44</ele>
  <time>2026-09-01T19:55:26Z</time>
  <course>284.99</course>
  <speed>17.887417365287813</speed>
  <fix>3d</fix>
</trkpt>
<trkpt lat="-27.2713083" lon="151.2900662">
  <ele>394.61</ele>
  <time>2026-09-01T19:55:26Z</time>
  <course>269.32</course>
  <speed>17.82</speed>
  <fix>3d</fix>
</trkpt>
<trkpt lat="-27.2713107" lon="151.2900149">
  <ele>394.34</ele>
  <time>2026-09-01T19:55:26Z</time>
  <course>284.07</course>
  <speed>18.002205420447797</speed>
  <fix>3d</fix>
</trkpt>
<trkpt lat="-27.2713083" lon="151.2900662">
  <ele>394.61</ele>
  <time>2026-09-01T19:55:26Z</time>
  <course>269.32</course>
  <speed>17.82</speed>
  <fix>3d</fix>
</trkpt>
<trkpt lat="-27.271312" lon="151.289997">
  <ele>394.26</ele>
  <time>2026-09-01T19:55:26Z</time>
  <course>283.23</course>
  <speed>18.101900452714904</speed>
  <fix>3d</fix>
</trkpt>
<trkpt lat="-27.2713094" lon="151.2900299">
  <ele>394.42</ele>
  <time>2026-09-01T19:55:26Z</time>
  <course>266.75</course>
  <speed>18.06</speed>
  <fix>3d</fix>
</trkpt>
<trkpt lat="-27.2713136" lon="151.2899788">
  <ele>394.17</ele>
  <time>2026-09-01T19:55:26Z</time>
  <course>282.38</course>
  <speed>18.194724510143043</speed>
  <fix>3d</fix>
</trkpt>
<trkpt lat="-27.2713094" lon="151.2900299">
  <ele>394.42</ele>
  <time>2026-09-01T19:55:26Z</time>
  <course>266.75</course>
  <speed>18.06</speed>
  <fix>3d</fix>
</trkpt>
<trkpt lat="-27.2713156" lon="151.2899605">
  <ele>394.09</ele>
  <time>2026-09-01T19:55:26Z</time>
  <course>281.58</course>
  <speed>18.29158549716235</speed>
  <fix>3d</fix>
</trkpt>
<trkpt lat="-27.2713119" lon="151.2899933">
  <ele>394.24</ele>
  <time>2026-09-01T19:55:26Z</time>
  <course>264.49</course>
  <speed>18.28</speed>
  <fix>3d</fix>
</trkpt>
<trkpt lat="-27.2713178" lon="151.2899421">
  <ele>394.0</ele>
  <time>2026-09-01T19:55:26Z</time>
  <course>280.81</course>
  <speed>18.390475795911318</speed>
  <fix>3d</fix>
</trkpt>
<trkpt lat="-27.2713119" lon="151.2899933">
  <ele>394.24</ele>
  <time>2026-09-01T19:55:26Z</time>
  <course>264.49</course>
  <speed>18.28</speed>
  <fix>3d</fix>
</trkpt>
<trkpt lat="-27.2713202" lon="151.2899235">
  <ele>393.92</ele>
  <time>2026-09-01T19:55:26Z</time>
  <course>280.08</course>
  <speed>18.480546528715</speed>
  <fix>3d</fix>
</trkpt>
<trkpt lat="-27.2713156" lon="151.2899564">
  <ele>394.07</ele>
  <time>2026-09-01T19:55:26Z</time>
  <course>262.55</course>
  <speed>18.49</speed>
  <fix>3d</fix>
</trkpt>
<trkpt lat="-27.2713229" lon="151.2899049">
  <ele>393.85</ele>
  <time>2026-09-01T19:55:26Z</time>
  <course>279.32</course>
  <speed>18.5742402267226</speed>
  <fix>3d</fix>
</trkpt>
<trkpt lat="-27.2713156" lon="151.2899564">
  <ele>394.07</ele>
  <time>2026-09-01T19:55:26Z</time>
  <course>262.55</course>
  <speed>18.49</speed>
  <fix>3d</fix>
</trkpt>
<trkpt lat="-27.2713259" lon="151.2898863">
  <ele>393.77</ele>
  <time>2026-09-01T19:55:26Z</time>
  <course>278.66</course>
  <speed>18.665982427935585</speed>
  <fix>3d</fix>
</trkpt>
<trkpt lat="-27.2713204" lon="151.2899192">
  <ele>393.91</ele>
  <time>2026-09-01T19:55:26Z</time>
  <course>260.85</course>
  <speed>18.68</speed>
  <fix>3d</fix>
</trkpt>
<trkpt lat="-27.271329" lon="151.2898676">
  <ele>393.71</ele>
  <time>2026-09-01T19:55:26Z</time>
  <course>278.1</course>
  <speed>18.74872262315489</speed>
  <fix>3d</fix>
</trkpt>
<trkpt lat="-27.2713204" lon="151.2899192">
  <ele>393.91</ele>
  <time>2026-09-01T19:55:26Z</time>
  <course>260.85</course>
  <speed>18.68</speed>
  <fix>3d</fix>
</trkpt>
<trkpt lat="-27.2713324" lon="151.2898488">
  <ele>393.64</ele>
  <time>2026-09-01T19:55:26Z</time>
  <course>277.56</course>
  <speed>18.820095642690024</speed>
  <fix>3d</fix>
</trkpt>
<trkpt lat="-27.2713262" lon="151.2898818">
  <ele>393.77</ele>
  <time>2026-09-01T19:55:26Z</time>
  <course>259.36</course>
  <speed>18.86</speed>
  <fix>3d</fix>
</trkpt>
<trkpt lat="-27.2713359" lon="151.28983">
  <ele>393.58</ele>
  <time>2026-09-01T19:55:26Z</time>
  <course>277.06</course>
  <speed>18.899050240686698</speed>
  <fix>3d</fix>
</trkpt>
<trkpt lat="-27.2713262" lon="151.2898818">
  <ele>393.77</ele>
  <time>2026-09-01T19:55:26Z</time>
  <course>259.36</course>
  <speed>18.86</speed>
  <fix>3d</fix>
</trkpt>
<trkpt lat="-27.2713396" lon="151.2898112">
  <ele>393.52</ele>
  <time>2026-09-01T19:55:26Z</time>
  <course>276.53</course>
  <speed>18.967683042480438</speed>
  <fix>3d</fix>
</trkpt>
<trkpt lat="-27.2713329" lon="151.2898443">
  <ele>393.64</ele>
  <time>2026-09-01T19:55:26Z</time>
  <course>258.08</course>
  <speed>19.02</speed>
  <fix>3d</fix>
</trkpt>
<trkpt lat="-27.2713435" lon="151.2897924">
  <ele>393.47</ele>
  <time>2026-09-01T19:55:26Z</time>
  <course>276.08</course>
  <speed>19.035503670772677</speed>
  <fix>3d</fix>
</trkpt>
<trkpt lat="-27.2713329" lon="151.2898443">
  <ele>393.64</ele>
  <time>2026-09-01T19:55:26Z</time>
  <course>258.08</course>
  <speed>19.02</speed>
  <fix>3d</fix>
</trkpt>
<trkpt lat="-27.2713476" lon="151.2897735">
  <ele>393.42</ele>
  <time>2026-09-01T19:55:26Z</time>
  <course>275.66</course>
  <speed>19.10225379372811</speed>
  <fix>3d</fix>
</trkpt>
<trkpt lat="-27.2713403" lon="151.2898066">
  <ele>393.53</ele>
  <time>2026-09-01T19:55:26Z</time>
  <course>257.01</course>
  <speed>19.16</speed>
  <fix>3d</fix>
</trkpt>
<trkpt lat="-27.2713517" lon="151.2897545">
  <ele>393.38</ele>
  <time>2026-09-01T19:55:26Z</time>
  <course>275.24</course>
  <speed>19.16523936714593</speed>
  <fix>3d</fix>
</trkpt>
<trkpt lat="-27.2713403" lon="151.2898066">
  <ele>393.53</ele>
  <time>2026-09-01T19:55:26Z</time>
  <course>257.01</course>
  <speed>19.16</speed>
  <fix>3d</fix>
</trkpt>
<trkpt lat="-27.271356" lon="151.2897356">
  <ele>393.33</ele>
  <time>2026-09-01T19:55:26Z</time>
  <course>274.93</course>
  <speed>19.216891007652617</speed>
  <fix>3d</fix>
</trkpt>
<trkpt lat="-27.2713483" lon="151.2897689">
  <ele>393.44</ele>
  <time>2026-09-01T19:55:26Z</time>
  <course>256.11</course>
  <speed>19.29</speed>
  <fix>3d</fix>
</trkpt>
<trkpt lat="-27.2713604" lon="151.2897166">
  <ele>393.29</ele>
  <time>2026-09-01T19:55:26Z</time>
  <course>274.57</course>
  <speed>19.273829406737</speed>
  <fix>3d</fix>
</trkpt>
<trkpt lat="-27.2713483" lon="151.2897689">
  <ele>393.44</ele>
  <time>2026-09-01T19:55:26Z</time>
  <course>256.11</course>
  <speed>19.29</speed>
  <fix>3d</fix>
</trkpt>
<trkpt lat="-27.2713649" lon="151.2896976">
  <ele>393.26</ele>
  <time>2026-09-01T19:55:26Z</time>
  <course>274.25</course>
  <speed>19.32162001489523</speed>
  <fix>3d</fix>
</trkpt>
<trkpt lat="-27.2713569" lon="151.2897309">
  <ele>393.36</ele>
  <time>2026-09-01T19:55:26Z</time>
  <course>255.36</course>
  <speed>19.39</speed>
  <fix>3d</fix>
</trkpt>
<trkpt lat="-27.2713695" lon="151.2896786">
  <ele>393.22</ele>
  <time>2026-09-01T19:55:26Z</time>
  <course>273.93</course>
  <speed>19.367276525108014</speed>
  <fix>3d</fix>
</trkpt>
<trkpt lat="-27.2713569" lon="151.2897309">
  <ele>393.36</ele>
  <time>2026-09-01T19:55:26Z</time>
  <course>255.36</course>
  <speed>19.39</speed>
  <fix>3d</fix>
</trkpt>
<trkpt lat="-27.2713742" lon="151.2896597">
  <ele>393.18</ele>
  <time>2026-09-01T19:55:26Z</time>
  <course>273.71</course>
  <speed>19.40103090044444</speed>
  <fix>3d</fix>
</trkpt>
<trkpt lat="-27.271366" lon="151.2896928">
  <ele>393.28</ele>
  <time>2026-09-01T19:55:26Z</time>
  <course>254.75</course>
  <speed>19.49</speed>
  <fix>3d</fix>
</trkpt>
<trkpt lat="-27.2713788" lon="151.2896412">
  <ele>393.16</ele>
  <time>2026-09-01T19:55:26Z</time>
  <course>273.4</course>
  <speed>19.429673183046596</speed>
  <fix>3d</fix>
</trkpt>
<trkpt lat="-27.271366" lon="151.2896928">
  <ele>393.28</ele>
  <time>2026-09-01T19:55:26Z</time>
  <course>254.75</course>
  <speed>19.49</speed>
  <fix>3d</fix>
</trkpt>
<trkpt lat="-27.2713838" lon="151.2896215">
  <ele>393.12</ele>
  <time>2026-09-01T19:55:26Z</time>
  <course>273.22</course>
  <speed>19.47367710526186</speed>
  <fix>3d</fix>
</trkpt>
<trkpt lat="-27.2713753" lon="151.2896548">
  <ele>393.22</ele>
  <time>2026-09-01T19:55:26Z</time>
  <course>254.25</course>
  <speed>19.56</speed>
  <fix>3d</fix>
</trkpt>
<trkpt lat="-27.2713887" lon="151.2896026">
  <ele>393.09</ele>
  <time>2026-09-01T19:55:26Z</time>
  <course>273.09</course>
  <speed>19.5</speed>
  <fix>3d</fix>
</trkpt>
<trkpt lat="-27.2713753" lon="151.2896548">
  <ele>393.22</ele>
  <time>2026-09-01T19:55:26Z</time>
  <course>254.25</course>
  <speed>19.56</speed>
  <fix>3d</fix>
</trkpt>
<trkpt lat="-27.2713936" lon="151.2895835">
  <ele>393.06</ele>
  <time>2026-09-01T19:55:26Z</time>
  <course>272.93</course>
  <speed>19.536069205446626</speed>
  <fix>3d</fix>
</trkpt>
<trkpt lat="-27.271385" lon="151.2896167">
  <ele>393.16</ele>
  <time>2026-09-01T19:55:26Z</time>
  <course>253.83</course>
  <speed>19.63</speed>
  <fix>3d</fix>
</trkpt>
<trkpt lat="-27.2713987" lon="151.2895644">
  <ele>393.04</ele>
  <time>2026-09-01T19:55:26Z</time>
  <course>272.75</course>
  <speed>19.572276311149913</speed>
  <fix>3d</fix>
</trkpt>
<trkpt lat="-27.271385" lon="151.2896167">
  <ele>393.16</ele>
  <time>2026-09-01T19:55:26Z</time>
  <course>253.83</course>
  <speed>19.63</speed>
  <fix>3d</fix>
</trkpt>
<trkpt lat="-27.2714038" lon="151.2895452">
  <ele>393.01</ele>
  <time>2026-09-01T19:55:26Z</time>
  <course>272.56</course>
  <speed>19.602877339819273</speed>
  <fix>3d</fix>
</trkpt>
<trkpt lat="-27.2713949" lon="151.2895786">
  <ele>393.1</ele>
  <time>2026-09-01T19:55:26Z</time>
  <course>253.5</course>
  <speed>19.69</speed>
  <fix>3d</fix>
</trkpt>
<trkpt lat="-27.2714089" lon="151.2895259">
  <ele>392.98</ele>
  <time>2026-09-01T19:55:26Z</time>
  <course>272.44</course>
  <speed>19.62684386242475</speed>
  <fix>3d</fix>
</trkpt>
<trkpt lat="-27.2713949" lon="151.2895786">
  <ele>393.1</ele>
  <time>2026-09-01T19:55:26Z</time>
  <course>253.5</course>
  <speed>19.69</speed>
  <fix>3d</fix>
</trkpt>
<trkpt lat="-27.2714141" lon="151.2895068">
  <ele>392.95</ele>
  <time>2026-09-01T19:55:26Z</time>
  <course>272.38</course>
  <speed>19.648004987784383</speed>
  <fix>3d</fix>
</trkpt>
<trkpt lat="-27.2714051" lon="151.2895404">
  <ele>393.05</ele>
  <time>2026-09-01T19:55:26Z</time>
  <course>253.24</course>
  <speed>19.73</speed>
  <fix>3d</fix>
</trkpt>
<trkpt lat="-27.2714192" lon="151.2894877">
  <ele>392.93</ele>
  <time>2026-09-01T19:55:26Z</time>
  <course>272.29</course>
  <speed>19.666308753805325</speed>
  <fix>3d</fix>
</trkpt>
<trkpt lat="-27.2714051" lon="151.2895404">
  <ele>393.05</ele>
  <time>2026-09-01T19:55:26Z</time>
  <course>253.24</course>
  <speed>19.73</speed>
  <fix>3d</fix>
</trkpt>
<trkpt lat="-27.2714244" lon="151.2894686">
  <ele>392.91</ele>
  <time>2026-09-01T19:55:26Z</time>
  <course>272.18</course>
  <speed>19.684646301114988</speed>
  <fix>3d</fix>
</trkpt>
<trkpt lat="-27.2714154" lon="151.2895022">
  <ele>393.01</ele>
  <time>2026-09-01T19:55:26Z</time>
  <course>253.04</course>
  <speed>19.77</speed>
  <fix>3d</fix>
</trkpt>
<trkpt lat="-27.2714296" lon="151.2894496">
  <ele>392.89</ele>
  <time>2026-09-01T19:55:26Z</time>
  <course>272.03</course>
  <speed>19.69051802264227</speed>
  <fix>3d</fix>
</trkpt>
<trkpt lat="-27.2714154" lon="151.2895022">
  <ele>393.01</ele>
  <time>2026-09-01T19:55:26Z</time>
  <course>253.04</course>
  <speed>19.77</speed>
  <fix>3d</fix>
</trkpt>
<trkpt lat="-27.2714349" lon="151.2894304">
  <ele>392.87</ele>
  <time>2026-09-01T19:55:26Z</time>
  <course>271.97</course>
  <speed>19.705963564362946</speed>
  <fix>3d</fix>
</trkpt>
<trkpt lat="-27.2714258" lon="151.289464">
  <ele>392.97</ele>
  <time>2026-09-01T19:55:26Z</time>
  <course>252.9</course>
  <speed>19.8</speed>
  <fix>3d</fix>
</trkpt>
<trkpt lat="-27.2714402" lon="151.2894112">
  <ele>392.84</ele>
  <time>2026-09-01T19:55:26Z</time>
  <course>271.97</course>
  <speed>19.711869520672057</speed>
  <fix>3d</fix>
</trkpt>
<trkpt lat="-27.2714258" lon="151.289464">
  <ele>392.97</ele>
  <time>2026-09-01T19:55:26Z</time>
  <course>252.9</course>
  <speed>19.8</speed>
  <fix>3d</fix>
</trkpt>
<trkpt lat="-27.2714455" lon="151.2893919">
  <ele>392.82</ele>
  <time>2026-09-01T19:55:26Z</time>
  <course>271.94</course>
  <speed>19.72734396719437</speed>
  <fix>3d</fix>
</trkpt>
<trkpt lat="-27.2714363" lon="151.2894258">
  <ele>392.93</ele>
  <time>2026-09-01T19:55:26Z</time>
  <course>252.78</course>
  <speed>19.82</speed>
  <fix>3d</fix>
</trkpt>
<trkpt lat="-27.2714508" lon="151.2893727">
  <ele>392.8</ele>
  <time>2026-09-01T19:55:26Z</time>
  <course>271.8</course>
  <speed>19.74283161048587</speed>
  <fix>3d</fix>
</trkpt>
<trkpt lat="-27.2714363" lon="151.2894258">
  <ele>392.93</ele>
  <time>2026-09-01T19:55:26Z</time>
  <course>252.78</course>
  <speed>19.82</speed>
  <fix>3d</fix>
</trkpt>
<trkpt lat="-27.2714562" lon="151.2893534">
  <ele>392.78</ele>
  <time>2026-09-01T19:55:26Z</time>
  <course>271.71</course>
  <speed>19.767877984245047</speed>
  <fix>3d</fix>
</trkpt>
<trkpt lat="-27.2714468" lon="151.2893875">
  <ele>392.89</ele>
  <time>2026-09-01T19:55:26Z</time>
  <course>252.69</course>
  <speed>19.83</speed>
  <fix>3d</fix>
</trkpt>
<trkpt lat="-27.2714615" lon="151.2893342">
  <ele>392.76</ele>
  <time>2026-09-01T19:55:26Z</time>
  <course>271.7</course>
  <speed>19.780404444803448</speed>
  <fix>3d</fix>
</trkpt>
<trkpt lat="-27.2714468" lon="151.2893875">
  <ele>392.89</ele>
  <time>2026-09-01T19:55:26Z</time>
  <course>252.69</course>
  <speed>19.83</speed>
  <fix>3d</fix>
</trkpt>
<trkpt lat="-27.2714669" lon="151.2893149">
  <ele>392.74</ele>
  <time>2026-09-01T19:55:26Z</time>
  <course>271.73</course>
  <speed>19.795921297075314</speed>
  <fix>3d</fix>
</trkpt>
<trkpt lat="-27.2714574" lon="151.2893492">
  <ele>392.84</ele>
  <time>2026-09-01T19:55:26Z</time>
  <course>252.62</course>
  <speed>19.84</speed>
  <fix>3d</fix>
</trkpt>
<trkpt lat="-27.2714723" lon="151.2892956">
  <ele>392.72</ele>
  <time>2026-09-01T19:55:26Z</time>
  <course>271.69</course>
  <speed>19.795921297075314</speed>
  <fix>3d</fix>
</trkpt>
<trkpt lat="-27.2714574" lon="151.2893492">
  <ele>392.84</ele>
  <time>2026-09-01T19:55:26Z</time>
  <course>252.62</course>
  <speed>19.84</speed>
  <fix>3d</fix>
</trkpt>
<trkpt lat="-27.2714776" lon="151.2892763">
  <ele>392.69</ele>
  <time>2026-09-01T19:55:26Z</time>
  <course>271.63</course>
  <speed>19.80845526536585</speed>
  <fix>3d</fix>
</trkpt>
<trkpt lat="-27.2714681" lon="151.2893109">
  <ele>392.81</ele>
  <time>2026-09-01T19:55:26Z</time>
  <course>252.58</course>
  <speed>19.85</speed>
  <fix>3d</fix>
</trkpt>
<trkpt lat="-27.271483" lon="151.2892571">
  <ele>392.67</ele>
  <time>2026-09-01T19:55:26Z</time>
  <course>271.63</course>
  <speed>19.817996871530685</speed>
  <fix>3d</fix>
</trkpt>
<trkpt lat="-27.2714681" lon="151.2893109">
  <ele>392.81</ele>
  <time>2026-09-01T19:55:26Z</time>
  <course>252.58</course>
  <speed>19.85</speed>
  <fix>3d</fix>
</trkpt>
<trkpt lat="-27.2714884" lon="151.2892378">
  <ele>392.64</ele>
  <time>2026-09-01T19:55:26Z</time>
  <course>271.62</course>
  <speed>19.827538929478866</speed>
  <fix>3d</fix>
</trkpt>
<trkpt lat="-27.2714788" lon="151.2892725">
  <ele>392.78</ele>
  <time>2026-09-01T19:55:26Z</time>
  <course>252.56</course>
  <speed>19.86</speed>
  <fix>3d</fix>
</trkpt>
<trkpt lat="-27.2714938" lon="151.2892185">
  <ele>392.61</ele>
  <time>2026-09-01T19:55:26Z</time>
  <course>271.62</course>
  <speed>19.837081438558446</speed>
  <fix>3d</fix>
</trkpt>
<trkpt lat="-27.2714788" lon="151.2892725">
  <ele>392.78</ele>
  <time>2026-09-01T19:55:26Z</time>
  <course>252.56</course>
  <speed>19.86</speed>
  <fix>3d</fix>
</trkpt>
<trkpt lat="-27.2714991" lon="151.2891992">
  <ele>392.59</ele>
  <time>2026-09-01T19:55:26Z</time>
  <course>271.63</course>
  <speed>19.837081438558446</speed>
  <fix>3d</fix>
</trkpt>
<trkpt lat="-27.2714895" lon="151.2892342">
  <ele>392.73</ele>
  <time>2026-09-01T19:55:26Z</time>
  <course>252.56</course>
  <speed>19.86</speed>
  <fix>3d</fix>
</trkpt>
<trkpt lat="-27.2715045" lon="151.28918">
  <ele>392.56</ele>
  <time>2026-09-01T19:55:26Z</time>
  <course>271.63</course>
  <speed>19.84662439811869</speed>
  <fix>3d</fix>
</trkpt>
<trkpt lat="-27.2714895" lon="151.2892342">
  <ele>392.73</ele>
  <time>2026-09-01T19:55:26Z</time>
  <course>252.56</course>
  <speed>19.86</speed>
  <fix>3d</fix>
</trkpt>
<trkpt lat="-27.2715099" lon="151.2891607">
  <ele>392.54</ele>
  <time>2026-09-01T19:55:26Z</time>
  <course>271.64</course>
  <speed>19.843638779215873</speed>
  <fix>3d</fix>
</trkpt>
<trkpt lat="-27.2715002" lon="151.2891959">
  <ele>392.68</ele>
  <time>2026-09-01T19:55:26Z</time>
  <course>252.57</course>
  <speed>19.86</speed>
  <fix>3d</fix>
</trkpt>
<trkpt lat="-27.2715152" lon="151.2891414">
  <ele>392.51</ele>
  <time>2026-09-01T19:55:26Z</time>
  <course>271.62</course>
  <speed>19.853183623791928</speed>
  <fix>3d</fix>
</trkpt>
<trkpt lat="-27.2715002" lon="151.2891959">
  <ele>392.68</ele>
  <time>2026-09-01T19:55:26Z</time>
  <course>252.57</course>
  <speed>19.86</speed>
  <fix>3d</fix>
</trkpt>
<trkpt lat="-27.2715206" lon="151.2891221">
  <ele>392.48</ele>
  <time>2026-09-01T19:55:26Z</time>
  <course>271.61</course>
  <speed>19.853183623791928</speed>
  <fix>3d</fix>
</trkpt>
<trkpt lat="-27.2715108" lon="151.2891576">
  <ele>392.63</ele>
  <time>2026-09-01T19:55:26Z</time>
  <course>252.6</course>
  <speed>19.85</speed>
  <fix>3d</fix>
</trkpt>
<trkpt lat="-27.2715259" lon="151.289103">
  <ele>392.46</ele>
  <time>2026-09-01T19:55:26Z</time>
  <course>271.56</course>
  <speed>19.853183623791928</speed>
  <fix>3d</fix>
</trkpt>
<trkpt lat="-27.2715108" lon="151.2891576">
  <ele>392.63</ele>
  <time>2026-09-01T19:55:26Z</time>
  <course>252.6</course>
  <speed>19.85</speed>
  <fix>3d</fix>
</trkpt>
<trkpt lat="-27.2715312" lon="151.2890839">
  <ele>392.43</ele>
  <time>2026-09-01T19:55:26Z</time>
  <course>271.58</course>
  <speed>19.843638779215873</speed>
  <fix>3d</fix>
</trkpt>
<trkpt lat="-27.2715215" lon="151.2891193">
  <ele>392.58</ele>
  <time>2026-09-01T19:55:26Z</time>
  <course>252.62</course>
  <speed>19.85</speed>
  <fix>3d</fix>
</trkpt>
<trkpt lat="-27.2715365" lon="151.2890649">
  <ele>392.4</ele>
  <time>2026-09-01T19:55:26Z</time>
  <course>271.61</course>
  <speed>19.843638779215873</speed>
  <fix>3d</fix>
</trkpt>
<trkpt lat="-27.2715215" lon="151.2891193">
  <ele>392.58</ele>
  <time>2026-09-01T19:55:26Z</time>
  <course>252.62</course>
  <speed>19.85</speed>
  <fix>3d</fix>
</trkpt>
<trkpt lat="-27.2715418" lon="151.2890458">
  <ele>392.36</ele>
  <time>2026-09-01T19:55:26Z</time>
  <course>271.64</course>
  <speed>19.834094383157503</speed>
  <fix>3d</fix>
</trkpt>
<trkpt lat="-27.2715321" lon="151.289081">
  <ele>392.52</ele>
  <time>2026-09-01T19:55:26Z</time>
  <course>252.62</course>
  <speed>19.85</speed>
  <fix>3d</fix>
</trkpt>
<trkpt lat="-27.2715471" lon="151.2890268">
  <ele>392.33</ele>
  <time>2026-09-01T19:55:26Z</time>
  <course>271.65</course>
  <speed>19.831111920414347</speed>
  <fix>3d</fix>
</trkpt>
<trkpt lat="-27.2715321" lon="151.289081">
  <ele>392.52</ele>
  <time>2026-09-01T19:55:26Z</time>
  <course>252.62</course>
  <speed>19.85</speed>
  <fix>3d</fix>
</trkpt>
<trkpt lat="-27.2715524" lon="151.2890076">
  <ele>392.29</ele>
  <time>2026-09-01T19:55:26Z</time>
  <course>271.66</course>
  <speed>19.828134052401403</speed>
  <fix>3d</fix>
</trkpt>
<trkpt lat="-27.2715428" lon="151.2890428">
  <ele>392.45</ele>
  <time>2026-09-01T19:55:26Z</time>
  <course>252.63</course>
  <speed>19.85</speed>
  <fix>3d</fix>
</trkpt>
<trkpt lat="-27.2715577" lon="151.2889885">
  <ele>392.25</ele>
  <time>2026-09-01T19:55:26Z</time>
  <course>271.67</course>
  <speed>19.815612531536843</speed>
  <fix>3d</fix>
</trkpt>
<trkpt lat="-27.2715428" lon="151.2890428">
  <ele>392.45</ele>
  <time>2026-09-01T19:55:26Z</time>
  <course>252.63</course>
  <speed>19.85</speed>
  <fix>3d</fix>
</trkpt>
<trkpt lat="-27.271563" lon="151.2889693">
  <ele>392.21</ele>
  <time>2026-09-01T19:55:26Z</time>
  <course>271.64</course>
  <speed>19.82516078118914</speed>
  <fix>3d</fix>
</trkpt>
<trkpt lat="-27.2715534" lon="151.2890045">
  <ele>392.38</ele>
  <time>2026-09-01T19:55:26Z</time>
  <course>252.66</course>
  <speed>19.84</speed>
  <fix>3d</fix>
</trkpt>
<trkpt lat="-27.2715684" lon="151.2889502">
  <ele>392.17</ele>
  <time>2026-09-01T19:55:26Z</time>
  <course>271.69</course>
  <speed>19.812642428510134</speed>
  <fix>3d</fix>
</trkpt>
<trkpt lat="-27.2715534" lon="151.2890045">
  <ele>392.38</ele>
  <time>2026-09-01T19:55:26Z</time>
  <course>252.66</course>
  <speed>19.84</speed>
  <fix>3d</fix>
</trkpt>
<trkpt lat="-27.2715737" lon="151.288931">
  <ele>392.13</ele>
  <time>2026-09-01T19:55:26Z</time>
  <course>271.75</course>
  <speed>19.809676928208596</speed>
  <fix>3d</fix>
</trkpt>
<trkpt lat="-27.2715641" lon="151.2889662">
  <ele>392.3</ele>
  <time>2026-09-01T19:55:26Z</time>
  <course>252.7</course>
  <speed>19.83</speed>
  <fix>3d</fix>
</trkpt>
<trkpt lat="-27.271579" lon="151.2889118">
  <ele>392.09</ele>
  <time>2026-09-01T19:55:26Z</time>
  <course>271.75</course>
  <speed>19.809676928208596</speed>
  <fix>3d</fix>
</trkpt>
<trkpt lat="-27.2715641" lon="151.2889662">
  <ele>392.3</ele>
  <time>2026-09-01T19:55:26Z</time>
  <course>252.7</course>
  <speed>19.83</speed>
  <fix>3d</fix>
</trkpt>
<trkpt lat="-27.2715843" lon="151.2888926">
  <ele>392.05</ele>
  <time>2026-09-01T19:55:26Z</time>
  <course>271.74</course>
  <speed>19.819228037438794</speed>
  <fix>3d</fix>
</trkpt>
<trkpt lat="-27.2715747" lon="151.2889278">
  <ele>392.22</ele>
  <time>2026-09-01T19:55:26Z</time>
  <course>252.73</course>
  <speed>19.82</speed>
  <fix>3d</fix>
</trkpt>
<trkpt lat="-27.2715896" lon="151.2888734">
  <ele>392.0</ele>
  <time>2026-09-01T19:55:26Z</time>
  <course>271.75</course>
  <speed>19.806716032699615</speed>
  <fix>3d</fix>
</trkpt>
<trkpt lat="-27.2715747" lon="151.2889278">
  <ele>392.22</ele>
  <time>2026-09-01T19:55:26Z</time>
  <course>252.73</course>
  <speed>19.82</speed>
  <fix>3d</fix>
</trkpt>
<trkpt lat="-27.2715949" lon="151.2888541">
  <ele>391.96</ele>
  <time>2026-09-01T19:55:26Z</time>
  <course>271.8</course>
  <speed>19.810363449467555</speed>
  <fix>3d</fix>
</trkpt>
<trkpt lat="-27.2715852" lon="151.2888896">
  <ele>392.14</ele>
  <time>2026-09-01T19:55:26Z</time>
  <course>252.77</course>
  <speed>19.8</speed>
  <fix>3d</fix>
</trkpt>
<trkpt lat="-27.2716001" lon="151.288835">
  <ele>391.92</ele>
  <time>2026-09-01T19:55:26Z</time>
  <course>271.85</course>
  <speed>19.797860995572222</speed>
  <fix>3d</fix>
</trkpt>
<trkpt lat="-27.2715852" lon="151.2888896">
  <ele>392.14</ele>
  <time>2026-09-01T19:55:26Z</time>
  <course>252.77</course>
  <speed>19.8</speed>
  <fix>3d</fix>
</trkpt>
<trkpt lat="-27.2716054" lon="151.2888158">
  <ele>391.87</ele>
  <time>2026-09-01T19:55:26Z</time>
  <course>271.84</course>
  <speed>19.804476766630316</speed>
  <fix>3d</fix>
</trkpt>
<trkpt lat="-27.2715957" lon="151.2888514">
  <ele>392.06</ele>
  <time>2026-09-01T19:55:26Z</time>
  <course>252.83</course>
  <speed>19.79</speed>
  <fix>3d</fix>
</trkpt>
<trkpt lat="-27.2716106" lon="151.2887966">
  <ele>391.82</ele>
  <time>2026-09-01T19:55:26Z</time>
  <course>271.85</course>
  <speed>19.801540344124746</speed>
  <fix>3d</fix>
</trkpt>
<trkpt lat="-27.2715957" lon="151.2888514">
  <ele>392.06</ele>
  <time>2026-09-01T19:55:26Z</time>
  <course>252.83</course>
  <speed>19.79</speed>
  <fix>3d</fix>
</trkpt>
<trkpt lat="-27.2716159" lon="151.2887774">
  <ele>391.76</ele>
  <time>2026-09-01T19:55:26Z</time>
  <course>271.85</course>
  <speed>19.798608536965418</speed>
  <fix>3d</fix>
</trkpt>
<trkpt lat="-27.2716062" lon="151.2888131">
  <ele>391.97</ele>
  <time>2026-09-01T19:55:26Z</time>
  <course>252.9</course>
  <speed>19.78</speed>
  <fix>3d</fix>
</trkpt>
<trkpt lat="-27.2716211" lon="151.2887582">
  <ele>391.71</ele>
  <time>2026-09-01T19:55:26Z</time>
  <course>271.82</course>
  <speed>19.798608536965418</speed>
  <fix>3d</fix>
</trkpt>
<trkpt lat="-27.2716062" lon="151.2888131">
  <ele>391.97</ele>
  <time>2026-09-01T19:55:26Z</time>
  <course>252.9</course>
  <speed>19.78</speed>
  <fix>3d</fix>
</trkpt>
<trkpt lat="-27.2716263" lon="151.288739">
  <ele>391.65</ele>
  <time>2026-09-01T19:55:26Z</time>
  <course>271.84</course>
  <speed>19.805244254994687</speed>
  <fix>3d</fix>
</trkpt>
<trkpt lat="-27.2716167" lon="151.2887749">
  <ele>391.86</ele>
  <time>2026-09-01T19:55:26Z</time>
  <course>252.95</course>
  <speed>19.78</speed>
  <fix>3d</fix>
</trkpt>
<trkpt lat="-27.2716315" lon="151.28872">
  <ele>391.6</ele>
  <time>2026-09-01T19:55:26Z</time>
  <course>271.88</course>
  <speed>19.805244254994687</speed>
  <fix>3d</fix>
</trkpt>
<trkpt lat="-27.2716167" lon="151.2887749">
  <ele>391.86</ele>
  <time>2026-09-01T19:55:26Z</time>
  <course>252.95</course>
  <speed>19.78</speed>
  <fix>3d</fix>
</trkpt>
<trkpt lat="-27.2716367" lon="151.288701">
  <ele>391.55</ele>
  <time>2026-09-01T19:55:26Z</time>
  <course>271.88</course>
  <speed>19.792758776886057</speed>
  <fix>3d</fix>
</trkpt>
<trkpt lat="-27.2716271" lon="151.2887366">
  <ele>391.75</ele>
  <time>2026-09-01T19:55:26Z</time>
  <course>253.0</course>
  <speed>19.78</speed>
  <fix>3d</fix>
</trkpt>
<trkpt lat="-27.2716419" lon="151.2886819">
  <ele>391.49</ele>
  <time>2026-09-01T19:55:26Z</time>
  <course>271.91</course>
  <speed>19.78984082806125</speed>
  <fix>3d</fix>
</trkpt>
<trkpt lat="-27.2716271" lon="151.2887366">
  <ele>391.75</ele>
  <time>2026-09-01T19:55:26Z</time>
  <course>253.0</course>
  <speed>19.78</speed>
  <fix>3d</fix>
</trkpt>
<trkpt lat="-27.271647" lon="151.2886629">
  <ele>391.43</ele>
  <time>2026-09-01T19:55:26Z</time>
  <course>271.95</course>
  <speed>19.777360794605535</speed>
  <fix>3d</fix>
</trkpt>
<trkpt lat="-27.2716374" lon="151.2886985">
  <ele>391.65</ele>
  <time>2026-09-01T19:55:26Z</time>
  <course>253.03</course>
  <speed>19.77</speed>
  <fix>3d</fix>
</trkpt>
<trkpt lat="-27.2716522" lon="151.2886437">
  <ele>391.37</ele>
  <time>2026-09-01T19:55:26Z</time>
  <course>271.97</course>
  <speed>19.774450687692944</speed>
  <fix>3d</fix>
</trkpt>
<trkpt lat="-27.2716374" lon="151.2886985">
  <ele>391.65</ele>
  <time>2026-09-01T19:55:26Z</time>
  <course>253.03</course>
  <speed>19.77</speed>
  <fix>3d</fix>
</trkpt>
<trkpt lat="-27.2716573" lon="151.2886248">
  <ele>391.31</ele>
  <time>2026-09-01T19:55:26Z</time>
  <course>271.96</course>
  <speed>19.76197611576332</speed>
  <fix>3d</fix>
</trkpt>
<trkpt lat="-27.2716477" lon="151.2886603">
  <ele>391.54</ele>
  <time>2026-09-01T19:55:26Z</time>
  <course>253.08</course>
  <speed>19.76</speed>
  <fix>3d</fix>
</trkpt>
<trkpt lat="-27.2716624" lon="151.2886058">
  <ele>391.25</ele>
  <time>2026-09-01T19:55:26Z</time>
  <course>271.97</course>
  <speed>19.759073864936077</speed>
  <fix>3d</fix>
</trkpt>
<trkpt lat="-27.2716477" lon="151.2886603">
  <ele>391.54</ele>
  <time>2026-09-01T19:55:26Z</time>
  <course>253.08</course>
  <speed>19.76</speed>
  <fix>3d</fix>
</trkpt>
<trkpt lat="-27.2716676" lon="151.2885867">
  <ele>391.19</ele>
  <time>2026-09-01T19:55:26Z</time>
  <course>271.98</course>
  <speed>19.74660477145375</speed>
  <fix>3d</fix>
</trkpt>
<trkpt lat="-27.271658" lon="151.2886221">
  <ele>391.41</ele>
  <time>2026-09-01T19:55:26Z</time>
  <course>253.13</course>
  <speed>19.76</speed>
  <fix>3d</fix>
</trkpt>
<trkpt lat="-27.2716727" lon="151.2885677">
  <ele>391.12</ele>
  <time>2026-09-01T19:55:26Z</time>
  <course>272.03</course>
  <speed>19.737033718368117</speed>
  <fix>3d</fix>
</trkpt>
<trkpt lat="-27.271658" lon="151.2886221">
  <ele>391.41</ele>
  <time>2026-09-01T19:55:26Z</time>
  <course>253.13</course>
  <speed>19.76</speed>
  <fix>3d</fix>
</trkpt>
<trkpt lat="-27.2716778" lon="151.2885487">
  <ele>391.06</ele>
  <time>2026-09-01T19:55:26Z</time>
  <course>272.08</course>
  <speed>19.734137934047183</speed>
  <fix>3d</fix>
</trkpt>
<trkpt lat="-27.2716683" lon="151.2885838">
  <ele>391.29</ele>
  <time>2026-09-01T19:55:26Z</time>
  <course>253.16</course>
  <speed>19.76</speed>
  <fix>3d</fix>
</trkpt>
<trkpt lat="-27.2716829" lon="151.2885297">
  <ele>390.99</ele>
  <time>2026-09-01T19:55:26Z</time>
  <course>272.16</course>
  <speed>19.731246792841045</speed>
  <fix>3d</fix>
</trkpt>
<trkpt lat="-27.2716683" lon="151.2885838">
  <ele>391.29</ele>
  <time>2026-09-01T19:55:26Z</time>
  <course>253.16</course>
  <speed>19.76</speed>
  <fix>3d</fix>
</trkpt>
<trkpt lat="-27.271688" lon="151.2885107">
  <ele>390.93</ele>
  <time>2026-09-01T19:55:26Z</time>
  <course>272.18</course>
  <speed>19.725478447936315</speed>
  <fix>3d</fix>
</trkpt>
<trkpt lat="-27.2716786" lon="151.2885456">
  <ele>391.16</ele>
  <time>2026-09-01T19:55:26Z</time>
  <course>253.19</course>
  <speed>19.76</speed>
  <fix>3d</fix>
</trkpt>
<trkpt lat="-27.271693" lon="151.2884916">
  <ele>390.86</ele>
  <time>2026-09-01T19:55:26Z</time>
  <course>272.13</course>
  <speed>19.722601248314078</speed>
  <fix>3d</fix>
</trkpt>
<trkpt lat="-27.2716786" lon="151.2885456">
  <ele>391.16</ele>
  <time>2026-09-01T19:55:26Z</time>
  <course>253.19</course>
  <speed>19.76</speed>
  <fix>3d</fix>
</trkpt>
<trkpt lat="-27.2716981" lon="151.2884726">
  <ele>390.79</ele>
  <time>2026-09-01T19:55:26Z</time>
  <course>272.11</course>
  <speed>19.719728699959337</speed>
  <fix>3d</fix>
</trkpt>
<trkpt lat="-27.2716889" lon="151.2885073">
  <ele>391.03</ele>
  <time>2026-09-01T19:55:26Z</time>
  <course>253.25</course>
  <speed>19.76</speed>
  <fix>3d</fix>
</trkpt>
<trkpt lat="-27.2717032" lon="151.2884535">
  <ele>390.72</ele>
  <time>2026-09-01T19:55:26Z</time>
  <course>272.11</course>
  <speed>19.716860804905025</speed>
  <fix>3d</fix>
</trkpt>
<trkpt lat="-27.2716889" lon="151.2885073">
  <ele>391.03</ele>
  <time>2026-09-01T19:55:26Z</time>
  <course>253.25</course>
  <speed>19.76</speed>
  <fix>3d</fix>
</trkpt>
<trkpt lat="-27.2717082" lon="151.2884345">
  <ele>390.65</ele>
  <time>2026-09-01T19:55:26Z</time>
  <course>272.07</course>
  <speed>19.713997565181952</speed>
  <fix>3d</fix>
</trkpt>
<trkpt lat="-27.2716991" lon="151.288469">
  <ele>390.89</ele>
  <time>2026-09-01T19:55:26Z</time>
  <course>253.31</course>
  <speed>19.76</speed>
  <fix>3d</fix>
</trkpt>
<trkpt lat="-27.2717133" lon="151.2884154">
  <ele>390.58</ele>
  <time>2026-09-01T19:55:26Z</time>
  <course>272.11</course>
  <speed>19.713997565181952</speed>
  <fix>3d</fix>
</trkpt>
<trkpt lat="-27.2716991" lon="151.288469">
  <ele>390.89</ele>
  <time>2026-09-01T19:55:26Z</time>
  <course>253.31</course>
  <speed>19.76</speed>
  <fix>3d</fix>
</trkpt>
<trkpt lat="-27.2717184" lon="151.2883963">
  <ele>390.51</ele>
  <time>2026-09-01T19:55:26Z</time>
  <course>272.12</course>
  <speed>19.711138982818827</speed>
  <fix>3d</fix>
</trkpt>
<trkpt lat="-27.2717093" lon="151.2884307">
  <ele>390.74</ele>
  <time>2026-09-01T19:55:26Z</time>
  <course>253.35</course>
  <speed>19.75</speed>
  <fix>3d</fix>
</trkpt>
<trkpt lat="-27.2717234" lon="151.2883772">
  <ele>390.44</ele>
  <time>2026-09-01T19:55:26Z</time>
  <course>272.14</course>
  <speed>19.711138982818827</speed>
  <fix>3d</fix>
</trkpt>
<trkpt lat="-27.2717093" lon="151.2884307">
  <ele>390.74</ele>
  <time>2026-09-01T19:55:26Z</time>
  <course>253.35</course>
  <speed>19.75</speed>
  <fix>3d</fix>
</trkpt>
<trkpt lat="-27.2717285" lon="151.2883581">
  <ele>390.36</ele>
  <time>2026-09-01T19:55:26Z</time>
  <course>272.19</course>
  <speed>19.717870067530114</speed>
  <fix>3d</fix>
</trkpt>
<trkpt lat="-27.2717195" lon="151.2883924">
  <ele>390.6</ele>
  <time>2026-09-01T19:55:26Z</time>
  <course>253.38</course>
  <speed>19.75</speed>
  <fix>3d</fix>
</trkpt>
<trkpt lat="-27.2717335" lon="151.2883392">
  <ele>390.29</ele>
  <time>2026-09-01T19:55:26Z</time>
  <course>272.2</course>
  <speed>19.717870067530114</speed>
  <fix>3d</fix>
</trkpt>
<trkpt lat="-27.2717195" lon="151.2883924">
  <ele>390.6</ele>
  <time>2026-09-01T19:55:26Z</time>
  <course>253.38</course>
  <speed>19.75</speed>
  <fix>3d</fix>
</trkpt>
<trkpt lat="-27.2717385" lon="151.2883202">
  <ele>390.22</ele>
  <time>2026-09-01T19:55:26Z</time>
  <course>272.2</course>
  <speed>19.71502219121247</speed>
  <fix>3d</fix>
</trkpt>
<trkpt lat="-27.2717296" lon="151.2883542">
  <ele>390.45</ele>
  <time>2026-09-01T19:55:26Z</time>
  <course>253.4</course>
  <speed>19.76</speed>
  <fix>3d</fix>
</trkpt>
<trkpt lat="-27.2717436" lon="151.2883012">
  <ele>390.14</ele>
  <time>2026-09-01T19:55:26Z</time>
  <course>272.17</course>
  <speed>19.705435798276575</speed>
  <fix>3d</fix>
</trkpt>
<trkpt lat="-27.2717296" lon="151.2883542">
  <ele>390.45</ele>
  <time>2026-09-01T19:55:26Z</time>
  <course>253.4</course>
  <speed>19.76</speed>
  <fix>3d</fix>
</trkpt>
<trkpt lat="-27.2717486" lon="151.2882822">
  <ele>390.06</ele>
  <time>2026-09-01T19:55:26Z</time>
  <course>272.15</course>
  <speed>19.70259120014421</speed>
  <fix>3d</fix>
</trkpt>
<trkpt lat="-27.2717397" lon="151.2883159">
  <ele>390.3</ele>
  <time>2026-09-01T19:55:26Z</time>
  <course>253.43</course>
  <speed>19.76</speed>
  <fix>3d</fix>
</trkpt>
<trkpt lat="-27.2717536" lon="151.2882632">
  <ele>389.98</ele>
  <time>2026-09-01T19:55:26Z</time>
  <course>272.1</course>
  <speed>19.70259120014421</speed>
  <fix>3d</fix>
</trkpt>
<trkpt lat="-27.2717397" lon="151.2883159">
  <ele>390.3</ele>
  <time>2026-09-01T19:55:26Z</time>
  <course>253.43</course>
  <speed>19.76</speed>
  <fix>3d</fix>
</trkpt>
<trkpt lat="-27.2717586" lon="151.2882441">
  <ele>389.9</ele>
  <time>2026-09-01T19:55:26Z</time>
  <course>272.11</course>
  <speed>19.70259120014421</speed>
  <fix>3d</fix>
</trkpt>
<trkpt lat="-27.2717498" lon="151.2882776">
  <ele>390.14</ele>
  <time>2026-09-01T19:55:26Z</time>
  <course>253.46</course>
  <speed>19.77</speed>
  <fix>3d</fix>
</trkpt>
<trkpt lat="-27.2717636" lon="151.2882251">
  <ele>389.82</ele>
  <time>2026-09-01T19:55:26Z</time>
  <course>272.08</course>
  <speed>19.70259120014421</speed>
  <fix>3d</fix>
</trkpt>
<trkpt lat="-27.2717498" lon="151.2882776">
  <ele>390.14</ele>
  <time>2026-09-01T19:55:26Z</time>
  <course>253.46</course>
  <speed>19.77</speed>
  <fix>3d</fix>
</trkpt>
<trkpt lat="-27.2717686" lon="151.2882062">
  <ele>389.75</ele>
  <time>2026-09-01T19:55:26Z</time>
  <course>272.07</course>
  <speed>19.70259120014421</speed>
  <fix>3d</fix>
</trkpt>
<trkpt lat="-27.2717599" lon="151.2882393">
  <ele>389.99</ele>
  <time>2026-09-01T19:55:26Z</time>
  <course>253.46</course>
  <speed>19.77</speed>
  <fix>3d</fix>
</trkpt>
<trkpt lat="-27.2717736" lon="151.2881872">
  <ele>389.67</ele>
  <time>2026-09-01T19:55:26Z</time>
  <course>272.06</course>
  <speed>19.70259120014421</speed>
  <fix>3d</fix>
</trkpt>
<trkpt lat="-27.2717599" lon="151.2882393">
  <ele>389.99</ele>
  <time>2026-09-01T19:55:26Z</time>
  <course>253.46</course>
  <speed>19.77</speed>
  <fix>3d</fix>
</trkpt>
<trkpt lat="-27.2717787" lon="151.2881681">
  <ele>389.59</ele>
  <time>2026-09-01T19:55:26Z</time>
  <course>272.05</course>
  <speed>19.70259120014421</speed>
  <fix>3d</fix>
</trkpt>
<trkpt lat="-27.27177" lon="151.288201">
  <ele>389.83</ele>
  <time>2026-09-01T19:55:26Z</time>
  <course>253.45</course>
  <speed>19.78</speed>
  <fix>3d</fix>
</trkpt>
<trkpt lat="-27.2717837" lon="151.2881489">
  <ele>389.51</ele>
  <time>2026-09-01T19:55:26Z</time>
  <course>272.05</course>
  <speed>19.705435798276575</speed>
  <fix>3d</fix>
</trkpt>
<trkpt lat="-27.27177" lon="151.288201">
  <ele>389.83</ele>
  <time>2026-09-01T19:55:26Z</time>
  <course>253.45</course>
  <speed>19.78</speed>
  <fix>3d</fix>
</trkpt>
<trkpt lat="-27.2717888" lon="151.2881298">
  <ele>389.43</ele>
  <time>2026-09-01T19:55:26Z</time>
  <course>272.07</course>
  <speed>19.717870067530114</speed>
  <fix>3d</fix>
</trkpt>
<trkpt lat="-27.2717802" lon="151.2881626">
  <ele>389.67</ele>
  <time>2026-09-01T19:55:26Z</time>
  <course>253.43</course>
  <speed>19.79</speed>
  <fix>3d</fix>
</trkpt>
<trkpt lat="-27.2717939" lon="151.2881106">
  <ele>389.35</ele>
  <time>2026-09-01T19:55:26Z</time>
  <course>272.07</course>
  <speed>19.730306637252244</speed>
  <fix>3d</fix>
</trkpt>
<trkpt lat="-27.2717802" lon="151.2881626">
  <ele>389.67</ele>
  <time>2026-09-01T19:55:26Z</time>
  <course>253.43</course>
  <speed>19.79</speed>
  <fix>3d</fix>
</trkpt>
<trkpt lat="-27.271799" lon="151.2880913">
  <ele>389.26</ele>
  <time>2026-09-01T19:55:26Z</time>
  <course>272.02</course>
  <speed>19.739891083792735</speed>
  <fix>3d</fix>
</trkpt>
<trkpt lat="-27.2717904" lon="151.2881242">
  <ele>389.51</ele>
  <time>2026-09-01T19:55:26Z</time>
  <course>253.4</course>
  <speed>19.8</speed>
  <fix>3d</fix>
</trkpt>
<trkpt lat="-27.2718041" lon="151.2880721">
  <ele>389.18</ele>
  <time>2026-09-01T19:55:26Z</time>
  <course>272.01</course>
  <speed>19.752328976604254</speed>
  <fix>3d</fix>
</trkpt>
<trkpt lat="-27.2717904" lon="151.2881242">
  <ele>389.51</ele>
  <time>2026-09-01T19:55:26Z</time>
  <course>253.4</course>
  <speed>19.8</speed>
  <fix>3d</fix>
</trkpt>
<trkpt lat="-27.2718092" lon="151.2880526">
  <ele>389.1</ele>
  <time>2026-09-01T19:55:26Z</time>
  <course>271.99</course>
  <speed>19.761912862878432</speed>
  <fix>3d</fix>
</trkpt>
<trkpt lat="-27.2718006" lon="151.2880857">
  <ele>389.34</ele>
  <time>2026-09-01T19:55:26Z</time>
  <course>253.38</course>
  <speed>19.82</speed>
  <fix>3d</fix>
</trkpt>
<trkpt lat="-27.2718143" lon="151.2880334">
  <ele>389.01</ele>
  <time>2026-09-01T19:55:26Z</time>
  <course>272.0</course>
  <speed>19.771497161317853</speed>
  <fix>3d</fix>
</trkpt>
<trkpt lat="-27.2718006" lon="151.2880857">
  <ele>389.34</ele>
  <time>2026-09-01T19:55:26Z</time>
  <course>253.38</course>
  <speed>19.82</speed>
  <fix>3d</fix>
</trkpt>
<trkpt lat="-27.2718194" lon="151.2880141">
  <ele>388.93</ele>
  <time>2026-09-01T19:55:26Z</time>
  <course>271.98</course>
  <speed>19.78108187132342</speed>
  <fix>3d</fix>
</trkpt>
<trkpt lat="-27.2718107" lon="151.2880473">
  <ele>389.19</ele>
  <time>2026-09-01T19:55:26Z</time>
  <course>253.38</course>
  <speed>19.83</speed>
  <fix>3d</fix>
</trkpt>
<trkpt lat="-27.2718246" lon="151.2879948">
  <ele>388.84</ele>
  <time>2026-09-01T19:55:26Z</time>
  <course>271.95</course>
  <speed>19.79066699229715</speed>
  <fix>3d</fix>
</trkpt>
<trkpt lat="-27.2718107" lon="151.2880473">
  <ele>389.19</ele>
  <time>2026-09-01T19:55:26Z</time>
  <course>253.38</course>
  <speed>19.83</speed>
  <fix>3d</fix>
</trkpt>
<trkpt lat="-27.2718297" lon="151.2879755">
  <ele>388.76</ele>
  <time>2026-09-01T19:55:26Z</time>
  <course>271.98</course>
  <speed>19.800252523642218</speed>
  <fix>3d</fix>
</trkpt>
<trkpt lat="-27.2718209" lon="151.288009">
  <ele>389.03</ele>
  <time>2026-09-01T19:55:26Z</time>
  <course>253.39</course>
  <speed>19.84</speed>
  <fix>3d</fix>
</trkpt>
<trkpt lat="-27.2718348" lon="151.2879562">
  <ele>388.68</ele>
  <time>2026-09-01T19:55:26Z</time>
  <course>272.0</course>
  <speed>19.797406395788315</speed>
  <fix>3d</fix>
</trkpt>
<trkpt lat="-27.2718209" lon="151.288009">
  <ele>389.03</ele>
  <time>2026-09-01T19:55:26Z</time>
  <course>253.39</course>
  <speed>19.84</speed>
  <fix>3d</fix>
</trkpt>
<trkpt lat="-27.2718398" lon="151.2879372">
  <ele>388.6</ele>
  <time>2026-09-01T19:55:26Z</time>
  <course>271.97</course>
  <speed>19.806993714342415</speed>
  <fix>3d</fix>
</trkpt>
<trkpt lat="-27.2718311" lon="151.2879706">
  <ele>388.87</ele>
  <time>2026-09-01T19:55:26Z</time>
  <course>253.42</course>
  <speed>19.84</speed>
  <fix>3d</fix>
</trkpt>
<trkpt lat="-27.2718448" lon="151.287918">
  <ele>388.52</ele>
  <time>2026-09-01T19:55:26Z</time>
  <course>271.97</course>
  <speed>19.804153604736555</speed>
  <fix>3d</fix>
</trkpt>
<trkpt lat="-27.2718311" lon="151.2879706">
  <ele>388.87</ele>
  <time>2026-09-01T19:55:26Z</time>
  <course>253.42</course>
  <speed>19.84</speed>
  <fix>3d</fix>
</trkpt>
<trkpt lat="-27.2718499" lon="151.2878989">
  <ele>388.43</ele>
  <time>2026-09-01T19:55:26Z</time>
  <course>271.92</course>
  <speed>19.801318137942232</speed>
  <fix>3d</fix>
</trkpt>
<trkpt lat="-27.2718412" lon="151.2879321">
  <ele>388.71</ele>
  <time>2026-09-01T19:55:26Z</time>
  <course>253.46</course>
  <speed>19.85</speed>
  <fix>3d</fix>
</trkpt>
<trkpt lat="-27.2718549" lon="151.2878797">
  <ele>388.36</ele>
  <time>2026-09-01T19:55:26Z</time>
  <course>271.95</course>
  <speed>19.801318137942232</speed>
  <fix>3d</fix>
</trkpt>
<trkpt lat="-27.2718412" lon="151.2879321">
  <ele>388.71</ele>
  <time>2026-09-01T19:55:26Z</time>
  <course>253.46</course>
  <speed>19.85</speed>
  <fix>3d</fix>
</trkpt>
<trkpt lat="-27.27186" lon="151.2878605">
  <ele>388.28</ele>
  <time>2026-09-01T19:55:26Z</time>
  <course>271.99</course>
  <speed>19.810908611166727</speed>
  <fix>3d</fix>
</trkpt>
<trkpt lat="-27.2718514" lon="151.2878936">
  <ele>388.55</ele>
  <time>2026-09-01T19:55:26Z</time>
  <course>253.48</course>
  <speed>19.86</speed>
  <fix>3d</fix>
</trkpt>
<trkpt lat="-27.271865" lon="151.2878413">
  <ele>388.2</ele>
  <time>2026-09-01T19:55:26Z</time>
  <course>271.99</course>
  <speed>19.808079159777204</speed>
  <fix>3d</fix>
</trkpt>
<trkpt lat="-27.2718514" lon="151.2878936">
  <ele>388.55</ele>
  <time>2026-09-01T19:55:26Z</time>
  <course>253.48</course>
  <speed>19.86</speed>
  <fix>3d</fix>
</trkpt>
<trkpt lat="-27.27187" lon="151.2878222">
  <ele>388.12</ele>
  <time>2026-09-01T19:55:26Z</time>
  <course>271.95</course>
  <speed>19.808079159777204</speed>
  <fix>3d</fix>
</trkpt>
<trkpt lat="-27.2718615" lon="151.2878552">
  <ele>388.4</ele>
  <time>2026-09-01T19:55:26Z</time>
  <course>253.51</course>
  <speed>19.86</speed>
  <fix>3d</fix>
</trkpt>
<trkpt lat="-27.2718751" lon="151.2878031">
  <ele>388.03</ele>
  <time>2026-09-01T19:55:26Z</time>
  <course>271.94</course>
  <speed>19.808079159777204</speed>
  <fix>3d</fix>
</trkpt>
<trkpt lat="-27.2718615" lon="151.2878552">
  <ele>388.4</ele>
  <time>2026-09-01T19:55:26Z</time>
  <course>253.51</course>
  <speed>19.86</speed>
  <fix>3d</fix>
</trkpt>
<trkpt lat="-27.2718801" lon="151.2877839">
  <ele>387.95</ele>
  <time>2026-09-01T19:55:26Z</time>
  <course>271.92</course>
  <speed>19.808079159777204</speed>
  <fix>3d</fix>
</trkpt>
<trkpt lat="-27.2718716" lon="151.2878167">
  <ele>388.24</ele>
  <time>2026-09-01T19:55:26Z</time>
  <course>253.52</course>
  <speed>19.87</speed>
  <fix>3d</fix>
</trkpt>
<trkpt lat="-27.2718851" lon="151.2877648">
  <ele>387.86</ele>
  <time>2026-09-01T19:55:26Z</time>
  <course>271.94</course>
  <speed>19.814847968127335</speed>
  <fix>3d</fix>
</trkpt>
<trkpt lat="-27.2718716" lon="151.2878167">
  <ele>388.24</ele>
  <time>2026-09-01T19:55:26Z</time>
  <course>253.52</course>
  <speed>19.87</speed>
  <fix>3d</fix>
</trkpt>
<trkpt lat="-27.2718902" lon="151.2877455">
  <ele>387.78</ele>
  <time>2026-09-01T19:55:26Z</time>
  <course>271.94</course>
  <speed>19.82444198458055</speed>
  <fix>3d</fix>
</trkpt>
<trkpt lat="-27.2718818" lon="151.2877781">
  <ele>388.07</ele>
  <time>2026-09-01T19:55:26Z</time>
  <course>253.53</course>
  <speed>19.89</speed>
  <fix>3d</fix>
</trkpt>
<trkpt lat="-27.2718952" lon="151.2877262">
  <ele>387.7</ele>
  <time>2026-09-01T19:55:26Z</time>
  <course>271.96</course>
  <speed>19.83403640210434</speed>
  <fix>3d</fix>
</trkpt>
<trkpt lat="-27.2718818" lon="151.2877781">
  <ele>388.07</ele>
  <time>2026-09-01T19:55:26Z</time>
  <course>253.53</course>
  <speed>19.89</speed>
  <fix>3d</fix>
</trkpt>
<trkpt lat="-27.2719003" lon="151.2877068">
  <ele>387.61</ele>
  <time>2026-09-01T19:55:26Z</time>
  <course>271.9</course>
  <speed>19.843631220116947</speed>
  <fix>3d</fix>
</trkpt>
<trkpt lat="-27.2718919" lon="151.2877396">
  <ele>387.9</ele>
  <time>2026-09-01T19:55:26Z</time>
  <course>253.55</course>
  <speed>19.9</speed>
  <fix>3d</fix>
</trkpt>
<trkpt lat="-27.2719054" lon="151.2876875">
  <ele>387.53</ele>
  <time>2026-09-01T19:55:26Z</time>
  <course>271.82</course>
  <speed>19.85041309393837</speed>
  <fix>3d</fix>
</trkpt>
<trkpt lat="-27.2718919" lon="151.2877396">
  <ele>387.9</ele>
  <time>2026-09-01T19:55:26Z</time>
  <course>253.55</course>
  <speed>19.9</speed>
  <fix>3d</fix>
</trkpt>
<trkpt lat="-27.2719104" lon="151.2876681">
  <ele>387.45</ele>
  <time>2026-09-01T19:55:26Z</time>
  <course>271.84</course>
  <speed>19.872418071286646</speed>
  <fix>3d</fix>
</trkpt>
<trkpt lat="-27.271902" lon="151.2877009">
  <ele>387.74</ele>
  <time>2026-09-01T19:55:27Z</time>
  <course>253.58</course>
  <speed>19.91</speed>
  <fix>3d</fix>
</trkpt>
<trkpt lat="-27.2719155" lon="151.2876486">
  <ele>387.36</ele>
  <time>2026-09-01T19:55:27Z</time>
  <course>271.86</course>
  <speed>19.882014485458964</speed>
  <fix>3d</fix>
</trkpt>
<trkpt lat="-27.271902" lon="151.2877009">
  <ele>387.74</ele>
  <time>2026-09-01T19:55:27Z</time>
  <course>253.58</course>
  <speed>19.91</speed>
  <fix>3d</fix>
</trkpt>
<trkpt lat="-27.2719206" lon="151.2876292">
  <ele>387.28</ele>
  <time>2026-09-01T19:55:27Z</time>
  <course>271.89</course>
  <speed>19.891611297227783</speed>
  <fix>3d</fix>
</trkpt>
<trkpt lat="-27.2719121" lon="151.2876622">
  <ele>387.57</ele>
  <time>2026-09-01T19:55:27Z</time>
  <course>253.59</course>
  <speed>19.92</speed>
  <fix>3d</fix>
</trkpt>
<trkpt lat="-27.2719257" lon="151.2876098">
  <ele>387.19</ele>
  <time>2026-09-01T19:55:27Z</time>
  <course>271.89</course>
  <speed>19.90120850601792</speed>
  <fix>3d</fix>
</trkpt>
<trkpt lat="-27.2719121" lon="151.2876622">
  <ele>387.57</ele>
  <time>2026-09-01T19:55:27Z</time>
  <course>253.59</course>
  <speed>19.92</speed>
  <fix>3d</fix>
</trkpt>
<trkpt lat="-27.2719307" lon="151.2875903">
  <ele>387.11</ele>
  <time>2026-09-01T19:55:27Z</time>
  <course>271.93</course>
  <speed>19.910806111255265</speed>
  <fix>3d</fix>
</trkpt>
<trkpt lat="-27.2719222" lon="151.2876236">
  <ele>387.4</ele>
  <time>2026-09-01T19:55:27Z</time>
  <course>253.6</course>
  <speed>19.93</speed>
  <fix>3d</fix>
</trkpt>
<trkpt lat="-27.2719358" lon="151.2875709">
  <ele>387.02</ele>
  <time>2026-09-01T19:55:27Z</time>
  <course>271.93</course>
  <speed>19.920404112366796</speed>
  <fix>3d</fix>
</trkpt>
<trkpt lat="-27.2719222" lon="151.2876236">
  <ele>387.4</ele>
  <time>2026-09-01T19:55:27Z</time>
  <course>253.6</course>
  <speed>19.93</speed>
  <fix>3d</fix>
</trkpt>
<trkpt lat="-27.2719409" lon="151.2875514">
  <ele>386.94</ele>
  <time>2026-09-01T19:55:27Z</time>
  <course>271.87</course>
  <speed>19.939601299925734</speed>
  <fix>3d</fix>
</trkpt>
<trkpt lat="-27.2719323" lon="151.2875849">
  <ele>387.23</ele>
  <time>2026-09-01T19:55:27Z</time>
  <course>253.61</course>
  <speed>19.95</speed>
  <fix>3d</fix>
</trkpt>
<trkpt lat="-27.271946" lon="151.287532">
  <ele>386.86</ele>
  <time>2026-09-01T19:55:27Z</time>
  <course>271.81</course>
  <speed>19.939601299925734</speed>
  <fix>3d</fix>
</trkpt>
<trkpt lat="-27.2719323" lon="151.2875849">
  <ele>387.23</ele>
  <time>2026-09-01T19:55:27Z</time>
  <course>253.61</course>
  <speed>19.95</speed>
  <fix>3d</fix>
</trkpt>
<trkpt lat="-27.271951" lon="151.2875125">
  <ele>386.78</ele>
  <time>2026-09-01T19:55:27Z</time>
  <course>271.76</course>
  <speed>19.949200485232485</speed>
  <fix>3d</fix>
</trkpt>
<trkpt lat="-27.2719424" lon="151.2875462">
  <ele>387.07</ele>
  <time>2026-09-01T19:55:27Z</time>
  <course>253.63</course>
  <speed>19.95</speed>
  <fix>3d</fix>
</trkpt>
<trkpt lat="-27.2719561" lon="151.287493">
  <ele>386.7</ele>
  <time>2026-09-01T19:55:27Z</time>
  <course>271.74</course>
  <speed>19.958800064132113</speed>
  <fix>3d</fix>
</trkpt>
<trkpt lat="-27.2719424" lon="151.2875462">
  <ele>387.07</ele>
  <time>2026-09-01T19:55:27Z</time>
  <course>253.63</course>
  <speed>19.95</speed>
  <fix>3d</fix>
</trkpt>
<trkpt lat="-27.2719611" lon="151.2874737">
  <ele>386.62</ele>
  <time>2026-09-01T19:55:27Z</time>
  <course>271.79</course>
  <speed>19.958800064132113</speed>
  <fix>3d</fix>
</trkpt>
<trkpt lat="-27.2719525" lon="151.2875075">
  <ele>386.9</ele>
  <time>2026-09-01T19:55:27Z</time>
  <course>253.63</course>
  <speed>19.96</speed>
  <fix>3d</fix>
</trkpt>
<trkpt lat="-27.2719662" lon="151.2874542">
  <ele>386.54</ele>
  <time>2026-09-01T19:55:27Z</time>
  <course>271.82</course>
  <speed>19.958800064132113</speed>
  <fix>3d</fix>
</trkpt>
<trkpt lat="-27.2719525" lon="151.2875075">
  <ele>386.9</ele>
  <time>2026-09-01T19:55:27Z</time>
  <course>253.63</course>
  <speed>19.96</speed>
  <fix>3d</fix>
</trkpt>
<trkpt lat="-27.2719712" lon="151.2874349">
  <ele>386.46</ele>
  <time>2026-09-01T19:55:27Z</time>
  <course>271.81</course>
  <speed>19.96840003605697</speed>
  <fix>3d</fix>
</trkpt>
<trkpt lat="-27.2719627" lon="151.2874688">
  <ele>386.75</ele>
  <time>2026-09-01T19:55:27Z</time>
  <course>253.63</course>
  <speed>19.97</speed>
  <fix>3d</fix>
</trkpt>
<trkpt lat="-27.2719763" lon="151.2874156">
  <ele>386.38</ele>
  <time>2026-09-01T19:55:27Z</time>
  <course>271.77</course>
  <speed>19.96840003605697</speed>
  <fix>3d</fix>
</trkpt>
<trkpt lat="-27.2719627" lon="151.2874688">
  <ele>386.75</ele>
  <time>2026-09-01T19:55:27Z</time>
  <course>253.63</course>
  <speed>19.97</speed>
  <fix>3d</fix>
</trkpt>
<trkpt lat="-27.2719813" lon="151.2873963">
  <ele>386.3</ele>
  <time>2026-09-01T19:55:27Z</time>
  <course>271.74</course>
  <speed>19.96840003605697</speed>
  <fix>3d</fix>
</trkpt>
<trkpt lat="-27.2719728" lon="151.2874301">
  <ele>386.59</ele>
  <time>2026-09-01T19:55:27Z</time>
  <course>253.64</course>
  <speed>19.98</speed>
  <fix>3d</fix>
</trkpt>
<trkpt lat="-27.2719863" lon="151.2873771">
  <ele>386.22</ele>
  <time>2026-09-01T19:55:27Z</time>
  <course>271.74</course>
  <speed>19.96840003605697</speed>
  <fix>3d</fix>
</trkpt>
<trkpt lat="-27.2719728" lon="151.2874301">
  <ele>386.59</ele>
  <time>2026-09-01T19:55:27Z</time>
  <course>253.64</course>
  <speed>19.98</speed>
  <fix>3d</fix>
</trkpt>
<trkpt lat="-27.2719913" lon="151.2873577">
  <ele>386.14</ele>
  <time>2026-09-01T19:55:27Z</time>
  <course>271.82</course>
  <speed>19.965602921023947</speed>
  <fix>3d</fix>
</trkpt>
<trkpt lat="-27.2719829" lon="151.2873914">
  <ele>386.43</ele>
  <time>2026-09-01T19:55:27Z</time>
  <course>253.65</course>
  <speed>19.98</speed>
  <fix>3d</fix>
</trkpt>
<trkpt lat="-27.2719964" lon="151.2873383">
  <ele>386.06</ele>
  <time>2026-09-01T19:55:27Z</time>
  <course>271.82</course>
  <speed>19.965602921023947</speed>
  <fix>3d</fix>
</trkpt>
<trkpt lat="-27.2719829" lon="151.2873914">
  <ele>386.43</ele>
  <time>2026-09-01T19:55:27Z</time>
  <course>253.65</course>
  <speed>19.98</speed>
  <fix>3d</fix>
</trkpt>
<trkpt lat="-27.2720015" lon="151.2873189">
  <ele>385.97</ele>
  <time>2026-09-01T19:55:27Z</time>
  <course>271.79</course>
  <speed>19.965602921023947</speed>
  <fix>3d</fix>
</trkpt>
<trkpt lat="-27.271993" lon="151.2873526">
  <ele>386.26</ele>
  <time>2026-09-01T19:55:27Z</time>
  <course>253.66</course>
  <speed>19.99</speed>
  <fix>3d</fix>
</trkpt>
<trkpt lat="-27.2720065" lon="151.2872995">
  <ele>385.89</ele>
  <time>2026-09-01T19:55:27Z</time>
  <course>271.72</course>
  <speed>19.975204629740343</speed>
  <fix>3d</fix>
</trkpt>
<trkpt lat="-27.271993" lon="151.2873526">
  <ele>386.26</ele>
  <time>2026-09-01T19:55:27Z</time>
  <course>253.66</course>
  <speed>19.99</speed>
  <fix>3d</fix>
</trkpt>
<trkpt lat="-27.2720116" lon="151.28728">
  <ele>385.8</ele>
  <time>2026-09-01T19:55:27Z</time>
  <course>271.65</course>
  <speed>19.984806729112993</speed>
  <fix>3d</fix>
</trkpt>
<trkpt lat="-27.2720031" lon="151.2873137">
  <ele>386.09</ele>
  <time>2026-09-01T19:55:27Z</time>
  <course>253.68</course>
  <speed>19.99</speed>
  <fix>3d</fix>
</trkpt>
<trkpt lat="-27.2720166" lon="151.2872606">
  <ele>385.72</ele>
  <time>2026-09-01T19:55:27Z</time>
  <course>271.6</course>
  <speed>19.98760115671713</speed>
  <fix>3d</fix>
</trkpt>
<trkpt lat="-27.2720031" lon="151.2873137">
  <ele>386.09</ele>
  <time>2026-09-01T19:55:27Z</time>
  <course>253.68</course>
  <speed>19.99</speed>
  <fix>3d</fix>
</trkpt>
<trkpt lat="-27.2720217" lon="151.2872411">
  <ele>385.63</ele>
  <time>2026-09-01T19:55:27Z</time>
  <course>271.62</course>
  <speed>20.009600195905964</speed>
  <fix>3d</fix>
</trkpt>
<trkpt lat="-27.2720132" lon="151.2872749">
  <ele>385.93</ele>
  <time>2026-09-01T19:55:27Z</time>
  <course>253.68</course>
  <speed>20.0</speed>
  <fix>3d</fix>
</trkpt>
<trkpt lat="-27.2720268" lon="151.2872216">
  <ele>385.55</ele>
  <time>2026-09-01T19:55:27Z</time>
  <course>271.61</course>
  <speed>20.019200783248067</speed>
  <fix>3d</fix>
</trkpt>
<trkpt lat="-27.2720132" lon="151.2872749">
  <ele>385.93</ele>
  <time>2026-09-01T19:55:27Z</time>
  <course>253.68</course>
  <speed>20.0</speed>
  <fix>3d</fix>
</trkpt>
<trkpt lat="-27.2720319" lon="151.2872021">
  <ele>385.46</ele>
  <time>2026-09-01T19:55:27Z</time>
  <course>271.62</course>
  <speed>20.03160003594321</speed>
  <fix>3d</fix>
</trkpt>
<trkpt lat="-27.2720233" lon="151.287236">
  <ele>385.76</ele>
  <time>2026-09-01T19:55:27Z</time>
  <course>253.66</course>
  <speed>20.02</speed>
  <fix>3d</fix>
</trkpt>
<trkpt lat="-27.272037" lon="151.2871826">
  <ele>385.37</ele>
  <time>2026-09-01T19:55:27Z</time>
  <course>271.62</course>
  <speed>20.04120006386843</speed>
  <fix>3d</fix>
</trkpt>
<trkpt lat="-27.2720233" lon="151.287236">
  <ele>385.76</ele>
  <time>2026-09-01T19:55:27Z</time>
  <course>253.66</course>
  <speed>20.02</speed>
  <fix>3d</fix>
</trkpt>
<trkpt lat="-27.2720421" lon="151.287163">
  <ele>385.29</ele>
  <time>2026-09-01T19:55:27Z</time>
  <course>271.6</course>
  <speed>20.04400159648766</speed>
  <fix>3d</fix>
</trkpt>
<trkpt lat="-27.2720334" lon="151.2871972">
  <ele>385.59</ele>
  <time>2026-09-01T19:55:27Z</time>
  <course>253.65</course>
  <speed>20.03</speed>
  <fix>3d</fix>
</trkpt>
<trkpt lat="-27.2720471" lon="151.2871435">
  <ele>385.2</ele>
  <time>2026-09-01T19:55:27Z</time>
  <course>271.61</course>
  <speed>20.053600674193152</speed>
  <fix>3d</fix>
</trkpt>
<trkpt lat="-27.2720334" lon="151.2871972">
  <ele>385.59</ele>
  <time>2026-09-01T19:55:27Z</time>
  <course>253.65</course>
  <speed>20.03</speed>
  <fix>3d</fix>
</trkpt>
<trkpt lat="-27.2720522" lon="151.287124">
  <ele>385.12</ele>
  <time>2026-09-01T19:55:27Z</time>
  <course>271.55</course>
  <speed>20.063200143546393</speed>
  <fix>3d</fix>
</trkpt>
<trkpt lat="-27.2720435" lon="151.2871584">
  <ele>385.41</ele>
  <time>2026-09-01T19:55:27Z</time>
  <course>253.64</course>
  <speed>20.04</speed>
  <fix>3d</fix>
</trkpt>
<trkpt lat="-27.2720573" lon="151.2871045">
  <ele>385.03</ele>
  <time>2026-09-01T19:55:27Z</time>
  <course>271.51</course>
  <speed>20.075602108031532</speed>
  <fix>3d</fix>
</trkpt>
<trkpt lat="-27.2720435" lon="151.2871584">
  <ele>385.41</ele>
  <time>2026-09-01T19:55:27Z</time>
  <course>253.64</course>
  <speed>20.04</speed>
  <fix>3d</fix>
</trkpt>
<trkpt lat="-27.2720624" lon="151.287085">
  <ele>384.94</ele>
  <time>2026-09-01T19:55:27Z</time>
  <course>271.49</course>
  <speed>20.08520101965624</speed>
  <fix>3d</fix>
</trkpt>
<trkpt lat="-27.2720537" lon="151.2871195">
  <ele>385.24</ele>
  <time>2026-09-01T19:55:27Z</time>
  <course>253.63</course>
  <speed>20.06</speed>
  <fix>3d</fix>
</trkpt>
<trkpt lat="-27.2720675" lon="151.2870654">
  <ele>384.86</ele>
  <time>2026-09-01T19:55:27Z</time>
  <course>271.5</course>
  <speed>20.09480032247148</speed>
  <fix>3d</fix>
</trkpt>
<trkpt lat="-27.2720537" lon="151.2871195">
  <ele>385.24</ele>
  <time>2026-09-01T19:55:27Z</time>
  <course>253.63</course>
  <speed>20.06</speed>
  <fix>3d</fix>
</trkpt>
<trkpt lat="-27.2720725" lon="151.2870462">
  <ele>384.77</ele>
  <time>2026-09-01T19:55:27Z</time>
  <course>271.5</course>
  <speed>20.10720268958365</speed>
  <fix>3d</fix>
</trkpt>
<trkpt lat="-27.2720639" lon="151.2870806">
  <ele>385.07</ele>
  <time>2026-09-01T19:55:27Z</time>
  <course>253.63</course>
  <speed>20.07</speed>
  <fix>3d</fix>
</trkpt>
<trkpt lat="-27.2720776" lon="151.2870267">
  <ele>384.68</ele>
  <time>2026-09-01T19:55:27Z</time>
  <course>271.49</course>
  <speed>20.104400015916912</speed>
  <fix>3d</fix>
</trkpt>
<trkpt lat="-27.2720639" lon="151.2870806">
  <ele>385.07</ele>
  <time>2026-09-01T19:55:27Z</time>
  <course>253.63</course>
  <speed>20.07</speed>
  <fix>3d</fix>
</trkpt>
<trkpt lat="-27.2720827" lon="151.2870073">
  <ele>384.59</ele>
  <time>2026-09-01T19:55:27Z</time>
  <course>271.46</course>
  <speed>20.104400015916912</speed>
  <fix>3d</fix>
</trkpt>
<trkpt lat="-27.272074" lon="151.2870416">
  <ele>384.9</ele>
  <time>2026-09-01T19:55:27Z</time>
  <course>253.63</course>
  <speed>20.09</speed>
  <fix>3d</fix>
</trkpt>
<trkpt lat="-27.2720878" lon="151.2869876">
  <ele>384.5</ele>
  <time>2026-09-01T19:55:27Z</time>
  <course>271.43</course>
  <speed>20.104400015916912</speed>
  <fix>3d</fix>
</trkpt>
<trkpt lat="-27.272074" lon="151.2870416">
  <ele>384.9</ele>
  <time>2026-09-01T19:55:27Z</time>
  <course>253.63</course>
  <speed>20.09</speed>
  <fix>3d</fix>
</trkpt>
<trkpt lat="-27.2720929" lon="151.2869683">
  <ele>384.41</ele>
  <time>2026-09-01T19:55:27Z</time>
  <course>271.38</course>
  <speed>20.11400009943323</speed>
  <fix>3d</fix>
</trkpt>
<trkpt lat="-27.2720842" lon="151.2870026">
  <ele>384.72</ele>
  <time>2026-09-01T19:55:27Z</time>
  <course>253.63</course>
  <speed>20.11</speed>
  <fix>3d</fix>
</trkpt>
<trkpt lat="-27.2720979" lon="151.2869489">
  <ele>384.32</ele>
  <time>2026-09-01T19:55:27Z</time>
  <course>271.35</course>
  <speed>20.11680143561595</speed>
  <fix>3d</fix>
</trkpt>
<trkpt lat="-27.2720842" lon="151.2870026">
  <ele>384.72</ele>
  <time>2026-09-01T19:55:27Z</time>
  <course>253.63</course>
  <speed>20.11</speed>
  <fix>3d</fix>
</trkpt>
<trkpt lat="-27.272103" lon="151.2869294">
  <ele>384.22</ele>
  <time>2026-09-01T19:55:27Z</time>
  <course>271.36</course>
  <speed>20.126400572382533</speed>
  <fix>3d</fix>
</trkpt>
<trkpt lat="-27.2720944" lon="151.2869637">
  <ele>384.54</ele>
  <time>2026-09-01T19:55:27Z</time>
  <course>253.63</course>
  <speed>20.12</speed>
  <fix>3d</fix>
</trkpt>
<trkpt lat="-27.2721081" lon="151.2869099">
  <ele>384.13</ele>
  <time>2026-09-01T19:55:27Z</time>
  <course>271.35</course>
  <speed>20.126400572382533</speed>
  <fix>3d</fix>
</trkpt>
<trkpt lat="-27.2720944" lon="151.2869637">
  <ele>384.54</ele>
  <time>2026-09-01T19:55:27Z</time>
  <course>253.63</course>
  <speed>20.12</speed>
  <fix>3d</fix>
</trkpt>
<trkpt lat="-27.2721132" lon="151.2868903">
  <ele>384.04</ele>
  <time>2026-09-01T19:55:27Z</time>
  <course>271.35</course>
  <speed>20.148401921740593</speed>
  <fix>3d</fix>
</trkpt>
<trkpt lat="-27.2721046" lon="151.2869246">
  <ele>384.36</ele>
  <time>2026-09-01T19:55:27Z</time>
  <course>253.63</course>
  <speed>20.14</speed>
  <fix>3d</fix>
</trkpt>
<trkpt lat="-27.2721184" lon="151.2868707">
  <ele>383.95</ele>
  <time>2026-09-01T19:55:27Z</time>
  <course>271.3</course>
  <speed>20.148401921740593</speed>
  <fix>3d</fix>
</trkpt>
<trkpt lat="-27.2721046" lon="151.2869246">
  <ele>384.36</ele>
  <time>2026-09-01T19:55:27Z</time>
  <course>253.63</course>
  <speed>20.14</speed>
  <fix>3d</fix>
</trkpt>
<trkpt lat="-27.2721235" lon="151.286851">
  <ele>383.86</ele>
  <time>2026-09-01T19:55:27Z</time>
  <course>271.24</course>
  <speed>20.167600253872546</speed>
  <fix>3d</fix>
</trkpt>
<trkpt lat="-27.2721148" lon="151.2868854">
  <ele>384.17</ele>
  <time>2026-09-01T19:55:27Z</time>
  <course>253.64</course>
  <speed>20.16</speed>
  <fix>3d</fix>
</trkpt>
<trkpt lat="-27.2721286" lon="151.2868314">
  <ele>383.76</ele>
  <time>2026-09-01T19:55:27Z</time>
  <course>271.22</course>
  <speed>20.17040406139649</speed>
  <fix>3d</fix>
</trkpt>
<trkpt lat="-27.2721148" lon="151.2868854">
  <ele>384.17</ele>
  <time>2026-09-01T19:55:27Z</time>
  <course>253.64</course>
  <speed>20.16</speed>
  <fix>3d</fix>
</trkpt>
<trkpt lat="-27.2721337" lon="151.2868117">
  <ele>383.67</ele>
  <time>2026-09-01T19:55:27Z</time>
  <course>271.31</course>
  <speed>20.189601283829255</speed>
  <fix>3d</fix>
</trkpt>
<trkpt lat="-27.272125" lon="151.2868462">
  <ele>383.99</ele>
  <time>2026-09-01T19:55:27Z</time>
  <course>253.64</course>
  <speed>20.17</speed>
  <fix>3d</fix>
</trkpt>
<trkpt lat="-27.2721389" lon="151.286792">
  <ele>383.58</ele>
  <time>2026-09-01T19:55:27Z</time>
  <course>271.35</course>
  <speed>20.199200479226896</speed>
  <fix>3d</fix>
</trkpt>
<trkpt lat="-27.272125" lon="151.2868462">
  <ele>383.99</ele>
  <time>2026-09-01T19:55:27Z</time>
  <course>253.64</course>
  <speed>20.17</speed>
  <fix>3d</fix>
</trkpt>
<trkpt lat="-27.272144" lon="151.2867724">
  <ele>383.5</ele>
  <time>2026-09-01T19:55:27Z</time>
  <course>271.28</course>
  <speed>20.199200479226896</speed>
  <fix>3d</fix>
</trkpt>
<trkpt lat="-27.2721352" lon="151.2868071">
  <ele>383.81</ele>
  <time>2026-09-01T19:55:27Z</time>
  <course>253.64</course>
  <speed>20.19</speed>
  <fix>3d</fix>
</trkpt>
<trkpt lat="-27.2721491" lon="151.2867528">
  <ele>383.41</ele>
  <time>2026-09-01T19:55:27Z</time>
  <course>271.16</course>
  <speed>20.208800063338742</speed>
  <fix>3d</fix>
</trkpt>
<trkpt lat="-27.2721352" lon="151.2868071">
  <ele>383.81</ele>
  <time>2026-09-01T19:55:27Z</time>
  <course>253.64</course>
  <speed>20.19</speed>
  <fix>3d</fix>
</trkpt>
<trkpt lat="-27.2721542" lon="151.2867333">
  <ele>383.32</ele>
  <time>2026-09-01T19:55:27Z</time>
  <course>271.13</course>
  <speed>20.221201744703503</speed>
  <fix>3d</fix>
</trkpt>
<trkpt lat="-27.2721455" lon="151.286768">
  <ele>383.63</ele>
  <time>2026-09-01T19:55:27Z</time>
  <course>253.64</course>
  <speed>20.21</speed>
  <fix>3d</fix>
</trkpt>
<trkpt lat="-27.2721593" lon="151.2867137">
  <ele>383.23</ele>
  <time>2026-09-01T19:55:27Z</time>
  <course>271.11</course>
  <speed>20.221201744703503</speed>
  <fix>3d</fix>
</trkpt>
<trkpt lat="-27.2721455" lon="151.286768">
  <ele>383.63</ele>
  <time>2026-09-01T19:55:27Z</time>
  <course>253.64</course>
  <speed>20.21</speed>
  <fix>3d</fix>
</trkpt>
<trkpt lat="-27.2721644" lon="151.2866942">
  <ele>383.14</ele>
  <time>2026-09-01T19:55:27Z</time>
  <course>271.12</course>
  <speed>20.224008010283224</speed>
  <fix>3d</fix>
</trkpt>
<trkpt lat="-27.2721557" lon="151.2867288">
  <ele>383.46</ele>
  <time>2026-09-01T19:55:27Z</time>
  <course>253.63</course>
  <speed>20.22</speed>
  <fix>3d</fix>
</trkpt>
<trkpt lat="-27.2721695" lon="151.2866746">
  <ele>383.04</ele>
  <time>2026-09-01T19:55:27Z</time>
  <course>271.11</course>
  <speed>20.23080077505584</speed>
  <fix>3d</fix>
</trkpt>
<trkpt lat="-27.2721557" lon="151.2867288">
  <ele>383.46</ele>
  <time>2026-09-01T19:55:27Z</time>
  <course>253.63</course>
  <speed>20.22</speed>
  <fix>3d</fix>
</trkpt>
<trkpt lat="-27.2721747" lon="151.286655">
  <ele>382.95</ele>
  <time>2026-09-01T19:55:27Z</time>
  <course>271.12</course>
  <speed>20.243203797818172</speed>
  <fix>3d</fix>
</trkpt>
<trkpt lat="-27.2721659" lon="151.2866895">
  <ele>383.28</ele>
  <time>2026-09-01T19:55:27Z</time>
  <course>253.62</course>
  <speed>20.24</speed>
  <fix>3d</fix>
</trkpt>
<trkpt lat="-27.2721798" lon="151.2866354">
  <ele>382.87</ele>
  <time>2026-09-01T19:55:27Z</time>
  <course>271.13</course>
  <speed>20.25</speed>
  <fix>3d</fix>
</trkpt>
<trkpt lat="-27.2721659" lon="151.2866895">
  <ele>383.28</ele>
  <time>2026-09-01T19:55:27Z</time>
  <course>253.62</course>
  <speed>20.24</speed>
  <fix>3d</fix>
</trkpt>
<trkpt lat="-27.2721849" lon="151.2866157">
  <ele>382.78</ele>
  <time>2026-09-01T19:55:27Z</time>
  <course>271.15</course>
  <speed>20.259600193488517</speed>
  <fix>3d</fix>
</trkpt>
<trkpt lat="-27.2721761" lon="151.2866503">
  <ele>383.1</ele>
  <time>2026-09-01T19:55:27Z</time>
  <course>253.63</course>
  <speed>20.25</speed>
  <fix>3d</fix>
</trkpt>
<trkpt lat="-27.2721901" lon="151.2865959">
  <ele>382.69</ele>
  <time>2026-09-01T19:55:27Z</time>
  <course>271.1</course>
  <speed>20.269200773587496</speed>
  <fix>3d</fix>
</trkpt>
<trkpt lat="-27.2721761" lon="151.2866503">
  <ele>383.1</ele>
  <time>2026-09-01T19:55:27Z</time>
  <course>253.63</course>
  <speed>20.25</speed>
  <fix>3d</fix>
</trkpt>
<trkpt lat="-27.2721952" lon="151.2865761">
  <ele>382.6</ele>
  <time>2026-09-01T19:55:27Z</time>
  <course>271.07</course>
  <speed>20.28160003550016</speed>
  <fix>3d</fix>
</trkpt>
<trkpt lat="-27.2721864" lon="151.286611">
  <ele>382.91</ele>
  <time>2026-09-01T19:55:27Z</time>
  <course>253.65</course>
  <speed>20.27</speed>
  <fix>3d</fix>
</trkpt>
<trkpt lat="-27.2722004" lon="151.2865562">
  <ele>382.51</ele>
  <time>2026-09-01T19:55:27Z</time>
  <course>271.08</course>
  <speed>20.288403091421465</speed>
  <fix>3d</fix>
</trkpt>
<trkpt lat="-27.2721864" lon="151.286611">
  <ele>382.91</ele>
  <time>2026-09-01T19:55:27Z</time>
  <course>253.65</course>
  <speed>20.27</speed>
  <fix>3d</fix>
</trkpt>
<trkpt lat="-27.2722056" lon="151.2865364">
  <ele>382.42</ele>
  <time>2026-09-01T19:55:27Z</time>
  <course>271.09</course>
  <speed>20.298004828061302</speed>
  <fix>3d</fix>
</trkpt>
<trkpt lat="-27.2721967" lon="151.2865717">
  <ele>382.74</ele>
  <time>2026-09-01T19:55:27Z</time>
  <course>253.67</course>
  <speed>20.28</speed>
  <fix>3d</fix>
</trkpt>
<trkpt lat="-27.2722107" lon="151.2865166">
  <ele>382.33</ele>
  <time>2026-09-01T19:55:27Z</time>
  <course>271.09</course>
  <speed>20.298004828061302</speed>
  <fix>3d</fix>
</trkpt>
<trkpt lat="-27.2721967" lon="151.2865717">
  <ele>382.74</ele>
  <time>2026-09-01T19:55:27Z</time>
  <course>253.67</course>
  <speed>20.28</speed>
  <fix>3d</fix>
</trkpt>
<trkpt lat="-27.2722159" lon="151.2864967">
  <ele>382.24</ele>
  <time>2026-09-01T19:55:27Z</time>
  <course>271.09</course>
  <speed>20.307606949121308</speed>
  <fix>3d</fix>
</trkpt>
<trkpt lat="-27.2722069" lon="151.2865323">
  <ele>382.57</ele>
  <time>2026-09-01T19:55:27Z</time>
  <course>253.7</course>
  <speed>20.28</speed>
  <fix>3d</fix>
</trkpt>
<trkpt lat="-27.272221" lon="151.2864769">
  <ele>382.15</ele>
  <time>2026-09-01T19:55:27Z</time>
  <course>271.07</course>
  <speed>20.31720945405643</speed>
  <fix>3d</fix>
</trkpt>
<trkpt lat="-27.2722069" lon="151.2865323">
  <ele>382.57</ele>
  <time>2026-09-01T19:55:27Z</time>
  <course>253.7</course>
  <speed>20.28</speed>
  <fix>3d</fix>
</trkpt>
<trkpt lat="-27.2722261" lon="151.2864572">
  <ele>382.06</ele>
  <time>2026-09-01T19:55:27Z</time>
  <course>271.07</course>
  <speed>20.31720945405643</speed>
  <fix>3d</fix>
</trkpt>
<trkpt lat="-27.2722171" lon="151.2864929">
  <ele>382.39</ele>
  <time>2026-09-01T19:55:27Z</time>
  <course>253.71</course>
  <speed>20.29</speed>
  <fix>3d</fix>
</trkpt>
<trkpt lat="-27.2722313" lon="151.2864374">
  <ele>381.98</ele>
  <time>2026-09-01T19:55:27Z</time>
  <course>271.05</course>
  <speed>20.32960402959192</speed>
  <fix>3d</fix>
</trkpt>
<trkpt lat="-27.2722171" lon="151.2864929">
  <ele>382.39</ele>
  <time>2026-09-01T19:55:27Z</time>
  <course>253.71</course>
  <speed>20.29</speed>
  <fix>3d</fix>
</trkpt>
<trkpt lat="-27.2722364" lon="151.2864176">
  <ele>381.89</ele>
  <time>2026-09-01T19:55:27Z</time>
  <course>271.0</course>
  <speed>20.339205982535308</speed>
  <fix>3d</fix>
</trkpt>
<trkpt lat="-27.2722274" lon="151.2864535">
  <ele>382.21</ele>
  <time>2026-09-01T19:55:27Z</time>
  <course>253.72</course>
  <speed>20.3</speed>
  <fix>3d</fix>
</trkpt>
<trkpt lat="-27.2722415" lon="151.2863978">
  <ele>381.8</ele>
  <time>2026-09-01T19:55:27Z</time>
  <course>270.96</course>
  <speed>20.339205982535308</speed>
  <fix>3d</fix>
</trkpt>
<trkpt lat="-27.2722274" lon="151.2864535">
  <ele>382.21</ele>
  <time>2026-09-01T19:55:27Z</time>
  <course>253.72</course>
  <speed>20.3</speed>
  <fix>3d</fix>
</trkpt>
<trkpt lat="-27.2722467" lon="151.2863781">
  <ele>381.71</ele>
  <time>2026-09-01T19:55:27Z</time>
  <course>270.98</course>
  <speed>20.34880831891637</speed>
  <fix>3d</fix>
</trkpt>
<trkpt lat="-27.2722375" lon="151.2864141">
  <ele>382.03</ele>
  <time>2026-09-01T19:55:27Z</time>
  <course>253.73</course>
  <speed>20.32</speed>
  <fix>3d</fix>
</trkpt>
<trkpt lat="-27.2722518" lon="151.2863583">
  <ele>381.62</ele>
  <time>2026-09-01T19:55:27Z</time>
  <course>270.98</course>
  <speed>20.36120330432364</speed>
  <fix>3d</fix>
</trkpt>
<trkpt lat="-27.2722375" lon="151.2864141">
  <ele>382.03</ele>
  <time>2026-09-01T19:55:27Z</time>
  <course>253.73</course>
  <speed>20.32</speed>
  <fix>3d</fix>
</trkpt>
<trkpt lat="-27.272257" lon="151.2863385">
  <ele>381.53</ele>
  <time>2026-09-01T19:55:27Z</time>
  <course>270.92</course>
  <speed>20.370805089637475</speed>
  <fix>3d</fix>
</trkpt>
<trkpt lat="-27.2722478" lon="151.2863746">
  <ele>381.85</ele>
  <time>2026-09-01T19:55:27Z</time>
  <course>253.72</course>
  <speed>20.33</speed>
  <fix>3d</fix>
</trkpt>
<trkpt lat="-27.2722621" lon="151.2863187">
  <ele>381.44</ele>
  <time>2026-09-01T19:55:27Z</time>
  <course>270.96</course>
  <speed>20.370805089637475</speed>
  <fix>3d</fix>
</trkpt>
<trkpt lat="-27.2722478" lon="151.2863746">
  <ele>381.85</ele>
  <time>2026-09-01T19:55:27Z</time>
  <course>253.72</course>
  <speed>20.33</speed>
  <fix>3d</fix>
</trkpt>
<trkpt lat="-27.2722673" lon="151.2862988">
  <ele>381.35</ele>
  <time>2026-09-01T19:55:27Z</time>
  <course>271.01</course>
  <speed>20.380407257952427</speed>
  <fix>3d</fix>
</trkpt>
<trkpt lat="-27.2722581" lon="151.2863351">
  <ele>381.67</ele>
  <time>2026-09-01T19:55:27Z</time>
  <course>253.71</course>
  <speed>20.34</speed>
  <fix>3d</fix>
</trkpt>
<trkpt lat="-27.2722724" lon="151.286279">
  <ele>381.26</ele>
  <time>2026-09-01T19:55:27Z</time>
  <course>270.98</course>
  <speed>20.39000980872741</speed>
  <fix>3d</fix>
</trkpt>
<trkpt lat="-27.2722581" lon="151.2863351">
  <ele>381.67</ele>
  <time>2026-09-01T19:55:27Z</time>
  <course>253.71</course>
  <speed>20.34</speed>
  <fix>3d</fix>
</trkpt>
<trkpt lat="-27.2722776" lon="151.2862592">
  <ele>381.17</ele>
  <time>2026-09-01T19:55:27Z</time>
  <course>270.97</course>
  <speed>20.39000980872741</speed>
  <fix>3d</fix>
</trkpt>
<trkpt lat="-27.2722683" lon="151.2862956">
  <ele>381.5</ele>
  <time>2026-09-01T19:55:27Z</time>
  <course>253.72</course>
  <speed>20.35</speed>
  <fix>3d</fix>
</trkpt>
<trkpt lat="-27.2722827" lon="151.2862393">
  <ele>381.08</ele>
  <time>2026-09-01T19:55:27Z</time>
  <course>270.93</course>
  <speed>20.399612741422324</speed>
  <fix>3d</fix>
</trkpt>
<trkpt lat="-27.2722683" lon="151.2862956">
  <ele>381.5</ele>
  <time>2026-09-01T19:55:27Z</time>
  <course>253.72</course>
  <speed>20.35</speed>
  <fix>3d</fix>
</trkpt>
<trkpt lat="-27.2722878" lon="151.2862197">
  <ele>381.0</ele>
  <time>2026-09-01T19:55:27Z</time>
  <course>270.85</course>
  <speed>20.399612741422324</speed>
  <fix>3d</fix>
</trkpt>
<trkpt lat="-27.2722785" lon="151.2862562">
  <ele>381.33</ele>
  <time>2026-09-01T19:55:27Z</time>
  <course>253.74</course>
  <speed>20.36</speed>
  <fix>3d</fix>
</trkpt>
<trkpt lat="-27.2722929" lon="151.2862">
  <ele>380.92</ele>
  <time>2026-09-01T19:55:27Z</time>
  <course>270.84</course>
  <speed>20.409216055498067</speed>
  <fix>3d</fix>
</trkpt>
<trkpt lat="-27.2722785" lon="151.2862562">
  <ele>381.33</ele>
  <time>2026-09-01T19:55:27Z</time>
  <course>253.74</course>
  <speed>20.36</speed>
  <fix>3d</fix>
</trkpt>
<trkpt lat="-27.272298" lon="151.2861803">
  <ele>380.83</ele>
  <time>2026-09-01T19:55:27Z</time>
  <course>270.81</course>
  <speed>20.409216055498067</speed>
  <fix>3d</fix>
</trkpt>
<trkpt lat="-27.2722888" lon="151.2862167">
  <ele>381.15</ele>
  <time>2026-09-01T19:55:27Z</time>
  <course>253.75</course>
  <speed>20.37</speed>
  <fix>3d</fix>
</trkpt>
<trkpt lat="-27.2723031" lon="151.2861606">
  <ele>380.75</ele>
  <time>2026-09-01T19:55:27Z</time>
  <course>270.79</course>
  <speed>20.402404270085427</speed>
  <fix>3d</fix>
</trkpt>
<trkpt lat="-27.2722888" lon="151.2862167">
  <ele>381.15</ele>
  <time>2026-09-01T19:55:27Z</time>
  <course>253.75</course>
  <speed>20.37</speed>
  <fix>3d</fix>
</trkpt>
<trkpt lat="-27.2723083" lon="151.2861407">
  <ele>380.66</ele>
  <time>2026-09-01T19:55:27Z</time>
  <course>270.79</course>
  <speed>20.402404270085427</speed>
  <fix>3d</fix>
</trkpt>
<trkpt lat="-27.272299" lon="151.2861771">
  <ele>380.98</ele>
  <time>2026-09-01T19:55:27Z</time>
  <course>253.74</course>
  <speed>20.38</speed>
  <fix>3d</fix>
</trkpt>
<trkpt lat="-27.2723134" lon="151.286121">
  <ele>380.58</ele>
  <time>2026-09-01T19:55:27Z</time>
  <course>270.8</course>
  <speed>20.402404270085427</speed>
  <fix>3d</fix>
</trkpt>
<trkpt lat="-27.272299" lon="151.2861771">
  <ele>380.98</ele>
  <time>2026-09-01T19:55:27Z</time>
  <course>253.74</course>
  <speed>20.38</speed>
  <fix>3d</fix>
</trkpt>
<trkpt lat="-27.2723185" lon="151.2861014">
  <ele>380.49</ele>
  <time>2026-09-01T19:55:27Z</time>
  <course>270.79</course>
  <speed>20.402404270085427</speed>
  <fix>3d</fix>
</trkpt>
<trkpt lat="-27.2723092" lon="151.2861376">
  <ele>380.81</ele>
  <time>2026-09-01T19:55:27Z</time>
  <course>253.72</course>
  <speed>20.39</speed>
  <fix>3d</fix>
</trkpt>
<trkpt lat="-27.2723236" lon="151.2860817">
  <ele>380.4</ele>
  <time>2026-09-01T19:55:27Z</time>
  <course>270.74</course>
  <speed>20.402404270085427</speed>
  <fix>3d</fix>
</trkpt>
<trkpt lat="-27.2723092" lon="151.2861376">
  <ele>380.81</ele>
  <time>2026-09-01T19:55:27Z</time>
  <course>253.72</course>
  <speed>20.39</speed>
  <fix>3d</fix>
</trkpt>
<trkpt lat="-27.2723287" lon="151.286062">
  <ele>380.31</ele>
  <time>2026-09-01T19:55:27Z</time>
  <course>270.68</course>
  <speed>20.41200627082012</speed>
  <fix>3d</fix>
</trkpt>
<trkpt lat="-27.2723196" lon="151.2860979">
  <ele>380.64</ele>
  <time>2026-09-01T19:55:27Z</time>
  <course>253.71</course>
  <speed>20.4</speed>
  <fix>3d</fix>
</trkpt>
<trkpt lat="-27.2723338" lon="151.2860422">
  <ele>380.22</ele>
  <time>2026-09-01T19:55:27Z</time>
  <course>270.67</course>
  <speed>20.405200317566106</speed>
  <fix>3d</fix>
</trkpt>
<trkpt lat="-27.2723196" lon="151.2860979">
  <ele>380.64</ele>
  <time>2026-09-01T19:55:27Z</time>
  <course>253.71</course>
  <speed>20.4</speed>
  <fix>3d</fix>
</trkpt>
<trkpt lat="-27.272339" lon="151.2860224">
  <ele>380.13</ele>
  <time>2026-09-01T19:55:27Z</time>
  <course>270.7</course>
  <speed>20.414801003193737</speed>
  <fix>3d</fix>
</trkpt>
<trkpt lat="-27.2723299" lon="151.2860582">
  <ele>380.46</ele>
  <time>2026-09-01T19:55:27Z</time>
  <course>253.7</course>
  <speed>20.42</speed>
  <fix>3d</fix>
</trkpt>
<trkpt lat="-27.2723441" lon="151.2860026">
  <ele>380.04</ele>
  <time>2026-09-01T19:55:27Z</time>
  <course>270.72</course>
  <speed>20.424402072031388</speed>
  <fix>3d</fix>
</trkpt>
<trkpt lat="-27.2723299" lon="151.2860582">
  <ele>380.46</ele>
  <time>2026-09-01T19:55:27Z</time>
  <course>253.7</course>
  <speed>20.42</speed>
  <fix>3d</fix>
</trkpt>
<trkpt lat="-27.2723493" lon="151.2859827">
  <ele>379.94</ele>
  <time>2026-09-01T19:55:27Z</time>
  <course>270.67</course>
  <speed>20.424402072031388</speed>
  <fix>3d</fix>
</trkpt>
<trkpt lat="-27.2723402" lon="151.2860186">
  <ele>380.28</ele>
  <time>2026-09-01T19:55:27Z</time>
  <course>253.7</course>
  <speed>20.43</speed>
  <fix>3d</fix>
</trkpt>
<trkpt lat="-27.2723545" lon="151.2859628">
  <ele>379.85</ele>
  <time>2026-09-01T19:55:27Z</time>
  <course>270.61</course>
  <speed>20.43680014092226</speed>
  <fix>3d</fix>
</trkpt>
<trkpt lat="-27.2723402" lon="151.2860186">
  <ele>380.28</ele>
  <time>2026-09-01T19:55:27Z</time>
  <course>253.7</course>
  <speed>20.43</speed>
  <fix>3d</fix>
</trkpt>
<trkpt lat="-27.2723597" lon="151.2859428">
  <ele>379.75</ele>
  <time>2026-09-01T19:55:27Z</time>
  <course>270.59</course>
  <speed>20.456001564333143</speed>
  <fix>3d</fix>
</trkpt>
<trkpt lat="-27.2723505" lon="151.285979">
  <ele>380.09</ele>
  <time>2026-09-01T19:55:27Z</time>
  <course>253.7</course>
  <speed>20.44</speed>
  <fix>3d</fix>
</trkpt>
<trkpt lat="-27.2723649" lon="151.2859229">
  <ele>379.66</ele>
  <time>2026-09-01T19:55:27Z</time>
  <course>270.62</course>
  <speed>20.468400035176174</speed>
  <fix>3d</fix>
</trkpt>
<trkpt lat="-27.2723505" lon="151.285979">
  <ele>380.09</ele>
  <time>2026-09-01T19:55:27Z</time>
  <course>253.7</course>
  <speed>20.44</speed>
  <fix>3d</fix>
</trkpt>
<trkpt lat="-27.2723701" lon="151.2859029">
  <ele>379.56</ele>
  <time>2026-09-01T19:55:27Z</time>
  <course>270.68</course>
  <speed>20.478000390663148</speed>
  <fix>3d</fix>
</trkpt>
<trkpt lat="-27.2723608" lon="151.2859393">
  <ele>379.9</ele>
  <time>2026-09-01T19:55:27Z</time>
  <course>253.69</course>
  <speed>20.45</speed>
  <fix>3d</fix>
</trkpt>
<trkpt lat="-27.2723753" lon="151.2858828">
  <ele>379.47</ele>
  <time>2026-09-01T19:55:27Z</time>
  <course>270.65</course>
  <speed>20.48480656486656</speed>
  <fix>3d</fix>
</trkpt>
<trkpt lat="-27.2723608" lon="151.2859393">
  <ele>379.9</ele>
  <time>2026-09-01T19:55:27Z</time>
  <course>253.69</course>
  <speed>20.45</speed>
  <fix>3d</fix>
</trkpt>
<trkpt lat="-27.2723804" lon="151.285863">
  <ele>379.38</ele>
  <time>2026-09-01T19:55:27Z</time>
  <course>270.62</course>
  <speed>20.48480656486656</speed>
  <fix>3d</fix>
</trkpt>
<trkpt lat="-27.2723711" lon="151.2858996">
  <ele>379.72</ele>
  <time>2026-09-01T19:55:27Z</time>
  <course>253.7</course>
  <speed>20.47</speed>
  <fix>3d</fix>
</trkpt>
<trkpt lat="-27.2723855" lon="151.2858432">
  <ele>379.29</ele>
  <time>2026-09-01T19:55:27Z</time>
  <course>270.59</course>
  <speed>20.48480656486656</speed>
  <fix>3d</fix>
</trkpt>
<trkpt lat="-27.2723711" lon="151.2858996">
  <ele>379.72</ele>
  <time>2026-09-01T19:55:27Z</time>
  <course>253.7</course>
  <speed>20.47</speed>
  <fix>3d</fix>
</trkpt>
<trkpt lat="-27.2723906" lon="151.2858235">
  <ele>379.2</ele>
  <time>2026-09-01T19:55:27Z</time>
  <course>270.57</course>
  <speed>20.48201650228805</speed>
  <fix>3d</fix>
</trkpt>
<trkpt lat="-27.2723814" lon="151.2858599">
  <ele>379.54</ele>
  <time>2026-09-01T19:55:27Z</time>
  <course>253.73</course>
  <speed>20.48</speed>
  <fix>3d</fix>
</trkpt>
<trkpt lat="-27.2723957" lon="151.285804">
  <ele>379.11</ele>
  <time>2026-09-01T19:55:27Z</time>
  <course>270.51</course>
  <speed>20.472413145498994</speed>
  <fix>3d</fix>
</trkpt>
<trkpt lat="-27.2723814" lon="151.2858599">
  <ele>379.54</ele>
  <time>2026-09-01T19:55:27Z</time>
  <course>253.73</course>
  <speed>20.48</speed>
  <fix>3d</fix>
</trkpt>
<trkpt lat="-27.2724008" lon="151.2857844">
  <ele>379.03</ele>
  <time>2026-09-01T19:55:27Z</time>
  <course>270.45</course>
  <speed>20.469626278952923</speed>
  <fix>3d</fix>
</trkpt>
<trkpt lat="-27.2723917" lon="151.2858202">
  <ele>379.36</ele>
  <time>2026-09-01T19:55:27Z</time>
  <course>253.74</course>
  <speed>20.49</speed>
  <fix>3d</fix>
</trkpt>
<trkpt lat="-27.2724059" lon="151.2857647">
  <ele>378.94</ele>
  <time>2026-09-01T19:55:27Z</time>
  <course>270.42</course>
  <speed>20.460021994123075</speed>
  <fix>3d</fix>
</trkpt>
<trkpt lat="-27.2723917" lon="151.2858202">
  <ele>379.36</ele>
  <time>2026-09-01T19:55:27Z</time>
  <course>253.74</course>
  <speed>20.49</speed>
  <fix>3d</fix>
</trkpt>
<trkpt lat="-27.272411" lon="151.2857451">
  <ele>378.85</ele>
  <time>2026-09-01T19:55:27Z</time>
  <course>270.37</course>
  <speed>20.460021994123075</speed>
  <fix>3d</fix>
</trkpt>
<trkpt lat="-27.272402" lon="151.2857804">
  <ele>379.18</ele>
  <time>2026-09-01T19:55:27Z</time>
  <course>253.76</course>
  <speed>20.5</speed>
  <fix>3d</fix>
</trkpt>
<trkpt lat="-27.2724161" lon="151.2857252">
  <ele>378.76</ele>
  <time>2026-09-01T19:55:27Z</time>
  <course>270.36</course>
  <speed>20.46281016869384</speed>
  <fix>3d</fix>
</trkpt>
<trkpt lat="-27.272402" lon="151.2857804">
  <ele>379.18</ele>
  <time>2026-09-01T19:55:27Z</time>
  <course>253.76</course>
  <speed>20.5</speed>
  <fix>3d</fix>
</trkpt>
<trkpt lat="-27.2724212" lon="151.2857055">
  <ele>378.68</ele>
  <time>2026-09-01T19:55:27Z</time>
  <course>270.31</course>
  <speed>20.46560284965972</speed>
  <fix>3d</fix>
</trkpt>
<trkpt lat="-27.2724123" lon="151.2857406">
  <ele>379.01</ele>
  <time>2026-09-01T19:55:27Z</time>
  <course>253.75</course>
  <speed>20.52</speed>
  <fix>3d</fix>
</trkpt>
<trkpt lat="-27.2724263" lon="151.2856858">
  <ele>378.59</ele>
  <time>2026-09-01T19:55:27Z</time>
  <course>270.31</course>
  <speed>20.46560284965972</speed>
  <fix>3d</fix>
</trkpt>
<trkpt lat="-27.2724123" lon="151.2857406">
  <ele>379.01</ele>
  <time>2026-09-01T19:55:27Z</time>
  <course>253.75</course>
  <speed>20.52</speed>
  <fix>3d</fix>
</trkpt>
<trkpt lat="-27.2724315" lon="151.285666">
  <ele>378.5</ele>
  <time>2026-09-01T19:55:27Z</time>
  <course>270.31</course>
  <speed>20.468400035176174</speed>
  <fix>3d</fix>
</trkpt>
<trkpt lat="-27.2724226" lon="151.2857007">
  <ele>378.83</ele>
  <time>2026-09-01T19:55:27Z</time>
  <course>253.72</course>
  <speed>20.53</speed>
  <fix>3d</fix>
</trkpt>
<trkpt lat="-27.2724366" lon="151.2856461">
  <ele>378.41</ele>
  <time>2026-09-01T19:55:27Z</time>
  <course>270.29</course>
  <speed>20.478000390663148</speed>
  <fix>3d</fix>
</trkpt>
<trkpt lat="-27.2724226" lon="151.2857007">
  <ele>378.83</ele>
  <time>2026-09-01T19:55:27Z</time>
  <course>253.72</course>
  <speed>20.53</speed>
  <fix>3d</fix>
</trkpt>
<trkpt lat="-27.2724418" lon="151.2856261">
  <ele>378.31</ele>
  <time>2026-09-01T19:55:27Z</time>
  <course>270.29</course>
  <speed>20.487601128487444</speed>
  <fix>3d</fix>
</trkpt>
<trkpt lat="-27.272433" lon="151.2856608">
  <ele>378.65</ele>
  <time>2026-09-01T19:55:27Z</time>
  <course>253.69</course>
  <speed>20.55</speed>
  <fix>3d</fix>
</trkpt>
<trkpt lat="-27.272447" lon="151.2856062">
  <ele>378.22</ele>
  <time>2026-09-01T19:55:27Z</time>
  <course>270.24</course>
  <speed>20.5</speed>
  <fix>3d</fix>
</trkpt>
<trkpt lat="-27.272433" lon="151.2856608">
  <ele>378.65</ele>
  <time>2026-09-01T19:55:27Z</time>
  <course>253.69</course>
  <speed>20.55</speed>
  <fix>3d</fix>
</trkpt>
<trkpt lat="-27.2724522" lon="151.2855861">
  <ele>378.12</ele>
  <time>2026-09-01T19:55:27Z</time>
  <course>270.24</course>
  <speed>20.50960019113001</speed>
  <fix>3d</fix>
</trkpt>
<trkpt lat="-27.2724434" lon="151.2856209">
  <ele>378.46</ele>
  <time>2026-09-01T19:55:27Z</time>
  <course>253.69</course>
  <speed>20.56</speed>
  <fix>3d</fix>
</trkpt>
<trkpt lat="-27.2724574" lon="151.2855661">
  <ele>378.03</ele>
  <time>2026-09-01T19:55:27Z</time>
  <course>270.17</course>
  <speed>20.531600035067896</speed>
  <fix>3d</fix>
</trkpt>
<trkpt lat="-27.2724434" lon="151.2856209">
  <ele>378.46</ele>
  <time>2026-09-01T19:55:27Z</time>
  <course>253.69</course>
  <speed>20.56</speed>
  <fix>3d</fix>
</trkpt>
<trkpt lat="-27.2724627" lon="151.285546">
  <ele>377.94</ele>
  <time>2026-09-01T19:55:27Z</time>
  <course>270.16</course>
  <speed>20.541200062313788</speed>
  <fix>3d</fix>
</trkpt>
<trkpt lat="-27.2724538" lon="151.285581">
  <ele>378.27</ele>
  <time>2026-09-01T19:55:27Z</time>
  <course>253.68</course>
  <speed>20.58</speed>
  <fix>3d</fix>
</trkpt>
<trkpt lat="-27.2724679" lon="151.285526">
  <ele>377.85</ele>
  <time>2026-09-01T19:55:27Z</time>
  <course>270.13</course>
  <speed>20.56040126067582</speed>
  <fix>3d</fix>
</trkpt>
<trkpt lat="-27.2724538" lon="151.285581">
  <ele>378.27</ele>
  <time>2026-09-01T19:55:27Z</time>
  <course>253.68</course>
  <speed>20.58</speed>
  <fix>3d</fix>
</trkpt>
<trkpt lat="-27.2724731" lon="151.2855059">
  <ele>377.76</ele>
  <time>2026-09-01T19:55:27Z</time>
  <course>270.11</course>
  <speed>20.570002430724212</speed>
  <fix>3d</fix>
</trkpt>
<trkpt lat="-27.2724642" lon="151.2855411">
  <ele>378.07</ele>
  <time>2026-09-01T19:55:27Z</time>
  <course>253.69</course>
  <speed>20.61</speed>
  <fix>3d</fix>
</trkpt>
<trkpt lat="-27.2724783" lon="151.2854858">
  <ele>377.66</ele>
  <time>2026-09-01T19:55:27Z</time>
  <course>270.0</course>
  <speed>20.589205909893657</speed>
  <fix>3d</fix>
</trkpt>
<trkpt lat="-27.2724642" lon="151.2855411">
  <ele>378.07</ele>
  <time>2026-09-01T19:55:27Z</time>
  <course>253.69</course>
  <speed>20.61</speed>
  <fix>3d</fix>
</trkpt>
<trkpt lat="-27.2724835" lon="151.2854658">
  <ele>377.57</ele>
  <time>2026-09-01T19:55:27Z</time>
  <course>269.73</course>
  <speed>20.589205909893657</speed>
  <fix>3d</fix>
</trkpt>
<trkpt lat="-27.2724746" lon="151.285501">
  <ele>377.89</ele>
  <time>2026-09-01T19:55:27Z</time>
  <course>253.7</course>
  <speed>20.63</speed>
  <fix>3d</fix>
</trkpt>
<trkpt lat="-27.2724887" lon="151.2854458">
  <ele>377.48</ele>
  <time>2026-09-01T19:55:27Z</time>
  <course>269.19</course>
  <speed>20.610009704024886</speed>
  <fix>3d</fix>
</trkpt>
<trkpt lat="-27.2724746" lon="151.285501">
  <ele>377.89</ele>
  <time>2026-09-01T19:55:27Z</time>
  <course>253.7</course>
  <speed>20.63</speed>
  <fix>3d</fix>
</trkpt>
<trkpt lat="-27.272494" lon="151.2854258">
  <ele>377.38</ele>
  <time>2026-09-01T19:55:27Z</time>
  <course>268.5</course>
  <speed>20.649777238507927</speed>
  <fix>3d</fix>
</trkpt>
<trkpt lat="-27.272485" lon="151.285461">
  <ele>377.7</ele>
  <time>2026-09-01T19:55:27Z</time>
  <course>253.67</course>
  <speed>20.65</speed>
  <fix>3d</fix>
</trkpt>
<trkpt lat="-27.2724994" lon="151.2854059">
  <ele>377.28</ele>
  <time>2026-09-01T19:55:27Z</time>
  <course>267.91</course>
  <speed>20.72295345745871</speed>
  <fix>3d</fix>
</trkpt>
<trkpt lat="-27.272485" lon="151.285461">
  <ele>377.7</ele>
  <time>2026-09-01T19:55:27Z</time>
  <course>253.67</course>
  <speed>20.65</speed>
  <fix>3d</fix>
</trkpt>
<trkpt lat="-27.2725052" lon="151.285386">
  <ele>377.17</ele>
  <time>2026-09-01T19:55:27Z</time>
  <course>267.44</course>
  <speed>20.829942390702858</speed>
  <fix>3d</fix>
</trkpt>
<trkpt lat="-27.2724955" lon="151.2854209">
  <ele>377.51</ele>
  <time>2026-09-01T19:55:27Z</time>
  <course>253.13</course>
  <speed>20.71</speed>
  <fix>3d</fix>
</trkpt>
<trkpt lat="-27.2725113" lon="151.285366">
  <ele>377.06</ele>
  <time>2026-09-01T19:55:27Z</time>
  <course>267.01</course>
  <speed>20.986721992726736</speed>
  <fix>3d</fix>
</trkpt>
<trkpt lat="-27.2724955" lon="151.2854209">
  <ele>377.51</ele>
  <time>2026-09-01T19:55:27Z</time>
  <course>253.13</course>
  <speed>20.71</speed>
  <fix>3d</fix>
</trkpt>
<trkpt lat="-27.2725179" lon="151.2853461">
  <ele>376.92</ele>
  <time>2026-09-01T19:55:27Z</time>
  <course>266.3</course>
  <speed>21.188619586938643</speed>
  <fix>3d</fix>
</trkpt>
<trkpt lat="-27.2725068" lon="151.2853809">
  <ele>377.29</ele>
  <time>2026-09-01T19:55:27Z</time>
  <course>251.48</course>
  <speed>20.89</speed>
  <fix>3d</fix>
</trkpt>
<trkpt lat="-27.2725251" lon="151.2853262">
  <ele>376.78</ele>
  <time>2026-09-01T19:55:27Z</time>
  <course>265.05</course>
  <speed>21.448909063166823</speed>
  <fix>3d</fix>
</trkpt>
<trkpt lat="-27.2725068" lon="151.2853809">
  <ele>377.29</ele>
  <time>2026-09-01T19:55:27Z</time>
  <course>251.48</course>
  <speed>20.89</speed>
  <fix>3d</fix>
</trkpt>
<trkpt lat="-27.2725331" lon="151.2853062">
  <ele>376.64</ele>
  <time>2026-09-01T19:55:27Z</time>
  <course>263.25</course>
  <speed>21.783020910791965</speed>
  <fix>3d</fix>
</trkpt>
<trkpt lat="-27.2725196" lon="151.2853409">
  <ele>377.03</ele>
  <time>2026-09-01T19:55:27Z</time>
  <course>248.55</course>
  <speed>21.25</speed>
  <fix>3d</fix>
</trkpt>
<trkpt lat="-27.272542" lon="151.2852864">
  <ele>376.5</ele>
  <time>2026-09-01T19:55:27Z</time>
  <course>260.99</course>
  <speed>22.15295917027791</speed>
  <fix>3d</fix>
</trkpt>
<trkpt lat="-27.2725196" lon="151.2853409">
  <ele>377.03</ele>
  <time>2026-09-01T19:55:27Z</time>
  <course>248.55</course>
  <speed>21.25</speed>
  <fix>3d</fix>
</trkpt>
<trkpt lat="-27.2725518" lon="151.2852666">
  <ele>376.38</ele>
  <time>2026-09-01T19:55:27Z</time>
  <course>258.52</course>
  <speed>22.56098623730798</speed>
  <fix>3d</fix>
</trkpt>
<trkpt lat="-27.272535" lon="151.285301">
  <ele>376.75</ele>
  <time>2026-09-01T19:55:27Z</time>
  <course>244.4</course>
  <speed>21.81</speed>
  <fix>3d</fix>
</trkpt>
<trkpt lat="-27.2725627" lon="151.285247">
  <ele>376.27</ele>
  <time>2026-09-01T19:55:27Z</time>
  <course>255.91</course>
  <speed>22.981664430584654</speed>
  <fix>3d</fix>
</trkpt>
<trkpt lat="-27.272535" lon="151.285301">
  <ele>376.75</ele>
  <time>2026-09-01T19:55:27Z</time>
  <course>244.4</course>
  <speed>21.81</speed>
  <fix>3d</fix>
</trkpt>
<trkpt lat="-27.2725744" lon="151.2852277">
  <ele>376.18</ele>
  <time>2026-09-01T19:55:27Z</time>
  <course>253.32</course>
  <speed>23.396739089026916</speed>
  <fix>3d</fix>
</trkpt>
<trkpt lat="-27.2725539" lon="151.2852614">
  <ele>376.49</ele>
  <time>2026-09-01T19:55:27Z</time>
  <course>239.32</course>
  <speed>22.56</speed>
  <fix>3d</fix>
</trkpt>
<trkpt lat="-27.2725872" lon="151.2852087">
  <ele>376.11</ele>
  <time>2026-09-01T19:55:27Z</time>
  <course>250.7</course>
  <speed>23.802472560639576</speed>
  <fix>3d</fix>
</trkpt>
<trkpt lat="-27.2725539" lon="151.2852614">
  <ele>376.49</ele>
  <time>2026-09-01T19:55:27Z</time>
  <course>239.32</course>
  <speed>22.56</speed>
  <fix>3d</fix>
</trkpt>
<trkpt lat="-27.2726009" lon="151.28519">
  <ele>376.06</ele>
  <time>2026-09-01T19:55:27Z</time>
  <course>248.18</course>
  <speed>24.18219179478982</speed>
  <fix>3d</fix>
</trkpt>
<trkpt lat="-27.2725766" lon="151.2852226">
  <ele>376.3</ele>
  <time>2026-09-01T19:55:27Z</time>
  <course>233.99</course>
  <speed>23.38</speed>
  <fix>3d</fix>
</trkpt>
<trkpt lat="-27.2726155" lon="151.2851718">
  <ele>376.02</ele>
  <time>2026-09-01T19:55:27Z</time>
  <course>245.65</course>
  <speed>24.557931508985035</speed>
  <fix>3d</fix>
</trkpt>
<trkpt lat="-27.2725766" lon="151.2852226">
  <ele>376.3</ele>
  <time>2026-09-01T19:55:27Z</time>
  <course>233.99</course>
  <speed>23.38</speed>
  <fix>3d</fix>
</trkpt>
<trkpt lat="-27.272631" lon="151.285154">
  <ele>375.99</ele>
  <time>2026-09-01T19:55:27Z</time>
  <course>243.09</course>
  <speed>24.937221176386114</speed>
  <fix>3d</fix>
</trkpt>
<trkpt lat="-27.2726033" lon="151.285185">
  <ele>376.17</ele>
  <time>2026-09-01T19:55:27Z</time>
  <course>228.82</course>
  <speed>24.17</speed>
  <fix>3d</fix>
</trkpt>
<trkpt lat="-27.2726475" lon="151.2851368">
  <ele>375.97</ele>
  <time>2026-09-01T19:55:27Z</time>
  <course>240.42</course>
  <speed>25.32336865426873</speed>
  <fix>3d</fix>
</trkpt>
<trkpt lat="-27.2726033" lon="151.285185">
  <ele>376.17</ele>
  <time>2026-09-01T19:55:27Z</time>
  <course>228.82</course>
  <speed>24.17</speed>
  <fix>3d</fix>
</trkpt>
<trkpt lat="-27.272665" lon="151.2851201">
  <ele>375.96</ele>
  <time>2026-09-01T19:55:27Z</time>
  <course>237.75</course>
  <speed>25.734373899514242</speed>
  <fix>3d</fix>
</trkpt>
<trkpt lat="-27.2726337" lon="151.2851492">
  <ele>376.1</ele>
  <time>2026-09-01T19:55:27Z</time>
  <course>223.73</course>
  <speed>24.94</speed>
  <fix>3d</fix>
</trkpt>
<trkpt lat="-27.2726834" lon="151.285104">
  <ele>375.96</ele>
  <time>2026-09-01T19:55:27Z</time>
  <course>234.93</course>
  <speed>26.137744738213357</speed>
  <fix>3d</fix>
</trkpt>
<trkpt lat="-27.2726337" lon="151.2851492">
  <ele>376.1</ele>
  <time>2026-09-01T19:55:27Z</time>
  <course>223.73</course>
  <speed>24.94</speed>
  <fix>3d</fix>
</trkpt>
<trkpt lat="-27.2727029" lon="151.2850886">
  <ele>375.96</ele>
  <time>2026-09-01T19:55:27Z</time>
  <course>231.97</course>
  <speed>26.575825481064552</speed>
  <fix>3d</fix>
</trkpt>
<trkpt lat="-27.2726679" lon="151.2851155">
  <ele>376.07</ele>
  <time>2026-09-01T19:55:27Z</time>
  <course>218.6</course>
  <speed>25.72</speed>
  <fix>3d</fix>
</trkpt>
<trkpt lat="-27.2727232" lon="151.285074">
  <ele>375.98</ele>
  <time>2026-09-01T19:55:27Z</time>
  <course>229.03</course>
  <speed>27.00778036048131</speed>
  <fix>3d</fix>
</trkpt>
<trkpt lat="-27.2726679" lon="151.2851155">
  <ele>376.07</ele>
  <time>2026-09-01T19:55:27Z</time>
  <course>218.6</course>
  <speed>25.72</speed>
  <fix>3d</fix>
</trkpt>
<trkpt lat="-27.2727446" lon="151.2850603">
  <ele>376.0</ele>
  <time>2026-09-01T19:55:27Z</time>
  <course>225.91</course>
  <speed>27.44475359699919</speed>
  <fix>3d</fix>
</trkpt>
<trkpt lat="-27.272706" lon="151.2850846">
  <ele>376.06</ele>
  <time>2026-09-01T19:55:27Z</time>
  <course>213.27</course>
  <speed>26.55</speed>
  <fix>3d</fix>
</trkpt>
<trkpt lat="-27.2727669" lon="151.2850477">
  <ele>376.03</ele>
  <time>2026-09-01T19:55:27Z</time>
  <course>222.71</course>
  <speed>27.879081763931893</speed>
  <fix>3d</fix>
</trkpt>
<trkpt lat="-27.272706" lon="151.2850846">
  <ele>376.06</ele>
  <time>2026-09-01T19:55:27Z</time>
  <course>213.27</course>
  <speed>26.55</speed>
  <fix>3d</fix>
</trkpt>
<trkpt lat="-27.27279" lon="151.2850361">
  <ele>376.07</ele>
  <time>2026-09-01T19:55:27Z</time>
  <course>219.6</course>
  <speed>28.306601703489594</speed>
  <fix>3d</fix>
</trkpt>
<trkpt lat="-27.2727476" lon="151.285057">
  <ele>376.09</ele>
  <time>2026-09-01T19:55:27Z</time>
  <course>207.7</course>
  <speed>27.4</speed>
  <fix>3d</fix>
</trkpt>
<trkpt lat="-27.272814" lon="151.2850257">
  <ele>376.12</ele>
  <time>2026-09-01T19:55:27Z</time>
  <course>216.49</course>
  <speed>28.71577441059182</speed>
  <fix>3d</fix>
</trkpt>
<trkpt lat="-27.2727476" lon="151.285057">
  <ele>376.09</ele>
  <time>2026-09-01T19:55:27Z</time>
  <course>207.7</course>
  <speed>27.4</speed>
  <fix>3d</fix>
</trkpt>
<trkpt lat="-27.2728387" lon="151.2850164">
  <ele>376.18</ele>
  <time>2026-09-01T19:55:27Z</time>
  <course>213.28</course>
  <speed>29.10836477715641</speed>
  <fix>3d</fix>
</trkpt>
<trkpt lat="-27.272793" lon="151.2850333">
  <ele>376.15</ele>
  <time>2026-09-01T19:55:27Z</time>
  <course>202.07</course>
  <speed>28.25</speed>
  <fix>3d</fix>
</trkpt>
<trkpt lat="-27.272864" lon="151.2850085">
  <ele>376.24</ele>
  <time>2026-09-01T19:55:27Z</time>
  <course>210.1</course>
  <speed>29.489906747902747</speed>
  <fix>3d</fix>
</trkpt>
<trkpt lat="-27.272793" lon="151.2850333">
  <ele>376.15</ele>
  <time>2026-09-01T19:55:27Z</time>
  <course>202.07</course>
  <speed>28.25</speed>
  <fix>3d</fix>
</trkpt>
<trkpt lat="-27.2728897" lon="151.2850019">
  <ele>376.31</ele>
  <time>2026-09-01T19:55:27Z</time>
  <course>206.92</course>
  <speed>29.8606429937468</speed>
  <fix>3d</fix>
</trkpt>
<trkpt lat="-27.2728416" lon="151.2850142">
  <ele>376.24</ele>
  <time>2026-09-01T19:55:27Z</time>
  <course>196.5</course>
  <speed>29.05</speed>
  <fix>3d</fix>
</trkpt>
<trkpt lat="-27.2729161" lon="151.2849966">
  <ele>376.39</ele>
  <time>2026-09-01T19:55:27Z</time>
  <course>203.69</course>
  <speed>30.208558389966246</speed>
  <fix>3d</fix>
</trkpt>
<trkpt lat="-27.2728416" lon="151.2850142">
  <ele>376.24</ele>
  <time>2026-09-01T19:55:27Z</time>
  <course>196.5</course>
  <speed>29.05</speed>
  <fix>3d</fix>
</trkpt>
<trkpt lat="-27.272943" lon="151.2849926">
  <ele>376.47</ele>
  <time>2026-09-01T19:55:27Z</time>
  <course>200.37</course>
  <speed>30.548718467392376</speed>
  <fix>3d</fix>
</trkpt>
<trkpt lat="-27.2728929" lon="151.2850001">
  <ele>376.36</ele>
  <time>2026-09-01T19:55:27Z</time>
  <course>190.99</course>
  <speed>29.81</speed>
  <fix>3d</fix>
</trkpt>
<trkpt lat="-27.2729703" lon="151.2849902">
  <ele>376.56</ele>
  <time>2026-09-01T19:55:27Z</time>
  <course>197.03</course>
  <speed>30.88410756359976</speed>
  <fix>3d</fix>
</trkpt>
<trkpt lat="-27.2728929" lon="151.2850001">
  <ele>376.36</ele>
  <time>2026-09-01T19:55:27Z</time>
  <course>190.99</course>
  <speed>29.81</speed>
  <fix>3d</fix>
</trkpt>
<trkpt lat="-27.2729979" lon="151.2849891">
  <ele>376.65</ele>
  <time>2026-09-01T19:55:27Z</time>
  <course>193.75</course>
  <speed>31.19046328607512</speed>
  <fix>3d</fix>
</trkpt>
<trkpt lat="-27.2729467" lon="151.2849914">
  <ele>376.51</ele>
  <time>2026-09-01T19:55:27Z</time>
  <course>185.47</course>
  <speed>30.53</speed>
  <fix>3d</fix>
</trkpt>
<trkpt lat="-27.2730261" lon="151.2849897">
  <ele>376.74</ele>
  <time>2026-09-01T19:55:27Z</time>
  <course>190.3</course>
  <speed>31.509363687640533</speed>
  <fix>3d</fix>
</trkpt>
<trkpt lat="-27.2729467" lon="151.2849914">
  <ele>376.51</ele>
  <time>2026-09-01T19:55:27Z</time>
  <course>185.47</course>
  <speed>30.53</speed>
  <fix>3d</fix>
</trkpt>
<trkpt lat="-27.2730544" lon="151.2849918">
  <ele>376.83</ele>
  <time>2026-09-01T19:55:27Z</time>
  <course>186.77</course>
  <speed>31.807096692404983</speed>
  <fix>3d</fix>
</trkpt>
<trkpt lat="-27.2730022" lon="151.2849884">
  <ele>376.66</ele>
  <time>2026-09-01T19:55:27Z</time>
  <course>179.93</course>
  <speed>31.21</speed>
  <fix>3d</fix>
</trkpt>
<trkpt lat="-27.2730828" lon="151.2849955">
  <ele>376.93</ele>
  <time>2026-09-01T19:55:27Z</time>
  <course>183.28</course>
  <speed>32.09416457862706</speed>
  <fix>3d</fix>
</trkpt>
<trkpt lat="-27.2730022" lon="151.2849884">
  <ele>376.66</ele>
  <time>2026-09-01T19:55:27Z</time>
  <course>179.93</course>
  <speed>31.21</speed>
  <fix>3d</fix>
</trkpt>
<trkpt lat="-27.2731113" lon="151.2850008">
  <ele>377.03</ele>
  <time>2026-09-01T19:55:27Z</time>
  <course>179.75</course>
  <speed>32.375311581512236</speed>
  <fix>3d</fix>
</trkpt>
<trkpt lat="-27.2730587" lon="151.2849916">
  <ele>376.82</ele>
  <time>2026-09-01T19:55:27Z</time>
  <course>174.33</course>
  <speed>31.84</speed>
  <fix>3d</fix>
</trkpt>
<trkpt lat="-27.2731398" lon="151.2850078">
  <ele>377.13</ele>
  <time>2026-09-01T19:55:27Z</time>
  <course>176.18</course>
  <speed>32.638201543589986</speed>
  <fix>3d</fix>
</trkpt>
<trkpt lat="-27.2730587" lon="151.2849916">
  <ele>376.82</ele>
  <time>2026-09-01T19:55:27Z</time>
  <course>174.33</course>
  <speed>31.84</speed>
  <fix>3d</fix>
</trkpt>
<trkpt lat="-27.2731682" lon="151.2850165">
  <ele>377.23</ele>
  <time>2026-09-01T19:55:27Z</time>
  <course>172.58</course>
  <speed>32.88026307680643</speed>
  <fix>3d</fix>
</trkpt>
<trkpt lat="-27.2731158" lon="151.2850012">
  <ele>376.99</ele>
  <time>2026-09-01T19:55:27Z</time>
  <course>168.66</course>
  <speed>32.42</speed>
  <fix>3d</fix>
</trkpt>
<trkpt lat="-27.2731964" lon="151.2850268">
  <ele>377.33</ele>
  <time>2026-09-01T19:55:27Z</time>
  <course>169.07</course>
  <speed>33.09016167987095</speed>
  <fix>3d</fix>
</trkpt>
<trkpt lat="-27.2731158" lon="151.2850012">
  <ele>376.99</ele>
  <time>2026-09-01T19:55:27Z</time>
  <course>168.66</course>
  <speed>32.42</speed>
  <fix>3d</fix>
</trkpt>
<trkpt lat="-27.2732244" lon="151.2850388">
  <ele>377.42</ele>
  <time>2026-09-01T19:55:27Z</time>
  <course>165.49</course>
  <speed>33.289499846047555</speed>
  <fix>3d</fix>
</trkpt>
<trkpt lat="-27.2731727" lon="151.2850173">
  <ele>377.17</ele>
  <time>2026-09-01T19:55:27Z</time>
  <course>162.97</course>
  <speed>32.92</speed>
  <fix>3d</fix>
</trkpt>
<trkpt lat="-27.2732519" lon="151.2850524">
  <ele>377.52</ele>
  <time>2026-09-01T19:55:27Z</time>
  <course>161.86</course>
  <speed>33.45168456146865</speed>
  <fix>3d</fix>
</trkpt>
<trkpt lat="-27.2731727" lon="151.2850173">
  <ele>377.17</ele>
  <time>2026-09-01T19:55:27Z</time>
  <course>162.97</course>
  <speed>32.92</speed>
  <fix>3d</fix>
</trkpt>
<trkpt lat="-27.2732789" lon="151.2850676">
  <ele>377.61</ele>
  <time>2026-09-01T19:55:27Z</time>
  <course>158.28</course>
  <speed>33.597060883357045</speed>
  <fix>3d</fix>
</trkpt>
<trkpt lat="-27.2732286" lon="151.2850401">
  <ele>377.36</ele>
  <time>2026-09-01T19:55:27Z</time>
  <course>157.31</course>
  <speed>33.33</speed>
  <fix>3d</fix>
</trkpt>
<trkpt lat="-27.2733053" lon="151.2850843">
  <ele>377.71</ele>
  <time>2026-09-01T19:55:27Z</time>
  <course>154.82</course>
  <speed>33.71153660099165</speed>
  <fix>3d</fix>
</trkpt>
<trkpt lat="-27.2732286" lon="151.2850401">
  <ele>377.36</ele>
  <time>2026-09-01T19:55:27Z</time>
  <course>157.31</course>
  <speed>33.33</speed>
  <fix>3d</fix>
</trkpt>
<trkpt lat="-27.2733311" lon="151.2851025">
  <ele>377.8</ele>
  <time>2026-09-01T19:55:27Z</time>
  <course>151.31</course>
  <speed>33.795154978191775</speed>
  <fix>3d</fix>
</trkpt>
<trkpt lat="-27.2732829" lon="151.2850692">
  <ele>377.54</ele>
  <time>2026-09-01T19:55:27Z</time>
  <course>151.68</course>
  <speed>33.63</speed>
  <fix>3d</fix>
</trkpt>
<trkpt lat="-27.2733561" lon="151.2851221">
  <ele>377.89</ele>
  <time>2026-09-01T19:55:27Z</time>
  <course>147.75</course>
  <speed>33.86743716315127</speed>
  <fix>3d</fix>
</trkpt>
<trkpt lat="-27.2732829" lon="151.2850692">
  <ele>377.54</ele>
  <time>2026-09-01T19:55:27Z</time>
  <course>151.68</course>
  <speed>33.63</speed>
  <fix>3d</fix>
</trkpt>
<trkpt lat="-27.2733803" lon="151.285143">
  <ele>377.98</ele>
  <time>2026-09-01T19:55:27Z</time>
  <course>144.21</course>
  <speed>33.909391029624814</speed>
  <fix>3d</fix>
</trkpt>
<trkpt lat="-27.2733348" lon="151.2851044">
  <ele>377.73</ele>
  <time>2026-09-01T19:55:27Z</time>
  <course>146.15</course>
  <speed>33.83</speed>
  <fix>3d</fix>
</trkpt>
<trkpt lat="-27.2734036" lon="151.2851653">
  <ele>378.06</ele>
  <time>2026-09-01T19:55:27Z</time>
  <course>140.68</course>
  <speed>33.92926907553418</speed>
  <fix>3d</fix>
</trkpt>
<trkpt lat="-27.2733348" lon="151.2851044">
  <ele>377.73</ele>
  <time>2026-09-01T19:55:27Z</time>
  <course>146.15</course>
  <speed>33.83</speed>
  <fix>3d</fix>
</trkpt>
<trkpt lat="-27.2734259" lon="151.2851887">
  <ele>378.15</ele>
  <time>2026-09-01T19:55:27Z</time>
  <course>137.24</course>
  <speed>33.92804739444933</speed>
  <fix>3d</fix>
</trkpt>
<trkpt lat="-27.2733836" lon="151.2851453">
  <ele>377.91</ele>
  <time>2026-09-01T19:55:27Z</time>
  <course>140.67</course>
  <speed>33.94</speed>
  <fix>3d</fix>
</trkpt>
<trkpt lat="-27.273447" lon="151.2852131">
  <ele>378.22</ele>
  <time>2026-09-01T19:55:27Z</time>
  <course>133.77</course>
  <speed>33.90273292818736</speed>
  <fix>3d</fix>
</trkpt>
<trkpt lat="-27.2733836" lon="151.2851453">
  <ele>377.91</ele>
  <time>2026-09-01T19:55:27Z</time>
  <course>140.67</course>
  <speed>33.94</speed>
  <fix>3d</fix>
</trkpt>
<trkpt lat="-27.2734671" lon="151.2852386">
  <ele>378.3</ele>
  <time>2026-09-01T19:55:27Z</time>
  <course>130.27</course>
  <speed>33.84692157346071</speed>
  <fix>3d</fix>
</trkpt>
<trkpt lat="-27.2734289" lon="151.2851912">
  <ele>378.09</ele>
  <time>2026-09-01T19:55:27Z</time>
  <course>135.24</course>
  <speed>33.94</speed>
  <fix>3d</fix>
</trkpt>
<trkpt lat="-27.2734861" lon="151.2852651">
  <ele>378.38</ele>
  <time>2026-09-01T19:55:27Z</time>
  <course>126.8</course>
  <speed>33.76535058310516</speed>
  <fix>3d</fix>
</trkpt>
<trkpt lat="-27.2734289" lon="151.2851912">
  <ele>378.09</ele>
  <time>2026-09-01T19:55:27Z</time>
  <course>135.24</course>
  <speed>33.94</speed>
  <fix>3d</fix>
</trkpt>
<trkpt lat="-27.2735039" lon="151.2852924">
  <ele>378.46</ele>
  <time>2026-09-01T19:55:27Z</time>
  <course>123.33</course>
  <speed>33.65359564741931</speed>
  <fix>3d</fix>
</trkpt>
<trkpt lat="-27.2734701" lon="151.2852417">
  <ele>378.25</ele>
  <time>2026-09-01T19:55:27Z</time>
  <course>129.85</course>
  <speed>33.85</speed>
  <fix>3d</fix>
</trkpt>
<trkpt lat="-27.2735206" lon="151.2853208">
  <ele>378.53</ele>
  <time>2026-09-01T19:55:27Z</time>
  <course>119.85</course>
  <speed>33.51819356707637</speed>
  <fix>3d</fix>
</trkpt>
<trkpt lat="-27.2734701" lon="151.2852417">
  <ele>378.25</ele>
  <time>2026-09-01T19:55:27Z</time>
  <course>129.85</course>
  <speed>33.85</speed>
  <fix>3d</fix>
</trkpt>
<trkpt lat="-27.2735359" lon="151.2853496">
  <ele>378.59</ele>
  <time>2026-09-01T19:55:27Z</time>
  <course>116.42</course>
  <speed>33.36118852798863</speed>
  <fix>3d</fix>
</trkpt>
<trkpt lat="-27.2735068" lon="151.2852962">
  <ele>378.39</ele>
  <time>2026-09-01T19:55:27Z</time>
  <course>124.48</course>
  <speed>33.67</speed>
  <fix>3d</fix>
</trkpt>
<trkpt lat="-27.2735499" lon="151.2853791">
  <ele>378.64</ele>
  <time>2026-09-01T19:55:27Z</time>
  <course>113.02</course>
  <speed>33.19674231005205</speed>
  <fix>3d</fix>
</trkpt>
<trkpt lat="-27.2735068" lon="151.2852962">
  <ele>378.39</ele>
  <time>2026-09-01T19:55:27Z</time>
  <course>124.48</course>
  <speed>33.67</speed>
  <fix>3d</fix>
</trkpt>
<trkpt lat="-27.2735631" lon="151.2854101">
  <ele>378.69</ele>
  <time>2026-09-01T19:55:27Z</time>
  <course>109.47</course>
  <speed>32.99875300674254</speed>
  <fix>3d</fix>
</trkpt>
<trkpt lat="-27.2735386" lon="151.2853539">
  <ele>378.51</ele>
  <time>2026-09-01T19:55:27Z</time>
  <course>119.15</course>
  <speed>33.4</speed>
  <fix>3d</fix>
</trkpt>
<trkpt lat="-27.2735744" lon="151.2854405">
  <ele>378.73</ele>
  <time>2026-09-01T19:55:27Z</time>
  <course>106.08</course>
  <speed>32.79154921622338</speed>
  <fix>3d</fix>
</trkpt>
<trkpt lat="-27.2735386" lon="151.2853539">
  <ele>378.51</ele>
  <time>2026-09-01T19:55:27Z</time>
  <course>119.15</course>
  <speed>33.4</speed>
  <fix>3d</fix>
</trkpt>
<trkpt lat="-27.2735844" lon="151.2854713">
  <ele>378.76</ele>
  <time>2026-09-01T19:55:27Z</time>
  <course>102.71</course>
  <speed>32.57478933162884</speed>
  <fix>3d</fix>
</trkpt>
<trkpt lat="-27.2735652" lon="151.2854139">
  <ele>378.61</ele>
  <time>2026-09-01T19:55:27Z</time>
  <course>113.82</course>
  <speed>33.05</speed>
  <fix>3d</fix>
</trkpt>
<trkpt lat="-27.2735932" lon="151.2855026">
  <ele>378.78</ele>
  <time>2026-09-01T19:55:27Z</time>
  <course>99.39</course>
  <speed>32.326436549672465</speed>
  <fix>3d</fix>
</trkpt>
<trkpt lat="-27.2735652" lon="151.2854139">
  <ele>378.61</ele>
  <time>2026-09-01T19:55:27Z</time>
  <course>113.82</course>
  <speed>33.05</speed>
  <fix>3d</fix>
</trkpt>
<trkpt lat="-27.2736006" lon="151.2855342">
  <ele>378.8</ele>
  <time>2026-09-01T19:55:27Z</time>
  <course>96.18</course>
  <speed>32.06786709464788</speed>
  <fix>3d</fix>
</trkpt>
<trkpt lat="-27.2735865" lon="151.2854757">
  <ele>378.67</ele>
  <time>2026-09-01T19:55:27Z</time>
  <course>108.51</course>
  <speed>32.61</speed>
  <fix>3d</fix>
</trkpt>
<trkpt lat="-27.2736067" lon="151.2855658">
  <ele>378.8</ele>
  <time>2026-09-01T19:55:27Z</time>
  <course>93.09</course>
  <speed>31.78755731414416</speed>
  <fix>3d</fix>
</trkpt>
<trkpt lat="-27.2735865" lon="151.2854757">
  <ele>378.67</ele>
  <time>2026-09-01T19:55:27Z</time>
  <course>108.51</course>
  <speed>32.61</speed>
  <fix>3d</fix>
</trkpt>
<trkpt lat="-27.2736115" lon="151.2855969">
  <ele>378.8</ele>
  <time>2026-09-01T19:55:27Z</time>
  <course>90.09</course>
  <speed>31.507600670314456</speed>
  <fix>3d</fix>
</trkpt>
<trkpt lat="-27.2736024" lon="151.2855387">
  <ele>378.72</ele>
  <time>2026-09-01T19:55:27Z</time>
  <course>103.3</course>
  <speed>32.1</speed>
  <fix>3d</fix>
</trkpt>
<trkpt lat="-27.2736152" lon="151.2856285">
  <ele>378.79</ele>
  <time>2026-09-01T19:55:27Z</time>
  <course>87.16</course>
  <speed>31.199733973224834</speed>
  <fix>3d</fix>
</trkpt>
<trkpt lat="-27.2736024" lon="151.2855387">
  <ele>378.72</ele>
  <time>2026-09-01T19:55:27Z</time>
  <course>103.3</course>
  <speed>32.1</speed>
  <fix>3d</fix>
</trkpt>
<trkpt lat="-27.2736176" lon="151.2856597">
  <ele>378.77</ele>
  <time>2026-09-01T19:55:27Z</time>
  <course>84.42</course>
  <speed>30.873556646424785</speed>
  <fix>3d</fix>
</trkpt>
<trkpt lat="-27.273613" lon="151.2856018">
  <ele>378.74</ele>
  <time>2026-09-01T19:55:27Z</time>
  <course>98.29</course>
  <speed>31.51</speed>
  <fix>3d</fix>
</trkpt>
<trkpt lat="-27.273619" lon="151.2856907">
  <ele>378.75</ele>
  <time>2026-09-01T19:55:27Z</time>
  <course>81.86</course>
  <speed>30.54047969498842</speed>
  <fix>3d</fix>
</trkpt>
<trkpt lat="-27.273613" lon="151.2856018">
  <ele>378.74</ele>
  <time>2026-09-01T19:55:27Z</time>
  <course>98.29</course>
  <speed>31.51</speed>
  <fix>3d</fix>
</trkpt>
<trkpt lat="-27.2736193" lon="151.2857214">
  <ele>378.71</ele>
  <time>2026-09-01T19:55:27Z</time>
  <course>79.43</course>
  <speed>30.21129755571581</speed>
  <fix>3d</fix>
</trkpt>
<trkpt lat="-27.2736188" lon="151.2856645">
  <ele>378.72</ele>
  <time>2026-09-01T19:55:27Z</time>
  <course>93.6</course>
  <speed>30.87</speed>
  <fix>3d</fix>
</trkpt>
<trkpt lat="-27.2736188" lon="151.2857517">
  <ele>378.66</ele>
  <time>2026-09-01T19:55:27Z</time>
  <course>77.21</course>
  <speed>29.877861369247967</speed>
  <fix>3d</fix>
</trkpt>
<trkpt lat="-27.2736188" lon="151.2856645">
  <ele>378.72</ele>
  <time>2026-09-01T19:55:27Z</time>
  <course>93.6</course>
  <speed>30.87</speed>
  <fix>3d</fix>
</trkpt>
<trkpt lat="-27.2736173" lon="151.2857816">
  <ele>378.6</ele>
  <time>2026-09-01T19:55:27Z</time>
  <course>75.17</course>
  <speed>29.551260548409772</speed>
  <fix>3d</fix>
</trkpt>
<trkpt lat="-27.2736202" lon="151.2857261">
  <ele>378.66</ele>
  <time>2026-09-01T19:55:27Z</time>
  <course>89.35</course>
  <speed>30.2</speed>
  <fix>3d</fix>
</trkpt>
<trkpt lat="-27.2736151" lon="151.2858111">
  <ele>378.51</ele>
  <time>2026-09-01T19:55:27Z</time>
  <course>73.25</course>
  <speed>29.224388787449428</speed>
  <fix>3d</fix>
</trkpt>
<trkpt lat="-27.2736202" lon="151.2857261">
  <ele>378.66</ele>
  <time>2026-09-01T19:55:27Z</time>
  <course>89.35</course>
  <speed>30.2</speed>
  <fix>3d</fix>
</trkpt>
<trkpt lat="-27.2736122" lon="151.2858398">
  <ele>378.42</ele>
  <time>2026-09-01T19:55:27Z</time>
  <course>71.5</course>
  <speed>28.900415221930633</speed>
  <fix>3d</fix>
</trkpt>
<trkpt lat="-27.2736179" lon="151.2857864">
  <ele>378.55</ele>
  <time>2026-09-01T19:55:27Z</time>
  <course>85.62</course>
  <speed>29.54</speed>
  <fix>3d</fix>
</trkpt>
<trkpt lat="-27.2736087" lon="151.2858683">
  <ele>378.3</ele>
  <time>2026-09-01T19:55:27Z</time>
  <course>69.95</course>
  <speed>28.59435608647273</speed>
  <fix>3d</fix>
</trkpt>
<trkpt lat="-27.2736179" lon="151.2857864">
  <ele>378.55</ele>
  <time>2026-09-01T19:55:27Z</time>
  <course>85.62</course>
  <speed>29.54</speed>
  <fix>3d</fix>
</trkpt>
<trkpt lat="-27.2736047" lon="151.2858964">
  <ele>378.16</ele>
  <time>2026-09-01T19:55:27Z</time>
  <course>68.5</course>
  <speed>28.291094005004474</speed>
  <fix>3d</fix>
</trkpt>
<trkpt lat="-27.2736124" lon="151.2858451">
  <ele>378.37</ele>
  <time>2026-09-01T19:55:27Z</time>
  <course>82.44</course>
  <speed>28.9</speed>
  <fix>3d</fix>
</trkpt>
<trkpt lat="-27.2736001" lon="151.2859242">
  <ele>378.0</ele>
  <time>2026-09-01T19:55:27Z</time>
  <course>67.14</course>
  <speed>28.00940556313182</speed>
  <fix>3d</fix>
</trkpt>
<trkpt lat="-27.2736124" lon="151.2858451">
  <ele>378.37</ele>
  <time>2026-09-01T19:55:27Z</time>
  <course>82.44</course>
  <speed>28.9</speed>
  <fix>3d</fix>
</trkpt>
<trkpt lat="-27.2735952" lon="151.2859517">
  <ele>377.8</ele>
  <time>2026-09-01T19:55:27Z</time>
  <course>65.84</course>
  <speed>27.740340661210343</speed>
  <fix>3d</fix>
</trkpt>
<trkpt lat="-27.2736044" lon="151.2859023">
  <ele>378.1</ele>
  <time>2026-09-01T19:55:27Z</time>
  <course>79.78</course>
  <speed>28.31</speed>
  <fix>3d</fix>
</trkpt>
<trkpt lat="-27.2735898" lon="151.2859787">
  <ele>377.59</ele>
  <time>2026-09-01T19:55:27Z</time>
  <course>64.64</course>
  <speed>27.481857651912833</speed>
  <fix>3d</fix>
</trkpt>
<trkpt lat="-27.2736044" lon="151.2859023">
  <ele>378.1</ele>
  <time>2026-09-01T19:55:27Z</time>
  <course>79.78</course>
  <speed>28.31</speed>
  <fix>3d</fix>
</trkpt>
<trkpt lat="-27.2735841" lon="151.2860053">
  <ele>377.34</ele>
  <time>2026-09-01T19:55:27Z</time>
  <course>63.46</course>
  <speed>27.232010575791133</speed>
  <fix>3d</fix>
</trkpt>
<trkpt lat="-27.2735945" lon="151.285958">
  <ele>377.72</ele>
  <time>2026-09-01T19:55:27Z</time>
  <course>77.53</course>
  <speed>27.77</speed>
  <fix>3d</fix>
</trkpt>
<trkpt lat="-27.2735778" lon="151.2860326">
  <ele>377.06</ele>
  <time>2026-09-01T19:55:27Z</time>
  <course>62.28</course>
  <speed>26.999392585760148</speed>
  <fix>3d</fix>
</trkpt>
<trkpt lat="-27.2735945" lon="151.285958">
  <ele>377.72</ele>
  <time>2026-09-01T19:55:27Z</time>
  <course>77.53</course>
  <speed>27.77</speed>
  <fix>3d</fix>
</trkpt>
<trkpt lat="-27.2735714" lon="151.2860584">
  <ele>376.77</ele>
  <time>2026-09-01T19:55:27Z</time>
  <course>61.17</course>
  <speed>26.797740576399345</speed>
  <fix>3d</fix>
</trkpt>
<trkpt lat="-27.2735829" lon="151.2860121">
  <ele>377.25</ele>
  <time>2026-09-01T19:55:27Z</time>
  <course>75.54</course>
  <speed>27.29</speed>
  <fix>3d</fix>
</trkpt>
<trkpt lat="-27.2735647" lon="151.2860841">
  <ele>376.44</ele>
  <time>2026-09-01T19:55:27Z</time>
  <course>60.02</course>
  <speed>26.600122180170523</speed>
  <fix>3d</fix>
</trkpt>
<trkpt lat="-27.2735829" lon="151.2860121">
  <ele>377.25</ele>
  <time>2026-09-01T19:55:28Z</time>
  <course>75.54</course>
  <speed>27.29</speed>
  <fix>3d</fix>
</trkpt>
<trkpt lat="-27.2735576" lon="151.2861097">
  <ele>376.1</ele>
  <time>2026-09-01T19:55:28Z</time>
  <course>58.87</course>
  <speed>26.42833517268918</speed>
  <fix>3d</fix>
</trkpt>
<trkpt lat="-27.27357" lon="151.2860648">
  <ele>376.68</ele>
  <time>2026-09-01T19:55:28Z</time>
  <course>73.68</course>
  <speed>26.86</speed>
  <fix>3d</fix>
</trkpt>
<trkpt lat="-27.2735501" lon="151.286135">
  <ele>375.74</ele>
  <time>2026-09-01T19:55:28Z</time>
  <course>57.75</course>
  <speed>26.26974876164597</speed>
  <fix>3d</fix>
</trkpt>
<trkpt lat="-27.27357" lon="151.2860648">
  <ele>376.68</ele>
  <time>2026-09-01T19:55:28Z</time>
  <course>73.68</course>
  <speed>26.86</speed>
  <fix>3d</fix>
</trkpt>
<trkpt lat="-27.2735423" lon="151.2861601">
  <ele>375.36</ele>
  <time>2026-09-01T19:55:28Z</time>
  <course>56.65</course>
  <speed>26.134088849623208</speed>
  <fix>3d</fix>
</trkpt>
<trkpt lat="-27.2735559" lon="151.2861163">
  <ele>376.02</ele>
  <time>2026-09-01T19:55:28Z</time>
  <course>71.85</course>
  <speed>26.5</speed>
  <fix>3d</fix>
</trkpt>
<trkpt lat="-27.2735341" lon="151.2861851">
  <ele>374.97</ele>
  <time>2026-09-01T19:55:28Z</time>
  <course>55.53</course>
  <speed>26.009052270315422</speed>
  <fix>3d</fix>
</trkpt>
<trkpt lat="-27.2735559" lon="151.2861163">
  <ele>376.02</ele>
  <time>2026-09-01T19:55:28Z</time>
  <course>71.85</course>
  <speed>26.5</speed>
  <fix>3d</fix>
</trkpt>
<trkpt lat="-27.2735257" lon="151.2862097">
  <ele>374.57</ele>
  <time>2026-09-01T19:55:28Z</time>
  <course>54.42</course>
  <speed>25.904509259972478</speed>
  <fix>3d</fix>
</trkpt>
<trkpt lat="-27.2735404" lon="151.2861666">
  <ele>375.29</ele>
  <time>2026-09-01T19:55:28Z</time>
  <course>69.97</course>
  <speed>26.19</speed>
  <fix>3d</fix>
</trkpt>
<trkpt lat="-27.2735168" lon="151.286234">
  <ele>374.18</ele>
  <time>2026-09-01T19:55:28Z</time>
  <course>53.28</course>
  <speed>25.811627224954258</speed>
  <fix>3d</fix>
</trkpt>
<trkpt lat="-27.2735404" lon="151.2861666">
  <ele>375.29</ele>
  <time>2026-09-01T19:55:28Z</time>
  <course>69.97</course>
  <speed>26.19</speed>
  <fix>3d</fix>
</trkpt>
<trkpt lat="-27.2735076" lon="151.2862581">
  <ele>373.79</ele>
  <time>2026-09-01T19:55:28Z</time>
  <course>52.23</course>
  <speed>25.736101103314</speed>
  <fix>3d</fix>
</trkpt>
<trkpt lat="-27.2735236" lon="151.2862157">
  <ele>374.53</ele>
  <time>2026-09-01T19:55:28Z</time>
  <course>68.02</course>
  <speed>25.95</speed>
  <fix>3d</fix>
</trkpt>
<trkpt lat="-27.2734981" lon="151.2862819">
  <ele>373.41</ele>
  <time>2026-09-01T19:55:28Z</time>
  <course>51.24</course>
  <speed>25.678490999277972</speed>
  <fix>3d</fix>
</trkpt>
<trkpt lat="-27.2735236" lon="151.2862157">
  <ele>374.53</ele>
  <time>2026-09-01T19:55:28Z</time>
  <course>68.02</course>
  <speed>25.95</speed>
  <fix>3d</fix>
</trkpt>
<trkpt lat="-27.2734882" lon="151.2863055">
  <ele>373.03</ele>
  <time>2026-09-01T19:55:28Z</time>
  <course>50.24</course>
  <speed>25.623820948484635</speed>
  <fix>3d</fix>
</trkpt>
<trkpt lat="-27.2735055" lon="151.2862639">
  <ele>373.77</ele>
  <time>2026-09-01T19:55:28Z</time>
  <course>66.04</course>
  <speed>25.77</speed>
  <fix>3d</fix>
</trkpt>
<trkpt lat="-27.2734781" lon="151.2863289">
  <ele>372.67</ele>
  <time>2026-09-01T19:55:28Z</time>
  <course>49.28</course>
  <speed>25.589568187056226</speed>
  <fix>3d</fix>
</trkpt>
<trkpt lat="-27.2735055" lon="151.2862639">
  <ele>373.77</ele>
  <time>2026-09-01T19:55:28Z</time>
  <course>66.04</course>
  <speed>25.77</speed>
  <fix>3d</fix>
</trkpt>
<trkpt lat="-27.2734678" lon="151.2863514">
  <ele>372.34</ele>
  <time>2026-09-01T19:55:28Z</time>
  <course>48.45</course>
  <speed>25.55681513804097</speed>
  <fix>3d</fix>
</trkpt>
<trkpt lat="-27.273486" lon="151.286311">
  <ele>373.04</ele>
  <time>2026-09-01T19:55:28Z</time>
  <course>64.14</course>
  <speed>25.64</speed>
  <fix>3d</fix>
</trkpt>
<trkpt lat="-27.2734572" lon="151.2863742">
  <ele>372.01</ele>
  <time>2026-09-01T19:55:28Z</time>
  <course>47.66</course>
  <speed>25.542476387382646</speed>
  <fix>3d</fix>
</trkpt>
<trkpt lat="-27.273486" lon="151.286311">
  <ele>373.04</ele>
  <time>2026-09-01T19:55:28Z</time>
  <course>64.14</course>
  <speed>25.64</speed>
  <fix>3d</fix>
</trkpt>
<trkpt lat="-27.2734461" lon="151.286397">
  <ele>371.7</ele>
  <time>2026-09-01T19:55:28Z</time>
  <course>46.97</course>
  <speed>25.52735395609972</speed>
  <fix>3d</fix>
</trkpt>
<trkpt lat="-27.2734653" lon="151.2863572">
  <ele>372.36</ele>
  <time>2026-09-01T19:55:28Z</time>
  <course>62.39</course>
  <speed>25.56</speed>
  <fix>3d</fix>
</trkpt>
<trkpt lat="-27.2734349" lon="151.2864196">
  <ele>371.41</ele>
  <time>2026-09-01T19:55:28Z</time>
  <course>46.39</course>
  <speed>25.527641880910192</speed>
  <fix>3d</fix>
</trkpt>
<trkpt lat="-27.2734653" lon="151.2863572">
  <ele>372.36</ele>
  <time>2026-09-01T19:55:28Z</time>
  <course>62.39</course>
  <speed>25.56</speed>
  <fix>3d</fix>
</trkpt>
<trkpt lat="-27.2734234" lon="151.286442">
  <ele>371.13</ele>
  <time>2026-09-01T19:55:28Z</time>
  <course>45.88</course>
  <speed>25.533321366402767</speed>
  <fix>3d</fix>
</trkpt>
<trkpt lat="-27.2734435" lon="151.2864026">
  <ele>371.75</ele>
  <time>2026-09-01T19:55:28Z</time>
  <course>60.86</course>
  <speed>25.52</speed>
  <fix>3d</fix>
</trkpt>
<trkpt lat="-27.2734116" lon="151.2864646">
  <ele>370.87</ele>
  <time>2026-09-01T19:55:28Z</time>
  <course>45.5</course>
  <speed>25.55543973403706</speed>
  <fix>3d</fix>
</trkpt>
<trkpt lat="-27.2734435" lon="151.2864026">
  <ele>371.75</ele>
  <time>2026-09-01T19:55:28Z</time>
  <course>60.86</course>
  <speed>25.52</speed>
  <fix>3d</fix>
</trkpt>
<trkpt lat="-27.2733998" lon="151.2864869">
  <ele>370.64</ele>
  <time>2026-09-01T19:55:28Z</time>
  <course>45.2</course>
  <speed>25.58759465053329</speed>
  <fix>3d</fix>
</trkpt>
<trkpt lat="-27.2734207" lon="151.2864474">
  <ele>371.2</ele>
  <time>2026-09-01T19:55:28Z</time>
  <course>59.68</course>
  <speed>25.52</speed>
  <fix>3d</fix>
</trkpt>
<trkpt lat="-27.2733879" lon="151.2865092">
  <ele>370.43</ele>
  <time>2026-09-01T19:55:28Z</time>
  <course>44.95</course>
  <speed>25.642527176547947</speed>
  <fix>3d</fix>
</trkpt>
<trkpt lat="-27.2734207" lon="151.2864474">
  <ele>371.2</ele>
  <time>2026-09-01T19:55:28Z</time>
  <course>59.68</course>
  <speed>25.52</speed>
  <fix>3d</fix>
</trkpt>
<trkpt lat="-27.2733756" lon="151.2865322">
  <ele>370.22</ele>
  <time>2026-09-01T19:55:28Z</time>
  <course>44.76</course>
  <speed>25.706001244845528</speed>
  <fix>3d</fix>
</trkpt>
<trkpt lat="-27.2733972" lon="151.2864919">
  <ele>370.74</ele>
  <time>2026-09-01T19:55:28Z</time>
  <course>58.96</course>
  <speed>25.57</speed>
  <fix>3d</fix>
</trkpt>
<trkpt lat="-27.2733637" lon="151.2865544">
  <ele>370.05</ele>
  <time>2026-09-01T19:55:28Z</time>
  <course>44.74</course>
  <speed>25.774532003510753</speed>
  <fix>3d</fix>
</trkpt>
<trkpt lat="-27.2733972" lon="151.2864919">
  <ele>370.74</ele>
  <time>2026-09-01T19:55:28Z</time>
  <course>58.96</course>
  <speed>25.57</speed>
  <fix>3d</fix>
</trkpt>
<trkpt lat="-27.2733517" lon="151.2865768">
  <ele>369.88</ele>
  <time>2026-09-01T19:55:28Z</time>
  <course>44.8</course>
  <speed>25.860419563495096</speed>
  <fix>3d</fix>
</trkpt>
<trkpt lat="-27.2733734" lon="151.2865362">
  <ele>370.35</ele>
  <time>2026-09-01T19:55:28Z</time>
  <course>58.77</course>
  <speed>25.67</speed>
  <fix>3d</fix>
</trkpt>
<trkpt lat="-27.2733398" lon="151.2865994">
  <ele>369.73</ele>
  <time>2026-09-01T19:55:28Z</time>
  <course>44.92</course>
  <speed>25.94878417190293</speed>
  <fix>3d</fix>
</trkpt>
<trkpt lat="-27.2733734" lon="151.2865362">
  <ele>370.35</ele>
  <time>2026-09-01T19:55:28Z</time>
  <course>58.77</course>
  <speed>25.67</speed>
  <fix>3d</fix>
</trkpt>
<trkpt lat="-27.273328" lon="151.2866222">
  <ele>369.6</ele>
  <time>2026-09-01T19:55:28Z</time>
  <course>45.23</course>
  <speed>26.052533466056616</speed>
  <fix>3d</fix>
</trkpt>
<trkpt lat="-27.2733495" lon="151.2865808">
  <ele>370.02</ele>
  <time>2026-09-01T19:55:28Z</time>
  <course>59.1</course>
  <speed>25.83</speed>
  <fix>3d</fix>
</trkpt>
<trkpt lat="-27.2733163" lon="151.2866453">
  <ele>369.48</ele>
  <time>2026-09-01T19:55:28Z</time>
  <course>45.61</course>
  <speed>26.164198822054537</speed>
  <fix>3d</fix>
</trkpt>
<trkpt lat="-27.2733495" lon="151.2865808">
  <ele>370.02</ele>
  <time>2026-09-01T19:55:28Z</time>
  <course>59.1</course>
  <speed>25.83</speed>
  <fix>3d</fix>
</trkpt>
<trkpt lat="-27.2733047" lon="151.2866685">
  <ele>369.37</ele>
  <time>2026-09-01T19:55:28Z</time>
  <course>46.09</course>
  <speed>26.272466576246703</speed>
  <fix>3d</fix>
</trkpt>
<trkpt lat="-27.2733258" lon="151.2866259">
  <ele>369.75</ele>
  <time>2026-09-01T19:55:28Z</time>
  <course>59.86</course>
  <speed>26.03</speed>
  <fix>3d</fix>
</trkpt>
<trkpt lat="-27.2732934" lon="151.2866918">
  <ele>369.29</ele>
  <time>2026-09-01T19:55:28Z</time>
  <course>46.69</course>
  <speed>26.391826386212834</speed>
  <fix>3d</fix>
</trkpt>
<trkpt lat="-27.2733258" lon="151.2866259">
  <ele>369.75</ele>
  <time>2026-09-01T19:55:28Z</time>
  <course>59.86</course>
  <speed>26.03</speed>
  <fix>3d</fix>
</trkpt>
<trkpt lat="-27.2732823" lon="151.2867154">
  <ele>369.22</ele>
  <time>2026-09-01T19:55:28Z</time>
  <course>47.4</course>
  <speed>26.513945387286288</speed>
  <fix>3d</fix>
</trkpt>
<trkpt lat="-27.2733027" lon="151.2866718">
  <ele>369.54</ele>
  <time>2026-09-01T19:55:28Z</time>
  <course>60.99</course>
  <speed>26.26</speed>
  <fix>3d</fix>
</trkpt>
<trkpt lat="-27.2732714" lon="151.2867392">
  <ele>369.16</ele>
  <time>2026-09-01T19:55:28Z</time>
  <course>48.2</course>
  <speed>26.644999530868827</speed>
  <fix>3d</fix>
</trkpt>
<trkpt lat="-27.2733027" lon="151.2866718">
  <ele>369.54</ele>
  <time>2026-09-01T19:55:28Z</time>
  <course>60.99</course>
  <speed>26.26</speed>
  <fix>3d</fix>
</trkpt>
<trkpt lat="-27.2732608" lon="151.2867634">
  <ele>369.11</ele>
  <time>2026-09-01T19:55:28Z</time>
  <course>49.12</course>
  <speed>26.781784854635806</speed>
  <fix>3d</fix>
</trkpt>
<trkpt lat="-27.2732802" lon="151.2867188">
  <ele>369.39</ele>
  <time>2026-09-01T19:55:28Z</time>
  <course>62.42</course>
  <speed>26.51</speed>
  <fix>3d</fix>
</trkpt>
<trkpt lat="-27.2732504" lon="151.2867879">
  <ele>369.08</ele>
  <time>2026-09-01T19:55:28Z</time>
  <course>50.09</course>
  <speed>26.916814447478735</speed>
  <fix>3d</fix>
</trkpt>
<trkpt lat="-27.2732802" lon="151.2867188">
  <ele>369.39</ele>
  <time>2026-09-01T19:55:28Z</time>
  <course>62.42</course>
  <speed>26.51</speed>
  <fix>3d</fix>
</trkpt>
<trkpt lat="-27.2732403" lon="151.2868128">
  <ele>369.06</ele>
  <time>2026-09-01T19:55:28Z</time>
  <course>51.16</course>
  <speed>27.065152872282102</speed>
  <fix>3d</fix>
</trkpt>
<trkpt lat="-27.2732587" lon="151.2867669">
  <ele>369.29</ele>
  <time>2026-09-01T19:55:28Z</time>
  <course>64.12</course>
  <speed>26.8</speed>
  <fix>3d</fix>
</trkpt>
<trkpt lat="-27.2732306" lon="151.286838">
  <ele>369.05</ele>
  <time>2026-09-01T19:55:28Z</time>
  <course>52.23</course>
  <speed>27.219311159542595</speed>
  <fix>3d</fix>
</trkpt>
<trkpt lat="-27.2732587" lon="151.2867669">
  <ele>369.29</ele>
  <time>2026-09-01T19:55:28Z</time>
  <course>64.12</course>
  <speed>26.8</speed>
  <fix>3d</fix>
</trkpt>
<trkpt lat="-27.2732213" lon="151.2868636">
  <ele>369.06</ele>
  <time>2026-09-01T19:55:28Z</time>
  <course>53.29</course>
  <speed>27.365982533064656</speed>
  <fix>3d</fix>
</trkpt>
<trkpt lat="-27.2732382" lon="151.2868163">
  <ele>369.25</ele>
  <time>2026-09-01T19:55:28Z</time>
  <course>66.07</course>
  <speed>27.1</speed>
  <fix>3d</fix>
</trkpt>
<trkpt lat="-27.2732123" lon="151.2868895">
  <ele>369.08</ele>
  <time>2026-09-01T19:55:28Z</time>
  <course>54.42</course>
  <speed>27.51520488747994</speed>
  <fix>3d</fix>
</trkpt>
<trkpt lat="-27.2732382" lon="151.2868163">
  <ele>369.25</ele>
  <time>2026-09-01T19:55:28Z</time>
  <course>66.07</course>
  <speed>27.1</speed>
  <fix>3d</fix>
</trkpt>
<trkpt lat="-27.2732037" lon="151.2869157">
  <ele>369.11</ele>
  <time>2026-09-01T19:55:28Z</time>
  <course>55.58</course>
  <speed>27.6617931450584</speed>
  <fix>3d</fix>
</trkpt>
<trkpt lat="-27.2732192" lon="151.286867">
  <ele>369.25</ele>
  <time>2026-09-01T19:55:28Z</time>
  <course>68.2</course>
  <speed>27.42</speed>
  <fix>3d</fix>
</trkpt>
<trkpt lat="-27.2731955" lon="151.2869423">
  <ele>369.15</ele>
  <time>2026-09-01T19:55:28Z</time>
  <course>56.77</course>
  <speed>27.796438620801766</speed>
  <fix>3d</fix>
</trkpt>
<trkpt lat="-27.2732192" lon="151.286867">
  <ele>369.25</ele>
  <time>2026-09-01T19:55:28Z</time>
  <course>68.2</course>
  <speed>27.42</speed>
  <fix>3d</fix>
</trkpt>
<trkpt lat="-27.2731877" lon="151.2869692">
  <ele>369.2</ele>
  <time>2026-09-01T19:55:28Z</time>
  <course>57.98</course>
  <speed>27.947812078944573</speed>
  <fix>3d</fix>
</trkpt>
<trkpt lat="-27.2732017" lon="151.2869193">
  <ele>369.3</ele>
  <time>2026-09-01T19:55:28Z</time>
  <course>70.42</course>
  <speed>27.72</speed>
  <fix>3d</fix>
</trkpt>
<trkpt lat="-27.2731804" lon="151.2869963">
  <ele>369.25</ele>
  <time>2026-09-01T19:55:28Z</time>
  <course>59.28</course>
  <speed>28.082102841489633</speed>
  <fix>3d</fix>
</trkpt>
<trkpt lat="-27.2732017" lon="151.2869193">
  <ele>369.3</ele>
  <time>2026-09-01T19:55:28Z</time>
  <course>70.42</course>
  <speed>27.72</speed>
  <fix>3d</fix>
</trkpt>
<trkpt lat="-27.2731737" lon="151.2870231">
  <ele>369.3</ele>
  <time>2026-09-01T19:55:28Z</time>
  <course>60.52</course>
  <speed>28.227592883559872</speed>
  <fix>3d</fix>
</trkpt>
<trkpt lat="-27.2731859" lon="151.2869728">
  <ele>369.39</ele>
  <time>2026-09-01T19:55:28Z</time>
  <course>72.68</course>
  <speed>28.03</speed>
  <fix>3d</fix>
</trkpt>
<trkpt lat="-27.2731671" lon="151.2870518">
  <ele>369.37</ele>
  <time>2026-09-01T19:55:28Z</time>
  <course>61.89</course>
  <speed>28.372190609820738</speed>
  <fix>3d</fix>
</trkpt>
<trkpt lat="-27.2731859" lon="151.2869728">
  <ele>369.39</ele>
  <time>2026-09-01T19:55:28Z</time>
  <course>72.68</course>
  <speed>28.03</speed>
  <fix>3d</fix>
</trkpt>
<trkpt lat="-27.2731612" lon="151.2870795">
  <ele>369.44</ele>
  <time>2026-09-01T19:55:28Z</time>
  <course>63.2</course>
  <speed>28.504675055155428</speed>
  <fix>3d</fix>
</trkpt>
<trkpt lat="-27.2731718" lon="151.2870275">
  <ele>369.5</ele>
  <time>2026-09-01T19:55:28Z</time>
  <course>74.99</course>
  <speed>28.33</speed>
  <fix>3d</fix>
</trkpt>
<trkpt lat="-27.2731558" lon="151.2871077">
  <ele>369.52</ele>
  <time>2026-09-01T19:55:28Z</time>
  <course>64.49</course>
  <speed>28.636930701456116</speed>
  <fix>3d</fix>
</trkpt>
<trkpt lat="-27.2731718" lon="151.2870275">
  <ele>369.5</ele>
  <time>2026-09-01T19:55:28Z</time>
  <course>74.99</course>
  <speed>28.33</speed>
  <fix>3d</fix>
</trkpt>
<trkpt lat="-27.2731508" lon="151.2871363">
  <ele>369.6</ele>
  <time>2026-09-01T19:55:28Z</time>
  <course>65.8</course>
  <speed>28.772829197004594</speed>
  <fix>3d</fix>
</trkpt>
<trkpt lat="-27.2731595" lon="151.2870834">
  <ele>369.64</ele>
  <time>2026-09-01T19:55:28Z</time>
  <course>77.35</course>
  <speed>28.62</speed>
  <fix>3d</fix>
</trkpt>
<trkpt lat="-27.2731464" lon="151.2871651">
  <ele>369.69</ele>
  <time>2026-09-01T19:55:28Z</time>
  <course>67.16</course>
  <speed>28.903572443557906</speed>
  <fix>3d</fix>
</trkpt>
<trkpt lat="-27.2731595" lon="151.2870834">
  <ele>369.64</ele>
  <time>2026-09-01T19:55:28Z</time>
  <course>77.35</course>
  <speed>28.62</speed>
  <fix>3d</fix>
</trkpt>
<trkpt lat="-27.2731424" lon="151.2871944">
  <ele>369.78</ele>
  <time>2026-09-01T19:55:28Z</time>
  <course>68.39</course>
  <speed>29.038211033050917</speed>
  <fix>3d</fix>
</trkpt>
<trkpt lat="-27.2731492" lon="151.2871403">
  <ele>369.78</ele>
  <time>2026-09-01T19:55:28Z</time>
  <course>79.69</course>
  <speed>28.91</speed>
  <fix>3d</fix>
</trkpt>
<trkpt lat="-27.2731389" lon="151.2872237">
  <ele>369.87</ele>
  <time>2026-09-01T19:55:28Z</time>
  <course>69.6</course>
  <speed>29.157218660222032</speed>
  <fix>3d</fix>
</trkpt>
<trkpt lat="-27.2731492" lon="151.2871403">
  <ele>369.78</ele>
  <time>2026-09-01T19:55:28Z</time>
  <course>79.69</course>
  <speed>28.91</speed>
  <fix>3d</fix>
</trkpt>
<trkpt lat="-27.2731359" lon="151.2872532">
  <ele>369.96</ele>
  <time>2026-09-01T19:55:28Z</time>
  <course>70.86</course>
  <speed>29.276984134299077</speed>
  <fix>3d</fix>
</trkpt>
<trkpt lat="-27.273141" lon="151.2871983">
  <ele>369.96</ele>
  <time>2026-09-01T19:55:28Z</time>
  <course>82.0</course>
  <speed>29.18</speed>
  <fix>3d</fix>
</trkpt>
<trkpt lat="-27.2731334" lon="151.2872829">
  <ele>370.05</ele>
  <time>2026-09-01T19:55:28Z</time>
  <course>72.16</course>
  <speed>29.387347617639808</speed>
  <fix>3d</fix>
</trkpt>
<trkpt lat="-27.273141" lon="151.2871983">
  <ele>369.96</ele>
  <time>2026-09-01T19:55:28Z</time>
  <course>82.0</course>
  <speed>29.18</speed>
  <fix>3d</fix>
</trkpt>
<trkpt lat="-27.2731314" lon="151.2873127">
  <ele>370.14</ele>
  <time>2026-09-01T19:55:28Z</time>
  <course>73.36</course>
  <speed>29.49806942835412</speed>
  <fix>3d</fix>
</trkpt>
<trkpt lat="-27.2731347" lon="151.287257">
  <ele>370.13</ele>
  <time>2026-09-01T19:55:28Z</time>
  <course>84.23</course>
  <speed>29.43</speed>
  <fix>3d</fix>
</trkpt>
<trkpt lat="-27.2731299" lon="151.2873427">
  <ele>370.23</ele>
  <time>2026-09-01T19:55:28Z</time>
  <course>74.6</course>
  <speed>29.599003361599863</speed>
  <fix>3d</fix>
</trkpt>
<trkpt lat="-27.2731347" lon="151.287257">
  <ele>370.13</ele>
  <time>2026-09-01T19:55:28Z</time>
  <course>84.23</course>
  <speed>29.43</speed>
  <fix>3d</fix>
</trkpt>
<trkpt lat="-27.2731289" lon="151.2873729">
  <ele>370.32</ele>
  <time>2026-09-01T19:55:28Z</time>
  <course>75.81</course>
  <speed>29.700244106740943</speed>
  <fix>3d</fix>
</trkpt>
<trkpt lat="-27.2731303" lon="151.2873166">
  <ele>370.31</ele>
  <time>2026-09-01T19:55:28Z</time>
  <course>86.39</course>
  <speed>29.65</speed>
  <fix>3d</fix>
</trkpt>
<trkpt lat="-27.2731283" lon="151.2874031">
  <ele>370.41</ele>
  <time>2026-09-01T19:55:28Z</time>
  <course>77.05</course>
  <speed>29.801134206603614</speed>
  <fix>3d</fix>
</trkpt>
<trkpt lat="-27.2731303" lon="151.2873166">
  <ele>370.31</ele>
  <time>2026-09-01T19:55:28Z</time>
  <course>86.39</course>
  <speed>29.65</speed>
  <fix>3d</fix>
</trkpt>
<trkpt lat="-27.2731282" lon="151.2874334">
  <ele>370.49</ele>
  <time>2026-09-01T19:55:28Z</time>
  <course>78.14</course>
  <speed>29.90104513223576</speed>
  <fix>3d</fix>
</trkpt>
<trkpt lat="-27.273128" lon="151.2873766">
  <ele>370.48</ele>
  <time>2026-09-01T19:55:28Z</time>
  <course>88.49</course>
  <speed>29.86</speed>
  <fix>3d</fix>
</trkpt>
<trkpt lat="-27.2731286" lon="151.2874639">
  <ele>370.57</ele>
  <time>2026-09-01T19:55:28Z</time>
  <course>79.23</course>
  <speed>29.979634754279445</speed>
  <fix>3d</fix>
</trkpt>
<trkpt lat="-27.273128" lon="151.2873766">
  <ele>370.48</ele>
  <time>2026-09-01T19:55:28Z</time>
  <course>88.49</course>
  <speed>29.86</speed>
  <fix>3d</fix>
</trkpt>
<trkpt lat="-27.2731295" lon="151.2874943">
  <ele>370.65</ele>
  <time>2026-09-01T19:55:28Z</time>
  <course>80.39</course>
  <speed>30.06641315488098</speed>
  <fix>3d</fix>
</trkpt>
<trkpt lat="-27.2731275" lon="151.2874372">
  <ele>370.65</ele>
  <time>2026-09-01T19:55:28Z</time>
  <course>90.5</course>
  <speed>30.05</speed>
  <fix>3d</fix>
</trkpt>
<trkpt lat="-27.2731307" lon="151.2875247">
  <ele>370.72</ele>
  <time>2026-09-01T19:55:28Z</time>
  <course>81.54</course>
  <speed>30.15082917599448</speed>
  <fix>3d</fix>
</trkpt>
<trkpt lat="-27.2731275" lon="151.2874372">
  <ele>370.65</ele>
  <time>2026-09-01T19:55:28Z</time>
  <course>90.5</course>
  <speed>30.05</speed>
  <fix>3d</fix>
</trkpt>
<trkpt lat="-27.2731325" lon="151.2875551">
  <ele>370.79</ele>
  <time>2026-09-01T19:55:28Z</time>
  <course>82.58</course>
  <speed>30.212411356924164</speed>
  <fix>3d</fix>
</trkpt>
<trkpt lat="-27.2731289" lon="151.2874982">
  <ele>370.8</ele>
  <time>2026-09-01T19:55:28Z</time>
  <course>92.43</course>
  <speed>30.23</speed>
  <fix>3d</fix>
</trkpt>
<trkpt lat="-27.2731346" lon="151.2875856">
  <ele>370.86</ele>
  <time>2026-09-01T19:55:28Z</time>
  <course>83.67</course>
  <speed>30.280614260612353</speed>
  <fix>3d</fix>
</trkpt>
<trkpt lat="-27.2731289" lon="151.2874982">
  <ele>370.8</ele>
  <time>2026-09-01T19:55:28Z</time>
  <course>92.43</course>
  <speed>30.23</speed>
  <fix>3d</fix>
</trkpt>
<trkpt lat="-27.2731371" lon="151.2876159">
  <ele>370.92</ele>
  <time>2026-09-01T19:55:28Z</time>
  <course>84.75</course>
  <speed>30.333997428627832</speed>
  <fix>3d</fix>
</trkpt>
<trkpt lat="-27.2731321" lon="151.2875595">
  <ele>370.93</ele>
  <time>2026-09-01T19:55:28Z</time>
  <course>94.28</course>
  <speed>30.39</speed>
  <fix>3d</fix>
</trkpt>
<trkpt lat="-27.27314" lon="151.2876462">
  <ele>370.97</ele>
  <time>2026-09-01T19:55:28Z</time>
  <course>85.8</course>
  <speed>30.392770521951434</speed>
  <fix>3d</fix>
</trkpt>
<trkpt lat="-27.2731321" lon="151.2875595">
  <ele>370.93</ele>
  <time>2026-09-01T19:55:28Z</time>
  <course>94.28</course>
  <speed>30.39</speed>
  <fix>3d</fix>
</trkpt>
<trkpt lat="-27.2731433" lon="151.2876765">
  <ele>371.03</ele>
  <time>2026-09-01T19:55:28Z</time>
  <course>86.85</course>
  <speed>30.437966423530995</speed>
  <fix>3d</fix>
</trkpt>
<trkpt lat="-27.273137" lon="151.2876208">
  <ele>371.05</ele>
  <time>2026-09-01T19:55:28Z</time>
  <course>96.02</course>
  <speed>30.53</speed>
  <fix>3d</fix>
</trkpt>
<trkpt lat="-27.2731471" lon="151.2877068">
  <ele>371.08</ele>
  <time>2026-09-01T19:55:28Z</time>
  <course>87.79</course>
  <speed>30.48652325208632</speed>
  <fix>3d</fix>
</trkpt>
<trkpt lat="-27.273137" lon="151.2876208">
  <ele>371.05</ele>
  <time>2026-09-01T19:55:28Z</time>
  <course>96.02</course>
  <speed>30.53</speed>
  <fix>3d</fix>
</trkpt>
<trkpt lat="-27.2731512" lon="151.2877371">
  <ele>371.13</ele>
  <time>2026-09-01T19:55:28Z</time>
  <course>88.64</course>
  <speed>30.527726741439498</speed>
  <fix>3d</fix>
</trkpt>
<trkpt lat="-27.2731436" lon="151.2876822">
  <ele>371.15</ele>
  <time>2026-09-01T19:55:28Z</time>
  <course>97.69</course>
  <speed>30.67</speed>
  <fix>3d</fix>
</trkpt>
<trkpt lat="-27.2731556" lon="151.2877673">
  <ele>371.17</ele>
  <time>2026-09-01T19:55:28Z</time>
  <course>89.55</course>
  <speed>30.56255388543307</speed>
  <fix>3d</fix>
</trkpt>
<trkpt lat="-27.2731436" lon="151.2876822">
  <ele>371.15</ele>
  <time>2026-09-01T19:55:28Z</time>
  <course>97.69</course>
  <speed>30.67</speed>
  <fix>3d</fix>
</trkpt>
<trkpt lat="-27.2731604" lon="151.2877976">
  <ele>371.21</ele>
  <time>2026-09-01T19:55:28Z</time>
  <course>90.52</course>
  <speed>30.598668271674832</speed>
  <fix>3d</fix>
</trkpt>
<trkpt lat="-27.2731517" lon="151.2877437">
  <ele>371.25</ele>
  <time>2026-09-01T19:55:28Z</time>
  <course>99.24</course>
  <speed>30.78</speed>
  <fix>3d</fix>
</trkpt>
<trkpt lat="-27.2731656" lon="151.2878281">
  <ele>371.25</ele>
  <time>2026-09-01T19:55:28Z</time>
  <course>91.49</course>
  <speed>30.641191230107225</speed>
  <fix>3d</fix>
</trkpt>
<trkpt lat="-27.2731517" lon="151.2877437">
  <ele>371.25</ele>
  <time>2026-09-01T19:55:28Z</time>
  <course>99.24</course>
  <speed>30.78</speed>
  <fix>3d</fix>
</trkpt>
<trkpt lat="-27.2731711" lon="151.2878586">
  <ele>371.29</ele>
  <time>2026-09-01T19:55:28Z</time>
  <course>92.28</course>
  <speed>30.684245143069756</speed>
  <fix>3d</fix>
</trkpt>
<trkpt lat="-27.2731612" lon="151.287805">
  <ele>371.32</ele>
  <time>2026-09-01T19:55:28Z</time>
  <course>100.68</course>
  <speed>30.88</speed>
  <fix>3d</fix>
</trkpt>
<trkpt lat="-27.2731769" lon="151.287889">
  <ele>371.32</ele>
  <time>2026-09-01T19:55:28Z</time>
  <course>93.09</course>
  <speed>30.724949145604782</speed>
  <fix>3d</fix>
</trkpt>
<trkpt lat="-27.2731612" lon="151.287805">
  <ele>371.32</ele>
  <time>2026-09-01T19:55:28Z</time>
  <course>100.68</course>
  <speed>30.88</speed>
  <fix>3d</fix>
</trkpt>
<trkpt lat="-27.2731831" lon="151.2879195">
  <ele>371.34</ele>
  <time>2026-09-01T19:55:28Z</time>
  <course>93.87</course>
  <speed>30.778905113730083</speed>
  <fix>3d</fix>
</trkpt>
<trkpt lat="-27.2731722" lon="151.2878663">
  <ele>371.38</ele>
  <time>2026-09-01T19:55:28Z</time>
  <course>102.04</course>
  <speed>30.98</speed>
  <fix>3d</fix>
</trkpt>
<trkpt lat="-27.2731895" lon="151.28795">
  <ele>371.36</ele>
  <time>2026-09-01T19:55:28Z</time>
  <course>94.6</course>
  <speed>30.819469495758685</speed>
  <fix>3d</fix>
</trkpt>
<trkpt lat="-27.2731722" lon="151.2878663">
  <ele>371.38</ele>
  <time>2026-09-01T19:55:28Z</time>
  <course>102.04</course>
  <speed>30.98</speed>
  <fix>3d</fix>
</trkpt>
<trkpt lat="-27.2731962" lon="151.2879804">
  <ele>371.38</ele>
  <time>2026-09-01T19:55:28Z</time>
  <course>95.33</course>
  <speed>30.862925979239236</speed>
  <fix>3d</fix>
</trkpt>
<trkpt lat="-27.2731845" lon="151.2879274">
  <ele>371.43</ele>
  <time>2026-09-01T19:55:28Z</time>
  <course>103.28</course>
  <speed>31.06</speed>
  <fix>3d</fix>
</trkpt>
<trkpt lat="-27.2732032" lon="151.2880108">
  <ele>371.4</ele>
  <time>2026-09-01T19:55:28Z</time>
  <course>96.05</course>
  <speed>30.897037074774662</speed>
  <fix>3d</fix>
</trkpt>
<trkpt lat="-27.2731845" lon="151.2879274">
  <ele>371.43</ele>
  <time>2026-09-01T19:55:28Z</time>
  <course>103.28</course>
  <speed>31.06</speed>
  <fix>3d</fix>
</trkpt>
<trkpt lat="-27.2732104" lon="151.2880411">
  <ele>371.41</ele>
  <time>2026-09-01T19:55:28Z</time>
  <course>96.7</course>
  <speed>30.931235022223085</speed>
  <fix>3d</fix>
</trkpt>
<trkpt lat="-27.2731978" lon="151.2879884">
  <ele>371.46</ele>
  <time>2026-09-01T19:55:28Z</time>
  <course>104.41</course>
  <speed>31.13</speed>
  <fix>3d</fix>
</trkpt>
<trkpt lat="-27.2732179" lon="151.2880713">
  <ele>371.43</ele>
  <time>2026-09-01T19:55:28Z</time>
  <course>97.34</course>
  <speed>30.959796510959176</speed>
  <fix>3d</fix>
</trkpt>
<trkpt lat="-27.2731978" lon="151.2879884">
  <ele>371.46</ele>
  <time>2026-09-01T19:55:28Z</time>
  <course>104.41</course>
  <speed>31.13</speed>
  <fix>3d</fix>
</trkpt>
<trkpt lat="-27.2732255" lon="151.2881015">
  <ele>371.44</ele>
  <time>2026-09-01T19:55:28Z</time>
  <course>98.0</course>
  <speed>30.975202985614157</speed>
  <fix>3d</fix>
</trkpt>
<trkpt lat="-27.2732123" lon="151.2880493">
  <ele>371.47</ele>
  <time>2026-09-01T19:55:28Z</time>
  <course>105.44</course>
  <speed>31.2</speed>
  <fix>3d</fix>
</trkpt>
<trkpt lat="-27.2732334" lon="151.2881316">
  <ele>371.45</ele>
  <time>2026-09-01T19:55:28Z</time>
  <course>98.56</course>
  <speed>30.948334365519578</speed>
  <fix>3d</fix>
</trkpt>
<trkpt lat="-27.2732123" lon="151.2880493">
  <ele>371.47</ele>
  <time>2026-09-01T19:55:28Z</time>
  <course>105.44</course>
  <speed>31.2</speed>
  <fix>3d</fix>
</trkpt>
<trkpt lat="-27.2732415" lon="151.2881616">
  <ele>371.46</ele>
  <time>2026-09-01T19:55:28Z</time>
  <course>99.21</course>
  <speed>30.88195751567572</speed>
  <fix>3d</fix>
</trkpt>
<trkpt lat="-27.2732277" lon="151.28811">
  <ele>371.49</ele>
  <time>2026-09-01T19:55:28Z</time>
  <course>106.37</course>
  <speed>31.23</speed>
  <fix>3d</fix>
</trkpt>
<trkpt lat="-27.2732497" lon="151.2881914">
  <ele>371.47</ele>
  <time>2026-09-01T19:55:28Z</time>
  <course>99.84</course>
  <speed>30.757056100999</speed>
  <fix>3d</fix>
</trkpt>
<trkpt lat="-27.2732277" lon="151.28811">
  <ele>371.49</ele>
  <time>2026-09-01T19:55:28Z</time>
  <course>106.37</course>
  <speed>31.23</speed>
  <fix>3d</fix>
</trkpt>
<trkpt lat="-27.2732582" lon="151.2882213">
  <ele>371.48</ele>
  <time>2026-09-01T19:55:28Z</time>
  <course>100.38</course>
  <speed>30.627577442559836</speed>
  <fix>3d</fix>
</trkpt>
<trkpt lat="-27.2732439" lon="151.2881704">
  <ele>371.5</ele>
  <time>2026-09-01T19:55:28Z</time>
  <course>107.25</course>
  <speed>31.13</speed>
  <fix>3d</fix>
</trkpt>
<trkpt lat="-27.2732669" lon="151.2882509">
  <ele>371.5</ele>
  <time>2026-09-01T19:55:28Z</time>
  <course>100.89</course>
  <speed>30.493843640971203</speed>
  <fix>3d</fix>
</trkpt>
<trkpt lat="-27.2732439" lon="151.2881704">
  <ele>371.5</ele>
  <time>2026-09-01T19:55:28Z</time>
  <course>107.25</course>
  <speed>31.13</speed>
  <fix>3d</fix>
</trkpt>
<trkpt lat="-27.2732758" lon="151.2882804">
  <ele>371.53</ele>
  <time>2026-09-01T19:55:28Z</time>
  <course>101.35</course>
  <speed>30.3808311275383</speed>
  <fix>3d</fix>
</trkpt>
<trkpt lat="-27.2732608" lon="151.2882302">
  <ele>371.52</ele>
  <time>2026-09-01T19:55:28Z</time>
  <course>108.15</course>
  <speed>30.88</speed>
  <fix>3d</fix>
</trkpt>
<trkpt lat="-27.2732847" lon="151.2883097">
  <ele>371.56</ele>
  <time>2026-09-01T19:55:28Z</time>
  <course>101.75</course>
  <speed>30.262936076990282</speed>
  <fix>3d</fix>
</trkpt>
<trkpt lat="-27.2732608" lon="151.2882302">
  <ele>371.52</ele>
  <time>2026-09-01T19:55:28Z</time>
  <course>108.15</course>
  <speed>30.88</speed>
  <fix>3d</fix>
</trkpt>
<trkpt lat="-27.2732939" lon="151.288339">
  <ele>371.59</ele>
  <time>2026-09-01T19:55:28Z</time>
  <course>102.15</course>
  <speed>30.16197937801828</speed>
  <fix>3d</fix>
</trkpt>
<trkpt lat="-27.2732784" lon="151.2882891">
  <ele>371.57</ele>
  <time>2026-09-01T19:55:28Z</time>
  <course>109.02</course>
  <speed>30.61</speed>
  <fix>3d</fix>
</trkpt>
<trkpt lat="-27.2733032" lon="151.2883679">
  <ele>371.63</ele>
  <time>2026-09-01T19:55:28Z</time>
  <course>102.55</course>
  <speed>30.064849908156866</speed>
  <fix>3d</fix>
</trkpt>
<trkpt lat="-27.2732784" lon="151.2882891">
  <ele>371.57</ele>
  <time>2026-09-01T19:55:28Z</time>
  <course>109.02</course>
  <speed>30.61</speed>
  <fix>3d</fix>
</trkpt>
<trkpt lat="-27.2733126" lon="151.2883969">
  <ele>371.66</ele>
  <time>2026-09-01T19:55:28Z</time>
  <course>102.94</course>
  <speed>29.959340780464444</speed>
  <fix>3d</fix>
</trkpt>
<trkpt lat="-27.2732967" lon="151.2883472">
  <ele>371.63</ele>
  <time>2026-09-01T19:55:28Z</time>
  <course>109.79</course>
  <speed>30.36</speed>
  <fix>3d</fix>
</trkpt>
<trkpt lat="-27.2733221" lon="151.2884255">
  <ele>371.71</ele>
  <time>2026-09-01T19:55:28Z</time>
  <course>103.29</course>
  <speed>29.78464033692534</speed>
  <fix>3d</fix>
</trkpt>
<trkpt lat="-27.2732967" lon="151.2883472">
  <ele>371.63</ele>
  <time>2026-09-01T19:55:28Z</time>
  <course>109.79</course>
  <speed>30.36</speed>
  <fix>3d</fix>
</trkpt>
<trkpt lat="-27.2733316" lon="151.2884536">
  <ele>371.76</ele>
  <time>2026-09-01T19:55:28Z</time>
  <course>103.63</course>
  <speed>29.556972104733596</speed>
  <fix>3d</fix>
</trkpt>
<trkpt lat="-27.2733154" lon="151.2884045">
  <ele>371.71</ele>
  <time>2026-09-01T19:55:28Z</time>
  <course>110.47</course>
  <speed>30.09</speed>
  <fix>3d</fix>
</trkpt>
<trkpt lat="-27.2733412" lon="151.2884815">
  <ele>371.83</ele>
  <time>2026-09-01T19:55:28Z</time>
  <course>103.99</course>
  <speed>29.259781270542675</speed>
  <fix>3d</fix>
</trkpt>
<trkpt lat="-27.2733154" lon="151.2884045">
  <ele>371.71</ele>
  <time>2026-09-01T19:55:28Z</time>
  <course>110.47</course>
  <speed>30.09</speed>
  <fix>3d</fix>
</trkpt>
<trkpt lat="-27.2733508" lon="151.2885091">
  <ele>371.92</ele>
  <time>2026-09-01T19:55:28Z</time>
  <course>104.31</course>
  <speed>28.928091883150536</speed>
  <fix>3d</fix>
</trkpt>
<trkpt lat="-27.2733344" lon="151.2884611">
  <ele>371.81</ele>
  <time>2026-09-01T19:55:28Z</time>
  <course>111.09</course>
  <speed>29.66</speed>
  <fix>3d</fix>
</trkpt>
<trkpt lat="-27.2733604" lon="151.2885362">
  <ele>372.03</ele>
  <time>2026-09-01T19:55:28Z</time>
  <course>104.58</course>
  <speed>28.571104283873943</speed>
  <fix>3d</fix>
</trkpt>
<trkpt lat="-27.2733344" lon="151.2884611">
  <ele>371.81</ele>
  <time>2026-09-01T19:55:28Z</time>
  <course>111.09</course>
  <speed>29.66</speed>
  <fix>3d</fix>
</trkpt>
<trkpt lat="-27.27337" lon="151.2885632">
  <ele>372.16</ele>
  <time>2026-09-01T19:55:28Z</time>
  <course>104.81</course>
  <speed>28.20723488752487</speed>
  <fix>3d</fix>
</trkpt>
<trkpt lat="-27.2733536" lon="151.2885163">
  <ele>371.97</ele>
  <time>2026-09-01T19:55:28Z</time>
  <course>111.67</course>
  <speed>29.03</speed>
  <fix>3d</fix>
</trkpt>
<trkpt lat="-27.2733796" lon="151.2885896">
  <ele>372.32</ele>
  <time>2026-09-01T19:55:28Z</time>
  <course>104.99</course>
  <speed>27.836278486895477</speed>
  <fix>3d</fix>
</trkpt>
<trkpt lat="-27.2733536" lon="151.2885163">
  <ele>371.97</ele>
  <time>2026-09-01T19:55:28Z</time>
  <course>111.67</course>
  <speed>29.03</speed>
  <fix>3d</fix>
</trkpt>
<trkpt lat="-27.2733891" lon="151.2886155">
  <ele>372.51</ele>
  <time>2026-09-01T19:55:28Z</time>
  <course>105.12</course>
  <speed>27.443359852612797</speed>
  <fix>3d</fix>
</trkpt>
<trkpt lat="-27.2733729" lon="151.2885701">
  <ele>372.22</ele>
  <time>2026-09-01T19:55:28Z</time>
  <course>112.17</course>
  <speed>28.31</speed>
  <fix>3d</fix>
</trkpt>
<trkpt lat="-27.2733985" lon="151.2886413">
  <ele>372.74</ele>
  <time>2026-09-01T19:55:28Z</time>
  <course>105.22</course>
  <speed>27.04311372604863</speed>
  <fix>3d</fix>
</trkpt>
<trkpt lat="-27.2733729" lon="151.2885701">
  <ele>372.22</ele>
  <time>2026-09-01T19:55:28Z</time>
  <course>112.17</course>
  <speed>28.31</speed>
  <fix>3d</fix>
</trkpt>
<trkpt lat="-27.273408" lon="151.2886666">
  <ele>372.99</ele>
  <time>2026-09-01T19:55:28Z</time>
  <course>105.28</course>
  <speed>26.639243607880463</speed>
  <fix>3d</fix>
</trkpt>
<trkpt lat="-27.273392" lon="151.2886222">
  <ele>372.57</ele>
  <time>2026-09-01T19:55:28Z</time>
  <course>112.58</course>
  <speed>27.53</speed>
  <fix>3d</fix>
</trkpt>
<trkpt lat="-27.2734173" lon="151.2886914">
  <ele>373.27</ele>
  <time>2026-09-01T19:55:28Z</time>
  <course>105.3</course>
  <speed>26.213250466128766</speed>
  <fix>3d</fix>
</trkpt>
<trkpt lat="-27.273392" lon="151.2886222">
  <ele>372.57</ele>
  <time>2026-09-01T19:55:28Z</time>
  <course>112.58</course>
  <speed>27.53</speed>
  <fix>3d</fix>
</trkpt>
<trkpt lat="-27.2734266" lon="151.2887159">
  <ele>373.57</ele>
  <time>2026-09-01T19:55:28Z</time>
  <course>105.3</course>
  <speed>25.783545140263392</speed>
  <fix>3d</fix>
</trkpt>
<trkpt lat="-27.2734108" lon="151.2886728">
  <ele>373.04</ele>
  <time>2026-09-01T19:55:28Z</time>
  <course>112.92</course>
  <speed>26.7</speed>
  <fix>3d</fix>
</trkpt>
<trkpt lat="-27.2734357" lon="151.2887399">
  <ele>373.9</ele>
  <time>2026-09-01T19:55:28Z</time>
  <course>105.28</course>
  <speed>25.340870150805795</speed>
  <fix>3d</fix>
</trkpt>
<trkpt lat="-27.2734108" lon="151.2886728">
  <ele>373.04</ele>
  <time>2026-09-01T19:55:28Z</time>
  <course>112.92</course>
  <speed>26.7</speed>
  <fix>3d</fix>
</trkpt>
<trkpt lat="-27.2734447" lon="151.2887635">
  <ele>374.25</ele>
  <time>2026-09-01T19:55:28Z</time>
  <course>105.23</course>
  <speed>24.89832926121751</speed>
  <fix>3d</fix>
</trkpt>
<trkpt lat="-27.2734294" lon="151.2887217">
  <ele>373.62</ele>
  <time>2026-09-01T19:55:28Z</time>
  <course>113.21</course>
  <speed>25.82</speed>
  <fix>3d</fix>
</trkpt>
<trkpt lat="-27.2734536" lon="151.2887866">
  <ele>374.63</ele>
  <time>2026-09-01T19:55:28Z</time>
  <course>105.15</course>
  <speed>24.442784211296388</speed>
  <fix>3d</fix>
</trkpt>
<trkpt lat="-27.2734294" lon="151.2887217">
  <ele>373.62</ele>
  <time>2026-09-01T19:55:28Z</time>
  <course>113.21</course>
  <speed>25.82</speed>
  <fix>3d</fix>
</trkpt>
<trkpt lat="-27.2734625" lon="151.2888093">
  <ele>375.02</ele>
  <time>2026-09-01T19:55:28Z</time>
  <course>105.04</course>
  <speed>23.983379661757432</speed>
  <fix>3d</fix>
</trkpt>
<trkpt lat="-27.2734474" lon="151.2887688">
  <ele>374.3</ele>
  <time>2026-09-01T19:55:28Z</time>
  <course>113.47</course>
  <speed>24.89</speed>
  <fix>3d</fix>
</trkpt>
<trkpt lat="-27.2734711" lon="151.2888315">
  <ele>375.43</ele>
  <time>2026-09-01T19:55:28Z</time>
  <course>104.9</course>
  <speed>23.510901726645876</speed>
  <fix>3d</fix>
</trkpt>
<trkpt lat="-27.2734474" lon="151.2887688">
  <ele>374.3</ele>
  <time>2026-09-01T19:55:28Z</time>
  <course>113.47</course>
  <speed>24.89</speed>
  <fix>3d</fix>
</trkpt>
<trkpt lat="-27.2734797" lon="151.2888533">
  <ele>375.85</ele>
  <time>2026-09-01T19:55:28Z</time>
  <course>104.73</course>
  <speed>23.04251722360211</speed>
  <fix>3d</fix>
</trkpt>
<trkpt lat="-27.273465" lon="151.2888141">
  <ele>375.06</ele>
  <time>2026-09-01T19:55:28Z</time>
  <course>113.7</course>
  <speed>23.95</speed>
  <fix>3d</fix>
</trkpt>
<trkpt lat="-27.2734881" lon="151.2888746">
  <ele>376.29</ele>
  <time>2026-09-01T19:55:28Z</time>
  <course>104.53</course>
  <speed>22.566180447740816</speed>
  <fix>3d</fix>
</trkpt>
<trkpt lat="-27.273465" lon="151.2888141">
  <ele>375.06</ele>
  <time>2026-09-01T19:55:28Z</time>
  <course>113.7</course>
  <speed>23.95</speed>
  <fix>3d</fix>
</trkpt>
<trkpt lat="-27.2734963" lon="151.2888953">
  <ele>376.73</ele>
  <time>2026-09-01T19:55:28Z</time>
  <course>104.3</course>
  <speed>22.099042965703287</speed>
  <fix>3d</fix>
</trkpt>
<trkpt lat="-27.273482" lon="151.2888575">
  <ele>375.88</ele>
  <time>2026-09-01T19:55:28Z</time>
  <course>113.92</course>
  <speed>22.98</speed>
  <fix>3d</fix>
</trkpt>
<trkpt lat="-27.2735044" lon="151.2889155">
  <ele>377.17</ele>
  <time>2026-09-01T19:55:28Z</time>
  <course>104.06</course>
  <speed>21.64514957213278</speed>
  <fix>3d</fix>
</trkpt>
<trkpt lat="-27.273482" lon="151.2888575">
  <ele>375.88</ele>
  <time>2026-09-01T19:55:28Z</time>
  <course>113.92</course>
  <speed>22.98</speed>
  <fix>3d</fix>
</trkpt>
<trkpt lat="-27.2735123" lon="151.2889353">
  <ele>377.6</ele>
  <time>2026-09-01T19:55:28Z</time>
  <course>103.81</course>
  <speed>21.218718151669762</speed>
  <fix>3d</fix>
</trkpt>
<trkpt lat="-27.2734985" lon="151.288899">
  <ele>376.74</ele>
  <time>2026-09-01T19:55:28Z</time>
  <course>114.1</course>
  <speed>22.02</speed>
  <fix>3d</fix>
</trkpt>
<trkpt lat="-27.27352" lon="151.2889546">
  <ele>378.01</ele>
  <time>2026-09-01T19:55:28Z</time>
  <course>103.54</course>
  <speed>20.832916262491914</speed>
  <fix>3d</fix>
</trkpt>
<trkpt lat="-27.2734985" lon="151.288899">
  <ele>376.74</ele>
  <time>2026-09-01T19:55:28Z</time>
  <course>114.1</course>
  <speed>22.02</speed>
  <fix>3d</fix>
</trkpt>
<trkpt lat="-27.2735277" lon="151.2889737">
  <ele>378.41</ele>
  <time>2026-09-01T19:55:28Z</time>
  <course>103.24</course>
  <speed>20.47859858486415</speed>
  <fix>3d</fix>
</trkpt>
<trkpt lat="-27.2735143" lon="151.2889387">
  <ele>377.6</ele>
  <time>2026-09-01T19:55:28Z</time>
  <course>114.25</course>
  <speed>21.13</speed>
  <fix>3d</fix>
</trkpt>
<trkpt lat="-27.2735352" lon="151.2889925">
  <ele>378.79</ele>
  <time>2026-09-01T19:55:28Z</time>
  <course>102.91</course>
  <speed>20.13751225946244</speed>
  <fix>3d</fix>
</trkpt>
<trkpt lat="-27.2735143" lon="151.2889387">
  <ele>377.6</ele>
  <time>2026-09-01T19:55:28Z</time>
  <course>114.25</course>
  <speed>21.13</speed>
  <fix>3d</fix>
</trkpt>
<trkpt lat="-27.2735427" lon="151.289011">
  <ele>379.14</ele>
  <time>2026-09-01T19:55:28Z</time>
  <course>102.55</course>
  <speed>19.819707364136335</speed>
  <fix>3d</fix>
</trkpt>
<trkpt lat="-27.2735296" lon="151.2889769">
  <ele>378.41</ele>
  <time>2026-09-01T19:55:28Z</time>
  <course>114.35</course>
  <speed>20.36</speed>
  <fix>3d</fix>
</trkpt>
<trkpt lat="-27.2735501" lon="151.2890293">
  <ele>379.47</ele>
  <time>2026-09-01T19:55:28Z</time>
  <course>102.14</course>
  <speed>19.501902471297512</speed>
  <fix>3d</fix>
</trkpt>
<trkpt lat="-27.2735296" lon="151.2889769">
  <ele>378.41</ele>
  <time>2026-09-01T19:55:28Z</time>
  <course>114.35</course>
  <speed>20.36</speed>
  <fix>3d</fix>
</trkpt>
<trkpt lat="-27.2735573" lon="151.2890472">
  <ele>379.76</ele>
  <time>2026-09-01T19:55:28Z</time>
  <course>101.7</course>
  <speed>19.211467929338454</speed>
  <fix>3d</fix>
</trkpt>
<trkpt lat="-27.2735445" lon="151.2890138">
  <ele>379.12</ele>
  <time>2026-09-01T19:55:28Z</time>
  <course>114.38</course>
  <speed>19.67</speed>
  <fix>3d</fix>
</trkpt>
<trkpt lat="-27.2735644" lon="151.2890649">
  <ele>380.04</ele>
  <time>2026-09-01T19:55:28Z</time>
  <course>101.21</course>
  <speed>18.921041197566268</speed>
  <fix>3d</fix>
</trkpt>
<trkpt lat="-27.2735445" lon="151.2890138">
  <ele>379.12</ele>
  <time>2026-09-01T19:55:28Z</time>
  <course>114.38</course>
  <speed>19.67</speed>
  <fix>3d</fix>
</trkpt>
<trkpt lat="-27.2735714" lon="151.2890822">
  <ele>380.29</ele>
  <time>2026-09-01T19:55:28Z</time>
  <course>100.66</course>
  <speed>18.648884685149405</speed>
  <fix>3d</fix>
</trkpt>
<trkpt lat="-27.2735588" lon="151.2890494">
  <ele>379.74</ele>
  <time>2026-09-01T19:55:28Z</time>
  <course>114.34</course>
  <speed>19.05</speed>
  <fix>3d</fix>
</trkpt>
<trkpt lat="-27.2735782" lon="151.2890993">
  <ele>380.51</ele>
  <time>2026-09-01T19:55:28Z</time>
  <course>100.08</course>
  <speed>18.372688970316783</speed>
  <fix>3d</fix>
</trkpt>
<trkpt lat="-27.2735588" lon="151.2890494">
  <ele>379.74</ele>
  <time>2026-09-01T19:55:28Z</time>
  <course>114.34</course>
  <speed>19.05</speed>
  <fix>3d</fix>
</trkpt>
<trkpt lat="-27.2735849" lon="151.2891162">
  <ele>380.71</ele>
  <time>2026-09-01T19:55:28Z</time>
  <course>99.44</course>
  <speed>18.114836460757793</speed>
  <fix>3d</fix>
</trkpt>
<trkpt lat="-27.2735727" lon="151.2890839">
  <ele>380.25</ele>
  <time>2026-09-01T19:55:28Z</time>
  <course>114.21</course>
  <speed>18.47</speed>
  <fix>3d</fix>
</trkpt>
<trkpt lat="-27.2735915" lon="151.2891328">
  <ele>380.89</ele>
  <time>2026-09-01T19:55:28Z</time>
  <course>98.76</course>
  <speed>17.866225118922017</speed>
  <fix>3d</fix>
</trkpt>
<trkpt lat="-27.2735727" lon="151.2890839">
  <ele>380.25</ele>
  <time>2026-09-01T19:55:28Z</time>
  <course>114.21</course>
  <speed>18.47</speed>
  <fix>3d</fix>
</trkpt>
<trkpt lat="-27.273598" lon="151.2891492">
  <ele>381.05</ele>
  <time>2026-09-01T19:55:28Z</time>
  <course>98.03</course>
  <speed>17.617721192027076</speed>
  <fix>3d</fix>
</trkpt>
<trkpt lat="-27.273586" lon="151.2891175">
  <ele>380.66</ele>
  <time>2026-09-01T19:55:28Z</time>
  <course>113.98</course>
  <speed>17.93</speed>
  <fix>3d</fix>
</trkpt>
<trkpt lat="-27.2736043" lon="151.2891654">
  <ele>381.19</ele>
  <time>2026-09-01T19:55:28Z</time>
  <course>97.26</course>
  <speed>17.3837193948821</speed>
  <fix>3d</fix>
</trkpt>
<trkpt lat="-27.273586" lon="151.2891175">
  <ele>380.66</ele>
  <time>2026-09-01T19:55:28Z</time>
  <course>113.98</course>
  <speed>17.93</speed>
  <fix>3d</fix>
</trkpt>
<trkpt lat="-27.2736104" lon="151.2891814">
  <ele>381.31</ele>
  <time>2026-09-01T19:55:28Z</time>
  <course>96.44</course>
  <speed>17.149941690862974</speed>
  <fix>3d</fix>
</trkpt>
<trkpt lat="-27.2735988" lon="151.2891502">
  <ele>380.99</ele>
  <time>2026-09-01T19:55:28Z</time>
  <course>113.65</course>
  <speed>17.42</speed>
  <fix>3d</fix>
</trkpt>
<trkpt lat="-27.2736165" lon="151.2891973">
  <ele>381.4</ele>
  <time>2026-09-01T19:55:28Z</time>
  <course>95.56</course>
  <speed>16.93481916053431</speed>
  <fix>3d</fix>
</trkpt>
<trkpt lat="-27.2735988" lon="151.2891502">
  <ele>380.99</ele>
  <time>2026-09-01T19:55:28Z</time>
  <course>113.65</course>
  <speed>17.42</speed>
  <fix>3d</fix>
</trkpt>
<trkpt lat="-27.2736224" lon="151.2892129">
  <ele>381.48</ele>
  <time>2026-09-01T19:55:28Z</time>
  <course>94.64</course>
  <speed>16.720002990430356</speed>
  <fix>3d</fix>
</trkpt>
<trkpt lat="-27.2736112" lon="151.2891821">
  <ele>381.24</ele>
  <time>2026-09-01T19:55:28Z</time>
  <course>113.22</course>
  <speed>16.95</speed>
  <fix>3d</fix>
</trkpt>
<trkpt lat="-27.2736281" lon="151.2892283">
  <ele>381.54</ele>
  <time>2026-09-01T19:55:28Z</time>
  <course>93.68</course>
  <speed>16.510944854853097</speed>
  <fix>3d</fix>
</trkpt>
<trkpt lat="-27.2736112" lon="151.2891821">
  <ele>381.24</ele>
  <time>2026-09-01T19:55:28Z</time>
  <course>113.22</course>
  <speed>16.95</speed>
  <fix>3d</fix>
</trkpt>
<trkpt lat="-27.2736336" lon="151.2892435">
  <ele>381.59</ele>
  <time>2026-09-01T19:55:28Z</time>
  <course>92.66</course>
  <speed>16.302346456875465</speed>
  <fix>3d</fix>
</trkpt>
<trkpt lat="-27.2736229" lon="151.2892133">
  <ele>381.41</ele>
  <time>2026-09-01T19:55:28Z</time>
  <course>112.69</course>
  <speed>16.51</speed>
  <fix>3d</fix>
</trkpt>
<trkpt lat="-27.273639" lon="151.2892585">
  <ele>381.62</ele>
  <time>2026-09-01T19:55:28Z</time>
  <course>91.62</course>
  <speed>16.103515144216185</speed>
  <fix>3d</fix>
</trkpt>
<trkpt lat="-27.2736229" lon="151.2892133">
  <ele>381.41</ele>
  <time>2026-09-01T19:55:28Z</time>
  <course>112.69</course>
  <speed>16.51</speed>
  <fix>3d</fix>
</trkpt>
<trkpt lat="-27.2736443" lon="151.2892734">
  <ele>381.64</ele>
  <time>2026-09-01T19:55:28Z</time>
  <course>90.52</course>
  <speed>15.914534237608086</speed>
  <fix>3d</fix>
</trkpt>
<trkpt lat="-27.2736341" lon="151.2892437">
  <ele>381.53</ele>
  <time>2026-09-01T19:55:28Z</time>
  <course>112.05</course>
  <speed>16.1</speed>
  <fix>3d</fix>
</trkpt>
<trkpt lat="-27.2736493" lon="151.2892879">
  <ele>381.65</ele>
  <time>2026-09-01T19:55:28Z</time>
  <course>89.41</course>
  <speed>15.722572944655083</speed>
  <fix>3d</fix>
</trkpt>
<trkpt lat="-27.2736341" lon="151.2892437">
  <ele>381.53</ele>
  <time>2026-09-01T19:55:28Z</time>
  <course>112.05</course>
  <speed>16.1</speed>
  <fix>3d</fix>
</trkpt>
<trkpt lat="-27.2736543" lon="151.2893025">
  <ele>381.64</ele>
  <time>2026-09-01T19:55:28Z</time>
  <course>88.24</course>
  <speed>15.540723921362222</speed>
  <fix>3d</fix>
</trkpt>
<trkpt lat="-27.2736446" lon="151.2892736">
  <ele>381.58</ele>
  <time>2026-09-01T19:55:28Z</time>
  <course>111.32</course>
  <speed>15.71</speed>
  <fix>3d</fix>
</trkpt>
<trkpt lat="-27.2736591" lon="151.289317">
  <ele>381.62</ele>
  <time>2026-09-01T19:55:28Z</time>
  <course>87.05</course>
  <speed>15.35970377318521</speed>
  <fix>3d</fix>
</trkpt>
<trkpt lat="-27.2736446" lon="151.2892736">
  <ele>381.58</ele>
  <time>2026-09-01T19:55:28Z</time>
  <course>111.32</course>
  <speed>15.71</speed>
  <fix>3d</fix>
</trkpt>
<trkpt lat="-27.2736637" lon="151.2893314">
  <ele>381.59</ele>
  <time>2026-09-01T19:55:28Z</time>
  <course>85.81</course>
  <speed>15.188956514520674</speed>
  <fix>3d</fix>
</trkpt>
<trkpt lat="-27.2736546" lon="151.2893029">
  <ele>381.58</ele>
  <time>2026-09-01T19:55:28Z</time>
  <course>110.48</course>
  <speed>15.35</speed>
  <fix>3d</fix>
</trkpt>
<trkpt lat="-27.2736682" lon="151.2893456">
  <ele>381.56</ele>
  <time>2026-09-01T19:55:28Z</time>
  <course>84.54</course>
  <speed>15.019151107835624</speed>
  <fix>3d</fix>
</trkpt>
<trkpt lat="-27.2736546" lon="151.2893029">
  <ele>381.58</ele>
  <time>2026-09-01T19:55:28Z</time>
  <course>110.48</course>
  <speed>15.35</speed>
  <fix>3d</fix>
</trkpt>
<trkpt lat="-27.2736726" lon="151.2893599">
  <ele>381.51</ele>
  <time>2026-09-01T19:55:28Z</time>
  <course>83.23</course>
  <speed>14.856574302308053</speed>
  <fix>3d</fix>
</trkpt>
<trkpt lat="-27.2736639" lon="151.2893317">
  <ele>381.53</ele>
  <time>2026-09-01T19:55:28Z</time>
  <course>109.56</course>
  <speed>15.01</speed>
  <fix>3d</fix>
</trkpt>
<trkpt lat="-27.2736768" lon="151.289374">
  <ele>381.46</ele>
  <time>2026-09-01T19:55:28Z</time>
  <course>81.91</course>
  <speed>14.685727765419049</speed>
  <fix>3d</fix>
</trkpt>
<trkpt lat="-27.2736639" lon="151.2893317">
  <ele>381.53</ele>
  <time>2026-09-01T19:55:28Z</time>
  <course>109.56</course>
  <speed>15.01</speed>
  <fix>3d</fix>
</trkpt>
<trkpt lat="-27.2736808" lon="151.2893879">
  <ele>381.4</ele>
  <time>2026-09-01T19:55:28Z</time>
  <course>80.55</course>
  <speed>14.525622189772115</speed>
  <fix>3d</fix>
</trkpt>
<trkpt lat="-27.2736727" lon="151.2893601">
  <ele>381.45</ele>
  <time>2026-09-01T19:55:28Z</time>
  <course>108.55</course>
  <speed>14.68</speed>
  <fix>3d</fix>
</trkpt>
<trkpt lat="-27.2736846" lon="151.2894017">
  <ele>381.33</ele>
  <time>2026-09-01T19:55:28Z</time>
  <course>79.17</course>
  <speed>14.36682985212813</speed>
  <fix>3d</fix>
</trkpt>
<trkpt lat="-27.2736727" lon="151.2893601">
  <ele>381.45</ele>
  <time>2026-09-01T19:55:28Z</time>
  <course>108.55</course>
  <speed>14.68</speed>
  <fix>3d</fix>
</trkpt>
<trkpt lat="-27.2736883" lon="151.2894154">
  <ele>381.26</ele>
  <time>2026-09-01T19:55:28Z</time>
  <course>77.77</course>
  <speed>14.1998098578819</speed>
  <fix>3d</fix>
</trkpt>
<trkpt lat="-27.2736807" lon="151.2893879">
  <ele>381.34</ele>
  <time>2026-09-01T19:55:28Z</time>
  <course>107.45</course>
  <speed>14.36</speed>
  <fix>3d</fix>
</trkpt>
<trkpt lat="-27.2736918" lon="151.289429">
  <ele>381.18</ele>
  <time>2026-09-01T19:55:28Z</time>
  <course>76.35</course>
  <speed>14.040997115589763</speed>
  <fix>3d</fix>
</trkpt>
<trkpt lat="-27.2736807" lon="151.2893879">
  <ele>381.34</ele>
  <time>2026-09-01T19:55:28Z</time>
  <course>107.45</course>
  <speed>14.36</speed>
  <fix>3d</fix>
</trkpt>
<trkpt lat="-27.2736951" lon="151.2894425">
  <ele>381.1</ele>
  <time>2026-09-01T19:55:28Z</time>
  <course>74.91</course>
  <speed>13.886486236625881</speed>
  <fix>3d</fix>
</trkpt>
<trkpt lat="-27.2736881" lon="151.2894154">
  <ele>381.2</ele>
  <time>2026-09-01T19:55:28Z</time>
  <course>106.29</course>
  <speed>14.04</speed>
  <fix>3d</fix>
</trkpt>
<trkpt lat="-27.2736983" lon="151.2894559">
  <ele>381.01</ele>
  <time>2026-09-01T19:55:28Z</time>
  <course>73.45</course>
  <speed>13.72126087500708</speed>
  <fix>3d</fix>
</trkpt>
<trkpt lat="-27.2736881" lon="151.2894154">
  <ele>381.2</ele>
  <time>2026-09-01T19:55:28Z</time>
  <course>106.29</course>
  <speed>14.04</speed>
  <fix>3d</fix>
</trkpt>
<trkpt lat="-27.2737013" lon="151.2894691">
  <ele>380.92</ele>
  <time>2026-09-01T19:55:28Z</time>
  <course>71.97</course>
  <speed>13.560184364528382</speed>
  <fix>3d</fix>
</trkpt>
<trkpt lat="-27.2736949" lon="151.2894425">
  <ele>381.04</ele>
  <time>2026-09-01T19:55:28Z</time>
  <course>105.05</course>
  <speed>13.73</speed>
  <fix>3d</fix>
</trkpt>
<trkpt lat="-27.2737041" lon="151.2894822">
  <ele>380.83</ele>
  <time>2026-09-01T19:55:28Z</time>
  <course>70.47</course>
  <speed>13.398331985736135</speed>
  <fix>3d</fix>
</trkpt>
<trkpt lat="-27.2736949" lon="151.2894425">
  <ele>381.04</ele>
  <time>2026-09-01T19:55:28Z</time>
  <course>105.05</course>
  <speed>13.73</speed>
  <fix>3d</fix>
</trkpt>
<trkpt lat="-27.2737068" lon="151.2894952">
  <ele>380.73</ele>
  <time>2026-09-01T19:55:28Z</time>
  <course>68.94</course>
  <speed>13.240532466634413</speed>
  <fix>3d</fix>
</trkpt>
<trkpt lat="-27.2737009" lon="151.2894691">
  <ele>380.87</ele>
  <time>2026-09-01T19:55:28Z</time>
  <course>103.76</course>
  <speed>13.42</speed>
  <fix>3d</fix>
</trkpt>
<trkpt lat="-27.2737093" lon="151.2895081">
  <ele>380.63</ele>
  <time>2026-09-01T19:55:28Z</time>
  <course>67.38</course>
  <speed>13.07252462227553</speed>
  <fix>3d</fix>
</trkpt>
<trkpt lat="-27.2737009" lon="151.2894691">
  <ele>380.87</ele>
  <time>2026-09-01T19:55:28Z</time>
  <course>103.76</course>
  <speed>13.42</speed>
  <fix>3d</fix>
</trkpt>
<trkpt lat="-27.2737116" lon="151.2895208">
  <ele>380.53</ele>
  <time>2026-09-01T19:55:28Z</time>
  <course>65.8</course>
  <speed>12.898623957616564</speed>
  <fix>3d</fix>
</trkpt>
<trkpt lat="-27.2737063" lon="151.2894952">
  <ele>380.68</ele>
  <time>2026-09-01T19:55:28Z</time>
  <course>102.43</course>
  <speed>13.11</speed>
  <fix>3d</fix>
</trkpt>
<trkpt lat="-27.2737137" lon="151.2895333">
  <ele>380.43</ele>
  <time>2026-09-01T19:55:28Z</time>
  <course>64.19</course>
  <speed>12.724558931452203</speed>
  <fix>3d</fix>
</trkpt>
<trkpt lat="-27.2737063" lon="151.2894952">
  <ele>380.68</ele>
  <time>2026-09-01T19:55:28Z</time>
  <course>102.43</course>
  <speed>13.11</speed>
  <fix>3d</fix>
</trkpt>
<trkpt lat="-27.2737157" lon="151.2895457">
  <ele>380.32</ele>
  <time>2026-09-01T19:55:28Z</time>
  <course>62.54</course>
  <speed>12.54267116686075</speed>
  <fix>3d</fix>
</trkpt>
<trkpt lat="-27.2737111" lon="151.2895209">
  <ele>380.48</ele>
  <time>2026-09-01T19:55:28Z</time>
  <course>101.04</course>
  <speed>12.79</speed>
  <fix>3d</fix>
</trkpt>
<trkpt lat="-27.2737175" lon="151.2895579">
  <ele>380.22</ele>
  <time>2026-09-01T19:55:28Z</time>
  <course>60.87</course>
  <speed>12.354602381299044</speed>
  <fix>3d</fix>
</trkpt>
<trkpt lat="-27.2737111" lon="151.2895209">
  <ele>380.48</ele>
  <time>2026-09-01T19:55:28Z</time>
  <course>101.04</course>
  <speed>12.79</speed>
  <fix>3d</fix>
</trkpt>
<trkpt lat="-27.2737191" lon="151.28957">
  <ele>380.11</ele>
  <time>2026-09-01T19:55:28Z</time>
  <course>59.18</course>
  <speed>12.158507309698834</speed>
  <fix>3d</fix>
</trkpt>
<trkpt lat="-27.2737151" lon="151.289546">
  <ele>380.28</ele>
  <time>2026-09-01T19:55:28Z</time>
  <course>99.61</course>
  <speed>12.45</speed>
  <fix>3d</fix>
</trkpt>
<trkpt lat="-27.2737206" lon="151.2895819">
  <ele>380.01</ele>
  <time>2026-09-01T19:55:28Z</time>
  <course>57.47</course>
  <speed>11.954417593509104</speed>
  <fix>3d</fix>
</trkpt>
<trkpt lat="-27.2737151" lon="151.289546">
  <ele>380.28</ele>
  <time>2026-09-01T19:55:28Z</time>
  <course>99.61</course>
  <speed>12.45</speed>
  <fix>3d</fix>
</trkpt>
<trkpt lat="-27.2737219" lon="151.2895936">
  <ele>379.91</ele>
  <time>2026-09-01T19:55:28Z</time>
  <course>55.76</course>
  <speed>11.742376250146306</speed>
  <fix>3d</fix>
</trkpt>
<trkpt lat="-27.2737185" lon="151.2895705">
  <ele>380.07</ele>
  <time>2026-09-01T19:55:28Z</time>
  <course>98.15</course>
  <speed>12.08</speed>
  <fix>3d</fix>
</trkpt>
<trkpt lat="-27.2737231" lon="151.2896052">
  <ele>379.8</ele>
  <time>2026-09-01T19:55:28Z</time>
  <course>54.02</course>
  <speed>11.5235628171152</speed>
  <fix>3d</fix>
</trkpt>
<trkpt lat="-27.2737185" lon="151.2895705">
  <ele>380.07</ele>
  <time>2026-09-01T19:55:28Z</time>
  <course>98.15</course>
  <speed>12.08</speed>
  <fix>3d</fix>
</trkpt>
<trkpt lat="-27.2737241" lon="151.2896167">
  <ele>379.7</ele>
  <time>2026-09-01T19:55:28Z</time>
  <course>52.23</course>
  <speed>11.286708997754838</speed>
  <fix>3d</fix>
</trkpt>
<trkpt lat="-27.2737213" lon="151.2895942">
  <ele>379.87</ele>
  <time>2026-09-01T19:55:28Z</time>
  <course>96.68</course>
  <speed>11.69</speed>
  <fix>3d</fix>
</trkpt>
<trkpt lat="-27.2737249" lon="151.2896279">
  <ele>379.6</ele>
  <time>2026-09-01T19:55:28Z</time>
  <course>50.42</course>
  <speed>11.032724051656508</speed>
  <fix>3d</fix>
</trkpt>
<trkpt lat="-27.2737213" lon="151.2895942">
  <ele>379.87</ele>
  <time>2026-09-01T19:55:28Z</time>
  <course>96.68</course>
  <speed>11.69</speed>
  <fix>3d</fix>
</trkpt>
<trkpt lat="-27.2737257" lon="151.2896388">
  <ele>379.51</ele>
  <time>2026-09-01T19:55:28Z</time>
  <course>48.57</course>
  <speed>10.750558125046346</speed>
  <fix>3d</fix>
</trkpt>
<trkpt lat="-27.2737235" lon="151.2896173">
  <ele>379.67</ele>
  <time>2026-09-01T19:55:28Z</time>
  <course>95.21</course>
  <speed>11.25</speed>
  <fix>3d</fix>
</trkpt>
<trkpt lat="-27.2737262" lon="151.2896495">
  <ele>379.43</ele>
  <time>2026-09-01T19:55:28Z</time>
  <course>46.7</course>
  <speed>10.440881188865239</speed>
  <fix>3d</fix>
</trkpt>
<trkpt lat="-27.2737235" lon="151.2896173">
  <ele>379.67</ele>
  <time>2026-09-01T19:55:28Z</time>
  <course>95.21</course>
  <speed>11.25</speed>
  <fix>3d</fix>
</trkpt>
<trkpt lat="-27.2737267" lon="151.2896598">
  <ele>379.35</ele>
  <time>2026-09-01T19:55:28Z</time>
  <course>44.86</course>
  <speed>10.103910134200522</speed>
  <fix>3d</fix>
</trkpt>
<trkpt lat="-27.273725" lon="151.2896395">
  <ele>379.49</ele>
  <time>2026-09-01T19:55:28Z</time>
  <course>93.78</course>
  <speed>10.72</speed>
  <fix>3d</fix>
</trkpt>
<trkpt lat="-27.273727" lon="151.2896698">
  <ele>379.27</ele>
  <time>2026-09-01T19:55:28Z</time>
  <course>43.07</course>
  <speed>9.748625544147236</speed>
  <fix>3d</fix>
</trkpt>
<trkpt lat="-27.273725" lon="151.2896395">
  <ele>379.49</ele>
  <time>2026-09-01T19:55:28Z</time>
  <course>93.78</course>
  <speed>10.72</speed>
  <fix>3d</fix>
</trkpt>
<trkpt lat="-27.2737273" lon="151.2896795">
  <ele>379.21</ele>
  <time>2026-09-01T19:55:28Z</time>
  <course>41.31</course>
  <speed>9.385456834912192</speed>
  <fix>3d</fix>
</trkpt>
<trkpt lat="-27.273726" lon="151.2896605">
  <ele>379.33</ele>
  <time>2026-09-01T19:55:28Z</time>
  <course>92.47</course>
  <speed>10.09</speed>
  <fix>3d</fix>
</trkpt>
<trkpt lat="-27.2737275" lon="151.2896888">
  <ele>379.14</ele>
  <time>2026-09-01T19:55:28Z</time>
  <course>39.77</course>
  <speed>9.003199431313293</speed>
  <fix>3d</fix>
</trkpt>
<trkpt lat="-27.273726" lon="151.2896605">
  <ele>379.33</ele>
  <time>2026-09-01T19:55:28Z</time>
  <course>92.47</course>
  <speed>10.09</speed>
  <fix>3d</fix>
</trkpt>
<trkpt lat="-27.2737276" lon="151.2896977">
  <ele>379.08</ele>
  <time>2026-09-01T19:55:28Z</time>
  <course>38.39</course>
  <speed>8.672306498273686</speed>
  <fix>3d</fix>
</trkpt>
<trkpt lat="-27.2737265" lon="151.2896802">
  <ele>379.19</ele>
  <time>2026-09-01T19:55:28Z</time>
  <course>91.38</course>
  <speed>9.39</speed>
  <fix>3d</fix>
</trkpt>
<trkpt lat="-27.2737277" lon="151.2897063">
  <ele>379.02</ele>
  <time>2026-09-01T19:55:28Z</time>
  <course>36.57</course>
  <speed>8.402624589971873</speed>
  <fix>3d</fix>
</trkpt>
<trkpt lat="-27.2737265" lon="151.2896802">
  <ele>379.19</ele>
  <time>2026-09-01T19:55:28Z</time>
  <course>91.38</course>
  <speed>9.39</speed>
  <fix>3d</fix>
</trkpt>
<trkpt lat="-27.2737278" lon="151.2897147">
  <ele>378.97</ele>
  <time>2026-09-01T19:55:28Z</time>
  <course>34.29</course>
  <speed>8.20412091573497</speed>
  <fix>3d</fix>
</trkpt>
<trkpt lat="-27.2737269" lon="151.2896984">
  <ele>379.07</ele>
  <time>2026-09-01T19:55:28Z</time>
  <course>90.82</course>
  <speed>8.72</speed>
  <fix>3d</fix>
</trkpt>
<trkpt lat="-27.273728" lon="151.2897229">
  <ele>378.92</ele>
  <time>2026-09-01T19:55:28Z</time>
  <course>31.68</course>
  <speed>8.026381501025229</speed>
  <fix>3d</fix>
</trkpt>
<trkpt lat="-27.2737269" lon="151.2896984">
  <ele>379.07</ele>
  <time>2026-09-01T19:55:28Z</time>
  <course>90.82</course>
  <speed>8.72</speed>
  <fix>3d</fix>
</trkpt>
<trkpt lat="-27.2737282" lon="151.289731">
  <ele>378.88</ele>
  <time>2026-09-01T19:55:28Z</time>
  <course>28.89</course>
  <speed>7.859681927406477</speed>
  <fix>3d</fix>
</trkpt>
<trkpt lat="-27.2737271" lon="151.2897156">
  <ele>378.96</ele>
  <time>2026-09-01T19:55:28Z</time>
  <course>91.17</course>
  <speed>8.22</speed>
  <fix>3d</fix>
</trkpt>
<trkpt lat="-27.2737285" lon="151.2897388">
  <ele>378.85</ele>
  <time>2026-09-01T19:55:28Z</time>
  <course>26.07</course>
  <speed>7.673799580390408</speed>
  <fix>3d</fix>
</trkpt>
<trkpt lat="-27.2737271" lon="151.2897156">
  <ele>378.96</ele>
  <time>2026-09-01T19:55:28Z</time>
  <course>91.17</course>
  <speed>8.22</speed>
  <fix>3d</fix>
</trkpt>
<trkpt lat="-27.2737289" lon="151.2897465">
  <ele>378.82</ele>
  <time>2026-09-01T19:55:28Z</time>
  <course>23.31</course>
  <speed>7.458853799344776</speed>
  <fix>3d</fix>
</trkpt>
<trkpt lat="-27.2737276" lon="151.2897318">
  <ele>378.87</ele>
  <time>2026-09-01T19:55:28Z</time>
  <course>92.16</course>
  <speed>7.86</speed>
  <fix>3d</fix>
</trkpt>
<trkpt lat="-27.2737293" lon="151.2897539">
  <ele>378.8</ele>
  <time>2026-09-01T19:55:28Z</time>
  <course>20.68</course>
  <speed>7.234922252519373</speed>
  <fix>3d</fix>
</trkpt>
<trkpt lat="-27.2737276" lon="151.2897318">
  <ele>378.87</ele>
  <time>2026-09-01T19:55:28Z</time>
  <course>92.16</course>
  <speed>7.86</speed>
  <fix>3d</fix>
</trkpt>
<trkpt lat="-27.2737298" lon="151.289761">
  <ele>378.78</ele>
  <time>2026-09-01T19:55:28Z</time>
  <course>18.18</course>
  <speed>6.9812677931733855</speed>
  <fix>3d</fix>
</trkpt>
<trkpt lat="-27.2737282" lon="151.2897473">
  <ele>378.81</ele>
  <time>2026-09-01T19:55:28Z</time>
  <course>93.37</course>
  <speed>7.47</speed>
  <fix>3d</fix>
</trkpt>
<trkpt lat="-27.2737304" lon="151.2897678">
  <ele>378.76</ele>
  <time>2026-09-01T19:55:28Z</time>
  <course>15.77</course>
  <speed>6.709828611820126</speed>
  <fix>3d</fix>
</trkpt>
<trkpt lat="-27.2737282" lon="151.2897473">
  <ele>378.81</ele>
  <time>2026-09-01T19:55:28Z</time>
  <course>93.37</course>
  <speed>7.47</speed>
  <fix>3d</fix>
</trkpt>
<trkpt lat="-27.2737309" lon="151.2897744">
  <ele>378.75</ele>
  <time>2026-09-01T19:55:28Z</time>
  <course>13.39</course>
  <speed>6.418800510998921</speed>
  <fix>3d</fix>
</trkpt>
<trkpt lat="-27.2737291" lon="151.2897619">
  <ele>378.76</ele>
  <time>2026-09-01T19:55:28Z</time>
  <course>94.74</course>
  <speed>7.0</speed>
  <fix>3d</fix>
</trkpt>
<trkpt lat="-27.2737316" lon="151.2897807">
  <ele>378.74</ele>
  <time>2026-09-01T19:55:28Z</time>
  <course>10.96</course>
  <speed>6.110818275812168</speed>
  <fix>3d</fix>
</trkpt>
<trkpt lat="-27.2737291" lon="151.2897619">
  <ele>378.76</ele>
  <time>2026-09-01T19:55:28Z</time>
  <course>94.74</course>
  <speed>7.0</speed>
  <fix>3d</fix>
</trkpt>
<trkpt lat="-27.2737323" lon="151.2897866">
  <ele>378.74</ele>
  <time>2026-09-01T19:55:28Z</time>
  <course>8.42</course>
  <speed>5.814851674806504</speed>
  <fix>3d</fix>
</trkpt>
<trkpt lat="-27.2737303" lon="151.2897755">
  <ele>378.74</ele>
  <time>2026-09-01T19:55:28Z</time>
  <course>96.39</course>
  <speed>6.45</speed>
  <fix>3d</fix>
</trkpt>
<trkpt lat="-27.2737331" lon="151.2897922">
  <ele>378.74</ele>
  <time>2026-09-01T19:55:28Z</time>
  <course>5.74</course>
  <speed>5.511478930377944</speed>
  <fix>3d</fix>
</trkpt>
<trkpt lat="-27.2737303" lon="151.2897755">
  <ele>378.74</ele>
  <time>2026-09-01T19:55:28Z</time>
  <course>96.39</course>
  <speed>6.45</speed>
  <fix>3d</fix>
</trkpt>
<trkpt lat="-27.2737339" lon="151.2897976">
  <ele>378.74</ele>
  <time>2026-09-01T19:55:28Z</time>
  <course>2.86</course>
  <speed>5.240400748034448</speed>
  <fix>3d</fix>
</trkpt>
<trkpt lat="-27.2737317" lon="151.2897878">
  <ele>378.74</ele>
  <time>2026-09-01T19:55:28Z</time>
  <course>98.46</course>
  <speed>5.86</speed>
  <fix>3d</fix>
</trkpt>
<trkpt lat="-27.2737349" lon="151.2898027">
  <ele>378.75</ele>
  <time>2026-09-01T19:55:28Z</time>
  <course>359.8</course>
  <speed>4.972444067055958</speed>
  <fix>3d</fix>
</trkpt>
<trkpt lat="-27.2737317" lon="151.2897878">
  <ele>378.74</ele>
  <time>2026-09-01T19:55:28Z</time>
  <course>98.46</course>
  <speed>5.86</speed>
  <fix>3d</fix>
</trkpt>
<trkpt lat="-27.2737358" lon="151.2898076">
  <ele>378.76</ele>
  <time>2026-09-01T19:55:28Z</time>
  <course>356.6</course>
  <speed>4.737140487678194</speed>
  <fix>3d</fix>
</trkpt>
<trkpt lat="-27.2737334" lon="151.2897989">
  <ele>378.74</ele>
  <time>2026-09-01T19:55:28Z</time>
  <course>101.03</course>
  <speed>5.29</speed>
  <fix>3d</fix>
</trkpt>
<trkpt lat="-27.2737369" lon="151.2898122">
  <ele>378.77</ele>
  <time>2026-09-01T19:55:28Z</time>
  <course>353.25</course>
  <speed>4.524820438426258</speed>
  <fix>3d</fix>
</trkpt>
<trkpt lat="-27.2737334" lon="151.2897989">
  <ele>378.74</ele>
  <time>2026-09-01T19:55:28Z</time>
  <course>101.03</course>
  <speed>5.29</speed>
  <fix>3d</fix>
</trkpt>
<trkpt lat="-27.273738" lon="151.2898166">
  <ele>378.79</ele>
  <time>2026-09-01T19:55:28Z</time>
  <course>349.96</course>
  <speed>4.332435804486894</speed>
  <fix>3d</fix>
</trkpt>
<trkpt lat="-27.2737353" lon="151.2898089">
  <ele>378.76</ele>
  <time>2026-09-01T19:55:28Z</time>
  <course>103.99</course>
  <speed>4.79</speed>
  <fix>3d</fix>
</trkpt>
<trkpt lat="-27.2737392" lon="151.2898207">
  <ele>378.8</ele>
  <time>2026-09-01T19:55:28Z</time>
  <course>346.77</course>
  <speed>4.146383966783588</speed>
  <fix>3d</fix>
</trkpt>
<trkpt lat="-27.2737353" lon="151.2898089">
  <ele>378.76</ele>
  <time>2026-09-01T19:55:28Z</time>
  <course>103.99</course>
  <speed>4.79</speed>
  <fix>3d</fix>
</trkpt>
<trkpt lat="-27.2737404" lon="151.2898247">
  <ele>378.82</ele>
  <time>2026-09-01T19:55:28Z</time>
  <course>343.8</course>
  <speed>3.98180863427664</speed>
  <fix>3d</fix>
</trkpt>
<trkpt lat="-27.2737375" lon="151.2898177">
  <ele>378.78</ele>
  <time>2026-09-01T19:55:28Z</time>
  <course>107.08</course>
  <speed>4.38</speed>
  <fix>3d</fix>
</trkpt>
<trkpt lat="-27.2737416" lon="151.2898284">
  <ele>378.84</ele>
  <time>2026-09-01T19:55:28Z</time>
  <course>341.26</course>
  <speed>3.812413933454761</speed>
  <fix>3d</fix>
</trkpt>
<trkpt lat="-27.2737375" lon="151.2898177">
  <ele>378.78</ele>
  <time>2026-09-01T19:55:28Z</time>
  <course>107.08</course>
  <speed>4.38</speed>
  <fix>3d</fix>
</trkpt>
<trkpt lat="-27.2737428" lon="151.289832">
  <ele>378.86</ele>
  <time>2026-09-01T19:55:28Z</time>
  <course>339.27</course>
  <speed>3.6411673952181878</speed>
  <fix>3d</fix>
</trkpt>
<trkpt lat="-27.2737399" lon="151.2898258">
  <ele>378.83</ele>
  <time>2026-09-01T19:55:28Z</time>
  <course>110.02</course>
  <speed>4.02</speed>
  <fix>3d</fix>
</trkpt>
<trkpt lat="-27.2737441" lon="151.2898353">
  <ele>378.87</ele>
  <time>2026-09-01T19:55:28Z</time>
  <course>337.84</course>
  <speed>3.4593930103415538</speed>
  <fix>3d</fix>
</trkpt>
<trkpt lat="-27.2737399" lon="151.2898258">
  <ele>378.83</ele>
  <time>2026-09-01T19:55:28Z</time>
  <course>110.02</course>
  <speed>4.02</speed>
  <fix>3d</fix>
</trkpt>
<trkpt lat="-27.2737453" lon="151.2898385">
  <ele>378.89</ele>
  <time>2026-09-01T19:55:28Z</time>
  <course>336.9</course>
  <speed>3.270122321871156</speed>
  <fix>3d</fix>
</trkpt>
<trkpt lat="-27.2737425" lon="151.2898331">
  <ele>378.87</ele>
  <time>2026-09-01T19:55:28Z</time>
  <course>112.48</course>
  <speed>3.67</speed>
  <fix>3d</fix>
</trkpt>
<trkpt lat="-27.2737465" lon="151.2898415">
  <ele>378.9</ele>
  <time>2026-09-01T19:55:28Z</time>
  <course>336.34</course>
  <speed>3.063739545065801</speed>
  <fix>3d</fix>
</trkpt>
<trkpt lat="-27.2737425" lon="151.2898331">
  <ele>378.87</ele>
  <time>2026-09-01T19:55:28Z</time>
  <course>112.48</course>
  <speed>3.67</speed>
  <fix>3d</fix>
</trkpt>
<trkpt lat="-27.2737476" lon="151.2898443">
  <ele>378.9</ele>
  <time>2026-09-01T19:55:28Z</time>
  <course>335.99</course>
  <speed>2.8622543562723424</speed>
  <fix>3d</fix>
</trkpt>
<trkpt lat="-27.273745" lon="151.2898396">
  <ele>378.9</ele>
  <time>2026-09-01T19:55:28Z</time>
  <course>114.24</course>
  <speed>3.3</speed>
  <fix>3d</fix>
</trkpt>
<trkpt lat="-27.2737486" lon="151.2898468">
  <ele>378.91</ele>
  <time>2026-09-01T19:55:28Z</time>
  <course>335.75</course>
  <speed>2.66101484400219</speed>
  <fix>3d</fix>
</trkpt>
<trkpt lat="-27.273745" lon="151.2898396">
  <ele>378.9</ele>
  <time>2026-09-01T19:55:28Z</time>
  <course>114.24</course>
  <speed>3.3</speed>
  <fix>3d</fix>
</trkpt>
<trkpt lat="-27.2737496" lon="151.2898493">
  <ele>378.92</ele>
  <time>2026-09-01T19:55:28Z</time>
  <course>335.54</course>
  <speed>2.4731558786295698</speed>
  <fix>3d</fix>
</trkpt>
<trkpt lat="-27.2737473" lon="151.2898453">
  <ele>378.91</ele>
  <time>2026-09-01T19:55:28Z</time>
  <course>115.17</course>
  <speed>2.91</speed>
  <fix>3d</fix>
</trkpt>
<trkpt lat="-27.2737505" lon="151.2898515">
  <ele>378.92</ele>
  <time>2026-09-01T19:55:28Z</time>
  <course>335.31</course>
  <speed>2.2988910370002316</speed>
  <fix>3d</fix>
</trkpt>
<trkpt lat="-27.2737473" lon="151.2898453">
  <ele>378.91</ele>
  <time>2026-09-01T19:55:28Z</time>
  <course>115.17</course>
  <speed>2.91</speed>
  <fix>3d</fix>
</trkpt>
<trkpt lat="-27.2737513" lon="151.2898536">
  <ele>378.93</ele>
  <time>2026-09-01T19:55:28Z</time>
  <course>335.06</course>
  <speed>2.133775995740884</speed>
  <fix>3d</fix>
</trkpt>
<trkpt lat="-27.2737494" lon="151.2898503">
  <ele>378.94</ele>
  <time>2026-09-01T19:55:29Z</time>
  <course>115.24</course>
  <speed>2.52</speed>
  <fix>3d</fix>
</trkpt>
<trkpt lat="-27.273752" lon="151.2898555">
  <ele>378.94</ele>
  <time>2026-09-01T19:55:29Z</time>
  <course>334.8</course>
  <speed>1.977978766316767</speed>
  <fix>3d</fix>
</trkpt>
<trkpt lat="-27.2737494" lon="151.2898503">
  <ele>378.94</ele>
  <time>2026-09-01T19:55:29Z</time>
  <course>115.24</course>
  <speed>2.52</speed>
  <fix>3d</fix>
</trkpt>
<trkpt lat="-27.2737527" lon="151.2898574">
  <ele>378.95</ele>
  <time>2026-09-01T19:55:29Z</time>
  <course>334.53</course>
  <speed>1.8540765895722862</speed>
  <fix>3d</fix>
</trkpt>
<trkpt lat="-27.2737512" lon="151.2898546">
  <ele>378.96</ele>
  <time>2026-09-01T19:55:29Z</time>
  <course>114.49</course>
  <speed>2.18</speed>
  <fix>3d</fix>
</trkpt>
<trkpt lat="-27.2737533" lon="151.2898591">
  <ele>378.97</ele>
  <time>2026-09-01T19:55:29Z</time>
  <course>334.25</course>
  <speed>1.7346181135915768</speed>
  <fix>3d</fix>
</trkpt>
<trkpt lat="-27.2737512" lon="151.2898546">
  <ele>378.96</ele>
  <time>2026-09-01T19:55:29Z</time>
  <course>114.49</course>
  <speed>2.18</speed>
  <fix>3d</fix>
</trkpt>
<trkpt lat="-27.2737539" lon="151.2898608">
  <ele>378.99</ele>
  <time>2026-09-01T19:55:29Z</time>
  <course>333.99</course>
  <speed>1.6434415109762803</speed>
  <fix>3d</fix>
</trkpt>
<trkpt lat="-27.2737526" lon="151.2898583">
  <ele>378.98</ele>
  <time>2026-09-01T19:55:29Z</time>
  <course>113.03</course>
  <speed>1.89</speed>
  <fix>3d</fix>
</trkpt>
<trkpt lat="-27.2737544" lon="151.2898623">
  <ele>379.01</ele>
  <time>2026-09-01T19:55:29Z</time>
  <course>333.74</course>
  <speed>1.5566630977832037</speed>
  <fix>3d</fix>
</trkpt>
<trkpt lat="-27.2737526" lon="151.2898583">
  <ele>378.98</ele>
  <time>2026-09-01T19:55:29Z</time>
  <course>113.03</course>
  <speed>1.89</speed>
  <fix>3d</fix>
</trkpt>
<trkpt lat="-27.2737548" lon="151.2898639">
  <ele>379.03</ele>
  <time>2026-09-01T19:55:29Z</time>
  <course>333.51</course>
  <speed>1.489462990476769</speed>
  <fix>3d</fix>
</trkpt>
<trkpt lat="-27.2737538" lon="151.2898617">
  <ele>379.01</ele>
  <time>2026-09-01T19:55:29Z</time>
  <course>110.95</course>
  <speed>1.68</speed>
  <fix>3d</fix>
</trkpt>
<trkpt lat="-27.2737552" lon="151.2898653">
  <ele>379.05</ele>
  <time>2026-09-01T19:55:29Z</time>
  <course>333.3</course>
  <speed>1.4358969322343438</speed>
  <fix>3d</fix>
</trkpt>
<trkpt lat="-27.2737538" lon="151.2898617">
  <ele>379.01</ele>
  <time>2026-09-01T19:55:29Z</time>
  <course>110.95</course>
  <speed>1.68</speed>
  <fix>3d</fix>
</trkpt>
<trkpt lat="-27.2737556" lon="151.2898668">
  <ele>379.08</ele>
  <time>2026-09-01T19:55:29Z</time>
  <course>333.11</course>
  <speed>1.386001443000692</speed>
  <fix>3d</fix>
</trkpt>
<trkpt lat="-27.2737548" lon="151.2898647">
  <ele>379.05</ele>
  <time>2026-09-01T19:55:29Z</time>
  <course>108.47</course>
  <speed>1.52</speed>
  <fix>3d</fix>
</trkpt>
<trkpt lat="-27.2737559" lon="151.2898682">
  <ele>379.1</ele>
  <time>2026-09-01T19:55:29Z</time>
  <course>332.94</course>
  <speed>1.355949851580065</speed>
  <fix>3d</fix>
</trkpt>
<trkpt lat="-27.2737548" lon="151.2898647">
  <ele>379.05</ele>
  <time>2026-09-01T19:55:29Z</time>
  <course>108.47</course>
  <speed>1.52</speed>
  <fix>3d</fix>
</trkpt>
<trkpt lat="-27.2737562" lon="151.2898695">
  <ele>379.13</ele>
  <time>2026-09-01T19:55:29Z</time>
  <course>332.8</course>
  <speed>1.3290974381135492</speed>
  <fix>3d</fix>
</trkpt>
<trkpt lat="-27.2737556" lon="151.2898675">
  <ele>379.1</ele>
  <time>2026-09-01T19:55:29Z</time>
  <course>105.87</course>
  <speed>1.42</speed>
  <fix>3d</fix>
</trkpt>
<trkpt lat="-27.2737565" lon="151.2898709">
  <ele>379.15</ele>
  <time>2026-09-01T19:55:29Z</time>
  <course>332.68</course>
  <speed>1.3026895255585655</speed>
  <fix>3d</fix>
</trkpt>
<trkpt lat="-27.2737556" lon="151.2898675">
  <ele>379.1</ele>
  <time>2026-09-01T19:55:29Z</time>
  <course>105.87</course>
  <speed>1.42</speed>
  <fix>3d</fix>
</trkpt>
<trkpt lat="-27.2737567" lon="151.2898722">
  <ele>379.17</ele>
  <time>2026-09-01T19:55:29Z</time>
  <course>332.58</course>
  <speed>1.2963410045200299</speed>
  <fix>3d</fix>
</trkpt>
<trkpt lat="-27.2737562" lon="151.2898703">
  <ele>379.15</ele>
  <time>2026-09-01T19:55:29Z</time>
  <course>103.46</course>
  <speed>1.35</speed>
  <fix>3d</fix>
</trkpt>
<trkpt lat="-27.2737569" lon="151.2898736">
  <ele>379.2</ele>
  <time>2026-09-01T19:55:29Z</time>
  <course>332.49</course>
  <speed>1.2826534995859171</speed>
  <fix>3d</fix>
</trkpt>
<trkpt lat="-27.2737562" lon="151.2898703">
  <ele>379.15</ele>
  <time>2026-09-01T19:55:29Z</time>
  <course>103.46</course>
  <speed>1.35</speed>
  <fix>3d</fix>
</trkpt>
<trkpt lat="-27.2737571" lon="151.2898749">
  <ele>379.22</ele>
  <time>2026-09-01T19:55:29Z</time>
  <course>332.42</course>
  <speed>1.2808200498118385</speed>
  <fix>3d</fix>
</trkpt>
<trkpt lat="-27.2737567" lon="151.2898728">
  <ele>379.2</ele>
  <time>2026-09-01T19:55:29Z</time>
  <course>101.44</course>
  <speed>1.31</speed>
  <fix>3d</fix>
</trkpt>
<trkpt lat="-27.2737573" lon="151.2898762">
  <ele>379.23</ele>
  <time>2026-09-01T19:55:29Z</time>
  <course>332.36</course>
  <speed>1.277380131362626</speed>
  <fix>3d</fix>
</trkpt>
<trkpt lat="-27.2737567" lon="151.2898728">
  <ele>379.2</ele>
  <time>2026-09-01T19:55:29Z</time>
  <course>101.44</course>
  <speed>1.31</speed>
  <fix>3d</fix>
</trkpt>
<trkpt lat="-27.2737575" lon="151.2898775">
  <ele>379.25</ele>
  <time>2026-09-01T19:55:29Z</time>
  <course>332.32</course>
  <speed>1.2757742747053649</speed>
  <fix>3d</fix>
</trkpt>
<trkpt lat="-27.2737572" lon="151.2898755">
  <ele>379.24</ele>
  <time>2026-09-01T19:55:29Z</time>
  <course>99.92</course>
  <speed>1.29</speed>
  <fix>3d</fix>
</trkpt>
<trkpt lat="-27.2737577" lon="151.2898789">
  <ele>379.26</ele>
  <time>2026-09-01T19:55:29Z</time>
  <course>332.28</course>
  <speed>1.2757742747053649</speed>
  <fix>3d</fix>
</trkpt>
<trkpt lat="-27.2737572" lon="151.2898755">
  <ele>379.24</ele>
  <time>2026-09-01T19:55:29Z</time>
  <course>99.92</course>
  <speed>1.29</speed>
  <fix>3d</fix>
</trkpt>
<trkpt lat="-27.2737579" lon="151.2898802">
  <ele>379.27</ele>
  <time>2026-09-01T19:55:29Z</time>
  <course>332.26</course>
  <speed>1.2841339493993607</speed>
  <fix>3d</fix>
</trkpt>
<trkpt lat="-27.2737575" lon="151.2898781">
  <ele>379.27</ele>
  <time>2026-09-01T19:55:29Z</time>
  <course>98.91</course>
  <speed>1.29</speed>
  <fix>3d</fix>
</trkpt>
<trkpt lat="-27.273758" lon="151.2898815">
  <ele>379.28</ele>
  <time>2026-09-01T19:55:29Z</time>
  <course>332.24</course>
  <speed>1.2841339493993607</speed>
  <fix>3d</fix>
</trkpt>
<trkpt lat="-27.2737575" lon="151.2898781">
  <ele>379.27</ele>
  <time>2026-09-01T19:55:29Z</time>
  <course>98.91</course>
  <speed>1.29</speed>
  <fix>3d</fix>
</trkpt>
<trkpt lat="-27.2737582" lon="151.2898828">
  <ele>379.28</ele>
  <time>2026-09-01T19:55:29Z</time>
  <course>332.23</course>
  <speed>1.2841339493993607</speed>
  <fix>3d</fix>
</trkpt>
<trkpt lat="-27.2737579" lon="151.2898807">
  <ele>379.28</ele>
  <time>2026-09-01T19:55:29Z</time>
  <course>98.33</course>
  <speed>1.29</speed>
  <fix>3d</fix>
</trkpt>
<trkpt lat="-27.2737584" lon="151.2898841">
  <ele>379.28</ele>
  <time>2026-09-01T19:55:29Z</time>
  <course>332.23</course>
  <speed>1.2841339493993607</speed>
  <fix>3d</fix>
</trkpt>
<trkpt lat="-27.2737579" lon="151.2898807">
  <ele>379.28</ele>
  <time>2026-09-01T19:55:29Z</time>
  <course>98.33</course>
  <speed>1.29</speed>
  <fix>3d</fix>
</trkpt>
<trkpt lat="-27.2737585" lon="151.2898854">
  <ele>379.28</ele>
  <time>2026-09-01T19:55:29Z</time>
  <course>332.23</course>
  <speed>1.2841339493993607</speed>
  <fix>3d</fix>
</trkpt>
<trkpt lat="-27.2737582" lon="151.2898832">
  <ele>379.3</ele>
  <time>2026-09-01T19:55:29Z</time>
  <course>98.13</course>
  <speed>1.29</speed>
  <fix>3d</fix>
</trkpt>
<trkpt lat="-27.2737587" lon="151.2898867">
  <ele>379.28</ele>
  <time>2026-09-01T19:55:29Z</time>
  <course>332.24</course>
  <speed>1.2841339493993607</speed>
  <fix>3d</fix>
</trkpt>
<trkpt lat="-27.2737582" lon="151.2898832">
  <ele>379.3</ele>
  <time>2026-09-01T19:55:29Z</time>
  <course>98.13</course>
  <speed>1.29</speed>
  <fix>3d</fix>
</trkpt>
<trkpt lat="-27.2737589" lon="151.289888">
  <ele>379.28</ele>
  <time>2026-09-01T19:55:29Z</time>
  <course>332.24</course>
  <speed>1.2856515857727553</speed>
  <fix>3d</fix>
</trkpt>
<trkpt lat="-27.2737586" lon="151.2898859">
  <ele>379.3</ele>
  <time>2026-09-01T19:55:29Z</time>
  <course>98.23</course>
  <speed>1.3</speed>
  <fix>3d</fix>
</trkpt>
<trkpt lat="-27.273759" lon="151.2898893">
  <ele>379.27</ele>
  <time>2026-09-01T19:55:29Z</time>
  <course>332.26</course>
  <speed>1.2856515857727553</speed>
  <fix>3d</fix>
</trkpt>
<trkpt lat="-27.2737586" lon="151.2898859">
  <ele>379.3</ele>
  <time>2026-09-01T19:55:29Z</time>
  <course>98.23</course>
  <speed>1.3</speed>
  <fix>3d</fix>
</trkpt>
<trkpt lat="-27.2737592" lon="151.2898906">
  <ele>379.27</ele>
  <time>2026-09-01T19:55:29Z</time>
  <course>332.27</course>
  <speed>1.277380131362626</speed>
  <fix>3d</fix>
</trkpt>
<trkpt lat="-27.2737589" lon="151.2898885">
  <ele>379.29</ele>
  <time>2026-09-01T19:55:29Z</time>
  <course>98.59</course>
  <speed>1.29</speed>
  <fix>3d</fix>
</trkpt>
<trkpt lat="-27.2737594" lon="151.2898918">
  <ele>379.26</ele>
  <time>2026-09-01T19:55:29Z</time>
  <course>332.28</course>
  <speed>1.2692123541787639</speed>
  <fix>3d</fix>
</trkpt>
<trkpt lat="-27.2737589" lon="151.2898885">
  <ele>379.29</ele>
  <time>2026-09-01T19:55:29Z</time>
  <course>98.59</course>
  <speed>1.29</speed>
  <fix>3d</fix>
</trkpt>
<trkpt lat="-27.2737596" lon="151.2898931">
  <ele>379.25</ele>
  <time>2026-09-01T19:55:29Z</time>
  <course>332.29</course>
  <speed>1.2692123541787639</speed>
  <fix>3d</fix>
</trkpt>
<trkpt lat="-27.2737593" lon="151.289891">
  <ele>379.28</ele>
  <time>2026-09-01T19:55:29Z</time>
  <course>99.16</course>
  <speed>1.28</speed>
  <fix>3d</fix>
</trkpt>
<trkpt lat="-27.2737598" lon="151.2898944">
  <ele>379.24</ele>
  <time>2026-09-01T19:55:29Z</time>
  <course>332.28</course>
  <speed>1.2611502686040232</speed>
  <fix>3d</fix>
</trkpt>
<trkpt lat="-27.2737593" lon="151.289891">
  <ele>379.28</ele>
  <time>2026-09-01T19:55:29Z</time>
  <course>99.16</course>
  <speed>1.28</speed>
  <fix>3d</fix>
</trkpt>
<trkpt lat="-27.27376" lon="151.2898957">
  <ele>379.22</ele>
  <time>2026-09-01T19:55:29Z</time>
  <course>332.23</course>
  <speed>1.2531959144523253</speed>
  <fix>3d</fix>
</trkpt>
<trkpt lat="-27.2737597" lon="151.2898936">
  <ele>379.26</ele>
  <time>2026-09-01T19:55:29Z</time>
  <course>99.89</course>
  <speed>1.27</speed>
  <fix>3d</fix>
</trkpt>
<trkpt lat="-27.2737602" lon="151.2898969">
  <ele>379.18</ele>
  <time>2026-09-01T19:55:29Z</time>
  <course>332.15</course>
  <speed>1.2433824833895641</speed>
  <fix>3d</fix>
</trkpt>
<trkpt lat="-27.2737597" lon="151.2898936">
  <ele>379.26</ele>
  <time>2026-09-01T19:55:29Z</time>
  <course>99.89</course>
  <speed>1.27</speed>
  <fix>3d</fix>
</trkpt>
<trkpt lat="-27.2737605" lon="151.2898982">
  <ele>379.14</ele>
  <time>2026-09-01T19:55:29Z</time>
  <course>332.02</course>
  <speed>1.235556554755791</speed>
  <fix>3d</fix>
</trkpt>
<trkpt lat="-27.27376" lon="151.2898961">
  <ele>379.22</ele>
  <time>2026-09-01T19:55:29Z</time>
  <course>100.66</course>
  <speed>1.26</speed>
  <fix>3d</fix>
</trkpt>
<trkpt lat="-27.2737607" lon="151.2898994">
  <ele>379.08</ele>
  <time>2026-09-01T19:55:29Z</time>
  <course>331.85</course>
  <speed>1.2257650672131262</speed>
  <fix>3d</fix>
</trkpt>
<trkpt lat="-27.27376" lon="151.2898961">
  <ele>379.22</ele>
  <time>2026-09-01T19:55:29Z</time>
  <course>100.66</course>
  <speed>1.26</speed>
  <fix>3d</fix>
</trkpt>
<trkpt lat="-27.2737609" lon="151.2899006">
  <ele>379.0</ele>
  <time>2026-09-01T19:55:29Z</time>
  <course>331.65</course>
  <speed>1.2061923561356207</speed>
  <fix>3d</fix>
</trkpt>
<trkpt lat="-27.2737605" lon="151.2898986">
  <ele>379.15</ele>
  <time>2026-09-01T19:55:29Z</time>
  <course>101.33</course>
  <speed>1.24</speed>
  <fix>3d</fix>
</trkpt>
<trkpt lat="-27.2737611" lon="151.2899018">
  <ele>378.92</ele>
  <time>2026-09-01T19:55:29Z</time>
  <course>331.42</course>
  <speed>1.1747765745025733</speed>
  <fix>3d</fix>
</trkpt>
<trkpt lat="-27.2737605" lon="151.2898986">
  <ele>379.15</ele>
  <time>2026-09-01T19:55:29Z</time>
  <course>101.33</course>
  <speed>1.24</speed>
  <fix>3d</fix>
</trkpt>
<trkpt lat="-27.2737613" lon="151.289903">
  <ele>378.82</ele>
  <time>2026-09-01T19:55:29Z</time>
  <course>331.17</course>
  <speed>1.1433722053644648</speed>
  <fix>3d</fix>
</trkpt>
<trkpt lat="-27.2737609" lon="151.2899011">
  <ele>379.02</ele>
  <time>2026-09-01T19:55:29Z</time>
  <course>101.75</course>
  <speed>1.2</speed>
  <fix>3d</fix>
</trkpt>
<trkpt lat="-27.2737615" lon="151.2899041">
  <ele>378.71</ele>
  <time>2026-09-01T19:55:29Z</time>
  <course>330.9</course>
  <speed>1.1021796586763883</speed>
  <fix>3d</fix>
</trkpt>
<trkpt lat="-27.2737609" lon="151.2899011">
  <ele>379.02</ele>
  <time>2026-09-01T19:55:29Z</time>
  <course>101.75</course>
  <speed>1.2</speed>
  <fix>3d</fix>
</trkpt>
<trkpt lat="-27.2737617" lon="151.2899052">
  <ele>378.59</ele>
  <time>2026-09-01T19:55:29Z</time>
  <course>330.61</course>
  <speed>1.0609901036296239</speed>
  <fix>3d</fix>
</trkpt>
<trkpt lat="-27.2737614" lon="151.2899034">
  <ele>378.83</ele>
  <time>2026-09-01T19:55:29Z</time>
  <course>101.76</course>
  <speed>1.14</speed>
  <fix>3d</fix>
</trkpt>
<trkpt lat="-27.2737619" lon="151.2899063">
  <ele>378.46</ele>
  <time>2026-09-01T19:55:29Z</time>
  <course>330.32</course>
  <speed>1.0080674580602231</speed>
  <fix>3d</fix>
</trkpt>
<trkpt lat="-27.2737614" lon="151.2899034">
  <ele>378.83</ele>
  <time>2026-09-01T19:55:29Z</time>
  <course>101.76</course>
  <speed>1.14</speed>
  <fix>3d</fix>
</trkpt>
<trkpt lat="-27.2737621" lon="151.2899073">
  <ele>378.32</ele>
  <time>2026-09-01T19:55:29Z</time>
  <course>330.02</course>
  <speed>0.95524865872714</speed>
  <fix>3d</fix>
</trkpt>
<trkpt lat="-27.2737618" lon="151.2899055">
  <ele>378.6</ele>
  <time>2026-09-01T19:55:29Z</time>
  <course>101.29</course>
  <speed>1.06</speed>
  <fix>3d</fix>
</trkpt>
<trkpt lat="-27.2737622" lon="151.2899082">
  <ele>378.18</ele>
  <time>2026-09-01T19:55:29Z</time>
  <course>329.71</course>
  <speed>0.8910667763978185</speed>
  <fix>3d</fix>
</trkpt>
<trkpt lat="-27.2737618" lon="151.2899055">
  <ele>378.6</ele>
  <time>2026-09-01T19:55:29Z</time>
  <course>101.29</course>
  <speed>1.06</speed>
  <fix>3d</fix>
</trkpt>
<trkpt lat="-27.2737623" lon="151.2899091">
  <ele>378.03</ele>
  <time>2026-09-01T19:55:29Z</time>
  <course>329.39</course>
  <speed>0.8287339742040264</speed>
  <fix>3d</fix>
</trkpt>
<trkpt lat="-27.2737621" lon="151.2899075">
  <ele>378.34</ele>
  <time>2026-09-01T19:55:29Z</time>
  <course>100.28</course>
  <speed>0.95</speed>
  <fix>3d</fix>
</trkpt>
<trkpt lat="-27.2737624" lon="151.2899099">
  <ele>377.87</ele>
  <time>2026-09-01T19:55:29Z</time>
  <course>329.08</course>
  <speed>0.7566372975210779</speed>
  <fix>3d</fix>
</trkpt>
<trkpt lat="-27.2737621" lon="151.2899075">
  <ele>378.34</ele>
  <time>2026-09-01T19:55:29Z</time>
  <course>100.28</course>
  <speed>0.95</speed>
  <fix>3d</fix>
</trkpt>
<trkpt lat="-27.2737625" lon="151.2899106">
  <ele>377.71</ele>
  <time>2026-09-01T19:55:29Z</time>
  <course>328.76</course>
  <speed>0.6935416353759881</speed>
  <fix>3d</fix>
</trkpt>
<trkpt lat="-27.2737624" lon="151.2899093">
  <ele>378.05</ele>
  <time>2026-09-01T19:55:29Z</time>
  <course>98.7</course>
  <speed>0.82</speed>
  <fix>3d</fix>
</trkpt>
<trkpt lat="-27.2737626" lon="151.2899113">
  <ele>377.55</ele>
  <time>2026-09-01T19:55:29Z</time>
  <course>328.45</course>
  <speed>0.6120457499239742</speed>
  <fix>3d</fix>
</trkpt>
<trkpt lat="-27.2737624" lon="151.2899093">
  <ele>378.05</ele>
  <time>2026-09-01T19:55:29Z</time>
  <course>98.7</course>
  <speed>0.82</speed>
  <fix>3d</fix>
</trkpt>
<trkpt lat="-27.2737626" lon="151.2899119">
  <ele>377.39</ele>
  <time>2026-09-01T19:55:29Z</time>
  <course>328.14</course>
  <speed>0.5408326913195984</speed>
  <fix>3d</fix>
</trkpt>
<trkpt lat="-27.2737626" lon="151.2899109">
  <ele>377.74</ele>
  <time>2026-09-01T19:55:29Z</time>
  <course>96.5</course>
  <speed>0.68</speed>
  <fix>3d</fix>
</trkpt>
<trkpt lat="-27.2737626" lon="151.2899124">
  <ele>377.23</ele>
  <time>2026-09-01T19:55:29Z</time>
  <course>327.83</course>
  <speed>0.47010637094172636</speed>
  <fix>3d</fix>
</trkpt>
<trkpt lat="-27.2737626" lon="151.2899109">
  <ele>377.74</ele>
  <time>2026-09-01T19:55:29Z</time>
  <course>96.5</course>
  <speed>0.68</speed>
  <fix>3d</fix>
</trkpt>
<trkpt lat="-27.2737626" lon="151.2899128">
  <ele>377.06</ele>
  <time>2026-09-01T19:55:29Z</time>
  <course>327.52</course>
  <speed>0.4</speed>
  <fix>3d</fix>
</trkpt>
<trkpt lat="-27.2737627" lon="151.289912">
  <ele>377.41</ele>
  <time>2026-09-01T19:55:29Z</time>
  <course>93.46</course>
  <speed>0.53</speed>
  <fix>3d</fix>
</trkpt>
<trkpt lat="-27.2737627" lon="151.2899132">
  <ele>376.9</ele>
  <time>2026-09-01T19:55:29Z</time>
  <course>327.22</course>
  <speed>0.3306055050963308</speed>
  <fix>3d</fix>
</trkpt>
<trkpt lat="-27.2737627" lon="151.289912">
  <ele>377.41</ele>
  <time>2026-09-01T19:55:29Z</time>
  <course>93.46</course>
  <speed>0.53</speed>
  <fix>3d</fix>
</trkpt>
<trkpt lat="-27.2737627" lon="151.2899135">
  <ele>376.73</ele>
  <time>2026-09-01T19:55:29Z</time>
  <course>326.91</course>
  <speed>0.261725046566048</speed>
  <fix>3d</fix>
</trkpt>
<trkpt lat="-27.2737627" lon="151.2899129">
  <ele>377.09</ele>
  <time>2026-09-01T19:55:29Z</time>
  <course>88.97</course>
  <speed>0.38</speed>
  <fix>3d</fix>
</trkpt>
<trkpt lat="-27.2737626" lon="151.2899137">
  <ele>376.57</ele>
  <time>2026-09-01T19:55:29Z</time>
  <course>326.61</course>
  <speed>0.196468827043885</speed>
  <fix>3d</fix>
</trkpt>
<trkpt lat="-27.2737627" lon="151.2899129">
  <ele>377.09</ele>
  <time>2026-09-01T19:55:29Z</time>
  <course>88.97</course>
  <speed>0.38</speed>
  <fix>3d</fix>
</trkpt>
<trkpt lat="-27.2737626" lon="151.2899139">
  <ele>376.41</ele>
  <time>2026-09-01T19:55:29Z</time>
  <course>326.3</course>
  <speed>0.1341640786499874</speed>
  <fix>3d</fix>
</trkpt>
<trkpt lat="-27.2737627" lon="151.2899136">
  <ele>376.77</ele>
  <time>2026-09-01T19:55:29Z</time>
  <course>80.99</course>
  <speed>0.24</speed>
  <fix>3d</fix>
</trkpt>
<trkpt lat="-27.2737625" lon="151.289914">
  <ele>376.25</ele>
  <time>2026-09-01T19:55:29Z</time>
  <course>326.0</course>
  <speed>0.07810249675906654</speed>
  <fix>3d</fix>
</trkpt>
<trkpt lat="-27.2737627" lon="151.2899136">
  <ele>376.77</ele>
  <time>2026-09-01T19:55:29Z</time>
  <course>80.99</course>
  <speed>0.24</speed>
  <fix>3d</fix>
</trkpt>
<trkpt lat="-27.2737625" lon="151.289914">
  <ele>376.09</ele>
  <time>2026-09-01T19:55:29Z</time>
  <course>325.7</course>
  <speed>0.07</speed>
  <fix>3d</fix>
</trkpt>
<trkpt lat="-27.2737626" lon="151.289914">
  <ele>376.45</ele>
  <time>2026-09-01T19:55:29Z</time>
  <course>58.89</course>
  <speed>0.11</speed>
  <fix>3d</fix>
</trkpt>
<trkpt lat="-27.2737624" lon="151.289914">
  <ele>375.94</ele>
  <time>2026-09-01T19:55:29Z</time>
  <course>325.4</course>
  <speed>0.09219544457292887</speed>
  <fix>3d</fix>
</trkpt>
<trkpt lat="-27.2737626" lon="151.289914">
  <ele>376.45</ele>
  <time>2026-09-01T19:55:29Z</time>
  <course>58.89</course>
  <speed>0.11</speed>
  <fix>3d</fix>
</trkpt>
<trkpt lat="-27.2737624" lon="151.2899139">
  <ele>375.78</ele>
  <time>2026-09-01T19:55:29Z</time>
  <course>325.11</course>
  <speed>0.13892443989449804</speed>
  <fix>3d</fix>
</trkpt>
<trkpt lat="-27.2737625" lon="151.289914">
  <ele>376.14</ele>
  <time>2026-09-01T19:55:29Z</time>
  <course>336.12</course>
  <speed>0.08</speed>
  <fix>3d</fix>
</trkpt>
<trkpt lat="-27.2737623" lon="151.2899137">
  <ele>375.62</ele>
  <time>2026-09-01T19:55:29Z</time>
  <course>324.81</course>
  <speed>0.19313207915827968</speed>
  <fix>3d</fix>
</trkpt>
<trkpt lat="-27.2737625" lon="151.289914">
  <ele>376.14</ele>
  <time>2026-09-01T19:55:29Z</time>
  <course>336.12</course>
  <speed>0.08</speed>
  <fix>3d</fix>
</trkpt>
<trkpt lat="-27.2737622" lon="151.2899135">
  <ele>375.47</ele>
  <time>2026-09-01T19:55:29Z</time>
  <course>324.51</course>
  <speed>0.24041630560342614</speed>
  <fix>3d</fix>
</trkpt>
<trkpt lat="-27.2737624" lon="151.2899138">
  <ele>375.83</ele>
  <time>2026-09-01T19:55:29Z</time>
  <course>296.86</course>
  <speed>0.17</speed>
  <fix>3d</fix>
</trkpt>
<trkpt lat="-27.2737622" lon="151.2899133">
  <ele>375.32</ele>
  <time>2026-09-01T19:55:29Z</time>
  <course>324.2</course>
  <speed>0.29832867780352595</speed>
  <fix>3d</fix>
</trkpt>
<trkpt lat="-27.2737624" lon="151.2899138">
  <ele>375.83</ele>
  <time>2026-09-01T19:55:29Z</time>
  <course>296.86</course>
  <speed>0.17</speed>
  <fix>3d</fix>
</trkpt>
<trkpt lat="-27.2737621" lon="151.289913">
  <ele>375.17</ele>
  <time>2026-09-01T19:55:29Z</time>
  <course>323.9</course>
  <speed>0.34525353003264136</speed>
  <fix>3d</fix>
</trkpt>
<trkpt lat="-27.2737622" lon="151.2899135">
  <ele>375.53</ele>
  <time>2026-09-01T19:55:29Z</time>
  <course>286.05</course>
  <speed>0.28</speed>
  <fix>3d</fix>
</trkpt>
<trkpt lat="-27.273762" lon="151.2899126">
  <ele>375.02</ele>
  <time>2026-09-01T19:55:29Z</time>
  <course>323.59</course>
  <speed>0.38470768123342686</speed>
  <fix>3d</fix>
</trkpt>
<trkpt lat="-27.2737622" lon="151.2899135">
  <ele>375.53</ele>
  <time>2026-09-01T19:55:29Z</time>
  <course>286.05</course>
  <speed>0.28</speed>
  <fix>3d</fix>
</trkpt>
<trkpt lat="-27.273762" lon="151.2899122">
  <ele>374.87</ele>
  <time>2026-09-01T19:55:29Z</time>
  <course>323.28</course>
  <speed>0.43289721643826723</speed>
  <fix>3d</fix>
</trkpt>
<trkpt lat="-27.2737621" lon="151.2899129">
  <ele>375.22</ele>
  <time>2026-09-01T19:55:29Z</time>
  <course>280.69</course>
  <speed>0.38</speed>
  <fix>3d</fix>
</trkpt>
<trkpt lat="-27.273762" lon="151.2899117">
  <ele>374.72</ele>
  <time>2026-09-01T19:55:29Z</time>
  <course>322.97</course>
  <speed>0.47169905660283024</speed>
  <fix>3d</fix>
</trkpt>
<trkpt lat="-27.2737621" lon="151.2899129">
  <ele>375.22</ele>
  <time>2026-09-01T19:55:29Z</time>
  <course>280.69</course>
  <speed>0.38</speed>
  <fix>3d</fix>
</trkpt>
<trkpt lat="-27.2737619" lon="151.2899112">
  <ele>374.57</ele>
  <time>2026-09-01T19:55:29Z</time>
  <course>322.65</course>
  <speed>0.5115662224971466</speed>
  <fix>3d</fix>
</trkpt>
<trkpt lat="-27.273762" lon="151.2899119">
  <ele>374.93</ele>
  <time>2026-09-01T19:55:29Z</time>
  <course>277.18</course>
  <speed>0.47</speed>
  <fix>3d</fix>
</trkpt>
<trkpt lat="-27.2737619" lon="151.2899106">
  <ele>374.42</ele>
  <time>2026-09-01T19:55:29Z</time>
  <course>322.32</course>
  <speed>0.5508175741568164</speed>
  <fix>3d</fix>
</trkpt>
<trkpt lat="-27.273762" lon="151.2899119">
  <ele>374.93</ele>
  <time>2026-09-01T19:55:29Z</time>
  <course>277.18</course>
  <speed>0.47</speed>
  <fix>3d</fix>
</trkpt>
<trkpt lat="-27.2737619" lon="151.28991">
  <ele>374.27</ele>
  <time>2026-09-01T19:55:29Z</time>
  <course>321.99</course>
  <speed>0.5903388857258176</speed>
  <fix>3d</fix>
</trkpt>
<trkpt lat="-27.2737619" lon="151.2899109">
  <ele>374.64</ele>
  <time>2026-09-01T19:55:29Z</time>
  <course>274.55</course>
  <speed>0.56</speed>
  <fix>3d</fix>
</trkpt>
<trkpt lat="-27.2737618" lon="151.2899094">
  <ele>374.13</ele>
  <time>2026-09-01T19:55:29Z</time>
  <course>321.65</course>
  <speed>0.6200806399170998</speed>
  <fix>3d</fix>
</trkpt>
<trkpt lat="-27.2737619" lon="151.2899109">
  <ele>374.64</ele>
  <time>2026-09-01T19:55:29Z</time>
  <course>274.55</course>
  <speed>0.56</speed>
  <fix>3d</fix>
</trkpt>
<trkpt lat="-27.2737618" lon="151.2899087">
  <ele>373.98</ele>
  <time>2026-09-01T19:55:29Z</time>
  <course>321.31</course>
  <speed>0.66</speed>
  <fix>3d</fix>
</trkpt>
<trkpt lat="-27.2737618" lon="151.2899097">
  <ele>374.35</ele>
  <time>2026-09-01T19:55:29Z</time>
  <course>272.41</course>
  <speed>0.64</speed>
  <fix>3d</fix>
</trkpt>
<trkpt lat="-27.2737618" lon="151.289908">
  <ele>373.84</ele>
  <time>2026-09-01T19:55:29Z</time>
  <course>320.96</course>
  <speed>0.69</speed>
  <fix>3d</fix>
</trkpt>
<trkpt lat="-27.2737618" lon="151.2899097">
  <ele>374.35</ele>
  <time>2026-09-01T19:55:29Z</time>
  <course>272.41</course>
  <speed>0.64</speed>
  <fix>3d</fix>
</trkpt>
<trkpt lat="-27.2737618" lon="151.2899072">
  <ele>373.7</ele>
  <time>2026-09-01T19:55:29Z</time>
  <course>320.6</course>
  <speed>0.7200694410957876</speed>
  <fix>3d</fix>
</trkpt>
<trkpt lat="-27.2737618" lon="151.2899084">
  <ele>374.06</ele>
  <time>2026-09-01T19:55:29Z</time>
  <course>270.59</course>
  <speed>0.71</speed>
  <fix>3d</fix>
</trkpt>
<trkpt lat="-27.2737619" lon="151.2899065">
  <ele>373.55</ele>
  <time>2026-09-01T19:55:29Z</time>
  <course>320.23</course>
  <speed>0.7502666192761077</speed>
  <fix>3d</fix>
</trkpt>
<trkpt lat="-27.2737618" lon="151.2899084">
  <ele>374.06</ele>
  <time>2026-09-01T19:55:29Z</time>
  <course>270.59</course>
  <speed>0.71</speed>
  <fix>3d</fix>
</trkpt>
<trkpt lat="-27.2737619" lon="151.2899057">
  <ele>373.41</ele>
  <time>2026-09-01T19:55:29Z</time>
  <course>319.84</course>
  <speed>0.7805767098754611</speed>
  <fix>3d</fix>
</trkpt>
<trkpt lat="-27.2737618" lon="151.2899069">
  <ele>373.77</ele>
  <time>2026-09-01T19:55:29Z</time>
  <course>269.02</course>
  <speed>0.77</speed>
  <fix>3d</fix>
</trkpt>
<trkpt lat="-27.2737619" lon="151.2899048">
  <ele>373.26</ele>
  <time>2026-09-01T19:55:29Z</time>
  <course>319.44</course>
  <speed>0.8009993757800316</speed>
  <fix>3d</fix>
</trkpt>
<trkpt lat="-27.2737618" lon="151.2899069">
  <ele>373.77</ele>
  <time>2026-09-01T19:55:29Z</time>
  <course>269.02</course>
  <speed>0.77</speed>
  <fix>3d</fix>
</trkpt>
<trkpt lat="-27.2737619" lon="151.289904">
  <ele>373.12</ele>
  <time>2026-09-01T19:55:29Z</time>
  <course>319.02</course>
  <speed>0.8315046602394962</speed>
  <fix>3d</fix>
</trkpt>
<trkpt lat="-27.2737618" lon="151.2899052">
  <ele>373.49</ele>
  <time>2026-09-01T19:55:29Z</time>
  <course>267.66</course>
  <speed>0.83</speed>
  <fix>3d</fix>
</trkpt>
<trkpt lat="-27.2737619" lon="151.2899031">
  <ele>372.97</ele>
  <time>2026-09-01T19:55:29Z</time>
  <course>318.58</course>
  <speed>0.8620904824900922</speed>
  <fix>3d</fix>
</trkpt>
<trkpt lat="-27.2737618" lon="151.2899052">
  <ele>373.49</ele>
  <time>2026-09-01T19:55:29Z</time>
  <course>267.66</course>
  <speed>0.83</speed>
  <fix>3d</fix>
</trkpt>
<trkpt lat="-27.273762" lon="151.2899022">
  <ele>372.83</ele>
  <time>2026-09-01T19:55:29Z</time>
  <course>318.14</course>
  <speed>0.8836288813749809</speed>
  <fix>3d</fix>
</trkpt>
<trkpt lat="-27.2737618" lon="151.2899034">
  <ele>373.2</ele>
  <time>2026-09-01T19:55:29Z</time>
  <course>266.44</course>
  <speed>0.89</speed>
  <fix>3d</fix>
</trkpt>
<trkpt lat="-27.2737621" lon="151.2899012">
  <ele>372.69</ele>
  <time>2026-09-01T19:55:29Z</time>
  <course>317.66</course>
  <speed>0.9044888059008801</speed>
  <fix>3d</fix>
</trkpt>
<trkpt lat="-27.2737618" lon="151.2899034">
  <ele>373.2</ele>
  <time>2026-09-01T19:55:29Z</time>
  <course>266.44</course>
  <speed>0.89</speed>
  <fix>3d</fix>
</trkpt>
<trkpt lat="-27.2737621" lon="151.2899002">
  <ele>372.54</ele>
  <time>2026-09-01T19:55:29Z</time>
  <course>317.08</course>
  <speed>0.9353608929178086</speed>
  <fix>3d</fix>
</trkpt>
<trkpt lat="-27.2737619" lon="151.2899016">
  <ele>372.91</ele>
  <time>2026-09-01T19:55:29Z</time>
  <course>265.2</course>
  <speed>0.94</speed>
  <fix>3d</fix>
</trkpt>
<trkpt lat="-27.2737622" lon="151.2898992">
  <ele>372.4</ele>
  <time>2026-09-01T19:55:29Z</time>
  <course>316.37</course>
  <speed>0.9575489543621255</speed>
  <fix>3d</fix>
</trkpt>
<trkpt lat="-27.2737619" lon="151.2899016">
  <ele>372.91</ele>
  <time>2026-09-01T19:55:29Z</time>
  <course>265.2</course>
  <speed>0.94</speed>
  <fix>3d</fix>
</trkpt>
<trkpt lat="-27.2737623" lon="151.2898982">
  <ele>372.26</ele>
  <time>2026-09-01T19:55:29Z</time>
  <course>315.54</course>
  <speed>0.9885848471426213</speed>
  <fix>3d</fix>
</trkpt>
<trkpt lat="-27.2737621" lon="151.2898996">
  <ele>372.63</ele>
  <time>2026-09-01T19:55:29Z</time>
  <course>263.9</course>
  <speed>0.99</speed>
  <fix>3d</fix>
</trkpt>
<trkpt lat="-27.2737625" lon="151.2898972">
  <ele>372.12</ele>
  <time>2026-09-01T19:55:29Z</time>
  <course>314.61</course>
  <speed>1.0196568050084303</speed>
  <fix>3d</fix>
</trkpt>
<trkpt lat="-27.2737621" lon="151.2898996">
  <ele>372.63</ele>
  <time>2026-09-01T19:55:29Z</time>
  <course>263.9</course>
  <speed>0.99</speed>
  <fix>3d</fix>
</trkpt>
<trkpt lat="-27.2737626" lon="151.2898961">
  <ele>371.98</ele>
  <time>2026-09-01T19:55:29Z</time>
  <course>313.6</course>
  <speed>1.0522357150372725</speed>
  <fix>3d</fix>
</trkpt>
<trkpt lat="-27.2737623" lon="151.2898976">
  <ele>372.34</ele>
  <time>2026-09-01T19:55:29Z</time>
  <course>262.67</course>
  <speed>1.05</speed>
  <fix>3d</fix>
</trkpt>
<trkpt lat="-27.2737627" lon="151.2898949">
  <ele>371.83</ele>
  <time>2026-09-01T19:55:29Z</time>
  <course>312.55</course>
  <speed>1.0948972554536796</speed>
  <fix>3d</fix>
</trkpt>
<trkpt lat="-27.2737623" lon="151.2898976">
  <ele>372.34</ele>
  <time>2026-09-01T19:55:29Z</time>
  <course>262.67</course>
  <speed>1.05</speed>
  <fix>3d</fix>
</trkpt>
<trkpt lat="-27.2737629" lon="151.2898938">
  <ele>371.68</ele>
  <time>2026-09-01T19:55:29Z</time>
  <course>311.5</course>
  <speed>1.1475626344561765</speed>
  <fix>3d</fix>
</trkpt>
<trkpt lat="-27.2737626" lon="151.2898955">
  <ele>372.06</ele>
  <time>2026-09-01T19:55:29Z</time>
  <course>261.48</course>
  <speed>1.11</speed>
  <fix>3d</fix>
</trkpt>
<trkpt lat="-27.2737631" lon="151.2898926">
  <ele>371.53</ele>
  <time>2026-09-01T19:55:29Z</time>
  <course>310.48</course>
  <speed>1.190504094911059</speed>
  <fix>3d</fix>
</trkpt>
<trkpt lat="-27.2737626" lon="151.2898955">
  <ele>372.06</ele>
  <time>2026-09-01T19:55:29Z</time>
  <course>261.48</course>
  <speed>1.11</speed>
  <fix>3d</fix>
</trkpt>
<trkpt lat="-27.2737633" lon="151.2898913">
  <ele>371.39</ele>
  <time>2026-09-01T19:55:29Z</time>
  <course>309.5</course>
  <speed>1.2531959144523253</speed>
  <fix>3d</fix>
</trkpt>
<trkpt lat="-27.2737629" lon="151.2898932">
  <ele>371.77</ele>
  <time>2026-09-01T19:55:29Z</time>
  <course>260.27</course>
  <speed>1.2</speed>
  <fix>3d</fix>
</trkpt>
<trkpt lat="-27.2737635" lon="151.28989">
  <ele>371.24</ele>
  <time>2026-09-01T19:55:29Z</time>
  <course>308.57</course>
  <speed>1.308166656049603</speed>
  <fix>3d</fix>
</trkpt>
<trkpt lat="-27.2737629" lon="151.2898932">
  <ele>371.77</ele>
  <time>2026-09-01T19:55:29Z</time>
  <course>260.27</course>
  <speed>1.2</speed>
  <fix>3d</fix>
</trkpt>
<trkpt lat="-27.2737638" lon="151.2898886">
  <ele>371.09</ele>
  <time>2026-09-01T19:55:29Z</time>
  <course>307.72</course>
  <speed>1.3656500283747663</speed>
  <fix>3d</fix>
</trkpt>
<trkpt lat="-27.2737633" lon="151.2898907">
  <ele>371.47</ele>
  <time>2026-09-01T19:55:29Z</time>
  <course>258.95</course>
  <speed>1.3</speed>
  <fix>3d</fix>
</trkpt>
<trkpt lat="-27.2737641" lon="151.2898872">
  <ele>370.95</ele>
  <time>2026-09-01T19:55:29Z</time>
  <course>306.94</course>
  <speed>1.4333875958721003</speed>
  <fix>3d</fix>
</trkpt>
<trkpt lat="-27.2737633" lon="151.2898907">
  <ele>371.47</ele>
  <time>2026-09-01T19:55:29Z</time>
  <course>258.95</course>
  <speed>1.3</speed>
  <fix>3d</fix>
</trkpt>
<trkpt lat="-27.2737644" lon="151.2898857">
  <ele>370.81</ele>
  <time>2026-09-01T19:55:29Z</time>
  <course>306.25</course>
  <speed>1.4848905683584903</speed>
  <fix>3d</fix>
</trkpt>
<trkpt lat="-27.2737638" lon="151.289888">
  <ele>371.18</ele>
  <time>2026-09-01T19:55:29Z</time>
  <course>257.18</course>
  <speed>1.42</speed>
  <fix>3d</fix>
</trkpt>
<trkpt lat="-27.2737648" lon="151.2898842">
  <ele>370.68</ele>
  <time>2026-09-01T19:55:29Z</time>
  <course>305.61</course>
  <speed>1.5402921800749363</speed>
  <fix>3d</fix>
</trkpt>
<trkpt lat="-27.2737638" lon="151.289888">
  <ele>371.18</ele>
  <time>2026-09-01T19:55:29Z</time>
  <course>257.18</course>
  <speed>1.42</speed>
  <fix>3d</fix>
</trkpt>
<trkpt lat="-27.2737652" lon="151.2898826">
  <ele>370.55</ele>
  <time>2026-09-01T19:55:29Z</time>
  <course>305.04</course>
  <speed>1.5875767697972907</speed>
  <fix>3d</fix>
</trkpt>
<trkpt lat="-27.2737645" lon="151.2898851">
  <ele>370.9</ele>
  <time>2026-09-01T19:55:29Z</time>
  <course>254.57</course>
  <speed>1.54</speed>
  <fix>3d</fix>
</trkpt>
<trkpt lat="-27.2737657" lon="151.2898811">
  <ele>370.44</ele>
  <time>2026-09-01T19:55:29Z</time>
  <course>304.5</course>
  <speed>1.6304907236779973</speed>
  <fix>3d</fix>
</trkpt>
<trkpt lat="-27.2737645" lon="151.2898851">
  <ele>370.9</ele>
  <time>2026-09-01T19:55:29Z</time>
  <course>254.57</course>
  <speed>1.54</speed>
  <fix>3d</fix>
</trkpt>
<trkpt lat="-27.2737663" lon="151.2898795">
  <ele>370.33</ele>
  <time>2026-09-01T19:55:29Z</time>
  <course>304.0</course>
  <speed>1.670269439342048</speed>
  <fix>3d</fix>
</trkpt>
<trkpt lat="-27.2737653" lon="151.2898819">
  <ele>370.65</ele>
  <time>2026-09-01T19:55:29Z</time>
  <course>251.06</course>
  <speed>1.64</speed>
  <fix>3d</fix>
</trkpt>
<trkpt lat="-27.2737669" lon="151.2898779">
  <ele>370.23</ele>
  <time>2026-09-01T19:55:29Z</time>
  <course>303.52</course>
  <speed>1.690562036720333</speed>
  <fix>3d</fix>
</trkpt>
<trkpt lat="-27.2737653" lon="151.2898819">
  <ele>370.65</ele>
  <time>2026-09-01T19:55:29Z</time>
  <course>251.06</course>
  <speed>1.64</speed>
  <fix>3d</fix>
</trkpt>
<trkpt lat="-27.2737676" lon="151.2898763">
  <ele>370.13</ele>
  <time>2026-09-01T19:55:29Z</time>
  <course>303.07</course>
  <speed>1.7182840277439584</speed>
  <fix>3d</fix>
</trkpt>
<trkpt lat="-27.2737664" lon="151.2898788">
  <ele>370.42</ele>
  <time>2026-09-01T19:55:29Z</time>
  <course>246.83</course>
  <speed>1.72</speed>
  <fix>3d</fix>
</trkpt>
<trkpt lat="-27.2737684" lon="151.2898748">
  <ele>370.04</ele>
  <time>2026-09-01T19:55:29Z</time>
  <course>302.65</course>
  <speed>1.7407182425654073</speed>
  <fix>3d</fix>
</trkpt>
<trkpt lat="-27.2737664" lon="151.2898788">
  <ele>370.42</ele>
  <time>2026-09-01T19:55:29Z</time>
  <course>246.83</course>
  <speed>1.72</speed>
  <fix>3d</fix>
</trkpt>
<trkpt lat="-27.2737692" lon="151.2898732">
  <ele>369.96</ele>
  <time>2026-09-01T19:55:29Z</time>
  <course>302.26</course>
  <speed>1.7584083712266614</speed>
  <fix>3d</fix>
</trkpt>
<trkpt lat="-27.2737677" lon="151.2898756">
  <ele>370.22</ele>
  <time>2026-09-01T19:55:29Z</time>
  <course>242.06</course>
  <speed>1.77</speed>
  <fix>3d</fix>
</trkpt>
<trkpt lat="-27.2737701" lon="151.2898717">
  <ele>369.88</ele>
  <time>2026-09-01T19:55:29Z</time>
  <course>301.9</course>
  <speed>1.772004514666935</speed>
  <fix>3d</fix>
</trkpt>
<trkpt lat="-27.2737677" lon="151.2898756">
  <ele>370.22</ele>
  <time>2026-09-01T19:55:29Z</time>
  <course>242.06</course>
  <speed>1.77</speed>
  <fix>3d</fix>
</trkpt>
<trkpt lat="-27.2737711" lon="151.2898703">
  <ele>369.8</ele>
  <time>2026-09-01T19:55:29Z</time>
  <course>301.58</course>
  <speed>1.775894140989265</speed>
  <fix>3d</fix>
</trkpt>
<trkpt lat="-27.2737694" lon="151.2898725">
  <ele>370.05</ele>
  <time>2026-09-01T19:55:29Z</time>
  <course>236.87</course>
  <speed>1.81</speed>
  <fix>3d</fix>
</trkpt>
<trkpt lat="-27.2737722" lon="151.2898688">
  <ele>369.73</ele>
  <time>2026-09-01T19:55:29Z</time>
  <course>301.3</course>
  <speed>1.7833115263464205</speed>
  <fix>3d</fix>
</trkpt>
<trkpt lat="-27.2737694" lon="151.2898725">
  <ele>370.05</ele>
  <time>2026-09-01T19:55:29Z</time>
  <course>236.87</course>
  <speed>1.81</speed>
  <fix>3d</fix>
</trkpt>
<trkpt lat="-27.2737733" lon="151.2898675">
  <ele>369.65</ele>
  <time>2026-09-01T19:55:29Z</time>
  <course>301.07</course>
  <speed>1.7891059219621404</speed>
  <fix>3d</fix>
</trkpt>
<trkpt lat="-27.2737713" lon="151.2898695">
  <ele>369.89</ele>
  <time>2026-09-01T19:55:29Z</time>
  <course>231.32</course>
  <speed>1.83</speed>
  <fix>3d</fix>
</trkpt>
<trkpt lat="-27.2737745" lon="151.2898662">
  <ele>369.58</ele>
  <time>2026-09-01T19:55:29Z</time>
  <course>300.89</course>
  <speed>1.7854971296532514</speed>
  <fix>3d</fix>
</trkpt>
<trkpt lat="-27.2737713" lon="151.2898695">
  <ele>369.89</ele>
  <time>2026-09-01T19:55:29Z</time>
  <course>231.32</course>
  <speed>1.83</speed>
  <fix>3d</fix>
</trkpt>
<trkpt lat="-27.2737757" lon="151.289865">
  <ele>369.51</ele>
  <time>2026-09-01T19:55:29Z</time>
  <course>300.76</course>
  <speed>1.7866449003649272</speed>
  <fix>3d</fix>
</trkpt>
<trkpt lat="-27.2737735" lon="151.2898667">
  <ele>369.75</ele>
  <time>2026-09-01T19:55:29Z</time>
  <course>225.49</course>
  <speed>1.83</speed>
  <fix>3d</fix>
</trkpt>
<trkpt lat="-27.273777" lon="151.2898638">
  <ele>369.43</ele>
  <time>2026-09-01T19:55:29Z</time>
  <course>300.69</course>
  <speed>1.7810109488714547</speed>
  <fix>3d</fix>
</trkpt>
<trkpt lat="-27.2737735" lon="151.2898667">
  <ele>369.75</ele>
  <time>2026-09-01T19:55:29Z</time>
  <course>225.49</course>
  <speed>1.83</speed>
  <fix>3d</fix>
</trkpt>
<trkpt lat="-27.2737783" lon="151.2898628">
  <ele>369.35</ele>
  <time>2026-09-01T19:55:29Z</time>
  <course>300.69</course>
  <speed>1.7715812146215595</speed>
  <fix>3d</fix>
</trkpt>
<trkpt lat="-27.2737759" lon="151.2898642">
  <ele>369.6</ele>
  <time>2026-09-01T19:55:29Z</time>
  <course>219.41</course>
  <speed>1.82</speed>
  <fix>3d</fix>
</trkpt>
<trkpt lat="-27.2737798" lon="151.2898619">
  <ele>369.2</ele>
  <time>2026-09-01T19:55:29Z</time>
  <course>300.81</course>
  <speed>1.7831432920547916</speed>
  <fix>3d</fix>
</trkpt>
<trkpt lat="-27.2737759" lon="151.2898642">
  <ele>369.6</ele>
  <time>2026-09-01T19:55:29Z</time>
  <course>219.41</course>
  <speed>1.82</speed>
  <fix>3d</fix>
</trkpt>
<trkpt lat="-27.2737813" lon="151.2898613">
  <ele>369.0</ele>
  <time>2026-09-01T19:55:29Z</time>
  <course>301.33</course>
  <speed>1.8439088914585775</speed>
  <fix>3d</fix>
</trkpt>
<trkpt lat="-27.2737786" lon="151.2898621">
  <ele>369.41</ele>
  <time>2026-09-01T19:55:29Z</time>
  <course>210.46</course>
  <speed>1.81</speed>
  <fix>3d</fix>
</trkpt>
<trkpt lat="-27.273783" lon="151.289861">
  <ele>368.74</ele>
  <time>2026-09-01T19:55:29Z</time>
  <course>302.59</course>
  <speed>1.980631212517868</speed>
  <fix>3d</fix>
</trkpt>
<trkpt lat="-27.2737786" lon="151.2898621">
  <ele>369.41</ele>
  <time>2026-09-01T19:55:29Z</time>
  <course>210.46</course>
  <speed>1.81</speed>
  <fix>3d</fix>
</trkpt>
<trkpt lat="-27.2737849" lon="151.2898611">
  <ele>368.44</ele>
  <time>2026-09-01T19:55:29Z</time>
  <course>304.55</course>
  <speed>2.1964744478368057</speed>
  <fix>3d</fix>
</trkpt>
<trkpt lat="-27.2737816" lon="151.2898607">
  <ele>369.08</ele>
  <time>2026-09-01T19:55:29Z</time>
  <course>193.35</course>
  <speed>1.87</speed>
  <fix>3d</fix>
</trkpt>
<trkpt lat="-27.2737869" lon="151.2898616">
  <ele>368.12</ele>
  <time>2026-09-01T19:55:29Z</time>
  <course>307.25</course>
  <speed>2.466576574931336</speed>
  <fix>3d</fix>
</trkpt>
<trkpt lat="-27.2737816" lon="151.2898607">
  <ele>369.08</ele>
  <time>2026-09-01T19:55:29Z</time>
  <course>193.35</course>
  <speed>1.87</speed>
  <fix>3d</fix>
</trkpt>
<trkpt lat="-27.2737891" lon="151.2898624">
  <ele>367.8</ele>
  <time>2026-09-01T19:55:29Z</time>
  <course>310.54</course>
  <speed>2.7727242920997397</speed>
  <fix>3d</fix>
</trkpt>
<trkpt lat="-27.2737852" lon="151.2898606">
  <ele>368.54</ele>
  <time>2026-09-01T19:55:29Z</time>
  <course>171.8</course>
  <speed>2.19</speed>
  <fix>3d</fix>
</trkpt>
<trkpt lat="-27.2737913" lon="151.2898639">
  <ele>367.47</ele>
  <time>2026-09-01T19:55:29Z</time>
  <course>314.28</course>
  <speed>3.081379561170613</speed>
  <fix>3d</fix>
</trkpt>
<trkpt lat="-27.2737852" lon="151.2898606">
  <ele>368.54</ele>
  <time>2026-09-01T19:55:29Z</time>
  <course>171.8</course>
  <speed>2.19</speed>
  <fix>3d</fix>
</trkpt>
<trkpt lat="-27.2737936" lon="151.2898657">
  <ele>367.15</ele>
  <time>2026-09-01T19:55:29Z</time>
  <course>318.27</course>
  <speed>3.359717250007804</speed>
  <fix>3d</fix>
</trkpt>
<trkpt lat="-27.2737894" lon="151.289862">
  <ele>367.9</ele>
  <time>2026-09-01T19:55:29Z</time>
  <course>154.13</course>
  <speed>2.74</speed>
  <fix>3d</fix>
</trkpt>
<trkpt lat="-27.2737959" lon="151.289868">
  <ele>366.83</ele>
  <time>2026-09-01T19:55:29Z</time>
  <course>322.4</course>
  <speed>3.599236030048599</speed>
  <fix>3d</fix>
</trkpt>
<trkpt lat="-27.2737894" lon="151.289862">
  <ele>367.9</ele>
  <time>2026-09-01T19:55:29Z</time>
  <course>154.13</course>
  <speed>2.74</speed>
  <fix>3d</fix>
</trkpt>
<trkpt lat="-27.2737981" lon="151.2898707">
  <ele>366.54</ele>
  <time>2026-09-01T19:55:29Z</time>
  <course>326.62</course>
  <speed>3.7874661714660895</speed>
  <fix>3d</fix>
</trkpt>
<trkpt lat="-27.2737939" lon="151.2898653">
  <ele>367.26</ele>
  <time>2026-09-01T19:55:29Z</time>
  <course>140.84</course>
  <speed>3.31</speed>
  <fix>3d</fix>
</trkpt>
<trkpt lat="-27.2738002" lon="151.2898737">
  <ele>366.26</ele>
  <time>2026-09-01T19:55:29Z</time>
  <course>330.97</course>
  <speed>3.927301872787474</speed>
  <fix>3d</fix>
</trkpt>
<trkpt lat="-27.2737939" lon="151.2898653">
  <ele>367.26</ele>
  <time>2026-09-01T19:55:29Z</time>
  <course>140.84</course>
  <speed>3.31</speed>
  <fix>3d</fix>
</trkpt>
<trkpt lat="-27.273802" lon="151.2898771">
  <ele>366.0</ele>
  <time>2026-09-01T19:55:29Z</time>
  <course>335.29</course>
  <speed>4.023157963590294</speed>
  <fix>3d</fix>
</trkpt>
<trkpt lat="-27.2737985" lon="151.2898703">
  <ele>366.66</ele>
  <time>2026-09-01T19:55:29Z</time>
  <course>129.67</course>
  <speed>3.74</speed>
  <fix>3d</fix>
</trkpt>
<trkpt lat="-27.2738036" lon="151.2898806">
  <ele>365.78</ele>
  <time>2026-09-01T19:55:29Z</time>
  <course>339.36</course>
  <speed>4.044650788387052</speed>
  <fix>3d</fix>
</trkpt>
<trkpt lat="-27.2737985" lon="151.2898703">
  <ele>366.66</ele>
  <time>2026-09-01T19:55:29Z</time>
  <course>129.67</course>
  <speed>3.74</speed>
  <fix>3d</fix>
</trkpt>
<trkpt lat="-27.2738048" lon="151.2898845">
  <ele>365.58</ele>
  <time>2026-09-01T19:55:29Z</time>
  <course>342.96</course>
  <speed>4.038415530873464</speed>
  <fix>3d</fix>
</trkpt>
<trkpt lat="-27.2738024" lon="151.2898768">
  <ele>366.14</ele>
  <time>2026-09-01T19:55:29Z</time>
  <course>118.69</course>
  <speed>3.96</speed>
  <fix>3d</fix>
</trkpt>
<trkpt lat="-27.2738056" lon="151.2898883">
  <ele>365.42</ele>
  <time>2026-09-01T19:55:29Z</time>
  <course>345.48</course>
  <speed>4.022449502479801</speed>
  <fix>3d</fix>
</trkpt>
<trkpt lat="-27.2738024" lon="151.2898768">
  <ele>366.14</ele>
  <time>2026-09-01T19:55:29Z</time>
  <course>118.69</course>
  <speed>3.96</speed>
  <fix>3d</fix>
</trkpt>
<trkpt lat="-27.2738062" lon="151.2898922">
  <ele>365.29</ele>
  <time>2026-09-01T19:55:29Z</time>
  <course>347.01</course>
  <speed>3.9932192526832284</speed>
  <fix>3d</fix>
</trkpt>
<trkpt lat="-27.2738052" lon="151.2898842">
  <ele>365.73</ele>
  <time>2026-09-01T19:55:29Z</time>
  <course>107.32</course>
  <speed>4.01</speed>
  <fix>3d</fix>
</trkpt>
<trkpt lat="-27.2738065" lon="151.2898961">
  <ele>365.17</ele>
  <time>2026-09-01T19:55:29Z</time>
  <course>347.74</course>
  <speed>3.9424865250245307</speed>
  <fix>3d</fix>
</trkpt>
<trkpt lat="-27.2738052" lon="151.2898842">
  <ele>365.73</ele>
  <time>2026-09-01T19:55:29Z</time>
  <course>107.32</course>
  <speed>4.01</speed>
  <fix>3d</fix>
</trkpt>
<trkpt lat="-27.2738065" lon="151.2899">
  <ele>365.07</ele>
  <time>2026-09-01T19:55:29Z</time>
  <course>347.95</course>
  <speed>3.881855226563711</speed>
  <fix>3d</fix>
</trkpt>
<trkpt lat="-27.2738067" lon="151.2898922">
  <ele>365.43</ele>
  <time>2026-09-01T19:55:29Z</time>
  <course>97.15</course>
  <speed>3.97</speed>
  <fix>3d</fix>
</trkpt>
<trkpt lat="-27.2738064" lon="151.2899038">
  <ele>364.98</ele>
  <time>2026-09-01T19:55:29Z</time>
  <course>347.86</course>
  <speed>3.8061266400370863</speed>
  <fix>3d</fix>
</trkpt>
<trkpt lat="-27.2738067" lon="151.2898922">
  <ele>365.43</ele>
  <time>2026-09-01T19:55:29Z</time>
  <course>97.15</course>
  <speed>3.97</speed>
  <fix>3d</fix>
</trkpt>
<trkpt lat="-27.273806" lon="151.2899075">
  <ele>364.88</ele>
  <time>2026-09-01T19:55:29Z</time>
  <course>347.63</course>
  <speed>3.7223648397221893</speed>
  <fix>3d</fix>
</trkpt>
<trkpt lat="-27.273807" lon="151.2899001">
  <ele>365.21</ele>
  <time>2026-09-01T19:55:29Z</time>
  <course>88.96</course>
  <speed>3.86</speed>
  <fix>3d</fix>
</trkpt>
<trkpt lat="-27.2738055" lon="151.2899112">
  <ele>364.8</ele>
  <time>2026-09-01T19:55:29Z</time>
  <course>347.31</course>
  <speed>3.640219773585106</speed>
  <fix>3d</fix>
</trkpt>
<trkpt lat="-27.273807" lon="151.2899001">
  <ele>365.21</ele>
  <time>2026-09-01T19:55:29Z</time>
  <course>88.96</course>
  <speed>3.86</speed>
  <fix>3d</fix>
</trkpt>
<trkpt lat="-27.2738047" lon="151.2899147">
  <ele>364.71</ele>
  <time>2026-09-01T19:55:29Z</time>
  <course>346.95</course>
  <speed>3.5468295701936396</speed>
  <fix>3d</fix>
</trkpt>
<trkpt lat="-27.2738065" lon="151.2899077">
  <ele>365.03</ele>
  <time>2026-09-01T19:55:29Z</time>
  <course>81.8</course>
  <speed>3.7</speed>
  <fix>3d</fix>
</trkpt>
<trkpt lat="-27.273804" lon="151.289918">
  <ele>364.62</ele>
  <time>2026-09-01T19:55:29Z</time>
  <course>346.57</course>
  <speed>3.4595375413485545</speed>
  <fix>3d</fix>
</trkpt>
<trkpt lat="-27.2738065" lon="151.2899077">
  <ele>365.03</ele>
  <time>2026-09-01T19:55:29Z</time>
  <course>81.8</course>
  <speed>3.7</speed>
  <fix>3d</fix>
</trkpt>
<trkpt lat="-27.273803" lon="151.2899212">
  <ele>364.52</ele>
  <time>2026-09-01T19:55:29Z</time>
  <course>346.15</course>
  <speed>3.361086133975147</speed>
  <fix>3d</fix>
</trkpt>
<trkpt lat="-27.2738053" lon="151.2899148">
  <ele>364.85</ele>
  <time>2026-09-01T19:55:29Z</time>
  <course>75.1</course>
  <speed>3.52</speed>
  <fix>3d</fix>
</trkpt>
<trkpt lat="-27.2738018" lon="151.2899243">
  <ele>364.42</ele>
  <time>2026-09-01T19:55:29Z</time>
  <course>345.71</course>
  <speed>3.2658842600435185</speed>
  <fix>3d</fix>
</trkpt>
<trkpt lat="-27.2738053" lon="151.2899148">
  <ele>364.85</ele>
  <time>2026-09-01T19:55:29Z</time>
  <course>75.1</course>
  <speed>3.52</speed>
  <fix>3d</fix>
</trkpt>
<trkpt lat="-27.2738006" lon="151.2899272">
  <ele>364.31</ele>
  <time>2026-09-01T19:55:29Z</time>
  <course>345.24</course>
  <speed>3.1812104614438823</speed>
  <fix>3d</fix>
</trkpt>
<trkpt lat="-27.2738034" lon="151.2899214">
  <ele>364.66</ele>
  <time>2026-09-01T19:55:29Z</time>
  <course>68.51</course>
  <speed>3.34</speed>
  <fix>3d</fix>
</trkpt>
<trkpt lat="-27.2737992" lon="151.2899299">
  <ele>364.2</ele>
  <time>2026-09-01T19:55:29Z</time>
  <course>344.74</course>
  <speed>3.0856603831270863</speed>
  <fix>3d</fix>
</trkpt>
<trkpt lat="-27.2738034" lon="151.2899214">
  <ele>364.66</ele>
  <time>2026-09-01T19:55:29Z</time>
  <course>68.51</course>
  <speed>3.34</speed>
  <fix>3d</fix>
</trkpt>
<trkpt lat="-27.2737978" lon="151.2899324">
  <ele>364.08</ele>
  <time>2026-09-01T19:55:29Z</time>
  <course>344.2</course>
  <speed>2.9992332353453275</speed>
  <fix>3d</fix>
</trkpt>
<trkpt lat="-27.2738009" lon="151.2899274">
  <ele>364.45</ele>
  <time>2026-09-01T19:55:29Z</time>
  <course>61.79</course>
  <speed>3.15</speed>
  <fix>3d</fix>
</trkpt>
<trkpt lat="-27.2737962" lon="151.2899348">
  <ele>363.95</ele>
  <time>2026-09-01T19:55:29Z</time>
  <course>343.63</course>
  <speed>2.9080061898145955</speed>
  <fix>3d</fix>
</trkpt>
<trkpt lat="-27.2738009" lon="151.2899274">
  <ele>364.45</ele>
  <time>2026-09-01T19:55:29Z</time>
  <course>61.79</course>
  <speed>3.15</speed>
  <fix>3d</fix>
</trkpt>
<trkpt lat="-27.2737946" lon="151.289937">
  <ele>363.83</ele>
  <time>2026-09-01T19:55:29Z</time>
  <course>343.04</course>
  <speed>2.830688962072661</speed>
  <fix>3d</fix>
</trkpt>
<trkpt lat="-27.273798" lon="151.2899326">
  <ele>364.21</ele>
  <time>2026-09-01T19:55:29Z</time>
  <course>54.72</course>
  <speed>2.97</speed>
  <fix>3d</fix>
</trkpt>
<trkpt lat="-27.2737929" lon="151.289939">
  <ele>363.69</ele>
  <time>2026-09-01T19:55:29Z</time>
  <course>342.42</course>
  <speed>2.7517449009673847</speed>
  <fix>3d</fix>
</trkpt>
<trkpt lat="-27.273798" lon="151.2899326">
  <ele>364.21</ele>
  <time>2026-09-01T19:55:29Z</time>
  <course>54.72</course>
  <speed>2.97</speed>
  <fix>3d</fix>
</trkpt>
<trkpt lat="-27.2737911" lon="151.2899407">
  <ele>363.55</ele>
  <time>2026-09-01T19:55:29Z</time>
  <course>341.78</course>
  <speed>2.678600380795911</speed>
  <fix>3d</fix>
</trkpt>
<trkpt lat="-27.2737948" lon="151.2899372">
  <ele>363.95</ele>
  <time>2026-09-01T19:55:29Z</time>
  <course>47.15</course>
  <speed>2.8</speed>
  <fix>3d</fix>
</trkpt>
<trkpt lat="-27.2737893" lon="151.2899423">
  <ele>363.41</ele>
  <time>2026-09-01T19:55:29Z</time>
  <course>341.14</course>
  <speed>2.605167940843738</speed>
  <fix>3d</fix>
</trkpt>
<trkpt lat="-27.2737948" lon="151.2899372">
  <ele>363.95</ele>
  <time>2026-09-01T19:55:29Z</time>
  <course>47.15</course>
  <speed>2.8</speed>
  <fix>3d</fix>
</trkpt>
<trkpt lat="-27.2737873" lon="151.2899438">
  <ele>363.27</ele>
  <time>2026-09-01T19:55:29Z</time>
  <course>340.48</course>
  <speed>2.5381883302859936</speed>
  <fix>3d</fix>
</trkpt>
<trkpt lat="-27.2737912" lon="151.289941">
  <ele>363.68</ele>
  <time>2026-09-01T19:55:29Z</time>
  <course>39.05</course>
  <speed>2.65</speed>
  <fix>3d</fix>
</trkpt>
<trkpt lat="-27.2737854" lon="151.289945">
  <ele>363.12</ele>
  <time>2026-09-01T19:55:29Z</time>
  <course>339.85</course>
  <speed>2.49098374141623</speed>
  <fix>3d</fix>
</trkpt>
<trkpt lat="-27.2737912" lon="151.289941">
  <ele>363.68</ele>
  <time>2026-09-01T19:55:29Z</time>
  <course>39.05</course>
  <speed>2.65</speed>
  <fix>3d</fix>
</trkpt>
<trkpt lat="-27.2737834" lon="151.289946">
  <ele>362.97</ele>
  <time>2026-09-01T19:55:29Z</time>
  <course>339.25</course>
  <speed>2.4400819658363937</speed>
  <fix>3d</fix>
</trkpt>
<trkpt lat="-27.2737873" lon="151.289944">
  <ele>363.39</ele>
  <time>2026-09-01T19:55:29Z</time>
  <course>30.49</course>
  <speed>2.52</speed>
  <fix>3d</fix>
</trkpt>
<trkpt lat="-27.2737814" lon="151.2899469">
  <ele>362.82</ele>
  <time>2026-09-01T19:55:29Z</time>
  <course>338.65</course>
  <speed>2.4035390573069537</speed>
  <fix>3d</fix>
</trkpt>
<trkpt lat="-27.2737873" lon="151.289944">
  <ele>363.39</ele>
  <time>2026-09-01T19:55:29Z</time>
  <course>30.49</course>
  <speed>2.52</speed>
  <fix>3d</fix>
</trkpt>
<trkpt lat="-27.2737793" lon="151.2899475">
  <ele>362.68</ele>
  <time>2026-09-01T19:55:29Z</time>
  <course>338.07</course>
  <speed>2.374573645941519</speed>
  <fix>3d</fix>
</trkpt>
<trkpt lat="-27.2737834" lon="151.2899462">
  <ele>363.1</ele>
  <time>2026-09-01T19:55:29Z</time>
  <course>21.6</course>
  <speed>2.43</speed>
  <fix>3d</fix>
</trkpt>
<trkpt lat="-27.2737772" lon="151.289948">
  <ele>362.53</ele>
  <time>2026-09-01T19:55:29Z</time>
  <course>337.49</course>
  <speed>2.3477648945326703</speed>
  <fix>3d</fix>
</trkpt>
<trkpt lat="-27.2737834" lon="151.2899462">
  <ele>363.1</ele>
  <time>2026-09-01T19:55:29Z</time>
  <course>21.6</course>
  <speed>2.43</speed>
  <fix>3d</fix>
</trkpt>
<trkpt lat="-27.2737751" lon="151.2899483">
  <ele>362.38</ele>
  <time>2026-09-01T19:55:29Z</time>
  <course>336.91</course>
  <speed>2.326972281742952</speed>
  <fix>3d</fix>
</trkpt>
<trkpt lat="-27.2737793" lon="151.2899476">
  <ele>362.8</ele>
  <time>2026-09-01T19:55:29Z</time>
  <course>12.61</course>
  <speed>2.36</speed>
  <fix>3d</fix>
</trkpt>
<trkpt lat="-27.2737731" lon="151.2899483">
  <ele>362.23</ele>
  <time>2026-09-01T19:55:29Z</time>
  <course>336.32</course>
  <speed>2.320021551624036</speed>
  <fix>3d</fix>
</trkpt>
<trkpt lat="-27.2737793" lon="151.2899476">
  <ele>362.8</ele>
  <time>2026-09-01T19:55:29Z</time>
  <course>12.61</course>
  <speed>2.36</speed>
  <fix>3d</fix>
</trkpt>
<trkpt lat="-27.273771" lon="151.2899483">
  <ele>362.08</ele>
  <time>2026-09-01T19:55:29Z</time>
  <course>335.73</course>
  <speed>2.3048861143232218</speed>
  <fix>3d</fix>
</trkpt>
<trkpt lat="-27.2737751" lon="151.2899482">
  <ele>362.5</ele>
  <time>2026-09-01T19:55:29Z</time>
  <course>3.76</course>
  <speed>2.32</speed>
  <fix>3d</fix>
</trkpt>
<trkpt lat="-27.2737689" lon="151.2899481">
  <ele>361.93</ele>
  <time>2026-09-01T19:55:29Z</time>
  <course>335.12</course>
  <speed>2.3009780529157595</speed>
  <fix>3d</fix>
</trkpt>
<trkpt lat="-27.2737751" lon="151.2899482">
  <ele>362.5</ele>
  <time>2026-09-01T19:55:29Z</time>
  <course>3.76</course>
  <speed>2.32</speed>
  <fix>3d</fix>
</trkpt>
<trkpt lat="-27.2737669" lon="151.2899477">
  <ele>361.79</ele>
  <time>2026-09-01T19:55:29Z</time>
  <course>334.49</course>
  <speed>2.2985647695899285</speed>
  <fix>3d</fix>
</trkpt>
<trkpt lat="-27.2737709" lon="151.2899482">
  <ele>362.2</ele>
  <time>2026-09-01T19:55:29Z</time>
  <course>355.23</course>
  <speed>2.31</speed>
  <fix>3d</fix>
</trkpt>
<trkpt lat="-27.2737649" lon="151.2899471">
  <ele>361.64</ele>
  <time>2026-09-01T19:55:29Z</time>
  <course>333.84</course>
  <speed>2.2953213282675695</speed>
  <fix>3d</fix>
</trkpt>
<trkpt lat="-27.2737709" lon="151.2899482">
  <ele>362.2</ele>
  <time>2026-09-01T19:55:29Z</time>
  <course>355.23</course>
  <speed>2.31</speed>
  <fix>3d</fix>
</trkpt>
<trkpt lat="-27.273763" lon="151.2899464">
  <ele>361.49</ele>
  <time>2026-09-01T19:55:29Z</time>
  <course>333.15</course>
  <speed>2.299239004540415</speed>
  <fix>3d</fix>
</trkpt>
<trkpt lat="-27.2737668" lon="151.2899476">
  <ele>361.9</ele>
  <time>2026-09-01T19:55:29Z</time>
  <course>347.13</course>
  <speed>2.31</speed>
  <fix>3d</fix>
</trkpt>
<trkpt lat="-27.2737611" lon="151.2899456">
  <ele>361.35</ele>
  <time>2026-09-01T19:55:29Z</time>
  <course>332.44</course>
  <speed>2.3031283073246267</speed>
  <fix>3d</fix>
</trkpt>
<trkpt lat="-27.2737668" lon="151.2899476">
  <ele>361.9</ele>
  <time>2026-09-01T19:55:29Z</time>
  <course>347.13</course>
  <speed>2.31</speed>
  <fix>3d</fix>
</trkpt>
<trkpt lat="-27.2737593" lon="151.2899446">
  <ele>361.2</ele>
  <time>2026-09-01T19:55:29Z</time>
  <course>331.68</course>
  <speed>2.3031500168247834</speed>
  <fix>3d</fix>
</trkpt>
<trkpt lat="-27.2737628" lon="151.2899462">
  <ele>361.61</ele>
  <time>2026-09-01T19:55:29Z</time>
  <course>339.48</course>
  <speed>2.32</speed>
  <fix>3d</fix>
</trkpt>
<trkpt lat="-27.2737575" lon="151.2899435">
  <ele>361.05</ele>
  <time>2026-09-01T19:55:29Z</time>
  <course>330.88</course>
  <speed>2.3070543990118657</speed>
  <fix>3d</fix>
</trkpt>
<trkpt lat="-27.2737628" lon="151.2899462">
  <ele>361.61</ele>
  <time>2026-09-01T19:55:29Z</time>
  <course>339.48</course>
  <speed>2.32</speed>
  <fix>3d</fix>
</trkpt>
<trkpt lat="-27.2737557" lon="151.2899423">
  <ele>360.91</ele>
  <time>2026-09-01T19:55:29Z</time>
  <course>330.05</course>
  <speed>2.3242202993692316</speed>
  <fix>3d</fix>
</trkpt>
<trkpt lat="-27.273759" lon="151.2899443">
  <ele>361.31</ele>
  <time>2026-09-01T19:55:29Z</time>
  <course>332.25</course>
  <speed>2.34</speed>
  <fix>3d</fix>
</trkpt>
<trkpt lat="-27.273754" lon="151.2899409">
  <ele>360.76</ele>
  <time>2026-09-01T19:55:29Z</time>
  <course>329.18</course>
  <speed>2.3360008561642265</speed>
  <fix>3d</fix>
</trkpt>
<trkpt lat="-27.273759" lon="151.2899443">
  <ele>361.31</ele>
  <time>2026-09-01T19:55:29Z</time>
  <course>332.25</course>
  <speed>2.34</speed>
  <fix>3d</fix>
</trkpt>
<trkpt lat="-27.2737523" lon="151.2899394">
  <ele>360.61</ele>
  <time>2026-09-01T19:55:29Z</time>
  <course>328.27</course>
  <speed>2.3418368858654524</speed>
  <fix>3d</fix>
</trkpt>
<trkpt lat="-27.2737554" lon="151.2899418">
  <ele>361.02</ele>
  <time>2026-09-01T19:55:29Z</time>
  <course>325.36</course>
  <speed>2.36</speed>
  <fix>3d</fix>
</trkpt>
<trkpt lat="-27.2737508" lon="151.2899378">
  <ele>360.46</ele>
  <time>2026-09-01T19:55:29Z</time>
  <course>327.33</course>
  <speed>2.362794955132586</speed>
  <fix>3d</fix>
</trkpt>
<trkpt lat="-27.2737554" lon="151.2899418">
  <ele>361.02</ele>
  <time>2026-09-01T19:55:29Z</time>
  <course>325.36</course>
  <speed>2.36</speed>
  <fix>3d</fix>
</trkpt>
<trkpt lat="-27.2737493" lon="151.289936">
  <ele>360.31</ele>
  <time>2026-09-01T19:55:29Z</time>
  <course>326.37</course>
  <speed>2.3837994882120435</speed>
  <fix>3d</fix>
</trkpt>
<trkpt lat="-27.273752" lon="151.2899388">
  <ele>360.72</ele>
  <time>2026-09-01T19:55:29Z</time>
  <course>318.79</course>
  <speed>2.4</speed>
  <fix>3d</fix>
</trkpt>
<trkpt lat="-27.2737478" lon="151.2899342">
  <ele>360.16</ele>
  <time>2026-09-01T19:55:29Z</time>
  <course>325.33</course>
  <speed>2.398207664069148</speed>
  <fix>3d</fix>
</trkpt>
<trkpt lat="-27.273752" lon="151.2899388">
  <ele>360.72</ele>
  <time>2026-09-01T19:55:29Z</time>
  <course>318.79</course>
  <speed>2.4</speed>
  <fix>3d</fix>
</trkpt>
<trkpt lat="-27.2737464" lon="151.2899322">
  <ele>360.01</ele>
  <time>2026-09-01T19:55:29Z</time>
  <course>324.3</course>
  <speed>2.426066775667974</speed>
  <fix>3d</fix>
</trkpt>
<trkpt lat="-27.2737489" lon="151.2899354">
  <ele>360.43</ele>
  <time>2026-09-01T19:55:29Z</time>
  <course>312.49</course>
  <speed>2.44</speed>
  <fix>3d</fix>
</trkpt>
<trkpt lat="-27.2737451" lon="151.2899302">
  <ele>359.86</ele>
  <time>2026-09-01T19:55:29Z</time>
  <course>323.22</course>
  <speed>2.4546486510293075</speed>
  <fix>3d</fix>
</trkpt>
<trkpt lat="-27.2737489" lon="151.2899354">
  <ele>360.43</ele>
  <time>2026-09-01T19:55:29Z</time>
  <course>312.49</course>
  <speed>2.44</speed>
  <fix>3d</fix>
</trkpt>
<trkpt lat="-27.2737439" lon="151.289928">
  <ele>359.72</ele>
  <time>2026-09-01T19:55:29Z</time>
  <course>322.11</course>
  <speed>2.48501509049744</speed>
  <fix>3d</fix>
</trkpt>
<trkpt lat="-27.2737461" lon="151.2899316">
  <ele>360.14</ele>
  <time>2026-09-01T19:55:29Z</time>
  <course>306.42</course>
  <speed>2.49</speed>
  <fix>3d</fix>
</trkpt>
<trkpt lat="-27.2737428" lon="151.2899258">
  <ele>359.57</ele>
  <time>2026-09-01T19:55:29Z</time>
  <course>320.94</course>
  <speed>2.5188290930509756</speed>
  <fix>3d</fix>
</trkpt>
<trkpt lat="-27.2737461" lon="151.2899316">
  <ele>360.14</ele>
  <time>2026-09-01T19:55:29Z</time>
  <course>306.42</course>
  <speed>2.49</speed>
  <fix>3d</fix>
</trkpt>
<trkpt lat="-27.2737417" lon="151.2899235">
  <ele>359.42</ele>
  <time>2026-09-01T19:55:29Z</time>
  <course>319.71</course>
  <speed>2.5542513580303723</speed>
  <fix>3d</fix>
</trkpt>
<trkpt lat="-27.2737436" lon="151.2899273">
  <ele>359.85</ele>
  <time>2026-09-01T19:55:29Z</time>
  <course>300.56</course>
  <speed>2.55</speed>
  <fix>3d</fix>
</trkpt>
<trkpt lat="-27.2737408" lon="151.289921">
  <ele>359.27</ele>
  <time>2026-09-01T19:55:29Z</time>
  <course>318.43</course>
  <speed>2.5961702563583926</speed>
  <fix>3d</fix>
</trkpt>
<trkpt lat="-27.2737436" lon="151.2899273">
  <ele>359.85</ele>
  <time>2026-09-01T19:55:29Z</time>
  <course>300.56</course>
  <speed>2.55</speed>
  <fix>3d</fix>
</trkpt>
<trkpt lat="-27.2737399" lon="151.2899185">
  <ele>359.12</ele>
  <time>2026-09-01T19:55:29Z</time>
  <course>317.02</course>
  <speed>2.631501472543764</speed>
  <fix>3d</fix>
</trkpt>
<trkpt lat="-27.2737415" lon="151.2899227">
  <ele>359.56</ele>
  <time>2026-09-01T19:55:29Z</time>
  <course>294.84</course>
  <speed>2.62</speed>
  <fix>3d</fix>
</trkpt>
<trkpt lat="-27.2737392" lon="151.2899159">
  <ele>358.98</ele>
  <time>2026-09-01T19:55:29Z</time>
  <course>315.43</course>
  <speed>2.6828715958837837</speed>
  <fix>3d</fix>
</trkpt>
<trkpt lat="-27.2737415" lon="151.2899227">
  <ele>359.56</ele>
  <time>2026-09-01T19:55:29Z</time>
  <course>294.84</course>
  <speed>2.62</speed>
  <fix>3d</fix>
</trkpt>
<trkpt lat="-27.2737385" lon="151.2899133">
  <ele>358.84</ele>
  <time>2026-09-01T19:55:29Z</time>
  <course>313.63</course>
  <speed>2.7285527299284507</speed>
  <fix>3d</fix>
</trkpt>
<trkpt lat="-27.2737397" lon="151.2899177">
  <ele>359.26</ele>
  <time>2026-09-01T19:55:29Z</time>
  <course>289.23</course>
  <speed>2.7</speed>
  <fix>3d</fix>
</trkpt>
<trkpt lat="-27.273738" lon="151.2899105">
  <ele>358.69</ele>
  <time>2026-09-01T19:55:30Z</time>
  <course>311.64</course>
  <speed>2.790788419067271</speed>
  <fix>3d</fix>
</trkpt>
<trkpt lat="-27.2737397" lon="151.2899177">
  <ele>359.26</ele>
  <time>2026-09-01T19:55:30Z</time>
  <course>289.23</course>
  <speed>2.7</speed>
  <fix>3d</fix>
</trkpt>
<trkpt lat="-27.2737375" lon="151.2899076">
  <ele>358.55</ele>
  <time>2026-09-01T19:55:30Z</time>
  <course>309.52</course>
  <speed>2.8595454184188087</speed>
  <fix>3d</fix>
</trkpt>
<trkpt lat="-27.2737383" lon="151.2899124">
  <ele>358.97</ele>
  <time>2026-09-01T19:55:30Z</time>
  <course>283.7</course>
  <speed>2.8</speed>
  <fix>3d</fix>
</trkpt>
<trkpt lat="-27.2737372" lon="151.2899047">
  <ele>358.4</ele>
  <time>2026-09-01T19:55:30Z</time>
  <course>307.29</course>
  <speed>2.9433484333323503</speed>
  <fix>3d</fix>
</trkpt>
<trkpt lat="-27.2737383" lon="151.2899124">
  <ele>358.97</ele>
  <time>2026-09-01T19:55:30Z</time>
  <course>283.7</course>
  <speed>2.8</speed>
  <fix>3d</fix>
</trkpt>
<trkpt lat="-27.273737" lon="151.2899016">
  <ele>358.25</ele>
  <time>2026-09-01T19:55:30Z</time>
  <course>305.02</course>
  <speed>3.033232599059953</speed>
  <fix>3d</fix>
</trkpt>
<trkpt lat="-27.2737373" lon="151.2899067">
  <ele>358.69</ele>
  <time>2026-09-01T19:55:30Z</time>
  <course>278.21</course>
  <speed>2.93</speed>
  <fix>3d</fix>
</trkpt>
<trkpt lat="-27.2737369" lon="151.2898984">
  <ele>358.1</ele>
  <time>2026-09-01T19:55:30Z</time>
  <course>302.74</course>
  <speed>3.14</speed>
  <fix>3d</fix>
</trkpt>
<trkpt lat="-27.2737373" lon="151.2899067">
  <ele>358.69</ele>
  <time>2026-09-01T19:55:30Z</time>
  <course>278.21</course>
  <speed>2.93</speed>
  <fix>3d</fix>
</trkpt>
<trkpt lat="-27.273737" lon="151.2898951">
  <ele>357.95</ele>
  <time>2026-09-01T19:55:30Z</time>
  <course>300.48</course>
  <speed>3.2539360780445583</speed>
  <fix>3d</fix>
</trkpt>
<trkpt lat="-27.2737368" lon="151.2899006">
  <ele>358.39</ele>
  <time>2026-09-01T19:55:30Z</time>
  <course>272.71</course>
  <speed>3.1</speed>
  <fix>3d</fix>
</trkpt>
<trkpt lat="-27.2737372" lon="151.2898917">
  <ele>357.8</ele>
  <time>2026-09-01T19:55:30Z</time>
  <course>298.23</course>
  <speed>3.3761664650902508</speed>
  <fix>3d</fix>
</trkpt>
<trkpt lat="-27.2737368" lon="151.2899006">
  <ele>358.39</ele>
  <time>2026-09-01T19:55:30Z</time>
  <course>272.71</course>
  <speed>3.1</speed>
  <fix>3d</fix>
</trkpt>
<trkpt lat="-27.2737376" lon="151.2898882">
  <ele>357.64</ele>
  <time>2026-09-01T19:55:30Z</time>
  <course>295.98</course>
  <speed>3.5201278385876837</speed>
  <fix>3d</fix>
</trkpt>
<trkpt lat="-27.2737368" lon="151.2898941">
  <ele>358.09</ele>
  <time>2026-09-01T19:55:30Z</time>
  <course>267.16</course>
  <speed>3.32</speed>
  <fix>3d</fix>
</trkpt>
<trkpt lat="-27.2737381" lon="151.2898846">
  <ele>357.49</ele>
  <time>2026-09-01T19:55:30Z</time>
  <course>293.74</course>
  <speed>3.6654740484690382</speed>
  <fix>3d</fix>
</trkpt>
<trkpt lat="-27.2737368" lon="151.2898941">
  <ele>358.09</ele>
  <time>2026-09-01T19:55:30Z</time>
  <course>267.16</course>
  <speed>3.32</speed>
  <fix>3d</fix>
</trkpt>
<trkpt lat="-27.2737388" lon="151.2898808">
  <ele>357.34</ele>
  <time>2026-09-01T19:55:30Z</time>
  <course>291.51</course>
  <speed>3.815363678602605</speed>
  <fix>3d</fix>
</trkpt>
<trkpt lat="-27.2737373" lon="151.2898872">
  <ele>357.78</ele>
  <time>2026-09-01T19:55:30Z</time>
  <course>261.42</course>
  <speed>3.57</speed>
  <fix>3d</fix>
</trkpt>
<trkpt lat="-27.2737397" lon="151.2898771">
  <ele>357.2</ele>
  <time>2026-09-01T19:55:30Z</time>
  <course>289.3</course>
  <speed>3.9815198103236913</speed>
  <fix>3d</fix>
</trkpt>
<trkpt lat="-27.2737373" lon="151.2898872">
  <ele>357.78</ele>
  <time>2026-09-01T19:55:30Z</time>
  <course>261.42</course>
  <speed>3.57</speed>
  <fix>3d</fix>
</trkpt>
<trkpt lat="-27.273741" lon="151.289873">
  <ele>357.05</ele>
  <time>2026-09-01T19:55:30Z</time>
  <course>286.88</course>
  <speed>4.15053008662749</speed>
  <fix>3d</fix>
</trkpt>
<trkpt lat="-27.2737387" lon="151.2898798">
  <ele>357.47</ele>
  <time>2026-09-01T19:55:30Z</time>
  <course>255.36</course>
  <speed>3.87</speed>
  <fix>3d</fix>
</trkpt>
<trkpt lat="-27.2737424" lon="151.2898691">
  <ele>356.92</ele>
  <time>2026-09-01T19:55:30Z</time>
  <course>284.44</course>
  <speed>4.318448795574634</speed>
  <fix>3d</fix>
</trkpt>
<trkpt lat="-27.2737387" lon="151.2898798">
  <ele>357.47</ele>
  <time>2026-09-01T19:55:30Z</time>
  <course>255.36</course>
  <speed>3.87</speed>
  <fix>3d</fix>
</trkpt>
<trkpt lat="-27.2737441" lon="151.289865">
  <ele>356.79</ele>
  <time>2026-09-01T19:55:30Z</time>
  <course>281.87</course>
  <speed>4.500044444224968</speed>
  <fix>3d</fix>
</trkpt>
<trkpt lat="-27.2737409" lon="151.289872">
  <ele>357.19</ele>
  <time>2026-09-01T19:55:30Z</time>
  <course>249.01</course>
  <speed>4.19</speed>
  <fix>3d</fix>
</trkpt>
<trkpt lat="-27.2737461" lon="151.2898609">
  <ele>356.67</ele>
  <time>2026-09-01T19:55:30Z</time>
  <course>279.19</course>
  <speed>4.675082886965749</speed>
  <fix>3d</fix>
</trkpt>
<trkpt lat="-27.2737409" lon="151.289872">
  <ele>357.19</ele>
  <time>2026-09-01T19:55:30Z</time>
  <course>249.01</course>
  <speed>4.19</speed>
  <fix>3d</fix>
</trkpt>
<trkpt lat="-27.2737484" lon="151.2898568">
  <ele>356.55</ele>
  <time>2026-09-01T19:55:30Z</time>
  <course>276.44</course>
  <speed>4.851566757244509</speed>
  <fix>3d</fix>
</trkpt>
<trkpt lat="-27.2737441" lon="151.289864">
  <ele>356.92</ele>
  <time>2026-09-01T19:55:30Z</time>
  <course>242.42</course>
  <speed>4.53</speed>
  <fix>3d</fix>
</trkpt>
<trkpt lat="-27.273751" lon="151.2898527">
  <ele>356.45</ele>
  <time>2026-09-01T19:55:30Z</time>
  <course>273.63</course>
  <speed>5.021205034650547</speed>
  <fix>3d</fix>
</trkpt>
<trkpt lat="-27.2737441" lon="151.289864">
  <ele>356.92</ele>
  <time>2026-09-01T19:55:30Z</time>
  <course>242.42</course>
  <speed>4.53</speed>
  <fix>3d</fix>
</trkpt>
<trkpt lat="-27.273754" lon="151.2898487">
  <ele>356.35</ele>
  <time>2026-09-01T19:55:30Z</time>
  <course>270.85</course>
  <speed>5.192850854781023</speed>
  <fix>3d</fix>
</trkpt>
<trkpt lat="-27.2737484" lon="151.2898559">
  <ele>356.69</ele>
  <time>2026-09-01T19:55:30Z</time>
  <course>235.64</course>
  <speed>4.88</speed>
  <fix>3d</fix>
</trkpt>
<trkpt lat="-27.2737572" lon="151.2898447">
  <ele>356.26</ele>
  <time>2026-09-01T19:55:30Z</time>
  <course>268.1</course>
  <speed>5.359944029558518</speed>
  <fix>3d</fix>
</trkpt>
<trkpt lat="-27.2737484" lon="151.2898559">
  <ele>356.69</ele>
  <time>2026-09-01T19:55:30Z</time>
  <course>235.64</course>
  <speed>4.88</speed>
  <fix>3d</fix>
</trkpt>
<trkpt lat="-27.2737607" lon="151.2898409">
  <ele>356.17</ele>
  <time>2026-09-01T19:55:30Z</time>
  <course>265.41</course>
  <speed>5.515260646605924</speed>
  <fix>3d</fix>
</trkpt>
<trkpt lat="-27.273754" lon="151.2898478">
  <ele>356.48</ele>
  <time>2026-09-01T19:55:30Z</time>
  <course>228.9</course>
  <speed>5.21</speed>
  <fix>3d</fix>
</trkpt>
<trkpt lat="-27.2737645" lon="151.2898372">
  <ele>356.08</ele>
  <time>2026-09-01T19:55:30Z</time>
  <course>262.78</course>
  <speed>5.658356651891077</speed>
  <fix>3d</fix>
</trkpt>
<trkpt lat="-27.273754" lon="151.2898478">
  <ele>356.48</ele>
  <time>2026-09-01T19:55:30Z</time>
  <course>228.9</course>
  <speed>5.21</speed>
  <fix>3d</fix>
</trkpt>
<trkpt lat="-27.2737685" lon="151.2898335">
  <ele>355.99</ele>
  <time>2026-09-01T19:55:30Z</time>
  <course>260.21</course>
  <speed>5.786233662755073</speed>
  <fix>3d</fix>
</trkpt>
<trkpt lat="-27.2737608" lon="151.28984">
  <ele>356.3</ele>
  <time>2026-09-01T19:55:30Z</time>
  <course>222.52</course>
  <speed>5.53</speed>
  <fix>3d</fix>
</trkpt>
<trkpt lat="-27.2737728" lon="151.2898301">
  <ele>355.9</ele>
  <time>2026-09-01T19:55:30Z</time>
  <course>257.7</course>
  <speed>5.874291446634223</speed>
  <fix>3d</fix>
</trkpt>
<trkpt lat="-27.2737608" lon="151.28984">
  <ele>356.3</ele>
  <time>2026-09-01T19:55:30Z</time>
  <course>222.52</course>
  <speed>5.53</speed>
  <fix>3d</fix>
</trkpt>
<trkpt lat="-27.2737772" lon="151.2898268">
  <ele>355.78</ele>
  <time>2026-09-01T19:55:30Z</time>
  <course>255.08</course>
  <speed>5.814206738670375</speed>
  <fix>3d</fix>
</trkpt>
<trkpt lat="-27.2737686" lon="151.2898328">
  <ele>356.12</ele>
  <time>2026-09-01T19:55:30Z</time>
  <course>216.78</course>
  <speed>5.79</speed>
  <fix>3d</fix>
</trkpt>
<trkpt lat="-27.2737816" lon="151.2898239">
  <ele>355.59</ele>
  <time>2026-09-01T19:55:30Z</time>
  <course>252.89</course>
  <speed>5.641790495933006</speed>
  <fix>3d</fix>
</trkpt>
<trkpt lat="-27.2737686" lon="151.2898328">
  <ele>356.12</ele>
  <time>2026-09-01T19:55:30Z</time>
  <course>216.78</course>
  <speed>5.79</speed>
  <fix>3d</fix>
</trkpt>
<trkpt lat="-27.2737861" lon="151.2898214">
  <ele>355.36</ele>
  <time>2026-09-01T19:55:30Z</time>
  <course>251.95</course>
  <speed>5.474751135896498</speed>
  <fix>3d</fix>
</trkpt>
<trkpt lat="-27.2737772" lon="151.2898262">
  <ele>355.89</ele>
  <time>2026-09-01T19:55:30Z</time>
  <course>211.45</course>
  <speed>5.78</speed>
  <fix>3d</fix>
</trkpt>
<trkpt lat="-27.2737905" lon="151.2898193">
  <ele>355.1</ele>
  <time>2026-09-01T19:55:30Z</time>
  <course>251.94</course>
  <speed>5.306486596609851</speed>
  <fix>3d</fix>
</trkpt>
<trkpt lat="-27.2737772" lon="151.2898262">
  <ele>355.89</ele>
  <time>2026-09-01T19:55:30Z</time>
  <course>211.45</course>
  <speed>5.78</speed>
  <fix>3d</fix>
</trkpt>
<trkpt lat="-27.273795" lon="151.2898178">
  <ele>354.81</ele>
  <time>2026-09-01T19:55:30Z</time>
  <course>252.73</course>
  <speed>5.165123425437189</speed>
  <fix>3d</fix>
</trkpt>
<trkpt lat="-27.2737861" lon="151.2898208">
  <ele>355.49</ele>
  <time>2026-09-01T19:55:30Z</time>
  <course>204.17</course>
  <speed>5.49</speed>
  <fix>3d</fix>
</trkpt>
<trkpt lat="-27.2737995" lon="151.289817">
  <ele>354.51</ele>
  <time>2026-09-01T19:55:30Z</time>
  <course>254.18</course>
  <speed>5.063763422593911</speed>
  <fix>3d</fix>
</trkpt>
<trkpt lat="-27.2737861" lon="151.2898208">
  <ele>355.49</ele>
  <time>2026-09-01T19:55:30Z</time>
  <course>204.17</course>
  <speed>5.49</speed>
  <fix>3d</fix>
</trkpt>
<trkpt lat="-27.273804" lon="151.2898168">
  <ele>354.22</ele>
  <time>2026-09-01T19:55:30Z</time>
  <course>256.2</course>
  <speed>5.0132324901205205</speed>
  <fix>3d</fix>
</trkpt>
<trkpt lat="-27.2737953" lon="151.2898172">
  <ele>354.94</ele>
  <time>2026-09-01T19:55:30Z</time>
  <course>192.93</course>
  <speed>5.17</speed>
  <fix>3d</fix>
</trkpt>
<trkpt lat="-27.2738084" lon="151.2898172">
  <ele>353.93</ele>
  <time>2026-09-01T19:55:30Z</time>
  <course>258.76</course>
  <speed>5.0061761854733</speed>
  <fix>3d</fix>
</trkpt>
<trkpt lat="-27.2737953" lon="151.2898172">
  <ele>354.94</ele>
  <time>2026-09-01T19:55:30Z</time>
  <course>192.93</course>
  <speed>5.17</speed>
  <fix>3d</fix>
</trkpt>
<trkpt lat="-27.2738128" lon="151.2898183">
  <ele>353.66</ele>
  <time>2026-09-01T19:55:30Z</time>
  <course>261.86</course>
  <speed>5.044055907699676</speed>
  <fix>3d</fix>
</trkpt>
<trkpt lat="-27.2738044" lon="151.2898162">
  <ele>354.36</ele>
  <time>2026-09-01T19:55:30Z</time>
  <course>178.38</course>
  <speed>5.0</speed>
  <fix>3d</fix>
</trkpt>
<trkpt lat="-27.273817" lon="151.2898201">
  <ele>353.42</ele>
  <time>2026-09-01T19:55:30Z</time>
  <course>265.44</course>
  <speed>5.090422379331601</speed>
  <fix>3d</fix>
</trkpt>
<trkpt lat="-27.2738044" lon="151.2898162">
  <ele>354.36</ele>
  <time>2026-09-01T19:55:30Z</time>
  <course>178.38</course>
  <speed>5.0</speed>
  <fix>3d</fix>
</trkpt>
<trkpt lat="-27.273821" lon="151.2898225">
  <ele>353.19</ele>
  <time>2026-09-01T19:55:30Z</time>
  <course>269.41</course>
  <speed>5.115662224971465</speed>
  <fix>3d</fix>
</trkpt>
<trkpt lat="-27.2738132" lon="151.2898178">
  <ele>353.81</ele>
  <time>2026-09-01T19:55:30Z</time>
  <course>162.76</course>
  <speed>5.0</speed>
  <fix>3d</fix>
</trkpt>
<trkpt lat="-27.2738247" lon="151.2898255">
  <ele>352.99</ele>
  <time>2026-09-01T19:55:30Z</time>
  <course>273.58</course>
  <speed>5.110234828263766</speed>
  <fix>3d</fix>
</trkpt>
<trkpt lat="-27.2738132" lon="151.2898178">
  <ele>353.81</ele>
  <time>2026-09-01T19:55:30Z</time>
  <course>162.76</course>
  <speed>5.0</speed>
  <fix>3d</fix>
</trkpt>
<trkpt lat="-27.2738281" lon="151.2898289">
  <ele>352.82</ele>
  <time>2026-09-01T19:55:30Z</time>
  <course>277.81</course>
  <speed>5.063200568810206</speed>
  <fix>3d</fix>
</trkpt>
<trkpt lat="-27.2738213" lon="151.289822">
  <ele>353.34</ele>
  <time>2026-09-01T19:55:30Z</time>
  <course>148.15</course>
  <speed>5.05</speed>
  <fix>3d</fix>
</trkpt>
<trkpt lat="-27.2738311" lon="151.2898327">
  <ele>352.67</ele>
  <time>2026-09-01T19:55:30Z</time>
  <course>282.77</course>
  <speed>5.016303419850119</speed>
  <fix>3d</fix>
</trkpt>
<trkpt lat="-27.2738213" lon="151.289822">
  <ele>353.34</ele>
  <time>2026-09-01T19:55:30Z</time>
  <course>148.15</course>
  <speed>5.05</speed>
  <fix>3d</fix>
</trkpt>
<trkpt lat="-27.2738337" lon="151.2898366">
  <ele>352.54</ele>
  <time>2026-09-01T19:55:30Z</time>
  <course>288.35</course>
  <speed>4.8848439074345045</speed>
  <fix>3d</fix>
</trkpt>
<trkpt lat="-27.2738284" lon="151.2898283">
  <ele>352.97</ele>
  <time>2026-09-01T19:55:30Z</time>
  <course>135.14</course>
  <speed>5.03</speed>
  <fix>3d</fix>
</trkpt>
<trkpt lat="-27.2738359" lon="151.2898408">
  <ele>352.43</ele>
  <time>2026-09-01T19:55:30Z</time>
  <course>294.13</course>
  <speed>4.637682610959917</speed>
  <fix>3d</fix>
</trkpt>
<trkpt lat="-27.2738284" lon="151.2898283">
  <ele>352.97</ele>
  <time>2026-09-01T19:55:30Z</time>
  <course>135.14</course>
  <speed>5.03</speed>
  <fix>3d</fix>
</trkpt>
<trkpt lat="-27.2738374" lon="151.2898448">
  <ele>352.33</ele>
  <time>2026-09-01T19:55:30Z</time>
  <course>299.77</course>
  <speed>4.240813601185509</speed>
  <fix>3d</fix>
</trkpt>
<trkpt lat="-27.273834" lon="151.2898361">
  <ele>352.69</ele>
  <time>2026-09-01T19:55:30Z</time>
  <course>123.05</course>
  <speed>4.8</speed>
  <fix>3d</fix>
</trkpt>
<trkpt lat="-27.2738385" lon="151.2898489">
  <ele>352.24</ele>
  <time>2026-09-01T19:55:30Z</time>
  <course>305.5</course>
  <speed>4.205258612737152</speed>
  <fix>3d</fix>
</trkpt>
<trkpt lat="-27.273834" lon="151.2898361">
  <ele>352.69</ele>
  <time>2026-09-01T19:55:30Z</time>
  <course>123.05</course>
  <speed>4.8</speed>
  <fix>3d</fix>
</trkpt>
<trkpt lat="-27.2738391" lon="151.289853">
  <ele>352.15</ele>
  <time>2026-09-01T19:55:30Z</time>
  <course>310.54</course>
  <speed>4.180155499499988</speed>
  <fix>3d</fix>
</trkpt>
<trkpt lat="-27.2738377" lon="151.2898443">
  <ele>352.48</ele>
  <time>2026-09-01T19:55:30Z</time>
  <course>110.11</course>
  <speed>4.39</speed>
  <fix>3d</fix>
</trkpt>
<trkpt lat="-27.2738393" lon="151.2898571">
  <ele>352.07</ele>
  <time>2026-09-01T19:55:30Z</time>
  <course>314.65</course>
  <speed>4.130193700058146</speed>
  <fix>3d</fix>
</trkpt>
<trkpt lat="-27.2738377" lon="151.2898443">
  <ele>352.48</ele>
  <time>2026-09-01T19:55:30Z</time>
  <course>110.11</course>
  <speed>4.39</speed>
  <fix>3d</fix>
</trkpt>
<trkpt lat="-27.2738391" lon="151.2898612">
  <ele>351.98</ele>
  <time>2026-09-01T19:55:30Z</time>
  <course>318.07</course>
  <speed>4.049753078892588</speed>
  <fix>3d</fix>
</trkpt>
<trkpt lat="-27.2738394" lon="151.2898526">
  <ele>352.3</ele>
  <time>2026-09-01T19:55:30Z</time>
  <course>96.31</course>
  <speed>4.13</speed>
  <fix>3d</fix>
</trkpt>
<trkpt lat="-27.2738385" lon="151.2898651">
  <ele>351.9</ele>
  <time>2026-09-01T19:55:30Z</time>
  <course>320.88</course>
  <speed>3.9778511787144577</speed>
  <fix>3d</fix>
</trkpt>
<trkpt lat="-27.2738394" lon="151.2898526">
  <ele>352.3</ele>
  <time>2026-09-01T19:55:30Z</time>
  <course>96.31</course>
  <speed>4.13</speed>
  <fix>3d</fix>
</trkpt>
<trkpt lat="-27.2738376" lon="151.2898688">
  <ele>351.82</ele>
  <time>2026-09-01T19:55:30Z</time>
  <course>323.17</course>
  <speed>3.890758280849634</speed>
  <fix>3d</fix>
</trkpt>
<trkpt lat="-27.2738394" lon="151.2898608">
  <ele>352.12</ele>
  <time>2026-09-01T19:55:30Z</time>
  <course>83.44</course>
  <speed>4.02</speed>
  <fix>3d</fix>
</trkpt>
<trkpt lat="-27.2738363" lon="151.2898723">
  <ele>351.74</ele>
  <time>2026-09-01T19:55:30Z</time>
  <course>325.04</course>
  <speed>3.8237416230702617</speed>
  <fix>3d</fix>
</trkpt>
<trkpt lat="-27.2738394" lon="151.2898608">
  <ele>352.12</ele>
  <time>2026-09-01T19:55:30Z</time>
  <course>83.44</course>
  <speed>4.02</speed>
  <fix>3d</fix>
</trkpt>
<trkpt lat="-27.2738346" lon="151.2898756">
  <ele>351.65</ele>
  <time>2026-09-01T19:55:30Z</time>
  <course>326.55</course>
  <speed>3.764279479528586</speed>
  <fix>3d</fix>
</trkpt>
<trkpt lat="-27.2738378" lon="151.2898685">
  <ele>351.96</ele>
  <time>2026-09-01T19:55:30Z</time>
  <course>70.59</course>
  <speed>3.87</speed>
  <fix>3d</fix>
</trkpt>
<trkpt lat="-27.2738328" lon="151.2898786">
  <ele>351.57</ele>
  <time>2026-09-01T19:55:30Z</time>
  <course>327.77</course>
  <speed>3.732626421167808</speed>
  <fix>3d</fix>
</trkpt>
<trkpt lat="-27.2738378" lon="151.2898685">
  <ele>351.96</ele>
  <time>2026-09-01T19:55:30Z</time>
  <course>70.59</course>
  <speed>3.87</speed>
  <fix>3d</fix>
</trkpt>
<trkpt lat="-27.2738306" lon="151.2898813">
  <ele>351.49</ele>
  <time>2026-09-01T19:55:30Z</time>
  <course>328.74</course>
  <speed>3.7264594456400566</speed>
  <fix>3d</fix>
</trkpt>
<trkpt lat="-27.273835" lon="151.2898755">
  <ele>351.79</ele>
  <time>2026-09-01T19:55:30Z</time>
  <course>57.67</course>
  <speed>3.75</speed>
  <fix>3d</fix>
</trkpt>
<trkpt lat="-27.2738282" lon="151.2898838">
  <ele>351.42</ele>
  <time>2026-09-01T19:55:30Z</time>
  <course>329.48</course>
  <speed>3.746691874173802</speed>
  <fix>3d</fix>
</trkpt>
<trkpt lat="-27.273835" lon="151.2898755">
  <ele>351.79</ele>
  <time>2026-09-01T19:55:30Z</time>
  <course>57.67</course>
  <speed>3.75</speed>
  <fix>3d</fix>
</trkpt>
<trkpt lat="-27.2738255" lon="151.289886">
  <ele>351.34</ele>
  <time>2026-09-01T19:55:30Z</time>
  <course>330.01</course>
  <speed>3.785828839237189</speed>
  <fix>3d</fix>
</trkpt>
<trkpt lat="-27.2738308" lon="151.2898814">
  <ele>351.63</ele>
  <time>2026-09-01T19:55:30Z</time>
  <course>45.15</course>
  <speed>3.71</speed>
  <fix>3d</fix>
</trkpt>
<trkpt lat="-27.2738226" lon="151.289888">
  <ele>351.27</ele>
  <time>2026-09-01T19:55:30Z</time>
  <course>330.36</course>
  <speed>3.857978745405423</speed>
  <fix>3d</fix>
</trkpt>
<trkpt lat="-27.2738308" lon="151.2898814">
  <ele>351.63</ele>
  <time>2026-09-01T19:55:30Z</time>
  <course>45.15</course>
  <speed>3.71</speed>
  <fix>3d</fix>
</trkpt>
<trkpt lat="-27.2738195" lon="151.2898898">
  <ele>351.19</ele>
  <time>2026-09-01T19:55:30Z</time>
  <course>330.56</course>
  <speed>3.929478336878828</speed>
  <fix>3d</fix>
</trkpt>
<trkpt lat="-27.2738256" lon="151.2898862">
  <ele>351.47</ele>
  <time>2026-09-01T19:55:30Z</time>
  <course>33.85</course>
  <speed>3.77</speed>
  <fix>3d</fix>
</trkpt>
<trkpt lat="-27.2738163" lon="151.2898913">
  <ele>351.12</ele>
  <time>2026-09-01T19:55:30Z</time>
  <course>330.63</course>
  <speed>4.006320007188642</speed>
  <fix>3d</fix>
</trkpt>
<trkpt lat="-27.2738256" lon="151.2898862">
  <ele>351.47</ele>
  <time>2026-09-01T19:55:30Z</time>
  <course>33.85</course>
  <speed>3.77</speed>
  <fix>3d</fix>
</trkpt>
<trkpt lat="-27.2738129" lon="151.2898926">
  <ele>351.05</ele>
  <time>2026-09-01T19:55:30Z</time>
  <course>330.61</course>
  <speed>4.0929451498890135</speed>
  <fix>3d</fix>
</trkpt>
<trkpt lat="-27.2738195" lon="151.2898899">
  <ele>351.32</ele>
  <time>2026-09-01T19:55:30Z</time>
  <course>24.45</course>
  <speed>3.91</speed>
  <fix>3d</fix>
</trkpt>
<trkpt lat="-27.2738093" lon="151.2898938">
  <ele>350.99</ele>
  <time>2026-09-01T19:55:30Z</time>
  <course>330.52</course>
  <speed>4.1692325432865935</speed>
  <fix>3d</fix>
</trkpt>
<trkpt lat="-27.2738195" lon="151.2898899">
  <ele>351.32</ele>
  <time>2026-09-01T19:55:30Z</time>
  <course>24.45</course>
  <speed>3.91</speed>
  <fix>3d</fix>
</trkpt>
<trkpt lat="-27.2738056" lon="151.2898947">
  <ele>350.93</ele>
  <time>2026-09-01T19:55:30Z</time>
  <course>330.4</course>
  <speed>4.232493354985923</speed>
  <fix>3d</fix>
</trkpt>
<trkpt lat="-27.2738128" lon="151.2898928">
  <ele>351.18</ele>
  <time>2026-09-01T19:55:30Z</time>
  <course>17.14</course>
  <speed>4.07</speed>
  <fix>3d</fix>
</trkpt>
<trkpt lat="-27.2738019" lon="151.2898955">
  <ele>350.87</ele>
  <time>2026-09-01T19:55:30Z</time>
  <course>330.26</course>
  <speed>4.29424032862624</speed>
  <fix>3d</fix>
</trkpt>
<trkpt lat="-27.2738128" lon="151.2898928">
  <ele>351.18</ele>
  <time>2026-09-01T19:55:30Z</time>
  <course>17.14</course>
  <speed>4.07</speed>
  <fix>3d</fix>
</trkpt>
<trkpt lat="-27.2737981" lon="151.2898962">
  <ele>350.82</ele>
  <time>2026-09-01T19:55:30Z</time>
  <course>330.11</course>
  <speed>4.336011992603342</speed>
  <fix>3d</fix>
</trkpt>
<trkpt lat="-27.2738056" lon="151.2898948">
  <ele>351.06</ele>
  <time>2026-09-01T19:55:30Z</time>
  <course>11.77</course>
  <speed>4.21</speed>
  <fix>3d</fix>
</trkpt>
<trkpt lat="-27.2737943" lon="151.2898968">
  <ele>350.78</ele>
  <time>2026-09-01T19:55:30Z</time>
  <course>329.98</course>
  <speed>4.352390147953191</speed>
  <fix>3d</fix>
</trkpt>
<trkpt lat="-27.2738056" lon="151.2898948">
  <ele>351.06</ele>
  <time>2026-09-01T19:55:30Z</time>
  <course>11.77</course>
  <speed>4.21</speed>
  <fix>3d</fix>
</trkpt>
<trkpt lat="-27.2737904" lon="151.2898973">
  <ele>350.74</ele>
  <time>2026-09-01T19:55:30Z</time>
  <course>329.87</course>
  <speed>4.363267124529508</speed>
  <fix>3d</fix>
</trkpt>
<trkpt lat="-27.273798" lon="151.2898963">
  <ele>350.95</ele>
  <time>2026-09-01T19:55:30Z</time>
  <course>8.03</course>
  <speed>4.31</speed>
  <fix>3d</fix>
</trkpt>
<trkpt lat="-27.2737865" lon="151.2898977">
  <ele>350.7</ele>
  <time>2026-09-01T19:55:30Z</time>
  <course>329.76</course>
  <speed>4.34752803326212</speed>
  <fix>3d</fix>
</trkpt>
<trkpt lat="-27.273798" lon="151.2898963">
  <ele>350.95</ele>
  <time>2026-09-01T19:55:30Z</time>
  <course>8.03</course>
  <speed>4.31</speed>
  <fix>3d</fix>
</trkpt>
<trkpt lat="-27.2737826" lon="151.2898981">
  <ele>350.67</ele>
  <time>2026-09-01T19:55:30Z</time>
  <course>329.68</course>
  <speed>4.3233898736986465</speed>
  <fix>3d</fix>
</trkpt>
<trkpt lat="-27.2737903" lon="151.2898973">
  <ele>350.86</ele>
  <time>2026-09-01T19:55:30Z</time>
  <course>5.59</course>
  <speed>4.34</speed>
  <fix>3d</fix>
</trkpt>
<trkpt lat="-27.2737788" lon="151.2898984">
  <ele>350.63</ele>
  <time>2026-09-01T19:55:30Z</time>
  <course>329.62</course>
  <speed>4.2812381386697</speed>
  <fix>3d</fix>
</trkpt>
<trkpt lat="-27.2737903" lon="151.2898973">
  <ele>350.86</ele>
  <time>2026-09-01T19:55:30Z</time>
  <course>5.59</course>
  <speed>4.34</speed>
  <fix>3d</fix>
</trkpt>
<trkpt lat="-27.2737749" lon="151.2898987">
  <ele>350.6</ele>
  <time>2026-09-01T19:55:30Z</time>
  <course>329.57</course>
  <speed>4.219976303251003</speed>
  <fix>3d</fix>
</trkpt>
<trkpt lat="-27.2737825" lon="151.2898981">
  <ele>350.78</ele>
  <time>2026-09-01T19:55:30Z</time>
  <course>4.14</course>
  <speed>4.3</speed>
  <fix>3d</fix>
</trkpt>
<trkpt lat="-27.2737712" lon="151.2898989">
  <ele>350.56</ele>
  <time>2026-09-01T19:55:30Z</time>
  <course>329.54</course>
  <speed>4.1487950057818</speed>
  <fix>3d</fix>
</trkpt>
<trkpt lat="-27.2737825" lon="151.2898981">
  <ele>350.78</ele>
  <time>2026-09-01T19:55:30Z</time>
  <course>4.14</course>
  <speed>4.3</speed>
  <fix>3d</fix>
</trkpt>
<trkpt lat="-27.2737675" lon="151.2898992">
  <ele>350.52</ele>
  <time>2026-09-01T19:55:30Z</time>
  <course>329.53</course>
  <speed>4.0683166051820505</speed>
  <fix>3d</fix>
</trkpt>
<trkpt lat="-27.2737749" lon="151.2898986">
  <ele>350.71</ele>
  <time>2026-09-01T19:55:30Z</time>
  <course>3.41</course>
  <speed>4.2</speed>
  <fix>3d</fix>
</trkpt>
<trkpt lat="-27.273764" lon="151.2898994">
  <ele>350.48</ele>
  <time>2026-09-01T19:55:30Z</time>
  <course>329.53</course>
  <speed>3.9884834210511646</speed>
  <fix>3d</fix>
</trkpt>
<trkpt lat="-27.2737749" lon="151.2898986">
  <ele>350.71</ele>
  <time>2026-09-01T19:55:30Z</time>
  <course>3.41</course>
  <speed>4.2</speed>
  <fix>3d</fix>
</trkpt>
<trkpt lat="-27.2737605" lon="151.2898997">
  <ele>350.44</ele>
  <time>2026-09-01T19:55:30Z</time>
  <course>329.53</course>
  <speed>3.888701582790842</speed>
  <fix>3d</fix>
</trkpt>
<trkpt lat="-27.2737675" lon="151.2898991">
  <ele>350.64</ele>
  <time>2026-09-01T19:55:30Z</time>
  <course>3.2</course>
  <speed>4.06</speed>
  <fix>3d</fix>
</trkpt>
<trkpt lat="-27.2737571" lon="151.2898999">
  <ele>350.39</ele>
  <time>2026-09-01T19:55:30Z</time>
  <course>329.56</course>
  <speed>3.799605242653505</speed>
  <fix>3d</fix>
</trkpt>
<trkpt lat="-27.2737675" lon="151.2898991">
  <ele>350.64</ele>
  <time>2026-09-01T19:55:30Z</time>
  <course>3.2</course>
  <speed>4.06</speed>
  <fix>3d</fix>
</trkpt>
<trkpt lat="-27.2737538" lon="151.2899002">
  <ele>350.34</ele>
  <time>2026-09-01T19:55:30Z</time>
  <course>329.59</course>
  <speed>3.6998648623970034</speed>
  <fix>3d</fix>
</trkpt>
<trkpt lat="-27.2737604" lon="151.2898996">
  <ele>350.55</ele>
  <time>2026-09-01T19:55:30Z</time>
  <course>3.32</course>
  <speed>3.89</speed>
  <fix>3d</fix>
</trkpt>
<trkpt lat="-27.2737505" lon="151.2899004">
  <ele>350.28</ele>
  <time>2026-09-01T19:55:30Z</time>
  <course>329.65</course>
  <speed>3.600902664610639</speed>
  <fix>3d</fix>
</trkpt>
<trkpt lat="-27.2737604" lon="151.2898996">
  <ele>350.55</ele>
  <time>2026-09-01T19:55:30Z</time>
  <course>3.32</course>
  <speed>3.89</speed>
  <fix>3d</fix>
</trkpt>
<trkpt lat="-27.2737474" lon="151.2899007">
  <ele>350.22</ele>
  <time>2026-09-01T19:55:30Z</time>
  <course>329.71</course>
  <speed>3.5012140751459344</speed>
  <fix>3d</fix>
</trkpt>
<trkpt lat="-27.2737535" lon="151.2899">
  <ele>350.45</ele>
  <time>2026-09-01T19:55:30Z</time>
  <course>3.63</course>
  <speed>3.7</speed>
  <fix>3d</fix>
</trkpt>
<trkpt lat="-27.2737443" lon="151.2899009">
  <ele>350.15</ele>
  <time>2026-09-01T19:55:30Z</time>
  <course>329.78</course>
  <speed>3.4123452345857386</speed>
  <fix>3d</fix>
</trkpt>
<trkpt lat="-27.2737535" lon="151.2899">
  <ele>350.45</ele>
  <time>2026-09-01T19:55:30Z</time>
  <course>3.63</course>
  <speed>3.7</speed>
  <fix>3d</fix>
</trkpt>
<trkpt lat="-27.2737413" lon="151.2899012">
  <ele>350.08</ele>
  <time>2026-09-01T19:55:30Z</time>
  <course>329.86</course>
  <speed>3.312717917360305</speed>
  <fix>3d</fix>
</trkpt>
<trkpt lat="-27.2737471" lon="151.2899005">
  <ele>350.32</ele>
  <time>2026-09-01T19:55:30Z</time>
  <course>4.04</course>
  <speed>3.51</speed>
  <fix>3d</fix>
</trkpt>
<trkpt lat="-27.2737384" lon="151.2899015">
  <ele>350.0</ele>
  <time>2026-09-01T19:55:30Z</time>
  <course>329.94</course>
  <speed>3.2239882133779583</speed>
  <fix>3d</fix>
</trkpt>
<trkpt lat="-27.2737471" lon="151.2899005">
  <ele>350.32</ele>
  <time>2026-09-01T19:55:30Z</time>
  <course>4.04</course>
  <speed>3.51</speed>
  <fix>3d</fix>
</trkpt>
<trkpt lat="-27.2737356" lon="151.2899017">
  <ele>349.92</ele>
  <time>2026-09-01T19:55:30Z</time>
  <course>330.02</course>
  <speed>3.1244359490954525</speed>
  <fix>3d</fix>
</trkpt>
<trkpt lat="-27.273741" lon="151.289901">
  <ele>350.18</ele>
  <time>2026-09-01T19:55:30Z</time>
  <course>4.5</course>
  <speed>3.32</speed>
  <fix>3d</fix>
</trkpt>
<trkpt lat="-27.2737328" lon="151.289902">
  <ele>349.83</ele>
  <time>2026-09-01T19:55:30Z</time>
  <course>330.07</course>
  <speed>3.0269621735330623</speed>
  <fix>3d</fix>
</trkpt>
<trkpt lat="-27.273741" lon="151.289901">
  <ele>350.18</ele>
  <time>2026-09-01T19:55:30Z</time>
  <course>4.5</course>
  <speed>3.32</speed>
  <fix>3d</fix>
</trkpt>
<trkpt lat="-27.2737302" lon="151.2899023">
  <ele>349.73</ele>
  <time>2026-09-01T19:55:30Z</time>
  <course>330.05</course>
  <speed>2.872646863086377</speed>
  <fix>3d</fix>
</trkpt>
<trkpt lat="-27.2737352" lon="151.2899016">
  <ele>350.02</ele>
  <time>2026-09-01T19:55:30Z</time>
  <course>5.07</course>
  <speed>3.13</speed>
  <fix>3d</fix>
</trkpt>
<trkpt lat="-27.2737278" lon="151.2899027">
  <ele>349.58</ele>
  <time>2026-09-01T19:55:30Z</time>
  <course>329.79</course>
  <speed>2.604611295375953</speed>
  <fix>3d</fix>
</trkpt>
<trkpt lat="-27.2737352" lon="151.2899016">
  <ele>350.02</ele>
  <time>2026-09-01T19:55:30Z</time>
  <course>5.07</course>
  <speed>3.13</speed>
  <fix>3d</fix>
</trkpt>
<trkpt lat="-27.2737256" lon="151.2899033">
  <ele>349.4</ele>
  <time>2026-09-01T19:55:30Z</time>
  <course>329.11</course>
  <speed>2.2816003155680007</speed>
  <fix>3d</fix>
</trkpt>
<trkpt lat="-27.2737298" lon="151.2899022">
  <ele>349.81</ele>
  <time>2026-09-01T19:55:30Z</time>
  <course>7.55</course>
  <speed>2.82</speed>
  <fix>3d</fix>
</trkpt>
<trkpt lat="-27.2737238" lon="151.289904">
  <ele>349.21</ele>
  <time>2026-09-01T19:55:30Z</time>
  <course>328.02</course>
  <speed>1.964739168439414</speed>
  <fix>3d</fix>
</trkpt>
<trkpt lat="-27.2737298" lon="151.2899022">
  <ele>349.81</ele>
  <time>2026-09-01T19:55:30Z</time>
  <course>7.55</course>
  <speed>2.82</speed>
  <fix>3d</fix>
</trkpt>
<trkpt lat="-27.2737224" lon="151.2899049">
  <ele>349.01</ele>
  <time>2026-09-01T19:55:30Z</time>
  <course>326.55</course>
  <speed>1.6623477373883</speed>
  <fix>3d</fix>
</trkpt>
<trkpt lat="-27.2737253" lon="151.2899032">
  <ele>349.5</ele>
  <time>2026-09-01T19:55:30Z</time>
  <course>15.79</course>
  <speed>2.27</speed>
  <fix>3d</fix>
</trkpt>
<trkpt lat="-27.2737214" lon="151.2899059">
  <ele>348.82</ele>
  <time>2026-09-01T19:55:30Z</time>
  <course>324.8</course>
  <speed>1.4430869689661814</speed>
  <fix>3d</fix>
</trkpt>
<trkpt lat="-27.2737253" lon="151.2899032">
  <ele>349.5</ele>
  <time>2026-09-01T19:55:30Z</time>
  <course>15.79</course>
  <speed>2.27</speed>
  <fix>3d</fix>
</trkpt>
<trkpt lat="-27.2737207" lon="151.2899071">
  <ele>348.65</ele>
  <time>2026-09-01T19:55:30Z</time>
  <course>322.79</course>
  <speed>1.3167383946707105</speed>
  <fix>3d</fix>
</trkpt>
<trkpt lat="-27.2737221" lon="151.2899047">
  <ele>349.12</ele>
  <time>2026-09-01T19:55:30Z</time>
  <course>34.52</course>
  <speed>1.66</speed>
  <fix>3d</fix>
</trkpt>
<trkpt lat="-27.2737205" lon="151.2899083">
  <ele>348.49</ele>
  <time>2026-09-01T19:55:30Z</time>
  <course>320.57</course>
  <speed>1.3109538512091108</speed>
  <fix>3d</fix>
</trkpt>
<trkpt lat="-27.2737221" lon="151.2899047">
  <ele>349.12</ele>
  <time>2026-09-01T19:55:30Z</time>
  <course>34.52</course>
  <speed>1.66</speed>
  <fix>3d</fix>
</trkpt>
<trkpt lat="-27.2737206" lon="151.2899096">
  <ele>348.36</ele>
  <time>2026-09-01T19:55:30Z</time>
  <course>318.19</course>
  <speed>1.3921566003866088</speed>
  <fix>3d</fix>
</trkpt>
<trkpt lat="-27.2737204" lon="151.2899069">
  <ele>348.76</ele>
  <time>2026-09-01T19:55:30Z</time>
  <course>67.23</course>
  <speed>1.3</speed>
  <fix>3d</fix>
</trkpt>
<trkpt lat="-27.273721" lon="151.2899109">
  <ele>348.24</ele>
  <time>2026-09-01T19:55:30Z</time>
  <course>315.72</course>
  <speed>1.5347312468311838</speed>
  <fix>3d</fix>
</trkpt>
<trkpt lat="-27.2737204" lon="151.2899069">
  <ele>348.76</ele>
  <time>2026-09-01T19:55:30Z</time>
  <course>67.23</course>
  <speed>1.3</speed>
  <fix>3d</fix>
</trkpt>
<trkpt lat="-27.2737217" lon="151.2899122">
  <ele>348.15</ele>
  <time>2026-09-01T19:55:30Z</time>
  <course>313.22</course>
  <speed>1.7055204484262274</speed>
  <fix>3d</fix>
</trkpt>
<trkpt lat="-27.2737202" lon="151.2899095">
  <ele>348.47</ele>
  <time>2026-09-01T19:55:30Z</time>
  <course>103.65</course>
  <speed>1.37</speed>
  <fix>3d</fix>
</trkpt>
<trkpt lat="-27.2737228" lon="151.2899135">
  <ele>348.08</ele>
  <time>2026-09-01T19:55:30Z</time>
  <course>310.75</course>
  <speed>1.8843035848822236</speed>
  <fix>3d</fix>
</trkpt>
<trkpt lat="-27.2737202" lon="151.2899095">
  <ele>348.47</ele>
  <time>2026-09-01T19:55:30Z</time>
  <course>103.65</course>
  <speed>1.37</speed>
  <fix>3d</fix>
</trkpt>
<trkpt lat="-27.2737241" lon="151.2899147">
  <ele>348.04</ele>
  <time>2026-09-01T19:55:30Z</time>
  <course>308.38</course>
  <speed>2.0663252406143617</speed>
  <fix>3d</fix>
</trkpt>
<trkpt lat="-27.2737214" lon="151.2899122">
  <ele>348.27</ele>
  <time>2026-09-01T19:55:30Z</time>
  <course>129.12</course>
  <speed>1.7</speed>
  <fix>3d</fix>
</trkpt>
<trkpt lat="-27.2737257" lon="151.2899158">
  <ele>348.01</ele>
  <time>2026-09-01T19:55:30Z</time>
  <course>306.17</course>
  <speed>2.2323530186778253</speed>
  <fix>3d</fix>
</trkpt>
<trkpt lat="-27.2737214" lon="151.2899122">
  <ele>348.27</ele>
  <time>2026-09-01T19:55:30Z</time>
  <course>129.12</course>
  <speed>1.7</speed>
  <fix>3d</fix>
</trkpt>
<trkpt lat="-27.2737275" lon="151.2899168">
  <ele>348.0</ele>
  <time>2026-09-01T19:55:30Z</time>
  <course>304.19</course>
  <speed>2.3846173697262207</speed>
  <fix>3d</fix>
</trkpt>
<trkpt lat="-27.2737239" lon="151.2899148">
  <ele>348.15</ele>
  <time>2026-09-01T19:55:30Z</time>
  <course>145.48</course>
  <speed>2.07</speed>
  <fix>3d</fix>
</trkpt>
<trkpt lat="-27.2737295" lon="151.2899176">
  <ele>348.0</ele>
  <time>2026-09-01T19:55:30Z</time>
  <course>302.57</course>
  <speed>2.5203372790164416</speed>
  <fix>3d</fix>
</trkpt>
<trkpt lat="-27.2737239" lon="151.2899148">
  <ele>348.15</ele>
  <time>2026-09-01T19:55:30Z</time>
  <course>145.48</course>
  <speed>2.07</speed>
  <fix>3d</fix>
</trkpt>
<trkpt lat="-27.2737317" lon="151.2899184">
  <ele>348.02</ele>
  <time>2026-09-01T19:55:30Z</time>
  <course>301.39</course>
  <speed>2.6268802789620995</speed>
  <fix>3d</fix>
</trkpt>
<trkpt lat="-27.2737275" lon="151.2899169">
  <ele>348.12</ele>
  <time>2026-09-01T19:55:30Z</time>
  <course>156.71</course>
  <speed>2.4</speed>
  <fix>3d</fix>
</trkpt>
<trkpt lat="-27.273734" lon="151.289919">
  <ele>348.03</ele>
  <time>2026-09-01T19:55:30Z</time>
  <course>300.64</course>
  <speed>2.7240594707164525</speed>
  <fix>3d</fix>
</trkpt>
<trkpt lat="-27.2737275" lon="151.2899169">
  <ele>348.12</ele>
  <time>2026-09-01T19:55:30Z</time>
  <course>156.71</course>
  <speed>2.4</speed>
  <fix>3d</fix>
</trkpt>
<trkpt lat="-27.2737364" lon="151.2899195">
  <ele>348.05</ele>
  <time>2026-09-01T19:55:30Z</time>
  <course>300.28</course>
  <speed>2.7902867236182023</speed>
  <fix>3d</fix>
</trkpt>
<trkpt lat="-27.2737318" lon="151.2899186">
  <ele>348.13</ele>
  <time>2026-09-01T19:55:30Z</time>
  <course>164.82</course>
  <speed>2.66</speed>
  <fix>3d</fix>
</trkpt>
<trkpt lat="-27.2737389" lon="151.2899198">
  <ele>348.06</ele>
  <time>2026-09-01T19:55:30Z</time>
  <course>300.18</course>
  <speed>2.853769437077915</speed>
  <fix>3d</fix>
</trkpt>
<trkpt lat="-27.2737318" lon="151.2899186">
  <ele>348.13</ele>
  <time>2026-09-01T19:55:30Z</time>
  <course>164.82</course>
  <speed>2.66</speed>
  <fix>3d</fix>
</trkpt>
<trkpt lat="-27.2737415" lon="151.2899201">
  <ele>348.06</ele>
  <time>2026-09-01T19:55:30Z</time>
  <course>300.24</course>
  <speed>2.894995682207488</speed>
  <fix>3d</fix>
</trkpt>
<trkpt lat="-27.2737367" lon="151.2899197">
  <ele>348.16</ele>
  <time>2026-09-01T19:55:30Z</time>
  <course>171.11</course>
  <speed>2.84</speed>
  <fix>3d</fix>
</trkpt>
<trkpt lat="-27.273744" lon="151.2899202">
  <ele>348.06</ele>
  <time>2026-09-01T19:55:30Z</time>
  <course>300.35</course>
  <speed>2.920616373302047</speed>
  <fix>3d</fix>
</trkpt>
<trkpt lat="-27.2737367" lon="151.2899197">
  <ele>348.16</ele>
  <time>2026-09-01T19:55:30Z</time>
  <course>171.11</course>
  <speed>2.84</speed>
  <fix>3d</fix>
</trkpt>
<trkpt lat="-27.2737467" lon="151.2899203">
  <ele>348.06</ele>
  <time>2026-09-01T19:55:30Z</time>
  <course>300.44</course>
  <speed>2.9501525384291574</speed>
  <fix>3d</fix>
</trkpt>
<trkpt lat="-27.2737418" lon="151.2899203">
  <ele>348.18</ele>
  <time>2026-09-01T19:55:30Z</time>
  <course>176.2</course>
  <speed>2.95</speed>
  <fix>3d</fix>
</trkpt>
<trkpt lat="-27.2737493" lon="151.2899202">
  <ele>348.04</ele>
  <time>2026-09-01T19:55:30Z</time>
  <course>300.45</course>
  <speed>2.9528630174798156</speed>
  <fix>3d</fix>
</trkpt>
<trkpt lat="-27.2737418" lon="151.2899203">
  <ele>348.18</ele>
  <time>2026-09-01T19:55:30Z</time>
  <course>176.2</course>
  <speed>2.95</speed>
  <fix>3d</fix>
</trkpt>
<trkpt lat="-27.273752" lon="151.28992">
  <ele>348.02</ele>
  <time>2026-09-01T19:55:30Z</time>
  <course>300.39</course>
  <speed>2.9581920154040033</speed>
  <fix>3d</fix>
</trkpt>
<trkpt lat="-27.2737472" lon="151.2899205">
  <ele>348.17</ele>
  <time>2026-09-01T19:55:30Z</time>
  <course>180.44</course>
  <speed>3.01</speed>
  <fix>3d</fix>
</trkpt>
<trkpt lat="-27.2737547" lon="151.2899199">
  <ele>347.99</ele>
  <time>2026-09-01T19:55:30Z</time>
  <course>300.24</course>
  <speed>2.9364093720052047</speed>
  <fix>3d</fix>
</trkpt>
<trkpt lat="-27.2737472" lon="151.2899205">
  <ele>348.17</ele>
  <time>2026-09-01T19:55:30Z</time>
  <course>180.44</course>
  <speed>3.01</speed>
  <fix>3d</fix>
</trkpt>
<trkpt lat="-27.2737574" lon="151.2899195">
  <ele>347.95</ele>
  <time>2026-09-01T19:55:30Z</time>
  <course>300.05</course>
  <speed>2.9175503423248754</speed>
  <fix>3d</fix>
</trkpt>
<trkpt lat="-27.2737527" lon="151.2899203">
  <ele>348.13</ele>
  <time>2026-09-01T19:55:30Z</time>
  <course>184.18</course>
  <speed>3.02</speed>
  <fix>3d</fix>
</trkpt>
<trkpt lat="-27.27376" lon="151.2899191">
  <ele>347.91</ele>
  <time>2026-09-01T19:55:30Z</time>
  <course>299.84</course>
  <speed>2.8704180880143575</speed>
  <fix>3d</fix>
</trkpt>
<trkpt lat="-27.2737527" lon="151.2899203">
  <ele>348.13</ele>
  <time>2026-09-01T19:55:30Z</time>
  <course>184.18</course>
  <speed>3.02</speed>
  <fix>3d</fix>
</trkpt>
<trkpt lat="-27.2737625" lon="151.2899186">
  <ele>347.87</ele>
  <time>2026-09-01T19:55:30Z</time>
  <course>299.66</course>
  <speed>2.8260396317107794</speed>
  <fix>3d</fix>
</trkpt>
<trkpt lat="-27.273758" lon="151.2899197">
  <ele>348.07</ele>
  <time>2026-09-01T19:55:30Z</time>
  <course>187.74</course>
  <speed>2.98</speed>
  <fix>3d</fix>
</trkpt>
<trkpt lat="-27.273765" lon="151.289918">
  <ele>347.82</ele>
  <time>2026-09-01T19:55:30Z</time>
  <course>299.51</course>
  <speed>2.76508589378341</speed>
  <fix>3d</fix>
</trkpt>
<trkpt lat="-27.273758" lon="151.2899197">
  <ele>348.07</ele>
  <time>2026-09-01T19:55:30Z</time>
  <course>187.74</course>
  <speed>2.98</speed>
  <fix>3d</fix>
</trkpt>
<trkpt lat="-27.2737675" lon="151.2899173">
  <ele>347.77</ele>
  <time>2026-09-01T19:55:30Z</time>
  <course>299.42</course>
  <speed>2.692582403567252</speed>
  <fix>3d</fix>
</trkpt>
<trkpt lat="-27.2737632" lon="151.2899188">
  <ele>347.98</ele>
  <time>2026-09-01T19:55:30Z</time>
  <course>191.34</course>
  <speed>2.89</speed>
  <fix>3d</fix>
</trkpt>
<trkpt lat="-27.2737698" lon="151.2899166">
  <ele>347.72</ele>
  <time>2026-09-01T19:55:30Z</time>
  <course>299.4</course>
  <speed>2.615893728728291</speed>
  <fix>3d</fix>
</trkpt>
<trkpt lat="-27.2737632" lon="151.2899188">
  <ele>347.98</ele>
  <time>2026-09-01T19:55:30Z</time>
  <course>191.34</course>
  <speed>2.89</speed>
  <fix>3d</fix>
</trkpt>
<trkpt lat="-27.2737721" lon="151.2899158">
  <ele>347.67</ele>
  <time>2026-09-01T19:55:30Z</time>
  <course>299.44</course>
  <speed>2.5300197627686627</speed>
  <fix>3d</fix>
</trkpt>
<trkpt lat="-27.2737682" lon="151.2899175">
  <ele>347.88</ele>
  <time>2026-09-01T19:55:30Z</time>
  <course>195.1</course>
  <speed>2.76</speed>
  <fix>3d</fix>
</trkpt>
<trkpt lat="-27.2737742" lon="151.289915">
  <ele>347.61</ele>
  <time>2026-09-01T19:55:30Z</time>
  <course>299.54</course>
  <speed>2.434604690704427</speed>
  <fix>3d</fix>
</trkpt>
<trkpt lat="-27.2737682" lon="151.2899175">
  <ele>347.88</ele>
  <time>2026-09-01T19:55:30Z</time>
  <course>195.1</course>
  <speed>2.76</speed>
  <fix>3d</fix>
</trkpt>
<trkpt lat="-27.2737763" lon="151.2899141">
  <ele>347.56</ele>
  <time>2026-09-01T19:55:30Z</time>
  <course>299.68</course>
  <speed>2.3333452380648687</speed>
  <fix>3d</fix>
</trkpt>
<trkpt lat="-27.2737728" lon="151.2899158">
  <ele>347.77</ele>
  <time>2026-09-01T19:55:30Z</time>
  <course>199.13</course>
  <speed>2.6</speed>
  <fix>3d</fix>
</trkpt>
<trkpt lat="-27.2737782" lon="151.2899131">
  <ele>347.5</ele>
  <time>2026-09-01T19:55:30Z</time>
  <course>299.86</course>
  <speed>2.231815404552984</speed>
  <fix>3d</fix>
</trkpt>
<trkpt lat="-27.2737728" lon="151.2899158">
  <ele>347.77</ele>
  <time>2026-09-01T19:55:30Z</time>
  <course>199.13</course>
  <speed>2.6</speed>
  <fix>3d</fix>
</trkpt>
<trkpt lat="-27.27378" lon="151.2899121">
  <ele>347.44</ele>
  <time>2026-09-01T19:55:30Z</time>
  <course>300.07</course>
  <speed>2.1205895406702355</speed>
  <fix>3d</fix>
</trkpt>
<trkpt lat="-27.273777" lon="151.289914">
  <ele>347.66</ele>
  <time>2026-09-01T19:55:30Z</time>
  <course>203.49</course>
  <speed>2.41</speed>
  <fix>3d</fix>
</trkpt>
<trkpt lat="-27.2737817" lon="151.2899111">
  <ele>347.39</ele>
  <time>2026-09-01T19:55:30Z</time>
  <course>300.3</course>
  <speed>2.013405075984463</speed>
  <fix>3d</fix>
</trkpt>
<trkpt lat="-27.273777" lon="151.289914">
  <ele>347.66</ele>
  <time>2026-09-01T19:55:30Z</time>
  <course>203.49</course>
  <speed>2.41</speed>
  <fix>3d</fix>
</trkpt>
<trkpt lat="-27.2737832" lon="151.28991">
  <ele>347.33</ele>
  <time>2026-09-01T19:55:30Z</time>
  <course>300.54</course>
  <speed>1.897076698502198</speed>
  <fix>3d</fix>
</trkpt>
<trkpt lat="-27.2737807" lon="151.289912">
  <ele>347.55</ele>
  <time>2026-09-01T19:55:30Z</time>
  <course>208.3</course>
  <speed>2.19</speed>
  <fix>3d</fix>
</trkpt>
<trkpt lat="-27.2737846" lon="151.2899089">
  <ele>347.28</ele>
  <time>2026-09-01T19:55:30Z</time>
  <course>300.78</course>
  <speed>1.7860011198204777</speed>
  <fix>3d</fix>
</trkpt>
<trkpt lat="-27.2737807" lon="151.289912">
  <ele>347.55</ele>
  <time>2026-09-01T19:55:30Z</time>
  <course>208.3</course>
  <speed>2.19</speed>
  <fix>3d</fix>
</trkpt>
<trkpt lat="-27.2737859" lon="151.2899079">
  <ele>347.22</ele>
  <time>2026-09-01T19:55:30Z</time>
  <course>301.02</course>
  <speed>1.6683225107874078</speed>
  <fix>3d</fix>
</trkpt>
<trkpt lat="-27.273784" lon="151.2899099">
  <ele>347.44</ele>
  <time>2026-09-01T19:55:30Z</time>
  <course>213.74</course>
  <speed>1.97</speed>
  <fix>3d</fix>
</trkpt>
<trkpt lat="-27.273787" lon="151.2899068">
  <ele>347.17</ele>
  <time>2026-09-01T19:55:30Z</time>
  <course>301.26</course>
  <speed>1.5631058825300352</speed>
  <fix>3d</fix>
</trkpt>
<trkpt lat="-27.273784" lon="151.2899099">
  <ele>347.44</ele>
  <time>2026-09-01T19:55:30Z</time>
  <course>213.74</course>
  <speed>1.97</speed>
  <fix>3d</fix>
</trkpt>
<trkpt lat="-27.2737881" lon="151.2899057">
  <ele>347.12</ele>
  <time>2026-09-01T19:55:30Z</time>
  <course>301.5</course>
  <speed>1.4509651959988565</speed>
  <fix>3d</fix>
</trkpt>
<trkpt lat="-27.2737867" lon="151.2899076">
  <ele>347.32</ele>
  <time>2026-09-01T19:55:30Z</time>
  <course>220.05</course>
  <speed>1.75</speed>
  <fix>3d</fix>
</trkpt>
<trkpt lat="-27.2737889" lon="151.2899046">
  <ele>347.06</ele>
  <time>2026-09-01T19:55:30Z</time>
  <course>301.73</course>
  <speed>1.3541787178950937</speed>
  <fix>3d</fix>
</trkpt>
<trkpt lat="-27.2737867" lon="151.2899076">
  <ele>347.32</ele>
  <time>2026-09-01T19:55:30Z</time>
  <course>220.05</course>
  <speed>1.75</speed>
  <fix>3d</fix>
</trkpt>
<trkpt lat="-27.2737897" lon="151.2899035">
  <ele>347.01</ele>
  <time>2026-09-01T19:55:30Z</time>
  <course>301.96</course>
  <speed>1.2564234954823155</speed>
  <fix>3d</fix>
</trkpt>
<trkpt lat="-27.2737888" lon="151.2899053">
  <ele>347.22</ele>
  <time>2026-09-01T19:55:30Z</time>
  <course>227.54</course>
  <speed>1.53</speed>
  <fix>3d</fix>
</trkpt>
<trkpt lat="-27.2737903" lon="151.2899024">
  <ele>346.96</ele>
  <time>2026-09-01T19:55:30Z</time>
  <course>302.2</course>
  <speed>1.1676472069936192</speed>
  <fix>3d</fix>
</trkpt>
<trkpt lat="-27.2737888" lon="151.2899053">
  <ele>347.22</ele>
  <time>2026-09-01T19:55:30Z</time>
  <course>227.54</course>
  <speed>1.53</speed>
  <fix>3d</fix>
</trkpt>
<trkpt lat="-27.2737908" lon="151.2899013">
  <ele>346.91</ele>
  <time>2026-09-01T19:55:30Z</time>
  <course>302.44</course>
  <speed>1.086324076875773</speed>
  <fix>3d</fix>
</trkpt>
<trkpt lat="-27.2737904" lon="151.289903">
  <ele>347.11</ele>
  <time>2026-09-01T19:55:30Z</time>
  <course>236.59</course>
  <speed>1.33</speed>
  <fix>3d</fix>
</trkpt>
<trkpt lat="-27.2737912" lon="151.2899002">
  <ele>346.86</ele>
  <time>2026-09-01T19:55:30Z</time>
  <course>302.69</course>
  <speed>1.0261578825892241</speed>
  <fix>3d</fix>
</trkpt>
<trkpt lat="-27.2737904" lon="151.289903">
  <ele>347.11</ele>
  <time>2026-09-01T19:55:30Z</time>
  <course>236.59</course>
  <speed>1.33</speed>
  <fix>3d</fix>
</trkpt>
<trkpt lat="-27.2737914" lon="151.2898992">
  <ele>346.81</ele>
  <time>2026-09-01T19:55:30Z</time>
  <course>302.93</course>
  <speed>0.9687620966986684</speed>
  <fix>3d</fix>
</trkpt>
<trkpt lat="-27.2737915" lon="151.2899008">
  <ele>347.01</ele>
  <time>2026-09-01T19:55:30Z</time>
  <course>247.57</course>
  <speed>1.17</speed>
  <fix>3d</fix>
</trkpt>
<trkpt lat="-27.2737915" lon="151.2898982">
  <ele>346.76</ele>
  <time>2026-09-01T19:55:30Z</time>
  <course>303.17</course>
  <speed>0.92</speed>
  <fix>3d</fix>
</trkpt>
<trkpt lat="-27.2737915" lon="151.2899008">
  <ele>347.01</ele>
  <time>2026-09-01T19:55:30Z</time>
  <course>247.57</course>
  <speed>1.17</speed>
  <fix>3d</fix>
</trkpt>
<trkpt lat="-27.2737915" lon="151.2898972">
  <ele>346.71</ele>
  <time>2026-09-01T19:55:30Z</time>
  <course>303.41</course>
  <speed>0.8868483523128404</speed>
  <fix>3d</fix>
</trkpt>
<trkpt lat="-27.273792" lon="151.2898986">
  <ele>346.9</ele>
  <time>2026-09-01T19:55:30Z</time>
  <course>260.62</course>
  <speed>1.04</speed>
  <fix>3d</fix>
</trkpt>
<trkpt lat="-27.2737915" lon="151.2898963">
  <ele>346.66</ele>
  <time>2026-09-01T19:55:30Z</time>
  <course>303.65</course>
  <speed>0.8709190547921202</speed>
  <fix>3d</fix>
</trkpt>
<trkpt lat="-27.273792" lon="151.2898986">
  <ele>346.9</ele>
  <time>2026-09-01T19:55:30Z</time>
  <course>260.62</course>
  <speed>1.04</speed>
  <fix>3d</fix>
</trkpt>
<trkpt lat="-27.2737913" lon="151.2898954">
  <ele>346.61</ele>
  <time>2026-09-01T19:55:30Z</time>
  <course>303.88</course>
  <speed>0.8692525524840292</speed>
  <fix>3d</fix>
</trkpt>
<trkpt lat="-27.2737921" lon="151.2898966">
  <ele>346.81</ele>
  <time>2026-09-01T19:55:30Z</time>
  <course>275.33</course>
  <speed>0.96</speed>
  <fix>3d</fix>
</trkpt>
<trkpt lat="-27.273791" lon="151.2898946">
  <ele>346.57</ele>
  <time>2026-09-01T19:55:30Z</time>
  <course>304.11</course>
  <speed>0.8746427842267951</speed>
  <fix>3d</fix>
</trkpt>
<trkpt lat="-27.2737921" lon="151.2898966">
  <ele>346.81</ele>
  <time>2026-09-01T19:55:30Z</time>
  <course>275.33</course>
  <speed>0.96</speed>
  <fix>3d</fix>
</trkpt>
<trkpt lat="-27.2737906" lon="151.2898938">
  <ele>346.52</ele>
  <time>2026-09-01T19:55:30Z</time>
  <course>304.33</course>
  <speed>0.8902246907382428</speed>
  <fix>3d</fix>
</trkpt>
<trkpt lat="-27.2737917" lon="151.2898947">
  <ele>346.71</ele>
  <time>2026-09-01T19:55:30Z</time>
  <course>290.55</course>
  <speed>0.93</speed>
  <fix>3d</fix>
</trkpt>
<trkpt lat="-27.2737901" lon="151.289893">
  <ele>346.47</ele>
  <time>2026-09-01T19:55:30Z</time>
  <course>304.54</course>
  <speed>0.9121951545584969</speed>
  <fix>3d</fix>
</trkpt>
<trkpt lat="-27.2737917" lon="151.2898947">
  <ele>346.71</ele>
  <time>2026-09-01T19:55:30Z</time>
  <course>290.55</course>
  <speed>0.93</speed>
  <fix>3d</fix>
</trkpt>
<trkpt lat="-27.2737895" lon="151.2898923">
  <ele>346.42</ele>
  <time>2026-09-01T19:55:30Z</time>
  <course>304.75</course>
  <speed>0.9449338601193208</speed>
  <fix>3d</fix>
</trkpt>
<trkpt lat="-27.273791" lon="151.2898931">
  <ele>346.61</ele>
  <time>2026-09-01T19:55:30Z</time>
  <course>304.81</course>
  <speed>0.94</speed>
  <fix>3d</fix>
</trkpt>
<trkpt lat="-27.2737889" lon="151.2898917">
  <ele>346.38</ele>
  <time>2026-09-01T19:55:30Z</time>
  <course>304.96</course>
  <speed>0.979081201943945</speed>
  <fix>3d</fix>
</trkpt>
<trkpt lat="-27.273791" lon="151.2898931">
  <ele>346.61</ele>
  <time>2026-09-01T19:55:30Z</time>
  <course>304.81</course>
  <speed>0.94</speed>
  <fix>3d</fix>
</trkpt>
<trkpt lat="-27.2737881" lon="151.2898911">
  <ele>346.33</ele>
  <time>2026-09-01T19:55:30Z</time>
  <course>305.15</course>
  <speed>1.0072239075796403</speed>
  <fix>3d</fix>
</trkpt>
<trkpt lat="-27.2737898" lon="151.2898917">
  <ele>346.51</ele>
  <time>2026-09-01T19:55:30Z</time>
  <course>317.17</course>
  <speed>0.99</speed>
  <fix>3d</fix>
</trkpt>
<trkpt lat="-27.2737874" lon="151.2898905">
  <ele>346.28</ele>
  <time>2026-09-01T19:55:30Z</time>
  <course>305.34</course>
  <speed>1.0469479452198185</speed>
  <fix>3d</fix>
</trkpt>
<trkpt lat="-27.2737898" lon="151.2898917">
  <ele>346.51</ele>
  <time>2026-09-01T19:55:30Z</time>
  <course>317.17</course>
  <speed>0.99</speed>
  <fix>3d</fix>
</trkpt>
<trkpt lat="-27.2737865" lon="151.2898901">
  <ele>346.23</ele>
  <time>2026-09-01T19:55:30Z</time>
  <course>305.53</course>
  <speed>1.0697663296253066</speed>
  <fix>3d</fix>
</trkpt>
<trkpt lat="-27.2737884" lon="151.2898904">
  <ele>346.41</ele>
  <time>2026-09-01T19:55:30Z</time>
  <course>327.54</course>
  <speed>1.05</speed>
  <fix>3d</fix>
</trkpt>
<trkpt lat="-27.2737856" lon="151.2898896">
  <ele>346.19</ele>
  <time>2026-09-01T19:55:30Z</time>
  <course>305.71</course>
  <speed>1.1072488428533127</speed>
  <fix>3d</fix>
</trkpt>
<trkpt lat="-27.2737884" lon="151.2898904">
  <ele>346.41</ele>
  <time>2026-09-01T19:55:30Z</time>
  <course>327.54</course>
  <speed>1.05</speed>
  <fix>3d</fix>
</trkpt>
<trkpt lat="-27.2737847" lon="151.2898893">
  <ele>346.14</ele>
  <time>2026-09-01T19:55:30Z</time>
  <course>305.88</course>
  <speed>1.1303096920755833</speed>
  <fix>3d</fix>
</trkpt>
<trkpt lat="-27.2737867" lon="151.2898894">
  <ele>346.32</ele>
  <time>2026-09-01T19:55:30Z</time>
  <course>336.2</course>
  <speed>1.11</speed>
  <fix>3d</fix>
</trkpt>
<trkpt lat="-27.2737837" lon="151.289889">
  <ele>346.09</ele>
  <time>2026-09-01T19:55:30Z</time>
  <course>306.05</course>
  <speed>1.157410903698423</speed>
  <fix>3d</fix>
</trkpt>
<trkpt lat="-27.2737867" lon="151.2898894">
  <ele>346.32</ele>
  <time>2026-09-01T19:55:30Z</time>
  <course>336.2</course>
  <speed>1.11</speed>
  <fix>3d</fix>
</trkpt>
<trkpt lat="-27.2737827" lon="151.2898887">
  <ele>346.04</ele>
  <time>2026-09-01T19:55:30Z</time>
  <course>306.21</course>
  <speed>1.1795761950802501</speed>
  <fix>3d</fix>
</trkpt>
<trkpt lat="-27.2737848" lon="151.2898886">
  <ele>346.22</ele>
  <time>2026-09-01T19:55:30Z</time>
  <course>343.56</course>
  <speed>1.16</speed>
  <fix>3d</fix>
</trkpt>
<trkpt lat="-27.2737816" lon="151.2898885">
  <ele>345.99</ele>
  <time>2026-09-01T19:55:30Z</time>
  <course>306.36</course>
  <speed>1.1933985084622822</speed>
  <fix>3d</fix>
</trkpt>
<trkpt lat="-27.2737848" lon="151.2898886">
  <ele>346.22</ele>
  <time>2026-09-01T19:55:30Z</time>
  <course>343.56</course>
  <speed>1.16</speed>
  <fix>3d</fix>
</trkpt>
<trkpt lat="-27.2737806" lon="151.2898884">
  <ele>345.94</ele>
  <time>2026-09-01T19:55:30Z</time>
  <course>306.49</course>
  <speed>1.2103718436910205</speed>
  <fix>3d</fix>
</trkpt>
<trkpt lat="-27.2737827" lon="151.289888">
  <ele>346.12</ele>
  <time>2026-09-01T19:55:30Z</time>
  <course>349.96</course>
  <speed>1.2</speed>
  <fix>3d</fix>
</trkpt>
<trkpt lat="-27.2737795" lon="151.2898883">
  <ele>345.89</ele>
  <time>2026-09-01T19:55:30Z</time>
  <course>306.61</course>
  <speed>1.2200409829181968</speed>
  <fix>3d</fix>
</trkpt>
<trkpt lat="-27.2737827" lon="151.289888">
  <ele>346.12</ele>
  <time>2026-09-01T19:55:30Z</time>
  <course>349.96</course>
  <speed>1.2</speed>
  <fix>3d</fix>
</trkpt>
<trkpt lat="-27.2737784" lon="151.2898883">
  <ele>345.84</ele>
  <time>2026-09-01T19:55:30Z</time>
  <course>306.72</course>
  <speed>1.231990259701756</speed>
  <fix>3d</fix>
</trkpt>
<trkpt lat="-27.2737805" lon="151.2898877">
  <ele>346.02</ele>
  <time>2026-09-01T19:55:30Z</time>
  <course>355.69</course>
  <speed>1.24</speed>
  <fix>3d</fix>
</trkpt>
<trkpt lat="-27.2737773" lon="151.2898883">
  <ele>345.79</ele>
  <time>2026-09-01T19:55:30Z</time>
  <course>306.81</course>
  <speed>1.2358397954427587</speed>
  <fix>3d</fix>
</trkpt>
<trkpt lat="-27.2737805" lon="151.2898877">
  <ele>346.02</ele>
  <time>2026-09-01T19:55:30Z</time>
  <course>355.69</course>
  <speed>1.24</speed>
  <fix>3d</fix>
</trkpt>
<trkpt lat="-27.2737762" lon="151.2898884">
  <ele>345.74</ele>
  <time>2026-09-01T19:55:30Z</time>
  <course>306.87</course>
  <speed>1.2317873193047573</speed>
  <fix>3d</fix>
</trkpt>
<trkpt lat="-27.2737782" lon="151.2898876">
  <ele>345.91</ele>
  <time>2026-09-01T19:55:30Z</time>
  <course>0.98</course>
  <speed>1.25</speed>
  <fix>3d</fix>
</trkpt>
<trkpt lat="-27.2737751" lon="151.2898885">
  <ele>345.69</ele>
  <time>2026-09-01T19:55:30Z</time>
  <course>306.92</course>
  <speed>1.231665539016173</speed>
  <fix>3d</fix>
</trkpt>
<trkpt lat="-27.2737782" lon="151.2898876">
  <ele>345.91</ele>
  <time>2026-09-01T19:55:30Z</time>
  <course>0.98</course>
  <speed>1.25</speed>
  <fix>3d</fix>
</trkpt>
<trkpt lat="-27.273774" lon="151.2898887">
  <ele>345.64</ele>
  <time>2026-09-01T19:55:30Z</time>
  <course>306.94</course>
  <speed>1.23</speed>
  <fix>3d</fix>
</trkpt>
<trkpt lat="-27.273776" lon="151.2898877">
  <ele>345.82</ele>
  <time>2026-09-01T19:55:30Z</time>
  <course>5.99</course>
  <speed>1.26</speed>
  <fix>3d</fix>
</trkpt>
<trkpt lat="-27.2737729" lon="151.2898889">
  <ele>345.59</ele>
  <time>2026-09-01T19:55:30Z</time>
  <course>306.95</course>
  <speed>1.2129715577869087</speed>
  <fix>3d</fix>
</trkpt>
<trkpt lat="-27.273776" lon="151.2898877">
  <ele>345.82</ele>
  <time>2026-09-01T19:55:30Z</time>
  <course>5.99</course>
  <speed>1.26</speed>
  <fix>3d</fix>
</trkpt>
<trkpt lat="-27.2737719" lon="151.2898892">
  <ele>345.53</ele>
  <time>2026-09-01T19:55:30Z</time>
  <course>306.94</course>
  <speed>1.208056290079233</speed>
  <fix>3d</fix>
</trkpt>
<trkpt lat="-27.2737738" lon="151.2898881">
  <ele>345.71</ele>
  <time>2026-09-01T19:55:30Z</time>
  <course>10.86</course>
  <speed>1.25</speed>
  <fix>3d</fix>
</trkpt>
<trkpt lat="-27.2737708" lon="151.2898895">
  <ele>345.48</ele>
  <time>2026-09-01T19:55:30Z</time>
  <course>306.89</course>
  <speed>1.1833004690272035</speed>
  <fix>3d</fix>
</trkpt>
<trkpt lat="-27.2737738" lon="151.2898881">
  <ele>345.71</ele>
  <time>2026-09-01T19:55:30Z</time>
  <course>10.86</course>
  <speed>1.25</speed>
  <fix>3d</fix>
</trkpt>
<trkpt lat="-27.2737698" lon="151.2898899">
  <ele>345.43</ele>
  <time>2026-09-01T19:55:31Z</time>
  <course>306.82</course>
  <speed>1.17</speed>
  <fix>3d</fix>
</trkpt>
<trkpt lat="-27.2737716" lon="151.2898887">
  <ele>345.61</ele>
  <time>2026-09-01T19:55:31Z</time>
  <course>15.75</course>
  <speed>1.22</speed>
  <fix>3d</fix>
</trkpt>
<trkpt lat="-27.2737689" lon="151.2898903">
  <ele>345.37</ele>
  <time>2026-09-01T19:55:31Z</time>
  <course>306.71</course>
  <speed>1.1496521212958293</speed>
  <fix>3d</fix>
</trkpt>
<trkpt lat="-27.2737716" lon="151.2898887">
  <ele>345.61</ele>
  <time>2026-09-01T19:55:31Z</time>
  <course>15.75</course>
  <speed>1.22</speed>
  <fix>3d</fix>
</trkpt>
<trkpt lat="-27.2737679" lon="151.2898908">
  <ele>345.32</ele>
  <time>2026-09-01T19:55:31Z</time>
  <course>306.58</course>
  <speed>1.1229425630903835</speed>
  <fix>3d</fix>
</trkpt>
<trkpt lat="-27.2737696" lon="151.2898894">
  <ele>345.5</ele>
  <time>2026-09-01T19:55:31Z</time>
  <course>20.77</course>
  <speed>1.18</speed>
  <fix>3d</fix>
</trkpt>
<trkpt lat="-27.2737671" lon="151.2898913">
  <ele>345.27</ele>
  <time>2026-09-01T19:55:31Z</time>
  <course>306.43</course>
  <speed>1.102769241500687</speed>
  <fix>3d</fix>
</trkpt>
<trkpt lat="-27.2737696" lon="151.2898894">
  <ele>345.5</ele>
  <time>2026-09-01T19:55:31Z</time>
  <course>20.77</course>
  <speed>1.18</speed>
  <fix>3d</fix>
</trkpt>
<trkpt lat="-27.2737662" lon="151.2898918">
  <ele>345.21</ele>
  <time>2026-09-01T19:55:31Z</time>
  <course>306.26</course>
  <speed>1.0678014796768172</speed>
  <fix>3d</fix>
</trkpt>
<trkpt lat="-27.2737676" lon="151.2898904">
  <ele>345.39</ele>
  <time>2026-09-01T19:55:31Z</time>
  <course>26.03</course>
  <speed>1.14</speed>
  <fix>3d</fix>
</trkpt>
<trkpt lat="-27.2737654" lon="151.2898924">
  <ele>345.16</ele>
  <time>2026-09-01T19:55:31Z</time>
  <course>306.07</course>
  <speed>1.044030650891055</speed>
  <fix>3d</fix>
</trkpt>
<trkpt lat="-27.2737676" lon="151.2898904">
  <ele>345.39</ele>
  <time>2026-09-01T19:55:31Z</time>
  <course>26.03</course>
  <speed>1.14</speed>
  <fix>3d</fix>
</trkpt>
<trkpt lat="-27.2737646" lon="151.289893">
  <ele>345.11</ele>
  <time>2026-09-01T19:55:31Z</time>
  <course>305.86</course>
  <speed>1.015332457867865</speed>
  <fix>3d</fix>
</trkpt>
<trkpt lat="-27.2737658" lon="151.2898915">
  <ele>345.28</ele>
  <time>2026-09-01T19:55:31Z</time>
  <course>31.63</course>
  <speed>1.08</speed>
  <fix>3d</fix>
</trkpt>
<trkpt lat="-27.2737639" lon="151.2898936">
  <ele>345.05</ele>
  <time>2026-09-01T19:55:31Z</time>
  <course>305.63</course>
  <speed>0.9908582138732059</speed>
  <fix>3d</fix>
</trkpt>
<trkpt lat="-27.2737658" lon="151.2898915">
  <ele>345.28</ele>
  <time>2026-09-01T19:55:31Z</time>
  <course>31.63</course>
  <speed>1.08</speed>
  <fix>3d</fix>
</trkpt>
<trkpt lat="-27.2737633" lon="151.2898943">
  <ele>345.0</ele>
  <time>2026-09-01T19:55:31Z</time>
  <course>305.39</course>
  <speed>0.954829827770373</speed>
  <fix>3d</fix>
</trkpt>
<trkpt lat="-27.2737642" lon="151.2898927">
  <ele>345.17</ele>
  <time>2026-09-01T19:55:31Z</time>
  <course>37.7</course>
  <speed>1.03</speed>
  <fix>3d</fix>
</trkpt>
<trkpt lat="-27.2737627" lon="151.2898949">
  <ele>344.94</ele>
  <time>2026-09-01T19:55:31Z</time>
  <course>305.15</course>
  <speed>0.929569792968769</speed>
  <fix>3d</fix>
</trkpt>
<trkpt lat="-27.2737642" lon="151.2898927">
  <ele>345.17</ele>
  <time>2026-09-01T19:55:31Z</time>
  <course>37.7</course>
  <speed>1.03</speed>
  <fix>3d</fix>
</trkpt>
<trkpt lat="-27.2737621" lon="151.2898956">
  <ele>344.89</ele>
  <time>2026-09-01T19:55:31Z</time>
  <course>304.9</course>
  <speed>0.9</speed>
  <fix>3d</fix>
</trkpt>
<trkpt lat="-27.2737629" lon="151.289894">
  <ele>345.06</ele>
  <time>2026-09-01T19:55:31Z</time>
  <course>44.34</course>
  <speed>0.96</speed>
  <fix>3d</fix>
</trkpt>
<trkpt lat="-27.2737617" lon="151.2898963">
  <ele>344.83</ele>
  <time>2026-09-01T19:55:31Z</time>
  <course>304.66</course>
  <speed>0.8682165628459296</speed>
  <fix>3d</fix>
</trkpt>
<trkpt lat="-27.2737629" lon="151.289894">
  <ele>345.06</ele>
  <time>2026-09-01T19:55:31Z</time>
  <course>44.34</course>
  <speed>0.96</speed>
  <fix>3d</fix>
</trkpt>
<trkpt lat="-27.2737612" lon="151.289897">
  <ele>344.78</ele>
  <time>2026-09-01T19:55:31Z</time>
  <course>304.42</course>
  <speed>0.8411896337925236</speed>
  <fix>3d</fix>
</trkpt>
<trkpt lat="-27.2737618" lon="151.2898954">
  <ele>344.95</ele>
  <time>2026-09-01T19:55:31Z</time>
  <course>51.7</course>
  <speed>0.9</speed>
  <fix>3d</fix>
</trkpt>
<trkpt lat="-27.2737609" lon="151.2898978">
  <ele>344.72</ele>
  <time>2026-09-01T19:55:31Z</time>
  <course>304.2</course>
  <speed>0.8234682750416071</speed>
  <fix>3d</fix>
</trkpt>
<trkpt lat="-27.2737618" lon="151.2898954">
  <ele>344.95</ele>
  <time>2026-09-01T19:55:31Z</time>
  <course>51.7</course>
  <speed>0.9</speed>
  <fix>3d</fix>
</trkpt>
<trkpt lat="-27.2737606" lon="151.2898985">
  <ele>344.67</ele>
  <time>2026-09-01T19:55:31Z</time>
  <course>304.0</course>
  <speed>0.7971198153351854</speed>
  <fix>3d</fix>
</trkpt>
<trkpt lat="-27.2737609" lon="151.2898968">
  <ele>344.84</ele>
  <time>2026-09-01T19:55:31Z</time>
  <course>59.9</course>
  <speed>0.84</speed>
  <fix>3d</fix>
</trkpt>
<trkpt lat="-27.2737603" lon="151.2898992">
  <ele>344.62</ele>
  <time>2026-09-01T19:55:31Z</time>
  <course>303.82</course>
  <speed>0.7762087348130012</speed>
  <fix>3d</fix>
</trkpt>
<trkpt lat="-27.2737609" lon="151.2898968">
  <ele>344.84</ele>
  <time>2026-09-01T19:55:31Z</time>
  <course>59.9</course>
  <speed>0.84</speed>
  <fix>3d</fix>
</trkpt>
<trkpt lat="-27.2737602" lon="151.2899">
  <ele>344.56</ele>
  <time>2026-09-01T19:55:31Z</time>
  <course>303.65</course>
  <speed>0.7611832893594026</speed>
  <fix>3d</fix>
</trkpt>
<trkpt lat="-27.2737603" lon="151.2898983">
  <ele>344.73</ele>
  <time>2026-09-01T19:55:31Z</time>
  <course>68.97</course>
  <speed>0.8</speed>
  <fix>3d</fix>
</trkpt>
<trkpt lat="-27.27376" lon="151.2899007">
  <ele>344.51</ele>
  <time>2026-09-01T19:55:31Z</time>
  <course>303.5</course>
  <speed>0.7523961722390672</speed>
  <fix>3d</fix>
</trkpt>
<trkpt lat="-27.2737603" lon="151.2898983">
  <ele>344.73</ele>
  <time>2026-09-01T19:55:31Z</time>
  <course>68.97</course>
  <speed>0.8</speed>
  <fix>3d</fix>
</trkpt>
<trkpt lat="-27.27376" lon="151.2899014">
  <ele>344.45</ele>
  <time>2026-09-01T19:55:31Z</time>
  <course>303.36</course>
  <speed>0.75</speed>
  <fix>3d</fix>
</trkpt>
<trkpt lat="-27.2737599" lon="151.2898999">
  <ele>344.62</ele>
  <time>2026-09-01T19:55:31Z</time>
  <course>78.79</course>
  <speed>0.76</speed>
  <fix>3d</fix>
</trkpt>
<trkpt lat="-27.27376" lon="151.2899022">
  <ele>344.4</ele>
  <time>2026-09-01T19:55:31Z</time>
  <course>303.22</course>
  <speed>0.7424284477308234</speed>
  <fix>3d</fix>
</trkpt>
<trkpt lat="-27.2737599" lon="151.2898999">
  <ele>344.62</ele>
  <time>2026-09-01T19:55:31Z</time>
  <course>78.79</course>
  <speed>0.76</speed>
  <fix>3d</fix>
</trkpt>
<trkpt lat="-27.2737601" lon="151.2899029">
  <ele>344.35</ele>
  <time>2026-09-01T19:55:31Z</time>
  <course>303.1</course>
  <speed>0.7397972695272672</speed>
  <fix>3d</fix>
</trkpt>
<trkpt lat="-27.2737597" lon="151.2899014">
  <ele>344.51</ele>
  <time>2026-09-01T19:55:31Z</time>
  <course>89.1</course>
  <speed>0.74</speed>
  <fix>3d</fix>
</trkpt>
<trkpt lat="-27.2737602" lon="151.2899036">
  <ele>344.29</ele>
  <time>2026-09-01T19:55:31Z</time>
  <course>302.98</course>
  <speed>0.7421590126111789</speed>
  <fix>3d</fix>
</trkpt>
<trkpt lat="-27.2737597" lon="151.2899014">
  <ele>344.51</ele>
  <time>2026-09-01T19:55:31Z</time>
  <course>89.1</course>
  <speed>0.74</speed>
  <fix>3d</fix>
</trkpt>
<trkpt lat="-27.2737604" lon="151.2899043">
  <ele>344.24</ele>
  <time>2026-09-01T19:55:31Z</time>
  <course>302.87</course>
  <speed>0.7494664769020694</speed>
  <fix>3d</fix>
</trkpt>
<trkpt lat="-27.2737598" lon="151.2899029">
  <ele>344.4</ele>
  <time>2026-09-01T19:55:31Z</time>
  <course>99.42</course>
  <speed>0.73</speed>
  <fix>3d</fix>
</trkpt>
<trkpt lat="-27.2737606" lon="151.289905">
  <ele>344.19</ele>
  <time>2026-09-01T19:55:31Z</time>
  <course>302.76</course>
  <speed>0.7615773105863909</speed>
  <fix>3d</fix>
</trkpt>
<trkpt lat="-27.2737598" lon="151.2899029">
  <ele>344.4</ele>
  <time>2026-09-01T19:55:31Z</time>
  <course>99.42</course>
  <speed>0.73</speed>
  <fix>3d</fix>
</trkpt>
<trkpt lat="-27.2737608" lon="151.2899057">
  <ele>344.13</ele>
  <time>2026-09-01T19:55:31Z</time>
  <course>302.67</course>
  <speed>0.7647875521999558</speed>
  <fix>3d</fix>
</trkpt>
<trkpt lat="-27.27376" lon="151.2899044">
  <ele>344.3</ele>
  <time>2026-09-01T19:55:31Z</time>
  <course>109.19</course>
  <speed>0.75</speed>
  <fix>3d</fix>
</trkpt>
<trkpt lat="-27.2737611" lon="151.2899064">
  <ele>344.08</ele>
  <time>2026-09-01T19:55:31Z</time>
  <course>302.57</course>
  <speed>0.7717512552629896</speed>
  <fix>3d</fix>
</trkpt>
<trkpt lat="-27.27376" lon="151.2899044">
  <ele>344.3</ele>
  <time>2026-09-01T19:55:31Z</time>
  <course>109.19</course>
  <speed>0.75</speed>
  <fix>3d</fix>
</trkpt>
<trkpt lat="-27.2737614" lon="151.289907">
  <ele>344.03</ele>
  <time>2026-09-01T19:55:31Z</time>
  <course>302.49</course>
  <speed>0.7742092740338364</speed>
  <fix>3d</fix>
</trkpt>
<trkpt lat="-27.2737606" lon="151.2899057">
  <ele>344.2</ele>
  <time>2026-09-01T19:55:31Z</time>
  <course>118.1</course>
  <speed>0.76</speed>
  <fix>3d</fix>
</trkpt>
<trkpt lat="-27.2737619" lon="151.2899076">
  <ele>343.98</ele>
  <time>2026-09-01T19:55:31Z</time>
  <course>302.42</course>
  <speed>0.7824321056807422</speed>
  <fix>3d</fix>
</trkpt>
<trkpt lat="-27.2737606" lon="151.2899057">
  <ele>344.2</ele>
  <time>2026-09-01T19:55:31Z</time>
  <course>118.1</course>
  <speed>0.76</speed>
  <fix>3d</fix>
</trkpt>
<trkpt lat="-27.2737623" lon="151.2899082">
  <ele>343.94</ele>
  <time>2026-09-01T19:55:31Z</time>
  <course>302.35</course>
  <speed>0.7783315488916018</speed>
  <fix>3d</fix>
</trkpt>
<trkpt lat="-27.2737614" lon="151.2899071">
  <ele>344.09</ele>
  <time>2026-09-01T19:55:31Z</time>
  <course>126.15</course>
  <speed>0.78</speed>
  <fix>3d</fix>
</trkpt>
<trkpt lat="-27.2737628" lon="151.2899088">
  <ele>343.89</ele>
  <time>2026-09-01T19:55:31Z</time>
  <course>302.3</course>
  <speed>0.777946013551069</speed>
  <fix>3d</fix>
</trkpt>
<trkpt lat="-27.2737614" lon="151.2899071">
  <ele>344.09</ele>
  <time>2026-09-01T19:55:31Z</time>
  <course>126.15</course>
  <speed>0.78</speed>
  <fix>3d</fix>
</trkpt>
<trkpt lat="-27.2737633" lon="151.2899093">
  <ele>343.85</ele>
  <time>2026-09-01T19:55:31Z</time>
  <course>302.26</course>
  <speed>0.7733692520394123</speed>
  <fix>3d</fix>
</trkpt>
<trkpt lat="-27.2737623" lon="151.2899082">
  <ele>344.0</ele>
  <time>2026-09-01T19:55:31Z</time>
  <course>133.56</course>
  <speed>0.78</speed>
  <fix>3d</fix>
</trkpt>
<trkpt lat="-27.2737638" lon="151.2899098">
  <ele>343.8</ele>
  <time>2026-09-01T19:55:31Z</time>
  <course>302.22</course>
  <speed>0.7640026177965623</speed>
  <fix>3d</fix>
</trkpt>
<trkpt lat="-27.2737623" lon="151.2899082">
  <ele>344.0</ele>
  <time>2026-09-01T19:55:31Z</time>
  <course>133.56</course>
  <speed>0.78</speed>
  <fix>3d</fix>
</trkpt>
<trkpt lat="-27.2737644" lon="151.2899102">
  <ele>343.76</ele>
  <time>2026-09-01T19:55:31Z</time>
  <course>302.19</course>
  <speed>0.7627581530209953</speed>
  <fix>3d</fix>
</trkpt>
<trkpt lat="-27.2737633" lon="151.2899094">
  <ele>343.9</ele>
  <time>2026-09-01T19:55:31Z</time>
  <course>140.55</course>
  <speed>0.78</speed>
  <fix>3d</fix>
</trkpt>
<trkpt lat="-27.2737649" lon="151.2899106">
  <ele>343.72</ele>
  <time>2026-09-01T19:55:31Z</time>
  <course>302.16</course>
  <speed>0.758023746329889</speed>
  <fix>3d</fix>
</trkpt>
<trkpt lat="-27.2737633" lon="151.2899094">
  <ele>343.9</ele>
  <time>2026-09-01T19:55:31Z</time>
  <course>140.55</course>
  <speed>0.78</speed>
  <fix>3d</fix>
</trkpt>
<trkpt lat="-27.2737655" lon="151.289911">
  <ele>343.67</ele>
  <time>2026-09-01T19:55:31Z</time>
  <course>302.14</course>
  <speed>0.7424284477308234</speed>
  <fix>3d</fix>
</trkpt>
<trkpt lat="-27.2737645" lon="151.2899103">
  <ele>343.82</ele>
  <time>2026-09-01T19:55:31Z</time>
  <course>147.22</course>
  <speed>0.77</speed>
  <fix>3d</fix>
</trkpt>
<trkpt lat="-27.2737661" lon="151.2899113">
  <ele>343.63</ele>
  <time>2026-09-01T19:55:31Z</time>
  <course>302.11</course>
  <speed>0.7340980860893181</speed>
  <fix>3d</fix>
</trkpt>
<trkpt lat="-27.2737645" lon="151.2899103">
  <ele>343.82</ele>
  <time>2026-09-01T19:55:31Z</time>
  <course>147.22</course>
  <speed>0.77</speed>
  <fix>3d</fix>
</trkpt>
<trkpt lat="-27.2737667" lon="151.2899116">
  <ele>343.58</ele>
  <time>2026-09-01T19:55:31Z</time>
  <course>302.09</course>
  <speed>0.718679344353238</speed>
  <fix>3d</fix>
</trkpt>
<trkpt lat="-27.2737657" lon="151.289911">
  <ele>343.73</ele>
  <time>2026-09-01T19:55:31Z</time>
  <course>153.7</course>
  <speed>0.76</speed>
  <fix>3d</fix>
</trkpt>
<trkpt lat="-27.2737673" lon="151.2899118">
  <ele>343.54</ele>
  <time>2026-09-01T19:55:31Z</time>
  <course>302.07</course>
  <speed>0.7051950084905593</speed>
  <fix>3d</fix>
</trkpt>
<trkpt lat="-27.2737657" lon="151.289911">
  <ele>343.73</ele>
  <time>2026-09-01T19:55:31Z</time>
  <course>153.7</course>
  <speed>0.76</speed>
  <fix>3d</fix>
</trkpt>
<trkpt lat="-27.273768" lon="151.289912">
  <ele>343.5</ele>
  <time>2026-09-01T19:55:31Z</time>
  <course>302.05</course>
  <speed>0.6815423684555495</speed>
  <fix>3d</fix>
</trkpt>
<trkpt lat="-27.2737669" lon="151.2899117">
  <ele>343.64</ele>
  <time>2026-09-01T19:55:31Z</time>
  <course>160.16</course>
  <speed>0.74</speed>
  <fix>3d</fix>
</trkpt>
<trkpt lat="-27.2737686" lon="151.2899122">
  <ele>343.45</ele>
  <time>2026-09-01T19:55:31Z</time>
  <course>302.04</course>
  <speed>0.6726812023536856</speed>
  <fix>3d</fix>
</trkpt>
<trkpt lat="-27.2737669" lon="151.2899117">
  <ele>343.64</ele>
  <time>2026-09-01T19:55:31Z</time>
  <course>160.16</course>
  <speed>0.74</speed>
  <fix>3d</fix>
</trkpt>
<trkpt lat="-27.2737691" lon="151.2899123">
  <ele>343.4</ele>
  <time>2026-09-01T19:55:31Z</time>
  <course>302.02</course>
  <speed>0.6562011886609167</speed>
  <fix>3d</fix>
</trkpt>
<trkpt lat="-27.2737681" lon="151.2899121">
  <ele>343.55</ele>
  <time>2026-09-01T19:55:31Z</time>
  <course>166.79</course>
  <speed>0.71</speed>
  <fix>3d</fix>
</trkpt>
<trkpt lat="-27.2737697" lon="151.2899124">
  <ele>343.36</ele>
  <time>2026-09-01T19:55:31Z</time>
  <course>302.0</course>
  <speed>0.6312685640834652</speed>
  <fix>3d</fix>
</trkpt>
<trkpt lat="-27.2737681" lon="151.2899121">
  <ele>343.55</ele>
  <time>2026-09-01T19:55:31Z</time>
  <course>166.79</course>
  <speed>0.71</speed>
  <fix>3d</fix>
</trkpt>
<trkpt lat="-27.2737703" lon="151.2899124">
  <ele>343.31</ele>
  <time>2026-09-01T19:55:31Z</time>
  <course>301.99</course>
  <speed>0.61</speed>
  <fix>3d</fix>
</trkpt>
<trkpt lat="-27.2737694" lon="151.2899123">
  <ele>343.46</ele>
  <time>2026-09-01T19:55:31Z</time>
  <course>173.7</course>
  <speed>0.68</speed>
  <fix>3d</fix>
</trkpt>
<trkpt lat="-27.2737709" lon="151.2899124">
  <ele>343.26</ele>
  <time>2026-09-01T19:55:31Z</time>
  <course>301.97</course>
  <speed>0.5907622195096772</speed>
  <fix>3d</fix>
</trkpt>
<trkpt lat="-27.2737694" lon="151.2899123">
  <ele>343.46</ele>
  <time>2026-09-01T19:55:31Z</time>
  <course>173.7</course>
  <speed>0.68</speed>
  <fix>3d</fix>
</trkpt>
<trkpt lat="-27.2737714" lon="151.2899123">
  <ele>343.21</ele>
  <time>2026-09-01T19:55:31Z</time>
  <course>301.97</course>
  <speed>0.5742821606144493</speed>
  <fix>3d</fix>
</trkpt>
<trkpt lat="-27.2737706" lon="151.2899124">
  <ele>343.36</ele>
  <time>2026-09-01T19:55:31Z</time>
  <course>181.02</course>
  <speed>0.64</speed>
  <fix>3d</fix>
</trkpt>
<trkpt lat="-27.2737719" lon="151.2899123">
  <ele>343.16</ele>
  <time>2026-09-01T19:55:31Z</time>
  <course>301.96</course>
  <speed>0.5510898293381942</speed>
  <fix>3d</fix>
</trkpt>
<trkpt lat="-27.2737706" lon="151.2899124">
  <ele>343.36</ele>
  <time>2026-09-01T19:55:31Z</time>
  <course>181.02</course>
  <speed>0.64</speed>
  <fix>3d</fix>
</trkpt>
<trkpt lat="-27.2737724" lon="151.2899122">
  <ele>343.11</ele>
  <time>2026-09-01T19:55:31Z</time>
  <course>301.96</course>
  <speed>0.5288667128870941</speed>
  <fix>3d</fix>
</trkpt>
<trkpt lat="-27.2737717" lon="151.2899123">
  <ele>343.27</ele>
  <time>2026-09-01T19:55:31Z</time>
  <course>188.9</course>
  <speed>0.61</speed>
  <fix>3d</fix>
</trkpt>
<trkpt lat="-27.2737729" lon="151.289912">
  <ele>343.06</ele>
  <time>2026-09-01T19:55:31Z</time>
  <course>301.95</course>
  <speed>0.5126402247190519</speed>
  <fix>3d</fix>
</trkpt>
<trkpt lat="-27.2737717" lon="151.2899123">
  <ele>343.27</ele>
  <time>2026-09-01T19:55:31Z</time>
  <course>188.9</course>
  <speed>0.61</speed>
  <fix>3d</fix>
</trkpt>
<trkpt lat="-27.2737733" lon="151.2899118">
  <ele>343.01</ele>
  <time>2026-09-01T19:55:31Z</time>
  <course>301.95</course>
  <speed>0.3231098884280702</speed>
  <fix>3d</fix>
</trkpt>
<trkpt lat="-27.2737727" lon="151.2899121">
  <ele>343.16</ele>
  <time>2026-09-01T19:55:31Z</time>
  <course>197.36</course>
  <speed>0.57</speed>
  <fix>3d</fix>
</trkpt>
<trkpt lat="-27.2737734" lon="151.2899118">
  <ele>342.99</ele>
  <time>2026-09-01T19:55:31Z</time>
  <course>301.95</course>
  <speed>0.07810249675906654</speed>
  <fix>3d</fix>
</trkpt>
<trkpt lat="-27.2737727" lon="151.2899121">
  <ele>343.16</ele>
  <time>2026-09-01T19:55:31Z</time>
  <course>197.36</course>
  <speed>0.57</speed>
  <fix>3d</fix>
</trkpt>
<trkpt lat="-27.2737733" lon="151.2899118">
  <ele>343.0</ele>
  <time>2026-09-01T19:55:31Z</time>
  <course>301.95</course>
  <speed>0.1972308292331602</speed>
  <fix>3d</fix>
</trkpt>
<trkpt lat="-27.2737735" lon="151.2899118">
  <ele>343.08</ele>
  <time>2026-09-01T19:55:31Z</time>
  <course>201.65</course>
  <speed>0.26</speed>
  <fix>3d</fix>
</trkpt>
<trkpt lat="-27.2737732" lon="151.289912">
  <ele>343.02</ele>
  <time>2026-09-01T19:55:31Z</time>
  <course>301.96</course>
  <speed>0.15264337522473748</speed>
  <fix>3d</fix>
</trkpt>
<trkpt lat="-27.2737735" lon="151.2899118">
  <ele>343.08</ele>
  <time>2026-09-01T19:55:31Z</time>
  <course>201.65</course>
  <speed>0.26</speed>
  <fix>3d</fix>
</trkpt>
<trkpt lat="-27.2737731" lon="151.289912">
  <ele>343.02</ele>
  <time>2026-09-01T19:55:31Z</time>
  <course>301.96</course>
  <speed>0.07071067811865475</speed>
  <fix>3d</fix>
</trkpt>
<trkpt lat="-27.2737737" lon="151.2899117">
  <ele>343.06</ele>
  <time>2026-09-01T19:55:31Z</time>
  <course>25.26</course>
  <speed>0.07</speed>
  <fix>3d</fix>
</trkpt>
<trkpt lat="-27.2737732" lon="151.289912">
  <ele>343.02</ele>
  <time>2026-09-01T19:55:31Z</time>
  <course>301.96</course>
  <speed>0.03</speed>
  <fix>3d</fix>
</trkpt>
<trkpt lat="-27.2737737" lon="151.2899117">
  <ele>343.06</ele>
  <time>2026-09-01T19:55:31Z</time>
  <course>25.26</course>
  <speed>0.07</speed>
  <fix>3d</fix>
</trkpt>
<trkpt lat="-27.2737732" lon="151.289912">
  <ele>343.02</ele>
  <time>2026-09-01T19:55:31Z</time>
  <course>301.96</course>
  <speed>0.03</speed>
  <fix>3d</fix>
</trkpt>
<trkpt lat="-27.2737736" lon="151.2899118">
  <ele>343.07</ele>
  <time>2026-09-01T19:55:31Z</time>
  <course>25.04</course>
  <speed>0.04</speed>
  <fix>3d</fix>
</trkpt>
<trkpt lat="-27.2737733" lon="151.289912">
  <ele>343.02</ele>
  <time>2026-09-01T19:55:31Z</time>
  <course>301.96</course>
  <speed>0.0316227766016838</speed>
  <fix>3d</fix>
</trkpt>
<trkpt lat="-27.2737736" lon="151.2899118">
  <ele>343.07</ele>
  <time>2026-09-01T19:55:31Z</time>
  <course>25.04</course>
  <speed>0.04</speed>
  <fix>3d</fix>
</trkpt>
<trkpt lat="-27.2737733" lon="151.289912">
  <ele>343.02</ele>
  <time>2026-09-01T19:55:31Z</time>
  <course>301.96</course>
  <speed>0.044721359549995794</speed>
  <fix>3d</fix>
</trkpt>
<trkpt lat="-27.2737736" lon="151.2899118">
  <ele>343.08</ele>
  <time>2026-09-01T19:55:31Z</time>
  <course>205.12</course>
  <speed>0.01</speed>
  <fix>3d</fix>
</trkpt>
<trkpt lat="-27.2737733" lon="151.289912">
  <ele>343.02</ele>
  <time>2026-09-01T19:55:31Z</time>
  <course>301.96</course>
  <speed>0.044721359549995794</speed>
  <fix>3d</fix>
</trkpt>
<trkpt lat="-27.2737736" lon="151.2899118">
  <ele>343.08</ele>
  <time>2026-09-01T19:55:31Z</time>
  <course>205.12</course>
  <speed>0.01</speed>
  <fix>3d</fix>
</trkpt>
<trkpt lat="-27.2737733" lon="151.289912">
  <ele>343.02</ele>
  <time>2026-09-01T19:55:31Z</time>
  <course>301.96</course>
  <speed>0.044721359549995794</speed>
  <fix>3d</fix>
</trkpt>
<trkpt lat="-27.2737736" lon="151.2899118">
  <ele>343.08</ele>
  <time>2026-09-01T19:55:31Z</time>
  <course>204.87</course>
  <speed>0.0</speed>
  <fix>3d</fix>
</trkpt>
<trkpt lat="-27.2737733" lon="151.289912">
  <ele>343.02</ele>
  <time>2026-09-01T19:55:31Z</time>
  <course>301.96</course>
  <speed>0.044721359549995794</speed>
  <fix>3d</fix>
</trkpt>
<trkpt lat="-27.2737736" lon="151.2899118">
  <ele>343.08</ele>
  <time>2026-09-01T19:55:31Z</time>
  <course>204.87</course>
  <speed>0.0</speed>
  <fix>3d</fix>
</trkpt>
<trkpt lat="-27.2737733" lon="151.289912">
  <ele>343.02</ele>
  <time>2026-09-01T19:55:31Z</time>
  <course>301.96</course>
  <speed>0.0412310562561766</speed>
  <fix>3d</fix>
</trkpt>
<trkpt lat="-27.2737736" lon="151.2899118">
  <ele>343.08</ele>
  <time>2026-09-01T19:55:31Z</time>
  <course>25.31</course>
  <speed>0.0</speed>
  <fix>3d</fix>
</trkpt>
<trkpt lat="-27.2737733" lon="151.289912">
  <ele>343.02</ele>
  <time>2026-09-01T19:55:31Z</time>
  <course>301.96</course>
  <speed>0.0412310562561766</speed>
  <fix>3d</fix>
</trkpt>
<trkpt lat="-27.2737736" lon="151.2899118">
  <ele>343.08</ele>
  <time>2026-09-01T19:55:31Z</time>
  <course>25.31</course>
  <speed>0.0</speed>
  <fix>3d</fix>
</trkpt>
<trkpt lat="-27.2737733" lon="151.289912">
  <ele>343.02</ele>
  <time>2026-09-01T19:55:31Z</time>
  <course>301.95</course>
  <speed>0.0412310562561766</speed>
  <fix>3d</fix>
</trkpt>
<trkpt lat="-27.2737736" lon="151.2899118">
  <ele>343.08</ele>
  <time>2026-09-01T19:55:31Z</time>
  <course>26.11</course>
  <speed>0.0</speed>
  <fix>3d</fix>
</trkpt>
<trkpt lat="-27.2737733" lon="151.2899121">
  <ele>343.02</ele>
  <time>2026-09-01T19:55:31Z</time>
  <course>301.95</course>
  <speed>0.0412310562561766</speed>
  <fix>3d</fix>
</trkpt>
<trkpt lat="-27.2737736" lon="151.2899118">
  <ele>343.08</ele>
  <time>2026-09-01T19:55:31Z</time>
  <course>26.11</course>
  <speed>0.0</speed>
  <fix>3d</fix>
</trkpt>
<trkpt lat="-27.2737733" lon="151.2899121">
  <ele>343.02</ele>
  <time>2026-09-01T19:55:31Z</time>
  <course>301.95</course>
  <speed>0.0412310562561766</speed>
  <fix>3d</fix>
</trkpt>
<trkpt lat="-27.2737736" lon="151.2899118">
  <ele>343.08</ele>
  <time>2026-09-01T19:55:31Z</time>
  <course>204.15</course>
  <speed>0.0</speed>
  <fix>3d</fix>
</trkpt>
<trkpt lat="-27.2737734" lon="151.2899121">
  <ele>343.02</ele>
  <time>2026-09-01T19:55:31Z</time>
  <course>301.95</course>
  <speed>0.0412310562561766</speed>
  <fix>3d</fix>
</trkpt>
<trkpt lat="-27.2737736" lon="151.2899118">
  <ele>343.08</ele>
  <time>2026-09-01T19:55:31Z</time>
  <course>204.15</course>
  <speed>0.0</speed>
  <fix>3d</fix>
</trkpt>
<trkpt lat="-27.2737734" lon="151.2899121">
  <ele>343.02</ele>
  <time>2026-09-01T19:55:31Z</time>
  <course>301.95</course>
  <speed>0.0412310562561766</speed>
  <fix>3d</fix>
</trkpt>
<trkpt lat="-27.2737736" lon="151.2899118">
  <ele>343.08</ele>
  <time>2026-09-01T19:55:31Z</time>
  <course>186.99</course>
  <speed>0.0</speed>
  <fix>3d</fix>
</trkpt>
<trkpt lat="-27.2737734" lon="151.2899121">
  <ele>343.02</ele>
  <time>2026-09-01T19:55:31Z</time>
  <course>301.95</course>
  <speed>0.0412310562561766</speed>
  <fix>3d</fix>
</trkpt>
<trkpt lat="-27.2737736" lon="151.2899118">
  <ele>343.08</ele>
  <time>2026-09-01T19:55:31Z</time>
  <course>186.99</course>
  <speed>0.0</speed>
  <fix>3d</fix>
</trkpt>
<trkpt lat="-27.2737734" lon="151.2899121">
  <ele>343.02</ele>
  <time>2026-09-01T19:55:31Z</time>
  <course>301.95</course>
  <speed>0.0412310562561766</speed>
  <fix>3d</fix>
</trkpt>
<trkpt lat="-27.2737736" lon="151.2899118">
  <ele>343.08</ele>
  <time>2026-09-01T19:55:31Z</time>
  <course>38.96</course>
  <speed>0.0</speed>
  <fix>3d</fix>
</trkpt>
<trkpt lat="-27.2737734" lon="151.2899121">
  <ele>343.02</ele>
  <time>2026-09-01T19:55:31Z</time>
  <course>301.95</course>
  <speed>0.0412310562561766</speed>
  <fix>3d</fix>
</trkpt>
<trkpt lat="-27.2737736" lon="151.2899118">
  <ele>343.08</ele>
  <time>2026-09-01T19:55:31Z</time>
  <course>38.96</course>
  <speed>0.0</speed>
  <fix>3d</fix>
</trkpt>
<trkpt lat="-27.2737734" lon="151.2899121">
  <ele>343.02</ele>
  <time>2026-09-01T19:55:31Z</time>
  <course>301.95</course>
  <speed>0.0412310562561766</speed>
  <fix>3d</fix>
</trkpt>
<trkpt lat="-27.2737736" lon="151.2899118">
  <ele>343.08</ele>
  <time>2026-09-01T19:55:31Z</time>
  <course>188.31</course>
  <speed>0.0</speed>
  <fix>3d</fix>
</trkpt>
<trkpt lat="-27.2737734" lon="151.2899121">
  <ele>343.02</ele>
  <time>2026-09-01T19:55:31Z</time>
  <course>301.95</course>
  <speed>0.0412310562561766</speed>
  <fix>3d</fix>
</trkpt>
<trkpt lat="-27.2737736" lon="151.2899118">
  <ele>343.08</ele>
  <time>2026-09-01T19:55:31Z</time>
  <course>188.31</course>
  <speed>0.0</speed>
  <fix>3d</fix>
</trkpt>
<trkpt lat="-27.2737734" lon="151.2899121">
  <ele>343.02</ele>
  <time>2026-09-01T19:55:31Z</time>
  <course>301.95</course>
  <speed>0.0412310562561766</speed>
  <fix>3d</fix>
</trkpt>
<trkpt lat="-27.2737736" lon="151.2899118">
  <ele>343.08</ele>
  <time>2026-09-01T19:55:31Z</time>
  <course>188.87</course>
  <speed>0.0</speed>
  <fix>3d</fix>
</trkpt>
<trkpt lat="-27.2737734" lon="151.2899121">
  <ele>343.02</ele>
  <time>2026-09-01T19:55:31Z</time>
  <course>301.95</course>
  <speed>0.0412310562561766</speed>
  <fix>3d</fix>
</trkpt>
<trkpt lat="-27.2737736" lon="151.2899118">
  <ele>343.08</ele>
  <time>2026-09-01T19:55:31Z</time>
  <course>188.87</course>
  <speed>0.0</speed>
  <fix>3d</fix>
</trkpt>
<trkpt lat="-27.2737734" lon="151.2899121">
  <ele>343.02</ele>
  <time>2026-09-01T19:55:31Z</time>
  <course>301.95</course>
  <speed>0.0412310562561766</speed>
  <fix>3d</fix>
</trkpt>
<trkpt lat="-27.2737736" lon="151.2899118">
  <ele>343.08</ele>
  <time>2026-09-01T19:55:31Z</time>
  <course>181.86</course>
  <speed>0.0</speed>
  <fix>3d</fix>
</trkpt>
<trkpt lat="-27.2737734" lon="151.2899121">
  <ele>343.02</ele>
  <time>2026-09-01T19:55:31Z</time>
  <course>301.95</course>
  <speed>0.0412310562561766</speed>
  <fix>3d</fix>
</trkpt>
<trkpt lat="-27.2737736" lon="151.2899118">
  <ele>343.08</ele>
  <time>2026-09-01T19:55:31Z</time>
  <course>181.86</course>
  <speed>0.0</speed>
  <fix>3d</fix>
</trkpt>
<trkpt lat="-27.2737734" lon="151.2899121">
  <ele>343.03</ele>
  <time>2026-09-01T19:55:31Z</time>
  <course>301.94</course>
  <speed>0.03</speed>
  <fix>3d</fix>
</trkpt>
<trkpt lat="-27.2737736" lon="151.2899118">
  <ele>343.08</ele>
  <time>2026-09-01T19:55:31Z</time>
  <course>185.88</course>
  <speed>0.0</speed>
  <fix>3d</fix>
</trkpt>
<trkpt lat="-27.2737734" lon="151.2899121">
  <ele>343.03</ele>
  <time>2026-09-01T19:55:31Z</time>
  <course>301.94</course>
  <speed>0.03</speed>
  <fix>3d</fix>
</trkpt>
<trkpt lat="-27.2737736" lon="151.2899118">
  <ele>343.08</ele>
  <time>2026-09-01T19:55:31Z</time>
  <course>185.88</course>
  <speed>0.0</speed>
  <fix>3d</fix>
</trkpt>
<trkpt lat="-27.2737734" lon="151.2899121">
  <ele>343.03</ele>
  <time>2026-09-01T19:55:31Z</time>
  <course>301.94</course>
  <speed>0.03</speed>
  <fix>3d</fix>
</trkpt>
<trkpt lat="-27.2737736" lon="151.2899118">
  <ele>343.08</ele>
  <time>2026-09-01T19:55:31Z</time>
  <course>189.02</course>
  <speed>0.0</speed>
  <fix>3d</fix>
</trkpt>
<trkpt lat="-27.2737734" lon="151.2899121">
  <ele>343.03</ele>
  <time>2026-09-01T19:55:31Z</time>
  <course>301.94</course>
  <speed>0.03</speed>
  <fix>3d</fix>
</trkpt>
<trkpt lat="-27.2737736" lon="151.2899118">
  <ele>343.08</ele>
  <time>2026-09-01T19:55:31Z</time>
  <course>189.02</course>
  <speed>0.0</speed>
  <fix>3d</fix>
</trkpt>
<trkpt lat="-27.2737734" lon="151.2899121">
  <ele>343.03</ele>
  <time>2026-09-01T19:55:31Z</time>
  <course>301.94</course>
  <speed>0.03</speed>
  <fix>3d</fix>
</trkpt>
<trkpt lat="-27.2737736" lon="151.2899118">
  <ele>343.08</ele>
  <time>2026-09-01T19:55:31Z</time>
  <course>185.74</course>
  <speed>0.0</speed>
  <fix>3d</fix>
</trkpt>
<trkpt lat="-27.2737734" lon="151.2899121">
  <ele>343.03</ele>
  <time>2026-09-01T19:55:31Z</time>
  <course>301.94</course>
  <speed>0.03</speed>
  <fix>3d</fix>
</trkpt>
<trkpt lat="-27.2737736" lon="151.2899118">
  <ele>343.08</ele>
  <time>2026-09-01T19:55:31Z</time>
  <course>185.74</course>
  <speed>0.0</speed>
  <fix>3d</fix>
</trkpt>
<trkpt lat="-27.2737734" lon="151.2899121">
  <ele>343.03</ele>
  <time>2026-09-01T19:55:31Z</time>
  <course>301.94</course>
  <speed>0.03</speed>
  <fix>3d</fix>
</trkpt>
<trkpt lat="-27.2737736" lon="151.2899118">
  <ele>343.08</ele>
  <time>2026-09-01T19:55:31Z</time>
  <course>186.45</course>
  <speed>0.0</speed>
  <fix>3d</fix>
</trkpt>
<trkpt lat="-27.2737734" lon="151.2899121">
  <ele>343.04</ele>
  <time>2026-09-01T19:55:31Z</time>
  <course>301.94</course>
  <speed>0.03</speed>
  <fix>3d</fix>
</trkpt>
<trkpt lat="-27.2737736" lon="151.2899118">
  <ele>343.08</ele>
  <time>2026-09-01T19:55:31Z</time>
  <course>186.45</course>
  <speed>0.0</speed>
  <fix>3d</fix>
</trkpt>
<trkpt lat="-27.2737734" lon="151.2899121">
  <ele>343.04</ele>
  <time>2026-09-01T19:55:31Z</time>
  <course>301.94</course>
  <speed>0.03</speed>
  <fix>3d</fix>
</trkpt>
<trkpt lat="-27.2737736" lon="151.2899118">
  <ele>343.08</ele>
  <time>2026-09-01T19:55:31Z</time>
  <course>187.74</course>
  <speed>0.0</speed>
  <fix>3d</fix>
</trkpt>
<trkpt lat="-27.2737734" lon="151.2899121">
  <ele>343.04</ele>
  <time>2026-09-01T19:55:31Z</time>
  <course>301.94</course>
  <speed>0.03</speed>
  <fix>3d</fix>
</trkpt>
<trkpt lat="-27.2737736" lon="151.2899118">
  <ele>343.08</ele>
  <time>2026-09-01T19:55:31Z</time>
  <course>187.74</course>
  <speed>0.0</speed>
  <fix>3d</fix>
</trkpt>
<trkpt lat="-27.2737735" lon="151.2899121">
  <ele>343.04</ele>
  <time>2026-09-01T19:55:31Z</time>
  <course>301.94</course>
  <speed>0.03</speed>
  <fix>3d</fix>
</trkpt>
<trkpt lat="-27.2737736" lon="151.2899118">
  <ele>343.08</ele>
  <time>2026-09-01T19:55:31Z</time>
  <course>186.73</course>
  <speed>0.0</speed>
  <fix>3d</fix>
</trkpt>
<trkpt lat="-27.2737735" lon="151.2899121">
  <ele>343.04</ele>
  <time>2026-09-01T19:55:31Z</time>
  <course>301.94</course>
  <speed>0.03</speed>
  <fix>3d</fix>
</trkpt>
<trkpt lat="-27.2737736" lon="151.2899118">
  <ele>343.08</ele>
  <time>2026-09-01T19:55:31Z</time>
  <course>186.73</course>
  <speed>0.0</speed>
  <fix>3d</fix>
</trkpt>
<trkpt lat="-27.2737735" lon="151.2899121">
  <ele>343.04</ele>
  <time>2026-09-01T19:55:31Z</time>
  <course>301.94</course>
  <speed>0.03</speed>
  <fix>3d</fix>
</trkpt>
<trkpt lat="-27.2737736" lon="151.2899118">
  <ele>343.08</ele>
  <time>2026-09-01T19:55:31Z</time>
  <course>186.03</course>
  <speed>0.0</speed>
  <fix>3d</fix>
</trkpt>
<trkpt lat="-27.2737735" lon="151.2899121">
  <ele>343.04</ele>
  <time>2026-09-01T19:55:31Z</time>
  <course>301.94</course>
  <speed>0.03</speed>
  <fix>3d</fix>
</trkpt>
<trkpt lat="-27.2737736" lon="151.2899118">
  <ele>343.08</ele>
  <time>2026-09-01T19:55:31Z</time>
  <course>186.03</course>
  <speed>0.0</speed>
  <fix>3d</fix>
</trkpt>
<trkpt lat="-27.2737735" lon="151.2899121">
  <ele>343.04</ele>
  <time>2026-09-01T19:55:31Z</time>
  <course>301.94</course>
  <speed>0.03</speed>
  <fix>3d</fix>
</trkpt>
<trkpt lat="-27.2737736" lon="151.2899118">
  <ele>343.08</ele>
  <time>2026-09-01T19:55:31Z</time>
  <course>185.58</course>
  <speed>0.0</speed>
  <fix>3d</fix>
</trkpt>
<trkpt lat="-27.2737735" lon="151.2899121">
  <ele>343.04</ele>
  <time>2026-09-01T19:55:31Z</time>
  <course>301.93</course>
  <speed>0.03</speed>
  <fix>3d</fix>
</trkpt>
<trkpt lat="-27.2737736" lon="151.2899118">
  <ele>343.08</ele>
  <time>2026-09-01T19:55:31Z</time>
  <course>185.58</course>
  <speed>0.0</speed>
  <fix>3d</fix>
</trkpt>
<trkpt lat="-27.2737735" lon="151.2899121">
  <ele>343.04</ele>
  <time>2026-09-01T19:55:31Z</time>
  <course>301.93</course>
  <speed>0.03</speed>
  <fix>3d</fix>
</trkpt>
<trkpt lat="-27.2737736" lon="151.2899118">
  <ele>343.08</ele>
  <time>2026-09-01T19:55:31Z</time>
  <course>185.16</course>
  <speed>0.0</speed>
  <fix>3d</fix>
</trkpt>
<trkpt lat="-27.2737735" lon="151.2899121">
  <ele>343.04</ele>
  <time>2026-09-01T19:55:31Z</time>
  <course>301.93</course>
  <speed>0.03</speed>
  <fix>3d</fix>
</trkpt>
<trkpt lat="-27.2737736" lon="151.2899118">
  <ele>343.08</ele>
  <time>2026-09-01T19:55:31Z</time>
  <course>185.16</course>
  <speed>0.0</speed>
  <fix>3d</fix>
</trkpt>
<trkpt lat="-27.2737735" lon="151.2899121">
  <ele>343.04</ele>
  <time>2026-09-01T19:55:31Z</time>
  <course>301.93</course>
  <speed>0.03</speed>
  <fix>3d</fix>
</trkpt>
<trkpt lat="-27.2737736" lon="151.2899118">
  <ele>343.08</ele>
  <time>2026-09-01T19:55:31Z</time>
  <course>185.13</course>
  <speed>0.0</speed>
  <fix>3d</fix>
</trkpt>
<trkpt lat="-27.2737735" lon="151.2899121">
  <ele>343.04</ele>
  <time>2026-09-01T19:55:31Z</time>
  <course>301.93</course>
  <speed>0.03</speed>
  <fix>3d</fix>
</trkpt>
<trkpt lat="-27.2737736" lon="151.2899118">
  <ele>343.08</ele>
  <time>2026-09-01T19:55:31Z</time>
  <course>185.13</course>
  <speed>0.0</speed>
  <fix>3d</fix>
</trkpt>
<trkpt lat="-27.2737735" lon="151.2899121">
  <ele>343.04</ele>
  <time>2026-09-01T19:55:31Z</time>
  <course>301.93</course>
  <speed>0.03</speed>
  <fix>3d</fix>
</trkpt>
<trkpt lat="-27.2737736" lon="151.2899118">
  <ele>343.08</ele>
  <time>2026-09-01T19:55:31Z</time>
  <course>185.04</course>
  <speed>0.0</speed>
  <fix>3d</fix>
</trkpt>
<trkpt lat="-27.2737735" lon="151.2899121">
  <ele>343.04</ele>
  <time>2026-09-01T19:55:31Z</time>
  <course>301.93</course>
  <speed>0.03</speed>
  <fix>3d</fix>
</trkpt>
<trkpt lat="-27.2737736" lon="151.2899118">
  <ele>343.08</ele>
  <time>2026-09-01T19:55:31Z</time>
  <course>185.04</course>
  <speed>0.0</speed>
  <fix>3d</fix>
</trkpt>
<trkpt lat="-27.2737735" lon="151.2899121">
  <ele>343.04</ele>
  <time>2026-09-01T19:55:31Z</time>
  <course>301.93</course>
  <speed>0.02</speed>
  <fix>3d</fix>
</trkpt>
<trkpt lat="-27.2737736" lon="151.2899118">
  <ele>343.08</ele>
  <time>2026-09-01T19:55:31Z</time>
  <course>184.98</course>
  <speed>0.0</speed>
  <fix>3d</fix>
</trkpt>
<trkpt lat="-27.2737735" lon="151.2899121">
  <ele>343.04</ele>
  <time>2026-09-01T19:55:31Z</time>
  <course>301.93</course>
  <speed>0.02</speed>
  <fix>3d</fix>
</trkpt>
<trkpt lat="-27.2737736" lon="151.2899118">
  <ele>343.08</ele>
  <time>2026-09-01T19:55:31Z</time>
  <course>184.98</course>
  <speed>0.0</speed>
  <fix>3d</fix>
</trkpt>
<trkpt lat="-27.2737735" lon="151.2899121">
  <ele>343.04</ele>
  <time>2026-09-01T19:55:31Z</time>
  <course>301.93</course>
  <speed>0.02</speed>
  <fix>3d</fix>
</trkpt>
<trkpt lat="-27.2737736" lon="151.2899118">
  <ele>343.08</ele>
  <time>2026-09-01T19:55:31Z</time>
  <course>184.99</course>
  <speed>0.0</speed>
  <fix>3d</fix>
</trkpt>
<trkpt lat="-27.2737735" lon="151.2899121">
  <ele>343.03</ele>
  <time>2026-09-01T19:55:31Z</time>
  <course>301.93</course>
  <speed>0.02</speed>
  <fix>3d</fix>
</trkpt>
<trkpt lat="-27.2737736" lon="151.2899118">
  <ele>343.08</ele>
  <time>2026-09-01T19:55:31Z</time>
  <course>184.99</course>
  <speed>0.0</speed>
  <fix>3d</fix>
</trkpt>
<trkpt lat="-27.2737735" lon="151.2899121">
  <ele>343.03</ele>
  <time>2026-09-01T19:55:31Z</time>
  <course>301.93</course>
  <speed>0.02</speed>
  <fix>3d</fix>
</trkpt>
<trkpt lat="-27.2737736" lon="151.2899118">
  <ele>343.08</ele>
  <time>2026-09-01T19:55:31Z</time>
  <course>185.04</course>
  <speed>0.0</speed>
  <fix>3d</fix>
</trkpt>
<trkpt lat="-27.2737735" lon="151.2899121">
  <ele>343.03</ele>
  <time>2026-09-01T19:55:31Z</time>
  <course>301.93</course>
  <speed>0.02</speed>
  <fix>3d</fix>
</trkpt>
<trkpt lat="-27.2737736" lon="151.2899118">
  <ele>343.08</ele>
  <time>2026-09-01T19:55:31Z</time>
  <course>185.04</course>
  <speed>0.0</speed>
  <fix>3d</fix>
</trkpt>
<trkpt lat="-27.2737735" lon="151.2899121">
  <ele>343.03</ele>
  <time>2026-09-01T19:55:31Z</time>
  <course>301.93</course>
  <speed>0.02</speed>
  <fix>3d</fix>
</trkpt>
<trkpt lat="-27.2737736" lon="151.2899118">
  <ele>343.08</ele>
  <time>2026-09-01T19:55:31Z</time>
  <course>185.05</course>
  <speed>0.0</speed>
  <fix>3d</fix>
</trkpt>
<trkpt lat="-27.2737735" lon="151.2899121">
  <ele>343.03</ele>
  <time>2026-09-01T19:55:31Z</time>
  <course>301.93</course>
  <speed>0.02</speed>
  <fix>3d</fix>
</trkpt>
<trkpt lat="-27.2737736" lon="151.2899118">
  <ele>343.08</ele>
  <time>2026-09-01T19:55:31Z</time>
  <course>185.05</course>
  <speed>0.0</speed>
  <fix>3d</fix>
</trkpt>
<trkpt lat="-27.2737735" lon="151.2899121">
  <ele>343.03</ele>
  <time>2026-09-01T19:55:31Z</time>
  <course>301.92</course>
  <speed>0.02</speed>
  <fix>3d</fix>
</trkpt>
<trkpt lat="-27.2737736" lon="151.2899118">
  <ele>343.08</ele>
  <time>2026-09-01T19:55:31Z</time>
  <course>185.01</course>
  <speed>0.0</speed>
  <fix>3d</fix>
</trkpt>
<trkpt lat="-27.2737735" lon="151.2899121">
  <ele>343.03</ele>
  <time>2026-09-01T19:55:31Z</time>
  <course>301.92</course>
  <speed>0.02</speed>
  <fix>3d</fix>
</trkpt>
<trkpt lat="-27.2737736" lon="151.2899118">
  <ele>343.08</ele>
  <time>2026-09-01T19:55:31Z</time>
  <course>185.01</course>
  <speed>0.0</speed>
  <fix>3d</fix>
</trkpt>
<trkpt lat="-27.2737735" lon="151.2899121">
  <ele>343.03</ele>
  <time>2026-09-01T19:55:31Z</time>
  <course>301.92</course>
  <speed>0.02</speed>
  <fix>3d</fix>
</trkpt>
<trkpt lat="-27.2737736" lon="151.2899118">
  <ele>343.08</ele>
  <time>2026-09-01T19:55:31Z</time>
  <course>185.0</course>
  <speed>0.0</speed>
  <fix>3d</fix>
</trkpt>
<trkpt lat="-27.2737735" lon="151.2899121">
  <ele>343.03</ele>
  <time>2026-09-01T19:55:31Z</time>
  <course>301.92</course>
  <speed>0.02</speed>
  <fix>3d</fix>
</trkpt>
<trkpt lat="-27.2737736" lon="151.2899118">
  <ele>343.08</ele>
  <time>2026-09-01T19:55:31Z</time>
  <course>185.0</course>
  <speed>0.0</speed>
  <fix>3d</fix>
</trkpt>
<trkpt lat="-27.2737735" lon="151.2899121">
  <ele>343.03</ele>
  <time>2026-09-01T19:55:31Z</time>
  <course>301.92</course>
  <speed>0.02</speed>
  <fix>3d</fix>
</trkpt>
<trkpt lat="-27.2737736" lon="151.2899118">
  <ele>343.08</ele>
  <time>2026-09-01T19:55:31Z</time>
  <course>185.03</course>
  <speed>0.0</speed>
  <fix>3d</fix>
</trkpt>
<trkpt lat="-27.2737735" lon="151.2899121">
  <ele>343.03</ele>
  <time>2026-09-01T19:55:31Z</time>
  <course>301.92</course>
  <speed>0.02</speed>
  <fix>3d</fix>
</trkpt>
<trkpt lat="-27.2737736" lon="151.2899118">
  <ele>343.08</ele>
  <time>2026-09-01T19:55:31Z</time>
  <course>185.03</course>
  <speed>0.0</speed>
  <fix>3d</fix>
</trkpt>
<trkpt lat="-27.2737735" lon="151.2899121">
  <ele>343.03</ele>
  <time>2026-09-01T19:55:31Z</time>
  <course>301.92</course>
  <speed>0.02</speed>
  <fix>3d</fix>
</trkpt>
<trkpt lat="-27.2737736" lon="151.2899118">
  <ele>343.08</ele>
  <time>2026-09-01T19:55:31Z</time>
  <course>193.84</course>
  <speed>0.0</speed>
  <fix>3d</fix>
</trkpt>
<trkpt lat="-27.2737735" lon="151.2899121">
  <ele>343.03</ele>
  <time>2026-09-01T19:55:31Z</time>
  <course>301.92</course>
  <speed>0.02</speed>
  <fix>3d</fix>
</trkpt>
<trkpt lat="-27.2737736" lon="151.2899118">
  <ele>343.08</ele>
  <time>2026-09-01T19:55:31Z</time>
  <course>193.84</course>
  <speed>0.0</speed>
  <fix>3d</fix>
</trkpt>
<trkpt lat="-27.2737735" lon="151.2899121">
  <ele>343.03</ele>
  <time>2026-09-01T19:55:31Z</time>
  <course>301.93</course>
  <speed>0.02</speed>
  <fix>3d</fix>
</trkpt>
<trkpt lat="-27.2737736" lon="151.2899118">
  <ele>343.08</ele>
  <time>2026-09-01T19:55:31Z</time>
  <course>194.65</course>
  <speed>0.0</speed>
  <fix>3d</fix>
</trkpt>
<trkpt lat="-27.2737735" lon="151.2899121">
  <ele>343.03</ele>
  <time>2026-09-01T19:55:31Z</time>
  <course>301.93</course>
  <speed>0.02</speed>
  <fix>3d</fix>
</trkpt>
<trkpt lat="-27.2737736" lon="151.2899118">
  <ele>343.08</ele>
  <time>2026-09-01T19:55:31Z</time>
  <course>194.65</course>
  <speed>0.0</speed>
  <fix>3d</fix>
</trkpt>
<trkpt lat="-27.2737735" lon="151.2899121">
  <ele>343.03</ele>
  <time>2026-09-01T19:55:31Z</time>
  <course>301.93</course>
  <speed>0.02</speed>
  <fix>3d</fix>
</trkpt>
<trkpt lat="-27.2737736" lon="151.2899118">
  <ele>343.08</ele>
  <time>2026-09-01T19:55:31Z</time>
  <course>184.8</course>
  <speed>0.0</speed>
  <fix>3d</fix>
</trkpt>
<trkpt lat="-27.2737735" lon="151.2899121">
  <ele>343.03</ele>
  <time>2026-09-01T19:55:31Z</time>
  <course>301.93</course>
  <speed>0.02</speed>
  <fix>3d</fix>
</trkpt>
<trkpt lat="-27.2737736" lon="151.2899118">
  <ele>343.08</ele>
  <time>2026-09-01T19:55:31Z</time>
  <course>184.8</course>
  <speed>0.0</speed>
  <fix>3d</fix>
</trkpt>
<trkpt lat="-27.2737735" lon="151.2899121">
  <ele>343.08</ele>
  <time>2026-09-01T19:55:31Z</time>
  <course>301.93</course>
  <speed>0.02</speed>
  <fix>3d</fix>
</trkpt>
<trkpt lat="-27.2737736" lon="151.2899118">
  <ele>343.08</ele>
  <time>2026-09-01T19:55:31Z</time>
  <course>184.29</course>
  <speed>0.0</speed>
  <fix>3d</fix>
</trkpt>
<trkpt lat="-27.2737735" lon="151.2899121">
  <ele>343.08</ele>
  <time>2026-09-01T19:55:31Z</time>
  <course>301.93</course>
  <speed>0.02</speed>
  <fix>3d</fix>
</trkpt>
<trkpt lat="-27.2737736" lon="151.2899118">
  <ele>343.08</ele>
  <time>2026-09-01T19:55:31Z</time>
  <course>184.29</course>
  <speed>0.0</speed>
  <fix>3d</fix>
</trkpt>
<trkpt lat="-27.2737735" lon="151.2899121">
  <ele>343.08</ele>
  <time>2026-09-01T19:55:31Z</time>
  <course>301.93</course>
  <speed>0.02</speed>
  <fix>3d</fix>
</trkpt>
<trkpt lat="-27.2737736" lon="151.2899118">
  <ele>343.08</ele>
  <time>2026-09-01T19:55:31Z</time>
  <course>185.42</course>
  <speed>0.0</speed>
  <fix>3d</fix>
</trkpt>
<trkpt lat="-27.2737735" lon="151.2899121">
  <ele>343.07</ele>
  <time>2026-09-01T19:55:31Z</time>
  <course>301.93</course>
  <speed>0.02</speed>
  <fix>3d</fix>
</trkpt>
<trkpt lat="-27.2737736" lon="151.2899118">
  <ele>343.08</ele>
  <time>2026-09-01T19:55:31Z</time>
  <course>185.42</course>
  <speed>0.0</speed>
  <fix>3d</fix>
</trkpt>
<trkpt lat="-27.2737735" lon="151.2899121">
  <ele>343.07</ele>
  <time>2026-09-01T19:55:31Z</time>
  <course>301.94</course>
  <speed>0.02</speed>
  <fix>3d</fix>
</trkpt>
<trkpt lat="-27.2737736" lon="151.2899118">
  <ele>343.08</ele>
  <time>2026-09-01T19:55:31Z</time>
  <course>185.24</course>
  <speed>0.0</speed>
  <fix>3d</fix>
</trkpt>
<trkpt lat="-27.2737735" lon="151.2899121">
  <ele>343.06</ele>
  <time>2026-09-01T19:55:31Z</time>
  <course>301.94</course>
  <speed>0.02</speed>
  <fix>3d</fix>
</trkpt>
<trkpt lat="-27.2737736" lon="151.2899118">
  <ele>343.08</ele>
  <time>2026-09-01T19:55:31Z</time>
  <course>185.24</course>
  <speed>0.0</speed>
  <fix>3d</fix>
</trkpt>
<trkpt lat="-27.2737735" lon="151.2899121">
  <ele>343.06</ele>
  <time>2026-09-01T19:55:32Z</time>
  <course>301.94</course>
  <speed>0.02</speed>
  <fix>3d</fix>
</trkpt>
<trkpt lat="-27.2737736" lon="151.2899118">
  <ele>343.08</ele>
  <time>2026-09-01T19:55:32Z</time>
  <course>185.08</course>
  <speed>0.0</speed>
  <fix>3d</fix>
</trkpt>
<trkpt lat="-27.2737735" lon="151.2899121">
  <ele>343.05</ele>
  <time>2026-09-01T19:55:32Z</time>
  <course>301.94</course>
  <speed>0.02</speed>
  <fix>3d</fix>
</trkpt>
<trkpt lat="-27.2737736" lon="151.2899118">
  <ele>343.08</ele>
  <time>2026-09-01T19:55:32Z</time>
  <course>185.08</course>
  <speed>0.0</speed>
  <fix>3d</fix>
</trkpt>
<trkpt lat="-27.2737735" lon="151.2899121">
  <ele>343.04</ele>
  <time>2026-09-01T19:55:32Z</time>
  <course>301.94</course>
  <speed>0.01</speed>
  <fix>3d</fix>
</trkpt>
<trkpt lat="-27.2737736" lon="151.2899118">
  <ele>343.08</ele>
  <time>2026-09-01T19:55:32Z</time>
  <course>185.11</course>
  <speed>0.0</speed>
  <fix>3d</fix>
</trkpt>
<trkpt lat="-27.2737735" lon="151.2899121">
  <ele>343.02</ele>
  <time>2026-09-01T19:55:32Z</time>
  <course>301.94</course>
  <speed>0.01</speed>
  <fix>3d</fix>
</trkpt>
<trkpt lat="-27.2737736" lon="151.2899118">
  <ele>343.08</ele>
  <time>2026-09-01T19:55:32Z</time>
  <course>185.11</course>
  <speed>0.0</speed>
  <fix>3d</fix>
</trkpt>
<trkpt lat="-27.2737735" lon="151.2899121">
  <ele>343.02</ele>
  <time>2026-09-01T19:55:32Z</time>
  <course>301.94</course>
  <speed>0.01</speed>
  <fix>3d</fix>
</trkpt>
<trkpt lat="-27.2737736" lon="151.2899118">
  <ele>343.08</ele>
  <time>2026-09-01T19:55:32Z</time>
  <course>185.13</course>
  <speed>0.0</speed>
  <fix>3d</fix>
</trkpt>
<trkpt lat="-27.2737735" lon="151.2899121">
  <ele>343.01</ele>
  <time>2026-09-01T19:55:32Z</time>
  <course>301.94</course>
  <speed>0.01</speed>
  <fix>3d</fix>
</trkpt>
<trkpt lat="-27.2737736" lon="151.2899118">
  <ele>343.08</ele>
  <time>2026-09-01T19:55:32Z</time>
  <course>185.13</course>
  <speed>0.0</speed>
  <fix>3d</fix>
</trkpt>
<trkpt lat="-27.2737735" lon="151.2899121">
  <ele>343.01</ele>
  <time>2026-09-01T19:55:32Z</time>
  <course>301.95</course>
  <speed>0.01</speed>
  <fix>3d</fix>
</trkpt>
<trkpt lat="-27.2737736" lon="151.2899118">
  <ele>343.08</ele>
  <time>2026-09-01T19:55:32Z</time>
  <course>185.12</course>
  <speed>0.0</speed>
  <fix>3d</fix>
</trkpt>
<trkpt lat="-27.2737735" lon="151.2899121">
  <ele>343.0</ele>
  <time>2026-09-01T19:55:32Z</time>
  <course>301.95</course>
  <speed>0.01</speed>
  <fix>3d</fix>
</trkpt>
<trkpt lat="-27.2737736" lon="151.2899118">
  <ele>343.08</ele>
  <time>2026-09-01T19:55:32Z</time>
  <course>185.12</course>
  <speed>0.0</speed>
  <fix>3d</fix>
</trkpt>
<trkpt lat="-27.2737735" lon="151.289912">
  <ele>343.0</ele>
  <time>2026-09-01T19:55:32Z</time>
  <course>301.95</course>
  <speed>0.01</speed>
  <fix>3d</fix>
</trkpt>
<trkpt lat="-27.2737736" lon="151.2899118">
  <ele>343.08</ele>
  <time>2026-09-01T19:55:32Z</time>
  <course>185.12</course>
  <speed>0.0</speed>
  <fix>3d</fix>
</trkpt>
<trkpt lat="-27.2737735" lon="151.289912">
  <ele>342.99</ele>
  <time>2026-09-01T19:55:32Z</time>
  <course>301.95</course>
  <speed>0.01</speed>
  <fix>3d</fix>
</trkpt>
<trkpt lat="-27.2737736" lon="151.2899118">
  <ele>343.08</ele>
  <time>2026-09-01T19:55:32Z</time>
  <course>185.12</course>
  <speed>0.0</speed>
  <fix>3d</fix>
</trkpt>
<trkpt lat="-27.2737735" lon="151.289912">
  <ele>342.99</ele>
  <time>2026-09-01T19:55:32Z</time>
  <course>301.95</course>
  <speed>0.01</speed>
  <fix>3d</fix>
</trkpt>
<trkpt lat="-27.2737736" lon="151.2899118">
  <ele>343.08</ele>
  <time>2026-09-01T19:55:32Z</time>
  <course>185.12</course>
  <speed>0.0</speed>
  <fix>3d</fix>
</trkpt>
<trkpt lat="-27.2737735" lon="151.289912">
  <ele>342.98</ele>
  <time>2026-09-01T19:55:32Z</time>
  <course>301.95</course>
  <speed>0.01</speed>
  <fix>3d</fix>
</trkpt>
<trkpt lat="-27.2737736" lon="151.2899118">
  <ele>343.08</ele>
  <time>2026-09-01T19:55:32Z</time>
  <course>185.12</course>
  <speed>0.0</speed>
  <fix>3d</fix>
</trkpt>
<trkpt lat="-27.2737735" lon="151.289912">
  <ele>342.97</ele>
  <time>2026-09-01T19:55:32Z</time>
  <course>301.95</course>
  <speed>0.01</speed>
  <fix>3d</fix>
</trkpt>
<trkpt lat="-27.2737736" lon="151.2899118">
  <ele>343.08</ele>
  <time>2026-09-01T19:55:32Z</time>
  <course>185.12</course>
  <speed>0.0</speed>
  <fix>3d</fix>
</trkpt>
<trkpt lat="-27.2737735" lon="151.289912">
  <ele>342.97</ele>
  <time>2026-09-01T19:55:32Z</time>
  <course>301.95</course>
  <speed>0.01</speed>
  <fix>3d</fix>
</trkpt>
<trkpt lat="-27.2737736" lon="151.2899118">
  <ele>343.08</ele>
  <time>2026-09-01T19:55:32Z</time>
  <course>185.12</course>
  <speed>0.0</speed>
  <fix>3d</fix>
</trkpt>
<trkpt lat="-27.2737735" lon="151.289912">
  <ele>342.96</ele>
  <time>2026-09-01T19:55:32Z</time>
  <course>301.95</course>
  <speed>0.01</speed>
  <fix>3d</fix>
</trkpt>
<trkpt lat="-27.2737736" lon="151.2899118">
  <ele>343.08</ele>
  <time>2026-09-01T19:55:32Z</time>
  <course>185.12</course>
  <speed>0.0</speed>
  <fix>3d</fix>
</trkpt>
<trkpt lat="-27.2737735" lon="151.289912">
  <ele>342.95</ele>
  <time>2026-09-01T19:55:32Z</time>
  <course>301.95</course>
  <speed>0.01</speed>
  <fix>3d</fix>
</trkpt>
<trkpt lat="-27.2737736" lon="151.2899118">
  <ele>343.08</ele>
  <time>2026-09-01T19:55:32Z</time>
  <course>185.12</course>
  <speed>0.0</speed>
  <fix>3d</fix>
</trkpt>
<trkpt lat="-27.2737735" lon="151.289912">
  <ele>342.95</ele>
  <time>2026-09-01T19:55:32Z</time>
  <course>301.96</course>
  <speed>0.01</speed>
  <fix>3d</fix>
</trkpt>
<trkpt lat="-27.2737736" lon="151.2899118">
  <ele>343.08</ele>
  <time>2026-09-01T19:55:32Z</time>
  <course>185.12</course>
  <speed>0.0</speed>
  <fix>3d</fix>
</trkpt>
<trkpt lat="-27.2737735" lon="151.289912">
  <ele>342.94</ele>
  <time>2026-09-01T19:55:32Z</time>
  <course>301.96</course>
  <speed>0.01</speed>
  <fix>3d</fix>
</trkpt>
<trkpt lat="-27.2737736" lon="151.2899118">
  <ele>343.08</ele>
  <time>2026-09-01T19:55:32Z</time>
  <course>185.12</course>
  <speed>0.0</speed>
  <fix>3d</fix>
</trkpt>
<trkpt lat="-27.2737735" lon="151.289912">
  <ele>342.94</ele>
  <time>2026-09-01T19:55:32Z</time>
  <course>301.96</course>
  <speed>0.01</speed>
  <fix>3d</fix>
</trkpt>
<trkpt lat="-27.2737736" lon="151.2899118">
  <ele>343.08</ele>
  <time>2026-09-01T19:55:32Z</time>
  <course>185.12</course>
  <speed>0.0</speed>
  <fix>3d</fix>
</trkpt>
<trkpt lat="-27.2737735" lon="151.289912">
  <ele>342.94</ele>
  <time>2026-09-01T19:55:32Z</time>
  <course>301.96</course>
  <speed>0.01</speed>
  <fix>3d</fix>
</trkpt>
<trkpt lat="-27.2737736" lon="151.2899118">
  <ele>343.08</ele>
  <time>2026-09-01T19:55:32Z</time>
  <course>185.12</course>
  <speed>0.0</speed>
  <fix>3d</fix>
</trkpt>
<trkpt lat="-27.2737735" lon="151.289912">
  <ele>342.94</ele>
  <time>2026-09-01T19:55:32Z</time>
  <course>301.96</course>
  <speed>0.01</speed>
  <fix>3d</fix>
</trkpt>
<trkpt lat="-27.2737736" lon="151.2899118">
  <ele>343.08</ele>
  <time>2026-09-01T19:55:32Z</time>
  <course>185.12</course>
  <speed>0.0</speed>
  <fix>3d</fix>
</trkpt>
<trkpt lat="-27.2737735" lon="151.289912">
  <ele>342.94</ele>
  <time>2026-09-01T19:55:32Z</time>
  <course>301.96</course>
  <speed>0.01</speed>
  <fix>3d</fix>
</trkpt>
<trkpt lat="-27.2737736" lon="151.2899118">
  <ele>343.08</ele>
  <time>2026-09-01T19:55:32Z</time>
  <course>185.12</course>
  <speed>0.0</speed>
  <fix>3d</fix>
</trkpt>
<trkpt lat="-27.2737735" lon="151.289912">
  <ele>342.93</ele>
  <time>2026-09-01T19:55:32Z</time>
  <course>301.96</course>
  <speed>0.01</speed>
  <fix>3d</fix>
</trkpt>
<trkpt lat="-27.2737736" lon="151.2899118">
  <ele>343.08</ele>
  <time>2026-09-01T19:55:32Z</time>
  <course>185.12</course>
  <speed>0.0</speed>
  <fix>3d</fix>
</trkpt>
<trkpt lat="-27.2737735" lon="151.289912">
  <ele>342.93</ele>
  <time>2026-09-01T19:55:32Z</time>
  <course>301.96</course>
  <speed>0.01</speed>
  <fix>3d</fix>
</trkpt>
<trkpt lat="-27.2737736" lon="151.2899118">
  <ele>343.08</ele>
  <time>2026-09-01T19:55:32Z</time>
  <course>185.12</course>
  <speed>0.0</speed>
  <fix>3d</fix>
</trkpt>
<trkpt lat="-27.2737735" lon="151.289912">
  <ele>342.93</ele>
  <time>2026-09-01T19:55:32Z</time>
  <course>301.96</course>
  <speed>0.01</speed>
  <fix>3d</fix>
</trkpt>
<trkpt lat="-27.2737736" lon="151.2899118">
  <ele>343.08</ele>
  <time>2026-09-01T19:55:32Z</time>
  <course>185.12</course>
  <speed>0.0</speed>
  <fix>3d</fix>
</trkpt>
<trkpt lat="-27.2737735" lon="151.289912">
  <ele>342.92</ele>
  <time>2026-09-01T19:55:32Z</time>
  <course>301.96</course>
  <speed>0.01</speed>
  <fix>3d</fix>
</trkpt>
<trkpt lat="-27.2737736" lon="151.2899118">
  <ele>343.08</ele>
  <time>2026-09-01T19:55:32Z</time>
  <course>185.12</course>
  <speed>0.0</speed>
  <fix>3d</fix>
</trkpt>
<trkpt lat="-27.2737735" lon="151.289912">
  <ele>342.92</ele>
  <time>2026-09-01T19:55:32Z</time>
  <course>301.96</course>
  <speed>0.01</speed>
  <fix>3d</fix>
</trkpt>
<trkpt lat="-27.2737736" lon="151.2899118">
  <ele>343.08</ele>
  <time>2026-09-01T19:55:32Z</time>
  <course>185.12</course>
  <speed>0.0</speed>
  <fix>3d</fix>
</trkpt>
<trkpt lat="-27.2737735" lon="151.289912">
  <ele>342.92</ele>
  <time>2026-09-01T19:55:32Z</time>
  <course>301.96</course>
  <speed>0.01</speed>
  <fix>3d</fix>
</trkpt>
<trkpt lat="-27.2737736" lon="151.2899118">
  <ele>343.08</ele>
  <time>2026-09-01T19:55:32Z</time>
  <course>185.12</course>
  <speed>0.0</speed>
  <fix>3d</fix>
</trkpt>
<trkpt lat="-27.2737735" lon="151.289912">
  <ele>342.92</ele>
  <time>2026-09-01T19:55:32Z</time>
  <course>301.96</course>
  <speed>0.01</speed>
  <fix>3d</fix>
</trkpt>
<trkpt lat="-27.2737736" lon="151.2899118">
  <ele>343.08</ele>
  <time>2026-09-01T19:55:32Z</time>
  <course>185.12</course>
  <speed>0.0</speed>
  <fix>3d</fix>
</trkpt>
<trkpt lat="-27.2737735" lon="151.289912">
  <ele>342.91</ele>
  <time>2026-09-01T19:55:32Z</time>
  <course>301.96</course>
  <speed>0.01</speed>
  <fix>3d</fix>
</trkpt>
<trkpt lat="-27.2737736" lon="151.2899118">
  <ele>343.08</ele>
  <time>2026-09-01T19:55:32Z</time>
  <course>185.12</course>
  <speed>0.0</speed>
  <fix>3d</fix>
</trkpt>
<trkpt lat="-27.2737735" lon="151.289912">
  <ele>342.91</ele>
  <time>2026-09-01T19:55:32Z</time>
  <course>301.96</course>
  <speed>0.01</speed>
  <fix>3d</fix>
</trkpt>
<trkpt lat="-27.2737736" lon="151.2899118">
  <ele>343.08</ele>
  <time>2026-09-01T19:55:32Z</time>
  <course>185.12</course>
  <speed>0.0</speed>
  <fix>3d</fix>
</trkpt>
<trkpt lat="-27.2737735" lon="151.289912">
  <ele>342.91</ele>
  <time>2026-09-01T19:55:32Z</time>
  <course>301.96</course>
  <speed>0.01</speed>
  <fix>3d</fix>
</trkpt>
<trkpt lat="-27.2737736" lon="151.2899118">
  <ele>343.08</ele>
  <time>2026-09-01T19:55:32Z</time>
  <course>185.12</course>
  <speed>0.0</speed>
  <fix>3d</fix>
</trkpt>
<trkpt lat="-27.2737735" lon="151.289912">
  <ele>342.9</ele>
  <time>2026-09-01T19:55:32Z</time>
  <course>301.96</course>
  <speed>0.01</speed>
  <fix>3d</fix>
</trkpt>
<trkpt lat="-27.2737736" lon="151.2899118">
  <ele>343.08</ele>
  <time>2026-09-01T19:55:32Z</time>
  <course>185.12</course>
  <speed>0.0</speed>
  <fix>3d</fix>
</trkpt>
<trkpt lat="-27.2737735" lon="151.289912">
  <ele>342.9</ele>
  <time>2026-09-01T19:55:32Z</time>
  <course>301.97</course>
  <speed>0.01</speed>
  <fix>3d</fix>
</trkpt>
<trkpt lat="-27.2737736" lon="151.2899118">
  <ele>343.08</ele>
  <time>2026-09-01T19:55:32Z</time>
  <course>185.12</course>
  <speed>0.0</speed>
  <fix>3d</fix>
</trkpt>
<trkpt lat="-27.2737735" lon="151.289912">
  <ele>342.9</ele>
  <time>2026-09-01T19:55:32Z</time>
  <course>301.97</course>
  <speed>0.01</speed>
  <fix>3d</fix>
</trkpt>
<trkpt lat="-27.2737736" lon="151.2899118">
  <ele>343.08</ele>
  <time>2026-09-01T19:55:32Z</time>
  <course>185.12</course>
  <speed>0.0</speed>
  <fix>3d</fix>
</trkpt>
<trkpt lat="-27.2737735" lon="151.289912">
  <ele>342.9</ele>
  <time>2026-09-01T19:55:32Z</time>
  <course>301.97</course>
  <speed>0.01</speed>
  <fix>3d</fix>
</trkpt>
<trkpt lat="-27.2737736" lon="151.2899118">
  <ele>343.08</ele>
  <time>2026-09-01T19:55:32Z</time>
  <course>185.12</course>
  <speed>0.0</speed>
  <fix>3d</fix>
</trkpt>
<trkpt lat="-27.2737735" lon="151.289912">
  <ele>342.9</ele>
  <time>2026-09-01T19:55:32Z</time>
  <course>301.97</course>
  <speed>0.01</speed>
  <fix>3d</fix>
</trkpt>
<trkpt lat="-27.2737736" lon="151.2899118">
  <ele>343.08</ele>
  <time>2026-09-01T19:55:32Z</time>
  <course>185.12</course>
  <speed>0.0</speed>
  <fix>3d</fix>
</trkpt>
<trkpt lat="-27.2737735" lon="151.289912">
  <ele>342.89</ele>
  <time>2026-09-01T19:55:32Z</time>
  <course>301.97</course>
  <speed>0.01</speed>
  <fix>3d</fix>
</trkpt>
<trkpt lat="-27.2737736" lon="151.2899118">
  <ele>343.08</ele>
  <time>2026-09-01T19:55:32Z</time>
  <course>185.12</course>
  <speed>0.0</speed>
  <fix>3d</fix>
</trkpt>
<trkpt lat="-27.2737735" lon="151.289912">
  <ele>342.89</ele>
  <time>2026-09-01T19:55:32Z</time>
  <course>301.97</course>
  <speed>0.0</speed>
  <fix>3d</fix>
</trkpt>
<trkpt lat="-27.2737736" lon="151.2899118">
  <ele>343.08</ele>
  <time>2026-09-01T19:55:32Z</time>
  <course>185.12</course>
  <speed>0.0</speed>
  <fix>3d</fix>
</trkpt>
<trkpt lat="-27.2737735" lon="151.289912">
  <ele>342.89</ele>
  <time>2026-09-01T19:55:32Z</time>
  <course>301.97</course>
  <speed>0.0</speed>
  <fix>3d</fix>
</trkpt>
<trkpt lat="-27.2737736" lon="151.2899118">
  <ele>343.08</ele>
  <time>2026-09-01T19:55:32Z</time>
  <course>185.12</course>
  <speed>0.0</speed>
  <fix>3d</fix>
</trkpt>
<trkpt lat="-27.2737735" lon="151.289912">
  <ele>342.89</ele>
  <time>2026-09-01T19:55:32Z</time>
  <course>301.97</course>
  <speed>0.0</speed>
  <fix>3d</fix>
</trkpt>
<trkpt lat="-27.2737736" lon="151.2899118">
  <ele>343.08</ele>
  <time>2026-09-01T19:55:32Z</time>
  <course>185.12</course>
  <speed>0.0</speed>
  <fix>3d</fix>
</trkpt>
<trkpt lat="-27.2737735" lon="151.289912">
  <ele>342.88</ele>
  <time>2026-09-01T19:55:32Z</time>
  <course>301.97</course>
  <speed>0.0</speed>
  <fix>3d</fix>
</trkpt>
<trkpt lat="-27.2737736" lon="151.2899118">
  <ele>343.08</ele>
  <time>2026-09-01T19:55:32Z</time>
  <course>185.12</course>
  <speed>0.0</speed>
  <fix>3d</fix>
</trkpt>
<trkpt lat="-27.2737735" lon="151.289912">
  <ele>342.88</ele>
  <time>2026-09-01T19:55:32Z</time>
  <course>301.97</course>
  <speed>0.0</speed>
  <fix>3d</fix>
</trkpt>
<trkpt lat="-27.2737736" lon="151.2899118">
  <ele>343.08</ele>
  <time>2026-09-01T19:55:32Z</time>
  <course>185.12</course>
  <speed>0.0</speed>
  <fix>3d</fix>
</trkpt>
<trkpt lat="-27.2737735" lon="151.289912">
  <ele>342.88</ele>
  <time>2026-09-01T19:55:32Z</time>
  <course>301.97</course>
  <speed>0.0</speed>
  <fix>3d</fix>
</trkpt>
<trkpt lat="-27.2737736" lon="151.2899118">
  <ele>343.08</ele>
  <time>2026-09-01T19:55:32Z</time>
  <course>185.12</course>
  <speed>0.0</speed>
  <fix>3d</fix>
</trkpt>
<trkpt lat="-27.2737735" lon="151.2899119">
  <ele>342.88</ele>
  <time>2026-09-01T19:55:32Z</time>
  <course>301.97</course>
  <speed>0.0</speed>
  <fix>3d</fix>
</trkpt>
<trkpt lat="-27.2737736" lon="151.2899118">
  <ele>343.08</ele>
  <time>2026-09-01T19:55:32Z</time>
  <course>185.12</course>
  <speed>0.0</speed>
  <fix>3d</fix>
</trkpt>
<trkpt lat="-27.2737735" lon="151.2899119">
  <ele>342.88</ele>
  <time>2026-09-01T19:55:32Z</time>
  <course>301.97</course>
  <speed>0.0</speed>
  <fix>3d</fix>
</trkpt>
<trkpt lat="-27.2737736" lon="151.2899118">
  <ele>343.08</ele>
  <time>2026-09-01T19:55:32Z</time>
  <course>185.12</course>
  <speed>0.0</speed>
  <fix>3d</fix>
</trkpt>
<trkpt lat="-27.2737735" lon="151.2899119">
  <ele>342.88</ele>
  <time>2026-09-01T19:55:32Z</time>
  <course>301.97</course>
  <speed>0.0</speed>
  <fix>3d</fix>
</trkpt>
<trkpt lat="-27.2737736" lon="151.2899118">
  <ele>343.08</ele>
  <time>2026-09-01T19:55:32Z</time>
  <course>185.12</course>
  <speed>0.0</speed>
  <fix>3d</fix>
</trkpt>
<trkpt lat="-27.2737735" lon="151.2899119">
  <ele>342.88</ele>
  <time>2026-09-01T19:55:32Z</time>
  <course>301.97</course>
  <speed>0.0</speed>
  <fix>3d</fix>
</trkpt>
<trkpt lat="-27.2737736" lon="151.2899118">
  <ele>343.08</ele>
  <time>2026-09-01T19:55:32Z</time>
  <course>185.12</course>
  <speed>0.0</speed>
  <fix>3d</fix>
</trkpt>
<trkpt lat="-27.2737735" lon="151.2899119">
  <ele>342.88</ele>
  <time>2026-09-01T19:55:32Z</time>
  <course>301.97</course>
  <speed>0.0</speed>
  <fix>3d</fix>
</trkpt>
<trkpt lat="-27.2737736" lon="151.2899118">
  <ele>343.08</ele>
  <time>2026-09-01T19:55:32Z</time>
  <course>185.12</course>
  <speed>0.0</speed>
  <fix>3d</fix>
</trkpt>
<trkpt lat="-27.2737735" lon="151.2899119">
  <ele>342.88</ele>
  <time>2026-09-01T19:55:32Z</time>
  <course>301.97</course>
  <speed>0.0</speed>
  <fix>3d</fix>
</trkpt>
<trkpt lat="-27.2737736" lon="151.2899118">
  <ele>343.08</ele>
  <time>2026-09-01T19:55:32Z</time>
  <course>185.12</course>
  <speed>0.0</speed>
  <fix>3d</fix>
</trkpt>
<trkpt lat="-27.2737735" lon="151.2899119">
  <ele>342.88</ele>
  <time>2026-09-01T19:55:32Z</time>
  <course>301.97</course>
  <speed>0.0</speed>
  <fix>3d</fix>
</trkpt>
<trkpt lat="-27.2737736" lon="151.2899118">
  <ele>343.08</ele>
  <time>2026-09-01T19:55:32Z</time>
  <course>185.12</course>
  <speed>0.0</speed>
  <fix>3d</fix>
</trkpt>
<trkpt lat="-27.2737735" lon="151.2899119">
  <ele>342.88</ele>
  <time>2026-09-01T19:55:32Z</time>
  <course>301.97</course>
  <speed>0.0</speed>
  <fix>3d</fix>
</trkpt>
<trkpt lat="-27.2737736" lon="151.2899118">
  <ele>343.08</ele>
  <time>2026-09-01T19:55:32Z</time>
  <course>185.12</course>
  <speed>0.0</speed>
  <fix>3d</fix>
</trkpt>
<trkpt lat="-27.2737735" lon="151.2899119">
  <ele>342.88</ele>
  <time>2026-09-01T19:55:32Z</time>
  <course>301.97</course>
  <speed>0.0</speed>
  <fix>3d</fix>
</trkpt>
<trkpt lat="-27.2737736" lon="151.2899118">
  <ele>343.08</ele>
  <time>2026-09-01T19:55:32Z</time>
  <course>185.12</course>
  <speed>0.0</speed>
  <fix>3d</fix>
</trkpt>
<trkpt lat="-27.2737735" lon="151.2899119">
  <ele>342.88</ele>
  <time>2026-09-01T19:55:32Z</time>
  <course>301.97</course>
  <speed>0.0</speed>
  <fix>3d</fix>
</trkpt>
<trkpt lat="-27.2737736" lon="151.2899118">
  <ele>343.08</ele>
  <time>2026-09-01T19:55:32Z</time>
  <course>185.12</course>
  <speed>0.0</speed>
  <fix>3d</fix>
</trkpt>
<trkpt lat="-27.2737735" lon="151.2899119">
  <ele>343.07</ele>
  <time>2026-09-01T19:55:32Z</time>
  <course>301.97</course>
  <speed>0.0</speed>
  <fix>3d</fix>
</trkpt>
<trkpt lat="-27.2737736" lon="151.2899118">
  <ele>343.08</ele>
  <time>2026-09-01T19:55:32Z</time>
  <course>185.12</course>
  <speed>0.0</speed>
  <fix>3d</fix>
</trkpt>
<trkpt lat="-27.2737735" lon="151.2899119">
  <ele>343.07</ele>
  <time>2026-09-01T19:55:32Z</time>
  <course>301.97</course>
  <speed>0.0</speed>
  <fix>3d</fix>
</trkpt>
<trkpt lat="-27.2737736" lon="151.2899118">
  <ele>343.08</ele>
  <time>2026-09-01T19:55:32Z</time>
  <course>185.12</course>
  <speed>0.0</speed>
  <fix>3d</fix>
</trkpt>
<trkpt lat="-27.2737735" lon="151.2899119">
  <ele>343.07</ele>
  <time>2026-09-01T19:55:32Z</time>
  <course>301.97</course>
  <speed>0.0</speed>
  <fix>3d</fix>
</trkpt>
<trkpt lat="-27.2737736" lon="151.2899118">
  <ele>343.08</ele>
  <time>2026-09-01T19:55:32Z</time>
  <course>185.12</course>
  <speed>0.0</speed>
  <fix>3d</fix>
</trkpt>
<trkpt lat="-27.2737735" lon="151.2899119">
  <ele>343.07</ele>
  <time>2026-09-01T19:55:32Z</time>
  <course>301.97</course>
  <speed>0.0</speed>
  <fix>3d</fix>
</trkpt>
<trkpt lat="-27.2737736" lon="151.2899118">
  <ele>343.08</ele>
  <time>2026-09-01T19:55:32Z</time>
  <course>185.12</course>
  <speed>0.0</speed>
  <fix>3d</fix>
</trkpt>
<trkpt lat="-27.2737735" lon="151.2899119">
  <ele>343.07</ele>
  <time>2026-09-01T19:55:32Z</time>
  <course>301.97</course>
  <speed>0.0</speed>
  <fix>3d</fix>
</trkpt>
<trkpt lat="-27.2737736" lon="151.2899118">
  <ele>343.08</ele>
  <time>2026-09-01T19:55:32Z</time>
  <course>185.12</course>
  <speed>0.0</speed>
  <fix>3d</fix>
</trkpt>
<trkpt lat="-27.2737735" lon="151.2899119">
  <ele>343.07</ele>
  <time>2026-09-01T19:55:32Z</time>
  <course>301.97</course>
  <speed>0.0</speed>
  <fix>3d</fix>
</trkpt>
<trkpt lat="-27.2737736" lon="151.2899118">
  <ele>343.08</ele>
  <time>2026-09-01T19:55:32Z</time>
  <course>185.12</course>
  <speed>0.0</speed>
  <fix>3d</fix>
</trkpt>
<trkpt lat="-27.2737735" lon="151.2899119">
  <ele>343.07</ele>
  <time>2026-09-01T19:55:32Z</time>
  <course>301.97</course>
  <speed>0.0</speed>
  <fix>3d</fix>
</trkpt>
<trkpt lat="-27.2737736" lon="151.2899118">
  <ele>343.08</ele>
  <time>2026-09-01T19:55:32Z</time>
  <course>185.12</course>
  <speed>0.0</speed>
  <fix>3d</fix>
</trkpt>
<trkpt lat="-27.2737735" lon="151.2899119">
  <ele>343.07</ele>
  <time>2026-09-01T19:55:32Z</time>
  <course>301.97</course>
  <speed>0.0</speed>
  <fix>3d</fix>
</trkpt>
<trkpt lat="-27.2737736" lon="151.2899118">
  <ele>343.08</ele>
  <time>2026-09-01T19:55:32Z</time>
  <course>185.12</course>
  <speed>0.0</speed>
  <fix>3d</fix>
</trkpt>
<trkpt lat="-27.2737735" lon="151.2899119">
  <ele>343.08</ele>
  <time>2026-09-01T19:55:32Z</time>
  <course>301.97</course>
  <speed>0.0</speed>
  <fix>3d</fix>
</trkpt>
<trkpt lat="-27.2737736" lon="151.2899118">
  <ele>343.08</ele>
  <time>2026-09-01T19:55:32Z</time>
  <course>185.12</course>
  <speed>0.0</speed>
  <fix>3d</fix>
</trkpt>
<trkpt lat="-27.2737735" lon="151.2899119">
  <ele>343.08</ele>
  <time>2026-09-01T19:55:32Z</time>
  <course>301.97</course>
  <speed>0.0</speed>
  <fix>3d</fix>
</trkpt>
<trkpt lat="-27.2737736" lon="151.2899118">
  <ele>343.08</ele>
  <time>2026-09-01T19:55:32Z</time>
  <course>185.12</course>
  <speed>0.0</speed>
  <fix>3d</fix>
</trkpt>
<trkpt lat="-27.2737735" lon="151.2899119">
  <ele>343.08</ele>
  <time>2026-09-01T19:55:32Z</time>
  <course>301.97</course>
  <speed>0.0</speed>
  <fix>3d</fix>
</trkpt>
<trkpt lat="-27.2737736" lon="151.2899118">
  <ele>343.08</ele>
  <time>2026-09-01T19:55:32Z</time>
  <course>185.12</course>
  <speed>0.0</speed>
  <fix>3d</fix>
</trkpt>
<trkpt lat="-27.2737735" lon="151.2899119">
  <ele>343.09</ele>
  <time>2026-09-01T19:55:32Z</time>
  <course>301.97</course>
  <speed>0.0</speed>
  <fix>3d</fix>
</trkpt>
<trkpt lat="-27.2737736" lon="151.2899118">
  <ele>343.08</ele>
  <time>2026-09-01T19:55:32Z</time>
  <course>185.12</course>
  <speed>0.0</speed>
  <fix>3d</fix>
</trkpt>
<trkpt lat="-27.2737735" lon="151.2899119">
  <ele>343.09</ele>
  <time>2026-09-01T19:55:32Z</time>
  <course>301.97</course>
  <speed>0.0</speed>
  <fix>3d</fix>
</trkpt>
<trkpt lat="-27.2737736" lon="151.2899118">
  <ele>343.08</ele>
  <time>2026-09-01T19:55:32Z</time>
  <course>185.12</course>
  <speed>0.0</speed>
  <fix>3d</fix>
</trkpt>
<trkpt lat="-27.2737735" lon="151.2899119">
  <ele>343.1</ele>
  <time>2026-09-01T19:55:32Z</time>
  <course>301.97</course>
  <speed>0.0</speed>
  <fix>3d</fix>
</trkpt>
<trkpt lat="-27.2737736" lon="151.2899118">
  <ele>343.08</ele>
  <time>2026-09-01T19:55:32Z</time>
  <course>185.12</course>
  <speed>0.0</speed>
  <fix>3d</fix>
</trkpt>
<trkpt lat="-27.2737735" lon="151.2899119">
  <ele>343.1</ele>
  <time>2026-09-01T19:55:32Z</time>
  <course>301.97</course>
  <speed>0.0</speed>
  <fix>3d</fix>
</trkpt>
<trkpt lat="-27.2737736" lon="151.2899118">
  <ele>343.08</ele>
  <time>2026-09-01T19:55:32Z</time>
  <course>185.12</course>
  <speed>0.0</speed>
  <fix>3d</fix>
</trkpt>
<trkpt lat="-27.2737735" lon="151.2899119">
  <ele>343.11</ele>
  <time>2026-09-01T19:55:32Z</time>
  <course>301.96</course>
  <speed>0.0</speed>
  <fix>3d</fix>
</trkpt>
<trkpt lat="-27.2737736" lon="151.2899118">
  <ele>343.08</ele>
  <time>2026-09-01T19:55:32Z</time>
  <course>185.12</course>
  <speed>0.0</speed>
  <fix>3d</fix>
</trkpt>
<trkpt lat="-27.2737735" lon="151.2899119">
  <ele>343.11</ele>
  <time>2026-09-01T19:55:32Z</time>
  <course>301.96</course>
  <speed>0.0</speed>
  <fix>3d</fix>
</trkpt>
<trkpt lat="-27.2737736" lon="151.2899118">
  <ele>343.08</ele>
  <time>2026-09-01T19:55:32Z</time>
  <course>185.12</course>
  <speed>0.0</speed>
  <fix>3d</fix>
</trkpt>
<trkpt lat="-27.2737735" lon="151.2899119">
  <ele>343.11</ele>
  <time>2026-09-01T19:55:32Z</time>
  <course>301.96</course>
  <speed>0.0</speed>
  <fix>3d</fix>
</trkpt>
<trkpt lat="-27.2737736" lon="151.2899118">
  <ele>343.08</ele>
  <time>2026-09-01T19:55:32Z</time>
  <course>185.12</course>
  <speed>0.0</speed>
  <fix>3d</fix>
</trkpt>
<trkpt lat="-27.2737735" lon="151.2899119">
  <ele>343.12</ele>
  <time>2026-09-01T19:55:32Z</time>
  <course>301.96</course>
  <speed>0.0</speed>
  <fix>3d</fix>
</trkpt>
<trkpt lat="-27.2737736" lon="151.2899118">
  <ele>343.08</ele>
  <time>2026-09-01T19:55:32Z</time>
  <course>185.12</course>
  <speed>0.0</speed>
  <fix>3d</fix>
</trkpt>
<trkpt lat="-27.2737735" lon="151.2899119">
  <ele>343.12</ele>
  <time>2026-09-01T19:55:32Z</time>
  <course>301.96</course>
  <speed>0.0</speed>
  <fix>3d</fix>
</trkpt>
<trkpt lat="-27.2737736" lon="151.2899118">
  <ele>343.08</ele>
  <time>2026-09-01T19:55:32Z</time>
  <course>185.12</course>
  <speed>0.0</speed>
  <fix>3d</fix>
</trkpt>
<trkpt lat="-27.2737735" lon="151.2899119">
  <ele>343.12</ele>
  <time>2026-09-01T19:55:32Z</time>
  <course>301.96</course>
  <speed>0.0</speed>
  <fix>3d</fix>
</trkpt>
<trkpt lat="-27.2737736" lon="151.2899118">
  <ele>343.08</ele>
  <time>2026-09-01T19:55:32Z</time>
  <course>185.12</course>
  <speed>0.0</speed>
  <fix>3d</fix>
</trkpt>
<trkpt lat="-27.2737735" lon="151.2899119">
  <ele>343.12</ele>
  <time>2026-09-01T19:55:32Z</time>
  <course>301.96</course>
  <speed>0.0</speed>
  <fix>3d</fix>
</trkpt>
<trkpt lat="-27.2737736" lon="151.2899118">
  <ele>343.08</ele>
  <time>2026-09-01T19:55:32Z</time>
  <course>185.12</course>
  <speed>0.0</speed>
  <fix>3d</fix>
</trkpt>
<trkpt lat="-27.2737735" lon="151.2899119">
  <ele>343.12</ele>
  <time>2026-09-01T19:55:32Z</time>
  <course>301.96</course>
  <speed>0.0</speed>
  <fix>3d</fix>
</trkpt>
<trkpt lat="-27.2737736" lon="151.2899118">
  <ele>343.08</ele>
  <time>2026-09-01T19:55:32Z</time>
  <course>185.12</course>
  <speed>0.0</speed>
  <fix>3d</fix>
</trkpt>
<trkpt lat="-27.2737735" lon="151.2899119">
  <ele>343.13</ele>
  <time>2026-09-01T19:55:32Z</time>
  <course>301.96</course>
  <speed>0.0</speed>
  <fix>3d</fix>
</trkpt>
<trkpt lat="-27.2737736" lon="151.2899118">
  <ele>343.08</ele>
  <time>2026-09-01T19:55:32Z</time>
  <course>185.12</course>
  <speed>0.0</speed>
  <fix>3d</fix>
</trkpt>
<trkpt lat="-27.2737735" lon="151.2899119">
  <ele>343.13</ele>
  <time>2026-09-01T19:55:32Z</time>
  <course>301.96</course>
  <speed>0.0</speed>
  <fix>3d</fix>
</trkpt>
<trkpt lat="-27.2737736" lon="151.2899118">
  <ele>343.08</ele>
  <time>2026-09-01T19:55:32Z</time>
  <course>185.12</course>
  <speed>0.0</speed>
  <fix>3d</fix>
</trkpt>
<trkpt lat="-27.2737735" lon="151.2899119">
  <ele>343.13</ele>
  <time>2026-09-01T19:55:32Z</time>
  <course>301.96</course>
  <speed>0.0</speed>
  <fix>3d</fix>
</trkpt>
<trkpt lat="-27.2737736" lon="151.2899118">
  <ele>343.08</ele>
  <time>2026-09-01T19:55:32Z</time>
  <course>185.12</course>
  <speed>0.0</speed>
  <fix>3d</fix>
</trkpt>
<trkpt lat="-27.2737735" lon="151.2899119">
  <ele>343.14</ele>
  <time>2026-09-01T19:55:32Z</time>
  <course>301.96</course>
  <speed>0.0</speed>
  <fix>3d</fix>
</trkpt>
<trkpt lat="-27.2737736" lon="151.2899118">
  <ele>343.08</ele>
  <time>2026-09-01T19:55:32Z</time>
  <course>27.84</course>
  <speed>0.0</speed>
  <fix>3d</fix>
</trkpt>
<trkpt lat="-27.2737735" lon="151.2899119">
  <ele>343.14</ele>
  <time>2026-09-01T19:55:32Z</time>
  <course>301.96</course>
  <speed>0.0</speed>
  <fix>3d</fix>
</trkpt>
<trkpt lat="-27.2737736" lon="151.2899118">
  <ele>343.08</ele>
  <time>2026-09-01T19:55:32Z</time>
  <course>27.84</course>
  <speed>0.0</speed>
  <fix>3d</fix>
</trkpt>
<trkpt lat="-27.2737735" lon="151.2899119">
  <ele>343.15</ele>
  <time>2026-09-01T19:55:32Z</time>
  <course>301.96</course>
  <speed>0.0</speed>
  <fix>3d</fix>
</trkpt>
<trkpt lat="-27.2737736" lon="151.2899118">
  <ele>343.08</ele>
  <time>2026-09-01T19:55:32Z</time>
  <course>25.21</course>
  <speed>0.0</speed>
  <fix>3d</fix>
</trkpt>
<trkpt lat="-27.2737735" lon="151.2899119">
  <ele>343.15</ele>
  <time>2026-09-01T19:55:32Z</time>
  <course>301.96</course>
  <speed>0.0</speed>
  <fix>3d</fix>
</trkpt>
<trkpt lat="-27.2737736" lon="151.2899118">
  <ele>343.08</ele>
  <time>2026-09-01T19:55:32Z</time>
  <course>25.21</course>
  <speed>0.0</speed>
  <fix>3d</fix>
</trkpt>
<trkpt lat="-27.2737735" lon="151.2899119">
  <ele>343.16</ele>
  <time>2026-09-01T19:55:32Z</time>
  <course>301.96</course>
  <speed>0.0</speed>
  <fix>3d</fix>
</trkpt>
<trkpt lat="-27.2737736" lon="151.2899118">
  <ele>343.08</ele>
  <time>2026-09-01T19:55:32Z</time>
  <course>21.49</course>
  <speed>0.0</speed>
  <fix>3d</fix>
</trkpt>
<trkpt lat="-27.2737735" lon="151.2899119">
  <ele>343.16</ele>
  <time>2026-09-01T19:55:32Z</time>
  <course>301.96</course>
  <speed>0.0</speed>
  <fix>3d</fix>
</trkpt>
<trkpt lat="-27.2737736" lon="151.2899118">
  <ele>343.08</ele>
  <time>2026-09-01T19:55:32Z</time>
  <course>21.49</course>
  <speed>0.0</speed>
  <fix>3d</fix>
</trkpt>
<trkpt lat="-27.2737735" lon="151.2899119">
  <ele>343.17</ele>
  <time>2026-09-01T19:55:32Z</time>
  <course>301.96</course>
  <speed>0.0</speed>
  <fix>3d</fix>
</trkpt>
<trkpt lat="-27.2737736" lon="151.2899118">
  <ele>343.08</ele>
  <time>2026-09-01T19:55:32Z</time>
  <course>249.62</course>
  <speed>0.0</speed>
  <fix>3d</fix>
</trkpt>
<trkpt lat="-27.2737735" lon="151.2899119">
  <ele>343.17</ele>
  <time>2026-09-01T19:55:32Z</time>
  <course>301.96</course>
  <speed>0.0</speed>
  <fix>3d</fix>
</trkpt>
<trkpt lat="-27.2737736" lon="151.2899118">
  <ele>343.08</ele>
  <time>2026-09-01T19:55:32Z</time>
  <course>249.62</course>
  <speed>0.0</speed>
  <fix>3d</fix>
</trkpt>
<trkpt lat="-27.2737735" lon="151.2899119">
  <ele>343.19</ele>
  <time>2026-09-01T19:55:32Z</time>
  <course>301.95</course>
  <speed>0.0</speed>
  <fix>3d</fix>
</trkpt>
<trkpt lat="-27.2737736" lon="151.2899118">
  <ele>343.08</ele>
  <time>2026-09-01T19:55:32Z</time>
  <course>218.49</course>
  <speed>0.0</speed>
  <fix>3d</fix>
</trkpt>
<trkpt lat="-27.2737735" lon="151.2899119">
  <ele>343.2</ele>
  <time>2026-09-01T19:55:32Z</time>
  <course>301.95</course>
  <speed>0.0</speed>
  <fix>3d</fix>
</trkpt>
<trkpt lat="-27.2737736" lon="151.2899118">
  <ele>343.08</ele>
  <time>2026-09-01T19:55:32Z</time>
  <course>297.53</course>
  <speed>0.0</speed>
  <fix>3d</fix>
</trkpt>
<trkpt lat="-27.2737735" lon="151.2899119">
  <ele>343.2</ele>
  <time>2026-09-01T19:55:32Z</time>
  <course>301.95</course>
  <speed>0.0</speed>
  <fix>3d</fix>
</trkpt>
<trkpt lat="-27.2737736" lon="151.2899118">
  <ele>343.08</ele>
  <time>2026-09-01T19:55:32Z</time>
  <course>125.03</course>
  <speed>0.0</speed>
  <fix>3d</fix>
</trkpt>
<trkpt lat="-27.2737735" lon="151.2899119">
  <ele>343.21</ele>
  <time>2026-09-01T19:55:32Z</time>
  <course>301.95</course>
  <speed>0.0</speed>
  <fix>3d</fix>
</trkpt>
<trkpt lat="-27.2737736" lon="151.2899118">
  <ele>343.08</ele>
  <time>2026-09-01T19:55:32Z</time>
  <course>125.03</course>
  <speed>0.0</speed>
  <fix>3d</fix>
</trkpt>
<trkpt lat="-27.2737735" lon="151.2899119">
  <ele>343.21</ele>
  <time>2026-09-01T19:55:32Z</time>
  <course>301.95</course>
  <speed>0.0</speed>
  <fix>3d</fix>
</trkpt>
<trkpt lat="-27.2737736" lon="151.2899118">
  <ele>343.08</ele>
  <time>2026-09-01T19:55:32Z</time>
  <course>124.38</course>
  <speed>0.0</speed>
  <fix>3d</fix>
</trkpt>
<trkpt lat="-27.2737735" lon="151.2899119">
  <ele>343.21</ele>
  <time>2026-09-01T19:55:32Z</time>
  <course>301.95</course>
  <speed>0.0</speed>
  <fix>3d</fix>
</trkpt>
<trkpt lat="-27.2737736" lon="151.2899118">
  <ele>343.08</ele>
  <time>2026-09-01T19:55:32Z</time>
  <course>124.38</course>
  <speed>0.0</speed>
  <fix>3d</fix>
</trkpt>
<trkpt lat="-27.2737735" lon="151.2899119">
  <ele>343.21</ele>
  <time>2026-09-01T19:55:32Z</time>
  <course>301.95</course>
  <speed>0.0</speed>
  <fix>3d</fix>
</trkpt>
<trkpt lat="-27.2737736" lon="151.2899118">
  <ele>343.08</ele>
  <time>2026-09-01T19:55:32Z</time>
  <course>128.07</course>
  <speed>0.0</speed>
  <fix>3d</fix>
</trkpt>
<trkpt lat="-27.2737735" lon="151.2899119">
  <ele>343.21</ele>
  <time>2026-09-01T19:55:32Z</time>
  <course>301.95</course>
  <speed>0.0</speed>
  <fix>3d</fix>
</trkpt>
<trkpt lat="-27.2737736" lon="151.2899118">
  <ele>343.08</ele>
  <time>2026-09-01T19:55:32Z</time>
  <course>128.07</course>
  <speed>0.0</speed>
  <fix>3d</fix>
</trkpt>
<trkpt lat="-27.2737735" lon="151.2899118">
  <ele>343.21</ele>
  <time>2026-09-01T19:55:32Z</time>
  <course>301.95</course>
  <speed>0.0</speed>
  <fix>3d</fix>
</trkpt>
<trkpt lat="-27.2737736" lon="151.2899118">
  <ele>343.08</ele>
  <time>2026-09-01T19:55:32Z</time>
  <course>128.06</course>
  <speed>0.0</speed>
  <fix>3d</fix>
</trkpt>
<trkpt lat="-27.2737735" lon="151.2899118">
  <ele>343.21</ele>
  <time>2026-09-01T19:55:32Z</time>
  <course>301.94</course>
  <speed>0.0</speed>
  <fix>3d</fix>
</trkpt>
<trkpt lat="-27.2737736" lon="151.2899118">
  <ele>343.08</ele>
  <time>2026-09-01T19:55:32Z</time>
  <course>128.06</course>
  <speed>0.0</speed>
  <fix>3d</fix>
</trkpt>
<trkpt lat="-27.2737735" lon="151.2899118">
  <ele>343.21</ele>
  <time>2026-09-01T19:55:32Z</time>
  <course>301.94</course>
  <speed>0.0</speed>
  <fix>3d</fix>
</trkpt>
<trkpt lat="-27.2737736" lon="151.2899118">
  <ele>343.08</ele>
  <time>2026-09-01T19:55:32Z</time>
  <course>126.32</course>
  <speed>0.0</speed>
  <fix>3d</fix>
</trkpt>
<trkpt lat="-27.2737735" lon="151.2899118">
  <ele>343.21</ele>
  <time>2026-09-01T19:55:32Z</time>
  <course>301.94</course>
  <speed>0.0</speed>
  <fix>3d</fix>
</trkpt>
<trkpt lat="-27.2737736" lon="151.2899118">
  <ele>343.08</ele>
  <time>2026-09-01T19:55:32Z</time>
  <course>126.32</course>
  <speed>0.0</speed>
  <fix>3d</fix>
</trkpt>
<trkpt lat="-27.2737735" lon="151.2899118">
  <ele>343.21</ele>
  <time>2026-09-01T19:55:32Z</time>
  <course>301.94</course>
  <speed>0.0</speed>
  <fix>3d</fix>
</trkpt>
<trkpt lat="-27.2737736" lon="151.2899118">
  <ele>343.08</ele>
  <time>2026-09-01T19:55:32Z</time>
  <course>126.78</course>
  <speed>0.0</speed>
  <fix>3d</fix>
</trkpt>
<trkpt lat="-27.2737735" lon="151.2899118">
  <ele>343.21</ele>
  <time>2026-09-01T19:55:32Z</time>
  <course>301.94</course>
  <speed>0.0</speed>
  <fix>3d</fix>
</trkpt>
<trkpt lat="-27.2737736" lon="151.2899118">
  <ele>343.08</ele>
  <time>2026-09-01T19:55:32Z</time>
  <course>126.78</course>
  <speed>0.0</speed>
  <fix>3d</fix>
</trkpt>
<trkpt lat="-27.2737735" lon="151.2899118">
  <ele>343.21</ele>
  <time>2026-09-01T19:55:32Z</time>
  <course>301.94</course>
  <speed>0.0</speed>
  <fix>3d</fix>
</trkpt>
<trkpt lat="-27.2737736" lon="151.2899118">
  <ele>343.08</ele>
  <time>2026-09-01T19:55:32Z</time>
  <course>127.46</course>
  <speed>0.0</speed>
  <fix>3d</fix>
</trkpt>
<trkpt lat="-27.2737735" lon="151.2899118">
  <ele>343.21</ele>
  <time>2026-09-01T19:55:32Z</time>
  <course>301.94</course>
  <speed>0.0</speed>
  <fix>3d</fix>
</trkpt>
<trkpt lat="-27.2737736" lon="151.2899118">
  <ele>343.08</ele>
  <time>2026-09-01T19:55:32Z</time>
  <course>127.46</course>
  <speed>0.0</speed>
  <fix>3d</fix>
</trkpt>
<trkpt lat="-27.2737735" lon="151.2899118">
  <ele>343.21</ele>
  <time>2026-09-01T19:55:32Z</time>
  <course>301.94</course>
  <speed>0.0</speed>
  <fix>3d</fix>
</trkpt>
<trkpt lat="-27.2737736" lon="151.2899118">
  <ele>343.08</ele>
  <time>2026-09-01T19:55:32Z</time>
  <course>127.24</course>
  <speed>0.0</speed>
  <fix>3d</fix>
</trkpt>
<trkpt lat="-27.2737735" lon="151.2899118">
  <ele>343.21</ele>
  <time>2026-09-01T19:55:32Z</time>
  <course>301.94</course>
  <speed>0.0</speed>
  <fix>3d</fix>
</trkpt>
<trkpt lat="-27.2737736" lon="151.2899118">
  <ele>343.08</ele>
  <time>2026-09-01T19:55:32Z</time>
  <course>127.24</course>
  <speed>0.0</speed>
  <fix>3d</fix>
</trkpt>
<trkpt lat="-27.2737735" lon="151.2899118">
  <ele>343.21</ele>
  <time>2026-09-01T19:55:32Z</time>
  <course>301.94</course>
  <speed>0.0</speed>
  <fix>3d</fix>
</trkpt>
<trkpt lat="-27.2737736" lon="151.2899118">
  <ele>343.08</ele>
  <time>2026-09-01T19:55:32Z</time>
  <course>127.14</course>
  <speed>0.0</speed>
  <fix>3d</fix>
</trkpt>
<trkpt lat="-27.2737735" lon="151.2899118">
  <ele>343.21</ele>
  <time>2026-09-01T19:55:32Z</time>
  <course>301.94</course>
  <speed>0.0</speed>
  <fix>3d</fix>
</trkpt>
<trkpt lat="-27.2737736" lon="151.2899118">
  <ele>343.08</ele>
  <time>2026-09-01T19:55:32Z</time>
  <course>127.14</course>
  <speed>0.0</speed>
  <fix>3d</fix>
</trkpt>
<trkpt lat="-27.2737735" lon="151.2899118">
  <ele>343.08</ele>
  <time>2026-09-01T19:55:32Z</time>
  <course>301.93</course>
  <speed>0.0</speed>
  <fix>3d</fix>
</trkpt>
<trkpt lat="-27.2737736" lon="151.2899118">
  <ele>343.08</ele>
  <time>2026-09-01T19:55:32Z</time>
  <course>127.32</course>
  <speed>0.0</speed>
  <fix>3d</fix>
</trkpt>
<trkpt lat="-27.2737735" lon="151.2899118">
  <ele>343.08</ele>
  <time>2026-09-01T19:55:32Z</time>
  <course>301.93</course>
  <speed>0.0</speed>
  <fix>3d</fix>
</trkpt>
<trkpt lat="-27.2737736" lon="151.2899118">
  <ele>343.08</ele>
  <time>2026-09-01T19:55:32Z</time>
  <course>127.32</course>
  <speed>0.0</speed>
  <fix>3d</fix>
</trkpt>
<trkpt lat="-27.2737735" lon="151.2899118">
  <ele>343.08</ele>
  <time>2026-09-01T19:55:32Z</time>
  <course>301.93</course>
  <speed>0.0</speed>
  <fix>3d</fix>
</trkpt>
<trkpt lat="-27.2737736" lon="151.2899118">
  <ele>343.08</ele>
  <time>2026-09-01T19:55:32Z</time>
  <course>127.39</course>
  <speed>0.0</speed>
  <fix>3d</fix>
</trkpt>
<trkpt lat="-27.2737735" lon="151.2899118">
  <ele>343.08</ele>
  <time>2026-09-01T19:55:32Z</time>
  <course>301.93</course>
  <speed>0.0</speed>
  <fix>3d</fix>
</trkpt>
<trkpt lat="-27.2737736" lon="151.2899118">
  <ele>343.08</ele>
  <time>2026-09-01T19:55:32Z</time>
  <course>127.39</course>
  <speed>0.0</speed>
  <fix>3d</fix>
</trkpt>
<trkpt lat="-27.2737735" lon="151.2899118">
  <ele>343.09</ele>
  <time>2026-09-01T19:55:32Z</time>
  <course>301.93</course>
  <speed>0.0</speed>
  <fix>3d</fix>
</trkpt>
<trkpt lat="-27.2737736" lon="151.2899118">
  <ele>343.08</ele>
  <time>2026-09-01T19:55:32Z</time>
  <course>127.36</course>
  <speed>0.0</speed>
  <fix>3d</fix>
</trkpt>
<trkpt lat="-27.2737735" lon="151.2899118">
  <ele>343.09</ele>
  <time>2026-09-01T19:55:32Z</time>
  <course>301.93</course>
  <speed>0.0</speed>
  <fix>3d</fix>
</trkpt>
<trkpt lat="-27.2737736" lon="151.2899118">
  <ele>343.08</ele>
  <time>2026-09-01T19:55:32Z</time>
  <course>127.38</course>
  <speed>0.0</speed>
  <fix>3d</fix>
</trkpt>
<trkpt lat="-27.2737735" lon="151.2899118">
  <ele>343.09</ele>
  <time>2026-09-01T19:55:32Z</time>
  <course>301.93</course>
  <speed>0.0</speed>
  <fix>3d</fix>
</trkpt>
<trkpt lat="-27.2737736" lon="151.2899118">
  <ele>343.08</ele>
  <time>2026-09-01T19:55:32Z</time>
  <course>127.38</course>
  <speed>0.0</speed>
  <fix>3d</fix>
</trkpt>
<trkpt lat="-27.2737735" lon="151.2899118">
  <ele>343.09</ele>
  <time>2026-09-01T19:55:32Z</time>
  <course>301.93</course>
  <speed>0.0</speed>
  <fix>3d</fix>
</trkpt>
<trkpt lat="-27.2737736" lon="151.2899118">
  <ele>343.08</ele>
  <time>2026-09-01T19:55:32Z</time>
  <course>127.38</course>
  <speed>0.0</speed>
  <fix>3d</fix>
</trkpt>
<trkpt lat="-27.2737735" lon="151.2899118">
  <ele>343.1</ele>
  <time>2026-09-01T19:55:32Z</time>
  <course>301.93</course>
  <speed>0.0</speed>
  <fix>3d</fix>
</trkpt>
<trkpt lat="-27.2737736" lon="151.2899118">
  <ele>343.08</ele>
  <time>2026-09-01T19:55:32Z</time>
  <course>127.42</course>
  <speed>0.0</speed>
  <fix>3d</fix>
</trkpt>
<trkpt lat="-27.2737735" lon="151.2899118">
  <ele>343.1</ele>
  <time>2026-09-01T19:55:32Z</time>
  <course>301.93</course>
  <speed>0.0</speed>
  <fix>3d</fix>
</trkpt>
<trkpt lat="-27.2737736" lon="151.2899118">
  <ele>343.08</ele>
  <time>2026-09-01T19:55:32Z</time>
  <course>127.42</course>
  <speed>0.0</speed>
  <fix>3d</fix>
</trkpt>
<trkpt lat="-27.2737736" lon="151.2899118">
  <ele>343.11</ele>
  <time>2026-09-01T19:55:32Z</time>
  <course>301.92</course>
  <speed>0.0</speed>
  <fix>3d</fix>
</trkpt>
<trkpt lat="-27.2737736" lon="151.2899118">
  <ele>343.08</ele>
  <time>2026-09-01T19:55:32Z</time>
  <course>127.43</course>
  <speed>0.0</speed>
  <fix>3d</fix>
</trkpt>
<trkpt lat="-27.2737736" lon="151.2899118">
  <ele>343.11</ele>
  <time>2026-09-01T19:55:32Z</time>
  <course>301.92</course>
  <speed>0.0</speed>
  <fix>3d</fix>
</trkpt>
<trkpt lat="-27.2737736" lon="151.2899118">
  <ele>343.08</ele>
  <time>2026-09-01T19:55:32Z</time>
  <course>127.43</course>
  <speed>0.0</speed>
  <fix>3d</fix>
</trkpt>
<trkpt lat="-27.2737736" lon="151.2899118">
  <ele>343.11</ele>
  <time>2026-09-01T19:55:32Z</time>
  <course>301.92</course>
  <speed>0.0</speed>
  <fix>3d</fix>
</trkpt>
<trkpt lat="-27.2737736" lon="151.2899118">
  <ele>343.08</ele>
  <time>2026-09-01T19:55:32Z</time>
  <course>127.43</course>
  <speed>0.0</speed>
  <fix>3d</fix>
</trkpt>
<trkpt lat="-27.2737736" lon="151.2899118">
  <ele>343.11</ele>
  <time>2026-09-01T19:55:32Z</time>
  <course>301.92</course>
  <speed>0.0</speed>
  <fix>3d</fix>
</trkpt>
<trkpt lat="-27.2737736" lon="151.2899118">
  <ele>343.08</ele>
  <time>2026-09-01T19:55:32Z</time>
  <course>127.43</course>
  <speed>0.0</speed>
  <fix>3d</fix>
</trkpt>
<trkpt lat="-27.2737736" lon="151.2899118">
  <ele>343.12</ele>
  <time>2026-09-01T19:55:32Z</time>
  <course>301.92</course>
  <speed>0.0</speed>
  <fix>3d</fix>
</trkpt>
<trkpt lat="-27.2737736" lon="151.2899118">
  <ele>343.08</ele>
  <time>2026-09-01T19:55:32Z</time>
  <course>127.44</course>
  <speed>0.0</speed>
  <fix>3d</fix>
</trkpt>
<trkpt lat="-27.2737736" lon="151.2899118">
  <ele>343.12</ele>
  <time>2026-09-01T19:55:32Z</time>
  <course>301.92</course>
  <speed>0.0</speed>
  <fix>3d</fix>
</trkpt>
<trkpt lat="-27.2737736" lon="151.2899118">
  <ele>343.08</ele>
  <time>2026-09-01T19:55:32Z</time>
  <course>127.44</course>
  <speed>0.0</speed>
  <fix>3d</fix>
</trkpt>
<trkpt lat="-27.2737736" lon="151.2899118">
  <ele>343.08</ele>
  <time>2026-09-01T19:55:32Z</time>
  <course>301.92</course>
  <speed>0.0</speed>
  <fix>3d</fix>
</trkpt>
<trkpt lat="-27.2737736" lon="151.2899118">
  <ele>343.08</ele>
  <time>2026-09-01T19:55:32Z</time>
  <course>127.45</course>
  <speed>0.0</speed>
  <fix>3d</fix>
</trkpt>
<trkpt lat="-27.2737736" lon="151.2899118">
  <ele>343.08</ele>
  <time>2026-09-01T19:55:32Z</time>
  <course>301.92</course>
  <speed>0.0</speed>
  <fix>3d</fix>
</trkpt>
<trkpt lat="-27.2737736" lon="151.2899118">
  <ele>343.08</ele>
  <time>2026-09-01T19:55:32Z</time>
  <course>127.45</course>
  <speed>0.0</speed>
  <fix>3d</fix>
</trkpt>
<trkpt lat="-27.2737736" lon="151.2899118">
  <ele>343.08</ele>
  <time>2026-09-01T19:55:32Z</time>
  <course>301.92</course>
  <speed>0.0</speed>
  <fix>3d</fix>
</trkpt>
<trkpt lat="-27.2737736" lon="151.2899118">
  <ele>343.08</ele>
  <time>2026-09-01T19:55:32Z</time>
  <course>127.46</course>
  <speed>0.0</speed>
  <fix>3d</fix>
</trkpt>
<trkpt lat="-27.2737736" lon="151.2899118">
  <ele>343.08</ele>
  <time>2026-09-01T19:55:32Z</time>
  <course>301.91</course>
  <speed>0.0</speed>
  <fix>3d</fix>
</trkpt>
<trkpt lat="-27.2737736" lon="151.2899118">
  <ele>343.08</ele>
  <time>2026-09-01T19:55:32Z</time>
  <course>127.46</course>
  <speed>0.0</speed>
  <fix>3d</fix>
</trkpt>
<trkpt lat="-27.2737736" lon="151.2899118">
  <ele>343.07</ele>
  <time>2026-09-01T19:55:32Z</time>
  <course>301.91</course>
  <speed>0.0</speed>
  <fix>3d</fix>
</trkpt>
<trkpt lat="-27.2737736" lon="151.2899118">
  <ele>343.08</ele>
  <time>2026-09-01T19:55:32Z</time>
  <course>160.25</course>
  <speed>0.0</speed>
  <fix>3d</fix>
</trkpt>
<trkpt lat="-27.2737736" lon="151.2899118">
  <ele>343.07</ele>
  <time>2026-09-01T19:55:32Z</time>
  <course>301.91</course>
  <speed>0.0</speed>
  <fix>3d</fix>
</trkpt>
<trkpt lat="-27.2737736" lon="151.2899118">
  <ele>343.08</ele>
  <time>2026-09-01T19:55:32Z</time>
  <course>160.25</course>
  <speed>0.0</speed>
  <fix>3d</fix>
</trkpt>
<trkpt lat="-27.2737736" lon="151.2899118">
  <ele>343.07</ele>
  <time>2026-09-01T19:55:32Z</time>
  <course>301.91</course>
  <speed>0.0</speed>
  <fix>3d</fix>
</trkpt>
<trkpt lat="-27.2737736" lon="151.2899118">
  <ele>343.08</ele>
  <time>2026-09-01T19:55:32Z</time>
  <course>192.51</course>
  <speed>0.0</speed>
  <fix>3d</fix>
</trkpt>
<trkpt lat="-27.2737736" lon="151.2899118">
  <ele>343.07</ele>
  <time>2026-09-01T19:55:32Z</time>
  <course>301.91</course>
  <speed>0.0</speed>
  <fix>3d</fix>
</trkpt>
<trkpt lat="-27.2737736" lon="151.2899118">
  <ele>343.08</ele>
  <time>2026-09-01T19:55:32Z</time>
  <course>192.51</course>
  <speed>0.0</speed>
  <fix>3d</fix>
</trkpt>
<trkpt lat="-27.2737736" lon="151.2899118">
  <ele>343.07</ele>
  <time>2026-09-01T19:55:32Z</time>
  <course>301.91</course>
  <speed>0.0</speed>
  <fix>3d</fix>
</trkpt>
<trkpt lat="-27.2737736" lon="151.2899118">
  <ele>343.08</ele>
  <time>2026-09-01T19:55:32Z</time>
  <course>143.36</course>
  <speed>0.0</speed>
  <fix>3d</fix>
</trkpt>
<trkpt lat="-27.2737736" lon="151.2899118">
  <ele>343.07</ele>
  <time>2026-09-01T19:55:32Z</time>
  <course>301.91</course>
  <speed>0.0</speed>
  <fix>3d</fix>
</trkpt>
<trkpt lat="-27.2737736" lon="151.2899118">
  <ele>343.08</ele>
  <time>2026-09-01T19:55:32Z</time>
  <course>143.36</course>
  <speed>0.0</speed>
  <fix>3d</fix>
</trkpt>
<trkpt lat="-27.2737736" lon="151.2899118">
  <ele>343.07</ele>
  <time>2026-09-01T19:55:32Z</time>
  <course>301.91</course>
  <speed>0.0</speed>
  <fix>3d</fix>
</trkpt>
<trkpt lat="-27.2737736" lon="151.2899118">
  <ele>343.08</ele>
  <time>2026-09-01T19:55:32Z</time>
  <course>150.78</course>
  <speed>0.0</speed>
  <fix>3d</fix>
</trkpt>
<trkpt lat="-27.2737736" lon="151.2899118">
  <ele>343.07</ele>
  <time>2026-09-01T19:55:32Z</time>
  <course>301.91</course>
  <speed>0.0</speed>
  <fix>3d</fix>
</trkpt>
<trkpt lat="-27.2737736" lon="151.2899118">
  <ele>343.08</ele>
  <time>2026-09-01T19:55:32Z</time>
  <course>88.23</course>
  <speed>0.0</speed>
  <fix>3d</fix>
</trkpt>
<trkpt lat="-27.2737736" lon="151.2899118">
  <ele>343.07</ele>
  <time>2026-09-01T19:55:32Z</time>
  <course>301.9</course>
  <speed>0.0</speed>
  <fix>3d</fix>
</trkpt>
<trkpt lat="-27.2737736" lon="151.2899118">
  <ele>343.08</ele>
  <time>2026-09-01T19:55:32Z</time>
  <course>88.23</course>
  <speed>0.0</speed>
  <fix>3d</fix>
</trkpt>
<trkpt lat="-27.2737736" lon="151.2899118">
  <ele>343.07</ele>
  <time>2026-09-01T19:55:32Z</time>
  <course>301.9</course>
  <speed>0.0</speed>
  <fix>3d</fix>
</trkpt>
<trkpt lat="-27.2737736" lon="151.2899118">
  <ele>343.08</ele>
  <time>2026-09-01T19:55:32Z</time>
  <course>353.31</course>
  <speed>0.0</speed>
  <fix>3d</fix>
</trkpt>
<trkpt lat="-27.2737736" lon="151.2899118">
  <ele>343.09</ele>
  <time>2026-09-01T19:55:32Z</time>
  <course>301.9</course>
  <speed>0.0</speed>
  <fix>3d</fix>
</trkpt>
<trkpt lat="-27.2737736" lon="151.2899118">
  <ele>343.08</ele>
  <time>2026-09-01T19:55:32Z</time>
  <course>353.31</course>
  <speed>0.0</speed>
  <fix>3d</fix>
</trkpt>
<trkpt lat="-27.2737736" lon="151.2899118">
  <ele>343.13</ele>
  <time>2026-09-01T19:55:32Z</time>
  <course>301.9</course>
  <speed>0.0</speed>
  <fix>3d</fix>
</trkpt>
<trkpt lat="-27.2737736" lon="151.2899118">
  <ele>343.1</ele>
  <time>2026-09-01T19:55:32Z</time>
  <course>351.78</course>
  <speed>0.0</speed>
  <fix>3d</fix>
</trkpt>
<trkpt lat="-27.2737736" lon="151.2899118">
  <ele>343.19</ele>
  <time>2026-09-01T19:55:32Z</time>
  <course>301.9</course>
  <speed>0.01</speed>
  <fix>3d</fix>
</trkpt>
<trkpt lat="-27.2737736" lon="151.2899118">
  <ele>343.1</ele>
  <time>2026-09-01T19:55:32Z</time>
  <course>351.78</course>
  <speed>0.0</speed>
  <fix>3d</fix>
</trkpt>
<trkpt lat="-27.2737736" lon="151.2899118">
  <ele>343.27</ele>
  <time>2026-09-01T19:55:32Z</time>
  <course>301.89</course>
  <speed>0.02</speed>
  <fix>3d</fix>
</trkpt>
<trkpt lat="-27.2737736" lon="151.2899118">
  <ele>343.1</ele>
  <time>2026-09-01T19:55:32Z</time>
  <course>351.78</course>
  <speed>0.0</speed>
  <fix>3d</fix>
</trkpt>
<trkpt lat="-27.2737736" lon="151.2899117">
  <ele>343.44</ele>
  <time>2026-09-01T19:55:32Z</time>
  <course>301.89</course>
  <speed>0.053851648071345036</speed>
  <fix>3d</fix>
</trkpt>
<trkpt lat="-27.2737736" lon="151.2899118">
  <ele>343.2</ele>
  <time>2026-09-01T19:55:32Z</time>
  <course>304.72</course>
  <speed>0.01</speed>
  <fix>3d</fix>
</trkpt>
<trkpt lat="-27.2737736" lon="151.2899117">
  <ele>343.66</ele>
  <time>2026-09-01T19:55:32Z</time>
  <course>301.89</course>
  <speed>0.08944271909999159</speed>
  <fix>3d</fix>
</trkpt>
<trkpt lat="-27.2737736" lon="151.2899118">
  <ele>343.2</ele>
  <time>2026-09-01T19:55:32Z</time>
  <course>304.72</course>
  <speed>0.01</speed>
  <fix>3d</fix>
</trkpt>
<trkpt lat="-27.2737735" lon="151.2899116">
  <ele>343.91</ele>
  <time>2026-09-01T19:55:33Z</time>
  <course>301.9</course>
  <speed>0.130384048104053</speed>
  <fix>3d</fix>
</trkpt>
<trkpt lat="-27.2737736" lon="151.2899117">
  <ele>343.46</ele>
  <time>2026-09-01T19:55:33Z</time>
  <course>302.47</course>
  <speed>0.05</speed>
  <fix>3d</fix>
</trkpt>
<trkpt lat="-27.2737735" lon="151.2899114">
  <ele>344.18</ele>
  <time>2026-09-01T19:55:33Z</time>
  <course>301.92</course>
  <speed>0.17492855684535902</speed>
  <fix>3d</fix>
</trkpt>
<trkpt lat="-27.2737736" lon="151.2899117">
  <ele>343.46</ele>
  <time>2026-09-01T19:55:33Z</time>
  <course>302.47</course>
  <speed>0.05</speed>
  <fix>3d</fix>
</trkpt>
<trkpt lat="-27.2737734" lon="151.2899113">
  <ele>344.47</ele>
  <time>2026-09-01T19:55:33Z</time>
  <course>301.94</course>
  <speed>0.2109502310972899</speed>
  <fix>3d</fix>
</trkpt>
<trkpt lat="-27.2737735" lon="151.2899115">
  <ele>343.91</ele>
  <time>2026-09-01T19:55:33Z</time>
  <course>303.8</course>
  <speed>0.13</speed>
  <fix>3d</fix>
</trkpt>
<trkpt lat="-27.2737733" lon="151.2899111">
  <ele>344.77</ele>
  <time>2026-09-01T19:55:33Z</time>
  <course>301.96</course>
  <speed>0.25553864678361277</speed>
  <fix>3d</fix>
</trkpt>
<trkpt lat="-27.2737735" lon="151.2899115">
  <ele>343.91</ele>
  <time>2026-09-01T19:55:33Z</time>
  <course>303.8</course>
  <speed>0.13</speed>
  <fix>3d</fix>
</trkpt>
<trkpt lat="-27.2737731" lon="151.2899108">
  <ele>345.08</ele>
  <time>2026-09-01T19:55:33Z</time>
  <course>301.98</course>
  <speed>0.2968164415931166</speed>
  <fix>3d</fix>
</trkpt>
<trkpt lat="-27.2737733" lon="151.2899112">
  <ele>344.47</ele>
  <time>2026-09-01T19:55:33Z</time>
  <course>303.66</course>
  <speed>0.21</speed>
  <fix>3d</fix>
</trkpt>
<trkpt lat="-27.273773" lon="151.2899106">
  <ele>345.41</ele>
  <time>2026-09-01T19:55:33Z</time>
  <course>301.72</course>
  <speed>0.34132096331752027</speed>
  <fix>3d</fix>
</trkpt>
<trkpt lat="-27.2737733" lon="151.2899112">
  <ele>344.47</ele>
  <time>2026-09-01T19:55:33Z</time>
  <course>303.66</course>
  <speed>0.21</speed>
  <fix>3d</fix>
</trkpt>
<trkpt lat="-27.2737728" lon="151.2899103">
  <ele>345.75</ele>
  <time>2026-09-01T19:55:33Z</time>
  <course>301.72</course>
  <speed>0.3773592452822641</speed>
  <fix>3d</fix>
</trkpt>
<trkpt lat="-27.2737731" lon="151.2899108">
  <ele>345.09</ele>
  <time>2026-09-01T19:55:33Z</time>
  <course>303.18</course>
  <speed>0.29</speed>
  <fix>3d</fix>
</trkpt>
<trkpt lat="-27.2737726" lon="151.2899099">
  <ele>346.09</ele>
  <time>2026-09-01T19:55:33Z</time>
  <course>301.71</course>
  <speed>0.408166632639171</speed>
  <fix>3d</fix>
</trkpt>
<trkpt lat="-27.2737731" lon="151.2899108">
  <ele>345.09</ele>
  <time>2026-09-01T19:55:33Z</time>
  <course>303.18</course>
  <speed>0.29</speed>
  <fix>3d</fix>
</trkpt>
<trkpt lat="-27.2737724" lon="151.2899096">
  <ele>346.44</ele>
  <time>2026-09-01T19:55:33Z</time>
  <course>301.71</course>
  <speed>0.4356604182158393</speed>
  <fix>3d</fix>
</trkpt>
<trkpt lat="-27.2737727" lon="151.2899102">
  <ele>345.76</ele>
  <time>2026-09-01T19:55:33Z</time>
  <course>302.93</course>
  <speed>0.37</speed>
  <fix>3d</fix>
</trkpt>
<trkpt lat="-27.2737722" lon="151.2899092">
  <ele>346.78</ele>
  <time>2026-09-01T19:55:33Z</time>
  <course>301.71</course>
  <speed>0.45793012567421243</speed>
  <fix>3d</fix>
</trkpt>
<trkpt lat="-27.2737727" lon="151.2899102">
  <ele>345.76</ele>
  <time>2026-09-01T19:55:33Z</time>
  <course>302.93</course>
  <speed>0.37</speed>
  <fix>3d</fix>
</trkpt>
<trkpt lat="-27.273772" lon="151.2899088">
  <ele>347.12</ele>
  <time>2026-09-01T19:55:33Z</time>
  <course>301.71</course>
  <speed>0.46647615158762407</speed>
  <fix>3d</fix>
</trkpt>
<trkpt lat="-27.2737724" lon="151.2899096">
  <ele>346.45</ele>
  <time>2026-09-01T19:55:33Z</time>
  <course>302.82</course>
  <speed>0.43</speed>
  <fix>3d</fix>
</trkpt>
<trkpt lat="-27.2737717" lon="151.2899084">
  <ele>347.46</ele>
  <time>2026-09-01T19:55:33Z</time>
  <course>301.72</course>
  <speed>0.47169905660283024</speed>
  <fix>3d</fix>
</trkpt>
<trkpt lat="-27.2737719" lon="151.2899089">
  <ele>347.13</ele>
  <time>2026-09-01T19:55:33Z</time>
  <course>302.77</course>
  <speed>0.46</speed>
  <fix>3d</fix>
</trkpt>
<trkpt lat="-27.2737715" lon="151.289908">
  <ele>347.79</ele>
  <time>2026-09-01T19:55:33Z</time>
  <course>301.72</course>
  <speed>0.47169905660283024</speed>
  <fix>3d</fix>
</trkpt>
<trkpt lat="-27.2737719" lon="151.2899089">
  <ele>347.13</ele>
  <time>2026-09-01T19:55:33Z</time>
  <course>302.77</course>
  <speed>0.46</speed>
  <fix>3d</fix>
</trkpt>
<trkpt lat="-27.2737713" lon="151.2899076">
  <ele>348.11</ele>
  <time>2026-09-01T19:55:33Z</time>
  <course>301.72</course>
  <speed>0.46647615158762407</speed>
  <fix>3d</fix>
</trkpt>
<trkpt lat="-27.2737715" lon="151.2899081">
  <ele>347.79</ele>
  <time>2026-09-01T19:55:33Z</time>
  <course>302.77</course>
  <speed>0.47</speed>
  <fix>3d</fix>
</trkpt>
<trkpt lat="-27.2737711" lon="151.2899072">
  <ele>348.42</ele>
  <time>2026-09-01T19:55:33Z</time>
  <course>301.73</course>
  <speed>0.45793012567421243</speed>
  <fix>3d</fix>
</trkpt>
<trkpt lat="-27.2737715" lon="151.2899081">
  <ele>347.79</ele>
  <time>2026-09-01T19:55:33Z</time>
  <course>302.77</course>
  <speed>0.47</speed>
  <fix>3d</fix>
</trkpt>
<trkpt lat="-27.2737709" lon="151.2899068">
  <ele>348.72</ele>
  <time>2026-09-01T19:55:33Z</time>
  <course>301.73</course>
  <speed>0.4356604182158393</speed>
  <fix>3d</fix>
</trkpt>
<trkpt lat="-27.273771" lon="151.2899072">
  <ele>348.42</ele>
  <time>2026-09-01T19:55:33Z</time>
  <course>302.81</course>
  <speed>0.45</speed>
  <fix>3d</fix>
</trkpt>
<trkpt lat="-27.2737707" lon="151.2899064">
  <ele>349.01</ele>
  <time>2026-09-01T19:55:33Z</time>
  <course>301.73</course>
  <speed>0.41340053217188777</speed>
  <fix>3d</fix>
</trkpt>
<trkpt lat="-27.273771" lon="151.2899072">
  <ele>348.42</ele>
  <time>2026-09-01T19:55:33Z</time>
  <course>302.81</course>
  <speed>0.45</speed>
  <fix>3d</fix>
</trkpt>
<trkpt lat="-27.2737705" lon="151.2899061">
  <ele>349.29</ele>
  <time>2026-09-01T19:55:33Z</time>
  <course>301.72</course>
  <speed>0.3858756276314948</speed>
  <fix>3d</fix>
</trkpt>
<trkpt lat="-27.2737706" lon="151.2899065">
  <ele>349.02</ele>
  <time>2026-09-01T19:55:33Z</time>
  <course>302.9</course>
  <speed>0.41</speed>
  <fix>3d</fix>
</trkpt>
<trkpt lat="-27.2737703" lon="151.2899058">
  <ele>349.57</ele>
  <time>2026-09-01T19:55:33Z</time>
  <course>301.72</course>
  <speed>0.35510561809129404</speed>
  <fix>3d</fix>
</trkpt>
<trkpt lat="-27.2737706" lon="151.2899065">
  <ele>349.02</ele>
  <time>2026-09-01T19:55:33Z</time>
  <course>302.9</course>
  <speed>0.41</speed>
  <fix>3d</fix>
</trkpt>
<trkpt lat="-27.2737701" lon="151.2899055">
  <ele>349.83</ele>
  <time>2026-09-01T19:55:33Z</time>
  <course>301.71</course>
  <speed>0.31906112267087633</speed>
  <fix>3d</fix>
</trkpt>
<trkpt lat="-27.2737702" lon="151.2899059">
  <ele>349.58</ele>
  <time>2026-09-01T19:55:33Z</time>
  <course>303.04</course>
  <speed>0.35</speed>
  <fix>3d</fix>
</trkpt>
<trkpt lat="-27.27377" lon="151.2899053">
  <ele>350.09</ele>
  <time>2026-09-01T19:55:33Z</time>
  <course>301.71</course>
  <speed>0.2830194339616981</speed>
  <fix>3d</fix>
</trkpt>
<trkpt lat="-27.2737702" lon="151.2899059">
  <ele>349.58</ele>
  <time>2026-09-01T19:55:33Z</time>
  <course>303.04</course>
  <speed>0.35</speed>
  <fix>3d</fix>
</trkpt>
<trkpt lat="-27.2737698" lon="151.289905">
  <ele>350.35</ele>
  <time>2026-09-01T19:55:33Z</time>
  <course>301.71</course>
  <speed>0.24698178070456936</speed>
  <fix>3d</fix>
</trkpt>
<trkpt lat="-27.2737699" lon="151.2899053">
  <ele>350.1</ele>
  <time>2026-09-01T19:55:33Z</time>
  <course>303.23</course>
  <speed>0.28</speed>
  <fix>3d</fix>
</trkpt>
<trkpt lat="-27.2737697" lon="151.2899049">
  <ele>350.6</ele>
  <time>2026-09-01T19:55:33Z</time>
  <course>301.71</course>
  <speed>0.20248456731316586</speed>
  <fix>3d</fix>
</trkpt>
<trkpt lat="-27.2737699" lon="151.2899053">
  <ele>350.1</ele>
  <time>2026-09-01T19:55:33Z</time>
  <course>303.23</course>
  <speed>0.28</speed>
  <fix>3d</fix>
</trkpt>
<trkpt lat="-27.2737696" lon="151.2899047">
  <ele>350.84</ele>
  <time>2026-09-01T19:55:33Z</time>
  <course>301.7</course>
  <speed>0.16124515496597097</speed>
  <fix>3d</fix>
</trkpt>
<trkpt lat="-27.2737697" lon="151.2899049">
  <ele>350.6</ele>
  <time>2026-09-01T19:55:33Z</time>
  <course>303.59</course>
  <speed>0.2</speed>
  <fix>3d</fix>
</trkpt>
<trkpt lat="-27.2737696" lon="151.2899046">
  <ele>351.08</ele>
  <time>2026-09-01T19:55:33Z</time>
  <course>301.7</course>
  <speed>0.11661903789690602</speed>
  <fix>3d</fix>
</trkpt>
<trkpt lat="-27.2737697" lon="151.2899049">
  <ele>350.6</ele>
  <time>2026-09-01T19:55:33Z</time>
  <course>303.59</course>
  <speed>0.2</speed>
  <fix>3d</fix>
</trkpt>
<trkpt lat="-27.2737695" lon="151.2899045">
  <ele>351.31</ele>
  <time>2026-09-01T19:55:33Z</time>
  <course>301.7</course>
  <speed>0.08062257748298549</speed>
  <fix>3d</fix>
</trkpt>
<trkpt lat="-27.2737697" lon="151.2899049">
  <ele>350.6</ele>
  <time>2026-09-01T19:55:33Z</time>
  <course>303.59</course>
  <speed>0.2</speed>
  <fix>3d</fix>
</trkpt>
<trkpt lat="-27.2737695" lon="151.2899045">
  <ele>351.55</ele>
  <time>2026-09-01T19:55:33Z</time>
  <course>301.69</course>
  <speed>0.044721359549995794</speed>
  <fix>3d</fix>
</trkpt>
<trkpt lat="-27.2737695" lon="151.2899046">
  <ele>351.09</ele>
  <time>2026-09-01T19:55:33Z</time>
  <course>304.47</course>
  <speed>0.12</speed>
  <fix>3d</fix>
</trkpt>
<trkpt lat="-27.2737695" lon="151.2899044">
  <ele>351.79</ele>
  <time>2026-09-01T19:55:33Z</time>
  <course>301.69</course>
  <speed>0.0</speed>
  <fix>3d</fix>
</trkpt>
<trkpt lat="-27.2737695" lon="151.2899046">
  <ele>351.09</ele>
  <time>2026-09-01T19:55:33Z</time>
  <course>304.47</course>
  <speed>0.12</speed>
  <fix>3d</fix>
</trkpt>
<trkpt lat="-27.2737695" lon="151.2899045">
  <ele>352.03</ele>
  <time>2026-09-01T19:55:33Z</time>
  <course>301.69</course>
  <speed>0.022360679774997897</speed>
  <fix>3d</fix>
</trkpt>
<trkpt lat="-27.2737694" lon="151.2899045">
  <ele>351.57</ele>
  <time>2026-09-01T19:55:33Z</time>
  <course>308.5</course>
  <speed>0.03</speed>
  <fix>3d</fix>
</trkpt>
<trkpt lat="-27.2737695" lon="151.2899045">
  <ele>352.27</ele>
  <time>2026-09-01T19:55:33Z</time>
  <course>301.69</course>
  <speed>0.05</speed>
  <fix>3d</fix>
</trkpt>
<trkpt lat="-27.2737694" lon="151.2899045">
  <ele>351.57</ele>
  <time>2026-09-01T19:55:33Z</time>
  <course>308.5</course>
  <speed>0.03</speed>
  <fix>3d</fix>
</trkpt>
<trkpt lat="-27.2737695" lon="151.2899046">
  <ele>352.5</ele>
  <time>2026-09-01T19:55:33Z</time>
  <course>301.69</course>
  <speed>0.08602325267042626</speed>
  <fix>3d</fix>
</trkpt>
<trkpt lat="-27.2737694" lon="151.2899045">
  <ele>352.04</ele>
  <time>2026-09-01T19:55:33Z</time>
  <course>116.31</course>
  <speed>0.03</speed>
  <fix>3d</fix>
</trkpt>
<trkpt lat="-27.2737696" lon="151.2899047">
  <ele>352.74</ele>
  <time>2026-09-01T19:55:33Z</time>
  <course>301.69</course>
  <speed>0.10816653826391968</speed>
  <fix>3d</fix>
</trkpt>
<trkpt lat="-27.2737694" lon="151.2899045">
  <ele>352.04</ele>
  <time>2026-09-01T19:55:33Z</time>
  <course>116.31</course>
  <speed>0.03</speed>
  <fix>3d</fix>
</trkpt>
<trkpt lat="-27.2737696" lon="151.2899048">
  <ele>352.99</ele>
  <time>2026-09-01T19:55:33Z</time>
  <course>301.69</course>
  <speed>0.130384048104053</speed>
  <fix>3d</fix>
</trkpt>
<trkpt lat="-27.2737694" lon="151.2899045">
  <ele>352.52</ele>
  <time>2026-09-01T19:55:33Z</time>
  <course>120.74</course>
  <speed>0.09</speed>
  <fix>3d</fix>
</trkpt>
<trkpt lat="-27.2737696" lon="151.2899048">
  <ele>353.23</ele>
  <time>2026-09-01T19:55:33Z</time>
  <course>301.68</course>
  <speed>0.15264337522473748</speed>
  <fix>3d</fix>
</trkpt>
<trkpt lat="-27.2737695" lon="151.2899047">
  <ele>353.0</ele>
  <time>2026-09-01T19:55:33Z</time>
  <course>121.56</course>
  <speed>0.15</speed>
  <fix>3d</fix>
</trkpt>
<trkpt lat="-27.2737697" lon="151.289905">
  <ele>353.48</ele>
  <time>2026-09-01T19:55:33Z</time>
  <course>301.66</course>
  <speed>0.1664331697709324</speed>
  <fix>3d</fix>
</trkpt>
<trkpt lat="-27.2737695" lon="151.2899047">
  <ele>353.0</ele>
  <time>2026-09-01T19:55:33Z</time>
  <course>121.56</course>
  <speed>0.15</speed>
  <fix>3d</fix>
</trkpt>
<trkpt lat="-27.2737698" lon="151.2899051">
  <ele>353.72</ele>
  <time>2026-09-01T19:55:33Z</time>
  <course>301.64</course>
  <speed>0.18867962264113206</speed>
  <fix>3d</fix>
</trkpt>
<trkpt lat="-27.2737697" lon="151.289905">
  <ele>353.49</ele>
  <time>2026-09-01T19:55:33Z</time>
  <course>121.69</course>
  <speed>0.19</speed>
  <fix>3d</fix>
</trkpt>
<trkpt lat="-27.2737699" lon="151.2899053">
  <ele>353.97</ele>
  <time>2026-09-01T19:55:33Z</time>
  <course>301.62</course>
  <speed>0.1972308292331602</speed>
  <fix>3d</fix>
</trkpt>
<trkpt lat="-27.2737697" lon="151.289905">
  <ele>353.49</ele>
  <time>2026-09-01T19:55:33Z</time>
  <course>121.69</course>
  <speed>0.19</speed>
  <fix>3d</fix>
</trkpt>
<trkpt lat="-27.27377" lon="151.2899055">
  <ele>354.22</ele>
  <time>2026-09-01T19:55:33Z</time>
  <course>301.61</course>
  <speed>0.20591260281974003</speed>
  <fix>3d</fix>
</trkpt>
<trkpt lat="-27.2737699" lon="151.2899054">
  <ele>353.99</ele>
  <time>2026-09-01T19:55:33Z</time>
  <course>121.83</course>
  <speed>0.22</speed>
  <fix>3d</fix>
</trkpt>
<trkpt lat="-27.27377" lon="151.2899057">
  <ele>354.47</ele>
  <time>2026-09-01T19:55:33Z</time>
  <course>301.62</course>
  <speed>0.223606797749979</speed>
  <fix>3d</fix>
</trkpt>
<trkpt lat="-27.2737699" lon="151.2899054">
  <ele>353.99</ele>
  <time>2026-09-01T19:55:33Z</time>
  <course>121.83</course>
  <speed>0.22</speed>
  <fix>3d</fix>
</trkpt>
<trkpt lat="-27.2737701" lon="151.2899059">
  <ele>354.72</ele>
  <time>2026-09-01T19:55:33Z</time>
  <course>301.65</course>
  <speed>0.2195449840010015</speed>
  <fix>3d</fix>
</trkpt>
<trkpt lat="-27.2737701" lon="151.2899057">
  <ele>354.49</ele>
  <time>2026-09-01T19:55:33Z</time>
  <course>122.28</course>
  <speed>0.24</speed>
  <fix>3d</fix>
</trkpt>
<trkpt lat="-27.2737703" lon="151.2899061">
  <ele>354.98</ele>
  <time>2026-09-01T19:55:33Z</time>
  <course>301.65</course>
  <speed>0.23323807579381203</speed>
  <fix>3d</fix>
</trkpt>
<trkpt lat="-27.2737701" lon="151.2899057">
  <ele>354.49</ele>
  <time>2026-09-01T19:55:33Z</time>
  <course>122.28</course>
  <speed>0.24</speed>
  <fix>3d</fix>
</trkpt>
<trkpt lat="-27.2737704" lon="151.2899063">
  <ele>355.23</ele>
  <time>2026-09-01T19:55:33Z</time>
  <course>301.61</course>
  <speed>0.23021728866442676</speed>
  <fix>3d</fix>
</trkpt>
<trkpt lat="-27.2737703" lon="151.2899062">
  <ele>354.99</ele>
  <time>2026-09-01T19:55:33Z</time>
  <course>122.47</course>
  <speed>0.25</speed>
  <fix>3d</fix>
</trkpt>
<trkpt lat="-27.2737705" lon="151.2899065">
  <ele>355.48</ele>
  <time>2026-09-01T19:55:33Z</time>
  <course>301.55</course>
  <speed>0.23600847442411893</speed>
  <fix>3d</fix>
</trkpt>
<trkpt lat="-27.2737703" lon="151.2899062">
  <ele>354.99</ele>
  <time>2026-09-01T19:55:33Z</time>
  <course>122.47</course>
  <speed>0.25</speed>
  <fix>3d</fix>
</trkpt>
<trkpt lat="-27.2737706" lon="151.2899067">
  <ele>355.74</ele>
  <time>2026-09-01T19:55:33Z</time>
  <course>301.5</course>
  <speed>0.23021728866442676</speed>
  <fix>3d</fix>
</trkpt>
<trkpt lat="-27.2737706" lon="151.2899066">
  <ele>355.5</ele>
  <time>2026-09-01T19:55:33Z</time>
  <course>121.99</course>
  <speed>0.25</speed>
  <fix>3d</fix>
</trkpt>
<trkpt lat="-27.2737708" lon="151.2899069">
  <ele>355.99</ele>
  <time>2026-09-01T19:55:33Z</time>
  <course>301.44</course>
  <speed>0.23853720883753127</speed>
  <fix>3d</fix>
</trkpt>
<trkpt lat="-27.2737706" lon="151.2899066">
  <ele>355.5</ele>
  <time>2026-09-01T19:55:33Z</time>
  <course>121.99</course>
  <speed>0.25</speed>
  <fix>3d</fix>
</trkpt>
<trkpt lat="-27.2737709" lon="151.2899071">
  <ele>356.25</ele>
  <time>2026-09-01T19:55:33Z</time>
  <course>301.42</course>
  <speed>0.23021728866442676</speed>
  <fix>3d</fix>
</trkpt>
<trkpt lat="-27.2737708" lon="151.2899071">
  <ele>356.01</ele>
  <time>2026-09-01T19:55:33Z</time>
  <course>121.37</course>
  <speed>0.26</speed>
  <fix>3d</fix>
</trkpt>
<trkpt lat="-27.273771" lon="151.2899073">
  <ele>356.5</ele>
  <time>2026-09-01T19:55:33Z</time>
  <course>301.44</course>
  <speed>0.24041630560342614</speed>
  <fix>3d</fix>
</trkpt>
<trkpt lat="-27.2737708" lon="151.2899071">
  <ele>356.01</ele>
  <time>2026-09-01T19:55:33Z</time>
  <course>121.37</course>
  <speed>0.26</speed>
  <fix>3d</fix>
</trkpt>
<trkpt lat="-27.2737712" lon="151.2899075">
  <ele>356.75</ele>
  <time>2026-09-01T19:55:33Z</time>
  <course>301.47</course>
  <speed>0.23345235059857505</speed>
  <fix>3d</fix>
</trkpt>
<trkpt lat="-27.273771" lon="151.2899075">
  <ele>356.52</ele>
  <time>2026-09-01T19:55:33Z</time>
  <course>120.85</course>
  <speed>0.25</speed>
  <fix>3d</fix>
</trkpt>
<trkpt lat="-27.2737713" lon="151.2899077">
  <ele>357.0</ele>
  <time>2026-09-01T19:55:33Z</time>
  <course>301.49</course>
  <speed>0.23021728866442676</speed>
  <fix>3d</fix>
</trkpt>
<trkpt lat="-27.273771" lon="151.2899075">
  <ele>356.52</ele>
  <time>2026-09-01T19:55:33Z</time>
  <course>120.85</course>
  <speed>0.25</speed>
  <fix>3d</fix>
</trkpt>
<trkpt lat="-27.2737714" lon="151.2899079">
  <ele>357.25</ele>
  <time>2026-09-01T19:55:33Z</time>
  <course>301.56</course>
  <speed>0.2220360331117452</speed>
  <fix>3d</fix>
</trkpt>
<trkpt lat="-27.2737713" lon="151.2899079">
  <ele>357.03</ele>
  <time>2026-09-01T19:55:33Z</time>
  <course>120.5</course>
  <speed>0.25</speed>
  <fix>3d</fix>
</trkpt>
<trkpt lat="-27.2737715" lon="151.2899081">
  <ele>357.51</ele>
  <time>2026-09-01T19:55:33Z</time>
  <course>301.69</course>
  <speed>0.2220360331117452</speed>
  <fix>3d</fix>
</trkpt>
<trkpt lat="-27.2737713" lon="151.2899079">
  <ele>357.03</ele>
  <time>2026-09-01T19:55:33Z</time>
  <course>120.5</course>
  <speed>0.25</speed>
  <fix>3d</fix>
</trkpt>
<trkpt lat="-27.2737716" lon="151.2899083">
  <ele>357.76</ele>
  <time>2026-09-01T19:55:33Z</time>
  <course>301.8</course>
  <speed>0.22022715545545238</speed>
  <fix>3d</fix>
</trkpt>
<trkpt lat="-27.2737715" lon="151.2899084">
  <ele>357.53</ele>
  <time>2026-09-01T19:55:33Z</time>
  <course>120.89</course>
  <speed>0.24</speed>
  <fix>3d</fix>
</trkpt>
<trkpt lat="-27.2737718" lon="151.2899085">
  <ele>358.01</ele>
  <time>2026-09-01T19:55:33Z</time>
  <course>301.85</course>
  <speed>0.22671568097509268</speed>
  <fix>3d</fix>
</trkpt>
<trkpt lat="-27.2737715" lon="151.2899084">
  <ele>357.53</ele>
  <time>2026-09-01T19:55:33Z</time>
  <course>120.89</course>
  <speed>0.24</speed>
  <fix>3d</fix>
</trkpt>
<trkpt lat="-27.2737719" lon="151.2899087">
  <ele>358.27</ele>
  <time>2026-09-01T19:55:33Z</time>
  <course>301.82</course>
  <speed>0.2193171219946131</speed>
  <fix>3d</fix>
</trkpt>
<trkpt lat="-27.2737717" lon="151.2899088">
  <ele>358.04</ele>
  <time>2026-09-01T19:55:33Z</time>
  <course>120.71</course>
  <speed>0.24</speed>
  <fix>3d</fix>
</trkpt>
<trkpt lat="-27.273772" lon="151.2899089">
  <ele>358.51</ele>
  <time>2026-09-01T19:55:33Z</time>
  <course>301.76</course>
  <speed>0.212602916254693</speed>
  <fix>3d</fix>
</trkpt>
<trkpt lat="-27.2737717" lon="151.2899088">
  <ele>358.04</ele>
  <time>2026-09-01T19:55:33Z</time>
  <course>120.71</course>
  <speed>0.24</speed>
  <fix>3d</fix>
</trkpt>
<trkpt lat="-27.2737721" lon="151.2899091">
  <ele>358.76</ele>
  <time>2026-09-01T19:55:33Z</time>
  <course>301.75</course>
  <speed>0.19849433241279207</speed>
  <fix>3d</fix>
</trkpt>
<trkpt lat="-27.273772" lon="151.2899092">
  <ele>358.54</ele>
  <time>2026-09-01T19:55:33Z</time>
  <course>119.56</course>
  <speed>0.23</speed>
  <fix>3d</fix>
</trkpt>
<trkpt lat="-27.2737722" lon="151.2899093">
  <ele>359.01</ele>
  <time>2026-09-01T19:55:33Z</time>
  <course>301.81</course>
  <speed>0.19849433241279207</speed>
  <fix>3d</fix>
</trkpt>
<trkpt lat="-27.273772" lon="151.2899092">
  <ele>358.54</ele>
  <time>2026-09-01T19:55:33Z</time>
  <course>119.56</course>
  <speed>0.23</speed>
  <fix>3d</fix>
</trkpt>
<trkpt lat="-27.2737723" lon="151.2899095">
  <ele>359.26</ele>
  <time>2026-09-01T19:55:33Z</time>
  <course>301.9</course>
  <speed>0.191049731745428</speed>
  <fix>3d</fix>
</trkpt>
<trkpt lat="-27.2737721" lon="151.2899097">
  <ele>359.05</ele>
  <time>2026-09-01T19:55:33Z</time>
  <course>119.3</course>
  <speed>0.22</speed>
  <fix>3d</fix>
</trkpt>
<trkpt lat="-27.2737724" lon="151.2899097">
  <ele>359.51</ele>
  <time>2026-09-01T19:55:33Z</time>
  <course>301.99</course>
  <speed>0.191049731745428</speed>
  <fix>3d</fix>
</trkpt>
<trkpt lat="-27.2737721" lon="151.2899097">
  <ele>359.05</ele>
  <time>2026-09-01T19:55:33Z</time>
  <course>119.3</course>
  <speed>0.22</speed>
  <fix>3d</fix>
</trkpt>
<trkpt lat="-27.2737725" lon="151.2899098">
  <ele>359.77</ele>
  <time>2026-09-01T19:55:33Z</time>
  <course>302.05</course>
  <speed>0.18439088914585774</speed>
  <fix>3d</fix>
</trkpt>
<trkpt lat="-27.2737724" lon="151.28991">
  <ele>359.55</ele>
  <time>2026-09-01T19:55:33Z</time>
  <course>119.37</course>
  <speed>0.21</speed>
  <fix>3d</fix>
</trkpt>
<trkpt lat="-27.2737726" lon="151.28991">
  <ele>360.02</ele>
  <time>2026-09-01T19:55:33Z</time>
  <course>302.08</course>
  <speed>0.1769180601295413</speed>
  <fix>3d</fix>
</trkpt>
<trkpt lat="-27.2737724" lon="151.28991">
  <ele>359.55</ele>
  <time>2026-09-01T19:55:33Z</time>
  <course>119.37</course>
  <speed>0.21</speed>
  <fix>3d</fix>
</trkpt>
<trkpt lat="-27.2737727" lon="151.2899102">
  <ele>360.27</ele>
  <time>2026-09-01T19:55:33Z</time>
  <course>302.08</course>
  <speed>0.1697056274847714</speed>
  <fix>3d</fix>
</trkpt>
<trkpt lat="-27.2737726" lon="151.2899104">
  <ele>360.06</ele>
  <time>2026-09-01T19:55:33Z</time>
  <course>119.0</course>
  <speed>0.2</speed>
  <fix>3d</fix>
</trkpt>
<trkpt lat="-27.2737728" lon="151.2899104">
  <ele>360.53</ele>
  <time>2026-09-01T19:55:33Z</time>
  <course>302.09</course>
  <speed>0.17029386365926402</speed>
  <fix>3d</fix>
</trkpt>
<trkpt lat="-27.2737726" lon="151.2899104">
  <ele>360.06</ele>
  <time>2026-09-01T19:55:33Z</time>
  <course>119.0</course>
  <speed>0.2</speed>
  <fix>3d</fix>
</trkpt>
<trkpt lat="-27.2737729" lon="151.2899105">
  <ele>360.78</ele>
  <time>2026-09-01T19:55:33Z</time>
  <course>302.08</course>
  <speed>0.16278820596099705</speed>
  <fix>3d</fix>
</trkpt>
<trkpt lat="-27.2737727" lon="151.2899107">
  <ele>360.56</ele>
  <time>2026-09-01T19:55:33Z</time>
  <course>119.05</course>
  <speed>0.19</speed>
  <fix>3d</fix>
</trkpt>
<trkpt lat="-27.273773" lon="151.2899107">
  <ele>361.03</ele>
  <time>2026-09-01T19:55:33Z</time>
  <course>302.07</course>
  <speed>0.15620499351813308</speed>
  <fix>3d</fix>
</trkpt>
<trkpt lat="-27.2737727" lon="151.2899107">
  <ele>360.56</ele>
  <time>2026-09-01T19:55:33Z</time>
  <course>119.05</course>
  <speed>0.19</speed>
  <fix>3d</fix>
</trkpt>
<trkpt lat="-27.273773" lon="151.2899108">
  <ele>361.29</ele>
  <time>2026-09-01T19:55:33Z</time>
  <course>302.05</course>
  <speed>0.14212670403551894</speed>
  <fix>3d</fix>
</trkpt>
<trkpt lat="-27.2737729" lon="151.2899111">
  <ele>361.06</ele>
  <time>2026-09-01T19:55:33Z</time>
  <course>119.25</course>
  <speed>0.17</speed>
  <fix>3d</fix>
</trkpt>
<trkpt lat="-27.2737731" lon="151.289911">
  <ele>361.54</ele>
  <time>2026-09-01T19:55:33Z</time>
  <course>302.04</course>
  <speed>0.14212670403551894</speed>
  <fix>3d</fix>
</trkpt>
<trkpt lat="-27.2737729" lon="151.2899111">
  <ele>361.06</ele>
  <time>2026-09-01T19:55:33Z</time>
  <course>119.25</course>
  <speed>0.17</speed>
  <fix>3d</fix>
</trkpt>
<trkpt lat="-27.2737732" lon="151.2899112">
  <ele>361.79</ele>
  <time>2026-09-01T19:55:33Z</time>
  <course>302.01</course>
  <speed>0.13601470508735444</speed>
  <fix>3d</fix>
</trkpt>
<trkpt lat="-27.273773" lon="151.2899114">
  <ele>361.56</ele>
  <time>2026-09-01T19:55:33Z</time>
  <course>119.06</course>
  <speed>0.16</speed>
  <fix>3d</fix>
</trkpt>
<trkpt lat="-27.2737732" lon="151.2899113">
  <ele>362.04</ele>
  <time>2026-09-01T19:55:33Z</time>
  <course>302.01</course>
  <speed>0.12206555615733702</speed>
  <fix>3d</fix>
</trkpt>
<trkpt lat="-27.273773" lon="151.2899114">
  <ele>361.56</ele>
  <time>2026-09-01T19:55:33Z</time>
  <course>119.06</course>
  <speed>0.16</speed>
  <fix>3d</fix>
</trkpt>
<trkpt lat="-27.2737733" lon="151.2899114">
  <ele>362.29</ele>
  <time>2026-09-01T19:55:33Z</time>
  <course>301.99</course>
  <speed>0.12529964086141668</speed>
  <fix>3d</fix>
</trkpt>
<trkpt lat="-27.2737732" lon="151.2899117">
  <ele>362.06</ele>
  <time>2026-09-01T19:55:33Z</time>
  <course>119.33</course>
  <speed>0.15</speed>
  <fix>3d</fix>
</trkpt>
<trkpt lat="-27.2737733" lon="151.2899116">
  <ele>362.55</ele>
  <time>2026-09-01T19:55:33Z</time>
  <course>301.97</course>
  <speed>0.11401754250991379</speed>
  <fix>3d</fix>
</trkpt>
<trkpt lat="-27.2737732" lon="151.2899117">
  <ele>362.06</ele>
  <time>2026-09-01T19:55:33Z</time>
  <course>119.33</course>
  <speed>0.15</speed>
  <fix>3d</fix>
</trkpt>
<trkpt lat="-27.2737734" lon="151.2899117">
  <ele>362.8</ele>
  <time>2026-09-01T19:55:33Z</time>
  <course>301.93</course>
  <speed>0.11401754250991379</speed>
  <fix>3d</fix>
</trkpt>
<trkpt lat="-27.2737733" lon="151.2899119">
  <ele>362.56</ele>
  <time>2026-09-01T19:55:33Z</time>
  <course>119.76</course>
  <speed>0.14</speed>
  <fix>3d</fix>
</trkpt>
<trkpt lat="-27.2737734" lon="151.2899118">
  <ele>363.05</ele>
  <time>2026-09-01T19:55:33Z</time>
  <course>301.86</course>
  <speed>0.1</speed>
  <fix>3d</fix>
</trkpt>
<trkpt lat="-27.2737733" lon="151.2899119">
  <ele>362.56</ele>
  <time>2026-09-01T19:55:33Z</time>
  <course>119.76</course>
  <speed>0.14</speed>
  <fix>3d</fix>
</trkpt>
<trkpt lat="-27.2737735" lon="151.289912">
  <ele>363.31</ele>
  <time>2026-09-01T19:55:33Z</time>
  <course>301.81</course>
  <speed>0.1</speed>
  <fix>3d</fix>
</trkpt>
<trkpt lat="-27.2737734" lon="151.2899122">
  <ele>363.06</ele>
  <time>2026-09-01T19:55:33Z</time>
  <course>119.35</course>
  <speed>0.12</speed>
  <fix>3d</fix>
</trkpt>
<trkpt lat="-27.2737735" lon="151.2899121">
  <ele>363.56</ele>
  <time>2026-09-01T19:55:33Z</time>
  <course>301.78</course>
  <speed>0.08602325267042626</speed>
  <fix>3d</fix>
</trkpt>
<trkpt lat="-27.2737734" lon="151.2899122">
  <ele>363.06</ele>
  <time>2026-09-01T19:55:33Z</time>
  <course>119.35</course>
  <speed>0.12</speed>
  <fix>3d</fix>
</trkpt>
<trkpt lat="-27.2737736" lon="151.2899122">
  <ele>363.81</ele>
  <time>2026-09-01T19:55:33Z</time>
  <course>301.76</course>
  <speed>0.08602325267042626</speed>
  <fix>3d</fix>
</trkpt>
<trkpt lat="-27.2737735" lon="151.2899124">
  <ele>363.55</ele>
  <time>2026-09-01T19:55:33Z</time>
  <course>119.08</course>
  <speed>0.11</speed>
  <fix>3d</fix>
</trkpt>
<trkpt lat="-27.2737736" lon="151.2899123">
  <ele>364.06</ele>
  <time>2026-09-01T19:55:33Z</time>
  <course>301.76</course>
  <speed>0.08062257748298549</speed>
  <fix>3d</fix>
</trkpt>
<trkpt lat="-27.2737735" lon="151.2899124">
  <ele>363.55</ele>
  <time>2026-09-01T19:55:33Z</time>
  <course>119.08</course>
  <speed>0.11</speed>
  <fix>3d</fix>
</trkpt>
<trkpt lat="-27.2737736" lon="151.2899124">
  <ele>364.31</ele>
  <time>2026-09-01T19:55:33Z</time>
  <course>301.75</course>
  <speed>0.07211102550927978</speed>
  <fix>3d</fix>
</trkpt>
<trkpt lat="-27.2737736" lon="151.2899125">
  <ele>364.05</ele>
  <time>2026-09-01T19:55:33Z</time>
  <course>119.16</course>
  <speed>0.1</speed>
  <fix>3d</fix>
</trkpt>
<trkpt lat="-27.2737737" lon="151.2899125">
  <ele>364.55</ele>
  <time>2026-09-01T19:55:33Z</time>
  <course>301.73</course>
  <speed>0.07211102550927978</speed>
  <fix>3d</fix>
</trkpt>
<trkpt lat="-27.2737736" lon="151.2899125">
  <ele>364.05</ele>
  <time>2026-09-01T19:55:33Z</time>
  <course>119.16</course>
  <speed>0.1</speed>
  <fix>3d</fix>
</trkpt>
<trkpt lat="-27.2737737" lon="151.2899125">
  <ele>364.8</ele>
  <time>2026-09-01T19:55:33Z</time>
  <course>301.71</course>
  <speed>0.05830951894845301</speed>
  <fix>3d</fix>
</trkpt>
<trkpt lat="-27.2737737" lon="151.2899128">
  <ele>364.54</ele>
  <time>2026-09-01T19:55:33Z</time>
  <course>119.28</course>
  <speed>0.09</speed>
  <fix>3d</fix>
</trkpt>
<trkpt lat="-27.2737737" lon="151.2899126">
  <ele>365.05</ele>
  <time>2026-09-01T19:55:33Z</time>
  <course>301.7</course>
  <speed>0.05830951894845301</speed>
  <fix>3d</fix>
</trkpt>
<trkpt lat="-27.2737737" lon="151.2899128">
  <ele>364.54</ele>
  <time>2026-09-01T19:55:33Z</time>
  <course>119.28</course>
  <speed>0.09</speed>
  <fix>3d</fix>
</trkpt>
<trkpt lat="-27.2737738" lon="151.2899127">
  <ele>365.3</ele>
  <time>2026-09-01T19:55:33Z</time>
  <course>301.69</course>
  <speed>0.05</speed>
  <fix>3d</fix>
</trkpt>
<trkpt lat="-27.2737738" lon="151.2899129">
  <ele>365.04</ele>
  <time>2026-09-01T19:55:33Z</time>
  <course>119.78</course>
  <speed>0.08</speed>
  <fix>3d</fix>
</trkpt>
<trkpt lat="-27.2737738" lon="151.2899128">
  <ele>365.54</ele>
  <time>2026-09-01T19:55:33Z</time>
  <course>301.67</course>
  <speed>0.044721359549995794</speed>
  <fix>3d</fix>
</trkpt>
<trkpt lat="-27.2737738" lon="151.2899129">
  <ele>365.04</ele>
  <time>2026-09-01T19:55:33Z</time>
  <course>119.78</course>
  <speed>0.08</speed>
  <fix>3d</fix>
</trkpt>
<trkpt lat="-27.2737738" lon="151.2899128">
  <ele>365.79</ele>
  <time>2026-09-01T19:55:33Z</time>
  <course>301.65</course>
  <speed>0.044721359549995794</speed>
  <fix>3d</fix>
</trkpt>
<trkpt lat="-27.2737738" lon="151.289913">
  <ele>365.53</ele>
  <time>2026-09-01T19:55:33Z</time>
  <course>120.15</course>
  <speed>0.07</speed>
  <fix>3d</fix>
</trkpt>
<trkpt lat="-27.2737738" lon="151.2899129">
  <ele>366.04</ele>
  <time>2026-09-01T19:55:33Z</time>
  <course>301.65</course>
  <speed>0.03605551275463989</speed>
  <fix>3d</fix>
</trkpt>
<trkpt lat="-27.2737738" lon="151.289913">
  <ele>365.53</ele>
  <time>2026-09-01T19:55:33Z</time>
  <course>120.15</course>
  <speed>0.07</speed>
  <fix>3d</fix>
</trkpt>
<trkpt lat="-27.2737738" lon="151.289913">
  <ele>366.29</ele>
  <time>2026-09-01T19:55:33Z</time>
  <course>301.65</course>
  <speed>0.0316227766016838</speed>
  <fix>3d</fix>
</trkpt>
<trkpt lat="-27.2737739" lon="151.2899132">
  <ele>366.02</ele>
  <time>2026-09-01T19:55:33Z</time>
  <course>120.85</course>
  <speed>0.05</speed>
  <fix>3d</fix>
</trkpt>
<trkpt lat="-27.2737739" lon="151.289913">
  <ele>366.54</ele>
  <time>2026-09-01T19:55:33Z</time>
  <course>301.65</course>
  <speed>0.022360679774997897</speed>
  <fix>3d</fix>
</trkpt>
<trkpt lat="-27.2737739" lon="151.2899132">
  <ele>366.02</ele>
  <time>2026-09-01T19:55:33Z</time>
  <course>120.85</course>
  <speed>0.05</speed>
  <fix>3d</fix>
</trkpt>
<trkpt lat="-27.2737739" lon="151.2899131">
  <ele>366.78</ele>
  <time>2026-09-01T19:55:33Z</time>
  <course>301.64</course>
  <speed>0.022360679774997897</speed>
  <fix>3d</fix>
</trkpt>
<trkpt lat="-27.273774" lon="151.2899133">
  <ele>366.52</ele>
  <time>2026-09-01T19:55:33Z</time>
  <course>123.1</course>
  <speed>0.04</speed>
  <fix>3d</fix>
</trkpt>
<trkpt lat="-27.2737739" lon="151.2899131">
  <ele>367.03</ele>
  <time>2026-09-01T19:55:33Z</time>
  <course>301.61</course>
  <speed>0.01414213562373095</speed>
  <fix>3d</fix>
</trkpt>
<trkpt lat="-27.273774" lon="151.2899133">
  <ele>366.52</ele>
  <time>2026-09-01T19:55:33Z</time>
  <course>123.1</course>
  <speed>0.04</speed>
  <fix>3d</fix>
</trkpt>
<trkpt lat="-27.2737739" lon="151.2899131">
  <ele>367.28</ele>
  <time>2026-09-01T19:55:33Z</time>
  <course>301.58</course>
  <speed>0.01</speed>
  <fix>3d</fix>
</trkpt>
<trkpt lat="-27.273774" lon="151.2899133">
  <ele>367.02</ele>
  <time>2026-09-01T19:55:33Z</time>
  <course>125.88</course>
  <speed>0.03</speed>
  <fix>3d</fix>
</trkpt>
<trkpt lat="-27.2737739" lon="151.2899132">
  <ele>367.53</ele>
  <time>2026-09-01T19:55:33Z</time>
  <course>301.56</course>
  <speed>0.01</speed>
  <fix>3d</fix>
</trkpt>
<trkpt lat="-27.273774" lon="151.2899133">
  <ele>367.02</ele>
  <time>2026-09-01T19:55:33Z</time>
  <course>125.88</course>
  <speed>0.03</speed>
  <fix>3d</fix>
</trkpt>
<trkpt lat="-27.2737739" lon="151.2899132">
  <ele>367.78</ele>
  <time>2026-09-01T19:55:33Z</time>
  <course>301.54</course>
  <speed>0.0</speed>
  <fix>3d</fix>
</trkpt>
<trkpt lat="-27.2737741" lon="151.2899134">
  <ele>367.51</ele>
  <time>2026-09-01T19:55:33Z</time>
  <course>128.96</course>
  <speed>0.02</speed>
  <fix>3d</fix>
</trkpt>
<trkpt lat="-27.2737739" lon="151.2899132">
  <ele>368.03</ele>
  <time>2026-09-01T19:55:33Z</time>
  <course>301.53</course>
  <speed>0.0</speed>
  <fix>3d</fix>
</trkpt>
<trkpt lat="-27.2737741" lon="151.2899134">
  <ele>367.51</ele>
  <time>2026-09-01T19:55:33Z</time>
  <course>128.96</course>
  <speed>0.02</speed>
  <fix>3d</fix>
</trkpt>
<trkpt lat="-27.273774" lon="151.2899132">
  <ele>368.28</ele>
  <time>2026-09-01T19:55:33Z</time>
  <course>301.52</course>
  <speed>0.0</speed>
  <fix>3d</fix>
</trkpt>
<trkpt lat="-27.2737741" lon="151.2899134">
  <ele>368.01</ele>
  <time>2026-09-01T19:55:33Z</time>
  <course>133.34</course>
  <speed>0.01</speed>
  <fix>3d</fix>
</trkpt>
<trkpt lat="-27.273774" lon="151.2899132">
  <ele>368.52</ele>
  <time>2026-09-01T19:55:33Z</time>
  <course>301.51</course>
  <speed>0.0</speed>
  <fix>3d</fix>
</trkpt>
<trkpt lat="-27.2737741" lon="151.2899134">
  <ele>368.01</ele>
  <time>2026-09-01T19:55:33Z</time>
  <course>133.34</course>
  <speed>0.01</speed>
  <fix>3d</fix>
</trkpt>
<trkpt lat="-27.273774" lon="151.2899132">
  <ele>368.77</ele>
  <time>2026-09-01T19:55:33Z</time>
  <course>301.51</course>
  <speed>0.0</speed>
  <fix>3d</fix>
</trkpt>
<trkpt lat="-27.2737741" lon="151.2899134">
  <ele>368.51</ele>
  <time>2026-09-01T19:55:33Z</time>
  <course>146.64</course>
  <speed>0.0</speed>
  <fix>3d</fix>
</trkpt>
<trkpt lat="-27.273774" lon="151.2899133">
  <ele>369.02</ele>
  <time>2026-09-01T19:55:33Z</time>
  <course>301.5</course>
  <speed>0.01</speed>
  <fix>3d</fix>
</trkpt>
<trkpt lat="-27.2737741" lon="151.2899134">
  <ele>368.51</ele>
  <time>2026-09-01T19:55:33Z</time>
  <course>146.64</course>
  <speed>0.0</speed>
  <fix>3d</fix>
</trkpt>
<trkpt lat="-27.273774" lon="151.2899132">
  <ele>369.27</ele>
  <time>2026-09-01T19:55:33Z</time>
  <course>301.5</course>
  <speed>0.01414213562373095</speed>
  <fix>3d</fix>
</trkpt>
<trkpt lat="-27.2737741" lon="151.2899134">
  <ele>369.01</ele>
  <time>2026-09-01T19:55:33Z</time>
  <course>221.97</course>
  <speed>0.0</speed>
  <fix>3d</fix>
</trkpt>
<trkpt lat="-27.273774" lon="151.2899132">
  <ele>369.52</ele>
  <time>2026-09-01T19:55:33Z</time>
  <course>301.5</course>
  <speed>0.022360679774997897</speed>
  <fix>3d</fix>
</trkpt>
<trkpt lat="-27.2737741" lon="151.2899134">
  <ele>369.01</ele>
  <time>2026-09-01T19:55:33Z</time>
  <course>221.97</course>
  <speed>0.0</speed>
  <fix>3d</fix>
</trkpt>
<trkpt lat="-27.273774" lon="151.2899132">
  <ele>369.77</ele>
  <time>2026-09-01T19:55:33Z</time>
  <course>301.5</course>
  <speed>0.022360679774997897</speed>
  <fix>3d</fix>
</trkpt>
<trkpt lat="-27.2737741" lon="151.2899134">
  <ele>369.51</ele>
  <time>2026-09-01T19:55:33Z</time>
  <course>267.68</course>
  <speed>0.01</speed>
  <fix>3d</fix>
</trkpt>
<trkpt lat="-27.273774" lon="151.2899132">
  <ele>370.01</ele>
  <time>2026-09-01T19:55:33Z</time>
  <course>301.49</course>
  <speed>0.022360679774997897</speed>
  <fix>3d</fix>
</trkpt>
<trkpt lat="-27.2737741" lon="151.2899134">
  <ele>369.51</ele>
  <time>2026-09-01T19:55:33Z</time>
  <course>267.68</course>
  <speed>0.01</speed>
  <fix>3d</fix>
</trkpt>
<trkpt lat="-27.273774" lon="151.2899132">
  <ele>370.26</ele>
  <time>2026-09-01T19:55:33Z</time>
  <course>301.49</course>
  <speed>0.0316227766016838</speed>
  <fix>3d</fix>
</trkpt>
<trkpt lat="-27.2737741" lon="151.2899134">
  <ele>370.01</ele>
  <time>2026-09-01T19:55:33Z</time>
  <course>278.02</course>
  <speed>0.01</speed>
  <fix>3d</fix>
</trkpt>
<trkpt lat="-27.273774" lon="151.2899132">
  <ele>370.51</ele>
  <time>2026-09-01T19:55:33Z</time>
  <course>301.49</course>
  <speed>0.0316227766016838</speed>
  <fix>3d</fix>
</trkpt>
<trkpt lat="-27.2737741" lon="151.2899134">
  <ele>370.01</ele>
  <time>2026-09-01T19:55:33Z</time>
  <course>278.02</course>
  <speed>0.01</speed>
  <fix>3d</fix>
</trkpt>
<trkpt lat="-27.273774" lon="151.2899132">
  <ele>370.77</ele>
  <time>2026-09-01T19:55:33Z</time>
  <course>301.48</course>
  <speed>0.0316227766016838</speed>
  <fix>3d</fix>
</trkpt>
<trkpt lat="-27.2737741" lon="151.2899134">
  <ele>370.51</ele>
  <time>2026-09-01T19:55:33Z</time>
  <course>282.4</course>
  <speed>0.02</speed>
  <fix>3d</fix>
</trkpt>
<trkpt lat="-27.273774" lon="151.2899132">
  <ele>371.02</ele>
  <time>2026-09-01T19:55:33Z</time>
  <course>301.48</course>
  <speed>0.0316227766016838</speed>
  <fix>3d</fix>
</trkpt>
<trkpt lat="-27.2737741" lon="151.2899134">
  <ele>370.51</ele>
  <time>2026-09-01T19:55:33Z</time>
  <course>282.4</course>
  <speed>0.02</speed>
  <fix>3d</fix>
</trkpt>
<trkpt lat="-27.273774" lon="151.2899132">
  <ele>371.27</ele>
  <time>2026-09-01T19:55:33Z</time>
  <course>301.48</course>
  <speed>0.0316227766016838</speed>
  <fix>3d</fix>
</trkpt>
<trkpt lat="-27.2737741" lon="151.2899134">
  <ele>371.01</ele>
  <time>2026-09-01T19:55:33Z</time>
  <course>284.14</course>
  <speed>0.02</speed>
  <fix>3d</fix>
</trkpt>
<trkpt lat="-27.273774" lon="151.2899132">
  <ele>371.52</ele>
  <time>2026-09-01T19:55:33Z</time>
  <course>301.48</course>
  <speed>0.0412310562561766</speed>
  <fix>3d</fix>
</trkpt>
<trkpt lat="-27.2737741" lon="151.2899134">
  <ele>371.01</ele>
  <time>2026-09-01T19:55:33Z</time>
  <course>284.14</course>
  <speed>0.02</speed>
  <fix>3d</fix>
</trkpt>
<trkpt lat="-27.273774" lon="151.2899132">
  <ele>371.77</ele>
  <time>2026-09-01T19:55:33Z</time>
  <course>301.48</course>
  <speed>0.0412310562561766</speed>
  <fix>3d</fix>
</trkpt>
<trkpt lat="-27.2737741" lon="151.2899133">
  <ele>371.51</ele>
  <time>2026-09-01T19:55:33Z</time>
  <course>284.99</course>
  <speed>0.03</speed>
  <fix>3d</fix>
</trkpt>
<trkpt lat="-27.273774" lon="151.2899131">
  <ele>372.02</ele>
  <time>2026-09-01T19:55:33Z</time>
  <course>301.48</course>
  <speed>0.044721359549995794</speed>
  <fix>3d</fix>
</trkpt>
<trkpt lat="-27.2737741" lon="151.2899133">
  <ele>371.51</ele>
  <time>2026-09-01T19:55:33Z</time>
  <course>284.99</course>
  <speed>0.03</speed>
  <fix>3d</fix>
</trkpt>
<trkpt lat="-27.273774" lon="151.2899131">
  <ele>372.27</ele>
  <time>2026-09-01T19:55:33Z</time>
  <course>301.48</course>
  <speed>0.044721359549995794</speed>
  <fix>3d</fix>
</trkpt>
<trkpt lat="-27.2737741" lon="151.2899133">
  <ele>372.02</ele>
  <time>2026-09-01T19:55:33Z</time>
  <course>286.18</course>
  <speed>0.03</speed>
  <fix>3d</fix>
</trkpt>
<trkpt lat="-27.273774" lon="151.2899131">
  <ele>372.52</ele>
  <time>2026-09-01T19:55:33Z</time>
  <course>301.48</course>
  <speed>0.044721359549995794</speed>
  <fix>3d</fix>
</trkpt>
<trkpt lat="-27.2737741" lon="151.2899133">
  <ele>372.02</ele>
  <time>2026-09-01T19:55:33Z</time>
  <course>286.18</course>
  <speed>0.03</speed>
  <fix>3d</fix>
</trkpt>
<trkpt lat="-27.273774" lon="151.289913">
  <ele>372.77</ele>
  <time>2026-09-01T19:55:33Z</time>
  <course>301.48</course>
  <speed>0.044721359549995794</speed>
  <fix>3d</fix>
</trkpt>
<trkpt lat="-27.2737741" lon="151.2899132">
  <ele>372.52</ele>
  <time>2026-09-01T19:55:33Z</time>
  <course>287.37</course>
  <speed>0.03</speed>
  <fix>3d</fix>
</trkpt>
<trkpt lat="-27.273774" lon="151.289913">
  <ele>373.02</ele>
  <time>2026-09-01T19:55:33Z</time>
  <course>301.49</course>
  <speed>0.044721359549995794</speed>
  <fix>3d</fix>
</trkpt>
<trkpt lat="-27.2737741" lon="151.2899132">
  <ele>372.52</ele>
  <time>2026-09-01T19:55:33Z</time>
  <course>287.37</course>
  <speed>0.03</speed>
  <fix>3d</fix>
</trkpt>
<trkpt lat="-27.273774" lon="151.289913">
  <ele>373.27</ele>
  <time>2026-09-01T19:55:33Z</time>
  <course>301.5</course>
  <speed>0.044721359549995794</speed>
  <fix>3d</fix>
</trkpt>
<trkpt lat="-27.2737741" lon="151.2899131">
  <ele>373.02</ele>
  <time>2026-09-01T19:55:33Z</time>
  <course>288.37</course>
  <speed>0.04</speed>
  <fix>3d</fix>
</trkpt>
<trkpt lat="-27.273774" lon="151.2899129">
  <ele>373.52</ele>
  <time>2026-09-01T19:55:33Z</time>
  <course>301.49</course>
  <speed>0.07615773105863909</speed>
  <fix>3d</fix>
</trkpt>
<trkpt lat="-27.2737741" lon="151.2899131">
  <ele>373.02</ele>
  <time>2026-09-01T19:55:33Z</time>
  <course>288.37</course>
  <speed>0.04</speed>
  <fix>3d</fix>
</trkpt>
<trkpt lat="-27.2737739" lon="151.2899128">
  <ele>373.76</ele>
  <time>2026-09-01T19:55:33Z</time>
  <course>301.47</course>
  <speed>0.147648230602334</speed>
  <fix>3d</fix>
</trkpt>
<trkpt lat="-27.2737741" lon="151.289913">
  <ele>373.52</ele>
  <time>2026-09-01T19:55:33Z</time>
  <course>295.3</course>
  <speed>0.09</speed>
  <fix>3d</fix>
</trkpt>
<trkpt lat="-27.2737739" lon="151.2899127">
  <ele>374.01</ele>
  <time>2026-09-01T19:55:33Z</time>
  <course>301.44</course>
  <speed>0.28653097563788804</speed>
  <fix>3d</fix>
</trkpt>
<trkpt lat="-27.2737741" lon="151.289913">
  <ele>373.52</ele>
  <time>2026-09-01T19:55:33Z</time>
  <course>295.3</course>
  <speed>0.09</speed>
  <fix>3d</fix>
</trkpt>
<trkpt lat="-27.2737737" lon="151.2899123">
  <ele>374.25</ele>
  <time>2026-09-01T19:55:33Z</time>
  <course>301.42</course>
  <speed>0.48373546489791297</speed>
  <fix>3d</fix>
</trkpt>
<trkpt lat="-27.2737739" lon="151.2899127">
  <ele>374.01</ele>
  <time>2026-09-01T19:55:33Z</time>
  <course>299.08</course>
  <speed>0.29</speed>
  <fix>3d</fix>
</trkpt>
<trkpt lat="-27.2737734" lon="151.2899118">
  <ele>374.48</ele>
  <time>2026-09-01T19:55:33Z</time>
  <course>301.41</course>
  <speed>0.7306161783043131</speed>
  <fix>3d</fix>
</trkpt>
<trkpt lat="-27.2737739" lon="151.2899127">
  <ele>374.01</ele>
  <time>2026-09-01T19:55:33Z</time>
  <course>299.08</course>
  <speed>0.29</speed>
  <fix>3d</fix>
</trkpt>
<trkpt lat="-27.273773" lon="151.289911">
  <ele>374.69</ele>
  <time>2026-09-01T19:55:33Z</time>
  <course>301.4</course>
  <speed>1.0444615837837217</speed>
  <fix>3d</fix>
</trkpt>
<trkpt lat="-27.2737735" lon="151.2899118">
  <ele>374.47</ele>
  <time>2026-09-01T19:55:33Z</time>
  <course>299.95</course>
  <speed>0.73</speed>
  <fix>3d</fix>
</trkpt>
<trkpt lat="-27.2737725" lon="151.28991">
  <ele>374.88</ele>
  <time>2026-09-01T19:55:33Z</time>
  <course>301.34</course>
  <speed>1.4166156853571825</speed>
  <fix>3d</fix>
</trkpt>
<trkpt lat="-27.2737735" lon="151.2899118">
  <ele>374.47</ele>
  <time>2026-09-01T19:55:33Z</time>
  <course>299.95</course>
  <speed>0.73</speed>
  <fix>3d</fix>
</trkpt>
<trkpt lat="-27.2737717" lon="151.2899086">
  <ele>375.05</ele>
  <time>2026-09-01T19:55:33Z</time>
  <course>301.27</course>
  <speed>1.8607794065928394</speed>
  <fix>3d</fix>
</trkpt>
<trkpt lat="-27.2737725" lon="151.28991">
  <ele>374.88</ele>
  <time>2026-09-01T19:55:33Z</time>
  <course>300.26</course>
  <speed>1.41</speed>
  <fix>3d</fix>
</trkpt>
<trkpt lat="-27.2737708" lon="151.2899068">
  <ele>375.18</ele>
  <time>2026-09-01T19:55:33Z</time>
  <course>301.16</course>
  <speed>2.363260459619295</speed>
  <fix>3d</fix>
</trkpt>
<trkpt lat="-27.2737725" lon="151.28991">
  <ele>374.88</ele>
  <time>2026-09-01T19:55:33Z</time>
  <course>300.26</course>
  <speed>1.41</speed>
  <fix>3d</fix>
</trkpt>
<trkpt lat="-27.2737696" lon="151.2899045">
  <ele>375.29</ele>
  <time>2026-09-01T19:55:33Z</time>
  <course>301.07</course>
  <speed>2.932643858363985</speed>
  <fix>3d</fix>
</trkpt>
<trkpt lat="-27.2737708" lon="151.2899067">
  <ele>375.18</ele>
  <time>2026-09-01T19:55:33Z</time>
  <course>300.4</course>
  <speed>2.35</speed>
  <fix>3d</fix>
</trkpt>
<trkpt lat="-27.2737681" lon="151.2899017">
  <ele>375.36</ele>
  <time>2026-09-01T19:55:33Z</time>
  <course>300.97</course>
  <speed>3.5192328709535547</speed>
  <fix>3d</fix>
</trkpt>
<trkpt lat="-27.2737708" lon="151.2899067">
  <ele>375.18</ele>
  <time>2026-09-01T19:55:33Z</time>
  <course>300.4</course>
  <speed>2.35</speed>
  <fix>3d</fix>
</trkpt>
<trkpt lat="-27.2737664" lon="151.2898984">
  <ele>375.4</ele>
  <time>2026-09-01T19:55:33Z</time>
  <course>300.8</course>
  <speed>4.119538809138712</speed>
  <fix>3d</fix>
</trkpt>
<trkpt lat="-27.2737682" lon="151.2899016">
  <ele>375.36</ele>
  <time>2026-09-01T19:55:33Z</time>
  <course>300.3</course>
  <speed>3.48</speed>
  <fix>3d</fix>
</trkpt>
<trkpt lat="-27.2737644" lon="151.2898946">
  <ele>375.42</ele>
  <time>2026-09-01T19:55:33Z</time>
  <course>300.63</course>
  <speed>4.7147958598437745</speed>
  <fix>3d</fix>
</trkpt>
<trkpt lat="-27.2737682" lon="151.2899016">
  <ele>375.36</ele>
  <time>2026-09-01T19:55:33Z</time>
  <course>300.3</course>
  <speed>3.48</speed>
  <fix>3d</fix>
</trkpt>
<trkpt lat="-27.2737622" lon="151.2898902">
  <ele>375.42</ele>
  <time>2026-09-01T19:55:33Z</time>
  <course>300.53</course>
  <speed>5.310084745086466</speed>
  <fix>3d</fix>
</trkpt>
<trkpt lat="-27.2737645" lon="151.2898945">
  <ele>375.43</ele>
  <time>2026-09-01T19:55:33Z</time>
  <course>300.08</course>
  <speed>4.67</speed>
  <fix>3d</fix>
</trkpt>
<trkpt lat="-27.2737597" lon="151.2898854">
  <ele>375.41</ele>
  <time>2026-09-01T19:55:33Z</time>
  <course>300.27</course>
  <speed>5.90905237749675</speed>
  <fix>3d</fix>
</trkpt>
<trkpt lat="-27.2737645" lon="151.2898945">
  <ele>375.43</ele>
  <time>2026-09-01T19:55:33Z</time>
  <course>300.08</course>
  <speed>4.67</speed>
  <fix>3d</fix>
</trkpt>
<trkpt lat="-27.273757" lon="151.28988">
  <ele>375.39</ele>
  <time>2026-09-01T19:55:33Z</time>
  <course>300.01</course>
  <speed>6.508102642091626</speed>
  <fix>3d</fix>
</trkpt>
<trkpt lat="-27.2737598" lon="151.2898853">
  <ele>375.42</ele>
  <time>2026-09-01T19:55:33Z</time>
  <course>299.77</course>
  <speed>5.87</speed>
  <fix>3d</fix>
</trkpt>
<trkpt lat="-27.273754" lon="151.289874">
  <ele>375.37</ele>
  <time>2026-09-01T19:55:33Z</time>
  <course>299.74</course>
  <speed>7.097358663615641</speed>
  <fix>3d</fix>
</trkpt>
<trkpt lat="-27.2737598" lon="151.2898853">
  <ele>375.42</ele>
  <time>2026-09-01T19:55:33Z</time>
  <course>299.77</course>
  <speed>5.87</speed>
  <fix>3d</fix>
</trkpt>
<trkpt lat="-27.2737508" lon="151.2898676">
  <ele>375.34</ele>
  <time>2026-09-01T19:55:33Z</time>
  <course>299.46</course>
  <speed>7.686780860672432</speed>
  <fix>3d</fix>
</trkpt>
<trkpt lat="-27.2737541" lon="151.2898739">
  <ele>375.38</ele>
  <time>2026-09-01T19:55:33Z</time>
  <course>299.33</course>
  <speed>7.06</speed>
  <fix>3d</fix>
</trkpt>
<trkpt lat="-27.2737474" lon="151.2898605">
  <ele>375.32</ele>
  <time>2026-09-01T19:55:33Z</time>
  <course>298.98</course>
  <speed>8.266661962364253</speed>
  <fix>3d</fix>
</trkpt>
<trkpt lat="-27.2737541" lon="151.2898739">
  <ele>375.38</ele>
  <time>2026-09-01T19:55:33Z</time>
  <course>299.33</course>
  <speed>7.06</speed>
  <fix>3d</fix>
</trkpt>
<trkpt lat="-27.2737437" lon="151.2898529">
  <ele>375.29</ele>
  <time>2026-09-01T19:55:33Z</time>
  <course>298.46</course>
  <speed>8.842019000205779</speed>
  <fix>3d</fix>
</trkpt>
<trkpt lat="-27.2737474" lon="151.2898604">
  <ele>375.34</ele>
  <time>2026-09-01T19:55:33Z</time>
  <course>298.76</course>
  <speed>8.23</speed>
  <fix>3d</fix>
</trkpt>
<trkpt lat="-27.2737398" lon="151.2898448">
  <ele>375.27</ele>
  <time>2026-09-01T19:55:33Z</time>
  <course>297.99</course>
  <speed>9.408235753848858</speed>
  <fix>3d</fix>
</trkpt>
<trkpt lat="-27.2737474" lon="151.2898604">
  <ele>375.34</ele>
  <time>2026-09-01T19:55:33Z</time>
  <course>298.76</course>
  <speed>8.23</speed>
  <fix>3d</fix>
</trkpt>
<trkpt lat="-27.2737358" lon="151.2898362">
  <ele>375.26</ele>
  <time>2026-09-01T19:55:33Z</time>
  <course>297.63</course>
  <speed>9.947889223347836</speed>
  <fix>3d</fix>
</trkpt>
<trkpt lat="-27.2737398" lon="151.2898447">
  <ele>375.3</ele>
  <time>2026-09-01T19:55:33Z</time>
  <course>298.03</course>
  <speed>9.36</speed>
  <fix>3d</fix>
</trkpt>
<trkpt lat="-27.2737316" lon="151.2898269">
  <ele>375.25</ele>
  <time>2026-09-01T19:55:33Z</time>
  <course>297.27</course>
  <speed>10.46539535803593</speed>
  <fix>3d</fix>
</trkpt>
<trkpt lat="-27.2737398" lon="151.2898447">
  <ele>375.3</ele>
  <time>2026-09-01T19:55:33Z</time>
  <course>298.03</course>
  <speed>9.36</speed>
  <fix>3d</fix>
</trkpt>
<trkpt lat="-27.2737272" lon="151.2898173">
  <ele>375.25</ele>
  <time>2026-09-01T19:55:33Z</time>
  <course>296.87</course>
  <speed>10.95231938906093</speed>
  <fix>3d</fix>
</trkpt>
<trkpt lat="-27.2737316" lon="151.289827">
  <ele>375.28</ele>
  <time>2026-09-01T19:55:33Z</time>
  <course>297.18</course>
  <speed>10.42</speed>
  <fix>3d</fix>
</trkpt>
<trkpt lat="-27.2737228" lon="151.2898072">
  <ele>375.24</ele>
  <time>2026-09-01T19:55:33Z</time>
  <course>296.59</course>
  <speed>11.421961302683528</speed>
  <fix>3d</fix>
</trkpt>
<trkpt lat="-27.2737316" lon="151.289827">
  <ele>375.28</ele>
  <time>2026-09-01T19:55:33Z</time>
  <course>297.18</course>
  <speed>10.42</speed>
  <fix>3d</fix>
</trkpt>
<trkpt lat="-27.2737182" lon="151.2897967">
  <ele>375.24</ele>
  <time>2026-09-01T19:55:33Z</time>
  <course>296.25</course>
  <speed>11.896911363879283</speed>
  <fix>3d</fix>
</trkpt>
<trkpt lat="-27.2737228" lon="151.2898073">
  <ele>375.28</ele>
  <time>2026-09-01T19:55:33Z</time>
  <course>296.29</course>
  <speed>11.39</speed>
  <fix>3d</fix>
</trkpt>
<trkpt lat="-27.2737135" lon="151.2897857">
  <ele>375.24</ele>
  <time>2026-09-01T19:55:33Z</time>
  <course>295.82</course>
  <speed>12.350291494535666</speed>
  <fix>3d</fix>
</trkpt>
<trkpt lat="-27.2737228" lon="151.2898073">
  <ele>375.28</ele>
  <time>2026-09-01T19:55:33Z</time>
  <course>296.29</course>
  <speed>11.39</speed>
  <fix>3d</fix>
</trkpt>
<trkpt lat="-27.2737088" lon="151.2897744">
  <ele>375.24</ele>
  <time>2026-09-01T19:55:33Z</time>
  <course>295.33</course>
  <speed>12.800164061448589</speed>
  <fix>3d</fix>
</trkpt>
<trkpt lat="-27.2737135" lon="151.2897856">
  <ele>375.28</ele>
  <time>2026-09-01T19:55:33Z</time>
  <course>295.39</course>
  <speed>12.33</speed>
  <fix>3d</fix>
</trkpt>
<trkpt lat="-27.2737039" lon="151.2897625">
  <ele>375.24</ele>
  <time>2026-09-01T19:55:33Z</time>
  <course>294.9</course>
  <speed>13.255764783670536</speed>
  <fix>3d</fix>
</trkpt>
<trkpt lat="-27.2737135" lon="151.2897856">
  <ele>375.28</ele>
  <time>2026-09-01T19:55:33Z</time>
  <course>295.39</course>
  <speed>12.33</speed>
  <fix>3d</fix>
</trkpt>
<trkpt lat="-27.273699" lon="151.2897501">
  <ele>375.24</ele>
  <time>2026-09-01T19:55:33Z</time>
  <course>294.38</course>
  <speed>13.708190982036982</speed>
  <fix>3d</fix>
</trkpt>
<trkpt lat="-27.2737038" lon="151.2897621">
  <ele>375.28</ele>
  <time>2026-09-01T19:55:33Z</time>
  <course>294.45</course>
  <speed>13.25</speed>
  <fix>3d</fix>
</trkpt>
<trkpt lat="-27.273694" lon="151.2897371">
  <ele>375.24</ele>
  <time>2026-09-01T19:55:33Z</time>
  <course>293.66</course>
  <speed>14.14963603772196</speed>
  <fix>3d</fix>
</trkpt>
<trkpt lat="-27.2737038" lon="151.2897621">
  <ele>375.28</ele>
  <time>2026-09-01T19:55:33Z</time>
  <course>294.45</course>
  <speed>13.25</speed>
  <fix>3d</fix>
</trkpt>
<trkpt lat="-27.2736889" lon="151.2897237">
  <ele>375.24</ele>
  <time>2026-09-01T19:55:33Z</time>
  <course>292.86</course>
  <speed>14.58078873038081</speed>
  <fix>3d</fix>
</trkpt>
<trkpt lat="-27.2736938" lon="151.2897368">
  <ele>375.28</ele>
  <time>2026-09-01T19:55:33Z</time>
  <course>293.38</course>
  <speed>14.14</speed>
  <fix>3d</fix>
</trkpt>
<trkpt lat="-27.2736838" lon="151.28971">
  <ele>375.26</ele>
  <time>2026-09-01T19:55:33Z</time>
  <course>291.94</course>
  <speed>14.993145100345023</speed>
  <fix>3d</fix>
</trkpt>
<trkpt lat="-27.2736938" lon="151.2897368">
  <ele>375.28</ele>
  <time>2026-09-01T19:55:33Z</time>
  <course>293.38</course>
  <speed>14.14</speed>
  <fix>3d</fix>
</trkpt>
<trkpt lat="-27.2736788" lon="151.2896958">
  <ele>375.28</ele>
  <time>2026-09-01T19:55:33Z</time>
  <course>291.02</course>
  <speed>15.38587014113924</speed>
  <fix>3d</fix>
</trkpt>
<trkpt lat="-27.2736837" lon="151.2897097">
  <ele>375.3</ele>
  <time>2026-09-01T19:55:33Z</time>
  <course>292.04</course>
  <speed>14.98</speed>
  <fix>3d</fix>
</trkpt>
<trkpt lat="-27.2736739" lon="151.2896812">
  <ele>375.31</ele>
  <time>2026-09-01T19:55:33Z</time>
  <course>290.0</course>
  <speed>15.76564936816749</speed>
  <fix>3d</fix>
</trkpt>
<trkpt lat="-27.2736837" lon="151.2897097">
  <ele>375.3</ele>
  <time>2026-09-01T19:55:33Z</time>
  <course>292.04</course>
  <speed>14.98</speed>
  <fix>3d</fix>
</trkpt>
<trkpt lat="-27.2736691" lon="151.2896661">
  <ele>375.34</ele>
  <time>2026-09-01T19:55:33Z</time>
  <course>289.07</course>
  <speed>16.135730538156615</speed>
  <fix>3d</fix>
</trkpt>
<trkpt lat="-27.2736737" lon="151.2896807">
  <ele>375.35</ele>
  <time>2026-09-01T19:55:33Z</time>
  <course>290.33</course>
  <speed>15.77</speed>
  <fix>3d</fix>
</trkpt>
<trkpt lat="-27.2736644" lon="151.2896506">
  <ele>375.38</ele>
  <time>2026-09-01T19:55:33Z</time>
  <course>288.24</course>
  <speed>16.48821397241072</speed>
  <fix>3d</fix>
</trkpt>
<trkpt lat="-27.2736737" lon="151.2896807">
  <ele>375.35</ele>
  <time>2026-09-01T19:55:33Z</time>
  <course>290.33</course>
  <speed>15.77</speed>
  <fix>3d</fix>
</trkpt>
<trkpt lat="-27.2736598" lon="151.2896346">
  <ele>375.43</ele>
  <time>2026-09-01T19:55:33Z</time>
  <course>287.39</course>
  <speed>16.83054663402232</speed>
  <fix>3d</fix>
</trkpt>
<trkpt lat="-27.2736641" lon="151.28965">
  <ele>375.42</ele>
  <time>2026-09-01T19:55:33Z</time>
  <course>288.34</course>
  <speed>16.5</speed>
  <fix>3d</fix>
</trkpt>
<trkpt lat="-27.2736555" lon="151.2896182">
  <ele>375.48</ele>
  <time>2026-09-01T19:55:33Z</time>
  <course>286.47</course>
  <speed>17.15088627447573</speed>
  <fix>3d</fix>
</trkpt>
<trkpt lat="-27.2736641" lon="151.28965">
  <ele>375.42</ele>
  <time>2026-09-01T19:55:33Z</time>
  <course>288.34</course>
  <speed>16.5</speed>
  <fix>3d</fix>
</trkpt>
<trkpt lat="-27.2736513" lon="151.2896014">
  <ele>375.53</ele>
  <time>2026-09-01T19:55:33Z</time>
  <course>285.62</course>
  <speed>17.465030775810273</speed>
  <fix>3d</fix>
</trkpt>
<trkpt lat="-27.2736551" lon="151.2896175">
  <ele>375.52</ele>
  <time>2026-09-01T19:55:33Z</time>
  <course>286.22</course>
  <speed>17.17</speed>
  <fix>3d</fix>
</trkpt>
<trkpt lat="-27.2736473" lon="151.2895842">
  <ele>375.58</ele>
  <time>2026-09-01T19:55:33Z</time>
  <course>284.74</course>
  <speed>17.770633078199552</speed>
  <fix>3d</fix>
</trkpt>
<trkpt lat="-27.2736551" lon="151.2896175">
  <ele>375.52</ele>
  <time>2026-09-01T19:55:33Z</time>
  <course>286.22</course>
  <speed>17.17</speed>
  <fix>3d</fix>
</trkpt>
<trkpt lat="-27.2736436" lon="151.2895666">
  <ele>375.64</ele>
  <time>2026-09-01T19:55:33Z</time>
  <course>283.65</course>
  <speed>18.06390876859159</speed>
  <fix>3d</fix>
</trkpt>
<trkpt lat="-27.2736469" lon="151.2895833">
  <ele>375.62</ele>
  <time>2026-09-01T19:55:33Z</time>
  <course>284.01</course>
  <speed>17.79</speed>
  <fix>3d</fix>
</trkpt>
<trkpt lat="-27.2736401" lon="151.2895487">
  <ele>375.7</ele>
  <time>2026-09-01T19:55:33Z</time>
  <course>282.48</course>
  <speed>18.35073023070199</speed>
  <fix>3d</fix>
</trkpt>
<trkpt lat="-27.2736469" lon="151.2895833">
  <ele>375.62</ele>
  <time>2026-09-01T19:55:33Z</time>
  <course>284.01</course>
  <speed>17.79</speed>
  <fix>3d</fix>
</trkpt>
<trkpt lat="-27.2736369" lon="151.2895304">
  <ele>375.77</ele>
  <time>2026-09-01T19:55:33Z</time>
  <course>281.21</course>
  <speed>18.628239315619712</speed>
  <fix>3d</fix>
</trkpt>
<trkpt lat="-27.2736396" lon="151.2895477">
  <ele>375.75</ele>
  <time>2026-09-01T19:55:33Z</time>
  <course>281.65</course>
  <speed>18.37</speed>
  <fix>3d</fix>
</trkpt>
<trkpt lat="-27.2736341" lon="151.2895118">
  <ele>375.85</ele>
  <time>2026-09-01T19:55:33Z</time>
  <course>279.8</course>
  <speed>18.877205831372397</speed>
  <fix>3d</fix>
</trkpt>
<trkpt lat="-27.2736396" lon="151.2895477">
  <ele>375.75</ele>
  <time>2026-09-01T19:55:33Z</time>
  <course>281.65</course>
  <speed>18.37</speed>
  <fix>3d</fix>
</trkpt>
<trkpt lat="-27.2736317" lon="151.2894929">
  <ele>375.93</ele>
  <time>2026-09-01T19:55:33Z</time>
  <course>278.38</course>
  <speed>19.120211818910374</speed>
  <fix>3d</fix>
</trkpt>
<trkpt lat="-27.2736337" lon="151.2895107">
  <ele>375.9</ele>
  <time>2026-09-01T19:55:33Z</time>
  <course>279.0</course>
  <speed>18.9</speed>
  <fix>3d</fix>
</trkpt>
<trkpt lat="-27.2736296" lon="151.2894738">
  <ele>376.02</ele>
  <time>2026-09-01T19:55:33Z</time>
  <course>276.81</course>
  <speed>19.36048811368143</speed>
  <fix>3d</fix>
</trkpt>
<trkpt lat="-27.2736337" lon="151.2895107">
  <ele>375.9</ele>
  <time>2026-09-01T19:55:33Z</time>
  <course>279.0</course>
  <speed>18.9</speed>
  <fix>3d</fix>
</trkpt>
<trkpt lat="-27.2736281" lon="151.2894544">
  <ele>376.12</ele>
  <time>2026-09-01T19:55:33Z</time>
  <course>275.15</course>
  <speed>19.590806517343793</speed>
  <fix>3d</fix>
</trkpt>
<trkpt lat="-27.2736292" lon="151.2894722">
  <ele>376.07</ele>
  <time>2026-09-01T19:55:33Z</time>
  <course>275.94</course>
  <speed>19.39</speed>
  <fix>3d</fix>
</trkpt>
<trkpt lat="-27.273627" lon="151.2894347">
  <ele>376.22</ele>
  <time>2026-09-01T19:55:33Z</time>
  <course>273.36</course>
  <speed>19.806163182201644</speed>
  <fix>3d</fix>
</trkpt>
<trkpt lat="-27.2736292" lon="151.2894722">
  <ele>376.07</ele>
  <time>2026-09-01T19:55:33Z</time>
  <course>275.94</course>
  <speed>19.39</speed>
  <fix>3d</fix>
</trkpt>
<trkpt lat="-27.2736265" lon="151.2894147">
  <ele>376.32</ele>
  <time>2026-09-01T19:55:33Z</time>
  <course>271.49</course>
  <speed>20.030489260125425</speed>
  <fix>3d</fix>
</trkpt>
<trkpt lat="-27.2736266" lon="151.2894326">
  <ele>376.26</ele>
  <time>2026-09-01T19:55:33Z</time>
  <course>272.43</course>
  <speed>19.84</speed>
  <fix>3d</fix>
</trkpt>
<trkpt lat="-27.2736266" lon="151.2893945">
  <ele>376.41</ele>
  <time>2026-09-01T19:55:33Z</time>
  <course>269.6</course>
  <speed>20.247745553517806</speed>
  <fix>3d</fix>
</trkpt>
<trkpt lat="-27.2736266" lon="151.2894326">
  <ele>376.26</ele>
  <time>2026-09-01T19:55:33Z</time>
  <course>272.43</course>
  <speed>19.84</speed>
  <fix>3d</fix>
</trkpt>
<trkpt lat="-27.2736273" lon="151.2893741">
  <ele>376.51</ele>
  <time>2026-09-01T19:55:33Z</time>
  <course>267.63</course>
  <speed>20.46133915461058</speed>
  <fix>3d</fix>
</trkpt>
<trkpt lat="-27.2736262" lon="151.289392">
  <ele>376.45</ele>
  <time>2026-09-01T19:55:33Z</time>
  <course>268.55</course>
  <speed>20.28</speed>
  <fix>3d</fix>
</trkpt>
<trkpt lat="-27.2736288" lon="151.2893533">
  <ele>376.6</ele>
  <time>2026-09-01T19:55:33Z</time>
  <course>265.69</course>
  <speed>20.674895404814023</speed>
  <fix>3d</fix>
</trkpt>
<trkpt lat="-27.2736262" lon="151.289392">
  <ele>376.45</ele>
  <time>2026-09-01T19:55:33Z</time>
  <course>268.55</course>
  <speed>20.28</speed>
  <fix>3d</fix>
</trkpt>
<trkpt lat="-27.273631" lon="151.2893324">
  <ele>376.69</ele>
  <time>2026-09-01T19:55:33Z</time>
  <course>263.7</course>
  <speed>20.889482999825535</speed>
  <fix>3d</fix>
</trkpt>
<trkpt lat="-27.2736285" lon="151.2893507">
  <ele>376.64</ele>
  <time>2026-09-01T19:55:33Z</time>
  <course>264.38</course>
  <speed>20.71</speed>
  <fix>3d</fix>
</trkpt>
<trkpt lat="-27.2736338" lon="151.2893114">
  <ele>376.77</ele>
  <time>2026-09-01T19:55:33Z</time>
  <course>261.66</course>
  <speed>21.108588299552387</speed>
  <fix>3d</fix>
</trkpt>
<trkpt lat="-27.2736285" lon="151.2893507">
  <ele>376.64</ele>
  <time>2026-09-01T19:55:33Z</time>
  <course>264.38</course>
  <speed>20.71</speed>
  <fix>3d</fix>
</trkpt>
<trkpt lat="-27.2736375" lon="151.2892904">
  <ele>376.83</ele>
  <time>2026-09-01T19:55:33Z</time>
  <course>259.5</course>
  <speed>21.32542613876684</speed>
  <fix>3d</fix>
</trkpt>
<trkpt lat="-27.2736335" lon="151.2893088">
  <ele>376.8</ele>
  <time>2026-09-01T19:55:33Z</time>
  <course>260.03</course>
  <speed>21.13</speed>
  <fix>3d</fix>
</trkpt>
<trkpt lat="-27.2736419" lon="151.2892692">
  <ele>376.89</ele>
  <time>2026-09-01T19:55:33Z</time>
  <course>257.32</course>
  <speed>21.547995266381513</speed>
  <fix>3d</fix>
</trkpt>
<trkpt lat="-27.2736335" lon="151.2893088">
  <ele>376.8</ele>
  <time>2026-09-01T19:55:33Z</time>
  <course>260.03</course>
  <speed>21.13</speed>
  <fix>3d</fix>
</trkpt>
<trkpt lat="-27.2736471" lon="151.2892481">
  <ele>376.94</ele>
  <time>2026-09-01T19:55:33Z</time>
  <course>255.05</course>
  <speed>21.766830269931358</speed>
  <fix>3d</fix>
</trkpt>
<trkpt lat="-27.2736416" lon="151.2892666">
  <ele>376.94</ele>
  <time>2026-09-01T19:55:33Z</time>
  <course>255.52</course>
  <speed>21.54</speed>
  <fix>3d</fix>
</trkpt>
<trkpt lat="-27.2736531" lon="151.289227">
  <ele>376.98</ele>
  <time>2026-09-01T19:55:33Z</time>
  <course>252.71</course>
  <speed>21.986709621951167</speed>
  <fix>3d</fix>
</trkpt>
<trkpt lat="-27.2736416" lon="151.2892666">
  <ele>376.94</ele>
  <time>2026-09-01T19:55:33Z</time>
  <course>255.52</course>
  <speed>21.54</speed>
  <fix>3d</fix>
</trkpt>
<trkpt lat="-27.27366" lon="151.289206">
  <ele>377.02</ele>
  <time>2026-09-01T19:55:34Z</time>
  <course>250.32</course>
  <speed>22.1980359491555</speed>
  <fix>3d</fix>
</trkpt>
<trkpt lat="-27.2736529" lon="151.2892246">
  <ele>377.03</ele>
  <time>2026-09-01T19:55:34Z</time>
  <course>250.82</course>
  <speed>21.96</speed>
  <fix>3d</fix>
</trkpt>
<trkpt lat="-27.2736677" lon="151.2891852">
  <ele>377.04</ele>
  <time>2026-09-01T19:55:34Z</time>
  <course>247.87</course>
  <speed>22.41595190929888</speed>
  <fix>3d</fix>
</trkpt>
<trkpt lat="-27.2736529" lon="151.2892246">
  <ele>377.03</ele>
  <time>2026-09-01T19:55:34Z</time>
  <course>250.82</course>
  <speed>21.96</speed>
  <fix>3d</fix>
</trkpt>
<trkpt lat="-27.2736764" lon="151.2891646">
  <ele>377.06</ele>
  <time>2026-09-01T19:55:34Z</time>
  <course>245.39</course>
  <speed>22.61562734040336</speed>
  <fix>3d</fix>
</trkpt>
<trkpt lat="-27.2736676" lon="151.289183">
  <ele>377.09</ele>
  <time>2026-09-01T19:55:34Z</time>
  <course>245.94</course>
  <speed>22.36</speed>
  <fix>3d</fix>
</trkpt>
<trkpt lat="-27.2736858" lon="151.2891442">
  <ele>377.07</ele>
  <time>2026-09-01T19:55:34Z</time>
  <course>242.86</course>
  <speed>22.823365220755683</speed>
  <fix>3d</fix>
</trkpt>
<trkpt lat="-27.2736676" lon="151.289183">
  <ele>377.09</ele>
  <time>2026-09-01T19:55:34Z</time>
  <course>245.94</course>
  <speed>22.36</speed>
  <fix>3d</fix>
</trkpt>
<trkpt lat="-27.2736962" lon="151.2891242">
  <ele>377.07</ele>
  <time>2026-09-01T19:55:34Z</time>
  <course>240.32</course>
  <speed>23.024374041437046</speed>
  <fix>3d</fix>
</trkpt>
<trkpt lat="-27.2736857" lon="151.2891422">
  <ele>377.13</ele>
  <time>2026-09-01T19:55:34Z</time>
  <course>240.89</course>
  <speed>22.76</speed>
  <fix>3d</fix>
</trkpt>
<trkpt lat="-27.2737074" lon="151.2891046">
  <ele>377.07</ele>
  <time>2026-09-01T19:55:34Z</time>
  <course>237.65</course>
  <speed>23.21329145123543</speed>
  <fix>3d</fix>
</trkpt>
<trkpt lat="-27.2736857" lon="151.2891422">
  <ele>377.13</ele>
  <time>2026-09-01T19:55:34Z</time>
  <course>240.89</course>
  <speed>22.76</speed>
  <fix>3d</fix>
</trkpt>
<trkpt lat="-27.2737196" lon="151.2890854">
  <ele>377.06</ele>
  <time>2026-09-01T19:55:34Z</time>
  <course>234.91</course>
  <speed>23.404110750037052</speed>
  <fix>3d</fix>
</trkpt>
<trkpt lat="-27.2737074" lon="151.2891028">
  <ele>377.14</ele>
  <time>2026-09-01T19:55:34Z</time>
  <course>235.68</course>
  <speed>23.14</speed>
  <fix>3d</fix>
</trkpt>
<trkpt lat="-27.2737325" lon="151.2890669">
  <ele>377.05</ele>
  <time>2026-09-01T19:55:34Z</time>
  <course>232.19</course>
  <speed>23.574155340117706</speed>
  <fix>3d</fix>
</trkpt>
<trkpt lat="-27.2737074" lon="151.2891028">
  <ele>377.14</ele>
  <time>2026-09-01T19:55:34Z</time>
  <course>235.68</course>
  <speed>23.14</speed>
  <fix>3d</fix>
</trkpt>
<trkpt lat="-27.2737463" lon="151.289049">
  <ele>377.04</ele>
  <time>2026-09-01T19:55:34Z</time>
  <course>229.46</course>
  <speed>23.746193379150267</speed>
  <fix>3d</fix>
</trkpt>
<trkpt lat="-27.2737326" lon="151.2890651">
  <ele>377.12</ele>
  <time>2026-09-01T19:55:34Z</time>
  <course>230.3</course>
  <speed>23.5</speed>
  <fix>3d</fix>
</trkpt>
<trkpt lat="-27.2737609" lon="151.2890317">
  <ele>377.02</ele>
  <time>2026-09-01T19:55:34Z</time>
  <course>226.61</course>
  <speed>23.900476982688023</speed>
  <fix>3d</fix>
</trkpt>
<trkpt lat="-27.2737326" lon="151.2890651">
  <ele>377.12</ele>
  <time>2026-09-01T19:55:34Z</time>
  <course>230.3</course>
  <speed>23.5</speed>
  <fix>3d</fix>
</trkpt>
<trkpt lat="-27.2737763" lon="151.2890152">
  <ele>377.0</ele>
  <time>2026-09-01T19:55:34Z</time>
  <course>223.83</course>
  <speed>24.055246828914477</speed>
  <fix>3d</fix>
</trkpt>
<trkpt lat="-27.2737614" lon="151.2890298">
  <ele>377.08</ele>
  <time>2026-09-01T19:55:34Z</time>
  <course>224.76</course>
  <speed>23.84</speed>
  <fix>3d</fix>
</trkpt>
<trkpt lat="-27.2737925" lon="151.2889995">
  <ele>376.97</ele>
  <time>2026-09-01T19:55:34Z</time>
  <course>221.01</course>
  <speed>24.198264400572203</speed>
  <fix>3d</fix>
</trkpt>
<trkpt lat="-27.2737614" lon="151.2890298">
  <ele>377.08</ele>
  <time>2026-09-01T19:55:34Z</time>
  <course>224.76</course>
  <speed>23.84</speed>
  <fix>3d</fix>
</trkpt>
<trkpt lat="-27.2738096" lon="151.2889846">
  <ele>376.94</ele>
  <time>2026-09-01T19:55:34Z</time>
  <course>218.13</course>
  <speed>24.345367115736828</speed>
  <fix>3d</fix>
</trkpt>
<trkpt lat="-27.2737935" lon="151.2889974">
  <ele>377.03</ele>
  <time>2026-09-01T19:55:34Z</time>
  <course>219.11</course>
  <speed>24.16</speed>
  <fix>3d</fix>
</trkpt>
<trkpt lat="-27.2738273" lon="151.2889705">
  <ele>376.91</ele>
  <time>2026-09-01T19:55:34Z</time>
  <course>215.25</course>
  <speed>24.493119441998402</speed>
  <fix>3d</fix>
</trkpt>
<trkpt lat="-27.2737935" lon="151.2889974">
  <ele>377.03</ele>
  <time>2026-09-01T19:55:34Z</time>
  <course>219.11</course>
  <speed>24.16</speed>
  <fix>3d</fix>
</trkpt>
<trkpt lat="-27.2738456" lon="151.2889575">
  <ele>376.88</ele>
  <time>2026-09-01T19:55:34Z</time>
  <course>212.38</course>
  <speed>24.62446344593116</speed>
  <fix>3d</fix>
</trkpt>
<trkpt lat="-27.2738287" lon="151.2889683">
  <ele>376.96</ele>
  <time>2026-09-01T19:55:34Z</time>
  <course>213.39</course>
  <speed>24.47</speed>
  <fix>3d</fix>
</trkpt>
<trkpt lat="-27.2738649" lon="151.2889454">
  <ele>376.84</ele>
  <time>2026-09-01T19:55:34Z</time>
  <course>209.46</course>
  <speed>24.766174512831004</speed>
  <fix>3d</fix>
</trkpt>
<trkpt lat="-27.2738287" lon="151.2889683">
  <ele>376.96</ele>
  <time>2026-09-01T19:55:34Z</time>
  <course>213.39</course>
  <speed>24.47</speed>
  <fix>3d</fix>
</trkpt>
<trkpt lat="-27.2738848" lon="151.2889343">
  <ele>376.8</ele>
  <time>2026-09-01T19:55:34Z</time>
  <course>206.49</course>
  <speed>24.901184710772295</speed>
  <fix>3d</fix>
</trkpt>
<trkpt lat="-27.2738668" lon="151.288943">
  <ele>376.89</ele>
  <time>2026-09-01T19:55:34Z</time>
  <course>207.56</course>
  <speed>24.75</speed>
  <fix>3d</fix>
</trkpt>
<trkpt lat="-27.2739054" lon="151.2889242">
  <ele>376.76</ele>
  <time>2026-09-01T19:55:34Z</time>
  <course>203.54</course>
  <speed>25.04107425810642</speed>
  <fix>3d</fix>
</trkpt>
<trkpt lat="-27.2738668" lon="151.288943">
  <ele>376.89</ele>
  <time>2026-09-01T19:55:34Z</time>
  <course>207.56</course>
  <speed>24.75</speed>
  <fix>3d</fix>
</trkpt>
<trkpt lat="-27.2739267" lon="151.2889153">
  <ele>376.71</ele>
  <time>2026-09-01T19:55:34Z</time>
  <course>200.55</course>
  <speed>25.175108738593366</speed>
  <fix>3d</fix>
</trkpt>
<trkpt lat="-27.2739074" lon="151.2889222">
  <ele>376.81</ele>
  <time>2026-09-01T19:55:34Z</time>
  <course>201.64</course>
  <speed>25.02</speed>
  <fix>3d</fix>
</trkpt>
<trkpt lat="-27.2739485" lon="151.2889076">
  <ele>376.66</ele>
  <time>2026-09-01T19:55:34Z</time>
  <course>197.54</course>
  <speed>25.29937746269659</speed>
  <fix>3d</fix>
</trkpt>
<trkpt lat="-27.2739074" lon="151.2889222">
  <ele>376.81</ele>
  <time>2026-09-01T19:55:34Z</time>
  <course>201.64</course>
  <speed>25.02</speed>
  <fix>3d</fix>
</trkpt>
<trkpt lat="-27.2739706" lon="151.2889012">
  <ele>376.61</ele>
  <time>2026-09-01T19:55:34Z</time>
  <course>194.51</course>
  <speed>25.427563784208665</speed>
  <fix>3d</fix>
</trkpt>
<trkpt lat="-27.2739502" lon="151.288906">
  <ele>376.72</ele>
  <time>2026-09-01T19:55:34Z</time>
  <course>195.64</course>
  <speed>25.27</speed>
  <fix>3d</fix>
</trkpt>
<trkpt lat="-27.2739931" lon="151.2888961">
  <ele>376.57</ele>
  <time>2026-09-01T19:55:34Z</time>
  <course>191.51</course>
  <speed>25.539485116188224</speed>
  <fix>3d</fix>
</trkpt>
<trkpt lat="-27.2739502" lon="151.288906">
  <ele>376.72</ele>
  <time>2026-09-01T19:55:34Z</time>
  <course>195.64</course>
  <speed>25.27</speed>
  <fix>3d</fix>
</trkpt>
<trkpt lat="-27.2740158" lon="151.2888924">
  <ele>376.52</ele>
  <time>2026-09-01T19:55:34Z</time>
  <course>188.42</course>
  <speed>25.65898867843392</speed>
  <fix>3d</fix>
</trkpt>
<trkpt lat="-27.2739946" lon="151.2888947">
  <ele>376.62</ele>
  <time>2026-09-01T19:55:34Z</time>
  <course>189.59</course>
  <speed>25.51</speed>
  <fix>3d</fix>
</trkpt>
<trkpt lat="-27.2740388" lon="151.28889">
  <ele>376.47</ele>
  <time>2026-09-01T19:55:34Z</time>
  <course>185.28</course>
  <speed>25.768484627544552</speed>
  <fix>3d</fix>
</trkpt>
<trkpt lat="-27.2739946" lon="151.2888947">
  <ele>376.62</ele>
  <time>2026-09-01T19:55:34Z</time>
  <course>189.59</course>
  <speed>25.51</speed>
  <fix>3d</fix>
</trkpt>
<trkpt lat="-27.274062" lon="151.288889">
  <ele>376.42</ele>
  <time>2026-09-01T19:55:34Z</time>
  <course>182.19</course>
  <speed>25.860626442528417</speed>
  <fix>3d</fix>
</trkpt>
<trkpt lat="-27.2740403" lon="151.2888889">
  <ele>376.53</ele>
  <time>2026-09-01T19:55:34Z</time>
  <course>183.46</course>
  <speed>25.72</speed>
  <fix>3d</fix>
</trkpt>
<trkpt lat="-27.2740852" lon="151.2888894">
  <ele>376.38</ele>
  <time>2026-09-01T19:55:34Z</time>
  <course>179.03</course>
  <speed>25.959632123741663</speed>
  <fix>3d</fix>
</trkpt>
<trkpt lat="-27.2740403" lon="151.2888889">
  <ele>376.53</ele>
  <time>2026-09-01T19:55:34Z</time>
  <course>183.46</course>
  <speed>25.72</speed>
  <fix>3d</fix>
</trkpt>
<trkpt lat="-27.2741085" lon="151.2888913">
  <ele>376.33</ele>
  <time>2026-09-01T19:55:34Z</time>
  <course>175.75</course>
  <speed>26.05921142321847</speed>
  <fix>3d</fix>
</trkpt>
<trkpt lat="-27.2740867" lon="151.2888885">
  <ele>376.43</ele>
  <time>2026-09-01T19:55:34Z</time>
  <course>177.18</course>
  <speed>25.91</speed>
  <fix>3d</fix>
</trkpt>
<trkpt lat="-27.2741316" lon="151.2888947">
  <ele>376.3</ele>
  <time>2026-09-01T19:55:34Z</time>
  <course>172.46</course>
  <speed>26.144693534252795</speed>
  <fix>3d</fix>
</trkpt>
<trkpt lat="-27.2740867" lon="151.2888885">
  <ele>376.43</ele>
  <time>2026-09-01T19:55:34Z</time>
  <course>177.18</course>
  <speed>25.91</speed>
  <fix>3d</fix>
</trkpt>
<trkpt lat="-27.2741545" lon="151.2888995">
  <ele>376.26</ele>
  <time>2026-09-01T19:55:34Z</time>
  <course>169.16</course>
  <speed>26.218230298782565</speed>
  <fix>3d</fix>
</trkpt>
<trkpt lat="-27.2741332" lon="151.288894">
  <ele>376.35</ele>
  <time>2026-09-01T19:55:34Z</time>
  <course>170.73</course>
  <speed>26.1</speed>
  <fix>3d</fix>
</trkpt>
<trkpt lat="-27.2741772" lon="151.2889057">
  <ele>376.24</ele>
  <time>2026-09-01T19:55:34Z</time>
  <course>165.82</course>
  <speed>26.29092048597766</speed>
  <fix>3d</fix>
</trkpt>
<trkpt lat="-27.2741332" lon="151.288894">
  <ele>376.35</ele>
  <time>2026-09-01T19:55:34Z</time>
  <course>170.73</course>
  <speed>26.1</speed>
  <fix>3d</fix>
</trkpt>
<trkpt lat="-27.2741996" lon="151.2889136">
  <ele>376.22</ele>
  <time>2026-09-01T19:55:34Z</time>
  <course>162.42</course>
  <speed>26.35967564292095</speed>
  <fix>3d</fix>
</trkpt>
<trkpt lat="-27.2741792" lon="151.2889056">
  <ele>376.28</ele>
  <time>2026-09-01T19:55:34Z</time>
  <course>164.09</course>
  <speed>26.26</speed>
  <fix>3d</fix>
</trkpt>
<trkpt lat="-27.2742215" lon="151.2889229">
  <ele>376.21</ele>
  <time>2026-09-01T19:55:34Z</time>
  <course>158.97</course>
  <speed>26.419252449681462</speed>
  <fix>3d</fix>
</trkpt>
<trkpt lat="-27.2741792" lon="151.2889056">
  <ele>376.28</ele>
  <time>2026-09-01T19:55:34Z</time>
  <course>164.09</course>
  <speed>26.26</speed>
  <fix>3d</fix>
</trkpt>
<trkpt lat="-27.274243" lon="151.2889337">
  <ele>376.21</ele>
  <time>2026-09-01T19:55:34Z</time>
  <course>155.47</course>
  <speed>26.467415816433608</speed>
  <fix>3d</fix>
</trkpt>
<trkpt lat="-27.2742239" lon="151.2889232">
  <ele>376.24</ele>
  <time>2026-09-01T19:55:34Z</time>
  <course>157.29</course>
  <speed>26.41</speed>
  <fix>3d</fix>
</trkpt>
<trkpt lat="-27.2742641" lon="151.288946">
  <ele>376.21</ele>
  <time>2026-09-01T19:55:34Z</time>
  <course>152.09</course>
  <speed>26.526432100831048</speed>
  <fix>3d</fix>
</trkpt>
<trkpt lat="-27.2742239" lon="151.2889232">
  <ele>376.24</ele>
  <time>2026-09-01T19:55:34Z</time>
  <course>157.29</course>
  <speed>26.41</speed>
  <fix>3d</fix>
</trkpt>
<trkpt lat="-27.2742845" lon="151.2889599">
  <ele>376.23</ele>
  <time>2026-09-01T19:55:34Z</time>
  <course>148.59</course>
  <speed>26.566964448352017</speed>
  <fix>3d</fix>
</trkpt>
<trkpt lat="-27.2742665" lon="151.2889467">
  <ele>376.23</ele>
  <time>2026-09-01T19:55:34Z</time>
  <course>150.4</course>
  <speed>26.53</speed>
  <fix>3d</fix>
</trkpt>
<trkpt lat="-27.274304" lon="151.288975">
  <ele>376.26</ele>
  <time>2026-09-01T19:55:34Z</time>
  <course>145.02</course>
  <speed>26.600751869073175</speed>
  <fix>3d</fix>
</trkpt>
<trkpt lat="-27.2742665" lon="151.2889467">
  <ele>376.23</ele>
  <time>2026-09-01T19:55:34Z</time>
  <course>150.4</course>
  <speed>26.53</speed>
  <fix>3d</fix>
</trkpt>
<trkpt lat="-27.2743229" lon="151.2889916">
  <ele>376.3</ele>
  <time>2026-09-01T19:55:34Z</time>
  <course>141.38</course>
  <speed>26.63183057921479</speed>
  <fix>3d</fix>
</trkpt>
<trkpt lat="-27.2743065" lon="151.288976">
  <ele>376.27</ele>
  <time>2026-09-01T19:55:34Z</time>
  <course>143.39</course>
  <speed>26.61</speed>
  <fix>3d</fix>
</trkpt>
<trkpt lat="-27.2743408" lon="151.2890096">
  <ele>376.36</ele>
  <time>2026-09-01T19:55:34Z</time>
  <course>136.88</course>
  <speed>26.641443279221946</speed>
  <fix>3d</fix>
</trkpt>
<trkpt lat="-27.2743065" lon="151.288976">
  <ele>376.27</ele>
  <time>2026-09-01T19:55:34Z</time>
  <course>143.39</course>
  <speed>26.61</speed>
  <fix>3d</fix>
</trkpt>
<trkpt lat="-27.2743575" lon="151.289029">
  <ele>376.46</ele>
  <time>2026-09-01T19:55:34Z</time>
  <course>132.59</course>
  <speed>26.60120298031651</speed>
  <fix>3d</fix>
</trkpt>
<trkpt lat="-27.2743429" lon="151.2890109">
  <ele>376.39</ele>
  <time>2026-09-01T19:55:34Z</time>
  <course>135.75</course>
  <speed>26.6</speed>
  <fix>3d</fix>
</trkpt>
<trkpt lat="-27.2743729" lon="151.2890498">
  <ele>376.6</ele>
  <time>2026-09-01T19:55:34Z</time>
  <course>128.9</course>
  <speed>26.53466412073083</speed>
  <fix>3d</fix>
</trkpt>
<trkpt lat="-27.2743429" lon="151.2890109">
  <ele>376.39</ele>
  <time>2026-09-01T19:55:34Z</time>
  <course>135.75</course>
  <speed>26.6</speed>
  <fix>3d</fix>
</trkpt>
<trkpt lat="-27.2743869" lon="151.2890716">
  <ele>376.78</ele>
  <time>2026-09-01T19:55:34Z</time>
  <course>125.65</course>
  <speed>26.468042995280175</speed>
  <fix>3d</fix>
</trkpt>
<trkpt lat="-27.2743746" lon="151.2890509">
  <ele>376.64</ele>
  <time>2026-09-01T19:55:34Z</time>
  <course>127.8</course>
  <speed>26.52</speed>
  <fix>3d</fix>
</trkpt>
<trkpt lat="-27.2743997" lon="151.2890941">
  <ele>376.99</ele>
  <time>2026-09-01T19:55:34Z</time>
  <course>122.68</course>
  <speed>26.39032019510184</speed>
  <fix>3d</fix>
</trkpt>
<trkpt lat="-27.2743746" lon="151.2890509">
  <ele>376.64</ele>
  <time>2026-09-01T19:55:34Z</time>
  <course>127.8</course>
  <speed>26.52</speed>
  <fix>3d</fix>
</trkpt>
<trkpt lat="-27.2744114" lon="151.2891174">
  <ele>377.21</ele>
  <time>2026-09-01T19:55:34Z</time>
  <course>120.05</course>
  <speed>26.320769365654947</speed>
  <fix>3d</fix>
</trkpt>
<trkpt lat="-27.2744013" lon="151.2890951">
  <ele>377.01</ele>
  <time>2026-09-01T19:55:34Z</time>
  <course>120.82</course>
  <speed>26.39</speed>
  <fix>3d</fix>
</trkpt>
<trkpt lat="-27.274422" lon="151.289141">
  <ele>377.45</ele>
  <time>2026-09-01T19:55:34Z</time>
  <course>117.75</course>
  <speed>26.231248540624215</speed>
  <fix>3d</fix>
</trkpt>
<trkpt lat="-27.2744013" lon="151.2890951">
  <ele>377.01</ele>
  <time>2026-09-01T19:55:34Z</time>
  <course>120.82</course>
  <speed>26.39</speed>
  <fix>3d</fix>
</trkpt>
<trkpt lat="-27.2744317" lon="151.289165">
  <ele>377.71</ele>
  <time>2026-09-01T19:55:34Z</time>
  <course>115.72</course>
  <speed>26.140619732515905</speed>
  <fix>3d</fix>
</trkpt>
<trkpt lat="-27.2744235" lon="151.2891421">
  <ele>377.47</ele>
  <time>2026-09-01T19:55:34Z</time>
  <course>115.24</course>
  <speed>26.24</speed>
  <fix>3d</fix>
</trkpt>
<trkpt lat="-27.2744406" lon="151.2891893">
  <ele>377.96</ele>
  <time>2026-09-01T19:55:34Z</time>
  <course>113.98</course>
  <speed>26.0460860783343</speed>
  <fix>3d</fix>
</trkpt>
<trkpt lat="-27.2744235" lon="151.2891421">
  <ele>377.47</ele>
  <time>2026-09-01T19:55:34Z</time>
  <course>115.24</course>
  <speed>26.24</speed>
  <fix>3d</fix>
</trkpt>
<trkpt lat="-27.2744487" lon="151.289214">
  <ele>378.22</ele>
  <time>2026-09-01T19:55:34Z</time>
  <course>112.55</course>
  <speed>25.953319633526654</speed>
  <fix>3d</fix>
</trkpt>
<trkpt lat="-27.2744418" lon="151.2891907">
  <ele>377.97</ele>
  <time>2026-09-01T19:55:34Z</time>
  <course>110.95</course>
  <speed>26.08</speed>
  <fix>3d</fix>
</trkpt>
<trkpt lat="-27.2744562" lon="151.2892386">
  <ele>378.47</ele>
  <time>2026-09-01T19:55:34Z</time>
  <course>111.31</course>
  <speed>25.871221463239802</speed>
  <fix>3d</fix>
</trkpt>
<trkpt lat="-27.2744418" lon="151.2891907">
  <ele>377.97</ele>
  <time>2026-09-01T19:55:34Z</time>
  <course>110.95</course>
  <speed>26.08</speed>
  <fix>3d</fix>
</trkpt>
<trkpt lat="-27.2744632" lon="151.2892633">
  <ele>378.71</ele>
  <time>2026-09-01T19:55:34Z</time>
  <course>110.34</course>
  <speed>25.781117120869684</speed>
  <fix>3d</fix>
</trkpt>
<trkpt lat="-27.2744572" lon="151.2892403">
  <ele>378.46</ele>
  <time>2026-09-01T19:55:34Z</time>
  <course>107.86</course>
  <speed>25.92</speed>
  <fix>3d</fix>
</trkpt>
<trkpt lat="-27.2744698" lon="151.2892882">
  <ele>378.92</ele>
  <time>2026-09-01T19:55:34Z</time>
  <course>109.42</course>
  <speed>25.712568910943148</speed>
  <fix>3d</fix>
</trkpt>
<trkpt lat="-27.2744572" lon="151.2892403">
  <ele>378.46</ele>
  <time>2026-09-01T19:55:34Z</time>
  <course>107.86</course>
  <speed>25.92</speed>
  <fix>3d</fix>
</trkpt>
<trkpt lat="-27.2744761" lon="151.2893132">
  <ele>379.11</ele>
  <time>2026-09-01T19:55:34Z</time>
  <course>108.49</course>
  <speed>25.649571146512372</speed>
  <fix>3d</fix>
</trkpt>
<trkpt lat="-27.2744707" lon="151.2892904">
  <ele>378.9</ele>
  <time>2026-09-01T19:55:34Z</time>
  <course>105.77</course>
  <speed>25.77</speed>
  <fix>3d</fix>
</trkpt>
<trkpt lat="-27.2744821" lon="151.2893383">
  <ele>379.27</ele>
  <time>2026-09-01T19:55:34Z</time>
  <course>107.7</course>
  <speed>25.59390552455799</speed>
  <fix>3d</fix>
</trkpt>
<trkpt lat="-27.2744707" lon="151.2892904">
  <ele>378.9</ele>
  <time>2026-09-01T19:55:34Z</time>
  <course>105.77</course>
  <speed>25.77</speed>
  <fix>3d</fix>
</trkpt>
<trkpt lat="-27.2744878" lon="151.2893634">
  <ele>379.4</ele>
  <time>2026-09-01T19:55:34Z</time>
  <course>106.9</course>
  <speed>25.55115065902121</speed>
  <fix>3d</fix>
</trkpt>
<trkpt lat="-27.2744826" lon="151.2893406">
  <ele>379.26</ele>
  <time>2026-09-01T19:55:34Z</time>
  <course>104.33</course>
  <speed>25.64</speed>
  <fix>3d</fix>
</trkpt>
<trkpt lat="-27.2744933" lon="151.2893885">
  <ele>379.51</ele>
  <time>2026-09-01T19:55:34Z</time>
  <course>106.1</course>
  <speed>25.50341545754215</speed>
  <fix>3d</fix>
</trkpt>
<trkpt lat="-27.2744826" lon="151.2893406">
  <ele>379.26</ele>
  <time>2026-09-01T19:55:34Z</time>
  <course>104.33</course>
  <speed>25.64</speed>
  <fix>3d</fix>
</trkpt>
<trkpt lat="-27.2744986" lon="151.2894137">
  <ele>379.59</ele>
  <time>2026-09-01T19:55:34Z</time>
  <course>105.33</course>
  <speed>25.477340913054487</speed>
  <fix>3d</fix>
</trkpt>
<trkpt lat="-27.2744935" lon="151.2893909">
  <ele>379.5</ele>
  <time>2026-09-01T19:55:34Z</time>
  <course>103.21</course>
  <speed>25.54</speed>
  <fix>3d</fix>
</trkpt>
<trkpt lat="-27.2745036" lon="151.2894389">
  <ele>379.65</ele>
  <time>2026-09-01T19:55:34Z</time>
  <course>104.67</course>
  <speed>25.457875009513263</speed>
  <fix>3d</fix>
</trkpt>
<trkpt lat="-27.2744935" lon="151.2893909">
  <ele>379.5</ele>
  <time>2026-09-01T19:55:34Z</time>
  <course>103.21</course>
  <speed>25.54</speed>
  <fix>3d</fix>
</trkpt>
<trkpt lat="-27.2745084" lon="151.2894639">
  <ele>379.71</ele>
  <time>2026-09-01T19:55:34Z</time>
  <course>104.05</course>
  <speed>25.430552491049028</speed>
  <fix>3d</fix>
</trkpt>
<trkpt lat="-27.2745036" lon="151.2894412">
  <ele>379.66</ele>
  <time>2026-09-01T19:55:34Z</time>
  <course>102.19</course>
  <speed>25.47</speed>
  <fix>3d</fix>
</trkpt>
<trkpt lat="-27.2745131" lon="151.2894892">
  <ele>379.76</ele>
  <time>2026-09-01T19:55:34Z</time>
  <course>103.45</course>
  <speed>25.42094412094091</speed>
  <fix>3d</fix>
</trkpt>
<trkpt lat="-27.2745036" lon="151.2894412">
  <ele>379.66</ele>
  <time>2026-09-01T19:55:34Z</time>
  <course>102.19</course>
  <speed>25.47</speed>
  <fix>3d</fix>
</trkpt>
<trkpt lat="-27.2745175" lon="151.2895145">
  <ele>379.81</ele>
  <time>2026-09-01T19:55:34Z</time>
  <course>102.91</course>
  <speed>25.416675628413724</speed>
  <fix>3d</fix>
</trkpt>
<trkpt lat="-27.2745129" lon="151.2894916">
  <ele>379.78</ele>
  <time>2026-09-01T19:55:34Z</time>
  <course>101.3</course>
  <speed>25.43</speed>
  <fix>3d</fix>
</trkpt>
<trkpt lat="-27.2745219" lon="151.2895398">
  <ele>379.86</ele>
  <time>2026-09-01T19:55:34Z</time>
  <course>102.47</course>
  <speed>25.421132940921417</speed>
  <fix>3d</fix>
</trkpt>
<trkpt lat="-27.2745129" lon="151.2894916">
  <ele>379.78</ele>
  <time>2026-09-01T19:55:34Z</time>
  <course>101.3</course>
  <speed>25.43</speed>
  <fix>3d</fix>
</trkpt>
<trkpt lat="-27.2745261" lon="151.2895653">
  <ele>379.93</ele>
  <time>2026-09-01T19:55:34Z</time>
  <course>102.16</course>
  <speed>25.425734994292693</speed>
  <fix>3d</fix>
</trkpt>
<trkpt lat="-27.2745216" lon="151.289542">
  <ele>379.9</ele>
  <time>2026-09-01T19:55:34Z</time>
  <course>100.66</course>
  <speed>25.42</speed>
  <fix>3d</fix>
</trkpt>
<trkpt lat="-27.2745303" lon="151.2895907">
  <ele>380.01</ele>
  <time>2026-09-01T19:55:34Z</time>
  <course>101.9</course>
  <speed>25.439813285478337</speed>
  <fix>3d</fix>
</trkpt>
<trkpt lat="-27.2745216" lon="151.289542">
  <ele>379.9</ele>
  <time>2026-09-01T19:55:34Z</time>
  <course>100.66</course>
  <speed>25.42</speed>
  <fix>3d</fix>
</trkpt>
<trkpt lat="-27.2745345" lon="151.2896161">
  <ele>380.1</ele>
  <time>2026-09-01T19:55:34Z</time>
  <course>101.77</course>
  <speed>25.445384650266146</speed>
  <fix>3d</fix>
</trkpt>
<trkpt lat="-27.2745299" lon="151.2895925">
  <ele>380.06</ele>
  <time>2026-09-01T19:55:34Z</time>
  <course>100.42</course>
  <speed>25.43</speed>
  <fix>3d</fix>
</trkpt>
<trkpt lat="-27.2745387" lon="151.2896414">
  <ele>380.21</ele>
  <time>2026-09-01T19:55:34Z</time>
  <course>101.67</course>
  <speed>25.458517238833842</speed>
  <fix>3d</fix>
</trkpt>
<trkpt lat="-27.2745299" lon="151.2895925">
  <ele>380.06</ele>
  <time>2026-09-01T19:55:34Z</time>
  <course>100.42</course>
  <speed>25.43</speed>
  <fix>3d</fix>
</trkpt>
<trkpt lat="-27.274543" lon="151.2896667">
  <ele>380.33</ele>
  <time>2026-09-01T19:55:34Z</time>
  <course>101.66</course>
  <speed>25.48339851746623</speed>
  <fix>3d</fix>
</trkpt>
<trkpt lat="-27.2745383" lon="151.289643">
  <ele>380.27</ele>
  <time>2026-09-01T19:55:34Z</time>
  <course>100.66</course>
  <speed>25.45</speed>
  <fix>3d</fix>
</trkpt>
<trkpt lat="-27.2745474" lon="151.2896919">
  <ele>380.48</ele>
  <time>2026-09-01T19:55:34Z</time>
  <course>101.91</course>
  <speed>25.489513530077424</speed>
  <fix>3d</fix>
</trkpt>
<trkpt lat="-27.2745383" lon="151.289643">
  <ele>380.27</ele>
  <time>2026-09-01T19:55:34Z</time>
  <course>100.66</course>
  <speed>25.45</speed>
  <fix>3d</fix>
</trkpt>
<trkpt lat="-27.274552" lon="151.289717">
  <ele>380.65</ele>
  <time>2026-09-01T19:55:34Z</time>
  <course>102.22</course>
  <speed>25.497595965110122</speed>
  <fix>3d</fix>
</trkpt>
<trkpt lat="-27.274547" lon="151.2896936">
  <ele>380.54</ele>
  <time>2026-09-01T19:55:34Z</time>
  <course>101.37</course>
  <speed>25.47</speed>
  <fix>3d</fix>
</trkpt>
<trkpt lat="-27.2745568" lon="151.2897421">
  <ele>380.84</ele>
  <time>2026-09-01T19:55:34Z</time>
  <course>102.56</course>
  <speed>25.504636833328956</speed>
  <fix>3d</fix>
</trkpt>
<trkpt lat="-27.274547" lon="151.2896936">
  <ele>380.54</ele>
  <time>2026-09-01T19:55:34Z</time>
  <course>101.37</course>
  <speed>25.47</speed>
  <fix>3d</fix>
</trkpt>
<trkpt lat="-27.2745619" lon="151.2897671">
  <ele>381.05</ele>
  <time>2026-09-01T19:55:34Z</time>
  <course>103.04</course>
  <speed>25.513927569074895</speed>
  <fix>3d</fix>
</trkpt>
<trkpt lat="-27.2745564" lon="151.2897439">
  <ele>380.9</ele>
  <time>2026-09-01T19:55:34Z</time>
  <course>102.5</course>
  <speed>25.5</speed>
  <fix>3d</fix>
</trkpt>
<trkpt lat="-27.2745672" lon="151.2897919">
  <ele>381.28</ele>
  <time>2026-09-01T19:55:34Z</time>
  <course>103.78</course>
  <speed>25.51480354617687</speed>
  <fix>3d</fix>
</trkpt>
<trkpt lat="-27.2745564" lon="151.2897439">
  <ele>380.9</ele>
  <time>2026-09-01T19:55:34Z</time>
  <course>102.5</course>
  <speed>25.5</speed>
  <fix>3d</fix>
</trkpt>
<trkpt lat="-27.2745729" lon="151.2898168">
  <ele>381.52</ele>
  <time>2026-09-01T19:55:34Z</time>
  <course>104.65</course>
  <speed>25.52086597276824</speed>
  <fix>3d</fix>
</trkpt>
<trkpt lat="-27.2745669" lon="151.2897942">
  <ele>381.34</ele>
  <time>2026-09-01T19:55:34Z</time>
  <course>103.98</course>
  <speed>25.53</speed>
  <fix>3d</fix>
</trkpt>
<trkpt lat="-27.2745789" lon="151.2898415">
  <ele>381.79</ele>
  <time>2026-09-01T19:55:34Z</time>
  <course>105.65</course>
  <speed>25.525761496966155</speed>
  <fix>3d</fix>
</trkpt>
<trkpt lat="-27.2745669" lon="151.2897942">
  <ele>381.34</ele>
  <time>2026-09-01T19:55:34Z</time>
  <course>103.98</course>
  <speed>25.53</speed>
  <fix>3d</fix>
</trkpt>
<trkpt lat="-27.2745853" lon="151.2898661">
  <ele>382.07</ele>
  <time>2026-09-01T19:55:34Z</time>
  <course>106.74</course>
  <speed>25.534793909487504</speed>
  <fix>3d</fix>
</trkpt>
<trkpt lat="-27.2745787" lon="151.2898441">
  <ele>381.85</ele>
  <time>2026-09-01T19:55:34Z</time>
  <course>105.92</course>
  <speed>25.56</speed>
  <fix>3d</fix>
</trkpt>
<trkpt lat="-27.2745923" lon="151.2898907">
  <ele>382.37</ele>
  <time>2026-09-01T19:55:34Z</time>
  <course>107.88</course>
  <speed>25.55128176824012</speed>
  <fix>3d</fix>
</trkpt>
<trkpt lat="-27.2745787" lon="151.2898441">
  <ele>381.85</ele>
  <time>2026-09-01T19:55:34Z</time>
  <course>105.92</course>
  <speed>25.56</speed>
  <fix>3d</fix>
</trkpt>
<trkpt lat="-27.2745999" lon="151.2899153">
  <ele>382.68</ele>
  <time>2026-09-01T19:55:34Z</time>
  <course>109.08</course>
  <speed>25.561553160948574</speed>
  <fix>3d</fix>
</trkpt>
<trkpt lat="-27.2745923" lon="151.2898936">
  <ele>382.43</ele>
  <time>2026-09-01T19:55:34Z</time>
  <course>108.46</course>
  <speed>25.58</speed>
  <fix>3d</fix>
</trkpt>
<trkpt lat="-27.274608" lon="151.2899395">
  <ele>383.01</ele>
  <time>2026-09-01T19:55:34Z</time>
  <course>110.43</course>
  <speed>25.568521662387912</speed>
  <fix>3d</fix>
</trkpt>
<trkpt lat="-27.2745923" lon="151.2898936">
  <ele>382.43</ele>
  <time>2026-09-01T19:55:34Z</time>
  <course>108.46</course>
  <speed>25.58</speed>
  <fix>3d</fix>
</trkpt>
<trkpt lat="-27.2746167" lon="151.2899635">
  <ele>383.36</ele>
  <time>2026-09-01T19:55:34Z</time>
  <course>111.97</course>
  <speed>25.56931950600172</speed>
  <fix>3d</fix>
</trkpt>
<trkpt lat="-27.274608" lon="151.2899423">
  <ele>383.08</ele>
  <time>2026-09-01T19:55:34Z</time>
  <course>111.49</course>
  <speed>25.61</speed>
  <fix>3d</fix>
</trkpt>
<trkpt lat="-27.2746259" lon="151.2899869">
  <ele>383.73</ele>
  <time>2026-09-01T19:55:34Z</time>
  <course>113.44</course>
  <speed>25.564052886817457</speed>
  <fix>3d</fix>
</trkpt>
<trkpt lat="-27.274608" lon="151.2899423">
  <ele>383.08</ele>
  <time>2026-09-01T19:55:34Z</time>
  <course>111.49</course>
  <speed>25.61</speed>
  <fix>3d</fix>
</trkpt>
<trkpt lat="-27.2746358" lon="151.2900102">
  <ele>384.12</ele>
  <time>2026-09-01T19:55:34Z</time>
  <course>114.77</course>
  <speed>25.5537864121934</speed>
  <fix>3d</fix>
</trkpt>
<trkpt lat="-27.274626" lon="151.2899899">
  <ele>383.8</ele>
  <time>2026-09-01T19:55:34Z</time>
  <course>114.77</course>
  <speed>25.62</speed>
  <fix>3d</fix>
</trkpt>
<trkpt lat="-27.2746462" lon="151.2900332">
  <ele>384.53</ele>
  <time>2026-09-01T19:55:34Z</time>
  <course>116.07</course>
  <speed>25.552956776075835</speed>
  <fix>3d</fix>
</trkpt>
<trkpt lat="-27.274626" lon="151.2899899">
  <ele>383.8</ele>
  <time>2026-09-01T19:55:34Z</time>
  <course>114.77</course>
  <speed>25.62</speed>
  <fix>3d</fix>
</trkpt>
<trkpt lat="-27.2746571" lon="151.2900559">
  <ele>384.95</ele>
  <time>2026-09-01T19:55:34Z</time>
  <course>117.34</course>
  <speed>25.56167639259992</speed>
  <fix>3d</fix>
</trkpt>
<trkpt lat="-27.2746464" lon="151.2900363">
  <ele>384.59</ele>
  <time>2026-09-01T19:55:34Z</time>
  <course>117.88</course>
  <speed>25.63</speed>
  <fix>3d</fix>
</trkpt>
<trkpt lat="-27.2746685" lon="151.2900785">
  <ele>385.39</ele>
  <time>2026-09-01T19:55:34Z</time>
  <course>118.55</course>
  <speed>25.557390320609812</speed>
  <fix>3d</fix>
</trkpt>
<trkpt lat="-27.2746464" lon="151.2900363">
  <ele>384.59</ele>
  <time>2026-09-01T19:55:34Z</time>
  <course>117.88</course>
  <speed>25.63</speed>
  <fix>3d</fix>
</trkpt>
<trkpt lat="-27.2746803" lon="151.2901006">
  <ele>385.84</ele>
  <time>2026-09-01T19:55:34Z</time>
  <course>119.7</course>
  <speed>25.551724012285355</speed>
  <fix>3d</fix>
</trkpt>
<trkpt lat="-27.2746689" lon="151.2900814">
  <ele>385.45</ele>
  <time>2026-09-01T19:55:34Z</time>
  <course>120.48</course>
  <speed>25.64</speed>
  <fix>3d</fix>
</trkpt>
<trkpt lat="-27.2746925" lon="151.2901227">
  <ele>386.29</ele>
  <time>2026-09-01T19:55:34Z</time>
  <course>120.71</course>
  <speed>25.55923512157592</speed>
  <fix>3d</fix>
</trkpt>
<trkpt lat="-27.2746689" lon="151.2900814">
  <ele>385.45</ele>
  <time>2026-09-01T19:55:34Z</time>
  <course>120.48</course>
  <speed>25.64</speed>
  <fix>3d</fix>
</trkpt>
<trkpt lat="-27.274705" lon="151.2901445">
  <ele>386.75</ele>
  <time>2026-09-01T19:55:34Z</time>
  <course>121.62</course>
  <speed>25.566276615886014</speed>
  <fix>3d</fix>
</trkpt>
<trkpt lat="-27.2746931" lon="151.2901256">
  <ele>386.34</ele>
  <time>2026-09-01T19:55:34Z</time>
  <course>122.61</course>
  <speed>25.66</speed>
  <fix>3d</fix>
</trkpt>
<trkpt lat="-27.2747179" lon="151.2901662">
  <ele>387.2</ele>
  <time>2026-09-01T19:55:34Z</time>
  <course>122.35</course>
  <speed>25.5867641564931</speed>
  <fix>3d</fix>
</trkpt>
<trkpt lat="-27.2746931" lon="151.2901256">
  <ele>386.34</ele>
  <time>2026-09-01T19:55:34Z</time>
  <course>122.61</course>
  <speed>25.66</speed>
  <fix>3d</fix>
</trkpt>
<trkpt lat="-27.2747309" lon="151.2901877">
  <ele>387.65</ele>
  <time>2026-09-01T19:55:34Z</time>
  <course>123.04</course>
  <speed>25.61010152264141</speed>
  <fix>3d</fix>
</trkpt>
<trkpt lat="-27.2747186" lon="151.2901689">
  <ele>387.24</ele>
  <time>2026-09-01T19:55:34Z</time>
  <course>124.26</course>
  <speed>25.67</speed>
  <fix>3d</fix>
</trkpt>
<trkpt lat="-27.2747443" lon="151.2902092">
  <ele>388.1</ele>
  <time>2026-09-01T19:55:34Z</time>
  <course>123.65</course>
  <speed>25.635073629697263</speed>
  <fix>3d</fix>
</trkpt>
<trkpt lat="-27.2747186" lon="151.2901689">
  <ele>387.24</ele>
  <time>2026-09-01T19:55:34Z</time>
  <course>124.26</course>
  <speed>25.67</speed>
  <fix>3d</fix>
</trkpt>
<trkpt lat="-27.2747577" lon="151.2902305">
  <ele>388.55</ele>
  <time>2026-09-01T19:55:34Z</time>
  <course>124.24</course>
  <speed>25.643192078990477</speed>
  <fix>3d</fix>
</trkpt>
<trkpt lat="-27.2747449" lon="151.2902114">
  <ele>388.13</ele>
  <time>2026-09-01T19:55:34Z</time>
  <course>125.43</course>
  <speed>25.69</speed>
  <fix>3d</fix>
</trkpt>
<trkpt lat="-27.2747713" lon="151.2902517">
  <ele>388.99</ele>
  <time>2026-09-01T19:55:34Z</time>
  <course>124.84</course>
  <speed>25.662667437349533</speed>
  <fix>3d</fix>
</trkpt>
<trkpt lat="-27.2747449" lon="151.2902114">
  <ele>388.13</ele>
  <time>2026-09-01T19:55:34Z</time>
  <course>125.43</course>
  <speed>25.69</speed>
  <fix>3d</fix>
</trkpt>
<trkpt lat="-27.274785" lon="151.2902729">
  <ele>389.43</ele>
  <time>2026-09-01T19:55:34Z</time>
  <course>125.16</course>
  <speed>25.669483828078818</speed>
  <fix>3d</fix>
</trkpt>
<trkpt lat="-27.2747719" lon="151.2902535">
  <ele>389.01</ele>
  <time>2026-09-01T19:55:34Z</time>
  <course>126.18</course>
  <speed>25.7</speed>
  <fix>3d</fix>
</trkpt>
<trkpt lat="-27.2747988" lon="151.290294">
  <ele>389.87</ele>
  <time>2026-09-01T19:55:34Z</time>
  <course>125.49</course>
  <speed>25.682976852382204</speed>
  <fix>3d</fix>
</trkpt>
<trkpt lat="-27.2747719" lon="151.2902535">
  <ele>389.01</ele>
  <time>2026-09-01T19:55:34Z</time>
  <course>126.18</course>
  <speed>25.7</speed>
  <fix>3d</fix>
</trkpt>
<trkpt lat="-27.2748126" lon="151.2903151">
  <ele>390.3</ele>
  <time>2026-09-01T19:55:34Z</time>
  <course>125.83</course>
  <speed>25.696958964048644</speed>
  <fix>3d</fix>
</trkpt>
<trkpt lat="-27.2747994" lon="151.2902954">
  <ele>389.88</ele>
  <time>2026-09-01T19:55:34Z</time>
  <course>126.55</course>
  <speed>25.7</speed>
  <fix>3d</fix>
</trkpt>
<trkpt lat="-27.2748263" lon="151.290336">
  <ele>390.72</ele>
  <time>2026-09-01T19:55:34Z</time>
  <course>126.07</course>
  <speed>25.707139086253843</speed>
  <fix>3d</fix>
</trkpt>
<trkpt lat="-27.2747994" lon="151.2902954">
  <ele>389.88</ele>
  <time>2026-09-01T19:55:34Z</time>
  <course>126.55</course>
  <speed>25.7</speed>
  <fix>3d</fix>
</trkpt>
<trkpt lat="-27.27484" lon="151.290357">
  <ele>391.13</ele>
  <time>2026-09-01T19:55:34Z</time>
  <course>126.23</course>
  <speed>25.715726705656213</speed>
  <fix>3d</fix>
</trkpt>
<trkpt lat="-27.274827" lon="151.2903372">
  <ele>390.72</ele>
  <time>2026-09-01T19:55:34Z</time>
  <course>126.55</course>
  <speed>25.71</speed>
  <fix>3d</fix>
</trkpt>
<trkpt lat="-27.2748536" lon="151.290378">
  <ele>391.55</ele>
  <time>2026-09-01T19:55:34Z</time>
  <course>126.24</course>
  <speed>25.717079927550095</speed>
  <fix>3d</fix>
</trkpt>
<trkpt lat="-27.274827" lon="151.2903372">
  <ele>390.72</ele>
  <time>2026-09-01T19:55:34Z</time>
  <course>126.55</course>
  <speed>25.71</speed>
  <fix>3d</fix>
</trkpt>
<trkpt lat="-27.2748671" lon="151.290399">
  <ele>391.97</ele>
  <time>2026-09-01T19:55:34Z</time>
  <course>126.02</course>
  <speed>25.719838646461216</speed>
  <fix>3d</fix>
</trkpt>
<trkpt lat="-27.2748544" lon="151.290379">
  <ele>391.55</ele>
  <time>2026-09-01T19:55:34Z</time>
  <course>126.22</course>
  <speed>25.72</speed>
  <fix>3d</fix>
</trkpt>
<trkpt lat="-27.2748804" lon="151.2904201">
  <ele>392.39</ele>
  <time>2026-09-01T19:55:34Z</time>
  <course>125.81</course>
  <speed>25.7306432099938</speed>
  <fix>3d</fix>
</trkpt>
<trkpt lat="-27.2748544" lon="151.290379">
  <ele>391.55</ele>
  <time>2026-09-01T19:55:34Z</time>
  <course>126.22</course>
  <speed>25.72</speed>
  <fix>3d</fix>
</trkpt>
<trkpt lat="-27.2748937" lon="151.2904413">
  <ele>392.81</ele>
  <time>2026-09-01T19:55:34Z</time>
  <course>125.57</course>
  <speed>25.728291820484316</speed>
  <fix>3d</fix>
</trkpt>
<trkpt lat="-27.2748815" lon="151.2904211">
  <ele>392.38</ele>
  <time>2026-09-01T19:55:34Z</time>
  <course>125.5</course>
  <speed>25.72</speed>
  <fix>3d</fix>
</trkpt>
<trkpt lat="-27.2749068" lon="151.2904627">
  <ele>393.22</ele>
  <time>2026-09-01T19:55:34Z</time>
  <course>125.31</course>
  <speed>25.71942845399174</speed>
  <fix>3d</fix>
</trkpt>
<trkpt lat="-27.2748815" lon="151.2904211">
  <ele>392.38</ele>
  <time>2026-09-01T19:55:34Z</time>
  <course>125.5</course>
  <speed>25.72</speed>
  <fix>3d</fix>
</trkpt>
<trkpt lat="-27.2749196" lon="151.2904842">
  <ele>393.64</ele>
  <time>2026-09-01T19:55:34Z</time>
  <course>124.86</course>
  <speed>25.718837454286305</speed>
  <fix>3d</fix>
</trkpt>
<trkpt lat="-27.274908" lon="151.2904636">
  <ele>393.2</ele>
  <time>2026-09-01T19:55:34Z</time>
  <course>124.42</course>
  <speed>25.72</speed>
  <fix>3d</fix>
</trkpt>
<trkpt lat="-27.2749323" lon="151.2905058">
  <ele>394.07</ele>
  <time>2026-09-01T19:55:34Z</time>
  <course>124.33</course>
  <speed>25.713630626576247</speed>
  <fix>3d</fix>
</trkpt>
<trkpt lat="-27.274908" lon="151.2904636">
  <ele>393.2</ele>
  <time>2026-09-01T19:55:34Z</time>
  <course>124.42</course>
  <speed>25.72</speed>
  <fix>3d</fix>
</trkpt>
<trkpt lat="-27.2749447" lon="151.2905278">
  <ele>394.49</ele>
  <time>2026-09-01T19:55:34Z</time>
  <course>123.67</course>
  <speed>25.72191283711225</speed>
  <fix>3d</fix>
</trkpt>
<trkpt lat="-27.2749337" lon="151.2905068">
  <ele>394.03</ele>
  <time>2026-09-01T19:55:34Z</time>
  <course>123.07</course>
  <speed>25.71</speed>
  <fix>3d</fix>
</trkpt>
<trkpt lat="-27.274957" lon="151.29055">
  <ele>394.92</ele>
  <time>2026-09-01T19:55:34Z</time>
  <course>122.97</course>
  <speed>25.73345876480657</speed>
  <fix>3d</fix>
</trkpt>
<trkpt lat="-27.2749337" lon="151.2905068">
  <ele>394.03</ele>
  <time>2026-09-01T19:55:34Z</time>
  <course>123.07</course>
  <speed>25.71</speed>
  <fix>3d</fix>
</trkpt>
<trkpt lat="-27.2749688" lon="151.2905724">
  <ele>395.34</ele>
  <time>2026-09-01T19:55:34Z</time>
  <course>122.21</course>
  <speed>25.752865859938776</speed>
  <fix>3d</fix>
</trkpt>
<trkpt lat="-27.2749583" lon="151.2905508">
  <ele>394.87</ele>
  <time>2026-09-01T19:55:34Z</time>
  <course>121.43</course>
  <speed>25.71</speed>
  <fix>3d</fix>
</trkpt>
<trkpt lat="-27.2749805" lon="151.2905951">
  <ele>395.77</ele>
  <time>2026-09-01T19:55:34Z</time>
  <course>121.34</course>
  <speed>25.75568480937752</speed>
  <fix>3d</fix>
</trkpt>
<trkpt lat="-27.2749583" lon="151.2905508">
  <ele>394.87</ele>
  <time>2026-09-01T19:55:34Z</time>
  <course>121.43</course>
  <speed>25.71</speed>
  <fix>3d</fix>
</trkpt>
<trkpt lat="-27.2749917" lon="151.2906179">
  <ele>396.21</ele>
  <time>2026-09-01T19:55:34Z</time>
  <course>120.44</course>
  <speed>25.76534494238336</speed>
  <fix>3d</fix>
</trkpt>
<trkpt lat="-27.2749818" lon="151.2905956">
  <ele>395.72</ele>
  <time>2026-09-01T19:55:34Z</time>
  <course>119.54</course>
  <speed>25.71</speed>
  <fix>3d</fix>
</trkpt>
<trkpt lat="-27.2750026" lon="151.2906411">
  <ele>396.64</ele>
  <time>2026-09-01T19:55:34Z</time>
  <course>119.46</course>
  <speed>25.778696631133233</speed>
  <fix>3d</fix>
</trkpt>
<trkpt lat="-27.2749818" lon="151.2905956">
  <ele>395.72</ele>
  <time>2026-09-01T19:55:34Z</time>
  <course>119.54</course>
  <speed>25.71</speed>
  <fix>3d</fix>
</trkpt>
<trkpt lat="-27.2750131" lon="151.2906644">
  <ele>397.08</ele>
  <time>2026-09-01T19:55:34Z</time>
  <course>118.4</course>
  <speed>25.791816531605523</speed>
  <fix>3d</fix>
</trkpt>
<trkpt lat="-27.2750038" lon="151.2906412">
  <ele>396.59</ele>
  <time>2026-09-01T19:55:34Z</time>
  <course>117.47</course>
  <speed>25.71</speed>
  <fix>3d</fix>
</trkpt>
<trkpt lat="-27.2750232" lon="151.290688">
  <ele>397.52</ele>
  <time>2026-09-01T19:55:34Z</time>
  <course>117.39</course>
  <speed>25.80570479564548</speed>
  <fix>3d</fix>
</trkpt>
<trkpt lat="-27.2750038" lon="151.2906412">
  <ele>396.59</ele>
  <time>2026-09-01T19:55:34Z</time>
  <course>117.47</course>
  <speed>25.71</speed>
  <fix>3d</fix>
</trkpt>
<trkpt lat="-27.2750329" lon="151.2907118">
  <ele>397.96</ele>
  <time>2026-09-01T19:55:34Z</time>
  <course>116.29</course>
  <speed>25.803104464385672</speed>
  <fix>3d</fix>
</trkpt>
<trkpt lat="-27.2750243" lon="151.2906878">
  <ele>397.47</ele>
  <time>2026-09-01T19:55:34Z</time>
  <course>115.27</course>
  <speed>25.71</speed>
  <fix>3d</fix>
</trkpt>
<trkpt lat="-27.2750422" lon="151.2907357">
  <ele>398.41</ele>
  <time>2026-09-01T19:55:34Z</time>
  <course>115.17</course>
  <speed>25.810772944644647</speed>
  <fix>3d</fix>
</trkpt>
<trkpt lat="-27.2750243" lon="151.2906878">
  <ele>397.47</ele>
  <time>2026-09-01T19:55:34Z</time>
  <course>115.27</course>
  <speed>25.71</speed>
  <fix>3d</fix>
</trkpt>
<trkpt lat="-27.275051" lon="151.2907599">
  <ele>398.85</ele>
  <time>2026-09-01T19:55:34Z</time>
  <course>114.11</course>
  <speed>25.797123870695355</speed>
  <fix>3d</fix>
</trkpt>
<trkpt lat="-27.2750432" lon="151.2907352">
  <ele>398.35</ele>
  <time>2026-09-01T19:55:34Z</time>
  <course>112.98</course>
  <speed>25.69</speed>
  <fix>3d</fix>
</trkpt>
<trkpt lat="-27.2750594" lon="151.2907842">
  <ele>399.3</ele>
  <time>2026-09-01T19:55:34Z</time>
  <course>113.02</course>
  <speed>25.79714131449452</speed>
  <fix>3d</fix>
</trkpt>
<trkpt lat="-27.2750432" lon="151.2907352">
  <ele>398.35</ele>
  <time>2026-09-01T19:55:34Z</time>
  <course>112.98</course>
  <speed>25.69</speed>
  <fix>3d</fix>
</trkpt>
<trkpt lat="-27.2750674" lon="151.2908087">
  <ele>399.74</ele>
  <time>2026-09-01T19:55:34Z</time>
  <course>112.01</course>
  <speed>25.797536704111884</speed>
  <fix>3d</fix>
</trkpt>
<trkpt lat="-27.2750604" lon="151.2907835">
  <ele>399.25</ele>
  <time>2026-09-01T19:55:34Z</time>
  <course>110.7</course>
  <speed>25.67</speed>
  <fix>3d</fix>
</trkpt>
<trkpt lat="-27.2750749" lon="151.2908332">
  <ele>400.19</ele>
  <time>2026-09-01T19:55:34Z</time>
  <course>110.97</course>
  <speed>25.77586661976664</speed>
  <fix>3d</fix>
</trkpt>
<trkpt lat="-27.2750604" lon="151.2907835">
  <ele>399.25</ele>
  <time>2026-09-01T19:55:34Z</time>
  <course>110.7</course>
  <speed>25.67</speed>
  <fix>3d</fix>
</trkpt>
<trkpt lat="-27.275082" lon="151.2908579">
  <ele>400.63</ele>
  <time>2026-09-01T19:55:34Z</time>
  <course>110.0</course>
  <speed>25.762695899303708</speed>
  <fix>3d</fix>
</trkpt>
<trkpt lat="-27.2750759" lon="151.2908325">
  <ele>400.14</ele>
  <time>2026-09-01T19:55:34Z</time>
  <course>108.51</course>
  <speed>25.65</speed>
  <fix>3d</fix>
</trkpt>
<trkpt lat="-27.2750888" lon="151.2908825">
  <ele>401.08</ele>
  <time>2026-09-01T19:55:34Z</time>
  <course>109.14</course>
  <speed>25.728000310945273</speed>
  <fix>3d</fix>
</trkpt>
<trkpt lat="-27.2750759" lon="151.2908325">
  <ele>400.14</ele>
  <time>2026-09-01T19:55:34Z</time>
  <course>108.51</course>
  <speed>25.65</speed>
  <fix>3d</fix>
</trkpt>
<trkpt lat="-27.2750951" lon="151.2909073">
  <ele>401.52</ele>
  <time>2026-09-01T19:55:34Z</time>
  <course>108.25</course>
  <speed>25.704032757526587</speed>
  <fix>3d</fix>
</trkpt>
<trkpt lat="-27.2750897" lon="151.2908818">
  <ele>401.03</ele>
  <time>2026-09-01T19:55:34Z</time>
  <course>106.53</course>
  <speed>25.61</speed>
  <fix>3d</fix>
</trkpt>
<trkpt lat="-27.2751012" lon="151.2909321">
  <ele>401.96</ele>
  <time>2026-09-01T19:55:34Z</time>
  <course>107.55</course>
  <speed>25.678896004306726</speed>
  <fix>3d</fix>
</trkpt>
<trkpt lat="-27.2750897" lon="151.2908818">
  <ele>401.03</ele>
  <time>2026-09-01T19:55:34Z</time>
  <course>106.53</course>
  <speed>25.61</speed>
  <fix>3d</fix>
</trkpt>
<trkpt lat="-27.2751069" lon="151.290957">
  <ele>402.4</ele>
  <time>2026-09-01T19:55:34Z</time>
  <course>106.97</course>
  <speed>25.650575042287063</speed>
  <fix>3d</fix>
</trkpt>
<trkpt lat="-27.2751022" lon="151.2909316">
  <ele>401.91</ele>
  <time>2026-09-01T19:55:34Z</time>
  <course>104.93</course>
  <speed>25.57</speed>
  <fix>3d</fix>
</trkpt>
<trkpt lat="-27.2751125" lon="151.2909818">
  <ele>402.83</ele>
  <time>2026-09-01T19:55:34Z</time>
  <course>106.38</course>
  <speed>25.612373962598625</speed>
  <fix>3d</fix>
</trkpt>
<trkpt lat="-27.2751022" lon="151.2909316">
  <ele>401.91</ele>
  <time>2026-09-01T19:55:34Z</time>
  <course>104.93</course>
  <speed>25.57</speed>
  <fix>3d</fix>
</trkpt>
<trkpt lat="-27.2751179" lon="151.2910065">
  <ele>403.24</ele>
  <time>2026-09-01T19:55:34Z</time>
  <course>105.85</course>
  <speed>25.58714716415255</speed>
  <fix>3d</fix>
</trkpt>
<trkpt lat="-27.2751135" lon="151.2909816">
  <ele>402.77</ele>
  <time>2026-09-01T19:55:34Z</time>
  <course>103.83</course>
  <speed>25.53</speed>
  <fix>3d</fix>
</trkpt>
<trkpt lat="-27.2751232" lon="151.2910316">
  <ele>403.66</ele>
  <time>2026-09-01T19:55:34Z</time>
  <course>105.4</course>
  <speed>25.554572976279605</speed>
  <fix>3d</fix>
</trkpt>
<trkpt lat="-27.2751135" lon="151.2909816">
  <ele>402.77</ele>
  <time>2026-09-01T19:55:34Z</time>
  <course>103.83</course>
  <speed>25.53</speed>
  <fix>3d</fix>
</trkpt>
<trkpt lat="-27.2751285" lon="151.2910566">
  <ele>404.06</ele>
  <time>2026-09-01T19:55:34Z</time>
  <course>105.08</course>
  <speed>25.528307817009726</speed>
  <fix>3d</fix>
</trkpt>
<trkpt lat="-27.2751242" lon="151.2910317">
  <ele>403.6</ele>
  <time>2026-09-01T19:55:34Z</time>
  <course>103.27</course>
  <speed>25.48</speed>
  <fix>3d</fix>
</trkpt>
<trkpt lat="-27.2751338" lon="151.2910817">
  <ele>404.46</ele>
  <time>2026-09-01T19:55:34Z</time>
  <course>104.83</course>
  <speed>25.505875793628416</speed>
  <fix>3d</fix>
</trkpt>
<trkpt lat="-27.2751242" lon="151.2910317">
  <ele>403.6</ele>
  <time>2026-09-01T19:55:34Z</time>
  <course>103.27</course>
  <speed>25.48</speed>
  <fix>3d</fix>
</trkpt>
<trkpt lat="-27.2751391" lon="151.2911068">
  <ele>404.85</ele>
  <time>2026-09-01T19:55:34Z</time>
  <course>104.66</course>
  <speed>25.506995118986477</speed>
  <fix>3d</fix>
</trkpt>
<trkpt lat="-27.2751347" lon="151.2910818">
  <ele>404.4</ele>
  <time>2026-09-01T19:55:34Z</time>
  <course>103.25</course>
  <speed>25.44</speed>
  <fix>3d</fix>
</trkpt>
<trkpt lat="-27.2751446" lon="151.291132">
  <ele>405.22</ele>
  <time>2026-09-01T19:55:34Z</time>
  <course>104.55</course>
  <speed>25.49340699082804</speed>
  <fix>3d</fix>
</trkpt>
<trkpt lat="-27.2751347" lon="151.2910818">
  <ele>404.4</ele>
  <time>2026-09-01T19:55:34Z</time>
  <course>103.25</course>
  <speed>25.44</speed>
  <fix>3d</fix>
</trkpt>
<trkpt lat="-27.2751501" lon="151.291157">
  <ele>405.59</ele>
  <time>2026-09-01T19:55:34Z</time>
  <course>104.56</course>
  <speed>25.483269021065567</speed>
  <fix>3d</fix>
</trkpt>
<trkpt lat="-27.2751453" lon="151.2911318">
  <ele>405.15</ele>
  <time>2026-09-01T19:55:34Z</time>
  <course>103.77</course>
  <speed>25.41</speed>
  <fix>3d</fix>
</trkpt>
<trkpt lat="-27.2751559" lon="151.291182">
  <ele>405.95</ele>
  <time>2026-09-01T19:55:34Z</time>
  <course>104.75</course>
  <speed>25.48037872559982</speed>
  <fix>3d</fix>
</trkpt>
<trkpt lat="-27.2751453" lon="151.2911318">
  <ele>405.15</ele>
  <time>2026-09-01T19:55:34Z</time>
  <course>103.77</course>
  <speed>25.41</speed>
  <fix>3d</fix>
</trkpt>
<trkpt lat="-27.275162" lon="151.291207">
  <ele>406.3</ele>
  <time>2026-09-01T19:55:34Z</time>
  <course>105.11</course>
  <speed>25.477021018949603</speed>
  <fix>3d</fix>
</trkpt>
<trkpt lat="-27.2751565" lon="151.2911815">
  <ele>405.87</ele>
  <time>2026-09-01T19:55:34Z</time>
  <course>104.81</course>
  <speed>25.4</speed>
  <fix>3d</fix>
</trkpt>
<trkpt lat="-27.2751684" lon="151.2912318">
  <ele>406.66</ele>
  <time>2026-09-01T19:55:34Z</time>
  <course>105.75</course>
  <speed>25.47284828989487</speed>
  <fix>3d</fix>
</trkpt>
<trkpt lat="-27.2751565" lon="151.2911815">
  <ele>405.87</ele>
  <time>2026-09-01T19:55:34Z</time>
  <course>104.81</course>
  <speed>25.4</speed>
  <fix>3d</fix>
</trkpt>
<trkpt lat="-27.2751751" lon="151.2912564">
  <ele>407.02</ele>
  <time>2026-09-01T19:55:34Z</time>
  <course>106.62</course>
  <speed>25.473284044268812</speed>
  <fix>3d</fix>
</trkpt>
<trkpt lat="-27.2751688" lon="151.2912309">
  <ele>406.58</ele>
  <time>2026-09-01T19:55:34Z</time>
  <course>106.4</course>
  <speed>25.39</speed>
  <fix>3d</fix>
</trkpt>
<trkpt lat="-27.2751822" lon="151.2912809">
  <ele>407.38</ele>
  <time>2026-09-01T19:55:34Z</time>
  <course>107.59</course>
  <speed>25.475372421222815</speed>
  <fix>3d</fix>
</trkpt>
<trkpt lat="-27.2751688" lon="151.2912309">
  <ele>406.58</ele>
  <time>2026-09-01T19:55:34Z</time>
  <course>106.4</course>
  <speed>25.39</speed>
  <fix>3d</fix>
</trkpt>
<trkpt lat="-27.2751897" lon="151.2913052">
  <ele>407.75</ele>
  <time>2026-09-01T19:55:34Z</time>
  <course>108.73</course>
  <speed>25.483002177922444</speed>
  <fix>3d</fix>
</trkpt>
<trkpt lat="-27.2751825" lon="151.29128">
  <ele>407.31</ele>
  <time>2026-09-01T19:55:34Z</time>
  <course>108.55</course>
  <speed>25.39</speed>
  <fix>3d</fix>
</trkpt>
<trkpt lat="-27.2751978" lon="151.2913291">
  <ele>408.13</ele>
  <time>2026-09-01T19:55:34Z</time>
  <course>110.0</course>
  <speed>25.465476630135946</speed>
  <fix>3d</fix>
</trkpt>
<trkpt lat="-27.2751825" lon="151.29128">
  <ele>407.31</ele>
  <time>2026-09-01T19:55:34Z</time>
  <course>108.55</course>
  <speed>25.39</speed>
  <fix>3d</fix>
</trkpt>
<trkpt lat="-27.2752063" lon="151.2913528">
  <ele>408.52</ele>
  <time>2026-09-01T19:55:34Z</time>
  <course>111.41</course>
  <speed>25.46090728941135</speed>
  <fix>3d</fix>
</trkpt>
<trkpt lat="-27.275198" lon="151.2913284">
  <ele>408.06</ele>
  <time>2026-09-01T19:55:34Z</time>
  <course>111.25</course>
  <speed>25.39</speed>
  <fix>3d</fix>
</trkpt>
<trkpt lat="-27.2752155" lon="151.2913761">
  <ele>408.91</ele>
  <time>2026-09-01T19:55:34Z</time>
  <course>112.97</course>
  <speed>25.44971709076547</speed>
  <fix>3d</fix>
</trkpt>
<trkpt lat="-27.275198" lon="151.2913284">
  <ele>408.06</ele>
  <time>2026-09-01T19:55:34Z</time>
  <course>111.25</course>
  <speed>25.39</speed>
  <fix>3d</fix>
</trkpt>
<trkpt lat="-27.2752252" lon="151.2913992">
  <ele>409.32</ele>
  <time>2026-09-01T19:55:34Z</time>
  <course>114.64</course>
  <speed>25.446807265352565</speed>
  <fix>3d</fix>
</trkpt>
<trkpt lat="-27.2752157" lon="151.2913757">
  <ele>408.84</ele>
  <time>2026-09-01T19:55:34Z</time>
  <course>114.45</course>
  <speed>25.39</speed>
  <fix>3d</fix>
</trkpt>
<trkpt lat="-27.2752356" lon="151.2914218">
  <ele>409.74</ele>
  <time>2026-09-01T19:55:34Z</time>
  <course>116.37</course>
  <speed>25.437649262461342</speed>
  <fix>3d</fix>
</trkpt>
<trkpt lat="-27.2752157" lon="151.2913757">
  <ele>408.84</ele>
  <time>2026-09-01T19:55:34Z</time>
  <course>114.45</course>
  <speed>25.39</speed>
  <fix>3d</fix>
</trkpt>
<trkpt lat="-27.2752466" lon="151.2914441">
  <ele>410.17</ele>
  <time>2026-09-01T19:55:34Z</time>
  <course>118.24</course>
  <speed>25.43354084668511</speed>
  <fix>3d</fix>
</trkpt>
<trkpt lat="-27.2752359" lon="151.2914217">
  <ele>409.67</ele>
  <time>2026-09-01T19:55:34Z</time>
  <course>118.04</course>
  <speed>25.4</speed>
  <fix>3d</fix>
</trkpt>
<trkpt lat="-27.2752582" lon="151.2914659">
  <ele>410.61</ele>
  <time>2026-09-01T19:55:34Z</time>
  <course>120.22</course>
  <speed>25.42192950977561</speed>
  <fix>3d</fix>
</trkpt>
<trkpt lat="-27.2752359" lon="151.2914217">
  <ele>409.67</ele>
  <time>2026-09-01T19:55:34Z</time>
  <course>118.04</course>
  <speed>25.4</speed>
  <fix>3d</fix>
</trkpt>
<trkpt lat="-27.2752705" lon="151.2914872">
  <ele>411.06</ele>
  <time>2026-09-01T19:55:34Z</time>
  <course>122.09</course>
  <speed>25.41395286058428</speed>
  <fix>3d</fix>
</trkpt>
<trkpt lat="-27.2752586" lon="151.2914662">
  <ele>410.55</ele>
  <time>2026-09-01T19:55:34Z</time>
  <course>121.9</course>
  <speed>25.41</speed>
  <fix>3d</fix>
</trkpt>
<trkpt lat="-27.2752833" lon="151.2915078">
  <ele>411.52</ele>
  <time>2026-09-01T19:55:34Z</time>
  <course>124.1</course>
  <speed>25.409023987552143</speed>
  <fix>3d</fix>
</trkpt>
<trkpt lat="-27.2752586" lon="151.2914662">
  <ele>410.55</ele>
  <time>2026-09-01T19:55:34Z</time>
  <course>121.9</course>
  <speed>25.41</speed>
  <fix>3d</fix>
</trkpt>
<trkpt lat="-27.2752969" lon="151.291528">
  <ele>411.98</ele>
  <time>2026-09-01T19:55:34Z</time>
  <course>126.25</course>
  <speed>25.40595402656629</speed>
  <fix>3d</fix>
</trkpt>
<trkpt lat="-27.2752841" lon="151.2915087">
  <ele>411.46</ele>
  <time>2026-09-01T19:55:34Z</time>
  <course>125.97</course>
  <speed>25.43</speed>
  <fix>3d</fix>
</trkpt>
<trkpt lat="-27.2753112" lon="151.2915478">
  <ele>412.46</ele>
  <time>2026-09-01T19:55:34Z</time>
  <course>128.44</course>
  <speed>25.39964172975674</speed>
  <fix>3d</fix>
</trkpt>
<trkpt lat="-27.2752841" lon="151.2915087">
  <ele>411.46</ele>
  <time>2026-09-01T19:55:34Z</time>
  <course>125.97</course>
  <speed>25.43</speed>
  <fix>3d</fix>
</trkpt>
<trkpt lat="-27.2753262" lon="151.2915669">
  <ele>412.94</ele>
  <time>2026-09-01T19:55:34Z</time>
  <course>130.7</course>
  <speed>25.393747261875316</speed>
  <fix>3d</fix>
</trkpt>
<trkpt lat="-27.2753123" lon="151.2915492">
  <ele>412.4</ele>
  <time>2026-09-01T19:55:34Z</time>
  <course>130.26</course>
  <speed>25.44</speed>
  <fix>3d</fix>
</trkpt>
<trkpt lat="-27.2753421" lon="151.2915856">
  <ele>413.43</ele>
  <time>2026-09-01T19:55:34Z</time>
  <course>132.86</course>
  <speed>25.392284261168783</speed>
  <fix>3d</fix>
</trkpt>
<trkpt lat="-27.2753123" lon="151.2915492">
  <ele>412.4</ele>
  <time>2026-09-01T19:55:34Z</time>
  <course>130.26</course>
  <speed>25.44</speed>
  <fix>3d</fix>
</trkpt>
<trkpt lat="-27.2753584" lon="151.2916034">
  <ele>413.93</ele>
  <time>2026-09-01T19:55:34Z</time>
  <course>135.14</course>
  <speed>25.396009529057906</speed>
  <fix>3d</fix>
</trkpt>
<trkpt lat="-27.2753432" lon="151.2915871">
  <ele>413.37</ele>
  <time>2026-09-01T19:55:34Z</time>
  <course>134.77</course>
  <speed>25.45</speed>
  <fix>3d</fix>
</trkpt>
<trkpt lat="-27.2753754" lon="151.2916204">
  <ele>414.44</ele>
  <time>2026-09-01T19:55:34Z</time>
  <course>137.43</course>
  <speed>25.391730937452845</speed>
  <fix>3d</fix>
</trkpt>
<trkpt lat="-27.2753432" lon="151.2915871">
  <ele>413.37</ele>
  <time>2026-09-01T19:55:34Z</time>
  <course>134.77</course>
  <speed>25.45</speed>
  <fix>3d</fix>
</trkpt>
<trkpt lat="-27.2753936" lon="151.2916373">
  <ele>414.96</ele>
  <time>2026-09-01T19:55:34Z</time>
  <course>139.73</course>
  <speed>25.394715985810908</speed>
  <fix>3d</fix>
</trkpt>
<trkpt lat="-27.2753767" lon="151.2916221">
  <ele>414.37</ele>
  <time>2026-09-01T19:55:34Z</time>
  <course>139.35</course>
  <speed>25.46</speed>
  <fix>3d</fix>
</trkpt>
<trkpt lat="-27.2754118" lon="151.2916528">
  <ele>415.48</ele>
  <time>2026-09-01T19:55:34Z</time>
  <course>142.0</course>
  <speed>25.39588155587437</speed>
  <fix>3d</fix>
</trkpt>
<trkpt lat="-27.2753767" lon="151.2916221">
  <ele>414.37</ele>
  <time>2026-09-01T19:55:34Z</time>
  <course>139.35</course>
  <speed>25.46</speed>
  <fix>3d</fix>
</trkpt>
<trkpt lat="-27.2754304" lon="151.2916674">
  <ele>415.99</ele>
  <time>2026-09-01T19:55:34Z</time>
  <course>144.2</course>
  <speed>25.391435563984956</speed>
  <fix>3d</fix>
</trkpt>
<trkpt lat="-27.2754126" lon="151.291654">
  <ele>415.39</ele>
  <time>2026-09-01T19:55:34Z</time>
  <course>143.95</course>
  <speed>25.46</speed>
  <fix>3d</fix>
</trkpt>
<trkpt lat="-27.2754496" lon="151.2916812">
  <ele>416.51</ele>
  <time>2026-09-01T19:55:34Z</time>
  <course>146.25</course>
  <speed>25.397938892752695</speed>
  <fix>3d</fix>
</trkpt>
<trkpt lat="-27.2754126" lon="151.291654">
  <ele>415.39</ele>
  <time>2026-09-01T19:55:35Z</time>
  <course>143.95</course>
  <speed>25.46</speed>
  <fix>3d</fix>
</trkpt>
<trkpt lat="-27.2754693" lon="151.2916942">
  <ele>417.03</ele>
  <time>2026-09-01T19:55:35Z</time>
  <course>148.42</course>
  <speed>25.3934164696285</speed>
  <fix>3d</fix>
</trkpt>
<trkpt lat="-27.2754506" lon="151.2916826">
  <ele>416.42</ele>
  <time>2026-09-01T19:55:35Z</time>
  <course>148.44</course>
  <speed>25.46</speed>
  <fix>3d</fix>
</trkpt>
<trkpt lat="-27.2754894" lon="151.2917064">
  <ele>417.55</ele>
  <time>2026-09-01T19:55:35Z</time>
  <course>150.63</course>
  <speed>25.398167256713624</speed>
  <fix>3d</fix>
</trkpt>
<trkpt lat="-27.2754506" lon="151.2916826">
  <ele>416.42</ele>
  <time>2026-09-01T19:55:35Z</time>
  <course>148.44</course>
  <speed>25.46</speed>
  <fix>3d</fix>
</trkpt>
<trkpt lat="-27.2755101" lon="151.2917178">
  <ele>418.08</ele>
  <time>2026-09-01T19:55:35Z</time>
  <course>152.88</course>
  <speed>25.391435563984956</speed>
  <fix>3d</fix>
</trkpt>
<trkpt lat="-27.2754905" lon="151.2917079">
  <ele>417.46</ele>
  <time>2026-09-01T19:55:35Z</time>
  <course>152.83</course>
  <speed>25.46</speed>
  <fix>3d</fix>
</trkpt>
<trkpt lat="-27.2755312" lon="151.2917284">
  <ele>418.59</ele>
  <time>2026-09-01T19:55:35Z</time>
  <course>155.06</course>
  <speed>25.383088858529412</speed>
  <fix>3d</fix>
</trkpt>
<trkpt lat="-27.2754905" lon="151.2917079">
  <ele>417.46</ele>
  <time>2026-09-01T19:55:35Z</time>
  <course>152.83</course>
  <speed>25.46</speed>
  <fix>3d</fix>
</trkpt>
<trkpt lat="-27.2755517" lon="151.2917375">
  <ele>419.09</ele>
  <time>2026-09-01T19:55:35Z</time>
  <course>157.19</course>
  <speed>25.380411738188958</speed>
  <fix>3d</fix>
</trkpt>
<trkpt lat="-27.275532" lon="151.2917296">
  <ele>418.49</ele>
  <time>2026-09-01T19:55:35Z</time>
  <course>157.26</course>
  <speed>25.45</speed>
  <fix>3d</fix>
</trkpt>
<trkpt lat="-27.2755733" lon="151.2917461">
  <ele>419.6</ele>
  <time>2026-09-01T19:55:35Z</time>
  <course>159.47</course>
  <speed>25.383768435754373</speed>
  <fix>3d</fix>
</trkpt>
<trkpt lat="-27.275532" lon="151.2917296">
  <ele>418.49</ele>
  <time>2026-09-01T19:55:35Z</time>
  <course>157.26</course>
  <speed>25.45</speed>
  <fix>3d</fix>
</trkpt>
<trkpt lat="-27.2755951" lon="151.2917538">
  <ele>420.1</ele>
  <time>2026-09-01T19:55:35Z</time>
  <course>161.69</course>
  <speed>25.369124935637807</speed>
  <fix>3d</fix>
</trkpt>
<trkpt lat="-27.2755748" lon="151.2917476">
  <ele>419.5</ele>
  <time>2026-09-01T19:55:35Z</time>
  <course>161.71</course>
  <speed>25.43</speed>
  <fix>3d</fix>
</trkpt>
<trkpt lat="-27.2756172" lon="151.2917605">
  <ele>420.61</ele>
  <time>2026-09-01T19:55:35Z</time>
  <course>163.85</course>
  <speed>25.367114538315153</speed>
  <fix>3d</fix>
</trkpt>
<trkpt lat="-27.2755748" lon="151.2917476">
  <ele>419.5</ele>
  <time>2026-09-01T19:55:35Z</time>
  <course>161.71</course>
  <speed>25.43</speed>
  <fix>3d</fix>
</trkpt>
<trkpt lat="-27.2756395" lon="151.2917662">
  <ele>421.11</ele>
  <time>2026-09-01T19:55:35Z</time>
  <course>166.07</course>
  <speed>25.35213008802219</speed>
  <fix>3d</fix>
</trkpt>
<trkpt lat="-27.2756187" lon="151.2917618">
  <ele>420.51</ele>
  <time>2026-09-01T19:55:35Z</time>
  <course>166.17</course>
  <speed>25.41</speed>
  <fix>3d</fix>
</trkpt>
<trkpt lat="-27.2756619" lon="151.291771">
  <ele>421.61</ele>
  <time>2026-09-01T19:55:35Z</time>
  <course>168.26</course>
  <speed>25.34545718664392</speed>
  <fix>3d</fix>
</trkpt>
<trkpt lat="-27.2756187" lon="151.2917618">
  <ele>420.51</ele>
  <time>2026-09-01T19:55:35Z</time>
  <course>166.17</course>
  <speed>25.41</speed>
  <fix>3d</fix>
</trkpt>
<trkpt lat="-27.2756843" lon="151.2917747">
  <ele>422.11</ele>
  <time>2026-09-01T19:55:35Z</time>
  <course>170.28</course>
  <speed>25.33907062226237</speed>
  <fix>3d</fix>
</trkpt>
<trkpt lat="-27.2756634" lon="151.2917722">
  <ele>421.51</ele>
  <time>2026-09-01T19:55:35Z</time>
  <course>170.58</course>
  <speed>25.38</speed>
  <fix>3d</fix>
</trkpt>
<trkpt lat="-27.275707" lon="151.2917776">
  <ele>422.6</ele>
  <time>2026-09-01T19:55:35Z</time>
  <course>172.37</course>
  <speed>25.33012830603114</speed>
  <fix>3d</fix>
</trkpt>
<trkpt lat="-27.2756634" lon="151.2917722">
  <ele>421.51</ele>
  <time>2026-09-01T19:55:35Z</time>
  <course>170.58</course>
  <speed>25.38</speed>
  <fix>3d</fix>
</trkpt>
<trkpt lat="-27.2757298" lon="151.2917795">
  <ele>423.09</ele>
  <time>2026-09-01T19:55:35Z</time>
  <course>174.55</course>
  <speed>25.333892318394348</speed>
  <fix>3d</fix>
</trkpt>
<trkpt lat="-27.2757085" lon="151.2917786">
  <ele>422.49</ele>
  <time>2026-09-01T19:55:35Z</time>
  <course>174.89</course>
  <speed>25.36</speed>
  <fix>3d</fix>
</trkpt>
<trkpt lat="-27.2757526" lon="151.2917804">
  <ele>423.57</ele>
  <time>2026-09-01T19:55:35Z</time>
  <course>176.69</course>
  <speed>25.32270325222013</speed>
  <fix>3d</fix>
</trkpt>
<trkpt lat="-27.2757085" lon="151.2917786">
  <ele>422.49</ele>
  <time>2026-09-01T19:55:35Z</time>
  <course>174.89</course>
  <speed>25.36</speed>
  <fix>3d</fix>
</trkpt>
<trkpt lat="-27.2757755" lon="151.2917804">
  <ele>424.05</ele>
  <time>2026-09-01T19:55:35Z</time>
  <course>178.98</course>
  <speed>25.32687307979412</speed>
  <fix>3d</fix>
</trkpt>
<trkpt lat="-27.275754" lon="151.2917813">
  <ele>423.45</ele>
  <time>2026-09-01T19:55:35Z</time>
  <course>179.16</course>
  <speed>25.35</speed>
  <fix>3d</fix>
</trkpt>
<trkpt lat="-27.2757983" lon="151.2917794">
  <ele>424.52</ele>
  <time>2026-09-01T19:55:35Z</time>
  <course>181.26</course>
  <speed>25.319346358071726</speed>
  <fix>3d</fix>
</trkpt>
<trkpt lat="-27.275754" lon="151.2917813">
  <ele>423.45</ele>
  <time>2026-09-01T19:55:35Z</time>
  <course>179.16</course>
  <speed>25.35</speed>
  <fix>3d</fix>
</trkpt>
<trkpt lat="-27.275821" lon="151.2917774">
  <ele>424.99</ele>
  <time>2026-09-01T19:55:35Z</time>
  <course>183.58</course>
  <speed>25.302904971564036</speed>
  <fix>3d</fix>
</trkpt>
<trkpt lat="-27.2757995" lon="151.29178">
  <ele>424.39</ele>
  <time>2026-09-01T19:55:35Z</time>
  <course>183.59</course>
  <speed>25.33</speed>
  <fix>3d</fix>
</trkpt>
<trkpt lat="-27.2758443" lon="151.2917742">
  <ele>425.47</ele>
  <time>2026-09-01T19:55:35Z</time>
  <course>185.84</course>
  <speed>25.288989699076552</speed>
  <fix>3d</fix>
</trkpt>
<trkpt lat="-27.2757995" lon="151.29178">
  <ele>424.39</ele>
  <time>2026-09-01T19:55:35Z</time>
  <course>183.59</course>
  <speed>25.33</speed>
  <fix>3d</fix>
</trkpt>
<trkpt lat="-27.2758664" lon="151.2917703">
  <ele>425.94</ele>
  <time>2026-09-01T19:55:35Z</time>
  <course>188.06</course>
  <speed>25.278370200628046</speed>
  <fix>3d</fix>
</trkpt>
<trkpt lat="-27.2758447" lon="151.2917749">
  <ele>425.32</ele>
  <time>2026-09-01T19:55:35Z</time>
  <course>188.13</course>
  <speed>25.31</speed>
  <fix>3d</fix>
</trkpt>
<trkpt lat="-27.2758887" lon="151.2917652">
  <ele>426.4</ele>
  <time>2026-09-01T19:55:35Z</time>
  <course>190.3</course>
  <speed>25.267073435599936</speed>
  <fix>3d</fix>
</trkpt>
<trkpt lat="-27.2758447" lon="151.2917749">
  <ele>425.32</ele>
  <time>2026-09-01T19:55:35Z</time>
  <course>188.13</course>
  <speed>25.31</speed>
  <fix>3d</fix>
</trkpt>
<trkpt lat="-27.2759108" lon="151.2917592">
  <ele>426.86</ele>
  <time>2026-09-01T19:55:35Z</time>
  <course>192.6</course>
  <speed>25.256096293766383</speed>
  <fix>3d</fix>
</trkpt>
<trkpt lat="-27.2758894" lon="151.2917656">
  <ele>426.23</ele>
  <time>2026-09-01T19:55:35Z</time>
  <course>192.66</course>
  <speed>25.29</speed>
  <fix>3d</fix>
</trkpt>
<trkpt lat="-27.2759326" lon="151.2917521">
  <ele>427.31</ele>
  <time>2026-09-01T19:55:35Z</time>
  <course>194.82</course>
  <speed>25.253213656879392</speed>
  <fix>3d</fix>
</trkpt>
<trkpt lat="-27.2758894" lon="151.2917656">
  <ele>426.23</ele>
  <time>2026-09-01T19:55:35Z</time>
  <course>192.66</course>
  <speed>25.29</speed>
  <fix>3d</fix>
</trkpt>
<trkpt lat="-27.2759542" lon="151.2917441">
  <ele>427.77</ele>
  <time>2026-09-01T19:55:35Z</time>
  <course>197.1</course>
  <speed>25.245522375264887</speed>
  <fix>3d</fix>
</trkpt>
<trkpt lat="-27.2759334" lon="151.2917525">
  <ele>427.14</ele>
  <time>2026-09-01T19:55:35Z</time>
  <course>197.2</course>
  <speed>25.27</speed>
  <fix>3d</fix>
</trkpt>
<trkpt lat="-27.2759757" lon="151.2917351">
  <ele>428.22</ele>
  <time>2026-09-01T19:55:35Z</time>
  <course>199.38</course>
  <speed>25.25458572220103</speed>
  <fix>3d</fix>
</trkpt>
<trkpt lat="-27.2759334" lon="151.2917525">
  <ele>427.14</ele>
  <time>2026-09-01T19:55:35Z</time>
  <course>197.2</course>
  <speed>25.27</speed>
  <fix>3d</fix>
</trkpt>
<trkpt lat="-27.2759967" lon="151.2917252">
  <ele>428.67</ele>
  <time>2026-09-01T19:55:35Z</time>
  <course>201.6</course>
  <speed>25.248613823336914</speed>
  <fix>3d</fix>
</trkpt>
<trkpt lat="-27.2759762" lon="151.2917354">
  <ele>428.05</ele>
  <time>2026-09-01T19:55:35Z</time>
  <course>201.71</course>
  <speed>25.26</speed>
  <fix>3d</fix>
</trkpt>
<trkpt lat="-27.2760173" lon="151.2917144">
  <ele>429.11</ele>
  <time>2026-09-01T19:55:35Z</time>
  <course>203.94</course>
  <speed>25.24556396676454</speed>
  <fix>3d</fix>
</trkpt>
<trkpt lat="-27.2759762" lon="151.2917354">
  <ele>428.05</ele>
  <time>2026-09-01T19:55:35Z</time>
  <course>201.71</course>
  <speed>25.26</speed>
  <fix>3d</fix>
</trkpt>
<trkpt lat="-27.2760375" lon="151.2917026">
  <ele>429.55</ele>
  <time>2026-09-01T19:55:35Z</time>
  <course>206.29</course>
  <speed>25.238700441979972</speed>
  <fix>3d</fix>
</trkpt>
<trkpt lat="-27.2760177" lon="151.2917147">
  <ele>428.94</ele>
  <time>2026-09-01T19:55:35Z</time>
  <course>206.26</course>
  <speed>25.25</speed>
  <fix>3d</fix>
</trkpt>
<trkpt lat="-27.2760573" lon="151.29169">
  <ele>430.0</ele>
  <time>2026-09-01T19:55:35Z</time>
  <course>208.57</course>
  <speed>25.22915971648679</speed>
  <fix>3d</fix>
</trkpt>
<trkpt lat="-27.2760177" lon="151.2917147">
  <ele>428.94</ele>
  <time>2026-09-01T19:55:35Z</time>
  <course>206.26</course>
  <speed>25.25</speed>
  <fix>3d</fix>
</trkpt>
<trkpt lat="-27.2760766" lon="151.2916764">
  <ele>430.44</ele>
  <time>2026-09-01T19:55:35Z</time>
  <course>210.76</course>
  <speed>25.234311958125588</speed>
  <fix>3d</fix>
</trkpt>
<trkpt lat="-27.2760575" lon="151.2916902">
  <ele>429.82</ele>
  <time>2026-09-01T19:55:35Z</time>
  <course>210.86</course>
  <speed>25.23</speed>
  <fix>3d</fix>
</trkpt>
<trkpt lat="-27.2760954" lon="151.291662">
  <ele>430.89</ele>
  <time>2026-09-01T19:55:35Z</time>
  <course>213.04</course>
  <speed>25.228119232316946</speed>
  <fix>3d</fix>
</trkpt>
<trkpt lat="-27.2760575" lon="151.2916902">
  <ele>429.82</ele>
  <time>2026-09-01T19:55:35Z</time>
  <course>210.86</course>
  <speed>25.23</speed>
  <fix>3d</fix>
</trkpt>
<trkpt lat="-27.2761136" lon="151.2916469">
  <ele>431.33</ele>
  <time>2026-09-01T19:55:35Z</time>
  <course>215.3</course>
  <speed>25.20854220299143</speed>
  <fix>3d</fix>
</trkpt>
<trkpt lat="-27.2760954" lon="151.2916624">
  <ele>430.71</ele>
  <time>2026-09-01T19:55:35Z</time>
  <course>215.4</course>
  <speed>25.21</speed>
  <fix>3d</fix>
</trkpt>
<trkpt lat="-27.2761307" lon="151.2916314">
  <ele>431.75</ele>
  <time>2026-09-01T19:55:35Z</time>
  <course>217.44</course>
  <speed>25.20406713211183</speed>
  <fix>3d</fix>
</trkpt>
<trkpt lat="-27.2760954" lon="151.2916624">
  <ele>430.71</ele>
  <time>2026-09-01T19:55:35Z</time>
  <course>215.4</course>
  <speed>25.21</speed>
  <fix>3d</fix>
</trkpt>
<trkpt lat="-27.2761479" lon="151.2916147">
  <ele>432.2</ele>
  <time>2026-09-01T19:55:35Z</time>
  <course>219.64</course>
  <speed>25.191752618664704</speed>
  <fix>3d</fix>
</trkpt>
<trkpt lat="-27.2761312" lon="151.2916313">
  <ele>431.59</ele>
  <time>2026-09-01T19:55:35Z</time>
  <course>219.89</course>
  <speed>25.19</speed>
  <fix>3d</fix>
</trkpt>
<trkpt lat="-27.2761644" lon="151.2915973">
  <ele>432.63</ele>
  <time>2026-09-01T19:55:35Z</time>
  <course>221.8</course>
  <speed>25.189243736166436</speed>
  <fix>3d</fix>
</trkpt>
<trkpt lat="-27.2761312" lon="151.2916313">
  <ele>431.59</ele>
  <time>2026-09-01T19:55:35Z</time>
  <course>219.89</course>
  <speed>25.19</speed>
  <fix>3d</fix>
</trkpt>
<trkpt lat="-27.2761804" lon="151.2915791">
  <ele>433.07</ele>
  <time>2026-09-01T19:55:35Z</time>
  <course>223.96</course>
  <speed>25.181044458083942</speed>
  <fix>3d</fix>
</trkpt>
<trkpt lat="-27.2761647" lon="151.2915972">
  <ele>432.48</ele>
  <time>2026-09-01T19:55:35Z</time>
  <course>224.31</course>
  <speed>25.16</speed>
  <fix>3d</fix>
</trkpt>
<trkpt lat="-27.2761958" lon="151.2915602">
  <ele>433.51</ele>
  <time>2026-09-01T19:55:35Z</time>
  <course>226.11</course>
  <speed>25.167220744452493</speed>
  <fix>3d</fix>
</trkpt>
<trkpt lat="-27.2761647" lon="151.2915972">
  <ele>432.48</ele>
  <time>2026-09-01T19:55:35Z</time>
  <course>224.31</course>
  <speed>25.16</speed>
  <fix>3d</fix>
</trkpt>
<trkpt lat="-27.2762104" lon="151.2915408">
  <ele>433.95</ele>
  <time>2026-09-01T19:55:35Z</time>
  <course>228.26</course>
  <speed>25.16700419199711</speed>
  <fix>3d</fix>
</trkpt>
<trkpt lat="-27.2761959" lon="151.2915603">
  <ele>433.36</ele>
  <time>2026-09-01T19:55:35Z</time>
  <course>228.66</course>
  <speed>25.14</speed>
  <fix>3d</fix>
</trkpt>
<trkpt lat="-27.2762244" lon="151.2915207">
  <ele>434.39</ele>
  <time>2026-09-01T19:55:35Z</time>
  <course>230.42</course>
  <speed>25.166153857910032</speed>
  <fix>3d</fix>
</trkpt>
<trkpt lat="-27.2761959" lon="151.2915603">
  <ele>433.36</ele>
  <time>2026-09-01T19:55:35Z</time>
  <course>228.66</course>
  <speed>25.14</speed>
  <fix>3d</fix>
</trkpt>
<trkpt lat="-27.2762382" lon="151.2914994">
  <ele>434.84</ele>
  <time>2026-09-01T19:55:35Z</time>
  <course>232.7</course>
  <speed>25.16360268324073</speed>
  <fix>3d</fix>
</trkpt>
<trkpt lat="-27.2762243" lon="151.291521">
  <ele>434.23</ele>
  <time>2026-09-01T19:55:35Z</time>
  <course>232.97</course>
  <speed>25.13</speed>
  <fix>3d</fix>
</trkpt>
<trkpt lat="-27.2762506" lon="151.2914784">
  <ele>435.27</ele>
  <time>2026-09-01T19:55:35Z</time>
  <course>234.87</course>
  <speed>25.162052777943217</speed>
  <fix>3d</fix>
</trkpt>
<trkpt lat="-27.2762243" lon="151.291521">
  <ele>434.23</ele>
  <time>2026-09-01T19:55:35Z</time>
  <course>232.97</course>
  <speed>25.13</speed>
  <fix>3d</fix>
</trkpt>
<trkpt lat="-27.2762625" lon="151.2914568">
  <ele>435.71</ele>
  <time>2026-09-01T19:55:35Z</time>
  <course>236.98</course>
  <speed>25.159403808516608</speed>
  <fix>3d</fix>
</trkpt>
<trkpt lat="-27.2762502" lon="151.2914793">
  <ele>435.1</ele>
  <time>2026-09-01T19:55:35Z</time>
  <course>237.26</course>
  <speed>25.11</speed>
  <fix>3d</fix>
</trkpt>
<trkpt lat="-27.2762736" lon="151.2914346">
  <ele>436.14</ele>
  <time>2026-09-01T19:55:35Z</time>
  <course>239.18</course>
  <speed>25.14629197317171</speed>
  <fix>3d</fix>
</trkpt>
<trkpt lat="-27.2762502" lon="151.2914793">
  <ele>435.1</ele>
  <time>2026-09-01T19:55:35Z</time>
  <course>237.26</course>
  <speed>25.11</speed>
  <fix>3d</fix>
</trkpt>
<trkpt lat="-27.276284" lon="151.291412">
  <ele>436.58</ele>
  <time>2026-09-01T19:55:35Z</time>
  <course>241.31</course>
  <speed>25.124919900369832</speed>
  <fix>3d</fix>
</trkpt>
<trkpt lat="-27.2762731" lon="151.2914356">
  <ele>435.98</ele>
  <time>2026-09-01T19:55:35Z</time>
  <course>241.59</course>
  <speed>25.09</speed>
  <fix>3d</fix>
</trkpt>
<trkpt lat="-27.2762936" lon="151.2913889">
  <ele>437.02</ele>
  <time>2026-09-01T19:55:35Z</time>
  <course>243.31</course>
  <speed>25.115718186028445</speed>
  <fix>3d</fix>
</trkpt>
<trkpt lat="-27.2762731" lon="151.2914356">
  <ele>435.98</ele>
  <time>2026-09-01T19:55:35Z</time>
  <course>241.59</course>
  <speed>25.09</speed>
  <fix>3d</fix>
</trkpt>
<trkpt lat="-27.2763025" lon="151.2913655">
  <ele>437.46</ele>
  <time>2026-09-01T19:55:35Z</time>
  <course>245.39</course>
  <speed>25.11187965883876</speed>
  <fix>3d</fix>
</trkpt>
<trkpt lat="-27.276293" lon="151.29139">
  <ele>436.86</ele>
  <time>2026-09-01T19:55:35Z</time>
  <course>245.83</course>
  <speed>25.06</speed>
  <fix>3d</fix>
</trkpt>
<trkpt lat="-27.2763105" lon="151.2913419">
  <ele>437.9</ele>
  <time>2026-09-01T19:55:35Z</time>
  <course>247.42</course>
  <speed>25.11469888332329</speed>
  <fix>3d</fix>
</trkpt>
<trkpt lat="-27.276293" lon="151.29139">
  <ele>436.86</ele>
  <time>2026-09-01T19:55:35Z</time>
  <course>245.83</course>
  <speed>25.06</speed>
  <fix>3d</fix>
</trkpt>
<trkpt lat="-27.2763178" lon="151.291318">
  <ele>438.34</ele>
  <time>2026-09-01T19:55:35Z</time>
  <course>249.5</course>
  <speed>25.103027705836602</speed>
  <fix>3d</fix>
</trkpt>
<trkpt lat="-27.27631" lon="151.2913431">
  <ele>437.73</ele>
  <time>2026-09-01T19:55:35Z</time>
  <course>249.94</course>
  <speed>25.05</speed>
  <fix>3d</fix>
</trkpt>
<trkpt lat="-27.2763243" lon="151.2912939">
  <ele>438.77</ele>
  <time>2026-09-01T19:55:35Z</time>
  <course>251.62</course>
  <speed>25.091657976307584</speed>
  <fix>3d</fix>
</trkpt>
<trkpt lat="-27.27631" lon="151.2913431">
  <ele>437.73</ele>
  <time>2026-09-01T19:55:35Z</time>
  <course>249.94</course>
  <speed>25.05</speed>
  <fix>3d</fix>
</trkpt>
<trkpt lat="-27.2763301" lon="151.2912695">
  <ele>439.21</ele>
  <time>2026-09-01T19:55:35Z</time>
  <course>253.69</course>
  <speed>25.088036989768646</speed>
  <fix>3d</fix>
</trkpt>
<trkpt lat="-27.2763239" lon="151.291295">
  <ele>438.6</ele>
  <time>2026-09-01T19:55:35Z</time>
  <course>254.06</course>
  <speed>25.04</speed>
  <fix>3d</fix>
</trkpt>
<trkpt lat="-27.276335" lon="151.2912451">
  <ele>439.65</ele>
  <time>2026-09-01T19:55:35Z</time>
  <course>255.74</course>
  <speed>25.068426356674244</speed>
  <fix>3d</fix>
</trkpt>
<trkpt lat="-27.2763239" lon="151.291295">
  <ele>438.6</ele>
  <time>2026-09-01T19:55:35Z</time>
  <course>254.06</course>
  <speed>25.04</speed>
  <fix>3d</fix>
</trkpt>
<trkpt lat="-27.2763391" lon="151.2912205">
  <ele>440.09</ele>
  <time>2026-09-01T19:55:35Z</time>
  <course>257.81</course>
  <speed>25.04804383579684</speed>
  <fix>3d</fix>
</trkpt>
<trkpt lat="-27.2763347" lon="151.2912458">
  <ele>439.46</ele>
  <time>2026-09-01T19:55:35Z</time>
  <course>258.21</course>
  <speed>25.03</speed>
  <fix>3d</fix>
</trkpt>
<trkpt lat="-27.2763424" lon="151.2911959">
  <ele>440.54</ele>
  <time>2026-09-01T19:55:35Z</time>
  <course>259.76</course>
  <speed>25.023900575250053</speed>
  <fix>3d</fix>
</trkpt>
<trkpt lat="-27.2763347" lon="151.2912458">
  <ele>439.46</ele>
  <time>2026-09-01T19:55:35Z</time>
  <course>258.21</course>
  <speed>25.03</speed>
  <fix>3d</fix>
</trkpt>
<trkpt lat="-27.276345" lon="151.2911711">
  <ele>440.98</ele>
  <time>2026-09-01T19:55:35Z</time>
  <course>261.74</course>
  <speed>25.00329578275632</speed>
  <fix>3d</fix>
</trkpt>
<trkpt lat="-27.2763423" lon="151.291196">
  <ele>440.33</ele>
  <time>2026-09-01T19:55:35Z</time>
  <course>262.29</course>
  <speed>25.02</speed>
  <fix>3d</fix>
</trkpt>
<trkpt lat="-27.2763468" lon="151.2911463">
  <ele>441.42</ele>
  <time>2026-09-01T19:55:35Z</time>
  <course>263.77</course>
  <speed>24.992558892598414</speed>
  <fix>3d</fix>
</trkpt>
<trkpt lat="-27.2763423" lon="151.291196">
  <ele>440.33</ele>
  <time>2026-09-01T19:55:35Z</time>
  <course>262.29</course>
  <speed>25.02</speed>
  <fix>3d</fix>
</trkpt>
<trkpt lat="-27.2763479" lon="151.2911213">
  <ele>441.86</ele>
  <time>2026-09-01T19:55:35Z</time>
  <course>265.81</course>
  <speed>24.981563201689358</speed>
  <fix>3d</fix>
</trkpt>
<trkpt lat="-27.2763467" lon="151.2911457">
  <ele>441.2</ele>
  <time>2026-09-01T19:55:35Z</time>
  <course>266.28</course>
  <speed>25.02</speed>
  <fix>3d</fix>
</trkpt>
<trkpt lat="-27.2763482" lon="151.2910964">
  <ele>442.3</ele>
  <time>2026-09-01T19:55:35Z</time>
  <course>267.74</course>
  <speed>24.970200239485465</speed>
  <fix>3d</fix>
</trkpt>
<trkpt lat="-27.2763467" lon="151.2911457">
  <ele>441.2</ele>
  <time>2026-09-01T19:55:35Z</time>
  <course>266.28</course>
  <speed>25.02</speed>
  <fix>3d</fix>
</trkpt>
<trkpt lat="-27.2763477" lon="151.2910715">
  <ele>442.74</ele>
  <time>2026-09-01T19:55:35Z</time>
  <course>269.73</course>
  <speed>24.948476907418616</speed>
  <fix>3d</fix>
</trkpt>
<trkpt lat="-27.2763481" lon="151.2910952">
  <ele>442.06</ele>
  <time>2026-09-01T19:55:35Z</time>
  <course>270.24</course>
  <speed>25.02</speed>
  <fix>3d</fix>
</trkpt>
<trkpt lat="-27.2763464" lon="151.2910464">
  <ele>443.18</ele>
  <time>2026-09-01T19:55:35Z</time>
  <course>271.71</course>
  <speed>24.946478709429112</speed>
  <fix>3d</fix>
</trkpt>
<trkpt lat="-27.2763481" lon="151.2910952">
  <ele>442.06</ele>
  <time>2026-09-01T19:55:35Z</time>
  <course>270.24</course>
  <speed>25.02</speed>
  <fix>3d</fix>
</trkpt>
<trkpt lat="-27.2763444" lon="151.2910214">
  <ele>443.62</ele>
  <time>2026-09-01T19:55:35Z</time>
  <course>273.76</course>
  <speed>24.935520848781163</speed>
  <fix>3d</fix>
</trkpt>
<trkpt lat="-27.2763463" lon="151.2910446">
  <ele>442.93</ele>
  <time>2026-09-01T19:55:35Z</time>
  <course>274.21</course>
  <speed>25.01</speed>
  <fix>3d</fix>
</trkpt>
<trkpt lat="-27.2763417" lon="151.2909962">
  <ele>444.05</ele>
  <time>2026-09-01T19:55:35Z</time>
  <course>275.77</course>
  <speed>24.936866282674732</speed>
  <fix>3d</fix>
</trkpt>
<trkpt lat="-27.2763463" lon="151.2910446">
  <ele>442.93</ele>
  <time>2026-09-01T19:55:35Z</time>
  <course>274.21</course>
  <speed>25.01</speed>
  <fix>3d</fix>
</trkpt>
<trkpt lat="-27.2763381" lon="151.2909715">
  <ele>444.48</ele>
  <time>2026-09-01T19:55:35Z</time>
  <course>277.69</course>
  <speed>24.94118080604846</speed>
  <fix>3d</fix>
</trkpt>
<trkpt lat="-27.2763415" lon="151.2909945">
  <ele>443.8</ele>
  <time>2026-09-01T19:55:35Z</time>
  <course>278.19</course>
  <speed>25.01</speed>
  <fix>3d</fix>
</trkpt>
<trkpt lat="-27.2763338" lon="151.2909468">
  <ele>444.92</ele>
  <time>2026-09-01T19:55:35Z</time>
  <course>279.69</course>
  <speed>24.94653683379719</speed>
  <fix>3d</fix>
</trkpt>
<trkpt lat="-27.2763415" lon="151.2909945">
  <ele>443.8</ele>
  <time>2026-09-01T19:55:35Z</time>
  <course>278.19</course>
  <speed>25.01</speed>
  <fix>3d</fix>
</trkpt>
<trkpt lat="-27.2763287" lon="151.2909223">
  <ele>445.36</ele>
  <time>2026-09-01T19:55:35Z</time>
  <course>281.7</course>
  <speed>24.947266383313423</speed>
  <fix>3d</fix>
</trkpt>
<trkpt lat="-27.2763336" lon="151.2909447">
  <ele>444.67</ele>
  <time>2026-09-01T19:55:35Z</time>
  <course>282.16</course>
  <speed>25.01</speed>
  <fix>3d</fix>
</trkpt>
<trkpt lat="-27.2763229" lon="151.290898">
  <ele>445.79</ele>
  <time>2026-09-01T19:55:35Z</time>
  <course>283.64</course>
  <speed>24.947627141674214</speed>
  <fix>3d</fix>
</trkpt>
<trkpt lat="-27.2763336" lon="151.2909447">
  <ele>444.67</ele>
  <time>2026-09-01T19:55:35Z</time>
  <course>282.16</course>
  <speed>25.01</speed>
  <fix>3d</fix>
</trkpt>
<trkpt lat="-27.2763163" lon="151.2908738">
  <ele>446.24</ele>
  <time>2026-09-01T19:55:35Z</time>
  <course>285.64</course>
  <speed>24.950551096118097</speed>
  <fix>3d</fix>
</trkpt>
<trkpt lat="-27.2763226" lon="151.2908956">
  <ele>445.55</ele>
  <time>2026-09-01T19:55:35Z</time>
  <course>286.18</course>
  <speed>25.02</speed>
  <fix>3d</fix>
</trkpt>
<trkpt lat="-27.276309" lon="151.2908501">
  <ele>446.68</ele>
  <time>2026-09-01T19:55:35Z</time>
  <course>287.68</course>
  <speed>24.95252492234002</speed>
  <fix>3d</fix>
</trkpt>
<trkpt lat="-27.2763226" lon="151.2908956">
  <ele>445.55</ele>
  <time>2026-09-01T19:55:35Z</time>
  <course>286.18</course>
  <speed>25.02</speed>
  <fix>3d</fix>
</trkpt>
<trkpt lat="-27.2763009" lon="151.2908266">
  <ele>447.13</ele>
  <time>2026-09-01T19:55:35Z</time>
  <course>289.74</course>
  <speed>24.956131511113657</speed>
  <fix>3d</fix>
</trkpt>
<trkpt lat="-27.2763085" lon="151.2908475">
  <ele>446.44</ele>
  <time>2026-09-01T19:55:35Z</time>
  <course>290.19</course>
  <speed>25.02</speed>
  <fix>3d</fix>
</trkpt>
<trkpt lat="-27.2762922" lon="151.2908034">
  <ele>447.57</ele>
  <time>2026-09-01T19:55:35Z</time>
  <course>291.8</course>
  <speed>24.96248785678222</speed>
  <fix>3d</fix>
</trkpt>
<trkpt lat="-27.2763085" lon="151.2908475">
  <ele>446.44</ele>
  <time>2026-09-01T19:55:35Z</time>
  <course>290.19</course>
  <speed>25.02</speed>
  <fix>3d</fix>
</trkpt>
<trkpt lat="-27.2762827" lon="151.2907806">
  <ele>448.02</ele>
  <time>2026-09-01T19:55:35Z</time>
  <course>293.85</course>
  <speed>24.963847860456127</speed>
  <fix>3d</fix>
</trkpt>
<trkpt lat="-27.2762915" lon="151.2908006">
  <ele>447.33</ele>
  <time>2026-09-01T19:55:35Z</time>
  <course>294.21</course>
  <speed>25.03</speed>
  <fix>3d</fix>
</trkpt>
<trkpt lat="-27.2762724" lon="151.2907581">
  <ele>448.46</ele>
  <time>2026-09-01T19:55:35Z</time>
  <course>295.87</course>
  <speed>24.97964371243113</speed>
  <fix>3d</fix>
</trkpt>
<trkpt lat="-27.2762915" lon="151.2908006">
  <ele>447.33</ele>
  <time>2026-09-01T19:55:35Z</time>
  <course>294.21</course>
  <speed>25.03</speed>
  <fix>3d</fix>
</trkpt>
<trkpt lat="-27.2762614" lon="151.290736">
  <ele>448.91</ele>
  <time>2026-09-01T19:55:35Z</time>
  <course>297.92</course>
  <speed>24.992062739998072</speed>
  <fix>3d</fix>
</trkpt>
<trkpt lat="-27.2762716" lon="151.2907553">
  <ele>448.23</ele>
  <time>2026-09-01T19:55:35Z</time>
  <course>298.3</course>
  <speed>25.04</speed>
  <fix>3d</fix>
</trkpt>
<trkpt lat="-27.2762496" lon="151.2907142">
  <ele>449.36</ele>
  <time>2026-09-01T19:55:35Z</time>
  <course>299.91</course>
  <speed>25.01456575677459</speed>
  <fix>3d</fix>
</trkpt>
<trkpt lat="-27.2762716" lon="151.2907553">
  <ele>448.23</ele>
  <time>2026-09-01T19:55:35Z</time>
  <course>298.3</course>
  <speed>25.04</speed>
  <fix>3d</fix>
</trkpt>
<trkpt lat="-27.2762372" lon="151.290693">
  <ele>449.82</ele>
  <time>2026-09-01T19:55:35Z</time>
  <course>301.92</course>
  <speed>25.03594416034674</speed>
  <fix>3d</fix>
</trkpt>
<trkpt lat="-27.2762489" lon="151.2907116">
  <ele>449.14</ele>
  <time>2026-09-01T19:55:35Z</time>
  <course>302.41</course>
  <speed>25.06</speed>
  <fix>3d</fix>
</trkpt>
<trkpt lat="-27.2762241" lon="151.2906721">
  <ele>450.27</ele>
  <time>2026-09-01T19:55:35Z</time>
  <course>303.89</course>
  <speed>25.058485588718245</speed>
  <fix>3d</fix>
</trkpt>
<trkpt lat="-27.2762489" lon="151.2907116">
  <ele>449.14</ele>
  <time>2026-09-01T19:55:35Z</time>
  <course>302.41</course>
  <speed>25.06</speed>
  <fix>3d</fix>
</trkpt>
<trkpt lat="-27.2762103" lon="151.2906519">
  <ele>450.73</ele>
  <time>2026-09-01T19:55:35Z</time>
  <course>305.86</course>
  <speed>25.080051834077217</speed>
  <fix>3d</fix>
</trkpt>
<trkpt lat="-27.2762234" lon="151.2906699">
  <ele>450.06</ele>
  <time>2026-09-01T19:55:35Z</time>
  <course>306.46</course>
  <speed>25.08</speed>
  <fix>3d</fix>
</trkpt>
<trkpt lat="-27.2761959" lon="151.2906321">
  <ele>451.19</ele>
  <time>2026-09-01T19:55:35Z</time>
  <course>307.81</course>
  <speed>25.09678067003814</speed>
  <fix>3d</fix>
</trkpt>
<trkpt lat="-27.2762234" lon="151.2906699">
  <ele>450.06</ele>
  <time>2026-09-01T19:55:35Z</time>
  <course>306.46</course>
  <speed>25.08</speed>
  <fix>3d</fix>
</trkpt>
<trkpt lat="-27.276181" lon="151.2906129">
  <ele>451.65</ele>
  <time>2026-09-01T19:55:35Z</time>
  <course>309.64</course>
  <speed>25.114935795259363</speed>
  <fix>3d</fix>
</trkpt>
<trkpt lat="-27.2761954" lon="151.2906302">
  <ele>450.99</ele>
  <time>2026-09-01T19:55:35Z</time>
  <course>310.41</course>
  <speed>25.1</speed>
  <fix>3d</fix>
</trkpt>
<trkpt lat="-27.2761655" lon="151.2905943">
  <ele>452.11</ele>
  <time>2026-09-01T19:55:35Z</time>
  <course>311.51</course>
  <speed>25.13286692759105</speed>
  <fix>3d</fix>
</trkpt>
<trkpt lat="-27.2761954" lon="151.2906302">
  <ele>450.99</ele>
  <time>2026-09-01T19:55:35Z</time>
  <course>310.41</course>
  <speed>25.1</speed>
  <fix>3d</fix>
</trkpt>
<trkpt lat="-27.2761495" lon="151.2905763">
  <ele>452.57</ele>
  <time>2026-09-01T19:55:35Z</time>
  <course>313.36</course>
  <speed>25.1490476956882</speed>
  <fix>3d</fix>
</trkpt>
<trkpt lat="-27.276165" lon="151.2905927">
  <ele>451.92</ele>
  <time>2026-09-01T19:55:35Z</time>
  <course>314.22</course>
  <speed>25.12</speed>
  <fix>3d</fix>
</trkpt>
<trkpt lat="-27.2761331" lon="151.2905589">
  <ele>453.02</ele>
  <time>2026-09-01T19:55:35Z</time>
  <course>315.07</course>
  <speed>25.168784237622603</speed>
  <fix>3d</fix>
</trkpt>
<trkpt lat="-27.276165" lon="151.2905927">
  <ele>451.92</ele>
  <time>2026-09-01T19:55:35Z</time>
  <course>314.22</course>
  <speed>25.12</speed>
  <fix>3d</fix>
</trkpt>
<trkpt lat="-27.2761161" lon="151.2905421">
  <ele>453.46</ele>
  <time>2026-09-01T19:55:35Z</time>
  <course>316.82</course>
  <speed>25.19123855629175</speed>
  <fix>3d</fix>
</trkpt>
<trkpt lat="-27.2761325" lon="151.2905574">
  <ele>452.83</ele>
  <time>2026-09-01T19:55:35Z</time>
  <course>317.87</course>
  <speed>25.15</speed>
  <fix>3d</fix>
</trkpt>
<trkpt lat="-27.2760988" lon="151.2905259">
  <ele>453.9</ele>
  <time>2026-09-01T19:55:35Z</time>
  <course>318.51</course>
  <speed>25.215820430832704</speed>
  <fix>3d</fix>
</trkpt>
<trkpt lat="-27.2761325" lon="151.2905574">
  <ele>452.83</ele>
  <time>2026-09-01T19:55:35Z</time>
  <course>317.87</course>
  <speed>25.15</speed>
  <fix>3d</fix>
</trkpt>
<trkpt lat="-27.2760809" lon="151.2905103">
  <ele>454.32</ele>
  <time>2026-09-01T19:55:35Z</time>
  <course>320.11</course>
  <speed>25.244034938971225</speed>
  <fix>3d</fix>
</trkpt>
<trkpt lat="-27.2760981" lon="151.2905245">
  <ele>453.71</ele>
  <time>2026-09-01T19:55:35Z</time>
  <course>321.37</course>
  <speed>25.19</speed>
  <fix>3d</fix>
</trkpt>
<trkpt lat="-27.2760627" lon="151.2904952">
  <ele>454.73</ele>
  <time>2026-09-01T19:55:35Z</time>
  <course>321.81</course>
  <speed>25.268884027594094</speed>
  <fix>3d</fix>
</trkpt>
<trkpt lat="-27.2760981" lon="151.2905245">
  <ele>453.71</ele>
  <time>2026-09-01T19:55:35Z</time>
  <course>321.37</course>
  <speed>25.19</speed>
  <fix>3d</fix>
</trkpt>
<trkpt lat="-27.2760441" lon="151.2904808">
  <ele>455.13</ele>
  <time>2026-09-01T19:55:35Z</time>
  <course>323.55</course>
  <speed>25.297102600890877</speed>
  <fix>3d</fix>
</trkpt>
<trkpt lat="-27.2760618" lon="151.2904939">
  <ele>454.54</ele>
  <time>2026-09-01T19:55:35Z</time>
  <course>324.74</course>
  <speed>25.25</speed>
  <fix>3d</fix>
</trkpt>
<trkpt lat="-27.2760253" lon="151.290467">
  <ele>455.51</ele>
  <time>2026-09-01T19:55:35Z</time>
  <course>325.2</course>
  <speed>25.332889689097847</speed>
  <fix>3d</fix>
</trkpt>
<trkpt lat="-27.2760618" lon="151.2904939">
  <ele>454.54</ele>
  <time>2026-09-01T19:55:35Z</time>
  <course>324.74</course>
  <speed>25.25</speed>
  <fix>3d</fix>
</trkpt>
<trkpt lat="-27.2760058" lon="151.2904537">
  <ele>455.87</ele>
  <time>2026-09-01T19:55:35Z</time>
  <course>326.9</course>
  <speed>25.371363778874798</speed>
  <fix>3d</fix>
</trkpt>
<trkpt lat="-27.2760239" lon="151.2904655">
  <ele>455.32</ele>
  <time>2026-09-01T19:55:35Z</time>
  <course>328.09</course>
  <speed>25.32</speed>
  <fix>3d</fix>
</trkpt>
<trkpt lat="-27.2759856" lon="151.2904408">
  <ele>456.22</ele>
  <time>2026-09-01T19:55:35Z</time>
  <course>328.63</course>
  <speed>25.403909148003187</speed>
  <fix>3d</fix>
</trkpt>
<trkpt lat="-27.2760239" lon="151.2904655">
  <ele>455.32</ele>
  <time>2026-09-01T19:55:35Z</time>
  <course>328.09</course>
  <speed>25.32</speed>
  <fix>3d</fix>
</trkpt>
<trkpt lat="-27.2759654" lon="151.2904289">
  <ele>456.55</ele>
  <time>2026-09-01T19:55:35Z</time>
  <course>330.39</course>
  <speed>25.45121215187992</speed>
  <fix>3d</fix>
</trkpt>
<trkpt lat="-27.2759845" lon="151.2904398">
  <ele>456.03</ele>
  <time>2026-09-01T19:55:35Z</time>
  <course>331.51</course>
  <speed>25.38</speed>
  <fix>3d</fix>
</trkpt>
<trkpt lat="-27.2759447" lon="151.2904175">
  <ele>456.87</ele>
  <time>2026-09-01T19:55:35Z</time>
  <course>332.13</course>
  <speed>25.495179936607624</speed>
  <fix>3d</fix>
</trkpt>
<trkpt lat="-27.2759845" lon="151.2904398">
  <ele>456.03</ele>
  <time>2026-09-01T19:55:35Z</time>
  <course>331.51</course>
  <speed>25.38</speed>
  <fix>3d</fix>
</trkpt>
<trkpt lat="-27.2759237" lon="151.2904069">
  <ele>457.17</ele>
  <time>2026-09-01T19:55:35Z</time>
  <course>333.94</course>
  <speed>25.545717840765406</speed>
  <fix>3d</fix>
</trkpt>
<trkpt lat="-27.2759437" lon="151.2904166">
  <ele>456.68</ele>
  <time>2026-09-01T19:55:35Z</time>
  <course>335.01</course>
  <speed>25.45</speed>
  <fix>3d</fix>
</trkpt>
<trkpt lat="-27.2759023" lon="151.2903969">
  <ele>457.46</ele>
  <time>2026-09-01T19:55:35Z</time>
  <course>335.73</course>
  <speed>25.603993829088463</speed>
  <fix>3d</fix>
</trkpt>
<trkpt lat="-27.2759437" lon="151.2904166">
  <ele>456.68</ele>
  <time>2026-09-01T19:55:35Z</time>
  <course>335.01</course>
  <speed>25.45</speed>
  <fix>3d</fix>
</trkpt>
<trkpt lat="-27.2758807" lon="151.2903878">
  <ele>457.73</ele>
  <time>2026-09-01T19:55:35Z</time>
  <course>337.64</course>
  <speed>25.65506772550016</speed>
  <fix>3d</fix>
</trkpt>
<trkpt lat="-27.2759016" lon="151.2903964">
  <ele>457.28</ele>
  <time>2026-09-01T19:55:35Z</time>
  <course>338.6</course>
  <speed>25.54</speed>
  <fix>3d</fix>
</trkpt>
<trkpt lat="-27.2758588" lon="151.2903794">
  <ele>458.0</ele>
  <time>2026-09-01T19:55:35Z</time>
  <course>339.54</course>
  <speed>25.70478554666426</speed>
  <fix>3d</fix>
</trkpt>
<trkpt lat="-27.2759016" lon="151.2903964">
  <ele>457.28</ele>
  <time>2026-09-01T19:55:35Z</time>
  <course>338.6</course>
  <speed>25.54</speed>
  <fix>3d</fix>
</trkpt>
<trkpt lat="-27.2758365" lon="151.2903719">
  <ele>458.25</ele>
  <time>2026-09-01T19:55:35Z</time>
  <course>341.5</course>
  <speed>25.75517035470742</speed>
  <fix>3d</fix>
</trkpt>
<trkpt lat="-27.2758583" lon="151.2903791">
  <ele>457.84</ele>
  <time>2026-09-01T19:55:35Z</time>
  <course>342.35</course>
  <speed>25.62</speed>
  <fix>3d</fix>
</trkpt>
<trkpt lat="-27.2758142" lon="151.2903652">
  <ele>458.49</ele>
  <time>2026-09-01T19:55:35Z</time>
  <course>343.61</course>
  <speed>25.79884687345541</speed>
  <fix>3d</fix>
</trkpt>
<trkpt lat="-27.2758583" lon="151.2903791">
  <ele>457.84</ele>
  <time>2026-09-01T19:55:35Z</time>
  <course>342.35</course>
  <speed>25.62</speed>
  <fix>3d</fix>
</trkpt>
<trkpt lat="-27.2757916" lon="151.2903595">
  <ele>458.73</ele>
  <time>2026-09-01T19:55:35Z</time>
  <course>345.68</course>
  <speed>25.842687553735583</speed>
  <fix>3d</fix>
</trkpt>
<trkpt lat="-27.2758139" lon="151.2903651">
  <ele>458.34</ele>
  <time>2026-09-01T19:55:35Z</time>
  <course>346.35</course>
  <speed>25.71</speed>
  <fix>3d</fix>
</trkpt>
<trkpt lat="-27.2757688" lon="151.2903547">
  <ele>458.96</ele>
  <time>2026-09-01T19:55:35Z</time>
  <course>347.8</course>
  <speed>25.881392930056915</speed>
  <fix>3d</fix>
</trkpt>
<trkpt lat="-27.2758139" lon="151.2903651">
  <ele>458.34</ele>
  <time>2026-09-01T19:55:35Z</time>
  <course>346.35</course>
  <speed>25.71</speed>
  <fix>3d</fix>
</trkpt>
<trkpt lat="-27.2757459" lon="151.2903508">
  <ele>459.18</ele>
  <time>2026-09-01T19:55:35Z</time>
  <course>349.95</course>
  <speed>25.920009645059935</speed>
  <fix>3d</fix>
</trkpt>
<trkpt lat="-27.2757686" lon="151.2903547">
  <ele>458.82</ele>
  <time>2026-09-01T19:55:35Z</time>
  <course>350.51</course>
  <speed>25.79</speed>
  <fix>3d</fix>
</trkpt>
<trkpt lat="-27.2757227" lon="151.2903479">
  <ele>459.4</ele>
  <time>2026-09-01T19:55:35Z</time>
  <course>352.13</course>
  <speed>25.96302948424933</speed>
  <fix>3d</fix>
</trkpt>
<trkpt lat="-27.2757686" lon="151.2903547">
  <ele>458.82</ele>
  <time>2026-09-01T19:55:35Z</time>
  <course>350.51</course>
  <speed>25.79</speed>
  <fix>3d</fix>
</trkpt>
<trkpt lat="-27.2756994" lon="151.290346">
  <ele>459.61</ele>
  <time>2026-09-01T19:55:35Z</time>
  <course>354.38</course>
  <speed>25.998807664968023</speed>
  <fix>3d</fix>
</trkpt>
<trkpt lat="-27.2757226" lon="151.290348">
  <ele>459.28</ele>
  <time>2026-09-01T19:55:35Z</time>
  <course>354.77</course>
  <speed>25.87</speed>
  <fix>3d</fix>
</trkpt>
<trkpt lat="-27.275676" lon="151.2903451">
  <ele>459.81</ele>
  <time>2026-09-01T19:55:35Z</time>
  <course>356.57</course>
  <speed>26.043227526556688</speed>
  <fix>3d</fix>
</trkpt>
<trkpt lat="-27.2757226" lon="151.290348">
  <ele>459.28</ele>
  <time>2026-09-01T19:55:35Z</time>
  <course>354.77</course>
  <speed>25.87</speed>
  <fix>3d</fix>
</trkpt>
<trkpt lat="-27.2756525" lon="151.2903452">
  <ele>460.02</ele>
  <time>2026-09-01T19:55:35Z</time>
  <course>358.71</course>
  <speed>26.08622816736831</speed>
  <fix>3d</fix>
</trkpt>
<trkpt lat="-27.2756762" lon="151.2903452">
  <ele>459.71</ele>
  <time>2026-09-01T19:55:35Z</time>
  <course>359.14</course>
  <speed>25.94</speed>
  <fix>3d</fix>
</trkpt>
<trkpt lat="-27.2756291" lon="151.2903463">
  <ele>460.21</ele>
  <time>2026-09-01T19:55:35Z</time>
  <course>0.96</course>
  <speed>26.127213781802297</speed>
  <fix>3d</fix>
</trkpt>
<trkpt lat="-27.2756762" lon="151.2903452">
  <ele>459.71</ele>
  <time>2026-09-01T19:55:35Z</time>
  <course>359.14</course>
  <speed>25.94</speed>
  <fix>3d</fix>
</trkpt>
<trkpt lat="-27.2756056" lon="151.2903485">
  <ele>460.4</ele>
  <time>2026-09-01T19:55:35Z</time>
  <course>3.35</course>
  <speed>26.17047382070107</speed>
  <fix>3d</fix>
</trkpt>
<trkpt lat="-27.2756296" lon="151.2903465">
  <ele>460.13</ele>
  <time>2026-09-01T19:55:35Z</time>
  <course>3.59</course>
  <speed>26.02</speed>
  <fix>3d</fix>
</trkpt>
<trkpt lat="-27.2755822" lon="151.2903517">
  <ele>460.6</ele>
  <time>2026-09-01T19:55:35Z</time>
  <course>5.73</course>
  <speed>26.20254949427631</speed>
  <fix>3d</fix>
</trkpt>
<trkpt lat="-27.2756296" lon="151.2903465">
  <ele>460.13</ele>
  <time>2026-09-01T19:55:35Z</time>
  <course>3.59</course>
  <speed>26.02</speed>
  <fix>3d</fix>
</trkpt>
<trkpt lat="-27.2755591" lon="151.2903559">
  <ele>460.78</ele>
  <time>2026-09-01T19:55:35Z</time>
  <course>8.02</course>
  <speed>26.237242614268748</speed>
  <fix>3d</fix>
</trkpt>
<trkpt lat="-27.275583" lon="151.2903518">
  <ele>460.53</ele>
  <time>2026-09-01T19:55:35Z</time>
  <course>8.21</course>
  <speed>26.08</speed>
  <fix>3d</fix>
</trkpt>
<trkpt lat="-27.275536" lon="151.2903613">
  <ele>460.98</ele>
  <time>2026-09-01T19:55:35Z</time>
  <course>10.25</course>
  <speed>26.260773027464367</speed>
  <fix>3d</fix>
</trkpt>
<trkpt lat="-27.275583" lon="151.2903518">
  <ele>460.53</ele>
  <time>2026-09-01T19:55:35Z</time>
  <course>8.21</course>
  <speed>26.08</speed>
  <fix>3d</fix>
</trkpt>
<trkpt lat="-27.2755131" lon="151.2903678">
  <ele>461.16</ele>
  <time>2026-09-01T19:55:35Z</time>
  <course>12.5</course>
  <speed>26.282946942837288</speed>
  <fix>3d</fix>
</trkpt>
<trkpt lat="-27.2755368" lon="151.2903615">
  <ele>460.92</ele>
  <time>2026-09-01T19:55:35Z</time>
  <course>12.9</course>
  <speed>26.13</speed>
  <fix>3d</fix>
</trkpt>
<trkpt lat="-27.2754904" lon="151.2903753">
  <ele>461.35</ele>
  <time>2026-09-01T19:55:35Z</time>
  <course>14.79</course>
  <speed>26.30249037638832</speed>
  <fix>3d</fix>
</trkpt>
<trkpt lat="-27.2755368" lon="151.2903615">
  <ele>460.92</ele>
  <time>2026-09-01T19:55:35Z</time>
  <course>12.9</course>
  <speed>26.13</speed>
  <fix>3d</fix>
</trkpt>
<trkpt lat="-27.2754678" lon="151.2903838">
  <ele>461.53</ele>
  <time>2026-09-01T19:55:35Z</time>
  <course>17.11</course>
  <speed>26.315641736427406</speed>
  <fix>3d</fix>
</trkpt>
<trkpt lat="-27.2754914" lon="151.2903753">
  <ele>461.3</ele>
  <time>2026-09-01T19:55:35Z</time>
  <course>17.46</course>
  <speed>26.17</speed>
  <fix>3d</fix>
</trkpt>
<trkpt lat="-27.2754457" lon="151.2903933">
  <ele>461.7</ele>
  <time>2026-09-01T19:55:35Z</time>
  <course>19.34</course>
  <speed>26.335331780708593</speed>
  <fix>3d</fix>
</trkpt>
<trkpt lat="-27.2754914" lon="151.2903753">
  <ele>461.3</ele>
  <time>2026-09-01T19:55:35Z</time>
  <course>17.46</course>
  <speed>26.17</speed>
  <fix>3d</fix>
</trkpt>
<trkpt lat="-27.275424" lon="151.2904038">
  <ele>461.87</ele>
  <time>2026-09-01T19:55:35Z</time>
  <course>21.58</course>
  <speed>26.351383265399942</speed>
  <fix>3d</fix>
</trkpt>
<trkpt lat="-27.2754472" lon="151.2903932">
  <ele>461.66</ele>
  <time>2026-09-01T19:55:35Z</time>
  <course>21.98</course>
  <speed>26.2</speed>
  <fix>3d</fix>
</trkpt>
<trkpt lat="-27.2754026" lon="151.2904152">
  <ele>462.04</ele>
  <time>2026-09-01T19:55:35Z</time>
  <course>23.86</course>
  <speed>26.35443416201532</speed>
  <fix>3d</fix>
</trkpt>
<trkpt lat="-27.2754472" lon="151.2903932">
  <ele>461.66</ele>
  <time>2026-09-01T19:55:35Z</time>
  <course>21.98</course>
  <speed>26.2</speed>
  <fix>3d</fix>
</trkpt>
<trkpt lat="-27.2753817" lon="151.2904275">
  <ele>462.2</ele>
  <time>2026-09-01T19:55:35Z</time>
  <course>26.03</course>
  <speed>26.362406946255874</speed>
  <fix>3d</fix>
</trkpt>
<trkpt lat="-27.2754043" lon="151.290415">
  <ele>462.02</ele>
  <time>2026-09-01T19:55:35Z</time>
  <course>26.49</course>
  <speed>26.22</speed>
  <fix>3d</fix>
</trkpt>
<trkpt lat="-27.2753612" lon="151.2904408">
  <ele>462.37</ele>
  <time>2026-09-01T19:55:35Z</time>
  <course>28.22</course>
  <speed>26.359430949851706</speed>
  <fix>3d</fix>
</trkpt>
<trkpt lat="-27.2754043" lon="151.290415">
  <ele>462.02</ele>
  <time>2026-09-01T19:55:35Z</time>
  <course>26.49</course>
  <speed>26.22</speed>
  <fix>3d</fix>
</trkpt>
<trkpt lat="-27.2753412" lon="151.2904549">
  <ele>462.52</ele>
  <time>2026-09-01T19:55:35Z</time>
  <course>30.5</course>
  <speed>26.35563696820853</speed>
  <fix>3d</fix>
</trkpt>
<trkpt lat="-27.275363" lon="151.2904404">
  <ele>462.34</ele>
  <time>2026-09-01T19:55:35Z</time>
  <course>30.92</course>
  <speed>26.23</speed>
  <fix>3d</fix>
</trkpt>
<trkpt lat="-27.2753219" lon="151.2904696">
  <ele>462.68</ele>
  <time>2026-09-01T19:55:35Z</time>
  <course>32.66</course>
  <speed>26.340966193365045</speed>
  <fix>3d</fix>
</trkpt>
<trkpt lat="-27.275363" lon="151.2904404">
  <ele>462.34</ele>
  <time>2026-09-01T19:55:35Z</time>
  <course>30.92</course>
  <speed>26.23</speed>
  <fix>3d</fix>
</trkpt>
<trkpt lat="-27.2753032" lon="151.2904852">
  <ele>462.82</ele>
  <time>2026-09-01T19:55:35Z</time>
  <course>34.86</course>
  <speed>26.317076205384215</speed>
  <fix>3d</fix>
</trkpt>
<trkpt lat="-27.2753235" lon="151.2904694">
  <ele>462.65</ele>
  <time>2026-09-01T19:55:35Z</time>
  <course>35.29</course>
  <speed>26.23</speed>
  <fix>3d</fix>
</trkpt>
<trkpt lat="-27.275285" lon="151.2905017">
  <ele>462.96</ele>
  <time>2026-09-01T19:55:35Z</time>
  <course>37.02</course>
  <speed>26.29650166847294</speed>
  <fix>3d</fix>
</trkpt>
<trkpt lat="-27.2753235" lon="151.2904694">
  <ele>462.65</ele>
  <time>2026-09-01T19:55:35Z</time>
  <course>35.29</course>
  <speed>26.23</speed>
  <fix>3d</fix>
</trkpt>
<trkpt lat="-27.2752673" lon="151.2905188">
  <ele>463.09</ele>
  <time>2026-09-01T19:55:35Z</time>
  <course>39.25</course>
  <speed>26.276457143229944</speed>
  <fix>3d</fix>
</trkpt>
<trkpt lat="-27.2752861" lon="151.2905017">
  <ele>462.93</ele>
  <time>2026-09-01T19:55:35Z</time>
  <course>39.65</course>
  <speed>26.23</speed>
  <fix>3d</fix>
</trkpt>
<trkpt lat="-27.2752502" lon="151.2905368">
  <ele>463.22</ele>
  <time>2026-09-01T19:55:35Z</time>
  <course>41.41</course>
  <speed>26.252470359948983</speed>
  <fix>3d</fix>
</trkpt>
<trkpt lat="-27.2752861" lon="151.2905017">
  <ele>462.93</ele>
  <time>2026-09-01T19:55:35Z</time>
  <course>39.65</course>
  <speed>26.23</speed>
  <fix>3d</fix>
</trkpt>
<trkpt lat="-27.2752337" lon="151.2905555">
  <ele>463.34</ele>
  <time>2026-09-01T19:55:35Z</time>
  <course>43.57</course>
  <speed>26.231128454567106</speed>
  <fix>3d</fix>
</trkpt>
<trkpt lat="-27.2752511" lon="151.2905369">
  <ele>463.18</ele>
  <time>2026-09-01T19:55:35Z</time>
  <course>43.98</course>
  <speed>26.21</speed>
  <fix>3d</fix>
</trkpt>
<trkpt lat="-27.2752179" lon="151.2905748">
  <ele>463.46</ele>
  <time>2026-09-01T19:55:35Z</time>
  <course>45.66</course>
  <speed>26.210923295450698</speed>
  <fix>3d</fix>
</trkpt>
<trkpt lat="-27.2752511" lon="151.2905369">
  <ele>463.18</ele>
  <time>2026-09-01T19:55:35Z</time>
  <course>43.98</course>
  <speed>26.21</speed>
  <fix>3d</fix>
</trkpt>
<trkpt lat="-27.2752026" lon="151.2905948">
  <ele>463.56</ele>
  <time>2026-09-01T19:55:35Z</time>
  <course>47.83</course>
  <speed>26.197681195098166</speed>
  <fix>3d</fix>
</trkpt>
<trkpt lat="-27.2752185" lon="151.2905751">
  <ele>463.41</ele>
  <time>2026-09-01T19:55:35Z</time>
  <course>48.27</course>
  <speed>26.18</speed>
  <fix>3d</fix>
</trkpt>
<trkpt lat="-27.2751881" lon="151.2906155">
  <ele>463.66</ele>
  <time>2026-09-01T19:55:35Z</time>
  <course>49.94</course>
  <speed>26.17183600743364</speed>
  <fix>3d</fix>
</trkpt>
<trkpt lat="-27.2752185" lon="151.2905751">
  <ele>463.41</ele>
  <time>2026-09-01T19:55:35Z</time>
  <course>48.27</course>
  <speed>26.18</speed>
  <fix>3d</fix>
</trkpt>
<trkpt lat="-27.2751742" lon="151.2906367">
  <ele>463.75</ele>
  <time>2026-09-01T19:55:35Z</time>
  <course>52.01</course>
  <speed>26.158077146457074</speed>
  <fix>3d</fix>
</trkpt>
<trkpt lat="-27.2751884" lon="151.290616">
  <ele>463.63</ele>
  <time>2026-09-01T19:55:35Z</time>
  <course>52.5</course>
  <speed>26.15</speed>
  <fix>3d</fix>
</trkpt>
<trkpt lat="-27.2751612" lon="151.2906582">
  <ele>463.83</ele>
  <time>2026-09-01T19:55:35Z</time>
  <course>54.09</course>
  <speed>26.135144920202755</speed>
  <fix>3d</fix>
</trkpt>
<trkpt lat="-27.2751884" lon="151.290616">
  <ele>463.63</ele>
  <time>2026-09-01T19:55:35Z</time>
  <course>52.5</course>
  <speed>26.15</speed>
  <fix>3d</fix>
</trkpt>
<trkpt lat="-27.2751487" lon="151.2906804">
  <ele>463.91</ele>
  <time>2026-09-01T19:55:35Z</time>
  <course>56.17</course>
  <speed>26.11437343686423</speed>
  <fix>3d</fix>
</trkpt>
<trkpt lat="-27.2751612" lon="151.2906591">
  <ele>463.81</ele>
  <time>2026-09-01T19:55:35Z</time>
  <course>56.73</course>
  <speed>26.12</speed>
  <fix>3d</fix>
</trkpt>
<trkpt lat="-27.2751371" lon="151.290703">
  <ele>463.98</ele>
  <time>2026-09-01T19:55:35Z</time>
  <course>58.31</course>
  <speed>26.08586782148526</speed>
  <fix>3d</fix>
</trkpt>
<trkpt lat="-27.2751612" lon="151.2906591">
  <ele>463.81</ele>
  <time>2026-09-01T19:55:35Z</time>
  <course>56.73</course>
  <speed>26.12</speed>
  <fix>3d</fix>
</trkpt>
<trkpt lat="-27.2751262" lon="151.2907261">
  <ele>464.05</ele>
  <time>2026-09-01T19:55:35Z</time>
  <course>60.46</course>
  <speed>26.06896430623971</speed>
  <fix>3d</fix>
</trkpt>
<trkpt lat="-27.275137" lon="151.2907042">
  <ele>463.96</ele>
  <time>2026-09-01T19:55:35Z</time>
  <course>60.92</course>
  <speed>26.1</speed>
  <fix>3d</fix>
</trkpt>
<trkpt lat="-27.275116" lon="151.2907498">
  <ele>464.11</ele>
  <time>2026-09-01T19:55:35Z</time>
  <course>62.56</course>
  <speed>26.04314305148286</speed>
  <fix>3d</fix>
</trkpt>
<trkpt lat="-27.275137" lon="151.2907042">
  <ele>463.96</ele>
  <time>2026-09-01T19:55:35Z</time>
  <course>60.92</course>
  <speed>26.1</speed>
  <fix>3d</fix>
</trkpt>
<trkpt lat="-27.2751066" lon="151.2907737">
  <ele>464.17</ele>
  <time>2026-09-01T19:55:35Z</time>
  <course>64.63</course>
  <speed>26.02552977366647</speed>
  <fix>3d</fix>
</trkpt>
<trkpt lat="-27.2751157" lon="151.2907512">
  <ele>464.09</ele>
  <time>2026-09-01T19:55:35Z</time>
  <course>65.12</course>
  <speed>26.07</speed>
  <fix>3d</fix>
</trkpt>
<trkpt lat="-27.275098" lon="151.290798">
  <ele>464.22</ele>
  <time>2026-09-01T19:55:35Z</time>
  <course>66.81</course>
  <speed>26.01132253461942</speed>
  <fix>3d</fix>
</trkpt>
<trkpt lat="-27.2751157" lon="151.2907512">
  <ele>464.09</ele>
  <time>2026-09-01T19:55:35Z</time>
  <course>65.12</course>
  <speed>26.07</speed>
  <fix>3d</fix>
</trkpt>
<trkpt lat="-27.2750902" lon="151.2908226">
  <ele>464.27</ele>
  <time>2026-09-01T19:55:35Z</time>
  <course>68.94</course>
  <speed>25.978231271585834</speed>
  <fix>3d</fix>
</trkpt>
<trkpt lat="-27.2750976" lon="151.2907998">
  <ele>464.2</ele>
  <time>2026-09-01T19:55:35Z</time>
  <course>69.32</course>
  <speed>26.04</speed>
  <fix>3d</fix>
</trkpt>
<trkpt lat="-27.2750832" lon="151.2908475">
  <ele>464.31</ele>
  <time>2026-09-01T19:55:35Z</time>
  <course>71.07</course>
  <speed>25.958216425632944</speed>
  <fix>3d</fix>
</trkpt>
<trkpt lat="-27.2750976" lon="151.2907998">
  <ele>464.2</ele>
  <time>2026-09-01T19:55:35Z</time>
  <course>69.32</course>
  <speed>26.04</speed>
  <fix>3d</fix>
</trkpt>
<trkpt lat="-27.275077" lon="151.2908726">
  <ele>464.35</ele>
  <time>2026-09-01T19:55:35Z</time>
  <course>73.18</course>
  <speed>25.93957979613394</speed>
  <fix>3d</fix>
</trkpt>
<trkpt lat="-27.2750828" lon="151.2908496">
  <ele>464.28</ele>
  <time>2026-09-01T19:55:35Z</time>
  <course>73.54</course>
  <speed>26.01</speed>
  <fix>3d</fix>
</trkpt>
<trkpt lat="-27.2750717" lon="151.2908982">
  <ele>464.38</ele>
  <time>2026-09-01T19:55:35Z</time>
  <course>75.34</course>
  <speed>25.916004707516162</speed>
  <fix>3d</fix>
</trkpt>
<trkpt lat="-27.2750828" lon="151.2908496">
  <ele>464.28</ele>
  <time>2026-09-01T19:55:35Z</time>
  <course>73.54</course>
  <speed>26.01</speed>
  <fix>3d</fix>
</trkpt>
<trkpt lat="-27.2750672" lon="151.2909239">
  <ele>464.41</ele>
  <time>2026-09-01T19:55:35Z</time>
  <course>77.41</course>
  <speed>25.910841360326376</speed>
  <fix>3d</fix>
</trkpt>
<trkpt lat="-27.2750712" lon="151.2909005">
  <ele>464.36</ele>
  <time>2026-09-01T19:55:35Z</time>
  <course>77.79</course>
  <speed>25.97</speed>
  <fix>3d</fix>
</trkpt>
<trkpt lat="-27.2750635" lon="151.2909499">
  <ele>464.43</ele>
  <time>2026-09-01T19:55:35Z</time>
  <course>79.47</course>
  <speed>25.901399576084685</speed>
  <fix>3d</fix>
</trkpt>
<trkpt lat="-27.2750712" lon="151.2909005">
  <ele>464.36</ele>
  <time>2026-09-01T19:55:35Z</time>
  <course>77.79</course>
  <speed>25.97</speed>
  <fix>3d</fix>
</trkpt>
<trkpt lat="-27.2750607" lon="151.290976">
  <ele>464.45</ele>
  <time>2026-09-01T19:55:35Z</time>
  <course>81.56</course>
  <speed>25.896972796062478</speed>
  <fix>3d</fix>
</trkpt>
<trkpt lat="-27.275063" lon="151.2909521">
  <ele>464.41</ele>
  <time>2026-09-01T19:55:35Z</time>
  <course>82.0</course>
  <speed>25.94</speed>
  <fix>3d</fix>
</trkpt>
<trkpt lat="-27.2750587" lon="151.2910022">
  <ele>464.46</ele>
  <time>2026-09-01T19:55:35Z</time>
  <course>83.66</course>
  <speed>25.896519071102976</speed>
  <fix>3d</fix>
</trkpt>
<trkpt lat="-27.275063" lon="151.2909521">
  <ele>464.41</ele>
  <time>2026-09-01T19:55:35Z</time>
  <course>82.0</course>
  <speed>25.94</speed>
  <fix>3d</fix>
</trkpt>
<trkpt lat="-27.2750575" lon="151.2910287">
  <ele>464.48</ele>
  <time>2026-09-01T19:55:35Z</time>
  <course>85.77</course>
  <speed>25.89115679146067</speed>
  <fix>3d</fix>
</trkpt>
<trkpt lat="-27.2750583" lon="151.2910042">
  <ele>464.46</ele>
  <time>2026-09-01T19:55:35Z</time>
  <course>86.19</course>
  <speed>25.91</speed>
  <fix>3d</fix>
</trkpt>
<trkpt lat="-27.2750572" lon="151.291055">
  <ele>464.49</ele>
  <time>2026-09-01T19:55:35Z</time>
  <course>87.85</course>
  <speed>25.8906257166566</speed>
  <fix>3d</fix>
</trkpt>
<trkpt lat="-27.2750583" lon="151.2910042">
  <ele>464.46</ele>
  <time>2026-09-01T19:55:35Z</time>
  <course>86.19</course>
  <speed>25.91</speed>
  <fix>3d</fix>
</trkpt>
<trkpt lat="-27.2750578" lon="151.2910813">
  <ele>464.49</ele>
  <time>2026-09-01T19:55:35Z</time>
  <course>89.93</course>
  <speed>25.884676934433624</speed>
  <fix>3d</fix>
</trkpt>
<trkpt lat="-27.2750569" lon="151.2910565">
  <ele>464.49</ele>
  <time>2026-09-01T19:55:35Z</time>
  <course>90.38</course>
  <speed>25.88</speed>
  <fix>3d</fix>
</trkpt>
<trkpt lat="-27.2750592" lon="151.2911074">
  <ele>464.5</ele>
  <time>2026-09-01T19:55:35Z</time>
  <course>92.05</course>
  <speed>25.872939531487333</speed>
  <fix>3d</fix>
</trkpt>
<trkpt lat="-27.2750569" lon="151.2910565">
  <ele>464.49</ele>
  <time>2026-09-01T19:55:35Z</time>
  <course>90.38</course>
  <speed>25.88</speed>
  <fix>3d</fix>
</trkpt>
<trkpt lat="-27.2750614" lon="151.2911334">
  <ele>464.51</ele>
  <time>2026-09-01T19:55:35Z</time>
  <course>94.13</course>
  <speed>25.85463981570813</speed>
  <fix>3d</fix>
</trkpt>
<trkpt lat="-27.2750589" lon="151.2911088">
  <ele>464.52</ele>
  <time>2026-09-01T19:55:35Z</time>
  <course>94.57</course>
  <speed>25.85</speed>
  <fix>3d</fix>
</trkpt>
<trkpt lat="-27.2750645" lon="151.291159">
  <ele>464.51</ele>
  <time>2026-09-01T19:55:35Z</time>
  <course>96.17</course>
  <speed>25.84744861683644</speed>
  <fix>3d</fix>
</trkpt>
<trkpt lat="-27.2750589" lon="151.2911088">
  <ele>464.52</ele>
  <time>2026-09-01T19:55:35Z</time>
  <course>94.57</course>
  <speed>25.85</speed>
  <fix>3d</fix>
</trkpt>
<trkpt lat="-27.2750683" lon="151.2911847">
  <ele>464.51</ele>
  <time>2026-09-01T19:55:35Z</time>
  <course>98.24</course>
  <speed>25.83550463993301</speed>
  <fix>3d</fix>
</trkpt>
<trkpt lat="-27.2750642" lon="151.2911608">
  <ele>464.54</ele>
  <time>2026-09-01T19:55:35Z</time>
  <course>98.73</course>
  <speed>25.83</speed>
  <fix>3d</fix>
</trkpt>
<trkpt lat="-27.275073" lon="151.2912103">
  <ele>464.51</ele>
  <time>2026-09-01T19:55:35Z</time>
  <course>100.35</course>
  <speed>25.82818034628069</speed>
  <fix>3d</fix>
</trkpt>
<trkpt lat="-27.2750642" lon="151.2911608">
  <ele>464.54</ele>
  <time>2026-09-01T19:55:35Z</time>
  <course>98.73</course>
  <speed>25.83</speed>
  <fix>3d</fix>
</trkpt>
<trkpt lat="-27.2750785" lon="151.2912357">
  <ele>464.51</ele>
  <time>2026-09-01T19:55:35Z</time>
  <course>102.4</course>
  <speed>25.823595799191093</speed>
  <fix>3d</fix>
</trkpt>
<trkpt lat="-27.2750729" lon="151.2912121">
  <ele>464.55</ele>
  <time>2026-09-01T19:55:35Z</time>
  <course>102.89</course>
  <speed>25.8</speed>
  <fix>3d</fix>
</trkpt>
<trkpt lat="-27.2750849" lon="151.291261">
  <ele>464.5</ele>
  <time>2026-09-01T19:55:35Z</time>
  <course>104.43</course>
  <speed>25.818570835737596</speed>
  <fix>3d</fix>
</trkpt>
<trkpt lat="-27.2750729" lon="151.2912121">
  <ele>464.55</ele>
  <time>2026-09-01T19:55:35Z</time>
  <course>102.89</course>
  <speed>25.8</speed>
  <fix>3d</fix>
</trkpt>
<trkpt lat="-27.2750921" lon="151.2912861">
  <ele>464.49</ele>
  <time>2026-09-01T19:55:35Z</time>
  <course>106.38</course>
  <speed>25.82139616674513</speed>
  <fix>3d</fix>
</trkpt>
<trkpt lat="-27.2750848" lon="151.2912624">
  <ele>464.55</ele>
  <time>2026-09-01T19:55:35Z</time>
  <course>107.02</course>
  <speed>25.78</speed>
  <fix>3d</fix>
</trkpt>
<trkpt lat="-27.2751" lon="151.2913106">
  <ele>464.48</ele>
  <time>2026-09-01T19:55:35Z</time>
  <course>108.46</course>
  <speed>25.808442417162645</speed>
  <fix>3d</fix>
</trkpt>
<trkpt lat="-27.2750848" lon="151.2912624">
  <ele>464.55</ele>
  <time>2026-09-01T19:55:35Z</time>
  <course>107.02</course>
  <speed>25.78</speed>
  <fix>3d</fix>
</trkpt>
<trkpt lat="-27.2751087" lon="151.2913348">
  <ele>464.47</ele>
  <time>2026-09-01T19:55:35Z</time>
  <course>110.57</course>
  <speed>25.793894626442125</speed>
  <fix>3d</fix>
</trkpt>
<trkpt lat="-27.2751" lon="151.2913116">
  <ele>464.54</ele>
  <time>2026-09-01T19:55:35Z</time>
  <course>111.09</course>
  <speed>25.76</speed>
  <fix>3d</fix>
</trkpt>
<trkpt lat="-27.275109" lon="151.2913356">
  <ele>464.47</ele>
  <time>2026-09-01T19:55:35Z</time>
  <course>110.63</course>
  <speed>25.796472627086054</speed>
  <fix>3d</fix>
</trkpt>
<trkpt lat="-27.2751182" lon="151.2913586">
  <ele>464.46</ele>
  <time>2026-09-01T19:55:35Z</time>
  <course>112.66</course>
  <speed>25.79426486643882</speed>
  <fix>3d</fix>
</trkpt>
<trkpt lat="-27.2751" lon="151.2913116">
  <ele>464.54</ele>
  <time>2026-09-01T19:55:35Z</time>
  <course>111.09</course>
  <speed>25.76</speed>
  <fix>3d</fix>
</trkpt>
<trkpt lat="-27.2751284" lon="151.2913821">
  <ele>464.45</ele>
  <time>2026-09-01T19:55:35Z</time>
  <course>114.73</course>
  <speed>25.783502477359434</speed>
  <fix>3d</fix>
</trkpt>
<trkpt lat="-27.2751182" lon="151.2913594">
  <ele>464.53</ele>
  <time>2026-09-01T19:55:35Z</time>
  <course>115.19</course>
  <speed>25.74</speed>
  <fix>3d</fix>
</trkpt>
<trkpt lat="-27.2751393" lon="151.2914051">
  <ele>464.44</ele>
  <time>2026-09-01T19:55:35Z</time>
  <course>116.73</course>
  <speed>25.782903250022095</speed>
  <fix>3d</fix>
</trkpt>
<trkpt lat="-27.2751182" lon="151.2913594">
  <ele>464.53</ele>
  <time>2026-09-01T19:55:35Z</time>
  <course>115.19</course>
  <speed>25.74</speed>
  <fix>3d</fix>
</trkpt>
<trkpt lat="-27.2751509" lon="151.2914275">
  <ele>464.42</ele>
  <time>2026-09-01T19:55:35Z</time>
  <course>118.83</course>
  <speed>25.78344430055845</speed>
  <fix>3d</fix>
</trkpt>
<trkpt lat="-27.2751393" lon="151.2914056">
  <ele>464.52</ele>
  <time>2026-09-01T19:55:35Z</time>
  <course>119.29</course>
  <speed>25.72</speed>
  <fix>3d</fix>
</trkpt>
<trkpt lat="-27.2751632" lon="151.2914495">
  <ele>464.4</ele>
  <time>2026-09-01T19:55:35Z</time>
  <course>120.95</course>
  <speed>25.78009503473562</speed>
  <fix>3d</fix>
</trkpt>
<trkpt lat="-27.2751393" lon="151.2914056">
  <ele>464.52</ele>
  <time>2026-09-01T19:55:35Z</time>
  <course>119.29</course>
  <speed>25.72</speed>
  <fix>3d</fix>
</trkpt>
<trkpt lat="-27.2751763" lon="151.2914709">
  <ele>464.38</ele>
  <time>2026-09-01T19:55:35Z</time>
  <course>123.18</course>
  <speed>25.779076787193134</speed>
  <fix>3d</fix>
</trkpt>
<trkpt lat="-27.2751633" lon="151.29145">
  <ele>464.49</ele>
  <time>2026-09-01T19:55:35Z</time>
  <course>123.46</course>
  <speed>25.71</speed>
  <fix>3d</fix>
</trkpt>
<trkpt lat="-27.27519" lon="151.2914917">
  <ele>464.37</ele>
  <time>2026-09-01T19:55:35Z</time>
  <course>125.45</course>
  <speed>25.779389054048583</speed>
  <fix>3d</fix>
</trkpt>
<trkpt lat="-27.2751633" lon="151.29145">
  <ele>464.49</ele>
  <time>2026-09-01T19:55:35Z</time>
  <course>123.46</course>
  <speed>25.71</speed>
  <fix>3d</fix>
</trkpt>
<trkpt lat="-27.2752045" lon="151.2915119">
  <ele>464.35</ele>
  <time>2026-09-01T19:55:35Z</time>
  <course>127.66</course>
  <speed>25.785571546894207</speed>
  <fix>3d</fix>
</trkpt>
<trkpt lat="-27.2751903" lon="151.2914922">
  <ele>464.46</ele>
  <time>2026-09-01T19:55:35Z</time>
  <course>127.85</course>
  <speed>25.72</speed>
  <fix>3d</fix>
</trkpt>
<trkpt lat="-27.2752197" lon="151.2915315">
  <ele>464.34</ele>
  <time>2026-09-01T19:55:35Z</time>
  <course>129.91</course>
  <speed>25.781532149971227</speed>
  <fix>3d</fix>
</trkpt>
<trkpt lat="-27.2751903" lon="151.2914922">
  <ele>464.46</ele>
  <time>2026-09-01T19:55:35Z</time>
  <course>127.85</course>
  <speed>25.72</speed>
  <fix>3d</fix>
</trkpt>
<trkpt lat="-27.2752355" lon="151.2915503">
  <ele>464.33</ele>
  <time>2026-09-01T19:55:35Z</time>
  <course>132.09</course>
  <speed>25.774857904554974</speed>
  <fix>3d</fix>
</trkpt>
<trkpt lat="-27.2752201" lon="151.291532">
  <ele>464.44</ele>
  <time>2026-09-01T19:55:35Z</time>
  <course>132.36</course>
  <speed>25.72</speed>
  <fix>3d</fix>
</trkpt>
<trkpt lat="-27.2752521" lon="151.2915686">
  <ele>464.33</ele>
  <time>2026-09-01T19:55:35Z</time>
  <course>134.13</course>
  <speed>25.778285435614215</speed>
  <fix>3d</fix>
</trkpt>
<trkpt lat="-27.2752201" lon="151.291532">
  <ele>464.44</ele>
  <time>2026-09-01T19:55:35Z</time>
  <course>132.36</course>
  <speed>25.72</speed>
  <fix>3d</fix>
</trkpt>
<trkpt lat="-27.2752693" lon="151.2915861">
  <ele>464.33</ele>
  <time>2026-09-01T19:55:35Z</time>
  <course>136.02</course>
  <speed>25.76450271206491</speed>
  <fix>3d</fix>
</trkpt>
<trkpt lat="-27.2752525" lon="151.2915689">
  <ele>464.43</ele>
  <time>2026-09-01T19:55:35Z</time>
  <course>136.71</course>
  <speed>25.71</speed>
  <fix>3d</fix>
</trkpt>
<trkpt lat="-27.275287" lon="151.291603">
  <ele>464.33</ele>
  <time>2026-09-01T19:55:35Z</time>
  <course>137.81</course>
  <speed>25.741167417193807</speed>
  <fix>3d</fix>
</trkpt>
<trkpt lat="-27.2752525" lon="151.2915689">
  <ele>464.43</ele>
  <time>2026-09-01T19:55:35Z</time>
  <course>136.71</course>
  <speed>25.71</speed>
  <fix>3d</fix>
</trkpt>
<trkpt lat="-27.2753051" lon="151.2916192">
  <ele>464.34</ele>
  <time>2026-09-01T19:55:35Z</time>
  <course>139.49</course>
  <speed>25.72432700771781</speed>
  <fix>3d</fix>
</trkpt>
<trkpt lat="-27.2752872" lon="151.2916033">
  <ele>464.44</ele>
  <time>2026-09-01T19:55:35Z</time>
  <course>140.64</course>
  <speed>25.68</speed>
  <fix>3d</fix>
</trkpt>
<trkpt lat="-27.2753237" lon="151.2916349">
  <ele>464.34</ele>
  <time>2026-09-01T19:55:35Z</time>
  <course>140.98</course>
  <speed>25.696493924269124</speed>
  <fix>3d</fix>
</trkpt>
<trkpt lat="-27.2752872" lon="151.2916033">
  <ele>464.44</ele>
  <time>2026-09-01T19:55:35Z</time>
  <course>140.64</course>
  <speed>25.68</speed>
  <fix>3d</fix>
</trkpt>
<trkpt lat="-27.2753426" lon="151.2916499">
  <ele>464.34</ele>
  <time>2026-09-01T19:55:35Z</time>
  <course>142.39</course>
  <speed>25.655574442993867</speed>
  <fix>3d</fix>
</trkpt>
<trkpt lat="-27.2753238" lon="151.2916349">
  <ele>464.45</ele>
  <time>2026-09-01T19:55:35Z</time>
  <course>143.99</course>
  <speed>25.62</speed>
  <fix>3d</fix>
</trkpt>
<trkpt lat="-27.2753618" lon="151.2916645">
  <ele>464.33</ele>
  <time>2026-09-01T19:55:35Z</time>
  <course>143.68</course>
  <speed>25.62774473105271</speed>
  <fix>3d</fix>
</trkpt>
<trkpt lat="-27.2753238" lon="151.2916349">
  <ele>464.45</ele>
  <time>2026-09-01T19:55:35Z</time>
  <course>143.99</course>
  <speed>25.62</speed>
  <fix>3d</fix>
</trkpt>
<trkpt lat="-27.2753814" lon="151.2916786">
  <ele>464.31</ele>
  <time>2026-09-01T19:55:35Z</time>
  <course>144.86</course>
  <speed>25.58731130853728</speed>
  <fix>3d</fix>
</trkpt>
<trkpt lat="-27.2753616" lon="151.2916643">
  <ele>464.45</ele>
  <time>2026-09-01T19:55:35Z</time>
  <course>146.78</course>
  <speed>25.55</speed>
  <fix>3d</fix>
</trkpt>
<trkpt lat="-27.275401" lon="151.2916921">
  <ele>464.29</ele>
  <time>2026-09-01T19:55:35Z</time>
  <course>145.97</course>
  <speed>25.544715696206136</speed>
  <fix>3d</fix>
</trkpt>
<trkpt lat="-27.2753616" lon="151.2916643">
  <ele>464.45</ele>
  <time>2026-09-01T19:55:35Z</time>
  <course>146.78</course>
  <speed>25.55</speed>
  <fix>3d</fix>
</trkpt>
<trkpt lat="-27.2754208" lon="151.2917052">
  <ele>464.25</ele>
  <time>2026-09-01T19:55:35Z</time>
  <course>147.01</course>
  <speed>25.510501759079535</speed>
  <fix>3d</fix>
</trkpt>
<trkpt lat="-27.2754004" lon="151.2916917">
  <ele>464.42</ele>
  <time>2026-09-01T19:55:35Z</time>
  <course>149.1</course>
  <speed>25.46</speed>
  <fix>3d</fix>
</trkpt>
<trkpt lat="-27.2754408" lon="151.2917179">
  <ele>464.21</ele>
  <time>2026-09-01T19:55:35Z</time>
  <course>147.92</course>
  <speed>25.475865049100886</speed>
  <fix>3d</fix>
</trkpt>
<trkpt lat="-27.2754004" lon="151.2916917">
  <ele>464.42</ele>
  <time>2026-09-01T19:55:35Z</time>
  <course>149.1</course>
  <speed>25.46</speed>
  <fix>3d</fix>
</trkpt>
<trkpt lat="-27.2754609" lon="151.2917303">
  <ele>464.15</ele>
  <time>2026-09-01T19:55:35Z</time>
  <course>148.71</course>
  <speed>25.444938592969724</speed>
  <fix>3d</fix>
</trkpt>
<trkpt lat="-27.27544" lon="151.2917172">
  <ele>464.34</ele>
  <time>2026-09-01T19:55:35Z</time>
  <course>151.0</course>
  <speed>25.39</speed>
  <fix>3d</fix>
</trkpt>
<trkpt lat="-27.2754809" lon="151.2917423">
  <ele>464.08</ele>
  <time>2026-09-01T19:55:35Z</time>
  <course>149.56</course>
  <speed>25.39257568660572</speed>
  <fix>3d</fix>
</trkpt>
<trkpt lat="-27.27544" lon="151.2917172">
  <ele>464.34</ele>
  <time>2026-09-01T19:55:35Z</time>
  <course>151.0</course>
  <speed>25.39</speed>
  <fix>3d</fix>
</trkpt>
<trkpt lat="-27.2755011" lon="151.2917539">
  <ele>464.01</ele>
  <time>2026-09-01T19:55:35Z</time>
  <course>150.35</course>
  <speed>25.36217853418748</speed>
  <fix>3d</fix>
</trkpt>
<trkpt lat="-27.2754801" lon="151.2917415">
  <ele>464.22</ele>
  <time>2026-09-01T19:55:35Z</time>
  <course>152.51</course>
  <speed>25.31</speed>
  <fix>3d</fix>
</trkpt>
<trkpt lat="-27.2755213" lon="151.2917653">
  <ele>463.92</ele>
  <time>2026-09-01T19:55:35Z</time>
  <course>151.01</course>
  <speed>25.325737896456243</speed>
  <fix>3d</fix>
</trkpt>
<trkpt lat="-27.2754801" lon="151.2917415">
  <ele>464.22</ele>
  <time>2026-09-01T19:55:35Z</time>
  <course>152.51</course>
  <speed>25.31</speed>
  <fix>3d</fix>
</trkpt>
<trkpt lat="-27.2755415" lon="151.2917765">
  <ele>463.83</ele>
  <time>2026-09-01T19:55:35Z</time>
  <course>151.63</course>
  <speed>25.290917342002444</speed>
  <fix>3d</fix>
</trkpt>
<trkpt lat="-27.2755207" lon="151.2917646">
  <ele>464.07</ele>
  <time>2026-09-01T19:55:35Z</time>
  <course>153.66</course>
  <speed>25.26</speed>
  <fix>3d</fix>
</trkpt>
<trkpt lat="-27.2755618" lon="151.2917875">
  <ele>463.73</ele>
  <time>2026-09-01T19:55:35Z</time>
  <course>152.18</course>
  <speed>25.261417220734074</speed>
  <fix>3d</fix>
</trkpt>
<trkpt lat="-27.2755207" lon="151.2917646">
  <ele>464.07</ele>
  <time>2026-09-01T19:55:35Z</time>
  <course>153.66</course>
  <speed>25.26</speed>
  <fix>3d</fix>
</trkpt>
<trkpt lat="-27.2755821" lon="151.2917985">
  <ele>463.63</ele>
  <time>2026-09-01T19:55:35Z</time>
  <course>152.59</course>
  <speed>25.24527084425913</speed>
  <fix>3d</fix>
</trkpt>
<trkpt lat="-27.2755614" lon="151.2917869">
  <ele>463.88</ele>
  <time>2026-09-01T19:55:35Z</time>
  <course>154.42</course>
  <speed>25.22</speed>
  <fix>3d</fix>
</trkpt>
<trkpt lat="-27.2756024" lon="151.2918093">
  <ele>463.52</ele>
  <time>2026-09-01T19:55:35Z</time>
  <course>152.95</course>
  <speed>25.223802251048514</speed>
  <fix>3d</fix>
</trkpt>
<trkpt lat="-27.2755614" lon="151.2917869">
  <ele>463.88</ele>
  <time>2026-09-01T19:55:35Z</time>
  <course>154.42</course>
  <speed>25.22</speed>
  <fix>3d</fix>
</trkpt>
<trkpt lat="-27.2756228" lon="151.2918201">
  <ele>463.41</ele>
  <time>2026-09-01T19:55:35Z</time>
  <course>153.23</course>
  <speed>25.210481946999742</speed>
  <fix>3d</fix>
</trkpt>
<trkpt lat="-27.2756023" lon="151.2918087">
  <ele>463.66</ele>
  <time>2026-09-01T19:55:35Z</time>
  <course>154.78</course>
  <speed>25.19</speed>
  <fix>3d</fix>
</trkpt>
<trkpt lat="-27.2756431" lon="151.2918309">
  <ele>463.29</ele>
  <time>2026-09-01T19:55:35Z</time>
  <course>153.45</course>
  <speed>25.196257658628593</speed>
  <fix>3d</fix>
</trkpt>
<trkpt lat="-27.2756023" lon="151.2918087">
  <ele>463.66</ele>
  <time>2026-09-01T19:55:35Z</time>
  <course>154.78</course>
  <speed>25.19</speed>
  <fix>3d</fix>
</trkpt>
<trkpt lat="-27.2756634" lon="151.2918417">
  <ele>463.18</ele>
  <time>2026-09-01T19:55:35Z</time>
  <course>153.63</course>
  <speed>25.186031843067298</speed>
  <fix>3d</fix>
</trkpt>
<trkpt lat="-27.2756433" lon="151.2918304">
  <ele>463.44</ele>
  <time>2026-09-01T19:55:35Z</time>
  <course>154.72</course>
  <speed>25.18</speed>
  <fix>3d</fix>
</trkpt>
<trkpt lat="-27.2756838" lon="151.2918527">
  <ele>463.07</ele>
  <time>2026-09-01T19:55:35Z</time>
  <course>153.63</course>
  <speed>25.197795538498998</speed>
  <fix>3d</fix>
</trkpt>
<trkpt lat="-27.2756433" lon="151.2918304">
  <ele>463.44</ele>
  <time>2026-09-01T19:55:35Z</time>
  <course>154.72</course>
  <speed>25.18</speed>
  <fix>3d</fix>
</trkpt>
<trkpt lat="-27.2757041" lon="151.2918639">
  <ele>462.95</ele>
  <time>2026-09-01T19:55:35Z</time>
  <course>153.54</course>
  <speed>25.20097220346866</speed>
  <fix>3d</fix>
</trkpt>
<trkpt lat="-27.2756842" lon="151.2918523">
  <ele>463.21</ele>
  <time>2026-09-01T19:55:35Z</time>
  <course>154.29</course>
  <speed>25.19</speed>
  <fix>3d</fix>
</trkpt>
<trkpt lat="-27.2757245" lon="151.2918752">
  <ele>462.85</ele>
  <time>2026-09-01T19:55:35Z</time>
  <course>153.35</course>
  <speed>25.218400028550583</speed>
  <fix>3d</fix>
</trkpt>
<trkpt lat="-27.2756842" lon="151.2918523">
  <ele>463.21</ele>
  <time>2026-09-01T19:55:35Z</time>
  <course>154.29</course>
  <speed>25.19</speed>
  <fix>3d</fix>
</trkpt>
<trkpt lat="-27.2757448" lon="151.2918867">
  <ele>462.76</ele>
  <time>2026-09-01T19:55:35Z</time>
  <course>153.07</course>
  <speed>25.23750581971206</speed>
  <fix>3d</fix>
</trkpt>
<trkpt lat="-27.275725" lon="151.2918747">
  <ele>463.01</ele>
  <time>2026-09-01T19:55:35Z</time>
  <course>153.53</course>
  <speed>25.21</speed>
  <fix>3d</fix>
</trkpt>
<trkpt lat="-27.275765" lon="151.2918984">
  <ele>462.67</ele>
  <time>2026-09-01T19:55:35Z</time>
  <course>152.61</course>
  <speed>25.263501340867222</speed>
  <fix>3d</fix>
</trkpt>
<trkpt lat="-27.275725" lon="151.2918747">
  <ele>463.01</ele>
  <time>2026-09-01T19:55:35Z</time>
  <course>153.53</course>
  <speed>25.21</speed>
  <fix>3d</fix>
</trkpt>
<trkpt lat="-27.2757852" lon="151.2919104">
  <ele>462.59</ele>
  <time>2026-09-01T19:55:35Z</time>
  <course>152.04</course>
  <speed>25.284433946600426</speed>
  <fix>3d</fix>
</trkpt>
<trkpt lat="-27.2757654" lon="151.2918978">
  <ele>462.84</ele>
  <time>2026-09-01T19:55:35Z</time>
  <course>152.46</course>
  <speed>25.24</speed>
  <fix>3d</fix>
</trkpt>
<trkpt lat="-27.275805" lon="151.2919226">
  <ele>462.52</ele>
  <time>2026-09-01T19:55:35Z</time>
  <course>151.42</course>
  <speed>25.29616967052522</speed>
  <fix>3d</fix>
</trkpt>
<trkpt lat="-27.2757654" lon="151.2918978">
  <ele>462.84</ele>
  <time>2026-09-01T19:55:35Z</time>
  <course>152.46</course>
  <speed>25.24</speed>
  <fix>3d</fix>
</trkpt>
<trkpt lat="-27.2758249" lon="151.2919352">
  <ele>462.46</ele>
  <time>2026-09-01T19:55:35Z</time>
  <course>150.72</course>
  <speed>25.31800940042483</speed>
  <fix>3d</fix>
</trkpt>
<trkpt lat="-27.2758053" lon="151.291922">
  <ele>462.71</ele>
  <time>2026-09-01T19:55:35Z</time>
  <course>151.1</course>
  <speed>25.28</speed>
  <fix>3d</fix>
</trkpt>
<trkpt lat="-27.2758447" lon="151.2919481">
  <ele>462.42</ele>
  <time>2026-09-01T19:55:35Z</time>
  <course>149.98</course>
  <speed>25.3375018500246</speed>
  <fix>3d</fix>
</trkpt>
<trkpt lat="-27.2758053" lon="151.291922">
  <ele>462.71</ele>
  <time>2026-09-01T19:55:35Z</time>
  <course>151.1</course>
  <speed>25.28</speed>
  <fix>3d</fix>
</trkpt>
<trkpt lat="-27.2758643" lon="151.2919613">
  <ele>462.38</ele>
  <time>2026-09-01T19:55:35Z</time>
  <course>149.2</course>
  <speed>25.355835620227545</speed>
  <fix>3d</fix>
</trkpt>
<trkpt lat="-27.2758448" lon="151.2919473">
  <ele>462.61</ele>
  <time>2026-09-01T19:55:35Z</time>
  <course>149.47</course>
  <speed>25.31</speed>
  <fix>3d</fix>
</trkpt>
<trkpt lat="-27.2758838" lon="151.291975">
  <ele>462.34</ele>
  <time>2026-09-01T19:55:35Z</time>
  <course>148.4</course>
  <speed>25.36891207758031</speed>
  <fix>3d</fix>
</trkpt>
<trkpt lat="-27.2758448" lon="151.2919473">
  <ele>462.61</ele>
  <time>2026-09-01T19:55:35Z</time>
  <course>149.47</course>
  <speed>25.31</speed>
  <fix>3d</fix>
</trkpt>
<trkpt lat="-27.2759032" lon="151.291989">
  <ele>462.32</ele>
  <time>2026-09-01T19:55:35Z</time>
  <course>147.53</course>
  <speed>25.39433992054135</speed>
  <fix>3d</fix>
</trkpt>
<trkpt lat="-27.2758836" lon="151.2919739">
  <ele>462.54</ele>
  <time>2026-09-01T19:55:35Z</time>
  <course>147.65</course>
  <speed>25.35</speed>
  <fix>3d</fix>
</trkpt>
<trkpt lat="-27.2759222" lon="151.2920034">
  <ele>462.3</ele>
  <time>2026-09-01T19:55:35Z</time>
  <course>146.6</course>
  <speed>25.4103699304044</speed>
  <fix>3d</fix>
</trkpt>
<trkpt lat="-27.2758836" lon="151.2919739">
  <ele>462.54</ele>
  <time>2026-09-01T19:55:35Z</time>
  <course>147.65</course>
  <speed>25.35</speed>
  <fix>3d</fix>
</trkpt>
<trkpt lat="-27.275941" lon="151.2920181">
  <ele>462.3</ele>
  <time>2026-09-01T19:55:35Z</time>
  <course>145.59</course>
  <speed>25.429174190287817</speed>
  <fix>3d</fix>
</trkpt>
<trkpt lat="-27.2759217" lon="151.2920021">
  <ele>462.51</ele>
  <time>2026-09-01T19:55:35Z</time>
  <course>145.68</course>
  <speed>25.38</speed>
  <fix>3d</fix>
</trkpt>
<trkpt lat="-27.2759594" lon="151.2920331">
  <ele>462.3</ele>
  <time>2026-09-01T19:55:35Z</time>
  <course>144.59</course>
  <speed>25.426342639082012</speed>
  <fix>3d</fix>
</trkpt>
<trkpt lat="-27.2759217" lon="151.2920021">
  <ele>462.51</ele>
  <time>2026-09-01T19:55:35Z</time>
  <course>145.68</course>
  <speed>25.38</speed>
  <fix>3d</fix>
</trkpt>
<trkpt lat="-27.2759776" lon="151.2920484">
  <ele>462.31</ele>
  <time>2026-09-01T19:55:35Z</time>
  <course>143.6</course>
  <speed>25.432272804450648</speed>
  <fix>3d</fix>
</trkpt>
<trkpt lat="-27.2759589" lon="151.2920318">
  <ele>462.52</ele>
  <time>2026-09-01T19:55:35Z</time>
  <course>143.59</course>
  <speed>25.41</speed>
  <fix>3d</fix>
</trkpt>
<trkpt lat="-27.2759955" lon="151.2920641">
  <ele>462.33</ele>
  <time>2026-09-01T19:55:35Z</time>
  <course>142.52</course>
  <speed>25.418845371102126</speed>
  <fix>3d</fix>
</trkpt>
<trkpt lat="-27.2759589" lon="151.2920318">
  <ele>462.52</ele>
  <time>2026-09-01T19:55:35Z</time>
  <course>143.59</course>
  <speed>25.41</speed>
  <fix>3d</fix>
</trkpt>
<trkpt lat="-27.2760131" lon="151.2920802">
  <ele>462.35</ele>
  <time>2026-09-01T19:55:35Z</time>
  <course>141.51</course>
  <speed>25.420448461819078</speed>
  <fix>3d</fix>
</trkpt>
<trkpt lat="-27.2759951" lon="151.2920631">
  <ele>462.55</ele>
  <time>2026-09-01T19:55:35Z</time>
  <course>141.45</course>
  <speed>25.43</speed>
  <fix>3d</fix>
</trkpt>
<trkpt lat="-27.2760304" lon="151.2920967">
  <ele>462.38</ele>
  <time>2026-09-01T19:55:35Z</time>
  <course>140.5</course>
  <speed>25.410332544065614</speed>
  <fix>3d</fix>
</trkpt>
<trkpt lat="-27.2759951" lon="151.2920631">
  <ele>462.55</ele>
  <time>2026-09-01T19:55:35Z</time>
  <course>141.45</course>
  <speed>25.43</speed>
  <fix>3d</fix>
</trkpt>
<trkpt lat="-27.2760474" lon="151.2921135">
  <ele>462.41</ele>
  <time>2026-09-01T19:55:35Z</time>
  <course>139.44</course>
  <speed>25.408817367205426</speed>
  <fix>3d</fix>
</trkpt>
<trkpt lat="-27.2760303" lon="151.2920959">
  <ele>462.61</ele>
  <time>2026-09-01T19:55:35Z</time>
  <course>139.3</course>
  <speed>25.44</speed>
  <fix>3d</fix>
</trkpt>
<trkpt lat="-27.2760643" lon="151.2921307">
  <ele>462.44</ele>
  <time>2026-09-01T19:55:35Z</time>
  <course>138.44</course>
  <speed>25.40858319544795</speed>
  <fix>3d</fix>
</trkpt>
<trkpt lat="-27.2760303" lon="151.2920959">
  <ele>462.61</ele>
  <time>2026-09-01T19:55:35Z</time>
  <course>139.3</course>
  <speed>25.44</speed>
  <fix>3d</fix>
</trkpt>
<trkpt lat="-27.2760809" lon="151.2921483">
  <ele>462.48</ele>
  <time>2026-09-01T19:55:35Z</time>
  <course>137.46</course>
  <speed>25.403306871350434</speed>
  <fix>3d</fix>
</trkpt>
<trkpt lat="-27.2760644" lon="151.2921301">
  <ele>462.67</ele>
  <time>2026-09-01T19:55:35Z</time>
  <course>137.18</course>
  <speed>25.45</speed>
  <fix>3d</fix>
</trkpt>
<trkpt lat="-27.2760972" lon="151.2921663">
  <ele>462.52</ele>
  <time>2026-09-01T19:55:35Z</time>
  <course>136.47</course>
  <speed>25.406347632038727</speed>
  <fix>3d</fix>
</trkpt>
<trkpt lat="-27.2760644" lon="151.2921301">
  <ele>462.67</ele>
  <time>2026-09-01T19:55:35Z</time>
  <course>137.18</course>
  <speed>25.45</speed>
  <fix>3d</fix>
</trkpt>
<trkpt lat="-27.2761133" lon="151.2921846">
  <ele>462.56</ele>
  <time>2026-09-01T19:55:35Z</time>
  <course>135.44</course>
  <speed>25.403306871350434</speed>
  <fix>3d</fix>
</trkpt>
<trkpt lat="-27.2760974" lon="151.2921658">
  <ele>462.74</ele>
  <time>2026-09-01T19:55:35Z</time>
  <course>135.1</course>
  <speed>25.45</speed>
  <fix>3d</fix>
</trkpt>
<trkpt lat="-27.2761289" lon="151.2922031">
  <ele>462.6</ele>
  <time>2026-09-01T19:55:35Z</time>
  <course>134.43</course>
  <speed>25.39394612894971</speed>
  <fix>3d</fix>
</trkpt>
<trkpt lat="-27.2760974" lon="151.2921658">
  <ele>462.74</ele>
  <time>2026-09-01T19:55:35Z</time>
  <course>135.1</course>
  <speed>25.45</speed>
  <fix>3d</fix>
</trkpt>
<trkpt lat="-27.2761442" lon="151.2922218">
  <ele>462.63</ele>
  <time>2026-09-01T19:55:35Z</time>
  <course>133.45</course>
  <speed>25.37754913304277</speed>
  <fix>3d</fix>
</trkpt>
<trkpt lat="-27.2761293" lon="151.2922029">
  <ele>462.82</ele>
  <time>2026-09-01T19:55:35Z</time>
  <course>133.06</course>
  <speed>25.45</speed>
  <fix>3d</fix>
</trkpt>
<trkpt lat="-27.2761593" lon="151.2922409">
  <ele>462.67</ele>
  <time>2026-09-01T19:55:35Z</time>
  <course>132.45</course>
  <speed>25.369511229032376</speed>
  <fix>3d</fix>
</trkpt>
<trkpt lat="-27.2761293" lon="151.2922029">
  <ele>462.82</ele>
  <time>2026-09-01T19:55:35Z</time>
  <course>133.06</course>
  <speed>25.45</speed>
  <fix>3d</fix>
</trkpt>
<trkpt lat="-27.2761739" lon="151.2922601">
  <ele>462.7</ele>
  <time>2026-09-01T19:55:35Z</time>
  <course>131.48</course>
  <speed>25.354021377288454</speed>
  <fix>3d</fix>
</trkpt>
<trkpt lat="-27.27616" lon="151.2922411">
  <ele>462.89</ele>
  <time>2026-09-01T19:55:35Z</time>
  <course>131.06</course>
  <speed>25.45</speed>
  <fix>3d</fix>
</trkpt>
<trkpt lat="-27.2761884" lon="151.2922798">
  <ele>462.73</ele>
  <time>2026-09-01T19:55:35Z</time>
  <course>130.49</course>
  <speed>25.350794859333305</speed>
  <fix>3d</fix>
</trkpt>
<trkpt lat="-27.27616" lon="151.2922411">
  <ele>462.89</ele>
  <time>2026-09-01T19:55:35Z</time>
  <course>131.06</course>
  <speed>25.45</speed>
  <fix>3d</fix>
</trkpt>
<trkpt lat="-27.2762026" lon="151.2922998">
  <ele>462.77</ele>
  <time>2026-09-01T19:55:35Z</time>
  <course>129.46</course>
  <speed>25.34192573582363</speed>
  <fix>3d</fix>
</trkpt>
<trkpt lat="-27.2761894" lon="151.2922804">
  <ele>462.96</ele>
  <time>2026-09-01T19:55:35Z</time>
  <course>129.1</course>
  <speed>25.44</speed>
  <fix>3d</fix>
</trkpt>
<trkpt lat="-27.2762166" lon="151.29232">
  <ele>462.8</ele>
  <time>2026-09-01T19:55:35Z</time>
  <course>128.52</course>
  <speed>25.34028413416077</speed>
  <fix>3d</fix>
</trkpt>
<trkpt lat="-27.2761894" lon="151.2922804">
  <ele>462.96</ele>
  <time>2026-09-01T19:55:35Z</time>
  <course>129.1</course>
  <speed>25.44</speed>
  <fix>3d</fix>
</trkpt>
<trkpt lat="-27.2762303" lon="151.2923407">
  <ele>462.83</ele>
  <time>2026-09-01T19:55:35Z</time>
  <course>127.59</course>
  <speed>25.329729568236612</speed>
  <fix>3d</fix>
</trkpt>
<trkpt lat="-27.2762176" lon="151.2923208">
  <ele>463.03</ele>
  <time>2026-09-01T19:55:35Z</time>
  <course>127.19</course>
  <speed>25.43</speed>
  <fix>3d</fix>
</trkpt>
<trkpt lat="-27.2762437" lon="151.2923615">
  <ele>462.86</ele>
  <time>2026-09-01T19:55:36Z</time>
  <course>126.65</course>
  <speed>25.323621383996407</speed>
  <fix>3d</fix>
</trkpt>
<trkpt lat="-27.2762176" lon="151.2923208">
  <ele>463.03</ele>
  <time>2026-09-01T19:55:36Z</time>
  <course>127.19</course>
  <speed>25.43</speed>
  <fix>3d</fix>
</trkpt>
<trkpt lat="-27.2762567" lon="151.2923825">
  <ele>462.88</ele>
  <time>2026-09-01T19:55:36Z</time>
  <course>125.68</course>
  <speed>25.32129933474979</speed>
  <fix>3d</fix>
</trkpt>
<trkpt lat="-27.2762446" lon="151.2923622">
  <ele>463.08</ele>
  <time>2026-09-01T19:55:36Z</time>
  <course>125.32</course>
  <speed>25.42</speed>
  <fix>3d</fix>
</trkpt>
<trkpt lat="-27.2762695" lon="151.2924037">
  <ele>462.91</ele>
  <time>2026-09-01T19:55:36Z</time>
  <course>124.82</course>
  <speed>25.324932378981785</speed>
  <fix>3d</fix>
</trkpt>
<trkpt lat="-27.2762446" lon="151.2923622">
  <ele>463.08</ele>
  <time>2026-09-01T19:55:36Z</time>
  <course>125.32</course>
  <speed>25.42</speed>
  <fix>3d</fix>
</trkpt>
<trkpt lat="-27.2762819" lon="151.2924252">
  <ele>462.93</ele>
  <time>2026-09-01T19:55:36Z</time>
  <course>123.99</course>
  <speed>25.314667684960828</speed>
  <fix>3d</fix>
</trkpt>
<trkpt lat="-27.2762704" lon="151.2924047">
  <ele>463.13</ele>
  <time>2026-09-01T19:55:36Z</time>
  <course>123.56</course>
  <speed>25.41</speed>
  <fix>3d</fix>
</trkpt>
<trkpt lat="-27.2762941" lon="151.2924467">
  <ele>462.95</ele>
  <time>2026-09-01T19:55:36Z</time>
  <course>123.13</course>
  <speed>25.301132385725346</speed>
  <fix>3d</fix>
</trkpt>
<trkpt lat="-27.2762704" lon="151.2924047">
  <ele>463.13</ele>
  <time>2026-09-01T19:55:36Z</time>
  <course>123.56</course>
  <speed>25.41</speed>
  <fix>3d</fix>
</trkpt>
<trkpt lat="-27.2763059" lon="151.2924684">
  <ele>462.97</ele>
  <time>2026-09-01T19:55:36Z</time>
  <course>122.37</course>
  <speed>25.2841076567871</speed>
  <fix>3d</fix>
</trkpt>
<trkpt lat="-27.2762951" lon="151.2924479">
  <ele>463.16</ele>
  <time>2026-09-01T19:55:36Z</time>
  <course>121.89</course>
  <speed>25.4</speed>
  <fix>3d</fix>
</trkpt>
<trkpt lat="-27.2763175" lon="151.2924902">
  <ele>462.99</ele>
  <time>2026-09-01T19:55:36Z</time>
  <course>121.57</course>
  <speed>25.268432875823542</speed>
  <fix>3d</fix>
</trkpt>
<trkpt lat="-27.2762951" lon="151.2924479">
  <ele>463.16</ele>
  <time>2026-09-01T19:55:36Z</time>
  <course>121.89</course>
  <speed>25.4</speed>
  <fix>3d</fix>
</trkpt>
<trkpt lat="-27.2763289" lon="151.2925124">
  <ele>463.0</ele>
  <time>2026-09-01T19:55:36Z</time>
  <course>120.74</course>
  <speed>25.253564104894185</speed>
  <fix>3d</fix>
</trkpt>
<trkpt lat="-27.2763187" lon="151.2924918">
  <ele>463.21</ele>
  <time>2026-09-01T19:55:36Z</time>
  <course>120.31</course>
  <speed>25.39</speed>
  <fix>3d</fix>
</trkpt>
<trkpt lat="-27.27634" lon="151.2925345">
  <ele>463.02</ele>
  <time>2026-09-01T19:55:36Z</time>
  <course>120.01</course>
  <speed>25.23897977335851</speed>
  <fix>3d</fix>
</trkpt>
<trkpt lat="-27.2763187" lon="151.2924918">
  <ele>463.21</ele>
  <time>2026-09-01T19:55:36Z</time>
  <course>120.31</course>
  <speed>25.39</speed>
  <fix>3d</fix>
</trkpt>
<trkpt lat="-27.2763508" lon="151.2925569">
  <ele>463.03</ele>
  <time>2026-09-01T19:55:36Z</time>
  <course>119.28</course>
  <speed>25.2241808588505</speed>
  <fix>3d</fix>
</trkpt>
<trkpt lat="-27.2763411" lon="151.2925364">
  <ele>463.24</ele>
  <time>2026-09-01T19:55:36Z</time>
  <course>118.85</course>
  <speed>25.37</speed>
  <fix>3d</fix>
</trkpt>
<trkpt lat="-27.2763614" lon="151.2925795">
  <ele>463.04</ele>
  <time>2026-09-01T19:55:36Z</time>
  <course>118.54</course>
  <speed>25.231048333353097</speed>
  <fix>3d</fix>
</trkpt>
<trkpt lat="-27.2763411" lon="151.2925364">
  <ele>463.24</ele>
  <time>2026-09-01T19:55:36Z</time>
  <course>118.85</course>
  <speed>25.37</speed>
  <fix>3d</fix>
</trkpt>
<trkpt lat="-27.2763718" lon="151.2926022">
  <ele>463.04</ele>
  <time>2026-09-01T19:55:36Z</time>
  <course>117.83</course>
  <speed>25.21880647453404</speed>
  <fix>3d</fix>
</trkpt>
<trkpt lat="-27.2763627" lon="151.2925817">
  <ele>463.25</ele>
  <time>2026-09-01T19:55:36Z</time>
  <course>117.49</course>
  <speed>25.36</speed>
  <fix>3d</fix>
</trkpt>
<trkpt lat="-27.2763821" lon="151.2926251">
  <ele>463.04</ele>
  <time>2026-09-01T19:55:36Z</time>
  <course>117.21</course>
  <speed>25.227629694444143</speed>
  <fix>3d</fix>
</trkpt>
<trkpt lat="-27.2763627" lon="151.2925817">
  <ele>463.25</ele>
  <time>2026-09-01T19:55:36Z</time>
  <course>117.49</course>
  <speed>25.36</speed>
  <fix>3d</fix>
</trkpt>
<trkpt lat="-27.2763921" lon="151.2926482">
  <ele>463.05</ele>
  <time>2026-09-01T19:55:36Z</time>
  <course>116.52</course>
  <speed>25.23038842348647</speed>
  <fix>3d</fix>
</trkpt>
<trkpt lat="-27.2763833" lon="151.2926275">
  <ele>463.26</ele>
  <time>2026-09-01T19:55:36Z</time>
  <course>116.22</course>
  <speed>25.35</speed>
  <fix>3d</fix>
</trkpt>
<trkpt lat="-27.2764019" lon="151.2926714">
  <ele>463.05</ele>
  <time>2026-09-01T19:55:36Z</time>
  <course>115.9</course>
  <speed>25.235423515368232</speed>
  <fix>3d</fix>
</trkpt>
<trkpt lat="-27.2763833" lon="151.2926275">
  <ele>463.26</ele>
  <time>2026-09-01T19:55:36Z</time>
  <course>116.22</course>
  <speed>25.35</speed>
  <fix>3d</fix>
</trkpt>
<trkpt lat="-27.2764115" lon="151.2926947">
  <ele>463.05</ele>
  <time>2026-09-01T19:55:36Z</time>
  <course>115.34</course>
  <speed>25.242854434473134</speed>
  <fix>3d</fix>
</trkpt>
<trkpt lat="-27.276403" lon="151.2926736">
  <ele>463.27</ele>
  <time>2026-09-01T19:55:36Z</time>
  <course>115.04</course>
  <speed>25.34</speed>
  <fix>3d</fix>
</trkpt>
<trkpt lat="-27.2764208" lon="151.2927178">
  <ele>463.05</ele>
  <time>2026-09-01T19:55:36Z</time>
  <course>114.78</course>
  <speed>25.23848054063477</speed>
  <fix>3d</fix>
</trkpt>
<trkpt lat="-27.276403" lon="151.2926736">
  <ele>463.27</ele>
  <time>2026-09-01T19:55:36Z</time>
  <course>115.04</course>
  <speed>25.34</speed>
  <fix>3d</fix>
</trkpt>
<trkpt lat="-27.27643" lon="151.2927412">
  <ele>463.05</ele>
  <time>2026-09-01T19:55:36Z</time>
  <course>114.25</course>
  <speed>25.240166401987132</speed>
  <fix>3d</fix>
</trkpt>
<trkpt lat="-27.2764218" lon="151.2927202">
  <ele>463.27</ele>
  <time>2026-09-01T19:55:36Z</time>
  <course>113.96</course>
  <speed>25.33</speed>
  <fix>3d</fix>
</trkpt>
<trkpt lat="-27.276439" lon="151.2927646">
  <ele>463.05</ele>
  <time>2026-09-01T19:55:36Z</time>
  <course>113.75</course>
  <speed>25.238472616226204</speed>
  <fix>3d</fix>
</trkpt>
<trkpt lat="-27.2764218" lon="151.2927202">
  <ele>463.27</ele>
  <time>2026-09-01T19:55:36Z</time>
  <course>113.96</course>
  <speed>25.33</speed>
  <fix>3d</fix>
</trkpt>
<trkpt lat="-27.2764478" lon="151.2927881">
  <ele>463.05</ele>
  <time>2026-09-01T19:55:36Z</time>
  <course>113.25</course>
  <speed>25.23307749760223</speed>
  <fix>3d</fix>
</trkpt>
<trkpt lat="-27.27644" lon="151.2927672">
  <ele>463.27</ele>
  <time>2026-09-01T19:55:36Z</time>
  <course>112.99</course>
  <speed>25.32</speed>
  <fix>3d</fix>
</trkpt>
<trkpt lat="-27.2764565" lon="151.2928119">
  <ele>463.05</ele>
  <time>2026-09-01T19:55:36Z</time>
  <course>112.72</course>
  <speed>25.232938790398553</speed>
  <fix>3d</fix>
</trkpt>
<trkpt lat="-27.27644" lon="151.2927672">
  <ele>463.27</ele>
  <time>2026-09-01T19:55:36Z</time>
  <course>112.99</course>
  <speed>25.32</speed>
  <fix>3d</fix>
</trkpt>
<trkpt lat="-27.276465" lon="151.2928355">
  <ele>463.04</ele>
  <time>2026-09-01T19:55:36Z</time>
  <course>112.24</course>
  <speed>25.237854504691953</speed>
  <fix>3d</fix>
</trkpt>
<trkpt lat="-27.2764574" lon="151.2928145">
  <ele>463.26</ele>
  <time>2026-09-01T19:55:36Z</time>
  <course>112.12</course>
  <speed>25.32</speed>
  <fix>3d</fix>
</trkpt>
<trkpt lat="-27.2764734" lon="151.2928594">
  <ele>463.04</ele>
  <time>2026-09-01T19:55:36Z</time>
  <course>111.87</course>
  <speed>25.24397749959384</speed>
  <fix>3d</fix>
</trkpt>
<trkpt lat="-27.2764574" lon="151.2928145">
  <ele>463.26</ele>
  <time>2026-09-01T19:55:36Z</time>
  <course>112.12</course>
  <speed>25.32</speed>
  <fix>3d</fix>
</trkpt>
<trkpt lat="-27.2764816" lon="151.2928833">
  <ele>463.03</ele>
  <time>2026-09-01T19:55:36Z</time>
  <course>111.51</course>
  <speed>25.252756285205777</speed>
  <fix>3d</fix>
</trkpt>
<trkpt lat="-27.2764742" lon="151.292862">
  <ele>463.26</ele>
  <time>2026-09-01T19:55:36Z</time>
  <course>111.35</course>
  <speed>25.32</speed>
  <fix>3d</fix>
</trkpt>
<trkpt lat="-27.2764898" lon="151.2929074">
  <ele>463.03</ele>
  <time>2026-09-01T19:55:36Z</time>
  <course>111.19</course>
  <speed>25.26234351757572</speed>
  <fix>3d</fix>
</trkpt>
<trkpt lat="-27.2764742" lon="151.292862">
  <ele>463.26</ele>
  <time>2026-09-01T19:55:36Z</time>
  <course>111.35</course>
  <speed>25.32</speed>
  <fix>3d</fix>
</trkpt>
<trkpt lat="-27.2764979" lon="151.2929315">
  <ele>463.02</ele>
  <time>2026-09-01T19:55:36Z</time>
  <course>110.88</course>
  <speed>25.279732989096225</speed>
  <fix>3d</fix>
</trkpt>
<trkpt lat="-27.2764906" lon="151.2929098">
  <ele>463.25</ele>
  <time>2026-09-01T19:55:36Z</time>
  <course>110.69</course>
  <speed>25.32</speed>
  <fix>3d</fix>
</trkpt>
<trkpt lat="-27.2765059" lon="151.2929557">
  <ele>463.02</ele>
  <time>2026-09-01T19:55:36Z</time>
  <course>110.55</course>
  <speed>25.288347118781804</speed>
  <fix>3d</fix>
</trkpt>
<trkpt lat="-27.2764906" lon="151.2929098">
  <ele>463.25</ele>
  <time>2026-09-01T19:55:36Z</time>
  <course>110.69</course>
  <speed>25.32</speed>
  <fix>3d</fix>
</trkpt>
<trkpt lat="-27.2765137" lon="151.2929799">
  <ele>463.02</ele>
  <time>2026-09-01T19:55:36Z</time>
  <course>110.13</course>
  <speed>25.300948598817396</speed>
  <fix>3d</fix>
</trkpt>
<trkpt lat="-27.2765064" lon="151.2929578">
  <ele>463.24</ele>
  <time>2026-09-01T19:55:36Z</time>
  <course>110.14</course>
  <speed>25.32</speed>
  <fix>3d</fix>
</trkpt>
<trkpt lat="-27.2765215" lon="151.2930042">
  <ele>463.02</ele>
  <time>2026-09-01T19:55:36Z</time>
  <course>109.82</course>
  <speed>25.30800071123754</speed>
  <fix>3d</fix>
</trkpt>
<trkpt lat="-27.2765064" lon="151.2929578">
  <ele>463.24</ele>
  <time>2026-09-01T19:55:36Z</time>
  <course>110.14</course>
  <speed>25.32</speed>
  <fix>3d</fix>
</trkpt>
<trkpt lat="-27.2765292" lon="151.2930285">
  <ele>463.02</ele>
  <time>2026-09-01T19:55:36Z</time>
  <course>109.66</course>
  <speed>25.318777616622807</speed>
  <fix>3d</fix>
</trkpt>
<trkpt lat="-27.2765219" lon="151.2930059">
  <ele>463.24</ele>
  <time>2026-09-01T19:55:36Z</time>
  <course>109.66</course>
  <speed>25.32</speed>
  <fix>3d</fix>
</trkpt>
<trkpt lat="-27.2765368" lon="151.2930529">
  <ele>463.02</ele>
  <time>2026-09-01T19:55:36Z</time>
  <course>109.48</course>
  <speed>25.333179824096305</speed>
  <fix>3d</fix>
</trkpt>
<trkpt lat="-27.2765219" lon="151.2930059">
  <ele>463.24</ele>
  <time>2026-09-01T19:55:36Z</time>
  <course>109.66</course>
  <speed>25.32</speed>
  <fix>3d</fix>
</trkpt>
<trkpt lat="-27.2765444" lon="151.2930772">
  <ele>463.02</ele>
  <time>2026-09-01T19:55:36Z</time>
  <course>109.27</course>
  <speed>25.34167516167785</speed>
  <fix>3d</fix>
</trkpt>
<trkpt lat="-27.2765371" lon="151.2930542">
  <ele>463.24</ele>
  <time>2026-09-01T19:55:36Z</time>
  <course>109.28</course>
  <speed>25.32</speed>
  <fix>3d</fix>
</trkpt>
<trkpt lat="-27.2765519" lon="151.2931016">
  <ele>463.02</ele>
  <time>2026-09-01T19:55:36Z</time>
  <course>109.03</course>
  <speed>25.35034516530298</speed>
  <fix>3d</fix>
</trkpt>
<trkpt lat="-27.2765371" lon="151.2930542">
  <ele>463.24</ele>
  <time>2026-09-01T19:55:36Z</time>
  <course>109.28</course>
  <speed>25.32</speed>
  <fix>3d</fix>
</trkpt>
<trkpt lat="-27.2765593" lon="151.2931259">
  <ele>463.02</ele>
  <time>2026-09-01T19:55:36Z</time>
  <course>108.87</course>
  <speed>25.356222116080307</speed>
  <fix>3d</fix>
</trkpt>
<trkpt lat="-27.276552" lon="151.2931027">
  <ele>463.24</ele>
  <time>2026-09-01T19:55:36Z</time>
  <course>108.99</course>
  <speed>25.31</speed>
  <fix>3d</fix>
</trkpt>
<trkpt lat="-27.2765667" lon="151.2931504">
  <ele>463.02</ele>
  <time>2026-09-01T19:55:36Z</time>
  <course>108.72</course>
  <speed>25.362176562747923</speed>
  <fix>3d</fix>
</trkpt>
<trkpt lat="-27.276552" lon="151.2931027">
  <ele>463.24</ele>
  <time>2026-09-01T19:55:36Z</time>
  <course>108.99</course>
  <speed>25.31</speed>
  <fix>3d</fix>
</trkpt>
<trkpt lat="-27.2765741" lon="151.2931747">
  <ele>463.02</ele>
  <time>2026-09-01T19:55:36Z</time>
  <course>108.62</course>
  <speed>25.358740110660072</speed>
  <fix>3d</fix>
</trkpt>
<trkpt lat="-27.2765668" lon="151.2931511">
  <ele>463.24</ele>
  <time>2026-09-01T19:55:36Z</time>
  <course>108.77</course>
  <speed>25.31</speed>
  <fix>3d</fix>
</trkpt>
<trkpt lat="-27.2765814" lon="151.293199">
  <ele>463.03</ele>
  <time>2026-09-01T19:55:36Z</time>
  <course>108.5</course>
  <speed>25.368046830609565</speed>
  <fix>3d</fix>
</trkpt>
<trkpt lat="-27.2765668" lon="151.2931511">
  <ele>463.24</ele>
  <time>2026-09-01T19:55:36Z</time>
  <course>108.77</course>
  <speed>25.31</speed>
  <fix>3d</fix>
</trkpt>
<trkpt lat="-27.2765886" lon="151.2932232">
  <ele>463.03</ele>
  <time>2026-09-01T19:55:36Z</time>
  <course>108.39</course>
  <speed>25.3711194077045</speed>
  <fix>3d</fix>
</trkpt>
<trkpt lat="-27.2765813" lon="151.2931995">
  <ele>463.25</ele>
  <time>2026-09-01T19:55:36Z</time>
  <course>108.63</course>
  <speed>25.3</speed>
  <fix>3d</fix>
</trkpt>
<trkpt lat="-27.2765959" lon="151.2932476">
  <ele>463.04</ele>
  <time>2026-09-01T19:55:36Z</time>
  <course>108.35</course>
  <speed>25.377401364205912</speed>
  <fix>3d</fix>
</trkpt>
<trkpt lat="-27.2765813" lon="151.2931995">
  <ele>463.25</ele>
  <time>2026-09-01T19:55:36Z</time>
  <course>108.63</course>
  <speed>25.3</speed>
  <fix>3d</fix>
</trkpt>
<trkpt lat="-27.2766032" lon="151.293272">
  <ele>463.05</ele>
  <time>2026-09-01T19:55:36Z</time>
  <course>108.26</course>
  <speed>25.383689645124488</speed>
  <fix>3d</fix>
</trkpt>
<trkpt lat="-27.2765958" lon="151.293248">
  <ele>463.26</ele>
  <time>2026-09-01T19:55:36Z</time>
  <course>108.55</course>
  <speed>25.3</speed>
  <fix>3d</fix>
</trkpt>
<trkpt lat="-27.2766105" lon="151.2932964">
  <ele>463.05</ele>
  <time>2026-09-01T19:55:36Z</time>
  <course>108.21</course>
  <speed>25.383689645124488</speed>
  <fix>3d</fix>
</trkpt>
<trkpt lat="-27.2765958" lon="151.293248">
  <ele>463.26</ele>
  <time>2026-09-01T19:55:36Z</time>
  <course>108.55</course>
  <speed>25.3</speed>
  <fix>3d</fix>
</trkpt>
<trkpt lat="-27.2766178" lon="151.2933211">
  <ele>463.06</ele>
  <time>2026-09-01T19:55:36Z</time>
  <course>108.17</course>
  <speed>25.396356037825583</speed>
  <fix>3d</fix>
</trkpt>
<trkpt lat="-27.2766103" lon="151.2932964">
  <ele>463.27</ele>
  <time>2026-09-01T19:55:36Z</time>
  <course>108.52</course>
  <speed>25.29</speed>
  <fix>3d</fix>
</trkpt>
<trkpt lat="-27.2766251" lon="151.2933455">
  <ele>463.06</ele>
  <time>2026-09-01T19:55:36Z</time>
  <course>108.17</course>
  <speed>25.396356037825583</speed>
  <fix>3d</fix>
</trkpt>
<trkpt lat="-27.2766103" lon="151.2932964">
  <ele>463.27</ele>
  <time>2026-09-01T19:55:36Z</time>
  <course>108.52</course>
  <speed>25.29</speed>
  <fix>3d</fix>
</trkpt>
<trkpt lat="-27.2766324" lon="151.2933699">
  <ele>463.07</ele>
  <time>2026-09-01T19:55:36Z</time>
  <course>108.15</course>
  <speed>25.399547240059224</speed>
  <fix>3d</fix>
</trkpt>
<trkpt lat="-27.2766247" lon="151.2933449">
  <ele>463.28</ele>
  <time>2026-09-01T19:55:36Z</time>
  <course>108.54</course>
  <speed>25.29</speed>
  <fix>3d</fix>
</trkpt>
<trkpt lat="-27.2766397" lon="151.2933943">
  <ele>463.07</ele>
  <time>2026-09-01T19:55:36Z</time>
  <course>108.14</course>
  <speed>25.405940250264308</speed>
  <fix>3d</fix>
</trkpt>
<trkpt lat="-27.2766247" lon="151.2933449">
  <ele>463.28</ele>
  <time>2026-09-01T19:55:36Z</time>
  <course>108.54</course>
  <speed>25.29</speed>
  <fix>3d</fix>
</trkpt>
<trkpt lat="-27.276647" lon="151.2934186">
  <ele>463.08</ele>
  <time>2026-09-01T19:55:36Z</time>
  <course>108.12</course>
  <speed>25.41234739255703</speed>
  <fix>3d</fix>
</trkpt>
<trkpt lat="-27.2766391" lon="151.2933934">
  <ele>463.29</ele>
  <time>2026-09-01T19:55:36Z</time>
  <course>108.61</course>
  <speed>25.29</speed>
  <fix>3d</fix>
</trkpt>
<trkpt lat="-27.2766542" lon="151.2934428">
  <ele>463.09</ele>
  <time>2026-09-01T19:55:36Z</time>
  <course>108.14</course>
  <speed>25.40929947873416</speed>
  <fix>3d</fix>
</trkpt>
<trkpt lat="-27.2766391" lon="151.2933934">
  <ele>463.29</ele>
  <time>2026-09-01T19:55:36Z</time>
  <course>108.61</course>
  <speed>25.29</speed>
  <fix>3d</fix>
</trkpt>
<trkpt lat="-27.2766615" lon="151.2934671">
  <ele>463.1</ele>
  <time>2026-09-01T19:55:36Z</time>
  <course>108.22</course>
  <speed>25.4157372507665</speed>
  <fix>3d</fix>
</trkpt>
<trkpt lat="-27.2766537" lon="151.2934417">
  <ele>463.31</ele>
  <time>2026-09-01T19:55:36Z</time>
  <course>108.71</course>
  <speed>25.28</speed>
  <fix>3d</fix>
</trkpt>
<trkpt lat="-27.2766688" lon="151.2934912">
  <ele>463.1</ele>
  <time>2026-09-01T19:55:36Z</time>
  <course>108.33</course>
  <speed>25.409732387414078</speed>
  <fix>3d</fix>
</trkpt>
<trkpt lat="-27.2766537" lon="151.2934417">
  <ele>463.31</ele>
  <time>2026-09-01T19:55:36Z</time>
  <course>108.71</course>
  <speed>25.28</speed>
  <fix>3d</fix>
</trkpt>
<trkpt lat="-27.2766762" lon="151.2935153">
  <ele>463.11</ele>
  <time>2026-09-01T19:55:36Z</time>
  <course>108.39</course>
  <speed>25.41000787091574</speed>
  <fix>3d</fix>
</trkpt>
<trkpt lat="-27.2766683" lon="151.2934901">
  <ele>463.32</ele>
  <time>2026-09-01T19:55:36Z</time>
  <course>108.86</course>
  <speed>25.28</speed>
  <fix>3d</fix>
</trkpt>
<trkpt lat="-27.2766835" lon="151.2935393">
  <ele>463.12</ele>
  <time>2026-09-01T19:55:36Z</time>
  <course>108.44</course>
  <speed>25.40413549011263</speed>
  <fix>3d</fix>
</trkpt>
<trkpt lat="-27.2766683" lon="151.2934901">
  <ele>463.32</ele>
  <time>2026-09-01T19:55:36Z</time>
  <course>108.86</course>
  <speed>25.28</speed>
  <fix>3d</fix>
</trkpt>
<trkpt lat="-27.2766909" lon="151.2935634">
  <ele>463.13</ele>
  <time>2026-09-01T19:55:36Z</time>
  <course>108.52</course>
  <speed>25.395058574454993</speed>
  <fix>3d</fix>
</trkpt>
<trkpt lat="-27.2766831" lon="151.2935385">
  <ele>463.34</ele>
  <time>2026-09-01T19:55:36Z</time>
  <course>109.04</course>
  <speed>25.29</speed>
  <fix>3d</fix>
</trkpt>
<trkpt lat="-27.2766983" lon="151.2935873">
  <ele>463.14</ele>
  <time>2026-09-01T19:55:36Z</time>
  <course>108.6</course>
  <speed>25.38318340949378</speed>
  <fix>3d</fix>
</trkpt>
<trkpt lat="-27.2766831" lon="151.2935385">
  <ele>463.34</ele>
  <time>2026-09-01T19:55:36Z</time>
  <course>109.04</course>
  <speed>25.29</speed>
  <fix>3d</fix>
</trkpt>
<trkpt lat="-27.2767057" lon="151.2936112">
  <ele>463.15</ele>
  <time>2026-09-01T19:55:36Z</time>
  <course>108.66</course>
  <speed>25.37754913304277</speed>
  <fix>3d</fix>
</trkpt>
<trkpt lat="-27.2766979" lon="151.2935868">
  <ele>463.36</ele>
  <time>2026-09-01T19:55:36Z</time>
  <course>109.26</course>
  <speed>25.29</speed>
  <fix>3d</fix>
</trkpt>
<trkpt lat="-27.2767132" lon="151.2936351">
  <ele>463.16</ele>
  <time>2026-09-01T19:55:36Z</time>
  <course>108.78</course>
  <speed>25.375328569301324</speed>
  <fix>3d</fix>
</trkpt>
<trkpt lat="-27.2766979" lon="151.2935868">
  <ele>463.36</ele>
  <time>2026-09-01T19:55:36Z</time>
  <course>109.26</course>
  <speed>25.29</speed>
  <fix>3d</fix>
</trkpt>
<trkpt lat="-27.2767208" lon="151.2936591">
  <ele>463.17</ele>
  <time>2026-09-01T19:55:36Z</time>
  <course>108.92</course>
  <speed>25.36986598309104</speed>
  <fix>3d</fix>
</trkpt>
<trkpt lat="-27.2767131" lon="151.2936351">
  <ele>463.37</ele>
  <time>2026-09-01T19:55:36Z</time>
  <course>109.49</course>
  <speed>25.29</speed>
  <fix>3d</fix>
</trkpt>
<trkpt lat="-27.2767284" lon="151.2936831">
  <ele>463.17</ele>
  <time>2026-09-01T19:55:36Z</time>
  <course>109.08</course>
  <speed>25.371229769169645</speed>
  <fix>3d</fix>
</trkpt>
<trkpt lat="-27.2767131" lon="151.2936351">
  <ele>463.37</ele>
  <time>2026-09-01T19:55:36Z</time>
  <course>109.49</course>
  <speed>25.29</speed>
  <fix>3d</fix>
</trkpt>
<trkpt lat="-27.276736" lon="151.2937071">
  <ele>463.17</ele>
  <time>2026-09-01T19:55:36Z</time>
  <course>109.14</course>
  <speed>25.369351588087543</speed>
  <fix>3d</fix>
</trkpt>
<trkpt lat="-27.2767283" lon="151.2936833">
  <ele>463.38</ele>
  <time>2026-09-01T19:55:36Z</time>
  <course>109.75</course>
  <speed>25.29</speed>
  <fix>3d</fix>
</trkpt>
<trkpt lat="-27.2767438" lon="151.2937311">
  <ele>463.17</ele>
  <time>2026-09-01T19:55:36Z</time>
  <course>109.23</course>
  <speed>25.367587587313068</speed>
  <fix>3d</fix>
</trkpt>
<trkpt lat="-27.2767283" lon="151.2936833">
  <ele>463.38</ele>
  <time>2026-09-01T19:55:36Z</time>
  <course>109.75</course>
  <speed>25.29</speed>
  <fix>3d</fix>
</trkpt>
<trkpt lat="-27.2767515" lon="151.2937551">
  <ele>463.18</ele>
  <time>2026-09-01T19:55:36Z</time>
  <course>109.33</course>
  <speed>25.365937790667232</speed>
  <fix>3d</fix>
</trkpt>
<trkpt lat="-27.2767438" lon="151.2937313">
  <ele>463.38</ele>
  <time>2026-09-01T19:55:36Z</time>
  <course>110.02</course>
  <speed>25.3</speed>
  <fix>3d</fix>
</trkpt>
<trkpt lat="-27.2767594" lon="151.2937791">
  <ele>463.18</ele>
  <time>2026-09-01T19:55:36Z</time>
  <course>109.43</course>
  <speed>25.373785685230338</speed>
  <fix>3d</fix>
</trkpt>
<trkpt lat="-27.2767438" lon="151.2937313">
  <ele>463.38</ele>
  <time>2026-09-01T19:55:36Z</time>
  <course>110.02</course>
  <speed>25.3</speed>
  <fix>3d</fix>
</trkpt>
<trkpt lat="-27.2767672" lon="151.293803">
  <ele>463.18</ele>
  <time>2026-09-01T19:55:36Z</time>
  <course>109.58</course>
  <speed>25.37235700521337</speed>
  <fix>3d</fix>
</trkpt>
<trkpt lat="-27.2767595" lon="151.2937794">
  <ele>463.39</ele>
  <time>2026-09-01T19:55:36Z</time>
  <course>110.27</course>
  <speed>25.31</speed>
  <fix>3d</fix>
</trkpt>
<trkpt lat="-27.2767752" lon="151.2938272">
  <ele>463.18</ele>
  <time>2026-09-01T19:55:36Z</time>
  <course>109.75</course>
  <speed>25.38390828852011</speed>
  <fix>3d</fix>
</trkpt>
<trkpt lat="-27.2767595" lon="151.2937794">
  <ele>463.39</ele>
  <time>2026-09-01T19:55:36Z</time>
  <course>110.27</course>
  <speed>25.31</speed>
  <fix>3d</fix>
</trkpt>
<trkpt lat="-27.2767832" lon="151.2938512">
  <ele>463.18</ele>
  <time>2026-09-01T19:55:36Z</time>
  <course>109.85</course>
  <speed>25.382720500371903</speed>
  <fix>3d</fix>
</trkpt>
<trkpt lat="-27.2767753" lon="151.2938273">
  <ele>463.39</ele>
  <time>2026-09-01T19:55:36Z</time>
  <course>110.52</course>
  <speed>25.32</speed>
  <fix>3d</fix>
</trkpt>
<trkpt lat="-27.2767912" lon="151.293875">
  <ele>463.17</ele>
  <time>2026-09-01T19:55:36Z</time>
  <course>109.99</course>
  <speed>25.381646912680825</speed>
  <fix>3d</fix>
</trkpt>
<trkpt lat="-27.2767753" lon="151.2938273">
  <ele>463.39</ele>
  <time>2026-09-01T19:55:36Z</time>
  <course>110.52</course>
  <speed>25.32</speed>
  <fix>3d</fix>
</trkpt>
<trkpt lat="-27.2767993" lon="151.2938988">
  <ele>463.17</ele>
  <time>2026-09-01T19:55:36Z</time>
  <course>110.13</course>
  <speed>25.38424708357528</speed>
  <fix>3d</fix>
</trkpt>
<trkpt lat="-27.2767914" lon="151.2938752">
  <ele>463.38</ele>
  <time>2026-09-01T19:55:36Z</time>
  <course>110.78</course>
  <speed>25.33</speed>
  <fix>3d</fix>
</trkpt>
<trkpt lat="-27.2768073" lon="151.2939225">
  <ele>463.17</ele>
  <time>2026-09-01T19:55:36Z</time>
  <course>110.28</course>
  <speed>25.374085205185228</speed>
  <fix>3d</fix>
</trkpt>
<trkpt lat="-27.2767914" lon="151.2938752">
  <ele>463.38</ele>
  <time>2026-09-01T19:55:36Z</time>
  <course>110.78</course>
  <speed>25.33</speed>
  <fix>3d</fix>
</trkpt>
<trkpt lat="-27.2768155" lon="151.2939463">
  <ele>463.17</ele>
  <time>2026-09-01T19:55:36Z</time>
  <course>110.41</course>
  <speed>25.376985636596004</speed>
  <fix>3d</fix>
</trkpt>
<trkpt lat="-27.2768076" lon="151.2939231">
  <ele>463.38</ele>
  <time>2026-09-01T19:55:36Z</time>
  <course>111.05</course>
  <speed>25.34</speed>
  <fix>3d</fix>
</trkpt>
<trkpt lat="-27.2768237" lon="151.2939701">
  <ele>463.17</ele>
  <time>2026-09-01T19:55:36Z</time>
  <course>110.53</course>
  <speed>25.376416216637054</speed>
  <fix>3d</fix>
</trkpt>
<trkpt lat="-27.2768076" lon="151.2939231">
  <ele>463.38</ele>
  <time>2026-09-01T19:55:36Z</time>
  <course>111.05</course>
  <speed>25.34</speed>
  <fix>3d</fix>
</trkpt>
<trkpt lat="-27.276832" lon="151.2939939">
  <ele>463.17</ele>
  <time>2026-09-01T19:55:36Z</time>
  <course>110.68</course>
  <speed>25.385273289842676</speed>
  <fix>3d</fix>
</trkpt>
<trkpt lat="-27.2768241" lon="151.2939708">
  <ele>463.38</ele>
  <time>2026-09-01T19:55:36Z</time>
  <course>111.31</course>
  <speed>25.35</speed>
  <fix>3d</fix>
</trkpt>
<trkpt lat="-27.2768403" lon="151.2940178">
  <ele>463.17</ele>
  <time>2026-09-01T19:55:36Z</time>
  <course>110.79</course>
  <speed>25.394229659511232</speed>
  <fix>3d</fix>
</trkpt>
<trkpt lat="-27.2768241" lon="151.2939708">
  <ele>463.38</ele>
  <time>2026-09-01T19:55:36Z</time>
  <course>111.31</course>
  <speed>25.35</speed>
  <fix>3d</fix>
</trkpt>
<trkpt lat="-27.2768487" lon="151.2940416">
  <ele>463.17</ele>
  <time>2026-09-01T19:55:36Z</time>
  <course>110.89</course>
  <speed>25.403285220616645</speed>
  <fix>3d</fix>
</trkpt>
<trkpt lat="-27.2768407" lon="151.2940185">
  <ele>463.37</ele>
  <time>2026-09-01T19:55:36Z</time>
  <course>111.55</course>
  <speed>25.36</speed>
  <fix>3d</fix>
</trkpt>
<trkpt lat="-27.2768571" lon="151.2940655">
  <ele>463.17</ele>
  <time>2026-09-01T19:55:36Z</time>
  <course>111.0</course>
  <speed>25.4124398671202</speed>
  <fix>3d</fix>
</trkpt>
<trkpt lat="-27.2768407" lon="151.2940185">
  <ele>463.37</ele>
  <time>2026-09-01T19:55:36Z</time>
  <course>111.55</course>
  <speed>25.36</speed>
  <fix>3d</fix>
</trkpt>
<trkpt lat="-27.2768656" lon="151.2940894">
  <ele>463.17</ele>
  <time>2026-09-01T19:55:36Z</time>
  <course>111.18</course>
  <speed>25.425412484362965</speed>
  <fix>3d</fix>
</trkpt>
<trkpt lat="-27.2768576" lon="151.2940662">
  <ele>463.37</ele>
  <time>2026-09-01T19:55:36Z</time>
  <course>111.79</course>
  <speed>25.37</speed>
  <fix>3d</fix>
</trkpt>
<trkpt lat="-27.2768742" lon="151.2941132">
  <ele>463.17</ele>
  <time>2026-09-01T19:55:36Z</time>
  <course>111.24</course>
  <speed>25.421770198001553</speed>
  <fix>3d</fix>
</trkpt>
<trkpt lat="-27.2768576" lon="151.2940662">
  <ele>463.37</ele>
  <time>2026-09-01T19:55:36Z</time>
  <course>111.79</course>
  <speed>25.37</speed>
  <fix>3d</fix>
</trkpt>
<trkpt lat="-27.2768828" lon="151.2941371">
  <ele>463.17</ele>
  <time>2026-09-01T19:55:36Z</time>
  <course>111.37</course>
  <speed>25.440497243568174</speed>
  <fix>3d</fix>
</trkpt>
<trkpt lat="-27.2768746" lon="151.2941139">
  <ele>463.37</ele>
  <time>2026-09-01T19:55:36Z</time>
  <course>112.01</course>
  <speed>25.38</speed>
  <fix>3d</fix>
</trkpt>
<trkpt lat="-27.2768914" lon="151.2941609">
  <ele>463.17</ele>
  <time>2026-09-01T19:55:36Z</time>
  <course>111.5</course>
  <speed>25.450047151233335</speed>
  <fix>3d</fix>
</trkpt>
<trkpt lat="-27.2768746" lon="151.2941139">
  <ele>463.37</ele>
  <time>2026-09-01T19:55:36Z</time>
  <course>112.01</course>
  <speed>25.38</speed>
  <fix>3d</fix>
</trkpt>
<trkpt lat="-27.2769001" lon="151.2941848">
  <ele>463.17</ele>
  <time>2026-09-01T19:55:36Z</time>
  <course>111.63</course>
  <speed>25.459695599122938</speed>
  <fix>3d</fix>
</trkpt>
<trkpt lat="-27.2768918" lon="151.2941614">
  <ele>463.37</ele>
  <time>2026-09-01T19:55:36Z</time>
  <course>112.24</course>
  <speed>25.4</speed>
  <fix>3d</fix>
</trkpt>
<trkpt lat="-27.2769088" lon="151.2942086">
  <ele>463.17</ele>
  <time>2026-09-01T19:55:36Z</time>
  <course>111.74</course>
  <speed>25.456388196285822</speed>
  <fix>3d</fix>
</trkpt>
<trkpt lat="-27.2768918" lon="151.2941614">
  <ele>463.37</ele>
  <time>2026-09-01T19:55:36Z</time>
  <course>112.24</course>
  <speed>25.4</speed>
  <fix>3d</fix>
</trkpt>
<trkpt lat="-27.2769175" lon="151.2942324">
  <ele>463.18</ele>
  <time>2026-09-01T19:55:36Z</time>
  <course>111.81</course>
  <speed>25.466222727369683</speed>
  <fix>3d</fix>
</trkpt>
<trkpt lat="-27.2769091" lon="151.2942089">
  <ele>463.37</ele>
  <time>2026-09-01T19:55:36Z</time>
  <course>112.46</course>
  <speed>25.41</speed>
  <fix>3d</fix>
</trkpt>
<trkpt lat="-27.2769263" lon="151.294256">
  <ele>463.18</ele>
  <time>2026-09-01T19:55:36Z</time>
  <course>111.96</course>
  <speed>25.463081117570983</speed>
  <fix>3d</fix>
</trkpt>
<trkpt lat="-27.2769091" lon="151.2942089">
  <ele>463.37</ele>
  <time>2026-09-01T19:55:36Z</time>
  <course>112.46</course>
  <speed>25.41</speed>
  <fix>3d</fix>
</trkpt>
<trkpt lat="-27.2769351" lon="151.2942797">
  <ele>463.18</ele>
  <time>2026-09-01T19:55:36Z</time>
  <course>112.1</course>
  <speed>25.463876374189375</speed>
  <fix>3d</fix>
</trkpt>
<trkpt lat="-27.2769267" lon="151.2942563">
  <ele>463.38</ele>
  <time>2026-09-01T19:55:36Z</time>
  <course>112.68</course>
  <speed>25.41</speed>
  <fix>3d</fix>
</trkpt>
<trkpt lat="-27.2769439" lon="151.2943033">
  <ele>463.18</ele>
  <time>2026-09-01T19:55:36Z</time>
  <course>112.15</course>
  <speed>25.46090728941135</speed>
  <fix>3d</fix>
</trkpt>
<trkpt lat="-27.2769267" lon="151.2942563">
  <ele>463.38</ele>
  <time>2026-09-01T19:55:36Z</time>
  <course>112.68</course>
  <speed>25.41</speed>
  <fix>3d</fix>
</trkpt>
<trkpt lat="-27.2769527" lon="151.2943267">
  <ele>463.18</ele>
  <time>2026-09-01T19:55:36Z</time>
  <course>112.24</course>
  <speed>25.46722796065563</speed>
  <fix>3d</fix>
</trkpt>
<trkpt lat="-27.2769444" lon="151.2943037">
  <ele>463.38</ele>
  <time>2026-09-01T19:55:36Z</time>
  <course>112.89</course>
  <speed>25.42</speed>
  <fix>3d</fix>
</trkpt>
<trkpt lat="-27.2769616" lon="151.2943503">
  <ele>463.18</ele>
  <time>2026-09-01T19:55:36Z</time>
  <course>112.34</course>
  <speed>25.469709460455178</speed>
  <fix>3d</fix>
</trkpt>
<trkpt lat="-27.2769444" lon="151.2943037">
  <ele>463.38</ele>
  <time>2026-09-01T19:55:36Z</time>
  <course>112.89</course>
  <speed>25.42</speed>
  <fix>3d</fix>
</trkpt>
<trkpt lat="-27.2769706" lon="151.294374">
  <ele>463.18</ele>
  <time>2026-09-01T19:55:36Z</time>
  <course>112.44</course>
  <speed>25.47614570534562</speed>
  <fix>3d</fix>
</trkpt>
<trkpt lat="-27.2769622" lon="151.294351">
  <ele>463.38</ele>
  <time>2026-09-01T19:55:36Z</time>
  <course>113.07</course>
  <speed>25.42</speed>
  <fix>3d</fix>
</trkpt>
<trkpt lat="-27.2769796" lon="151.2943977">
  <ele>463.18</ele>
  <time>2026-09-01T19:55:36Z</time>
  <course>112.59</course>
  <speed>25.478716608181035</speed>
  <fix>3d</fix>
</trkpt>
<trkpt lat="-27.2769622" lon="151.294351">
  <ele>463.38</ele>
  <time>2026-09-01T19:55:36Z</time>
  <course>113.07</course>
  <speed>25.42</speed>
  <fix>3d</fix>
</trkpt>
<trkpt lat="-27.2769888" lon="151.2944216">
  <ele>463.19</ele>
  <time>2026-09-01T19:55:36Z</time>
  <course>112.65</course>
  <speed>25.481326496083362</speed>
  <fix>3d</fix>
</trkpt>
<trkpt lat="-27.2769801" lon="151.2943982">
  <ele>463.38</ele>
  <time>2026-09-01T19:55:36Z</time>
  <course>113.23</course>
  <speed>25.43</speed>
  <fix>3d</fix>
</trkpt>
<trkpt lat="-27.2769978" lon="151.2944453">
  <ele>463.19</ele>
  <time>2026-09-01T19:55:36Z</time>
  <course>112.71</course>
  <speed>25.49316182822366</speed>
  <fix>3d</fix>
</trkpt>
<trkpt lat="-27.2769801" lon="151.2943982">
  <ele>463.38</ele>
  <time>2026-09-01T19:55:36Z</time>
  <course>113.23</course>
  <speed>25.43</speed>
  <fix>3d</fix>
</trkpt>
<trkpt lat="-27.2770069" lon="151.294469">
  <ele>463.2</ele>
  <time>2026-09-01T19:55:36Z</time>
  <course>112.81</course>
  <speed>25.49584475948973</speed>
  <fix>3d</fix>
</trkpt>
<trkpt lat="-27.2769982" lon="151.2944455">
  <ele>463.38</ele>
  <time>2026-09-01T19:55:36Z</time>
  <course>113.37</course>
  <speed>25.44</speed>
  <fix>3d</fix>
</trkpt>
<trkpt lat="-27.2770162" lon="151.2944929">
  <ele>463.2</ele>
  <time>2026-09-01T19:55:36Z</time>
  <course>112.91</course>
  <speed>25.50774392218959</speed>
  <fix>3d</fix>
</trkpt>
<trkpt lat="-27.2769982" lon="151.2944455">
  <ele>463.38</ele>
  <time>2026-09-01T19:55:36Z</time>
  <course>113.37</course>
  <speed>25.44</speed>
  <fix>3d</fix>
</trkpt>
<trkpt lat="-27.2770253" lon="151.2945166">
  <ele>463.21</ele>
  <time>2026-09-01T19:55:36Z</time>
  <course>113.0</course>
  <speed>25.519672803545113</speed>
  <fix>3d</fix>
</trkpt>
<trkpt lat="-27.2770164" lon="151.2944926">
  <ele>463.38</ele>
  <time>2026-09-01T19:55:36Z</time>
  <course>113.5</course>
  <speed>25.45</speed>
  <fix>3d</fix>
</trkpt>
<trkpt lat="-27.2770345" lon="151.2945403">
  <ele>463.21</ele>
  <time>2026-09-01T19:55:36Z</time>
  <course>113.06</course>
  <speed>25.51847174107415</speed>
  <fix>3d</fix>
</trkpt>
<trkpt lat="-27.2770164" lon="151.2944926">
  <ele>463.38</ele>
  <time>2026-09-01T19:55:36Z</time>
  <course>113.5</course>
  <speed>25.45</speed>
  <fix>3d</fix>
</trkpt>
<trkpt lat="-27.2770437" lon="151.2945639">
  <ele>463.21</ele>
  <time>2026-09-01T19:55:36Z</time>
  <course>113.09</course>
  <speed>25.530454363367685</speed>
  <fix>3d</fix>
</trkpt>
<trkpt lat="-27.2770347" lon="151.2945397">
  <ele>463.39</ele>
  <time>2026-09-01T19:55:36Z</time>
  <course>113.62</course>
  <speed>25.45</speed>
  <fix>3d</fix>
</trkpt>
<trkpt lat="-27.2770529" lon="151.2945876">
  <ele>463.21</ele>
  <time>2026-09-01T19:55:36Z</time>
  <course>113.14</course>
  <speed>25.5292968959194</speed>
  <fix>3d</fix>
</trkpt>
<trkpt lat="-27.2770347" lon="151.2945397">
  <ele>463.39</ele>
  <time>2026-09-01T19:55:36Z</time>
  <course>113.62</course>
  <speed>25.45</speed>
  <fix>3d</fix>
</trkpt>
<trkpt lat="-27.2770622" lon="151.2946112">
  <ele>463.21</ele>
  <time>2026-09-01T19:55:36Z</time>
  <course>113.16</course>
  <speed>25.532175778808984</speed>
  <fix>3d</fix>
</trkpt>
<trkpt lat="-27.277053" lon="151.2945869">
  <ele>463.39</ele>
  <time>2026-09-01T19:55:36Z</time>
  <course>113.73</course>
  <speed>25.46</speed>
  <fix>3d</fix>
</trkpt>
<trkpt lat="-27.2770714" lon="151.2946347">
  <ele>463.21</ele>
  <time>2026-09-01T19:55:36Z</time>
  <course>113.19</course>
  <speed>25.527040564859846</speed>
  <fix>3d</fix>
</trkpt>
<trkpt lat="-27.277053" lon="151.2945869">
  <ele>463.39</ele>
  <time>2026-09-01T19:55:36Z</time>
  <course>113.73</course>
  <speed>25.46</speed>
  <fix>3d</fix>
</trkpt>
<trkpt lat="-27.2770806" lon="151.2946582">
  <ele>463.22</ele>
  <time>2026-09-01T19:55:36Z</time>
  <course>113.21</course>
  <speed>25.531065391009438</speed>
  <fix>3d</fix>
</trkpt>
<trkpt lat="-27.2770715" lon="151.2946341">
  <ele>463.39</ele>
  <time>2026-09-01T19:55:36Z</time>
  <course>113.82</course>
  <speed>25.46</speed>
  <fix>3d</fix>
</trkpt>
<trkpt lat="-27.2770898" lon="151.2946815">
  <ele>463.22</ele>
  <time>2026-09-01T19:55:36Z</time>
  <course>113.21</course>
  <speed>25.525941706428775</speed>
  <fix>3d</fix>
</trkpt>
<trkpt lat="-27.2770715" lon="151.2946341">
  <ele>463.39</ele>
  <time>2026-09-01T19:55:36Z</time>
  <course>113.82</course>
  <speed>25.46</speed>
  <fix>3d</fix>
</trkpt>
<trkpt lat="-27.277099" lon="151.2947049">
  <ele>463.22</ele>
  <time>2026-09-01T19:55:36Z</time>
  <course>113.24</course>
  <speed>25.516790550537504</speed>
  <fix>3d</fix>
</trkpt>
<trkpt lat="-27.27709" lon="151.2946812">
  <ele>463.39</ele>
  <time>2026-09-01T19:55:36Z</time>
  <course>113.87</course>
  <speed>25.47</speed>
  <fix>3d</fix>
</trkpt>
<trkpt lat="-27.2771082" lon="151.2947283">
  <ele>463.23</ele>
  <time>2026-09-01T19:55:36Z</time>
  <course>113.31</course>
  <speed>25.507640031959053</speed>
  <fix>3d</fix>
</trkpt>
<trkpt lat="-27.27709" lon="151.2946812">
  <ele>463.39</ele>
  <time>2026-09-01T19:55:36Z</time>
  <course>113.87</course>
  <speed>25.47</speed>
  <fix>3d</fix>
</trkpt>
<trkpt lat="-27.2771174" lon="151.2947517">
  <ele>463.23</ele>
  <time>2026-09-01T19:55:36Z</time>
  <course>113.39</course>
  <speed>25.507640031959053</speed>
  <fix>3d</fix>
</trkpt>
<trkpt lat="-27.2771086" lon="151.2947283">
  <ele>463.39</ele>
  <time>2026-09-01T19:55:36Z</time>
  <course>113.9</course>
  <speed>25.47</speed>
  <fix>3d</fix>
</trkpt>
<trkpt lat="-27.2771267" lon="151.2947753">
  <ele>463.24</ele>
  <time>2026-09-01T19:55:36Z</time>
  <course>113.45</course>
  <speed>25.51167575836601</speed>
  <fix>3d</fix>
</trkpt>
<trkpt lat="-27.2771086" lon="151.2947283">
  <ele>463.39</ele>
  <time>2026-09-01T19:55:36Z</time>
  <course>113.9</course>
  <speed>25.47</speed>
  <fix>3d</fix>
</trkpt>
<trkpt lat="-27.2771359" lon="151.2947986">
  <ele>463.24</ele>
  <time>2026-09-01T19:55:36Z</time>
  <course>113.5</course>
  <speed>25.506567781651846</speed>
  <fix>3d</fix>
</trkpt>
<trkpt lat="-27.2771271" lon="151.2947753">
  <ele>463.4</ele>
  <time>2026-09-01T19:55:36Z</time>
  <course>113.92</course>
  <speed>25.47</speed>
  <fix>3d</fix>
</trkpt>
<trkpt lat="-27.2771452" lon="151.2948222">
  <ele>463.24</ele>
  <time>2026-09-01T19:55:36Z</time>
  <course>113.55</course>
  <speed>25.519757052135116</speed>
  <fix>3d</fix>
</trkpt>
<trkpt lat="-27.2771271" lon="151.2947753">
  <ele>463.4</ele>
  <time>2026-09-01T19:55:36Z</time>
  <course>113.92</course>
  <speed>25.47</speed>
  <fix>3d</fix>
</trkpt>
<trkpt lat="-27.2771545" lon="151.2948459">
  <ele>463.24</ele>
  <time>2026-09-01T19:55:36Z</time>
  <course>113.56</course>
  <speed>25.52380261638144</speed>
  <fix>3d</fix>
</trkpt>
<trkpt lat="-27.2771457" lon="151.2948223">
  <ele>463.4</ele>
  <time>2026-09-01T19:55:36Z</time>
  <course>113.96</course>
  <speed>25.47</speed>
  <fix>3d</fix>
</trkpt>
<trkpt lat="-27.2771639" lon="151.2948695">
  <ele>463.23</ele>
  <time>2026-09-01T19:55:36Z</time>
  <course>113.58</course>
  <speed>25.527851456791268</speed>
  <fix>3d</fix>
</trkpt>
<trkpt lat="-27.2771457" lon="151.2948223">
  <ele>463.4</ele>
  <time>2026-09-01T19:55:36Z</time>
  <course>113.96</course>
  <speed>25.47</speed>
  <fix>3d</fix>
</trkpt>
<trkpt lat="-27.2771733" lon="151.2948932">
  <ele>463.23</ele>
  <time>2026-09-01T19:55:36Z</time>
  <course>113.55</course>
  <speed>25.535958959866772</speed>
  <fix>3d</fix>
</trkpt>
<trkpt lat="-27.2771643" lon="151.2948694">
  <ele>463.39</ele>
  <time>2026-09-01T19:55:36Z</time>
  <course>114.0</course>
  <speed>25.48</speed>
  <fix>3d</fix>
</trkpt>
<trkpt lat="-27.2771827" lon="151.294917">
  <ele>463.24</ele>
  <time>2026-09-01T19:55:36Z</time>
  <course>113.52</course>
  <speed>25.54001761941444</speed>
  <fix>3d</fix>
</trkpt>
<trkpt lat="-27.2771643" lon="151.2948694">
  <ele>463.39</ele>
  <time>2026-09-01T19:55:36Z</time>
  <course>114.0</course>
  <speed>25.48</speed>
  <fix>3d</fix>
</trkpt>
<trkpt lat="-27.2771921" lon="151.2949406">
  <ele>463.24</ele>
  <time>2026-09-01T19:55:36Z</time>
  <course>113.47</course>
  <speed>25.54001761941444</speed>
  <fix>3d</fix>
</trkpt>
<trkpt lat="-27.2771829" lon="151.2949165">
  <ele>463.39</ele>
  <time>2026-09-01T19:55:36Z</time>
  <course>114.03</course>
  <speed>25.48</speed>
  <fix>3d</fix>
</trkpt>
<trkpt lat="-27.2772015" lon="151.2949643">
  <ele>463.24</ele>
  <time>2026-09-01T19:55:36Z</time>
  <course>113.49</course>
  <speed>25.54915654185085</speed>
  <fix>3d</fix>
</trkpt>
<trkpt lat="-27.2771829" lon="151.2949165">
  <ele>463.39</ele>
  <time>2026-09-01T19:55:36Z</time>
  <course>114.03</course>
  <speed>25.48</speed>
  <fix>3d</fix>
</trkpt>
<trkpt lat="-27.2772112" lon="151.2949887">
  <ele>463.25</ele>
  <time>2026-09-01T19:55:36Z</time>
  <course>113.52</course>
  <speed>25.54915654185085</speed>
  <fix>3d</fix>
</trkpt>
<trkpt lat="-27.2772016" lon="151.2949635">
  <ele>463.4</ele>
  <time>2026-09-01T19:55:36Z</time>
  <course>114.04</course>
  <speed>25.48</speed>
  <fix>3d</fix>
</trkpt>
<trkpt lat="-27.2772204" lon="151.295012">
  <ele>463.25</ele>
  <time>2026-09-01T19:55:36Z</time>
  <course>113.51</course>
  <speed>25.535958959866772</speed>
  <fix>3d</fix>
</trkpt>
<trkpt lat="-27.2772016" lon="151.2949635">
  <ele>463.4</ele>
  <time>2026-09-01T19:55:36Z</time>
  <course>114.04</course>
  <speed>25.48</speed>
  <fix>3d</fix>
</trkpt>
<trkpt lat="-27.2772297" lon="151.2950355">
  <ele>463.25</ele>
  <time>2026-09-01T19:55:36Z</time>
  <course>113.51</course>
  <speed>25.531903571806</speed>
  <fix>3d</fix>
</trkpt>
<trkpt lat="-27.2772202" lon="151.2950105">
  <ele>463.4</ele>
  <time>2026-09-01T19:55:36Z</time>
  <course>114.03</course>
  <speed>25.47</speed>
  <fix>3d</fix>
</trkpt>
<trkpt lat="-27.277239" lon="151.2950589">
  <ele>463.25</ele>
  <time>2026-09-01T19:55:36Z</time>
  <course>113.55</course>
  <speed>25.531903571806</speed>
  <fix>3d</fix>
</trkpt>
<trkpt lat="-27.2772202" lon="151.2950105">
  <ele>463.4</ele>
  <time>2026-09-01T19:55:36Z</time>
  <course>114.03</course>
  <speed>25.47</speed>
  <fix>3d</fix>
</trkpt>
<trkpt lat="-27.2772482" lon="151.2950824">
  <ele>463.26</ele>
  <time>2026-09-01T19:55:36Z</time>
  <course>113.56</course>
  <speed>25.527851456791268</speed>
  <fix>3d</fix>
</trkpt>
<trkpt lat="-27.2772389" lon="151.2950576">
  <ele>463.41</ele>
  <time>2026-09-01T19:55:36Z</time>
  <course>114.01</course>
  <speed>25.47</speed>
  <fix>3d</fix>
</trkpt>
<trkpt lat="-27.2772576" lon="151.2951059">
  <ele>463.26</ele>
  <time>2026-09-01T19:55:36Z</time>
  <course>113.53</course>
  <speed>25.51465853191063</speed>
  <fix>3d</fix>
</trkpt>
<trkpt lat="-27.2772389" lon="151.2950576">
  <ele>463.41</ele>
  <time>2026-09-01T19:55:36Z</time>
  <course>114.01</course>
  <speed>25.47</speed>
  <fix>3d</fix>
</trkpt>
<trkpt lat="-27.2772668" lon="151.2951294">
  <ele>463.25</ele>
  <time>2026-09-01T19:55:36Z</time>
  <course>113.55</course>
  <speed>25.510611517562648</speed>
  <fix>3d</fix>
</trkpt>
<trkpt lat="-27.2772576" lon="151.2951048">
  <ele>463.4</ele>
  <time>2026-09-01T19:55:36Z</time>
  <course>113.98</course>
  <speed>25.47</speed>
  <fix>3d</fix>
</trkpt>
<trkpt lat="-27.2772758" lon="151.2951522">
  <ele>463.25</ele>
  <time>2026-09-01T19:55:36Z</time>
  <course>113.55</course>
  <speed>25.510611517562648</speed>
  <fix>3d</fix>
</trkpt>
<trkpt lat="-27.2772576" lon="151.2951048">
  <ele>463.4</ele>
  <time>2026-09-01T19:55:36Z</time>
  <course>113.98</course>
  <speed>25.47</speed>
  <fix>3d</fix>
</trkpt>
<trkpt lat="-27.2772851" lon="151.2951756">
  <ele>463.25</ele>
  <time>2026-09-01T19:55:36Z</time>
  <course>113.53</course>
  <speed>25.506567781651846</speed>
  <fix>3d</fix>
</trkpt>
<trkpt lat="-27.2772761" lon="151.2951518">
  <ele>463.4</ele>
  <time>2026-09-01T19:55:36Z</time>
  <course>113.95</course>
  <speed>25.48</speed>
  <fix>3d</fix>
</trkpt>
<trkpt lat="-27.2772943" lon="151.295199">
  <ele>463.25</ele>
  <time>2026-09-01T19:55:36Z</time>
  <course>113.44</course>
  <speed>25.506567781651846</speed>
  <fix>3d</fix>
</trkpt>
<trkpt lat="-27.2772761" lon="151.2951518">
  <ele>463.4</ele>
  <time>2026-09-01T19:55:36Z</time>
  <course>113.95</course>
  <speed>25.48</speed>
  <fix>3d</fix>
</trkpt>
<trkpt lat="-27.2773036" lon="151.2952225">
  <ele>463.25</ele>
  <time>2026-09-01T19:55:36Z</time>
  <course>113.42</course>
  <speed>25.502527325737738</speed>
  <fix>3d</fix>
</trkpt>
<trkpt lat="-27.2772947" lon="151.2951989">
  <ele>463.4</ele>
  <time>2026-09-01T19:55:36Z</time>
  <course>113.92</course>
  <speed>25.48</speed>
  <fix>3d</fix>
</trkpt>
<trkpt lat="-27.2773128" lon="151.2952459">
  <ele>463.25</ele>
  <time>2026-09-01T19:55:36Z</time>
  <course>113.44</course>
  <speed>25.498490151379553</speed>
  <fix>3d</fix>
</trkpt>
<trkpt lat="-27.2772947" lon="151.2951989">
  <ele>463.4</ele>
  <time>2026-09-01T19:55:36Z</time>
  <course>113.92</course>
  <speed>25.48</speed>
  <fix>3d</fix>
</trkpt>
<trkpt lat="-27.2773221" lon="151.2952694">
  <ele>463.24</ele>
  <time>2026-09-01T19:55:36Z</time>
  <course>113.41</course>
  <speed>25.48530557007312</speed>
  <fix>3d</fix>
</trkpt>
<trkpt lat="-27.2773132" lon="151.2952459">
  <ele>463.4</ele>
  <time>2026-09-01T19:55:36Z</time>
  <course>113.89</course>
  <speed>25.48</speed>
  <fix>3d</fix>
</trkpt>
<trkpt lat="-27.2773312" lon="151.2952927">
  <ele>463.24</ele>
  <time>2026-09-01T19:55:36Z</time>
  <course>113.42</course>
  <speed>25.481273516054884</speed>
  <fix>3d</fix>
</trkpt>
<trkpt lat="-27.2773132" lon="151.2952459">
  <ele>463.4</ele>
  <time>2026-09-01T19:55:36Z</time>
  <course>113.89</course>
  <speed>25.48</speed>
  <fix>3d</fix>
</trkpt>
<trkpt lat="-27.2773405" lon="151.2953162">
  <ele>463.24</ele>
  <time>2026-09-01T19:55:36Z</time>
  <course>113.38</course>
  <speed>25.490425653566476</speed>
  <fix>3d</fix>
</trkpt>
<trkpt lat="-27.2773318" lon="151.295293">
  <ele>463.4</ele>
  <time>2026-09-01T19:55:36Z</time>
  <course>113.85</course>
  <speed>25.49</speed>
  <fix>3d</fix>
</trkpt>
<trkpt lat="-27.2773497" lon="151.2953397">
  <ele>463.23</ele>
  <time>2026-09-01T19:55:36Z</time>
  <course>113.35</course>
  <speed>25.48639833322865</speed>
  <fix>3d</fix>
</trkpt>
<trkpt lat="-27.2773318" lon="151.295293">
  <ele>463.4</ele>
  <time>2026-09-01T19:55:36Z</time>
  <course>113.85</course>
  <speed>25.49</speed>
  <fix>3d</fix>
</trkpt>
<trkpt lat="-27.2773589" lon="151.2953632">
  <ele>463.22</ele>
  <time>2026-09-01T19:55:36Z</time>
  <course>113.26</course>
  <speed>25.491529965853363</speed>
  <fix>3d</fix>
</trkpt>
<trkpt lat="-27.2773503" lon="151.2953402">
  <ele>463.39</ele>
  <time>2026-09-01T19:55:36Z</time>
  <course>113.8</course>
  <speed>25.49</speed>
  <fix>3d</fix>
</trkpt>
<trkpt lat="-27.2773682" lon="151.295387">
  <ele>463.22</ele>
  <time>2026-09-01T19:55:36Z</time>
  <course>113.23</course>
  <speed>25.49265384380371</speed>
  <fix>3d</fix>
</trkpt>
<trkpt lat="-27.2773503" lon="151.2953402">
  <ele>463.39</ele>
  <time>2026-09-01T19:55:36Z</time>
  <course>113.8</course>
  <speed>25.49</speed>
  <fix>3d</fix>
</trkpt>
<trkpt lat="-27.2773774" lon="151.2954105">
  <ele>463.22</ele>
  <time>2026-09-01T19:55:36Z</time>
  <course>113.27</course>
  <speed>25.497803826996552</speed>
  <fix>3d</fix>
</trkpt>
<trkpt lat="-27.2773688" lon="151.2953873">
  <ele>463.38</ele>
  <time>2026-09-01T19:55:36Z</time>
  <course>113.74</course>
  <speed>25.5</speed>
  <fix>3d</fix>
</trkpt>
<trkpt lat="-27.2773866" lon="151.295434">
  <ele>463.21</ele>
  <time>2026-09-01T19:55:36Z</time>
  <course>113.28</course>
  <speed>25.493797284829892</speed>
  <fix>3d</fix>
</trkpt>
<trkpt lat="-27.2773688" lon="151.2953873">
  <ele>463.38</ele>
  <time>2026-09-01T19:55:36Z</time>
  <course>113.74</course>
  <speed>25.5</speed>
  <fix>3d</fix>
</trkpt>
<trkpt lat="-27.277396" lon="151.2954582">
  <ele>463.21</ele>
  <time>2026-09-01T19:55:36Z</time>
  <course>113.26</course>
  <speed>25.48979403604509</speed>
  <fix>3d</fix>
</trkpt>
<trkpt lat="-27.2773872" lon="151.2954345">
  <ele>463.37</ele>
  <time>2026-09-01T19:55:36Z</time>
  <course>113.68</course>
  <speed>25.51</speed>
  <fix>3d</fix>
</trkpt>
<trkpt lat="-27.2774052" lon="151.2954817">
  <ele>463.2</ele>
  <time>2026-09-01T19:55:36Z</time>
  <course>113.22</course>
  <speed>25.4857940821941</speed>
  <fix>3d</fix>
</trkpt>
<trkpt lat="-27.2773872" lon="151.2954345">
  <ele>463.37</ele>
  <time>2026-09-01T19:55:36Z</time>
  <course>113.68</course>
  <speed>25.51</speed>
  <fix>3d</fix>
</trkpt>
<trkpt lat="-27.2774142" lon="151.2955049">
  <ele>463.2</ele>
  <time>2026-09-01T19:55:36Z</time>
  <course>113.18</course>
  <speed>25.490965066077823</speed>
  <fix>3d</fix>
</trkpt>
<trkpt lat="-27.2774056" lon="151.2954818">
  <ele>463.36</ele>
  <time>2026-09-01T19:55:36Z</time>
  <course>113.63</course>
  <speed>25.51</speed>
  <fix>3d</fix>
</trkpt>
<trkpt lat="-27.2774234" lon="151.2955285">
  <ele>463.2</ele>
  <time>2026-09-01T19:55:36Z</time>
  <course>113.13</course>
  <speed>25.486973143156877</speed>
  <fix>3d</fix>
</trkpt>
<trkpt lat="-27.2774056" lon="151.2954818">
  <ele>463.36</ele>
  <time>2026-09-01T19:55:36Z</time>
  <course>113.63</course>
  <speed>25.51</speed>
  <fix>3d</fix>
</trkpt>
<trkpt lat="-27.2774325" lon="151.2955521">
  <ele>463.19</ele>
  <time>2026-09-01T19:55:36Z</time>
  <course>113.1</course>
  <speed>25.482984519086457</speed>
  <fix>3d</fix>
</trkpt>
<trkpt lat="-27.2774239" lon="151.2955289">
  <ele>463.36</ele>
  <time>2026-09-01T19:55:36Z</time>
  <course>113.58</course>
  <speed>25.52</speed>
  <fix>3d</fix>
</trkpt>
<trkpt lat="-27.2774417" lon="151.2955757">
  <ele>463.19</ele>
  <time>2026-09-01T19:55:36Z</time>
  <course>113.12</course>
  <speed>25.488171766527312</speed>
  <fix>3d</fix>
</trkpt>
<trkpt lat="-27.2774239" lon="151.2955289">
  <ele>463.36</ele>
  <time>2026-09-01T19:55:36Z</time>
  <course>113.58</course>
  <speed>25.52</speed>
  <fix>3d</fix>
</trkpt>
<trkpt lat="-27.2774509" lon="151.2955996">
  <ele>463.19</ele>
  <time>2026-09-01T19:55:36Z</time>
  <course>113.09</course>
  <speed>25.493365803675278</speed>
  <fix>3d</fix>
</trkpt>
<trkpt lat="-27.2774423" lon="151.2955763">
  <ele>463.36</ele>
  <time>2026-09-01T19:55:36Z</time>
  <course>113.53</course>
  <speed>25.52</speed>
  <fix>3d</fix>
</trkpt>
<trkpt lat="-27.2774601" lon="151.2956233">
  <ele>463.19</ele>
  <time>2026-09-01T19:55:36Z</time>
  <course>113.07</course>
  <speed>25.502541049864032</speed>
  <fix>3d</fix>
</trkpt>
<trkpt lat="-27.2774423" lon="151.2955763">
  <ele>463.36</ele>
  <time>2026-09-01T19:55:36Z</time>
  <course>113.53</course>
  <speed>25.52</speed>
  <fix>3d</fix>
</trkpt>
<trkpt lat="-27.2774693" lon="151.295647">
  <ele>463.19</ele>
  <time>2026-09-01T19:55:36Z</time>
  <course>113.04</course>
  <speed>25.49856662638118</speed>
  <fix>3d</fix>
</trkpt>
<trkpt lat="-27.2774606" lon="151.2956237">
  <ele>463.36</ele>
  <time>2026-09-01T19:55:36Z</time>
  <course>113.49</course>
  <speed>25.52</speed>
  <fix>3d</fix>
</trkpt>
<trkpt lat="-27.2774784" lon="151.2956707">
  <ele>463.2</ele>
  <time>2026-09-01T19:55:36Z</time>
  <course>112.96</course>
  <speed>25.50377423049381</speed>
  <fix>3d</fix>
</trkpt>
<trkpt lat="-27.2774606" lon="151.2956237">
  <ele>463.36</ele>
  <time>2026-09-01T19:55:36Z</time>
  <course>113.49</course>
  <speed>25.52</speed>
  <fix>3d</fix>
</trkpt>
<trkpt lat="-27.2774876" lon="151.2956945">
  <ele>463.2</ele>
  <time>2026-09-01T19:55:36Z</time>
  <course>112.95</course>
  <speed>25.518169997082474</speed>
  <fix>3d</fix>
</trkpt>
<trkpt lat="-27.2774789" lon="151.295671">
  <ele>463.36</ele>
  <time>2026-09-01T19:55:36Z</time>
  <course>113.44</course>
  <speed>25.52</speed>
  <fix>3d</fix>
</trkpt>
<trkpt lat="-27.2774967" lon="151.2957182">
  <ele>463.2</ele>
  <time>2026-09-01T19:55:36Z</time>
  <course>112.93</course>
  <speed>25.518169997082474</speed>
  <fix>3d</fix>
</trkpt>
<trkpt lat="-27.2774789" lon="151.295671">
  <ele>463.36</ele>
  <time>2026-09-01T19:55:36Z</time>
  <course>113.44</course>
  <speed>25.52</speed>
  <fix>3d</fix>
</trkpt>
<trkpt lat="-27.2775059" lon="151.295742">
  <ele>463.2</ele>
  <time>2026-09-01T19:55:36Z</time>
  <course>112.86</course>
  <speed>25.523393191345072</speed>
  <fix>3d</fix>
</trkpt>
<trkpt lat="-27.2774971" lon="151.2957184">
  <ele>463.37</ele>
  <time>2026-09-01T19:55:36Z</time>
  <course>113.4</course>
  <speed>25.52</speed>
  <fix>3d</fix>
</trkpt>
<trkpt lat="-27.277515" lon="151.2957657">
  <ele>463.2</ele>
  <time>2026-09-01T19:55:36Z</time>
  <course>112.77</course>
  <speed>25.528623151278644</speed>
  <fix>3d</fix>
</trkpt>
<trkpt lat="-27.2774971" lon="151.2957184">
  <ele>463.37</ele>
  <time>2026-09-01T19:55:36Z</time>
  <course>113.4</course>
  <speed>25.52</speed>
  <fix>3d</fix>
</trkpt>
<trkpt lat="-27.2775238" lon="151.2957887">
  <ele>463.2</ele>
  <time>2026-09-01T19:55:36Z</time>
  <course>112.8</course>
  <speed>25.524672377917017</speed>
  <fix>3d</fix>
</trkpt>
<trkpt lat="-27.2775153" lon="151.2957657">
  <ele>463.37</ele>
  <time>2026-09-01T19:55:36Z</time>
  <course>113.35</course>
  <speed>25.53</speed>
  <fix>3d</fix>
</trkpt>
<trkpt lat="-27.2775329" lon="151.2958125">
  <ele>463.2</ele>
  <time>2026-09-01T19:55:36Z</time>
  <course>112.86</course>
  <speed>25.533859872725863</speed>
  <fix>3d</fix>
</trkpt>
<trkpt lat="-27.2775153" lon="151.2957657">
  <ele>463.37</ele>
  <time>2026-09-01T19:55:36Z</time>
  <course>113.35</course>
  <speed>25.53</speed>
  <fix>3d</fix>
</trkpt>
<trkpt lat="-27.277542" lon="151.2958362">
  <ele>463.2</ele>
  <time>2026-09-01T19:55:36Z</time>
  <course>112.87</course>
  <speed>25.533859872725863</speed>
  <fix>3d</fix>
</trkpt>
<trkpt lat="-27.2775334" lon="151.2958131">
  <ele>463.37</ele>
  <time>2026-09-01T19:55:36Z</time>
  <course>113.3</course>
  <speed>25.52</speed>
  <fix>3d</fix>
</trkpt>
<trkpt lat="-27.2775511" lon="151.29586">
  <ele>463.2</ele>
  <time>2026-09-01T19:55:36Z</time>
  <course>112.82</course>
  <speed>25.543047977874526</speed>
  <fix>3d</fix>
</trkpt>
<trkpt lat="-27.2775334" lon="151.2958131">
  <ele>463.37</ele>
  <time>2026-09-01T19:55:36Z</time>
  <course>113.3</course>
  <speed>25.52</speed>
  <fix>3d</fix>
</trkpt>
<trkpt lat="-27.2775603" lon="151.295884">
  <ele>463.21</ele>
  <time>2026-09-01T19:55:36Z</time>
  <course>112.78</course>
  <speed>25.539103351527437</speed>
  <fix>3d</fix>
</trkpt>
<trkpt lat="-27.2775516" lon="151.2958605">
  <ele>463.37</ele>
  <time>2026-09-01T19:55:36Z</time>
  <course>113.28</course>
  <speed>25.52</speed>
  <fix>3d</fix>
</trkpt>
<trkpt lat="-27.2775694" lon="151.2959078">
  <ele>463.21</ele>
  <time>2026-09-01T19:55:36Z</time>
  <course>112.78</course>
  <speed>25.548293485084283</speed>
  <fix>3d</fix>
</trkpt>
<trkpt lat="-27.2775516" lon="151.2958605">
  <ele>463.37</ele>
  <time>2026-09-01T19:55:36Z</time>
  <course>113.28</course>
  <speed>25.52</speed>
  <fix>3d</fix>
</trkpt>
<trkpt lat="-27.2775785" lon="151.2959316">
  <ele>463.22</ele>
  <time>2026-09-01T19:55:36Z</time>
  <course>112.77</course>
  <speed>25.548293485084283</speed>
  <fix>3d</fix>
</trkpt>
<trkpt lat="-27.2775697" lon="151.2959078">
  <ele>463.37</ele>
  <time>2026-09-01T19:55:36Z</time>
  <course>113.27</course>
  <speed>25.52</speed>
  <fix>3d</fix>
</trkpt>
<trkpt lat="-27.2775879" lon="151.2959561">
  <ele>463.22</ele>
  <time>2026-09-01T19:55:36Z</time>
  <course>112.74</course>
  <speed>25.548293485084283</speed>
  <fix>3d</fix>
</trkpt>
<trkpt lat="-27.2775697" lon="151.2959078">
  <ele>463.37</ele>
  <time>2026-09-01T19:55:36Z</time>
  <course>113.27</course>
  <speed>25.52</speed>
  <fix>3d</fix>
</trkpt>
<trkpt lat="-27.2775969" lon="151.2959797">
  <ele>463.22</ele>
  <time>2026-09-01T19:55:36Z</time>
  <course>112.73</course>
  <speed>25.553545742225282</speed>
  <fix>3d</fix>
</trkpt>
<trkpt lat="-27.2775878" lon="151.2959553">
  <ele>463.38</ele>
  <time>2026-09-01T19:55:36Z</time>
  <course>113.24</course>
  <speed>25.52</speed>
  <fix>3d</fix>
</trkpt>
<trkpt lat="-27.277606" lon="151.2960035">
  <ele>463.22</ele>
  <time>2026-09-01T19:55:36Z</time>
  <course>112.7</course>
  <speed>25.55748422673875</speed>
  <fix>3d</fix>
</trkpt>
<trkpt lat="-27.2775878" lon="151.2959553">
  <ele>463.38</ele>
  <time>2026-09-01T19:55:36Z</time>
  <course>113.24</course>
  <speed>25.52</speed>
  <fix>3d</fix>
</trkpt>
<trkpt lat="-27.2776151" lon="151.2960273">
  <ele>463.22</ele>
  <time>2026-09-01T19:55:36Z</time>
  <course>112.65</course>
  <speed>25.562738507444777</speed>
  <fix>3d</fix>
</trkpt>
<trkpt lat="-27.2776059" lon="151.2960026">
  <ele>463.38</ele>
  <time>2026-09-01T19:55:36Z</time>
  <course>113.22</course>
  <speed>25.52</speed>
  <fix>3d</fix>
</trkpt>
<trkpt lat="-27.2776241" lon="151.2960511">
  <ele>463.23</ele>
  <time>2026-09-01T19:55:36Z</time>
  <course>112.67</course>
  <speed>25.562738507444777</speed>
  <fix>3d</fix>
</trkpt>
<trkpt lat="-27.2776059" lon="151.2960026">
  <ele>463.38</ele>
  <time>2026-09-01T19:55:36Z</time>
  <course>113.22</course>
  <speed>25.52</speed>
  <fix>3d</fix>
</trkpt>
<trkpt lat="-27.2776332" lon="151.2960748">
  <ele>463.23</ele>
  <time>2026-09-01T19:55:36Z</time>
  <course>112.7</course>
  <speed>25.562738507444777</speed>
  <fix>3d</fix>
</trkpt>
<trkpt lat="-27.277624" lon="151.2960502">
  <ele>463.39</ele>
  <time>2026-09-01T19:55:36Z</time>
  <course>113.21</course>
  <speed>25.52</speed>
  <fix>3d</fix>
</trkpt>
<trkpt lat="-27.2776423" lon="151.2960988">
  <ele>463.23</ele>
  <time>2026-09-01T19:55:36Z</time>
  <course>112.71</course>
  <speed>25.558804745136264</speed>
  <fix>3d</fix>
</trkpt>
<trkpt lat="-27.277624" lon="151.2960502">
  <ele>463.39</ele>
  <time>2026-09-01T19:55:36Z</time>
  <course>113.21</course>
  <speed>25.52</speed>
  <fix>3d</fix>
</trkpt>
<trkpt lat="-27.2776514" lon="151.2961226">
  <ele>463.23</ele>
  <time>2026-09-01T19:55:36Z</time>
  <course>112.66</course>
  <speed>25.558804745136264</speed>
  <fix>3d</fix>
</trkpt>
<trkpt lat="-27.2776421" lon="151.2960977">
  <ele>463.39</ele>
  <time>2026-09-01T19:55:36Z</time>
  <course>113.2</course>
  <speed>25.51</speed>
  <fix>3d</fix>
</trkpt>
<trkpt lat="-27.2776604" lon="151.2961462">
  <ele>463.24</ele>
  <time>2026-09-01T19:55:36Z</time>
  <course>112.62</course>
  <speed>25.554874290436256</speed>
  <fix>3d</fix>
</trkpt>
<trkpt lat="-27.2776421" lon="151.2960977">
  <ele>463.39</ele>
  <time>2026-09-01T19:55:36Z</time>
  <course>113.2</course>
  <speed>25.51</speed>
  <fix>3d</fix>
</trkpt>
<trkpt lat="-27.2776694" lon="151.2961699">
  <ele>463.25</ele>
  <time>2026-09-01T19:55:36Z</time>
  <course>112.61</course>
  <speed>25.554874290436256</speed>
  <fix>3d</fix>
</trkpt>
<trkpt lat="-27.2776602" lon="151.296145">
  <ele>463.4</ele>
  <time>2026-09-01T19:55:36Z</time>
  <course>113.18</course>
  <speed>25.51</speed>
  <fix>3d</fix>
</trkpt>
<trkpt lat="-27.2776784" lon="151.2961935">
  <ele>463.25</ele>
  <time>2026-09-01T19:55:36Z</time>
  <course>112.62</course>
  <speed>25.54175013580706</speed>
  <fix>3d</fix>
</trkpt>
<trkpt lat="-27.2776602" lon="151.296145">
  <ele>463.4</ele>
  <time>2026-09-01T19:55:36Z</time>
  <course>113.18</course>
  <speed>25.51</speed>
  <fix>3d</fix>
</trkpt>
<trkpt lat="-27.2776874" lon="151.2962171">
  <ele>463.26</ele>
  <time>2026-09-01T19:55:36Z</time>
  <course>112.55</course>
  <speed>25.54175013580706</speed>
  <fix>3d</fix>
</trkpt>
<trkpt lat="-27.2776781" lon="151.2961924">
  <ele>463.41</ele>
  <time>2026-09-01T19:55:36Z</time>
  <course>113.16</course>
  <speed>25.5</speed>
  <fix>3d</fix>
</trkpt>
<trkpt lat="-27.2776964" lon="151.2962409">
  <ele>463.26</ele>
  <time>2026-09-01T19:55:36Z</time>
  <course>112.57</course>
  <speed>25.54175013580706</speed>
  <fix>3d</fix>
</trkpt>
<trkpt lat="-27.2776781" lon="151.2961924">
  <ele>463.41</ele>
  <time>2026-09-01T19:55:36Z</time>
  <course>113.16</course>
  <speed>25.5</speed>
  <fix>3d</fix>
</trkpt>
<trkpt lat="-27.2777054" lon="151.2962646">
  <ele>463.26</ele>
  <time>2026-09-01T19:55:36Z</time>
  <course>112.57</course>
  <speed>25.54175013580706</speed>
  <fix>3d</fix>
</trkpt>
<trkpt lat="-27.2776962" lon="151.2962397">
  <ele>463.41</ele>
  <time>2026-09-01T19:55:36Z</time>
  <course>113.16</course>
  <speed>25.5</speed>
  <fix>3d</fix>
</trkpt>
<trkpt lat="-27.2777145" lon="151.2962884">
  <ele>463.26</ele>
  <time>2026-09-01T19:55:36Z</time>
  <course>112.59</course>
  <speed>25.54175013580706</speed>
  <fix>3d</fix>
</trkpt>
<trkpt lat="-27.2776962" lon="151.2962397">
  <ele>463.41</ele>
  <time>2026-09-01T19:55:36Z</time>
  <course>113.16</course>
  <speed>25.5</speed>
  <fix>3d</fix>
</trkpt>
<trkpt lat="-27.2777235" lon="151.2963121">
  <ele>463.26</ele>
  <time>2026-09-01T19:55:36Z</time>
  <course>112.57</course>
  <speed>25.54175013580706</speed>
  <fix>3d</fix>
</trkpt>
<trkpt lat="-27.2777142" lon="151.2962872">
  <ele>463.42</ele>
  <time>2026-09-01T19:55:36Z</time>
  <course>113.15</course>
  <speed>25.5</speed>
  <fix>3d</fix>
</trkpt>
<trkpt lat="-27.2777326" lon="151.2963359">
  <ele>463.26</ele>
  <time>2026-09-01T19:55:36Z</time>
  <course>112.61</course>
  <speed>25.54175013580706</speed>
  <fix>3d</fix>
</trkpt>
<trkpt lat="-27.2777142" lon="151.2962872">
  <ele>463.42</ele>
  <time>2026-09-01T19:55:36Z</time>
  <course>113.15</course>
  <speed>25.5</speed>
  <fix>3d</fix>
</trkpt>
<trkpt lat="-27.2777416" lon="151.2963597">
  <ele>463.26</ele>
  <time>2026-09-01T19:55:36Z</time>
  <course>112.59</course>
  <speed>25.54567869523141</speed>
  <fix>3d</fix>
</trkpt>
<trkpt lat="-27.2777322" lon="151.2963345">
  <ele>463.42</ele>
  <time>2026-09-01T19:55:36Z</time>
  <course>113.16</course>
  <speed>25.49</speed>
  <fix>3d</fix>
</trkpt>
<trkpt lat="-27.2777507" lon="151.2963835">
  <ele>463.26</ele>
  <time>2026-09-01T19:55:36Z</time>
  <course>112.63</course>
  <speed>25.554874290436256</speed>
  <fix>3d</fix>
</trkpt>
<trkpt lat="-27.2777322" lon="151.2963345">
  <ele>463.42</ele>
  <time>2026-09-01T19:55:36Z</time>
  <course>113.16</course>
  <speed>25.49</speed>
  <fix>3d</fix>
</trkpt>
<trkpt lat="-27.2777597" lon="151.2964073">
  <ele>463.26</ele>
  <time>2026-09-01T19:55:36Z</time>
  <course>112.64</course>
  <speed>25.558804745136264</speed>
  <fix>3d</fix>
</trkpt>
<trkpt lat="-27.2777503" lon="151.2963819">
  <ele>463.42</ele>
  <time>2026-09-01T19:55:36Z</time>
  <course>113.17</course>
  <speed>25.5</speed>
  <fix>3d</fix>
</trkpt>
<trkpt lat="-27.2777688" lon="151.2964311">
  <ele>463.25</ele>
  <time>2026-09-01T19:55:36Z</time>
  <course>112.66</course>
  <speed>25.558804745136264</speed>
  <fix>3d</fix>
</trkpt>
<trkpt lat="-27.2777503" lon="151.2963819">
  <ele>463.42</ele>
  <time>2026-09-01T19:55:36Z</time>
  <course>113.17</course>
  <speed>25.5</speed>
  <fix>3d</fix>
</trkpt>
<trkpt lat="-27.2777779" lon="151.2964551">
  <ele>463.25</ele>
  <time>2026-09-01T19:55:36Z</time>
  <course>112.66</course>
  <speed>25.571931878526502</speed>
  <fix>3d</fix>
</trkpt>
<trkpt lat="-27.2777683" lon="151.2964293">
  <ele>463.42</ele>
  <time>2026-09-01T19:55:36Z</time>
  <course>113.18</course>
  <speed>25.5</speed>
  <fix>3d</fix>
</trkpt>
<trkpt lat="-27.2777869" lon="151.2964787">
  <ele>463.25</ele>
  <time>2026-09-01T19:55:36Z</time>
  <course>112.68</course>
  <speed>25.571931878526502</speed>
  <fix>3d</fix>
</trkpt>
<trkpt lat="-27.2777683" lon="151.2964293">
  <ele>463.42</ele>
  <time>2026-09-01T19:55:36Z</time>
  <course>113.18</course>
  <speed>25.5</speed>
  <fix>3d</fix>
</trkpt>
<trkpt lat="-27.277796" lon="151.2965024">
  <ele>463.25</ele>
  <time>2026-09-01T19:55:36Z</time>
  <course>112.7</course>
  <speed>25.575867531718256</speed>
  <fix>3d</fix>
</trkpt>
<trkpt lat="-27.2777863" lon="151.2964766">
  <ele>463.41</ele>
  <time>2026-09-01T19:55:36Z</time>
  <course>113.21</course>
  <speed>25.5</speed>
  <fix>3d</fix>
</trkpt>
<trkpt lat="-27.277805" lon="151.2965261">
  <ele>463.24</ele>
  <time>2026-09-01T19:55:36Z</time>
  <course>112.7</course>
  <speed>25.575867531718256</speed>
  <fix>3d</fix>
</trkpt>
<trkpt lat="-27.2777863" lon="151.2964766">
  <ele>463.41</ele>
  <time>2026-09-01T19:55:36Z</time>
  <course>113.21</course>
  <speed>25.5</speed>
  <fix>3d</fix>
</trkpt>
<trkpt lat="-27.277814" lon="151.2965497">
  <ele>463.24</ele>
  <time>2026-09-01T19:55:36Z</time>
  <course>112.69</course>
  <speed>25.57980648871293</speed>
  <fix>3d</fix>
</trkpt>
<trkpt lat="-27.2778044" lon="151.2965242">
  <ele>463.4</ele>
  <time>2026-09-01T19:55:36Z</time>
  <course>113.23</course>
  <speed>25.51</speed>
  <fix>3d</fix>
</trkpt>
<trkpt lat="-27.2778231" lon="151.2965734">
  <ele>463.24</ele>
  <time>2026-09-01T19:55:36Z</time>
  <course>112.67</course>
  <speed>25.57061594877996</speed>
  <fix>3d</fix>
</trkpt>
<trkpt lat="-27.2778044" lon="151.2965242">
  <ele>463.4</ele>
  <time>2026-09-01T19:55:36Z</time>
  <course>113.23</course>
  <speed>25.51</speed>
  <fix>3d</fix>
</trkpt>
<trkpt lat="-27.2778321" lon="151.296597">
  <ele>463.23</ele>
  <time>2026-09-01T19:55:36Z</time>
  <course>112.7</course>
  <speed>25.57061594877996</speed>
  <fix>3d</fix>
</trkpt>
<trkpt lat="-27.2778225" lon="151.2965716">
  <ele>463.39</ele>
  <time>2026-09-01T19:55:36Z</time>
  <course>113.25</course>
  <speed>25.52</speed>
  <fix>3d</fix>
</trkpt>
<trkpt lat="-27.2778411" lon="151.2966205">
  <ele>463.23</ele>
  <time>2026-09-01T19:55:36Z</time>
  <course>112.71</course>
  <speed>25.56142601655862</speed>
  <fix>3d</fix>
</trkpt>
<trkpt lat="-27.2778225" lon="151.2965716">
  <ele>463.39</ele>
  <time>2026-09-01T19:55:36Z</time>
  <course>113.25</course>
  <speed>25.52</speed>
  <fix>3d</fix>
</trkpt>
<trkpt lat="-27.2778501" lon="151.2966441">
  <ele>463.23</ele>
  <time>2026-09-01T19:55:36Z</time>
  <course>112.74</course>
  <speed>25.552236692704614</speed>
  <fix>3d</fix>
</trkpt>
<trkpt lat="-27.2778406" lon="151.296619">
  <ele>463.38</ele>
  <time>2026-09-01T19:55:36Z</time>
  <course>113.26</course>
  <speed>25.52</speed>
  <fix>3d</fix>
</trkpt>
<trkpt lat="-27.2778591" lon="151.2966676">
  <ele>463.22</ele>
  <time>2026-09-01T19:55:36Z</time>
  <course>112.75</course>
  <speed>25.543047977874526</speed>
  <fix>3d</fix>
</trkpt>
<trkpt lat="-27.2778406" lon="151.296619">
  <ele>463.38</ele>
  <time>2026-09-01T19:55:36Z</time>
  <course>113.26</course>
  <speed>25.52</speed>
  <fix>3d</fix>
</trkpt>
<trkpt lat="-27.2778681" lon="151.2966912">
  <ele>463.22</ele>
  <time>2026-09-01T19:55:36Z</time>
  <course>112.76</course>
  <speed>25.533859872725863</speed>
  <fix>3d</fix>
</trkpt>
<trkpt lat="-27.2778587" lon="151.2966664">
  <ele>463.38</ele>
  <time>2026-09-01T19:55:36Z</time>
  <course>113.28</course>
  <speed>25.52</speed>
  <fix>3d</fix>
</trkpt>
<trkpt lat="-27.2778771" lon="151.2967148">
  <ele>463.22</ele>
  <time>2026-09-01T19:55:36Z</time>
  <course>112.73</course>
  <speed>25.53780922475536</speed>
  <fix>3d</fix>
</trkpt>
<trkpt lat="-27.2778587" lon="151.2966664">
  <ele>463.38</ele>
  <time>2026-09-01T19:55:36Z</time>
  <course>113.28</course>
  <speed>25.52</speed>
  <fix>3d</fix>
</trkpt>
<trkpt lat="-27.2778862" lon="151.2967385">
  <ele>463.22</ele>
  <time>2026-09-01T19:55:36Z</time>
  <course>112.73</course>
  <speed>25.53780922475536</speed>
  <fix>3d</fix>
</trkpt>
<trkpt lat="-27.2778769" lon="151.2967138">
  <ele>463.38</ele>
  <time>2026-09-01T19:55:36Z</time>
  <course>113.3</course>
  <speed>25.52</speed>
  <fix>3d</fix>
</trkpt>
<trkpt lat="-27.2778953" lon="151.2967623">
  <ele>463.22</ele>
  <time>2026-09-01T19:55:36Z</time>
  <course>112.74</course>
  <speed>25.53780922475536</speed>
  <fix>3d</fix>
</trkpt>
<trkpt lat="-27.2778769" lon="151.2967138">
  <ele>463.38</ele>
  <time>2026-09-01T19:55:36Z</time>
  <course>113.3</course>
  <speed>25.52</speed>
  <fix>3d</fix>
</trkpt>
<trkpt lat="-27.2779044" lon="151.296786">
  <ele>463.22</ele>
  <time>2026-09-01T19:55:36Z</time>
  <course>112.78</course>
  <speed>25.53780922475536</speed>
  <fix>3d</fix>
</trkpt>
<trkpt lat="-27.277895" lon="151.2967611">
  <ele>463.38</ele>
  <time>2026-09-01T19:55:36Z</time>
  <course>113.32</course>
  <speed>25.52</speed>
  <fix>3d</fix>
</trkpt>
<trkpt lat="-27.2779135" lon="151.2968098">
  <ele>463.22</ele>
  <time>2026-09-01T19:55:36Z</time>
  <course>112.75</course>
  <speed>25.550947144871166</speed>
  <fix>3d</fix>
</trkpt>
<trkpt lat="-27.277895" lon="151.2967611">
  <ele>463.38</ele>
  <time>2026-09-01T19:55:36Z</time>
  <course>113.32</course>
  <speed>25.52</speed>
  <fix>3d</fix>
</trkpt>
<trkpt lat="-27.2779226" lon="151.2968335">
  <ele>463.21</ele>
  <time>2026-09-01T19:55:36Z</time>
  <course>112.67</course>
  <speed>25.550947144871166</speed>
  <fix>3d</fix>
</trkpt>
<trkpt lat="-27.2779132" lon="151.2968085">
  <ele>463.37</ele>
  <time>2026-09-01T19:55:36Z</time>
  <course>113.32</course>
  <speed>25.52</speed>
  <fix>3d</fix>
</trkpt>
<trkpt lat="-27.2779317" lon="151.2968573">
  <ele>463.21</ele>
  <time>2026-09-01T19:55:37Z</time>
  <course>112.64</course>
  <speed>25.56013301999816</speed>
  <fix>3d</fix>
</trkpt>
<trkpt lat="-27.2779132" lon="151.2968085">
  <ele>463.37</ele>
  <time>2026-09-01T19:55:37Z</time>
  <course>113.32</course>
  <speed>25.52</speed>
  <fix>3d</fix>
</trkpt>
<trkpt lat="-27.2779408" lon="151.2968811">
  <ele>463.21</ele>
  <time>2026-09-01T19:55:37Z</time>
  <course>112.7</course>
  <speed>25.56013301999816</speed>
  <fix>3d</fix>
</trkpt>
<trkpt lat="-27.2779313" lon="151.2968558">
  <ele>463.37</ele>
  <time>2026-09-01T19:55:37Z</time>
  <course>113.32</course>
  <speed>25.52</speed>
  <fix>3d</fix>
</trkpt>
<trkpt lat="-27.2779499" lon="151.2969049">
  <ele>463.2</ele>
  <time>2026-09-01T19:55:37Z</time>
  <course>112.79</course>
  <speed>25.56931950600172</speed>
  <fix>3d</fix>
</trkpt>
<trkpt lat="-27.2779313" lon="151.2968558">
  <ele>463.37</ele>
  <time>2026-09-01T19:55:37Z</time>
  <course>113.32</course>
  <speed>25.52</speed>
  <fix>3d</fix>
</trkpt>
<trkpt lat="-27.277959" lon="151.2969287">
  <ele>463.2</ele>
  <time>2026-09-01T19:55:37Z</time>
  <course>112.79</course>
  <speed>25.56931950600172</speed>
  <fix>3d</fix>
</trkpt>
<trkpt lat="-27.2779495" lon="151.2969032">
  <ele>463.36</ele>
  <time>2026-09-01T19:55:37Z</time>
  <course>113.32</course>
  <speed>25.52</speed>
  <fix>3d</fix>
</trkpt>
<trkpt lat="-27.2779681" lon="151.2969524">
  <ele>463.2</ele>
  <time>2026-09-01T19:55:37Z</time>
  <course>112.69</course>
  <speed>25.573271202566165</speed>
  <fix>3d</fix>
</trkpt>
<trkpt lat="-27.2779495" lon="151.2969032">
  <ele>463.36</ele>
  <time>2026-09-01T19:55:37Z</time>
  <course>113.32</course>
  <speed>25.52</speed>
  <fix>3d</fix>
</trkpt>
<trkpt lat="-27.2779773" lon="151.2969762">
  <ele>463.2</ele>
  <time>2026-09-01T19:55:37Z</time>
  <course>112.61</course>
  <speed>25.578506602223673</speed>
  <fix>3d</fix>
</trkpt>
<trkpt lat="-27.2779676" lon="151.2969506">
  <ele>463.36</ele>
  <time>2026-09-01T19:55:37Z</time>
  <course>113.32</course>
  <speed>25.53</speed>
  <fix>3d</fix>
</trkpt>
<trkpt lat="-27.2779864" lon="151.297">
  <ele>463.19</ele>
  <time>2026-09-01T19:55:37Z</time>
  <course>112.65</course>
  <speed>25.578506602223673</speed>
  <fix>3d</fix>
</trkpt>
<trkpt lat="-27.2779676" lon="151.2969506">
  <ele>463.36</ele>
  <time>2026-09-01T19:55:37Z</time>
  <course>113.32</course>
  <speed>25.53</speed>
  <fix>3d</fix>
</trkpt>
<trkpt lat="-27.2779955" lon="151.2970238">
  <ele>463.19</ele>
  <time>2026-09-01T19:55:37Z</time>
  <course>112.7</course>
  <speed>25.578506602223673</speed>
  <fix>3d</fix>
</trkpt>
<trkpt lat="-27.2779858" lon="151.2969979">
  <ele>463.35</ele>
  <time>2026-09-01T19:55:37Z</time>
  <course>113.31</course>
  <speed>25.53</speed>
  <fix>3d</fix>
</trkpt>
<trkpt lat="-27.2780046" lon="151.2970475">
  <ele>463.19</ele>
  <time>2026-09-01T19:55:37Z</time>
  <course>112.66</course>
  <speed>25.587694308006732</speed>
  <fix>3d</fix>
</trkpt>
<trkpt lat="-27.2779858" lon="151.2969979">
  <ele>463.35</ele>
  <time>2026-09-01T19:55:37Z</time>
  <course>113.31</course>
  <speed>25.53</speed>
  <fix>3d</fix>
</trkpt>
<trkpt lat="-27.2780136" lon="151.2970711">
  <ele>463.19</ele>
  <time>2026-09-01T19:55:37Z</time>
  <course>112.69</course>
  <speed>25.591643167252858</speed>
  <fix>3d</fix>
</trkpt>
<trkpt lat="-27.278004" lon="151.2970455">
  <ele>463.35</ele>
  <time>2026-09-01T19:55:37Z</time>
  <course>113.31</course>
  <speed>25.53</speed>
  <fix>3d</fix>
</trkpt>
<trkpt lat="-27.2780226" lon="151.2970947">
  <ele>463.18</ele>
  <time>2026-09-01T19:55:37Z</time>
  <course>112.75</course>
  <speed>25.582456879666584</speed>
  <fix>3d</fix>
</trkpt>
<trkpt lat="-27.278004" lon="151.2970455">
  <ele>463.35</ele>
  <time>2026-09-01T19:55:37Z</time>
  <course>113.31</course>
  <speed>25.53</speed>
  <fix>3d</fix>
</trkpt>
<trkpt lat="-27.2780318" lon="151.2971187">
  <ele>463.18</ele>
  <time>2026-09-01T19:55:37Z</time>
  <course>112.78</course>
  <speed>25.582456879666584</speed>
  <fix>3d</fix>
</trkpt>
<trkpt lat="-27.2780222" lon="151.297093">
  <ele>463.34</ele>
  <time>2026-09-01T19:55:37Z</time>
  <course>113.32</course>
  <speed>25.53</speed>
  <fix>3d</fix>
</trkpt>
<trkpt lat="-27.2780408" lon="151.2971421">
  <ele>463.19</ele>
  <time>2026-09-01T19:55:37Z</time>
  <course>112.76</course>
  <speed>25.564086136609696</speed>
  <fix>3d</fix>
</trkpt>
<trkpt lat="-27.2780222" lon="151.297093">
  <ele>463.34</ele>
  <time>2026-09-01T19:55:37Z</time>
  <course>113.32</course>
  <speed>25.53</speed>
  <fix>3d</fix>
</trkpt>
<trkpt lat="-27.2780498" lon="151.2971656">
  <ele>463.19</ele>
  <time>2026-09-01T19:55:37Z</time>
  <course>112.69</course>
  <speed>25.554901682456148</speed>
  <fix>3d</fix>
</trkpt>
<trkpt lat="-27.2780403" lon="151.2971404">
  <ele>463.34</ele>
  <time>2026-09-01T19:55:37Z</time>
  <course>113.34</course>
  <speed>25.53</speed>
  <fix>3d</fix>
</trkpt>
<trkpt lat="-27.2780588" lon="151.2971891">
  <ele>463.19</ele>
  <time>2026-09-01T19:55:37Z</time>
  <course>112.63</course>
  <speed>25.541761881279843</speed>
  <fix>3d</fix>
</trkpt>
<trkpt lat="-27.2780403" lon="151.2971404">
  <ele>463.34</ele>
  <time>2026-09-01T19:55:37Z</time>
  <course>113.34</course>
  <speed>25.53</speed>
  <fix>3d</fix>
</trkpt>
<trkpt lat="-27.2780678" lon="151.2972126">
  <ele>463.19</ele>
  <time>2026-09-01T19:55:37Z</time>
  <course>112.49</course>
  <speed>25.529913826724915</speed>
  <fix>3d</fix>
</trkpt>
<trkpt lat="-27.2780585" lon="151.2971877">
  <ele>463.34</ele>
  <time>2026-09-01T19:55:37Z</time>
  <course>113.32</course>
  <speed>25.53</speed>
  <fix>3d</fix>
</trkpt>
<trkpt lat="-27.2780768" lon="151.2972361">
  <ele>463.19</ele>
  <time>2026-09-01T19:55:37Z</time>
  <course>112.36</course>
  <speed>25.51942985256528</speed>
  <fix>3d</fix>
</trkpt>
<trkpt lat="-27.2780585" lon="151.2971877">
  <ele>463.34</ele>
  <time>2026-09-01T19:55:37Z</time>
  <course>113.32</course>
  <speed>25.53</speed>
  <fix>3d</fix>
</trkpt>
<trkpt lat="-27.2780857" lon="151.2972597">
  <ele>463.19</ele>
  <time>2026-09-01T19:55:37Z</time>
  <course>112.2</course>
  <speed>25.506542298006604</speed>
  <fix>3d</fix>
</trkpt>
<trkpt lat="-27.2780766" lon="151.297235">
  <ele>463.35</ele>
  <time>2026-09-01T19:55:37Z</time>
  <course>113.15</course>
  <speed>25.52</speed>
  <fix>3d</fix>
</trkpt>
<trkpt lat="-27.2780946" lon="151.2972834">
  <ele>463.19</ele>
  <time>2026-09-01T19:55:37Z</time>
  <course>112.02</course>
  <speed>25.513862898432293</speed>
  <fix>3d</fix>
</trkpt>
<trkpt lat="-27.2780766" lon="151.297235">
  <ele>463.35</ele>
  <time>2026-09-01T19:55:37Z</time>
  <course>113.15</course>
  <speed>25.52</speed>
  <fix>3d</fix>
</trkpt>
<trkpt lat="-27.2781034" lon="151.2973071">
  <ele>463.19</ele>
  <time>2026-09-01T19:55:37Z</time>
  <course>111.83</course>
  <speed>25.50643252201295</speed>
  <fix>3d</fix>
</trkpt>
<trkpt lat="-27.2780945" lon="151.2972826">
  <ele>463.35</ele>
  <time>2026-09-01T19:55:37Z</time>
  <course>112.72</course>
  <speed>25.52</speed>
  <fix>3d</fix>
</trkpt>
<trkpt lat="-27.278112" lon="151.2973309">
  <ele>463.19</ele>
  <time>2026-09-01T19:55:37Z</time>
  <course>111.58</course>
  <speed>25.50345074690874</speed>
  <fix>3d</fix>
</trkpt>
<trkpt lat="-27.2780945" lon="151.2972826">
  <ele>463.35</ele>
  <time>2026-09-01T19:55:37Z</time>
  <course>112.72</course>
  <speed>25.52</speed>
  <fix>3d</fix>
</trkpt>
<trkpt lat="-27.2781204" lon="151.2973547">
  <ele>463.19</ele>
  <time>2026-09-01T19:55:37Z</time>
  <course>111.3</course>
  <speed>25.503921267130668</speed>
  <fix>3d</fix>
</trkpt>
<trkpt lat="-27.278112" lon="151.2973303">
  <ele>463.34</ele>
  <time>2026-09-01T19:55:37Z</time>
  <course>111.99</course>
  <speed>25.53</speed>
  <fix>3d</fix>
</trkpt>
<trkpt lat="-27.2781287" lon="151.2973787">
  <ele>463.19</ele>
  <time>2026-09-01T19:55:37Z</time>
  <course>110.85</course>
  <speed>25.501280360013297</speed>
  <fix>3d</fix>
</trkpt>
<trkpt lat="-27.278112" lon="151.2973303">
  <ele>463.34</ele>
  <time>2026-09-01T19:55:37Z</time>
  <course>111.99</course>
  <speed>25.53</speed>
  <fix>3d</fix>
</trkpt>
<trkpt lat="-27.2781367" lon="151.2974028">
  <ele>463.19</ele>
  <time>2026-09-01T19:55:37Z</time>
  <course>110.33</course>
  <speed>25.502699857073956</speed>
  <fix>3d</fix>
</trkpt>
<trkpt lat="-27.2781288" lon="151.2973783">
  <ele>463.34</ele>
  <time>2026-09-01T19:55:37Z</time>
  <course>110.92</course>
  <speed>25.53</speed>
  <fix>3d</fix>
</trkpt>
<trkpt lat="-27.2781445" lon="151.297427">
  <ele>463.19</ele>
  <time>2026-09-01T19:55:37Z</time>
  <course>109.69</course>
  <speed>25.50734208027171</speed>
  <fix>3d</fix>
</trkpt>
<trkpt lat="-27.2781288" lon="151.2973783">
  <ele>463.34</ele>
  <time>2026-09-01T19:55:37Z</time>
  <course>110.92</course>
  <speed>25.53</speed>
  <fix>3d</fix>
</trkpt>
<trkpt lat="-27.278152" lon="151.2974513">
  <ele>463.19</ele>
  <time>2026-09-01T19:55:37Z</time>
  <course>109.03</course>
  <speed>25.506995118986477</speed>
  <fix>3d</fix>
</trkpt>
<trkpt lat="-27.2781446" lon="151.2974267">
  <ele>463.34</ele>
  <time>2026-09-01T19:55:37Z</time>
  <course>109.51</course>
  <speed>25.54</speed>
  <fix>3d</fix>
</trkpt>
<trkpt lat="-27.2781591" lon="151.2974758">
  <ele>463.19</ele>
  <time>2026-09-01T19:55:37Z</time>
  <course>108.3</course>
  <speed>25.52195133605579</speed>
  <fix>3d</fix>
</trkpt>
<trkpt lat="-27.2781446" lon="151.2974267">
  <ele>463.34</ele>
  <time>2026-09-01T19:55:37Z</time>
  <course>109.51</course>
  <speed>25.54</speed>
  <fix>3d</fix>
</trkpt>
<trkpt lat="-27.2781659" lon="151.2975004">
  <ele>463.19</ele>
  <time>2026-09-01T19:55:37Z</time>
  <course>107.37</course>
  <speed>25.53182327997748</speed>
  <fix>3d</fix>
</trkpt>
<trkpt lat="-27.2781593" lon="151.2974757">
  <ele>463.34</ele>
  <time>2026-09-01T19:55:37Z</time>
  <course>107.77</course>
  <speed>25.56</speed>
  <fix>3d</fix>
</trkpt>
<trkpt lat="-27.2781723" lon="151.2975252">
  <ele>463.2</ele>
  <time>2026-09-01T19:55:37Z</time>
  <course>106.32</course>
  <speed>25.535906093185726</speed>
  <fix>3d</fix>
</trkpt>
<trkpt lat="-27.2781593" lon="151.2974757">
  <ele>463.34</ele>
  <time>2026-09-01T19:55:37Z</time>
  <course>107.77</course>
  <speed>25.56</speed>
  <fix>3d</fix>
</trkpt>
<trkpt lat="-27.2781782" lon="151.2975501">
  <ele>463.2</ele>
  <time>2026-09-01T19:55:37Z</time>
  <course>105.25</course>
  <speed>25.549131100685205</speed>
  <fix>3d</fix>
</trkpt>
<trkpt lat="-27.2781726" lon="151.2975253">
  <ele>463.34</ele>
  <time>2026-09-01T19:55:37Z</time>
  <course>105.69</course>
  <speed>25.59</speed>
  <fix>3d</fix>
</trkpt>
<trkpt lat="-27.2781837" lon="151.2975748">
  <ele>463.21</ele>
  <time>2026-09-01T19:55:37Z</time>
  <course>104.08</course>
  <speed>25.554572976279605</speed>
  <fix>3d</fix>
</trkpt>
<trkpt lat="-27.2781726" lon="151.2975253">
  <ele>463.34</ele>
  <time>2026-09-01T19:55:37Z</time>
  <course>105.69</course>
  <speed>25.59</speed>
  <fix>3d</fix>
</trkpt>
<trkpt lat="-27.2781886" lon="151.2976">
  <ele>463.22</ele>
  <time>2026-09-01T19:55:37Z</time>
  <course>102.81</course>
  <speed>25.550592948109834</speed>
  <fix>3d</fix>
</trkpt>
<trkpt lat="-27.2781841" lon="151.2975755">
  <ele>463.36</ele>
  <time>2026-09-01T19:55:37Z</time>
  <course>103.22</course>
  <speed>25.62</speed>
  <fix>3d</fix>
</trkpt>
<trkpt lat="-27.278193" lon="151.2976251">
  <ele>463.24</ele>
  <time>2026-09-01T19:55:37Z</time>
  <course>101.48</course>
  <speed>25.55826676439543</speed>
  <fix>3d</fix>
</trkpt>
<trkpt lat="-27.2781841" lon="151.2975755">
  <ele>463.36</ele>
  <time>2026-09-01T19:55:37Z</time>
  <course>103.22</course>
  <speed>25.62</speed>
  <fix>3d</fix>
</trkpt>
<trkpt lat="-27.2781968" lon="151.2976505">
  <ele>463.26</ele>
  <time>2026-09-01T19:55:37Z</time>
  <course>100.0</course>
  <speed>25.56613580500581</speed>
  <fix>3d</fix>
</trkpt>
<trkpt lat="-27.2781936" lon="151.2976262">
  <ele>463.39</ele>
  <time>2026-09-01T19:55:37Z</time>
  <course>100.41</course>
  <speed>25.65</speed>
  <fix>3d</fix>
</trkpt>
<trkpt lat="-27.2782" lon="151.2976761">
  <ele>463.28</ele>
  <time>2026-09-01T19:55:37Z</time>
  <course>98.43</course>
  <speed>25.575965279926386</speed>
  <fix>3d</fix>
</trkpt>
<trkpt lat="-27.2781936" lon="151.2976262">
  <ele>463.39</ele>
  <time>2026-09-01T19:55:37Z</time>
  <course>100.41</course>
  <speed>25.65</speed>
  <fix>3d</fix>
</trkpt>
<trkpt lat="-27.2782026" lon="151.2977016">
  <ele>463.31</ele>
  <time>2026-09-01T19:55:37Z</time>
  <course>96.82</course>
  <speed>25.584708323527945</speed>
  <fix>3d</fix>
</trkpt>
<trkpt lat="-27.2782007" lon="151.2976774">
  <ele>463.43</ele>
  <time>2026-09-01T19:55:37Z</time>
  <course>97.28</course>
  <speed>25.68</speed>
  <fix>3d</fix>
</trkpt>
<trkpt lat="-27.2782045" lon="151.2977272">
  <ele>463.34</ele>
  <time>2026-09-01T19:55:37Z</time>
  <course>95.07</course>
  <speed>25.602579948122415</speed>
  <fix>3d</fix>
</trkpt>
<trkpt lat="-27.2782007" lon="151.2976774">
  <ele>463.43</ele>
  <time>2026-09-01T19:55:37Z</time>
  <course>97.28</course>
  <speed>25.68</speed>
  <fix>3d</fix>
</trkpt>
<trkpt lat="-27.2782056" lon="151.297753">
  <ele>463.38</ele>
  <time>2026-09-01T19:55:37Z</time>
  <course>93.35</course>
  <speed>25.613451544061764</speed>
  <fix>3d</fix>
</trkpt>
<trkpt lat="-27.2782052" lon="151.2977291">
  <ele>463.49</ele>
  <time>2026-09-01T19:55:37Z</time>
  <course>93.86</course>
  <speed>25.72</speed>
  <fix>3d</fix>
</trkpt>
<trkpt lat="-27.2782061" lon="151.2977787">
  <ele>463.42</ele>
  <time>2026-09-01T19:55:37Z</time>
  <course>91.58</course>
  <speed>25.630001950838786</speed>
  <fix>3d</fix>
</trkpt>
<trkpt lat="-27.2782052" lon="151.2977291">
  <ele>463.49</ele>
  <time>2026-09-01T19:55:37Z</time>
  <course>93.86</course>
  <speed>25.72</speed>
  <fix>3d</fix>
</trkpt>
<trkpt lat="-27.2782058" lon="151.2978048">
  <ele>463.47</ele>
  <time>2026-09-01T19:55:37Z</time>
  <course>89.68</course>
  <speed>25.644090937290017</speed>
  <fix>3d</fix>
</trkpt>
<trkpt lat="-27.2782068" lon="151.297781">
  <ele>463.57</ele>
  <time>2026-09-01T19:55:37Z</time>
  <course>90.22</course>
  <speed>25.77</speed>
  <fix>3d</fix>
</trkpt>
<trkpt lat="-27.2782048" lon="151.2978306">
  <ele>463.52</ele>
  <time>2026-09-01T19:55:37Z</time>
  <course>87.85</course>
  <speed>25.657047764698106</speed>
  <fix>3d</fix>
</trkpt>
<trkpt lat="-27.2782068" lon="151.297781">
  <ele>463.57</ele>
  <time>2026-09-01T19:55:37Z</time>
  <course>90.22</course>
  <speed>25.77</speed>
  <fix>3d</fix>
</trkpt>
<trkpt lat="-27.2782029" lon="151.2978564">
  <ele>463.57</ele>
  <time>2026-09-01T19:55:37Z</time>
  <course>86.02</course>
  <speed>25.670989462815804</speed>
  <fix>3d</fix>
</trkpt>
<trkpt lat="-27.2782055" lon="151.2978331">
  <ele>463.66</ele>
  <time>2026-09-01T19:55:37Z</time>
  <course>86.4</course>
  <speed>25.81</speed>
  <fix>3d</fix>
</trkpt>
<trkpt lat="-27.2782003" lon="151.2978824">
  <ele>463.63</ele>
  <time>2026-09-01T19:55:37Z</time>
  <course>84.14</course>
  <speed>25.692685729600168</speed>
  <fix>3d</fix>
</trkpt>
<trkpt lat="-27.2782055" lon="151.2978331">
  <ele>463.66</ele>
  <time>2026-09-01T19:55:37Z</time>
  <course>86.4</course>
  <speed>25.81</speed>
  <fix>3d</fix>
</trkpt>
<trkpt lat="-27.278197" lon="151.2979082">
  <ele>463.69</ele>
  <time>2026-09-01T19:55:37Z</time>
  <course>82.25</course>
  <speed>25.71546033031491</speed>
  <fix>3d</fix>
</trkpt>
<trkpt lat="-27.278201" lon="151.2978851">
  <ele>463.78</ele>
  <time>2026-09-01T19:55:37Z</time>
  <course>82.51</course>
  <speed>25.84</speed>
  <fix>3d</fix>
</trkpt>
<trkpt lat="-27.2781928" lon="151.2979339">
  <ele>463.76</ele>
  <time>2026-09-01T19:55:37Z</time>
  <course>80.46</course>
  <speed>25.71507340063411</speed>
  <fix>3d</fix>
</trkpt>
<trkpt lat="-27.278201" lon="151.2978851">
  <ele>463.78</ele>
  <time>2026-09-01T19:55:37Z</time>
  <course>82.51</course>
  <speed>25.84</speed>
  <fix>3d</fix>
</trkpt>
<trkpt lat="-27.2781879" lon="151.2979593">
  <ele>463.83</ele>
  <time>2026-09-01T19:55:37Z</time>
  <course>78.69</course>
  <speed>25.727038306031265</speed>
  <fix>3d</fix>
</trkpt>
<trkpt lat="-27.2781935" lon="151.2979366">
  <ele>463.9</ele>
  <time>2026-09-01T19:55:37Z</time>
  <course>78.66</course>
  <speed>25.86</speed>
  <fix>3d</fix>
</trkpt>
<trkpt lat="-27.2781823" lon="151.2979846">
  <ele>463.9</ele>
  <time>2026-09-01T19:55:37Z</time>
  <course>77.05</course>
  <speed>25.72674289528311</speed>
  <fix>3d</fix>
</trkpt>
<trkpt lat="-27.2781935" lon="151.2979366">
  <ele>463.9</ele>
  <time>2026-09-01T19:55:37Z</time>
  <course>78.66</course>
  <speed>25.86</speed>
  <fix>3d</fix>
</trkpt>
<trkpt lat="-27.278176" lon="151.2980097">
  <ele>463.98</ele>
  <time>2026-09-01T19:55:37Z</time>
  <course>75.55</course>
  <speed>25.721634862504366</speed>
  <fix>3d</fix>
</trkpt>
<trkpt lat="-27.2781829" lon="151.2979875">
  <ele>464.03</ele>
  <time>2026-09-01T19:55:37Z</time>
  <course>75.01</course>
  <speed>25.86</speed>
  <fix>3d</fix>
</trkpt>
<trkpt lat="-27.2781758" lon="151.2980105">
  <ele>463.98</ele>
  <time>2026-09-01T19:55:37Z</time>
  <course>75.5</course>
  <speed>25.720810640413337</speed>
  <fix>3d</fix>
</trkpt>
<trkpt lat="-27.2781691" lon="151.2980346">
  <ele>464.06</ele>
  <time>2026-09-01T19:55:37Z</time>
  <course>74.2</course>
  <speed>25.709317377168922</speed>
  <fix>3d</fix>
</trkpt>
<trkpt lat="-27.2781829" lon="151.2979875">
  <ele>464.03</ele>
  <time>2026-09-01T19:55:37Z</time>
  <course>75.01</course>
  <speed>25.86</speed>
  <fix>3d</fix>
</trkpt>
<trkpt lat="-27.2781617" lon="151.2980592">
  <ele>464.14</ele>
  <time>2026-09-01T19:55:37Z</time>
  <course>73.1</course>
  <speed>25.684723085912374</speed>
  <fix>3d</fix>
</trkpt>
<trkpt lat="-27.2781696" lon="151.2980375">
  <ele>464.18</ele>
  <time>2026-09-01T19:55:37Z</time>
  <course>71.8</course>
  <speed>25.83</speed>
  <fix>3d</fix>
</trkpt>
<trkpt lat="-27.2781538" lon="151.2980836">
  <ele>464.21</ele>
  <time>2026-09-01T19:55:37Z</time>
  <course>72.29</course>
  <speed>25.649908381902655</speed>
  <fix>3d</fix>
</trkpt>
<trkpt lat="-27.2781696" lon="151.2980375">
  <ele>464.18</ele>
  <time>2026-09-01T19:55:37Z</time>
  <course>71.8</course>
  <speed>25.83</speed>
  <fix>3d</fix>
</trkpt>
<trkpt lat="-27.2781456" lon="151.2981077">
  <ele>464.28</ele>
  <time>2026-09-01T19:55:37Z</time>
  <course>71.82</course>
  <speed>25.607469613376484</speed>
  <fix>3d</fix>
</trkpt>
<trkpt lat="-27.2781541" lon="151.2980868">
  <ele>464.33</ele>
  <time>2026-09-01T19:55:37Z</time>
  <course>69.35</course>
  <speed>25.76</speed>
  <fix>3d</fix>
</trkpt>
<trkpt lat="-27.2781371" lon="151.298132">
  <ele>464.34</ele>
  <time>2026-09-01T19:55:37Z</time>
  <course>71.73</course>
  <speed>25.56324118729861</speed>
  <fix>3d</fix>
</trkpt>
<trkpt lat="-27.2781541" lon="151.2980868">
  <ele>464.33</ele>
  <time>2026-09-01T19:55:37Z</time>
  <course>69.35</course>
  <speed>25.76</speed>
  <fix>3d</fix>
</trkpt>
<trkpt lat="-27.2781354" lon="151.2981368">
  <ele>464.35</ele>
  <time>2026-09-01T19:55:37Z</time>
  <course>71.74</course>
  <speed>25.552262130778168</speed>
  <fix>3d</fix>
</trkpt>
<trkpt lat="-27.2781285" lon="151.2981561">
  <ele>464.38</ele>
  <time>2026-09-01T19:55:37Z</time>
  <course>71.74</course>
  <speed>25.505971849745308</speed>
  <fix>3d</fix>
</trkpt>
<trkpt lat="-27.2781371" lon="151.2981352">
  <ele>464.45</ele>
  <time>2026-09-01T19:55:37Z</time>
  <course>68.03</course>
  <speed>25.66</speed>
  <fix>3d</fix>
</trkpt>
<trkpt lat="-27.2781281" lon="151.2981571">
  <ele>464.39</ele>
  <time>2026-09-01T19:55:37Z</time>
  <course>71.73</course>
  <speed>25.502190102028493</speed>
  <fix>3d</fix>
</trkpt>
<trkpt lat="-27.2781199" lon="151.2981803">
  <ele>464.41</ele>
  <time>2026-09-01T19:55:37Z</time>
  <course>71.41</course>
  <speed>25.46260984266931</speed>
  <fix>3d</fix>
</trkpt>
<trkpt lat="-27.2781371" lon="151.2981352">
  <ele>464.45</ele>
  <time>2026-09-01T19:55:37Z</time>
  <course>68.03</course>
  <speed>25.66</speed>
  <fix>3d</fix>
</trkpt>
<trkpt lat="-27.2781184" lon="151.2981845">
  <ele>464.41</ele>
  <time>2026-09-01T19:55:37Z</time>
  <course>71.31</course>
  <speed>25.447697341802854</speed>
  <fix>3d</fix>
</trkpt>
<trkpt lat="-27.2781114" lon="151.2982046">
  <ele>464.39</ele>
  <time>2026-09-01T19:55:37Z</time>
  <course>70.66</course>
  <speed>25.40187788333768</speed>
  <fix>3d</fix>
</trkpt>
<trkpt lat="-27.2781199" lon="151.2981832">
  <ele>464.5</ele>
  <time>2026-09-01T19:55:37Z</time>
  <course>68.07</course>
  <speed>25.53</speed>
  <fix>3d</fix>
</trkpt>
<trkpt lat="-27.278109" lon="151.2982119">
  <ele>464.38</ele>
  <time>2026-09-01T19:55:37Z</time>
  <course>70.4</course>
  <speed>25.387817944833305</speed>
  <fix>3d</fix>
</trkpt>
<trkpt lat="-27.2781033" lon="151.2982287">
  <ele>464.34</ele>
  <time>2026-09-01T19:55:37Z</time>
  <course>69.84</course>
  <speed>25.355867171130235</speed>
  <fix>3d</fix>
</trkpt>
<trkpt lat="-27.2781199" lon="151.2981832">
  <ele>464.5</ele>
  <time>2026-09-01T19:55:37Z</time>
  <course>68.07</course>
  <speed>25.53</speed>
  <fix>3d</fix>
</trkpt>
<trkpt lat="-27.2781009" lon="151.298236">
  <ele>464.31</ele>
  <time>2026-09-01T19:55:37Z</time>
  <course>69.65</course>
  <speed>25.33943961495597</speed>
  <fix>3d</fix>
</trkpt>
<trkpt lat="-27.2780954" lon="151.2982529">
  <ele>464.23</ele>
  <time>2026-09-01T19:55:37Z</time>
  <course>69.37</course>
  <speed>25.324936327659344</speed>
  <fix>3d</fix>
</trkpt>
<trkpt lat="-27.2781031" lon="151.2982311">
  <ele>464.43</ele>
  <time>2026-09-01T19:55:37Z</time>
  <course>69.18</course>
  <speed>25.4</speed>
  <fix>3d</fix>
</trkpt>
<trkpt lat="-27.2780928" lon="151.298261">
  <ele>464.19</ele>
  <time>2026-09-01T19:55:37Z</time>
  <course>69.35</course>
  <speed>25.315434027486077</speed>
  <fix>3d</fix>
</trkpt>
<trkpt lat="-27.2780879" lon="151.2982773">
  <ele>464.09</ele>
  <time>2026-09-01T19:55:37Z</time>
  <course>69.51</course>
  <speed>25.320870838105076</speed>
  <fix>3d</fix>
</trkpt>
<trkpt lat="-27.2781031" lon="151.2982311">
  <ele>464.43</ele>
  <time>2026-09-01T19:55:37Z</time>
  <course>69.18</course>
  <speed>25.4</speed>
  <fix>3d</fix>
</trkpt>
<trkpt lat="-27.2780857" lon="151.2982847">
  <ele>464.04</ele>
  <time>2026-09-01T19:55:37Z</time>
  <course>69.64</course>
  <speed>25.320357422437784</speed>
  <fix>3d</fix>
</trkpt>
<trkpt lat="-27.2780807" lon="151.2983018">
  <ele>463.92</ele>
  <time>2026-09-01T19:55:37Z</time>
  <course>70.11</course>
  <speed>25.329668375247238</speed>
  <fix>3d</fix>
</trkpt>
<trkpt lat="-27.2780877" lon="151.2982793">
  <ele>464.2</ele>
  <time>2026-09-01T19:55:37Z</time>
  <course>71.06</course>
  <speed>25.34</speed>
  <fix>3d</fix>
</trkpt>
<trkpt lat="-27.2780789" lon="151.2983084">
  <ele>463.88</ele>
  <time>2026-09-01T19:55:37Z</time>
  <course>70.33</course>
  <speed>25.332589682067642</speed>
  <fix>3d</fix>
</trkpt>
<trkpt lat="-27.2780741" lon="151.2983265">
  <ele>463.75</ele>
  <time>2026-09-01T19:55:37Z</time>
  <course>71.02</course>
  <speed>25.358408861756292</speed>
  <fix>3d</fix>
</trkpt>
<trkpt lat="-27.2780877" lon="151.2982793">
  <ele>464.2</ele>
  <time>2026-09-01T19:55:37Z</time>
  <course>71.06</course>
  <speed>25.34</speed>
  <fix>3d</fix>
</trkpt>
<trkpt lat="-27.2780722" lon="151.2983339">
  <ele>463.7</ele>
  <time>2026-09-01T19:55:37Z</time>
  <course>71.33</course>
  <speed>25.359576100558147</speed>
  <fix>3d</fix>
</trkpt>
<trkpt lat="-27.278068" lon="151.2983513">
  <ele>463.58</ele>
  <time>2026-09-01T19:55:37Z</time>
  <course>72.07</course>
  <speed>25.386856835772324</speed>
  <fix>3d</fix>
</trkpt>
<trkpt lat="-27.2780738" lon="151.2983281">
  <ele>463.88</ele>
  <time>2026-09-01T19:55:37Z</time>
  <course>73.51</course>
  <speed>25.34</speed>
  <fix>3d</fix>
</trkpt>
<trkpt lat="-27.2780679" lon="151.2983519">
  <ele>463.57</ele>
  <time>2026-09-01T19:55:37Z</time>
  <course>72.1</course>
  <speed>25.384282538610382</speed>
  <fix>3d</fix>
</trkpt>
<trkpt lat="-27.2780623" lon="151.2983762">
  <ele>463.4</ele>
  <time>2026-09-01T19:55:37Z</time>
  <course>73.09</course>
  <speed>25.40578280628251</speed>
  <fix>3d</fix>
</trkpt>
<trkpt lat="-27.2780738" lon="151.2983281">
  <ele>463.88</ele>
  <time>2026-09-01T19:55:37Z</time>
  <course>73.51</course>
  <speed>25.34</speed>
  <fix>3d</fix>
</trkpt>
<trkpt lat="-27.2780622" lon="151.2983768">
  <ele>463.4</ele>
  <time>2026-09-01T19:55:37Z</time>
  <course>73.11</course>
  <speed>25.413106854534732</speed>
  <fix>3d</fix>
</trkpt>
<trkpt lat="-27.278057" lon="151.2984012">
  <ele>463.23</ele>
  <time>2026-09-01T19:55:37Z</time>
  <course>73.94</course>
  <speed>25.424879547403958</speed>
  <fix>3d</fix>
</trkpt>
<trkpt lat="-27.2780618" lon="151.2983775">
  <ele>463.53</ele>
  <time>2026-09-01T19:55:37Z</time>
  <course>75.85</course>
  <speed>25.38</speed>
  <fix>3d</fix>
</trkpt>
<trkpt lat="-27.2780555" lon="151.2984087">
  <ele>463.18</ele>
  <time>2026-09-01T19:55:37Z</time>
  <course>74.17</course>
  <speed>25.424397731313125</speed>
  <fix>3d</fix>
</trkpt>
<trkpt lat="-27.278052" lon="151.2984262">
  <ele>463.05</ele>
  <time>2026-09-01T19:55:37Z</time>
  <course>74.67</course>
  <speed>25.432078169115474</speed>
  <fix>3d</fix>
</trkpt>
<trkpt lat="-27.2780618" lon="151.2983775">
  <ele>463.53</ele>
  <time>2026-09-01T19:55:37Z</time>
  <course>75.85</course>
  <speed>25.38</speed>
  <fix>3d</fix>
</trkpt>
<trkpt lat="-27.2780518" lon="151.2984271">
  <ele>463.05</ele>
  <time>2026-09-01T19:55:37Z</time>
  <course>74.69</course>
  <speed>25.429952811596014</speed>
  <fix>3d</fix>
</trkpt>
<trkpt lat="-27.2780472" lon="151.2984513">
  <ele>462.87</ele>
  <time>2026-09-01T19:55:37Z</time>
  <course>75.24</course>
  <speed>25.427388776671506</speed>
  <fix>3d</fix>
</trkpt>
<trkpt lat="-27.2780513" lon="151.2984274">
  <ele>463.18</ele>
  <time>2026-09-01T19:55:37Z</time>
  <course>77.45</course>
  <speed>25.4</speed>
  <fix>3d</fix>
</trkpt>
<trkpt lat="-27.278047" lon="151.2984522">
  <ele>462.86</ele>
  <time>2026-09-01T19:55:37Z</time>
  <course>75.25</course>
  <speed>25.427388776671506</speed>
  <fix>3d</fix>
</trkpt>
<trkpt lat="-27.2780425" lon="151.2984767">
  <ele>462.66</ele>
  <time>2026-09-01T19:55:37Z</time>
  <course>75.68</course>
  <speed>25.422716219947862</speed>
  <fix>3d</fix>
</trkpt>
<trkpt lat="-27.2780513" lon="151.2984274">
  <ele>463.18</ele>
  <time>2026-09-01T19:55:37Z</time>
  <course>77.45</course>
  <speed>25.4</speed>
  <fix>3d</fix>
</trkpt>
<trkpt lat="-27.2780411" lon="151.2984842">
  <ele>462.6</ele>
  <time>2026-09-01T19:55:37Z</time>
  <course>75.8</course>
  <speed>25.41872734815809</speed>
  <fix>3d</fix>
</trkpt>
<trkpt lat="-27.2780379" lon="151.2985018">
  <ele>462.44</ele>
  <time>2026-09-01T19:55:37Z</time>
  <course>76.07</course>
  <speed>25.412772379258428</speed>
  <fix>3d</fix>
</trkpt>
<trkpt lat="-27.2780417" lon="151.2984776">
  <ele>462.78</ele>
  <time>2026-09-01T19:55:37Z</time>
  <course>78.25</course>
  <speed>25.39</speed>
  <fix>3d</fix>
</trkpt>
<trkpt lat="-27.2780365" lon="151.2985093">
  <ele>462.37</ele>
  <time>2026-09-01T19:55:37Z</time>
  <course>76.19</course>
  <speed>25.404952273129744</speed>
  <fix>3d</fix>
</trkpt>
<trkpt lat="-27.2780333" lon="151.2985269">
  <ele>462.19</ele>
  <time>2026-09-01T19:55:37Z</time>
  <course>76.48</course>
  <speed>25.39912793778558</speed>
  <fix>3d</fix>
</trkpt>
<trkpt lat="-27.2780417" lon="151.2984776">
  <ele>462.78</ele>
  <time>2026-09-01T19:55:37Z</time>
  <course>78.25</course>
  <speed>25.39</speed>
  <fix>3d</fix>
</trkpt>
<trkpt lat="-27.2780319" lon="151.2985345">
  <ele>462.11</ele>
  <time>2026-09-01T19:55:37Z</time>
  <course>76.59</course>
  <speed>25.39332195676651</speed>
  <fix>3d</fix>
</trkpt>
<trkpt lat="-27.2780287" lon="151.298552">
  <ele>461.92</ele>
  <time>2026-09-01T19:55:37Z</time>
  <course>76.83</course>
  <speed>25.387833700416426</speed>
  <fix>3d</fix>
</trkpt>
<trkpt lat="-27.2780326" lon="151.2985279">
  <ele>462.33</ele>
  <time>2026-09-01T19:55:37Z</time>
  <course>78.35</course>
  <speed>25.37</speed>
  <fix>3d</fix>
</trkpt>
<trkpt lat="-27.2780273" lon="151.2985596">
  <ele>461.83</ele>
  <time>2026-09-01T19:55:37Z</time>
  <course>76.93</course>
  <speed>25.386189158674448</speed>
  <fix>3d</fix>
</trkpt>
<trkpt lat="-27.2780239" lon="151.2985772">
  <ele>461.62</ele>
  <time>2026-09-01T19:55:37Z</time>
  <course>77.13</course>
  <speed>25.389346190873052</speed>
  <fix>3d</fix>
</trkpt>
<trkpt lat="-27.2780326" lon="151.2985279">
  <ele>462.33</ele>
  <time>2026-09-01T19:55:37Z</time>
  <course>78.35</course>
  <speed>25.37</speed>
  <fix>3d</fix>
</trkpt>
<trkpt lat="-27.2780238" lon="151.298578">
  <ele>461.61</ele>
  <time>2026-09-01T19:55:37Z</time>
  <course>77.14</course>
  <speed>25.391435563984956</speed>
  <fix>3d</fix>
</trkpt>
<trkpt lat="-27.278019" lon="151.2986022">
  <ele>461.3</ele>
  <time>2026-09-01T19:55:37Z</time>
  <course>77.29</course>
  <speed>25.39279622255099</speed>
  <fix>3d</fix>
</trkpt>
<trkpt lat="-27.2780232" lon="151.2985781">
  <ele>461.77</ele>
  <time>2026-09-01T19:55:37Z</time>
  <course>77.85</course>
  <speed>25.35</speed>
  <fix>3d</fix>
</trkpt>
<trkpt lat="-27.2780189" lon="151.2986031">
  <ele>461.29</ele>
  <time>2026-09-01T19:55:37Z</time>
  <course>77.3</course>
  <speed>25.394964067704446</speed>
  <fix>3d</fix>
</trkpt>
<trkpt lat="-27.278014" lon="151.298627">
  <ele>460.97</ele>
  <time>2026-09-01T19:55:37Z</time>
  <course>77.27</course>
  <speed>25.406890797576942</speed>
  <fix>3d</fix>
</trkpt>
<trkpt lat="-27.2780232" lon="151.2985781">
  <ele>461.77</ele>
  <time>2026-09-01T19:55:37Z</time>
  <course>77.85</course>
  <speed>25.35</speed>
  <fix>3d</fix>
</trkpt>
<trkpt lat="-27.2780138" lon="151.298628">
  <ele>460.96</ele>
  <time>2026-09-01T19:55:37Z</time>
  <course>77.26</course>
  <speed>25.401677109986263</speed>
  <fix>3d</fix>
</trkpt>
<trkpt lat="-27.2780087" lon="151.2986519">
  <ele>460.62</ele>
  <time>2026-09-01T19:55:37Z</time>
  <course>77.0</course>
  <speed>25.42777221858022</speed>
  <fix>3d</fix>
</trkpt>
<trkpt lat="-27.2780133" lon="151.2986283">
  <ele>461.13</ele>
  <time>2026-09-01T19:55:37Z</time>
  <course>76.86</course>
  <speed>25.37</speed>
  <fix>3d</fix>
</trkpt>
<trkpt lat="-27.278007" lon="151.2986593">
  <ele>460.52</ele>
  <time>2026-09-01T19:55:37Z</time>
  <course>76.88</course>
  <speed>25.439595122564352</speed>
  <fix>3d</fix>
</trkpt>
<trkpt lat="-27.2780031" lon="151.2986766">
  <ele>460.26</ele>
  <time>2026-09-01T19:55:37Z</time>
  <course>76.5</course>
  <speed>25.46226423553098</speed>
  <fix>3d</fix>
</trkpt>
<trkpt lat="-27.2780133" lon="151.2986283">
  <ele>461.13</ele>
  <time>2026-09-01T19:55:37Z</time>
  <course>76.86</course>
  <speed>25.37</speed>
  <fix>3d</fix>
</trkpt>
<trkpt lat="-27.2780029" lon="151.2986777">
  <ele>460.25</ele>
  <time>2026-09-01T19:55:37Z</time>
  <course>76.47</course>
  <speed>25.4647717445101</speed>
  <fix>3d</fix>
</trkpt>
<trkpt lat="-27.2779972" lon="151.2987014">
  <ele>459.9</ele>
  <time>2026-09-01T19:55:37Z</time>
  <course>75.82</course>
  <speed>25.50226852654485</speed>
  <fix>3d</fix>
</trkpt>
<trkpt lat="-27.2780024" lon="151.2986781">
  <ele>460.43</ele>
  <time>2026-09-01T19:55:37Z</time>
  <course>75.45</course>
  <speed>25.43</speed>
  <fix>3d</fix>
</trkpt>
<trkpt lat="-27.2779969" lon="151.2987024">
  <ele>459.88</ele>
  <time>2026-09-01T19:55:37Z</time>
  <course>75.79</course>
  <speed>25.50757730557726</speed>
  <fix>3d</fix>
</trkpt>
<trkpt lat="-27.2779909" lon="151.2987262">
  <ele>459.53</ele>
  <time>2026-09-01T19:55:37Z</time>
  <course>74.95</course>
  <speed>25.555242123681786</speed>
  <fix>3d</fix>
</trkpt>
<trkpt lat="-27.2780024" lon="151.2986781">
  <ele>460.43</ele>
  <time>2026-09-01T19:55:37Z</time>
  <course>75.45</course>
  <speed>25.43</speed>
  <fix>3d</fix>
</trkpt>
<trkpt lat="-27.2779889" lon="151.2987336">
  <ele>459.42</ele>
  <time>2026-09-01T19:55:37Z</time>
  <course>74.66</course>
  <speed>25.563430912144796</speed>
  <fix>3d</fix>
</trkpt>
<trkpt lat="-27.2779842" lon="151.2987509">
  <ele>459.17</ele>
  <time>2026-09-01T19:55:37Z</time>
  <course>73.99</course>
  <speed>25.60274399356444</speed>
  <fix>3d</fix>
</trkpt>
<trkpt lat="-27.2779902" lon="151.2987277">
  <ele>459.71</ele>
  <time>2026-09-01T19:55:37Z</time>
  <course>73.64</course>
  <speed>25.52</speed>
  <fix>3d</fix>
</trkpt>
<trkpt lat="-27.2779821" lon="151.2987582">
  <ele>459.06</ele>
  <time>2026-09-01T19:55:37Z</time>
  <course>73.69</course>
  <speed>25.616400996236766</speed>
  <fix>3d</fix>
</trkpt>
<trkpt lat="-27.2779772" lon="151.2987753">
  <ele>458.81</ele>
  <time>2026-09-01T19:55:37Z</time>
  <course>73.0</course>
  <speed>25.64926704605806</speed>
  <fix>3d</fix>
</trkpt>
<trkpt lat="-27.2779902" lon="151.2987277">
  <ele>459.71</ele>
  <time>2026-09-01T19:55:37Z</time>
  <course>73.64</course>
  <speed>25.52</speed>
  <fix>3d</fix>
</trkpt>
<trkpt lat="-27.2779749" lon="151.2987827">
  <ele>458.7</ele>
  <time>2026-09-01T19:55:37Z</time>
  <course>72.69</course>
  <speed>25.668932583962274</speed>
  <fix>3d</fix>
</trkpt>
<trkpt lat="-27.2779696" lon="151.2987997">
  <ele>458.45</ele>
  <time>2026-09-01T19:55:37Z</time>
  <course>71.91</course>
  <speed>25.702832528731147</speed>
  <fix>3d</fix>
</trkpt>
<trkpt lat="-27.2779765" lon="151.298777">
  <ele>458.99</ele>
  <time>2026-09-01T19:55:37Z</time>
  <course>71.5</course>
  <speed>25.63</speed>
  <fix>3d</fix>
</trkpt>
<trkpt lat="-27.2779676" lon="151.2988062">
  <ele>458.36</ele>
  <time>2026-09-01T19:55:37Z</time>
  <course>71.59</course>
  <speed>25.7127517002751</speed>
  <fix>3d</fix>
</trkpt>
<trkpt lat="-27.2779617" lon="151.298824">
  <ele>458.1</ele>
  <time>2026-09-01T19:55:37Z</time>
  <course>70.7</course>
  <speed>25.753186210641974</speed>
  <fix>3d</fix>
</trkpt>
<trkpt lat="-27.2779765" lon="151.298777">
  <ele>458.99</ele>
  <time>2026-09-01T19:55:37Z</time>
  <course>71.5</course>
  <speed>25.63</speed>
  <fix>3d</fix>
</trkpt>
<trkpt lat="-27.2779592" lon="151.2988312">
  <ele>457.99</ele>
  <time>2026-09-01T19:55:37Z</time>
  <course>70.32</course>
  <speed>25.777208925715755</speed>
  <fix>3d</fix>
</trkpt>
<trkpt lat="-27.2779532" lon="151.2988481">
  <ele>457.74</ele>
  <time>2026-09-01T19:55:37Z</time>
  <course>69.42</course>
  <speed>25.805092520663433</speed>
  <fix>3d</fix>
</trkpt>
<trkpt lat="-27.2779609" lon="151.2988259">
  <ele>458.28</ele>
  <time>2026-09-01T19:55:37Z</time>
  <course>69.08</course>
  <speed>25.74</speed>
  <fix>3d</fix>
</trkpt>
<trkpt lat="-27.2779529" lon="151.2988487">
  <ele>457.74</ele>
  <time>2026-09-01T19:55:37Z</time>
  <course>69.39</course>
  <speed>25.812679055069044</speed>
  <fix>3d</fix>
</trkpt>
<trkpt lat="-27.2779441" lon="151.2988721">
  <ele>457.39</ele>
  <time>2026-09-01T19:55:37Z</time>
  <course>68.11</course>
  <speed>25.86427072236911</speed>
  <fix>3d</fix>
</trkpt>
<trkpt lat="-27.2779609" lon="151.2988259">
  <ele>458.28</ele>
  <time>2026-09-01T19:55:37Z</time>
  <course>69.08</course>
  <speed>25.74</speed>
  <fix>3d</fix>
</trkpt>
<trkpt lat="-27.2779439" lon="151.2988727">
  <ele>457.38</ele>
  <time>2026-09-01T19:55:37Z</time>
  <course>68.07</course>
  <speed>25.86828560225822</speed>
  <fix>3d</fix>
</trkpt>
<trkpt lat="-27.2779345" lon="151.298896">
  <ele>457.04</ele>
  <time>2026-09-01T19:55:37Z</time>
  <course>66.71</course>
  <speed>25.915651641430898</speed>
  <fix>3d</fix>
</trkpt>
<trkpt lat="-27.2779434" lon="151.2988742">
  <ele>457.58</ele>
  <time>2026-09-01T19:55:37Z</time>
  <course>66.39</course>
  <speed>25.85</speed>
  <fix>3d</fix>
</trkpt>
<trkpt lat="-27.2779315" lon="151.2989031">
  <ele>456.94</ele>
  <time>2026-09-01T19:55:37Z</time>
  <course>66.28</course>
  <speed>25.933615251252572</speed>
  <fix>3d</fix>
</trkpt>
<trkpt lat="-27.2779243" lon="151.2989197">
  <ele>456.69</ele>
  <time>2026-09-01T19:55:37Z</time>
  <course>65.26</course>
  <speed>25.97864122697721</speed>
  <fix>3d</fix>
</trkpt>
<trkpt lat="-27.2779434" lon="151.2988742">
  <ele>457.58</ele>
  <time>2026-09-01T19:55:37Z</time>
  <course>66.39</course>
  <speed>25.85</speed>
  <fix>3d</fix>
</trkpt>
<trkpt lat="-27.2779211" lon="151.2989267">
  <ele>456.58</ele>
  <time>2026-09-01T19:55:37Z</time>
  <course>64.81</course>
  <speed>25.99297789788619</speed>
  <fix>3d</fix>
</trkpt>
<trkpt lat="-27.2779136" lon="151.2989431">
  <ele>456.34</ele>
  <time>2026-09-01T19:55:37Z</time>
  <course>63.73</course>
  <speed>26.028847458156882</speed>
  <fix>3d</fix>
</trkpt>
<trkpt lat="-27.2779237" lon="151.2989216">
  <ele>456.89</ele>
  <time>2026-09-01T19:55:37Z</time>
  <course>63.46</course>
  <speed>25.95</speed>
  <fix>3d</fix>
</trkpt>
<trkpt lat="-27.2779128" lon="151.2989447">
  <ele>456.32</ele>
  <time>2026-09-01T19:55:37Z</time>
  <course>63.63</course>
  <speed>26.034857403104784</speed>
  <fix>3d</fix>
</trkpt>
<trkpt lat="-27.2779022" lon="151.2989663">
  <ele>456.0</ele>
  <time>2026-09-01T19:55:37Z</time>
  <course>62.18</course>
  <speed>26.08202637833188</speed>
  <fix>3d</fix>
</trkpt>
<trkpt lat="-27.2779237" lon="151.2989216">
  <ele>456.89</ele>
  <time>2026-09-01T19:55:37Z</time>
  <course>63.46</course>
  <speed>25.95</speed>
  <fix>3d</fix>
</trkpt>
<trkpt lat="-27.2779018" lon="151.298967">
  <ele>455.99</ele>
  <time>2026-09-01T19:55:37Z</time>
  <course>62.13</course>
  <speed>26.08328583595249</speed>
  <fix>3d</fix>
</trkpt>
<trkpt lat="-27.2778902" lon="151.2989891">
  <ele>455.66</ele>
  <time>2026-09-01T19:55:37Z</time>
  <course>60.56</course>
  <speed>26.138869524139714</speed>
  <fix>3d</fix>
</trkpt>
<trkpt lat="-27.2779017" lon="151.2989679">
  <ele>456.21</ele>
  <time>2026-09-01T19:55:37Z</time>
  <course>60.31</course>
  <speed>26.04</speed>
  <fix>3d</fix>
</trkpt>
<trkpt lat="-27.2778865" lon="151.2989958">
  <ele>455.56</ele>
  <time>2026-09-01T19:55:37Z</time>
  <course>60.05</course>
  <speed>26.155475526168512</speed>
  <fix>3d</fix>
</trkpt>
<trkpt lat="-27.2778777" lon="151.2990115">
  <ele>455.32</ele>
  <time>2026-09-01T19:55:37Z</time>
  <course>58.86</course>
  <speed>26.18042971381486</speed>
  <fix>3d</fix>
</trkpt>
<trkpt lat="-27.2779017" lon="151.2989679">
  <ele>456.21</ele>
  <time>2026-09-01T19:55:37Z</time>
  <course>60.31</course>
  <speed>26.04</speed>
  <fix>3d</fix>
</trkpt>
<trkpt lat="-27.2778738" lon="151.2990182">
  <ele>455.22</ele>
  <time>2026-09-01T19:55:37Z</time>
  <course>58.37</course>
  <speed>26.19572865945897</speed>
  <fix>3d</fix>
</trkpt>
<trkpt lat="-27.2778645" lon="151.2990336">
  <ele>454.99</ele>
  <time>2026-09-01T19:55:37Z</time>
  <course>57.2</course>
  <speed>26.220427151364262</speed>
  <fix>3d</fix>
</trkpt>
<trkpt lat="-27.2778773" lon="151.2990129">
  <ele>455.53</ele>
  <time>2026-09-01T19:55:37Z</time>
  <course>56.96</course>
  <speed>26.13</speed>
  <fix>3d</fix>
</trkpt>
<trkpt lat="-27.2778604" lon="151.2990401">
  <ele>454.89</ele>
  <time>2026-09-01T19:55:37Z</time>
  <course>56.69</course>
  <speed>26.22907737607253</speed>
  <fix>3d</fix>
</trkpt>
<trkpt lat="-27.2778507" lon="151.2990552">
  <ele>454.66</ele>
  <time>2026-09-01T19:55:37Z</time>
  <course>55.45</course>
  <speed>26.254312026789048</speed>
  <fix>3d</fix>
</trkpt>
<trkpt lat="-27.2778773" lon="151.2990129">
  <ele>455.53</ele>
  <time>2026-09-01T19:55:37Z</time>
  <course>56.96</course>
  <speed>26.13</speed>
  <fix>3d</fix>
</trkpt>
<trkpt lat="-27.2778465" lon="151.2990616">
  <ele>454.56</ele>
  <time>2026-09-01T19:55:37Z</time>
  <course>54.91</course>
  <speed>26.268292673868242</speed>
  <fix>3d</fix>
</trkpt>
<trkpt lat="-27.2778364" lon="151.2990763">
  <ele>454.33</ele>
  <time>2026-09-01T19:55:37Z</time>
  <course>53.61</course>
  <speed>26.28742855434894</speed>
  <fix>3d</fix>
</trkpt>
<trkpt lat="-27.2778773" lon="151.2990129">
  <ele>455.53</ele>
  <time>2026-09-01T19:55:37Z</time>
  <course>56.96</course>
  <speed>26.13</speed>
  <fix>3d</fix>
</trkpt>
<trkpt lat="-27.2778359" lon="151.299077">
  <ele>454.32</ele>
  <time>2026-09-01T19:55:37Z</time>
  <course>53.55</course>
  <speed>26.298245188605264</speed>
  <fix>3d</fix>
</trkpt>
<trkpt lat="-27.2778215" lon="151.2990968">
  <ele>454.0</ele>
  <time>2026-09-01T19:55:37Z</time>
  <course>51.75</course>
  <speed>26.309815658799284</speed>
  <fix>3d</fix>
</trkpt>
<trkpt lat="-27.2778504" lon="151.2990564">
  <ele>454.88</ele>
  <time>2026-09-01T19:55:37Z</time>
  <course>53.45</course>
  <speed>26.2</speed>
  <fix>3d</fix>
</trkpt>
<trkpt lat="-27.277821" lon="151.2990975">
  <ele>453.99</ele>
  <time>2026-09-01T19:55:37Z</time>
  <course>51.69</course>
  <speed>26.313960173261645</speed>
  <fix>3d</fix>
</trkpt>
<trkpt lat="-27.2778061" lon="151.2991167">
  <ele>453.68</ele>
  <time>2026-09-01T19:55:37Z</time>
  <course>49.92</course>
  <speed>26.323107719264456</speed>
  <fix>3d</fix>
</trkpt>
<trkpt lat="-27.2778504" lon="151.2990564">
  <ele>454.88</ele>
  <time>2026-09-01T19:55:37Z</time>
  <course>53.45</course>
  <speed>26.2</speed>
  <fix>3d</fix>
</trkpt>
<trkpt lat="-27.2778019" lon="151.2991219">
  <ele>453.59</ele>
  <time>2026-09-01T19:55:37Z</time>
  <course>49.4</course>
  <speed>26.32690259031624</speed>
  <fix>3d</fix>
</trkpt>
<trkpt lat="-27.2777903" lon="151.2991359">
  <ele>453.35</ele>
  <time>2026-09-01T19:55:37Z</time>
  <course>47.94</course>
  <speed>26.336305739416076</speed>
  <fix>3d</fix>
</trkpt>
<trkpt lat="-27.2778212" lon="151.299098">
  <ele>454.22</ele>
  <time>2026-09-01T19:55:37Z</time>
  <course>49.8</course>
  <speed>26.25</speed>
  <fix>3d</fix>
</trkpt>
<trkpt lat="-27.2777858" lon="151.2991411">
  <ele>453.26</ele>
  <time>2026-09-01T19:55:37Z</time>
  <course>47.39</course>
  <speed>26.333298312213</speed>
  <fix>3d</fix>
</trkpt>
<trkpt lat="-27.2777738" lon="151.2991545">
  <ele>453.03</ele>
  <time>2026-09-01T19:55:37Z</time>
  <course>45.93</course>
  <speed>26.34398792893741</speed>
  <fix>3d</fix>
</trkpt>
<trkpt lat="-27.2777895" lon="151.2991375">
  <ele>453.59</ele>
  <time>2026-09-01T19:55:37Z</time>
  <course>45.97</course>
  <speed>26.3</speed>
  <fix>3d</fix>
</trkpt>
<trkpt lat="-27.2777731" lon="151.2991553">
  <ele>453.01</ele>
  <time>2026-09-01T19:55:37Z</time>
  <course>45.85</course>
  <speed>26.337577717018704</speed>
  <fix>3d</fix>
</trkpt>
<trkpt lat="-27.2777565" lon="151.2991727">
  <ele>452.7</ele>
  <time>2026-09-01T19:55:37Z</time>
  <course>43.92</course>
  <speed>26.355728030164524</speed>
  <fix>3d</fix>
</trkpt>
<trkpt lat="-27.2777895" lon="151.2991375">
  <ele>453.59</ele>
  <time>2026-09-01T19:55:37Z</time>
  <course>45.97</course>
  <speed>26.3</speed>
  <fix>3d</fix>
</trkpt>
<trkpt lat="-27.2777558" lon="151.2991734">
  <ele>452.69</ele>
  <time>2026-09-01T19:55:37Z</time>
  <course>43.84</course>
  <speed>26.350569253813095</speed>
  <fix>3d</fix>
</trkpt>
<trkpt lat="-27.2777386" lon="151.2991902">
  <ele>452.38</ele>
  <time>2026-09-01T19:55:37Z</time>
  <course>41.87</course>
  <speed>26.366664559629076</speed>
  <fix>3d</fix>
</trkpt>
<trkpt lat="-27.2777555" lon="151.2991744">
  <ele>452.94</ele>
  <time>2026-09-01T19:55:37Z</time>
  <course>41.98</course>
  <speed>26.34</speed>
  <fix>3d</fix>
</trkpt>
<trkpt lat="-27.2777337" lon="151.2991948">
  <ele>452.29</ele>
  <time>2026-09-01T19:55:37Z</time>
  <course>41.32</course>
  <speed>26.36874096349691</speed>
  <fix>3d</fix>
</trkpt>
<trkpt lat="-27.2777202" lon="151.299207">
  <ele>452.05</ele>
  <time>2026-09-01T19:55:37Z</time>
  <course>39.75</course>
  <speed>26.379311969799364</speed>
  <fix>3d</fix>
</trkpt>
<trkpt lat="-27.2777555" lon="151.2991744">
  <ele>452.94</ele>
  <time>2026-09-01T19:55:37Z</time>
  <course>41.98</course>
  <speed>26.34</speed>
  <fix>3d</fix>
</trkpt>
<trkpt lat="-27.2777146" lon="151.2992118">
  <ele>451.95</ele>
  <time>2026-09-01T19:55:37Z</time>
  <course>39.1</course>
  <speed>26.382300885252597</speed>
  <fix>3d</fix>
</trkpt>
<trkpt lat="-27.2777013" lon="151.2992229">
  <ele>451.73</ele>
  <time>2026-09-01T19:55:37Z</time>
  <course>37.6</course>
  <speed>26.388243594449406</speed>
  <fix>3d</fix>
</trkpt>
<trkpt lat="-27.2777192" lon="151.2992085">
  <ele>452.3</ele>
  <time>2026-09-01T19:55:37Z</time>
  <course>37.81</course>
  <speed>26.37</speed>
  <fix>3d</fix>
</trkpt>
<trkpt lat="-27.2776955" lon="151.2992276">
  <ele>451.63</ele>
  <time>2026-09-01T19:55:37Z</time>
  <course>36.96</course>
  <speed>26.396473249280856</speed>
  <fix>3d</fix>
</trkpt>
<trkpt lat="-27.2776817" lon="151.2992381">
  <ele>451.4</ele>
  <time>2026-09-01T19:55:37Z</time>
  <course>35.45</course>
  <speed>26.406713161618583</speed>
  <fix>3d</fix>
</trkpt>
<trkpt lat="-27.2777192" lon="151.2992085">
  <ele>452.3</ele>
  <time>2026-09-01T19:55:37Z</time>
  <course>37.81</course>
  <speed>26.37</speed>
  <fix>3d</fix>
</trkpt>
<trkpt lat="-27.277681" lon="151.2992386">
  <ele>451.39</ele>
  <time>2026-09-01T19:55:37Z</time>
  <course>35.38</course>
  <speed>26.406881678835163</speed>
  <fix>3d</fix>
</trkpt>
<trkpt lat="-27.2776616" lon="151.2992525">
  <ele>451.08</ele>
  <time>2026-09-01T19:55:37Z</time>
  <course>33.19</course>
  <speed>26.424840586084905</speed>
  <fix>3d</fix>
</trkpt>
<trkpt lat="-27.2776807" lon="151.2992396">
  <ele>451.65</ele>
  <time>2026-09-01T19:55:37Z</time>
  <course>33.49</course>
  <speed>26.39</speed>
  <fix>3d</fix>
</trkpt>
<trkpt lat="-27.2776611" lon="151.2992529">
  <ele>451.07</ele>
  <time>2026-09-01T19:55:37Z</time>
  <course>33.13</course>
  <speed>26.41784245543152</speed>
  <fix>3d</fix>
</trkpt>
<trkpt lat="-27.2776411" lon="151.299266">
  <ele>450.75</ele>
  <time>2026-09-01T19:55:37Z</time>
  <course>30.9</course>
  <speed>26.42287266744477</speed>
  <fix>3d</fix>
</trkpt>
<trkpt lat="-27.2776807" lon="151.2992396">
  <ele>451.65</ele>
  <time>2026-09-01T19:55:37Z</time>
  <course>33.49</course>
  <speed>26.39</speed>
  <fix>3d</fix>
</trkpt>
<trkpt lat="-27.2776406" lon="151.2992663">
  <ele>450.74</ele>
  <time>2026-09-01T19:55:37Z</time>
  <course>30.84</course>
  <speed>26.425845303414608</speed>
  <fix>3d</fix>
</trkpt>
<trkpt lat="-27.2776201" lon="151.2992785">
  <ele>450.43</ele>
  <time>2026-09-01T19:55:37Z</time>
  <course>28.59</course>
  <speed>26.425915310543175</speed>
  <fix>3d</fix>
</trkpt>
<trkpt lat="-27.2776402" lon="151.2992673">
  <ele>451.0</ele>
  <time>2026-09-01T19:55:37Z</time>
  <course>29.02</course>
  <speed>26.41</speed>
  <fix>3d</fix>
</trkpt>
<trkpt lat="-27.2776137" lon="151.2992821">
  <ele>450.33</ele>
  <time>2026-09-01T19:55:37Z</time>
  <course>27.9</course>
  <speed>26.431685530816985</speed>
  <fix>3d</fix>
</trkpt>
<trkpt lat="-27.2775987" lon="151.2992901">
  <ele>450.1</ele>
  <time>2026-09-01T19:55:37Z</time>
  <course>26.28</course>
  <speed>26.42299945123566</speed>
  <fix>3d</fix>
</trkpt>
<trkpt lat="-27.2776402" lon="151.2992673">
  <ele>451.0</ele>
  <time>2026-09-01T19:55:37Z</time>
  <course>29.02</course>
  <speed>26.41</speed>
  <fix>3d</fix>
</trkpt>
<trkpt lat="-27.2775922" lon="151.2992934">
  <ele>450.0</ele>
  <time>2026-09-01T19:55:37Z</time>
  <course>25.58</course>
  <speed>26.419689627245813</speed>
  <fix>3d</fix>
</trkpt>
<trkpt lat="-27.2775769" lon="151.2993007">
  <ele>449.77</ele>
  <time>2026-09-01T19:55:37Z</time>
  <course>23.99</course>
  <speed>26.41908779651561</speed>
  <fix>3d</fix>
</trkpt>
<trkpt lat="-27.2775978" lon="151.2992913">
  <ele>450.35</ele>
  <time>2026-09-01T19:55:37Z</time>
  <course>24.4</course>
  <speed>26.41</speed>
  <fix>3d</fix>
</trkpt>
<trkpt lat="-27.2775703" lon="151.2993036">
  <ele>449.67</ele>
  <time>2026-09-01T19:55:37Z</time>
  <course>23.31</course>
  <speed>26.414094722325807</speed>
  <fix>3d</fix>
</trkpt>
<trkpt lat="-27.2775548" lon="151.2993102">
  <ele>449.44</ele>
  <time>2026-09-01T19:55:37Z</time>
  <course>21.7</course>
  <speed>26.411853399562855</speed>
  <fix>3d</fix>
</trkpt>
<trkpt lat="-27.2775978" lon="151.2992913">
  <ele>450.35</ele>
  <time>2026-09-01T19:55:37Z</time>
  <course>24.4</course>
  <speed>26.41</speed>
  <fix>3d</fix>
</trkpt>
<trkpt lat="-27.2775541" lon="151.2993105">
  <ele>449.43</ele>
  <time>2026-09-01T19:55:37Z</time>
  <course>21.62</course>
  <speed>26.411152947192594</speed>
  <fix>3d</fix>
</trkpt>
<trkpt lat="-27.2775324" lon="151.2993188">
  <ele>449.11</ele>
  <time>2026-09-01T19:55:37Z</time>
  <course>19.34</course>
  <speed>26.402730919357563</speed>
  <fix>3d</fix>
</trkpt>
<trkpt lat="-27.2775539" lon="151.2993113">
  <ele>449.7</ele>
  <time>2026-09-01T19:55:37Z</time>
  <course>19.76</course>
  <speed>26.4</speed>
  <fix>3d</fix>
</trkpt>
<trkpt lat="-27.2775316" lon="151.2993191">
  <ele>449.1</ele>
  <time>2026-09-01T19:55:37Z</time>
  <course>19.26</course>
  <speed>26.400320073817287</speed>
  <fix>3d</fix>
</trkpt>
<trkpt lat="-27.2775097" lon="151.2993263">
  <ele>448.77</ele>
  <time>2026-09-01T19:55:37Z</time>
  <course>16.94</course>
  <speed>26.38730755495907</speed>
  <fix>3d</fix>
</trkpt>
<trkpt lat="-27.2775539" lon="151.2993113">
  <ele>449.7</ele>
  <time>2026-09-01T19:55:37Z</time>
  <course>19.76</course>
  <speed>26.4</speed>
  <fix>3d</fix>
</trkpt>
<trkpt lat="-27.2775028" lon="151.2993284">
  <ele>448.67</ele>
  <time>2026-09-01T19:55:37Z</time>
  <course>16.23</course>
  <speed>26.380949565927303</speed>
  <fix>3d</fix>
</trkpt>
<trkpt lat="-27.2774867" lon="151.2993328">
  <ele>448.44</ele>
  <time>2026-09-01T19:55:37Z</time>
  <course>14.61</course>
  <speed>26.363658699050102</speed>
  <fix>3d</fix>
</trkpt>
<trkpt lat="-27.2775087" lon="151.2993273">
  <ele>449.04</ele>
  <time>2026-09-01T19:55:37Z</time>
  <course>15.07</course>
  <speed>26.38</speed>
  <fix>3d</fix>
</trkpt>
<trkpt lat="-27.2774807" lon="151.2993343">
  <ele>448.35</ele>
  <time>2026-09-01T19:55:37Z</time>
  <course>14.01</course>
  <speed>26.362255214605597</speed>
  <fix>3d</fix>
</trkpt>
<trkpt lat="-27.2774634" lon="151.2993381">
  <ele>448.1</ele>
  <time>2026-09-01T19:55:37Z</time>
  <course>12.25</course>
  <speed>26.356086583557886</speed>
  <fix>3d</fix>
</trkpt>
<trkpt lat="-27.2775087" lon="151.2993273">
  <ele>449.04</ele>
  <time>2026-09-01T19:55:37Z</time>
  <course>15.07</course>
  <speed>26.38</speed>
  <fix>3d</fix>
</trkpt>
<trkpt lat="-27.2774564" lon="151.2993395">
  <ele>448.0</ele>
  <time>2026-09-01T19:55:37Z</time>
  <course>11.54</course>
  <speed>26.349960151772525</speed>
  <fix>3d</fix>
</trkpt>
<trkpt lat="-27.27744" lon="151.2993424">
  <ele>447.75</ele>
  <time>2026-09-01T19:55:37Z</time>
  <course>9.86</course>
  <speed>26.341317355060283</speed>
  <fix>3d</fix>
</trkpt>
<trkpt lat="-27.2774625" lon="151.299339">
  <ele>448.37</ele>
  <time>2026-09-01T19:55:37Z</time>
  <course>10.31</course>
  <speed>26.35</speed>
  <fix>3d</fix>
</trkpt>
<trkpt lat="-27.2774392" lon="151.2993426">
  <ele>447.74</ele>
  <time>2026-09-01T19:55:37Z</time>
  <course>9.78</course>
  <speed>26.337199927099313</speed>
  <fix>3d</fix>
</trkpt>
<trkpt lat="-27.2774163" lon="151.2993456">
  <ele>447.41</ele>
  <time>2026-09-01T19:55:37Z</time>
  <course>7.49</course>
  <speed>26.332787547086618</speed>
  <fix>3d</fix>
</trkpt>
<trkpt lat="-27.2774625" lon="151.299339">
  <ele>448.37</ele>
  <time>2026-09-01T19:55:37Z</time>
  <course>10.31</course>
  <speed>26.35</speed>
  <fix>3d</fix>
</trkpt>
<trkpt lat="-27.2774156" lon="151.2993457">
  <ele>447.39</ele>
  <time>2026-09-01T19:55:37Z</time>
  <course>7.41</course>
  <speed>26.328959341379218</speed>
  <fix>3d</fix>
</trkpt>
<trkpt lat="-27.2773926" lon="151.2993477">
  <ele>447.05</ele>
  <time>2026-09-01T19:55:37Z</time>
  <course>5.11</course>
  <speed>26.318877255688548</speed>
  <fix>3d</fix>
</trkpt>
<trkpt lat="-27.2774625" lon="151.299339">
  <ele>448.37</ele>
  <time>2026-09-01T19:55:37Z</time>
  <course>10.31</course>
  <speed>26.35</speed>
  <fix>3d</fix>
</trkpt>
<trkpt lat="-27.2773919" lon="151.2993477">
  <ele>447.04</ele>
  <time>2026-09-01T19:55:37Z</time>
  <course>5.04</course>
  <speed>26.31673421988374</speed>
  <fix>3d</fix>
</trkpt>
<trkpt lat="-27.2773691" lon="151.2993486">
  <ele>446.7</ele>
  <time>2026-09-01T19:55:37Z</time>
  <course>2.71</course>
  <speed>26.282071836139554</speed>
  <fix>3d</fix>
</trkpt>
<trkpt lat="-27.2774155" lon="151.2993463">
  <ele>447.68</ele>
  <time>2026-09-01T19:55:37Z</time>
  <course>5.52</course>
  <speed>26.31</speed>
  <fix>3d</fix>
</trkpt>
<trkpt lat="-27.2773684" lon="151.2993487">
  <ele>446.69</ele>
  <time>2026-09-01T19:55:37Z</time>
  <course>2.64</course>
  <speed>26.281600027395594</speed>
  <fix>3d</fix>
</trkpt>
<trkpt lat="-27.2773457" lon="151.2993485">
  <ele>446.35</ele>
  <time>2026-09-01T19:55:37Z</time>
  <course>0.37</course>
  <speed>26.24043635307919</speed>
  <fix>3d</fix>
</trkpt>
<trkpt lat="-27.2774155" lon="151.2993463">
  <ele>447.68</ele>
  <time>2026-09-01T19:55:37Z</time>
  <course>5.52</course>
  <speed>26.31</speed>
  <fix>3d</fix>
</trkpt>
<trkpt lat="-27.2773387" lon="151.2993482">
  <ele>446.24</ele>
  <time>2026-09-01T19:55:37Z</time>
  <course>359.67</course>
  <speed>26.23142580951329</speed>
  <fix>3d</fix>
</trkpt>
<trkpt lat="-27.2773224" lon="151.2993473">
  <ele>445.99</ele>
  <time>2026-09-01T19:55:37Z</time>
  <course>358.01</course>
  <speed>26.191924327929783</speed>
  <fix>3d</fix>
</trkpt>
<trkpt lat="-27.2773683" lon="151.2993492">
  <ele>446.98</ele>
  <time>2026-09-01T19:55:37Z</time>
  <course>0.71</course>
  <speed>26.27</speed>
  <fix>3d</fix>
</trkpt>
<trkpt lat="-27.2773154" lon="151.2993467">
  <ele>445.88</ele>
  <time>2026-09-01T19:55:37Z</time>
  <course>357.3</course>
  <speed>26.175990907700132</speed>
  <fix>3d</fix>
</trkpt>
<trkpt lat="-27.2772992" lon="151.2993451">
  <ele>445.63</ele>
  <time>2026-09-01T19:55:37Z</time>
  <course>355.64</course>
  <speed>26.136947029062135</speed>
  <fix>3d</fix>
</trkpt>
<trkpt lat="-27.2773683" lon="151.2993492">
  <ele>446.98</ele>
  <time>2026-09-01T19:55:37Z</time>
  <course>0.71</course>
  <speed>26.27</speed>
  <fix>3d</fix>
</trkpt>
<trkpt lat="-27.2772984" lon="151.299345">
  <ele>445.61</ele>
  <time>2026-09-01T19:55:37Z</time>
  <course>355.57</course>
  <speed>26.130308073193472</speed>
  <fix>3d</fix>
</trkpt>
<trkpt lat="-27.2772764" lon="151.2993418">
  <ele>445.26</ele>
  <time>2026-09-01T19:55:37Z</time>
  <course>353.34</course>
  <speed>26.081721568945557</speed>
  <fix>3d</fix>
</trkpt>
<trkpt lat="-27.2773212" lon="151.2993477">
  <ele>446.26</ele>
  <time>2026-09-01T19:55:37Z</time>
  <course>355.99</course>
  <speed>26.21</speed>
  <fix>3d</fix>
</trkpt>
<trkpt lat="-27.2772754" lon="151.2993417">
  <ele>445.25</ele>
  <time>2026-09-01T19:55:37Z</time>
  <course>353.25</course>
  <speed>26.077831581632704</speed>
  <fix>3d</fix>
</trkpt>
<trkpt lat="-27.2772536" lon="151.2993375">
  <ele>444.89</ele>
  <time>2026-09-01T19:55:37Z</time>
  <course>351.1</course>
  <speed>26.015620307807385</speed>
  <fix>3d</fix>
</trkpt>
<trkpt lat="-27.2773212" lon="151.2993477">
  <ele>446.26</ele>
  <time>2026-09-01T19:55:37Z</time>
  <course>355.99</course>
  <speed>26.21</speed>
  <fix>3d</fix>
</trkpt>
<trkpt lat="-27.2772473" lon="151.2993361">
  <ele>444.78</ele>
  <time>2026-09-01T19:55:37Z</time>
  <course>350.48</course>
  <speed>26.00120766426052</speed>
  <fix>3d</fix>
</trkpt>
<trkpt lat="-27.277231" lon="151.2993321">
  <ele>444.51</ele>
  <time>2026-09-01T19:55:37Z</time>
  <course>348.86</course>
  <speed>25.95708959032195</speed>
  <fix>3d</fix>
</trkpt>
<trkpt lat="-27.2772745" lon="151.2993419">
  <ele>445.52</ele>
  <time>2026-09-01T19:55:37Z</time>
  <course>351.33</course>
  <speed>26.13</speed>
  <fix>3d</fix>
</trkpt>
<trkpt lat="-27.2772248" lon="151.2993305">
  <ele>444.4</ele>
  <time>2026-09-01T19:55:37Z</time>
  <course>348.24</course>
  <speed>25.941966001057054</speed>
  <fix>3d</fix>
</trkpt>
<trkpt lat="-27.2772086" lon="151.2993258">
  <ele>444.12</ele>
  <time>2026-09-01T19:55:37Z</time>
  <course>346.63</course>
  <speed>25.89518294973025</speed>
  <fix>3d</fix>
</trkpt>
<trkpt lat="-27.2772745" lon="151.2993419">
  <ele>445.52</ele>
  <time>2026-09-01T19:55:37Z</time>
  <course>351.33</course>
  <speed>26.13</speed>
  <fix>3d</fix>
</trkpt>
<trkpt lat="-27.2772025" lon="151.2993239">
  <ele>444.01</ele>
  <time>2026-09-01T19:55:37Z</time>
  <course>346.02</course>
  <speed>25.87873258102104</speed>
  <fix>3d</fix>
</trkpt>
<trkpt lat="-27.2771861" lon="151.2993183">
  <ele>443.71</ele>
  <time>2026-09-01T19:55:37Z</time>
  <course>344.39</course>
  <speed>25.838595163050176</speed>
  <fix>3d</fix>
</trkpt>
<trkpt lat="-27.2772285" lon="151.2993319">
  <ele>444.76</ele>
  <time>2026-09-01T19:55:37Z</time>
  <course>346.76</course>
  <speed>26.04</speed>
  <fix>3d</fix>
</trkpt>
<trkpt lat="-27.2771802" lon="151.2993162">
  <ele>443.61</ele>
  <time>2026-09-01T19:55:37Z</time>
  <course>343.81</course>
  <speed>25.82023431342171</speed>
  <fix>3d</fix>
</trkpt>
<trkpt lat="-27.2771643" lon="151.2993101">
  <ele>443.31</ele>
  <time>2026-09-01T19:55:37Z</time>
  <course>342.22</course>
  <speed>25.77354069583766</speed>
  <fix>3d</fix>
</trkpt>
<trkpt lat="-27.2771835" lon="151.2993179">
  <ele>443.96</ele>
  <time>2026-09-01T19:55:37Z</time>
  <course>342.3</course>
  <speed>25.95</speed>
  <fix>3d</fix>
</trkpt>
<trkpt lat="-27.2771585" lon="151.2993077">
  <ele>443.2</ele>
  <time>2026-09-01T19:55:37Z</time>
  <course>341.65</course>
  <speed>25.762053489580367</speed>
  <fix>3d</fix>
</trkpt>
<trkpt lat="-27.2771426" lon="151.2993009">
  <ele>442.89</ele>
  <time>2026-09-01T19:55:37Z</time>
  <course>340.07</course>
  <speed>25.730069957153248</speed>
  <fix>3d</fix>
</trkpt>
<trkpt lat="-27.2771835" lon="151.2993179">
  <ele>443.96</ele>
  <time>2026-09-01T19:55:37Z</time>
  <course>342.3</course>
  <speed>25.95</speed>
  <fix>3d</fix>
</trkpt>
<trkpt lat="-27.2771362" lon="151.2992979">
  <ele>442.76</ele>
  <time>2026-09-01T19:55:37Z</time>
  <course>339.43</course>
  <speed>25.708461642035296</speed>
  <fix>3d</fix>
</trkpt>
<trkpt lat="-27.2771214" lon="151.2992907">
  <ele>442.46</ele>
  <time>2026-09-01T19:55:37Z</time>
  <course>337.96</course>
  <speed>25.67109269197554</speed>
  <fix>3d</fix>
</trkpt>
<trkpt lat="-27.2771398" lon="151.2993">
  <ele>443.12</ele>
  <time>2026-09-01T19:55:37Z</time>
  <course>337.92</course>
  <speed>25.85</speed>
  <fix>3d</fix>
</trkpt>
<trkpt lat="-27.277115" lon="151.2992875">
  <ele>442.33</ele>
  <time>2026-09-01T19:55:37Z</time>
  <course>337.34</course>
  <speed>25.660329304200285</speed>
  <fix>3d</fix>
</trkpt>
<trkpt lat="-27.2771004" lon="151.2992797">
  <ele>442.02</ele>
  <time>2026-09-01T19:55:37Z</time>
  <course>335.88</course>
  <speed>25.621266557295716</speed>
  <fix>3d</fix>
</trkpt>
<trkpt lat="-27.2771398" lon="151.2993">
  <ele>443.12</ele>
  <time>2026-09-01T19:55:37Z</time>
  <course>337.92</course>
  <speed>25.85</speed>
  <fix>3d</fix>
</trkpt>
<trkpt lat="-27.2770935" lon="151.2992759">
  <ele>441.87</ele>
  <time>2026-09-01T19:55:37Z</time>
  <course>335.19</course>
  <speed>25.607985082782285</speed>
  <fix>3d</fix>
</trkpt>
<trkpt lat="-27.2770799" lon="151.2992679">
  <ele>441.57</ele>
  <time>2026-09-01T19:55:37Z</time>
  <course>333.83</course>
  <speed>25.574981915927136</speed>
  <fix>3d</fix>
</trkpt>
<trkpt lat="-27.2770975" lon="151.2992787">
  <ele>442.25</ele>
  <time>2026-09-01T19:55:37Z</time>
  <course>333.64</course>
  <speed>25.75</speed>
  <fix>3d</fix>
</trkpt>
<trkpt lat="-27.2770738" lon="151.2992641">
  <ele>441.43</ele>
  <time>2026-09-01T19:55:37Z</time>
  <course>333.23</course>
  <speed>25.553600529083962</speed>
  <fix>3d</fix>
</trkpt>
<trkpt lat="-27.2770597" lon="151.2992552">
  <ele>441.11</ele>
  <time>2026-09-01T19:55:37Z</time>
  <course>331.82</course>
  <speed>25.52188276753892</speed>
  <fix>3d</fix>
</trkpt>
<trkpt lat="-27.2770975" lon="151.2992787">
  <ele>442.25</ele>
  <time>2026-09-01T19:55:37Z</time>
  <course>333.64</course>
  <speed>25.75</speed>
  <fix>3d</fix>
</trkpt>
<trkpt lat="-27.2770591" lon="151.2992547">
  <ele>441.09</ele>
  <time>2026-09-01T19:55:37Z</time>
  <course>331.75</course>
  <speed>25.523393191345072</speed>
  <fix>3d</fix>
</trkpt>
<trkpt lat="-27.2770401" lon="151.2992417">
  <ele>440.64</ele>
  <time>2026-09-01T19:55:37Z</time>
  <course>329.85</course>
  <speed>25.472447860384364</speed>
  <fix>3d</fix>
</trkpt>
<trkpt lat="-27.2770569" lon="151.299254">
  <ele>441.34</ele>
  <time>2026-09-01T19:55:37Z</time>
  <course>329.49</course>
  <speed>25.64</speed>
  <fix>3d</fix>
</trkpt>
<trkpt lat="-27.2770394" lon="151.2992413">
  <ele>440.62</ele>
  <time>2026-09-01T19:55:37Z</time>
  <course>329.78</course>
  <speed>25.466307152785227</speed>
  <fix>3d</fix>
</trkpt>
<trkpt lat="-27.2770208" lon="151.2992275">
  <ele>440.15</ele>
  <time>2026-09-01T19:55:37Z</time>
  <course>327.85</course>
  <speed>25.429457328067382</speed>
  <fix>3d</fix>
</trkpt>
<trkpt lat="-27.2770569" lon="151.299254">
  <ele>441.34</ele>
  <time>2026-09-01T19:55:37Z</time>
  <course>329.49</course>
  <speed>25.64</speed>
  <fix>3d</fix>
</trkpt>
<trkpt lat="-27.2770152" lon="151.2992231">
  <ele>440.01</ele>
  <time>2026-09-01T19:55:37Z</time>
  <course>327.25</course>
  <speed>25.40929947873416</speed>
  <fix>3d</fix>
</trkpt>
<trkpt lat="-27.2770021" lon="151.2992126">
  <ele>439.66</ele>
  <time>2026-09-01T19:55:37Z</time>
  <course>325.88</course>
  <speed>25.380868779456705</speed>
  <fix>3d</fix>
</trkpt>
<trkpt lat="-27.2770182" lon="151.2992262">
  <ele>440.4</ele>
  <time>2026-09-01T19:55:37Z</time>
  <course>325.45</course>
  <speed>25.53</speed>
  <fix>3d</fix>
</trkpt>
<trkpt lat="-27.2770015" lon="151.2992121">
  <ele>439.64</ele>
  <time>2026-09-01T19:55:37Z</time>
  <course>325.81</course>
  <speed>25.37665265554147</speed>
  <fix>3d</fix>
</trkpt>
<trkpt lat="-27.2769837" lon="151.2991969">
  <ele>439.15</ele>
  <time>2026-09-01T19:55:37Z</time>
  <course>323.96</course>
  <speed>25.33644213381192</speed>
  <fix>3d</fix>
</trkpt>
<trkpt lat="-27.2770182" lon="151.2992262">
  <ele>440.4</ele>
  <time>2026-09-01T19:55:37Z</time>
  <course>325.45</course>
  <speed>25.53</speed>
  <fix>3d</fix>
</trkpt>
<trkpt lat="-27.2769831" lon="151.2991964">
  <ele>439.14</ele>
  <time>2026-09-01T19:55:37Z</time>
  <course>323.9</course>
  <speed>25.33939620432973</speed>
  <fix>3d</fix>
</trkpt>
<trkpt lat="-27.2769659" lon="151.2991806">
  <ele>438.64</ele>
  <time>2026-09-01T19:55:37Z</time>
  <course>322.05</course>
  <speed>25.30098021816546</speed>
  <fix>3d</fix>
</trkpt>
<trkpt lat="-27.2770182" lon="151.2992262">
  <ele>440.4</ele>
  <time>2026-09-01T19:55:37Z</time>
  <course>325.45</course>
  <speed>25.53</speed>
  <fix>3d</fix>
</trkpt>
<trkpt lat="-27.2769614" lon="151.2991763">
  <ele>438.51</ele>
  <time>2026-09-01T19:55:37Z</time>
  <course>321.56</course>
  <speed>25.284433946600426</speed>
  <fix>3d</fix>
</trkpt>
<trkpt lat="-27.2769488" lon="151.2991638">
  <ele>438.12</ele>
  <time>2026-09-01T19:55:37Z</time>
  <course>320.17</course>
  <speed>25.246120494048192</speed>
  <fix>3d</fix>
</trkpt>
<trkpt lat="-27.2769814" lon="151.2991955">
  <ele>439.41</ele>
  <time>2026-09-01T19:55:37Z</time>
  <course>321.51</course>
  <speed>25.42</speed>
  <fix>3d</fix>
</trkpt>
<trkpt lat="-27.2769437" lon="151.2991586">
  <ele>437.97</ele>
  <time>2026-09-01T19:55:37Z</time>
  <course>319.61</course>
  <speed>25.24219681406513</speed>
  <fix>3d</fix>
</trkpt>
<trkpt lat="-27.2769322" lon="151.2991464">
  <ele>437.6</ele>
  <time>2026-09-01T19:55:37Z</time>
  <course>318.29</course>
  <speed>25.204856674855346</speed>
  <fix>3d</fix>
</trkpt>
<trkpt lat="-27.2769814" lon="151.2991955">
  <ele>439.41</ele>
  <time>2026-09-01T19:55:37Z</time>
  <course>321.51</course>
  <speed>25.42</speed>
  <fix>3d</fix>
</trkpt>
<trkpt lat="-27.2769273" lon="151.299141">
  <ele>437.44</ele>
  <time>2026-09-01T19:55:37Z</time>
  <course>317.72</course>
  <speed>25.18771525962607</speed>
  <fix>3d</fix>
</trkpt>
<trkpt lat="-27.2769162" lon="151.2991284">
  <ele>437.06</ele>
  <time>2026-09-01T19:55:37Z</time>
  <course>316.41</course>
  <speed>25.155017392162545</speed>
  <fix>3d</fix>
</trkpt>
<trkpt lat="-27.2769466" lon="151.2991621">
  <ele>438.39</ele>
  <time>2026-09-01T19:55:37Z</time>
  <course>317.66</course>
  <speed>25.32</speed>
  <fix>3d</fix>
</trkpt>
<trkpt lat="-27.276913" lon="151.2991248">
  <ele>436.96</ele>
  <time>2026-09-01T19:55:37Z</time>
  <course>316.03</course>
  <speed>25.151079499695435</speed>
  <fix>3d</fix>
</trkpt>
<trkpt lat="-27.2769007" lon="151.29911">
  <ele>436.52</ele>
  <time>2026-09-01T19:55:37Z</time>
  <course>314.55</course>
  <speed>25.11020708795529</speed>
  <fix>3d</fix>
</trkpt>
<trkpt lat="-27.2769466" lon="151.2991621">
  <ele>438.39</ele>
  <time>2026-09-01T19:55:37Z</time>
  <course>317.66</course>
  <speed>25.32</speed>
  <fix>3d</fix>
</trkpt>
<trkpt lat="-27.2768962" lon="151.2991043">
  <ele>436.36</ele>
  <time>2026-09-01T19:55:37Z</time>
  <course>313.99</course>
  <speed>25.108813193777202</speed>
  <fix>3d</fix>
</trkpt>
<trkpt lat="-27.2768859" lon="151.2990912">
  <ele>435.98</ele>
  <time>2026-09-01T19:55:37Z</time>
  <course>312.72</course>
  <speed>25.076197877668776</speed>
  <fix>3d</fix>
</trkpt>
<trkpt lat="-27.2769141" lon="151.2991265">
  <ele>437.33</ele>
  <time>2026-09-01T19:55:37Z</time>
  <course>313.91</course>
  <speed>25.23</speed>
  <fix>3d</fix>
</trkpt>
<trkpt lat="-27.2768816" lon="151.2990854">
  <ele>435.81</ele>
  <time>2026-09-01T19:55:37Z</time>
  <course>312.17</course>
  <speed>25.060682353040587</speed>
  <fix>3d</fix>
</trkpt>
<trkpt lat="-27.2768716" lon="151.2990717">
  <ele>435.42</ele>
  <time>2026-09-01T19:55:37Z</time>
  <course>310.91</course>
  <speed>25.037781451238846</speed>
  <fix>3d</fix>
</trkpt>
<trkpt lat="-27.2769141" lon="151.2991265">
  <ele>437.33</ele>
  <time>2026-09-01T19:55:37Z</time>
  <course>313.91</course>
  <speed>25.23</speed>
  <fix>3d</fix>
</trkpt>
<trkpt lat="-27.276871" lon="151.2990709">
  <ele>435.4</ele>
  <time>2026-09-01T19:55:37Z</time>
  <course>310.84</course>
  <speed>25.03470391276877</speed>
  <fix>3d</fix>
</trkpt>
<trkpt lat="-27.2768579" lon="151.2990517">
  <ele>434.86</ele>
  <time>2026-09-01T19:55:37Z</time>
  <course>309.11</course>
  <speed>25.0100079968</speed>
  <fix>3d</fix>
</trkpt>
<trkpt lat="-27.2768838" lon="151.2990888">
  <ele>436.24</ele>
  <time>2026-09-01T19:55:37Z</time>
  <course>310.23</course>
  <speed>25.15</speed>
  <fix>3d</fix>
</trkpt>
<trkpt lat="-27.2768573" lon="151.2990509">
  <ele>434.83</ele>
  <time>2026-09-01T19:55:37Z</time>
  <course>309.04</course>
  <speed>25.00806269985742</speed>
  <fix>3d</fix>
</trkpt>
<trkpt lat="-27.2768447" lon="151.2990314">
  <ele>434.29</ele>
  <time>2026-09-01T19:55:37Z</time>
  <course>307.32</course>
  <speed>24.982493870708744</speed>
  <fix>3d</fix>
</trkpt>
<trkpt lat="-27.2768838" lon="151.2990888">
  <ele>436.24</ele>
  <time>2026-09-01T19:55:37Z</time>
  <course>310.23</course>
  <speed>25.15</speed>
  <fix>3d</fix>
</trkpt>
<trkpt lat="-27.2768409" lon="151.2990251">
  <ele>434.12</ele>
  <time>2026-09-01T19:55:37Z</time>
  <course>306.78</course>
  <speed>24.97516566511622</speed>
  <fix>3d</fix>
</trkpt>
<trkpt lat="-27.2768321" lon="151.2990105">
  <ele>433.71</ele>
  <time>2026-09-01T19:55:37Z</time>
  <course>305.52</course>
  <speed>24.964913378579944</speed>
  <fix>3d</fix>
</trkpt>
<trkpt lat="-27.2768558" lon="151.299049">
  <ele>435.12</ele>
  <time>2026-09-01T19:55:37Z</time>
  <course>306.61</course>
  <speed>25.09</speed>
  <fix>3d</fix>
</trkpt>
<trkpt lat="-27.2768316" lon="151.2990097">
  <ele>433.69</ele>
  <time>2026-09-01T19:55:37Z</time>
  <course>305.44</course>
  <speed>24.9651957733161</speed>
  <fix>3d</fix>
</trkpt>
<trkpt lat="-27.27682" lon="151.2989891">
  <ele>433.13</ele>
  <time>2026-09-01T19:55:37Z</time>
  <course>303.7</course>
  <speed>24.952340571577647</speed>
  <fix>3d</fix>
</trkpt>
<trkpt lat="-27.2768558" lon="151.299049">
  <ele>435.12</ele>
  <time>2026-09-01T19:55:37Z</time>
  <course>306.61</course>
  <speed>25.09</speed>
  <fix>3d</fix>
</trkpt>
<trkpt lat="-27.2768196" lon="151.2989884">
  <ele>433.11</ele>
  <time>2026-09-01T19:55:37Z</time>
  <course>303.64</course>
  <speed>24.95043486594973</speed>
  <fix>3d</fix>
</trkpt>
<trkpt lat="-27.2768086" lon="151.2989674">
  <ele>432.55</ele>
  <time>2026-09-01T19:55:37Z</time>
  <course>301.89</course>
  <speed>24.93842817821524</speed>
  <fix>3d</fix>
</trkpt>
<trkpt lat="-27.2768301" lon="151.2990074">
  <ele>433.98</ele>
  <time>2026-09-01T19:55:37Z</time>
  <course>303.05</course>
  <speed>25.04</speed>
  <fix>3d</fix>
</trkpt>
<trkpt lat="-27.2768053" lon="151.2989609">
  <ele>432.38</ele>
  <time>2026-09-01T19:55:37Z</time>
  <course>301.35</course>
  <speed>24.944618658139476</speed>
  <fix>3d</fix>
</trkpt>
<trkpt lat="-27.2767978" lon="151.2989454">
  <ele>431.97</ele>
  <time>2026-09-01T19:55:37Z</time>
  <course>300.12</course>
  <speed>24.939466714426754</speed>
  <fix>3d</fix>
</trkpt>
<trkpt lat="-27.2768301" lon="151.2990074">
  <ele>433.98</ele>
  <time>2026-09-01T19:55:37Z</time>
  <course>303.05</course>
  <speed>25.04</speed>
  <fix>3d</fix>
</trkpt>
<trkpt lat="-27.276795" lon="151.2989394">
  <ele>431.82</ele>
  <time>2026-09-01T19:55:37Z</time>
  <course>299.65</course>
  <speed>24.935406553733987</speed>
  <fix>3d</fix>
</trkpt>
<trkpt lat="-27.2767876" lon="151.298923">
  <ele>431.4</ele>
  <time>2026-09-01T19:55:37Z</time>
  <course>298.39</course>
  <speed>24.937066788217095</speed>
  <fix>3d</fix>
</trkpt>
<trkpt lat="-27.2768067" lon="151.2989642">
  <ele>432.83</ele>
  <time>2026-09-01T19:55:37Z</time>
  <course>299.5</course>
  <speed>25.02</speed>
  <fix>3d</fix>
</trkpt>
<trkpt lat="-27.2767849" lon="151.2989169">
  <ele>431.24</ele>
  <time>2026-09-01T19:55:37Z</time>
  <course>297.93</course>
  <speed>24.939069750092926</speed>
  <fix>3d</fix>
</trkpt>
<trkpt lat="-27.2767779" lon="151.2989002">
  <ele>430.82</ele>
  <time>2026-09-01T19:55:37Z</time>
  <course>296.66</course>
  <speed>24.948196327590498</speed>
  <fix>3d</fix>
</trkpt>
<trkpt lat="-27.2768067" lon="151.2989642">
  <ele>432.83</ele>
  <time>2026-09-01T19:55:37Z</time>
  <course>299.5</course>
  <speed>25.02</speed>
  <fix>3d</fix>
</trkpt>
<trkpt lat="-27.2767755" lon="151.2988941">
  <ele>430.67</ele>
  <time>2026-09-01T19:55:37Z</time>
  <course>296.2</course>
  <speed>24.951168309319705</speed>
  <fix>3d</fix>
</trkpt>
<trkpt lat="-27.2767689" lon="151.2988771">
  <ele>430.25</ele>
  <time>2026-09-01T19:55:37Z</time>
  <course>294.97</course>
  <speed>24.954005690469817</speed>
  <fix>3d</fix>
</trkpt>
<trkpt lat="-27.2767858" lon="151.2989194">
  <ele>431.68</ele>
  <time>2026-09-01T19:55:37Z</time>
  <course>296.01</course>
  <speed>25.02</speed>
  <fix>3d</fix>
</trkpt>
<trkpt lat="-27.2767663" lon="151.2988701">
  <ele>430.08</ele>
  <time>2026-09-01T19:55:37Z</time>
  <course>294.46</course>
  <speed>24.960338539370813</speed>
  <fix>3d</fix>
</trkpt>
<trkpt lat="-27.2767605" lon="151.2988537">
  <ele>429.68</ele>
  <time>2026-09-01T19:55:37Z</time>
  <course>293.29</course>
  <speed>24.966353358069735</speed>
  <fix>3d</fix>
</trkpt>
<trkpt lat="-27.2767858" lon="151.2989194">
  <ele>431.68</ele>
  <time>2026-09-01T19:55:37Z</time>
  <course>296.01</course>
  <speed>25.02</speed>
  <fix>3d</fix>
</trkpt>
<trkpt lat="-27.2767584" lon="151.2988475">
  <ele>429.53</ele>
  <time>2026-09-01T19:55:37Z</time>
  <course>292.85</course>
  <speed>24.96734066735983</speed>
  <fix>3d</fix>
</trkpt>
<trkpt lat="-27.2767526" lon="151.2988299">
  <ele>429.1</ele>
  <time>2026-09-01T19:55:37Z</time>
  <course>291.62</course>
  <speed>24.977071485664606</speed>
  <fix>3d</fix>
</trkpt>
<trkpt lat="-27.2767673" lon="151.2988733">
  <ele>430.53</ele>
  <time>2026-09-01T19:55:37Z</time>
  <course>292.61</course>
  <speed>25.03</speed>
  <fix>3d</fix>
</trkpt>
<trkpt lat="-27.2767524" lon="151.2988291">
  <ele>429.09</ele>
  <time>2026-09-01T19:55:37Z</time>
  <course>291.56</course>
  <speed>24.979819855235146</speed>
  <fix>3d</fix>
</trkpt>
<trkpt lat="-27.2767454" lon="151.2988059">
  <ele>428.54</ele>
  <time>2026-09-01T19:55:37Z</time>
  <course>290.0</course>
  <speed>24.99248887165902</speed>
  <fix>3d</fix>
</trkpt>
<trkpt lat="-27.2767512" lon="151.298826">
  <ele>429.4</ele>
  <time>2026-09-01T19:55:37Z</time>
  <course>289.31</course>
  <speed>25.06</speed>
  <fix>3d</fix>
</trkpt>
<trkpt lat="-27.2767451" lon="151.2988051">
  <ele>428.52</ele>
  <time>2026-09-01T19:55:37Z</time>
  <course>289.95</course>
  <speed>24.99585965715122</speed>
  <fix>3d</fix>
</trkpt>
<trkpt lat="-27.2767387" lon="151.2987816">
  <ele>427.98</ele>
  <time>2026-09-01T19:55:37Z</time>
  <course>288.44</course>
  <speed>25.023640822230487</speed>
  <fix>3d</fix>
</trkpt>
<trkpt lat="-27.2767512" lon="151.298826">
  <ele>429.4</ele>
  <time>2026-09-01T19:55:37Z</time>
  <course>289.31</course>
  <speed>25.06</speed>
  <fix>3d</fix>
</trkpt>
<trkpt lat="-27.2767385" lon="151.2987808">
  <ele>427.96</ele>
  <time>2026-09-01T19:55:37Z</time>
  <course>288.39</course>
  <speed>25.024803695533755</speed>
  <fix>3d</fix>
</trkpt>
<trkpt lat="-27.2767326" lon="151.2987571">
  <ele>427.42</ele>
  <time>2026-09-01T19:55:37Z</time>
  <course>286.9</course>
  <speed>25.041647310031344</speed>
  <fix>3d</fix>
</trkpt>
<trkpt lat="-27.2767375" lon="151.2987778">
  <ele>428.28</ele>
  <time>2026-09-01T19:55:37Z</time>
  <course>286.14</course>
  <speed>25.08</speed>
  <fix>3d</fix>
</trkpt>
<trkpt lat="-27.2767324" lon="151.2987562">
  <ele>427.4</ele>
  <time>2026-09-01T19:55:37Z</time>
  <course>286.85</course>
  <speed>25.046213286642754</speed>
  <fix>3d</fix>
</trkpt>
<trkpt lat="-27.276727" lon="151.2987322">
  <ele>426.87</ele>
  <time>2026-09-01T19:55:37Z</time>
  <course>285.44</course>
  <speed>25.075254734498714</speed>
  <fix>3d</fix>
</trkpt>
<trkpt lat="-27.2767375" lon="151.2987778">
  <ele>428.28</ele>
  <time>2026-09-01T19:55:37Z</time>
  <course>286.14</course>
  <speed>25.08</speed>
  <fix>3d</fix>
</trkpt>
<trkpt lat="-27.2767255" lon="151.2987247">
  <ele>426.7</ele>
  <time>2026-09-01T19:55:37Z</time>
  <course>285.02</course>
  <speed>25.08088116474379</speed>
  <fix>3d</fix>
</trkpt>
<trkpt lat="-27.2767221" lon="151.2987072">
  <ele>426.32</ele>
  <time>2026-09-01T19:55:37Z</time>
  <course>284.01</course>
  <speed>25.09825691158651</speed>
  <fix>3d</fix>
</trkpt>
<trkpt lat="-27.2767375" lon="151.2987778">
  <ele>428.28</ele>
  <time>2026-09-01T19:55:37Z</time>
  <course>286.14</course>
  <speed>25.08</speed>
  <fix>3d</fix>
</trkpt>
<trkpt lat="-27.2767202" lon="151.2986973">
  <ele>426.11</ele>
  <time>2026-09-01T19:55:37Z</time>
  <course>283.42</course>
  <speed>25.108749471050924</speed>
  <fix>3d</fix>
</trkpt>
<trkpt lat="-27.2767177" lon="151.2986823">
  <ele>425.79</ele>
  <time>2026-09-01T19:55:37Z</time>
  <course>282.55</course>
  <speed>25.119213761580994</speed>
  <fix>3d</fix>
</trkpt>
<trkpt lat="-27.2767261" lon="151.2987287">
  <ele>427.19</ele>
  <time>2026-09-01T19:55:37Z</time>
  <course>283.11</course>
  <speed>25.11</speed>
  <fix>3d</fix>
</trkpt>
<trkpt lat="-27.2767165" lon="151.2986748">
  <ele>425.63</ele>
  <time>2026-09-01T19:55:37Z</time>
  <course>282.12</course>
  <speed>25.126474086110846</speed>
  <fix>3d</fix>
</trkpt>
<trkpt lat="-27.2767138" lon="151.2986573">
  <ele>425.26</ele>
  <time>2026-09-01T19:55:37Z</time>
  <course>281.14</course>
  <speed>25.137080180482382</speed>
  <fix>3d</fix>
</trkpt>
<trkpt lat="-27.2767261" lon="151.2987287">
  <ele>427.19</ele>
  <time>2026-09-01T19:55:37Z</time>
  <course>283.11</course>
  <speed>25.11</speed>
  <fix>3d</fix>
</trkpt>
<trkpt lat="-27.2767137" lon="151.2986565">
  <ele>425.25</ele>
  <time>2026-09-01T19:55:37Z</time>
  <course>281.09</course>
  <speed>25.133921301699026</speed>
  <fix>3d</fix>
</trkpt>
<trkpt lat="-27.2767105" lon="151.2986323">
  <ele>424.75</ele>
  <time>2026-09-01T19:55:37Z</time>
  <course>279.78</course>
  <speed>25.140964579745145</speed>
  <fix>3d</fix>
</trkpt>
<trkpt lat="-27.276717" lon="151.2986788">
  <ele>426.12</ele>
  <time>2026-09-01T19:55:37Z</time>
  <course>280.24</course>
  <speed>25.14</speed>
  <fix>3d</fix>
</trkpt>
<trkpt lat="-27.2767096" lon="151.2986248">
  <ele>424.59</ele>
  <time>2026-09-01T19:55:37Z</time>
  <course>279.39</course>
  <speed>25.148290200329726</speed>
  <fix>3d</fix>
</trkpt>
<trkpt lat="-27.2767077" lon="151.2986075">
  <ele>424.24</ele>
  <time>2026-09-01T19:55:37Z</time>
  <course>278.49</course>
  <speed>25.151989980914035</speed>
  <fix>3d</fix>
</trkpt>
<trkpt lat="-27.276717" lon="151.2986788">
  <ele>426.12</ele>
  <time>2026-09-01T19:55:37Z</time>
  <course>280.24</course>
  <speed>25.14</speed>
  <fix>3d</fix>
</trkpt>
<trkpt lat="-27.2767071" lon="151.2986005">
  <ele>424.1</ele>
  <time>2026-09-01T19:55:37Z</time>
  <course>278.15</course>
  <speed>25.155319516953067</speed>
  <fix>3d</fix>
</trkpt>
<trkpt lat="-27.2767054" lon="151.2985822">
  <ele>423.73</ele>
  <time>2026-09-01T19:55:37Z</time>
  <course>277.27</course>
  <speed>25.167161143045117</speed>
  <fix>3d</fix>
</trkpt>
<trkpt lat="-27.27671" lon="151.2986285">
  <ele>425.08</ele>
  <time>2026-09-01T19:55:37Z</time>
  <course>277.54</course>
  <speed>25.17</speed>
  <fix>3d</fix>
</trkpt>
<trkpt lat="-27.2767053" lon="151.2985812">
  <ele>423.71</ele>
  <time>2026-09-01T19:55:37Z</time>
  <course>277.22</course>
  <speed>25.165325350569184</speed>
  <fix>3d</fix>
</trkpt>
<trkpt lat="-27.2767036" lon="151.2985569">
  <ele>423.23</ele>
  <time>2026-09-01T19:55:37Z</time>
  <course>276.03</course>
  <speed>25.174433459365076</speed>
  <fix>3d</fix>
</trkpt>
<trkpt lat="-27.27671" lon="151.2986285">
  <ele>425.08</ele>
  <time>2026-09-01T19:55:37Z</time>
  <course>277.54</course>
  <speed>25.17</speed>
  <fix>3d</fix>
</trkpt>
<trkpt lat="-27.2767035" lon="151.2985558">
  <ele>423.21</ele>
  <time>2026-09-01T19:55:37Z</time>
  <course>275.97</course>
  <speed>25.173011341514147</speed>
  <fix>3d</fix>
</trkpt>
<trkpt lat="-27.2767022" lon="151.2985315">
  <ele>422.73</ele>
  <time>2026-09-01T19:55:37Z</time>
  <course>274.81</course>
  <speed>25.19253857792025</speed>
  <fix>3d</fix>
</trkpt>
<trkpt lat="-27.2767051" lon="151.298578">
  <ele>424.06</ele>
  <time>2026-09-01T19:55:37Z</time>
  <course>275.02</course>
  <speed>25.2</speed>
  <fix>3d</fix>
</trkpt>
<trkpt lat="-27.2767019" lon="151.2985239">
  <ele>422.58</ele>
  <time>2026-09-01T19:55:37Z</time>
  <course>274.45</course>
  <speed>25.195352746091885</speed>
  <fix>3d</fix>
</trkpt>
<trkpt lat="-27.2767013" lon="151.2985058">
  <ele>422.24</ele>
  <time>2026-09-01T19:55:37Z</time>
  <course>273.64</course>
  <speed>25.202073327407014</speed>
  <fix>3d</fix>
</trkpt>
<trkpt lat="-27.2767051" lon="151.298578">
  <ele>424.06</ele>
  <time>2026-09-01T19:55:37Z</time>
  <course>275.02</course>
  <speed>25.2</speed>
  <fix>3d</fix>
</trkpt>
<trkpt lat="-27.2767011" lon="151.298499">
  <ele>422.11</ele>
  <time>2026-09-01T19:55:37Z</time>
  <course>273.35</course>
  <speed>25.208381542653623</speed>
  <fix>3d</fix>
</trkpt>
<trkpt lat="-27.2767008" lon="151.2984803">
  <ele>421.75</ele>
  <time>2026-09-01T19:55:37Z</time>
  <course>272.56</course>
  <speed>25.2117849427604</speed>
  <fix>3d</fix>
</trkpt>
<trkpt lat="-27.2767021" lon="151.2985272">
  <ele>423.06</ele>
  <time>2026-09-01T19:55:37Z</time>
  <course>272.65</course>
  <speed>25.22</speed>
  <fix>3d</fix>
</trkpt>
<trkpt lat="-27.2767007" lon="151.2984726">
  <ele>421.61</ele>
  <time>2026-09-01T19:55:37Z</time>
  <course>272.23</course>
  <speed>25.220507528596645</speed>
  <fix>3d</fix>
</trkpt>
<trkpt lat="-27.2767008" lon="151.2984548">
  <ele>421.27</ele>
  <time>2026-09-01T19:55:37Z</time>
  <course>271.47</course>
  <speed>25.220446070599145</speed>
  <fix>3d</fix>
</trkpt>
<trkpt lat="-27.2767021" lon="151.2985272">
  <ele>423.06</ele>
  <time>2026-09-01T19:55:37Z</time>
  <course>272.65</course>
  <speed>25.22</speed>
  <fix>3d</fix>
</trkpt>
<trkpt lat="-27.2767008" lon="151.298448">
  <ele>421.14</ele>
  <time>2026-09-01T19:55:37Z</time>
  <course>271.17</course>
  <speed>25.2215542740728</speed>
  <fix>3d</fix>
</trkpt>
<trkpt lat="-27.2767011" lon="151.2984293">
  <ele>420.8</ele>
  <time>2026-09-01T19:55:37Z</time>
  <course>270.37</course>
  <speed>25.227376003064606</speed>
  <fix>3d</fix>
</trkpt>
<trkpt lat="-27.2767009" lon="151.2984761">
  <ele>422.09</ele>
  <time>2026-09-01T19:55:37Z</time>
  <course>270.42</course>
  <speed>25.24</speed>
  <fix>3d</fix>
</trkpt>
<trkpt lat="-27.2767013" lon="151.2984217">
  <ele>420.65</ele>
  <time>2026-09-01T19:55:37Z</time>
  <course>270.06</course>
  <speed>25.23114939910586</speed>
  <fix>3d</fix>
</trkpt>
<trkpt lat="-27.2767019" lon="151.2984039">
  <ele>420.32</ele>
  <time>2026-09-01T19:55:37Z</time>
  <course>269.32</course>
  <speed>25.232274966796</speed>
  <fix>3d</fix>
</trkpt>
<trkpt lat="-27.2767009" lon="151.2984761">
  <ele>422.09</ele>
  <time>2026-09-01T19:55:37Z</time>
  <course>270.42</course>
  <speed>25.24</speed>
  <fix>3d</fix>
</trkpt>
<trkpt lat="-27.2767021" lon="151.2983971">
  <ele>420.2</ele>
  <time>2026-09-01T19:55:37Z</time>
  <course>269.05</course>
  <speed>25.23713533664231</speed>
  <fix>3d</fix>
</trkpt>
<trkpt lat="-27.276703" lon="151.2983785">
  <ele>419.86</ele>
  <time>2026-09-01T19:55:37Z</time>
  <course>268.29</course>
  <speed>25.234028612173677</speed>
  <fix>3d</fix>
</trkpt>
<trkpt lat="-27.2767014" lon="151.2984252">
  <ele>421.14</ele>
  <time>2026-09-01T19:55:37Z</time>
  <course>268.32</course>
  <speed>25.25</speed>
  <fix>3d</fix>
</trkpt>
<trkpt lat="-27.2767033" lon="151.2983718">
  <ele>419.73</ele>
  <time>2026-09-01T19:55:37Z</time>
  <course>268.02</course>
  <speed>25.241398534946516</speed>
  <fix>3d</fix>
</trkpt>
<trkpt lat="-27.2767045" lon="151.2983532">
  <ele>419.39</ele>
  <time>2026-09-01T19:55:37Z</time>
  <course>267.28</course>
  <speed>25.24236518236752</speed>
  <fix>3d</fix>
</trkpt>
<trkpt lat="-27.2767014" lon="151.2984252">
  <ele>421.14</ele>
  <time>2026-09-01T19:55:37Z</time>
  <course>268.32</course>
  <speed>25.25</speed>
  <fix>3d</fix>
</trkpt>
<trkpt lat="-27.276705" lon="151.2983464">
  <ele>419.27</ele>
  <time>2026-09-01T19:55:37Z</time>
  <course>267.02</course>
  <speed>25.24095877735234</speed>
  <fix>3d</fix>
</trkpt>
<trkpt lat="-27.2767064" lon="151.2983279">
  <ele>418.93</ele>
  <time>2026-09-01T19:55:37Z</time>
  <course>266.32</course>
  <speed>25.237785164312655</speed>
  <fix>3d</fix>
</trkpt>
<trkpt lat="-27.2767034" lon="151.2983742">
  <ele>420.2</ele>
  <time>2026-09-01T19:55:37Z</time>
  <course>266.32</course>
  <speed>25.26</speed>
  <fix>3d</fix>
</trkpt>
<trkpt lat="-27.276707" lon="151.2983211">
  <ele>418.81</ele>
  <time>2026-09-01T19:55:37Z</time>
  <course>266.06</course>
  <speed>25.23822497720472</speed>
  <fix>3d</fix>
</trkpt>
<trkpt lat="-27.2767087" lon="151.2983026">
  <ele>418.48</ele>
  <time>2026-09-01T19:55:37Z</time>
  <course>265.35</course>
  <speed>25.249110875434802</speed>
  <fix>3d</fix>
</trkpt>
<trkpt lat="-27.2767034" lon="151.2983742">
  <ele>420.2</ele>
  <time>2026-09-01T19:55:37Z</time>
  <course>266.32</course>
  <speed>25.26</speed>
  <fix>3d</fix>
</trkpt>
<trkpt lat="-27.2767088" lon="151.2983019">
  <ele>418.47</ele>
  <time>2026-09-01T19:55:37Z</time>
  <course>265.32</course>
  <speed>25.240257526419974</speed>
  <fix>3d</fix>
</trkpt>
<trkpt lat="-27.2767114" lon="151.2982773">
  <ele>418.03</ele>
  <time>2026-09-01T19:55:37Z</time>
  <course>264.4</course>
  <speed>25.247277080905178</speed>
  <fix>3d</fix>
</trkpt>
<trkpt lat="-27.2767071" lon="151.2983233">
  <ele>419.28</ele>
  <time>2026-09-01T19:55:37Z</time>
  <course>264.4</course>
  <speed>25.27</speed>
  <fix>3d</fix>
</trkpt>
<trkpt lat="-27.2767115" lon="151.2982765">
  <ele>418.01</ele>
  <time>2026-09-01T19:55:37Z</time>
  <course>264.37</course>
  <speed>25.248526689690234</speed>
  <fix>3d</fix>
</trkpt>
<trkpt lat="-27.2767144" lon="151.2982521">
  <ele>417.58</ele>
  <time>2026-09-01T19:55:37Z</time>
  <course>263.49</course>
  <speed>25.249388111397867</speed>
  <fix>3d</fix>
</trkpt>
<trkpt lat="-27.2767071" lon="151.2983233">
  <ele>419.28</ele>
  <time>2026-09-01T19:55:37Z</time>
  <course>264.4</course>
  <speed>25.27</speed>
  <fix>3d</fix>
</trkpt>
<trkpt lat="-27.2767178" lon="151.298227">
  <ele>417.14</ele>
  <time>2026-09-01T19:55:37Z</time>
  <course>262.56</course>
  <speed>25.247742473338086</speed>
  <fix>3d</fix>
</trkpt>
<trkpt lat="-27.2767122" lon="151.2982726">
  <ele>418.38</ele>
  <time>2026-09-01T19:55:37Z</time>
  <course>262.54</course>
  <speed>25.27</speed>
  <fix>3d</fix>
</trkpt>
<trkpt lat="-27.2767215" lon="151.2982019">
  <ele>416.7</ele>
  <time>2026-09-01T19:55:37Z</time>
  <course>261.61</course>
  <speed>25.253975924594528</speed>
  <fix>3d</fix>
</trkpt>
<trkpt lat="-27.2767122" lon="151.2982726">
  <ele>418.38</ele>
  <time>2026-09-01T19:55:37Z</time>
  <course>262.54</course>
  <speed>25.27</speed>
  <fix>3d</fix>
</trkpt>
<trkpt lat="-27.2767257" lon="151.2981767">
  <ele>416.25</ele>
  <time>2026-09-01T19:55:37Z</time>
  <course>260.75</course>
  <speed>25.264813476453767</speed>
  <fix>3d</fix>
</trkpt>
<trkpt lat="-27.2767189" lon="151.298222">
  <ele>417.48</ele>
  <time>2026-09-01T19:55:37Z</time>
  <course>260.73</course>
  <speed>25.28</speed>
  <fix>3d</fix>
</trkpt>
<trkpt lat="-27.2767301" lon="151.2981516">
  <ele>415.81</ele>
  <time>2026-09-01T19:55:37Z</time>
  <course>259.92</course>
  <speed>25.279786391502597</speed>
  <fix>3d</fix>
</trkpt>
<trkpt lat="-27.2767189" lon="151.298222">
  <ele>417.48</ele>
  <time>2026-09-01T19:55:37Z</time>
  <course>260.73</course>
  <speed>25.28</speed>
  <fix>3d</fix>
</trkpt>
<trkpt lat="-27.276735" lon="151.2981264">
  <ele>415.37</ele>
  <time>2026-09-01T19:55:37Z</time>
  <course>259.03</course>
  <speed>25.281075926471168</speed>
  <fix>3d</fix>
</trkpt>
<trkpt lat="-27.2767269" lon="151.2981716">
  <ele>416.6</ele>
  <time>2026-09-01T19:55:37Z</time>
  <course>258.94</course>
  <speed>25.29</speed>
  <fix>3d</fix>
</trkpt>
<trkpt lat="-27.2767401" lon="151.2981015">
  <ele>414.94</ele>
  <time>2026-09-01T19:55:37Z</time>
  <course>258.11</course>
  <speed>25.28832932401822</speed>
  <fix>3d</fix>
</trkpt>
<trkpt lat="-27.2767269" lon="151.2981716">
  <ele>416.6</ele>
  <time>2026-09-01T19:55:37Z</time>
  <course>258.94</course>
  <speed>25.29</speed>
  <fix>3d</fix>
</trkpt>
<trkpt lat="-27.2767455" lon="151.2980769">
  <ele>414.51</ele>
  <time>2026-09-01T19:55:37Z</time>
  <course>257.18</course>
  <speed>25.304009563703534</speed>
  <fix>3d</fix>
</trkpt>
<trkpt lat="-27.2767363" lon="151.2981215">
  <ele>415.74</ele>
  <time>2026-09-01T19:55:37Z</time>
  <course>257.18</course>
  <speed>25.3</speed>
  <fix>3d</fix>
</trkpt>
<trkpt lat="-27.2767514" lon="151.2980522">
  <ele>414.08</ele>
  <time>2026-09-01T19:55:37Z</time>
  <course>256.27</course>
  <speed>25.316289222553923</speed>
  <fix>3d</fix>
</trkpt>
<trkpt lat="-27.2767363" lon="151.2981215">
  <ele>415.74</ele>
  <time>2026-09-01T19:55:37Z</time>
  <course>257.18</course>
  <speed>25.3</speed>
  <fix>3d</fix>
</trkpt>
<trkpt lat="-27.2767575" lon="151.2980275">
  <ele>413.66</ele>
  <time>2026-09-01T19:55:37Z</time>
  <course>255.36</course>
  <speed>25.325279860250312</speed>
  <fix>3d</fix>
</trkpt>
<trkpt lat="-27.2767471" lon="151.2980718">
  <ele>414.88</ele>
  <time>2026-09-01T19:55:37Z</time>
  <course>255.4</course>
  <speed>25.31</speed>
  <fix>3d</fix>
</trkpt>
<trkpt lat="-27.2767641" lon="151.298003">
  <ele>413.24</ele>
  <time>2026-09-01T19:55:37Z</time>
  <course>254.45</course>
  <speed>25.331103410629392</speed>
  <fix>3d</fix>
</trkpt>
<trkpt lat="-27.2767471" lon="151.2980718">
  <ele>414.88</ele>
  <time>2026-09-01T19:55:37Z</time>
  <course>255.4</course>
  <speed>25.31</speed>
  <fix>3d</fix>
</trkpt>
<trkpt lat="-27.276771" lon="151.2979784">
  <ele>412.81</ele>
  <time>2026-09-01T19:55:37Z</time>
  <course>253.55</course>
  <speed>25.333892318394348</speed>
  <fix>3d</fix>
</trkpt>
<trkpt lat="-27.2767592" lon="151.2980226">
  <ele>414.02</ele>
  <time>2026-09-01T19:55:37Z</time>
  <course>253.59</course>
  <speed>25.32</speed>
  <fix>3d</fix>
</trkpt>
<trkpt lat="-27.2767782" lon="151.2979541">
  <ele>412.4</ele>
  <time>2026-09-01T19:55:37Z</time>
  <course>252.65</course>
  <speed>25.34325156723186</speed>
  <fix>3d</fix>
</trkpt>
<trkpt lat="-27.2767592" lon="151.2980226">
  <ele>414.02</ele>
  <time>2026-09-01T19:55:37Z</time>
  <course>253.59</course>
  <speed>25.32</speed>
  <fix>3d</fix>
</trkpt>
<trkpt lat="-27.2767858" lon="151.29793">
  <ele>411.98</ele>
  <time>2026-09-01T19:55:37Z</time>
  <course>251.71</course>
  <speed>25.343748736128205</speed>
  <fix>3d</fix>
</trkpt>
<trkpt lat="-27.2767727" lon="151.2979737">
  <ele>413.18</ele>
  <time>2026-09-01T19:55:37Z</time>
  <course>251.76</course>
  <speed>25.33</speed>
  <fix>3d</fix>
</trkpt>
<trkpt lat="-27.2767938" lon="151.297906">
  <ele>411.56</ele>
  <time>2026-09-01T19:55:37Z</time>
  <course>250.75</course>
  <speed>25.354883158870994</speed>
  <fix>3d</fix>
</trkpt>
<trkpt lat="-27.2767727" lon="151.2979737">
  <ele>413.18</ele>
  <time>2026-09-01T19:55:37Z</time>
  <course>251.76</course>
  <speed>25.33</speed>
  <fix>3d</fix>
</trkpt>
<trkpt lat="-27.2768021" lon="151.2978821">
  <ele>411.15</ele>
  <time>2026-09-01T19:55:37Z</time>
  <course>249.82</course>
  <speed>25.360414034475067</speed>
  <fix>3d</fix>
</trkpt>
<trkpt lat="-27.2767877" lon="151.2979254">
  <ele>412.35</ele>
  <time>2026-09-01T19:55:37Z</time>
  <course>249.89</course>
  <speed>25.33</speed>
  <fix>3d</fix>
</trkpt>
<trkpt lat="-27.2768107" lon="151.2978584">
  <ele>410.74</ele>
  <time>2026-09-01T19:55:37Z</time>
  <course>248.91</course>
  <speed>25.369272752682527</speed>
  <fix>3d</fix>
</trkpt>
<trkpt lat="-27.2767877" lon="151.2979254">
  <ele>412.35</ele>
  <time>2026-09-01T19:55:37Z</time>
  <course>249.89</course>
  <speed>25.33</speed>
  <fix>3d</fix>
</trkpt>
<trkpt lat="-27.2768197" lon="151.2978349">
  <ele>410.33</ele>
  <time>2026-09-01T19:55:37Z</time>
  <course>247.93</course>
  <speed>25.37070948948807</speed>
  <fix>3d</fix>
</trkpt>
<trkpt lat="-27.2768041" lon="151.2978776">
  <ele>411.53</ele>
  <time>2026-09-01T19:55:37Z</time>
  <course>247.97</course>
  <speed>25.34</speed>
  <fix>3d</fix>
</trkpt>
<trkpt lat="-27.2768291" lon="151.2978115">
  <ele>409.93</ele>
  <time>2026-09-01T19:55:37Z</time>
  <course>246.94</course>
  <speed>25.37050452789617</speed>
  <fix>3d</fix>
</trkpt>
<trkpt lat="-27.2768041" lon="151.2978776">
  <ele>411.53</ele>
  <time>2026-09-01T19:55:37Z</time>
  <course>247.97</course>
  <speed>25.34</speed>
  <fix>3d</fix>
</trkpt>
<trkpt lat="-27.2768388" lon="151.2977884">
  <ele>409.52</ele>
  <time>2026-09-01T19:55:37Z</time>
  <course>245.96</course>
  <speed>25.37320831113007</speed>
  <fix>3d</fix>
</trkpt>
<trkpt lat="-27.2768218" lon="151.2978305">
  <ele>410.72</ele>
  <time>2026-09-01T19:55:37Z</time>
  <course>246.03</course>
  <speed>25.35</speed>
  <fix>3d</fix>
</trkpt>
<trkpt lat="-27.2768489" lon="151.2977654">
  <ele>409.11</ele>
  <time>2026-09-01T19:55:37Z</time>
  <course>244.95</course>
  <speed>25.379460199145292</speed>
  <fix>3d</fix>
</trkpt>
<trkpt lat="-27.2768218" lon="151.2978305">
  <ele>410.72</ele>
  <time>2026-09-01T19:55:37Z</time>
  <course>246.03</course>
  <speed>25.35</speed>
  <fix>3d</fix>
</trkpt>
<trkpt lat="-27.2768594" lon="151.2977426">
  <ele>408.71</ele>
  <time>2026-09-01T19:55:37Z</time>
  <course>243.94</course>
  <speed>25.384581934709896</speed>
  <fix>3d</fix>
</trkpt>
<trkpt lat="-27.2768411" lon="151.297784">
  <ele>409.9</ele>
  <time>2026-09-01T19:55:37Z</time>
  <course>244.04</course>
  <speed>25.35</speed>
  <fix>3d</fix>
</trkpt>
<trkpt lat="-27.2768702" lon="151.29772">
  <ele>408.3</ele>
  <time>2026-09-01T19:55:37Z</time>
  <course>242.9</course>
  <speed>25.38485572147299</speed>
  <fix>3d</fix>
</trkpt>
<trkpt lat="-27.2768411" lon="151.297784">
  <ele>409.9</ele>
  <time>2026-09-01T19:55:37Z</time>
  <course>244.04</course>
  <speed>25.35</speed>
  <fix>3d</fix>
</trkpt>
<trkpt lat="-27.2768814" lon="151.2976976">
  <ele>407.9</ele>
  <time>2026-09-01T19:55:37Z</time>
  <course>241.88</course>
  <speed>25.39365668823614</speed>
  <fix>3d</fix>
</trkpt>
<trkpt lat="-27.2768618" lon="151.2977383">
  <ele>409.09</ele>
  <time>2026-09-01T19:55:37Z</time>
  <course>242.01</course>
  <speed>25.35</speed>
  <fix>3d</fix>
</trkpt>
<trkpt lat="-27.276893" lon="151.2976755">
  <ele>407.49</ele>
  <time>2026-09-01T19:55:37Z</time>
  <course>240.87</course>
  <speed>25.40239358800662</speed>
  <fix>3d</fix>
</trkpt>
<trkpt lat="-27.2768618" lon="151.2977383">
  <ele>409.09</ele>
  <time>2026-09-01T19:55:37Z</time>
  <course>242.01</course>
  <speed>25.35</speed>
  <fix>3d</fix>
</trkpt>
<trkpt lat="-27.2769049" lon="151.2976535">
  <ele>407.09</ele>
  <time>2026-09-01T19:55:37Z</time>
  <course>239.79</course>
  <speed>25.39756090651226</speed>
  <fix>3d</fix>
</trkpt>
<trkpt lat="-27.2768839" lon="151.2976934">
  <ele>408.28</ele>
  <time>2026-09-01T19:55:37Z</time>
  <course>239.92</course>
  <speed>25.35</speed>
  <fix>3d</fix>
</trkpt>
<trkpt lat="-27.2769172" lon="151.2976319">
  <ele>406.68</ele>
  <time>2026-09-01T19:55:37Z</time>
  <course>238.71</course>
  <speed>25.398555077011764</speed>
  <fix>3d</fix>
</trkpt>
<trkpt lat="-27.2768839" lon="151.2976934">
  <ele>408.28</ele>
  <time>2026-09-01T19:55:37Z</time>
  <course>239.92</course>
  <speed>25.35</speed>
  <fix>3d</fix>
</trkpt>
<trkpt lat="-27.2769299" lon="151.2976105">
  <ele>406.28</ele>
  <time>2026-09-01T19:55:37Z</time>
  <course>237.63</course>
  <speed>25.400551175122164</speed>
  <fix>3d</fix>
</trkpt>
<trkpt lat="-27.2769074" lon="151.2976495">
  <ele>407.47</ele>
  <time>2026-09-01T19:55:37Z</time>
  <course>237.79</course>
  <speed>25.35</speed>
  <fix>3d</fix>
</trkpt>
<trkpt lat="-27.2769429" lon="151.2975894">
  <ele>405.87</ele>
  <time>2026-09-01T19:55:37Z</time>
  <course>236.57</course>
  <speed>25.41203258301075</speed>
  <fix>3d</fix>
</trkpt>
<trkpt lat="-27.2769074" lon="151.2976495">
  <ele>407.47</ele>
  <time>2026-09-01T19:55:37Z</time>
  <course>237.79</course>
  <speed>25.35</speed>
  <fix>3d</fix>
</trkpt>
<trkpt lat="-27.2769563" lon="151.2975685">
  <ele>405.46</ele>
  <time>2026-09-01T19:55:37Z</time>
  <course>235.47</course>
  <speed>25.410952363105167</speed>
  <fix>3d</fix>
</trkpt>
<trkpt lat="-27.2769324" lon="151.2976067">
  <ele>406.66</ele>
  <time>2026-09-01T19:55:37Z</time>
  <course>235.6</course>
  <speed>25.35</speed>
  <fix>3d</fix>
</trkpt>
<trkpt lat="-27.27697" lon="151.297548">
  <ele>405.05</ele>
  <time>2026-09-01T19:55:37Z</time>
  <course>234.31</course>
  <speed>25.411542652896934</speed>
  <fix>3d</fix>
</trkpt>
<trkpt lat="-27.2769324" lon="151.2976067">
  <ele>406.66</ele>
  <time>2026-09-01T19:55:37Z</time>
  <course>235.6</course>
  <speed>25.35</speed>
  <fix>3d</fix>
</trkpt>
<trkpt lat="-27.2769842" lon="151.2975278">
  <ele>404.65</ele>
  <time>2026-09-01T19:55:37Z</time>
  <course>233.11</course>
  <speed>25.412595302329905</speed>
  <fix>3d</fix>
</trkpt>
<trkpt lat="-27.2769588" lon="151.297565">
  <ele>405.86</ele>
  <time>2026-09-01T19:55:37Z</time>
  <course>233.37</course>
  <speed>25.34</speed>
  <fix>3d</fix>
</trkpt>
<trkpt lat="-27.2769987" lon="151.2975077">
  <ele>404.23</ele>
  <time>2026-09-01T19:55:37Z</time>
  <course>231.95</course>
  <speed>25.42428956726225</speed>
  <fix>3d</fix>
</trkpt>
<trkpt lat="-27.2769588" lon="151.297565">
  <ele>405.86</ele>
  <time>2026-09-01T19:55:37Z</time>
  <course>233.37</course>
  <speed>25.34</speed>
  <fix>3d</fix>
</trkpt>
<trkpt lat="-27.2770136" lon="151.2974882">
  <ele>403.83</ele>
  <time>2026-09-01T19:55:37Z</time>
  <course>230.78</course>
  <speed>25.424958210388468</speed>
  <fix>3d</fix>
</trkpt>
<trkpt lat="-27.2769868" lon="151.2975245">
  <ele>405.05</ele>
  <time>2026-09-01T19:55:37Z</time>
  <course>231.08</course>
  <speed>25.34</speed>
  <fix>3d</fix>
</trkpt>
<trkpt lat="-27.2770287" lon="151.297469">
  <ele>403.42</ele>
  <time>2026-09-01T19:55:37Z</time>
  <course>229.58</course>
  <speed>25.42905818153712</speed>
  <fix>3d</fix>
</trkpt>
<trkpt lat="-27.2769868" lon="151.2975245">
  <ele>405.05</ele>
  <time>2026-09-01T19:55:37Z</time>
  <course>231.08</course>
  <speed>25.34</speed>
  <fix>3d</fix>
</trkpt>
<trkpt lat="-27.2770443" lon="151.2974502">
  <ele>403.02</ele>
  <time>2026-09-01T19:55:37Z</time>
  <course>228.36</course>
  <speed>25.42974046269446</speed>
  <fix>3d</fix>
</trkpt>
<trkpt lat="-27.2770161" lon="151.2974853">
  <ele>404.23</ele>
  <time>2026-09-01T19:55:37Z</time>
  <course>228.71</course>
  <speed>25.34</speed>
  <fix>3d</fix>
</trkpt>
<trkpt lat="-27.2770602" lon="151.2974318">
  <ele>402.62</ele>
  <time>2026-09-01T19:55:37Z</time>
  <course>227.08</course>
  <speed>25.44905695698762</speed>
  <fix>3d</fix>
</trkpt>
<trkpt lat="-27.2770161" lon="151.2974853">
  <ele>404.23</ele>
  <time>2026-09-01T19:55:37Z</time>
  <course>228.71</course>
  <speed>25.34</speed>
  <fix>3d</fix>
</trkpt>
<trkpt lat="-27.2770764" lon="151.2974138">
  <ele>402.22</ele>
  <time>2026-09-01T19:55:37Z</time>
  <course>225.77</course>
  <speed>25.459866456837513</speed>
  <fix>3d</fix>
</trkpt>
<trkpt lat="-27.2770468" lon="151.2974476">
  <ele>403.43</ele>
  <time>2026-09-01T19:55:38Z</time>
  <course>226.27</course>
  <speed>25.35</speed>
  <fix>3d</fix>
</trkpt>
<trkpt lat="-27.277093" lon="151.2973962">
  <ele>401.83</ele>
  <time>2026-09-01T19:55:38Z</time>
  <course>224.37</course>
  <speed>25.469992147623447</speed>
  <fix>3d</fix>
</trkpt>
<trkpt lat="-27.2770468" lon="151.2974476">
  <ele>403.43</ele>
  <time>2026-09-01T19:55:38Z</time>
  <course>226.27</course>
  <speed>25.35</speed>
  <fix>3d</fix>
</trkpt>
<trkpt lat="-27.27711" lon="151.297379">
  <ele>401.45</ele>
  <time>2026-09-01T19:55:38Z</time>
  <course>223.01</course>
  <speed>25.48793636213022</speed>
  <fix>3d</fix>
</trkpt>
<trkpt lat="-27.2770791" lon="151.2974113">
  <ele>402.63</ele>
  <time>2026-09-01T19:55:38Z</time>
  <course>223.72</course>
  <speed>25.37</speed>
  <fix>3d</fix>
</trkpt>
<trkpt lat="-27.2771274" lon="151.2973623">
  <ele>401.07</ele>
  <time>2026-09-01T19:55:38Z</time>
  <course>221.61</course>
  <speed>25.49986666631808</speed>
  <fix>3d</fix>
</trkpt>
<trkpt lat="-27.2770791" lon="151.2974113">
  <ele>402.63</ele>
  <time>2026-09-01T19:55:38Z</time>
  <course>223.72</course>
  <speed>25.37</speed>
  <fix>3d</fix>
</trkpt>
<trkpt lat="-27.2771451" lon="151.2973461">
  <ele>400.71</ele>
  <time>2026-09-01T19:55:38Z</time>
  <course>220.16</course>
  <speed>25.52204537257937</speed>
  <fix>3d</fix>
</trkpt>
<trkpt lat="-27.2771128" lon="151.2973767">
  <ele>401.86</ele>
  <time>2026-09-01T19:55:38Z</time>
  <course>221.02</course>
  <speed>25.4</speed>
  <fix>3d</fix>
</trkpt>
<trkpt lat="-27.2771632" lon="151.2973304">
  <ele>400.35</ele>
  <time>2026-09-01T19:55:38Z</time>
  <course>218.7</course>
  <speed>25.534075272075157</speed>
  <fix>3d</fix>
</trkpt>
<trkpt lat="-27.2771128" lon="151.2973767">
  <ele>401.86</ele>
  <time>2026-09-01T19:55:38Z</time>
  <course>221.02</course>
  <speed>25.4</speed>
  <fix>3d</fix>
</trkpt>
<trkpt lat="-27.2771817" lon="151.2973152">
  <ele>400.01</ele>
  <time>2026-09-01T19:55:38Z</time>
  <course>217.26</course>
  <speed>25.54076936977428</speed>
  <fix>3d</fix>
</trkpt>
<trkpt lat="-27.2771479" lon="151.297344">
  <ele>401.12</ele>
  <time>2026-09-01T19:55:38Z</time>
  <course>218.2</course>
  <speed>25.43</speed>
  <fix>3d</fix>
</trkpt>
<trkpt lat="-27.2772005" lon="151.2973005">
  <ele>399.69</ele>
  <time>2026-09-01T19:55:38Z</time>
  <course>215.77</course>
  <speed>25.558390011892374</speed>
  <fix>3d</fix>
</trkpt>
<trkpt lat="-27.2771479" lon="151.297344">
  <ele>401.12</ele>
  <time>2026-09-01T19:55:38Z</time>
  <course>218.2</course>
  <speed>25.43</speed>
  <fix>3d</fix>
</trkpt>
<trkpt lat="-27.2772196" lon="151.2972863">
  <ele>399.38</ele>
  <time>2026-09-01T19:55:38Z</time>
  <course>214.26</course>
  <speed>25.565298746543135</speed>
  <fix>3d</fix>
</trkpt>
<trkpt lat="-27.2771846" lon="151.2973132">
  <ele>400.43</ele>
  <time>2026-09-01T19:55:38Z</time>
  <course>215.29</course>
  <speed>25.46</speed>
  <fix>3d</fix>
</trkpt>
<trkpt lat="-27.2772391" lon="151.2972728">
  <ele>399.08</ele>
  <time>2026-09-01T19:55:38Z</time>
  <course>212.76</course>
  <speed>25.56192676618881</speed>
  <fix>3d</fix>
</trkpt>
<trkpt lat="-27.2771846" lon="151.2973132">
  <ele>400.43</ele>
  <time>2026-09-01T19:55:38Z</time>
  <course>215.29</course>
  <speed>25.46</speed>
  <fix>3d</fix>
</trkpt>
<trkpt lat="-27.2772589" lon="151.2972598">
  <ele>398.8</ele>
  <time>2026-09-01T19:55:38Z</time>
  <course>211.3</course>
  <speed>25.56241968202541</speed>
  <fix>3d</fix>
</trkpt>
<trkpt lat="-27.2772227" lon="151.2972845">
  <ele>399.79</ele>
  <time>2026-09-01T19:55:38Z</time>
  <course>212.3</course>
  <speed>25.47</speed>
  <fix>3d</fix>
</trkpt>
<trkpt lat="-27.277279" lon="151.2972474">
  <ele>398.53</ele>
  <time>2026-09-01T19:55:38Z</time>
  <course>209.82</course>
  <speed>25.55883604548533</speed>
  <fix>3d</fix>
</trkpt>
<trkpt lat="-27.2772227" lon="151.2972845">
  <ele>399.79</ele>
  <time>2026-09-01T19:55:38Z</time>
  <course>212.3</course>
  <speed>25.47</speed>
  <fix>3d</fix>
</trkpt>
<trkpt lat="-27.2772993" lon="151.2972356">
  <ele>398.27</ele>
  <time>2026-09-01T19:55:38Z</time>
  <course>208.33</course>
  <speed>25.549326801307313</speed>
  <fix>3d</fix>
</trkpt>
<trkpt lat="-27.277262" lon="151.2972581">
  <ele>399.2</ele>
  <time>2026-09-01T19:55:38Z</time>
  <course>209.31</course>
  <speed>25.48</speed>
  <fix>3d</fix>
</trkpt>
<trkpt lat="-27.2773199" lon="151.2972243">
  <ele>398.03</ele>
  <time>2026-09-01T19:55:38Z</time>
  <course>206.88</course>
  <speed>25.543570619629513</speed>
  <fix>3d</fix>
</trkpt>
<trkpt lat="-27.277262" lon="151.2972581">
  <ele>399.2</ele>
  <time>2026-09-01T19:55:38Z</time>
  <course>209.31</course>
  <speed>25.48</speed>
  <fix>3d</fix>
</trkpt>
<trkpt lat="-27.2773408" lon="151.2972137">
  <ele>397.79</ele>
  <time>2026-09-01T19:55:38Z</time>
  <course>205.46</course>
  <speed>25.53619587957455</speed>
  <fix>3d</fix>
</trkpt>
<trkpt lat="-27.2773025" lon="151.2972341">
  <ele>398.67</ele>
  <time>2026-09-01T19:55:38Z</time>
  <course>206.34</course>
  <speed>25.47</speed>
  <fix>3d</fix>
</trkpt>
<trkpt lat="-27.2773619" lon="151.2972037">
  <ele>397.57</ele>
  <time>2026-09-01T19:55:38Z</time>
  <course>204.03</course>
  <speed>25.517337243529155</speed>
  <fix>3d</fix>
</trkpt>
<trkpt lat="-27.2773025" lon="151.2972341">
  <ele>398.67</ele>
  <time>2026-09-01T19:55:38Z</time>
  <course>206.34</course>
  <speed>25.47</speed>
  <fix>3d</fix>
</trkpt>
<trkpt lat="-27.2773829" lon="151.2971943">
  <ele>397.36</ele>
  <time>2026-09-01T19:55:38Z</time>
  <course>202.62</course>
  <speed>25.504842677421088</speed>
  <fix>3d</fix>
</trkpt>
<trkpt lat="-27.277344" lon="151.2972124">
  <ele>398.19</ele>
  <time>2026-09-01T19:55:38Z</time>
  <course>203.42</course>
  <speed>25.46</speed>
  <fix>3d</fix>
</trkpt>
<trkpt lat="-27.2774044" lon="151.2971855">
  <ele>397.16</ele>
  <time>2026-09-01T19:55:38Z</time>
  <course>201.25</course>
  <speed>25.479607532299237</speed>
  <fix>3d</fix>
</trkpt>
<trkpt lat="-27.277344" lon="151.2972124">
  <ele>398.19</ele>
  <time>2026-09-01T19:55:38Z</time>
  <course>203.42</course>
  <speed>25.46</speed>
  <fix>3d</fix>
</trkpt>
<trkpt lat="-27.277426" lon="151.2971772">
  <ele>396.96</ele>
  <time>2026-09-01T19:55:38Z</time>
  <course>199.89</course>
  <speed>25.463039881365304</speed>
  <fix>3d</fix>
</trkpt>
<trkpt lat="-27.2773864" lon="151.2971931">
  <ele>397.75</ele>
  <time>2026-09-01T19:55:38Z</time>
  <course>200.56</course>
  <speed>25.43</speed>
  <fix>3d</fix>
</trkpt>
<trkpt lat="-27.2774478" lon="151.2971696">
  <ele>396.78</ele>
  <time>2026-09-01T19:55:38Z</time>
  <course>198.51</course>
  <speed>25.432225620263754</speed>
  <fix>3d</fix>
</trkpt>
<trkpt lat="-27.2773864" lon="151.2971931">
  <ele>397.75</ele>
  <time>2026-09-01T19:55:38Z</time>
  <course>200.56</course>
  <speed>25.43</speed>
  <fix>3d</fix>
</trkpt>
<trkpt lat="-27.2774698" lon="151.2971625">
  <ele>396.6</ele>
  <time>2026-09-01T19:55:38Z</time>
  <course>197.1</course>
  <speed>25.415499208160362</speed>
  <fix>3d</fix>
</trkpt>
<trkpt lat="-27.2774294" lon="151.2971763">
  <ele>397.35</ele>
  <time>2026-09-01T19:55:38Z</time>
  <course>197.79</course>
  <speed>25.39</speed>
  <fix>3d</fix>
</trkpt>
<trkpt lat="-27.2774919" lon="151.297156">
  <ele>396.42</ele>
  <time>2026-09-01T19:55:38Z</time>
  <course>195.77</course>
  <speed>25.383790103134714</speed>
  <fix>3d</fix>
</trkpt>
<trkpt lat="-27.2774294" lon="151.2971763">
  <ele>397.35</ele>
  <time>2026-09-01T19:55:38Z</time>
  <course>197.79</course>
  <speed>25.39</speed>
  <fix>3d</fix>
</trkpt>
<trkpt lat="-27.277514" lon="151.2971501">
  <ele>396.25</ele>
  <time>2026-09-01T19:55:38Z</time>
  <course>194.46</course>
  <speed>25.35612154884891</speed>
  <fix>3d</fix>
</trkpt>
<trkpt lat="-27.2774731" lon="151.2971618">
  <ele>396.97</ele>
  <time>2026-09-01T19:55:38Z</time>
  <course>195.09</course>
  <speed>25.35</speed>
  <fix>3d</fix>
</trkpt>
<trkpt lat="-27.2775364" lon="151.2971447">
  <ele>396.09</ele>
  <time>2026-09-01T19:55:38Z</time>
  <course>193.16</course>
  <speed>25.33237651701869</speed>
  <fix>3d</fix>
</trkpt>
<trkpt lat="-27.2774731" lon="151.2971618">
  <ele>396.97</ele>
  <time>2026-09-01T19:55:38Z</time>
  <course>195.09</course>
  <speed>25.35</speed>
  <fix>3d</fix>
</trkpt>
<trkpt lat="-27.2775587" lon="151.29714">
  <ele>395.93</ele>
  <time>2026-09-01T19:55:38Z</time>
  <course>191.9</course>
  <speed>25.306119813199334</speed>
  <fix>3d</fix>
</trkpt>
<trkpt lat="-27.2775174" lon="151.2971496">
  <ele>396.63</ele>
  <time>2026-09-01T19:55:38Z</time>
  <course>192.43</course>
  <speed>25.3</speed>
  <fix>3d</fix>
</trkpt>
<trkpt lat="-27.277581" lon="151.2971358">
  <ele>395.77</ele>
  <time>2026-09-01T19:55:38Z</time>
  <course>190.63</course>
  <speed>25.284155117385275</speed>
  <fix>3d</fix>
</trkpt>
<trkpt lat="-27.2775174" lon="151.2971496">
  <ele>396.63</ele>
  <time>2026-09-01T19:55:38Z</time>
  <course>192.43</course>
  <speed>25.3</speed>
  <fix>3d</fix>
</trkpt>
<trkpt lat="-27.2776033" lon="151.2971322">
  <ele>395.62</ele>
  <time>2026-09-01T19:55:38Z</time>
  <course>189.27</course>
  <speed>25.251861317534594</speed>
  <fix>3d</fix>
</trkpt>
<trkpt lat="-27.2775619" lon="151.2971398">
  <ele>396.3</ele>
  <time>2026-09-01T19:55:38Z</time>
  <course>189.83</course>
  <speed>25.25</speed>
  <fix>3d</fix>
</trkpt>
<trkpt lat="-27.2776257" lon="151.2971292">
  <ele>395.47</ele>
  <time>2026-09-01T19:55:38Z</time>
  <course>187.93</course>
  <speed>25.221469029380504</speed>
  <fix>3d</fix>
</trkpt>
<trkpt lat="-27.2775619" lon="151.2971398">
  <ele>396.3</ele>
  <time>2026-09-01T19:55:38Z</time>
  <course>189.83</course>
  <speed>25.25</speed>
  <fix>3d</fix>
</trkpt>
<trkpt lat="-27.277648" lon="151.2971268">
  <ele>395.33</ele>
  <time>2026-09-01T19:55:38Z</time>
  <course>186.64</course>
  <speed>25.185396562293796</speed>
  <fix>3d</fix>
</trkpt>
<trkpt lat="-27.2776068" lon="151.2971322">
  <ele>395.98</ele>
  <time>2026-09-01T19:55:38Z</time>
  <course>187.25</course>
  <speed>25.21</speed>
  <fix>3d</fix>
</trkpt>
<trkpt lat="-27.2776704" lon="151.2971249">
  <ele>395.2</ele>
  <time>2026-09-01T19:55:38Z</time>
  <course>185.35</course>
  <speed>25.16284960015459</speed>
  <fix>3d</fix>
</trkpt>
<trkpt lat="-27.2776068" lon="151.2971322">
  <ele>395.98</ele>
  <time>2026-09-01T19:55:38Z</time>
  <course>187.25</course>
  <speed>25.21</speed>
  <fix>3d</fix>
</trkpt>
<trkpt lat="-27.2776928" lon="151.2971236">
  <ele>395.06</ele>
  <time>2026-09-01T19:55:38Z</time>
  <course>184.1</course>
  <speed>25.132363597560815</speed>
  <fix>3d</fix>
</trkpt>
<trkpt lat="-27.2776519" lon="151.2971269">
  <ele>395.68</ele>
  <time>2026-09-01T19:55:38Z</time>
  <course>184.65</course>
  <speed>25.16</speed>
  <fix>3d</fix>
</trkpt>
<trkpt lat="-27.2777152" lon="151.2971229">
  <ele>394.93</ele>
  <time>2026-09-01T19:55:38Z</time>
  <course>182.89</course>
  <speed>25.10518074023766</speed>
  <fix>3d</fix>
</trkpt>
<trkpt lat="-27.2776519" lon="151.2971269">
  <ele>395.68</ele>
  <time>2026-09-01T19:55:38Z</time>
  <course>184.65</course>
  <speed>25.16</speed>
  <fix>3d</fix>
</trkpt>
<trkpt lat="-27.2777376" lon="151.2971227">
  <ele>394.81</ele>
  <time>2026-09-01T19:55:38Z</time>
  <course>181.57</course>
  <speed>25.080017942577314</speed>
  <fix>3d</fix>
</trkpt>
<trkpt lat="-27.2776969" lon="151.297124">
  <ele>395.4</ele>
  <time>2026-09-01T19:55:38Z</time>
  <course>182.09</course>
  <speed>25.12</speed>
  <fix>3d</fix>
</trkpt>
<trkpt lat="-27.27776" lon="151.2971231">
  <ele>394.68</ele>
  <time>2026-09-01T19:55:38Z</time>
  <course>180.25</course>
  <speed>25.05694714046386</speed>
  <fix>3d</fix>
</trkpt>
<trkpt lat="-27.2776969" lon="151.297124">
  <ele>395.4</ele>
  <time>2026-09-01T19:55:38Z</time>
  <course>182.09</course>
  <speed>25.12</speed>
  <fix>3d</fix>
</trkpt>
<trkpt lat="-27.2777823" lon="151.2971239">
  <ele>394.56</ele>
  <time>2026-09-01T19:55:38Z</time>
  <course>178.94</course>
  <speed>25.025978502348316</speed>
  <fix>3d</fix>
</trkpt>
<trkpt lat="-27.277742" lon="151.2971232">
  <ele>395.13</ele>
  <time>2026-09-01T19:55:38Z</time>
  <course>179.55</course>
  <speed>25.08</speed>
  <fix>3d</fix>
</trkpt>
<trkpt lat="-27.2778046" lon="151.2971254">
  <ele>394.44</ele>
  <time>2026-09-01T19:55:38Z</time>
  <course>177.71</course>
  <speed>25.007170971543342</speed>
  <fix>3d</fix>
</trkpt>
<trkpt lat="-27.277742" lon="151.2971232">
  <ele>395.13</ele>
  <time>2026-09-01T19:55:38Z</time>
  <course>179.55</course>
  <speed>25.08</speed>
  <fix>3d</fix>
</trkpt>
<trkpt lat="-27.2778269" lon="151.2971274">
  <ele>394.33</ele>
  <time>2026-09-01T19:55:38Z</time>
  <course>176.5</course>
  <speed>24.990592229877226</speed>
  <fix>3d</fix>
</trkpt>
<trkpt lat="-27.277787" lon="151.2971246">
  <ele>394.87</ele>
  <time>2026-09-01T19:55:38Z</time>
  <course>177.03</course>
  <speed>25.05</speed>
  <fix>3d</fix>
</trkpt>
<trkpt lat="-27.2778489" lon="151.29713">
  <ele>394.21</ele>
  <time>2026-09-01T19:55:38Z</time>
  <course>175.23</course>
  <speed>24.975203702872978</speed>
  <fix>3d</fix>
</trkpt>
<trkpt lat="-27.277787" lon="151.2971246">
  <ele>394.87</ele>
  <time>2026-09-01T19:55:38Z</time>
  <course>177.03</course>
  <speed>25.05</speed>
  <fix>3d</fix>
</trkpt>
<trkpt lat="-27.2778712" lon="151.2971331">
  <ele>394.1</ele>
  <time>2026-09-01T19:55:38Z</time>
  <course>173.94</course>
  <speed>24.97434884036018</speed>
  <fix>3d</fix>
</trkpt>
<trkpt lat="-27.2778319" lon="151.2971284">
  <ele>394.63</ele>
  <time>2026-09-01T19:55:38Z</time>
  <course>174.5</course>
  <speed>25.02</speed>
  <fix>3d</fix>
</trkpt>
<trkpt lat="-27.2778935" lon="151.2971368">
  <ele>393.99</ele>
  <time>2026-09-01T19:55:38Z</time>
  <course>172.64</course>
  <speed>24.964929401061806</speed>
  <fix>3d</fix>
</trkpt>
<trkpt lat="-27.2778319" lon="151.2971284">
  <ele>394.63</ele>
  <time>2026-09-01T19:55:38Z</time>
  <course>174.5</course>
  <speed>25.02</speed>
  <fix>3d</fix>
</trkpt>
<trkpt lat="-27.2779157" lon="151.2971411">
  <ele>393.89</ele>
  <time>2026-09-01T19:55:38Z</time>
  <course>171.39</course>
  <speed>24.966173114836803</speed>
  <fix>3d</fix>
</trkpt>
<trkpt lat="-27.2778765" lon="151.2971343">
  <ele>394.4</ele>
  <time>2026-09-01T19:55:38Z</time>
  <course>171.96</course>
  <speed>25.0</speed>
  <fix>3d</fix>
</trkpt>
<trkpt lat="-27.277938" lon="151.2971459">
  <ele>393.78</ele>
  <time>2026-09-01T19:55:38Z</time>
  <course>170.1</course>
  <speed>24.961810831748565</speed>
  <fix>3d</fix>
</trkpt>
<trkpt lat="-27.2778765" lon="151.2971343">
  <ele>394.4</ele>
  <time>2026-09-01T19:55:38Z</time>
  <course>171.96</course>
  <speed>25.0</speed>
  <fix>3d</fix>
</trkpt>
<trkpt lat="-27.2779601" lon="151.2971513">
  <ele>393.68</ele>
  <time>2026-09-01T19:55:38Z</time>
  <course>168.84</course>
  <speed>24.96783731122902</speed>
  <fix>3d</fix>
</trkpt>
<trkpt lat="-27.2779208" lon="151.2971425">
  <ele>394.18</ele>
  <time>2026-09-01T19:55:38Z</time>
  <course>169.42</course>
  <speed>24.99</speed>
  <fix>3d</fix>
</trkpt>
<trkpt lat="-27.277982" lon="151.2971572">
  <ele>393.58</ele>
  <time>2026-09-01T19:55:38Z</time>
  <course>167.55</course>
  <speed>24.976318784000178</speed>
  <fix>3d</fix>
</trkpt>
<trkpt lat="-27.2779208" lon="151.2971425">
  <ele>394.18</ele>
  <time>2026-09-01T19:55:38Z</time>
  <course>169.42</course>
  <speed>24.99</speed>
  <fix>3d</fix>
</trkpt>
<trkpt lat="-27.2780045" lon="151.2971639">
  <ele>393.48</ele>
  <time>2026-09-01T19:55:38Z</time>
  <course>166.26</course>
  <speed>24.97340185076915</speed>
  <fix>3d</fix>
</trkpt>
<trkpt lat="-27.2779647" lon="151.2971528">
  <ele>393.97</ele>
  <time>2026-09-01T19:55:38Z</time>
  <course>166.89</course>
  <speed>24.98</speed>
  <fix>3d</fix>
</trkpt>
<trkpt lat="-27.278026" lon="151.2971709">
  <ele>393.38</ele>
  <time>2026-09-01T19:55:38Z</time>
  <course>165.05</course>
  <speed>24.98491745033391</speed>
  <fix>3d</fix>
</trkpt>
<trkpt lat="-27.2779647" lon="151.2971528">
  <ele>393.97</ele>
  <time>2026-09-01T19:55:38Z</time>
  <course>166.89</course>
  <speed>24.98</speed>
  <fix>3d</fix>
</trkpt>
<trkpt lat="-27.2780475" lon="151.2971784">
  <ele>393.29</ele>
  <time>2026-09-01T19:55:38Z</time>
  <course>163.74</course>
  <speed>24.979897918126085</speed>
  <fix>3d</fix>
</trkpt>
<trkpt lat="-27.2780082" lon="151.2971654">
  <ele>393.78</ele>
  <time>2026-09-01T19:55:38Z</time>
  <course>164.34</course>
  <speed>24.97</speed>
  <fix>3d</fix>
</trkpt>
<trkpt lat="-27.2780687" lon="151.2971865">
  <ele>393.21</ele>
  <time>2026-09-01T19:55:38Z</time>
  <course>162.43</course>
  <speed>24.987278763402788</speed>
  <fix>3d</fix>
</trkpt>
<trkpt lat="-27.2780082" lon="151.2971654">
  <ele>393.78</ele>
  <time>2026-09-01T19:55:38Z</time>
  <course>164.34</course>
  <speed>24.97</speed>
  <fix>3d</fix>
</trkpt>
<trkpt lat="-27.2780897" lon="151.2971951">
  <ele>393.12</ele>
  <time>2026-09-01T19:55:38Z</time>
  <course>161.12</course>
  <speed>24.978943132166343</speed>
  <fix>3d</fix>
</trkpt>
<trkpt lat="-27.2780511" lon="151.2971801">
  <ele>393.59</ele>
  <time>2026-09-01T19:55:38Z</time>
  <course>161.79</course>
  <speed>24.97</speed>
  <fix>3d</fix>
</trkpt>
<trkpt lat="-27.2781108" lon="151.2972042">
  <ele>393.04</ele>
  <time>2026-09-01T19:55:38Z</time>
  <course>159.81</course>
  <speed>24.983452523620507</speed>
  <fix>3d</fix>
</trkpt>
<trkpt lat="-27.2780511" lon="151.2971801">
  <ele>393.59</ele>
  <time>2026-09-01T19:55:38Z</time>
  <course>161.79</course>
  <speed>24.97</speed>
  <fix>3d</fix>
</trkpt>
<trkpt lat="-27.2781314" lon="151.2972139">
  <ele>392.96</ele>
  <time>2026-09-01T19:55:38Z</time>
  <course>158.43</course>
  <speed>24.986326260577002</speed>
  <fix>3d</fix>
</trkpt>
<trkpt lat="-27.2780934" lon="151.2971969">
  <ele>393.41</ele>
  <time>2026-09-01T19:55:38Z</time>
  <course>159.22</course>
  <speed>24.98</speed>
  <fix>3d</fix>
</trkpt>
<trkpt lat="-27.2781514" lon="151.2972238">
  <ele>392.89</ele>
  <time>2026-09-01T19:55:38Z</time>
  <course>157.16</course>
  <speed>24.985423750659102</speed>
  <fix>3d</fix>
</trkpt>
<trkpt lat="-27.2780934" lon="151.2971969">
  <ele>393.41</ele>
  <time>2026-09-01T19:55:38Z</time>
  <course>159.22</course>
  <speed>24.98</speed>
  <fix>3d</fix>
</trkpt>
<trkpt lat="-27.2781716" lon="151.2972345">
  <ele>392.82</ele>
  <time>2026-09-01T19:55:38Z</time>
  <course>155.85</course>
  <speed>24.983786742605695</speed>
  <fix>3d</fix>
</trkpt>
<trkpt lat="-27.2781351" lon="151.297216">
  <ele>393.24</ele>
  <time>2026-09-01T19:55:38Z</time>
  <course>156.58</course>
  <speed>24.98</speed>
  <fix>3d</fix>
</trkpt>
<trkpt lat="-27.2781916" lon="151.2972457">
  <ele>392.75</ele>
  <time>2026-09-01T19:55:38Z</time>
  <course>154.51</course>
  <speed>24.991336498874965</speed>
  <fix>3d</fix>
</trkpt>
<trkpt lat="-27.2781351" lon="151.297216">
  <ele>393.24</ele>
  <time>2026-09-01T19:55:38Z</time>
  <course>156.58</course>
  <speed>24.98</speed>
  <fix>3d</fix>
</trkpt>
<trkpt lat="-27.2782114" lon="151.2972574">
  <ele>392.69</ele>
  <time>2026-09-01T19:55:38Z</time>
  <course>153.19</course>
  <speed>24.989847938713034</speed>
  <fix>3d</fix>
</trkpt>
<trkpt lat="-27.2781759" lon="151.2972371">
  <ele>393.08</ele>
  <time>2026-09-01T19:55:38Z</time>
  <course>153.91</course>
  <speed>25.0</speed>
  <fix>3d</fix>
</trkpt>
<trkpt lat="-27.2782309" lon="151.2972697">
  <ele>392.63</ele>
  <time>2026-09-01T19:55:38Z</time>
  <course>151.86</course>
  <speed>24.992999019725502</speed>
  <fix>3d</fix>
</trkpt>
<trkpt lat="-27.2781759" lon="151.2972371">
  <ele>393.08</ele>
  <time>2026-09-01T19:55:38Z</time>
  <course>153.91</course>
  <speed>25.0</speed>
  <fix>3d</fix>
</trkpt>
<trkpt lat="-27.2782502" lon="151.2972824">
  <ele>392.57</ele>
  <time>2026-09-01T19:55:38Z</time>
  <course>150.52</course>
  <speed>24.995961673838437</speed>
  <fix>3d</fix>
</trkpt>
<trkpt lat="-27.2782157" lon="151.2972604">
  <ele>392.94</ele>
  <time>2026-09-01T19:55:38Z</time>
  <course>151.26</course>
  <speed>25.01</speed>
  <fix>3d</fix>
</trkpt>
<trkpt lat="-27.2782691" lon="151.2972956">
  <ele>392.52</ele>
  <time>2026-09-01T19:55:38Z</time>
  <course>149.19</course>
  <speed>24.998483954032096</speed>
  <fix>3d</fix>
</trkpt>
<trkpt lat="-27.2782157" lon="151.2972604">
  <ele>392.94</ele>
  <time>2026-09-01T19:55:38Z</time>
  <course>151.26</course>
  <speed>25.01</speed>
  <fix>3d</fix>
</trkpt>
<trkpt lat="-27.2782879" lon="151.2973095">
  <ele>392.46</ele>
  <time>2026-09-01T19:55:38Z</time>
  <course>147.86</course>
  <speed>25.003123804836868</speed>
  <fix>3d</fix>
</trkpt>
<trkpt lat="-27.2782545" lon="151.2972857">
  <ele>392.82</ele>
  <time>2026-09-01T19:55:38Z</time>
  <course>148.6</course>
  <speed>25.01</speed>
  <fix>3d</fix>
</trkpt>
<trkpt lat="-27.2783065" lon="151.2973238">
  <ele>392.41</ele>
  <time>2026-09-01T19:55:38Z</time>
  <course>146.6</course>
  <speed>25.012796724876647</speed>
  <fix>3d</fix>
</trkpt>
<trkpt lat="-27.2782545" lon="151.2972857">
  <ele>392.82</ele>
  <time>2026-09-01T19:55:38Z</time>
  <course>148.6</course>
  <speed>25.01</speed>
  <fix>3d</fix>
</trkpt>
<trkpt lat="-27.2783249" lon="151.2973387">
  <ele>392.36</ele>
  <time>2026-09-01T19:55:38Z</time>
  <course>145.26</course>
  <speed>25.033002217073363</speed>
  <fix>3d</fix>
</trkpt>
<trkpt lat="-27.2782924" lon="151.2973131">
  <ele>392.71</ele>
  <time>2026-09-01T19:55:38Z</time>
  <course>145.95</course>
  <speed>25.03</speed>
  <fix>3d</fix>
</trkpt>
<trkpt lat="-27.2783429" lon="151.297354">
  <ele>392.31</ele>
  <time>2026-09-01T19:55:38Z</time>
  <course>143.93</course>
  <speed>25.052444990459513</speed>
  <fix>3d</fix>
</trkpt>
<trkpt lat="-27.2782924" lon="151.2973131">
  <ele>392.71</ele>
  <time>2026-09-01T19:55:38Z</time>
  <course>145.95</course>
  <speed>25.03</speed>
  <fix>3d</fix>
</trkpt>
<trkpt lat="-27.2783608" lon="151.29737">
  <ele>392.26</ele>
  <time>2026-09-01T19:55:38Z</time>
  <course>142.61</course>
  <speed>25.061709837918084</speed>
  <fix>3d</fix>
</trkpt>
<trkpt lat="-27.2783291" lon="151.2973424">
  <ele>392.61</ele>
  <time>2026-09-01T19:55:38Z</time>
  <course>143.31</course>
  <speed>25.04</speed>
  <fix>3d</fix>
</trkpt>
<trkpt lat="-27.2783782" lon="151.2973862">
  <ele>392.22</ele>
  <time>2026-09-01T19:55:38Z</time>
  <course>141.35</course>
  <speed>25.078470846524915</speed>
  <fix>3d</fix>
</trkpt>
<trkpt lat="-27.2783291" lon="151.2973424">
  <ele>392.61</ele>
  <time>2026-09-01T19:55:38Z</time>
  <course>143.31</course>
  <speed>25.04</speed>
  <fix>3d</fix>
</trkpt>
<trkpt lat="-27.2783953" lon="151.297403">
  <ele>392.17</ele>
  <time>2026-09-01T19:55:38Z</time>
  <course>140.02</course>
  <speed>25.094694658433284</speed>
  <fix>3d</fix>
</trkpt>
<trkpt lat="-27.2783645" lon="151.2973735">
  <ele>392.51</ele>
  <time>2026-09-01T19:55:38Z</time>
  <course>140.66</course>
  <speed>25.06</speed>
  <fix>3d</fix>
</trkpt>
<trkpt lat="-27.2784126" lon="151.2974208">
  <ele>392.13</ele>
  <time>2026-09-01T19:55:38Z</time>
  <course>138.66</course>
  <speed>25.116627958386452</speed>
  <fix>3d</fix>
</trkpt>
<trkpt lat="-27.2783645" lon="151.2973735">
  <ele>392.51</ele>
  <time>2026-09-01T19:55:38Z</time>
  <course>140.66</course>
  <speed>25.06</speed>
  <fix>3d</fix>
</trkpt>
<trkpt lat="-27.2784288" lon="151.2974383">
  <ele>392.09</ele>
  <time>2026-09-01T19:55:38Z</time>
  <course>137.3</course>
  <speed>25.13201145949126</speed>
  <fix>3d</fix>
</trkpt>
<trkpt lat="-27.2783986" lon="151.2974065">
  <ele>392.42</ele>
  <time>2026-09-01T19:55:38Z</time>
  <course>137.99</course>
  <speed>25.08</speed>
  <fix>3d</fix>
</trkpt>
<trkpt lat="-27.2784449" lon="151.2974564">
  <ele>392.06</ele>
  <time>2026-09-01T19:55:38Z</time>
  <course>135.97</course>
  <speed>25.146641922928794</speed>
  <fix>3d</fix>
</trkpt>
<trkpt lat="-27.2783986" lon="151.2974065">
  <ele>392.42</ele>
  <time>2026-09-01T19:55:38Z</time>
  <course>137.99</course>
  <speed>25.08</speed>
  <fix>3d</fix>
</trkpt>
<trkpt lat="-27.2784604" lon="151.2974748">
  <ele>392.03</ele>
  <time>2026-09-01T19:55:38Z</time>
  <course>134.62</course>
  <speed>25.15368163907622</speed>
  <fix>3d</fix>
</trkpt>
<trkpt lat="-27.2784314" lon="151.2974414">
  <ele>392.34</ele>
  <time>2026-09-01T19:55:38Z</time>
  <course>135.33</course>
  <speed>25.1</speed>
  <fix>3d</fix>
</trkpt>
<trkpt lat="-27.2784756" lon="151.2974935">
  <ele>392.0</ele>
  <time>2026-09-01T19:55:38Z</time>
  <course>133.3</course>
  <speed>25.160290141411327</speed>
  <fix>3d</fix>
</trkpt>
<trkpt lat="-27.2784314" lon="151.2974414">
  <ele>392.34</ele>
  <time>2026-09-01T19:55:38Z</time>
  <course>135.33</course>
  <speed>25.1</speed>
  <fix>3d</fix>
</trkpt>
<trkpt lat="-27.2784904" lon="151.2975128">
  <ele>391.98</ele>
  <time>2026-09-01T19:55:38Z</time>
  <course>131.92</course>
  <speed>25.166503531480092</speed>
  <fix>3d</fix>
</trkpt>
<trkpt lat="-27.2784628" lon="151.2974779">
  <ele>392.27</ele>
  <time>2026-09-01T19:55:38Z</time>
  <course>132.67</course>
  <speed>25.12</speed>
  <fix>3d</fix>
</trkpt>
<trkpt lat="-27.2785048" lon="151.2975324">
  <ele>391.95</ele>
  <time>2026-09-01T19:55:38Z</time>
  <course>130.52</course>
  <speed>25.166098227575922</speed>
  <fix>3d</fix>
</trkpt>
<trkpt lat="-27.2784628" lon="151.2974779">
  <ele>392.27</ele>
  <time>2026-09-01T19:55:38Z</time>
  <course>132.67</course>
  <speed>25.12</speed>
  <fix>3d</fix>
</trkpt>
<trkpt lat="-27.2785187" lon="151.2975522">
  <ele>391.93</ele>
  <time>2026-09-01T19:55:38Z</time>
  <course>129.21</course>
  <speed>25.17190894628375</speed>
  <fix>3d</fix>
</trkpt>
<trkpt lat="-27.2784927" lon="151.2975161">
  <ele>392.21</ele>
  <time>2026-09-01T19:55:38Z</time>
  <course>129.98</course>
  <speed>25.13</speed>
  <fix>3d</fix>
</trkpt>
<trkpt lat="-27.2785322" lon="151.2975725">
  <ele>391.91</ele>
  <time>2026-09-01T19:55:38Z</time>
  <course>127.86</course>
  <speed>25.17757931176069</speed>
  <fix>3d</fix>
</trkpt>
<trkpt lat="-27.2784927" lon="151.2975161">
  <ele>392.21</ele>
  <time>2026-09-01T19:55:38Z</time>
  <course>129.98</course>
  <speed>25.13</speed>
  <fix>3d</fix>
</trkpt>
<trkpt lat="-27.2785452" lon="151.2975931">
  <ele>391.9</ele>
  <time>2026-09-01T19:55:38Z</time>
  <course>126.52</course>
  <speed>25.185730086697905</speed>
  <fix>3d</fix>
</trkpt>
<trkpt lat="-27.2785209" lon="151.2975558">
  <ele>392.16</ele>
  <time>2026-09-01T19:55:38Z</time>
  <course>127.28</course>
  <speed>25.15</speed>
  <fix>3d</fix>
</trkpt>
<trkpt lat="-27.2785579" lon="151.2976141">
  <ele>391.88</ele>
  <time>2026-09-01T19:55:38Z</time>
  <course>125.21</course>
  <speed>25.183526361492746</speed>
  <fix>3d</fix>
</trkpt>
<trkpt lat="-27.2785209" lon="151.2975558">
  <ele>392.16</ele>
  <time>2026-09-01T19:55:38Z</time>
  <course>127.28</course>
  <speed>25.15</speed>
  <fix>3d</fix>
</trkpt>
<trkpt lat="-27.2785701" lon="151.2976354">
  <ele>391.87</ele>
  <time>2026-09-01T19:55:38Z</time>
  <course>123.84</course>
  <speed>25.189857085739888</speed>
  <fix>3d</fix>
</trkpt>
<trkpt lat="-27.2785474" lon="151.297597">
  <ele>392.11</ele>
  <time>2026-09-01T19:55:38Z</time>
  <course>124.57</course>
  <speed>25.17</speed>
  <fix>3d</fix>
</trkpt>
<trkpt lat="-27.2785818" lon="151.297657">
  <ele>391.85</ele>
  <time>2026-09-01T19:55:38Z</time>
  <course>122.56</course>
  <speed>25.194906231220624</speed>
  <fix>3d</fix>
</trkpt>
<trkpt lat="-27.2785474" lon="151.297597">
  <ele>392.11</ele>
  <time>2026-09-01T19:55:38Z</time>
  <course>124.57</course>
  <speed>25.17</speed>
  <fix>3d</fix>
</trkpt>
<trkpt lat="-27.2785932" lon="151.297679">
  <ele>391.84</ele>
  <time>2026-09-01T19:55:38Z</time>
  <course>121.23</course>
  <speed>25.202803415493285</speed>
  <fix>3d</fix>
</trkpt>
<trkpt lat="-27.2785722" lon="151.2976396">
  <ele>392.07</ele>
  <time>2026-09-01T19:55:38Z</time>
  <course>121.87</course>
  <speed>25.19</speed>
  <fix>3d</fix>
</trkpt>
<trkpt lat="-27.2786037" lon="151.2977005">
  <ele>391.83</ele>
  <time>2026-09-01T19:55:38Z</time>
  <course>119.89</course>
  <speed>25.20655668670356</speed>
  <fix>3d</fix>
</trkpt>
<trkpt lat="-27.2785722" lon="151.2976396">
  <ele>392.07</ele>
  <time>2026-09-01T19:55:38Z</time>
  <course>121.87</course>
  <speed>25.19</speed>
  <fix>3d</fix>
</trkpt>
<trkpt lat="-27.2786141" lon="151.297723">
  <ele>391.82</ele>
  <time>2026-09-01T19:55:38Z</time>
  <course>118.52</course>
  <speed>25.214283650343905</speed>
  <fix>3d</fix>
</trkpt>
<trkpt lat="-27.2785952" lon="151.2976834">
  <ele>392.03</ele>
  <time>2026-09-01T19:55:38Z</time>
  <course>119.21</course>
  <speed>25.21</speed>
  <fix>3d</fix>
</trkpt>
<trkpt lat="-27.2786241" lon="151.2977458">
  <ele>391.81</ele>
  <time>2026-09-01T19:55:38Z</time>
  <course>117.15</course>
  <speed>25.21778935592888</speed>
  <fix>3d</fix>
</trkpt>
<trkpt lat="-27.2785952" lon="151.2976834">
  <ele>392.03</ele>
  <time>2026-09-01T19:55:38Z</time>
  <course>119.21</course>
  <speed>25.21</speed>
  <fix>3d</fix>
</trkpt>
<trkpt lat="-27.2786337" lon="151.2977692">
  <ele>391.8</ele>
  <time>2026-09-01T19:55:38Z</time>
  <course>115.83</course>
  <speed>25.231514025123424</speed>
  <fix>3d</fix>
</trkpt>
<trkpt lat="-27.2786164" lon="151.2977285">
  <ele>392.0</ele>
  <time>2026-09-01T19:55:38Z</time>
  <course>116.55</course>
  <speed>25.23</speed>
  <fix>3d</fix>
</trkpt>
<trkpt lat="-27.2786427" lon="151.2977926">
  <ele>391.79</ele>
  <time>2026-09-01T19:55:38Z</time>
  <course>114.47</course>
  <speed>25.23631708470949</speed>
  <fix>3d</fix>
</trkpt>
<trkpt lat="-27.2786164" lon="151.2977285">
  <ele>392.0</ele>
  <time>2026-09-01T19:55:38Z</time>
  <course>116.55</course>
  <speed>25.23</speed>
  <fix>3d</fix>
</trkpt>
<trkpt lat="-27.2786513" lon="151.2978164">
  <ele>391.78</ele>
  <time>2026-09-01T19:55:38Z</time>
  <course>113.16</course>
  <speed>25.251289076005605</speed>
  <fix>3d</fix>
</trkpt>
<trkpt lat="-27.2786357" lon="151.2977747">
  <ele>391.97</ele>
  <time>2026-09-01T19:55:38Z</time>
  <course>113.85</course>
  <speed>25.25</speed>
  <fix>3d</fix>
</trkpt>
<trkpt lat="-27.2786596" lon="151.2978412">
  <ele>391.77</ele>
  <time>2026-09-01T19:55:38Z</time>
  <course>111.82</course>
  <speed>25.267673023054577</speed>
  <fix>3d</fix>
</trkpt>
<trkpt lat="-27.2786357" lon="151.2977747">
  <ele>391.97</ele>
  <time>2026-09-01T19:55:38Z</time>
  <course>113.85</course>
  <speed>25.25</speed>
  <fix>3d</fix>
</trkpt>
<trkpt lat="-27.2786672" lon="151.2978654">
  <ele>391.76</ele>
  <time>2026-09-01T19:55:38Z</time>
  <course>110.53</course>
  <speed>25.276560288140473</speed>
  <fix>3d</fix>
</trkpt>
<trkpt lat="-27.2786531" lon="151.2978218">
  <ele>391.96</ele>
  <time>2026-09-01T19:55:38Z</time>
  <course>111.16</course>
  <speed>25.26</speed>
  <fix>3d</fix>
</trkpt>
<trkpt lat="-27.2786743" lon="151.2978896">
  <ele>391.75</ele>
  <time>2026-09-01T19:55:38Z</time>
  <course>109.24</course>
  <speed>25.28901737909166</speed>
  <fix>3d</fix>
</trkpt>
<trkpt lat="-27.2786531" lon="151.2978218">
  <ele>391.96</ele>
  <time>2026-09-01T19:55:38Z</time>
  <course>111.16</course>
  <speed>25.26</speed>
  <fix>3d</fix>
</trkpt>
<trkpt lat="-27.2786808" lon="151.2979141">
  <ele>391.75</ele>
  <time>2026-09-01T19:55:38Z</time>
  <course>107.91</course>
  <speed>25.29924109533723</speed>
  <fix>3d</fix>
</trkpt>
<trkpt lat="-27.2786685" lon="151.2978698">
  <ele>391.94</ele>
  <time>2026-09-01T19:55:38Z</time>
  <course>108.51</course>
  <speed>25.28</speed>
  <fix>3d</fix>
</trkpt>
<trkpt lat="-27.2786869" lon="151.2979388">
  <ele>391.74</ele>
  <time>2026-09-01T19:55:38Z</time>
  <course>106.53</course>
  <speed>25.310902789114415</speed>
  <fix>3d</fix>
</trkpt>
<trkpt lat="-27.2786685" lon="151.2978698">
  <ele>391.94</ele>
  <time>2026-09-01T19:55:38Z</time>
  <course>108.51</course>
  <speed>25.28</speed>
  <fix>3d</fix>
</trkpt>
<trkpt lat="-27.2786924" lon="151.2979635">
  <ele>391.74</ele>
  <time>2026-09-01T19:55:38Z</time>
  <course>105.14</course>
  <speed>25.31474866555068</speed>
  <fix>3d</fix>
</trkpt>
<trkpt lat="-27.2786819" lon="151.2979186">
  <ele>391.93</ele>
  <time>2026-09-01T19:55:38Z</time>
  <course>105.87</course>
  <speed>25.29</speed>
  <fix>3d</fix>
</trkpt>
<trkpt lat="-27.2786975" lon="151.2979886">
  <ele>391.74</ele>
  <time>2026-09-01T19:55:38Z</time>
  <course>103.8</course>
  <speed>25.320892559307623</speed>
  <fix>3d</fix>
</trkpt>
<trkpt lat="-27.2786819" lon="151.2979186">
  <ele>391.93</ele>
  <time>2026-09-01T19:55:38Z</time>
  <course>105.87</course>
  <speed>25.29</speed>
  <fix>3d</fix>
</trkpt>
<trkpt lat="-27.2787019" lon="151.2980136">
  <ele>391.74</ele>
  <time>2026-09-01T19:55:38Z</time>
  <course>102.45</course>
  <speed>25.323759594499393</speed>
  <fix>3d</fix>
</trkpt>
<trkpt lat="-27.2786933" lon="151.2979682">
  <ele>391.91</ele>
  <time>2026-09-01T19:55:38Z</time>
  <course>103.16</course>
  <speed>25.31</speed>
  <fix>3d</fix>
</trkpt>
<trkpt lat="-27.2787059" lon="151.2980387">
  <ele>391.74</ele>
  <time>2026-09-01T19:55:38Z</time>
  <course>101.11</course>
  <speed>25.320742485164214</speed>
  <fix>3d</fix>
</trkpt>
<trkpt lat="-27.2786933" lon="151.2979682">
  <ele>391.91</ele>
  <time>2026-09-01T19:55:38Z</time>
  <course>103.16</course>
  <speed>25.31</speed>
  <fix>3d</fix>
</trkpt>
<trkpt lat="-27.2787093" lon="151.2980639">
  <ele>391.74</ele>
  <time>2026-09-01T19:55:38Z</time>
  <course>99.8</course>
  <speed>25.320098735984423</speed>
  <fix>3d</fix>
</trkpt>
<trkpt lat="-27.2787025" lon="151.2980185">
  <ele>391.91</ele>
  <time>2026-09-01T19:55:38Z</time>
  <course>100.45</course>
  <speed>25.32</speed>
  <fix>3d</fix>
</trkpt>
<trkpt lat="-27.2787122" lon="151.2980892">
  <ele>391.75</ele>
  <time>2026-09-01T19:55:38Z</time>
  <course>98.48</course>
  <speed>25.3235878184747</speed>
  <fix>3d</fix>
</trkpt>
<trkpt lat="-27.2787025" lon="151.2980185">
  <ele>391.91</ele>
  <time>2026-09-01T19:55:38Z</time>
  <course>100.45</course>
  <speed>25.32</speed>
  <fix>3d</fix>
</trkpt>
<trkpt lat="-27.2787146" lon="151.2981146">
  <ele>391.75</ele>
  <time>2026-09-01T19:55:38Z</time>
  <course>97.15</course>
  <speed>25.33111327991725</speed>
  <fix>3d</fix>
</trkpt>
<trkpt lat="-27.2787098" lon="151.298069">
  <ele>391.91</ele>
  <time>2026-09-01T19:55:38Z</time>
  <course>97.76</course>
  <speed>25.34</speed>
  <fix>3d</fix>
</trkpt>
<trkpt lat="-27.2787164" lon="151.2981401">
  <ele>391.75</ele>
  <time>2026-09-01T19:55:38Z</time>
  <course>95.83</course>
  <speed>25.33331798245149</speed>
  <fix>3d</fix>
</trkpt>
<trkpt lat="-27.2787098" lon="151.298069">
  <ele>391.91</ele>
  <time>2026-09-01T19:55:38Z</time>
  <course>97.76</course>
  <speed>25.34</speed>
  <fix>3d</fix>
</trkpt>
<trkpt lat="-27.2787178" lon="151.2981656">
  <ele>391.76</ele>
  <time>2026-09-01T19:55:38Z</time>
  <course>94.43</course>
  <speed>25.348420069108844</speed>
  <fix>3d</fix>
</trkpt>
<trkpt lat="-27.2787149" lon="151.2981199">
  <ele>391.91</ele>
  <time>2026-09-01T19:55:38Z</time>
  <course>95.09</course>
  <speed>25.35</speed>
  <fix>3d</fix>
</trkpt>
<trkpt lat="-27.2787186" lon="151.2981911">
  <ele>391.76</ele>
  <time>2026-09-01T19:55:38Z</time>
  <course>93.02</course>
  <speed>25.347102398499125</speed>
  <fix>3d</fix>
</trkpt>
<trkpt lat="-27.2787149" lon="151.2981199">
  <ele>391.91</ele>
  <time>2026-09-01T19:55:38Z</time>
  <course>95.09</course>
  <speed>25.35</speed>
  <fix>3d</fix>
</trkpt>
<trkpt lat="-27.2787188" lon="151.2982167">
  <ele>391.76</ele>
  <time>2026-09-01T19:55:38Z</time>
  <course>91.65</course>
  <speed>25.35</speed>
  <fix>3d</fix>
</trkpt>
<trkpt lat="-27.2787178" lon="151.298171">
  <ele>391.91</ele>
  <time>2026-09-01T19:55:38Z</time>
  <course>92.42</course>
  <speed>25.36</speed>
  <fix>3d</fix>
</trkpt>
<trkpt lat="-27.2787185" lon="151.2982423">
  <ele>391.77</ele>
  <time>2026-09-01T19:55:38Z</time>
  <course>90.31</course>
  <speed>25.34734108343516</speed>
  <fix>3d</fix>
</trkpt>
<trkpt lat="-27.2787178" lon="151.298171">
  <ele>391.91</ele>
  <time>2026-09-01T19:55:38Z</time>
  <course>92.42</course>
  <speed>25.36</speed>
  <fix>3d</fix>
</trkpt>
<trkpt lat="-27.2787177" lon="151.2982679">
  <ele>391.77</ele>
  <time>2026-09-01T19:55:38Z</time>
  <course>88.97</course>
  <speed>25.348895439446665</speed>
  <fix>3d</fix>
</trkpt>
<trkpt lat="-27.2787188" lon="151.2982223">
  <ele>391.91</ele>
  <time>2026-09-01T19:55:38Z</time>
  <course>89.7</course>
  <speed>25.37</speed>
  <fix>3d</fix>
</trkpt>
<trkpt lat="-27.2787163" lon="151.2982934">
  <ele>391.78</ele>
  <time>2026-09-01T19:55:38Z</time>
  <course>87.58</course>
  <speed>25.353976019551645</speed>
  <fix>3d</fix>
</trkpt>
<trkpt lat="-27.2787188" lon="151.2982223">
  <ele>391.91</ele>
  <time>2026-09-01T19:55:38Z</time>
  <course>89.7</course>
  <speed>25.37</speed>
  <fix>3d</fix>
</trkpt>
<trkpt lat="-27.2787145" lon="151.2983191">
  <ele>391.78</ele>
  <time>2026-09-01T19:55:38Z</time>
  <course>86.26</course>
  <speed>25.364751132230726</speed>
  <fix>3d</fix>
</trkpt>
<trkpt lat="-27.2787175" lon="151.2982735">
  <ele>391.92</ele>
  <time>2026-09-01T19:55:38Z</time>
  <course>86.97</course>
  <speed>25.38</speed>
  <fix>3d</fix>
</trkpt>
<trkpt lat="-27.2787121" lon="151.2983447">
  <ele>391.79</ele>
  <time>2026-09-01T19:55:38Z</time>
  <course>84.87</course>
  <speed>25.369197858820844</speed>
  <fix>3d</fix>
</trkpt>
<trkpt lat="-27.2787175" lon="151.2982735">
  <ele>391.92</ele>
  <time>2026-09-01T19:55:38Z</time>
  <course>86.97</course>
  <speed>25.38</speed>
  <fix>3d</fix>
</trkpt>
<trkpt lat="-27.278709" lon="151.2983705">
  <ele>391.79</ele>
  <time>2026-09-01T19:55:38Z</time>
  <course>83.5</course>
  <speed>25.38939345474799</speed>
  <fix>3d</fix>
</trkpt>
<trkpt lat="-27.278714" lon="151.2983247">
  <ele>391.93</ele>
  <time>2026-09-01T19:55:38Z</time>
  <course>84.25</course>
  <speed>25.39</speed>
  <fix>3d</fix>
</trkpt>
<trkpt lat="-27.2787055" lon="151.2983958">
  <ele>391.8</ele>
  <time>2026-09-01T19:55:38Z</time>
  <course>82.14</course>
  <speed>25.391449348156556</speed>
  <fix>3d</fix>
</trkpt>
<trkpt lat="-27.278714" lon="151.2983247">
  <ele>391.93</ele>
  <time>2026-09-01T19:55:38Z</time>
  <course>84.25</course>
  <speed>25.39</speed>
  <fix>3d</fix>
</trkpt>
<trkpt lat="-27.2787014" lon="151.2984211">
  <ele>391.81</ele>
  <time>2026-09-01T19:55:38Z</time>
  <course>80.81</course>
  <speed>25.399600390557328</speed>
  <fix>3d</fix>
</trkpt>
<trkpt lat="-27.2787083" lon="151.2983755">
  <ele>391.95</ele>
  <time>2026-09-01T19:55:38Z</time>
  <course>81.51</course>
  <speed>25.39</speed>
  <fix>3d</fix>
</trkpt>
<trkpt lat="-27.2786968" lon="151.2984463">
  <ele>391.82</ele>
  <time>2026-09-01T19:55:38Z</time>
  <course>79.43</course>
  <speed>25.4104092843858</speed>
  <fix>3d</fix>
</trkpt>
<trkpt lat="-27.2787083" lon="151.2983755">
  <ele>391.95</ele>
  <time>2026-09-01T19:55:38Z</time>
  <course>81.51</course>
  <speed>25.39</speed>
  <fix>3d</fix>
</trkpt>
<trkpt lat="-27.2786917" lon="151.2984714">
  <ele>391.84</ele>
  <time>2026-09-01T19:55:38Z</time>
  <course>78.09</course>
  <speed>25.413586917237794</speed>
  <fix>3d</fix>
</trkpt>
<trkpt lat="-27.2787005" lon="151.2984261">
  <ele>391.97</ele>
  <time>2026-09-01T19:55:38Z</time>
  <course>78.79</course>
  <speed>25.4</speed>
  <fix>3d</fix>
</trkpt>
<trkpt lat="-27.2786861" lon="151.2984963">
  <ele>391.85</ele>
  <time>2026-09-01T19:55:38Z</time>
  <course>76.74</course>
  <speed>25.42358157301996</speed>
  <fix>3d</fix>
</trkpt>
<trkpt lat="-27.2787005" lon="151.2984261">
  <ele>391.97</ele>
  <time>2026-09-01T19:55:38Z</time>
  <course>78.79</course>
  <speed>25.4</speed>
  <fix>3d</fix>
</trkpt>
<trkpt lat="-27.2786798" lon="151.2985212">
  <ele>391.87</ele>
  <time>2026-09-01T19:55:38Z</time>
  <course>75.41</course>
  <speed>25.426020136859798</speed>
  <fix>3d</fix>
</trkpt>
<trkpt lat="-27.2786906" lon="151.2984763">
  <ele>391.99</ele>
  <time>2026-09-01T19:55:38Z</time>
  <course>76.06</course>
  <speed>25.41</speed>
  <fix>3d</fix>
</trkpt>
<trkpt lat="-27.2786732" lon="151.2985458">
  <ele>391.89</ele>
  <time>2026-09-01T19:55:38Z</time>
  <course>74.06</course>
  <speed>25.430125835315877</speed>
  <fix>3d</fix>
</trkpt>
<trkpt lat="-27.2786906" lon="151.2984763">
  <ele>391.99</ele>
  <time>2026-09-01T19:55:38Z</time>
  <course>76.06</course>
  <speed>25.41</speed>
  <fix>3d</fix>
</trkpt>
<trkpt lat="-27.2786659" lon="151.2985702">
  <ele>391.9</ele>
  <time>2026-09-01T19:55:38Z</time>
  <course>72.7</course>
  <speed>25.429229245102967</speed>
  <fix>3d</fix>
</trkpt>
<trkpt lat="-27.2786785" lon="151.2985259">
  <ele>392.01</ele>
  <time>2026-09-01T19:55:38Z</time>
  <course>73.35</course>
  <speed>25.42</speed>
  <fix>3d</fix>
</trkpt>
<trkpt lat="-27.2786582" lon="151.2985944">
  <ele>391.92</ele>
  <time>2026-09-01T19:55:38Z</time>
  <course>71.36</course>
  <speed>25.429669679333234</speed>
  <fix>3d</fix>
</trkpt>
<trkpt lat="-27.2786785" lon="151.2985259">
  <ele>392.01</ele>
  <time>2026-09-01T19:55:38Z</time>
  <course>73.35</course>
  <speed>25.42</speed>
  <fix>3d</fix>
</trkpt>
<trkpt lat="-27.27865" lon="151.2986184">
  <ele>391.93</ele>
  <time>2026-09-01T19:55:38Z</time>
  <course>70.02</course>
  <speed>25.434720364100723</speed>
  <fix>3d</fix>
</trkpt>
<trkpt lat="-27.2786644" lon="151.2985748">
  <ele>392.04</ele>
  <time>2026-09-01T19:55:38Z</time>
  <course>70.65</course>
  <speed>25.42</speed>
  <fix>3d</fix>
</trkpt>
<trkpt lat="-27.2786413" lon="151.2986422">
  <ele>391.95</ele>
  <time>2026-09-01T19:55:38Z</time>
  <course>68.69</course>
  <speed>25.44599968560874</speed>
  <fix>3d</fix>
</trkpt>
<trkpt lat="-27.2786644" lon="151.2985748">
  <ele>392.04</ele>
  <time>2026-09-01T19:55:38Z</time>
  <course>70.65</course>
  <speed>25.42</speed>
  <fix>3d</fix>
</trkpt>
<trkpt lat="-27.2786321" lon="151.2986658">
  <ele>391.96</ele>
  <time>2026-09-01T19:55:38Z</time>
  <course>67.39</course>
  <speed>25.452233693725194</speed>
  <fix>3d</fix>
</trkpt>
<trkpt lat="-27.2786482" lon="151.2986229">
  <ele>392.07</ele>
  <time>2026-09-01T19:55:38Z</time>
  <course>67.97</course>
  <speed>25.43</speed>
  <fix>3d</fix>
</trkpt>
<trkpt lat="-27.2786224" lon="151.2986891">
  <ele>391.97</ele>
  <time>2026-09-01T19:55:38Z</time>
  <course>66.06</course>
  <speed>25.449636539644334</speed>
  <fix>3d</fix>
</trkpt>
<trkpt lat="-27.2786482" lon="151.2986229">
  <ele>392.07</ele>
  <time>2026-09-01T19:55:38Z</time>
  <course>67.97</course>
  <speed>25.43</speed>
  <fix>3d</fix>
</trkpt>
<trkpt lat="-27.2786122" lon="151.2987122">
  <ele>391.98</ele>
  <time>2026-09-01T19:55:38Z</time>
  <course>64.72</course>
  <speed>25.465068230813753</speed>
  <fix>3d</fix>
</trkpt>
<trkpt lat="-27.2786301" lon="151.2986701">
  <ele>392.09</ele>
  <time>2026-09-01T19:55:38Z</time>
  <course>65.32</course>
  <speed>25.43</speed>
  <fix>3d</fix>
</trkpt>
<trkpt lat="-27.2786015" lon="151.298735">
  <ele>391.99</ele>
  <time>2026-09-01T19:55:38Z</time>
  <course>63.38</course>
  <speed>25.463232316420477</speed>
  <fix>3d</fix>
</trkpt>
<trkpt lat="-27.2786301" lon="151.2986701">
  <ele>392.09</ele>
  <time>2026-09-01T19:55:38Z</time>
  <course>65.32</course>
  <speed>25.43</speed>
  <fix>3d</fix>
</trkpt>
<trkpt lat="-27.2785904" lon="151.2987575">
  <ele>392.0</ele>
  <time>2026-09-01T19:55:38Z</time>
  <course>62.0</course>
  <speed>25.47177457500753</speed>
  <fix>3d</fix>
</trkpt>
<trkpt lat="-27.2786101" lon="151.2987163">
  <ele>392.11</ele>
  <time>2026-09-01T19:55:38Z</time>
  <course>62.66</course>
  <speed>25.44</speed>
  <fix>3d</fix>
</trkpt>
<trkpt lat="-27.2785788" lon="151.2987797">
  <ele>392.01</ele>
  <time>2026-09-01T19:55:38Z</time>
  <course>60.69</course>
  <speed>25.476163368921938</speed>
  <fix>3d</fix>
</trkpt>
<trkpt lat="-27.2786101" lon="151.2987163">
  <ele>392.11</ele>
  <time>2026-09-01T19:55:38Z</time>
  <course>62.66</course>
  <speed>25.44</speed>
  <fix>3d</fix>
</trkpt>
<trkpt lat="-27.2785667" lon="151.2988016">
  <ele>392.02</ele>
  <time>2026-09-01T19:55:38Z</time>
  <course>59.38</course>
  <speed>25.475529435126564</speed>
  <fix>3d</fix>
</trkpt>
<trkpt lat="-27.2785881" lon="151.2987614">
  <ele>392.13</ele>
  <time>2026-09-01T19:55:38Z</time>
  <course>59.95</course>
  <speed>25.45</speed>
  <fix>3d</fix>
</trkpt>
<trkpt lat="-27.2785542" lon="151.2988232">
  <ele>392.03</ele>
  <time>2026-09-01T19:55:38Z</time>
  <course>58.03</course>
  <speed>25.485715606982666</speed>
  <fix>3d</fix>
</trkpt>
<trkpt lat="-27.2785881" lon="151.2987614">
  <ele>392.13</ele>
  <time>2026-09-01T19:55:38Z</time>
  <course>59.95</course>
  <speed>25.45</speed>
  <fix>3d</fix>
</trkpt>
<trkpt lat="-27.2785412" lon="151.2988444">
  <ele>392.03</ele>
  <time>2026-09-01T19:55:38Z</time>
  <course>56.57</course>
  <speed>25.48557435099315</speed>
  <fix>3d</fix>
</trkpt>
<trkpt lat="-27.2785643" lon="151.2988053">
  <ele>392.14</ele>
  <time>2026-09-01T19:55:38Z</time>
  <course>57.25</course>
  <speed>25.45</speed>
  <fix>3d</fix>
</trkpt>
<trkpt lat="-27.2785278" lon="151.2988653">
  <ele>392.04</ele>
  <time>2026-09-01T19:55:38Z</time>
  <course>55.19</course>
  <speed>25.49448960069607</speed>
  <fix>3d</fix>
</trkpt>
<trkpt lat="-27.2785643" lon="151.2988053">
  <ele>392.14</ele>
  <time>2026-09-01T19:55:38Z</time>
  <course>57.25</course>
  <speed>25.45</speed>
  <fix>3d</fix>
</trkpt>
<trkpt lat="-27.2785139" lon="151.2988858">
  <ele>392.05</ele>
  <time>2026-09-01T19:55:38Z</time>
  <course>53.8</course>
  <speed>25.49607812978302</speed>
  <fix>3d</fix>
</trkpt>
<trkpt lat="-27.2785387" lon="151.2988479">
  <ele>392.15</ele>
  <time>2026-09-01T19:55:38Z</time>
  <course>54.53</course>
  <speed>25.46</speed>
  <fix>3d</fix>
</trkpt>
<trkpt lat="-27.2784996" lon="151.298906">
  <ele>392.05</ele>
  <time>2026-09-01T19:55:38Z</time>
  <course>52.4</course>
  <speed>25.506118873713422</speed>
  <fix>3d</fix>
</trkpt>
<trkpt lat="-27.2785387" lon="151.2988479">
  <ele>392.15</ele>
  <time>2026-09-01T19:55:38Z</time>
  <course>54.53</course>
  <speed>25.46</speed>
  <fix>3d</fix>
</trkpt>
<trkpt lat="-27.2784848" lon="151.2989257">
  <ele>392.06</ele>
  <time>2026-09-01T19:55:38Z</time>
  <course>51.13</course>
  <speed>25.515367918178253</speed>
  <fix>3d</fix>
</trkpt>
<trkpt lat="-27.2785113" lon="151.2988891">
  <ele>392.16</ele>
  <time>2026-09-01T19:55:38Z</time>
  <course>51.77</course>
  <speed>25.47</speed>
  <fix>3d</fix>
</trkpt>
<trkpt lat="-27.2784697" lon="151.2989451">
  <ele>392.07</ele>
  <time>2026-09-01T19:55:38Z</time>
  <course>49.77</course>
  <speed>25.512085371447</speed>
  <fix>3d</fix>
</trkpt>
<trkpt lat="-27.2785113" lon="151.2988891">
  <ele>392.16</ele>
  <time>2026-09-01T19:55:38Z</time>
  <course>51.77</course>
  <speed>25.47</speed>
  <fix>3d</fix>
</trkpt>
<trkpt lat="-27.2784543" lon="151.2989638">
  <ele>392.07</ele>
  <time>2026-09-01T19:55:38Z</time>
  <course>48.39</course>
  <speed>25.51573828052012</speed>
  <fix>3d</fix>
</trkpt>
<trkpt lat="-27.2784821" lon="151.2989288">
  <ele>392.18</ele>
  <time>2026-09-01T19:55:38Z</time>
  <course>49.03</course>
  <speed>25.48</speed>
  <fix>3d</fix>
</trkpt>
<trkpt lat="-27.2784383" lon="151.2989823">
  <ele>392.09</ele>
  <time>2026-09-01T19:55:38Z</time>
  <course>47.06</course>
  <speed>25.51976684846474</speed>
  <fix>3d</fix>
</trkpt>
<trkpt lat="-27.2784821" lon="151.2989288">
  <ele>392.18</ele>
  <time>2026-09-01T19:55:38Z</time>
  <course>49.03</course>
  <speed>25.48</speed>
  <fix>3d</fix>
</trkpt>
<trkpt lat="-27.2784217" lon="151.2990007">
  <ele>392.1</ele>
  <time>2026-09-01T19:55:38Z</time>
  <course>45.63</course>
  <speed>25.517213797748372</speed>
  <fix>3d</fix>
</trkpt>
<trkpt lat="-27.2784512" lon="151.2989669">
  <ele>392.2</ele>
  <time>2026-09-01T19:55:38Z</time>
  <course>46.29</course>
  <speed>25.48</speed>
  <fix>3d</fix>
</trkpt>
<trkpt lat="-27.278405" lon="151.2990183">
  <ele>392.11</ele>
  <time>2026-09-01T19:55:38Z</time>
  <course>44.21</course>
  <speed>25.522119817914813</speed>
  <fix>3d</fix>
</trkpt>
<trkpt lat="-27.2784512" lon="151.2989669">
  <ele>392.2</ele>
  <time>2026-09-01T19:55:38Z</time>
  <course>46.29</course>
  <speed>25.48</speed>
  <fix>3d</fix>
</trkpt>
<trkpt lat="-27.2783879" lon="151.2990355">
  <ele>392.12</ele>
  <time>2026-09-01T19:55:38Z</time>
  <course>42.79</course>
  <speed>25.51424700045055</speed>
  <fix>3d</fix>
</trkpt>
<trkpt lat="-27.2784188" lon="151.2990033">
  <ele>392.22</ele>
  <time>2026-09-01T19:55:38Z</time>
  <course>43.55</course>
  <speed>25.49</speed>
  <fix>3d</fix>
</trkpt>
<trkpt lat="-27.2783704" lon="151.2990521">
  <ele>392.14</ele>
  <time>2026-09-01T19:55:38Z</time>
  <course>41.49</course>
  <speed>25.513927569074895</speed>
  <fix>3d</fix>
</trkpt>
<trkpt lat="-27.2784188" lon="151.2990033">
  <ele>392.22</ele>
  <time>2026-09-01T19:55:38Z</time>
  <course>43.55</course>
  <speed>25.49</speed>
  <fix>3d</fix>
</trkpt>
<trkpt lat="-27.2783526" lon="151.2990684">
  <ele>392.15</ele>
  <time>2026-09-01T19:55:38Z</time>
  <course>40.21</course>
  <speed>25.517439134834827</speed>
  <fix>3d</fix>
</trkpt>
<trkpt lat="-27.2783848" lon="151.2990379">
  <ele>392.25</ele>
  <time>2026-09-01T19:55:38Z</time>
  <course>40.8</course>
  <speed>25.49</speed>
  <fix>3d</fix>
</trkpt>
<trkpt lat="-27.2783345" lon="151.2990841">
  <ele>392.16</ele>
  <time>2026-09-01T19:55:38Z</time>
  <course>38.84</course>
  <speed>25.514203887246804</speed>
  <fix>3d</fix>
</trkpt>
<trkpt lat="-27.2783848" lon="151.2990379">
  <ele>392.25</ele>
  <time>2026-09-01T19:55:38Z</time>
  <course>40.8</course>
  <speed>25.49</speed>
  <fix>3d</fix>
</trkpt>
<trkpt lat="-27.278316" lon="151.2990994">
  <ele>392.17</ele>
  <time>2026-09-01T19:55:38Z</time>
  <course>37.42</course>
  <speed>25.513018245593756</speed>
  <fix>3d</fix>
</trkpt>
<trkpt lat="-27.2783495" lon="151.2990706">
  <ele>392.27</ele>
  <time>2026-09-01T19:55:38Z</time>
  <course>38.09</course>
  <speed>25.49</speed>
  <fix>3d</fix>
</trkpt>
<trkpt lat="-27.2782973" lon="151.2991141">
  <ele>392.18</ele>
  <time>2026-09-01T19:55:38Z</time>
  <course>36.07</course>
  <speed>25.512420504530727</speed>
  <fix>3d</fix>
</trkpt>
<trkpt lat="-27.2783495" lon="151.2990706">
  <ele>392.27</ele>
  <time>2026-09-01T19:55:38Z</time>
  <course>38.09</course>
  <speed>25.49</speed>
  <fix>3d</fix>
</trkpt>
<trkpt lat="-27.2782782" lon="151.2991284">
  <ele>392.2</ele>
  <time>2026-09-01T19:55:38Z</time>
  <course>34.75</course>
  <speed>25.507144097291643</speed>
  <fix>3d</fix>
</trkpt>
<trkpt lat="-27.2783128" lon="151.2991014">
  <ele>392.3</ele>
  <time>2026-09-01T19:55:38Z</time>
  <course>35.4</course>
  <speed>25.48</speed>
  <fix>3d</fix>
</trkpt>
<trkpt lat="-27.2782588" lon="151.2991421">
  <ele>392.21</ele>
  <time>2026-09-01T19:55:38Z</time>
  <course>33.45</course>
  <speed>25.50520143029653</speed>
  <fix>3d</fix>
</trkpt>
<trkpt lat="-27.2783128" lon="151.2991014">
  <ele>392.3</ele>
  <time>2026-09-01T19:55:38Z</time>
  <course>35.4</course>
  <speed>25.48</speed>
  <fix>3d</fix>
</trkpt>
<trkpt lat="-27.2782392" lon="151.2991553">
  <ele>392.22</ele>
  <time>2026-09-01T19:55:38Z</time>
  <course>32.12</course>
  <speed>25.50883180390666</speed>
  <fix>3d</fix>
</trkpt>
<trkpt lat="-27.2782749" lon="151.2991303">
  <ele>392.32</ele>
  <time>2026-09-01T19:55:38Z</time>
  <course>32.67</course>
  <speed>25.48</speed>
  <fix>3d</fix>
</trkpt>
<trkpt lat="-27.2782193" lon="151.299168">
  <ele>392.23</ele>
  <time>2026-09-01T19:55:38Z</time>
  <course>30.74</course>
  <speed>25.504078105275635</speed>
  <fix>3d</fix>
</trkpt>
<trkpt lat="-27.2782749" lon="151.2991303">
  <ele>392.32</ele>
  <time>2026-09-01T19:55:38Z</time>
  <course>32.67</course>
  <speed>25.48</speed>
  <fix>3d</fix>
</trkpt>
<trkpt lat="-27.2781991" lon="151.2991801">
  <ele>392.25</ele>
  <time>2026-09-01T19:55:38Z</time>
  <course>29.34</course>
  <speed>25.49972744952385</speed>
  <fix>3d</fix>
</trkpt>
<trkpt lat="-27.2782358" lon="151.299157">
  <ele>392.34</ele>
  <time>2026-09-01T19:55:38Z</time>
  <course>29.95</course>
  <speed>25.48</speed>
  <fix>3d</fix>
</trkpt>
<trkpt lat="-27.2781786" lon="151.2991917">
  <ele>392.26</ele>
  <time>2026-09-01T19:55:38Z</time>
  <course>27.93</course>
  <speed>25.500496073606097</speed>
  <fix>3d</fix>
</trkpt>
<trkpt lat="-27.2782358" lon="151.299157">
  <ele>392.34</ele>
  <time>2026-09-01T19:55:38Z</time>
  <course>29.95</course>
  <speed>25.48</speed>
  <fix>3d</fix>
</trkpt>
<trkpt lat="-27.278158" lon="151.2992028">
  <ele>392.26</ele>
  <time>2026-09-01T19:55:38Z</time>
  <course>26.53</course>
  <speed>25.50250968042165</speed>
  <fix>3d</fix>
</trkpt>
<trkpt lat="-27.2781956" lon="151.2991817">
  <ele>392.37</ele>
  <time>2026-09-01T19:55:38Z</time>
  <course>27.26</course>
  <speed>25.48</speed>
  <fix>3d</fix>
</trkpt>
<trkpt lat="-27.2781371" lon="151.2992133">
  <ele>392.28</ele>
  <time>2026-09-01T19:55:38Z</time>
  <course>25.2</course>
  <speed>25.501327416430698</speed>
  <fix>3d</fix>
</trkpt>
<trkpt lat="-27.2781956" lon="151.2991817">
  <ele>392.37</ele>
  <time>2026-09-01T19:55:38Z</time>
  <course>27.26</course>
  <speed>25.48</speed>
  <fix>3d</fix>
</trkpt>
<trkpt lat="-27.2781159" lon="151.2992233">
  <ele>392.29</ele>
  <time>2026-09-01T19:55:38Z</time>
  <course>23.81</course>
  <speed>25.496360524592525</speed>
  <fix>3d</fix>
</trkpt>
<trkpt lat="-27.2781544" lon="151.2992042">
  <ele>392.39</ele>
  <time>2026-09-01T19:55:38Z</time>
  <course>24.54</course>
  <speed>25.47</speed>
  <fix>3d</fix>
</trkpt>
<trkpt lat="-27.2780946" lon="151.2992326">
  <ele>392.3</ele>
  <time>2026-09-01T19:55:38Z</time>
  <course>22.46</course>
  <speed>25.496415434331155</speed>
  <fix>3d</fix>
</trkpt>
<trkpt lat="-27.2781544" lon="151.2992042">
  <ele>392.39</ele>
  <time>2026-09-01T19:55:38Z</time>
  <course>24.54</course>
  <speed>25.47</speed>
  <fix>3d</fix>
</trkpt>
<trkpt lat="-27.2780731" lon="151.2992415">
  <ele>392.31</ele>
  <time>2026-09-01T19:55:38Z</time>
  <course>21.14</course>
  <speed>25.501233303509068</speed>
  <fix>3d</fix>
</trkpt>
<trkpt lat="-27.2781123" lon="151.2992244">
  <ele>392.41</ele>
  <time>2026-09-01T19:55:38Z</time>
  <course>21.82</course>
  <speed>25.47</speed>
  <fix>3d</fix>
</trkpt>
<trkpt lat="-27.2780515" lon="151.2992496">
  <ele>392.32</ele>
  <time>2026-09-01T19:55:38Z</time>
  <course>19.82</course>
  <speed>25.497954819945853</speed>
  <fix>3d</fix>
</trkpt>
<trkpt lat="-27.2781123" lon="151.2992244">
  <ele>392.41</ele>
  <time>2026-09-01T19:55:38Z</time>
  <course>21.82</course>
  <speed>25.47</speed>
  <fix>3d</fix>
</trkpt>
<trkpt lat="-27.2780296" lon="151.2992573">
  <ele>392.33</ele>
  <time>2026-09-01T19:55:38Z</time>
  <course>18.5</course>
  <speed>25.499254891074756</speed>
  <fix>3d</fix>
</trkpt>
<trkpt lat="-27.2780694" lon="151.2992424">
  <ele>392.44</ele>
  <time>2026-09-01T19:55:38Z</time>
  <course>19.11</course>
  <speed>25.47</speed>
  <fix>3d</fix>
</trkpt>
<trkpt lat="-27.2780076" lon="151.2992644">
  <ele>392.34</ele>
  <time>2026-09-01T19:55:38Z</time>
  <course>17.16</course>
  <speed>25.50226852654485</speed>
  <fix>3d</fix>
</trkpt>
<trkpt lat="-27.2780694" lon="151.2992424">
  <ele>392.44</ele>
  <time>2026-09-01T19:55:38Z</time>
  <course>19.11</course>
  <speed>25.47</speed>
  <fix>3d</fix>
</trkpt>
<trkpt lat="-27.2779854" lon="151.2992709">
  <ele>392.34</ele>
  <time>2026-09-01T19:55:38Z</time>
  <course>15.82</course>
  <speed>25.502621433884006</speed>
  <fix>3d</fix>
</trkpt>
<trkpt lat="-27.2780257" lon="151.2992582">
  <ele>392.47</ele>
  <time>2026-09-01T19:55:38Z</time>
  <course>16.4</course>
  <speed>25.47</speed>
  <fix>3d</fix>
</trkpt>
<trkpt lat="-27.2779629" lon="151.2992769">
  <ele>392.35</ele>
  <time>2026-09-01T19:55:38Z</time>
  <course>14.43</course>
  <speed>25.510001960015607</speed>
  <fix>3d</fix>
</trkpt>
<trkpt lat="-27.2780257" lon="151.2992582">
  <ele>392.47</ele>
  <time>2026-09-01T19:55:38Z</time>
  <course>16.4</course>
  <speed>25.47</speed>
  <fix>3d</fix>
</trkpt>
<trkpt lat="-27.2779404" lon="151.2992822">
  <ele>392.36</ele>
  <time>2026-09-01T19:55:38Z</time>
  <course>13.15</course>
  <speed>25.50686574238395</speed>
  <fix>3d</fix>
</trkpt>
<trkpt lat="-27.2779816" lon="151.2992716">
  <ele>392.49</ele>
  <time>2026-09-01T19:55:38Z</time>
  <course>13.71</course>
  <speed>25.47</speed>
  <fix>3d</fix>
</trkpt>
<trkpt lat="-27.2779179" lon="151.2992869">
  <ele>392.37</ele>
  <time>2026-09-01T19:55:38Z</time>
  <course>11.81</course>
  <speed>25.507632191169765</speed>
  <fix>3d</fix>
</trkpt>
<trkpt lat="-27.2779816" lon="151.2992716">
  <ele>392.49</ele>
  <time>2026-09-01T19:55:38Z</time>
  <course>13.71</course>
  <speed>25.47</speed>
  <fix>3d</fix>
</trkpt>
<trkpt lat="-27.2778952" lon="151.2992911">
  <ele>392.38</ele>
  <time>2026-09-01T19:55:38Z</time>
  <course>10.46</course>
  <speed>25.510664436662566</speed>
  <fix>3d</fix>
</trkpt>
<trkpt lat="-27.2779369" lon="151.2992826">
  <ele>392.51</ele>
  <time>2026-09-01T19:55:38Z</time>
  <course>11.03</course>
  <speed>25.47</speed>
  <fix>3d</fix>
</trkpt>
<trkpt lat="-27.2778725" lon="151.2992946">
  <ele>392.39</ele>
  <time>2026-09-01T19:55:38Z</time>
  <course>9.13</course>
  <speed>25.50916697973495</speed>
  <fix>3d</fix>
</trkpt>
<trkpt lat="-27.2779369" lon="151.2992826">
  <ele>392.51</ele>
  <time>2026-09-01T19:55:38Z</time>
  <course>11.03</course>
  <speed>25.47</speed>
  <fix>3d</fix>
</trkpt>
<trkpt lat="-27.2778495" lon="151.2992976">
  <ele>392.4</ele>
  <time>2026-09-01T19:55:38Z</time>
  <course>7.72</course>
  <speed>25.508026187849186</speed>
  <fix>3d</fix>
</trkpt>
<trkpt lat="-27.2778918" lon="151.2992912">
  <ele>392.53</ele>
  <time>2026-09-01T19:55:38Z</time>
  <course>8.38</course>
  <speed>25.47</speed>
  <fix>3d</fix>
</trkpt>
<trkpt lat="-27.2778267" lon="151.2992999">
  <ele>392.41</ele>
  <time>2026-09-01T19:55:38Z</time>
  <course>6.35</course>
  <speed>25.51249497795149</speed>
  <fix>3d</fix>
</trkpt>
<trkpt lat="-27.2778918" lon="151.2992912">
  <ele>392.53</ele>
  <time>2026-09-01T19:55:38Z</time>
  <course>8.38</course>
  <speed>25.47</speed>
  <fix>3d</fix>
</trkpt>
<trkpt lat="-27.2778039" lon="151.2993017">
  <ele>392.42</ele>
  <time>2026-09-01T19:55:38Z</time>
  <course>5.01</course>
  <speed>25.50125683177204</speed>
  <fix>3d</fix>
</trkpt>
<trkpt lat="-27.2778464" lon="151.2992975">
  <ele>392.55</ele>
  <time>2026-09-01T19:55:38Z</time>
  <course>5.7</course>
  <speed>25.46</speed>
  <fix>3d</fix>
</trkpt>
<trkpt lat="-27.2777811" lon="151.2993028">
  <ele>392.43</ele>
  <time>2026-09-01T19:55:38Z</time>
  <course>3.68</course>
  <speed>25.49417384423351</speed>
  <fix>3d</fix>
</trkpt>
<trkpt lat="-27.2778464" lon="151.2992975">
  <ele>392.55</ele>
  <time>2026-09-01T19:55:38Z</time>
  <course>5.7</course>
  <speed>25.46</speed>
  <fix>3d</fix>
</trkpt>
<trkpt lat="-27.2777583" lon="151.2993033">
  <ele>392.45</ele>
  <time>2026-09-01T19:55:38Z</time>
  <course>2.33</course>
  <speed>25.49122594148818</speed>
  <fix>3d</fix>
</trkpt>
<trkpt lat="-27.2778008" lon="151.2993014">
  <ele>392.57</ele>
  <time>2026-09-01T19:55:38Z</time>
  <course>2.99</course>
  <speed>25.46</speed>
  <fix>3d</fix>
</trkpt>
<trkpt lat="-27.2777354" lon="151.2993032">
  <ele>392.46</ele>
  <time>2026-09-01T19:55:38Z</time>
  <course>0.97</course>
  <speed>25.502266565934878</speed>
  <fix>3d</fix>
</trkpt>
<trkpt lat="-27.2778008" lon="151.2993014">
  <ele>392.57</ele>
  <time>2026-09-01T19:55:38Z</time>
  <course>2.99</course>
  <speed>25.46</speed>
  <fix>3d</fix>
</trkpt>
<trkpt lat="-27.2777125" lon="151.2993025">
  <ele>392.47</ele>
  <time>2026-09-01T19:55:38Z</time>
  <course>359.61</course>
  <speed>25.497703818187237</speed>
  <fix>3d</fix>
</trkpt>
<trkpt lat="-27.2777551" lon="151.2993029">
  <ele>392.59</ele>
  <time>2026-09-01T19:55:38Z</time>
  <course>0.3</course>
  <speed>25.46</speed>
  <fix>3d</fix>
</trkpt>
<trkpt lat="-27.2776896" lon="151.2993012">
  <ele>392.48</ele>
  <time>2026-09-01T19:55:38Z</time>
  <course>358.33</course>
  <speed>25.506532496597806</speed>
  <fix>3d</fix>
</trkpt>
<trkpt lat="-27.2777551" lon="151.2993029">
  <ele>392.59</ele>
  <time>2026-09-01T19:55:38Z</time>
  <course>0.3</course>
  <speed>25.46</speed>
  <fix>3d</fix>
</trkpt>
<trkpt lat="-27.2776667" lon="151.2992994">
  <ele>392.49</ele>
  <time>2026-09-01T19:55:38Z</time>
  <course>357.01</course>
  <speed>25.508249645947878</speed>
  <fix>3d</fix>
</trkpt>
<trkpt lat="-27.2777093" lon="151.299302">
  <ele>392.61</ele>
  <time>2026-09-01T19:55:38Z</time>
  <course>357.61</course>
  <speed>25.46</speed>
  <fix>3d</fix>
</trkpt>
<trkpt lat="-27.2776438" lon="151.2992969">
  <ele>392.5</ele>
  <time>2026-09-01T19:55:38Z</time>
  <course>355.61</course>
  <speed>25.515393393008857</speed>
  <fix>3d</fix>
</trkpt>
<trkpt lat="-27.2777093" lon="151.299302">
  <ele>392.61</ele>
  <time>2026-09-01T19:55:38Z</time>
  <course>357.61</course>
  <speed>25.46</speed>
  <fix>3d</fix>
</trkpt>
<trkpt lat="-27.2776211" lon="151.2992938">
  <ele>392.51</ele>
  <time>2026-09-01T19:55:38Z</time>
  <course>354.23</course>
  <speed>25.51820722543024</speed>
  <fix>3d</fix>
</trkpt>
<trkpt lat="-27.2776637" lon="151.2992987">
  <ele>392.63</ele>
  <time>2026-09-01T19:55:38Z</time>
  <course>354.93</course>
  <speed>25.46</speed>
  <fix>3d</fix>
</trkpt>
<trkpt lat="-27.2775983" lon="151.29929">
  <ele>392.52</ele>
  <time>2026-09-01T19:55:38Z</time>
  <course>352.96</course>
  <speed>25.514486081440086</speed>
  <fix>3d</fix>
</trkpt>
<trkpt lat="-27.2776637" lon="151.2992987">
  <ele>392.63</ele>
  <time>2026-09-01T19:55:38Z</time>
  <course>354.93</course>
  <speed>25.46</speed>
  <fix>3d</fix>
</trkpt>
<trkpt lat="-27.2775759" lon="151.2992858">
  <ele>392.53</ele>
  <time>2026-09-01T19:55:38Z</time>
  <course>351.73</course>
  <speed>25.519882444870312</speed>
  <fix>3d</fix>
</trkpt>
<trkpt lat="-27.2776182" lon="151.2992929">
  <ele>392.65</ele>
  <time>2026-09-01T19:55:38Z</time>
  <course>352.23</course>
  <speed>25.46</speed>
  <fix>3d</fix>
</trkpt>
<trkpt lat="-27.2775534" lon="151.2992809">
  <ele>392.54</ele>
  <time>2026-09-01T19:55:38Z</time>
  <course>350.42</course>
  <speed>25.518718619868046</speed>
  <fix>3d</fix>
</trkpt>
<trkpt lat="-27.2776182" lon="151.2992929">
  <ele>392.65</ele>
  <time>2026-09-01T19:55:38Z</time>
  <course>352.23</course>
  <speed>25.46</speed>
  <fix>3d</fix>
</trkpt>
<trkpt lat="-27.2775311" lon="151.2992754">
  <ele>392.55</ele>
  <time>2026-09-01T19:55:38Z</time>
  <course>349.05</course>
  <speed>25.513465072388737</speed>
  <fix>3d</fix>
</trkpt>
<trkpt lat="-27.277573" lon="151.2992848">
  <ele>392.66</ele>
  <time>2026-09-01T19:55:38Z</time>
  <course>349.56</course>
  <speed>25.46</speed>
  <fix>3d</fix>
</trkpt>
<trkpt lat="-27.2775089" lon="151.2992694">
  <ele>392.56</ele>
  <time>2026-09-01T19:55:38Z</time>
  <course>347.61</course>
  <speed>25.50991963923054</speed>
  <fix>3d</fix>
</trkpt>
<trkpt lat="-27.277573" lon="151.2992848">
  <ele>392.66</ele>
  <time>2026-09-01T19:55:38Z</time>
  <course>349.56</course>
  <speed>25.46</speed>
  <fix>3d</fix>
</trkpt>
<trkpt lat="-27.2774867" lon="151.2992628">
  <ele>392.57</ele>
  <time>2026-09-01T19:55:38Z</time>
  <course>346.28</course>
  <speed>25.50326253638934</speed>
  <fix>3d</fix>
</trkpt>
<trkpt lat="-27.2775282" lon="151.2992743">
  <ele>392.69</ele>
  <time>2026-09-01T19:55:38Z</time>
  <course>346.92</course>
  <speed>25.46</speed>
  <fix>3d</fix>
</trkpt>
<trkpt lat="-27.2774649" lon="151.2992557">
  <ele>392.58</ele>
  <time>2026-09-01T19:55:38Z</time>
  <course>345.01</course>
  <speed>25.495444691160028</speed>
  <fix>3d</fix>
</trkpt>
<trkpt lat="-27.2775282" lon="151.2992743">
  <ele>392.69</ele>
  <time>2026-09-01T19:55:38Z</time>
  <course>346.92</course>
  <speed>25.46</speed>
  <fix>3d</fix>
</trkpt>
<trkpt lat="-27.2774432" lon="151.299248">
  <ele>392.59</ele>
  <time>2026-09-01T19:55:38Z</time>
  <course>343.65</course>
  <speed>25.491553503072346</speed>
  <fix>3d</fix>
</trkpt>
<trkpt lat="-27.2774839" lon="151.2992615">
  <ele>392.7</ele>
  <time>2026-09-01T19:55:38Z</time>
  <course>344.27</course>
  <speed>25.46</speed>
  <fix>3d</fix>
</trkpt>
<trkpt lat="-27.2774216" lon="151.2992397">
  <ele>392.6</ele>
  <time>2026-09-01T19:55:38Z</time>
  <course>342.23</course>
  <speed>25.482372338540227</speed>
  <fix>3d</fix>
</trkpt>
<trkpt lat="-27.2774839" lon="151.2992615">
  <ele>392.7</ele>
  <time>2026-09-01T19:55:38Z</time>
  <course>344.27</course>
  <speed>25.46</speed>
  <fix>3d</fix>
</trkpt>
<trkpt lat="-27.2774003" lon="151.2992309">
  <ele>392.6</ele>
  <time>2026-09-01T19:55:38Z</time>
  <course>340.96</course>
  <speed>25.47771575318321</speed>
  <fix>3d</fix>
</trkpt>
<trkpt lat="-27.2774402" lon="151.2992464">
  <ele>392.72</ele>
  <time>2026-09-01T19:55:38Z</time>
  <course>341.62</course>
  <speed>25.46</speed>
  <fix>3d</fix>
</trkpt>
<trkpt lat="-27.2773791" lon="151.2992215">
  <ele>392.61</ele>
  <time>2026-09-01T19:55:38Z</time>
  <course>339.65</course>
  <speed>25.479570247553234</speed>
  <fix>3d</fix>
</trkpt>
<trkpt lat="-27.2774402" lon="151.2992464">
  <ele>392.72</ele>
  <time>2026-09-01T19:55:38Z</time>
  <course>341.62</course>
  <speed>25.46</speed>
  <fix>3d</fix>
</trkpt>
<trkpt lat="-27.277358" lon="151.2992114">
  <ele>392.61</ele>
  <time>2026-09-01T19:55:38Z</time>
  <course>338.25</course>
  <speed>25.475017173693917</speed>
  <fix>3d</fix>
</trkpt>
<trkpt lat="-27.2773971" lon="151.299229">
  <ele>392.73</ele>
  <time>2026-09-01T19:55:38Z</time>
  <course>338.96</course>
  <speed>25.46</speed>
  <fix>3d</fix>
</trkpt>
<trkpt lat="-27.2773371" lon="151.2992008">
  <ele>392.61</ele>
  <time>2026-09-01T19:55:38Z</time>
  <course>336.93</course>
  <speed>25.480158947698893</speed>
  <fix>3d</fix>
</trkpt>
<trkpt lat="-27.2773971" lon="151.299229">
  <ele>392.73</ele>
  <time>2026-09-01T19:55:38Z</time>
  <course>338.96</course>
  <speed>25.46</speed>
  <fix>3d</fix>
</trkpt>
<trkpt lat="-27.2773164" lon="151.2991896">
  <ele>392.62</ele>
  <time>2026-09-01T19:55:38Z</time>
  <course>335.63</course>
  <speed>25.487239944725285</speed>
  <fix>3d</fix>
</trkpt>
<trkpt lat="-27.2773548" lon="151.2992094">
  <ele>392.74</ele>
  <time>2026-09-01T19:55:38Z</time>
  <course>336.27</course>
  <speed>25.46</speed>
  <fix>3d</fix>
</trkpt>
<trkpt lat="-27.2772959" lon="151.2991779">
  <ele>392.62</ele>
  <time>2026-09-01T19:55:38Z</time>
  <course>334.3</course>
  <speed>25.499337246289365</speed>
  <fix>3d</fix>
</trkpt>
<trkpt lat="-27.2773548" lon="151.2992094">
  <ele>392.74</ele>
  <time>2026-09-01T19:55:38Z</time>
  <course>336.27</course>
  <speed>25.46</speed>
  <fix>3d</fix>
</trkpt>
<trkpt lat="-27.2772756" lon="151.2991656">
  <ele>392.63</ele>
  <time>2026-09-01T19:55:38Z</time>
  <course>332.97</course>
  <speed>25.51191878318838</speed>
  <fix>3d</fix>
</trkpt>
<trkpt lat="-27.2773134" lon="151.2991876">
  <ele>392.75</ele>
  <time>2026-09-01T19:55:38Z</time>
  <course>333.55</course>
  <speed>25.47</speed>
  <fix>3d</fix>
</trkpt>
<trkpt lat="-27.2772556" lon="151.2991528">
  <ele>392.64</ele>
  <time>2026-09-01T19:55:38Z</time>
  <course>331.64</course>
  <speed>25.511005468228806</speed>
  <fix>3d</fix>
</trkpt>
<trkpt lat="-27.2773134" lon="151.2991876">
  <ele>392.75</ele>
  <time>2026-09-01T19:55:38Z</time>
  <course>333.55</course>
  <speed>25.47</speed>
  <fix>3d</fix>
</trkpt>
<trkpt lat="-27.2772357" lon="151.2991394">
  <ele>392.64</ele>
  <time>2026-09-01T19:55:38Z</time>
  <course>330.31</course>
  <speed>25.523581253421316</speed>
  <fix>3d</fix>
</trkpt>
<trkpt lat="-27.2772729" lon="151.2991637">
  <ele>392.76</ele>
  <time>2026-09-01T19:55:38Z</time>
  <course>330.89</course>
  <speed>25.47</speed>
  <fix>3d</fix>
</trkpt>
<trkpt lat="-27.2772162" lon="151.2991256">
  <ele>392.65</ele>
  <time>2026-09-01T19:55:38Z</time>
  <course>328.99</course>
  <speed>25.527399005774168</speed>
  <fix>3d</fix>
</trkpt>
<trkpt lat="-27.2772729" lon="151.2991637">
  <ele>392.76</ele>
  <time>2026-09-01T19:55:38Z</time>
  <course>330.89</course>
  <speed>25.47</speed>
  <fix>3d</fix>
</trkpt>
<trkpt lat="-27.2771971" lon="151.2991113">
  <ele>392.66</ele>
  <time>2026-09-01T19:55:38Z</time>
  <course>327.67</course>
  <speed>25.522603707302277</speed>
  <fix>3d</fix>
</trkpt>
<trkpt lat="-27.2772335" lon="151.2991376">
  <ele>392.77</ele>
  <time>2026-09-01T19:55:38Z</time>
  <course>328.25</course>
  <speed>25.47</speed>
  <fix>3d</fix>
</trkpt>
<trkpt lat="-27.2771783" lon="151.2990966">
  <ele>392.66</ele>
  <time>2026-09-01T19:55:38Z</time>
  <course>326.27</course>
  <speed>25.53148056811434</speed>
  <fix>3d</fix>
</trkpt>
<trkpt lat="-27.2772335" lon="151.2991376">
  <ele>392.77</ele>
  <time>2026-09-01T19:55:38Z</time>
  <course>328.25</course>
  <speed>25.47</speed>
  <fix>3d</fix>
</trkpt>
<trkpt lat="-27.2771598" lon="151.2990813">
  <ele>392.67</ele>
  <time>2026-09-01T19:55:38Z</time>
  <course>324.93</course>
  <speed>25.530001958480142</speed>
  <fix>3d</fix>
</trkpt>
<trkpt lat="-27.2771951" lon="151.2991095">
  <ele>392.78</ele>
  <time>2026-09-01T19:55:38Z</time>
  <course>325.61</course>
  <speed>25.47</speed>
  <fix>3d</fix>
</trkpt>
<trkpt lat="-27.2771418" lon="151.2990658">
  <ele>392.67</ele>
  <time>2026-09-01T19:55:38Z</time>
  <course>323.62</course>
  <speed>25.52277414388961</speed>
  <fix>3d</fix>
</trkpt>
<trkpt lat="-27.2771951" lon="151.2991095">
  <ele>392.78</ele>
  <time>2026-09-01T19:55:38Z</time>
  <course>325.61</course>
  <speed>25.47</speed>
  <fix>3d</fix>
</trkpt>
<trkpt lat="-27.277124" lon="151.2990496">
  <ele>392.68</ele>
  <time>2026-09-01T19:55:38Z</time>
  <course>322.26</course>
  <speed>25.515485494107295</speed>
  <fix>3d</fix>
</trkpt>
<trkpt lat="-27.2771579" lon="151.2990793">
  <ele>392.8</ele>
  <time>2026-09-01T19:55:38Z</time>
  <course>322.93</course>
  <speed>25.46</speed>
  <fix>3d</fix>
</trkpt>
<trkpt lat="-27.2771066" lon="151.299033">
  <ele>392.68</ele>
  <time>2026-09-01T19:55:38Z</time>
  <course>320.89</course>
  <speed>25.514586024468436</speed>
  <fix>3d</fix>
</trkpt>
<trkpt lat="-27.2771579" lon="151.2990793">
  <ele>392.8</ele>
  <time>2026-09-01T19:55:38Z</time>
  <course>322.93</course>
  <speed>25.46</speed>
  <fix>3d</fix>
</trkpt>
<trkpt lat="-27.2770895" lon="151.2990159">
  <ele>392.69</ele>
  <time>2026-09-01T19:55:38Z</time>
  <course>319.53</course>
  <speed>25.51381194568934</speed>
  <fix>3d</fix>
</trkpt>
<trkpt lat="-27.277122" lon="151.2990473">
  <ele>392.81</ele>
  <time>2026-09-01T19:55:38Z</time>
  <course>320.22</course>
  <speed>25.46</speed>
  <fix>3d</fix>
</trkpt>
<trkpt lat="-27.2770726" lon="151.2989982">
  <ele>392.7</ele>
  <time>2026-09-01T19:55:38Z</time>
  <course>318.15</course>
  <speed>25.51275955281984</speed>
  <fix>3d</fix>
</trkpt>
<trkpt lat="-27.277122" lon="151.2990473">
  <ele>392.81</ele>
  <time>2026-09-01T19:55:38Z</time>
  <course>320.22</course>
  <speed>25.46</speed>
  <fix>3d</fix>
</trkpt>
<trkpt lat="-27.2770563" lon="151.2989802">
  <ele>392.71</ele>
  <time>2026-09-01T19:55:39Z</time>
  <course>316.83</course>
  <speed>25.50535041907874</speed>
  <fix>3d</fix>
</trkpt>
<trkpt lat="-27.2770876" lon="151.2990135">
  <ele>392.83</ele>
  <time>2026-09-01T19:55:39Z</time>
  <course>317.51</course>
  <speed>25.45</speed>
  <fix>3d</fix>
</trkpt>
<trkpt lat="-27.2770403" lon="151.2989618">
  <ele>392.72</ele>
  <time>2026-09-01T19:55:39Z</time>
  <course>315.44</course>
  <speed>25.504862281533693</speed>
  <fix>3d</fix>
</trkpt>
<trkpt lat="-27.2770876" lon="151.2990135">
  <ele>392.83</ele>
  <time>2026-09-01T19:55:39Z</time>
  <course>317.51</course>
  <speed>25.45</speed>
  <fix>3d</fix>
</trkpt>
<trkpt lat="-27.2770248" lon="151.298943">
  <ele>392.73</ele>
  <time>2026-09-01T19:55:39Z</time>
  <course>314.08</course>
  <speed>25.497674403756903</speed>
  <fix>3d</fix>
</trkpt>
<trkpt lat="-27.2770546" lon="151.2989779">
  <ele>392.84</ele>
  <time>2026-09-01T19:55:39Z</time>
  <course>314.8</course>
  <speed>25.45</speed>
  <fix>3d</fix>
</trkpt>
<trkpt lat="-27.2770096" lon="151.2989237">
  <ele>392.74</ele>
  <time>2026-09-01T19:55:39Z</time>
  <course>312.74</course>
  <speed>25.504027132984312</speed>
  <fix>3d</fix>
</trkpt>
<trkpt lat="-27.2770546" lon="151.2989779">
  <ele>392.84</ele>
  <time>2026-09-01T19:55:39Z</time>
  <course>314.8</course>
  <speed>25.45</speed>
  <fix>3d</fix>
</trkpt>
<trkpt lat="-27.2769948" lon="151.2989041">
  <ele>392.75</ele>
  <time>2026-09-01T19:55:39Z</time>
  <course>311.41</course>
  <speed>25.496074207610864</speed>
  <fix>3d</fix>
</trkpt>
<trkpt lat="-27.2770232" lon="151.2989405">
  <ele>392.86</ele>
  <time>2026-09-01T19:55:39Z</time>
  <course>312.1</course>
  <speed>25.45</speed>
  <fix>3d</fix>
</trkpt>
<trkpt lat="-27.2769805" lon="151.2988841">
  <ele>392.75</ele>
  <time>2026-09-01T19:55:39Z</time>
  <course>309.99</course>
  <speed>25.50208226792471</speed>
  <fix>3d</fix>
</trkpt>
<trkpt lat="-27.2770232" lon="151.2989405">
  <ele>392.86</ele>
  <time>2026-09-01T19:55:39Z</time>
  <course>312.1</course>
  <speed>25.45</speed>
  <fix>3d</fix>
</trkpt>
<trkpt lat="-27.2769665" lon="151.2988637">
  <ele>392.76</ele>
  <time>2026-09-01T19:55:39Z</time>
  <course>308.57</course>
  <speed>25.494034596352144</speed>
  <fix>3d</fix>
</trkpt>
<trkpt lat="-27.2769934" lon="151.2989016">
  <ele>392.87</ele>
  <time>2026-09-01T19:55:39Z</time>
  <course>309.41</course>
  <speed>25.45</speed>
  <fix>3d</fix>
</trkpt>
<trkpt lat="-27.276953" lon="151.2988429">
  <ele>392.75</ele>
  <time>2026-09-01T19:55:39Z</time>
  <course>307.14</course>
  <speed>25.496597812257228</speed>
  <fix>3d</fix>
</trkpt>
<trkpt lat="-27.2769934" lon="151.2989016">
  <ele>392.87</ele>
  <time>2026-09-01T19:55:39Z</time>
  <course>309.41</course>
  <speed>25.45</speed>
  <fix>3d</fix>
</trkpt>
<trkpt lat="-27.27694" lon="151.2988218">
  <ele>392.73</ele>
  <time>2026-09-01T19:55:39Z</time>
  <course>305.73</course>
  <speed>25.497492033531454</speed>
  <fix>3d</fix>
</trkpt>
<trkpt lat="-27.2769652" lon="151.298861">
  <ele>392.88</ele>
  <time>2026-09-01T19:55:39Z</time>
  <course>306.7</course>
  <speed>25.45</speed>
  <fix>3d</fix>
</trkpt>
<trkpt lat="-27.2769275" lon="151.2988003">
  <ele>392.7</ele>
  <time>2026-09-01T19:55:39Z</time>
  <course>304.24</course>
  <speed>25.51005488038001</speed>
  <fix>3d</fix>
</trkpt>
<trkpt lat="-27.2769652" lon="151.298861">
  <ele>392.88</ele>
  <time>2026-09-01T19:55:39Z</time>
  <course>306.7</course>
  <speed>25.45</speed>
  <fix>3d</fix>
</trkpt>
<trkpt lat="-27.2769155" lon="151.2987784">
  <ele>392.66</ele>
  <time>2026-09-01T19:55:39Z</time>
  <course>302.73</course>
  <speed>25.520707278600252</speed>
  <fix>3d</fix>
</trkpt>
<trkpt lat="-27.2769387" lon="151.2988191">
  <ele>392.86</ele>
  <time>2026-09-01T19:55:39Z</time>
  <course>303.84</course>
  <speed>25.46</speed>
  <fix>3d</fix>
</trkpt>
<trkpt lat="-27.276904" lon="151.2987561">
  <ele>392.61</ele>
  <time>2026-09-01T19:55:39Z</time>
  <course>301.11</course>
  <speed>25.541045397555678</speed>
  <fix>3d</fix>
</trkpt>
<trkpt lat="-27.2769387" lon="151.2988191">
  <ele>392.86</ele>
  <time>2026-09-01T19:55:39Z</time>
  <course>303.84</course>
  <speed>25.46</speed>
  <fix>3d</fix>
</trkpt>
<trkpt lat="-27.2768932" lon="151.2987334">
  <ele>392.56</ele>
  <time>2026-09-01T19:55:39Z</time>
  <course>299.41</course>
  <speed>25.565689898768625</speed>
  <fix>3d</fix>
</trkpt>
<trkpt lat="-27.2769143" lon="151.2987756">
  <ele>392.8</ele>
  <time>2026-09-01T19:55:39Z</time>
  <course>300.68</course>
  <speed>25.48</speed>
  <fix>3d</fix>
</trkpt>
<trkpt lat="-27.2768829" lon="151.2987103">
  <ele>392.5</ele>
  <time>2026-09-01T19:55:39Z</time>
  <course>297.8</course>
  <speed>25.58811638241471</speed>
  <fix>3d</fix>
</trkpt>
<trkpt lat="-27.2769143" lon="151.2987756">
  <ele>392.8</ele>
  <time>2026-09-01T19:55:39Z</time>
  <course>300.68</course>
  <speed>25.48</speed>
  <fix>3d</fix>
</trkpt>
<trkpt lat="-27.2768733" lon="151.2986868">
  <ele>392.43</ele>
  <time>2026-09-01T19:55:39Z</time>
  <course>296.21</course>
  <speed>25.606024681703328</speed>
  <fix>3d</fix>
</trkpt>
<trkpt lat="-27.2768922" lon="151.2987305">
  <ele>392.7</ele>
  <time>2026-09-01T19:55:39Z</time>
  <course>297.24</course>
  <speed>25.52</speed>
  <fix>3d</fix>
</trkpt>
<trkpt lat="-27.2768643" lon="151.2986631">
  <ele>392.36</ele>
  <time>2026-09-01T19:55:39Z</time>
  <course>294.67</course>
  <speed>25.616309257970787</speed>
  <fix>3d</fix>
</trkpt>
<trkpt lat="-27.2768922" lon="151.2987305">
  <ele>392.7</ele>
  <time>2026-09-01T19:55:39Z</time>
  <course>297.24</course>
  <speed>25.52</speed>
  <fix>3d</fix>
</trkpt>
<trkpt lat="-27.2768558" lon="151.298639">
  <ele>392.27</ele>
  <time>2026-09-01T19:55:39Z</time>
  <course>293.2</course>
  <speed>25.61609845390199</speed>
  <fix>3d</fix>
</trkpt>
<trkpt lat="-27.2768724" lon="151.2986838">
  <ele>392.57</ele>
  <time>2026-09-01T19:55:39Z</time>
  <course>293.83</course>
  <speed>25.57</speed>
  <fix>3d</fix>
</trkpt>
<trkpt lat="-27.2768479" lon="151.2986148">
  <ele>392.18</ele>
  <time>2026-09-01T19:55:39Z</time>
  <course>291.85</course>
  <speed>25.628267596542692</speed>
  <fix>3d</fix>
</trkpt>
<trkpt lat="-27.2768724" lon="151.2986838">
  <ele>392.57</ele>
  <time>2026-09-01T19:55:39Z</time>
  <course>293.83</course>
  <speed>25.57</speed>
  <fix>3d</fix>
</trkpt>
<trkpt lat="-27.2768405" lon="151.2985903">
  <ele>392.08</ele>
  <time>2026-09-01T19:55:39Z</time>
  <course>290.59</course>
  <speed>25.62099919987509</speed>
  <fix>3d</fix>
</trkpt>
<trkpt lat="-27.2768549" lon="151.2986359">
  <ele>392.42</ele>
  <time>2026-09-01T19:55:39Z</time>
  <course>290.72</course>
  <speed>25.6</speed>
  <fix>3d</fix>
</trkpt>
<trkpt lat="-27.2768336" lon="151.2985656">
  <ele>391.96</ele>
  <time>2026-09-01T19:55:39Z</time>
  <course>289.46</course>
  <speed>25.609767667825494</speed>
  <fix>3d</fix>
</trkpt>
<trkpt lat="-27.2768549" lon="151.2986359">
  <ele>392.42</ele>
  <time>2026-09-01T19:55:39Z</time>
  <course>290.72</course>
  <speed>25.6</speed>
  <fix>3d</fix>
</trkpt>
<trkpt lat="-27.276827" lon="151.2985406">
  <ele>391.82</ele>
  <time>2026-09-01T19:55:39Z</time>
  <course>288.36</course>
  <speed>25.601265593716263</speed>
  <fix>3d</fix>
</trkpt>
<trkpt lat="-27.2768397" lon="151.2985871">
  <ele>392.22</ele>
  <time>2026-09-01T19:55:39Z</time>
  <course>287.99</course>
  <speed>25.6</speed>
  <fix>3d</fix>
</trkpt>
<trkpt lat="-27.2768209" lon="151.2985157">
  <ele>391.66</ele>
  <time>2026-09-01T19:55:39Z</time>
  <course>287.34</course>
  <speed>25.583324647121216</speed>
  <fix>3d</fix>
</trkpt>
<trkpt lat="-27.2768397" lon="151.2985871">
  <ele>392.22</ele>
  <time>2026-09-01T19:55:39Z</time>
  <course>287.99</course>
  <speed>25.6</speed>
  <fix>3d</fix>
</trkpt>
<trkpt lat="-27.2768152" lon="151.2984907">
  <ele>391.49</ele>
  <time>2026-09-01T19:55:39Z</time>
  <course>286.4</course>
  <speed>25.560831363631348</speed>
  <fix>3d</fix>
</trkpt>
<trkpt lat="-27.2768264" lon="151.2985376">
  <ele>391.97</ele>
  <time>2026-09-01T19:55:39Z</time>
  <course>285.69</course>
  <speed>25.58</speed>
  <fix>3d</fix>
</trkpt>
<trkpt lat="-27.2768099" lon="151.2984657">
  <ele>391.29</ele>
  <time>2026-09-01T19:55:39Z</time>
  <course>285.45</course>
  <speed>25.53963586271347</speed>
  <fix>3d</fix>
</trkpt>
<trkpt lat="-27.2768264" lon="151.2985376">
  <ele>391.97</ele>
  <time>2026-09-01T19:55:39Z</time>
  <course>285.69</course>
  <speed>25.58</speed>
  <fix>3d</fix>
</trkpt>
<trkpt lat="-27.2768048" lon="151.2984405">
  <ele>391.07</ele>
  <time>2026-09-01T19:55:39Z</time>
  <course>284.55</course>
  <speed>25.52640201830254</speed>
  <fix>3d</fix>
</trkpt>
<trkpt lat="-27.2768147" lon="151.2984875">
  <ele>391.64</ele>
  <time>2026-09-01T19:55:39Z</time>
  <course>283.76</course>
  <speed>25.55</speed>
  <fix>3d</fix>
</trkpt>
<trkpt lat="-27.2768001" lon="151.2984153">
  <ele>390.82</ele>
  <time>2026-09-01T19:55:39Z</time>
  <course>283.63</course>
  <speed>25.50310177213744</speed>
  <fix>3d</fix>
</trkpt>
<trkpt lat="-27.2768147" lon="151.2984875">
  <ele>391.64</ele>
  <time>2026-09-01T19:55:39Z</time>
  <course>283.76</course>
  <speed>25.55</speed>
  <fix>3d</fix>
</trkpt>
<trkpt lat="-27.2767958" lon="151.29839">
  <ele>390.56</ele>
  <time>2026-09-01T19:55:39Z</time>
  <course>282.69</course>
  <speed>25.494511173976253</speed>
  <fix>3d</fix>
</trkpt>
<trkpt lat="-27.2768045" lon="151.2984373">
  <ele>391.22</ele>
  <time>2026-09-01T19:55:39Z</time>
  <course>282.05</course>
  <speed>25.51</speed>
  <fix>3d</fix>
</trkpt>
<trkpt lat="-27.2767917" lon="151.2983647">
  <ele>390.28</ele>
  <time>2026-09-01T19:55:39Z</time>
  <course>281.77</course>
  <speed>25.490865030437863</speed>
  <fix>3d</fix>
</trkpt>
<trkpt lat="-27.2768045" lon="151.2984373">
  <ele>391.22</ele>
  <time>2026-09-01T19:55:39Z</time>
  <course>282.05</course>
  <speed>25.51</speed>
  <fix>3d</fix>
</trkpt>
<trkpt lat="-27.276788" lon="151.2983393">
  <ele>390.0</ele>
  <time>2026-09-01T19:55:39Z</time>
  <course>280.92</course>
  <speed>25.49058257474709</speed>
  <fix>3d</fix>
</trkpt>
<trkpt lat="-27.2767956" lon="151.2983867">
  <ele>390.72</ele>
  <time>2026-09-01T19:55:39Z</time>
  <course>280.42</course>
  <speed>25.49</speed>
  <fix>3d</fix>
</trkpt>
<trkpt lat="-27.2767845" lon="151.2983138">
  <ele>389.7</ele>
  <time>2026-09-01T19:55:39Z</time>
  <course>280.05</course>
  <speed>25.498411715242188</speed>
  <fix>3d</fix>
</trkpt>
<trkpt lat="-27.2767956" lon="151.2983867">
  <ele>390.72</ele>
  <time>2026-09-01T19:55:39Z</time>
  <course>280.42</course>
  <speed>25.49</speed>
  <fix>3d</fix>
</trkpt>
<trkpt lat="-27.2767814" lon="151.2982883">
  <ele>389.4</ele>
  <time>2026-09-01T19:55:39Z</time>
  <course>279.16</course>
  <speed>25.512226480650412</speed>
  <fix>3d</fix>
</trkpt>
<trkpt lat="-27.2767879" lon="151.298336">
  <ele>390.16</ele>
  <time>2026-09-01T19:55:39Z</time>
  <course>278.83</course>
  <speed>25.48</speed>
  <fix>3d</fix>
</trkpt>
<trkpt lat="-27.2767786" lon="151.2982627">
  <ele>389.09</ele>
  <time>2026-09-01T19:55:39Z</time>
  <course>278.28</course>
  <speed>25.53162940354571</speed>
  <fix>3d</fix>
</trkpt>
<trkpt lat="-27.2767879" lon="151.298336">
  <ele>390.16</ele>
  <time>2026-09-01T19:55:39Z</time>
  <course>278.83</course>
  <speed>25.48</speed>
  <fix>3d</fix>
</trkpt>
<trkpt lat="-27.276776" lon="151.2982371">
  <ele>388.79</ele>
  <time>2026-09-01T19:55:39Z</time>
  <course>277.41</course>
  <speed>25.545222645340164</speed>
  <fix>3d</fix>
</trkpt>
<trkpt lat="-27.2767816" lon="151.298285">
  <ele>389.58</ele>
  <time>2026-09-01T19:55:39Z</time>
  <course>277.3</course>
  <speed>25.49</speed>
  <fix>3d</fix>
</trkpt>
<trkpt lat="-27.2767738" lon="151.2982114">
  <ele>388.49</ele>
  <time>2026-09-01T19:55:39Z</time>
  <course>276.63</course>
  <speed>25.57380886766772</speed>
  <fix>3d</fix>
</trkpt>
<trkpt lat="-27.2767816" lon="151.298285">
  <ele>389.58</ele>
  <time>2026-09-01T19:55:39Z</time>
  <course>277.3</course>
  <speed>25.49</speed>
  <fix>3d</fix>
</trkpt>
<trkpt lat="-27.2767718" lon="151.2981857">
  <ele>388.2</ele>
  <time>2026-09-01T19:55:39Z</time>
  <course>275.84</course>
  <speed>25.606257047838913</speed>
  <fix>3d</fix>
</trkpt>
<trkpt lat="-27.2767763" lon="151.2982338">
  <ele>388.99</ele>
  <time>2026-09-01T19:55:39Z</time>
  <course>275.84</course>
  <speed>25.53</speed>
  <fix>3d</fix>
</trkpt>
<trkpt lat="-27.2767701" lon="151.2981599">
  <ele>387.93</ele>
  <time>2026-09-01T19:55:39Z</time>
  <course>275.11</course>
  <speed>25.63398135288391</speed>
  <fix>3d</fix>
</trkpt>
<trkpt lat="-27.2767763" lon="151.2982338">
  <ele>388.99</ele>
  <time>2026-09-01T19:55:39Z</time>
  <course>275.84</course>
  <speed>25.53</speed>
  <fix>3d</fix>
</trkpt>
<trkpt lat="-27.2767687" lon="151.298134">
  <ele>387.66</ele>
  <time>2026-09-01T19:55:39Z</time>
  <course>274.42</course>
  <speed>25.656260444577654</speed>
  <fix>3d</fix>
</trkpt>
<trkpt lat="-27.2767722" lon="151.2981822">
  <ele>388.41</ele>
  <time>2026-09-01T19:55:39Z</time>
  <course>274.45</course>
  <speed>25.57</speed>
  <fix>3d</fix>
</trkpt>
<trkpt lat="-27.2767675" lon="151.2981081">
  <ele>387.41</ele>
  <time>2026-09-01T19:55:39Z</time>
  <course>273.82</course>
  <speed>25.672430738050497</speed>
  <fix>3d</fix>
</trkpt>
<trkpt lat="-27.2767722" lon="151.2981822">
  <ele>388.41</ele>
  <time>2026-09-01T19:55:39Z</time>
  <course>274.45</course>
  <speed>25.57</speed>
  <fix>3d</fix>
</trkpt>
<trkpt lat="-27.2767665" lon="151.2980822">
  <ele>387.18</ele>
  <time>2026-09-01T19:55:39Z</time>
  <course>273.19</course>
  <speed>25.69146550899734</speed>
  <fix>3d</fix>
</trkpt>
<trkpt lat="-27.2767691" lon="151.2981305">
  <ele>387.87</ele>
  <time>2026-09-01T19:55:39Z</time>
  <course>273.19</course>
  <speed>25.62</speed>
  <fix>3d</fix>
</trkpt>
<trkpt lat="-27.2767657" lon="151.2980563">
  <ele>386.96</ele>
  <time>2026-09-01T19:55:39Z</time>
  <course>272.65</course>
  <speed>25.713723962117975</speed>
  <fix>3d</fix>
</trkpt>
<trkpt lat="-27.2767691" lon="151.2981305">
  <ele>387.87</ele>
  <time>2026-09-01T19:55:39Z</time>
  <course>273.19</course>
  <speed>25.62</speed>
  <fix>3d</fix>
</trkpt>
<trkpt lat="-27.2767651" lon="151.2980303">
  <ele>386.75</ele>
  <time>2026-09-01T19:55:39Z</time>
  <course>272.14</course>
  <speed>25.717964538431104</speed>
  <fix>3d</fix>
</trkpt>
<trkpt lat="-27.276767" lon="151.2980787">
  <ele>387.39</ele>
  <time>2026-09-01T19:55:39Z</time>
  <course>272.11</course>
  <speed>25.66</speed>
  <fix>3d</fix>
</trkpt>
<trkpt lat="-27.2767647" lon="151.2980046">
  <ele>386.56</ele>
  <time>2026-09-01T19:55:39Z</time>
  <course>271.69</course>
  <speed>25.724293965044016</speed>
  <fix>3d</fix>
</trkpt>
<trkpt lat="-27.276767" lon="151.2980787">
  <ele>387.39</ele>
  <time>2026-09-01T19:55:39Z</time>
  <course>272.11</course>
  <speed>25.66</speed>
  <fix>3d</fix>
</trkpt>
<trkpt lat="-27.2767644" lon="151.2979786">
  <ele>386.37</ele>
  <time>2026-09-01T19:55:39Z</time>
  <course>271.31</course>
  <speed>25.731989818123278</speed>
  <fix>3d</fix>
</trkpt>
<trkpt lat="-27.2767657" lon="151.2980269">
  <ele>386.97</ele>
  <time>2026-09-01T19:55:39Z</time>
  <course>271.21</course>
  <speed>25.68</speed>
  <fix>3d</fix>
</trkpt>
<trkpt lat="-27.2767642" lon="151.2979526">
  <ele>386.2</ele>
  <time>2026-09-01T19:55:39Z</time>
  <course>270.98</course>
  <speed>25.7307015061774</speed>
  <fix>3d</fix>
</trkpt>
<trkpt lat="-27.2767657" lon="151.2980269">
  <ele>386.97</ele>
  <time>2026-09-01T19:55:39Z</time>
  <course>271.21</course>
  <speed>25.68</speed>
  <fix>3d</fix>
</trkpt>
<trkpt lat="-27.2767642" lon="151.2979266">
  <ele>386.03</ele>
  <time>2026-09-01T19:55:39Z</time>
  <course>270.62</course>
  <speed>25.73009521941184</speed>
  <fix>3d</fix>
</trkpt>
<trkpt lat="-27.276765" lon="151.297975">
  <ele>386.59</ele>
  <time>2026-09-01T19:55:39Z</time>
  <course>270.5</course>
  <speed>25.68</speed>
  <fix>3d</fix>
</trkpt>
<trkpt lat="-27.2767642" lon="151.2979002">
  <ele>385.88</ele>
  <time>2026-09-01T19:55:39Z</time>
  <course>270.33</course>
  <speed>25.73000777302642</speed>
  <fix>3d</fix>
</trkpt>
<trkpt lat="-27.276765" lon="151.297975">
  <ele>386.59</ele>
  <time>2026-09-01T19:55:39Z</time>
  <course>270.5</course>
  <speed>25.68</speed>
  <fix>3d</fix>
</trkpt>
<trkpt lat="-27.2767643" lon="151.2978742">
  <ele>385.74</ele>
  <time>2026-09-01T19:55:39Z</time>
  <course>270.12</course>
  <speed>25.720194400509495</speed>
  <fix>3d</fix>
</trkpt>
<trkpt lat="-27.2767648" lon="151.2979231">
  <ele>386.25</ele>
  <time>2026-09-01T19:55:39Z</time>
  <course>269.95</course>
  <speed>25.68</speed>
  <fix>3d</fix>
</trkpt>
<trkpt lat="-27.2767645" lon="151.2978483">
  <ele>385.6</ele>
  <time>2026-09-01T19:55:39Z</time>
  <course>269.97</course>
  <speed>25.710562031974334</speed>
  <fix>3d</fix>
</trkpt>
<trkpt lat="-27.2767648" lon="151.2979231">
  <ele>386.25</ele>
  <time>2026-09-01T19:55:39Z</time>
  <course>269.95</course>
  <speed>25.68</speed>
  <fix>3d</fix>
</trkpt>
<trkpt lat="-27.2767647" lon="151.2978224">
  <ele>385.48</ele>
  <time>2026-09-01T19:55:39Z</time>
  <course>269.9</course>
  <speed>25.690858296288976</speed>
  <fix>3d</fix>
</trkpt>
<trkpt lat="-27.276765" lon="151.2978712">
  <ele>385.96</ele>
  <time>2026-09-01T19:55:39Z</time>
  <course>269.57</course>
  <speed>25.66</speed>
  <fix>3d</fix>
</trkpt>
<trkpt lat="-27.276765" lon="151.2977966">
  <ele>385.37</ele>
  <time>2026-09-01T19:55:39Z</time>
  <course>269.81</course>
  <speed>25.680858630505327</speed>
  <fix>3d</fix>
</trkpt>
<trkpt lat="-27.276765" lon="151.2978712">
  <ele>385.96</ele>
  <time>2026-09-01T19:55:39Z</time>
  <course>269.57</course>
  <speed>25.66</speed>
  <fix>3d</fix>
</trkpt>
<trkpt lat="-27.2767652" lon="151.2977709">
  <ele>385.27</ele>
  <time>2026-09-01T19:55:39Z</time>
  <course>269.76</course>
  <speed>25.650703694050968</speed>
  <fix>3d</fix>
</trkpt>
<trkpt lat="-27.2767654" lon="151.2978193">
  <ele>385.71</ele>
  <time>2026-09-01T19:55:39Z</time>
  <course>269.36</course>
  <speed>25.63</speed>
  <fix>3d</fix>
</trkpt>
<trkpt lat="-27.2767654" lon="151.2977451">
  <ele>385.17</ele>
  <time>2026-09-01T19:55:39Z</time>
  <course>269.83</course>
  <speed>25.630280919256425</speed>
  <fix>3d</fix>
</trkpt>
<trkpt lat="-27.2767654" lon="151.2978193">
  <ele>385.71</ele>
  <time>2026-09-01T19:55:39Z</time>
  <course>269.36</course>
  <speed>25.63</speed>
  <fix>3d</fix>
</trkpt>
<trkpt lat="-27.2767656" lon="151.2977195">
  <ele>385.08</ele>
  <time>2026-09-01T19:55:39Z</time>
  <course>269.98</course>
  <speed>25.600007812498806</speed>
  <fix>3d</fix>
</trkpt>
<trkpt lat="-27.2767658" lon="151.2977676">
  <ele>385.5</ele>
  <time>2026-09-01T19:55:39Z</time>
  <course>269.42</course>
  <speed>25.6</speed>
  <fix>3d</fix>
</trkpt>
<trkpt lat="-27.2767656" lon="151.2976938">
  <ele>384.99</ele>
  <time>2026-09-01T19:55:39Z</time>
  <course>270.14</course>
  <speed>25.580281468349796</speed>
  <fix>3d</fix>
</trkpt>
<trkpt lat="-27.2767658" lon="151.2977676">
  <ele>385.5</ele>
  <time>2026-09-01T19:55:39Z</time>
  <course>269.42</course>
  <speed>25.6</speed>
  <fix>3d</fix>
</trkpt>
<trkpt lat="-27.2767655" lon="151.297668">
  <ele>384.9</ele>
  <time>2026-09-01T19:55:39Z</time>
  <course>270.32</course>
  <speed>25.561879821327693</speed>
  <fix>3d</fix>
</trkpt>
<trkpt lat="-27.2767662" lon="151.2977159">
  <ele>385.31</ele>
  <time>2026-09-01T19:55:39Z</time>
  <course>269.81</course>
  <speed>25.56</speed>
  <fix>3d</fix>
</trkpt>
<trkpt lat="-27.2767652" lon="151.2976423">
  <ele>384.81</ele>
  <time>2026-09-01T19:55:39Z</time>
  <course>270.6</course>
  <speed>25.53571028970998</speed>
  <fix>3d</fix>
</trkpt>
<trkpt lat="-27.2767662" lon="151.2977159">
  <ele>385.31</ele>
  <time>2026-09-01T19:55:39Z</time>
  <course>269.81</course>
  <speed>25.56</speed>
  <fix>3d</fix>
</trkpt>
<trkpt lat="-27.2767647" lon="151.2976165">
  <ele>384.73</ele>
  <time>2026-09-01T19:55:39Z</time>
  <course>270.99</course>
  <speed>25.5222295264344</speed>
  <fix>3d</fix>
</trkpt>
<trkpt lat="-27.2767661" lon="151.2976643">
  <ele>385.13</ele>
  <time>2026-09-01T19:55:39Z</time>
  <course>270.57</course>
  <speed>25.51</speed>
  <fix>3d</fix>
</trkpt>
<trkpt lat="-27.2767639" lon="151.2975907">
  <ele>384.66</ele>
  <time>2026-09-01T19:55:39Z</time>
  <course>271.44</course>
  <speed>25.512447942132095</speed>
  <fix>3d</fix>
</trkpt>
<trkpt lat="-27.2767661" lon="151.2976643">
  <ele>385.13</ele>
  <time>2026-09-01T19:55:39Z</time>
  <course>270.57</course>
  <speed>25.51</speed>
  <fix>3d</fix>
</trkpt>
<trkpt lat="-27.2767629" lon="151.2975649">
  <ele>384.59</ele>
  <time>2026-09-01T19:55:39Z</time>
  <course>272.0</course>
  <speed>25.507357762026235</speed>
  <fix>3d</fix>
</trkpt>
<trkpt lat="-27.2767653" lon="151.2976127">
  <ele>384.97</ele>
  <time>2026-09-01T19:55:39Z</time>
  <course>271.66</course>
  <speed>25.47</speed>
  <fix>3d</fix>
</trkpt>
<trkpt lat="-27.2767616" lon="151.2975391">
  <ele>384.52</ele>
  <time>2026-09-01T19:55:39Z</time>
  <course>272.61</course>
  <speed>25.49807835896658</speed>
  <fix>3d</fix>
</trkpt>
<trkpt lat="-27.2767653" lon="151.2976127">
  <ele>384.97</ele>
  <time>2026-09-01T19:55:39Z</time>
  <course>271.66</course>
  <speed>25.47</speed>
  <fix>3d</fix>
</trkpt>
<trkpt lat="-27.2767599" lon="151.2975134">
  <ele>384.46</ele>
  <time>2026-09-01T19:55:39Z</time>
  <course>273.33</course>
  <speed>25.494175805465844</speed>
  <fix>3d</fix>
</trkpt>
<trkpt lat="-27.2767634" lon="151.2975612">
  <ele>384.83</ele>
  <time>2026-09-01T19:55:39Z</time>
  <course>273.01</course>
  <speed>25.44</speed>
  <fix>3d</fix>
</trkpt>
<trkpt lat="-27.276758" lon="151.2974877">
  <ele>384.41</ele>
  <time>2026-09-01T19:55:39Z</time>
  <course>274.16</course>
  <speed>25.4780709630851</speed>
  <fix>3d</fix>
</trkpt>
<trkpt lat="-27.2767634" lon="151.2975612">
  <ele>384.83</ele>
  <time>2026-09-01T19:55:39Z</time>
  <course>273.01</course>
  <speed>25.44</speed>
  <fix>3d</fix>
</trkpt>
<trkpt lat="-27.2767557" lon="151.2974624">
  <ele>384.36</ele>
  <time>2026-09-01T19:55:39Z</time>
  <course>275.06</course>
  <speed>25.469954848801752</speed>
  <fix>3d</fix>
</trkpt>
<trkpt lat="-27.2767604" lon="151.2975098">
  <ele>384.71</ele>
  <time>2026-09-01T19:55:39Z</time>
  <course>274.6</course>
  <speed>25.41</speed>
  <fix>3d</fix>
</trkpt>
<trkpt lat="-27.276753" lon="151.2974369">
  <ele>384.31</ele>
  <time>2026-09-01T19:55:39Z</time>
  <course>275.99</course>
  <speed>25.450943008069466</speed>
  <fix>3d</fix>
</trkpt>
<trkpt lat="-27.2767604" lon="151.2975098">
  <ele>384.71</ele>
  <time>2026-09-01T19:55:39Z</time>
  <course>274.6</course>
  <speed>25.41</speed>
  <fix>3d</fix>
</trkpt>
<trkpt lat="-27.27675" lon="151.2974116">
  <ele>384.27</ele>
  <time>2026-09-01T19:55:39Z</time>
  <course>276.91</course>
  <speed>25.430603610610582</speed>
  <fix>3d</fix>
</trkpt>
<trkpt lat="-27.276756" lon="151.2974587">
  <ele>384.61</ele>
  <time>2026-09-01T19:55:39Z</time>
  <course>276.4</course>
  <speed>25.39</speed>
  <fix>3d</fix>
</trkpt>
<trkpt lat="-27.2767466" lon="151.2973864">
  <ele>384.23</ele>
  <time>2026-09-01T19:55:39Z</time>
  <course>277.89</course>
  <speed>25.4210326304814</speed>
  <fix>3d</fix>
</trkpt>
<trkpt lat="-27.276756" lon="151.2974587">
  <ele>384.61</ele>
  <time>2026-09-01T19:55:39Z</time>
  <course>276.4</course>
  <speed>25.39</speed>
  <fix>3d</fix>
</trkpt>
<trkpt lat="-27.2767427" lon="151.2973611">
  <ele>384.2</ele>
  <time>2026-09-01T19:55:39Z</time>
  <course>278.91</course>
  <speed>25.40182080087961</speed>
  <fix>3d</fix>
</trkpt>
<trkpt lat="-27.2767502" lon="151.2974079">
  <ele>384.53</ele>
  <time>2026-09-01T19:55:39Z</time>
  <course>278.38</course>
  <speed>25.36</speed>
  <fix>3d</fix>
</trkpt>
<trkpt lat="-27.2767385" lon="151.2973361">
  <ele>384.17</ele>
  <time>2026-09-01T19:55:39Z</time>
  <course>279.93</course>
  <speed>25.38152477689234</speed>
  <fix>3d</fix>
</trkpt>
<trkpt lat="-27.2767502" lon="151.2974079">
  <ele>384.53</ele>
  <time>2026-09-01T19:55:39Z</time>
  <course>278.38</course>
  <speed>25.36</speed>
  <fix>3d</fix>
</trkpt>
<trkpt lat="-27.2767338" lon="151.2973112">
  <ele>384.14</ele>
  <time>2026-09-01T19:55:39Z</time>
  <course>280.94</course>
  <speed>25.362454534212574</speed>
  <fix>3d</fix>
</trkpt>
<trkpt lat="-27.2767427" lon="151.2973574">
  <ele>384.46</ele>
  <time>2026-09-01T19:55:39Z</time>
  <course>280.49</course>
  <speed>25.34</speed>
  <fix>3d</fix>
</trkpt>
<trkpt lat="-27.2767287" lon="151.2972864">
  <ele>384.11</ele>
  <time>2026-09-01T19:55:39Z</time>
  <course>281.98</course>
  <speed>25.350284022077545</speed>
  <fix>3d</fix>
</trkpt>
<trkpt lat="-27.2767427" lon="151.2973574">
  <ele>384.46</ele>
  <time>2026-09-01T19:55:39Z</time>
  <course>280.49</course>
  <speed>25.34</speed>
  <fix>3d</fix>
</trkpt>
<trkpt lat="-27.2767232" lon="151.2972618">
  <ele>384.09</ele>
  <time>2026-09-01T19:55:39Z</time>
  <course>283.12</course>
  <speed>25.33279495041951</speed>
  <fix>3d</fix>
</trkpt>
<trkpt lat="-27.2767336" lon="151.2973073">
  <ele>384.4</ele>
  <time>2026-09-01T19:55:39Z</time>
  <course>282.68</course>
  <speed>25.33</speed>
  <fix>3d</fix>
</trkpt>
<trkpt lat="-27.2767173" lon="151.2972372">
  <ele>384.07</ele>
  <time>2026-09-01T19:55:39Z</time>
  <course>284.24</course>
  <speed>25.31555253199108</speed>
  <fix>3d</fix>
</trkpt>
<trkpt lat="-27.2767336" lon="151.2973073">
  <ele>384.4</ele>
  <time>2026-09-01T19:55:39Z</time>
  <course>282.68</course>
  <speed>25.33</speed>
  <fix>3d</fix>
</trkpt>
<trkpt lat="-27.2767109" lon="151.2972129">
  <ele>384.05</ele>
  <time>2026-09-01T19:55:39Z</time>
  <course>285.36</course>
  <speed>25.30535516447062</speed>
  <fix>3d</fix>
</trkpt>
<trkpt lat="-27.2767227" lon="151.2972576">
  <ele>384.34</ele>
  <time>2026-09-01T19:55:39Z</time>
  <course>284.93</course>
  <speed>25.31</speed>
  <fix>3d</fix>
</trkpt>
<trkpt lat="-27.2767041" lon="151.2971884">
  <ele>384.03</ele>
  <time>2026-09-01T19:55:39Z</time>
  <course>286.47</course>
  <speed>25.292152933271613</speed>
  <fix>3d</fix>
</trkpt>
<trkpt lat="-27.2767227" lon="151.2972576">
  <ele>384.34</ele>
  <time>2026-09-01T19:55:39Z</time>
  <course>284.93</course>
  <speed>25.31</speed>
  <fix>3d</fix>
</trkpt>
<trkpt lat="-27.2766968" lon="151.2971642">
  <ele>384.02</ele>
  <time>2026-09-01T19:55:39Z</time>
  <course>287.55</course>
  <speed>25.282191360718716</speed>
  <fix>3d</fix>
</trkpt>
<trkpt lat="-27.2767102" lon="151.2972084">
  <ele>384.31</ele>
  <time>2026-09-01T19:55:39Z</time>
  <course>287.2</course>
  <speed>25.3</speed>
  <fix>3d</fix>
</trkpt>
<trkpt lat="-27.2766891" lon="151.2971401">
  <ele>384.0</ele>
  <time>2026-09-01T19:55:39Z</time>
  <course>288.63</course>
  <speed>25.2751300689037</speed>
  <fix>3d</fix>
</trkpt>
<trkpt lat="-27.2767102" lon="151.2972084">
  <ele>384.31</ele>
  <time>2026-09-01T19:55:39Z</time>
  <course>287.2</course>
  <speed>25.3</speed>
  <fix>3d</fix>
</trkpt>
<trkpt lat="-27.2766811" lon="151.2971163">
  <ele>383.98</ele>
  <time>2026-09-01T19:55:39Z</time>
  <course>289.69</course>
  <speed>25.273561284472752</speed>
  <fix>3d</fix>
</trkpt>
<trkpt lat="-27.2766959" lon="151.2971599">
  <ele>384.27</ele>
  <time>2026-09-01T19:55:39Z</time>
  <course>289.46</course>
  <speed>25.28</speed>
  <fix>3d</fix>
</trkpt>
<trkpt lat="-27.2766726" lon="151.2970927">
  <ele>383.96</ele>
  <time>2026-09-01T19:55:39Z</time>
  <course>290.79</course>
  <speed>25.253088919971752</speed>
  <fix>3d</fix>
</trkpt>
<trkpt lat="-27.2766959" lon="151.2971599">
  <ele>384.27</ele>
  <time>2026-09-01T19:55:39Z</time>
  <course>289.46</course>
  <speed>25.28</speed>
  <fix>3d</fix>
</trkpt>
<trkpt lat="-27.2766637" lon="151.2970692">
  <ele>383.94</ele>
  <time>2026-09-01T19:55:39Z</time>
  <course>291.88</course>
  <speed>25.2470057630603</speed>
  <fix>3d</fix>
</trkpt>
<trkpt lat="-27.2766799" lon="151.297112">
  <ele>384.22</ele>
  <time>2026-09-01T19:55:39Z</time>
  <course>291.68</course>
  <speed>25.27</speed>
  <fix>3d</fix>
</trkpt>
<trkpt lat="-27.2766545" lon="151.297046">
  <ele>383.92</ele>
  <time>2026-09-01T19:55:39Z</time>
  <course>293.0</course>
  <speed>25.231506098526896</speed>
  <fix>3d</fix>
</trkpt>
<trkpt lat="-27.2766799" lon="151.297112">
  <ele>384.22</ele>
  <time>2026-09-01T19:55:39Z</time>
  <course>291.68</course>
  <speed>25.27</speed>
  <fix>3d</fix>
</trkpt>
<trkpt lat="-27.2766448" lon="151.2970229">
  <ele>383.9</ele>
  <time>2026-09-01T19:55:39Z</time>
  <course>294.13</course>
  <speed>25.225076808604566</speed>
  <fix>3d</fix>
</trkpt>
<trkpt lat="-27.2766623" lon="151.2970648">
  <ele>384.17</ele>
  <time>2026-09-01T19:55:39Z</time>
  <course>293.88</course>
  <speed>25.26</speed>
  <fix>3d</fix>
</trkpt>
<trkpt lat="-27.2766348" lon="151.2970001">
  <ele>383.88</ele>
  <time>2026-09-01T19:55:39Z</time>
  <course>295.23</course>
  <speed>25.21880647453404</speed>
  <fix>3d</fix>
</trkpt>
<trkpt lat="-27.2766623" lon="151.2970648">
  <ele>384.17</ele>
  <time>2026-09-01T19:55:39Z</time>
  <course>293.88</course>
  <speed>25.26</speed>
  <fix>3d</fix>
</trkpt>
<trkpt lat="-27.2766244" lon="151.2969776">
  <ele>383.85</ele>
  <time>2026-09-01T19:55:39Z</time>
  <course>296.21</course>
  <speed>25.212403693420427</speed>
  <fix>3d</fix>
</trkpt>
<trkpt lat="-27.2766431" lon="151.2970186">
  <ele>384.12</ele>
  <time>2026-09-01T19:55:39Z</time>
  <course>296.08</course>
  <speed>25.25</speed>
  <fix>3d</fix>
</trkpt>
<trkpt lat="-27.2766137" lon="151.2969552">
  <ele>383.82</ele>
  <time>2026-09-01T19:55:39Z</time>
  <course>297.21</course>
  <speed>25.204892382234046</speed>
  <fix>3d</fix>
</trkpt>
<trkpt lat="-27.2766431" lon="151.2970186">
  <ele>384.12</ele>
  <time>2026-09-01T19:55:39Z</time>
  <course>296.08</course>
  <speed>25.25</speed>
  <fix>3d</fix>
</trkpt>
<trkpt lat="-27.2766025" lon="151.296933">
  <ele>383.8</ele>
  <time>2026-09-01T19:55:39Z</time>
  <course>298.3</course>
  <speed>25.200337299329945</speed>
  <fix>3d</fix>
</trkpt>
<trkpt lat="-27.2766224" lon="151.2969732">
  <ele>384.06</ele>
  <time>2026-09-01T19:55:39Z</time>
  <course>298.23</course>
  <speed>25.24</speed>
  <fix>3d</fix>
</trkpt>
<trkpt lat="-27.276591" lon="151.296911">
  <ele>383.77</ele>
  <time>2026-09-01T19:55:39Z</time>
  <course>299.29</course>
  <speed>25.19485860250063</speed>
  <fix>3d</fix>
</trkpt>
<trkpt lat="-27.2766224" lon="151.2969732">
  <ele>384.06</ele>
  <time>2026-09-01T19:55:39Z</time>
  <course>298.23</course>
  <speed>25.24</speed>
  <fix>3d</fix>
</trkpt>
<trkpt lat="-27.2765792" lon="151.2968893">
  <ele>383.74</ele>
  <time>2026-09-01T19:55:39Z</time>
  <course>300.31</course>
  <speed>25.195104683251465</speed>
  <fix>3d</fix>
</trkpt>
<trkpt lat="-27.2766002" lon="151.2969287">
  <ele>384.0</ele>
  <time>2026-09-01T19:55:39Z</time>
  <course>300.3</course>
  <speed>25.23</speed>
  <fix>3d</fix>
</trkpt>
<trkpt lat="-27.2765669" lon="151.2968676">
  <ele>383.7</ele>
  <time>2026-09-01T19:55:39Z</time>
  <course>301.28</course>
  <speed>25.19401913153199</speed>
  <fix>3d</fix>
</trkpt>
<trkpt lat="-27.2766002" lon="151.2969287">
  <ele>384.0</ele>
  <time>2026-09-01T19:55:39Z</time>
  <course>300.3</course>
  <speed>25.23</speed>
  <fix>3d</fix>
</trkpt>
<trkpt lat="-27.2765544" lon="151.2968463">
  <ele>383.67</ele>
  <time>2026-09-01T19:55:39Z</time>
  <course>302.26</course>
  <speed>25.18072675678762</speed>
  <fix>3d</fix>
</trkpt>
<trkpt lat="-27.2765767" lon="151.2968851">
  <ele>383.93</ele>
  <time>2026-09-01T19:55:39Z</time>
  <course>302.29</course>
  <speed>25.23</speed>
  <fix>3d</fix>
</trkpt>
<trkpt lat="-27.2765416" lon="151.2968253">
  <ele>383.63</ele>
  <time>2026-09-01T19:55:39Z</time>
  <course>303.19</course>
  <speed>25.176814731017902</speed>
  <fix>3d</fix>
</trkpt>
<trkpt lat="-27.2765767" lon="151.2968851">
  <ele>383.93</ele>
  <time>2026-09-01T19:55:39Z</time>
  <course>302.29</course>
  <speed>25.23</speed>
  <fix>3d</fix>
</trkpt>
<trkpt lat="-27.2765285" lon="151.2968045">
  <ele>383.6</ele>
  <time>2026-09-01T19:55:39Z</time>
  <course>304.13</course>
  <speed>25.181620281467193</speed>
  <fix>3d</fix>
</trkpt>
<trkpt lat="-27.2765518" lon="151.2968425">
  <ele>383.86</ele>
  <time>2026-09-01T19:55:39Z</time>
  <course>304.21</course>
  <speed>25.22</speed>
  <fix>3d</fix>
</trkpt>
<trkpt lat="-27.2765151" lon="151.2967839">
  <ele>383.56</ele>
  <time>2026-09-01T19:55:39Z</time>
  <course>305.01</course>
  <speed>25.178423302502484</speed>
  <fix>3d</fix>
</trkpt>
<trkpt lat="-27.2765518" lon="151.2968425">
  <ele>383.86</ele>
  <time>2026-09-01T19:55:39Z</time>
  <course>304.21</course>
  <speed>25.22</speed>
  <fix>3d</fix>
</trkpt>
<trkpt lat="-27.2765015" lon="151.2967636">
  <ele>383.51</ele>
  <time>2026-09-01T19:55:39Z</time>
  <course>305.94</course>
  <speed>25.175069016787223</speed>
  <fix>3d</fix>
</trkpt>
<trkpt lat="-27.2765257" lon="151.2968009">
  <ele>383.78</ele>
  <time>2026-09-01T19:55:39Z</time>
  <course>306.04</course>
  <speed>25.22</speed>
  <fix>3d</fix>
</trkpt>
<trkpt lat="-27.2764875" lon="151.2967435">
  <ele>383.47</ele>
  <time>2026-09-01T19:55:39Z</time>
  <course>306.82</course>
  <speed>25.17119981248411</speed>
  <fix>3d</fix>
</trkpt>
<trkpt lat="-27.2765257" lon="151.2968009">
  <ele>383.78</ele>
  <time>2026-09-01T19:55:39Z</time>
  <course>306.04</course>
  <speed>25.22</speed>
  <fix>3d</fix>
</trkpt>
<trkpt lat="-27.2764733" lon="151.2967236">
  <ele>383.43</ele>
  <time>2026-09-01T19:55:39Z</time>
  <course>307.61</course>
  <speed>25.174234844380077</speed>
  <fix>3d</fix>
</trkpt>
<trkpt lat="-27.2764985" lon="151.2967601">
  <ele>383.69</ele>
  <time>2026-09-01T19:55:39Z</time>
  <course>307.79</course>
  <speed>25.22</speed>
  <fix>3d</fix>
</trkpt>
<trkpt lat="-27.2764589" lon="151.296704">
  <ele>383.39</ele>
  <time>2026-09-01T19:55:39Z</time>
  <course>308.42</course>
  <speed>25.17717220022932</speed>
  <fix>3d</fix>
</trkpt>
<trkpt lat="-27.2764985" lon="151.2967601">
  <ele>383.69</ele>
  <time>2026-09-01T19:55:39Z</time>
  <course>307.79</course>
  <speed>25.22</speed>
  <fix>3d</fix>
</trkpt>
<trkpt lat="-27.2764442" lon="151.2966845">
  <ele>383.35</ele>
  <time>2026-09-01T19:55:39Z</time>
  <course>309.18</course>
  <speed>25.178042020776758</speed>
  <fix>3d</fix>
</trkpt>
<trkpt lat="-27.2764703" lon="151.2967203">
  <ele>383.61</ele>
  <time>2026-09-01T19:55:39Z</time>
  <course>309.43</course>
  <speed>25.22</speed>
  <fix>3d</fix>
</trkpt>
<trkpt lat="-27.2764293" lon="151.2966653">
  <ele>383.3</ele>
  <time>2026-09-01T19:55:39Z</time>
  <course>309.92</course>
  <speed>25.17746810145929</speed>
  <fix>3d</fix>
</trkpt>
<trkpt lat="-27.2764703" lon="151.2967203">
  <ele>383.61</ele>
  <time>2026-09-01T19:55:39Z</time>
  <course>309.43</course>
  <speed>25.22</speed>
  <fix>3d</fix>
</trkpt>
<trkpt lat="-27.2764142" lon="151.2966463">
  <ele>383.26</ele>
  <time>2026-09-01T19:55:39Z</time>
  <course>310.68</course>
  <speed>25.18058378989653</speed>
  <fix>3d</fix>
</trkpt>
<trkpt lat="-27.276441" lon="151.2966813">
  <ele>383.52</ele>
  <time>2026-09-01T19:55:39Z</time>
  <course>310.94</course>
  <speed>25.22</speed>
  <fix>3d</fix>
</trkpt>
<trkpt lat="-27.2763989" lon="151.2966275">
  <ele>383.21</ele>
  <time>2026-09-01T19:55:39Z</time>
  <course>311.43</course>
  <speed>25.180615560386922</speed>
  <fix>3d</fix>
</trkpt>
<trkpt lat="-27.276441" lon="151.2966813">
  <ele>383.52</ele>
  <time>2026-09-01T19:55:39Z</time>
  <course>310.94</course>
  <speed>25.22</speed>
  <fix>3d</fix>
</trkpt>
<trkpt lat="-27.2763834" lon="151.2966089">
  <ele>383.17</ele>
  <time>2026-09-01T19:55:39Z</time>
  <course>312.13</course>
  <speed>25.184582585383463</speed>
  <fix>3d</fix>
</trkpt>
<trkpt lat="-27.2764108" lon="151.2966432">
  <ele>383.42</ele>
  <time>2026-09-01T19:55:39Z</time>
  <course>312.35</course>
  <speed>25.22</speed>
  <fix>3d</fix>
</trkpt>
<trkpt lat="-27.2763676" lon="151.2965903">
  <ele>383.13</ele>
  <time>2026-09-01T19:55:39Z</time>
  <course>312.75</course>
  <speed>25.1778672647228</speed>
  <fix>3d</fix>
</trkpt>
<trkpt lat="-27.2764108" lon="151.2966432">
  <ele>383.42</ele>
  <time>2026-09-01T19:55:39Z</time>
  <course>312.35</course>
  <speed>25.22</speed>
  <fix>3d</fix>
</trkpt>
<trkpt lat="-27.2763517" lon="151.2965721">
  <ele>383.09</ele>
  <time>2026-09-01T19:55:39Z</time>
  <course>313.39</course>
  <speed>25.1811536669788</speed>
  <fix>3d</fix>
</trkpt>
<trkpt lat="-27.2763798" lon="151.2966058">
  <ele>383.33</ele>
  <time>2026-09-01T19:55:39Z</time>
  <course>313.67</course>
  <speed>25.22</speed>
  <fix>3d</fix>
</trkpt>
<trkpt lat="-27.2763359" lon="151.2965542">
  <ele>383.05</ele>
  <time>2026-09-01T19:55:39Z</time>
  <course>313.94</course>
  <speed>25.180073470901547</speed>
  <fix>3d</fix>
</trkpt>
<trkpt lat="-27.2763798" lon="151.2966058">
  <ele>383.33</ele>
  <time>2026-09-01T19:55:39Z</time>
  <course>313.67</course>
  <speed>25.22</speed>
  <fix>3d</fix>
</trkpt>
<trkpt lat="-27.2763196" lon="151.2965363">
  <ele>383.0</ele>
  <time>2026-09-01T19:55:39Z</time>
  <course>314.49</course>
  <speed>25.188290930509755</speed>
  <fix>3d</fix>
</trkpt>
<trkpt lat="-27.2763482" lon="151.2965694">
  <ele>383.25</ele>
  <time>2026-09-01T19:55:39Z</time>
  <course>314.87</course>
  <speed>25.22</speed>
  <fix>3d</fix>
</trkpt>
<trkpt lat="-27.2763033" lon="151.2965186">
  <ele>382.97</ele>
  <time>2026-09-01T19:55:39Z</time>
  <course>315.07</course>
  <speed>25.191466809219346</speed>
  <fix>3d</fix>
</trkpt>
<trkpt lat="-27.2763482" lon="151.2965694">
  <ele>383.25</ele>
  <time>2026-09-01T19:55:39Z</time>
  <course>314.87</course>
  <speed>25.22</speed>
  <fix>3d</fix>
</trkpt>
<trkpt lat="-27.2762868" lon="151.296501">
  <ele>382.93</ele>
  <time>2026-09-01T19:55:39Z</time>
  <course>315.64</course>
  <speed>25.1962894093555</speed>
  <fix>3d</fix>
</trkpt>
<trkpt lat="-27.2763159" lon="151.2965336">
  <ele>383.16</ele>
  <time>2026-09-01T19:55:39Z</time>
  <course>315.95</course>
  <speed>25.22</speed>
  <fix>3d</fix>
</trkpt>
<trkpt lat="-27.2762701" lon="151.2964834">
  <ele>382.89</ele>
  <time>2026-09-01T19:55:39Z</time>
  <course>316.12</course>
  <speed>25.202400679300375</speed>
  <fix>3d</fix>
</trkpt>
<trkpt lat="-27.2763159" lon="151.2965336">
  <ele>383.16</ele>
  <time>2026-09-01T19:55:39Z</time>
  <course>315.95</course>
  <speed>25.22</speed>
  <fix>3d</fix>
</trkpt>
<trkpt lat="-27.2762533" lon="151.2964661">
  <ele>382.85</ele>
  <time>2026-09-01T19:55:39Z</time>
  <course>316.55</course>
  <speed>25.20887542116863</speed>
  <fix>3d</fix>
</trkpt>
<trkpt lat="-27.2762831" lon="151.2964984">
  <ele>383.08</ele>
  <time>2026-09-01T19:55:39Z</time>
  <course>316.91</course>
  <speed>25.23</speed>
  <fix>3d</fix>
</trkpt>
<trkpt lat="-27.2762365" lon="151.296449">
  <ele>382.81</ele>
  <time>2026-09-01T19:55:39Z</time>
  <course>316.98</course>
  <speed>25.216490636089713</speed>
  <fix>3d</fix>
</trkpt>
<trkpt lat="-27.2762831" lon="151.2964984">
  <ele>383.08</ele>
  <time>2026-09-01T19:55:39Z</time>
  <course>316.91</course>
  <speed>25.23</speed>
  <fix>3d</fix>
</trkpt>
<trkpt lat="-27.2762196" lon="151.296432">
  <ele>382.78</ele>
  <time>2026-09-01T19:55:39Z</time>
  <course>317.39</course>
  <speed>25.21779728683693</speed>
  <fix>3d</fix>
</trkpt>
<trkpt lat="-27.2762498" lon="151.2964639">
  <ele>383.0</ele>
  <time>2026-09-01T19:55:39Z</time>
  <course>317.76</course>
  <speed>25.23</speed>
  <fix>3d</fix>
</trkpt>
<trkpt lat="-27.2762026" lon="151.2964151">
  <ele>382.74</ele>
  <time>2026-09-01T19:55:39Z</time>
  <course>317.78</course>
  <speed>25.21844166478175</speed>
  <fix>3d</fix>
</trkpt>
<trkpt lat="-27.2762498" lon="151.2964639">
  <ele>383.0</ele>
  <time>2026-09-01T19:55:39Z</time>
  <course>317.76</course>
  <speed>25.23</speed>
  <fix>3d</fix>
</trkpt>
<trkpt lat="-27.2761856" lon="151.2963984">
  <ele>382.71</ele>
  <time>2026-09-01T19:55:39Z</time>
  <course>318.17</course>
  <speed>25.21980372643689</speed>
  <fix>3d</fix>
</trkpt>
<trkpt lat="-27.276216" lon="151.2964299">
  <ele>382.93</ele>
  <time>2026-09-01T19:55:39Z</time>
  <course>318.47</course>
  <speed>25.24</speed>
  <fix>3d</fix>
</trkpt>
<trkpt lat="-27.2761685" lon="151.2963818">
  <ele>382.67</ele>
  <time>2026-09-01T19:55:39Z</time>
  <course>318.48</course>
  <speed>25.22744735402296</speed>
  <fix>3d</fix>
</trkpt>
<trkpt lat="-27.276216" lon="151.2964299">
  <ele>382.93</ele>
  <time>2026-09-01T19:55:39Z</time>
  <course>318.47</course>
  <speed>25.24</speed>
  <fix>3d</fix>
</trkpt>
<trkpt lat="-27.2761514" lon="151.2963653">
  <ele>382.64</ele>
  <time>2026-09-01T19:55:39Z</time>
  <course>318.78</course>
  <speed>25.221492818625943</speed>
  <fix>3d</fix>
</trkpt>
<trkpt lat="-27.2761819" lon="151.2963963">
  <ele>382.86</ele>
  <time>2026-09-01T19:55:39Z</time>
  <course>319.08</course>
  <speed>25.25</speed>
  <fix>3d</fix>
</trkpt>
<trkpt lat="-27.2761342" lon="151.2963488">
  <ele>382.61</ele>
  <time>2026-09-01T19:55:39Z</time>
  <course>319.01</course>
  <speed>25.214941998743527</speed>
  <fix>3d</fix>
</trkpt>
<trkpt lat="-27.2761819" lon="151.2963963">
  <ele>382.86</ele>
  <time>2026-09-01T19:55:39Z</time>
  <course>319.08</course>
  <speed>25.25</speed>
  <fix>3d</fix>
</trkpt>
<trkpt lat="-27.2761169" lon="151.2963324">
  <ele>382.59</ele>
  <time>2026-09-01T19:55:39Z</time>
  <course>319.27</course>
  <speed>25.22172278017503</speed>
  <fix>3d</fix>
</trkpt>
<trkpt lat="-27.2761475" lon="151.296363">
  <ele>382.8</ele>
  <time>2026-09-01T19:55:39Z</time>
  <course>319.59</course>
  <speed>25.25</speed>
  <fix>3d</fix>
</trkpt>
<trkpt lat="-27.2760996" lon="151.2963161">
  <ele>382.56</ele>
  <time>2026-09-01T19:55:39Z</time>
  <course>319.48</course>
  <speed>25.22114192498032</speed>
  <fix>3d</fix>
</trkpt>
<trkpt lat="-27.2761475" lon="151.296363">
  <ele>382.8</ele>
  <time>2026-09-01T19:55:39Z</time>
  <course>319.59</course>
  <speed>25.25</speed>
  <fix>3d</fix>
</trkpt>
<trkpt lat="-27.2760822" lon="151.2962998">
  <ele>382.54</ele>
  <time>2026-09-01T19:55:39Z</time>
  <course>319.7</course>
  <speed>25.227227354586553</speed>
  <fix>3d</fix>
</trkpt>
<trkpt lat="-27.2761128" lon="151.29633">
  <ele>382.74</ele>
  <time>2026-09-01T19:55:39Z</time>
  <course>320.0</course>
  <speed>25.26</speed>
  <fix>3d</fix>
</trkpt>
<trkpt lat="-27.2760648" lon="151.2962836">
  <ele>382.53</ele>
  <time>2026-09-01T19:55:39Z</time>
  <course>319.91</course>
  <speed>25.23223731657579</speed>
  <fix>3d</fix>
</trkpt>
<trkpt lat="-27.2761128" lon="151.29633">
  <ele>382.74</ele>
  <time>2026-09-01T19:55:39Z</time>
  <course>320.0</course>
  <speed>25.26</speed>
  <fix>3d</fix>
</trkpt>
<trkpt lat="-27.2760472" lon="151.2962673">
  <ele>382.51</ele>
  <time>2026-09-01T19:55:39Z</time>
  <course>320.12</course>
  <speed>25.237373080413896</speed>
  <fix>3d</fix>
</trkpt>
<trkpt lat="-27.2760779" lon="151.2962973">
  <ele>382.7</ele>
  <time>2026-09-01T19:55:39Z</time>
  <course>320.31</course>
  <speed>25.27</speed>
  <fix>3d</fix>
</trkpt>
<trkpt lat="-27.2760296" lon="151.2962511">
  <ele>382.49</ele>
  <time>2026-09-01T19:55:39Z</time>
  <course>320.19</course>
  <speed>25.247687022774976</speed>
  <fix>3d</fix>
</trkpt>
<trkpt lat="-27.2760779" lon="151.2962973">
  <ele>382.7</ele>
  <time>2026-09-01T19:55:39Z</time>
  <course>320.31</course>
  <speed>25.27</speed>
  <fix>3d</fix>
</trkpt>
<trkpt lat="-27.276012" lon="151.2962348">
  <ele>382.47</ele>
  <time>2026-09-01T19:55:39Z</time>
  <course>320.25</course>
  <speed>25.25804822229936</speed>
  <fix>3d</fix>
</trkpt>
<trkpt lat="-27.2760428" lon="151.2962648">
  <ele>382.66</ele>
  <time>2026-09-01T19:55:39Z</time>
  <course>320.54</course>
  <speed>25.28</speed>
  <fix>3d</fix>
</trkpt>
<trkpt lat="-27.2759943" lon="151.2962185">
  <ele>382.46</ele>
  <time>2026-09-01T19:55:39Z</time>
  <course>320.29</course>
  <speed>25.267103118481945</speed>
  <fix>3d</fix>
</trkpt>
<trkpt lat="-27.2760428" lon="151.2962648">
  <ele>382.66</ele>
  <time>2026-09-01T19:55:39Z</time>
  <course>320.54</course>
  <speed>25.28</speed>
  <fix>3d</fix>
</trkpt>
<trkpt lat="-27.2759766" lon="151.2962023">
  <ele>382.45</ele>
  <time>2026-09-01T19:55:39Z</time>
  <course>320.32</course>
  <speed>25.282533496467476</speed>
  <fix>3d</fix>
</trkpt>
<trkpt lat="-27.2760077" lon="151.2962324">
  <ele>382.64</ele>
  <time>2026-09-01T19:55:39Z</time>
  <course>320.68</course>
  <speed>25.28</speed>
  <fix>3d</fix>
</trkpt>
<trkpt lat="-27.2759589" lon="151.296186">
  <ele>382.43</ele>
  <time>2026-09-01T19:55:39Z</time>
  <course>320.35</course>
  <speed>25.296610444879764</speed>
  <fix>3d</fix>
</trkpt>
<trkpt lat="-27.2760077" lon="151.2962324">
  <ele>382.64</ele>
  <time>2026-09-01T19:55:39Z</time>
  <course>320.68</course>
  <speed>25.28</speed>
  <fix>3d</fix>
</trkpt>
<trkpt lat="-27.2759411" lon="151.2961697">
  <ele>382.42</ele>
  <time>2026-09-01T19:55:39Z</time>
  <course>320.39</course>
  <speed>25.310687465969785</speed>
  <fix>3d</fix>
</trkpt>
<trkpt lat="-27.2759726" lon="151.2962">
  <ele>382.61</ele>
  <time>2026-09-01T19:55:39Z</time>
  <course>320.73</course>
  <speed>25.29</speed>
  <fix>3d</fix>
</trkpt>
<trkpt lat="-27.2759234" lon="151.2961534">
  <ele>382.41</ele>
  <time>2026-09-01T19:55:39Z</time>
  <course>320.43</course>
  <speed>25.31704959113522</speed>
  <fix>3d</fix>
</trkpt>
<trkpt lat="-27.2759726" lon="151.2962">
  <ele>382.61</ele>
  <time>2026-09-01T19:55:39Z</time>
  <course>320.73</course>
  <speed>25.29</speed>
  <fix>3d</fix>
</trkpt>
<trkpt lat="-27.2759056" lon="151.296137">
  <ele>382.4</ele>
  <time>2026-09-01T19:55:39Z</time>
  <course>320.43</course>
  <speed>25.329780891274996</speed>
  <fix>3d</fix>
</trkpt>
<trkpt lat="-27.2759374" lon="151.2961676">
  <ele>382.59</ele>
  <time>2026-09-01T19:55:39Z</time>
  <course>320.71</course>
  <speed>25.3</speed>
  <fix>3d</fix>
</trkpt>
<trkpt lat="-27.2758879" lon="151.2961207">
  <ele>382.4</ele>
  <time>2026-09-01T19:55:39Z</time>
  <course>320.4</course>
  <speed>25.334815965386447</speed>
  <fix>3d</fix>
</trkpt>
<trkpt lat="-27.2759374" lon="151.2961676">
  <ele>382.59</ele>
  <time>2026-09-01T19:55:39Z</time>
  <course>320.71</course>
  <speed>25.3</speed>
  <fix>3d</fix>
</trkpt>
<trkpt lat="-27.2758702" lon="151.2961043">
  <ele>382.39</ele>
  <time>2026-09-01T19:55:39Z</time>
  <course>320.36</course>
  <speed>25.35395038253408</speed>
  <fix>3d</fix>
</trkpt>
<trkpt lat="-27.2759023" lon="151.2961352">
  <ele>382.57</ele>
  <time>2026-09-01T19:55:39Z</time>
  <course>320.63</course>
  <speed>25.3</speed>
  <fix>3d</fix>
</trkpt>
<trkpt lat="-27.2758525" lon="151.296088">
  <ele>382.39</ele>
  <time>2026-09-01T19:55:39Z</time>
  <course>320.26</course>
  <speed>25.36541346006408</speed>
  <fix>3d</fix>
</trkpt>
<trkpt lat="-27.2759023" lon="151.2961352">
  <ele>382.57</ele>
  <time>2026-09-01T19:55:39Z</time>
  <course>320.63</course>
  <speed>25.3</speed>
  <fix>3d</fix>
</trkpt>
<trkpt lat="-27.2758349" lon="151.2960716">
  <ele>382.39</ele>
  <time>2026-09-01T19:55:39Z</time>
  <course>320.26</course>
  <speed>25.369227422213708</speed>
  <fix>3d</fix>
</trkpt>
<trkpt lat="-27.2758671" lon="151.2961027">
  <ele>382.57</ele>
  <time>2026-09-01T19:55:39Z</time>
  <course>320.5</course>
  <speed>25.31</speed>
  <fix>3d</fix>
</trkpt>
<trkpt lat="-27.2758174" lon="151.2960553">
  <ele>382.39</ele>
  <time>2026-09-01T19:55:39Z</time>
  <course>320.22</course>
  <speed>25.37309204649682</speed>
  <fix>3d</fix>
</trkpt>
<trkpt lat="-27.2758671" lon="151.2961027">
  <ele>382.57</ele>
  <time>2026-09-01T19:55:39Z</time>
  <course>320.5</course>
  <speed>25.31</speed>
  <fix>3d</fix>
</trkpt>
<trkpt lat="-27.2757998" lon="151.2960389">
  <ele>382.39</ele>
  <time>2026-09-01T19:55:39Z</time>
  <course>320.15</course>
  <speed>25.384672540728193</speed>
  <fix>3d</fix>
</trkpt>
<trkpt lat="-27.2758321" lon="151.2960702">
  <ele>382.57</ele>
  <time>2026-09-01T19:55:39Z</time>
  <course>320.34</course>
  <speed>25.32</speed>
  <fix>3d</fix>
</trkpt>
<trkpt lat="-27.2757823" lon="151.2960224">
  <ele>382.4</ele>
  <time>2026-09-01T19:55:39Z</time>
  <course>320.08</course>
  <speed>25.387408296240086</speed>
  <fix>3d</fix>
</trkpt>
<trkpt lat="-27.2758321" lon="151.2960702">
  <ele>382.57</ele>
  <time>2026-09-01T19:55:39Z</time>
  <course>320.34</course>
  <speed>25.32</speed>
  <fix>3d</fix>
</trkpt>
<trkpt lat="-27.2757647" lon="151.2960059">
  <ele>382.41</ele>
  <time>2026-09-01T19:55:39Z</time>
  <course>319.97</course>
  <speed>25.391435563984956</speed>
  <fix>3d</fix>
</trkpt>
<trkpt lat="-27.2757971" lon="151.2960375">
  <ele>382.58</ele>
  <time>2026-09-01T19:55:39Z</time>
  <course>320.15</course>
  <speed>25.33</speed>
  <fix>3d</fix>
</trkpt>
<trkpt lat="-27.2757472" lon="151.2959894">
  <ele>382.41</ele>
  <time>2026-09-01T19:55:39Z</time>
  <course>319.86</course>
  <speed>25.38670912111296</speed>
  <fix>3d</fix>
</trkpt>
<trkpt lat="-27.2757971" lon="151.2960375">
  <ele>382.58</ele>
  <time>2026-09-01T19:55:39Z</time>
  <course>320.15</course>
  <speed>25.33</speed>
  <fix>3d</fix>
</trkpt>
<trkpt lat="-27.2757298" lon="151.2959729">
  <ele>382.43</ele>
  <time>2026-09-01T19:55:39Z</time>
  <course>319.73</course>
  <speed>25.389724299409004</speed>
  <fix>3d</fix>
</trkpt>
<trkpt lat="-27.2757622" lon="151.2960046">
  <ele>382.59</ele>
  <time>2026-09-01T19:55:39Z</time>
  <course>319.94</course>
  <speed>25.33</speed>
  <fix>3d</fix>
</trkpt>
<trkpt lat="-27.2757124" lon="151.2959563">
  <ele>382.44</ele>
  <time>2026-09-01T19:55:39Z</time>
  <course>319.61</course>
  <speed>25.391730937452845</speed>
  <fix>3d</fix>
</trkpt>
<trkpt lat="-27.2757622" lon="151.2960046">
  <ele>382.59</ele>
  <time>2026-09-01T19:55:39Z</time>
  <course>319.94</course>
  <speed>25.33</speed>
  <fix>3d</fix>
</trkpt>
<trkpt lat="-27.2756951" lon="151.2959397">
  <ele>382.45</ele>
  <time>2026-09-01T19:55:39Z</time>
  <course>319.48</course>
  <speed>25.387382692983536</speed>
  <fix>3d</fix>
</trkpt>
<trkpt lat="-27.2757275" lon="151.2959715">
  <ele>382.61</ele>
  <time>2026-09-01T19:55:39Z</time>
  <course>319.68</course>
  <speed>25.33</speed>
  <fix>3d</fix>
</trkpt>
<trkpt lat="-27.2756779" lon="151.2959231">
  <ele>382.46</ele>
  <time>2026-09-01T19:55:39Z</time>
  <course>319.33</course>
  <speed>25.389692790579407</speed>
  <fix>3d</fix>
</trkpt>
<trkpt lat="-27.2757275" lon="151.2959715">
  <ele>382.61</ele>
  <time>2026-09-01T19:55:39Z</time>
  <course>319.68</course>
  <speed>25.33</speed>
  <fix>3d</fix>
</trkpt>
<trkpt lat="-27.2756607" lon="151.2959064">
  <ele>382.47</ele>
  <time>2026-09-01T19:55:39Z</time>
  <course>319.24</course>
  <speed>25.385612066680604</speed>
  <fix>3d</fix>
</trkpt>
<trkpt lat="-27.2756928" lon="151.2959383">
  <ele>382.63</ele>
  <time>2026-09-01T19:55:39Z</time>
  <course>319.39</course>
  <speed>25.33</speed>
  <fix>3d</fix>
</trkpt>
<trkpt lat="-27.2756435" lon="151.2958897">
  <ele>382.48</ele>
  <time>2026-09-01T19:55:39Z</time>
  <course>319.07</course>
  <speed>25.374116733395862</speed>
  <fix>3d</fix>
</trkpt>
<trkpt lat="-27.2756928" lon="151.2959383">
  <ele>382.63</ele>
  <time>2026-09-01T19:55:39Z</time>
  <course>319.39</course>
  <speed>25.33</speed>
  <fix>3d</fix>
</trkpt>
<trkpt lat="-27.2756264" lon="151.295873">
  <ele>382.49</ele>
  <time>2026-09-01T19:55:39Z</time>
  <course>318.88</course>
  <speed>25.370301535456765</speed>
  <fix>3d</fix>
</trkpt>
<trkpt lat="-27.2756582" lon="151.2959048">
  <ele>382.65</ele>
  <time>2026-09-01T19:55:39Z</time>
  <course>319.1</course>
  <speed>25.33</speed>
  <fix>3d</fix>
</trkpt>
<trkpt lat="-27.2756093" lon="151.2958562">
  <ele>382.51</ele>
  <time>2026-09-01T19:55:39Z</time>
  <course>318.74</course>
  <speed>25.373216193458802</speed>
  <fix>3d</fix>
</trkpt>
<trkpt lat="-27.2756582" lon="151.2959048">
  <ele>382.65</ele>
  <time>2026-09-01T19:55:39Z</time>
  <course>319.1</course>
  <speed>25.33</speed>
  <fix>3d</fix>
</trkpt>
<trkpt lat="-27.2755922" lon="151.2958393">
  <ele>382.52</ele>
  <time>2026-09-01T19:55:39Z</time>
  <course>318.64</course>
  <speed>25.369668898115325</speed>
  <fix>3d</fix>
</trkpt>
<trkpt lat="-27.275624" lon="151.2958712">
  <ele>382.67</ele>
  <time>2026-09-01T19:55:39Z</time>
  <course>318.81</course>
  <speed>25.33</speed>
  <fix>3d</fix>
</trkpt>
<trkpt lat="-27.2755752" lon="151.2958224">
  <ele>382.54</ele>
  <time>2026-09-01T19:55:39Z</time>
  <course>318.44</course>
  <speed>25.358769686244635</speed>
  <fix>3d</fix>
</trkpt>
<trkpt lat="-27.275624" lon="151.2958712">
  <ele>382.67</ele>
  <time>2026-09-01T19:55:39Z</time>
  <course>318.81</course>
  <speed>25.33</speed>
  <fix>3d</fix>
</trkpt>
<trkpt lat="-27.2755582" lon="151.2958055">
  <ele>382.55</ele>
  <time>2026-09-01T19:55:39Z</time>
  <course>318.26</course>
  <speed>25.35548855770679</speed>
  <fix>3d</fix>
</trkpt>
<trkpt lat="-27.2755898" lon="151.2958374">
  <ele>382.7</ele>
  <time>2026-09-01T19:55:39Z</time>
  <course>318.52</course>
  <speed>25.32</speed>
  <fix>3d</fix>
</trkpt>
<trkpt lat="-27.2755415" lon="151.2957886">
  <ele>382.55</ele>
  <time>2026-09-01T19:55:39Z</time>
  <course>318.11</course>
  <speed>25.35156405431428</speed>
  <fix>3d</fix>
</trkpt>
<trkpt lat="-27.2755898" lon="151.2958374">
  <ele>382.7</ele>
  <time>2026-09-01T19:55:39Z</time>
  <course>318.52</course>
  <speed>25.32</speed>
  <fix>3d</fix>
</trkpt>
<trkpt lat="-27.2755246" lon="151.2957715">
  <ele>382.56</ele>
  <time>2026-09-01T19:55:39Z</time>
  <course>317.94</course>
  <speed>25.355261781334463</speed>
  <fix>3d</fix>
</trkpt>
<trkpt lat="-27.2755558" lon="151.2958034">
  <ele>382.72</ele>
  <time>2026-09-01T19:55:39Z</time>
  <course>318.22</course>
  <speed>25.32</speed>
  <fix>3d</fix>
</trkpt>
<trkpt lat="-27.2755077" lon="151.2957544">
  <ele>382.57</ele>
  <time>2026-09-01T19:55:40Z</time>
  <course>317.79</course>
  <speed>25.35912064721488</speed>
  <fix>3d</fix>
</trkpt>
<trkpt lat="-27.2755558" lon="151.2958034">
  <ele>382.72</ele>
  <time>2026-09-01T19:55:40Z</time>
  <course>318.22</course>
  <speed>25.32</speed>
  <fix>3d</fix>
</trkpt>
<trkpt lat="-27.2754909" lon="151.2957373">
  <ele>382.58</ele>
  <time>2026-09-01T19:55:40Z</time>
  <course>317.63</course>
  <speed>25.355748855042716</speed>
  <fix>3d</fix>
</trkpt>
<trkpt lat="-27.2755219" lon="151.2957692">
  <ele>382.73</ele>
  <time>2026-09-01T19:55:40Z</time>
  <course>317.92</course>
  <speed>25.33</speed>
  <fix>3d</fix>
</trkpt>
<trkpt lat="-27.275474" lon="151.2957199">
  <ele>382.59</ele>
  <time>2026-09-01T19:55:40Z</time>
  <course>317.46</course>
  <speed>25.345818195513043</speed>
  <fix>3d</fix>
</trkpt>
<trkpt lat="-27.2755219" lon="151.2957692">
  <ele>382.73</ele>
  <time>2026-09-01T19:55:40Z</time>
  <course>317.92</course>
  <speed>25.33</speed>
  <fix>3d</fix>
</trkpt>
<trkpt lat="-27.2754572" lon="151.2957026">
  <ele>382.6</ele>
  <time>2026-09-01T19:55:40Z</time>
  <course>317.27</course>
  <speed>25.35017554179852</speed>
  <fix>3d</fix>
</trkpt>
<trkpt lat="-27.2754883" lon="151.2957348">
  <ele>382.75</ele>
  <time>2026-09-01T19:55:40Z</time>
  <course>317.61</course>
  <speed>25.33</speed>
  <fix>3d</fix>
</trkpt>
<trkpt lat="-27.2754405" lon="151.2956853">
  <ele>382.61</ele>
  <time>2026-09-01T19:55:40Z</time>
  <course>317.1</course>
  <speed>25.34056234577283</speed>
  <fix>3d</fix>
</trkpt>
<trkpt lat="-27.2754883" lon="151.2957348">
  <ele>382.75</ele>
  <time>2026-09-01T19:55:40Z</time>
  <course>317.61</course>
  <speed>25.33</speed>
  <fix>3d</fix>
</trkpt>
<trkpt lat="-27.2754238" lon="151.2956678">
  <ele>382.62</ele>
  <time>2026-09-01T19:55:40Z</time>
  <course>316.97</course>
  <speed>25.345240184302853</speed>
  <fix>3d</fix>
</trkpt>
<trkpt lat="-27.2754547" lon="151.2957001">
  <ele>382.76</ele>
  <time>2026-09-01T19:55:40Z</time>
  <course>317.3</course>
  <speed>25.33</speed>
  <fix>3d</fix>
</trkpt>
<trkpt lat="-27.2754071" lon="151.2956504">
  <ele>382.62</ele>
  <time>2026-09-01T19:55:40Z</time>
  <course>316.87</course>
  <speed>25.34325156723186</speed>
  <fix>3d</fix>
</trkpt>
<trkpt lat="-27.2754547" lon="151.2957001">
  <ele>382.76</ele>
  <time>2026-09-01T19:55:40Z</time>
  <course>317.3</course>
  <speed>25.33</speed>
  <fix>3d</fix>
</trkpt>
<trkpt lat="-27.2753906" lon="151.2956329">
  <ele>382.63</ele>
  <time>2026-09-01T19:55:40Z</time>
  <course>316.7</course>
  <speed>25.348232680011442</speed>
  <fix>3d</fix>
</trkpt>
<trkpt lat="-27.2754213" lon="151.2956653">
  <ele>382.78</ele>
  <time>2026-09-01T19:55:40Z</time>
  <course>317.0</course>
  <speed>25.34</speed>
  <fix>3d</fix>
</trkpt>
<trkpt lat="-27.275374" lon="151.2956154">
  <ele>382.64</ele>
  <time>2026-09-01T19:55:40Z</time>
  <course>316.59</course>
  <speed>25.346512580629316</speed>
  <fix>3d</fix>
</trkpt>
<trkpt lat="-27.2754213" lon="151.2956653">
  <ele>382.78</ele>
  <time>2026-09-01T19:55:40Z</time>
  <course>317.0</course>
  <speed>25.34</speed>
  <fix>3d</fix>
</trkpt>
<trkpt lat="-27.2753575" lon="151.2955978">
  <ele>382.64</ele>
  <time>2026-09-01T19:55:40Z</time>
  <course>316.48</course>
  <speed>25.352179393495934</speed>
  <fix>3d</fix>
</trkpt>
<trkpt lat="-27.2753881" lon="151.2956303">
  <ele>382.79</ele>
  <time>2026-09-01T19:55:40Z</time>
  <course>316.72</course>
  <speed>25.34</speed>
  <fix>3d</fix>
</trkpt>
<trkpt lat="-27.275341" lon="151.2955802">
  <ele>382.65</ele>
  <time>2026-09-01T19:55:40Z</time>
  <course>316.34</course>
  <speed>25.350696242904256</speed>
  <fix>3d</fix>
</trkpt>
<trkpt lat="-27.2753881" lon="151.2956303">
  <ele>382.79</ele>
  <time>2026-09-01T19:55:40Z</time>
  <course>316.72</course>
  <speed>25.34</speed>
  <fix>3d</fix>
</trkpt>
<trkpt lat="-27.2753245" lon="151.2955625">
  <ele>382.65</ele>
  <time>2026-09-01T19:55:40Z</time>
  <course>316.2</course>
  <speed>25.349666664475098</speed>
  <fix>3d</fix>
</trkpt>
<trkpt lat="-27.275355" lon="151.295595">
  <ele>382.8</ele>
  <time>2026-09-01T19:55:40Z</time>
  <course>316.47</course>
  <speed>25.34</speed>
  <fix>3d</fix>
</trkpt>
<trkpt lat="-27.275308" lon="151.2955448">
  <ele>382.66</ele>
  <time>2026-09-01T19:55:40Z</time>
  <course>316.06</course>
  <speed>25.34840428902774</speed>
  <fix>3d</fix>
</trkpt>
<trkpt lat="-27.275355" lon="151.295595">
  <ele>382.8</ele>
  <time>2026-09-01T19:55:40Z</time>
  <course>316.47</course>
  <speed>25.34</speed>
  <fix>3d</fix>
</trkpt>
<trkpt lat="-27.2752916" lon="151.295527">
  <ele>382.66</ele>
  <time>2026-09-01T19:55:40Z</time>
  <course>315.92</course>
  <speed>25.34754031459463</speed>
  <fix>3d</fix>
</trkpt>
<trkpt lat="-27.275322" lon="151.2955596">
  <ele>382.81</ele>
  <time>2026-09-01T19:55:40Z</time>
  <course>316.24</course>
  <speed>25.35</speed>
  <fix>3d</fix>
</trkpt>
<trkpt lat="-27.2752752" lon="151.2955092">
  <ele>382.67</ele>
  <time>2026-09-01T19:55:40Z</time>
  <course>315.85</course>
  <speed>25.35369203883332</speed>
  <fix>3d</fix>
</trkpt>
<trkpt lat="-27.275322" lon="151.2955596">
  <ele>382.81</ele>
  <time>2026-09-01T19:55:40Z</time>
  <course>316.24</course>
  <speed>25.35</speed>
  <fix>3d</fix>
</trkpt>
<trkpt lat="-27.2752588" lon="151.2954913">
  <ele>382.68</ele>
  <time>2026-09-01T19:55:40Z</time>
  <course>315.79</course>
  <speed>25.35994085166604</speed>
  <fix>3d</fix>
</trkpt>
<trkpt lat="-27.2752892" lon="151.2955242">
  <ele>382.82</ele>
  <time>2026-09-01T19:55:40Z</time>
  <course>316.01</course>
  <speed>25.35</speed>
  <fix>3d</fix>
</trkpt>
<trkpt lat="-27.2752425" lon="151.2954735">
  <ele>382.69</ele>
  <time>2026-09-01T19:55:40Z</time>
  <course>315.67</course>
  <speed>25.359514979589022</speed>
  <fix>3d</fix>
</trkpt>
<trkpt lat="-27.2752892" lon="151.2955242">
  <ele>382.82</ele>
  <time>2026-09-01T19:55:40Z</time>
  <course>316.01</course>
  <speed>25.35</speed>
  <fix>3d</fix>
</trkpt>
<trkpt lat="-27.2752261" lon="151.2954555">
  <ele>382.7</ele>
  <time>2026-09-01T19:55:40Z</time>
  <course>315.52</course>
  <speed>25.358935308880774</speed>
  <fix>3d</fix>
</trkpt>
<trkpt lat="-27.2752565" lon="151.2954885">
  <ele>382.84</ele>
  <time>2026-09-01T19:55:40Z</time>
  <course>315.81</course>
  <speed>25.35</speed>
  <fix>3d</fix>
</trkpt>
<trkpt lat="-27.2752098" lon="151.2954376">
  <ele>382.7</ele>
  <time>2026-09-01T19:55:40Z</time>
  <course>315.4</course>
  <speed>25.35842660734297</speed>
  <fix>3d</fix>
</trkpt>
<trkpt lat="-27.2752565" lon="151.2954885">
  <ele>382.84</ele>
  <time>2026-09-01T19:55:40Z</time>
  <course>315.81</course>
  <speed>25.35</speed>
  <fix>3d</fix>
</trkpt>
<trkpt lat="-27.2751937" lon="151.2954198">
  <ele>382.71</ele>
  <time>2026-09-01T19:55:40Z</time>
  <course>315.3</course>
  <speed>25.357988879246715</speed>
  <fix>3d</fix>
</trkpt>
<trkpt lat="-27.2752239" lon="151.2954527">
  <ele>382.85</ele>
  <time>2026-09-01T19:55:40Z</time>
  <course>315.62</course>
  <speed>25.35</speed>
  <fix>3d</fix>
</trkpt>
<trkpt lat="-27.2751775" lon="151.2954018">
  <ele>382.71</ele>
  <time>2026-09-01T19:55:40Z</time>
  <course>315.19</course>
  <speed>25.364749160991128</speed>
  <fix>3d</fix>
</trkpt>
<trkpt lat="-27.2752239" lon="151.2954527">
  <ele>382.85</ele>
  <time>2026-09-01T19:55:40Z</time>
  <course>315.62</course>
  <speed>25.35</speed>
  <fix>3d</fix>
</trkpt>
<trkpt lat="-27.2751613" lon="151.2953838">
  <ele>382.71</ele>
  <time>2026-09-01T19:55:40Z</time>
  <course>315.09</course>
  <speed>25.364441645737053</speed>
  <fix>3d</fix>
</trkpt>
<trkpt lat="-27.2751914" lon="151.2954168">
  <ele>382.86</ele>
  <time>2026-09-01T19:55:40Z</time>
  <course>315.44</course>
  <speed>25.35</speed>
  <fix>3d</fix>
</trkpt>
<trkpt lat="-27.2751451" lon="151.2953657">
  <ele>382.72</ele>
  <time>2026-09-01T19:55:40Z</time>
  <course>315.0</course>
  <speed>25.364276059055975</speed>
  <fix>3d</fix>
</trkpt>
<trkpt lat="-27.2751914" lon="151.2954168">
  <ele>382.86</ele>
  <time>2026-09-01T19:55:40Z</time>
  <course>315.44</course>
  <speed>25.35</speed>
  <fix>3d</fix>
</trkpt>
<trkpt lat="-27.2751288" lon="151.2953475">
  <ele>382.73</ele>
  <time>2026-09-01T19:55:40Z</time>
  <course>314.93</course>
  <speed>25.371184442197414</speed>
  <fix>3d</fix>
</trkpt>
<trkpt lat="-27.275159" lon="151.2953808">
  <ele>382.87</ele>
  <time>2026-09-01T19:55:40Z</time>
  <course>315.27</course>
  <speed>25.35</speed>
  <fix>3d</fix>
</trkpt>
<trkpt lat="-27.2751126" lon="151.2953294">
  <ele>382.74</ele>
  <time>2026-09-01T19:55:40Z</time>
  <course>314.91</course>
  <speed>25.371089846516252</speed>
  <fix>3d</fix>
</trkpt>
<trkpt lat="-27.275159" lon="151.2953808">
  <ele>382.87</ele>
  <time>2026-09-01T19:55:40Z</time>
  <course>315.27</course>
  <speed>25.35</speed>
  <fix>3d</fix>
</trkpt>
<trkpt lat="-27.2750965" lon="151.2953113">
  <ele>382.75</ele>
  <time>2026-09-01T19:55:40Z</time>
  <course>314.85</course>
  <speed>25.371026782532866</speed>
  <fix>3d</fix>
</trkpt>
<trkpt lat="-27.2751266" lon="151.2953447">
  <ele>382.89</ele>
  <time>2026-09-01T19:55:40Z</time>
  <course>315.12</course>
  <speed>25.35</speed>
  <fix>3d</fix>
</trkpt>
<trkpt lat="-27.2750798" lon="151.2952925">
  <ele>382.75</ele>
  <time>2026-09-01T19:55:40Z</time>
  <course>314.75</course>
  <speed>25.378071242708735</speed>
  <fix>3d</fix>
</trkpt>
<trkpt lat="-27.2751266" lon="151.2953447">
  <ele>382.89</ele>
  <time>2026-09-01T19:55:40Z</time>
  <course>315.12</course>
  <speed>25.35</speed>
  <fix>3d</fix>
</trkpt>
<trkpt lat="-27.2750638" lon="151.2952745">
  <ele>382.76</ele>
  <time>2026-09-01T19:55:40Z</time>
  <course>314.63</course>
  <speed>25.370991308973327</speed>
  <fix>3d</fix>
</trkpt>
<trkpt lat="-27.2750944" lon="151.2953086">
  <ele>382.9</ele>
  <time>2026-09-01T19:55:40Z</time>
  <course>315.01</course>
  <speed>25.36</speed>
  <fix>3d</fix>
</trkpt>
<trkpt lat="-27.2750477" lon="151.2952564">
  <ele>382.77</ele>
  <time>2026-09-01T19:55:40Z</time>
  <course>314.58</course>
  <speed>25.378071242708735</speed>
  <fix>3d</fix>
</trkpt>
<trkpt lat="-27.2750944" lon="151.2953086">
  <ele>382.9</ele>
  <time>2026-09-01T19:55:40Z</time>
  <course>315.01</course>
  <speed>25.36</speed>
  <fix>3d</fix>
</trkpt>
<trkpt lat="-27.2750317" lon="151.2952382">
  <ele>382.78</ele>
  <time>2026-09-01T19:55:40Z</time>
  <course>314.56</course>
  <speed>25.378087004342937</speed>
  <fix>3d</fix>
</trkpt>
<trkpt lat="-27.2750622" lon="151.2952723">
  <ele>382.91</ele>
  <time>2026-09-01T19:55:40Z</time>
  <course>314.91</course>
  <speed>25.36</speed>
  <fix>3d</fix>
</trkpt>
<trkpt lat="-27.2750156" lon="151.29522">
  <ele>382.78</ele>
  <time>2026-09-01T19:55:40Z</time>
  <course>314.56</course>
  <speed>25.378110646775895</speed>
  <fix>3d</fix>
</trkpt>
<trkpt lat="-27.2750622" lon="151.2952723">
  <ele>382.91</ele>
  <time>2026-09-01T19:55:40Z</time>
  <course>314.91</course>
  <speed>25.36</speed>
  <fix>3d</fix>
</trkpt>
<trkpt lat="-27.2749994" lon="151.2952016">
  <ele>382.79</ele>
  <time>2026-09-01T19:55:40Z</time>
  <course>314.52</course>
  <speed>25.385231927244625</speed>
  <fix>3d</fix>
</trkpt>
<trkpt lat="-27.27503" lon="151.2952359">
  <ele>382.93</ele>
  <time>2026-09-01T19:55:40Z</time>
  <course>314.82</course>
  <speed>25.36</speed>
  <fix>3d</fix>
</trkpt>
<trkpt lat="-27.2749833" lon="151.2951834">
  <ele>382.8</ele>
  <time>2026-09-01T19:55:40Z</time>
  <course>314.47</course>
  <speed>25.385231927244625</speed>
  <fix>3d</fix>
</trkpt>
<trkpt lat="-27.27503" lon="151.2952359">
  <ele>382.93</ele>
  <time>2026-09-01T19:55:40Z</time>
  <course>314.82</course>
  <speed>25.36</speed>
  <fix>3d</fix>
</trkpt>
<trkpt lat="-27.2749677" lon="151.2951657">
  <ele>382.81</ele>
  <time>2026-09-01T19:55:40Z</time>
  <course>314.42</course>
  <speed>25.39232364318004</speed>
  <fix>3d</fix>
</trkpt>
<trkpt lat="-27.2749978" lon="151.2951995">
  <ele>382.94</ele>
  <time>2026-09-01T19:55:40Z</time>
  <course>314.77</course>
  <speed>25.36</speed>
  <fix>3d</fix>
</trkpt>
<trkpt lat="-27.2749516" lon="151.2951474">
  <ele>382.81</ele>
  <time>2026-09-01T19:55:40Z</time>
  <course>314.39</course>
  <speed>25.39232364318004</speed>
  <fix>3d</fix>
</trkpt>
<trkpt lat="-27.2749978" lon="151.2951995">
  <ele>382.94</ele>
  <time>2026-09-01T19:55:40Z</time>
  <course>314.77</course>
  <speed>25.36</speed>
  <fix>3d</fix>
</trkpt>
<trkpt lat="-27.2749356" lon="151.2951292">
  <ele>382.82</ele>
  <time>2026-09-01T19:55:40Z</time>
  <course>314.34</course>
  <speed>25.399417316151172</speed>
  <fix>3d</fix>
</trkpt>
<trkpt lat="-27.2749657" lon="151.2951631">
  <ele>382.95</ele>
  <time>2026-09-01T19:55:40Z</time>
  <course>314.74</course>
  <speed>25.37</speed>
  <fix>3d</fix>
</trkpt>
<trkpt lat="-27.2749195" lon="151.295111">
  <ele>382.82</ele>
  <time>2026-09-01T19:55:40Z</time>
  <course>314.33</course>
  <speed>25.39237090151292</speed>
  <fix>3d</fix>
</trkpt>
<trkpt lat="-27.2749657" lon="151.2951631">
  <ele>382.95</ele>
  <time>2026-09-01T19:55:40Z</time>
  <course>314.74</course>
  <speed>25.37</speed>
  <fix>3d</fix>
</trkpt>
<trkpt lat="-27.2749035" lon="151.2950928">
  <ele>382.83</ele>
  <time>2026-09-01T19:55:40Z</time>
  <course>314.3</course>
  <speed>25.399468498376105</speed>
  <fix>3d</fix>
</trkpt>
<trkpt lat="-27.2749337" lon="151.2951266">
  <ele>382.96</ele>
  <time>2026-09-01T19:55:40Z</time>
  <course>314.72</course>
  <speed>25.37</speed>
  <fix>3d</fix>
</trkpt>
<trkpt lat="-27.2748874" lon="151.2950745">
  <ele>382.84</ele>
  <time>2026-09-01T19:55:40Z</time>
  <course>314.29</course>
  <speed>25.399468498376105</speed>
  <fix>3d</fix>
</trkpt>
<trkpt lat="-27.2749337" lon="151.2951266">
  <ele>382.96</ele>
  <time>2026-09-01T19:55:40Z</time>
  <course>314.72</course>
  <speed>25.37</speed>
  <fix>3d</fix>
</trkpt>
<trkpt lat="-27.2748714" lon="151.2950563">
  <ele>382.84</ele>
  <time>2026-09-01T19:55:40Z</time>
  <course>314.28</course>
  <speed>25.399527554661326</speed>
  <fix>3d</fix>
</trkpt>
<trkpt lat="-27.2749016" lon="151.2950902">
  <ele>382.97</ele>
  <time>2026-09-01T19:55:40Z</time>
  <course>314.71</course>
  <speed>25.37</speed>
  <fix>3d</fix>
</trkpt>
<trkpt lat="-27.2748555" lon="151.2950382">
  <ele>382.85</ele>
  <time>2026-09-01T19:55:40Z</time>
  <course>314.31</course>
  <speed>25.399527554661326</speed>
  <fix>3d</fix>
</trkpt>
<trkpt lat="-27.2749016" lon="151.2950902">
  <ele>382.97</ele>
  <time>2026-09-01T19:55:40Z</time>
  <course>314.71</course>
  <speed>25.37</speed>
  <fix>3d</fix>
</trkpt>
<trkpt lat="-27.2748395" lon="151.29502">
  <ele>382.85</ele>
  <time>2026-09-01T19:55:40Z</time>
  <course>314.32</course>
  <speed>25.399527554661326</speed>
  <fix>3d</fix>
</trkpt>
<trkpt lat="-27.2748696" lon="151.2950537">
  <ele>382.98</ele>
  <time>2026-09-01T19:55:40Z</time>
  <course>314.69</course>
  <speed>25.38</speed>
  <fix>3d</fix>
</trkpt>
<trkpt lat="-27.2748234" lon="151.2950017">
  <ele>382.86</ele>
  <time>2026-09-01T19:55:40Z</time>
  <course>314.25</course>
  <speed>25.399527554661326</speed>
  <fix>3d</fix>
</trkpt>
<trkpt lat="-27.2748696" lon="151.2950537">
  <ele>382.98</ele>
  <time>2026-09-01T19:55:40Z</time>
  <course>314.69</course>
  <speed>25.38</speed>
  <fix>3d</fix>
</trkpt>
<trkpt lat="-27.2748074" lon="151.2949835">
  <ele>382.86</ele>
  <time>2026-09-01T19:55:40Z</time>
  <course>314.25</course>
  <speed>25.40656804843976</speed>
  <fix>3d</fix>
</trkpt>
<trkpt lat="-27.2748375" lon="151.2950172">
  <ele>383.0</ele>
  <time>2026-09-01T19:55:40Z</time>
  <course>314.69</course>
  <speed>25.38</speed>
  <fix>3d</fix>
</trkpt>
<trkpt lat="-27.2747913" lon="151.2949651">
  <ele>382.87</ele>
  <time>2026-09-01T19:55:40Z</time>
  <course>314.28</course>
  <speed>25.40656804843976</speed>
  <fix>3d</fix>
</trkpt>
<trkpt lat="-27.2748375" lon="151.2950172">
  <ele>383.0</ele>
  <time>2026-09-01T19:55:40Z</time>
  <course>314.69</course>
  <speed>25.38</speed>
  <fix>3d</fix>
</trkpt>
<trkpt lat="-27.2747752" lon="151.2949469">
  <ele>382.88</ele>
  <time>2026-09-01T19:55:40Z</time>
  <course>314.26</course>
  <speed>25.399468498376105</speed>
  <fix>3d</fix>
</trkpt>
<trkpt lat="-27.2748054" lon="151.2949808">
  <ele>383.01</ele>
  <time>2026-09-01T19:55:40Z</time>
  <course>314.71</course>
  <speed>25.38</speed>
  <fix>3d</fix>
</trkpt>
<trkpt lat="-27.2747592" lon="151.2949286">
  <ele>382.89</ele>
  <time>2026-09-01T19:55:40Z</time>
  <course>314.21</course>
  <speed>25.399468498376105</speed>
  <fix>3d</fix>
</trkpt>
<trkpt lat="-27.2748054" lon="151.2949808">
  <ele>383.01</ele>
  <time>2026-09-01T19:55:40Z</time>
  <course>314.71</course>
  <speed>25.38</speed>
  <fix>3d</fix>
</trkpt>
<trkpt lat="-27.2747426" lon="151.2949098">
  <ele>382.89</ele>
  <time>2026-09-01T19:55:40Z</time>
  <course>314.25</course>
  <speed>25.399468498376105</speed>
  <fix>3d</fix>
</trkpt>
<trkpt lat="-27.2747733" lon="151.2949444">
  <ele>383.02</ele>
  <time>2026-09-01T19:55:40Z</time>
  <course>314.72</course>
  <speed>25.38</speed>
  <fix>3d</fix>
</trkpt>
<trkpt lat="-27.2747267" lon="151.2948917">
  <ele>382.9</ele>
  <time>2026-09-01T19:55:40Z</time>
  <course>314.28</course>
  <speed>25.406512944518774</speed>
  <fix>3d</fix>
</trkpt>
<trkpt lat="-27.2747733" lon="151.2949444">
  <ele>383.02</ele>
  <time>2026-09-01T19:55:40Z</time>
  <course>314.72</course>
  <speed>25.38</speed>
  <fix>3d</fix>
</trkpt>
<trkpt lat="-27.2747107" lon="151.2948735">
  <ele>382.9</ele>
  <time>2026-09-01T19:55:40Z</time>
  <course>314.28</course>
  <speed>25.399417316151172</speed>
  <fix>3d</fix>
</trkpt>
<trkpt lat="-27.2747413" lon="151.294908">
  <ele>383.03</ele>
  <time>2026-09-01T19:55:40Z</time>
  <course>314.75</course>
  <speed>25.38</speed>
  <fix>3d</fix>
</trkpt>
<trkpt lat="-27.2746946" lon="151.2948553">
  <ele>382.9</ele>
  <time>2026-09-01T19:55:40Z</time>
  <course>314.29</course>
  <speed>25.406465712491375</speed>
  <fix>3d</fix>
</trkpt>
<trkpt lat="-27.2747413" lon="151.294908">
  <ele>383.03</ele>
  <time>2026-09-01T19:55:40Z</time>
  <course>314.75</course>
  <speed>25.38</speed>
  <fix>3d</fix>
</trkpt>
<trkpt lat="-27.2746785" lon="151.2948371">
  <ele>382.9</ele>
  <time>2026-09-01T19:55:40Z</time>
  <course>314.3</course>
  <speed>25.41351608888467</speed>
  <fix>3d</fix>
</trkpt>
<trkpt lat="-27.2747092" lon="151.2948716">
  <ele>383.04</ele>
  <time>2026-09-01T19:55:40Z</time>
  <course>314.78</course>
  <speed>25.38</speed>
  <fix>3d</fix>
</trkpt>
<trkpt lat="-27.2746623" lon="151.2948188">
  <ele>382.9</ele>
  <time>2026-09-01T19:55:40Z</time>
  <course>314.29</course>
  <speed>25.41351608888467</speed>
  <fix>3d</fix>
</trkpt>
<trkpt lat="-27.2747092" lon="151.2948716">
  <ele>383.04</ele>
  <time>2026-09-01T19:55:40Z</time>
  <course>314.78</course>
  <speed>25.38</speed>
  <fix>3d</fix>
</trkpt>
<trkpt lat="-27.2746463" lon="151.2948006">
  <ele>382.91</ele>
  <time>2026-09-01T19:55:40Z</time>
  <course>314.34</course>
  <speed>25.413480674634084</speed>
  <fix>3d</fix>
</trkpt>
<trkpt lat="-27.2746769" lon="151.2948351">
  <ele>383.05</ele>
  <time>2026-09-01T19:55:40Z</time>
  <course>314.82</course>
  <speed>25.38</speed>
  <fix>3d</fix>
</trkpt>
<trkpt lat="-27.2746302" lon="151.2947824">
  <ele>382.91</ele>
  <time>2026-09-01T19:55:40Z</time>
  <course>314.34</course>
  <speed>25.413480674634084</speed>
  <fix>3d</fix>
</trkpt>
<trkpt lat="-27.2746769" lon="151.2948351">
  <ele>383.05</ele>
  <time>2026-09-01T19:55:40Z</time>
  <course>314.82</course>
  <speed>25.38</speed>
  <fix>3d</fix>
</trkpt>
<trkpt lat="-27.2746141" lon="151.2947642">
  <ele>382.91</ele>
  <time>2026-09-01T19:55:40Z</time>
  <course>314.37</course>
  <speed>25.413453130182837</speed>
  <fix>3d</fix>
</trkpt>
<trkpt lat="-27.2746448" lon="151.2947986">
  <ele>383.05</ele>
  <time>2026-09-01T19:55:40Z</time>
  <course>314.86</course>
  <speed>25.39</speed>
  <fix>3d</fix>
</trkpt>
<trkpt lat="-27.274598" lon="151.294746">
  <ele>382.92</ele>
  <time>2026-09-01T19:55:40Z</time>
  <course>314.44</course>
  <speed>25.420513370111156</speed>
  <fix>3d</fix>
</trkpt>
<trkpt lat="-27.2746448" lon="151.2947986">
  <ele>383.05</ele>
  <time>2026-09-01T19:55:40Z</time>
  <course>314.86</course>
  <speed>25.39</speed>
  <fix>3d</fix>
</trkpt>
<trkpt lat="-27.2745819" lon="151.2947278">
  <ele>382.93</ele>
  <time>2026-09-01T19:55:40Z</time>
  <course>314.46</course>
  <speed>25.42049763478284</speed>
  <fix>3d</fix>
</trkpt>
<trkpt lat="-27.2746126" lon="151.2947623">
  <ele>383.05</ele>
  <time>2026-09-01T19:55:40Z</time>
  <course>314.9</course>
  <speed>25.39</speed>
  <fix>3d</fix>
</trkpt>
<trkpt lat="-27.2745657" lon="151.2947096">
  <ele>382.93</ele>
  <time>2026-09-01T19:55:40Z</time>
  <course>314.45</course>
  <speed>25.427563784208665</speed>
  <fix>3d</fix>
</trkpt>
<trkpt lat="-27.2746126" lon="151.2947623">
  <ele>383.05</ele>
  <time>2026-09-01T19:55:40Z</time>
  <course>314.9</course>
  <speed>25.39</speed>
  <fix>3d</fix>
</trkpt>
<trkpt lat="-27.2745496" lon="151.2946914">
  <ele>382.93</ele>
  <time>2026-09-01T19:55:40Z</time>
  <course>314.46</course>
  <speed>25.420489767115033</speed>
  <fix>3d</fix>
</trkpt>
<trkpt lat="-27.2745804" lon="151.2947259">
  <ele>383.05</ele>
  <time>2026-09-01T19:55:40Z</time>
  <course>314.95</course>
  <speed>25.4</speed>
  <fix>3d</fix>
</trkpt>
<trkpt lat="-27.2745335" lon="151.2946733">
  <ele>382.93</ele>
  <time>2026-09-01T19:55:40Z</time>
  <course>314.44</course>
  <speed>25.42755985146825</speed>
  <fix>3d</fix>
</trkpt>
<trkpt lat="-27.2745804" lon="151.2947259">
  <ele>383.05</ele>
  <time>2026-09-01T19:55:40Z</time>
  <course>314.95</course>
  <speed>25.4</speed>
  <fix>3d</fix>
</trkpt>
<trkpt lat="-27.2745179" lon="151.2946557">
  <ele>382.94</ele>
  <time>2026-09-01T19:55:40Z</time>
  <course>314.46</course>
  <speed>25.420489767115033</speed>
  <fix>3d</fix>
</trkpt>
<trkpt lat="-27.2745481" lon="151.2946896">
  <ele>383.06</ele>
  <time>2026-09-01T19:55:40Z</time>
  <course>315.0</course>
  <speed>25.4</speed>
  <fix>3d</fix>
</trkpt>
<trkpt lat="-27.2745018" lon="151.2946376">
  <ele>382.94</ele>
  <time>2026-09-01T19:55:40Z</time>
  <course>314.48</course>
  <speed>25.42049763478284</speed>
  <fix>3d</fix>
</trkpt>
<trkpt lat="-27.2745481" lon="151.2946896">
  <ele>383.06</ele>
  <time>2026-09-01T19:55:40Z</time>
  <course>315.0</course>
  <speed>25.4</speed>
  <fix>3d</fix>
</trkpt>
<trkpt lat="-27.2744856" lon="151.2946194">
  <ele>382.95</ele>
  <time>2026-09-01T19:55:40Z</time>
  <course>314.54</course>
  <speed>25.427575582426257</speed>
  <fix>3d</fix>
</trkpt>
<trkpt lat="-27.2745158" lon="151.2946533">
  <ele>383.06</ele>
  <time>2026-09-01T19:55:40Z</time>
  <course>315.04</course>
  <speed>25.4</speed>
  <fix>3d</fix>
</trkpt>
<trkpt lat="-27.2744695" lon="151.2946013">
  <ele>382.96</ele>
  <time>2026-09-01T19:55:40Z</time>
  <course>314.57</course>
  <speed>25.420536973085362</speed>
  <fix>3d</fix>
</trkpt>
<trkpt lat="-27.2745158" lon="151.2946533">
  <ele>383.06</ele>
  <time>2026-09-01T19:55:40Z</time>
  <course>315.04</course>
  <speed>25.4</speed>
  <fix>3d</fix>
</trkpt>
<trkpt lat="-27.2744532" lon="151.2945831">
  <ele>382.96</ele>
  <time>2026-09-01T19:55:40Z</time>
  <course>314.63</course>
  <speed>25.42056844368355</speed>
  <fix>3d</fix>
</trkpt>
<trkpt lat="-27.2744835" lon="151.294617">
  <ele>383.07</ele>
  <time>2026-09-01T19:55:40Z</time>
  <course>315.1</course>
  <speed>25.4</speed>
  <fix>3d</fix>
</trkpt>
<trkpt lat="-27.274437" lon="151.294565">
  <ele>382.97</ele>
  <time>2026-09-01T19:55:40Z</time>
  <course>314.69</course>
  <speed>25.420607781876498</speed>
  <fix>3d</fix>
</trkpt>
<trkpt lat="-27.2744835" lon="151.294617">
  <ele>383.07</ele>
  <time>2026-09-01T19:55:40Z</time>
  <course>315.1</course>
  <speed>25.4</speed>
  <fix>3d</fix>
</trkpt>
<trkpt lat="-27.2744208" lon="151.2945469">
  <ele>382.98</ele>
  <time>2026-09-01T19:55:40Z</time>
  <course>314.72</course>
  <speed>25.42065498762768</speed>
  <fix>3d</fix>
</trkpt>
<trkpt lat="-27.2744512" lon="151.2945809">
  <ele>383.08</ele>
  <time>2026-09-01T19:55:40Z</time>
  <course>315.16</course>
  <speed>25.4</speed>
  <fix>3d</fix>
</trkpt>
<trkpt lat="-27.2744041" lon="151.2945282">
  <ele>382.98</ele>
  <time>2026-09-01T19:55:40Z</time>
  <course>314.75</course>
  <speed>25.42077300162212</speed>
  <fix>3d</fix>
</trkpt>
<trkpt lat="-27.2744512" lon="151.2945809">
  <ele>383.08</ele>
  <time>2026-09-01T19:55:40Z</time>
  <course>315.16</course>
  <speed>25.4</speed>
  <fix>3d</fix>
</trkpt>
<trkpt lat="-27.274388" lon="151.2945103">
  <ele>382.99</ele>
  <time>2026-09-01T19:55:40Z</time>
  <course>314.73</course>
  <speed>25.420843809755805</speed>
  <fix>3d</fix>
</trkpt>
<trkpt lat="-27.2744188" lon="151.2945447">
  <ele>383.09</ele>
  <time>2026-09-01T19:55:40Z</time>
  <course>315.24</course>
  <speed>25.4</speed>
  <fix>3d</fix>
</trkpt>
<trkpt lat="-27.2743718" lon="151.2944923">
  <ele>382.99</ele>
  <time>2026-09-01T19:55:40Z</time>
  <course>314.73</course>
  <speed>25.413811205720403</speed>
  <fix>3d</fix>
</trkpt>
<trkpt lat="-27.2744188" lon="151.2945447">
  <ele>383.09</ele>
  <time>2026-09-01T19:55:40Z</time>
  <course>315.24</course>
  <speed>25.4</speed>
  <fix>3d</fix>
</trkpt>
<trkpt lat="-27.2743556" lon="151.2944743">
  <ele>382.99</ele>
  <time>2026-09-01T19:55:40Z</time>
  <course>314.76</course>
  <speed>25.413893837820286</speed>
  <fix>3d</fix>
</trkpt>
<trkpt lat="-27.2743864" lon="151.2945086">
  <ele>383.1</ele>
  <time>2026-09-01T19:55:40Z</time>
  <course>315.32</course>
  <speed>25.4</speed>
  <fix>3d</fix>
</trkpt>
<trkpt lat="-27.2743393" lon="151.2944562">
  <ele>382.99</ele>
  <time>2026-09-01T19:55:40Z</time>
  <course>314.8</course>
  <speed>25.4139843393357</speed>
  <fix>3d</fix>
</trkpt>
<trkpt lat="-27.2743864" lon="151.2945086">
  <ele>383.1</ele>
  <time>2026-09-01T19:55:40Z</time>
  <course>315.32</course>
  <speed>25.4</speed>
  <fix>3d</fix>
</trkpt>
<trkpt lat="-27.2743229" lon="151.2944381">
  <ele>382.99</ele>
  <time>2026-09-01T19:55:40Z</time>
  <course>314.87</course>
  <speed>25.42110343789191</speed>
  <fix>3d</fix>
</trkpt>
<trkpt lat="-27.2743539" lon="151.2944724">
  <ele>383.1</ele>
  <time>2026-09-01T19:55:40Z</time>
  <course>315.38</course>
  <speed>25.4</speed>
  <fix>3d</fix>
</trkpt>
<trkpt lat="-27.2743067" lon="151.2944201">
  <ele>382.98</ele>
  <time>2026-09-01T19:55:40Z</time>
  <course>314.8</course>
  <speed>25.414082710182555</speed>
  <fix>3d</fix>
</trkpt>
<trkpt lat="-27.2743539" lon="151.2944724">
  <ele>383.1</ele>
  <time>2026-09-01T19:55:40Z</time>
  <course>315.38</course>
  <speed>25.4</speed>
  <fix>3d</fix>
</trkpt>
<trkpt lat="-27.2742904" lon="151.294402">
  <ele>382.98</ele>
  <time>2026-09-01T19:55:40Z</time>
  <course>314.6</course>
  <speed>25.414082710182555</speed>
  <fix>3d</fix>
</trkpt>
<trkpt lat="-27.2743213" lon="151.2944364">
  <ele>383.1</ele>
  <time>2026-09-01T19:55:40Z</time>
  <course>315.43</course>
  <speed>25.4</speed>
  <fix>3d</fix>
</trkpt>
<trkpt lat="-27.2742742" lon="151.294384">
  <ele>382.98</ele>
  <time>2026-09-01T19:55:40Z</time>
  <course>314.3</course>
  <speed>25.406780591015462</speed>
  <fix>3d</fix>
</trkpt>
<trkpt lat="-27.2743213" lon="151.2944364">
  <ele>383.1</ele>
  <time>2026-09-01T19:55:40Z</time>
  <course>315.43</course>
  <speed>25.4</speed>
  <fix>3d</fix>
</trkpt>
<trkpt lat="-27.274258" lon="151.294366">
  <ele>382.97</ele>
  <time>2026-09-01T19:55:40Z</time>
  <course>313.99</course>
  <speed>25.39933857406527</speed>
  <fix>3d</fix>
</trkpt>
<trkpt lat="-27.2742888" lon="151.2944003">
  <ele>383.09</ele>
  <time>2026-09-01T19:55:40Z</time>
  <course>315.43</course>
  <speed>25.4</speed>
  <fix>3d</fix>
</trkpt>
<trkpt lat="-27.2742419" lon="151.2943478">
  <ele>382.95</ele>
  <time>2026-09-01T19:55:40Z</time>
  <course>313.71</course>
  <speed>25.39248904696032</speed>
  <fix>3d</fix>
</trkpt>
<trkpt lat="-27.2742888" lon="151.2944003">
  <ele>383.09</ele>
  <time>2026-09-01T19:55:40Z</time>
  <course>315.43</course>
  <speed>25.4</speed>
  <fix>3d</fix>
</trkpt>
<trkpt lat="-27.2742259" lon="151.2943295">
  <ele>382.92</ele>
  <time>2026-09-01T19:55:40Z</time>
  <course>313.51</course>
  <speed>25.394765208601555</speed>
  <fix>3d</fix>
</trkpt>
<trkpt lat="-27.2742563" lon="151.2943642">
  <ele>383.07</ele>
  <time>2026-09-01T19:55:40Z</time>
  <course>315.11</course>
  <speed>25.39</speed>
  <fix>3d</fix>
</trkpt>
<trkpt lat="-27.2742101" lon="151.294311">
  <ele>382.88</ele>
  <time>2026-09-01T19:55:40Z</time>
  <course>313.4</course>
  <speed>25.393833897227886</speed>
  <fix>3d</fix>
</trkpt>
<trkpt lat="-27.2742563" lon="151.2943642">
  <ele>383.07</ele>
  <time>2026-09-01T19:55:40Z</time>
  <course>315.11</course>
  <speed>25.39</speed>
  <fix>3d</fix>
</trkpt>
<trkpt lat="-27.2741945" lon="151.2942923">
  <ele>382.82</ele>
  <time>2026-09-01T19:55:40Z</time>
  <course>313.14</course>
  <speed>25.398198755029853</speed>
  <fix>3d</fix>
</trkpt>
<trkpt lat="-27.2742243" lon="151.2943278">
  <ele>383.02</ele>
  <time>2026-09-01T19:55:40Z</time>
  <course>314.22</course>
  <speed>25.39</speed>
  <fix>3d</fix>
</trkpt>
<trkpt lat="-27.2741792" lon="151.2942733">
  <ele>382.75</ele>
  <time>2026-09-01T19:55:40Z</time>
  <course>312.69</course>
  <speed>25.409592676782523</speed>
  <fix>3d</fix>
</trkpt>
<trkpt lat="-27.2742243" lon="151.2943278">
  <ele>383.02</ele>
  <time>2026-09-01T19:55:40Z</time>
  <course>314.22</course>
  <speed>25.39</speed>
  <fix>3d</fix>
</trkpt>
<trkpt lat="-27.2741641" lon="151.2942541">
  <ele>382.66</ele>
  <time>2026-09-01T19:55:40Z</time>
  <course>312.06</course>
  <speed>25.423410471453277</speed>
  <fix>3d</fix>
</trkpt>
<trkpt lat="-27.2741929" lon="151.2942906">
  <ele>382.92</ele>
  <time>2026-09-01T19:55:40Z</time>
  <course>312.79</course>
  <speed>25.4</speed>
  <fix>3d</fix>
</trkpt>
<trkpt lat="-27.2741493" lon="151.2942345">
  <ele>382.56</ele>
  <time>2026-09-01T19:55:40Z</time>
  <course>311.34</course>
  <speed>25.438374554990734</speed>
  <fix>3d</fix>
</trkpt>
<trkpt lat="-27.2741929" lon="151.2942906">
  <ele>382.92</ele>
  <time>2026-09-01T19:55:40Z</time>
  <course>312.79</course>
  <speed>25.4</speed>
  <fix>3d</fix>
</trkpt>
<trkpt lat="-27.2741348" lon="151.2942147">
  <ele>382.46</ele>
  <time>2026-09-01T19:55:40Z</time>
  <course>310.51</course>
  <speed>25.45335537802433</speed>
  <fix>3d</fix>
</trkpt>
<trkpt lat="-27.2741624" lon="151.2942524">
  <ele>382.77</ele>
  <time>2026-09-01T19:55:40Z</time>
  <course>310.98</course>
  <speed>25.42</speed>
  <fix>3d</fix>
</trkpt>
<trkpt lat="-27.2741205" lon="151.2941946">
  <ele>382.35</ele>
  <time>2026-09-01T19:55:40Z</time>
  <course>309.64</course>
  <speed>25.47415356788131</speed>
  <fix>3d</fix>
</trkpt>
<trkpt lat="-27.2741624" lon="151.2942524">
  <ele>382.77</ele>
  <time>2026-09-01T19:55:40Z</time>
  <course>310.98</course>
  <speed>25.42</speed>
  <fix>3d</fix>
</trkpt>
<trkpt lat="-27.2741066" lon="151.2941742">
  <ele>382.22</ele>
  <time>2026-09-01T19:55:40Z</time>
  <course>308.67</course>
  <speed>25.480031397154914</speed>
  <fix>3d</fix>
</trkpt>
<trkpt lat="-27.274133" lon="151.294213">
  <ele>382.57</ele>
  <time>2026-09-01T19:55:40Z</time>
  <course>309.01</course>
  <speed>25.46</speed>
  <fix>3d</fix>
</trkpt>
<trkpt lat="-27.2740929" lon="151.2941535">
  <ele>382.09</ele>
  <time>2026-09-01T19:55:40Z</time>
  <course>307.65</course>
  <speed>25.500921551975335</speed>
  <fix>3d</fix>
</trkpt>
<trkpt lat="-27.274133" lon="151.294213">
  <ele>382.57</ele>
  <time>2026-09-01T19:55:40Z</time>
  <course>309.01</course>
  <speed>25.46</speed>
  <fix>3d</fix>
</trkpt>
<trkpt lat="-27.2740795" lon="151.2941324">
  <ele>381.94</ele>
  <time>2026-09-01T19:55:40Z</time>
  <course>306.71</course>
  <speed>25.512545933324645</speed>
  <fix>3d</fix>
</trkpt>
<trkpt lat="-27.2741047" lon="151.2941725">
  <ele>382.33</ele>
  <time>2026-09-01T19:55:40Z</time>
  <course>307.08</course>
  <speed>25.49</speed>
  <fix>3d</fix>
</trkpt>
<trkpt lat="-27.2740665" lon="151.2941114">
  <ele>381.78</ele>
  <time>2026-09-01T19:55:40Z</time>
  <course>305.79</course>
  <speed>25.530879342474673</speed>
  <fix>3d</fix>
</trkpt>
<trkpt lat="-27.2741047" lon="151.2941725">
  <ele>382.33</ele>
  <time>2026-09-01T19:55:40Z</time>
  <course>307.08</course>
  <speed>25.49</speed>
  <fix>3d</fix>
</trkpt>
<trkpt lat="-27.2740537" lon="151.29409">
  <ele>381.61</ele>
  <time>2026-09-01T19:55:40Z</time>
  <course>304.85</course>
  <speed>25.542063346566188</speed>
  <fix>3d</fix>
</trkpt>
<trkpt lat="-27.2740778" lon="151.2941309">
  <ele>382.05</ele>
  <time>2026-09-01T19:55:40Z</time>
  <course>305.19</course>
  <speed>25.53</speed>
  <fix>3d</fix>
</trkpt>
<trkpt lat="-27.2740413" lon="151.2940683">
  <ele>381.43</ele>
  <time>2026-09-01T19:55:40Z</time>
  <course>303.9</course>
  <speed>25.56001956180785</speed>
  <fix>3d</fix>
</trkpt>
<trkpt lat="-27.2740778" lon="151.2941309">
  <ele>382.05</ele>
  <time>2026-09-01T19:55:40Z</time>
  <course>305.19</course>
  <speed>25.53</speed>
  <fix>3d</fix>
</trkpt>
<trkpt lat="-27.2740291" lon="151.2940464">
  <ele>381.23</ele>
  <time>2026-09-01T19:55:40Z</time>
  <course>302.98</course>
  <speed>25.570991376948996</speed>
  <fix>3d</fix>
</trkpt>
<trkpt lat="-27.274052" lon="151.2940881">
  <ele>381.72</ele>
  <time>2026-09-01T19:55:40Z</time>
  <course>303.32</course>
  <speed>25.57</speed>
  <fix>3d</fix>
</trkpt>
<trkpt lat="-27.2740172" lon="151.2940241">
  <ele>381.01</ele>
  <time>2026-09-01T19:55:40Z</time>
  <course>302.03</course>
  <speed>25.592381678929378</speed>
  <fix>3d</fix>
</trkpt>
<trkpt lat="-27.274052" lon="151.2940881">
  <ele>381.72</ele>
  <time>2026-09-01T19:55:40Z</time>
  <course>303.32</course>
  <speed>25.57</speed>
  <fix>3d</fix>
</trkpt>
<trkpt lat="-27.2740057" lon="151.2940017">
  <ele>380.79</ele>
  <time>2026-09-01T19:55:40Z</time>
  <course>301.07</course>
  <speed>25.616153106975293</speed>
  <fix>3d</fix>
</trkpt>
<trkpt lat="-27.2740273" lon="151.2940444">
  <ele>381.34</ele>
  <time>2026-09-01T19:55:40Z</time>
  <course>301.42</course>
  <speed>25.6</speed>
  <fix>3d</fix>
</trkpt>
<trkpt lat="-27.2739945" lon="151.293979">
  <ele>380.56</ele>
  <time>2026-09-01T19:55:40Z</time>
  <course>300.09</course>
  <speed>25.638691464269385</speed>
  <fix>3d</fix>
</trkpt>
<trkpt lat="-27.2740273" lon="151.2940444">
  <ele>381.34</ele>
  <time>2026-09-01T19:55:40Z</time>
  <course>301.42</course>
  <speed>25.6</speed>
  <fix>3d</fix>
</trkpt>
<trkpt lat="-27.2739836" lon="151.2939562">
  <ele>380.33</ele>
  <time>2026-09-01T19:55:40Z</time>
  <course>299.04</course>
  <speed>25.655122295557277</speed>
  <fix>3d</fix>
</trkpt>
<trkpt lat="-27.2740039" lon="151.2939997">
  <ele>380.91</ele>
  <time>2026-09-01T19:55:40Z</time>
  <course>299.47</course>
  <speed>25.65</speed>
  <fix>3d</fix>
</trkpt>
<trkpt lat="-27.2739731" lon="151.2939331">
  <ele>380.08</ele>
  <time>2026-09-01T19:55:40Z</time>
  <course>297.95</course>
  <speed>25.683553103104718</speed>
  <fix>3d</fix>
</trkpt>
<trkpt lat="-27.2740039" lon="151.2939997">
  <ele>380.91</ele>
  <time>2026-09-01T19:55:40Z</time>
  <course>299.47</course>
  <speed>25.65</speed>
  <fix>3d</fix>
</trkpt>
<trkpt lat="-27.273963" lon="151.2939097">
  <ele>379.84</ele>
  <time>2026-09-01T19:55:40Z</time>
  <course>296.85</course>
  <speed>25.71134574463188</speed>
  <fix>3d</fix>
</trkpt>
<trkpt lat="-27.2739819" lon="151.2939541">
  <ele>380.45</ele>
  <time>2026-09-01T19:55:40Z</time>
  <course>297.49</course>
  <speed>25.7</speed>
  <fix>3d</fix>
</trkpt>
<trkpt lat="-27.2739532" lon="151.2938862">
  <ele>379.6</ele>
  <time>2026-09-01T19:55:40Z</time>
  <course>295.85</course>
  <speed>25.729471428694374</speed>
  <fix>3d</fix>
</trkpt>
<trkpt lat="-27.2739819" lon="151.2939541">
  <ele>380.45</ele>
  <time>2026-09-01T19:55:40Z</time>
  <course>297.49</course>
  <speed>25.7</speed>
  <fix>3d</fix>
</trkpt>
<trkpt lat="-27.2739438" lon="151.2938624">
  <ele>379.36</ele>
  <time>2026-09-01T19:55:40Z</time>
  <course>294.81</course>
  <speed>25.759786489798397</speed>
  <fix>3d</fix>
</trkpt>
<trkpt lat="-27.2739613" lon="151.2939075">
  <ele>379.97</ele>
  <time>2026-09-01T19:55:40Z</time>
  <course>295.45</course>
  <speed>25.75</speed>
  <fix>3d</fix>
</trkpt>
<trkpt lat="-27.2739347" lon="151.2938384">
  <ele>379.13</ele>
  <time>2026-09-01T19:55:40Z</time>
  <course>293.79</course>
  <speed>25.77948215150956</speed>
  <fix>3d</fix>
</trkpt>
<trkpt lat="-27.2739613" lon="151.2939075">
  <ele>379.97</ele>
  <time>2026-09-01T19:55:40Z</time>
  <course>295.45</course>
  <speed>25.75</speed>
  <fix>3d</fix>
</trkpt>
<trkpt lat="-27.273926" lon="151.2938142">
  <ele>378.9</ele>
  <time>2026-09-01T19:55:40Z</time>
  <course>292.8</course>
  <speed>25.79745142451091</speed>
  <fix>3d</fix>
</trkpt>
<trkpt lat="-27.2739422" lon="151.2938601">
  <ele>379.49</ele>
  <time>2026-09-01T19:55:40Z</time>
  <course>293.4</course>
  <speed>25.8</speed>
  <fix>3d</fix>
</trkpt>
<trkpt lat="-27.2739177" lon="151.2937899">
  <ele>378.68</ele>
  <time>2026-09-01T19:55:40Z</time>
  <course>291.8</course>
  <speed>25.813488721984093</speed>
  <fix>3d</fix>
</trkpt>
<trkpt lat="-27.2739422" lon="151.2938601">
  <ele>379.49</ele>
  <time>2026-09-01T19:55:40Z</time>
  <course>293.4</course>
  <speed>25.8</speed>
  <fix>3d</fix>
</trkpt>
<trkpt lat="-27.2739097" lon="151.2937654">
  <ele>378.46</ele>
  <time>2026-09-01T19:55:40Z</time>
  <course>290.82</course>
  <speed>25.824649077964253</speed>
  <fix>3d</fix>
</trkpt>
<trkpt lat="-27.2739245" lon="151.2938118">
  <ele>379.02</ele>
  <time>2026-09-01T19:55:40Z</time>
  <course>291.43</course>
  <speed>25.85</speed>
  <fix>3d</fix>
</trkpt>
<trkpt lat="-27.273902" lon="151.2937407">
  <ele>378.26</ele>
  <time>2026-09-01T19:55:40Z</time>
  <course>289.92</course>
  <speed>25.842263832721777</speed>
  <fix>3d</fix>
</trkpt>
<trkpt lat="-27.2739245" lon="151.2938118">
  <ele>379.02</ele>
  <time>2026-09-01T19:55:40Z</time>
  <course>291.43</course>
  <speed>25.85</speed>
  <fix>3d</fix>
</trkpt>
<trkpt lat="-27.2738947" lon="151.2937159">
  <ele>378.06</ele>
  <time>2026-09-01T19:55:40Z</time>
  <course>289.07</course>
  <speed>25.85336535153596</speed>
  <fix>3d</fix>
</trkpt>
<trkpt lat="-27.2739082" lon="151.2937629">
  <ele>378.59</ele>
  <time>2026-09-01T19:55:40Z</time>
  <course>289.55</course>
  <speed>25.88</speed>
  <fix>3d</fix>
</trkpt>
<trkpt lat="-27.2738877" lon="151.2936909">
  <ele>377.87</ele>
  <time>2026-09-01T19:55:40Z</time>
  <course>288.26</course>
  <speed>25.859746711829953</speed>
  <fix>3d</fix>
</trkpt>
<trkpt lat="-27.2739082" lon="151.2937629">
  <ele>378.59</ele>
  <time>2026-09-01T19:55:40Z</time>
  <course>289.55</course>
  <speed>25.88</speed>
  <fix>3d</fix>
</trkpt>
<trkpt lat="-27.273881" lon="151.2936659">
  <ele>377.7</ele>
  <time>2026-09-01T19:55:40Z</time>
  <course>287.43</course>
  <speed>25.854400012377006</speed>
  <fix>3d</fix>
</trkpt>
<trkpt lat="-27.2738934" lon="151.2937133">
  <ele>378.19</ele>
  <time>2026-09-01T19:55:40Z</time>
  <course>287.81</course>
  <speed>25.9</speed>
  <fix>3d</fix>
</trkpt>
<trkpt lat="-27.2738746" lon="151.2936408">
  <ele>377.53</ele>
  <time>2026-09-01T19:55:40Z</time>
  <course>286.68</course>
  <speed>25.856005105197514</speed>
  <fix>3d</fix>
</trkpt>
<trkpt lat="-27.2738934" lon="151.2937133">
  <ele>378.19</ele>
  <time>2026-09-01T19:55:40Z</time>
  <course>287.81</course>
  <speed>25.9</speed>
  <fix>3d</fix>
</trkpt>
<trkpt lat="-27.2738684" lon="151.2936155">
  <ele>377.37</ele>
  <time>2026-09-01T19:55:40Z</time>
  <course>285.94</course>
  <speed>25.84291972668723</speed>
  <fix>3d</fix>
</trkpt>
<trkpt lat="-27.2738797" lon="151.2936633">
  <ele>377.83</ele>
  <time>2026-09-01T19:55:40Z</time>
  <course>286.26</course>
  <speed>25.91</speed>
  <fix>3d</fix>
</trkpt>
<trkpt lat="-27.2738625" lon="151.2935903">
  <ele>377.22</ele>
  <time>2026-09-01T19:55:40Z</time>
  <course>285.25</course>
  <speed>25.835264658988887</speed>
  <fix>3d</fix>
</trkpt>
<trkpt lat="-27.2738797" lon="151.2936633">
  <ele>377.83</ele>
  <time>2026-09-01T19:55:40Z</time>
  <course>286.26</course>
  <speed>25.91</speed>
  <fix>3d</fix>
</trkpt>
<trkpt lat="-27.2738568" lon="151.2935649">
  <ele>377.07</ele>
  <time>2026-09-01T19:55:40Z</time>
  <course>284.61</course>
  <speed>25.81331826790194</speed>
  <fix>3d</fix>
</trkpt>
<trkpt lat="-27.2738672" lon="151.2936129">
  <ele>377.5</ele>
  <time>2026-09-01T19:55:40Z</time>
  <course>284.9</course>
  <speed>25.89</speed>
  <fix>3d</fix>
</trkpt>
<trkpt lat="-27.2738513" lon="151.2935396">
  <ele>376.94</ele>
  <time>2026-09-01T19:55:40Z</time>
  <course>284.09</course>
  <speed>25.790984859054916</speed>
  <fix>3d</fix>
</trkpt>
<trkpt lat="-27.2738672" lon="151.2936129">
  <ele>377.5</ele>
  <time>2026-09-01T19:55:40Z</time>
  <course>284.9</course>
  <speed>25.89</speed>
  <fix>3d</fix>
</trkpt>
<trkpt lat="-27.2738461" lon="151.2935143">
  <ele>376.81</ele>
  <time>2026-09-01T19:55:40Z</time>
  <course>283.65</course>
  <speed>25.777208925715755</speed>
  <fix>3d</fix>
</trkpt>
<trkpt lat="-27.2738557" lon="151.293562">
  <ele>377.21</ele>
  <time>2026-09-01T19:55:40Z</time>
  <course>283.75</course>
  <speed>25.86</speed>
  <fix>3d</fix>
</trkpt>
<trkpt lat="-27.2738409" lon="151.2934885">
  <ele>376.69</ele>
  <time>2026-09-01T19:55:40Z</time>
  <course>283.19</course>
  <speed>25.749650483064816</speed>
  <fix>3d</fix>
</trkpt>
<trkpt lat="-27.2738557" lon="151.293562">
  <ele>377.21</ele>
  <time>2026-09-01T19:55:40Z</time>
  <course>283.75</course>
  <speed>25.86</speed>
  <fix>3d</fix>
</trkpt>
<trkpt lat="-27.2738359" lon="151.293463">
  <ele>376.56</ele>
  <time>2026-09-01T19:55:40Z</time>
  <course>282.74</course>
  <speed>25.727395903977534</speed>
  <fix>3d</fix>
</trkpt>
<trkpt lat="-27.2738451" lon="151.2935111">
  <ele>376.94</ele>
  <time>2026-09-01T19:55:40Z</time>
  <course>282.8</course>
  <speed>25.82</speed>
  <fix>3d</fix>
</trkpt>
<trkpt lat="-27.273831" lon="151.2934376">
  <ele>376.45</ele>
  <time>2026-09-01T19:55:40Z</time>
  <course>282.36</course>
  <speed>25.7101089068094</speed>
  <fix>3d</fix>
</trkpt>
<trkpt lat="-27.2738451" lon="151.2935111">
  <ele>376.94</ele>
  <time>2026-09-01T19:55:40Z</time>
  <course>282.8</course>
  <speed>25.82</speed>
  <fix>3d</fix>
</trkpt>
<trkpt lat="-27.2738263" lon="151.2934121">
  <ele>376.33</ele>
  <time>2026-09-01T19:55:40Z</time>
  <course>282.03</course>
  <speed>25.685686675656545</speed>
  <fix>3d</fix>
</trkpt>
<trkpt lat="-27.2738351" lon="151.2934602">
  <ele>376.7</ele>
  <time>2026-09-01T19:55:40Z</time>
  <course>282.08</course>
  <speed>25.76</speed>
  <fix>3d</fix>
</trkpt>
<trkpt lat="-27.2738217" lon="151.2933866">
  <ele>376.22</ele>
  <time>2026-09-01T19:55:40Z</time>
  <course>281.75</course>
  <speed>25.66772292198901</speed>
  <fix>3d</fix>
</trkpt>
<trkpt lat="-27.2738351" lon="151.2934602">
  <ele>376.7</ele>
  <time>2026-09-01T19:55:40Z</time>
  <course>282.08</course>
  <speed>25.76</speed>
  <fix>3d</fix>
</trkpt>
<trkpt lat="-27.2738171" lon="151.2933611">
  <ele>376.11</ele>
  <time>2026-09-01T19:55:40Z</time>
  <course>281.49</course>
  <speed>25.64220154354926</speed>
  <fix>3d</fix>
</trkpt>
<trkpt lat="-27.2738257" lon="151.2934093">
  <ele>376.47</ele>
  <time>2026-09-01T19:55:40Z</time>
  <course>281.52</course>
  <speed>25.71</speed>
  <fix>3d</fix>
</trkpt>
<trkpt lat="-27.2738127" lon="151.2933356">
  <ele>376.0</ele>
  <time>2026-09-01T19:55:40Z</time>
  <course>281.24</course>
  <speed>25.610944925949138</speed>
  <fix>3d</fix>
</trkpt>
<trkpt lat="-27.2738257" lon="151.2934093">
  <ele>376.47</ele>
  <time>2026-09-01T19:55:40Z</time>
  <course>281.52</course>
  <speed>25.71</speed>
  <fix>3d</fix>
</trkpt>
<trkpt lat="-27.2738082" lon="151.2933101">
  <ele>375.9</ele>
  <time>2026-09-01T19:55:40Z</time>
  <course>281.06</course>
  <speed>25.59153180253187</speed>
  <fix>3d</fix>
</trkpt>
<trkpt lat="-27.2738166" lon="151.2933584">
  <ele>376.25</ele>
  <time>2026-09-01T19:55:40Z</time>
  <course>281.14</course>
  <speed>25.65</speed>
  <fix>3d</fix>
</trkpt>
<trkpt lat="-27.2738038" lon="151.2932847">
  <ele>375.8</ele>
  <time>2026-09-01T19:55:40Z</time>
  <course>280.86</course>
  <speed>25.574100179673966</speed>
  <fix>3d</fix>
</trkpt>
<trkpt lat="-27.2738166" lon="151.2933584">
  <ele>376.25</ele>
  <time>2026-09-01T19:55:40Z</time>
  <course>281.14</course>
  <speed>25.65</speed>
  <fix>3d</fix>
</trkpt>
<trkpt lat="-27.2737995" lon="151.2932592">
  <ele>375.7</ele>
  <time>2026-09-01T19:55:40Z</time>
  <course>280.74</course>
  <speed>25.54878666394943</speed>
  <fix>3d</fix>
</trkpt>
<trkpt lat="-27.2738078" lon="151.2933076">
  <ele>376.05</ele>
  <time>2026-09-01T19:55:40Z</time>
  <course>280.9</course>
  <speed>25.59</speed>
  <fix>3d</fix>
</trkpt>
<trkpt lat="-27.2737952" lon="151.2932338">
  <ele>375.61</ele>
  <time>2026-09-01T19:55:40Z</time>
  <course>280.68</course>
  <speed>25.527259939131735</speed>
  <fix>3d</fix>
</trkpt>
<trkpt lat="-27.2738078" lon="151.2933076">
  <ele>376.05</ele>
  <time>2026-09-01T19:55:40Z</time>
  <course>280.9</course>
  <speed>25.59</speed>
  <fix>3d</fix>
</trkpt>
<trkpt lat="-27.2737909" lon="151.2932084">
  <ele>375.52</ele>
  <time>2026-09-01T19:55:40Z</time>
  <course>280.65</course>
  <speed>25.50761846978271</speed>
  <fix>3d</fix>
</trkpt>
<trkpt lat="-27.2737992" lon="151.2932569">
  <ele>375.85</ele>
  <time>2026-09-01T19:55:40Z</time>
  <course>280.77</course>
  <speed>25.54</speed>
  <fix>3d</fix>
</trkpt>
<trkpt lat="-27.2737865" lon="151.2931831">
  <ele>375.43</ele>
  <time>2026-09-01T19:55:40Z</time>
  <course>280.57</course>
  <speed>25.489866614009575</speed>
  <fix>3d</fix>
</trkpt>
<trkpt lat="-27.2737992" lon="151.2932569">
  <ele>375.85</ele>
  <time>2026-09-01T19:55:40Z</time>
  <course>280.77</course>
  <speed>25.54</speed>
  <fix>3d</fix>
</trkpt>
<trkpt lat="-27.2737822" lon="151.2931579">
  <ele>375.34</ele>
  <time>2026-09-01T19:55:40Z</time>
  <course>280.5</course>
  <speed>25.464202324046987</speed>
  <fix>3d</fix>
</trkpt>
<trkpt lat="-27.2737906" lon="151.2932061">
  <ele>375.66</ele>
  <time>2026-09-01T19:55:40Z</time>
  <course>280.75</course>
  <speed>25.49</speed>
  <fix>3d</fix>
</trkpt>
<trkpt lat="-27.2737779" lon="151.2931327">
  <ele>375.26</ele>
  <time>2026-09-01T19:55:40Z</time>
  <course>280.55</course>
  <speed>25.43856324559231</speed>
  <fix>3d</fix>
</trkpt>
<trkpt lat="-27.2737906" lon="151.2932061">
  <ele>375.66</ele>
  <time>2026-09-01T19:55:40Z</time>
  <course>280.75</course>
  <speed>25.49</speed>
  <fix>3d</fix>
</trkpt>
<trkpt lat="-27.2737736" lon="151.2931077">
  <ele>375.18</ele>
  <time>2026-09-01T19:55:40Z</time>
  <course>280.62</course>
  <speed>25.41679759529119</speed>
  <fix>3d</fix>
</trkpt>
<trkpt lat="-27.2737821" lon="151.2931556">
  <ele>375.49</ele>
  <time>2026-09-01T19:55:40Z</time>
  <course>280.84</course>
  <speed>25.44</speed>
  <fix>3d</fix>
</trkpt>
<trkpt lat="-27.2737692" lon="151.2930827">
  <ele>375.1</ele>
  <time>2026-09-01T19:55:40Z</time>
  <course>280.64</course>
  <speed>25.385302834514306</speed>
  <fix>3d</fix>
</trkpt>
<trkpt lat="-27.2737821" lon="151.2931556">
  <ele>375.49</ele>
  <time>2026-09-01T19:55:40Z</time>
  <course>280.84</course>
  <speed>25.44</speed>
  <fix>3d</fix>
</trkpt>
<trkpt lat="-27.2737648" lon="151.2930577">
  <ele>375.02</ele>
  <time>2026-09-01T19:55:40Z</time>
  <course>280.75</course>
  <speed>25.357831137540135</speed>
  <fix>3d</fix>
</trkpt>
<trkpt lat="-27.2737734" lon="151.2931052">
  <ele>375.33</ele>
  <time>2026-09-01T19:55:40Z</time>
  <course>281.0</course>
  <speed>25.4</speed>
  <fix>3d</fix>
</trkpt>
<trkpt lat="-27.2737604" lon="151.2930328">
  <ele>374.95</ele>
  <time>2026-09-01T19:55:40Z</time>
  <course>280.81</course>
  <speed>25.340333462683557</speed>
  <fix>3d</fix>
</trkpt>
<trkpt lat="-27.2737734" lon="151.2931052">
  <ele>375.33</ele>
  <time>2026-09-01T19:55:40Z</time>
  <course>281.0</course>
  <speed>25.4</speed>
  <fix>3d</fix>
</trkpt>
<trkpt lat="-27.2737559" lon="151.2930081">
  <ele>374.87</ele>
  <time>2026-09-01T19:55:40Z</time>
  <course>280.92</course>
  <speed>25.313208014789435</speed>
  <fix>3d</fix>
</trkpt>
<trkpt lat="-27.2737646" lon="151.2930548">
  <ele>375.18</ele>
  <time>2026-09-01T19:55:40Z</time>
  <course>281.25</course>
  <speed>25.35</speed>
  <fix>3d</fix>
</trkpt>
<trkpt lat="-27.2737514" lon="151.2929832">
  <ele>374.8</ele>
  <time>2026-09-01T19:55:40Z</time>
  <course>281.06</course>
  <speed>25.307884147040028</speed>
  <fix>3d</fix>
</trkpt>
<trkpt lat="-27.2737646" lon="151.2930548">
  <ele>375.18</ele>
  <time>2026-09-01T19:55:40Z</time>
  <course>281.25</course>
  <speed>25.35</speed>
  <fix>3d</fix>
</trkpt>
<trkpt lat="-27.2737467" lon="151.2929583">
  <ele>374.73</ele>
  <time>2026-09-01T19:55:40Z</time>
  <course>281.19</course>
  <speed>25.28320588849444</speed>
  <fix>3d</fix>
</trkpt>
<trkpt lat="-27.2737556" lon="151.2930045">
  <ele>375.03</ele>
  <time>2026-09-01T19:55:40Z</time>
  <course>281.56</course>
  <speed>25.32</speed>
  <fix>3d</fix>
</trkpt>
<trkpt lat="-27.273742" lon="151.2929334">
  <ele>374.66</ele>
  <time>2026-09-01T19:55:40Z</time>
  <course>281.34</course>
  <speed>25.27064700398468</speed>
  <fix>3d</fix>
</trkpt>
<trkpt lat="-27.2737556" lon="151.2930045">
  <ele>375.03</ele>
  <time>2026-09-01T19:55:40Z</time>
  <course>281.56</course>
  <speed>25.32</speed>
  <fix>3d</fix>
</trkpt>
<trkpt lat="-27.2737372" lon="151.2929086">
  <ele>374.59</ele>
  <time>2026-09-01T19:55:40Z</time>
  <course>281.55</course>
  <speed>25.25837088966745</speed>
  <fix>3d</fix>
</trkpt>
<trkpt lat="-27.2737463" lon="151.2929545">
  <ele>374.89</ele>
  <time>2026-09-01T19:55:40Z</time>
  <course>281.92</course>
  <speed>25.29</speed>
  <fix>3d</fix>
</trkpt>
<trkpt lat="-27.2737324" lon="151.2928836">
  <ele>374.53</ele>
  <time>2026-09-01T19:55:40Z</time>
  <course>281.76</course>
  <speed>25.248558374687455</speed>
  <fix>3d</fix>
</trkpt>
<trkpt lat="-27.2737463" lon="151.2929545">
  <ele>374.89</ele>
  <time>2026-09-01T19:55:40Z</time>
  <course>281.92</course>
  <speed>25.29</speed>
  <fix>3d</fix>
</trkpt>
<trkpt lat="-27.2737274" lon="151.2928588">
  <ele>374.47</ele>
  <time>2026-09-01T19:55:40Z</time>
  <course>281.91</course>
  <speed>25.23909863683725</speed>
  <fix>3d</fix>
</trkpt>
<trkpt lat="-27.2737368" lon="151.2929045">
  <ele>374.75</ele>
  <time>2026-09-01T19:55:40Z</time>
  <course>282.32</course>
  <speed>25.27</speed>
  <fix>3d</fix>
</trkpt>
<trkpt lat="-27.2737224" lon="151.292834">
  <ele>374.41</ele>
  <time>2026-09-01T19:55:40Z</time>
  <course>282.12</course>
  <speed>25.229992072927807</speed>
  <fix>3d</fix>
</trkpt>
<trkpt lat="-27.2737368" lon="151.2929045">
  <ele>374.75</ele>
  <time>2026-09-01T19:55:40Z</time>
  <course>282.32</course>
  <speed>25.27</speed>
  <fix>3d</fix>
</trkpt>
<trkpt lat="-27.2737173" lon="151.2928093">
  <ele>374.35</ele>
  <time>2026-09-01T19:55:40Z</time>
  <course>282.33</course>
  <speed>25.221239065517775</speed>
  <fix>3d</fix>
</trkpt>
<trkpt lat="-27.273727" lon="151.2928547">
  <ele>374.63</ele>
  <time>2026-09-01T19:55:40Z</time>
  <course>282.74</course>
  <speed>25.25</speed>
  <fix>3d</fix>
</trkpt>
<trkpt lat="-27.2737121" lon="151.2927843">
  <ele>374.29</ele>
  <time>2026-09-01T19:55:40Z</time>
  <course>282.55</course>
  <speed>25.212839982834144</speed>
  <fix>3d</fix>
</trkpt>
<trkpt lat="-27.273727" lon="151.2928547">
  <ele>374.63</ele>
  <time>2026-09-01T19:55:40Z</time>
  <course>282.74</course>
  <speed>25.25</speed>
  <fix>3d</fix>
</trkpt>
<trkpt lat="-27.2737068" lon="151.2927595">
  <ele>374.23</ele>
  <time>2026-09-01T19:55:40Z</time>
  <course>282.77</course>
  <speed>25.207161680760493</speed>
  <fix>3d</fix>
</trkpt>
<trkpt lat="-27.2737168" lon="151.2928049">
  <ele>374.52</ele>
  <time>2026-09-01T19:55:40Z</time>
  <course>283.19</course>
  <speed>25.23</speed>
  <fix>3d</fix>
</trkpt>
<trkpt lat="-27.2737014" lon="151.2927347">
  <ele>374.17</ele>
  <time>2026-09-01T19:55:41Z</time>
  <course>282.97</course>
  <speed>25.211620336662218</speed>
  <fix>3d</fix>
</trkpt>
<trkpt lat="-27.2737168" lon="151.2928049">
  <ele>374.52</ele>
  <time>2026-09-01T19:55:41Z</time>
  <course>283.19</course>
  <speed>25.23</speed>
  <fix>3d</fix>
</trkpt>
<trkpt lat="-27.273696" lon="151.2927099">
  <ele>374.12</ele>
  <time>2026-09-01T19:55:41Z</time>
  <course>283.2</course>
  <speed>25.216490636089713</speed>
  <fix>3d</fix>
</trkpt>
<trkpt lat="-27.2737062" lon="151.2927553">
  <ele>374.4</ele>
  <time>2026-09-01T19:55:41Z</time>
  <course>283.65</course>
  <speed>25.22</speed>
  <fix>3d</fix>
</trkpt>
<trkpt lat="-27.2736904" lon="151.2926852">
  <ele>374.06</ele>
  <time>2026-09-01T19:55:41Z</time>
  <course>283.42</course>
  <speed>25.212086387286554</speed>
  <fix>3d</fix>
</trkpt>
<trkpt lat="-27.2737062" lon="151.2927553">
  <ele>374.4</ele>
  <time>2026-09-01T19:55:41Z</time>
  <course>283.65</course>
  <speed>25.22</speed>
  <fix>3d</fix>
</trkpt>
<trkpt lat="-27.2736848" lon="151.2926605">
  <ele>374.01</ele>
  <time>2026-09-01T19:55:41Z</time>
  <course>283.62</course>
  <speed>25.208113773148515</speed>
  <fix>3d</fix>
</trkpt>
<trkpt lat="-27.2736954" lon="151.2927058">
  <ele>374.29</ele>
  <time>2026-09-01T19:55:41Z</time>
  <course>284.13</course>
  <speed>25.21</speed>
  <fix>3d</fix>
</trkpt>
<trkpt lat="-27.273679" lon="151.2926359">
  <ele>373.96</ele>
  <time>2026-09-01T19:55:41Z</time>
  <course>283.84</course>
  <speed>25.202007856518097</speed>
  <fix>3d</fix>
</trkpt>
<trkpt lat="-27.2736954" lon="151.2927058">
  <ele>374.29</ele>
  <time>2026-09-01T19:55:41Z</time>
  <course>284.13</course>
  <speed>25.21</speed>
  <fix>3d</fix>
</trkpt>
<trkpt lat="-27.2736732" lon="151.2926113">
  <ele>373.91</ele>
  <time>2026-09-01T19:55:41Z</time>
  <course>284.11</course>
  <speed>25.208514434611175</speed>
  <fix>3d</fix>
</trkpt>
<trkpt lat="-27.2736842" lon="151.2926565">
  <ele>374.18</ele>
  <time>2026-09-01T19:55:41Z</time>
  <course>284.61</course>
  <speed>25.2</speed>
  <fix>3d</fix>
</trkpt>
<trkpt lat="-27.2736673" lon="151.2925867">
  <ele>373.85</ele>
  <time>2026-09-01T19:55:41Z</time>
  <course>284.36</course>
  <speed>25.205787033933298</speed>
  <fix>3d</fix>
</trkpt>
<trkpt lat="-27.2736842" lon="151.2926565">
  <ele>374.18</ele>
  <time>2026-09-01T19:55:41Z</time>
  <course>284.61</course>
  <speed>25.2</speed>
  <fix>3d</fix>
</trkpt>
<trkpt lat="-27.2736613" lon="151.2925622">
  <ele>373.81</ele>
  <time>2026-09-01T19:55:41Z</time>
  <course>284.6</course>
  <speed>25.20617583053804</speed>
  <fix>3d</fix>
</trkpt>
<trkpt lat="-27.2736726" lon="151.2926074">
  <ele>374.07</ele>
  <time>2026-09-01T19:55:41Z</time>
  <course>285.09</course>
  <speed>25.19</speed>
  <fix>3d</fix>
</trkpt>
<trkpt lat="-27.2736552" lon="151.2925376">
  <ele>373.76</ele>
  <time>2026-09-01T19:55:41Z</time>
  <course>284.88</course>
  <speed>25.201628915607817</speed>
  <fix>3d</fix>
</trkpt>
<trkpt lat="-27.2736726" lon="151.2926074">
  <ele>374.07</ele>
  <time>2026-09-01T19:55:41Z</time>
  <course>285.09</course>
  <speed>25.19</speed>
  <fix>3d</fix>
</trkpt>
<trkpt lat="-27.273649" lon="151.2925131">
  <ele>373.72</ele>
  <time>2026-09-01T19:55:41Z</time>
  <course>285.15</course>
  <speed>25.209809598646316</speed>
  <fix>3d</fix>
</trkpt>
<trkpt lat="-27.2736606" lon="151.2925583">
  <ele>373.97</ele>
  <time>2026-09-01T19:55:41Z</time>
  <course>285.58</course>
  <speed>25.19</speed>
  <fix>3d</fix>
</trkpt>
<trkpt lat="-27.2736428" lon="151.2924889">
  <ele>373.69</ele>
  <time>2026-09-01T19:55:41Z</time>
  <course>285.36</course>
  <speed>25.20880005077592</speed>
  <fix>3d</fix>
</trkpt>
<trkpt lat="-27.2736606" lon="151.2925583">
  <ele>373.97</ele>
  <time>2026-09-01T19:55:41Z</time>
  <course>285.58</course>
  <speed>25.19</speed>
  <fix>3d</fix>
</trkpt>
<trkpt lat="-27.2736364" lon="151.2924644">
  <ele>373.65</ele>
  <time>2026-09-01T19:55:41Z</time>
  <course>285.54</course>
  <speed>25.214973725943082</speed>
  <fix>3d</fix>
</trkpt>
<trkpt lat="-27.2736481" lon="151.2925092">
  <ele>373.89</ele>
  <time>2026-09-01T19:55:41Z</time>
  <course>286.06</course>
  <speed>25.19</speed>
  <fix>3d</fix>
</trkpt>
<trkpt lat="-27.27363" lon="151.2924399">
  <ele>373.61</ele>
  <time>2026-09-01T19:55:41Z</time>
  <course>285.81</course>
  <speed>25.22435529404072</speed>
  <fix>3d</fix>
</trkpt>
<trkpt lat="-27.2736481" lon="151.2925092">
  <ele>373.89</ele>
  <time>2026-09-01T19:55:41Z</time>
  <course>286.06</course>
  <speed>25.19</speed>
  <fix>3d</fix>
</trkpt>
<trkpt lat="-27.2736234" lon="151.2924155">
  <ele>373.57</ele>
  <time>2026-09-01T19:55:41Z</time>
  <course>286.06</course>
  <speed>25.221667272406876</speed>
  <fix>3d</fix>
</trkpt>
<trkpt lat="-27.2736355" lon="151.2924602">
  <ele>373.81</ele>
  <time>2026-09-01T19:55:41Z</time>
  <course>286.52</course>
  <speed>25.19</speed>
  <fix>3d</fix>
</trkpt>
<trkpt lat="-27.2736167" lon="151.2923909">
  <ele>373.53</ele>
  <time>2026-09-01T19:55:41Z</time>
  <course>286.26</course>
  <speed>25.23183901343697</speed>
  <fix>3d</fix>
</trkpt>
<trkpt lat="-27.2736355" lon="151.2924602">
  <ele>373.81</ele>
  <time>2026-09-01T19:55:41Z</time>
  <course>286.52</course>
  <speed>25.19</speed>
  <fix>3d</fix>
</trkpt>
<trkpt lat="-27.27361" lon="151.2923665">
  <ele>373.49</ele>
  <time>2026-09-01T19:55:41Z</time>
  <course>286.47</course>
  <speed>25.229889020762656</speed>
  <fix>3d</fix>
</trkpt>
<trkpt lat="-27.2736224" lon="151.2924115">
  <ele>373.72</ele>
  <time>2026-09-01T19:55:41Z</time>
  <course>286.98</course>
  <speed>25.19</speed>
  <fix>3d</fix>
</trkpt>
<trkpt lat="-27.2736032" lon="151.2923422">
  <ele>373.45</ele>
  <time>2026-09-01T19:55:41Z</time>
  <course>286.69</course>
  <speed>25.23782874971617</speed>
  <fix>3d</fix>
</trkpt>
<trkpt lat="-27.2736224" lon="151.2924115">
  <ele>373.72</ele>
  <time>2026-09-01T19:55:41Z</time>
  <course>286.98</course>
  <speed>25.19</speed>
  <fix>3d</fix>
</trkpt>
<trkpt lat="-27.2735963" lon="151.2923179">
  <ele>373.42</ele>
  <time>2026-09-01T19:55:41Z</time>
  <course>286.85</course>
  <speed>25.24305052880891</speed>
  <fix>3d</fix>
</trkpt>
<trkpt lat="-27.273609" lon="151.2923629">
  <ele>373.65</ele>
  <time>2026-09-01T19:55:41Z</time>
  <course>287.42</course>
  <speed>25.19</speed>
  <fix>3d</fix>
</trkpt>
<trkpt lat="-27.2735894" lon="151.2922936">
  <ele>373.39</ele>
  <time>2026-09-01T19:55:41Z</time>
  <course>287.07</course>
  <speed>25.248540551881412</speed>
  <fix>3d</fix>
</trkpt>
<trkpt lat="-27.273609" lon="151.2923629">
  <ele>373.65</ele>
  <time>2026-09-01T19:55:41Z</time>
  <course>287.42</course>
  <speed>25.19</speed>
  <fix>3d</fix>
</trkpt>
<trkpt lat="-27.2735823" lon="151.2922693">
  <ele>373.36</ele>
  <time>2026-09-01T19:55:41Z</time>
  <course>287.27</course>
  <speed>25.2511880908602</speed>
  <fix>3d</fix>
</trkpt>
<trkpt lat="-27.2735953" lon="151.2923143">
  <ele>373.58</ele>
  <time>2026-09-01T19:55:41Z</time>
  <course>287.83</course>
  <speed>25.2</speed>
  <fix>3d</fix>
</trkpt>
<trkpt lat="-27.2735752" lon="151.2922451">
  <ele>373.33</ele>
  <time>2026-09-01T19:55:41Z</time>
  <course>287.55</course>
  <speed>25.257183136684105</speed>
  <fix>3d</fix>
</trkpt>
<trkpt lat="-27.2735953" lon="151.2923143">
  <ele>373.58</ele>
  <time>2026-09-01T19:55:41Z</time>
  <course>287.83</course>
  <speed>25.2</speed>
  <fix>3d</fix>
</trkpt>
<trkpt lat="-27.2735681" lon="151.2922208">
  <ele>373.29</ele>
  <time>2026-09-01T19:55:41Z</time>
  <course>287.77</course>
  <speed>25.263445924893144</speed>
  <fix>3d</fix>
</trkpt>
<trkpt lat="-27.2735813" lon="151.2922659">
  <ele>373.52</ele>
  <time>2026-09-01T19:55:41Z</time>
  <course>288.2</course>
  <speed>25.2</speed>
  <fix>3d</fix>
</trkpt>
<trkpt lat="-27.2735608" lon="151.2921966">
  <ele>373.27</ele>
  <time>2026-09-01T19:55:41Z</time>
  <course>287.89</course>
  <speed>25.266776604861967</speed>
  <fix>3d</fix>
</trkpt>
<trkpt lat="-27.2735813" lon="151.2922659">
  <ele>373.52</ele>
  <time>2026-09-01T19:55:41Z</time>
  <course>288.2</course>
  <speed>25.2</speed>
  <fix>3d</fix>
</trkpt>
<trkpt lat="-27.2735535" lon="151.2921725">
  <ele>373.24</ele>
  <time>2026-09-01T19:55:41Z</time>
  <course>288.02</course>
  <speed>25.27031657894297</speed>
  <fix>3d</fix>
</trkpt>
<trkpt lat="-27.2735671" lon="151.2922176">
  <ele>373.46</ele>
  <time>2026-09-01T19:55:41Z</time>
  <course>288.57</course>
  <speed>25.21</speed>
  <fix>3d</fix>
</trkpt>
<trkpt lat="-27.2735462" lon="151.2921483">
  <ele>373.21</ele>
  <time>2026-09-01T19:55:41Z</time>
  <course>288.23</course>
  <speed>25.280272941564537</speed>
  <fix>3d</fix>
</trkpt>
<trkpt lat="-27.2735671" lon="151.2922176">
  <ele>373.46</ele>
  <time>2026-09-01T19:55:41Z</time>
  <course>288.57</course>
  <speed>25.21</speed>
  <fix>3d</fix>
</trkpt>
<trkpt lat="-27.2735388" lon="151.2921242">
  <ele>373.19</ele>
  <time>2026-09-01T19:55:41Z</time>
  <course>288.42</course>
  <speed>25.2809216604142</speed>
  <fix>3d</fix>
</trkpt>
<trkpt lat="-27.2735525" lon="151.2921693">
  <ele>373.4</ele>
  <time>2026-09-01T19:55:41Z</time>
  <course>288.9</course>
  <speed>25.22</speed>
  <fix>3d</fix>
</trkpt>
<trkpt lat="-27.2735313" lon="151.2920999">
  <ele>373.16</ele>
  <time>2026-09-01T19:55:41Z</time>
  <course>288.6</course>
  <speed>25.29117039600975</speed>
  <fix>3d</fix>
</trkpt>
<trkpt lat="-27.2735525" lon="151.2921693">
  <ele>373.4</ele>
  <time>2026-09-01T19:55:41Z</time>
  <course>288.9</course>
  <speed>25.22</speed>
  <fix>3d</fix>
</trkpt>
<trkpt lat="-27.2735238" lon="151.2920758">
  <ele>373.14</ele>
  <time>2026-09-01T19:55:41Z</time>
  <course>288.74</course>
  <speed>25.288811755398868</speed>
  <fix>3d</fix>
</trkpt>
<trkpt lat="-27.2735377" lon="151.2921212">
  <ele>373.34</ele>
  <time>2026-09-01T19:55:41Z</time>
  <course>289.19</course>
  <speed>25.22</speed>
  <fix>3d</fix>
</trkpt>
<trkpt lat="-27.2735162" lon="151.2920517">
  <ele>373.11</ele>
  <time>2026-09-01T19:55:41Z</time>
  <course>288.87</course>
  <speed>25.295995730549926</speed>
  <fix>3d</fix>
</trkpt>
<trkpt lat="-27.2735377" lon="151.2921212">
  <ele>373.34</ele>
  <time>2026-09-01T19:55:41Z</time>
  <course>289.19</course>
  <speed>25.22</speed>
  <fix>3d</fix>
</trkpt>
<trkpt lat="-27.2735086" lon="151.2920277">
  <ele>373.09</ele>
  <time>2026-09-01T19:55:41Z</time>
  <course>289.02</course>
  <speed>25.30663351771626</speed>
  <fix>3d</fix>
</trkpt>
<trkpt lat="-27.2735227" lon="151.292073">
  <ele>373.29</ele>
  <time>2026-09-01T19:55:41Z</time>
  <course>289.46</course>
  <speed>25.23</speed>
  <fix>3d</fix>
</trkpt>
<trkpt lat="-27.2735009" lon="151.2920036">
  <ele>373.07</ele>
  <time>2026-09-01T19:55:41Z</time>
  <course>289.09</course>
  <speed>25.310665736009398</speed>
  <fix>3d</fix>
</trkpt>
<trkpt lat="-27.2735227" lon="151.292073">
  <ele>373.29</ele>
  <time>2026-09-01T19:55:41Z</time>
  <course>289.46</course>
  <speed>25.23</speed>
  <fix>3d</fix>
</trkpt>
<trkpt lat="-27.2734933" lon="151.2919798">
  <ele>373.05</ele>
  <time>2026-09-01T19:55:41Z</time>
  <course>289.23</course>
  <speed>25.308743548426104</speed>
  <fix>3d</fix>
</trkpt>
<trkpt lat="-27.2735075" lon="151.2920249">
  <ele>373.24</ele>
  <time>2026-09-01T19:55:41Z</time>
  <course>289.71</course>
  <speed>25.24</speed>
  <fix>3d</fix>
</trkpt>
<trkpt lat="-27.2734856" lon="151.2919558">
  <ele>373.03</ele>
  <time>2026-09-01T19:55:41Z</time>
  <course>289.32</course>
  <speed>25.31292950252894</speed>
  <fix>3d</fix>
</trkpt>
<trkpt lat="-27.2735075" lon="151.2920249">
  <ele>373.24</ele>
  <time>2026-09-01T19:55:41Z</time>
  <course>289.71</course>
  <speed>25.24</speed>
  <fix>3d</fix>
</trkpt>
<trkpt lat="-27.2734778" lon="151.2919318">
  <ele>373.01</ele>
  <time>2026-09-01T19:55:41Z</time>
  <course>289.48</course>
  <speed>25.313763054907504</speed>
  <fix>3d</fix>
</trkpt>
<trkpt lat="-27.273492" lon="151.2919767">
  <ele>373.2</ele>
  <time>2026-09-01T19:55:41Z</time>
  <course>289.93</course>
  <speed>25.25</speed>
  <fix>3d</fix>
</trkpt>
<trkpt lat="-27.27347" lon="151.2919078">
  <ele>372.99</ele>
  <time>2026-09-01T19:55:41Z</time>
  <course>289.54</course>
  <speed>25.324030090015295</speed>
  <fix>3d</fix>
</trkpt>
<trkpt lat="-27.273492" lon="151.2919767">
  <ele>373.2</ele>
  <time>2026-09-01T19:55:41Z</time>
  <course>289.93</course>
  <speed>25.25</speed>
  <fix>3d</fix>
</trkpt>
<trkpt lat="-27.2734621" lon="151.2918837">
  <ele>372.97</ele>
  <time>2026-09-01T19:55:41Z</time>
  <course>289.61</course>
  <speed>25.324938301997896</speed>
  <fix>3d</fix>
</trkpt>
<trkpt lat="-27.2734765" lon="151.2919288">
  <ele>373.16</ele>
  <time>2026-09-01T19:55:41Z</time>
  <course>290.11</course>
  <speed>25.26</speed>
  <fix>3d</fix>
</trkpt>
<trkpt lat="-27.2734543" lon="151.2918597">
  <ele>372.95</ele>
  <time>2026-09-01T19:55:41Z</time>
  <course>289.72</course>
  <speed>25.335271855656096</speed>
  <fix>3d</fix>
</trkpt>
<trkpt lat="-27.2734765" lon="151.2919288">
  <ele>373.16</ele>
  <time>2026-09-01T19:55:41Z</time>
  <course>290.11</course>
  <speed>25.26</speed>
  <fix>3d</fix>
</trkpt>
<trkpt lat="-27.2734464" lon="151.2918357">
  <ele>372.93</ele>
  <time>2026-09-01T19:55:41Z</time>
  <course>289.91</course>
  <speed>25.336254656124687</speed>
  <fix>3d</fix>
</trkpt>
<trkpt lat="-27.2734608" lon="151.2918809">
  <ele>373.12</ele>
  <time>2026-09-01T19:55:41Z</time>
  <course>290.24</course>
  <speed>25.27</speed>
  <fix>3d</fix>
</trkpt>
<trkpt lat="-27.2734385" lon="151.2918118">
  <ele>372.91</ele>
  <time>2026-09-01T19:55:41Z</time>
  <course>290.02</course>
  <speed>25.337276886042822</speed>
  <fix>3d</fix>
</trkpt>
<trkpt lat="-27.2734608" lon="151.2918809">
  <ele>373.12</ele>
  <time>2026-09-01T19:55:41Z</time>
  <course>290.24</course>
  <speed>25.27</speed>
  <fix>3d</fix>
</trkpt>
<trkpt lat="-27.2734305" lon="151.2917878">
  <ele>372.9</ele>
  <time>2026-09-01T19:55:41Z</time>
  <course>290.07</course>
  <speed>25.34771192829838</speed>
  <fix>3d</fix>
</trkpt>
<trkpt lat="-27.2734451" lon="151.291833">
  <ele>373.08</ele>
  <time>2026-09-01T19:55:41Z</time>
  <course>290.38</course>
  <speed>25.28</speed>
  <fix>3d</fix>
</trkpt>
<trkpt lat="-27.2734226" lon="151.2917639">
  <ele>372.88</ele>
  <time>2026-09-01T19:55:41Z</time>
  <course>290.14</course>
  <speed>25.348808650506633</speed>
  <fix>3d</fix>
</trkpt>
<trkpt lat="-27.2734451" lon="151.291833">
  <ele>373.08</ele>
  <time>2026-09-01T19:55:41Z</time>
  <course>290.38</course>
  <speed>25.28</speed>
  <fix>3d</fix>
</trkpt>
<trkpt lat="-27.2734146" lon="151.2917399">
  <ele>372.86</ele>
  <time>2026-09-01T19:55:41Z</time>
  <course>290.17</course>
  <speed>25.355806041220617</speed>
  <fix>3d</fix>
</trkpt>
<trkpt lat="-27.2734292" lon="151.2917851">
  <ele>373.05</ele>
  <time>2026-09-01T19:55:41Z</time>
  <course>290.51</course>
  <speed>25.29</speed>
  <fix>3d</fix>
</trkpt>
<trkpt lat="-27.2734065" lon="151.291716">
  <ele>372.85</ele>
  <time>2026-09-01T19:55:41Z</time>
  <course>290.21</course>
  <speed>25.35696551245831</speed>
  <fix>3d</fix>
</trkpt>
<trkpt lat="-27.2734292" lon="151.2917851">
  <ele>373.05</ele>
  <time>2026-09-01T19:55:41Z</time>
  <course>290.51</course>
  <speed>25.29</speed>
  <fix>3d</fix>
</trkpt>
<trkpt lat="-27.2733985" lon="151.2916921">
  <ele>372.84</ele>
  <time>2026-09-01T19:55:41Z</time>
  <course>290.24</course>
  <speed>25.364000078851912</speed>
  <fix>3d</fix>
</trkpt>
<trkpt lat="-27.2734133" lon="151.2917373">
  <ele>373.02</ele>
  <time>2026-09-01T19:55:41Z</time>
  <course>290.64</course>
  <speed>25.3</speed>
  <fix>3d</fix>
</trkpt>
<trkpt lat="-27.2733905" lon="151.2916681">
  <ele>372.83</ele>
  <time>2026-09-01T19:55:41Z</time>
  <course>290.29</course>
  <speed>25.35816436574225</speed>
  <fix>3d</fix>
</trkpt>
<trkpt lat="-27.2734133" lon="151.2917373">
  <ele>373.02</ele>
  <time>2026-09-01T19:55:41Z</time>
  <course>290.64</course>
  <speed>25.3</speed>
  <fix>3d</fix>
</trkpt>
<trkpt lat="-27.2733824" lon="151.2916442">
  <ele>372.82</ele>
  <time>2026-09-01T19:55:41Z</time>
  <course>290.32</course>
  <speed>25.365222254102168</speed>
  <fix>3d</fix>
</trkpt>
<trkpt lat="-27.2733972" lon="151.2916894">
  <ele>373.0</ele>
  <time>2026-09-01T19:55:41Z</time>
  <course>290.73</course>
  <speed>25.31</speed>
  <fix>3d</fix>
</trkpt>
<trkpt lat="-27.2733743" lon="151.2916203">
  <ele>372.81</ele>
  <time>2026-09-01T19:55:41Z</time>
  <course>290.29</course>
  <speed>25.36875637472204</speed>
  <fix>3d</fix>
</trkpt>
<trkpt lat="-27.2733972" lon="151.2916894">
  <ele>373.0</ele>
  <time>2026-09-01T19:55:41Z</time>
  <course>290.73</course>
  <speed>25.31</speed>
  <fix>3d</fix>
</trkpt>
<trkpt lat="-27.2733662" lon="151.2915964">
  <ele>372.8</ele>
  <time>2026-09-01T19:55:41Z</time>
  <course>290.3</course>
  <speed>25.36875637472204</speed>
  <fix>3d</fix>
</trkpt>
<trkpt lat="-27.2733811" lon="151.2916416">
  <ele>372.97</ele>
  <time>2026-09-01T19:55:41Z</time>
  <course>290.79</course>
  <speed>25.32</speed>
  <fix>3d</fix>
</trkpt>
<trkpt lat="-27.2733582" lon="151.2915724">
  <ele>372.79</ele>
  <time>2026-09-01T19:55:41Z</time>
  <course>290.3</course>
  <speed>25.372293944379567</speed>
  <fix>3d</fix>
</trkpt>
<trkpt lat="-27.2733811" lon="151.2916416">
  <ele>372.97</ele>
  <time>2026-09-01T19:55:41Z</time>
  <course>290.79</course>
  <speed>25.32</speed>
  <fix>3d</fix>
</trkpt>
<trkpt lat="-27.2733501" lon="151.2915485">
  <ele>372.78</ele>
  <time>2026-09-01T19:55:41Z</time>
  <course>290.32</course>
  <speed>25.372293944379567</speed>
  <fix>3d</fix>
</trkpt>
<trkpt lat="-27.2733649" lon="151.2915937">
  <ele>372.96</ele>
  <time>2026-09-01T19:55:41Z</time>
  <course>290.83</course>
  <speed>25.33</speed>
  <fix>3d</fix>
</trkpt>
<trkpt lat="-27.273342" lon="151.2915246">
  <ele>372.76</ele>
  <time>2026-09-01T19:55:41Z</time>
  <course>290.41</course>
  <speed>25.381646912680825</speed>
  <fix>3d</fix>
</trkpt>
<trkpt lat="-27.2733649" lon="151.2915937">
  <ele>372.96</ele>
  <time>2026-09-01T19:55:41Z</time>
  <course>290.83</course>
  <speed>25.33</speed>
  <fix>3d</fix>
</trkpt>
<trkpt lat="-27.2733339" lon="151.2915007">
  <ele>372.76</ele>
  <time>2026-09-01T19:55:41Z</time>
  <course>290.42</course>
  <speed>25.381646912680825</speed>
  <fix>3d</fix>
</trkpt>
<trkpt lat="-27.2733487" lon="151.2915459">
  <ele>372.94</ele>
  <time>2026-09-01T19:55:41Z</time>
  <course>290.83</course>
  <speed>25.34</speed>
  <fix>3d</fix>
</trkpt>
<trkpt lat="-27.2733258" lon="151.2914767">
  <ele>372.75</ele>
  <time>2026-09-01T19:55:41Z</time>
  <course>290.42</course>
  <speed>25.387465411103964</speed>
  <fix>3d</fix>
</trkpt>
<trkpt lat="-27.2733487" lon="151.2915459">
  <ele>372.94</ele>
  <time>2026-09-01T19:55:41Z</time>
  <course>290.83</course>
  <speed>25.34</speed>
  <fix>3d</fix>
</trkpt>
<trkpt lat="-27.2733177" lon="151.2914528">
  <ele>372.75</ele>
  <time>2026-09-01T19:55:41Z</time>
  <course>290.42</course>
  <speed>25.387465411103964</speed>
  <fix>3d</fix>
</trkpt>
<trkpt lat="-27.2733325" lon="151.2914979">
  <ele>372.92</ele>
  <time>2026-09-01T19:55:41Z</time>
  <course>290.82</course>
  <speed>25.34</speed>
  <fix>3d</fix>
</trkpt>
<trkpt lat="-27.2733096" lon="151.2914289">
  <ele>372.75</ele>
  <time>2026-09-01T19:55:41Z</time>
  <course>290.48</course>
  <speed>25.387465411103964</speed>
  <fix>3d</fix>
</trkpt>
<trkpt lat="-27.2733325" lon="151.2914979">
  <ele>372.92</ele>
  <time>2026-09-01T19:55:41Z</time>
  <course>290.82</course>
  <speed>25.34</speed>
  <fix>3d</fix>
</trkpt>
<trkpt lat="-27.2733015" lon="151.2914049">
  <ele>372.74</ele>
  <time>2026-09-01T19:55:41Z</time>
  <course>290.47</course>
  <speed>25.393290452401008</speed>
  <fix>3d</fix>
</trkpt>
<trkpt lat="-27.2733163" lon="151.2914499">
  <ele>372.91</ele>
  <time>2026-09-01T19:55:41Z</time>
  <course>290.8</course>
  <speed>25.35</speed>
  <fix>3d</fix>
</trkpt>
<trkpt lat="-27.2732934" lon="151.2913808">
  <ele>372.74</ele>
  <time>2026-09-01T19:55:41Z</time>
  <course>290.4</course>
  <speed>25.393290452401008</speed>
  <fix>3d</fix>
</trkpt>
<trkpt lat="-27.2733163" lon="151.2914499">
  <ele>372.91</ele>
  <time>2026-09-01T19:55:41Z</time>
  <course>290.8</course>
  <speed>25.35</speed>
  <fix>3d</fix>
</trkpt>
<trkpt lat="-27.2732853" lon="151.2913568">
  <ele>372.74</ele>
  <time>2026-09-01T19:55:41Z</time>
  <course>290.37</course>
  <speed>25.389763685391006</speed>
  <fix>3d</fix>
</trkpt>
<trkpt lat="-27.2733001" lon="151.291402">
  <ele>372.9</ele>
  <time>2026-09-01T19:55:41Z</time>
  <course>290.77</course>
  <speed>25.36</speed>
  <fix>3d</fix>
</trkpt>
<trkpt lat="-27.2732773" lon="151.2913328">
  <ele>372.74</ele>
  <time>2026-09-01T19:55:41Z</time>
  <course>290.37</course>
  <speed>25.395600012600607</speed>
  <fix>3d</fix>
</trkpt>
<trkpt lat="-27.2733001" lon="151.291402">
  <ele>372.9</ele>
  <time>2026-09-01T19:55:41Z</time>
  <course>290.77</course>
  <speed>25.36</speed>
  <fix>3d</fix>
</trkpt>
<trkpt lat="-27.2732692" lon="151.2913089">
  <ele>372.74</ele>
  <time>2026-09-01T19:55:41Z</time>
  <course>290.37</course>
  <speed>25.392081442843555</speed>
  <fix>3d</fix>
</trkpt>
<trkpt lat="-27.2732839" lon="151.2913541">
  <ele>372.9</ele>
  <time>2026-09-01T19:55:41Z</time>
  <course>290.73</course>
  <speed>25.36</speed>
  <fix>3d</fix>
</trkpt>
<trkpt lat="-27.2732612" lon="151.2912849">
  <ele>372.74</ele>
  <time>2026-09-01T19:55:41Z</time>
  <course>290.36</course>
  <speed>25.388566324233434</speed>
  <fix>3d</fix>
</trkpt>
<trkpt lat="-27.2732839" lon="151.2913541">
  <ele>372.9</ele>
  <time>2026-09-01T19:55:41Z</time>
  <course>290.73</course>
  <speed>25.36</speed>
  <fix>3d</fix>
</trkpt>
<trkpt lat="-27.2732531" lon="151.291261">
  <ele>372.74</ele>
  <time>2026-09-01T19:55:41Z</time>
  <course>290.33</course>
  <speed>25.397929049432356</speed>
  <fix>3d</fix>
</trkpt>
<trkpt lat="-27.2732678" lon="151.2913062">
  <ele>372.9</ele>
  <time>2026-09-01T19:55:41Z</time>
  <course>290.68</course>
  <speed>25.36</speed>
  <fix>3d</fix>
</trkpt>
<trkpt lat="-27.2732451" lon="151.291237">
  <ele>372.74</ele>
  <time>2026-09-01T19:55:41Z</time>
  <course>290.29</course>
  <speed>25.394418678126893</speed>
  <fix>3d</fix>
</trkpt>
<trkpt lat="-27.2732678" lon="151.2913062">
  <ele>372.9</ele>
  <time>2026-09-01T19:55:41Z</time>
  <course>290.68</course>
  <speed>25.36</speed>
  <fix>3d</fix>
</trkpt>
<trkpt lat="-27.2732371" lon="151.291213">
  <ele>372.74</ele>
  <time>2026-09-01T19:55:41Z</time>
  <course>290.22</course>
  <speed>25.396775385863457</speed>
  <fix>3d</fix>
</trkpt>
<trkpt lat="-27.2732518" lon="151.2912582">
  <ele>372.9</ele>
  <time>2026-09-01T19:55:41Z</time>
  <course>290.64</course>
  <speed>25.37</speed>
  <fix>3d</fix>
</trkpt>
<trkpt lat="-27.2732291" lon="151.291189">
  <ele>372.74</ele>
  <time>2026-09-01T19:55:41Z</time>
  <course>290.21</course>
  <speed>25.393276669228808</speed>
  <fix>3d</fix>
</trkpt>
<trkpt lat="-27.2732518" lon="151.2912582">
  <ele>372.9</ele>
  <time>2026-09-01T19:55:41Z</time>
  <course>290.64</course>
  <speed>25.37</speed>
  <fix>3d</fix>
</trkpt>
<trkpt lat="-27.2732211" lon="151.291165">
  <ele>372.74</ele>
  <time>2026-09-01T19:55:41Z</time>
  <course>290.16</course>
  <speed>25.389781409062977</speed>
  <fix>3d</fix>
</trkpt>
<trkpt lat="-27.2732357" lon="151.2912103">
  <ele>372.9</ele>
  <time>2026-09-01T19:55:41Z</time>
  <course>290.58</course>
  <speed>25.37</speed>
  <fix>3d</fix>
</trkpt>
<trkpt lat="-27.2732131" lon="151.291141">
  <ele>372.74</ele>
  <time>2026-09-01T19:55:41Z</time>
  <course>290.12</course>
  <speed>25.395661046722136</speed>
  <fix>3d</fix>
</trkpt>
<trkpt lat="-27.2732357" lon="151.2912103">
  <ele>372.9</ele>
  <time>2026-09-01T19:55:41Z</time>
  <course>290.58</course>
  <speed>25.37</speed>
  <fix>3d</fix>
</trkpt>
<trkpt lat="-27.2732051" lon="151.291117">
  <ele>372.74</ele>
  <time>2026-09-01T19:55:41Z</time>
  <course>290.15</course>
  <speed>25.39806488691609</speed>
  <fix>3d</fix>
</trkpt>
<trkpt lat="-27.2732197" lon="151.2911622">
  <ele>372.91</ele>
  <time>2026-09-01T19:55:41Z</time>
  <course>290.51</course>
  <speed>25.37</speed>
  <fix>3d</fix>
</trkpt>
<trkpt lat="-27.2731971" lon="151.291093">
  <ele>372.75</ele>
  <time>2026-09-01T19:55:41Z</time>
  <course>290.11</course>
  <speed>25.39458603718517</speed>
  <fix>3d</fix>
</trkpt>
<trkpt lat="-27.2732197" lon="151.2911622">
  <ele>372.91</ele>
  <time>2026-09-01T19:55:41Z</time>
  <course>290.51</course>
  <speed>25.37</speed>
  <fix>3d</fix>
</trkpt>
<trkpt lat="-27.2731892" lon="151.2910689">
  <ele>372.75</ele>
  <time>2026-09-01T19:55:41Z</time>
  <course>290.03</course>
  <speed>25.39458603718517</speed>
  <fix>3d</fix>
</trkpt>
<trkpt lat="-27.2732038" lon="151.2911141">
  <ele>372.91</ele>
  <time>2026-09-01T19:55:41Z</time>
  <course>290.45</course>
  <speed>25.38</speed>
  <fix>3d</fix>
</trkpt>
<trkpt lat="-27.2731812" lon="151.2910449">
  <ele>372.76</ele>
  <time>2026-09-01T19:55:41Z</time>
  <course>289.98</course>
  <speed>25.397017541435844</speed>
  <fix>3d</fix>
</trkpt>
<trkpt lat="-27.2732038" lon="151.2911141">
  <ele>372.91</ele>
  <time>2026-09-01T19:55:41Z</time>
  <course>290.45</course>
  <speed>25.38</speed>
  <fix>3d</fix>
</trkpt>
<trkpt lat="-27.2731733" lon="151.2910209">
  <ele>372.77</ele>
  <time>2026-09-01T19:55:41Z</time>
  <course>289.9</course>
  <speed>25.390086648138876</speed>
  <fix>3d</fix>
</trkpt>
<trkpt lat="-27.2731878" lon="151.2910661">
  <ele>372.91</ele>
  <time>2026-09-01T19:55:41Z</time>
  <course>290.39</course>
  <speed>25.38</speed>
  <fix>3d</fix>
</trkpt>
<trkpt lat="-27.2731654" lon="151.2909968">
  <ele>372.77</ele>
  <time>2026-09-01T19:55:41Z</time>
  <course>289.81</course>
  <speed>25.360946354582275</speed>
  <fix>3d</fix>
</trkpt>
<trkpt lat="-27.2731878" lon="151.2910661">
  <ele>372.91</ele>
  <time>2026-09-01T19:55:41Z</time>
  <course>290.39</course>
  <speed>25.38</speed>
  <fix>3d</fix>
</trkpt>
<trkpt lat="-27.2731575" lon="151.2909729">
  <ele>372.78</ele>
  <time>2026-09-01T19:55:41Z</time>
  <course>289.64</course>
  <speed>25.265161784560178</speed>
  <fix>3d</fix>
</trkpt>
<trkpt lat="-27.2731719" lon="151.2910179">
  <ele>372.92</ele>
  <time>2026-09-01T19:55:41Z</time>
  <course>290.31</course>
  <speed>25.37</speed>
  <fix>3d</fix>
</trkpt>
<trkpt lat="-27.2731497" lon="151.290949">
  <ele>372.78</ele>
  <time>2026-09-01T19:55:41Z</time>
  <course>289.43</course>
  <speed>25.118120948828956</speed>
  <fix>3d</fix>
</trkpt>
<trkpt lat="-27.2731719" lon="151.2910179">
  <ele>372.92</ele>
  <time>2026-09-01T19:55:41Z</time>
  <course>290.31</course>
  <speed>25.37</speed>
  <fix>3d</fix>
</trkpt>
<trkpt lat="-27.273142" lon="151.2909252">
  <ele>372.79</ele>
  <time>2026-09-01T19:55:41Z</time>
  <course>289.23</course>
  <speed>24.970402479735885</speed>
  <fix>3d</fix>
</trkpt>
<trkpt lat="-27.2731562" lon="151.2909698">
  <ele>372.93</ele>
  <time>2026-09-01T19:55:41Z</time>
  <course>290.17</course>
  <speed>25.24</speed>
  <fix>3d</fix>
</trkpt>
<trkpt lat="-27.2731345" lon="151.2909016">
  <ele>372.79</ele>
  <time>2026-09-01T19:55:41Z</time>
  <course>289.03</course>
  <speed>24.831755878310336</speed>
  <fix>3d</fix>
</trkpt>
<trkpt lat="-27.2731562" lon="151.2909698">
  <ele>372.93</ele>
  <time>2026-09-01T19:55:41Z</time>
  <course>290.17</course>
  <speed>25.24</speed>
  <fix>3d</fix>
</trkpt>
<trkpt lat="-27.2731271" lon="151.2908782">
  <ele>372.79</ele>
  <time>2026-09-01T19:55:41Z</time>
  <course>288.84</course>
  <speed>24.70269823318902</speed>
  <fix>3d</fix>
</trkpt>
<trkpt lat="-27.2731407" lon="151.2909221">
  <ele>372.94</ele>
  <time>2026-09-01T19:55:41Z</time>
  <course>289.85</course>
  <speed>24.98</speed>
  <fix>3d</fix>
</trkpt>
<trkpt lat="-27.2731199" lon="151.2908546">
  <ele>372.79</ele>
  <time>2026-09-01T19:55:41Z</time>
  <course>288.66</course>
  <speed>24.583905304080552</speed>
  <fix>3d</fix>
</trkpt>
<trkpt lat="-27.2731407" lon="151.2909221">
  <ele>372.94</ele>
  <time>2026-09-01T19:55:41Z</time>
  <course>289.85</course>
  <speed>24.98</speed>
  <fix>3d</fix>
</trkpt>
<trkpt lat="-27.2731129" lon="151.2908311">
  <ele>372.78</ele>
  <time>2026-09-01T19:55:41Z</time>
  <course>288.46</course>
  <speed>24.47297489068299</speed>
  <fix>3d</fix>
</trkpt>
<trkpt lat="-27.2731258" lon="151.2908748">
  <ele>372.93</ele>
  <time>2026-09-01T19:55:41Z</time>
  <course>289.22</course>
  <speed>24.71</speed>
  <fix>3d</fix>
</trkpt>
<trkpt lat="-27.2731061" lon="151.2908077">
  <ele>372.76</ele>
  <time>2026-09-01T19:55:41Z</time>
  <course>288.2</course>
  <speed>24.379772353326025</speed>
  <fix>3d</fix>
</trkpt>
<trkpt lat="-27.2731258" lon="151.2908748">
  <ele>372.93</ele>
  <time>2026-09-01T19:55:41Z</time>
  <course>289.22</course>
  <speed>24.71</speed>
  <fix>3d</fix>
</trkpt>
<trkpt lat="-27.2730993" lon="151.2907838">
  <ele>372.75</ele>
  <time>2026-09-01T19:55:41Z</time>
  <course>287.85</course>
  <speed>24.285641848631467</speed>
  <fix>3d</fix>
</trkpt>
<trkpt lat="-27.2731116" lon="151.2908278">
  <ele>372.92</ele>
  <time>2026-09-01T19:55:41Z</time>
  <course>288.31</course>
  <speed>24.48</speed>
  <fix>3d</fix>
</trkpt>
<trkpt lat="-27.273093" lon="151.2907604">
  <ele>372.74</ele>
  <time>2026-09-01T19:55:41Z</time>
  <course>287.38</course>
  <speed>24.20332621769165</speed>
  <fix>3d</fix>
</trkpt>
<trkpt lat="-27.2731116" lon="151.2908278">
  <ele>372.92</ele>
  <time>2026-09-01T19:55:41Z</time>
  <course>288.31</course>
  <speed>24.48</speed>
  <fix>3d</fix>
</trkpt>
<trkpt lat="-27.2730868" lon="151.290737">
  <ele>372.72</ele>
  <time>2026-09-01T19:55:41Z</time>
  <course>286.87</course>
  <speed>24.126095830034334</speed>
  <fix>3d</fix>
</trkpt>
<trkpt lat="-27.2730982" lon="151.2907808">
  <ele>372.9</ele>
  <time>2026-09-01T19:55:41Z</time>
  <course>287.26</course>
  <speed>24.29</speed>
  <fix>3d</fix>
</trkpt>
<trkpt lat="-27.2730809" lon="151.2907135">
  <ele>372.71</ele>
  <time>2026-09-01T19:55:41Z</time>
  <course>286.36</course>
  <speed>24.05101661053021</speed>
  <fix>3d</fix>
</trkpt>
<trkpt lat="-27.2730982" lon="151.2907808">
  <ele>372.9</ele>
  <time>2026-09-01T19:55:41Z</time>
  <course>287.26</course>
  <speed>24.29</speed>
  <fix>3d</fix>
</trkpt>
<trkpt lat="-27.2730752" lon="151.2906901">
  <ele>372.69</ele>
  <time>2026-09-01T19:55:41Z</time>
  <course>285.8</course>
  <speed>23.98776771606729</speed>
  <fix>3d</fix>
</trkpt>
<trkpt lat="-27.2730857" lon="151.2907339">
  <ele>372.87</ele>
  <time>2026-09-01T19:55:41Z</time>
  <course>286.16</course>
  <speed>24.13</speed>
  <fix>3d</fix>
</trkpt>
<trkpt lat="-27.2730696" lon="151.2906667">
  <ele>372.67</ele>
  <time>2026-09-01T19:55:41Z</time>
  <course>285.23</course>
  <speed>23.919573574794345</speed>
  <fix>3d</fix>
</trkpt>
<trkpt lat="-27.2730857" lon="151.2907339">
  <ele>372.87</ele>
  <time>2026-09-01T19:55:41Z</time>
  <course>286.16</course>
  <speed>24.13</speed>
  <fix>3d</fix>
</trkpt>
<trkpt lat="-27.2730643" lon="151.2906433">
  <ele>372.66</ele>
  <time>2026-09-01T19:55:41Z</time>
  <course>284.71</course>
  <speed>23.865523250077718</speed>
  <fix>3d</fix>
</trkpt>
<trkpt lat="-27.2730741" lon="151.2906871">
  <ele>372.84</ele>
  <time>2026-09-01T19:55:41Z</time>
  <course>285.07</course>
  <speed>23.99</speed>
  <fix>3d</fix>
</trkpt>
<trkpt lat="-27.2730592" lon="151.2906199">
  <ele>372.64</ele>
  <time>2026-09-01T19:55:41Z</time>
  <course>284.17</course>
  <speed>23.81338279203524</speed>
  <fix>3d</fix>
</trkpt>
<trkpt lat="-27.2730741" lon="151.2906871">
  <ele>372.84</ele>
  <time>2026-09-01T19:55:41Z</time>
  <course>285.07</course>
  <speed>23.99</speed>
  <fix>3d</fix>
</trkpt>
<trkpt lat="-27.2730543" lon="151.2905964">
  <ele>372.62</ele>
  <time>2026-09-01T19:55:41Z</time>
  <course>283.64</course>
  <speed>23.76316477239511</speed>
  <fix>3d</fix>
</trkpt>
<trkpt lat="-27.2730632" lon="151.2906404">
  <ele>372.81</ele>
  <time>2026-09-01T19:55:41Z</time>
  <course>284.01</course>
  <speed>23.87</speed>
  <fix>3d</fix>
</trkpt>
<trkpt lat="-27.2730495" lon="151.290573">
  <ele>372.61</ele>
  <time>2026-09-01T19:55:41Z</time>
  <course>283.08</course>
  <speed>23.717033962955824</speed>
  <fix>3d</fix>
</trkpt>
<trkpt lat="-27.2730632" lon="151.2906404">
  <ele>372.81</ele>
  <time>2026-09-01T19:55:41Z</time>
  <course>284.01</course>
  <speed>23.87</speed>
  <fix>3d</fix>
</trkpt>
<trkpt lat="-27.273045" lon="151.2905496">
  <ele>372.59</ele>
  <time>2026-09-01T19:55:41Z</time>
  <course>282.55</course>
  <speed>23.672676232314757</speed>
  <fix>3d</fix>
</trkpt>
<trkpt lat="-27.2730533" lon="151.2905936">
  <ele>372.77</ele>
  <time>2026-09-01T19:55:41Z</time>
  <course>282.97</course>
  <speed>23.76</speed>
  <fix>3d</fix>
</trkpt>
<trkpt lat="-27.2730407" lon="151.2905261">
  <ele>372.57</ele>
  <time>2026-09-01T19:55:41Z</time>
  <course>282.04</course>
  <speed>23.639902707075592</speed>
  <fix>3d</fix>
</trkpt>
<trkpt lat="-27.2730533" lon="151.2905936">
  <ele>372.77</ele>
  <time>2026-09-01T19:55:41Z</time>
  <course>282.97</course>
  <speed>23.76</speed>
  <fix>3d</fix>
</trkpt>
<trkpt lat="-27.2730365" lon="151.2905027">
  <ele>372.54</ele>
  <time>2026-09-01T19:55:41Z</time>
  <course>281.61</course>
  <speed>23.601038112761056</speed>
  <fix>3d</fix>
</trkpt>
<trkpt lat="-27.273044" lon="151.2905467">
  <ele>372.72</ele>
  <time>2026-09-01T19:55:41Z</time>
  <course>281.95</course>
  <speed>23.67</speed>
  <fix>3d</fix>
</trkpt>
<trkpt lat="-27.2730325" lon="151.2904792">
  <ele>372.52</ele>
  <time>2026-09-01T19:55:41Z</time>
  <course>281.16</course>
  <speed>23.565629633005777</speed>
  <fix>3d</fix>
</trkpt>
<trkpt lat="-27.273044" lon="151.2905467">
  <ele>372.72</ele>
  <time>2026-09-01T19:55:41Z</time>
  <course>281.95</course>
  <speed>23.67</speed>
  <fix>3d</fix>
</trkpt>
<trkpt lat="-27.2730287" lon="151.2904558">
  <ele>372.5</ele>
  <time>2026-09-01T19:55:41Z</time>
  <course>280.69</course>
  <speed>23.53170202089088</speed>
  <fix>3d</fix>
</trkpt>
<trkpt lat="-27.2730356" lon="151.2904998">
  <ele>372.69</ele>
  <time>2026-09-01T19:55:41Z</time>
  <course>280.98</course>
  <speed>23.59</speed>
  <fix>3d</fix>
</trkpt>
<trkpt lat="-27.273025" lon="151.2904324">
  <ele>372.48</ele>
  <time>2026-09-01T19:55:41Z</time>
  <course>280.21</course>
  <speed>23.492747817145613</speed>
  <fix>3d</fix>
</trkpt>
<trkpt lat="-27.2730356" lon="151.2904998">
  <ele>372.69</ele>
  <time>2026-09-01T19:55:41Z</time>
  <course>280.98</course>
  <speed>23.59</speed>
  <fix>3d</fix>
</trkpt>
<trkpt lat="-27.2730215" lon="151.2904089">
  <ele>372.46</ele>
  <time>2026-09-01T19:55:41Z</time>
  <course>279.8</course>
  <speed>23.464835392561355</speed>
  <fix>3d</fix>
</trkpt>
<trkpt lat="-27.2730279" lon="151.2904529">
  <ele>372.65</ele>
  <time>2026-09-01T19:55:41Z</time>
  <course>280.07</course>
  <speed>23.52</speed>
  <fix>3d</fix>
</trkpt>
<trkpt lat="-27.2730182" lon="151.2903857">
  <ele>372.44</ele>
  <time>2026-09-01T19:55:41Z</time>
  <course>279.39</course>
  <speed>23.43287007602782</speed>
  <fix>3d</fix>
</trkpt>
<trkpt lat="-27.2730279" lon="151.2904529">
  <ele>372.65</ele>
  <time>2026-09-01T19:55:41Z</time>
  <course>280.07</course>
  <speed>23.52</speed>
  <fix>3d</fix>
</trkpt>
<trkpt lat="-27.273015" lon="151.2903623">
  <ele>372.42</ele>
  <time>2026-09-01T19:55:41Z</time>
  <course>278.95</course>
  <speed>23.41010252006599</speed>
  <fix>3d</fix>
</trkpt>
<trkpt lat="-27.2730208" lon="151.2904062">
  <ele>372.61</ele>
  <time>2026-09-01T19:55:41Z</time>
  <course>279.25</course>
  <speed>23.45</speed>
  <fix>3d</fix>
</trkpt>
<trkpt lat="-27.2730119" lon="151.2903389">
  <ele>372.41</ele>
  <time>2026-09-01T19:55:41Z</time>
  <course>278.55</course>
  <speed>23.37980324981372</speed>
  <fix>3d</fix>
</trkpt>
<trkpt lat="-27.2730208" lon="151.2904062">
  <ele>372.61</ele>
  <time>2026-09-01T19:55:41Z</time>
  <course>279.25</course>
  <speed>23.45</speed>
  <fix>3d</fix>
</trkpt>
<trkpt lat="-27.2730089" lon="151.2903155">
  <ele>372.4</ele>
  <time>2026-09-01T19:55:41Z</time>
  <course>278.16</course>
  <speed>23.350308349141773</speed>
  <fix>3d</fix>
</trkpt>
<trkpt lat="-27.2730143" lon="151.2903594">
  <ele>372.57</ele>
  <time>2026-09-01T19:55:41Z</time>
  <course>278.52</course>
  <speed>23.39</speed>
  <fix>3d</fix>
</trkpt>
<trkpt lat="-27.273006" lon="151.2902919">
  <ele>372.4</ele>
  <time>2026-09-01T19:55:41Z</time>
  <course>277.77</course>
  <speed>23.31039682201914</speed>
  <fix>3d</fix>
</trkpt>
<trkpt lat="-27.2730143" lon="151.2903594">
  <ele>372.57</ele>
  <time>2026-09-01T19:55:41Z</time>
  <course>278.52</course>
  <speed>23.39</speed>
  <fix>3d</fix>
</trkpt>
<trkpt lat="-27.2730033" lon="151.2902685">
  <ele>372.4</ele>
  <time>2026-09-01T19:55:41Z</time>
  <course>277.43</course>
  <speed>23.273901692668552</speed>
  <fix>3d</fix>
</trkpt>
<trkpt lat="-27.2730083" lon="151.2903127">
  <ele>372.55</ele>
  <time>2026-09-01T19:55:41Z</time>
  <course>277.83</course>
  <speed>23.32</speed>
  <fix>3d</fix>
</trkpt>
<trkpt lat="-27.2730008" lon="151.2902452">
  <ele>372.41</ele>
  <time>2026-09-01T19:55:41Z</time>
  <course>277.14</course>
  <speed>23.238093725604944</speed>
  <fix>3d</fix>
</trkpt>
<trkpt lat="-27.2730083" lon="151.2903127">
  <ele>372.55</ele>
  <time>2026-09-01T19:55:41Z</time>
  <course>277.83</course>
  <speed>23.32</speed>
  <fix>3d</fix>
</trkpt>
<trkpt lat="-27.2729983" lon="151.2902219">
  <ele>372.43</ele>
  <time>2026-09-01T19:55:41Z</time>
  <course>276.89</course>
  <speed>23.194191083113893</speed>
  <fix>3d</fix>
</trkpt>
<trkpt lat="-27.2730029" lon="151.290266">
  <ele>372.55</ele>
  <time>2026-09-01T19:55:41Z</time>
  <course>277.16</course>
  <speed>23.25</speed>
  <fix>3d</fix>
</trkpt>
<trkpt lat="-27.2729959" lon="151.2901986">
  <ele>372.46</ele>
  <time>2026-09-01T19:55:41Z</time>
  <course>276.68</course>
  <speed>23.1431393721768</speed>
  <fix>3d</fix>
</trkpt>
<trkpt lat="-27.2730029" lon="151.290266">
  <ele>372.55</ele>
  <time>2026-09-01T19:55:41Z</time>
  <course>277.16</course>
  <speed>23.25</speed>
  <fix>3d</fix>
</trkpt>
<trkpt lat="-27.2729936" lon="151.2901754">
  <ele>372.49</ele>
  <time>2026-09-01T19:55:41Z</time>
  <course>276.45</course>
  <speed>23.103491078189894</speed>
  <fix>3d</fix>
</trkpt>
<trkpt lat="-27.2729979" lon="151.2902194">
  <ele>372.58</ele>
  <time>2026-09-01T19:55:41Z</time>
  <course>276.57</course>
  <speed>23.16</speed>
  <fix>3d</fix>
</trkpt>
<trkpt lat="-27.2729915" lon="151.2901522">
  <ele>372.52</ele>
  <time>2026-09-01T19:55:41Z</time>
  <course>276.17</course>
  <speed>23.054218702875186</speed>
  <fix>3d</fix>
</trkpt>
<trkpt lat="-27.2729979" lon="151.2902194">
  <ele>372.58</ele>
  <time>2026-09-01T19:55:41Z</time>
  <course>276.57</course>
  <speed>23.16</speed>
  <fix>3d</fix>
</trkpt>
<trkpt lat="-27.2729893" lon="151.2901288">
  <ele>372.56</ele>
  <time>2026-09-01T19:55:41Z</time>
  <course>275.87</course>
  <speed>23.006264364298694</speed>
  <fix>3d</fix>
</trkpt>
<trkpt lat="-27.2729933" lon="151.290173">
  <ele>372.64</ele>
  <time>2026-09-01T19:55:41Z</time>
  <course>276.09</course>
  <speed>23.07</speed>
  <fix>3d</fix>
</trkpt>
<trkpt lat="-27.2729873" lon="151.2901057">
  <ele>372.61</ele>
  <time>2026-09-01T19:55:41Z</time>
  <course>275.65</course>
  <speed>22.958558317106935</speed>
  <fix>3d</fix>
</trkpt>
<trkpt lat="-27.2729933" lon="151.290173">
  <ele>372.64</ele>
  <time>2026-09-01T19:55:41Z</time>
  <course>276.09</course>
  <speed>23.07</speed>
  <fix>3d</fix>
</trkpt>
<trkpt lat="-27.2729853" lon="151.2900828">
  <ele>372.65</ele>
  <time>2026-09-01T19:55:41Z</time>
  <course>275.5</course>
  <speed>22.90303255029779</speed>
  <fix>3d</fix>
</trkpt>
<trkpt lat="-27.272989" lon="151.2901268">
  <ele>372.72</ele>
  <time>2026-09-01T19:55:41Z</time>
  <course>275.69</course>
  <speed>22.98</speed>
  <fix>3d</fix>
</trkpt>
<trkpt lat="-27.2729834" lon="151.2900599">
  <ele>372.7</ele>
  <time>2026-09-01T19:55:41Z</time>
  <course>275.34</course>
  <speed>22.847638827677578</speed>
  <fix>3d</fix>
</trkpt>
<trkpt lat="-27.272989" lon="151.2901268">
  <ele>372.72</ele>
  <time>2026-09-01T19:55:41Z</time>
  <course>275.69</course>
  <speed>22.98</speed>
  <fix>3d</fix>
</trkpt>
<trkpt lat="-27.2729815" lon="151.2900371">
  <ele>372.75</ele>
  <time>2026-09-01T19:55:41Z</time>
  <course>275.15</course>
  <speed>22.783320653495615</speed>
  <fix>3d</fix>
</trkpt>
<trkpt lat="-27.2729851" lon="151.2900806">
  <ele>372.8</ele>
  <time>2026-09-01T19:55:41Z</time>
  <course>275.37</course>
  <speed>22.87</speed>
  <fix>3d</fix>
</trkpt>
<trkpt lat="-27.2729797" lon="151.2900143">
  <ele>372.81</ele>
  <time>2026-09-01T19:55:41Z</time>
  <course>275.01</course>
  <speed>22.729936207565565</speed>
  <fix>3d</fix>
</trkpt>
<trkpt lat="-27.2729851" lon="151.2900806">
  <ele>372.8</ele>
  <time>2026-09-01T19:55:41Z</time>
  <course>275.37</course>
  <speed>22.87</speed>
  <fix>3d</fix>
</trkpt>
<trkpt lat="-27.2729779" lon="151.2899916">
  <ele>372.86</ele>
  <time>2026-09-01T19:55:41Z</time>
  <course>274.86</course>
  <speed>22.66664509802895</speed>
  <fix>3d</fix>
</trkpt>
<trkpt lat="-27.2729813" lon="151.2900345">
  <ele>372.9</ele>
  <time>2026-09-01T19:55:41Z</time>
  <course>275.13</course>
  <speed>22.77</speed>
  <fix>3d</fix>
</trkpt>
<trkpt lat="-27.2729762" lon="151.289969">
  <ele>372.91</ele>
  <time>2026-09-01T19:55:41Z</time>
  <course>274.75</course>
  <speed>22.615094516716045</speed>
  <fix>3d</fix>
</trkpt>
<trkpt lat="-27.2729813" lon="151.2900345">
  <ele>372.9</ele>
  <time>2026-09-01T19:55:41Z</time>
  <course>275.13</course>
  <speed>22.77</speed>
  <fix>3d</fix>
</trkpt>
<trkpt lat="-27.2729744" lon="151.2899464">
  <ele>372.97</ele>
  <time>2026-09-01T19:55:41Z</time>
  <course>274.71</course>
  <speed>22.55359173169542</speed>
  <fix>3d</fix>
</trkpt>
<trkpt lat="-27.2729777" lon="151.2899888">
  <ele>373.0</ele>
  <time>2026-09-01T19:55:41Z</time>
  <course>274.96</course>
  <speed>22.66</speed>
  <fix>3d</fix>
</trkpt>
<trkpt lat="-27.2729727" lon="151.2899238">
  <ele>373.02</ele>
  <time>2026-09-01T19:55:41Z</time>
  <course>274.66</course>
  <speed>22.502062127725093</speed>
  <fix>3d</fix>
</trkpt>
<trkpt lat="-27.2729777" lon="151.2899888">
  <ele>373.0</ele>
  <time>2026-09-01T19:55:41Z</time>
  <course>274.96</course>
  <speed>22.66</speed>
  <fix>3d</fix>
</trkpt>
<trkpt lat="-27.272971" lon="151.2899013">
  <ele>373.08</ele>
  <time>2026-09-01T19:55:41Z</time>
  <course>274.65</course>
  <speed>22.45139193903131</speed>
  <fix>3d</fix>
</trkpt>
<trkpt lat="-27.2729743" lon="151.2899433">
  <ele>373.11</ele>
  <time>2026-09-01T19:55:41Z</time>
  <course>274.86</course>
  <speed>22.55</speed>
  <fix>3d</fix>
</trkpt>
<trkpt lat="-27.2729693" lon="151.2898787">
  <ele>373.13</ele>
  <time>2026-09-01T19:55:41Z</time>
  <course>274.65</course>
  <speed>22.401573605441204</speed>
  <fix>3d</fix>
</trkpt>
<trkpt lat="-27.2729743" lon="151.2899433">
  <ele>373.11</ele>
  <time>2026-09-01T19:55:41Z</time>
  <course>274.86</course>
  <speed>22.55</speed>
  <fix>3d</fix>
</trkpt>
<trkpt lat="-27.2729676" lon="151.289856">
  <ele>373.18</ele>
  <time>2026-09-01T19:55:41Z</time>
  <course>274.61</course>
  <speed>22.36257588025136</speed>
  <fix>3d</fix>
</trkpt>
<trkpt lat="-27.2729709" lon="151.289898">
  <ele>373.21</ele>
  <time>2026-09-01T19:55:41Z</time>
  <course>274.82</course>
  <speed>22.45</speed>
  <fix>3d</fix>
</trkpt>
<trkpt lat="-27.2729659" lon="151.2898334">
  <ele>373.23</ele>
  <time>2026-09-01T19:55:41Z</time>
  <course>274.55</course>
  <speed>22.31276092284413</speed>
  <fix>3d</fix>
</trkpt>
<trkpt lat="-27.2729709" lon="151.289898">
  <ele>373.21</ele>
  <time>2026-09-01T19:55:41Z</time>
  <course>274.82</course>
  <speed>22.45</speed>
  <fix>3d</fix>
</trkpt>
<trkpt lat="-27.2729641" lon="151.2898106">
  <ele>373.29</ele>
  <time>2026-09-01T19:55:41Z</time>
  <course>274.52</course>
  <speed>22.273773815857968</speed>
  <fix>3d</fix>
</trkpt>
<trkpt lat="-27.2729675" lon="151.2898529">
  <ele>373.32</ele>
  <time>2026-09-01T19:55:41Z</time>
  <course>274.86</course>
  <speed>22.34</speed>
  <fix>3d</fix>
</trkpt>
<trkpt lat="-27.2729624" lon="151.2897881">
  <ele>373.34</ele>
  <time>2026-09-01T19:55:41Z</time>
  <course>274.55</course>
  <speed>22.225708087707805</speed>
  <fix>3d</fix>
</trkpt>
<trkpt lat="-27.2729675" lon="151.2898529">
  <ele>373.32</ele>
  <time>2026-09-01T19:55:41Z</time>
  <course>274.86</course>
  <speed>22.34</speed>
  <fix>3d</fix>
</trkpt>
<trkpt lat="-27.2729606" lon="151.2897656">
  <ele>373.39</ele>
  <time>2026-09-01T19:55:41Z</time>
  <course>274.63</course>
  <speed>22.17678290465053</speed>
  <fix>3d</fix>
</trkpt>
<trkpt lat="-27.272964" lon="151.289808">
  <ele>373.42</ele>
  <time>2026-09-01T19:55:41Z</time>
  <course>274.93</course>
  <speed>22.24</speed>
  <fix>3d</fix>
</trkpt>
<trkpt lat="-27.2729589" lon="151.2897432">
  <ele>373.44</ele>
  <time>2026-09-01T19:55:41Z</time>
  <course>274.7</course>
  <speed>22.129656572120588</speed>
  <fix>3d</fix>
</trkpt>
<trkpt lat="-27.272964" lon="151.289808">
  <ele>373.42</ele>
  <time>2026-09-01T19:55:41Z</time>
  <course>274.93</course>
  <speed>22.24</speed>
  <fix>3d</fix>
</trkpt>
<trkpt lat="-27.2729571" lon="151.2897209">
  <ele>373.5</ele>
  <time>2026-09-01T19:55:41Z</time>
  <course>274.77</course>
  <speed>22.08167113241206</speed>
  <fix>3d</fix>
</trkpt>
<trkpt lat="-27.2729606" lon="151.2897633">
  <ele>373.53</ele>
  <time>2026-09-01T19:55:41Z</time>
  <course>275.03</course>
  <speed>22.14</speed>
  <fix>3d</fix>
</trkpt>
<trkpt lat="-27.2729553" lon="151.2896986">
  <ele>373.55</ele>
  <time>2026-09-01T19:55:41Z</time>
  <course>274.81</course>
  <speed>22.03556443570257</speed>
  <fix>3d</fix>
</trkpt>
<trkpt lat="-27.2729606" lon="151.2897633">
  <ele>373.53</ele>
  <time>2026-09-01T19:55:41Z</time>
  <course>275.03</course>
  <speed>22.14</speed>
  <fix>3d</fix>
</trkpt>
<trkpt lat="-27.2729534" lon="151.2896764">
  <ele>373.6</ele>
  <time>2026-09-01T19:55:41Z</time>
  <course>274.83</course>
  <speed>21.98859931873788</speed>
  <fix>3d</fix>
</trkpt>
<trkpt lat="-27.2729571" lon="151.2897188">
  <ele>373.63</ele>
  <time>2026-09-01T19:55:41Z</time>
  <course>275.19</course>
  <speed>22.03</speed>
  <fix>3d</fix>
</trkpt>
<trkpt lat="-27.2729516" lon="151.2896544">
  <ele>373.66</ele>
  <time>2026-09-01T19:55:41Z</time>
  <course>274.89</course>
  <speed>21.930775180097942</speed>
  <fix>3d</fix>
</trkpt>
<trkpt lat="-27.2729571" lon="151.2897188">
  <ele>373.63</ele>
  <time>2026-09-01T19:55:41Z</time>
  <course>275.19</course>
  <speed>22.03</speed>
  <fix>3d</fix>
</trkpt>
<trkpt lat="-27.2729497" lon="151.2896325">
  <ele>373.71</ele>
  <time>2026-09-01T19:55:41Z</time>
  <course>274.99</course>
  <speed>21.864976560700907</speed>
  <fix>3d</fix>
</trkpt>
<trkpt lat="-27.2729534" lon="151.2896746">
  <ele>373.74</ele>
  <time>2026-09-01T19:55:41Z</time>
  <course>275.38</course>
  <speed>21.92</speed>
  <fix>3d</fix>
</trkpt>
<trkpt lat="-27.2729478" lon="151.2896106">
  <ele>373.76</ele>
  <time>2026-09-01T19:55:41Z</time>
  <course>275.12</course>
  <speed>21.808230097832332</speed>
  <fix>3d</fix>
</trkpt>
<trkpt lat="-27.2729534" lon="151.2896746">
  <ele>373.74</ele>
  <time>2026-09-01T19:55:41Z</time>
  <course>275.38</course>
  <speed>21.92</speed>
  <fix>3d</fix>
</trkpt>
<trkpt lat="-27.2729458" lon="151.2895888">
  <ele>373.82</ele>
  <time>2026-09-01T19:55:41Z</time>
  <course>275.25</course>
  <speed>21.752556171631877</speed>
  <fix>3d</fix>
</trkpt>
<trkpt lat="-27.2729497" lon="151.2896306">
  <ele>373.84</ele>
  <time>2026-09-01T19:55:41Z</time>
  <course>275.58</course>
  <speed>21.81</speed>
  <fix>3d</fix>
</trkpt>
<trkpt lat="-27.2729439" lon="151.2895671">
  <ele>373.87</ele>
  <time>2026-09-01T19:55:41Z</time>
  <course>275.35</course>
  <speed>21.696979052393445</speed>
  <fix>3d</fix>
</trkpt>
<trkpt lat="-27.2729497" lon="151.2896306">
  <ele>373.84</ele>
  <time>2026-09-01T19:55:41Z</time>
  <course>275.58</course>
  <speed>21.81</speed>
  <fix>3d</fix>
</trkpt>
<trkpt lat="-27.2729419" lon="151.2895455">
  <ele>373.92</ele>
  <time>2026-09-01T19:55:41Z</time>
  <course>275.45</course>
  <speed>21.63155565372033</speed>
  <fix>3d</fix>
</trkpt>
<trkpt lat="-27.2729458" lon="151.2895868">
  <ele>373.95</ele>
  <time>2026-09-01T19:55:41Z</time>
  <course>275.81</course>
  <speed>21.7</speed>
  <fix>3d</fix>
</trkpt>
<trkpt lat="-27.2729398" lon="151.2895239">
  <ele>373.97</ele>
  <time>2026-09-01T19:55:41Z</time>
  <course>275.56</course>
  <speed>21.577258862051963</speed>
  <fix>3d</fix>
</trkpt>
<trkpt lat="-27.2729458" lon="151.2895868">
  <ele>373.95</ele>
  <time>2026-09-01T19:55:41Z</time>
  <course>275.81</course>
  <speed>21.7</speed>
  <fix>3d</fix>
</trkpt>
<trkpt lat="-27.2729377" lon="151.2895022">
  <ele>374.02</ele>
  <time>2026-09-01T19:55:41Z</time>
  <course>275.7</course>
  <speed>21.52200037171266</speed>
  <fix>3d</fix>
</trkpt>
<trkpt lat="-27.2729417" lon="151.2895432">
  <ele>374.05</ele>
  <time>2026-09-01T19:55:41Z</time>
  <course>276.08</course>
  <speed>21.59</speed>
  <fix>3d</fix>
</trkpt>
<trkpt lat="-27.2729355" lon="151.2894807">
  <ele>374.07</ele>
  <time>2026-09-01T19:55:41Z</time>
  <course>275.82</course>
  <speed>21.46797149243496</speed>
  <fix>3d</fix>
</trkpt>
<trkpt lat="-27.2729417" lon="151.2895432">
  <ele>374.05</ele>
  <time>2026-09-01T19:55:41Z</time>
  <course>276.08</course>
  <speed>21.59</speed>
  <fix>3d</fix>
</trkpt>
<trkpt lat="-27.2729334" lon="151.2894595">
  <ele>374.11</ele>
  <time>2026-09-01T19:55:41Z</time>
  <course>275.95</course>
  <speed>21.4030021258701</speed>
  <fix>3d</fix>
</trkpt>
<trkpt lat="-27.2729375" lon="151.2894999">
  <ele>374.15</ele>
  <time>2026-09-01T19:55:41Z</time>
  <course>276.35</course>
  <speed>21.48</speed>
  <fix>3d</fix>
</trkpt>
<trkpt lat="-27.2729312" lon="151.2894381">
  <ele>374.16</ele>
  <time>2026-09-01T19:55:41Z</time>
  <course>276.03</course>
  <speed>21.34924823032418</speed>
  <fix>3d</fix>
</trkpt>
<trkpt lat="-27.2729375" lon="151.2894999">
  <ele>374.15</ele>
  <time>2026-09-01T19:55:41Z</time>
  <course>276.35</course>
  <speed>21.48</speed>
  <fix>3d</fix>
</trkpt>
<trkpt lat="-27.2729289" lon="151.2894168">
  <ele>374.21</ele>
  <time>2026-09-01T19:55:41Z</time>
  <course>276.15</course>
  <speed>21.29444058903638</speed>
  <fix>3d</fix>
</trkpt>
<trkpt lat="-27.2729332" lon="151.2894569">
  <ele>374.24</ele>
  <time>2026-09-01T19:55:41Z</time>
  <course>276.64</course>
  <speed>21.37</speed>
  <fix>3d</fix>
</trkpt>
<trkpt lat="-27.2729266" lon="151.2893955">
  <ele>374.26</ele>
  <time>2026-09-01T19:55:41Z</time>
  <course>276.28</course>
  <speed>21.23973634487961</speed>
  <fix>3d</fix>
</trkpt>
<trkpt lat="-27.2729332" lon="151.2894569">
  <ele>374.24</ele>
  <time>2026-09-01T19:55:41Z</time>
  <course>276.64</course>
  <speed>21.37</speed>
  <fix>3d</fix>
</trkpt>
<trkpt lat="-27.2729242" lon="151.2893743">
  <ele>374.3</ele>
  <time>2026-09-01T19:55:41Z</time>
  <course>276.42</course>
  <speed>21.185136298829892</speed>
  <fix>3d</fix>
</trkpt>
<trkpt lat="-27.2729287" lon="151.2894141">
  <ele>374.33</ele>
  <time>2026-09-01T19:55:41Z</time>
  <course>276.92</course>
  <speed>21.27</speed>
  <fix>3d</fix>
</trkpt>
<trkpt lat="-27.2729218" lon="151.2893529">
  <ele>374.35</ele>
  <time>2026-09-01T19:55:41Z</time>
  <course>276.6</course>
  <speed>21.130641258608318</speed>
  <fix>3d</fix>
</trkpt>
<trkpt lat="-27.2729287" lon="151.2894141">
  <ele>374.33</ele>
  <time>2026-09-01T19:55:41Z</time>
  <course>276.92</course>
  <speed>21.27</speed>
  <fix>3d</fix>
</trkpt>
<trkpt lat="-27.2729194" lon="151.2893318">
  <ele>374.39</ele>
  <time>2026-09-01T19:55:41Z</time>
  <course>276.79</course>
  <speed>21.077544923448745</speed>
  <fix>3d</fix>
</trkpt>
<trkpt lat="-27.272924" lon="151.2893715">
  <ele>374.42</ele>
  <time>2026-09-01T19:55:41Z</time>
  <course>277.19</course>
  <speed>21.16</speed>
  <fix>3d</fix>
</trkpt>
<trkpt lat="-27.272917" lon="151.2893107">
  <ele>374.44</ele>
  <time>2026-09-01T19:55:41Z</time>
  <course>276.95</course>
  <speed>21.003459238896816</speed>
  <fix>3d</fix>
</trkpt>
<trkpt lat="-27.272924" lon="151.2893715">
  <ele>374.42</ele>
  <time>2026-09-01T19:55:41Z</time>
  <course>277.19</course>
  <speed>21.16</speed>
  <fix>3d</fix>
</trkpt>
<trkpt lat="-27.2729145" lon="151.2892897">
  <ele>374.48</ele>
  <time>2026-09-01T19:55:41Z</time>
  <course>277.09</course>
  <speed>20.85878472011253</speed>
  <fix>3d</fix>
</trkpt>
<trkpt lat="-27.2729191" lon="151.2893293">
  <ele>374.51</ele>
  <time>2026-09-01T19:55:41Z</time>
  <course>277.47</course>
  <speed>21.04</speed>
  <fix>3d</fix>
</trkpt>
<trkpt lat="-27.2729119" lon="151.2892689">
  <ele>374.54</ele>
  <time>2026-09-01T19:55:41Z</time>
  <course>277.22</course>
  <speed>20.663332257891028</speed>
  <fix>3d</fix>
</trkpt>
<trkpt lat="-27.2729191" lon="151.2893293">
  <ele>374.51</ele>
  <time>2026-09-01T19:55:41Z</time>
  <course>277.47</course>
  <speed>21.04</speed>
  <fix>3d</fix>
</trkpt>
<trkpt lat="-27.2729094" lon="151.2892484">
  <ele>374.6</ele>
  <time>2026-09-01T19:55:41Z</time>
  <course>277.35</course>
  <speed>20.40718010897145</speed>
  <fix>3d</fix>
</trkpt>
<trkpt lat="-27.2729142" lon="151.2892873">
  <ele>374.6</ele>
  <time>2026-09-01T19:55:41Z</time>
  <course>277.75</course>
  <speed>20.81</speed>
  <fix>3d</fix>
</trkpt>
<trkpt lat="-27.2729069" lon="151.2892281">
  <ele>374.67</ele>
  <time>2026-09-01T19:55:41Z</time>
  <course>277.46</course>
  <speed>20.110121829566324</speed>
  <fix>3d</fix>
</trkpt>
<trkpt lat="-27.2729142" lon="151.2892873">
  <ele>374.6</ele>
  <time>2026-09-01T19:55:41Z</time>
  <course>277.75</course>
  <speed>20.81</speed>
  <fix>3d</fix>
</trkpt>
<trkpt lat="-27.2729043" lon="151.2892081">
  <ele>374.77</ele>
  <time>2026-09-01T19:55:41Z</time>
  <course>277.57</course>
  <speed>19.801828198426527</speed>
  <fix>3d</fix>
</trkpt>
<trkpt lat="-27.2729091" lon="151.2892461">
  <ele>374.72</ele>
  <time>2026-09-01T19:55:41Z</time>
  <course>278.01</course>
  <speed>20.37</speed>
  <fix>3d</fix>
</trkpt>
<trkpt lat="-27.2729018" lon="151.2891885">
  <ele>374.88</ele>
  <time>2026-09-01T19:55:41Z</time>
  <course>277.68</course>
  <speed>19.485143058237988</speed>
  <fix>3d</fix>
</trkpt>
<trkpt lat="-27.2729091" lon="151.2892461">
  <ele>374.72</ele>
  <time>2026-09-01T19:55:41Z</time>
  <course>278.01</course>
  <speed>20.37</speed>
  <fix>3d</fix>
</trkpt>
<trkpt lat="-27.2728992" lon="151.2891691">
  <ele>375.01</ele>
  <time>2026-09-01T19:55:41Z</time>
  <course>277.8</course>
  <speed>19.1572075209306</speed>
  <fix>3d</fix>
</trkpt>
<trkpt lat="-27.272904" lon="151.2892059">
  <ele>374.89</ele>
  <time>2026-09-01T19:55:41Z</time>
  <course>278.24</course>
  <speed>19.78</speed>
  <fix>3d</fix>
</trkpt>
<trkpt lat="-27.2728967" lon="151.2891501">
  <ele>375.17</ele>
  <time>2026-09-01T19:55:41Z</time>
  <course>277.92</course>
  <speed>18.819460672399728</speed>
  <fix>3d</fix>
</trkpt>
<trkpt lat="-27.272904" lon="151.2892059">
  <ele>374.89</ele>
  <time>2026-09-01T19:55:41Z</time>
  <course>278.24</course>
  <speed>19.78</speed>
  <fix>3d</fix>
</trkpt>
<trkpt lat="-27.2728942" lon="151.2891315">
  <ele>375.35</ele>
  <time>2026-09-01T19:55:41Z</time>
  <course>278.06</course>
  <speed>18.471916522115404</speed>
  <fix>3d</fix>
</trkpt>
<trkpt lat="-27.2728989" lon="151.289167">
  <ele>375.13</ele>
  <time>2026-09-01T19:55:41Z</time>
  <course>278.48</course>
  <speed>19.14</speed>
  <fix>3d</fix>
</trkpt>
<trkpt lat="-27.2728917" lon="151.2891132">
  <ele>375.56</ele>
  <time>2026-09-01T19:55:41Z</time>
  <course>278.2</course>
  <speed>18.10470933210473</speed>
  <fix>3d</fix>
</trkpt>
<trkpt lat="-27.2728989" lon="151.289167">
  <ele>375.13</ele>
  <time>2026-09-01T19:55:41Z</time>
  <course>278.48</course>
  <speed>19.14</speed>
  <fix>3d</fix>
</trkpt>
<trkpt lat="-27.2728892" lon="151.2890953">
  <ele>375.78</ele>
  <time>2026-09-01T19:55:41Z</time>
  <course>278.35</course>
  <speed>17.736064952519765</speed>
  <fix>3d</fix>
</trkpt>
<trkpt lat="-27.2728938" lon="151.2891293">
  <ele>375.46</ele>
  <time>2026-09-01T19:55:41Z</time>
  <course>278.73</course>
  <speed>18.45</speed>
  <fix>3d</fix>
</trkpt>
<trkpt lat="-27.2728867" lon="151.2890778">
  <ele>376.03</ele>
  <time>2026-09-01T19:55:41Z</time>
  <course>278.49</course>
  <speed>17.347752015751205</speed>
  <fix>3d</fix>
</trkpt>
<trkpt lat="-27.2728938" lon="151.2891293">
  <ele>375.46</ele>
  <time>2026-09-01T19:55:41Z</time>
  <course>278.73</course>
  <speed>18.45</speed>
  <fix>3d</fix>
</trkpt>
<trkpt lat="-27.2728842" lon="151.2890607">
  <ele>376.31</ele>
  <time>2026-09-01T19:55:41Z</time>
  <course>278.63</course>
  <speed>16.949669613299253</speed>
  <fix>3d</fix>
</trkpt>
<trkpt lat="-27.2728887" lon="151.2890931">
  <ele>375.89</ele>
  <time>2026-09-01T19:55:41Z</time>
  <course>278.99</course>
  <speed>17.71</speed>
  <fix>3d</fix>
</trkpt>
<trkpt lat="-27.2728818" lon="151.2890439">
  <ele>376.6</ele>
  <time>2026-09-01T19:55:41Z</time>
  <course>278.77</course>
  <speed>16.54020858393267</speed>
  <fix>3d</fix>
</trkpt>
<trkpt lat="-27.2728887" lon="151.2890931">
  <ele>375.89</ele>
  <time>2026-09-01T19:55:41Z</time>
  <course>278.99</course>
  <speed>17.71</speed>
  <fix>3d</fix>
</trkpt>
<trkpt lat="-27.2728794" lon="151.2890276">
  <ele>376.91</ele>
  <time>2026-09-01T19:55:41Z</time>
  <course>278.9</course>
  <speed>16.130830728762856</speed>
  <fix>3d</fix>
</trkpt>
<trkpt lat="-27.2728838" lon="151.2890585">
  <ele>376.4</ele>
  <time>2026-09-01T19:55:41Z</time>
  <course>279.26</course>
  <speed>16.92</speed>
  <fix>3d</fix>
</trkpt>
<trkpt lat="-27.272877" lon="151.2890117">
  <ele>377.23</ele>
  <time>2026-09-01T19:55:41Z</time>
  <course>279.01</course>
  <speed>15.70015286549784</speed>
  <fix>3d</fix>
</trkpt>
<trkpt lat="-27.2728838" lon="151.2890585">
  <ele>376.4</ele>
  <time>2026-09-01T19:55:41Z</time>
  <course>279.26</course>
  <speed>16.92</speed>
  <fix>3d</fix>
</trkpt>
<trkpt lat="-27.2728746" lon="151.2889963">
  <ele>377.57</ele>
  <time>2026-09-01T19:55:41Z</time>
  <course>279.12</course>
  <speed>15.269541577925645</speed>
  <fix>3d</fix>
</trkpt>
<trkpt lat="-27.272879" lon="151.2890256">
  <ele>376.99</ele>
  <time>2026-09-01T19:55:41Z</time>
  <course>279.51</course>
  <speed>16.1</speed>
  <fix>3d</fix>
</trkpt>
<trkpt lat="-27.2728724" lon="151.2889814">
  <ele>377.92</ele>
  <time>2026-09-01T19:55:41Z</time>
  <course>279.22</course>
  <speed>14.83729422772225</speed>
  <fix>3d</fix>
</trkpt>
<trkpt lat="-27.272879" lon="151.2890256">
  <ele>376.99</ele>
  <time>2026-09-01T19:55:41Z</time>
  <course>279.51</course>
  <speed>16.1</speed>
  <fix>3d</fix>
</trkpt>
<trkpt lat="-27.2728701" lon="151.2889666">
  <ele>378.29</ele>
  <time>2026-09-01T19:55:41Z</time>
  <course>279.31</course>
  <speed>14.395235322842067</speed>
  <fix>3d</fix>
</trkpt>
<trkpt lat="-27.2728743" lon="151.2889944">
  <ele>377.65</ele>
  <time>2026-09-01T19:55:41Z</time>
  <course>279.74</course>
  <speed>15.24</speed>
  <fix>3d</fix>
</trkpt>
<trkpt lat="-27.2728678" lon="151.2889524">
  <ele>378.66</ele>
  <time>2026-09-01T19:55:41Z</time>
  <course>279.39</course>
  <speed>13.943378356768491</speed>
  <fix>3d</fix>
</trkpt>
<trkpt lat="-27.2728743" lon="151.2889944">
  <ele>377.65</ele>
  <time>2026-09-01T19:55:41Z</time>
  <course>279.74</course>
  <speed>15.24</speed>
  <fix>3d</fix>
</trkpt>
<trkpt lat="-27.2728657" lon="151.2889388">
  <ele>379.04</ele>
  <time>2026-09-01T19:55:41Z</time>
  <course>279.46</course>
  <speed>13.499666662551338</speed>
  <fix>3d</fix>
</trkpt>
<trkpt lat="-27.2728698" lon="151.288965">
  <ele>378.35</ele>
  <time>2026-09-01T19:55:41Z</time>
  <course>279.94</course>
  <speed>14.36</speed>
  <fix>3d</fix>
</trkpt>
<trkpt lat="-27.2728636" lon="151.2889255">
  <ele>379.41</ele>
  <time>2026-09-01T19:55:41Z</time>
  <course>279.53</course>
  <speed>13.04613735938726</speed>
  <fix>3d</fix>
</trkpt>
<trkpt lat="-27.2728698" lon="151.288965">
  <ele>378.35</ele>
  <time>2026-09-01T19:55:41Z</time>
  <course>279.94</course>
  <speed>14.36</speed>
  <fix>3d</fix>
</trkpt>
<trkpt lat="-27.2728615" lon="151.2889128">
  <ele>379.8</ele>
  <time>2026-09-01T19:55:41Z</time>
  <course>279.6</course>
  <speed>12.602479914683459</speed>
  <fix>3d</fix>
</trkpt>
<trkpt lat="-27.2728654" lon="151.2889372">
  <ele>379.09</ele>
  <time>2026-09-01T19:55:41Z</time>
  <course>280.12</course>
  <speed>13.47</speed>
  <fix>3d</fix>
</trkpt>
<trkpt lat="-27.2728595" lon="151.2889005">
  <ele>380.18</ele>
  <time>2026-09-01T19:55:41Z</time>
  <course>279.65</course>
  <speed>12.158852741932522</speed>
  <fix>3d</fix>
</trkpt>
<trkpt lat="-27.2728654" lon="151.2889372">
  <ele>379.09</ele>
  <time>2026-09-01T19:55:41Z</time>
  <course>280.12</course>
  <speed>13.47</speed>
  <fix>3d</fix>
</trkpt>
<trkpt lat="-27.2728576" lon="151.2888886">
  <ele>380.55</ele>
  <time>2026-09-01T19:55:41Z</time>
  <course>279.71</course>
  <speed>11.73311552828148</speed>
  <fix>3d</fix>
</trkpt>
<trkpt lat="-27.2728613" lon="151.2889114">
  <ele>379.84</ele>
  <time>2026-09-01T19:55:41Z</time>
  <course>280.27</course>
  <speed>12.57</speed>
  <fix>3d</fix>
</trkpt>
<trkpt lat="-27.2728557" lon="151.2888771">
  <ele>380.92</ele>
  <time>2026-09-01T19:55:41Z</time>
  <course>279.76</course>
  <speed>11.338699219928182</speed>
  <fix>3d</fix>
</trkpt>
<trkpt lat="-27.2728613" lon="151.2889114">
  <ele>379.84</ele>
  <time>2026-09-01T19:55:41Z</time>
  <course>280.27</course>
  <speed>12.57</speed>
  <fix>3d</fix>
</trkpt>
<trkpt lat="-27.2728539" lon="151.288866">
  <ele>381.27</ele>
  <time>2026-09-01T19:55:41Z</time>
  <course>279.8</course>
  <speed>10.965787705404477</speed>
  <fix>3d</fix>
</trkpt>
<trkpt lat="-27.2728574" lon="151.2888873">
  <ele>380.59</ele>
  <time>2026-09-01T19:55:41Z</time>
  <course>280.41</course>
  <speed>11.7</speed>
  <fix>3d</fix>
</trkpt>
<trkpt lat="-27.2728521" lon="151.2888553">
  <ele>381.6</ele>
  <time>2026-09-01T19:55:42Z</time>
  <course>279.85</course>
  <speed>10.622391444491207</speed>
  <fix>3d</fix>
</trkpt>
<trkpt lat="-27.2728574" lon="151.2888873">
  <ele>380.59</ele>
  <time>2026-09-01T19:55:42Z</time>
  <course>280.41</course>
  <speed>11.7</speed>
  <fix>3d</fix>
</trkpt>
<trkpt lat="-27.2728504" lon="151.2888449">
  <ele>381.9</ele>
  <time>2026-09-01T19:55:42Z</time>
  <course>279.89</course>
  <speed>10.296815041555327</speed>
  <fix>3d</fix>
</trkpt>
<trkpt lat="-27.2728537" lon="151.2888648">
  <ele>381.29</ele>
  <time>2026-09-01T19:55:42Z</time>
  <course>280.52</course>
  <speed>10.93</speed>
  <fix>3d</fix>
</trkpt>
<trkpt lat="-27.2728487" lon="151.2888348">
  <ele>382.18</ele>
  <time>2026-09-01T19:55:42Z</time>
  <course>279.94</course>
  <speed>9.994598541212149</speed>
  <fix>3d</fix>
</trkpt>
<trkpt lat="-27.2728537" lon="151.2888648">
  <ele>381.29</ele>
  <time>2026-09-01T19:55:42Z</time>
  <course>280.52</course>
  <speed>10.93</speed>
  <fix>3d</fix>
</trkpt>
<trkpt lat="-27.272847" lon="151.288825">
  <ele>382.44</ele>
  <time>2026-09-01T19:55:42Z</time>
  <course>279.98</course>
  <speed>9.710185374131639</speed>
  <fix>3d</fix>
</trkpt>
<trkpt lat="-27.2728502" lon="151.2888437">
  <ele>381.91</ele>
  <time>2026-09-01T19:55:42Z</time>
  <course>280.63</course>
  <speed>10.25</speed>
  <fix>3d</fix>
</trkpt>
<trkpt lat="-27.2728454" lon="151.2888155">
  <ele>382.66</ele>
  <time>2026-09-01T19:55:42Z</time>
  <course>280.03</course>
  <speed>9.437467880740044</speed>
  <fix>3d</fix>
</trkpt>
<trkpt lat="-27.2728502" lon="151.2888437">
  <ele>381.91</ele>
  <time>2026-09-01T19:55:42Z</time>
  <course>280.63</course>
  <speed>10.25</speed>
  <fix>3d</fix>
</trkpt>
<trkpt lat="-27.2728439" lon="151.2888063">
  <ele>382.86</ele>
  <time>2026-09-01T19:55:42Z</time>
  <course>280.08</course>
  <speed>9.184405261093394</speed>
  <fix>3d</fix>
</trkpt>
<trkpt lat="-27.2728469" lon="151.2888239">
  <ele>382.44</ele>
  <time>2026-09-01T19:55:42Z</time>
  <course>280.72</course>
  <speed>9.65</speed>
  <fix>3d</fix>
</trkpt>
<trkpt lat="-27.2728423" lon="151.2887973">
  <ele>383.04</ele>
  <time>2026-09-01T19:55:42Z</time>
  <course>280.12</course>
  <speed>8.941168827396114</speed>
  <fix>3d</fix>
</trkpt>
<trkpt lat="-27.2728469" lon="151.2888239">
  <ele>382.44</ele>
  <time>2026-09-01T19:55:42Z</time>
  <course>280.72</course>
  <speed>9.65</speed>
  <fix>3d</fix>
</trkpt>
<trkpt lat="-27.2728409" lon="151.2887885">
  <ele>383.19</ele>
  <time>2026-09-01T19:55:42Z</time>
  <course>280.16</course>
  <speed>8.707755164219996</speed>
  <fix>3d</fix>
</trkpt>
<trkpt lat="-27.2728437" lon="151.2888053">
  <ele>382.86</ele>
  <time>2026-09-01T19:55:42Z</time>
  <course>280.81</course>
  <speed>9.12</speed>
  <fix>3d</fix>
</trkpt>
<trkpt lat="-27.2728394" lon="151.28878">
  <ele>383.32</ele>
  <time>2026-09-01T19:55:42Z</time>
  <course>280.2</course>
  <speed>8.484161714630385</speed>
  <fix>3d</fix>
</trkpt>
<trkpt lat="-27.2728437" lon="151.2888053">
  <ele>382.86</ele>
  <time>2026-09-01T19:55:42Z</time>
  <course>280.81</course>
  <speed>9.12</speed>
  <fix>3d</fix>
</trkpt>
<trkpt lat="-27.272838" lon="151.2887717">
  <ele>383.43</ele>
  <time>2026-09-01T19:55:42Z</time>
  <course>280.23</course>
  <speed>8.282107219784105</speed>
  <fix>3d</fix>
</trkpt>
<trkpt lat="-27.2728407" lon="151.2887877">
  <ele>383.19</ele>
  <time>2026-09-01T19:55:42Z</time>
  <course>280.9</course>
  <speed>8.64</speed>
  <fix>3d</fix>
</trkpt>
<trkpt lat="-27.2728366" lon="151.2887636">
  <ele>383.52</ele>
  <time>2026-09-01T19:55:42Z</time>
  <course>280.25</course>
  <speed>8.078149540581679</speed>
  <fix>3d</fix>
</trkpt>
<trkpt lat="-27.2728407" lon="151.2887877">
  <ele>383.19</ele>
  <time>2026-09-01T19:55:42Z</time>
  <course>280.9</course>
  <speed>8.64</speed>
  <fix>3d</fix>
</trkpt>
<trkpt lat="-27.2728352" lon="151.2887558">
  <ele>383.59</ele>
  <time>2026-09-01T19:55:42Z</time>
  <course>280.27</course>
  <speed>7.895733024868559</speed>
  <fix>3d</fix>
</trkpt>
<trkpt lat="-27.2728379" lon="151.288771">
  <ele>383.42</ele>
  <time>2026-09-01T19:55:42Z</time>
  <course>280.97</course>
  <speed>8.2</speed>
  <fix>3d</fix>
</trkpt>
<trkpt lat="-27.2728339" lon="151.288748">
  <ele>383.64</ele>
  <time>2026-09-01T19:55:42Z</time>
  <course>280.28</course>
  <speed>7.713319648504138</speed>
  <fix>3d</fix>
</trkpt>
<trkpt lat="-27.2728379" lon="151.288771">
  <ele>383.42</ele>
  <time>2026-09-01T19:55:42Z</time>
  <course>280.97</course>
  <speed>8.2</speed>
  <fix>3d</fix>
</trkpt>
<trkpt lat="-27.2728326" lon="151.2887405">
  <ele>383.67</ele>
  <time>2026-09-01T19:55:42Z</time>
  <course>280.29</course>
  <speed>7.540722777028737</speed>
  <fix>3d</fix>
</trkpt>
<trkpt lat="-27.2728351" lon="151.2887551">
  <ele>383.57</ele>
  <time>2026-09-01T19:55:42Z</time>
  <course>281.04</course>
  <speed>7.82</speed>
  <fix>3d</fix>
</trkpt>
<trkpt lat="-27.2728313" lon="151.2887331">
  <ele>383.69</ele>
  <time>2026-09-01T19:55:42Z</time>
  <course>280.29</course>
  <speed>7.377940091922677</speed>
  <fix>3d</fix>
</trkpt>
<trkpt lat="-27.2728351" lon="151.2887551">
  <ele>383.57</ele>
  <time>2026-09-01T19:55:42Z</time>
  <course>281.04</course>
  <speed>7.82</speed>
  <fix>3d</fix>
</trkpt>
<trkpt lat="-27.27283" lon="151.2887259">
  <ele>383.7</ele>
  <time>2026-09-01T19:55:42Z</time>
  <course>280.29</course>
  <speed>7.224970588175429</speed>
  <fix>3d</fix>
</trkpt>
<trkpt lat="-27.2728325" lon="151.28874">
  <ele>383.66</ele>
  <time>2026-09-01T19:55:42Z</time>
  <course>281.1</course>
  <speed>7.46</speed>
  <fix>3d</fix>
</trkpt>
<trkpt lat="-27.2728288" lon="151.2887188">
  <ele>383.7</ele>
  <time>2026-09-01T19:55:42Z</time>
  <course>280.28</course>
  <speed>7.072001131221628</speed>
  <fix>3d</fix>
</trkpt>
<trkpt lat="-27.2728325" lon="151.28874">
  <ele>383.66</ele>
  <time>2026-09-01T19:55:42Z</time>
  <course>281.1</course>
  <speed>7.46</speed>
  <fix>3d</fix>
</trkpt>
<trkpt lat="-27.2728276" lon="151.2887119">
  <ele>383.68</ele>
  <time>2026-09-01T19:55:42Z</time>
  <course>280.28</course>
  <speed>6.9307719627758635</speed>
  <fix>3d</fix>
</trkpt>
<trkpt lat="-27.2728299" lon="151.2887255">
  <ele>383.69</ele>
  <time>2026-09-01T19:55:42Z</time>
  <course>281.15</course>
  <speed>7.14</speed>
  <fix>3d</fix>
</trkpt>
<trkpt lat="-27.2728264" lon="151.2887051">
  <ele>383.66</ele>
  <time>2026-09-01T19:55:42Z</time>
  <course>280.27</course>
  <speed>6.797425983414604</speed>
  <fix>3d</fix>
</trkpt>
<trkpt lat="-27.2728299" lon="151.2887255">
  <ele>383.69</ele>
  <time>2026-09-01T19:55:42Z</time>
  <course>281.15</course>
  <speed>7.14</speed>
  <fix>3d</fix>
</trkpt>
<trkpt lat="-27.2728252" lon="151.2886985">
  <ele>383.62</ele>
  <time>2026-09-01T19:55:42Z</time>
  <course>280.26</course>
  <speed>6.654269306242421</speed>
  <fix>3d</fix>
</trkpt>
<trkpt lat="-27.2728275" lon="151.2887116">
  <ele>383.66</ele>
  <time>2026-09-01T19:55:42Z</time>
  <course>281.2</course>
  <speed>6.85</speed>
  <fix>3d</fix>
</trkpt>
<trkpt lat="-27.2728241" lon="151.288692">
  <ele>383.57</ele>
  <time>2026-09-01T19:55:42Z</time>
  <course>280.25</course>
  <speed>6.501299870025994</speed>
  <fix>3d</fix>
</trkpt>
<trkpt lat="-27.2728275" lon="151.2887116">
  <ele>383.66</ele>
  <time>2026-09-01T19:55:42Z</time>
  <course>281.2</course>
  <speed>6.85</speed>
  <fix>3d</fix>
</trkpt>
<trkpt lat="-27.272823" lon="151.2886857">
  <ele>383.45</ele>
  <time>2026-09-01T19:55:42Z</time>
  <course>280.24</course>
  <speed>6.27771455228732</speed>
  <fix>3d</fix>
</trkpt>
<trkpt lat="-27.2728251" lon="151.2886983">
  <ele>383.61</ele>
  <time>2026-09-01T19:55:42Z</time>
  <course>281.24</course>
  <speed>6.57</speed>
  <fix>3d</fix>
</trkpt>
<trkpt lat="-27.2728219" lon="151.2886796">
  <ele>383.26</ele>
  <time>2026-09-01T19:55:42Z</time>
  <course>280.24</course>
  <speed>5.9521508717437595</speed>
  <fix>3d</fix>
</trkpt>
<trkpt lat="-27.2728251" lon="151.2886983">
  <ele>383.61</ele>
  <time>2026-09-01T19:55:42Z</time>
  <course>281.24</course>
  <speed>6.57</speed>
  <fix>3d</fix>
</trkpt>
<trkpt lat="-27.2728209" lon="151.288674">
  <ele>383.02</ele>
  <time>2026-09-01T19:55:42Z</time>
  <course>280.14</course>
  <speed>5.524608583420187</speed>
  <fix>3d</fix>
</trkpt>
<trkpt lat="-27.2728229" lon="151.2886856">
  <ele>383.41</ele>
  <time>2026-09-01T19:55:42Z</time>
  <course>281.26</course>
  <speed>6.16</speed>
  <fix>3d</fix>
</trkpt>
<trkpt lat="-27.27282" lon="151.2886688">
  <ele>382.75</ele>
  <time>2026-09-01T19:55:42Z</time>
  <course>279.93</course>
  <speed>5.026459986909276</speed>
  <fix>3d</fix>
</trkpt>
<trkpt lat="-27.2728229" lon="151.2886856">
  <ele>383.41</ele>
  <time>2026-09-01T19:55:42Z</time>
  <course>281.26</course>
  <speed>6.16</speed>
  <fix>3d</fix>
</trkpt>
<trkpt lat="-27.2728192" lon="151.2886642">
  <ele>382.46</ele>
  <time>2026-09-01T19:55:42Z</time>
  <course>279.61</course>
  <speed>4.487137171961651</speed>
  <fix>3d</fix>
</trkpt>
<trkpt lat="-27.2728208" lon="151.288674">
  <ele>383.01</ele>
  <time>2026-09-01T19:55:42Z</time>
  <course>281.31</course>
  <speed>5.43</speed>
  <fix>3d</fix>
</trkpt>
<trkpt lat="-27.2728184" lon="151.28866">
  <ele>382.18</ele>
  <time>2026-09-01T19:55:42Z</time>
  <course>279.21</course>
  <speed>3.9478221844454953</speed>
  <fix>3d</fix>
</trkpt>
<trkpt lat="-27.2728208" lon="151.288674">
  <ele>383.01</ele>
  <time>2026-09-01T19:55:42Z</time>
  <course>281.31</course>
  <speed>5.43</speed>
  <fix>3d</fix>
</trkpt>
<trkpt lat="-27.2728178" lon="151.2886564">
  <ele>381.9</ele>
  <time>2026-09-01T19:55:42Z</time>
  <course>278.78</course>
  <speed>3.4281190177705327</speed>
  <fix>3d</fix>
</trkpt>
<trkpt lat="-27.2728191" lon="151.2886643">
  <ele>382.47</ele>
  <time>2026-09-01T19:55:42Z</time>
  <course>281.42</course>
  <speed>4.43</speed>
  <fix>3d</fix>
</trkpt>
<trkpt lat="-27.2728172" lon="151.2886533">
  <ele>381.64</ele>
  <time>2026-09-01T19:55:42Z</time>
  <course>278.37</course>
  <speed>2.959408724728641</speed>
  <fix>3d</fix>
</trkpt>
<trkpt lat="-27.2728191" lon="151.2886643">
  <ele>382.47</ele>
  <time>2026-09-01T19:55:42Z</time>
  <course>281.42</course>
  <speed>4.43</speed>
  <fix>3d</fix>
</trkpt>
<trkpt lat="-27.2728167" lon="151.2886507">
  <ele>381.41</ele>
  <time>2026-09-01T19:55:42Z</time>
  <course>278.0</course>
  <speed>2.5299011838409817</speed>
  <fix>3d</fix>
</trkpt>
<trkpt lat="-27.2728177" lon="151.2886565">
  <ele>381.91</ele>
  <time>2026-09-01T19:55:42Z</time>
  <course>281.52</course>
  <speed>3.4</speed>
  <fix>3d</fix>
</trkpt>
<trkpt lat="-27.2728163" lon="151.2886484">
  <ele>381.2</ele>
  <time>2026-09-01T19:55:42Z</time>
  <course>277.69</course>
  <speed>2.171013588165675</speed>
  <fix>3d</fix>
</trkpt>
<trkpt lat="-27.2728177" lon="151.2886565">
  <ele>381.91</ele>
  <time>2026-09-01T19:55:42Z</time>
  <course>281.52</course>
  <speed>3.4</speed>
  <fix>3d</fix>
</trkpt>
<trkpt lat="-27.272816" lon="151.2886464">
  <ele>381.03</ele>
  <time>2026-09-01T19:55:42Z</time>
  <course>277.44</course>
  <speed>1.8711493793922493</speed>
  <fix>3d</fix>
</trkpt>
<trkpt lat="-27.2728166" lon="151.2886507">
  <ele>381.43</ele>
  <time>2026-09-01T19:55:42Z</time>
  <course>281.43</course>
  <speed>2.5</speed>
  <fix>3d</fix>
</trkpt>
<trkpt lat="-27.2728157" lon="151.2886447">
  <ele>380.89</ele>
  <time>2026-09-01T19:55:42Z</time>
  <course>277.25</course>
  <speed>1.6440194646049662</speed>
  <fix>3d</fix>
</trkpt>
<trkpt lat="-27.2728166" lon="151.2886507">
  <ele>381.43</ele>
  <time>2026-09-01T19:55:42Z</time>
  <course>281.43</course>
  <speed>2.5</speed>
  <fix>3d</fix>
</trkpt>
<trkpt lat="-27.2728154" lon="151.2886432">
  <ele>380.79</ele>
  <time>2026-09-01T19:55:42Z</time>
  <course>277.11</course>
  <speed>1.4582523787054145</speed>
  <fix>3d</fix>
</trkpt>
<trkpt lat="-27.2728159" lon="151.2886465">
  <ele>381.07</ele>
  <time>2026-09-01T19:55:42Z</time>
  <course>280.88</course>
  <speed>1.84</speed>
  <fix>3d</fix>
</trkpt>
<trkpt lat="-27.2728153" lon="151.2886419">
  <ele>380.72</ele>
  <time>2026-09-01T19:55:42Z</time>
  <course>277.03</course>
  <speed>1.3138112497615477</speed>
  <fix>3d</fix>
</trkpt>
<trkpt lat="-27.2728159" lon="151.2886465">
  <ele>381.07</ele>
  <time>2026-09-01T19:55:42Z</time>
  <course>280.88</course>
  <speed>1.84</speed>
  <fix>3d</fix>
</trkpt>
<trkpt lat="-27.2728151" lon="151.2886406">
  <ele>380.69</ele>
  <time>2026-09-01T19:55:42Z</time>
  <course>277.0</course>
  <speed>1.1994165248152953</speed>
  <fix>3d</fix>
</trkpt>
<trkpt lat="-27.2728154" lon="151.2886433">
  <ele>380.84</ele>
  <time>2026-09-01T19:55:42Z</time>
  <course>279.72</course>
  <speed>1.4</speed>
  <fix>3d</fix>
</trkpt>
<trkpt lat="-27.272815" lon="151.2886395">
  <ele>380.69</ele>
  <time>2026-09-01T19:55:42Z</time>
  <course>277.01</course>
  <speed>1.1065260954898444</speed>
  <fix>3d</fix>
</trkpt>
<trkpt lat="-27.2728154" lon="151.2886433">
  <ele>380.84</ele>
  <time>2026-09-01T19:55:42Z</time>
  <course>279.72</course>
  <speed>1.4</speed>
  <fix>3d</fix>
</trkpt>
<trkpt lat="-27.2728149" lon="151.2886385">
  <ele>380.71</ele>
  <time>2026-09-01T19:55:42Z</time>
  <course>277.05</course>
  <speed>1.0339245620450266</speed>
  <fix>3d</fix>
</trkpt>
<trkpt lat="-27.272815" lon="151.2886407">
  <ele>380.75</ele>
  <time>2026-09-01T19:55:42Z</time>
  <course>278.08</course>
  <speed>1.13</speed>
  <fix>3d</fix>
</trkpt>
<trkpt lat="-27.2728148" lon="151.2886375">
  <ele>380.76</ele>
  <time>2026-09-01T19:55:42Z</time>
  <course>277.09</course>
  <speed>0.9824968193332739</speed>
  <fix>3d</fix>
</trkpt>
<trkpt lat="-27.272815" lon="151.2886407">
  <ele>380.75</ele>
  <time>2026-09-01T19:55:42Z</time>
  <course>278.08</course>
  <speed>1.13</speed>
  <fix>3d</fix>
</trkpt>
<trkpt lat="-27.2728147" lon="151.2886365">
  <ele>380.83</ele>
  <time>2026-09-01T19:55:42Z</time>
  <course>277.14</course>
  <speed>0.9513148795220223</speed>
  <fix>3d</fix>
</trkpt>
<trkpt lat="-27.2728148" lon="151.2886386">
  <ele>380.78</ele>
  <time>2026-09-01T19:55:42Z</time>
  <course>276.36</course>
  <speed>0.96</speed>
  <fix>3d</fix>
</trkpt>
<trkpt lat="-27.2728147" lon="151.2886356">
  <ele>380.91</ele>
  <time>2026-09-01T19:55:42Z</time>
  <course>277.17</course>
  <speed>0.930859817588019</speed>
  <fix>3d</fix>
</trkpt>
<trkpt lat="-27.2728148" lon="151.2886386">
  <ele>380.78</ele>
  <time>2026-09-01T19:55:42Z</time>
  <course>276.36</course>
  <speed>0.96</speed>
  <fix>3d</fix>
</trkpt>
<trkpt lat="-27.2728146" lon="151.2886348">
  <ele>380.99</ele>
  <time>2026-09-01T19:55:42Z</time>
  <course>277.19</course>
  <speed>0.920869154657707</speed>
  <fix>3d</fix>
</trkpt>
<trkpt lat="-27.2728146" lon="151.2886368">
  <ele>380.9</ele>
  <time>2026-09-01T19:55:42Z</time>
  <course>275.0</course>
  <speed>0.88</speed>
  <fix>3d</fix>
</trkpt>
<trkpt lat="-27.2728146" lon="151.2886339">
  <ele>381.07</ele>
  <time>2026-09-01T19:55:42Z</time>
  <course>277.2</course>
  <speed>0.9204890004774636</speed>
  <fix>3d</fix>
</trkpt>
<trkpt lat="-27.2728146" lon="151.2886368">
  <ele>380.9</ele>
  <time>2026-09-01T19:55:42Z</time>
  <course>275.0</course>
  <speed>0.88</speed>
  <fix>3d</fix>
</trkpt>
<trkpt lat="-27.2728145" lon="151.288633">
  <ele>381.14</ele>
  <time>2026-09-01T19:55:42Z</time>
  <course>277.2</course>
  <speed>0.9204890004774636</speed>
  <fix>3d</fix>
</trkpt>
<trkpt lat="-27.2728145" lon="151.288635">
  <ele>381.06</ele>
  <time>2026-09-01T19:55:42Z</time>
  <course>274.27</course>
  <speed>0.84</speed>
  <fix>3d</fix>
</trkpt>
<trkpt lat="-27.2728145" lon="151.2886321">
  <ele>381.21</ele>
  <time>2026-09-01T19:55:42Z</time>
  <course>277.19</course>
  <speed>0.9404786015641186</speed>
  <fix>3d</fix>
</trkpt>
<trkpt lat="-27.2728145" lon="151.288635">
  <ele>381.06</ele>
  <time>2026-09-01T19:55:42Z</time>
  <course>274.27</course>
  <speed>0.84</speed>
  <fix>3d</fix>
</trkpt>
<trkpt lat="-27.2728145" lon="151.2886312">
  <ele>381.26</ele>
  <time>2026-09-01T19:55:42Z</time>
  <course>277.18</course>
  <speed>0.9604686356149272</speed>
  <fix>3d</fix>
</trkpt>
<trkpt lat="-27.2728144" lon="151.2886333">
  <ele>381.22</ele>
  <time>2026-09-01T19:55:42Z</time>
  <course>274.16</course>
  <speed>0.85</speed>
  <fix>3d</fix>
</trkpt>
<trkpt lat="-27.2728144" lon="151.2886303">
  <ele>381.3</ele>
  <time>2026-09-01T19:55:42Z</time>
  <course>277.17</course>
  <speed>0.9808159868191383</speed>
  <fix>3d</fix>
</trkpt>
<trkpt lat="-27.2728144" lon="151.2886333">
  <ele>381.22</ele>
  <time>2026-09-01T19:55:42Z</time>
  <course>274.16</course>
  <speed>0.85</speed>
  <fix>3d</fix>
</trkpt>
<trkpt lat="-27.2728143" lon="151.2886293">
  <ele>381.33</ele>
  <time>2026-09-01T19:55:42Z</time>
  <course>277.17</course>
  <speed>1.011236866416568</speed>
  <fix>3d</fix>
</trkpt>
<trkpt lat="-27.2728143" lon="151.2886316">
  <ele>381.34</ele>
  <time>2026-09-01T19:55:42Z</time>
  <course>274.49</course>
  <speed>0.88</speed>
  <fix>3d</fix>
</trkpt>
<trkpt lat="-27.2728143" lon="151.2886283">
  <ele>381.35</ele>
  <time>2026-09-01T19:55:42Z</time>
  <course>277.18</course>
  <speed>1.0511898020814319</speed>
  <fix>3d</fix>
</trkpt>
<trkpt lat="-27.2728143" lon="151.2886316">
  <ele>381.34</ele>
  <time>2026-09-01T19:55:42Z</time>
  <course>274.49</course>
  <speed>0.88</speed>
  <fix>3d</fix>
</trkpt>
<trkpt lat="-27.2728142" lon="151.2886273">
  <ele>381.35</ele>
  <time>2026-09-01T19:55:42Z</time>
  <course>277.18</course>
  <speed>1.0816653826391969</speed>
  <fix>3d</fix>
</trkpt>
<trkpt lat="-27.2728141" lon="151.2886297">
  <ele>381.42</ele>
  <time>2026-09-01T19:55:42Z</time>
  <course>275.11</course>
  <speed>0.94</speed>
  <fix>3d</fix>
</trkpt>
<trkpt lat="-27.2728141" lon="151.2886263">
  <ele>381.34</ele>
  <time>2026-09-01T19:55:42Z</time>
  <course>277.2</course>
  <speed>1.1221853679316978</speed>
  <fix>3d</fix>
</trkpt>
<trkpt lat="-27.2728141" lon="151.2886297">
  <ele>381.42</ele>
  <time>2026-09-01T19:55:42Z</time>
  <course>275.11</course>
  <speed>0.94</speed>
  <fix>3d</fix>
</trkpt>
<trkpt lat="-27.272814" lon="151.2886252">
  <ele>381.33</ele>
  <time>2026-09-01T19:55:42Z</time>
  <course>277.21</course>
  <speed>1.1734564329364767</speed>
  <fix>3d</fix>
</trkpt>
<trkpt lat="-27.2728139" lon="151.2886278">
  <ele>381.45</ele>
  <time>2026-09-01T19:55:42Z</time>
  <course>275.91</course>
  <speed>1.02</speed>
  <fix>3d</fix>
</trkpt>
<trkpt lat="-27.2728139" lon="151.288624">
  <ele>381.32</ele>
  <time>2026-09-01T19:55:42Z</time>
  <course>277.22</course>
  <speed>1.2240914998479484</speed>
  <fix>3d</fix>
</trkpt>
<trkpt lat="-27.2728139" lon="151.2886278">
  <ele>381.45</ele>
  <time>2026-09-01T19:55:42Z</time>
  <course>275.91</course>
  <speed>1.02</speed>
  <fix>3d</fix>
</trkpt>
<trkpt lat="-27.2728138" lon="151.2886229">
  <ele>381.29</ele>
  <time>2026-09-01T19:55:42Z</time>
  <course>277.24</course>
  <speed>1.2756566936288147</speed>
  <fix>3d</fix>
</trkpt>
<trkpt lat="-27.2728138" lon="151.2886256">
  <ele>381.43</ele>
  <time>2026-09-01T19:55:42Z</time>
  <course>276.81</course>
  <speed>1.11</speed>
  <fix>3d</fix>
</trkpt>
<trkpt lat="-27.2728136" lon="151.2886216">
  <ele>381.27</ele>
  <time>2026-09-01T19:55:42Z</time>
  <course>277.25</course>
  <speed>1.3363382805263044</speed>
  <fix>3d</fix>
</trkpt>
<trkpt lat="-27.2728138" lon="151.2886256">
  <ele>381.43</ele>
  <time>2026-09-01T19:55:42Z</time>
  <course>276.81</course>
  <speed>1.11</speed>
  <fix>3d</fix>
</trkpt>
<trkpt lat="-27.2728135" lon="151.2886203">
  <ele>381.25</ele>
  <time>2026-09-01T19:55:42Z</time>
  <course>277.26</course>
  <speed>1.388128236151113</speed>
  <fix>3d</fix>
</trkpt>
<trkpt lat="-27.2728135" lon="151.2886232">
  <ele>381.4</ele>
  <time>2026-09-01T19:55:42Z</time>
  <course>277.72</course>
  <speed>1.22</speed>
  <fix>3d</fix>
</trkpt>
<trkpt lat="-27.2728133" lon="151.2886189">
  <ele>381.23</ele>
  <time>2026-09-01T19:55:42Z</time>
  <course>277.28</course>
  <speed>1.4488616221019868</speed>
  <fix>3d</fix>
</trkpt>
<trkpt lat="-27.2728135" lon="151.2886232">
  <ele>381.4</ele>
  <time>2026-09-01T19:55:42Z</time>
  <course>277.72</course>
  <speed>1.22</speed>
  <fix>3d</fix>
</trkpt>
<trkpt lat="-27.2728131" lon="151.2886175">
  <ele>381.21</ele>
  <time>2026-09-01T19:55:42Z</time>
  <course>277.29</course>
  <speed>1.5008331019803633</speed>
  <fix>3d</fix>
</trkpt>
<trkpt lat="-27.2728132" lon="151.2886207">
  <ele>381.35</ele>
  <time>2026-09-01T19:55:42Z</time>
  <course>278.57</course>
  <speed>1.34</speed>
  <fix>3d</fix>
</trkpt>
<trkpt lat="-27.2728129" lon="151.288616">
  <ele>381.19</ele>
  <time>2026-09-01T19:55:42Z</time>
  <course>277.3</course>
  <speed>1.552932709424333</speed>
  <fix>3d</fix>
</trkpt>
<trkpt lat="-27.2728132" lon="151.2886207">
  <ele>381.35</ele>
  <time>2026-09-01T19:55:42Z</time>
  <course>278.57</course>
  <speed>1.34</speed>
  <fix>3d</fix>
</trkpt>
<trkpt lat="-27.2728127" lon="151.2886145">
  <ele>381.18</ele>
  <time>2026-09-01T19:55:42Z</time>
  <course>277.31</course>
  <speed>1.6051479682571324</speed>
  <fix>3d</fix>
</trkpt>
<trkpt lat="-27.2728127" lon="151.2886179">
  <ele>381.31</ele>
  <time>2026-09-01T19:55:42Z</time>
  <course>279.34</course>
  <speed>1.45</speed>
  <fix>3d</fix>
</trkpt>
<trkpt lat="-27.2728124" lon="151.2886128">
  <ele>381.18</ele>
  <time>2026-09-01T19:55:42Z</time>
  <course>277.33</course>
  <speed>1.6560495161679194</speed>
  <fix>3d</fix>
</trkpt>
<trkpt lat="-27.2728127" lon="151.2886179">
  <ele>381.31</ele>
  <time>2026-09-01T19:55:42Z</time>
  <course>279.34</course>
  <speed>1.45</speed>
  <fix>3d</fix>
</trkpt>
<trkpt lat="-27.2728122" lon="151.2886113">
  <ele>381.17</ele>
  <time>2026-09-01T19:55:42Z</time>
  <course>277.34</course>
  <speed>1.6886088949191285</speed>
  <fix>3d</fix>
</trkpt>
<trkpt lat="-27.2728123" lon="151.2886149">
  <ele>381.28</ele>
  <time>2026-09-01T19:55:42Z</time>
  <course>280.01</course>
  <speed>1.56</speed>
  <fix>3d</fix>
</trkpt>
<trkpt lat="-27.2728119" lon="151.2886096">
  <ele>381.17</ele>
  <time>2026-09-01T19:55:42Z</time>
  <course>277.35</course>
  <speed>1.7296531444194239</speed>
  <fix>3d</fix>
</trkpt>
<trkpt lat="-27.2728123" lon="151.2886149">
  <ele>381.28</ele>
  <time>2026-09-01T19:55:42Z</time>
  <course>280.01</course>
  <speed>1.56</speed>
  <fix>3d</fix>
</trkpt>
<trkpt lat="-27.2728116" lon="151.2886079">
  <ele>381.18</ele>
  <time>2026-09-01T19:55:42Z</time>
  <course>277.37</course>
  <speed>1.7608236708995024</speed>
  <fix>3d</fix>
</trkpt>
<trkpt lat="-27.2728118" lon="151.2886117">
  <ele>381.28</ele>
  <time>2026-09-01T19:55:42Z</time>
  <course>280.59</course>
  <speed>1.66</speed>
  <fix>3d</fix>
</trkpt>
<trkpt lat="-27.2728113" lon="151.2886062">
  <ele>381.19</ele>
  <time>2026-09-01T19:55:42Z</time>
  <course>277.38</course>
  <speed>1.793599732381782</speed>
  <fix>3d</fix>
</trkpt>
<trkpt lat="-27.2728118" lon="151.2886117">
  <ele>381.28</ele>
  <time>2026-09-01T19:55:42Z</time>
  <course>280.59</course>
  <speed>1.66</speed>
  <fix>3d</fix>
</trkpt>
<trkpt lat="-27.272811" lon="151.2886044">
  <ele>381.19</ele>
  <time>2026-09-01T19:55:42Z</time>
  <course>277.4</course>
  <speed>1.8149655644116225</speed>
  <fix>3d</fix>
</trkpt>
<trkpt lat="-27.2728112" lon="151.2886083">
  <ele>381.28</ele>
  <time>2026-09-01T19:55:42Z</time>
  <course>281.08</course>
  <speed>1.73</speed>
  <fix>3d</fix>
</trkpt>
<trkpt lat="-27.2728107" lon="151.2886027">
  <ele>381.2</ele>
  <time>2026-09-01T19:55:42Z</time>
  <course>277.41</course>
  <speed>1.8363550854886426</speed>
  <fix>3d</fix>
</trkpt>
<trkpt lat="-27.2728112" lon="151.2886083">
  <ele>381.28</ele>
  <time>2026-09-01T19:55:42Z</time>
  <course>281.08</course>
  <speed>1.73</speed>
  <fix>3d</fix>
</trkpt>
<trkpt lat="-27.2728104" lon="151.2886009">
  <ele>381.21</ele>
  <time>2026-09-01T19:55:42Z</time>
  <course>277.43</course>
  <speed>1.8479177470872452</speed>
  <fix>3d</fix>
</trkpt>
<trkpt lat="-27.2728106" lon="151.2886047">
  <ele>381.3</ele>
  <time>2026-09-01T19:55:42Z</time>
  <course>281.5</course>
  <speed>1.79</speed>
  <fix>3d</fix>
</trkpt>
<trkpt lat="-27.27281" lon="151.2885991">
  <ele>381.21</ele>
  <time>2026-09-01T19:55:42Z</time>
  <course>277.44</course>
  <speed>1.8479177470872452</speed>
  <fix>3d</fix>
</trkpt>
<trkpt lat="-27.2728106" lon="151.2886047">
  <ele>381.3</ele>
  <time>2026-09-01T19:55:42Z</time>
  <course>281.5</course>
  <speed>1.79</speed>
  <fix>3d</fix>
</trkpt>
<trkpt lat="-27.2728097" lon="151.2885973">
  <ele>381.22</ele>
  <time>2026-09-01T19:55:42Z</time>
  <course>277.45</course>
  <speed>1.84967564724197</speed>
  <fix>3d</fix>
</trkpt>
<trkpt lat="-27.2728099" lon="151.2886011">
  <ele>381.32</ele>
  <time>2026-09-01T19:55:42Z</time>
  <course>281.87</course>
  <speed>1.83</speed>
  <fix>3d</fix>
</trkpt>
<trkpt lat="-27.2728094" lon="151.2885955">
  <ele>381.23</ele>
  <time>2026-09-01T19:55:42Z</time>
  <course>277.46</course>
  <speed>1.8398369492974098</speed>
  <fix>3d</fix>
</trkpt>
<trkpt lat="-27.2728099" lon="151.2886011">
  <ele>381.32</ele>
  <time>2026-09-01T19:55:42Z</time>
  <course>281.87</course>
  <speed>1.83</speed>
  <fix>3d</fix>
</trkpt>
<trkpt lat="-27.272809" lon="151.2885937">
  <ele>381.23</ele>
  <time>2026-09-01T19:55:42Z</time>
  <course>277.47</course>
  <speed>1.831829686406463</speed>
  <fix>3d</fix>
</trkpt>
<trkpt lat="-27.2728092" lon="151.2885976">
  <ele>381.33</ele>
  <time>2026-09-01T19:55:42Z</time>
  <course>282.18</course>
  <speed>1.84</speed>
  <fix>3d</fix>
</trkpt>
<trkpt lat="-27.2728086" lon="151.2885919">
  <ele>381.24</ele>
  <time>2026-09-01T19:55:42Z</time>
  <course>277.47</course>
  <speed>1.8220043907740728</speed>
  <fix>3d</fix>
</trkpt>
<trkpt lat="-27.2728092" lon="151.2885976">
  <ele>381.33</ele>
  <time>2026-09-01T19:55:42Z</time>
  <course>282.18</course>
  <speed>1.84</speed>
  <fix>3d</fix>
</trkpt>
<trkpt lat="-27.2728083" lon="151.2885902">
  <ele>381.24</ele>
  <time>2026-09-01T19:55:42Z</time>
  <course>277.48</course>
  <speed>1.7925400971805345</speed>
  <fix>3d</fix>
</trkpt>
<trkpt lat="-27.2728085" lon="151.2885939">
  <ele>381.34</ele>
  <time>2026-09-01T19:55:42Z</time>
  <course>282.46</course>
  <speed>1.83</speed>
  <fix>3d</fix>
</trkpt>
<trkpt lat="-27.2728079" lon="151.2885885">
  <ele>381.25</ele>
  <time>2026-09-01T19:55:42Z</time>
  <course>277.48</course>
  <speed>1.7729072169744249</speed>
  <fix>3d</fix>
</trkpt>
<trkpt lat="-27.2728085" lon="151.2885939">
  <ele>381.34</ele>
  <time>2026-09-01T19:55:42Z</time>
  <course>282.46</course>
  <speed>1.83</speed>
  <fix>3d</fix>
</trkpt>
<trkpt lat="-27.2728076" lon="151.2885868">
  <ele>381.25</ele>
  <time>2026-09-01T19:55:42Z</time>
  <course>277.48</course>
  <speed>1.7434735443934903</speed>
  <fix>3d</fix>
</trkpt>
<trkpt lat="-27.2728078" lon="151.2885903">
  <ele>381.36</ele>
  <time>2026-09-01T19:55:42Z</time>
  <course>282.7</course>
  <speed>1.8</speed>
  <fix>3d</fix>
</trkpt>
<trkpt lat="-27.2728072" lon="151.2885851">
  <ele>381.24</ele>
  <time>2026-09-01T19:55:42Z</time>
  <course>277.48</course>
  <speed>1.702292571798397</speed>
  <fix>3d</fix>
</trkpt>
<trkpt lat="-27.2728078" lon="151.2885903">
  <ele>381.36</ele>
  <time>2026-09-01T19:55:42Z</time>
  <course>282.7</course>
  <speed>1.8</speed>
  <fix>3d</fix>
</trkpt>
<trkpt lat="-27.2728069" lon="151.2885835">
  <ele>381.22</ele>
  <time>2026-09-01T19:55:42Z</time>
  <course>277.49</course>
  <speed>1.6728717822953436</speed>
  <fix>3d</fix>
</trkpt>
<trkpt lat="-27.2728071" lon="151.2885868">
  <ele>381.36</ele>
  <time>2026-09-01T19:55:42Z</time>
  <course>282.93</course>
  <speed>1.74</speed>
  <fix>3d</fix>
</trkpt>
<trkpt lat="-27.2728065" lon="151.2885818">
  <ele>381.19</ele>
  <time>2026-09-01T19:55:42Z</time>
  <course>277.49</course>
  <speed>1.6336768346279504</speed>
  <fix>3d</fix>
</trkpt>
<trkpt lat="-27.2728071" lon="151.2885868">
  <ele>381.36</ele>
  <time>2026-09-01T19:55:42Z</time>
  <course>282.93</course>
  <speed>1.74</speed>
  <fix>3d</fix>
</trkpt>
<trkpt lat="-27.2728062" lon="151.2885803">
  <ele>381.15</ele>
  <time>2026-09-01T19:55:42Z</time>
  <course>277.49</course>
  <speed>1.6022796260328596</speed>
  <fix>3d</fix>
</trkpt>
<trkpt lat="-27.2728064" lon="151.2885834">
  <ele>381.34</ele>
  <time>2026-09-01T19:55:42Z</time>
  <course>283.12</course>
  <speed>1.68</speed>
  <fix>3d</fix>
</trkpt>
<trkpt lat="-27.2728059" lon="151.2885787">
  <ele>381.08</ele>
  <time>2026-09-01T19:55:42Z</time>
  <course>277.49</course>
  <speed>1.5610893632332519</speed>
  <fix>3d</fix>
</trkpt>
<trkpt lat="-27.2728064" lon="151.2885834">
  <ele>381.34</ele>
  <time>2026-09-01T19:55:42Z</time>
  <course>283.12</course>
  <speed>1.68</speed>
  <fix>3d</fix>
</trkpt>
<trkpt lat="-27.2728055" lon="151.2885772">
  <ele>380.99</ele>
  <time>2026-09-01T19:55:42Z</time>
  <course>277.5</course>
  <speed>1.5023315213360866</speed>
  <fix>3d</fix>
</trkpt>
<trkpt lat="-27.2728057" lon="151.2885802">
  <ele>381.26</ele>
  <time>2026-09-01T19:55:42Z</time>
  <course>283.24</course>
  <speed>1.61</speed>
  <fix>3d</fix>
</trkpt>
<trkpt lat="-27.2728052" lon="151.2885757">
  <ele>380.88</ele>
  <time>2026-09-01T19:55:42Z</time>
  <course>277.51</course>
  <speed>1.4297202523570827</speed>
  <fix>3d</fix>
</trkpt>
<trkpt lat="-27.2728057" lon="151.2885802">
  <ele>381.26</ele>
  <time>2026-09-01T19:55:42Z</time>
  <course>283.24</course>
  <speed>1.61</speed>
  <fix>3d</fix>
</trkpt>
<trkpt lat="-27.2728049" lon="151.2885744">
  <ele>380.75</ele>
  <time>2026-09-01T19:55:42Z</time>
  <course>277.53</course>
  <speed>1.359154148726332</speed>
  <fix>3d</fix>
</trkpt>
<trkpt lat="-27.2728051" lon="151.2885771">
  <ele>381.11</ele>
  <time>2026-09-01T19:55:42Z</time>
  <course>283.38</course>
  <speed>1.51</speed>
  <fix>3d</fix>
</trkpt>
<trkpt lat="-27.2728046" lon="151.2885731">
  <ele>380.61</ele>
  <time>2026-09-01T19:55:42Z</time>
  <course>277.54</course>
  <speed>1.2788275880665072</speed>
  <fix>3d</fix>
</trkpt>
<trkpt lat="-27.2728051" lon="151.2885771">
  <ele>381.11</ele>
  <time>2026-09-01T19:55:42Z</time>
  <course>283.38</course>
  <speed>1.51</speed>
  <fix>3d</fix>
</trkpt>
<trkpt lat="-27.2728043" lon="151.2885718">
  <ele>380.45</ele>
  <time>2026-09-01T19:55:42Z</time>
  <course>277.56</course>
  <speed>1.1866338946785566</speed>
  <fix>3d</fix>
</trkpt>
<trkpt lat="-27.2728045" lon="151.2885743">
  <ele>380.88</ele>
  <time>2026-09-01T19:55:42Z</time>
  <course>283.59</course>
  <speed>1.37</speed>
  <fix>3d</fix>
</trkpt>
<trkpt lat="-27.2728041" lon="151.2885707">
  <ele>380.29</ele>
  <time>2026-09-01T19:55:42Z</time>
  <course>277.58</course>
  <speed>1.094440496326776</speed>
  <fix>3d</fix>
</trkpt>
<trkpt lat="-27.2728045" lon="151.2885743">
  <ele>380.88</ele>
  <time>2026-09-01T19:55:42Z</time>
  <course>283.59</course>
  <speed>1.37</speed>
  <fix>3d</fix>
</trkpt>
<trkpt lat="-27.2728038" lon="151.2885697">
  <ele>380.12</ele>
  <time>2026-09-01T19:55:42Z</time>
  <course>277.6</course>
  <speed>1.0022474744293448</speed>
  <fix>3d</fix>
</trkpt>
<trkpt lat="-27.2728039" lon="151.2885718">
  <ele>380.59</ele>
  <time>2026-09-01T19:55:42Z</time>
  <course>283.84</course>
  <speed>1.2</speed>
  <fix>3d</fix>
</trkpt>
<trkpt lat="-27.2728036" lon="151.2885687">
  <ele>379.95</ele>
  <time>2026-09-01T19:55:42Z</time>
  <course>277.61</course>
  <speed>0.9002777349240623</speed>
  <fix>3d</fix>
</trkpt>
<trkpt lat="-27.2728039" lon="151.2885718">
  <ele>380.59</ele>
  <time>2026-09-01T19:55:42Z</time>
  <course>283.84</course>
  <speed>1.2</speed>
  <fix>3d</fix>
</trkpt>
<trkpt lat="-27.2728034" lon="151.2885679">
  <ele>379.78</ele>
  <time>2026-09-01T19:55:42Z</time>
  <course>277.61</course>
  <speed>0.808084154033477</speed>
  <fix>3d</fix>
</trkpt>
<trkpt lat="-27.2728034" lon="151.2885696">
  <ele>380.26</ele>
  <time>2026-09-01T19:55:42Z</time>
  <course>284.14</course>
  <speed>1.02</speed>
  <fix>3d</fix>
</trkpt>
<trkpt lat="-27.2728032" lon="151.2885671">
  <ele>379.61</ele>
  <time>2026-09-01T19:55:42Z</time>
  <course>277.62</course>
  <speed>0.7061161377563892</speed>
  <fix>3d</fix>
</trkpt>
<trkpt lat="-27.2728034" lon="151.2885696">
  <ele>380.26</ele>
  <time>2026-09-01T19:55:42Z</time>
  <course>284.14</course>
  <speed>1.02</speed>
  <fix>3d</fix>
</trkpt>
<trkpt lat="-27.272803" lon="151.2885665">
  <ele>379.44</ele>
  <time>2026-09-01T19:55:42Z</time>
  <course>277.61</course>
  <speed>0.6139218191268331</speed>
  <fix>3d</fix>
</trkpt>
<trkpt lat="-27.272803" lon="151.2885678">
  <ele>379.93</ele>
  <time>2026-09-01T19:55:42Z</time>
  <course>284.52</course>
  <speed>0.82</speed>
  <fix>3d</fix>
</trkpt>
<trkpt lat="-27.2728029" lon="151.2885659">
  <ele>379.27</ele>
  <time>2026-09-01T19:55:42Z</time>
  <course>277.6</course>
  <speed>0.5217278984298233</speed>
  <fix>3d</fix>
</trkpt>
<trkpt lat="-27.272803" lon="151.2885678">
  <ele>379.93</ele>
  <time>2026-09-01T19:55:42Z</time>
  <course>284.52</course>
  <speed>0.82</speed>
  <fix>3d</fix>
</trkpt>
<trkpt lat="-27.2728028" lon="151.2885655">
  <ele>379.11</ele>
  <time>2026-09-01T19:55:42Z</time>
  <course>277.59</course>
  <speed>0.4295346318982906</speed>
  <fix>3d</fix>
</trkpt>
<trkpt lat="-27.2728027" lon="151.2885663">
  <ele>379.59</ele>
  <time>2026-09-01T19:55:42Z</time>
  <course>285.03</course>
  <speed>0.63</speed>
  <fix>3d</fix>
</trkpt>
<trkpt lat="-27.2728027" lon="151.2885651">
  <ele>378.96</ele>
  <time>2026-09-01T19:55:42Z</time>
  <course>277.58</course>
  <speed>0.34713109915419565</speed>
  <fix>3d</fix>
</trkpt>
<trkpt lat="-27.2728027" lon="151.2885663">
  <ele>379.59</ele>
  <time>2026-09-01T19:55:42Z</time>
  <course>285.03</course>
  <speed>0.63</speed>
  <fix>3d</fix>
</trkpt>
<trkpt lat="-27.2728026" lon="151.2885647">
  <ele>378.81</ele>
  <time>2026-09-01T19:55:42Z</time>
  <course>277.57</course>
  <speed>0.26476404589747454</speed>
  <fix>3d</fix>
</trkpt>
<trkpt lat="-27.2728025" lon="151.2885652">
  <ele>379.27</ele>
  <time>2026-09-01T19:55:42Z</time>
  <course>285.75</course>
  <speed>0.44</speed>
  <fix>3d</fix>
</trkpt>
<trkpt lat="-27.2728025" lon="151.2885645">
  <ele>378.66</ele>
  <time>2026-09-01T19:55:42Z</time>
  <course>277.57</course>
  <speed>0.1824828759089466</speed>
  <fix>3d</fix>
</trkpt>
<trkpt lat="-27.2728025" lon="151.2885652">
  <ele>379.27</ele>
  <time>2026-09-01T19:55:42Z</time>
  <course>285.75</course>
  <speed>0.44</speed>
  <fix>3d</fix>
</trkpt>
<trkpt lat="-27.2728025" lon="151.2885643">
  <ele>378.52</ele>
  <time>2026-09-01T19:55:42Z</time>
  <course>277.59</course>
  <speed>0.12165525060596438</speed>
  <fix>3d</fix>
</trkpt>
<trkpt lat="-27.2728023" lon="151.2885645">
  <ele>378.97</ele>
  <time>2026-09-01T19:55:42Z</time>
  <course>286.78</course>
  <speed>0.28</speed>
  <fix>3d</fix>
</trkpt>
<trkpt lat="-27.2728024" lon="151.2885642">
  <ele>378.38</ele>
  <time>2026-09-01T19:55:42Z</time>
  <course>277.7</course>
  <speed>0.05</speed>
  <fix>3d</fix>
</trkpt>
<trkpt lat="-27.2728023" lon="151.2885645">
  <ele>378.97</ele>
  <time>2026-09-01T19:55:42Z</time>
  <course>286.78</course>
  <speed>0.28</speed>
  <fix>3d</fix>
</trkpt>
<trkpt lat="-27.2728024" lon="151.2885642">
  <ele>378.24</ele>
  <time>2026-09-01T19:55:42Z</time>
  <course>277.78</course>
  <speed>0.01</speed>
  <fix>3d</fix>
</trkpt>
<trkpt lat="-27.2728021" lon="151.2885642">
  <ele>378.68</ele>
  <time>2026-09-01T19:55:42Z</time>
  <course>286.84</course>
  <speed>0.13</speed>
  <fix>3d</fix>
</trkpt>
<trkpt lat="-27.2728024" lon="151.2885642">
  <ele>378.1</ele>
  <time>2026-09-01T19:55:42Z</time>
  <course>277.72</course>
  <speed>0.053851648071345036</speed>
  <fix>3d</fix>
</trkpt>
<trkpt lat="-27.2728021" lon="151.2885642">
  <ele>378.68</ele>
  <time>2026-09-01T19:55:42Z</time>
  <course>286.84</course>
  <speed>0.13</speed>
  <fix>3d</fix>
</trkpt>
<trkpt lat="-27.2728024" lon="151.2885643">
  <ele>377.96</ele>
  <time>2026-09-01T19:55:42Z</time>
  <course>277.56</course>
  <speed>0.09219544457292887</speed>
  <fix>3d</fix>
</trkpt>
<trkpt lat="-27.2728021" lon="151.288564">
  <ele>378.4</ele>
  <time>2026-09-01T19:55:42Z</time>
  <course>317.16</course>
  <speed>0.0</speed>
  <fix>3d</fix>
</trkpt>
<trkpt lat="-27.2728024" lon="151.2885643">
  <ele>377.82</ele>
  <time>2026-09-01T19:55:42Z</time>
  <course>277.33</course>
  <speed>0.14317821063276354</speed>
  <fix>3d</fix>
</trkpt>
<trkpt lat="-27.2728021" lon="151.288564">
  <ele>378.4</ele>
  <time>2026-09-01T19:55:42Z</time>
  <course>317.16</course>
  <speed>0.0</speed>
  <fix>3d</fix>
</trkpt>
<trkpt lat="-27.2728024" lon="151.2885644">
  <ele>377.68</ele>
  <time>2026-09-01T19:55:42Z</time>
  <course>277.07</course>
  <speed>0.17262676501632068</speed>
  <fix>3d</fix>
</trkpt>
<trkpt lat="-27.2728021" lon="151.288564">
  <ele>378.13</ele>
  <time>2026-09-01T19:55:42Z</time>
  <course>94.66</course>
  <speed>0.09</speed>
  <fix>3d</fix>
</trkpt>
<trkpt lat="-27.2728024" lon="151.2885646">
  <ele>377.54</ele>
  <time>2026-09-01T19:55:42Z</time>
  <course>276.81</course>
  <speed>0.21213203435596426</speed>
  <fix>3d</fix>
</trkpt>
<trkpt lat="-27.2728021" lon="151.288564">
  <ele>378.13</ele>
  <time>2026-09-01T19:55:42Z</time>
  <course>94.66</course>
  <speed>0.09</speed>
  <fix>3d</fix>
</trkpt>
<trkpt lat="-27.2728024" lon="151.2885648">
  <ele>377.4</ele>
  <time>2026-09-01T19:55:42Z</time>
  <course>276.57</course>
  <speed>0.24186773244895649</speed>
  <fix>3d</fix>
</trkpt>
<trkpt lat="-27.2728021" lon="151.2885643">
  <ele>377.86</ele>
  <time>2026-09-01T19:55:42Z</time>
  <course>95.32</course>
  <speed>0.18</speed>
  <fix>3d</fix>
</trkpt>
<trkpt lat="-27.2728024" lon="151.2885651">
  <ele>377.26</ele>
  <time>2026-09-01T19:55:42Z</time>
  <course>276.39</course>
  <speed>0.26305892875931813</speed>
  <fix>3d</fix>
</trkpt>
<trkpt lat="-27.2728021" lon="151.2885643">
  <ele>377.86</ele>
  <time>2026-09-01T19:55:42Z</time>
  <course>95.32</course>
  <speed>0.18</speed>
  <fix>3d</fix>
</trkpt>
<trkpt lat="-27.2728024" lon="151.2885653">
  <ele>377.12</ele>
  <time>2026-09-01T19:55:42Z</time>
  <course>276.26</course>
  <speed>0.2816025568065745</speed>
  <fix>3d</fix>
</trkpt>
<trkpt lat="-27.2728021" lon="151.2885647">
  <ele>377.59</ele>
  <time>2026-09-01T19:55:42Z</time>
  <course>94.98</course>
  <speed>0.24</speed>
  <fix>3d</fix>
</trkpt>
<trkpt lat="-27.2728024" lon="151.2885656">
  <ele>376.98</ele>
  <time>2026-09-01T19:55:42Z</time>
  <course>276.18</course>
  <speed>0.29274562336608895</speed>
  <fix>3d</fix>
</trkpt>
<trkpt lat="-27.2728021" lon="151.2885647">
  <ele>377.59</ele>
  <time>2026-09-01T19:55:42Z</time>
  <course>94.98</course>
  <speed>0.24</speed>
  <fix>3d</fix>
</trkpt>
<trkpt lat="-27.2728024" lon="151.2885659">
  <ele>376.83</ele>
  <time>2026-09-01T19:55:42Z</time>
  <course>276.16</course>
  <speed>0.3125699921617557</speed>
  <fix>3d</fix>
</trkpt>
<trkpt lat="-27.2728021" lon="151.2885653">
  <ele>377.31</ele>
  <time>2026-09-01T19:55:42Z</time>
  <course>94.62</course>
  <speed>0.29</speed>
  <fix>3d</fix>
</trkpt>
<trkpt lat="-27.2728024" lon="151.2885662">
  <ele>376.69</ele>
  <time>2026-09-01T19:55:42Z</time>
  <course>276.18</course>
  <speed>0.32249030993194194</speed>
  <fix>3d</fix>
</trkpt>
<trkpt lat="-27.2728021" lon="151.2885653">
  <ele>377.31</ele>
  <time>2026-09-01T19:55:42Z</time>
  <course>94.62</course>
  <speed>0.29</speed>
  <fix>3d</fix>
</trkpt>
<trkpt lat="-27.2728024" lon="151.2885666">
  <ele>376.54</ele>
  <time>2026-09-01T19:55:42Z</time>
  <course>276.22</course>
  <speed>0.32249030993194194</speed>
  <fix>3d</fix>
</trkpt>
<trkpt lat="-27.2728022" lon="151.2885659">
  <ele>377.02</ele>
  <time>2026-09-01T19:55:42Z</time>
  <course>94.41</course>
  <speed>0.32</speed>
  <fix>3d</fix>
</trkpt>
<trkpt lat="-27.2728024" lon="151.2885669">
  <ele>376.4</ele>
  <time>2026-09-01T19:55:42Z</time>
  <course>276.28</course>
  <speed>0.33241540277189324</speed>
  <fix>3d</fix>
</trkpt>
<trkpt lat="-27.2728022" lon="151.2885659">
  <ele>377.02</ele>
  <time>2026-09-01T19:55:42Z</time>
  <course>94.41</course>
  <speed>0.32</speed>
  <fix>3d</fix>
</trkpt>
<trkpt lat="-27.2728024" lon="151.2885672">
  <ele>376.25</ele>
  <time>2026-09-01T19:55:42Z</time>
  <course>276.35</course>
  <speed>0.33241540277189324</speed>
  <fix>3d</fix>
</trkpt>
<trkpt lat="-27.2728022" lon="151.2885666">
  <ele>376.73</ele>
  <time>2026-09-01T19:55:42Z</time>
  <course>94.37</course>
  <speed>0.34</speed>
  <fix>3d</fix>
</trkpt>
<trkpt lat="-27.2728024" lon="151.2885676">
  <ele>376.1</ele>
  <time>2026-09-01T19:55:42Z</time>
  <course>276.4</course>
  <speed>0.33241540277189324</speed>
  <fix>3d</fix>
</trkpt>
<trkpt lat="-27.2728022" lon="151.2885666">
  <ele>376.73</ele>
  <time>2026-09-01T19:55:42Z</time>
  <course>94.37</course>
  <speed>0.34</speed>
  <fix>3d</fix>
</trkpt>
<trkpt lat="-27.2728025" lon="151.2885679">
  <ele>375.95</ele>
  <time>2026-09-01T19:55:42Z</time>
  <course>276.43</course>
  <speed>0.33241540277189324</speed>
  <fix>3d</fix>
</trkpt>
<trkpt lat="-27.2728023" lon="151.2885673">
  <ele>376.44</ele>
  <time>2026-09-01T19:55:42Z</time>
  <course>94.38</course>
  <speed>0.35</speed>
  <fix>3d</fix>
</trkpt>
<trkpt lat="-27.2728025" lon="151.2885682">
  <ele>375.79</ele>
  <time>2026-09-01T19:55:42Z</time>
  <course>276.45</course>
  <speed>0.33241540277189324</speed>
  <fix>3d</fix>
</trkpt>
<trkpt lat="-27.2728023" lon="151.2885673">
  <ele>376.44</ele>
  <time>2026-09-01T19:55:42Z</time>
  <course>94.38</course>
  <speed>0.35</speed>
  <fix>3d</fix>
</trkpt>
<trkpt lat="-27.2728025" lon="151.2885686">
  <ele>375.64</ele>
  <time>2026-09-01T19:55:42Z</time>
  <course>276.44</course>
  <speed>0.33241540277189324</speed>
  <fix>3d</fix>
</trkpt>
<trkpt lat="-27.2728023" lon="151.288568">
  <ele>376.14</ele>
  <time>2026-09-01T19:55:42Z</time>
  <course>94.38</course>
  <speed>0.35</speed>
  <fix>3d</fix>
</trkpt>
<trkpt lat="-27.2728025" lon="151.2885689">
  <ele>375.49</ele>
  <time>2026-09-01T19:55:42Z</time>
  <course>276.42</course>
  <speed>0.32249030993194194</speed>
  <fix>3d</fix>
</trkpt>
<trkpt lat="-27.2728023" lon="151.288568">
  <ele>376.14</ele>
  <time>2026-09-01T19:55:42Z</time>
  <course>94.38</course>
  <speed>0.35</speed>
  <fix>3d</fix>
</trkpt>
<trkpt lat="-27.2728025" lon="151.2885693">
  <ele>375.33</ele>
  <time>2026-09-01T19:55:42Z</time>
  <course>276.39</course>
  <speed>0.32249030993194194</speed>
  <fix>3d</fix>
</trkpt>
<trkpt lat="-27.2728023" lon="151.2885687">
  <ele>375.83</ele>
  <time>2026-09-01T19:55:42Z</time>
  <course>94.28</course>
  <speed>0.35</speed>
  <fix>3d</fix>
</trkpt>
<trkpt lat="-27.2728026" lon="151.2885696">
  <ele>375.18</ele>
  <time>2026-09-01T19:55:42Z</time>
  <course>276.34</course>
  <speed>0.32249030993194194</speed>
  <fix>3d</fix>
</trkpt>
<trkpt lat="-27.2728023" lon="151.2885687">
  <ele>375.83</ele>
  <time>2026-09-01T19:55:42Z</time>
  <course>94.28</course>
  <speed>0.35</speed>
  <fix>3d</fix>
</trkpt>
<trkpt lat="-27.2728026" lon="151.2885699">
  <ele>375.02</ele>
  <time>2026-09-01T19:55:42Z</time>
  <course>276.3</course>
  <speed>0.31144823004794875</speed>
  <fix>3d</fix>
</trkpt>
<trkpt lat="-27.2728024" lon="151.2885694">
  <ele>375.52</ele>
  <time>2026-09-01T19:55:42Z</time>
  <course>94.06</course>
  <speed>0.34</speed>
  <fix>3d</fix>
</trkpt>
<trkpt lat="-27.2728026" lon="151.2885703">
  <ele>374.87</ele>
  <time>2026-09-01T19:55:42Z</time>
  <course>276.25</course>
  <speed>0.31144823004794875</speed>
  <fix>3d</fix>
</trkpt>
<trkpt lat="-27.2728024" lon="151.2885694">
  <ele>375.52</ele>
  <time>2026-09-01T19:55:42Z</time>
  <course>94.06</course>
  <speed>0.34</speed>
  <fix>3d</fix>
</trkpt>
<trkpt lat="-27.2728026" lon="151.2885706">
  <ele>374.71</ele>
  <time>2026-09-01T19:55:42Z</time>
  <course>276.21</course>
  <speed>0.3014962686336267</speed>
  <fix>3d</fix>
</trkpt>
<trkpt lat="-27.2728024" lon="151.2885701">
  <ele>375.22</ele>
  <time>2026-09-01T19:55:42Z</time>
  <course>93.76</course>
  <speed>0.33</speed>
  <fix>3d</fix>
</trkpt>
<trkpt lat="-27.2728026" lon="151.2885709">
  <ele>374.56</ele>
  <time>2026-09-01T19:55:42Z</time>
  <course>276.17</course>
  <speed>0.291547594742265</speed>
  <fix>3d</fix>
</trkpt>
<trkpt lat="-27.2728024" lon="151.2885701">
  <ele>375.22</ele>
  <time>2026-09-01T19:55:42Z</time>
  <course>93.76</course>
  <speed>0.33</speed>
  <fix>3d</fix>
</trkpt>
<trkpt lat="-27.2728026" lon="151.2885712">
  <ele>374.41</ele>
  <time>2026-09-01T19:55:42Z</time>
  <course>276.14</course>
  <speed>0.291547594742265</speed>
  <fix>3d</fix>
</trkpt>
<trkpt lat="-27.2728025" lon="151.2885708">
  <ele>374.91</ele>
  <time>2026-09-01T19:55:42Z</time>
  <course>93.37</course>
  <speed>0.32</speed>
  <fix>3d</fix>
</trkpt>
<trkpt lat="-27.2728026" lon="151.2885715">
  <ele>374.25</ele>
  <time>2026-09-01T19:55:42Z</time>
  <course>276.13</course>
  <speed>0.2816025568065745</speed>
  <fix>3d</fix>
</trkpt>
<trkpt lat="-27.2728025" lon="151.2885708">
  <ele>374.91</ele>
  <time>2026-09-01T19:55:42Z</time>
  <course>93.37</course>
  <speed>0.32</speed>
  <fix>3d</fix>
</trkpt>
<trkpt lat="-27.2728027" lon="151.2885718">
  <ele>374.1</ele>
  <time>2026-09-01T19:55:42Z</time>
  <course>276.13</course>
  <speed>0.27166155414412246</speed>
  <fix>3d</fix>
</trkpt>
<trkpt lat="-27.2728025" lon="151.2885714">
  <ele>374.61</ele>
  <time>2026-09-01T19:55:42Z</time>
  <course>93.01</course>
  <speed>0.31</speed>
  <fix>3d</fix>
</trkpt>
<trkpt lat="-27.2728027" lon="151.2885721">
  <ele>373.95</ele>
  <time>2026-09-01T19:55:42Z</time>
  <course>276.13</course>
  <speed>0.261725046566048</speed>
  <fix>3d</fix>
</trkpt>
<trkpt lat="-27.2728025" lon="151.2885714">
  <ele>374.61</ele>
  <time>2026-09-01T19:55:42Z</time>
  <course>93.01</course>
  <speed>0.31</speed>
  <fix>3d</fix>
</trkpt>
<trkpt lat="-27.2728027" lon="151.2885724">
  <ele>373.8</ele>
  <time>2026-09-01T19:55:42Z</time>
  <course>276.13</course>
  <speed>0.260768096208106</speed>
  <fix>3d</fix>
</trkpt>
<trkpt lat="-27.2728025" lon="151.2885719">
  <ele>374.31</ele>
  <time>2026-09-01T19:55:42Z</time>
  <course>92.65</course>
  <speed>0.29</speed>
  <fix>3d</fix>
</trkpt>
<trkpt lat="-27.2728027" lon="151.2885726">
  <ele>373.65</ele>
  <time>2026-09-01T19:55:42Z</time>
  <course>276.13</course>
  <speed>0.2501999200639361</speed>
  <fix>3d</fix>
</trkpt>
<trkpt lat="-27.2728025" lon="151.2885719">
  <ele>374.31</ele>
  <time>2026-09-01T19:55:42Z</time>
  <course>92.65</course>
  <speed>0.29</speed>
  <fix>3d</fix>
</trkpt>
<trkpt lat="-27.2728027" lon="151.2885729">
  <ele>373.5</ele>
  <time>2026-09-01T19:55:42Z</time>
  <course>276.1</course>
  <speed>0.24020824298928628</speed>
  <fix>3d</fix>
</trkpt>
<trkpt lat="-27.2728026" lon="151.2885726">
  <ele>374.01</ele>
  <time>2026-09-01T19:55:42Z</time>
  <course>92.29</course>
  <speed>0.28</speed>
  <fix>3d</fix>
</trkpt>
<trkpt lat="-27.2728027" lon="151.2885732">
  <ele>373.35</ele>
  <time>2026-09-01T19:55:42Z</time>
  <course>276.06</course>
  <speed>0.23021728866442676</speed>
  <fix>3d</fix>
</trkpt>
<trkpt lat="-27.2728026" lon="151.2885726">
  <ele>374.01</ele>
  <time>2026-09-01T19:55:42Z</time>
  <course>92.29</course>
  <speed>0.28</speed>
  <fix>3d</fix>
</trkpt>
<trkpt lat="-27.2728027" lon="151.2885734">
  <ele>373.2</ele>
  <time>2026-09-01T19:55:42Z</time>
  <course>276.02</course>
  <speed>0.22022715545545238</speed>
  <fix>3d</fix>
</trkpt>
<trkpt lat="-27.2728026" lon="151.2885731">
  <ele>373.71</ele>
  <time>2026-09-01T19:55:42Z</time>
  <course>91.68</course>
  <speed>0.26</speed>
  <fix>3d</fix>
</trkpt>
<trkpt lat="-27.2728027" lon="151.2885737">
  <ele>373.05</ele>
  <time>2026-09-01T19:55:42Z</time>
  <course>275.98</course>
  <speed>0.2102379604162864</speed>
  <fix>3d</fix>
</trkpt>
<trkpt lat="-27.2728026" lon="151.2885731">
  <ele>373.71</ele>
  <time>2026-09-01T19:55:42Z</time>
  <course>91.68</course>
  <speed>0.26</speed>
  <fix>3d</fix>
</trkpt>
<trkpt lat="-27.2728027" lon="151.2885739">
  <ele>372.9</ele>
  <time>2026-09-01T19:55:42Z</time>
  <course>275.93</course>
  <speed>0.2002498439450079</speed>
  <fix>3d</fix>
</trkpt>
<trkpt lat="-27.2728026" lon="151.2885736">
  <ele>373.41</ele>
  <time>2026-09-01T19:55:42Z</time>
  <course>90.88</course>
  <speed>0.24</speed>
  <fix>3d</fix>
</trkpt>
<trkpt lat="-27.2728027" lon="151.2885741">
  <ele>372.75</ele>
  <time>2026-09-01T19:55:42Z</time>
  <course>275.9</course>
  <speed>0.19026297590440447</speed>
  <fix>3d</fix>
</trkpt>
<trkpt lat="-27.2728026" lon="151.2885736">
  <ele>373.41</ele>
  <time>2026-09-01T19:55:42Z</time>
  <course>90.88</course>
  <speed>0.24</speed>
  <fix>3d</fix>
</trkpt>
<trkpt lat="-27.2728027" lon="151.2885743">
  <ele>372.61</ele>
  <time>2026-09-01T19:55:42Z</time>
  <course>275.86</course>
  <speed>0.18027756377319945</speed>
  <fix>3d</fix>
</trkpt>
<trkpt lat="-27.2728026" lon="151.2885741">
  <ele>373.11</ele>
  <time>2026-09-01T19:55:42Z</time>
  <course>90.1</course>
  <speed>0.22</speed>
  <fix>3d</fix>
</trkpt>
<trkpt lat="-27.2728027" lon="151.2885745">
  <ele>372.46</ele>
  <time>2026-09-01T19:55:42Z</time>
  <course>275.83</course>
  <speed>0.17029386365926402</speed>
  <fix>3d</fix>
</trkpt>
<trkpt lat="-27.2728026" lon="151.2885741">
  <ele>373.11</ele>
  <time>2026-09-01T19:55:42Z</time>
  <course>90.1</course>
  <speed>0.22</speed>
  <fix>3d</fix>
</trkpt>
<trkpt lat="-27.2728027" lon="151.2885747">
  <ele>372.31</ele>
  <time>2026-09-01T19:55:42Z</time>
  <course>275.81</course>
  <speed>0.16031219541881397</speed>
  <fix>3d</fix>
</trkpt>
<trkpt lat="-27.2728026" lon="151.2885746">
  <ele>372.81</ele>
  <time>2026-09-01T19:55:42Z</time>
  <course>89.16</course>
  <speed>0.2</speed>
  <fix>3d</fix>
</trkpt>
<trkpt lat="-27.2728027" lon="151.2885749">
  <ele>372.16</ele>
  <time>2026-09-01T19:55:42Z</time>
  <course>275.8</course>
  <speed>0.15033296378372907</speed>
  <fix>3d</fix>
</trkpt>
<trkpt lat="-27.2728026" lon="151.2885746">
  <ele>372.81</ele>
  <time>2026-09-01T19:55:42Z</time>
  <course>89.16</course>
  <speed>0.2</speed>
  <fix>3d</fix>
</trkpt>
<trkpt lat="-27.2728027" lon="151.2885751">
  <ele>372.01</ele>
  <time>2026-09-01T19:55:42Z</time>
  <course>275.79</course>
  <speed>0.140356688476182</speed>
  <fix>3d</fix>
</trkpt>
<trkpt lat="-27.2728026" lon="151.2885749">
  <ele>372.52</ele>
  <time>2026-09-01T19:55:42Z</time>
  <course>87.99</course>
  <speed>0.18</speed>
  <fix>3d</fix>
</trkpt>
<trkpt lat="-27.2728027" lon="151.2885752">
  <ele>371.86</ele>
  <time>2026-09-01T19:55:42Z</time>
  <course>275.8</course>
  <speed>0.13</speed>
  <fix>3d</fix>
</trkpt>
<trkpt lat="-27.2728026" lon="151.2885749">
  <ele>372.52</ele>
  <time>2026-09-01T19:55:42Z</time>
  <course>87.99</course>
  <speed>0.18</speed>
  <fix>3d</fix>
</trkpt>
<trkpt lat="-27.2728027" lon="151.2885754">
  <ele>371.71</ele>
  <time>2026-09-01T19:55:42Z</time>
  <course>275.8</course>
  <speed>0.12</speed>
  <fix>3d</fix>
</trkpt>
<trkpt lat="-27.2728026" lon="151.2885753">
  <ele>372.22</ele>
  <time>2026-09-01T19:55:42Z</time>
  <course>86.55</course>
  <speed>0.16</speed>
  <fix>3d</fix>
</trkpt>
<trkpt lat="-27.2728027" lon="151.2885755">
  <ele>371.55</ele>
  <time>2026-09-01T19:55:42Z</time>
  <course>275.79</course>
  <speed>0.11</speed>
  <fix>3d</fix>
</trkpt>
<trkpt lat="-27.2728026" lon="151.2885753">
  <ele>372.22</ele>
  <time>2026-09-01T19:55:42Z</time>
  <course>86.55</course>
  <speed>0.16</speed>
  <fix>3d</fix>
</trkpt>
<trkpt lat="-27.2728027" lon="151.2885756">
  <ele>371.4</ele>
  <time>2026-09-01T19:55:42Z</time>
  <course>275.78</course>
  <speed>0.1</speed>
  <fix>3d</fix>
</trkpt>
<trkpt lat="-27.2728026" lon="151.2885756">
  <ele>371.91</ele>
  <time>2026-09-01T19:55:42Z</time>
  <course>84.68</course>
  <speed>0.14</speed>
  <fix>3d</fix>
</trkpt>
<trkpt lat="-27.2728027" lon="151.2885758">
  <ele>371.25</ele>
  <time>2026-09-01T19:55:42Z</time>
  <course>275.74</course>
  <speed>0.09</speed>
  <fix>3d</fix>
</trkpt>
<trkpt lat="-27.2728026" lon="151.2885756">
  <ele>371.91</ele>
  <time>2026-09-01T19:55:42Z</time>
  <course>84.68</course>
  <speed>0.14</speed>
  <fix>3d</fix>
</trkpt>
<trkpt lat="-27.2728027" lon="151.2885759">
  <ele>371.1</ele>
  <time>2026-09-01T19:55:42Z</time>
  <course>275.69</course>
  <speed>0.08</speed>
  <fix>3d</fix>
</trkpt>
<trkpt lat="-27.2728026" lon="151.2885759">
  <ele>371.62</ele>
  <time>2026-09-01T19:55:42Z</time>
  <course>81.94</course>
  <speed>0.12</speed>
  <fix>3d</fix>
</trkpt>
<trkpt lat="-27.2728027" lon="151.288576">
  <ele>370.95</ele>
  <time>2026-09-01T19:55:42Z</time>
  <course>275.64</course>
  <speed>0.07</speed>
  <fix>3d</fix>
</trkpt>
<trkpt lat="-27.2728026" lon="151.2885759">
  <ele>371.62</ele>
  <time>2026-09-01T19:55:42Z</time>
  <course>81.94</course>
  <speed>0.12</speed>
  <fix>3d</fix>
</trkpt>
<trkpt lat="-27.2728027" lon="151.2885761">
  <ele>370.8</ele>
  <time>2026-09-01T19:55:42Z</time>
  <course>275.6</course>
  <speed>0.06</speed>
  <fix>3d</fix>
</trkpt>
<trkpt lat="-27.2728026" lon="151.2885762">
  <ele>371.32</ele>
  <time>2026-09-01T19:55:42Z</time>
  <course>78.16</course>
  <speed>0.1</speed>
  <fix>3d</fix>
</trkpt>
<trkpt lat="-27.2728026" lon="151.2885761">
  <ele>370.64</ele>
  <time>2026-09-01T19:55:42Z</time>
  <course>275.56</course>
  <speed>0.05</speed>
  <fix>3d</fix>
</trkpt>
<trkpt lat="-27.2728026" lon="151.2885762">
  <ele>371.32</ele>
  <time>2026-09-01T19:55:42Z</time>
  <course>78.16</course>
  <speed>0.1</speed>
  <fix>3d</fix>
</trkpt>
<trkpt lat="-27.2728026" lon="151.2885762">
  <ele>370.49</ele>
  <time>2026-09-01T19:55:42Z</time>
  <course>275.53</course>
  <speed>0.0412310562561766</speed>
  <fix>3d</fix>
</trkpt>
<trkpt lat="-27.2728025" lon="151.2885763">
  <ele>371.02</ele>
  <time>2026-09-01T19:55:42Z</time>
  <course>73.13</course>
  <speed>0.08</speed>
  <fix>3d</fix>
</trkpt>
<trkpt lat="-27.2728026" lon="151.2885763">
  <ele>370.34</ele>
  <time>2026-09-01T19:55:42Z</time>
  <course>275.5</course>
  <speed>0.0316227766016838</speed>
  <fix>3d</fix>
</trkpt>
<trkpt lat="-27.2728025" lon="151.2885763">
  <ele>371.02</ele>
  <time>2026-09-01T19:55:42Z</time>
  <course>73.13</course>
  <speed>0.08</speed>
  <fix>3d</fix>
</trkpt>
<trkpt lat="-27.2728026" lon="151.2885763">
  <ele>370.19</ele>
  <time>2026-09-01T19:55:42Z</time>
  <course>275.46</course>
  <speed>0.022360679774997897</speed>
  <fix>3d</fix>
</trkpt>
<trkpt lat="-27.2728025" lon="151.2885764">
  <ele>370.72</ele>
  <time>2026-09-01T19:55:42Z</time>
  <course>65.59</course>
  <speed>0.06</speed>
  <fix>3d</fix>
</trkpt>
<trkpt lat="-27.2728025" lon="151.2885764">
  <ele>370.04</ele>
  <time>2026-09-01T19:55:42Z</time>
  <course>275.43</course>
  <speed>0.01414213562373095</speed>
  <fix>3d</fix>
</trkpt>
<trkpt lat="-27.2728025" lon="151.2885764">
  <ele>370.72</ele>
  <time>2026-09-01T19:55:42Z</time>
  <course>65.59</course>
  <speed>0.06</speed>
  <fix>3d</fix>
</trkpt>
<trkpt lat="-27.2728025" lon="151.2885764">
  <ele>369.89</ele>
  <time>2026-09-01T19:55:42Z</time>
  <course>275.4</course>
  <speed>0.01</speed>
  <fix>3d</fix>
</trkpt>
<trkpt lat="-27.2728024" lon="151.2885766">
  <ele>370.41</ele>
  <time>2026-09-01T19:55:42Z</time>
  <course>53.81</course>
  <speed>0.05</speed>
  <fix>3d</fix>
</trkpt>
<trkpt lat="-27.2728025" lon="151.2885764">
  <ele>369.74</ele>
  <time>2026-09-01T19:55:42Z</time>
  <course>275.36</course>
  <speed>0.01</speed>
  <fix>3d</fix>
</trkpt>
<trkpt lat="-27.2728024" lon="151.2885766">
  <ele>370.41</ele>
  <time>2026-09-01T19:55:42Z</time>
  <course>53.81</course>
  <speed>0.05</speed>
  <fix>3d</fix>
</trkpt>
<trkpt lat="-27.2728025" lon="151.2885764">
  <ele>369.59</ele>
  <time>2026-09-01T19:55:42Z</time>
  <course>275.34</course>
  <speed>0.01</speed>
  <fix>3d</fix>
</trkpt>
<trkpt lat="-27.2728024" lon="151.2885767">
  <ele>370.12</ele>
  <time>2026-09-01T19:55:42Z</time>
  <course>36.13</course>
  <speed>0.04</speed>
  <fix>3d</fix>
</trkpt>
<trkpt lat="-27.2728024" lon="151.2885765">
  <ele>369.45</ele>
  <time>2026-09-01T19:55:42Z</time>
  <course>275.39</course>
  <speed>0.01</speed>
  <fix>3d</fix>
</trkpt>
<trkpt lat="-27.2728024" lon="151.2885767">
  <ele>370.12</ele>
  <time>2026-09-01T19:55:42Z</time>
  <course>36.13</course>
  <speed>0.04</speed>
  <fix>3d</fix>
</trkpt>
<trkpt lat="-27.2728024" lon="151.2885765">
  <ele>369.3</ele>
  <time>2026-09-01T19:55:42Z</time>
  <course>275.62</course>
  <speed>0.02</speed>
  <fix>3d</fix>
</trkpt>
<trkpt lat="-27.2728023" lon="151.2885767">
  <ele>369.83</ele>
  <time>2026-09-01T19:55:42Z</time>
  <course>13.98</course>
  <speed>0.03</speed>
  <fix>3d</fix>
</trkpt>
<trkpt lat="-27.2728024" lon="151.2885765">
  <ele>369.15</ele>
  <time>2026-09-01T19:55:42Z</time>
  <course>275.97</course>
  <speed>0.0316227766016838</speed>
  <fix>3d</fix>
</trkpt>
<trkpt lat="-27.2728023" lon="151.2885767">
  <ele>369.83</ele>
  <time>2026-09-01T19:55:42Z</time>
  <course>13.98</course>
  <speed>0.03</speed>
  <fix>3d</fix>
</trkpt>
<trkpt lat="-27.2728024" lon="151.2885765">
  <ele>369.0</ele>
  <time>2026-09-01T19:55:42Z</time>
  <course>276.35</course>
  <speed>0.05</speed>
  <fix>3d</fix>
</trkpt>
<trkpt lat="-27.2728023" lon="151.2885767">
  <ele>369.53</ele>
  <time>2026-09-01T19:55:42Z</time>
  <course>331.17</course>
  <speed>0.01</speed>
  <fix>3d</fix>
</trkpt>
<trkpt lat="-27.2728025" lon="151.2885765">
  <ele>368.85</ele>
  <time>2026-09-01T19:55:42Z</time>
  <course>276.7</course>
  <speed>0.0565685424949238</speed>
  <fix>3d</fix>
</trkpt>
<trkpt lat="-27.2728023" lon="151.2885767">
  <ele>369.53</ele>
  <time>2026-09-01T19:55:42Z</time>
  <course>331.17</course>
  <speed>0.01</speed>
  <fix>3d</fix>
</trkpt>
<trkpt lat="-27.2728025" lon="151.2885765">
  <ele>368.7</ele>
  <time>2026-09-01T19:55:42Z</time>
  <course>276.97</course>
  <speed>0.07071067811865475</speed>
  <fix>3d</fix>
</trkpt>
<trkpt lat="-27.2728023" lon="151.2885767">
  <ele>369.23</ele>
  <time>2026-09-01T19:55:42Z</time>
  <course>253.86</course>
  <speed>0.02</speed>
  <fix>3d</fix>
</trkpt>
<trkpt lat="-27.2728025" lon="151.2885764">
  <ele>368.55</ele>
  <time>2026-09-01T19:55:42Z</time>
  <course>277.14</course>
  <speed>0.0848528137423857</speed>
  <fix>3d</fix>
</trkpt>
<trkpt lat="-27.2728023" lon="151.2885767">
  <ele>369.23</ele>
  <time>2026-09-01T19:55:42Z</time>
  <course>253.86</course>
  <speed>0.02</speed>
  <fix>3d</fix>
</trkpt>
<trkpt lat="-27.2728025" lon="151.2885764">
  <ele>368.41</ele>
  <time>2026-09-01T19:55:42Z</time>
  <course>277.21</course>
  <speed>0.09219544457292887</speed>
  <fix>3d</fix>
</trkpt>
<trkpt lat="-27.2728023" lon="151.2885767">
  <ele>368.94</ele>
  <time>2026-09-01T19:55:42Z</time>
  <course>234.28</course>
  <speed>0.05</speed>
  <fix>3d</fix>
</trkpt>
<trkpt lat="-27.2728025" lon="151.2885763">
  <ele>368.26</ele>
  <time>2026-09-01T19:55:42Z</time>
  <course>277.2</course>
  <speed>0.1063014581273465</speed>
  <fix>3d</fix>
</trkpt>
<trkpt lat="-27.2728023" lon="151.2885767">
  <ele>368.94</ele>
  <time>2026-09-01T19:55:42Z</time>
  <course>234.28</course>
  <speed>0.05</speed>
  <fix>3d</fix>
</trkpt>
<trkpt lat="-27.2728026" lon="151.2885763">
  <ele>368.12</ele>
  <time>2026-09-01T19:55:42Z</time>
  <course>277.15</course>
  <speed>0.1063014581273465</speed>
  <fix>3d</fix>
</trkpt>
<trkpt lat="-27.2728023" lon="151.2885766">
  <ele>368.64</ele>
  <time>2026-09-01T19:55:42Z</time>
  <course>228.26</course>
  <speed>0.07</speed>
  <fix>3d</fix>
</trkpt>
<trkpt lat="-27.2728027" lon="151.2885762">
  <ele>367.97</ele>
  <time>2026-09-01T19:55:42Z</time>
  <course>277.06</course>
  <speed>0.12041594578792296</speed>
  <fix>3d</fix>
</trkpt>
<trkpt lat="-27.2728023" lon="151.2885766">
  <ele>368.64</ele>
  <time>2026-09-01T19:55:42Z</time>
  <course>228.26</course>
  <speed>0.07</speed>
  <fix>3d</fix>
</trkpt>
<trkpt lat="-27.2728027" lon="151.2885762">
  <ele>367.82</ele>
  <time>2026-09-01T19:55:42Z</time>
  <course>276.97</course>
  <speed>0.12806248474865697</speed>
  <fix>3d</fix>
</trkpt>
<trkpt lat="-27.2728023" lon="151.2885764">
  <ele>368.34</ele>
  <time>2026-09-01T19:55:42Z</time>
  <course>225.6</course>
  <speed>0.09</speed>
  <fix>3d</fix>
</trkpt>
<trkpt lat="-27.2728028" lon="151.2885761">
  <ele>367.68</ele>
  <time>2026-09-01T19:55:42Z</time>
  <course>276.88</course>
  <speed>0.1345362404707371</speed>
  <fix>3d</fix>
</trkpt>
<trkpt lat="-27.2728023" lon="151.2885764">
  <ele>368.34</ele>
  <time>2026-09-01T19:55:42Z</time>
  <course>225.6</course>
  <speed>0.09</speed>
  <fix>3d</fix>
</trkpt>
<trkpt lat="-27.2728028" lon="151.288576">
  <ele>367.53</ele>
  <time>2026-09-01T19:55:42Z</time>
  <course>276.82</course>
  <speed>0.14212670403551894</speed>
  <fix>3d</fix>
</trkpt>
<trkpt lat="-27.2728025" lon="151.2885763">
  <ele>368.04</ele>
  <time>2026-09-01T19:55:42Z</time>
  <course>224.23</course>
  <speed>0.1</speed>
  <fix>3d</fix>
</trkpt>
<trkpt lat="-27.2728029" lon="151.2885759">
  <ele>367.38</ele>
  <time>2026-09-01T19:55:42Z</time>
  <course>276.78</course>
  <speed>0.14212670403551894</speed>
  <fix>3d</fix>
</trkpt>
<trkpt lat="-27.2728025" lon="151.2885763">
  <ele>368.04</ele>
  <time>2026-09-01T19:55:42Z</time>
  <course>224.23</course>
  <speed>0.1</speed>
  <fix>3d</fix>
</trkpt>
<trkpt lat="-27.272803" lon="151.2885759">
  <ele>367.23</ele>
  <time>2026-09-01T19:55:42Z</time>
  <course>276.77</course>
  <speed>0.14866068747318506</speed>
  <fix>3d</fix>
</trkpt>
<trkpt lat="-27.2728026" lon="151.2885762">
  <ele>367.75</ele>
  <time>2026-09-01T19:55:42Z</time>
  <course>223.53</course>
  <speed>0.12</speed>
  <fix>3d</fix>
</trkpt>
<trkpt lat="-27.2728031" lon="151.2885758">
  <ele>367.08</ele>
  <time>2026-09-01T19:55:42Z</time>
  <course>276.77</course>
  <speed>0.15620499351813308</speed>
  <fix>3d</fix>
</trkpt>
<trkpt lat="-27.2728026" lon="151.2885762">
  <ele>367.75</ele>
  <time>2026-09-01T19:55:42Z</time>
  <course>223.53</course>
  <speed>0.12</speed>
  <fix>3d</fix>
</trkpt>
<trkpt lat="-27.2728032" lon="151.2885757">
  <ele>366.93</ele>
  <time>2026-09-01T19:55:42Z</time>
  <course>276.79</course>
  <speed>0.15620499351813308</speed>
  <fix>3d</fix>
</trkpt>
<trkpt lat="-27.2728028" lon="151.2885759">
  <ele>367.44</ele>
  <time>2026-09-01T19:55:42Z</time>
  <course>223.21</course>
  <speed>0.13</speed>
  <fix>3d</fix>
</trkpt>
<trkpt lat="-27.2728033" lon="151.2885756">
  <ele>366.78</ele>
  <time>2026-09-01T19:55:43Z</time>
  <course>276.81</course>
  <speed>0.16278820596099705</speed>
  <fix>3d</fix>
</trkpt>
<trkpt lat="-27.2728028" lon="151.2885759">
  <ele>367.44</ele>
  <time>2026-09-01T19:55:43Z</time>
  <course>223.21</course>
  <speed>0.13</speed>
  <fix>3d</fix>
</trkpt>
<trkpt lat="-27.2728033" lon="151.2885755">
  <ele>366.63</ele>
  <time>2026-09-01T19:55:43Z</time>
  <course>276.84</course>
  <speed>0.16278820596099705</speed>
  <fix>3d</fix>
</trkpt>
<trkpt lat="-27.2728029" lon="151.2885758">
  <ele>367.14</ele>
  <time>2026-09-01T19:55:43Z</time>
  <course>223.26</course>
  <speed>0.14</speed>
  <fix>3d</fix>
</trkpt>
<trkpt lat="-27.2728034" lon="151.2885754">
  <ele>366.48</ele>
  <time>2026-09-01T19:55:43Z</time>
  <course>276.88</course>
  <speed>0.16278820596099705</speed>
  <fix>3d</fix>
</trkpt>
<trkpt lat="-27.2728029" lon="151.2885758">
  <ele>367.14</ele>
  <time>2026-09-01T19:55:43Z</time>
  <course>223.26</course>
  <speed>0.14</speed>
  <fix>3d</fix>
</trkpt>
<trkpt lat="-27.2728035" lon="151.2885753">
  <ele>366.33</ele>
  <time>2026-09-01T19:55:43Z</time>
  <course>276.91</course>
  <speed>0.16278820596099705</speed>
  <fix>3d</fix>
</trkpt>
<trkpt lat="-27.2728032" lon="151.2885756">
  <ele>366.84</ele>
  <time>2026-09-01T19:55:43Z</time>
  <course>223.7</course>
  <speed>0.14</speed>
  <fix>3d</fix>
</trkpt>
<trkpt lat="-27.2728036" lon="151.2885752">
  <ele>366.18</ele>
  <time>2026-09-01T19:55:43Z</time>
  <course>276.94</course>
  <speed>0.16278820596099705</speed>
  <fix>3d</fix>
</trkpt>
<trkpt lat="-27.2728032" lon="151.2885756">
  <ele>366.84</ele>
  <time>2026-09-01T19:55:43Z</time>
  <course>223.7</course>
  <speed>0.14</speed>
  <fix>3d</fix>
</trkpt>
<trkpt lat="-27.2728037" lon="151.2885751">
  <ele>366.02</ele>
  <time>2026-09-01T19:55:43Z</time>
  <course>276.96</course>
  <speed>0.16278820596099705</speed>
  <fix>3d</fix>
</trkpt>
<trkpt lat="-27.2728034" lon="151.2885753">
  <ele>366.53</ele>
  <time>2026-09-01T19:55:43Z</time>
  <course>224.35</course>
  <speed>0.14</speed>
  <fix>3d</fix>
</trkpt>
<trkpt lat="-27.2728038" lon="151.288575">
  <ele>365.87</ele>
  <time>2026-09-01T19:55:43Z</time>
  <course>276.98</course>
  <speed>0.15556349186104046</speed>
  <fix>3d</fix>
</trkpt>
<trkpt lat="-27.2728034" lon="151.2885753">
  <ele>366.53</ele>
  <time>2026-09-01T19:55:43Z</time>
  <course>224.35</course>
  <speed>0.14</speed>
  <fix>3d</fix>
</trkpt>
<trkpt lat="-27.2728039" lon="151.2885749">
  <ele>365.72</ele>
  <time>2026-09-01T19:55:43Z</time>
  <course>277.0</course>
  <speed>0.15556349186104046</speed>
  <fix>3d</fix>
</trkpt>
<trkpt lat="-27.2728035" lon="151.2885752">
  <ele>366.22</ele>
  <time>2026-09-01T19:55:43Z</time>
  <course>225.04</course>
  <speed>0.14</speed>
  <fix>3d</fix>
</trkpt>
<trkpt lat="-27.2728039" lon="151.2885748">
  <ele>365.57</ele>
  <time>2026-09-01T19:55:43Z</time>
  <course>277.01</course>
  <speed>0.15556349186104046</speed>
  <fix>3d</fix>
</trkpt>
<trkpt lat="-27.2728035" lon="151.2885752">
  <ele>366.22</ele>
  <time>2026-09-01T19:55:43Z</time>
  <course>225.04</course>
  <speed>0.14</speed>
  <fix>3d</fix>
</trkpt>
<trkpt lat="-27.272804" lon="151.2885747">
  <ele>365.42</ele>
  <time>2026-09-01T19:55:43Z</time>
  <course>277.02</course>
  <speed>0.15556349186104046</speed>
  <fix>3d</fix>
</trkpt>
<trkpt lat="-27.2728038" lon="151.2885749">
  <ele>365.93</ele>
  <time>2026-09-01T19:55:43Z</time>
  <course>225.91</course>
  <speed>0.14</speed>
  <fix>3d</fix>
</trkpt>
<trkpt lat="-27.2728041" lon="151.2885746">
  <ele>365.26</ele>
  <time>2026-09-01T19:55:43Z</time>
  <course>277.03</course>
  <speed>0.14866068747318506</speed>
  <fix>3d</fix>
</trkpt>
<trkpt lat="-27.2728038" lon="151.2885749">
  <ele>365.93</ele>
  <time>2026-09-01T19:55:43Z</time>
  <course>225.91</course>
  <speed>0.14</speed>
  <fix>3d</fix>
</trkpt>
<trkpt lat="-27.2728042" lon="151.2885745">
  <ele>365.11</ele>
  <time>2026-09-01T19:55:43Z</time>
  <course>277.05</course>
  <speed>0.14866068747318506</speed>
  <fix>3d</fix>
</trkpt>
<trkpt lat="-27.2728039" lon="151.2885748">
  <ele>365.62</ele>
  <time>2026-09-01T19:55:43Z</time>
  <course>226.91</course>
  <speed>0.14</speed>
  <fix>3d</fix>
</trkpt>
<trkpt lat="-27.2728043" lon="151.2885744">
  <ele>364.96</ele>
  <time>2026-09-01T19:55:43Z</time>
  <course>277.07</course>
  <speed>0.1414213562373095</speed>
  <fix>3d</fix>
</trkpt>
<trkpt lat="-27.2728039" lon="151.2885748">
  <ele>365.62</ele>
  <time>2026-09-01T19:55:43Z</time>
  <course>226.91</course>
  <speed>0.14</speed>
  <fix>3d</fix>
</trkpt>
<trkpt lat="-27.2728043" lon="151.2885743">
  <ele>364.81</ele>
  <time>2026-09-01T19:55:43Z</time>
  <course>277.09</course>
  <speed>0.1345362404707371</speed>
  <fix>3d</fix>
</trkpt>
<trkpt lat="-27.2728041" lon="151.2885746">
  <ele>365.32</ele>
  <time>2026-09-01T19:55:43Z</time>
  <course>227.95</course>
  <speed>0.13</speed>
  <fix>3d</fix>
</trkpt>
<trkpt lat="-27.2728044" lon="151.2885742">
  <ele>364.66</ele>
  <time>2026-09-01T19:55:43Z</time>
  <course>277.11</course>
  <speed>0.1345362404707371</speed>
  <fix>3d</fix>
</trkpt>
<trkpt lat="-27.2728041" lon="151.2885746">
  <ele>365.32</ele>
  <time>2026-09-01T19:55:43Z</time>
  <course>227.95</course>
  <speed>0.13</speed>
  <fix>3d</fix>
</trkpt>
<trkpt lat="-27.2728045" lon="151.2885741">
  <ele>364.51</ele>
  <time>2026-09-01T19:55:43Z</time>
  <course>277.14</course>
  <speed>0.12806248474865697</speed>
  <fix>3d</fix>
</trkpt>
<trkpt lat="-27.2728042" lon="151.2885743">
  <ele>365.02</ele>
  <time>2026-09-01T19:55:43Z</time>
  <course>229.31</course>
  <speed>0.12</speed>
  <fix>3d</fix>
</trkpt>
<trkpt lat="-27.2728045" lon="151.288574">
  <ele>364.36</ele>
  <time>2026-09-01T19:55:43Z</time>
  <course>277.17</course>
  <speed>0.12041594578792296</speed>
  <fix>3d</fix>
</trkpt>
<trkpt lat="-27.2728042" lon="151.2885743">
  <ele>365.02</ele>
  <time>2026-09-01T19:55:43Z</time>
  <course>229.31</course>
  <speed>0.12</speed>
  <fix>3d</fix>
</trkpt>
<trkpt lat="-27.2728046" lon="151.2885739">
  <ele>364.21</ele>
  <time>2026-09-01T19:55:43Z</time>
  <course>277.2</course>
  <speed>0.11401754250991379</speed>
  <fix>3d</fix>
</trkpt>
<trkpt lat="-27.2728044" lon="151.2885742">
  <ele>364.72</ele>
  <time>2026-09-01T19:55:43Z</time>
  <course>231.22</course>
  <speed>0.11</speed>
  <fix>3d</fix>
</trkpt>
<trkpt lat="-27.2728046" lon="151.2885739">
  <ele>364.06</ele>
  <time>2026-09-01T19:55:43Z</time>
  <course>277.23</course>
  <speed>0.11401754250991379</speed>
  <fix>3d</fix>
</trkpt>
<trkpt lat="-27.2728044" lon="151.2885742">
  <ele>364.72</ele>
  <time>2026-09-01T19:55:43Z</time>
  <course>231.22</course>
  <speed>0.11</speed>
  <fix>3d</fix>
</trkpt>
<trkpt lat="-27.2728047" lon="151.2885738">
  <ele>363.91</ele>
  <time>2026-09-01T19:55:43Z</time>
  <course>277.25</course>
  <speed>0.10816653826391968</speed>
  <fix>3d</fix>
</trkpt>
<trkpt lat="-27.2728045" lon="151.2885739">
  <ele>364.41</ele>
  <time>2026-09-01T19:55:43Z</time>
  <course>233.48</course>
  <speed>0.1</speed>
  <fix>3d</fix>
</trkpt>
<trkpt lat="-27.2728047" lon="151.2885737">
  <ele>363.76</ele>
  <time>2026-09-01T19:55:43Z</time>
  <course>277.26</course>
  <speed>0.1</speed>
  <fix>3d</fix>
</trkpt>
<trkpt lat="-27.2728045" lon="151.2885739">
  <ele>364.41</ele>
  <time>2026-09-01T19:55:43Z</time>
  <course>233.48</course>
  <speed>0.1</speed>
  <fix>3d</fix>
</trkpt>
<trkpt lat="-27.2728048" lon="151.2885736">
  <ele>363.61</ele>
  <time>2026-09-01T19:55:43Z</time>
  <course>277.28</course>
  <speed>0.09433981132056603</speed>
  <fix>3d</fix>
</trkpt>
<trkpt lat="-27.2728046" lon="151.2885738">
  <ele>364.12</ele>
  <time>2026-09-01T19:55:43Z</time>
  <course>235.96</course>
  <speed>0.09</speed>
  <fix>3d</fix>
</trkpt>
<trkpt lat="-27.2728048" lon="151.2885735">
  <ele>363.46</ele>
  <time>2026-09-01T19:55:43Z</time>
  <course>277.3</course>
  <speed>0.09433981132056603</speed>
  <fix>3d</fix>
</trkpt>
<trkpt lat="-27.2728046" lon="151.2885738">
  <ele>364.12</ele>
  <time>2026-09-01T19:55:43Z</time>
  <course>235.96</course>
  <speed>0.09</speed>
  <fix>3d</fix>
</trkpt>
<trkpt lat="-27.2728048" lon="151.2885735">
  <ele>363.31</ele>
  <time>2026-09-01T19:55:43Z</time>
  <course>277.32</course>
  <speed>0.08062257748298549</speed>
  <fix>3d</fix>
</trkpt>
<trkpt lat="-27.2728047" lon="151.2885737">
  <ele>363.82</ele>
  <time>2026-09-01T19:55:43Z</time>
  <course>239.11</course>
  <speed>0.08</speed>
  <fix>3d</fix>
</trkpt>
<trkpt lat="-27.2728049" lon="151.2885734">
  <ele>363.16</ele>
  <time>2026-09-01T19:55:43Z</time>
  <course>277.36</course>
  <speed>0.08062257748298549</speed>
  <fix>3d</fix>
</trkpt>
<trkpt lat="-27.2728047" lon="151.2885737">
  <ele>363.82</ele>
  <time>2026-09-01T19:55:43Z</time>
  <course>239.11</course>
  <speed>0.08</speed>
  <fix>3d</fix>
</trkpt>
<trkpt lat="-27.2728049" lon="151.2885733">
  <ele>363.02</ele>
  <time>2026-09-01T19:55:43Z</time>
  <course>277.4</course>
  <speed>0.07615773105863909</speed>
  <fix>3d</fix>
</trkpt>
<trkpt lat="-27.2728048" lon="151.2885735">
  <ele>363.52</ele>
  <time>2026-09-01T19:55:43Z</time>
  <course>243.09</course>
  <speed>0.07</speed>
  <fix>3d</fix>
</trkpt>
<trkpt lat="-27.2728049" lon="151.2885733">
  <ele>362.87</ele>
  <time>2026-09-01T19:55:43Z</time>
  <course>277.44</course>
  <speed>0.0670820393249937</speed>
  <fix>3d</fix>
</trkpt>
<trkpt lat="-27.2728048" lon="151.2885735">
  <ele>363.52</ele>
  <time>2026-09-01T19:55:43Z</time>
  <course>243.09</course>
  <speed>0.07</speed>
  <fix>3d</fix>
</trkpt>
<trkpt lat="-27.2728049" lon="151.2885732">
  <ele>362.72</ele>
  <time>2026-09-01T19:55:43Z</time>
  <course>277.5</course>
  <speed>0.0632455532033676</speed>
  <fix>3d</fix>
</trkpt>
<trkpt lat="-27.2728048" lon="151.2885734">
  <ele>363.22</ele>
  <time>2026-09-01T19:55:43Z</time>
  <course>247.73</course>
  <speed>0.06</speed>
  <fix>3d</fix>
</trkpt>
<trkpt lat="-27.2728049" lon="151.2885732">
  <ele>362.57</ele>
  <time>2026-09-01T19:55:43Z</time>
  <course>277.55</course>
  <speed>0.0632455532033676</speed>
  <fix>3d</fix>
</trkpt>
<trkpt lat="-27.2728048" lon="151.2885734">
  <ele>363.22</ele>
  <time>2026-09-01T19:55:43Z</time>
  <course>247.73</course>
  <speed>0.06</speed>
  <fix>3d</fix>
</trkpt>
<trkpt lat="-27.2728049" lon="151.2885731">
  <ele>362.43</ele>
  <time>2026-09-01T19:55:43Z</time>
  <course>277.6</course>
  <speed>0.053851648071345036</speed>
  <fix>3d</fix>
</trkpt>
<trkpt lat="-27.2728048" lon="151.2885733">
  <ele>362.93</ele>
  <time>2026-09-01T19:55:43Z</time>
  <course>253.21</course>
  <speed>0.05</speed>
  <fix>3d</fix>
</trkpt>
<trkpt lat="-27.2728049" lon="151.2885731">
  <ele>362.28</ele>
  <time>2026-09-01T19:55:43Z</time>
  <course>277.65</course>
  <speed>0.05099019513592785</speed>
  <fix>3d</fix>
</trkpt>
<trkpt lat="-27.2728048" lon="151.2885733">
  <ele>362.93</ele>
  <time>2026-09-01T19:55:43Z</time>
  <course>253.21</course>
  <speed>0.05</speed>
  <fix>3d</fix>
</trkpt>
<trkpt lat="-27.2728049" lon="151.2885731">
  <ele>362.13</ele>
  <time>2026-09-01T19:55:43Z</time>
  <course>277.7</course>
  <speed>0.05099019513592785</speed>
  <fix>3d</fix>
</trkpt>
<trkpt lat="-27.2728048" lon="151.2885732">
  <ele>362.63</ele>
  <time>2026-09-01T19:55:43Z</time>
  <course>259.56</course>
  <speed>0.04</speed>
  <fix>3d</fix>
</trkpt>
<trkpt lat="-27.2728049" lon="151.288573">
  <ele>361.98</ele>
  <time>2026-09-01T19:55:43Z</time>
  <course>277.75</course>
  <speed>0.05099019513592785</speed>
  <fix>3d</fix>
</trkpt>
<trkpt lat="-27.2728048" lon="151.2885732">
  <ele>362.63</ele>
  <time>2026-09-01T19:55:43Z</time>
  <course>259.56</course>
  <speed>0.04</speed>
  <fix>3d</fix>
</trkpt>
<trkpt lat="-27.2728049" lon="151.288573">
  <ele>361.83</ele>
  <time>2026-09-01T19:55:43Z</time>
  <course>277.81</course>
  <speed>0.0412310562561766</speed>
  <fix>3d</fix>
</trkpt>
<trkpt lat="-27.2728048" lon="151.2885731">
  <ele>362.33</ele>
  <time>2026-09-01T19:55:43Z</time>
  <course>266.47</course>
  <speed>0.03</speed>
  <fix>3d</fix>
</trkpt>
<trkpt lat="-27.2728049" lon="151.2885729">
  <ele>361.68</ele>
  <time>2026-09-01T19:55:43Z</time>
  <course>277.86</course>
  <speed>0.0412310562561766</speed>
  <fix>3d</fix>
</trkpt>
<trkpt lat="-27.2728048" lon="151.2885731">
  <ele>362.33</ele>
  <time>2026-09-01T19:55:43Z</time>
  <course>266.47</course>
  <speed>0.03</speed>
  <fix>3d</fix>
</trkpt>
<trkpt lat="-27.2728049" lon="151.2885729">
  <ele>361.53</ele>
  <time>2026-09-01T19:55:43Z</time>
  <course>277.92</course>
  <speed>0.04</speed>
  <fix>3d</fix>
</trkpt>
<trkpt lat="-27.2728048" lon="151.288573">
  <ele>362.02</ele>
  <time>2026-09-01T19:55:43Z</time>
  <course>273.4</course>
  <speed>0.03</speed>
  <fix>3d</fix>
</trkpt>
<trkpt lat="-27.2728049" lon="151.2885729">
  <ele>361.38</ele>
  <time>2026-09-01T19:55:43Z</time>
  <course>277.99</course>
  <speed>0.03</speed>
  <fix>3d</fix>
</trkpt>
<trkpt lat="-27.2728048" lon="151.288573">
  <ele>362.02</ele>
  <time>2026-09-01T19:55:43Z</time>
  <course>273.4</course>
  <speed>0.03</speed>
  <fix>3d</fix>
</trkpt>
<trkpt lat="-27.2728049" lon="151.2885729">
  <ele>361.22</ele>
  <time>2026-09-01T19:55:43Z</time>
  <course>278.05</course>
  <speed>0.03</speed>
  <fix>3d</fix>
</trkpt>
<trkpt lat="-27.2728048" lon="151.2885729">
  <ele>361.72</ele>
  <time>2026-09-01T19:55:43Z</time>
  <course>279.86</course>
  <speed>0.02</speed>
  <fix>3d</fix>
</trkpt>
<trkpt lat="-27.2728049" lon="151.2885728">
  <ele>361.07</ele>
  <time>2026-09-01T19:55:43Z</time>
  <course>278.1</course>
  <speed>0.03</speed>
  <fix>3d</fix>
</trkpt>
<trkpt lat="-27.2728048" lon="151.2885729">
  <ele>361.72</ele>
  <time>2026-09-01T19:55:43Z</time>
  <course>279.86</course>
  <speed>0.02</speed>
  <fix>3d</fix>
</trkpt>
<trkpt lat="-27.2728049" lon="151.2885728">
  <ele>360.92</ele>
  <time>2026-09-01T19:55:43Z</time>
  <course>278.14</course>
  <speed>0.03</speed>
  <fix>3d</fix>
</trkpt>
<trkpt lat="-27.2728048" lon="151.2885729">
  <ele>361.41</ele>
  <time>2026-09-01T19:55:43Z</time>
  <course>285.86</course>
  <speed>0.01</speed>
  <fix>3d</fix>
</trkpt>
<trkpt lat="-27.2728049" lon="151.2885728">
  <ele>360.77</ele>
  <time>2026-09-01T19:55:43Z</time>
  <course>278.17</course>
  <speed>0.03</speed>
  <fix>3d</fix>
</trkpt>
<trkpt lat="-27.2728048" lon="151.2885729">
  <ele>361.41</ele>
  <time>2026-09-01T19:55:43Z</time>
  <course>285.86</course>
  <speed>0.01</speed>
  <fix>3d</fix>
</trkpt>
<trkpt lat="-27.2728049" lon="151.2885728">
  <ele>360.62</ele>
  <time>2026-09-01T19:55:43Z</time>
  <course>278.21</course>
  <speed>0.02</speed>
  <fix>3d</fix>
</trkpt>
<trkpt lat="-27.2728048" lon="151.2885729">
  <ele>361.11</ele>
  <time>2026-09-01T19:55:43Z</time>
  <course>291.34</course>
  <speed>0.01</speed>
  <fix>3d</fix>
</trkpt>
<trkpt lat="-27.2728049" lon="151.2885728">
  <ele>360.47</ele>
  <time>2026-09-01T19:55:43Z</time>
  <course>278.26</course>
  <speed>0.02</speed>
  <fix>3d</fix>
</trkpt>
<trkpt lat="-27.2728048" lon="151.2885729">
  <ele>361.11</ele>
  <time>2026-09-01T19:55:43Z</time>
  <course>291.34</course>
  <speed>0.01</speed>
  <fix>3d</fix>
</trkpt>
<trkpt lat="-27.2728049" lon="151.2885728">
  <ele>360.32</ele>
  <time>2026-09-01T19:55:43Z</time>
  <course>278.3</course>
  <speed>0.02</speed>
  <fix>3d</fix>
</trkpt>
<trkpt lat="-27.2728048" lon="151.2885729">
  <ele>360.81</ele>
  <time>2026-09-01T19:55:43Z</time>
  <course>293.81</course>
  <speed>0.01</speed>
  <fix>3d</fix>
</trkpt>
<trkpt lat="-27.2728049" lon="151.2885727">
  <ele>360.16</ele>
  <time>2026-09-01T19:55:43Z</time>
  <course>278.33</course>
  <speed>0.02</speed>
  <fix>3d</fix>
</trkpt>
<trkpt lat="-27.2728048" lon="151.2885729">
  <ele>360.81</ele>
  <time>2026-09-01T19:55:43Z</time>
  <course>293.81</course>
  <speed>0.01</speed>
  <fix>3d</fix>
</trkpt>
<trkpt lat="-27.2728049" lon="151.2885728">
  <ele>360.01</ele>
  <time>2026-09-01T19:55:43Z</time>
  <course>278.35</course>
  <speed>0.02</speed>
  <fix>3d</fix>
</trkpt>
<trkpt lat="-27.2728048" lon="151.2885729">
  <ele>360.51</ele>
  <time>2026-09-01T19:55:43Z</time>
  <course>297.49</course>
  <speed>0.0</speed>
  <fix>3d</fix>
</trkpt>
<trkpt lat="-27.2728049" lon="151.2885727">
  <ele>359.86</ele>
  <time>2026-09-01T19:55:43Z</time>
  <course>278.37</course>
  <speed>0.01</speed>
  <fix>3d</fix>
</trkpt>
<trkpt lat="-27.2728048" lon="151.2885729">
  <ele>360.51</ele>
  <time>2026-09-01T19:55:43Z</time>
  <course>297.49</course>
  <speed>0.0</speed>
  <fix>3d</fix>
</trkpt>
<trkpt lat="-27.2728049" lon="151.2885728">
  <ele>359.7</ele>
  <time>2026-09-01T19:55:43Z</time>
  <course>278.38</course>
  <speed>0.01414213562373095</speed>
  <fix>3d</fix>
</trkpt>
<trkpt lat="-27.2728048" lon="151.2885729">
  <ele>360.21</ele>
  <time>2026-09-01T19:55:43Z</time>
  <course>321.71</course>
  <speed>0.0</speed>
  <fix>3d</fix>
</trkpt>
<trkpt lat="-27.2728049" lon="151.2885728">
  <ele>359.55</ele>
  <time>2026-09-01T19:55:43Z</time>
  <course>278.4</course>
  <speed>0.01414213562373095</speed>
  <fix>3d</fix>
</trkpt>
<trkpt lat="-27.2728048" lon="151.2885729">
  <ele>360.21</ele>
  <time>2026-09-01T19:55:43Z</time>
  <course>321.71</course>
  <speed>0.0</speed>
  <fix>3d</fix>
</trkpt>
<trkpt lat="-27.2728049" lon="151.2885728">
  <ele>359.4</ele>
  <time>2026-09-01T19:55:43Z</time>
  <course>278.44</course>
  <speed>0.01414213562373095</speed>
  <fix>3d</fix>
</trkpt>
<trkpt lat="-27.2728048" lon="151.2885729">
  <ele>359.91</ele>
  <time>2026-09-01T19:55:43Z</time>
  <course>84.1</course>
  <speed>0.0</speed>
  <fix>3d</fix>
</trkpt>
<trkpt lat="-27.2728049" lon="151.2885728">
  <ele>359.25</ele>
  <time>2026-09-01T19:55:43Z</time>
  <course>278.47</course>
  <speed>0.01414213562373095</speed>
  <fix>3d</fix>
</trkpt>
<trkpt lat="-27.2728048" lon="151.2885729">
  <ele>359.91</ele>
  <time>2026-09-01T19:55:43Z</time>
  <course>84.1</course>
  <speed>0.0</speed>
  <fix>3d</fix>
</trkpt>
<trkpt lat="-27.2728049" lon="151.2885728">
  <ele>359.1</ele>
  <time>2026-09-01T19:55:43Z</time>
  <course>278.51</course>
  <speed>0.022360679774997897</speed>
  <fix>3d</fix>
</trkpt>
<trkpt lat="-27.2728048" lon="151.2885729">
  <ele>359.61</ele>
  <time>2026-09-01T19:55:43Z</time>
  <course>103.13</course>
  <speed>0.0</speed>
  <fix>3d</fix>
</trkpt>
<trkpt lat="-27.2728049" lon="151.2885728">
  <ele>358.95</ele>
  <time>2026-09-01T19:55:43Z</time>
  <course>278.55</course>
  <speed>0.02</speed>
  <fix>3d</fix>
</trkpt>
<trkpt lat="-27.2728048" lon="151.2885729">
  <ele>359.61</ele>
  <time>2026-09-01T19:55:43Z</time>
  <course>103.13</course>
  <speed>0.0</speed>
  <fix>3d</fix>
</trkpt>
<trkpt lat="-27.2728049" lon="151.2885728">
  <ele>358.8</ele>
  <time>2026-09-01T19:55:43Z</time>
  <course>278.58</course>
  <speed>0.02</speed>
  <fix>3d</fix>
</trkpt>
<trkpt lat="-27.2728048" lon="151.2885729">
  <ele>359.31</ele>
  <time>2026-09-01T19:55:43Z</time>
  <course>109.56</course>
  <speed>0.0</speed>
  <fix>3d</fix>
</trkpt>
<trkpt lat="-27.2728049" lon="151.2885728">
  <ele>358.65</ele>
  <time>2026-09-01T19:55:43Z</time>
  <course>278.61</course>
  <speed>0.02</speed>
  <fix>3d</fix>
</trkpt>
<trkpt lat="-27.2728048" lon="151.2885729">
  <ele>359.31</ele>
  <time>2026-09-01T19:55:43Z</time>
  <course>109.56</course>
  <speed>0.0</speed>
  <fix>3d</fix>
</trkpt>
<trkpt lat="-27.2728049" lon="151.2885728">
  <ele>358.51</ele>
  <time>2026-09-01T19:55:43Z</time>
  <course>278.63</course>
  <speed>0.02</speed>
  <fix>3d</fix>
</trkpt>
<trkpt lat="-27.2728048" lon="151.2885729">
  <ele>359.01</ele>
  <time>2026-09-01T19:55:43Z</time>
  <course>113.1</course>
  <speed>0.01</speed>
  <fix>3d</fix>
</trkpt>
<trkpt lat="-27.2728049" lon="151.2885728">
  <ele>358.36</ele>
  <time>2026-09-01T19:55:43Z</time>
  <course>278.66</course>
  <speed>0.02</speed>
  <fix>3d</fix>
</trkpt>
<trkpt lat="-27.2728048" lon="151.2885729">
  <ele>359.01</ele>
  <time>2026-09-01T19:55:43Z</time>
  <course>113.1</course>
  <speed>0.01</speed>
  <fix>3d</fix>
</trkpt>
<trkpt lat="-27.2728049" lon="151.2885728">
  <ele>358.21</ele>
  <time>2026-09-01T19:55:43Z</time>
  <course>278.69</course>
  <speed>0.02</speed>
  <fix>3d</fix>
</trkpt>
<trkpt lat="-27.2728048" lon="151.2885729">
  <ele>358.72</ele>
  <time>2026-09-01T19:55:43Z</time>
  <course>114.97</course>
  <speed>0.01</speed>
  <fix>3d</fix>
</trkpt>
<trkpt lat="-27.2728049" lon="151.2885728">
  <ele>358.06</ele>
  <time>2026-09-01T19:55:43Z</time>
  <course>278.72</course>
  <speed>0.02</speed>
  <fix>3d</fix>
</trkpt>
<trkpt lat="-27.2728048" lon="151.2885729">
  <ele>358.72</ele>
  <time>2026-09-01T19:55:43Z</time>
  <course>114.97</course>
  <speed>0.01</speed>
  <fix>3d</fix>
</trkpt>
<trkpt lat="-27.2728049" lon="151.2885728">
  <ele>357.91</ele>
  <time>2026-09-01T19:55:43Z</time>
  <course>278.76</course>
  <speed>0.02</speed>
  <fix>3d</fix>
</trkpt>
<trkpt lat="-27.2728048" lon="151.2885729">
  <ele>358.41</ele>
  <time>2026-09-01T19:55:43Z</time>
  <course>117.2</course>
  <speed>0.01</speed>
  <fix>3d</fix>
</trkpt>
<trkpt lat="-27.2728049" lon="151.2885728">
  <ele>357.76</ele>
  <time>2026-09-01T19:55:43Z</time>
  <course>278.8</course>
  <speed>0.02</speed>
  <fix>3d</fix>
</trkpt>
<trkpt lat="-27.2728048" lon="151.2885729">
  <ele>358.41</ele>
  <time>2026-09-01T19:55:43Z</time>
  <course>117.2</course>
  <speed>0.01</speed>
  <fix>3d</fix>
</trkpt>
<trkpt lat="-27.2728049" lon="151.2885728">
  <ele>357.61</ele>
  <time>2026-09-01T19:55:43Z</time>
  <course>278.82</course>
  <speed>0.02</speed>
  <fix>3d</fix>
</trkpt>
<trkpt lat="-27.2728048" lon="151.2885729">
  <ele>358.12</ele>
  <time>2026-09-01T19:55:43Z</time>
  <course>119.07</course>
  <speed>0.01</speed>
  <fix>3d</fix>
</trkpt>
<trkpt lat="-27.272805" lon="151.2885728">
  <ele>357.46</ele>
  <time>2026-09-01T19:55:43Z</time>
  <course>278.85</course>
  <speed>0.02</speed>
  <fix>3d</fix>
</trkpt>
<trkpt lat="-27.2728048" lon="151.2885729">
  <ele>358.12</ele>
  <time>2026-09-01T19:55:43Z</time>
  <course>119.07</course>
  <speed>0.01</speed>
  <fix>3d</fix>
</trkpt>
<trkpt lat="-27.272805" lon="151.2885728">
  <ele>357.31</ele>
  <time>2026-09-01T19:55:43Z</time>
  <course>278.87</course>
  <speed>0.02</speed>
  <fix>3d</fix>
</trkpt>
<trkpt lat="-27.2728048" lon="151.2885729">
  <ele>357.82</ele>
  <time>2026-09-01T19:55:43Z</time>
  <course>120.93</course>
  <speed>0.01</speed>
  <fix>3d</fix>
</trkpt>
<trkpt lat="-27.272805" lon="151.2885728">
  <ele>357.16</ele>
  <time>2026-09-01T19:55:43Z</time>
  <course>278.88</course>
  <speed>0.02</speed>
  <fix>3d</fix>
</trkpt>
<trkpt lat="-27.2728048" lon="151.2885729">
  <ele>357.82</ele>
  <time>2026-09-01T19:55:43Z</time>
  <course>120.93</course>
  <speed>0.01</speed>
  <fix>3d</fix>
</trkpt>
<trkpt lat="-27.272805" lon="151.2885728">
  <ele>357.01</ele>
  <time>2026-09-01T19:55:43Z</time>
  <course>278.89</course>
  <speed>0.03</speed>
  <fix>3d</fix>
</trkpt>
<trkpt lat="-27.2728048" lon="151.2885729">
  <ele>357.53</ele>
  <time>2026-09-01T19:55:43Z</time>
  <course>122.32</course>
  <speed>0.01</speed>
  <fix>3d</fix>
</trkpt>
<trkpt lat="-27.272805" lon="151.2885728">
  <ele>356.85</ele>
  <time>2026-09-01T19:55:43Z</time>
  <course>278.91</course>
  <speed>0.03</speed>
  <fix>3d</fix>
</trkpt>
<trkpt lat="-27.2728048" lon="151.2885729">
  <ele>357.53</ele>
  <time>2026-09-01T19:55:43Z</time>
  <course>122.32</course>
  <speed>0.01</speed>
  <fix>3d</fix>
</trkpt>
<trkpt lat="-27.272805" lon="151.2885728">
  <ele>356.7</ele>
  <time>2026-09-01T19:55:43Z</time>
  <course>278.94</course>
  <speed>0.03</speed>
  <fix>3d</fix>
</trkpt>
<trkpt lat="-27.2728049" lon="151.2885729">
  <ele>357.22</ele>
  <time>2026-09-01T19:55:43Z</time>
  <course>125.51</course>
  <speed>0.02</speed>
  <fix>3d</fix>
</trkpt>
<trkpt lat="-27.272805" lon="151.2885728">
  <ele>356.55</ele>
  <time>2026-09-01T19:55:43Z</time>
  <course>278.97</course>
  <speed>0.03</speed>
  <fix>3d</fix>
</trkpt>
<trkpt lat="-27.2728049" lon="151.2885729">
  <ele>357.22</ele>
  <time>2026-09-01T19:55:43Z</time>
  <course>125.51</course>
  <speed>0.02</speed>
  <fix>3d</fix>
</trkpt>
<trkpt lat="-27.272805" lon="151.2885728">
  <ele>356.4</ele>
  <time>2026-09-01T19:55:43Z</time>
  <course>279.02</course>
  <speed>0.03</speed>
  <fix>3d</fix>
</trkpt>
<trkpt lat="-27.272805" lon="151.288573">
  <ele>356.93</ele>
  <time>2026-09-01T19:55:43Z</time>
  <course>129.17</course>
  <speed>0.02</speed>
  <fix>3d</fix>
</trkpt>
<trkpt lat="-27.272805" lon="151.2885728">
  <ele>356.25</ele>
  <time>2026-09-01T19:55:43Z</time>
  <course>279.07</course>
  <speed>0.03</speed>
  <fix>3d</fix>
</trkpt>
<trkpt lat="-27.272805" lon="151.288573">
  <ele>356.93</ele>
  <time>2026-09-01T19:55:43Z</time>
  <course>129.17</course>
  <speed>0.02</speed>
  <fix>3d</fix>
</trkpt>
<trkpt lat="-27.2728051" lon="151.2885729">
  <ele>356.1</ele>
  <time>2026-09-01T19:55:43Z</time>
  <course>279.11</course>
  <speed>0.03</speed>
  <fix>3d</fix>
</trkpt>
<trkpt lat="-27.272805" lon="151.288573">
  <ele>356.63</ele>
  <time>2026-09-01T19:55:43Z</time>
  <course>131.48</course>
  <speed>0.02</speed>
  <fix>3d</fix>
</trkpt>
<trkpt lat="-27.2728051" lon="151.2885729">
  <ele>355.96</ele>
  <time>2026-09-01T19:55:43Z</time>
  <course>279.16</course>
  <speed>0.03</speed>
  <fix>3d</fix>
</trkpt>
<trkpt lat="-27.272805" lon="151.288573">
  <ele>356.63</ele>
  <time>2026-09-01T19:55:43Z</time>
  <course>131.48</course>
  <speed>0.02</speed>
  <fix>3d</fix>
</trkpt>
<trkpt lat="-27.2728051" lon="151.2885729">
  <ele>355.81</ele>
  <time>2026-09-01T19:55:43Z</time>
  <course>279.21</course>
  <speed>0.03</speed>
  <fix>3d</fix>
</trkpt>
<trkpt lat="-27.272805" lon="151.288573">
  <ele>356.33</ele>
  <time>2026-09-01T19:55:43Z</time>
  <course>134.88</course>
  <speed>0.02</speed>
  <fix>3d</fix>
</trkpt>
<trkpt lat="-27.2728051" lon="151.2885729">
  <ele>355.66</ele>
  <time>2026-09-01T19:55:43Z</time>
  <course>279.25</course>
  <speed>0.03</speed>
  <fix>3d</fix>
</trkpt>
<trkpt lat="-27.272805" lon="151.288573">
  <ele>356.33</ele>
  <time>2026-09-01T19:55:43Z</time>
  <course>134.88</course>
  <speed>0.02</speed>
  <fix>3d</fix>
</trkpt>
<trkpt lat="-27.2728051" lon="151.2885729">
  <ele>355.51</ele>
  <time>2026-09-01T19:55:43Z</time>
  <course>279.29</course>
  <speed>0.03</speed>
  <fix>3d</fix>
</trkpt>
<trkpt lat="-27.272805" lon="151.2885731">
  <ele>356.03</ele>
  <time>2026-09-01T19:55:43Z</time>
  <course>137.74</course>
  <speed>0.02</speed>
  <fix>3d</fix>
</trkpt>
<trkpt lat="-27.2728052" lon="151.2885729">
  <ele>355.36</ele>
  <time>2026-09-01T19:55:43Z</time>
  <course>279.33</course>
  <speed>0.03</speed>
  <fix>3d</fix>
</trkpt>
<trkpt lat="-27.272805" lon="151.2885731">
  <ele>356.03</ele>
  <time>2026-09-01T19:55:43Z</time>
  <course>137.74</course>
  <speed>0.02</speed>
  <fix>3d</fix>
</trkpt>
<trkpt lat="-27.2728052" lon="151.2885729">
  <ele>355.22</ele>
  <time>2026-09-01T19:55:43Z</time>
  <course>279.36</course>
  <speed>0.03</speed>
  <fix>3d</fix>
</trkpt>
<trkpt lat="-27.2728051" lon="151.2885732">
  <ele>355.74</ele>
  <time>2026-09-01T19:55:43Z</time>
  <course>140.22</course>
  <speed>0.02</speed>
  <fix>3d</fix>
</trkpt>
<trkpt lat="-27.2728052" lon="151.2885729">
  <ele>355.07</ele>
  <time>2026-09-01T19:55:43Z</time>
  <course>279.39</course>
  <speed>0.03</speed>
  <fix>3d</fix>
</trkpt>
<trkpt lat="-27.2728051" lon="151.2885732">
  <ele>355.74</ele>
  <time>2026-09-01T19:55:43Z</time>
  <course>140.22</course>
  <speed>0.02</speed>
  <fix>3d</fix>
</trkpt>
<trkpt lat="-27.2728052" lon="151.2885729">
  <ele>354.92</ele>
  <time>2026-09-01T19:55:43Z</time>
  <course>279.41</course>
  <speed>0.0412310562561766</speed>
  <fix>3d</fix>
</trkpt>
<trkpt lat="-27.2728051" lon="151.2885732">
  <ele>355.44</ele>
  <time>2026-09-01T19:55:43Z</time>
  <course>142.88</course>
  <speed>0.02</speed>
  <fix>3d</fix>
</trkpt>
<trkpt lat="-27.2728053" lon="151.288573">
  <ele>354.77</ele>
  <time>2026-09-01T19:55:43Z</time>
  <course>279.44</course>
  <speed>0.0412310562561766</speed>
  <fix>3d</fix>
</trkpt>
<trkpt lat="-27.2728051" lon="151.2885732">
  <ele>355.44</ele>
  <time>2026-09-01T19:55:43Z</time>
  <course>142.88</course>
  <speed>0.02</speed>
  <fix>3d</fix>
</trkpt>
<trkpt lat="-27.2728053" lon="151.288573">
  <ele>354.62</ele>
  <time>2026-09-01T19:55:43Z</time>
  <course>279.47</course>
  <speed>0.0412310562561766</speed>
  <fix>3d</fix>
</trkpt>
<trkpt lat="-27.2728051" lon="151.2885732">
  <ele>355.14</ele>
  <time>2026-09-01T19:55:43Z</time>
  <course>145.75</course>
  <speed>0.02</speed>
  <fix>3d</fix>
</trkpt>
<trkpt lat="-27.2728053" lon="151.288573">
  <ele>354.47</ele>
  <time>2026-09-01T19:55:43Z</time>
  <course>279.51</course>
  <speed>0.0412310562561766</speed>
  <fix>3d</fix>
</trkpt>
<trkpt lat="-27.2728051" lon="151.2885732">
  <ele>355.14</ele>
  <time>2026-09-01T19:55:43Z</time>
  <course>145.75</course>
  <speed>0.02</speed>
  <fix>3d</fix>
</trkpt>
<trkpt lat="-27.2728053" lon="151.288573">
  <ele>354.33</ele>
  <time>2026-09-01T19:55:43Z</time>
  <course>279.56</course>
  <speed>0.0412310562561766</speed>
  <fix>3d</fix>
</trkpt>
<trkpt lat="-27.2728052" lon="151.2885733">
  <ele>354.84</ele>
  <time>2026-09-01T19:55:43Z</time>
  <course>149.71</course>
  <speed>0.02</speed>
  <fix>3d</fix>
</trkpt>
<trkpt lat="-27.2728053" lon="151.288573">
  <ele>354.18</ele>
  <time>2026-09-01T19:55:43Z</time>
  <course>279.6</course>
  <speed>0.0412310562561766</speed>
  <fix>3d</fix>
</trkpt>
<trkpt lat="-27.2728052" lon="151.2885733">
  <ele>354.84</ele>
  <time>2026-09-01T19:55:43Z</time>
  <course>149.71</course>
  <speed>0.02</speed>
  <fix>3d</fix>
</trkpt>
<trkpt lat="-27.2728054" lon="151.288573">
  <ele>354.04</ele>
  <time>2026-09-01T19:55:43Z</time>
  <course>279.65</course>
  <speed>0.0412310562561766</speed>
  <fix>3d</fix>
</trkpt>
<trkpt lat="-27.2728052" lon="151.2885733">
  <ele>354.54</ele>
  <time>2026-09-01T19:55:43Z</time>
  <course>153.67</course>
  <speed>0.02</speed>
  <fix>3d</fix>
</trkpt>
<trkpt lat="-27.2728054" lon="151.288573">
  <ele>353.89</ele>
  <time>2026-09-01T19:55:43Z</time>
  <course>279.69</course>
  <speed>0.0412310562561766</speed>
  <fix>3d</fix>
</trkpt>
<trkpt lat="-27.2728052" lon="151.2885733">
  <ele>354.54</ele>
  <time>2026-09-01T19:55:43Z</time>
  <course>153.67</course>
  <speed>0.02</speed>
  <fix>3d</fix>
</trkpt>
<trkpt lat="-27.2728054" lon="151.2885731">
  <ele>353.75</ele>
  <time>2026-09-01T19:55:43Z</time>
  <course>279.73</course>
  <speed>0.0316227766016838</speed>
  <fix>3d</fix>
</trkpt>
<trkpt lat="-27.2728053" lon="151.2885733">
  <ele>354.25</ele>
  <time>2026-09-01T19:55:43Z</time>
  <course>157.01</course>
  <speed>0.02</speed>
  <fix>3d</fix>
</trkpt>
<trkpt lat="-27.2728054" lon="151.2885731">
  <ele>353.61</ele>
  <time>2026-09-01T19:55:43Z</time>
  <course>279.75</course>
  <speed>0.0316227766016838</speed>
  <fix>3d</fix>
</trkpt>
<trkpt lat="-27.2728053" lon="151.2885733">
  <ele>354.25</ele>
  <time>2026-09-01T19:55:43Z</time>
  <course>157.01</course>
  <speed>0.02</speed>
  <fix>3d</fix>
</trkpt>
<trkpt lat="-27.2728054" lon="151.2885731">
  <ele>353.47</ele>
  <time>2026-09-01T19:55:43Z</time>
  <course>279.77</course>
  <speed>0.0412310562561766</speed>
  <fix>3d</fix>
</trkpt>
<trkpt lat="-27.2728053" lon="151.2885733">
  <ele>353.96</ele>
  <time>2026-09-01T19:55:43Z</time>
  <course>159.2</course>
  <speed>0.02</speed>
  <fix>3d</fix>
</trkpt>
<trkpt lat="-27.2728055" lon="151.2885731">
  <ele>353.34</ele>
  <time>2026-09-01T19:55:43Z</time>
  <course>279.79</course>
  <speed>0.0412310562561766</speed>
  <fix>3d</fix>
</trkpt>
<trkpt lat="-27.2728053" lon="151.2885733">
  <ele>353.96</ele>
  <time>2026-09-01T19:55:43Z</time>
  <course>159.2</course>
  <speed>0.02</speed>
  <fix>3d</fix>
</trkpt>
<trkpt lat="-27.2728055" lon="151.2885731">
  <ele>353.2</ele>
  <time>2026-09-01T19:55:43Z</time>
  <course>279.81</course>
  <speed>0.0412310562561766</speed>
  <fix>3d</fix>
</trkpt>
<trkpt lat="-27.2728054" lon="151.2885734">
  <ele>353.68</ele>
  <time>2026-09-01T19:55:43Z</time>
  <course>159.91</course>
  <speed>0.02</speed>
  <fix>3d</fix>
</trkpt>
<trkpt lat="-27.2728055" lon="151.2885731">
  <ele>353.07</ele>
  <time>2026-09-01T19:55:43Z</time>
  <course>279.83</course>
  <speed>0.0412310562561766</speed>
  <fix>3d</fix>
</trkpt>
<trkpt lat="-27.2728054" lon="151.2885734">
  <ele>353.68</ele>
  <time>2026-09-01T19:55:43Z</time>
  <course>159.91</course>
  <speed>0.02</speed>
  <fix>3d</fix>
</trkpt>
<trkpt lat="-27.2728055" lon="151.2885732">
  <ele>352.94</ele>
  <time>2026-09-01T19:55:43Z</time>
  <course>279.85</course>
  <speed>0.04</speed>
  <fix>3d</fix>
</trkpt>
<trkpt lat="-27.2728054" lon="151.2885734">
  <ele>353.41</ele>
  <time>2026-09-01T19:55:43Z</time>
  <course>159.36</course>
  <speed>0.02</speed>
  <fix>3d</fix>
</trkpt>
<trkpt lat="-27.2728056" lon="151.2885732">
  <ele>352.81</ele>
  <time>2026-09-01T19:55:43Z</time>
  <course>279.88</course>
  <speed>0.04</speed>
  <fix>3d</fix>
</trkpt>
<trkpt lat="-27.2728054" lon="151.2885734">
  <ele>353.41</ele>
  <time>2026-09-01T19:55:43Z</time>
  <course>159.36</course>
  <speed>0.02</speed>
  <fix>3d</fix>
</trkpt>
<trkpt lat="-27.2728056" lon="151.2885732">
  <ele>352.69</ele>
  <time>2026-09-01T19:55:43Z</time>
  <course>279.91</course>
  <speed>0.04</speed>
  <fix>3d</fix>
</trkpt>
<trkpt lat="-27.2728055" lon="151.2885734">
  <ele>353.15</ele>
  <time>2026-09-01T19:55:43Z</time>
  <course>157.8</course>
  <speed>0.03</speed>
  <fix>3d</fix>
</trkpt>
<trkpt lat="-27.2728056" lon="151.2885732">
  <ele>352.57</ele>
  <time>2026-09-01T19:55:43Z</time>
  <course>279.95</course>
  <speed>0.04</speed>
  <fix>3d</fix>
</trkpt>
<trkpt lat="-27.2728055" lon="151.2885734">
  <ele>353.15</ele>
  <time>2026-09-01T19:55:43Z</time>
  <course>157.8</course>
  <speed>0.03</speed>
  <fix>3d</fix>
</trkpt>
<trkpt lat="-27.2728057" lon="151.2885732">
  <ele>352.45</ele>
  <time>2026-09-01T19:55:43Z</time>
  <course>279.99</course>
  <speed>0.04</speed>
  <fix>3d</fix>
</trkpt>
<trkpt lat="-27.2728055" lon="151.2885734">
  <ele>352.9</ele>
  <time>2026-09-01T19:55:43Z</time>
  <course>156.25</course>
  <speed>0.03</speed>
  <fix>3d</fix>
</trkpt>
<trkpt lat="-27.2728057" lon="151.2885732">
  <ele>352.34</ele>
  <time>2026-09-01T19:55:43Z</time>
  <course>280.03</course>
  <speed>0.04</speed>
  <fix>3d</fix>
</trkpt>
<trkpt lat="-27.2728055" lon="151.2885734">
  <ele>352.9</ele>
  <time>2026-09-01T19:55:43Z</time>
  <course>156.25</course>
  <speed>0.03</speed>
  <fix>3d</fix>
</trkpt>
<trkpt lat="-27.2728057" lon="151.2885732">
  <ele>352.23</ele>
  <time>2026-09-01T19:55:43Z</time>
  <course>280.06</course>
  <speed>0.04</speed>
  <fix>3d</fix>
</trkpt>
<trkpt lat="-27.2728056" lon="151.2885734">
  <ele>352.66</ele>
  <time>2026-09-01T19:55:43Z</time>
  <course>155.15</course>
  <speed>0.03</speed>
  <fix>3d</fix>
</trkpt>
<trkpt lat="-27.2728057" lon="151.2885732">
  <ele>352.12</ele>
  <time>2026-09-01T19:55:43Z</time>
  <course>280.05</course>
  <speed>0.04</speed>
  <fix>3d</fix>
</trkpt>
<trkpt lat="-27.2728056" lon="151.2885734">
  <ele>352.66</ele>
  <time>2026-09-01T19:55:43Z</time>
  <course>155.15</course>
  <speed>0.03</speed>
  <fix>3d</fix>
</trkpt>
<trkpt lat="-27.2728058" lon="151.2885733">
  <ele>352.01</ele>
  <time>2026-09-01T19:55:43Z</time>
  <course>279.99</course>
  <speed>0.03</speed>
  <fix>3d</fix>
</trkpt>
<trkpt lat="-27.2728056" lon="151.2885734">
  <ele>352.44</ele>
  <time>2026-09-01T19:55:43Z</time>
  <course>151.95</course>
  <speed>0.03</speed>
  <fix>3d</fix>
</trkpt>
<trkpt lat="-27.2728058" lon="151.2885733">
  <ele>351.91</ele>
  <time>2026-09-01T19:55:43Z</time>
  <course>279.86</course>
  <speed>0.02</speed>
  <fix>3d</fix>
</trkpt>
<trkpt lat="-27.2728056" lon="151.2885734">
  <ele>352.44</ele>
  <time>2026-09-01T19:55:43Z</time>
  <course>151.95</course>
  <speed>0.03</speed>
  <fix>3d</fix>
</trkpt>
<trkpt lat="-27.2728058" lon="151.2885733">
  <ele>351.81</ele>
  <time>2026-09-01T19:55:43Z</time>
  <course>279.66</course>
  <speed>0.01</speed>
  <fix>3d</fix>
</trkpt>
<trkpt lat="-27.2728057" lon="151.2885734">
  <ele>352.21</ele>
  <time>2026-09-01T19:55:43Z</time>
  <course>138.6</course>
  <speed>0.02</speed>
  <fix>3d</fix>
</trkpt>
<trkpt lat="-27.2728058" lon="151.2885733">
  <ele>351.71</ele>
  <time>2026-09-01T19:55:43Z</time>
  <course>279.4</course>
  <speed>0.0</speed>
  <fix>3d</fix>
</trkpt>
<trkpt lat="-27.2728057" lon="151.2885734">
  <ele>352.21</ele>
  <time>2026-09-01T19:55:43Z</time>
  <course>138.6</course>
  <speed>0.02</speed>
  <fix>3d</fix>
</trkpt>
<trkpt lat="-27.2728058" lon="151.2885733">
  <ele>351.61</ele>
  <time>2026-09-01T19:55:43Z</time>
  <course>279.12</course>
  <speed>0.0</speed>
  <fix>3d</fix>
</trkpt>
<trkpt lat="-27.2728057" lon="151.2885735">
  <ele>352.01</ele>
  <time>2026-09-01T19:55:43Z</time>
  <course>94.3</course>
  <speed>0.01</speed>
  <fix>3d</fix>
</trkpt>
<trkpt lat="-27.2728057" lon="151.2885733">
  <ele>351.51</ele>
  <time>2026-09-01T19:55:43Z</time>
  <course>278.84</course>
  <speed>0.01</speed>
  <fix>3d</fix>
</trkpt>
<trkpt lat="-27.2728057" lon="151.2885735">
  <ele>352.01</ele>
  <time>2026-09-01T19:55:43Z</time>
  <course>94.3</course>
  <speed>0.01</speed>
  <fix>3d</fix>
</trkpt>
<trkpt lat="-27.2728057" lon="151.2885734">
  <ele>351.41</ele>
  <time>2026-09-01T19:55:43Z</time>
  <course>278.61</course>
  <speed>0.03</speed>
  <fix>3d</fix>
</trkpt>
<trkpt lat="-27.2728057" lon="151.2885736">
  <ele>351.81</ele>
  <time>2026-09-01T19:55:43Z</time>
  <course>49.0</course>
  <speed>0.03</speed>
  <fix>3d</fix>
</trkpt>
<trkpt lat="-27.2728057" lon="151.2885734">
  <ele>351.32</ele>
  <time>2026-09-01T19:55:43Z</time>
  <course>278.42</course>
  <speed>0.0412310562561766</speed>
  <fix>3d</fix>
</trkpt>
<trkpt lat="-27.2728057" lon="151.2885736">
  <ele>351.81</ele>
  <time>2026-09-01T19:55:43Z</time>
  <course>49.0</course>
  <speed>0.03</speed>
  <fix>3d</fix>
</trkpt>
<trkpt lat="-27.2728057" lon="151.2885734">
  <ele>351.22</ele>
  <time>2026-09-01T19:55:43Z</time>
  <course>278.3</course>
  <speed>0.05099019513592785</speed>
  <fix>3d</fix>
</trkpt>
<trkpt lat="-27.2728057" lon="151.2885736">
  <ele>351.61</ele>
  <time>2026-09-01T19:55:43Z</time>
  <course>32.75</course>
  <speed>0.05</speed>
  <fix>3d</fix>
</trkpt>
<trkpt lat="-27.2728056" lon="151.2885735">
  <ele>351.13</ele>
  <time>2026-09-01T19:55:43Z</time>
  <course>278.22</course>
  <speed>0.06082762530298219</speed>
  <fix>3d</fix>
</trkpt>
<trkpt lat="-27.2728057" lon="151.2885736">
  <ele>351.61</ele>
  <time>2026-09-01T19:55:43Z</time>
  <course>32.75</course>
  <speed>0.05</speed>
  <fix>3d</fix>
</trkpt>
<trkpt lat="-27.2728056" lon="151.2885735">
  <ele>351.04</ele>
  <time>2026-09-01T19:55:43Z</time>
  <course>278.19</course>
  <speed>0.07071067811865475</speed>
  <fix>3d</fix>
</trkpt>
<trkpt lat="-27.2728056" lon="151.2885737">
  <ele>351.42</ele>
  <time>2026-09-01T19:55:43Z</time>
  <course>26.1</course>
  <speed>0.07</speed>
  <fix>3d</fix>
</trkpt>
<trkpt lat="-27.2728055" lon="151.2885736">
  <ele>350.95</ele>
  <time>2026-09-01T19:55:43Z</time>
  <course>278.19</course>
  <speed>0.0824621125123532</speed>
  <fix>3d</fix>
</trkpt>
<trkpt lat="-27.2728056" lon="151.2885737">
  <ele>351.42</ele>
  <time>2026-09-01T19:55:43Z</time>
  <course>26.1</course>
  <speed>0.07</speed>
  <fix>3d</fix>
</trkpt>
<trkpt lat="-27.2728054" lon="151.2885736">
  <ele>350.87</ele>
  <time>2026-09-01T19:55:43Z</time>
  <course>278.2</course>
  <speed>0.09219544457292887</speed>
  <fix>3d</fix>
</trkpt>
<trkpt lat="-27.2728054" lon="151.2885737">
  <ele>351.24</ele>
  <time>2026-09-01T19:55:43Z</time>
  <course>22.56</course>
  <speed>0.1</speed>
  <fix>3d</fix>
</trkpt>
<trkpt lat="-27.2728053" lon="151.2885736">
  <ele>350.78</ele>
  <time>2026-09-01T19:55:43Z</time>
  <course>278.22</course>
  <speed>0.1019803902718557</speed>
  <fix>3d</fix>
</trkpt>
<trkpt lat="-27.2728054" lon="151.2885737">
  <ele>351.24</ele>
  <time>2026-09-01T19:55:43Z</time>
  <course>22.56</course>
  <speed>0.1</speed>
  <fix>3d</fix>
</trkpt>
<trkpt lat="-27.2728052" lon="151.2885737">
  <ele>350.7</ele>
  <time>2026-09-01T19:55:43Z</time>
  <course>278.22</course>
  <speed>0.1118033988749895</speed>
  <fix>3d</fix>
</trkpt>
<trkpt lat="-27.2728053" lon="151.2885738">
  <ele>351.06</ele>
  <time>2026-09-01T19:55:43Z</time>
  <course>20.29</course>
  <speed>0.12</speed>
  <fix>3d</fix>
</trkpt>
<trkpt lat="-27.2728051" lon="151.2885737">
  <ele>350.62</ele>
  <time>2026-09-01T19:55:43Z</time>
  <course>278.22</course>
  <speed>0.12165525060596438</speed>
  <fix>3d</fix>
</trkpt>
<trkpt lat="-27.2728053" lon="151.2885738">
  <ele>351.06</ele>
  <time>2026-09-01T19:55:43Z</time>
  <course>20.29</course>
  <speed>0.12</speed>
  <fix>3d</fix>
</trkpt>
<trkpt lat="-27.2728049" lon="151.2885738">
  <ele>350.54</ele>
  <time>2026-09-01T19:55:43Z</time>
  <course>278.21</course>
  <speed>0.12165525060596438</speed>
  <fix>3d</fix>
</trkpt>
<trkpt lat="-27.272805" lon="151.2885739">
  <ele>350.89</ele>
  <time>2026-09-01T19:55:43Z</time>
  <course>18.6</course>
  <speed>0.13</speed>
  <fix>3d</fix>
</trkpt>
<trkpt lat="-27.2728048" lon="151.2885738">
  <ele>350.46</ele>
  <time>2026-09-01T19:55:43Z</time>
  <course>278.19</course>
  <speed>0.13152946437965907</speed>
  <fix>3d</fix>
</trkpt>
<trkpt lat="-27.272805" lon="151.2885739">
  <ele>350.89</ele>
  <time>2026-09-01T19:55:43Z</time>
  <course>18.6</course>
  <speed>0.13</speed>
  <fix>3d</fix>
</trkpt>
<trkpt lat="-27.2728047" lon="151.2885739">
  <ele>350.38</ele>
  <time>2026-09-01T19:55:43Z</time>
  <course>278.15</course>
  <speed>0.13152946437965907</speed>
  <fix>3d</fix>
</trkpt>
<trkpt lat="-27.2728047" lon="151.288574">
  <ele>350.72</ele>
  <time>2026-09-01T19:55:43Z</time>
  <course>17.1</course>
  <speed>0.15</speed>
  <fix>3d</fix>
</trkpt>
<trkpt lat="-27.2728045" lon="151.2885739">
  <ele>350.31</ele>
  <time>2026-09-01T19:55:43Z</time>
  <course>278.11</course>
  <speed>0.1414213562373095</speed>
  <fix>3d</fix>
</trkpt>
<trkpt lat="-27.2728047" lon="151.288574">
  <ele>350.72</ele>
  <time>2026-09-01T19:55:43Z</time>
  <course>17.1</course>
  <speed>0.15</speed>
  <fix>3d</fix>
</trkpt>
<trkpt lat="-27.2728044" lon="151.2885739">
  <ele>350.23</ele>
  <time>2026-09-01T19:55:43Z</time>
  <course>278.07</course>
  <speed>0.1414213562373095</speed>
  <fix>3d</fix>
</trkpt>
<trkpt lat="-27.2728045" lon="151.2885741">
  <ele>350.56</ele>
  <time>2026-09-01T19:55:43Z</time>
  <course>15.73</course>
  <speed>0.16</speed>
  <fix>3d</fix>
</trkpt>
<trkpt lat="-27.2728043" lon="151.288574">
  <ele>350.16</ele>
  <time>2026-09-01T19:55:43Z</time>
  <course>278.03</course>
  <speed>0.1414213562373095</speed>
  <fix>3d</fix>
</trkpt>
<trkpt lat="-27.2728045" lon="151.2885741">
  <ele>350.56</ele>
  <time>2026-09-01T19:55:43Z</time>
  <course>15.73</course>
  <speed>0.16</speed>
  <fix>3d</fix>
</trkpt>
<trkpt lat="-27.2728041" lon="151.288574">
  <ele>350.09</ele>
  <time>2026-09-01T19:55:43Z</time>
  <course>277.99</course>
  <speed>0.1414213562373095</speed>
  <fix>3d</fix>
</trkpt>
<trkpt lat="-27.2728042" lon="151.2885742">
  <ele>350.4</ele>
  <time>2026-09-01T19:55:43Z</time>
  <course>14.57</course>
  <speed>0.17</speed>
  <fix>3d</fix>
</trkpt>
<trkpt lat="-27.272804" lon="151.2885741">
  <ele>350.02</ele>
  <time>2026-09-01T19:55:43Z</time>
  <course>277.96</course>
  <speed>0.140356688476182</speed>
  <fix>3d</fix>
</trkpt>
<trkpt lat="-27.2728042" lon="151.2885742">
  <ele>350.4</ele>
  <time>2026-09-01T19:55:43Z</time>
  <course>14.57</course>
  <speed>0.17</speed>
  <fix>3d</fix>
</trkpt>
<trkpt lat="-27.2728038" lon="151.2885741">
  <ele>349.95</ele>
  <time>2026-09-01T19:55:43Z</time>
  <course>277.93</course>
  <speed>0.140356688476182</speed>
  <fix>3d</fix>
</trkpt>
<trkpt lat="-27.2728039" lon="151.2885743">
  <ele>350.25</ele>
  <time>2026-09-01T19:55:43Z</time>
  <course>13.55</course>
  <speed>0.17</speed>
  <fix>3d</fix>
</trkpt>
<trkpt lat="-27.2728037" lon="151.2885741">
  <ele>349.88</ele>
  <time>2026-09-01T19:55:43Z</time>
  <course>277.91</course>
  <speed>0.140356688476182</speed>
  <fix>3d</fix>
</trkpt>
<trkpt lat="-27.2728039" lon="151.2885743">
  <ele>350.25</ele>
  <time>2026-09-01T19:55:43Z</time>
  <course>13.55</course>
  <speed>0.17</speed>
  <fix>3d</fix>
</trkpt>
<trkpt lat="-27.2728035" lon="151.2885742">
  <ele>349.81</ele>
  <time>2026-09-01T19:55:43Z</time>
  <course>277.89</course>
  <speed>0.140356688476182</speed>
  <fix>3d</fix>
</trkpt>
<trkpt lat="-27.2728036" lon="151.2885743">
  <ele>350.1</ele>
  <time>2026-09-01T19:55:43Z</time>
  <course>12.56</course>
  <speed>0.17</speed>
  <fix>3d</fix>
</trkpt>
<trkpt lat="-27.2728034" lon="151.2885742">
  <ele>349.74</ele>
  <time>2026-09-01T19:55:43Z</time>
  <course>277.87</course>
  <speed>0.140356688476182</speed>
  <fix>3d</fix>
</trkpt>
<trkpt lat="-27.2728036" lon="151.2885743">
  <ele>350.1</ele>
  <time>2026-09-01T19:55:43Z</time>
  <course>12.56</course>
  <speed>0.17</speed>
  <fix>3d</fix>
</trkpt>
<trkpt lat="-27.2728032" lon="151.2885742">
  <ele>349.67</ele>
  <time>2026-09-01T19:55:43Z</time>
  <course>277.85</course>
  <speed>0.130384048104053</speed>
  <fix>3d</fix>
</trkpt>
<trkpt lat="-27.2728033" lon="151.2885744">
  <ele>349.96</ele>
  <time>2026-09-01T19:55:43Z</time>
  <course>11.62</course>
  <speed>0.16</speed>
  <fix>3d</fix>
</trkpt>
<trkpt lat="-27.2728031" lon="151.2885743">
  <ele>349.61</ele>
  <time>2026-09-01T19:55:43Z</time>
  <course>277.84</course>
  <speed>0.13</speed>
  <fix>3d</fix>
</trkpt>
<trkpt lat="-27.2728033" lon="151.2885744">
  <ele>349.96</ele>
  <time>2026-09-01T19:55:43Z</time>
  <course>11.62</course>
  <speed>0.16</speed>
  <fix>3d</fix>
</trkpt>
<trkpt lat="-27.272803" lon="151.2885743">
  <ele>349.54</ele>
  <time>2026-09-01T19:55:43Z</time>
  <course>277.82</course>
  <speed>0.12</speed>
  <fix>3d</fix>
</trkpt>
<trkpt lat="-27.272803" lon="151.2885745">
  <ele>349.82</ele>
  <time>2026-09-01T19:55:43Z</time>
  <course>10.69</course>
  <speed>0.16</speed>
  <fix>3d</fix>
</trkpt>
<trkpt lat="-27.2728028" lon="151.2885743">
  <ele>349.48</ele>
  <time>2026-09-01T19:55:43Z</time>
  <course>277.8</course>
  <speed>0.12</speed>
  <fix>3d</fix>
</trkpt>
<trkpt lat="-27.272803" lon="151.2885745">
  <ele>349.82</ele>
  <time>2026-09-01T19:55:43Z</time>
  <course>10.69</course>
  <speed>0.16</speed>
  <fix>3d</fix>
</trkpt>
<trkpt lat="-27.2728027" lon="151.2885744">
  <ele>349.42</ele>
  <time>2026-09-01T19:55:43Z</time>
  <course>277.78</course>
  <speed>0.11</speed>
  <fix>3d</fix>
</trkpt>
<trkpt lat="-27.2728027" lon="151.2885746">
  <ele>349.69</ele>
  <time>2026-09-01T19:55:43Z</time>
  <course>9.72</course>
  <speed>0.15</speed>
  <fix>3d</fix>
</trkpt>
<trkpt lat="-27.2728026" lon="151.2885744">
  <ele>349.36</ele>
  <time>2026-09-01T19:55:43Z</time>
  <course>277.76</course>
  <speed>0.1</speed>
  <fix>3d</fix>
</trkpt>
<trkpt lat="-27.2728027" lon="151.2885746">
  <ele>349.69</ele>
  <time>2026-09-01T19:55:43Z</time>
  <course>9.72</course>
  <speed>0.15</speed>
  <fix>3d</fix>
</trkpt>
<trkpt lat="-27.2728025" lon="151.2885744">
  <ele>349.3</ele>
  <time>2026-09-01T19:55:43Z</time>
  <course>277.74</course>
  <speed>0.1</speed>
  <fix>3d</fix>
</trkpt>
<trkpt lat="-27.2728025" lon="151.2885746">
  <ele>349.56</ele>
  <time>2026-09-01T19:55:43Z</time>
  <course>8.66</course>
  <speed>0.13</speed>
  <fix>3d</fix>
</trkpt>
<trkpt lat="-27.2728024" lon="151.2885744">
  <ele>349.24</ele>
  <time>2026-09-01T19:55:43Z</time>
  <course>277.71</course>
  <speed>0.09</speed>
  <fix>3d</fix>
</trkpt>
<trkpt lat="-27.2728025" lon="151.2885746">
  <ele>349.56</ele>
  <time>2026-09-01T19:55:43Z</time>
  <course>8.66</course>
  <speed>0.13</speed>
  <fix>3d</fix>
</trkpt>
<trkpt lat="-27.2728023" lon="151.2885744">
  <ele>349.18</ele>
  <time>2026-09-01T19:55:43Z</time>
  <course>277.69</course>
  <speed>0.08</speed>
  <fix>3d</fix>
</trkpt>
<trkpt lat="-27.2728023" lon="151.2885747">
  <ele>349.44</ele>
  <time>2026-09-01T19:55:43Z</time>
  <course>7.27</course>
  <speed>0.12</speed>
  <fix>3d</fix>
</trkpt>
<trkpt lat="-27.2728022" lon="151.2885744">
  <ele>349.12</ele>
  <time>2026-09-01T19:55:43Z</time>
  <course>277.67</course>
  <speed>0.07071067811865475</speed>
  <fix>3d</fix>
</trkpt>
<trkpt lat="-27.2728023" lon="151.2885747">
  <ele>349.44</ele>
  <time>2026-09-01T19:55:43Z</time>
  <course>7.27</course>
  <speed>0.12</speed>
  <fix>3d</fix>
</trkpt>
<trkpt lat="-27.2728021" lon="151.2885745">
  <ele>349.06</ele>
  <time>2026-09-01T19:55:43Z</time>
  <course>277.65</course>
  <speed>0.06082762530298219</speed>
  <fix>3d</fix>
</trkpt>
<trkpt lat="-27.2728021" lon="151.2885747">
  <ele>349.32</ele>
  <time>2026-09-01T19:55:43Z</time>
  <course>5.49</course>
  <speed>0.1</speed>
  <fix>3d</fix>
</trkpt>
<trkpt lat="-27.272802" lon="151.2885745">
  <ele>349.01</ele>
  <time>2026-09-01T19:55:43Z</time>
  <course>277.64</course>
  <speed>0.05099019513592785</speed>
  <fix>3d</fix>
</trkpt>
<trkpt lat="-27.2728021" lon="151.2885747">
  <ele>349.32</ele>
  <time>2026-09-01T19:55:43Z</time>
  <course>5.49</course>
  <speed>0.1</speed>
  <fix>3d</fix>
</trkpt>
<trkpt lat="-27.272802" lon="151.2885745">
  <ele>348.96</ele>
  <time>2026-09-01T19:55:43Z</time>
  <course>277.62</course>
  <speed>0.0412310562561766</speed>
  <fix>3d</fix>
</trkpt>
<trkpt lat="-27.2728019" lon="151.2885747">
  <ele>349.2</ele>
  <time>2026-09-01T19:55:43Z</time>
  <course>3.25</course>
  <speed>0.09</speed>
  <fix>3d</fix>
</trkpt>
<trkpt lat="-27.2728019" lon="151.2885745">
  <ele>348.9</ele>
  <time>2026-09-01T19:55:43Z</time>
  <course>277.61</course>
  <speed>0.0412310562561766</speed>
  <fix>3d</fix>
</trkpt>
<trkpt lat="-27.2728019" lon="151.2885747">
  <ele>349.2</ele>
  <time>2026-09-01T19:55:43Z</time>
  <course>3.25</course>
  <speed>0.09</speed>
  <fix>3d</fix>
</trkpt>
<trkpt lat="-27.2728019" lon="151.2885745">
  <ele>348.85</ele>
  <time>2026-09-01T19:55:43Z</time>
  <course>277.6</course>
  <speed>0.03605551275463989</speed>
  <fix>3d</fix>
</trkpt>
<trkpt lat="-27.2728017" lon="151.2885747">
  <ele>349.09</ele>
  <time>2026-09-01T19:55:43Z</time>
  <course>359.93</course>
  <speed>0.07</speed>
  <fix>3d</fix>
</trkpt>
<trkpt lat="-27.2728018" lon="151.2885745">
  <ele>348.8</ele>
  <time>2026-09-01T19:55:43Z</time>
  <course>277.58</course>
  <speed>0.0282842712474619</speed>
  <fix>3d</fix>
</trkpt>
<trkpt lat="-27.2728017" lon="151.2885747">
  <ele>349.09</ele>
  <time>2026-09-01T19:55:43Z</time>
  <course>359.93</course>
  <speed>0.07</speed>
  <fix>3d</fix>
</trkpt>
<trkpt lat="-27.2728018" lon="151.2885745">
  <ele>348.75</ele>
  <time>2026-09-01T19:55:43Z</time>
  <course>277.56</course>
  <speed>0.022360679774997897</speed>
  <fix>3d</fix>
</trkpt>
<trkpt lat="-27.2728016" lon="151.2885747">
  <ele>348.99</ele>
  <time>2026-09-01T19:55:43Z</time>
  <course>354.13</course>
  <speed>0.05</speed>
  <fix>3d</fix>
</trkpt>
<trkpt lat="-27.2728018" lon="151.2885745">
  <ele>348.69</ele>
  <time>2026-09-01T19:55:43Z</time>
  <course>277.54</course>
  <speed>0.03</speed>
  <fix>3d</fix>
</trkpt>
<trkpt lat="-27.2728016" lon="151.2885747">
  <ele>348.99</ele>
  <time>2026-09-01T19:55:43Z</time>
  <course>354.13</course>
  <speed>0.05</speed>
  <fix>3d</fix>
</trkpt>
<trkpt lat="-27.2728017" lon="151.2885745">
  <ele>348.64</ele>
  <time>2026-09-01T19:55:43Z</time>
  <course>277.51</course>
  <speed>0.03</speed>
  <fix>3d</fix>
</trkpt>
<trkpt lat="-27.2728015" lon="151.2885747">
  <ele>348.89</ele>
  <time>2026-09-01T19:55:43Z</time>
  <course>342.54</course>
  <speed>0.03</speed>
  <fix>3d</fix>
</trkpt>
<trkpt lat="-27.2728017" lon="151.2885745">
  <ele>348.59</ele>
  <time>2026-09-01T19:55:43Z</time>
  <course>277.48</course>
  <speed>0.0316227766016838</speed>
  <fix>3d</fix>
</trkpt>
<trkpt lat="-27.2728015" lon="151.2885747">
  <ele>348.89</ele>
  <time>2026-09-01T19:55:43Z</time>
  <course>342.54</course>
  <speed>0.03</speed>
  <fix>3d</fix>
</trkpt>
<trkpt lat="-27.2728017" lon="151.2885745">
  <ele>348.55</ele>
  <time>2026-09-01T19:55:43Z</time>
  <course>277.43</course>
  <speed>0.0316227766016838</speed>
  <fix>3d</fix>
</trkpt>
<trkpt lat="-27.2728015" lon="151.2885747">
  <ele>348.78</ele>
  <time>2026-09-01T19:55:43Z</time>
  <course>317.91</course>
  <speed>0.02</speed>
  <fix>3d</fix>
</trkpt>
<trkpt lat="-27.2728017" lon="151.2885745">
  <ele>348.5</ele>
  <time>2026-09-01T19:55:43Z</time>
  <course>277.39</course>
  <speed>0.03605551275463989</speed>
  <fix>3d</fix>
</trkpt>
<trkpt lat="-27.2728015" lon="151.2885747">
  <ele>348.78</ele>
  <time>2026-09-01T19:55:43Z</time>
  <course>317.91</course>
  <speed>0.02</speed>
  <fix>3d</fix>
</trkpt>
<trkpt lat="-27.2728017" lon="151.2885745">
  <ele>348.45</ele>
  <time>2026-09-01T19:55:43Z</time>
  <course>277.34</course>
  <speed>0.05</speed>
  <fix>3d</fix>
</trkpt>
<trkpt lat="-27.2728015" lon="151.2885747">
  <ele>348.68</ele>
  <time>2026-09-01T19:55:43Z</time>
  <course>276.18</course>
  <speed>0.02</speed>
  <fix>3d</fix>
</trkpt>
<trkpt lat="-27.2728017" lon="151.2885745">
  <ele>348.4</ele>
  <time>2026-09-01T19:55:43Z</time>
  <course>277.29</course>
  <speed>0.05</speed>
  <fix>3d</fix>
</trkpt>
<trkpt lat="-27.2728015" lon="151.2885747">
  <ele>348.68</ele>
  <time>2026-09-01T19:55:43Z</time>
  <course>276.18</course>
  <speed>0.02</speed>
  <fix>3d</fix>
</trkpt>
<trkpt lat="-27.2728017" lon="151.2885744">
  <ele>348.35</ele>
  <time>2026-09-01T19:55:43Z</time>
  <course>277.25</course>
  <speed>0.0565685424949238</speed>
  <fix>3d</fix>
</trkpt>
<trkpt lat="-27.2728015" lon="151.2885747">
  <ele>348.59</ele>
  <time>2026-09-01T19:55:43Z</time>
  <course>244.79</course>
  <speed>0.02</speed>
  <fix>3d</fix>
</trkpt>
<trkpt lat="-27.2728017" lon="151.2885744">
  <ele>348.3</ele>
  <time>2026-09-01T19:55:43Z</time>
  <course>277.22</course>
  <speed>0.06403124237432849</speed>
  <fix>3d</fix>
</trkpt>
<trkpt lat="-27.2728015" lon="151.2885747">
  <ele>348.59</ele>
  <time>2026-09-01T19:55:43Z</time>
  <course>244.79</course>
  <speed>0.02</speed>
  <fix>3d</fix>
</trkpt>
<trkpt lat="-27.2728017" lon="151.2885744">
  <ele>348.25</ele>
  <time>2026-09-01T19:55:43Z</time>
  <course>277.19</course>
  <speed>0.06403124237432849</speed>
  <fix>3d</fix>
</trkpt>
<trkpt lat="-27.2728015" lon="151.2885746">
  <ele>348.49</ele>
  <time>2026-09-01T19:55:43Z</time>
  <course>229.31</course>
  <speed>0.03</speed>
  <fix>3d</fix>
</trkpt>
<trkpt lat="-27.2728017" lon="151.2885744">
  <ele>348.2</ele>
  <time>2026-09-01T19:55:43Z</time>
  <course>277.18</course>
  <speed>0.07211102550927978</speed>
  <fix>3d</fix>
</trkpt>
<trkpt lat="-27.2728015" lon="151.2885746">
  <ele>348.49</ele>
  <time>2026-09-01T19:55:43Z</time>
  <course>229.31</course>
  <speed>0.03</speed>
  <fix>3d</fix>
</trkpt>
<trkpt lat="-27.2728018" lon="151.2885743">
  <ele>348.15</ele>
  <time>2026-09-01T19:55:43Z</time>
  <course>277.18</course>
  <speed>0.07211102550927978</speed>
  <fix>3d</fix>
</trkpt>
<trkpt lat="-27.2728016" lon="151.2885745">
  <ele>348.39</ele>
  <time>2026-09-01T19:55:43Z</time>
  <course>221.27</course>
  <speed>0.04</speed>
  <fix>3d</fix>
</trkpt>
<trkpt lat="-27.2728018" lon="151.2885743">
  <ele>348.1</ele>
  <time>2026-09-01T19:55:43Z</time>
  <course>277.19</course>
  <speed>0.08602325267042626</speed>
  <fix>3d</fix>
</trkpt>
<trkpt lat="-27.2728016" lon="151.2885745">
  <ele>348.39</ele>
  <time>2026-09-01T19:55:43Z</time>
  <course>221.27</course>
  <speed>0.04</speed>
  <fix>3d</fix>
</trkpt>
<trkpt lat="-27.2728019" lon="151.2885743">
  <ele>348.05</ele>
  <time>2026-09-01T19:55:43Z</time>
  <course>277.2</course>
  <speed>0.08602325267042626</speed>
  <fix>3d</fix>
</trkpt>
<trkpt lat="-27.2728016" lon="151.2885744">
  <ele>348.28</ele>
  <time>2026-09-01T19:55:43Z</time>
  <course>216.58</course>
  <speed>0.05</speed>
  <fix>3d</fix>
</trkpt>
<trkpt lat="-27.2728019" lon="151.2885742">
  <ele>348.0</ele>
  <time>2026-09-01T19:55:43Z</time>
  <course>277.21</course>
  <speed>0.08602325267042626</speed>
  <fix>3d</fix>
</trkpt>
<trkpt lat="-27.2728016" lon="151.2885744">
  <ele>348.28</ele>
  <time>2026-09-01T19:55:43Z</time>
  <course>216.58</course>
  <speed>0.05</speed>
  <fix>3d</fix>
</trkpt>
<trkpt lat="-27.272802" lon="151.2885742">
  <ele>347.94</ele>
  <time>2026-09-01T19:55:43Z</time>
  <course>277.22</course>
  <speed>0.09433981132056603</speed>
  <fix>3d</fix>
</trkpt>
<trkpt lat="-27.2728016" lon="151.2885744">
  <ele>348.18</ele>
  <time>2026-09-01T19:55:43Z</time>
  <course>213.79</course>
  <speed>0.06</speed>
  <fix>3d</fix>
</trkpt>
<trkpt lat="-27.272802" lon="151.2885742">
  <ele>347.89</ele>
  <time>2026-09-01T19:55:43Z</time>
  <course>277.23</course>
  <speed>0.09433981132056603</speed>
  <fix>3d</fix>
</trkpt>
<trkpt lat="-27.2728016" lon="151.2885744">
  <ele>348.18</ele>
  <time>2026-09-01T19:55:43Z</time>
  <course>213.79</course>
  <speed>0.06</speed>
  <fix>3d</fix>
</trkpt>
<trkpt lat="-27.2728021" lon="151.2885741">
  <ele>347.84</ele>
  <time>2026-09-01T19:55:43Z</time>
  <course>277.23</course>
  <speed>0.09433981132056603</speed>
  <fix>3d</fix>
</trkpt>
<trkpt lat="-27.2728017" lon="151.2885743">
  <ele>348.08</ele>
  <time>2026-09-01T19:55:43Z</time>
  <course>212.15</course>
  <speed>0.07</speed>
  <fix>3d</fix>
</trkpt>
<trkpt lat="-27.2728021" lon="151.2885741">
  <ele>347.79</ele>
  <time>2026-09-01T19:55:43Z</time>
  <course>277.23</course>
  <speed>0.10295630140987001</speed>
  <fix>3d</fix>
</trkpt>
<trkpt lat="-27.2728017" lon="151.2885743">
  <ele>348.08</ele>
  <time>2026-09-01T19:55:43Z</time>
  <course>212.15</course>
  <speed>0.07</speed>
  <fix>3d</fix>
</trkpt>
<trkpt lat="-27.2728022" lon="151.288574">
  <ele>347.74</ele>
  <time>2026-09-01T19:55:43Z</time>
  <course>277.23</course>
  <speed>0.10295630140987001</speed>
  <fix>3d</fix>
</trkpt>
<trkpt lat="-27.2728018" lon="151.2885742">
  <ele>347.97</ele>
  <time>2026-09-01T19:55:43Z</time>
  <course>210.63</course>
  <speed>0.08</speed>
  <fix>3d</fix>
</trkpt>
<trkpt lat="-27.2728022" lon="151.288574">
  <ele>347.69</ele>
  <time>2026-09-01T19:55:43Z</time>
  <course>277.23</course>
  <speed>0.10295630140987001</speed>
  <fix>3d</fix>
</trkpt>
<trkpt lat="-27.2728018" lon="151.2885742">
  <ele>347.97</ele>
  <time>2026-09-01T19:55:43Z</time>
  <course>210.63</course>
  <speed>0.08</speed>
  <fix>3d</fix>
</trkpt>
<trkpt lat="-27.2728023" lon="151.2885739">
  <ele>347.63</ele>
  <time>2026-09-01T19:55:44Z</time>
  <course>277.23</course>
  <speed>0.10295630140987001</speed>
  <fix>3d</fix>
</trkpt>
<trkpt lat="-27.272802" lon="151.2885741">
  <ele>347.88</ele>
  <time>2026-09-01T19:55:44Z</time>
  <course>209.06</course>
  <speed>0.08</speed>
  <fix>3d</fix>
</trkpt>
<trkpt lat="-27.2728024" lon="151.2885739">
  <ele>347.58</ele>
  <time>2026-09-01T19:55:44Z</time>
  <course>277.23</course>
  <speed>0.1118033988749895</speed>
  <fix>3d</fix>
</trkpt>
<trkpt lat="-27.272802" lon="151.2885741">
  <ele>347.88</ele>
  <time>2026-09-01T19:55:44Z</time>
  <course>209.06</course>
  <speed>0.08</speed>
  <fix>3d</fix>
</trkpt>
<trkpt lat="-27.2728024" lon="151.2885739">
  <ele>347.53</ele>
  <time>2026-09-01T19:55:44Z</time>
  <course>277.24</course>
  <speed>0.1118033988749895</speed>
  <fix>3d</fix>
</trkpt>
<trkpt lat="-27.2728021" lon="151.288574">
  <ele>347.78</ele>
  <time>2026-09-01T19:55:44Z</time>
  <course>207.52</course>
  <speed>0.09</speed>
  <fix>3d</fix>
</trkpt>
<trkpt lat="-27.2728025" lon="151.2885738">
  <ele>347.48</ele>
  <time>2026-09-01T19:55:44Z</time>
  <course>277.24</course>
  <speed>0.1118033988749895</speed>
  <fix>3d</fix>
</trkpt>
<trkpt lat="-27.2728021" lon="151.288574">
  <ele>347.78</ele>
  <time>2026-09-01T19:55:44Z</time>
  <course>207.52</course>
  <speed>0.09</speed>
  <fix>3d</fix>
</trkpt>
<trkpt lat="-27.2728026" lon="151.2885738">
  <ele>347.43</ele>
  <time>2026-09-01T19:55:44Z</time>
  <course>277.24</course>
  <speed>0.1118033988749895</speed>
  <fix>3d</fix>
</trkpt>
<trkpt lat="-27.2728023" lon="151.2885739">
  <ele>347.68</ele>
  <time>2026-09-01T19:55:44Z</time>
  <course>205.8</course>
  <speed>0.09</speed>
  <fix>3d</fix>
</trkpt>
<trkpt lat="-27.2728026" lon="151.2885737">
  <ele>347.39</ele>
  <time>2026-09-01T19:55:44Z</time>
  <course>277.24</course>
  <speed>0.1118033988749895</speed>
  <fix>3d</fix>
</trkpt>
<trkpt lat="-27.2728023" lon="151.2885739">
  <ele>347.68</ele>
  <time>2026-09-01T19:55:44Z</time>
  <course>205.8</course>
  <speed>0.09</speed>
  <fix>3d</fix>
</trkpt>
<trkpt lat="-27.2728027" lon="151.2885737">
  <ele>347.34</ele>
  <time>2026-09-01T19:55:44Z</time>
  <course>277.24</course>
  <speed>0.1118033988749895</speed>
  <fix>3d</fix>
</trkpt>
<trkpt lat="-27.2728025" lon="151.2885739">
  <ele>347.58</ele>
  <time>2026-09-01T19:55:44Z</time>
  <course>204.25</course>
  <speed>0.09</speed>
  <fix>3d</fix>
</trkpt>
<trkpt lat="-27.2728028" lon="151.2885736">
  <ele>347.29</ele>
  <time>2026-09-01T19:55:44Z</time>
  <course>277.25</course>
  <speed>0.1118033988749895</speed>
  <fix>3d</fix>
</trkpt>
<trkpt lat="-27.2728025" lon="151.2885739">
  <ele>347.58</ele>
  <time>2026-09-01T19:55:44Z</time>
  <course>204.25</course>
  <speed>0.09</speed>
  <fix>3d</fix>
</trkpt>
<trkpt lat="-27.2728029" lon="151.2885736">
  <ele>347.24</ele>
  <time>2026-09-01T19:55:44Z</time>
  <course>277.25</course>
  <speed>0.1118033988749895</speed>
  <fix>3d</fix>
</trkpt>
<trkpt lat="-27.2728026" lon="151.2885738">
  <ele>347.47</ele>
  <time>2026-09-01T19:55:44Z</time>
  <course>203.23</course>
  <speed>0.09</speed>
  <fix>3d</fix>
</trkpt>
<trkpt lat="-27.2728029" lon="151.2885736">
  <ele>347.19</ele>
  <time>2026-09-01T19:55:44Z</time>
  <course>277.26</course>
  <speed>0.1118033988749895</speed>
  <fix>3d</fix>
</trkpt>
<trkpt lat="-27.2728026" lon="151.2885738">
  <ele>347.47</ele>
  <time>2026-09-01T19:55:44Z</time>
  <course>203.23</course>
  <speed>0.09</speed>
  <fix>3d</fix>
</trkpt>
<trkpt lat="-27.272803" lon="151.2885735">
  <ele>347.14</ele>
  <time>2026-09-01T19:55:44Z</time>
  <course>277.26</course>
  <speed>0.10295630140987001</speed>
  <fix>3d</fix>
</trkpt>
<trkpt lat="-27.2728028" lon="151.2885737">
  <ele>347.38</ele>
  <time>2026-09-01T19:55:44Z</time>
  <course>202.19</course>
  <speed>0.09</speed>
  <fix>3d</fix>
</trkpt>
<trkpt lat="-27.2728031" lon="151.2885735">
  <ele>347.09</ele>
  <time>2026-09-01T19:55:44Z</time>
  <course>277.27</course>
  <speed>0.09848857801796104</speed>
  <fix>3d</fix>
</trkpt>
<trkpt lat="-27.2728028" lon="151.2885737">
  <ele>347.38</ele>
  <time>2026-09-01T19:55:44Z</time>
  <course>202.19</course>
  <speed>0.09</speed>
  <fix>3d</fix>
</trkpt>
<trkpt lat="-27.2728032" lon="151.2885735">
  <ele>347.04</ele>
  <time>2026-09-01T19:55:44Z</time>
  <course>277.27</course>
  <speed>0.09848857801796104</speed>
  <fix>3d</fix>
</trkpt>
<trkpt lat="-27.2728029" lon="151.2885737">
  <ele>347.28</ele>
  <time>2026-09-01T19:55:44Z</time>
  <course>200.98</course>
  <speed>0.09</speed>
  <fix>3d</fix>
</trkpt>
<trkpt lat="-27.2728032" lon="151.2885734">
  <ele>346.99</ele>
  <time>2026-09-01T19:55:44Z</time>
  <course>277.27</course>
  <speed>0.09848857801796104</speed>
  <fix>3d</fix>
</trkpt>
<trkpt lat="-27.2728029" lon="151.2885737">
  <ele>347.28</ele>
  <time>2026-09-01T19:55:44Z</time>
  <course>200.98</course>
  <speed>0.09</speed>
  <fix>3d</fix>
</trkpt>
<trkpt lat="-27.2728033" lon="151.2885734">
  <ele>346.94</ele>
  <time>2026-09-01T19:55:44Z</time>
  <course>277.27</course>
  <speed>0.09848857801796104</speed>
  <fix>3d</fix>
</trkpt>
<trkpt lat="-27.2728031" lon="151.2885736">
  <ele>347.18</ele>
  <time>2026-09-01T19:55:44Z</time>
  <course>200.06</course>
  <speed>0.08</speed>
  <fix>3d</fix>
</trkpt>
<trkpt lat="-27.2728034" lon="151.2885734">
  <ele>346.89</ele>
  <time>2026-09-01T19:55:44Z</time>
  <course>277.27</course>
  <speed>0.08944271909999159</speed>
  <fix>3d</fix>
</trkpt>
<trkpt lat="-27.2728031" lon="151.2885736">
  <ele>347.18</ele>
  <time>2026-09-01T19:55:44Z</time>
  <course>200.06</course>
  <speed>0.08</speed>
  <fix>3d</fix>
</trkpt>
<trkpt lat="-27.2728034" lon="151.2885734">
  <ele>346.84</ele>
  <time>2026-09-01T19:55:44Z</time>
  <course>277.27</course>
  <speed>0.08944271909999159</speed>
  <fix>3d</fix>
</trkpt>
<trkpt lat="-27.2728032" lon="151.2885736">
  <ele>347.08</ele>
  <time>2026-09-01T19:55:44Z</time>
  <course>198.94</course>
  <speed>0.08</speed>
  <fix>3d</fix>
</trkpt>
<trkpt lat="-27.2728035" lon="151.2885734">
  <ele>346.79</ele>
  <time>2026-09-01T19:55:44Z</time>
  <course>277.27</course>
  <speed>0.0854400374531753</speed>
  <fix>3d</fix>
</trkpt>
<trkpt lat="-27.2728032" lon="151.2885736">
  <ele>347.08</ele>
  <time>2026-09-01T19:55:44Z</time>
  <course>198.94</course>
  <speed>0.08</speed>
  <fix>3d</fix>
</trkpt>
<trkpt lat="-27.2728035" lon="151.2885733">
  <ele>346.74</ele>
  <time>2026-09-01T19:55:44Z</time>
  <course>277.27</course>
  <speed>0.07615773105863909</speed>
  <fix>3d</fix>
</trkpt>
<trkpt lat="-27.2728033" lon="151.2885735">
  <ele>346.97</ele>
  <time>2026-09-01T19:55:44Z</time>
  <course>197.28</course>
  <speed>0.07</speed>
  <fix>3d</fix>
</trkpt>
<trkpt lat="-27.2728036" lon="151.2885733">
  <ele>346.7</ele>
  <time>2026-09-01T19:55:44Z</time>
  <course>277.27</course>
  <speed>0.07615773105863909</speed>
  <fix>3d</fix>
</trkpt>
<trkpt lat="-27.2728033" lon="151.2885735">
  <ele>346.97</ele>
  <time>2026-09-01T19:55:44Z</time>
  <course>197.28</course>
  <speed>0.07</speed>
  <fix>3d</fix>
</trkpt>
<trkpt lat="-27.2728036" lon="151.2885733">
  <ele>346.65</ele>
  <time>2026-09-01T19:55:44Z</time>
  <course>277.26</course>
  <speed>0.0670820393249937</speed>
  <fix>3d</fix>
</trkpt>
<trkpt lat="-27.2728035" lon="151.2885734">
  <ele>346.88</ele>
  <time>2026-09-01T19:55:44Z</time>
  <course>195.38</course>
  <speed>0.06</speed>
  <fix>3d</fix>
</trkpt>
<trkpt lat="-27.2728037" lon="151.2885733">
  <ele>346.6</ele>
  <time>2026-09-01T19:55:44Z</time>
  <course>277.26</course>
  <speed>0.0670820393249937</speed>
  <fix>3d</fix>
</trkpt>
<trkpt lat="-27.2728035" lon="151.2885734">
  <ele>346.88</ele>
  <time>2026-09-01T19:55:44Z</time>
  <course>195.38</course>
  <speed>0.06</speed>
  <fix>3d</fix>
</trkpt>
<trkpt lat="-27.2728037" lon="151.2885733">
  <ele>346.55</ele>
  <time>2026-09-01T19:55:44Z</time>
  <course>277.25</course>
  <speed>0.053851648071345036</speed>
  <fix>3d</fix>
</trkpt>
<trkpt lat="-27.2728036" lon="151.2885734">
  <ele>346.78</ele>
  <time>2026-09-01T19:55:44Z</time>
  <course>193.48</course>
  <speed>0.05</speed>
  <fix>3d</fix>
</trkpt>
<trkpt lat="-27.2728038" lon="151.2885733">
  <ele>346.5</ele>
  <time>2026-09-01T19:55:44Z</time>
  <course>277.25</course>
  <speed>0.053851648071345036</speed>
  <fix>3d</fix>
</trkpt>
<trkpt lat="-27.2728036" lon="151.2885734">
  <ele>346.78</ele>
  <time>2026-09-01T19:55:44Z</time>
  <course>193.48</course>
  <speed>0.05</speed>
  <fix>3d</fix>
</trkpt>
<trkpt lat="-27.2728038" lon="151.2885733">
  <ele>346.45</ele>
  <time>2026-09-01T19:55:44Z</time>
  <course>277.25</course>
  <speed>0.053851648071345036</speed>
  <fix>3d</fix>
</trkpt>
<trkpt lat="-27.2728037" lon="151.2885734">
  <ele>346.68</ele>
  <time>2026-09-01T19:55:44Z</time>
  <course>191.3</course>
  <speed>0.04</speed>
  <fix>3d</fix>
</trkpt>
<trkpt lat="-27.2728039" lon="151.2885733">
  <ele>346.4</ele>
  <time>2026-09-01T19:55:44Z</time>
  <course>277.25</course>
  <speed>0.044721359549995794</speed>
  <fix>3d</fix>
</trkpt>
<trkpt lat="-27.2728037" lon="151.2885734">
  <ele>346.68</ele>
  <time>2026-09-01T19:55:44Z</time>
  <course>191.3</course>
  <speed>0.04</speed>
  <fix>3d</fix>
</trkpt>
<trkpt lat="-27.2728039" lon="151.2885733">
  <ele>346.35</ele>
  <time>2026-09-01T19:55:44Z</time>
  <course>277.25</course>
  <speed>0.044721359549995794</speed>
  <fix>3d</fix>
</trkpt>
<trkpt lat="-27.2728037" lon="151.2885734">
  <ele>346.58</ele>
  <time>2026-09-01T19:55:44Z</time>
  <course>187.83</course>
  <speed>0.03</speed>
  <fix>3d</fix>
</trkpt>
<trkpt lat="-27.2728039" lon="151.2885733">
  <ele>346.29</ele>
  <time>2026-09-01T19:55:44Z</time>
  <course>277.24</course>
  <speed>0.0316227766016838</speed>
  <fix>3d</fix>
</trkpt>
<trkpt lat="-27.2728037" lon="151.2885734">
  <ele>346.58</ele>
  <time>2026-09-01T19:55:44Z</time>
  <course>187.83</course>
  <speed>0.03</speed>
  <fix>3d</fix>
</trkpt>
<trkpt lat="-27.2728039" lon="151.2885733">
  <ele>346.24</ele>
  <time>2026-09-01T19:55:44Z</time>
  <course>277.24</course>
  <speed>0.0316227766016838</speed>
  <fix>3d</fix>
</trkpt>
<trkpt lat="-27.2728038" lon="151.2885734">
  <ele>346.47</ele>
  <time>2026-09-01T19:55:44Z</time>
  <course>181.71</course>
  <speed>0.02</speed>
  <fix>3d</fix>
</trkpt>
<trkpt lat="-27.2728039" lon="151.2885733">
  <ele>346.19</ele>
  <time>2026-09-01T19:55:44Z</time>
  <course>277.24</course>
  <speed>0.0316227766016838</speed>
  <fix>3d</fix>
</trkpt>
<trkpt lat="-27.2728039" lon="151.2885734">
  <ele>346.38</ele>
  <time>2026-09-01T19:55:44Z</time>
  <course>171.89</course>
  <speed>0.02</speed>
  <fix>3d</fix>
</trkpt>
<trkpt lat="-27.2728039" lon="151.2885733">
  <ele>346.14</ele>
  <time>2026-09-01T19:55:44Z</time>
  <course>277.24</course>
  <speed>0.022360679774997897</speed>
  <fix>3d</fix>
</trkpt>
<trkpt lat="-27.2728039" lon="151.2885734">
  <ele>346.38</ele>
  <time>2026-09-01T19:55:44Z</time>
  <course>171.89</course>
  <speed>0.02</speed>
  <fix>3d</fix>
</trkpt>
<trkpt lat="-27.272804" lon="151.2885733">
  <ele>346.09</ele>
  <time>2026-09-01T19:55:44Z</time>
  <course>277.23</course>
  <speed>0.022360679774997897</speed>
  <fix>3d</fix>
</trkpt>
<trkpt lat="-27.2728039" lon="151.2885734">
  <ele>346.28</ele>
  <time>2026-09-01T19:55:44Z</time>
  <course>152.52</course>
  <speed>0.01</speed>
  <fix>3d</fix>
</trkpt>
<trkpt lat="-27.272804" lon="151.2885733">
  <ele>346.04</ele>
  <time>2026-09-01T19:55:44Z</time>
  <course>277.21</course>
  <speed>0.01414213562373095</speed>
  <fix>3d</fix>
</trkpt>
<trkpt lat="-27.2728039" lon="151.2885734">
  <ele>346.28</ele>
  <time>2026-09-01T19:55:44Z</time>
  <course>152.52</course>
  <speed>0.01</speed>
  <fix>3d</fix>
</trkpt>
<trkpt lat="-27.272804" lon="151.2885733">
  <ele>345.99</ele>
  <time>2026-09-01T19:55:44Z</time>
  <course>277.25</course>
  <speed>0.01414213562373095</speed>
  <fix>3d</fix>
</trkpt>
<trkpt lat="-27.2728039" lon="151.2885734">
  <ele>346.18</ele>
  <time>2026-09-01T19:55:44Z</time>
  <course>118.42</course>
  <speed>0.0</speed>
  <fix>3d</fix>
</trkpt>
<trkpt lat="-27.272804" lon="151.2885733">
  <ele>345.94</ele>
  <time>2026-09-01T19:55:44Z</time>
  <course>277.35</course>
  <speed>0.01414213562373095</speed>
  <fix>3d</fix>
</trkpt>
<trkpt lat="-27.2728039" lon="151.2885734">
  <ele>346.18</ele>
  <time>2026-09-01T19:55:44Z</time>
  <course>118.42</course>
  <speed>0.0</speed>
  <fix>3d</fix>
</trkpt>
<trkpt lat="-27.272804" lon="151.2885733">
  <ele>345.89</ele>
  <time>2026-09-01T19:55:44Z</time>
  <course>277.49</course>
  <speed>0.01414213562373095</speed>
  <fix>3d</fix>
</trkpt>
<trkpt lat="-27.2728039" lon="151.2885734">
  <ele>346.08</ele>
  <time>2026-09-01T19:55:44Z</time>
  <course>102.87</course>
  <speed>0.01</speed>
  <fix>3d</fix>
</trkpt>
<trkpt lat="-27.272804" lon="151.2885733">
  <ele>345.84</ele>
  <time>2026-09-01T19:55:44Z</time>
  <course>277.62</course>
  <speed>0.01</speed>
  <fix>3d</fix>
</trkpt>
<trkpt lat="-27.2728039" lon="151.2885734">
  <ele>346.08</ele>
  <time>2026-09-01T19:55:44Z</time>
  <course>102.87</course>
  <speed>0.01</speed>
  <fix>3d</fix>
</trkpt>
<trkpt lat="-27.272804" lon="151.2885733">
  <ele>345.79</ele>
  <time>2026-09-01T19:55:44Z</time>
  <course>277.75</course>
  <speed>0.01</speed>
  <fix>3d</fix>
</trkpt>
<trkpt lat="-27.2728039" lon="151.2885734">
  <ele>346.08</ele>
  <time>2026-09-01T19:55:44Z</time>
  <course>102.87</course>
  <speed>0.01</speed>
  <fix>3d</fix>
</trkpt>
<trkpt lat="-27.272804" lon="151.2885733">
  <ele>345.74</ele>
  <time>2026-09-01T19:55:44Z</time>
  <course>277.83</course>
  <speed>0.02</speed>
  <fix>3d</fix>
</trkpt>
<trkpt lat="-27.2728039" lon="151.2885734">
  <ele>345.97</ele>
  <time>2026-09-01T19:55:44Z</time>
  <course>102.18</course>
  <speed>0.01</speed>
  <fix>3d</fix>
</trkpt>
<trkpt lat="-27.272804" lon="151.2885733">
  <ele>345.69</ele>
  <time>2026-09-01T19:55:44Z</time>
  <course>277.88</course>
  <speed>0.02</speed>
  <fix>3d</fix>
</trkpt>
<trkpt lat="-27.2728039" lon="151.2885734">
  <ele>345.97</ele>
  <time>2026-09-01T19:55:44Z</time>
  <course>102.18</course>
  <speed>0.01</speed>
  <fix>3d</fix>
</trkpt>
<trkpt lat="-27.272804" lon="151.2885733">
  <ele>345.64</ele>
  <time>2026-09-01T19:55:44Z</time>
  <course>277.91</course>
  <speed>0.02</speed>
  <fix>3d</fix>
</trkpt>
<trkpt lat="-27.2728039" lon="151.2885734">
  <ele>345.88</ele>
  <time>2026-09-01T19:55:44Z</time>
  <course>102.86</course>
  <speed>0.01</speed>
  <fix>3d</fix>
</trkpt>
<trkpt lat="-27.272804" lon="151.2885733">
  <ele>345.59</ele>
  <time>2026-09-01T19:55:44Z</time>
  <course>277.9</course>
  <speed>0.022360679774997897</speed>
  <fix>3d</fix>
</trkpt>
<trkpt lat="-27.2728039" lon="151.2885734">
  <ele>345.88</ele>
  <time>2026-09-01T19:55:44Z</time>
  <course>102.86</course>
  <speed>0.01</speed>
  <fix>3d</fix>
</trkpt>
<trkpt lat="-27.272804" lon="151.2885733">
  <ele>345.54</ele>
  <time>2026-09-01T19:55:44Z</time>
  <course>277.88</course>
  <speed>0.022360679774997897</speed>
  <fix>3d</fix>
</trkpt>
<trkpt lat="-27.2728039" lon="151.2885734">
  <ele>345.77</ele>
  <time>2026-09-01T19:55:44Z</time>
  <course>103.79</course>
  <speed>0.01</speed>
  <fix>3d</fix>
</trkpt>
<trkpt lat="-27.272804" lon="151.2885733">
  <ele>345.49</ele>
  <time>2026-09-01T19:55:44Z</time>
  <course>277.85</course>
  <speed>0.022360679774997897</speed>
  <fix>3d</fix>
</trkpt>
<trkpt lat="-27.2728039" lon="151.2885734">
  <ele>345.77</ele>
  <time>2026-09-01T19:55:44Z</time>
  <course>103.79</course>
  <speed>0.01</speed>
  <fix>3d</fix>
</trkpt>
<trkpt lat="-27.272804" lon="151.2885733">
  <ele>345.44</ele>
  <time>2026-09-01T19:55:44Z</time>
  <course>277.81</course>
  <speed>0.022360679774997897</speed>
  <fix>3d</fix>
</trkpt>
<trkpt lat="-27.2728039" lon="151.2885734">
  <ele>345.67</ele>
  <time>2026-09-01T19:55:44Z</time>
  <course>103.47</course>
  <speed>0.01</speed>
  <fix>3d</fix>
</trkpt>
<trkpt lat="-27.272804" lon="151.2885733">
  <ele>345.39</ele>
  <time>2026-09-01T19:55:44Z</time>
  <course>277.77</course>
  <speed>0.022360679774997897</speed>
  <fix>3d</fix>
</trkpt>
<trkpt lat="-27.2728039" lon="151.2885734">
  <ele>345.67</ele>
  <time>2026-09-01T19:55:44Z</time>
  <course>103.47</course>
  <speed>0.01</speed>
  <fix>3d</fix>
</trkpt>
<trkpt lat="-27.272804" lon="151.2885733">
  <ele>345.34</ele>
  <time>2026-09-01T19:55:44Z</time>
  <course>277.75</course>
  <speed>0.022360679774997897</speed>
  <fix>3d</fix>
</trkpt>
<trkpt lat="-27.2728039" lon="151.2885734">
  <ele>345.58</ele>
  <time>2026-09-01T19:55:44Z</time>
  <course>103.54</course>
  <speed>0.01</speed>
  <fix>3d</fix>
</trkpt>
<trkpt lat="-27.272804" lon="151.2885733">
  <ele>345.29</ele>
  <time>2026-09-01T19:55:44Z</time>
  <course>277.75</course>
  <speed>0.022360679774997897</speed>
  <fix>3d</fix>
</trkpt>
<trkpt lat="-27.2728039" lon="151.2885734">
  <ele>345.58</ele>
  <time>2026-09-01T19:55:44Z</time>
  <course>103.54</course>
  <speed>0.01</speed>
  <fix>3d</fix>
</trkpt>
<trkpt lat="-27.272804" lon="151.2885733">
  <ele>345.24</ele>
  <time>2026-09-01T19:55:44Z</time>
  <course>277.76</course>
  <speed>0.022360679774997897</speed>
  <fix>3d</fix>
</trkpt>
<trkpt lat="-27.2728039" lon="151.2885734">
  <ele>345.47</ele>
  <time>2026-09-01T19:55:44Z</time>
  <course>104.46</course>
  <speed>0.01</speed>
  <fix>3d</fix>
</trkpt>
<trkpt lat="-27.272804" lon="151.2885733">
  <ele>345.19</ele>
  <time>2026-09-01T19:55:44Z</time>
  <course>277.78</course>
  <speed>0.022360679774997897</speed>
  <fix>3d</fix>
</trkpt>
<trkpt lat="-27.2728039" lon="151.2885734">
  <ele>345.47</ele>
  <time>2026-09-01T19:55:44Z</time>
  <course>104.46</course>
  <speed>0.01</speed>
  <fix>3d</fix>
</trkpt>
<trkpt lat="-27.272804" lon="151.2885733">
  <ele>345.14</ele>
  <time>2026-09-01T19:55:44Z</time>
  <course>277.81</course>
  <speed>0.022360679774997897</speed>
  <fix>3d</fix>
</trkpt>
<trkpt lat="-27.272804" lon="151.2885734">
  <ele>345.38</ele>
  <time>2026-09-01T19:55:44Z</time>
  <course>105.14</course>
  <speed>0.01</speed>
  <fix>3d</fix>
</trkpt>
<trkpt lat="-27.272804" lon="151.2885733">
  <ele>345.09</ele>
  <time>2026-09-01T19:55:44Z</time>
  <course>277.84</course>
  <speed>0.022360679774997897</speed>
  <fix>3d</fix>
</trkpt>
<trkpt lat="-27.272804" lon="151.2885735">
  <ele>345.28</ele>
  <time>2026-09-01T19:55:44Z</time>
  <course>105.97</course>
  <speed>0.01</speed>
  <fix>3d</fix>
</trkpt>
<trkpt lat="-27.272804" lon="151.2885733">
  <ele>345.04</ele>
  <time>2026-09-01T19:55:44Z</time>
  <course>277.86</course>
  <speed>0.022360679774997897</speed>
  <fix>3d</fix>
</trkpt>
<trkpt lat="-27.272804" lon="151.2885735">
  <ele>345.28</ele>
  <time>2026-09-01T19:55:44Z</time>
  <course>105.97</course>
  <speed>0.01</speed>
  <fix>3d</fix>
</trkpt>
<trkpt lat="-27.2728041" lon="151.2885733">
  <ele>344.99</ele>
  <time>2026-09-01T19:55:44Z</time>
  <course>277.88</course>
  <speed>0.022360679774997897</speed>
  <fix>3d</fix>
</trkpt>
<trkpt lat="-27.272804" lon="151.2885736">
  <ele>345.18</ele>
  <time>2026-09-01T19:55:44Z</time>
  <course>107.09</course>
  <speed>0.01</speed>
  <fix>3d</fix>
</trkpt>
<trkpt lat="-27.2728041" lon="151.2885733">
  <ele>344.94</ele>
  <time>2026-09-01T19:55:44Z</time>
  <course>277.88</course>
  <speed>0.022360679774997897</speed>
  <fix>3d</fix>
</trkpt>
<trkpt lat="-27.272804" lon="151.2885736">
  <ele>345.18</ele>
  <time>2026-09-01T19:55:44Z</time>
  <course>107.09</course>
  <speed>0.01</speed>
  <fix>3d</fix>
</trkpt>
<trkpt lat="-27.2728041" lon="151.2885733">
  <ele>344.89</ele>
  <time>2026-09-01T19:55:44Z</time>
  <course>277.9</course>
  <speed>0.022360679774997897</speed>
  <fix>3d</fix>
</trkpt>
<trkpt lat="-27.272804" lon="151.2885736">
  <ele>345.08</ele>
  <time>2026-09-01T19:55:44Z</time>
  <course>109.67</course>
  <speed>0.0</speed>
  <fix>3d</fix>
</trkpt>
<trkpt lat="-27.2728041" lon="151.2885733">
  <ele>344.84</ele>
  <time>2026-09-01T19:55:44Z</time>
  <course>277.91</course>
  <speed>0.022360679774997897</speed>
  <fix>3d</fix>
</trkpt>
<trkpt lat="-27.272804" lon="151.2885736">
  <ele>345.08</ele>
  <time>2026-09-01T19:55:44Z</time>
  <course>109.67</course>
  <speed>0.0</speed>
  <fix>3d</fix>
</trkpt>
<trkpt lat="-27.2728041" lon="151.2885733">
  <ele>344.79</ele>
  <time>2026-09-01T19:55:44Z</time>
  <course>277.93</course>
  <speed>0.022360679774997897</speed>
  <fix>3d</fix>
</trkpt>
<trkpt lat="-27.272804" lon="151.2885736">
  <ele>344.97</ele>
  <time>2026-09-01T19:55:44Z</time>
  <course>113.63</course>
  <speed>0.0</speed>
  <fix>3d</fix>
</trkpt>
<trkpt lat="-27.2728041" lon="151.2885733">
  <ele>344.74</ele>
  <time>2026-09-01T19:55:44Z</time>
  <course>277.96</course>
  <speed>0.022360679774997897</speed>
  <fix>3d</fix>
</trkpt>
<trkpt lat="-27.272804" lon="151.2885736">
  <ele>344.97</ele>
  <time>2026-09-01T19:55:44Z</time>
  <course>113.63</course>
  <speed>0.0</speed>
  <fix>3d</fix>
</trkpt>
<trkpt lat="-27.2728041" lon="151.2885733">
  <ele>344.69</ele>
  <time>2026-09-01T19:55:44Z</time>
  <course>277.98</course>
  <speed>0.022360679774997897</speed>
  <fix>3d</fix>
</trkpt>
<trkpt lat="-27.272804" lon="151.2885736">
  <ele>344.88</ele>
  <time>2026-09-01T19:55:44Z</time>
  <course>115.31</course>
  <speed>0.0</speed>
  <fix>3d</fix>
</trkpt>
<trkpt lat="-27.2728041" lon="151.2885733">
  <ele>344.64</ele>
  <time>2026-09-01T19:55:44Z</time>
  <course>278.0</course>
  <speed>0.022360679774997897</speed>
  <fix>3d</fix>
</trkpt>
<trkpt lat="-27.272804" lon="151.2885736">
  <ele>344.88</ele>
  <time>2026-09-01T19:55:44Z</time>
  <course>115.31</course>
  <speed>0.0</speed>
  <fix>3d</fix>
</trkpt>
<trkpt lat="-27.2728041" lon="151.2885733">
  <ele>344.59</ele>
  <time>2026-09-01T19:55:44Z</time>
  <course>278.0</course>
  <speed>0.022360679774997897</speed>
  <fix>3d</fix>
</trkpt>
<trkpt lat="-27.272804" lon="151.2885736">
  <ele>344.78</ele>
  <time>2026-09-01T19:55:44Z</time>
  <course>111.13</course>
  <speed>0.0</speed>
  <fix>3d</fix>
</trkpt>
<trkpt lat="-27.2728041" lon="151.2885734">
  <ele>344.54</ele>
  <time>2026-09-01T19:55:44Z</time>
  <course>277.99</course>
  <speed>0.022360679774997897</speed>
  <fix>3d</fix>
</trkpt>
<trkpt lat="-27.272804" lon="151.2885736">
  <ele>344.78</ele>
  <time>2026-09-01T19:55:44Z</time>
  <course>111.13</course>
  <speed>0.0</speed>
  <fix>3d</fix>
</trkpt>
<trkpt lat="-27.2728041" lon="151.2885734">
  <ele>344.49</ele>
  <time>2026-09-01T19:55:44Z</time>
  <course>277.97</course>
  <speed>0.022360679774997897</speed>
  <fix>3d</fix>
</trkpt>
<trkpt lat="-27.272804" lon="151.2885736">
  <ele>344.68</ele>
  <time>2026-09-01T19:55:44Z</time>
  <course>101.04</course>
  <speed>0.0</speed>
  <fix>3d</fix>
</trkpt>
<trkpt lat="-27.2728041" lon="151.2885734">
  <ele>344.44</ele>
  <time>2026-09-01T19:55:44Z</time>
  <course>277.95</course>
  <speed>0.01414213562373095</speed>
  <fix>3d</fix>
</trkpt>
<trkpt lat="-27.272804" lon="151.2885736">
  <ele>344.68</ele>
  <time>2026-09-01T19:55:44Z</time>
  <course>101.04</course>
  <speed>0.0</speed>
  <fix>3d</fix>
</trkpt>
<trkpt lat="-27.2728041" lon="151.2885734">
  <ele>344.4</ele>
  <time>2026-09-01T19:55:44Z</time>
  <course>277.93</course>
  <speed>0.01414213562373095</speed>
  <fix>3d</fix>
</trkpt>
<trkpt lat="-27.272804" lon="151.2885736">
  <ele>344.68</ele>
  <time>2026-09-01T19:55:44Z</time>
  <course>101.04</course>
  <speed>0.0</speed>
  <fix>3d</fix>
</trkpt>
<trkpt lat="-27.2728041" lon="151.2885734">
  <ele>344.35</ele>
  <time>2026-09-01T19:55:44Z</time>
  <course>277.91</course>
  <speed>0.01414213562373095</speed>
  <fix>3d</fix>
</trkpt>
<trkpt lat="-27.272804" lon="151.2885737">
  <ele>344.58</ele>
  <time>2026-09-01T19:55:44Z</time>
  <course>87.14</course>
  <speed>0.0</speed>
  <fix>3d</fix>
</trkpt>
<trkpt lat="-27.2728041" lon="151.2885734">
  <ele>344.3</ele>
  <time>2026-09-01T19:55:44Z</time>
  <course>277.88</course>
  <speed>0.01414213562373095</speed>
  <fix>3d</fix>
</trkpt>
<trkpt lat="-27.272804" lon="151.2885737">
  <ele>344.58</ele>
  <time>2026-09-01T19:55:44Z</time>
  <course>87.14</course>
  <speed>0.0</speed>
  <fix>3d</fix>
</trkpt>
<trkpt lat="-27.2728041" lon="151.2885734">
  <ele>344.25</ele>
  <time>2026-09-01T19:55:44Z</time>
  <course>277.84</course>
  <speed>0.01414213562373095</speed>
  <fix>3d</fix>
</trkpt>
<trkpt lat="-27.272804" lon="151.2885737">
  <ele>344.47</ele>
  <time>2026-09-01T19:55:44Z</time>
  <course>66.26</course>
  <speed>0.0</speed>
  <fix>3d</fix>
</trkpt>
<trkpt lat="-27.2728041" lon="151.2885734">
  <ele>344.2</ele>
  <time>2026-09-01T19:55:44Z</time>
  <course>277.8</course>
  <speed>0.01414213562373095</speed>
  <fix>3d</fix>
</trkpt>
<trkpt lat="-27.272804" lon="151.2885737">
  <ele>344.47</ele>
  <time>2026-09-01T19:55:44Z</time>
  <course>66.26</course>
  <speed>0.0</speed>
  <fix>3d</fix>
</trkpt>
<trkpt lat="-27.2728041" lon="151.2885734">
  <ele>344.15</ele>
  <time>2026-09-01T19:55:44Z</time>
  <course>277.76</course>
  <speed>0.01</speed>
  <fix>3d</fix>
</trkpt>
<trkpt lat="-27.272804" lon="151.2885737">
  <ele>344.38</ele>
  <time>2026-09-01T19:55:44Z</time>
  <course>38.15</course>
  <speed>0.0</speed>
  <fix>3d</fix>
</trkpt>
<trkpt lat="-27.2728041" lon="151.2885734">
  <ele>344.1</ele>
  <time>2026-09-01T19:55:44Z</time>
  <course>277.73</course>
  <speed>0.01</speed>
  <fix>3d</fix>
</trkpt>
<trkpt lat="-27.272804" lon="151.2885737">
  <ele>344.28</ele>
  <time>2026-09-01T19:55:44Z</time>
  <course>22.34</course>
  <speed>0.01</speed>
  <fix>3d</fix>
</trkpt>
<trkpt lat="-27.2728041" lon="151.2885734">
  <ele>344.05</ele>
  <time>2026-09-01T19:55:44Z</time>
  <course>277.72</course>
  <speed>0.01</speed>
  <fix>3d</fix>
</trkpt>
<trkpt lat="-27.272804" lon="151.2885737">
  <ele>344.28</ele>
  <time>2026-09-01T19:55:44Z</time>
  <course>22.34</course>
  <speed>0.01</speed>
  <fix>3d</fix>
</trkpt>
<trkpt lat="-27.2728041" lon="151.2885734">
  <ele>343.99</ele>
  <time>2026-09-01T19:55:44Z</time>
  <course>277.71</course>
  <speed>0.01</speed>
  <fix>3d</fix>
</trkpt>
<trkpt lat="-27.272804" lon="151.2885737">
  <ele>344.18</ele>
  <time>2026-09-01T19:55:44Z</time>
  <course>14.04</course>
  <speed>0.01</speed>
  <fix>3d</fix>
</trkpt>
<trkpt lat="-27.2728041" lon="151.2885735">
  <ele>343.94</ele>
  <time>2026-09-01T19:55:44Z</time>
  <course>277.7</course>
  <speed>0.01</speed>
  <fix>3d</fix>
</trkpt>
<trkpt lat="-27.272804" lon="151.2885737">
  <ele>344.18</ele>
  <time>2026-09-01T19:55:44Z</time>
  <course>14.04</course>
  <speed>0.01</speed>
  <fix>3d</fix>
</trkpt>
<trkpt lat="-27.2728041" lon="151.2885735">
  <ele>343.89</ele>
  <time>2026-09-01T19:55:44Z</time>
  <course>277.7</course>
  <speed>0.01</speed>
  <fix>3d</fix>
</trkpt>
<trkpt lat="-27.272804" lon="151.2885737">
  <ele>344.08</ele>
  <time>2026-09-01T19:55:44Z</time>
  <course>7.77</course>
  <speed>0.02</speed>
  <fix>3d</fix>
</trkpt>
<trkpt lat="-27.2728041" lon="151.2885735">
  <ele>343.84</ele>
  <time>2026-09-01T19:55:44Z</time>
  <course>277.7</course>
  <speed>0.01</speed>
  <fix>3d</fix>
</trkpt>
<trkpt lat="-27.272804" lon="151.2885737">
  <ele>344.08</ele>
  <time>2026-09-01T19:55:44Z</time>
  <course>7.77</course>
  <speed>0.02</speed>
  <fix>3d</fix>
</trkpt>
<trkpt lat="-27.2728041" lon="151.2885735">
  <ele>343.79</ele>
  <time>2026-09-01T19:55:44Z</time>
  <course>277.69</course>
  <speed>0.01</speed>
  <fix>3d</fix>
</trkpt>
<trkpt lat="-27.2728039" lon="151.2885737">
  <ele>343.97</ele>
  <time>2026-09-01T19:55:44Z</time>
  <course>5.01</course>
  <speed>0.02</speed>
  <fix>3d</fix>
</trkpt>
<trkpt lat="-27.2728041" lon="151.2885735">
  <ele>343.74</ele>
  <time>2026-09-01T19:55:44Z</time>
  <course>277.69</course>
  <speed>0.01</speed>
  <fix>3d</fix>
</trkpt>
<trkpt lat="-27.2728039" lon="151.2885737">
  <ele>343.97</ele>
  <time>2026-09-01T19:55:44Z</time>
  <course>5.01</course>
  <speed>0.02</speed>
  <fix>3d</fix>
</trkpt>
<trkpt lat="-27.272804" lon="151.2885735">
  <ele>343.69</ele>
  <time>2026-09-01T19:55:44Z</time>
  <course>277.69</course>
  <speed>0.01</speed>
  <fix>3d</fix>
</trkpt>
<trkpt lat="-27.2728039" lon="151.2885737">
  <ele>343.88</ele>
  <time>2026-09-01T19:55:44Z</time>
  <course>4.16</course>
  <speed>0.02</speed>
  <fix>3d</fix>
</trkpt>
<trkpt lat="-27.272804" lon="151.2885735">
  <ele>343.64</ele>
  <time>2026-09-01T19:55:44Z</time>
  <course>277.69</course>
  <speed>0.01</speed>
  <fix>3d</fix>
</trkpt>
<trkpt lat="-27.2728039" lon="151.2885737">
  <ele>343.88</ele>
  <time>2026-09-01T19:55:44Z</time>
  <course>4.16</course>
  <speed>0.02</speed>
  <fix>3d</fix>
</trkpt>
<trkpt lat="-27.272804" lon="151.2885735">
  <ele>343.59</ele>
  <time>2026-09-01T19:55:44Z</time>
  <course>277.69</course>
  <speed>0.01</speed>
  <fix>3d</fix>
</trkpt>
<trkpt lat="-27.2728038" lon="151.2885737">
  <ele>343.78</ele>
  <time>2026-09-01T19:55:44Z</time>
  <course>3.4</course>
  <speed>0.02</speed>
  <fix>3d</fix>
</trkpt>
<trkpt lat="-27.272804" lon="151.2885735">
  <ele>343.54</ele>
  <time>2026-09-01T19:55:44Z</time>
  <course>277.68</course>
  <speed>0.01414213562373095</speed>
  <fix>3d</fix>
</trkpt>
<trkpt lat="-27.2728038" lon="151.2885737">
  <ele>343.78</ele>
  <time>2026-09-01T19:55:44Z</time>
  <course>3.4</course>
  <speed>0.02</speed>
  <fix>3d</fix>
</trkpt>
<trkpt lat="-27.272804" lon="151.2885735">
  <ele>343.49</ele>
  <time>2026-09-01T19:55:44Z</time>
  <course>277.68</course>
  <speed>0.01414213562373095</speed>
  <fix>3d</fix>
</trkpt>
<trkpt lat="-27.2728038" lon="151.2885737">
  <ele>343.68</ele>
  <time>2026-09-01T19:55:44Z</time>
  <course>2.92</course>
  <speed>0.03</speed>
  <fix>3d</fix>
</trkpt>
<trkpt lat="-27.2728039" lon="151.2885735">
  <ele>343.44</ele>
  <time>2026-09-01T19:55:44Z</time>
  <course>277.67</course>
  <speed>0.01414213562373095</speed>
  <fix>3d</fix>
</trkpt>
<trkpt lat="-27.2728038" lon="151.2885737">
  <ele>343.68</ele>
  <time>2026-09-01T19:55:44Z</time>
  <course>2.92</course>
  <speed>0.03</speed>
  <fix>3d</fix>
</trkpt>
<trkpt lat="-27.2728039" lon="151.2885735">
  <ele>343.39</ele>
  <time>2026-09-01T19:55:44Z</time>
  <course>277.67</course>
  <speed>0.022360679774997897</speed>
  <fix>3d</fix>
</trkpt>
<trkpt lat="-27.2728037" lon="151.2885737">
  <ele>343.58</ele>
  <time>2026-09-01T19:55:44Z</time>
  <course>1.55</course>
  <speed>0.03</speed>
  <fix>3d</fix>
</trkpt>
<trkpt lat="-27.2728039" lon="151.2885735">
  <ele>343.34</ele>
  <time>2026-09-01T19:55:44Z</time>
  <course>277.67</course>
  <speed>0.022360679774997897</speed>
  <fix>3d</fix>
</trkpt>
<trkpt lat="-27.2728037" lon="151.2885737">
  <ele>343.58</ele>
  <time>2026-09-01T19:55:44Z</time>
  <course>1.55</course>
  <speed>0.03</speed>
  <fix>3d</fix>
</trkpt>
<trkpt lat="-27.2728038" lon="151.2885735">
  <ele>343.29</ele>
  <time>2026-09-01T19:55:44Z</time>
  <course>277.67</course>
  <speed>0.022360679774997897</speed>
  <fix>3d</fix>
</trkpt>
<trkpt lat="-27.2728037" lon="151.2885737">
  <ele>343.47</ele>
  <time>2026-09-01T19:55:44Z</time>
  <course>358.38</course>
  <speed>0.03</speed>
  <fix>3d</fix>
</trkpt>
<trkpt lat="-27.2728038" lon="151.2885735">
  <ele>343.24</ele>
  <time>2026-09-01T19:55:44Z</time>
  <course>277.67</course>
  <speed>0.022360679774997897</speed>
  <fix>3d</fix>
</trkpt>
<trkpt lat="-27.2728037" lon="151.2885737">
  <ele>343.47</ele>
  <time>2026-09-01T19:55:44Z</time>
  <course>358.38</course>
  <speed>0.03</speed>
  <fix>3d</fix>
</trkpt>
<trkpt lat="-27.2728038" lon="151.2885735">
  <ele>343.19</ele>
  <time>2026-09-01T19:55:44Z</time>
  <course>277.67</course>
  <speed>0.022360679774997897</speed>
  <fix>3d</fix>
</trkpt>
<trkpt lat="-27.2728036" lon="151.2885737">
  <ele>343.38</ele>
  <time>2026-09-01T19:55:44Z</time>
  <course>354.96</course>
  <speed>0.03</speed>
  <fix>3d</fix>
</trkpt>
<trkpt lat="-27.2728038" lon="151.2885735">
  <ele>343.14</ele>
  <time>2026-09-01T19:55:44Z</time>
  <course>277.66</course>
  <speed>0.022360679774997897</speed>
  <fix>3d</fix>
</trkpt>
<trkpt lat="-27.2728036" lon="151.2885737">
  <ele>343.38</ele>
  <time>2026-09-01T19:55:44Z</time>
  <course>354.96</course>
  <speed>0.03</speed>
  <fix>3d</fix>
</trkpt>
<trkpt lat="-27.2728037" lon="151.2885735">
  <ele>343.09</ele>
  <time>2026-09-01T19:55:44Z</time>
  <course>277.66</course>
  <speed>0.022360679774997897</speed>
  <fix>3d</fix>
</trkpt>
<trkpt lat="-27.2728035" lon="151.2885737">
  <ele>343.28</ele>
  <time>2026-09-01T19:55:44Z</time>
  <course>352.89</course>
  <speed>0.03</speed>
  <fix>3d</fix>
</trkpt>
<trkpt lat="-27.2728037" lon="151.2885735">
  <ele>343.04</ele>
  <time>2026-09-01T19:55:44Z</time>
  <course>277.65</course>
  <speed>0.022360679774997897</speed>
  <fix>3d</fix>
</trkpt>
<trkpt lat="-27.2728035" lon="151.2885737">
  <ele>343.28</ele>
  <time>2026-09-01T19:55:44Z</time>
  <course>352.89</course>
  <speed>0.03</speed>
  <fix>3d</fix>
</trkpt>
<trkpt lat="-27.2728037" lon="151.2885735">
  <ele>342.99</ele>
  <time>2026-09-01T19:55:44Z</time>
  <course>277.65</course>
  <speed>0.022360679774997897</speed>
  <fix>3d</fix>
</trkpt>
<trkpt lat="-27.2728035" lon="151.2885737">
  <ele>343.18</ele>
  <time>2026-09-01T19:55:44Z</time>
  <course>352.1</course>
  <speed>0.03</speed>
  <fix>3d</fix>
</trkpt>
<trkpt lat="-27.2728036" lon="151.2885735">
  <ele>342.94</ele>
  <time>2026-09-01T19:55:44Z</time>
  <course>277.64</course>
  <speed>0.022360679774997897</speed>
  <fix>3d</fix>
</trkpt>
<trkpt lat="-27.2728035" lon="151.2885737">
  <ele>343.18</ele>
  <time>2026-09-01T19:55:44Z</time>
  <course>352.1</course>
  <speed>0.03</speed>
  <fix>3d</fix>
</trkpt>
<trkpt lat="-27.2728036" lon="151.2885735">
  <ele>342.89</ele>
  <time>2026-09-01T19:55:44Z</time>
  <course>277.64</course>
  <speed>0.02</speed>
  <fix>3d</fix>
</trkpt>
<trkpt lat="-27.2728034" lon="151.2885737">
  <ele>343.08</ele>
  <time>2026-09-01T19:55:44Z</time>
  <course>351.7</course>
  <speed>0.03</speed>
  <fix>3d</fix>
</trkpt>
<trkpt lat="-27.2728036" lon="151.2885735">
  <ele>342.84</ele>
  <time>2026-09-01T19:55:44Z</time>
  <course>277.64</course>
  <speed>0.02</speed>
  <fix>3d</fix>
</trkpt>
<trkpt lat="-27.2728034" lon="151.2885737">
  <ele>343.08</ele>
  <time>2026-09-01T19:55:44Z</time>
  <course>351.7</course>
  <speed>0.03</speed>
  <fix>3d</fix>
</trkpt>
<trkpt lat="-27.2728036" lon="151.2885735">
  <ele>342.79</ele>
  <time>2026-09-01T19:55:44Z</time>
  <course>277.65</course>
  <speed>0.02</speed>
  <fix>3d</fix>
</trkpt>
<trkpt lat="-27.2728034" lon="151.2885737">
  <ele>342.97</ele>
  <time>2026-09-01T19:55:44Z</time>
  <course>351.28</course>
  <speed>0.02</speed>
  <fix>3d</fix>
</trkpt>
<trkpt lat="-27.2728035" lon="151.2885735">
  <ele>342.74</ele>
  <time>2026-09-01T19:55:44Z</time>
  <course>277.65</course>
  <speed>0.02</speed>
  <fix>3d</fix>
</trkpt>
<trkpt lat="-27.2728034" lon="151.2885737">
  <ele>342.97</ele>
  <time>2026-09-01T19:55:44Z</time>
  <course>351.28</course>
  <speed>0.02</speed>
  <fix>3d</fix>
</trkpt>
<trkpt lat="-27.2728035" lon="151.2885735">
  <ele>342.71</ele>
  <time>2026-09-01T19:55:44Z</time>
  <course>277.66</course>
  <speed>0.01414213562373095</speed>
  <fix>3d</fix>
</trkpt>
<trkpt lat="-27.2728033" lon="151.2885737">
  <ele>342.89</ele>
  <time>2026-09-01T19:55:44Z</time>
  <course>351.13</course>
  <speed>0.01</speed>
  <fix>3d</fix>
</trkpt>
<trkpt lat="-27.2728035" lon="151.2885735">
  <ele>342.71</ele>
  <time>2026-09-01T19:55:44Z</time>
  <course>277.66</course>
  <speed>0.022360679774997897</speed>
  <fix>3d</fix>
</trkpt>
<trkpt lat="-27.2728033" lon="151.2885737">
  <ele>342.89</ele>
  <time>2026-09-01T19:55:44Z</time>
  <course>351.13</course>
  <speed>0.01</speed>
  <fix>3d</fix>
</trkpt>
<trkpt lat="-27.2728035" lon="151.2885735">
  <ele>342.73</ele>
  <time>2026-09-01T19:55:44Z</time>
  <course>277.65</course>
  <speed>0.022360679774997897</speed>
  <fix>3d</fix>
</trkpt>
<trkpt lat="-27.2728033" lon="151.2885737">
  <ele>342.85</ele>
  <time>2026-09-01T19:55:44Z</time>
  <course>351.29</course>
  <speed>0.0</speed>
  <fix>3d</fix>
</trkpt>
<trkpt lat="-27.2728035" lon="151.2885735">
  <ele>342.74</ele>
  <time>2026-09-01T19:55:44Z</time>
  <course>277.65</course>
  <speed>0.022360679774997897</speed>
  <fix>3d</fix>
</trkpt>
<trkpt lat="-27.2728033" lon="151.2885737">
  <ele>342.85</ele>
  <time>2026-09-01T19:55:44Z</time>
  <course>351.29</course>
  <speed>0.0</speed>
  <fix>3d</fix>
</trkpt>
<trkpt lat="-27.2728036" lon="151.2885735">
  <ele>342.74</ele>
  <time>2026-09-01T19:55:44Z</time>
  <course>277.65</course>
  <speed>0.022360679774997897</speed>
  <fix>3d</fix>
</trkpt>
<trkpt lat="-27.2728033" lon="151.2885737">
  <ele>342.86</ele>
  <time>2026-09-01T19:55:44Z</time>
  <course>171.27</course>
  <speed>0.0</speed>
  <fix>3d</fix>
</trkpt>
<trkpt lat="-27.2728035" lon="151.2885735">
  <ele>342.74</ele>
  <time>2026-09-01T19:55:44Z</time>
  <course>277.65</course>
  <speed>0.022360679774997897</speed>
  <fix>3d</fix>
</trkpt>
<trkpt lat="-27.2728033" lon="151.2885737">
  <ele>342.86</ele>
  <time>2026-09-01T19:55:44Z</time>
  <course>171.27</course>
  <speed>0.0</speed>
  <fix>3d</fix>
</trkpt>
<trkpt lat="-27.2728035" lon="151.2885735">
  <ele>342.73</ele>
  <time>2026-09-01T19:55:44Z</time>
  <course>277.65</course>
  <speed>0.022360679774997897</speed>
  <fix>3d</fix>
</trkpt>
<trkpt lat="-27.2728033" lon="151.2885737">
  <ele>342.87</ele>
  <time>2026-09-01T19:55:44Z</time>
  <course>351.26</course>
  <speed>0.0</speed>
  <fix>3d</fix>
</trkpt>
<trkpt lat="-27.2728035" lon="151.2885735">
  <ele>342.73</ele>
  <time>2026-09-01T19:55:44Z</time>
  <course>277.65</course>
  <speed>0.022360679774997897</speed>
  <fix>3d</fix>
</trkpt>
<trkpt lat="-27.2728033" lon="151.2885737">
  <ele>342.87</ele>
  <time>2026-09-01T19:55:44Z</time>
  <course>351.26</course>
  <speed>0.0</speed>
  <fix>3d</fix>
</trkpt>
<trkpt lat="-27.2728035" lon="151.2885735">
  <ele>342.73</ele>
  <time>2026-09-01T19:55:44Z</time>
  <course>277.66</course>
  <speed>0.022360679774997897</speed>
  <fix>3d</fix>
</trkpt>
<trkpt lat="-27.2728033" lon="151.2885737">
  <ele>342.87</ele>
  <time>2026-09-01T19:55:44Z</time>
  <course>351.27</course>
  <speed>0.0</speed>
  <fix>3d</fix>
</trkpt>
<trkpt lat="-27.2728035" lon="151.2885735">
  <ele>342.73</ele>
  <time>2026-09-01T19:55:44Z</time>
  <course>277.65</course>
  <speed>0.022360679774997897</speed>
  <fix>3d</fix>
</trkpt>
<trkpt lat="-27.2728033" lon="151.2885737">
  <ele>342.87</ele>
  <time>2026-09-01T19:55:44Z</time>
  <course>351.27</course>
  <speed>0.0</speed>
  <fix>3d</fix>
</trkpt>
<trkpt lat="-27.2728035" lon="151.2885735">
  <ele>342.73</ele>
  <time>2026-09-01T19:55:44Z</time>
  <course>277.66</course>
  <speed>0.022360679774997897</speed>
  <fix>3d</fix>
</trkpt>
<trkpt lat="-27.2728033" lon="151.2885737">
  <ele>342.87</ele>
  <time>2026-09-01T19:55:44Z</time>
  <course>171.28</course>
  <speed>0.0</speed>
  <fix>3d</fix>
</trkpt>
<trkpt lat="-27.2728035" lon="151.2885735">
  <ele>342.73</ele>
  <time>2026-09-01T19:55:44Z</time>
  <course>277.66</course>
  <speed>0.022360679774997897</speed>
  <fix>3d</fix>
</trkpt>
<trkpt lat="-27.2728033" lon="151.2885737">
  <ele>342.87</ele>
  <time>2026-09-01T19:55:44Z</time>
  <course>171.28</course>
  <speed>0.0</speed>
  <fix>3d</fix>
</trkpt>
<trkpt lat="-27.2728035" lon="151.2885735">
  <ele>342.73</ele>
  <time>2026-09-01T19:55:44Z</time>
  <course>277.66</course>
  <speed>0.022360679774997897</speed>
  <fix>3d</fix>
</trkpt>
<trkpt lat="-27.2728033" lon="151.2885737">
  <ele>342.87</ele>
  <time>2026-09-01T19:55:44Z</time>
  <course>171.29</course>
  <speed>0.0</speed>
  <fix>3d</fix>
</trkpt>
<trkpt lat="-27.2728035" lon="151.2885735">
  <ele>342.73</ele>
  <time>2026-09-01T19:55:44Z</time>
  <course>277.66</course>
  <speed>0.022360679774997897</speed>
  <fix>3d</fix>
</trkpt>
<trkpt lat="-27.2728033" lon="151.2885737">
  <ele>342.87</ele>
  <time>2026-09-01T19:55:44Z</time>
  <course>171.29</course>
  <speed>0.0</speed>
  <fix>3d</fix>
</trkpt>
<trkpt lat="-27.2728035" lon="151.2885735">
  <ele>342.73</ele>
  <time>2026-09-01T19:55:44Z</time>
  <course>277.66</course>
  <speed>0.022360679774997897</speed>
  <fix>3d</fix>
</trkpt>
<trkpt lat="-27.2728033" lon="151.2885737">
  <ele>342.87</ele>
  <time>2026-09-01T19:55:44Z</time>
  <course>351.3</course>
  <speed>0.0</speed>
  <fix>3d</fix>
</trkpt>
<trkpt lat="-27.2728035" lon="151.2885735">
  <ele>342.73</ele>
  <time>2026-09-01T19:55:44Z</time>
  <course>277.66</course>
  <speed>0.022360679774997897</speed>
  <fix>3d</fix>
</trkpt>
<trkpt lat="-27.2728033" lon="151.2885737">
  <ele>342.87</ele>
  <time>2026-09-01T19:55:44Z</time>
  <course>351.3</course>
  <speed>0.0</speed>
  <fix>3d</fix>
</trkpt>
<trkpt lat="-27.2728035" lon="151.2885735">
  <ele>342.73</ele>
  <time>2026-09-01T19:55:44Z</time>
  <course>277.66</course>
  <speed>0.022360679774997897</speed>
  <fix>3d</fix>
</trkpt>
<trkpt lat="-27.2728033" lon="151.2885737">
  <ele>342.87</ele>
  <time>2026-09-01T19:55:44Z</time>
  <course>351.52</course>
  <speed>0.0</speed>
  <fix>3d</fix>
</trkpt>
<trkpt lat="-27.2728035" lon="151.2885735">
  <ele>342.73</ele>
  <time>2026-09-01T19:55:44Z</time>
  <course>277.66</course>
  <speed>0.01414213562373095</speed>
  <fix>3d</fix>
</trkpt>
<trkpt lat="-27.2728033" lon="151.2885737">
  <ele>342.87</ele>
  <time>2026-09-01T19:55:44Z</time>
  <course>351.52</course>
  <speed>0.0</speed>
  <fix>3d</fix>
</trkpt>
<trkpt lat="-27.2728035" lon="151.2885735">
  <ele>342.73</ele>
  <time>2026-09-01T19:55:44Z</time>
  <course>277.66</course>
  <speed>0.01414213562373095</speed>
  <fix>3d</fix>
</trkpt>
<trkpt lat="-27.2728033" lon="151.2885737">
  <ele>342.87</ele>
  <time>2026-09-01T19:55:44Z</time>
  <course>171.25</course>
  <speed>0.0</speed>
  <fix>3d</fix>
</trkpt>
<trkpt lat="-27.2728035" lon="151.2885735">
  <ele>342.73</ele>
  <time>2026-09-01T19:55:44Z</time>
  <course>277.66</course>
  <speed>0.01414213562373095</speed>
  <fix>3d</fix>
</trkpt>
<trkpt lat="-27.2728033" lon="151.2885737">
  <ele>342.87</ele>
  <time>2026-09-01T19:55:44Z</time>
  <course>171.25</course>
  <speed>0.0</speed>
  <fix>3d</fix>
</trkpt>
<trkpt lat="-27.2728035" lon="151.2885735">
  <ele>342.73</ele>
  <time>2026-09-01T19:55:44Z</time>
  <course>277.66</course>
  <speed>0.01414213562373095</speed>
  <fix>3d</fix>
</trkpt>
<trkpt lat="-27.2728033" lon="151.2885737">
  <ele>342.87</ele>
  <time>2026-09-01T19:55:44Z</time>
  <course>170.71</course>
  <speed>0.0</speed>
  <fix>3d</fix>
</trkpt>
<trkpt lat="-27.2728035" lon="151.2885735">
  <ele>342.73</ele>
  <time>2026-09-01T19:55:44Z</time>
  <course>277.66</course>
  <speed>0.01414213562373095</speed>
  <fix>3d</fix>
</trkpt>
<trkpt lat="-27.2728033" lon="151.2885737">
  <ele>342.87</ele>
  <time>2026-09-01T19:55:44Z</time>
  <course>170.71</course>
  <speed>0.0</speed>
  <fix>3d</fix>
</trkpt>
<trkpt lat="-27.2728035" lon="151.2885735">
  <ele>342.73</ele>
  <time>2026-09-01T19:55:44Z</time>
  <course>277.66</course>
  <speed>0.01414213562373095</speed>
  <fix>3d</fix>
</trkpt>
<trkpt lat="-27.2728033" lon="151.2885737">
  <ele>342.87</ele>
  <time>2026-09-01T19:55:44Z</time>
  <course>355.48</course>
  <speed>0.0</speed>
  <fix>3d</fix>
</trkpt>
<trkpt lat="-27.2728035" lon="151.2885735">
  <ele>342.73</ele>
  <time>2026-09-01T19:55:44Z</time>
  <course>277.66</course>
  <speed>0.01414213562373095</speed>
  <fix>3d</fix>
</trkpt>
<trkpt lat="-27.2728033" lon="151.2885737">
  <ele>342.87</ele>
  <time>2026-09-01T19:55:44Z</time>
  <course>355.48</course>
  <speed>0.0</speed>
  <fix>3d</fix>
</trkpt>
<trkpt lat="-27.2728035" lon="151.2885735">
  <ele>342.73</ele>
  <time>2026-09-01T19:55:44Z</time>
  <course>277.66</course>
  <speed>0.01414213562373095</speed>
  <fix>3d</fix>
</trkpt>
<trkpt lat="-27.2728033" lon="151.2885737">
  <ele>342.87</ele>
  <time>2026-09-01T19:55:44Z</time>
  <course>130.94</course>
  <speed>0.0</speed>
  <fix>3d</fix>
</trkpt>
<trkpt lat="-27.2728035" lon="151.2885735">
  <ele>342.73</ele>
  <time>2026-09-01T19:55:44Z</time>
  <course>277.66</course>
  <speed>0.01414213562373095</speed>
  <fix>3d</fix>
</trkpt>
<trkpt lat="-27.2728033" lon="151.2885737">
  <ele>342.87</ele>
  <time>2026-09-01T19:55:44Z</time>
  <course>130.94</course>
  <speed>0.0</speed>
  <fix>3d</fix>
</trkpt>
<trkpt lat="-27.2728035" lon="151.2885735">
  <ele>342.73</ele>
  <time>2026-09-01T19:55:44Z</time>
  <course>277.66</course>
  <speed>0.01414213562373095</speed>
  <fix>3d</fix>
</trkpt>
<trkpt lat="-27.2728033" lon="151.2885737">
  <ele>342.87</ele>
  <time>2026-09-01T19:55:44Z</time>
  <course>152.27</course>
  <speed>0.0</speed>
  <fix>3d</fix>
</trkpt>
<trkpt lat="-27.2728035" lon="151.2885735">
  <ele>342.73</ele>
  <time>2026-09-01T19:55:44Z</time>
  <course>277.66</course>
  <speed>0.01414213562373095</speed>
  <fix>3d</fix>
</trkpt>
<trkpt lat="-27.2728033" lon="151.2885737">
  <ele>342.87</ele>
  <time>2026-09-01T19:55:44Z</time>
  <course>152.27</course>
  <speed>0.0</speed>
  <fix>3d</fix>
</trkpt>
<trkpt lat="-27.2728035" lon="151.2885735">
  <ele>342.73</ele>
  <time>2026-09-01T19:55:44Z</time>
  <course>277.66</course>
  <speed>0.01414213562373095</speed>
  <fix>3d</fix>
</trkpt>
<trkpt lat="-27.2728033" lon="151.2885737">
  <ele>342.87</ele>
  <time>2026-09-01T19:55:44Z</time>
  <course>125.47</course>
  <speed>0.0</speed>
  <fix>3d</fix>
</trkpt>
<trkpt lat="-27.2728035" lon="151.2885735">
  <ele>342.73</ele>
  <time>2026-09-01T19:55:44Z</time>
  <course>277.66</course>
  <speed>0.01414213562373095</speed>
  <fix>3d</fix>
</trkpt>
<trkpt lat="-27.2728033" lon="151.2885737">
  <ele>342.87</ele>
  <time>2026-09-01T19:55:44Z</time>
  <course>125.47</course>
  <speed>0.0</speed>
  <fix>3d</fix>
</trkpt>
<trkpt lat="-27.2728035" lon="151.2885735">
  <ele>342.73</ele>
  <time>2026-09-01T19:55:44Z</time>
  <course>277.66</course>
  <speed>0.01414213562373095</speed>
  <fix>3d</fix>
</trkpt>
<trkpt lat="-27.2728033" lon="151.2885737">
  <ele>342.87</ele>
  <time>2026-09-01T19:55:44Z</time>
  <course>137.71</course>
  <speed>0.0</speed>
  <fix>3d</fix>
</trkpt>
<trkpt lat="-27.2728035" lon="151.2885735">
  <ele>342.73</ele>
  <time>2026-09-01T19:55:44Z</time>
  <course>277.66</course>
  <speed>0.01414213562373095</speed>
  <fix>3d</fix>
</trkpt>
<trkpt lat="-27.2728033" lon="151.2885737">
  <ele>342.87</ele>
  <time>2026-09-01T19:55:44Z</time>
  <course>137.71</course>
  <speed>0.0</speed>
  <fix>3d</fix>
</trkpt>
<trkpt lat="-27.2728035" lon="151.2885735">
  <ele>342.73</ele>
  <time>2026-09-01T19:55:44Z</time>
  <course>277.66</course>
  <speed>0.01414213562373095</speed>
  <fix>3d</fix>
</trkpt>
<trkpt lat="-27.2728033" lon="151.2885737">
  <ele>342.87</ele>
  <time>2026-09-01T19:55:44Z</time>
  <course>153.87</course>
  <speed>0.0</speed>
  <fix>3d</fix>
</trkpt>
<trkpt lat="-27.2728035" lon="151.2885735">
  <ele>342.73</ele>
  <time>2026-09-01T19:55:44Z</time>
  <course>277.66</course>
  <speed>0.01414213562373095</speed>
  <fix>3d</fix>
</trkpt>
<trkpt lat="-27.2728033" lon="151.2885737">
  <ele>342.87</ele>
  <time>2026-09-01T19:55:44Z</time>
  <course>153.87</course>
  <speed>0.0</speed>
  <fix>3d</fix>
</trkpt>
<trkpt lat="-27.2728035" lon="151.2885735">
  <ele>342.73</ele>
  <time>2026-09-01T19:55:44Z</time>
  <course>277.66</course>
  <speed>0.01414213562373095</speed>
  <fix>3d</fix>
</trkpt>
<trkpt lat="-27.2728033" lon="151.2885737">
  <ele>342.87</ele>
  <time>2026-09-01T19:55:44Z</time>
  <course>129.26</course>
  <speed>0.0</speed>
  <fix>3d</fix>
</trkpt>
<trkpt lat="-27.2728035" lon="151.2885735">
  <ele>342.73</ele>
  <time>2026-09-01T19:55:44Z</time>
  <course>277.66</course>
  <speed>0.01414213562373095</speed>
  <fix>3d</fix>
</trkpt>
<trkpt lat="-27.2728033" lon="151.2885737">
  <ele>342.87</ele>
  <time>2026-09-01T19:55:44Z</time>
  <course>129.26</course>
  <speed>0.0</speed>
  <fix>3d</fix>
</trkpt>
<trkpt lat="-27.2728035" lon="151.2885735">
  <ele>342.73</ele>
  <time>2026-09-01T19:55:44Z</time>
  <course>277.66</course>
  <speed>0.01414213562373095</speed>
  <fix>3d</fix>
</trkpt>
<trkpt lat="-27.2728033" lon="151.2885737">
  <ele>342.87</ele>
  <time>2026-09-01T19:55:44Z</time>
  <course>126.91</course>
  <speed>0.0</speed>
  <fix>3d</fix>
</trkpt>
<trkpt lat="-27.2728035" lon="151.2885735">
  <ele>342.73</ele>
  <time>2026-09-01T19:55:44Z</time>
  <course>277.66</course>
  <speed>0.01414213562373095</speed>
  <fix>3d</fix>
</trkpt>
<trkpt lat="-27.2728033" lon="151.2885737">
  <ele>342.87</ele>
  <time>2026-09-01T19:55:44Z</time>
  <course>126.91</course>
  <speed>0.0</speed>
  <fix>3d</fix>
</trkpt>
<trkpt lat="-27.2728035" lon="151.2885735">
  <ele>342.73</ele>
  <time>2026-09-01T19:55:44Z</time>
  <course>277.66</course>
  <speed>0.01414213562373095</speed>
  <fix>3d</fix>
</trkpt>
<trkpt lat="-27.2728033" lon="151.2885737">
  <ele>342.87</ele>
  <time>2026-09-01T19:55:44Z</time>
  <course>128.41</course>
  <speed>0.0</speed>
  <fix>3d</fix>
</trkpt>
<trkpt lat="-27.2728035" lon="151.2885735">
  <ele>342.73</ele>
  <time>2026-09-01T19:55:44Z</time>
  <course>277.66</course>
  <speed>0.01414213562373095</speed>
  <fix>3d</fix>
</trkpt>
<trkpt lat="-27.2728033" lon="151.2885737">
  <ele>342.87</ele>
  <time>2026-09-01T19:55:44Z</time>
  <course>128.41</course>
  <speed>0.0</speed>
  <fix>3d</fix>
</trkpt>
<trkpt lat="-27.2728035" lon="151.2885735">
  <ele>342.73</ele>
  <time>2026-09-01T19:55:44Z</time>
  <course>277.66</course>
  <speed>0.01414213562373095</speed>
  <fix>3d</fix>
</trkpt>
<trkpt lat="-27.2728033" lon="151.2885737">
  <ele>342.87</ele>
  <time>2026-09-01T19:55:44Z</time>
  <course>126.84</course>
  <speed>0.0</speed>
  <fix>3d</fix>
</trkpt>
<trkpt lat="-27.2728035" lon="151.2885735">
  <ele>342.73</ele>
  <time>2026-09-01T19:55:44Z</time>
  <course>277.66</course>
  <speed>0.01414213562373095</speed>
  <fix>3d</fix>
</trkpt>
<trkpt lat="-27.2728033" lon="151.2885737">
  <ele>342.87</ele>
  <time>2026-09-01T19:55:44Z</time>
  <course>126.84</course>
  <speed>0.0</speed>
  <fix>3d</fix>
</trkpt>
<trkpt lat="-27.2728035" lon="151.2885735">
  <ele>342.73</ele>
  <time>2026-09-01T19:55:44Z</time>
  <course>277.66</course>
  <speed>0.01414213562373095</speed>
  <fix>3d</fix>
</trkpt>
<trkpt lat="-27.2728033" lon="151.2885737">
  <ele>342.87</ele>
  <time>2026-09-01T19:55:44Z</time>
  <course>126.21</course>
  <speed>0.0</speed>
  <fix>3d</fix>
</trkpt>
<trkpt lat="-27.2728035" lon="151.2885735">
  <ele>342.73</ele>
  <time>2026-09-01T19:55:44Z</time>
  <course>277.66</course>
  <speed>0.01414213562373095</speed>
  <fix>3d</fix>
</trkpt>
<trkpt lat="-27.2728033" lon="151.2885737">
  <ele>342.87</ele>
  <time>2026-09-01T19:55:44Z</time>
  <course>126.21</course>
  <speed>0.0</speed>
  <fix>3d</fix>
</trkpt>
<trkpt lat="-27.2728035" lon="151.2885735">
  <ele>342.73</ele>
  <time>2026-09-01T19:55:44Z</time>
  <course>277.66</course>
  <speed>0.01414213562373095</speed>
  <fix>3d</fix>
</trkpt>
<trkpt lat="-27.2728033" lon="151.2885737">
  <ele>342.87</ele>
  <time>2026-09-01T19:55:44Z</time>
  <course>132.08</course>
  <speed>0.0</speed>
  <fix>3d</fix>
</trkpt>
<trkpt lat="-27.2728035" lon="151.2885735">
  <ele>342.73</ele>
  <time>2026-09-01T19:55:44Z</time>
  <course>277.66</course>
  <speed>0.01414213562373095</speed>
  <fix>3d</fix>
</trkpt>
<trkpt lat="-27.2728033" lon="151.2885737">
  <ele>342.87</ele>
  <time>2026-09-01T19:55:44Z</time>
  <course>132.08</course>
  <speed>0.0</speed>
  <fix>3d</fix>
</trkpt>
<trkpt lat="-27.2728035" lon="151.2885735">
  <ele>342.73</ele>
  <time>2026-09-01T19:55:44Z</time>
  <course>277.66</course>
  <speed>0.01414213562373095</speed>
  <fix>3d</fix>
</trkpt>
<trkpt lat="-27.2728033" lon="151.2885737">
  <ele>342.87</ele>
  <time>2026-09-01T19:55:44Z</time>
  <course>136.91</course>
  <speed>0.0</speed>
  <fix>3d</fix>
</trkpt>
<trkpt lat="-27.2728035" lon="151.2885735">
  <ele>342.73</ele>
  <time>2026-09-01T19:55:44Z</time>
  <course>277.66</course>
  <speed>0.01414213562373095</speed>
  <fix>3d</fix>
</trkpt>
<trkpt lat="-27.2728033" lon="151.2885737">
  <ele>342.87</ele>
  <time>2026-09-01T19:55:44Z</time>
  <course>136.91</course>
  <speed>0.0</speed>
  <fix>3d</fix>
</trkpt>
<trkpt lat="-27.2728035" lon="151.2885735">
  <ele>342.72</ele>
  <time>2026-09-01T19:55:44Z</time>
  <course>277.66</course>
  <speed>0.01414213562373095</speed>
  <fix>3d</fix>
</trkpt>
<trkpt lat="-27.2728033" lon="151.2885737">
  <ele>342.87</ele>
  <time>2026-09-01T19:55:44Z</time>
  <course>141.71</course>
  <speed>0.0</speed>
  <fix>3d</fix>
</trkpt>
<trkpt lat="-27.2728035" lon="151.2885735">
  <ele>342.72</ele>
  <time>2026-09-01T19:55:44Z</time>
  <course>277.66</course>
  <speed>0.01414213562373095</speed>
  <fix>3d</fix>
</trkpt>
<trkpt lat="-27.2728033" lon="151.2885737">
  <ele>342.87</ele>
  <time>2026-09-01T19:55:44Z</time>
  <course>141.71</course>
  <speed>0.0</speed>
  <fix>3d</fix>
</trkpt>
<trkpt lat="-27.2728035" lon="151.2885735">
  <ele>342.72</ele>
  <time>2026-09-01T19:55:44Z</time>
  <course>277.66</course>
  <speed>0.01414213562373095</speed>
  <fix>3d</fix>
</trkpt>
<trkpt lat="-27.2728033" lon="151.2885737">
  <ele>342.87</ele>
  <time>2026-09-01T19:55:44Z</time>
  <course>145.92</course>
  <speed>0.0</speed>
  <fix>3d</fix>
</trkpt>
<trkpt lat="-27.2728035" lon="151.2885735">
  <ele>342.72</ele>
  <time>2026-09-01T19:55:44Z</time>
  <course>277.66</course>
  <speed>0.01414213562373095</speed>
  <fix>3d</fix>
</trkpt>
<trkpt lat="-27.2728033" lon="151.2885737">
  <ele>342.87</ele>
  <time>2026-09-01T19:55:44Z</time>
  <course>145.92</course>
  <speed>0.0</speed>
  <fix>3d</fix>
</trkpt>
<trkpt lat="-27.2728035" lon="151.2885735">
  <ele>342.72</ele>
  <time>2026-09-01T19:55:44Z</time>
  <course>277.66</course>
  <speed>0.01414213562373095</speed>
  <fix>3d</fix>
</trkpt>
<trkpt lat="-27.2728033" lon="151.2885737">
  <ele>342.87</ele>
  <time>2026-09-01T19:55:44Z</time>
  <course>134.93</course>
  <speed>0.0</speed>
  <fix>3d</fix>
</trkpt>
<trkpt lat="-27.2728035" lon="151.2885735">
  <ele>342.72</ele>
  <time>2026-09-01T19:55:44Z</time>
  <course>277.66</course>
  <speed>0.01414213562373095</speed>
  <fix>3d</fix>
</trkpt>
<trkpt lat="-27.2728033" lon="151.2885737">
  <ele>342.87</ele>
  <time>2026-09-01T19:55:44Z</time>
  <course>134.93</course>
  <speed>0.0</speed>
  <fix>3d</fix>
</trkpt>
<trkpt lat="-27.2728035" lon="151.2885735">
  <ele>342.72</ele>
  <time>2026-09-01T19:55:44Z</time>
  <course>277.66</course>
  <speed>0.01414213562373095</speed>
  <fix>3d</fix>
</trkpt>
<trkpt lat="-27.2728033" lon="151.2885737">
  <ele>342.87</ele>
  <time>2026-09-01T19:55:44Z</time>
  <course>141.12</course>
  <speed>0.0</speed>
  <fix>3d</fix>
</trkpt>
<trkpt lat="-27.2728035" lon="151.2885735">
  <ele>342.72</ele>
  <time>2026-09-01T19:55:45Z</time>
  <course>277.66</course>
  <speed>0.01414213562373095</speed>
  <fix>3d</fix>
</trkpt>
<trkpt lat="-27.2728033" lon="151.2885737">
  <ele>342.87</ele>
  <time>2026-09-01T19:55:45Z</time>
  <course>141.12</course>
  <speed>0.0</speed>
  <fix>3d</fix>
</trkpt>
<trkpt lat="-27.2728035" lon="151.2885735">
  <ele>342.72</ele>
  <time>2026-09-01T19:55:45Z</time>
  <course>277.66</course>
  <speed>0.01414213562373095</speed>
  <fix>3d</fix>
</trkpt>
<trkpt lat="-27.2728033" lon="151.2885737">
  <ele>342.87</ele>
  <time>2026-09-01T19:55:45Z</time>
  <course>137.65</course>
  <speed>0.0</speed>
  <fix>3d</fix>
</trkpt>
<trkpt lat="-27.2728035" lon="151.2885735">
  <ele>342.72</ele>
  <time>2026-09-01T19:55:45Z</time>
  <course>277.66</course>
  <speed>0.01414213562373095</speed>
  <fix>3d</fix>
</trkpt>
<trkpt lat="-27.2728033" lon="151.2885737">
  <ele>342.87</ele>
  <time>2026-09-01T19:55:45Z</time>
  <course>137.65</course>
  <speed>0.0</speed>
  <fix>3d</fix>
</trkpt>
<trkpt lat="-27.2728035" lon="151.2885735">
  <ele>342.73</ele>
  <time>2026-09-01T19:55:45Z</time>
  <course>277.66</course>
  <speed>0.01414213562373095</speed>
  <fix>3d</fix>
</trkpt>
<trkpt lat="-27.2728033" lon="151.2885737">
  <ele>342.87</ele>
  <time>2026-09-01T19:55:45Z</time>
  <course>140.47</course>
  <speed>0.0</speed>
  <fix>3d</fix>
</trkpt>
<trkpt lat="-27.2728035" lon="151.2885735">
  <ele>342.73</ele>
  <time>2026-09-01T19:55:45Z</time>
  <course>277.66</course>
  <speed>0.01414213562373095</speed>
  <fix>3d</fix>
</trkpt>
<trkpt lat="-27.2728033" lon="151.2885737">
  <ele>342.87</ele>
  <time>2026-09-01T19:55:45Z</time>
  <course>140.47</course>
  <speed>0.0</speed>
  <fix>3d</fix>
</trkpt>
<trkpt lat="-27.2728035" lon="151.2885735">
  <ele>342.73</ele>
  <time>2026-09-01T19:55:45Z</time>
  <course>277.66</course>
  <speed>0.022360679774997897</speed>
  <fix>3d</fix>
</trkpt>
<trkpt lat="-27.2728033" lon="151.2885737">
  <ele>342.87</ele>
  <time>2026-09-01T19:55:45Z</time>
  <course>138.64</course>
  <speed>0.0</speed>
  <fix>3d</fix>
</trkpt>
<trkpt lat="-27.2728035" lon="151.2885735">
  <ele>342.73</ele>
  <time>2026-09-01T19:55:45Z</time>
  <course>277.66</course>
  <speed>0.01414213562373095</speed>
  <fix>3d</fix>
</trkpt>
<trkpt lat="-27.2728033" lon="151.2885737">
  <ele>342.87</ele>
  <time>2026-09-01T19:55:45Z</time>
  <course>138.64</course>
  <speed>0.0</speed>
  <fix>3d</fix>
</trkpt>
<trkpt lat="-27.2728035" lon="151.2885735">
  <ele>342.73</ele>
  <time>2026-09-01T19:55:45Z</time>
  <course>277.66</course>
  <speed>0.022360679774997897</speed>
  <fix>3d</fix>
</trkpt>
<trkpt lat="-27.2728033" lon="151.2885737">
  <ele>342.87</ele>
  <time>2026-09-01T19:55:45Z</time>
  <course>139.78</course>
  <speed>0.0</speed>
  <fix>3d</fix>
</trkpt>
<trkpt lat="-27.2728035" lon="151.2885735">
  <ele>342.73</ele>
  <time>2026-09-01T19:55:45Z</time>
  <course>277.66</course>
  <speed>0.01414213562373095</speed>
  <fix>3d</fix>
</trkpt>
<trkpt lat="-27.2728033" lon="151.2885737">
  <ele>342.87</ele>
  <time>2026-09-01T19:55:45Z</time>
  <course>139.78</course>
  <speed>0.0</speed>
  <fix>3d</fix>
</trkpt>
<trkpt lat="-27.2728035" lon="151.2885735">
  <ele>342.73</ele>
  <time>2026-09-01T19:55:45Z</time>
  <course>277.66</course>
  <speed>0.022360679774997897</speed>
  <fix>3d</fix>
</trkpt>
<trkpt lat="-27.2728033" lon="151.2885737">
  <ele>342.87</ele>
  <time>2026-09-01T19:55:45Z</time>
  <course>329.58</course>
  <speed>0.0</speed>
  <fix>3d</fix>
</trkpt>
<trkpt lat="-27.2728035" lon="151.2885735">
  <ele>342.86</ele>
  <time>2026-09-01T19:55:45Z</time>
  <course>277.66</course>
  <speed>0.022360679774997897</speed>
  <fix>3d</fix>
</trkpt>
<trkpt lat="-27.2728033" lon="151.2885737">
  <ele>342.87</ele>
  <time>2026-09-01T19:55:45Z</time>
  <course>329.58</course>
  <speed>0.0</speed>
  <fix>3d</fix>
</trkpt>
<trkpt lat="-27.2728035" lon="151.2885735">
  <ele>342.86</ele>
  <time>2026-09-01T19:55:45Z</time>
  <course>277.65</course>
  <speed>0.022360679774997897</speed>
  <fix>3d</fix>
</trkpt>
<trkpt lat="-27.2728033" lon="151.2885737">
  <ele>342.87</ele>
  <time>2026-09-01T19:55:45Z</time>
  <course>330.78</course>
  <speed>0.0</speed>
  <fix>3d</fix>
</trkpt>
<trkpt lat="-27.2728035" lon="151.2885735">
  <ele>342.86</ele>
  <time>2026-09-01T19:55:45Z</time>
  <course>277.65</course>
  <speed>0.022360679774997897</speed>
  <fix>3d</fix>
</trkpt>
<trkpt lat="-27.2728033" lon="151.2885737">
  <ele>342.87</ele>
  <time>2026-09-01T19:55:45Z</time>
  <course>330.78</course>
  <speed>0.0</speed>
  <fix>3d</fix>
</trkpt>
<trkpt lat="-27.2728035" lon="151.2885735">
  <ele>342.86</ele>
  <time>2026-09-01T19:55:45Z</time>
  <course>277.64</course>
  <speed>0.022360679774997897</speed>
  <fix>3d</fix>
</trkpt>
<trkpt lat="-27.2728033" lon="151.2885737">
  <ele>342.87</ele>
  <time>2026-09-01T19:55:45Z</time>
  <course>148.21</course>
  <speed>0.0</speed>
  <fix>3d</fix>
</trkpt>
<trkpt lat="-27.2728035" lon="151.2885735">
  <ele>342.86</ele>
  <time>2026-09-01T19:55:45Z</time>
  <course>277.64</course>
  <speed>0.022360679774997897</speed>
  <fix>3d</fix>
</trkpt>
<trkpt lat="-27.2728033" lon="151.2885737">
  <ele>342.87</ele>
  <time>2026-09-01T19:55:45Z</time>
  <course>148.21</course>
  <speed>0.0</speed>
  <fix>3d</fix>
</trkpt>
<trkpt lat="-27.2728035" lon="151.2885735">
  <ele>342.86</ele>
  <time>2026-09-01T19:55:45Z</time>
  <course>277.63</course>
  <speed>0.022360679774997897</speed>
  <fix>3d</fix>
</trkpt>
<trkpt lat="-27.2728033" lon="151.2885737">
  <ele>342.87</ele>
  <time>2026-09-01T19:55:45Z</time>
  <course>151.0</course>
  <speed>0.0</speed>
  <fix>3d</fix>
</trkpt>
<trkpt lat="-27.2728035" lon="151.2885735">
  <ele>342.86</ele>
  <time>2026-09-01T19:55:45Z</time>
  <course>277.63</course>
  <speed>0.022360679774997897</speed>
  <fix>3d</fix>
</trkpt>
<trkpt lat="-27.2728033" lon="151.2885737">
  <ele>342.87</ele>
  <time>2026-09-01T19:55:45Z</time>
  <course>151.0</course>
  <speed>0.0</speed>
  <fix>3d</fix>
</trkpt>
<trkpt lat="-27.2728035" lon="151.2885735">
  <ele>342.86</ele>
  <time>2026-09-01T19:55:45Z</time>
  <course>277.63</course>
  <speed>0.022360679774997897</speed>
  <fix>3d</fix>
</trkpt>
<trkpt lat="-27.2728033" lon="151.2885737">
  <ele>342.87</ele>
  <time>2026-09-01T19:55:45Z</time>
  <course>329.76</course>
  <speed>0.0</speed>
  <fix>3d</fix>
</trkpt>
<trkpt lat="-27.2728035" lon="151.2885735">
  <ele>342.86</ele>
  <time>2026-09-01T19:55:45Z</time>
  <course>277.62</course>
  <speed>0.022360679774997897</speed>
  <fix>3d</fix>
</trkpt>
<trkpt lat="-27.2728033" lon="151.2885737">
  <ele>342.87</ele>
  <time>2026-09-01T19:55:45Z</time>
  <course>329.76</course>
  <speed>0.0</speed>
  <fix>3d</fix>
</trkpt>
<trkpt lat="-27.2728035" lon="151.2885735">
  <ele>342.85</ele>
  <time>2026-09-01T19:55:45Z</time>
  <course>277.62</course>
  <speed>0.022360679774997897</speed>
  <fix>3d</fix>
</trkpt>
<trkpt lat="-27.2728033" lon="151.2885737">
  <ele>342.87</ele>
  <time>2026-09-01T19:55:45Z</time>
  <course>331.29</course>
  <speed>0.0</speed>
  <fix>3d</fix>
</trkpt>
<trkpt lat="-27.2728035" lon="151.2885735">
  <ele>342.84</ele>
  <time>2026-09-01T19:55:45Z</time>
  <course>277.61</course>
  <speed>0.022360679774997897</speed>
  <fix>3d</fix>
</trkpt>
<trkpt lat="-27.2728033" lon="151.2885737">
  <ele>342.87</ele>
  <time>2026-09-01T19:55:45Z</time>
  <course>331.29</course>
  <speed>0.0</speed>
  <fix>3d</fix>
</trkpt>
<trkpt lat="-27.2728035" lon="151.2885735">
  <ele>342.84</ele>
  <time>2026-09-01T19:55:45Z</time>
  <course>277.61</course>
  <speed>0.022360679774997897</speed>
  <fix>3d</fix>
</trkpt>
<trkpt lat="-27.2728033" lon="151.2885737">
  <ele>342.87</ele>
  <time>2026-09-01T19:55:45Z</time>
  <course>150.23</course>
  <speed>0.0</speed>
  <fix>3d</fix>
</trkpt>
<trkpt lat="-27.2728035" lon="151.2885735">
  <ele>342.83</ele>
  <time>2026-09-01T19:55:45Z</time>
  <course>277.6</course>
  <speed>0.022360679774997897</speed>
  <fix>3d</fix>
</trkpt>
<trkpt lat="-27.2728033" lon="151.2885737">
  <ele>342.87</ele>
  <time>2026-09-01T19:55:45Z</time>
  <course>150.23</course>
  <speed>0.0</speed>
  <fix>3d</fix>
</trkpt>
<trkpt lat="-27.2728035" lon="151.2885735">
  <ele>342.83</ele>
  <time>2026-09-01T19:55:45Z</time>
  <course>277.6</course>
  <speed>0.022360679774997897</speed>
  <fix>3d</fix>
</trkpt>
<trkpt lat="-27.2728033" lon="151.2885737">
  <ele>342.87</ele>
  <time>2026-09-01T19:55:45Z</time>
  <course>151.84</course>
  <speed>0.0</speed>
  <fix>3d</fix>
</trkpt>
<trkpt lat="-27.2728035" lon="151.2885735">
  <ele>342.82</ele>
  <time>2026-09-01T19:55:45Z</time>
  <course>277.59</course>
  <speed>0.022360679774997897</speed>
  <fix>3d</fix>
</trkpt>
<trkpt lat="-27.2728033" lon="151.2885737">
  <ele>342.87</ele>
  <time>2026-09-01T19:55:45Z</time>
  <course>151.84</course>
  <speed>0.0</speed>
  <fix>3d</fix>
</trkpt>
<trkpt lat="-27.2728035" lon="151.2885735">
  <ele>342.82</ele>
  <time>2026-09-01T19:55:45Z</time>
  <course>277.59</course>
  <speed>0.022360679774997897</speed>
  <fix>3d</fix>
</trkpt>
<trkpt lat="-27.2728033" lon="151.2885737">
  <ele>342.87</ele>
  <time>2026-09-01T19:55:45Z</time>
  <course>330.51</course>
  <speed>0.0</speed>
  <fix>3d</fix>
</trkpt>
<trkpt lat="-27.2728035" lon="151.2885735">
  <ele>342.81</ele>
  <time>2026-09-01T19:55:45Z</time>
  <course>277.58</course>
  <speed>0.022360679774997897</speed>
  <fix>3d</fix>
</trkpt>
<trkpt lat="-27.2728033" lon="151.2885737">
  <ele>342.87</ele>
  <time>2026-09-01T19:55:45Z</time>
  <course>330.51</course>
  <speed>0.0</speed>
  <fix>3d</fix>
</trkpt>
<trkpt lat="-27.2728035" lon="151.2885735">
  <ele>342.81</ele>
  <time>2026-09-01T19:55:45Z</time>
  <course>277.58</course>
  <speed>0.022360679774997897</speed>
  <fix>3d</fix>
</trkpt>
<trkpt lat="-27.2728033" lon="151.2885737">
  <ele>342.87</ele>
  <time>2026-09-01T19:55:45Z</time>
  <course>334.14</course>
  <speed>0.0</speed>
  <fix>3d</fix>
</trkpt>
<trkpt lat="-27.2728035" lon="151.2885735">
  <ele>342.81</ele>
  <time>2026-09-01T19:55:45Z</time>
  <course>277.57</course>
  <speed>0.022360679774997897</speed>
  <fix>3d</fix>
</trkpt>
<trkpt lat="-27.2728033" lon="151.2885737">
  <ele>342.87</ele>
  <time>2026-09-01T19:55:45Z</time>
  <course>334.14</course>
  <speed>0.0</speed>
  <fix>3d</fix>
</trkpt>
<trkpt lat="-27.2728035" lon="151.2885735">
  <ele>342.8</ele>
  <time>2026-09-01T19:55:45Z</time>
  <course>277.57</course>
  <speed>0.022360679774997897</speed>
  <fix>3d</fix>
</trkpt>
<trkpt lat="-27.2728033" lon="151.2885737">
  <ele>342.87</ele>
  <time>2026-09-01T19:55:45Z</time>
  <course>150.73</course>
  <speed>0.0</speed>
  <fix>3d</fix>
</trkpt>
<trkpt lat="-27.2728035" lon="151.2885735">
  <ele>342.8</ele>
  <time>2026-09-01T19:55:45Z</time>
  <course>277.56</course>
  <speed>0.022360679774997897</speed>
  <fix>3d</fix>
</trkpt>
<trkpt lat="-27.2728033" lon="151.2885737">
  <ele>342.87</ele>
  <time>2026-09-01T19:55:45Z</time>
  <course>150.73</course>
  <speed>0.0</speed>
  <fix>3d</fix>
</trkpt>
<trkpt lat="-27.2728035" lon="151.2885735">
  <ele>342.8</ele>
  <time>2026-09-01T19:55:45Z</time>
  <course>277.56</course>
  <speed>0.022360679774997897</speed>
  <fix>3d</fix>
</trkpt>
<trkpt lat="-27.2728033" lon="151.2885737">
  <ele>342.87</ele>
  <time>2026-09-01T19:55:45Z</time>
  <course>326.45</course>
  <speed>0.0</speed>
  <fix>3d</fix>
</trkpt>
<trkpt lat="-27.2728035" lon="151.2885735">
  <ele>342.79</ele>
  <time>2026-09-01T19:55:45Z</time>
  <course>277.55</course>
  <speed>0.022360679774997897</speed>
  <fix>3d</fix>
</trkpt>
<trkpt lat="-27.2728033" lon="151.2885737">
  <ele>342.87</ele>
  <time>2026-09-01T19:55:45Z</time>
  <course>326.45</course>
  <speed>0.0</speed>
  <fix>3d</fix>
</trkpt>
<trkpt lat="-27.2728035" lon="151.2885735">
  <ele>342.79</ele>
  <time>2026-09-01T19:55:45Z</time>
  <course>277.55</course>
  <speed>0.022360679774997897</speed>
  <fix>3d</fix>
</trkpt>
<trkpt lat="-27.2728033" lon="151.2885737">
  <ele>342.87</ele>
  <time>2026-09-01T19:55:45Z</time>
  <course>330.92</course>
  <speed>0.0</speed>
  <fix>3d</fix>
</trkpt>
<trkpt lat="-27.2728035" lon="151.2885735">
  <ele>342.79</ele>
  <time>2026-09-01T19:55:45Z</time>
  <course>277.53</course>
  <speed>0.022360679774997897</speed>
  <fix>3d</fix>
</trkpt>
<trkpt lat="-27.2728033" lon="151.2885737">
  <ele>342.87</ele>
  <time>2026-09-01T19:55:45Z</time>
  <course>151.31</course>
  <speed>0.0</speed>
  <fix>3d</fix>
</trkpt>
<trkpt lat="-27.2728035" lon="151.2885735">
  <ele>342.79</ele>
  <time>2026-09-01T19:55:45Z</time>
  <course>277.51</course>
  <speed>0.022360679774997897</speed>
  <fix>3d</fix>
</trkpt>
<trkpt lat="-27.2728033" lon="151.2885737">
  <ele>342.87</ele>
  <time>2026-09-01T19:55:45Z</time>
  <course>329.78</course>
  <speed>0.0</speed>
  <fix>3d</fix>
</trkpt>
<trkpt lat="-27.2728035" lon="151.2885735">
  <ele>342.79</ele>
  <time>2026-09-01T19:55:45Z</time>
  <course>277.51</course>
  <speed>0.022360679774997897</speed>
  <fix>3d</fix>
</trkpt>
<trkpt lat="-27.2728033" lon="151.2885737">
  <ele>342.87</ele>
  <time>2026-09-01T19:55:45Z</time>
  <course>330.42</course>
  <speed>0.0</speed>
  <fix>3d</fix>
</trkpt>
<trkpt lat="-27.2728035" lon="151.2885735">
  <ele>342.79</ele>
  <time>2026-09-01T19:55:45Z</time>
  <course>277.5</course>
  <speed>0.022360679774997897</speed>
  <fix>3d</fix>
</trkpt>
<trkpt lat="-27.2728033" lon="151.2885737">
  <ele>342.87</ele>
  <time>2026-09-01T19:55:45Z</time>
  <course>330.42</course>
  <speed>0.0</speed>
  <fix>3d</fix>
</trkpt>
<trkpt lat="-27.2728035" lon="151.2885735">
  <ele>342.79</ele>
  <time>2026-09-01T19:55:45Z</time>
  <course>277.5</course>
  <speed>0.022360679774997897</speed>
  <fix>3d</fix>
</trkpt>
<trkpt lat="-27.2728033" lon="151.2885737">
  <ele>342.87</ele>
  <time>2026-09-01T19:55:45Z</time>
  <course>152.59</course>
  <speed>0.0</speed>
  <fix>3d</fix>
</trkpt>
<trkpt lat="-27.2728035" lon="151.2885735">
  <ele>342.78</ele>
  <time>2026-09-01T19:55:45Z</time>
  <course>277.49</course>
  <speed>0.022360679774997897</speed>
  <fix>3d</fix>
</trkpt>
<trkpt lat="-27.2728033" lon="151.2885737">
  <ele>342.87</ele>
  <time>2026-09-01T19:55:45Z</time>
  <course>152.59</course>
  <speed>0.0</speed>
  <fix>3d</fix>
</trkpt>
<trkpt lat="-27.2728035" lon="151.2885735">
  <ele>342.78</ele>
  <time>2026-09-01T19:55:45Z</time>
  <course>277.49</course>
  <speed>0.022360679774997897</speed>
  <fix>3d</fix>
</trkpt>
<trkpt lat="-27.2728033" lon="151.2885737">
  <ele>342.87</ele>
  <time>2026-09-01T19:55:45Z</time>
  <course>175.86</course>
  <speed>0.0</speed>
  <fix>3d</fix>
</trkpt>
<trkpt lat="-27.2728035" lon="151.2885735">
  <ele>342.78</ele>
  <time>2026-09-01T19:55:45Z</time>
  <course>277.48</course>
  <speed>0.022360679774997897</speed>
  <fix>3d</fix>
</trkpt>
<trkpt lat="-27.2728033" lon="151.2885737">
  <ele>342.87</ele>
  <time>2026-09-01T19:55:45Z</time>
  <course>175.86</course>
  <speed>0.0</speed>
  <fix>3d</fix>
</trkpt>
<trkpt lat="-27.2728035" lon="151.2885735">
  <ele>342.77</ele>
  <time>2026-09-01T19:55:45Z</time>
  <course>277.48</course>
  <speed>0.022360679774997897</speed>
  <fix>3d</fix>
</trkpt>
<trkpt lat="-27.2728033" lon="151.2885737">
  <ele>342.87</ele>
  <time>2026-09-01T19:55:45Z</time>
  <course>318.83</course>
  <speed>0.0</speed>
  <fix>3d</fix>
</trkpt>
<trkpt lat="-27.2728035" lon="151.2885735">
  <ele>342.77</ele>
  <time>2026-09-01T19:55:45Z</time>
  <course>277.47</course>
  <speed>0.022360679774997897</speed>
  <fix>3d</fix>
</trkpt>
<trkpt lat="-27.2728033" lon="151.2885737">
  <ele>342.87</ele>
  <time>2026-09-01T19:55:45Z</time>
  <course>318.83</course>
  <speed>0.0</speed>
  <fix>3d</fix>
</trkpt>
<trkpt lat="-27.2728035" lon="151.2885735">
  <ele>342.77</ele>
  <time>2026-09-01T19:55:45Z</time>
  <course>277.47</course>
  <speed>0.022360679774997897</speed>
  <fix>3d</fix>
</trkpt>
<trkpt lat="-27.2728033" lon="151.2885737">
  <ele>342.87</ele>
  <time>2026-09-01T19:55:45Z</time>
  <course>274.88</course>
  <speed>0.0</speed>
  <fix>3d</fix>
</trkpt>
<trkpt lat="-34.7120724" lon="147.7191331">
  <ele>700.36</ele>
  <time>2026-09-01T19:55:46Z</time>
  <course>269.68</course>
  <speed>0.0</speed>
  <fix>3d</fix>
</trkpt>
<trkpt lat="-34.7120724" lon="147.7191331">
  <ele>700.36</ele>
  <time>2026-09-01T19:55:46Z</time>
  <course>269.68</course>
  <speed>0.0</speed>
  <fix>3d</fix>
</trkpt>
<trkpt lat="-35.1012209" lon="149.3751756">
  <ele>0.0</ele>
  <time>2026-09-01T19:55:46Z</time>
  <course>79.18</course>
  <speed>0.0</speed>
  <fix>3d</fix>
</trkpt>
<trkpt lat="-35.1012209" lon="149.3751756">
  <ele>708.22</ele>
  <time>2026-09-01T19:55:46Z</time>
  <course>92.35</course>
  <speed>0.0</speed>
  <fix>3d</fix>
</trkpt>
<trkpt lat="-35.1012209" lon="149.3751756">
  <ele>0.02</ele>
  <time>2026-09-01T19:55:46Z</time>
  <course>80.24</course>
  <speed>0.0</speed>
  <fix>3d</fix>
</trkpt>
<trkpt lat="-35.1012209" lon="149.3751756">
  <ele>708.22</ele>
  <time>2026-09-01T19:55:46Z</time>
  <course>92.35</course>
  <speed>0.0</speed>
  <fix>3d</fix>
</trkpt>
<trkpt lat="-35.1012209" lon="149.3751756">
  <ele>-0.07</ele>
  <time>2026-09-01T19:55:46Z</time>
  <course>81.04</course>
  <speed>0.0</speed>
  <fix>3d</fix>
</trkpt>
<trkpt lat="-35.1012209" lon="149.3751756">
  <ele>708.22</ele>
  <time>2026-09-01T19:55:46Z</time>
  <course>89.39</course>
  <speed>0.0</speed>
  <fix>3d</fix>
</trkpt>
<trkpt lat="-35.1012209" lon="149.3751756">
  <ele>0.24</ele>
  <time>2026-09-01T19:55:46Z</time>
  <course>81.74</course>
  <speed>0.0</speed>
  <fix>3d</fix>
</trkpt>
<trkpt lat="-35.1012209" lon="149.3751756">
  <ele>708.22</ele>
  <time>2026-09-01T19:55:46Z</time>
  <course>89.39</course>
  <speed>0.0</speed>
  <fix>3d</fix>
</trkpt>
<trkpt lat="-35.1012209" lon="149.3751756">
  <ele>0.11</ele>
  <time>2026-09-01T19:55:46Z</time>
  <course>82.37</course>
  <speed>0.0</speed>
  <fix>3d</fix>
</trkpt>
<trkpt lat="-35.1012209" lon="149.3751756">
  <ele>708.22</ele>
  <time>2026-09-01T19:55:46Z</time>
  <course>274.69</course>
  <speed>0.0</speed>
  <fix>3d</fix>
</trkpt>
<trkpt lat="-35.1012209" lon="149.3751756">
  <ele>0.08</ele>
  <time>2026-09-01T19:55:46Z</time>
  <course>82.98</course>
  <speed>0.0</speed>
  <fix>3d</fix>
</trkpt>
<trkpt lat="-35.1012209" lon="149.3751756">
  <ele>708.22</ele>
  <time>2026-09-01T19:55:46Z</time>
  <course>274.69</course>
  <speed>0.0</speed>
  <fix>3d</fix>
</trkpt>
<trkpt lat="-35.1012209" lon="149.3751756">
  <ele>0.09</ele>
  <time>2026-09-01T19:55:46Z</time>
  <course>83.55</course>
  <speed>0.0</speed>
  <fix>3d</fix>
</trkpt>
<trkpt lat="-35.1012209" lon="149.3751756">
  <ele>708.22</ele>
  <time>2026-09-01T19:55:46Z</time>
  <course>271.71</course>
  <speed>0.0</speed>
  <fix>3d</fix>
</trkpt>
<trkpt lat="-35.1012209" lon="149.3751756">
  <ele>-0.05</ele>
  <time>2026-09-01T19:55:46Z</time>
  <course>84.12</course>
  <speed>0.0</speed>
  <fix>3d</fix>
</trkpt>
<trkpt lat="-35.1012209" lon="149.3751756">
  <ele>708.22</ele>
  <time>2026-09-01T19:55:46Z</time>
  <course>271.71</course>
  <speed>0.0</speed>
  <fix>3d</fix>
</trkpt>
<trkpt lat="-35.1012209" lon="149.3751756">
  <ele>708.18</ele>
  <time>2026-09-01T19:55:46Z</time>
  <course>84.66</course>
  <speed>0.0</speed>
  <fix>3d</fix>
</trkpt>
<trkpt lat="-35.1012209" lon="149.3751756">
  <ele>708.22</ele>
  <time>2026-09-01T19:55:46Z</time>
  <course>271.58</course>
  <speed>0.0</speed>
  <fix>3d</fix>
</trkpt>
<trkpt lat="-35.1012209" lon="149.3751756">
  <ele>708.3</ele>
  <time>2026-09-01T19:55:46Z</time>
  <course>85.23</course>
  <speed>0.0</speed>
  <fix>3d</fix>
</trkpt>
<trkpt lat="-35.1012209" lon="149.3751756">
  <ele>708.22</ele>
  <time>2026-09-01T19:55:46Z</time>
  <course>271.56</course>
  <speed>0.0</speed>
  <fix>3d</fix>
</trkpt>
<trkpt lat="-35.1012209" lon="149.3751756">
  <ele>708.03</ele>
  <time>2026-09-01T19:55:46Z</time>
  <course>85.79</course>
  <speed>0.0</speed>
  <fix>3d</fix>
</trkpt>
<trkpt lat="-35.1012209" lon="149.3751756">
  <ele>708.22</ele>
  <time>2026-09-01T19:55:46Z</time>
  <course>271.56</course>
  <speed>0.0</speed>
  <fix>3d</fix>
</trkpt>
<trkpt lat="-35.1012209" lon="149.3751756">
  <ele>708.18</ele>
  <time>2026-09-01T19:55:46Z</time>
  <course>86.33</course>
  <speed>0.0</speed>
  <fix>3d</fix>
</trkpt>
<trkpt lat="-35.1012209" lon="149.3751756">
  <ele>708.22</ele>
  <time>2026-09-01T19:55:46Z</time>
  <course>271.56</course>
  <speed>0.0</speed>
  <fix>3d</fix>
</trkpt>
<trkpt lat="-35.1012209" lon="149.3751756">
  <ele>708.25</ele>
  <time>2026-09-01T19:55:46Z</time>
  <course>86.86</course>
  <speed>0.0</speed>
  <fix>3d</fix>
</trkpt>
<trkpt lat="-35.1012209" lon="149.3751756">
  <ele>708.22</ele>
  <time>2026-09-01T19:55:46Z</time>
  <course>271.56</course>
  <speed>0.0</speed>
  <fix>3d</fix>
</trkpt>
<trkpt lat="-35.1012209" lon="149.3751756">
  <ele>708.16</ele>
  <time>2026-09-01T19:55:46Z</time>
  <course>87.36</course>
  <speed>0.0</speed>
  <fix>3d</fix>
</trkpt>
<trkpt lat="-35.1012209" lon="149.3751756">
  <ele>708.22</ele>
  <time>2026-09-01T19:55:46Z</time>
  <course>271.56</course>
  <speed>0.0</speed>
  <fix>3d</fix>
</trkpt>
<trkpt lat="-35.1012209" lon="149.3751756">
  <ele>708.0</ele>
  <time>2026-09-01T19:55:46Z</time>
  <course>87.82</course>
  <speed>0.0</speed>
  <fix>3d</fix>
</trkpt>
<trkpt lat="-35.1012209" lon="149.3751756">
  <ele>708.22</ele>
  <time>2026-09-01T19:55:46Z</time>
  <course>271.56</course>
  <speed>0.0</speed>
  <fix>3d</fix>
</trkpt>
<trkpt lat="-35.1012209" lon="149.3751756">
  <ele>708.14</ele>
  <time>2026-09-01T19:55:46Z</time>
  <course>88.24</course>
  <speed>0.0</speed>
  <fix>3d</fix>
</trkpt>
<trkpt lat="-35.1012209" lon="149.3751756">
  <ele>708.22</ele>
  <time>2026-09-01T19:55:46Z</time>
  <course>271.56</course>
  <speed>0.0</speed>
  <fix>3d</fix>
</trkpt>
<trkpt lat="-35.1012209" lon="149.3751756">
  <ele>708.35</ele>
  <time>2026-09-01T19:55:46Z</time>
  <course>88.64</course>
  <speed>0.0</speed>
  <fix>3d</fix>
</trkpt>
<trkpt lat="-35.1012209" lon="149.3751756">
  <ele>708.22</ele>
  <time>2026-09-01T19:55:46Z</time>
  <course>271.56</course>
  <speed>0.0</speed>
  <fix>3d</fix>
</trkpt>
<trkpt lat="-35.1012209" lon="149.3751756">
  <ele>708.29</ele>
  <time>2026-09-01T19:55:46Z</time>
  <course>88.99</course>
  <speed>0.0</speed>
  <fix>3d</fix>
</trkpt>
<trkpt lat="-35.1012209" lon="149.3751756">
  <ele>708.22</ele>
  <time>2026-09-01T19:55:46Z</time>
  <course>271.56</course>
  <speed>0.0</speed>
  <fix>3d</fix>
</trkpt>
<trkpt lat="-35.1012209" lon="149.3751756">
  <ele>708.16</ele>
  <time>2026-09-01T19:55:46Z</time>
  <course>89.3</course>
  <speed>0.0</speed>
  <fix>3d</fix>
</trkpt>
<trkpt lat="-35.1012209" lon="149.3751756">
  <ele>708.22</ele>
  <time>2026-09-01T19:55:46Z</time>
  <course>271.56</course>
  <speed>0.0</speed>
  <fix>3d</fix>
</trkpt>
<trkpt lat="-35.1012209" lon="149.3751756">
  <ele>708.01</ele>
  <time>2026-09-01T19:55:46Z</time>
  <course>89.58</course>
  <speed>0.0</speed>
  <fix>3d</fix>
</trkpt>
<trkpt lat="-35.1012209" lon="149.3751756">
  <ele>708.22</ele>
  <time>2026-09-01T19:55:46Z</time>
  <course>271.56</course>
  <speed>0.0</speed>
  <fix>3d</fix>
</trkpt>
<trkpt lat="-35.1012209" lon="149.3751756">
  <ele>708.19</ele>
  <time>2026-09-01T19:55:46Z</time>
  <course>89.83</course>
  <speed>0.0</speed>
  <fix>3d</fix>
</trkpt>
<trkpt lat="-35.1012209" lon="149.3751756">
  <ele>708.22</ele>
  <time>2026-09-01T19:55:46Z</time>
  <course>271.56</course>
  <speed>0.0</speed>
  <fix>3d</fix>
</trkpt>
<trkpt lat="-35.1012209" lon="149.3751756">
  <ele>708.31</ele>
  <time>2026-09-01T19:55:46Z</time>
  <course>90.05</course>
  <speed>0.0</speed>
  <fix>3d</fix>
</trkpt>
<trkpt lat="-35.1012209" lon="149.3751756">
  <ele>708.22</ele>
  <time>2026-09-01T19:55:46Z</time>
  <course>271.56</course>
  <speed>0.0</speed>
  <fix>3d</fix>
</trkpt>
<trkpt lat="-35.1012209" lon="149.3751756">
  <ele>708.0</ele>
  <time>2026-09-01T19:55:46Z</time>
  <course>90.24</course>
  <speed>0.0</speed>
  <fix>3d</fix>
</trkpt>
<trkpt lat="-35.1012209" lon="149.3751756">
  <ele>708.22</ele>
  <time>2026-09-01T19:55:46Z</time>
  <course>271.56</course>
  <speed>0.0</speed>
  <fix>3d</fix>
</trkpt>
<trkpt lat="-35.1012209" lon="149.3751756">
  <ele>708.29</ele>
  <time>2026-09-01T19:55:46Z</time>
  <course>90.41</course>
  <speed>0.0</speed>
  <fix>3d</fix>
</trkpt>
<trkpt lat="-35.1012209" lon="149.3751756">
  <ele>708.22</ele>
  <time>2026-09-01T19:55:46Z</time>
  <course>271.56</course>
  <speed>0.0</speed>
  <fix>3d</fix>
</trkpt>
<trkpt lat="-35.1012209" lon="149.3751756">
  <ele>708.01</ele>
  <time>2026-09-01T19:55:46Z</time>
  <course>90.56</course>
  <speed>0.0</speed>
  <fix>3d</fix>
</trkpt>
<trkpt lat="-35.1012209" lon="149.3751756">
  <ele>708.22</ele>
  <time>2026-09-01T19:55:46Z</time>
  <course>271.56</course>
  <speed>0.0</speed>
  <fix>3d</fix>
</trkpt>
<trkpt lat="-35.1012209" lon="149.3751756">
  <ele>708.1</ele>
  <time>2026-09-01T19:55:46Z</time>
  <course>90.69</course>
  <speed>0.0</speed>
  <fix>3d</fix>
</trkpt>
<trkpt lat="-35.1012209" lon="149.3751756">
  <ele>708.22</ele>
  <time>2026-09-01T19:55:46Z</time>
  <course>271.56</course>
  <speed>0.0</speed>
  <fix>3d</fix>
</trkpt>
<trkpt lat="-35.1012209" lon="149.3751756">
  <ele>707.99</ele>
  <time>2026-09-01T19:55:46Z</time>
  <course>90.8</course>
  <speed>0.0</speed>
  <fix>3d</fix>
</trkpt>
<trkpt lat="-35.1012209" lon="149.3751756">
  <ele>708.22</ele>
  <time>2026-09-01T19:55:46Z</time>
  <course>271.56</course>
  <speed>0.0</speed>
  <fix>3d</fix>
</trkpt>
<trkpt lat="-35.1012209" lon="149.3751756">
  <ele>708.21</ele>
  <time>2026-09-01T19:55:46Z</time>
  <course>90.91</course>
  <speed>0.0</speed>
  <fix>3d</fix>
</trkpt>
<trkpt lat="-35.1012209" lon="149.3751756">
  <ele>708.22</ele>
  <time>2026-09-01T19:55:46Z</time>
  <course>271.56</course>
  <speed>0.0</speed>
  <fix>3d</fix>
</trkpt>
<trkpt lat="-35.1012209" lon="149.3751756">
  <ele>708.3</ele>
  <time>2026-09-01T19:55:46Z</time>
  <course>91.01</course>
  <speed>0.0</speed>
  <fix>3d</fix>
</trkpt>
<trkpt lat="-35.1012209" lon="149.3751756">
  <ele>708.22</ele>
  <time>2026-09-01T19:55:46Z</time>
  <course>271.56</course>
  <speed>0.0</speed>
  <fix>3d</fix>
</trkpt>
<trkpt lat="-35.1012209" lon="149.3751756">
  <ele>708.17</ele>
  <time>2026-09-01T19:55:46Z</time>
  <course>91.09</course>
  <speed>0.0</speed>
  <fix>3d</fix>
</trkpt>
<trkpt lat="-35.1012209" lon="149.3751756">
  <ele>708.22</ele>
  <time>2026-09-01T19:55:46Z</time>
  <course>271.56</course>
  <speed>0.0</speed>
  <fix>3d</fix>
</trkpt>
<trkpt lat="-35.1012209" lon="149.3751756">
  <ele>708.07</ele>
  <time>2026-09-01T19:55:46Z</time>
  <course>91.17</course>
  <speed>0.0</speed>
  <fix>3d</fix>
</trkpt>
<trkpt lat="-35.1012209" lon="149.3751756">
  <ele>708.22</ele>
  <time>2026-09-01T19:55:46Z</time>
  <course>271.56</course>
  <speed>0.0</speed>
  <fix>3d</fix>
</trkpt>
<trkpt lat="-35.1012209" lon="149.3751756">
  <ele>708.22</ele>
  <time>2026-09-01T19:55:46Z</time>
  <course>91.24</course>
  <speed>0.0</speed>
  <fix>3d</fix>
</trkpt>
<trkpt lat="-35.1012209" lon="149.3751756">
  <ele>708.22</ele>
  <time>2026-09-01T19:55:46Z</time>
  <course>271.56</course>
  <speed>0.0</speed>
  <fix>3d</fix>
</trkpt>
<trkpt lat="-35.1012209" lon="149.3751756">
  <ele>708.34</ele>
  <time>2026-09-01T19:55:46Z</time>
  <course>91.31</course>
  <speed>0.0</speed>
  <fix>3d</fix>
</trkpt>
<trkpt lat="-35.1012209" lon="149.3751756">
  <ele>708.22</ele>
  <time>2026-09-01T19:55:46Z</time>
  <course>271.56</course>
  <speed>0.0</speed>
  <fix>3d</fix>
</trkpt>
<trkpt lat="-35.1012209" lon="149.3751756">
  <ele>708.29</ele>
  <time>2026-09-01T19:55:46Z</time>
  <course>91.37</course>
  <speed>0.0</speed>
  <fix>3d</fix>
</trkpt>
<trkpt lat="-35.1012209" lon="149.3751756">
  <ele>708.22</ele>
  <time>2026-09-01T19:55:46Z</time>
  <course>271.56</course>
  <speed>0.0</speed>
  <fix>3d</fix>
</trkpt>
<trkpt lat="-35.1012209" lon="149.3751756">
  <ele>708.19</ele>
  <time>2026-09-01T19:55:46Z</time>
  <course>91.42</course>
  <speed>0.0</speed>
  <fix>3d</fix>
</trkpt>
<trkpt lat="-35.1012209" lon="149.3751756">
  <ele>708.22</ele>
  <time>2026-09-01T19:55:46Z</time>
  <course>271.56</course>
  <speed>0.0</speed>
  <fix>3d</fix>
</trkpt>
<trkpt lat="-35.1012209" lon="149.3751756">
  <ele>708.16</ele>
  <time>2026-09-01T19:55:46Z</time>
  <course>91.47</course>
  <speed>0.0</speed>
  <fix>3d</fix>
</trkpt>
<trkpt lat="-35.1012209" lon="149.3751756">
  <ele>708.22</ele>
  <time>2026-09-01T19:55:46Z</time>
  <course>271.56</course>
  <speed>0.0</speed>
  <fix>3d</fix>
</trkpt>
<trkpt lat="-35.1012209" lon="149.3751756">
  <ele>708.3</ele>
  <time>2026-09-01T19:55:46Z</time>
  <course>91.52</course>
  <speed>0.0</speed>
  <fix>3d</fix>
</trkpt>
<trkpt lat="-35.1012209" lon="149.3751756">
  <ele>708.22</ele>
  <time>2026-09-01T19:55:46Z</time>
  <course>271.56</course>
  <speed>0.0</speed>
  <fix>3d</fix>
</trkpt>
<trkpt lat="-35.1012209" lon="149.3751756">
  <ele>708.23</ele>
  <time>2026-09-01T19:55:46Z</time>
  <course>91.56</course>
  <speed>0.0</speed>
  <fix>3d</fix>
</trkpt>
<trkpt lat="-35.1012209" lon="149.3751756">
  <ele>708.22</ele>
  <time>2026-09-01T19:55:46Z</time>
  <course>271.56</course>
  <speed>0.0</speed>
  <fix>3d</fix>
</trkpt>
<trkpt lat="-35.1012209" lon="149.3751756">
  <ele>708.16</ele>
  <time>2026-09-01T19:55:46Z</time>
  <course>91.6</course>
  <speed>0.0</speed>
  <fix>3d</fix>
</trkpt>
<trkpt lat="-35.1012209" lon="149.3751756">
  <ele>708.22</ele>
  <time>2026-09-01T19:55:46Z</time>
  <course>271.56</course>
  <speed>0.0</speed>
  <fix>3d</fix>
</trkpt>
<trkpt lat="-35.1012209" lon="149.3751756">
  <ele>708.19</ele>
  <time>2026-09-01T19:55:46Z</time>
  <course>91.64</course>
  <speed>0.0</speed>
  <fix>3d</fix>
</trkpt>
<trkpt lat="-35.1012209" lon="149.3751756">
  <ele>708.22</ele>
  <time>2026-09-01T19:55:46Z</time>
  <course>271.56</course>
  <speed>0.0</speed>
  <fix>3d</fix>
</trkpt>
<trkpt lat="-35.1012209" lon="149.3751756">
  <ele>708.16</ele>
  <time>2026-09-01T19:55:46Z</time>
  <course>91.67</course>
  <speed>0.0</speed>
  <fix>3d</fix>
</trkpt>
<trkpt lat="-35.1012209" lon="149.3751756">
  <ele>708.22</ele>
  <time>2026-09-01T19:55:46Z</time>
  <course>271.56</course>
  <speed>0.0</speed>
  <fix>3d</fix>
</trkpt>
<trkpt lat="-35.1012209" lon="149.3751756">
  <ele>708.13</ele>
  <time>2026-09-01T19:55:46Z</time>
  <course>91.7</course>
  <speed>0.0</speed>
  <fix>3d</fix>
</trkpt>
<trkpt lat="-35.1012209" lon="149.3751756">
  <ele>708.22</ele>
  <time>2026-09-01T19:55:46Z</time>
  <course>271.56</course>
  <speed>0.0</speed>
  <fix>3d</fix>
</trkpt>
<trkpt lat="-35.1012209" lon="149.3751756">
  <ele>708.32</ele>
  <time>2026-09-01T19:55:46Z</time>
  <course>91.73</course>
  <speed>0.0</speed>
  <fix>3d</fix>
</trkpt>
<trkpt lat="-35.1012209" lon="149.3751756">
  <ele>708.22</ele>
  <time>2026-09-01T19:55:46Z</time>
  <course>271.56</course>
  <speed>0.0</speed>
  <fix>3d</fix>
</trkpt>
<trkpt lat="-35.1012209" lon="149.3751756">
  <ele>708.37</ele>
  <time>2026-09-01T19:55:46Z</time>
  <course>91.75</course>
  <speed>0.0</speed>
  <fix>3d</fix>
</trkpt>
<trkpt lat="-35.1012209" lon="149.3751756">
  <ele>708.22</ele>
  <time>2026-09-01T19:55:46Z</time>
  <course>271.56</course>
  <speed>0.0</speed>
  <fix>3d</fix>
</trkpt>
<trkpt lat="-35.1012209" lon="149.3751756">
  <ele>708.0</ele>
  <time>2026-09-01T19:55:46Z</time>
  <course>91.77</course>
  <speed>0.0</speed>
  <fix>3d</fix>
</trkpt>
<trkpt lat="-35.1012209" lon="149.3751756">
  <ele>708.22</ele>
  <time>2026-09-01T19:55:46Z</time>
  <course>271.56</course>
  <speed>0.0</speed>
  <fix>3d</fix>
</trkpt>
<trkpt lat="-35.1012209" lon="149.3751756">
  <ele>708.33</ele>
  <time>2026-09-01T19:55:46Z</time>
  <course>91.79</course>
  <speed>0.0</speed>
  <fix>3d</fix>
</trkpt>
<trkpt lat="-35.1012209" lon="149.3751756">
  <ele>708.22</ele>
  <time>2026-09-01T19:55:46Z</time>
  <course>271.56</course>
  <speed>0.0</speed>
  <fix>3d</fix>
</trkpt>
<trkpt lat="-35.1012209" lon="149.3751756">
  <ele>708.14</ele>
  <time>2026-09-01T19:55:46Z</time>
  <course>91.81</course>
  <speed>0.0</speed>
  <fix>3d</fix>
</trkpt>
<trkpt lat="-35.1012209" lon="149.3751756">
  <ele>708.22</ele>
  <time>2026-09-01T19:55:46Z</time>
  <course>271.56</course>
  <speed>0.0</speed>
  <fix>3d</fix>
</trkpt>
<trkpt lat="-35.1012209" lon="149.3751756">
  <ele>708.05</ele>
  <time>2026-09-01T19:55:46Z</time>
  <course>91.82</course>
  <speed>0.0</speed>
  <fix>3d</fix>
</trkpt>
<trkpt lat="-35.1012209" lon="149.3751756">
  <ele>708.22</ele>
  <time>2026-09-01T19:55:46Z</time>
  <course>271.56</course>
  <speed>0.0</speed>
  <fix>3d</fix>
</trkpt>
<trkpt lat="-35.1012209" lon="149.3751756">
  <ele>708.19</ele>
  <time>2026-09-01T19:55:46Z</time>
  <course>91.84</course>
  <speed>0.0</speed>
  <fix>3d</fix>
</trkpt>
<trkpt lat="-35.1012209" lon="149.3751756">
  <ele>708.22</ele>
  <time>2026-09-01T19:55:46Z</time>
  <course>271.56</course>
  <speed>0.0</speed>
  <fix>3d</fix>
</trkpt>
<trkpt lat="-35.1012209" lon="149.3751756">
  <ele>708.05</ele>
  <time>2026-09-01T19:55:46Z</time>
  <course>91.85</course>
  <speed>0.0</speed>
  <fix>3d</fix>
</trkpt>
<trkpt lat="-35.1012209" lon="149.3751756">
  <ele>708.22</ele>
  <time>2026-09-01T19:55:46Z</time>
  <course>271.56</course>
  <speed>0.0</speed>
  <fix>3d</fix>
</trkpt>
<trkpt lat="-35.1012209" lon="149.3751756">
  <ele>708.22</ele>
  <time>2026-09-01T19:55:46Z</time>
  <course>91.86</course>
  <speed>0.0</speed>
  <fix>3d</fix>
</trkpt>
<trkpt lat="-35.1012209" lon="149.3751756">
  <ele>708.22</ele>
  <time>2026-09-01T19:55:46Z</time>
  <course>271.56</course>
  <speed>0.0</speed>
  <fix>3d</fix>
</trkpt>
<trkpt lat="-35.1012209" lon="149.3751756">
  <ele>708.37</ele>
  <time>2026-09-01T19:55:46Z</time>
  <course>91.87</course>
  <speed>0.0</speed>
  <fix>3d</fix>
</trkpt>
<trkpt lat="-35.1012209" lon="149.3751756">
  <ele>708.22</ele>
  <time>2026-09-01T19:55:46Z</time>
  <course>271.56</course>
  <speed>0.0</speed>
  <fix>3d</fix>
</trkpt>
<trkpt lat="-35.1012209" lon="149.3751756">
  <ele>708.3</ele>
  <time>2026-09-01T19:55:46Z</time>
  <course>91.88</course>
  <speed>0.0</speed>
  <fix>3d</fix>
</trkpt>
<trkpt lat="-35.1012209" lon="149.3751756">
  <ele>708.22</ele>
  <time>2026-09-01T19:55:46Z</time>
  <course>271.56</course>
  <speed>0.0</speed>
  <fix>3d</fix>
</trkpt>
<trkpt lat="-35.1012209" lon="149.3751756">
  <ele>708.01</ele>
  <time>2026-09-01T19:55:46Z</time>
  <course>91.89</course>
  <speed>0.0</speed>
  <fix>3d</fix>
</trkpt>
<trkpt lat="-35.1012209" lon="149.3751756">
  <ele>708.22</ele>
  <time>2026-09-01T19:55:46Z</time>
  <course>271.56</course>
  <speed>0.0</speed>
  <fix>3d</fix>
</trkpt>
<trkpt lat="-35.1012209" lon="149.3751756">
  <ele>708.34</ele>
  <time>2026-09-01T19:55:46Z</time>
  <course>91.9</course>
  <speed>0.0</speed>
  <fix>3d</fix>
</trkpt>
<trkpt lat="-35.1012209" lon="149.3751756">
  <ele>708.22</ele>
  <time>2026-09-01T19:55:46Z</time>
  <course>271.56</course>
  <speed>0.0</speed>
  <fix>3d</fix>
</trkpt>
<trkpt lat="-35.1012209" lon="149.3751756">
  <ele>708.34</ele>
  <time>2026-09-01T19:55:46Z</time>
  <course>91.91</course>
  <speed>0.0</speed>
  <fix>3d</fix>
</trkpt>
<trkpt lat="-35.1012209" lon="149.3751756">
  <ele>708.22</ele>
  <time>2026-09-01T19:55:46Z</time>
  <course>271.56</course>
  <speed>0.0</speed>
  <fix>3d</fix>
</trkpt>
<trkpt lat="-35.1012209" lon="149.3751756">
  <ele>708.1</ele>
  <time>2026-09-01T19:55:46Z</time>
  <course>91.91</course>
  <speed>0.0</speed>
  <fix>3d</fix>
</trkpt>
<trkpt lat="-35.1012209" lon="149.3751756">
  <ele>708.22</ele>
  <time>2026-09-01T19:55:46Z</time>
  <course>271.56</course>
  <speed>0.0</speed>
  <fix>3d</fix>
</trkpt>
<trkpt lat="-35.1012209" lon="149.3751756">
  <ele>708.25</ele>
  <time>2026-09-01T19:55:46Z</time>
  <course>91.92</course>
  <speed>0.0</speed>
  <fix>3d</fix>
</trkpt>
<trkpt lat="-35.1012209" lon="149.3751756">
  <ele>708.22</ele>
  <time>2026-09-01T19:55:46Z</time>
  <course>271.56</course>
  <speed>0.0</speed>
  <fix>3d</fix>
</trkpt>
<trkpt lat="-35.1012209" lon="149.3751756">
  <ele>708.19</ele>
  <time>2026-09-01T19:55:46Z</time>
  <course>91.92</course>
  <speed>0.0</speed>
  <fix>3d</fix>
</trkpt>
<trkpt lat="-35.1012209" lon="149.3751756">
  <ele>708.22</ele>
  <time>2026-09-01T19:55:46Z</time>
  <course>271.56</course>
  <speed>0.0</speed>
  <fix>3d</fix>
</trkpt>
<trkpt lat="-35.1012209" lon="149.3751756">
  <ele>708.31</ele>
  <time>2026-09-01T19:55:46Z</time>
  <course>91.93</course>
  <speed>0.0</speed>
  <fix>3d</fix>
</trkpt>
<trkpt lat="-35.1012209" lon="149.3751756">
  <ele>708.22</ele>
  <time>2026-09-01T19:55:46Z</time>
  <course>271.56</course>
  <speed>0.0</speed>
  <fix>3d</fix>
</trkpt>
<trkpt lat="-35.1012209" lon="149.3751756">
  <ele>708.05</ele>
  <time>2026-09-01T19:55:46Z</time>
  <course>91.93</course>
  <speed>0.0</speed>
  <fix>3d</fix>
</trkpt>
<trkpt lat="-35.1012209" lon="149.3751756">
  <ele>708.22</ele>
  <time>2026-09-01T19:55:46Z</time>
  <course>271.56</course>
  <speed>0.0</speed>
  <fix>3d</fix>
</trkpt>
<trkpt lat="-35.1012209" lon="149.3751756">
  <ele>708.31</ele>
  <time>2026-09-01T19:55:46Z</time>
  <course>91.94</course>
  <speed>0.0</speed>
  <fix>3d</fix>
</trkpt>
<trkpt lat="-35.1012209" lon="149.3751756">
  <ele>708.22</ele>
  <time>2026-09-01T19:55:46Z</time>
  <course>271.56</course>
  <speed>0.0</speed>
  <fix>3d</fix>
</trkpt>
<trkpt lat="-35.1012209" lon="149.3751756">
  <ele>708.22</ele>
  <time>2026-09-01T19:55:46Z</time>
  <course>91.94</course>
  <speed>0.0</speed>
  <fix>3d</fix>
</trkpt>
<trkpt lat="-35.1012209" lon="149.3751756">
  <ele>708.22</ele>
  <time>2026-09-01T19:55:46Z</time>
  <course>271.56</course>
  <speed>0.0</speed>
  <fix>3d</fix>
</trkpt>
<trkpt lat="-35.1012209" lon="149.3751756">
  <ele>708.12</ele>
  <time>2026-09-01T19:55:46Z</time>
  <course>91.94</course>
  <speed>0.0</speed>
  <fix>3d</fix>
</trkpt>
<trkpt lat="-35.1012209" lon="149.3751756">
  <ele>708.22</ele>
  <time>2026-09-01T19:55:46Z</time>
  <course>271.56</course>
  <speed>0.0</speed>
  <fix>3d</fix>
</trkpt>
<trkpt lat="-35.1012209" lon="149.3751756">
  <ele>708.23</ele>
  <time>2026-09-01T19:55:46Z</time>
  <course>91.95</course>
  <speed>0.0</speed>
  <fix>3d</fix>
</trkpt>
<trkpt lat="-35.1012209" lon="149.3751756">
  <ele>708.22</ele>
  <time>2026-09-01T19:55:46Z</time>
  <course>271.56</course>
  <speed>0.0</speed>
  <fix>3d</fix>
</trkpt>
<trkpt lat="-35.1012209" lon="149.3751756">
  <ele>708.08</ele>
  <time>2026-09-01T19:55:46Z</time>
  <course>91.95</course>
  <speed>0.0</speed>
  <fix>3d</fix>
</trkpt>
<trkpt lat="-35.1012209" lon="149.3751756">
  <ele>708.22</ele>
  <time>2026-09-01T19:55:46Z</time>
  <course>271.56</course>
  <speed>0.0</speed>
  <fix>3d</fix>
</trkpt>
<trkpt lat="-35.1012209" lon="149.3751756">
  <ele>708.3</ele>
  <time>2026-09-01T19:55:46Z</time>
  <course>91.95</course>
  <speed>0.0</speed>
  <fix>3d</fix>
</trkpt>
<trkpt lat="-35.1012209" lon="149.3751756">
  <ele>708.22</ele>
  <time>2026-09-01T19:55:46Z</time>
  <course>271.56</course>
  <speed>0.0</speed>
  <fix>3d</fix>
</trkpt>
<trkpt lat="-35.1012209" lon="149.3751756">
  <ele>708.12</ele>
  <time>2026-09-01T19:55:46Z</time>
  <course>91.95</course>
  <speed>0.0</speed>
  <fix>3d</fix>
</trkpt>
<trkpt lat="-35.1012209" lon="149.3751756">
  <ele>708.22</ele>
  <time>2026-09-01T19:55:46Z</time>
  <course>271.56</course>
  <speed>0.0</speed>
  <fix>3d</fix>
</trkpt>
<trkpt lat="-35.1012209" lon="149.3751756">
  <ele>708.32</ele>
  <time>2026-09-01T19:55:46Z</time>
  <course>91.96</course>
  <speed>0.0</speed>
  <fix>3d</fix>
</trkpt>
<trkpt lat="-35.1012209" lon="149.3751756">
  <ele>708.22</ele>
  <time>2026-09-01T19:55:46Z</time>
  <course>271.56</course>
  <speed>0.0</speed>
  <fix>3d</fix>
</trkpt>
<trkpt lat="-35.1012209" lon="149.3751756">
  <ele>708.32</ele>
  <time>2026-09-01T19:55:46Z</time>
  <course>91.96</course>
  <speed>0.0</speed>
  <fix>3d</fix>
</trkpt>
<trkpt lat="-35.1012209" lon="149.3751756">
  <ele>708.22</ele>
  <time>2026-09-01T19:55:46Z</time>
  <course>271.56</course>
  <speed>0.0</speed>
  <fix>3d</fix>
</trkpt>
<trkpt lat="-35.1012209" lon="149.3751756">
  <ele>708.25</ele>
  <time>2026-09-01T19:55:46Z</time>
  <course>91.96</course>
  <speed>0.0</speed>
  <fix>3d</fix>
</trkpt>
<trkpt lat="-35.1012209" lon="149.3751756">
  <ele>708.22</ele>
  <time>2026-09-01T19:55:46Z</time>
  <course>271.56</course>
  <speed>0.0</speed>
  <fix>3d</fix>
</trkpt>
<trkpt lat="-35.1012209" lon="149.3751756">
  <ele>708.22</ele>
  <time>2026-09-01T19:55:46Z</time>
  <course>91.96</course>
  <speed>0.0</speed>
  <fix>3d</fix>
</trkpt>
<trkpt lat="-35.1012209" lon="149.3751756">
  <ele>708.22</ele>
  <time>2026-09-01T19:55:46Z</time>
  <course>271.56</course>
  <speed>0.0</speed>
  <fix>3d</fix>
</trkpt>
<trkpt lat="-35.1012209" lon="149.3751756">
  <ele>708.24</ele>
  <time>2026-09-01T19:55:46Z</time>
  <course>91.96</course>
  <speed>0.0</speed>
  <fix>3d</fix>
</trkpt>
<trkpt lat="-35.1012209" lon="149.3751756">
  <ele>708.22</ele>
  <time>2026-09-01T19:55:46Z</time>
  <course>271.56</course>
  <speed>0.0</speed>
  <fix>3d</fix>
</trkpt>
<trkpt lat="-35.1012209" lon="149.3751756">
  <ele>708.06</ele>
  <time>2026-09-01T19:55:46Z</time>
  <course>91.96</course>
  <speed>0.0</speed>
  <fix>3d</fix>
</trkpt>
<trkpt lat="-35.1012209" lon="149.3751756">
  <ele>708.22</ele>
  <time>2026-09-01T19:55:46Z</time>
  <course>271.56</course>
  <speed>0.0</speed>
  <fix>3d</fix>
</trkpt>
<trkpt lat="-35.1012209" lon="149.3751756">
  <ele>708.37</ele>
  <time>2026-09-01T19:55:46Z</time>
  <course>91.97</course>
  <speed>0.0</speed>
  <fix>3d</fix>
</trkpt>
<trkpt lat="-35.1012209" lon="149.3751756">
  <ele>708.22</ele>
  <time>2026-09-01T19:55:46Z</time>
  <course>271.56</course>
  <speed>0.0</speed>
  <fix>3d</fix>
</trkpt>
<trkpt lat="-35.1012209" lon="149.3751756">
  <ele>708.04</ele>
  <time>2026-09-01T19:55:46Z</time>
  <course>91.97</course>
  <speed>0.0</speed>
  <fix>3d</fix>
</trkpt>
<trkpt lat="-35.1012209" lon="149.3751756">
  <ele>708.22</ele>
  <time>2026-09-01T19:55:46Z</time>
  <course>271.56</course>
  <speed>0.0</speed>
  <fix>3d</fix>
</trkpt>
<trkpt lat="-35.1012209" lon="149.3751756">
  <ele>708.2</ele>
  <time>2026-09-01T19:55:46Z</time>
  <course>91.97</course>
  <speed>0.0</speed>
  <fix>3d</fix>
</trkpt>
<trkpt lat="-35.1012209" lon="149.3751756">
  <ele>708.22</ele>
  <time>2026-09-01T19:55:46Z</time>
  <course>271.56</course>
  <speed>0.0</speed>
  <fix>3d</fix>
</trkpt>
<trkpt lat="-35.1012209" lon="149.3751756">
  <ele>708.35</ele>
  <time>2026-09-01T19:55:46Z</time>
  <course>91.97</course>
  <speed>0.0</speed>
  <fix>3d</fix>
</trkpt>
<trkpt lat="-35.1012209" lon="149.3751756">
  <ele>708.22</ele>
  <time>2026-09-01T19:55:46Z</time>
  <course>271.56</course>
  <speed>0.0</speed>
  <fix>3d</fix>
</trkpt>
<trkpt lat="-35.1012209" lon="149.3751756">
  <ele>708.13</ele>
  <time>2026-09-01T19:55:46Z</time>
  <course>91.97</course>
  <speed>0.0</speed>
  <fix>3d</fix>
</trkpt>
<trkpt lat="-35.1012209" lon="149.3751756">
  <ele>708.22</ele>
  <time>2026-09-01T19:55:46Z</time>
  <course>271.56</course>
  <speed>0.0</speed>
  <fix>3d</fix>
</trkpt>
<trkpt lat="-35.1012209" lon="149.3751756">
  <ele>708.22</ele>
  <time>2026-09-01T19:55:46Z</time>
  <course>91.97</course>
  <speed>0.0</speed>
  <fix>3d</fix>
</trkpt>
<trkpt lat="-35.1012209" lon="149.3751756">
  <ele>708.22</ele>
  <time>2026-09-01T19:55:46Z</time>
  <course>271.56</course>
  <speed>0.0</speed>
  <fix>3d</fix>
</trkpt>
<trkpt lat="-35.1012209" lon="149.3751756">
  <ele>708.11</ele>
  <time>2026-09-01T19:55:46Z</time>
  <course>91.97</course>
  <speed>0.0</speed>
  <fix>3d</fix>
</trkpt>
<trkpt lat="-35.1012209" lon="149.3751756">
  <ele>708.22</ele>
  <time>2026-09-01T19:55:46Z</time>
  <course>271.56</course>
  <speed>0.0</speed>
  <fix>3d</fix>
</trkpt>
<trkpt lat="-35.1012209" lon="149.3751756">
  <ele>707.99</ele>
  <time>2026-09-01T19:55:46Z</time>
  <course>91.97</course>
  <speed>0.0</speed>
  <fix>3d</fix>
</trkpt>
<trkpt lat="-35.1012209" lon="149.3751756">
  <ele>708.22</ele>
  <time>2026-09-01T19:55:46Z</time>
  <course>271.56</course>
  <speed>0.0</speed>
  <fix>3d</fix>
</trkpt>
<trkpt lat="-35.1012209" lon="149.3751756">
  <ele>708.22</ele>
  <time>2026-09-01T19:55:46Z</time>
  <course>91.97</course>
  <speed>0.0</speed>
  <fix>3d</fix>
</trkpt>
<trkpt lat="-35.1012209" lon="149.3751756">
  <ele>708.22</ele>
  <time>2026-09-01T19:55:46Z</time>
  <course>271.56</course>
  <speed>0.0</speed>
  <fix>3d</fix>
</trkpt>
<trkpt lat="-35.1012209" lon="149.3751756">
  <ele>708.11</ele>
  <time>2026-09-01T19:55:46Z</time>
  <course>91.98</course>
  <speed>0.0</speed>
  <fix>3d</fix>
</trkpt>
<trkpt lat="-35.1012209" lon="149.3751756">
  <ele>708.22</ele>
  <time>2026-09-01T19:55:46Z</time>
  <course>271.56</course>
  <speed>0.0</speed>
  <fix>3d</fix>
</trkpt>
<trkpt lat="-35.1012209" lon="149.3751756">
  <ele>708.03</ele>
  <time>2026-09-01T19:55:46Z</time>
  <course>91.98</course>
  <speed>0.0</speed>
  <fix>3d</fix>
</trkpt>
<trkpt lat="-35.1012209" lon="149.3751756">
  <ele>708.22</ele>
  <time>2026-09-01T19:55:46Z</time>
  <course>271.56</course>
  <speed>0.0</speed>
  <fix>3d</fix>
</trkpt>
<trkpt lat="-35.1012209" lon="149.3751756">
  <ele>708.01</ele>
  <time>2026-09-01T19:55:46Z</time>
  <course>91.98</course>
  <speed>0.0</speed>
  <fix>3d</fix>
</trkpt>
<trkpt lat="-35.1012209" lon="149.3751756">
  <ele>708.22</ele>
  <time>2026-09-01T19:55:46Z</time>
  <course>271.56</course>
  <speed>0.0</speed>
  <fix>3d</fix>
</trkpt>
<trkpt lat="-35.1012209" lon="149.3751756">
  <ele>707.99</ele>
  <time>2026-09-01T19:55:46Z</time>
  <course>91.98</course>
  <speed>0.0</speed>
  <fix>3d</fix>
</trkpt>
<trkpt lat="-35.1012209" lon="149.3751756">
  <ele>708.22</ele>
  <time>2026-09-01T19:55:46Z</time>
  <course>271.56</course>
  <speed>0.0</speed>
  <fix>3d</fix>
</trkpt>
<trkpt lat="-35.1012209" lon="149.3751756">
  <ele>708.24</ele>
  <time>2026-09-01T19:55:46Z</time>
  <course>91.98</course>
  <speed>0.0</speed>
  <fix>3d</fix>
</trkpt>
<trkpt lat="-35.1012209" lon="149.3751756">
  <ele>708.22</ele>
  <time>2026-09-01T19:55:46Z</time>
  <course>271.56</course>
  <speed>0.0</speed>
  <fix>3d</fix>
</trkpt>
<trkpt lat="-35.1012209" lon="149.3751756">
  <ele>708.11</ele>
  <time>2026-09-01T19:55:46Z</time>
  <course>91.98</course>
  <speed>0.0</speed>
  <fix>3d</fix>
</trkpt>
<trkpt lat="-35.1012209" lon="149.3751756">
  <ele>708.22</ele>
  <time>2026-09-01T19:55:46Z</time>
  <course>271.56</course>
  <speed>0.0</speed>
  <fix>3d</fix>
</trkpt>
<trkpt lat="-35.1012209" lon="149.3751756">
  <ele>708.25</ele>
  <time>2026-09-01T19:55:46Z</time>
  <course>91.98</course>
  <speed>0.0</speed>
  <fix>3d</fix>
</trkpt>
<trkpt lat="-35.1012209" lon="149.3751756">
  <ele>708.22</ele>
  <time>2026-09-01T19:55:46Z</time>
  <course>271.56</course>
  <speed>0.0</speed>
  <fix>3d</fix>
</trkpt>
<trkpt lat="-35.1012209" lon="149.3751756">
  <ele>708.12</ele>
  <time>2026-09-01T19:55:46Z</time>
  <course>91.98</course>
  <speed>0.0</speed>
  <fix>3d</fix>
</trkpt>
<trkpt lat="-35.1012209" lon="149.3751756">
  <ele>708.22</ele>
  <time>2026-09-01T19:55:46Z</time>
  <course>271.56</course>
  <speed>0.0</speed>
  <fix>3d</fix>
</trkpt>
<trkpt lat="-35.1012209" lon="149.3751756">
  <ele>708.28</ele>
  <time>2026-09-01T19:55:46Z</time>
  <course>91.98</course>
  <speed>0.0</speed>
  <fix>3d</fix>
</trkpt>
<trkpt lat="-35.1012209" lon="149.3751756">
  <ele>708.22</ele>
  <time>2026-09-01T19:55:46Z</time>
  <course>271.56</course>
  <speed>0.0</speed>
  <fix>3d</fix>
</trkpt>
<trkpt lat="-35.1012209" lon="149.3751756">
  <ele>708.11</ele>
  <time>2026-09-01T19:55:46Z</time>
  <course>91.98</course>
  <speed>0.0</speed>
  <fix>3d</fix>
</trkpt>
<trkpt lat="-35.1012209" lon="149.3751756">
  <ele>708.22</ele>
  <time>2026-09-01T19:55:46Z</time>
  <course>271.56</course>
  <speed>0.0</speed>
  <fix>3d</fix>
</trkpt>
<trkpt lat="-35.1012209" lon="149.3751756">
  <ele>708.11</ele>
  <time>2026-09-01T19:55:46Z</time>
  <course>91.98</course>
  <speed>0.0</speed>
  <fix>3d</fix>
</trkpt>
<trkpt lat="-35.1012209" lon="149.3751756">
  <ele>708.22</ele>
  <time>2026-09-01T19:55:46Z</time>
  <course>271.56</course>
  <speed>0.0</speed>
  <fix>3d</fix>
</trkpt>
<trkpt lat="-35.1012209" lon="149.3751756">
  <ele>708.29</ele>
  <time>2026-09-01T19:55:46Z</time>
  <course>91.98</course>
  <speed>0.0</speed>
  <fix>3d</fix>
</trkpt>
<trkpt lat="-35.1012209" lon="149.3751756">
  <ele>708.22</ele>
  <time>2026-09-01T19:55:46Z</time>
  <course>271.56</course>
  <speed>0.0</speed>
  <fix>3d</fix>
</trkpt>
<trkpt lat="-35.1012209" lon="149.3751756">
  <ele>708.28</ele>
  <time>2026-09-01T19:55:46Z</time>
  <course>91.98</course>
  <speed>0.0</speed>
  <fix>3d</fix>
</trkpt>
<trkpt lat="-35.1012209" lon="149.3751756">
  <ele>708.22</ele>
  <time>2026-09-01T19:55:46Z</time>
  <course>271.56</course>
  <speed>0.0</speed>
  <fix>3d</fix>
</trkpt>
<trkpt lat="-35.1012209" lon="149.3751756">
  <ele>707.99</ele>
  <time>2026-09-01T19:55:46Z</time>
  <course>91.98</course>
  <speed>0.0</speed>
  <fix>3d</fix>
</trkpt>
<trkpt lat="-35.1012209" lon="149.3751756">
  <ele>708.22</ele>
  <time>2026-09-01T19:55:46Z</time>
  <course>271.56</course>
  <speed>0.0</speed>
  <fix>3d</fix>
</trkpt>
<trkpt lat="-35.1012209" lon="149.3751756">
  <ele>708.3</ele>
  <time>2026-09-01T19:55:46Z</time>
  <course>91.98</course>
  <speed>0.0</speed>
  <fix>3d</fix>
</trkpt>
<trkpt lat="-35.1012209" lon="149.3751756">
  <ele>708.22</ele>
  <time>2026-09-01T19:55:46Z</time>
  <course>271.56</course>
  <speed>0.0</speed>
  <fix>3d</fix>
</trkpt>
<trkpt lat="-35.1012209" lon="149.3751756">
  <ele>708.28</ele>
  <time>2026-09-01T19:55:46Z</time>
  <course>91.98</course>
  <speed>0.0</speed>
  <fix>3d</fix>
</trkpt>
<trkpt lat="-35.1012209" lon="149.3751756">
  <ele>708.22</ele>
  <time>2026-09-01T19:55:46Z</time>
  <course>271.56</course>
  <speed>0.0</speed>
  <fix>3d</fix>
</trkpt>
<trkpt lat="-35.1012209" lon="149.3751756">
  <ele>708.33</ele>
  <time>2026-09-01T19:55:46Z</time>
  <course>91.99</course>
  <speed>0.0</speed>
  <fix>3d</fix>
</trkpt>
<trkpt lat="-35.1012209" lon="149.3751756">
  <ele>708.22</ele>
  <time>2026-09-01T19:55:46Z</time>
  <course>271.56</course>
  <speed>0.0</speed>
  <fix>3d</fix>
</trkpt>
<trkpt lat="-35.1012209" lon="149.3751756">
  <ele>708.34</ele>
  <time>2026-09-01T19:55:46Z</time>
  <course>91.99</course>
  <speed>0.0</speed>
  <fix>3d</fix>
</trkpt>
<trkpt lat="-35.1012209" lon="149.3751756">
  <ele>708.22</ele>
  <time>2026-09-01T19:55:46Z</time>
  <course>271.56</course>
  <speed>0.0</speed>
  <fix>3d</fix>
</trkpt>
<trkpt lat="-35.1012209" lon="149.3751756">
  <ele>708.23</ele>
  <time>2026-09-01T19:55:46Z</time>
  <course>91.99</course>
  <speed>0.0</speed>
  <fix>3d</fix>
</trkpt>
<trkpt lat="-35.1012209" lon="149.3751756">
  <ele>708.22</ele>
  <time>2026-09-01T19:55:46Z</time>
  <course>271.56</course>
  <speed>0.0</speed>
  <fix>3d</fix>
</trkpt>
<trkpt lat="-35.1012209" lon="149.3751756">
  <ele>707.99</ele>
  <time>2026-09-01T19:55:46Z</time>
  <course>91.99</course>
  <speed>0.0</speed>
  <fix>3d</fix>
</trkpt>
<trkpt lat="-35.1012209" lon="149.3751756">
  <ele>708.22</ele>
  <time>2026-09-01T19:55:46Z</time>
  <course>271.56</course>
  <speed>0.0</speed>
  <fix>3d</fix>
</trkpt>
<trkpt lat="-35.1012209" lon="149.3751756">
  <ele>708.09</ele>
  <time>2026-09-01T19:55:46Z</time>
  <course>91.99</course>
  <speed>0.0</speed>
  <fix>3d</fix>
</trkpt>
<trkpt lat="-35.1012209" lon="149.3751756">
  <ele>708.22</ele>
  <time>2026-09-01T19:55:46Z</time>
  <course>271.56</course>
  <speed>0.0</speed>
  <fix>3d</fix>
</trkpt>
<trkpt lat="-35.1012209" lon="149.3751756">
  <ele>708.03</ele>
  <time>2026-09-01T19:55:46Z</time>
  <course>91.99</course>
  <speed>0.0</speed>
  <fix>3d</fix>
</trkpt>
<trkpt lat="-35.1012209" lon="149.3751756">
  <ele>708.22</ele>
  <time>2026-09-01T19:55:46Z</time>
  <course>271.56</course>
  <speed>0.0</speed>
  <fix>3d</fix>
</trkpt>
<trkpt lat="-35.1012209" lon="149.3751756">
  <ele>707.86</ele>
  <time>2026-09-01T19:55:46Z</time>
  <course>91.99</course>
  <speed>0.0</speed>
  <fix>3d</fix>
</trkpt>
<trkpt lat="-35.1012209" lon="149.3751756">
  <ele>708.22</ele>
  <time>2026-09-01T19:55:46Z</time>
  <course>271.56</course>
  <speed>0.0</speed>
  <fix>3d</fix>
</trkpt>
<trkpt lat="-35.1012209" lon="149.3751756">
  <ele>707.91</ele>
  <time>2026-09-01T19:55:46Z</time>
  <course>91.99</course>
  <speed>0.0</speed>
  <fix>3d</fix>
</trkpt>
<trkpt lat="-35.1012209" lon="149.3751756">
  <ele>708.22</ele>
  <time>2026-09-01T19:55:46Z</time>
  <course>271.56</course>
  <speed>0.0</speed>
  <fix>3d</fix>
</trkpt>
<trkpt lat="-35.1012209" lon="149.3751756">
  <ele>707.95</ele>
  <time>2026-09-01T19:55:46Z</time>
  <course>91.99</course>
  <speed>0.0</speed>
  <fix>3d</fix>
</trkpt>
<trkpt lat="-35.1012209" lon="149.3751756">
  <ele>708.22</ele>
  <time>2026-09-01T19:55:46Z</time>
  <course>271.56</course>
  <speed>0.0</speed>
  <fix>3d</fix>
</trkpt>
<trkpt lat="-35.1012209" lon="149.3751756">
  <ele>708.14</ele>
  <time>2026-09-01T19:55:46Z</time>
  <course>91.99</course>
  <speed>0.0</speed>
  <fix>3d</fix>
</trkpt>
<trkpt lat="-35.1012209" lon="149.3751756">
  <ele>708.22</ele>
  <time>2026-09-01T19:55:46Z</time>
  <course>271.56</course>
  <speed>0.0</speed>
  <fix>3d</fix>
</trkpt>
<trkpt lat="-35.1012209" lon="149.3751756">
  <ele>708.15</ele>
  <time>2026-09-01T19:55:46Z</time>
  <course>91.99</course>
  <speed>0.0</speed>
  <fix>3d</fix>
</trkpt>
<trkpt lat="-35.1012209" lon="149.3751756">
  <ele>708.22</ele>
  <time>2026-09-01T19:55:46Z</time>
  <course>271.56</course>
  <speed>0.0</speed>
  <fix>3d</fix>
</trkpt>
<trkpt lat="-35.1012209" lon="149.3751756">
  <ele>708.18</ele>
  <time>2026-09-01T19:55:46Z</time>
  <course>91.99</course>
  <speed>0.0</speed>
  <fix>3d</fix>
</trkpt>
<trkpt lat="-35.1012209" lon="149.3751756">
  <ele>708.22</ele>
  <time>2026-09-01T19:55:46Z</time>
  <course>271.56</course>
  <speed>0.0</speed>
  <fix>3d</fix>
</trkpt>
<trkpt lat="-35.1012209" lon="149.3751756">
  <ele>708.12</ele>
  <time>2026-09-01T19:55:46Z</time>
  <course>92.0</course>
  <speed>0.0</speed>
  <fix>3d</fix>
</trkpt>
<trkpt lat="-35.1012209" lon="149.3751756">
  <ele>708.22</ele>
  <time>2026-09-01T19:55:46Z</time>
  <course>271.56</course>
  <speed>0.0</speed>
  <fix>3d</fix>
</trkpt>
<trkpt lat="-35.1012209" lon="149.3751756">
  <ele>707.99</ele>
  <time>2026-09-01T19:55:46Z</time>
  <course>92.01</course>
  <speed>0.0</speed>
  <fix>3d</fix>
</trkpt>
<trkpt lat="-35.1012209" lon="149.3751756">
  <ele>708.22</ele>
  <time>2026-09-01T19:55:46Z</time>
  <course>271.56</course>
  <speed>0.0</speed>
  <fix>3d</fix>
</trkpt>
<trkpt lat="-35.1012209" lon="149.3751756">
  <ele>708.24</ele>
  <time>2026-09-01T19:55:46Z</time>
  <course>92.02</course>
  <speed>0.0</speed>
  <fix>3d</fix>
</trkpt>
<trkpt lat="-35.1012209" lon="149.3751756">
  <ele>708.22</ele>
  <time>2026-09-01T19:55:46Z</time>
  <course>271.56</course>
  <speed>0.0</speed>
  <fix>3d</fix>
</trkpt>
<trkpt lat="-35.1012209" lon="149.3751756">
  <ele>707.99</ele>
  <time>2026-09-01T19:55:46Z</time>
  <course>92.02</course>
  <speed>0.0</speed>
  <fix>3d</fix>
</trkpt>
<trkpt lat="-35.1012209" lon="149.3751756">
  <ele>708.22</ele>
  <time>2026-09-01T19:55:46Z</time>
  <course>271.56</course>
  <speed>0.0</speed>
  <fix>3d</fix>
</trkpt>
<trkpt lat="-35.1012209" lon="149.3751756">
  <ele>708.13</ele>
  <time>2026-09-01T19:55:46Z</time>
  <course>92.03</course>
  <speed>0.0</speed>
  <fix>3d</fix>
</trkpt>
<trkpt lat="-35.1012209" lon="149.3751756">
  <ele>708.22</ele>
  <time>2026-09-01T19:55:46Z</time>
  <course>271.56</course>
  <speed>0.0</speed>
  <fix>3d</fix>
</trkpt>
<trkpt lat="-35.1012209" lon="149.3751756">
  <ele>707.94</ele>
  <time>2026-09-01T19:55:46Z</time>
  <course>92.04</course>
  <speed>0.0</speed>
  <fix>3d</fix>
</trkpt>
<trkpt lat="-35.1012209" lon="149.3751756">
  <ele>708.22</ele>
  <time>2026-09-01T19:55:46Z</time>
  <course>271.56</course>
  <speed>0.0</speed>
  <fix>3d</fix>
</trkpt>
<trkpt lat="-35.1012209" lon="149.3751756">
  <ele>708.01</ele>
  <time>2026-09-01T19:55:46Z</time>
  <course>92.05</course>
  <speed>0.0</speed>
  <fix>3d</fix>
</trkpt>
<trkpt lat="-35.1012209" lon="149.3751756">
  <ele>708.22</ele>
  <time>2026-09-01T19:55:46Z</time>
  <course>271.56</course>
  <speed>0.0</speed>
  <fix>3d</fix>
</trkpt>
<trkpt lat="-35.1012209" lon="149.3751756">
  <ele>708.15</ele>
  <time>2026-09-01T19:55:46Z</time>
  <course>92.05</course>
  <speed>0.0</speed>
  <fix>3d</fix>
</trkpt>
<trkpt lat="-35.1012209" lon="149.3751756">
  <ele>708.22</ele>
  <time>2026-09-01T19:55:46Z</time>
  <course>271.56</course>
  <speed>0.0</speed>
  <fix>3d</fix>
</trkpt>
<trkpt lat="-35.1012209" lon="149.3751756">
  <ele>708.21</ele>
  <time>2026-09-01T19:55:46Z</time>
  <course>92.06</course>
  <speed>0.0</speed>
  <fix>3d</fix>
</trkpt>
<trkpt lat="-35.1012209" lon="149.3751756">
  <ele>708.22</ele>
  <time>2026-09-01T19:55:46Z</time>
  <course>271.56</course>
  <speed>0.0</speed>
  <fix>3d</fix>
</trkpt>
<trkpt lat="-35.1012209" lon="149.3751756">
  <ele>707.87</ele>
  <time>2026-09-01T19:55:46Z</time>
  <course>92.07</course>
  <speed>0.0</speed>
  <fix>3d</fix>
</trkpt>
<trkpt lat="-35.1012209" lon="149.3751756">
  <ele>708.22</ele>
  <time>2026-09-01T19:55:46Z</time>
  <course>271.56</course>
  <speed>0.0</speed>
  <fix>3d</fix>
</trkpt>
<trkpt lat="-35.1012209" lon="149.3751756">
  <ele>708.06</ele>
  <time>2026-09-01T19:55:46Z</time>
  <course>92.07</course>
  <speed>0.0</speed>
  <fix>3d</fix>
</trkpt>
<trkpt lat="-35.1012209" lon="149.3751756">
  <ele>708.22</ele>
  <time>2026-09-01T19:55:46Z</time>
  <course>271.56</course>
  <speed>0.0</speed>
  <fix>3d</fix>
</trkpt>
<trkpt lat="-35.1012209" lon="149.3751756">
  <ele>707.94</ele>
  <time>2026-09-01T19:55:46Z</time>
  <course>92.08</course>
  <speed>0.0</speed>
  <fix>3d</fix>
</trkpt>
<trkpt lat="-35.1012209" lon="149.3751756">
  <ele>708.22</ele>
  <time>2026-09-01T19:55:46Z</time>
  <course>271.56</course>
  <speed>0.0</speed>
  <fix>3d</fix>
</trkpt>
<trkpt lat="-35.1012209" lon="149.3751756">
  <ele>708.16</ele>
  <time>2026-09-01T19:55:46Z</time>
  <course>92.09</course>
  <speed>0.0</speed>
  <fix>3d</fix>
</trkpt>
<trkpt lat="-35.1012209" lon="149.3751756">
  <ele>708.22</ele>
  <time>2026-09-01T19:55:46Z</time>
  <course>271.56</course>
  <speed>0.0</speed>
  <fix>3d</fix>
</trkpt>
<trkpt lat="-35.1012209" lon="149.3751756">
  <ele>707.99</ele>
  <time>2026-09-01T19:55:46Z</time>
  <course>92.09</course>
  <speed>0.0</speed>
  <fix>3d</fix>
</trkpt>
<trkpt lat="-35.1012209" lon="149.3751756">
  <ele>708.22</ele>
  <time>2026-09-01T19:55:46Z</time>
  <course>271.56</course>
  <speed>0.0</speed>
  <fix>3d</fix>
</trkpt>
<trkpt lat="-35.1012209" lon="149.3751756">
  <ele>708.23</ele>
  <time>2026-09-01T19:55:46Z</time>
  <course>92.1</course>
  <speed>0.0</speed>
  <fix>3d</fix>
</trkpt>
<trkpt lat="-35.1012209" lon="149.3751756">
  <ele>708.22</ele>
  <time>2026-09-01T19:55:46Z</time>
  <course>271.56</course>
  <speed>0.0</speed>
  <fix>3d</fix>
</trkpt>
<trkpt lat="-35.1012209" lon="149.3751756">
  <ele>708.07</ele>
  <time>2026-09-01T19:55:46Z</time>
  <course>92.11</course>
  <speed>0.0</speed>
  <fix>3d</fix>
</trkpt>
<trkpt lat="-35.1012209" lon="149.3751756">
  <ele>708.22</ele>
  <time>2026-09-01T19:55:46Z</time>
  <course>271.56</course>
  <speed>0.0</speed>
  <fix>3d</fix>
</trkpt>
<trkpt lat="-35.1012209" lon="149.3751756">
  <ele>708.31</ele>
  <time>2026-09-01T19:55:46Z</time>
  <course>92.11</course>
  <speed>0.0</speed>
  <fix>3d</fix>
</trkpt>
<trkpt lat="-35.1012209" lon="149.3751756">
  <ele>708.22</ele>
  <time>2026-09-01T19:55:46Z</time>
  <course>271.56</course>
  <speed>0.0</speed>
  <fix>3d</fix>
</trkpt>
<trkpt lat="-35.1012209" lon="149.3751756">
  <ele>708.14</ele>
  <time>2026-09-01T19:55:46Z</time>
  <course>92.12</course>
  <speed>0.0</speed>
  <fix>3d</fix>
</trkpt>
<trkpt lat="-35.1012209" lon="149.3751756">
  <ele>708.22</ele>
  <time>2026-09-01T19:55:46Z</time>
  <course>271.56</course>
  <speed>0.0</speed>
  <fix>3d</fix>
</trkpt>
<trkpt lat="-35.1012209" lon="149.3751756">
  <ele>708.37</ele>
  <time>2026-09-01T19:55:46Z</time>
  <course>92.13</course>
  <speed>0.0</speed>
  <fix>3d</fix>
</trkpt>
<trkpt lat="-35.1012209" lon="149.3751756">
  <ele>708.22</ele>
  <time>2026-09-01T19:55:46Z</time>
  <course>271.56</course>
  <speed>0.0</speed>
  <fix>3d</fix>
</trkpt>
<trkpt lat="-35.1012209" lon="149.3751756">
  <ele>708.06</ele>
  <time>2026-09-01T19:55:46Z</time>
  <course>92.13</course>
  <speed>0.0</speed>
  <fix>3d</fix>
</trkpt>
<trkpt lat="-35.1012209" lon="149.3751756">
  <ele>708.22</ele>
  <time>2026-09-01T19:55:46Z</time>
  <course>271.56</course>
  <speed>0.0</speed>
  <fix>3d</fix>
</trkpt>
<trkpt lat="-35.1012209" lon="149.3751756">
  <ele>708.24</ele>
  <time>2026-09-01T19:55:46Z</time>
  <course>92.14</course>
  <speed>0.0</speed>
  <fix>3d</fix>
</trkpt>
<trkpt lat="-35.1012209" lon="149.3751756">
  <ele>708.22</ele>
  <time>2026-09-01T19:55:46Z</time>
  <course>271.56</course>
  <speed>0.0</speed>
  <fix>3d</fix>
</trkpt>
<trkpt lat="-35.1012209" lon="149.3751756">
  <ele>708.13</ele>
  <time>2026-09-01T19:55:46Z</time>
  <course>92.15</course>
  <speed>0.0</speed>
  <fix>3d</fix>
</trkpt>
<trkpt lat="-35.1012209" lon="149.3751756">
  <ele>708.22</ele>
  <time>2026-09-01T19:55:46Z</time>
  <course>271.56</course>
  <speed>0.0</speed>
  <fix>3d</fix>
</trkpt>
<trkpt lat="-35.1012209" lon="149.3751756">
  <ele>708.25</ele>
  <time>2026-09-01T19:55:46Z</time>
  <course>92.15</course>
  <speed>0.0</speed>
  <fix>3d</fix>
</trkpt>
<trkpt lat="-35.1012209" lon="149.3751756">
  <ele>708.22</ele>
  <time>2026-09-01T19:55:46Z</time>
  <course>271.56</course>
  <speed>0.0</speed>
  <fix>3d</fix>
</trkpt>
<trkpt lat="-35.1012209" lon="149.3751756">
  <ele>708.3</ele>
  <time>2026-09-01T19:55:46Z</time>
  <course>92.16</course>
  <speed>0.0</speed>
  <fix>3d</fix>
</trkpt>
<trkpt lat="-35.1012209" lon="149.3751756">
  <ele>708.22</ele>
  <time>2026-09-01T19:55:46Z</time>
  <course>271.56</course>
  <speed>0.0</speed>
  <fix>3d</fix>
</trkpt>
<trkpt lat="-35.1012209" lon="149.3751756">
  <ele>708.09</ele>
  <time>2026-09-01T19:55:46Z</time>
  <course>92.16</course>
  <speed>0.0</speed>
  <fix>3d</fix>
</trkpt>
<trkpt lat="-35.1012209" lon="149.3751756">
  <ele>708.22</ele>
  <time>2026-09-01T19:55:46Z</time>
  <course>271.56</course>
  <speed>0.0</speed>
  <fix>3d</fix>
</trkpt>
<trkpt lat="-35.1012209" lon="149.3751756">
  <ele>708.26</ele>
  <time>2026-09-01T19:55:46Z</time>
  <course>92.17</course>
  <speed>0.0</speed>
  <fix>3d</fix>
</trkpt>
<trkpt lat="-35.1012209" lon="149.3751756">
  <ele>708.22</ele>
  <time>2026-09-01T19:55:46Z</time>
  <course>271.56</course>
  <speed>0.0</speed>
  <fix>3d</fix>
</trkpt>
<trkpt lat="-35.1012209" lon="149.3751756">
  <ele>708.08</ele>
  <time>2026-09-01T19:55:46Z</time>
  <course>92.18</course>
  <speed>0.0</speed>
  <fix>3d</fix>
</trkpt>
<trkpt lat="-35.1012209" lon="149.3751756">
  <ele>708.22</ele>
  <time>2026-09-01T19:55:46Z</time>
  <course>271.56</course>
  <speed>0.0</speed>
  <fix>3d</fix>
</trkpt>
<trkpt lat="-35.1012209" lon="149.3751756">
  <ele>708.42</ele>
  <time>2026-09-01T19:55:46Z</time>
  <course>92.18</course>
  <speed>0.0</speed>
  <fix>3d</fix>
</trkpt>
<trkpt lat="-35.1012209" lon="149.3751756">
  <ele>708.22</ele>
  <time>2026-09-01T19:55:46Z</time>
  <course>271.56</course>
  <speed>0.0</speed>
  <fix>3d</fix>
</trkpt>
<trkpt lat="-35.1012209" lon="149.3751756">
  <ele>708.34</ele>
  <time>2026-09-01T19:55:46Z</time>
  <course>92.19</course>
  <speed>0.0</speed>
  <fix>3d</fix>
</trkpt>
<trkpt lat="-35.1012209" lon="149.3751756">
  <ele>708.22</ele>
  <time>2026-09-01T19:55:46Z</time>
  <course>271.56</course>
  <speed>0.0</speed>
  <fix>3d</fix>
</trkpt>
<trkpt lat="-35.1012209" lon="149.3751756">
  <ele>708.19</ele>
  <time>2026-09-01T19:55:46Z</time>
  <course>92.19</course>
  <speed>0.0</speed>
  <fix>3d</fix>
</trkpt>
<trkpt lat="-35.1012209" lon="149.3751756">
  <ele>708.22</ele>
  <time>2026-09-01T19:55:46Z</time>
  <course>271.56</course>
  <speed>0.0</speed>
  <fix>3d</fix>
</trkpt>
<trkpt lat="-35.1012209" lon="149.3751756">
  <ele>708.35</ele>
  <time>2026-09-01T19:55:46Z</time>
  <course>92.2</course>
  <speed>0.0</speed>
  <fix>3d</fix>
</trkpt>
<trkpt lat="-35.1012209" lon="149.3751756">
  <ele>708.22</ele>
  <time>2026-09-01T19:55:46Z</time>
  <course>271.56</course>
  <speed>0.0</speed>
  <fix>3d</fix>
</trkpt>
<trkpt lat="-35.1012209" lon="149.3751756">
  <ele>708.45</ele>
  <time>2026-09-01T19:55:46Z</time>
  <course>92.21</course>
  <speed>0.0</speed>
  <fix>3d</fix>
</trkpt>
<trkpt lat="-35.1012209" lon="149.3751756">
  <ele>708.22</ele>
  <time>2026-09-01T19:55:46Z</time>
  <course>271.56</course>
  <speed>0.0</speed>
  <fix>3d</fix>
</trkpt>
<trkpt lat="-35.1012209" lon="149.3751756">
  <ele>708.17</ele>
  <time>2026-09-01T19:55:47Z</time>
  <course>92.21</course>
  <speed>0.0</speed>
  <fix>3d</fix>
</trkpt>
<trkpt lat="-35.1012209" lon="149.3751756">
  <ele>708.22</ele>
  <time>2026-09-01T19:55:47Z</time>
  <course>271.56</course>
  <speed>0.0</speed>
  <fix>3d</fix>
</trkpt>
<trkpt lat="-35.1012209" lon="149.3751756">
  <ele>708.28</ele>
  <time>2026-09-01T19:55:47Z</time>
  <course>92.22</course>
  <speed>0.0</speed>
  <fix>3d</fix>
</trkpt>
<trkpt lat="-35.1012209" lon="149.3751756">
  <ele>708.22</ele>
  <time>2026-09-01T19:55:47Z</time>
  <course>271.56</course>
  <speed>0.0</speed>
  <fix>3d</fix>
</trkpt>
<trkpt lat="-35.1012209" lon="149.3751756">
  <ele>708.28</ele>
  <time>2026-09-01T19:55:47Z</time>
  <course>92.22</course>
  <speed>0.0</speed>
  <fix>3d</fix>
</trkpt>
<trkpt lat="-35.1012209" lon="149.3751756">
  <ele>708.22</ele>
  <time>2026-09-01T19:55:47Z</time>
  <course>271.56</course>
  <speed>0.0</speed>
  <fix>3d</fix>
</trkpt>
<trkpt lat="-35.1012209" lon="149.3751756">
  <ele>708.2</ele>
  <time>2026-09-01T19:55:47Z</time>
  <course>92.23</course>
  <speed>0.0</speed>
  <fix>3d</fix>
</trkpt>
<trkpt lat="-35.1012209" lon="149.3751756">
  <ele>708.22</ele>
  <time>2026-09-01T19:55:47Z</time>
  <course>271.56</course>
  <speed>0.0</speed>
  <fix>3d</fix>
</trkpt>
<trkpt lat="-35.1012209" lon="149.3751756">
  <ele>708.29</ele>
  <time>2026-09-01T19:55:47Z</time>
  <course>92.23</course>
  <speed>0.0</speed>
  <fix>3d</fix>
</trkpt>
<trkpt lat="-35.1012209" lon="149.3751756">
  <ele>708.22</ele>
  <time>2026-09-01T19:55:47Z</time>
  <course>271.56</course>
  <speed>0.0</speed>
  <fix>3d</fix>
</trkpt>
<trkpt lat="-35.1012209" lon="149.3751756">
  <ele>708.35</ele>
  <time>2026-09-01T19:55:47Z</time>
  <course>92.24</course>
  <speed>0.0</speed>
  <fix>3d</fix>
</trkpt>
<trkpt lat="-35.1012209" lon="149.3751756">
  <ele>708.22</ele>
  <time>2026-09-01T19:55:47Z</time>
  <course>271.56</course>
  <speed>0.0</speed>
  <fix>3d</fix>
</trkpt>
<trkpt lat="-35.1012209" lon="149.3751756">
  <ele>708.13</ele>
  <time>2026-09-01T19:55:47Z</time>
  <course>92.25</course>
  <speed>0.0</speed>
  <fix>3d</fix>
</trkpt>
<trkpt lat="-35.1012209" lon="149.3751756">
  <ele>708.22</ele>
  <time>2026-09-01T19:55:47Z</time>
  <course>271.56</course>
  <speed>0.0</speed>
  <fix>3d</fix>
</trkpt>
<trkpt lat="-35.1012209" lon="149.3751756">
  <ele>708.38</ele>
  <time>2026-09-01T19:55:47Z</time>
  <course>92.25</course>
  <speed>0.0</speed>
  <fix>3d</fix>
</trkpt>
<trkpt lat="-35.1012209" lon="149.3751756">
  <ele>708.22</ele>
  <time>2026-09-01T19:55:47Z</time>
  <course>271.56</course>
  <speed>0.0</speed>
  <fix>3d</fix>
</trkpt>
<trkpt lat="-35.1012209" lon="149.3751756">
  <ele>708.4</ele>
  <time>2026-09-01T19:55:47Z</time>
  <course>92.26</course>
  <speed>0.0</speed>
  <fix>3d</fix>
</trkpt>
<trkpt lat="-35.1012209" lon="149.3751756">
  <ele>708.22</ele>
  <time>2026-09-01T19:55:47Z</time>
  <course>271.56</course>
  <speed>0.0</speed>
  <fix>3d</fix>
</trkpt>
<trkpt lat="-35.1012209" lon="149.3751756">
  <ele>708.46</ele>
  <time>2026-09-01T19:55:47Z</time>
  <course>92.26</course>
  <speed>0.0</speed>
  <fix>3d</fix>
</trkpt>
<trkpt lat="-35.1012209" lon="149.3751756">
  <ele>708.22</ele>
  <time>2026-09-01T19:55:47Z</time>
  <course>271.56</course>
  <speed>0.0</speed>
  <fix>3d</fix>
</trkpt>
<trkpt lat="-35.1012209" lon="149.3751756">
  <ele>708.22</ele>
  <time>2026-09-01T19:55:47Z</time>
  <course>92.27</course>
  <speed>0.0</speed>
  <fix>3d</fix>
</trkpt>
<trkpt lat="-35.1012209" lon="149.3751756">
  <ele>708.22</ele>
  <time>2026-09-01T19:55:47Z</time>
  <course>271.56</course>
  <speed>0.0</speed>
  <fix>3d</fix>
</trkpt>
<trkpt lat="-35.1012209" lon="149.3751756">
  <ele>708.08</ele>
  <time>2026-09-01T19:55:47Z</time>
  <course>92.27</course>
  <speed>0.0</speed>
  <fix>3d</fix>
</trkpt>
<trkpt lat="-35.1012209" lon="149.3751756">
  <ele>708.22</ele>
  <time>2026-09-01T19:55:47Z</time>
  <course>271.56</course>
  <speed>0.0</speed>
  <fix>3d</fix>
</trkpt>
<trkpt lat="-35.1012209" lon="149.3751756">
  <ele>708.15</ele>
  <time>2026-09-01T19:55:47Z</time>
  <course>92.28</course>
  <speed>0.0</speed>
  <fix>3d</fix>
</trkpt>
<trkpt lat="-35.1012209" lon="149.3751756">
  <ele>708.22</ele>
  <time>2026-09-01T19:55:47Z</time>
  <course>271.56</course>
  <speed>0.0</speed>
  <fix>3d</fix>
</trkpt>
<trkpt lat="-35.1012209" lon="149.3751756">
  <ele>708.35</ele>
  <time>2026-09-01T19:55:47Z</time>
  <course>92.28</course>
  <speed>0.0</speed>
  <fix>3d</fix>
</trkpt>
<trkpt lat="-35.1012209" lon="149.3751756">
  <ele>708.22</ele>
  <time>2026-09-01T19:55:47Z</time>
  <course>271.56</course>
  <speed>0.0</speed>
  <fix>3d</fix>
</trkpt>
<trkpt lat="-35.1012209" lon="149.3751756">
  <ele>708.26</ele>
  <time>2026-09-01T19:55:47Z</time>
  <course>92.29</course>
  <speed>0.0</speed>
  <fix>3d</fix>
</trkpt>
<trkpt lat="-35.1012209" lon="149.3751756">
  <ele>708.22</ele>
  <time>2026-09-01T19:55:47Z</time>
  <course>271.56</course>
  <speed>0.0</speed>
  <fix>3d</fix>
</trkpt>
<trkpt lat="-35.1012209" lon="149.3751756">
  <ele>708.25</ele>
  <time>2026-09-01T19:55:47Z</time>
  <course>92.29</course>
  <speed>0.0</speed>
  <fix>3d</fix>
</trkpt>
<trkpt lat="-35.1012209" lon="149.3751756">
  <ele>708.22</ele>
  <time>2026-09-01T19:55:47Z</time>
  <course>271.56</course>
  <speed>0.0</speed>
  <fix>3d</fix>
</trkpt>
<trkpt lat="-35.1012209" lon="149.3751756">
  <ele>708.15</ele>
  <time>2026-09-01T19:55:47Z</time>
  <course>92.3</course>
  <speed>0.0</speed>
  <fix>3d</fix>
</trkpt>
<trkpt lat="-35.1012209" lon="149.3751756">
  <ele>708.22</ele>
  <time>2026-09-01T19:55:47Z</time>
  <course>271.56</course>
  <speed>0.0</speed>
  <fix>3d</fix>
</trkpt>
<trkpt lat="-35.1012209" lon="149.3751756">
  <ele>708.27</ele>
  <time>2026-09-01T19:55:47Z</time>
  <course>92.31</course>
  <speed>0.0</speed>
  <fix>3d</fix>
</trkpt>
<trkpt lat="-35.1012209" lon="149.3751756">
  <ele>708.22</ele>
  <time>2026-09-01T19:55:47Z</time>
  <course>271.56</course>
  <speed>0.0</speed>
  <fix>3d</fix>
</trkpt>
<trkpt lat="-35.1012209" lon="149.3751756">
  <ele>708.26</ele>
  <time>2026-09-01T19:55:47Z</time>
  <course>92.31</course>
  <speed>0.0</speed>
  <fix>3d</fix>
</trkpt>
<trkpt lat="-35.1012209" lon="149.3751756">
  <ele>708.22</ele>
  <time>2026-09-01T19:55:47Z</time>
  <course>271.56</course>
  <speed>0.0</speed>
  <fix>3d</fix>
</trkpt>
<trkpt lat="-35.1012209" lon="149.3751756">
  <ele>708.29</ele>
  <time>2026-09-01T19:55:47Z</time>
  <course>92.32</course>
  <speed>0.0</speed>
  <fix>3d</fix>
</trkpt>
<trkpt lat="-35.1012209" lon="149.3751756">
  <ele>708.22</ele>
  <time>2026-09-01T19:55:47Z</time>
  <course>271.56</course>
  <speed>0.0</speed>
  <fix>3d</fix>
</trkpt>
<trkpt lat="-35.1012209" lon="149.3751756">
  <ele>708.06</ele>
  <time>2026-09-01T19:55:47Z</time>
  <course>92.32</course>
  <speed>0.0</speed>
  <fix>3d</fix>
</trkpt>
<trkpt lat="-35.1012209" lon="149.3751756">
  <ele>708.22</ele>
  <time>2026-09-01T19:55:47Z</time>
  <course>271.56</course>
  <speed>0.0</speed>
  <fix>3d</fix>
</trkpt>
<trkpt lat="-35.1012209" lon="149.3751756">
  <ele>708.18</ele>
  <time>2026-09-01T19:55:47Z</time>
  <course>92.33</course>
  <speed>0.0</speed>
  <fix>3d</fix>
</trkpt>
<trkpt lat="-35.1012209" lon="149.3751756">
  <ele>708.22</ele>
  <time>2026-09-01T19:55:47Z</time>
  <course>271.56</course>
  <speed>0.0</speed>
  <fix>3d</fix>
</trkpt>
<trkpt lat="-35.1012209" lon="149.3751756">
  <ele>708.23</ele>
  <time>2026-09-01T19:55:47Z</time>
  <course>92.33</course>
  <speed>0.0</speed>
  <fix>3d</fix>
</trkpt>
<trkpt lat="-35.1012209" lon="149.3751756">
  <ele>708.22</ele>
  <time>2026-09-01T19:55:47Z</time>
  <course>271.56</course>
  <speed>0.0</speed>
  <fix>3d</fix>
</trkpt>
<trkpt lat="-35.1012209" lon="149.3751756">
  <ele>708.42</ele>
  <time>2026-09-01T19:55:47Z</time>
  <course>92.34</course>
  <speed>0.0</speed>
  <fix>3d</fix>
</trkpt>
<trkpt lat="-35.1012209" lon="149.3751756">
  <ele>708.22</ele>
  <time>2026-09-01T19:55:47Z</time>
  <course>271.56</course>
  <speed>0.0</speed>
  <fix>3d</fix>
</trkpt>
<trkpt lat="-35.1012209" lon="149.3751756">
  <ele>708.15</ele>
  <time>2026-09-01T19:55:47Z</time>
  <course>92.34</course>
  <speed>0.0</speed>
  <fix>3d</fix>
</trkpt>
<trkpt lat="-35.1012209" lon="149.3751756">
  <ele>708.22</ele>
  <time>2026-09-01T19:55:47Z</time>
  <course>271.56</course>
  <speed>0.0</speed>
  <fix>3d</fix>
</trkpt>
<trkpt lat="-35.1012209" lon="149.3751756">
  <ele>708.25</ele>
  <time>2026-09-01T19:55:47Z</time>
  <course>92.35</course>
  <speed>0.0</speed>
  <fix>3d</fix>
</trkpt>
<trkpt lat="-35.1012209" lon="149.3751756">
  <ele>708.22</ele>
  <time>2026-09-01T19:55:47Z</time>
  <course>271.56</course>
  <speed>0.0</speed>
  <fix>3d</fix>
</trkpt>
<trkpt lat="-35.1012209" lon="149.3751756">
  <ele>708.14</ele>
  <time>2026-09-01T19:55:47Z</time>
  <course>92.35</course>
  <speed>0.0</speed>
  <fix>3d</fix>
</trkpt>
<trkpt lat="-35.1012209" lon="149.3751756">
  <ele>708.22</ele>
  <time>2026-09-01T19:55:47Z</time>
  <course>271.56</course>
  <speed>0.0</speed>
  <fix>3d</fix>
</trkpt>
<trkpt lat="-35.1012209" lon="149.3751756">
  <ele>708.29</ele>
  <time>2026-09-01T19:55:47Z</time>
  <course>92.35</course>
  <speed>0.0</speed>
  <fix>3d</fix>
</trkpt>
<trkpt lat="-35.1012209" lon="149.3751756">
  <ele>708.22</ele>
  <time>2026-09-01T19:55:47Z</time>
  <course>271.56</course>
  <speed>0.0</speed>
  <fix>3d</fix>
</trkpt>
<trkpt lat="-35.1012209" lon="149.3751756">
  <ele>708.38</ele>
  <time>2026-09-01T19:55:47Z</time>
  <course>92.36</course>
  <speed>0.0</speed>
  <fix>3d</fix>
</trkpt>
<trkpt lat="-35.1012209" lon="149.3751756">
  <ele>708.22</ele>
  <time>2026-09-01T19:55:47Z</time>
  <course>271.56</course>
  <speed>0.0</speed>
  <fix>3d</fix>
</trkpt>
<trkpt lat="-35.1012209" lon="149.3751756">
  <ele>708.41</ele>
  <time>2026-09-01T19:55:47Z</time>
  <course>92.36</course>
  <speed>0.0</speed>
  <fix>3d</fix>
</trkpt>
<trkpt lat="-35.1012209" lon="149.3751756">
  <ele>708.22</ele>
  <time>2026-09-01T19:55:47Z</time>
  <course>271.56</course>
  <speed>0.0</speed>
  <fix>3d</fix>
</trkpt>
<trkpt lat="-35.1012209" lon="149.3751756">
  <ele>708.25</ele>
  <time>2026-09-01T19:55:47Z</time>
  <course>92.37</course>
  <speed>0.0</speed>
  <fix>3d</fix>
</trkpt>
<trkpt lat="-35.1012209" lon="149.3751756">
  <ele>708.22</ele>
  <time>2026-09-01T19:55:47Z</time>
  <course>271.56</course>
  <speed>0.0</speed>
  <fix>3d</fix>
</trkpt>
<trkpt lat="-35.1012209" lon="149.3751756">
  <ele>708.22</ele>
  <time>2026-09-01T19:55:47Z</time>
  <course>92.37</course>
  <speed>0.0</speed>
  <fix>3d</fix>
</trkpt>
<trkpt lat="-35.1012209" lon="149.3751756">
  <ele>708.22</ele>
  <time>2026-09-01T19:55:47Z</time>
  <course>271.56</course>
  <speed>0.0</speed>
  <fix>3d</fix>
</trkpt>
<trkpt lat="-35.1012209" lon="149.3751756">
  <ele>708.32</ele>
  <time>2026-09-01T19:55:47Z</time>
  <course>92.38</course>
  <speed>0.0</speed>
  <fix>3d</fix>
</trkpt>
<trkpt lat="-35.1012209" lon="149.3751756">
  <ele>708.22</ele>
  <time>2026-09-01T19:55:47Z</time>
  <course>271.56</course>
  <speed>0.0</speed>
  <fix>3d</fix>
</trkpt>
<trkpt lat="-35.1012209" lon="149.3751756">
  <ele>708.21</ele>
  <time>2026-09-01T19:55:47Z</time>
  <course>92.38</course>
  <speed>0.0</speed>
  <fix>3d</fix>
</trkpt>
<trkpt lat="-35.1012209" lon="149.3751756">
  <ele>708.22</ele>
  <time>2026-09-01T19:55:47Z</time>
  <course>271.56</course>
  <speed>0.0</speed>
  <fix>3d</fix>
</trkpt>
<trkpt lat="-35.1012209" lon="149.3751756">
  <ele>708.23</ele>
  <time>2026-09-01T19:55:47Z</time>
  <course>92.39</course>
  <speed>0.0</speed>
  <fix>3d</fix>
</trkpt>
<trkpt lat="-35.1012209" lon="149.3751756">
  <ele>708.22</ele>
  <time>2026-09-01T19:55:47Z</time>
  <course>271.56</course>
  <speed>0.0</speed>
  <fix>3d</fix>
</trkpt>
<trkpt lat="-35.1012209" lon="149.3751756">
  <ele>708.33</ele>
  <time>2026-09-01T19:55:47Z</time>
  <course>92.39</course>
  <speed>0.0</speed>
  <fix>3d</fix>
</trkpt>
<trkpt lat="-35.1012209" lon="149.3751756">
  <ele>708.22</ele>
  <time>2026-09-01T19:55:47Z</time>
  <course>271.56</course>
  <speed>0.0</speed>
  <fix>3d</fix>
</trkpt>
<trkpt lat="-35.1012209" lon="149.3751756">
  <ele>708.34</ele>
  <time>2026-09-01T19:55:47Z</time>
  <course>92.4</course>
  <speed>0.0</speed>
  <fix>3d</fix>
</trkpt>
<trkpt lat="-35.1012209" lon="149.3751756">
  <ele>708.22</ele>
  <time>2026-09-01T19:55:47Z</time>
  <course>271.56</course>
  <speed>0.0</speed>
  <fix>3d</fix>
</trkpt>
<trkpt lat="-35.1012209" lon="149.3751756">
  <ele>708.1</ele>
  <time>2026-09-01T19:55:47Z</time>
  <course>92.4</course>
  <speed>0.0</speed>
  <fix>3d</fix>
</trkpt>
<trkpt lat="-35.1012209" lon="149.3751756">
  <ele>708.22</ele>
  <time>2026-09-01T19:55:47Z</time>
  <course>271.56</course>
  <speed>0.0</speed>
  <fix>3d</fix>
</trkpt>
<trkpt lat="-35.1012209" lon="149.3751756">
  <ele>708.27</ele>
  <time>2026-09-01T19:55:47Z</time>
  <course>92.41</course>
  <speed>0.0</speed>
  <fix>3d</fix>
</trkpt>
<trkpt lat="-35.1012209" lon="149.3751756">
  <ele>708.22</ele>
  <time>2026-09-01T19:55:47Z</time>
  <course>271.56</course>
  <speed>0.0</speed>
  <fix>3d</fix>
</trkpt>
<trkpt lat="-35.1012209" lon="149.3751756">
  <ele>708.4</ele>
  <time>2026-09-01T19:55:47Z</time>
  <course>92.41</course>
  <speed>0.0</speed>
  <fix>3d</fix>
</trkpt>
<trkpt lat="-35.1012209" lon="149.3751756">
  <ele>708.22</ele>
  <time>2026-09-01T19:55:47Z</time>
  <course>271.56</course>
  <speed>0.0</speed>
  <fix>3d</fix>
</trkpt>
<trkpt lat="-35.1012209" lon="149.3751756">
  <ele>708.42</ele>
  <time>2026-09-01T19:55:47Z</time>
  <course>92.41</course>
  <speed>0.0</speed>
  <fix>3d</fix>
</trkpt>
<trkpt lat="-35.1012209" lon="149.3751756">
  <ele>708.22</ele>
  <time>2026-09-01T19:55:47Z</time>
  <course>271.56</course>
  <speed>0.0</speed>
  <fix>3d</fix>
</trkpt>
<trkpt lat="-35.1012209" lon="149.3751756">
  <ele>708.46</ele>
  <time>2026-09-01T19:55:47Z</time>
  <course>92.42</course>
  <speed>0.0</speed>
  <fix>3d</fix>
</trkpt>
<trkpt lat="-35.1012209" lon="149.3751756">
  <ele>708.22</ele>
  <time>2026-09-01T19:55:47Z</time>
  <course>271.56</course>
  <speed>0.0</speed>
  <fix>3d</fix>
</trkpt>
<trkpt lat="-35.1012209" lon="149.3751756">
  <ele>708.08</ele>
  <time>2026-09-01T19:55:47Z</time>
  <course>92.42</course>
  <speed>0.0</speed>
  <fix>3d</fix>
</trkpt>
<trkpt lat="-35.1012209" lon="149.3751756">
  <ele>708.22</ele>
  <time>2026-09-01T19:55:47Z</time>
  <course>271.56</course>
  <speed>0.0</speed>
  <fix>3d</fix>
</trkpt>
<trkpt lat="-35.1012209" lon="149.3751756">
  <ele>708.09</ele>
  <time>2026-09-01T19:55:47Z</time>
  <course>92.42</course>
  <speed>0.0</speed>
  <fix>3d</fix>
</trkpt>
<trkpt lat="-35.1012209" lon="149.3751756">
  <ele>708.22</ele>
  <time>2026-09-01T19:55:47Z</time>
  <course>271.56</course>
  <speed>0.0</speed>
  <fix>3d</fix>
</trkpt>
<trkpt lat="-35.1012209" lon="149.3751756">
  <ele>707.95</ele>
  <time>2026-09-01T19:55:47Z</time>
  <course>92.43</course>
  <speed>0.0</speed>
  <fix>3d</fix>
</trkpt>
<trkpt lat="-35.1012209" lon="149.3751756">
  <ele>708.22</ele>
  <time>2026-09-01T19:55:47Z</time>
  <course>271.56</course>
  <speed>0.0</speed>
  <fix>3d</fix>
</trkpt>
<trkpt lat="-35.1012209" lon="149.3751756">
  <ele>707.96</ele>
  <time>2026-09-01T19:55:47Z</time>
  <course>92.43</course>
  <speed>0.0</speed>
  <fix>3d</fix>
</trkpt>
<trkpt lat="-35.1012209" lon="149.3751756">
  <ele>708.22</ele>
  <time>2026-09-01T19:55:47Z</time>
  <course>271.56</course>
  <speed>0.0</speed>
  <fix>3d</fix>
</trkpt>
<trkpt lat="-35.1012209" lon="149.3751756">
  <ele>707.86</ele>
  <time>2026-09-01T19:55:47Z</time>
  <course>92.43</course>
  <speed>0.0</speed>
  <fix>3d</fix>
</trkpt>
<trkpt lat="-35.1012209" lon="149.3751756">
  <ele>708.22</ele>
  <time>2026-09-01T19:55:47Z</time>
  <course>271.56</course>
  <speed>0.0</speed>
  <fix>3d</fix>
</trkpt>
<trkpt lat="-35.1012209" lon="149.3751756">
  <ele>708.15</ele>
  <time>2026-09-01T19:55:47Z</time>
  <course>92.43</course>
  <speed>0.0</speed>
  <fix>3d</fix>
</trkpt>
<trkpt lat="-35.1012209" lon="149.3751756">
  <ele>708.22</ele>
  <time>2026-09-01T19:55:47Z</time>
  <course>271.56</course>
  <speed>0.0</speed>
  <fix>3d</fix>
</trkpt>
<trkpt lat="-35.1012209" lon="149.3751756">
  <ele>707.92</ele>
  <time>2026-09-01T19:55:47Z</time>
  <course>92.44</course>
  <speed>0.0</speed>
  <fix>3d</fix>
</trkpt>
<trkpt lat="-35.1012209" lon="149.3751756">
  <ele>708.22</ele>
  <time>2026-09-01T19:55:47Z</time>
  <course>271.56</course>
  <speed>0.0</speed>
  <fix>3d</fix>
</trkpt>
<trkpt lat="-35.1012209" lon="149.3751756">
  <ele>708.17</ele>
  <time>2026-09-01T19:55:47Z</time>
  <course>92.44</course>
  <speed>0.0</speed>
  <fix>3d</fix>
</trkpt>
<trkpt lat="-35.1012209" lon="149.3751756">
  <ele>708.22</ele>
  <time>2026-09-01T19:55:47Z</time>
  <course>271.56</course>
  <speed>0.0</speed>
  <fix>3d</fix>
</trkpt>
<trkpt lat="-35.1012209" lon="149.3751756">
  <ele>708.15</ele>
  <time>2026-09-01T19:55:47Z</time>
  <course>92.44</course>
  <speed>0.0</speed>
  <fix>3d</fix>
</trkpt>
<trkpt lat="-35.1012209" lon="149.3751756">
  <ele>708.22</ele>
  <time>2026-09-01T19:55:47Z</time>
  <course>271.56</course>
  <speed>0.0</speed>
  <fix>3d</fix>
</trkpt>
<trkpt lat="-35.1012209" lon="149.3751756">
  <ele>708.0</ele>
  <time>2026-09-01T19:55:47Z</time>
  <course>92.45</course>
  <speed>0.0</speed>
  <fix>3d</fix>
</trkpt>
<trkpt lat="-35.1012209" lon="149.3751756">
  <ele>708.22</ele>
  <time>2026-09-01T19:55:47Z</time>
  <course>271.56</course>
  <speed>0.0</speed>
  <fix>3d</fix>
</trkpt>
<trkpt lat="-35.1012209" lon="149.3751756">
  <ele>707.95</ele>
  <time>2026-09-01T19:55:47Z</time>
  <course>92.45</course>
  <speed>0.0</speed>
  <fix>3d</fix>
</trkpt>
<trkpt lat="-35.1012209" lon="149.3751756">
  <ele>708.22</ele>
  <time>2026-09-01T19:55:47Z</time>
  <course>271.56</course>
  <speed>0.0</speed>
  <fix>3d</fix>
</trkpt>
<trkpt lat="-35.1012209" lon="149.3751756">
  <ele>707.99</ele>
  <time>2026-09-01T19:55:47Z</time>
  <course>92.45</course>
  <speed>0.0</speed>
  <fix>3d</fix>
</trkpt>
<trkpt lat="-35.1012209" lon="149.3751756">
  <ele>708.22</ele>
  <time>2026-09-01T19:55:47Z</time>
  <course>271.56</course>
  <speed>0.0</speed>
  <fix>3d</fix>
</trkpt>
<trkpt lat="-35.1012209" lon="149.3751756">
  <ele>707.9</ele>
  <time>2026-09-01T19:55:47Z</time>
  <course>92.46</course>
  <speed>0.0</speed>
  <fix>3d</fix>
</trkpt>
<trkpt lat="-35.1012209" lon="149.3751756">
  <ele>708.22</ele>
  <time>2026-09-01T19:55:47Z</time>
  <course>271.56</course>
  <speed>0.0</speed>
  <fix>3d</fix>
</trkpt>
<trkpt lat="-35.1012209" lon="149.3751756">
  <ele>707.92</ele>
  <time>2026-09-01T19:55:47Z</time>
  <course>92.46</course>
  <speed>0.0</speed>
  <fix>3d</fix>
</trkpt>
<trkpt lat="-35.1012209" lon="149.3751756">
  <ele>708.22</ele>
  <time>2026-09-01T19:55:47Z</time>
  <course>271.56</course>
  <speed>0.0</speed>
  <fix>3d</fix>
</trkpt>
<trkpt lat="-35.1012209" lon="149.3751756">
  <ele>708.02</ele>
  <time>2026-09-01T19:55:47Z</time>
  <course>92.46</course>
  <speed>0.0</speed>
  <fix>3d</fix>
</trkpt>
<trkpt lat="-35.1012209" lon="149.3751756">
  <ele>708.22</ele>
  <time>2026-09-01T19:55:47Z</time>
  <course>271.56</course>
  <speed>0.0</speed>
  <fix>3d</fix>
</trkpt>
<trkpt lat="-35.1012209" lon="149.3751756">
  <ele>707.94</ele>
  <time>2026-09-01T19:55:47Z</time>
  <course>92.46</course>
  <speed>0.0</speed>
  <fix>3d</fix>
</trkpt>
<trkpt lat="-35.1012209" lon="149.3751756">
  <ele>708.22</ele>
  <time>2026-09-01T19:55:47Z</time>
  <course>271.56</course>
  <speed>0.0</speed>
  <fix>3d</fix>
</trkpt>
<trkpt lat="-35.1012209" lon="149.3751756">
  <ele>707.91</ele>
  <time>2026-09-01T19:55:47Z</time>
  <course>92.47</course>
  <speed>0.0</speed>
  <fix>3d</fix>
</trkpt>
<trkpt lat="-35.1012209" lon="149.3751756">
  <ele>708.22</ele>
  <time>2026-09-01T19:55:47Z</time>
  <course>271.56</course>
  <speed>0.0</speed>
  <fix>3d</fix>
</trkpt>
<trkpt lat="-35.1012209" lon="149.3751756">
  <ele>707.91</ele>
  <time>2026-09-01T19:55:47Z</time>
  <course>92.47</course>
  <speed>0.0</speed>
  <fix>3d</fix>
</trkpt>
<trkpt lat="-35.1012209" lon="149.3751756">
  <ele>708.22</ele>
  <time>2026-09-01T19:55:47Z</time>
  <course>271.56</course>
  <speed>0.0</speed>
  <fix>3d</fix>
</trkpt>
<trkpt lat="-35.1012209" lon="149.3751756">
  <ele>707.95</ele>
  <time>2026-09-01T19:55:47Z</time>
  <course>92.47</course>
  <speed>0.0</speed>
  <fix>3d</fix>
</trkpt>
<trkpt lat="-35.1012209" lon="149.3751756">
  <ele>708.22</ele>
  <time>2026-09-01T19:55:47Z</time>
  <course>271.56</course>
  <speed>0.0</speed>
  <fix>3d</fix>
</trkpt>
<trkpt lat="-35.1012209" lon="149.3751756">
  <ele>708.16</ele>
  <time>2026-09-01T19:55:47Z</time>
  <course>92.47</course>
  <speed>0.0</speed>
  <fix>3d</fix>
</trkpt>
<trkpt lat="-35.1012209" lon="149.3751756">
  <ele>708.22</ele>
  <time>2026-09-01T19:55:47Z</time>
  <course>271.56</course>
  <speed>0.0</speed>
  <fix>3d</fix>
</trkpt>
<trkpt lat="-35.1012209" lon="149.3751756">
  <ele>708.11</ele>
  <time>2026-09-01T19:55:47Z</time>
  <course>92.48</course>
  <speed>0.0</speed>
  <fix>3d</fix>
</trkpt>
<trkpt lat="-35.1012209" lon="149.3751756">
  <ele>708.22</ele>
  <time>2026-09-01T19:55:47Z</time>
  <course>271.56</course>
  <speed>0.0</speed>
  <fix>3d</fix>
</trkpt>
<trkpt lat="-35.1012209" lon="149.3751756">
  <ele>708.11</ele>
  <time>2026-09-01T19:55:47Z</time>
  <course>92.48</course>
  <speed>0.0</speed>
  <fix>3d</fix>
</trkpt>
<trkpt lat="-35.1012209" lon="149.3751756">
  <ele>708.22</ele>
  <time>2026-09-01T19:55:47Z</time>
  <course>271.56</course>
  <speed>0.0</speed>
  <fix>3d</fix>
</trkpt>
<trkpt lat="-35.1012209" lon="149.3751756">
  <ele>708.07</ele>
  <time>2026-09-01T19:55:47Z</time>
  <course>92.48</course>
  <speed>0.0</speed>
  <fix>3d</fix>
</trkpt>
<trkpt lat="-35.1012209" lon="149.3751756">
  <ele>708.22</ele>
  <time>2026-09-01T19:55:47Z</time>
  <course>271.56</course>
  <speed>0.0</speed>
  <fix>3d</fix>
</trkpt>
<trkpt lat="-35.1012209" lon="149.3751756">
  <ele>708.12</ele>
  <time>2026-09-01T19:55:47Z</time>
  <course>92.49</course>
  <speed>0.0</speed>
  <fix>3d</fix>
</trkpt>
<trkpt lat="-35.1012209" lon="149.3751756">
  <ele>708.22</ele>
  <time>2026-09-01T19:55:47Z</time>
  <course>271.56</course>
  <speed>0.0</speed>
  <fix>3d</fix>
</trkpt>
<trkpt lat="-35.1012209" lon="149.3751756">
  <ele>708.13</ele>
  <time>2026-09-01T19:55:47Z</time>
  <course>92.49</course>
  <speed>0.0</speed>
  <fix>3d</fix>
</trkpt>
<trkpt lat="-35.1012209" lon="149.3751756">
  <ele>708.22</ele>
  <time>2026-09-01T19:55:47Z</time>
  <course>271.56</course>
  <speed>0.0</speed>
  <fix>3d</fix>
</trkpt>
<trkpt lat="-35.1012209" lon="149.3751756">
  <ele>707.91</ele>
  <time>2026-09-01T19:55:47Z</time>
  <course>92.49</course>
  <speed>0.0</speed>
  <fix>3d</fix>
</trkpt>
<trkpt lat="-35.1012209" lon="149.3751756">
  <ele>708.22</ele>
  <time>2026-09-01T19:55:47Z</time>
  <course>271.56</course>
  <speed>0.0</speed>
  <fix>3d</fix>
</trkpt>
<trkpt lat="-35.1012209" lon="149.3751756">
  <ele>708.05</ele>
  <time>2026-09-01T19:55:47Z</time>
  <course>92.49</course>
  <speed>0.0</speed>
  <fix>3d</fix>
</trkpt>
<trkpt lat="-35.1012209" lon="149.3751756">
  <ele>708.22</ele>
  <time>2026-09-01T19:55:47Z</time>
  <course>271.56</course>
  <speed>0.0</speed>
  <fix>3d</fix>
</trkpt>
<trkpt lat="-35.1012209" lon="149.3751756">
  <ele>707.83</ele>
  <time>2026-09-01T19:55:47Z</time>
  <course>92.5</course>
  <speed>0.0</speed>
  <fix>3d</fix>
</trkpt>
<trkpt lat="-35.1012209" lon="149.3751756">
  <ele>708.22</ele>
  <time>2026-09-01T19:55:47Z</time>
  <course>271.56</course>
  <speed>0.0</speed>
  <fix>3d</fix>
</trkpt>
<trkpt lat="-35.1012209" lon="149.3751756">
  <ele>708.1</ele>
  <time>2026-09-01T19:55:47Z</time>
  <course>92.5</course>
  <speed>0.0</speed>
  <fix>3d</fix>
</trkpt>
<trkpt lat="-35.1012209" lon="149.3751756">
  <ele>708.22</ele>
  <time>2026-09-01T19:55:47Z</time>
  <course>271.56</course>
  <speed>0.0</speed>
  <fix>3d</fix>
</trkpt>
<trkpt lat="-35.1012209" lon="149.3751756">
  <ele>708.01</ele>
  <time>2026-09-01T19:55:47Z</time>
  <course>92.5</course>
  <speed>0.0</speed>
  <fix>3d</fix>
</trkpt>
<trkpt lat="-35.1012209" lon="149.3751756">
  <ele>708.22</ele>
  <time>2026-09-01T19:55:47Z</time>
  <course>271.56</course>
  <speed>0.0</speed>
  <fix>3d</fix>
</trkpt>
<trkpt lat="-35.1012209" lon="149.3751756">
  <ele>708.09</ele>
  <time>2026-09-01T19:55:47Z</time>
  <course>92.51</course>
  <speed>0.0</speed>
  <fix>3d</fix>
</trkpt>
<trkpt lat="-35.1012209" lon="149.3751756">
  <ele>708.22</ele>
  <time>2026-09-01T19:55:47Z</time>
  <course>271.56</course>
  <speed>0.0</speed>
  <fix>3d</fix>
</trkpt>
<trkpt lat="-35.1012209" lon="149.3751756">
  <ele>707.83</ele>
  <time>2026-09-01T19:55:47Z</time>
  <course>92.51</course>
  <speed>0.0</speed>
  <fix>3d</fix>
</trkpt>
<trkpt lat="-35.1012209" lon="149.3751756">
  <ele>708.22</ele>
  <time>2026-09-01T19:55:47Z</time>
  <course>271.56</course>
  <speed>0.0</speed>
  <fix>3d</fix>
</trkpt>
<trkpt lat="-35.1012209" lon="149.3751756">
  <ele>708.09</ele>
  <time>2026-09-01T19:55:47Z</time>
  <course>92.51</course>
  <speed>0.0</speed>
  <fix>3d</fix>
</trkpt>
<trkpt lat="-35.1012209" lon="149.3751756">
  <ele>708.22</ele>
  <time>2026-09-01T19:55:47Z</time>
  <course>271.56</course>
  <speed>0.0</speed>
  <fix>3d</fix>
</trkpt>
<trkpt lat="-35.1012209" lon="149.3751756">
  <ele>708.12</ele>
  <time>2026-09-01T19:55:47Z</time>
  <course>92.51</course>
  <speed>0.0</speed>
  <fix>3d</fix>
</trkpt>
<trkpt lat="-35.1012209" lon="149.3751756">
  <ele>708.22</ele>
  <time>2026-09-01T19:55:47Z</time>
  <course>271.56</course>
  <speed>0.0</speed>
  <fix>3d</fix>
</trkpt>
<trkpt lat="-35.1012209" lon="149.3751756">
  <ele>708.1</ele>
  <time>2026-09-01T19:55:47Z</time>
  <course>92.52</course>
  <speed>0.0</speed>
  <fix>3d</fix>
</trkpt>
<trkpt lat="-35.1012209" lon="149.3751756">
  <ele>708.22</ele>
  <time>2026-09-01T19:55:47Z</time>
  <course>271.56</course>
  <speed>0.0</speed>
  <fix>3d</fix>
</trkpt>
<trkpt lat="-35.1012209" lon="149.3751756">
  <ele>708.2</ele>
  <time>2026-09-01T19:55:47Z</time>
  <course>92.52</course>
  <speed>0.0</speed>
  <fix>3d</fix>
</trkpt>
<trkpt lat="-35.1012209" lon="149.3751756">
  <ele>708.22</ele>
  <time>2026-09-01T19:55:47Z</time>
  <course>271.56</course>
  <speed>0.0</speed>
  <fix>3d</fix>
</trkpt>
<trkpt lat="-35.1012209" lon="149.3751756">
  <ele>707.94</ele>
  <time>2026-09-01T19:55:47Z</time>
  <course>92.52</course>
  <speed>0.0</speed>
  <fix>3d</fix>
</trkpt>
<trkpt lat="-35.1012209" lon="149.3751756">
  <ele>708.22</ele>
  <time>2026-09-01T19:55:47Z</time>
  <course>271.56</course>
  <speed>0.0</speed>
  <fix>3d</fix>
</trkpt>
<trkpt lat="-35.1012209" lon="149.3751756">
  <ele>707.9</ele>
  <time>2026-09-01T19:55:47Z</time>
  <course>92.52</course>
  <speed>0.0</speed>
  <fix>3d</fix>
</trkpt>
<trkpt lat="-35.1012209" lon="149.3751756">
  <ele>708.22</ele>
  <time>2026-09-01T19:55:47Z</time>
  <course>271.56</course>
  <speed>0.0</speed>
  <fix>3d</fix>
</trkpt>
<trkpt lat="-35.1012209" lon="149.3751756">
  <ele>708.1</ele>
  <time>2026-09-01T19:55:47Z</time>
  <course>92.53</course>
  <speed>0.0</speed>
  <fix>3d</fix>
</trkpt>
<trkpt lat="-35.1012209" lon="149.3751756">
  <ele>708.22</ele>
  <time>2026-09-01T19:55:47Z</time>
  <course>271.56</course>
  <speed>0.0</speed>
  <fix>3d</fix>
</trkpt>
<trkpt lat="-35.1012209" lon="149.3751756">
  <ele>708.02</ele>
  <time>2026-09-01T19:55:47Z</time>
  <course>92.53</course>
  <speed>0.0</speed>
  <fix>3d</fix>
</trkpt>
<trkpt lat="-35.1012209" lon="149.3751756">
  <ele>708.22</ele>
  <time>2026-09-01T19:55:47Z</time>
  <course>271.56</course>
  <speed>0.0</speed>
  <fix>3d</fix>
</trkpt>
<trkpt lat="-35.1012209" lon="149.3751756">
  <ele>708.12</ele>
  <time>2026-09-01T19:55:47Z</time>
  <course>92.53</course>
  <speed>0.0</speed>
  <fix>3d</fix>
</trkpt>
<trkpt lat="-35.1012209" lon="149.3751756">
  <ele>708.22</ele>
  <time>2026-09-01T19:55:47Z</time>
  <course>271.56</course>
  <speed>0.0</speed>
  <fix>3d</fix>
</trkpt>
<trkpt lat="-35.1012209" lon="149.3751756">
  <ele>708.02</ele>
  <time>2026-09-01T19:55:47Z</time>
  <course>92.53</course>
  <speed>0.0</speed>
  <fix>3d</fix>
</trkpt>
<trkpt lat="-35.1012209" lon="149.3751756">
  <ele>708.22</ele>
  <time>2026-09-01T19:55:47Z</time>
  <course>271.56</course>
  <speed>0.0</speed>
  <fix>3d</fix>
</trkpt>
<trkpt lat="-35.1012209" lon="149.3751756">
  <ele>708.02</ele>
  <time>2026-09-01T19:55:47Z</time>
  <course>92.54</course>
  <speed>0.0</speed>
  <fix>3d</fix>
</trkpt>
<trkpt lat="-35.1012209" lon="149.3751756">
  <ele>708.22</ele>
  <time>2026-09-01T19:55:47Z</time>
  <course>271.56</course>
  <speed>0.0</speed>
  <fix>3d</fix>
</trkpt>
<trkpt lat="-35.1012209" lon="149.3751756">
  <ele>707.95</ele>
  <time>2026-09-01T19:55:47Z</time>
  <course>92.54</course>
  <speed>0.0</speed>
  <fix>3d</fix>
</trkpt>
<trkpt lat="-35.1012209" lon="149.3751756">
  <ele>708.22</ele>
  <time>2026-09-01T19:55:47Z</time>
  <course>271.56</course>
  <speed>0.0</speed>
  <fix>3d</fix>
</trkpt>
<trkpt lat="-35.1012209" lon="149.3751756">
  <ele>707.86</ele>
  <time>2026-09-01T19:55:47Z</time>
  <course>92.54</course>
  <speed>0.0</speed>
  <fix>3d</fix>
</trkpt>
<trkpt lat="-35.1012209" lon="149.3751756">
  <ele>708.22</ele>
  <time>2026-09-01T19:55:47Z</time>
  <course>271.56</course>
  <speed>0.0</speed>
  <fix>3d</fix>
</trkpt>
<trkpt lat="-35.1012209" lon="149.3751756">
  <ele>708.01</ele>
  <time>2026-09-01T19:55:47Z</time>
  <course>92.54</course>
  <speed>0.0</speed>
  <fix>3d</fix>
</trkpt>
<trkpt lat="-35.1012209" lon="149.3751756">
  <ele>708.22</ele>
  <time>2026-09-01T19:55:47Z</time>
  <course>271.56</course>
  <speed>0.0</speed>
  <fix>3d</fix>
</trkpt>
<trkpt lat="-35.1012209" lon="149.3751756">
  <ele>707.99</ele>
  <time>2026-09-01T19:55:47Z</time>
  <course>92.55</course>
  <speed>0.0</speed>
  <fix>3d</fix>
</trkpt>
<trkpt lat="-35.1012209" lon="149.3751756">
  <ele>708.22</ele>
  <time>2026-09-01T19:55:47Z</time>
  <course>271.56</course>
  <speed>0.0</speed>
  <fix>3d</fix>
</trkpt>
<trkpt lat="-35.1012209" lon="149.3751756">
  <ele>708.03</ele>
  <time>2026-09-01T19:55:47Z</time>
  <course>92.55</course>
  <speed>0.0</speed>
  <fix>3d</fix>
</trkpt>
<trkpt lat="-35.1012209" lon="149.3751756">
  <ele>708.22</ele>
  <time>2026-09-01T19:55:47Z</time>
  <course>271.56</course>
  <speed>0.0</speed>
  <fix>3d</fix>
</trkpt>
<trkpt lat="-35.1012209" lon="149.3751756">
  <ele>708.13</ele>
  <time>2026-09-01T19:55:47Z</time>
  <course>92.55</course>
  <speed>0.0</speed>
  <fix>3d</fix>
</trkpt>
<trkpt lat="-35.1012209" lon="149.3751756">
  <ele>708.22</ele>
  <time>2026-09-01T19:55:47Z</time>
  <course>271.56</course>
  <speed>0.0</speed>
  <fix>3d</fix>
</trkpt>
<trkpt lat="-35.1012209" lon="149.3751756">
  <ele>708.02</ele>
  <time>2026-09-01T19:55:47Z</time>
  <course>92.55</course>
  <speed>0.0</speed>
  <fix>3d</fix>
</trkpt>
<trkpt lat="-35.1012209" lon="149.3751756">
  <ele>708.22</ele>
  <time>2026-09-01T19:55:47Z</time>
  <course>271.56</course>
  <speed>0.0</speed>
  <fix>3d</fix>
</trkpt>
<trkpt lat="-35.1012209" lon="149.3751756">
  <ele>707.84</ele>
  <time>2026-09-01T19:55:47Z</time>
  <course>92.55</course>
  <speed>0.0</speed>
  <fix>3d</fix>
</trkpt>
<trkpt lat="-35.1012209" lon="149.3751756">
  <ele>708.22</ele>
  <time>2026-09-01T19:55:47Z</time>
  <course>271.56</course>
  <speed>0.0</speed>
  <fix>3d</fix>
</trkpt>
<trkpt lat="-35.1012209" lon="149.3751756">
  <ele>708.16</ele>
  <time>2026-09-01T19:55:47Z</time>
  <course>92.55</course>
  <speed>0.0</speed>
  <fix>3d</fix>
</trkpt>
<trkpt lat="-35.1012209" lon="149.3751756">
  <ele>708.22</ele>
  <time>2026-09-01T19:55:47Z</time>
  <course>271.56</course>
  <speed>0.0</speed>
  <fix>3d</fix>
</trkpt>
<trkpt lat="-35.1012209" lon="149.3751756">
  <ele>708.12</ele>
  <time>2026-09-01T19:55:47Z</time>
  <course>92.55</course>
  <speed>0.0</speed>
  <fix>3d</fix>
</trkpt>
<trkpt lat="-35.1012209" lon="149.3751756">
  <ele>708.22</ele>
  <time>2026-09-01T19:55:47Z</time>
  <course>271.56</course>
  <speed>0.0</speed>
  <fix>3d</fix>
</trkpt>
<trkpt lat="-35.1012209" lon="149.3751756">
  <ele>707.91</ele>
  <time>2026-09-01T19:55:47Z</time>
  <course>92.55</course>
  <speed>0.0</speed>
  <fix>3d</fix>
</trkpt>
<trkpt lat="-35.1012209" lon="149.3751756">
  <ele>708.22</ele>
  <time>2026-09-01T19:55:47Z</time>
  <course>271.56</course>
  <speed>0.0</speed>
  <fix>3d</fix>
</trkpt>
<trkpt lat="-35.1012209" lon="149.3751756">
  <ele>707.97</ele>
  <time>2026-09-01T19:55:47Z</time>
  <course>92.55</course>
  <speed>0.0</speed>
  <fix>3d</fix>
</trkpt>
<trkpt lat="-35.1012209" lon="149.3751756">
  <ele>708.22</ele>
  <time>2026-09-01T19:55:47Z</time>
  <course>271.56</course>
  <speed>0.0</speed>
  <fix>3d</fix>
</trkpt>
<trkpt lat="-35.1012209" lon="149.3751756">
  <ele>708.09</ele>
  <time>2026-09-01T19:55:47Z</time>
  <course>92.55</course>
  <speed>0.0</speed>
  <fix>3d</fix>
</trkpt>
<trkpt lat="-35.1012209" lon="149.3751756">
  <ele>708.22</ele>
  <time>2026-09-01T19:55:47Z</time>
  <course>271.56</course>
  <speed>0.0</speed>
  <fix>3d</fix>
</trkpt>
<trkpt lat="-35.1012209" lon="149.3751756">
  <ele>707.94</ele>
  <time>2026-09-01T19:55:47Z</time>
  <course>92.55</course>
  <speed>0.0</speed>
  <fix>3d</fix>
</trkpt>
<trkpt lat="-35.1012209" lon="149.3751756">
  <ele>708.22</ele>
  <time>2026-09-01T19:55:47Z</time>
  <course>271.56</course>
  <speed>0.0</speed>
  <fix>3d</fix>
</trkpt>
<trkpt lat="-35.1012209" lon="149.3751756">
  <ele>707.87</ele>
  <time>2026-09-01T19:55:47Z</time>
  <course>92.55</course>
  <speed>0.0</speed>
  <fix>3d</fix>
</trkpt>
<trkpt lat="-35.1012209" lon="149.3751756">
  <ele>708.22</ele>
  <time>2026-09-01T19:55:47Z</time>
  <course>271.56</course>
  <speed>0.0</speed>
  <fix>3d</fix>
</trkpt>
<trkpt lat="-35.1012209" lon="149.3751756">
  <ele>708.2</ele>
  <time>2026-09-01T19:55:47Z</time>
  <course>92.55</course>
  <speed>0.0</speed>
  <fix>3d</fix>
</trkpt>
<trkpt lat="-35.1012209" lon="149.3751756">
  <ele>708.22</ele>
  <time>2026-09-01T19:55:47Z</time>
  <course>271.56</course>
  <speed>0.0</speed>
  <fix>3d</fix>
</trkpt>
<trkpt lat="-35.1012209" lon="149.3751756">
  <ele>708.16</ele>
  <time>2026-09-01T19:55:47Z</time>
  <course>92.55</course>
  <speed>0.0</speed>
  <fix>3d</fix>
</trkpt>
<trkpt lat="-35.1012209" lon="149.3751756">
  <ele>708.22</ele>
  <time>2026-09-01T19:55:47Z</time>
  <course>271.56</course>
  <speed>0.0</speed>
  <fix>3d</fix>
</trkpt>
<trkpt lat="-35.1012209" lon="149.3751756">
  <ele>708.06</ele>
  <time>2026-09-01T19:55:47Z</time>
  <course>92.55</course>
  <speed>0.0</speed>
  <fix>3d</fix>
</trkpt>
<trkpt lat="-35.1012209" lon="149.3751756">
  <ele>708.22</ele>
  <time>2026-09-01T19:55:47Z</time>
  <course>271.56</course>
  <speed>0.0</speed>
  <fix>3d</fix>
</trkpt>
<trkpt lat="-35.1012209" lon="149.3751756">
  <ele>708.06</ele>
  <time>2026-09-01T19:55:47Z</time>
  <course>92.56</course>
  <speed>0.0</speed>
  <fix>3d</fix>
</trkpt>
<trkpt lat="-35.1012209" lon="149.3751756">
  <ele>708.22</ele>
  <time>2026-09-01T19:55:47Z</time>
  <course>271.56</course>
  <speed>0.0</speed>
  <fix>3d</fix>
</trkpt>
<trkpt lat="-35.1012209" lon="149.3751756">
  <ele>708.19</ele>
  <time>2026-09-01T19:55:47Z</time>
  <course>92.56</course>
  <speed>0.0</speed>
  <fix>3d</fix>
</trkpt>
<trkpt lat="-35.1012209" lon="149.3751756">
  <ele>708.22</ele>
  <time>2026-09-01T19:55:47Z</time>
  <course>271.56</course>
  <speed>0.0</speed>
  <fix>3d</fix>
</trkpt>
<trkpt lat="-35.1012209" lon="149.3751756">
  <ele>707.97</ele>
  <time>2026-09-01T19:55:47Z</time>
  <course>92.56</course>
  <speed>0.0</speed>
  <fix>3d</fix>
</trkpt>
<trkpt lat="-35.1012209" lon="149.3751756">
  <ele>708.22</ele>
  <time>2026-09-01T19:55:47Z</time>
  <course>271.56</course>
  <speed>0.0</speed>
  <fix>3d</fix>
</trkpt>
<trkpt lat="-35.1012209" lon="149.3751756">
  <ele>707.99</ele>
  <time>2026-09-01T19:55:47Z</time>
  <course>92.56</course>
  <speed>0.0</speed>
  <fix>3d</fix>
</trkpt>
<trkpt lat="-35.1012209" lon="149.3751756">
  <ele>708.22</ele>
  <time>2026-09-01T19:55:47Z</time>
  <course>271.56</course>
  <speed>0.0</speed>
  <fix>3d</fix>
</trkpt>
<trkpt lat="-35.1012209" lon="149.3751756">
  <ele>707.95</ele>
  <time>2026-09-01T19:55:47Z</time>
  <course>92.56</course>
  <speed>0.0</speed>
  <fix>3d</fix>
</trkpt>
<trkpt lat="-35.1012209" lon="149.3751756">
  <ele>708.22</ele>
  <time>2026-09-01T19:55:47Z</time>
  <course>271.56</course>
  <speed>0.0</speed>
  <fix>3d</fix>
</trkpt>
<trkpt lat="-35.1012209" lon="149.3751756">
  <ele>708.26</ele>
  <time>2026-09-01T19:55:47Z</time>
  <course>92.56</course>
  <speed>0.0</speed>
  <fix>3d</fix>
</trkpt>
<trkpt lat="-35.1012209" lon="149.3751756">
  <ele>708.22</ele>
  <time>2026-09-01T19:55:47Z</time>
  <course>271.56</course>
  <speed>0.0</speed>
  <fix>3d</fix>
</trkpt>
<trkpt lat="-35.1012209" lon="149.3751756">
  <ele>708.15</ele>
  <time>2026-09-01T19:55:47Z</time>
  <course>92.56</course>
  <speed>0.0</speed>
  <fix>3d</fix>
</trkpt>
<trkpt lat="-35.1012209" lon="149.3751756">
  <ele>708.22</ele>
  <time>2026-09-01T19:55:47Z</time>
  <course>271.56</course>
  <speed>0.0</speed>
  <fix>3d</fix>
</trkpt>
<trkpt lat="-35.1012209" lon="149.3751756">
  <ele>707.93</ele>
  <time>2026-09-01T19:55:47Z</time>
  <course>92.56</course>
  <speed>0.0</speed>
  <fix>3d</fix>
</trkpt>
<trkpt lat="-35.1012209" lon="149.3751756">
  <ele>708.22</ele>
  <time>2026-09-01T19:55:47Z</time>
  <course>271.56</course>
  <speed>0.0</speed>
  <fix>3d</fix>
</trkpt>
<trkpt lat="-35.1012209" lon="149.3751756">
  <ele>708.05</ele>
  <time>2026-09-01T19:55:47Z</time>
  <course>92.56</course>
  <speed>0.0</speed>
  <fix>3d</fix>
</trkpt>
<trkpt lat="-35.1012209" lon="149.3751756">
  <ele>708.22</ele>
  <time>2026-09-01T19:55:47Z</time>
  <course>271.56</course>
  <speed>0.0</speed>
  <fix>3d</fix>
</trkpt>
<trkpt lat="-35.1012209" lon="149.3751756">
  <ele>707.94</ele>
  <time>2026-09-01T19:55:47Z</time>
  <course>92.56</course>
  <speed>0.0</speed>
  <fix>3d</fix>
</trkpt>
<trkpt lat="-35.1012209" lon="149.3751756">
  <ele>708.22</ele>
  <time>2026-09-01T19:55:47Z</time>
  <course>271.56</course>
  <speed>0.0</speed>
  <fix>3d</fix>
</trkpt>
<trkpt lat="-35.1012209" lon="149.3751756">
  <ele>707.95</ele>
  <time>2026-09-01T19:55:47Z</time>
  <course>92.56</course>
  <speed>0.0</speed>
  <fix>3d</fix>
</trkpt>
<trkpt lat="-35.1012209" lon="149.3751756">
  <ele>708.22</ele>
  <time>2026-09-01T19:55:47Z</time>
  <course>271.56</course>
  <speed>0.0</speed>
  <fix>3d</fix>
</trkpt>
<trkpt lat="-35.1012209" lon="149.3751756">
  <ele>708.02</ele>
  <time>2026-09-01T19:55:47Z</time>
  <course>92.56</course>
  <speed>0.0</speed>
  <fix>3d</fix>
</trkpt>
<trkpt lat="-35.1012209" lon="149.3751756">
  <ele>708.22</ele>
  <time>2026-09-01T19:55:47Z</time>
  <course>271.56</course>
  <speed>0.0</speed>
  <fix>3d</fix>
</trkpt>
<trkpt lat="-35.1012209" lon="149.3751756">
  <ele>707.95</ele>
  <time>2026-09-01T19:55:47Z</time>
  <course>92.56</course>
  <speed>0.0</speed>
  <fix>3d</fix>
</trkpt>
<trkpt lat="-35.1012209" lon="149.3751756">
  <ele>708.22</ele>
  <time>2026-09-01T19:55:47Z</time>
  <course>271.56</course>
  <speed>0.0</speed>
  <fix>3d</fix>
</trkpt>
<trkpt lat="-35.1012209" lon="149.3751756">
  <ele>708.16</ele>
  <time>2026-09-01T19:55:47Z</time>
  <course>92.56</course>
  <speed>0.0</speed>
  <fix>3d</fix>
</trkpt>
<trkpt lat="-35.1012209" lon="149.3751756">
  <ele>708.22</ele>
  <time>2026-09-01T19:55:47Z</time>
  <course>271.56</course>
  <speed>0.0</speed>
  <fix>3d</fix>
</trkpt>
<trkpt lat="-35.1012209" lon="149.3751756">
  <ele>708.11</ele>
  <time>2026-09-01T19:55:47Z</time>
  <course>92.56</course>
  <speed>0.0</speed>
  <fix>3d</fix>
</trkpt>
<trkpt lat="-35.1012209" lon="149.3751756">
  <ele>708.22</ele>
  <time>2026-09-01T19:55:47Z</time>
  <course>271.56</course>
  <speed>0.0</speed>
  <fix>3d</fix>
</trkpt>
<trkpt lat="-35.1012209" lon="149.3751756">
  <ele>708.11</ele>
  <time>2026-09-01T19:55:47Z</time>
  <course>92.56</course>
  <speed>0.0</speed>
  <fix>3d</fix>
</trkpt>
<trkpt lat="-35.1012209" lon="149.3751756">
  <ele>708.22</ele>
  <time>2026-09-01T19:55:47Z</time>
  <course>271.56</course>
  <speed>0.0</speed>
  <fix>3d</fix>
</trkpt>
<trkpt lat="-35.1012209" lon="149.3751756">
  <ele>708.1</ele>
  <time>2026-09-01T19:55:47Z</time>
  <course>92.56</course>
  <speed>0.0</speed>
  <fix>3d</fix>
</trkpt>
<trkpt lat="-35.1012209" lon="149.3751756">
  <ele>708.22</ele>
  <time>2026-09-01T19:55:47Z</time>
  <course>271.56</course>
  <speed>0.0</speed>
  <fix>3d</fix>
</trkpt>
<trkpt lat="-35.1012209" lon="149.3751756">
  <ele>708.02</ele>
  <time>2026-09-01T19:55:47Z</time>
  <course>92.56</course>
  <speed>0.0</speed>
  <fix>3d</fix>
</trkpt>
<trkpt lat="-35.1012209" lon="149.3751756">
  <ele>708.22</ele>
  <time>2026-09-01T19:55:47Z</time>
  <course>271.56</course>
  <speed>0.0</speed>
  <fix>3d</fix>
</trkpt>
<trkpt lat="-35.1012209" lon="149.3751756">
  <ele>708.15</ele>
  <time>2026-09-01T19:55:47Z</time>
  <course>92.56</course>
  <speed>0.0</speed>
  <fix>3d</fix>
</trkpt>
<trkpt lat="-35.1012209" lon="149.3751756">
  <ele>708.22</ele>
  <time>2026-09-01T19:55:47Z</time>
  <course>271.56</course>
  <speed>0.0</speed>
  <fix>3d</fix>
</trkpt>
<trkpt lat="-35.1012209" lon="149.3751756">
  <ele>708.23</ele>
  <time>2026-09-01T19:55:47Z</time>
  <course>92.56</course>
  <speed>0.0</speed>
  <fix>3d</fix>
</trkpt>
<trkpt lat="-35.1012209" lon="149.3751756">
  <ele>708.22</ele>
  <time>2026-09-01T19:55:47Z</time>
  <course>271.56</course>
  <speed>0.0</speed>
  <fix>3d</fix>
</trkpt>
<trkpt lat="-35.1012209" lon="149.3751756">
  <ele>708.11</ele>
  <time>2026-09-01T19:55:47Z</time>
  <course>92.56</course>
  <speed>0.0</speed>
  <fix>3d</fix>
</trkpt>
<trkpt lat="-35.1012209" lon="149.3751756">
  <ele>708.22</ele>
  <time>2026-09-01T19:55:47Z</time>
  <course>271.56</course>
  <speed>0.0</speed>
  <fix>3d</fix>
</trkpt>
<trkpt lat="-35.1012209" lon="149.3751756">
  <ele>708.18</ele>
  <time>2026-09-01T19:55:47Z</time>
  <course>92.56</course>
  <speed>0.0</speed>
  <fix>3d</fix>
</trkpt>
<trkpt lat="-35.1012209" lon="149.3751756">
  <ele>708.22</ele>
  <time>2026-09-01T19:55:47Z</time>
  <course>271.56</course>
  <speed>0.0</speed>
  <fix>3d</fix>
</trkpt>
<trkpt lat="-35.1012209" lon="149.3751756">
  <ele>708.02</ele>
  <time>2026-09-01T19:55:47Z</time>
  <course>92.56</course>
  <speed>0.0</speed>
  <fix>3d</fix>
</trkpt>
<trkpt lat="-35.1012209" lon="149.3751756">
  <ele>708.22</ele>
  <time>2026-09-01T19:55:47Z</time>
  <course>271.56</course>
  <speed>0.0</speed>
  <fix>3d</fix>
</trkpt>
<trkpt lat="-35.1012209" lon="149.3751756">
  <ele>707.91</ele>
  <time>2026-09-01T19:55:47Z</time>
  <course>92.56</course>
  <speed>0.0</speed>
  <fix>3d</fix>
</trkpt>
<trkpt lat="-35.1012209" lon="149.3751756">
  <ele>708.22</ele>
  <time>2026-09-01T19:55:47Z</time>
  <course>271.56</course>
  <speed>0.0</speed>
  <fix>3d</fix>
</trkpt>
<trkpt lat="-35.1012209" lon="149.3751756">
  <ele>708.19</ele>
  <time>2026-09-01T19:55:47Z</time>
  <course>92.56</course>
  <speed>0.0</speed>
  <fix>3d</fix>
</trkpt>
<trkpt lat="-35.1012209" lon="149.3751756">
  <ele>708.22</ele>
  <time>2026-09-01T19:55:47Z</time>
  <course>271.56</course>
  <speed>0.0</speed>
  <fix>3d</fix>
</trkpt>
<trkpt lat="-35.1012209" lon="149.3751756">
  <ele>708.11</ele>
  <time>2026-09-01T19:55:47Z</time>
  <course>92.56</course>
  <speed>0.0</speed>
  <fix>3d</fix>
</trkpt>
<trkpt lat="-35.1012209" lon="149.3751756">
  <ele>708.22</ele>
  <time>2026-09-01T19:55:47Z</time>
  <course>271.56</course>
  <speed>0.0</speed>
  <fix>3d</fix>
</trkpt>
<trkpt lat="-35.1012209" lon="149.3751756">
  <ele>708.07</ele>
  <time>2026-09-01T19:55:47Z</time>
  <course>92.57</course>
  <speed>0.0</speed>
  <fix>3d</fix>
</trkpt>
<trkpt lat="-35.1012209" lon="149.3751756">
  <ele>708.22</ele>
  <time>2026-09-01T19:55:47Z</time>
  <course>271.56</course>
  <speed>0.0</speed>
  <fix>3d</fix>
</trkpt>
<trkpt lat="-35.1012209" lon="149.3751756">
  <ele>707.92</ele>
  <time>2026-09-01T19:55:47Z</time>
  <course>92.57</course>
  <speed>0.0</speed>
  <fix>3d</fix>
</trkpt>
<trkpt lat="-35.1012209" lon="149.3751756">
  <ele>708.22</ele>
  <time>2026-09-01T19:55:47Z</time>
  <course>271.56</course>
  <speed>0.0</speed>
  <fix>3d</fix>
</trkpt>
<trkpt lat="-35.1012209" lon="149.3751756">
  <ele>708.14</ele>
  <time>2026-09-01T19:55:47Z</time>
  <course>92.57</course>
  <speed>0.0</speed>
  <fix>3d</fix>
</trkpt>
<trkpt lat="-35.1012209" lon="149.3751756">
  <ele>708.22</ele>
  <time>2026-09-01T19:55:47Z</time>
  <course>271.56</course>
  <speed>0.0</speed>
  <fix>3d</fix>
</trkpt>
<trkpt lat="-35.1012209" lon="149.3751756">
  <ele>707.89</ele>
  <time>2026-09-01T19:55:47Z</time>
  <course>92.57</course>
  <speed>0.0</speed>
  <fix>3d</fix>
</trkpt>
<trkpt lat="-35.1012209" lon="149.3751756">
  <ele>708.22</ele>
  <time>2026-09-01T19:55:47Z</time>
  <course>271.56</course>
  <speed>0.0</speed>
  <fix>3d</fix>
</trkpt>
<trkpt lat="-35.1012209" lon="149.3751756">
  <ele>707.93</ele>
  <time>2026-09-01T19:55:47Z</time>
  <course>92.57</course>
  <speed>0.0</speed>
  <fix>3d</fix>
</trkpt>
<trkpt lat="-35.1012209" lon="149.3751756">
  <ele>708.22</ele>
  <time>2026-09-01T19:55:47Z</time>
  <course>271.56</course>
  <speed>0.0</speed>
  <fix>3d</fix>
</trkpt>
<trkpt lat="-35.1012209" lon="149.3751756">
  <ele>707.97</ele>
  <time>2026-09-01T19:55:47Z</time>
  <course>92.57</course>
  <speed>0.0</speed>
  <fix>3d</fix>
</trkpt>
<trkpt lat="-35.1012209" lon="149.3751756">
  <ele>708.22</ele>
  <time>2026-09-01T19:55:47Z</time>
  <course>271.56</course>
  <speed>0.0</speed>
  <fix>3d</fix>
</trkpt>
<trkpt lat="-35.1012209" lon="149.3751756">
  <ele>707.89</ele>
  <time>2026-09-01T19:55:47Z</time>
  <course>92.57</course>
  <speed>0.0</speed>
  <fix>3d</fix>
</trkpt>
<trkpt lat="-35.1012209" lon="149.3751756">
  <ele>708.22</ele>
  <time>2026-09-01T19:55:47Z</time>
  <course>271.56</course>
  <speed>0.0</speed>
  <fix>3d</fix>
</trkpt>
<trkpt lat="-35.1012209" lon="149.3751756">
  <ele>707.91</ele>
  <time>2026-09-01T19:55:47Z</time>
  <course>92.57</course>
  <speed>0.0</speed>
  <fix>3d</fix>
</trkpt>
<trkpt lat="-35.1012209" lon="149.3751756">
  <ele>708.22</ele>
  <time>2026-09-01T19:55:47Z</time>
  <course>271.56</course>
  <speed>0.0</speed>
  <fix>3d</fix>
</trkpt>
<trkpt lat="-35.1012209" lon="149.3751756">
  <ele>708.02</ele>
  <time>2026-09-01T19:55:47Z</time>
  <course>92.57</course>
  <speed>0.0</speed>
  <fix>3d</fix>
</trkpt>
<trkpt lat="-35.1012209" lon="149.3751756">
  <ele>708.22</ele>
  <time>2026-09-01T19:55:47Z</time>
  <course>271.56</course>
  <speed>0.0</speed>
  <fix>3d</fix>
</trkpt>
<trkpt lat="-35.1012209" lon="149.3751756">
  <ele>708.11</ele>
  <time>2026-09-01T19:55:47Z</time>
  <course>92.57</course>
  <speed>0.0</speed>
  <fix>3d</fix>
</trkpt>
<trkpt lat="-35.1012209" lon="149.3751756">
  <ele>708.22</ele>
  <time>2026-09-01T19:55:47Z</time>
  <course>271.56</course>
  <speed>0.0</speed>
  <fix>3d</fix>
</trkpt>
<trkpt lat="-35.1012209" lon="149.3751756">
  <ele>707.89</ele>
  <time>2026-09-01T19:55:47Z</time>
  <course>92.57</course>
  <speed>0.0</speed>
  <fix>3d</fix>
</trkpt>
<trkpt lat="-35.1012209" lon="149.3751756">
  <ele>708.22</ele>
  <time>2026-09-01T19:55:47Z</time>
  <course>271.56</course>
  <speed>0.0</speed>
  <fix>3d</fix>
</trkpt>
<trkpt lat="-35.1012209" lon="149.3751756">
  <ele>708.07</ele>
  <time>2026-09-01T19:55:47Z</time>
  <course>92.57</course>
  <speed>0.0</speed>
  <fix>3d</fix>
</trkpt>
<trkpt lat="-35.1012209" lon="149.3751756">
  <ele>708.22</ele>
  <time>2026-09-01T19:55:47Z</time>
  <course>271.56</course>
  <speed>0.0</speed>
  <fix>3d</fix>
</trkpt>
<trkpt lat="-35.1012209" lon="149.3751756">
  <ele>708.16</ele>
  <time>2026-09-01T19:55:47Z</time>
  <course>92.57</course>
  <speed>0.0</speed>
  <fix>3d</fix>
</trkpt>
<trkpt lat="-35.1012209" lon="149.3751756">
  <ele>708.22</ele>
  <time>2026-09-01T19:55:47Z</time>
  <course>271.56</course>
  <speed>0.0</speed>
  <fix>3d</fix>
</trkpt>
<trkpt lat="-35.1012209" lon="149.3751756">
  <ele>707.96</ele>
  <time>2026-09-01T19:55:47Z</time>
  <course>92.57</course>
  <speed>0.0</speed>
  <fix>3d</fix>
</trkpt>
<trkpt lat="-35.1012209" lon="149.3751756">
  <ele>708.22</ele>
  <time>2026-09-01T19:55:47Z</time>
  <course>271.56</course>
  <speed>0.0</speed>
  <fix>3d</fix>
</trkpt>
<trkpt lat="-35.1012209" lon="149.3751756">
  <ele>707.99</ele>
  <time>2026-09-01T19:55:47Z</time>
  <course>92.57</course>
  <speed>0.0</speed>
  <fix>3d</fix>
</trkpt>
<trkpt lat="-35.1012209" lon="149.3751756">
  <ele>708.22</ele>
  <time>2026-09-01T19:55:47Z</time>
  <course>271.56</course>
  <speed>0.0</speed>
  <fix>3d</fix>
</trkpt>
<trkpt lat="-35.1012209" lon="149.3751756">
  <ele>707.88</ele>
  <time>2026-09-01T19:55:47Z</time>
  <course>92.57</course>
  <speed>0.0</speed>
  <fix>3d</fix>
</trkpt>
<trkpt lat="-35.1012209" lon="149.3751756">
  <ele>708.22</ele>
  <time>2026-09-01T19:55:47Z</time>
  <course>271.56</course>
  <speed>0.0</speed>
  <fix>3d</fix>
</trkpt>
<trkpt lat="-35.1012209" lon="149.3751756">
  <ele>708.13</ele>
  <time>2026-09-01T19:55:47Z</time>
  <course>92.57</course>
  <speed>0.0</speed>
  <fix>3d</fix>
</trkpt>
<trkpt lat="-35.1012209" lon="149.3751756">
  <ele>708.22</ele>
  <time>2026-09-01T19:55:47Z</time>
  <course>271.56</course>
  <speed>0.0</speed>
  <fix>3d</fix>
</trkpt>
<trkpt lat="-35.1012209" lon="149.3751756">
  <ele>708.2</ele>
  <time>2026-09-01T19:55:47Z</time>
  <course>92.56</course>
  <speed>0.0</speed>
  <fix>3d</fix>
</trkpt>
<trkpt lat="-35.1012209" lon="149.3751756">
  <ele>708.22</ele>
  <time>2026-09-01T19:55:47Z</time>
  <course>271.56</course>
  <speed>0.0</speed>
  <fix>3d</fix>
</trkpt>
<trkpt lat="-35.1012209" lon="149.3751756">
  <ele>707.94</ele>
  <time>2026-09-01T19:55:47Z</time>
  <course>92.56</course>
  <speed>0.0</speed>
  <fix>3d</fix>
</trkpt>
<trkpt lat="-35.1012209" lon="149.3751756">
  <ele>708.22</ele>
  <time>2026-09-01T19:55:47Z</time>
  <course>271.56</course>
  <speed>0.0</speed>
  <fix>3d</fix>
</trkpt>
<trkpt lat="-35.1012209" lon="149.3751756">
  <ele>708.24</ele>
  <time>2026-09-01T19:55:47Z</time>
  <course>92.56</course>
  <speed>0.0</speed>
  <fix>3d</fix>
</trkpt>
<trkpt lat="-35.1012209" lon="149.3751756">
  <ele>708.22</ele>
  <time>2026-09-01T19:55:47Z</time>
  <course>271.56</course>
  <speed>0.0</speed>
  <fix>3d</fix>
</trkpt>
<trkpt lat="-35.1012209" lon="149.3751756">
  <ele>707.97</ele>
  <time>2026-09-01T19:55:47Z</time>
  <course>92.56</course>
  <speed>0.0</speed>
  <fix>3d</fix>
</trkpt>
<trkpt lat="-35.1012209" lon="149.3751756">
  <ele>708.22</ele>
  <time>2026-09-01T19:55:47Z</time>
  <course>271.56</course>
  <speed>0.0</speed>
  <fix>3d</fix>
</trkpt>
<trkpt lat="-35.1012209" lon="149.3751756">
  <ele>708.14</ele>
  <time>2026-09-01T19:55:47Z</time>
  <course>92.56</course>
  <speed>0.0</speed>
  <fix>3d</fix>
</trkpt>
<trkpt lat="-35.1012209" lon="149.3751756">
  <ele>708.22</ele>
  <time>2026-09-01T19:55:47Z</time>
  <course>271.56</course>
  <speed>0.0</speed>
  <fix>3d</fix>
</trkpt>
<trkpt lat="-35.1012209" lon="149.3751756">
  <ele>708.13</ele>
  <time>2026-09-01T19:55:47Z</time>
  <course>92.56</course>
  <speed>0.0</speed>
  <fix>3d</fix>
</trkpt>
<trkpt lat="-35.1012209" lon="149.3751756">
  <ele>708.22</ele>
  <time>2026-09-01T19:55:47Z</time>
  <course>271.56</course>
  <speed>0.0</speed>
  <fix>3d</fix>
</trkpt>
<trkpt lat="-35.1012209" lon="149.3751756">
  <ele>707.94</ele>
  <time>2026-09-01T19:55:47Z</time>
  <course>92.55</course>
  <speed>0.0</speed>
  <fix>3d</fix>
</trkpt>
<trkpt lat="-35.1012209" lon="149.3751756">
  <ele>708.22</ele>
  <time>2026-09-01T19:55:47Z</time>
  <course>271.56</course>
  <speed>0.0</speed>
  <fix>3d</fix>
</trkpt>
<trkpt lat="-35.1012209" lon="149.3751756">
  <ele>708.18</ele>
  <time>2026-09-01T19:55:47Z</time>
  <course>92.55</course>
  <speed>0.0</speed>
  <fix>3d</fix>
</trkpt>
<trkpt lat="-35.1012209" lon="149.3751756">
  <ele>708.22</ele>
  <time>2026-09-01T19:55:47Z</time>
  <course>271.56</course>
  <speed>0.0</speed>
  <fix>3d</fix>
</trkpt>
<trkpt lat="-35.1012209" lon="149.3751756">
  <ele>708.02</ele>
  <time>2026-09-01T19:55:47Z</time>
  <course>92.55</course>
  <speed>0.0</speed>
  <fix>3d</fix>
</trkpt>
<trkpt lat="-35.1012209" lon="149.3751756">
  <ele>708.22</ele>
  <time>2026-09-01T19:55:47Z</time>
  <course>271.56</course>
  <speed>0.0</speed>
  <fix>3d</fix>
</trkpt>
<trkpt lat="-35.1012209" lon="149.3751756">
  <ele>708.1</ele>
  <time>2026-09-01T19:55:47Z</time>
  <course>92.55</course>
  <speed>0.0</speed>
  <fix>3d</fix>
</trkpt>
<trkpt lat="-35.1012209" lon="149.3751756">
  <ele>708.22</ele>
  <time>2026-09-01T19:55:47Z</time>
  <course>271.56</course>
  <speed>0.0</speed>
  <fix>3d</fix>
</trkpt>
<trkpt lat="-35.1012209" lon="149.3751756">
  <ele>707.96</ele>
  <time>2026-09-01T19:55:47Z</time>
  <course>92.55</course>
  <speed>0.0</speed>
  <fix>3d</fix>
</trkpt>
<trkpt lat="-35.1012209" lon="149.3751756">
  <ele>708.22</ele>
  <time>2026-09-01T19:55:47Z</time>
  <course>271.56</course>
  <speed>0.0</speed>
  <fix>3d</fix>
</trkpt>
<trkpt lat="-35.1012209" lon="149.3751756">
  <ele>708.12</ele>
  <time>2026-09-01T19:55:47Z</time>
  <course>92.55</course>
  <speed>0.0</speed>
  <fix>3d</fix>
</trkpt>
<trkpt lat="-35.1012209" lon="149.3751756">
  <ele>708.22</ele>
  <time>2026-09-01T19:55:47Z</time>
  <course>271.56</course>
  <speed>0.0</speed>
  <fix>3d</fix>
</trkpt>
<trkpt lat="-35.1012209" lon="149.3751756">
  <ele>708.13</ele>
  <time>2026-09-01T19:55:47Z</time>
  <course>92.54</course>
  <speed>0.0</speed>
  <fix>3d</fix>
</trkpt>
<trkpt lat="-35.1012209" lon="149.3751756">
  <ele>708.22</ele>
  <time>2026-09-01T19:55:47Z</time>
  <course>271.56</course>
  <speed>0.0</speed>
  <fix>3d</fix>
</trkpt>
<trkpt lat="-35.1012209" lon="149.3751756">
  <ele>707.89</ele>
  <time>2026-09-01T19:55:47Z</time>
  <course>92.54</course>
  <speed>0.0</speed>
  <fix>3d</fix>
</trkpt>
<trkpt lat="-35.1012209" lon="149.3751756">
  <ele>708.22</ele>
  <time>2026-09-01T19:55:47Z</time>
  <course>271.56</course>
  <speed>0.0</speed>
  <fix>3d</fix>
</trkpt>
<trkpt lat="-35.1012209" lon="149.3751756">
  <ele>708.18</ele>
  <time>2026-09-01T19:55:47Z</time>
  <course>92.54</course>
  <speed>0.0</speed>
  <fix>3d</fix>
</trkpt>
<trkpt lat="-35.1012209" lon="149.3751756">
  <ele>708.22</ele>
  <time>2026-09-01T19:55:47Z</time>
  <course>271.56</course>
  <speed>0.0</speed>
  <fix>3d</fix>
</trkpt>
<trkpt lat="-35.1012209" lon="149.3751756">
  <ele>708.15</ele>
  <time>2026-09-01T19:55:47Z</time>
  <course>92.54</course>
  <speed>0.0</speed>
  <fix>3d</fix>
</trkpt>
<trkpt lat="-35.1012209" lon="149.3751756">
  <ele>708.22</ele>
  <time>2026-09-01T19:55:47Z</time>
  <course>271.56</course>
  <speed>0.0</speed>
  <fix>3d</fix>
</trkpt>
<trkpt lat="-35.1012209" lon="149.3751756">
  <ele>708.26</ele>
  <time>2026-09-01T19:55:47Z</time>
  <course>92.54</course>
  <speed>0.0</speed>
  <fix>3d</fix>
</trkpt>
<trkpt lat="-35.1012209" lon="149.3751756">
  <ele>708.22</ele>
  <time>2026-09-01T19:55:47Z</time>
  <course>271.56</course>
  <speed>0.0</speed>
  <fix>3d</fix>
</trkpt>
<trkpt lat="-35.1012209" lon="149.3751756">
  <ele>708.06</ele>
  <time>2026-09-01T19:55:47Z</time>
  <course>92.54</course>
  <speed>0.0</speed>
  <fix>3d</fix>
</trkpt>
<trkpt lat="-35.1012209" lon="149.3751756">
  <ele>708.22</ele>
  <time>2026-09-01T19:55:47Z</time>
  <course>271.56</course>
  <speed>0.0</speed>
  <fix>3d</fix>
</trkpt>
<trkpt lat="-35.1012209" lon="149.3751756">
  <ele>708.14</ele>
  <time>2026-09-01T19:55:47Z</time>
  <course>92.54</course>
  <speed>0.0</speed>
  <fix>3d</fix>
</trkpt>
<trkpt lat="-35.1012209" lon="149.3751756">
  <ele>708.22</ele>
  <time>2026-09-01T19:55:47Z</time>
  <course>271.56</course>
  <speed>0.0</speed>
  <fix>3d</fix>
</trkpt>
<trkpt lat="-35.1012209" lon="149.3751756">
  <ele>708.23</ele>
  <time>2026-09-01T19:55:47Z</time>
  <course>92.53</course>
  <speed>0.0</speed>
  <fix>3d</fix>
</trkpt>
<trkpt lat="-35.1012209" lon="149.3751756">
  <ele>708.22</ele>
  <time>2026-09-01T19:55:47Z</time>
  <course>271.56</course>
  <speed>0.0</speed>
  <fix>3d</fix>
</trkpt>
<trkpt lat="-35.1012209" lon="149.3751756">
  <ele>708.27</ele>
  <time>2026-09-01T19:55:47Z</time>
  <course>92.53</course>
  <speed>0.0</speed>
  <fix>3d</fix>
</trkpt>
<trkpt lat="-35.1012209" lon="149.3751756">
  <ele>708.22</ele>
  <time>2026-09-01T19:55:47Z</time>
  <course>271.56</course>
  <speed>0.0</speed>
  <fix>3d</fix>
</trkpt>
<trkpt lat="-35.1012209" lon="149.3751756">
  <ele>708.08</ele>
  <time>2026-09-01T19:55:47Z</time>
  <course>92.53</course>
  <speed>0.0</speed>
  <fix>3d</fix>
</trkpt>
<trkpt lat="-35.1012209" lon="149.3751756">
  <ele>708.22</ele>
  <time>2026-09-01T19:55:47Z</time>
  <course>271.56</course>
  <speed>0.0</speed>
  <fix>3d</fix>
</trkpt>
<trkpt lat="-35.1012209" lon="149.3751756">
  <ele>708.25</ele>
  <time>2026-09-01T19:55:47Z</time>
  <course>92.53</course>
  <speed>0.0</speed>
  <fix>3d</fix>
</trkpt>
<trkpt lat="-35.1012209" lon="149.3751756">
  <ele>708.22</ele>
  <time>2026-09-01T19:55:47Z</time>
  <course>271.56</course>
  <speed>0.0</speed>
  <fix>3d</fix>
</trkpt>
<trkpt lat="-35.1012209" lon="149.3751756">
  <ele>707.97</ele>
  <time>2026-09-01T19:55:47Z</time>
  <course>92.53</course>
  <speed>0.0</speed>
  <fix>3d</fix>
</trkpt>
<trkpt lat="-35.1012209" lon="149.3751756">
  <ele>708.22</ele>
  <time>2026-09-01T19:55:47Z</time>
  <course>271.56</course>
  <speed>0.0</speed>
  <fix>3d</fix>
</trkpt>
<trkpt lat="-35.1012209" lon="149.3751756">
  <ele>708.03</ele>
  <time>2026-09-01T19:55:47Z</time>
  <course>92.53</course>
  <speed>0.0</speed>
  <fix>3d</fix>
</trkpt>
<trkpt lat="-35.1012209" lon="149.3751756">
  <ele>708.22</ele>
  <time>2026-09-01T19:55:47Z</time>
  <course>271.56</course>
  <speed>0.0</speed>
  <fix>3d</fix>
</trkpt>
<trkpt lat="-35.1012209" lon="149.3751756">
  <ele>708.23</ele>
  <time>2026-09-01T19:55:47Z</time>
  <course>92.53</course>
  <speed>0.0</speed>
  <fix>3d</fix>
</trkpt>
<trkpt lat="-35.1012209" lon="149.3751756">
  <ele>708.22</ele>
  <time>2026-09-01T19:55:47Z</time>
  <course>271.56</course>
  <speed>0.0</speed>
  <fix>3d</fix>
</trkpt>
<trkpt lat="-35.1012209" lon="149.3751756">
  <ele>708.14</ele>
  <time>2026-09-01T19:55:47Z</time>
  <course>92.53</course>
  <speed>0.0</speed>
  <fix>3d</fix>
</trkpt>
<trkpt lat="-35.1012209" lon="149.3751756">
  <ele>708.22</ele>
  <time>2026-09-01T19:55:47Z</time>
  <course>271.56</course>
  <speed>0.0</speed>
  <fix>3d</fix>
</trkpt>
<trkpt lat="-35.1012209" lon="149.3751756">
  <ele>708.19</ele>
  <time>2026-09-01T19:55:47Z</time>
  <course>92.52</course>
  <speed>0.0</speed>
  <fix>3d</fix>
</trkpt>
<trkpt lat="-35.1012209" lon="149.3751756">
  <ele>708.22</ele>
  <time>2026-09-01T19:55:47Z</time>
  <course>271.56</course>
  <speed>0.0</speed>
  <fix>3d</fix>
</trkpt>
<trkpt lat="-35.1012209" lon="149.3751756">
  <ele>708.14</ele>
  <time>2026-09-01T19:55:47Z</time>
  <course>92.52</course>
  <speed>0.0</speed>
  <fix>3d</fix>
</trkpt>
<trkpt lat="-35.1012209" lon="149.3751756">
  <ele>708.22</ele>
  <time>2026-09-01T19:55:47Z</time>
  <course>271.56</course>
  <speed>0.0</speed>
  <fix>3d</fix>
</trkpt>
<trkpt lat="-35.1012209" lon="149.3751756">
  <ele>708.19</ele>
  <time>2026-09-01T19:55:47Z</time>
  <course>94.51</course>
  <speed>0.0</speed>
  <fix>3d</fix>
</trkpt>
<trkpt lat="-35.1012209" lon="149.3751756">
  <ele>708.22</ele>
  <time>2026-09-01T19:55:47Z</time>
  <course>271.56</course>
  <speed>0.0</speed>
  <fix>3d</fix>
</trkpt>
<trkpt lat="-35.1012209" lon="149.3751756">
  <ele>708.18</ele>
  <time>2026-09-01T19:55:47Z</time>
  <course>94.51</course>
  <speed>0.0</speed>
  <fix>3d</fix>
</trkpt>
<trkpt lat="-35.1012209" lon="149.3751756">
  <ele>708.22</ele>
  <time>2026-09-01T19:55:47Z</time>
  <course>271.56</course>
  <speed>0.0</speed>
  <fix>3d</fix>
</trkpt>
<trkpt lat="-35.1012209" lon="149.3751756">
  <ele>708.18</ele>
  <time>2026-09-01T19:55:47Z</time>
  <course>94.5</course>
  <speed>0.0</speed>
  <fix>3d</fix>
</trkpt>
<trkpt lat="-35.1012209" lon="149.3751756">
  <ele>708.22</ele>
  <time>2026-09-01T19:55:47Z</time>
  <course>271.56</course>
  <speed>0.0</speed>
  <fix>3d</fix>
</trkpt>
<trkpt lat="-35.1012209" lon="149.3751756">
  <ele>708.18</ele>
  <time>2026-09-01T19:55:48Z</time>
  <course>94.5</course>
  <speed>0.0</speed>
  <fix>3d</fix>
</trkpt>
<trkpt lat="-35.1012209" lon="149.3751756">
  <ele>708.22</ele>
  <time>2026-09-01T19:55:48Z</time>
  <course>271.56</course>
  <speed>0.0</speed>
  <fix>3d</fix>
</trkpt>
<trkpt lat="-35.1012209" lon="149.3751756">
  <ele>708.18</ele>
  <time>2026-09-01T19:55:48Z</time>
  <course>94.49</course>
  <speed>0.0</speed>
  <fix>3d</fix>
</trkpt>
<trkpt lat="-35.1012209" lon="149.3751756">
  <ele>708.22</ele>
  <time>2026-09-01T19:55:48Z</time>
  <course>271.56</course>
  <speed>0.0</speed>
  <fix>3d</fix>
</trkpt>
<trkpt lat="-35.1012209" lon="149.3751756">
  <ele>708.18</ele>
  <time>2026-09-01T19:55:48Z</time>
  <course>94.49</course>
  <speed>0.0</speed>
  <fix>3d</fix>
</trkpt>
<trkpt lat="-35.1012209" lon="149.3751756">
  <ele>708.22</ele>
  <time>2026-09-01T19:55:48Z</time>
  <course>271.56</course>
  <speed>0.0</speed>
  <fix>3d</fix>
</trkpt>
<trkpt lat="-35.1012209" lon="149.3751756">
  <ele>708.18</ele>
  <time>2026-09-01T19:55:48Z</time>
  <course>94.48</course>
  <speed>0.0</speed>
  <fix>3d</fix>
</trkpt>
<trkpt lat="-35.1012209" lon="149.3751756">
  <ele>708.22</ele>
  <time>2026-09-01T19:55:48Z</time>
  <course>271.56</course>
  <speed>0.0</speed>
  <fix>3d</fix>
</trkpt>
<trkpt lat="-35.1012209" lon="149.3751756">
  <ele>708.18</ele>
  <time>2026-09-01T19:55:48Z</time>
  <course>94.48</course>
  <speed>0.0</speed>
  <fix>3d</fix>
</trkpt>
<trkpt lat="-35.1012209" lon="149.3751756">
  <ele>708.22</ele>
  <time>2026-09-01T19:55:48Z</time>
  <course>271.56</course>
  <speed>0.0</speed>
  <fix>3d</fix>
</trkpt>
<trkpt lat="-35.1012209" lon="149.3751756">
  <ele>708.18</ele>
  <time>2026-09-01T19:55:48Z</time>
  <course>94.47</course>
  <speed>0.0</speed>
  <fix>3d</fix>
</trkpt>
<trkpt lat="-35.1012209" lon="149.3751756">
  <ele>708.22</ele>
  <time>2026-09-01T19:55:48Z</time>
  <course>271.56</course>
  <speed>0.0</speed>
  <fix>3d</fix>
</trkpt>
<trkpt lat="-35.1012209" lon="149.3751756">
  <ele>708.17</ele>
  <time>2026-09-01T19:55:48Z</time>
  <course>94.47</course>
  <speed>0.0</speed>
  <fix>3d</fix>
</trkpt>
<trkpt lat="-35.1012209" lon="149.3751756">
  <ele>708.22</ele>
  <time>2026-09-01T19:55:48Z</time>
  <course>271.56</course>
  <speed>0.0</speed>
  <fix>3d</fix>
</trkpt>
<trkpt lat="-35.1012209" lon="149.3751756">
  <ele>708.17</ele>
  <time>2026-09-01T19:55:48Z</time>
  <course>94.46</course>
  <speed>0.0</speed>
  <fix>3d</fix>
</trkpt>
<trkpt lat="-35.1012209" lon="149.3751756">
  <ele>708.22</ele>
  <time>2026-09-01T19:55:48Z</time>
  <course>271.56</course>
  <speed>0.0</speed>
  <fix>3d</fix>
</trkpt>
<trkpt lat="-35.1012209" lon="149.3751756">
  <ele>708.17</ele>
  <time>2026-09-01T19:55:48Z</time>
  <course>94.46</course>
  <speed>0.01</speed>
  <fix>3d</fix>
</trkpt>
<trkpt lat="-35.1012209" lon="149.3751756">
  <ele>708.22</ele>
  <time>2026-09-01T19:55:48Z</time>
  <course>271.56</course>
  <speed>0.0</speed>
  <fix>3d</fix>
</trkpt>
<trkpt lat="-35.1012209" lon="149.3751756">
  <ele>708.17</ele>
  <time>2026-09-01T19:55:48Z</time>
  <course>94.46</course>
  <speed>0.01414213562373095</speed>
  <fix>3d</fix>
</trkpt>
<trkpt lat="-35.1012209" lon="149.3751756">
  <ele>708.22</ele>
  <time>2026-09-01T19:55:48Z</time>
  <course>271.56</course>
  <speed>0.0</speed>
  <fix>3d</fix>
</trkpt>
<trkpt lat="-35.1012209" lon="149.3751756">
  <ele>708.17</ele>
  <time>2026-09-01T19:55:48Z</time>
  <course>94.45</course>
  <speed>0.01414213562373095</speed>
  <fix>3d</fix>
</trkpt>
<trkpt lat="-35.1012209" lon="149.3751756">
  <ele>708.22</ele>
  <time>2026-09-01T19:55:48Z</time>
  <course>271.56</course>
  <speed>0.0</speed>
  <fix>3d</fix>
</trkpt>
<trkpt lat="-35.1012209" lon="149.3751756">
  <ele>708.17</ele>
  <time>2026-09-01T19:55:48Z</time>
  <course>94.45</course>
  <speed>0.01414213562373095</speed>
  <fix>3d</fix>
</trkpt>
<trkpt lat="-35.1012209" lon="149.3751756">
  <ele>708.22</ele>
  <time>2026-09-01T19:55:48Z</time>
  <course>271.56</course>
  <speed>0.0</speed>
  <fix>3d</fix>
</trkpt>
<trkpt lat="-35.1012209" lon="149.3751756">
  <ele>708.17</ele>
  <time>2026-09-01T19:55:48Z</time>
  <course>94.44</course>
  <speed>0.01414213562373095</speed>
  <fix>3d</fix>
</trkpt>
<trkpt lat="-35.1012209" lon="149.3751756">
  <ele>708.22</ele>
  <time>2026-09-01T19:55:48Z</time>
  <course>271.56</course>
  <speed>0.0</speed>
  <fix>3d</fix>
</trkpt>
<trkpt lat="-35.1012209" lon="149.3751756">
  <ele>708.17</ele>
  <time>2026-09-01T19:55:48Z</time>
  <course>94.44</course>
  <speed>0.01414213562373095</speed>
  <fix>3d</fix>
</trkpt>
<trkpt lat="-35.1012209" lon="149.3751756">
  <ele>708.22</ele>
  <time>2026-09-01T19:55:48Z</time>
  <course>271.56</course>
  <speed>0.0</speed>
  <fix>3d</fix>
</trkpt>
<trkpt lat="-35.1012209" lon="149.3751756">
  <ele>708.17</ele>
  <time>2026-09-01T19:55:48Z</time>
  <course>94.43</course>
  <speed>0.01414213562373095</speed>
  <fix>3d</fix>
</trkpt>
<trkpt lat="-35.1012209" lon="149.3751756">
  <ele>708.22</ele>
  <time>2026-09-01T19:55:48Z</time>
  <course>271.56</course>
  <speed>0.0</speed>
  <fix>3d</fix>
</trkpt>
<trkpt lat="-35.1012209" lon="149.3751756">
  <ele>708.17</ele>
  <time>2026-09-01T19:55:48Z</time>
  <course>94.43</course>
  <speed>0.01414213562373095</speed>
  <fix>3d</fix>
</trkpt>
<trkpt lat="-35.1012209" lon="149.3751756">
  <ele>708.22</ele>
  <time>2026-09-01T19:55:48Z</time>
  <course>271.56</course>
  <speed>0.0</speed>
  <fix>3d</fix>
</trkpt>
<trkpt lat="-35.1012209" lon="149.3751756">
  <ele>708.17</ele>
  <time>2026-09-01T19:55:48Z</time>
  <course>94.43</course>
  <speed>0.01414213562373095</speed>
  <fix>3d</fix>
</trkpt>
<trkpt lat="-35.1012209" lon="149.3751756">
  <ele>708.22</ele>
  <time>2026-09-01T19:55:48Z</time>
  <course>271.56</course>
  <speed>0.0</speed>
  <fix>3d</fix>
</trkpt>
<trkpt lat="-35.1012209" lon="149.3751756">
  <ele>708.17</ele>
  <time>2026-09-01T19:55:48Z</time>
  <course>94.42</course>
  <speed>0.01414213562373095</speed>
  <fix>3d</fix>
</trkpt>
<trkpt lat="-35.1012209" lon="149.3751756">
  <ele>708.22</ele>
  <time>2026-09-01T19:55:48Z</time>
  <course>271.56</course>
  <speed>0.0</speed>
  <fix>3d</fix>
</trkpt>
<trkpt lat="-35.1012209" lon="149.3751756">
  <ele>708.17</ele>
  <time>2026-09-01T19:55:48Z</time>
  <course>94.42</course>
  <speed>0.01414213562373095</speed>
  <fix>3d</fix>
</trkpt>
<trkpt lat="-35.1012209" lon="149.3751756">
  <ele>708.22</ele>
  <time>2026-09-01T19:55:48Z</time>
  <course>271.56</course>
  <speed>0.0</speed>
  <fix>3d</fix>
</trkpt>
<trkpt lat="-35.1012209" lon="149.3751756">
  <ele>708.17</ele>
  <time>2026-09-01T19:55:48Z</time>
  <course>94.42</course>
  <speed>0.022360679774997897</speed>
  <fix>3d</fix>
</trkpt>
<trkpt lat="-35.1012209" lon="149.3751756">
  <ele>708.22</ele>
  <time>2026-09-01T19:55:48Z</time>
  <course>271.56</course>
  <speed>0.0</speed>
  <fix>3d</fix>
</trkpt>
<trkpt lat="-35.1012209" lon="149.3751756">
  <ele>708.17</ele>
  <time>2026-09-01T19:55:48Z</time>
  <course>94.41</course>
  <speed>0.022360679774997897</speed>
  <fix>3d</fix>
</trkpt>
<trkpt lat="-35.1012209" lon="149.3751756">
  <ele>708.22</ele>
  <time>2026-09-01T19:55:48Z</time>
  <course>271.56</course>
  <speed>0.0</speed>
  <fix>3d</fix>
</trkpt>
<trkpt lat="-35.1012209" lon="149.3751755">
  <ele>708.16</ele>
  <time>2026-09-01T19:55:48Z</time>
  <course>94.41</course>
  <speed>0.022360679774997897</speed>
  <fix>3d</fix>
</trkpt>
<trkpt lat="-35.1012209" lon="149.3751756">
  <ele>708.22</ele>
  <time>2026-09-01T19:55:48Z</time>
  <course>271.56</course>
  <speed>0.0</speed>
  <fix>3d</fix>
</trkpt>
<trkpt lat="-35.1012209" lon="149.3751755">
  <ele>708.16</ele>
  <time>2026-09-01T19:55:48Z</time>
  <course>94.4</course>
  <speed>0.0282842712474619</speed>
  <fix>3d</fix>
</trkpt>
<trkpt lat="-35.1012209" lon="149.3751756">
  <ele>708.22</ele>
  <time>2026-09-01T19:55:48Z</time>
  <course>271.56</course>
  <speed>0.0</speed>
  <fix>3d</fix>
</trkpt>
<trkpt lat="-35.1012209" lon="149.3751755">
  <ele>708.16</ele>
  <time>2026-09-01T19:55:48Z</time>
  <course>94.4</course>
  <speed>0.0282842712474619</speed>
  <fix>3d</fix>
</trkpt>
<trkpt lat="-35.1012209" lon="149.3751756">
  <ele>708.22</ele>
  <time>2026-09-01T19:55:48Z</time>
  <course>271.56</course>
  <speed>0.0</speed>
  <fix>3d</fix>
</trkpt>
<trkpt lat="-35.1012209" lon="149.3751755">
  <ele>708.15</ele>
  <time>2026-09-01T19:55:48Z</time>
  <course>94.39</course>
  <speed>0.0282842712474619</speed>
  <fix>3d</fix>
</trkpt>
<trkpt lat="-35.1012209" lon="149.3751756">
  <ele>708.22</ele>
  <time>2026-09-01T19:55:48Z</time>
  <course>271.56</course>
  <speed>0.0</speed>
  <fix>3d</fix>
</trkpt>
<trkpt lat="-35.101221" lon="149.3751755">
  <ele>708.15</ele>
  <time>2026-09-01T19:55:48Z</time>
  <course>94.39</course>
  <speed>0.0282842712474619</speed>
  <fix>3d</fix>
</trkpt>
<trkpt lat="-35.1012209" lon="149.3751756">
  <ele>708.22</ele>
  <time>2026-09-01T19:55:48Z</time>
  <course>271.56</course>
  <speed>0.0</speed>
  <fix>3d</fix>
</trkpt>
<trkpt lat="-35.101221" lon="149.3751755">
  <ele>708.14</ele>
  <time>2026-09-01T19:55:48Z</time>
  <course>94.39</course>
  <speed>0.0282842712474619</speed>
  <fix>3d</fix>
</trkpt>
<trkpt lat="-35.1012209" lon="149.3751756">
  <ele>708.22</ele>
  <time>2026-09-01T19:55:48Z</time>
  <course>271.56</course>
  <speed>0.0</speed>
  <fix>3d</fix>
</trkpt>
<trkpt lat="-35.101221" lon="149.3751755">
  <ele>708.14</ele>
  <time>2026-09-01T19:55:48Z</time>
  <course>94.38</course>
  <speed>0.0282842712474619</speed>
  <fix>3d</fix>
</trkpt>
<trkpt lat="-35.1012209" lon="149.3751756">
  <ele>708.22</ele>
  <time>2026-09-01T19:55:48Z</time>
  <course>271.56</course>
  <speed>0.0</speed>
  <fix>3d</fix>
</trkpt>
<trkpt lat="-35.101221" lon="149.3751755">
  <ele>708.14</ele>
  <time>2026-09-01T19:55:48Z</time>
  <course>94.38</course>
  <speed>0.0282842712474619</speed>
  <fix>3d</fix>
</trkpt>
<trkpt lat="-35.1012209" lon="149.3751756">
  <ele>708.22</ele>
  <time>2026-09-01T19:55:48Z</time>
  <course>271.56</course>
  <speed>0.0</speed>
  <fix>3d</fix>
</trkpt>
<trkpt lat="-35.101221" lon="149.3751755">
  <ele>708.14</ele>
  <time>2026-09-01T19:55:48Z</time>
  <course>94.38</course>
  <speed>0.0282842712474619</speed>
  <fix>3d</fix>
</trkpt>
<trkpt lat="-35.1012209" lon="149.3751756">
  <ele>708.22</ele>
  <time>2026-09-01T19:55:48Z</time>
  <course>271.56</course>
  <speed>0.0</speed>
  <fix>3d</fix>
</trkpt>
<trkpt lat="-35.101221" lon="149.3751755">
  <ele>708.14</ele>
  <time>2026-09-01T19:55:48Z</time>
  <course>94.37</course>
  <speed>0.0282842712474619</speed>
  <fix>3d</fix>
</trkpt>
<trkpt lat="-35.1012209" lon="149.3751756">
  <ele>708.22</ele>
  <time>2026-09-01T19:55:48Z</time>
  <course>271.56</course>
  <speed>0.0</speed>
  <fix>3d</fix>
</trkpt>
<trkpt lat="-35.101221" lon="149.3751755">
  <ele>708.14</ele>
  <time>2026-09-01T19:55:48Z</time>
  <course>94.37</course>
  <speed>0.0282842712474619</speed>
  <fix>3d</fix>
</trkpt>
<trkpt lat="-35.1012209" lon="149.3751756">
  <ele>708.22</ele>
  <time>2026-09-01T19:55:48Z</time>
  <course>271.56</course>
  <speed>0.0</speed>
  <fix>3d</fix>
</trkpt>
<trkpt lat="-35.101221" lon="149.3751754">
  <ele>708.14</ele>
  <time>2026-09-01T19:55:48Z</time>
  <course>94.37</course>
  <speed>0.0282842712474619</speed>
  <fix>3d</fix>
</trkpt>
<trkpt lat="-35.1012209" lon="149.3751756">
  <ele>708.22</ele>
  <time>2026-09-01T19:55:48Z</time>
  <course>271.56</course>
  <speed>0.0</speed>
  <fix>3d</fix>
</trkpt>
<trkpt lat="-35.101221" lon="149.3751754">
  <ele>708.14</ele>
  <time>2026-09-01T19:55:48Z</time>
  <course>94.36</course>
  <speed>0.0282842712474619</speed>
  <fix>3d</fix>
</trkpt>
<trkpt lat="-35.1012209" lon="149.3751756">
  <ele>708.22</ele>
  <time>2026-09-01T19:55:48Z</time>
  <course>271.56</course>
  <speed>0.0</speed>
  <fix>3d</fix>
</trkpt>
<trkpt lat="-35.101221" lon="149.3751754">
  <ele>708.14</ele>
  <time>2026-09-01T19:55:48Z</time>
  <course>94.36</course>
  <speed>0.0282842712474619</speed>
  <fix>3d</fix>
</trkpt>
<trkpt lat="-35.1012209" lon="149.3751756">
  <ele>708.22</ele>
  <time>2026-09-01T19:55:48Z</time>
  <course>271.56</course>
  <speed>0.0</speed>
  <fix>3d</fix>
</trkpt>
<trkpt lat="-35.101221" lon="149.3751754">
  <ele>708.13</ele>
  <time>2026-09-01T19:55:48Z</time>
  <course>94.35</course>
  <speed>0.0282842712474619</speed>
  <fix>3d</fix>
</trkpt>
<trkpt lat="-35.1012209" lon="149.3751756">
  <ele>708.22</ele>
  <time>2026-09-01T19:55:48Z</time>
  <course>271.56</course>
  <speed>0.0</speed>
  <fix>3d</fix>
</trkpt>
<trkpt lat="-35.101221" lon="149.3751754">
  <ele>708.13</ele>
  <time>2026-09-01T19:55:48Z</time>
  <course>94.35</course>
  <speed>0.0282842712474619</speed>
  <fix>3d</fix>
</trkpt>
<trkpt lat="-35.1012209" lon="149.3751756">
  <ele>708.22</ele>
  <time>2026-09-01T19:55:48Z</time>
  <course>271.56</course>
  <speed>0.0</speed>
  <fix>3d</fix>
</trkpt>
<trkpt lat="-35.101221" lon="149.3751754">
  <ele>708.13</ele>
  <time>2026-09-01T19:55:48Z</time>
  <course>94.35</course>
  <speed>0.0282842712474619</speed>
  <fix>3d</fix>
</trkpt>
<trkpt lat="-35.1012209" lon="149.3751756">
  <ele>708.22</ele>
  <time>2026-09-01T19:55:48Z</time>
  <course>271.56</course>
  <speed>0.0</speed>
  <fix>3d</fix>
</trkpt>
<trkpt lat="-35.101221" lon="149.3751754">
  <ele>708.13</ele>
  <time>2026-09-01T19:55:48Z</time>
  <course>94.34</course>
  <speed>0.0282842712474619</speed>
  <fix>3d</fix>
</trkpt>
<trkpt lat="-35.1012209" lon="149.3751756">
  <ele>708.22</ele>
  <time>2026-09-01T19:55:48Z</time>
  <course>271.56</course>
  <speed>0.0</speed>
  <fix>3d</fix>
</trkpt>
<trkpt lat="-35.101221" lon="149.3751754">
  <ele>708.13</ele>
  <time>2026-09-01T19:55:48Z</time>
  <course>94.34</course>
  <speed>0.0282842712474619</speed>
  <fix>3d</fix>
</trkpt>
<trkpt lat="-35.1012209" lon="149.3751756">
  <ele>708.22</ele>
  <time>2026-09-01T19:55:48Z</time>
  <course>271.56</course>
  <speed>0.0</speed>
  <fix>3d</fix>
</trkpt>
<trkpt lat="-35.101221" lon="149.3751754">
  <ele>708.13</ele>
  <time>2026-09-01T19:55:48Z</time>
  <course>94.34</course>
  <speed>0.0282842712474619</speed>
  <fix>3d</fix>
</trkpt>
<trkpt lat="-35.1012209" lon="149.3751756">
  <ele>708.22</ele>
  <time>2026-09-01T19:55:48Z</time>
  <course>271.56</course>
  <speed>0.0</speed>
  <fix>3d</fix>
</trkpt>
<trkpt lat="-35.101221" lon="149.3751754">
  <ele>708.13</ele>
  <time>2026-09-01T19:55:48Z</time>
  <course>94.33</course>
  <speed>0.0282842712474619</speed>
  <fix>3d</fix>
</trkpt>
<trkpt lat="-35.1012209" lon="149.3751756">
  <ele>708.22</ele>
  <time>2026-09-01T19:55:48Z</time>
  <course>271.56</course>
  <speed>0.0</speed>
  <fix>3d</fix>
</trkpt>
<trkpt lat="-35.101221" lon="149.3751754">
  <ele>708.13</ele>
  <time>2026-09-01T19:55:48Z</time>
  <course>94.33</course>
  <speed>0.0282842712474619</speed>
  <fix>3d</fix>
</trkpt>
<trkpt lat="-35.1012209" lon="149.3751756">
  <ele>708.22</ele>
  <time>2026-09-01T19:55:48Z</time>
  <course>271.56</course>
  <speed>0.0</speed>
  <fix>3d</fix>
</trkpt>
<trkpt lat="-35.101221" lon="149.3751754">
  <ele>708.21</ele>
  <time>2026-09-01T19:55:48Z</time>
  <course>94.33</course>
  <speed>0.0282842712474619</speed>
  <fix>3d</fix>
</trkpt>
<trkpt lat="-35.1012209" lon="149.3751756">
  <ele>708.22</ele>
  <time>2026-09-01T19:55:48Z</time>
  <course>271.56</course>
  <speed>0.0</speed>
  <fix>3d</fix>
</trkpt>
<trkpt lat="-35.101221" lon="149.3751754">
  <ele>708.22</ele>
  <time>2026-09-01T19:55:48Z</time>
  <course>94.32</course>
  <speed>0.0282842712474619</speed>
  <fix>3d</fix>
</trkpt>
<trkpt lat="-35.1012209" lon="149.3751756">
  <ele>708.22</ele>
  <time>2026-09-01T19:55:48Z</time>
  <course>271.56</course>
  <speed>0.0</speed>
  <fix>3d</fix>
</trkpt>
<trkpt lat="-35.101221" lon="149.3751754">
  <ele>708.21</ele>
  <time>2026-09-01T19:55:48Z</time>
  <course>94.32</course>
  <speed>0.0282842712474619</speed>
  <fix>3d</fix>
</trkpt>
<trkpt lat="-35.1012209" lon="149.3751756">
  <ele>708.22</ele>
  <time>2026-09-01T19:55:48Z</time>
  <course>271.56</course>
  <speed>0.0</speed>
  <fix>3d</fix>
</trkpt>
<trkpt lat="-35.101221" lon="149.3751754">
  <ele>708.21</ele>
  <time>2026-09-01T19:55:48Z</time>
  <course>94.31</course>
  <speed>0.0282842712474619</speed>
  <fix>3d</fix>
</trkpt>
<trkpt lat="-35.1012209" lon="149.3751756">
  <ele>708.22</ele>
  <time>2026-09-01T19:55:48Z</time>
  <course>271.56</course>
  <speed>0.0</speed>
  <fix>3d</fix>
</trkpt>
<trkpt lat="-35.101221" lon="149.3751754">
  <ele>708.21</ele>
  <time>2026-09-01T19:55:48Z</time>
  <course>94.31</course>
  <speed>0.0282842712474619</speed>
  <fix>3d</fix>
</trkpt>
<trkpt lat="-35.1012209" lon="149.3751756">
  <ele>708.22</ele>
  <time>2026-09-01T19:55:48Z</time>
  <course>271.56</course>
  <speed>0.0</speed>
  <fix>3d</fix>
</trkpt>
<trkpt lat="-35.101221" lon="149.3751754">
  <ele>708.21</ele>
  <time>2026-09-01T19:55:48Z</time>
  <course>94.3</course>
  <speed>0.0282842712474619</speed>
  <fix>3d</fix>
</trkpt>
<trkpt lat="-35.1012209" lon="149.3751756">
  <ele>708.22</ele>
  <time>2026-09-01T19:55:48Z</time>
  <course>271.56</course>
  <speed>0.0</speed>
  <fix>3d</fix>
</trkpt>
<trkpt lat="-35.101221" lon="149.3751754">
  <ele>708.2</ele>
  <time>2026-09-01T19:55:48Z</time>
  <course>94.3</course>
  <speed>0.0282842712474619</speed>
  <fix>3d</fix>
</trkpt>
<trkpt lat="-35.1012209" lon="149.3751756">
  <ele>708.22</ele>
  <time>2026-09-01T19:55:48Z</time>
  <course>271.56</course>
  <speed>0.0</speed>
  <fix>3d</fix>
</trkpt>
<trkpt lat="-35.101221" lon="149.3751754">
  <ele>708.2</ele>
  <time>2026-09-01T19:55:48Z</time>
  <course>94.3</course>
  <speed>0.0282842712474619</speed>
  <fix>3d</fix>
</trkpt>
<trkpt lat="-35.1012209" lon="149.3751756">
  <ele>708.22</ele>
  <time>2026-09-01T19:55:48Z</time>
  <course>271.56</course>
  <speed>0.0</speed>
  <fix>3d</fix>
</trkpt>
<trkpt lat="-35.101221" lon="149.3751754">
  <ele>708.19</ele>
  <time>2026-09-01T19:55:48Z</time>
  <course>94.29</course>
  <speed>0.0282842712474619</speed>
  <fix>3d</fix>
</trkpt>
<trkpt lat="-35.1012209" lon="149.3751756">
  <ele>708.22</ele>
  <time>2026-09-01T19:55:48Z</time>
  <course>271.56</course>
  <speed>0.0</speed>
  <fix>3d</fix>
</trkpt>
<trkpt lat="-35.101221" lon="149.3751754">
  <ele>708.19</ele>
  <time>2026-09-01T19:55:48Z</time>
  <course>94.29</course>
  <speed>0.0282842712474619</speed>
  <fix>3d</fix>
</trkpt>
<trkpt lat="-35.1012209" lon="149.3751756">
  <ele>708.22</ele>
  <time>2026-09-01T19:55:48Z</time>
  <course>271.56</course>
  <speed>0.0</speed>
  <fix>3d</fix>
</trkpt>
<trkpt lat="-35.101221" lon="149.3751754">
  <ele>708.19</ele>
  <time>2026-09-01T19:55:48Z</time>
  <course>94.29</course>
  <speed>0.0282842712474619</speed>
  <fix>3d</fix>
</trkpt>
<trkpt lat="-35.1012209" lon="149.3751756">
  <ele>708.22</ele>
  <time>2026-09-01T19:55:48Z</time>
  <course>271.56</course>
  <speed>0.0</speed>
  <fix>3d</fix>
</trkpt>
<trkpt lat="-35.101221" lon="149.3751754">
  <ele>708.18</ele>
  <time>2026-09-01T19:55:48Z</time>
  <course>94.28</course>
  <speed>0.0282842712474619</speed>
  <fix>3d</fix>
</trkpt>
<trkpt lat="-35.1012209" lon="149.3751756">
  <ele>708.22</ele>
  <time>2026-09-01T19:55:48Z</time>
  <course>271.56</course>
  <speed>0.0</speed>
  <fix>3d</fix>
</trkpt>
<trkpt lat="-35.101221" lon="149.3751754">
  <ele>708.18</ele>
  <time>2026-09-01T19:55:48Z</time>
  <course>94.28</course>
  <speed>0.0282842712474619</speed>
  <fix>3d</fix>
</trkpt>
<trkpt lat="-35.1012209" lon="149.3751756">
  <ele>708.22</ele>
  <time>2026-09-01T19:55:48Z</time>
  <course>271.56</course>
  <speed>0.0</speed>
  <fix>3d</fix>
</trkpt>
<trkpt lat="-35.101221" lon="149.3751754">
  <ele>708.17</ele>
  <time>2026-09-01T19:55:48Z</time>
  <course>94.27</course>
  <speed>0.0282842712474619</speed>
  <fix>3d</fix>
</trkpt>
<trkpt lat="-35.1012209" lon="149.3751756">
  <ele>708.22</ele>
  <time>2026-09-01T19:55:48Z</time>
  <course>271.56</course>
  <speed>0.0</speed>
  <fix>3d</fix>
</trkpt>
<trkpt lat="-35.101221" lon="149.3751754">
  <ele>708.17</ele>
  <time>2026-09-01T19:55:48Z</time>
  <course>94.27</course>
  <speed>0.0282842712474619</speed>
  <fix>3d</fix>
</trkpt>
<trkpt lat="-35.1012209" lon="149.3751756">
  <ele>708.22</ele>
  <time>2026-09-01T19:55:48Z</time>
  <course>271.56</course>
  <speed>0.0</speed>
  <fix>3d</fix>
</trkpt>
<trkpt lat="-35.101221" lon="149.3751754">
  <ele>708.16</ele>
  <time>2026-09-01T19:55:48Z</time>
  <course>94.27</course>
  <speed>0.0282842712474619</speed>
  <fix>3d</fix>
</trkpt>
<trkpt lat="-35.1012209" lon="149.3751756">
  <ele>708.22</ele>
  <time>2026-09-01T19:55:48Z</time>
  <course>271.56</course>
  <speed>0.0</speed>
  <fix>3d</fix>
</trkpt>
<trkpt lat="-35.101221" lon="149.3751754">
  <ele>708.16</ele>
  <time>2026-09-01T19:55:48Z</time>
  <course>94.26</course>
  <speed>0.0282842712474619</speed>
  <fix>3d</fix>
</trkpt>
<trkpt lat="-35.1012209" lon="149.3751756">
  <ele>708.22</ele>
  <time>2026-09-01T19:55:48Z</time>
  <course>271.56</course>
  <speed>0.0</speed>
  <fix>3d</fix>
</trkpt>
<trkpt lat="-35.101221" lon="149.3751754">
  <ele>708.16</ele>
  <time>2026-09-01T19:55:48Z</time>
  <course>94.26</course>
  <speed>0.0282842712474619</speed>
  <fix>3d</fix>
</trkpt>
<trkpt lat="-35.1012209" lon="149.3751756">
  <ele>708.22</ele>
  <time>2026-09-01T19:55:48Z</time>
  <course>271.56</course>
  <speed>0.0</speed>
  <fix>3d</fix>
</trkpt>
<trkpt lat="-35.101221" lon="149.3751754">
  <ele>708.15</ele>
  <time>2026-09-01T19:55:48Z</time>
  <course>94.26</course>
  <speed>0.022360679774997897</speed>
  <fix>3d</fix>
</trkpt>
<trkpt lat="-35.1012209" lon="149.3751756">
  <ele>708.22</ele>
  <time>2026-09-01T19:55:48Z</time>
  <course>271.56</course>
  <speed>0.0</speed>
  <fix>3d</fix>
</trkpt>
<trkpt lat="-35.101221" lon="149.3751754">
  <ele>708.15</ele>
  <time>2026-09-01T19:55:48Z</time>
  <course>94.25</course>
  <speed>0.022360679774997897</speed>
  <fix>3d</fix>
</trkpt>
<trkpt lat="-35.1012209" lon="149.3751756">
  <ele>708.22</ele>
  <time>2026-09-01T19:55:48Z</time>
  <course>271.56</course>
  <speed>0.0</speed>
  <fix>3d</fix>
</trkpt>
<trkpt lat="-35.101221" lon="149.3751754">
  <ele>708.14</ele>
  <time>2026-09-01T19:55:48Z</time>
  <course>94.25</course>
  <speed>0.022360679774997897</speed>
  <fix>3d</fix>
</trkpt>
<trkpt lat="-35.1012209" lon="149.3751756">
  <ele>708.22</ele>
  <time>2026-09-01T19:55:48Z</time>
  <course>271.56</course>
  <speed>0.0</speed>
  <fix>3d</fix>
</trkpt>
<trkpt lat="-35.101221" lon="149.3751754">
  <ele>708.14</ele>
  <time>2026-09-01T19:55:48Z</time>
  <course>94.25</course>
  <speed>0.022360679774997897</speed>
  <fix>3d</fix>
</trkpt>
<trkpt lat="-35.1012209" lon="149.3751756">
  <ele>708.22</ele>
  <time>2026-09-01T19:55:48Z</time>
  <course>271.56</course>
  <speed>0.0</speed>
  <fix>3d</fix>
</trkpt>
<trkpt lat="-35.101221" lon="149.3751754">
  <ele>708.14</ele>
  <time>2026-09-01T19:55:48Z</time>
  <course>94.24</course>
  <speed>0.022360679774997897</speed>
  <fix>3d</fix>
</trkpt>
<trkpt lat="-35.1012209" lon="149.3751756">
  <ele>708.22</ele>
  <time>2026-09-01T19:55:48Z</time>
  <course>271.56</course>
  <speed>0.0</speed>
  <fix>3d</fix>
</trkpt>
<trkpt lat="-35.101221" lon="149.3751754">
  <ele>708.13</ele>
  <time>2026-09-01T19:55:48Z</time>
  <course>94.24</course>
  <speed>0.022360679774997897</speed>
  <fix>3d</fix>
</trkpt>
<trkpt lat="-35.1012209" lon="149.3751756">
  <ele>708.22</ele>
  <time>2026-09-01T19:55:48Z</time>
  <course>271.56</course>
  <speed>0.0</speed>
  <fix>3d</fix>
</trkpt>
<trkpt lat="-35.101221" lon="149.3751754">
  <ele>708.13</ele>
  <time>2026-09-01T19:55:48Z</time>
  <course>94.23</course>
  <speed>0.022360679774997897</speed>
  <fix>3d</fix>
</trkpt>
<trkpt lat="-35.1012209" lon="149.3751756">
  <ele>708.22</ele>
  <time>2026-09-01T19:55:48Z</time>
  <course>271.56</course>
  <speed>0.0</speed>
  <fix>3d</fix>
</trkpt>
<trkpt lat="-35.101221" lon="149.3751754">
  <ele>708.13</ele>
  <time>2026-09-01T19:55:48Z</time>
  <course>94.23</course>
  <speed>0.022360679774997897</speed>
  <fix>3d</fix>
</trkpt>
<trkpt lat="-35.1012209" lon="149.3751756">
  <ele>708.22</ele>
  <time>2026-09-01T19:55:48Z</time>
  <course>271.56</course>
  <speed>0.0</speed>
  <fix>3d</fix>
</trkpt>
<trkpt lat="-35.101221" lon="149.3751754">
  <ele>708.13</ele>
  <time>2026-09-01T19:55:48Z</time>
  <course>94.22</course>
  <speed>0.022360679774997897</speed>
  <fix>3d</fix>
</trkpt>
<trkpt lat="-35.1012209" lon="149.3751756">
  <ele>708.22</ele>
  <time>2026-09-01T19:55:48Z</time>
  <course>271.56</course>
  <speed>0.0</speed>
  <fix>3d</fix>
</trkpt>
<trkpt lat="-35.101221" lon="149.3751754">
  <ele>708.12</ele>
  <time>2026-09-01T19:55:48Z</time>
  <course>94.22</course>
  <speed>0.022360679774997897</speed>
  <fix>3d</fix>
</trkpt>
<trkpt lat="-35.1012209" lon="149.3751756">
  <ele>708.22</ele>
  <time>2026-09-01T19:55:48Z</time>
  <course>271.56</course>
  <speed>0.0</speed>
  <fix>3d</fix>
</trkpt>
<trkpt lat="-35.101221" lon="149.3751754">
  <ele>708.12</ele>
  <time>2026-09-01T19:55:48Z</time>
  <course>94.22</course>
  <speed>0.022360679774997897</speed>
  <fix>3d</fix>
</trkpt>
<trkpt lat="-35.1012209" lon="149.3751756">
  <ele>708.22</ele>
  <time>2026-09-01T19:55:48Z</time>
  <course>271.56</course>
  <speed>0.0</speed>
  <fix>3d</fix>
</trkpt>
<trkpt lat="-35.101221" lon="149.3751754">
  <ele>708.12</ele>
  <time>2026-09-01T19:55:48Z</time>
  <course>94.21</course>
  <speed>0.022360679774997897</speed>
  <fix>3d</fix>
</trkpt>
<trkpt lat="-35.1012209" lon="149.3751756">
  <ele>708.22</ele>
  <time>2026-09-01T19:55:48Z</time>
  <course>271.56</course>
  <speed>0.0</speed>
  <fix>3d</fix>
</trkpt>
<trkpt lat="-35.101221" lon="149.3751754">
  <ele>708.11</ele>
  <time>2026-09-01T19:55:48Z</time>
  <course>94.21</course>
  <speed>0.01414213562373095</speed>
  <fix>3d</fix>
</trkpt>
<trkpt lat="-35.1012209" lon="149.3751756">
  <ele>708.22</ele>
  <time>2026-09-01T19:55:48Z</time>
  <course>271.56</course>
  <speed>0.0</speed>
  <fix>3d</fix>
</trkpt>
<trkpt lat="-35.101221" lon="149.3751754">
  <ele>708.11</ele>
  <time>2026-09-01T19:55:48Z</time>
  <course>94.21</course>
  <speed>0.01414213562373095</speed>
  <fix>3d</fix>
</trkpt>
<trkpt lat="-35.1012209" lon="149.3751756">
  <ele>708.22</ele>
  <time>2026-09-01T19:55:48Z</time>
  <course>271.56</course>
  <speed>0.0</speed>
  <fix>3d</fix>
</trkpt>
<trkpt lat="-35.101221" lon="149.3751754">
  <ele>708.1</ele>
  <time>2026-09-01T19:55:48Z</time>
  <course>94.2</course>
  <speed>0.01414213562373095</speed>
  <fix>3d</fix>
</trkpt>
<trkpt lat="-35.1012209" lon="149.3751756">
  <ele>708.22</ele>
  <time>2026-09-01T19:55:48Z</time>
  <course>271.56</course>
  <speed>0.0</speed>
  <fix>3d</fix>
</trkpt>
<trkpt lat="-35.101221" lon="149.3751754">
  <ele>708.1</ele>
  <time>2026-09-01T19:55:48Z</time>
  <course>94.2</course>
  <speed>0.01414213562373095</speed>
  <fix>3d</fix>
</trkpt>
<trkpt lat="-35.1012209" lon="149.3751756">
  <ele>708.22</ele>
  <time>2026-09-01T19:55:48Z</time>
  <course>271.56</course>
  <speed>0.0</speed>
  <fix>3d</fix>
</trkpt>
<trkpt lat="-35.101221" lon="149.3751754">
  <ele>708.1</ele>
  <time>2026-09-01T19:55:48Z</time>
  <course>94.2</course>
  <speed>0.01414213562373095</speed>
  <fix>3d</fix>
</trkpt>
<trkpt lat="-35.1012209" lon="149.3751756">
  <ele>708.22</ele>
  <time>2026-09-01T19:55:48Z</time>
  <course>271.56</course>
  <speed>0.0</speed>
  <fix>3d</fix>
</trkpt>
<trkpt lat="-35.101221" lon="149.3751754">
  <ele>708.1</ele>
  <time>2026-09-01T19:55:48Z</time>
  <course>94.19</course>
  <speed>0.01414213562373095</speed>
  <fix>3d</fix>
</trkpt>
<trkpt lat="-35.1012209" lon="149.3751756">
  <ele>708.22</ele>
  <time>2026-09-01T19:55:48Z</time>
  <course>271.56</course>
  <speed>0.0</speed>
  <fix>3d</fix>
</trkpt>
<trkpt lat="-35.101221" lon="149.3751754">
  <ele>708.1</ele>
  <time>2026-09-01T19:55:48Z</time>
  <course>94.19</course>
  <speed>0.01414213562373095</speed>
  <fix>3d</fix>
</trkpt>
<trkpt lat="-35.1012209" lon="149.3751756">
  <ele>708.22</ele>
  <time>2026-09-01T19:55:48Z</time>
  <course>271.56</course>
  <speed>0.0</speed>
  <fix>3d</fix>
</trkpt>
<trkpt lat="-35.101221" lon="149.3751754">
  <ele>708.1</ele>
  <time>2026-09-01T19:55:48Z</time>
  <course>94.18</course>
  <speed>0.01414213562373095</speed>
  <fix>3d</fix>
</trkpt>
<trkpt lat="-35.1012209" lon="149.3751756">
  <ele>708.22</ele>
  <time>2026-09-01T19:55:48Z</time>
  <course>271.56</course>
  <speed>0.0</speed>
  <fix>3d</fix>
</trkpt>
<trkpt lat="-35.101221" lon="149.3751754">
  <ele>708.1</ele>
  <time>2026-09-01T19:55:48Z</time>
  <course>94.18</course>
  <speed>0.01414213562373095</speed>
  <fix>3d</fix>
</trkpt>
<trkpt lat="-35.1012209" lon="149.3751756">
  <ele>708.22</ele>
  <time>2026-09-01T19:55:48Z</time>
  <course>271.56</course>
  <speed>0.0</speed>
  <fix>3d</fix>
</trkpt>
<trkpt lat="-35.101221" lon="149.3751754">
  <ele>708.1</ele>
  <time>2026-09-01T19:55:48Z</time>
  <course>94.18</course>
  <speed>0.01414213562373095</speed>
  <fix>3d</fix>
</trkpt>
<trkpt lat="-35.1012209" lon="149.3751756">
  <ele>708.22</ele>
  <time>2026-09-01T19:55:48Z</time>
  <course>271.56</course>
  <speed>0.0</speed>
  <fix>3d</fix>
</trkpt>
<trkpt lat="-35.101221" lon="149.3751754">
  <ele>708.1</ele>
  <time>2026-09-01T19:55:48Z</time>
  <course>94.17</course>
  <speed>0.01414213562373095</speed>
  <fix>3d</fix>
</trkpt>
<trkpt lat="-35.1012209" lon="149.3751756">
  <ele>708.22</ele>
  <time>2026-09-01T19:55:48Z</time>
  <course>271.56</course>
  <speed>0.0</speed>
  <fix>3d</fix>
</trkpt>
<trkpt lat="-35.101221" lon="149.3751754">
  <ele>708.1</ele>
  <time>2026-09-01T19:55:48Z</time>
  <course>94.17</course>
  <speed>0.01414213562373095</speed>
  <fix>3d</fix>
</trkpt>
<trkpt lat="-35.1012209" lon="149.3751756">
  <ele>708.22</ele>
  <time>2026-09-01T19:55:48Z</time>
  <course>271.56</course>
  <speed>0.0</speed>
  <fix>3d</fix>
</trkpt>
<trkpt lat="-35.101221" lon="149.3751754">
  <ele>708.1</ele>
  <time>2026-09-01T19:55:48Z</time>
  <course>94.17</course>
  <speed>0.01414213562373095</speed>
  <fix>3d</fix>
</trkpt>
<trkpt lat="-35.1012209" lon="149.3751756">
  <ele>708.22</ele>
  <time>2026-09-01T19:55:48Z</time>
  <course>271.56</course>
  <speed>0.0</speed>
  <fix>3d</fix>
</trkpt>
<trkpt lat="-35.101221" lon="149.3751754">
  <ele>708.09</ele>
  <time>2026-09-01T19:55:48Z</time>
  <course>94.16</course>
  <speed>0.01414213562373095</speed>
  <fix>3d</fix>
</trkpt>
<trkpt lat="-35.1012209" lon="149.3751756">
  <ele>708.22</ele>
  <time>2026-09-01T19:55:48Z</time>
  <course>271.56</course>
  <speed>0.0</speed>
  <fix>3d</fix>
</trkpt>
<trkpt lat="-35.101221" lon="149.3751754">
  <ele>708.09</ele>
  <time>2026-09-01T19:55:48Z</time>
  <course>94.16</course>
  <speed>0.01414213562373095</speed>
  <fix>3d</fix>
</trkpt>
<trkpt lat="-35.1012209" lon="149.3751756">
  <ele>708.22</ele>
  <time>2026-09-01T19:55:48Z</time>
  <course>271.56</course>
  <speed>0.0</speed>
  <fix>3d</fix>
</trkpt>
<trkpt lat="-35.101221" lon="149.3751754">
  <ele>708.09</ele>
  <time>2026-09-01T19:55:48Z</time>
  <course>94.16</course>
  <speed>0.01414213562373095</speed>
  <fix>3d</fix>
</trkpt>
<trkpt lat="-35.1012209" lon="149.3751756">
  <ele>708.22</ele>
  <time>2026-09-01T19:55:48Z</time>
  <course>271.56</course>
  <speed>0.0</speed>
  <fix>3d</fix>
</trkpt>
<trkpt lat="-35.101221" lon="149.3751754">
  <ele>708.09</ele>
  <time>2026-09-01T19:55:48Z</time>
  <course>94.15</course>
  <speed>0.01414213562373095</speed>
  <fix>3d</fix>
</trkpt>
<trkpt lat="-35.1012209" lon="149.3751756">
  <ele>708.22</ele>
  <time>2026-09-01T19:55:48Z</time>
  <course>271.56</course>
  <speed>0.0</speed>
  <fix>3d</fix>
</trkpt>
<trkpt lat="-35.101221" lon="149.3751754">
  <ele>708.09</ele>
  <time>2026-09-01T19:55:48Z</time>
  <course>94.15</course>
  <speed>0.01414213562373095</speed>
  <fix>3d</fix>
</trkpt>
<trkpt lat="-35.1012209" lon="149.3751756">
  <ele>708.22</ele>
  <time>2026-09-01T19:55:48Z</time>
  <course>271.56</course>
  <speed>0.0</speed>
  <fix>3d</fix>
</trkpt>
<trkpt lat="-35.101221" lon="149.3751754">
  <ele>708.08</ele>
  <time>2026-09-01T19:55:48Z</time>
  <course>94.15</course>
  <speed>0.01414213562373095</speed>
  <fix>3d</fix>
</trkpt>
<trkpt lat="-35.1012209" lon="149.3751756">
  <ele>708.22</ele>
  <time>2026-09-01T19:55:48Z</time>
  <course>271.56</course>
  <speed>0.0</speed>
  <fix>3d</fix>
</trkpt>
<trkpt lat="-35.101221" lon="149.3751754">
  <ele>708.08</ele>
  <time>2026-09-01T19:55:48Z</time>
  <course>94.14</course>
  <speed>0.01414213562373095</speed>
  <fix>3d</fix>
</trkpt>
<trkpt lat="-35.1012209" lon="149.3751756">
  <ele>708.22</ele>
  <time>2026-09-01T19:55:48Z</time>
  <course>271.56</course>
  <speed>0.0</speed>
  <fix>3d</fix>
</trkpt>
<trkpt lat="-35.101221" lon="149.3751754">
  <ele>708.08</ele>
  <time>2026-09-01T19:55:48Z</time>
  <course>94.14</course>
  <speed>0.01414213562373095</speed>
  <fix>3d</fix>
</trkpt>
<trkpt lat="-35.1012209" lon="149.3751756">
  <ele>708.22</ele>
  <time>2026-09-01T19:55:48Z</time>
  <course>271.56</course>
  <speed>0.0</speed>
  <fix>3d</fix>
</trkpt>
<trkpt lat="-35.101221" lon="149.3751754">
  <ele>708.07</ele>
  <time>2026-09-01T19:55:48Z</time>
  <course>94.14</course>
  <speed>0.01414213562373095</speed>
  <fix>3d</fix>
</trkpt>
<trkpt lat="-35.1012209" lon="149.3751756">
  <ele>708.22</ele>
  <time>2026-09-01T19:55:48Z</time>
  <course>271.56</course>
  <speed>0.0</speed>
  <fix>3d</fix>
</trkpt>
<trkpt lat="-35.101221" lon="149.3751754">
  <ele>708.07</ele>
  <time>2026-09-01T19:55:48Z</time>
  <course>94.13</course>
  <speed>0.01414213562373095</speed>
  <fix>3d</fix>
</trkpt>
<trkpt lat="-35.1012209" lon="149.3751756">
  <ele>708.22</ele>
  <time>2026-09-01T19:55:48Z</time>
  <course>271.56</course>
  <speed>0.0</speed>
  <fix>3d</fix>
</trkpt>
<trkpt lat="-35.101221" lon="149.3751754">
  <ele>708.07</ele>
  <time>2026-09-01T19:55:48Z</time>
  <course>94.13</course>
  <speed>0.01414213562373095</speed>
  <fix>3d</fix>
</trkpt>
<trkpt lat="-35.1012209" lon="149.3751756">
  <ele>708.22</ele>
  <time>2026-09-01T19:55:48Z</time>
  <course>271.56</course>
  <speed>0.0</speed>
  <fix>3d</fix>
</trkpt>
<trkpt lat="-35.101221" lon="149.3751754">
  <ele>708.07</ele>
  <time>2026-09-01T19:55:48Z</time>
  <course>94.13</course>
  <speed>0.01414213562373095</speed>
  <fix>3d</fix>
</trkpt>
<trkpt lat="-35.1012209" lon="149.3751756">
  <ele>708.22</ele>
  <time>2026-09-01T19:55:48Z</time>
  <course>271.56</course>
  <speed>0.0</speed>
  <fix>3d</fix>
</trkpt>
<trkpt lat="-35.101221" lon="149.3751754">
  <ele>708.06</ele>
  <time>2026-09-01T19:55:48Z</time>
  <course>94.12</course>
  <speed>0.01414213562373095</speed>
  <fix>3d</fix>
</trkpt>
<trkpt lat="-35.1012209" lon="149.3751756">
  <ele>708.22</ele>
  <time>2026-09-01T19:55:48Z</time>
  <course>271.56</course>
  <speed>0.0</speed>
  <fix>3d</fix>
</trkpt>
<trkpt lat="-35.101221" lon="149.3751754">
  <ele>708.06</ele>
  <time>2026-09-01T19:55:48Z</time>
  <course>94.12</course>
  <speed>0.01414213562373095</speed>
  <fix>3d</fix>
</trkpt>
<trkpt lat="-35.1012209" lon="149.3751756">
  <ele>708.22</ele>
  <time>2026-09-01T19:55:48Z</time>
  <course>271.56</course>
  <speed>0.0</speed>
  <fix>3d</fix>
</trkpt>
<trkpt lat="-35.101221" lon="149.3751754">
  <ele>708.06</ele>
  <time>2026-09-01T19:55:48Z</time>
  <course>94.12</course>
  <speed>0.01414213562373095</speed>
  <fix>3d</fix>
</trkpt>
<trkpt lat="-35.1012209" lon="149.3751756">
  <ele>708.22</ele>
  <time>2026-09-01T19:55:48Z</time>
  <course>271.56</course>
  <speed>0.0</speed>
  <fix>3d</fix>
</trkpt>
<trkpt lat="-35.101221" lon="149.3751754">
  <ele>708.06</ele>
  <time>2026-09-01T19:55:48Z</time>
  <course>94.11</course>
  <speed>0.01414213562373095</speed>
  <fix>3d</fix>
</trkpt>
<trkpt lat="-35.1012209" lon="149.3751756">
  <ele>708.22</ele>
  <time>2026-09-01T19:55:48Z</time>
  <course>271.56</course>
  <speed>0.0</speed>
  <fix>3d</fix>
</trkpt>
<trkpt lat="-35.101221" lon="149.3751754">
  <ele>708.07</ele>
  <time>2026-09-01T19:55:48Z</time>
  <course>94.11</course>
  <speed>0.01414213562373095</speed>
  <fix>3d</fix>
</trkpt>
<trkpt lat="-35.1012209" lon="149.3751756">
  <ele>708.22</ele>
  <time>2026-09-01T19:55:48Z</time>
  <course>271.56</course>
  <speed>0.0</speed>
  <fix>3d</fix>
</trkpt>
<trkpt lat="-35.101221" lon="149.3751754">
  <ele>708.21</ele>
  <time>2026-09-01T19:55:48Z</time>
  <course>94.11</course>
  <speed>0.01414213562373095</speed>
  <fix>3d</fix>
</trkpt>
<trkpt lat="-35.1012209" lon="149.3751756">
  <ele>708.22</ele>
  <time>2026-09-01T19:55:48Z</time>
  <course>271.56</course>
  <speed>0.0</speed>
  <fix>3d</fix>
</trkpt>
<trkpt lat="-35.101221" lon="149.3751754">
  <ele>708.21</ele>
  <time>2026-09-01T19:55:48Z</time>
  <course>94.1</course>
  <speed>0.01414213562373095</speed>
  <fix>3d</fix>
</trkpt>
<trkpt lat="-35.1012209" lon="149.3751756">
  <ele>708.22</ele>
  <time>2026-09-01T19:55:48Z</time>
  <course>271.56</course>
  <speed>0.0</speed>
  <fix>3d</fix>
</trkpt>
<trkpt lat="-35.101221" lon="149.3751754">
  <ele>708.21</ele>
  <time>2026-09-01T19:55:48Z</time>
  <course>94.1</course>
  <speed>0.01414213562373095</speed>
  <fix>3d</fix>
</trkpt>
<trkpt lat="-35.1012209" lon="149.3751756">
  <ele>708.22</ele>
  <time>2026-09-01T19:55:48Z</time>
  <course>271.56</course>
  <speed>0.0</speed>
  <fix>3d</fix>
</trkpt>
<trkpt lat="-35.101221" lon="149.3751754">
  <ele>708.21</ele>
  <time>2026-09-01T19:55:48Z</time>
  <course>94.09</course>
  <speed>0.01414213562373095</speed>
  <fix>3d</fix>
</trkpt>
<trkpt lat="-35.1012209" lon="149.3751756">
  <ele>708.22</ele>
  <time>2026-09-01T19:55:48Z</time>
  <course>271.56</course>
  <speed>0.0</speed>
  <fix>3d</fix>
</trkpt>
<trkpt lat="-35.101221" lon="149.3751754">
  <ele>708.21</ele>
  <time>2026-09-01T19:55:48Z</time>
  <course>94.09</course>
  <speed>0.01414213562373095</speed>
  <fix>3d</fix>
</trkpt>
<trkpt lat="-35.1012209" lon="149.3751756">
  <ele>708.22</ele>
  <time>2026-09-01T19:55:48Z</time>
  <course>271.56</course>
  <speed>0.0</speed>
  <fix>3d</fix>
</trkpt>
<trkpt lat="-35.101221" lon="149.3751754">
  <ele>708.21</ele>
  <time>2026-09-01T19:55:48Z</time>
  <course>94.09</course>
  <speed>0.01414213562373095</speed>
  <fix>3d</fix>
</trkpt>
<trkpt lat="-35.1012209" lon="149.3751756">
  <ele>708.22</ele>
  <time>2026-09-01T19:55:48Z</time>
  <course>271.56</course>
  <speed>0.0</speed>
  <fix>3d</fix>
</trkpt>
<trkpt lat="-35.101221" lon="149.3751754">
  <ele>708.21</ele>
  <time>2026-09-01T19:55:48Z</time>
  <course>94.09</course>
  <speed>0.01414213562373095</speed>
  <fix>3d</fix>
</trkpt>
<trkpt lat="-35.1012209" lon="149.3751756">
  <ele>708.22</ele>
  <time>2026-09-01T19:55:48Z</time>
  <course>271.56</course>
  <speed>0.0</speed>
  <fix>3d</fix>
</trkpt>
<trkpt lat="-35.101221" lon="149.3751754">
  <ele>708.2</ele>
  <time>2026-09-01T19:55:48Z</time>
  <course>94.08</course>
  <speed>0.01414213562373095</speed>
  <fix>3d</fix>
</trkpt>
<trkpt lat="-35.1012209" lon="149.3751756">
  <ele>708.22</ele>
  <time>2026-09-01T19:55:48Z</time>
  <course>271.56</course>
  <speed>0.0</speed>
  <fix>3d</fix>
</trkpt>
<trkpt lat="-35.101221" lon="149.3751754">
  <ele>708.2</ele>
  <time>2026-09-01T19:55:48Z</time>
  <course>94.08</course>
  <speed>0.01414213562373095</speed>
  <fix>3d</fix>
</trkpt>
<trkpt lat="-35.1012209" lon="149.3751756">
  <ele>708.22</ele>
  <time>2026-09-01T19:55:48Z</time>
  <course>271.56</course>
  <speed>0.0</speed>
  <fix>3d</fix>
</trkpt>
<trkpt lat="-35.101221" lon="149.3751754">
  <ele>708.2</ele>
  <time>2026-09-01T19:55:48Z</time>
  <course>94.08</course>
  <speed>0.022360679774997897</speed>
  <fix>3d</fix>
</trkpt>
<trkpt lat="-35.1012209" lon="149.3751756">
  <ele>708.22</ele>
  <time>2026-09-01T19:55:48Z</time>
  <course>271.56</course>
  <speed>0.0</speed>
  <fix>3d</fix>
</trkpt>
<trkpt lat="-35.101221" lon="149.3751754">
  <ele>708.19</ele>
  <time>2026-09-01T19:55:48Z</time>
  <course>94.07</course>
  <speed>0.01414213562373095</speed>
  <fix>3d</fix>
</trkpt>
<trkpt lat="-35.1012209" lon="149.3751756">
  <ele>708.22</ele>
  <time>2026-09-01T19:55:48Z</time>
  <course>271.56</course>
  <speed>0.0</speed>
  <fix>3d</fix>
</trkpt>
<trkpt lat="-35.101221" lon="149.3751754">
  <ele>708.19</ele>
  <time>2026-09-01T19:55:48Z</time>
  <course>94.07</course>
  <speed>0.022360679774997897</speed>
  <fix>3d</fix>
</trkpt>
<trkpt lat="-35.1012209" lon="149.3751756">
  <ele>708.22</ele>
  <time>2026-09-01T19:55:48Z</time>
  <course>271.56</course>
  <speed>0.0</speed>
  <fix>3d</fix>
</trkpt>
<trkpt lat="-35.101221" lon="149.3751754">
  <ele>708.19</ele>
  <time>2026-09-01T19:55:48Z</time>
  <course>94.07</course>
  <speed>0.022360679774997897</speed>
  <fix>3d</fix>
</trkpt>
<trkpt lat="-35.1012209" lon="149.3751756">
  <ele>708.22</ele>
  <time>2026-09-01T19:55:48Z</time>
  <course>271.56</course>
  <speed>0.0</speed>
  <fix>3d</fix>
</trkpt>
<trkpt lat="-35.101221" lon="149.3751754">
  <ele>708.19</ele>
  <time>2026-09-01T19:55:48Z</time>
  <course>94.06</course>
  <speed>0.022360679774997897</speed>
  <fix>3d</fix>
</trkpt>
<trkpt lat="-35.1012209" lon="149.3751756">
  <ele>708.22</ele>
  <time>2026-09-01T19:55:48Z</time>
  <course>271.56</course>
  <speed>0.0</speed>
  <fix>3d</fix>
</trkpt>
<trkpt lat="-35.101221" lon="149.3751754">
  <ele>708.18</ele>
  <time>2026-09-01T19:55:48Z</time>
  <course>94.06</course>
  <speed>0.022360679774997897</speed>
  <fix>3d</fix>
</trkpt>
<trkpt lat="-35.1012209" lon="149.3751756">
  <ele>708.22</ele>
  <time>2026-09-01T19:55:48Z</time>
  <course>271.56</course>
  <speed>0.0</speed>
  <fix>3d</fix>
</trkpt>
<trkpt lat="-35.101221" lon="149.3751754">
  <ele>708.18</ele>
  <time>2026-09-01T19:55:48Z</time>
  <course>94.06</course>
  <speed>0.022360679774997897</speed>
  <fix>3d</fix>
</trkpt>
<trkpt lat="-35.1012209" lon="149.3751756">
  <ele>708.22</ele>
  <time>2026-09-01T19:55:48Z</time>
  <course>271.56</course>
  <speed>0.0</speed>
  <fix>3d</fix>
</trkpt>
<trkpt lat="-35.101221" lon="149.3751754">
  <ele>708.18</ele>
  <time>2026-09-01T19:55:48Z</time>
  <course>94.06</course>
  <speed>0.022360679774997897</speed>
  <fix>3d</fix>
</trkpt>
<trkpt lat="-35.1012209" lon="149.3751756">
  <ele>708.22</ele>
  <time>2026-09-01T19:55:48Z</time>
  <course>271.56</course>
  <speed>0.0</speed>
  <fix>3d</fix>
</trkpt>
<trkpt lat="-35.101221" lon="149.3751754">
  <ele>708.18</ele>
  <time>2026-09-01T19:55:48Z</time>
  <course>94.05</course>
  <speed>0.022360679774997897</speed>
  <fix>3d</fix>
</trkpt>
<trkpt lat="-35.1012209" lon="149.3751756">
  <ele>708.22</ele>
  <time>2026-09-01T19:55:48Z</time>
  <course>271.56</course>
  <speed>0.0</speed>
  <fix>3d</fix>
</trkpt>
<trkpt lat="-35.101221" lon="149.3751754">
  <ele>708.18</ele>
  <time>2026-09-01T19:55:48Z</time>
  <course>94.05</course>
  <speed>0.022360679774997897</speed>
  <fix>3d</fix>
</trkpt>
<trkpt lat="-35.1012209" lon="149.3751756">
  <ele>708.22</ele>
  <time>2026-09-01T19:55:48Z</time>
  <course>271.56</course>
  <speed>0.0</speed>
  <fix>3d</fix>
</trkpt>
<trkpt lat="-35.101221" lon="149.3751754">
  <ele>708.18</ele>
  <time>2026-09-01T19:55:48Z</time>
  <course>94.05</course>
  <speed>0.022360679774997897</speed>
  <fix>3d</fix>
</trkpt>
<trkpt lat="-35.1012209" lon="149.3751756">
  <ele>708.22</ele>
  <time>2026-09-01T19:55:48Z</time>
  <course>271.56</course>
  <speed>0.0</speed>
  <fix>3d</fix>
</trkpt>
<trkpt lat="-35.101221" lon="149.3751754">
  <ele>708.18</ele>
  <time>2026-09-01T19:55:48Z</time>
  <course>94.04</course>
  <speed>0.022360679774997897</speed>
  <fix>3d</fix>
</trkpt>
<trkpt lat="-35.1012209" lon="149.3751756">
  <ele>708.22</ele>
  <time>2026-09-01T19:55:48Z</time>
  <course>271.56</course>
  <speed>0.0</speed>
  <fix>3d</fix>
</trkpt>
<trkpt lat="-35.101221" lon="149.3751754">
  <ele>708.18</ele>
  <time>2026-09-01T19:55:48Z</time>
  <course>94.04</course>
  <speed>0.022360679774997897</speed>
  <fix>3d</fix>
</trkpt>
<trkpt lat="-35.1012209" lon="149.3751756">
  <ele>708.22</ele>
  <time>2026-09-01T19:55:48Z</time>
  <course>271.56</course>
  <speed>0.0</speed>
  <fix>3d</fix>
</trkpt>
<trkpt lat="-35.101221" lon="149.3751754">
  <ele>708.18</ele>
  <time>2026-09-01T19:55:48Z</time>
  <course>94.04</course>
  <speed>0.022360679774997897</speed>
  <fix>3d</fix>
</trkpt>
<trkpt lat="-35.1012209" lon="149.3751756">
  <ele>708.22</ele>
  <time>2026-09-01T19:55:48Z</time>
  <course>271.56</course>
  <speed>0.0</speed>
  <fix>3d</fix>
</trkpt>
<trkpt lat="-35.101221" lon="149.3751754">
  <ele>708.18</ele>
  <time>2026-09-01T19:55:48Z</time>
  <course>94.03</course>
  <speed>0.022360679774997897</speed>
  <fix>3d</fix>
</trkpt>
<trkpt lat="-35.1012209" lon="149.3751756">
  <ele>708.22</ele>
  <time>2026-09-01T19:55:48Z</time>
  <course>271.56</course>
  <speed>0.0</speed>
  <fix>3d</fix>
</trkpt>
<trkpt lat="-35.101221" lon="149.3751754">
  <ele>708.18</ele>
  <time>2026-09-01T19:55:48Z</time>
  <course>94.03</course>
  <speed>0.022360679774997897</speed>
  <fix>3d</fix>
</trkpt>
<trkpt lat="-35.1012209" lon="149.3751756">
  <ele>708.22</ele>
  <time>2026-09-01T19:55:48Z</time>
  <course>271.56</course>
  <speed>0.0</speed>
  <fix>3d</fix>
</trkpt>
<trkpt lat="-35.101221" lon="149.3751754">
  <ele>708.18</ele>
  <time>2026-09-01T19:55:48Z</time>
  <course>94.03</course>
  <speed>0.022360679774997897</speed>
  <fix>3d</fix>
</trkpt>
<trkpt lat="-35.1012209" lon="149.3751756">
  <ele>708.22</ele>
  <time>2026-09-01T19:55:48Z</time>
  <course>271.56</course>
  <speed>0.0</speed>
  <fix>3d</fix>
</trkpt>
<trkpt lat="-35.101221" lon="149.3751754">
  <ele>708.18</ele>
  <time>2026-09-01T19:55:48Z</time>
  <course>94.03</course>
  <speed>0.022360679774997897</speed>
  <fix>3d</fix>
</trkpt>
<trkpt lat="-35.1012209" lon="149.3751756">
  <ele>708.22</ele>
  <time>2026-09-01T19:55:48Z</time>
  <course>271.56</course>
  <speed>0.0</speed>
  <fix>3d</fix>
</trkpt>
<trkpt lat="-35.101221" lon="149.3751754">
  <ele>708.18</ele>
  <time>2026-09-01T19:55:48Z</time>
  <course>94.02</course>
  <speed>0.022360679774997897</speed>
  <fix>3d</fix>
</trkpt>
<trkpt lat="-35.1012209" lon="149.3751756">
  <ele>708.22</ele>
  <time>2026-09-01T19:55:48Z</time>
  <course>271.56</course>
  <speed>0.0</speed>
  <fix>3d</fix>
</trkpt>
<trkpt lat="-35.101221" lon="149.3751754">
  <ele>708.17</ele>
  <time>2026-09-01T19:55:48Z</time>
  <course>94.02</course>
  <speed>0.022360679774997897</speed>
  <fix>3d</fix>
</trkpt>
<trkpt lat="-35.1012209" lon="149.3751756">
  <ele>708.22</ele>
  <time>2026-09-01T19:55:48Z</time>
  <course>271.56</course>
  <speed>0.0</speed>
  <fix>3d</fix>
</trkpt>
<trkpt lat="-35.101221" lon="149.3751754">
  <ele>708.17</ele>
  <time>2026-09-01T19:55:48Z</time>
  <course>94.02</course>
  <speed>0.022360679774997897</speed>
  <fix>3d</fix>
</trkpt>
<trkpt lat="-35.1012209" lon="149.3751756">
  <ele>708.22</ele>
  <time>2026-09-01T19:55:48Z</time>
  <course>271.56</course>
  <speed>0.0</speed>
  <fix>3d</fix>
</trkpt>
<trkpt lat="-35.101221" lon="149.3751754">
  <ele>708.17</ele>
  <time>2026-09-01T19:55:48Z</time>
  <course>94.01</course>
  <speed>0.022360679774997897</speed>
  <fix>3d</fix>
</trkpt>
<trkpt lat="-35.1012209" lon="149.3751756">
  <ele>708.22</ele>
  <time>2026-09-01T19:55:48Z</time>
  <course>271.56</course>
  <speed>0.0</speed>
  <fix>3d</fix>
</trkpt>
<trkpt lat="-35.101221" lon="149.3751754">
  <ele>708.17</ele>
  <time>2026-09-01T19:55:48Z</time>
  <course>94.01</course>
  <speed>0.022360679774997897</speed>
  <fix>3d</fix>
</trkpt>
<trkpt lat="-35.1012209" lon="149.3751756">
  <ele>708.22</ele>
  <time>2026-09-01T19:55:48Z</time>
  <course>271.56</course>
  <speed>0.0</speed>
  <fix>3d</fix>
</trkpt>
<trkpt lat="-35.101221" lon="149.3751754">
  <ele>708.16</ele>
  <time>2026-09-01T19:55:48Z</time>
  <course>94.01</course>
  <speed>0.022360679774997897</speed>
  <fix>3d</fix>
</trkpt>
<trkpt lat="-35.1012209" lon="149.3751756">
  <ele>708.22</ele>
  <time>2026-09-01T19:55:48Z</time>
  <course>271.56</course>
  <speed>0.0</speed>
  <fix>3d</fix>
</trkpt>
<trkpt lat="-35.101221" lon="149.3751754">
  <ele>708.16</ele>
  <time>2026-09-01T19:55:48Z</time>
  <course>94.01</course>
  <speed>0.022360679774997897</speed>
  <fix>3d</fix>
</trkpt>
<trkpt lat="-35.1012209" lon="149.3751756">
  <ele>708.22</ele>
  <time>2026-09-01T19:55:48Z</time>
  <course>271.56</course>
  <speed>0.0</speed>
  <fix>3d</fix>
</trkpt>
<trkpt lat="-35.101221" lon="149.3751754">
  <ele>708.16</ele>
  <time>2026-09-01T19:55:48Z</time>
  <course>94.0</course>
  <speed>0.022360679774997897</speed>
  <fix>3d</fix>
</trkpt>
<trkpt lat="-35.1012209" lon="149.3751756">
  <ele>708.22</ele>
  <time>2026-09-01T19:55:48Z</time>
  <course>271.56</course>
  <speed>0.0</speed>
  <fix>3d</fix>
</trkpt>
<trkpt lat="-35.101221" lon="149.3751754">
  <ele>708.16</ele>
  <time>2026-09-01T19:55:48Z</time>
  <course>94.0</course>
  <speed>0.022360679774997897</speed>
  <fix>3d</fix>
</trkpt>
<trkpt lat="-35.1012209" lon="149.3751756">
  <ele>708.22</ele>
  <time>2026-09-01T19:55:48Z</time>
  <course>271.56</course>
  <speed>0.0</speed>
  <fix>3d</fix>
</trkpt>
<trkpt lat="-35.101221" lon="149.3751754">
  <ele>708.15</ele>
  <time>2026-09-01T19:55:48Z</time>
  <course>94.0</course>
  <speed>0.022360679774997897</speed>
  <fix>3d</fix>
</trkpt>
<trkpt lat="-35.1012209" lon="149.3751756">
  <ele>708.22</ele>
  <time>2026-09-01T19:55:48Z</time>
  <course>271.56</course>
  <speed>0.0</speed>
  <fix>3d</fix>
</trkpt>
<trkpt lat="-35.101221" lon="149.3751754">
  <ele>708.15</ele>
  <time>2026-09-01T19:55:48Z</time>
  <course>94.0</course>
  <speed>0.022360679774997897</speed>
  <fix>3d</fix>
</trkpt>
<trkpt lat="-35.1012209" lon="149.3751756">
  <ele>708.22</ele>
  <time>2026-09-01T19:55:48Z</time>
  <course>271.56</course>
  <speed>0.0</speed>
  <fix>3d</fix>
</trkpt>
<trkpt lat="-35.101221" lon="149.3751754">
  <ele>708.15</ele>
  <time>2026-09-01T19:55:48Z</time>
  <course>93.99</course>
  <speed>0.022360679774997897</speed>
  <fix>3d</fix>
</trkpt>
<trkpt lat="-35.1012209" lon="149.3751756">
  <ele>708.22</ele>
  <time>2026-09-01T19:55:48Z</time>
  <course>271.56</course>
  <speed>0.0</speed>
  <fix>3d</fix>
</trkpt>
<trkpt lat="-35.101221" lon="149.3751754">
  <ele>708.15</ele>
  <time>2026-09-01T19:55:48Z</time>
  <course>93.99</course>
  <speed>0.022360679774997897</speed>
  <fix>3d</fix>
</trkpt>
<trkpt lat="-35.1012209" lon="149.3751756">
  <ele>708.22</ele>
  <time>2026-09-01T19:55:48Z</time>
  <course>271.56</course>
  <speed>0.0</speed>
  <fix>3d</fix>
</trkpt>
<trkpt lat="-35.101221" lon="149.3751754">
  <ele>708.15</ele>
  <time>2026-09-01T19:55:48Z</time>
  <course>93.99</course>
  <speed>0.022360679774997897</speed>
  <fix>3d</fix>
</trkpt>
<trkpt lat="-35.1012209" lon="149.3751756">
  <ele>708.22</ele>
  <time>2026-09-01T19:55:48Z</time>
  <course>271.56</course>
  <speed>0.0</speed>
  <fix>3d</fix>
</trkpt>
<trkpt lat="-35.101221" lon="149.3751754">
  <ele>708.14</ele>
  <time>2026-09-01T19:55:48Z</time>
  <course>93.98</course>
  <speed>0.022360679774997897</speed>
  <fix>3d</fix>
</trkpt>
<trkpt lat="-35.1012209" lon="149.3751756">
  <ele>708.22</ele>
  <time>2026-09-01T19:55:48Z</time>
  <course>271.56</course>
  <speed>0.0</speed>
  <fix>3d</fix>
</trkpt>
<trkpt lat="-35.101221" lon="149.3751754">
  <ele>708.14</ele>
  <time>2026-09-01T19:55:48Z</time>
  <course>93.98</course>
  <speed>0.022360679774997897</speed>
  <fix>3d</fix>
</trkpt>
<trkpt lat="-35.1012209" lon="149.3751756">
  <ele>708.22</ele>
  <time>2026-09-01T19:55:48Z</time>
  <course>271.56</course>
  <speed>0.0</speed>
  <fix>3d</fix>
</trkpt>
<trkpt lat="-35.101221" lon="149.3751754">
  <ele>708.14</ele>
  <time>2026-09-01T19:55:48Z</time>
  <course>93.98</course>
  <speed>0.022360679774997897</speed>
  <fix>3d</fix>
</trkpt>
<trkpt lat="-35.1012209" lon="149.3751756">
  <ele>708.22</ele>
  <time>2026-09-01T19:55:48Z</time>
  <course>271.56</course>
  <speed>0.0</speed>
  <fix>3d</fix>
</trkpt>
<trkpt lat="-35.101221" lon="149.3751754">
  <ele>708.14</ele>
  <time>2026-09-01T19:55:48Z</time>
  <course>93.98</course>
  <speed>0.022360679774997897</speed>
  <fix>3d</fix>
</trkpt>
<trkpt lat="-35.1012209" lon="149.3751756">
  <ele>708.22</ele>
  <time>2026-09-01T19:55:48Z</time>
  <course>271.56</course>
  <speed>0.0</speed>
  <fix>3d</fix>
</trkpt>
<trkpt lat="-35.101221" lon="149.3751754">
  <ele>708.14</ele>
  <time>2026-09-01T19:55:48Z</time>
  <course>93.97</course>
  <speed>0.022360679774997897</speed>
  <fix>3d</fix>
</trkpt>
<trkpt lat="-35.1012209" lon="149.3751756">
  <ele>708.22</ele>
  <time>2026-09-01T19:55:48Z</time>
  <course>271.56</course>
  <speed>0.0</speed>
  <fix>3d</fix>
</trkpt>
<trkpt lat="-35.101221" lon="149.3751754">
  <ele>708.14</ele>
  <time>2026-09-01T19:55:48Z</time>
  <course>93.97</course>
  <speed>0.022360679774997897</speed>
  <fix>3d</fix>
</trkpt>
<trkpt lat="-35.1012209" lon="149.3751756">
  <ele>708.22</ele>
  <time>2026-09-01T19:55:48Z</time>
  <course>271.56</course>
  <speed>0.0</speed>
  <fix>3d</fix>
</trkpt>
<trkpt lat="-35.101221" lon="149.3751754">
  <ele>708.14</ele>
  <time>2026-09-01T19:55:48Z</time>
  <course>93.97</course>
  <speed>0.022360679774997897</speed>
  <fix>3d</fix>
</trkpt>
<trkpt lat="-35.1012209" lon="149.3751756">
  <ele>708.22</ele>
  <time>2026-09-01T19:55:48Z</time>
  <course>271.56</course>
  <speed>0.0</speed>
  <fix>3d</fix>
</trkpt>
<trkpt lat="-35.101221" lon="149.3751754">
  <ele>708.14</ele>
  <time>2026-09-01T19:55:48Z</time>
  <course>93.96</course>
  <speed>0.022360679774997897</speed>
  <fix>3d</fix>
</trkpt>
<trkpt lat="-35.1012209" lon="149.3751756">
  <ele>708.22</ele>
  <time>2026-09-01T19:55:48Z</time>
  <course>271.56</course>
  <speed>0.0</speed>
  <fix>3d</fix>
</trkpt>
<trkpt lat="-35.101221" lon="149.3751754">
  <ele>708.13</ele>
  <time>2026-09-01T19:55:48Z</time>
  <course>93.96</course>
  <speed>0.022360679774997897</speed>
  <fix>3d</fix>
</trkpt>
<trkpt lat="-35.1012209" lon="149.3751756">
  <ele>708.22</ele>
  <time>2026-09-01T19:55:48Z</time>
  <course>271.56</course>
  <speed>0.0</speed>
  <fix>3d</fix>
</trkpt>
<trkpt lat="-35.101221" lon="149.3751754">
  <ele>708.13</ele>
  <time>2026-09-01T19:55:48Z</time>
  <course>93.96</course>
  <speed>0.022360679774997897</speed>
  <fix>3d</fix>
</trkpt>
<trkpt lat="-35.1012209" lon="149.3751756">
  <ele>708.22</ele>
  <time>2026-09-01T19:55:48Z</time>
  <course>271.56</course>
  <speed>0.0</speed>
  <fix>3d</fix>
</trkpt>
<trkpt lat="-35.101221" lon="149.3751754">
  <ele>708.13</ele>
  <time>2026-09-01T19:55:48Z</time>
  <course>93.96</course>
  <speed>0.022360679774997897</speed>
  <fix>3d</fix>
</trkpt>
<trkpt lat="-35.1012209" lon="149.3751756">
  <ele>708.22</ele>
  <time>2026-09-01T19:55:48Z</time>
  <course>271.56</course>
  <speed>0.0</speed>
  <fix>3d</fix>
</trkpt>
<trkpt lat="-35.101221" lon="149.3751754">
  <ele>708.13</ele>
  <time>2026-09-01T19:55:48Z</time>
  <course>93.95</course>
  <speed>0.022360679774997897</speed>
  <fix>3d</fix>
</trkpt>
<trkpt lat="-35.1012209" lon="149.3751756">
  <ele>708.22</ele>
  <time>2026-09-01T19:55:48Z</time>
  <course>271.56</course>
  <speed>0.0</speed>
  <fix>3d</fix>
</trkpt>
<trkpt lat="-35.101221" lon="149.3751754">
  <ele>708.13</ele>
  <time>2026-09-01T19:55:48Z</time>
  <course>93.95</course>
  <speed>0.022360679774997897</speed>
  <fix>3d</fix>
</trkpt>
<trkpt lat="-35.1012209" lon="149.3751756">
  <ele>708.22</ele>
  <time>2026-09-01T19:55:48Z</time>
  <course>271.56</course>
  <speed>0.0</speed>
  <fix>3d</fix>
</trkpt>
<trkpt lat="-35.101221" lon="149.3751754">
  <ele>708.13</ele>
  <time>2026-09-01T19:55:48Z</time>
  <course>93.95</course>
  <speed>0.022360679774997897</speed>
  <fix>3d</fix>
</trkpt>
<trkpt lat="-35.1012209" lon="149.3751756">
  <ele>708.22</ele>
  <time>2026-09-01T19:55:48Z</time>
  <course>271.56</course>
  <speed>0.0</speed>
  <fix>3d</fix>
</trkpt>
<trkpt lat="-35.101221" lon="149.3751754">
  <ele>708.13</ele>
  <time>2026-09-01T19:55:48Z</time>
  <course>93.95</course>
  <speed>0.022360679774997897</speed>
  <fix>3d</fix>
</trkpt>
<trkpt lat="-35.1012209" lon="149.3751756">
  <ele>708.22</ele>
  <time>2026-09-01T19:55:48Z</time>
  <course>271.56</course>
  <speed>0.0</speed>
  <fix>3d</fix>
</trkpt>
<trkpt lat="-35.101221" lon="149.3751754">
  <ele>708.13</ele>
  <time>2026-09-01T19:55:48Z</time>
  <course>93.94</course>
  <speed>0.022360679774997897</speed>
  <fix>3d</fix>
</trkpt>
<trkpt lat="-35.1012209" lon="149.3751756">
  <ele>708.22</ele>
  <time>2026-09-01T19:55:48Z</time>
  <course>271.56</course>
  <speed>0.0</speed>
  <fix>3d</fix>
</trkpt>
<trkpt lat="-35.101221" lon="149.3751754">
  <ele>708.12</ele>
  <time>2026-09-01T19:55:48Z</time>
  <course>93.94</course>
  <speed>0.022360679774997897</speed>
  <fix>3d</fix>
</trkpt>
<trkpt lat="-35.1012209" lon="149.3751756">
  <ele>708.22</ele>
  <time>2026-09-01T19:55:48Z</time>
  <course>271.56</course>
  <speed>0.0</speed>
  <fix>3d</fix>
</trkpt>
<trkpt lat="-35.101221" lon="149.3751754">
  <ele>708.12</ele>
  <time>2026-09-01T19:55:48Z</time>
  <course>93.94</course>
  <speed>0.022360679774997897</speed>
  <fix>3d</fix>
</trkpt>
<trkpt lat="-35.1012209" lon="149.3751756">
  <ele>708.22</ele>
  <time>2026-09-01T19:55:48Z</time>
  <course>271.56</course>
  <speed>0.0</speed>
  <fix>3d</fix>
</trkpt>
<trkpt lat="-35.101221" lon="149.3751754">
  <ele>708.12</ele>
  <time>2026-09-01T19:55:48Z</time>
  <course>93.94</course>
  <speed>0.022360679774997897</speed>
  <fix>3d</fix>
</trkpt>
<trkpt lat="-35.1012209" lon="149.3751756">
  <ele>708.22</ele>
  <time>2026-09-01T19:55:48Z</time>
  <course>271.56</course>
  <speed>0.0</speed>
  <fix>3d</fix>
</trkpt>
<trkpt lat="-35.101221" lon="149.3751754">
  <ele>708.21</ele>
  <time>2026-09-01T19:55:48Z</time>
  <course>93.94</course>
  <speed>0.022360679774997897</speed>
  <fix>3d</fix>
</trkpt>
<trkpt lat="-35.1012209" lon="149.3751756">
  <ele>708.22</ele>
  <time>2026-09-01T19:55:48Z</time>
  <course>271.56</course>
  <speed>0.0</speed>
  <fix>3d</fix>
</trkpt>
<trkpt lat="-35.101221" lon="149.3751754">
  <ele>708.21</ele>
  <time>2026-09-01T19:55:48Z</time>
  <course>93.93</course>
  <speed>0.022360679774997897</speed>
  <fix>3d</fix>
</trkpt>
<trkpt lat="-35.1012209" lon="149.3751756">
  <ele>708.22</ele>
  <time>2026-09-01T19:55:48Z</time>
  <course>271.56</course>
  <speed>0.0</speed>
  <fix>3d</fix>
</trkpt>
<trkpt lat="-35.101221" lon="149.3751754">
  <ele>708.21</ele>
  <time>2026-09-01T19:55:48Z</time>
  <course>93.93</course>
  <speed>0.022360679774997897</speed>
  <fix>3d</fix>
</trkpt>
<trkpt lat="-35.1012209" lon="149.3751756">
  <ele>708.22</ele>
  <time>2026-09-01T19:55:48Z</time>
  <course>271.56</course>
  <speed>0.0</speed>
  <fix>3d</fix>
</trkpt>
<trkpt lat="-35.101221" lon="149.3751754">
  <ele>708.21</ele>
  <time>2026-09-01T19:55:48Z</time>
  <course>93.93</course>
  <speed>0.022360679774997897</speed>
  <fix>3d</fix>
</trkpt>
<trkpt lat="-35.1012209" lon="149.3751756">
  <ele>708.22</ele>
  <time>2026-09-01T19:55:48Z</time>
  <course>271.56</course>
  <speed>0.0</speed>
  <fix>3d</fix>
</trkpt>
<trkpt lat="-35.101221" lon="149.3751754">
  <ele>708.21</ele>
  <time>2026-09-01T19:55:48Z</time>
  <course>93.93</course>
  <speed>0.022360679774997897</speed>
  <fix>3d</fix>
</trkpt>
<trkpt lat="-35.1012209" lon="149.3751756">
  <ele>708.22</ele>
  <time>2026-09-01T19:55:48Z</time>
  <course>271.56</course>
  <speed>0.0</speed>
  <fix>3d</fix>
</trkpt>
<trkpt lat="-35.101221" lon="149.3751754">
  <ele>708.22</ele>
  <time>2026-09-01T19:55:48Z</time>
  <course>93.92</course>
  <speed>0.022360679774997897</speed>
  <fix>3d</fix>
</trkpt>
<trkpt lat="-35.1012209" lon="149.3751756">
  <ele>708.22</ele>
  <time>2026-09-01T19:55:48Z</time>
  <course>271.56</course>
  <speed>0.0</speed>
  <fix>3d</fix>
</trkpt>
<trkpt lat="-35.101221" lon="149.3751754">
  <ele>708.22</ele>
  <time>2026-09-01T19:55:48Z</time>
  <course>93.92</course>
  <speed>0.022360679774997897</speed>
  <fix>3d</fix>
</trkpt>
<trkpt lat="-35.1012209" lon="149.3751756">
  <ele>708.22</ele>
  <time>2026-09-01T19:55:48Z</time>
  <course>271.56</course>
  <speed>0.0</speed>
  <fix>3d</fix>
</trkpt>
<trkpt lat="-35.101221" lon="149.3751754">
  <ele>708.22</ele>
  <time>2026-09-01T19:55:48Z</time>
  <course>93.92</course>
  <speed>0.022360679774997897</speed>
  <fix>3d</fix>
</trkpt>
<trkpt lat="-35.1012209" lon="149.3751756">
  <ele>708.22</ele>
  <time>2026-09-01T19:55:48Z</time>
  <course>271.56</course>
  <speed>0.0</speed>
  <fix>3d</fix>
</trkpt>
<trkpt lat="-35.101221" lon="149.3751754">
  <ele>708.23</ele>
  <time>2026-09-01T19:55:48Z</time>
  <course>93.92</course>
  <speed>0.022360679774997897</speed>
  <fix>3d</fix>
</trkpt>
<trkpt lat="-35.1012209" lon="149.3751756">
  <ele>708.22</ele>
  <time>2026-09-01T19:55:48Z</time>
  <course>271.56</course>
  <speed>0.0</speed>
  <fix>3d</fix>
</trkpt>
<trkpt lat="-35.101221" lon="149.3751754">
  <ele>708.23</ele>
  <time>2026-09-01T19:55:48Z</time>
  <course>93.91</course>
  <speed>0.022360679774997897</speed>
  <fix>3d</fix>
</trkpt>
<trkpt lat="-35.1012209" lon="149.3751756">
  <ele>708.22</ele>
  <time>2026-09-01T19:55:48Z</time>
  <course>271.56</course>
  <speed>0.0</speed>
  <fix>3d</fix>
</trkpt>
<trkpt lat="-35.101221" lon="149.3751754">
  <ele>708.24</ele>
  <time>2026-09-01T19:55:48Z</time>
  <course>93.91</course>
  <speed>0.022360679774997897</speed>
  <fix>3d</fix>
</trkpt>
<trkpt lat="-35.1012209" lon="149.3751756">
  <ele>708.22</ele>
  <time>2026-09-01T19:55:48Z</time>
  <course>271.56</course>
  <speed>0.0</speed>
  <fix>3d</fix>
</trkpt>
<trkpt lat="-35.101221" lon="149.3751754">
  <ele>708.24</ele>
  <time>2026-09-01T19:55:48Z</time>
  <course>93.91</course>
  <speed>0.022360679774997897</speed>
  <fix>3d</fix>
</trkpt>
<trkpt lat="-35.1012209" lon="149.3751756">
  <ele>708.22</ele>
  <time>2026-09-01T19:55:48Z</time>
  <course>271.56</course>
  <speed>0.0</speed>
  <fix>3d</fix>
</trkpt>
<trkpt lat="-35.101221" lon="149.3751754">
  <ele>708.24</ele>
  <time>2026-09-01T19:55:48Z</time>
  <course>93.9</course>
  <speed>0.022360679774997897</speed>
  <fix>3d</fix>
</trkpt>
<trkpt lat="-35.1012209" lon="149.3751756">
  <ele>708.22</ele>
  <time>2026-09-01T19:55:48Z</time>
  <course>271.56</course>
  <speed>0.0</speed>
  <fix>3d</fix>
</trkpt>
<trkpt lat="-35.101221" lon="149.3751754">
  <ele>708.25</ele>
  <time>2026-09-01T19:55:48Z</time>
  <course>93.9</course>
  <speed>0.022360679774997897</speed>
  <fix>3d</fix>
</trkpt>
<trkpt lat="-35.1012209" lon="149.3751756">
  <ele>708.22</ele>
  <time>2026-09-01T19:55:48Z</time>
  <course>271.56</course>
  <speed>0.0</speed>
  <fix>3d</fix>
</trkpt>
<trkpt lat="-35.101221" lon="149.3751754">
  <ele>708.25</ele>
  <time>2026-09-01T19:55:48Z</time>
  <course>93.9</course>
  <speed>0.022360679774997897</speed>
  <fix>3d</fix>
</trkpt>
<trkpt lat="-35.1012209" lon="149.3751756">
  <ele>708.22</ele>
  <time>2026-09-01T19:55:48Z</time>
  <course>271.56</course>
  <speed>0.0</speed>
  <fix>3d</fix>
</trkpt>
<trkpt lat="-35.101221" lon="149.3751754">
  <ele>708.25</ele>
  <time>2026-09-01T19:55:48Z</time>
  <course>93.9</course>
  <speed>0.022360679774997897</speed>
  <fix>3d</fix>
</trkpt>
<trkpt lat="-35.1012209" lon="149.3751756">
  <ele>708.22</ele>
  <time>2026-09-01T19:55:48Z</time>
  <course>271.56</course>
  <speed>0.0</speed>
  <fix>3d</fix>
</trkpt>
<trkpt lat="-35.101221" lon="149.3751754">
  <ele>708.26</ele>
  <time>2026-09-01T19:55:48Z</time>
  <course>93.9</course>
  <speed>0.022360679774997897</speed>
  <fix>3d</fix>
</trkpt>
<trkpt lat="-35.1012209" lon="149.3751756">
  <ele>708.22</ele>
  <time>2026-09-01T19:55:48Z</time>
  <course>271.56</course>
  <speed>0.0</speed>
  <fix>3d</fix>
</trkpt>
<trkpt lat="-35.101221" lon="149.3751754">
  <ele>708.26</ele>
  <time>2026-09-01T19:55:48Z</time>
  <course>93.89</course>
  <speed>0.022360679774997897</speed>
  <fix>3d</fix>
</trkpt>
<trkpt lat="-35.1012209" lon="149.3751756">
  <ele>708.22</ele>
  <time>2026-09-01T19:55:48Z</time>
  <course>271.56</course>
  <speed>0.0</speed>
  <fix>3d</fix>
</trkpt>
<trkpt lat="-35.101221" lon="149.3751754">
  <ele>708.26</ele>
  <time>2026-09-01T19:55:48Z</time>
  <course>93.89</course>
  <speed>0.022360679774997897</speed>
  <fix>3d</fix>
</trkpt>
<trkpt lat="-35.1012209" lon="149.3751756">
  <ele>708.22</ele>
  <time>2026-09-01T19:55:48Z</time>
  <course>271.56</course>
  <speed>0.0</speed>
  <fix>3d</fix>
</trkpt>
<trkpt lat="-35.101221" lon="149.3751754">
  <ele>708.27</ele>
  <time>2026-09-01T19:55:48Z</time>
  <course>93.89</course>
  <speed>0.022360679774997897</speed>
  <fix>3d</fix>
</trkpt>
<trkpt lat="-35.1012209" lon="149.3751756">
  <ele>708.22</ele>
  <time>2026-09-01T19:55:48Z</time>
  <course>271.56</course>
  <speed>0.0</speed>
  <fix>3d</fix>
</trkpt>
<trkpt lat="-35.101221" lon="149.3751754">
  <ele>708.27</ele>
  <time>2026-09-01T19:55:48Z</time>
  <course>93.89</course>
  <speed>0.022360679774997897</speed>
  <fix>3d</fix>
</trkpt>
<trkpt lat="-35.1012209" lon="149.3751756">
  <ele>708.22</ele>
  <time>2026-09-01T19:55:48Z</time>
  <course>271.56</course>
  <speed>0.0</speed>
  <fix>3d</fix>
</trkpt>
<trkpt lat="-35.101221" lon="149.3751754">
  <ele>708.28</ele>
  <time>2026-09-01T19:55:48Z</time>
  <course>93.88</course>
  <speed>0.022360679774997897</speed>
  <fix>3d</fix>
</trkpt>
<trkpt lat="-35.1012209" lon="149.3751756">
  <ele>708.22</ele>
  <time>2026-09-01T19:55:48Z</time>
  <course>271.56</course>
  <speed>0.0</speed>
  <fix>3d</fix>
</trkpt>
<trkpt lat="-35.101221" lon="149.3751754">
  <ele>708.28</ele>
  <time>2026-09-01T19:55:48Z</time>
  <course>93.88</course>
  <speed>0.022360679774997897</speed>
  <fix>3d</fix>
</trkpt>
<trkpt lat="-35.1012209" lon="149.3751756">
  <ele>708.22</ele>
  <time>2026-09-01T19:55:48Z</time>
  <course>271.56</course>
  <speed>0.0</speed>
  <fix>3d</fix>
</trkpt>
<trkpt lat="-35.101221" lon="149.3751754">
  <ele>708.28</ele>
  <time>2026-09-01T19:55:48Z</time>
  <course>93.88</course>
  <speed>0.022360679774997897</speed>
  <fix>3d</fix>
</trkpt>
<trkpt lat="-35.1012209" lon="149.3751756">
  <ele>708.22</ele>
  <time>2026-09-01T19:55:48Z</time>
  <course>271.56</course>
  <speed>0.0</speed>
  <fix>3d</fix>
</trkpt>
<trkpt lat="-35.101221" lon="149.3751754">
  <ele>708.29</ele>
  <time>2026-09-01T19:55:48Z</time>
  <course>93.88</course>
  <speed>0.022360679774997897</speed>
  <fix>3d</fix>
</trkpt>
<trkpt lat="-35.1012209" lon="149.3751756">
  <ele>708.22</ele>
  <time>2026-09-01T19:55:48Z</time>
  <course>271.56</course>
  <speed>0.0</speed>
  <fix>3d</fix>
</trkpt>
<trkpt lat="-35.101221" lon="149.3751754">
  <ele>708.3</ele>
  <time>2026-09-01T19:55:48Z</time>
  <course>93.88</course>
  <speed>0.022360679774997897</speed>
  <fix>3d</fix>
</trkpt>
<trkpt lat="-35.1012209" lon="149.3751756">
  <ele>708.22</ele>
  <time>2026-09-01T19:55:48Z</time>
  <course>271.56</course>
  <speed>0.0</speed>
  <fix>3d</fix>
</trkpt>
<trkpt lat="-35.101221" lon="149.3751754">
  <ele>708.3</ele>
  <time>2026-09-01T19:55:48Z</time>
  <course>93.87</course>
  <speed>0.022360679774997897</speed>
  <fix>3d</fix>
</trkpt>
<trkpt lat="-35.1012209" lon="149.3751756">
  <ele>708.22</ele>
  <time>2026-09-01T19:55:48Z</time>
  <course>271.56</course>
  <speed>0.0</speed>
  <fix>3d</fix>
</trkpt>
<trkpt lat="-35.101221" lon="149.3751754">
  <ele>708.3</ele>
  <time>2026-09-01T19:55:48Z</time>
  <course>93.87</course>
  <speed>0.022360679774997897</speed>
  <fix>3d</fix>
</trkpt>
<trkpt lat="-35.1012209" lon="149.3751756">
  <ele>708.22</ele>
  <time>2026-09-01T19:55:48Z</time>
  <course>271.56</course>
  <speed>0.0</speed>
  <fix>3d</fix>
</trkpt>
<trkpt lat="-35.101221" lon="149.3751754">
  <ele>708.3</ele>
  <time>2026-09-01T19:55:48Z</time>
  <course>93.87</course>
  <speed>0.022360679774997897</speed>
  <fix>3d</fix>
</trkpt>
<trkpt lat="-35.1012209" lon="149.3751756">
  <ele>708.22</ele>
  <time>2026-09-01T19:55:48Z</time>
  <course>271.56</course>
  <speed>0.0</speed>
  <fix>3d</fix>
</trkpt>
<trkpt lat="-35.101221" lon="149.3751754">
  <ele>708.3</ele>
  <time>2026-09-01T19:55:49Z</time>
  <course>93.87</course>
  <speed>0.022360679774997897</speed>
  <fix>3d</fix>
</trkpt>
<trkpt lat="-35.1012209" lon="149.3751756">
  <ele>708.22</ele>
  <time>2026-09-01T19:55:49Z</time>
  <course>271.56</course>
  <speed>0.0</speed>
  <fix>3d</fix>
</trkpt>
<trkpt lat="-35.101221" lon="149.3751754">
  <ele>708.3</ele>
  <time>2026-09-01T19:55:49Z</time>
  <course>93.86</course>
  <speed>0.022360679774997897</speed>
  <fix>3d</fix>
</trkpt>
<trkpt lat="-35.1012209" lon="149.3751756">
  <ele>708.22</ele>
  <time>2026-09-01T19:55:49Z</time>
  <course>271.56</course>
  <speed>0.0</speed>
  <fix>3d</fix>
</trkpt>
<trkpt lat="-35.101221" lon="149.3751754">
  <ele>708.31</ele>
  <time>2026-09-01T19:55:49Z</time>
  <course>93.86</course>
  <speed>0.022360679774997897</speed>
  <fix>3d</fix>
</trkpt>
<trkpt lat="-35.1012209" lon="149.3751756">
  <ele>708.22</ele>
  <time>2026-09-01T19:55:49Z</time>
  <course>271.56</course>
  <speed>0.0</speed>
  <fix>3d</fix>
</trkpt>
<trkpt lat="-35.101221" lon="149.3751754">
  <ele>708.31</ele>
  <time>2026-09-01T19:55:49Z</time>
  <course>93.86</course>
  <speed>0.022360679774997897</speed>
  <fix>3d</fix>
</trkpt>
<trkpt lat="-35.1012209" lon="149.3751756">
  <ele>708.22</ele>
  <time>2026-09-01T19:55:49Z</time>
  <course>271.56</course>
  <speed>0.0</speed>
  <fix>3d</fix>
</trkpt>
<trkpt lat="-35.101221" lon="149.3751754">
  <ele>708.31</ele>
  <time>2026-09-01T19:55:49Z</time>
  <course>93.86</course>
  <speed>0.022360679774997897</speed>
  <fix>3d</fix>
</trkpt>
<trkpt lat="-35.1012209" lon="149.3751756">
  <ele>708.22</ele>
  <time>2026-09-01T19:55:49Z</time>
  <course>271.56</course>
  <speed>0.0</speed>
  <fix>3d</fix>
</trkpt>
<trkpt lat="-35.101221" lon="149.3751754">
  <ele>708.31</ele>
  <time>2026-09-01T19:55:49Z</time>
  <course>93.86</course>
  <speed>0.022360679774997897</speed>
  <fix>3d</fix>
</trkpt>
<trkpt lat="-35.1012209" lon="149.3751756">
  <ele>708.22</ele>
  <time>2026-09-01T19:55:49Z</time>
  <course>271.56</course>
  <speed>0.0</speed>
  <fix>3d</fix>
</trkpt>
<trkpt lat="-35.101221" lon="149.3751754">
  <ele>708.31</ele>
  <time>2026-09-01T19:55:49Z</time>
  <course>93.85</course>
  <speed>0.022360679774997897</speed>
  <fix>3d</fix>
</trkpt>
<trkpt lat="-35.1012209" lon="149.3751756">
  <ele>708.22</ele>
  <time>2026-09-01T19:55:49Z</time>
  <course>271.56</course>
  <speed>0.0</speed>
  <fix>3d</fix>
</trkpt>
<trkpt lat="-35.101221" lon="149.3751754">
  <ele>708.31</ele>
  <time>2026-09-01T19:55:49Z</time>
  <course>93.85</course>
  <speed>0.022360679774997897</speed>
  <fix>3d</fix>
</trkpt>
<trkpt lat="-35.1012209" lon="149.3751756">
  <ele>708.22</ele>
  <time>2026-09-01T19:55:49Z</time>
  <course>271.56</course>
  <speed>0.0</speed>
  <fix>3d</fix>
</trkpt>
<trkpt lat="-35.101221" lon="149.3751754">
  <ele>708.31</ele>
  <time>2026-09-01T19:55:49Z</time>
  <course>93.85</course>
  <speed>0.022360679774997897</speed>
  <fix>3d</fix>
</trkpt>
<trkpt lat="-35.1012209" lon="149.3751756">
  <ele>708.22</ele>
  <time>2026-09-01T19:55:49Z</time>
  <course>271.56</course>
  <speed>0.0</speed>
  <fix>3d</fix>
</trkpt>
<trkpt lat="-35.101221" lon="149.3751754">
  <ele>708.31</ele>
  <time>2026-09-01T19:55:49Z</time>
  <course>93.85</course>
  <speed>0.022360679774997897</speed>
  <fix>3d</fix>
</trkpt>
<trkpt lat="-35.1012209" lon="149.3751756">
  <ele>708.22</ele>
  <time>2026-09-01T19:55:49Z</time>
  <course>271.56</course>
  <speed>0.0</speed>
  <fix>3d</fix>
</trkpt>
<trkpt lat="-35.101221" lon="149.3751754">
  <ele>708.31</ele>
  <time>2026-09-01T19:55:49Z</time>
  <course>93.85</course>
  <speed>0.022360679774997897</speed>
  <fix>3d</fix>
</trkpt>
<trkpt lat="-35.1012209" lon="149.3751756">
  <ele>708.22</ele>
  <time>2026-09-01T19:55:49Z</time>
  <course>271.56</course>
  <speed>0.0</speed>
  <fix>3d</fix>
</trkpt>
<trkpt lat="-35.101221" lon="149.3751754">
  <ele>708.31</ele>
  <time>2026-09-01T19:55:49Z</time>
  <course>93.84</course>
  <speed>0.022360679774997897</speed>
  <fix>3d</fix>
</trkpt>
<trkpt lat="-35.1012209" lon="149.3751756">
  <ele>708.22</ele>
  <time>2026-09-01T19:55:49Z</time>
  <course>271.56</course>
  <speed>0.0</speed>
  <fix>3d</fix>
</trkpt>
<trkpt lat="-35.101221" lon="149.3751754">
  <ele>708.31</ele>
  <time>2026-09-01T19:55:49Z</time>
  <course>93.84</course>
  <speed>0.022360679774997897</speed>
  <fix>3d</fix>
</trkpt>
<trkpt lat="-35.1012209" lon="149.3751756">
  <ele>708.22</ele>
  <time>2026-09-01T19:55:49Z</time>
  <course>271.56</course>
  <speed>0.0</speed>
  <fix>3d</fix>
</trkpt>
<trkpt lat="-35.101221" lon="149.3751754">
  <ele>708.31</ele>
  <time>2026-09-01T19:55:49Z</time>
  <course>93.84</course>
  <speed>0.022360679774997897</speed>
  <fix>3d</fix>
</trkpt>
<trkpt lat="-35.1012209" lon="149.3751756">
  <ele>708.22</ele>
  <time>2026-09-01T19:55:49Z</time>
  <course>271.56</course>
  <speed>0.0</speed>
  <fix>3d</fix>
</trkpt>
<trkpt lat="-35.101221" lon="149.3751754">
  <ele>708.31</ele>
  <time>2026-09-01T19:55:49Z</time>
  <course>93.84</course>
  <speed>0.022360679774997897</speed>
  <fix>3d</fix>
</trkpt>
<trkpt lat="-35.1012209" lon="149.3751756">
  <ele>708.22</ele>
  <time>2026-09-01T19:55:49Z</time>
  <course>271.56</course>
  <speed>0.0</speed>
  <fix>3d</fix>
</trkpt>
<trkpt lat="-35.101221" lon="149.3751754">
  <ele>708.31</ele>
  <time>2026-09-01T19:55:49Z</time>
  <course>93.84</course>
  <speed>0.022360679774997897</speed>
  <fix>3d</fix>
</trkpt>
<trkpt lat="-35.1012209" lon="149.3751756">
  <ele>708.22</ele>
  <time>2026-09-01T19:55:49Z</time>
  <course>271.56</course>
  <speed>0.0</speed>
  <fix>3d</fix>
</trkpt>
<trkpt lat="-35.101221" lon="149.3751754">
  <ele>708.31</ele>
  <time>2026-09-01T19:55:49Z</time>
  <course>93.83</course>
  <speed>0.022360679774997897</speed>
  <fix>3d</fix>
</trkpt>
<trkpt lat="-35.1012209" lon="149.3751756">
  <ele>708.22</ele>
  <time>2026-09-01T19:55:49Z</time>
  <course>271.56</course>
  <speed>0.0</speed>
  <fix>3d</fix>
</trkpt>
<trkpt lat="-35.101221" lon="149.3751754">
  <ele>708.31</ele>
  <time>2026-09-01T19:55:49Z</time>
  <course>93.83</course>
  <speed>0.022360679774997897</speed>
  <fix>3d</fix>
</trkpt>
<trkpt lat="-35.1012209" lon="149.3751756">
  <ele>708.22</ele>
  <time>2026-09-01T19:55:49Z</time>
  <course>271.56</course>
  <speed>0.0</speed>
  <fix>3d</fix>
</trkpt>
<trkpt lat="-35.101221" lon="149.3751754">
  <ele>708.31</ele>
  <time>2026-09-01T19:55:49Z</time>
  <course>93.83</course>
  <speed>0.022360679774997897</speed>
  <fix>3d</fix>
</trkpt>
<trkpt lat="-35.1012209" lon="149.3751756">
  <ele>708.22</ele>
  <time>2026-09-01T19:55:49Z</time>
  <course>271.56</course>
  <speed>0.0</speed>
  <fix>3d</fix>
</trkpt>
<trkpt lat="-35.101221" lon="149.3751754">
  <ele>708.32</ele>
  <time>2026-09-01T19:55:49Z</time>
  <course>93.83</course>
  <speed>0.022360679774997897</speed>
  <fix>3d</fix>
</trkpt>
<trkpt lat="-35.1012209" lon="149.3751756">
  <ele>708.22</ele>
  <time>2026-09-01T19:55:49Z</time>
  <course>271.56</course>
  <speed>0.0</speed>
  <fix>3d</fix>
</trkpt>
<trkpt lat="-35.101221" lon="149.3751754">
  <ele>708.32</ele>
  <time>2026-09-01T19:55:49Z</time>
  <course>93.82</course>
  <speed>0.022360679774997897</speed>
  <fix>3d</fix>
</trkpt>
<trkpt lat="-35.1012209" lon="149.3751756">
  <ele>708.22</ele>
  <time>2026-09-01T19:55:49Z</time>
  <course>271.56</course>
  <speed>0.0</speed>
  <fix>3d</fix>
</trkpt>
<trkpt lat="-35.101221" lon="149.3751754">
  <ele>708.32</ele>
  <time>2026-09-01T19:55:49Z</time>
  <course>93.82</course>
  <speed>0.022360679774997897</speed>
  <fix>3d</fix>
</trkpt>
<trkpt lat="-35.1012209" lon="149.3751756">
  <ele>708.22</ele>
  <time>2026-09-01T19:55:49Z</time>
  <course>271.56</course>
  <speed>0.0</speed>
  <fix>3d</fix>
</trkpt>
<trkpt lat="-35.101221" lon="149.3751754">
  <ele>708.32</ele>
  <time>2026-09-01T19:55:49Z</time>
  <course>93.82</course>
  <speed>0.022360679774997897</speed>
  <fix>3d</fix>
</trkpt>
<trkpt lat="-35.1012209" lon="149.3751756">
  <ele>708.22</ele>
  <time>2026-09-01T19:55:49Z</time>
  <course>271.56</course>
  <speed>0.0</speed>
  <fix>3d</fix>
</trkpt>
<trkpt lat="-35.101221" lon="149.3751754">
  <ele>708.31</ele>
  <time>2026-09-01T19:55:49Z</time>
  <course>93.82</course>
  <speed>0.022360679774997897</speed>
  <fix>3d</fix>
</trkpt>
<trkpt lat="-35.1012209" lon="149.3751756">
  <ele>708.22</ele>
  <time>2026-09-01T19:55:49Z</time>
  <course>271.56</course>
  <speed>0.0</speed>
  <fix>3d</fix>
</trkpt>
<trkpt lat="-35.101221" lon="149.3751754">
  <ele>708.31</ele>
  <time>2026-09-01T19:55:49Z</time>
  <course>93.82</course>
  <speed>0.022360679774997897</speed>
  <fix>3d</fix>
</trkpt>
<trkpt lat="-35.1012209" lon="149.3751756">
  <ele>708.22</ele>
  <time>2026-09-01T19:55:49Z</time>
  <course>271.56</course>
  <speed>0.0</speed>
  <fix>3d</fix>
</trkpt>
<trkpt lat="-35.101221" lon="149.3751754">
  <ele>708.31</ele>
  <time>2026-09-01T19:55:49Z</time>
  <course>93.82</course>
  <speed>0.022360679774997897</speed>
  <fix>3d</fix>
</trkpt>
<trkpt lat="-35.1012209" lon="149.3751756">
  <ele>708.22</ele>
  <time>2026-09-01T19:55:49Z</time>
  <course>271.56</course>
  <speed>0.0</speed>
  <fix>3d</fix>
</trkpt>
<trkpt lat="-35.101221" lon="149.3751754">
  <ele>708.31</ele>
  <time>2026-09-01T19:55:49Z</time>
  <course>93.81</course>
  <speed>0.022360679774997897</speed>
  <fix>3d</fix>
</trkpt>
<trkpt lat="-35.1012209" lon="149.3751756">
  <ele>708.22</ele>
  <time>2026-09-01T19:55:49Z</time>
  <course>271.56</course>
  <speed>0.0</speed>
  <fix>3d</fix>
</trkpt>
<trkpt lat="-35.101221" lon="149.3751754">
  <ele>708.31</ele>
  <time>2026-09-01T19:55:49Z</time>
  <course>93.81</course>
  <speed>0.022360679774997897</speed>
  <fix>3d</fix>
</trkpt>
<trkpt lat="-35.1012209" lon="149.3751756">
  <ele>708.22</ele>
  <time>2026-09-01T19:55:49Z</time>
  <course>271.56</course>
  <speed>0.0</speed>
  <fix>3d</fix>
</trkpt>
<trkpt lat="-35.101221" lon="149.3751754">
  <ele>708.31</ele>
  <time>2026-09-01T19:55:49Z</time>
  <course>93.81</course>
  <speed>0.022360679774997897</speed>
  <fix>3d</fix>
</trkpt>
<trkpt lat="-35.1012209" lon="149.3751756">
  <ele>708.22</ele>
  <time>2026-09-01T19:55:49Z</time>
  <course>271.56</course>
  <speed>0.0</speed>
  <fix>3d</fix>
</trkpt>
<trkpt lat="-35.101221" lon="149.3751754">
  <ele>708.3</ele>
  <time>2026-09-01T19:55:49Z</time>
  <course>93.81</course>
  <speed>0.022360679774997897</speed>
  <fix>3d</fix>
</trkpt>
<trkpt lat="-35.1012209" lon="149.3751756">
  <ele>708.22</ele>
  <time>2026-09-01T19:55:49Z</time>
  <course>271.56</course>
  <speed>0.0</speed>
  <fix>3d</fix>
</trkpt>
<trkpt lat="-35.101221" lon="149.3751754">
  <ele>708.3</ele>
  <time>2026-09-01T19:55:49Z</time>
  <course>93.81</course>
  <speed>0.022360679774997897</speed>
  <fix>3d</fix>
</trkpt>
<trkpt lat="-35.1012209" lon="149.3751756">
  <ele>708.22</ele>
  <time>2026-09-01T19:55:49Z</time>
  <course>271.56</course>
  <speed>0.0</speed>
  <fix>3d</fix>
</trkpt>
<trkpt lat="-35.101221" lon="149.3751754">
  <ele>708.21</ele>
  <time>2026-09-01T19:55:49Z</time>
  <course>93.8</course>
  <speed>0.022360679774997897</speed>
  <fix>3d</fix>
</trkpt>
<trkpt lat="-35.1012209" lon="149.3751756">
  <ele>708.22</ele>
  <time>2026-09-01T19:55:49Z</time>
  <course>271.56</course>
  <speed>0.0</speed>
  <fix>3d</fix>
</trkpt>
<trkpt lat="-35.101221" lon="149.3751754">
  <ele>708.22</ele>
  <time>2026-09-01T19:55:49Z</time>
  <course>93.8</course>
  <speed>0.022360679774997897</speed>
  <fix>3d</fix>
</trkpt>
<trkpt lat="-35.1012209" lon="149.3751756">
  <ele>708.22</ele>
  <time>2026-09-01T19:55:49Z</time>
  <course>271.56</course>
  <speed>0.0</speed>
  <fix>3d</fix>
</trkpt>
<trkpt lat="-35.101221" lon="149.3751754">
  <ele>708.22</ele>
  <time>2026-09-01T19:55:49Z</time>
  <course>93.8</course>
  <speed>0.022360679774997897</speed>
  <fix>3d</fix>
</trkpt>
<trkpt lat="-35.1012209" lon="149.3751756">
  <ele>708.22</ele>
  <time>2026-09-01T19:55:49Z</time>
  <course>271.56</course>
  <speed>0.0</speed>
  <fix>3d</fix>
</trkpt>
<trkpt lat="-35.101221" lon="149.3751754">
  <ele>708.22</ele>
  <time>2026-09-01T19:55:49Z</time>
  <course>93.8</course>
  <speed>0.022360679774997897</speed>
  <fix>3d</fix>
</trkpt>
<trkpt lat="-35.1012209" lon="149.3751756">
  <ele>708.22</ele>
  <time>2026-09-01T19:55:49Z</time>
  <course>271.56</course>
  <speed>0.0</speed>
  <fix>3d</fix>
</trkpt>
<trkpt lat="-35.101221" lon="149.3751754">
  <ele>708.22</ele>
  <time>2026-09-01T19:55:49Z</time>
  <course>93.8</course>
  <speed>0.022360679774997897</speed>
  <fix>3d</fix>
</trkpt>
<trkpt lat="-35.1012209" lon="149.3751756">
  <ele>708.22</ele>
  <time>2026-09-01T19:55:49Z</time>
  <course>271.56</course>
  <speed>0.0</speed>
  <fix>3d</fix>
</trkpt>
<trkpt lat="-35.101221" lon="149.3751754">
  <ele>708.23</ele>
  <time>2026-09-01T19:55:49Z</time>
  <course>93.8</course>
  <speed>0.022360679774997897</speed>
  <fix>3d</fix>
</trkpt>
<trkpt lat="-35.1012209" lon="149.3751756">
  <ele>708.22</ele>
  <time>2026-09-01T19:55:49Z</time>
  <course>271.56</course>
  <speed>0.0</speed>
  <fix>3d</fix>
</trkpt>
<trkpt lat="-35.101221" lon="149.3751754">
  <ele>708.23</ele>
  <time>2026-09-01T19:55:49Z</time>
  <course>93.79</course>
  <speed>0.022360679774997897</speed>
  <fix>3d</fix>
</trkpt>
<trkpt lat="-35.1012209" lon="149.3751756">
  <ele>708.22</ele>
  <time>2026-09-01T19:55:49Z</time>
  <course>271.56</course>
  <speed>0.0</speed>
  <fix>3d</fix>
</trkpt>
<trkpt lat="-35.101221" lon="149.3751754">
  <ele>708.23</ele>
  <time>2026-09-01T19:55:49Z</time>
  <course>93.79</course>
  <speed>0.022360679774997897</speed>
  <fix>3d</fix>
</trkpt>
<trkpt lat="-35.1012209" lon="149.3751756">
  <ele>708.22</ele>
  <time>2026-09-01T19:55:49Z</time>
  <course>271.56</course>
  <speed>0.0</speed>
  <fix>3d</fix>
</trkpt>
<trkpt lat="-35.101221" lon="149.3751754">
  <ele>708.23</ele>
  <time>2026-09-01T19:55:49Z</time>
  <course>93.79</course>
  <speed>0.022360679774997897</speed>
  <fix>3d</fix>
</trkpt>
<trkpt lat="-35.1012209" lon="149.3751756">
  <ele>708.22</ele>
  <time>2026-09-01T19:55:49Z</time>
  <course>271.56</course>
  <speed>0.0</speed>
  <fix>3d</fix>
</trkpt>
<trkpt lat="-35.101221" lon="149.3751754">
  <ele>708.23</ele>
  <time>2026-09-01T19:55:49Z</time>
  <course>93.79</course>
  <speed>0.022360679774997897</speed>
  <fix>3d</fix>
</trkpt>
<trkpt lat="-35.1012209" lon="149.3751756">
  <ele>708.22</ele>
  <time>2026-09-01T19:55:49Z</time>
  <course>271.56</course>
  <speed>0.0</speed>
  <fix>3d</fix>
</trkpt>
<trkpt lat="-35.101221" lon="149.3751754">
  <ele>708.24</ele>
  <time>2026-09-01T19:55:49Z</time>
  <course>93.79</course>
  <speed>0.022360679774997897</speed>
  <fix>3d</fix>
</trkpt>
<trkpt lat="-35.1012209" lon="149.3751756">
  <ele>708.22</ele>
  <time>2026-09-01T19:55:49Z</time>
  <course>271.56</course>
  <speed>0.0</speed>
  <fix>3d</fix>
</trkpt>
<trkpt lat="-35.101221" lon="149.3751754">
  <ele>708.24</ele>
  <time>2026-09-01T19:55:49Z</time>
  <course>93.79</course>
  <speed>0.022360679774997897</speed>
  <fix>3d</fix>
</trkpt>
<trkpt lat="-35.1012209" lon="149.3751756">
  <ele>708.22</ele>
  <time>2026-09-01T19:55:49Z</time>
  <course>271.56</course>
  <speed>0.0</speed>
  <fix>3d</fix>
</trkpt>
<trkpt lat="-35.101221" lon="149.3751754">
  <ele>708.23</ele>
  <time>2026-09-01T19:55:49Z</time>
  <course>93.78</course>
  <speed>0.022360679774997897</speed>
  <fix>3d</fix>
</trkpt>
<trkpt lat="-35.1012209" lon="149.3751756">
  <ele>708.22</ele>
  <time>2026-09-01T19:55:49Z</time>
  <course>271.56</course>
  <speed>0.0</speed>
  <fix>3d</fix>
</trkpt>
<trkpt lat="-35.101221" lon="149.3751754">
  <ele>708.24</ele>
  <time>2026-09-01T19:55:49Z</time>
  <course>93.78</course>
  <speed>0.022360679774997897</speed>
  <fix>3d</fix>
</trkpt>
<trkpt lat="-35.1012209" lon="149.3751756">
  <ele>708.22</ele>
  <time>2026-09-01T19:55:49Z</time>
  <course>271.56</course>
  <speed>0.0</speed>
  <fix>3d</fix>
</trkpt>
<trkpt lat="-35.101221" lon="149.3751754">
  <ele>708.23</ele>
  <time>2026-09-01T19:55:49Z</time>
  <course>93.78</course>
  <speed>0.022360679774997897</speed>
  <fix>3d</fix>
</trkpt>
<trkpt lat="-35.1012209" lon="149.3751756">
  <ele>708.22</ele>
  <time>2026-09-01T19:55:49Z</time>
  <course>271.56</course>
  <speed>0.0</speed>
  <fix>3d</fix>
</trkpt>
<trkpt lat="-35.101221" lon="149.3751754">
  <ele>708.24</ele>
  <time>2026-09-01T19:55:49Z</time>
  <course>93.78</course>
  <speed>0.022360679774997897</speed>
  <fix>3d</fix>
</trkpt>
<trkpt lat="-35.1012209" lon="149.3751756">
  <ele>708.22</ele>
  <time>2026-09-01T19:55:49Z</time>
  <course>271.56</course>
  <speed>0.0</speed>
  <fix>3d</fix>
</trkpt>
<trkpt lat="-35.101221" lon="149.3751754">
  <ele>708.23</ele>
  <time>2026-09-01T19:55:49Z</time>
  <course>93.78</course>
  <speed>0.022360679774997897</speed>
  <fix>3d</fix>
</trkpt>
<trkpt lat="-35.1012209" lon="149.3751756">
  <ele>708.22</ele>
  <time>2026-09-01T19:55:49Z</time>
  <course>271.56</course>
  <speed>0.0</speed>
  <fix>3d</fix>
</trkpt>
<trkpt lat="-35.101221" lon="149.3751754">
  <ele>708.23</ele>
  <time>2026-09-01T19:55:49Z</time>
  <course>93.78</course>
  <speed>0.022360679774997897</speed>
  <fix>3d</fix>
</trkpt>
<trkpt lat="-35.1012209" lon="149.3751756">
  <ele>708.22</ele>
  <time>2026-09-01T19:55:49Z</time>
  <course>271.56</course>
  <speed>0.0</speed>
  <fix>3d</fix>
</trkpt>
<trkpt lat="-35.101221" lon="149.3751754">
  <ele>708.23</ele>
  <time>2026-09-01T19:55:49Z</time>
  <course>93.77</course>
  <speed>0.022360679774997897</speed>
  <fix>3d</fix>
</trkpt>
<trkpt lat="-35.1012209" lon="149.3751756">
  <ele>708.22</ele>
  <time>2026-09-01T19:55:49Z</time>
  <course>271.56</course>
  <speed>0.0</speed>
  <fix>3d</fix>
</trkpt>
<trkpt lat="-35.101221" lon="149.3751754">
  <ele>708.23</ele>
  <time>2026-09-01T19:55:49Z</time>
  <course>93.77</course>
  <speed>0.022360679774997897</speed>
  <fix>3d</fix>
</trkpt>
<trkpt lat="-35.1012209" lon="149.3751756">
  <ele>708.22</ele>
  <time>2026-09-01T19:55:49Z</time>
  <course>271.56</course>
  <speed>0.0</speed>
  <fix>3d</fix>
</trkpt>
<trkpt lat="-35.101221" lon="149.3751754">
  <ele>708.23</ele>
  <time>2026-09-01T19:55:49Z</time>
  <course>93.77</course>
  <speed>0.022360679774997897</speed>
  <fix>3d</fix>
</trkpt>
<trkpt lat="-35.1012209" lon="149.3751756">
  <ele>708.22</ele>
  <time>2026-09-01T19:55:49Z</time>
  <course>271.56</course>
  <speed>0.0</speed>
  <fix>3d</fix>
</trkpt>
<trkpt lat="-35.101221" lon="149.3751754">
  <ele>708.23</ele>
  <time>2026-09-01T19:55:49Z</time>
  <course>93.77</course>
  <speed>0.022360679774997897</speed>
  <fix>3d</fix>
</trkpt>
<trkpt lat="-35.1012209" lon="149.3751756">
  <ele>708.22</ele>
  <time>2026-09-01T19:55:49Z</time>
  <course>271.56</course>
  <speed>0.0</speed>
  <fix>3d</fix>
</trkpt>
<trkpt lat="-35.101221" lon="149.3751754">
  <ele>708.23</ele>
  <time>2026-09-01T19:55:49Z</time>
  <course>93.77</course>
  <speed>0.022360679774997897</speed>
  <fix>3d</fix>
</trkpt>
<trkpt lat="-35.1012209" lon="149.3751756">
  <ele>708.22</ele>
  <time>2026-09-01T19:55:49Z</time>
  <course>271.56</course>
  <speed>0.0</speed>
  <fix>3d</fix>
</trkpt>
<trkpt lat="-35.101221" lon="149.3751754">
  <ele>708.22</ele>
  <time>2026-09-01T19:55:49Z</time>
  <course>93.76</course>
  <speed>0.022360679774997897</speed>
  <fix>3d</fix>
</trkpt>
<trkpt lat="-35.1012209" lon="149.3751756">
  <ele>708.22</ele>
  <time>2026-09-01T19:55:49Z</time>
  <course>271.56</course>
  <speed>0.0</speed>
  <fix>3d</fix>
</trkpt>
<trkpt lat="-35.101221" lon="149.3751754">
  <ele>708.22</ele>
  <time>2026-09-01T19:55:49Z</time>
  <course>93.76</course>
  <speed>0.022360679774997897</speed>
  <fix>3d</fix>
</trkpt>
<trkpt lat="-35.1012209" lon="149.3751756">
  <ele>708.22</ele>
  <time>2026-09-01T19:55:49Z</time>
  <course>271.56</course>
  <speed>0.0</speed>
  <fix>3d</fix>
</trkpt>
<trkpt lat="-35.101221" lon="149.3751754">
  <ele>708.22</ele>
  <time>2026-09-01T19:55:49Z</time>
  <course>93.76</course>
  <speed>0.022360679774997897</speed>
  <fix>3d</fix>
</trkpt>
<trkpt lat="-35.1012209" lon="149.3751756">
  <ele>708.22</ele>
  <time>2026-09-01T19:55:49Z</time>
  <course>271.56</course>
  <speed>0.0</speed>
  <fix>3d</fix>
</trkpt>
<trkpt lat="-35.101221" lon="149.3751754">
  <ele>708.22</ele>
  <time>2026-09-01T19:55:49Z</time>
  <course>93.76</course>
  <speed>0.022360679774997897</speed>
  <fix>3d</fix>
</trkpt>
<trkpt lat="-35.1012209" lon="149.3751756">
  <ele>708.22</ele>
  <time>2026-09-01T19:55:49Z</time>
  <course>271.56</course>
  <speed>0.0</speed>
  <fix>3d</fix>
</trkpt>
<trkpt lat="-35.101221" lon="149.3751754">
  <ele>708.22</ele>
  <time>2026-09-01T19:55:49Z</time>
  <course>93.76</course>
  <speed>0.022360679774997897</speed>
  <fix>3d</fix>
</trkpt>
<trkpt lat="-35.1012209" lon="149.3751756">
  <ele>708.22</ele>
  <time>2026-09-01T19:55:49Z</time>
  <course>271.56</course>
  <speed>0.0</speed>
  <fix>3d</fix>
</trkpt>
<trkpt lat="-35.101221" lon="149.3751754">
  <ele>708.22</ele>
  <time>2026-09-01T19:55:49Z</time>
  <course>93.75</course>
  <speed>0.022360679774997897</speed>
  <fix>3d</fix>
</trkpt>
<trkpt lat="-35.1012209" lon="149.3751756">
  <ele>708.22</ele>
  <time>2026-09-01T19:55:49Z</time>
  <course>271.56</course>
  <speed>0.0</speed>
  <fix>3d</fix>
</trkpt>
<trkpt lat="-35.101221" lon="149.3751754">
  <ele>708.22</ele>
  <time>2026-09-01T19:55:49Z</time>
  <course>93.75</course>
  <speed>0.022360679774997897</speed>
  <fix>3d</fix>
</trkpt>
<trkpt lat="-35.1012209" lon="149.3751756">
  <ele>708.22</ele>
  <time>2026-09-01T19:55:49Z</time>
  <course>271.56</course>
  <speed>0.0</speed>
  <fix>3d</fix>
</trkpt>
<trkpt lat="-35.101221" lon="149.3751754">
  <ele>708.22</ele>
  <time>2026-09-01T19:55:49Z</time>
  <course>93.75</course>
  <speed>0.022360679774997897</speed>
  <fix>3d</fix>
</trkpt>
<trkpt lat="-35.1012209" lon="149.3751756">
  <ele>708.22</ele>
  <time>2026-09-01T19:55:49Z</time>
  <course>271.56</course>
  <speed>0.0</speed>
  <fix>3d</fix>
</trkpt>
<trkpt lat="-35.101221" lon="149.3751754">
  <ele>708.21</ele>
  <time>2026-09-01T19:55:49Z</time>
  <course>93.75</course>
  <speed>0.022360679774997897</speed>
  <fix>3d</fix>
</trkpt>
<trkpt lat="-35.1012209" lon="149.3751756">
  <ele>708.22</ele>
  <time>2026-09-01T19:55:49Z</time>
  <course>271.56</course>
  <speed>0.0</speed>
  <fix>3d</fix>
</trkpt>
<trkpt lat="-35.101221" lon="149.3751754">
  <ele>708.21</ele>
  <time>2026-09-01T19:55:49Z</time>
  <course>93.75</course>
  <speed>0.022360679774997897</speed>
  <fix>3d</fix>
</trkpt>
<trkpt lat="-35.1012209" lon="149.3751756">
  <ele>708.22</ele>
  <time>2026-09-01T19:55:49Z</time>
  <course>271.56</course>
  <speed>0.0</speed>
  <fix>3d</fix>
</trkpt>
<trkpt lat="-35.101221" lon="149.3751754">
  <ele>708.21</ele>
  <time>2026-09-01T19:55:49Z</time>
  <course>93.75</course>
  <speed>0.022360679774997897</speed>
  <fix>3d</fix>
</trkpt>
<trkpt lat="-35.1012209" lon="149.3751756">
  <ele>708.22</ele>
  <time>2026-09-01T19:55:49Z</time>
  <course>271.56</course>
  <speed>0.0</speed>
  <fix>3d</fix>
</trkpt>
<trkpt lat="-35.101221" lon="149.3751754">
  <ele>708.21</ele>
  <time>2026-09-01T19:55:49Z</time>
  <course>93.75</course>
  <speed>0.022360679774997897</speed>
  <fix>3d</fix>
</trkpt>
<trkpt lat="-35.1012209" lon="149.3751756">
  <ele>708.22</ele>
  <time>2026-09-01T19:55:49Z</time>
  <course>271.56</course>
  <speed>0.0</speed>
  <fix>3d</fix>
</trkpt>
<trkpt lat="-35.101221" lon="149.3751754">
  <ele>708.21</ele>
  <time>2026-09-01T19:55:49Z</time>
  <course>93.74</course>
  <speed>0.022360679774997897</speed>
  <fix>3d</fix>
</trkpt>
<trkpt lat="-35.1012209" lon="149.3751756">
  <ele>708.22</ele>
  <time>2026-09-01T19:55:49Z</time>
  <course>271.56</course>
  <speed>0.0</speed>
  <fix>3d</fix>
</trkpt>
<trkpt lat="-35.101221" lon="149.3751754">
  <ele>708.21</ele>
  <time>2026-09-01T19:55:49Z</time>
  <course>93.74</course>
  <speed>0.022360679774997897</speed>
  <fix>3d</fix>
</trkpt>
<trkpt lat="-35.1012209" lon="149.3751756">
  <ele>708.22</ele>
  <time>2026-09-01T19:55:49Z</time>
  <course>271.56</course>
  <speed>0.0</speed>
  <fix>3d</fix>
</trkpt>
<trkpt lat="-35.101221" lon="149.3751754">
  <ele>708.21</ele>
  <time>2026-09-01T19:55:49Z</time>
  <course>93.74</course>
  <speed>0.022360679774997897</speed>
  <fix>3d</fix>
</trkpt>
<trkpt lat="-35.1012209" lon="149.3751756">
  <ele>708.22</ele>
  <time>2026-09-01T19:55:49Z</time>
  <course>271.56</course>
  <speed>0.0</speed>
  <fix>3d</fix>
</trkpt>
<trkpt lat="-35.101221" lon="149.3751754">
  <ele>708.21</ele>
  <time>2026-09-01T19:55:49Z</time>
  <course>93.74</course>
  <speed>0.022360679774997897</speed>
  <fix>3d</fix>
</trkpt>
<trkpt lat="-35.1012209" lon="149.3751756">
  <ele>708.22</ele>
  <time>2026-09-01T19:55:49Z</time>
  <course>271.56</course>
  <speed>0.0</speed>
  <fix>3d</fix>
</trkpt>
<trkpt lat="-35.101221" lon="149.3751754">
  <ele>708.21</ele>
  <time>2026-09-01T19:55:49Z</time>
  <course>93.74</course>
  <speed>0.022360679774997897</speed>
  <fix>3d</fix>
</trkpt>
<trkpt lat="-35.1012209" lon="149.3751756">
  <ele>708.22</ele>
  <time>2026-09-01T19:55:49Z</time>
  <course>271.56</course>
  <speed>0.0</speed>
  <fix>3d</fix>
</trkpt>
<trkpt lat="-35.101221" lon="149.3751754">
  <ele>708.21</ele>
  <time>2026-09-01T19:55:49Z</time>
  <course>93.73</course>
  <speed>0.022360679774997897</speed>
  <fix>3d</fix>
</trkpt>
<trkpt lat="-35.1012209" lon="149.3751756">
  <ele>708.22</ele>
  <time>2026-09-01T19:55:49Z</time>
  <course>271.56</course>
  <speed>0.0</speed>
  <fix>3d</fix>
</trkpt>
<trkpt lat="-35.101221" lon="149.3751754">
  <ele>708.2</ele>
  <time>2026-09-01T19:55:49Z</time>
  <course>93.73</course>
  <speed>0.022360679774997897</speed>
  <fix>3d</fix>
</trkpt>
<trkpt lat="-35.1012209" lon="149.3751756">
  <ele>708.22</ele>
  <time>2026-09-01T19:55:49Z</time>
  <course>271.56</course>
  <speed>0.0</speed>
  <fix>3d</fix>
</trkpt>
<trkpt lat="-35.101221" lon="149.3751754">
  <ele>708.2</ele>
  <time>2026-09-01T19:55:49Z</time>
  <course>93.73</course>
  <speed>0.022360679774997897</speed>
  <fix>3d</fix>
</trkpt>
<trkpt lat="-35.1012209" lon="149.3751756">
  <ele>708.22</ele>
  <time>2026-09-01T19:55:49Z</time>
  <course>271.56</course>
  <speed>0.0</speed>
  <fix>3d</fix>
</trkpt>
<trkpt lat="-35.101221" lon="149.3751754">
  <ele>708.2</ele>
  <time>2026-09-01T19:55:49Z</time>
  <course>93.73</course>
  <speed>0.022360679774997897</speed>
  <fix>3d</fix>
</trkpt>
<trkpt lat="-35.1012209" lon="149.3751756">
  <ele>708.22</ele>
  <time>2026-09-01T19:55:49Z</time>
  <course>271.56</course>
  <speed>0.0</speed>
  <fix>3d</fix>
</trkpt>
<trkpt lat="-35.101221" lon="149.3751754">
  <ele>708.2</ele>
  <time>2026-09-01T19:55:49Z</time>
  <course>93.73</course>
  <speed>0.022360679774997897</speed>
  <fix>3d</fix>
</trkpt>
<trkpt lat="-35.1012209" lon="149.3751756">
  <ele>708.22</ele>
  <time>2026-09-01T19:55:49Z</time>
  <course>271.56</course>
  <speed>0.0</speed>
  <fix>3d</fix>
</trkpt>
<trkpt lat="-35.101221" lon="149.3751754">
  <ele>708.19</ele>
  <time>2026-09-01T19:55:49Z</time>
  <course>93.73</course>
  <speed>0.022360679774997897</speed>
  <fix>3d</fix>
</trkpt>
<trkpt lat="-35.1012209" lon="149.3751756">
  <ele>708.22</ele>
  <time>2026-09-01T19:55:49Z</time>
  <course>271.56</course>
  <speed>0.0</speed>
  <fix>3d</fix>
</trkpt>
<trkpt lat="-35.101221" lon="149.3751754">
  <ele>708.19</ele>
  <time>2026-09-01T19:55:49Z</time>
  <course>93.73</course>
  <speed>0.022360679774997897</speed>
  <fix>3d</fix>
</trkpt>
<trkpt lat="-35.1012209" lon="149.3751756">
  <ele>708.22</ele>
  <time>2026-09-01T19:55:49Z</time>
  <course>271.56</course>
  <speed>0.0</speed>
  <fix>3d</fix>
</trkpt>
<trkpt lat="-35.101221" lon="149.3751754">
  <ele>708.19</ele>
  <time>2026-09-01T19:55:49Z</time>
  <course>93.72</course>
  <speed>0.022360679774997897</speed>
  <fix>3d</fix>
</trkpt>
<trkpt lat="-35.1012209" lon="149.3751756">
  <ele>708.22</ele>
  <time>2026-09-01T19:55:49Z</time>
  <course>271.56</course>
  <speed>0.0</speed>
  <fix>3d</fix>
</trkpt>
<trkpt lat="-35.101221" lon="149.3751754">
  <ele>708.18</ele>
  <time>2026-09-01T19:55:49Z</time>
  <course>93.72</course>
  <speed>0.022360679774997897</speed>
  <fix>3d</fix>
</trkpt>
<trkpt lat="-35.1012209" lon="149.3751756">
  <ele>708.22</ele>
  <time>2026-09-01T19:55:49Z</time>
  <course>271.56</course>
  <speed>0.0</speed>
  <fix>3d</fix>
</trkpt>
<trkpt lat="-35.101221" lon="149.3751754">
  <ele>708.19</ele>
  <time>2026-09-01T19:55:49Z</time>
  <course>93.72</course>
  <speed>0.022360679774997897</speed>
  <fix>3d</fix>
</trkpt>
<trkpt lat="-35.1012209" lon="149.3751756">
  <ele>708.22</ele>
  <time>2026-09-01T19:55:49Z</time>
  <course>271.56</course>
  <speed>0.0</speed>
  <fix>3d</fix>
</trkpt>
<trkpt lat="-35.101221" lon="149.3751754">
  <ele>708.19</ele>
  <time>2026-09-01T19:55:49Z</time>
  <course>93.72</course>
  <speed>0.022360679774997897</speed>
  <fix>3d</fix>
</trkpt>
<trkpt lat="-35.1012209" lon="149.3751756">
  <ele>708.22</ele>
  <time>2026-09-01T19:55:49Z</time>
  <course>271.56</course>
  <speed>0.0</speed>
  <fix>3d</fix>
</trkpt>
<trkpt lat="-35.101221" lon="149.3751754">
  <ele>708.19</ele>
  <time>2026-09-01T19:55:49Z</time>
  <course>93.72</course>
  <speed>0.022360679774997897</speed>
  <fix>3d</fix>
</trkpt>
<trkpt lat="-35.1012209" lon="149.3751756">
  <ele>708.22</ele>
  <time>2026-09-01T19:55:49Z</time>
  <course>271.56</course>
  <speed>0.0</speed>
  <fix>3d</fix>
</trkpt>
<trkpt lat="-35.101221" lon="149.3751754">
  <ele>708.19</ele>
  <time>2026-09-01T19:55:49Z</time>
  <course>93.72</course>
  <speed>0.022360679774997897</speed>
  <fix>3d</fix>
</trkpt>
<trkpt lat="-35.1012209" lon="149.3751756">
  <ele>708.22</ele>
  <time>2026-09-01T19:55:49Z</time>
  <course>271.56</course>
  <speed>0.0</speed>
  <fix>3d</fix>
</trkpt>
<trkpt lat="-35.101221" lon="149.3751754">
  <ele>708.19</ele>
  <time>2026-09-01T19:55:49Z</time>
  <course>93.72</course>
  <speed>0.022360679774997897</speed>
  <fix>3d</fix>
</trkpt>
<trkpt lat="-35.1012209" lon="149.3751756">
  <ele>708.22</ele>
  <time>2026-09-01T19:55:49Z</time>
  <course>271.56</course>
  <speed>0.0</speed>
  <fix>3d</fix>
</trkpt>
<trkpt lat="-35.101221" lon="149.3751754">
  <ele>708.19</ele>
  <time>2026-09-01T19:55:49Z</time>
  <course>93.71</course>
  <speed>0.022360679774997897</speed>
  <fix>3d</fix>
</trkpt>
<trkpt lat="-35.1012209" lon="149.3751756">
  <ele>708.22</ele>
  <time>2026-09-01T19:55:49Z</time>
  <course>271.56</course>
  <speed>0.0</speed>
  <fix>3d</fix>
</trkpt>
<trkpt lat="-35.101221" lon="149.3751754">
  <ele>708.19</ele>
  <time>2026-09-01T19:55:49Z</time>
  <course>93.71</course>
  <speed>0.022360679774997897</speed>
  <fix>3d</fix>
</trkpt>
<trkpt lat="-35.1012209" lon="149.3751756">
  <ele>708.22</ele>
  <time>2026-09-01T19:55:49Z</time>
  <course>271.56</course>
  <speed>0.0</speed>
  <fix>3d</fix>
</trkpt>
<trkpt lat="-35.101221" lon="149.3751754">
  <ele>708.19</ele>
  <time>2026-09-01T19:55:49Z</time>
  <course>93.71</course>
  <speed>0.022360679774997897</speed>
  <fix>3d</fix>
</trkpt>
<trkpt lat="-35.1012209" lon="149.3751756">
  <ele>708.22</ele>
  <time>2026-09-01T19:55:49Z</time>
  <course>271.56</course>
  <speed>0.0</speed>
  <fix>3d</fix>
</trkpt>
<trkpt lat="-35.101221" lon="149.3751754">
  <ele>708.19</ele>
  <time>2026-09-01T19:55:49Z</time>
  <course>93.71</course>
  <speed>0.022360679774997897</speed>
  <fix>3d</fix>
</trkpt>
<trkpt lat="-35.1012209" lon="149.3751756">
  <ele>708.22</ele>
  <time>2026-09-01T19:55:49Z</time>
  <course>271.56</course>
  <speed>0.0</speed>
  <fix>3d</fix>
</trkpt>
<trkpt lat="-35.101221" lon="149.3751754">
  <ele>708.19</ele>
  <time>2026-09-01T19:55:49Z</time>
  <course>93.71</course>
  <speed>0.022360679774997897</speed>
  <fix>3d</fix>
</trkpt>
<trkpt lat="-35.1012209" lon="149.3751756">
  <ele>708.22</ele>
  <time>2026-09-01T19:55:49Z</time>
  <course>271.56</course>
  <speed>0.0</speed>
  <fix>3d</fix>
</trkpt>
<trkpt lat="-35.101221" lon="149.3751754">
  <ele>708.19</ele>
  <time>2026-09-01T19:55:49Z</time>
  <course>93.71</course>
  <speed>0.022360679774997897</speed>
  <fix>3d</fix>
</trkpt>
<trkpt lat="-35.1012209" lon="149.3751756">
  <ele>708.22</ele>
  <time>2026-09-01T19:55:49Z</time>
  <course>271.56</course>
  <speed>0.0</speed>
  <fix>3d</fix>
</trkpt>
<trkpt lat="-35.101221" lon="149.3751754">
  <ele>708.21</ele>
  <time>2026-09-01T19:55:49Z</time>
  <course>93.7</course>
  <speed>0.022360679774997897</speed>
  <fix>3d</fix>
</trkpt>
<trkpt lat="-35.1012209" lon="149.3751756">
  <ele>708.22</ele>
  <time>2026-09-01T19:55:49Z</time>
  <course>271.56</course>
  <speed>0.0</speed>
  <fix>3d</fix>
</trkpt>
<trkpt lat="-35.101221" lon="149.3751754">
  <ele>708.21</ele>
  <time>2026-09-01T19:55:49Z</time>
  <course>93.7</course>
  <speed>0.022360679774997897</speed>
  <fix>3d</fix>
</trkpt>
<trkpt lat="-35.1012209" lon="149.3751756">
  <ele>708.22</ele>
  <time>2026-09-01T19:55:49Z</time>
  <course>271.56</course>
  <speed>0.0</speed>
  <fix>3d</fix>
</trkpt>
<trkpt lat="-35.101221" lon="149.3751754">
  <ele>708.21</ele>
  <time>2026-09-01T19:55:49Z</time>
  <course>93.7</course>
  <speed>0.022360679774997897</speed>
  <fix>3d</fix>
</trkpt>
<trkpt lat="-35.1012209" lon="149.3751756">
  <ele>708.22</ele>
  <time>2026-09-01T19:55:49Z</time>
  <course>271.56</course>
  <speed>0.0</speed>
  <fix>3d</fix>
</trkpt>
<trkpt lat="-35.101221" lon="149.3751754">
  <ele>708.21</ele>
  <time>2026-09-01T19:55:49Z</time>
  <course>93.7</course>
  <speed>0.022360679774997897</speed>
  <fix>3d</fix>
</trkpt>
<trkpt lat="-35.1012209" lon="149.3751756">
  <ele>708.22</ele>
  <time>2026-09-01T19:55:49Z</time>
  <course>271.56</course>
  <speed>0.0</speed>
  <fix>3d</fix>
</trkpt>
<trkpt lat="-35.101221" lon="149.3751754">
  <ele>708.22</ele>
  <time>2026-09-01T19:55:49Z</time>
  <course>93.7</course>
  <speed>0.022360679774997897</speed>
  <fix>3d</fix>
</trkpt>
<trkpt lat="-35.1012209" lon="149.3751756">
  <ele>708.22</ele>
  <time>2026-09-01T19:55:49Z</time>
  <course>271.56</course>
  <speed>0.0</speed>
  <fix>3d</fix>
</trkpt>
<trkpt lat="-35.101221" lon="149.3751754">
  <ele>708.22</ele>
  <time>2026-09-01T19:55:49Z</time>
  <course>93.7</course>
  <speed>0.022360679774997897</speed>
  <fix>3d</fix>
</trkpt>
<trkpt lat="-35.1012209" lon="149.3751756">
  <ele>708.22</ele>
  <time>2026-09-01T19:55:49Z</time>
  <course>271.56</course>
  <speed>0.0</speed>
  <fix>3d</fix>
</trkpt>
<trkpt lat="-35.101221" lon="149.3751754">
  <ele>708.22</ele>
  <time>2026-09-01T19:55:49Z</time>
  <course>93.7</course>
  <speed>0.022360679774997897</speed>
  <fix>3d</fix>
</trkpt>
<trkpt lat="-35.1012209" lon="149.3751756">
  <ele>708.22</ele>
  <time>2026-09-01T19:55:49Z</time>
  <course>271.56</course>
  <speed>0.0</speed>
  <fix>3d</fix>
</trkpt>
<trkpt lat="-35.101221" lon="149.3751754">
  <ele>708.22</ele>
  <time>2026-09-01T19:55:49Z</time>
  <course>93.69</course>
  <speed>0.022360679774997897</speed>
  <fix>3d</fix>
</trkpt>
<trkpt lat="-35.1012209" lon="149.3751756">
  <ele>708.22</ele>
  <time>2026-09-01T19:55:49Z</time>
  <course>271.56</course>
  <speed>0.0</speed>
  <fix>3d</fix>
</trkpt>
<trkpt lat="-35.101221" lon="149.3751754">
  <ele>708.22</ele>
  <time>2026-09-01T19:55:49Z</time>
  <course>93.69</course>
  <speed>0.022360679774997897</speed>
  <fix>3d</fix>
</trkpt>
<trkpt lat="-35.1012209" lon="149.3751756">
  <ele>708.22</ele>
  <time>2026-09-01T19:55:49Z</time>
  <course>271.56</course>
  <speed>0.0</speed>
  <fix>3d</fix>
</trkpt>
<trkpt lat="-35.101221" lon="149.3751754">
  <ele>708.22</ele>
  <time>2026-09-01T19:55:49Z</time>
  <course>93.69</course>
  <speed>0.022360679774997897</speed>
  <fix>3d</fix>
</trkpt>
<trkpt lat="-35.1012209" lon="149.3751756">
  <ele>708.22</ele>
  <time>2026-09-01T19:55:49Z</time>
  <course>271.56</course>
  <speed>0.0</speed>
  <fix>3d</fix>
</trkpt>
<trkpt lat="-35.101221" lon="149.3751754">
  <ele>708.22</ele>
  <time>2026-09-01T19:55:49Z</time>
  <course>93.69</course>
  <speed>0.022360679774997897</speed>
  <fix>3d</fix>
</trkpt>
<trkpt lat="-35.1012209" lon="149.3751756">
  <ele>708.22</ele>
  <time>2026-09-01T19:55:49Z</time>
  <course>271.56</course>
  <speed>0.0</speed>
  <fix>3d</fix>
</trkpt>
<trkpt lat="-35.101221" lon="149.3751754">
  <ele>708.22</ele>
  <time>2026-09-01T19:55:49Z</time>
  <course>93.69</course>
  <speed>0.022360679774997897</speed>
  <fix>3d</fix>
</trkpt>
<trkpt lat="-35.1012209" lon="149.3751756">
  <ele>708.22</ele>
  <time>2026-09-01T19:55:49Z</time>
  <course>271.56</course>
  <speed>0.0</speed>
  <fix>3d</fix>
</trkpt>
<trkpt lat="-35.101221" lon="149.3751754">
  <ele>708.22</ele>
  <time>2026-09-01T19:55:49Z</time>
  <course>93.69</course>
  <speed>0.022360679774997897</speed>
  <fix>3d</fix>
</trkpt>
<trkpt lat="-35.1012209" lon="149.3751756">
  <ele>708.22</ele>
  <time>2026-09-01T19:55:49Z</time>
  <course>271.56</course>
  <speed>0.0</speed>
  <fix>3d</fix>
</trkpt>
<trkpt lat="-35.101221" lon="149.3751754">
  <ele>708.22</ele>
  <time>2026-09-01T19:55:49Z</time>
  <course>93.69</course>
  <speed>0.022360679774997897</speed>
  <fix>3d</fix>
</trkpt>
<trkpt lat="-35.1012209" lon="149.3751756">
  <ele>708.22</ele>
  <time>2026-09-01T19:55:49Z</time>
  <course>271.56</course>
  <speed>0.0</speed>
  <fix>3d</fix>
</trkpt>
<trkpt lat="-35.101221" lon="149.3751754">
  <ele>708.22</ele>
  <time>2026-09-01T19:55:49Z</time>
  <course>93.68</course>
  <speed>0.022360679774997897</speed>
  <fix>3d</fix>
</trkpt>
<trkpt lat="-35.1012209" lon="149.3751756">
  <ele>708.22</ele>
  <time>2026-09-01T19:55:49Z</time>
  <course>271.56</course>
  <speed>0.0</speed>
  <fix>3d</fix>
</trkpt>
<trkpt lat="-35.101221" lon="149.3751754">
  <ele>708.22</ele>
  <time>2026-09-01T19:55:49Z</time>
  <course>93.68</course>
  <speed>0.022360679774997897</speed>
  <fix>3d</fix>
</trkpt>
<trkpt lat="-35.1012209" lon="149.3751756">
  <ele>708.22</ele>
  <time>2026-09-01T19:55:49Z</time>
  <course>271.56</course>
  <speed>0.0</speed>
  <fix>3d</fix>
</trkpt>
<trkpt lat="-35.101221" lon="149.3751754">
  <ele>708.22</ele>
  <time>2026-09-01T19:55:49Z</time>
  <course>93.68</course>
  <speed>0.022360679774997897</speed>
  <fix>3d</fix>
</trkpt>
<trkpt lat="-35.1012209" lon="149.3751756">
  <ele>708.22</ele>
  <time>2026-09-01T19:55:49Z</time>
  <course>271.56</course>
  <speed>0.0</speed>
  <fix>3d</fix>
</trkpt>
<trkpt lat="-35.101221" lon="149.3751754">
  <ele>708.22</ele>
  <time>2026-09-01T19:55:49Z</time>
  <course>93.68</course>
  <speed>0.022360679774997897</speed>
  <fix>3d</fix>
</trkpt>
<trkpt lat="-35.1012209" lon="149.3751756">
  <ele>708.22</ele>
  <time>2026-09-01T19:55:49Z</time>
  <course>271.56</course>
  <speed>0.0</speed>
  <fix>3d</fix>
</trkpt>
<trkpt lat="-35.101221" lon="149.3751754">
  <ele>708.22</ele>
  <time>2026-09-01T19:55:49Z</time>
  <course>93.68</course>
  <speed>0.022360679774997897</speed>
  <fix>3d</fix>
</trkpt>
<trkpt lat="-35.1012209" lon="149.3751756">
  <ele>708.22</ele>
  <time>2026-09-01T19:55:49Z</time>
  <course>271.56</course>
  <speed>0.0</speed>
  <fix>3d</fix>
</trkpt>
<trkpt lat="-35.101221" lon="149.3751754">
  <ele>708.23</ele>
  <time>2026-09-01T19:55:49Z</time>
  <course>93.68</course>
  <speed>0.022360679774997897</speed>
  <fix>3d</fix>
</trkpt>
<trkpt lat="-35.1012209" lon="149.3751756">
  <ele>708.22</ele>
  <time>2026-09-01T19:55:49Z</time>
  <course>271.56</course>
  <speed>0.0</speed>
  <fix>3d</fix>
</trkpt>
<trkpt lat="-35.101221" lon="149.3751754">
  <ele>708.23</ele>
  <time>2026-09-01T19:55:49Z</time>
  <course>93.68</course>
  <speed>0.022360679774997897</speed>
  <fix>3d</fix>
</trkpt>
<trkpt lat="-35.1012209" lon="149.3751756">
  <ele>708.22</ele>
  <time>2026-09-01T19:55:49Z</time>
  <course>271.56</course>
  <speed>0.0</speed>
  <fix>3d</fix>
</trkpt>
<trkpt lat="-35.101221" lon="149.3751754">
  <ele>708.23</ele>
  <time>2026-09-01T19:55:49Z</time>
  <course>93.67</course>
  <speed>0.022360679774997897</speed>
  <fix>3d</fix>
</trkpt>
<trkpt lat="-35.1012209" lon="149.3751756">
  <ele>708.22</ele>
  <time>2026-09-01T19:55:49Z</time>
  <course>271.56</course>
  <speed>0.0</speed>
  <fix>3d</fix>
</trkpt>
<trkpt lat="-35.101221" lon="149.3751754">
  <ele>708.23</ele>
  <time>2026-09-01T19:55:49Z</time>
  <course>93.67</course>
  <speed>0.022360679774997897</speed>
  <fix>3d</fix>
</trkpt>
<trkpt lat="-35.1012209" lon="149.3751756">
  <ele>708.22</ele>
  <time>2026-09-01T19:55:49Z</time>
  <course>271.56</course>
  <speed>0.0</speed>
  <fix>3d</fix>
</trkpt>
<trkpt lat="-35.101221" lon="149.3751754">
  <ele>708.23</ele>
  <time>2026-09-01T19:55:49Z</time>
  <course>93.67</course>
  <speed>0.022360679774997897</speed>
  <fix>3d</fix>
</trkpt>
<trkpt lat="-35.1012209" lon="149.3751756">
  <ele>708.22</ele>
  <time>2026-09-01T19:55:49Z</time>
  <course>271.56</course>
  <speed>0.0</speed>
  <fix>3d</fix>
</trkpt>
<trkpt lat="-35.101221" lon="149.3751754">
  <ele>708.23</ele>
  <time>2026-09-01T19:55:49Z</time>
  <course>93.67</course>
  <speed>0.022360679774997897</speed>
  <fix>3d</fix>
</trkpt>
<trkpt lat="-35.1012209" lon="149.3751756">
  <ele>708.22</ele>
  <time>2026-09-01T19:55:49Z</time>
  <course>271.56</course>
  <speed>0.0</speed>
  <fix>3d</fix>
</trkpt>
<trkpt lat="-35.101221" lon="149.3751754">
  <ele>708.23</ele>
  <time>2026-09-01T19:55:49Z</time>
  <course>93.67</course>
  <speed>0.022360679774997897</speed>
  <fix>3d</fix>
</trkpt>
<trkpt lat="-35.1012209" lon="149.3751756">
  <ele>708.22</ele>
  <time>2026-09-01T19:55:49Z</time>
  <course>271.56</course>
  <speed>0.0</speed>
  <fix>3d</fix>
</trkpt>
<trkpt lat="-35.101221" lon="149.3751754">
  <ele>708.23</ele>
  <time>2026-09-01T19:55:49Z</time>
  <course>93.67</course>
  <speed>0.022360679774997897</speed>
  <fix>3d</fix>
</trkpt>
<trkpt lat="-35.1012209" lon="149.3751756">
  <ele>708.22</ele>
  <time>2026-09-01T19:55:49Z</time>
  <course>271.56</course>
  <speed>0.0</speed>
  <fix>3d</fix>
</trkpt>
<trkpt lat="-35.101221" lon="149.3751754">
  <ele>708.24</ele>
  <time>2026-09-01T19:55:49Z</time>
  <course>93.67</course>
  <speed>0.022360679774997897</speed>
  <fix>3d</fix>
</trkpt>
<trkpt lat="-35.1012209" lon="149.3751756">
  <ele>708.22</ele>
  <time>2026-09-01T19:55:49Z</time>
  <course>271.56</course>
  <speed>0.0</speed>
  <fix>3d</fix>
</trkpt>
<trkpt lat="-35.101221" lon="149.3751754">
  <ele>708.24</ele>
  <time>2026-09-01T19:55:49Z</time>
  <course>93.66</course>
  <speed>0.022360679774997897</speed>
  <fix>3d</fix>
</trkpt>
<trkpt lat="-35.1012209" lon="149.3751756">
  <ele>708.22</ele>
  <time>2026-09-01T19:55:49Z</time>
  <course>271.56</course>
  <speed>0.0</speed>
  <fix>3d</fix>
</trkpt>
<trkpt lat="-35.101221" lon="149.3751754">
  <ele>708.24</ele>
  <time>2026-09-01T19:55:49Z</time>
  <course>93.66</course>
  <speed>0.022360679774997897</speed>
  <fix>3d</fix>
</trkpt>
<trkpt lat="-35.1012209" lon="149.3751756">
  <ele>708.22</ele>
  <time>2026-09-01T19:55:49Z</time>
  <course>271.56</course>
  <speed>0.0</speed>
  <fix>3d</fix>
</trkpt>
<trkpt lat="-35.101221" lon="149.3751754">
  <ele>708.24</ele>
  <time>2026-09-01T19:55:49Z</time>
  <course>93.66</course>
  <speed>0.022360679774997897</speed>
  <fix>3d</fix>
</trkpt>
<trkpt lat="-35.1012209" lon="149.3751756">
  <ele>708.22</ele>
  <time>2026-09-01T19:55:49Z</time>
  <course>271.56</course>
  <speed>0.0</speed>
  <fix>3d</fix>
</trkpt>
<trkpt lat="-35.101221" lon="149.3751754">
  <ele>708.24</ele>
  <time>2026-09-01T19:55:49Z</time>
  <course>93.66</course>
  <speed>0.022360679774997897</speed>
  <fix>3d</fix>
</trkpt>
<trkpt lat="-35.1012209" lon="149.3751756">
  <ele>708.22</ele>
  <time>2026-09-01T19:55:49Z</time>
  <course>271.56</course>
  <speed>0.0</speed>
  <fix>3d</fix>
</trkpt>
<trkpt lat="-35.101221" lon="149.3751754">
  <ele>708.24</ele>
  <time>2026-09-01T19:55:49Z</time>
  <course>93.66</course>
  <speed>0.022360679774997897</speed>
  <fix>3d</fix>
</trkpt>
<trkpt lat="-35.1012209" lon="149.3751756">
  <ele>708.22</ele>
  <time>2026-09-01T19:55:49Z</time>
  <course>271.56</course>
  <speed>0.0</speed>
  <fix>3d</fix>
</trkpt>
<trkpt lat="-35.101221" lon="149.3751754">
  <ele>708.24</ele>
  <time>2026-09-01T19:55:49Z</time>
  <course>93.66</course>
  <speed>0.022360679774997897</speed>
  <fix>3d</fix>
</trkpt>
<trkpt lat="-35.1012209" lon="149.3751756">
  <ele>708.22</ele>
  <time>2026-09-01T19:55:49Z</time>
  <course>271.56</course>
  <speed>0.0</speed>
  <fix>3d</fix>
</trkpt>
<trkpt lat="-35.101221" lon="149.3751754">
  <ele>708.24</ele>
  <time>2026-09-01T19:55:49Z</time>
  <course>93.66</course>
  <speed>0.022360679774997897</speed>
  <fix>3d</fix>
</trkpt>
<trkpt lat="-35.1012209" lon="149.3751756">
  <ele>708.22</ele>
  <time>2026-09-01T19:55:49Z</time>
  <course>271.56</course>
  <speed>0.0</speed>
  <fix>3d</fix>
</trkpt>
<trkpt lat="-35.101221" lon="149.3751754">
  <ele>708.24</ele>
  <time>2026-09-01T19:55:49Z</time>
  <course>93.66</course>
  <speed>0.022360679774997897</speed>
  <fix>3d</fix>
</trkpt>
<trkpt lat="-35.1012209" lon="149.3751756">
  <ele>708.22</ele>
  <time>2026-09-01T19:55:49Z</time>
  <course>271.56</course>
  <speed>0.0</speed>
  <fix>3d</fix>
</trkpt>
<trkpt lat="-35.101221" lon="149.3751754">
  <ele>708.25</ele>
  <time>2026-09-01T19:55:49Z</time>
  <course>93.65</course>
  <speed>0.022360679774997897</speed>
  <fix>3d</fix>
</trkpt>
<trkpt lat="-35.1012209" lon="149.3751756">
  <ele>708.22</ele>
  <time>2026-09-01T19:55:49Z</time>
  <course>271.56</course>
  <speed>0.0</speed>
  <fix>3d</fix>
</trkpt>
<trkpt lat="-35.101221" lon="149.3751754">
  <ele>708.25</ele>
  <time>2026-09-01T19:55:49Z</time>
  <course>93.65</course>
  <speed>0.022360679774997897</speed>
  <fix>3d</fix>
</trkpt>
<trkpt lat="-35.1012209" lon="149.3751756">
  <ele>708.22</ele>
  <time>2026-09-01T19:55:49Z</time>
  <course>271.56</course>
  <speed>0.0</speed>
  <fix>3d</fix>
</trkpt>
<trkpt lat="-35.101221" lon="149.3751754">
  <ele>708.25</ele>
  <time>2026-09-01T19:55:49Z</time>
  <course>93.65</course>
  <speed>0.022360679774997897</speed>
  <fix>3d</fix>
</trkpt>
<trkpt lat="-35.1012209" lon="149.3751756">
  <ele>708.22</ele>
  <time>2026-09-01T19:55:49Z</time>
  <course>271.56</course>
  <speed>0.0</speed>
  <fix>3d</fix>
</trkpt>
<trkpt lat="-35.101221" lon="149.3751754">
  <ele>708.25</ele>
  <time>2026-09-01T19:55:49Z</time>
  <course>93.65</course>
  <speed>0.022360679774997897</speed>
  <fix>3d</fix>
</trkpt>
<trkpt lat="-35.1012209" lon="149.3751756">
  <ele>708.22</ele>
  <time>2026-09-01T19:55:49Z</time>
  <course>271.56</course>
  <speed>0.0</speed>
  <fix>3d</fix>
</trkpt>
<trkpt lat="-35.101221" lon="149.3751754">
  <ele>708.26</ele>
  <time>2026-09-01T19:55:49Z</time>
  <course>93.65</course>
  <speed>0.022360679774997897</speed>
  <fix>3d</fix>
</trkpt>
<trkpt lat="-35.1012209" lon="149.3751756">
  <ele>708.22</ele>
  <time>2026-09-01T19:55:49Z</time>
  <course>271.56</course>
  <speed>0.0</speed>
  <fix>3d</fix>
</trkpt>
<trkpt lat="-35.101221" lon="149.3751754">
  <ele>708.26</ele>
  <time>2026-09-01T19:55:49Z</time>
  <course>93.65</course>
  <speed>0.022360679774997897</speed>
  <fix>3d</fix>
</trkpt>
<trkpt lat="-35.1012209" lon="149.3751756">
  <ele>708.22</ele>
  <time>2026-09-01T19:55:49Z</time>
  <course>271.56</course>
  <speed>0.0</speed>
  <fix>3d</fix>
</trkpt>
<trkpt lat="-35.101221" lon="149.3751754">
  <ele>708.26</ele>
  <time>2026-09-01T19:55:49Z</time>
  <course>93.65</course>
  <speed>0.022360679774997897</speed>
  <fix>3d</fix>
</trkpt>
<trkpt lat="-35.1012209" lon="149.3751756">
  <ele>708.22</ele>
  <time>2026-09-01T19:55:49Z</time>
  <course>271.56</course>
  <speed>0.0</speed>
  <fix>3d</fix>
</trkpt>
<trkpt lat="-35.101221" lon="149.3751754">
  <ele>708.26</ele>
  <time>2026-09-01T19:55:49Z</time>
  <course>93.65</course>
  <speed>0.022360679774997897</speed>
  <fix>3d</fix>
</trkpt>
<trkpt lat="-35.1012209" lon="149.3751756">
  <ele>708.22</ele>
  <time>2026-09-01T19:55:49Z</time>
  <course>271.56</course>
  <speed>0.0</speed>
  <fix>3d</fix>
</trkpt>
<trkpt lat="-35.101221" lon="149.3751754">
  <ele>708.26</ele>
  <time>2026-09-01T19:55:49Z</time>
  <course>93.64</course>
  <speed>0.022360679774997897</speed>
  <fix>3d</fix>
</trkpt>
<trkpt lat="-35.1012209" lon="149.3751756">
  <ele>708.22</ele>
  <time>2026-09-01T19:55:49Z</time>
  <course>271.56</course>
  <speed>0.0</speed>
  <fix>3d</fix>
</trkpt>
<trkpt lat="-35.101221" lon="149.3751754">
  <ele>708.26</ele>
  <time>2026-09-01T19:55:49Z</time>
  <course>93.64</course>
  <speed>0.022360679774997897</speed>
  <fix>3d</fix>
</trkpt>
<trkpt lat="-35.1012209" lon="149.3751756">
  <ele>708.22</ele>
  <time>2026-09-01T19:55:49Z</time>
  <course>271.56</course>
  <speed>0.0</speed>
  <fix>3d</fix>
</trkpt>
<trkpt lat="-35.101221" lon="149.3751754">
  <ele>708.26</ele>
  <time>2026-09-01T19:55:49Z</time>
  <course>93.64</course>
  <speed>0.022360679774997897</speed>
  <fix>3d</fix>
</trkpt>
<trkpt lat="-35.1012209" lon="149.3751756">
  <ele>708.22</ele>
  <time>2026-09-01T19:55:49Z</time>
  <course>271.56</course>
  <speed>0.0</speed>
  <fix>3d</fix>
</trkpt>
<trkpt lat="-35.101221" lon="149.3751754">
  <ele>708.26</ele>
  <time>2026-09-01T19:55:49Z</time>
  <course>93.64</course>
  <speed>0.022360679774997897</speed>
  <fix>3d</fix>
</trkpt>
<trkpt lat="-35.1012209" lon="149.3751756">
  <ele>708.22</ele>
  <time>2026-09-01T19:55:49Z</time>
  <course>271.56</course>
  <speed>0.0</speed>
  <fix>3d</fix>
</trkpt>
<trkpt lat="-35.101221" lon="149.3751754">
  <ele>708.27</ele>
  <time>2026-09-01T19:55:49Z</time>
  <course>93.64</course>
  <speed>0.022360679774997897</speed>
  <fix>3d</fix>
</trkpt>
<trkpt lat="-35.1012209" lon="149.3751756">
  <ele>708.22</ele>
  <time>2026-09-01T19:55:49Z</time>
  <course>271.56</course>
  <speed>0.0</speed>
  <fix>3d</fix>
</trkpt>
<trkpt lat="-35.101221" lon="149.3751754">
  <ele>708.27</ele>
  <time>2026-09-01T19:55:49Z</time>
  <course>93.64</course>
  <speed>0.022360679774997897</speed>
  <fix>3d</fix>
</trkpt>
<trkpt lat="-35.1012209" lon="149.3751756">
  <ele>708.22</ele>
  <time>2026-09-01T19:55:49Z</time>
  <course>271.56</course>
  <speed>0.0</speed>
  <fix>3d</fix>
</trkpt>
<trkpt lat="-35.101221" lon="149.3751754">
  <ele>708.27</ele>
  <time>2026-09-01T19:55:49Z</time>
  <course>93.64</course>
  <speed>0.022360679774997897</speed>
  <fix>3d</fix>
</trkpt>
<trkpt lat="-35.1012209" lon="149.3751756">
  <ele>708.22</ele>
  <time>2026-09-01T19:55:49Z</time>
  <course>271.56</course>
  <speed>0.0</speed>
  <fix>3d</fix>
</trkpt>
<trkpt lat="-35.101221" lon="149.3751754">
  <ele>708.27</ele>
  <time>2026-09-01T19:55:49Z</time>
  <course>93.64</course>
  <speed>0.022360679774997897</speed>
  <fix>3d</fix>
</trkpt>
<trkpt lat="-35.1012209" lon="149.3751756">
  <ele>708.22</ele>
  <time>2026-09-01T19:55:49Z</time>
  <course>271.56</course>
  <speed>0.0</speed>
  <fix>3d</fix>
</trkpt>
<trkpt lat="-35.101221" lon="149.3751754">
  <ele>708.27</ele>
  <time>2026-09-01T19:55:49Z</time>
  <course>93.63</course>
  <speed>0.022360679774997897</speed>
  <fix>3d</fix>
</trkpt>
<trkpt lat="-35.1012209" lon="149.3751756">
  <ele>708.22</ele>
  <time>2026-09-01T19:55:49Z</time>
  <course>271.56</course>
  <speed>0.0</speed>
  <fix>3d</fix>
</trkpt>
<trkpt lat="-35.101221" lon="149.3751754">
  <ele>708.27</ele>
  <time>2026-09-01T19:55:49Z</time>
  <course>93.63</course>
  <speed>0.022360679774997897</speed>
  <fix>3d</fix>
</trkpt>
<trkpt lat="-35.1012209" lon="149.3751756">
  <ele>708.22</ele>
  <time>2026-09-01T19:55:49Z</time>
  <course>271.56</course>
  <speed>0.0</speed>
  <fix>3d</fix>
</trkpt>
<trkpt lat="-35.101221" lon="149.3751754">
  <ele>708.27</ele>
  <time>2026-09-01T19:55:49Z</time>
  <course>93.63</course>
  <speed>0.022360679774997897</speed>
  <fix>3d</fix>
</trkpt>
<trkpt lat="-35.1012209" lon="149.3751756">
  <ele>708.22</ele>
  <time>2026-09-01T19:55:49Z</time>
  <course>271.56</course>
  <speed>0.0</speed>
  <fix>3d</fix>
</trkpt>
<trkpt lat="-35.101221" lon="149.3751754">
  <ele>708.27</ele>
  <time>2026-09-01T19:55:49Z</time>
  <course>93.63</course>
  <speed>0.022360679774997897</speed>
  <fix>3d</fix>
</trkpt>
<trkpt lat="-35.1012209" lon="149.3751756">
  <ele>708.22</ele>
  <time>2026-09-01T19:55:49Z</time>
  <course>271.56</course>
  <speed>0.0</speed>
  <fix>3d</fix>
</trkpt>
<trkpt lat="-35.101221" lon="149.3751754">
  <ele>708.27</ele>
  <time>2026-09-01T19:55:49Z</time>
  <course>93.63</course>
  <speed>0.022360679774997897</speed>
  <fix>3d</fix>
</trkpt>
<trkpt lat="-35.1012209" lon="149.3751756">
  <ele>708.22</ele>
  <time>2026-09-01T19:55:49Z</time>
  <course>271.56</course>
  <speed>0.0</speed>
  <fix>3d</fix>
</trkpt>
<trkpt lat="-35.101221" lon="149.3751754">
  <ele>708.27</ele>
  <time>2026-09-01T19:55:49Z</time>
  <course>93.63</course>
  <speed>0.022360679774997897</speed>
  <fix>3d</fix>
</trkpt>
<trkpt lat="-35.1012209" lon="149.3751756">
  <ele>708.22</ele>
  <time>2026-09-01T19:55:49Z</time>
  <course>271.56</course>
  <speed>0.0</speed>
  <fix>3d</fix>
</trkpt>
<trkpt lat="-35.101221" lon="149.3751754">
  <ele>708.26</ele>
  <time>2026-09-01T19:55:49Z</time>
  <course>93.63</course>
  <speed>0.022360679774997897</speed>
  <fix>3d</fix>
</trkpt>
<trkpt lat="-35.1012209" lon="149.3751756">
  <ele>708.22</ele>
  <time>2026-09-01T19:55:49Z</time>
  <course>271.56</course>
  <speed>0.0</speed>
  <fix>3d</fix>
</trkpt>
<trkpt lat="-35.101221" lon="149.3751754">
  <ele>708.26</ele>
  <time>2026-09-01T19:55:49Z</time>
  <course>93.63</course>
  <speed>0.022360679774997897</speed>
  <fix>3d</fix>
</trkpt>
<trkpt lat="-35.1012209" lon="149.3751756">
  <ele>708.22</ele>
  <time>2026-09-01T19:55:49Z</time>
  <course>271.56</course>
  <speed>0.0</speed>
  <fix>3d</fix>
</trkpt>
<trkpt lat="-35.101221" lon="149.3751754">
  <ele>708.22</ele>
  <time>2026-09-01T19:55:49Z</time>
  <course>93.62</course>
  <speed>0.022360679774997897</speed>
  <fix>3d</fix>
</trkpt>
<trkpt lat="-35.1012209" lon="149.3751756">
  <ele>708.22</ele>
  <time>2026-09-01T19:55:49Z</time>
  <course>271.56</course>
  <speed>0.0</speed>
  <fix>3d</fix>
</trkpt>
<trkpt lat="-35.101221" lon="149.3751754">
  <ele>708.22</ele>
  <time>2026-09-01T19:55:49Z</time>
  <course>93.62</course>
  <speed>0.022360679774997897</speed>
  <fix>3d</fix>
</trkpt>
<trkpt lat="-35.1012209" lon="149.3751756">
  <ele>708.22</ele>
  <time>2026-09-01T19:55:49Z</time>
  <course>271.56</course>
  <speed>0.0</speed>
  <fix>3d</fix>
</trkpt>
<trkpt lat="-35.101221" lon="149.3751754">
  <ele>708.22</ele>
  <time>2026-09-01T19:55:49Z</time>
  <course>93.62</course>
  <speed>0.022360679774997897</speed>
  <fix>3d</fix>
</trkpt>
<trkpt lat="-35.1012209" lon="149.3751756">
  <ele>708.22</ele>
  <time>2026-09-01T19:55:49Z</time>
  <course>271.56</course>
  <speed>0.0</speed>
  <fix>3d</fix>
</trkpt>
<trkpt lat="-35.101221" lon="149.3751754">
  <ele>708.22</ele>
  <time>2026-09-01T19:55:49Z</time>
  <course>93.62</course>
  <speed>0.022360679774997897</speed>
  <fix>3d</fix>
</trkpt>
<trkpt lat="-35.1012209" lon="149.3751756">
  <ele>708.22</ele>
  <time>2026-09-01T19:55:49Z</time>
  <course>271.56</course>
  <speed>0.0</speed>
  <fix>3d</fix>
</trkpt>
<trkpt lat="-35.101221" lon="149.3751754">
  <ele>708.22</ele>
  <time>2026-09-01T19:55:49Z</time>
  <course>93.62</course>
  <speed>0.022360679774997897</speed>
  <fix>3d</fix>
</trkpt>
<trkpt lat="-35.1012209" lon="149.3751756">
  <ele>708.22</ele>
  <time>2026-09-01T19:55:49Z</time>
  <course>271.56</course>
  <speed>0.0</speed>
  <fix>3d</fix>
</trkpt>
<trkpt lat="-35.101221" lon="149.3751754">
  <ele>708.22</ele>
  <time>2026-09-01T19:55:49Z</time>
  <course>93.62</course>
  <speed>0.022360679774997897</speed>
  <fix>3d</fix>
</trkpt>
<trkpt lat="-35.1012209" lon="149.3751756">
  <ele>708.22</ele>
  <time>2026-09-01T19:55:49Z</time>
  <course>271.56</course>
  <speed>0.0</speed>
  <fix>3d</fix>
</trkpt>
<trkpt lat="-35.101221" lon="149.3751754">
  <ele>708.22</ele>
  <time>2026-09-01T19:55:49Z</time>
  <course>93.62</course>
  <speed>0.022360679774997897</speed>
  <fix>3d</fix>
</trkpt>
<trkpt lat="-35.1012209" lon="149.3751756">
  <ele>708.22</ele>
  <time>2026-09-01T19:55:49Z</time>
  <course>271.56</course>
  <speed>0.0</speed>
  <fix>3d</fix>
</trkpt>
<trkpt lat="-35.101221" lon="149.3751754">
  <ele>708.22</ele>
  <time>2026-09-01T19:55:49Z</time>
  <course>93.62</course>
  <speed>0.022360679774997897</speed>
  <fix>3d</fix>
</trkpt>
<trkpt lat="-35.1012209" lon="149.3751756">
  <ele>708.22</ele>
  <time>2026-09-01T19:55:49Z</time>
  <course>271.56</course>
  <speed>0.0</speed>
  <fix>3d</fix>
</trkpt>
<trkpt lat="-35.101221" lon="149.3751754">
  <ele>708.22</ele>
  <time>2026-09-01T19:55:49Z</time>
  <course>93.61</course>
  <speed>0.022360679774997897</speed>
  <fix>3d</fix>
</trkpt>
<trkpt lat="-35.1012209" lon="149.3751756">
  <ele>708.22</ele>
  <time>2026-09-01T19:55:49Z</time>
  <course>271.56</course>
  <speed>0.0</speed>
  <fix>3d</fix>
</trkpt>
<trkpt lat="-35.101221" lon="149.3751754">
  <ele>708.22</ele>
  <time>2026-09-01T19:55:49Z</time>
  <course>93.61</course>
  <speed>0.022360679774997897</speed>
  <fix>3d</fix>
</trkpt>
<trkpt lat="-35.1012209" lon="149.3751756">
  <ele>708.22</ele>
  <time>2026-09-01T19:55:49Z</time>
  <course>271.56</course>
  <speed>0.0</speed>
  <fix>3d</fix>
</trkpt>
<trkpt lat="-35.101221" lon="149.3751754">
  <ele>708.23</ele>
  <time>2026-09-01T19:55:49Z</time>
  <course>93.61</course>
  <speed>0.022360679774997897</speed>
  <fix>3d</fix>
</trkpt>
<trkpt lat="-35.1012209" lon="149.3751756">
  <ele>708.22</ele>
  <time>2026-09-01T19:55:49Z</time>
  <course>271.56</course>
  <speed>0.0</speed>
  <fix>3d</fix>
</trkpt>
<trkpt lat="-35.101221" lon="149.3751754">
  <ele>708.23</ele>
  <time>2026-09-01T19:55:49Z</time>
  <course>93.61</course>
  <speed>0.022360679774997897</speed>
  <fix>3d</fix>
</trkpt>
<trkpt lat="-35.1012209" lon="149.3751756">
  <ele>708.22</ele>
  <time>2026-09-01T19:55:49Z</time>
  <course>271.56</course>
  <speed>0.0</speed>
  <fix>3d</fix>
</trkpt>
<trkpt lat="-35.101221" lon="149.3751754">
  <ele>708.23</ele>
  <time>2026-09-01T19:55:49Z</time>
  <course>93.61</course>
  <speed>0.022360679774997897</speed>
  <fix>3d</fix>
</trkpt>
<trkpt lat="-35.1012209" lon="149.3751756">
  <ele>708.22</ele>
  <time>2026-09-01T19:55:49Z</time>
  <course>271.56</course>
  <speed>0.0</speed>
  <fix>3d</fix>
</trkpt>
<trkpt lat="-35.101221" lon="149.3751754">
  <ele>708.23</ele>
  <time>2026-09-01T19:55:49Z</time>
  <course>93.61</course>
  <speed>0.022360679774997897</speed>
  <fix>3d</fix>
</trkpt>
<trkpt lat="-35.1012209" lon="149.3751756">
  <ele>708.22</ele>
  <time>2026-09-01T19:55:49Z</time>
  <course>271.56</course>
  <speed>0.0</speed>
  <fix>3d</fix>
</trkpt>
<trkpt lat="-35.101221" lon="149.3751754">
  <ele>708.23</ele>
  <time>2026-09-01T19:55:49Z</time>
  <course>93.61</course>
  <speed>0.022360679774997897</speed>
  <fix>3d</fix>
</trkpt>
<trkpt lat="-35.1012209" lon="149.3751756">
  <ele>708.22</ele>
  <time>2026-09-01T19:55:49Z</time>
  <course>271.56</course>
  <speed>0.0</speed>
  <fix>3d</fix>
</trkpt>
<trkpt lat="-35.101221" lon="149.3751754">
  <ele>708.22</ele>
  <time>2026-09-01T19:55:49Z</time>
  <course>93.61</course>
  <speed>0.022360679774997897</speed>
  <fix>3d</fix>
</trkpt>
<trkpt lat="-35.1012209" lon="149.3751756">
  <ele>708.22</ele>
  <time>2026-09-01T19:55:49Z</time>
  <course>271.56</course>
  <speed>0.0</speed>
  <fix>3d</fix>
</trkpt>
<trkpt lat="-35.101221" lon="149.3751754">
  <ele>708.22</ele>
  <time>2026-09-01T19:55:49Z</time>
  <course>93.61</course>
  <speed>0.022360679774997897</speed>
  <fix>3d</fix>
</trkpt>
<trkpt lat="-35.1012209" lon="149.3751756">
  <ele>708.22</ele>
  <time>2026-09-01T19:55:49Z</time>
  <course>271.56</course>
  <speed>0.0</speed>
  <fix>3d</fix>
</trkpt>
<trkpt lat="-35.101221" lon="149.3751754">
  <ele>708.22</ele>
  <time>2026-09-01T19:55:49Z</time>
  <course>93.61</course>
  <speed>0.022360679774997897</speed>
  <fix>3d</fix>
</trkpt>
<trkpt lat="-35.1012209" lon="149.3751756">
  <ele>708.22</ele>
  <time>2026-09-01T19:55:49Z</time>
  <course>271.56</course>
  <speed>0.0</speed>
  <fix>3d</fix>
</trkpt>
<trkpt lat="-35.101221" lon="149.3751754">
  <ele>708.22</ele>
  <time>2026-09-01T19:55:49Z</time>
  <course>93.6</course>
  <speed>0.022360679774997897</speed>
  <fix>3d</fix>
</trkpt>
<trkpt lat="-35.1012209" lon="149.3751756">
  <ele>708.22</ele>
  <time>2026-09-01T19:55:49Z</time>
  <course>271.56</course>
  <speed>0.0</speed>
  <fix>3d</fix>
</trkpt>
<trkpt lat="-35.101221" lon="149.3751754">
  <ele>708.22</ele>
  <time>2026-09-01T19:55:49Z</time>
  <course>93.6</course>
  <speed>0.022360679774997897</speed>
  <fix>3d</fix>
</trkpt>
<trkpt lat="-35.1012209" lon="149.3751756">
  <ele>708.22</ele>
  <time>2026-09-01T19:55:49Z</time>
  <course>271.56</course>
  <speed>0.0</speed>
  <fix>3d</fix>
</trkpt>
<trkpt lat="-35.101221" lon="149.3751754">
  <ele>708.22</ele>
  <time>2026-09-01T19:55:49Z</time>
  <course>93.6</course>
  <speed>0.022360679774997897</speed>
  <fix>3d</fix>
</trkpt>
<trkpt lat="-35.1012209" lon="149.3751756">
  <ele>708.22</ele>
  <time>2026-09-01T19:55:49Z</time>
  <course>271.56</course>
  <speed>0.0</speed>
  <fix>3d</fix>
</trkpt>
<trkpt lat="-35.101221" lon="149.3751754">
  <ele>708.22</ele>
  <time>2026-09-01T19:55:49Z</time>
  <course>93.6</course>
  <speed>0.022360679774997897</speed>
  <fix>3d</fix>
</trkpt>
<trkpt lat="-35.1012209" lon="149.3751756">
  <ele>708.22</ele>
  <time>2026-09-01T19:55:49Z</time>
  <course>271.56</course>
  <speed>0.0</speed>
  <fix>3d</fix>
</trkpt>
<trkpt lat="-35.101221" lon="149.3751754">
  <ele>708.22</ele>
  <time>2026-09-01T19:55:49Z</time>
  <course>93.6</course>
  <speed>0.022360679774997897</speed>
  <fix>3d</fix>
</trkpt>
<trkpt lat="-35.1012209" lon="149.3751756">
  <ele>708.22</ele>
  <time>2026-09-01T19:55:49Z</time>
  <course>271.56</course>
  <speed>0.0</speed>
  <fix>3d</fix>
</trkpt>
<trkpt lat="-35.101221" lon="149.3751754">
  <ele>708.22</ele>
  <time>2026-09-01T19:55:49Z</time>
  <course>93.6</course>
  <speed>0.022360679774997897</speed>
  <fix>3d</fix>
</trkpt>
<trkpt lat="-35.1012209" lon="149.3751756">
  <ele>708.22</ele>
  <time>2026-09-01T19:55:49Z</time>
  <course>271.56</course>
  <speed>0.0</speed>
  <fix>3d</fix>
</trkpt>
<trkpt lat="-35.101221" lon="149.3751754">
  <ele>708.23</ele>
  <time>2026-09-01T19:55:49Z</time>
  <course>93.6</course>
  <speed>0.022360679774997897</speed>
  <fix>3d</fix>
</trkpt>
<trkpt lat="-35.1012209" lon="149.3751756">
  <ele>708.22</ele>
  <time>2026-09-01T19:55:49Z</time>
  <course>271.56</course>
  <speed>0.0</speed>
  <fix>3d</fix>
</trkpt>
<trkpt lat="-35.101221" lon="149.3751754">
  <ele>708.23</ele>
  <time>2026-09-01T19:55:49Z</time>
  <course>93.6</course>
  <speed>0.0282842712474619</speed>
  <fix>3d</fix>
</trkpt>
<trkpt lat="-35.1012209" lon="149.3751756">
  <ele>708.22</ele>
  <time>2026-09-01T19:55:49Z</time>
  <course>271.56</course>
  <speed>0.0</speed>
  <fix>3d</fix>
</trkpt>
<trkpt lat="-35.101221" lon="149.3751754">
  <ele>708.23</ele>
  <time>2026-09-01T19:55:49Z</time>
  <course>93.6</course>
  <speed>0.022360679774997897</speed>
  <fix>3d</fix>
</trkpt>
<trkpt lat="-35.1012209" lon="149.3751756">
  <ele>708.22</ele>
  <time>2026-09-01T19:55:49Z</time>
  <course>271.56</course>
  <speed>0.0</speed>
  <fix>3d</fix>
</trkpt>
<trkpt lat="-35.101221" lon="149.3751754">
  <ele>708.24</ele>
  <time>2026-09-01T19:55:49Z</time>
  <course>93.59</course>
  <speed>0.0282842712474619</speed>
  <fix>3d</fix>
</trkpt>
<trkpt lat="-35.1012209" lon="149.3751756">
  <ele>708.22</ele>
  <time>2026-09-01T19:55:49Z</time>
  <course>271.56</course>
  <speed>0.0</speed>
  <fix>3d</fix>
</trkpt>
<trkpt lat="-35.101221" lon="149.3751754">
  <ele>708.24</ele>
  <time>2026-09-01T19:55:49Z</time>
  <course>93.59</course>
  <speed>0.0282842712474619</speed>
  <fix>3d</fix>
</trkpt>
<trkpt lat="-35.1012209" lon="149.3751756">
  <ele>708.22</ele>
  <time>2026-09-01T19:55:49Z</time>
  <course>271.56</course>
  <speed>0.0</speed>
  <fix>3d</fix>
</trkpt>
<trkpt lat="-35.101221" lon="149.3751754">
  <ele>708.24</ele>
  <time>2026-09-01T19:55:49Z</time>
  <course>93.59</course>
  <speed>0.0282842712474619</speed>
  <fix>3d</fix>
</trkpt>
<trkpt lat="-35.1012209" lon="149.3751756">
  <ele>708.22</ele>
  <time>2026-09-01T19:55:49Z</time>
  <course>271.56</course>
  <speed>0.0</speed>
  <fix>3d</fix>
</trkpt>
<trkpt lat="-35.101221" lon="149.3751754">
  <ele>708.24</ele>
  <time>2026-09-01T19:55:49Z</time>
  <course>93.59</course>
  <speed>0.0282842712474619</speed>
  <fix>3d</fix>
</trkpt>
<trkpt lat="-35.1012209" lon="149.3751756">
  <ele>708.22</ele>
  <time>2026-09-01T19:55:49Z</time>
  <course>271.56</course>
  <speed>0.0</speed>
  <fix>3d</fix>
</trkpt>
<trkpt lat="-35.101221" lon="149.3751754">
  <ele>708.24</ele>
  <time>2026-09-01T19:55:49Z</time>
  <course>93.59</course>
  <speed>0.0282842712474619</speed>
  <fix>3d</fix>
</trkpt>
<trkpt lat="-35.1012209" lon="149.3751756">
  <ele>708.22</ele>
  <time>2026-09-01T19:55:49Z</time>
  <course>271.56</course>
  <speed>0.0</speed>
  <fix>3d</fix>
</trkpt>
<trkpt lat="-35.101221" lon="149.3751754">
  <ele>708.24</ele>
  <time>2026-09-01T19:55:49Z</time>
  <course>93.59</course>
  <speed>0.0282842712474619</speed>
  <fix>3d</fix>
</trkpt>
<trkpt lat="-35.1012209" lon="149.3751756">
  <ele>708.22</ele>
  <time>2026-09-01T19:55:49Z</time>
  <course>271.56</course>
  <speed>0.0</speed>
  <fix>3d</fix>
</trkpt>
<trkpt lat="-35.101221" lon="149.3751754">
  <ele>708.24</ele>
  <time>2026-09-01T19:55:49Z</time>
  <course>93.59</course>
  <speed>0.0282842712474619</speed>
  <fix>3d</fix>
</trkpt>
<trkpt lat="-35.1012209" lon="149.3751756">
  <ele>708.22</ele>
  <time>2026-09-01T19:55:49Z</time>
  <course>271.56</course>
  <speed>0.0</speed>
  <fix>3d</fix>
</trkpt>
<trkpt lat="-35.101221" lon="149.3751754">
  <ele>708.24</ele>
  <time>2026-09-01T19:55:49Z</time>
  <course>93.59</course>
  <speed>0.0282842712474619</speed>
  <fix>3d</fix>
</trkpt>
<trkpt lat="-35.1012209" lon="149.3751756">
  <ele>708.22</ele>
  <time>2026-09-01T19:55:49Z</time>
  <course>271.56</course>
  <speed>0.0</speed>
  <fix>3d</fix>
</trkpt>
<trkpt lat="-35.101221" lon="149.3751754">
  <ele>708.24</ele>
  <time>2026-09-01T19:55:49Z</time>
  <course>93.59</course>
  <speed>0.0282842712474619</speed>
  <fix>3d</fix>
</trkpt>
<trkpt lat="-35.1012209" lon="149.3751756">
  <ele>708.22</ele>
  <time>2026-09-01T19:55:49Z</time>
  <course>271.56</course>
  <speed>0.0</speed>
  <fix>3d</fix>
</trkpt>
<trkpt lat="-35.101221" lon="149.3751754">
  <ele>708.24</ele>
  <time>2026-09-01T19:55:49Z</time>
  <course>93.59</course>
  <speed>0.0282842712474619</speed>
  <fix>3d</fix>
</trkpt>
<trkpt lat="-35.1012209" lon="149.3751756">
  <ele>708.22</ele>
  <time>2026-09-01T19:55:49Z</time>
  <course>271.56</course>
  <speed>0.0</speed>
  <fix>3d</fix>
</trkpt>
<trkpt lat="-35.101221" lon="149.3751754">
  <ele>708.24</ele>
  <time>2026-09-01T19:55:49Z</time>
  <course>93.59</course>
  <speed>0.0282842712474619</speed>
  <fix>3d</fix>
</trkpt>
<trkpt lat="-35.1012209" lon="149.3751756">
  <ele>708.22</ele>
  <time>2026-09-01T19:55:49Z</time>
  <course>271.56</course>
  <speed>0.0</speed>
  <fix>3d</fix>
</trkpt>
<trkpt lat="-35.101221" lon="149.3751754">
  <ele>708.24</ele>
  <time>2026-09-01T19:55:49Z</time>
  <course>93.58</course>
  <speed>0.0282842712474619</speed>
  <fix>3d</fix>
</trkpt>
<trkpt lat="-35.1012209" lon="149.3751756">
  <ele>708.22</ele>
  <time>2026-09-01T19:55:49Z</time>
  <course>271.56</course>
  <speed>0.0</speed>
  <fix>3d</fix>
</trkpt>
<trkpt lat="-35.101221" lon="149.3751754">
  <ele>708.24</ele>
  <time>2026-09-01T19:55:49Z</time>
  <course>93.58</course>
  <speed>0.0282842712474619</speed>
  <fix>3d</fix>
</trkpt>
<trkpt lat="-35.1012209" lon="149.3751756">
  <ele>708.22</ele>
  <time>2026-09-01T19:55:49Z</time>
  <course>271.56</course>
  <speed>0.0</speed>
  <fix>3d</fix>
</trkpt>
<trkpt lat="-35.101221" lon="149.3751754">
  <ele>708.24</ele>
  <time>2026-09-01T19:55:49Z</time>
  <course>93.58</course>
  <speed>0.0282842712474619</speed>
  <fix>3d</fix>
</trkpt>
<trkpt lat="-35.1012209" lon="149.3751756">
  <ele>708.22</ele>
  <time>2026-09-01T19:55:50Z</time>
  <course>271.56</course>
  <speed>0.0</speed>
  <fix>3d</fix>
</trkpt>
<trkpt lat="-35.101221" lon="149.3751754">
  <ele>708.24</ele>
  <time>2026-09-01T19:55:50Z</time>
  <course>93.58</course>
  <speed>0.0282842712474619</speed>
  <fix>3d</fix>
</trkpt>
<trkpt lat="-35.1012209" lon="149.3751756">
  <ele>708.22</ele>
  <time>2026-09-01T19:55:50Z</time>
  <course>271.56</course>
  <speed>0.0</speed>
  <fix>3d</fix>
</trkpt>
<trkpt lat="-35.101221" lon="149.3751754">
  <ele>708.24</ele>
  <time>2026-09-01T19:55:50Z</time>
  <course>93.58</course>
  <speed>0.0282842712474619</speed>
  <fix>3d</fix>
</trkpt>
<trkpt lat="-35.1012209" lon="149.3751756">
  <ele>708.22</ele>
  <time>2026-09-01T19:55:50Z</time>
  <course>271.56</course>
  <speed>0.0</speed>
  <fix>3d</fix>
</trkpt>
<trkpt lat="-35.101221" lon="149.3751754">
  <ele>708.25</ele>
  <time>2026-09-01T19:55:50Z</time>
  <course>93.58</course>
  <speed>0.0282842712474619</speed>
  <fix>3d</fix>
</trkpt>
<trkpt lat="-35.1012209" lon="149.3751756">
  <ele>708.22</ele>
  <time>2026-09-01T19:55:50Z</time>
  <course>271.56</course>
  <speed>0.0</speed>
  <fix>3d</fix>
</trkpt>
<trkpt lat="-35.101221" lon="149.3751754">
  <ele>708.25</ele>
  <time>2026-09-01T19:55:50Z</time>
  <course>93.58</course>
  <speed>0.0282842712474619</speed>
  <fix>3d</fix>
</trkpt>
<trkpt lat="-35.1012209" lon="149.3751756">
  <ele>708.22</ele>
  <time>2026-09-01T19:55:50Z</time>
  <course>271.56</course>
  <speed>0.0</speed>
  <fix>3d</fix>
</trkpt>
<trkpt lat="-35.101221" lon="149.3751754">
  <ele>708.25</ele>
  <time>2026-09-01T19:55:50Z</time>
  <course>93.58</course>
  <speed>0.0282842712474619</speed>
  <fix>3d</fix>
</trkpt>
<trkpt lat="-35.1012209" lon="149.3751756">
  <ele>708.22</ele>
  <time>2026-09-01T19:55:50Z</time>
  <course>271.56</course>
  <speed>0.0</speed>
  <fix>3d</fix>
</trkpt>
<trkpt lat="-35.101221" lon="149.3751754">
  <ele>708.25</ele>
  <time>2026-09-01T19:55:50Z</time>
  <course>93.58</course>
  <speed>0.0282842712474619</speed>
  <fix>3d</fix>
</trkpt>
<trkpt lat="-35.1012209" lon="149.3751756">
  <ele>708.22</ele>
  <time>2026-09-01T19:55:50Z</time>
  <course>271.56</course>
  <speed>0.0</speed>
  <fix>3d</fix>
</trkpt>
<trkpt lat="-35.101221" lon="149.3751754">
  <ele>708.25</ele>
  <time>2026-09-01T19:55:50Z</time>
  <course>93.58</course>
  <speed>0.0282842712474619</speed>
  <fix>3d</fix>
</trkpt>
<trkpt lat="-35.1012209" lon="149.3751756">
  <ele>708.22</ele>
  <time>2026-09-01T19:55:50Z</time>
  <course>271.56</course>
  <speed>0.0</speed>
  <fix>3d</fix>
</trkpt>
<trkpt lat="-35.101221" lon="149.3751754">
  <ele>708.25</ele>
  <time>2026-09-01T19:55:50Z</time>
  <course>93.57</course>
  <speed>0.0282842712474619</speed>
  <fix>3d</fix>
</trkpt>
<trkpt lat="-35.1012209" lon="149.3751756">
  <ele>708.22</ele>
  <time>2026-09-01T19:55:50Z</time>
  <course>271.56</course>
  <speed>0.0</speed>
  <fix>3d</fix>
</trkpt>
<trkpt lat="-35.101221" lon="149.3751754">
  <ele>708.25</ele>
  <time>2026-09-01T19:55:50Z</time>
  <course>93.57</course>
  <speed>0.0282842712474619</speed>
  <fix>3d</fix>
</trkpt>
<trkpt lat="-35.1012209" lon="149.3751756">
  <ele>708.22</ele>
  <time>2026-09-01T19:55:50Z</time>
  <course>271.56</course>
  <speed>0.0</speed>
  <fix>3d</fix>
</trkpt>
<trkpt lat="-35.101221" lon="149.3751754">
  <ele>708.25</ele>
  <time>2026-09-01T19:55:50Z</time>
  <course>93.57</course>
  <speed>0.0282842712474619</speed>
  <fix>3d</fix>
</trkpt>
<trkpt lat="-35.1012209" lon="149.3751756">
  <ele>708.22</ele>
  <time>2026-09-01T19:55:50Z</time>
  <course>271.56</course>
  <speed>0.0</speed>
  <fix>3d</fix>
</trkpt>
<trkpt lat="-35.101221" lon="149.3751754">
  <ele>708.24</ele>
  <time>2026-09-01T19:55:50Z</time>
  <course>93.57</course>
  <speed>0.0282842712474619</speed>
  <fix>3d</fix>
</trkpt>
<trkpt lat="-35.1012209" lon="149.3751756">
  <ele>708.22</ele>
  <time>2026-09-01T19:55:50Z</time>
  <course>271.56</course>
  <speed>0.0</speed>
  <fix>3d</fix>
</trkpt>
<trkpt lat="-35.101221" lon="149.3751754">
  <ele>708.24</ele>
  <time>2026-09-01T19:55:50Z</time>
  <course>93.57</course>
  <speed>0.0282842712474619</speed>
  <fix>3d</fix>
</trkpt>
<trkpt lat="-35.1012209" lon="149.3751756">
  <ele>708.22</ele>
  <time>2026-09-01T19:55:50Z</time>
  <course>271.56</course>
  <speed>0.0</speed>
  <fix>3d</fix>
</trkpt>
<trkpt lat="-35.101221" lon="149.3751754">
  <ele>708.25</ele>
  <time>2026-09-01T19:55:50Z</time>
  <course>93.57</course>
  <speed>0.0282842712474619</speed>
  <fix>3d</fix>
</trkpt>
<trkpt lat="-35.1012209" lon="149.3751756">
  <ele>708.22</ele>
  <time>2026-09-01T19:55:50Z</time>
  <course>271.56</course>
  <speed>0.0</speed>
  <fix>3d</fix>
</trkpt>
<trkpt lat="-35.101221" lon="149.3751754">
  <ele>708.25</ele>
  <time>2026-09-01T19:55:50Z</time>
  <course>93.57</course>
  <speed>0.0282842712474619</speed>
  <fix>3d</fix>
</trkpt>
<trkpt lat="-35.1012209" lon="149.3751756">
  <ele>708.22</ele>
  <time>2026-09-01T19:55:50Z</time>
  <course>271.56</course>
  <speed>0.0</speed>
  <fix>3d</fix>
</trkpt>
<trkpt lat="-35.101221" lon="149.3751754">
  <ele>708.25</ele>
  <time>2026-09-01T19:55:50Z</time>
  <course>93.57</course>
  <speed>0.0282842712474619</speed>
  <fix>3d</fix>
</trkpt>
<trkpt lat="-35.1012209" lon="149.3751756">
  <ele>708.22</ele>
  <time>2026-09-01T19:55:50Z</time>
  <course>271.56</course>
  <speed>0.0</speed>
  <fix>3d</fix>
</trkpt>
<trkpt lat="-35.101221" lon="149.3751754">
  <ele>708.25</ele>
  <time>2026-09-01T19:55:50Z</time>
  <course>93.57</course>
  <speed>0.0282842712474619</speed>
  <fix>3d</fix>
</trkpt>
<trkpt lat="-35.1012209" lon="149.3751756">
  <ele>708.22</ele>
  <time>2026-09-01T19:55:50Z</time>
  <course>271.56</course>
  <speed>0.0</speed>
  <fix>3d</fix>
</trkpt>
<trkpt lat="-35.101221" lon="149.3751754">
  <ele>708.25</ele>
  <time>2026-09-01T19:55:50Z</time>
  <course>93.57</course>
  <speed>0.0282842712474619</speed>
  <fix>3d</fix>
</trkpt>
<trkpt lat="-35.1012209" lon="149.3751756">
  <ele>708.22</ele>
  <time>2026-09-01T19:55:50Z</time>
  <course>271.56</course>
  <speed>0.0</speed>
  <fix>3d</fix>
</trkpt>
<trkpt lat="-35.101221" lon="149.3751754">
  <ele>708.26</ele>
  <time>2026-09-01T19:55:50Z</time>
  <course>93.57</course>
  <speed>0.0282842712474619</speed>
  <fix>3d</fix>
</trkpt>
<trkpt lat="-35.1012209" lon="149.3751756">
  <ele>708.22</ele>
  <time>2026-09-01T19:55:50Z</time>
  <course>271.56</course>
  <speed>0.0</speed>
  <fix>3d</fix>
</trkpt>
<trkpt lat="-35.101221" lon="149.3751754">
  <ele>708.26</ele>
  <time>2026-09-01T19:55:50Z</time>
  <course>93.56</course>
  <speed>0.0282842712474619</speed>
  <fix>3d</fix>
</trkpt>
<trkpt lat="-35.1012209" lon="149.3751756">
  <ele>708.22</ele>
  <time>2026-09-01T19:55:50Z</time>
  <course>271.56</course>
  <speed>0.0</speed>
  <fix>3d</fix>
</trkpt>
<trkpt lat="-35.101221" lon="149.3751754">
  <ele>708.22</ele>
  <time>2026-09-01T19:55:50Z</time>
  <course>93.56</course>
  <speed>0.0282842712474619</speed>
  <fix>3d</fix>
</trkpt>
<trkpt lat="-35.1012209" lon="149.3751756">
  <ele>708.22</ele>
  <time>2026-09-01T19:55:50Z</time>
  <course>271.56</course>
  <speed>0.0</speed>
  <fix>3d</fix>
</trkpt>
<trkpt lat="-35.101221" lon="149.3751754">
  <ele>708.22</ele>
  <time>2026-09-01T19:55:50Z</time>
  <course>93.56</course>
  <speed>0.0282842712474619</speed>
  <fix>3d</fix>
</trkpt>
<trkpt lat="-35.1012209" lon="149.3751756">
  <ele>708.22</ele>
  <time>2026-09-01T19:55:50Z</time>
  <course>271.56</course>
  <speed>0.0</speed>
  <fix>3d</fix>
</trkpt>
<trkpt lat="-35.101221" lon="149.3751754">
  <ele>708.22</ele>
  <time>2026-09-01T19:55:50Z</time>
  <course>93.56</course>
  <speed>0.0282842712474619</speed>
  <fix>3d</fix>
</trkpt>
<trkpt lat="-35.1012209" lon="149.3751756">
  <ele>708.22</ele>
  <time>2026-09-01T19:55:50Z</time>
  <course>271.56</course>
  <speed>0.0</speed>
  <fix>3d</fix>
</trkpt>
<trkpt lat="-35.101221" lon="149.3751754">
  <ele>708.22</ele>
  <time>2026-09-01T19:55:50Z</time>
  <course>93.56</course>
  <speed>0.0282842712474619</speed>
  <fix>3d</fix>
</trkpt>
<trkpt lat="-35.1012209" lon="149.3751756">
  <ele>708.22</ele>
  <time>2026-09-01T19:55:50Z</time>
  <course>271.56</course>
  <speed>0.0</speed>
  <fix>3d</fix>
</trkpt>
<trkpt lat="-35.101221" lon="149.3751754">
  <ele>708.22</ele>
  <time>2026-09-01T19:55:50Z</time>
  <course>93.56</course>
  <speed>0.0282842712474619</speed>
  <fix>3d</fix>
</trkpt>
<trkpt lat="-35.1012209" lon="149.3751756">
  <ele>708.22</ele>
  <time>2026-09-01T19:55:50Z</time>
  <course>271.56</course>
  <speed>0.0</speed>
  <fix>3d</fix>
</trkpt>
<trkpt lat="-35.101221" lon="149.3751754">
  <ele>708.22</ele>
  <time>2026-09-01T19:55:50Z</time>
  <course>93.56</course>
  <speed>0.0282842712474619</speed>
  <fix>3d</fix>
</trkpt>
<trkpt lat="-35.1012209" lon="149.3751756">
  <ele>708.22</ele>
  <time>2026-09-01T19:55:50Z</time>
  <course>271.56</course>
  <speed>0.0</speed>
  <fix>3d</fix>
</trkpt>
<trkpt lat="-35.101221" lon="149.3751754">
  <ele>708.22</ele>
  <time>2026-09-01T19:55:50Z</time>
  <course>93.56</course>
  <speed>0.0282842712474619</speed>
  <fix>3d</fix>
</trkpt>
<trkpt lat="-35.1012209" lon="149.3751756">
  <ele>708.22</ele>
  <time>2026-09-01T19:55:50Z</time>
  <course>271.56</course>
  <speed>0.0</speed>
  <fix>3d</fix>
</trkpt>
<trkpt lat="-35.101221" lon="149.3751754">
  <ele>708.22</ele>
  <time>2026-09-01T19:55:50Z</time>
  <course>93.56</course>
  <speed>0.0282842712474619</speed>
  <fix>3d</fix>
</trkpt>
<trkpt lat="-35.1012209" lon="149.3751756">
  <ele>708.22</ele>
  <time>2026-09-01T19:55:50Z</time>
  <course>271.56</course>
  <speed>0.0</speed>
  <fix>3d</fix>
</trkpt>
<trkpt lat="-35.101221" lon="149.3751754">
  <ele>708.23</ele>
  <time>2026-09-01T19:55:50Z</time>
  <course>93.56</course>
  <speed>0.0282842712474619</speed>
  <fix>3d</fix>
</trkpt>
<trkpt lat="-35.1012209" lon="149.3751756">
  <ele>708.22</ele>
  <time>2026-09-01T19:55:50Z</time>
  <course>271.56</course>
  <speed>0.0</speed>
  <fix>3d</fix>
</trkpt>
<trkpt lat="-35.101221" lon="149.3751754">
  <ele>708.23</ele>
  <time>2026-09-01T19:55:50Z</time>
  <course>93.56</course>
  <speed>0.0282842712474619</speed>
  <fix>3d</fix>
</trkpt>
<trkpt lat="-35.1012209" lon="149.3751756">
  <ele>708.22</ele>
  <time>2026-09-01T19:55:50Z</time>
  <course>271.56</course>
  <speed>0.0</speed>
  <fix>3d</fix>
</trkpt>
<trkpt lat="-35.101221" lon="149.3751754">
  <ele>708.23</ele>
  <time>2026-09-01T19:55:50Z</time>
  <course>93.55</course>
  <speed>0.0282842712474619</speed>
  <fix>3d</fix>
</trkpt>
<trkpt lat="-35.1012209" lon="149.3751756">
  <ele>708.22</ele>
  <time>2026-09-01T19:55:50Z</time>
  <course>271.56</course>
  <speed>0.0</speed>
  <fix>3d</fix>
</trkpt>
<trkpt lat="-35.101221" lon="149.3751754">
  <ele>708.23</ele>
  <time>2026-09-01T19:55:50Z</time>
  <course>93.55</course>
  <speed>0.0282842712474619</speed>
  <fix>3d</fix>
</trkpt>
<trkpt lat="-35.1012209" lon="149.3751756">
  <ele>708.22</ele>
  <time>2026-09-01T19:55:50Z</time>
  <course>271.56</course>
  <speed>0.0</speed>
  <fix>3d</fix>
</trkpt>
<trkpt lat="-35.101221" lon="149.3751754">
  <ele>708.23</ele>
  <time>2026-09-01T19:55:50Z</time>
  <course>93.55</course>
  <speed>0.0282842712474619</speed>
  <fix>3d</fix>
</trkpt>
<trkpt lat="-35.1012209" lon="149.3751756">
  <ele>708.22</ele>
  <time>2026-09-01T19:55:50Z</time>
  <course>271.56</course>
  <speed>0.0</speed>
  <fix>3d</fix>
</trkpt>
<trkpt lat="-35.101221" lon="149.3751754">
  <ele>708.23</ele>
  <time>2026-09-01T19:55:50Z</time>
  <course>93.55</course>
  <speed>0.0282842712474619</speed>
  <fix>3d</fix>
</trkpt>
<trkpt lat="-35.1012209" lon="149.3751756">
  <ele>708.22</ele>
  <time>2026-09-01T19:55:50Z</time>
  <course>271.56</course>
  <speed>0.0</speed>
  <fix>3d</fix>
</trkpt>
<trkpt lat="-35.101221" lon="149.3751754">
  <ele>708.23</ele>
  <time>2026-09-01T19:55:50Z</time>
  <course>93.55</course>
  <speed>0.0282842712474619</speed>
  <fix>3d</fix>
</trkpt>
<trkpt lat="-35.1012209" lon="149.3751756">
  <ele>708.22</ele>
  <time>2026-09-01T19:55:50Z</time>
  <course>271.56</course>
  <speed>0.0</speed>
  <fix>3d</fix>
</trkpt>
<trkpt lat="-35.101221" lon="149.3751754">
  <ele>708.23</ele>
  <time>2026-09-01T19:55:50Z</time>
  <course>93.55</course>
  <speed>0.0282842712474619</speed>
  <fix>3d</fix>
</trkpt>
<trkpt lat="-35.1012209" lon="149.3751756">
  <ele>708.22</ele>
  <time>2026-09-01T19:55:50Z</time>
  <course>271.56</course>
  <speed>0.0</speed>
  <fix>3d</fix>
</trkpt>
<trkpt lat="-35.101221" lon="149.3751754">
  <ele>708.23</ele>
  <time>2026-09-01T19:55:50Z</time>
  <course>93.55</course>
  <speed>0.0282842712474619</speed>
  <fix>3d</fix>
</trkpt>
<trkpt lat="-35.1012209" lon="149.3751756">
  <ele>708.22</ele>
  <time>2026-09-01T19:55:50Z</time>
  <course>271.56</course>
  <speed>0.0</speed>
  <fix>3d</fix>
</trkpt>
<trkpt lat="-35.101221" lon="149.3751754">
  <ele>708.23</ele>
  <time>2026-09-01T19:55:50Z</time>
  <course>93.55</course>
  <speed>0.0282842712474619</speed>
  <fix>3d</fix>
</trkpt>
<trkpt lat="-35.1012209" lon="149.3751756">
  <ele>708.22</ele>
  <time>2026-09-01T19:55:50Z</time>
  <course>271.56</course>
  <speed>0.0</speed>
  <fix>3d</fix>
</trkpt>
<trkpt lat="-35.101221" lon="149.3751754">
  <ele>708.23</ele>
  <time>2026-09-01T19:55:50Z</time>
  <course>93.55</course>
  <speed>0.0282842712474619</speed>
  <fix>3d</fix>
</trkpt>
<trkpt lat="-35.1012209" lon="149.3751756">
  <ele>708.22</ele>
  <time>2026-09-01T19:55:50Z</time>
  <course>271.56</course>
  <speed>0.0</speed>
  <fix>3d</fix>
</trkpt>
<trkpt lat="-35.101221" lon="149.3751754">
  <ele>708.23</ele>
  <time>2026-09-01T19:55:50Z</time>
  <course>93.55</course>
  <speed>0.0282842712474619</speed>
  <fix>3d</fix>
</trkpt>
<trkpt lat="-35.1012209" lon="149.3751756">
  <ele>708.22</ele>
  <time>2026-09-01T19:55:50Z</time>
  <course>271.56</course>
  <speed>0.0</speed>
  <fix>3d</fix>
</trkpt>
<trkpt lat="-35.101221" lon="149.3751754">
  <ele>708.23</ele>
  <time>2026-09-01T19:55:50Z</time>
  <course>93.55</course>
  <speed>0.0282842712474619</speed>
  <fix>3d</fix>
</trkpt>
<trkpt lat="-35.1012209" lon="149.3751756">
  <ele>708.22</ele>
  <time>2026-09-01T19:55:50Z</time>
  <course>271.56</course>
  <speed>0.0</speed>
  <fix>3d</fix>
</trkpt>
<trkpt lat="-35.101221" lon="149.3751754">
  <ele>708.23</ele>
  <time>2026-09-01T19:55:50Z</time>
  <course>93.55</course>
  <speed>0.0282842712474619</speed>
  <fix>3d</fix>
</trkpt>
<trkpt lat="-35.1012209" lon="149.3751756">
  <ele>708.22</ele>
  <time>2026-09-01T19:55:50Z</time>
  <course>271.56</course>
  <speed>0.0</speed>
  <fix>3d</fix>
</trkpt>
<trkpt lat="-35.101221" lon="149.3751754">
  <ele>708.23</ele>
  <time>2026-09-01T19:55:50Z</time>
  <course>93.55</course>
  <speed>0.0282842712474619</speed>
  <fix>3d</fix>
</trkpt>
<trkpt lat="-35.1012209" lon="149.3751756">
  <ele>708.22</ele>
  <time>2026-09-01T19:55:50Z</time>
  <course>271.56</course>
  <speed>0.0</speed>
  <fix>3d</fix>
</trkpt>
<trkpt lat="-35.101221" lon="149.3751754">
  <ele>708.22</ele>
  <time>2026-09-01T19:55:50Z</time>
  <course>93.54</course>
  <speed>0.0282842712474619</speed>
  <fix>3d</fix>
</trkpt>
<trkpt lat="-35.1012209" lon="149.3751756">
  <ele>708.22</ele>
  <time>2026-09-01T19:55:50Z</time>
  <course>271.56</course>
  <speed>0.0</speed>
  <fix>3d</fix>
</trkpt>
<trkpt lat="-35.101221" lon="149.3751754">
  <ele>708.22</ele>
  <time>2026-09-01T19:55:50Z</time>
  <course>93.54</course>
  <speed>0.0282842712474619</speed>
  <fix>3d</fix>
</trkpt>
<trkpt lat="-35.1012209" lon="149.3751756">
  <ele>708.22</ele>
  <time>2026-09-01T19:55:50Z</time>
  <course>271.56</course>
  <speed>0.0</speed>
  <fix>3d</fix>
</trkpt>
<trkpt lat="-35.101221" lon="149.3751754">
  <ele>708.22</ele>
  <time>2026-09-01T19:55:50Z</time>
  <course>93.54</course>
  <speed>0.0282842712474619</speed>
  <fix>3d</fix>
</trkpt>
<trkpt lat="-35.1012209" lon="149.3751756">
  <ele>708.22</ele>
  <time>2026-09-01T19:55:50Z</time>
  <course>271.56</course>
  <speed>0.0</speed>
  <fix>3d</fix>
</trkpt>
<trkpt lat="-35.101221" lon="149.3751754">
  <ele>708.22</ele>
  <time>2026-09-01T19:55:50Z</time>
  <course>93.54</course>
  <speed>0.0282842712474619</speed>
  <fix>3d</fix>
</trkpt>
<trkpt lat="-35.1012209" lon="149.3751756">
  <ele>708.22</ele>
  <time>2026-09-01T19:55:50Z</time>
  <course>271.56</course>
  <speed>0.0</speed>
  <fix>3d</fix>
</trkpt>
<trkpt lat="-35.101221" lon="149.3751754">
  <ele>708.21</ele>
  <time>2026-09-01T19:55:50Z</time>
  <course>93.54</course>
  <speed>0.0282842712474619</speed>
  <fix>3d</fix>
</trkpt>
<trkpt lat="-35.1012209" lon="149.3751756">
  <ele>708.22</ele>
  <time>2026-09-01T19:55:50Z</time>
  <course>271.56</course>
  <speed>0.0</speed>
  <fix>3d</fix>
</trkpt>
<trkpt lat="-35.101221" lon="149.3751754">
  <ele>708.21</ele>
  <time>2026-09-01T19:55:50Z</time>
  <course>93.54</course>
  <speed>0.0282842712474619</speed>
  <fix>3d</fix>
</trkpt>
<trkpt lat="-35.1012209" lon="149.3751756">
  <ele>708.22</ele>
  <time>2026-09-01T19:55:50Z</time>
  <course>271.56</course>
  <speed>0.0</speed>
  <fix>3d</fix>
</trkpt>
<trkpt lat="-35.101221" lon="149.3751754">
  <ele>708.21</ele>
  <time>2026-09-01T19:55:50Z</time>
  <course>93.54</course>
  <speed>0.0282842712474619</speed>
  <fix>3d</fix>
</trkpt>
<trkpt lat="-35.1012209" lon="149.3751756">
  <ele>708.22</ele>
  <time>2026-09-01T19:55:50Z</time>
  <course>271.56</course>
  <speed>0.0</speed>
  <fix>3d</fix>
</trkpt>
<trkpt lat="-35.101221" lon="149.3751754">
  <ele>708.21</ele>
  <time>2026-09-01T19:55:50Z</time>
  <course>93.54</course>
  <speed>0.0282842712474619</speed>
  <fix>3d</fix>
</trkpt>
<trkpt lat="-35.1012209" lon="149.3751756">
  <ele>708.22</ele>
  <time>2026-09-01T19:55:50Z</time>
  <course>271.56</course>
  <speed>0.0</speed>
  <fix>3d</fix>
</trkpt>
<trkpt lat="-35.101221" lon="149.3751754">
  <ele>708.21</ele>
  <time>2026-09-01T19:55:50Z</time>
  <course>93.54</course>
  <speed>0.0282842712474619</speed>
  <fix>3d</fix>
</trkpt>
<trkpt lat="-35.1012209" lon="149.3751756">
  <ele>708.22</ele>
  <time>2026-09-01T19:55:50Z</time>
  <course>271.56</course>
  <speed>0.0</speed>
  <fix>3d</fix>
</trkpt>
<trkpt lat="-35.101221" lon="149.3751754">
  <ele>708.21</ele>
  <time>2026-09-01T19:55:50Z</time>
  <course>93.54</course>
  <speed>0.0282842712474619</speed>
  <fix>3d</fix>
</trkpt>
<trkpt lat="-35.1012209" lon="149.3751756">
  <ele>708.22</ele>
  <time>2026-09-01T19:55:50Z</time>
  <course>271.56</course>
  <speed>0.0</speed>
  <fix>3d</fix>
</trkpt>
<trkpt lat="-35.101221" lon="149.3751754">
  <ele>708.21</ele>
  <time>2026-09-01T19:55:50Z</time>
  <course>93.54</course>
  <speed>0.0282842712474619</speed>
  <fix>3d</fix>
</trkpt>
<trkpt lat="-35.1012209" lon="149.3751756">
  <ele>708.22</ele>
  <time>2026-09-01T19:55:50Z</time>
  <course>271.56</course>
  <speed>0.0</speed>
  <fix>3d</fix>
</trkpt>
<trkpt lat="-35.101221" lon="149.3751754">
  <ele>708.21</ele>
  <time>2026-09-01T19:55:50Z</time>
  <course>93.53</course>
  <speed>0.0282842712474619</speed>
  <fix>3d</fix>
</trkpt>
<trkpt lat="-35.1012209" lon="149.3751756">
  <ele>708.22</ele>
  <time>2026-09-01T19:55:50Z</time>
  <course>271.56</course>
  <speed>0.0</speed>
  <fix>3d</fix>
</trkpt>
<trkpt lat="-35.101221" lon="149.3751754">
  <ele>708.2</ele>
  <time>2026-09-01T19:55:50Z</time>
  <course>93.53</course>
  <speed>0.0282842712474619</speed>
  <fix>3d</fix>
</trkpt>
<trkpt lat="-35.1012209" lon="149.3751756">
  <ele>708.22</ele>
  <time>2026-09-01T19:55:50Z</time>
  <course>271.56</course>
  <speed>0.0</speed>
  <fix>3d</fix>
</trkpt>
<trkpt lat="-35.101221" lon="149.3751754">
  <ele>708.2</ele>
  <time>2026-09-01T19:55:50Z</time>
  <course>93.53</course>
  <speed>0.0282842712474619</speed>
  <fix>3d</fix>
</trkpt>
<trkpt lat="-35.1012209" lon="149.3751756">
  <ele>708.22</ele>
  <time>2026-09-01T19:55:50Z</time>
  <course>271.56</course>
  <speed>0.0</speed>
  <fix>3d</fix>
</trkpt>
<trkpt lat="-35.101221" lon="149.3751754">
  <ele>708.2</ele>
  <time>2026-09-01T19:55:50Z</time>
  <course>93.53</course>
  <speed>0.0282842712474619</speed>
  <fix>3d</fix>
</trkpt>
<trkpt lat="-35.1012209" lon="149.3751756">
  <ele>708.22</ele>
  <time>2026-09-01T19:55:50Z</time>
  <course>271.56</course>
  <speed>0.0</speed>
  <fix>3d</fix>
</trkpt>
<trkpt lat="-35.101221" lon="149.3751754">
  <ele>708.2</ele>
  <time>2026-09-01T19:55:50Z</time>
  <course>93.53</course>
  <speed>0.0282842712474619</speed>
  <fix>3d</fix>
</trkpt>
<trkpt lat="-35.1012209" lon="149.3751756">
  <ele>708.22</ele>
  <time>2026-09-01T19:55:50Z</time>
  <course>271.56</course>
  <speed>0.0</speed>
  <fix>3d</fix>
</trkpt>
<trkpt lat="-35.101221" lon="149.3751754">
  <ele>708.21</ele>
  <time>2026-09-01T19:55:50Z</time>
  <course>93.53</course>
  <speed>0.0282842712474619</speed>
  <fix>3d</fix>
</trkpt>
<trkpt lat="-35.1012209" lon="149.3751756">
  <ele>708.22</ele>
  <time>2026-09-01T19:55:50Z</time>
  <course>271.56</course>
  <speed>0.0</speed>
  <fix>3d</fix>
</trkpt>
<trkpt lat="-35.101221" lon="149.3751754">
  <ele>708.21</ele>
  <time>2026-09-01T19:55:50Z</time>
  <course>93.53</course>
  <speed>0.0282842712474619</speed>
  <fix>3d</fix>
</trkpt>
<trkpt lat="-35.1012209" lon="149.3751756">
  <ele>708.22</ele>
  <time>2026-09-01T19:55:50Z</time>
  <course>271.56</course>
  <speed>0.0</speed>
  <fix>3d</fix>
</trkpt>
<trkpt lat="-35.101221" lon="149.3751754">
  <ele>708.21</ele>
  <time>2026-09-01T19:55:50Z</time>
  <course>93.53</course>
  <speed>0.0282842712474619</speed>
  <fix>3d</fix>
</trkpt>
<trkpt lat="-35.1012209" lon="149.3751756">
  <ele>708.22</ele>
  <time>2026-09-01T19:55:50Z</time>
  <course>271.56</course>
  <speed>0.0</speed>
  <fix>3d</fix>
</trkpt>
<trkpt lat="-35.101221" lon="149.3751754">
  <ele>708.21</ele>
  <time>2026-09-01T19:55:50Z</time>
  <course>93.53</course>
  <speed>0.0282842712474619</speed>
  <fix>3d</fix>
</trkpt>
<trkpt lat="-35.1012209" lon="149.3751756">
  <ele>708.22</ele>
  <time>2026-09-01T19:55:50Z</time>
  <course>271.56</course>
  <speed>0.0</speed>
  <fix>3d</fix>
</trkpt>
<trkpt lat="-35.101221" lon="149.3751754">
  <ele>708.21</ele>
  <time>2026-09-01T19:55:50Z</time>
  <course>93.53</course>
  <speed>0.0282842712474619</speed>
  <fix>3d</fix>
</trkpt>
<trkpt lat="-35.1012209" lon="149.3751756">
  <ele>708.22</ele>
  <time>2026-09-01T19:55:50Z</time>
  <course>271.56</course>
  <speed>0.0</speed>
  <fix>3d</fix>
</trkpt>
<trkpt lat="-35.101221" lon="149.3751754">
  <ele>708.21</ele>
  <time>2026-09-01T19:55:50Z</time>
  <course>93.53</course>
  <speed>0.0282842712474619</speed>
  <fix>3d</fix>
</trkpt>
<trkpt lat="-35.1012209" lon="149.3751756">
  <ele>708.22</ele>
  <time>2026-09-01T19:55:50Z</time>
  <course>271.56</course>
  <speed>0.0</speed>
  <fix>3d</fix>
</trkpt>
<trkpt lat="-35.101221" lon="149.3751754">
  <ele>708.21</ele>
  <time>2026-09-01T19:55:50Z</time>
  <course>93.53</course>
  <speed>0.0282842712474619</speed>
  <fix>3d</fix>
</trkpt>
<trkpt lat="-35.1012209" lon="149.3751756">
  <ele>708.22</ele>
  <time>2026-09-01T19:55:50Z</time>
  <course>271.56</course>
  <speed>0.0</speed>
  <fix>3d</fix>
</trkpt>
<trkpt lat="-35.101221" lon="149.3751754">
  <ele>708.21</ele>
  <time>2026-09-01T19:55:50Z</time>
  <course>93.53</course>
  <speed>0.0282842712474619</speed>
  <fix>3d</fix>
</trkpt>
<trkpt lat="-35.1012209" lon="149.3751756">
  <ele>708.22</ele>
  <time>2026-09-01T19:55:50Z</time>
  <course>271.56</course>
  <speed>0.0</speed>
  <fix>3d</fix>
</trkpt>
<trkpt lat="-35.101221" lon="149.3751754">
  <ele>708.21</ele>
  <time>2026-09-01T19:55:50Z</time>
  <course>93.53</course>
  <speed>0.0282842712474619</speed>
  <fix>3d</fix>
</trkpt>
<trkpt lat="-35.1012209" lon="149.3751756">
  <ele>708.22</ele>
  <time>2026-09-01T19:55:50Z</time>
  <course>271.56</course>
  <speed>0.0</speed>
  <fix>3d</fix>
</trkpt>
<trkpt lat="-35.101221" lon="149.3751754">
  <ele>708.21</ele>
  <time>2026-09-01T19:55:50Z</time>
  <course>93.53</course>
  <speed>0.0282842712474619</speed>
  <fix>3d</fix>
</trkpt>
<trkpt lat="-35.1012209" lon="149.3751756">
  <ele>708.22</ele>
  <time>2026-09-01T19:55:50Z</time>
  <course>271.56</course>
  <speed>0.0</speed>
  <fix>3d</fix>
</trkpt>
<trkpt lat="-35.101221" lon="149.3751754">
  <ele>708.21</ele>
  <time>2026-09-01T19:55:50Z</time>
  <course>93.53</course>
  <speed>0.0282842712474619</speed>
  <fix>3d</fix>
</trkpt>
<trkpt lat="-35.1012209" lon="149.3751756">
  <ele>708.22</ele>
  <time>2026-09-01T19:55:50Z</time>
  <course>271.56</course>
  <speed>0.0</speed>
  <fix>3d</fix>
</trkpt>
<trkpt lat="-35.101221" lon="149.3751754">
  <ele>708.21</ele>
  <time>2026-09-01T19:55:50Z</time>
  <course>93.52</course>
  <speed>0.0282842712474619</speed>
  <fix>3d</fix>
</trkpt>
<trkpt lat="-35.1012209" lon="149.3751756">
  <ele>708.22</ele>
  <time>2026-09-01T19:55:50Z</time>
  <course>271.56</course>
  <speed>0.0</speed>
  <fix>3d</fix>
</trkpt>
<trkpt lat="-35.101221" lon="149.3751754">
  <ele>708.22</ele>
  <time>2026-09-01T19:55:50Z</time>
  <course>93.52</course>
  <speed>0.0282842712474619</speed>
  <fix>3d</fix>
</trkpt>
<trkpt lat="-35.1012209" lon="149.3751756">
  <ele>708.22</ele>
  <time>2026-09-01T19:55:50Z</time>
  <course>271.56</course>
  <speed>0.0</speed>
  <fix>3d</fix>
</trkpt>
<trkpt lat="-35.101221" lon="149.3751754">
  <ele>708.22</ele>
  <time>2026-09-01T19:55:50Z</time>
  <course>93.52</course>
  <speed>0.0282842712474619</speed>
  <fix>3d</fix>
</trkpt>
<trkpt lat="-35.1012209" lon="149.3751756">
  <ele>708.22</ele>
  <time>2026-09-01T19:55:50Z</time>
  <course>271.56</course>
  <speed>0.0</speed>
  <fix>3d</fix>
</trkpt>
<trkpt lat="-35.101221" lon="149.3751754">
  <ele>708.22</ele>
  <time>2026-09-01T19:55:50Z</time>
  <course>93.52</course>
  <speed>0.0282842712474619</speed>
  <fix>3d</fix>
</trkpt>
<trkpt lat="-35.1012209" lon="149.3751756">
  <ele>708.22</ele>
  <time>2026-09-01T19:55:50Z</time>
  <course>271.56</course>
  <speed>0.0</speed>
  <fix>3d</fix>
</trkpt>
<trkpt lat="-35.101221" lon="149.3751754">
  <ele>708.22</ele>
  <time>2026-09-01T19:55:50Z</time>
  <course>93.52</course>
  <speed>0.0282842712474619</speed>
  <fix>3d</fix>
</trkpt>
<trkpt lat="-35.1012209" lon="149.3751756">
  <ele>708.22</ele>
  <time>2026-09-01T19:55:50Z</time>
  <course>271.56</course>
  <speed>0.0</speed>
  <fix>3d</fix>
</trkpt>
<trkpt lat="-35.101221" lon="149.3751754">
  <ele>708.22</ele>
  <time>2026-09-01T19:55:50Z</time>
  <course>93.52</course>
  <speed>0.0282842712474619</speed>
  <fix>3d</fix>
</trkpt>
<trkpt lat="-35.1012209" lon="149.3751756">
  <ele>708.22</ele>
  <time>2026-09-01T19:55:50Z</time>
  <course>271.56</course>
  <speed>0.0</speed>
  <fix>3d</fix>
</trkpt>
<trkpt lat="-35.101221" lon="149.3751754">
  <ele>708.21</ele>
  <time>2026-09-01T19:55:50Z</time>
  <course>93.52</course>
  <speed>0.0282842712474619</speed>
  <fix>3d</fix>
</trkpt>
<trkpt lat="-35.1012209" lon="149.3751756">
  <ele>708.22</ele>
  <time>2026-09-01T19:55:50Z</time>
  <course>271.56</course>
  <speed>0.0</speed>
  <fix>3d</fix>
</trkpt>
<trkpt lat="-35.101221" lon="149.3751754">
  <ele>708.21</ele>
  <time>2026-09-01T19:55:50Z</time>
  <course>93.52</course>
  <speed>0.0282842712474619</speed>
  <fix>3d</fix>
</trkpt>
<trkpt lat="-35.1012209" lon="149.3751756">
  <ele>708.22</ele>
  <time>2026-09-01T19:55:50Z</time>
  <course>271.56</course>
  <speed>0.0</speed>
  <fix>3d</fix>
</trkpt>
<trkpt lat="-35.101221" lon="149.3751754">
  <ele>708.21</ele>
  <time>2026-09-01T19:55:50Z</time>
  <course>93.52</course>
  <speed>0.0282842712474619</speed>
  <fix>3d</fix>
</trkpt>
<trkpt lat="-35.1012209" lon="149.3751756">
  <ele>708.22</ele>
  <time>2026-09-01T19:55:50Z</time>
  <course>271.56</course>
  <speed>0.0</speed>
  <fix>3d</fix>
</trkpt>
<trkpt lat="-35.101221" lon="149.3751754">
  <ele>708.21</ele>
  <time>2026-09-01T19:55:50Z</time>
  <course>93.52</course>
  <speed>0.0282842712474619</speed>
  <fix>3d</fix>
</trkpt>
<trkpt lat="-35.1012209" lon="149.3751756">
  <ele>708.22</ele>
  <time>2026-09-01T19:55:50Z</time>
  <course>271.56</course>
  <speed>0.0</speed>
  <fix>3d</fix>
</trkpt>
<trkpt lat="-35.101221" lon="149.3751754">
  <ele>708.21</ele>
  <time>2026-09-01T19:55:50Z</time>
  <course>93.52</course>
  <speed>0.0282842712474619</speed>
  <fix>3d</fix>
</trkpt>
<trkpt lat="-35.1012209" lon="149.3751756">
  <ele>708.22</ele>
  <time>2026-09-01T19:55:50Z</time>
  <course>271.56</course>
  <speed>0.0</speed>
  <fix>3d</fix>
</trkpt>
<trkpt lat="-35.101221" lon="149.3751754">
  <ele>708.22</ele>
  <time>2026-09-01T19:55:50Z</time>
  <course>93.52</course>
  <speed>0.0282842712474619</speed>
  <fix>3d</fix>
</trkpt>
<trkpt lat="-35.1012209" lon="149.3751756">
  <ele>708.22</ele>
  <time>2026-09-01T19:55:50Z</time>
  <course>271.56</course>
  <speed>0.0</speed>
  <fix>3d</fix>
</trkpt>
<trkpt lat="-35.101221" lon="149.3751754">
  <ele>708.21</ele>
  <time>2026-09-01T19:55:50Z</time>
  <course>93.51</course>
  <speed>0.0282842712474619</speed>
  <fix>3d</fix>
</trkpt>
<trkpt lat="-35.1012209" lon="149.3751756">
  <ele>708.22</ele>
  <time>2026-09-01T19:55:50Z</time>
  <course>271.56</course>
  <speed>0.0</speed>
  <fix>3d</fix>
</trkpt>
<trkpt lat="-35.101221" lon="149.3751754">
  <ele>708.21</ele>
  <time>2026-09-01T19:55:50Z</time>
  <course>93.51</course>
  <speed>0.0282842712474619</speed>
  <fix>3d</fix>
</trkpt>
<trkpt lat="-35.1012209" lon="149.3751756">
  <ele>708.22</ele>
  <time>2026-09-01T19:55:50Z</time>
  <course>271.56</course>
  <speed>0.0</speed>
  <fix>3d</fix>
</trkpt>
<trkpt lat="-35.101221" lon="149.3751754">
  <ele>708.21</ele>
  <time>2026-09-01T19:55:50Z</time>
  <course>93.51</course>
  <speed>0.0282842712474619</speed>
  <fix>3d</fix>
</trkpt>
<trkpt lat="-35.1012209" lon="149.3751756">
  <ele>708.22</ele>
  <time>2026-09-01T19:55:50Z</time>
  <course>271.56</course>
  <speed>0.0</speed>
  <fix>3d</fix>
</trkpt>
<trkpt lat="-35.101221" lon="149.3751754">
  <ele>708.21</ele>
  <time>2026-09-01T19:55:50Z</time>
  <course>93.51</course>
  <speed>0.0282842712474619</speed>
  <fix>3d</fix>
</trkpt>
<trkpt lat="-35.1012209" lon="149.3751756">
  <ele>708.22</ele>
  <time>2026-09-01T19:55:50Z</time>
  <course>271.56</course>
  <speed>0.0</speed>
  <fix>3d</fix>
</trkpt>
<trkpt lat="-35.101221" lon="149.3751754">
  <ele>708.21</ele>
  <time>2026-09-01T19:55:50Z</time>
  <course>93.51</course>
  <speed>0.0282842712474619</speed>
  <fix>3d</fix>
</trkpt>
<trkpt lat="-35.1012209" lon="149.3751756">
  <ele>708.22</ele>
  <time>2026-09-01T19:55:50Z</time>
  <course>271.56</course>
  <speed>0.0</speed>
  <fix>3d</fix>
</trkpt>
<trkpt lat="-35.101221" lon="149.3751754">
  <ele>708.21</ele>
  <time>2026-09-01T19:55:50Z</time>
  <course>93.51</course>
  <speed>0.0282842712474619</speed>
  <fix>3d</fix>
</trkpt>
<trkpt lat="-35.1012209" lon="149.3751756">
  <ele>708.22</ele>
  <time>2026-09-01T19:55:50Z</time>
  <course>271.56</course>
  <speed>0.0</speed>
  <fix>3d</fix>
</trkpt>
<trkpt lat="-35.101221" lon="149.3751754">
  <ele>708.21</ele>
  <time>2026-09-01T19:55:50Z</time>
  <course>93.51</course>
  <speed>0.0282842712474619</speed>
  <fix>3d</fix>
</trkpt>
<trkpt lat="-35.1012209" lon="149.3751756">
  <ele>708.22</ele>
  <time>2026-09-01T19:55:50Z</time>
  <course>271.56</course>
  <speed>0.0</speed>
  <fix>3d</fix>
</trkpt>
<trkpt lat="-35.101221" lon="149.3751754">
  <ele>708.21</ele>
  <time>2026-09-01T19:55:50Z</time>
  <course>93.51</course>
  <speed>0.0282842712474619</speed>
  <fix>3d</fix>
</trkpt>
<trkpt lat="-35.1012209" lon="149.3751756">
  <ele>708.22</ele>
  <time>2026-09-01T19:55:50Z</time>
  <course>271.56</course>
  <speed>0.0</speed>
  <fix>3d</fix>
</trkpt>
<trkpt lat="-35.101221" lon="149.3751754">
  <ele>708.21</ele>
  <time>2026-09-01T19:55:50Z</time>
  <course>93.51</course>
  <speed>0.0282842712474619</speed>
  <fix>3d</fix>
</trkpt>
<trkpt lat="-35.1012209" lon="149.3751756">
  <ele>708.22</ele>
  <time>2026-09-01T19:55:50Z</time>
  <course>271.56</course>
  <speed>0.0</speed>
  <fix>3d</fix>
</trkpt>
<trkpt lat="-35.101221" lon="149.3751754">
  <ele>708.2</ele>
  <time>2026-09-01T19:55:50Z</time>
  <course>93.51</course>
  <speed>0.0282842712474619</speed>
  <fix>3d</fix>
</trkpt>
<trkpt lat="-35.1012209" lon="149.3751756">
  <ele>708.22</ele>
  <time>2026-09-01T19:55:50Z</time>
  <course>271.56</course>
  <speed>0.0</speed>
  <fix>3d</fix>
</trkpt>
<trkpt lat="-35.101221" lon="149.3751754">
  <ele>708.2</ele>
  <time>2026-09-01T19:55:50Z</time>
  <course>93.51</course>
  <speed>0.0282842712474619</speed>
  <fix>3d</fix>
</trkpt>
<trkpt lat="-35.1012209" lon="149.3751756">
  <ele>708.22</ele>
  <time>2026-09-01T19:55:50Z</time>
  <course>271.56</course>
  <speed>0.0</speed>
  <fix>3d</fix>
</trkpt>
<trkpt lat="-35.101221" lon="149.3751754">
  <ele>708.2</ele>
  <time>2026-09-01T19:55:50Z</time>
  <course>93.51</course>
  <speed>0.0282842712474619</speed>
  <fix>3d</fix>
</trkpt>
<trkpt lat="-35.1012209" lon="149.3751756">
  <ele>708.22</ele>
  <time>2026-09-01T19:55:50Z</time>
  <course>271.56</course>
  <speed>0.0</speed>
  <fix>3d</fix>
</trkpt>
<trkpt lat="-35.101221" lon="149.3751754">
  <ele>708.2</ele>
  <time>2026-09-01T19:55:50Z</time>
  <course>93.51</course>
  <speed>0.0282842712474619</speed>
  <fix>3d</fix>
</trkpt>
<trkpt lat="-35.1012209" lon="149.3751756">
  <ele>708.22</ele>
  <time>2026-09-01T19:55:50Z</time>
  <course>271.56</course>
  <speed>0.0</speed>
  <fix>3d</fix>
</trkpt>
<trkpt lat="-35.101221" lon="149.3751754">
  <ele>708.2</ele>
  <time>2026-09-01T19:55:50Z</time>
  <course>93.51</course>
  <speed>0.0282842712474619</speed>
  <fix>3d</fix>
</trkpt>
<trkpt lat="-35.1012209" lon="149.3751756">
  <ele>708.22</ele>
  <time>2026-09-01T19:55:50Z</time>
  <course>271.56</course>
  <speed>0.0</speed>
  <fix>3d</fix>
</trkpt>
<trkpt lat="-35.101221" lon="149.3751754">
  <ele>708.2</ele>
  <time>2026-09-01T19:55:50Z</time>
  <course>93.51</course>
  <speed>0.0282842712474619</speed>
  <fix>3d</fix>
</trkpt>
<trkpt lat="-35.1012209" lon="149.3751756">
  <ele>708.22</ele>
  <time>2026-09-01T19:55:50Z</time>
  <course>271.56</course>
  <speed>0.0</speed>
  <fix>3d</fix>
</trkpt>
<trkpt lat="-35.101221" lon="149.3751754">
  <ele>708.2</ele>
  <time>2026-09-01T19:55:50Z</time>
  <course>93.51</course>
  <speed>0.0282842712474619</speed>
  <fix>3d</fix>
</trkpt>
<trkpt lat="-35.1012209" lon="149.3751756">
  <ele>708.22</ele>
  <time>2026-09-01T19:55:50Z</time>
  <course>271.56</course>
  <speed>0.0</speed>
  <fix>3d</fix>
</trkpt>
<trkpt lat="-35.101221" lon="149.3751754">
  <ele>708.19</ele>
  <time>2026-09-01T19:55:50Z</time>
  <course>93.5</course>
  <speed>0.0282842712474619</speed>
  <fix>3d</fix>
</trkpt>
<trkpt lat="-35.1012209" lon="149.3751756">
  <ele>708.22</ele>
  <time>2026-09-01T19:55:50Z</time>
  <course>271.56</course>
  <speed>0.0</speed>
  <fix>3d</fix>
</trkpt>
<trkpt lat="-35.101221" lon="149.3751754">
  <ele>708.19</ele>
  <time>2026-09-01T19:55:50Z</time>
  <course>93.5</course>
  <speed>0.0282842712474619</speed>
  <fix>3d</fix>
</trkpt>
<trkpt lat="-35.1012209" lon="149.3751756">
  <ele>708.22</ele>
  <time>2026-09-01T19:55:50Z</time>
  <course>271.56</course>
  <speed>0.0</speed>
  <fix>3d</fix>
</trkpt>
<trkpt lat="-35.101221" lon="149.3751754">
  <ele>708.19</ele>
  <time>2026-09-01T19:55:50Z</time>
  <course>93.5</course>
  <speed>0.0282842712474619</speed>
  <fix>3d</fix>
</trkpt>
<trkpt lat="-35.1012209" lon="149.3751756">
  <ele>708.22</ele>
  <time>2026-09-01T19:55:50Z</time>
  <course>271.56</course>
  <speed>0.0</speed>
  <fix>3d</fix>
</trkpt>
<trkpt lat="-35.101221" lon="149.3751754">
  <ele>708.19</ele>
  <time>2026-09-01T19:55:50Z</time>
  <course>93.5</course>
  <speed>0.0282842712474619</speed>
  <fix>3d</fix>
</trkpt>
<trkpt lat="-35.1012209" lon="149.3751756">
  <ele>708.22</ele>
  <time>2026-09-01T19:55:50Z</time>
  <course>271.56</course>
  <speed>0.0</speed>
  <fix>3d</fix>
</trkpt>
<trkpt lat="-35.101221" lon="149.3751754">
  <ele>708.2</ele>
  <time>2026-09-01T19:55:50Z</time>
  <course>93.5</course>
  <speed>0.0282842712474619</speed>
  <fix>3d</fix>
</trkpt>
<trkpt lat="-35.1012209" lon="149.3751756">
  <ele>708.22</ele>
  <time>2026-09-01T19:55:50Z</time>
  <course>271.56</course>
  <speed>0.0</speed>
  <fix>3d</fix>
</trkpt>
<trkpt lat="-35.101221" lon="149.3751754">
  <ele>708.19</ele>
  <time>2026-09-01T19:55:50Z</time>
  <course>93.5</course>
  <speed>0.0282842712474619</speed>
  <fix>3d</fix>
</trkpt>
<trkpt lat="-35.1012209" lon="149.3751756">
  <ele>708.22</ele>
  <time>2026-09-01T19:55:50Z</time>
  <course>271.56</course>
  <speed>0.0</speed>
  <fix>3d</fix>
</trkpt>
<trkpt lat="-35.101221" lon="149.3751754">
  <ele>708.19</ele>
  <time>2026-09-01T19:55:50Z</time>
  <course>93.5</course>
  <speed>0.0282842712474619</speed>
  <fix>3d</fix>
</trkpt>
<trkpt lat="-35.1012209" lon="149.3751756">
  <ele>708.22</ele>
  <time>2026-09-01T19:55:50Z</time>
  <course>271.56</course>
  <speed>0.0</speed>
  <fix>3d</fix>
</trkpt>
<trkpt lat="-35.101221" lon="149.3751754">
  <ele>708.19</ele>
  <time>2026-09-01T19:55:50Z</time>
  <course>93.5</course>
  <speed>0.0282842712474619</speed>
  <fix>3d</fix>
</trkpt>
<trkpt lat="-35.1012209" lon="149.3751756">
  <ele>708.22</ele>
  <time>2026-09-01T19:55:50Z</time>
  <course>271.56</course>
  <speed>0.0</speed>
  <fix>3d</fix>
</trkpt>
<trkpt lat="-35.101221" lon="149.3751754">
  <ele>708.19</ele>
  <time>2026-09-01T19:55:50Z</time>
  <course>93.5</course>
  <speed>0.0282842712474619</speed>
  <fix>3d</fix>
</trkpt>
<trkpt lat="-35.1012209" lon="149.3751756">
  <ele>708.22</ele>
  <time>2026-09-01T19:55:50Z</time>
  <course>271.56</course>
  <speed>0.0</speed>
  <fix>3d</fix>
</trkpt>
<trkpt lat="-35.101221" lon="149.3751754">
  <ele>708.19</ele>
  <time>2026-09-01T19:55:50Z</time>
  <course>93.5</course>
  <speed>0.0282842712474619</speed>
  <fix>3d</fix>
</trkpt>
<trkpt lat="-35.1012209" lon="149.3751756">
  <ele>708.22</ele>
  <time>2026-09-01T19:55:50Z</time>
  <course>271.56</course>
  <speed>0.0</speed>
  <fix>3d</fix>
</trkpt>
<trkpt lat="-35.101221" lon="149.3751754">
  <ele>708.18</ele>
  <time>2026-09-01T19:55:50Z</time>
  <course>93.5</course>
  <speed>0.0282842712474619</speed>
  <fix>3d</fix>
</trkpt>
<trkpt lat="-35.1012209" lon="149.3751756">
  <ele>708.22</ele>
  <time>2026-09-01T19:55:50Z</time>
  <course>271.56</course>
  <speed>0.0</speed>
  <fix>3d</fix>
</trkpt>
<trkpt lat="-35.101221" lon="149.3751754">
  <ele>708.18</ele>
  <time>2026-09-01T19:55:50Z</time>
  <course>93.5</course>
  <speed>0.0282842712474619</speed>
  <fix>3d</fix>
</trkpt>
<trkpt lat="-35.1012209" lon="149.3751756">
  <ele>708.22</ele>
  <time>2026-09-01T19:55:50Z</time>
  <course>271.56</course>
  <speed>0.0</speed>
  <fix>3d</fix>
</trkpt>
<trkpt lat="-35.101221" lon="149.3751754">
  <ele>708.18</ele>
  <time>2026-09-01T19:55:50Z</time>
  <course>93.5</course>
  <speed>0.0282842712474619</speed>
  <fix>3d</fix>
</trkpt>
<trkpt lat="-35.1012209" lon="149.3751756">
  <ele>708.22</ele>
  <time>2026-09-01T19:55:50Z</time>
  <course>271.56</course>
  <speed>0.0</speed>
  <fix>3d</fix>
</trkpt>
<trkpt lat="-35.101221" lon="149.3751754">
  <ele>708.18</ele>
  <time>2026-09-01T19:55:50Z</time>
  <course>93.5</course>
  <speed>0.0282842712474619</speed>
  <fix>3d</fix>
</trkpt>
<trkpt lat="-35.1012209" lon="149.3751756">
  <ele>708.22</ele>
  <time>2026-09-01T19:55:50Z</time>
  <course>271.56</course>
  <speed>0.0</speed>
  <fix>3d</fix>
</trkpt>
<trkpt lat="-35.101221" lon="149.3751754">
  <ele>708.18</ele>
  <time>2026-09-01T19:55:50Z</time>
  <course>93.5</course>
  <speed>0.0282842712474619</speed>
  <fix>3d</fix>
</trkpt>
<trkpt lat="-35.1012209" lon="149.3751756">
  <ele>708.22</ele>
  <time>2026-09-01T19:55:50Z</time>
  <course>271.56</course>
  <speed>0.0</speed>
  <fix>3d</fix>
</trkpt>
<trkpt lat="-35.101221" lon="149.3751754">
  <ele>708.18</ele>
  <time>2026-09-01T19:55:50Z</time>
  <course>93.5</course>
  <speed>0.0282842712474619</speed>
  <fix>3d</fix>
</trkpt>
<trkpt lat="-35.1012209" lon="149.3751756">
  <ele>708.22</ele>
  <time>2026-09-01T19:55:50Z</time>
  <course>271.56</course>
  <speed>0.0</speed>
  <fix>3d</fix>
</trkpt>
<trkpt lat="-35.101221" lon="149.3751754">
  <ele>708.18</ele>
  <time>2026-09-01T19:55:50Z</time>
  <course>93.5</course>
  <speed>0.0282842712474619</speed>
  <fix>3d</fix>
</trkpt>
<trkpt lat="-35.1012209" lon="149.3751756">
  <ele>708.22</ele>
  <time>2026-09-01T19:55:50Z</time>
  <course>271.56</course>
  <speed>0.0</speed>
  <fix>3d</fix>
</trkpt>
<trkpt lat="-35.101221" lon="149.3751754">
  <ele>708.18</ele>
  <time>2026-09-01T19:55:50Z</time>
  <course>93.49</course>
  <speed>0.0282842712474619</speed>
  <fix>3d</fix>
</trkpt>
<trkpt lat="-35.1012209" lon="149.3751756">
  <ele>708.22</ele>
  <time>2026-09-01T19:55:50Z</time>
  <course>271.56</course>
  <speed>0.0</speed>
  <fix>3d</fix>
</trkpt>
<trkpt lat="-35.101221" lon="149.3751754">
  <ele>708.18</ele>
  <time>2026-09-01T19:55:50Z</time>
  <course>93.49</course>
  <speed>0.0282842712474619</speed>
  <fix>3d</fix>
</trkpt>
<trkpt lat="-35.1012209" lon="149.3751756">
  <ele>708.22</ele>
  <time>2026-09-01T19:55:50Z</time>
  <course>271.56</course>
  <speed>0.0</speed>
  <fix>3d</fix>
</trkpt>
<trkpt lat="-35.101221" lon="149.3751754">
  <ele>708.18</ele>
  <time>2026-09-01T19:55:50Z</time>
  <course>93.49</course>
  <speed>0.0282842712474619</speed>
  <fix>3d</fix>
</trkpt>
<trkpt lat="-35.1012209" lon="149.3751756">
  <ele>708.22</ele>
  <time>2026-09-01T19:55:50Z</time>
  <course>271.56</course>
  <speed>0.0</speed>
  <fix>3d</fix>
</trkpt>
<trkpt lat="-35.101221" lon="149.3751754">
  <ele>708.18</ele>
  <time>2026-09-01T19:55:50Z</time>
  <course>93.49</course>
  <speed>0.0282842712474619</speed>
  <fix>3d</fix>
</trkpt>
<trkpt lat="-35.1012209" lon="149.3751756">
  <ele>708.22</ele>
  <time>2026-09-01T19:55:50Z</time>
  <course>271.56</course>
  <speed>0.0</speed>
  <fix>3d</fix>
</trkpt>
<trkpt lat="-35.101221" lon="149.3751754">
  <ele>708.17</ele>
  <time>2026-09-01T19:55:50Z</time>
  <course>93.49</course>
  <speed>0.0282842712474619</speed>
  <fix>3d</fix>
</trkpt>
<trkpt lat="-35.1012209" lon="149.3751756">
  <ele>708.22</ele>
  <time>2026-09-01T19:55:50Z</time>
  <course>271.56</course>
  <speed>0.0</speed>
  <fix>3d</fix>
</trkpt>
<trkpt lat="-35.101221" lon="149.3751754">
  <ele>708.17</ele>
  <time>2026-09-01T19:55:50Z</time>
  <course>93.49</course>
  <speed>0.0282842712474619</speed>
  <fix>3d</fix>
</trkpt>
<trkpt lat="-35.1012209" lon="149.3751756">
  <ele>708.22</ele>
  <time>2026-09-01T19:55:50Z</time>
  <course>271.56</course>
  <speed>0.0</speed>
  <fix>3d</fix>
</trkpt>
<trkpt lat="-35.101221" lon="149.3751754">
  <ele>708.17</ele>
  <time>2026-09-01T19:55:50Z</time>
  <course>93.49</course>
  <speed>0.0282842712474619</speed>
  <fix>3d</fix>
</trkpt>
<trkpt lat="-35.1012209" lon="149.3751756">
  <ele>708.22</ele>
  <time>2026-09-01T19:55:50Z</time>
  <course>271.56</course>
  <speed>0.0</speed>
  <fix>3d</fix>
</trkpt>
<trkpt lat="-35.101221" lon="149.3751754">
  <ele>708.17</ele>
  <time>2026-09-01T19:55:50Z</time>
  <course>93.49</course>
  <speed>0.0282842712474619</speed>
  <fix>3d</fix>
</trkpt>
<trkpt lat="-35.1012209" lon="149.3751756">
  <ele>708.22</ele>
  <time>2026-09-01T19:55:50Z</time>
  <course>271.56</course>
  <speed>0.0</speed>
  <fix>3d</fix>
</trkpt>
<trkpt lat="-35.101221" lon="149.3751754">
  <ele>708.17</ele>
  <time>2026-09-01T19:55:50Z</time>
  <course>93.49</course>
  <speed>0.0282842712474619</speed>
  <fix>3d</fix>
</trkpt>
<trkpt lat="-35.1012209" lon="149.3751756">
  <ele>708.22</ele>
  <time>2026-09-01T19:55:50Z</time>
  <course>271.56</course>
  <speed>0.0</speed>
  <fix>3d</fix>
</trkpt>
<trkpt lat="-35.101221" lon="149.3751754">
  <ele>708.17</ele>
  <time>2026-09-01T19:55:50Z</time>
  <course>93.49</course>
  <speed>0.0282842712474619</speed>
  <fix>3d</fix>
</trkpt>
<trkpt lat="-35.1012209" lon="149.3751756">
  <ele>708.22</ele>
  <time>2026-09-01T19:55:50Z</time>
  <course>271.56</course>
  <speed>0.0</speed>
  <fix>3d</fix>
</trkpt>
<trkpt lat="-35.101221" lon="149.3751754">
  <ele>708.17</ele>
  <time>2026-09-01T19:55:50Z</time>
  <course>93.49</course>
  <speed>0.0282842712474619</speed>
  <fix>3d</fix>
</trkpt>
<trkpt lat="-35.1012209" lon="149.3751756">
  <ele>708.22</ele>
  <time>2026-09-01T19:55:50Z</time>
  <course>271.56</course>
  <speed>0.0</speed>
  <fix>3d</fix>
</trkpt>
<trkpt lat="-35.101221" lon="149.3751754">
  <ele>708.17</ele>
  <time>2026-09-01T19:55:50Z</time>
  <course>93.49</course>
  <speed>0.0282842712474619</speed>
  <fix>3d</fix>
</trkpt>
<trkpt lat="-35.1012209" lon="149.3751756">
  <ele>708.22</ele>
  <time>2026-09-01T19:55:50Z</time>
  <course>271.56</course>
  <speed>0.0</speed>
  <fix>3d</fix>
</trkpt>
<trkpt lat="-35.101221" lon="149.3751754">
  <ele>708.17</ele>
  <time>2026-09-01T19:55:50Z</time>
  <course>93.49</course>
  <speed>0.0282842712474619</speed>
  <fix>3d</fix>
</trkpt>
<trkpt lat="-35.1012209" lon="149.3751756">
  <ele>708.22</ele>
  <time>2026-09-01T19:55:50Z</time>
  <course>271.56</course>
  <speed>0.0</speed>
  <fix>3d</fix>
</trkpt>
<trkpt lat="-35.101221" lon="149.3751754">
  <ele>708.17</ele>
  <time>2026-09-01T19:55:50Z</time>
  <course>93.49</course>
  <speed>0.0282842712474619</speed>
  <fix>3d</fix>
</trkpt>
<trkpt lat="-35.1012209" lon="149.3751756">
  <ele>708.22</ele>
  <time>2026-09-01T19:55:50Z</time>
  <course>271.56</course>
  <speed>0.0</speed>
  <fix>3d</fix>
</trkpt>
<trkpt lat="-35.101221" lon="149.3751754">
  <ele>708.17</ele>
  <time>2026-09-01T19:55:50Z</time>
  <course>93.49</course>
  <speed>0.0282842712474619</speed>
  <fix>3d</fix>
</trkpt>
<trkpt lat="-35.1012209" lon="149.3751756">
  <ele>708.22</ele>
  <time>2026-09-01T19:55:50Z</time>
  <course>271.56</course>
  <speed>0.0</speed>
  <fix>3d</fix>
</trkpt>
<trkpt lat="-35.101221" lon="149.3751754">
  <ele>708.17</ele>
  <time>2026-09-01T19:55:50Z</time>
  <course>93.49</course>
  <speed>0.0282842712474619</speed>
  <fix>3d</fix>
</trkpt>
<trkpt lat="-35.1012209" lon="149.3751756">
  <ele>708.22</ele>
  <time>2026-09-01T19:55:50Z</time>
  <course>271.56</course>
  <speed>0.0</speed>
  <fix>3d</fix>
</trkpt>
<trkpt lat="-35.101221" lon="149.3751754">
  <ele>708.17</ele>
  <time>2026-09-01T19:55:50Z</time>
  <course>93.49</course>
  <speed>0.0282842712474619</speed>
  <fix>3d</fix>
</trkpt>
<trkpt lat="-35.1012209" lon="149.3751756">
  <ele>708.22</ele>
  <time>2026-09-01T19:55:50Z</time>
  <course>271.56</course>
  <speed>0.0</speed>
  <fix>3d</fix>
</trkpt>
<trkpt lat="-35.101221" lon="149.3751754">
  <ele>708.17</ele>
  <time>2026-09-01T19:55:50Z</time>
  <course>93.48</course>
  <speed>0.0282842712474619</speed>
  <fix>3d</fix>
</trkpt>
<trkpt lat="-35.1012209" lon="149.3751756">
  <ele>708.22</ele>
  <time>2026-09-01T19:55:50Z</time>
  <course>271.56</course>
  <speed>0.0</speed>
  <fix>3d</fix>
</trkpt>
<trkpt lat="-35.101221" lon="149.3751754">
  <ele>708.17</ele>
  <time>2026-09-01T19:55:50Z</time>
  <course>93.48</course>
  <speed>0.0282842712474619</speed>
  <fix>3d</fix>
</trkpt>
<trkpt lat="-35.1012209" lon="149.3751756">
  <ele>708.22</ele>
  <time>2026-09-01T19:55:50Z</time>
  <course>271.56</course>
  <speed>0.0</speed>
  <fix>3d</fix>
</trkpt>
<trkpt lat="-35.101221" lon="149.3751754">
  <ele>708.17</ele>
  <time>2026-09-01T19:55:50Z</time>
  <course>93.48</course>
  <speed>0.0282842712474619</speed>
  <fix>3d</fix>
</trkpt>
<trkpt lat="-35.1012209" lon="149.3751756">
  <ele>708.22</ele>
  <time>2026-09-01T19:55:50Z</time>
  <course>271.56</course>
  <speed>0.0</speed>
  <fix>3d</fix>
</trkpt>
<trkpt lat="-35.101221" lon="149.3751754">
  <ele>708.17</ele>
  <time>2026-09-01T19:55:50Z</time>
  <course>93.48</course>
  <speed>0.0282842712474619</speed>
  <fix>3d</fix>
</trkpt>
<trkpt lat="-35.1012209" lon="149.3751756">
  <ele>708.22</ele>
  <time>2026-09-01T19:55:50Z</time>
  <course>271.56</course>
  <speed>0.0</speed>
  <fix>3d</fix>
</trkpt>
<trkpt lat="-35.101221" lon="149.3751754">
  <ele>708.17</ele>
  <time>2026-09-01T19:55:50Z</time>
  <course>93.48</course>
  <speed>0.0282842712474619</speed>
  <fix>3d</fix>
</trkpt>
<trkpt lat="-35.1012209" lon="149.3751756">
  <ele>708.22</ele>
  <time>2026-09-01T19:55:50Z</time>
  <course>271.56</course>
  <speed>0.0</speed>
  <fix>3d</fix>
</trkpt>
<trkpt lat="-35.101221" lon="149.3751754">
  <ele>708.17</ele>
  <time>2026-09-01T19:55:50Z</time>
  <course>93.48</course>
  <speed>0.0282842712474619</speed>
  <fix>3d</fix>
</trkpt>
<trkpt lat="-35.1012209" lon="149.3751756">
  <ele>708.22</ele>
  <time>2026-09-01T19:55:50Z</time>
  <course>271.56</course>
  <speed>0.0</speed>
  <fix>3d</fix>
</trkpt>
<trkpt lat="-35.101221" lon="149.3751754">
  <ele>708.17</ele>
  <time>2026-09-01T19:55:50Z</time>
  <course>93.48</course>
  <speed>0.0282842712474619</speed>
  <fix>3d</fix>
</trkpt>
<trkpt lat="-35.1012209" lon="149.3751756">
  <ele>708.22</ele>
  <time>2026-09-01T19:55:50Z</time>
  <course>271.56</course>
  <speed>0.0</speed>
  <fix>3d</fix>
</trkpt>
<trkpt lat="-35.101221" lon="149.3751754">
  <ele>708.17</ele>
  <time>2026-09-01T19:55:50Z</time>
  <course>93.48</course>
  <speed>0.0282842712474619</speed>
  <fix>3d</fix>
</trkpt>
<trkpt lat="-35.1012209" lon="149.3751756">
  <ele>708.22</ele>
  <time>2026-09-01T19:55:50Z</time>
  <course>271.56</course>
  <speed>0.0</speed>
  <fix>3d</fix>
</trkpt>
<trkpt lat="-35.101221" lon="149.3751754">
  <ele>708.22</ele>
  <time>2026-09-01T19:55:50Z</time>
  <course>93.48</course>
  <speed>0.0282842712474619</speed>
  <fix>3d</fix>
</trkpt>
<trkpt lat="-35.1012209" lon="149.3751756">
  <ele>708.22</ele>
  <time>2026-09-01T19:55:50Z</time>
  <course>271.56</course>
  <speed>0.0</speed>
  <fix>3d</fix>
</trkpt>
<trkpt lat="-35.101221" lon="149.3751754">
  <ele>708.22</ele>
  <time>2026-09-01T19:55:50Z</time>
  <course>93.48</course>
  <speed>0.0282842712474619</speed>
  <fix>3d</fix>
</trkpt>
<trkpt lat="-35.1012209" lon="149.3751756">
  <ele>708.22</ele>
  <time>2026-09-01T19:55:50Z</time>
  <course>271.56</course>
  <speed>0.0</speed>
  <fix>3d</fix>
</trkpt>
<trkpt lat="-35.101221" lon="149.3751754">
  <ele>708.21</ele>
  <time>2026-09-01T19:55:50Z</time>
  <course>93.48</course>
  <speed>0.0282842712474619</speed>
  <fix>3d</fix>
</trkpt>
<trkpt lat="-35.1012209" lon="149.3751756">
  <ele>708.22</ele>
  <time>2026-09-01T19:55:50Z</time>
  <course>271.56</course>
  <speed>0.0</speed>
  <fix>3d</fix>
</trkpt>
<trkpt lat="-35.101221" lon="149.3751754">
  <ele>708.21</ele>
  <time>2026-09-01T19:55:50Z</time>
  <course>93.48</course>
  <speed>0.0282842712474619</speed>
  <fix>3d</fix>
</trkpt>
<trkpt lat="-35.1012209" lon="149.3751756">
  <ele>708.22</ele>
  <time>2026-09-01T19:55:50Z</time>
  <course>271.56</course>
  <speed>0.0</speed>
  <fix>3d</fix>
</trkpt>
<trkpt lat="-35.101221" lon="149.3751754">
  <ele>708.21</ele>
  <time>2026-09-01T19:55:50Z</time>
  <course>93.48</course>
  <speed>0.0282842712474619</speed>
  <fix>3d</fix>
</trkpt>
<trkpt lat="-35.1012209" lon="149.3751756">
  <ele>708.22</ele>
  <time>2026-09-01T19:55:50Z</time>
  <course>271.56</course>
  <speed>0.0</speed>
  <fix>3d</fix>
</trkpt>
<trkpt lat="-35.101221" lon="149.3751754">
  <ele>708.21</ele>
  <time>2026-09-01T19:55:50Z</time>
  <course>93.48</course>
  <speed>0.0282842712474619</speed>
  <fix>3d</fix>
</trkpt>
<trkpt lat="-35.1012209" lon="149.3751756">
  <ele>708.22</ele>
  <time>2026-09-01T19:55:50Z</time>
  <course>271.56</course>
  <speed>0.0</speed>
  <fix>3d</fix>
</trkpt>
<trkpt lat="-35.101221" lon="149.3751754">
  <ele>708.21</ele>
  <time>2026-09-01T19:55:50Z</time>
  <course>93.48</course>
  <speed>0.0282842712474619</speed>
  <fix>3d</fix>
</trkpt>
<trkpt lat="-35.1012209" lon="149.3751756">
  <ele>708.22</ele>
  <time>2026-09-01T19:55:50Z</time>
  <course>271.56</course>
  <speed>0.0</speed>
  <fix>3d</fix>
</trkpt>
<trkpt lat="-35.101221" lon="149.3751754">
  <ele>708.21</ele>
  <time>2026-09-01T19:55:50Z</time>
  <course>93.48</course>
  <speed>0.0282842712474619</speed>
  <fix>3d</fix>
</trkpt>
<trkpt lat="-35.1012209" lon="149.3751756">
  <ele>708.22</ele>
  <time>2026-09-01T19:55:50Z</time>
  <course>271.56</course>
  <speed>0.0</speed>
  <fix>3d</fix>
</trkpt>
<trkpt lat="-35.101221" lon="149.3751754">
  <ele>708.21</ele>
  <time>2026-09-01T19:55:50Z</time>
  <course>93.48</course>
  <speed>0.0282842712474619</speed>
  <fix>3d</fix>
</trkpt>
<trkpt lat="-35.1012209" lon="149.3751756">
  <ele>708.22</ele>
  <time>2026-09-01T19:55:50Z</time>
  <course>271.56</course>
  <speed>0.0</speed>
  <fix>3d</fix>
</trkpt>
<trkpt lat="-35.101221" lon="149.3751754">
  <ele>708.2</ele>
  <time>2026-09-01T19:55:50Z</time>
  <course>93.48</course>
  <speed>0.0282842712474619</speed>
  <fix>3d</fix>
</trkpt>
<trkpt lat="-35.1012209" lon="149.3751756">
  <ele>708.22</ele>
  <time>2026-09-01T19:55:50Z</time>
  <course>271.56</course>
  <speed>0.0</speed>
  <fix>3d</fix>
</trkpt>
<trkpt lat="-35.101221" lon="149.3751754">
  <ele>708.2</ele>
  <time>2026-09-01T19:55:50Z</time>
  <course>93.48</course>
  <speed>0.0282842712474619</speed>
  <fix>3d</fix>
</trkpt>
<trkpt lat="-35.1012209" lon="149.3751756">
  <ele>708.22</ele>
  <time>2026-09-01T19:55:50Z</time>
  <course>271.56</course>
  <speed>0.0</speed>
  <fix>3d</fix>
</trkpt>
<trkpt lat="-35.101221" lon="149.3751754">
  <ele>708.19</ele>
  <time>2026-09-01T19:55:50Z</time>
  <course>93.47</course>
  <speed>0.0282842712474619</speed>
  <fix>3d</fix>
</trkpt>
<trkpt lat="-35.1012209" lon="149.3751756">
  <ele>708.22</ele>
  <time>2026-09-01T19:55:50Z</time>
  <course>271.56</course>
  <speed>0.0</speed>
  <fix>3d</fix>
</trkpt>
<trkpt lat="-35.101221" lon="149.3751754">
  <ele>708.19</ele>
  <time>2026-09-01T19:55:50Z</time>
  <course>93.47</course>
  <speed>0.0282842712474619</speed>
  <fix>3d</fix>
</trkpt>
<trkpt lat="-35.1012209" lon="149.3751756">
  <ele>708.22</ele>
  <time>2026-09-01T19:55:50Z</time>
  <course>271.56</course>
  <speed>0.0</speed>
  <fix>3d</fix>
</trkpt>
<trkpt lat="-35.101221" lon="149.3751754">
  <ele>708.18</ele>
  <time>2026-09-01T19:55:50Z</time>
  <course>93.47</course>
  <speed>0.0282842712474619</speed>
  <fix>3d</fix>
</trkpt>
<trkpt lat="-35.1012209" lon="149.3751756">
  <ele>708.22</ele>
  <time>2026-09-01T19:55:50Z</time>
  <course>271.56</course>
  <speed>0.0</speed>
  <fix>3d</fix>
</trkpt>
<trkpt lat="-35.101221" lon="149.3751754">
  <ele>708.18</ele>
  <time>2026-09-01T19:55:50Z</time>
  <course>93.47</course>
  <speed>0.0282842712474619</speed>
  <fix>3d</fix>
</trkpt>
<trkpt lat="-35.1012209" lon="149.3751756">
  <ele>708.22</ele>
  <time>2026-09-01T19:55:50Z</time>
  <course>271.56</course>
  <speed>0.0</speed>
  <fix>3d</fix>
</trkpt>
<trkpt lat="-35.101221" lon="149.3751754">
  <ele>708.17</ele>
  <time>2026-09-01T19:55:50Z</time>
  <course>93.47</course>
  <speed>0.0282842712474619</speed>
  <fix>3d</fix>
</trkpt>
<trkpt lat="-35.1012209" lon="149.3751756">
  <ele>708.22</ele>
  <time>2026-09-01T19:55:50Z</time>
  <course>271.56</course>
  <speed>0.0</speed>
  <fix>3d</fix>
</trkpt>
<trkpt lat="-35.101221" lon="149.3751754">
  <ele>708.17</ele>
  <time>2026-09-01T19:55:50Z</time>
  <course>93.47</course>
  <speed>0.0282842712474619</speed>
  <fix>3d</fix>
</trkpt>
<trkpt lat="-35.1012209" lon="149.3751756">
  <ele>708.22</ele>
  <time>2026-09-01T19:55:50Z</time>
  <course>271.56</course>
  <speed>0.0</speed>
  <fix>3d</fix>
</trkpt>
<trkpt lat="-35.101221" lon="149.3751754">
  <ele>708.17</ele>
  <time>2026-09-01T19:55:50Z</time>
  <course>93.47</course>
  <speed>0.0282842712474619</speed>
  <fix>3d</fix>
</trkpt>
<trkpt lat="-35.1012209" lon="149.3751756">
  <ele>708.22</ele>
  <time>2026-09-01T19:55:50Z</time>
  <course>271.56</course>
  <speed>0.0</speed>
  <fix>3d</fix>
</trkpt>
<trkpt lat="-35.101221" lon="149.3751754">
  <ele>708.17</ele>
  <time>2026-09-01T19:55:50Z</time>
  <course>93.47</course>
  <speed>0.0282842712474619</speed>
  <fix>3d</fix>
</trkpt>
<trkpt lat="-35.1012209" lon="149.3751756">
  <ele>708.22</ele>
  <time>2026-09-01T19:55:50Z</time>
  <course>271.56</course>
  <speed>0.0</speed>
  <fix>3d</fix>
</trkpt>
<trkpt lat="-35.101221" lon="149.3751754">
  <ele>708.17</ele>
  <time>2026-09-01T19:55:50Z</time>
  <course>93.47</course>
  <speed>0.0282842712474619</speed>
  <fix>3d</fix>
</trkpt>
<trkpt lat="-35.1012209" lon="149.3751756">
  <ele>708.22</ele>
  <time>2026-09-01T19:55:50Z</time>
  <course>271.56</course>
  <speed>0.0</speed>
  <fix>3d</fix>
</trkpt>
<trkpt lat="-35.101221" lon="149.3751754">
  <ele>708.17</ele>
  <time>2026-09-01T19:55:50Z</time>
  <course>93.47</course>
  <speed>0.0282842712474619</speed>
  <fix>3d</fix>
</trkpt>
<trkpt lat="-35.1012209" lon="149.3751756">
  <ele>708.22</ele>
  <time>2026-09-01T19:55:50Z</time>
  <course>271.56</course>
  <speed>0.0</speed>
  <fix>3d</fix>
</trkpt>
<trkpt lat="-35.101221" lon="149.3751754">
  <ele>708.17</ele>
  <time>2026-09-01T19:55:50Z</time>
  <course>93.47</course>
  <speed>0.0282842712474619</speed>
  <fix>3d</fix>
</trkpt>
<trkpt lat="-35.1012209" lon="149.3751756">
  <ele>708.22</ele>
  <time>2026-09-01T19:55:50Z</time>
  <course>271.56</course>
  <speed>0.0</speed>
  <fix>3d</fix>
</trkpt>
<trkpt lat="-35.101221" lon="149.3751754">
  <ele>708.16</ele>
  <time>2026-09-01T19:55:50Z</time>
  <course>93.47</course>
  <speed>0.0282842712474619</speed>
  <fix>3d</fix>
</trkpt>
<trkpt lat="-35.1012209" lon="149.3751756">
  <ele>708.22</ele>
  <time>2026-09-01T19:55:50Z</time>
  <course>271.56</course>
  <speed>0.0</speed>
  <fix>3d</fix>
</trkpt>
<trkpt lat="-35.101221" lon="149.3751754">
  <ele>708.16</ele>
  <time>2026-09-01T19:55:50Z</time>
  <course>93.47</course>
  <speed>0.0282842712474619</speed>
  <fix>3d</fix>
</trkpt>
<trkpt lat="-35.1012209" lon="149.3751756">
  <ele>708.22</ele>
  <time>2026-09-01T19:55:50Z</time>
  <course>271.56</course>
  <speed>0.0</speed>
  <fix>3d</fix>
</trkpt>
<trkpt lat="-35.101221" lon="149.3751754">
  <ele>708.16</ele>
  <time>2026-09-01T19:55:50Z</time>
  <course>93.47</course>
  <speed>0.0282842712474619</speed>
  <fix>3d</fix>
</trkpt>
<trkpt lat="-35.1012209" lon="149.3751756">
  <ele>708.22</ele>
  <time>2026-09-01T19:55:50Z</time>
  <course>271.56</course>
  <speed>0.0</speed>
  <fix>3d</fix>
</trkpt>
<trkpt lat="-35.101221" lon="149.3751754">
  <ele>708.16</ele>
  <time>2026-09-01T19:55:50Z</time>
  <course>93.47</course>
  <speed>0.0282842712474619</speed>
  <fix>3d</fix>
</trkpt>
<trkpt lat="-35.1012209" lon="149.3751756">
  <ele>708.22</ele>
  <time>2026-09-01T19:55:50Z</time>
  <course>271.56</course>
  <speed>0.0</speed>
  <fix>3d</fix>
</trkpt>
<trkpt lat="-35.101221" lon="149.3751754">
  <ele>708.16</ele>
  <time>2026-09-01T19:55:50Z</time>
  <course>93.47</course>
  <speed>0.0282842712474619</speed>
  <fix>3d</fix>
</trkpt>
<trkpt lat="-35.1012209" lon="149.3751756">
  <ele>708.22</ele>
  <time>2026-09-01T19:55:50Z</time>
  <course>271.56</course>
  <speed>0.0</speed>
  <fix>3d</fix>
</trkpt>
<trkpt lat="-35.101221" lon="149.3751754">
  <ele>708.16</ele>
  <time>2026-09-01T19:55:50Z</time>
  <course>93.47</course>
  <speed>0.0282842712474619</speed>
  <fix>3d</fix>
</trkpt>
<trkpt lat="-35.1012209" lon="149.3751756">
  <ele>708.22</ele>
  <time>2026-09-01T19:55:50Z</time>
  <course>271.56</course>
  <speed>0.0</speed>
  <fix>3d</fix>
</trkpt>
<trkpt lat="-35.101221" lon="149.3751754">
  <ele>708.15</ele>
  <time>2026-09-01T19:55:50Z</time>
  <course>93.47</course>
  <speed>0.0282842712474619</speed>
  <fix>3d</fix>
</trkpt>
<trkpt lat="-35.1012209" lon="149.3751756">
  <ele>708.22</ele>
  <time>2026-09-01T19:55:50Z</time>
  <course>271.56</course>
  <speed>0.0</speed>
  <fix>3d</fix>
</trkpt>
<trkpt lat="-35.101221" lon="149.3751754">
  <ele>708.15</ele>
  <time>2026-09-01T19:55:50Z</time>
  <course>93.46</course>
  <speed>0.0282842712474619</speed>
  <fix>3d</fix>
</trkpt>
<trkpt lat="-35.1012209" lon="149.3751756">
  <ele>708.22</ele>
  <time>2026-09-01T19:55:50Z</time>
  <course>271.56</course>
  <speed>0.0</speed>
  <fix>3d</fix>
</trkpt>
<trkpt lat="-35.101221" lon="149.3751754">
  <ele>708.15</ele>
  <time>2026-09-01T19:55:50Z</time>
  <course>93.46</course>
  <speed>0.0282842712474619</speed>
  <fix>3d</fix>
</trkpt>
<trkpt lat="-35.1012209" lon="149.3751756">
  <ele>708.22</ele>
  <time>2026-09-01T19:55:50Z</time>
  <course>271.56</course>
  <speed>0.0</speed>
  <fix>3d</fix>
</trkpt>
<trkpt lat="-35.101221" lon="149.3751754">
  <ele>708.15</ele>
  <time>2026-09-01T19:55:50Z</time>
  <course>93.46</course>
  <speed>0.0282842712474619</speed>
  <fix>3d</fix>
</trkpt>
<trkpt lat="-35.1012209" lon="149.3751756">
  <ele>708.22</ele>
  <time>2026-09-01T19:55:50Z</time>
  <course>271.56</course>
  <speed>0.0</speed>
  <fix>3d</fix>
</trkpt>
<trkpt lat="-35.101221" lon="149.3751754">
  <ele>708.15</ele>
  <time>2026-09-01T19:55:50Z</time>
  <course>93.46</course>
  <speed>0.0282842712474619</speed>
  <fix>3d</fix>
</trkpt>
<trkpt lat="-35.1012209" lon="149.3751756">
  <ele>708.22</ele>
  <time>2026-09-01T19:55:50Z</time>
  <course>271.56</course>
  <speed>0.0</speed>
  <fix>3d</fix>
</trkpt>
<trkpt lat="-35.101221" lon="149.3751754">
  <ele>708.15</ele>
  <time>2026-09-01T19:55:50Z</time>
  <course>93.46</course>
  <speed>0.0282842712474619</speed>
  <fix>3d</fix>
</trkpt>
<trkpt lat="-35.1012209" lon="149.3751756">
  <ele>708.22</ele>
  <time>2026-09-01T19:55:50Z</time>
  <course>271.56</course>
  <speed>0.0</speed>
  <fix>3d</fix>
</trkpt>
<trkpt lat="-35.101221" lon="149.3751754">
  <ele>708.15</ele>
  <time>2026-09-01T19:55:50Z</time>
  <course>93.46</course>
  <speed>0.0282842712474619</speed>
  <fix>3d</fix>
</trkpt>
<trkpt lat="-35.1012209" lon="149.3751756">
  <ele>708.22</ele>
  <time>2026-09-01T19:55:50Z</time>
  <course>271.56</course>
  <speed>0.0</speed>
  <fix>3d</fix>
</trkpt>
<trkpt lat="-35.101221" lon="149.3751754">
  <ele>708.15</ele>
  <time>2026-09-01T19:55:50Z</time>
  <course>93.46</course>
  <speed>0.0282842712474619</speed>
  <fix>3d</fix>
</trkpt>
<trkpt lat="-35.1012209" lon="149.3751756">
  <ele>708.22</ele>
  <time>2026-09-01T19:55:50Z</time>
  <course>271.56</course>
  <speed>0.0</speed>
  <fix>3d</fix>
</trkpt>
<trkpt lat="-35.101221" lon="149.3751754">
  <ele>708.15</ele>
  <time>2026-09-01T19:55:50Z</time>
  <course>93.46</course>
  <speed>0.0282842712474619</speed>
  <fix>3d</fix>
</trkpt>
<trkpt lat="-35.1012209" lon="149.3751756">
  <ele>708.22</ele>
  <time>2026-09-01T19:55:50Z</time>
  <course>271.56</course>
  <speed>0.0</speed>
  <fix>3d</fix>
</trkpt>
<trkpt lat="-35.101221" lon="149.3751754">
  <ele>708.15</ele>
  <time>2026-09-01T19:55:50Z</time>
  <course>93.46</course>
  <speed>0.0282842712474619</speed>
  <fix>3d</fix>
</trkpt>
<trkpt lat="-35.1012209" lon="149.3751756">
  <ele>708.22</ele>
  <time>2026-09-01T19:55:50Z</time>
  <course>271.56</course>
  <speed>0.0</speed>
  <fix>3d</fix>
</trkpt>
<trkpt lat="-35.101221" lon="149.3751754">
  <ele>708.15</ele>
  <time>2026-09-01T19:55:50Z</time>
  <course>93.46</course>
  <speed>0.0282842712474619</speed>
  <fix>3d</fix>
</trkpt>
<trkpt lat="-35.1012209" lon="149.3751756">
  <ele>708.22</ele>
  <time>2026-09-01T19:55:50Z</time>
  <course>271.56</course>
  <speed>0.0</speed>
  <fix>3d</fix>
</trkpt>
<trkpt lat="-35.101221" lon="149.3751754">
  <ele>708.15</ele>
  <time>2026-09-01T19:55:50Z</time>
  <course>93.46</course>
  <speed>0.0282842712474619</speed>
  <fix>3d</fix>
</trkpt>
<trkpt lat="-35.1012209" lon="149.3751756">
  <ele>708.22</ele>
  <time>2026-09-01T19:55:50Z</time>
  <course>271.56</course>
  <speed>0.0</speed>
  <fix>3d</fix>
</trkpt>
<trkpt lat="-35.101221" lon="149.3751754">
  <ele>708.15</ele>
  <time>2026-09-01T19:55:50Z</time>
  <course>93.46</course>
  <speed>0.0282842712474619</speed>
  <fix>3d</fix>
</trkpt>
<trkpt lat="-35.1012209" lon="149.3751756">
  <ele>708.22</ele>
  <time>2026-09-01T19:55:50Z</time>
  <course>271.56</course>
  <speed>0.0</speed>
  <fix>3d</fix>
</trkpt>
<trkpt lat="-35.101221" lon="149.3751754">
  <ele>708.15</ele>
  <time>2026-09-01T19:55:50Z</time>
  <course>93.46</course>
  <speed>0.0282842712474619</speed>
  <fix>3d</fix>
</trkpt>
<trkpt lat="-35.1012209" lon="149.3751756">
  <ele>708.22</ele>
  <time>2026-09-01T19:55:50Z</time>
  <course>271.56</course>
  <speed>0.0</speed>
  <fix>3d</fix>
</trkpt>
<trkpt lat="-35.101221" lon="149.3751754">
  <ele>708.15</ele>
  <time>2026-09-01T19:55:50Z</time>
  <course>93.46</course>
  <speed>0.0282842712474619</speed>
  <fix>3d</fix>
</trkpt>
<trkpt lat="-35.1012209" lon="149.3751756">
  <ele>708.22</ele>
  <time>2026-09-01T19:55:50Z</time>
  <course>271.56</course>
  <speed>0.0</speed>
  <fix>3d</fix>
</trkpt>
<trkpt lat="-35.101221" lon="149.3751754">
  <ele>708.15</ele>
  <time>2026-09-01T19:55:50Z</time>
  <course>93.46</course>
  <speed>0.0282842712474619</speed>
  <fix>3d</fix>
</trkpt>
<trkpt lat="-35.1012209" lon="149.3751756">
  <ele>708.22</ele>
  <time>2026-09-01T19:55:50Z</time>
  <course>271.56</course>
  <speed>0.0</speed>
  <fix>3d</fix>
</trkpt>
<trkpt lat="-35.101221" lon="149.3751754">
  <ele>708.15</ele>
  <time>2026-09-01T19:55:50Z</time>
  <course>93.46</course>
  <speed>0.0282842712474619</speed>
  <fix>3d</fix>
</trkpt>
<trkpt lat="-35.1012209" lon="149.3751756">
  <ele>708.22</ele>
  <time>2026-09-01T19:55:50Z</time>
  <course>271.56</course>
  <speed>0.0</speed>
  <fix>3d</fix>
</trkpt>
<trkpt lat="-35.101221" lon="149.3751754">
  <ele>708.15</ele>
  <time>2026-09-01T19:55:50Z</time>
  <course>93.46</course>
  <speed>0.0282842712474619</speed>
  <fix>3d</fix>
</trkpt>
<trkpt lat="-35.1012209" lon="149.3751756">
  <ele>708.22</ele>
  <time>2026-09-01T19:55:50Z</time>
  <course>271.56</course>
  <speed>0.0</speed>
  <fix>3d</fix>
</trkpt>
<trkpt lat="-35.101221" lon="149.3751754">
  <ele>708.14</ele>
  <time>2026-09-01T19:55:50Z</time>
  <course>93.46</course>
  <speed>0.0282842712474619</speed>
  <fix>3d</fix>
</trkpt>
<trkpt lat="-35.1012209" lon="149.3751756">
  <ele>708.22</ele>
  <time>2026-09-01T19:55:50Z</time>
  <course>271.56</course>
  <speed>0.0</speed>
  <fix>3d</fix>
</trkpt>
<trkpt lat="-35.101221" lon="149.3751754">
  <ele>708.14</ele>
  <time>2026-09-01T19:55:50Z</time>
  <course>93.46</course>
  <speed>0.0282842712474619</speed>
  <fix>3d</fix>
</trkpt>
<trkpt lat="-35.1012209" lon="149.3751756">
  <ele>708.22</ele>
  <time>2026-09-01T19:55:50Z</time>
  <course>271.56</course>
  <speed>0.0</speed>
  <fix>3d</fix>
</trkpt>
<trkpt lat="-35.101221" lon="149.3751754">
  <ele>708.14</ele>
  <time>2026-09-01T19:55:50Z</time>
  <course>93.46</course>
  <speed>0.0282842712474619</speed>
  <fix>3d</fix>
</trkpt>
<trkpt lat="-35.1012209" lon="149.3751756">
  <ele>708.22</ele>
  <time>2026-09-01T19:55:51Z</time>
  <course>271.56</course>
  <speed>0.0</speed>
  <fix>3d</fix>
</trkpt>
<trkpt lat="-35.101221" lon="149.3751754">
  <ele>708.13</ele>
  <time>2026-09-01T19:55:51Z</time>
  <course>93.46</course>
  <speed>0.0282842712474619</speed>
  <fix>3d</fix>
</trkpt>
<trkpt lat="-35.1012209" lon="149.3751756">
  <ele>708.22</ele>
  <time>2026-09-01T19:55:51Z</time>
  <course>271.56</course>
  <speed>0.0</speed>
  <fix>3d</fix>
</trkpt>
<trkpt lat="-35.101221" lon="149.3751754">
  <ele>708.13</ele>
  <time>2026-09-01T19:55:51Z</time>
  <course>93.46</course>
  <speed>0.0282842712474619</speed>
  <fix>3d</fix>
</trkpt>
<trkpt lat="-35.1012209" lon="149.3751756">
  <ele>708.22</ele>
  <time>2026-09-01T19:55:51Z</time>
  <course>271.56</course>
  <speed>0.0</speed>
  <fix>3d</fix>
</trkpt>
<trkpt lat="-35.101221" lon="149.3751754">
  <ele>708.13</ele>
  <time>2026-09-01T19:55:51Z</time>
  <course>93.45</course>
  <speed>0.0282842712474619</speed>
  <fix>3d</fix>
</trkpt>
<trkpt lat="-35.1012209" lon="149.3751756">
  <ele>708.22</ele>
  <time>2026-09-01T19:55:51Z</time>
  <course>271.56</course>
  <speed>0.0</speed>
  <fix>3d</fix>
</trkpt>
<trkpt lat="-35.101221" lon="149.3751754">
  <ele>708.13</ele>
  <time>2026-09-01T19:55:51Z</time>
  <course>93.45</course>
  <speed>0.0282842712474619</speed>
  <fix>3d</fix>
</trkpt>
<trkpt lat="-35.1012209" lon="149.3751756">
  <ele>708.22</ele>
  <time>2026-09-01T19:55:51Z</time>
  <course>271.56</course>
  <speed>0.0</speed>
  <fix>3d</fix>
</trkpt>
<trkpt lat="-35.101221" lon="149.3751754">
  <ele>708.12</ele>
  <time>2026-09-01T19:55:51Z</time>
  <course>93.45</course>
  <speed>0.0282842712474619</speed>
  <fix>3d</fix>
</trkpt>
<trkpt lat="-35.1012209" lon="149.3751756">
  <ele>708.22</ele>
  <time>2026-09-01T19:55:51Z</time>
  <course>271.56</course>
  <speed>0.0</speed>
  <fix>3d</fix>
</trkpt>
<trkpt lat="-35.101221" lon="149.3751754">
  <ele>708.12</ele>
  <time>2026-09-01T19:55:51Z</time>
  <course>93.45</course>
  <speed>0.0282842712474619</speed>
  <fix>3d</fix>
</trkpt>
<trkpt lat="-35.1012209" lon="149.3751756">
  <ele>708.22</ele>
  <time>2026-09-01T19:55:51Z</time>
  <course>271.56</course>
  <speed>0.0</speed>
  <fix>3d</fix>
</trkpt>
<trkpt lat="-35.101221" lon="149.3751754">
  <ele>708.11</ele>
  <time>2026-09-01T19:55:51Z</time>
  <course>93.45</course>
  <speed>0.0282842712474619</speed>
  <fix>3d</fix>
</trkpt>
<trkpt lat="-35.1012209" lon="149.3751756">
  <ele>708.22</ele>
  <time>2026-09-01T19:55:51Z</time>
  <course>271.56</course>
  <speed>0.0</speed>
  <fix>3d</fix>
</trkpt>
<trkpt lat="-35.101221" lon="149.3751754">
  <ele>708.11</ele>
  <time>2026-09-01T19:55:51Z</time>
  <course>93.45</course>
  <speed>0.0282842712474619</speed>
  <fix>3d</fix>
</trkpt>
<trkpt lat="-35.1012209" lon="149.3751756">
  <ele>708.22</ele>
  <time>2026-09-01T19:55:51Z</time>
  <course>271.56</course>
  <speed>0.0</speed>
  <fix>3d</fix>
</trkpt>
<trkpt lat="-35.101221" lon="149.3751754">
  <ele>708.11</ele>
  <time>2026-09-01T19:55:51Z</time>
  <course>93.45</course>
  <speed>0.0282842712474619</speed>
  <fix>3d</fix>
</trkpt>
<trkpt lat="-35.1012209" lon="149.3751756">
  <ele>708.22</ele>
  <time>2026-09-01T19:55:51Z</time>
  <course>271.56</course>
  <speed>0.0</speed>
  <fix>3d</fix>
</trkpt>
<trkpt lat="-35.101221" lon="149.3751754">
  <ele>708.11</ele>
  <time>2026-09-01T19:55:51Z</time>
  <course>93.45</course>
  <speed>0.0282842712474619</speed>
  <fix>3d</fix>
</trkpt>
<trkpt lat="-35.1012209" lon="149.3751756">
  <ele>708.22</ele>
  <time>2026-09-01T19:55:51Z</time>
  <course>271.56</course>
  <speed>0.0</speed>
  <fix>3d</fix>
</trkpt>
<trkpt lat="-35.101221" lon="149.3751754">
  <ele>708.11</ele>
  <time>2026-09-01T19:55:51Z</time>
  <course>93.45</course>
  <speed>0.0282842712474619</speed>
  <fix>3d</fix>
</trkpt>
<trkpt lat="-35.1012209" lon="149.3751756">
  <ele>708.22</ele>
  <time>2026-09-01T19:55:51Z</time>
  <course>271.56</course>
  <speed>0.0</speed>
  <fix>3d</fix>
</trkpt>
<trkpt lat="-35.101221" lon="149.3751754">
  <ele>708.21</ele>
  <time>2026-09-01T19:55:51Z</time>
  <course>93.45</course>
  <speed>0.0282842712474619</speed>
  <fix>3d</fix>
</trkpt>
<trkpt lat="-35.1012209" lon="149.3751756">
  <ele>708.22</ele>
  <time>2026-09-01T19:55:51Z</time>
  <course>271.56</course>
  <speed>0.0</speed>
  <fix>3d</fix>
</trkpt>
<trkpt lat="-35.101221" lon="149.3751754">
  <ele>708.21</ele>
  <time>2026-09-01T19:55:51Z</time>
  <course>93.45</course>
  <speed>0.0282842712474619</speed>
  <fix>3d</fix>
</trkpt>
<trkpt lat="-35.1012209" lon="149.3751756">
  <ele>708.22</ele>
  <time>2026-09-01T19:55:51Z</time>
  <course>271.56</course>
  <speed>0.0</speed>
  <fix>3d</fix>
</trkpt>
<trkpt lat="-35.101221" lon="149.3751754">
  <ele>708.21</ele>
  <time>2026-09-01T19:55:51Z</time>
  <course>93.45</course>
  <speed>0.0282842712474619</speed>
  <fix>3d</fix>
</trkpt>
<trkpt lat="-35.1012209" lon="149.3751756">
  <ele>708.22</ele>
  <time>2026-09-01T19:55:51Z</time>
  <course>271.56</course>
  <speed>0.0</speed>
  <fix>3d</fix>
</trkpt>
<trkpt lat="-35.101221" lon="149.3751754">
  <ele>708.21</ele>
  <time>2026-09-01T19:55:51Z</time>
  <course>93.45</course>
  <speed>0.0282842712474619</speed>
  <fix>3d</fix>
</trkpt>
<trkpt lat="-35.1012209" lon="149.3751756">
  <ele>708.22</ele>
  <time>2026-09-01T19:55:51Z</time>
  <course>271.56</course>
  <speed>0.0</speed>
  <fix>3d</fix>
</trkpt>
<trkpt lat="-35.101221" lon="149.3751754">
  <ele>708.21</ele>
  <time>2026-09-01T19:55:51Z</time>
  <course>93.45</course>
  <speed>0.0282842712474619</speed>
  <fix>3d</fix>
</trkpt>
<trkpt lat="-35.1012209" lon="149.3751756">
  <ele>708.22</ele>
  <time>2026-09-01T19:55:51Z</time>
  <course>271.56</course>
  <speed>0.0</speed>
  <fix>3d</fix>
</trkpt>
<trkpt lat="-35.101221" lon="149.3751754">
  <ele>708.2</ele>
  <time>2026-09-01T19:55:51Z</time>
  <course>93.45</course>
  <speed>0.0282842712474619</speed>
  <fix>3d</fix>
</trkpt>
<trkpt lat="-35.1012209" lon="149.3751756">
  <ele>708.22</ele>
  <time>2026-09-01T19:55:51Z</time>
  <course>271.56</course>
  <speed>0.0</speed>
  <fix>3d</fix>
</trkpt>
<trkpt lat="-35.101221" lon="149.3751754">
  <ele>708.2</ele>
  <time>2026-09-01T19:55:51Z</time>
  <course>93.45</course>
  <speed>0.0282842712474619</speed>
  <fix>3d</fix>
</trkpt>
<trkpt lat="-35.1012209" lon="149.3751756">
  <ele>708.22</ele>
  <time>2026-09-01T19:55:51Z</time>
  <course>271.56</course>
  <speed>0.0</speed>
  <fix>3d</fix>
</trkpt>
<trkpt lat="-35.101221" lon="149.3751754">
  <ele>708.2</ele>
  <time>2026-09-01T19:55:51Z</time>
  <course>93.45</course>
  <speed>0.0282842712474619</speed>
  <fix>3d</fix>
</trkpt>
<trkpt lat="-35.1012209" lon="149.3751756">
  <ele>708.22</ele>
  <time>2026-09-01T19:55:51Z</time>
  <course>271.56</course>
  <speed>0.0</speed>
  <fix>3d</fix>
</trkpt>
<trkpt lat="-35.101221" lon="149.3751754">
  <ele>708.2</ele>
  <time>2026-09-01T19:55:51Z</time>
  <course>93.45</course>
  <speed>0.0282842712474619</speed>
  <fix>3d</fix>
</trkpt>
<trkpt lat="-35.1012209" lon="149.3751756">
  <ele>708.22</ele>
  <time>2026-09-01T19:55:51Z</time>
  <course>271.56</course>
  <speed>0.0</speed>
  <fix>3d</fix>
</trkpt>
<trkpt lat="-35.101221" lon="149.3751754">
  <ele>708.2</ele>
  <time>2026-09-01T19:55:51Z</time>
  <course>93.45</course>
  <speed>0.0282842712474619</speed>
  <fix>3d</fix>
</trkpt>
<trkpt lat="-35.1012209" lon="149.3751756">
  <ele>708.22</ele>
  <time>2026-09-01T19:55:51Z</time>
  <course>271.56</course>
  <speed>0.0</speed>
  <fix>3d</fix>
</trkpt>
<trkpt lat="-35.101221" lon="149.3751754">
  <ele>708.2</ele>
  <time>2026-09-01T19:55:51Z</time>
  <course>93.45</course>
  <speed>0.0282842712474619</speed>
  <fix>3d</fix>
</trkpt>
<trkpt lat="-35.1012209" lon="149.3751756">
  <ele>708.22</ele>
  <time>2026-09-01T19:55:51Z</time>
  <course>271.56</course>
  <speed>0.0</speed>
  <fix>3d</fix>
</trkpt>
<trkpt lat="-35.101221" lon="149.3751754">
  <ele>708.2</ele>
  <time>2026-09-01T19:55:51Z</time>
  <course>93.45</course>
  <speed>0.0282842712474619</speed>
  <fix>3d</fix>
</trkpt>
<trkpt lat="-35.1012209" lon="149.3751756">
  <ele>708.22</ele>
  <time>2026-09-01T19:55:51Z</time>
  <course>271.56</course>
  <speed>0.0</speed>
  <fix>3d</fix>
</trkpt>
<trkpt lat="-35.101221" lon="149.3751754">
  <ele>708.2</ele>
  <time>2026-09-01T19:55:51Z</time>
  <course>93.45</course>
  <speed>0.0282842712474619</speed>
  <fix>3d</fix>
</trkpt>
<trkpt lat="-35.1012209" lon="149.3751756">
  <ele>708.22</ele>
  <time>2026-09-01T19:55:51Z</time>
  <course>271.56</course>
  <speed>0.0</speed>
  <fix>3d</fix>
</trkpt>
<trkpt lat="-35.101221" lon="149.3751754">
  <ele>708.2</ele>
  <time>2026-09-01T19:55:51Z</time>
  <course>93.45</course>
  <speed>0.0282842712474619</speed>
  <fix>3d</fix>
</trkpt>
<trkpt lat="-35.1012209" lon="149.3751756">
  <ele>708.22</ele>
  <time>2026-09-01T19:55:51Z</time>
  <course>271.56</course>
  <speed>0.0</speed>
  <fix>3d</fix>
</trkpt>
<trkpt lat="-35.101221" lon="149.3751754">
  <ele>708.2</ele>
  <time>2026-09-01T19:55:51Z</time>
  <course>93.45</course>
  <speed>0.0282842712474619</speed>
  <fix>3d</fix>
</trkpt>
<trkpt lat="-35.1012209" lon="149.3751756">
  <ele>708.22</ele>
  <time>2026-09-01T19:55:51Z</time>
  <course>271.56</course>
  <speed>0.0</speed>
  <fix>3d</fix>
</trkpt>
<trkpt lat="-35.101221" lon="149.3751754">
  <ele>708.2</ele>
  <time>2026-09-01T19:55:51Z</time>
  <course>93.45</course>
  <speed>0.0282842712474619</speed>
  <fix>3d</fix>
</trkpt>
<trkpt lat="-35.1012209" lon="149.3751756">
  <ele>708.22</ele>
  <time>2026-09-01T19:55:51Z</time>
  <course>271.56</course>
  <speed>0.0</speed>
  <fix>3d</fix>
</trkpt>
<trkpt lat="-35.101221" lon="149.3751754">
  <ele>708.2</ele>
  <time>2026-09-01T19:55:51Z</time>
  <course>93.45</course>
  <speed>0.0282842712474619</speed>
  <fix>3d</fix>
</trkpt>
<trkpt lat="-35.1012209" lon="149.3751756">
  <ele>708.22</ele>
  <time>2026-09-01T19:55:51Z</time>
  <course>271.56</course>
  <speed>0.0</speed>
  <fix>3d</fix>
</trkpt>
<trkpt lat="-35.101221" lon="149.3751754">
  <ele>708.19</ele>
  <time>2026-09-01T19:55:51Z</time>
  <course>93.44</course>
  <speed>0.0282842712474619</speed>
  <fix>3d</fix>
</trkpt>
<trkpt lat="-35.1012209" lon="149.3751756">
  <ele>708.22</ele>
  <time>2026-09-01T19:55:51Z</time>
  <course>271.56</course>
  <speed>0.0</speed>
  <fix>3d</fix>
</trkpt>
<trkpt lat="-35.101221" lon="149.3751754">
  <ele>708.19</ele>
  <time>2026-09-01T19:55:51Z</time>
  <course>93.44</course>
  <speed>0.0282842712474619</speed>
  <fix>3d</fix>
</trkpt>
<trkpt lat="-35.1012209" lon="149.3751756">
  <ele>708.22</ele>
  <time>2026-09-01T19:55:51Z</time>
  <course>271.56</course>
  <speed>0.0</speed>
  <fix>3d</fix>
</trkpt>
<trkpt lat="-35.101221" lon="149.3751754">
  <ele>708.19</ele>
  <time>2026-09-01T19:55:51Z</time>
  <course>93.44</course>
  <speed>0.0282842712474619</speed>
  <fix>3d</fix>
</trkpt>
<trkpt lat="-35.1012209" lon="149.3751756">
  <ele>708.22</ele>
  <time>2026-09-01T19:55:51Z</time>
  <course>271.56</course>
  <speed>0.0</speed>
  <fix>3d</fix>
</trkpt>
<trkpt lat="-35.101221" lon="149.3751754">
  <ele>708.19</ele>
  <time>2026-09-01T19:55:51Z</time>
  <course>93.44</course>
  <speed>0.0282842712474619</speed>
  <fix>3d</fix>
</trkpt>
<trkpt lat="-35.1012209" lon="149.3751756">
  <ele>708.22</ele>
  <time>2026-09-01T19:55:51Z</time>
  <course>271.56</course>
  <speed>0.0</speed>
  <fix>3d</fix>
</trkpt>
<trkpt lat="-35.101221" lon="149.3751754">
  <ele>708.19</ele>
  <time>2026-09-01T19:55:51Z</time>
  <course>93.44</course>
  <speed>0.0282842712474619</speed>
  <fix>3d</fix>
</trkpt>
<trkpt lat="-35.1012209" lon="149.3751756">
  <ele>708.22</ele>
  <time>2026-09-01T19:55:51Z</time>
  <course>271.56</course>
  <speed>0.0</speed>
  <fix>3d</fix>
</trkpt>
<trkpt lat="-35.101221" lon="149.3751754">
  <ele>708.19</ele>
  <time>2026-09-01T19:55:51Z</time>
  <course>93.44</course>
  <speed>0.0282842712474619</speed>
  <fix>3d</fix>
</trkpt>
<trkpt lat="-35.1012209" lon="149.3751756">
  <ele>708.22</ele>
  <time>2026-09-01T19:55:51Z</time>
  <course>271.56</course>
  <speed>0.0</speed>
  <fix>3d</fix>
</trkpt>
<trkpt lat="-35.101221" lon="149.3751754">
  <ele>708.19</ele>
  <time>2026-09-01T19:55:51Z</time>
  <course>93.44</course>
  <speed>0.0282842712474619</speed>
  <fix>3d</fix>
</trkpt>
<trkpt lat="-35.1012209" lon="149.3751756">
  <ele>708.22</ele>
  <time>2026-09-01T19:55:51Z</time>
  <course>271.56</course>
  <speed>0.0</speed>
  <fix>3d</fix>
</trkpt>
<trkpt lat="-35.101221" lon="149.3751754">
  <ele>708.19</ele>
  <time>2026-09-01T19:55:51Z</time>
  <course>93.44</course>
  <speed>0.0282842712474619</speed>
  <fix>3d</fix>
</trkpt>
<trkpt lat="-35.1012209" lon="149.3751756">
  <ele>708.22</ele>
  <time>2026-09-01T19:55:51Z</time>
  <course>271.56</course>
  <speed>0.0</speed>
  <fix>3d</fix>
</trkpt>
<trkpt lat="-35.101221" lon="149.3751754">
  <ele>708.19</ele>
  <time>2026-09-01T19:55:51Z</time>
  <course>93.44</course>
  <speed>0.0282842712474619</speed>
  <fix>3d</fix>
</trkpt>
<trkpt lat="-35.1012209" lon="149.3751756">
  <ele>708.22</ele>
  <time>2026-09-01T19:55:51Z</time>
  <course>271.56</course>
  <speed>0.0</speed>
  <fix>3d</fix>
</trkpt>
<trkpt lat="-35.101221" lon="149.3751754">
  <ele>708.19</ele>
  <time>2026-09-01T19:55:51Z</time>
  <course>93.44</course>
  <speed>0.0282842712474619</speed>
  <fix>3d</fix>
</trkpt>
<trkpt lat="-35.1012209" lon="149.3751756">
  <ele>708.22</ele>
  <time>2026-09-01T19:55:51Z</time>
  <course>271.56</course>
  <speed>0.0</speed>
  <fix>3d</fix>
</trkpt>
<trkpt lat="-35.101221" lon="149.3751754">
  <ele>708.19</ele>
  <time>2026-09-01T19:55:51Z</time>
  <course>93.44</course>
  <speed>0.0282842712474619</speed>
  <fix>3d</fix>
</trkpt>
<trkpt lat="-35.1012209" lon="149.3751756">
  <ele>708.22</ele>
  <time>2026-09-01T19:55:51Z</time>
  <course>271.56</course>
  <speed>0.0</speed>
  <fix>3d</fix>
</trkpt>
<trkpt lat="-35.101221" lon="149.3751754">
  <ele>708.19</ele>
  <time>2026-09-01T19:55:51Z</time>
  <course>93.44</course>
  <speed>0.0282842712474619</speed>
  <fix>3d</fix>
</trkpt>
<trkpt lat="-35.1012209" lon="149.3751756">
  <ele>708.22</ele>
  <time>2026-09-01T19:55:51Z</time>
  <course>271.56</course>
  <speed>0.0</speed>
  <fix>3d</fix>
</trkpt>
<trkpt lat="-35.101221" lon="149.3751754">
  <ele>708.2</ele>
  <time>2026-09-01T19:55:51Z</time>
  <course>93.44</course>
  <speed>0.0282842712474619</speed>
  <fix>3d</fix>
</trkpt>
<trkpt lat="-35.1012209" lon="149.3751756">
  <ele>708.22</ele>
  <time>2026-09-01T19:55:51Z</time>
  <course>271.56</course>
  <speed>0.0</speed>
  <fix>3d</fix>
</trkpt>
<trkpt lat="-35.101221" lon="149.3751754">
  <ele>708.2</ele>
  <time>2026-09-01T19:55:51Z</time>
  <course>93.44</course>
  <speed>0.0282842712474619</speed>
  <fix>3d</fix>
</trkpt>
<trkpt lat="-35.1012209" lon="149.3751756">
  <ele>708.22</ele>
  <time>2026-09-01T19:55:51Z</time>
  <course>271.56</course>
  <speed>0.0</speed>
  <fix>3d</fix>
</trkpt>
<trkpt lat="-35.101221" lon="149.3751754">
  <ele>708.2</ele>
  <time>2026-09-01T19:55:51Z</time>
  <course>93.44</course>
  <speed>0.0282842712474619</speed>
  <fix>3d</fix>
</trkpt>
<trkpt lat="-35.1012209" lon="149.3751756">
  <ele>708.22</ele>
  <time>2026-09-01T19:55:51Z</time>
  <course>271.56</course>
  <speed>0.0</speed>
  <fix>3d</fix>
</trkpt>
<trkpt lat="-35.101221" lon="149.3751754">
  <ele>708.2</ele>
  <time>2026-09-01T19:55:51Z</time>
  <course>93.44</course>
  <speed>0.0282842712474619</speed>
  <fix>3d</fix>
</trkpt>
<trkpt lat="-35.1012209" lon="149.3751756">
  <ele>708.22</ele>
  <time>2026-09-01T19:55:51Z</time>
  <course>271.56</course>
  <speed>0.0</speed>
  <fix>3d</fix>
</trkpt>
<trkpt lat="-35.101221" lon="149.3751754">
  <ele>708.2</ele>
  <time>2026-09-01T19:55:51Z</time>
  <course>93.44</course>
  <speed>0.0282842712474619</speed>
  <fix>3d</fix>
</trkpt>
<trkpt lat="-35.1012209" lon="149.3751756">
  <ele>708.22</ele>
  <time>2026-09-01T19:55:51Z</time>
  <course>271.56</course>
  <speed>0.0</speed>
  <fix>3d</fix>
</trkpt>
<trkpt lat="-35.101221" lon="149.3751754">
  <ele>708.2</ele>
  <time>2026-09-01T19:55:51Z</time>
  <course>93.44</course>
  <speed>0.0282842712474619</speed>
  <fix>3d</fix>
</trkpt>
<trkpt lat="-35.1012209" lon="149.3751756">
  <ele>708.22</ele>
  <time>2026-09-01T19:55:51Z</time>
  <course>271.56</course>
  <speed>0.0</speed>
  <fix>3d</fix>
</trkpt>
<trkpt lat="-35.101221" lon="149.3751754">
  <ele>708.2</ele>
  <time>2026-09-01T19:55:51Z</time>
  <course>93.44</course>
  <speed>0.0282842712474619</speed>
  <fix>3d</fix>
</trkpt>
<trkpt lat="-35.1012209" lon="149.3751756">
  <ele>708.22</ele>
  <time>2026-09-01T19:55:51Z</time>
  <course>271.56</course>
  <speed>0.0</speed>
  <fix>3d</fix>
</trkpt>
<trkpt lat="-35.101221" lon="149.3751754">
  <ele>708.2</ele>
  <time>2026-09-01T19:55:51Z</time>
  <course>93.44</course>
  <speed>0.0282842712474619</speed>
  <fix>3d</fix>
</trkpt>
<trkpt lat="-35.1012209" lon="149.3751756">
  <ele>708.22</ele>
  <time>2026-09-01T19:55:51Z</time>
  <course>271.56</course>
  <speed>0.0</speed>
  <fix>3d</fix>
</trkpt>
<trkpt lat="-35.101221" lon="149.3751754">
  <ele>708.2</ele>
  <time>2026-09-01T19:55:51Z</time>
  <course>93.44</course>
  <speed>0.0282842712474619</speed>
  <fix>3d</fix>
</trkpt>
<trkpt lat="-35.1012209" lon="149.3751756">
  <ele>708.22</ele>
  <time>2026-09-01T19:55:51Z</time>
  <course>271.56</course>
  <speed>0.0</speed>
  <fix>3d</fix>
</trkpt>
<trkpt lat="-35.101221" lon="149.3751754">
  <ele>708.2</ele>
  <time>2026-09-01T19:55:51Z</time>
  <course>93.44</course>
  <speed>0.0282842712474619</speed>
  <fix>3d</fix>
</trkpt>
<trkpt lat="-35.1012209" lon="149.3751756">
  <ele>708.22</ele>
  <time>2026-09-01T19:55:51Z</time>
  <course>271.56</course>
  <speed>0.0</speed>
  <fix>3d</fix>
</trkpt>
<trkpt lat="-35.101221" lon="149.3751754">
  <ele>708.2</ele>
  <time>2026-09-01T19:55:51Z</time>
  <course>93.44</course>
  <speed>0.0282842712474619</speed>
  <fix>3d</fix>
</trkpt>
<trkpt lat="-35.1012209" lon="149.3751756">
  <ele>708.22</ele>
  <time>2026-09-01T19:55:51Z</time>
  <course>271.56</course>
  <speed>0.0</speed>
  <fix>3d</fix>
</trkpt>
<trkpt lat="-35.101221" lon="149.3751754">
  <ele>708.2</ele>
  <time>2026-09-01T19:55:51Z</time>
  <course>93.43</course>
  <speed>0.0282842712474619</speed>
  <fix>3d</fix>
</trkpt>
<trkpt lat="-35.1012209" lon="149.3751756">
  <ele>708.22</ele>
  <time>2026-09-01T19:55:51Z</time>
  <course>271.56</course>
  <speed>0.0</speed>
  <fix>3d</fix>
</trkpt>
<trkpt lat="-35.101221" lon="149.3751754">
  <ele>708.2</ele>
  <time>2026-09-01T19:55:51Z</time>
  <course>93.43</course>
  <speed>0.0282842712474619</speed>
  <fix>3d</fix>
</trkpt>
<trkpt lat="-35.1012209" lon="149.3751756">
  <ele>708.22</ele>
  <time>2026-09-01T19:55:51Z</time>
  <course>271.56</course>
  <speed>0.0</speed>
  <fix>3d</fix>
</trkpt>
<trkpt lat="-35.101221" lon="149.3751754">
  <ele>708.2</ele>
  <time>2026-09-01T19:55:51Z</time>
  <course>93.43</course>
  <speed>0.0282842712474619</speed>
  <fix>3d</fix>
</trkpt>
<trkpt lat="-35.1012209" lon="149.3751756">
  <ele>708.22</ele>
  <time>2026-09-01T19:55:51Z</time>
  <course>271.56</course>
  <speed>0.0</speed>
  <fix>3d</fix>
</trkpt>
<trkpt lat="-35.101221" lon="149.3751754">
  <ele>708.2</ele>
  <time>2026-09-01T19:55:51Z</time>
  <course>93.43</course>
  <speed>0.0282842712474619</speed>
  <fix>3d</fix>
</trkpt>
<trkpt lat="-35.1012209" lon="149.3751756">
  <ele>708.22</ele>
  <time>2026-09-01T19:55:51Z</time>
  <course>271.56</course>
  <speed>0.0</speed>
  <fix>3d</fix>
</trkpt>
<trkpt lat="-35.101221" lon="149.3751754">
  <ele>708.2</ele>
  <time>2026-09-01T19:55:51Z</time>
  <course>93.43</course>
  <speed>0.0282842712474619</speed>
  <fix>3d</fix>
</trkpt>
<trkpt lat="-35.1012209" lon="149.3751756">
  <ele>708.22</ele>
  <time>2026-09-01T19:55:51Z</time>
  <course>271.56</course>
  <speed>0.0</speed>
  <fix>3d</fix>
</trkpt>
<trkpt lat="-35.101221" lon="149.3751754">
  <ele>708.2</ele>
  <time>2026-09-01T19:55:51Z</time>
  <course>93.43</course>
  <speed>0.0282842712474619</speed>
  <fix>3d</fix>
</trkpt>
<trkpt lat="-35.1012209" lon="149.3751756">
  <ele>708.22</ele>
  <time>2026-09-01T19:55:51Z</time>
  <course>271.56</course>
  <speed>0.0</speed>
  <fix>3d</fix>
</trkpt>
<trkpt lat="-35.101221" lon="149.3751754">
  <ele>708.2</ele>
  <time>2026-09-01T19:55:51Z</time>
  <course>93.43</course>
  <speed>0.0282842712474619</speed>
  <fix>3d</fix>
</trkpt>
<trkpt lat="-35.1012209" lon="149.3751756">
  <ele>708.22</ele>
  <time>2026-09-01T19:55:51Z</time>
  <course>271.56</course>
  <speed>0.0</speed>
  <fix>3d</fix>
</trkpt>
<trkpt lat="-35.101221" lon="149.3751754">
  <ele>708.2</ele>
  <time>2026-09-01T19:55:51Z</time>
  <course>93.43</course>
  <speed>0.0282842712474619</speed>
  <fix>3d</fix>
</trkpt>
<trkpt lat="-35.1012209" lon="149.3751756">
  <ele>708.22</ele>
  <time>2026-09-01T19:55:51Z</time>
  <course>271.56</course>
  <speed>0.0</speed>
  <fix>3d</fix>
</trkpt>
<trkpt lat="-35.101221" lon="149.3751754">
  <ele>708.2</ele>
  <time>2026-09-01T19:55:51Z</time>
  <course>93.43</course>
  <speed>0.0282842712474619</speed>
  <fix>3d</fix>
</trkpt>
<trkpt lat="-35.1012209" lon="149.3751756">
  <ele>708.22</ele>
  <time>2026-09-01T19:55:51Z</time>
  <course>271.56</course>
  <speed>0.0</speed>
  <fix>3d</fix>
</trkpt>
<trkpt lat="-35.101221" lon="149.3751754">
  <ele>708.2</ele>
  <time>2026-09-01T19:55:51Z</time>
  <course>93.43</course>
  <speed>0.0282842712474619</speed>
  <fix>3d</fix>
</trkpt>
<trkpt lat="-35.1012209" lon="149.3751756">
  <ele>708.22</ele>
  <time>2026-09-01T19:55:51Z</time>
  <course>271.56</course>
  <speed>0.0</speed>
  <fix>3d</fix>
</trkpt>
<trkpt lat="-35.101221" lon="149.3751754">
  <ele>708.2</ele>
  <time>2026-09-01T19:55:51Z</time>
  <course>93.43</course>
  <speed>0.0282842712474619</speed>
  <fix>3d</fix>
</trkpt>
<trkpt lat="-35.1012209" lon="149.3751756">
  <ele>708.22</ele>
  <time>2026-09-01T19:55:51Z</time>
  <course>271.56</course>
  <speed>0.0</speed>
  <fix>3d</fix>
</trkpt>
<trkpt lat="-35.101221" lon="149.3751754">
  <ele>708.2</ele>
  <time>2026-09-01T19:55:51Z</time>
  <course>93.43</course>
  <speed>0.0282842712474619</speed>
  <fix>3d</fix>
</trkpt>
<trkpt lat="-35.1012209" lon="149.3751756">
  <ele>708.22</ele>
  <time>2026-09-01T19:55:51Z</time>
  <course>271.56</course>
  <speed>0.0</speed>
  <fix>3d</fix>
</trkpt>
<trkpt lat="-35.101221" lon="149.3751754">
  <ele>708.2</ele>
  <time>2026-09-01T19:55:51Z</time>
  <course>93.43</course>
  <speed>0.0282842712474619</speed>
  <fix>3d</fix>
</trkpt>
<trkpt lat="-35.1012209" lon="149.3751756">
  <ele>708.22</ele>
  <time>2026-09-01T19:55:51Z</time>
  <course>271.56</course>
  <speed>0.0</speed>
  <fix>3d</fix>
</trkpt>
<trkpt lat="-35.101221" lon="149.3751754">
  <ele>708.2</ele>
  <time>2026-09-01T19:55:51Z</time>
  <course>93.43</course>
  <speed>0.0282842712474619</speed>
  <fix>3d</fix>
</trkpt>
<trkpt lat="-35.1012209" lon="149.3751756">
  <ele>708.22</ele>
  <time>2026-09-01T19:55:51Z</time>
  <course>271.56</course>
  <speed>0.0</speed>
  <fix>3d</fix>
</trkpt>
<trkpt lat="-35.101221" lon="149.3751754">
  <ele>708.2</ele>
  <time>2026-09-01T19:55:51Z</time>
  <course>93.43</course>
  <speed>0.0282842712474619</speed>
  <fix>3d</fix>
</trkpt>
<trkpt lat="-35.1012209" lon="149.3751756">
  <ele>708.22</ele>
  <time>2026-09-01T19:55:51Z</time>
  <course>271.56</course>
  <speed>0.0</speed>
  <fix>3d</fix>
</trkpt>
<trkpt lat="-35.101221" lon="149.3751754">
  <ele>708.2</ele>
  <time>2026-09-01T19:55:51Z</time>
  <course>93.43</course>
  <speed>0.0282842712474619</speed>
  <fix>3d</fix>
</trkpt>
<trkpt lat="-35.1012209" lon="149.3751756">
  <ele>708.22</ele>
  <time>2026-09-01T19:55:51Z</time>
  <course>271.56</course>
  <speed>0.0</speed>
  <fix>3d</fix>
</trkpt>
<trkpt lat="-35.101221" lon="149.3751754">
  <ele>708.2</ele>
  <time>2026-09-01T19:55:51Z</time>
  <course>93.43</course>
  <speed>0.0282842712474619</speed>
  <fix>3d</fix>
</trkpt>
<trkpt lat="-35.1012209" lon="149.3751756">
  <ele>708.22</ele>
  <time>2026-09-01T19:55:51Z</time>
  <course>271.56</course>
  <speed>0.0</speed>
  <fix>3d</fix>
</trkpt>
<trkpt lat="-35.101221" lon="149.3751754">
  <ele>708.2</ele>
  <time>2026-09-01T19:55:51Z</time>
  <course>93.43</course>
  <speed>0.0282842712474619</speed>
  <fix>3d</fix>
</trkpt>
<trkpt lat="-35.1012209" lon="149.3751756">
  <ele>708.22</ele>
  <time>2026-09-01T19:55:51Z</time>
  <course>271.56</course>
  <speed>0.0</speed>
  <fix>3d</fix>
</trkpt>
<trkpt lat="-35.101221" lon="149.3751754">
  <ele>708.2</ele>
  <time>2026-09-01T19:55:51Z</time>
  <course>93.43</course>
  <speed>0.0282842712474619</speed>
  <fix>3d</fix>
</trkpt>
<trkpt lat="-35.1012209" lon="149.3751756">
  <ele>708.22</ele>
  <time>2026-09-01T19:55:51Z</time>
  <course>271.56</course>
  <speed>0.0</speed>
  <fix>3d</fix>
</trkpt>
<trkpt lat="-35.101221" lon="149.3751754">
  <ele>708.2</ele>
  <time>2026-09-01T19:55:51Z</time>
  <course>93.43</course>
  <speed>0.0282842712474619</speed>
  <fix>3d</fix>
</trkpt>
<trkpt lat="-35.1012209" lon="149.3751756">
  <ele>708.22</ele>
  <time>2026-09-01T19:55:51Z</time>
  <course>271.56</course>
  <speed>0.0</speed>
  <fix>3d</fix>
</trkpt>
<trkpt lat="-35.101221" lon="149.3751754">
  <ele>708.22</ele>
  <time>2026-09-01T19:55:51Z</time>
  <course>93.43</course>
  <speed>0.0282842712474619</speed>
  <fix>3d</fix>
</trkpt>
<trkpt lat="-35.1012209" lon="149.3751756">
  <ele>708.22</ele>
  <time>2026-09-01T19:55:51Z</time>
  <course>271.56</course>
  <speed>0.0</speed>
  <fix>3d</fix>
</trkpt>
<trkpt lat="-35.101221" lon="149.3751754">
  <ele>708.21</ele>
  <time>2026-09-01T19:55:51Z</time>
  <course>93.43</course>
  <speed>0.0282842712474619</speed>
  <fix>3d</fix>
</trkpt>
<trkpt lat="-35.1012209" lon="149.3751756">
  <ele>708.22</ele>
  <time>2026-09-01T19:55:51Z</time>
  <course>271.56</course>
  <speed>0.0</speed>
  <fix>3d</fix>
</trkpt>
<trkpt lat="-35.101221" lon="149.3751754">
  <ele>708.21</ele>
  <time>2026-09-01T19:55:51Z</time>
  <course>93.43</course>
  <speed>0.0282842712474619</speed>
  <fix>3d</fix>
</trkpt>
<trkpt lat="-35.1012209" lon="149.3751756">
  <ele>708.22</ele>
  <time>2026-09-01T19:55:51Z</time>
  <course>271.56</course>
  <speed>0.0</speed>
  <fix>3d</fix>
</trkpt>
<trkpt lat="-35.101221" lon="149.3751754">
  <ele>708.22</ele>
  <time>2026-09-01T19:55:51Z</time>
  <course>93.43</course>
  <speed>0.0282842712474619</speed>
  <fix>3d</fix>
</trkpt>
<trkpt lat="-35.1012209" lon="149.3751756">
  <ele>708.22</ele>
  <time>2026-09-01T19:55:51Z</time>
  <course>271.56</course>
  <speed>0.0</speed>
  <fix>3d</fix>
</trkpt>
<trkpt lat="-35.101221" lon="149.3751754">
  <ele>708.22</ele>
  <time>2026-09-01T19:55:51Z</time>
  <course>93.43</course>
  <speed>0.0282842712474619</speed>
  <fix>3d</fix>
</trkpt>
<trkpt lat="-35.1012209" lon="149.3751756">
  <ele>708.22</ele>
  <time>2026-09-01T19:55:51Z</time>
  <course>271.56</course>
  <speed>0.0</speed>
  <fix>3d</fix>
</trkpt>
<trkpt lat="-35.101221" lon="149.3751754">
  <ele>708.22</ele>
  <time>2026-09-01T19:55:51Z</time>
  <course>93.43</course>
  <speed>0.0282842712474619</speed>
  <fix>3d</fix>
</trkpt>
<trkpt lat="-35.1012209" lon="149.3751756">
  <ele>708.22</ele>
  <time>2026-09-01T19:55:51Z</time>
  <course>271.56</course>
  <speed>0.0</speed>
  <fix>3d</fix>
</trkpt>
<trkpt lat="-35.101221" lon="149.3751754">
  <ele>708.23</ele>
  <time>2026-09-01T19:55:51Z</time>
  <course>93.43</course>
  <speed>0.0282842712474619</speed>
  <fix>3d</fix>
</trkpt>
<trkpt lat="-35.1012209" lon="149.3751756">
  <ele>708.22</ele>
  <time>2026-09-01T19:55:51Z</time>
  <course>271.56</course>
  <speed>0.0</speed>
  <fix>3d</fix>
</trkpt>
<trkpt lat="-35.101221" lon="149.3751754">
  <ele>708.23</ele>
  <time>2026-09-01T19:55:51Z</time>
  <course>93.43</course>
  <speed>0.0282842712474619</speed>
  <fix>3d</fix>
</trkpt>
<trkpt lat="-35.1012209" lon="149.3751756">
  <ele>708.22</ele>
  <time>2026-09-01T19:55:51Z</time>
  <course>271.56</course>
  <speed>0.0</speed>
  <fix>3d</fix>
</trkpt>
<trkpt lat="-35.101221" lon="149.3751754">
  <ele>708.23</ele>
  <time>2026-09-01T19:55:51Z</time>
  <course>93.42</course>
  <speed>0.0282842712474619</speed>
  <fix>3d</fix>
</trkpt>
<trkpt lat="-35.1012209" lon="149.3751756">
  <ele>708.22</ele>
  <time>2026-09-01T19:55:51Z</time>
  <course>271.56</course>
  <speed>0.0</speed>
  <fix>3d</fix>
</trkpt>
<trkpt lat="-35.101221" lon="149.3751754">
  <ele>708.24</ele>
  <time>2026-09-01T19:55:51Z</time>
  <course>93.42</course>
  <speed>0.0282842712474619</speed>
  <fix>3d</fix>
</trkpt>
<trkpt lat="-35.1012209" lon="149.3751756">
  <ele>708.22</ele>
  <time>2026-09-01T19:55:51Z</time>
  <course>271.56</course>
  <speed>0.0</speed>
  <fix>3d</fix>
</trkpt>
<trkpt lat="-35.101221" lon="149.3751754">
  <ele>708.24</ele>
  <time>2026-09-01T19:55:51Z</time>
  <course>93.42</course>
  <speed>0.0282842712474619</speed>
  <fix>3d</fix>
</trkpt>
<trkpt lat="-35.1012209" lon="149.3751756">
  <ele>708.22</ele>
  <time>2026-09-01T19:55:51Z</time>
  <course>271.56</course>
  <speed>0.0</speed>
  <fix>3d</fix>
</trkpt>
<trkpt lat="-35.101221" lon="149.3751754">
  <ele>708.25</ele>
  <time>2026-09-01T19:55:51Z</time>
  <course>93.42</course>
  <speed>0.0282842712474619</speed>
  <fix>3d</fix>
</trkpt>
<trkpt lat="-35.1012209" lon="149.3751756">
  <ele>708.22</ele>
  <time>2026-09-01T19:55:51Z</time>
  <course>271.56</course>
  <speed>0.0</speed>
  <fix>3d</fix>
</trkpt>
<trkpt lat="-35.101221" lon="149.3751754">
  <ele>708.25</ele>
  <time>2026-09-01T19:55:51Z</time>
  <course>93.42</course>
  <speed>0.0282842712474619</speed>
  <fix>3d</fix>
</trkpt>
<trkpt lat="-35.1012209" lon="149.3751756">
  <ele>708.22</ele>
  <time>2026-09-01T19:55:51Z</time>
  <course>271.56</course>
  <speed>0.0</speed>
  <fix>3d</fix>
</trkpt>
<trkpt lat="-35.101221" lon="149.3751754">
  <ele>708.25</ele>
  <time>2026-09-01T19:55:51Z</time>
  <course>93.42</course>
  <speed>0.0282842712474619</speed>
  <fix>3d</fix>
</trkpt>
<trkpt lat="-35.1012209" lon="149.3751756">
  <ele>708.22</ele>
  <time>2026-09-01T19:55:51Z</time>
  <course>271.56</course>
  <speed>0.0</speed>
  <fix>3d</fix>
</trkpt>
<trkpt lat="-35.101221" lon="149.3751754">
  <ele>708.26</ele>
  <time>2026-09-01T19:55:51Z</time>
  <course>93.42</course>
  <speed>0.0282842712474619</speed>
  <fix>3d</fix>
</trkpt>
<trkpt lat="-35.1012209" lon="149.3751756">
  <ele>708.22</ele>
  <time>2026-09-01T19:55:51Z</time>
  <course>271.56</course>
  <speed>0.0</speed>
  <fix>3d</fix>
</trkpt>
<trkpt lat="-35.101221" lon="149.3751754">
  <ele>708.26</ele>
  <time>2026-09-01T19:55:51Z</time>
  <course>93.42</course>
  <speed>0.0282842712474619</speed>
  <fix>3d</fix>
</trkpt>
<trkpt lat="-35.1012209" lon="149.3751756">
  <ele>708.22</ele>
  <time>2026-09-01T19:55:51Z</time>
  <course>271.56</course>
  <speed>0.0</speed>
  <fix>3d</fix>
</trkpt>
<trkpt lat="-35.101221" lon="149.3751754">
  <ele>708.27</ele>
  <time>2026-09-01T19:55:51Z</time>
  <course>93.42</course>
  <speed>0.0282842712474619</speed>
  <fix>3d</fix>
</trkpt>
<trkpt lat="-35.1012209" lon="149.3751756">
  <ele>708.22</ele>
  <time>2026-09-01T19:55:51Z</time>
  <course>271.56</course>
  <speed>0.0</speed>
  <fix>3d</fix>
</trkpt>
<trkpt lat="-35.101221" lon="149.3751754">
  <ele>708.27</ele>
  <time>2026-09-01T19:55:51Z</time>
  <course>93.42</course>
  <speed>0.0282842712474619</speed>
  <fix>3d</fix>
</trkpt>
<trkpt lat="-35.1012209" lon="149.3751756">
  <ele>708.22</ele>
  <time>2026-09-01T19:55:51Z</time>
  <course>271.56</course>
  <speed>0.0</speed>
  <fix>3d</fix>
</trkpt>
<trkpt lat="-35.101221" lon="149.3751754">
  <ele>708.28</ele>
  <time>2026-09-01T19:55:51Z</time>
  <course>93.42</course>
  <speed>0.0282842712474619</speed>
  <fix>3d</fix>
</trkpt>
<trkpt lat="-35.1012209" lon="149.3751756">
  <ele>708.22</ele>
  <time>2026-09-01T19:55:51Z</time>
  <course>271.56</course>
  <speed>0.0</speed>
  <fix>3d</fix>
</trkpt>
<trkpt lat="-35.101221" lon="149.3751754">
  <ele>708.28</ele>
  <time>2026-09-01T19:55:51Z</time>
  <course>93.42</course>
  <speed>0.0282842712474619</speed>
  <fix>3d</fix>
</trkpt>
<trkpt lat="-35.1012209" lon="149.3751756">
  <ele>708.22</ele>
  <time>2026-09-01T19:55:51Z</time>
  <course>271.56</course>
  <speed>0.0</speed>
  <fix>3d</fix>
</trkpt>
<trkpt lat="-35.101221" lon="149.3751754">
  <ele>708.28</ele>
  <time>2026-09-01T19:55:51Z</time>
  <course>93.42</course>
  <speed>0.0282842712474619</speed>
  <fix>3d</fix>
</trkpt>
<trkpt lat="-35.1012209" lon="149.3751756">
  <ele>708.22</ele>
  <time>2026-09-01T19:55:51Z</time>
  <course>271.56</course>
  <speed>0.0</speed>
  <fix>3d</fix>
</trkpt>
<trkpt lat="-35.101221" lon="149.3751754">
  <ele>708.29</ele>
  <time>2026-09-01T19:55:51Z</time>
  <course>93.42</course>
  <speed>0.0282842712474619</speed>
  <fix>3d</fix>
</trkpt>
<trkpt lat="-35.1012209" lon="149.3751756">
  <ele>708.22</ele>
  <time>2026-09-01T19:55:51Z</time>
  <course>271.56</course>
  <speed>0.0</speed>
  <fix>3d</fix>
</trkpt>
<trkpt lat="-35.101221" lon="149.3751754">
  <ele>708.29</ele>
  <time>2026-09-01T19:55:51Z</time>
  <course>93.42</course>
  <speed>0.0282842712474619</speed>
  <fix>3d</fix>
</trkpt>
<trkpt lat="-35.1012209" lon="149.3751756">
  <ele>708.22</ele>
  <time>2026-09-01T19:55:51Z</time>
  <course>271.56</course>
  <speed>0.0</speed>
  <fix>3d</fix>
</trkpt>
<trkpt lat="-35.101221" lon="149.3751754">
  <ele>708.29</ele>
  <time>2026-09-01T19:55:51Z</time>
  <course>93.42</course>
  <speed>0.0282842712474619</speed>
  <fix>3d</fix>
</trkpt>
<trkpt lat="-35.1012209" lon="149.3751756">
  <ele>708.22</ele>
  <time>2026-09-01T19:55:51Z</time>
  <course>271.56</course>
  <speed>0.0</speed>
  <fix>3d</fix>
</trkpt>
<trkpt lat="-35.101221" lon="149.3751754">
  <ele>708.3</ele>
  <time>2026-09-01T19:55:51Z</time>
  <course>93.42</course>
  <speed>0.0282842712474619</speed>
  <fix>3d</fix>
</trkpt>
<trkpt lat="-35.1012209" lon="149.3751756">
  <ele>708.22</ele>
  <time>2026-09-01T19:55:51Z</time>
  <course>271.56</course>
  <speed>0.0</speed>
  <fix>3d</fix>
</trkpt>
<trkpt lat="-35.101221" lon="149.3751754">
  <ele>708.3</ele>
  <time>2026-09-01T19:55:51Z</time>
  <course>93.42</course>
  <speed>0.0282842712474619</speed>
  <fix>3d</fix>
</trkpt>
<trkpt lat="-35.1012209" lon="149.3751756">
  <ele>708.22</ele>
  <time>2026-09-01T19:55:51Z</time>
  <course>271.56</course>
  <speed>0.0</speed>
  <fix>3d</fix>
</trkpt>
<trkpt lat="-35.101221" lon="149.3751754">
  <ele>708.3</ele>
  <time>2026-09-01T19:55:51Z</time>
  <course>93.42</course>
  <speed>0.0282842712474619</speed>
  <fix>3d</fix>
</trkpt>
<trkpt lat="-35.1012209" lon="149.3751756">
  <ele>708.22</ele>
  <time>2026-09-01T19:55:51Z</time>
  <course>271.56</course>
  <speed>0.0</speed>
  <fix>3d</fix>
</trkpt>
<trkpt lat="-35.101221" lon="149.3751754">
  <ele>708.31</ele>
  <time>2026-09-01T19:55:51Z</time>
  <course>93.42</course>
  <speed>0.0282842712474619</speed>
  <fix>3d</fix>
</trkpt>
<trkpt lat="-35.1012209" lon="149.3751756">
  <ele>708.22</ele>
  <time>2026-09-01T19:55:51Z</time>
  <course>271.56</course>
  <speed>0.0</speed>
  <fix>3d</fix>
</trkpt>
<trkpt lat="-35.101221" lon="149.3751754">
  <ele>708.31</ele>
  <time>2026-09-01T19:55:51Z</time>
  <course>93.42</course>
  <speed>0.0282842712474619</speed>
  <fix>3d</fix>
</trkpt>
<trkpt lat="-35.1012209" lon="149.3751756">
  <ele>708.22</ele>
  <time>2026-09-01T19:55:51Z</time>
  <course>271.56</course>
  <speed>0.0</speed>
  <fix>3d</fix>
</trkpt>
<trkpt lat="-35.101221" lon="149.3751754">
  <ele>708.32</ele>
  <time>2026-09-01T19:55:51Z</time>
  <course>93.42</course>
  <speed>0.0282842712474619</speed>
  <fix>3d</fix>
</trkpt>
<trkpt lat="-35.1012209" lon="149.3751756">
  <ele>708.22</ele>
  <time>2026-09-01T19:55:51Z</time>
  <course>271.56</course>
  <speed>0.0</speed>
  <fix>3d</fix>
</trkpt>
<trkpt lat="-35.101221" lon="149.3751754">
  <ele>708.32</ele>
  <time>2026-09-01T19:55:51Z</time>
  <course>93.42</course>
  <speed>0.0282842712474619</speed>
  <fix>3d</fix>
</trkpt>
<trkpt lat="-35.1012209" lon="149.3751756">
  <ele>708.22</ele>
  <time>2026-09-01T19:55:51Z</time>
  <course>271.56</course>
  <speed>0.0</speed>
  <fix>3d</fix>
</trkpt>
<trkpt lat="-35.101221" lon="149.3751754">
  <ele>708.32</ele>
  <time>2026-09-01T19:55:51Z</time>
  <course>93.42</course>
  <speed>0.0282842712474619</speed>
  <fix>3d</fix>
</trkpt>
<trkpt lat="-35.1012209" lon="149.3751756">
  <ele>708.22</ele>
  <time>2026-09-01T19:55:51Z</time>
  <course>271.56</course>
  <speed>0.0</speed>
  <fix>3d</fix>
</trkpt>
<trkpt lat="-35.101221" lon="149.3751754">
  <ele>708.32</ele>
  <time>2026-09-01T19:55:51Z</time>
  <course>93.42</course>
  <speed>0.0282842712474619</speed>
  <fix>3d</fix>
</trkpt>
<trkpt lat="-35.1012209" lon="149.3751756">
  <ele>708.22</ele>
  <time>2026-09-01T19:55:51Z</time>
  <course>271.56</course>
  <speed>0.0</speed>
  <fix>3d</fix>
</trkpt>
<trkpt lat="-35.101221" lon="149.3751754">
  <ele>708.33</ele>
  <time>2026-09-01T19:55:51Z</time>
  <course>93.42</course>
  <speed>0.0282842712474619</speed>
  <fix>3d</fix>
</trkpt>
<trkpt lat="-35.1012209" lon="149.3751756">
  <ele>708.22</ele>
  <time>2026-09-01T19:55:51Z</time>
  <course>271.56</course>
  <speed>0.0</speed>
  <fix>3d</fix>
</trkpt>
<trkpt lat="-35.101221" lon="149.3751754">
  <ele>708.33</ele>
  <time>2026-09-01T19:55:51Z</time>
  <course>93.42</course>
  <speed>0.0282842712474619</speed>
  <fix>3d</fix>
</trkpt>
<trkpt lat="-35.1012209" lon="149.3751756">
  <ele>708.22</ele>
  <time>2026-09-01T19:55:51Z</time>
  <course>271.56</course>
  <speed>0.0</speed>
  <fix>3d</fix>
</trkpt>
<trkpt lat="-35.101221" lon="149.3751754">
  <ele>708.33</ele>
  <time>2026-09-01T19:55:51Z</time>
  <course>93.42</course>
  <speed>0.0282842712474619</speed>
  <fix>3d</fix>
</trkpt>
<trkpt lat="-35.1012209" lon="149.3751756">
  <ele>708.22</ele>
  <time>2026-09-01T19:55:51Z</time>
  <course>271.56</course>
  <speed>0.0</speed>
  <fix>3d</fix>
</trkpt>
<trkpt lat="-35.101221" lon="149.3751754">
  <ele>708.33</ele>
  <time>2026-09-01T19:55:51Z</time>
  <course>93.42</course>
  <speed>0.0282842712474619</speed>
  <fix>3d</fix>
</trkpt>
<trkpt lat="-35.1012209" lon="149.3751756">
  <ele>708.22</ele>
  <time>2026-09-01T19:55:51Z</time>
  <course>271.56</course>
  <speed>0.0</speed>
  <fix>3d</fix>
</trkpt>
<trkpt lat="-35.101221" lon="149.3751754">
  <ele>708.34</ele>
  <time>2026-09-01T19:55:51Z</time>
  <course>93.42</course>
  <speed>0.0282842712474619</speed>
  <fix>3d</fix>
</trkpt>
<trkpt lat="-35.1012209" lon="149.3751756">
  <ele>708.22</ele>
  <time>2026-09-01T19:55:51Z</time>
  <course>271.56</course>
  <speed>0.0</speed>
  <fix>3d</fix>
</trkpt>
<trkpt lat="-35.101221" lon="149.3751754">
  <ele>708.34</ele>
  <time>2026-09-01T19:55:51Z</time>
  <course>93.42</course>
  <speed>0.0282842712474619</speed>
  <fix>3d</fix>
</trkpt>
<trkpt lat="-35.1012209" lon="149.3751756">
  <ele>708.22</ele>
  <time>2026-09-01T19:55:51Z</time>
  <course>271.56</course>
  <speed>0.0</speed>
  <fix>3d</fix>
</trkpt>
<trkpt lat="-35.101221" lon="149.3751754">
  <ele>708.35</ele>
  <time>2026-09-01T19:55:51Z</time>
  <course>93.42</course>
  <speed>0.0282842712474619</speed>
  <fix>3d</fix>
</trkpt>
<trkpt lat="-35.1012209" lon="149.3751756">
  <ele>708.22</ele>
  <time>2026-09-01T19:55:51Z</time>
  <course>271.56</course>
  <speed>0.0</speed>
  <fix>3d</fix>
</trkpt>
<trkpt lat="-35.101221" lon="149.3751754">
  <ele>708.35</ele>
  <time>2026-09-01T19:55:51Z</time>
  <course>93.42</course>
  <speed>0.0282842712474619</speed>
  <fix>3d</fix>
</trkpt>
<trkpt lat="-35.1012209" lon="149.3751756">
  <ele>708.22</ele>
  <time>2026-09-01T19:55:51Z</time>
  <course>271.56</course>
  <speed>0.0</speed>
  <fix>3d</fix>
</trkpt>
<trkpt lat="-35.101221" lon="149.3751754">
  <ele>708.35</ele>
  <time>2026-09-01T19:55:51Z</time>
  <course>93.42</course>
  <speed>0.0282842712474619</speed>
  <fix>3d</fix>
</trkpt>
<trkpt lat="-35.1012209" lon="149.3751756">
  <ele>708.22</ele>
  <time>2026-09-01T19:55:51Z</time>
  <course>271.56</course>
  <speed>0.0</speed>
  <fix>3d</fix>
</trkpt>
<trkpt lat="-35.101221" lon="149.3751754">
  <ele>708.35</ele>
  <time>2026-09-01T19:55:51Z</time>
  <course>93.41</course>
  <speed>0.0282842712474619</speed>
  <fix>3d</fix>
</trkpt>
<trkpt lat="-35.1012209" lon="149.3751756">
  <ele>708.22</ele>
  <time>2026-09-01T19:55:51Z</time>
  <course>271.56</course>
  <speed>0.0</speed>
  <fix>3d</fix>
</trkpt>
<trkpt lat="-35.101221" lon="149.3751754">
  <ele>708.36</ele>
  <time>2026-09-01T19:55:51Z</time>
  <course>93.41</course>
  <speed>0.0282842712474619</speed>
  <fix>3d</fix>
</trkpt>
<trkpt lat="-35.1012209" lon="149.3751756">
  <ele>708.22</ele>
  <time>2026-09-01T19:55:51Z</time>
  <course>271.56</course>
  <speed>0.0</speed>
  <fix>3d</fix>
</trkpt>
<trkpt lat="-35.101221" lon="149.3751754">
  <ele>708.36</ele>
  <time>2026-09-01T19:55:51Z</time>
  <course>93.41</course>
  <speed>0.0282842712474619</speed>
  <fix>3d</fix>
</trkpt>
<trkpt lat="-35.1012209" lon="149.3751756">
  <ele>708.22</ele>
  <time>2026-09-01T19:55:51Z</time>
  <course>271.56</course>
  <speed>0.0</speed>
  <fix>3d</fix>
</trkpt>
<trkpt lat="-35.101221" lon="149.3751754">
  <ele>708.36</ele>
  <time>2026-09-01T19:55:51Z</time>
  <course>93.41</course>
  <speed>0.0282842712474619</speed>
  <fix>3d</fix>
</trkpt>
<trkpt lat="-35.1012209" lon="149.3751756">
  <ele>708.22</ele>
  <time>2026-09-01T19:55:51Z</time>
  <course>271.56</course>
  <speed>0.0</speed>
  <fix>3d</fix>
</trkpt>
<trkpt lat="-35.101221" lon="149.3751754">
  <ele>708.36</ele>
  <time>2026-09-01T19:55:51Z</time>
  <course>93.41</course>
  <speed>0.0282842712474619</speed>
  <fix>3d</fix>
</trkpt>
<trkpt lat="-35.1012209" lon="149.3751756">
  <ele>708.22</ele>
  <time>2026-09-01T19:55:51Z</time>
  <course>271.56</course>
  <speed>0.0</speed>
  <fix>3d</fix>
</trkpt>
<trkpt lat="-35.101221" lon="149.3751754">
  <ele>708.37</ele>
  <time>2026-09-01T19:55:51Z</time>
  <course>93.41</course>
  <speed>0.0282842712474619</speed>
  <fix>3d</fix>
</trkpt>
<trkpt lat="-35.1012209" lon="149.3751756">
  <ele>708.22</ele>
  <time>2026-09-01T19:55:51Z</time>
  <course>271.56</course>
  <speed>0.0</speed>
  <fix>3d</fix>
</trkpt>
<trkpt lat="-35.101221" lon="149.3751754">
  <ele>708.37</ele>
  <time>2026-09-01T19:55:51Z</time>
  <course>93.41</course>
  <speed>0.0282842712474619</speed>
  <fix>3d</fix>
</trkpt>
<trkpt lat="-35.1012209" lon="149.3751756">
  <ele>708.22</ele>
  <time>2026-09-01T19:55:51Z</time>
  <course>271.56</course>
  <speed>0.0</speed>
  <fix>3d</fix>
</trkpt>
<trkpt lat="-35.101221" lon="149.3751754">
  <ele>708.36</ele>
  <time>2026-09-01T19:55:51Z</time>
  <course>93.41</course>
  <speed>0.0282842712474619</speed>
  <fix>3d</fix>
</trkpt>
<trkpt lat="-35.1012209" lon="149.3751756">
  <ele>708.22</ele>
  <time>2026-09-01T19:55:51Z</time>
  <course>271.56</course>
  <speed>0.0</speed>
  <fix>3d</fix>
</trkpt>
<trkpt lat="-35.101221" lon="149.3751754">
  <ele>708.36</ele>
  <time>2026-09-01T19:55:51Z</time>
  <course>93.41</course>
  <speed>0.0282842712474619</speed>
  <fix>3d</fix>
</trkpt>
<trkpt lat="-35.1012209" lon="149.3751756">
  <ele>708.22</ele>
  <time>2026-09-01T19:55:51Z</time>
  <course>271.56</course>
  <speed>0.0</speed>
  <fix>3d</fix>
</trkpt>
<trkpt lat="-35.101221" lon="149.3751754">
  <ele>708.37</ele>
  <time>2026-09-01T19:55:51Z</time>
  <course>93.41</course>
  <speed>0.0282842712474619</speed>
  <fix>3d</fix>
</trkpt>
<trkpt lat="-35.1012209" lon="149.3751756">
  <ele>708.22</ele>
  <time>2026-09-01T19:55:51Z</time>
  <course>271.56</course>
  <speed>0.0</speed>
  <fix>3d</fix>
</trkpt>
<trkpt lat="-35.101221" lon="149.3751754">
  <ele>708.37</ele>
  <time>2026-09-01T19:55:51Z</time>
  <course>93.41</course>
  <speed>0.0282842712474619</speed>
  <fix>3d</fix>
</trkpt>
<trkpt lat="-35.1012209" lon="149.3751756">
  <ele>708.22</ele>
  <time>2026-09-01T19:55:51Z</time>
  <course>271.56</course>
  <speed>0.0</speed>
  <fix>3d</fix>
</trkpt>
<trkpt lat="-35.101221" lon="149.3751754">
  <ele>708.37</ele>
  <time>2026-09-01T19:55:51Z</time>
  <course>93.41</course>
  <speed>0.0282842712474619</speed>
  <fix>3d</fix>
</trkpt>
<trkpt lat="-35.1012209" lon="149.3751756">
  <ele>708.22</ele>
  <time>2026-09-01T19:55:51Z</time>
  <course>271.56</course>
  <speed>0.0</speed>
  <fix>3d</fix>
</trkpt>
<trkpt lat="-35.101221" lon="149.3751754">
  <ele>708.37</ele>
  <time>2026-09-01T19:55:51Z</time>
  <course>93.41</course>
  <speed>0.0282842712474619</speed>
  <fix>3d</fix>
</trkpt>
<trkpt lat="-35.1012209" lon="149.3751756">
  <ele>708.22</ele>
  <time>2026-09-01T19:55:51Z</time>
  <course>271.56</course>
  <speed>0.0</speed>
  <fix>3d</fix>
</trkpt>
<trkpt lat="-35.101221" lon="149.3751754">
  <ele>708.37</ele>
  <time>2026-09-01T19:55:51Z</time>
  <course>93.41</course>
  <speed>0.0282842712474619</speed>
  <fix>3d</fix>
</trkpt>
<trkpt lat="-35.1012209" lon="149.3751756">
  <ele>708.22</ele>
  <time>2026-09-01T19:55:51Z</time>
  <course>271.56</course>
  <speed>0.0</speed>
  <fix>3d</fix>
</trkpt>
<trkpt lat="-35.101221" lon="149.3751754">
  <ele>708.37</ele>
  <time>2026-09-01T19:55:51Z</time>
  <course>93.41</course>
  <speed>0.0282842712474619</speed>
  <fix>3d</fix>
</trkpt>
<trkpt lat="-35.1012209" lon="149.3751756">
  <ele>708.22</ele>
  <time>2026-09-01T19:55:51Z</time>
  <course>271.56</course>
  <speed>0.0</speed>
  <fix>3d</fix>
</trkpt>
<trkpt lat="-35.101221" lon="149.3751754">
  <ele>708.37</ele>
  <time>2026-09-01T19:55:51Z</time>
  <course>93.41</course>
  <speed>0.0282842712474619</speed>
  <fix>3d</fix>
</trkpt>
<trkpt lat="-35.1012209" lon="149.3751756">
  <ele>708.22</ele>
  <time>2026-09-01T19:55:51Z</time>
  <course>271.56</course>
  <speed>0.0</speed>
  <fix>3d</fix>
</trkpt>
<trkpt lat="-35.101221" lon="149.3751754">
  <ele>708.37</ele>
  <time>2026-09-01T19:55:51Z</time>
  <course>93.41</course>
  <speed>0.0282842712474619</speed>
  <fix>3d</fix>
</trkpt>
<trkpt lat="-35.1012209" lon="149.3751756">
  <ele>708.22</ele>
  <time>2026-09-01T19:55:51Z</time>
  <course>271.56</course>
  <speed>0.0</speed>
  <fix>3d</fix>
</trkpt>
<trkpt lat="-35.101221" lon="149.3751754">
  <ele>708.37</ele>
  <time>2026-09-01T19:55:51Z</time>
  <course>93.41</course>
  <speed>0.0282842712474619</speed>
  <fix>3d</fix>
</trkpt>
<trkpt lat="-35.1012209" lon="149.3751756">
  <ele>708.22</ele>
  <time>2026-09-01T19:55:51Z</time>
  <course>271.56</course>
  <speed>0.0</speed>
  <fix>3d</fix>
</trkpt>
<trkpt lat="-35.101221" lon="149.3751754">
  <ele>708.22</ele>
  <time>2026-09-01T19:55:51Z</time>
  <course>93.41</course>
  <speed>0.0282842712474619</speed>
  <fix>3d</fix>
</trkpt>
<trkpt lat="-35.1012209" lon="149.3751756">
  <ele>708.22</ele>
  <time>2026-09-01T19:55:51Z</time>
  <course>271.56</course>
  <speed>0.0</speed>
  <fix>3d</fix>
</trkpt>
<trkpt lat="-35.101221" lon="149.3751754">
  <ele>708.22</ele>
  <time>2026-09-01T19:55:51Z</time>
  <course>93.41</course>
  <speed>0.0282842712474619</speed>
  <fix>3d</fix>
</trkpt>
<trkpt lat="-35.1012209" lon="149.3751756">
  <ele>708.22</ele>
  <time>2026-09-01T19:55:51Z</time>
  <course>271.56</course>
  <speed>0.0</speed>
  <fix>3d</fix>
</trkpt>
<trkpt lat="-35.101221" lon="149.3751754">
  <ele>708.22</ele>
  <time>2026-09-01T19:55:51Z</time>
  <course>93.41</course>
  <speed>0.0282842712474619</speed>
  <fix>3d</fix>
</trkpt>
<trkpt lat="-35.1012209" lon="149.3751756">
  <ele>708.22</ele>
  <time>2026-09-01T19:55:51Z</time>
  <course>271.56</course>
  <speed>0.0</speed>
  <fix>3d</fix>
</trkpt>
<trkpt lat="-35.101221" lon="149.3751754">
  <ele>708.22</ele>
  <time>2026-09-01T19:55:51Z</time>
  <course>93.41</course>
  <speed>0.0282842712474619</speed>
  <fix>3d</fix>
</trkpt>
<trkpt lat="-35.1012209" lon="149.3751756">
  <ele>708.22</ele>
  <time>2026-09-01T19:55:51Z</time>
  <course>271.56</course>
  <speed>0.0</speed>
  <fix>3d</fix>
</trkpt>
<trkpt lat="-35.101221" lon="149.3751754">
  <ele>708.22</ele>
  <time>2026-09-01T19:55:51Z</time>
  <course>93.41</course>
  <speed>0.0282842712474619</speed>
  <fix>3d</fix>
</trkpt>
<trkpt lat="-35.1012209" lon="149.3751756">
  <ele>708.22</ele>
  <time>2026-09-01T19:55:51Z</time>
  <course>271.56</course>
  <speed>0.0</speed>
  <fix>3d</fix>
</trkpt>
<trkpt lat="-35.101221" lon="149.3751754">
  <ele>708.22</ele>
  <time>2026-09-01T19:55:51Z</time>
  <course>93.41</course>
  <speed>0.0282842712474619</speed>
  <fix>3d</fix>
</trkpt>
<trkpt lat="-35.1012209" lon="149.3751756">
  <ele>708.22</ele>
  <time>2026-09-01T19:55:51Z</time>
  <course>271.56</course>
  <speed>0.0</speed>
  <fix>3d</fix>
</trkpt>
<trkpt lat="-35.101221" lon="149.3751754">
  <ele>708.21</ele>
  <time>2026-09-01T19:55:51Z</time>
  <course>93.41</course>
  <speed>0.0282842712474619</speed>
  <fix>3d</fix>
</trkpt>
<trkpt lat="-35.1012209" lon="149.3751756">
  <ele>708.22</ele>
  <time>2026-09-01T19:55:51Z</time>
  <course>271.56</course>
  <speed>0.0</speed>
  <fix>3d</fix>
</trkpt>
<trkpt lat="-35.101221" lon="149.3751754">
  <ele>708.21</ele>
  <time>2026-09-01T19:55:51Z</time>
  <course>93.41</course>
  <speed>0.0282842712474619</speed>
  <fix>3d</fix>
</trkpt>
<trkpt lat="-35.1012209" lon="149.3751756">
  <ele>708.22</ele>
  <time>2026-09-01T19:55:51Z</time>
  <course>271.56</course>
  <speed>0.0</speed>
  <fix>3d</fix>
</trkpt>
<trkpt lat="-35.101221" lon="149.3751754">
  <ele>708.21</ele>
  <time>2026-09-01T19:55:51Z</time>
  <course>93.41</course>
  <speed>0.0282842712474619</speed>
  <fix>3d</fix>
</trkpt>
<trkpt lat="-35.1012209" lon="149.3751756">
  <ele>708.22</ele>
  <time>2026-09-01T19:55:51Z</time>
  <course>271.56</course>
  <speed>0.0</speed>
  <fix>3d</fix>
</trkpt>
<trkpt lat="-35.101221" lon="149.3751754">
  <ele>708.21</ele>
  <time>2026-09-01T19:55:51Z</time>
  <course>93.41</course>
  <speed>0.0282842712474619</speed>
  <fix>3d</fix>
</trkpt>
<trkpt lat="-35.1012209" lon="149.3751756">
  <ele>708.22</ele>
  <time>2026-09-01T19:55:51Z</time>
  <course>271.56</course>
  <speed>0.0</speed>
  <fix>3d</fix>
</trkpt>
<trkpt lat="-35.101221" lon="149.3751754">
  <ele>708.21</ele>
  <time>2026-09-01T19:55:51Z</time>
  <course>93.41</course>
  <speed>0.0282842712474619</speed>
  <fix>3d</fix>
</trkpt>
<trkpt lat="-35.1012209" lon="149.3751756">
  <ele>708.22</ele>
  <time>2026-09-01T19:55:51Z</time>
  <course>271.56</course>
  <speed>0.0</speed>
  <fix>3d</fix>
</trkpt>
<trkpt lat="-35.101221" lon="149.3751754">
  <ele>708.21</ele>
  <time>2026-09-01T19:55:51Z</time>
  <course>93.41</course>
  <speed>0.0282842712474619</speed>
  <fix>3d</fix>
</trkpt>
<trkpt lat="-35.1012209" lon="149.3751756">
  <ele>708.22</ele>
  <time>2026-09-01T19:55:51Z</time>
  <course>271.56</course>
  <speed>0.0</speed>
  <fix>3d</fix>
</trkpt>
<trkpt lat="-35.101221" lon="149.3751754">
  <ele>708.22</ele>
  <time>2026-09-01T19:55:51Z</time>
  <course>93.41</course>
  <speed>0.0282842712474619</speed>
  <fix>3d</fix>
</trkpt>
<trkpt lat="-35.1012209" lon="149.3751756">
  <ele>708.22</ele>
  <time>2026-09-01T19:55:51Z</time>
  <course>271.56</course>
  <speed>0.0</speed>
  <fix>3d</fix>
</trkpt>
<trkpt lat="-35.101221" lon="149.3751754">
  <ele>708.22</ele>
  <time>2026-09-01T19:55:51Z</time>
  <course>93.41</course>
  <speed>0.0282842712474619</speed>
  <fix>3d</fix>
</trkpt>
<trkpt lat="-35.1012209" lon="149.3751756">
  <ele>708.22</ele>
  <time>2026-09-01T19:55:51Z</time>
  <course>271.56</course>
  <speed>0.0</speed>
  <fix>3d</fix>
</trkpt>
<trkpt lat="-35.101221" lon="149.3751754">
  <ele>708.22</ele>
  <time>2026-09-01T19:55:51Z</time>
  <course>93.41</course>
  <speed>0.0282842712474619</speed>
  <fix>3d</fix>
</trkpt>
<trkpt lat="-35.1012209" lon="149.3751756">
  <ele>708.22</ele>
  <time>2026-09-01T19:55:51Z</time>
  <course>271.56</course>
  <speed>0.0</speed>
  <fix>3d</fix>
</trkpt>
<trkpt lat="-35.101221" lon="149.3751754">
  <ele>708.22</ele>
  <time>2026-09-01T19:55:51Z</time>
  <course>93.41</course>
  <speed>0.0282842712474619</speed>
  <fix>3d</fix>
</trkpt>
<trkpt lat="-35.1012209" lon="149.3751756">
  <ele>708.22</ele>
  <time>2026-09-01T19:55:51Z</time>
  <course>271.56</course>
  <speed>0.0</speed>
  <fix>3d</fix>
</trkpt>
<trkpt lat="-35.101221" lon="149.3751754">
  <ele>708.22</ele>
  <time>2026-09-01T19:55:51Z</time>
  <course>93.41</course>
  <speed>0.0282842712474619</speed>
  <fix>3d</fix>
</trkpt>
<trkpt lat="-35.1012209" lon="149.3751756">
  <ele>708.22</ele>
  <time>2026-09-01T19:55:51Z</time>
  <course>271.56</course>
  <speed>0.0</speed>
  <fix>3d</fix>
</trkpt>
<trkpt lat="-35.101221" lon="149.3751754">
  <ele>708.22</ele>
  <time>2026-09-01T19:55:51Z</time>
  <course>93.41</course>
  <speed>0.0282842712474619</speed>
  <fix>3d</fix>
</trkpt>
<trkpt lat="-35.1012209" lon="149.3751756">
  <ele>708.22</ele>
  <time>2026-09-01T19:55:51Z</time>
  <course>271.56</course>
  <speed>0.0</speed>
  <fix>3d</fix>
</trkpt>
<trkpt lat="-35.101221" lon="149.3751754">
  <ele>708.22</ele>
  <time>2026-09-01T19:55:51Z</time>
  <course>93.41</course>
  <speed>0.0282842712474619</speed>
  <fix>3d</fix>
</trkpt>
<trkpt lat="-35.1012209" lon="149.3751756">
  <ele>708.22</ele>
  <time>2026-09-01T19:55:51Z</time>
  <course>271.56</course>
  <speed>0.0</speed>
  <fix>3d</fix>
</trkpt>
<trkpt lat="-35.101221" lon="149.3751754">
  <ele>708.23</ele>
  <time>2026-09-01T19:55:51Z</time>
  <course>93.41</course>
  <speed>0.0282842712474619</speed>
  <fix>3d</fix>
</trkpt>
<trkpt lat="-35.1012209" lon="149.3751756">
  <ele>708.22</ele>
  <time>2026-09-01T19:55:51Z</time>
  <course>271.56</course>
  <speed>0.0</speed>
  <fix>3d</fix>
</trkpt>
<trkpt lat="-35.101221" lon="149.3751754">
  <ele>708.23</ele>
  <time>2026-09-01T19:55:51Z</time>
  <course>93.41</course>
  <speed>0.0282842712474619</speed>
  <fix>3d</fix>
</trkpt>
<trkpt lat="-35.1012209" lon="149.3751756">
  <ele>708.22</ele>
  <time>2026-09-01T19:55:51Z</time>
  <course>271.56</course>
  <speed>0.0</speed>
  <fix>3d</fix>
</trkpt>
<trkpt lat="-35.101221" lon="149.3751754">
  <ele>708.23</ele>
  <time>2026-09-01T19:55:51Z</time>
  <course>93.4</course>
  <speed>0.0282842712474619</speed>
  <fix>3d</fix>
</trkpt>
<trkpt lat="-35.1012209" lon="149.3751756">
  <ele>708.22</ele>
  <time>2026-09-01T19:55:51Z</time>
  <course>271.56</course>
  <speed>0.0</speed>
  <fix>3d</fix>
</trkpt>
<trkpt lat="-35.101221" lon="149.3751754">
  <ele>708.23</ele>
  <time>2026-09-01T19:55:51Z</time>
  <course>93.41</course>
  <speed>0.0282842712474619</speed>
  <fix>3d</fix>
</trkpt>
<trkpt lat="-35.1012209" lon="149.3751756">
  <ele>708.22</ele>
  <time>2026-09-01T19:55:51Z</time>
  <course>271.56</course>
  <speed>0.0</speed>
  <fix>3d</fix>
</trkpt>
<trkpt lat="-35.101221" lon="149.3751754">
  <ele>708.22</ele>
  <time>2026-09-01T19:55:51Z</time>
  <course>93.4</course>
  <speed>0.0282842712474619</speed>
  <fix>3d</fix>
</trkpt>
<trkpt lat="-35.1012209" lon="149.3751756">
  <ele>708.22</ele>
  <time>2026-09-01T19:55:51Z</time>
  <course>271.56</course>
  <speed>0.0</speed>
  <fix>3d</fix>
</trkpt>
<trkpt lat="-35.101221" lon="149.3751754">
  <ele>708.22</ele>
  <time>2026-09-01T19:55:51Z</time>
  <course>93.4</course>
  <speed>0.0282842712474619</speed>
  <fix>3d</fix>
</trkpt>
<trkpt lat="-35.1012209" lon="149.3751756">
  <ele>708.22</ele>
  <time>2026-09-01T19:55:51Z</time>
  <course>271.56</course>
  <speed>0.0</speed>
  <fix>3d</fix>
</trkpt>
<trkpt lat="-35.101221" lon="149.3751754">
  <ele>708.22</ele>
  <time>2026-09-01T19:55:51Z</time>
  <course>93.4</course>
  <speed>0.0282842712474619</speed>
  <fix>3d</fix>
</trkpt>
<trkpt lat="-35.1012209" lon="149.3751756">
  <ele>708.22</ele>
  <time>2026-09-01T19:55:51Z</time>
  <course>271.56</course>
  <speed>0.0</speed>
  <fix>3d</fix>
</trkpt>
<trkpt lat="-35.101221" lon="149.3751754">
  <ele>708.22</ele>
  <time>2026-09-01T19:55:51Z</time>
  <course>93.4</course>
  <speed>0.0282842712474619</speed>
  <fix>3d</fix>
</trkpt>
<trkpt lat="-35.1012209" lon="149.3751756">
  <ele>708.22</ele>
  <time>2026-09-01T19:55:51Z</time>
  <course>271.56</course>
  <speed>0.0</speed>
  <fix>3d</fix>
</trkpt>
<trkpt lat="-35.101221" lon="149.3751754">
  <ele>708.21</ele>
  <time>2026-09-01T19:55:51Z</time>
  <course>93.4</course>
  <speed>0.0282842712474619</speed>
  <fix>3d</fix>
</trkpt>
<trkpt lat="-35.1012209" lon="149.3751756">
  <ele>708.22</ele>
  <time>2026-09-01T19:55:51Z</time>
  <course>271.56</course>
  <speed>0.0</speed>
  <fix>3d</fix>
</trkpt>
<trkpt lat="-35.101221" lon="149.3751754">
  <ele>708.21</ele>
  <time>2026-09-01T19:55:51Z</time>
  <course>93.4</course>
  <speed>0.0282842712474619</speed>
  <fix>3d</fix>
</trkpt>
<trkpt lat="-35.1012209" lon="149.3751756">
  <ele>708.22</ele>
  <time>2026-09-01T19:55:51Z</time>
  <course>271.56</course>
  <speed>0.0</speed>
  <fix>3d</fix>
</trkpt>
<trkpt lat="-35.101221" lon="149.3751754">
  <ele>708.21</ele>
  <time>2026-09-01T19:55:51Z</time>
  <course>93.4</course>
  <speed>0.0282842712474619</speed>
  <fix>3d</fix>
</trkpt>
<trkpt lat="-35.1012209" lon="149.3751756">
  <ele>708.22</ele>
  <time>2026-09-01T19:55:51Z</time>
  <course>271.56</course>
  <speed>0.0</speed>
  <fix>3d</fix>
</trkpt>
<trkpt lat="-35.101221" lon="149.3751754">
  <ele>708.21</ele>
  <time>2026-09-01T19:55:51Z</time>
  <course>93.4</course>
  <speed>0.0282842712474619</speed>
  <fix>3d</fix>
</trkpt>
<trkpt lat="-35.1012209" lon="149.3751756">
  <ele>708.22</ele>
  <time>2026-09-01T19:55:51Z</time>
  <course>271.56</course>
  <speed>0.0</speed>
  <fix>3d</fix>
</trkpt>
<trkpt lat="-35.101221" lon="149.3751754">
  <ele>708.21</ele>
  <time>2026-09-01T19:55:51Z</time>
  <course>93.4</course>
  <speed>0.0282842712474619</speed>
  <fix>3d</fix>
</trkpt>
<trkpt lat="-35.1012209" lon="149.3751756">
  <ele>708.22</ele>
  <time>2026-09-01T19:55:51Z</time>
  <course>271.56</course>
  <speed>0.0</speed>
  <fix>3d</fix>
</trkpt>
<trkpt lat="-35.101221" lon="149.3751754">
  <ele>708.21</ele>
  <time>2026-09-01T19:55:51Z</time>
  <course>93.4</course>
  <speed>0.0282842712474619</speed>
  <fix>3d</fix>
</trkpt>
<trkpt lat="-35.1012209" lon="149.3751756">
  <ele>708.22</ele>
  <time>2026-09-01T19:55:51Z</time>
  <course>271.56</course>
  <speed>0.0</speed>
  <fix>3d</fix>
</trkpt>
<trkpt lat="-35.101221" lon="149.3751754">
  <ele>708.2</ele>
  <time>2026-09-01T19:55:51Z</time>
  <course>93.4</course>
  <speed>0.0282842712474619</speed>
  <fix>3d</fix>
</trkpt>
<trkpt lat="-35.1012209" lon="149.3751756">
  <ele>708.22</ele>
  <time>2026-09-01T19:55:51Z</time>
  <course>271.56</course>
  <speed>0.0</speed>
  <fix>3d</fix>
</trkpt>
<trkpt lat="-35.101221" lon="149.3751754">
  <ele>708.2</ele>
  <time>2026-09-01T19:55:51Z</time>
  <course>93.4</course>
  <speed>0.0282842712474619</speed>
  <fix>3d</fix>
</trkpt>
<trkpt lat="-35.1012209" lon="149.3751756">
  <ele>708.22</ele>
  <time>2026-09-01T19:55:51Z</time>
  <course>271.56</course>
  <speed>0.0</speed>
  <fix>3d</fix>
</trkpt>
<trkpt lat="-35.101221" lon="149.3751754">
  <ele>708.2</ele>
  <time>2026-09-01T19:55:51Z</time>
  <course>93.4</course>
  <speed>0.0282842712474619</speed>
  <fix>3d</fix>
</trkpt>
<trkpt lat="-35.1012209" lon="149.3751756">
  <ele>708.22</ele>
  <time>2026-09-01T19:55:51Z</time>
  <course>271.56</course>
  <speed>0.0</speed>
  <fix>3d</fix>
</trkpt>
<trkpt lat="-35.101221" lon="149.3751754">
  <ele>708.19</ele>
  <time>2026-09-01T19:55:51Z</time>
  <course>93.4</course>
  <speed>0.0282842712474619</speed>
  <fix>3d</fix>
</trkpt>
<trkpt lat="-35.1012209" lon="149.3751756">
  <ele>708.22</ele>
  <time>2026-09-01T19:55:51Z</time>
  <course>271.56</course>
  <speed>0.0</speed>
  <fix>3d</fix>
</trkpt>
<trkpt lat="-35.101221" lon="149.3751754">
  <ele>708.19</ele>
  <time>2026-09-01T19:55:51Z</time>
  <course>93.4</course>
  <speed>0.0282842712474619</speed>
  <fix>3d</fix>
</trkpt>
<trkpt lat="-35.1012209" lon="149.3751756">
  <ele>708.22</ele>
  <time>2026-09-01T19:55:51Z</time>
  <course>271.56</course>
  <speed>0.0</speed>
  <fix>3d</fix>
</trkpt>
<trkpt lat="-35.101221" lon="149.3751754">
  <ele>708.19</ele>
  <time>2026-09-01T19:55:51Z</time>
  <course>93.4</course>
  <speed>0.0282842712474619</speed>
  <fix>3d</fix>
</trkpt>
<trkpt lat="-35.1012209" lon="149.3751756">
  <ele>708.22</ele>
  <time>2026-09-01T19:55:51Z</time>
  <course>271.56</course>
  <speed>0.0</speed>
  <fix>3d</fix>
</trkpt>
<trkpt lat="-35.101221" lon="149.3751754">
  <ele>708.19</ele>
  <time>2026-09-01T19:55:52Z</time>
  <course>93.4</course>
  <speed>0.0282842712474619</speed>
  <fix>3d</fix>
</trkpt>
<trkpt lat="-35.1012209" lon="149.3751756">
  <ele>708.22</ele>
  <time>2026-09-01T19:55:52Z</time>
  <course>271.56</course>
  <speed>0.0</speed>
  <fix>3d</fix>
</trkpt>
<trkpt lat="-35.101221" lon="149.3751754">
  <ele>708.19</ele>
  <time>2026-09-01T19:55:52Z</time>
  <course>93.4</course>
  <speed>0.0282842712474619</speed>
  <fix>3d</fix>
</trkpt>
<trkpt lat="-35.1012209" lon="149.3751756">
  <ele>708.22</ele>
  <time>2026-09-01T19:55:52Z</time>
  <course>271.56</course>
  <speed>0.0</speed>
  <fix>3d</fix>
</trkpt>
<trkpt lat="-35.101221" lon="149.3751754">
  <ele>708.19</ele>
  <time>2026-09-01T19:55:52Z</time>
  <course>93.4</course>
  <speed>0.0282842712474619</speed>
  <fix>3d</fix>
</trkpt>
<trkpt lat="-35.1012209" lon="149.3751756">
  <ele>708.22</ele>
  <time>2026-09-01T19:55:52Z</time>
  <course>271.56</course>
  <speed>0.0</speed>
  <fix>3d</fix>
</trkpt>
<trkpt lat="-35.101221" lon="149.3751754">
  <ele>708.19</ele>
  <time>2026-09-01T19:55:52Z</time>
  <course>93.4</course>
  <speed>0.0282842712474619</speed>
  <fix>3d</fix>
</trkpt>
<trkpt lat="-35.1012209" lon="149.3751756">
  <ele>708.22</ele>
  <time>2026-09-01T19:55:52Z</time>
  <course>271.56</course>
  <speed>0.0</speed>
  <fix>3d</fix>
</trkpt>
<trkpt lat="-35.101221" lon="149.3751754">
  <ele>708.19</ele>
  <time>2026-09-01T19:55:52Z</time>
  <course>93.4</course>
  <speed>0.0282842712474619</speed>
  <fix>3d</fix>
</trkpt>
<trkpt lat="-35.1012209" lon="149.3751756">
  <ele>708.22</ele>
  <time>2026-09-01T19:55:52Z</time>
  <course>271.56</course>
  <speed>0.0</speed>
  <fix>3d</fix>
</trkpt>
<trkpt lat="-35.101221" lon="149.3751754">
  <ele>708.19</ele>
  <time>2026-09-01T19:55:52Z</time>
  <course>93.4</course>
  <speed>0.0282842712474619</speed>
  <fix>3d</fix>
</trkpt>
<trkpt lat="-35.1012209" lon="149.3751756">
  <ele>708.22</ele>
  <time>2026-09-01T19:55:52Z</time>
  <course>271.56</course>
  <speed>0.0</speed>
  <fix>3d</fix>
</trkpt>
<trkpt lat="-35.101221" lon="149.3751754">
  <ele>708.19</ele>
  <time>2026-09-01T19:55:52Z</time>
  <course>93.4</course>
  <speed>0.0282842712474619</speed>
  <fix>3d</fix>
</trkpt>
<trkpt lat="-35.1012209" lon="149.3751756">
  <ele>708.22</ele>
  <time>2026-09-01T19:55:52Z</time>
  <course>271.56</course>
  <speed>0.0</speed>
  <fix>3d</fix>
</trkpt>
<trkpt lat="-35.101221" lon="149.3751754">
  <ele>708.19</ele>
  <time>2026-09-01T19:55:52Z</time>
  <course>93.4</course>
  <speed>0.0282842712474619</speed>
  <fix>3d</fix>
</trkpt>
<trkpt lat="-35.1012209" lon="149.3751756">
  <ele>708.22</ele>
  <time>2026-09-01T19:55:52Z</time>
  <course>271.56</course>
  <speed>0.0</speed>
  <fix>3d</fix>
</trkpt>
<trkpt lat="-35.101221" lon="149.3751754">
  <ele>708.19</ele>
  <time>2026-09-01T19:55:52Z</time>
  <course>93.4</course>
  <speed>0.0282842712474619</speed>
  <fix>3d</fix>
</trkpt>
<trkpt lat="-35.1012209" lon="149.3751756">
  <ele>708.22</ele>
  <time>2026-09-01T19:55:52Z</time>
  <course>271.56</course>
  <speed>0.0</speed>
  <fix>3d</fix>
</trkpt>
<trkpt lat="-35.101221" lon="149.3751754">
  <ele>708.19</ele>
  <time>2026-09-01T19:55:52Z</time>
  <course>93.4</course>
  <speed>0.0282842712474619</speed>
  <fix>3d</fix>
</trkpt>
<trkpt lat="-35.1012209" lon="149.3751756">
  <ele>708.22</ele>
  <time>2026-09-01T19:55:52Z</time>
  <course>271.56</course>
  <speed>0.0</speed>
  <fix>3d</fix>
</trkpt>
<trkpt lat="-35.101221" lon="149.3751754">
  <ele>708.19</ele>
  <time>2026-09-01T19:55:52Z</time>
  <course>93.4</course>
  <speed>0.0282842712474619</speed>
  <fix>3d</fix>
</trkpt>
<trkpt lat="-35.1012209" lon="149.3751756">
  <ele>708.22</ele>
  <time>2026-09-01T19:55:52Z</time>
  <course>271.56</course>
  <speed>0.0</speed>
  <fix>3d</fix>
</trkpt>
<trkpt lat="-35.101221" lon="149.3751754">
  <ele>708.19</ele>
  <time>2026-09-01T19:55:52Z</time>
  <course>93.4</course>
  <speed>0.0282842712474619</speed>
  <fix>3d</fix>
</trkpt>
<trkpt lat="-35.1012209" lon="149.3751756">
  <ele>708.22</ele>
  <time>2026-09-01T19:55:52Z</time>
  <course>271.56</course>
  <speed>0.0</speed>
  <fix>3d</fix>
</trkpt>
<trkpt lat="-35.101221" lon="149.3751754">
  <ele>708.19</ele>
  <time>2026-09-01T19:55:52Z</time>
  <course>93.4</course>
  <speed>0.0282842712474619</speed>
  <fix>3d</fix>
</trkpt>
<trkpt lat="-35.1012209" lon="149.3751756">
  <ele>708.22</ele>
  <time>2026-09-01T19:55:52Z</time>
  <course>271.56</course>
  <speed>0.0</speed>
  <fix>3d</fix>
</trkpt>
<trkpt lat="-35.101221" lon="149.3751754">
  <ele>708.19</ele>
  <time>2026-09-01T19:55:52Z</time>
  <course>93.4</course>
  <speed>0.0282842712474619</speed>
  <fix>3d</fix>
</trkpt>
<trkpt lat="-35.1012209" lon="149.3751756">
  <ele>708.22</ele>
  <time>2026-09-01T19:55:52Z</time>
  <course>271.56</course>
  <speed>0.0</speed>
  <fix>3d</fix>
</trkpt>
<trkpt lat="-35.101221" lon="149.3751754">
  <ele>708.18</ele>
  <time>2026-09-01T19:55:52Z</time>
  <course>93.4</course>
  <speed>0.0282842712474619</speed>
  <fix>3d</fix>
</trkpt>
<trkpt lat="-35.1012209" lon="149.3751756">
  <ele>708.22</ele>
  <time>2026-09-01T19:55:52Z</time>
  <course>271.56</course>
  <speed>0.0</speed>
  <fix>3d</fix>
</trkpt>
<trkpt lat="-35.101221" lon="149.3751754">
  <ele>708.18</ele>
  <time>2026-09-01T19:55:52Z</time>
  <course>93.4</course>
  <speed>0.0282842712474619</speed>
  <fix>3d</fix>
</trkpt>
<trkpt lat="-35.1012209" lon="149.3751756">
  <ele>708.22</ele>
  <time>2026-09-01T19:55:52Z</time>
  <course>271.56</course>
  <speed>0.0</speed>
  <fix>3d</fix>
</trkpt>
<trkpt lat="-35.101221" lon="149.3751754">
  <ele>708.18</ele>
  <time>2026-09-01T19:55:52Z</time>
  <course>93.4</course>
  <speed>0.0282842712474619</speed>
  <fix>3d</fix>
</trkpt>
<trkpt lat="-35.1012209" lon="149.3751756">
  <ele>708.22</ele>
  <time>2026-09-01T19:55:52Z</time>
  <course>271.56</course>
  <speed>0.0</speed>
  <fix>3d</fix>
</trkpt>
<trkpt lat="-35.101221" lon="149.3751754">
  <ele>708.18</ele>
  <time>2026-09-01T19:55:52Z</time>
  <course>93.4</course>
  <speed>0.0282842712474619</speed>
  <fix>3d</fix>
</trkpt>
<trkpt lat="-35.1012209" lon="149.3751756">
  <ele>708.22</ele>
  <time>2026-09-01T19:55:52Z</time>
  <course>271.56</course>
  <speed>0.0</speed>
  <fix>3d</fix>
</trkpt>
<trkpt lat="-35.101221" lon="149.3751754">
  <ele>708.18</ele>
  <time>2026-09-01T19:55:52Z</time>
  <course>93.4</course>
  <speed>0.0282842712474619</speed>
  <fix>3d</fix>
</trkpt>
<trkpt lat="-35.1012209" lon="149.3751756">
  <ele>708.22</ele>
  <time>2026-09-01T19:55:52Z</time>
  <course>271.56</course>
  <speed>0.0</speed>
  <fix>3d</fix>
</trkpt>
<trkpt lat="-35.101221" lon="149.3751754">
  <ele>708.18</ele>
  <time>2026-09-01T19:55:52Z</time>
  <course>93.4</course>
  <speed>0.0282842712474619</speed>
  <fix>3d</fix>
</trkpt>
<trkpt lat="-35.1012209" lon="149.3751756">
  <ele>708.22</ele>
  <time>2026-09-01T19:55:52Z</time>
  <course>271.56</course>
  <speed>0.0</speed>
  <fix>3d</fix>
</trkpt>
<trkpt lat="-35.101221" lon="149.3751754">
  <ele>708.18</ele>
  <time>2026-09-01T19:55:52Z</time>
  <course>93.4</course>
  <speed>0.0282842712474619</speed>
  <fix>3d</fix>
</trkpt>
<trkpt lat="-35.1012209" lon="149.3751756">
  <ele>708.22</ele>
  <time>2026-09-01T19:55:52Z</time>
  <course>271.56</course>
  <speed>0.0</speed>
  <fix>3d</fix>
</trkpt>
<trkpt lat="-35.101221" lon="149.3751754">
  <ele>708.21</ele>
  <time>2026-09-01T19:55:52Z</time>
  <course>93.4</course>
  <speed>0.0282842712474619</speed>
  <fix>3d</fix>
</trkpt>
<trkpt lat="-35.1012209" lon="149.3751756">
  <ele>708.22</ele>
  <time>2026-09-01T19:55:52Z</time>
  <course>271.56</course>
  <speed>0.0</speed>
  <fix>3d</fix>
</trkpt>
<trkpt lat="-35.101221" lon="149.3751754">
  <ele>708.21</ele>
  <time>2026-09-01T19:55:52Z</time>
  <course>93.4</course>
  <speed>0.0282842712474619</speed>
  <fix>3d</fix>
</trkpt>
<trkpt lat="-35.1012209" lon="149.3751756">
  <ele>708.22</ele>
  <time>2026-09-01T19:55:52Z</time>
  <course>271.56</course>
  <speed>0.0</speed>
  <fix>3d</fix>
</trkpt>
<trkpt lat="-35.101221" lon="149.3751754">
  <ele>708.21</ele>
  <time>2026-09-01T19:55:52Z</time>
  <course>93.4</course>
  <speed>0.0282842712474619</speed>
  <fix>3d</fix>
</trkpt>
<trkpt lat="-35.1012209" lon="149.3751756">
  <ele>708.22</ele>
  <time>2026-09-01T19:55:52Z</time>
  <course>271.56</course>
  <speed>0.0</speed>
  <fix>3d</fix>
</trkpt>
<trkpt lat="-35.101221" lon="149.3751754">
  <ele>708.21</ele>
  <time>2026-09-01T19:55:52Z</time>
  <course>93.4</course>
  <speed>0.0282842712474619</speed>
  <fix>3d</fix>
</trkpt>
<trkpt lat="-35.1012209" lon="149.3751756">
  <ele>708.22</ele>
  <time>2026-09-01T19:55:52Z</time>
  <course>271.56</course>
  <speed>0.0</speed>
  <fix>3d</fix>
</trkpt>
<trkpt lat="-35.101221" lon="149.3751754">
  <ele>708.22</ele>
  <time>2026-09-01T19:55:52Z</time>
  <course>93.4</course>
  <speed>0.0282842712474619</speed>
  <fix>3d</fix>
</trkpt>
<trkpt lat="-35.1012209" lon="149.3751756">
  <ele>708.22</ele>
  <time>2026-09-01T19:55:52Z</time>
  <course>271.56</course>
  <speed>0.0</speed>
  <fix>3d</fix>
</trkpt>
<trkpt lat="-35.101221" lon="149.3751754">
  <ele>708.22</ele>
  <time>2026-09-01T19:55:52Z</time>
  <course>93.4</course>
  <speed>0.0282842712474619</speed>
  <fix>3d</fix>
</trkpt>
<trkpt lat="-35.1012209" lon="149.3751756">
  <ele>708.22</ele>
  <time>2026-09-01T19:55:52Z</time>
  <course>271.56</course>
  <speed>0.0</speed>
  <fix>3d</fix>
</trkpt>
<trkpt lat="-35.101221" lon="149.3751754">
  <ele>708.23</ele>
  <time>2026-09-01T19:55:52Z</time>
  <course>93.4</course>
  <speed>0.0282842712474619</speed>
  <fix>3d</fix>
</trkpt>
<trkpt lat="-35.1012209" lon="149.3751756">
  <ele>708.22</ele>
  <time>2026-09-01T19:55:52Z</time>
  <course>271.56</course>
  <speed>0.0</speed>
  <fix>3d</fix>
</trkpt>
<trkpt lat="-35.101221" lon="149.3751754">
  <ele>708.23</ele>
  <time>2026-09-01T19:55:52Z</time>
  <course>93.4</course>
  <speed>0.0282842712474619</speed>
  <fix>3d</fix>
</trkpt>
<trkpt lat="-35.1012209" lon="149.3751756">
  <ele>708.22</ele>
  <time>2026-09-01T19:55:52Z</time>
  <course>271.56</course>
  <speed>0.0</speed>
  <fix>3d</fix>
</trkpt>
<trkpt lat="-35.101221" lon="149.3751754">
  <ele>708.24</ele>
  <time>2026-09-01T19:55:52Z</time>
  <course>93.39</course>
  <speed>0.0282842712474619</speed>
  <fix>3d</fix>
</trkpt>
<trkpt lat="-35.1012209" lon="149.3751756">
  <ele>708.22</ele>
  <time>2026-09-01T19:55:52Z</time>
  <course>271.56</course>
  <speed>0.0</speed>
  <fix>3d</fix>
</trkpt>
<trkpt lat="-35.101221" lon="149.3751754">
  <ele>708.24</ele>
  <time>2026-09-01T19:55:52Z</time>
  <course>93.39</course>
  <speed>0.0282842712474619</speed>
  <fix>3d</fix>
</trkpt>
<trkpt lat="-35.1012209" lon="149.3751756">
  <ele>708.22</ele>
  <time>2026-09-01T19:55:52Z</time>
  <course>271.56</course>
  <speed>0.0</speed>
  <fix>3d</fix>
</trkpt>
<trkpt lat="-35.101221" lon="149.3751754">
  <ele>708.24</ele>
  <time>2026-09-01T19:55:52Z</time>
  <course>93.39</course>
  <speed>0.0282842712474619</speed>
  <fix>3d</fix>
</trkpt>
<trkpt lat="-35.1012209" lon="149.3751756">
  <ele>708.22</ele>
  <time>2026-09-01T19:55:52Z</time>
  <course>271.56</course>
  <speed>0.0</speed>
  <fix>3d</fix>
</trkpt>
<trkpt lat="-35.101221" lon="149.3751754">
  <ele>708.24</ele>
  <time>2026-09-01T19:55:52Z</time>
  <course>93.39</course>
  <speed>0.0282842712474619</speed>
  <fix>3d</fix>
</trkpt>
<trkpt lat="-35.1012209" lon="149.3751756">
  <ele>708.22</ele>
  <time>2026-09-01T19:55:52Z</time>
  <course>271.56</course>
  <speed>0.0</speed>
  <fix>3d</fix>
</trkpt>
<trkpt lat="-35.101221" lon="149.3751754">
  <ele>708.24</ele>
  <time>2026-09-01T19:55:52Z</time>
  <course>93.39</course>
  <speed>0.0282842712474619</speed>
  <fix>3d</fix>
</trkpt>
<trkpt lat="-35.1012209" lon="149.3751756">
  <ele>708.22</ele>
  <time>2026-09-01T19:55:52Z</time>
  <course>271.56</course>
  <speed>0.0</speed>
  <fix>3d</fix>
</trkpt>
<trkpt lat="-35.101221" lon="149.3751754">
  <ele>708.25</ele>
  <time>2026-09-01T19:55:52Z</time>
  <course>93.39</course>
  <speed>0.0282842712474619</speed>
  <fix>3d</fix>
</trkpt>
<trkpt lat="-35.1012209" lon="149.3751756">
  <ele>708.22</ele>
  <time>2026-09-01T19:55:52Z</time>
  <course>271.56</course>
  <speed>0.0</speed>
  <fix>3d</fix>
</trkpt>
<trkpt lat="-35.101221" lon="149.3751754">
  <ele>708.25</ele>
  <time>2026-09-01T19:55:52Z</time>
  <course>93.39</course>
  <speed>0.0282842712474619</speed>
  <fix>3d</fix>
</trkpt>
<trkpt lat="-35.1012209" lon="149.3751756">
  <ele>708.22</ele>
  <time>2026-09-01T19:55:52Z</time>
  <course>271.56</course>
  <speed>0.0</speed>
  <fix>3d</fix>
</trkpt>
<trkpt lat="-35.101221" lon="149.3751754">
  <ele>708.25</ele>
  <time>2026-09-01T19:55:52Z</time>
  <course>93.39</course>
  <speed>0.0282842712474619</speed>
  <fix>3d</fix>
</trkpt>
<trkpt lat="-35.1012209" lon="149.3751756">
  <ele>708.22</ele>
  <time>2026-09-01T19:55:52Z</time>
  <course>271.56</course>
  <speed>0.0</speed>
  <fix>3d</fix>
</trkpt>
<trkpt lat="-35.101221" lon="149.3751754">
  <ele>708.25</ele>
  <time>2026-09-01T19:55:52Z</time>
  <course>93.39</course>
  <speed>0.0282842712474619</speed>
  <fix>3d</fix>
</trkpt>
<trkpt lat="-35.1012209" lon="149.3751756">
  <ele>708.22</ele>
  <time>2026-09-01T19:55:52Z</time>
  <course>271.56</course>
  <speed>0.0</speed>
  <fix>3d</fix>
</trkpt>
<trkpt lat="-35.101221" lon="149.3751754">
  <ele>708.26</ele>
  <time>2026-09-01T19:55:52Z</time>
  <course>93.39</course>
  <speed>0.0282842712474619</speed>
  <fix>3d</fix>
</trkpt>
<trkpt lat="-35.1012209" lon="149.3751756">
  <ele>708.22</ele>
  <time>2026-09-01T19:55:52Z</time>
  <course>271.56</course>
  <speed>0.0</speed>
  <fix>3d</fix>
</trkpt>
<trkpt lat="-35.101221" lon="149.3751754">
  <ele>708.26</ele>
  <time>2026-09-01T19:55:52Z</time>
  <course>93.39</course>
  <speed>0.0282842712474619</speed>
  <fix>3d</fix>
</trkpt>
<trkpt lat="-35.1012209" lon="149.3751756">
  <ele>708.22</ele>
  <time>2026-09-01T19:55:52Z</time>
  <course>271.56</course>
  <speed>0.0</speed>
  <fix>3d</fix>
</trkpt>
<trkpt lat="-35.101221" lon="149.3751754">
  <ele>708.26</ele>
  <time>2026-09-01T19:55:52Z</time>
  <course>93.39</course>
  <speed>0.0282842712474619</speed>
  <fix>3d</fix>
</trkpt>
<trkpt lat="-35.1012209" lon="149.3751756">
  <ele>708.22</ele>
  <time>2026-09-01T19:55:52Z</time>
  <course>271.56</course>
  <speed>0.0</speed>
  <fix>3d</fix>
</trkpt>
<trkpt lat="-35.101221" lon="149.3751754">
  <ele>708.27</ele>
  <time>2026-09-01T19:55:52Z</time>
  <course>93.39</course>
  <speed>0.0282842712474619</speed>
  <fix>3d</fix>
</trkpt>
<trkpt lat="-35.1012209" lon="149.3751756">
  <ele>708.22</ele>
  <time>2026-09-01T19:55:52Z</time>
  <course>271.56</course>
  <speed>0.0</speed>
  <fix>3d</fix>
</trkpt>
<trkpt lat="-35.101221" lon="149.3751754">
  <ele>708.27</ele>
  <time>2026-09-01T19:55:52Z</time>
  <course>93.39</course>
  <speed>0.0282842712474619</speed>
  <fix>3d</fix>
</trkpt>
<trkpt lat="-35.1012209" lon="149.3751756">
  <ele>708.22</ele>
  <time>2026-09-01T19:55:52Z</time>
  <course>271.56</course>
  <speed>0.0</speed>
  <fix>3d</fix>
</trkpt>
<trkpt lat="-35.101221" lon="149.3751754">
  <ele>708.27</ele>
  <time>2026-09-01T19:55:52Z</time>
  <course>93.39</course>
  <speed>0.0282842712474619</speed>
  <fix>3d</fix>
</trkpt>
<trkpt lat="-35.1012209" lon="149.3751756">
  <ele>708.22</ele>
  <time>2026-09-01T19:55:52Z</time>
  <course>271.56</course>
  <speed>0.0</speed>
  <fix>3d</fix>
</trkpt>
<trkpt lat="-35.101221" lon="149.3751754">
  <ele>708.28</ele>
  <time>2026-09-01T19:55:52Z</time>
  <course>93.39</course>
  <speed>0.0282842712474619</speed>
  <fix>3d</fix>
</trkpt>
<trkpt lat="-35.1012209" lon="149.3751756">
  <ele>708.22</ele>
  <time>2026-09-01T19:55:52Z</time>
  <course>271.56</course>
  <speed>0.0</speed>
  <fix>3d</fix>
</trkpt>
<trkpt lat="-35.101221" lon="149.3751754">
  <ele>708.28</ele>
  <time>2026-09-01T19:55:52Z</time>
  <course>93.39</course>
  <speed>0.0282842712474619</speed>
  <fix>3d</fix>
</trkpt>
<trkpt lat="-35.1012209" lon="149.3751756">
  <ele>708.22</ele>
  <time>2026-09-01T19:55:52Z</time>
  <course>271.56</course>
  <speed>0.0</speed>
  <fix>3d</fix>
</trkpt>
<trkpt lat="-35.101221" lon="149.3751754">
  <ele>708.29</ele>
  <time>2026-09-01T19:55:52Z</time>
  <course>93.39</course>
  <speed>0.0282842712474619</speed>
  <fix>3d</fix>
</trkpt>
<trkpt lat="-35.1012209" lon="149.3751756">
  <ele>708.22</ele>
  <time>2026-09-01T19:55:52Z</time>
  <course>271.56</course>
  <speed>0.0</speed>
  <fix>3d</fix>
</trkpt>
<trkpt lat="-35.101221" lon="149.3751754">
  <ele>708.29</ele>
  <time>2026-09-01T19:55:52Z</time>
  <course>93.39</course>
  <speed>0.0282842712474619</speed>
  <fix>3d</fix>
</trkpt>
<trkpt lat="-35.1012209" lon="149.3751756">
  <ele>708.22</ele>
  <time>2026-09-01T19:55:52Z</time>
  <course>271.56</course>
  <speed>0.0</speed>
  <fix>3d</fix>
</trkpt>
<trkpt lat="-35.101221" lon="149.3751754">
  <ele>708.3</ele>
  <time>2026-09-01T19:55:52Z</time>
  <course>93.39</course>
  <speed>0.0282842712474619</speed>
  <fix>3d</fix>
</trkpt>
<trkpt lat="-35.1012209" lon="149.3751756">
  <ele>708.22</ele>
  <time>2026-09-01T19:55:52Z</time>
  <course>271.56</course>
  <speed>0.0</speed>
  <fix>3d</fix>
</trkpt>
<trkpt lat="-35.101221" lon="149.3751754">
  <ele>708.3</ele>
  <time>2026-09-01T19:55:52Z</time>
  <course>93.39</course>
  <speed>0.0282842712474619</speed>
  <fix>3d</fix>
</trkpt>
<trkpt lat="-35.1012209" lon="149.3751756">
  <ele>708.22</ele>
  <time>2026-09-01T19:55:52Z</time>
  <course>271.56</course>
  <speed>0.0</speed>
  <fix>3d</fix>
</trkpt>
<trkpt lat="-35.101221" lon="149.3751754">
  <ele>708.3</ele>
  <time>2026-09-01T19:55:52Z</time>
  <course>93.39</course>
  <speed>0.0282842712474619</speed>
  <fix>3d</fix>
</trkpt>
<trkpt lat="-35.1012209" lon="149.3751756">
  <ele>708.22</ele>
  <time>2026-09-01T19:55:52Z</time>
  <course>271.56</course>
  <speed>0.0</speed>
  <fix>3d</fix>
</trkpt>
<trkpt lat="-35.101221" lon="149.3751754">
  <ele>708.3</ele>
  <time>2026-09-01T19:55:52Z</time>
  <course>93.39</course>
  <speed>0.0282842712474619</speed>
  <fix>3d</fix>
</trkpt>
<trkpt lat="-35.1012209" lon="149.3751756">
  <ele>708.22</ele>
  <time>2026-09-01T19:55:52Z</time>
  <course>271.56</course>
  <speed>0.0</speed>
  <fix>3d</fix>
</trkpt>
<trkpt lat="-35.101221" lon="149.3751754">
  <ele>708.3</ele>
  <time>2026-09-01T19:55:52Z</time>
  <course>93.39</course>
  <speed>0.0282842712474619</speed>
  <fix>3d</fix>
</trkpt>
<trkpt lat="-35.1012209" lon="149.3751756">
  <ele>708.22</ele>
  <time>2026-09-01T19:55:52Z</time>
  <course>271.56</course>
  <speed>0.0</speed>
  <fix>3d</fix>
</trkpt>
<trkpt lat="-35.101221" lon="149.3751754">
  <ele>708.3</ele>
  <time>2026-09-01T19:55:52Z</time>
  <course>93.39</course>
  <speed>0.0282842712474619</speed>
  <fix>3d</fix>
</trkpt>
<trkpt lat="-35.1012209" lon="149.3751756">
  <ele>708.22</ele>
  <time>2026-09-01T19:55:52Z</time>
  <course>271.56</course>
  <speed>0.0</speed>
  <fix>3d</fix>
</trkpt>
<trkpt lat="-35.101221" lon="149.3751754">
  <ele>708.3</ele>
  <time>2026-09-01T19:55:52Z</time>
  <course>93.39</course>
  <speed>0.0282842712474619</speed>
  <fix>3d</fix>
</trkpt>
<trkpt lat="-35.1012209" lon="149.3751756">
  <ele>708.22</ele>
  <time>2026-09-01T19:55:52Z</time>
  <course>271.56</course>
  <speed>0.0</speed>
  <fix>3d</fix>
</trkpt>
<trkpt lat="-35.101221" lon="149.3751754">
  <ele>708.3</ele>
  <time>2026-09-01T19:55:52Z</time>
  <course>93.39</course>
  <speed>0.0282842712474619</speed>
  <fix>3d</fix>
</trkpt>
<trkpt lat="-35.1012209" lon="149.3751756">
  <ele>708.22</ele>
  <time>2026-09-01T19:55:52Z</time>
  <course>271.56</course>
  <speed>0.0</speed>
  <fix>3d</fix>
</trkpt>
<trkpt lat="-35.101221" lon="149.3751754">
  <ele>708.3</ele>
  <time>2026-09-01T19:55:52Z</time>
  <course>93.39</course>
  <speed>0.0282842712474619</speed>
  <fix>3d</fix>
</trkpt>
<trkpt lat="-35.1012209" lon="149.3751756">
  <ele>708.22</ele>
  <time>2026-09-01T19:55:52Z</time>
  <course>271.56</course>
  <speed>0.0</speed>
  <fix>3d</fix>
</trkpt>
<trkpt lat="-35.101221" lon="149.3751754">
  <ele>708.3</ele>
  <time>2026-09-01T19:55:52Z</time>
  <course>93.39</course>
  <speed>0.0282842712474619</speed>
  <fix>3d</fix>
</trkpt>
<trkpt lat="-35.1012209" lon="149.3751756">
  <ele>708.22</ele>
  <time>2026-09-01T19:55:52Z</time>
  <course>271.56</course>
  <speed>0.0</speed>
  <fix>3d</fix>
</trkpt>
<trkpt lat="-35.101221" lon="149.3751754">
  <ele>708.3</ele>
  <time>2026-09-01T19:55:52Z</time>
  <course>93.39</course>
  <speed>0.0282842712474619</speed>
  <fix>3d</fix>
</trkpt>
<trkpt lat="-35.1012209" lon="149.3751756">
  <ele>708.22</ele>
  <time>2026-09-01T19:55:52Z</time>
  <course>271.56</course>
  <speed>0.0</speed>
  <fix>3d</fix>
</trkpt>
<trkpt lat="-35.101221" lon="149.3751754">
  <ele>708.3</ele>
  <time>2026-09-01T19:55:52Z</time>
  <course>93.39</course>
  <speed>0.0282842712474619</speed>
  <fix>3d</fix>
</trkpt>
<trkpt lat="-35.1012209" lon="149.3751756">
  <ele>708.22</ele>
  <time>2026-09-01T19:55:52Z</time>
  <course>271.56</course>
  <speed>0.0</speed>
  <fix>3d</fix>
</trkpt>
<trkpt lat="-35.101221" lon="149.3751754">
  <ele>708.3</ele>
  <time>2026-09-01T19:55:52Z</time>
  <course>93.39</course>
  <speed>0.0282842712474619</speed>
  <fix>3d</fix>
</trkpt>
<trkpt lat="-35.1012209" lon="149.3751756">
  <ele>708.22</ele>
  <time>2026-09-01T19:55:52Z</time>
  <course>271.56</course>
  <speed>0.0</speed>
  <fix>3d</fix>
</trkpt>
<trkpt lat="-35.101221" lon="149.3751754">
  <ele>708.31</ele>
  <time>2026-09-01T19:55:52Z</time>
  <course>93.39</course>
  <speed>0.0282842712474619</speed>
  <fix>3d</fix>
</trkpt>
<trkpt lat="-35.1012209" lon="149.3751756">
  <ele>708.22</ele>
  <time>2026-09-01T19:55:52Z</time>
  <course>271.56</course>
  <speed>0.0</speed>
  <fix>3d</fix>
</trkpt>
<trkpt lat="-35.101221" lon="149.3751754">
  <ele>708.31</ele>
  <time>2026-09-01T19:55:52Z</time>
  <course>93.39</course>
  <speed>0.0282842712474619</speed>
  <fix>3d</fix>
</trkpt>
<trkpt lat="-35.1012209" lon="149.3751756">
  <ele>708.22</ele>
  <time>2026-09-01T19:55:52Z</time>
  <course>271.56</course>
  <speed>0.0</speed>
  <fix>3d</fix>
</trkpt>
<trkpt lat="-35.101221" lon="149.3751754">
  <ele>708.31</ele>
  <time>2026-09-01T19:55:52Z</time>
  <course>93.39</course>
  <speed>0.0282842712474619</speed>
  <fix>3d</fix>
</trkpt>
<trkpt lat="-35.1012209" lon="149.3751756">
  <ele>708.22</ele>
  <time>2026-09-01T19:55:52Z</time>
  <course>271.56</course>
  <speed>0.0</speed>
  <fix>3d</fix>
</trkpt>
<trkpt lat="-35.101221" lon="149.3751754">
  <ele>708.31</ele>
  <time>2026-09-01T19:55:52Z</time>
  <course>93.39</course>
  <speed>0.0282842712474619</speed>
  <fix>3d</fix>
</trkpt>
<trkpt lat="-35.1012209" lon="149.3751756">
  <ele>708.22</ele>
  <time>2026-09-01T19:55:52Z</time>
  <course>271.56</course>
  <speed>0.0</speed>
  <fix>3d</fix>
</trkpt>
<trkpt lat="-35.101221" lon="149.3751754">
  <ele>708.32</ele>
  <time>2026-09-01T19:55:52Z</time>
  <course>93.39</course>
  <speed>0.0282842712474619</speed>
  <fix>3d</fix>
</trkpt>
<trkpt lat="-35.1012209" lon="149.3751756">
  <ele>708.22</ele>
  <time>2026-09-01T19:55:52Z</time>
  <course>271.56</course>
  <speed>0.0</speed>
  <fix>3d</fix>
</trkpt>
<trkpt lat="-35.101221" lon="149.3751754">
  <ele>708.32</ele>
  <time>2026-09-01T19:55:52Z</time>
  <course>93.39</course>
  <speed>0.0282842712474619</speed>
  <fix>3d</fix>
</trkpt>
<trkpt lat="-35.1012209" lon="149.3751756">
  <ele>708.22</ele>
  <time>2026-09-01T19:55:52Z</time>
  <course>271.56</course>
  <speed>0.0</speed>
  <fix>3d</fix>
</trkpt>
<trkpt lat="-35.101221" lon="149.3751754">
  <ele>708.32</ele>
  <time>2026-09-01T19:55:52Z</time>
  <course>93.39</course>
  <speed>0.0282842712474619</speed>
  <fix>3d</fix>
</trkpt>
<trkpt lat="-35.1012209" lon="149.3751756">
  <ele>708.22</ele>
  <time>2026-09-01T19:55:52Z</time>
  <course>271.56</course>
  <speed>0.0</speed>
  <fix>3d</fix>
</trkpt>
<trkpt lat="-35.101221" lon="149.3751754">
  <ele>708.32</ele>
  <time>2026-09-01T19:55:52Z</time>
  <course>93.39</course>
  <speed>0.0282842712474619</speed>
  <fix>3d</fix>
</trkpt>
<trkpt lat="-35.1012209" lon="149.3751756">
  <ele>708.22</ele>
  <time>2026-09-01T19:55:52Z</time>
  <course>271.56</course>
  <speed>0.0</speed>
  <fix>3d</fix>
</trkpt>
<trkpt lat="-35.101221" lon="149.3751754">
  <ele>708.32</ele>
  <time>2026-09-01T19:55:52Z</time>
  <course>93.39</course>
  <speed>0.0282842712474619</speed>
  <fix>3d</fix>
</trkpt>
<trkpt lat="-35.1012209" lon="149.3751756">
  <ele>708.22</ele>
  <time>2026-09-01T19:55:52Z</time>
  <course>271.56</course>
  <speed>0.0</speed>
  <fix>3d</fix>
</trkpt>
<trkpt lat="-35.101221" lon="149.3751754">
  <ele>708.33</ele>
  <time>2026-09-01T19:55:52Z</time>
  <course>93.39</course>
  <speed>0.0282842712474619</speed>
  <fix>3d</fix>
</trkpt>
<trkpt lat="-35.1012209" lon="149.3751756">
  <ele>708.22</ele>
  <time>2026-09-01T19:55:52Z</time>
  <course>271.56</course>
  <speed>0.0</speed>
  <fix>3d</fix>
</trkpt>
<trkpt lat="-35.101221" lon="149.3751754">
  <ele>708.33</ele>
  <time>2026-09-01T19:55:52Z</time>
  <course>93.39</course>
  <speed>0.0282842712474619</speed>
  <fix>3d</fix>
</trkpt>
<trkpt lat="-35.1012209" lon="149.3751756">
  <ele>708.22</ele>
  <time>2026-09-01T19:55:52Z</time>
  <course>271.56</course>
  <speed>0.0</speed>
  <fix>3d</fix>
</trkpt>
<trkpt lat="-35.101221" lon="149.3751754">
  <ele>708.33</ele>
  <time>2026-09-01T19:55:52Z</time>
  <course>93.39</course>
  <speed>0.0282842712474619</speed>
  <fix>3d</fix>
</trkpt>
<trkpt lat="-35.1012209" lon="149.3751756">
  <ele>708.22</ele>
  <time>2026-09-01T19:55:52Z</time>
  <course>271.56</course>
  <speed>0.0</speed>
  <fix>3d</fix>
</trkpt>
<trkpt lat="-35.101221" lon="149.3751754">
  <ele>708.33</ele>
  <time>2026-09-01T19:55:52Z</time>
  <course>93.39</course>
  <speed>0.0282842712474619</speed>
  <fix>3d</fix>
</trkpt>
<trkpt lat="-35.1012209" lon="149.3751756">
  <ele>708.22</ele>
  <time>2026-09-01T19:55:52Z</time>
  <course>271.56</course>
  <speed>0.0</speed>
  <fix>3d</fix>
</trkpt>
<trkpt lat="-35.101221" lon="149.3751754">
  <ele>708.33</ele>
  <time>2026-09-01T19:55:52Z</time>
  <course>93.39</course>
  <speed>0.0282842712474619</speed>
  <fix>3d</fix>
</trkpt>
<trkpt lat="-35.1012209" lon="149.3751756">
  <ele>708.22</ele>
  <time>2026-09-01T19:55:52Z</time>
  <course>271.56</course>
  <speed>0.0</speed>
  <fix>3d</fix>
</trkpt>
<trkpt lat="-35.101221" lon="149.3751754">
  <ele>708.33</ele>
  <time>2026-09-01T19:55:52Z</time>
  <course>93.38</course>
  <speed>0.0282842712474619</speed>
  <fix>3d</fix>
</trkpt>
<trkpt lat="-35.1012209" lon="149.3751756">
  <ele>708.22</ele>
  <time>2026-09-01T19:55:52Z</time>
  <course>271.56</course>
  <speed>0.0</speed>
  <fix>3d</fix>
</trkpt>
<trkpt lat="-35.101221" lon="149.3751754">
  <ele>708.33</ele>
  <time>2026-09-01T19:55:52Z</time>
  <course>93.38</course>
  <speed>0.0282842712474619</speed>
  <fix>3d</fix>
</trkpt>
<trkpt lat="-35.1012209" lon="149.3751756">
  <ele>708.22</ele>
  <time>2026-09-01T19:55:52Z</time>
  <course>271.56</course>
  <speed>0.0</speed>
  <fix>3d</fix>
</trkpt>
<trkpt lat="-35.101221" lon="149.3751754">
  <ele>708.33</ele>
  <time>2026-09-01T19:55:52Z</time>
  <course>93.38</course>
  <speed>0.0282842712474619</speed>
  <fix>3d</fix>
</trkpt>
<trkpt lat="-35.1012209" lon="149.3751756">
  <ele>708.22</ele>
  <time>2026-09-01T19:55:52Z</time>
  <course>271.56</course>
  <speed>0.0</speed>
  <fix>3d</fix>
</trkpt>
<trkpt lat="-35.101221" lon="149.3751754">
  <ele>708.33</ele>
  <time>2026-09-01T19:55:52Z</time>
  <course>93.38</course>
  <speed>0.0282842712474619</speed>
  <fix>3d</fix>
</trkpt>
<trkpt lat="-35.1012209" lon="149.3751756">
  <ele>708.22</ele>
  <time>2026-09-01T19:55:52Z</time>
  <course>271.56</course>
  <speed>0.0</speed>
  <fix>3d</fix>
</trkpt>
<trkpt lat="-35.101221" lon="149.3751754">
  <ele>708.33</ele>
  <time>2026-09-01T19:55:52Z</time>
  <course>93.38</course>
  <speed>0.0282842712474619</speed>
  <fix>3d</fix>
</trkpt>
<trkpt lat="-35.1012209" lon="149.3751756">
  <ele>708.22</ele>
  <time>2026-09-01T19:55:52Z</time>
  <course>271.56</course>
  <speed>0.0</speed>
  <fix>3d</fix>
</trkpt>
<trkpt lat="-35.101221" lon="149.3751754">
  <ele>708.34</ele>
  <time>2026-09-01T19:55:52Z</time>
  <course>93.38</course>
  <speed>0.0282842712474619</speed>
  <fix>3d</fix>
</trkpt>
<trkpt lat="-35.1012209" lon="149.3751756">
  <ele>708.22</ele>
  <time>2026-09-01T19:55:52Z</time>
  <course>271.56</course>
  <speed>0.0</speed>
  <fix>3d</fix>
</trkpt>
<trkpt lat="-35.101221" lon="149.3751754">
  <ele>708.22</ele>
  <time>2026-09-01T19:55:52Z</time>
  <course>93.38</course>
  <speed>0.0282842712474619</speed>
  <fix>3d</fix>
</trkpt>
<trkpt lat="-35.1012209" lon="149.3751756">
  <ele>708.22</ele>
  <time>2026-09-01T19:55:52Z</time>
  <course>271.56</course>
  <speed>0.0</speed>
  <fix>3d</fix>
</trkpt>
<trkpt lat="-35.101221" lon="149.3751754">
  <ele>708.22</ele>
  <time>2026-09-01T19:55:52Z</time>
  <course>93.38</course>
  <speed>0.0282842712474619</speed>
  <fix>3d</fix>
</trkpt>
<trkpt lat="-35.1012209" lon="149.3751756">
  <ele>708.22</ele>
  <time>2026-09-01T19:55:52Z</time>
  <course>271.56</course>
  <speed>0.0</speed>
  <fix>3d</fix>
</trkpt>
<trkpt lat="-35.101221" lon="149.3751754">
  <ele>708.22</ele>
  <time>2026-09-01T19:55:52Z</time>
  <course>93.38</course>
  <speed>0.0282842712474619</speed>
  <fix>3d</fix>
</trkpt>
<trkpt lat="-35.1012209" lon="149.3751756">
  <ele>708.22</ele>
  <time>2026-09-01T19:55:52Z</time>
  <course>271.56</course>
  <speed>0.0</speed>
  <fix>3d</fix>
</trkpt>
<trkpt lat="-35.101221" lon="149.3751754">
  <ele>708.22</ele>
  <time>2026-09-01T19:55:52Z</time>
  <course>93.38</course>
  <speed>0.0282842712474619</speed>
  <fix>3d</fix>
</trkpt>
<trkpt lat="-35.1012209" lon="149.3751756">
  <ele>708.22</ele>
  <time>2026-09-01T19:55:52Z</time>
  <course>271.56</course>
  <speed>0.0</speed>
  <fix>3d</fix>
</trkpt>
<trkpt lat="-35.101221" lon="149.3751754">
  <ele>708.22</ele>
  <time>2026-09-01T19:55:52Z</time>
  <course>93.38</course>
  <speed>0.0282842712474619</speed>
  <fix>3d</fix>
</trkpt>
<trkpt lat="-35.1012209" lon="149.3751756">
  <ele>708.22</ele>
  <time>2026-09-01T19:55:52Z</time>
  <course>271.56</course>
  <speed>0.0</speed>
  <fix>3d</fix>
</trkpt>
<trkpt lat="-35.101221" lon="149.3751754">
  <ele>708.22</ele>
  <time>2026-09-01T19:55:52Z</time>
  <course>93.38</course>
  <speed>0.0282842712474619</speed>
  <fix>3d</fix>
</trkpt>
<trkpt lat="-35.1012209" lon="149.3751756">
  <ele>708.22</ele>
  <time>2026-09-01T19:55:52Z</time>
  <course>271.56</course>
  <speed>0.0</speed>
  <fix>3d</fix>
</trkpt>
<trkpt lat="-35.101221" lon="149.3751754">
  <ele>708.22</ele>
  <time>2026-09-01T19:55:52Z</time>
  <course>93.38</course>
  <speed>0.0282842712474619</speed>
  <fix>3d</fix>
</trkpt>
<trkpt lat="-35.1012209" lon="149.3751756">
  <ele>708.22</ele>
  <time>2026-09-01T19:55:52Z</time>
  <course>271.56</course>
  <speed>0.0</speed>
  <fix>3d</fix>
</trkpt>
<trkpt lat="-35.101221" lon="149.3751754">
  <ele>708.22</ele>
  <time>2026-09-01T19:55:52Z</time>
  <course>93.38</course>
  <speed>0.0282842712474619</speed>
  <fix>3d</fix>
</trkpt>
<trkpt lat="-35.1012209" lon="149.3751756">
  <ele>708.22</ele>
  <time>2026-09-01T19:55:52Z</time>
  <course>271.56</course>
  <speed>0.0</speed>
  <fix>3d</fix>
</trkpt>
<trkpt lat="-35.101221" lon="149.3751754">
  <ele>708.22</ele>
  <time>2026-09-01T19:55:52Z</time>
  <course>93.38</course>
  <speed>0.0282842712474619</speed>
  <fix>3d</fix>
</trkpt>
<trkpt lat="-35.1012209" lon="149.3751756">
  <ele>708.22</ele>
  <time>2026-09-01T19:55:52Z</time>
  <course>271.56</course>
  <speed>0.0</speed>
  <fix>3d</fix>
</trkpt>
<trkpt lat="-35.101221" lon="149.3751754">
  <ele>708.22</ele>
  <time>2026-09-01T19:55:52Z</time>
  <course>93.38</course>
  <speed>0.0282842712474619</speed>
  <fix>3d</fix>
</trkpt>
<trkpt lat="-35.1012209" lon="149.3751756">
  <ele>708.22</ele>
  <time>2026-09-01T19:55:52Z</time>
  <course>271.56</course>
  <speed>0.0</speed>
  <fix>3d</fix>
</trkpt>
<trkpt lat="-35.101221" lon="149.3751754">
  <ele>708.22</ele>
  <time>2026-09-01T19:55:52Z</time>
  <course>93.38</course>
  <speed>0.0282842712474619</speed>
  <fix>3d</fix>
</trkpt>
<trkpt lat="-35.1012209" lon="149.3751756">
  <ele>708.22</ele>
  <time>2026-09-01T19:55:52Z</time>
  <course>271.56</course>
  <speed>0.0</speed>
  <fix>3d</fix>
</trkpt>
<trkpt lat="-35.101221" lon="149.3751754">
  <ele>708.22</ele>
  <time>2026-09-01T19:55:52Z</time>
  <course>93.38</course>
  <speed>0.0282842712474619</speed>
  <fix>3d</fix>
</trkpt>
<trkpt lat="-35.1012209" lon="149.3751756">
  <ele>708.22</ele>
  <time>2026-09-01T19:55:52Z</time>
  <course>271.56</course>
  <speed>0.0</speed>
  <fix>3d</fix>
</trkpt>
<trkpt lat="-35.101221" lon="149.3751754">
  <ele>708.22</ele>
  <time>2026-09-01T19:55:52Z</time>
  <course>93.38</course>
  <speed>0.0282842712474619</speed>
  <fix>3d</fix>
</trkpt>
<trkpt lat="-35.1012209" lon="149.3751756">
  <ele>708.22</ele>
  <time>2026-09-01T19:55:52Z</time>
  <course>271.56</course>
  <speed>0.0</speed>
  <fix>3d</fix>
</trkpt>
<trkpt lat="-35.101221" lon="149.3751754">
  <ele>708.22</ele>
  <time>2026-09-01T19:55:52Z</time>
  <course>93.38</course>
  <speed>0.0282842712474619</speed>
  <fix>3d</fix>
</trkpt>
<trkpt lat="-35.1012209" lon="149.3751756">
  <ele>708.22</ele>
  <time>2026-09-01T19:55:52Z</time>
  <course>271.56</course>
  <speed>0.0</speed>
  <fix>3d</fix>
</trkpt>
<trkpt lat="-35.101221" lon="149.3751754">
  <ele>708.22</ele>
  <time>2026-09-01T19:55:52Z</time>
  <course>93.38</course>
  <speed>0.0282842712474619</speed>
  <fix>3d</fix>
</trkpt>
<trkpt lat="-35.1012209" lon="149.3751756">
  <ele>708.22</ele>
  <time>2026-09-01T19:55:52Z</time>
  <course>271.56</course>
  <speed>0.0</speed>
  <fix>3d</fix>
</trkpt>
<trkpt lat="-35.101221" lon="149.3751754">
  <ele>708.22</ele>
  <time>2026-09-01T19:55:52Z</time>
  <course>93.38</course>
  <speed>0.0282842712474619</speed>
  <fix>3d</fix>
</trkpt>
<trkpt lat="-35.1012209" lon="149.3751756">
  <ele>708.22</ele>
  <time>2026-09-01T19:55:52Z</time>
  <course>271.56</course>
  <speed>0.0</speed>
  <fix>3d</fix>
</trkpt>
<trkpt lat="-35.101221" lon="149.3751754">
  <ele>708.22</ele>
  <time>2026-09-01T19:55:52Z</time>
  <course>93.38</course>
  <speed>0.0282842712474619</speed>
  <fix>3d</fix>
</trkpt>
<trkpt lat="-35.1012209" lon="149.3751756">
  <ele>708.22</ele>
  <time>2026-09-01T19:55:52Z</time>
  <course>271.56</course>
  <speed>0.0</speed>
  <fix>3d</fix>
</trkpt>
<trkpt lat="-35.101221" lon="149.3751754">
  <ele>708.23</ele>
  <time>2026-09-01T19:55:52Z</time>
  <course>93.38</course>
  <speed>0.0282842712474619</speed>
  <fix>3d</fix>
</trkpt>
<trkpt lat="-35.1012209" lon="149.3751756">
  <ele>708.22</ele>
  <time>2026-09-01T19:55:52Z</time>
  <course>271.56</course>
  <speed>0.0</speed>
  <fix>3d</fix>
</trkpt>
<trkpt lat="-35.101221" lon="149.3751754">
  <ele>708.23</ele>
  <time>2026-09-01T19:55:52Z</time>
  <course>93.38</course>
  <speed>0.0282842712474619</speed>
  <fix>3d</fix>
</trkpt>
<trkpt lat="-35.1012209" lon="149.3751756">
  <ele>708.22</ele>
  <time>2026-09-01T19:55:52Z</time>
  <course>271.56</course>
  <speed>0.0</speed>
  <fix>3d</fix>
</trkpt>
<trkpt lat="-35.101221" lon="149.3751754">
  <ele>708.23</ele>
  <time>2026-09-01T19:55:52Z</time>
  <course>93.38</course>
  <speed>0.0282842712474619</speed>
  <fix>3d</fix>
</trkpt>
<trkpt lat="-35.1012209" lon="149.3751756">
  <ele>708.22</ele>
  <time>2026-09-01T19:55:52Z</time>
  <course>271.56</course>
  <speed>0.0</speed>
  <fix>3d</fix>
</trkpt>
<trkpt lat="-35.101221" lon="149.3751754">
  <ele>708.22</ele>
  <time>2026-09-01T19:55:52Z</time>
  <course>93.38</course>
  <speed>0.0282842712474619</speed>
  <fix>3d</fix>
</trkpt>
<trkpt lat="-35.1012209" lon="149.3751756">
  <ele>708.22</ele>
  <time>2026-09-01T19:55:52Z</time>
  <course>271.56</course>
  <speed>0.0</speed>
  <fix>3d</fix>
</trkpt>
<trkpt lat="-35.101221" lon="149.3751754">
  <ele>708.22</ele>
  <time>2026-09-01T19:55:52Z</time>
  <course>93.38</course>
  <speed>0.0282842712474619</speed>
  <fix>3d</fix>
</trkpt>
<trkpt lat="-35.1012209" lon="149.3751756">
  <ele>708.22</ele>
  <time>2026-09-01T19:55:52Z</time>
  <course>271.56</course>
  <speed>0.0</speed>
  <fix>3d</fix>
</trkpt>
<trkpt lat="-35.101221" lon="149.3751754">
  <ele>708.22</ele>
  <time>2026-09-01T19:55:52Z</time>
  <course>93.38</course>
  <speed>0.0282842712474619</speed>
  <fix>3d</fix>
</trkpt>
<trkpt lat="-35.1012209" lon="149.3751756">
  <ele>708.22</ele>
  <time>2026-09-01T19:55:52Z</time>
  <course>271.56</course>
  <speed>0.0</speed>
  <fix>3d</fix>
</trkpt>
<trkpt lat="-35.101221" lon="149.3751754">
  <ele>708.22</ele>
  <time>2026-09-01T19:55:52Z</time>
  <course>93.38</course>
  <speed>0.0282842712474619</speed>
  <fix>3d</fix>
</trkpt>
<trkpt lat="-35.1012209" lon="149.3751756">
  <ele>708.22</ele>
  <time>2026-09-01T19:55:52Z</time>
  <course>271.56</course>
  <speed>0.0</speed>
  <fix>3d</fix>
</trkpt>
<trkpt lat="-35.101221" lon="149.3751754">
  <ele>708.22</ele>
  <time>2026-09-01T19:55:52Z</time>
  <course>93.38</course>
  <speed>0.0282842712474619</speed>
  <fix>3d</fix>
</trkpt>
<trkpt lat="-35.1012209" lon="149.3751756">
  <ele>708.22</ele>
  <time>2026-09-01T19:55:52Z</time>
  <course>271.56</course>
  <speed>0.0</speed>
  <fix>3d</fix>
</trkpt>
<trkpt lat="-35.101221" lon="149.3751754">
  <ele>708.22</ele>
  <time>2026-09-01T19:55:52Z</time>
  <course>93.38</course>
  <speed>0.0282842712474619</speed>
  <fix>3d</fix>
</trkpt>
<trkpt lat="-35.1012209" lon="149.3751756">
  <ele>708.22</ele>
  <time>2026-09-01T19:55:52Z</time>
  <course>271.56</course>
  <speed>0.0</speed>
  <fix>3d</fix>
</trkpt>
<trkpt lat="-35.101221" lon="149.3751754">
  <ele>708.22</ele>
  <time>2026-09-01T19:55:52Z</time>
  <course>93.38</course>
  <speed>0.0282842712474619</speed>
  <fix>3d</fix>
</trkpt>
<trkpt lat="-35.1012209" lon="149.3751756">
  <ele>708.22</ele>
  <time>2026-09-01T19:55:52Z</time>
  <course>271.56</course>
  <speed>0.0</speed>
  <fix>3d</fix>
</trkpt>
<trkpt lat="-35.101221" lon="149.3751754">
  <ele>708.22</ele>
  <time>2026-09-01T19:55:52Z</time>
  <course>93.38</course>
  <speed>0.0282842712474619</speed>
  <fix>3d</fix>
</trkpt>
<trkpt lat="-35.1012209" lon="149.3751756">
  <ele>708.22</ele>
  <time>2026-09-01T19:55:52Z</time>
  <course>271.56</course>
  <speed>0.0</speed>
  <fix>3d</fix>
</trkpt>
<trkpt lat="-35.101221" lon="149.3751754">
  <ele>708.22</ele>
  <time>2026-09-01T19:55:52Z</time>
  <course>93.38</course>
  <speed>0.0282842712474619</speed>
  <fix>3d</fix>
</trkpt>
<trkpt lat="-35.1012209" lon="149.3751756">
  <ele>708.22</ele>
  <time>2026-09-01T19:55:52Z</time>
  <course>271.56</course>
  <speed>0.0</speed>
  <fix>3d</fix>
</trkpt>
<trkpt lat="-35.101221" lon="149.3751754">
  <ele>708.22</ele>
  <time>2026-09-01T19:55:52Z</time>
  <course>93.38</course>
  <speed>0.0282842712474619</speed>
  <fix>3d</fix>
</trkpt>
<trkpt lat="-35.1012209" lon="149.3751756">
  <ele>708.22</ele>
  <time>2026-09-01T19:55:52Z</time>
  <course>271.56</course>
  <speed>0.0</speed>
  <fix>3d</fix>
</trkpt>
<trkpt lat="-35.101221" lon="149.3751754">
  <ele>708.22</ele>
  <time>2026-09-01T19:55:52Z</time>
  <course>93.38</course>
  <speed>0.0282842712474619</speed>
  <fix>3d</fix>
</trkpt>
<trkpt lat="-35.1012209" lon="149.3751756">
  <ele>708.22</ele>
  <time>2026-09-01T19:55:52Z</time>
  <course>271.56</course>
  <speed>0.0</speed>
  <fix>3d</fix>
</trkpt>
<trkpt lat="-35.101221" lon="149.3751754">
  <ele>708.22</ele>
  <time>2026-09-01T19:55:52Z</time>
  <course>93.38</course>
  <speed>0.0282842712474619</speed>
  <fix>3d</fix>
</trkpt>
<trkpt lat="-35.1012209" lon="149.3751756">
  <ele>708.22</ele>
  <time>2026-09-01T19:55:52Z</time>
  <course>271.56</course>
  <speed>0.0</speed>
  <fix>3d</fix>
</trkpt>
<trkpt lat="-35.101221" lon="149.3751754">
  <ele>708.22</ele>
  <time>2026-09-01T19:55:52Z</time>
  <course>93.38</course>
  <speed>0.0282842712474619</speed>
  <fix>3d</fix>
</trkpt>
<trkpt lat="-35.1012209" lon="149.3751756">
  <ele>708.22</ele>
  <time>2026-09-01T19:55:52Z</time>
  <course>271.56</course>
  <speed>0.0</speed>
  <fix>3d</fix>
</trkpt>
<trkpt lat="-35.101221" lon="149.3751754">
  <ele>708.22</ele>
  <time>2026-09-01T19:55:52Z</time>
  <course>93.38</course>
  <speed>0.0282842712474619</speed>
  <fix>3d</fix>
</trkpt>
<trkpt lat="-35.1012209" lon="149.3751756">
  <ele>708.22</ele>
  <time>2026-09-01T19:55:52Z</time>
  <course>271.56</course>
  <speed>0.0</speed>
  <fix>3d</fix>
</trkpt>
<trkpt lat="-35.101221" lon="149.3751754">
  <ele>708.23</ele>
  <time>2026-09-01T19:55:52Z</time>
  <course>93.38</course>
  <speed>0.0282842712474619</speed>
  <fix>3d</fix>
</trkpt>
<trkpt lat="-35.1012209" lon="149.3751756">
  <ele>708.22</ele>
  <time>2026-09-01T19:55:52Z</time>
  <course>271.56</course>
  <speed>0.0</speed>
  <fix>3d</fix>
</trkpt>
<trkpt lat="-35.101221" lon="149.3751754">
  <ele>708.23</ele>
  <time>2026-09-01T19:55:52Z</time>
  <course>93.38</course>
  <speed>0.0282842712474619</speed>
  <fix>3d</fix>
</trkpt>
<trkpt lat="-35.1012209" lon="149.3751756">
  <ele>708.22</ele>
  <time>2026-09-01T19:55:52Z</time>
  <course>271.56</course>
  <speed>0.0</speed>
  <fix>3d</fix>
</trkpt>
<trkpt lat="-35.101221" lon="149.3751754">
  <ele>708.23</ele>
  <time>2026-09-01T19:55:52Z</time>
  <course>93.38</course>
  <speed>0.0282842712474619</speed>
  <fix>3d</fix>
</trkpt>
<trkpt lat="-35.1012209" lon="149.3751756">
  <ele>708.22</ele>
  <time>2026-09-01T19:55:52Z</time>
  <course>271.56</course>
  <speed>0.0</speed>
  <fix>3d</fix>
</trkpt>
<trkpt lat="-35.101221" lon="149.3751754">
  <ele>708.23</ele>
  <time>2026-09-01T19:55:52Z</time>
  <course>93.38</course>
  <speed>0.0282842712474619</speed>
  <fix>3d</fix>
</trkpt>
<trkpt lat="-35.1012209" lon="149.3751756">
  <ele>708.22</ele>
  <time>2026-09-01T19:55:52Z</time>
  <course>271.56</course>
  <speed>0.0</speed>
  <fix>3d</fix>
</trkpt>
<trkpt lat="-35.101221" lon="149.3751754">
  <ele>708.23</ele>
  <time>2026-09-01T19:55:52Z</time>
  <course>93.38</course>
  <speed>0.0282842712474619</speed>
  <fix>3d</fix>
</trkpt>
<trkpt lat="-35.1012209" lon="149.3751756">
  <ele>708.22</ele>
  <time>2026-09-01T19:55:52Z</time>
  <course>271.56</course>
  <speed>0.0</speed>
  <fix>3d</fix>
</trkpt>
<trkpt lat="-35.101221" lon="149.3751754">
  <ele>708.23</ele>
  <time>2026-09-01T19:55:52Z</time>
  <course>93.38</course>
  <speed>0.0282842712474619</speed>
  <fix>3d</fix>
</trkpt>
<trkpt lat="-35.1012209" lon="149.3751756">
  <ele>708.22</ele>
  <time>2026-09-01T19:55:52Z</time>
  <course>271.56</course>
  <speed>0.0</speed>
  <fix>3d</fix>
</trkpt>
<trkpt lat="-35.101221" lon="149.3751754">
  <ele>708.23</ele>
  <time>2026-09-01T19:55:52Z</time>
  <course>93.38</course>
  <speed>0.0282842712474619</speed>
  <fix>3d</fix>
</trkpt>
<trkpt lat="-35.1012209" lon="149.3751756">
  <ele>708.22</ele>
  <time>2026-09-01T19:55:52Z</time>
  <course>271.56</course>
  <speed>0.0</speed>
  <fix>3d</fix>
</trkpt>
<trkpt lat="-35.101221" lon="149.3751754">
  <ele>708.23</ele>
  <time>2026-09-01T19:55:52Z</time>
  <course>93.38</course>
  <speed>0.0282842712474619</speed>
  <fix>3d</fix>
</trkpt>
<trkpt lat="-35.1012209" lon="149.3751756">
  <ele>708.22</ele>
  <time>2026-09-01T19:55:52Z</time>
  <course>271.56</course>
  <speed>0.0</speed>
  <fix>3d</fix>
</trkpt>
<trkpt lat="-35.101221" lon="149.3751754">
  <ele>708.24</ele>
  <time>2026-09-01T19:55:52Z</time>
  <course>93.38</course>
  <speed>0.0282842712474619</speed>
  <fix>3d</fix>
</trkpt>
<trkpt lat="-35.1012209" lon="149.3751756">
  <ele>708.22</ele>
  <time>2026-09-01T19:55:52Z</time>
  <course>271.56</course>
  <speed>0.0</speed>
  <fix>3d</fix>
</trkpt>
<trkpt lat="-35.101221" lon="149.3751754">
  <ele>708.24</ele>
  <time>2026-09-01T19:55:52Z</time>
  <course>93.37</course>
  <speed>0.0282842712474619</speed>
  <fix>3d</fix>
</trkpt>
<trkpt lat="-35.1012209" lon="149.3751756">
  <ele>708.22</ele>
  <time>2026-09-01T19:55:52Z</time>
  <course>271.56</course>
  <speed>0.0</speed>
  <fix>3d</fix>
</trkpt>
<trkpt lat="-35.101221" lon="149.3751754">
  <ele>708.24</ele>
  <time>2026-09-01T19:55:52Z</time>
  <course>93.37</course>
  <speed>0.0282842712474619</speed>
  <fix>3d</fix>
</trkpt>
<trkpt lat="-35.1012209" lon="149.3751756">
  <ele>708.22</ele>
  <time>2026-09-01T19:55:52Z</time>
  <course>271.56</course>
  <speed>0.0</speed>
  <fix>3d</fix>
</trkpt>
<trkpt lat="-35.101221" lon="149.3751754">
  <ele>708.24</ele>
  <time>2026-09-01T19:55:52Z</time>
  <course>93.37</course>
  <speed>0.0282842712474619</speed>
  <fix>3d</fix>
</trkpt>
<trkpt lat="-35.1012209" lon="149.3751756">
  <ele>708.22</ele>
  <time>2026-09-01T19:55:52Z</time>
  <course>271.56</course>
  <speed>0.0</speed>
  <fix>3d</fix>
</trkpt>
<trkpt lat="-35.101221" lon="149.3751754">
  <ele>708.24</ele>
  <time>2026-09-01T19:55:52Z</time>
  <course>93.37</course>
  <speed>0.0282842712474619</speed>
  <fix>3d</fix>
</trkpt>
<trkpt lat="-35.1012209" lon="149.3751756">
  <ele>708.22</ele>
  <time>2026-09-01T19:55:52Z</time>
  <course>271.56</course>
  <speed>0.0</speed>
  <fix>3d</fix>
</trkpt>
<trkpt lat="-35.101221" lon="149.3751754">
  <ele>708.24</ele>
  <time>2026-09-01T19:55:52Z</time>
  <course>93.37</course>
  <speed>0.0282842712474619</speed>
  <fix>3d</fix>
</trkpt>
<trkpt lat="-35.1012209" lon="149.3751756">
  <ele>708.22</ele>
  <time>2026-09-01T19:55:52Z</time>
  <course>271.56</course>
  <speed>0.0</speed>
  <fix>3d</fix>
</trkpt>
<trkpt lat="-35.101221" lon="149.3751754">
  <ele>708.24</ele>
  <time>2026-09-01T19:55:52Z</time>
  <course>93.37</course>
  <speed>0.0282842712474619</speed>
  <fix>3d</fix>
</trkpt>
<trkpt lat="-35.1012209" lon="149.3751756">
  <ele>708.22</ele>
  <time>2026-09-01T19:55:52Z</time>
  <course>271.56</course>
  <speed>0.0</speed>
  <fix>3d</fix>
</trkpt>
<trkpt lat="-35.101221" lon="149.3751754">
  <ele>708.24</ele>
  <time>2026-09-01T19:55:52Z</time>
  <course>93.37</course>
  <speed>0.0282842712474619</speed>
  <fix>3d</fix>
</trkpt>
<trkpt lat="-35.1012209" lon="149.3751756">
  <ele>708.22</ele>
  <time>2026-09-01T19:55:52Z</time>
  <course>271.56</course>
  <speed>0.0</speed>
  <fix>3d</fix>
</trkpt>
<trkpt lat="-35.101221" lon="149.3751754">
  <ele>708.24</ele>
  <time>2026-09-01T19:55:52Z</time>
  <course>93.37</course>
  <speed>0.0282842712474619</speed>
  <fix>3d</fix>
</trkpt>
<trkpt lat="-35.1012209" lon="149.3751756">
  <ele>708.22</ele>
  <time>2026-09-01T19:55:52Z</time>
  <course>271.56</course>
  <speed>0.0</speed>
  <fix>3d</fix>
</trkpt>
<trkpt lat="-35.101221" lon="149.3751754">
  <ele>708.24</ele>
  <time>2026-09-01T19:55:52Z</time>
  <course>93.37</course>
  <speed>0.0282842712474619</speed>
  <fix>3d</fix>
</trkpt>
<trkpt lat="-35.1012209" lon="149.3751756">
  <ele>708.22</ele>
  <time>2026-09-01T19:55:52Z</time>
  <course>271.56</course>
  <speed>0.0</speed>
  <fix>3d</fix>
</trkpt>
<trkpt lat="-35.101221" lon="149.3751754">
  <ele>708.24</ele>
  <time>2026-09-01T19:55:52Z</time>
  <course>93.37</course>
  <speed>0.0282842712474619</speed>
  <fix>3d</fix>
</trkpt>
<trkpt lat="-35.1012209" lon="149.3751756">
  <ele>708.22</ele>
  <time>2026-09-01T19:55:52Z</time>
  <course>271.56</course>
  <speed>0.0</speed>
  <fix>3d</fix>
</trkpt>
<trkpt lat="-35.101221" lon="149.3751754">
  <ele>708.25</ele>
  <time>2026-09-01T19:55:52Z</time>
  <course>93.37</course>
  <speed>0.0282842712474619</speed>
  <fix>3d</fix>
</trkpt>
<trkpt lat="-35.1012209" lon="149.3751756">
  <ele>708.22</ele>
  <time>2026-09-01T19:55:52Z</time>
  <course>271.56</course>
  <speed>0.0</speed>
  <fix>3d</fix>
</trkpt>
<trkpt lat="-35.101221" lon="149.3751754">
  <ele>708.25</ele>
  <time>2026-09-01T19:55:52Z</time>
  <course>93.37</course>
  <speed>0.0282842712474619</speed>
  <fix>3d</fix>
</trkpt>
<trkpt lat="-35.1012209" lon="149.3751756">
  <ele>708.22</ele>
  <time>2026-09-01T19:55:52Z</time>
  <course>271.56</course>
  <speed>0.0</speed>
  <fix>3d</fix>
</trkpt>
<trkpt lat="-35.101221" lon="149.3751754">
  <ele>708.25</ele>
  <time>2026-09-01T19:55:52Z</time>
  <course>93.37</course>
  <speed>0.0282842712474619</speed>
  <fix>3d</fix>
</trkpt>
<trkpt lat="-35.1012209" lon="149.3751756">
  <ele>708.22</ele>
  <time>2026-09-01T19:55:52Z</time>
  <course>271.56</course>
  <speed>0.0</speed>
  <fix>3d</fix>
</trkpt>
<trkpt lat="-35.101221" lon="149.3751754">
  <ele>708.25</ele>
  <time>2026-09-01T19:55:52Z</time>
  <course>93.37</course>
  <speed>0.0282842712474619</speed>
  <fix>3d</fix>
</trkpt>
<trkpt lat="-35.1012209" lon="149.3751756">
  <ele>708.22</ele>
  <time>2026-09-01T19:55:52Z</time>
  <course>271.56</course>
  <speed>0.0</speed>
  <fix>3d</fix>
</trkpt>
<trkpt lat="-35.101221" lon="149.3751754">
  <ele>708.25</ele>
  <time>2026-09-01T19:55:52Z</time>
  <course>93.37</course>
  <speed>0.0282842712474619</speed>
  <fix>3d</fix>
</trkpt>
<trkpt lat="-35.1012209" lon="149.3751756">
  <ele>708.22</ele>
  <time>2026-09-01T19:55:52Z</time>
  <course>271.56</course>
  <speed>0.0</speed>
  <fix>3d</fix>
</trkpt>
<trkpt lat="-35.101221" lon="149.3751754">
  <ele>708.25</ele>
  <time>2026-09-01T19:55:52Z</time>
  <course>93.37</course>
  <speed>0.0282842712474619</speed>
  <fix>3d</fix>
</trkpt>
<trkpt lat="-35.1012209" lon="149.3751756">
  <ele>708.22</ele>
  <time>2026-09-01T19:55:52Z</time>
  <course>271.56</course>
  <speed>0.0</speed>
  <fix>3d</fix>
</trkpt>
<trkpt lat="-35.101221" lon="149.3751754">
  <ele>708.25</ele>
  <time>2026-09-01T19:55:52Z</time>
  <course>93.37</course>
  <speed>0.0282842712474619</speed>
  <fix>3d</fix>
</trkpt>
<trkpt lat="-35.1012209" lon="149.3751756">
  <ele>708.22</ele>
  <time>2026-09-01T19:55:52Z</time>
  <course>271.56</course>
  <speed>0.0</speed>
  <fix>3d</fix>
</trkpt>
<trkpt lat="-35.101221" lon="149.3751754">
  <ele>708.22</ele>
  <time>2026-09-01T19:55:52Z</time>
  <course>93.37</course>
  <speed>0.0282842712474619</speed>
  <fix>3d</fix>
</trkpt>
<trkpt lat="-35.1012209" lon="149.3751756">
  <ele>708.22</ele>
  <time>2026-09-01T19:55:52Z</time>
  <course>271.56</course>
  <speed>0.0</speed>
  <fix>3d</fix>
</trkpt>
<trkpt lat="-35.101221" lon="149.3751754">
  <ele>708.21</ele>
  <time>2026-09-01T19:55:52Z</time>
  <course>93.37</course>
  <speed>0.0282842712474619</speed>
  <fix>3d</fix>
</trkpt>
<trkpt lat="-35.1012209" lon="149.3751756">
  <ele>708.22</ele>
  <time>2026-09-01T19:55:52Z</time>
  <course>271.56</course>
  <speed>0.0</speed>
  <fix>3d</fix>
</trkpt>
<trkpt lat="-35.101221" lon="149.3751754">
  <ele>708.22</ele>
  <time>2026-09-01T19:55:52Z</time>
  <course>93.37</course>
  <speed>0.0282842712474619</speed>
  <fix>3d</fix>
</trkpt>
<trkpt lat="-35.1012209" lon="149.3751756">
  <ele>708.22</ele>
  <time>2026-09-01T19:55:52Z</time>
  <course>271.56</course>
  <speed>0.0</speed>
  <fix>3d</fix>
</trkpt>
<trkpt lat="-35.101221" lon="149.3751754">
  <ele>708.22</ele>
  <time>2026-09-01T19:55:52Z</time>
  <course>93.37</course>
  <speed>0.0282842712474619</speed>
  <fix>3d</fix>
</trkpt>
<trkpt lat="-35.1012209" lon="149.3751756">
  <ele>708.22</ele>
  <time>2026-09-01T19:55:52Z</time>
  <course>271.56</course>
  <speed>0.0</speed>
  <fix>3d</fix>
</trkpt>
<trkpt lat="-35.101221" lon="149.3751754">
  <ele>708.22</ele>
  <time>2026-09-01T19:55:52Z</time>
  <course>93.37</course>
  <speed>0.0282842712474619</speed>
  <fix>3d</fix>
</trkpt>
<trkpt lat="-35.1012209" lon="149.3751756">
  <ele>708.22</ele>
  <time>2026-09-01T19:55:52Z</time>
  <course>271.56</course>
  <speed>0.0</speed>
  <fix>3d</fix>
</trkpt>
<trkpt lat="-35.101221" lon="149.3751754">
  <ele>708.23</ele>
  <time>2026-09-01T19:55:52Z</time>
  <course>93.37</course>
  <speed>0.0282842712474619</speed>
  <fix>3d</fix>
</trkpt>
<trkpt lat="-35.1012209" lon="149.3751756">
  <ele>708.22</ele>
  <time>2026-09-01T19:55:52Z</time>
  <course>271.56</course>
  <speed>0.0</speed>
  <fix>3d</fix>
</trkpt>
<trkpt lat="-35.101221" lon="149.3751754">
  <ele>708.23</ele>
  <time>2026-09-01T19:55:52Z</time>
  <course>93.37</course>
  <speed>0.0282842712474619</speed>
  <fix>3d</fix>
</trkpt>
<trkpt lat="-35.1012209" lon="149.3751756">
  <ele>708.22</ele>
  <time>2026-09-01T19:55:52Z</time>
  <course>271.56</course>
  <speed>0.0</speed>
  <fix>3d</fix>
</trkpt>
<trkpt lat="-35.101221" lon="149.3751754">
  <ele>708.23</ele>
  <time>2026-09-01T19:55:52Z</time>
  <course>93.37</course>
  <speed>0.0282842712474619</speed>
  <fix>3d</fix>
</trkpt>
<trkpt lat="-35.1012209" lon="149.3751756">
  <ele>708.22</ele>
  <time>2026-09-01T19:55:52Z</time>
  <course>271.56</course>
  <speed>0.0</speed>
  <fix>3d</fix>
</trkpt>
<trkpt lat="-35.101221" lon="149.3751754">
  <ele>708.24</ele>
  <time>2026-09-01T19:55:52Z</time>
  <course>93.37</course>
  <speed>0.0282842712474619</speed>
  <fix>3d</fix>
</trkpt>
<trkpt lat="-35.1012209" lon="149.3751756">
  <ele>708.22</ele>
  <time>2026-09-01T19:55:52Z</time>
  <course>271.56</course>
  <speed>0.0</speed>
  <fix>3d</fix>
</trkpt>
<trkpt lat="-35.101221" lon="149.3751754">
  <ele>708.24</ele>
  <time>2026-09-01T19:55:52Z</time>
  <course>93.37</course>
  <speed>0.0282842712474619</speed>
  <fix>3d</fix>
</trkpt>
<trkpt lat="-35.1012209" lon="149.3751756">
  <ele>708.22</ele>
  <time>2026-09-01T19:55:52Z</time>
  <course>271.56</course>
  <speed>0.0</speed>
  <fix>3d</fix>
</trkpt>
<trkpt lat="-35.101221" lon="149.3751754">
  <ele>708.24</ele>
  <time>2026-09-01T19:55:52Z</time>
  <course>93.37</course>
  <speed>0.0282842712474619</speed>
  <fix>3d</fix>
</trkpt>
<trkpt lat="-35.1012209" lon="149.3751756">
  <ele>708.22</ele>
  <time>2026-09-01T19:55:52Z</time>
  <course>271.56</course>
  <speed>0.0</speed>
  <fix>3d</fix>
</trkpt>
<trkpt lat="-35.101221" lon="149.3751754">
  <ele>708.25</ele>
  <time>2026-09-01T19:55:52Z</time>
  <course>93.37</course>
  <speed>0.0282842712474619</speed>
  <fix>3d</fix>
</trkpt>
<trkpt lat="-35.1012209" lon="149.3751756">
  <ele>708.22</ele>
  <time>2026-09-01T19:55:52Z</time>
  <course>271.56</course>
  <speed>0.0</speed>
  <fix>3d</fix>
</trkpt>
<trkpt lat="-35.101221" lon="149.3751754">
  <ele>708.25</ele>
  <time>2026-09-01T19:55:52Z</time>
  <course>93.37</course>
  <speed>0.0282842712474619</speed>
  <fix>3d</fix>
</trkpt>
<trkpt lat="-35.1012209" lon="149.3751756">
  <ele>708.22</ele>
  <time>2026-09-01T19:55:52Z</time>
  <course>271.56</course>
  <speed>0.0</speed>
  <fix>3d</fix>
</trkpt>
<trkpt lat="-35.101221" lon="149.3751754">
  <ele>708.25</ele>
  <time>2026-09-01T19:55:52Z</time>
  <course>93.37</course>
  <speed>0.0282842712474619</speed>
  <fix>3d</fix>
</trkpt>
<trkpt lat="-35.1012209" lon="149.3751756">
  <ele>708.22</ele>
  <time>2026-09-01T19:55:52Z</time>
  <course>271.56</course>
  <speed>0.0</speed>
  <fix>3d</fix>
</trkpt>
<trkpt lat="-35.101221" lon="149.3751754">
  <ele>708.25</ele>
  <time>2026-09-01T19:55:52Z</time>
  <course>93.37</course>
  <speed>0.0282842712474619</speed>
  <fix>3d</fix>
</trkpt>
<trkpt lat="-35.1012209" lon="149.3751756">
  <ele>708.22</ele>
  <time>2026-09-01T19:55:52Z</time>
  <course>271.56</course>
  <speed>0.0</speed>
  <fix>3d</fix>
</trkpt>
<trkpt lat="-35.101221" lon="149.3751754">
  <ele>708.26</ele>
  <time>2026-09-01T19:55:52Z</time>
  <course>93.37</course>
  <speed>0.0282842712474619</speed>
  <fix>3d</fix>
</trkpt>
<trkpt lat="-35.1012209" lon="149.3751756">
  <ele>708.22</ele>
  <time>2026-09-01T19:55:52Z</time>
  <course>271.56</course>
  <speed>0.0</speed>
  <fix>3d</fix>
</trkpt>
<trkpt lat="-35.101221" lon="149.3751754">
  <ele>708.26</ele>
  <time>2026-09-01T19:55:52Z</time>
  <course>93.37</course>
  <speed>0.0282842712474619</speed>
  <fix>3d</fix>
</trkpt>
<trkpt lat="-35.1012209" lon="149.3751756">
  <ele>708.22</ele>
  <time>2026-09-01T19:55:52Z</time>
  <course>271.56</course>
  <speed>0.0</speed>
  <fix>3d</fix>
</trkpt>
<trkpt lat="-35.101221" lon="149.3751754">
  <ele>708.26</ele>
  <time>2026-09-01T19:55:52Z</time>
  <course>93.37</course>
  <speed>0.0282842712474619</speed>
  <fix>3d</fix>
</trkpt>
<trkpt lat="-35.1012209" lon="149.3751756">
  <ele>708.22</ele>
  <time>2026-09-01T19:55:52Z</time>
  <course>271.56</course>
  <speed>0.0</speed>
  <fix>3d</fix>
</trkpt>
<trkpt lat="-35.101221" lon="149.3751754">
  <ele>708.27</ele>
  <time>2026-09-01T19:55:52Z</time>
  <course>93.37</course>
  <speed>0.0282842712474619</speed>
  <fix>3d</fix>
</trkpt>
<trkpt lat="-35.1012209" lon="149.3751756">
  <ele>708.22</ele>
  <time>2026-09-01T19:55:52Z</time>
  <course>271.56</course>
  <speed>0.0</speed>
  <fix>3d</fix>
</trkpt>
<trkpt lat="-35.101221" lon="149.3751754">
  <ele>708.27</ele>
  <time>2026-09-01T19:55:52Z</time>
  <course>93.37</course>
  <speed>0.0282842712474619</speed>
  <fix>3d</fix>
</trkpt>
<trkpt lat="-35.1012209" lon="149.3751756">
  <ele>708.22</ele>
  <time>2026-09-01T19:55:52Z</time>
  <course>271.56</course>
  <speed>0.0</speed>
  <fix>3d</fix>
</trkpt>
<trkpt lat="-35.101221" lon="149.3751754">
  <ele>708.27</ele>
  <time>2026-09-01T19:55:52Z</time>
  <course>93.37</course>
  <speed>0.0282842712474619</speed>
  <fix>3d</fix>
</trkpt>
<trkpt lat="-35.1012209" lon="149.3751756">
  <ele>708.22</ele>
  <time>2026-09-01T19:55:52Z</time>
  <course>271.56</course>
  <speed>0.0</speed>
  <fix>3d</fix>
</trkpt>
<trkpt lat="-35.101221" lon="149.3751754">
  <ele>708.28</ele>
  <time>2026-09-01T19:55:52Z</time>
  <course>93.37</course>
  <speed>0.0282842712474619</speed>
  <fix>3d</fix>
</trkpt>
<trkpt lat="-35.1012209" lon="149.3751756">
  <ele>708.22</ele>
  <time>2026-09-01T19:55:52Z</time>
  <course>271.56</course>
  <speed>0.0</speed>
  <fix>3d</fix>
</trkpt>
<trkpt lat="-35.101221" lon="149.3751754">
  <ele>708.28</ele>
  <time>2026-09-01T19:55:52Z</time>
  <course>93.37</course>
  <speed>0.0282842712474619</speed>
  <fix>3d</fix>
</trkpt>
<trkpt lat="-35.1012209" lon="149.3751756">
  <ele>708.22</ele>
  <time>2026-09-01T19:55:52Z</time>
  <course>271.56</course>
  <speed>0.0</speed>
  <fix>3d</fix>
</trkpt>
<trkpt lat="-35.101221" lon="149.3751754">
  <ele>708.28</ele>
  <time>2026-09-01T19:55:52Z</time>
  <course>93.37</course>
  <speed>0.0282842712474619</speed>
  <fix>3d</fix>
</trkpt>
<trkpt lat="-35.1012209" lon="149.3751756">
  <ele>708.22</ele>
  <time>2026-09-01T19:55:52Z</time>
  <course>271.56</course>
  <speed>0.0</speed>
  <fix>3d</fix>
</trkpt>
<trkpt lat="-35.101221" lon="149.3751754">
  <ele>708.29</ele>
  <time>2026-09-01T19:55:52Z</time>
  <course>93.37</course>
  <speed>0.0282842712474619</speed>
  <fix>3d</fix>
</trkpt>
<trkpt lat="-35.1012209" lon="149.3751756">
  <ele>708.22</ele>
  <time>2026-09-01T19:55:52Z</time>
  <course>271.56</course>
  <speed>0.0</speed>
  <fix>3d</fix>
</trkpt>
<trkpt lat="-35.101221" lon="149.3751754">
  <ele>708.29</ele>
  <time>2026-09-01T19:55:52Z</time>
  <course>93.37</course>
  <speed>0.0282842712474619</speed>
  <fix>3d</fix>
</trkpt>
<trkpt lat="-35.1012209" lon="149.3751756">
  <ele>708.22</ele>
  <time>2026-09-01T19:55:52Z</time>
  <course>271.56</course>
  <speed>0.0</speed>
  <fix>3d</fix>
</trkpt>
<trkpt lat="-35.101221" lon="149.3751754">
  <ele>708.3</ele>
  <time>2026-09-01T19:55:52Z</time>
  <course>93.37</course>
  <speed>0.0282842712474619</speed>
  <fix>3d</fix>
</trkpt>
<trkpt lat="-35.1012209" lon="149.3751756">
  <ele>708.22</ele>
  <time>2026-09-01T19:55:52Z</time>
  <course>271.56</course>
  <speed>0.0</speed>
  <fix>3d</fix>
</trkpt>
<trkpt lat="-35.101221" lon="149.3751754">
  <ele>708.3</ele>
  <time>2026-09-01T19:55:52Z</time>
  <course>93.36</course>
  <speed>0.0282842712474619</speed>
  <fix>3d</fix>
</trkpt>
<trkpt lat="-35.1012209" lon="149.3751756">
  <ele>708.22</ele>
  <time>2026-09-01T19:55:52Z</time>
  <course>271.56</course>
  <speed>0.0</speed>
  <fix>3d</fix>
</trkpt>
<trkpt lat="-35.101221" lon="149.3751754">
  <ele>708.3</ele>
  <time>2026-09-01T19:55:52Z</time>
  <course>93.36</course>
  <speed>0.0282842712474619</speed>
  <fix>3d</fix>
</trkpt>
<trkpt lat="-35.1012209" lon="149.3751756">
  <ele>708.22</ele>
  <time>2026-09-01T19:55:52Z</time>
  <course>271.56</course>
  <speed>0.0</speed>
  <fix>3d</fix>
</trkpt>
<trkpt lat="-35.101221" lon="149.3751754">
  <ele>708.31</ele>
  <time>2026-09-01T19:55:52Z</time>
  <course>93.36</course>
  <speed>0.0282842712474619</speed>
  <fix>3d</fix>
</trkpt>
<trkpt lat="-35.1012209" lon="149.3751756">
  <ele>708.22</ele>
  <time>2026-09-01T19:55:52Z</time>
  <course>271.56</course>
  <speed>0.0</speed>
  <fix>3d</fix>
</trkpt>
<trkpt lat="-35.101221" lon="149.3751754">
  <ele>708.31</ele>
  <time>2026-09-01T19:55:52Z</time>
  <course>93.36</course>
  <speed>0.0282842712474619</speed>
  <fix>3d</fix>
</trkpt>
<trkpt lat="-35.1012209" lon="149.3751756">
  <ele>708.22</ele>
  <time>2026-09-01T19:55:52Z</time>
  <course>271.56</course>
  <speed>0.0</speed>
  <fix>3d</fix>
</trkpt>
<trkpt lat="-35.101221" lon="149.3751754">
  <ele>708.31</ele>
  <time>2026-09-01T19:55:52Z</time>
  <course>93.36</course>
  <speed>0.0282842712474619</speed>
  <fix>3d</fix>
</trkpt>
<trkpt lat="-35.1012209" lon="149.3751756">
  <ele>708.22</ele>
  <time>2026-09-01T19:55:52Z</time>
  <course>271.56</course>
  <speed>0.0</speed>
  <fix>3d</fix>
</trkpt>
<trkpt lat="-35.101221" lon="149.3751754">
  <ele>708.32</ele>
  <time>2026-09-01T19:55:52Z</time>
  <course>93.36</course>
  <speed>0.0282842712474619</speed>
  <fix>3d</fix>
</trkpt>
<trkpt lat="-35.1012209" lon="149.3751756">
  <ele>708.22</ele>
  <time>2026-09-01T19:55:52Z</time>
  <course>271.56</course>
  <speed>0.0</speed>
  <fix>3d</fix>
</trkpt>
<trkpt lat="-35.101221" lon="149.3751754">
  <ele>708.32</ele>
  <time>2026-09-01T19:55:52Z</time>
  <course>93.36</course>
  <speed>0.0282842712474619</speed>
  <fix>3d</fix>
</trkpt>
<trkpt lat="-35.1012209" lon="149.3751756">
  <ele>708.22</ele>
  <time>2026-09-01T19:55:52Z</time>
  <course>271.56</course>
  <speed>0.0</speed>
  <fix>3d</fix>
</trkpt>
<trkpt lat="-35.101221" lon="149.3751754">
  <ele>708.32</ele>
  <time>2026-09-01T19:55:52Z</time>
  <course>93.36</course>
  <speed>0.0282842712474619</speed>
  <fix>3d</fix>
</trkpt>
<trkpt lat="-35.1012209" lon="149.3751756">
  <ele>708.22</ele>
  <time>2026-09-01T19:55:53Z</time>
  <course>271.56</course>
  <speed>0.0</speed>
  <fix>3d</fix>
</trkpt>
<trkpt lat="-35.101221" lon="149.3751754">
  <ele>708.33</ele>
  <time>2026-09-01T19:55:53Z</time>
  <course>93.36</course>
  <speed>0.0282842712474619</speed>
  <fix>3d</fix>
</trkpt>
<trkpt lat="-35.1012209" lon="149.3751756">
  <ele>708.22</ele>
  <time>2026-09-01T19:55:53Z</time>
  <course>271.56</course>
  <speed>0.0</speed>
  <fix>3d</fix>
</trkpt>
<trkpt lat="-35.101221" lon="149.3751754">
  <ele>708.33</ele>
  <time>2026-09-01T19:55:53Z</time>
  <course>93.36</course>
  <speed>0.0282842712474619</speed>
  <fix>3d</fix>
</trkpt>
<trkpt lat="-35.1012209" lon="149.3751756">
  <ele>708.22</ele>
  <time>2026-09-01T19:55:53Z</time>
  <course>271.56</course>
  <speed>0.0</speed>
  <fix>3d</fix>
</trkpt>
<trkpt lat="-35.101221" lon="149.3751754">
  <ele>708.34</ele>
  <time>2026-09-01T19:55:53Z</time>
  <course>93.36</course>
  <speed>0.0282842712474619</speed>
  <fix>3d</fix>
</trkpt>
<trkpt lat="-35.1012209" lon="149.3751756">
  <ele>708.22</ele>
  <time>2026-09-01T19:55:53Z</time>
  <course>271.56</course>
  <speed>0.0</speed>
  <fix>3d</fix>
</trkpt>
<trkpt lat="-35.101221" lon="149.3751754">
  <ele>708.34</ele>
  <time>2026-09-01T19:55:53Z</time>
  <course>93.36</course>
  <speed>0.0282842712474619</speed>
  <fix>3d</fix>
</trkpt>
<trkpt lat="-35.1012209" lon="149.3751756">
  <ele>708.22</ele>
  <time>2026-09-01T19:55:53Z</time>
  <course>271.56</course>
  <speed>0.0</speed>
  <fix>3d</fix>
</trkpt>
<trkpt lat="-35.101221" lon="149.3751754">
  <ele>708.35</ele>
  <time>2026-09-01T19:55:53Z</time>
  <course>93.36</course>
  <speed>0.0282842712474619</speed>
  <fix>3d</fix>
</trkpt>
<trkpt lat="-35.1012209" lon="149.3751756">
  <ele>708.22</ele>
  <time>2026-09-01T19:55:53Z</time>
  <course>271.56</course>
  <speed>0.0</speed>
  <fix>3d</fix>
</trkpt>
<trkpt lat="-35.101221" lon="149.3751754">
  <ele>708.35</ele>
  <time>2026-09-01T19:55:53Z</time>
  <course>93.36</course>
  <speed>0.0282842712474619</speed>
  <fix>3d</fix>
</trkpt>
<trkpt lat="-35.1012209" lon="149.3751756">
  <ele>708.22</ele>
  <time>2026-09-01T19:55:53Z</time>
  <course>271.56</course>
  <speed>0.0</speed>
  <fix>3d</fix>
</trkpt>
<trkpt lat="-35.101221" lon="149.3751754">
  <ele>708.36</ele>
  <time>2026-09-01T19:55:53Z</time>
  <course>93.36</course>
  <speed>0.0282842712474619</speed>
  <fix>3d</fix>
</trkpt>
<trkpt lat="-35.1012209" lon="149.3751756">
  <ele>708.22</ele>
  <time>2026-09-01T19:55:53Z</time>
  <course>271.56</course>
  <speed>0.0</speed>
  <fix>3d</fix>
</trkpt>
<trkpt lat="-35.101221" lon="149.3751754">
  <ele>708.36</ele>
  <time>2026-09-01T19:55:53Z</time>
  <course>93.36</course>
  <speed>0.0282842712474619</speed>
  <fix>3d</fix>
</trkpt>
<trkpt lat="-35.1012209" lon="149.3751756">
  <ele>708.22</ele>
  <time>2026-09-01T19:55:53Z</time>
  <course>271.56</course>
  <speed>0.0</speed>
  <fix>3d</fix>
</trkpt>
<trkpt lat="-35.101221" lon="149.3751754">
  <ele>708.37</ele>
  <time>2026-09-01T19:55:53Z</time>
  <course>93.36</course>
  <speed>0.0282842712474619</speed>
  <fix>3d</fix>
</trkpt>
<trkpt lat="-35.1012209" lon="149.3751756">
  <ele>708.22</ele>
  <time>2026-09-01T19:55:53Z</time>
  <course>271.56</course>
  <speed>0.0</speed>
  <fix>3d</fix>
</trkpt>
<trkpt lat="-35.101221" lon="149.3751754">
  <ele>708.37</ele>
  <time>2026-09-01T19:55:53Z</time>
  <course>93.36</course>
  <speed>0.0282842712474619</speed>
  <fix>3d</fix>
</trkpt>
<trkpt lat="-35.1012209" lon="149.3751756">
  <ele>708.22</ele>
  <time>2026-09-01T19:55:53Z</time>
  <course>271.56</course>
  <speed>0.0</speed>
  <fix>3d</fix>
</trkpt>
<trkpt lat="-35.101221" lon="149.3751754">
  <ele>708.37</ele>
  <time>2026-09-01T19:55:53Z</time>
  <course>93.36</course>
  <speed>0.0282842712474619</speed>
  <fix>3d</fix>
</trkpt>
<trkpt lat="-35.1012209" lon="149.3751756">
  <ele>708.22</ele>
  <time>2026-09-01T19:55:53Z</time>
  <course>271.56</course>
  <speed>0.0</speed>
  <fix>3d</fix>
</trkpt>
<trkpt lat="-35.101221" lon="149.3751754">
  <ele>708.38</ele>
  <time>2026-09-01T19:55:53Z</time>
  <course>93.36</course>
  <speed>0.0282842712474619</speed>
  <fix>3d</fix>
</trkpt>
<trkpt lat="-35.1012209" lon="149.3751756">
  <ele>708.22</ele>
  <time>2026-09-01T19:55:53Z</time>
  <course>271.56</course>
  <speed>0.0</speed>
  <fix>3d</fix>
</trkpt>
<trkpt lat="-35.101221" lon="149.3751754">
  <ele>708.38</ele>
  <time>2026-09-01T19:55:53Z</time>
  <course>93.36</course>
  <speed>0.0282842712474619</speed>
  <fix>3d</fix>
</trkpt>
<trkpt lat="-35.1012209" lon="149.3751756">
  <ele>708.22</ele>
  <time>2026-09-01T19:55:53Z</time>
  <course>271.56</course>
  <speed>0.0</speed>
  <fix>3d</fix>
</trkpt>
<trkpt lat="-35.101221" lon="149.3751754">
  <ele>708.39</ele>
  <time>2026-09-01T19:55:53Z</time>
  <course>93.36</course>
  <speed>0.0282842712474619</speed>
  <fix>3d</fix>
</trkpt>
<trkpt lat="-35.1012209" lon="149.3751756">
  <ele>708.22</ele>
  <time>2026-09-01T19:55:53Z</time>
  <course>271.56</course>
  <speed>0.0</speed>
  <fix>3d</fix>
</trkpt>
<trkpt lat="-35.101221" lon="149.3751754">
  <ele>708.39</ele>
  <time>2026-09-01T19:55:53Z</time>
  <course>93.36</course>
  <speed>0.0282842712474619</speed>
  <fix>3d</fix>
</trkpt>
<trkpt lat="-35.1012209" lon="149.3751756">
  <ele>708.22</ele>
  <time>2026-09-01T19:55:53Z</time>
  <course>271.56</course>
  <speed>0.0</speed>
  <fix>3d</fix>
</trkpt>
<trkpt lat="-35.101221" lon="149.3751754">
  <ele>708.39</ele>
  <time>2026-09-01T19:55:53Z</time>
  <course>93.36</course>
  <speed>0.0282842712474619</speed>
  <fix>3d</fix>
</trkpt>
<trkpt lat="-35.1012209" lon="149.3751756">
  <ele>708.22</ele>
  <time>2026-09-01T19:55:53Z</time>
  <course>271.56</course>
  <speed>0.0</speed>
  <fix>3d</fix>
</trkpt>
<trkpt lat="-35.101221" lon="149.3751754">
  <ele>708.39</ele>
  <time>2026-09-01T19:55:53Z</time>
  <course>93.36</course>
  <speed>0.0282842712474619</speed>
  <fix>3d</fix>
</trkpt>
<trkpt lat="-35.1012209" lon="149.3751756">
  <ele>708.22</ele>
  <time>2026-09-01T19:55:53Z</time>
  <course>271.56</course>
  <speed>0.0</speed>
  <fix>3d</fix>
</trkpt>
<trkpt lat="-35.101221" lon="149.3751754">
  <ele>708.38</ele>
  <time>2026-09-01T19:55:53Z</time>
  <course>93.36</course>
  <speed>0.0282842712474619</speed>
  <fix>3d</fix>
</trkpt>
<trkpt lat="-35.1012209" lon="149.3751756">
  <ele>708.22</ele>
  <time>2026-09-01T19:55:53Z</time>
  <course>271.56</course>
  <speed>0.0</speed>
  <fix>3d</fix>
</trkpt>
<trkpt lat="-35.101221" lon="149.3751754">
  <ele>708.39</ele>
  <time>2026-09-01T19:55:53Z</time>
  <course>93.36</course>
  <speed>0.0282842712474619</speed>
  <fix>3d</fix>
</trkpt>
<trkpt lat="-35.1012209" lon="149.3751756">
  <ele>708.22</ele>
  <time>2026-09-01T19:55:53Z</time>
  <course>271.56</course>
  <speed>0.0</speed>
  <fix>3d</fix>
</trkpt>
<trkpt lat="-35.101221" lon="149.3751754">
  <ele>708.39</ele>
  <time>2026-09-01T19:55:53Z</time>
  <course>93.36</course>
  <speed>0.0282842712474619</speed>
  <fix>3d</fix>
</trkpt>
<trkpt lat="-35.1012209" lon="149.3751756">
  <ele>708.22</ele>
  <time>2026-09-01T19:55:53Z</time>
  <course>271.56</course>
  <speed>0.0</speed>
  <fix>3d</fix>
</trkpt>
<trkpt lat="-35.101221" lon="149.3751754">
  <ele>708.38</ele>
  <time>2026-09-01T19:55:53Z</time>
  <course>93.36</course>
  <speed>0.0282842712474619</speed>
  <fix>3d</fix>
</trkpt>
<trkpt lat="-35.1012209" lon="149.3751756">
  <ele>708.22</ele>
  <time>2026-09-01T19:55:53Z</time>
  <course>271.56</course>
  <speed>0.0</speed>
  <fix>3d</fix>
</trkpt>
<trkpt lat="-35.101221" lon="149.3751754">
  <ele>708.38</ele>
  <time>2026-09-01T19:55:53Z</time>
  <course>93.36</course>
  <speed>0.0282842712474619</speed>
  <fix>3d</fix>
</trkpt>
<trkpt lat="-35.1012209" lon="149.3751756">
  <ele>708.22</ele>
  <time>2026-09-01T19:55:53Z</time>
  <course>271.56</course>
  <speed>0.0</speed>
  <fix>3d</fix>
</trkpt>
<trkpt lat="-35.101221" lon="149.3751754">
  <ele>708.38</ele>
  <time>2026-09-01T19:55:53Z</time>
  <course>93.36</course>
  <speed>0.0282842712474619</speed>
  <fix>3d</fix>
</trkpt>
<trkpt lat="-35.1012209" lon="149.3751756">
  <ele>708.22</ele>
  <time>2026-09-01T19:55:53Z</time>
  <course>271.56</course>
  <speed>0.0</speed>
  <fix>3d</fix>
</trkpt>
<trkpt lat="-35.101221" lon="149.3751754">
  <ele>708.39</ele>
  <time>2026-09-01T19:55:53Z</time>
  <course>93.36</course>
  <speed>0.0282842712474619</speed>
  <fix>3d</fix>
</trkpt>
<trkpt lat="-35.1012209" lon="149.3751756">
  <ele>708.22</ele>
  <time>2026-09-01T19:55:53Z</time>
  <course>271.56</course>
  <speed>0.0</speed>
  <fix>3d</fix>
</trkpt>
<trkpt lat="-35.101221" lon="149.3751754">
  <ele>708.39</ele>
  <time>2026-09-01T19:55:53Z</time>
  <course>93.36</course>
  <speed>0.0282842712474619</speed>
  <fix>3d</fix>
</trkpt>
<trkpt lat="-35.1012209" lon="149.3751756">
  <ele>708.22</ele>
  <time>2026-09-01T19:55:53Z</time>
  <course>271.56</course>
  <speed>0.0</speed>
  <fix>3d</fix>
</trkpt>
<trkpt lat="-35.101221" lon="149.3751754">
  <ele>708.22</ele>
  <time>2026-09-01T19:55:53Z</time>
  <course>93.36</course>
  <speed>0.0282842712474619</speed>
  <fix>3d</fix>
</trkpt>
<trkpt lat="-35.1012209" lon="149.3751756">
  <ele>708.22</ele>
  <time>2026-09-01T19:55:53Z</time>
  <course>271.56</course>
  <speed>0.0</speed>
  <fix>3d</fix>
</trkpt>
<trkpt lat="-35.101221" lon="149.3751754">
  <ele>708.22</ele>
  <time>2026-09-01T19:55:53Z</time>
  <course>93.36</course>
  <speed>0.0282842712474619</speed>
  <fix>3d</fix>
</trkpt>
<trkpt lat="-35.1012209" lon="149.3751756">
  <ele>708.22</ele>
  <time>2026-09-01T19:55:53Z</time>
  <course>271.56</course>
  <speed>0.0</speed>
  <fix>3d</fix>
</trkpt>
<trkpt lat="-35.101221" lon="149.3751754">
  <ele>708.22</ele>
  <time>2026-09-01T19:55:53Z</time>
  <course>93.36</course>
  <speed>0.0282842712474619</speed>
  <fix>3d</fix>
</trkpt>
<trkpt lat="-35.1012209" lon="149.3751756">
  <ele>708.22</ele>
  <time>2026-09-01T19:55:53Z</time>
  <course>271.56</course>
  <speed>0.0</speed>
  <fix>3d</fix>
</trkpt>
<trkpt lat="-35.101221" lon="149.3751754">
  <ele>708.22</ele>
  <time>2026-09-01T19:55:53Z</time>
  <course>93.36</course>
  <speed>0.0282842712474619</speed>
  <fix>3d</fix>
</trkpt>
<trkpt lat="-35.1012209" lon="149.3751756">
  <ele>708.22</ele>
  <time>2026-09-01T19:55:53Z</time>
  <course>271.56</course>
  <speed>0.0</speed>
  <fix>3d</fix>
</trkpt>
<trkpt lat="-35.101221" lon="149.3751754">
  <ele>708.22</ele>
  <time>2026-09-01T19:55:53Z</time>
  <course>93.36</course>
  <speed>0.0282842712474619</speed>
  <fix>3d</fix>
</trkpt>
<trkpt lat="-35.1012209" lon="149.3751756">
  <ele>708.22</ele>
  <time>2026-09-01T19:55:53Z</time>
  <course>271.56</course>
  <speed>0.0</speed>
  <fix>3d</fix>
</trkpt>
<trkpt lat="-35.101221" lon="149.3751754">
  <ele>708.22</ele>
  <time>2026-09-01T19:55:53Z</time>
  <course>93.36</course>
  <speed>0.0282842712474619</speed>
  <fix>3d</fix>
</trkpt>
<trkpt lat="-35.1012209" lon="149.3751756">
  <ele>708.22</ele>
  <time>2026-09-01T19:55:53Z</time>
  <course>271.56</course>
  <speed>0.0</speed>
  <fix>3d</fix>
</trkpt>
<trkpt lat="-35.101221" lon="149.3751754">
  <ele>708.23</ele>
  <time>2026-09-01T19:55:53Z</time>
  <course>93.36</course>
  <speed>0.0282842712474619</speed>
  <fix>3d</fix>
</trkpt>
<trkpt lat="-35.1012209" lon="149.3751756">
  <ele>708.22</ele>
  <time>2026-09-01T19:55:53Z</time>
  <course>271.56</course>
  <speed>0.0</speed>
  <fix>3d</fix>
</trkpt>
<trkpt lat="-35.101221" lon="149.3751754">
  <ele>708.23</ele>
  <time>2026-09-01T19:55:53Z</time>
  <course>93.36</course>
  <speed>0.0282842712474619</speed>
  <fix>3d</fix>
</trkpt>
<trkpt lat="-35.1012209" lon="149.3751756">
  <ele>708.22</ele>
  <time>2026-09-01T19:55:53Z</time>
  <course>271.56</course>
  <speed>0.0</speed>
  <fix>3d</fix>
</trkpt>
<trkpt lat="-35.101221" lon="149.3751754">
  <ele>708.24</ele>
  <time>2026-09-01T19:55:53Z</time>
  <course>93.36</course>
  <speed>0.0282842712474619</speed>
  <fix>3d</fix>
</trkpt>
<trkpt lat="-35.1012209" lon="149.3751756">
  <ele>708.22</ele>
  <time>2026-09-01T19:55:53Z</time>
  <course>271.56</course>
  <speed>0.0</speed>
  <fix>3d</fix>
</trkpt>
<trkpt lat="-35.101221" lon="149.3751754">
  <ele>708.24</ele>
  <time>2026-09-01T19:55:53Z</time>
  <course>93.36</course>
  <speed>0.0282842712474619</speed>
  <fix>3d</fix>
</trkpt>
<trkpt lat="-35.1012209" lon="149.3751756">
  <ele>708.22</ele>
  <time>2026-09-01T19:55:53Z</time>
  <course>271.56</course>
  <speed>0.0</speed>
  <fix>3d</fix>
</trkpt>
<trkpt lat="-35.101221" lon="149.3751754">
  <ele>708.24</ele>
  <time>2026-09-01T19:55:53Z</time>
  <course>93.36</course>
  <speed>0.0282842712474619</speed>
  <fix>3d</fix>
</trkpt>
<trkpt lat="-35.1012209" lon="149.3751756">
  <ele>708.22</ele>
  <time>2026-09-01T19:55:53Z</time>
  <course>271.56</course>
  <speed>0.0</speed>
  <fix>3d</fix>
</trkpt>
<trkpt lat="-35.101221" lon="149.3751754">
  <ele>708.25</ele>
  <time>2026-09-01T19:55:53Z</time>
  <course>93.36</course>
  <speed>0.0282842712474619</speed>
  <fix>3d</fix>
</trkpt>
<trkpt lat="-35.1012209" lon="149.3751756">
  <ele>708.22</ele>
  <time>2026-09-01T19:55:53Z</time>
  <course>271.56</course>
  <speed>0.0</speed>
  <fix>3d</fix>
</trkpt>
<trkpt lat="-35.101221" lon="149.3751754">
  <ele>708.25</ele>
  <time>2026-09-01T19:55:53Z</time>
  <course>93.36</course>
  <speed>0.0282842712474619</speed>
  <fix>3d</fix>
</trkpt>
<trkpt lat="-35.1012209" lon="149.3751756">
  <ele>708.22</ele>
  <time>2026-09-01T19:55:53Z</time>
  <course>271.56</course>
  <speed>0.0</speed>
  <fix>3d</fix>
</trkpt>
<trkpt lat="-35.101221" lon="149.3751754">
  <ele>708.25</ele>
  <time>2026-09-01T19:55:53Z</time>
  <course>93.36</course>
  <speed>0.0282842712474619</speed>
  <fix>3d</fix>
</trkpt>
<trkpt lat="-35.1012209" lon="149.3751756">
  <ele>708.22</ele>
  <time>2026-09-01T19:55:53Z</time>
  <course>271.56</course>
  <speed>0.0</speed>
  <fix>3d</fix>
</trkpt>
<trkpt lat="-35.101221" lon="149.3751754">
  <ele>708.26</ele>
  <time>2026-09-01T19:55:53Z</time>
  <course>93.36</course>
  <speed>0.0282842712474619</speed>
  <fix>3d</fix>
</trkpt>
<trkpt lat="-35.1012209" lon="149.3751756">
  <ele>708.22</ele>
  <time>2026-09-01T19:55:53Z</time>
  <course>271.56</course>
  <speed>0.0</speed>
  <fix>3d</fix>
</trkpt>
<trkpt lat="-35.101221" lon="149.3751754">
  <ele>708.26</ele>
  <time>2026-09-01T19:55:53Z</time>
  <course>93.36</course>
  <speed>0.0282842712474619</speed>
  <fix>3d</fix>
</trkpt>
<trkpt lat="-35.1012209" lon="149.3751756">
  <ele>708.22</ele>
  <time>2026-09-01T19:55:53Z</time>
  <course>271.56</course>
  <speed>0.0</speed>
  <fix>3d</fix>
</trkpt>
<trkpt lat="-35.101221" lon="149.3751754">
  <ele>708.26</ele>
  <time>2026-09-01T19:55:53Z</time>
  <course>93.36</course>
  <speed>0.0282842712474619</speed>
  <fix>3d</fix>
</trkpt>
<trkpt lat="-35.1012209" lon="149.3751756">
  <ele>708.22</ele>
  <time>2026-09-01T19:55:53Z</time>
  <course>271.56</course>
  <speed>0.0</speed>
  <fix>3d</fix>
</trkpt>
<trkpt lat="-35.101221" lon="149.3751754">
  <ele>708.27</ele>
  <time>2026-09-01T19:55:53Z</time>
  <course>93.35</course>
  <speed>0.0282842712474619</speed>
  <fix>3d</fix>
</trkpt>
<trkpt lat="-35.1012209" lon="149.3751756">
  <ele>708.22</ele>
  <time>2026-09-01T19:55:53Z</time>
  <course>271.56</course>
  <speed>0.0</speed>
  <fix>3d</fix>
</trkpt>
<trkpt lat="-35.101221" lon="149.3751754">
  <ele>708.27</ele>
  <time>2026-09-01T19:55:53Z</time>
  <course>93.35</course>
  <speed>0.0282842712474619</speed>
  <fix>3d</fix>
</trkpt>
<trkpt lat="-35.1012209" lon="149.3751756">
  <ele>708.22</ele>
  <time>2026-09-01T19:55:53Z</time>
  <course>271.56</course>
  <speed>0.0</speed>
  <fix>3d</fix>
</trkpt>
<trkpt lat="-35.101221" lon="149.3751754">
  <ele>708.27</ele>
  <time>2026-09-01T19:55:53Z</time>
  <course>93.35</course>
  <speed>0.0282842712474619</speed>
  <fix>3d</fix>
</trkpt>
<trkpt lat="-35.1012209" lon="149.3751756">
  <ele>708.22</ele>
  <time>2026-09-01T19:55:53Z</time>
  <course>271.56</course>
  <speed>0.0</speed>
  <fix>3d</fix>
</trkpt>
<trkpt lat="-35.101221" lon="149.3751754">
  <ele>708.27</ele>
  <time>2026-09-01T19:55:53Z</time>
  <course>93.35</course>
  <speed>0.0282842712474619</speed>
  <fix>3d</fix>
</trkpt>
<trkpt lat="-35.1012209" lon="149.3751756">
  <ele>708.22</ele>
  <time>2026-09-01T19:55:53Z</time>
  <course>271.56</course>
  <speed>0.0</speed>
  <fix>3d</fix>
</trkpt>
<trkpt lat="-35.101221" lon="149.3751754">
  <ele>708.27</ele>
  <time>2026-09-01T19:55:53Z</time>
  <course>93.35</course>
  <speed>0.0282842712474619</speed>
  <fix>3d</fix>
</trkpt>
<trkpt lat="-35.1012209" lon="149.3751756">
  <ele>708.22</ele>
  <time>2026-09-01T19:55:53Z</time>
  <course>271.56</course>
  <speed>0.0</speed>
  <fix>3d</fix>
</trkpt>
<trkpt lat="-35.101221" lon="149.3751754">
  <ele>708.28</ele>
  <time>2026-09-01T19:55:53Z</time>
  <course>93.35</course>
  <speed>0.0282842712474619</speed>
  <fix>3d</fix>
</trkpt>
<trkpt lat="-35.1012209" lon="149.3751756">
  <ele>708.22</ele>
  <time>2026-09-01T19:55:53Z</time>
  <course>271.56</course>
  <speed>0.0</speed>
  <fix>3d</fix>
</trkpt>
<trkpt lat="-35.101221" lon="149.3751754">
  <ele>708.28</ele>
  <time>2026-09-01T19:55:53Z</time>
  <course>93.35</course>
  <speed>0.0282842712474619</speed>
  <fix>3d</fix>
</trkpt>
<trkpt lat="-35.1012209" lon="149.3751756">
  <ele>708.22</ele>
  <time>2026-09-01T19:55:53Z</time>
  <course>271.56</course>
  <speed>0.0</speed>
  <fix>3d</fix>
</trkpt>
<trkpt lat="-35.101221" lon="149.3751754">
  <ele>708.28</ele>
  <time>2026-09-01T19:55:53Z</time>
  <course>93.35</course>
  <speed>0.0282842712474619</speed>
  <fix>3d</fix>
</trkpt>
<trkpt lat="-35.1012209" lon="149.3751756">
  <ele>708.22</ele>
  <time>2026-09-01T19:55:53Z</time>
  <course>271.56</course>
  <speed>0.0</speed>
  <fix>3d</fix>
</trkpt>
<trkpt lat="-35.101221" lon="149.3751754">
  <ele>708.28</ele>
  <time>2026-09-01T19:55:53Z</time>
  <course>93.35</course>
  <speed>0.0282842712474619</speed>
  <fix>3d</fix>
</trkpt>
<trkpt lat="-35.1012209" lon="149.3751756">
  <ele>708.22</ele>
  <time>2026-09-01T19:55:53Z</time>
  <course>271.56</course>
  <speed>0.0</speed>
  <fix>3d</fix>
</trkpt>
<trkpt lat="-35.101221" lon="149.3751754">
  <ele>708.28</ele>
  <time>2026-09-01T19:55:53Z</time>
  <course>93.35</course>
  <speed>0.0282842712474619</speed>
  <fix>3d</fix>
</trkpt>
<trkpt lat="-35.1012209" lon="149.3751756">
  <ele>708.22</ele>
  <time>2026-09-01T19:55:53Z</time>
  <course>271.56</course>
  <speed>0.0</speed>
  <fix>3d</fix>
</trkpt>
<trkpt lat="-35.101221" lon="149.3751754">
  <ele>708.29</ele>
  <time>2026-09-01T19:55:53Z</time>
  <course>93.35</course>
  <speed>0.0282842712474619</speed>
  <fix>3d</fix>
</trkpt>
<trkpt lat="-35.1012209" lon="149.3751756">
  <ele>708.22</ele>
  <time>2026-09-01T19:55:53Z</time>
  <course>271.56</course>
  <speed>0.0</speed>
  <fix>3d</fix>
</trkpt>
<trkpt lat="-35.101221" lon="149.3751754">
  <ele>708.29</ele>
  <time>2026-09-01T19:55:53Z</time>
  <course>93.35</course>
  <speed>0.0282842712474619</speed>
  <fix>3d</fix>
</trkpt>
<trkpt lat="-35.1012209" lon="149.3751756">
  <ele>708.22</ele>
  <time>2026-09-01T19:55:53Z</time>
  <course>271.56</course>
  <speed>0.0</speed>
  <fix>3d</fix>
</trkpt>
<trkpt lat="-35.101221" lon="149.3751754">
  <ele>708.29</ele>
  <time>2026-09-01T19:55:53Z</time>
  <course>93.35</course>
  <speed>0.0282842712474619</speed>
  <fix>3d</fix>
</trkpt>
<trkpt lat="-35.1012209" lon="149.3751756">
  <ele>708.22</ele>
  <time>2026-09-01T19:55:53Z</time>
  <course>271.56</course>
  <speed>0.0</speed>
  <fix>3d</fix>
</trkpt>
<trkpt lat="-35.101221" lon="149.3751754">
  <ele>708.29</ele>
  <time>2026-09-01T19:55:53Z</time>
  <course>93.35</course>
  <speed>0.0282842712474619</speed>
  <fix>3d</fix>
</trkpt>
<trkpt lat="-35.1012209" lon="149.3751756">
  <ele>708.22</ele>
  <time>2026-09-01T19:55:53Z</time>
  <course>271.56</course>
  <speed>0.0</speed>
  <fix>3d</fix>
</trkpt>
<trkpt lat="-35.101221" lon="149.3751754">
  <ele>708.29</ele>
  <time>2026-09-01T19:55:53Z</time>
  <course>93.35</course>
  <speed>0.0282842712474619</speed>
  <fix>3d</fix>
</trkpt>
<trkpt lat="-35.1012209" lon="149.3751756">
  <ele>708.22</ele>
  <time>2026-09-01T19:55:53Z</time>
  <course>271.56</course>
  <speed>0.0</speed>
  <fix>3d</fix>
</trkpt>
<trkpt lat="-35.101221" lon="149.3751754">
  <ele>708.29</ele>
  <time>2026-09-01T19:55:53Z</time>
  <course>93.35</course>
  <speed>0.0282842712474619</speed>
  <fix>3d</fix>
</trkpt>
<trkpt lat="-35.1012209" lon="149.3751756">
  <ele>708.22</ele>
  <time>2026-09-01T19:55:53Z</time>
  <course>271.56</course>
  <speed>0.0</speed>
  <fix>3d</fix>
</trkpt>
<trkpt lat="-35.101221" lon="149.3751754">
  <ele>708.3</ele>
  <time>2026-09-01T19:55:53Z</time>
  <course>93.35</course>
  <speed>0.0282842712474619</speed>
  <fix>3d</fix>
</trkpt>
<trkpt lat="-35.1012209" lon="149.3751756">
  <ele>708.22</ele>
  <time>2026-09-01T19:55:53Z</time>
  <course>271.56</course>
  <speed>0.0</speed>
  <fix>3d</fix>
</trkpt>
<trkpt lat="-35.101221" lon="149.3751754">
  <ele>708.3</ele>
  <time>2026-09-01T19:55:53Z</time>
  <course>93.35</course>
  <speed>0.0282842712474619</speed>
  <fix>3d</fix>
</trkpt>
<trkpt lat="-35.1012209" lon="149.3751756">
  <ele>708.22</ele>
  <time>2026-09-01T19:55:53Z</time>
  <course>271.56</course>
  <speed>0.0</speed>
  <fix>3d</fix>
</trkpt>
<trkpt lat="-35.101221" lon="149.3751754">
  <ele>708.3</ele>
  <time>2026-09-01T19:55:53Z</time>
  <course>93.35</course>
  <speed>0.0282842712474619</speed>
  <fix>3d</fix>
</trkpt>
<trkpt lat="-35.1012209" lon="149.3751756">
  <ele>708.22</ele>
  <time>2026-09-01T19:55:53Z</time>
  <course>271.56</course>
  <speed>0.0</speed>
  <fix>3d</fix>
</trkpt>
<trkpt lat="-35.101221" lon="149.3751754">
  <ele>708.31</ele>
  <time>2026-09-01T19:55:53Z</time>
  <course>93.35</course>
  <speed>0.0282842712474619</speed>
  <fix>3d</fix>
</trkpt>
<trkpt lat="-35.1012209" lon="149.3751756">
  <ele>708.22</ele>
  <time>2026-09-01T19:55:53Z</time>
  <course>271.56</course>
  <speed>0.0</speed>
  <fix>3d</fix>
</trkpt>
<trkpt lat="-35.101221" lon="149.3751754">
  <ele>708.31</ele>
  <time>2026-09-01T19:55:53Z</time>
  <course>93.35</course>
  <speed>0.0282842712474619</speed>
  <fix>3d</fix>
</trkpt>
<trkpt lat="-35.1012209" lon="149.3751756">
  <ele>708.22</ele>
  <time>2026-09-01T19:55:53Z</time>
  <course>271.56</course>
  <speed>0.0</speed>
  <fix>3d</fix>
</trkpt>
<trkpt lat="-35.101221" lon="149.3751754">
  <ele>708.32</ele>
  <time>2026-09-01T19:55:53Z</time>
  <course>93.35</course>
  <speed>0.0282842712474619</speed>
  <fix>3d</fix>
</trkpt>
<trkpt lat="-35.1012209" lon="149.3751756">
  <ele>708.22</ele>
  <time>2026-09-01T19:55:53Z</time>
  <course>271.56</course>
  <speed>0.0</speed>
  <fix>3d</fix>
</trkpt>
<trkpt lat="-35.101221" lon="149.3751754">
  <ele>708.32</ele>
  <time>2026-09-01T19:55:53Z</time>
  <course>93.35</course>
  <speed>0.0282842712474619</speed>
  <fix>3d</fix>
</trkpt>
<trkpt lat="-35.1012209" lon="149.3751756">
  <ele>708.22</ele>
  <time>2026-09-01T19:55:53Z</time>
  <course>271.56</course>
  <speed>0.0</speed>
  <fix>3d</fix>
</trkpt>
<trkpt lat="-35.101221" lon="149.3751754">
  <ele>708.32</ele>
  <time>2026-09-01T19:55:53Z</time>
  <course>93.35</course>
  <speed>0.0282842712474619</speed>
  <fix>3d</fix>
</trkpt>
<trkpt lat="-35.1012209" lon="149.3751756">
  <ele>708.22</ele>
  <time>2026-09-01T19:55:53Z</time>
  <course>271.56</course>
  <speed>0.0</speed>
  <fix>3d</fix>
</trkpt>
<trkpt lat="-35.101221" lon="149.3751754">
  <ele>708.32</ele>
  <time>2026-09-01T19:55:53Z</time>
  <course>93.35</course>
  <speed>0.0282842712474619</speed>
  <fix>3d</fix>
</trkpt>
<trkpt lat="-35.1012209" lon="149.3751756">
  <ele>708.22</ele>
  <time>2026-09-01T19:55:53Z</time>
  <course>271.56</course>
  <speed>0.0</speed>
  <fix>3d</fix>
</trkpt>
<trkpt lat="-35.101221" lon="149.3751754">
  <ele>708.32</ele>
  <time>2026-09-01T19:55:53Z</time>
  <course>93.35</course>
  <speed>0.0282842712474619</speed>
  <fix>3d</fix>
</trkpt>
<trkpt lat="-35.1012209" lon="149.3751756">
  <ele>708.22</ele>
  <time>2026-09-01T19:55:53Z</time>
  <course>271.56</course>
  <speed>0.0</speed>
  <fix>3d</fix>
</trkpt>
<trkpt lat="-35.101221" lon="149.3751754">
  <ele>708.33</ele>
  <time>2026-09-01T19:55:53Z</time>
  <course>93.35</course>
  <speed>0.0282842712474619</speed>
  <fix>3d</fix>
</trkpt>
<trkpt lat="-35.1012209" lon="149.3751756">
  <ele>708.22</ele>
  <time>2026-09-01T19:55:53Z</time>
  <course>271.56</course>
  <speed>0.0</speed>
  <fix>3d</fix>
</trkpt>
<trkpt lat="-35.101221" lon="149.3751754">
  <ele>708.33</ele>
  <time>2026-09-01T19:55:53Z</time>
  <course>93.35</course>
  <speed>0.0282842712474619</speed>
  <fix>3d</fix>
</trkpt>
<trkpt lat="-35.1012209" lon="149.3751756">
  <ele>708.22</ele>
  <time>2026-09-01T19:55:53Z</time>
  <course>271.56</course>
  <speed>0.0</speed>
  <fix>3d</fix>
</trkpt>
<trkpt lat="-35.101221" lon="149.3751754">
  <ele>708.33</ele>
  <time>2026-09-01T19:55:53Z</time>
  <course>93.35</course>
  <speed>0.0282842712474619</speed>
  <fix>3d</fix>
</trkpt>
<trkpt lat="-35.1012209" lon="149.3751756">
  <ele>708.22</ele>
  <time>2026-09-01T19:55:53Z</time>
  <course>271.56</course>
  <speed>0.0</speed>
  <fix>3d</fix>
</trkpt>
<trkpt lat="-35.101221" lon="149.3751754">
  <ele>708.33</ele>
  <time>2026-09-01T19:55:53Z</time>
  <course>93.35</course>
  <speed>0.0282842712474619</speed>
  <fix>3d</fix>
</trkpt>
<trkpt lat="-35.1012209" lon="149.3751756">
  <ele>708.22</ele>
  <time>2026-09-01T19:55:53Z</time>
  <course>271.56</course>
  <speed>0.0</speed>
  <fix>3d</fix>
</trkpt>
<trkpt lat="-35.101221" lon="149.3751754">
  <ele>708.33</ele>
  <time>2026-09-01T19:55:53Z</time>
  <course>93.35</course>
  <speed>0.0282842712474619</speed>
  <fix>3d</fix>
</trkpt>
<trkpt lat="-35.1012209" lon="149.3751756">
  <ele>708.22</ele>
  <time>2026-09-01T19:55:53Z</time>
  <course>271.56</course>
  <speed>0.0</speed>
  <fix>3d</fix>
</trkpt>
<trkpt lat="-35.101221" lon="149.3751754">
  <ele>708.33</ele>
  <time>2026-09-01T19:55:53Z</time>
  <course>93.35</course>
  <speed>0.0282842712474619</speed>
  <fix>3d</fix>
</trkpt>
<trkpt lat="-35.1012209" lon="149.3751756">
  <ele>708.22</ele>
  <time>2026-09-01T19:55:53Z</time>
  <course>271.56</course>
  <speed>0.0</speed>
  <fix>3d</fix>
</trkpt>
<trkpt lat="-35.101221" lon="149.3751754">
  <ele>708.34</ele>
  <time>2026-09-01T19:55:53Z</time>
  <course>93.35</course>
  <speed>0.0282842712474619</speed>
  <fix>3d</fix>
</trkpt>
<trkpt lat="-35.1012209" lon="149.3751756">
  <ele>708.22</ele>
  <time>2026-09-01T19:55:53Z</time>
  <course>271.56</course>
  <speed>0.0</speed>
  <fix>3d</fix>
</trkpt>
<trkpt lat="-35.101221" lon="149.3751754">
  <ele>708.34</ele>
  <time>2026-09-01T19:55:53Z</time>
  <course>93.35</course>
  <speed>0.0282842712474619</speed>
  <fix>3d</fix>
</trkpt>
<trkpt lat="-35.1012209" lon="149.3751756">
  <ele>708.22</ele>
  <time>2026-09-01T19:55:53Z</time>
  <course>271.56</course>
  <speed>0.0</speed>
  <fix>3d</fix>
</trkpt>
<trkpt lat="-35.101221" lon="149.3751754">
  <ele>708.34</ele>
  <time>2026-09-01T19:55:53Z</time>
  <course>93.35</course>
  <speed>0.0282842712474619</speed>
  <fix>3d</fix>
</trkpt>
<trkpt lat="-35.1012209" lon="149.3751756">
  <ele>708.22</ele>
  <time>2026-09-01T19:55:53Z</time>
  <course>271.56</course>
  <speed>0.0</speed>
  <fix>3d</fix>
</trkpt>
<trkpt lat="-35.101221" lon="149.3751754">
  <ele>708.35</ele>
  <time>2026-09-01T19:55:53Z</time>
  <course>93.35</course>
  <speed>0.0282842712474619</speed>
  <fix>3d</fix>
</trkpt>
<trkpt lat="-35.1012209" lon="149.3751756">
  <ele>708.22</ele>
  <time>2026-09-01T19:55:53Z</time>
  <course>271.56</course>
  <speed>0.0</speed>
  <fix>3d</fix>
</trkpt>
<trkpt lat="-35.101221" lon="149.3751754">
  <ele>708.35</ele>
  <time>2026-09-01T19:55:53Z</time>
  <course>93.35</course>
  <speed>0.0282842712474619</speed>
  <fix>3d</fix>
</trkpt>
<trkpt lat="-35.1012209" lon="149.3751756">
  <ele>708.22</ele>
  <time>2026-09-01T19:55:53Z</time>
  <course>271.56</course>
  <speed>0.0</speed>
  <fix>3d</fix>
</trkpt>
<trkpt lat="-35.101221" lon="149.3751754">
  <ele>708.35</ele>
  <time>2026-09-01T19:55:53Z</time>
  <course>93.35</course>
  <speed>0.0282842712474619</speed>
  <fix>3d</fix>
</trkpt>
<trkpt lat="-35.1012209" lon="149.3751756">
  <ele>708.22</ele>
  <time>2026-09-01T19:55:53Z</time>
  <course>271.56</course>
  <speed>0.0</speed>
  <fix>3d</fix>
</trkpt>
<trkpt lat="-35.101221" lon="149.3751754">
  <ele>708.36</ele>
  <time>2026-09-01T19:55:53Z</time>
  <course>93.35</course>
  <speed>0.0282842712474619</speed>
  <fix>3d</fix>
</trkpt>
<trkpt lat="-35.1012209" lon="149.3751756">
  <ele>708.22</ele>
  <time>2026-09-01T19:55:53Z</time>
  <course>271.56</course>
  <speed>0.0</speed>
  <fix>3d</fix>
</trkpt>
<trkpt lat="-35.101221" lon="149.3751754">
  <ele>708.36</ele>
  <time>2026-09-01T19:55:53Z</time>
  <course>93.35</course>
  <speed>0.0282842712474619</speed>
  <fix>3d</fix>
</trkpt>
<trkpt lat="-35.1012209" lon="149.3751756">
  <ele>708.22</ele>
  <time>2026-09-01T19:55:53Z</time>
  <course>271.56</course>
  <speed>0.0</speed>
  <fix>3d</fix>
</trkpt>
<trkpt lat="-35.101221" lon="149.3751754">
  <ele>708.36</ele>
  <time>2026-09-01T19:55:53Z</time>
  <course>93.35</course>
  <speed>0.0282842712474619</speed>
  <fix>3d</fix>
</trkpt>
<trkpt lat="-35.1012209" lon="149.3751756">
  <ele>708.22</ele>
  <time>2026-09-01T19:55:53Z</time>
  <course>271.56</course>
  <speed>0.0</speed>
  <fix>3d</fix>
</trkpt>
<trkpt lat="-35.101221" lon="149.3751754">
  <ele>708.36</ele>
  <time>2026-09-01T19:55:53Z</time>
  <course>93.35</course>
  <speed>0.0282842712474619</speed>
  <fix>3d</fix>
</trkpt>
<trkpt lat="-35.1012209" lon="149.3751756">
  <ele>708.22</ele>
  <time>2026-09-01T19:55:53Z</time>
  <course>271.56</course>
  <speed>0.0</speed>
  <fix>3d</fix>
</trkpt>
<trkpt lat="-35.101221" lon="149.3751754">
  <ele>708.36</ele>
  <time>2026-09-01T19:55:53Z</time>
  <course>93.35</course>
  <speed>0.0282842712474619</speed>
  <fix>3d</fix>
</trkpt>
<trkpt lat="-35.1012209" lon="149.3751756">
  <ele>708.22</ele>
  <time>2026-09-01T19:55:53Z</time>
  <course>271.56</course>
  <speed>0.0</speed>
  <fix>3d</fix>
</trkpt>
<trkpt lat="-35.101221" lon="149.3751754">
  <ele>708.22</ele>
  <time>2026-09-01T19:55:53Z</time>
  <course>93.35</course>
  <speed>0.0282842712474619</speed>
  <fix>3d</fix>
</trkpt>
<trkpt lat="-35.1012209" lon="149.3751756">
  <ele>708.22</ele>
  <time>2026-09-01T19:55:53Z</time>
  <course>271.56</course>
  <speed>0.0</speed>
  <fix>3d</fix>
</trkpt>
<trkpt lat="-35.101221" lon="149.3751754">
  <ele>708.22</ele>
  <time>2026-09-01T19:55:53Z</time>
  <course>93.35</course>
  <speed>0.0282842712474619</speed>
  <fix>3d</fix>
</trkpt>
<trkpt lat="-35.1012209" lon="149.3751756">
  <ele>708.22</ele>
  <time>2026-09-01T19:55:53Z</time>
  <course>271.56</course>
  <speed>0.0</speed>
  <fix>3d</fix>
</trkpt>
<trkpt lat="-35.101221" lon="149.3751754">
  <ele>708.22</ele>
  <time>2026-09-01T19:55:53Z</time>
  <course>93.35</course>
  <speed>0.0282842712474619</speed>
  <fix>3d</fix>
</trkpt>
<trkpt lat="-35.1012209" lon="149.3751756">
  <ele>708.22</ele>
  <time>2026-09-01T19:55:53Z</time>
  <course>271.56</course>
  <speed>0.0</speed>
  <fix>3d</fix>
</trkpt>
<trkpt lat="-35.101221" lon="149.3751754">
  <ele>708.22</ele>
  <time>2026-09-01T19:55:53Z</time>
  <course>93.34</course>
  <speed>0.0282842712474619</speed>
  <fix>3d</fix>
</trkpt>
<trkpt lat="-35.1012209" lon="149.3751756">
  <ele>708.22</ele>
  <time>2026-09-01T19:55:53Z</time>
  <course>271.56</course>
  <speed>0.0</speed>
  <fix>3d</fix>
</trkpt>
<trkpt lat="-35.101221" lon="149.3751754">
  <ele>708.23</ele>
  <time>2026-09-01T19:55:53Z</time>
  <course>93.34</course>
  <speed>0.0282842712474619</speed>
  <fix>3d</fix>
</trkpt>
<trkpt lat="-35.1012209" lon="149.3751756">
  <ele>708.22</ele>
  <time>2026-09-01T19:55:53Z</time>
  <course>271.56</course>
  <speed>0.0</speed>
  <fix>3d</fix>
</trkpt>
<trkpt lat="-35.101221" lon="149.3751754">
  <ele>708.23</ele>
  <time>2026-09-01T19:55:53Z</time>
  <course>93.34</course>
  <speed>0.0282842712474619</speed>
  <fix>3d</fix>
</trkpt>
<trkpt lat="-35.1012209" lon="149.3751756">
  <ele>708.22</ele>
  <time>2026-09-01T19:55:53Z</time>
  <course>271.56</course>
  <speed>0.0</speed>
  <fix>3d</fix>
</trkpt>
<trkpt lat="-35.101221" lon="149.3751754">
  <ele>708.24</ele>
  <time>2026-09-01T19:55:53Z</time>
  <course>93.34</course>
  <speed>0.0282842712474619</speed>
  <fix>3d</fix>
</trkpt>
<trkpt lat="-35.1012209" lon="149.3751756">
  <ele>708.22</ele>
  <time>2026-09-01T19:55:53Z</time>
  <course>271.56</course>
  <speed>0.0</speed>
  <fix>3d</fix>
</trkpt>
<trkpt lat="-35.101221" lon="149.3751754">
  <ele>708.24</ele>
  <time>2026-09-01T19:55:53Z</time>
  <course>93.34</course>
  <speed>0.0282842712474619</speed>
  <fix>3d</fix>
</trkpt>
<trkpt lat="-35.1012209" lon="149.3751756">
  <ele>708.22</ele>
  <time>2026-09-01T19:55:53Z</time>
  <course>271.56</course>
  <speed>0.0</speed>
  <fix>3d</fix>
</trkpt>
<trkpt lat="-35.101221" lon="149.3751754">
  <ele>708.25</ele>
  <time>2026-09-01T19:55:53Z</time>
  <course>93.34</course>
  <speed>0.0282842712474619</speed>
  <fix>3d</fix>
</trkpt>
<trkpt lat="-35.1012209" lon="149.3751756">
  <ele>708.22</ele>
  <time>2026-09-01T19:55:53Z</time>
  <course>271.56</course>
  <speed>0.0</speed>
  <fix>3d</fix>
</trkpt>
<trkpt lat="-35.101221" lon="149.3751754">
  <ele>708.26</ele>
  <time>2026-09-01T19:55:53Z</time>
  <course>93.34</course>
  <speed>0.0282842712474619</speed>
  <fix>3d</fix>
</trkpt>
<trkpt lat="-35.1012209" lon="149.3751756">
  <ele>708.22</ele>
  <time>2026-09-01T19:55:53Z</time>
  <course>271.56</course>
  <speed>0.0</speed>
  <fix>3d</fix>
</trkpt>
<trkpt lat="-35.101221" lon="149.3751754">
  <ele>708.26</ele>
  <time>2026-09-01T19:55:53Z</time>
  <course>93.34</course>
  <speed>0.0282842712474619</speed>
  <fix>3d</fix>
</trkpt>
<trkpt lat="-35.1012209" lon="149.3751756">
  <ele>708.22</ele>
  <time>2026-09-01T19:55:53Z</time>
  <course>271.56</course>
  <speed>0.0</speed>
  <fix>3d</fix>
</trkpt>
<trkpt lat="-35.101221" lon="149.3751754">
  <ele>708.27</ele>
  <time>2026-09-01T19:55:53Z</time>
  <course>93.34</course>
  <speed>0.0282842712474619</speed>
  <fix>3d</fix>
</trkpt>
<trkpt lat="-35.1012209" lon="149.3751756">
  <ele>708.22</ele>
  <time>2026-09-01T19:55:53Z</time>
  <course>271.56</course>
  <speed>0.0</speed>
  <fix>3d</fix>
</trkpt>
<trkpt lat="-35.101221" lon="149.3751754">
  <ele>708.28</ele>
  <time>2026-09-01T19:55:53Z</time>
  <course>93.34</course>
  <speed>0.0282842712474619</speed>
  <fix>3d</fix>
</trkpt>
<trkpt lat="-35.1012209" lon="149.3751756">
  <ele>708.22</ele>
  <time>2026-09-01T19:55:53Z</time>
  <course>271.56</course>
  <speed>0.0</speed>
  <fix>3d</fix>
</trkpt>
<trkpt lat="-35.101221" lon="149.3751754">
  <ele>708.28</ele>
  <time>2026-09-01T19:55:53Z</time>
  <course>93.34</course>
  <speed>0.0282842712474619</speed>
  <fix>3d</fix>
</trkpt>
<trkpt lat="-35.1012209" lon="149.3751756">
  <ele>708.22</ele>
  <time>2026-09-01T19:55:53Z</time>
  <course>271.56</course>
  <speed>0.0</speed>
  <fix>3d</fix>
</trkpt>
<trkpt lat="-35.101221" lon="149.3751754">
  <ele>708.29</ele>
  <time>2026-09-01T19:55:53Z</time>
  <course>93.34</course>
  <speed>0.0282842712474619</speed>
  <fix>3d</fix>
</trkpt>
<trkpt lat="-35.1012209" lon="149.3751756">
  <ele>708.22</ele>
  <time>2026-09-01T19:55:53Z</time>
  <course>271.56</course>
  <speed>0.0</speed>
  <fix>3d</fix>
</trkpt>
<trkpt lat="-35.101221" lon="149.3751754">
  <ele>708.3</ele>
  <time>2026-09-01T19:55:53Z</time>
  <course>93.34</course>
  <speed>0.0282842712474619</speed>
  <fix>3d</fix>
</trkpt>
<trkpt lat="-35.1012209" lon="149.3751756">
  <ele>708.22</ele>
  <time>2026-09-01T19:55:53Z</time>
  <course>271.56</course>
  <speed>0.0</speed>
  <fix>3d</fix>
</trkpt>
<trkpt lat="-35.101221" lon="149.3751754">
  <ele>708.31</ele>
  <time>2026-09-01T19:55:53Z</time>
  <course>93.34</course>
  <speed>0.0282842712474619</speed>
  <fix>3d</fix>
</trkpt>
<trkpt lat="-35.1012209" lon="149.3751756">
  <ele>708.22</ele>
  <time>2026-09-01T19:55:53Z</time>
  <course>271.56</course>
  <speed>0.0</speed>
  <fix>3d</fix>
</trkpt>
<trkpt lat="-35.101221" lon="149.3751754">
  <ele>708.31</ele>
  <time>2026-09-01T19:55:53Z</time>
  <course>93.34</course>
  <speed>0.0282842712474619</speed>
  <fix>3d</fix>
</trkpt>
<trkpt lat="-35.1012209" lon="149.3751756">
  <ele>708.22</ele>
  <time>2026-09-01T19:55:53Z</time>
  <course>271.56</course>
  <speed>0.0</speed>
  <fix>3d</fix>
</trkpt>
<trkpt lat="-35.101221" lon="149.3751754">
  <ele>708.32</ele>
  <time>2026-09-01T19:55:53Z</time>
  <course>93.34</course>
  <speed>0.0282842712474619</speed>
  <fix>3d</fix>
</trkpt>
<trkpt lat="-35.1012209" lon="149.3751756">
  <ele>708.22</ele>
  <time>2026-09-01T19:55:53Z</time>
  <course>271.56</course>
  <speed>0.0</speed>
  <fix>3d</fix>
</trkpt>
<trkpt lat="-35.101221" lon="149.3751754">
  <ele>708.33</ele>
  <time>2026-09-01T19:55:53Z</time>
  <course>93.34</course>
  <speed>0.0282842712474619</speed>
  <fix>3d</fix>
</trkpt>
<trkpt lat="-35.1012209" lon="149.3751756">
  <ele>708.22</ele>
  <time>2026-09-01T19:55:53Z</time>
  <course>271.56</course>
  <speed>0.0</speed>
  <fix>3d</fix>
</trkpt>
<trkpt lat="-35.101221" lon="149.3751754">
  <ele>708.33</ele>
  <time>2026-09-01T19:55:53Z</time>
  <course>93.34</course>
  <speed>0.0282842712474619</speed>
  <fix>3d</fix>
</trkpt>
<trkpt lat="-35.1012209" lon="149.3751756">
  <ele>708.22</ele>
  <time>2026-09-01T19:55:53Z</time>
  <course>271.56</course>
  <speed>0.0</speed>
  <fix>3d</fix>
</trkpt>
<trkpt lat="-35.101221" lon="149.3751754">
  <ele>708.34</ele>
  <time>2026-09-01T19:55:53Z</time>
  <course>93.34</course>
  <speed>0.0282842712474619</speed>
  <fix>3d</fix>
</trkpt>
<trkpt lat="-35.1012209" lon="149.3751756">
  <ele>708.22</ele>
  <time>2026-09-01T19:55:53Z</time>
  <course>271.56</course>
  <speed>0.0</speed>
  <fix>3d</fix>
</trkpt>
<trkpt lat="-35.101221" lon="149.3751754">
  <ele>708.34</ele>
  <time>2026-09-01T19:55:53Z</time>
  <course>93.34</course>
  <speed>0.0282842712474619</speed>
  <fix>3d</fix>
</trkpt>
<trkpt lat="-35.1012209" lon="149.3751756">
  <ele>708.22</ele>
  <time>2026-09-01T19:55:53Z</time>
  <course>271.56</course>
  <speed>0.0</speed>
  <fix>3d</fix>
</trkpt>
<trkpt lat="-35.101221" lon="149.3751754">
  <ele>708.35</ele>
  <time>2026-09-01T19:55:53Z</time>
  <course>93.34</course>
  <speed>0.0282842712474619</speed>
  <fix>3d</fix>
</trkpt>
<trkpt lat="-35.1012209" lon="149.3751756">
  <ele>708.22</ele>
  <time>2026-09-01T19:55:53Z</time>
  <course>271.56</course>
  <speed>0.0</speed>
  <fix>3d</fix>
</trkpt>
<trkpt lat="-35.101221" lon="149.3751754">
  <ele>708.35</ele>
  <time>2026-09-01T19:55:53Z</time>
  <course>93.34</course>
  <speed>0.0282842712474619</speed>
  <fix>3d</fix>
</trkpt>
<trkpt lat="-35.1012209" lon="149.3751756">
  <ele>708.22</ele>
  <time>2026-09-01T19:55:53Z</time>
  <course>271.56</course>
  <speed>0.0</speed>
  <fix>3d</fix>
</trkpt>
<trkpt lat="-35.101221" lon="149.3751754">
  <ele>708.36</ele>
  <time>2026-09-01T19:55:53Z</time>
  <course>93.34</course>
  <speed>0.0282842712474619</speed>
  <fix>3d</fix>
</trkpt>
<trkpt lat="-35.1012209" lon="149.3751756">
  <ele>708.22</ele>
  <time>2026-09-01T19:55:53Z</time>
  <course>271.56</course>
  <speed>0.0</speed>
  <fix>3d</fix>
</trkpt>
<trkpt lat="-35.101221" lon="149.3751754">
  <ele>708.36</ele>
  <time>2026-09-01T19:55:53Z</time>
  <course>93.34</course>
  <speed>0.0282842712474619</speed>
  <fix>3d</fix>
</trkpt>
<trkpt lat="-35.1012209" lon="149.3751756">
  <ele>708.22</ele>
  <time>2026-09-01T19:55:53Z</time>
  <course>271.56</course>
  <speed>0.0</speed>
  <fix>3d</fix>
</trkpt>
<trkpt lat="-35.101221" lon="149.3751754">
  <ele>708.37</ele>
  <time>2026-09-01T19:55:53Z</time>
  <course>93.34</course>
  <speed>0.0282842712474619</speed>
  <fix>3d</fix>
</trkpt>
<trkpt lat="-35.1012209" lon="149.3751756">
  <ele>708.22</ele>
  <time>2026-09-01T19:55:53Z</time>
  <course>271.56</course>
  <speed>0.0</speed>
  <fix>3d</fix>
</trkpt>
<trkpt lat="-35.101221" lon="149.3751754">
  <ele>708.38</ele>
  <time>2026-09-01T19:55:53Z</time>
  <course>93.34</course>
  <speed>0.0282842712474619</speed>
  <fix>3d</fix>
</trkpt>
<trkpt lat="-35.1012209" lon="149.3751756">
  <ele>708.22</ele>
  <time>2026-09-01T19:55:53Z</time>
  <course>271.56</course>
  <speed>0.0</speed>
  <fix>3d</fix>
</trkpt>
<trkpt lat="-35.101221" lon="149.3751754">
  <ele>708.38</ele>
  <time>2026-09-01T19:55:53Z</time>
  <course>93.34</course>
  <speed>0.0282842712474619</speed>
  <fix>3d</fix>
</trkpt>
<trkpt lat="-35.1012209" lon="149.3751756">
  <ele>708.22</ele>
  <time>2026-09-01T19:55:53Z</time>
  <course>271.56</course>
  <speed>0.0</speed>
  <fix>3d</fix>
</trkpt>
<trkpt lat="-35.101221" lon="149.3751754">
  <ele>708.38</ele>
  <time>2026-09-01T19:55:53Z</time>
  <course>93.34</course>
  <speed>0.0282842712474619</speed>
  <fix>3d</fix>
</trkpt>
<trkpt lat="-35.1012209" lon="149.3751756">
  <ele>708.22</ele>
  <time>2026-09-01T19:55:53Z</time>
  <course>271.56</course>
  <speed>0.0</speed>
  <fix>3d</fix>
</trkpt>
<trkpt lat="-35.101221" lon="149.3751754">
  <ele>708.39</ele>
  <time>2026-09-01T19:55:53Z</time>
  <course>93.34</course>
  <speed>0.0282842712474619</speed>
  <fix>3d</fix>
</trkpt>
<trkpt lat="-35.1012209" lon="149.3751756">
  <ele>708.22</ele>
  <time>2026-09-01T19:55:53Z</time>
  <course>271.56</course>
  <speed>0.0</speed>
  <fix>3d</fix>
</trkpt>
<trkpt lat="-35.101221" lon="149.3751754">
  <ele>708.39</ele>
  <time>2026-09-01T19:55:53Z</time>
  <course>93.34</course>
  <speed>0.0282842712474619</speed>
  <fix>3d</fix>
</trkpt>
<trkpt lat="-35.1012209" lon="149.3751756">
  <ele>708.22</ele>
  <time>2026-09-01T19:55:53Z</time>
  <course>271.56</course>
  <speed>0.0</speed>
  <fix>3d</fix>
</trkpt>
<trkpt lat="-35.101221" lon="149.3751754">
  <ele>708.39</ele>
  <time>2026-09-01T19:55:53Z</time>
  <course>93.34</course>
  <speed>0.0282842712474619</speed>
  <fix>3d</fix>
</trkpt>
<trkpt lat="-35.1012209" lon="149.3751756">
  <ele>708.22</ele>
  <time>2026-09-01T19:55:53Z</time>
  <course>271.56</course>
  <speed>0.0</speed>
  <fix>3d</fix>
</trkpt>
<trkpt lat="-35.101221" lon="149.3751754">
  <ele>708.39</ele>
  <time>2026-09-01T19:55:53Z</time>
  <course>93.34</course>
  <speed>0.0282842712474619</speed>
  <fix>3d</fix>
</trkpt>
<trkpt lat="-35.1012209" lon="149.3751756">
  <ele>708.22</ele>
  <time>2026-09-01T19:55:53Z</time>
  <course>271.56</course>
  <speed>0.0</speed>
  <fix>3d</fix>
</trkpt>
<trkpt lat="-35.101221" lon="149.3751754">
  <ele>708.39</ele>
  <time>2026-09-01T19:55:53Z</time>
  <course>93.34</course>
  <speed>0.0282842712474619</speed>
  <fix>3d</fix>
</trkpt>
<trkpt lat="-35.1012209" lon="149.3751756">
  <ele>708.22</ele>
  <time>2026-09-01T19:55:53Z</time>
  <course>271.56</course>
  <speed>0.0</speed>
  <fix>3d</fix>
</trkpt>
<trkpt lat="-35.101221" lon="149.3751754">
  <ele>708.39</ele>
  <time>2026-09-01T19:55:53Z</time>
  <course>93.34</course>
  <speed>0.0282842712474619</speed>
  <fix>3d</fix>
</trkpt>
<trkpt lat="-35.1012209" lon="149.3751756">
  <ele>708.22</ele>
  <time>2026-09-01T19:55:53Z</time>
  <course>271.56</course>
  <speed>0.0</speed>
  <fix>3d</fix>
</trkpt>
<trkpt lat="-35.101221" lon="149.3751754">
  <ele>708.39</ele>
  <time>2026-09-01T19:55:53Z</time>
  <course>93.34</course>
  <speed>0.0282842712474619</speed>
  <fix>3d</fix>
</trkpt>
<trkpt lat="-35.1012209" lon="149.3751756">
  <ele>708.22</ele>
  <time>2026-09-01T19:55:53Z</time>
  <course>271.56</course>
  <speed>0.0</speed>
  <fix>3d</fix>
</trkpt>
<trkpt lat="-35.101221" lon="149.3751754">
  <ele>708.4</ele>
  <time>2026-09-01T19:55:53Z</time>
  <course>93.34</course>
  <speed>0.0282842712474619</speed>
  <fix>3d</fix>
</trkpt>
<trkpt lat="-35.1012209" lon="149.3751756">
  <ele>708.22</ele>
  <time>2026-09-01T19:55:53Z</time>
  <course>271.56</course>
  <speed>0.0</speed>
  <fix>3d</fix>
</trkpt>
<trkpt lat="-35.101221" lon="149.3751754">
  <ele>708.4</ele>
  <time>2026-09-01T19:55:53Z</time>
  <course>93.34</course>
  <speed>0.0282842712474619</speed>
  <fix>3d</fix>
</trkpt>
<trkpt lat="-35.1012209" lon="149.3751756">
  <ele>708.22</ele>
  <time>2026-09-01T19:55:53Z</time>
  <course>271.56</course>
  <speed>0.0</speed>
  <fix>3d</fix>
</trkpt>
<trkpt lat="-35.101221" lon="149.3751754">
  <ele>708.4</ele>
  <time>2026-09-01T19:55:53Z</time>
  <course>93.34</course>
  <speed>0.0282842712474619</speed>
  <fix>3d</fix>
</trkpt>
<trkpt lat="-35.1012209" lon="149.3751756">
  <ele>708.22</ele>
  <time>2026-09-01T19:55:53Z</time>
  <course>271.56</course>
  <speed>0.0</speed>
  <fix>3d</fix>
</trkpt>
<trkpt lat="-35.101221" lon="149.3751754">
  <ele>708.4</ele>
  <time>2026-09-01T19:55:53Z</time>
  <course>93.34</course>
  <speed>0.0282842712474619</speed>
  <fix>3d</fix>
</trkpt>
<trkpt lat="-35.1012209" lon="149.3751756">
  <ele>708.22</ele>
  <time>2026-09-01T19:55:53Z</time>
  <course>271.56</course>
  <speed>0.0</speed>
  <fix>3d</fix>
</trkpt>
<trkpt lat="-35.101221" lon="149.3751754">
  <ele>708.4</ele>
  <time>2026-09-01T19:55:53Z</time>
  <course>93.34</course>
  <speed>0.0282842712474619</speed>
  <fix>3d</fix>
</trkpt>
<trkpt lat="-35.1012209" lon="149.3751756">
  <ele>708.22</ele>
  <time>2026-09-01T19:55:53Z</time>
  <course>271.56</course>
  <speed>0.0</speed>
  <fix>3d</fix>
</trkpt>
<trkpt lat="-35.101221" lon="149.3751754">
  <ele>708.41</ele>
  <time>2026-09-01T19:55:53Z</time>
  <course>93.34</course>
  <speed>0.0282842712474619</speed>
  <fix>3d</fix>
</trkpt>
<trkpt lat="-35.1012209" lon="149.3751756">
  <ele>708.22</ele>
  <time>2026-09-01T19:55:53Z</time>
  <course>271.56</course>
  <speed>0.0</speed>
  <fix>3d</fix>
</trkpt>
<trkpt lat="-35.101221" lon="149.3751754">
  <ele>708.41</ele>
  <time>2026-09-01T19:55:53Z</time>
  <course>93.34</course>
  <speed>0.0282842712474619</speed>
  <fix>3d</fix>
</trkpt>
<trkpt lat="-35.1012209" lon="149.3751756">
  <ele>708.22</ele>
  <time>2026-09-01T19:55:53Z</time>
  <course>271.56</course>
  <speed>0.0</speed>
  <fix>3d</fix>
</trkpt>
<trkpt lat="-35.101221" lon="149.3751754">
  <ele>708.41</ele>
  <time>2026-09-01T19:55:53Z</time>
  <course>93.34</course>
  <speed>0.0282842712474619</speed>
  <fix>3d</fix>
</trkpt>
<trkpt lat="-35.1012209" lon="149.3751756">
  <ele>708.22</ele>
  <time>2026-09-01T19:55:53Z</time>
  <course>271.56</course>
  <speed>0.0</speed>
  <fix>3d</fix>
</trkpt>
<trkpt lat="-35.101221" lon="149.3751754">
  <ele>708.42</ele>
  <time>2026-09-01T19:55:53Z</time>
  <course>93.34</course>
  <speed>0.0282842712474619</speed>
  <fix>3d</fix>
</trkpt>
<trkpt lat="-35.1012209" lon="149.3751756">
  <ele>708.22</ele>
  <time>2026-09-01T19:55:53Z</time>
  <course>271.56</course>
  <speed>0.0</speed>
  <fix>3d</fix>
</trkpt>
<trkpt lat="-35.101221" lon="149.3751754">
  <ele>708.42</ele>
  <time>2026-09-01T19:55:53Z</time>
  <course>93.34</course>
  <speed>0.0282842712474619</speed>
  <fix>3d</fix>
</trkpt>
<trkpt lat="-35.1012209" lon="149.3751756">
  <ele>708.22</ele>
  <time>2026-09-01T19:55:53Z</time>
  <course>271.56</course>
  <speed>0.0</speed>
  <fix>3d</fix>
</trkpt>
<trkpt lat="-35.101221" lon="149.3751754">
  <ele>708.42</ele>
  <time>2026-09-01T19:55:53Z</time>
  <course>93.34</course>
  <speed>0.0282842712474619</speed>
  <fix>3d</fix>
</trkpt>
<trkpt lat="-35.1012209" lon="149.3751756">
  <ele>708.22</ele>
  <time>2026-09-01T19:55:53Z</time>
  <course>271.56</course>
  <speed>0.0</speed>
  <fix>3d</fix>
</trkpt>
<trkpt lat="-35.101221" lon="149.3751754">
  <ele>708.42</ele>
  <time>2026-09-01T19:55:53Z</time>
  <course>93.34</course>
  <speed>0.0282842712474619</speed>
  <fix>3d</fix>
</trkpt>
<trkpt lat="-35.1012209" lon="149.3751756">
  <ele>708.22</ele>
  <time>2026-09-01T19:55:53Z</time>
  <course>271.56</course>
  <speed>0.0</speed>
  <fix>3d</fix>
</trkpt>
<trkpt lat="-35.101221" lon="149.3751754">
  <ele>708.43</ele>
  <time>2026-09-01T19:55:53Z</time>
  <course>93.34</course>
  <speed>0.0282842712474619</speed>
  <fix>3d</fix>
</trkpt>
<trkpt lat="-35.1012209" lon="149.3751756">
  <ele>708.22</ele>
  <time>2026-09-01T19:55:53Z</time>
  <course>271.56</course>
  <speed>0.0</speed>
  <fix>3d</fix>
</trkpt>
<trkpt lat="-35.101221" lon="149.3751754">
  <ele>708.43</ele>
  <time>2026-09-01T19:55:53Z</time>
  <course>93.34</course>
  <speed>0.0282842712474619</speed>
  <fix>3d</fix>
</trkpt>
<trkpt lat="-35.1012209" lon="149.3751756">
  <ele>708.22</ele>
  <time>2026-09-01T19:55:53Z</time>
  <course>271.56</course>
  <speed>0.0</speed>
  <fix>3d</fix>
</trkpt>
<trkpt lat="-35.101221" lon="149.3751754">
  <ele>708.43</ele>
  <time>2026-09-01T19:55:53Z</time>
  <course>93.34</course>
  <speed>0.0282842712474619</speed>
  <fix>3d</fix>
</trkpt>
<trkpt lat="-35.1012209" lon="149.3751756">
  <ele>708.22</ele>
  <time>2026-09-01T19:55:53Z</time>
  <course>271.56</course>
  <speed>0.0</speed>
  <fix>3d</fix>
</trkpt>
<trkpt lat="-35.101221" lon="149.3751754">
  <ele>708.43</ele>
  <time>2026-09-01T19:55:53Z</time>
  <course>93.34</course>
  <speed>0.0282842712474619</speed>
  <fix>3d</fix>
</trkpt>
<trkpt lat="-35.1012209" lon="149.3751756">
  <ele>708.22</ele>
  <time>2026-09-01T19:55:53Z</time>
  <course>271.56</course>
  <speed>0.0</speed>
  <fix>3d</fix>
</trkpt>
<trkpt lat="-35.101221" lon="149.3751754">
  <ele>708.43</ele>
  <time>2026-09-01T19:55:53Z</time>
  <course>93.33</course>
  <speed>0.0282842712474619</speed>
  <fix>3d</fix>
</trkpt>
<trkpt lat="-35.1012209" lon="149.3751756">
  <ele>708.22</ele>
  <time>2026-09-01T19:55:53Z</time>
  <course>271.56</course>
  <speed>0.0</speed>
  <fix>3d</fix>
</trkpt>
<trkpt lat="-35.101221" lon="149.3751754">
  <ele>708.43</ele>
  <time>2026-09-01T19:55:53Z</time>
  <course>93.33</course>
  <speed>0.0282842712474619</speed>
  <fix>3d</fix>
</trkpt>
<trkpt lat="-35.1012209" lon="149.3751756">
  <ele>708.22</ele>
  <time>2026-09-01T19:55:53Z</time>
  <course>271.56</course>
  <speed>0.0</speed>
  <fix>3d</fix>
</trkpt>
<trkpt lat="-35.101221" lon="149.3751754">
  <ele>708.44</ele>
  <time>2026-09-01T19:55:53Z</time>
  <course>93.33</course>
  <speed>0.0282842712474619</speed>
  <fix>3d</fix>
</trkpt>
<trkpt lat="-35.1012209" lon="149.3751756">
  <ele>708.22</ele>
  <time>2026-09-01T19:55:53Z</time>
  <course>271.56</course>
  <speed>0.0</speed>
  <fix>3d</fix>
</trkpt>
<trkpt lat="-35.101221" lon="149.3751754">
  <ele>708.44</ele>
  <time>2026-09-01T19:55:53Z</time>
  <course>93.33</course>
  <speed>0.0282842712474619</speed>
  <fix>3d</fix>
</trkpt>
<trkpt lat="-35.1012209" lon="149.3751756">
  <ele>708.22</ele>
  <time>2026-09-01T19:55:53Z</time>
  <course>271.56</course>
  <speed>0.0</speed>
  <fix>3d</fix>
</trkpt>
<trkpt lat="-35.101221" lon="149.3751754">
  <ele>708.44</ele>
  <time>2026-09-01T19:55:53Z</time>
  <course>93.33</course>
  <speed>0.0282842712474619</speed>
  <fix>3d</fix>
</trkpt>
<trkpt lat="-35.1012209" lon="149.3751756">
  <ele>708.22</ele>
  <time>2026-09-01T19:55:53Z</time>
  <course>271.56</course>
  <speed>0.0</speed>
  <fix>3d</fix>
</trkpt>
<trkpt lat="-35.101221" lon="149.3751754">
  <ele>708.44</ele>
  <time>2026-09-01T19:55:53Z</time>
  <course>93.33</course>
  <speed>0.0282842712474619</speed>
  <fix>3d</fix>
</trkpt>
<trkpt lat="-35.1012209" lon="149.3751756">
  <ele>708.22</ele>
  <time>2026-09-01T19:55:53Z</time>
  <course>271.56</course>
  <speed>0.0</speed>
  <fix>3d</fix>
</trkpt>
<trkpt lat="-35.101221" lon="149.3751754">
  <ele>708.22</ele>
  <time>2026-09-01T19:55:53Z</time>
  <course>93.33</course>
  <speed>0.0282842712474619</speed>
  <fix>3d</fix>
</trkpt>
<trkpt lat="-35.1012209" lon="149.3751756">
  <ele>708.22</ele>
  <time>2026-09-01T19:55:53Z</time>
  <course>271.56</course>
  <speed>0.0</speed>
  <fix>3d</fix>
</trkpt>
<trkpt lat="-35.101221" lon="149.3751754">
  <ele>708.22</ele>
  <time>2026-09-01T19:55:53Z</time>
  <course>93.33</course>
  <speed>0.0282842712474619</speed>
  <fix>3d</fix>
</trkpt>
<trkpt lat="-35.1012209" lon="149.3751756">
  <ele>708.22</ele>
  <time>2026-09-01T19:55:53Z</time>
  <course>271.56</course>
  <speed>0.0</speed>
  <fix>3d</fix>
</trkpt>
<trkpt lat="-35.101221" lon="149.3751754">
  <ele>708.22</ele>
  <time>2026-09-01T19:55:53Z</time>
  <course>93.33</course>
  <speed>0.0282842712474619</speed>
  <fix>3d</fix>
</trkpt>
<trkpt lat="-35.1012209" lon="149.3751756">
  <ele>708.22</ele>
  <time>2026-09-01T19:55:53Z</time>
  <course>271.56</course>
  <speed>0.0</speed>
  <fix>3d</fix>
</trkpt>
<trkpt lat="-35.101221" lon="149.3751754">
  <ele>708.22</ele>
  <time>2026-09-01T19:55:53Z</time>
  <course>93.33</course>
  <speed>0.0282842712474619</speed>
  <fix>3d</fix>
</trkpt>
<trkpt lat="-35.1012209" lon="149.3751756">
  <ele>708.22</ele>
  <time>2026-09-01T19:55:53Z</time>
  <course>271.56</course>
  <speed>0.0</speed>
  <fix>3d</fix>
</trkpt>
<trkpt lat="-35.101221" lon="149.3751754">
  <ele>708.22</ele>
  <time>2026-09-01T19:55:53Z</time>
  <course>93.33</course>
  <speed>0.0282842712474619</speed>
  <fix>3d</fix>
</trkpt>
<trkpt lat="-35.1012209" lon="149.3751756">
  <ele>708.22</ele>
  <time>2026-09-01T19:55:53Z</time>
  <course>271.56</course>
  <speed>0.0</speed>
  <fix>3d</fix>
</trkpt>
<trkpt lat="-35.101221" lon="149.3751754">
  <ele>708.23</ele>
  <time>2026-09-01T19:55:53Z</time>
  <course>93.33</course>
  <speed>0.0282842712474619</speed>
  <fix>3d</fix>
</trkpt>
<trkpt lat="-35.1012209" lon="149.3751756">
  <ele>708.22</ele>
  <time>2026-09-01T19:55:53Z</time>
  <course>271.56</course>
  <speed>0.0</speed>
  <fix>3d</fix>
</trkpt>
<trkpt lat="-35.101221" lon="149.3751754">
  <ele>708.23</ele>
  <time>2026-09-01T19:55:53Z</time>
  <course>93.33</course>
  <speed>0.0282842712474619</speed>
  <fix>3d</fix>
</trkpt>
<trkpt lat="-35.1012209" lon="149.3751756">
  <ele>708.22</ele>
  <time>2026-09-01T19:55:53Z</time>
  <course>271.56</course>
  <speed>0.0</speed>
  <fix>3d</fix>
</trkpt>
<trkpt lat="-35.101221" lon="149.3751754">
  <ele>708.24</ele>
  <time>2026-09-01T19:55:53Z</time>
  <course>93.33</course>
  <speed>0.0282842712474619</speed>
  <fix>3d</fix>
</trkpt>
<trkpt lat="-35.1012209" lon="149.3751756">
  <ele>708.22</ele>
  <time>2026-09-01T19:55:53Z</time>
  <course>271.56</course>
  <speed>0.0</speed>
  <fix>3d</fix>
</trkpt>
<trkpt lat="-35.101221" lon="149.3751754">
  <ele>708.24</ele>
  <time>2026-09-01T19:55:53Z</time>
  <course>93.33</course>
  <speed>0.0282842712474619</speed>
  <fix>3d</fix>
</trkpt>
<trkpt lat="-35.1012209" lon="149.3751756">
  <ele>708.22</ele>
  <time>2026-09-01T19:55:53Z</time>
  <course>271.56</course>
  <speed>0.0</speed>
  <fix>3d</fix>
</trkpt>
<trkpt lat="-35.101221" lon="149.3751754">
  <ele>708.25</ele>
  <time>2026-09-01T19:55:53Z</time>
  <course>93.33</course>
  <speed>0.0282842712474619</speed>
  <fix>3d</fix>
</trkpt>
<trkpt lat="-35.1012209" lon="149.3751756">
  <ele>708.22</ele>
  <time>2026-09-01T19:55:53Z</time>
  <course>271.56</course>
  <speed>0.0</speed>
  <fix>3d</fix>
</trkpt>
<trkpt lat="-35.101221" lon="149.3751754">
  <ele>708.25</ele>
  <time>2026-09-01T19:55:53Z</time>
  <course>93.33</course>
  <speed>0.0282842712474619</speed>
  <fix>3d</fix>
</trkpt>
<trkpt lat="-35.1012209" lon="149.3751756">
  <ele>708.22</ele>
  <time>2026-09-01T19:55:53Z</time>
  <course>271.56</course>
  <speed>0.0</speed>
  <fix>3d</fix>
</trkpt>
<trkpt lat="-35.101221" lon="149.3751754">
  <ele>708.25</ele>
  <time>2026-09-01T19:55:53Z</time>
  <course>93.33</course>
  <speed>0.0282842712474619</speed>
  <fix>3d</fix>
</trkpt>
<trkpt lat="-35.1012209" lon="149.3751756">
  <ele>708.22</ele>
  <time>2026-09-01T19:55:53Z</time>
  <course>271.56</course>
  <speed>0.0</speed>
  <fix>3d</fix>
</trkpt>
<trkpt lat="-35.101221" lon="149.3751754">
  <ele>708.25</ele>
  <time>2026-09-01T19:55:53Z</time>
  <course>93.33</course>
  <speed>0.0282842712474619</speed>
  <fix>3d</fix>
</trkpt>
<trkpt lat="-35.1012209" lon="149.3751756">
  <ele>708.22</ele>
  <time>2026-09-01T19:55:53Z</time>
  <course>271.56</course>
  <speed>0.0</speed>
  <fix>3d</fix>
</trkpt>
<trkpt lat="-35.101221" lon="149.3751754">
  <ele>708.26</ele>
  <time>2026-09-01T19:55:53Z</time>
  <course>93.33</course>
  <speed>0.0282842712474619</speed>
  <fix>3d</fix>
</trkpt>
<trkpt lat="-35.1012209" lon="149.3751756">
  <ele>708.22</ele>
  <time>2026-09-01T19:55:53Z</time>
  <course>271.56</course>
  <speed>0.0</speed>
  <fix>3d</fix>
</trkpt>
<trkpt lat="-35.101221" lon="149.3751754">
  <ele>708.26</ele>
  <time>2026-09-01T19:55:53Z</time>
  <course>93.33</course>
  <speed>0.0282842712474619</speed>
  <fix>3d</fix>
</trkpt>
<trkpt lat="-35.1012209" lon="149.3751756">
  <ele>708.22</ele>
  <time>2026-09-01T19:55:53Z</time>
  <course>271.56</course>
  <speed>0.0</speed>
  <fix>3d</fix>
</trkpt>
<trkpt lat="-35.101221" lon="149.3751754">
  <ele>708.27</ele>
  <time>2026-09-01T19:55:53Z</time>
  <course>93.33</course>
  <speed>0.0282842712474619</speed>
  <fix>3d</fix>
</trkpt>
<trkpt lat="-35.1012209" lon="149.3751756">
  <ele>708.22</ele>
  <time>2026-09-01T19:55:53Z</time>
  <course>271.56</course>
  <speed>0.0</speed>
  <fix>3d</fix>
</trkpt>
<trkpt lat="-35.101221" lon="149.3751754">
  <ele>708.27</ele>
  <time>2026-09-01T19:55:53Z</time>
  <course>93.33</course>
  <speed>0.0282842712474619</speed>
  <fix>3d</fix>
</trkpt>
<trkpt lat="-35.1012209" lon="149.3751756">
  <ele>708.22</ele>
  <time>2026-09-01T19:55:53Z</time>
  <course>271.56</course>
  <speed>0.0</speed>
  <fix>3d</fix>
</trkpt>
<trkpt lat="-35.101221" lon="149.3751754">
  <ele>708.27</ele>
  <time>2026-09-01T19:55:53Z</time>
  <course>93.33</course>
  <speed>0.0282842712474619</speed>
  <fix>3d</fix>
</trkpt>
<trkpt lat="-35.1012209" lon="149.3751756">
  <ele>708.22</ele>
  <time>2026-09-01T19:55:53Z</time>
  <course>271.56</course>
  <speed>0.0</speed>
  <fix>3d</fix>
</trkpt>
<trkpt lat="-35.101221" lon="149.3751754">
  <ele>708.27</ele>
  <time>2026-09-01T19:55:53Z</time>
  <course>93.33</course>
  <speed>0.0282842712474619</speed>
  <fix>3d</fix>
</trkpt>
<trkpt lat="-35.1012209" lon="149.3751756">
  <ele>708.22</ele>
  <time>2026-09-01T19:55:53Z</time>
  <course>271.56</course>
  <speed>0.0</speed>
  <fix>3d</fix>
</trkpt>
<trkpt lat="-35.101221" lon="149.3751754">
  <ele>708.28</ele>
  <time>2026-09-01T19:55:53Z</time>
  <course>93.33</course>
  <speed>0.0282842712474619</speed>
  <fix>3d</fix>
</trkpt>
<trkpt lat="-35.1012209" lon="149.3751756">
  <ele>708.22</ele>
  <time>2026-09-01T19:55:53Z</time>
  <course>271.56</course>
  <speed>0.0</speed>
  <fix>3d</fix>
</trkpt>
<trkpt lat="-35.101221" lon="149.3751754">
  <ele>708.28</ele>
  <time>2026-09-01T19:55:53Z</time>
  <course>93.33</course>
  <speed>0.0282842712474619</speed>
  <fix>3d</fix>
</trkpt>
<trkpt lat="-35.1012209" lon="149.3751756">
  <ele>708.22</ele>
  <time>2026-09-01T19:55:53Z</time>
  <course>271.56</course>
  <speed>0.0</speed>
  <fix>3d</fix>
</trkpt>
<trkpt lat="-35.101221" lon="149.3751754">
  <ele>708.28</ele>
  <time>2026-09-01T19:55:53Z</time>
  <course>93.33</course>
  <speed>0.0282842712474619</speed>
  <fix>3d</fix>
</trkpt>
<trkpt lat="-35.1012209" lon="149.3751756">
  <ele>708.22</ele>
  <time>2026-09-01T19:55:53Z</time>
  <course>271.56</course>
  <speed>0.0</speed>
  <fix>3d</fix>
</trkpt>
<trkpt lat="-35.101221" lon="149.3751754">
  <ele>708.28</ele>
  <time>2026-09-01T19:55:53Z</time>
  <course>93.33</course>
  <speed>0.0282842712474619</speed>
  <fix>3d</fix>
</trkpt>
<trkpt lat="-35.1012209" lon="149.3751756">
  <ele>708.22</ele>
  <time>2026-09-01T19:55:53Z</time>
  <course>271.56</course>
  <speed>0.0</speed>
  <fix>3d</fix>
</trkpt>
<trkpt lat="-35.101221" lon="149.3751754">
  <ele>708.28</ele>
  <time>2026-09-01T19:55:53Z</time>
  <course>93.33</course>
  <speed>0.0282842712474619</speed>
  <fix>3d</fix>
</trkpt>
<trkpt lat="-35.1012209" lon="149.3751756">
  <ele>708.22</ele>
  <time>2026-09-01T19:55:53Z</time>
  <course>271.56</course>
  <speed>0.0</speed>
  <fix>3d</fix>
</trkpt>
<trkpt lat="-35.101221" lon="149.3751754">
  <ele>708.28</ele>
  <time>2026-09-01T19:55:53Z</time>
  <course>93.33</course>
  <speed>0.0282842712474619</speed>
  <fix>3d</fix>
</trkpt>
<trkpt lat="-35.1012209" lon="149.3751756">
  <ele>708.22</ele>
  <time>2026-09-01T19:55:53Z</time>
  <course>271.56</course>
  <speed>0.0</speed>
  <fix>3d</fix>
</trkpt>
<trkpt lat="-35.101221" lon="149.3751754">
  <ele>708.28</ele>
  <time>2026-09-01T19:55:53Z</time>
  <course>93.33</course>
  <speed>0.0282842712474619</speed>
  <fix>3d</fix>
</trkpt>
<trkpt lat="-35.1012209" lon="149.3751756">
  <ele>708.22</ele>
  <time>2026-09-01T19:55:53Z</time>
  <course>271.56</course>
  <speed>0.0</speed>
  <fix>3d</fix>
</trkpt>
<trkpt lat="-35.101221" lon="149.3751754">
  <ele>708.28</ele>
  <time>2026-09-01T19:55:53Z</time>
  <course>93.33</course>
  <speed>0.0282842712474619</speed>
  <fix>3d</fix>
</trkpt>
<trkpt lat="-35.1012209" lon="149.3751756">
  <ele>708.22</ele>
  <time>2026-09-01T19:55:53Z</time>
  <course>271.56</course>
  <speed>0.0</speed>
  <fix>3d</fix>
</trkpt>
<trkpt lat="-35.101221" lon="149.3751754">
  <ele>708.28</ele>
  <time>2026-09-01T19:55:53Z</time>
  <course>93.33</course>
  <speed>0.0282842712474619</speed>
  <fix>3d</fix>
</trkpt>
<trkpt lat="-35.1012209" lon="149.3751756">
  <ele>708.22</ele>
  <time>2026-09-01T19:55:53Z</time>
  <course>271.56</course>
  <speed>0.0</speed>
  <fix>3d</fix>
</trkpt>
<trkpt lat="-35.101221" lon="149.3751754">
  <ele>708.28</ele>
  <time>2026-09-01T19:55:53Z</time>
  <course>93.33</course>
  <speed>0.0282842712474619</speed>
  <fix>3d</fix>
</trkpt>
<trkpt lat="-35.1012209" lon="149.3751756">
  <ele>708.22</ele>
  <time>2026-09-01T19:55:53Z</time>
  <course>271.56</course>
  <speed>0.0</speed>
  <fix>3d</fix>
</trkpt>
<trkpt lat="-35.101221" lon="149.3751754">
  <ele>708.29</ele>
  <time>2026-09-01T19:55:53Z</time>
  <course>93.33</course>
  <speed>0.0282842712474619</speed>
  <fix>3d</fix>
</trkpt>
<trkpt lat="-35.1012209" lon="149.3751756">
  <ele>708.22</ele>
  <time>2026-09-01T19:55:53Z</time>
  <course>271.56</course>
  <speed>0.0</speed>
  <fix>3d</fix>
</trkpt>
<trkpt lat="-35.101221" lon="149.3751754">
  <ele>708.29</ele>
  <time>2026-09-01T19:55:53Z</time>
  <course>93.33</course>
  <speed>0.0282842712474619</speed>
  <fix>3d</fix>
</trkpt>
<trkpt lat="-35.1012209" lon="149.3751756">
  <ele>708.22</ele>
  <time>2026-09-01T19:55:53Z</time>
  <course>271.56</course>
  <speed>0.0</speed>
  <fix>3d</fix>
</trkpt>
<trkpt lat="-35.101221" lon="149.3751754">
  <ele>708.29</ele>
  <time>2026-09-01T19:55:53Z</time>
  <course>93.33</course>
  <speed>0.0282842712474619</speed>
  <fix>3d</fix>
</trkpt>
<trkpt lat="-35.1012209" lon="149.3751756">
  <ele>708.22</ele>
  <time>2026-09-01T19:55:53Z</time>
  <course>271.56</course>
  <speed>0.0</speed>
  <fix>3d</fix>
</trkpt>
<trkpt lat="-35.101221" lon="149.3751754">
  <ele>708.29</ele>
  <time>2026-09-01T19:55:53Z</time>
  <course>93.33</course>
  <speed>0.0282842712474619</speed>
  <fix>3d</fix>
</trkpt>
<trkpt lat="-35.1012209" lon="149.3751756">
  <ele>708.22</ele>
  <time>2026-09-01T19:55:53Z</time>
  <course>271.56</course>
  <speed>0.0</speed>
  <fix>3d</fix>
</trkpt>
<trkpt lat="-35.101221" lon="149.3751754">
  <ele>708.3</ele>
  <time>2026-09-01T19:55:53Z</time>
  <course>93.33</course>
  <speed>0.0282842712474619</speed>
  <fix>3d</fix>
</trkpt>
<trkpt lat="-35.1012209" lon="149.3751756">
  <ele>708.22</ele>
  <time>2026-09-01T19:55:53Z</time>
  <course>271.56</course>
  <speed>0.0</speed>
  <fix>3d</fix>
</trkpt>
<trkpt lat="-35.101221" lon="149.3751754">
  <ele>708.3</ele>
  <time>2026-09-01T19:55:53Z</time>
  <course>93.33</course>
  <speed>0.0282842712474619</speed>
  <fix>3d</fix>
</trkpt>
<trkpt lat="-35.1012209" lon="149.3751756">
  <ele>708.22</ele>
  <time>2026-09-01T19:55:53Z</time>
  <course>271.56</course>
  <speed>0.0</speed>
  <fix>3d</fix>
</trkpt>
<trkpt lat="-35.101221" lon="149.3751754">
  <ele>708.3</ele>
  <time>2026-09-01T19:55:53Z</time>
  <course>93.33</course>
  <speed>0.0282842712474619</speed>
  <fix>3d</fix>
</trkpt>
<trkpt lat="-35.1012209" lon="149.3751756">
  <ele>708.22</ele>
  <time>2026-09-01T19:55:53Z</time>
  <course>271.56</course>
  <speed>0.0</speed>
  <fix>3d</fix>
</trkpt>
<trkpt lat="-35.101221" lon="149.3751754">
  <ele>708.31</ele>
  <time>2026-09-01T19:55:53Z</time>
  <course>93.33</course>
  <speed>0.0282842712474619</speed>
  <fix>3d</fix>
</trkpt>
<trkpt lat="-35.1012209" lon="149.3751756">
  <ele>708.22</ele>
  <time>2026-09-01T19:55:53Z</time>
  <course>271.56</course>
  <speed>0.0</speed>
  <fix>3d</fix>
</trkpt>
<trkpt lat="-35.101221" lon="149.3751754">
  <ele>708.31</ele>
  <time>2026-09-01T19:55:53Z</time>
  <course>93.33</course>
  <speed>0.0282842712474619</speed>
  <fix>3d</fix>
</trkpt>
<trkpt lat="-35.1012209" lon="149.3751756">
  <ele>708.22</ele>
  <time>2026-09-01T19:55:53Z</time>
  <course>271.56</course>
  <speed>0.0</speed>
  <fix>3d</fix>
</trkpt>
<trkpt lat="-35.101221" lon="149.3751754">
  <ele>708.31</ele>
  <time>2026-09-01T19:55:53Z</time>
  <course>93.33</course>
  <speed>0.0282842712474619</speed>
  <fix>3d</fix>
</trkpt>
<trkpt lat="-35.1012209" lon="149.3751756">
  <ele>708.22</ele>
  <time>2026-09-01T19:55:53Z</time>
  <course>271.56</course>
  <speed>0.0</speed>
  <fix>3d</fix>
</trkpt>
<trkpt lat="-35.101221" lon="149.3751754">
  <ele>708.31</ele>
  <time>2026-09-01T19:55:54Z</time>
  <course>93.33</course>
  <speed>0.0282842712474619</speed>
  <fix>3d</fix>
</trkpt>
<trkpt lat="-35.1012209" lon="149.3751756">
  <ele>708.22</ele>
  <time>2026-09-01T19:55:54Z</time>
  <course>271.56</course>
  <speed>0.0</speed>
  <fix>3d</fix>
</trkpt>
<trkpt lat="-35.101221" lon="149.3751754">
  <ele>708.31</ele>
  <time>2026-09-01T19:55:54Z</time>
  <course>93.33</course>
  <speed>0.0282842712474619</speed>
  <fix>3d</fix>
</trkpt>
<trkpt lat="-35.1012209" lon="149.3751756">
  <ele>708.22</ele>
  <time>2026-09-01T19:55:54Z</time>
  <course>271.56</course>
  <speed>0.0</speed>
  <fix>3d</fix>
</trkpt>
<trkpt lat="-35.101221" lon="149.3751754">
  <ele>708.31</ele>
  <time>2026-09-01T19:55:54Z</time>
  <course>93.33</course>
  <speed>0.0282842712474619</speed>
  <fix>3d</fix>
</trkpt>
<trkpt lat="-35.1012209" lon="149.3751756">
  <ele>708.22</ele>
  <time>2026-09-01T19:55:54Z</time>
  <course>271.56</course>
  <speed>0.0</speed>
  <fix>3d</fix>
</trkpt>
<trkpt lat="-35.101221" lon="149.3751754">
  <ele>708.31</ele>
  <time>2026-09-01T19:55:54Z</time>
  <course>93.33</course>
  <speed>0.0282842712474619</speed>
  <fix>3d</fix>
</trkpt>
<trkpt lat="-35.1012209" lon="149.3751756">
  <ele>708.22</ele>
  <time>2026-09-01T19:55:54Z</time>
  <course>271.56</course>
  <speed>0.0</speed>
  <fix>3d</fix>
</trkpt>
<trkpt lat="-35.101221" lon="149.3751754">
  <ele>708.31</ele>
  <time>2026-09-01T19:55:54Z</time>
  <course>93.33</course>
  <speed>0.0282842712474619</speed>
  <fix>3d</fix>
</trkpt>
<trkpt lat="-35.1012209" lon="149.3751756">
  <ele>708.22</ele>
  <time>2026-09-01T19:55:54Z</time>
  <course>271.56</course>
  <speed>0.0</speed>
  <fix>3d</fix>
</trkpt>
<trkpt lat="-35.101221" lon="149.3751754">
  <ele>708.31</ele>
  <time>2026-09-01T19:55:54Z</time>
  <course>93.33</course>
  <speed>0.0282842712474619</speed>
  <fix>3d</fix>
</trkpt>
<trkpt lat="-35.1012209" lon="149.3751756">
  <ele>708.22</ele>
  <time>2026-09-01T19:55:54Z</time>
  <course>271.56</course>
  <speed>0.0</speed>
  <fix>3d</fix>
</trkpt>
<trkpt lat="-35.101221" lon="149.3751754">
  <ele>708.31</ele>
  <time>2026-09-01T19:55:54Z</time>
  <course>93.33</course>
  <speed>0.0282842712474619</speed>
  <fix>3d</fix>
</trkpt>
<trkpt lat="-35.1012209" lon="149.3751756">
  <ele>708.22</ele>
  <time>2026-09-01T19:55:54Z</time>
  <course>271.56</course>
  <speed>0.0</speed>
  <fix>3d</fix>
</trkpt>
<trkpt lat="-35.101221" lon="149.3751754">
  <ele>708.31</ele>
  <time>2026-09-01T19:55:54Z</time>
  <course>93.33</course>
  <speed>0.0282842712474619</speed>
  <fix>3d</fix>
</trkpt>
<trkpt lat="-35.1012209" lon="149.3751756">
  <ele>708.22</ele>
  <time>2026-09-01T19:55:54Z</time>
  <course>271.56</course>
  <speed>0.0</speed>
  <fix>3d</fix>
</trkpt>
<trkpt lat="-35.101221" lon="149.3751754">
  <ele>708.32</ele>
  <time>2026-09-01T19:55:54Z</time>
  <course>93.32</course>
  <speed>0.0282842712474619</speed>
  <fix>3d</fix>
</trkpt>
<trkpt lat="-35.1012209" lon="149.3751756">
  <ele>708.22</ele>
  <time>2026-09-01T19:55:54Z</time>
  <course>271.56</course>
  <speed>0.0</speed>
  <fix>3d</fix>
</trkpt>
<trkpt lat="-35.101221" lon="149.3751754">
  <ele>708.32</ele>
  <time>2026-09-01T19:55:54Z</time>
  <course>93.32</course>
  <speed>0.0282842712474619</speed>
  <fix>3d</fix>
</trkpt>
<trkpt lat="-35.1012209" lon="149.3751756">
  <ele>708.22</ele>
  <time>2026-09-01T19:55:54Z</time>
  <course>271.56</course>
  <speed>0.0</speed>
  <fix>3d</fix>
</trkpt>
<trkpt lat="-35.101221" lon="149.3751754">
  <ele>708.32</ele>
  <time>2026-09-01T19:55:54Z</time>
  <course>93.32</course>
  <speed>0.0282842712474619</speed>
  <fix>3d</fix>
</trkpt>
<trkpt lat="-35.1012209" lon="149.3751756">
  <ele>708.22</ele>
  <time>2026-09-01T19:55:54Z</time>
  <course>271.56</course>
  <speed>0.0</speed>
  <fix>3d</fix>
</trkpt>
<trkpt lat="-35.101221" lon="149.3751754">
  <ele>708.32</ele>
  <time>2026-09-01T19:55:54Z</time>
  <course>93.32</course>
  <speed>0.0282842712474619</speed>
  <fix>3d</fix>
</trkpt>
<trkpt lat="-35.1012209" lon="149.3751756">
  <ele>708.22</ele>
  <time>2026-09-01T19:55:54Z</time>
  <course>271.56</course>
  <speed>0.0</speed>
  <fix>3d</fix>
</trkpt>
<trkpt lat="-35.101221" lon="149.3751754">
  <ele>708.32</ele>
  <time>2026-09-01T19:55:54Z</time>
  <course>93.32</course>
  <speed>0.0282842712474619</speed>
  <fix>3d</fix>
</trkpt>
<trkpt lat="-35.1012209" lon="149.3751756">
  <ele>708.22</ele>
  <time>2026-09-01T19:55:54Z</time>
  <course>271.56</course>
  <speed>0.0</speed>
  <fix>3d</fix>
</trkpt>
<trkpt lat="-35.101221" lon="149.3751754">
  <ele>708.32</ele>
  <time>2026-09-01T19:55:54Z</time>
  <course>93.32</course>
  <speed>0.0282842712474619</speed>
  <fix>3d</fix>
</trkpt>
<trkpt lat="-35.1012209" lon="149.3751756">
  <ele>708.22</ele>
  <time>2026-09-01T19:55:54Z</time>
  <course>271.56</course>
  <speed>0.0</speed>
  <fix>3d</fix>
</trkpt>
<trkpt lat="-35.101221" lon="149.3751754">
  <ele>708.33</ele>
  <time>2026-09-01T19:55:54Z</time>
  <course>93.32</course>
  <speed>0.0282842712474619</speed>
  <fix>3d</fix>
</trkpt>
<trkpt lat="-35.1012209" lon="149.3751756">
  <ele>708.22</ele>
  <time>2026-09-01T19:55:54Z</time>
  <course>271.56</course>
  <speed>0.0</speed>
  <fix>3d</fix>
</trkpt>
<trkpt lat="-35.101221" lon="149.3751754">
  <ele>708.33</ele>
  <time>2026-09-01T19:55:54Z</time>
  <course>93.32</course>
  <speed>0.0282842712474619</speed>
  <fix>3d</fix>
</trkpt>
<trkpt lat="-35.1012209" lon="149.3751756">
  <ele>708.22</ele>
  <time>2026-09-01T19:55:54Z</time>
  <course>271.56</course>
  <speed>0.0</speed>
  <fix>3d</fix>
</trkpt>
<trkpt lat="-35.101221" lon="149.3751754">
  <ele>708.33</ele>
  <time>2026-09-01T19:55:54Z</time>
  <course>93.32</course>
  <speed>0.0282842712474619</speed>
  <fix>3d</fix>
</trkpt>
<trkpt lat="-35.1012209" lon="149.3751756">
  <ele>708.22</ele>
  <time>2026-09-01T19:55:54Z</time>
  <course>271.56</course>
  <speed>0.0</speed>
  <fix>3d</fix>
</trkpt>
<trkpt lat="-35.101221" lon="149.3751754">
  <ele>708.33</ele>
  <time>2026-09-01T19:55:54Z</time>
  <course>93.32</course>
  <speed>0.0282842712474619</speed>
  <fix>3d</fix>
</trkpt>
<trkpt lat="-35.1012209" lon="149.3751756">
  <ele>708.22</ele>
  <time>2026-09-01T19:55:54Z</time>
  <course>271.56</course>
  <speed>0.0</speed>
  <fix>3d</fix>
</trkpt>
<trkpt lat="-35.101221" lon="149.3751754">
  <ele>708.34</ele>
  <time>2026-09-01T19:55:54Z</time>
  <course>93.32</course>
  <speed>0.0282842712474619</speed>
  <fix>3d</fix>
</trkpt>
<trkpt lat="-35.1012209" lon="149.3751756">
  <ele>708.22</ele>
  <time>2026-09-01T19:55:54Z</time>
  <course>271.56</course>
  <speed>0.0</speed>
  <fix>3d</fix>
</trkpt>
<trkpt lat="-35.101221" lon="149.3751754">
  <ele>708.34</ele>
  <time>2026-09-01T19:55:54Z</time>
  <course>93.32</course>
  <speed>0.0282842712474619</speed>
  <fix>3d</fix>
</trkpt>
<trkpt lat="-35.1012209" lon="149.3751756">
  <ele>708.22</ele>
  <time>2026-09-01T19:55:54Z</time>
  <course>271.56</course>
  <speed>0.0</speed>
  <fix>3d</fix>
</trkpt>
<trkpt lat="-35.101221" lon="149.3751754">
  <ele>708.34</ele>
  <time>2026-09-01T19:55:54Z</time>
  <course>93.32</course>
  <speed>0.0282842712474619</speed>
  <fix>3d</fix>
</trkpt>
<trkpt lat="-35.1012209" lon="149.3751756">
  <ele>708.22</ele>
  <time>2026-09-01T19:55:54Z</time>
  <course>271.56</course>
  <speed>0.0</speed>
  <fix>3d</fix>
</trkpt>
<trkpt lat="-35.101221" lon="149.3751754">
  <ele>708.22</ele>
  <time>2026-09-01T19:55:54Z</time>
  <course>93.32</course>
  <speed>0.0282842712474619</speed>
  <fix>3d</fix>
</trkpt>
<trkpt lat="-35.1012209" lon="149.3751756">
  <ele>708.22</ele>
  <time>2026-09-01T19:55:54Z</time>
  <course>271.56</course>
  <speed>0.0</speed>
  <fix>3d</fix>
</trkpt>
<trkpt lat="-35.101221" lon="149.3751754">
  <ele>708.22</ele>
  <time>2026-09-01T19:55:54Z</time>
  <course>93.32</course>
  <speed>0.0282842712474619</speed>
  <fix>3d</fix>
</trkpt>
<trkpt lat="-35.1012209" lon="149.3751756">
  <ele>708.22</ele>
  <time>2026-09-01T19:55:54Z</time>
  <course>271.56</course>
  <speed>0.0</speed>
  <fix>3d</fix>
</trkpt>
<trkpt lat="-35.101221" lon="149.3751754">
  <ele>708.22</ele>
  <time>2026-09-01T19:55:54Z</time>
  <course>93.32</course>
  <speed>0.0282842712474619</speed>
  <fix>3d</fix>
</trkpt>
<trkpt lat="-35.1012209" lon="149.3751756">
  <ele>708.22</ele>
  <time>2026-09-01T19:55:54Z</time>
  <course>271.56</course>
  <speed>0.0</speed>
  <fix>3d</fix>
</trkpt>
<trkpt lat="-35.101221" lon="149.3751754">
  <ele>708.22</ele>
  <time>2026-09-01T19:55:54Z</time>
  <course>93.32</course>
  <speed>0.0282842712474619</speed>
  <fix>3d</fix>
</trkpt>
<trkpt lat="-35.1012209" lon="149.3751756">
  <ele>708.22</ele>
  <time>2026-09-01T19:55:54Z</time>
  <course>271.56</course>
  <speed>0.0</speed>
  <fix>3d</fix>
</trkpt>
<trkpt lat="-35.101221" lon="149.3751754">
  <ele>708.22</ele>
  <time>2026-09-01T19:55:54Z</time>
  <course>93.32</course>
  <speed>0.0282842712474619</speed>
  <fix>3d</fix>
</trkpt>
<trkpt lat="-35.1012209" lon="149.3751756">
  <ele>708.22</ele>
  <time>2026-09-01T19:55:54Z</time>
  <course>271.56</course>
  <speed>0.0</speed>
  <fix>3d</fix>
</trkpt>
<trkpt lat="-35.101221" lon="149.3751754">
  <ele>708.22</ele>
  <time>2026-09-01T19:55:54Z</time>
  <course>93.32</course>
  <speed>0.0282842712474619</speed>
  <fix>3d</fix>
</trkpt>
<trkpt lat="-35.1012209" lon="149.3751756">
  <ele>708.22</ele>
  <time>2026-09-01T19:55:54Z</time>
  <course>271.56</course>
  <speed>0.0</speed>
  <fix>3d</fix>
</trkpt>
<trkpt lat="-35.101221" lon="149.3751754">
  <ele>708.23</ele>
  <time>2026-09-01T19:55:54Z</time>
  <course>93.32</course>
  <speed>0.0282842712474619</speed>
  <fix>3d</fix>
</trkpt>
<trkpt lat="-35.1012209" lon="149.3751756">
  <ele>708.22</ele>
  <time>2026-09-01T19:55:54Z</time>
  <course>271.56</course>
  <speed>0.0</speed>
  <fix>3d</fix>
</trkpt>
<trkpt lat="-35.101221" lon="149.3751754">
  <ele>708.23</ele>
  <time>2026-09-01T19:55:54Z</time>
  <course>93.32</course>
  <speed>0.0282842712474619</speed>
  <fix>3d</fix>
</trkpt>
<trkpt lat="-35.1012209" lon="149.3751756">
  <ele>708.22</ele>
  <time>2026-09-01T19:55:54Z</time>
  <course>271.56</course>
  <speed>0.0</speed>
  <fix>3d</fix>
</trkpt>
<trkpt lat="-35.101221" lon="149.3751754">
  <ele>708.23</ele>
  <time>2026-09-01T19:55:54Z</time>
  <course>93.32</course>
  <speed>0.0282842712474619</speed>
  <fix>3d</fix>
</trkpt>
<trkpt lat="-35.1012209" lon="149.3751756">
  <ele>708.22</ele>
  <time>2026-09-01T19:55:54Z</time>
  <course>271.56</course>
  <speed>0.0</speed>
  <fix>3d</fix>
</trkpt>
<trkpt lat="-35.101221" lon="149.3751754">
  <ele>708.24</ele>
  <time>2026-09-01T19:55:54Z</time>
  <course>93.32</course>
  <speed>0.0282842712474619</speed>
  <fix>3d</fix>
</trkpt>
<trkpt lat="-35.1012209" lon="149.3751756">
  <ele>708.22</ele>
  <time>2026-09-01T19:55:54Z</time>
  <course>271.56</course>
  <speed>0.0</speed>
  <fix>3d</fix>
</trkpt>
<trkpt lat="-35.101221" lon="149.3751754">
  <ele>708.24</ele>
  <time>2026-09-01T19:55:54Z</time>
  <course>93.32</course>
  <speed>0.0282842712474619</speed>
  <fix>3d</fix>
</trkpt>
<trkpt lat="-35.1012209" lon="149.3751756">
  <ele>708.22</ele>
  <time>2026-09-01T19:55:54Z</time>
  <course>271.56</course>
  <speed>0.0</speed>
  <fix>3d</fix>
</trkpt>
<trkpt lat="-35.101221" lon="149.3751754">
  <ele>708.24</ele>
  <time>2026-09-01T19:55:54Z</time>
  <course>93.32</course>
  <speed>0.0282842712474619</speed>
  <fix>3d</fix>
</trkpt>
<trkpt lat="-35.1012209" lon="149.3751756">
  <ele>708.22</ele>
  <time>2026-09-01T19:55:54Z</time>
  <course>271.56</course>
  <speed>0.0</speed>
  <fix>3d</fix>
</trkpt>
<trkpt lat="-35.101221" lon="149.3751754">
  <ele>708.24</ele>
  <time>2026-09-01T19:55:54Z</time>
  <course>93.32</course>
  <speed>0.0282842712474619</speed>
  <fix>3d</fix>
</trkpt>
<trkpt lat="-35.1012209" lon="149.3751756">
  <ele>708.22</ele>
  <time>2026-09-01T19:55:54Z</time>
  <course>271.56</course>
  <speed>0.0</speed>
  <fix>3d</fix>
</trkpt>
<trkpt lat="-35.101221" lon="149.3751754">
  <ele>708.25</ele>
  <time>2026-09-01T19:55:54Z</time>
  <course>93.32</course>
  <speed>0.0282842712474619</speed>
  <fix>3d</fix>
</trkpt>
<trkpt lat="-35.1012209" lon="149.3751756">
  <ele>708.22</ele>
  <time>2026-09-01T19:55:54Z</time>
  <course>271.56</course>
  <speed>0.0</speed>
  <fix>3d</fix>
</trkpt>
<trkpt lat="-35.101221" lon="149.3751754">
  <ele>708.25</ele>
  <time>2026-09-01T19:55:54Z</time>
  <course>93.32</course>
  <speed>0.0282842712474619</speed>
  <fix>3d</fix>
</trkpt>
<trkpt lat="-35.1012209" lon="149.3751756">
  <ele>708.22</ele>
  <time>2026-09-01T19:55:54Z</time>
  <course>271.56</course>
  <speed>0.0</speed>
  <fix>3d</fix>
</trkpt>
<trkpt lat="-35.101221" lon="149.3751754">
  <ele>708.25</ele>
  <time>2026-09-01T19:55:54Z</time>
  <course>93.32</course>
  <speed>0.0282842712474619</speed>
  <fix>3d</fix>
</trkpt>
<trkpt lat="-35.1012209" lon="149.3751756">
  <ele>708.22</ele>
  <time>2026-09-01T19:55:54Z</time>
  <course>271.56</course>
  <speed>0.0</speed>
  <fix>3d</fix>
</trkpt>
<trkpt lat="-35.101221" lon="149.3751754">
  <ele>708.26</ele>
  <time>2026-09-01T19:55:54Z</time>
  <course>93.32</course>
  <speed>0.0282842712474619</speed>
  <fix>3d</fix>
</trkpt>
<trkpt lat="-35.1012209" lon="149.3751756">
  <ele>708.22</ele>
  <time>2026-09-01T19:55:54Z</time>
  <course>271.56</course>
  <speed>0.0</speed>
  <fix>3d</fix>
</trkpt>
<trkpt lat="-35.101221" lon="149.3751754">
  <ele>708.26</ele>
  <time>2026-09-01T19:55:54Z</time>
  <course>93.32</course>
  <speed>0.0282842712474619</speed>
  <fix>3d</fix>
</trkpt>
<trkpt lat="-35.1012209" lon="149.3751756">
  <ele>708.22</ele>
  <time>2026-09-01T19:55:54Z</time>
  <course>271.56</course>
  <speed>0.0</speed>
  <fix>3d</fix>
</trkpt>
<trkpt lat="-35.101221" lon="149.3751754">
  <ele>708.26</ele>
  <time>2026-09-01T19:55:54Z</time>
  <course>93.32</course>
  <speed>0.0282842712474619</speed>
  <fix>3d</fix>
</trkpt>
<trkpt lat="-35.1012209" lon="149.3751756">
  <ele>708.22</ele>
  <time>2026-09-01T19:55:54Z</time>
  <course>271.56</course>
  <speed>0.0</speed>
  <fix>3d</fix>
</trkpt>
<trkpt lat="-35.101221" lon="149.3751754">
  <ele>708.26</ele>
  <time>2026-09-01T19:55:54Z</time>
  <course>93.32</course>
  <speed>0.0282842712474619</speed>
  <fix>3d</fix>
</trkpt>
<trkpt lat="-35.1012209" lon="149.3751756">
  <ele>708.22</ele>
  <time>2026-09-01T19:55:54Z</time>
  <course>271.56</course>
  <speed>0.0</speed>
  <fix>3d</fix>
</trkpt>
<trkpt lat="-35.101221" lon="149.3751754">
  <ele>708.27</ele>
  <time>2026-09-01T19:55:54Z</time>
  <course>93.32</course>
  <speed>0.0282842712474619</speed>
  <fix>3d</fix>
</trkpt>
<trkpt lat="-35.1012209" lon="149.3751756">
  <ele>708.22</ele>
  <time>2026-09-01T19:55:54Z</time>
  <course>271.56</course>
  <speed>0.0</speed>
  <fix>3d</fix>
</trkpt>
<trkpt lat="-35.101221" lon="149.3751754">
  <ele>708.27</ele>
  <time>2026-09-01T19:55:54Z</time>
  <course>93.32</course>
  <speed>0.0282842712474619</speed>
  <fix>3d</fix>
</trkpt>
<trkpt lat="-35.1012209" lon="149.3751756">
  <ele>708.22</ele>
  <time>2026-09-01T19:55:54Z</time>
  <course>271.56</course>
  <speed>0.0</speed>
  <fix>3d</fix>
</trkpt>
<trkpt lat="-35.101221" lon="149.3751754">
  <ele>708.27</ele>
  <time>2026-09-01T19:55:54Z</time>
  <course>93.32</course>
  <speed>0.0282842712474619</speed>
  <fix>3d</fix>
</trkpt>
<trkpt lat="-35.1012209" lon="149.3751756">
  <ele>708.22</ele>
  <time>2026-09-01T19:55:54Z</time>
  <course>271.56</course>
  <speed>0.0</speed>
  <fix>3d</fix>
</trkpt>
<trkpt lat="-35.101221" lon="149.3751754">
  <ele>708.28</ele>
  <time>2026-09-01T19:55:54Z</time>
  <course>93.32</course>
  <speed>0.0282842712474619</speed>
  <fix>3d</fix>
</trkpt>
<trkpt lat="-35.1012209" lon="149.3751756">
  <ele>708.22</ele>
  <time>2026-09-01T19:55:54Z</time>
  <course>271.56</course>
  <speed>0.0</speed>
  <fix>3d</fix>
</trkpt>
<trkpt lat="-35.101221" lon="149.3751754">
  <ele>708.28</ele>
  <time>2026-09-01T19:55:54Z</time>
  <course>93.32</course>
  <speed>0.0282842712474619</speed>
  <fix>3d</fix>
</trkpt>
<trkpt lat="-35.1012209" lon="149.3751756">
  <ele>708.22</ele>
  <time>2026-09-01T19:55:54Z</time>
  <course>271.56</course>
  <speed>0.0</speed>
  <fix>3d</fix>
</trkpt>
<trkpt lat="-35.101221" lon="149.3751754">
  <ele>708.28</ele>
  <time>2026-09-01T19:55:54Z</time>
  <course>93.32</course>
  <speed>0.0282842712474619</speed>
  <fix>3d</fix>
</trkpt>
<trkpt lat="-35.1012209" lon="149.3751756">
  <ele>708.22</ele>
  <time>2026-09-01T19:55:54Z</time>
  <course>271.56</course>
  <speed>0.0</speed>
  <fix>3d</fix>
</trkpt>
<trkpt lat="-35.101221" lon="149.3751754">
  <ele>708.29</ele>
  <time>2026-09-01T19:55:54Z</time>
  <course>93.32</course>
  <speed>0.0282842712474619</speed>
  <fix>3d</fix>
</trkpt>
<trkpt lat="-35.1012209" lon="149.3751756">
  <ele>708.22</ele>
  <time>2026-09-01T19:55:54Z</time>
  <course>271.56</course>
  <speed>0.0</speed>
  <fix>3d</fix>
</trkpt>
<trkpt lat="-35.101221" lon="149.3751754">
  <ele>708.29</ele>
  <time>2026-09-01T19:55:54Z</time>
  <course>93.32</course>
  <speed>0.0282842712474619</speed>
  <fix>3d</fix>
</trkpt>
<trkpt lat="-35.1012209" lon="149.3751756">
  <ele>708.22</ele>
  <time>2026-09-01T19:55:54Z</time>
  <course>271.56</course>
  <speed>0.0</speed>
  <fix>3d</fix>
</trkpt>
<trkpt lat="-35.101221" lon="149.3751754">
  <ele>708.29</ele>
  <time>2026-09-01T19:55:54Z</time>
  <course>93.32</course>
  <speed>0.0282842712474619</speed>
  <fix>3d</fix>
</trkpt>
<trkpt lat="-35.1012209" lon="149.3751756">
  <ele>708.22</ele>
  <time>2026-09-01T19:55:54Z</time>
  <course>271.56</course>
  <speed>0.0</speed>
  <fix>3d</fix>
</trkpt>
<trkpt lat="-35.101221" lon="149.3751754">
  <ele>708.29</ele>
  <time>2026-09-01T19:55:54Z</time>
  <course>93.32</course>
  <speed>0.0282842712474619</speed>
  <fix>3d</fix>
</trkpt>
<trkpt lat="-35.1012209" lon="149.3751756">
  <ele>708.22</ele>
  <time>2026-09-01T19:55:54Z</time>
  <course>271.56</course>
  <speed>0.0</speed>
  <fix>3d</fix>
</trkpt>
<trkpt lat="-35.101221" lon="149.3751754">
  <ele>708.3</ele>
  <time>2026-09-01T19:55:54Z</time>
  <course>93.32</course>
  <speed>0.0282842712474619</speed>
  <fix>3d</fix>
</trkpt>
<trkpt lat="-35.1012209" lon="149.3751756">
  <ele>708.22</ele>
  <time>2026-09-01T19:55:54Z</time>
  <course>271.56</course>
  <speed>0.0</speed>
  <fix>3d</fix>
</trkpt>
<trkpt lat="-35.101221" lon="149.3751754">
  <ele>708.3</ele>
  <time>2026-09-01T19:55:54Z</time>
  <course>93.32</course>
  <speed>0.0282842712474619</speed>
  <fix>3d</fix>
</trkpt>
<trkpt lat="-35.1012209" lon="149.3751756">
  <ele>708.22</ele>
  <time>2026-09-01T19:55:54Z</time>
  <course>271.56</course>
  <speed>0.0</speed>
  <fix>3d</fix>
</trkpt>
<trkpt lat="-35.101221" lon="149.3751754">
  <ele>708.31</ele>
  <time>2026-09-01T19:55:54Z</time>
  <course>93.32</course>
  <speed>0.0282842712474619</speed>
  <fix>3d</fix>
</trkpt>
<trkpt lat="-35.1012209" lon="149.3751756">
  <ele>708.22</ele>
  <time>2026-09-01T19:55:54Z</time>
  <course>271.56</course>
  <speed>0.0</speed>
  <fix>3d</fix>
</trkpt>
<trkpt lat="-35.101221" lon="149.3751754">
  <ele>708.31</ele>
  <time>2026-09-01T19:55:54Z</time>
  <course>93.32</course>
  <speed>0.0282842712474619</speed>
  <fix>3d</fix>
</trkpt>
<trkpt lat="-35.1012209" lon="149.3751756">
  <ele>708.22</ele>
  <time>2026-09-01T19:55:54Z</time>
  <course>271.56</course>
  <speed>0.0</speed>
  <fix>3d</fix>
</trkpt>
<trkpt lat="-35.101221" lon="149.3751754">
  <ele>708.31</ele>
  <time>2026-09-01T19:55:54Z</time>
  <course>93.32</course>
  <speed>0.0282842712474619</speed>
  <fix>3d</fix>
</trkpt>
<trkpt lat="-35.1012209" lon="149.3751756">
  <ele>708.22</ele>
  <time>2026-09-01T19:55:54Z</time>
  <course>271.56</course>
  <speed>0.0</speed>
  <fix>3d</fix>
</trkpt>
<trkpt lat="-35.101221" lon="149.3751754">
  <ele>708.32</ele>
  <time>2026-09-01T19:55:54Z</time>
  <course>93.32</course>
  <speed>0.0282842712474619</speed>
  <fix>3d</fix>
</trkpt>
<trkpt lat="-35.1012209" lon="149.3751756">
  <ele>708.22</ele>
  <time>2026-09-01T19:55:54Z</time>
  <course>271.56</course>
  <speed>0.0</speed>
  <fix>3d</fix>
</trkpt>
<trkpt lat="-35.101221" lon="149.3751754">
  <ele>708.32</ele>
  <time>2026-09-01T19:55:54Z</time>
  <course>93.32</course>
  <speed>0.0282842712474619</speed>
  <fix>3d</fix>
</trkpt>
<trkpt lat="-35.1012209" lon="149.3751756">
  <ele>708.22</ele>
  <time>2026-09-01T19:55:54Z</time>
  <course>271.56</course>
  <speed>0.0</speed>
  <fix>3d</fix>
</trkpt>
<trkpt lat="-35.101221" lon="149.3751754">
  <ele>708.32</ele>
  <time>2026-09-01T19:55:54Z</time>
  <course>93.32</course>
  <speed>0.0282842712474619</speed>
  <fix>3d</fix>
</trkpt>
<trkpt lat="-35.1012209" lon="149.3751756">
  <ele>708.22</ele>
  <time>2026-09-01T19:55:54Z</time>
  <course>271.56</course>
  <speed>0.0</speed>
  <fix>3d</fix>
</trkpt>
<trkpt lat="-35.101221" lon="149.3751754">
  <ele>708.33</ele>
  <time>2026-09-01T19:55:54Z</time>
  <course>93.32</course>
  <speed>0.0282842712474619</speed>
  <fix>3d</fix>
</trkpt>
<trkpt lat="-35.1012209" lon="149.3751756">
  <ele>708.22</ele>
  <time>2026-09-01T19:55:54Z</time>
  <course>271.56</course>
  <speed>0.0</speed>
  <fix>3d</fix>
</trkpt>
<trkpt lat="-35.101221" lon="149.3751754">
  <ele>708.33</ele>
  <time>2026-09-01T19:55:54Z</time>
  <course>93.32</course>
  <speed>0.0282842712474619</speed>
  <fix>3d</fix>
</trkpt>
<trkpt lat="-35.1012209" lon="149.3751756">
  <ele>708.22</ele>
  <time>2026-09-01T19:55:54Z</time>
  <course>271.56</course>
  <speed>0.0</speed>
  <fix>3d</fix>
</trkpt>
<trkpt lat="-35.101221" lon="149.3751754">
  <ele>708.33</ele>
  <time>2026-09-01T19:55:54Z</time>
  <course>93.32</course>
  <speed>0.0282842712474619</speed>
  <fix>3d</fix>
</trkpt>
<trkpt lat="-35.1012209" lon="149.3751756">
  <ele>708.22</ele>
  <time>2026-09-01T19:55:54Z</time>
  <course>271.56</course>
  <speed>0.0</speed>
  <fix>3d</fix>
</trkpt>
<trkpt lat="-35.101221" lon="149.3751754">
  <ele>708.34</ele>
  <time>2026-09-01T19:55:54Z</time>
  <course>93.31</course>
  <speed>0.0282842712474619</speed>
  <fix>3d</fix>
</trkpt>
<trkpt lat="-35.1012209" lon="149.3751756">
  <ele>708.22</ele>
  <time>2026-09-01T19:55:54Z</time>
  <course>271.56</course>
  <speed>0.0</speed>
  <fix>3d</fix>
</trkpt>
<trkpt lat="-35.101221" lon="149.3751754">
  <ele>708.34</ele>
  <time>2026-09-01T19:55:54Z</time>
  <course>93.31</course>
  <speed>0.0282842712474619</speed>
  <fix>3d</fix>
</trkpt>
<trkpt lat="-35.1012209" lon="149.3751756">
  <ele>708.22</ele>
  <time>2026-09-01T19:55:54Z</time>
  <course>271.56</course>
  <speed>0.0</speed>
  <fix>3d</fix>
</trkpt>
<trkpt lat="-35.101221" lon="149.3751754">
  <ele>708.34</ele>
  <time>2026-09-01T19:55:54Z</time>
  <course>93.31</course>
  <speed>0.0282842712474619</speed>
  <fix>3d</fix>
</trkpt>
<trkpt lat="-35.1012209" lon="149.3751756">
  <ele>708.22</ele>
  <time>2026-09-01T19:55:54Z</time>
  <course>271.56</course>
  <speed>0.0</speed>
  <fix>3d</fix>
</trkpt>
<trkpt lat="-35.101221" lon="149.3751754">
  <ele>708.34</ele>
  <time>2026-09-01T19:55:54Z</time>
  <course>93.31</course>
  <speed>0.0282842712474619</speed>
  <fix>3d</fix>
</trkpt>
<trkpt lat="-35.1012209" lon="149.3751756">
  <ele>708.22</ele>
  <time>2026-09-01T19:55:54Z</time>
  <course>271.56</course>
  <speed>0.0</speed>
  <fix>3d</fix>
</trkpt>
<trkpt lat="-35.101221" lon="149.3751754">
  <ele>708.35</ele>
  <time>2026-09-01T19:55:54Z</time>
  <course>93.31</course>
  <speed>0.0282842712474619</speed>
  <fix>3d</fix>
</trkpt>
<trkpt lat="-35.1012209" lon="149.3751756">
  <ele>708.22</ele>
  <time>2026-09-01T19:55:54Z</time>
  <course>271.56</course>
  <speed>0.0</speed>
  <fix>3d</fix>
</trkpt>
<trkpt lat="-35.101221" lon="149.3751754">
  <ele>708.35</ele>
  <time>2026-09-01T19:55:54Z</time>
  <course>93.31</course>
  <speed>0.0282842712474619</speed>
  <fix>3d</fix>
</trkpt>
<trkpt lat="-35.1012209" lon="149.3751756">
  <ele>708.22</ele>
  <time>2026-09-01T19:55:54Z</time>
  <course>271.56</course>
  <speed>0.0</speed>
  <fix>3d</fix>
</trkpt>
<trkpt lat="-35.101221" lon="149.3751754">
  <ele>708.36</ele>
  <time>2026-09-01T19:55:54Z</time>
  <course>93.31</course>
  <speed>0.0282842712474619</speed>
  <fix>3d</fix>
</trkpt>
<trkpt lat="-35.1012209" lon="149.3751756">
  <ele>708.22</ele>
  <time>2026-09-01T19:55:54Z</time>
  <course>271.56</course>
  <speed>0.0</speed>
  <fix>3d</fix>
</trkpt>
<trkpt lat="-35.101221" lon="149.3751754">
  <ele>708.36</ele>
  <time>2026-09-01T19:55:54Z</time>
  <course>93.31</course>
  <speed>0.0282842712474619</speed>
  <fix>3d</fix>
</trkpt>
<trkpt lat="-35.1012209" lon="149.3751756">
  <ele>708.22</ele>
  <time>2026-09-01T19:55:54Z</time>
  <course>271.56</course>
  <speed>0.0</speed>
  <fix>3d</fix>
</trkpt>
<trkpt lat="-35.101221" lon="149.3751754">
  <ele>708.36</ele>
  <time>2026-09-01T19:55:54Z</time>
  <course>93.31</course>
  <speed>0.0282842712474619</speed>
  <fix>3d</fix>
</trkpt>
<trkpt lat="-35.1012209" lon="149.3751756">
  <ele>708.22</ele>
  <time>2026-09-01T19:55:54Z</time>
  <course>271.56</course>
  <speed>0.0</speed>
  <fix>3d</fix>
</trkpt>
<trkpt lat="-35.101221" lon="149.3751754">
  <ele>708.37</ele>
  <time>2026-09-01T19:55:54Z</time>
  <course>93.31</course>
  <speed>0.0282842712474619</speed>
  <fix>3d</fix>
</trkpt>
<trkpt lat="-35.1012209" lon="149.3751756">
  <ele>708.22</ele>
  <time>2026-09-01T19:55:54Z</time>
  <course>271.56</course>
  <speed>0.0</speed>
  <fix>3d</fix>
</trkpt>
<trkpt lat="-35.101221" lon="149.3751754">
  <ele>708.37</ele>
  <time>2026-09-01T19:55:54Z</time>
  <course>93.31</course>
  <speed>0.0282842712474619</speed>
  <fix>3d</fix>
</trkpt>
<trkpt lat="-35.1012209" lon="149.3751756">
  <ele>708.22</ele>
  <time>2026-09-01T19:55:54Z</time>
  <course>271.56</course>
  <speed>0.0</speed>
  <fix>3d</fix>
</trkpt>
<trkpt lat="-35.101221" lon="149.3751754">
  <ele>708.37</ele>
  <time>2026-09-01T19:55:54Z</time>
  <course>93.31</course>
  <speed>0.0282842712474619</speed>
  <fix>3d</fix>
</trkpt>
<trkpt lat="-35.1012209" lon="149.3751756">
  <ele>708.22</ele>
  <time>2026-09-01T19:55:54Z</time>
  <course>271.56</course>
  <speed>0.0</speed>
  <fix>3d</fix>
</trkpt>
<trkpt lat="-35.101221" lon="149.3751754">
  <ele>708.37</ele>
  <time>2026-09-01T19:55:54Z</time>
  <course>93.31</course>
  <speed>0.0282842712474619</speed>
  <fix>3d</fix>
</trkpt>
<trkpt lat="-35.1012209" lon="149.3751756">
  <ele>708.22</ele>
  <time>2026-09-01T19:55:54Z</time>
  <course>271.56</course>
  <speed>0.0</speed>
  <fix>3d</fix>
</trkpt>
<trkpt lat="-35.101221" lon="149.3751754">
  <ele>708.37</ele>
  <time>2026-09-01T19:55:54Z</time>
  <course>93.31</course>
  <speed>0.0282842712474619</speed>
  <fix>3d</fix>
</trkpt>
<trkpt lat="-35.1012209" lon="149.3751756">
  <ele>708.22</ele>
  <time>2026-09-01T19:55:54Z</time>
  <course>271.56</course>
  <speed>0.0</speed>
  <fix>3d</fix>
</trkpt>
<trkpt lat="-35.101221" lon="149.3751754">
  <ele>708.37</ele>
  <time>2026-09-01T19:55:54Z</time>
  <course>93.31</course>
  <speed>0.0282842712474619</speed>
  <fix>3d</fix>
</trkpt>
<trkpt lat="-35.1012209" lon="149.3751756">
  <ele>708.22</ele>
  <time>2026-09-01T19:55:54Z</time>
  <course>271.56</course>
  <speed>0.0</speed>
  <fix>3d</fix>
</trkpt>
<trkpt lat="-35.101221" lon="149.3751754">
  <ele>708.37</ele>
  <time>2026-09-01T19:55:54Z</time>
  <course>93.31</course>
  <speed>0.0282842712474619</speed>
  <fix>3d</fix>
</trkpt>
<trkpt lat="-35.1012209" lon="149.3751756">
  <ele>708.22</ele>
  <time>2026-09-01T19:55:54Z</time>
  <course>271.56</course>
  <speed>0.0</speed>
  <fix>3d</fix>
</trkpt>
<trkpt lat="-35.101221" lon="149.3751754">
  <ele>708.37</ele>
  <time>2026-09-01T19:55:54Z</time>
  <course>93.31</course>
  <speed>0.0282842712474619</speed>
  <fix>3d</fix>
</trkpt>
<trkpt lat="-35.1012209" lon="149.3751756">
  <ele>708.22</ele>
  <time>2026-09-01T19:55:54Z</time>
  <course>271.56</course>
  <speed>0.0</speed>
  <fix>3d</fix>
</trkpt>
<trkpt lat="-35.101221" lon="149.3751754">
  <ele>708.37</ele>
  <time>2026-09-01T19:55:54Z</time>
  <course>93.31</course>
  <speed>0.0282842712474619</speed>
  <fix>3d</fix>
</trkpt>
<trkpt lat="-35.1012209" lon="149.3751756">
  <ele>708.22</ele>
  <time>2026-09-01T19:55:54Z</time>
  <course>271.56</course>
  <speed>0.0</speed>
  <fix>3d</fix>
</trkpt>
<trkpt lat="-35.101221" lon="149.3751754">
  <ele>708.38</ele>
  <time>2026-09-01T19:55:54Z</time>
  <course>93.31</course>
  <speed>0.0282842712474619</speed>
  <fix>3d</fix>
</trkpt>
<trkpt lat="-35.1012209" lon="149.3751756">
  <ele>708.22</ele>
  <time>2026-09-01T19:55:54Z</time>
  <course>271.56</course>
  <speed>0.0</speed>
  <fix>3d</fix>
</trkpt>
<trkpt lat="-35.101221" lon="149.3751754">
  <ele>708.22</ele>
  <time>2026-09-01T19:55:54Z</time>
  <course>93.31</course>
  <speed>0.0282842712474619</speed>
  <fix>3d</fix>
</trkpt>
<trkpt lat="-35.1012209" lon="149.3751756">
  <ele>708.22</ele>
  <time>2026-09-01T19:55:54Z</time>
  <course>271.56</course>
  <speed>0.0</speed>
  <fix>3d</fix>
</trkpt>
<trkpt lat="-35.101221" lon="149.3751754">
  <ele>708.22</ele>
  <time>2026-09-01T19:55:54Z</time>
  <course>93.31</course>
  <speed>0.0282842712474619</speed>
  <fix>3d</fix>
</trkpt>
<trkpt lat="-35.1012209" lon="149.3751756">
  <ele>708.22</ele>
  <time>2026-09-01T19:55:54Z</time>
  <course>271.56</course>
  <speed>0.0</speed>
  <fix>3d</fix>
</trkpt>
<trkpt lat="-35.101221" lon="149.3751754">
  <ele>708.22</ele>
  <time>2026-09-01T19:55:54Z</time>
  <course>93.31</course>
  <speed>0.0282842712474619</speed>
  <fix>3d</fix>
</trkpt>
<trkpt lat="-35.1012209" lon="149.3751756">
  <ele>708.22</ele>
  <time>2026-09-01T19:55:54Z</time>
  <course>271.56</course>
  <speed>0.0</speed>
  <fix>3d</fix>
</trkpt>
<trkpt lat="-35.101221" lon="149.3751754">
  <ele>708.22</ele>
  <time>2026-09-01T19:55:54Z</time>
  <course>93.31</course>
  <speed>0.0282842712474619</speed>
  <fix>3d</fix>
</trkpt>
<trkpt lat="-35.1012209" lon="149.3751756">
  <ele>708.22</ele>
  <time>2026-09-01T19:55:54Z</time>
  <course>271.56</course>
  <speed>0.0</speed>
  <fix>3d</fix>
</trkpt>
<trkpt lat="-35.101221" lon="149.3751754">
  <ele>708.22</ele>
  <time>2026-09-01T19:55:54Z</time>
  <course>93.31</course>
  <speed>0.0282842712474619</speed>
  <fix>3d</fix>
</trkpt>
<trkpt lat="-35.1012209" lon="149.3751756">
  <ele>708.22</ele>
  <time>2026-09-01T19:55:54Z</time>
  <course>271.56</course>
  <speed>0.0</speed>
  <fix>3d</fix>
</trkpt>
<trkpt lat="-35.101221" lon="149.3751754">
  <ele>708.22</ele>
  <time>2026-09-01T19:55:54Z</time>
  <course>93.31</course>
  <speed>0.0282842712474619</speed>
  <fix>3d</fix>
</trkpt>
<trkpt lat="-35.1012209" lon="149.3751756">
  <ele>708.22</ele>
  <time>2026-09-01T19:55:54Z</time>
  <course>271.56</course>
  <speed>0.0</speed>
  <fix>3d</fix>
</trkpt>
<trkpt lat="-35.101221" lon="149.3751754">
  <ele>708.23</ele>
  <time>2026-09-01T19:55:54Z</time>
  <course>93.31</course>
  <speed>0.0282842712474619</speed>
  <fix>3d</fix>
</trkpt>
<trkpt lat="-35.1012209" lon="149.3751756">
  <ele>708.22</ele>
  <time>2026-09-01T19:55:54Z</time>
  <course>271.56</course>
  <speed>0.0</speed>
  <fix>3d</fix>
</trkpt>
<trkpt lat="-35.101221" lon="149.3751754">
  <ele>708.23</ele>
  <time>2026-09-01T19:55:54Z</time>
  <course>93.31</course>
  <speed>0.0282842712474619</speed>
  <fix>3d</fix>
</trkpt>
<trkpt lat="-35.1012209" lon="149.3751756">
  <ele>708.22</ele>
  <time>2026-09-01T19:55:54Z</time>
  <course>271.56</course>
  <speed>0.0</speed>
  <fix>3d</fix>
</trkpt>
<trkpt lat="-35.101221" lon="149.3751754">
  <ele>708.23</ele>
  <time>2026-09-01T19:55:54Z</time>
  <course>93.31</course>
  <speed>0.0282842712474619</speed>
  <fix>3d</fix>
</trkpt>
<trkpt lat="-35.1012209" lon="149.3751756">
  <ele>708.22</ele>
  <time>2026-09-01T19:55:54Z</time>
  <course>271.56</course>
  <speed>0.0</speed>
  <fix>3d</fix>
</trkpt>
<trkpt lat="-35.101221" lon="149.3751754">
  <ele>708.23</ele>
  <time>2026-09-01T19:55:54Z</time>
  <course>93.31</course>
  <speed>0.0282842712474619</speed>
  <fix>3d</fix>
</trkpt>
<trkpt lat="-35.1012209" lon="149.3751756">
  <ele>708.22</ele>
  <time>2026-09-01T19:55:54Z</time>
  <course>271.56</course>
  <speed>0.0</speed>
  <fix>3d</fix>
</trkpt>
<trkpt lat="-35.101221" lon="149.3751754">
  <ele>708.23</ele>
  <time>2026-09-01T19:55:54Z</time>
  <course>93.31</course>
  <speed>0.0282842712474619</speed>
  <fix>3d</fix>
</trkpt>
<trkpt lat="-35.1012209" lon="149.3751756">
  <ele>708.22</ele>
  <time>2026-09-01T19:55:54Z</time>
  <course>271.56</course>
  <speed>0.0</speed>
  <fix>3d</fix>
</trkpt>
<trkpt lat="-35.101221" lon="149.3751754">
  <ele>708.24</ele>
  <time>2026-09-01T19:55:54Z</time>
  <course>93.31</course>
  <speed>0.0282842712474619</speed>
  <fix>3d</fix>
</trkpt>
<trkpt lat="-35.1012209" lon="149.3751756">
  <ele>708.22</ele>
  <time>2026-09-01T19:55:54Z</time>
  <course>271.56</course>
  <speed>0.0</speed>
  <fix>3d</fix>
</trkpt>
<trkpt lat="-35.101221" lon="149.3751754">
  <ele>708.24</ele>
  <time>2026-09-01T19:55:54Z</time>
  <course>93.31</course>
  <speed>0.0282842712474619</speed>
  <fix>3d</fix>
</trkpt>
<trkpt lat="-35.1012209" lon="149.3751756">
  <ele>708.22</ele>
  <time>2026-09-01T19:55:54Z</time>
  <course>271.56</course>
  <speed>0.0</speed>
  <fix>3d</fix>
</trkpt>
<trkpt lat="-35.101221" lon="149.3751754">
  <ele>708.24</ele>
  <time>2026-09-01T19:55:54Z</time>
  <course>93.31</course>
  <speed>0.0282842712474619</speed>
  <fix>3d</fix>
</trkpt>
<trkpt lat="-35.1012209" lon="149.3751756">
  <ele>708.22</ele>
  <time>2026-09-01T19:55:54Z</time>
  <course>271.56</course>
  <speed>0.0</speed>
  <fix>3d</fix>
</trkpt>
<trkpt lat="-35.101221" lon="149.3751754">
  <ele>708.24</ele>
  <time>2026-09-01T19:55:54Z</time>
  <course>93.31</course>
  <speed>0.0282842712474619</speed>
  <fix>3d</fix>
</trkpt>
<trkpt lat="-35.1012209" lon="149.3751756">
  <ele>708.22</ele>
  <time>2026-09-01T19:55:54Z</time>
  <course>271.56</course>
  <speed>0.0</speed>
  <fix>3d</fix>
</trkpt>
<trkpt lat="-35.101221" lon="149.3751754">
  <ele>708.24</ele>
  <time>2026-09-01T19:55:54Z</time>
  <course>93.31</course>
  <speed>0.0282842712474619</speed>
  <fix>3d</fix>
</trkpt>
<trkpt lat="-35.1012209" lon="149.3751756">
  <ele>708.22</ele>
  <time>2026-09-01T19:55:54Z</time>
  <course>271.56</course>
  <speed>0.0</speed>
  <fix>3d</fix>
</trkpt>
<trkpt lat="-35.101221" lon="149.3751754">
  <ele>708.24</ele>
  <time>2026-09-01T19:55:54Z</time>
  <course>93.31</course>
  <speed>0.0282842712474619</speed>
  <fix>3d</fix>
</trkpt>
<trkpt lat="-35.1012209" lon="149.3751756">
  <ele>708.22</ele>
  <time>2026-09-01T19:55:54Z</time>
  <course>271.56</course>
  <speed>0.0</speed>
  <fix>3d</fix>
</trkpt>
<trkpt lat="-35.101221" lon="149.3751754">
  <ele>708.24</ele>
  <time>2026-09-01T19:55:54Z</time>
  <course>93.31</course>
  <speed>0.0282842712474619</speed>
  <fix>3d</fix>
</trkpt>
<trkpt lat="-35.1012209" lon="149.3751756">
  <ele>708.22</ele>
  <time>2026-09-01T19:55:54Z</time>
  <course>271.56</course>
  <speed>0.0</speed>
  <fix>3d</fix>
</trkpt>
<trkpt lat="-35.101221" lon="149.3751754">
  <ele>708.24</ele>
  <time>2026-09-01T19:55:54Z</time>
  <course>93.31</course>
  <speed>0.0282842712474619</speed>
  <fix>3d</fix>
</trkpt>
<trkpt lat="-35.1012209" lon="149.3751756">
  <ele>708.22</ele>
  <time>2026-09-01T19:55:54Z</time>
  <course>271.56</course>
  <speed>0.0</speed>
  <fix>3d</fix>
</trkpt>
<trkpt lat="-35.101221" lon="149.3751754">
  <ele>708.25</ele>
  <time>2026-09-01T19:55:54Z</time>
  <course>93.3</course>
  <speed>0.0282842712474619</speed>
  <fix>3d</fix>
</trkpt>
<trkpt lat="-35.1012209" lon="149.3751756">
  <ele>708.22</ele>
  <time>2026-09-01T19:55:54Z</time>
  <course>271.56</course>
  <speed>0.0</speed>
  <fix>3d</fix>
</trkpt>
<trkpt lat="-35.101221" lon="149.3751754">
  <ele>708.25</ele>
  <time>2026-09-01T19:55:54Z</time>
  <course>93.3</course>
  <speed>0.0282842712474619</speed>
  <fix>3d</fix>
</trkpt>
<trkpt lat="-35.1012209" lon="149.3751756">
  <ele>708.22</ele>
  <time>2026-09-01T19:55:54Z</time>
  <course>271.56</course>
  <speed>0.0</speed>
  <fix>3d</fix>
</trkpt>
<trkpt lat="-35.101221" lon="149.3751754">
  <ele>708.25</ele>
  <time>2026-09-01T19:55:54Z</time>
  <course>93.3</course>
  <speed>0.0282842712474619</speed>
  <fix>3d</fix>
</trkpt>
<trkpt lat="-35.1012209" lon="149.3751756">
  <ele>708.22</ele>
  <time>2026-09-01T19:55:54Z</time>
  <course>271.56</course>
  <speed>0.0</speed>
  <fix>3d</fix>
</trkpt>
<trkpt lat="-35.101221" lon="149.3751754">
  <ele>708.25</ele>
  <time>2026-09-01T19:55:54Z</time>
  <course>93.3</course>
  <speed>0.0282842712474619</speed>
  <fix>3d</fix>
</trkpt>
<trkpt lat="-35.1012209" lon="149.3751756">
  <ele>708.22</ele>
  <time>2026-09-01T19:55:54Z</time>
  <course>271.56</course>
  <speed>0.0</speed>
  <fix>3d</fix>
</trkpt>
<trkpt lat="-35.101221" lon="149.3751754">
  <ele>708.25</ele>
  <time>2026-09-01T19:55:54Z</time>
  <course>93.3</course>
  <speed>0.0282842712474619</speed>
  <fix>3d</fix>
</trkpt>
<trkpt lat="-35.1012209" lon="149.3751756">
  <ele>708.22</ele>
  <time>2026-09-01T19:55:54Z</time>
  <course>271.56</course>
  <speed>0.0</speed>
  <fix>3d</fix>
</trkpt>
<trkpt lat="-35.101221" lon="149.3751754">
  <ele>708.25</ele>
  <time>2026-09-01T19:55:54Z</time>
  <course>93.3</course>
  <speed>0.0282842712474619</speed>
  <fix>3d</fix>
</trkpt>
<trkpt lat="-35.1012209" lon="149.3751756">
  <ele>708.22</ele>
  <time>2026-09-01T19:55:54Z</time>
  <course>271.56</course>
  <speed>0.0</speed>
  <fix>3d</fix>
</trkpt>
<trkpt lat="-35.101221" lon="149.3751754">
  <ele>708.25</ele>
  <time>2026-09-01T19:55:54Z</time>
  <course>93.3</course>
  <speed>0.0282842712474619</speed>
  <fix>3d</fix>
</trkpt>
<trkpt lat="-35.1012209" lon="149.3751756">
  <ele>708.22</ele>
  <time>2026-09-01T19:55:54Z</time>
  <course>271.56</course>
  <speed>0.0</speed>
  <fix>3d</fix>
</trkpt>
<trkpt lat="-35.101221" lon="149.3751754">
  <ele>708.25</ele>
  <time>2026-09-01T19:55:54Z</time>
  <course>93.3</course>
  <speed>0.0282842712474619</speed>
  <fix>3d</fix>
</trkpt>
<trkpt lat="-35.1012209" lon="149.3751756">
  <ele>708.22</ele>
  <time>2026-09-01T19:55:54Z</time>
  <course>271.56</course>
  <speed>0.0</speed>
  <fix>3d</fix>
</trkpt>
<trkpt lat="-35.101221" lon="149.3751754">
  <ele>708.25</ele>
  <time>2026-09-01T19:55:54Z</time>
  <course>93.3</course>
  <speed>0.0282842712474619</speed>
  <fix>3d</fix>
</trkpt>
<trkpt lat="-35.1012209" lon="149.3751756">
  <ele>708.22</ele>
  <time>2026-09-01T19:55:54Z</time>
  <course>271.56</course>
  <speed>0.0</speed>
  <fix>3d</fix>
</trkpt>
<trkpt lat="-35.101221" lon="149.3751754">
  <ele>708.25</ele>
  <time>2026-09-01T19:55:54Z</time>
  <course>93.3</course>
  <speed>0.0282842712474619</speed>
  <fix>3d</fix>
</trkpt>
<trkpt lat="-35.1012209" lon="149.3751756">
  <ele>708.22</ele>
  <time>2026-09-01T19:55:54Z</time>
  <course>271.56</course>
  <speed>0.0</speed>
  <fix>3d</fix>
</trkpt>
<trkpt lat="-35.101221" lon="149.3751754">
  <ele>708.25</ele>
  <time>2026-09-01T19:55:54Z</time>
  <course>93.3</course>
  <speed>0.0282842712474619</speed>
  <fix>3d</fix>
</trkpt>
<trkpt lat="-35.1012209" lon="149.3751756">
  <ele>708.22</ele>
  <time>2026-09-01T19:55:54Z</time>
  <course>271.56</course>
  <speed>0.0</speed>
  <fix>3d</fix>
</trkpt>
<trkpt lat="-35.101221" lon="149.3751754">
  <ele>708.25</ele>
  <time>2026-09-01T19:55:54Z</time>
  <course>93.3</course>
  <speed>0.0282842712474619</speed>
  <fix>3d</fix>
</trkpt>
<trkpt lat="-35.1012209" lon="149.3751756">
  <ele>708.22</ele>
  <time>2026-09-01T19:55:54Z</time>
  <course>271.56</course>
  <speed>0.0</speed>
  <fix>3d</fix>
</trkpt>
<trkpt lat="-35.101221" lon="149.3751754">
  <ele>708.25</ele>
  <time>2026-09-01T19:55:54Z</time>
  <course>93.3</course>
  <speed>0.0282842712474619</speed>
  <fix>3d</fix>
</trkpt>
<trkpt lat="-35.1012209" lon="149.3751756">
  <ele>708.22</ele>
  <time>2026-09-01T19:55:54Z</time>
  <course>271.56</course>
  <speed>0.0</speed>
  <fix>3d</fix>
</trkpt>
<trkpt lat="-35.101221" lon="149.3751754">
  <ele>708.25</ele>
  <time>2026-09-01T19:55:54Z</time>
  <course>93.3</course>
  <speed>0.0282842712474619</speed>
  <fix>3d</fix>
</trkpt>
<trkpt lat="-35.1012209" lon="149.3751756">
  <ele>708.22</ele>
  <time>2026-09-01T19:55:54Z</time>
  <course>271.56</course>
  <speed>0.0</speed>
  <fix>3d</fix>
</trkpt>
<trkpt lat="-35.101221" lon="149.3751754">
  <ele>708.25</ele>
  <time>2026-09-01T19:55:54Z</time>
  <course>93.3</course>
  <speed>0.0282842712474619</speed>
  <fix>3d</fix>
</trkpt>
<trkpt lat="-35.1012209" lon="149.3751756">
  <ele>708.22</ele>
  <time>2026-09-01T19:55:54Z</time>
  <course>271.56</course>
  <speed>0.0</speed>
  <fix>3d</fix>
</trkpt>
<trkpt lat="-35.101221" lon="149.3751754">
  <ele>708.25</ele>
  <time>2026-09-01T19:55:54Z</time>
  <course>93.3</course>
  <speed>0.0282842712474619</speed>
  <fix>3d</fix>
</trkpt>
<trkpt lat="-35.1012209" lon="149.3751756">
  <ele>708.22</ele>
  <time>2026-09-01T19:55:54Z</time>
  <course>271.56</course>
  <speed>0.0</speed>
  <fix>3d</fix>
</trkpt>
<trkpt lat="-35.101221" lon="149.3751754">
  <ele>708.25</ele>
  <time>2026-09-01T19:55:54Z</time>
  <course>93.3</course>
  <speed>0.0282842712474619</speed>
  <fix>3d</fix>
</trkpt>
<trkpt lat="-35.1012209" lon="149.3751756">
  <ele>708.22</ele>
  <time>2026-09-01T19:55:54Z</time>
  <course>271.56</course>
  <speed>0.0</speed>
  <fix>3d</fix>
</trkpt>
<trkpt lat="-35.101221" lon="149.3751754">
  <ele>708.25</ele>
  <time>2026-09-01T19:55:54Z</time>
  <course>93.3</course>
  <speed>0.0282842712474619</speed>
  <fix>3d</fix>
</trkpt>
<trkpt lat="-35.1012209" lon="149.3751756">
  <ele>708.22</ele>
  <time>2026-09-01T19:55:54Z</time>
  <course>271.56</course>
  <speed>0.0</speed>
  <fix>3d</fix>
</trkpt>
<trkpt lat="-35.101221" lon="149.3751754">
  <ele>708.24</ele>
  <time>2026-09-01T19:55:54Z</time>
  <course>93.3</course>
  <speed>0.0282842712474619</speed>
  <fix>3d</fix>
</trkpt>
<trkpt lat="-35.1012209" lon="149.3751756">
  <ele>708.22</ele>
  <time>2026-09-01T19:55:54Z</time>
  <course>271.56</course>
  <speed>0.0</speed>
  <fix>3d</fix>
</trkpt>
<trkpt lat="-35.101221" lon="149.3751754">
  <ele>708.25</ele>
  <time>2026-09-01T19:55:54Z</time>
  <course>93.3</course>
  <speed>0.0282842712474619</speed>
  <fix>3d</fix>
</trkpt>
<trkpt lat="-35.1012209" lon="149.3751756">
  <ele>708.22</ele>
  <time>2026-09-01T19:55:54Z</time>
  <course>271.56</course>
  <speed>0.0</speed>
  <fix>3d</fix>
</trkpt>
<trkpt lat="-35.101221" lon="149.3751754">
  <ele>708.25</ele>
  <time>2026-09-01T19:55:54Z</time>
  <course>93.3</course>
  <speed>0.0282842712474619</speed>
  <fix>3d</fix>
</trkpt>
<trkpt lat="-35.1012209" lon="149.3751756">
  <ele>708.22</ele>
  <time>2026-09-01T19:55:54Z</time>
  <course>271.56</course>
  <speed>0.0</speed>
  <fix>3d</fix>
</trkpt>
<trkpt lat="-35.101221" lon="149.3751754">
  <ele>708.25</ele>
  <time>2026-09-01T19:55:54Z</time>
  <course>93.3</course>
  <speed>0.0282842712474619</speed>
  <fix>3d</fix>
</trkpt>
<trkpt lat="-35.1012209" lon="149.3751756">
  <ele>708.22</ele>
  <time>2026-09-01T19:55:54Z</time>
  <course>271.56</course>
  <speed>0.0</speed>
  <fix>3d</fix>
</trkpt>
<trkpt lat="-35.101221" lon="149.3751754">
  <ele>708.25</ele>
  <time>2026-09-01T19:55:54Z</time>
  <course>93.3</course>
  <speed>0.0282842712474619</speed>
  <fix>3d</fix>
</trkpt>
<trkpt lat="-35.1012209" lon="149.3751756">
  <ele>708.22</ele>
  <time>2026-09-01T19:55:54Z</time>
  <course>271.56</course>
  <speed>0.0</speed>
  <fix>3d</fix>
</trkpt>
<trkpt lat="-35.101221" lon="149.3751754">
  <ele>708.25</ele>
  <time>2026-09-01T19:55:54Z</time>
  <course>93.3</course>
  <speed>0.0282842712474619</speed>
  <fix>3d</fix>
</trkpt>
<trkpt lat="-35.1012209" lon="149.3751756">
  <ele>708.22</ele>
  <time>2026-09-01T19:55:54Z</time>
  <course>271.56</course>
  <speed>0.0</speed>
  <fix>3d</fix>
</trkpt>
<trkpt lat="-35.101221" lon="149.3751754">
  <ele>708.25</ele>
  <time>2026-09-01T19:55:54Z</time>
  <course>93.3</course>
  <speed>0.0282842712474619</speed>
  <fix>3d</fix>
</trkpt>
<trkpt lat="-35.1012209" lon="149.3751756">
  <ele>708.22</ele>
  <time>2026-09-01T19:55:54Z</time>
  <course>271.56</course>
  <speed>0.0</speed>
  <fix>3d</fix>
</trkpt>
<trkpt lat="-35.101221" lon="149.3751754">
  <ele>708.25</ele>
  <time>2026-09-01T19:55:54Z</time>
  <course>93.3</course>
  <speed>0.0282842712474619</speed>
  <fix>3d</fix>
</trkpt>
<trkpt lat="-35.1012209" lon="149.3751756">
  <ele>708.22</ele>
  <time>2026-09-01T19:55:54Z</time>
  <course>271.56</course>
  <speed>0.0</speed>
  <fix>3d</fix>
</trkpt>
<trkpt lat="-35.101221" lon="149.3751754">
  <ele>708.25</ele>
  <time>2026-09-01T19:55:54Z</time>
  <course>93.3</course>
  <speed>0.0282842712474619</speed>
  <fix>3d</fix>
</trkpt>
<trkpt lat="-35.1012209" lon="149.3751756">
  <ele>708.22</ele>
  <time>2026-09-01T19:55:54Z</time>
  <course>271.56</course>
  <speed>0.0</speed>
  <fix>3d</fix>
</trkpt>
<trkpt lat="-35.101221" lon="149.3751754">
  <ele>708.25</ele>
  <time>2026-09-01T19:55:54Z</time>
  <course>93.3</course>
  <speed>0.0282842712474619</speed>
  <fix>3d</fix>
</trkpt>
<trkpt lat="-35.1012209" lon="149.3751756">
  <ele>708.22</ele>
  <time>2026-09-01T19:55:54Z</time>
  <course>271.56</course>
  <speed>0.0</speed>
  <fix>3d</fix>
</trkpt>
<trkpt lat="-35.101221" lon="149.3751754">
  <ele>708.25</ele>
  <time>2026-09-01T19:55:54Z</time>
  <course>93.3</course>
  <speed>0.0282842712474619</speed>
  <fix>3d</fix>
</trkpt>
<trkpt lat="-35.1012209" lon="149.3751756">
  <ele>708.22</ele>
  <time>2026-09-01T19:55:54Z</time>
  <course>271.56</course>
  <speed>0.0</speed>
  <fix>3d</fix>
</trkpt>
<trkpt lat="-35.101221" lon="149.3751754">
  <ele>708.25</ele>
  <time>2026-09-01T19:55:54Z</time>
  <course>93.3</course>
  <speed>0.0282842712474619</speed>
  <fix>3d</fix>
</trkpt>
<trkpt lat="-35.1012209" lon="149.3751756">
  <ele>708.22</ele>
  <time>2026-09-01T19:55:54Z</time>
  <course>271.56</course>
  <speed>0.0</speed>
  <fix>3d</fix>
</trkpt>
<trkpt lat="-35.101221" lon="149.3751754">
  <ele>708.25</ele>
  <time>2026-09-01T19:55:54Z</time>
  <course>93.3</course>
  <speed>0.0282842712474619</speed>
  <fix>3d</fix>
</trkpt>
<trkpt lat="-35.1012209" lon="149.3751756">
  <ele>708.22</ele>
  <time>2026-09-01T19:55:54Z</time>
  <course>271.56</course>
  <speed>0.0</speed>
  <fix>3d</fix>
</trkpt>
<trkpt lat="-35.101221" lon="149.3751754">
  <ele>708.25</ele>
  <time>2026-09-01T19:55:54Z</time>
  <course>93.3</course>
  <speed>0.0282842712474619</speed>
  <fix>3d</fix>
</trkpt>
<trkpt lat="-35.1012209" lon="149.3751756">
  <ele>708.22</ele>
  <time>2026-09-01T19:55:54Z</time>
  <course>271.56</course>
  <speed>0.0</speed>
  <fix>3d</fix>
</trkpt>
<trkpt lat="-35.101221" lon="149.3751754">
  <ele>708.25</ele>
  <time>2026-09-01T19:55:54Z</time>
  <course>93.3</course>
  <speed>0.0282842712474619</speed>
  <fix>3d</fix>
</trkpt>
<trkpt lat="-35.1012209" lon="149.3751756">
  <ele>708.22</ele>
  <time>2026-09-01T19:55:54Z</time>
  <course>271.56</course>
  <speed>0.0</speed>
  <fix>3d</fix>
</trkpt>
<trkpt lat="-35.101221" lon="149.3751754">
  <ele>708.25</ele>
  <time>2026-09-01T19:55:54Z</time>
  <course>93.3</course>
  <speed>0.0282842712474619</speed>
  <fix>3d</fix>
</trkpt>
<trkpt lat="-35.1012209" lon="149.3751756">
  <ele>708.22</ele>
  <time>2026-09-01T19:55:54Z</time>
  <course>271.56</course>
  <speed>0.0</speed>
  <fix>3d</fix>
</trkpt>
<trkpt lat="-35.101221" lon="149.3751754">
  <ele>708.25</ele>
  <time>2026-09-01T19:55:54Z</time>
  <course>93.3</course>
  <speed>0.0282842712474619</speed>
  <fix>3d</fix>
</trkpt>
<trkpt lat="-35.1012209" lon="149.3751756">
  <ele>708.22</ele>
  <time>2026-09-01T19:55:54Z</time>
  <course>271.56</course>
  <speed>0.0</speed>
  <fix>3d</fix>
</trkpt>
<trkpt lat="-35.101221" lon="149.3751754">
  <ele>708.25</ele>
  <time>2026-09-01T19:55:54Z</time>
  <course>93.3</course>
  <speed>0.0282842712474619</speed>
  <fix>3d</fix>
</trkpt>
<trkpt lat="-35.1012209" lon="149.3751756">
  <ele>708.22</ele>
  <time>2026-09-01T19:55:54Z</time>
  <course>271.56</course>
  <speed>0.0</speed>
  <fix>3d</fix>
</trkpt>
<trkpt lat="-35.101221" lon="149.3751754">
  <ele>708.25</ele>
  <time>2026-09-01T19:55:54Z</time>
  <course>93.3</course>
  <speed>0.0282842712474619</speed>
  <fix>3d</fix>
</trkpt>
<trkpt lat="-35.1012209" lon="149.3751756">
  <ele>708.22</ele>
  <time>2026-09-01T19:55:54Z</time>
  <course>271.56</course>
  <speed>0.0</speed>
  <fix>3d</fix>
</trkpt>
<trkpt lat="-35.101221" lon="149.3751754">
  <ele>708.25</ele>
  <time>2026-09-01T19:55:54Z</time>
  <course>93.3</course>
  <speed>0.0282842712474619</speed>
  <fix>3d</fix>
</trkpt>
<trkpt lat="-35.1012209" lon="149.3751756">
  <ele>708.22</ele>
  <time>2026-09-01T19:55:54Z</time>
  <course>271.56</course>
  <speed>0.0</speed>
  <fix>3d</fix>
</trkpt>
<trkpt lat="-35.101221" lon="149.3751754">
  <ele>708.25</ele>
  <time>2026-09-01T19:55:54Z</time>
  <course>93.3</course>
  <speed>0.0282842712474619</speed>
  <fix>3d</fix>
</trkpt>
<trkpt lat="-35.1012209" lon="149.3751756">
  <ele>708.22</ele>
  <time>2026-09-01T19:55:54Z</time>
  <course>271.56</course>
  <speed>0.0</speed>
  <fix>3d</fix>
</trkpt>
<trkpt lat="-35.101221" lon="149.3751754">
  <ele>708.25</ele>
  <time>2026-09-01T19:55:54Z</time>
  <course>93.29</course>
  <speed>0.0282842712474619</speed>
  <fix>3d</fix>
</trkpt>
<trkpt lat="-35.1012209" lon="149.3751756">
  <ele>708.22</ele>
  <time>2026-09-01T19:55:54Z</time>
  <course>271.56</course>
  <speed>0.0</speed>
  <fix>3d</fix>
</trkpt>
<trkpt lat="-35.101221" lon="149.3751754">
  <ele>708.25</ele>
  <time>2026-09-01T19:55:54Z</time>
  <course>93.29</course>
  <speed>0.0282842712474619</speed>
  <fix>3d</fix>
</trkpt>
<trkpt lat="-35.1012209" lon="149.3751756">
  <ele>708.22</ele>
  <time>2026-09-01T19:55:54Z</time>
  <course>271.56</course>
  <speed>0.0</speed>
  <fix>3d</fix>
</trkpt>
<trkpt lat="-35.101221" lon="149.3751754">
  <ele>708.21</ele>
  <time>2026-09-01T19:55:54Z</time>
  <course>93.29</course>
  <speed>0.0282842712474619</speed>
  <fix>3d</fix>
</trkpt>
<trkpt lat="-35.1012209" lon="149.3751756">
  <ele>708.22</ele>
  <time>2026-09-01T19:55:54Z</time>
  <course>271.56</course>
  <speed>0.0</speed>
  <fix>3d</fix>
</trkpt>
<trkpt lat="-35.101221" lon="149.3751754">
  <ele>708.22</ele>
  <time>2026-09-01T19:55:54Z</time>
  <course>93.29</course>
  <speed>0.0282842712474619</speed>
  <fix>3d</fix>
</trkpt>
<trkpt lat="-35.1012209" lon="149.3751756">
  <ele>708.22</ele>
  <time>2026-09-01T19:55:54Z</time>
  <course>271.56</course>
  <speed>0.0</speed>
  <fix>3d</fix>
</trkpt>
<trkpt lat="-35.101221" lon="149.3751754">
  <ele>708.21</ele>
  <time>2026-09-01T19:55:54Z</time>
  <course>93.29</course>
  <speed>0.0282842712474619</speed>
  <fix>3d</fix>
</trkpt>
<trkpt lat="-35.1012209" lon="149.3751756">
  <ele>708.22</ele>
  <time>2026-09-01T19:55:54Z</time>
  <course>271.56</course>
  <speed>0.0</speed>
  <fix>3d</fix>
</trkpt>
<trkpt lat="-35.101221" lon="149.3751754">
  <ele>708.21</ele>
  <time>2026-09-01T19:55:54Z</time>
  <course>93.29</course>
  <speed>0.0282842712474619</speed>
  <fix>3d</fix>
</trkpt>
<trkpt lat="-35.1012209" lon="149.3751756">
  <ele>708.22</ele>
  <time>2026-09-01T19:55:54Z</time>
  <course>271.56</course>
  <speed>0.0</speed>
  <fix>3d</fix>
</trkpt>
<trkpt lat="-35.101221" lon="149.3751754">
  <ele>708.21</ele>
  <time>2026-09-01T19:55:54Z</time>
  <course>93.29</course>
  <speed>0.0282842712474619</speed>
  <fix>3d</fix>
</trkpt>
<trkpt lat="-35.1012209" lon="149.3751756">
  <ele>708.22</ele>
  <time>2026-09-01T19:55:54Z</time>
  <course>271.56</course>
  <speed>0.0</speed>
  <fix>3d</fix>
</trkpt>
<trkpt lat="-35.101221" lon="149.3751754">
  <ele>708.21</ele>
  <time>2026-09-01T19:55:54Z</time>
  <course>93.29</course>
  <speed>0.0282842712474619</speed>
  <fix>3d</fix>
</trkpt>
<trkpt lat="-35.1012209" lon="149.3751756">
  <ele>708.22</ele>
  <time>2026-09-01T19:55:54Z</time>
  <course>271.56</course>
  <speed>0.0</speed>
  <fix>3d</fix>
</trkpt>
<trkpt lat="-35.101221" lon="149.3751754">
  <ele>708.21</ele>
  <time>2026-09-01T19:55:54Z</time>
  <course>93.29</course>
  <speed>0.0282842712474619</speed>
  <fix>3d</fix>
</trkpt>
<trkpt lat="-35.1012209" lon="149.3751756">
  <ele>708.22</ele>
  <time>2026-09-01T19:55:54Z</time>
  <course>271.56</course>
  <speed>0.0</speed>
  <fix>3d</fix>
</trkpt>
<trkpt lat="-35.101221" lon="149.3751754">
  <ele>708.21</ele>
  <time>2026-09-01T19:55:54Z</time>
  <course>93.29</course>
  <speed>0.0282842712474619</speed>
  <fix>3d</fix>
</trkpt>
<trkpt lat="-35.1012209" lon="149.3751756">
  <ele>708.22</ele>
  <time>2026-09-01T19:55:54Z</time>
  <course>271.56</course>
  <speed>0.0</speed>
  <fix>3d</fix>
</trkpt>
<trkpt lat="-35.101221" lon="149.3751754">
  <ele>708.2</ele>
  <time>2026-09-01T19:55:54Z</time>
  <course>93.29</course>
  <speed>0.0282842712474619</speed>
  <fix>3d</fix>
</trkpt>
<trkpt lat="-35.1012209" lon="149.3751756">
  <ele>708.22</ele>
  <time>2026-09-01T19:55:54Z</time>
  <course>271.56</course>
  <speed>0.0</speed>
  <fix>3d</fix>
</trkpt>
<trkpt lat="-35.101221" lon="149.3751754">
  <ele>708.2</ele>
  <time>2026-09-01T19:55:54Z</time>
  <course>93.29</course>
  <speed>0.0282842712474619</speed>
  <fix>3d</fix>
</trkpt>
<trkpt lat="-35.1012209" lon="149.3751756">
  <ele>708.22</ele>
  <time>2026-09-01T19:55:54Z</time>
  <course>271.56</course>
  <speed>0.0</speed>
  <fix>3d</fix>
</trkpt>
<trkpt lat="-35.101221" lon="149.3751754">
  <ele>708.2</ele>
  <time>2026-09-01T19:55:54Z</time>
  <course>93.29</course>
  <speed>0.0282842712474619</speed>
  <fix>3d</fix>
</trkpt>
<trkpt lat="-35.1012209" lon="149.3751756">
  <ele>708.22</ele>
  <time>2026-09-01T19:55:54Z</time>
  <course>271.56</course>
  <speed>0.0</speed>
  <fix>3d</fix>
</trkpt>
<trkpt lat="-35.101221" lon="149.3751754">
  <ele>708.2</ele>
  <time>2026-09-01T19:55:54Z</time>
  <course>93.29</course>
  <speed>0.0282842712474619</speed>
  <fix>3d</fix>
</trkpt>
<trkpt lat="-35.1012209" lon="149.3751756">
  <ele>708.22</ele>
  <time>2026-09-01T19:55:54Z</time>
  <course>271.56</course>
  <speed>0.0</speed>
  <fix>3d</fix>
</trkpt>
<trkpt lat="-35.101221" lon="149.3751754">
  <ele>708.2</ele>
  <time>2026-09-01T19:55:54Z</time>
  <course>93.29</course>
  <speed>0.0282842712474619</speed>
  <fix>3d</fix>
</trkpt>
<trkpt lat="-35.1012209" lon="149.3751756">
  <ele>708.22</ele>
  <time>2026-09-01T19:55:54Z</time>
  <course>271.56</course>
  <speed>0.0</speed>
  <fix>3d</fix>
</trkpt>
<trkpt lat="-35.101221" lon="149.3751754">
  <ele>708.19</ele>
  <time>2026-09-01T19:55:54Z</time>
  <course>93.29</course>
  <speed>0.0282842712474619</speed>
  <fix>3d</fix>
</trkpt>
<trkpt lat="-35.1012209" lon="149.3751756">
  <ele>708.22</ele>
  <time>2026-09-01T19:55:54Z</time>
  <course>271.56</course>
  <speed>0.0</speed>
  <fix>3d</fix>
</trkpt>
<trkpt lat="-35.101221" lon="149.3751754">
  <ele>708.19</ele>
  <time>2026-09-01T19:55:54Z</time>
  <course>93.29</course>
  <speed>0.0282842712474619</speed>
  <fix>3d</fix>
</trkpt>
<trkpt lat="-35.1012209" lon="149.3751756">
  <ele>708.22</ele>
  <time>2026-09-01T19:55:54Z</time>
  <course>271.56</course>
  <speed>0.0</speed>
  <fix>3d</fix>
</trkpt>
<trkpt lat="-35.101221" lon="149.3751754">
  <ele>708.18</ele>
  <time>2026-09-01T19:55:54Z</time>
  <course>93.29</course>
  <speed>0.0282842712474619</speed>
  <fix>3d</fix>
</trkpt>
<trkpt lat="-35.1012209" lon="149.3751756">
  <ele>708.22</ele>
  <time>2026-09-01T19:55:54Z</time>
  <course>271.56</course>
  <speed>0.0</speed>
  <fix>3d</fix>
</trkpt>
<trkpt lat="-35.101221" lon="149.3751754">
  <ele>708.17</ele>
  <time>2026-09-01T19:55:54Z</time>
  <course>93.29</course>
  <speed>0.0282842712474619</speed>
  <fix>3d</fix>
</trkpt>
<trkpt lat="-35.1012209" lon="149.3751756">
  <ele>708.22</ele>
  <time>2026-09-01T19:55:54Z</time>
  <course>271.56</course>
  <speed>0.0</speed>
  <fix>3d</fix>
</trkpt>
<trkpt lat="-35.101221" lon="149.3751754">
  <ele>708.17</ele>
  <time>2026-09-01T19:55:54Z</time>
  <course>93.29</course>
  <speed>0.0282842712474619</speed>
  <fix>3d</fix>
</trkpt>
<trkpt lat="-35.1012209" lon="149.3751756">
  <ele>708.22</ele>
  <time>2026-09-01T19:55:54Z</time>
  <course>271.56</course>
  <speed>0.0</speed>
  <fix>3d</fix>
</trkpt>
<trkpt lat="-35.101221" lon="149.3751754">
  <ele>708.16</ele>
  <time>2026-09-01T19:55:54Z</time>
  <course>93.29</course>
  <speed>0.0282842712474619</speed>
  <fix>3d</fix>
</trkpt>
<trkpt lat="-35.1012209" lon="149.3751756">
  <ele>708.22</ele>
  <time>2026-09-01T19:55:54Z</time>
  <course>271.56</course>
  <speed>0.0</speed>
  <fix>3d</fix>
</trkpt>
<trkpt lat="-35.101221" lon="149.3751754">
  <ele>708.16</ele>
  <time>2026-09-01T19:55:54Z</time>
  <course>93.29</course>
  <speed>0.0282842712474619</speed>
  <fix>3d</fix>
</trkpt>
<trkpt lat="-35.1012209" lon="149.3751756">
  <ele>708.22</ele>
  <time>2026-09-01T19:55:54Z</time>
  <course>271.56</course>
  <speed>0.0</speed>
  <fix>3d</fix>
</trkpt>
<trkpt lat="-35.101221" lon="149.3751754">
  <ele>708.15</ele>
  <time>2026-09-01T19:55:54Z</time>
  <course>93.29</course>
  <speed>0.0282842712474619</speed>
  <fix>3d</fix>
</trkpt>
<trkpt lat="-35.1012209" lon="149.3751756">
  <ele>708.22</ele>
  <time>2026-09-01T19:55:54Z</time>
  <course>271.56</course>
  <speed>0.0</speed>
  <fix>3d</fix>
</trkpt>
<trkpt lat="-35.101221" lon="149.3751754">
  <ele>708.15</ele>
  <time>2026-09-01T19:55:54Z</time>
  <course>93.29</course>
  <speed>0.0282842712474619</speed>
  <fix>3d</fix>
</trkpt>
<trkpt lat="-35.1012209" lon="149.3751756">
  <ele>708.22</ele>
  <time>2026-09-01T19:55:54Z</time>
  <course>271.56</course>
  <speed>0.0</speed>
  <fix>3d</fix>
</trkpt>
<trkpt lat="-35.101221" lon="149.3751754">
  <ele>708.15</ele>
  <time>2026-09-01T19:55:54Z</time>
  <course>93.29</course>
  <speed>0.0282842712474619</speed>
  <fix>3d</fix>
</trkpt>
<trkpt lat="-35.1012209" lon="149.3751756">
  <ele>708.22</ele>
  <time>2026-09-01T19:55:54Z</time>
  <course>271.56</course>
  <speed>0.0</speed>
  <fix>3d</fix>
</trkpt>
<trkpt lat="-35.101221" lon="149.3751754">
  <ele>708.15</ele>
  <time>2026-09-01T19:55:54Z</time>
  <course>93.29</course>
  <speed>0.0282842712474619</speed>
  <fix>3d</fix>
</trkpt>
<trkpt lat="-35.1012209" lon="149.3751756">
  <ele>708.22</ele>
  <time>2026-09-01T19:55:54Z</time>
  <course>271.56</course>
  <speed>0.0</speed>
  <fix>3d</fix>
</trkpt>
<trkpt lat="-35.101221" lon="149.3751754">
  <ele>708.14</ele>
  <time>2026-09-01T19:55:54Z</time>
  <course>93.29</course>
  <speed>0.0282842712474619</speed>
  <fix>3d</fix>
</trkpt>
<trkpt lat="-35.1012209" lon="149.3751756">
  <ele>708.22</ele>
  <time>2026-09-01T19:55:54Z</time>
  <course>271.56</course>
  <speed>0.0</speed>
  <fix>3d</fix>
</trkpt>
<trkpt lat="-35.101221" lon="149.3751754">
  <ele>708.14</ele>
  <time>2026-09-01T19:55:54Z</time>
  <course>93.29</course>
  <speed>0.0282842712474619</speed>
  <fix>3d</fix>
</trkpt>
<trkpt lat="-35.1012209" lon="149.3751756">
  <ele>708.22</ele>
  <time>2026-09-01T19:55:54Z</time>
  <course>271.56</course>
  <speed>0.0</speed>
  <fix>3d</fix>
</trkpt>
<trkpt lat="-35.101221" lon="149.3751754">
  <ele>708.14</ele>
  <time>2026-09-01T19:55:54Z</time>
  <course>93.29</course>
  <speed>0.0282842712474619</speed>
  <fix>3d</fix>
</trkpt>
<trkpt lat="-35.1012209" lon="149.3751756">
  <ele>708.22</ele>
  <time>2026-09-01T19:55:54Z</time>
  <course>271.56</course>
  <speed>0.0</speed>
  <fix>3d</fix>
</trkpt>
<trkpt lat="-35.101221" lon="149.3751754">
  <ele>708.14</ele>
  <time>2026-09-01T19:55:54Z</time>
  <course>93.29</course>
  <speed>0.0282842712474619</speed>
  <fix>3d</fix>
</trkpt>
<trkpt lat="-35.1012209" lon="149.3751756">
  <ele>708.22</ele>
  <time>2026-09-01T19:55:54Z</time>
  <course>271.56</course>
  <speed>0.0</speed>
  <fix>3d</fix>
</trkpt>
<trkpt lat="-35.101221" lon="149.3751754">
  <ele>708.14</ele>
  <time>2026-09-01T19:55:54Z</time>
  <course>93.29</course>
  <speed>0.0282842712474619</speed>
  <fix>3d</fix>
</trkpt>
<trkpt lat="-35.1012209" lon="149.3751756">
  <ele>708.22</ele>
  <time>2026-09-01T19:55:54Z</time>
  <course>271.56</course>
  <speed>0.0</speed>
  <fix>3d</fix>
</trkpt>
<trkpt lat="-35.101221" lon="149.3751754">
  <ele>708.14</ele>
  <time>2026-09-01T19:55:54Z</time>
  <course>93.29</course>
  <speed>0.0282842712474619</speed>
  <fix>3d</fix>
</trkpt>
<trkpt lat="-35.1012209" lon="149.3751756">
  <ele>708.22</ele>
  <time>2026-09-01T19:55:54Z</time>
  <course>271.56</course>
  <speed>0.0</speed>
  <fix>3d</fix>
</trkpt>
<trkpt lat="-35.101221" lon="149.3751754">
  <ele>708.13</ele>
  <time>2026-09-01T19:55:54Z</time>
  <course>93.29</course>
  <speed>0.0282842712474619</speed>
  <fix>3d</fix>
</trkpt>
<trkpt lat="-35.1012209" lon="149.3751756">
  <ele>708.22</ele>
  <time>2026-09-01T19:55:54Z</time>
  <course>271.56</course>
  <speed>0.0</speed>
  <fix>3d</fix>
</trkpt>
<trkpt lat="-35.101221" lon="149.3751754">
  <ele>708.13</ele>
  <time>2026-09-01T19:55:54Z</time>
  <course>93.29</course>
  <speed>0.0282842712474619</speed>
  <fix>3d</fix>
</trkpt>
<trkpt lat="-35.1012209" lon="149.3751756">
  <ele>708.22</ele>
  <time>2026-09-01T19:55:54Z</time>
  <course>271.56</course>
  <speed>0.0</speed>
  <fix>3d</fix>
</trkpt>
<trkpt lat="-35.101221" lon="149.3751754">
  <ele>708.12</ele>
  <time>2026-09-01T19:55:54Z</time>
  <course>93.29</course>
  <speed>0.0282842712474619</speed>
  <fix>3d</fix>
</trkpt>
<trkpt lat="-35.1012209" lon="149.3751756">
  <ele>708.22</ele>
  <time>2026-09-01T19:55:54Z</time>
  <course>271.56</course>
  <speed>0.0</speed>
  <fix>3d</fix>
</trkpt>
<trkpt lat="-26.9720619" lon="149.6127921">
  <ele>339.29</ele>
  <time>2026-09-01T19:55:55Z</time>
  <course>310.27</course>
  <speed>0.0</speed>
  <fix>3d</fix>
</trkpt>
<trkpt lat="-26.9720619" lon="149.6127921">
  <ele>339.29</ele>
  <time>2026-09-01T19:55:55Z</time>
  <course>310.27</course>
  <speed>0.0</speed>
  <fix>3d</fix>
</trkpt>
<trkpt lat="-27.274439" lon="151.290064">
  <ele>-0.01</ele>
  <time>2026-09-01T19:55:55Z</time>
  <course>0.2</course>
  <speed>0.0</speed>
  <fix>3d</fix>
</trkpt>
<trkpt lat="-27.274439" lon="151.290064">
  <ele>343.1</ele>
  <time>2026-09-01T19:55:55Z</time>
  <course>294.58</course>
  <speed>0.0</speed>
  <fix>3d</fix>
</trkpt>
<trkpt lat="-27.274439" lon="151.290064">
  <ele>0.02</ele>
  <time>2026-09-01T19:55:55Z</time>
  <course>1.0</course>
  <speed>0.0</speed>
  <fix>3d</fix>
</trkpt>
<trkpt lat="-27.274439" lon="151.290064">
  <ele>343.1</ele>
  <time>2026-09-01T19:55:55Z</time>
  <course>294.58</course>
  <speed>0.0</speed>
  <fix>3d</fix>
</trkpt>
<trkpt lat="-27.274439" lon="151.290064">
  <ele>-0.08</ele>
  <time>2026-09-01T19:55:55Z</time>
  <course>1.48</course>
  <speed>0.0</speed>
  <fix>3d</fix>
</trkpt>
<trkpt lat="-27.274439" lon="151.290064">
  <ele>343.1</ele>
  <time>2026-09-01T19:55:55Z</time>
  <course>273.33</course>
  <speed>0.0</speed>
  <fix>3d</fix>
</trkpt>
<trkpt lat="-27.274439" lon="151.290064">
  <ele>0.22</ele>
  <time>2026-09-01T19:55:55Z</time>
  <course>1.88</course>
  <speed>0.0</speed>
  <fix>3d</fix>
</trkpt>
<trkpt lat="-27.274439" lon="151.290064">
  <ele>343.1</ele>
  <time>2026-09-01T19:55:55Z</time>
  <course>273.33</course>
  <speed>0.0</speed>
  <fix>3d</fix>
</trkpt>
<trkpt lat="-27.274439" lon="151.290064">
  <ele>0.09</ele>
  <time>2026-09-01T19:55:55Z</time>
  <course>2.25</course>
  <speed>0.0</speed>
  <fix>3d</fix>
</trkpt>
<trkpt lat="-27.274439" lon="151.290064">
  <ele>343.1</ele>
  <time>2026-09-01T19:55:55Z</time>
  <course>270.44</course>
  <speed>0.0</speed>
  <fix>3d</fix>
</trkpt>
<trkpt lat="-27.274439" lon="151.290064">
  <ele>0.08</ele>
  <time>2026-09-01T19:55:55Z</time>
  <course>2.64</course>
  <speed>0.0</speed>
  <fix>3d</fix>
</trkpt>
<trkpt lat="-27.274439" lon="151.290064">
  <ele>343.1</ele>
  <time>2026-09-01T19:55:55Z</time>
  <course>270.44</course>
  <speed>0.0</speed>
  <fix>3d</fix>
</trkpt>
<trkpt lat="-27.274439" lon="151.290064">
  <ele>0.09</ele>
  <time>2026-09-01T19:55:56Z</time>
  <course>3.05</course>
  <speed>0.0</speed>
  <fix>3d</fix>
</trkpt>
<trkpt lat="-27.274439" lon="151.290064">
  <ele>343.1</ele>
  <time>2026-09-01T19:55:56Z</time>
  <course>270.05</course>
  <speed>0.0</speed>
  <fix>3d</fix>
</trkpt>
<trkpt lat="-27.274439" lon="151.290064">
  <ele>-0.05</ele>
  <time>2026-09-01T19:55:56Z</time>
  <course>3.49</course>
  <speed>0.0</speed>
  <fix>3d</fix>
</trkpt>
<trkpt lat="-27.274439" lon="151.290064">
  <ele>343.1</ele>
  <time>2026-09-01T19:55:56Z</time>
  <course>270.05</course>
  <speed>0.0</speed>
  <fix>3d</fix>
</trkpt>
<trkpt lat="-27.274439" lon="151.290064">
  <ele>343.06</ele>
  <time>2026-09-01T19:55:56Z</time>
  <course>3.96</course>
  <speed>0.0</speed>
  <fix>3d</fix>
</trkpt>
<trkpt lat="-27.274439" lon="151.290064">
  <ele>343.1</ele>
  <time>2026-09-01T19:55:56Z</time>
  <course>270.0</course>
  <speed>0.0</speed>
  <fix>3d</fix>
</trkpt>
<trkpt lat="-27.274439" lon="151.290064">
  <ele>343.18</ele>
  <time>2026-09-01T19:55:56Z</time>
  <course>4.49</course>
  <speed>0.0</speed>
  <fix>3d</fix>
</trkpt>
<trkpt lat="-27.274439" lon="151.290064">
  <ele>343.1</ele>
  <time>2026-09-01T19:55:56Z</time>
  <course>270.0</course>
  <speed>0.0</speed>
  <fix>3d</fix>
</trkpt>
<trkpt lat="-27.274439" lon="151.290064">
  <ele>342.91</ele>
  <time>2026-09-01T19:55:56Z</time>
  <course>5.04</course>
  <speed>0.0</speed>
  <fix>3d</fix>
</trkpt>
<trkpt lat="-27.274439" lon="151.290064">
  <ele>343.1</ele>
  <time>2026-09-01T19:55:56Z</time>
  <course>270.0</course>
  <speed>0.0</speed>
  <fix>3d</fix>
</trkpt>
<trkpt lat="-27.274439" lon="151.290064">
  <ele>343.06</ele>
  <time>2026-09-01T19:55:56Z</time>
  <course>5.57</course>
  <speed>0.0</speed>
  <fix>3d</fix>
</trkpt>
<trkpt lat="-27.274439" lon="151.290064">
  <ele>343.1</ele>
  <time>2026-09-01T19:55:56Z</time>
  <course>270.0</course>
  <speed>0.0</speed>
  <fix>3d</fix>
</trkpt>
<trkpt lat="-27.274439" lon="151.290064">
  <ele>343.13</ele>
  <time>2026-09-01T19:55:56Z</time>
  <course>6.08</course>
  <speed>0.0</speed>
  <fix>3d</fix>
</trkpt>
<trkpt lat="-27.274439" lon="151.290064">
  <ele>343.1</ele>
  <time>2026-09-01T19:55:56Z</time>
  <course>270.0</course>
  <speed>0.0</speed>
  <fix>3d</fix>
</trkpt>
<trkpt lat="-27.274439" lon="151.290064">
  <ele>343.04</ele>
  <time>2026-09-01T19:55:56Z</time>
  <course>6.53</course>
  <speed>0.0</speed>
  <fix>3d</fix>
</trkpt>
<trkpt lat="-27.274439" lon="151.290064">
  <ele>343.1</ele>
  <time>2026-09-01T19:55:56Z</time>
  <course>270.0</course>
  <speed>0.0</speed>
  <fix>3d</fix>
</trkpt>
<trkpt lat="-27.274439" lon="151.290064">
  <ele>342.88</ele>
  <time>2026-09-01T19:55:56Z</time>
  <course>6.91</course>
  <speed>0.0</speed>
  <fix>3d</fix>
</trkpt>
<trkpt lat="-27.274439" lon="151.290064">
  <ele>343.1</ele>
  <time>2026-09-01T19:55:56Z</time>
  <course>270.0</course>
  <speed>0.0</speed>
  <fix>3d</fix>
</trkpt>
<trkpt lat="-27.274439" lon="151.290064">
  <ele>343.02</ele>
  <time>2026-09-01T19:55:56Z</time>
  <course>7.24</course>
  <speed>0.0</speed>
  <fix>3d</fix>
</trkpt>
<trkpt lat="-27.274439" lon="151.290064">
  <ele>343.1</ele>
  <time>2026-09-01T19:55:56Z</time>
  <course>270.0</course>
  <speed>0.0</speed>
  <fix>3d</fix>
</trkpt>
<trkpt lat="-27.274439" lon="151.290064">
  <ele>343.23</ele>
  <time>2026-09-01T19:55:56Z</time>
  <course>7.54</course>
  <speed>0.0</speed>
  <fix>3d</fix>
</trkpt>
<trkpt lat="-27.274439" lon="151.290064">
  <ele>343.1</ele>
  <time>2026-09-01T19:55:56Z</time>
  <course>270.0</course>
  <speed>0.0</speed>
  <fix>3d</fix>
</trkpt>
<trkpt lat="-27.274439" lon="151.290064">
  <ele>343.17</ele>
  <time>2026-09-01T19:55:56Z</time>
  <course>7.79</course>
  <speed>0.0</speed>
  <fix>3d</fix>
</trkpt>
<trkpt lat="-27.274439" lon="151.290064">
  <ele>343.1</ele>
  <time>2026-09-01T19:55:56Z</time>
  <course>270.0</course>
  <speed>0.0</speed>
  <fix>3d</fix>
</trkpt>
<trkpt lat="-27.274439" lon="151.290064">
  <ele>343.04</ele>
  <time>2026-09-01T19:55:56Z</time>
  <course>8.02</course>
  <speed>0.0</speed>
  <fix>3d</fix>
</trkpt>
<trkpt lat="-27.274439" lon="151.290064">
  <ele>343.1</ele>
  <time>2026-09-01T19:55:56Z</time>
  <course>270.0</course>
  <speed>0.0</speed>
  <fix>3d</fix>
</trkpt>
<trkpt lat="-27.274439" lon="151.290064">
  <ele>342.89</ele>
  <time>2026-09-01T19:55:56Z</time>
  <course>8.23</course>
  <speed>0.0</speed>
  <fix>3d</fix>
</trkpt>
<trkpt lat="-27.274439" lon="151.290064">
  <ele>343.1</ele>
  <time>2026-09-01T19:55:56Z</time>
  <course>270.0</course>
  <speed>0.0</speed>
  <fix>3d</fix>
</trkpt>
<trkpt lat="-27.274439" lon="151.290064">
  <ele>343.08</ele>
  <time>2026-09-01T19:55:56Z</time>
  <course>8.43</course>
  <speed>0.0</speed>
  <fix>3d</fix>
</trkpt>
<trkpt lat="-27.274439" lon="151.290064">
  <ele>343.1</ele>
  <time>2026-09-01T19:55:56Z</time>
  <course>270.0</course>
  <speed>0.0</speed>
  <fix>3d</fix>
</trkpt>
<trkpt lat="-27.274439" lon="151.290064">
  <ele>343.19</ele>
  <time>2026-09-01T19:55:56Z</time>
  <course>8.62</course>
  <speed>0.0</speed>
  <fix>3d</fix>
</trkpt>
<trkpt lat="-27.274439" lon="151.290064">
  <ele>343.1</ele>
  <time>2026-09-01T19:55:56Z</time>
  <course>270.0</course>
  <speed>0.0</speed>
  <fix>3d</fix>
</trkpt>
<trkpt lat="-27.274439" lon="151.290064">
  <ele>342.88</ele>
  <time>2026-09-01T19:55:56Z</time>
  <course>8.8</course>
  <speed>0.0</speed>
  <fix>3d</fix>
</trkpt>
<trkpt lat="-27.274439" lon="151.290064">
  <ele>343.1</ele>
  <time>2026-09-01T19:55:56Z</time>
  <course>270.0</course>
  <speed>0.0</speed>
  <fix>3d</fix>
</trkpt>
<trkpt lat="-27.274439" lon="151.290064">
  <ele>343.17</ele>
  <time>2026-09-01T19:55:56Z</time>
  <course>8.97</course>
  <speed>0.0</speed>
  <fix>3d</fix>
</trkpt>
<trkpt lat="-27.274439" lon="151.290064">
  <ele>343.1</ele>
  <time>2026-09-01T19:55:56Z</time>
  <course>270.0</course>
  <speed>0.0</speed>
  <fix>3d</fix>
</trkpt>
<trkpt lat="-27.274439" lon="151.290064">
  <ele>342.89</ele>
  <time>2026-09-01T19:55:56Z</time>
  <course>9.13</course>
  <speed>0.0</speed>
  <fix>3d</fix>
</trkpt>
<trkpt lat="-27.274439" lon="151.290064">
  <ele>343.1</ele>
  <time>2026-09-01T19:55:56Z</time>
  <course>270.0</course>
  <speed>0.0</speed>
  <fix>3d</fix>
</trkpt>
<trkpt lat="-27.274439" lon="151.290064">
  <ele>342.99</ele>
  <time>2026-09-01T19:55:56Z</time>
  <course>9.29</course>
  <speed>0.0</speed>
  <fix>3d</fix>
</trkpt>
<trkpt lat="-27.274439" lon="151.290064">
  <ele>343.1</ele>
  <time>2026-09-01T19:55:56Z</time>
  <course>270.0</course>
  <speed>0.0</speed>
  <fix>3d</fix>
</trkpt>
<trkpt lat="-27.274439" lon="151.290064">
  <ele>342.87</ele>
  <time>2026-09-01T19:55:56Z</time>
  <course>9.43</course>
  <speed>0.0</speed>
  <fix>3d</fix>
</trkpt>
<trkpt lat="-27.274439" lon="151.290064">
  <ele>343.1</ele>
  <time>2026-09-01T19:55:56Z</time>
  <course>270.0</course>
  <speed>0.0</speed>
  <fix>3d</fix>
</trkpt>
<trkpt lat="-27.274439" lon="151.290064">
  <ele>343.09</ele>
  <time>2026-09-01T19:55:56Z</time>
  <course>9.56</course>
  <speed>0.0</speed>
  <fix>3d</fix>
</trkpt>
<trkpt lat="-27.274439" lon="151.290064">
  <ele>343.1</ele>
  <time>2026-09-01T19:55:56Z</time>
  <course>270.0</course>
  <speed>0.0</speed>
  <fix>3d</fix>
</trkpt>
<trkpt lat="-27.274439" lon="151.290064">
  <ele>343.18</ele>
  <time>2026-09-01T19:55:56Z</time>
  <course>9.68</course>
  <speed>0.0</speed>
  <fix>3d</fix>
</trkpt>
<trkpt lat="-27.274439" lon="151.290064">
  <ele>343.1</ele>
  <time>2026-09-01T19:55:56Z</time>
  <course>270.0</course>
  <speed>0.0</speed>
  <fix>3d</fix>
</trkpt>
<trkpt lat="-27.274439" lon="151.290064">
  <ele>343.05</ele>
  <time>2026-09-01T19:55:56Z</time>
  <course>9.79</course>
  <speed>0.0</speed>
  <fix>3d</fix>
</trkpt>
<trkpt lat="-27.274439" lon="151.290064">
  <ele>343.1</ele>
  <time>2026-09-01T19:55:56Z</time>
  <course>270.0</course>
  <speed>0.0</speed>
  <fix>3d</fix>
</trkpt>
<trkpt lat="-27.274439" lon="151.290064">
  <ele>342.96</ele>
  <time>2026-09-01T19:55:56Z</time>
  <course>9.89</course>
  <speed>0.0</speed>
  <fix>3d</fix>
</trkpt>
<trkpt lat="-27.274439" lon="151.290064">
  <ele>343.1</ele>
  <time>2026-09-01T19:55:56Z</time>
  <course>270.0</course>
  <speed>0.0</speed>
  <fix>3d</fix>
</trkpt>
<trkpt lat="-27.274439" lon="151.290064">
  <ele>343.1</ele>
  <time>2026-09-01T19:55:56Z</time>
  <course>9.99</course>
  <speed>0.0</speed>
  <fix>3d</fix>
</trkpt>
<trkpt lat="-27.274439" lon="151.290064">
  <ele>343.1</ele>
  <time>2026-09-01T19:55:56Z</time>
  <course>270.0</course>
  <speed>0.0</speed>
  <fix>3d</fix>
</trkpt>
<trkpt lat="-27.274439" lon="151.290064">
  <ele>343.22</ele>
  <time>2026-09-01T19:55:56Z</time>
  <course>10.07</course>
  <speed>0.0</speed>
  <fix>3d</fix>
</trkpt>
<trkpt lat="-27.274439" lon="151.290064">
  <ele>343.1</ele>
  <time>2026-09-01T19:55:56Z</time>
  <course>270.0</course>
  <speed>0.0</speed>
  <fix>3d</fix>
</trkpt>
<trkpt lat="-27.274439" lon="151.290064">
  <ele>343.17</ele>
  <time>2026-09-01T19:55:56Z</time>
  <course>10.14</course>
  <speed>0.0</speed>
  <fix>3d</fix>
</trkpt>
<trkpt lat="-27.274439" lon="151.290064">
  <ele>343.1</ele>
  <time>2026-09-01T19:55:56Z</time>
  <course>270.0</course>
  <speed>0.0</speed>
  <fix>3d</fix>
</trkpt>
<trkpt lat="-27.274439" lon="151.290064">
  <ele>343.08</ele>
  <time>2026-09-01T19:55:56Z</time>
  <course>10.21</course>
  <speed>0.0</speed>
  <fix>3d</fix>
</trkpt>
<trkpt lat="-27.274439" lon="151.290064">
  <ele>343.1</ele>
  <time>2026-09-01T19:55:56Z</time>
  <course>270.0</course>
  <speed>0.0</speed>
  <fix>3d</fix>
</trkpt>
<trkpt lat="-27.274439" lon="151.290064">
  <ele>343.04</ele>
  <time>2026-09-01T19:55:56Z</time>
  <course>10.27</course>
  <speed>0.0</speed>
  <fix>3d</fix>
</trkpt>
<trkpt lat="-27.274439" lon="151.290064">
  <ele>343.1</ele>
  <time>2026-09-01T19:55:56Z</time>
  <course>270.0</course>
  <speed>0.0</speed>
  <fix>3d</fix>
</trkpt>
<trkpt lat="-27.274439" lon="151.290064">
  <ele>343.18</ele>
  <time>2026-09-01T19:55:56Z</time>
  <course>10.32</course>
  <speed>0.0</speed>
  <fix>3d</fix>
</trkpt>
<trkpt lat="-27.274439" lon="151.290064">
  <ele>343.1</ele>
  <time>2026-09-01T19:55:56Z</time>
  <course>270.0</course>
  <speed>0.0</speed>
  <fix>3d</fix>
</trkpt>
<trkpt lat="-27.274439" lon="151.290064">
  <ele>343.12</ele>
  <time>2026-09-01T19:55:56Z</time>
  <course>10.37</course>
  <speed>0.0</speed>
  <fix>3d</fix>
</trkpt>
<trkpt lat="-27.274439" lon="151.290064">
  <ele>343.1</ele>
  <time>2026-09-01T19:55:56Z</time>
  <course>270.0</course>
  <speed>0.0</speed>
  <fix>3d</fix>
</trkpt>
<trkpt lat="-27.274439" lon="151.290064">
  <ele>343.04</ele>
  <time>2026-09-01T19:55:56Z</time>
  <course>10.41</course>
  <speed>0.0</speed>
  <fix>3d</fix>
</trkpt>
<trkpt lat="-27.274439" lon="151.290064">
  <ele>343.1</ele>
  <time>2026-09-01T19:55:56Z</time>
  <course>270.0</course>
  <speed>0.0</speed>
  <fix>3d</fix>
</trkpt>
<trkpt lat="-27.274439" lon="151.290064">
  <ele>343.07</ele>
  <time>2026-09-01T19:55:56Z</time>
  <course>10.44</course>
  <speed>0.0</speed>
  <fix>3d</fix>
</trkpt>
<trkpt lat="-27.274439" lon="151.290064">
  <ele>343.1</ele>
  <time>2026-09-01T19:55:56Z</time>
  <course>270.0</course>
  <speed>0.0</speed>
  <fix>3d</fix>
</trkpt>
<trkpt lat="-27.274439" lon="151.290064">
  <ele>343.04</ele>
  <time>2026-09-01T19:55:56Z</time>
  <course>10.48</course>
  <speed>0.0</speed>
  <fix>3d</fix>
</trkpt>
<trkpt lat="-27.274439" lon="151.290064">
  <ele>343.1</ele>
  <time>2026-09-01T19:55:56Z</time>
  <course>270.0</course>
  <speed>0.0</speed>
  <fix>3d</fix>
</trkpt>
<trkpt lat="-27.274439" lon="151.290064">
  <ele>343.01</ele>
  <time>2026-09-01T19:55:56Z</time>
  <course>10.51</course>
  <speed>0.0</speed>
  <fix>3d</fix>
</trkpt>
<trkpt lat="-27.274439" lon="151.290064">
  <ele>343.1</ele>
  <time>2026-09-01T19:55:56Z</time>
  <course>270.0</course>
  <speed>0.0</speed>
  <fix>3d</fix>
</trkpt>
<trkpt lat="-27.274439" lon="151.290064">
  <ele>343.2</ele>
  <time>2026-09-01T19:55:56Z</time>
  <course>10.53</course>
  <speed>0.0</speed>
  <fix>3d</fix>
</trkpt>
<trkpt lat="-27.274439" lon="151.290064">
  <ele>343.1</ele>
  <time>2026-09-01T19:55:56Z</time>
  <course>270.0</course>
  <speed>0.0</speed>
  <fix>3d</fix>
</trkpt>
<trkpt lat="-27.274439" lon="151.290064">
  <ele>343.24</ele>
  <time>2026-09-01T19:55:56Z</time>
  <course>10.56</course>
  <speed>0.0</speed>
  <fix>3d</fix>
</trkpt>
<trkpt lat="-27.274439" lon="151.290064">
  <ele>343.1</ele>
  <time>2026-09-01T19:55:56Z</time>
  <course>270.0</course>
  <speed>0.0</speed>
  <fix>3d</fix>
</trkpt>
<trkpt lat="-27.274439" lon="151.290064">
  <ele>342.88</ele>
  <time>2026-09-01T19:55:56Z</time>
  <course>10.58</course>
  <speed>0.0</speed>
  <fix>3d</fix>
</trkpt>
<trkpt lat="-27.274439" lon="151.290064">
  <ele>343.1</ele>
  <time>2026-09-01T19:55:56Z</time>
  <course>270.0</course>
  <speed>0.0</speed>
  <fix>3d</fix>
</trkpt>
<trkpt lat="-27.274439" lon="151.290064">
  <ele>343.21</ele>
  <time>2026-09-01T19:55:56Z</time>
  <course>10.6</course>
  <speed>0.0</speed>
  <fix>3d</fix>
</trkpt>
<trkpt lat="-27.274439" lon="151.290064">
  <ele>343.1</ele>
  <time>2026-09-01T19:55:56Z</time>
  <course>270.0</course>
  <speed>0.0</speed>
  <fix>3d</fix>
</trkpt>
<trkpt lat="-27.274439" lon="151.290064">
  <ele>343.02</ele>
  <time>2026-09-01T19:55:56Z</time>
  <course>10.62</course>
  <speed>0.0</speed>
  <fix>3d</fix>
</trkpt>
<trkpt lat="-27.274439" lon="151.290064">
  <ele>343.1</ele>
  <time>2026-09-01T19:55:56Z</time>
  <course>270.0</course>
  <speed>0.0</speed>
  <fix>3d</fix>
</trkpt>
<trkpt lat="-27.274439" lon="151.290064">
  <ele>342.93</ele>
  <time>2026-09-01T19:55:56Z</time>
  <course>10.64</course>
  <speed>0.0</speed>
  <fix>3d</fix>
</trkpt>
<trkpt lat="-27.274439" lon="151.290064">
  <ele>343.1</ele>
  <time>2026-09-01T19:55:56Z</time>
  <course>270.0</course>
  <speed>0.0</speed>
  <fix>3d</fix>
</trkpt>
<trkpt lat="-27.274439" lon="151.290064">
  <ele>343.07</ele>
  <time>2026-09-01T19:55:56Z</time>
  <course>10.65</course>
  <speed>0.0</speed>
  <fix>3d</fix>
</trkpt>
<trkpt lat="-27.274439" lon="151.290064">
  <ele>343.1</ele>
  <time>2026-09-01T19:55:56Z</time>
  <course>270.0</course>
  <speed>0.0</speed>
  <fix>3d</fix>
</trkpt>
<trkpt lat="-27.274439" lon="151.290064">
  <ele>342.94</ele>
  <time>2026-09-01T19:55:56Z</time>
  <course>10.66</course>
  <speed>0.0</speed>
  <fix>3d</fix>
</trkpt>
<trkpt lat="-27.274439" lon="151.290064">
  <ele>343.1</ele>
  <time>2026-09-01T19:55:56Z</time>
  <course>270.0</course>
  <speed>0.0</speed>
  <fix>3d</fix>
</trkpt>
<trkpt lat="-27.274439" lon="151.290064">
  <ele>343.11</ele>
  <time>2026-09-01T19:55:56Z</time>
  <course>10.68</course>
  <speed>0.0</speed>
  <fix>3d</fix>
</trkpt>
<trkpt lat="-27.274439" lon="151.290064">
  <ele>343.1</ele>
  <time>2026-09-01T19:55:56Z</time>
  <course>270.0</course>
  <speed>0.0</speed>
  <fix>3d</fix>
</trkpt>
<trkpt lat="-27.274439" lon="151.290064">
  <ele>343.24</ele>
  <time>2026-09-01T19:55:56Z</time>
  <course>10.69</course>
  <speed>0.0</speed>
  <fix>3d</fix>
</trkpt>
<trkpt lat="-27.274439" lon="151.290064">
  <ele>343.1</ele>
  <time>2026-09-01T19:55:56Z</time>
  <course>270.0</course>
  <speed>0.0</speed>
  <fix>3d</fix>
</trkpt>
<trkpt lat="-27.274439" lon="151.290064">
  <ele>343.18</ele>
  <time>2026-09-01T19:55:56Z</time>
  <course>10.7</course>
  <speed>0.0</speed>
  <fix>3d</fix>
</trkpt>
<trkpt lat="-27.274439" lon="151.290064">
  <ele>343.1</ele>
  <time>2026-09-01T19:55:56Z</time>
  <course>270.0</course>
  <speed>0.0</speed>
  <fix>3d</fix>
</trkpt>
<trkpt lat="-27.274439" lon="151.290064">
  <ele>342.89</ele>
  <time>2026-09-01T19:55:56Z</time>
  <course>10.71</course>
  <speed>0.0</speed>
  <fix>3d</fix>
</trkpt>
<trkpt lat="-27.274439" lon="151.290064">
  <ele>343.1</ele>
  <time>2026-09-01T19:55:56Z</time>
  <course>270.0</course>
  <speed>0.0</speed>
  <fix>3d</fix>
</trkpt>
<trkpt lat="-27.274439" lon="151.290064">
  <ele>343.23</ele>
  <time>2026-09-01T19:55:56Z</time>
  <course>10.72</course>
  <speed>0.0</speed>
  <fix>3d</fix>
</trkpt>
<trkpt lat="-27.274439" lon="151.290064">
  <ele>343.1</ele>
  <time>2026-09-01T19:55:56Z</time>
  <course>270.0</course>
  <speed>0.0</speed>
  <fix>3d</fix>
</trkpt>
<trkpt lat="-27.274439" lon="151.290064">
  <ele>343.23</ele>
  <time>2026-09-01T19:55:56Z</time>
  <course>10.72</course>
  <speed>0.0</speed>
  <fix>3d</fix>
</trkpt>
<trkpt lat="-27.274439" lon="151.290064">
  <ele>343.1</ele>
  <time>2026-09-01T19:55:56Z</time>
  <course>270.0</course>
  <speed>0.0</speed>
  <fix>3d</fix>
</trkpt>
<trkpt lat="-27.274439" lon="151.290064">
  <ele>342.99</ele>
  <time>2026-09-01T19:55:56Z</time>
  <course>10.73</course>
  <speed>0.0</speed>
  <fix>3d</fix>
</trkpt>
<trkpt lat="-27.274439" lon="151.290064">
  <ele>343.1</ele>
  <time>2026-09-01T19:55:56Z</time>
  <course>270.0</course>
  <speed>0.0</speed>
  <fix>3d</fix>
</trkpt>
<trkpt lat="-27.274439" lon="151.290064">
  <ele>343.13</ele>
  <time>2026-09-01T19:55:56Z</time>
  <course>10.74</course>
  <speed>0.0</speed>
  <fix>3d</fix>
</trkpt>
<trkpt lat="-27.274439" lon="151.290064">
  <ele>343.1</ele>
  <time>2026-09-01T19:55:56Z</time>
  <course>270.0</course>
  <speed>0.0</speed>
  <fix>3d</fix>
</trkpt>
<trkpt lat="-27.274439" lon="151.290064">
  <ele>343.07</ele>
  <time>2026-09-01T19:55:56Z</time>
  <course>10.74</course>
  <speed>0.0</speed>
  <fix>3d</fix>
</trkpt>
<trkpt lat="-27.274439" lon="151.290064">
  <ele>343.1</ele>
  <time>2026-09-01T19:55:56Z</time>
  <course>270.0</course>
  <speed>0.0</speed>
  <fix>3d</fix>
</trkpt>
<trkpt lat="-27.274439" lon="151.290064">
  <ele>343.19</ele>
  <time>2026-09-01T19:55:56Z</time>
  <course>10.75</course>
  <speed>0.0</speed>
  <fix>3d</fix>
</trkpt>
<trkpt lat="-27.274439" lon="151.290064">
  <ele>343.1</ele>
  <time>2026-09-01T19:55:56Z</time>
  <course>270.0</course>
  <speed>0.0</speed>
  <fix>3d</fix>
</trkpt>
<trkpt lat="-27.274439" lon="151.290064">
  <ele>342.93</ele>
  <time>2026-09-01T19:55:56Z</time>
  <course>10.75</course>
  <speed>0.0</speed>
  <fix>3d</fix>
</trkpt>
<trkpt lat="-27.274439" lon="151.290064">
  <ele>343.1</ele>
  <time>2026-09-01T19:55:56Z</time>
  <course>270.0</course>
  <speed>0.0</speed>
  <fix>3d</fix>
</trkpt>
<trkpt lat="-27.274439" lon="151.290064">
  <ele>343.19</ele>
  <time>2026-09-01T19:55:56Z</time>
  <course>10.76</course>
  <speed>0.0</speed>
  <fix>3d</fix>
</trkpt>
<trkpt lat="-27.274439" lon="151.290064">
  <ele>343.1</ele>
  <time>2026-09-01T19:55:56Z</time>
  <course>270.0</course>
  <speed>0.0</speed>
  <fix>3d</fix>
</trkpt>
<trkpt lat="-27.274439" lon="151.290064">
  <ele>343.1</ele>
  <time>2026-09-01T19:55:56Z</time>
  <course>10.76</course>
  <speed>0.0</speed>
  <fix>3d</fix>
</trkpt>
<trkpt lat="-27.274439" lon="151.290064">
  <ele>343.1</ele>
  <time>2026-09-01T19:55:56Z</time>
  <course>270.0</course>
  <speed>0.0</speed>
  <fix>3d</fix>
</trkpt>
<trkpt lat="-27.274439" lon="151.290064">
  <ele>343.01</ele>
  <time>2026-09-01T19:55:56Z</time>
  <course>10.76</course>
  <speed>0.0</speed>
  <fix>3d</fix>
</trkpt>
<trkpt lat="-27.274439" lon="151.290064">
  <ele>343.1</ele>
  <time>2026-09-01T19:55:56Z</time>
  <course>270.0</course>
  <speed>0.0</speed>
  <fix>3d</fix>
</trkpt>
<trkpt lat="-27.274439" lon="151.290064">
  <ele>343.11</ele>
  <time>2026-09-01T19:55:56Z</time>
  <course>10.77</course>
  <speed>0.0</speed>
  <fix>3d</fix>
</trkpt>
<trkpt lat="-27.274439" lon="151.290064">
  <ele>343.1</ele>
  <time>2026-09-01T19:55:56Z</time>
  <course>270.0</course>
  <speed>0.0</speed>
  <fix>3d</fix>
</trkpt>
<trkpt lat="-27.274439" lon="151.290064">
  <ele>342.96</ele>
  <time>2026-09-01T19:55:56Z</time>
  <course>10.77</course>
  <speed>0.0</speed>
  <fix>3d</fix>
</trkpt>
<trkpt lat="-27.274439" lon="151.290064">
  <ele>343.1</ele>
  <time>2026-09-01T19:55:56Z</time>
  <course>270.0</course>
  <speed>0.0</speed>
  <fix>3d</fix>
</trkpt>
<trkpt lat="-27.274439" lon="151.290064">
  <ele>343.19</ele>
  <time>2026-09-01T19:55:56Z</time>
  <course>10.77</course>
  <speed>0.0</speed>
  <fix>3d</fix>
</trkpt>
<trkpt lat="-27.274439" lon="151.290064">
  <ele>343.1</ele>
  <time>2026-09-01T19:55:56Z</time>
  <course>270.0</course>
  <speed>0.0</speed>
  <fix>3d</fix>
</trkpt>
<trkpt lat="-27.274439" lon="151.290064">
  <ele>343.0</ele>
  <time>2026-09-01T19:55:56Z</time>
  <course>10.78</course>
  <speed>0.0</speed>
  <fix>3d</fix>
</trkpt>
<trkpt lat="-27.274439" lon="151.290064">
  <ele>343.1</ele>
  <time>2026-09-01T19:55:56Z</time>
  <course>270.0</course>
  <speed>0.0</speed>
  <fix>3d</fix>
</trkpt>
<trkpt lat="-27.274439" lon="151.290064">
  <ele>343.2</ele>
  <time>2026-09-01T19:55:56Z</time>
  <course>10.78</course>
  <speed>0.0</speed>
  <fix>3d</fix>
</trkpt>
<trkpt lat="-27.274439" lon="151.290064">
  <ele>343.1</ele>
  <time>2026-09-01T19:55:56Z</time>
  <course>270.0</course>
  <speed>0.0</speed>
  <fix>3d</fix>
</trkpt>
<trkpt lat="-27.274439" lon="151.290064">
  <ele>343.2</ele>
  <time>2026-09-01T19:55:56Z</time>
  <course>10.78</course>
  <speed>0.0</speed>
  <fix>3d</fix>
</trkpt>
<trkpt lat="-27.274439" lon="151.290064">
  <ele>343.1</ele>
  <time>2026-09-01T19:55:56Z</time>
  <course>270.0</course>
  <speed>0.0</speed>
  <fix>3d</fix>
</trkpt>
<trkpt lat="-27.274439" lon="151.290064">
  <ele>343.13</ele>
  <time>2026-09-01T19:55:56Z</time>
  <course>10.78</course>
  <speed>0.0</speed>
  <fix>3d</fix>
</trkpt>
<trkpt lat="-27.274439" lon="151.290064">
  <ele>343.1</ele>
  <time>2026-09-01T19:55:56Z</time>
  <course>270.0</course>
  <speed>0.0</speed>
  <fix>3d</fix>
</trkpt>
<trkpt lat="-27.274439" lon="151.290064">
  <ele>343.1</ele>
  <time>2026-09-01T19:55:56Z</time>
  <course>10.78</course>
  <speed>0.0</speed>
  <fix>3d</fix>
</trkpt>
<trkpt lat="-27.274439" lon="151.290064">
  <ele>343.1</ele>
  <time>2026-09-01T19:55:56Z</time>
  <course>270.0</course>
  <speed>0.0</speed>
  <fix>3d</fix>
</trkpt>
<trkpt lat="-27.274439" lon="151.290064">
  <ele>343.12</ele>
  <time>2026-09-01T19:55:56Z</time>
  <course>10.78</course>
  <speed>0.0</speed>
  <fix>3d</fix>
</trkpt>
<trkpt lat="-27.274439" lon="151.290064">
  <ele>343.1</ele>
  <time>2026-09-01T19:55:56Z</time>
  <course>270.0</course>
  <speed>0.0</speed>
  <fix>3d</fix>
</trkpt>
<trkpt lat="-27.274439" lon="151.290064">
  <ele>342.94</ele>
  <time>2026-09-01T19:55:56Z</time>
  <course>10.79</course>
  <speed>0.0</speed>
  <fix>3d</fix>
</trkpt>
<trkpt lat="-27.274439" lon="151.290064">
  <ele>343.1</ele>
  <time>2026-09-01T19:55:56Z</time>
  <course>270.0</course>
  <speed>0.0</speed>
  <fix>3d</fix>
</trkpt>
<trkpt lat="-27.274439" lon="151.290064">
  <ele>343.25</ele>
  <time>2026-09-01T19:55:56Z</time>
  <course>10.79</course>
  <speed>0.0</speed>
  <fix>3d</fix>
</trkpt>
<trkpt lat="-27.274439" lon="151.290064">
  <ele>343.1</ele>
  <time>2026-09-01T19:55:56Z</time>
  <course>270.0</course>
  <speed>0.0</speed>
  <fix>3d</fix>
</trkpt>
<trkpt lat="-27.274439" lon="151.290064">
  <ele>342.93</ele>
  <time>2026-09-01T19:55:56Z</time>
  <course>10.79</course>
  <speed>0.0</speed>
  <fix>3d</fix>
</trkpt>
<trkpt lat="-27.274439" lon="151.290064">
  <ele>343.1</ele>
  <time>2026-09-01T19:55:56Z</time>
  <course>270.0</course>
  <speed>0.0</speed>
  <fix>3d</fix>
</trkpt>
<trkpt lat="-27.274439" lon="151.290064">
  <ele>343.08</ele>
  <time>2026-09-01T19:55:56Z</time>
  <course>10.79</course>
  <speed>0.0</speed>
  <fix>3d</fix>
</trkpt>
<trkpt lat="-27.274439" lon="151.290064">
  <ele>343.1</ele>
  <time>2026-09-01T19:55:56Z</time>
  <course>270.0</course>
  <speed>0.0</speed>
  <fix>3d</fix>
</trkpt>
<trkpt lat="-27.274439" lon="151.290064">
  <ele>343.23</ele>
  <time>2026-09-01T19:55:56Z</time>
  <course>10.79</course>
  <speed>0.0</speed>
  <fix>3d</fix>
</trkpt>
<trkpt lat="-27.274439" lon="151.290064">
  <ele>343.1</ele>
  <time>2026-09-01T19:55:56Z</time>
  <course>270.0</course>
  <speed>0.0</speed>
  <fix>3d</fix>
</trkpt>
<trkpt lat="-27.274439" lon="151.290064">
  <ele>343.01</ele>
  <time>2026-09-01T19:55:56Z</time>
  <course>10.79</course>
  <speed>0.0</speed>
  <fix>3d</fix>
</trkpt>
<trkpt lat="-27.274439" lon="151.290064">
  <ele>343.1</ele>
  <time>2026-09-01T19:55:56Z</time>
  <course>270.0</course>
  <speed>0.0</speed>
  <fix>3d</fix>
</trkpt>
<trkpt lat="-27.274439" lon="151.290064">
  <ele>343.1</ele>
  <time>2026-09-01T19:55:56Z</time>
  <course>10.79</course>
  <speed>0.0</speed>
  <fix>3d</fix>
</trkpt>
<trkpt lat="-27.274439" lon="151.290064">
  <ele>343.1</ele>
  <time>2026-09-01T19:55:56Z</time>
  <course>270.0</course>
  <speed>0.0</speed>
  <fix>3d</fix>
</trkpt>
<trkpt lat="-27.274439" lon="151.290064">
  <ele>342.99</ele>
  <time>2026-09-01T19:55:56Z</time>
  <course>10.79</course>
  <speed>0.0</speed>
  <fix>3d</fix>
</trkpt>
<trkpt lat="-27.274439" lon="151.290064">
  <ele>343.1</ele>
  <time>2026-09-01T19:55:56Z</time>
  <course>270.0</course>
  <speed>0.0</speed>
  <fix>3d</fix>
</trkpt>
<trkpt lat="-27.274439" lon="151.290064">
  <ele>342.87</ele>
  <time>2026-09-01T19:55:56Z</time>
  <course>10.79</course>
  <speed>0.0</speed>
  <fix>3d</fix>
</trkpt>
<trkpt lat="-27.274439" lon="151.290064">
  <ele>343.1</ele>
  <time>2026-09-01T19:55:56Z</time>
  <course>270.0</course>
  <speed>0.0</speed>
  <fix>3d</fix>
</trkpt>
<trkpt lat="-27.274439" lon="151.290064">
  <ele>343.1</ele>
  <time>2026-09-01T19:55:56Z</time>
  <course>10.79</course>
  <speed>0.0</speed>
  <fix>3d</fix>
</trkpt>
<trkpt lat="-27.274439" lon="151.290064">
  <ele>343.1</ele>
  <time>2026-09-01T19:55:56Z</time>
  <course>270.0</course>
  <speed>0.0</speed>
  <fix>3d</fix>
</trkpt>
<trkpt lat="-27.274439" lon="151.290064">
  <ele>342.99</ele>
  <time>2026-09-01T19:55:56Z</time>
  <course>10.8</course>
  <speed>0.0</speed>
  <fix>3d</fix>
</trkpt>
<trkpt lat="-27.274439" lon="151.290064">
  <ele>343.1</ele>
  <time>2026-09-01T19:55:56Z</time>
  <course>270.0</course>
  <speed>0.0</speed>
  <fix>3d</fix>
</trkpt>
<trkpt lat="-27.274439" lon="151.290064">
  <ele>342.91</ele>
  <time>2026-09-01T19:55:56Z</time>
  <course>10.8</course>
  <speed>0.0</speed>
  <fix>3d</fix>
</trkpt>
<trkpt lat="-27.274439" lon="151.290064">
  <ele>343.1</ele>
  <time>2026-09-01T19:55:56Z</time>
  <course>270.0</course>
  <speed>0.0</speed>
  <fix>3d</fix>
</trkpt>
<trkpt lat="-27.274439" lon="151.290064">
  <ele>342.9</ele>
  <time>2026-09-01T19:55:56Z</time>
  <course>10.8</course>
  <speed>0.0</speed>
  <fix>3d</fix>
</trkpt>
<trkpt lat="-27.274439" lon="151.290064">
  <ele>343.1</ele>
  <time>2026-09-01T19:55:56Z</time>
  <course>270.0</course>
  <speed>0.0</speed>
  <fix>3d</fix>
</trkpt>
<trkpt lat="-27.274439" lon="151.290064">
  <ele>342.87</ele>
  <time>2026-09-01T19:55:56Z</time>
  <course>10.8</course>
  <speed>0.0</speed>
  <fix>3d</fix>
</trkpt>
<trkpt lat="-27.274439" lon="151.290064">
  <ele>343.1</ele>
  <time>2026-09-01T19:55:56Z</time>
  <course>270.0</course>
  <speed>0.0</speed>
  <fix>3d</fix>
</trkpt>
<trkpt lat="-27.274439" lon="151.290064">
  <ele>343.12</ele>
  <time>2026-09-01T19:55:56Z</time>
  <course>10.8</course>
  <speed>0.0</speed>
  <fix>3d</fix>
</trkpt>
<trkpt lat="-27.274439" lon="151.290064">
  <ele>343.1</ele>
  <time>2026-09-01T19:55:56Z</time>
  <course>270.0</course>
  <speed>0.0</speed>
  <fix>3d</fix>
</trkpt>
<trkpt lat="-27.274439" lon="151.290064">
  <ele>342.99</ele>
  <time>2026-09-01T19:55:56Z</time>
  <course>10.8</course>
  <speed>0.0</speed>
  <fix>3d</fix>
</trkpt>
<trkpt lat="-27.274439" lon="151.290064">
  <ele>343.1</ele>
  <time>2026-09-01T19:55:56Z</time>
  <course>270.0</course>
  <speed>0.0</speed>
  <fix>3d</fix>
</trkpt>
<trkpt lat="-27.274439" lon="151.290064">
  <ele>343.13</ele>
  <time>2026-09-01T19:55:56Z</time>
  <course>10.8</course>
  <speed>0.0</speed>
  <fix>3d</fix>
</trkpt>
<trkpt lat="-27.274439" lon="151.290064">
  <ele>343.1</ele>
  <time>2026-09-01T19:55:56Z</time>
  <course>270.0</course>
  <speed>0.0</speed>
  <fix>3d</fix>
</trkpt>
<trkpt lat="-27.274439" lon="151.290064">
  <ele>343.0</ele>
  <time>2026-09-01T19:55:56Z</time>
  <course>10.8</course>
  <speed>0.0</speed>
  <fix>3d</fix>
</trkpt>
<trkpt lat="-27.274439" lon="151.290064">
  <ele>343.1</ele>
  <time>2026-09-01T19:55:56Z</time>
  <course>270.0</course>
  <speed>0.0</speed>
  <fix>3d</fix>
</trkpt>
<trkpt lat="-27.274439" lon="151.290064">
  <ele>343.17</ele>
  <time>2026-09-01T19:55:56Z</time>
  <course>10.8</course>
  <speed>0.0</speed>
  <fix>3d</fix>
</trkpt>
<trkpt lat="-27.274439" lon="151.290064">
  <ele>343.1</ele>
  <time>2026-09-01T19:55:56Z</time>
  <course>270.0</course>
  <speed>0.0</speed>
  <fix>3d</fix>
</trkpt>
<trkpt lat="-27.274439" lon="151.290064">
  <ele>343.0</ele>
  <time>2026-09-01T19:55:56Z</time>
  <course>10.8</course>
  <speed>0.0</speed>
  <fix>3d</fix>
</trkpt>
<trkpt lat="-27.274439" lon="151.290064">
  <ele>343.1</ele>
  <time>2026-09-01T19:55:56Z</time>
  <course>270.0</course>
  <speed>0.0</speed>
  <fix>3d</fix>
</trkpt>
<trkpt lat="-27.274439" lon="151.290064">
  <ele>342.99</ele>
  <time>2026-09-01T19:55:56Z</time>
  <course>10.8</course>
  <speed>0.0</speed>
  <fix>3d</fix>
</trkpt>
<trkpt lat="-27.274439" lon="151.290064">
  <ele>343.1</ele>
  <time>2026-09-01T19:55:56Z</time>
  <course>270.0</course>
  <speed>0.0</speed>
  <fix>3d</fix>
</trkpt>
<trkpt lat="-27.274439" lon="151.290064">
  <ele>343.17</ele>
  <time>2026-09-01T19:55:56Z</time>
  <course>10.8</course>
  <speed>0.0</speed>
  <fix>3d</fix>
</trkpt>
<trkpt lat="-27.274439" lon="151.290064">
  <ele>343.1</ele>
  <time>2026-09-01T19:55:56Z</time>
  <course>270.0</course>
  <speed>0.0</speed>
  <fix>3d</fix>
</trkpt>
<trkpt lat="-27.274439" lon="151.290064">
  <ele>343.16</ele>
  <time>2026-09-01T19:55:56Z</time>
  <course>10.8</course>
  <speed>0.0</speed>
  <fix>3d</fix>
</trkpt>
<trkpt lat="-27.274439" lon="151.290064">
  <ele>343.1</ele>
  <time>2026-09-01T19:55:56Z</time>
  <course>270.0</course>
  <speed>0.0</speed>
  <fix>3d</fix>
</trkpt>
<trkpt lat="-27.274439" lon="151.290064">
  <ele>342.87</ele>
  <time>2026-09-01T19:55:56Z</time>
  <course>10.8</course>
  <speed>0.0</speed>
  <fix>3d</fix>
</trkpt>
<trkpt lat="-27.274439" lon="151.290064">
  <ele>343.1</ele>
  <time>2026-09-01T19:55:56Z</time>
  <course>270.0</course>
  <speed>0.0</speed>
  <fix>3d</fix>
</trkpt>
<trkpt lat="-27.274439" lon="151.290064">
  <ele>343.19</ele>
  <time>2026-09-01T19:55:56Z</time>
  <course>10.8</course>
  <speed>0.0</speed>
  <fix>3d</fix>
</trkpt>
<trkpt lat="-27.274439" lon="151.290064">
  <ele>343.1</ele>
  <time>2026-09-01T19:55:56Z</time>
  <course>270.0</course>
  <speed>0.0</speed>
  <fix>3d</fix>
</trkpt>
<trkpt lat="-27.274439" lon="151.290064">
  <ele>343.16</ele>
  <time>2026-09-01T19:55:56Z</time>
  <course>10.8</course>
  <speed>0.0</speed>
  <fix>3d</fix>
</trkpt>
<trkpt lat="-27.274439" lon="151.290064">
  <ele>343.1</ele>
  <time>2026-09-01T19:55:56Z</time>
  <course>270.0</course>
  <speed>0.0</speed>
  <fix>3d</fix>
</trkpt>
<trkpt lat="-27.274439" lon="151.290064">
  <ele>343.21</ele>
  <time>2026-09-01T19:55:56Z</time>
  <course>10.8</course>
  <speed>0.0</speed>
  <fix>3d</fix>
</trkpt>
<trkpt lat="-27.274439" lon="151.290064">
  <ele>343.1</ele>
  <time>2026-09-01T19:55:56Z</time>
  <course>270.0</course>
  <speed>0.0</speed>
  <fix>3d</fix>
</trkpt>
<trkpt lat="-27.274439" lon="151.290064">
  <ele>343.22</ele>
  <time>2026-09-01T19:55:56Z</time>
  <course>10.8</course>
  <speed>0.0</speed>
  <fix>3d</fix>
</trkpt>
<trkpt lat="-27.274439" lon="151.290064">
  <ele>343.1</ele>
  <time>2026-09-01T19:55:56Z</time>
  <course>270.0</course>
  <speed>0.0</speed>
  <fix>3d</fix>
</trkpt>
<trkpt lat="-27.274439" lon="151.290064">
  <ele>343.12</ele>
  <time>2026-09-01T19:55:56Z</time>
  <course>10.8</course>
  <speed>0.0</speed>
  <fix>3d</fix>
</trkpt>
<trkpt lat="-27.274439" lon="151.290064">
  <ele>343.1</ele>
  <time>2026-09-01T19:55:56Z</time>
  <course>270.0</course>
  <speed>0.0</speed>
  <fix>3d</fix>
</trkpt>
<trkpt lat="-27.274439" lon="151.290064">
  <ele>342.88</ele>
  <time>2026-09-01T19:55:56Z</time>
  <course>10.8</course>
  <speed>0.0</speed>
  <fix>3d</fix>
</trkpt>
<trkpt lat="-27.274439" lon="151.290064">
  <ele>343.1</ele>
  <time>2026-09-01T19:55:56Z</time>
  <course>270.0</course>
  <speed>0.0</speed>
  <fix>3d</fix>
</trkpt>
<trkpt lat="-27.274439" lon="151.290064">
  <ele>342.97</ele>
  <time>2026-09-01T19:55:56Z</time>
  <course>10.8</course>
  <speed>0.0</speed>
  <fix>3d</fix>
</trkpt>
<trkpt lat="-27.274439" lon="151.290064">
  <ele>343.1</ele>
  <time>2026-09-01T19:55:56Z</time>
  <course>270.0</course>
  <speed>0.0</speed>
  <fix>3d</fix>
</trkpt>
<trkpt lat="-27.274439" lon="151.290064">
  <ele>342.92</ele>
  <time>2026-09-01T19:55:56Z</time>
  <course>10.8</course>
  <speed>0.0</speed>
  <fix>3d</fix>
</trkpt>
<trkpt lat="-27.274439" lon="151.290064">
  <ele>343.1</ele>
  <time>2026-09-01T19:55:56Z</time>
  <course>270.0</course>
  <speed>0.0</speed>
  <fix>3d</fix>
</trkpt>
<trkpt lat="-27.274439" lon="151.290064">
  <ele>342.74</ele>
  <time>2026-09-01T19:55:56Z</time>
  <course>10.8</course>
  <speed>0.0</speed>
  <fix>3d</fix>
</trkpt>
<trkpt lat="-27.274439" lon="151.290064">
  <ele>343.1</ele>
  <time>2026-09-01T19:55:56Z</time>
  <course>270.0</course>
  <speed>0.0</speed>
  <fix>3d</fix>
</trkpt>
<trkpt lat="-27.274439" lon="151.290064">
  <ele>342.8</ele>
  <time>2026-09-01T19:55:56Z</time>
  <course>10.8</course>
  <speed>0.0</speed>
  <fix>3d</fix>
</trkpt>
<trkpt lat="-27.274439" lon="151.290064">
  <ele>343.1</ele>
  <time>2026-09-01T19:55:56Z</time>
  <course>270.0</course>
  <speed>0.0</speed>
  <fix>3d</fix>
</trkpt>
<trkpt lat="-27.274439" lon="151.290064">
  <ele>342.83</ele>
  <time>2026-09-01T19:55:56Z</time>
  <course>10.8</course>
  <speed>0.0</speed>
  <fix>3d</fix>
</trkpt>
<trkpt lat="-27.274439" lon="151.290064">
  <ele>343.1</ele>
  <time>2026-09-01T19:55:56Z</time>
  <course>270.0</course>
  <speed>0.0</speed>
  <fix>3d</fix>
</trkpt>
<trkpt lat="-27.274439" lon="151.290064">
  <ele>343.03</ele>
  <time>2026-09-01T19:55:56Z</time>
  <course>10.8</course>
  <speed>0.0</speed>
  <fix>3d</fix>
</trkpt>
<trkpt lat="-27.274439" lon="151.290064">
  <ele>343.1</ele>
  <time>2026-09-01T19:55:56Z</time>
  <course>270.0</course>
  <speed>0.0</speed>
  <fix>3d</fix>
</trkpt>
<trkpt lat="-27.274439" lon="151.290064">
  <ele>343.04</ele>
  <time>2026-09-01T19:55:56Z</time>
  <course>10.8</course>
  <speed>0.0</speed>
  <fix>3d</fix>
</trkpt>
<trkpt lat="-27.274439" lon="151.290064">
  <ele>343.1</ele>
  <time>2026-09-01T19:55:56Z</time>
  <course>270.0</course>
  <speed>0.0</speed>
  <fix>3d</fix>
</trkpt>
<trkpt lat="-27.274439" lon="151.290064">
  <ele>343.07</ele>
  <time>2026-09-01T19:55:56Z</time>
  <course>10.81</course>
  <speed>0.0</speed>
  <fix>3d</fix>
</trkpt>
<trkpt lat="-27.274439" lon="151.290064">
  <ele>343.1</ele>
  <time>2026-09-01T19:55:56Z</time>
  <course>270.0</course>
  <speed>0.0</speed>
  <fix>3d</fix>
</trkpt>
<trkpt lat="-27.274439" lon="151.290064">
  <ele>343.01</ele>
  <time>2026-09-01T19:55:56Z</time>
  <course>10.82</course>
  <speed>0.0</speed>
  <fix>3d</fix>
</trkpt>
<trkpt lat="-27.274439" lon="151.290064">
  <ele>343.1</ele>
  <time>2026-09-01T19:55:56Z</time>
  <course>270.0</course>
  <speed>0.0</speed>
  <fix>3d</fix>
</trkpt>
<trkpt lat="-27.274439" lon="151.290064">
  <ele>342.88</ele>
  <time>2026-09-01T19:55:56Z</time>
  <course>10.83</course>
  <speed>0.0</speed>
  <fix>3d</fix>
</trkpt>
<trkpt lat="-27.274439" lon="151.290064">
  <ele>343.1</ele>
  <time>2026-09-01T19:55:56Z</time>
  <course>270.0</course>
  <speed>0.0</speed>
  <fix>3d</fix>
</trkpt>
<trkpt lat="-27.274439" lon="151.290064">
  <ele>343.12</ele>
  <time>2026-09-01T19:55:56Z</time>
  <course>10.84</course>
  <speed>0.0</speed>
  <fix>3d</fix>
</trkpt>
<trkpt lat="-27.274439" lon="151.290064">
  <ele>343.1</ele>
  <time>2026-09-01T19:55:56Z</time>
  <course>270.0</course>
  <speed>0.0</speed>
  <fix>3d</fix>
</trkpt>
<trkpt lat="-27.274439" lon="151.290064">
  <ele>342.88</ele>
  <time>2026-09-01T19:55:56Z</time>
  <course>10.85</course>
  <speed>0.0</speed>
  <fix>3d</fix>
</trkpt>
<trkpt lat="-27.274439" lon="151.290064">
  <ele>343.1</ele>
  <time>2026-09-01T19:55:56Z</time>
  <course>270.0</course>
  <speed>0.0</speed>
  <fix>3d</fix>
</trkpt>
<trkpt lat="-27.274439" lon="151.290064">
  <ele>343.02</ele>
  <time>2026-09-01T19:55:56Z</time>
  <course>10.86</course>
  <speed>0.0</speed>
  <fix>3d</fix>
</trkpt>
<trkpt lat="-27.274439" lon="151.290064">
  <ele>343.1</ele>
  <time>2026-09-01T19:55:56Z</time>
  <course>270.0</course>
  <speed>0.0</speed>
  <fix>3d</fix>
</trkpt>
<trkpt lat="-27.274439" lon="151.290064">
  <ele>342.83</ele>
  <time>2026-09-01T19:55:56Z</time>
  <course>10.87</course>
  <speed>0.0</speed>
  <fix>3d</fix>
</trkpt>
<trkpt lat="-27.274439" lon="151.290064">
  <ele>343.1</ele>
  <time>2026-09-01T19:55:56Z</time>
  <course>270.0</course>
  <speed>0.0</speed>
  <fix>3d</fix>
</trkpt>
<trkpt lat="-27.274439" lon="151.290064">
  <ele>342.9</ele>
  <time>2026-09-01T19:55:56Z</time>
  <course>10.88</course>
  <speed>0.0</speed>
  <fix>3d</fix>
</trkpt>
<trkpt lat="-27.274439" lon="151.290064">
  <ele>343.1</ele>
  <time>2026-09-01T19:55:56Z</time>
  <course>270.0</course>
  <speed>0.0</speed>
  <fix>3d</fix>
</trkpt>
<trkpt lat="-27.274439" lon="151.290064">
  <ele>343.04</ele>
  <time>2026-09-01T19:55:56Z</time>
  <course>10.88</course>
  <speed>0.0</speed>
  <fix>3d</fix>
</trkpt>
<trkpt lat="-27.274439" lon="151.290064">
  <ele>343.1</ele>
  <time>2026-09-01T19:55:56Z</time>
  <course>270.0</course>
  <speed>0.0</speed>
  <fix>3d</fix>
</trkpt>
<trkpt lat="-27.274439" lon="151.290064">
  <ele>343.09</ele>
  <time>2026-09-01T19:55:56Z</time>
  <course>10.89</course>
  <speed>0.0</speed>
  <fix>3d</fix>
</trkpt>
<trkpt lat="-27.274439" lon="151.290064">
  <ele>343.1</ele>
  <time>2026-09-01T19:55:56Z</time>
  <course>270.0</course>
  <speed>0.0</speed>
  <fix>3d</fix>
</trkpt>
<trkpt lat="-27.274439" lon="151.290064">
  <ele>342.75</ele>
  <time>2026-09-01T19:55:56Z</time>
  <course>10.9</course>
  <speed>0.0</speed>
  <fix>3d</fix>
</trkpt>
<trkpt lat="-27.274439" lon="151.290064">
  <ele>343.1</ele>
  <time>2026-09-01T19:55:56Z</time>
  <course>270.0</course>
  <speed>0.0</speed>
  <fix>3d</fix>
</trkpt>
<trkpt lat="-27.274439" lon="151.290064">
  <ele>342.95</ele>
  <time>2026-09-01T19:55:56Z</time>
  <course>10.91</course>
  <speed>0.0</speed>
  <fix>3d</fix>
</trkpt>
<trkpt lat="-27.274439" lon="151.290064">
  <ele>343.1</ele>
  <time>2026-09-01T19:55:56Z</time>
  <course>270.0</course>
  <speed>0.0</speed>
  <fix>3d</fix>
</trkpt>
<trkpt lat="-27.274439" lon="151.290064">
  <ele>342.83</ele>
  <time>2026-09-01T19:55:56Z</time>
  <course>10.92</course>
  <speed>0.0</speed>
  <fix>3d</fix>
</trkpt>
<trkpt lat="-27.274439" lon="151.290064">
  <ele>343.1</ele>
  <time>2026-09-01T19:55:56Z</time>
  <course>270.0</course>
  <speed>0.0</speed>
  <fix>3d</fix>
</trkpt>
<trkpt lat="-27.274439" lon="151.290064">
  <ele>343.05</ele>
  <time>2026-09-01T19:55:56Z</time>
  <course>10.93</course>
  <speed>0.0</speed>
  <fix>3d</fix>
</trkpt>
<trkpt lat="-27.274439" lon="151.290064">
  <ele>343.1</ele>
  <time>2026-09-01T19:55:56Z</time>
  <course>270.0</course>
  <speed>0.0</speed>
  <fix>3d</fix>
</trkpt>
<trkpt lat="-27.274439" lon="151.290064">
  <ele>342.88</ele>
  <time>2026-09-01T19:55:56Z</time>
  <course>10.93</course>
  <speed>0.0</speed>
  <fix>3d</fix>
</trkpt>
<trkpt lat="-27.274439" lon="151.290064">
  <ele>343.1</ele>
  <time>2026-09-01T19:55:56Z</time>
  <course>270.0</course>
  <speed>0.0</speed>
  <fix>3d</fix>
</trkpt>
<trkpt lat="-27.274439" lon="151.290064">
  <ele>343.12</ele>
  <time>2026-09-01T19:55:56Z</time>
  <course>10.94</course>
  <speed>0.0</speed>
  <fix>3d</fix>
</trkpt>
<trkpt lat="-27.274439" lon="151.290064">
  <ele>343.1</ele>
  <time>2026-09-01T19:55:56Z</time>
  <course>270.0</course>
  <speed>0.0</speed>
  <fix>3d</fix>
</trkpt>
<trkpt lat="-27.274439" lon="151.290064">
  <ele>342.95</ele>
  <time>2026-09-01T19:55:56Z</time>
  <course>10.95</course>
  <speed>0.0</speed>
  <fix>3d</fix>
</trkpt>
<trkpt lat="-27.274439" lon="151.290064">
  <ele>343.1</ele>
  <time>2026-09-01T19:55:56Z</time>
  <course>270.0</course>
  <speed>0.0</speed>
  <fix>3d</fix>
</trkpt>
<trkpt lat="-27.274439" lon="151.290064">
  <ele>343.19</ele>
  <time>2026-09-01T19:55:56Z</time>
  <course>10.96</course>
  <speed>0.0</speed>
  <fix>3d</fix>
</trkpt>
<trkpt lat="-27.274439" lon="151.290064">
  <ele>343.1</ele>
  <time>2026-09-01T19:55:56Z</time>
  <course>270.0</course>
  <speed>0.0</speed>
  <fix>3d</fix>
</trkpt>
<trkpt lat="-27.274439" lon="151.290064">
  <ele>343.02</ele>
  <time>2026-09-01T19:55:56Z</time>
  <course>10.96</course>
  <speed>0.0</speed>
  <fix>3d</fix>
</trkpt>
<trkpt lat="-27.274439" lon="151.290064">
  <ele>343.1</ele>
  <time>2026-09-01T19:55:56Z</time>
  <course>270.0</course>
  <speed>0.0</speed>
  <fix>3d</fix>
</trkpt>
<trkpt lat="-27.274439" lon="151.290064">
  <ele>343.25</ele>
  <time>2026-09-01T19:55:56Z</time>
  <course>10.97</course>
  <speed>0.0</speed>
  <fix>3d</fix>
</trkpt>
<trkpt lat="-27.274439" lon="151.290064">
  <ele>343.1</ele>
  <time>2026-09-01T19:55:56Z</time>
  <course>270.0</course>
  <speed>0.0</speed>
  <fix>3d</fix>
</trkpt>
<trkpt lat="-27.274439" lon="151.290064">
  <ele>342.94</ele>
  <time>2026-09-01T19:55:56Z</time>
  <course>10.98</course>
  <speed>0.0</speed>
  <fix>3d</fix>
</trkpt>
<trkpt lat="-27.274439" lon="151.290064">
  <ele>343.1</ele>
  <time>2026-09-01T19:55:56Z</time>
  <course>270.0</course>
  <speed>0.0</speed>
  <fix>3d</fix>
</trkpt>
<trkpt lat="-27.274439" lon="151.290064">
  <ele>343.12</ele>
  <time>2026-09-01T19:55:56Z</time>
  <course>10.98</course>
  <speed>0.0</speed>
  <fix>3d</fix>
</trkpt>
<trkpt lat="-27.274439" lon="151.290064">
  <ele>343.1</ele>
  <time>2026-09-01T19:55:56Z</time>
  <course>270.0</course>
  <speed>0.0</speed>
  <fix>3d</fix>
</trkpt>
<trkpt lat="-27.274439" lon="151.290064">
  <ele>343.01</ele>
  <time>2026-09-01T19:55:56Z</time>
  <course>10.99</course>
  <speed>0.0</speed>
  <fix>3d</fix>
</trkpt>
<trkpt lat="-27.274439" lon="151.290064">
  <ele>343.1</ele>
  <time>2026-09-01T19:55:56Z</time>
  <course>270.0</course>
  <speed>0.0</speed>
  <fix>3d</fix>
</trkpt>
<trkpt lat="-27.274439" lon="151.290064">
  <ele>343.13</ele>
  <time>2026-09-01T19:55:56Z</time>
  <course>11.0</course>
  <speed>0.0</speed>
  <fix>3d</fix>
</trkpt>
<trkpt lat="-27.274439" lon="151.290064">
  <ele>343.1</ele>
  <time>2026-09-01T19:55:56Z</time>
  <course>270.0</course>
  <speed>0.0</speed>
  <fix>3d</fix>
</trkpt>
<trkpt lat="-27.274439" lon="151.290064">
  <ele>343.18</ele>
  <time>2026-09-01T19:55:56Z</time>
  <course>11.0</course>
  <speed>0.0</speed>
  <fix>3d</fix>
</trkpt>
<trkpt lat="-27.274439" lon="151.290064">
  <ele>343.1</ele>
  <time>2026-09-01T19:55:56Z</time>
  <course>270.0</course>
  <speed>0.0</speed>
  <fix>3d</fix>
</trkpt>
<trkpt lat="-27.274439" lon="151.290064">
  <ele>342.97</ele>
  <time>2026-09-01T19:55:56Z</time>
  <course>11.01</course>
  <speed>0.0</speed>
  <fix>3d</fix>
</trkpt>
<trkpt lat="-27.274439" lon="151.290064">
  <ele>343.1</ele>
  <time>2026-09-01T19:55:56Z</time>
  <course>270.0</course>
  <speed>0.0</speed>
  <fix>3d</fix>
</trkpt>
<trkpt lat="-27.274439" lon="151.290064">
  <ele>343.14</ele>
  <time>2026-09-01T19:55:56Z</time>
  <course>11.01</course>
  <speed>0.0</speed>
  <fix>3d</fix>
</trkpt>
<trkpt lat="-27.274439" lon="151.290064">
  <ele>343.1</ele>
  <time>2026-09-01T19:55:56Z</time>
  <course>270.0</course>
  <speed>0.0</speed>
  <fix>3d</fix>
</trkpt>
<trkpt lat="-27.274439" lon="151.290064">
  <ele>342.96</ele>
  <time>2026-09-01T19:55:56Z</time>
  <course>11.02</course>
  <speed>0.0</speed>
  <fix>3d</fix>
</trkpt>
<trkpt lat="-27.274439" lon="151.290064">
  <ele>343.1</ele>
  <time>2026-09-01T19:55:56Z</time>
  <course>270.0</course>
  <speed>0.0</speed>
  <fix>3d</fix>
</trkpt>
<trkpt lat="-27.274439" lon="151.290064">
  <ele>343.3</ele>
  <time>2026-09-01T19:55:56Z</time>
  <course>11.03</course>
  <speed>0.0</speed>
  <fix>3d</fix>
</trkpt>
<trkpt lat="-27.274439" lon="151.290064">
  <ele>343.1</ele>
  <time>2026-09-01T19:55:56Z</time>
  <course>270.0</course>
  <speed>0.0</speed>
  <fix>3d</fix>
</trkpt>
<trkpt lat="-27.274439" lon="151.290064">
  <ele>343.22</ele>
  <time>2026-09-01T19:55:56Z</time>
  <course>11.03</course>
  <speed>0.0</speed>
  <fix>3d</fix>
</trkpt>
<trkpt lat="-27.274439" lon="151.290064">
  <ele>343.1</ele>
  <time>2026-09-01T19:55:56Z</time>
  <course>270.0</course>
  <speed>0.0</speed>
  <fix>3d</fix>
</trkpt>
<trkpt lat="-27.274439" lon="151.290064">
  <ele>343.08</ele>
  <time>2026-09-01T19:55:56Z</time>
  <course>11.04</course>
  <speed>0.0</speed>
  <fix>3d</fix>
</trkpt>
<trkpt lat="-27.274439" lon="151.290064">
  <ele>343.1</ele>
  <time>2026-09-01T19:55:56Z</time>
  <course>270.0</course>
  <speed>0.0</speed>
  <fix>3d</fix>
</trkpt>
<trkpt lat="-27.274439" lon="151.290064">
  <ele>343.23</ele>
  <time>2026-09-01T19:55:56Z</time>
  <course>11.04</course>
  <speed>0.0</speed>
  <fix>3d</fix>
</trkpt>
<trkpt lat="-27.274439" lon="151.290064">
  <ele>343.1</ele>
  <time>2026-09-01T19:55:56Z</time>
  <course>270.0</course>
  <speed>0.0</speed>
  <fix>3d</fix>
</trkpt>
<trkpt lat="-27.274439" lon="151.290064">
  <ele>343.33</ele>
  <time>2026-09-01T19:55:56Z</time>
  <course>11.05</course>
  <speed>0.0</speed>
  <fix>3d</fix>
</trkpt>
<trkpt lat="-27.274439" lon="151.290064">
  <ele>343.1</ele>
  <time>2026-09-01T19:55:56Z</time>
  <course>270.0</course>
  <speed>0.0</speed>
  <fix>3d</fix>
</trkpt>
<trkpt lat="-27.274439" lon="151.290064">
  <ele>343.05</ele>
  <time>2026-09-01T19:55:56Z</time>
  <course>11.05</course>
  <speed>0.0</speed>
  <fix>3d</fix>
</trkpt>
<trkpt lat="-27.274439" lon="151.290064">
  <ele>343.1</ele>
  <time>2026-09-01T19:55:56Z</time>
  <course>270.0</course>
  <speed>0.0</speed>
  <fix>3d</fix>
</trkpt>
<trkpt lat="-27.274439" lon="151.290064">
  <ele>343.16</ele>
  <time>2026-09-01T19:55:56Z</time>
  <course>11.06</course>
  <speed>0.0</speed>
  <fix>3d</fix>
</trkpt>
<trkpt lat="-27.274439" lon="151.290064">
  <ele>343.1</ele>
  <time>2026-09-01T19:55:56Z</time>
  <course>270.0</course>
  <speed>0.0</speed>
  <fix>3d</fix>
</trkpt>
<trkpt lat="-27.274439" lon="151.290064">
  <ele>343.16</ele>
  <time>2026-09-01T19:55:56Z</time>
  <course>11.07</course>
  <speed>0.0</speed>
  <fix>3d</fix>
</trkpt>
<trkpt lat="-27.274439" lon="151.290064">
  <ele>343.1</ele>
  <time>2026-09-01T19:55:56Z</time>
  <course>270.0</course>
  <speed>0.0</speed>
  <fix>3d</fix>
</trkpt>
<trkpt lat="-27.274439" lon="151.290064">
  <ele>343.08</ele>
  <time>2026-09-01T19:55:56Z</time>
  <course>11.07</course>
  <speed>0.0</speed>
  <fix>3d</fix>
</trkpt>
<trkpt lat="-27.274439" lon="151.290064">
  <ele>343.1</ele>
  <time>2026-09-01T19:55:56Z</time>
  <course>270.0</course>
  <speed>0.0</speed>
  <fix>3d</fix>
</trkpt>
<trkpt lat="-27.274439" lon="151.290064">
  <ele>343.17</ele>
  <time>2026-09-01T19:55:56Z</time>
  <course>11.08</course>
  <speed>0.0</speed>
  <fix>3d</fix>
</trkpt>
<trkpt lat="-27.274439" lon="151.290064">
  <ele>343.1</ele>
  <time>2026-09-01T19:55:56Z</time>
  <course>270.0</course>
  <speed>0.0</speed>
  <fix>3d</fix>
</trkpt>
<trkpt lat="-27.274439" lon="151.290064">
  <ele>343.22</ele>
  <time>2026-09-01T19:55:56Z</time>
  <course>11.08</course>
  <speed>0.0</speed>
  <fix>3d</fix>
</trkpt>
<trkpt lat="-27.274439" lon="151.290064">
  <ele>343.1</ele>
  <time>2026-09-01T19:55:56Z</time>
  <course>270.0</course>
  <speed>0.0</speed>
  <fix>3d</fix>
</trkpt>
<trkpt lat="-27.274439" lon="151.290064">
  <ele>343.01</ele>
  <time>2026-09-01T19:55:56Z</time>
  <course>11.09</course>
  <speed>0.0</speed>
  <fix>3d</fix>
</trkpt>
<trkpt lat="-27.274439" lon="151.290064">
  <ele>343.1</ele>
  <time>2026-09-01T19:55:56Z</time>
  <course>270.0</course>
  <speed>0.0</speed>
  <fix>3d</fix>
</trkpt>
<trkpt lat="-27.274439" lon="151.290064">
  <ele>343.26</ele>
  <time>2026-09-01T19:55:56Z</time>
  <course>11.09</course>
  <speed>0.0</speed>
  <fix>3d</fix>
</trkpt>
<trkpt lat="-27.274439" lon="151.290064">
  <ele>343.1</ele>
  <time>2026-09-01T19:55:56Z</time>
  <course>270.0</course>
  <speed>0.0</speed>
  <fix>3d</fix>
</trkpt>
<trkpt lat="-27.274439" lon="151.290064">
  <ele>343.28</ele>
  <time>2026-09-01T19:55:56Z</time>
  <course>11.1</course>
  <speed>0.0</speed>
  <fix>3d</fix>
</trkpt>
<trkpt lat="-27.274439" lon="151.290064">
  <ele>343.1</ele>
  <time>2026-09-01T19:55:56Z</time>
  <course>270.0</course>
  <speed>0.0</speed>
  <fix>3d</fix>
</trkpt>
<trkpt lat="-27.274439" lon="151.290064">
  <ele>343.34</ele>
  <time>2026-09-01T19:55:56Z</time>
  <course>11.1</course>
  <speed>0.0</speed>
  <fix>3d</fix>
</trkpt>
<trkpt lat="-27.274439" lon="151.290064">
  <ele>343.1</ele>
  <time>2026-09-01T19:55:56Z</time>
  <course>270.0</course>
  <speed>0.0</speed>
  <fix>3d</fix>
</trkpt>
<trkpt lat="-27.274439" lon="151.290064">
  <ele>343.1</ele>
  <time>2026-09-01T19:55:56Z</time>
  <course>11.11</course>
  <speed>0.0</speed>
  <fix>3d</fix>
</trkpt>
<trkpt lat="-27.274439" lon="151.290064">
  <ele>343.1</ele>
  <time>2026-09-01T19:55:56Z</time>
  <course>270.0</course>
  <speed>0.0</speed>
  <fix>3d</fix>
</trkpt>
<trkpt lat="-27.274439" lon="151.290064">
  <ele>342.96</ele>
  <time>2026-09-01T19:55:56Z</time>
  <course>11.11</course>
  <speed>0.0</speed>
  <fix>3d</fix>
</trkpt>
<trkpt lat="-27.274439" lon="151.290064">
  <ele>343.1</ele>
  <time>2026-09-01T19:55:56Z</time>
  <course>270.0</course>
  <speed>0.0</speed>
  <fix>3d</fix>
</trkpt>
<trkpt lat="-27.274439" lon="151.290064">
  <ele>343.03</ele>
  <time>2026-09-01T19:55:56Z</time>
  <course>11.12</course>
  <speed>0.0</speed>
  <fix>3d</fix>
</trkpt>
<trkpt lat="-27.274439" lon="151.290064">
  <ele>343.1</ele>
  <time>2026-09-01T19:55:56Z</time>
  <course>270.0</course>
  <speed>0.0</speed>
  <fix>3d</fix>
</trkpt>
<trkpt lat="-27.274439" lon="151.290064">
  <ele>343.23</ele>
  <time>2026-09-01T19:55:56Z</time>
  <course>11.12</course>
  <speed>0.0</speed>
  <fix>3d</fix>
</trkpt>
<trkpt lat="-27.274439" lon="151.290064">
  <ele>343.1</ele>
  <time>2026-09-01T19:55:56Z</time>
  <course>270.0</course>
  <speed>0.0</speed>
  <fix>3d</fix>
</trkpt>
<trkpt lat="-27.274439" lon="151.290064">
  <ele>343.14</ele>
  <time>2026-09-01T19:55:56Z</time>
  <course>11.12</course>
  <speed>0.0</speed>
  <fix>3d</fix>
</trkpt>
<trkpt lat="-27.274439" lon="151.290064">
  <ele>343.1</ele>
  <time>2026-09-01T19:55:56Z</time>
  <course>270.0</course>
  <speed>0.0</speed>
  <fix>3d</fix>
</trkpt>
<trkpt lat="-27.274439" lon="151.290064">
  <ele>343.13</ele>
  <time>2026-09-01T19:55:56Z</time>
  <course>11.13</course>
  <speed>0.0</speed>
  <fix>3d</fix>
</trkpt>
<trkpt lat="-27.274439" lon="151.290064">
  <ele>343.1</ele>
  <time>2026-09-01T19:55:56Z</time>
  <course>270.0</course>
  <speed>0.0</speed>
  <fix>3d</fix>
</trkpt>
<trkpt lat="-27.274439" lon="151.290064">
  <ele>343.03</ele>
  <time>2026-09-01T19:55:56Z</time>
  <course>11.13</course>
  <speed>0.0</speed>
  <fix>3d</fix>
</trkpt>
<trkpt lat="-27.274439" lon="151.290064">
  <ele>343.1</ele>
  <time>2026-09-01T19:55:56Z</time>
  <course>270.0</course>
  <speed>0.0</speed>
  <fix>3d</fix>
</trkpt>
<trkpt lat="-27.274439" lon="151.290064">
  <ele>343.15</ele>
  <time>2026-09-01T19:55:56Z</time>
  <course>11.14</course>
  <speed>0.0</speed>
  <fix>3d</fix>
</trkpt>
<trkpt lat="-27.274439" lon="151.290064">
  <ele>343.1</ele>
  <time>2026-09-01T19:55:56Z</time>
  <course>270.0</course>
  <speed>0.0</speed>
  <fix>3d</fix>
</trkpt>
<trkpt lat="-27.274439" lon="151.290064">
  <ele>343.14</ele>
  <time>2026-09-01T19:55:56Z</time>
  <course>11.14</course>
  <speed>0.0</speed>
  <fix>3d</fix>
</trkpt>
<trkpt lat="-27.274439" lon="151.290064">
  <ele>343.1</ele>
  <time>2026-09-01T19:55:56Z</time>
  <course>270.0</course>
  <speed>0.0</speed>
  <fix>3d</fix>
</trkpt>
<trkpt lat="-27.274439" lon="151.290064">
  <ele>343.17</ele>
  <time>2026-09-01T19:55:56Z</time>
  <course>11.15</course>
  <speed>0.0</speed>
  <fix>3d</fix>
</trkpt>
<trkpt lat="-27.274439" lon="151.290064">
  <ele>343.1</ele>
  <time>2026-09-01T19:55:56Z</time>
  <course>270.0</course>
  <speed>0.0</speed>
  <fix>3d</fix>
</trkpt>
<trkpt lat="-27.274439" lon="151.290064">
  <ele>342.95</ele>
  <time>2026-09-01T19:55:56Z</time>
  <course>11.15</course>
  <speed>0.0</speed>
  <fix>3d</fix>
</trkpt>
<trkpt lat="-27.274439" lon="151.290064">
  <ele>343.1</ele>
  <time>2026-09-01T19:55:56Z</time>
  <course>270.0</course>
  <speed>0.0</speed>
  <fix>3d</fix>
</trkpt>
<trkpt lat="-27.274439" lon="151.290064">
  <ele>343.06</ele>
  <time>2026-09-01T19:55:56Z</time>
  <course>11.16</course>
  <speed>0.0</speed>
  <fix>3d</fix>
</trkpt>
<trkpt lat="-27.274439" lon="151.290064">
  <ele>343.1</ele>
  <time>2026-09-01T19:55:56Z</time>
  <course>270.0</course>
  <speed>0.0</speed>
  <fix>3d</fix>
</trkpt>
<trkpt lat="-27.274439" lon="151.290064">
  <ele>343.11</ele>
  <time>2026-09-01T19:55:56Z</time>
  <course>11.16</course>
  <speed>0.0</speed>
  <fix>3d</fix>
</trkpt>
<trkpt lat="-27.274439" lon="151.290064">
  <ele>343.1</ele>
  <time>2026-09-01T19:55:56Z</time>
  <course>270.0</course>
  <speed>0.0</speed>
  <fix>3d</fix>
</trkpt>
<trkpt lat="-27.274439" lon="151.290064">
  <ele>343.3</ele>
  <time>2026-09-01T19:55:56Z</time>
  <course>11.16</course>
  <speed>0.0</speed>
  <fix>3d</fix>
</trkpt>
<trkpt lat="-27.274439" lon="151.290064">
  <ele>343.1</ele>
  <time>2026-09-01T19:55:56Z</time>
  <course>270.0</course>
  <speed>0.0</speed>
  <fix>3d</fix>
</trkpt>
<trkpt lat="-27.274439" lon="151.290064">
  <ele>343.03</ele>
  <time>2026-09-01T19:55:56Z</time>
  <course>11.17</course>
  <speed>0.0</speed>
  <fix>3d</fix>
</trkpt>
<trkpt lat="-27.274439" lon="151.290064">
  <ele>343.1</ele>
  <time>2026-09-01T19:55:56Z</time>
  <course>270.0</course>
  <speed>0.0</speed>
  <fix>3d</fix>
</trkpt>
<trkpt lat="-27.274439" lon="151.290064">
  <ele>343.13</ele>
  <time>2026-09-01T19:55:56Z</time>
  <course>11.17</course>
  <speed>0.0</speed>
  <fix>3d</fix>
</trkpt>
<trkpt lat="-27.274439" lon="151.290064">
  <ele>343.1</ele>
  <time>2026-09-01T19:55:56Z</time>
  <course>270.0</course>
  <speed>0.0</speed>
  <fix>3d</fix>
</trkpt>
<trkpt lat="-27.274439" lon="151.290064">
  <ele>343.02</ele>
  <time>2026-09-01T19:55:56Z</time>
  <course>11.18</course>
  <speed>0.0</speed>
  <fix>3d</fix>
</trkpt>
<trkpt lat="-27.274439" lon="151.290064">
  <ele>343.1</ele>
  <time>2026-09-01T19:55:56Z</time>
  <course>270.0</course>
  <speed>0.0</speed>
  <fix>3d</fix>
</trkpt>
<trkpt lat="-27.274439" lon="151.290064">
  <ele>343.17</ele>
  <time>2026-09-01T19:55:56Z</time>
  <course>11.18</course>
  <speed>0.0</speed>
  <fix>3d</fix>
</trkpt>
<trkpt lat="-27.274439" lon="151.290064">
  <ele>343.1</ele>
  <time>2026-09-01T19:55:56Z</time>
  <course>270.0</course>
  <speed>0.0</speed>
  <fix>3d</fix>
</trkpt>
<trkpt lat="-27.274439" lon="151.290064">
  <ele>343.26</ele>
  <time>2026-09-01T19:55:56Z</time>
  <course>11.18</course>
  <speed>0.0</speed>
  <fix>3d</fix>
</trkpt>
<trkpt lat="-27.274439" lon="151.290064">
  <ele>343.1</ele>
  <time>2026-09-01T19:55:56Z</time>
  <course>270.0</course>
  <speed>0.0</speed>
  <fix>3d</fix>
</trkpt>
<trkpt lat="-27.274439" lon="151.290064">
  <ele>343.29</ele>
  <time>2026-09-01T19:55:56Z</time>
  <course>11.19</course>
  <speed>0.0</speed>
  <fix>3d</fix>
</trkpt>
<trkpt lat="-27.274439" lon="151.290064">
  <ele>343.1</ele>
  <time>2026-09-01T19:55:56Z</time>
  <course>270.0</course>
  <speed>0.0</speed>
  <fix>3d</fix>
</trkpt>
<trkpt lat="-27.274439" lon="151.290064">
  <ele>343.13</ele>
  <time>2026-09-01T19:55:56Z</time>
  <course>11.19</course>
  <speed>0.0</speed>
  <fix>3d</fix>
</trkpt>
<trkpt lat="-27.274439" lon="151.290064">
  <ele>343.1</ele>
  <time>2026-09-01T19:55:56Z</time>
  <course>270.0</course>
  <speed>0.0</speed>
  <fix>3d</fix>
</trkpt>
<trkpt lat="-27.274439" lon="151.290064">
  <ele>343.1</ele>
  <time>2026-09-01T19:55:56Z</time>
  <course>11.2</course>
  <speed>0.0</speed>
  <fix>3d</fix>
</trkpt>
<trkpt lat="-27.274439" lon="151.290064">
  <ele>343.1</ele>
  <time>2026-09-01T19:55:56Z</time>
  <course>270.0</course>
  <speed>0.0</speed>
  <fix>3d</fix>
</trkpt>
<trkpt lat="-27.274439" lon="151.290064">
  <ele>343.2</ele>
  <time>2026-09-01T19:55:56Z</time>
  <course>11.2</course>
  <speed>0.0</speed>
  <fix>3d</fix>
</trkpt>
<trkpt lat="-27.274439" lon="151.290064">
  <ele>343.1</ele>
  <time>2026-09-01T19:55:56Z</time>
  <course>270.0</course>
  <speed>0.0</speed>
  <fix>3d</fix>
</trkpt>
<trkpt lat="-27.274439" lon="151.290064">
  <ele>343.09</ele>
  <time>2026-09-01T19:55:56Z</time>
  <course>11.2</course>
  <speed>0.0</speed>
  <fix>3d</fix>
</trkpt>
<trkpt lat="-27.274439" lon="151.290064">
  <ele>343.1</ele>
  <time>2026-09-01T19:55:56Z</time>
  <course>270.0</course>
  <speed>0.0</speed>
  <fix>3d</fix>
</trkpt>
<trkpt lat="-27.274439" lon="151.290064">
  <ele>343.11</ele>
  <time>2026-09-01T19:55:56Z</time>
  <course>11.21</course>
  <speed>0.0</speed>
  <fix>3d</fix>
</trkpt>
<trkpt lat="-27.274439" lon="151.290064">
  <ele>343.1</ele>
  <time>2026-09-01T19:55:56Z</time>
  <course>270.0</course>
  <speed>0.0</speed>
  <fix>3d</fix>
</trkpt>
<trkpt lat="-27.274439" lon="151.290064">
  <ele>343.21</ele>
  <time>2026-09-01T19:55:56Z</time>
  <course>11.21</course>
  <speed>0.0</speed>
  <fix>3d</fix>
</trkpt>
<trkpt lat="-27.274439" lon="151.290064">
  <ele>343.1</ele>
  <time>2026-09-01T19:55:56Z</time>
  <course>270.0</course>
  <speed>0.0</speed>
  <fix>3d</fix>
</trkpt>
<trkpt lat="-27.274439" lon="151.290064">
  <ele>343.22</ele>
  <time>2026-09-01T19:55:56Z</time>
  <course>11.21</course>
  <speed>0.0</speed>
  <fix>3d</fix>
</trkpt>
<trkpt lat="-27.274439" lon="151.290064">
  <ele>343.1</ele>
  <time>2026-09-01T19:55:56Z</time>
  <course>270.0</course>
  <speed>0.0</speed>
  <fix>3d</fix>
</trkpt>
<trkpt lat="-27.274439" lon="151.290064">
  <ele>342.98</ele>
  <time>2026-09-01T19:55:56Z</time>
  <course>11.22</course>
  <speed>0.0</speed>
  <fix>3d</fix>
</trkpt>
<trkpt lat="-27.274439" lon="151.290064">
  <ele>343.1</ele>
  <time>2026-09-01T19:55:56Z</time>
  <course>270.0</course>
  <speed>0.0</speed>
  <fix>3d</fix>
</trkpt>
<trkpt lat="-27.274439" lon="151.290064">
  <ele>343.15</ele>
  <time>2026-09-01T19:55:56Z</time>
  <course>11.22</course>
  <speed>0.0</speed>
  <fix>3d</fix>
</trkpt>
<trkpt lat="-27.274439" lon="151.290064">
  <ele>343.1</ele>
  <time>2026-09-01T19:55:56Z</time>
  <course>270.0</course>
  <speed>0.0</speed>
  <fix>3d</fix>
</trkpt>
<trkpt lat="-27.274439" lon="151.290064">
  <ele>343.28</ele>
  <time>2026-09-01T19:55:56Z</time>
  <course>11.22</course>
  <speed>0.0</speed>
  <fix>3d</fix>
</trkpt>
<trkpt lat="-27.274439" lon="151.290064">
  <ele>343.1</ele>
  <time>2026-09-01T19:55:56Z</time>
  <course>270.0</course>
  <speed>0.0</speed>
  <fix>3d</fix>
</trkpt>
<trkpt lat="-27.274439" lon="151.290064">
  <ele>343.3</ele>
  <time>2026-09-01T19:55:56Z</time>
  <course>11.22</course>
  <speed>0.0</speed>
  <fix>3d</fix>
</trkpt>
<trkpt lat="-27.274439" lon="151.290064">
  <ele>343.1</ele>
  <time>2026-09-01T19:55:56Z</time>
  <course>270.0</course>
  <speed>0.0</speed>
  <fix>3d</fix>
</trkpt>
<trkpt lat="-27.274439" lon="151.290064">
  <ele>343.33</ele>
  <time>2026-09-01T19:55:56Z</time>
  <course>11.22</course>
  <speed>0.0</speed>
  <fix>3d</fix>
</trkpt>
<trkpt lat="-27.274439" lon="151.290064">
  <ele>343.1</ele>
  <time>2026-09-01T19:55:56Z</time>
  <course>270.0</course>
  <speed>0.0</speed>
  <fix>3d</fix>
</trkpt>
<trkpt lat="-27.274439" lon="151.290064">
  <ele>342.96</ele>
  <time>2026-09-01T19:55:56Z</time>
  <course>11.22</course>
  <speed>0.0</speed>
  <fix>3d</fix>
</trkpt>
<trkpt lat="-27.274439" lon="151.290064">
  <ele>343.1</ele>
  <time>2026-09-01T19:55:56Z</time>
  <course>270.0</course>
  <speed>0.0</speed>
  <fix>3d</fix>
</trkpt>
<trkpt lat="-27.274439" lon="151.290064">
  <ele>342.97</ele>
  <time>2026-09-01T19:55:56Z</time>
  <course>11.22</course>
  <speed>0.0</speed>
  <fix>3d</fix>
</trkpt>
<trkpt lat="-27.274439" lon="151.290064">
  <ele>343.1</ele>
  <time>2026-09-01T19:55:56Z</time>
  <course>270.0</course>
  <speed>0.0</speed>
  <fix>3d</fix>
</trkpt>
<trkpt lat="-27.274439" lon="151.290064">
  <ele>342.83</ele>
  <time>2026-09-01T19:55:56Z</time>
  <course>11.23</course>
  <speed>0.0</speed>
  <fix>3d</fix>
</trkpt>
<trkpt lat="-27.274439" lon="151.290064">
  <ele>343.1</ele>
  <time>2026-09-01T19:55:56Z</time>
  <course>270.0</course>
  <speed>0.0</speed>
  <fix>3d</fix>
</trkpt>
<trkpt lat="-27.274439" lon="151.290064">
  <ele>342.84</ele>
  <time>2026-09-01T19:55:56Z</time>
  <course>11.23</course>
  <speed>0.0</speed>
  <fix>3d</fix>
</trkpt>
<trkpt lat="-27.274439" lon="151.290064">
  <ele>343.1</ele>
  <time>2026-09-01T19:55:56Z</time>
  <course>270.0</course>
  <speed>0.0</speed>
  <fix>3d</fix>
</trkpt>
<trkpt lat="-27.274439" lon="151.290064">
  <ele>342.75</ele>
  <time>2026-09-01T19:55:56Z</time>
  <course>11.23</course>
  <speed>0.0</speed>
  <fix>3d</fix>
</trkpt>
<trkpt lat="-27.274439" lon="151.290064">
  <ele>343.1</ele>
  <time>2026-09-01T19:55:56Z</time>
  <course>270.0</course>
  <speed>0.0</speed>
  <fix>3d</fix>
</trkpt>
<trkpt lat="-27.274439" lon="151.290064">
  <ele>343.03</ele>
  <time>2026-09-01T19:55:56Z</time>
  <course>11.23</course>
  <speed>0.0</speed>
  <fix>3d</fix>
</trkpt>
<trkpt lat="-27.274439" lon="151.290064">
  <ele>343.1</ele>
  <time>2026-09-01T19:55:56Z</time>
  <course>270.0</course>
  <speed>0.0</speed>
  <fix>3d</fix>
</trkpt>
<trkpt lat="-27.274439" lon="151.290064">
  <ele>342.8</ele>
  <time>2026-09-01T19:55:56Z</time>
  <course>11.23</course>
  <speed>0.0</speed>
  <fix>3d</fix>
</trkpt>
<trkpt lat="-27.274439" lon="151.290064">
  <ele>343.1</ele>
  <time>2026-09-01T19:55:56Z</time>
  <course>270.0</course>
  <speed>0.0</speed>
  <fix>3d</fix>
</trkpt>
<trkpt lat="-27.274439" lon="151.290064">
  <ele>343.05</ele>
  <time>2026-09-01T19:55:57Z</time>
  <course>11.23</course>
  <speed>0.0</speed>
  <fix>3d</fix>
</trkpt>
<trkpt lat="-27.274439" lon="151.290064">
  <ele>343.1</ele>
  <time>2026-09-01T19:55:57Z</time>
  <course>270.0</course>
  <speed>0.0</speed>
  <fix>3d</fix>
</trkpt>
<trkpt lat="-27.274439" lon="151.290064">
  <ele>343.03</ele>
  <time>2026-09-01T19:55:57Z</time>
  <course>11.23</course>
  <speed>0.0</speed>
  <fix>3d</fix>
</trkpt>
<trkpt lat="-27.274439" lon="151.290064">
  <ele>343.1</ele>
  <time>2026-09-01T19:55:57Z</time>
  <course>270.0</course>
  <speed>0.0</speed>
  <fix>3d</fix>
</trkpt>
<trkpt lat="-27.274439" lon="151.290064">
  <ele>342.88</ele>
  <time>2026-09-01T19:55:57Z</time>
  <course>11.23</course>
  <speed>0.0</speed>
  <fix>3d</fix>
</trkpt>
<trkpt lat="-27.274439" lon="151.290064">
  <ele>343.1</ele>
  <time>2026-09-01T19:55:57Z</time>
  <course>270.0</course>
  <speed>0.0</speed>
  <fix>3d</fix>
</trkpt>
<trkpt lat="-27.274439" lon="151.290064">
  <ele>342.83</ele>
  <time>2026-09-01T19:55:57Z</time>
  <course>11.23</course>
  <speed>0.0</speed>
  <fix>3d</fix>
</trkpt>
<trkpt lat="-27.274439" lon="151.290064">
  <ele>343.1</ele>
  <time>2026-09-01T19:55:57Z</time>
  <course>270.0</course>
  <speed>0.0</speed>
  <fix>3d</fix>
</trkpt>
<trkpt lat="-27.274439" lon="151.290064">
  <ele>342.87</ele>
  <time>2026-09-01T19:55:57Z</time>
  <course>11.23</course>
  <speed>0.0</speed>
  <fix>3d</fix>
</trkpt>
<trkpt lat="-27.274439" lon="151.290064">
  <ele>343.1</ele>
  <time>2026-09-01T19:55:57Z</time>
  <course>270.0</course>
  <speed>0.0</speed>
  <fix>3d</fix>
</trkpt>
<trkpt lat="-27.274439" lon="151.290064">
  <ele>342.78</ele>
  <time>2026-09-01T19:55:57Z</time>
  <course>11.23</course>
  <speed>0.0</speed>
  <fix>3d</fix>
</trkpt>
<trkpt lat="-27.274439" lon="151.290064">
  <ele>343.1</ele>
  <time>2026-09-01T19:55:57Z</time>
  <course>270.0</course>
  <speed>0.0</speed>
  <fix>3d</fix>
</trkpt>
<trkpt lat="-27.274439" lon="151.290064">
  <ele>342.8</ele>
  <time>2026-09-01T19:55:57Z</time>
  <course>11.23</course>
  <speed>0.0</speed>
  <fix>3d</fix>
</trkpt>
<trkpt lat="-27.274439" lon="151.290064">
  <ele>343.1</ele>
  <time>2026-09-01T19:55:57Z</time>
  <course>270.0</course>
  <speed>0.0</speed>
  <fix>3d</fix>
</trkpt>
<trkpt lat="-27.274439" lon="151.290064">
  <ele>342.9</ele>
  <time>2026-09-01T19:55:57Z</time>
  <course>11.23</course>
  <speed>0.0</speed>
  <fix>3d</fix>
</trkpt>
<trkpt lat="-27.274439" lon="151.290064">
  <ele>343.1</ele>
  <time>2026-09-01T19:55:57Z</time>
  <course>270.0</course>
  <speed>0.0</speed>
  <fix>3d</fix>
</trkpt>
<trkpt lat="-27.274439" lon="151.290064">
  <ele>342.82</ele>
  <time>2026-09-01T19:55:57Z</time>
  <course>11.24</course>
  <speed>0.0</speed>
  <fix>3d</fix>
</trkpt>
<trkpt lat="-27.274439" lon="151.290064">
  <ele>343.1</ele>
  <time>2026-09-01T19:55:57Z</time>
  <course>270.0</course>
  <speed>0.0</speed>
  <fix>3d</fix>
</trkpt>
<trkpt lat="-27.274439" lon="151.290064">
  <ele>342.8</ele>
  <time>2026-09-01T19:55:57Z</time>
  <course>11.24</course>
  <speed>0.0</speed>
  <fix>3d</fix>
</trkpt>
<trkpt lat="-27.274439" lon="151.290064">
  <ele>343.1</ele>
  <time>2026-09-01T19:55:57Z</time>
  <course>270.0</course>
  <speed>0.0</speed>
  <fix>3d</fix>
</trkpt>
<trkpt lat="-27.274439" lon="151.290064">
  <ele>342.8</ele>
  <time>2026-09-01T19:55:57Z</time>
  <course>11.24</course>
  <speed>0.0</speed>
  <fix>3d</fix>
</trkpt>
<trkpt lat="-27.274439" lon="151.290064">
  <ele>343.1</ele>
  <time>2026-09-01T19:55:57Z</time>
  <course>270.0</course>
  <speed>0.0</speed>
  <fix>3d</fix>
</trkpt>
<trkpt lat="-27.274439" lon="151.290064">
  <ele>342.83</ele>
  <time>2026-09-01T19:55:57Z</time>
  <course>11.24</course>
  <speed>0.0</speed>
  <fix>3d</fix>
</trkpt>
<trkpt lat="-27.274439" lon="151.290064">
  <ele>343.1</ele>
  <time>2026-09-01T19:55:57Z</time>
  <course>270.0</course>
  <speed>0.0</speed>
  <fix>3d</fix>
</trkpt>
<trkpt lat="-27.274439" lon="151.290064">
  <ele>343.04</ele>
  <time>2026-09-01T19:55:57Z</time>
  <course>11.24</course>
  <speed>0.0</speed>
  <fix>3d</fix>
</trkpt>
<trkpt lat="-27.274439" lon="151.290064">
  <ele>343.1</ele>
  <time>2026-09-01T19:55:57Z</time>
  <course>270.0</course>
  <speed>0.0</speed>
  <fix>3d</fix>
</trkpt>
<trkpt lat="-27.274439" lon="151.290064">
  <ele>342.99</ele>
  <time>2026-09-01T19:55:57Z</time>
  <course>11.24</course>
  <speed>0.0</speed>
  <fix>3d</fix>
</trkpt>
<trkpt lat="-27.274439" lon="151.290064">
  <ele>343.1</ele>
  <time>2026-09-01T19:55:57Z</time>
  <course>270.0</course>
  <speed>0.0</speed>
  <fix>3d</fix>
</trkpt>
<trkpt lat="-27.274439" lon="151.290064">
  <ele>342.99</ele>
  <time>2026-09-01T19:55:57Z</time>
  <course>11.24</course>
  <speed>0.0</speed>
  <fix>3d</fix>
</trkpt>
<trkpt lat="-27.274439" lon="151.290064">
  <ele>343.1</ele>
  <time>2026-09-01T19:55:57Z</time>
  <course>270.0</course>
  <speed>0.0</speed>
  <fix>3d</fix>
</trkpt>
<trkpt lat="-27.274439" lon="151.290064">
  <ele>342.95</ele>
  <time>2026-09-01T19:55:57Z</time>
  <course>11.24</course>
  <speed>0.0</speed>
  <fix>3d</fix>
</trkpt>
<trkpt lat="-27.274439" lon="151.290064">
  <ele>343.1</ele>
  <time>2026-09-01T19:55:57Z</time>
  <course>270.0</course>
  <speed>0.0</speed>
  <fix>3d</fix>
</trkpt>
<trkpt lat="-27.274439" lon="151.290064">
  <ele>343.0</ele>
  <time>2026-09-01T19:55:57Z</time>
  <course>11.24</course>
  <speed>0.0</speed>
  <fix>3d</fix>
</trkpt>
<trkpt lat="-27.274439" lon="151.290064">
  <ele>343.1</ele>
  <time>2026-09-01T19:55:57Z</time>
  <course>270.0</course>
  <speed>0.0</speed>
  <fix>3d</fix>
</trkpt>
<trkpt lat="-27.274439" lon="151.290064">
  <ele>343.01</ele>
  <time>2026-09-01T19:55:57Z</time>
  <course>11.24</course>
  <speed>0.0</speed>
  <fix>3d</fix>
</trkpt>
<trkpt lat="-27.274439" lon="151.290064">
  <ele>343.1</ele>
  <time>2026-09-01T19:55:57Z</time>
  <course>270.0</course>
  <speed>0.0</speed>
  <fix>3d</fix>
</trkpt>
<trkpt lat="-27.274439" lon="151.290064">
  <ele>342.8</ele>
  <time>2026-09-01T19:55:57Z</time>
  <course>11.24</course>
  <speed>0.0</speed>
  <fix>3d</fix>
</trkpt>
<trkpt lat="-27.274439" lon="151.290064">
  <ele>343.1</ele>
  <time>2026-09-01T19:55:57Z</time>
  <course>270.0</course>
  <speed>0.0</speed>
  <fix>3d</fix>
</trkpt>
<trkpt lat="-27.274439" lon="151.290064">
  <ele>342.93</ele>
  <time>2026-09-01T19:55:57Z</time>
  <course>11.24</course>
  <speed>0.0</speed>
  <fix>3d</fix>
</trkpt>
<trkpt lat="-27.274439" lon="151.290064">
  <ele>343.1</ele>
  <time>2026-09-01T19:55:57Z</time>
  <course>270.0</course>
  <speed>0.0</speed>
  <fix>3d</fix>
</trkpt>
<trkpt lat="-27.274439" lon="151.290064">
  <ele>342.7</ele>
  <time>2026-09-01T19:55:57Z</time>
  <course>11.24</course>
  <speed>0.0</speed>
  <fix>3d</fix>
</trkpt>
<trkpt lat="-27.274439" lon="151.290064">
  <ele>343.1</ele>
  <time>2026-09-01T19:55:57Z</time>
  <course>270.0</course>
  <speed>0.0</speed>
  <fix>3d</fix>
</trkpt>
<trkpt lat="-27.274439" lon="151.290064">
  <ele>342.98</ele>
  <time>2026-09-01T19:55:57Z</time>
  <course>11.25</course>
  <speed>0.0</speed>
  <fix>3d</fix>
</trkpt>
<trkpt lat="-27.274439" lon="151.290064">
  <ele>343.1</ele>
  <time>2026-09-01T19:55:57Z</time>
  <course>270.0</course>
  <speed>0.0</speed>
  <fix>3d</fix>
</trkpt>
<trkpt lat="-27.274439" lon="151.290064">
  <ele>342.89</ele>
  <time>2026-09-01T19:55:57Z</time>
  <course>11.25</course>
  <speed>0.0</speed>
  <fix>3d</fix>
</trkpt>
<trkpt lat="-27.274439" lon="151.290064">
  <ele>343.1</ele>
  <time>2026-09-01T19:55:57Z</time>
  <course>270.0</course>
  <speed>0.0</speed>
  <fix>3d</fix>
</trkpt>
<trkpt lat="-27.274439" lon="151.290064">
  <ele>342.96</ele>
  <time>2026-09-01T19:55:57Z</time>
  <course>11.25</course>
  <speed>0.0</speed>
  <fix>3d</fix>
</trkpt>
<trkpt lat="-27.274439" lon="151.290064">
  <ele>343.1</ele>
  <time>2026-09-01T19:55:57Z</time>
  <course>270.0</course>
  <speed>0.0</speed>
  <fix>3d</fix>
</trkpt>
<trkpt lat="-27.274439" lon="151.290064">
  <ele>342.7</ele>
  <time>2026-09-01T19:55:57Z</time>
  <course>11.25</course>
  <speed>0.0</speed>
  <fix>3d</fix>
</trkpt>
<trkpt lat="-27.274439" lon="151.290064">
  <ele>343.1</ele>
  <time>2026-09-01T19:55:57Z</time>
  <course>270.0</course>
  <speed>0.0</speed>
  <fix>3d</fix>
</trkpt>
<trkpt lat="-27.274439" lon="151.290064">
  <ele>342.96</ele>
  <time>2026-09-01T19:55:57Z</time>
  <course>11.25</course>
  <speed>0.0</speed>
  <fix>3d</fix>
</trkpt>
<trkpt lat="-27.274439" lon="151.290064">
  <ele>343.1</ele>
  <time>2026-09-01T19:55:57Z</time>
  <course>270.0</course>
  <speed>0.0</speed>
  <fix>3d</fix>
</trkpt>
<trkpt lat="-27.274439" lon="151.290064">
  <ele>343.0</ele>
  <time>2026-09-01T19:55:57Z</time>
  <course>11.25</course>
  <speed>0.0</speed>
  <fix>3d</fix>
</trkpt>
<trkpt lat="-27.274439" lon="151.290064">
  <ele>343.1</ele>
  <time>2026-09-01T19:55:57Z</time>
  <course>270.0</course>
  <speed>0.0</speed>
  <fix>3d</fix>
</trkpt>
<trkpt lat="-27.274439" lon="151.290064">
  <ele>342.98</ele>
  <time>2026-09-01T19:55:57Z</time>
  <course>11.25</course>
  <speed>0.0</speed>
  <fix>3d</fix>
</trkpt>
<trkpt lat="-27.274439" lon="151.290064">
  <ele>343.1</ele>
  <time>2026-09-01T19:55:57Z</time>
  <course>270.0</course>
  <speed>0.0</speed>
  <fix>3d</fix>
</trkpt>
<trkpt lat="-27.274439" lon="151.290064">
  <ele>343.08</ele>
  <time>2026-09-01T19:55:57Z</time>
  <course>11.25</course>
  <speed>0.0</speed>
  <fix>3d</fix>
</trkpt>
<trkpt lat="-27.274439" lon="151.290064">
  <ele>343.1</ele>
  <time>2026-09-01T19:55:57Z</time>
  <course>270.0</course>
  <speed>0.0</speed>
  <fix>3d</fix>
</trkpt>
<trkpt lat="-27.274439" lon="151.290064">
  <ele>342.82</ele>
  <time>2026-09-01T19:55:57Z</time>
  <course>11.25</course>
  <speed>0.0</speed>
  <fix>3d</fix>
</trkpt>
<trkpt lat="-27.274439" lon="151.290064">
  <ele>343.1</ele>
  <time>2026-09-01T19:55:57Z</time>
  <course>270.0</course>
  <speed>0.0</speed>
  <fix>3d</fix>
</trkpt>
<trkpt lat="-27.274439" lon="151.290064">
  <ele>342.78</ele>
  <time>2026-09-01T19:55:57Z</time>
  <course>11.25</course>
  <speed>0.0</speed>
  <fix>3d</fix>
</trkpt>
<trkpt lat="-27.274439" lon="151.290064">
  <ele>343.1</ele>
  <time>2026-09-01T19:55:57Z</time>
  <course>270.0</course>
  <speed>0.0</speed>
  <fix>3d</fix>
</trkpt>
<trkpt lat="-27.274439" lon="151.290064">
  <ele>342.98</ele>
  <time>2026-09-01T19:55:57Z</time>
  <course>11.25</course>
  <speed>0.0</speed>
  <fix>3d</fix>
</trkpt>
<trkpt lat="-27.274439" lon="151.290064">
  <ele>343.1</ele>
  <time>2026-09-01T19:55:57Z</time>
  <course>270.0</course>
  <speed>0.0</speed>
  <fix>3d</fix>
</trkpt>
<trkpt lat="-27.274439" lon="151.290064">
  <ele>342.9</ele>
  <time>2026-09-01T19:55:57Z</time>
  <course>11.25</course>
  <speed>0.0</speed>
  <fix>3d</fix>
</trkpt>
<trkpt lat="-27.274439" lon="151.290064">
  <ele>343.1</ele>
  <time>2026-09-01T19:55:57Z</time>
  <course>270.0</course>
  <speed>0.0</speed>
  <fix>3d</fix>
</trkpt>
<trkpt lat="-27.274439" lon="151.290064">
  <ele>343.0</ele>
  <time>2026-09-01T19:55:57Z</time>
  <course>11.25</course>
  <speed>0.0</speed>
  <fix>3d</fix>
</trkpt>
<trkpt lat="-27.274439" lon="151.290064">
  <ele>343.1</ele>
  <time>2026-09-01T19:55:57Z</time>
  <course>270.0</course>
  <speed>0.0</speed>
  <fix>3d</fix>
</trkpt>
<trkpt lat="-27.274439" lon="151.290064">
  <ele>342.9</ele>
  <time>2026-09-01T19:55:57Z</time>
  <course>11.25</course>
  <speed>0.0</speed>
  <fix>3d</fix>
</trkpt>
<trkpt lat="-27.274439" lon="151.290064">
  <ele>343.1</ele>
  <time>2026-09-01T19:55:57Z</time>
  <course>270.0</course>
  <speed>0.0</speed>
  <fix>3d</fix>
</trkpt>
<trkpt lat="-27.274439" lon="151.290064">
  <ele>342.91</ele>
  <time>2026-09-01T19:55:57Z</time>
  <course>11.26</course>
  <speed>0.0</speed>
  <fix>3d</fix>
</trkpt>
<trkpt lat="-27.274439" lon="151.290064">
  <ele>343.1</ele>
  <time>2026-09-01T19:55:57Z</time>
  <course>270.0</course>
  <speed>0.0</speed>
  <fix>3d</fix>
</trkpt>
<trkpt lat="-27.274439" lon="151.290064">
  <ele>342.83</ele>
  <time>2026-09-01T19:55:57Z</time>
  <course>11.26</course>
  <speed>0.0</speed>
  <fix>3d</fix>
</trkpt>
<trkpt lat="-27.274439" lon="151.290064">
  <ele>343.1</ele>
  <time>2026-09-01T19:55:57Z</time>
  <course>270.0</course>
  <speed>0.0</speed>
  <fix>3d</fix>
</trkpt>
<trkpt lat="-27.274439" lon="151.290064">
  <ele>342.74</ele>
  <time>2026-09-01T19:55:57Z</time>
  <course>11.26</course>
  <speed>0.0</speed>
  <fix>3d</fix>
</trkpt>
<trkpt lat="-27.274439" lon="151.290064">
  <ele>343.1</ele>
  <time>2026-09-01T19:55:57Z</time>
  <course>270.0</course>
  <speed>0.0</speed>
  <fix>3d</fix>
</trkpt>
<trkpt lat="-27.274439" lon="151.290064">
  <ele>342.89</ele>
  <time>2026-09-01T19:55:57Z</time>
  <course>11.26</course>
  <speed>0.0</speed>
  <fix>3d</fix>
</trkpt>
<trkpt lat="-27.274439" lon="151.290064">
  <ele>343.1</ele>
  <time>2026-09-01T19:55:57Z</time>
  <course>270.0</course>
  <speed>0.0</speed>
  <fix>3d</fix>
</trkpt>
<trkpt lat="-27.274439" lon="151.290064">
  <ele>342.87</ele>
  <time>2026-09-01T19:55:57Z</time>
  <course>11.26</course>
  <speed>0.0</speed>
  <fix>3d</fix>
</trkpt>
<trkpt lat="-27.274439" lon="151.290064">
  <ele>343.1</ele>
  <time>2026-09-01T19:55:57Z</time>
  <course>270.0</course>
  <speed>0.0</speed>
  <fix>3d</fix>
</trkpt>
<trkpt lat="-27.274439" lon="151.290064">
  <ele>342.92</ele>
  <time>2026-09-01T19:55:57Z</time>
  <course>11.26</course>
  <speed>0.0</speed>
  <fix>3d</fix>
</trkpt>
<trkpt lat="-27.274439" lon="151.290064">
  <ele>343.1</ele>
  <time>2026-09-01T19:55:57Z</time>
  <course>270.0</course>
  <speed>0.0</speed>
  <fix>3d</fix>
</trkpt>
<trkpt lat="-27.274439" lon="151.290064">
  <ele>343.01</ele>
  <time>2026-09-01T19:55:57Z</time>
  <course>11.26</course>
  <speed>0.0</speed>
  <fix>3d</fix>
</trkpt>
<trkpt lat="-27.274439" lon="151.290064">
  <ele>343.1</ele>
  <time>2026-09-01T19:55:57Z</time>
  <course>270.0</course>
  <speed>0.0</speed>
  <fix>3d</fix>
</trkpt>
<trkpt lat="-27.274439" lon="151.290064">
  <ele>342.9</ele>
  <time>2026-09-01T19:55:57Z</time>
  <course>11.26</course>
  <speed>0.0</speed>
  <fix>3d</fix>
</trkpt>
<trkpt lat="-27.274439" lon="151.290064">
  <ele>343.1</ele>
  <time>2026-09-01T19:55:57Z</time>
  <course>270.0</course>
  <speed>0.0</speed>
  <fix>3d</fix>
</trkpt>
<trkpt lat="-27.274439" lon="151.290064">
  <ele>342.71</ele>
  <time>2026-09-01T19:55:57Z</time>
  <course>11.25</course>
  <speed>0.0</speed>
  <fix>3d</fix>
</trkpt>
<trkpt lat="-27.274439" lon="151.290064">
  <ele>343.1</ele>
  <time>2026-09-01T19:55:57Z</time>
  <course>270.0</course>
  <speed>0.0</speed>
  <fix>3d</fix>
</trkpt>
<trkpt lat="-27.274439" lon="151.290064">
  <ele>343.05</ele>
  <time>2026-09-01T19:55:57Z</time>
  <course>11.25</course>
  <speed>0.0</speed>
  <fix>3d</fix>
</trkpt>
<trkpt lat="-27.274439" lon="151.290064">
  <ele>343.1</ele>
  <time>2026-09-01T19:55:57Z</time>
  <course>270.0</course>
  <speed>0.0</speed>
  <fix>3d</fix>
</trkpt>
<trkpt lat="-27.274439" lon="151.290064">
  <ele>343.0</ele>
  <time>2026-09-01T19:55:57Z</time>
  <course>11.25</course>
  <speed>0.0</speed>
  <fix>3d</fix>
</trkpt>
<trkpt lat="-27.274439" lon="151.290064">
  <ele>343.1</ele>
  <time>2026-09-01T19:55:57Z</time>
  <course>270.0</course>
  <speed>0.0</speed>
  <fix>3d</fix>
</trkpt>
<trkpt lat="-27.274439" lon="151.290064">
  <ele>342.8</ele>
  <time>2026-09-01T19:55:57Z</time>
  <course>11.25</course>
  <speed>0.0</speed>
  <fix>3d</fix>
</trkpt>
<trkpt lat="-27.274439" lon="151.290064">
  <ele>343.1</ele>
  <time>2026-09-01T19:55:57Z</time>
  <course>270.0</course>
  <speed>0.0</speed>
  <fix>3d</fix>
</trkpt>
<trkpt lat="-27.274439" lon="151.290064">
  <ele>342.85</ele>
  <time>2026-09-01T19:55:57Z</time>
  <course>11.24</course>
  <speed>0.0</speed>
  <fix>3d</fix>
</trkpt>
<trkpt lat="-27.274439" lon="151.290064">
  <ele>343.1</ele>
  <time>2026-09-01T19:55:57Z</time>
  <course>270.0</course>
  <speed>0.0</speed>
  <fix>3d</fix>
</trkpt>
<trkpt lat="-27.274439" lon="151.290064">
  <ele>342.96</ele>
  <time>2026-09-01T19:55:57Z</time>
  <course>11.24</course>
  <speed>0.0</speed>
  <fix>3d</fix>
</trkpt>
<trkpt lat="-27.274439" lon="151.290064">
  <ele>343.1</ele>
  <time>2026-09-01T19:55:57Z</time>
  <course>270.0</course>
  <speed>0.0</speed>
  <fix>3d</fix>
</trkpt>
<trkpt lat="-27.274439" lon="151.290064">
  <ele>342.82</ele>
  <time>2026-09-01T19:55:57Z</time>
  <course>11.24</course>
  <speed>0.0</speed>
  <fix>3d</fix>
</trkpt>
<trkpt lat="-27.274439" lon="151.290064">
  <ele>343.1</ele>
  <time>2026-09-01T19:55:57Z</time>
  <course>270.0</course>
  <speed>0.0</speed>
  <fix>3d</fix>
</trkpt>
<trkpt lat="-27.274439" lon="151.290064">
  <ele>342.75</ele>
  <time>2026-09-01T19:55:57Z</time>
  <course>11.24</course>
  <speed>0.0</speed>
  <fix>3d</fix>
</trkpt>
<trkpt lat="-27.274439" lon="151.290064">
  <ele>343.1</ele>
  <time>2026-09-01T19:55:57Z</time>
  <course>270.0</course>
  <speed>0.0</speed>
  <fix>3d</fix>
</trkpt>
<trkpt lat="-27.274439" lon="151.290064">
  <ele>343.08</ele>
  <time>2026-09-01T19:55:57Z</time>
  <course>11.23</course>
  <speed>0.0</speed>
  <fix>3d</fix>
</trkpt>
<trkpt lat="-27.274439" lon="151.290064">
  <ele>343.1</ele>
  <time>2026-09-01T19:55:57Z</time>
  <course>270.0</course>
  <speed>0.0</speed>
  <fix>3d</fix>
</trkpt>
<trkpt lat="-27.274439" lon="151.290064">
  <ele>343.03</ele>
  <time>2026-09-01T19:55:57Z</time>
  <course>11.23</course>
  <speed>0.0</speed>
  <fix>3d</fix>
</trkpt>
<trkpt lat="-27.274439" lon="151.290064">
  <ele>343.1</ele>
  <time>2026-09-01T19:55:57Z</time>
  <course>270.0</course>
  <speed>0.0</speed>
  <fix>3d</fix>
</trkpt>
<trkpt lat="-27.274439" lon="151.290064">
  <ele>342.94</ele>
  <time>2026-09-01T19:55:57Z</time>
  <course>11.23</course>
  <speed>0.0</speed>
  <fix>3d</fix>
</trkpt>
<trkpt lat="-27.274439" lon="151.290064">
  <ele>343.1</ele>
  <time>2026-09-01T19:55:57Z</time>
  <course>270.0</course>
  <speed>0.0</speed>
  <fix>3d</fix>
</trkpt>
<trkpt lat="-27.274439" lon="151.290064">
  <ele>342.93</ele>
  <time>2026-09-01T19:55:57Z</time>
  <course>11.23</course>
  <speed>0.0</speed>
  <fix>3d</fix>
</trkpt>
<trkpt lat="-27.274439" lon="151.290064">
  <ele>343.1</ele>
  <time>2026-09-01T19:55:57Z</time>
  <course>270.0</course>
  <speed>0.0</speed>
  <fix>3d</fix>
</trkpt>
<trkpt lat="-27.274439" lon="151.290064">
  <ele>343.08</ele>
  <time>2026-09-01T19:55:57Z</time>
  <course>11.22</course>
  <speed>0.0</speed>
  <fix>3d</fix>
</trkpt>
<trkpt lat="-27.274439" lon="151.290064">
  <ele>343.1</ele>
  <time>2026-09-01T19:55:57Z</time>
  <course>270.0</course>
  <speed>0.0</speed>
  <fix>3d</fix>
</trkpt>
<trkpt lat="-27.274439" lon="151.290064">
  <ele>342.85</ele>
  <time>2026-09-01T19:55:57Z</time>
  <course>11.22</course>
  <speed>0.0</speed>
  <fix>3d</fix>
</trkpt>
<trkpt lat="-27.274439" lon="151.290064">
  <ele>343.1</ele>
  <time>2026-09-01T19:55:57Z</time>
  <course>270.0</course>
  <speed>0.0</speed>
  <fix>3d</fix>
</trkpt>
<trkpt lat="-27.274439" lon="151.290064">
  <ele>342.86</ele>
  <time>2026-09-01T19:55:57Z</time>
  <course>11.22</course>
  <speed>0.0</speed>
  <fix>3d</fix>
</trkpt>
<trkpt lat="-27.274439" lon="151.290064">
  <ele>343.1</ele>
  <time>2026-09-01T19:55:57Z</time>
  <course>270.0</course>
  <speed>0.0</speed>
  <fix>3d</fix>
</trkpt>
<trkpt lat="-27.274439" lon="151.290064">
  <ele>342.83</ele>
  <time>2026-09-01T19:55:57Z</time>
  <course>11.22</course>
  <speed>0.0</speed>
  <fix>3d</fix>
</trkpt>
<trkpt lat="-27.274439" lon="151.290064">
  <ele>343.1</ele>
  <time>2026-09-01T19:55:57Z</time>
  <course>270.0</course>
  <speed>0.0</speed>
  <fix>3d</fix>
</trkpt>
<trkpt lat="-27.274439" lon="151.290064">
  <ele>343.14</ele>
  <time>2026-09-01T19:55:57Z</time>
  <course>11.22</course>
  <speed>0.0</speed>
  <fix>3d</fix>
</trkpt>
<trkpt lat="-27.274439" lon="151.290064">
  <ele>343.1</ele>
  <time>2026-09-01T19:55:57Z</time>
  <course>270.0</course>
  <speed>0.0</speed>
  <fix>3d</fix>
</trkpt>
<trkpt lat="-27.274439" lon="151.290064">
  <ele>343.03</ele>
  <time>2026-09-01T19:55:57Z</time>
  <course>11.21</course>
  <speed>0.0</speed>
  <fix>3d</fix>
</trkpt>
<trkpt lat="-27.274439" lon="151.290064">
  <ele>343.1</ele>
  <time>2026-09-01T19:55:57Z</time>
  <course>270.0</course>
  <speed>0.0</speed>
  <fix>3d</fix>
</trkpt>
<trkpt lat="-27.274439" lon="151.290064">
  <ele>342.82</ele>
  <time>2026-09-01T19:55:57Z</time>
  <course>11.21</course>
  <speed>0.0</speed>
  <fix>3d</fix>
</trkpt>
<trkpt lat="-27.274439" lon="151.290064">
  <ele>343.1</ele>
  <time>2026-09-01T19:55:57Z</time>
  <course>270.0</course>
  <speed>0.0</speed>
  <fix>3d</fix>
</trkpt>
<trkpt lat="-27.274439" lon="151.290064">
  <ele>342.93</ele>
  <time>2026-09-01T19:55:57Z</time>
  <course>11.21</course>
  <speed>0.0</speed>
  <fix>3d</fix>
</trkpt>
<trkpt lat="-27.274439" lon="151.290064">
  <ele>343.1</ele>
  <time>2026-09-01T19:55:57Z</time>
  <course>270.0</course>
  <speed>0.0</speed>
  <fix>3d</fix>
</trkpt>
<trkpt lat="-27.274439" lon="151.290064">
  <ele>342.82</ele>
  <time>2026-09-01T19:55:57Z</time>
  <course>11.21</course>
  <speed>0.0</speed>
  <fix>3d</fix>
</trkpt>
<trkpt lat="-27.274439" lon="151.290064">
  <ele>343.1</ele>
  <time>2026-09-01T19:55:57Z</time>
  <course>270.0</course>
  <speed>0.0</speed>
  <fix>3d</fix>
</trkpt>
<trkpt lat="-27.274439" lon="151.290064">
  <ele>342.83</ele>
  <time>2026-09-01T19:55:57Z</time>
  <course>11.2</course>
  <speed>0.0</speed>
  <fix>3d</fix>
</trkpt>
<trkpt lat="-27.274439" lon="151.290064">
  <ele>343.1</ele>
  <time>2026-09-01T19:55:57Z</time>
  <course>270.0</course>
  <speed>0.0</speed>
  <fix>3d</fix>
</trkpt>
<trkpt lat="-27.274439" lon="151.290064">
  <ele>342.9</ele>
  <time>2026-09-01T19:55:57Z</time>
  <course>11.2</course>
  <speed>0.0</speed>
  <fix>3d</fix>
</trkpt>
<trkpt lat="-27.274439" lon="151.290064">
  <ele>343.1</ele>
  <time>2026-09-01T19:55:57Z</time>
  <course>270.0</course>
  <speed>0.0</speed>
  <fix>3d</fix>
</trkpt>
<trkpt lat="-27.274439" lon="151.290064">
  <ele>342.83</ele>
  <time>2026-09-01T19:55:57Z</time>
  <course>11.2</course>
  <speed>0.0</speed>
  <fix>3d</fix>
</trkpt>
<trkpt lat="-27.274439" lon="151.290064">
  <ele>343.1</ele>
  <time>2026-09-01T19:55:57Z</time>
  <course>270.0</course>
  <speed>0.0</speed>
  <fix>3d</fix>
</trkpt>
<trkpt lat="-27.274439" lon="151.290064">
  <ele>343.04</ele>
  <time>2026-09-01T19:55:57Z</time>
  <course>11.2</course>
  <speed>0.0</speed>
  <fix>3d</fix>
</trkpt>
<trkpt lat="-27.274439" lon="151.290064">
  <ele>343.1</ele>
  <time>2026-09-01T19:55:57Z</time>
  <course>270.0</course>
  <speed>0.0</speed>
  <fix>3d</fix>
</trkpt>
<trkpt lat="-27.274439" lon="151.290064">
  <ele>342.98</ele>
  <time>2026-09-01T19:55:57Z</time>
  <course>11.2</course>
  <speed>0.0</speed>
  <fix>3d</fix>
</trkpt>
<trkpt lat="-27.274439" lon="151.290064">
  <ele>343.1</ele>
  <time>2026-09-01T19:55:57Z</time>
  <course>270.0</course>
  <speed>0.0</speed>
  <fix>3d</fix>
</trkpt>
<trkpt lat="-27.274439" lon="151.290064">
  <ele>342.99</ele>
  <time>2026-09-01T19:55:57Z</time>
  <course>11.2</course>
  <speed>0.0</speed>
  <fix>3d</fix>
</trkpt>
<trkpt lat="-27.274439" lon="151.290064">
  <ele>343.1</ele>
  <time>2026-09-01T19:55:57Z</time>
  <course>270.0</course>
  <speed>0.0</speed>
  <fix>3d</fix>
</trkpt>
<trkpt lat="-27.274439" lon="151.290064">
  <ele>342.98</ele>
  <time>2026-09-01T19:55:57Z</time>
  <course>11.19</course>
  <speed>0.0</speed>
  <fix>3d</fix>
</trkpt>
<trkpt lat="-27.274439" lon="151.290064">
  <ele>343.1</ele>
  <time>2026-09-01T19:55:57Z</time>
  <course>270.0</course>
  <speed>0.0</speed>
  <fix>3d</fix>
</trkpt>
<trkpt lat="-27.274439" lon="151.290064">
  <ele>342.9</ele>
  <time>2026-09-01T19:55:57Z</time>
  <course>11.19</course>
  <speed>0.0</speed>
  <fix>3d</fix>
</trkpt>
<trkpt lat="-27.274439" lon="151.290064">
  <ele>343.1</ele>
  <time>2026-09-01T19:55:57Z</time>
  <course>270.0</course>
  <speed>0.0</speed>
  <fix>3d</fix>
</trkpt>
<trkpt lat="-27.274439" lon="151.290064">
  <ele>343.03</ele>
  <time>2026-09-01T19:55:57Z</time>
  <course>11.19</course>
  <speed>0.0</speed>
  <fix>3d</fix>
</trkpt>
<trkpt lat="-27.274439" lon="151.290064">
  <ele>343.1</ele>
  <time>2026-09-01T19:55:57Z</time>
  <course>270.0</course>
  <speed>0.0</speed>
  <fix>3d</fix>
</trkpt>
<trkpt lat="-27.274439" lon="151.290064">
  <ele>343.11</ele>
  <time>2026-09-01T19:55:57Z</time>
  <course>11.19</course>
  <speed>0.0</speed>
  <fix>3d</fix>
</trkpt>
<trkpt lat="-27.274439" lon="151.290064">
  <ele>343.1</ele>
  <time>2026-09-01T19:55:57Z</time>
  <course>270.0</course>
  <speed>0.0</speed>
  <fix>3d</fix>
</trkpt>
<trkpt lat="-27.274439" lon="151.290064">
  <ele>342.98</ele>
  <time>2026-09-01T19:55:57Z</time>
  <course>11.19</course>
  <speed>0.0</speed>
  <fix>3d</fix>
</trkpt>
<trkpt lat="-27.274439" lon="151.290064">
  <ele>343.1</ele>
  <time>2026-09-01T19:55:57Z</time>
  <course>270.0</course>
  <speed>0.0</speed>
  <fix>3d</fix>
</trkpt>
<trkpt lat="-27.274439" lon="151.290064">
  <ele>343.06</ele>
  <time>2026-09-01T19:55:57Z</time>
  <course>11.18</course>
  <speed>0.0</speed>
  <fix>3d</fix>
</trkpt>
<trkpt lat="-27.274439" lon="151.290064">
  <ele>343.1</ele>
  <time>2026-09-01T19:55:57Z</time>
  <course>270.0</course>
  <speed>0.0</speed>
  <fix>3d</fix>
</trkpt>
<trkpt lat="-27.274439" lon="151.290064">
  <ele>342.9</ele>
  <time>2026-09-01T19:55:57Z</time>
  <course>11.18</course>
  <speed>0.0</speed>
  <fix>3d</fix>
</trkpt>
<trkpt lat="-27.274439" lon="151.290064">
  <ele>343.1</ele>
  <time>2026-09-01T19:55:57Z</time>
  <course>270.0</course>
  <speed>0.0</speed>
  <fix>3d</fix>
</trkpt>
<trkpt lat="-27.274439" lon="151.290064">
  <ele>342.79</ele>
  <time>2026-09-01T19:55:57Z</time>
  <course>11.18</course>
  <speed>0.0</speed>
  <fix>3d</fix>
</trkpt>
<trkpt lat="-27.274439" lon="151.290064">
  <ele>343.1</ele>
  <time>2026-09-01T19:55:57Z</time>
  <course>270.0</course>
  <speed>0.0</speed>
  <fix>3d</fix>
</trkpt>
<trkpt lat="-27.274439" lon="151.290064">
  <ele>343.08</ele>
  <time>2026-09-01T19:55:57Z</time>
  <course>11.18</course>
  <speed>0.0</speed>
  <fix>3d</fix>
</trkpt>
<trkpt lat="-27.274439" lon="151.290064">
  <ele>343.1</ele>
  <time>2026-09-01T19:55:57Z</time>
  <course>270.0</course>
  <speed>0.0</speed>
  <fix>3d</fix>
</trkpt>
<trkpt lat="-27.274439" lon="151.290064">
  <ele>342.99</ele>
  <time>2026-09-01T19:55:57Z</time>
  <course>11.18</course>
  <speed>0.0</speed>
  <fix>3d</fix>
</trkpt>
<trkpt lat="-27.274439" lon="151.290064">
  <ele>343.1</ele>
  <time>2026-09-01T19:55:57Z</time>
  <course>270.0</course>
  <speed>0.0</speed>
  <fix>3d</fix>
</trkpt>
<trkpt lat="-27.274439" lon="151.290064">
  <ele>342.95</ele>
  <time>2026-09-01T19:55:57Z</time>
  <course>11.18</course>
  <speed>0.0</speed>
  <fix>3d</fix>
</trkpt>
<trkpt lat="-27.274439" lon="151.290064">
  <ele>343.1</ele>
  <time>2026-09-01T19:55:57Z</time>
  <course>270.0</course>
  <speed>0.0</speed>
  <fix>3d</fix>
</trkpt>
<trkpt lat="-27.274439" lon="151.290064">
  <ele>342.8</ele>
  <time>2026-09-01T19:55:57Z</time>
  <course>11.17</course>
  <speed>0.0</speed>
  <fix>3d</fix>
</trkpt>
<trkpt lat="-27.274439" lon="151.290064">
  <ele>343.1</ele>
  <time>2026-09-01T19:55:57Z</time>
  <course>270.0</course>
  <speed>0.0</speed>
  <fix>3d</fix>
</trkpt>
<trkpt lat="-27.274439" lon="151.290064">
  <ele>343.01</ele>
  <time>2026-09-01T19:55:57Z</time>
  <course>11.17</course>
  <speed>0.0</speed>
  <fix>3d</fix>
</trkpt>
<trkpt lat="-27.274439" lon="151.290064">
  <ele>343.1</ele>
  <time>2026-09-01T19:55:57Z</time>
  <course>270.0</course>
  <speed>0.0</speed>
  <fix>3d</fix>
</trkpt>
<trkpt lat="-27.274439" lon="151.290064">
  <ele>342.78</ele>
  <time>2026-09-01T19:55:57Z</time>
  <course>11.17</course>
  <speed>0.0</speed>
  <fix>3d</fix>
</trkpt>
<trkpt lat="-27.274439" lon="151.290064">
  <ele>343.1</ele>
  <time>2026-09-01T19:55:57Z</time>
  <course>270.0</course>
  <speed>0.0</speed>
  <fix>3d</fix>
</trkpt>
<trkpt lat="-27.274439" lon="151.290064">
  <ele>342.81</ele>
  <time>2026-09-01T19:55:57Z</time>
  <course>11.17</course>
  <speed>0.0</speed>
  <fix>3d</fix>
</trkpt>
<trkpt lat="-27.274439" lon="151.290064">
  <ele>343.1</ele>
  <time>2026-09-01T19:55:57Z</time>
  <course>270.0</course>
  <speed>0.0</speed>
  <fix>3d</fix>
</trkpt>
<trkpt lat="-27.274439" lon="151.290064">
  <ele>342.85</ele>
  <time>2026-09-01T19:55:57Z</time>
  <course>11.17</course>
  <speed>0.0</speed>
  <fix>3d</fix>
</trkpt>
<trkpt lat="-27.274439" lon="151.290064">
  <ele>343.1</ele>
  <time>2026-09-01T19:55:57Z</time>
  <course>270.0</course>
  <speed>0.0</speed>
  <fix>3d</fix>
</trkpt>
<trkpt lat="-27.274439" lon="151.290064">
  <ele>342.78</ele>
  <time>2026-09-01T19:55:57Z</time>
  <course>11.17</course>
  <speed>0.0</speed>
  <fix>3d</fix>
</trkpt>
<trkpt lat="-27.274439" lon="151.290064">
  <ele>343.1</ele>
  <time>2026-09-01T19:55:57Z</time>
  <course>270.0</course>
  <speed>0.0</speed>
  <fix>3d</fix>
</trkpt>
<trkpt lat="-27.274439" lon="151.290064">
  <ele>342.79</ele>
  <time>2026-09-01T19:55:57Z</time>
  <course>11.17</course>
  <speed>0.0</speed>
  <fix>3d</fix>
</trkpt>
<trkpt lat="-27.274439" lon="151.290064">
  <ele>343.1</ele>
  <time>2026-09-01T19:55:57Z</time>
  <course>270.0</course>
  <speed>0.0</speed>
  <fix>3d</fix>
</trkpt>
<trkpt lat="-27.274439" lon="151.290064">
  <ele>342.9</ele>
  <time>2026-09-01T19:55:57Z</time>
  <course>11.16</course>
  <speed>0.0</speed>
  <fix>3d</fix>
</trkpt>
<trkpt lat="-27.274439" lon="151.290064">
  <ele>343.1</ele>
  <time>2026-09-01T19:55:57Z</time>
  <course>270.0</course>
  <speed>0.0</speed>
  <fix>3d</fix>
</trkpt>
<trkpt lat="-27.274439" lon="151.290064">
  <ele>342.98</ele>
  <time>2026-09-01T19:55:57Z</time>
  <course>11.16</course>
  <speed>0.0</speed>
  <fix>3d</fix>
</trkpt>
<trkpt lat="-27.274439" lon="151.290064">
  <ele>343.1</ele>
  <time>2026-09-01T19:55:57Z</time>
  <course>270.0</course>
  <speed>0.0</speed>
  <fix>3d</fix>
</trkpt>
<trkpt lat="-27.274439" lon="151.290064">
  <ele>342.77</ele>
  <time>2026-09-01T19:55:57Z</time>
  <course>11.16</course>
  <speed>0.0</speed>
  <fix>3d</fix>
</trkpt>
<trkpt lat="-27.274439" lon="151.290064">
  <ele>343.1</ele>
  <time>2026-09-01T19:55:57Z</time>
  <course>270.0</course>
  <speed>0.0</speed>
  <fix>3d</fix>
</trkpt>
<trkpt lat="-27.274439" lon="151.290064">
  <ele>342.95</ele>
  <time>2026-09-01T19:55:57Z</time>
  <course>11.16</course>
  <speed>0.0</speed>
  <fix>3d</fix>
</trkpt>
<trkpt lat="-27.274439" lon="151.290064">
  <ele>343.1</ele>
  <time>2026-09-01T19:55:57Z</time>
  <course>270.0</course>
  <speed>0.0</speed>
  <fix>3d</fix>
</trkpt>
<trkpt lat="-27.274439" lon="151.290064">
  <ele>343.04</ele>
  <time>2026-09-01T19:55:57Z</time>
  <course>11.16</course>
  <speed>0.0</speed>
  <fix>3d</fix>
</trkpt>
<trkpt lat="-27.274439" lon="151.290064">
  <ele>343.1</ele>
  <time>2026-09-01T19:55:57Z</time>
  <course>270.0</course>
  <speed>0.0</speed>
  <fix>3d</fix>
</trkpt>
<trkpt lat="-27.274439" lon="151.290064">
  <ele>342.83</ele>
  <time>2026-09-01T19:55:57Z</time>
  <course>11.16</course>
  <speed>0.0</speed>
  <fix>3d</fix>
</trkpt>
<trkpt lat="-27.274439" lon="151.290064">
  <ele>343.1</ele>
  <time>2026-09-01T19:55:57Z</time>
  <course>270.0</course>
  <speed>0.0</speed>
  <fix>3d</fix>
</trkpt>
<trkpt lat="-27.274439" lon="151.290064">
  <ele>342.87</ele>
  <time>2026-09-01T19:55:57Z</time>
  <course>11.15</course>
  <speed>0.0</speed>
  <fix>3d</fix>
</trkpt>
<trkpt lat="-27.274439" lon="151.290064">
  <ele>343.1</ele>
  <time>2026-09-01T19:55:57Z</time>
  <course>270.0</course>
  <speed>0.0</speed>
  <fix>3d</fix>
</trkpt>
<trkpt lat="-27.274439" lon="151.290064">
  <ele>342.76</ele>
  <time>2026-09-01T19:55:57Z</time>
  <course>11.15</course>
  <speed>0.0</speed>
  <fix>3d</fix>
</trkpt>
<trkpt lat="-27.274439" lon="151.290064">
  <ele>343.1</ele>
  <time>2026-09-01T19:55:57Z</time>
  <course>270.0</course>
  <speed>0.0</speed>
  <fix>3d</fix>
</trkpt>
<trkpt lat="-27.274439" lon="151.290064">
  <ele>343.01</ele>
  <time>2026-09-01T19:55:57Z</time>
  <course>11.14</course>
  <speed>0.0</speed>
  <fix>3d</fix>
</trkpt>
<trkpt lat="-27.274439" lon="151.290064">
  <ele>343.1</ele>
  <time>2026-09-01T19:55:57Z</time>
  <course>270.0</course>
  <speed>0.0</speed>
  <fix>3d</fix>
</trkpt>
<trkpt lat="-27.274439" lon="151.290064">
  <ele>343.08</ele>
  <time>2026-09-01T19:55:57Z</time>
  <course>11.14</course>
  <speed>0.0</speed>
  <fix>3d</fix>
</trkpt>
<trkpt lat="-27.274439" lon="151.290064">
  <ele>343.1</ele>
  <time>2026-09-01T19:55:57Z</time>
  <course>270.0</course>
  <speed>0.0</speed>
  <fix>3d</fix>
</trkpt>
<trkpt lat="-27.274439" lon="151.290064">
  <ele>342.82</ele>
  <time>2026-09-01T19:55:57Z</time>
  <course>11.14</course>
  <speed>0.0</speed>
  <fix>3d</fix>
</trkpt>
<trkpt lat="-27.274439" lon="151.290064">
  <ele>343.1</ele>
  <time>2026-09-01T19:55:57Z</time>
  <course>270.0</course>
  <speed>0.0</speed>
  <fix>3d</fix>
</trkpt>
<trkpt lat="-27.274439" lon="151.290064">
  <ele>343.12</ele>
  <time>2026-09-01T19:55:57Z</time>
  <course>11.13</course>
  <speed>0.0</speed>
  <fix>3d</fix>
</trkpt>
<trkpt lat="-27.274439" lon="151.290064">
  <ele>343.1</ele>
  <time>2026-09-01T19:55:57Z</time>
  <course>270.0</course>
  <speed>0.0</speed>
  <fix>3d</fix>
</trkpt>
<trkpt lat="-27.274439" lon="151.290064">
  <ele>342.85</ele>
  <time>2026-09-01T19:55:57Z</time>
  <course>11.13</course>
  <speed>0.0</speed>
  <fix>3d</fix>
</trkpt>
<trkpt lat="-27.274439" lon="151.290064">
  <ele>343.1</ele>
  <time>2026-09-01T19:55:57Z</time>
  <course>270.0</course>
  <speed>0.0</speed>
  <fix>3d</fix>
</trkpt>
<trkpt lat="-27.274439" lon="151.290064">
  <ele>343.01</ele>
  <time>2026-09-01T19:55:57Z</time>
  <course>11.12</course>
  <speed>0.0</speed>
  <fix>3d</fix>
</trkpt>
<trkpt lat="-27.274439" lon="151.290064">
  <ele>343.1</ele>
  <time>2026-09-01T19:55:57Z</time>
  <course>270.0</course>
  <speed>0.0</speed>
  <fix>3d</fix>
</trkpt>
<trkpt lat="-27.274439" lon="151.290064">
  <ele>343.01</ele>
  <time>2026-09-01T19:55:57Z</time>
  <course>11.12</course>
  <speed>0.0</speed>
  <fix>3d</fix>
</trkpt>
<trkpt lat="-27.274439" lon="151.290064">
  <ele>343.1</ele>
  <time>2026-09-01T19:55:57Z</time>
  <course>270.0</course>
  <speed>0.0</speed>
  <fix>3d</fix>
</trkpt>
<trkpt lat="-27.274439" lon="151.290064">
  <ele>342.82</ele>
  <time>2026-09-01T19:55:57Z</time>
  <course>11.11</course>
  <speed>0.0</speed>
  <fix>3d</fix>
</trkpt>
<trkpt lat="-27.274439" lon="151.290064">
  <ele>343.1</ele>
  <time>2026-09-01T19:55:57Z</time>
  <course>270.0</course>
  <speed>0.0</speed>
  <fix>3d</fix>
</trkpt>
<trkpt lat="-27.274439" lon="151.290064">
  <ele>343.05</ele>
  <time>2026-09-01T19:55:57Z</time>
  <course>11.11</course>
  <speed>0.0</speed>
  <fix>3d</fix>
</trkpt>
<trkpt lat="-27.274439" lon="151.290064">
  <ele>343.1</ele>
  <time>2026-09-01T19:55:57Z</time>
  <course>270.0</course>
  <speed>0.0</speed>
  <fix>3d</fix>
</trkpt>
<trkpt lat="-27.274439" lon="151.290064">
  <ele>342.9</ele>
  <time>2026-09-01T19:55:57Z</time>
  <course>11.11</course>
  <speed>0.0</speed>
  <fix>3d</fix>
</trkpt>
<trkpt lat="-27.274439" lon="151.290064">
  <ele>343.1</ele>
  <time>2026-09-01T19:55:57Z</time>
  <course>270.0</course>
  <speed>0.0</speed>
  <fix>3d</fix>
</trkpt>
<trkpt lat="-27.274439" lon="151.290064">
  <ele>342.98</ele>
  <time>2026-09-01T19:55:57Z</time>
  <course>11.1</course>
  <speed>0.0</speed>
  <fix>3d</fix>
</trkpt>
<trkpt lat="-27.274439" lon="151.290064">
  <ele>343.1</ele>
  <time>2026-09-01T19:55:57Z</time>
  <course>270.0</course>
  <speed>0.0</speed>
  <fix>3d</fix>
</trkpt>
<trkpt lat="-27.274439" lon="151.290064">
  <ele>342.84</ele>
  <time>2026-09-01T19:55:57Z</time>
  <course>11.1</course>
  <speed>0.0</speed>
  <fix>3d</fix>
</trkpt>
<trkpt lat="-27.274439" lon="151.290064">
  <ele>343.1</ele>
  <time>2026-09-01T19:55:57Z</time>
  <course>270.0</course>
  <speed>0.0</speed>
  <fix>3d</fix>
</trkpt>
<trkpt lat="-27.274439" lon="151.290064">
  <ele>343.0</ele>
  <time>2026-09-01T19:55:57Z</time>
  <course>11.1</course>
  <speed>0.0</speed>
  <fix>3d</fix>
</trkpt>
<trkpt lat="-27.274439" lon="151.290064">
  <ele>343.1</ele>
  <time>2026-09-01T19:55:57Z</time>
  <course>270.0</course>
  <speed>0.0</speed>
  <fix>3d</fix>
</trkpt>
<trkpt lat="-27.274439" lon="151.290064">
  <ele>343.0</ele>
  <time>2026-09-01T19:55:57Z</time>
  <course>11.09</course>
  <speed>0.0</speed>
  <fix>3d</fix>
</trkpt>
<trkpt lat="-27.274439" lon="151.290064">
  <ele>343.1</ele>
  <time>2026-09-01T19:55:57Z</time>
  <course>270.0</course>
  <speed>0.0</speed>
  <fix>3d</fix>
</trkpt>
<trkpt lat="-27.274439" lon="151.290064">
  <ele>342.78</ele>
  <time>2026-09-01T19:55:57Z</time>
  <course>11.09</course>
  <speed>0.0</speed>
  <fix>3d</fix>
</trkpt>
<trkpt lat="-27.274439" lon="151.290064">
  <ele>343.1</ele>
  <time>2026-09-01T19:55:57Z</time>
  <course>270.0</course>
  <speed>0.0</speed>
  <fix>3d</fix>
</trkpt>
<trkpt lat="-27.274439" lon="151.290064">
  <ele>343.06</ele>
  <time>2026-09-01T19:55:57Z</time>
  <course>11.08</course>
  <speed>0.0</speed>
  <fix>3d</fix>
</trkpt>
<trkpt lat="-27.274439" lon="151.290064">
  <ele>343.1</ele>
  <time>2026-09-01T19:55:57Z</time>
  <course>270.0</course>
  <speed>0.0</speed>
  <fix>3d</fix>
</trkpt>
<trkpt lat="-27.274439" lon="151.290064">
  <ele>343.03</ele>
  <time>2026-09-01T19:55:57Z</time>
  <course>11.08</course>
  <speed>0.0</speed>
  <fix>3d</fix>
</trkpt>
<trkpt lat="-27.274439" lon="151.290064">
  <ele>343.1</ele>
  <time>2026-09-01T19:55:57Z</time>
  <course>270.0</course>
  <speed>0.0</speed>
  <fix>3d</fix>
</trkpt>
<trkpt lat="-27.274439" lon="151.290064">
  <ele>343.15</ele>
  <time>2026-09-01T19:55:57Z</time>
  <course>11.08</course>
  <speed>0.0</speed>
  <fix>3d</fix>
</trkpt>
<trkpt lat="-27.274439" lon="151.290064">
  <ele>343.1</ele>
  <time>2026-09-01T19:55:57Z</time>
  <course>270.0</course>
  <speed>0.0</speed>
  <fix>3d</fix>
</trkpt>
<trkpt lat="-27.274439" lon="151.290064">
  <ele>342.95</ele>
  <time>2026-09-01T19:55:57Z</time>
  <course>11.07</course>
  <speed>0.0</speed>
  <fix>3d</fix>
</trkpt>
<trkpt lat="-27.274439" lon="151.290064">
  <ele>343.1</ele>
  <time>2026-09-01T19:55:57Z</time>
  <course>270.0</course>
  <speed>0.0</speed>
  <fix>3d</fix>
</trkpt>
<trkpt lat="-27.274439" lon="151.290064">
  <ele>343.03</ele>
  <time>2026-09-01T19:55:57Z</time>
  <course>11.07</course>
  <speed>0.0</speed>
  <fix>3d</fix>
</trkpt>
<trkpt lat="-27.274439" lon="151.290064">
  <ele>343.1</ele>
  <time>2026-09-01T19:55:57Z</time>
  <course>270.0</course>
  <speed>0.0</speed>
  <fix>3d</fix>
</trkpt>
<trkpt lat="-27.274439" lon="151.290064">
  <ele>343.12</ele>
  <time>2026-09-01T19:55:57Z</time>
  <course>11.07</course>
  <speed>0.0</speed>
  <fix>3d</fix>
</trkpt>
<trkpt lat="-27.274439" lon="151.290064">
  <ele>343.1</ele>
  <time>2026-09-01T19:55:57Z</time>
  <course>270.0</course>
  <speed>0.0</speed>
  <fix>3d</fix>
</trkpt>
<trkpt lat="-27.274439" lon="151.290064">
  <ele>343.16</ele>
  <time>2026-09-01T19:55:57Z</time>
  <course>11.06</course>
  <speed>0.0</speed>
  <fix>3d</fix>
</trkpt>
<trkpt lat="-27.274439" lon="151.290064">
  <ele>343.1</ele>
  <time>2026-09-01T19:55:57Z</time>
  <course>270.0</course>
  <speed>0.0</speed>
  <fix>3d</fix>
</trkpt>
<trkpt lat="-27.274439" lon="151.290064">
  <ele>342.97</ele>
  <time>2026-09-01T19:55:57Z</time>
  <course>11.06</course>
  <speed>0.0</speed>
  <fix>3d</fix>
</trkpt>
<trkpt lat="-27.274439" lon="151.290064">
  <ele>343.1</ele>
  <time>2026-09-01T19:55:57Z</time>
  <course>270.0</course>
  <speed>0.0</speed>
  <fix>3d</fix>
</trkpt>
<trkpt lat="-27.274439" lon="151.290064">
  <ele>343.14</ele>
  <time>2026-09-01T19:55:57Z</time>
  <course>11.06</course>
  <speed>0.0</speed>
  <fix>3d</fix>
</trkpt>
<trkpt lat="-27.274439" lon="151.290064">
  <ele>343.1</ele>
  <time>2026-09-01T19:55:57Z</time>
  <course>270.0</course>
  <speed>0.0</speed>
  <fix>3d</fix>
</trkpt>
<trkpt lat="-27.274439" lon="151.290064">
  <ele>342.86</ele>
  <time>2026-09-01T19:55:57Z</time>
  <course>11.05</course>
  <speed>0.0</speed>
  <fix>3d</fix>
</trkpt>
<trkpt lat="-27.274439" lon="151.290064">
  <ele>343.1</ele>
  <time>2026-09-01T19:55:57Z</time>
  <course>270.0</course>
  <speed>0.0</speed>
  <fix>3d</fix>
</trkpt>
<trkpt lat="-27.274439" lon="151.290064">
  <ele>342.92</ele>
  <time>2026-09-01T19:55:57Z</time>
  <course>11.05</course>
  <speed>0.0</speed>
  <fix>3d</fix>
</trkpt>
<trkpt lat="-27.274439" lon="151.290064">
  <ele>343.1</ele>
  <time>2026-09-01T19:55:57Z</time>
  <course>270.0</course>
  <speed>0.0</speed>
  <fix>3d</fix>
</trkpt>
<trkpt lat="-27.274439" lon="151.290064">
  <ele>343.12</ele>
  <time>2026-09-01T19:55:57Z</time>
  <course>11.05</course>
  <speed>0.0</speed>
  <fix>3d</fix>
</trkpt>
<trkpt lat="-27.274439" lon="151.290064">
  <ele>343.1</ele>
  <time>2026-09-01T19:55:57Z</time>
  <course>270.0</course>
  <speed>0.0</speed>
  <fix>3d</fix>
</trkpt>
<trkpt lat="-27.274439" lon="151.290064">
  <ele>343.03</ele>
  <time>2026-09-01T19:55:57Z</time>
  <course>11.05</course>
  <speed>0.0</speed>
  <fix>3d</fix>
</trkpt>
<trkpt lat="-27.274439" lon="151.290064">
  <ele>343.1</ele>
  <time>2026-09-01T19:55:57Z</time>
  <course>270.0</course>
  <speed>0.0</speed>
  <fix>3d</fix>
</trkpt>
<trkpt lat="-27.274439" lon="151.290064">
  <ele>343.07</ele>
  <time>2026-09-01T19:55:57Z</time>
  <course>11.04</course>
  <speed>0.0</speed>
  <fix>3d</fix>
</trkpt>
<trkpt lat="-27.274439" lon="151.290064">
  <ele>343.1</ele>
  <time>2026-09-01T19:55:57Z</time>
  <course>270.0</course>
  <speed>0.0</speed>
  <fix>3d</fix>
</trkpt>
<trkpt lat="-27.274439" lon="151.290064">
  <ele>343.03</ele>
  <time>2026-09-01T19:55:57Z</time>
  <course>11.04</course>
  <speed>0.0</speed>
  <fix>3d</fix>
</trkpt>
<trkpt lat="-27.274439" lon="151.290064">
  <ele>343.1</ele>
  <time>2026-09-01T19:55:57Z</time>
  <course>270.0</course>
  <speed>0.0</speed>
  <fix>3d</fix>
</trkpt>
<trkpt lat="-27.274439" lon="151.290064">
  <ele>342.88</ele>
  <time>2026-09-01T19:55:57Z</time>
  <course>11.04</course>
  <speed>0.0</speed>
  <fix>3d</fix>
</trkpt>
<trkpt lat="-27.274439" lon="151.290064">
  <ele>343.1</ele>
  <time>2026-09-01T19:55:57Z</time>
  <course>270.0</course>
  <speed>0.0</speed>
  <fix>3d</fix>
</trkpt>
<trkpt lat="-27.274439" lon="151.290064">
  <ele>343.0</ele>
  <time>2026-09-01T19:55:57Z</time>
  <course>11.03</course>
  <speed>0.0</speed>
  <fix>3d</fix>
</trkpt>
<trkpt lat="-27.274439" lon="151.290064">
  <ele>343.1</ele>
  <time>2026-09-01T19:55:57Z</time>
  <course>270.0</course>
  <speed>0.0</speed>
  <fix>3d</fix>
</trkpt>
<trkpt lat="-27.274439" lon="151.290064">
  <ele>343.1</ele>
  <time>2026-09-01T19:55:57Z</time>
  <course>11.03</course>
  <speed>0.0</speed>
  <fix>3d</fix>
</trkpt>
<trkpt lat="-27.274439" lon="151.290064">
  <ele>343.1</ele>
  <time>2026-09-01T19:55:57Z</time>
  <course>270.0</course>
  <speed>0.0</speed>
  <fix>3d</fix>
</trkpt>
<trkpt lat="-27.274439" lon="151.290064">
  <ele>343.04</ele>
  <time>2026-09-01T19:55:57Z</time>
  <course>11.03</course>
  <speed>0.0</speed>
  <fix>3d</fix>
</trkpt>
<trkpt lat="-27.274439" lon="151.290064">
  <ele>343.1</ele>
  <time>2026-09-01T19:55:57Z</time>
  <course>270.0</course>
  <speed>0.0</speed>
  <fix>3d</fix>
</trkpt>
<trkpt lat="-27.274439" lon="151.290064">
  <ele>343.22</ele>
  <time>2026-09-01T19:55:57Z</time>
  <course>11.02</course>
  <speed>0.0</speed>
  <fix>3d</fix>
</trkpt>
<trkpt lat="-27.274439" lon="151.290064">
  <ele>343.1</ele>
  <time>2026-09-01T19:55:57Z</time>
  <course>270.0</course>
  <speed>0.0</speed>
  <fix>3d</fix>
</trkpt>
<trkpt lat="-27.274439" lon="151.290064">
  <ele>343.05</ele>
  <time>2026-09-01T19:55:57Z</time>
  <course>11.02</course>
  <speed>0.0</speed>
  <fix>3d</fix>
</trkpt>
<trkpt lat="-27.274439" lon="151.290064">
  <ele>343.1</ele>
  <time>2026-09-01T19:55:57Z</time>
  <course>270.0</course>
  <speed>0.0</speed>
  <fix>3d</fix>
</trkpt>
<trkpt lat="-27.274439" lon="151.290064">
  <ele>343.07</ele>
  <time>2026-09-01T19:55:57Z</time>
  <course>11.02</course>
  <speed>0.0</speed>
  <fix>3d</fix>
</trkpt>
<trkpt lat="-27.274439" lon="151.290064">
  <ele>343.1</ele>
  <time>2026-09-01T19:55:57Z</time>
  <course>270.0</course>
  <speed>0.0</speed>
  <fix>3d</fix>
</trkpt>
<trkpt lat="-27.274439" lon="151.290064">
  <ele>343.08</ele>
  <time>2026-09-01T19:55:57Z</time>
  <course>11.02</course>
  <speed>0.0</speed>
  <fix>3d</fix>
</trkpt>
<trkpt lat="-27.274439" lon="151.290064">
  <ele>343.1</ele>
  <time>2026-09-01T19:55:57Z</time>
  <course>270.0</course>
  <speed>0.0</speed>
  <fix>3d</fix>
</trkpt>
<trkpt lat="-27.274439" lon="151.290064">
  <ele>342.89</ele>
  <time>2026-09-01T19:55:57Z</time>
  <course>11.01</course>
  <speed>0.0</speed>
  <fix>3d</fix>
</trkpt>
<trkpt lat="-27.274439" lon="151.290064">
  <ele>343.1</ele>
  <time>2026-09-01T19:55:57Z</time>
  <course>270.0</course>
  <speed>0.0</speed>
  <fix>3d</fix>
</trkpt>
<trkpt lat="-27.274439" lon="151.290064">
  <ele>342.99</ele>
  <time>2026-09-01T19:55:57Z</time>
  <course>11.01</course>
  <speed>0.0</speed>
  <fix>3d</fix>
</trkpt>
<trkpt lat="-27.274439" lon="151.290064">
  <ele>343.1</ele>
  <time>2026-09-01T19:55:57Z</time>
  <course>270.0</course>
  <speed>0.0</speed>
  <fix>3d</fix>
</trkpt>
<trkpt lat="-27.274439" lon="151.290064">
  <ele>342.89</ele>
  <time>2026-09-01T19:55:57Z</time>
  <course>11.01</course>
  <speed>0.0</speed>
  <fix>3d</fix>
</trkpt>
<trkpt lat="-27.274439" lon="151.290064">
  <ele>343.1</ele>
  <time>2026-09-01T19:55:57Z</time>
  <course>270.0</course>
  <speed>0.0</speed>
  <fix>3d</fix>
</trkpt>
<trkpt lat="-27.274439" lon="151.290064">
  <ele>343.19</ele>
  <time>2026-09-01T19:55:57Z</time>
  <course>11.01</course>
  <speed>0.0</speed>
  <fix>3d</fix>
</trkpt>
<trkpt lat="-27.274439" lon="151.290064">
  <ele>343.1</ele>
  <time>2026-09-01T19:55:57Z</time>
  <course>270.0</course>
  <speed>0.0</speed>
  <fix>3d</fix>
</trkpt>
<trkpt lat="-27.274439" lon="151.290064">
  <ele>343.02</ele>
  <time>2026-09-01T19:55:57Z</time>
  <course>11.0</course>
  <speed>0.0</speed>
  <fix>3d</fix>
</trkpt>
<trkpt lat="-27.274439" lon="151.290064">
  <ele>343.1</ele>
  <time>2026-09-01T19:55:57Z</time>
  <course>270.0</course>
  <speed>0.0</speed>
  <fix>3d</fix>
</trkpt>
<trkpt lat="-27.274439" lon="151.290064">
  <ele>343.2</ele>
  <time>2026-09-01T19:55:57Z</time>
  <course>11.0</course>
  <speed>0.0</speed>
  <fix>3d</fix>
</trkpt>
<trkpt lat="-27.274439" lon="151.290064">
  <ele>343.1</ele>
  <time>2026-09-01T19:55:57Z</time>
  <course>270.0</course>
  <speed>0.0</speed>
  <fix>3d</fix>
</trkpt>
<trkpt lat="-27.274439" lon="151.290064">
  <ele>343.22</ele>
  <time>2026-09-01T19:55:57Z</time>
  <course>11.0</course>
  <speed>0.0</speed>
  <fix>3d</fix>
</trkpt>
<trkpt lat="-27.274439" lon="151.290064">
  <ele>343.1</ele>
  <time>2026-09-01T19:55:57Z</time>
  <course>270.0</course>
  <speed>0.0</speed>
  <fix>3d</fix>
</trkpt>
<trkpt lat="-27.274439" lon="151.290064">
  <ele>343.04</ele>
  <time>2026-09-01T19:55:57Z</time>
  <course>11.0</course>
  <speed>0.0</speed>
  <fix>3d</fix>
</trkpt>
<trkpt lat="-27.274439" lon="151.290064">
  <ele>343.1</ele>
  <time>2026-09-01T19:55:57Z</time>
  <course>270.0</course>
  <speed>0.0</speed>
  <fix>3d</fix>
</trkpt>
<trkpt lat="-27.274439" lon="151.290064">
  <ele>343.14</ele>
  <time>2026-09-01T19:55:57Z</time>
  <course>10.99</course>
  <speed>0.0</speed>
  <fix>3d</fix>
</trkpt>
<trkpt lat="-27.274439" lon="151.290064">
  <ele>343.1</ele>
  <time>2026-09-01T19:55:57Z</time>
  <course>270.0</course>
  <speed>0.0</speed>
  <fix>3d</fix>
</trkpt>
<trkpt lat="-27.274439" lon="151.290064">
  <ele>342.98</ele>
  <time>2026-09-01T19:55:57Z</time>
  <course>10.99</course>
  <speed>0.0</speed>
  <fix>3d</fix>
</trkpt>
<trkpt lat="-27.274439" lon="151.290064">
  <ele>343.1</ele>
  <time>2026-09-01T19:55:57Z</time>
  <course>270.0</course>
  <speed>0.0</speed>
  <fix>3d</fix>
</trkpt>
<trkpt lat="-27.274439" lon="151.290064">
  <ele>342.95</ele>
  <time>2026-09-01T19:55:57Z</time>
  <course>10.99</course>
  <speed>0.0</speed>
  <fix>3d</fix>
</trkpt>
<trkpt lat="-27.274439" lon="151.290064">
  <ele>343.1</ele>
  <time>2026-09-01T19:55:57Z</time>
  <course>270.0</course>
  <speed>0.0</speed>
  <fix>3d</fix>
</trkpt>
<trkpt lat="-27.274439" lon="151.290064">
  <ele>343.13</ele>
  <time>2026-09-01T19:55:57Z</time>
  <course>10.99</course>
  <speed>0.0</speed>
  <fix>3d</fix>
</trkpt>
<trkpt lat="-27.274439" lon="151.290064">
  <ele>343.1</ele>
  <time>2026-09-01T19:55:57Z</time>
  <course>270.0</course>
  <speed>0.0</speed>
  <fix>3d</fix>
</trkpt>
<trkpt lat="-27.274439" lon="151.290064">
  <ele>342.97</ele>
  <time>2026-09-01T19:55:57Z</time>
  <course>10.98</course>
  <speed>0.0</speed>
  <fix>3d</fix>
</trkpt>
<trkpt lat="-27.274439" lon="151.290064">
  <ele>343.1</ele>
  <time>2026-09-01T19:55:57Z</time>
  <course>270.0</course>
  <speed>0.0</speed>
  <fix>3d</fix>
</trkpt>
<trkpt lat="-27.274439" lon="151.290064">
  <ele>342.98</ele>
  <time>2026-09-01T19:55:57Z</time>
  <course>10.98</course>
  <speed>0.0</speed>
  <fix>3d</fix>
</trkpt>
<trkpt lat="-27.274439" lon="151.290064">
  <ele>343.1</ele>
  <time>2026-09-01T19:55:57Z</time>
  <course>270.0</course>
  <speed>0.0</speed>
  <fix>3d</fix>
</trkpt>
<trkpt lat="-27.274439" lon="151.290064">
  <ele>343.1</ele>
  <time>2026-09-01T19:55:57Z</time>
  <course>10.97</course>
  <speed>0.0</speed>
  <fix>3d</fix>
</trkpt>
<trkpt lat="-27.274439" lon="151.290064">
  <ele>343.1</ele>
  <time>2026-09-01T19:55:57Z</time>
  <course>270.0</course>
  <speed>0.0</speed>
  <fix>3d</fix>
</trkpt>
<trkpt lat="-27.274439" lon="151.290064">
  <ele>342.83</ele>
  <time>2026-09-01T19:55:57Z</time>
  <course>10.97</course>
  <speed>0.0</speed>
  <fix>3d</fix>
</trkpt>
<trkpt lat="-27.274439" lon="151.290064">
  <ele>343.1</ele>
  <time>2026-09-01T19:55:57Z</time>
  <course>270.0</course>
  <speed>0.0</speed>
  <fix>3d</fix>
</trkpt>
<trkpt lat="-27.274439" lon="151.290064">
  <ele>342.9</ele>
  <time>2026-09-01T19:55:57Z</time>
  <course>10.97</course>
  <speed>0.0</speed>
  <fix>3d</fix>
</trkpt>
<trkpt lat="-27.274439" lon="151.290064">
  <ele>343.1</ele>
  <time>2026-09-01T19:55:57Z</time>
  <course>270.0</course>
  <speed>0.0</speed>
  <fix>3d</fix>
</trkpt>
<trkpt lat="-27.274439" lon="151.290064">
  <ele>342.92</ele>
  <time>2026-09-01T19:55:57Z</time>
  <course>10.96</course>
  <speed>0.0</speed>
  <fix>3d</fix>
</trkpt>
<trkpt lat="-27.274439" lon="151.290064">
  <ele>343.1</ele>
  <time>2026-09-01T19:55:57Z</time>
  <course>270.0</course>
  <speed>0.0</speed>
  <fix>3d</fix>
</trkpt>
<trkpt lat="-27.274439" lon="151.290064">
  <ele>342.88</ele>
  <time>2026-09-01T19:55:57Z</time>
  <course>10.96</course>
  <speed>0.0</speed>
  <fix>3d</fix>
</trkpt>
<trkpt lat="-27.274439" lon="151.290064">
  <ele>343.1</ele>
  <time>2026-09-01T19:55:57Z</time>
  <course>270.0</course>
  <speed>0.0</speed>
  <fix>3d</fix>
</trkpt>
<trkpt lat="-27.274439" lon="151.290064">
  <ele>342.89</ele>
  <time>2026-09-01T19:55:57Z</time>
  <course>10.95</course>
  <speed>0.0</speed>
  <fix>3d</fix>
</trkpt>
<trkpt lat="-27.274439" lon="151.290064">
  <ele>343.1</ele>
  <time>2026-09-01T19:55:57Z</time>
  <course>270.0</course>
  <speed>0.0</speed>
  <fix>3d</fix>
</trkpt>
<trkpt lat="-27.274439" lon="151.290064">
  <ele>343.02</ele>
  <time>2026-09-01T19:55:57Z</time>
  <course>11.41</course>
  <speed>0.0</speed>
  <fix>3d</fix>
</trkpt>
<trkpt lat="-27.274439" lon="151.290064">
  <ele>343.1</ele>
  <time>2026-09-01T19:55:57Z</time>
  <course>270.0</course>
  <speed>0.0</speed>
  <fix>3d</fix>
</trkpt>
<trkpt lat="-27.274439" lon="151.290064">
  <ele>343.02</ele>
  <time>2026-09-01T19:55:57Z</time>
  <course>11.4</course>
  <speed>0.0</speed>
  <fix>3d</fix>
</trkpt>
<trkpt lat="-27.274439" lon="151.290064">
  <ele>343.1</ele>
  <time>2026-09-01T19:55:57Z</time>
  <course>270.0</course>
  <speed>0.0</speed>
  <fix>3d</fix>
</trkpt>
<trkpt lat="-27.274439" lon="151.290064">
  <ele>343.02</ele>
  <time>2026-09-01T19:55:57Z</time>
  <course>11.4</course>
  <speed>0.0</speed>
  <fix>3d</fix>
</trkpt>
<trkpt lat="-27.274439" lon="151.290064">
  <ele>343.1</ele>
  <time>2026-09-01T19:55:57Z</time>
  <course>270.0</course>
  <speed>0.0</speed>
  <fix>3d</fix>
</trkpt>
<trkpt lat="-27.274439" lon="151.290064">
  <ele>343.02</ele>
  <time>2026-09-01T19:55:57Z</time>
  <course>11.4</course>
  <speed>0.0</speed>
  <fix>3d</fix>
</trkpt>
<trkpt lat="-27.274439" lon="151.290064">
  <ele>343.1</ele>
  <time>2026-09-01T19:55:57Z</time>
  <course>270.0</course>
  <speed>0.0</speed>
  <fix>3d</fix>
</trkpt>
<trkpt lat="-27.274439" lon="151.290064">
  <ele>343.02</ele>
  <time>2026-09-01T19:55:57Z</time>
  <course>11.4</course>
  <speed>0.0</speed>
  <fix>3d</fix>
</trkpt>
<trkpt lat="-27.274439" lon="151.290064">
  <ele>343.1</ele>
  <time>2026-09-01T19:55:57Z</time>
  <course>270.0</course>
  <speed>0.0</speed>
  <fix>3d</fix>
</trkpt>
<trkpt lat="-27.274439" lon="151.290064">
  <ele>343.02</ele>
  <time>2026-09-01T19:55:57Z</time>
  <course>11.4</course>
  <speed>0.0</speed>
  <fix>3d</fix>
</trkpt>
<trkpt lat="-27.274439" lon="151.290064">
  <ele>343.1</ele>
  <time>2026-09-01T19:55:57Z</time>
  <course>270.0</course>
  <speed>0.0</speed>
  <fix>3d</fix>
</trkpt>
<trkpt lat="-27.274439" lon="151.290064">
  <ele>343.02</ele>
  <time>2026-09-01T19:55:57Z</time>
  <course>11.4</course>
  <speed>0.0</speed>
  <fix>3d</fix>
</trkpt>
<trkpt lat="-27.274439" lon="151.290064">
  <ele>343.1</ele>
  <time>2026-09-01T19:55:57Z</time>
  <course>270.0</course>
  <speed>0.0</speed>
  <fix>3d</fix>
</trkpt>
<trkpt lat="-27.274439" lon="151.290064">
  <ele>343.02</ele>
  <time>2026-09-01T19:55:57Z</time>
  <course>11.39</course>
  <speed>0.0</speed>
  <fix>3d</fix>
</trkpt>
<trkpt lat="-27.274439" lon="151.290064">
  <ele>343.1</ele>
  <time>2026-09-01T19:55:57Z</time>
  <course>270.0</course>
  <speed>0.0</speed>
  <fix>3d</fix>
</trkpt>
<trkpt lat="-27.274439" lon="151.290064">
  <ele>343.02</ele>
  <time>2026-09-01T19:55:57Z</time>
  <course>11.39</course>
  <speed>0.0</speed>
  <fix>3d</fix>
</trkpt>
<trkpt lat="-27.274439" lon="151.290064">
  <ele>343.1</ele>
  <time>2026-09-01T19:55:57Z</time>
  <course>270.0</course>
  <speed>0.0</speed>
  <fix>3d</fix>
</trkpt>
<trkpt lat="-27.274439" lon="151.290064">
  <ele>343.02</ele>
  <time>2026-09-01T19:55:57Z</time>
  <course>11.39</course>
  <speed>0.0</speed>
  <fix>3d</fix>
</trkpt>
<trkpt lat="-27.274439" lon="151.290064">
  <ele>343.1</ele>
  <time>2026-09-01T19:55:57Z</time>
  <course>270.0</course>
  <speed>0.0</speed>
  <fix>3d</fix>
</trkpt>
<trkpt lat="-27.274439" lon="151.290064">
  <ele>343.01</ele>
  <time>2026-09-01T19:55:57Z</time>
  <course>11.39</course>
  <speed>0.01</speed>
  <fix>3d</fix>
</trkpt>
<trkpt lat="-27.274439" lon="151.290064">
  <ele>343.1</ele>
  <time>2026-09-01T19:55:57Z</time>
  <course>270.0</course>
  <speed>0.0</speed>
  <fix>3d</fix>
</trkpt>
<trkpt lat="-27.274439" lon="151.290064">
  <ele>343.09</ele>
  <time>2026-09-01T19:55:57Z</time>
  <course>11.39</course>
  <speed>0.01</speed>
  <fix>3d</fix>
</trkpt>
<trkpt lat="-27.274439" lon="151.290064">
  <ele>343.1</ele>
  <time>2026-09-01T19:55:57Z</time>
  <course>270.0</course>
  <speed>0.0</speed>
  <fix>3d</fix>
</trkpt>
<trkpt lat="-27.274439" lon="151.290064">
  <ele>343.09</ele>
  <time>2026-09-01T19:55:57Z</time>
  <course>11.38</course>
  <speed>0.01</speed>
  <fix>3d</fix>
</trkpt>
<trkpt lat="-27.274439" lon="151.290064">
  <ele>343.1</ele>
  <time>2026-09-01T19:55:57Z</time>
  <course>270.0</course>
  <speed>0.0</speed>
  <fix>3d</fix>
</trkpt>
<trkpt lat="-27.274439" lon="151.290064">
  <ele>343.09</ele>
  <time>2026-09-01T19:55:57Z</time>
  <course>11.38</course>
  <speed>0.01</speed>
  <fix>3d</fix>
</trkpt>
<trkpt lat="-27.274439" lon="151.290064">
  <ele>343.1</ele>
  <time>2026-09-01T19:55:57Z</time>
  <course>270.0</course>
  <speed>0.0</speed>
  <fix>3d</fix>
</trkpt>
<trkpt lat="-27.274439" lon="151.290064">
  <ele>343.09</ele>
  <time>2026-09-01T19:55:57Z</time>
  <course>11.38</course>
  <speed>0.01414213562373095</speed>
  <fix>3d</fix>
</trkpt>
<trkpt lat="-27.274439" lon="151.290064">
  <ele>343.1</ele>
  <time>2026-09-01T19:55:57Z</time>
  <course>143.0</course>
  <speed>0.0</speed>
  <fix>3d</fix>
</trkpt>
<trkpt lat="-27.274439" lon="151.290064">
  <ele>343.09</ele>
  <time>2026-09-01T19:55:57Z</time>
  <course>11.38</course>
  <speed>0.01414213562373095</speed>
  <fix>3d</fix>
</trkpt>
<trkpt lat="-27.274439" lon="151.290064">
  <ele>343.1</ele>
  <time>2026-09-01T19:55:57Z</time>
  <course>143.0</course>
  <speed>0.0</speed>
  <fix>3d</fix>
</trkpt>
<trkpt lat="-27.274439" lon="151.290064">
  <ele>343.09</ele>
  <time>2026-09-01T19:55:57Z</time>
  <course>11.38</course>
  <speed>0.01414213562373095</speed>
  <fix>3d</fix>
</trkpt>
<trkpt lat="-27.274439" lon="151.290064">
  <ele>343.1</ele>
  <time>2026-09-01T19:55:57Z</time>
  <course>142.34</course>
  <speed>0.0</speed>
  <fix>3d</fix>
</trkpt>
<trkpt lat="-27.274439" lon="151.290064">
  <ele>343.09</ele>
  <time>2026-09-01T19:55:57Z</time>
  <course>11.38</course>
  <speed>0.01414213562373095</speed>
  <fix>3d</fix>
</trkpt>
<trkpt lat="-27.274439" lon="151.290064">
  <ele>343.1</ele>
  <time>2026-09-01T19:55:57Z</time>
  <course>142.34</course>
  <speed>0.0</speed>
  <fix>3d</fix>
</trkpt>
<trkpt lat="-27.274439" lon="151.290064">
  <ele>343.09</ele>
  <time>2026-09-01T19:55:57Z</time>
  <course>11.37</course>
  <speed>0.01414213562373095</speed>
  <fix>3d</fix>
</trkpt>
<trkpt lat="-27.274439" lon="151.290064">
  <ele>343.1</ele>
  <time>2026-09-01T19:55:57Z</time>
  <course>142.9</course>
  <speed>0.0</speed>
  <fix>3d</fix>
</trkpt>
<trkpt lat="-27.274439" lon="151.290064">
  <ele>343.09</ele>
  <time>2026-09-01T19:55:57Z</time>
  <course>11.37</course>
  <speed>0.01414213562373095</speed>
  <fix>3d</fix>
</trkpt>
<trkpt lat="-27.274439" lon="151.290064">
  <ele>343.1</ele>
  <time>2026-09-01T19:55:57Z</time>
  <course>142.9</course>
  <speed>0.0</speed>
  <fix>3d</fix>
</trkpt>
<trkpt lat="-27.274439" lon="151.290064">
  <ele>343.09</ele>
  <time>2026-09-01T19:55:57Z</time>
  <course>11.37</course>
  <speed>0.01414213562373095</speed>
  <fix>3d</fix>
</trkpt>
<trkpt lat="-27.274439" lon="151.290064">
  <ele>343.1</ele>
  <time>2026-09-01T19:55:57Z</time>
  <course>317.44</course>
  <speed>0.0</speed>
  <fix>3d</fix>
</trkpt>
<trkpt lat="-27.274439" lon="151.290064">
  <ele>343.09</ele>
  <time>2026-09-01T19:55:57Z</time>
  <course>11.37</course>
  <speed>0.01414213562373095</speed>
  <fix>3d</fix>
</trkpt>
<trkpt lat="-27.274439" lon="151.290064">
  <ele>343.1</ele>
  <time>2026-09-01T19:55:57Z</time>
  <course>317.44</course>
  <speed>0.0</speed>
  <fix>3d</fix>
</trkpt>
<trkpt lat="-27.274439" lon="151.290064">
  <ele>343.09</ele>
  <time>2026-09-01T19:55:57Z</time>
  <course>11.37</course>
  <speed>0.01414213562373095</speed>
  <fix>3d</fix>
</trkpt>
<trkpt lat="-27.274439" lon="151.290064">
  <ele>343.1</ele>
  <time>2026-09-01T19:55:57Z</time>
  <course>319.81</course>
  <speed>0.0</speed>
  <fix>3d</fix>
</trkpt>
<trkpt lat="-27.274439" lon="151.290064">
  <ele>343.11</ele>
  <time>2026-09-01T19:55:57Z</time>
  <course>11.36</course>
  <speed>0.01414213562373095</speed>
  <fix>3d</fix>
</trkpt>
<trkpt lat="-27.274439" lon="151.290064">
  <ele>343.1</ele>
  <time>2026-09-01T19:55:57Z</time>
  <course>319.81</course>
  <speed>0.0</speed>
  <fix>3d</fix>
</trkpt>
<trkpt lat="-27.274439" lon="151.290064">
  <ele>343.15</ele>
  <time>2026-09-01T19:55:57Z</time>
  <course>11.36</course>
  <speed>0.01414213562373095</speed>
  <fix>3d</fix>
</trkpt>
<trkpt lat="-27.274439" lon="151.290064">
  <ele>343.1</ele>
  <time>2026-09-01T19:55:57Z</time>
  <course>7.29</course>
  <speed>0.0</speed>
  <fix>3d</fix>
</trkpt>
<trkpt lat="-27.274439" lon="151.290064">
  <ele>343.2</ele>
  <time>2026-09-01T19:55:57Z</time>
  <course>11.36</course>
  <speed>0.01414213562373095</speed>
  <fix>3d</fix>
</trkpt>
<trkpt lat="-27.274439" lon="151.290064">
  <ele>343.1</ele>
  <time>2026-09-01T19:55:57Z</time>
  <course>7.29</course>
  <speed>0.0</speed>
  <fix>3d</fix>
</trkpt>
<trkpt lat="-27.274439" lon="151.290064">
  <ele>343.28</ele>
  <time>2026-09-01T19:55:57Z</time>
  <course>11.37</course>
  <speed>0.01</speed>
  <fix>3d</fix>
</trkpt>
<trkpt lat="-27.274439" lon="151.290064">
  <ele>343.15</ele>
  <time>2026-09-01T19:55:57Z</time>
  <course>7.73</course>
  <speed>0.0</speed>
  <fix>3d</fix>
</trkpt>
<trkpt lat="-27.274439" lon="151.290064">
  <ele>343.43</ele>
  <time>2026-09-01T19:55:57Z</time>
  <course>11.39</course>
  <speed>0.0316227766016838</speed>
  <fix>3d</fix>
</trkpt>
<trkpt lat="-27.274439" lon="151.290064">
  <ele>343.15</ele>
  <time>2026-09-01T19:55:57Z</time>
  <course>7.73</course>
  <speed>0.0</speed>
  <fix>3d</fix>
</trkpt>
<trkpt lat="-27.274439" lon="151.290064">
  <ele>343.64</ele>
  <time>2026-09-01T19:55:57Z</time>
  <course>11.4</course>
  <speed>0.07280109889280519</speed>
  <fix>3d</fix>
</trkpt>
<trkpt lat="-27.274439" lon="151.290064">
  <ele>343.31</ele>
  <time>2026-09-01T19:55:57Z</time>
  <course>2.24</course>
  <speed>0.03</speed>
  <fix>3d</fix>
</trkpt>
<trkpt lat="-27.2744389" lon="151.290064">
  <ele>343.88</ele>
  <time>2026-09-01T19:55:57Z</time>
  <course>11.4</course>
  <speed>0.12165525060596438</speed>
  <fix>3d</fix>
</trkpt>
<trkpt lat="-27.274439" lon="151.290064">
  <ele>343.31</ele>
  <time>2026-09-01T19:55:57Z</time>
  <course>2.24</course>
  <speed>0.03</speed>
  <fix>3d</fix>
</trkpt>
<trkpt lat="-27.2744388" lon="151.290064">
  <ele>344.14</ele>
  <time>2026-09-01T19:55:57Z</time>
  <course>11.38</course>
  <speed>0.16278820596099705</speed>
  <fix>3d</fix>
</trkpt>
<trkpt lat="-27.2744389" lon="151.290064">
  <ele>343.66</ele>
  <time>2026-09-01T19:55:57Z</time>
  <course>2.48</course>
  <speed>0.09</speed>
  <fix>3d</fix>
</trkpt>
<trkpt lat="-27.2744386" lon="151.2900641">
  <ele>344.41</ele>
  <time>2026-09-01T19:55:57Z</time>
  <course>11.34</course>
  <speed>0.20223748416156684</speed>
  <fix>3d</fix>
</trkpt>
<trkpt lat="-27.2744389" lon="151.290064">
  <ele>343.66</ele>
  <time>2026-09-01T19:55:57Z</time>
  <course>2.48</course>
  <speed>0.09</speed>
  <fix>3d</fix>
</trkpt>
<trkpt lat="-27.2744384" lon="151.2900641">
  <ele>344.69</ele>
  <time>2026-09-01T19:55:57Z</time>
  <course>11.3</course>
  <speed>0.24331050121192876</speed>
  <fix>3d</fix>
</trkpt>
<trkpt lat="-27.2744387" lon="151.290064">
  <ele>344.16</ele>
  <time>2026-09-01T19:55:57Z</time>
  <course>3.28</course>
  <speed>0.18</speed>
  <fix>3d</fix>
</trkpt>
<trkpt lat="-27.2744381" lon="151.2900641">
  <ele>344.98</ele>
  <time>2026-09-01T19:55:57Z</time>
  <course>11.27</course>
  <speed>0.282842712474619</speed>
  <fix>3d</fix>
</trkpt>
<trkpt lat="-27.2744387" lon="151.290064">
  <ele>344.16</ele>
  <time>2026-09-01T19:55:57Z</time>
  <course>3.28</course>
  <speed>0.18</speed>
  <fix>3d</fix>
</trkpt>
<trkpt lat="-27.2744378" lon="151.2900641">
  <ele>345.29</ele>
  <time>2026-09-01T19:55:57Z</time>
  <course>10.44</course>
  <speed>0.3238826948140329</speed>
  <fix>3d</fix>
</trkpt>
<trkpt lat="-27.2744383" lon="151.290064">
  <ele>344.72</ele>
  <time>2026-09-01T19:55:57Z</time>
  <course>4.04</course>
  <speed>0.26</speed>
  <fix>3d</fix>
</trkpt>
<trkpt lat="-27.2744375" lon="151.2900642">
  <ele>345.6</ele>
  <time>2026-09-01T19:55:57Z</time>
  <course>10.42</course>
  <speed>0.3535533905932738</speed>
  <fix>3d</fix>
</trkpt>
<trkpt lat="-27.2744383" lon="151.290064">
  <ele>344.72</ele>
  <time>2026-09-01T19:55:57Z</time>
  <course>4.04</course>
  <speed>0.26</speed>
  <fix>3d</fix>
</trkpt>
<trkpt lat="-27.2744372" lon="151.2900642">
  <ele>345.92</ele>
  <time>2026-09-01T19:55:57Z</time>
  <course>10.41</course>
  <speed>0.37336309405188944</speed>
  <fix>3d</fix>
</trkpt>
<trkpt lat="-27.2744378" lon="151.290064">
  <ele>345.32</ele>
  <time>2026-09-01T19:55:57Z</time>
  <course>4.71</course>
  <speed>0.33</speed>
  <fix>3d</fix>
</trkpt>
<trkpt lat="-27.2744368" lon="151.2900642">
  <ele>346.23</ele>
  <time>2026-09-01T19:55:57Z</time>
  <course>10.41</course>
  <speed>0.4044749683231337</speed>
  <fix>3d</fix>
</trkpt>
<trkpt lat="-27.2744378" lon="151.290064">
  <ele>345.32</ele>
  <time>2026-09-01T19:55:57Z</time>
  <course>4.71</course>
  <speed>0.33</speed>
  <fix>3d</fix>
</trkpt>
<trkpt lat="-27.2744365" lon="151.2900643">
  <ele>346.55</ele>
  <time>2026-09-01T19:55:58Z</time>
  <course>10.41</course>
  <speed>0.4143669871020132</speed>
  <fix>3d</fix>
</trkpt>
<trkpt lat="-27.2744371" lon="151.2900641">
  <ele>345.95</ele>
  <time>2026-09-01T19:55:58Z</time>
  <course>5.23</course>
  <speed>0.39</speed>
  <fix>3d</fix>
</trkpt>
<trkpt lat="-27.2744361" lon="151.2900643">
  <ele>346.87</ele>
  <time>2026-09-01T19:55:58Z</time>
  <course>10.42</course>
  <speed>0.4242640687119285</speed>
  <fix>3d</fix>
</trkpt>
<trkpt lat="-27.2744371" lon="151.2900641">
  <ele>345.95</ele>
  <time>2026-09-01T19:55:58Z</time>
  <course>5.23</course>
  <speed>0.39</speed>
  <fix>3d</fix>
</trkpt>
<trkpt lat="-27.2744357" lon="151.2900643">
  <ele>347.18</ele>
  <time>2026-09-01T19:55:58Z</time>
  <course>10.42</course>
  <speed>0.4341658669218482</speed>
  <fix>3d</fix>
</trkpt>
<trkpt lat="-27.2744364" lon="151.2900641">
  <ele>346.59</ele>
  <time>2026-09-01T19:55:58Z</time>
  <course>5.63</course>
  <speed>0.43</speed>
  <fix>3d</fix>
</trkpt>
<trkpt lat="-27.2744353" lon="151.2900644">
  <ele>347.48</ele>
  <time>2026-09-01T19:55:58Z</time>
  <course>10.43</course>
  <speed>0.4341658669218482</speed>
  <fix>3d</fix>
</trkpt>
<trkpt lat="-27.2744364" lon="151.2900641">
  <ele>346.59</ele>
  <time>2026-09-01T19:55:58Z</time>
  <course>5.63</course>
  <speed>0.43</speed>
  <fix>3d</fix>
</trkpt>
<trkpt lat="-27.2744349" lon="151.2900644">
  <ele>347.78</ele>
  <time>2026-09-01T19:55:58Z</time>
  <course>10.44</course>
  <speed>0.422965719651132</speed>
  <fix>3d</fix>
</trkpt>
<trkpt lat="-27.2744355" lon="151.2900642">
  <ele>347.22</ele>
  <time>2026-09-01T19:55:58Z</time>
  <course>5.99</course>
  <speed>0.45</speed>
  <fix>3d</fix>
</trkpt>
<trkpt lat="-27.2744345" lon="151.2900644">
  <ele>348.08</ele>
  <time>2026-09-01T19:55:58Z</time>
  <course>10.45</course>
  <speed>0.41303752856126763</speed>
  <fix>3d</fix>
</trkpt>
<trkpt lat="-27.2744355" lon="151.2900642">
  <ele>347.22</ele>
  <time>2026-09-01T19:55:58Z</time>
  <course>5.99</course>
  <speed>0.45</speed>
  <fix>3d</fix>
</trkpt>
<trkpt lat="-27.2744341" lon="151.2900645">
  <ele>348.36</ele>
  <time>2026-09-01T19:55:58Z</time>
  <course>10.47</course>
  <speed>0.40311288741492746</speed>
  <fix>3d</fix>
</trkpt>
<trkpt lat="-27.2744348" lon="151.2900643">
  <ele>347.82</ele>
  <time>2026-09-01T19:55:58Z</time>
  <course>6.39</course>
  <speed>0.44</speed>
  <fix>3d</fix>
</trkpt>
<trkpt lat="-27.2744338" lon="151.2900645">
  <ele>348.64</ele>
  <time>2026-09-01T19:55:58Z</time>
  <course>10.49</course>
  <speed>0.382099463490856</speed>
  <fix>3d</fix>
</trkpt>
<trkpt lat="-27.2744348" lon="151.2900643">
  <ele>347.82</ele>
  <time>2026-09-01T19:55:58Z</time>
  <course>6.39</course>
  <speed>0.44</speed>
  <fix>3d</fix>
</trkpt>
<trkpt lat="-27.2744334" lon="151.2900645">
  <ele>348.91</ele>
  <time>2026-09-01T19:55:58Z</time>
  <course>10.5</course>
  <speed>0.3522782990761707</speed>
  <fix>3d</fix>
</trkpt>
<trkpt lat="-27.274434" lon="151.2900644">
  <ele>348.4</ele>
  <time>2026-09-01T19:55:58Z</time>
  <course>6.89</course>
  <speed>0.42</speed>
  <fix>3d</fix>
</trkpt>
<trkpt lat="-27.2744331" lon="151.2900646">
  <ele>349.17</ele>
  <time>2026-09-01T19:55:58Z</time>
  <course>10.52</course>
  <speed>0.33241540277189324</speed>
  <fix>3d</fix>
</trkpt>
<trkpt lat="-27.274434" lon="151.2900644">
  <ele>348.4</ele>
  <time>2026-09-01T19:55:58Z</time>
  <course>6.89</course>
  <speed>0.42</speed>
  <fix>3d</fix>
</trkpt>
<trkpt lat="-27.2744328" lon="151.2900646">
  <ele>349.43</ele>
  <time>2026-09-01T19:55:58Z</time>
  <course>10.54</course>
  <speed>0.3014962686336267</speed>
  <fix>3d</fix>
</trkpt>
<trkpt lat="-27.2744333" lon="151.2900645">
  <ele>348.94</ele>
  <time>2026-09-01T19:55:58Z</time>
  <course>7.59</course>
  <speed>0.37</speed>
  <fix>3d</fix>
</trkpt>
<trkpt lat="-27.2744325" lon="151.2900646">
  <ele>349.69</ele>
  <time>2026-09-01T19:55:58Z</time>
  <course>10.56</course>
  <speed>0.261725046566048</speed>
  <fix>3d</fix>
</trkpt>
<trkpt lat="-27.2744333" lon="151.2900645">
  <ele>348.94</ele>
  <time>2026-09-01T19:55:58Z</time>
  <course>7.59</course>
  <speed>0.37</speed>
  <fix>3d</fix>
</trkpt>
<trkpt lat="-27.2744323" lon="151.2900646">
  <ele>349.94</ele>
  <time>2026-09-01T19:55:58Z</time>
  <course>10.58</course>
  <speed>0.23194827009486402</speed>
  <fix>3d</fix>
</trkpt>
<trkpt lat="-27.2744327" lon="151.2900646">
  <ele>349.47</ele>
  <time>2026-09-01T19:55:58Z</time>
  <course>8.64</course>
  <speed>0.31</speed>
  <fix>3d</fix>
</trkpt>
<trkpt lat="-27.2744321" lon="151.2900647">
  <ele>350.19</ele>
  <time>2026-09-01T19:55:58Z</time>
  <course>10.6</course>
  <speed>0.191049731745428</speed>
  <fix>3d</fix>
</trkpt>
<trkpt lat="-27.2744327" lon="151.2900646">
  <ele>349.47</ele>
  <time>2026-09-01T19:55:58Z</time>
  <course>8.64</course>
  <speed>0.31</speed>
  <fix>3d</fix>
</trkpt>
<trkpt lat="-27.2744319" lon="151.2900647">
  <ele>350.43</ele>
  <time>2026-09-01T19:55:58Z</time>
  <course>10.62</course>
  <speed>0.16124515496597097</speed>
  <fix>3d</fix>
</trkpt>
<trkpt lat="-27.2744321" lon="151.2900647">
  <ele>349.97</ele>
  <time>2026-09-01T19:55:58Z</time>
  <course>10.27</course>
  <speed>0.25</speed>
  <fix>3d</fix>
</trkpt>
<trkpt lat="-27.2744318" lon="151.2900647">
  <ele>350.68</ele>
  <time>2026-09-01T19:55:58Z</time>
  <course>10.64</course>
  <speed>0.12041594578792296</speed>
  <fix>3d</fix>
</trkpt>
<trkpt lat="-27.2744321" lon="151.2900647">
  <ele>349.97</ele>
  <time>2026-09-01T19:55:58Z</time>
  <course>10.27</course>
  <speed>0.25</speed>
  <fix>3d</fix>
</trkpt>
<trkpt lat="-27.2744316" lon="151.2900647">
  <ele>350.92</ele>
  <time>2026-09-01T19:55:58Z</time>
  <course>10.66</course>
  <speed>0.09055385138137417</speed>
  <fix>3d</fix>
</trkpt>
<trkpt lat="-27.2744317" lon="151.2900648">
  <ele>350.46</ele>
  <time>2026-09-01T19:55:58Z</time>
  <course>13.0</course>
  <speed>0.17</speed>
  <fix>3d</fix>
</trkpt>
<trkpt lat="-27.2744316" lon="151.2900648">
  <ele>351.16</ele>
  <time>2026-09-01T19:55:58Z</time>
  <course>10.69</course>
  <speed>0.05099019513592785</speed>
  <fix>3d</fix>
</trkpt>
<trkpt lat="-27.2744317" lon="151.2900648">
  <ele>350.46</ele>
  <time>2026-09-01T19:55:58Z</time>
  <course>13.0</course>
  <speed>0.17</speed>
  <fix>3d</fix>
</trkpt>
<trkpt lat="-27.2744315" lon="151.2900648">
  <ele>351.41</ele>
  <time>2026-09-01T19:55:58Z</time>
  <course>10.72</course>
  <speed>0.02</speed>
  <fix>3d</fix>
</trkpt>
<trkpt lat="-27.2744315" lon="151.2900649">
  <ele>350.95</ele>
  <time>2026-09-01T19:55:58Z</time>
  <course>18.8</course>
  <speed>0.1</speed>
  <fix>3d</fix>
</trkpt>
<trkpt lat="-27.2744315" lon="151.2900648">
  <ele>351.65</ele>
  <time>2026-09-01T19:55:58Z</time>
  <course>10.75</course>
  <speed>0.0</speed>
  <fix>3d</fix>
</trkpt>
<trkpt lat="-27.2744315" lon="151.2900649">
  <ele>350.95</ele>
  <time>2026-09-01T19:55:58Z</time>
  <course>18.8</course>
  <speed>0.1</speed>
  <fix>3d</fix>
</trkpt>
<trkpt lat="-27.2744315" lon="151.2900648">
  <ele>351.89</ele>
  <time>2026-09-01T19:55:58Z</time>
  <course>10.79</course>
  <speed>0.03</speed>
  <fix>3d</fix>
</trkpt>
<trkpt lat="-27.2744314" lon="151.290065">
  <ele>351.42</ele>
  <time>2026-09-01T19:55:58Z</time>
  <course>39.74</course>
  <speed>0.04</speed>
  <fix>3d</fix>
</trkpt>
<trkpt lat="-27.2744315" lon="151.2900649">
  <ele>352.14</ele>
  <time>2026-09-01T19:55:58Z</time>
  <course>10.84</course>
  <speed>0.06</speed>
  <fix>3d</fix>
</trkpt>
<trkpt lat="-27.2744314" lon="151.290065">
  <ele>351.42</ele>
  <time>2026-09-01T19:55:58Z</time>
  <course>39.74</course>
  <speed>0.04</speed>
  <fix>3d</fix>
</trkpt>
<trkpt lat="-27.2744315" lon="151.2900649">
  <ele>352.38</ele>
  <time>2026-09-01T19:55:58Z</time>
  <course>10.89</course>
  <speed>0.08</speed>
  <fix>3d</fix>
</trkpt>
<trkpt lat="-27.2744314" lon="151.290065">
  <ele>351.9</ele>
  <time>2026-09-01T19:55:58Z</time>
  <course>142.12</course>
  <speed>0.03</speed>
  <fix>3d</fix>
</trkpt>
<trkpt lat="-27.2744316" lon="151.2900649">
  <ele>352.62</ele>
  <time>2026-09-01T19:55:58Z</time>
  <course>10.95</course>
  <speed>0.1004987562112089</speed>
  <fix>3d</fix>
</trkpt>
<trkpt lat="-27.2744314" lon="151.290065">
  <ele>351.9</ele>
  <time>2026-09-01T19:55:58Z</time>
  <course>142.12</course>
  <speed>0.03</speed>
  <fix>3d</fix>
</trkpt>
<trkpt lat="-27.2744317" lon="151.2900649">
  <ele>352.87</ele>
  <time>2026-09-01T19:55:58Z</time>
  <course>11.02</course>
  <speed>0.12041594578792296</speed>
  <fix>3d</fix>
</trkpt>
<trkpt lat="-27.2744315" lon="151.2900651">
  <ele>352.38</ele>
  <time>2026-09-01T19:55:58Z</time>
  <course>171.45</course>
  <speed>0.08</speed>
  <fix>3d</fix>
</trkpt>
<trkpt lat="-27.2744318" lon="151.2900649">
  <ele>353.11</ele>
  <time>2026-09-01T19:55:58Z</time>
  <course>11.09</course>
  <speed>0.1414213562373095</speed>
  <fix>3d</fix>
</trkpt>
<trkpt lat="-27.2744315" lon="151.2900651">
  <ele>352.38</ele>
  <time>2026-09-01T19:55:58Z</time>
  <course>171.45</course>
  <speed>0.08</speed>
  <fix>3d</fix>
</trkpt>
<trkpt lat="-27.2744319" lon="151.2900649">
  <ele>353.36</ele>
  <time>2026-09-01T19:55:58Z</time>
  <course>11.16</course>
  <speed>0.16124515496597097</speed>
  <fix>3d</fix>
</trkpt>
<trkpt lat="-27.2744316" lon="151.2900651">
  <ele>352.87</ele>
  <time>2026-09-01T19:55:58Z</time>
  <course>179.39</course>
  <speed>0.12</speed>
  <fix>3d</fix>
</trkpt>
<trkpt lat="-27.274432" lon="151.2900649">
  <ele>353.6</ele>
  <time>2026-09-01T19:55:58Z</time>
  <course>11.22</course>
  <speed>0.17262676501632068</speed>
  <fix>3d</fix>
</trkpt>
<trkpt lat="-27.2744316" lon="151.2900651">
  <ele>352.87</ele>
  <time>2026-09-01T19:55:58Z</time>
  <course>179.39</course>
  <speed>0.12</speed>
  <fix>3d</fix>
</trkpt>
<trkpt lat="-27.2744322" lon="151.2900649">
  <ele>353.85</ele>
  <time>2026-09-01T19:55:58Z</time>
  <course>11.24</course>
  <speed>0.1824828759089466</speed>
  <fix>3d</fix>
</trkpt>
<trkpt lat="-27.2744318" lon="151.2900651">
  <ele>353.35</ele>
  <time>2026-09-01T19:55:58Z</time>
  <course>183.73</course>
  <speed>0.15</speed>
  <fix>3d</fix>
</trkpt>
<trkpt lat="-27.2744323" lon="151.2900649">
  <ele>354.09</ele>
  <time>2026-09-01T19:55:58Z</time>
  <course>11.2</course>
  <speed>0.191049731745428</speed>
  <fix>3d</fix>
</trkpt>
<trkpt lat="-27.2744318" lon="151.2900651">
  <ele>353.35</ele>
  <time>2026-09-01T19:55:58Z</time>
  <course>183.73</course>
  <speed>0.15</speed>
  <fix>3d</fix>
</trkpt>
<trkpt lat="-27.2744325" lon="151.2900649">
  <ele>354.34</ele>
  <time>2026-09-01T19:55:58Z</time>
  <course>11.12</course>
  <speed>0.20223748416156684</speed>
  <fix>3d</fix>
</trkpt>
<trkpt lat="-27.2744321" lon="151.2900651">
  <ele>353.85</ele>
  <time>2026-09-01T19:55:58Z</time>
  <course>185.66</course>
  <speed>0.18</speed>
  <fix>3d</fix>
</trkpt>
<trkpt lat="-27.2744327" lon="151.2900649">
  <ele>354.58</ele>
  <time>2026-09-01T19:55:58Z</time>
  <course>11.04</course>
  <speed>0.2109502310972899</speed>
  <fix>3d</fix>
</trkpt>
<trkpt lat="-27.2744321" lon="151.2900651">
  <ele>353.85</ele>
  <time>2026-09-01T19:55:58Z</time>
  <course>185.66</course>
  <speed>0.18</speed>
  <fix>3d</fix>
</trkpt>
<trkpt lat="-27.2744329" lon="151.2900649">
  <ele>354.83</ele>
  <time>2026-09-01T19:55:58Z</time>
  <course>10.97</course>
  <speed>0.2109502310972899</speed>
  <fix>3d</fix>
</trkpt>
<trkpt lat="-27.2744324" lon="151.2900651">
  <ele>354.34</ele>
  <time>2026-09-01T19:55:58Z</time>
  <course>185.94</course>
  <speed>0.2</speed>
  <fix>3d</fix>
</trkpt>
<trkpt lat="-27.274433" lon="151.2900649">
  <ele>355.08</ele>
  <time>2026-09-01T19:55:58Z</time>
  <course>10.94</course>
  <speed>0.22090722034374521</speed>
  <fix>3d</fix>
</trkpt>
<trkpt lat="-27.2744324" lon="151.2900651">
  <ele>354.34</ele>
  <time>2026-09-01T19:55:58Z</time>
  <course>185.94</course>
  <speed>0.2</speed>
  <fix>3d</fix>
</trkpt>
<trkpt lat="-27.2744332" lon="151.2900649">
  <ele>355.33</ele>
  <time>2026-09-01T19:55:58Z</time>
  <course>10.91</course>
  <speed>0.22022715545545238</speed>
  <fix>3d</fix>
</trkpt>
<trkpt lat="-27.2744329" lon="151.290065">
  <ele>354.84</ele>
  <time>2026-09-01T19:55:58Z</time>
  <course>186.3</course>
  <speed>0.21</speed>
  <fix>3d</fix>
</trkpt>
<trkpt lat="-27.2744334" lon="151.2900649">
  <ele>355.58</ele>
  <time>2026-09-01T19:55:58Z</time>
  <course>10.89</course>
  <speed>0.22022715545545238</speed>
  <fix>3d</fix>
</trkpt>
<trkpt lat="-27.2744329" lon="151.290065">
  <ele>354.84</ele>
  <time>2026-09-01T19:55:58Z</time>
  <course>186.3</course>
  <speed>0.21</speed>
  <fix>3d</fix>
</trkpt>
<trkpt lat="-27.2744336" lon="151.2900649">
  <ele>355.83</ele>
  <time>2026-09-01T19:55:58Z</time>
  <course>10.87</course>
  <speed>0.2308679276123039</speed>
  <fix>3d</fix>
</trkpt>
<trkpt lat="-27.2744333" lon="151.290065">
  <ele>355.34</ele>
  <time>2026-09-01T19:55:58Z</time>
  <course>187.04</course>
  <speed>0.22</speed>
  <fix>3d</fix>
</trkpt>
<trkpt lat="-27.2744338" lon="151.2900649">
  <ele>356.09</ele>
  <time>2026-09-01T19:55:58Z</time>
  <course>10.84</course>
  <speed>0.22561028345356957</speed>
  <fix>3d</fix>
</trkpt>
<trkpt lat="-27.2744333" lon="151.290065">
  <ele>355.34</ele>
  <time>2026-09-01T19:55:58Z</time>
  <course>187.04</course>
  <speed>0.22</speed>
  <fix>3d</fix>
</trkpt>
<trkpt lat="-27.274434" lon="151.2900649">
  <ele>356.34</ele>
  <time>2026-09-01T19:55:58Z</time>
  <course>10.76</course>
  <speed>0.22090722034374521</speed>
  <fix>3d</fix>
</trkpt>
<trkpt lat="-27.2744336" lon="151.2900649">
  <ele>355.85</ele>
  <time>2026-09-01T19:55:58Z</time>
  <course>187.51</course>
  <speed>0.23</speed>
  <fix>3d</fix>
</trkpt>
<trkpt lat="-27.2744342" lon="151.2900648">
  <ele>356.6</ele>
  <time>2026-09-01T19:55:58Z</time>
  <course>10.68</course>
  <speed>0.23021728866442676</speed>
  <fix>3d</fix>
</trkpt>
<trkpt lat="-27.2744336" lon="151.2900649">
  <ele>355.85</ele>
  <time>2026-09-01T19:55:58Z</time>
  <course>187.51</course>
  <speed>0.23</speed>
  <fix>3d</fix>
</trkpt>
<trkpt lat="-27.2744344" lon="151.2900648">
  <ele>356.86</ele>
  <time>2026-09-01T19:55:58Z</time>
  <course>10.67</course>
  <speed>0.22</speed>
  <fix>3d</fix>
</trkpt>
<trkpt lat="-27.2744341" lon="151.2900649">
  <ele>356.35</ele>
  <time>2026-09-01T19:55:58Z</time>
  <course>187.3</course>
  <speed>0.23</speed>
  <fix>3d</fix>
</trkpt>
<trkpt lat="-27.2744346" lon="151.2900648">
  <ele>357.11</ele>
  <time>2026-09-01T19:55:58Z</time>
  <course>10.7</course>
  <speed>0.22</speed>
  <fix>3d</fix>
</trkpt>
<trkpt lat="-27.2744341" lon="151.2900649">
  <ele>356.35</ele>
  <time>2026-09-01T19:55:58Z</time>
  <course>187.3</course>
  <speed>0.23</speed>
  <fix>3d</fix>
</trkpt>
<trkpt lat="-27.2744348" lon="151.2900648">
  <ele>357.37</ele>
  <time>2026-09-01T19:55:58Z</time>
  <course>10.73</course>
  <speed>0.22090722034374521</speed>
  <fix>3d</fix>
</trkpt>
<trkpt lat="-27.2744345" lon="151.2900648">
  <ele>356.86</ele>
  <time>2026-09-01T19:55:58Z</time>
  <course>187.65</course>
  <speed>0.22</speed>
  <fix>3d</fix>
</trkpt>
<trkpt lat="-27.274435" lon="151.2900648">
  <ele>357.62</ele>
  <time>2026-09-01T19:55:58Z</time>
  <course>10.71</course>
  <speed>0.21377558326431947</speed>
  <fix>3d</fix>
</trkpt>
<trkpt lat="-27.2744345" lon="151.2900648">
  <ele>356.86</ele>
  <time>2026-09-01T19:55:58Z</time>
  <course>187.65</course>
  <speed>0.22</speed>
  <fix>3d</fix>
</trkpt>
<trkpt lat="-27.2744352" lon="151.2900647">
  <ele>357.88</ele>
  <time>2026-09-01T19:55:58Z</time>
  <course>10.63</course>
  <speed>0.21213203435596426</speed>
  <fix>3d</fix>
</trkpt>
<trkpt lat="-27.2744349" lon="151.2900647">
  <ele>357.36</ele>
  <time>2026-09-01T19:55:58Z</time>
  <course>188.4</course>
  <speed>0.22</speed>
  <fix>3d</fix>
</trkpt>
<trkpt lat="-27.2744354" lon="151.2900647">
  <ele>358.13</ele>
  <time>2026-09-01T19:55:58Z</time>
  <course>10.54</course>
  <speed>0.21213203435596426</speed>
  <fix>3d</fix>
</trkpt>
<trkpt lat="-27.2744349" lon="151.2900647">
  <ele>357.36</ele>
  <time>2026-09-01T19:55:58Z</time>
  <course>188.4</course>
  <speed>0.22</speed>
  <fix>3d</fix>
</trkpt>
<trkpt lat="-27.2744356" lon="151.2900646">
  <ele>358.38</ele>
  <time>2026-09-01T19:55:58Z</time>
  <course>10.49</course>
  <speed>0.21213203435596426</speed>
  <fix>3d</fix>
</trkpt>
<trkpt lat="-27.2744353" lon="151.2900646">
  <ele>357.87</ele>
  <time>2026-09-01T19:55:58Z</time>
  <course>187.87</course>
  <speed>0.21</speed>
  <fix>3d</fix>
</trkpt>
<trkpt lat="-27.2744358" lon="151.2900646">
  <ele>358.63</ele>
  <time>2026-09-01T19:55:58Z</time>
  <course>10.51</course>
  <speed>0.2109502310972899</speed>
  <fix>3d</fix>
</trkpt>
<trkpt lat="-27.2744353" lon="151.2900646">
  <ele>357.87</ele>
  <time>2026-09-01T19:55:58Z</time>
  <course>187.87</course>
  <speed>0.21</speed>
  <fix>3d</fix>
</trkpt>
<trkpt lat="-27.274436" lon="151.2900646">
  <ele>358.88</ele>
  <time>2026-09-01T19:55:58Z</time>
  <course>10.55</course>
  <speed>0.20223748416156684</speed>
  <fix>3d</fix>
</trkpt>
<trkpt lat="-27.2744357" lon="151.2900646">
  <ele>358.37</ele>
  <time>2026-09-01T19:55:58Z</time>
  <course>187.43</course>
  <speed>0.21</speed>
  <fix>3d</fix>
</trkpt>
<trkpt lat="-27.2744362" lon="151.2900645">
  <ele>359.13</ele>
  <time>2026-09-01T19:55:58Z</time>
  <course>10.59</course>
  <speed>0.2009975124224178</speed>
  <fix>3d</fix>
</trkpt>
<trkpt lat="-27.2744357" lon="151.2900646">
  <ele>358.37</ele>
  <time>2026-09-01T19:55:58Z</time>
  <course>187.43</course>
  <speed>0.21</speed>
  <fix>3d</fix>
</trkpt>
<trkpt lat="-27.2744363" lon="151.2900645">
  <ele>359.38</ele>
  <time>2026-09-01T19:55:58Z</time>
  <course>10.62</course>
  <speed>0.2009975124224178</speed>
  <fix>3d</fix>
</trkpt>
<trkpt lat="-27.2744361" lon="151.2900646">
  <ele>358.87</ele>
  <time>2026-09-01T19:55:58Z</time>
  <course>187.7</course>
  <speed>0.2</speed>
  <fix>3d</fix>
</trkpt>
<trkpt lat="-27.2744365" lon="151.2900645">
  <ele>359.63</ele>
  <time>2026-09-01T19:55:58Z</time>
  <course>10.63</course>
  <speed>0.19026297590440447</speed>
  <fix>3d</fix>
</trkpt>
<trkpt lat="-27.2744361" lon="151.2900646">
  <ele>358.87</ele>
  <time>2026-09-01T19:55:58Z</time>
  <course>187.7</course>
  <speed>0.2</speed>
  <fix>3d</fix>
</trkpt>
<trkpt lat="-27.2744367" lon="151.2900645">
  <ele>359.88</ele>
  <time>2026-09-01T19:55:58Z</time>
  <course>10.65</course>
  <speed>0.191049731745428</speed>
  <fix>3d</fix>
</trkpt>
<trkpt lat="-27.2744364" lon="151.2900645">
  <ele>359.36</ele>
  <time>2026-09-01T19:55:58Z</time>
  <course>187.89</course>
  <speed>0.19</speed>
  <fix>3d</fix>
</trkpt>
<trkpt lat="-27.2744369" lon="151.2900645">
  <ele>360.13</ele>
  <time>2026-09-01T19:55:58Z</time>
  <course>10.65</course>
  <speed>0.18439088914585774</speed>
  <fix>3d</fix>
</trkpt>
<trkpt lat="-27.2744364" lon="151.2900645">
  <ele>359.36</ele>
  <time>2026-09-01T19:55:58Z</time>
  <course>187.89</course>
  <speed>0.19</speed>
  <fix>3d</fix>
</trkpt>
<trkpt lat="-27.274437" lon="151.2900644">
  <ele>360.38</ele>
  <time>2026-09-01T19:55:58Z</time>
  <course>10.6</course>
  <speed>0.1824828759089466</speed>
  <fix>3d</fix>
</trkpt>
<trkpt lat="-27.2744367" lon="151.2900645">
  <ele>359.86</ele>
  <time>2026-09-01T19:55:58Z</time>
  <course>188.09</course>
  <speed>0.18</speed>
  <fix>3d</fix>
</trkpt>
<trkpt lat="-27.2744372" lon="151.2900644">
  <ele>360.63</ele>
  <time>2026-09-01T19:55:58Z</time>
  <course>10.53</course>
  <speed>0.17262676501632068</speed>
  <fix>3d</fix>
</trkpt>
<trkpt lat="-27.2744367" lon="151.2900645">
  <ele>359.86</ele>
  <time>2026-09-01T19:55:58Z</time>
  <course>188.09</course>
  <speed>0.18</speed>
  <fix>3d</fix>
</trkpt>
<trkpt lat="-27.2744373" lon="151.2900644">
  <ele>360.88</ele>
  <time>2026-09-01T19:55:58Z</time>
  <course>10.49</course>
  <speed>0.1711724276862369</speed>
  <fix>3d</fix>
</trkpt>
<trkpt lat="-27.2744371" lon="151.2900644">
  <ele>360.36</ele>
  <time>2026-09-01T19:55:58Z</time>
  <course>187.48</course>
  <speed>0.17</speed>
  <fix>3d</fix>
</trkpt>
<trkpt lat="-27.2744375" lon="151.2900643">
  <ele>361.13</ele>
  <time>2026-09-01T19:55:58Z</time>
  <course>10.5</course>
  <speed>0.16278820596099705</speed>
  <fix>3d</fix>
</trkpt>
<trkpt lat="-27.2744371" lon="151.2900644">
  <ele>360.36</ele>
  <time>2026-09-01T19:55:58Z</time>
  <course>187.48</course>
  <speed>0.17</speed>
  <fix>3d</fix>
</trkpt>
<trkpt lat="-27.2744376" lon="151.2900643">
  <ele>361.38</ele>
  <time>2026-09-01T19:55:58Z</time>
  <course>10.56</course>
  <speed>0.16278820596099705</speed>
  <fix>3d</fix>
</trkpt>
<trkpt lat="-27.2744374" lon="151.2900644">
  <ele>360.85</ele>
  <time>2026-09-01T19:55:58Z</time>
  <course>186.85</course>
  <speed>0.16</speed>
  <fix>3d</fix>
</trkpt>
<trkpt lat="-27.2744378" lon="151.2900643">
  <ele>361.63</ele>
  <time>2026-09-01T19:55:58Z</time>
  <course>10.6</course>
  <speed>0.15033296378372907</speed>
  <fix>3d</fix>
</trkpt>
<trkpt lat="-27.2744374" lon="151.2900644">
  <ele>360.85</ele>
  <time>2026-09-01T19:55:58Z</time>
  <course>186.85</course>
  <speed>0.16</speed>
  <fix>3d</fix>
</trkpt>
<trkpt lat="-27.2744379" lon="151.2900643">
  <ele>361.89</ele>
  <time>2026-09-01T19:55:58Z</time>
  <course>10.65</course>
  <speed>0.15</speed>
  <fix>3d</fix>
</trkpt>
<trkpt lat="-27.2744377" lon="151.2900643">
  <ele>361.35</ele>
  <time>2026-09-01T19:55:58Z</time>
  <course>187.15</course>
  <speed>0.15</speed>
  <fix>3d</fix>
</trkpt>
<trkpt lat="-27.274438" lon="151.2900643">
  <ele>362.14</ele>
  <time>2026-09-01T19:55:58Z</time>
  <course>10.71</course>
  <speed>0.15</speed>
  <fix>3d</fix>
</trkpt>
<trkpt lat="-27.2744377" lon="151.2900643">
  <ele>361.35</ele>
  <time>2026-09-01T19:55:58Z</time>
  <course>187.15</course>
  <speed>0.15</speed>
  <fix>3d</fix>
</trkpt>
<trkpt lat="-27.2744382" lon="151.2900643">
  <ele>362.39</ele>
  <time>2026-09-01T19:55:58Z</time>
  <course>10.72</course>
  <speed>0.14</speed>
  <fix>3d</fix>
</trkpt>
<trkpt lat="-27.2744379" lon="151.2900642">
  <ele>361.84</ele>
  <time>2026-09-01T19:55:58Z</time>
  <course>188.37</course>
  <speed>0.14</speed>
  <fix>3d</fix>
</trkpt>
<trkpt lat="-27.2744383" lon="151.2900643">
  <ele>362.64</ele>
  <time>2026-09-01T19:55:58Z</time>
  <course>10.67</course>
  <speed>0.14</speed>
  <fix>3d</fix>
</trkpt>
<trkpt lat="-27.2744379" lon="151.2900642">
  <ele>361.84</ele>
  <time>2026-09-01T19:55:58Z</time>
  <course>188.37</course>
  <speed>0.14</speed>
  <fix>3d</fix>
</trkpt>
<trkpt lat="-27.2744384" lon="151.2900643">
  <ele>362.89</ele>
  <time>2026-09-01T19:55:58Z</time>
  <course>10.6</course>
  <speed>0.13</speed>
  <fix>3d</fix>
</trkpt>
<trkpt lat="-27.2744382" lon="151.2900642">
  <ele>362.34</ele>
  <time>2026-09-01T19:55:58Z</time>
  <course>190.22</course>
  <speed>0.12</speed>
  <fix>3d</fix>
</trkpt>
<trkpt lat="-27.2744385" lon="151.2900643">
  <ele>363.14</ele>
  <time>2026-09-01T19:55:58Z</time>
  <course>10.51</course>
  <speed>0.13</speed>
  <fix>3d</fix>
</trkpt>
<trkpt lat="-27.2744382" lon="151.2900642">
  <ele>362.34</ele>
  <time>2026-09-01T19:55:58Z</time>
  <course>190.22</course>
  <speed>0.12</speed>
  <fix>3d</fix>
</trkpt>
<trkpt lat="-27.2744386" lon="151.2900643">
  <ele>363.39</ele>
  <time>2026-09-01T19:55:58Z</time>
  <course>10.39</course>
  <speed>0.11045361017187261</speed>
  <fix>3d</fix>
</trkpt>
<trkpt lat="-27.2744384" lon="151.2900642">
  <ele>362.83</ele>
  <time>2026-09-01T19:55:58Z</time>
  <course>191.76</course>
  <speed>0.11</speed>
  <fix>3d</fix>
</trkpt>
<trkpt lat="-27.2744387" lon="151.2900643">
  <ele>363.63</ele>
  <time>2026-09-01T19:55:58Z</time>
  <course>10.28</course>
  <speed>0.044721359549995794</speed>
  <fix>3d</fix>
</trkpt>
<trkpt lat="-27.2744384" lon="151.2900642">
  <ele>362.83</ele>
  <time>2026-09-01T19:55:58Z</time>
  <course>191.76</course>
  <speed>0.11</speed>
  <fix>3d</fix>
</trkpt>
<trkpt lat="-27.2744387" lon="151.2900643">
  <ele>363.88</ele>
  <time>2026-09-01T19:55:58Z</time>
  <course>10.16</course>
  <speed>0.08062257748298549</speed>
  <fix>3d</fix>
</trkpt>
<trkpt lat="-27.2744385" lon="151.2900642">
  <ele>363.33</ele>
  <time>2026-09-01T19:55:58Z</time>
  <course>196.49</course>
  <speed>0.07</speed>
  <fix>3d</fix>
</trkpt>
<trkpt lat="-27.2744385" lon="151.2900643">
  <ele>364.13</ele>
  <time>2026-09-01T19:55:58Z</time>
  <course>10.11</course>
  <speed>0.2596150997149434</speed>
  <fix>3d</fix>
</trkpt>
<trkpt lat="-27.2744385" lon="151.2900642">
  <ele>363.33</ele>
  <time>2026-09-01T19:55:58Z</time>
  <course>196.49</course>
  <speed>0.07</speed>
  <fix>3d</fix>
</trkpt>
<trkpt lat="-27.2744381" lon="151.2900643">
  <ele>364.39</ele>
  <time>2026-09-01T19:55:58Z</time>
  <course>10.01</course>
  <speed>0.4903060268852505</speed>
  <fix>3d</fix>
</trkpt>
<trkpt lat="-27.2744385" lon="151.2900642">
  <ele>363.83</ele>
  <time>2026-09-01T19:55:58Z</time>
  <course>0.41</course>
  <speed>0.12</speed>
  <fix>3d</fix>
</trkpt>
<trkpt lat="-27.2744377" lon="151.2900644">
  <ele>364.64</ele>
  <time>2026-09-01T19:55:58Z</time>
  <course>9.9</course>
  <speed>0.7942921376924236</speed>
  <fix>3d</fix>
</trkpt>
<trkpt lat="-27.2744385" lon="151.2900642">
  <ele>363.83</ele>
  <time>2026-09-01T19:55:58Z</time>
  <course>0.41</course>
  <speed>0.12</speed>
  <fix>3d</fix>
</trkpt>
<trkpt lat="-27.2744368" lon="151.2900646">
  <ele>364.9</ele>
  <time>2026-09-01T19:55:58Z</time>
  <course>9.72</course>
  <speed>1.1493476410555685</speed>
  <fix>3d</fix>
</trkpt>
<trkpt lat="-27.2744381" lon="151.2900642">
  <ele>364.33</ele>
  <time>2026-09-01T19:55:58Z</time>
  <course>5.18</course>
  <speed>0.53</speed>
  <fix>3d</fix>
</trkpt>
<trkpt lat="-27.2744356" lon="151.2900648">
  <ele>365.15</ele>
  <time>2026-09-01T19:55:58Z</time>
  <course>9.45</course>
  <speed>1.5831929762350514</speed>
  <fix>3d</fix>
</trkpt>
<trkpt lat="-27.2744381" lon="151.2900642">
  <ele>364.33</ele>
  <time>2026-09-01T19:55:58Z</time>
  <course>5.18</course>
  <speed>0.53</speed>
  <fix>3d</fix>
</trkpt>
<trkpt lat="-27.274434" lon="151.290065">
  <ele>365.41</ele>
  <time>2026-09-01T19:55:58Z</time>
  <course>8.99</course>
  <speed>2.066518811915343</speed>
  <fix>3d</fix>
</trkpt>
<trkpt lat="-27.2744366" lon="151.2900642">
  <ele>364.84</ele>
  <time>2026-09-01T19:55:58Z</time>
  <course>5.96</course>
  <speed>1.19</speed>
  <fix>3d</fix>
</trkpt>
<trkpt lat="-27.2744319" lon="151.2900654">
  <ele>365.66</ele>
  <time>2026-09-01T19:55:58Z</time>
  <course>8.59</course>
  <speed>2.62070601174569</speed>
  <fix>3d</fix>
</trkpt>
<trkpt lat="-27.2744366" lon="151.2900642">
  <ele>364.84</ele>
  <time>2026-09-01T19:55:58Z</time>
  <course>5.96</course>
  <speed>1.19</speed>
  <fix>3d</fix>
</trkpt>
<trkpt lat="-27.2744293" lon="151.2900657">
  <ele>365.92</ele>
  <time>2026-09-01T19:55:58Z</time>
  <course>8.03</course>
  <speed>3.2328934408668655</speed>
  <fix>3d</fix>
</trkpt>
<trkpt lat="-27.2744337" lon="151.2900646">
  <ele>365.35</ele>
  <time>2026-09-01T19:55:58Z</time>
  <course>6.16</course>
  <speed>2.1</speed>
  <fix>3d</fix>
</trkpt>
<trkpt lat="-27.2744261" lon="151.2900661">
  <ele>366.17</ele>
  <time>2026-09-01T19:55:58Z</time>
  <course>7.49</course>
  <speed>3.873719143149126</speed>
  <fix>3d</fix>
</trkpt>
<trkpt lat="-27.2744337" lon="151.2900646">
  <ele>365.35</ele>
  <time>2026-09-01T19:55:58Z</time>
  <course>6.16</course>
  <speed>2.1</speed>
  <fix>3d</fix>
</trkpt>
<trkpt lat="-27.2744223" lon="151.2900665">
  <ele>366.42</ele>
  <time>2026-09-01T19:55:58Z</time>
  <course>6.77</course>
  <speed>4.532284192325102</speed>
  <fix>3d</fix>
</trkpt>
<trkpt lat="-27.274429" lon="151.2900651">
  <ele>365.86</ele>
  <time>2026-09-01T19:55:58Z</time>
  <course>6.0</course>
  <speed>3.25</speed>
  <fix>3d</fix>
</trkpt>
<trkpt lat="-27.274418" lon="151.2900669">
  <ele>366.65</ele>
  <time>2026-09-01T19:55:58Z</time>
  <course>6.17</course>
  <speed>5.221206757062969</speed>
  <fix>3d</fix>
</trkpt>
<trkpt lat="-27.274429" lon="151.2900651">
  <ele>365.86</ele>
  <time>2026-09-01T19:55:58Z</time>
  <course>6.0</course>
  <speed>3.25</speed>
  <fix>3d</fix>
</trkpt>
<trkpt lat="-27.2744131" lon="151.2900674">
  <ele>366.87</ele>
  <time>2026-09-01T19:55:58Z</time>
  <course>5.61</course>
  <speed>5.899576255969577</speed>
  <fix>3d</fix>
</trkpt>
<trkpt lat="-27.274422" lon="151.2900659">
  <ele>366.34</ele>
  <time>2026-09-01T19:55:58Z</time>
  <course>5.55</course>
  <speed>4.54</speed>
  <fix>3d</fix>
</trkpt>
<trkpt lat="-27.2744075" lon="151.2900679">
  <ele>367.08</ele>
  <time>2026-09-01T19:55:58Z</time>
  <course>5.04</course>
  <speed>6.566559220779174</speed>
  <fix>3d</fix>
</trkpt>
<trkpt lat="-27.274422" lon="151.2900659">
  <ele>366.34</ele>
  <time>2026-09-01T19:55:58Z</time>
  <course>5.55</course>
  <speed>4.54</speed>
  <fix>3d</fix>
</trkpt>
<trkpt lat="-27.2744014" lon="151.2900683">
  <ele>367.29</ele>
  <time>2026-09-01T19:55:58Z</time>
  <course>4.56</course>
  <speed>7.202589812005124</speed>
  <fix>3d</fix>
</trkpt>
<trkpt lat="-27.2744126" lon="151.2900669">
  <ele>366.8</ele>
  <time>2026-09-01T19:55:58Z</time>
  <course>4.92</course>
  <speed>5.89</speed>
  <fix>3d</fix>
</trkpt>
<trkpt lat="-27.2743947" lon="151.2900688">
  <ele>367.5</ele>
  <time>2026-09-01T19:55:58Z</time>
  <course>4.14</course>
  <speed>7.837939780324929</speed>
  <fix>3d</fix>
</trkpt>
<trkpt lat="-27.2744126" lon="151.2900669">
  <ele>366.8</ele>
  <time>2026-09-01T19:55:58Z</time>
  <course>4.92</course>
  <speed>5.89</speed>
  <fix>3d</fix>
</trkpt>
<trkpt lat="-27.2743874" lon="151.2900692">
  <ele>367.71</ele>
  <time>2026-09-01T19:55:58Z</time>
  <course>3.62</course>
  <speed>8.453638269999493</speed>
  <fix>3d</fix>
</trkpt>
<trkpt lat="-27.2744009" lon="151.290068">
  <ele>367.22</ele>
  <time>2026-09-01T19:55:58Z</time>
  <course>4.14</course>
  <speed>7.21</speed>
  <fix>3d</fix>
</trkpt>
<trkpt lat="-27.2743796" lon="151.2900695">
  <ele>367.92</ele>
  <time>2026-09-01T19:55:58Z</time>
  <course>3.15</course>
  <speed>9.049292790047186</speed>
  <fix>3d</fix>
</trkpt>
<trkpt lat="-27.2744009" lon="151.290068">
  <ele>367.22</ele>
  <time>2026-09-01T19:55:58Z</time>
  <course>4.14</course>
  <speed>7.21</speed>
  <fix>3d</fix>
</trkpt>
<trkpt lat="-27.2743713" lon="151.2900699">
  <ele>368.14</ele>
  <time>2026-09-01T19:55:58Z</time>
  <course>2.69</course>
  <speed>9.645993987143056</speed>
  <fix>3d</fix>
</trkpt>
<trkpt lat="-27.2743869" lon="151.290069">
  <ele>367.64</ele>
  <time>2026-09-01T19:55:58Z</time>
  <course>3.14</course>
  <speed>8.46</speed>
  <fix>3d</fix>
</trkpt>
<trkpt lat="-27.2743624" lon="151.2900701">
  <ele>368.37</ele>
  <time>2026-09-01T19:55:58Z</time>
  <course>2.19</course>
  <speed>10.222817615510902</speed>
  <fix>3d</fix>
</trkpt>
<trkpt lat="-27.2743869" lon="151.290069">
  <ele>367.64</ele>
  <time>2026-09-01T19:55:58Z</time>
  <course>3.14</course>
  <speed>8.46</speed>
  <fix>3d</fix>
</trkpt>
<trkpt lat="-27.274353" lon="151.2900703">
  <ele>368.61</ele>
  <time>2026-09-01T19:55:58Z</time>
  <course>1.51</course>
  <speed>10.800782379068657</speed>
  <fix>3d</fix>
</trkpt>
<trkpt lat="-27.2743705" lon="151.2900698">
  <ele>368.07</ele>
  <time>2026-09-01T19:55:58Z</time>
  <course>1.97</course>
  <speed>9.67</speed>
  <fix>3d</fix>
</trkpt>
<trkpt lat="-27.2743431" lon="151.2900703">
  <ele>368.84</ele>
  <time>2026-09-01T19:55:58Z</time>
  <course>0.87</course>
  <speed>11.360004401407599</speed>
  <fix>3d</fix>
</trkpt>
<trkpt lat="-27.2743705" lon="151.2900698">
  <ele>368.07</ele>
  <time>2026-09-01T19:55:58Z</time>
  <course>1.97</course>
  <speed>9.67</speed>
  <fix>3d</fix>
</trkpt>
<trkpt lat="-27.2743327" lon="151.2900703">
  <ele>369.08</ele>
  <time>2026-09-01T19:55:58Z</time>
  <course>0.36</course>
  <speed>11.91060451866319</speed>
  <fix>3d</fix>
</trkpt>
<trkpt lat="-27.274352" lon="151.2900703">
  <ele>368.52</ele>
  <time>2026-09-01T19:55:58Z</time>
  <course>0.72</course>
  <speed>10.84</speed>
  <fix>3d</fix>
</trkpt>
<trkpt lat="-27.2743217" lon="151.29007">
  <ele>369.32</ele>
  <time>2026-09-01T19:55:58Z</time>
  <course>359.86</course>
  <speed>12.442716745148546</speed>
  <fix>3d</fix>
</trkpt>
<trkpt lat="-27.274352" lon="151.2900703">
  <ele>368.52</ele>
  <time>2026-09-01T19:55:58Z</time>
  <course>0.72</course>
  <speed>10.84</speed>
  <fix>3d</fix>
</trkpt>
<trkpt lat="-27.2743104" lon="151.2900697">
  <ele>369.55</ele>
  <time>2026-09-01T19:55:58Z</time>
  <course>359.19</course>
  <speed>12.976478721132324</speed>
  <fix>3d</fix>
</trkpt>
<trkpt lat="-27.2743315" lon="151.2900703">
  <ele>368.99</ele>
  <time>2026-09-01T19:55:58Z</time>
  <course>359.45</course>
  <speed>11.96</speed>
  <fix>3d</fix>
</trkpt>
<trkpt lat="-27.2742985" lon="151.2900693">
  <ele>369.77</ele>
  <time>2026-09-01T19:55:58Z</time>
  <course>358.68</course>
  <speed>13.512027975104257</speed>
  <fix>3d</fix>
</trkpt>
<trkpt lat="-27.2743315" lon="151.2900703">
  <ele>368.99</ele>
  <time>2026-09-01T19:55:58Z</time>
  <course>359.45</course>
  <speed>11.96</speed>
  <fix>3d</fix>
</trkpt>
<trkpt lat="-27.2742862" lon="151.2900687">
  <ele>369.97</ele>
  <time>2026-09-01T19:55:58Z</time>
  <course>358.31</course>
  <speed>14.0284888708656</speed>
  <fix>3d</fix>
</trkpt>
<trkpt lat="-27.274309" lon="151.2900698">
  <ele>369.45</ele>
  <time>2026-09-01T19:55:58Z</time>
  <course>358.23</course>
  <speed>13.05</speed>
  <fix>3d</fix>
</trkpt>
<trkpt lat="-27.2742734" lon="151.2900679">
  <ele>370.15</ele>
  <time>2026-09-01T19:55:58Z</time>
  <course>357.79</course>
  <speed>14.546642224238555</speed>
  <fix>3d</fix>
</trkpt>
<trkpt lat="-27.274309" lon="151.2900698">
  <ele>369.45</ele>
  <time>2026-09-01T19:55:58Z</time>
  <course>358.23</course>
  <speed>13.05</speed>
  <fix>3d</fix>
</trkpt>
<trkpt lat="-27.2742601" lon="151.290067">
  <ele>370.31</ele>
  <time>2026-09-01T19:55:58Z</time>
  <course>357.36</course>
  <speed>15.055274823130928</speed>
  <fix>3d</fix>
</trkpt>
<trkpt lat="-27.2742847" lon="151.2900687">
  <ele>369.86</ele>
  <time>2026-09-01T19:55:58Z</time>
  <course>357.11</course>
  <speed>14.1</speed>
  <fix>3d</fix>
</trkpt>
<trkpt lat="-27.2742464" lon="151.2900659">
  <ele>370.44</ele>
  <time>2026-09-01T19:55:58Z</time>
  <course>356.97</course>
  <speed>15.546382215808281</speed>
  <fix>3d</fix>
</trkpt>
<trkpt lat="-27.2742847" lon="151.2900687">
  <ele>369.86</ele>
  <time>2026-09-01T19:55:58Z</time>
  <course>357.11</course>
  <speed>14.1</speed>
  <fix>3d</fix>
</trkpt>
<trkpt lat="-27.2742323" lon="151.2900646">
  <ele>370.54</ele>
  <time>2026-09-01T19:55:58Z</time>
  <course>356.61</course>
  <speed>16.00787618642773</speed>
  <fix>3d</fix>
</trkpt>
<trkpt lat="-27.2742585" lon="151.290067">
  <ele>370.19</ele>
  <time>2026-09-01T19:55:58Z</time>
  <course>356.1</course>
  <speed>15.13</speed>
  <fix>3d</fix>
</trkpt>
<trkpt lat="-27.2742177" lon="151.2900632">
  <ele>370.63</ele>
  <time>2026-09-01T19:55:58Z</time>
  <course>356.17</course>
  <speed>16.440416661386656</speed>
  <fix>3d</fix>
</trkpt>
<trkpt lat="-27.2742585" lon="151.290067">
  <ele>370.19</ele>
  <time>2026-09-01T19:55:58Z</time>
  <course>356.1</course>
  <speed>15.13</speed>
  <fix>3d</fix>
</trkpt>
<trkpt lat="-27.2742028" lon="151.2900616">
  <ele>370.69</ele>
  <time>2026-09-01T19:55:58Z</time>
  <course>355.71</course>
  <speed>16.855945538592607</speed>
  <fix>3d</fix>
</trkpt>
<trkpt lat="-27.2742305" lon="151.2900646">
  <ele>370.43</ele>
  <time>2026-09-01T19:55:58Z</time>
  <course>355.16</course>
  <speed>16.08</speed>
  <fix>3d</fix>
</trkpt>
<trkpt lat="-27.2741876" lon="151.2900598">
  <ele>370.73</ele>
  <time>2026-09-01T19:55:58Z</time>
  <course>355.23</course>
  <speed>17.272617057064632</speed>
  <fix>3d</fix>
</trkpt>
<trkpt lat="-27.2742305" lon="151.2900646">
  <ele>370.43</ele>
  <time>2026-09-01T19:55:58Z</time>
  <course>355.16</course>
  <speed>16.08</speed>
  <fix>3d</fix>
</trkpt>
<trkpt lat="-27.274172" lon="151.2900578">
  <ele>370.75</ele>
  <time>2026-09-01T19:55:58Z</time>
  <course>354.65</course>
  <speed>17.661724151395866</speed>
  <fix>3d</fix>
</trkpt>
<trkpt lat="-27.2742009" lon="151.2900615">
  <ele>370.58</ele>
  <time>2026-09-01T19:55:58Z</time>
  <course>354.24</course>
  <speed>16.95</speed>
  <fix>3d</fix>
</trkpt>
<trkpt lat="-27.2741561" lon="151.2900557">
  <ele>370.76</ele>
  <time>2026-09-01T19:55:58Z</time>
  <course>354.14</course>
  <speed>18.032185114400306</speed>
  <fix>3d</fix>
</trkpt>
<trkpt lat="-27.2742009" lon="151.2900615">
  <ele>370.58</ele>
  <time>2026-09-01T19:55:58Z</time>
  <course>354.24</course>
  <speed>16.95</speed>
  <fix>3d</fix>
</trkpt>
<trkpt lat="-27.2741399" lon="151.2900533">
  <ele>370.75</ele>
  <time>2026-09-01T19:55:58Z</time>
  <course>353.55</course>
  <speed>18.395230360068883</speed>
  <fix>3d</fix>
</trkpt>
<trkpt lat="-27.27417" lon="151.2900576">
  <ele>370.64</ele>
  <time>2026-09-01T19:55:58Z</time>
  <course>353.28</course>
  <speed>17.75</speed>
  <fix>3d</fix>
</trkpt>
<trkpt lat="-27.2741234" lon="151.2900507">
  <ele>370.74</ele>
  <time>2026-09-01T19:55:58Z</time>
  <course>353.01</course>
  <speed>18.741168586830437</speed>
  <fix>3d</fix>
</trkpt>
<trkpt lat="-27.27417" lon="151.2900576">
  <ele>370.64</ele>
  <time>2026-09-01T19:55:58Z</time>
  <course>353.28</course>
  <speed>17.75</speed>
  <fix>3d</fix>
</trkpt>
<trkpt lat="-27.2741066" lon="151.2900479">
  <ele>370.71</ele>
  <time>2026-09-01T19:55:58Z</time>
  <course>352.49</course>
  <speed>19.080138888383384</speed>
  <fix>3d</fix>
</trkpt>
<trkpt lat="-27.2741377" lon="151.2900531">
  <ele>370.65</ele>
  <time>2026-09-01T19:55:58Z</time>
  <course>352.29</course>
  <speed>18.49</speed>
  <fix>3d</fix>
</trkpt>
<trkpt lat="-27.2740895" lon="151.2900449">
  <ele>370.67</ele>
  <time>2026-09-01T19:55:58Z</time>
  <course>351.98</course>
  <speed>19.410762478583887</speed>
  <fix>3d</fix>
</trkpt>
<trkpt lat="-27.2741377" lon="151.2900531">
  <ele>370.65</ele>
  <time>2026-09-01T19:55:58Z</time>
  <course>352.29</course>
  <speed>18.49</speed>
  <fix>3d</fix>
</trkpt>
<trkpt lat="-27.2740721" lon="151.2900417">
  <ele>370.63</ele>
  <time>2026-09-01T19:55:58Z</time>
  <course>351.38</course>
  <speed>19.72483713494233</speed>
  <fix>3d</fix>
</trkpt>
<trkpt lat="-27.2741041" lon="151.2900476">
  <ele>370.6</ele>
  <time>2026-09-01T19:55:58Z</time>
  <course>351.26</course>
  <speed>19.19</speed>
  <fix>3d</fix>
</trkpt>
<trkpt lat="-27.2740545" lon="151.2900382">
  <ele>370.58</ele>
  <time>2026-09-01T19:55:58Z</time>
  <course>350.9</course>
  <speed>20.02086161982046</speed>
  <fix>3d</fix>
</trkpt>
<trkpt lat="-27.2741041" lon="151.2900476">
  <ele>370.6</ele>
  <time>2026-09-01T19:55:58Z</time>
  <course>351.26</course>
  <speed>19.19</speed>
  <fix>3d</fix>
</trkpt>
<trkpt lat="-27.2740366" lon="151.2900345">
  <ele>370.53</ele>
  <time>2026-09-01T19:55:58Z</time>
  <course>350.37</course>
  <speed>20.316636040447246</speed>
  <fix>3d</fix>
</trkpt>
<trkpt lat="-27.2740694" lon="151.2900412">
  <ele>370.53</ele>
  <time>2026-09-01T19:55:58Z</time>
  <course>350.22</course>
  <speed>19.84</speed>
  <fix>3d</fix>
</trkpt>
<trkpt lat="-27.2740186" lon="151.2900306">
  <ele>370.48</ele>
  <time>2026-09-01T19:55:58Z</time>
  <course>349.86</course>
  <speed>20.59808000761236</speed>
  <fix>3d</fix>
</trkpt>
<trkpt lat="-27.2740694" lon="151.2900412">
  <ele>370.53</ele>
  <time>2026-09-01T19:55:58Z</time>
  <course>350.22</course>
  <speed>19.84</speed>
  <fix>3d</fix>
</trkpt>
<trkpt lat="-27.2740003" lon="151.2900264">
  <ele>370.43</ele>
  <time>2026-09-01T19:55:58Z</time>
  <course>349.39</course>
  <speed>20.857586149888007</speed>
  <fix>3d</fix>
</trkpt>
<trkpt lat="-27.2740338" lon="151.290034">
  <ele>370.44</ele>
  <time>2026-09-01T19:55:58Z</time>
  <course>349.19</course>
  <speed>20.44</speed>
  <fix>3d</fix>
</trkpt>
<trkpt lat="-27.2739818" lon="151.290022">
  <ele>370.39</ele>
  <time>2026-09-01T19:55:58Z</time>
  <course>348.92</course>
  <speed>21.098940731704992</speed>
  <fix>3d</fix>
</trkpt>
<trkpt lat="-27.2740338" lon="151.290034">
  <ele>370.44</ele>
  <time>2026-09-01T19:55:58Z</time>
  <course>349.19</course>
  <speed>20.44</speed>
  <fix>3d</fix>
</trkpt>
<trkpt lat="-27.2739631" lon="151.2900174">
  <ele>370.35</ele>
  <time>2026-09-01T19:55:58Z</time>
  <course>348.34</course>
  <speed>21.324399170902797</speed>
  <fix>3d</fix>
</trkpt>
<trkpt lat="-27.2739973" lon="151.2900258">
  <ele>370.35</ele>
  <time>2026-09-01T19:55:58Z</time>
  <course>348.19</course>
  <speed>20.98</speed>
  <fix>3d</fix>
</trkpt>
<trkpt lat="-27.2739443" lon="151.2900125">
  <ele>370.32</ele>
  <time>2026-09-01T19:55:58Z</time>
  <course>347.83</course>
  <speed>21.539435925761847</speed>
  <fix>3d</fix>
</trkpt>
<trkpt lat="-27.2739973" lon="151.2900258">
  <ele>370.35</ele>
  <time>2026-09-01T19:55:58Z</time>
  <course>348.19</course>
  <speed>20.98</speed>
  <fix>3d</fix>
</trkpt>
<trkpt lat="-27.2739253" lon="151.2900074">
  <ele>370.3</ele>
  <time>2026-09-01T19:55:58Z</time>
  <course>347.38</course>
  <speed>21.736467054238595</speed>
  <fix>3d</fix>
</trkpt>
<trkpt lat="-27.27396" lon="151.2900167">
  <ele>370.28</ele>
  <time>2026-09-01T19:55:58Z</time>
  <course>347.21</course>
  <speed>21.46</speed>
  <fix>3d</fix>
</trkpt>
<trkpt lat="-27.2739062" lon="151.2900021">
  <ele>370.29</ele>
  <time>2026-09-01T19:55:58Z</time>
  <course>346.96</course>
  <speed>21.913123921522466</speed>
  <fix>3d</fix>
</trkpt>
<trkpt lat="-27.27396" lon="151.2900167">
  <ele>370.28</ele>
  <time>2026-09-01T19:55:58Z</time>
  <course>347.21</course>
  <speed>21.46</speed>
  <fix>3d</fix>
</trkpt>
<trkpt lat="-27.273887" lon="151.2899966">
  <ele>370.3</ele>
  <time>2026-09-01T19:55:58Z</time>
  <course>346.58</course>
  <speed>22.08610422867736</speed>
  <fix>3d</fix>
</trkpt>
<trkpt lat="-27.2739222" lon="151.2900066">
  <ele>370.24</ele>
  <time>2026-09-01T19:55:58Z</time>
  <course>346.27</course>
  <speed>21.86</speed>
  <fix>3d</fix>
</trkpt>
<trkpt lat="-27.2738677" lon="151.2899909">
  <ele>370.31</ele>
  <time>2026-09-01T19:55:58Z</time>
  <course>346.24</course>
  <speed>22.22855820785505</speed>
  <fix>3d</fix>
</trkpt>
<trkpt lat="-27.2739222" lon="151.2900066">
  <ele>370.24</ele>
  <time>2026-09-01T19:55:58Z</time>
  <course>346.27</course>
  <speed>21.86</speed>
  <fix>3d</fix>
</trkpt>
<trkpt lat="-27.2738485" lon="151.2899851">
  <ele>370.34</ele>
  <time>2026-09-01T19:55:58Z</time>
  <course>345.85</course>
  <speed>22.359718245094236</speed>
  <fix>3d</fix>
</trkpt>
<trkpt lat="-27.2738838" lon="151.2899957">
  <ele>370.24</ele>
  <time>2026-09-01T19:55:58Z</time>
  <course>345.41</course>
  <speed>22.21</speed>
  <fix>3d</fix>
</trkpt>
<trkpt lat="-27.273829" lon="151.2899791">
  <ele>370.39</ele>
  <time>2026-09-01T19:55:58Z</time>
  <course>345.38</course>
  <speed>22.479435046281747</speed>
  <fix>3d</fix>
</trkpt>
<trkpt lat="-27.2738838" lon="151.2899957">
  <ele>370.24</ele>
  <time>2026-09-01T19:55:58Z</time>
  <course>345.41</course>
  <speed>22.21</speed>
  <fix>3d</fix>
</trkpt>
<trkpt lat="-27.2738094" lon="151.2899728">
  <ele>370.44</ele>
  <time>2026-09-01T19:55:58Z</time>
  <course>344.98</course>
  <speed>22.590318722851165</speed>
  <fix>3d</fix>
</trkpt>
<trkpt lat="-27.273845" lon="151.289984">
  <ele>370.28</ele>
  <time>2026-09-01T19:55:58Z</time>
  <course>344.66</course>
  <speed>22.49</speed>
  <fix>3d</fix>
</trkpt>
<trkpt lat="-27.2737898" lon="151.2899665">
  <ele>370.51</ele>
  <time>2026-09-01T19:55:58Z</time>
  <course>344.71</course>
  <speed>22.677200003527773</speed>
  <fix>3d</fix>
</trkpt>
<trkpt lat="-27.273845" lon="151.289984">
  <ele>370.28</ele>
  <time>2026-09-01T19:55:58Z</time>
  <course>344.66</course>
  <speed>22.49</speed>
  <fix>3d</fix>
</trkpt>
<trkpt lat="-27.2737698" lon="151.2899599">
  <ele>370.59</ele>
  <time>2026-09-01T19:55:58Z</time>
  <course>344.45</course>
  <speed>22.76187162779019</speed>
  <fix>3d</fix>
</trkpt>
<trkpt lat="-27.2738059" lon="151.2899717">
  <ele>370.39</ele>
  <time>2026-09-01T19:55:58Z</time>
  <course>343.99</course>
  <speed>22.72</speed>
  <fix>3d</fix>
</trkpt>
<trkpt lat="-27.2737501" lon="151.2899532">
  <ele>370.69</ele>
  <time>2026-09-01T19:55:58Z</time>
  <course>344.21</course>
  <speed>22.831725734162102</speed>
  <fix>3d</fix>
</trkpt>
<trkpt lat="-27.2738059" lon="151.2899717">
  <ele>370.39</ele>
  <time>2026-09-01T19:55:58Z</time>
  <course>343.99</course>
  <speed>22.72</speed>
  <fix>3d</fix>
</trkpt>
<trkpt lat="-27.2737304" lon="151.2899465">
  <ele>370.79</ele>
  <time>2026-09-01T19:55:58Z</time>
  <course>343.95</course>
  <speed>22.901964981197576</speed>
  <fix>3d</fix>
</trkpt>
<trkpt lat="-27.2737666" lon="151.2899588">
  <ele>370.55</ele>
  <time>2026-09-01T19:55:58Z</time>
  <course>343.41</course>
  <speed>22.9</speed>
  <fix>3d</fix>
</trkpt>
<trkpt lat="-27.2737106" lon="151.2899397">
  <ele>370.91</ele>
  <time>2026-09-01T19:55:58Z</time>
  <course>343.69</course>
  <speed>22.947559783122912</speed>
  <fix>3d</fix>
</trkpt>
<trkpt lat="-27.2737666" lon="151.2899588">
  <ele>370.55</ele>
  <time>2026-09-01T19:55:58Z</time>
  <course>343.41</course>
  <speed>22.9</speed>
  <fix>3d</fix>
</trkpt>
<trkpt lat="-27.2736908" lon="151.2899327">
  <ele>371.04</ele>
  <time>2026-09-01T19:55:58Z</time>
  <course>343.48</course>
  <speed>22.993433845339414</speed>
  <fix>3d</fix>
</trkpt>
<trkpt lat="-27.273727" lon="151.2899453">
  <ele>370.75</ele>
  <time>2026-09-01T19:55:58Z</time>
  <course>342.93</course>
  <speed>23.03</speed>
  <fix>3d</fix>
</trkpt>
<trkpt lat="-27.273671" lon="151.2899257">
  <ele>371.18</ele>
  <time>2026-09-01T19:55:58Z</time>
  <course>343.26</course>
  <speed>23.033542931993765</speed>
  <fix>3d</fix>
</trkpt>
<trkpt lat="-27.273727" lon="151.2899453">
  <ele>370.75</ele>
  <time>2026-09-01T19:55:58Z</time>
  <course>342.93</course>
  <speed>23.03</speed>
  <fix>3d</fix>
</trkpt>
<trkpt lat="-27.2736512" lon="151.2899186">
  <ele>371.32</ele>
  <time>2026-09-01T19:55:58Z</time>
  <course>343.09</course>
  <speed>23.064286245188686</speed>
  <fix>3d</fix>
</trkpt>
<trkpt lat="-27.2736873" lon="151.2899314">
  <ele>371.0</ele>
  <time>2026-09-01T19:55:58Z</time>
  <course>342.53</course>
  <speed>23.12</speed>
  <fix>3d</fix>
</trkpt>
<trkpt lat="-27.2736314" lon="151.2899114">
  <ele>371.48</ele>
  <time>2026-09-01T19:55:58Z</time>
  <course>342.9</course>
  <speed>23.08907317325665</speed>
  <fix>3d</fix>
</trkpt>
<trkpt lat="-27.2736873" lon="151.2899314">
  <ele>371.0</ele>
  <time>2026-09-01T19:55:58Z</time>
  <course>342.53</course>
  <speed>23.12</speed>
  <fix>3d</fix>
</trkpt>
<trkpt lat="-27.2736115" lon="151.2899042">
  <ele>371.65</ele>
  <time>2026-09-01T19:55:58Z</time>
  <course>342.76</course>
  <speed>23.107516093254162</speed>
  <fix>3d</fix>
</trkpt>
<trkpt lat="-27.2736477" lon="151.2899172">
  <ele>371.29</ele>
  <time>2026-09-01T19:55:58Z</time>
  <course>342.22</course>
  <speed>23.19</speed>
  <fix>3d</fix>
</trkpt>
<trkpt lat="-27.2735917" lon="151.2898969">
  <ele>371.83</ele>
  <time>2026-09-01T19:55:58Z</time>
  <course>342.63</course>
  <speed>23.119889705619272</speed>
  <fix>3d</fix>
</trkpt>
<trkpt lat="-27.2736477" lon="151.2899172">
  <ele>371.29</ele>
  <time>2026-09-01T19:55:58Z</time>
  <course>342.22</course>
  <speed>23.19</speed>
  <fix>3d</fix>
</trkpt>
<trkpt lat="-27.2735718" lon="151.2898896">
  <ele>372.02</ele>
  <time>2026-09-01T19:55:58Z</time>
  <course>342.51</course>
  <speed>23.129210967951327</speed>
  <fix>3d</fix>
</trkpt>
<trkpt lat="-27.273608" lon="151.2899028">
  <ele>371.63</ele>
  <time>2026-09-01T19:55:58Z</time>
  <course>341.97</course>
  <speed>23.23</speed>
  <fix>3d</fix>
</trkpt>
<trkpt lat="-27.273552" lon="151.2898823">
  <ele>372.21</ele>
  <time>2026-09-01T19:55:58Z</time>
  <course>342.41</course>
  <speed>23.129068290789405</speed>
  <fix>3d</fix>
</trkpt>
<trkpt lat="-27.273608" lon="151.2899028">
  <ele>371.63</ele>
  <time>2026-09-01T19:55:58Z</time>
  <course>341.97</course>
  <speed>23.23</speed>
  <fix>3d</fix>
</trkpt>
<trkpt lat="-27.2735322" lon="151.2898749">
  <ele>372.41</ele>
  <time>2026-09-01T19:55:58Z</time>
  <course>342.31</course>
  <speed>23.12896884861061</speed>
  <fix>3d</fix>
</trkpt>
<trkpt lat="-27.2735683" lon="151.2898882">
  <ele>372.0</ele>
  <time>2026-09-01T19:55:58Z</time>
  <course>341.78</course>
  <speed>23.24</speed>
  <fix>3d</fix>
</trkpt>
<trkpt lat="-27.2735124" lon="151.2898675">
  <ele>372.62</ele>
  <time>2026-09-01T19:55:58Z</time>
  <course>342.2</course>
  <speed>23.12261663393657</speed>
  <fix>3d</fix>
</trkpt>
<trkpt lat="-27.2735683" lon="151.2898882">
  <ele>372.0</ele>
  <time>2026-09-01T19:55:58Z</time>
  <course>341.78</course>
  <speed>23.24</speed>
  <fix>3d</fix>
</trkpt>
<trkpt lat="-27.2734925" lon="151.2898601">
  <ele>372.84</ele>
  <time>2026-09-01T19:55:58Z</time>
  <course>342.17</course>
  <speed>23.109932929370434</speed>
  <fix>3d</fix>
</trkpt>
<trkpt lat="-27.2735287" lon="151.2898735">
  <ele>372.4</ele>
  <time>2026-09-01T19:55:58Z</time>
  <course>341.66</course>
  <speed>23.23</speed>
  <fix>3d</fix>
</trkpt>
<trkpt lat="-27.2734728" lon="151.2898527">
  <ele>373.07</ele>
  <time>2026-09-01T19:55:58Z</time>
  <course>342.14</course>
  <speed>23.100443718682115</speed>
  <fix>3d</fix>
</trkpt>
<trkpt lat="-27.2735287" lon="151.2898735">
  <ele>372.4</ele>
  <time>2026-09-01T19:55:58Z</time>
  <course>341.66</course>
  <speed>23.23</speed>
  <fix>3d</fix>
</trkpt>
<trkpt lat="-27.273453" lon="151.2898453">
  <ele>373.3</ele>
  <time>2026-09-01T19:55:58Z</time>
  <course>342.1</course>
  <speed>23.084626919229166</speed>
  <fix>3d</fix>
</trkpt>
<trkpt lat="-27.2734891" lon="151.2898586">
  <ele>372.83</ele>
  <time>2026-09-01T19:55:58Z</time>
  <course>341.58</course>
  <speed>23.21</speed>
  <fix>3d</fix>
</trkpt>
<trkpt lat="-27.2734334" lon="151.2898379">
  <ele>373.54</ele>
  <time>2026-09-01T19:55:58Z</time>
  <course>342.07</course>
  <speed>23.065654120358257</speed>
  <fix>3d</fix>
</trkpt>
<trkpt lat="-27.2734891" lon="151.2898586">
  <ele>372.83</ele>
  <time>2026-09-01T19:55:58Z</time>
  <course>341.58</course>
  <speed>23.21</speed>
  <fix>3d</fix>
</trkpt>
<trkpt lat="-27.2734137" lon="151.2898305">
  <ele>373.78</ele>
  <time>2026-09-01T19:55:58Z</time>
  <course>342.04</course>
  <speed>23.05616837204309</speed>
  <fix>3d</fix>
</trkpt>
<trkpt lat="-27.2734496" lon="151.2898438">
  <ele>373.3</ele>
  <time>2026-09-01T19:55:58Z</time>
  <course>341.54</course>
  <speed>23.18</speed>
  <fix>3d</fix>
</trkpt>
<trkpt lat="-27.273394" lon="151.2898231">
  <ele>374.04</ele>
  <time>2026-09-01T19:55:58Z</time>
  <course>342.01</course>
  <speed>23.043517526627742</speed>
  <fix>3d</fix>
</trkpt>
<trkpt lat="-27.2734496" lon="151.2898438">
  <ele>373.3</ele>
  <time>2026-09-01T19:55:58Z</time>
  <course>341.54</course>
  <speed>23.18</speed>
  <fix>3d</fix>
</trkpt>
<trkpt lat="-27.2733742" lon="151.2898156">
  <ele>374.29</ele>
  <time>2026-09-01T19:55:58Z</time>
  <course>341.96</course>
  <speed>23.03403134494698</speed>
  <fix>3d</fix>
</trkpt>
<trkpt lat="-27.2734102" lon="151.289829">
  <ele>373.79</ele>
  <time>2026-09-01T19:55:58Z</time>
  <course>341.53</course>
  <speed>23.14</speed>
  <fix>3d</fix>
</trkpt>
<trkpt lat="-27.2733544" lon="151.2898082">
  <ele>374.56</ele>
  <time>2026-09-01T19:55:58Z</time>
  <course>341.94</course>
  <speed>23.01189475032423</speed>
  <fix>3d</fix>
</trkpt>
<trkpt lat="-27.2734102" lon="151.289829">
  <ele>373.79</ele>
  <time>2026-09-01T19:55:58Z</time>
  <course>341.53</course>
  <speed>23.14</speed>
  <fix>3d</fix>
</trkpt>
<trkpt lat="-27.2733347" lon="151.2898008">
  <ele>374.83</ele>
  <time>2026-09-01T19:55:58Z</time>
  <course>341.92</course>
  <speed>22.999245639803057</speed>
  <fix>3d</fix>
</trkpt>
<trkpt lat="-27.2733708" lon="151.2898142">
  <ele>374.3</ele>
  <time>2026-09-01T19:55:58Z</time>
  <course>341.54</course>
  <speed>23.1</speed>
  <fix>3d</fix>
</trkpt>
<trkpt lat="-27.2733151" lon="151.2897934">
  <ele>375.1</ele>
  <time>2026-09-01T19:55:58Z</time>
  <course>341.94</course>
  <speed>22.977110349214932</speed>
  <fix>3d</fix>
</trkpt>
<trkpt lat="-27.2733708" lon="151.2898142">
  <ele>374.3</ele>
  <time>2026-09-01T19:55:58Z</time>
  <course>341.54</course>
  <speed>23.1</speed>
  <fix>3d</fix>
</trkpt>
<trkpt lat="-27.2732954" lon="151.289786">
  <ele>375.38</ele>
  <time>2026-09-01T19:55:58Z</time>
  <course>341.96</course>
  <speed>22.96446385178631</speed>
  <fix>3d</fix>
</trkpt>
<trkpt lat="-27.2733314" lon="151.2897995">
  <ele>374.84</ele>
  <time>2026-09-01T19:55:58Z</time>
  <course>341.56</course>
  <speed>23.06</speed>
  <fix>3d</fix>
</trkpt>
<trkpt lat="-27.2732758" lon="151.2897787">
  <ele>375.66</ele>
  <time>2026-09-01T19:55:58Z</time>
  <course>341.92</course>
  <speed>22.951819100019065</speed>
  <fix>3d</fix>
</trkpt>
<trkpt lat="-27.2733314" lon="151.2897995">
  <ele>374.84</ele>
  <time>2026-09-01T19:55:58Z</time>
  <course>341.56</course>
  <speed>23.06</speed>
  <fix>3d</fix>
</trkpt>
<trkpt lat="-27.2732562" lon="151.2897713">
  <ele>375.94</ele>
  <time>2026-09-01T19:55:58Z</time>
  <course>341.96</course>
  <speed>22.929685998722267</speed>
  <fix>3d</fix>
</trkpt>
<trkpt lat="-27.2732921" lon="151.2897847">
  <ele>375.39</ele>
  <time>2026-09-01T19:55:58Z</time>
  <course>341.6</course>
  <speed>23.02</speed>
  <fix>3d</fix>
</trkpt>
<trkpt lat="-27.2732364" lon="151.2897639">
  <ele>376.23</ele>
  <time>2026-09-01T19:55:58Z</time>
  <course>342.05</course>
  <speed>22.913895347583306</speed>
  <fix>3d</fix>
</trkpt>
<trkpt lat="-27.2732921" lon="151.2897847">
  <ele>375.39</ele>
  <time>2026-09-01T19:55:58Z</time>
  <course>341.6</course>
  <speed>23.02</speed>
  <fix>3d</fix>
</trkpt>
<trkpt lat="-27.2732168" lon="151.2897566">
  <ele>376.52</ele>
  <time>2026-09-01T19:55:58Z</time>
  <course>342.12</course>
  <speed>22.898115642995602</speed>
  <fix>3d</fix>
</trkpt>
<trkpt lat="-27.2732528" lon="151.2897701">
  <ele>375.95</ele>
  <time>2026-09-01T19:55:58Z</time>
  <course>341.65</course>
  <speed>22.98</speed>
  <fix>3d</fix>
</trkpt>
<trkpt lat="-27.2731972" lon="151.2897494">
  <ele>376.81</ele>
  <time>2026-09-01T19:55:58Z</time>
  <course>342.14</course>
  <speed>22.882346907605434</speed>
  <fix>3d</fix>
</trkpt>
<trkpt lat="-27.2732528" lon="151.2897701">
  <ele>375.95</ele>
  <time>2026-09-01T19:55:58Z</time>
  <course>341.65</course>
  <speed>22.98</speed>
  <fix>3d</fix>
</trkpt>
<trkpt lat="-27.2731776" lon="151.2897421">
  <ele>377.1</ele>
  <time>2026-09-01T19:55:58Z</time>
  <course>342.15</course>
  <speed>22.86658916410578</speed>
  <fix>3d</fix>
</trkpt>
<trkpt lat="-27.2732136" lon="151.2897555">
  <ele>376.53</ele>
  <time>2026-09-01T19:55:58Z</time>
  <course>341.72</course>
  <speed>22.94</speed>
  <fix>3d</fix>
</trkpt>
<trkpt lat="-27.273158" lon="151.2897349">
  <ele>377.4</ele>
  <time>2026-09-01T19:55:58Z</time>
  <course>342.15</course>
  <speed>22.850842435236387</speed>
  <fix>3d</fix>
</trkpt>
<trkpt lat="-27.2732136" lon="151.2897555">
  <ele>376.53</ele>
  <time>2026-09-01T19:55:58Z</time>
  <course>341.72</course>
  <speed>22.94</speed>
  <fix>3d</fix>
</trkpt>
<trkpt lat="-27.2731384" lon="151.2897276">
  <ele>377.7</ele>
  <time>2026-09-01T19:55:58Z</time>
  <course>342.16</course>
  <speed>22.838222347634677</speed>
  <fix>3d</fix>
</trkpt>
<trkpt lat="-27.2731745" lon="151.289741">
  <ele>377.12</ele>
  <time>2026-09-01T19:55:58Z</time>
  <course>341.79</course>
  <speed>22.9</speed>
  <fix>3d</fix>
</trkpt>
<trkpt lat="-27.2731188" lon="151.2897204">
  <ele>378.0</ele>
  <time>2026-09-01T19:55:58Z</time>
  <course>342.16</course>
  <speed>22.822491099790135</speed>
  <fix>3d</fix>
</trkpt>
<trkpt lat="-27.2731745" lon="151.289741">
  <ele>377.12</ele>
  <time>2026-09-01T19:55:58Z</time>
  <course>341.79</course>
  <speed>22.9</speed>
  <fix>3d</fix>
</trkpt>
<trkpt lat="-27.2730993" lon="151.2897132">
  <ele>378.3</ele>
  <time>2026-09-01T19:55:58Z</time>
  <course>342.13</course>
  <speed>22.828887401711018</speed>
  <fix>3d</fix>
</trkpt>
<trkpt lat="-27.2731355" lon="151.2897266">
  <ele>377.72</ele>
  <time>2026-09-01T19:55:58Z</time>
  <course>341.87</course>
  <speed>22.87</speed>
  <fix>3d</fix>
</trkpt>
<trkpt lat="-27.2730797" lon="151.289706">
  <ele>378.59</ele>
  <time>2026-09-01T19:55:58Z</time>
  <course>342.18</course>
  <speed>22.860509618116566</speed>
  <fix>3d</fix>
</trkpt>
<trkpt lat="-27.2731355" lon="151.2897266">
  <ele>377.72</ele>
  <time>2026-09-01T19:55:58Z</time>
  <course>341.87</course>
  <speed>22.87</speed>
  <fix>3d</fix>
</trkpt>
<trkpt lat="-27.2730601" lon="151.2896988">
  <ele>378.85</ele>
  <time>2026-09-01T19:55:58Z</time>
  <course>342.29</course>
  <speed>22.898534887629822</speed>
  <fix>3d</fix>
</trkpt>
<trkpt lat="-27.2730964" lon="151.2897122">
  <ele>378.31</ele>
  <time>2026-09-01T19:55:58Z</time>
  <course>341.92</course>
  <speed>22.86</speed>
  <fix>3d</fix>
</trkpt>
<trkpt lat="-27.2730404" lon="151.2896916">
  <ele>379.1</ele>
  <time>2026-09-01T19:55:58Z</time>
  <course>342.37</course>
  <speed>22.927058250024142</speed>
  <fix>3d</fix>
</trkpt>
<trkpt lat="-27.2730964" lon="151.2897122">
  <ele>378.31</ele>
  <time>2026-09-01T19:55:58Z</time>
  <course>341.92</course>
  <speed>22.86</speed>
  <fix>3d</fix>
</trkpt>
<trkpt lat="-27.2730209" lon="151.2896845">
  <ele>379.34</ele>
  <time>2026-09-01T19:55:58Z</time>
  <course>342.41</course>
  <speed>22.95249441781873</speed>
  <fix>3d</fix>
</trkpt>
<trkpt lat="-27.2730573" lon="151.2896978">
  <ele>378.87</ele>
  <time>2026-09-01T19:55:58Z</time>
  <course>341.96</course>
  <speed>22.9</speed>
  <fix>3d</fix>
</trkpt>
<trkpt lat="-27.2730013" lon="151.2896773">
  <ele>379.57</ele>
  <time>2026-09-01T19:55:58Z</time>
  <course>342.42</course>
  <speed>23.000054347761875</speed>
  <fix>3d</fix>
</trkpt>
<trkpt lat="-27.2730573" lon="151.2896978">
  <ele>378.87</ele>
  <time>2026-09-01T19:55:58Z</time>
  <course>341.96</course>
  <speed>22.9</speed>
  <fix>3d</fix>
</trkpt>
<trkpt lat="-27.2729815" lon="151.2896701">
  <ele>379.78</ele>
  <time>2026-09-01T19:55:58Z</time>
  <course>342.35</course>
  <speed>23.050702809242065</speed>
  <fix>3d</fix>
</trkpt>
<trkpt lat="-27.2730181" lon="151.2896835">
  <ele>379.36</ele>
  <time>2026-09-01T19:55:58Z</time>
  <course>342.02</course>
  <speed>22.96</speed>
  <fix>3d</fix>
</trkpt>
<trkpt lat="-27.2729617" lon="151.2896629">
  <ele>379.98</ele>
  <time>2026-09-01T19:55:58Z</time>
  <course>342.36</course>
  <speed>23.120382782298392</speed>
  <fix>3d</fix>
</trkpt>
<trkpt lat="-27.2730181" lon="151.2896835">
  <ele>379.36</ele>
  <time>2026-09-01T19:55:58Z</time>
  <course>342.02</course>
  <speed>22.96</speed>
  <fix>3d</fix>
</trkpt>
<trkpt lat="-27.2729417" lon="151.2896557">
  <ele>380.15</ele>
  <time>2026-09-01T19:55:58Z</time>
  <course>342.42</course>
  <speed>23.20265717541851</speed>
  <fix>3d</fix>
</trkpt>
<trkpt lat="-27.2729789" lon="151.2896692">
  <ele>379.79</ele>
  <time>2026-09-01T19:55:58Z</time>
  <course>342.08</course>
  <speed>23.05</speed>
  <fix>3d</fix>
</trkpt>
<trkpt lat="-27.2729218" lon="151.2896485">
  <ele>380.29</ele>
  <time>2026-09-01T19:55:58Z</time>
  <course>342.45</course>
  <speed>23.303967473372428</speed>
  <fix>3d</fix>
</trkpt>
<trkpt lat="-27.2729789" lon="151.2896692">
  <ele>379.79</ele>
  <time>2026-09-01T19:55:58Z</time>
  <course>342.08</course>
  <speed>23.05</speed>
  <fix>3d</fix>
</trkpt>
<trkpt lat="-27.2729018" lon="151.2896412">
  <ele>380.42</ele>
  <time>2026-09-01T19:55:58Z</time>
  <course>342.45</course>
  <speed>23.395764573956544</speed>
  <fix>3d</fix>
</trkpt>
<trkpt lat="-27.2729394" lon="151.2896548">
  <ele>380.15</ele>
  <time>2026-09-01T19:55:58Z</time>
  <course>342.12</course>
  <speed>23.19</speed>
  <fix>3d</fix>
</trkpt>
<trkpt lat="-27.2728817" lon="151.2896339">
  <ele>380.52</ele>
  <time>2026-09-01T19:55:58Z</time>
  <course>342.54</course>
  <speed>23.50966609716097</speed>
  <fix>3d</fix>
</trkpt>
<trkpt lat="-27.2729394" lon="151.2896548">
  <ele>380.15</ele>
  <time>2026-09-01T19:55:58Z</time>
  <course>342.12</course>
  <speed>23.19</speed>
  <fix>3d</fix>
</trkpt>
<trkpt lat="-27.2728616" lon="151.2896267">
  <ele>380.61</ele>
  <time>2026-09-01T19:55:58Z</time>
  <course>342.58</course>
  <speed>23.617455409082496</speed>
  <fix>3d</fix>
</trkpt>
<trkpt lat="-27.2728995" lon="151.2896404">
  <ele>380.41</ele>
  <time>2026-09-01T19:55:58Z</time>
  <course>342.15</course>
  <speed>23.37</speed>
  <fix>3d</fix>
</trkpt>
<trkpt lat="-27.2728413" lon="151.2896193">
  <ele>380.68</ele>
  <time>2026-09-01T19:55:58Z</time>
  <course>342.58</course>
  <speed>23.74088667257396</speed>
  <fix>3d</fix>
</trkpt>
<trkpt lat="-27.2728995" lon="151.2896404">
  <ele>380.41</ele>
  <time>2026-09-01T19:55:58Z</time>
  <course>342.15</course>
  <speed>23.37</speed>
  <fix>3d</fix>
</trkpt>
<trkpt lat="-27.2728209" lon="151.289612">
  <ele>380.75</ele>
  <time>2026-09-01T19:55:58Z</time>
  <course>342.53</course>
  <speed>23.854796163455262</speed>
  <fix>3d</fix>
</trkpt>
<trkpt lat="-27.2728592" lon="151.2896258">
  <ele>380.6</ele>
  <time>2026-09-01T19:55:58Z</time>
  <course>342.19</course>
  <speed>23.59</speed>
  <fix>3d</fix>
</trkpt>
<trkpt lat="-27.2728004" lon="151.2896046">
  <ele>380.81</ele>
  <time>2026-09-01T19:55:58Z</time>
  <course>342.56</course>
  <speed>23.990802404254847</speed>
  <fix>3d</fix>
</trkpt>
<trkpt lat="-27.2728592" lon="151.2896258">
  <ele>380.6</ele>
  <time>2026-09-01T19:55:58Z</time>
  <course>342.19</course>
  <speed>23.59</speed>
  <fix>3d</fix>
</trkpt>
<trkpt lat="-27.2727799" lon="151.2895972">
  <ele>380.86</ele>
  <time>2026-09-01T19:55:58Z</time>
  <course>342.61</course>
  <speed>24.126808740486172</speed>
  <fix>3d</fix>
</trkpt>
<trkpt lat="-27.2728187" lon="151.2896112">
  <ele>380.74</ele>
  <time>2026-09-01T19:55:58Z</time>
  <course>342.22</course>
  <speed>23.83</speed>
  <fix>3d</fix>
</trkpt>
<trkpt lat="-27.2727592" lon="151.2895898">
  <ele>380.93</ele>
  <time>2026-09-01T19:55:58Z</time>
  <course>342.61</course>
  <speed>24.250245359583477</speed>
  <fix>3d</fix>
</trkpt>
<trkpt lat="-27.2728187" lon="151.2896112">
  <ele>380.74</ele>
  <time>2026-09-01T19:55:58Z</time>
  <course>342.22</course>
  <speed>23.83</speed>
  <fix>3d</fix>
</trkpt>
<trkpt lat="-27.2727384" lon="151.2895823">
  <ele>380.99</ele>
  <time>2026-09-01T19:55:58Z</time>
  <course>342.65</course>
  <speed>24.386252274591108</speed>
  <fix>3d</fix>
</trkpt>
<trkpt lat="-27.2727777" lon="151.2895964">
  <ele>380.86</ele>
  <time>2026-09-01T19:55:58Z</time>
  <course>342.24</course>
  <speed>24.08</speed>
  <fix>3d</fix>
</trkpt>
<trkpt lat="-27.2727174" lon="151.2895748">
  <ele>381.07</ele>
  <time>2026-09-01T19:55:59Z</time>
  <course>342.64</course>
  <speed>24.519218992455695</speed>
  <fix>3d</fix>
</trkpt>
<trkpt lat="-27.2727777" lon="151.2895964">
  <ele>380.86</ele>
  <time>2026-09-01T19:55:59Z</time>
  <course>342.24</course>
  <speed>24.08</speed>
  <fix>3d</fix>
</trkpt>
<trkpt lat="-27.2726964" lon="151.2895672">
  <ele>381.17</ele>
  <time>2026-09-01T19:55:59Z</time>
  <course>342.61</course>
  <speed>24.6456994220087</speed>
  <fix>3d</fix>
</trkpt>
<trkpt lat="-27.2727363" lon="151.2895815">
  <ele>380.99</ele>
  <time>2026-09-01T19:55:59Z</time>
  <course>342.26</course>
  <speed>24.35</speed>
  <fix>3d</fix>
</trkpt>
<trkpt lat="-27.2726751" lon="151.2895596">
  <ele>381.28</ele>
  <time>2026-09-01T19:55:59Z</time>
  <course>342.62</course>
  <speed>24.781706962999948</speed>
  <fix>3d</fix>
</trkpt>
<trkpt lat="-27.2727363" lon="151.2895815">
  <ele>380.99</ele>
  <time>2026-09-01T19:55:59Z</time>
  <course>342.26</course>
  <speed>24.35</speed>
  <fix>3d</fix>
</trkpt>
<trkpt lat="-27.2726539" lon="151.289552">
  <ele>381.4</ele>
  <time>2026-09-01T19:55:59Z</time>
  <course>342.64</course>
  <speed>24.89866060654669</speed>
  <fix>3d</fix>
</trkpt>
<trkpt lat="-27.2726944" lon="151.2895664">
  <ele>381.16</ele>
  <time>2026-09-01T19:55:59Z</time>
  <course>342.27</course>
  <speed>24.61</speed>
  <fix>3d</fix>
</trkpt>
<trkpt lat="-27.2726325" lon="151.2895443">
  <ele>381.55</ele>
  <time>2026-09-01T19:55:59Z</time>
  <course>342.73</course>
  <speed>25.012574837469252</speed>
  <fix>3d</fix>
</trkpt>
<trkpt lat="-27.2726944" lon="151.2895664">
  <ele>381.16</ele>
  <time>2026-09-01T19:55:59Z</time>
  <course>342.27</course>
  <speed>24.61</speed>
  <fix>3d</fix>
</trkpt>
<trkpt lat="-27.2726111" lon="151.2895366">
  <ele>381.71</ele>
  <time>2026-09-01T19:55:59Z</time>
  <course>342.84</course>
  <speed>25.136017982170525</speed>
  <fix>3d</fix>
</trkpt>
<trkpt lat="-27.2726521" lon="151.2895512">
  <ele>381.4</ele>
  <time>2026-09-01T19:55:59Z</time>
  <course>342.27</course>
  <speed>24.86</speed>
  <fix>3d</fix>
</trkpt>
<trkpt lat="-27.2725897" lon="151.2895289">
  <ele>381.89</ele>
  <time>2026-09-01T19:55:59Z</time>
  <course>342.8</course>
  <speed>25.237373080413896</speed>
  <fix>3d</fix>
</trkpt>
<trkpt lat="-27.2726521" lon="151.2895512">
  <ele>381.4</ele>
  <time>2026-09-01T19:55:59Z</time>
  <course>342.27</course>
  <speed>24.86</speed>
  <fix>3d</fix>
</trkpt>
<trkpt lat="-27.2725681" lon="151.2895212">
  <ele>382.08</ele>
  <time>2026-09-01T19:55:59Z</time>
  <course>342.74</course>
  <speed>25.351291880296753</speed>
  <fix>3d</fix>
</trkpt>
<trkpt lat="-27.2726093" lon="151.2895359">
  <ele>381.71</ele>
  <time>2026-09-01T19:55:59Z</time>
  <course>342.29</course>
  <speed>25.1</speed>
  <fix>3d</fix>
</trkpt>
<trkpt lat="-27.2725463" lon="151.2895134">
  <ele>382.29</ele>
  <time>2026-09-01T19:55:59Z</time>
  <course>342.71</course>
  <speed>25.44615098595463</speed>
  <fix>3d</fix>
</trkpt>
<trkpt lat="-27.2726093" lon="151.2895359">
  <ele>381.71</ele>
  <time>2026-09-01T19:55:59Z</time>
  <course>342.29</course>
  <speed>25.1</speed>
  <fix>3d</fix>
</trkpt>
<trkpt lat="-27.2725245" lon="151.2895056">
  <ele>382.53</ele>
  <time>2026-09-01T19:55:59Z</time>
  <course>342.74</course>
  <speed>25.52845079514227</speed>
  <fix>3d</fix>
</trkpt>
<trkpt lat="-27.2725662" lon="151.2895204">
  <ele>382.09</ele>
  <time>2026-09-01T19:55:59Z</time>
  <course>342.31</course>
  <speed>25.31</speed>
  <fix>3d</fix>
</trkpt>
<trkpt lat="-27.2725024" lon="151.2894977">
  <ele>382.78</ele>
  <time>2026-09-01T19:55:59Z</time>
  <course>342.78</course>
  <speed>25.613779494639207</speed>
  <fix>3d</fix>
</trkpt>
<trkpt lat="-27.2725662" lon="151.2895204">
  <ele>382.09</ele>
  <time>2026-09-01T19:55:59Z</time>
  <course>342.31</course>
  <speed>25.31</speed>
  <fix>3d</fix>
</trkpt>
<trkpt lat="-27.2724806" lon="151.2894898">
  <ele>383.04</ele>
  <time>2026-09-01T19:55:59Z</time>
  <course>342.77</course>
  <speed>25.686549009160416</speed>
  <fix>3d</fix>
</trkpt>
<trkpt lat="-27.2725226" lon="151.2895047">
  <ele>382.53</ele>
  <time>2026-09-01T19:55:59Z</time>
  <course>342.32</course>
  <speed>25.5</speed>
  <fix>3d</fix>
</trkpt>
<trkpt lat="-27.2724587" lon="151.289482">
  <ele>383.32</ele>
  <time>2026-09-01T19:55:59Z</time>
  <course>342.78</course>
  <speed>25.759318702170678</speed>
  <fix>3d</fix>
</trkpt>
<trkpt lat="-27.2725226" lon="151.2895047">
  <ele>382.53</ele>
  <time>2026-09-01T19:55:59Z</time>
  <course>342.32</course>
  <speed>25.5</speed>
  <fix>3d</fix>
</trkpt>
<trkpt lat="-27.2724367" lon="151.2894741">
  <ele>383.61</ele>
  <time>2026-09-01T19:55:59Z</time>
  <course>342.73</course>
  <speed>25.822557967792424</speed>
  <fix>3d</fix>
</trkpt>
<trkpt lat="-27.2724789" lon="151.289489">
  <ele>383.05</ele>
  <time>2026-09-01T19:55:59Z</time>
  <course>342.32</course>
  <speed>25.67</speed>
  <fix>3d</fix>
</trkpt>
<trkpt lat="-27.2724147" lon="151.2894662">
  <ele>383.91</ele>
  <time>2026-09-01T19:55:59Z</time>
  <course>342.68</course>
  <speed>25.86673732808218</speed>
  <fix>3d</fix>
</trkpt>
<trkpt lat="-27.2724789" lon="151.289489">
  <ele>383.05</ele>
  <time>2026-09-01T19:55:59Z</time>
  <course>342.32</course>
  <speed>25.67</speed>
  <fix>3d</fix>
</trkpt>
<trkpt lat="-27.2723927" lon="151.2894583">
  <ele>384.23</ele>
  <time>2026-09-01T19:55:59Z</time>
  <course>342.79</course>
  <speed>25.90788683007551</speed>
  <fix>3d</fix>
</trkpt>
<trkpt lat="-27.2724348" lon="151.2894733">
  <ele>383.62</ele>
  <time>2026-09-01T19:55:59Z</time>
  <course>342.32</course>
  <speed>25.8</speed>
  <fix>3d</fix>
</trkpt>
<trkpt lat="-27.2723707" lon="151.2894504">
  <ele>384.56</ele>
  <time>2026-09-01T19:55:59Z</time>
  <course>342.83</course>
  <speed>25.952067355029737</speed>
  <fix>3d</fix>
</trkpt>
<trkpt lat="-27.2724348" lon="151.2894733">
  <ele>383.62</ele>
  <time>2026-09-01T19:55:59Z</time>
  <course>342.32</course>
  <speed>25.8</speed>
  <fix>3d</fix>
</trkpt>
<trkpt lat="-27.2723486" lon="151.2894425">
  <ele>384.9</ele>
  <time>2026-09-01T19:55:59Z</time>
  <course>342.91</course>
  <speed>25.983687190235337</speed>
  <fix>3d</fix>
</trkpt>
<trkpt lat="-27.2723904" lon="151.2894574">
  <ele>384.24</ele>
  <time>2026-09-01T19:55:59Z</time>
  <course>342.31</course>
  <speed>25.91</speed>
  <fix>3d</fix>
</trkpt>
<trkpt lat="-27.2723264" lon="151.2894345">
  <ele>385.24</ele>
  <time>2026-09-01T19:55:59Z</time>
  <course>342.87</course>
  <speed>26.031336884608905</speed>
  <fix>3d</fix>
</trkpt>
<trkpt lat="-27.2723904" lon="151.2894574">
  <ele>384.24</ele>
  <time>2026-09-01T19:55:59Z</time>
  <course>342.31</course>
  <speed>25.91</speed>
  <fix>3d</fix>
</trkpt>
<trkpt lat="-27.2723042" lon="151.2894266">
  <ele>385.6</ele>
  <time>2026-09-01T19:55:59Z</time>
  <course>342.83</course>
  <speed>26.062956470822723</speed>
  <fix>3d</fix>
</trkpt>
<trkpt lat="-27.272346" lon="151.2894414">
  <ele>384.9</ele>
  <time>2026-09-01T19:55:59Z</time>
  <course>342.31</course>
  <speed>26.01</speed>
  <fix>3d</fix>
</trkpt>
<trkpt lat="-27.272282" lon="151.2894186">
  <ele>385.97</ele>
  <time>2026-09-01T19:55:59Z</time>
  <course>342.75</course>
  <speed>26.094576064768706</speed>
  <fix>3d</fix>
</trkpt>
<trkpt lat="-27.272346" lon="151.2894414">
  <ele>384.9</ele>
  <time>2026-09-01T19:55:59Z</time>
  <course>342.31</course>
  <speed>26.01</speed>
  <fix>3d</fix>
</trkpt>
<trkpt lat="-27.2722597" lon="151.2894106">
  <ele>386.34</ele>
  <time>2026-09-01T19:55:59Z</time>
  <course>342.69</course>
  <speed>26.119695633755</speed>
  <fix>3d</fix>
</trkpt>
<trkpt lat="-27.2723013" lon="151.2894255">
  <ele>385.59</ele>
  <time>2026-09-01T19:55:59Z</time>
  <course>342.32</course>
  <speed>26.09</speed>
  <fix>3d</fix>
</trkpt>
<trkpt lat="-27.2722374" lon="151.2894027">
  <ele>386.72</ele>
  <time>2026-09-01T19:55:59Z</time>
  <course>342.69</course>
  <speed>26.13225784351593</speed>
  <fix>3d</fix>
</trkpt>
<trkpt lat="-27.2723013" lon="151.2894255">
  <ele>385.59</ele>
  <time>2026-09-01T19:55:59Z</time>
  <course>342.32</course>
  <speed>26.09</speed>
  <fix>3d</fix>
</trkpt>
<trkpt lat="-27.2722151" lon="151.2893946">
  <ele>387.11</ele>
  <time>2026-09-01T19:55:59Z</time>
  <course>342.72</course>
  <speed>26.144821667014675</speed>
  <fix>3d</fix>
</trkpt>
<trkpt lat="-27.2722567" lon="151.2894094">
  <ele>386.33</ele>
  <time>2026-09-01T19:55:59Z</time>
  <course>342.3</course>
  <speed>26.15</speed>
  <fix>3d</fix>
</trkpt>
<trkpt lat="-27.2721928" lon="151.2893866">
  <ele>387.5</ele>
  <time>2026-09-01T19:55:59Z</time>
  <course>342.77</course>
  <speed>26.17948051432648</speed>
  <fix>3d</fix>
</trkpt>
<trkpt lat="-27.2722567" lon="151.2894094">
  <ele>386.33</ele>
  <time>2026-09-01T19:55:59Z</time>
  <course>342.3</course>
  <speed>26.15</speed>
  <fix>3d</fix>
</trkpt>
<trkpt lat="-27.2721704" lon="151.2893786">
  <ele>387.9</ele>
  <time>2026-09-01T19:55:59Z</time>
  <course>342.78</course>
  <speed>26.19204841168403</speed>
  <fix>3d</fix>
</trkpt>
<trkpt lat="-27.2722119" lon="151.2893933">
  <ele>387.1</ele>
  <time>2026-09-01T19:55:59Z</time>
  <course>342.27</course>
  <speed>26.2</speed>
  <fix>3d</fix>
</trkpt>
<trkpt lat="-27.272148" lon="151.2893705">
  <ele>388.3</ele>
  <time>2026-09-01T19:55:59Z</time>
  <course>342.82</course>
  <speed>26.204617913642622</speed>
  <fix>3d</fix>
</trkpt>
<trkpt lat="-27.2722119" lon="151.2893933">
  <ele>387.1</ele>
  <time>2026-09-01T19:55:59Z</time>
  <course>342.27</course>
  <speed>26.2</speed>
  <fix>3d</fix>
</trkpt>
<trkpt lat="-27.2721256" lon="151.2893624">
  <ele>388.72</ele>
  <time>2026-09-01T19:55:59Z</time>
  <course>342.75</course>
  <speed>26.214143129234643</speed>
  <fix>3d</fix>
</trkpt>
<trkpt lat="-27.272167" lon="151.2893772">
  <ele>387.9</ele>
  <time>2026-09-01T19:55:59Z</time>
  <course>342.25</course>
  <speed>26.24</speed>
  <fix>3d</fix>
</trkpt>
<trkpt lat="-27.2721032" lon="151.2893543">
  <ele>389.13</ele>
  <time>2026-09-01T19:55:59Z</time>
  <course>342.83</course>
  <speed>26.211100701801897</speed>
  <fix>3d</fix>
</trkpt>
<trkpt lat="-27.272167" lon="151.2893772">
  <ele>387.9</ele>
  <time>2026-09-01T19:55:59Z</time>
  <course>342.25</course>
  <speed>26.24</speed>
  <fix>3d</fix>
</trkpt>
<trkpt lat="-27.2720808" lon="151.2893463">
  <ele>389.56</ele>
  <time>2026-09-01T19:55:59Z</time>
  <course>342.87</course>
  <speed>26.220627376170846</speed>
  <fix>3d</fix>
</trkpt>
<trkpt lat="-27.2721221" lon="151.2893609">
  <ele>388.71</ele>
  <time>2026-09-01T19:55:59Z</time>
  <course>342.24</course>
  <speed>26.27</speed>
  <fix>3d</fix>
</trkpt>
<trkpt lat="-27.2720583" lon="151.2893382">
  <ele>389.98</ele>
  <time>2026-09-01T19:55:59Z</time>
  <course>342.85</course>
  <speed>26.23664612712532</speed>
  <fix>3d</fix>
</trkpt>
<trkpt lat="-27.2721221" lon="151.2893609">
  <ele>388.71</ele>
  <time>2026-09-01T19:55:59Z</time>
  <course>342.24</course>
  <speed>26.27</speed>
  <fix>3d</fix>
</trkpt>
<trkpt lat="-27.2720357" lon="151.2893301">
  <ele>390.41</ele>
  <time>2026-09-01T19:55:59Z</time>
  <course>342.84</course>
  <speed>26.24617495941075</speed>
  <fix>3d</fix>
</trkpt>
<trkpt lat="-27.2720772" lon="151.2893447">
  <ele>389.55</ele>
  <time>2026-09-01T19:55:59Z</time>
  <course>342.26</course>
  <speed>26.29</speed>
  <fix>3d</fix>
</trkpt>
<trkpt lat="-27.2720132" lon="151.289322">
  <ele>390.84</ele>
  <time>2026-09-01T19:55:59Z</time>
  <course>342.81</course>
  <speed>26.24617495941075</speed>
  <fix>3d</fix>
</trkpt>
<trkpt lat="-27.2720772" lon="151.2893447">
  <ele>389.55</ele>
  <time>2026-09-01T19:55:59Z</time>
  <course>342.26</course>
  <speed>26.29</speed>
  <fix>3d</fix>
</trkpt>
<trkpt lat="-27.2719908" lon="151.2893139">
  <ele>391.27</ele>
  <time>2026-09-01T19:55:59Z</time>
  <course>342.8</course>
  <speed>26.25873759341831</speed>
  <fix>3d</fix>
</trkpt>
<trkpt lat="-27.2720322" lon="151.2893286">
  <ele>390.4</ele>
  <time>2026-09-01T19:55:59Z</time>
  <course>342.28</course>
  <speed>26.31</speed>
  <fix>3d</fix>
</trkpt>
<trkpt lat="-27.2719683" lon="151.2893059">
  <ele>391.7</ele>
  <time>2026-09-01T19:55:59Z</time>
  <course>342.85</course>
  <speed>26.26826602575815</speed>
  <fix>3d</fix>
</trkpt>
<trkpt lat="-27.2720322" lon="151.2893286">
  <ele>390.4</ele>
  <time>2026-09-01T19:55:59Z</time>
  <course>342.28</course>
  <speed>26.31</speed>
  <fix>3d</fix>
</trkpt>
<trkpt lat="-27.2719458" lon="151.2892978">
  <ele>392.13</ele>
  <time>2026-09-01T19:55:59Z</time>
  <course>342.89</course>
  <speed>26.26826602575815</speed>
  <fix>3d</fix>
</trkpt>
<trkpt lat="-27.271987" lon="151.2893124">
  <ele>391.25</ele>
  <time>2026-09-01T19:55:59Z</time>
  <course>342.29</course>
  <speed>26.32</speed>
  <fix>3d</fix>
</trkpt>
<trkpt lat="-27.2719233" lon="151.2892897">
  <ele>392.55</ele>
  <time>2026-09-01T19:55:59Z</time>
  <course>342.89</course>
  <speed>26.25873759341831</speed>
  <fix>3d</fix>
</trkpt>
<trkpt lat="-27.271987" lon="151.2893124">
  <ele>391.25</ele>
  <time>2026-09-01T19:55:59Z</time>
  <course>342.29</course>
  <speed>26.32</speed>
  <fix>3d</fix>
</trkpt>
<trkpt lat="-27.2719008" lon="151.2892816">
  <ele>392.98</ele>
  <time>2026-09-01T19:55:59Z</time>
  <course>342.85</course>
  <speed>26.25873759341831</speed>
  <fix>3d</fix>
</trkpt>
<trkpt lat="-27.2719419" lon="151.2892962">
  <ele>392.1</ele>
  <time>2026-09-01T19:55:59Z</time>
  <course>342.29</course>
  <speed>26.34</speed>
  <fix>3d</fix>
</trkpt>
<trkpt lat="-27.2718784" lon="151.2892735">
  <ele>393.41</ele>
  <time>2026-09-01T19:55:59Z</time>
  <course>342.78</course>
  <speed>26.265233674955187</speed>
  <fix>3d</fix>
</trkpt>
<trkpt lat="-27.2719419" lon="151.2892962">
  <ele>392.1</ele>
  <time>2026-09-01T19:55:59Z</time>
  <course>342.29</course>
  <speed>26.34</speed>
  <fix>3d</fix>
</trkpt>
<trkpt lat="-27.2718559" lon="151.2892655">
  <ele>393.84</ele>
  <time>2026-09-01T19:55:59Z</time>
  <course>342.84</course>
  <speed>26.25873759341831</speed>
  <fix>3d</fix>
</trkpt>
<trkpt lat="-27.2718968" lon="151.28928">
  <ele>392.95</ele>
  <time>2026-09-01T19:55:59Z</time>
  <course>342.3</course>
  <speed>26.34</speed>
  <fix>3d</fix>
</trkpt>
<trkpt lat="-27.2718334" lon="151.2892574">
  <ele>394.28</ele>
  <time>2026-09-01T19:55:59Z</time>
  <course>342.88</course>
  <speed>26.255704142147856</speed>
  <fix>3d</fix>
</trkpt>
<trkpt lat="-27.2718968" lon="151.28928">
  <ele>392.95</ele>
  <time>2026-09-01T19:55:59Z</time>
  <course>342.3</course>
  <speed>26.34</speed>
  <fix>3d</fix>
</trkpt>
<trkpt lat="-27.2718108" lon="151.2892493">
  <ele>394.71</ele>
  <time>2026-09-01T19:55:59Z</time>
  <course>342.81</course>
  <speed>26.2431438665416</speed>
  <fix>3d</fix>
</trkpt>
<trkpt lat="-27.2718517" lon="151.2892638">
  <ele>393.81</ele>
  <time>2026-09-01T19:55:59Z</time>
  <course>342.3</course>
  <speed>26.33</speed>
  <fix>3d</fix>
</trkpt>
<trkpt lat="-27.2717884" lon="151.2892413">
  <ele>395.14</ele>
  <time>2026-09-01T19:55:59Z</time>
  <course>342.84</course>
  <speed>26.233613933272707</speed>
  <fix>3d</fix>
</trkpt>
<trkpt lat="-27.2718517" lon="151.2892638">
  <ele>393.81</ele>
  <time>2026-09-01T19:55:59Z</time>
  <course>342.3</course>
  <speed>26.33</speed>
  <fix>3d</fix>
</trkpt>
<trkpt lat="-27.2717659" lon="151.2892332">
  <ele>395.58</ele>
  <time>2026-09-01T19:55:59Z</time>
  <course>342.84</course>
  <speed>26.224084350077888</speed>
  <fix>3d</fix>
</trkpt>
<trkpt lat="-27.2718067" lon="151.2892477">
  <ele>394.66</ele>
  <time>2026-09-01T19:55:59Z</time>
  <course>342.31</course>
  <speed>26.32</speed>
  <fix>3d</fix>
</trkpt>
<trkpt lat="-27.2717434" lon="151.2892251">
  <ele>396.01</ele>
  <time>2026-09-01T19:55:59Z</time>
  <course>342.87</course>
  <speed>26.20502623543812</speed>
  <fix>3d</fix>
</trkpt>
<trkpt lat="-27.2718067" lon="151.2892477">
  <ele>394.66</ele>
  <time>2026-09-01T19:55:59Z</time>
  <course>342.31</course>
  <speed>26.32</speed>
  <fix>3d</fix>
</trkpt>
<trkpt lat="-27.2717209" lon="151.2892171">
  <ele>396.45</ele>
  <time>2026-09-01T19:55:59Z</time>
  <course>342.95</course>
  <speed>26.182935282355185</speed>
  <fix>3d</fix>
</trkpt>
<trkpt lat="-27.2717617" lon="151.2892315">
  <ele>395.53</ele>
  <time>2026-09-01T19:55:59Z</time>
  <course>342.3</course>
  <speed>26.29</speed>
  <fix>3d</fix>
</trkpt>
<trkpt lat="-27.2716985" lon="151.289209">
  <ele>396.88</ele>
  <time>2026-09-01T19:55:59Z</time>
  <course>342.97</course>
  <speed>26.170374471910026</speed>
  <fix>3d</fix>
</trkpt>
<trkpt lat="-27.2717617" lon="151.2892315">
  <ele>395.53</ele>
  <time>2026-09-01T19:55:59Z</time>
  <course>342.3</course>
  <speed>26.29</speed>
  <fix>3d</fix>
</trkpt>
<trkpt lat="-27.271676" lon="151.289201">
  <ele>397.32</ele>
  <time>2026-09-01T19:55:59Z</time>
  <course>342.91</course>
  <speed>26.15781527574503</speed>
  <fix>3d</fix>
</trkpt>
<trkpt lat="-27.2717167" lon="151.2892154">
  <ele>396.39</ele>
  <time>2026-09-01T19:55:59Z</time>
  <course>342.31</course>
  <speed>26.25</speed>
  <fix>3d</fix>
</trkpt>
<trkpt lat="-27.2716536" lon="151.2891929">
  <ele>397.75</ele>
  <time>2026-09-01T19:55:59Z</time>
  <course>342.89</course>
  <speed>26.126195666418788</speed>
  <fix>3d</fix>
</trkpt>
<trkpt lat="-27.2717167" lon="151.2892154">
  <ele>396.39</ele>
  <time>2026-09-01T19:55:59Z</time>
  <course>342.31</course>
  <speed>26.25</speed>
  <fix>3d</fix>
</trkpt>
<trkpt lat="-27.2716312" lon="151.2891849">
  <ele>398.18</ele>
  <time>2026-09-01T19:55:59Z</time>
  <course>342.86</course>
  <speed>26.097605254122456</speed>
  <fix>3d</fix>
</trkpt>
<trkpt lat="-27.2716718" lon="151.2891992">
  <ele>397.26</ele>
  <time>2026-09-01T19:55:59Z</time>
  <course>342.31</course>
  <speed>26.21</speed>
  <fix>3d</fix>
</trkpt>
<trkpt lat="-27.2716088" lon="151.2891769">
  <ele>398.61</ele>
  <time>2026-09-01T19:55:59Z</time>
  <course>342.78</course>
  <speed>26.0755153352719</speed>
  <fix>3d</fix>
</trkpt>
<trkpt lat="-27.2716718" lon="151.2891992">
  <ele>397.26</ele>
  <time>2026-09-01T19:55:59Z</time>
  <course>342.31</course>
  <speed>26.21</speed>
  <fix>3d</fix>
</trkpt>
<trkpt lat="-27.2715866" lon="151.2891689">
  <ele>399.04</ele>
  <time>2026-09-01T19:55:59Z</time>
  <course>342.8</course>
  <speed>26.05645601381738</speed>
  <fix>3d</fix>
</trkpt>
<trkpt lat="-27.271627" lon="151.2891832">
  <ele>398.12</ele>
  <time>2026-09-01T19:55:59Z</time>
  <course>342.31</course>
  <speed>26.16</speed>
  <fix>3d</fix>
</trkpt>
<trkpt lat="-27.2715643" lon="151.2891609">
  <ele>399.45</ele>
  <time>2026-09-01T19:55:59Z</time>
  <course>342.89</course>
  <speed>26.0469268820719</speed>
  <fix>3d</fix>
</trkpt>
<trkpt lat="-27.271627" lon="151.2891832">
  <ele>398.12</ele>
  <time>2026-09-01T19:55:59Z</time>
  <course>342.31</course>
  <speed>26.16</speed>
  <fix>3d</fix>
</trkpt>
<trkpt lat="-27.271542" lon="151.2891529">
  <ele>399.87</ele>
  <time>2026-09-01T19:55:59Z</time>
  <course>342.98</course>
  <speed>26.02180624015174</speed>
  <fix>3d</fix>
</trkpt>
<trkpt lat="-27.2715822" lon="151.2891671">
  <ele>398.97</ele>
  <time>2026-09-01T19:55:59Z</time>
  <course>342.3</course>
  <speed>26.12</speed>
  <fix>3d</fix>
</trkpt>
<trkpt lat="-27.2715196" lon="151.2891449">
  <ele>400.28</ele>
  <time>2026-09-01T19:55:59Z</time>
  <course>342.96</course>
  <speed>26.0027460088353</speed>
  <fix>3d</fix>
</trkpt>
<trkpt lat="-27.2715822" lon="151.2891671">
  <ele>398.97</ele>
  <time>2026-09-01T19:55:59Z</time>
  <course>342.3</course>
  <speed>26.12</speed>
  <fix>3d</fix>
</trkpt>
<trkpt lat="-27.2714973" lon="151.2891369">
  <ele>400.68</ele>
  <time>2026-09-01T19:55:59Z</time>
  <course>342.94</course>
  <speed>25.980656265768193</speed>
  <fix>3d</fix>
</trkpt>
<trkpt lat="-27.2715375" lon="151.2891511">
  <ele>399.8</ele>
  <time>2026-09-01T19:55:59Z</time>
  <course>342.31</course>
  <speed>26.07</speed>
  <fix>3d</fix>
</trkpt>
<trkpt lat="-27.2714749" lon="151.2891288">
  <ele>401.09</ele>
  <time>2026-09-01T19:55:59Z</time>
  <course>343.0</course>
  <speed>25.958566986642385</speed>
  <fix>3d</fix>
</trkpt>
<trkpt lat="-27.2715375" lon="151.2891511">
  <ele>399.8</ele>
  <time>2026-09-01T19:55:59Z</time>
  <course>342.31</course>
  <speed>26.07</speed>
  <fix>3d</fix>
</trkpt>
<trkpt lat="-27.2714526" lon="151.2891209">
  <ele>401.49</ele>
  <time>2026-09-01T19:55:59Z</time>
  <course>343.02</course>
  <speed>25.946009327062225</speed>
  <fix>3d</fix>
</trkpt>
<trkpt lat="-27.2714928" lon="151.2891351">
  <ele>400.62</ele>
  <time>2026-09-01T19:55:59Z</time>
  <course>342.32</course>
  <speed>26.03</speed>
  <fix>3d</fix>
</trkpt>
<trkpt lat="-27.2714302" lon="151.2891128">
  <ele>401.89</ele>
  <time>2026-09-01T19:55:59Z</time>
  <course>343.05</course>
  <speed>25.923921385469445</speed>
  <fix>3d</fix>
</trkpt>
<trkpt lat="-27.2714928" lon="151.2891351">
  <ele>400.62</ele>
  <time>2026-09-01T19:55:59Z</time>
  <course>342.32</course>
  <speed>26.03</speed>
  <fix>3d</fix>
</trkpt>
<trkpt lat="-27.2714079" lon="151.2891049">
  <ele>402.28</ele>
  <time>2026-09-01T19:55:59Z</time>
  <course>343.07</course>
  <speed>25.917879928728738</speed>
  <fix>3d</fix>
</trkpt>
<trkpt lat="-27.2714483" lon="151.2891191">
  <ele>401.43</ele>
  <time>2026-09-01T19:55:59Z</time>
  <course>342.34</course>
  <speed>25.99</speed>
  <fix>3d</fix>
</trkpt>
<trkpt lat="-27.2713857" lon="151.2890969">
  <ele>402.67</ele>
  <time>2026-09-01T19:55:59Z</time>
  <course>343.1</course>
  <speed>25.895795025447665</speed>
  <fix>3d</fix>
</trkpt>
<trkpt lat="-27.2714483" lon="151.2891191">
  <ele>401.43</ele>
  <time>2026-09-01T19:55:59Z</time>
  <course>342.34</course>
  <speed>25.99</speed>
  <fix>3d</fix>
</trkpt>
<trkpt lat="-27.2713635" lon="151.289089">
  <ele>403.06</ele>
  <time>2026-09-01T19:55:59Z</time>
  <course>343.04</course>
  <speed>25.870697709957494</speed>
  <fix>3d</fix>
</trkpt>
<trkpt lat="-27.2714039" lon="151.2891032">
  <ele>402.21</ele>
  <time>2026-09-01T19:55:59Z</time>
  <course>342.37</course>
  <speed>25.95</speed>
  <fix>3d</fix>
</trkpt>
<trkpt lat="-27.2713413" lon="151.2890811">
  <ele>403.45</ele>
  <time>2026-09-01T19:55:59Z</time>
  <course>343.01</course>
  <speed>25.861162000188624</speed>
  <fix>3d</fix>
</trkpt>
<trkpt lat="-27.2714039" lon="151.2891032">
  <ele>402.21</ele>
  <time>2026-09-01T19:55:59Z</time>
  <course>342.37</course>
  <speed>25.95</speed>
  <fix>3d</fix>
</trkpt>
<trkpt lat="-27.2713192" lon="151.2890732">
  <ele>403.83</ele>
  <time>2026-09-01T19:55:59Z</time>
  <course>343.12</course>
  <speed>25.839078930952628</speed>
  <fix>3d</fix>
</trkpt>
<trkpt lat="-27.2713595" lon="151.2890873">
  <ele>402.98</ele>
  <time>2026-09-01T19:55:59Z</time>
  <course>342.41</course>
  <speed>25.91</speed>
  <fix>3d</fix>
</trkpt>
<trkpt lat="-27.271297" lon="151.2890653">
  <ele>404.22</ele>
  <time>2026-09-01T19:55:59Z</time>
  <course>343.16</course>
  <speed>25.826532868350718</speed>
  <fix>3d</fix>
</trkpt>
<trkpt lat="-27.2713595" lon="151.2890873">
  <ele>402.98</ele>
  <time>2026-09-01T19:55:59Z</time>
  <course>342.41</course>
  <speed>25.91</speed>
  <fix>3d</fix>
</trkpt>
<trkpt lat="-27.2712749" lon="151.2890574">
  <ele>404.6</ele>
  <time>2026-09-01T19:55:59Z</time>
  <course>343.16</course>
  <speed>25.813988455874075</speed>
  <fix>3d</fix>
</trkpt>
<trkpt lat="-27.2713151" lon="151.2890716">
  <ele>403.75</ele>
  <time>2026-09-01T19:55:59Z</time>
  <course>342.43</course>
  <speed>25.87</speed>
  <fix>3d</fix>
</trkpt>
<trkpt lat="-27.2712527" lon="151.2890496">
  <ele>404.97</ele>
  <time>2026-09-01T19:55:59Z</time>
  <course>343.2</course>
  <speed>25.788904590928247</speed>
  <fix>3d</fix>
</trkpt>
<trkpt lat="-27.2713151" lon="151.2890716">
  <ele>403.75</ele>
  <time>2026-09-01T19:55:59Z</time>
  <course>342.43</course>
  <speed>25.87</speed>
  <fix>3d</fix>
</trkpt>
<trkpt lat="-27.2712306" lon="151.2890417">
  <ele>405.35</ele>
  <time>2026-09-01T19:55:59Z</time>
  <course>343.2</course>
  <speed>25.769827318008943</speed>
  <fix>3d</fix>
</trkpt>
<trkpt lat="-27.2712709" lon="151.2890558">
  <ele>404.51</ele>
  <time>2026-09-01T19:55:59Z</time>
  <course>342.46</course>
  <speed>25.84</speed>
  <fix>3d</fix>
</trkpt>
<trkpt lat="-27.2712085" lon="151.2890339">
  <ele>405.73</ele>
  <time>2026-09-01T19:55:59Z</time>
  <course>343.15</course>
  <speed>25.747747474293746</speed>
  <fix>3d</fix>
</trkpt>
<trkpt lat="-27.2712709" lon="151.2890558">
  <ele>404.51</ele>
  <time>2026-09-01T19:55:59Z</time>
  <course>342.46</course>
  <speed>25.84</speed>
  <fix>3d</fix>
</trkpt>
<trkpt lat="-27.2711864" lon="151.289026">
  <ele>406.11</ele>
  <time>2026-09-01T19:55:59Z</time>
  <course>343.12</course>
  <speed>25.725668115716644</speed>
  <fix>3d</fix>
</trkpt>
<trkpt lat="-27.2712267" lon="151.2890401">
  <ele>405.27</ele>
  <time>2026-09-01T19:55:59Z</time>
  <course>342.48</course>
  <speed>25.79</speed>
  <fix>3d</fix>
</trkpt>
<trkpt lat="-27.2711644" lon="151.2890182">
  <ele>406.49</ele>
  <time>2026-09-01T19:55:59Z</time>
  <course>343.14</course>
  <speed>25.706590594631567</speed>
  <fix>3d</fix>
</trkpt>
<trkpt lat="-27.2712267" lon="151.2890401">
  <ele>405.27</ele>
  <time>2026-09-01T19:55:59Z</time>
  <course>342.48</course>
  <speed>25.79</speed>
  <fix>3d</fix>
</trkpt>
<trkpt lat="-27.2711423" lon="151.2890104">
  <ele>406.87</ele>
  <time>2026-09-01T19:55:59Z</time>
  <course>343.24</course>
  <speed>25.706590594631567</speed>
  <fix>3d</fix>
</trkpt>
<trkpt lat="-27.2711825" lon="151.2890244">
  <ele>406.03</ele>
  <time>2026-09-01T19:55:59Z</time>
  <course>342.48</course>
  <speed>25.76</speed>
  <fix>3d</fix>
</trkpt>
<trkpt lat="-27.2711205" lon="151.2890026">
  <ele>407.25</ele>
  <time>2026-09-01T19:55:59Z</time>
  <course>343.27</course>
  <speed>25.697052360144344</speed>
  <fix>3d</fix>
</trkpt>
<trkpt lat="-27.2711825" lon="151.2890244">
  <ele>406.03</ele>
  <time>2026-09-01T19:55:59Z</time>
  <course>342.48</course>
  <speed>25.76</speed>
  <fix>3d</fix>
</trkpt>
<trkpt lat="-27.2710984" lon="151.2889948">
  <ele>407.62</ele>
  <time>2026-09-01T19:55:59Z</time>
  <course>343.25</course>
  <speed>25.67497224925472</speed>
  <fix>3d</fix>
</trkpt>
<trkpt lat="-27.2711384" lon="151.2890087">
  <ele>406.78</ele>
  <time>2026-09-01T19:55:59Z</time>
  <course>342.48</course>
  <speed>25.73</speed>
  <fix>3d</fix>
</trkpt>
<trkpt lat="-27.2710764" lon="151.288987">
  <ele>408.01</ele>
  <time>2026-09-01T19:55:59Z</time>
  <course>343.29</course>
  <speed>25.652892624419568</speed>
  <fix>3d</fix>
</trkpt>
<trkpt lat="-27.2711384" lon="151.2890087">
  <ele>406.78</ele>
  <time>2026-09-01T19:55:59Z</time>
  <course>342.48</course>
  <speed>25.73</speed>
  <fix>3d</fix>
</trkpt>
<trkpt lat="-27.2710544" lon="151.2889792">
  <ele>408.39</ele>
  <time>2026-09-01T19:55:59Z</time>
  <course>343.29</course>
  <speed>25.630813486895025</speed>
  <fix>3d</fix>
</trkpt>
<trkpt lat="-27.2710943" lon="151.2889932">
  <ele>407.54</ele>
  <time>2026-09-01T19:55:59Z</time>
  <course>342.49</course>
  <speed>25.7</speed>
  <fix>3d</fix>
</trkpt>
<trkpt lat="-27.2710323" lon="151.2889713">
  <ele>408.79</ele>
  <time>2026-09-01T19:55:59Z</time>
  <course>343.29</course>
  <speed>25.608734837941526</speed>
  <fix>3d</fix>
</trkpt>
<trkpt lat="-27.2710943" lon="151.2889932">
  <ele>407.54</ele>
  <time>2026-09-01T19:55:59Z</time>
  <course>342.49</course>
  <speed>25.7</speed>
  <fix>3d</fix>
</trkpt>
<trkpt lat="-27.2710103" lon="151.2889635">
  <ele>409.18</ele>
  <time>2026-09-01T19:55:59Z</time>
  <course>343.16</course>
  <speed>25.59619698314576</speed>
  <fix>3d</fix>
</trkpt>
<trkpt lat="-27.2710502" lon="151.2889775">
  <ele>408.3</ele>
  <time>2026-09-01T19:55:59Z</time>
  <course>342.51</course>
  <speed>25.65</speed>
  <fix>3d</fix>
</trkpt>
<trkpt lat="-27.2709884" lon="151.2889557">
  <ele>409.57</ele>
  <time>2026-09-01T19:55:59Z</time>
  <course>343.15</course>
  <speed>25.577116725698385</speed>
  <fix>3d</fix>
</trkpt>
<trkpt lat="-27.2710502" lon="151.2889775">
  <ele>408.3</ele>
  <time>2026-09-01T19:55:59Z</time>
  <course>342.51</course>
  <speed>25.65</speed>
  <fix>3d</fix>
</trkpt>
<trkpt lat="-27.2709657" lon="151.2889477">
  <ele>409.97</ele>
  <time>2026-09-01T19:55:59Z</time>
  <course>343.25</course>
  <speed>25.55803787461001</speed>
  <fix>3d</fix>
</trkpt>
<trkpt lat="-27.2710062" lon="151.2889619">
  <ele>409.08</ele>
  <time>2026-09-01T19:55:59Z</time>
  <course>342.52</course>
  <speed>25.62</speed>
  <fix>3d</fix>
</trkpt>
<trkpt lat="-27.2709438" lon="151.2889399">
  <ele>410.37</ele>
  <time>2026-09-01T19:55:59Z</time>
  <course>343.3</course>
  <speed>25.535958959866772</speed>
  <fix>3d</fix>
</trkpt>
<trkpt lat="-27.2710062" lon="151.2889619">
  <ele>409.08</ele>
  <time>2026-09-01T19:55:59Z</time>
  <course>342.52</course>
  <speed>25.62</speed>
  <fix>3d</fix>
</trkpt>
<trkpt lat="-27.270922" lon="151.2889322">
  <ele>410.77</ele>
  <time>2026-09-01T19:55:59Z</time>
  <course>343.25</course>
  <speed>25.523420617150826</speed>
  <fix>3d</fix>
</trkpt>
<trkpt lat="-27.2709624" lon="151.2889463">
  <ele>409.86</ele>
  <time>2026-09-01T19:55:59Z</time>
  <course>342.51</course>
  <speed>25.58</speed>
  <fix>3d</fix>
</trkpt>
<trkpt lat="-27.2709002" lon="151.2889245">
  <ele>411.17</ele>
  <time>2026-09-01T19:55:59Z</time>
  <course>343.26</course>
  <speed>25.50134310188387</speed>
  <fix>3d</fix>
</trkpt>
<trkpt lat="-27.2709624" lon="151.2889463">
  <ele>409.86</ele>
  <time>2026-09-01T19:55:59Z</time>
  <course>342.51</course>
  <speed>25.58</speed>
  <fix>3d</fix>
</trkpt>
<trkpt lat="-27.2708783" lon="151.2889167">
  <ele>411.56</ele>
  <time>2026-09-01T19:55:59Z</time>
  <course>343.18</course>
  <speed>25.482262458423897</speed>
  <fix>3d</fix>
</trkpt>
<trkpt lat="-27.2709186" lon="151.2889308">
  <ele>410.65</ele>
  <time>2026-09-01T19:55:59Z</time>
  <course>342.51</course>
  <speed>25.54</speed>
  <fix>3d</fix>
</trkpt>
<trkpt lat="-27.2708564" lon="151.288909">
  <ele>411.96</ele>
  <time>2026-09-01T19:55:59Z</time>
  <course>343.16</course>
  <speed>25.463183225983354</speed>
  <fix>3d</fix>
</trkpt>
<trkpt lat="-27.2709186" lon="151.2889308">
  <ele>410.65</ele>
  <time>2026-09-01T19:55:59Z</time>
  <course>342.51</course>
  <speed>25.54</speed>
  <fix>3d</fix>
</trkpt>
<trkpt lat="-27.270835" lon="151.2889014">
  <ele>412.36</ele>
  <time>2026-09-01T19:55:59Z</time>
  <course>343.23</course>
  <speed>25.45664746191061</speed>
  <fix>3d</fix>
</trkpt>
<trkpt lat="-27.2708748" lon="151.2889153">
  <ele>411.44</ele>
  <time>2026-09-01T19:55:59Z</time>
  <course>342.5</course>
  <speed>25.5</speed>
  <fix>3d</fix>
</trkpt>
<trkpt lat="-27.2708131" lon="151.2888936">
  <ele>412.75</ele>
  <time>2026-09-01T19:55:59Z</time>
  <course>343.18</course>
  <speed>25.437572604318987</speed>
  <fix>3d</fix>
</trkpt>
<trkpt lat="-27.2708748" lon="151.2889153">
  <ele>411.44</ele>
  <time>2026-09-01T19:55:59Z</time>
  <course>342.5</course>
  <speed>25.5</speed>
  <fix>3d</fix>
</trkpt>
<trkpt lat="-27.2707913" lon="151.2888858">
  <ele>413.15</ele>
  <time>2026-09-01T19:55:59Z</time>
  <course>343.17</course>
  <speed>25.418499168912394</speed>
  <fix>3d</fix>
</trkpt>
<trkpt lat="-27.2708311" lon="151.2888998">
  <ele>412.23</ele>
  <time>2026-09-01T19:55:59Z</time>
  <course>342.47</course>
  <speed>25.47</speed>
  <fix>3d</fix>
</trkpt>
<trkpt lat="-27.2707695" lon="151.2888781">
  <ele>413.55</ele>
  <time>2026-09-01T19:55:59Z</time>
  <course>343.15</course>
  <speed>25.40896298552934</speed>
  <fix>3d</fix>
</trkpt>
<trkpt lat="-27.2708311" lon="151.2888998">
  <ele>412.23</ele>
  <time>2026-09-01T19:55:59Z</time>
  <course>342.47</course>
  <speed>25.47</speed>
  <fix>3d</fix>
</trkpt>
<trkpt lat="-27.2707477" lon="151.2888703">
  <ele>413.95</ele>
  <time>2026-09-01T19:55:59Z</time>
  <course>343.18</course>
  <speed>25.399427158894746</speed>
  <fix>3d</fix>
</trkpt>
<trkpt lat="-27.2707876" lon="151.2888843">
  <ele>413.03</ele>
  <time>2026-09-01T19:55:59Z</time>
  <course>342.44</course>
  <speed>25.44</speed>
  <fix>3d</fix>
</trkpt>
<trkpt lat="-27.270726" lon="151.2888626">
  <ele>414.35</ele>
  <time>2026-09-01T19:55:59Z</time>
  <course>343.16</course>
  <speed>25.380356577479365</speed>
  <fix>3d</fix>
</trkpt>
<trkpt lat="-27.2707876" lon="151.2888843">
  <ele>413.03</ele>
  <time>2026-09-01T19:55:59Z</time>
  <course>342.44</course>
  <speed>25.44</speed>
  <fix>3d</fix>
</trkpt>
<trkpt lat="-27.2707042" lon="151.2888548">
  <ele>414.75</ele>
  <time>2026-09-01T19:55:59Z</time>
  <course>343.18</course>
  <speed>25.36128742788899</speed>
  <fix>3d</fix>
</trkpt>
<trkpt lat="-27.270744" lon="151.2888688">
  <ele>413.82</ele>
  <time>2026-09-01T19:55:59Z</time>
  <course>342.42</course>
  <speed>25.41</speed>
  <fix>3d</fix>
</trkpt>
<trkpt lat="-27.2706825" lon="151.288847">
  <ele>415.16</ele>
  <time>2026-09-01T19:55:59Z</time>
  <course>343.15</course>
  <speed>25.33920282881843</speed>
  <fix>3d</fix>
</trkpt>
<trkpt lat="-27.270744" lon="151.2888688">
  <ele>413.82</ele>
  <time>2026-09-01T19:55:59Z</time>
  <course>342.42</course>
  <speed>25.41</speed>
  <fix>3d</fix>
</trkpt>
<trkpt lat="-27.2706609" lon="151.2888393">
  <ele>415.56</ele>
  <time>2026-09-01T19:55:59Z</time>
  <course>343.06</course>
  <speed>25.320134280844563</speed>
  <fix>3d</fix>
</trkpt>
<trkpt lat="-27.2707006" lon="151.2888533">
  <ele>414.62</ele>
  <time>2026-09-01T19:55:59Z</time>
  <course>342.41</course>
  <speed>25.37</speed>
  <fix>3d</fix>
</trkpt>
<trkpt lat="-27.2706392" lon="151.2888316">
  <ele>415.98</ele>
  <time>2026-09-01T19:55:59Z</time>
  <course>342.98</course>
  <speed>25.30106717116889</speed>
  <fix>3d</fix>
</trkpt>
<trkpt lat="-27.2707006" lon="151.2888533">
  <ele>414.62</ele>
  <time>2026-09-01T19:55:59Z</time>
  <course>342.41</course>
  <speed>25.37</speed>
  <fix>3d</fix>
</trkpt>
<trkpt lat="-27.2706175" lon="151.2888238">
  <ele>416.39</ele>
  <time>2026-09-01T19:55:59Z</time>
  <course>342.99</course>
  <speed>25.294556726695173</speed>
  <fix>3d</fix>
</trkpt>
<trkpt lat="-27.2706572" lon="151.2888379">
  <ele>415.43</ele>
  <time>2026-09-01T19:55:59Z</time>
  <course>342.4</course>
  <speed>25.33</speed>
  <fix>3d</fix>
</trkpt>
<trkpt lat="-27.2705958" lon="151.2888161">
  <ele>416.8</ele>
  <time>2026-09-01T19:55:59Z</time>
  <course>343.01</course>
  <speed>25.285025212564054</speed>
  <fix>3d</fix>
</trkpt>
<trkpt lat="-27.2706572" lon="151.2888379">
  <ele>415.43</ele>
  <time>2026-09-01T19:55:59Z</time>
  <course>342.4</course>
  <speed>25.33</speed>
  <fix>3d</fix>
</trkpt>
<trkpt lat="-27.2705739" lon="151.2888082">
  <ele>417.22</ele>
  <time>2026-09-01T19:55:59Z</time>
  <course>343.09</course>
  <speed>25.262937279738477</speed>
  <fix>3d</fix>
</trkpt>
<trkpt lat="-27.2706137" lon="151.2888224">
  <ele>416.25</ele>
  <time>2026-09-01T19:55:59Z</time>
  <course>342.36</course>
  <speed>25.29</speed>
  <fix>3d</fix>
</trkpt>
<trkpt lat="-27.2705523" lon="151.2888005">
  <ele>417.63</ele>
  <time>2026-09-01T19:55:59Z</time>
  <course>342.99</course>
  <speed>25.240849827214614</speed>
  <fix>3d</fix>
</trkpt>
<trkpt lat="-27.2706137" lon="151.2888224">
  <ele>416.25</ele>
  <time>2026-09-01T19:55:59Z</time>
  <course>342.36</course>
  <speed>25.29</speed>
  <fix>3d</fix>
</trkpt>
<trkpt lat="-27.2705306" lon="151.2887927">
  <ele>418.04</ele>
  <time>2026-09-01T19:55:59Z</time>
  <course>343.02</course>
  <speed>25.23131784112752</speed>
  <fix>3d</fix>
</trkpt>
<trkpt lat="-27.2705703" lon="151.2888068">
  <ele>417.08</ele>
  <time>2026-09-01T19:55:59Z</time>
  <course>342.35</course>
  <speed>25.26</speed>
  <fix>3d</fix>
</trkpt>
<trkpt lat="-27.2705083" lon="151.2887848">
  <ele>418.47</ele>
  <time>2026-09-01T19:55:59Z</time>
  <course>343.08</course>
  <speed>25.218762856254465</speed>
  <fix>3d</fix>
</trkpt>
<trkpt lat="-27.2705703" lon="151.2888068">
  <ele>417.08</ele>
  <time>2026-09-01T19:55:59Z</time>
  <course>342.35</course>
  <speed>25.26</speed>
  <fix>3d</fix>
</trkpt>
<trkpt lat="-27.2704868" lon="151.2887771">
  <ele>418.89</ele>
  <time>2026-09-01T19:55:59Z</time>
  <course>343.14</course>
  <speed>25.218762856254465</speed>
  <fix>3d</fix>
</trkpt>
<trkpt lat="-27.2705272" lon="151.2887913">
  <ele>417.9</ele>
  <time>2026-09-01T19:55:59Z</time>
  <course>342.35</course>
  <speed>25.22</speed>
  <fix>3d</fix>
</trkpt>
<trkpt lat="-27.2704652" lon="151.2887694">
  <ele>419.3</ele>
  <time>2026-09-01T19:55:59Z</time>
  <course>343.12</course>
  <speed>25.206209552409902</speed>
  <fix>3d</fix>
</trkpt>
<trkpt lat="-27.2705272" lon="151.2887913">
  <ele>417.9</ele>
  <time>2026-09-01T19:55:59Z</time>
  <course>342.35</course>
  <speed>25.22</speed>
  <fix>3d</fix>
</trkpt>
<trkpt lat="-27.2704436" lon="151.2887616">
  <ele>419.73</ele>
  <time>2026-09-01T19:55:59Z</time>
  <course>343.11</course>
  <speed>25.187143545864824</speed>
  <fix>3d</fix>
</trkpt>
<trkpt lat="-27.270484" lon="151.2887759">
  <ele>418.74</ele>
  <time>2026-09-01T19:55:59Z</time>
  <course>342.36</course>
  <speed>25.2</speed>
  <fix>3d</fix>
</trkpt>
<trkpt lat="-27.270422" lon="151.2887539">
  <ele>420.15</ele>
  <time>2026-09-01T19:55:59Z</time>
  <course>343.14</course>
  <speed>25.1745903640953</speed>
  <fix>3d</fix>
</trkpt>
<trkpt lat="-27.270484" lon="151.2887759">
  <ele>418.74</ele>
  <time>2026-09-01T19:55:59Z</time>
  <course>342.36</course>
  <speed>25.2</speed>
  <fix>3d</fix>
</trkpt>
<trkpt lat="-27.2704004" lon="151.2887462">
  <ele>420.58</ele>
  <time>2026-09-01T19:55:59Z</time>
  <course>343.12</course>
  <speed>25.165057122923443</speed>
  <fix>3d</fix>
</trkpt>
<trkpt lat="-27.2704409" lon="151.2887605">
  <ele>419.58</ele>
  <time>2026-09-01T19:55:59Z</time>
  <course>342.37</course>
  <speed>25.18</speed>
  <fix>3d</fix>
</trkpt>
<trkpt lat="-27.2703787" lon="151.2887384">
  <ele>421.01</ele>
  <time>2026-09-01T19:55:59Z</time>
  <course>342.97</course>
  <speed>25.155524244189387</speed>
  <fix>3d</fix>
</trkpt>
<trkpt lat="-27.2704409" lon="151.2887605">
  <ele>419.58</ele>
  <time>2026-09-01T19:55:59Z</time>
  <course>342.37</course>
  <speed>25.18</speed>
  <fix>3d</fix>
</trkpt>
<trkpt lat="-27.2703571" lon="151.2887307">
  <ele>421.44</ele>
  <time>2026-09-01T19:55:59Z</time>
  <course>342.99</course>
  <speed>25.139484879368553</speed>
  <fix>3d</fix>
</trkpt>
<trkpt lat="-27.2703978" lon="151.2887451">
  <ele>420.42</ele>
  <time>2026-09-01T19:55:59Z</time>
  <course>342.36</course>
  <speed>25.15</speed>
  <fix>3d</fix>
</trkpt>
<trkpt lat="-27.2703356" lon="151.288723">
  <ele>421.87</ele>
  <time>2026-09-01T19:55:59Z</time>
  <course>343.05</course>
  <speed>25.129954237920927</speed>
  <fix>3d</fix>
</trkpt>
<trkpt lat="-27.2703978" lon="151.2887451">
  <ele>420.42</ele>
  <time>2026-09-01T19:55:59Z</time>
  <course>342.36</course>
  <speed>25.15</speed>
  <fix>3d</fix>
</trkpt>
<trkpt lat="-27.2703141" lon="151.2887153">
  <ele>422.3</ele>
  <time>2026-09-01T19:55:59Z</time>
  <course>343.11</course>
  <speed>25.12042396139046</speed>
  <fix>3d</fix>
</trkpt>
<trkpt lat="-27.2703548" lon="151.2887298">
  <ele>421.28</ele>
  <time>2026-09-01T19:55:59Z</time>
  <course>342.34</course>
  <speed>25.12</speed>
  <fix>3d</fix>
</trkpt>
<trkpt lat="-27.2702926" lon="151.2887076">
  <ele>422.73</ele>
  <time>2026-09-01T19:55:59Z</time>
  <course>343.08</course>
  <speed>25.110894050192638</speed>
  <fix>3d</fix>
</trkpt>
<trkpt lat="-27.2703548" lon="151.2887298">
  <ele>421.28</ele>
  <time>2026-09-01T19:55:59Z</time>
  <course>342.34</course>
  <speed>25.12</speed>
  <fix>3d</fix>
</trkpt>
<trkpt lat="-27.2702711" lon="151.2886999">
  <ele>423.16</ele>
  <time>2026-09-01T19:55:59Z</time>
  <course>343.01</course>
  <speed>25.098334606104846</speed>
  <fix>3d</fix>
</trkpt>
<trkpt lat="-27.2703118" lon="151.2887144">
  <ele>422.14</ele>
  <time>2026-09-01T19:55:59Z</time>
  <course>342.32</course>
  <speed>25.1</speed>
  <fix>3d</fix>
</trkpt>
<trkpt lat="-27.2702496" lon="151.2886922">
  <ele>423.59</ele>
  <time>2026-09-01T19:55:59Z</time>
  <course>343.0</course>
  <speed>25.088804276011242</speed>
  <fix>3d</fix>
</trkpt>
<trkpt lat="-27.2703118" lon="151.2887144">
  <ele>422.14</ele>
  <time>2026-09-01T19:55:59Z</time>
  <course>342.32</course>
  <speed>25.1</speed>
  <fix>3d</fix>
</trkpt>
<trkpt lat="-27.2702287" lon="151.2886847">
  <ele>424.01</ele>
  <time>2026-09-01T19:55:59Z</time>
  <course>343.04</course>
  <speed>25.088804276011242</speed>
  <fix>3d</fix>
</trkpt>
<trkpt lat="-27.2702689" lon="151.288699">
  <ele>423.0</ele>
  <time>2026-09-01T19:55:59Z</time>
  <course>342.32</course>
  <speed>25.08</speed>
  <fix>3d</fix>
</trkpt>
<trkpt lat="-27.2702074" lon="151.2886771">
  <ele>424.44</ele>
  <time>2026-09-01T19:55:59Z</time>
  <course>343.12</course>
  <speed>25.079274311670183</speed>
  <fix>3d</fix>
</trkpt>
<trkpt lat="-27.2702689" lon="151.288699">
  <ele>423.0</ele>
  <time>2026-09-01T19:55:59Z</time>
  <course>342.32</course>
  <speed>25.08</speed>
  <fix>3d</fix>
</trkpt>
<trkpt lat="-27.2701859" lon="151.2886694">
  <ele>424.88</ele>
  <time>2026-09-01T19:55:59Z</time>
  <course>343.12</course>
  <speed>25.066714982222937</speed>
  <fix>3d</fix>
</trkpt>
<trkpt lat="-27.270226" lon="151.2886835">
  <ele>423.86</ele>
  <time>2026-09-01T19:55:59Z</time>
  <course>342.31</course>
  <speed>25.06</speed>
  <fix>3d</fix>
</trkpt>
<trkpt lat="-27.2701644" lon="151.2886617">
  <ele>425.31</ele>
  <time>2026-09-01T19:55:59Z</time>
  <course>343.2</course>
  <speed>25.060666391778174</speed>
  <fix>3d</fix>
</trkpt>
<trkpt lat="-27.270226" lon="151.2886835">
  <ele>423.86</ele>
  <time>2026-09-01T19:55:59Z</time>
  <course>342.31</course>
  <speed>25.06</speed>
  <fix>3d</fix>
</trkpt>
<trkpt lat="-27.2701429" lon="151.288654">
  <ele>425.75</ele>
  <time>2026-09-01T19:55:59Z</time>
  <course>343.14</course>
  <speed>25.05764753523363</speed>
  <fix>3d</fix>
</trkpt>
<trkpt lat="-27.2701831" lon="151.2886682">
  <ele>424.73</ele>
  <time>2026-09-01T19:55:59Z</time>
  <course>342.33</course>
  <speed>25.05</speed>
  <fix>3d</fix>
</trkpt>
<trkpt lat="-27.2701213" lon="151.2886463">
  <ele>426.2</ele>
  <time>2026-09-01T19:55:59Z</time>
  <course>343.1</course>
  <speed>25.048113701434687</speed>
  <fix>3d</fix>
</trkpt>
<trkpt lat="-27.2701831" lon="151.2886682">
  <ele>424.73</ele>
  <time>2026-09-01T19:55:59Z</time>
  <course>342.33</course>
  <speed>25.05</speed>
  <fix>3d</fix>
</trkpt>
<trkpt lat="-27.2700998" lon="151.2886386">
  <ele>426.64</ele>
  <time>2026-09-01T19:55:59Z</time>
  <course>343.14</course>
  <speed>25.04509732462623</speed>
  <fix>3d</fix>
</trkpt>
<trkpt lat="-27.2701402" lon="151.2886528">
  <ele>425.61</ele>
  <time>2026-09-01T19:55:59Z</time>
  <course>342.36</course>
  <speed>25.04</speed>
  <fix>3d</fix>
</trkpt>
<trkpt lat="-27.2700783" lon="151.2886309">
  <ele>427.08</ele>
  <time>2026-09-01T19:55:59Z</time>
  <course>343.18</course>
  <speed>25.03556270587901</speed>
  <fix>3d</fix>
</trkpt>
<trkpt lat="-27.2701402" lon="151.2886528">
  <ele>425.61</ele>
  <time>2026-09-01T19:55:59Z</time>
  <course>342.36</course>
  <speed>25.04</speed>
  <fix>3d</fix>
</trkpt>
<trkpt lat="-27.2700561" lon="151.288623">
  <ele>427.54</ele>
  <time>2026-09-01T19:55:59Z</time>
  <course>343.14</course>
  <speed>25.0260284503954</speed>
  <fix>3d</fix>
</trkpt>
<trkpt lat="-27.2700972" lon="151.2886374">
  <ele>426.5</ele>
  <time>2026-09-01T19:55:59Z</time>
  <course>342.38</course>
  <speed>25.02</speed>
  <fix>3d</fix>
</trkpt>
<trkpt lat="-27.2700348" lon="151.2886154">
  <ele>427.99</ele>
  <time>2026-09-01T19:55:59Z</time>
  <course>343.1</course>
  <speed>25.0260284503954</speed>
  <fix>3d</fix>
</trkpt>
<trkpt lat="-27.2700972" lon="151.2886374">
  <ele>426.5</ele>
  <time>2026-09-01T19:55:59Z</time>
  <course>342.38</course>
  <speed>25.02</speed>
  <fix>3d</fix>
</trkpt>
<trkpt lat="-27.2700133" lon="151.2886077">
  <ele>428.44</ele>
  <time>2026-09-01T19:55:59Z</time>
  <course>343.06</course>
  <speed>25.03858023131503</speed>
  <fix>3d</fix>
</trkpt>
<trkpt lat="-27.2700544" lon="151.2886221">
  <ele>427.39</ele>
  <time>2026-09-01T19:55:59Z</time>
  <course>342.38</course>
  <speed>25.01</speed>
  <fix>3d</fix>
</trkpt>
<trkpt lat="-27.2699919" lon="151.2886">
  <ele>428.88</ele>
  <time>2026-09-01T19:55:59Z</time>
  <course>343.05</course>
  <speed>25.03858023131503</speed>
  <fix>3d</fix>
</trkpt>
<trkpt lat="-27.2700544" lon="151.2886221">
  <ele>427.39</ele>
  <time>2026-09-01T19:55:59Z</time>
  <course>342.38</course>
  <speed>25.01</speed>
  <fix>3d</fix>
</trkpt>
<trkpt lat="-27.2699704" lon="151.2885923">
  <ele>429.33</ele>
  <time>2026-09-01T19:55:59Z</time>
  <course>343.04</course>
  <speed>25.04160138649284</speed>
  <fix>3d</fix>
</trkpt>
<trkpt lat="-27.2700115" lon="151.2886068">
  <ele>428.28</ele>
  <time>2026-09-01T19:55:59Z</time>
  <course>342.37</course>
  <speed>25.0</speed>
  <fix>3d</fix>
</trkpt>
<trkpt lat="-27.2699487" lon="151.2885846">
  <ele>429.79</ele>
  <time>2026-09-01T19:55:59Z</time>
  <course>342.98</course>
  <speed>25.032069431031864</speed>
  <fix>3d</fix>
</trkpt>
<trkpt lat="-27.2700115" lon="151.2886068">
  <ele>428.28</ele>
  <time>2026-09-01T19:55:59Z</time>
  <course>342.37</course>
  <speed>25.0</speed>
  <fix>3d</fix>
</trkpt>
<trkpt lat="-27.2699272" lon="151.2885769">
  <ele>430.24</ele>
  <time>2026-09-01T19:55:59Z</time>
  <course>342.96</course>
  <speed>25.035095366305278</speed>
  <fix>3d</fix>
</trkpt>
<trkpt lat="-27.2699688" lon="151.2885915">
  <ele>429.19</ele>
  <time>2026-09-01T19:55:59Z</time>
  <course>342.34</course>
  <speed>25.0</speed>
  <fix>3d</fix>
</trkpt>
<trkpt lat="-27.2699058" lon="151.2885692">
  <ele>430.69</ele>
  <time>2026-09-01T19:55:59Z</time>
  <course>342.98</course>
  <speed>25.028595645780847</speed>
  <fix>3d</fix>
</trkpt>
<trkpt lat="-27.2699688" lon="151.2885915">
  <ele>429.19</ele>
  <time>2026-09-01T19:55:59Z</time>
  <course>342.34</course>
  <speed>25.0</speed>
  <fix>3d</fix>
</trkpt>
<trkpt lat="-27.2698843" lon="151.2885615">
  <ele>431.15</ele>
  <time>2026-09-01T19:55:59Z</time>
  <course>342.97</course>
  <speed>25.031629990873547</speed>
  <fix>3d</fix>
</trkpt>
<trkpt lat="-27.269926" lon="151.2885762">
  <ele>430.09</ele>
  <time>2026-09-01T19:55:59Z</time>
  <course>342.29</course>
  <speed>24.99</speed>
  <fix>3d</fix>
</trkpt>
<trkpt lat="-27.2698629" lon="151.2885537">
  <ele>431.6</ele>
  <time>2026-09-01T19:55:59Z</time>
  <course>343.04</course>
  <speed>25.022102229828732</speed>
  <fix>3d</fix>
</trkpt>
<trkpt lat="-27.269926" lon="151.2885762">
  <ele>430.09</ele>
  <time>2026-09-01T19:55:59Z</time>
  <course>342.29</course>
  <speed>24.99</speed>
  <fix>3d</fix>
</trkpt>
<trkpt lat="-27.2698414" lon="151.288546">
  <ele>432.05</ele>
  <time>2026-09-01T19:55:59Z</time>
  <course>343.08</course>
  <speed>25.019066729196755</speed>
  <fix>3d</fix>
</trkpt>
<trkpt lat="-27.2698832" lon="151.2885608">
  <ele>430.99</ele>
  <time>2026-09-01T19:55:59Z</time>
  <course>342.26</course>
  <speed>24.98</speed>
  <fix>3d</fix>
</trkpt>
<trkpt lat="-27.26982" lon="151.2885383">
  <ele>432.51</ele>
  <time>2026-09-01T19:55:59Z</time>
  <course>343.1</course>
  <speed>25.028595645780847</speed>
  <fix>3d</fix>
</trkpt>
<trkpt lat="-27.2698832" lon="151.2885608">
  <ele>430.99</ele>
  <time>2026-09-01T19:55:59Z</time>
  <course>342.26</course>
  <speed>24.98</speed>
  <fix>3d</fix>
</trkpt>
<trkpt lat="-27.2697986" lon="151.2885306">
  <ele>432.96</ele>
  <time>2026-09-01T19:55:59Z</time>
  <course>343.09</course>
  <speed>25.02556492868842</speed>
  <fix>3d</fix>
</trkpt>
<trkpt lat="-27.2698405" lon="151.2885455">
  <ele>431.89</ele>
  <time>2026-09-01T19:55:59Z</time>
  <course>342.26</course>
  <speed>24.98</speed>
  <fix>3d</fix>
</trkpt>
<trkpt lat="-27.2697771" lon="151.2885229">
  <ele>433.41</ele>
  <time>2026-09-01T19:55:59Z</time>
  <course>342.98</course>
  <speed>25.022537840914538</speed>
  <fix>3d</fix>
</trkpt>
<trkpt lat="-27.2698405" lon="151.2885455">
  <ele>431.89</ele>
  <time>2026-09-01T19:55:59Z</time>
  <course>342.26</course>
  <speed>24.98</speed>
  <fix>3d</fix>
</trkpt>
<trkpt lat="-27.2697557" lon="151.2885153">
  <ele>433.86</ele>
  <time>2026-09-01T19:55:59Z</time>
  <course>343.02</course>
  <speed>25.032069431031864</speed>
  <fix>3d</fix>
</trkpt>
<trkpt lat="-27.2697978" lon="151.2885301">
  <ele>432.8</ele>
  <time>2026-09-01T19:55:59Z</time>
  <course>342.28</course>
  <speed>24.98</speed>
  <fix>3d</fix>
</trkpt>
<trkpt lat="-27.2697343" lon="151.2885076">
  <ele>434.31</ele>
  <time>2026-09-01T19:55:59Z</time>
  <course>343.03</course>
  <speed>25.04160138649284</speed>
  <fix>3d</fix>
</trkpt>
<trkpt lat="-27.2697978" lon="151.2885301">
  <ele>432.8</ele>
  <time>2026-09-01T19:55:59Z</time>
  <course>342.28</course>
  <speed>24.98</speed>
  <fix>3d</fix>
</trkpt>
<trkpt lat="-27.2697129" lon="151.2884999">
  <ele>434.76</ele>
  <time>2026-09-01T19:55:59Z</time>
  <course>343.01</course>
  <speed>25.04160138649284</speed>
  <fix>3d</fix>
</trkpt>
<trkpt lat="-27.2697551" lon="151.2885147">
  <ele>433.7</ele>
  <time>2026-09-01T19:55:59Z</time>
  <course>342.31</course>
  <speed>24.98</speed>
  <fix>3d</fix>
</trkpt>
<trkpt lat="-27.2696914" lon="151.2884922">
  <ele>435.2</ele>
  <time>2026-09-01T19:55:59Z</time>
  <course>343.06</course>
  <speed>25.04160138649284</speed>
  <fix>3d</fix>
</trkpt>
<trkpt lat="-27.2697551" lon="151.2885147">
  <ele>433.7</ele>
  <time>2026-09-01T19:55:59Z</time>
  <course>342.31</course>
  <speed>24.98</speed>
  <fix>3d</fix>
</trkpt>
<trkpt lat="-27.26967" lon="151.2884846">
  <ele>435.64</ele>
  <time>2026-09-01T19:55:59Z</time>
  <course>343.05</course>
  <speed>25.048113701434687</speed>
  <fix>3d</fix>
</trkpt>
<trkpt lat="-27.2697122" lon="151.2884993">
  <ele>434.59</ele>
  <time>2026-09-01T19:55:59Z</time>
  <course>342.33</course>
  <speed>24.99</speed>
  <fix>3d</fix>
</trkpt>
<trkpt lat="-27.2696486" lon="151.2884769">
  <ele>436.08</ele>
  <time>2026-09-01T19:55:59Z</time>
  <course>343.1</course>
  <speed>25.05764753523363</speed>
  <fix>3d</fix>
</trkpt>
<trkpt lat="-27.2697122" lon="151.2884993">
  <ele>434.59</ele>
  <time>2026-09-01T19:55:59Z</time>
  <course>342.33</course>
  <speed>24.99</speed>
  <fix>3d</fix>
</trkpt>
<trkpt lat="-27.2696277" lon="151.2884694">
  <ele>436.51</ele>
  <time>2026-09-01T19:55:59Z</time>
  <course>343.08</course>
  <speed>25.05764753523363</speed>
  <fix>3d</fix>
</trkpt>
<trkpt lat="-27.2696694" lon="151.288484">
  <ele>435.49</ele>
  <time>2026-09-01T19:55:59Z</time>
  <course>342.35</course>
  <speed>25.0</speed>
  <fix>3d</fix>
</trkpt>
<trkpt lat="-27.2696055" lon="151.2884615">
  <ele>436.95</ele>
  <time>2026-09-01T19:55:59Z</time>
  <course>343.07</course>
  <speed>25.05764753523363</speed>
  <fix>3d</fix>
</trkpt>
<trkpt lat="-27.2696694" lon="151.288484">
  <ele>435.49</ele>
  <time>2026-09-01T19:55:59Z</time>
  <course>342.35</course>
  <speed>25.0</speed>
  <fix>3d</fix>
</trkpt>
<trkpt lat="-27.2695844" lon="151.2884539">
  <ele>437.38</ele>
  <time>2026-09-01T19:55:59Z</time>
  <course>343.06</course>
  <speed>25.05764753523363</speed>
  <fix>3d</fix>
</trkpt>
<trkpt lat="-27.2696266" lon="151.2884687">
  <ele>436.36</ele>
  <time>2026-09-01T19:55:59Z</time>
  <course>342.37</course>
  <speed>25.01</speed>
  <fix>3d</fix>
</trkpt>
<trkpt lat="-27.269563" lon="151.2884463">
  <ele>437.82</ele>
  <time>2026-09-01T19:55:59Z</time>
  <course>342.99</course>
  <speed>25.05764753523363</speed>
  <fix>3d</fix>
</trkpt>
<trkpt lat="-27.2696266" lon="151.2884687">
  <ele>436.36</ele>
  <time>2026-09-01T19:55:59Z</time>
  <course>342.37</course>
  <speed>25.01</speed>
  <fix>3d</fix>
</trkpt>
<trkpt lat="-27.2695418" lon="151.2884387">
  <ele>438.26</ele>
  <time>2026-09-01T19:55:59Z</time>
  <course>342.97</course>
  <speed>25.05764753523363</speed>
  <fix>3d</fix>
</trkpt>
<trkpt lat="-27.2695837" lon="151.2884534">
  <ele>437.22</ele>
  <time>2026-09-01T19:55:59Z</time>
  <course>342.36</course>
  <speed>25.02</speed>
  <fix>3d</fix>
</trkpt>
<trkpt lat="-27.2695204" lon="151.2884311">
  <ele>438.69</ele>
  <time>2026-09-01T19:55:59Z</time>
  <course>342.97</course>
  <speed>25.060666391778174</speed>
  <fix>3d</fix>
</trkpt>
<trkpt lat="-27.2695837" lon="151.2884534">
  <ele>437.22</ele>
  <time>2026-09-01T19:55:59Z</time>
  <course>342.36</course>
  <speed>25.02</speed>
  <fix>3d</fix>
</trkpt>
<trkpt lat="-27.269499" lon="151.2884234">
  <ele>439.12</ele>
  <time>2026-09-01T19:55:59Z</time>
  <course>343.0</course>
  <speed>25.060666391778174</speed>
  <fix>3d</fix>
</trkpt>
<trkpt lat="-27.2695409" lon="151.2884381">
  <ele>438.09</ele>
  <time>2026-09-01T19:55:59Z</time>
  <course>342.35</course>
  <speed>25.04</speed>
  <fix>3d</fix>
</trkpt>
<trkpt lat="-27.2694777" lon="151.2884157">
  <ele>439.54</ele>
  <time>2026-09-01T19:55:59Z</time>
  <course>342.97</course>
  <speed>25.060666391778174</speed>
  <fix>3d</fix>
</trkpt>
<trkpt lat="-27.2695409" lon="151.2884381">
  <ele>438.09</ele>
  <time>2026-09-01T19:55:59Z</time>
  <course>342.35</course>
  <speed>25.04</speed>
  <fix>3d</fix>
</trkpt>
<trkpt lat="-27.2694564" lon="151.2884081">
  <ele>439.97</ele>
  <time>2026-09-01T19:55:59Z</time>
  <course>343.01</course>
  <speed>25.060666391778174</speed>
  <fix>3d</fix>
</trkpt>
<trkpt lat="-27.269498" lon="151.2884227">
  <ele>438.94</ele>
  <time>2026-09-01T19:55:59Z</time>
  <course>342.34</course>
  <speed>25.05</speed>
  <fix>3d</fix>
</trkpt>
<trkpt lat="-27.269435" lon="151.2884005">
  <ele>440.39</ele>
  <time>2026-09-01T19:55:59Z</time>
  <course>343.05</course>
  <speed>25.05764753523363</speed>
  <fix>3d</fix>
</trkpt>
<trkpt lat="-27.269498" lon="151.2884227">
  <ele>438.94</ele>
  <time>2026-09-01T19:55:59Z</time>
  <course>342.34</course>
  <speed>25.05</speed>
  <fix>3d</fix>
</trkpt>
<trkpt lat="-27.2694136" lon="151.2883928">
  <ele>440.81</ele>
  <time>2026-09-01T19:55:59Z</time>
  <course>342.98</course>
  <speed>25.060666391778174</speed>
  <fix>3d</fix>
</trkpt>
<trkpt lat="-27.2694551" lon="151.2884073">
  <ele>439.79</ele>
  <time>2026-09-01T19:55:59Z</time>
  <course>342.35</course>
  <speed>25.07</speed>
  <fix>3d</fix>
</trkpt>
<trkpt lat="-27.2693923" lon="151.2883852">
  <ele>441.23</ele>
  <time>2026-09-01T19:55:59Z</time>
  <course>342.91</course>
  <speed>25.07322077436403</speed>
  <fix>3d</fix>
</trkpt>
<trkpt lat="-27.2694551" lon="151.2884073">
  <ele>439.79</ele>
  <time>2026-09-01T19:55:59Z</time>
  <course>342.35</course>
  <speed>25.07</speed>
  <fix>3d</fix>
</trkpt>
<trkpt lat="-27.2693709" lon="151.2883775">
  <ele>441.65</ele>
  <time>2026-09-01T19:55:59Z</time>
  <course>342.87</course>
  <speed>25.082753038691745</speed>
  <fix>3d</fix>
</trkpt>
<trkpt lat="-27.2694122" lon="151.288392">
  <ele>440.64</ele>
  <time>2026-09-01T19:55:59Z</time>
  <course>342.35</course>
  <speed>25.09</speed>
  <fix>3d</fix>
</trkpt>
<trkpt lat="-27.2693494" lon="151.2883698">
  <ele>442.06</ele>
  <time>2026-09-01T19:55:59Z</time>
  <course>342.89</course>
  <speed>25.08577684665157</speed>
  <fix>3d</fix>
</trkpt>
<trkpt lat="-27.2694122" lon="151.288392">
  <ele>440.64</ele>
  <time>2026-09-01T19:55:59Z</time>
  <course>342.35</course>
  <speed>25.09</speed>
  <fix>3d</fix>
</trkpt>
<trkpt lat="-27.269328" lon="151.2883621">
  <ele>442.48</ele>
  <time>2026-09-01T19:55:59Z</time>
  <course>342.88</course>
  <speed>25.095308326458152</speed>
  <fix>3d</fix>
</trkpt>
<trkpt lat="-27.2693692" lon="151.2883766">
  <ele>441.47</ele>
  <time>2026-09-01T19:55:59Z</time>
  <course>342.33</course>
  <speed>25.11</speed>
  <fix>3d</fix>
</trkpt>
<trkpt lat="-27.2693066" lon="151.2883545">
  <ele>442.9</ele>
  <time>2026-09-01T19:55:59Z</time>
  <course>342.81</course>
  <speed>25.098334606104846</speed>
  <fix>3d</fix>
</trkpt>
<trkpt lat="-27.2693692" lon="151.2883766">
  <ele>441.47</ele>
  <time>2026-09-01T19:55:59Z</time>
  <course>342.33</course>
  <speed>25.11</speed>
  <fix>3d</fix>
</trkpt>
<trkpt lat="-27.2692851" lon="151.2883467">
  <ele>443.31</ele>
  <time>2026-09-01T19:55:59Z</time>
  <course>342.79</course>
  <speed>25.10136450474356</speed>
  <fix>3d</fix>
</trkpt>
<trkpt lat="-27.2693263" lon="151.2883612">
  <ele>442.31</ele>
  <time>2026-09-01T19:55:59Z</time>
  <course>342.31</course>
  <speed>25.13</speed>
  <fix>3d</fix>
</trkpt>
<trkpt lat="-27.2692637" lon="151.288339">
  <ele>443.73</ele>
  <time>2026-09-01T19:55:59Z</time>
  <course>342.78</course>
  <speed>25.113926415437312</speed>
  <fix>3d</fix>
</trkpt>
<trkpt lat="-27.2693263" lon="151.2883612">
  <ele>442.31</ele>
  <time>2026-09-01T19:55:59Z</time>
  <course>342.31</course>
  <speed>25.13</speed>
  <fix>3d</fix>
</trkpt>
<trkpt lat="-27.2692422" lon="151.2883313">
  <ele>444.15</ele>
  <time>2026-09-01T19:55:59Z</time>
  <course>342.82</course>
  <speed>25.11696239595863</speed>
  <fix>3d</fix>
</trkpt>
<trkpt lat="-27.2692832" lon="151.2883457">
  <ele>443.14</ele>
  <time>2026-09-01T19:55:59Z</time>
  <course>342.28</course>
  <speed>25.15</speed>
  <fix>3d</fix>
</trkpt>
<trkpt lat="-27.2692207" lon="151.2883235">
  <ele>444.56</ele>
  <time>2026-09-01T19:55:59Z</time>
  <course>342.87</course>
  <speed>25.12000199044578</speed>
  <fix>3d</fix>
</trkpt>
<trkpt lat="-27.2692832" lon="151.2883457">
  <ele>443.14</ele>
  <time>2026-09-01T19:55:59Z</time>
  <course>342.28</course>
  <speed>25.15</speed>
  <fix>3d</fix>
</trkpt>
<trkpt lat="-27.2691992" lon="151.2883158">
  <ele>444.98</ele>
  <time>2026-09-01T19:55:59Z</time>
  <course>342.88</course>
  <speed>25.12000199044578</speed>
  <fix>3d</fix>
</trkpt>
<trkpt lat="-27.26924" lon="151.2883302">
  <ele>443.97</ele>
  <time>2026-09-01T19:55:59Z</time>
  <course>342.24</course>
  <speed>25.17</speed>
  <fix>3d</fix>
</trkpt>
<trkpt lat="-27.2691777" lon="151.2883081">
  <ele>445.39</ele>
  <time>2026-09-01T19:55:59Z</time>
  <course>342.88</course>
  <speed>25.11696239595863</speed>
  <fix>3d</fix>
</trkpt>
<trkpt lat="-27.26924" lon="151.2883302">
  <ele>443.97</ele>
  <time>2026-09-01T19:55:59Z</time>
  <course>342.24</course>
  <speed>25.17</speed>
  <fix>3d</fix>
</trkpt>
<trkpt lat="-27.2691562" lon="151.2883003">
  <ele>445.81</ele>
  <time>2026-09-01T19:55:59Z</time>
  <course>342.76</course>
  <speed>25.11696239595863</speed>
  <fix>3d</fix>
</trkpt>
<trkpt lat="-27.2691969" lon="151.2883147">
  <ele>444.8</ele>
  <time>2026-09-01T19:55:59Z</time>
  <course>342.24</course>
  <speed>25.18</speed>
  <fix>3d</fix>
</trkpt>
<trkpt lat="-27.2691347" lon="151.2882926">
  <ele>446.22</ele>
  <time>2026-09-01T19:55:59Z</time>
  <course>342.67</course>
  <speed>25.11696239595863</speed>
  <fix>3d</fix>
</trkpt>
<trkpt lat="-27.2691969" lon="151.2883147">
  <ele>444.8</ele>
  <time>2026-09-01T19:55:59Z</time>
  <course>342.24</course>
  <speed>25.18</speed>
  <fix>3d</fix>
</trkpt>
<trkpt lat="-27.2691132" lon="151.2882848">
  <ele>446.63</ele>
  <time>2026-09-01T19:55:59Z</time>
  <course>342.72</course>
  <speed>25.129528447625116</speed>
  <fix>3d</fix>
</trkpt>
<trkpt lat="-27.2691538" lon="151.2882991">
  <ele>445.63</ele>
  <time>2026-09-01T19:55:59Z</time>
  <course>342.24</course>
  <speed>25.18</speed>
  <fix>3d</fix>
</trkpt>
<trkpt lat="-27.2690917" lon="151.288277">
  <ele>447.04</ele>
  <time>2026-09-01T19:55:59Z</time>
  <course>342.81</course>
  <speed>25.139055272623114</speed>
  <fix>3d</fix>
</trkpt>
<trkpt lat="-27.2691538" lon="151.2882991">
  <ele>445.63</ele>
  <time>2026-09-01T19:55:59Z</time>
  <course>342.24</course>
  <speed>25.18</speed>
  <fix>3d</fix>
</trkpt>
<trkpt lat="-27.2690701" lon="151.2882693">
  <ele>447.46</ele>
  <time>2026-09-01T19:55:59Z</time>
  <course>342.77</course>
  <speed>25.14858246502176</speed>
  <fix>3d</fix>
</trkpt>
<trkpt lat="-27.2691107" lon="151.2882836">
  <ele>446.46</ele>
  <time>2026-09-01T19:55:59Z</time>
  <course>342.24</course>
  <speed>25.19</speed>
  <fix>3d</fix>
</trkpt>
<trkpt lat="-27.2690488" lon="151.2882616">
  <ele>447.87</ele>
  <time>2026-09-01T19:55:59Z</time>
  <course>342.78</course>
  <speed>25.14554632534358</speed>
  <fix>3d</fix>
</trkpt>
<trkpt lat="-27.2691107" lon="151.2882836">
  <ele>446.46</ele>
  <time>2026-09-01T19:55:59Z</time>
  <course>342.24</course>
  <speed>25.19</speed>
  <fix>3d</fix>
</trkpt>
<trkpt lat="-27.2690268" lon="151.2882537">
  <ele>448.29</ele>
  <time>2026-09-01T19:55:59Z</time>
  <course>342.78</course>
  <speed>25.15507503467243</speed>
  <fix>3d</fix>
</trkpt>
<trkpt lat="-27.2690676" lon="151.2882681">
  <ele>447.28</ele>
  <time>2026-09-01T19:55:59Z</time>
  <course>342.24</course>
  <speed>25.21</speed>
  <fix>3d</fix>
</trkpt>
<trkpt lat="-27.2690053" lon="151.288246">
  <ele>448.7</ele>
  <time>2026-09-01T19:55:59Z</time>
  <course>342.77</course>
  <speed>25.164604109741127</speed>
  <fix>3d</fix>
</trkpt>
<trkpt lat="-27.2690676" lon="151.2882681">
  <ele>447.28</ele>
  <time>2026-09-01T19:55:59Z</time>
  <course>342.24</course>
  <speed>25.21</speed>
  <fix>3d</fix>
</trkpt>
<trkpt lat="-27.2689837" lon="151.2882382">
  <ele>449.12</ele>
  <time>2026-09-01T19:55:59Z</time>
  <course>342.78</course>
  <speed>25.177166242450717</speed>
  <fix>3d</fix>
</trkpt>
<trkpt lat="-27.2690245" lon="151.2882526">
  <ele>448.1</ele>
  <time>2026-09-01T19:55:59Z</time>
  <course>342.26</course>
  <speed>25.22</speed>
  <fix>3d</fix>
</trkpt>
<trkpt lat="-27.2689621" lon="151.2882304">
  <ele>449.53</ele>
  <time>2026-09-01T19:55:59Z</time>
  <course>342.77</course>
  <speed>25.174133550134353</speed>
  <fix>3d</fix>
</trkpt>
<trkpt lat="-27.2690245" lon="151.2882526">
  <ele>448.1</ele>
  <time>2026-09-01T19:55:59Z</time>
  <course>342.26</course>
  <speed>25.22</speed>
  <fix>3d</fix>
</trkpt>
<trkpt lat="-27.2689406" lon="151.2882227">
  <ele>449.94</ele>
  <time>2026-09-01T19:55:59Z</time>
  <course>342.82</course>
  <speed>25.174133550134353</speed>
  <fix>3d</fix>
</trkpt>
<trkpt lat="-27.2689814" lon="151.2882371">
  <ele>448.93</ele>
  <time>2026-09-01T19:55:59Z</time>
  <course>342.27</course>
  <speed>25.23</speed>
  <fix>3d</fix>
</trkpt>
<trkpt lat="-27.268919" lon="151.2882149">
  <ele>450.35</ele>
  <time>2026-09-01T19:55:59Z</time>
  <course>342.87</course>
  <speed>25.1711044652395</speed>
  <fix>3d</fix>
</trkpt>
<trkpt lat="-27.2689814" lon="151.2882371">
  <ele>448.93</ele>
  <time>2026-09-01T19:55:59Z</time>
  <course>342.27</course>
  <speed>25.23</speed>
  <fix>3d</fix>
</trkpt>
<trkpt lat="-27.2688974" lon="151.2882072">
  <ele>450.77</ele>
  <time>2026-09-01T19:55:59Z</time>
  <course>342.91</course>
  <speed>25.18063541692306</speed>
  <fix>3d</fix>
</trkpt>
<trkpt lat="-27.2689382" lon="151.2882215">
  <ele>449.75</ele>
  <time>2026-09-01T19:55:59Z</time>
  <course>342.28</course>
  <speed>25.24</speed>
  <fix>3d</fix>
</trkpt>
<trkpt lat="-27.2688758" lon="151.2881995">
  <ele>451.18</ele>
  <time>2026-09-01T19:55:59Z</time>
  <course>342.88</course>
  <speed>25.177611086042297</speed>
  <fix>3d</fix>
</trkpt>
<trkpt lat="-27.2689382" lon="151.2882215">
  <ele>449.75</ele>
  <time>2026-09-01T19:55:59Z</time>
  <course>342.28</course>
  <speed>25.24</speed>
  <fix>3d</fix>
</trkpt>
<trkpt lat="-27.2688543" lon="151.2881917">
  <ele>451.59</ele>
  <time>2026-09-01T19:55:59Z</time>
  <course>342.86</course>
  <speed>25.177611086042297</speed>
  <fix>3d</fix>
</trkpt>
<trkpt lat="-27.268895" lon="151.288206">
  <ele>450.57</ele>
  <time>2026-09-01T19:55:59Z</time>
  <course>342.31</course>
  <speed>25.24</speed>
  <fix>3d</fix>
</trkpt>
<trkpt lat="-27.2688327" lon="151.288184">
  <ele>452.0</ele>
  <time>2026-09-01T19:55:59Z</time>
  <course>342.87</course>
  <speed>25.177611086042297</speed>
  <fix>3d</fix>
</trkpt>
<trkpt lat="-27.268895" lon="151.288206">
  <ele>450.57</ele>
  <time>2026-09-01T19:55:59Z</time>
  <course>342.31</course>
  <speed>25.24</speed>
  <fix>3d</fix>
</trkpt>
<trkpt lat="-27.2688111" lon="151.2881763">
  <ele>452.41</ele>
  <time>2026-09-01T19:55:59Z</time>
  <course>342.83</course>
  <speed>25.177611086042297</speed>
  <fix>3d</fix>
</trkpt>
<trkpt lat="-27.2688518" lon="151.2881905">
  <ele>451.4</ele>
  <time>2026-09-01T19:55:59Z</time>
  <course>342.33</course>
  <speed>25.24</speed>
  <fix>3d</fix>
</trkpt>
<trkpt lat="-27.2687895" lon="151.2881685">
  <ele>452.82</ele>
  <time>2026-09-01T19:55:59Z</time>
  <course>342.78</course>
  <speed>25.168078989068672</speed>
  <fix>3d</fix>
</trkpt>
<trkpt lat="-27.2688518" lon="151.2881905">
  <ele>451.4</ele>
  <time>2026-09-01T19:55:59Z</time>
  <course>342.33</course>
  <speed>25.24</speed>
  <fix>3d</fix>
</trkpt>
<trkpt lat="-27.2687679" lon="151.2881608">
  <ele>453.23</ele>
  <time>2026-09-01T19:55:59Z</time>
  <course>342.77</course>
  <speed>25.168078989068672</speed>
  <fix>3d</fix>
</trkpt>
<trkpt lat="-27.2688085" lon="151.288175">
  <ele>452.22</ele>
  <time>2026-09-01T19:55:59Z</time>
  <course>342.33</course>
  <speed>25.24</speed>
  <fix>3d</fix>
</trkpt>
<trkpt lat="-27.2687463" lon="151.288153">
  <ele>453.65</ele>
  <time>2026-09-01T19:55:59Z</time>
  <course>342.76</course>
  <speed>25.1711044652395</speed>
  <fix>3d</fix>
</trkpt>
<trkpt lat="-27.2688085" lon="151.288175">
  <ele>452.22</ele>
  <time>2026-09-01T19:55:59Z</time>
  <course>342.33</course>
  <speed>25.24</speed>
  <fix>3d</fix>
</trkpt>
<trkpt lat="-27.2687247" lon="151.2881453">
  <ele>454.06</ele>
  <time>2026-09-01T19:55:59Z</time>
  <course>342.8</course>
  <speed>25.18366335543739</speed>
  <fix>3d</fix>
</trkpt>
<trkpt lat="-27.2687652" lon="151.2881595">
  <ele>453.04</ele>
  <time>2026-09-01T19:55:59Z</time>
  <course>342.32</course>
  <speed>25.23</speed>
  <fix>3d</fix>
</trkpt>
<trkpt lat="-27.2687032" lon="151.2881375">
  <ele>454.46</ele>
  <time>2026-09-01T19:55:59Z</time>
  <course>342.82</course>
  <speed>25.18366335543739</speed>
  <fix>3d</fix>
</trkpt>
<trkpt lat="-27.2687652" lon="151.2881595">
  <ele>453.04</ele>
  <time>2026-09-01T19:55:59Z</time>
  <course>342.32</course>
  <speed>25.23</speed>
  <fix>3d</fix>
</trkpt>
<trkpt lat="-27.2686815" lon="151.2881298">
  <ele>454.87</ele>
  <time>2026-09-01T19:55:59Z</time>
  <course>342.81</course>
  <speed>25.18063541692306</speed>
  <fix>3d</fix>
</trkpt>
<trkpt lat="-27.268722" lon="151.288144">
  <ele>453.87</ele>
  <time>2026-09-01T19:55:59Z</time>
  <course>342.3</course>
  <speed>25.24</speed>
  <fix>3d</fix>
</trkpt>
<trkpt lat="-27.26866" lon="151.288122">
  <ele>455.28</ele>
  <time>2026-09-01T19:55:59Z</time>
  <course>342.82</course>
  <speed>25.18366335543739</speed>
  <fix>3d</fix>
</trkpt>
<trkpt lat="-27.268722" lon="151.288144">
  <ele>453.87</ele>
  <time>2026-09-01T19:55:59Z</time>
  <course>342.3</course>
  <speed>25.24</speed>
  <fix>3d</fix>
</trkpt>
<trkpt lat="-27.2686383" lon="151.2881143">
  <ele>455.69</ele>
  <time>2026-09-01T19:55:59Z</time>
  <course>342.82</course>
  <speed>25.18366335543739</speed>
  <fix>3d</fix>
</trkpt>
<trkpt lat="-27.2686788" lon="151.2881285">
  <ele>454.68</ele>
  <time>2026-09-01T19:55:59Z</time>
  <course>342.3</course>
  <speed>25.24</speed>
  <fix>3d</fix>
</trkpt>
<trkpt lat="-27.2686167" lon="151.2881065">
  <ele>456.09</ele>
  <time>2026-09-01T19:55:59Z</time>
  <course>342.75</course>
  <speed>25.18063541692306</speed>
  <fix>3d</fix>
</trkpt>
<trkpt lat="-27.2686788" lon="151.2881285">
  <ele>454.68</ele>
  <time>2026-09-01T19:55:59Z</time>
  <course>342.3</course>
  <speed>25.24</speed>
  <fix>3d</fix>
</trkpt>
<trkpt lat="-27.2685953" lon="151.2880988">
  <ele>456.49</ele>
  <time>2026-09-01T19:55:59Z</time>
  <course>342.77</course>
  <speed>25.18063541692306</speed>
  <fix>3d</fix>
</trkpt>
<trkpt lat="-27.2686356" lon="151.288113">
  <ele>455.5</ele>
  <time>2026-09-01T19:55:59Z</time>
  <course>342.3</course>
  <speed>25.24</speed>
  <fix>3d</fix>
</trkpt>
<trkpt lat="-27.2685737" lon="151.2880911">
  <ele>456.9</ele>
  <time>2026-09-01T19:56:00Z</time>
  <course>342.76</course>
  <speed>25.18063541692306</speed>
  <fix>3d</fix>
</trkpt>
<trkpt lat="-27.2686356" lon="151.288113">
  <ele>455.5</ele>
  <time>2026-09-01T19:56:00Z</time>
  <course>342.3</course>
  <speed>25.24</speed>
  <fix>3d</fix>
</trkpt>
<trkpt lat="-27.2685521" lon="151.2880833">
  <ele>457.31</ele>
  <time>2026-09-01T19:56:00Z</time>
  <course>342.73</course>
  <speed>25.18063541692306</speed>
  <fix>3d</fix>
</trkpt>
<trkpt lat="-27.2685924" lon="151.2880975">
  <ele>456.31</ele>
  <time>2026-09-01T19:56:00Z</time>
  <course>342.31</course>
  <speed>25.24</speed>
  <fix>3d</fix>
</trkpt>
<trkpt lat="-27.2685305" lon="151.2880756">
  <ele>457.72</ele>
  <time>2026-09-01T19:56:00Z</time>
  <course>342.73</course>
  <speed>25.18063541692306</speed>
  <fix>3d</fix>
</trkpt>
<trkpt lat="-27.2685924" lon="151.2880975">
  <ele>456.31</ele>
  <time>2026-09-01T19:56:00Z</time>
  <course>342.31</course>
  <speed>25.24</speed>
  <fix>3d</fix>
</trkpt>
<trkpt lat="-27.2685087" lon="151.2880678">
  <ele>458.13</ele>
  <time>2026-09-01T19:56:00Z</time>
  <course>342.75</course>
  <speed>25.168078989068672</speed>
  <fix>3d</fix>
</trkpt>
<trkpt lat="-27.2685493" lon="151.288082">
  <ele>457.13</ele>
  <time>2026-09-01T19:56:00Z</time>
  <course>342.31</course>
  <speed>25.24</speed>
  <fix>3d</fix>
</trkpt>
<trkpt lat="-27.2684871" lon="151.28806">
  <ele>458.54</ele>
  <time>2026-09-01T19:56:00Z</time>
  <course>342.75</course>
  <speed>25.168078989068672</speed>
  <fix>3d</fix>
</trkpt>
<trkpt lat="-27.2685493" lon="151.288082">
  <ele>457.13</ele>
  <time>2026-09-01T19:56:00Z</time>
  <course>342.31</course>
  <speed>25.24</speed>
  <fix>3d</fix>
</trkpt>
<trkpt lat="-27.2684655" lon="151.2880523">
  <ele>458.95</ele>
  <time>2026-09-01T19:56:00Z</time>
  <course>342.78</course>
  <speed>25.1711044652395</speed>
  <fix>3d</fix>
</trkpt>
<trkpt lat="-27.2685061" lon="151.2880665">
  <ele>457.95</ele>
  <time>2026-09-01T19:56:00Z</time>
  <course>342.3</course>
  <speed>25.23</speed>
  <fix>3d</fix>
</trkpt>
<trkpt lat="-27.2684437" lon="151.2880445">
  <ele>459.36</ele>
  <time>2026-09-01T19:56:00Z</time>
  <course>342.81</course>
  <speed>25.168078989068672</speed>
  <fix>3d</fix>
</trkpt>
<trkpt lat="-27.2685061" lon="151.2880665">
  <ele>457.95</ele>
  <time>2026-09-01T19:56:00Z</time>
  <course>342.3</course>
  <speed>25.23</speed>
  <fix>3d</fix>
</trkpt>
<trkpt lat="-27.2684221" lon="151.2880367">
  <ele>459.76</ele>
  <time>2026-09-01T19:56:00Z</time>
  <course>342.8</course>
  <speed>25.16157387764128</speed>
  <fix>3d</fix>
</trkpt>
<trkpt lat="-27.2684629" lon="151.288051">
  <ele>458.77</ele>
  <time>2026-09-01T19:56:00Z</time>
  <course>342.3</course>
  <speed>25.22</speed>
  <fix>3d</fix>
</trkpt>
<trkpt lat="-27.2684006" lon="151.288029">
  <ele>460.17</ele>
  <time>2026-09-01T19:56:00Z</time>
  <course>342.82</course>
  <speed>25.15854725535638</speed>
  <fix>3d</fix>
</trkpt>
<trkpt lat="-27.2684629" lon="151.288051">
  <ele>458.77</ele>
  <time>2026-09-01T19:56:00Z</time>
  <course>342.3</course>
  <speed>25.22</speed>
  <fix>3d</fix>
</trkpt>
<trkpt lat="-27.2683789" lon="151.2880212">
  <ele>460.58</ele>
  <time>2026-09-01T19:56:00Z</time>
  <course>342.88</course>
  <speed>25.155524244189387</speed>
  <fix>3d</fix>
</trkpt>
<trkpt lat="-27.2684197" lon="151.2880355">
  <ele>459.59</ele>
  <time>2026-09-01T19:56:00Z</time>
  <course>342.31</course>
  <speed>25.22</speed>
  <fix>3d</fix>
</trkpt>
<trkpt lat="-27.2683574" lon="151.2880135">
  <ele>460.99</ele>
  <time>2026-09-01T19:56:00Z</time>
  <course>342.9</course>
  <speed>25.165057122923443</speed>
  <fix>3d</fix>
</trkpt>
<trkpt lat="-27.2684197" lon="151.2880355">
  <ele>459.59</ele>
  <time>2026-09-01T19:56:00Z</time>
  <course>342.31</course>
  <speed>25.22</speed>
  <fix>3d</fix>
</trkpt>
<trkpt lat="-27.2683357" lon="151.2880057">
  <ele>461.39</ele>
  <time>2026-09-01T19:56:00Z</time>
  <course>342.89</course>
  <speed>25.165057122923443</speed>
  <fix>3d</fix>
</trkpt>
<trkpt lat="-27.2683765" lon="151.28802">
  <ele>460.41</ele>
  <time>2026-09-01T19:56:00Z</time>
  <course>342.32</course>
  <speed>25.21</speed>
  <fix>3d</fix>
</trkpt>
<trkpt lat="-27.2683141" lon="151.287998">
  <ele>461.8</ele>
  <time>2026-09-01T19:56:00Z</time>
  <course>342.84</course>
  <speed>25.165057122923443</speed>
  <fix>3d</fix>
</trkpt>
<trkpt lat="-27.2683765" lon="151.28802">
  <ele>460.41</ele>
  <time>2026-09-01T19:56:00Z</time>
  <course>342.32</course>
  <speed>25.21</speed>
  <fix>3d</fix>
</trkpt>
<trkpt lat="-27.2682925" lon="151.2879903">
  <ele>462.2</ele>
  <time>2026-09-01T19:56:00Z</time>
  <course>342.82</course>
  <speed>25.165057122923443</speed>
  <fix>3d</fix>
</trkpt>
<trkpt lat="-27.2683333" lon="151.2880046">
  <ele>461.22</ele>
  <time>2026-09-01T19:56:00Z</time>
  <course>342.34</course>
  <speed>25.2</speed>
  <fix>3d</fix>
</trkpt>
<trkpt lat="-27.2682709" lon="151.2879825">
  <ele>462.61</ele>
  <time>2026-09-01T19:56:00Z</time>
  <course>342.87</course>
  <speed>25.162038868104467</speed>
  <fix>3d</fix>
</trkpt>
<trkpt lat="-27.2683333" lon="151.2880046">
  <ele>461.22</ele>
  <time>2026-09-01T19:56:00Z</time>
  <course>342.34</course>
  <speed>25.2</speed>
  <fix>3d</fix>
</trkpt>
<trkpt lat="-27.2682492" lon="151.2879748">
  <ele>463.02</ele>
  <time>2026-09-01T19:56:00Z</time>
  <course>342.9</course>
  <speed>25.159024225911466</speed>
  <fix>3d</fix>
</trkpt>
<trkpt lat="-27.2682901" lon="151.2879891">
  <ele>462.04</ele>
  <time>2026-09-01T19:56:00Z</time>
  <course>342.36</course>
  <speed>25.2</speed>
  <fix>3d</fix>
</trkpt>
<trkpt lat="-27.2682276" lon="151.2879671">
  <ele>463.43</ele>
  <time>2026-09-01T19:56:00Z</time>
  <course>342.88</course>
  <speed>25.168559752198775</speed>
  <fix>3d</fix>
</trkpt>
<trkpt lat="-27.2682901" lon="151.2879891">
  <ele>462.04</ele>
  <time>2026-09-01T19:56:00Z</time>
  <course>342.36</course>
  <speed>25.2</speed>
  <fix>3d</fix>
</trkpt>
<trkpt lat="-27.268206" lon="151.2879594">
  <ele>463.84</ele>
  <time>2026-09-01T19:56:00Z</time>
  <course>342.81</course>
  <speed>25.17809563886832</speed>
  <fix>3d</fix>
</trkpt>
<trkpt lat="-27.268247" lon="151.2879737">
  <ele>462.86</ele>
  <time>2026-09-01T19:56:00Z</time>
  <course>342.39</course>
  <speed>25.19</speed>
  <fix>3d</fix>
</trkpt>
<trkpt lat="-27.2681844" lon="151.2879517">
  <ele>464.24</ele>
  <time>2026-09-01T19:56:00Z</time>
  <course>342.77</course>
  <speed>25.181107997862206</speed>
  <fix>3d</fix>
</trkpt>
<trkpt lat="-27.268247" lon="151.2879737">
  <ele>462.86</ele>
  <time>2026-09-01T19:56:00Z</time>
  <course>342.39</course>
  <speed>25.19</speed>
  <fix>3d</fix>
</trkpt>
<trkpt lat="-27.2681627" lon="151.2879439">
  <ele>464.64</ele>
  <time>2026-09-01T19:56:00Z</time>
  <course>342.8</course>
  <speed>25.193657932106643</speed>
  <fix>3d</fix>
</trkpt>
<trkpt lat="-27.2682039" lon="151.2879583">
  <ele>463.66</ele>
  <time>2026-09-01T19:56:00Z</time>
  <course>342.4</course>
  <speed>25.19</speed>
  <fix>3d</fix>
</trkpt>
<trkpt lat="-27.2681413" lon="151.2879363">
  <ele>465.03</ele>
  <time>2026-09-01T19:56:00Z</time>
  <course>342.82</course>
  <speed>25.196676368124425</speed>
  <fix>3d</fix>
</trkpt>
<trkpt lat="-27.2682039" lon="151.2879583">
  <ele>463.66</ele>
  <time>2026-09-01T19:56:00Z</time>
  <course>342.4</course>
  <speed>25.19</speed>
  <fix>3d</fix>
</trkpt>
<trkpt lat="-27.2681197" lon="151.2879285">
  <ele>465.42</ele>
  <time>2026-09-01T19:56:00Z</time>
  <course>342.89</course>
  <speed>25.19969841089373</speed>
  <fix>3d</fix>
</trkpt>
<trkpt lat="-27.2681607" lon="151.2879429">
  <ele>464.46</ele>
  <time>2026-09-01T19:56:00Z</time>
  <course>342.37</course>
  <speed>25.2</speed>
  <fix>3d</fix>
</trkpt>
<trkpt lat="-27.268098" lon="151.2879208">
  <ele>465.82</ele>
  <time>2026-09-01T19:56:00Z</time>
  <course>342.97</course>
  <speed>25.196676368124425</speed>
  <fix>3d</fix>
</trkpt>
<trkpt lat="-27.2681607" lon="151.2879429">
  <ele>464.46</ele>
  <time>2026-09-01T19:56:00Z</time>
  <course>342.37</course>
  <speed>25.2</speed>
  <fix>3d</fix>
</trkpt>
<trkpt lat="-27.2680764" lon="151.287913">
  <ele>466.22</ele>
  <time>2026-09-01T19:56:00Z</time>
  <course>342.99</course>
  <speed>25.196676368124425</speed>
  <fix>3d</fix>
</trkpt>
<trkpt lat="-27.2681176" lon="151.2879275">
  <ele>465.26</ele>
  <time>2026-09-01T19:56:00Z</time>
  <course>342.35</course>
  <speed>25.21</speed>
  <fix>3d</fix>
</trkpt>
<trkpt lat="-27.2680547" lon="151.2879052">
  <ele>466.63</ele>
  <time>2026-09-01T19:56:00Z</time>
  <course>342.98</course>
  <speed>25.193657932106643</speed>
  <fix>3d</fix>
</trkpt>
<trkpt lat="-27.2681176" lon="151.2879275">
  <ele>465.26</ele>
  <time>2026-09-01T19:56:00Z</time>
  <course>342.35</course>
  <speed>25.21</speed>
  <fix>3d</fix>
</trkpt>
<trkpt lat="-27.268033" lon="151.2878975">
  <ele>467.03</ele>
  <time>2026-09-01T19:56:00Z</time>
  <course>342.89</course>
  <speed>25.193657932106643</speed>
  <fix>3d</fix>
</trkpt>
<trkpt lat="-27.2680744" lon="151.2879121">
  <ele>466.05</ele>
  <time>2026-09-01T19:56:00Z</time>
  <course>342.36</course>
  <speed>25.2</speed>
  <fix>3d</fix>
</trkpt>
<trkpt lat="-27.2680114" lon="151.2878898">
  <ele>467.43</ele>
  <time>2026-09-01T19:56:00Z</time>
  <course>342.81</course>
  <speed>25.193657932106643</speed>
  <fix>3d</fix>
</trkpt>
<trkpt lat="-27.2680744" lon="151.2879121">
  <ele>466.05</ele>
  <time>2026-09-01T19:56:00Z</time>
  <course>342.36</course>
  <speed>25.2</speed>
  <fix>3d</fix>
</trkpt>
<trkpt lat="-27.2679898" lon="151.2878821">
  <ele>467.83</ele>
  <time>2026-09-01T19:56:00Z</time>
  <course>342.8</course>
  <speed>25.196676368124425</speed>
  <fix>3d</fix>
</trkpt>
<trkpt lat="-27.2680312" lon="151.2878966">
  <ele>466.85</ele>
  <time>2026-09-01T19:56:00Z</time>
  <course>342.37</course>
  <speed>25.2</speed>
  <fix>3d</fix>
</trkpt>
<trkpt lat="-27.2679682" lon="151.2878744">
  <ele>468.23</ele>
  <time>2026-09-01T19:56:00Z</time>
  <course>342.87</course>
  <speed>25.196676368124425</speed>
  <fix>3d</fix>
</trkpt>
<trkpt lat="-27.2680312" lon="151.2878966">
  <ele>466.85</ele>
  <time>2026-09-01T19:56:00Z</time>
  <course>342.37</course>
  <speed>25.2</speed>
  <fix>3d</fix>
</trkpt>
<trkpt lat="-27.2679466" lon="151.2878666">
  <ele>468.62</ele>
  <time>2026-09-01T19:56:00Z</time>
  <course>342.9</course>
  <speed>25.193657932106643</speed>
  <fix>3d</fix>
</trkpt>
<trkpt lat="-27.2679881" lon="151.2878811">
  <ele>467.65</ele>
  <time>2026-09-01T19:56:00Z</time>
  <course>342.37</course>
  <speed>25.2</speed>
  <fix>3d</fix>
</trkpt>
<trkpt lat="-27.267925" lon="151.2878589">
  <ele>469.02</ele>
  <time>2026-09-01T19:56:00Z</time>
  <course>342.93</course>
  <speed>25.203192258124762</speed>
  <fix>3d</fix>
</trkpt>
<trkpt lat="-27.2679881" lon="151.2878811">
  <ele>467.65</ele>
  <time>2026-09-01T19:56:00Z</time>
  <course>342.37</course>
  <speed>25.2</speed>
  <fix>3d</fix>
</trkpt>
<trkpt lat="-27.2679034" lon="151.2878512">
  <ele>469.41</ele>
  <time>2026-09-01T19:56:00Z</time>
  <course>342.9</course>
  <speed>25.203192258124762</speed>
  <fix>3d</fix>
</trkpt>
<trkpt lat="-27.267945" lon="151.2878658">
  <ele>468.44</ele>
  <time>2026-09-01T19:56:00Z</time>
  <course>342.38</course>
  <speed>25.2</speed>
  <fix>3d</fix>
</trkpt>
<trkpt lat="-27.2678819" lon="151.2878435">
  <ele>469.8</ele>
  <time>2026-09-01T19:56:00Z</time>
  <course>342.85</course>
  <speed>25.203192258124762</speed>
  <fix>3d</fix>
</trkpt>
<trkpt lat="-27.267945" lon="151.2878658">
  <ele>468.44</ele>
  <time>2026-09-01T19:56:00Z</time>
  <course>342.38</course>
  <speed>25.2</speed>
  <fix>3d</fix>
</trkpt>
<trkpt lat="-27.2678603" lon="151.2878358">
  <ele>470.2</ele>
  <time>2026-09-01T19:56:00Z</time>
  <course>342.9</course>
  <speed>25.206209552409902</speed>
  <fix>3d</fix>
</trkpt>
<trkpt lat="-27.2679017" lon="151.2878503">
  <ele>469.24</ele>
  <time>2026-09-01T19:56:00Z</time>
  <course>342.39</course>
  <speed>25.2</speed>
  <fix>3d</fix>
</trkpt>
<trkpt lat="-27.2678385" lon="151.287828">
  <ele>470.6</ele>
  <time>2026-09-01T19:56:00Z</time>
  <course>342.86</course>
  <speed>25.196676368124425</speed>
  <fix>3d</fix>
</trkpt>
<trkpt lat="-27.2679017" lon="151.2878503">
  <ele>469.24</ele>
  <time>2026-09-01T19:56:00Z</time>
  <course>342.39</course>
  <speed>25.2</speed>
  <fix>3d</fix>
</trkpt>
<trkpt lat="-27.2678169" lon="151.2878203">
  <ele>471.0</ele>
  <time>2026-09-01T19:56:00Z</time>
  <course>342.87</course>
  <speed>25.196676368124425</speed>
  <fix>3d</fix>
</trkpt>
<trkpt lat="-27.2678585" lon="151.2878349">
  <ele>470.03</ele>
  <time>2026-09-01T19:56:00Z</time>
  <course>342.4</course>
  <speed>25.2</speed>
  <fix>3d</fix>
</trkpt>
<trkpt lat="-27.2677953" lon="151.2878126">
  <ele>471.4</ele>
  <time>2026-09-01T19:56:00Z</time>
  <course>342.94</course>
  <speed>25.196676368124425</speed>
  <fix>3d</fix>
</trkpt>
<trkpt lat="-27.2678585" lon="151.2878349">
  <ele>470.03</ele>
  <time>2026-09-01T19:56:00Z</time>
  <course>342.4</course>
  <speed>25.2</speed>
  <fix>3d</fix>
</trkpt>
<trkpt lat="-27.2677737" lon="151.2878048">
  <ele>471.8</ele>
  <time>2026-09-01T19:56:00Z</time>
  <course>342.91</course>
  <speed>25.206209552409902</speed>
  <fix>3d</fix>
</trkpt>
<trkpt lat="-27.2678154" lon="151.2878195">
  <ele>470.83</ele>
  <time>2026-09-01T19:56:00Z</time>
  <course>342.39</course>
  <speed>25.2</speed>
  <fix>3d</fix>
</trkpt>
<trkpt lat="-27.2677521" lon="151.2877971">
  <ele>472.19</ele>
  <time>2026-09-01T19:56:00Z</time>
  <course>342.83</course>
  <speed>25.206209552409902</speed>
  <fix>3d</fix>
</trkpt>
<trkpt lat="-27.2678154" lon="151.2878195">
  <ele>470.83</ele>
  <time>2026-09-01T19:56:00Z</time>
  <course>342.39</course>
  <speed>25.2</speed>
  <fix>3d</fix>
</trkpt>
<trkpt lat="-27.2677304" lon="151.2877894">
  <ele>472.59</ele>
  <time>2026-09-01T19:56:00Z</time>
  <course>342.87</course>
  <speed>25.206209552409902</speed>
  <fix>3d</fix>
</trkpt>
<trkpt lat="-27.2677722" lon="151.2878041">
  <ele>471.63</ele>
  <time>2026-09-01T19:56:00Z</time>
  <course>342.39</course>
  <speed>25.2</speed>
  <fix>3d</fix>
</trkpt>
<trkpt lat="-27.267709" lon="151.2877817">
  <ele>472.98</ele>
  <time>2026-09-01T19:56:00Z</time>
  <course>342.91</course>
  <speed>25.209230452356138</speed>
  <fix>3d</fix>
</trkpt>
<trkpt lat="-27.2677722" lon="151.2878041">
  <ele>471.63</ele>
  <time>2026-09-01T19:56:00Z</time>
  <course>342.39</course>
  <speed>25.2</speed>
  <fix>3d</fix>
</trkpt>
<trkpt lat="-27.2676874" lon="151.287774">
  <ele>473.38</ele>
  <time>2026-09-01T19:56:00Z</time>
  <course>342.91</course>
  <speed>25.209230452356138</speed>
  <fix>3d</fix>
</trkpt>
<trkpt lat="-27.267729" lon="151.2877887">
  <ele>472.42</ele>
  <time>2026-09-01T19:56:00Z</time>
  <course>342.38</course>
  <speed>25.2</speed>
  <fix>3d</fix>
</trkpt>
<trkpt lat="-27.2676657" lon="151.2877663">
  <ele>473.77</ele>
  <time>2026-09-01T19:56:00Z</time>
  <course>342.91</course>
  <speed>25.218762856254465</speed>
  <fix>3d</fix>
</trkpt>
<trkpt lat="-27.267729" lon="151.2877887">
  <ele>472.42</ele>
  <time>2026-09-01T19:56:00Z</time>
  <course>342.38</course>
  <speed>25.2</speed>
  <fix>3d</fix>
</trkpt>
<trkpt lat="-27.2676441" lon="151.2877585">
  <ele>474.17</ele>
  <time>2026-09-01T19:56:00Z</time>
  <course>342.86</course>
  <speed>25.209230452356138</speed>
  <fix>3d</fix>
</trkpt>
<trkpt lat="-27.2676859" lon="151.2877733">
  <ele>473.21</ele>
  <time>2026-09-01T19:56:00Z</time>
  <course>342.37</course>
  <speed>25.2</speed>
  <fix>3d</fix>
</trkpt>
<trkpt lat="-27.2676225" lon="151.2877508">
  <ele>474.57</ele>
  <time>2026-09-01T19:56:00Z</time>
  <course>342.85</course>
  <speed>25.209230452356138</speed>
  <fix>3d</fix>
</trkpt>
<trkpt lat="-27.2676859" lon="151.2877733">
  <ele>473.21</ele>
  <time>2026-09-01T19:56:00Z</time>
  <course>342.37</course>
  <speed>25.2</speed>
  <fix>3d</fix>
</trkpt>
<trkpt lat="-27.2676007" lon="151.287743">
  <ele>474.97</ele>
  <time>2026-09-01T19:56:00Z</time>
  <course>342.85</course>
  <speed>25.218762856254465</speed>
  <fix>3d</fix>
</trkpt>
<trkpt lat="-27.2676428" lon="151.2877579">
  <ele>474.0</ele>
  <time>2026-09-01T19:56:00Z</time>
  <course>342.37</course>
  <speed>25.2</speed>
  <fix>3d</fix>
</trkpt>
<trkpt lat="-27.2675791" lon="151.2877353">
  <ele>475.36</ele>
  <time>2026-09-01T19:56:00Z</time>
  <course>342.85</course>
  <speed>25.218762856254465</speed>
  <fix>3d</fix>
</trkpt>
<trkpt lat="-27.2676428" lon="151.2877579">
  <ele>474.0</ele>
  <time>2026-09-01T19:56:00Z</time>
  <course>342.37</course>
  <speed>25.2</speed>
  <fix>3d</fix>
</trkpt>
<trkpt lat="-27.2675576" lon="151.2877276">
  <ele>475.76</ele>
  <time>2026-09-01T19:56:00Z</time>
  <course>342.79</course>
  <speed>25.221786217474765</speed>
  <fix>3d</fix>
</trkpt>
<trkpt lat="-27.2675997" lon="151.2877424">
  <ele>474.8</ele>
  <time>2026-09-01T19:56:00Z</time>
  <course>342.36</course>
  <speed>25.2</speed>
  <fix>3d</fix>
</trkpt>
<trkpt lat="-27.267536" lon="151.2877199">
  <ele>476.15</ele>
  <time>2026-09-01T19:56:00Z</time>
  <course>342.85</course>
  <speed>25.209230452356138</speed>
  <fix>3d</fix>
</trkpt>
<trkpt lat="-27.2675997" lon="151.2877424">
  <ele>474.8</ele>
  <time>2026-09-01T19:56:00Z</time>
  <course>342.36</course>
  <speed>25.2</speed>
  <fix>3d</fix>
</trkpt>
<trkpt lat="-27.2675146" lon="151.2877122">
  <ele>476.55</ele>
  <time>2026-09-01T19:56:00Z</time>
  <course>342.82</course>
  <speed>25.206209552409902</speed>
  <fix>3d</fix>
</trkpt>
<trkpt lat="-27.2675566" lon="151.287727">
  <ele>475.59</ele>
  <time>2026-09-01T19:56:00Z</time>
  <course>342.36</course>
  <speed>25.2</speed>
  <fix>3d</fix>
</trkpt>
<trkpt lat="-27.2674931" lon="151.2877045">
  <ele>476.94</ele>
  <time>2026-09-01T19:56:00Z</time>
  <course>342.78</course>
  <speed>25.196676368124425</speed>
  <fix>3d</fix>
</trkpt>
<trkpt lat="-27.2675566" lon="151.287727">
  <ele>475.59</ele>
  <time>2026-09-01T19:56:00Z</time>
  <course>342.36</course>
  <speed>25.2</speed>
  <fix>3d</fix>
</trkpt>
<trkpt lat="-27.2674717" lon="151.2876969">
  <ele>477.33</ele>
  <time>2026-09-01T19:56:00Z</time>
  <course>342.77</course>
  <speed>25.187143545864824</speed>
  <fix>3d</fix>
</trkpt>
<trkpt lat="-27.2675134" lon="151.2877116">
  <ele>476.38</ele>
  <time>2026-09-01T19:56:00Z</time>
  <course>342.36</course>
  <speed>25.2</speed>
  <fix>3d</fix>
</trkpt>
<trkpt lat="-27.2674502" lon="151.2876892">
  <ele>477.72</ele>
  <time>2026-09-01T19:56:00Z</time>
  <course>342.85</course>
  <speed>25.177611086042297</speed>
  <fix>3d</fix>
</trkpt>
<trkpt lat="-27.2675134" lon="151.2877116">
  <ele>476.38</ele>
  <time>2026-09-01T19:56:00Z</time>
  <course>342.36</course>
  <speed>25.2</speed>
  <fix>3d</fix>
</trkpt>
<trkpt lat="-27.2674288" lon="151.2876815">
  <ele>478.12</ele>
  <time>2026-09-01T19:56:00Z</time>
  <course>342.85</course>
  <speed>25.165057122923443</speed>
  <fix>3d</fix>
</trkpt>
<trkpt lat="-27.2674702" lon="151.2876961">
  <ele>477.16</ele>
  <time>2026-09-01T19:56:00Z</time>
  <course>342.37</course>
  <speed>25.2</speed>
  <fix>3d</fix>
</trkpt>
<trkpt lat="-27.2674073" lon="151.2876738">
  <ele>478.51</ele>
  <time>2026-09-01T19:56:00Z</time>
  <course>342.81</course>
  <speed>25.165057122923443</speed>
  <fix>3d</fix>
</trkpt>
<trkpt lat="-27.2674702" lon="151.2876961">
  <ele>477.16</ele>
  <time>2026-09-01T19:56:00Z</time>
  <course>342.37</course>
  <speed>25.2</speed>
  <fix>3d</fix>
</trkpt>
<trkpt lat="-27.2673858" lon="151.2876662">
  <ele>478.91</ele>
  <time>2026-09-01T19:56:00Z</time>
  <course>342.82</course>
  <speed>25.165057122923443</speed>
  <fix>3d</fix>
</trkpt>
<trkpt lat="-27.2674269" lon="151.2876806">
  <ele>477.95</ele>
  <time>2026-09-01T19:56:00Z</time>
  <course>342.37</course>
  <speed>25.2</speed>
  <fix>3d</fix>
</trkpt>
<trkpt lat="-27.2673644" lon="151.2876585">
  <ele>479.3</ele>
  <time>2026-09-01T19:56:00Z</time>
  <course>342.89</course>
  <speed>25.162038868104467</speed>
  <fix>3d</fix>
</trkpt>
<trkpt lat="-27.2674269" lon="151.2876806">
  <ele>477.95</ele>
  <time>2026-09-01T19:56:00Z</time>
  <course>342.37</course>
  <speed>25.2</speed>
  <fix>3d</fix>
</trkpt>
<trkpt lat="-27.2673429" lon="151.2876508">
  <ele>479.69</ele>
  <time>2026-09-01T19:56:00Z</time>
  <course>342.88</course>
  <speed>25.159024225911466</speed>
  <fix>3d</fix>
</trkpt>
<trkpt lat="-27.2673838" lon="151.2876652">
  <ele>478.74</ele>
  <time>2026-09-01T19:56:00Z</time>
  <course>342.38</course>
  <speed>25.19</speed>
  <fix>3d</fix>
</trkpt>
<trkpt lat="-27.2673214" lon="151.2876432">
  <ele>480.08</ele>
  <time>2026-09-01T19:56:00Z</time>
  <course>342.9</course>
  <speed>25.156013197643222</speed>
  <fix>3d</fix>
</trkpt>
<trkpt lat="-27.2673838" lon="151.2876652">
  <ele>478.74</ele>
  <time>2026-09-01T19:56:00Z</time>
  <course>342.38</course>
  <speed>25.19</speed>
  <fix>3d</fix>
</trkpt>
<trkpt lat="-27.2672999" lon="151.2876355">
  <ele>480.47</ele>
  <time>2026-09-01T19:56:00Z</time>
  <course>342.94</course>
  <speed>25.165549864844998</speed>
  <fix>3d</fix>
</trkpt>
<trkpt lat="-27.2673407" lon="151.2876499">
  <ele>479.52</ele>
  <time>2026-09-01T19:56:00Z</time>
  <course>342.4</course>
  <speed>25.2</speed>
  <fix>3d</fix>
</trkpt>
<trkpt lat="-27.2672784" lon="151.2876279">
  <ele>480.85</ele>
  <time>2026-09-01T19:56:00Z</time>
  <course>343.01</course>
  <speed>25.162543591616487</speed>
  <fix>3d</fix>
</trkpt>
<trkpt lat="-27.2673407" lon="151.2876499">
  <ele>479.52</ele>
  <time>2026-09-01T19:56:00Z</time>
  <course>342.4</course>
  <speed>25.2</speed>
  <fix>3d</fix>
</trkpt>
<trkpt lat="-27.2672569" lon="151.2876203">
  <ele>481.24</ele>
  <time>2026-09-01T19:56:00Z</time>
  <course>343.04</course>
  <speed>25.15954093380879</speed>
  <fix>3d</fix>
</trkpt>
<trkpt lat="-27.2672975" lon="151.2876345">
  <ele>480.31</ele>
  <time>2026-09-01T19:56:00Z</time>
  <course>342.44</course>
  <speed>25.21</speed>
  <fix>3d</fix>
</trkpt>
<trkpt lat="-27.2672353" lon="151.2876126">
  <ele>481.63</ele>
  <time>2026-09-01T19:56:00Z</time>
  <course>343.0</course>
  <speed>25.166082333172163</speed>
  <fix>3d</fix>
</trkpt>
<trkpt lat="-27.2672975" lon="151.2876345">
  <ele>480.31</ele>
  <time>2026-09-01T19:56:00Z</time>
  <course>342.44</course>
  <speed>25.21</speed>
  <fix>3d</fix>
</trkpt>
<trkpt lat="-27.2672138" lon="151.287605">
  <ele>482.02</ele>
  <time>2026-09-01T19:56:00Z</time>
  <course>342.93</course>
  <speed>25.17262997781519</speed>
  <fix>3d</fix>
</trkpt>
<trkpt lat="-27.2672544" lon="151.2876192">
  <ele>481.09</ele>
  <time>2026-09-01T19:56:00Z</time>
  <course>342.48</course>
  <speed>25.22</speed>
  <fix>3d</fix>
</trkpt>
<trkpt lat="-27.2671923" lon="151.2875974">
  <ele>482.41</ele>
  <time>2026-09-01T19:56:00Z</time>
  <course>342.89</course>
  <speed>25.17262997781519</speed>
  <fix>3d</fix>
</trkpt>
<trkpt lat="-27.2672544" lon="151.2876192">
  <ele>481.09</ele>
  <time>2026-09-01T19:56:00Z</time>
  <course>342.48</course>
  <speed>25.22</speed>
  <fix>3d</fix>
</trkpt>
<trkpt lat="-27.2671705" lon="151.2875897">
  <ele>482.8</ele>
  <time>2026-09-01T19:56:00Z</time>
  <course>342.92</course>
  <speed>25.17562313032192</speed>
  <fix>3d</fix>
</trkpt>
<trkpt lat="-27.2672111" lon="151.2876038">
  <ele>481.86</ele>
  <time>2026-09-01T19:56:00Z</time>
  <course>342.5</course>
  <speed>25.23</speed>
  <fix>3d</fix>
</trkpt>
<trkpt lat="-27.267149" lon="151.287582">
  <ele>483.19</ele>
  <time>2026-09-01T19:56:00Z</time>
  <course>342.97</course>
  <speed>25.182172265315</speed>
  <fix>3d</fix>
</trkpt>
<trkpt lat="-27.2672111" lon="151.2876038">
  <ele>481.86</ele>
  <time>2026-09-01T19:56:00Z</time>
  <course>342.5</course>
  <speed>25.23</speed>
  <fix>3d</fix>
</trkpt>
<trkpt lat="-27.2671274" lon="151.2875744">
  <ele>483.58</ele>
  <time>2026-09-01T19:56:00Z</time>
  <course>343.02</course>
  <speed>25.182172265315</speed>
  <fix>3d</fix>
</trkpt>
<trkpt lat="-27.2671678" lon="151.2875885">
  <ele>482.64</ele>
  <time>2026-09-01T19:56:00Z</time>
  <course>342.51</course>
  <speed>25.24</speed>
  <fix>3d</fix>
</trkpt>
<trkpt lat="-27.2671058" lon="151.2875668">
  <ele>483.97</ele>
  <time>2026-09-01T19:56:00Z</time>
  <course>342.88</course>
  <speed>25.182172265315</speed>
  <fix>3d</fix>
</trkpt>
<trkpt lat="-27.2671678" lon="151.2875885">
  <ele>482.64</ele>
  <time>2026-09-01T19:56:00Z</time>
  <course>342.51</course>
  <speed>25.24</speed>
  <fix>3d</fix>
</trkpt>
<trkpt lat="-27.2670842" lon="151.2875591">
  <ele>484.36</ele>
  <time>2026-09-01T19:56:00Z</time>
  <course>342.79</course>
  <speed>25.18516428376039</speed>
  <fix>3d</fix>
</trkpt>
<trkpt lat="-27.2671247" lon="151.2875732">
  <ele>483.41</ele>
  <time>2026-09-01T19:56:00Z</time>
  <course>342.52</course>
  <speed>25.24</speed>
  <fix>3d</fix>
</trkpt>
<trkpt lat="-27.2670627" lon="151.2875515">
  <ele>484.75</ele>
  <time>2026-09-01T19:56:00Z</time>
  <course>342.83</course>
  <speed>25.178619898636224</speed>
  <fix>3d</fix>
</trkpt>
<trkpt lat="-27.2671247" lon="151.2875732">
  <ele>483.41</ele>
  <time>2026-09-01T19:56:00Z</time>
  <course>342.52</course>
  <speed>25.24</speed>
  <fix>3d</fix>
</trkpt>
<trkpt lat="-27.2670411" lon="151.2875438">
  <ele>485.14</ele>
  <time>2026-09-01T19:56:00Z</time>
  <course>342.8</course>
  <speed>25.178619898636224</speed>
  <fix>3d</fix>
</trkpt>
<trkpt lat="-27.2670814" lon="151.2875579">
  <ele>484.2</ele>
  <time>2026-09-01T19:56:00Z</time>
  <course>342.5</course>
  <speed>25.25</speed>
  <fix>3d</fix>
</trkpt>
<trkpt lat="-27.2670195" lon="151.2875362">
  <ele>485.53</ele>
  <time>2026-09-01T19:56:00Z</time>
  <course>342.89</course>
  <speed>25.181620281467193</speed>
  <fix>3d</fix>
</trkpt>
<trkpt lat="-27.2670814" lon="151.2875579">
  <ele>484.2</ele>
  <time>2026-09-01T19:56:00Z</time>
  <course>342.5</course>
  <speed>25.25</speed>
  <fix>3d</fix>
</trkpt>
<trkpt lat="-27.2669979" lon="151.2875285">
  <ele>485.92</ele>
  <time>2026-09-01T19:56:00Z</time>
  <course>342.93</course>
  <speed>25.181620281467193</speed>
  <fix>3d</fix>
</trkpt>
<trkpt lat="-27.2670382" lon="151.2875425">
  <ele>484.97</ele>
  <time>2026-09-01T19:56:00Z</time>
  <course>342.46</course>
  <speed>25.24</speed>
  <fix>3d</fix>
</trkpt>
<trkpt lat="-27.2669763" lon="151.2875208">
  <ele>486.31</ele>
  <time>2026-09-01T19:56:00Z</time>
  <course>342.92</course>
  <speed>25.181620281467193</speed>
  <fix>3d</fix>
</trkpt>
<trkpt lat="-27.2670382" lon="151.2875425">
  <ele>484.97</ele>
  <time>2026-09-01T19:56:00Z</time>
  <course>342.46</course>
  <speed>25.24</speed>
  <fix>3d</fix>
</trkpt>
<trkpt lat="-27.2669547" lon="151.2875131">
  <ele>486.71</ele>
  <time>2026-09-01T19:56:00Z</time>
  <course>342.89</course>
  <speed>25.175086891607744</speed>
  <fix>3d</fix>
</trkpt>
<trkpt lat="-27.2669948" lon="151.2875271">
  <ele>485.76</ele>
  <time>2026-09-01T19:56:00Z</time>
  <course>342.44</course>
  <speed>25.24</speed>
  <fix>3d</fix>
</trkpt>
<trkpt lat="-27.2669331" lon="151.2875054">
  <ele>487.1</ele>
  <time>2026-09-01T19:56:00Z</time>
  <course>342.88</course>
  <speed>25.175086891607744</speed>
  <fix>3d</fix>
</trkpt>
<trkpt lat="-27.2669948" lon="151.2875271">
  <ele>485.76</ele>
  <time>2026-09-01T19:56:00Z</time>
  <course>342.44</course>
  <speed>25.24</speed>
  <fix>3d</fix>
</trkpt>
<trkpt lat="-27.2669115" lon="151.2874977">
  <ele>487.5</ele>
  <time>2026-09-01T19:56:00Z</time>
  <course>342.92</course>
  <speed>25.17809563886832</speed>
  <fix>3d</fix>
</trkpt>
<trkpt lat="-27.2669515" lon="151.2875116">
  <ele>486.55</ele>
  <time>2026-09-01T19:56:00Z</time>
  <course>342.43</course>
  <speed>25.24</speed>
  <fix>3d</fix>
</trkpt>
<trkpt lat="-27.2668899" lon="151.28749">
  <ele>487.89</ele>
  <time>2026-09-01T19:56:00Z</time>
  <course>342.93</course>
  <speed>25.17809563886832</speed>
  <fix>3d</fix>
</trkpt>
<trkpt lat="-27.2669515" lon="151.2875116">
  <ele>486.55</ele>
  <time>2026-09-01T19:56:00Z</time>
  <course>342.43</course>
  <speed>25.24</speed>
  <fix>3d</fix>
</trkpt>
<trkpt lat="-27.2668683" lon="151.2874823">
  <ele>488.29</ele>
  <time>2026-09-01T19:56:00Z</time>
  <course>342.95</course>
  <speed>25.184624277522982</speed>
  <fix>3d</fix>
</trkpt>
<trkpt lat="-27.2669083" lon="151.2874962">
  <ele>487.35</ele>
  <time>2026-09-01T19:56:00Z</time>
  <course>342.41</course>
  <speed>25.24</speed>
  <fix>3d</fix>
</trkpt>
<trkpt lat="-27.2668467" lon="151.2874746">
  <ele>488.69</ele>
  <time>2026-09-01T19:56:00Z</time>
  <course>342.91</course>
  <speed>25.184624277522982</speed>
  <fix>3d</fix>
</trkpt>
<trkpt lat="-27.2669083" lon="151.2874962">
  <ele>487.35</ele>
  <time>2026-09-01T19:56:00Z</time>
  <course>342.41</course>
  <speed>25.24</speed>
  <fix>3d</fix>
</trkpt>
<trkpt lat="-27.2668251" lon="151.2874669">
  <ele>489.08</ele>
  <time>2026-09-01T19:56:00Z</time>
  <course>342.8</course>
  <speed>25.197168491717477</speed>
  <fix>3d</fix>
</trkpt>
<trkpt lat="-27.266865" lon="151.2874809">
  <ele>488.14</ele>
  <time>2026-09-01T19:56:00Z</time>
  <course>342.42</course>
  <speed>25.25</speed>
  <fix>3d</fix>
</trkpt>
<trkpt lat="-27.2668035" lon="151.2874592">
  <ele>489.48</ele>
  <time>2026-09-01T19:56:00Z</time>
  <course>342.72</course>
  <speed>25.200178570795885</speed>
  <fix>3d</fix>
</trkpt>
<trkpt lat="-27.266865" lon="151.2874809">
  <ele>488.14</ele>
  <time>2026-09-01T19:56:00Z</time>
  <course>342.42</course>
  <speed>25.25</speed>
  <fix>3d</fix>
</trkpt>
<trkpt lat="-27.2667819" lon="151.2874515">
  <ele>489.87</ele>
  <time>2026-09-01T19:56:00Z</time>
  <course>342.76</course>
  <speed>25.203192258124762</speed>
  <fix>3d</fix>
</trkpt>
<trkpt lat="-27.2668218" lon="151.2874655">
  <ele>488.93</ele>
  <time>2026-09-01T19:56:00Z</time>
  <course>342.41</course>
  <speed>25.25</speed>
  <fix>3d</fix>
</trkpt>
<trkpt lat="-27.2667602" lon="151.2874438">
  <ele>490.27</ele>
  <time>2026-09-01T19:56:00Z</time>
  <course>342.74</course>
  <speed>25.206209552409902</speed>
  <fix>3d</fix>
</trkpt>
<trkpt lat="-27.2668218" lon="151.2874655">
  <ele>488.93</ele>
  <time>2026-09-01T19:56:00Z</time>
  <course>342.41</course>
  <speed>25.25</speed>
  <fix>3d</fix>
</trkpt>
<trkpt lat="-27.2667386" lon="151.287436">
  <ele>490.67</ele>
  <time>2026-09-01T19:56:00Z</time>
  <course>342.76</course>
  <speed>25.196676368124425</speed>
  <fix>3d</fix>
</trkpt>
<trkpt lat="-27.2667786" lon="151.28745">
  <ele>489.72</ele>
  <time>2026-09-01T19:56:00Z</time>
  <course>342.39</course>
  <speed>25.26</speed>
  <fix>3d</fix>
</trkpt>
<trkpt lat="-27.2667172" lon="151.2874284">
  <ele>491.07</ele>
  <time>2026-09-01T19:56:00Z</time>
  <course>342.8</course>
  <speed>25.19969841089373</speed>
  <fix>3d</fix>
</trkpt>
<trkpt lat="-27.2667786" lon="151.28745">
  <ele>489.72</ele>
  <time>2026-09-01T19:56:00Z</time>
  <course>342.39</course>
  <speed>25.26</speed>
  <fix>3d</fix>
</trkpt>
<trkpt lat="-27.2666956" lon="151.2874206">
  <ele>491.47</ele>
  <time>2026-09-01T19:56:00Z</time>
  <course>342.79</course>
  <speed>25.19016673227869</speed>
  <fix>3d</fix>
</trkpt>
<trkpt lat="-27.2667354" lon="151.2874345">
  <ele>490.52</ele>
  <time>2026-09-01T19:56:00Z</time>
  <course>342.36</course>
  <speed>25.25</speed>
  <fix>3d</fix>
</trkpt>
<trkpt lat="-27.266674" lon="151.2874129">
  <ele>491.87</ele>
  <time>2026-09-01T19:56:00Z</time>
  <course>342.82</course>
  <speed>25.187143545864824</speed>
  <fix>3d</fix>
</trkpt>
<trkpt lat="-27.2667354" lon="151.2874345">
  <ele>490.52</ele>
  <time>2026-09-01T19:56:00Z</time>
  <course>342.36</course>
  <speed>25.25</speed>
  <fix>3d</fix>
</trkpt>
<trkpt lat="-27.2666524" lon="151.2874051">
  <ele>492.27</ele>
  <time>2026-09-01T19:56:00Z</time>
  <course>342.78</course>
  <speed>25.18063541692306</speed>
  <fix>3d</fix>
</trkpt>
<trkpt lat="-27.2666922" lon="151.2874191">
  <ele>491.32</ele>
  <time>2026-09-01T19:56:00Z</time>
  <course>342.34</course>
  <speed>25.24</speed>
  <fix>3d</fix>
</trkpt>
<trkpt lat="-27.2666305" lon="151.2873973">
  <ele>492.69</ele>
  <time>2026-09-01T19:56:00Z</time>
  <course>342.77</course>
  <speed>25.1711044652395</speed>
  <fix>3d</fix>
</trkpt>
<trkpt lat="-27.2666922" lon="151.2874191">
  <ele>491.32</ele>
  <time>2026-09-01T19:56:00Z</time>
  <course>342.34</course>
  <speed>25.24</speed>
  <fix>3d</fix>
</trkpt>
<trkpt lat="-27.2666089" lon="151.2873895">
  <ele>493.09</ele>
  <time>2026-09-01T19:56:00Z</time>
  <course>342.8</course>
  <speed>25.168078989068672</speed>
  <fix>3d</fix>
</trkpt>
<trkpt lat="-27.266649" lon="151.2874037">
  <ele>492.12</ele>
  <time>2026-09-01T19:56:00Z</time>
  <course>342.34</course>
  <speed>25.23</speed>
  <fix>3d</fix>
</trkpt>
<trkpt lat="-27.2665873" lon="151.2873818">
  <ele>493.5</ele>
  <time>2026-09-01T19:56:00Z</time>
  <course>342.83</course>
  <speed>25.168078989068672</speed>
  <fix>3d</fix>
</trkpt>
<trkpt lat="-27.266649" lon="151.2874037">
  <ele>492.12</ele>
  <time>2026-09-01T19:56:00Z</time>
  <course>342.34</course>
  <speed>25.23</speed>
  <fix>3d</fix>
</trkpt>
<trkpt lat="-27.2665657" lon="151.2873741">
  <ele>493.89</ele>
  <time>2026-09-01T19:56:00Z</time>
  <course>342.76</course>
  <speed>25.18063541692306</speed>
  <fix>3d</fix>
</trkpt>
<trkpt lat="-27.2666058" lon="151.2873882">
  <ele>492.93</ele>
  <time>2026-09-01T19:56:00Z</time>
  <course>342.33</course>
  <speed>25.22</speed>
  <fix>3d</fix>
</trkpt>
<trkpt lat="-27.2665441" lon="151.2873663">
  <ele>494.29</ele>
  <time>2026-09-01T19:56:00Z</time>
  <course>342.75</course>
  <speed>25.187143545864824</speed>
  <fix>3d</fix>
</trkpt>
<trkpt lat="-27.2666058" lon="151.2873882">
  <ele>492.93</ele>
  <time>2026-09-01T19:56:00Z</time>
  <course>342.33</course>
  <speed>25.22</speed>
  <fix>3d</fix>
</trkpt>
<trkpt lat="-27.2665224" lon="151.2873586">
  <ele>494.68</ele>
  <time>2026-09-01T19:56:00Z</time>
  <course>342.75</course>
  <speed>25.196676368124425</speed>
  <fix>3d</fix>
</trkpt>
<trkpt lat="-27.2665625" lon="151.2873727">
  <ele>493.73</ele>
  <time>2026-09-01T19:56:00Z</time>
  <course>342.34</course>
  <speed>25.22</speed>
  <fix>3d</fix>
</trkpt>
<trkpt lat="-27.2665008" lon="151.2873508">
  <ele>495.07</ele>
  <time>2026-09-01T19:56:00Z</time>
  <course>342.74</course>
  <speed>25.196676368124425</speed>
  <fix>3d</fix>
</trkpt>
<trkpt lat="-27.2665625" lon="151.2873727">
  <ele>493.73</ele>
  <time>2026-09-01T19:56:00Z</time>
  <course>342.34</course>
  <speed>25.22</speed>
  <fix>3d</fix>
</trkpt>
<trkpt lat="-27.2664791" lon="151.2873431">
  <ele>495.46</ele>
  <time>2026-09-01T19:56:00Z</time>
  <course>342.72</course>
  <speed>25.196676368124425</speed>
  <fix>3d</fix>
</trkpt>
<trkpt lat="-27.2665193" lon="151.2873572">
  <ele>494.52</ele>
  <time>2026-09-01T19:56:00Z</time>
  <course>342.35</course>
  <speed>25.23</speed>
  <fix>3d</fix>
</trkpt>
<trkpt lat="-27.2664574" lon="151.2873353">
  <ele>495.85</ele>
  <time>2026-09-01T19:56:00Z</time>
  <course>342.79</course>
  <speed>25.206209552409902</speed>
  <fix>3d</fix>
</trkpt>
<trkpt lat="-27.2665193" lon="151.2873572">
  <ele>494.52</ele>
  <time>2026-09-01T19:56:00Z</time>
  <course>342.35</course>
  <speed>25.23</speed>
  <fix>3d</fix>
</trkpt>
<trkpt lat="-27.2664357" lon="151.2873276">
  <ele>496.24</ele>
  <time>2026-09-01T19:56:00Z</time>
  <course>342.84</course>
  <speed>25.215743098310625</speed>
  <fix>3d</fix>
</trkpt>
<trkpt lat="-27.2664761" lon="151.2873417">
  <ele>495.31</ele>
  <time>2026-09-01T19:56:00Z</time>
  <course>342.36</course>
  <speed>25.23</speed>
  <fix>3d</fix>
</trkpt>
<trkpt lat="-27.2664141" lon="151.2873198">
  <ele>496.63</ele>
  <time>2026-09-01T19:56:00Z</time>
  <course>342.78</course>
  <speed>25.22829562217789</speed>
  <fix>3d</fix>
</trkpt>
<trkpt lat="-27.2664761" lon="151.2873417">
  <ele>495.31</ele>
  <time>2026-09-01T19:56:00Z</time>
  <course>342.36</course>
  <speed>25.23</speed>
  <fix>3d</fix>
</trkpt>
<trkpt lat="-27.2663923" lon="151.2873121">
  <ele>497.02</ele>
  <time>2026-09-01T19:56:00Z</time>
  <course>342.8</course>
  <speed>25.22829562217789</speed>
  <fix>3d</fix>
</trkpt>
<trkpt lat="-27.2664329" lon="151.2873263">
  <ele>496.08</ele>
  <time>2026-09-01T19:56:00Z</time>
  <course>342.37</course>
  <speed>25.23</speed>
  <fix>3d</fix>
</trkpt>
<trkpt lat="-27.2663706" lon="151.2873043">
  <ele>497.41</ele>
  <time>2026-09-01T19:56:00Z</time>
  <course>342.78</course>
  <speed>25.23481127331845</speed>
  <fix>3d</fix>
</trkpt>
<trkpt lat="-27.2664329" lon="151.2873263">
  <ele>496.08</ele>
  <time>2026-09-01T19:56:00Z</time>
  <course>342.37</course>
  <speed>25.23</speed>
  <fix>3d</fix>
</trkpt>
<trkpt lat="-27.2663489" lon="151.2872965">
  <ele>497.8</ele>
  <time>2026-09-01T19:56:00Z</time>
  <course>342.8</course>
  <speed>25.23782874971617</speed>
  <fix>3d</fix>
</trkpt>
<trkpt lat="-27.2663897" lon="151.2873109">
  <ele>496.86</ele>
  <time>2026-09-01T19:56:00Z</time>
  <course>342.39</course>
  <speed>25.23</speed>
  <fix>3d</fix>
</trkpt>
<trkpt lat="-27.2663272" lon="151.2872888">
  <ele>498.18</ele>
  <time>2026-09-01T19:56:00Z</time>
  <course>342.82</course>
  <speed>25.247362238459687</speed>
  <fix>3d</fix>
</trkpt>
<trkpt lat="-27.2663897" lon="151.2873109">
  <ele>496.86</ele>
  <time>2026-09-01T19:56:00Z</time>
  <course>342.39</course>
  <speed>25.23</speed>
  <fix>3d</fix>
</trkpt>
<trkpt lat="-27.2663055" lon="151.287281">
  <ele>498.57</ele>
  <time>2026-09-01T19:56:00Z</time>
  <course>342.82</course>
  <speed>25.247362238459687</speed>
  <fix>3d</fix>
</trkpt>
<trkpt lat="-27.2663465" lon="151.2872955">
  <ele>497.64</ele>
  <time>2026-09-01T19:56:00Z</time>
  <course>342.39</course>
  <speed>25.24</speed>
  <fix>3d</fix>
</trkpt>
<trkpt lat="-27.2662838" lon="151.2872733">
  <ele>498.96</ele>
  <time>2026-09-01T19:56:00Z</time>
  <course>342.85</course>
  <speed>25.253880889875123</speed>
  <fix>3d</fix>
</trkpt>
<trkpt lat="-27.2663465" lon="151.2872955">
  <ele>497.64</ele>
  <time>2026-09-01T19:56:00Z</time>
  <course>342.39</course>
  <speed>25.24</speed>
  <fix>3d</fix>
</trkpt>
<trkpt lat="-27.2662623" lon="151.2872656">
  <ele>499.35</ele>
  <time>2026-09-01T19:56:00Z</time>
  <course>342.91</course>
  <speed>25.253880889875123</speed>
  <fix>3d</fix>
</trkpt>
<trkpt lat="-27.2663033" lon="151.2872801">
  <ele>498.43</ele>
  <time>2026-09-01T19:56:00Z</time>
  <course>342.4</course>
  <speed>25.24</speed>
  <fix>3d</fix>
</trkpt>
<trkpt lat="-27.2662406" lon="151.2872579">
  <ele>499.73</ele>
  <time>2026-09-01T19:56:00Z</time>
  <course>342.9</course>
  <speed>25.263416237714168</speed>
  <fix>3d</fix>
</trkpt>
<trkpt lat="-27.2663033" lon="151.2872801">
  <ele>498.43</ele>
  <time>2026-09-01T19:56:00Z</time>
  <course>342.4</course>
  <speed>25.24</speed>
  <fix>3d</fix>
</trkpt>
<trkpt lat="-27.2662189" lon="151.2872502">
  <ele>500.12</ele>
  <time>2026-09-01T19:56:00Z</time>
  <course>342.92</course>
  <speed>25.263416237714168</speed>
  <fix>3d</fix>
</trkpt>
<trkpt lat="-27.2662601" lon="151.2872646">
  <ele>499.21</ele>
  <time>2026-09-01T19:56:00Z</time>
  <course>342.42</course>
  <speed>25.24</speed>
  <fix>3d</fix>
</trkpt>
<trkpt lat="-27.2661973" lon="151.2872424">
  <ele>500.51</ele>
  <time>2026-09-01T19:56:00Z</time>
  <course>342.89</course>
  <speed>25.272951944717498</speed>
  <fix>3d</fix>
</trkpt>
<trkpt lat="-27.2662601" lon="151.2872646">
  <ele>499.21</ele>
  <time>2026-09-01T19:56:00Z</time>
  <course>342.42</course>
  <speed>25.24</speed>
  <fix>3d</fix>
</trkpt>
<trkpt lat="-27.2661754" lon="151.2872347">
  <ele>500.91</ele>
  <time>2026-09-01T19:56:00Z</time>
  <course>342.86</course>
  <speed>25.272951944717498</speed>
  <fix>3d</fix>
</trkpt>
<trkpt lat="-27.2662168" lon="151.2872492">
  <ele>499.99</ele>
  <time>2026-09-01T19:56:00Z</time>
  <course>342.43</course>
  <speed>25.25</speed>
  <fix>3d</fix>
</trkpt>
<trkpt lat="-27.2661537" lon="151.2872269">
  <ele>501.3</ele>
  <time>2026-09-01T19:56:00Z</time>
  <course>342.92</course>
  <speed>25.285499797314664</speed>
  <fix>3d</fix>
</trkpt>
<trkpt lat="-27.2662168" lon="151.2872492">
  <ele>499.99</ele>
  <time>2026-09-01T19:56:00Z</time>
  <course>342.43</course>
  <speed>25.25</speed>
  <fix>3d</fix>
</trkpt>
<trkpt lat="-27.266132" lon="151.2872192">
  <ele>501.7</ele>
  <time>2026-09-01T19:56:00Z</time>
  <course>342.94</course>
  <speed>25.285499797314664</speed>
  <fix>3d</fix>
</trkpt>
<trkpt lat="-27.2661736" lon="151.2872339">
  <ele>500.77</ele>
  <time>2026-09-01T19:56:00Z</time>
  <course>342.42</course>
  <speed>25.25</speed>
  <fix>3d</fix>
</trkpt>
<trkpt lat="-27.2661104" lon="151.2872115">
  <ele>502.09</ele>
  <time>2026-09-01T19:56:00Z</time>
  <course>342.92</course>
  <speed>25.285499797314664</speed>
  <fix>3d</fix>
</trkpt>
<trkpt lat="-27.2661736" lon="151.2872339">
  <ele>500.77</ele>
  <time>2026-09-01T19:56:00Z</time>
  <course>342.42</course>
  <speed>25.25</speed>
  <fix>3d</fix>
</trkpt>
<trkpt lat="-27.2660887" lon="151.2872038">
  <ele>502.48</ele>
  <time>2026-09-01T19:56:00Z</time>
  <course>342.84</course>
  <speed>25.285499797314664</speed>
  <fix>3d</fix>
</trkpt>
<trkpt lat="-27.2661302" lon="151.2872184">
  <ele>501.56</ele>
  <time>2026-09-01T19:56:00Z</time>
  <course>342.42</course>
  <speed>25.26</speed>
  <fix>3d</fix>
</trkpt>
<trkpt lat="-27.266067" lon="151.287196">
  <ele>502.88</ele>
  <time>2026-09-01T19:56:00Z</time>
  <course>342.85</course>
  <speed>25.27596486783442</speed>
  <fix>3d</fix>
</trkpt>
<trkpt lat="-27.2661302" lon="151.2872184">
  <ele>501.56</ele>
  <time>2026-09-01T19:56:00Z</time>
  <course>342.42</course>
  <speed>25.26</speed>
  <fix>3d</fix>
</trkpt>
<trkpt lat="-27.2660452" lon="151.2871882">
  <ele>503.28</ele>
  <time>2026-09-01T19:56:00Z</time>
  <course>342.82</course>
  <speed>25.27596486783442</speed>
  <fix>3d</fix>
</trkpt>
<trkpt lat="-27.2660869" lon="151.2872029">
  <ele>502.34</ele>
  <time>2026-09-01T19:56:00Z</time>
  <course>342.41</course>
  <speed>25.25</speed>
  <fix>3d</fix>
</trkpt>
<trkpt lat="-27.2660235" lon="151.2871805">
  <ele>503.68</ele>
  <time>2026-09-01T19:56:00Z</time>
  <course>342.83</course>
  <speed>25.288515179820266</speed>
  <fix>3d</fix>
</trkpt>
<trkpt lat="-27.2660869" lon="151.2872029">
  <ele>502.34</ele>
  <time>2026-09-01T19:56:00Z</time>
  <course>342.41</course>
  <speed>25.25</speed>
  <fix>3d</fix>
</trkpt>
<trkpt lat="-27.2660019" lon="151.2871728">
  <ele>504.08</ele>
  <time>2026-09-01T19:56:00Z</time>
  <course>342.87</course>
  <speed>25.27596486783442</speed>
  <fix>3d</fix>
</trkpt>
<trkpt lat="-27.2660437" lon="151.2871875">
  <ele>503.13</ele>
  <time>2026-09-01T19:56:00Z</time>
  <course>342.4</course>
  <speed>25.25</speed>
  <fix>3d</fix>
</trkpt>
<trkpt lat="-27.2659802" lon="151.287165">
  <ele>504.48</ele>
  <time>2026-09-01T19:56:00Z</time>
  <course>342.9</course>
  <speed>25.26643029792693</speed>
  <fix>3d</fix>
</trkpt>
<trkpt lat="-27.2660437" lon="151.2871875">
  <ele>503.13</ele>
  <time>2026-09-01T19:56:00Z</time>
  <course>342.4</course>
  <speed>25.25</speed>
  <fix>3d</fix>
</trkpt>
<trkpt lat="-27.2659585" lon="151.2871573">
  <ele>504.87</ele>
  <time>2026-09-01T19:56:00Z</time>
  <course>342.86</course>
  <speed>25.27596486783442</speed>
  <fix>3d</fix>
</trkpt>
<trkpt lat="-27.2660004" lon="151.2871721">
  <ele>503.93</ele>
  <time>2026-09-01T19:56:00Z</time>
  <course>342.4</course>
  <speed>25.25</speed>
  <fix>3d</fix>
</trkpt>
<trkpt lat="-27.2659368" lon="151.2871496">
  <ele>505.27</ele>
  <time>2026-09-01T19:56:00Z</time>
  <course>342.84</course>
  <speed>25.263416237714168</speed>
  <fix>3d</fix>
</trkpt>
<trkpt lat="-27.2660004" lon="151.2871721">
  <ele>503.93</ele>
  <time>2026-09-01T19:56:00Z</time>
  <course>342.4</course>
  <speed>25.25</speed>
  <fix>3d</fix>
</trkpt>
<trkpt lat="-27.2659152" lon="151.2871419">
  <ele>505.67</ele>
  <time>2026-09-01T19:56:00Z</time>
  <course>342.74</course>
  <speed>25.26643029792693</speed>
  <fix>3d</fix>
</trkpt>
<trkpt lat="-27.2659572" lon="151.2871567">
  <ele>504.72</ele>
  <time>2026-09-01T19:56:00Z</time>
  <course>342.41</course>
  <speed>25.24</speed>
  <fix>3d</fix>
</trkpt>
<trkpt lat="-27.2658935" lon="151.2871341">
  <ele>506.07</ele>
  <time>2026-09-01T19:56:00Z</time>
  <course>342.71</course>
  <speed>25.26643029792693</speed>
  <fix>3d</fix>
</trkpt>
<trkpt lat="-27.2659572" lon="151.2871567">
  <ele>504.72</ele>
  <time>2026-09-01T19:56:00Z</time>
  <course>342.41</course>
  <speed>25.24</speed>
  <fix>3d</fix>
</trkpt>
<trkpt lat="-27.2658718" lon="151.2871264">
  <ele>506.47</ele>
  <time>2026-09-01T19:56:00Z</time>
  <course>342.74</course>
  <speed>25.2820015030456</speed>
  <fix>3d</fix>
</trkpt>
<trkpt lat="-27.265914" lon="151.2871413">
  <ele>505.52</ele>
  <time>2026-09-01T19:56:00Z</time>
  <course>342.41</course>
  <speed>25.23</speed>
  <fix>3d</fix>
</trkpt>
<trkpt lat="-27.2658502" lon="151.2871187">
  <ele>506.86</ele>
  <time>2026-09-01T19:56:00Z</time>
  <course>342.79</course>
  <speed>25.2820015030456</speed>
  <fix>3d</fix>
</trkpt>
<trkpt lat="-27.265914" lon="151.2871413">
  <ele>505.52</ele>
  <time>2026-09-01T19:56:00Z</time>
  <course>342.41</course>
  <speed>25.23</speed>
  <fix>3d</fix>
</trkpt>
<trkpt lat="-27.2658285" lon="151.2871109">
  <ele>507.25</ele>
  <time>2026-09-01T19:56:00Z</time>
  <course>342.8</course>
  <speed>25.2820015030456</speed>
  <fix>3d</fix>
</trkpt>
<trkpt lat="-27.2658708" lon="151.2871258">
  <ele>506.31</ele>
  <time>2026-09-01T19:56:00Z</time>
  <course>342.38</course>
  <speed>25.24</speed>
  <fix>3d</fix>
</trkpt>
<trkpt lat="-27.265807" lon="151.2871032">
  <ele>507.64</ele>
  <time>2026-09-01T19:56:00Z</time>
  <course>342.73</course>
  <speed>25.2820015030456</speed>
  <fix>3d</fix>
</trkpt>
<trkpt lat="-27.2658708" lon="151.2871258">
  <ele>506.31</ele>
  <time>2026-09-01T19:56:00Z</time>
  <course>342.38</course>
  <speed>25.24</speed>
  <fix>3d</fix>
</trkpt>
<trkpt lat="-27.2657854" lon="151.2870955">
  <ele>508.03</ele>
  <time>2026-09-01T19:56:00Z</time>
  <course>342.71</course>
  <speed>25.285025212564054</speed>
  <fix>3d</fix>
</trkpt>
<trkpt lat="-27.2658276" lon="151.2871104">
  <ele>507.09</ele>
  <time>2026-09-01T19:56:00Z</time>
  <course>342.37</course>
  <speed>25.25</speed>
  <fix>3d</fix>
</trkpt>
<trkpt lat="-27.2657637" lon="151.2870877">
  <ele>508.43</ele>
  <time>2026-09-01T19:56:00Z</time>
  <course>342.74</course>
  <speed>25.272469210585655</speed>
  <fix>3d</fix>
</trkpt>
<trkpt lat="-27.2658276" lon="151.2871104">
  <ele>507.09</ele>
  <time>2026-09-01T19:56:00Z</time>
  <course>342.37</course>
  <speed>25.25</speed>
  <fix>3d</fix>
</trkpt>
<trkpt lat="-27.2657421" lon="151.28708">
  <ele>508.83</ele>
  <time>2026-09-01T19:56:00Z</time>
  <course>342.73</course>
  <speed>25.275494060453102</speed>
  <fix>3d</fix>
</trkpt>
<trkpt lat="-27.2657844" lon="151.287095">
  <ele>507.88</ele>
  <time>2026-09-01T19:56:00Z</time>
  <course>342.36</course>
  <speed>25.24</speed>
  <fix>3d</fix>
</trkpt>
<trkpt lat="-27.2657203" lon="151.2870722">
  <ele>509.22</ele>
  <time>2026-09-01T19:56:00Z</time>
  <course>342.71</course>
  <speed>25.27852250429206</speed>
  <fix>3d</fix>
</trkpt>
<trkpt lat="-27.2657844" lon="151.287095">
  <ele>507.88</ele>
  <time>2026-09-01T19:56:00Z</time>
  <course>342.36</course>
  <speed>25.24</speed>
  <fix>3d</fix>
</trkpt>
<trkpt lat="-27.2656987" lon="151.2870644">
  <ele>509.61</ele>
  <time>2026-09-01T19:56:00Z</time>
  <course>342.81</course>
  <speed>25.275494060453102</speed>
  <fix>3d</fix>
</trkpt>
<trkpt lat="-27.2657412" lon="151.2870795">
  <ele>508.66</ele>
  <time>2026-09-01T19:56:00Z</time>
  <course>342.35</course>
  <speed>25.24</speed>
  <fix>3d</fix>
</trkpt>
<trkpt lat="-27.265677" lon="151.2870567">
  <ele>510.0</ele>
  <time>2026-09-01T19:56:00Z</time>
  <course>342.83</course>
  <speed>25.285025212564054</speed>
  <fix>3d</fix>
</trkpt>
<trkpt lat="-27.2657412" lon="151.2870795">
  <ele>508.66</ele>
  <time>2026-09-01T19:56:00Z</time>
  <course>342.35</course>
  <speed>25.24</speed>
  <fix>3d</fix>
</trkpt>
<trkpt lat="-27.2656554" lon="151.287049">
  <ele>510.39</ele>
  <time>2026-09-01T19:56:00Z</time>
  <course>342.81</course>
  <speed>25.2820015030456</speed>
  <fix>3d</fix>
</trkpt>
<trkpt lat="-27.265698" lon="151.287064">
  <ele>509.45</ele>
  <time>2026-09-01T19:56:00Z</time>
  <course>342.34</course>
  <speed>25.24</speed>
  <fix>3d</fix>
</trkpt>
<trkpt lat="-27.2656338" lon="151.2870412">
  <ele>510.77</ele>
  <time>2026-09-01T19:56:00Z</time>
  <course>342.83</course>
  <speed>25.2820015030456</speed>
  <fix>3d</fix>
</trkpt>
<trkpt lat="-27.265698" lon="151.287064">
  <ele>509.45</ele>
  <time>2026-09-01T19:56:00Z</time>
  <course>342.34</course>
  <speed>25.24</speed>
  <fix>3d</fix>
</trkpt>
<trkpt lat="-27.2656121" lon="151.2870335">
  <ele>511.16</ele>
  <time>2026-09-01T19:56:00Z</time>
  <course>342.83</course>
  <speed>25.27898138770627</speed>
  <fix>3d</fix>
</trkpt>
<trkpt lat="-27.2656546" lon="151.2870485">
  <ele>510.22</ele>
  <time>2026-09-01T19:56:00Z</time>
  <course>342.37</course>
  <speed>25.25</speed>
  <fix>3d</fix>
</trkpt>
<trkpt lat="-27.2655905" lon="151.2870258">
  <ele>511.55</ele>
  <time>2026-09-01T19:56:00Z</time>
  <course>342.85</course>
  <speed>25.272951944717498</speed>
  <fix>3d</fix>
</trkpt>
<trkpt lat="-27.2656546" lon="151.2870485">
  <ele>510.22</ele>
  <time>2026-09-01T19:56:00Z</time>
  <course>342.37</course>
  <speed>25.25</speed>
  <fix>3d</fix>
</trkpt>
<trkpt lat="-27.2655689" lon="151.2870181">
  <ele>511.94</ele>
  <time>2026-09-01T19:56:00Z</time>
  <course>342.89</course>
  <speed>25.279479820597576</speed>
  <fix>3d</fix>
</trkpt>
<trkpt lat="-27.2656113" lon="151.2870331">
  <ele>511.0</ele>
  <time>2026-09-01T19:56:00Z</time>
  <course>342.4</course>
  <speed>25.25</speed>
  <fix>3d</fix>
</trkpt>
<trkpt lat="-27.2655472" lon="151.2870104">
  <ele>512.33</ele>
  <time>2026-09-01T19:56:00Z</time>
  <course>342.89</course>
  <speed>25.276475228955476</speed>
  <fix>3d</fix>
</trkpt>
<trkpt lat="-27.2656113" lon="151.2870331">
  <ele>511.0</ele>
  <time>2026-09-01T19:56:00Z</time>
  <course>342.4</course>
  <speed>25.25</speed>
  <fix>3d</fix>
</trkpt>
<trkpt lat="-27.2655255" lon="151.2870027">
  <ele>512.72</ele>
  <time>2026-09-01T19:56:00Z</time>
  <course>342.95</course>
  <speed>25.283014060827476</speed>
  <fix>3d</fix>
</trkpt>
<trkpt lat="-27.2655681" lon="151.2870176">
  <ele>511.78</ele>
  <time>2026-09-01T19:56:00Z</time>
  <course>342.44</course>
  <speed>25.25</speed>
  <fix>3d</fix>
</trkpt>
<trkpt lat="-27.2655039" lon="151.286995">
  <ele>513.11</ele>
  <time>2026-09-01T19:56:00Z</time>
  <course>342.98</course>
  <speed>25.28001780062664</speed>
  <fix>3d</fix>
</trkpt>
<trkpt lat="-27.2655681" lon="151.2870176">
  <ele>511.78</ele>
  <time>2026-09-01T19:56:00Z</time>
  <course>342.44</course>
  <speed>25.25</speed>
  <fix>3d</fix>
</trkpt>
<trkpt lat="-27.2654822" lon="151.2869874">
  <ele>513.5</ele>
  <time>2026-09-01T19:56:00Z</time>
  <course>342.94</course>
  <speed>25.28656758043685</speed>
  <fix>3d</fix>
</trkpt>
<trkpt lat="-27.2655248" lon="151.2870023">
  <ele>512.57</ele>
  <time>2026-09-01T19:56:00Z</time>
  <course>342.49</course>
  <speed>25.25</speed>
  <fix>3d</fix>
</trkpt>
<trkpt lat="-27.2654606" lon="151.2869797">
  <ele>513.88</ele>
  <time>2026-09-01T19:56:00Z</time>
  <course>342.88</course>
  <speed>25.28656758043685</speed>
  <fix>3d</fix>
</trkpt>
<trkpt lat="-27.2655248" lon="151.2870023">
  <ele>512.57</ele>
  <time>2026-09-01T19:56:00Z</time>
  <course>342.49</course>
  <speed>25.25</speed>
  <fix>3d</fix>
</trkpt>
<trkpt lat="-27.2654387" lon="151.286972">
  <ele>514.27</ele>
  <time>2026-09-01T19:56:00Z</time>
  <course>342.87</course>
  <speed>25.277025141420424</speed>
  <fix>3d</fix>
</trkpt>
<trkpt lat="-27.2654815" lon="151.2869869">
  <ele>513.34</ele>
  <time>2026-09-01T19:56:00Z</time>
  <course>342.52</course>
  <speed>25.26</speed>
  <fix>3d</fix>
</trkpt>
<trkpt lat="-27.2654171" lon="151.2869643">
  <ele>514.66</ele>
  <time>2026-09-01T19:56:00Z</time>
  <course>342.9</course>
  <speed>25.277025141420424</speed>
  <fix>3d</fix>
</trkpt>
<trkpt lat="-27.2654815" lon="151.2869869">
  <ele>513.34</ele>
  <time>2026-09-01T19:56:00Z</time>
  <course>342.52</course>
  <speed>25.26</speed>
  <fix>3d</fix>
</trkpt>
<trkpt lat="-27.2653954" lon="151.2869567">
  <ele>515.05</ele>
  <time>2026-09-01T19:56:00Z</time>
  <course>342.89</course>
  <speed>25.28656758043685</speed>
  <fix>3d</fix>
</trkpt>
<trkpt lat="-27.2654383" lon="151.2869716">
  <ele>514.13</ele>
  <time>2026-09-01T19:56:00Z</time>
  <course>342.53</course>
  <speed>25.26</speed>
  <fix>3d</fix>
</trkpt>
<trkpt lat="-27.2653738" lon="151.286949">
  <ele>515.44</ele>
  <time>2026-09-01T19:56:00Z</time>
  <course>342.92</course>
  <speed>25.277025141420424</speed>
  <fix>3d</fix>
</trkpt>
<trkpt lat="-27.2654383" lon="151.2869716">
  <ele>514.13</ele>
  <time>2026-09-01T19:56:00Z</time>
  <course>342.53</course>
  <speed>25.26</speed>
  <fix>3d</fix>
</trkpt>
<trkpt lat="-27.2653523" lon="151.2869414">
  <ele>515.83</ele>
  <time>2026-09-01T19:56:00Z</time>
  <course>342.97</course>
  <speed>25.27403608448797</speed>
  <fix>3d</fix>
</trkpt>
<trkpt lat="-27.265395" lon="151.2869563">
  <ele>514.91</ele>
  <time>2026-09-01T19:56:00Z</time>
  <course>342.53</course>
  <speed>25.25</speed>
  <fix>3d</fix>
</trkpt>
<trkpt lat="-27.2653307" lon="151.2869338">
  <ele>516.23</ele>
  <time>2026-09-01T19:56:00Z</time>
  <course>343.03</course>
  <speed>25.271050631107524</speed>
  <fix>3d</fix>
</trkpt>
<trkpt lat="-27.265395" lon="151.2869563">
  <ele>514.91</ele>
  <time>2026-09-01T19:56:00Z</time>
  <course>342.53</course>
  <speed>25.25</speed>
  <fix>3d</fix>
</trkpt>
<trkpt lat="-27.2653091" lon="151.2869262">
  <ele>516.63</ele>
  <time>2026-09-01T19:56:00Z</time>
  <course>343.02</course>
  <speed>25.280595325268745</speed>
  <fix>3d</fix>
</trkpt>
<trkpt lat="-27.2653517" lon="151.286941">
  <ele>515.7</ele>
  <time>2026-09-01T19:56:00Z</time>
  <course>342.54</course>
  <speed>25.25</speed>
  <fix>3d</fix>
</trkpt>
<trkpt lat="-27.2652874" lon="151.2869185">
  <ele>517.02</ele>
  <time>2026-09-01T19:56:00Z</time>
  <course>343.08</course>
  <speed>25.268068782556373</speed>
  <fix>3d</fix>
</trkpt>
<trkpt lat="-27.2653517" lon="151.286941">
  <ele>515.7</ele>
  <time>2026-09-01T19:56:00Z</time>
  <course>342.54</course>
  <speed>25.25</speed>
  <fix>3d</fix>
</trkpt>
<trkpt lat="-27.2652656" lon="151.2869109">
  <ele>517.42</ele>
  <time>2026-09-01T19:56:00Z</time>
  <course>343.01</course>
  <speed>25.265090540110872</speed>
  <fix>3d</fix>
</trkpt>
<trkpt lat="-27.2653084" lon="151.2869257">
  <ele>516.49</ele>
  <time>2026-09-01T19:56:00Z</time>
  <course>342.56</course>
  <speed>25.25</speed>
  <fix>3d</fix>
</trkpt>
<trkpt lat="-27.265244" lon="151.2869032">
  <ele>517.81</ele>
  <time>2026-09-01T19:56:00Z</time>
  <course>342.93</course>
  <speed>25.265090540110872</speed>
  <fix>3d</fix>
</trkpt>
<trkpt lat="-27.2653084" lon="151.2869257">
  <ele>516.49</ele>
  <time>2026-09-01T19:56:00Z</time>
  <course>342.56</course>
  <speed>25.25</speed>
  <fix>3d</fix>
</trkpt>
<trkpt lat="-27.2652223" lon="151.2868956">
  <ele>518.21</ele>
  <time>2026-09-01T19:56:00Z</time>
  <course>343.18</course>
  <speed>25.265090540110872</speed>
  <fix>3d</fix>
</trkpt>
<trkpt lat="-27.2652652" lon="151.2869104">
  <ele>517.28</ele>
  <time>2026-09-01T19:56:00Z</time>
  <course>342.59</course>
  <speed>25.25</speed>
  <fix>3d</fix>
</trkpt>
<trkpt lat="-27.2652007" lon="151.286888">
  <ele>518.6</ele>
  <time>2026-09-01T19:56:00Z</time>
  <course>343.7</course>
  <speed>25.265727774991955</speed>
  <fix>3d</fix>
</trkpt>
<trkpt lat="-27.2652652" lon="151.2869104">
  <ele>517.28</ele>
  <time>2026-09-01T19:56:00Z</time>
  <course>342.59</course>
  <speed>25.25</speed>
  <fix>3d</fix>
</trkpt>
<trkpt lat="-27.265179" lon="151.2868805">
  <ele>518.99</ele>
  <time>2026-09-01T19:56:00Z</time>
  <course>344.38</course>
  <speed>25.26202683871585</speed>
  <fix>3d</fix>
</trkpt>
<trkpt lat="-27.2652218" lon="151.2868951">
  <ele>518.07</ele>
  <time>2026-09-01T19:56:00Z</time>
  <course>342.63</course>
  <speed>25.26</speed>
  <fix>3d</fix>
</trkpt>
<trkpt lat="-27.2651573" lon="151.2868731">
  <ele>519.39</ele>
  <time>2026-09-01T19:56:00Z</time>
  <course>345.13</course>
  <speed>25.25727222009534</speed>
  <fix>3d</fix>
</trkpt>
<trkpt lat="-27.2652218" lon="151.2868951">
  <ele>518.07</ele>
  <time>2026-09-01T19:56:00Z</time>
  <course>342.63</course>
  <speed>25.26</speed>
  <fix>3d</fix>
</trkpt>
<trkpt lat="-27.2651355" lon="151.2868661">
  <ele>519.79</ele>
  <time>2026-09-01T19:56:00Z</time>
  <course>345.79</course>
  <speed>25.2479642743727</speed>
  <fix>3d</fix>
</trkpt>
<trkpt lat="-27.2651783" lon="151.28688">
  <ele>518.87</ele>
  <time>2026-09-01T19:56:00Z</time>
  <course>343.07</course>
  <speed>25.26</speed>
  <fix>3d</fix>
</trkpt>
<trkpt lat="-27.2651136" lon="151.2868595">
  <ele>520.19</ele>
  <time>2026-09-01T19:56:00Z</time>
  <course>346.37</course>
  <speed>25.272231796974324</speed>
  <fix>3d</fix>
</trkpt>
<trkpt lat="-27.2651783" lon="151.28688">
  <ele>518.87</ele>
  <time>2026-09-01T19:56:00Z</time>
  <course>343.07</course>
  <speed>25.26</speed>
  <fix>3d</fix>
</trkpt>
<trkpt lat="-27.2650915" lon="151.2868536">
  <ele>520.59</ele>
  <time>2026-09-01T19:56:00Z</time>
  <course>347.26</course>
  <speed>25.30604078080963</speed>
  <fix>3d</fix>
</trkpt>
<trkpt lat="-27.2651348" lon="151.2868657">
  <ele>519.67</ele>
  <time>2026-09-01T19:56:00Z</time>
  <course>344.6</course>
  <speed>25.26</speed>
  <fix>3d</fix>
</trkpt>
<trkpt lat="-27.2650692" lon="151.2868485">
  <ele>520.97</ele>
  <time>2026-09-01T19:56:00Z</time>
  <course>348.82</course>
  <speed>25.34721483713743</speed>
  <fix>3d</fix>
</trkpt>
<trkpt lat="-27.2651348" lon="151.2868657">
  <ele>519.67</ele>
  <time>2026-09-01T19:56:00Z</time>
  <course>344.6</course>
  <speed>25.26</speed>
  <fix>3d</fix>
</trkpt>
<trkpt lat="-27.2650467" lon="151.2868444">
  <ele>521.37</ele>
  <time>2026-09-01T19:56:00Z</time>
  <course>351.07</course>
  <speed>25.382466389222305</speed>
  <fix>3d</fix>
</trkpt>
<trkpt lat="-27.2650908" lon="151.2868533">
  <ele>520.45</ele>
  <time>2026-09-01T19:56:00Z</time>
  <course>347.55</course>
  <speed>25.3</speed>
  <fix>3d</fix>
</trkpt>
<trkpt lat="-27.265024" lon="151.2868415">
  <ele>521.77</ele>
  <time>2026-09-01T19:56:00Z</time>
  <course>353.87</course>
  <speed>25.419773799150924</speed>
  <fix>3d</fix>
</trkpt>
<trkpt lat="-27.2650908" lon="151.2868533">
  <ele>520.45</ele>
  <time>2026-09-01T19:56:00Z</time>
  <course>347.55</course>
  <speed>25.3</speed>
  <fix>3d</fix>
</trkpt>
<trkpt lat="-27.2650013" lon="151.2868399">
  <ele>522.19</ele>
  <time>2026-09-01T19:56:00Z</time>
  <course>357.18</course>
  <speed>25.423552072831995</speed>
  <fix>3d</fix>
</trkpt>
<trkpt lat="-27.265046" lon="151.2868442">
  <ele>521.24</ele>
  <time>2026-09-01T19:56:00Z</time>
  <course>352.03</course>
  <speed>25.38</speed>
  <fix>3d</fix>
</trkpt>
<trkpt lat="-27.2649784" lon="151.2868398">
  <ele>522.63</ele>
  <time>2026-09-01T19:56:00Z</time>
  <course>0.68</course>
  <speed>25.399374008034133</speed>
  <fix>3d</fix>
</trkpt>
<trkpt lat="-27.265046" lon="151.2868442">
  <ele>521.24</ele>
  <time>2026-09-01T19:56:00Z</time>
  <course>352.03</course>
  <speed>25.38</speed>
  <fix>3d</fix>
</trkpt>
<trkpt lat="-27.2649557" lon="151.2868413">
  <ele>523.1</ele>
  <time>2026-09-01T19:56:00Z</time>
  <course>4.06</course>
  <speed>25.36000985804225</speed>
  <fix>3d</fix>
</trkpt>
<trkpt lat="-27.2650006" lon="151.2868396">
  <ele>522.07</ele>
  <time>2026-09-01T19:56:00Z</time>
  <course>357.99</course>
  <speed>25.41</speed>
  <fix>3d</fix>
</trkpt>
<trkpt lat="-27.2649331" lon="151.2868442">
  <ele>523.6</ele>
  <time>2026-09-01T19:56:00Z</time>
  <course>7.29</course>
  <speed>25.316289222553923</speed>
  <fix>3d</fix>
</trkpt>
<trkpt lat="-27.2650006" lon="151.2868396">
  <ele>522.07</ele>
  <time>2026-09-01T19:56:00Z</time>
  <course>357.99</course>
  <speed>25.41</speed>
  <fix>3d</fix>
</trkpt>
<trkpt lat="-27.2649108" lon="151.2868486">
  <ele>524.11</ele>
  <time>2026-09-01T19:56:00Z</time>
  <course>10.44</course>
  <speed>25.27809526052151</speed>
  <fix>3d</fix>
</trkpt>
<trkpt lat="-27.264955" lon="151.2868407">
  <ele>522.98</ele>
  <time>2026-09-01T19:56:00Z</time>
  <course>4.74</course>
  <speed>25.37</speed>
  <fix>3d</fix>
</trkpt>
<trkpt lat="-27.2648887" lon="151.2868544">
  <ele>524.65</ele>
  <time>2026-09-01T19:56:00Z</time>
  <course>13.57</course>
  <speed>25.24127770141599</speed>
  <fix>3d</fix>
</trkpt>
<trkpt lat="-27.264955" lon="151.2868407">
  <ele>522.98</ele>
  <time>2026-09-01T19:56:00Z</time>
  <course>4.74</course>
  <speed>25.37</speed>
  <fix>3d</fix>
</trkpt>
<trkpt lat="-27.2648669" lon="151.2868615">
  <ele>525.2</ele>
  <time>2026-09-01T19:56:00Z</time>
  <course>16.69</course>
  <speed>25.216458910798714</speed>
  <fix>3d</fix>
</trkpt>
<trkpt lat="-27.26491" lon="151.286848">
  <ele>524.0</ele>
  <time>2026-09-01T19:56:00Z</time>
  <course>11.41</course>
  <speed>25.31</speed>
  <fix>3d</fix>
</trkpt>
<trkpt lat="-27.2648456" lon="151.28687">
  <ele>525.76</ele>
  <time>2026-09-01T19:56:00Z</time>
  <course>19.74</course>
  <speed>25.18536281255444</speed>
  <fix>3d</fix>
</trkpt>
<trkpt lat="-27.26491" lon="151.286848">
  <ele>524.0</ele>
  <time>2026-09-01T19:56:00Z</time>
  <course>11.41</course>
  <speed>25.31</speed>
  <fix>3d</fix>
</trkpt>
<trkpt lat="-27.2648247" lon="151.2868797">
  <ele>526.33</ele>
  <time>2026-09-01T19:56:00Z</time>
  <course>22.8</course>
  <speed>25.184110069645108</speed>
  <fix>3d</fix>
</trkpt>
<trkpt lat="-27.264866" lon="151.2868609">
  <ele>525.08</ele>
  <time>2026-09-01T19:56:00Z</time>
  <course>17.79</course>
  <speed>25.26</speed>
  <fix>3d</fix>
</trkpt>
<trkpt lat="-27.2648041" lon="151.2868908">
  <ele>526.9</ele>
  <time>2026-09-01T19:56:00Z</time>
  <course>25.83</course>
  <speed>25.180994817520613</speed>
  <fix>3d</fix>
</trkpt>
<trkpt lat="-27.264866" lon="151.2868609">
  <ele>525.08</ele>
  <time>2026-09-01T19:56:00Z</time>
  <course>17.79</course>
  <speed>25.26</speed>
  <fix>3d</fix>
</trkpt>
<trkpt lat="-27.2647843" lon="151.286903">
  <ele>527.47</ele>
  <time>2026-09-01T19:56:00Z</time>
  <course>29.01</course>
  <speed>25.178190959638062</speed>
  <fix>3d</fix>
</trkpt>
<trkpt lat="-27.2648237" lon="151.2868791">
  <ele>526.2</ele>
  <time>2026-09-01T19:56:00Z</time>
  <course>24.04</course>
  <speed>25.23</speed>
  <fix>3d</fix>
</trkpt>
<trkpt lat="-27.2647651" lon="151.2869165">
  <ele>528.05</ele>
  <time>2026-09-01T19:56:00Z</time>
  <course>32.33</course>
  <speed>25.172423403399204</speed>
  <fix>3d</fix>
</trkpt>
<trkpt lat="-27.2648237" lon="151.2868791">
  <ele>526.2</ele>
  <time>2026-09-01T19:56:00Z</time>
  <course>24.04</course>
  <speed>25.23</speed>
  <fix>3d</fix>
</trkpt>
<trkpt lat="-27.2647466" lon="151.2869311">
  <ele>528.62</ele>
  <time>2026-09-01T19:56:00Z</time>
  <course>35.51</course>
  <speed>25.164206723042156</speed>
  <fix>3d</fix>
</trkpt>
<trkpt lat="-27.2647834" lon="151.2869024">
  <ele>527.33</ele>
  <time>2026-09-01T19:56:00Z</time>
  <course>30.36</course>
  <speed>25.21</speed>
  <fix>3d</fix>
</trkpt>
<trkpt lat="-27.2647289" lon="151.2869469">
  <ele>529.2</ele>
  <time>2026-09-01T19:56:00Z</time>
  <course>38.61</course>
  <speed>25.165343232310583</speed>
  <fix>3d</fix>
</trkpt>
<trkpt lat="-27.2647834" lon="151.2869024">
  <ele>527.33</ele>
  <time>2026-09-01T19:56:00Z</time>
  <course>30.36</course>
  <speed>25.21</speed>
  <fix>3d</fix>
</trkpt>
<trkpt lat="-27.264712" lon="151.2869637">
  <ele>529.77</ele>
  <time>2026-09-01T19:56:00Z</time>
  <course>41.61</course>
  <speed>25.168400823254544</speed>
  <fix>3d</fix>
</trkpt>
<trkpt lat="-27.2647457" lon="151.2869306">
  <ele>528.48</ele>
  <time>2026-09-01T19:56:00Z</time>
  <course>36.82</course>
  <speed>25.2</speed>
  <fix>3d</fix>
</trkpt>
<trkpt lat="-27.2646959" lon="151.2869816">
  <ele>530.34</ele>
  <time>2026-09-01T19:56:00Z</time>
  <course>44.61</course>
  <speed>25.17452084946206</speed>
  <fix>3d</fix>
</trkpt>
<trkpt lat="-27.2647457" lon="151.2869306">
  <ele>528.48</ele>
  <time>2026-09-01T19:56:00Z</time>
  <course>36.82</course>
  <speed>25.2</speed>
  <fix>3d</fix>
</trkpt>
<trkpt lat="-27.2646807" lon="151.2870004">
  <ele>530.91</ele>
  <time>2026-09-01T19:56:00Z</time>
  <course>47.68</course>
  <speed>25.18136612656271</speed>
  <fix>3d</fix>
</trkpt>
<trkpt lat="-27.2647109" lon="151.2869634">
  <ele>529.63</ele>
  <time>2026-09-01T19:56:00Z</time>
  <course>43.17</course>
  <speed>25.2</speed>
  <fix>3d</fix>
</trkpt>
<trkpt lat="-27.2646664" lon="151.2870201">
  <ele>531.48</ele>
  <time>2026-09-01T19:56:00Z</time>
  <course>50.63</course>
  <speed>25.20310496744399</speed>
  <fix>3d</fix>
</trkpt>
<trkpt lat="-27.2647109" lon="151.2869634">
  <ele>529.63</ele>
  <time>2026-09-01T19:56:00Z</time>
  <course>43.17</course>
  <speed>25.2</speed>
  <fix>3d</fix>
</trkpt>
<trkpt lat="-27.264653" lon="151.2870407">
  <ele>532.04</ele>
  <time>2026-09-01T19:56:00Z</time>
  <course>53.49</course>
  <speed>25.227528614590845</speed>
  <fix>3d</fix>
</trkpt>
<trkpt lat="-27.2646796" lon="151.2870002">
  <ele>530.76</ele>
  <time>2026-09-01T19:56:00Z</time>
  <course>49.33</course>
  <speed>25.22</speed>
  <fix>3d</fix>
</trkpt>
<trkpt lat="-27.2646405" lon="151.287062">
  <ele>532.59</ele>
  <time>2026-09-01T19:56:00Z</time>
  <course>56.25</course>
  <speed>25.268709899795045</speed>
  <fix>3d</fix>
</trkpt>
<trkpt lat="-27.2646796" lon="151.2870002">
  <ele>530.76</ele>
  <time>2026-09-01T19:56:00Z</time>
  <course>49.33</course>
  <speed>25.22</speed>
  <fix>3d</fix>
</trkpt>
<trkpt lat="-27.264629" lon="151.287084">
  <ele>533.13</ele>
  <time>2026-09-01T19:56:00Z</time>
  <course>59.08</course>
  <speed>25.314764466611177</speed>
  <fix>3d</fix>
</trkpt>
<trkpt lat="-27.264652" lon="151.2870405">
  <ele>531.88</ele>
  <time>2026-09-01T19:56:00Z</time>
  <course>55.28</course>
  <speed>25.26</speed>
  <fix>3d</fix>
</trkpt>
<trkpt lat="-27.2646184" lon="151.2871066">
  <ele>533.66</ele>
  <time>2026-09-01T19:56:00Z</time>
  <course>61.88</course>
  <speed>25.349216950430637</speed>
  <fix>3d</fix>
</trkpt>
<trkpt lat="-27.264652" lon="151.2870405">
  <ele>531.88</ele>
  <time>2026-09-01T19:56:00Z</time>
  <course>55.28</course>
  <speed>25.26</speed>
  <fix>3d</fix>
</trkpt>
<trkpt lat="-27.2646088" lon="151.2871298">
  <ele>534.17</ele>
  <time>2026-09-01T19:56:00Z</time>
  <course>64.76</course>
  <speed>25.401230285165326</speed>
  <fix>3d</fix>
</trkpt>
<trkpt lat="-27.264628" lon="151.287084">
  <ele>532.95</ele>
  <time>2026-09-01T19:56:00Z</time>
  <course>61.01</course>
  <speed>25.33</speed>
  <fix>3d</fix>
</trkpt>
<trkpt lat="-27.2646003" lon="151.2871536">
  <ele>534.68</ele>
  <time>2026-09-01T19:56:00Z</time>
  <course>67.66</course>
  <speed>25.44494448805106</speed>
  <fix>3d</fix>
</trkpt>
<trkpt lat="-27.264628" lon="151.287084">
  <ele>532.95</ele>
  <time>2026-09-01T19:56:00Z</time>
  <course>61.01</course>
  <speed>25.33</speed>
  <fix>3d</fix>
</trkpt>
<trkpt lat="-27.2645928" lon="151.2871779">
  <ele>535.18</ele>
  <time>2026-09-01T19:56:00Z</time>
  <course>70.57</course>
  <speed>25.482262458423897</speed>
  <fix>3d</fix>
</trkpt>
<trkpt lat="-27.2646079" lon="151.28713">
  <ele>534.0</ele>
  <time>2026-09-01T19:56:00Z</time>
  <course>66.68</course>
  <speed>25.41</speed>
  <fix>3d</fix>
</trkpt>
<trkpt lat="-27.2645864" lon="151.2872026">
  <ele>535.67</ele>
  <time>2026-09-01T19:56:00Z</time>
  <course>73.49</course>
  <speed>25.52536189753242</speed>
  <fix>3d</fix>
</trkpt>
<trkpt lat="-27.2646079" lon="151.28713">
  <ele>534.0</ele>
  <time>2026-09-01T19:56:00Z</time>
  <course>66.68</course>
  <speed>25.41</speed>
  <fix>3d</fix>
</trkpt>
<trkpt lat="-27.2645811" lon="151.2872277">
  <ele>536.15</ele>
  <time>2026-09-01T19:56:00Z</time>
  <course>76.34</course>
  <speed>25.575928135651303</speed>
  <fix>3d</fix>
</trkpt>
<trkpt lat="-27.264592" lon="151.2871781">
  <ele>535.0</ele>
  <time>2026-09-01T19:56:00Z</time>
  <course>72.43</course>
  <speed>25.5</speed>
  <fix>3d</fix>
</trkpt>
<trkpt lat="-27.264577" lon="151.2872531">
  <ele>536.62</ele>
  <time>2026-09-01T19:56:00Z</time>
  <course>79.17</course>
  <speed>25.608711408425066</speed>
  <fix>3d</fix>
</trkpt>
<trkpt lat="-27.264592" lon="151.2871781">
  <ele>535.0</ele>
  <time>2026-09-01T19:56:00Z</time>
  <course>72.43</course>
  <speed>25.5</speed>
  <fix>3d</fix>
</trkpt>
<trkpt lat="-27.264574" lon="151.2872788">
  <ele>537.07</ele>
  <time>2026-09-01T19:56:00Z</time>
  <course>82.07</course>
  <speed>25.634242723357364</speed>
  <fix>3d</fix>
</trkpt>
<trkpt lat="-27.2645804" lon="151.2872281">
  <ele>535.97</ele>
  <time>2026-09-01T19:56:00Z</time>
  <course>78.23</course>
  <speed>25.58</speed>
  <fix>3d</fix>
</trkpt>
<trkpt lat="-27.2645721" lon="151.2873046">
  <ele>537.52</ele>
  <time>2026-09-01T19:56:01Z</time>
  <course>84.98</course>
  <speed>25.643995398533356</speed>
  <fix>3d</fix>
</trkpt>
<trkpt lat="-27.2645804" lon="151.2872281">
  <ele>535.97</ele>
  <time>2026-09-01T19:56:01Z</time>
  <course>78.23</course>
  <speed>25.58</speed>
  <fix>3d</fix>
</trkpt>
<trkpt lat="-27.2645714" lon="151.2873302">
  <ele>537.96</ele>
  <time>2026-09-01T19:56:01Z</time>
  <course>87.83</course>
  <speed>25.650048732897176</speed>
  <fix>3d</fix>
</trkpt>
<trkpt lat="-27.2645733" lon="151.2872792">
  <ele>536.89</ele>
  <time>2026-09-01T19:56:01Z</time>
  <course>84.01</course>
  <speed>25.64</speed>
  <fix>3d</fix>
</trkpt>
<trkpt lat="-27.2645719" lon="151.2873561">
  <ele>538.38</ele>
  <time>2026-09-01T19:56:01Z</time>
  <course>90.64</course>
  <speed>25.668535213369697</speed>
  <fix>3d</fix>
</trkpt>
<trkpt lat="-27.2645733" lon="151.2872792">
  <ele>536.89</ele>
  <time>2026-09-01T19:56:01Z</time>
  <course>84.01</course>
  <speed>25.64</speed>
  <fix>3d</fix>
</trkpt>
<trkpt lat="-27.2645735" lon="151.2873819">
  <ele>538.79</ele>
  <time>2026-09-01T19:56:01Z</time>
  <course>93.38</course>
  <speed>25.6691137361616</speed>
  <fix>3d</fix>
</trkpt>
<trkpt lat="-27.2645708" lon="151.2873309">
  <ele>537.77</ele>
  <time>2026-09-01T19:56:01Z</time>
  <course>89.76</course>
  <speed>25.68</speed>
  <fix>3d</fix>
</trkpt>
<trkpt lat="-27.2645762" lon="151.2874077">
  <ele>539.19</ele>
  <time>2026-09-01T19:56:01Z</time>
  <course>96.1</course>
  <speed>25.677969156457838</speed>
  <fix>3d</fix>
</trkpt>
<trkpt lat="-27.2645708" lon="151.2873309">
  <ele>537.77</ele>
  <time>2026-09-01T19:56:01Z</time>
  <course>89.76</course>
  <speed>25.68</speed>
  <fix>3d</fix>
</trkpt>
<trkpt lat="-27.2645799" lon="151.2874334">
  <ele>539.58</ele>
  <time>2026-09-01T19:56:01Z</time>
  <course>98.8</course>
  <speed>25.671969149249147</speed>
  <fix>3d</fix>
</trkpt>
<trkpt lat="-27.2645729" lon="151.2873829">
  <ele>538.6</ele>
  <time>2026-09-01T19:56:01Z</time>
  <course>95.42</course>
  <speed>25.69</speed>
  <fix>3d</fix>
</trkpt>
<trkpt lat="-27.2645848" lon="151.2874588">
  <ele>539.94</ele>
  <time>2026-09-01T19:56:01Z</time>
  <course>101.49</course>
  <speed>25.668044335320914</speed>
  <fix>3d</fix>
</trkpt>
<trkpt lat="-27.2645729" lon="151.2873829">
  <ele>538.6</ele>
  <time>2026-09-01T19:56:01Z</time>
  <course>95.42</course>
  <speed>25.69</speed>
  <fix>3d</fix>
</trkpt>
<trkpt lat="-27.2645907" lon="151.287484">
  <ele>540.3</ele>
  <time>2026-09-01T19:56:01Z</time>
  <course>104.23</course>
  <speed>25.652869235233705</speed>
  <fix>3d</fix>
</trkpt>
<trkpt lat="-27.2645794" lon="151.2874344">
  <ele>539.38</ele>
  <time>2026-09-01T19:56:01Z</time>
  <course>100.91</course>
  <speed>25.7</speed>
  <fix>3d</fix>
</trkpt>
<trkpt lat="-27.2645976" lon="151.2875087">
  <ele>540.62</ele>
  <time>2026-09-01T19:56:01Z</time>
  <course>106.79</course>
  <speed>25.641123220327145</speed>
  <fix>3d</fix>
</trkpt>
<trkpt lat="-27.2645794" lon="151.2874344">
  <ele>539.38</ele>
  <time>2026-09-01T19:56:01Z</time>
  <course>100.91</course>
  <speed>25.7</speed>
  <fix>3d</fix>
</trkpt>
<trkpt lat="-27.2646056" lon="151.287533">
  <ele>540.94</ele>
  <time>2026-09-01T19:56:01Z</time>
  <course>109.39</course>
  <speed>25.63535449335546</speed>
  <fix>3d</fix>
</trkpt>
<trkpt lat="-27.2645903" lon="151.2874848">
  <ele>540.1</ele>
  <time>2026-09-01T19:56:01Z</time>
  <course>106.27</course>
  <speed>25.68</speed>
  <fix>3d</fix>
</trkpt>
<trkpt lat="-27.2646145" lon="151.2875569">
  <ele>541.23</ele>
  <time>2026-09-01T19:56:01Z</time>
  <course>111.98</course>
  <speed>25.628642180185825</speed>
  <fix>3d</fix>
</trkpt>
<trkpt lat="-27.2645903" lon="151.2874848">
  <ele>540.1</ele>
  <time>2026-09-01T19:56:01Z</time>
  <course>106.27</course>
  <speed>25.68</speed>
  <fix>3d</fix>
</trkpt>
<trkpt lat="-27.2646243" lon="151.2875803">
  <ele>541.5</ele>
  <time>2026-09-01T19:56:01Z</time>
  <course>114.42</course>
  <speed>25.61656690503238</speed>
  <fix>3d</fix>
</trkpt>
<trkpt lat="-27.2646052" lon="151.2875338">
  <ele>540.74</ele>
  <time>2026-09-01T19:56:01Z</time>
  <course>111.54</course>
  <speed>25.66</speed>
  <fix>3d</fix>
</trkpt>
<trkpt lat="-27.2646351" lon="151.2876032">
  <ele>541.75</ele>
  <time>2026-09-01T19:56:01Z</time>
  <course>116.91</course>
  <speed>25.60909994513669</speed>
  <fix>3d</fix>
</trkpt>
<trkpt lat="-27.2646052" lon="151.2875338">
  <ele>540.74</ele>
  <time>2026-09-01T19:56:01Z</time>
  <course>111.54</course>
  <speed>25.66</speed>
  <fix>3d</fix>
</trkpt>
<trkpt lat="-27.2646467" lon="151.2876255">
  <ele>541.98</ele>
  <time>2026-09-01T19:56:01Z</time>
  <course>119.43</course>
  <speed>25.602298724919216</speed>
  <fix>3d</fix>
</trkpt>
<trkpt lat="-27.2646241" lon="151.2875811">
  <ele>541.3</ele>
  <time>2026-09-01T19:56:01Z</time>
  <course>116.67</course>
  <speed>25.65</speed>
  <fix>3d</fix>
</trkpt>
<trkpt lat="-27.2646591" lon="151.2876472">
  <ele>542.19</ele>
  <time>2026-09-01T19:56:01Z</time>
  <course>121.86</course>
  <speed>25.598025314465175</speed>
  <fix>3d</fix>
</trkpt>
<trkpt lat="-27.2646241" lon="151.2875811">
  <ele>541.3</ele>
  <time>2026-09-01T19:56:01Z</time>
  <course>116.67</course>
  <speed>25.65</speed>
  <fix>3d</fix>
</trkpt>
<trkpt lat="-27.2646724" lon="151.2876683">
  <ele>542.38</ele>
  <time>2026-09-01T19:56:01Z</time>
  <course>124.31</course>
  <speed>25.594065718443407</speed>
  <fix>3d</fix>
</trkpt>
<trkpt lat="-27.2646466" lon="151.2876264">
  <ele>541.79</ele>
  <time>2026-09-01T19:56:01Z</time>
  <course>121.7</course>
  <speed>25.64</speed>
  <fix>3d</fix>
</trkpt>
<trkpt lat="-27.2646865" lon="151.2876887">
  <ele>542.55</ele>
  <time>2026-09-01T19:56:01Z</time>
  <course>126.81</course>
  <speed>25.580744711598996</speed>
  <fix>3d</fix>
</trkpt>
<trkpt lat="-27.2646466" lon="151.2876264">
  <ele>541.79</ele>
  <time>2026-09-01T19:56:01Z</time>
  <course>121.7</course>
  <speed>25.64</speed>
  <fix>3d</fix>
</trkpt>
<trkpt lat="-27.2647014" lon="151.2877084">
  <ele>542.7</ele>
  <time>2026-09-01T19:56:01Z</time>
  <course>129.45</course>
  <speed>25.57635822395362</speed>
  <fix>3d</fix>
</trkpt>
<trkpt lat="-27.2646724" lon="151.2876692">
  <ele>542.19</ele>
  <time>2026-09-01T19:56:01Z</time>
  <course>126.66</course>
  <speed>25.63</speed>
  <fix>3d</fix>
</trkpt>
<trkpt lat="-27.264717" lon="151.2877274">
  <ele>542.83</ele>
  <time>2026-09-01T19:56:01Z</time>
  <course>132.07</course>
  <speed>25.571233838045437</speed>
  <fix>3d</fix>
</trkpt>
<trkpt lat="-27.2646724" lon="151.2876692">
  <ele>542.19</ele>
  <time>2026-09-01T19:56:01Z</time>
  <course>126.66</course>
  <speed>25.63</speed>
  <fix>3d</fix>
</trkpt>
<trkpt lat="-27.2647333" lon="151.2877455">
  <ele>542.95</ele>
  <time>2026-09-01T19:56:01Z</time>
  <course>134.6</course>
  <speed>25.567549745722605</speed>
  <fix>3d</fix>
</trkpt>
<trkpt lat="-27.2647015" lon="151.2877093">
  <ele>542.52</ele>
  <time>2026-09-01T19:56:01Z</time>
  <course>131.65</course>
  <speed>25.61</speed>
  <fix>3d</fix>
</trkpt>
<trkpt lat="-27.2647504" lon="151.2877628">
  <ele>543.04</ele>
  <time>2026-09-01T19:56:01Z</time>
  <course>137.14</course>
  <speed>25.5663391982505</speed>
  <fix>3d</fix>
</trkpt>
<trkpt lat="-27.2647015" lon="151.2877093">
  <ele>542.52</ele>
  <time>2026-09-01T19:56:01Z</time>
  <course>131.65</course>
  <speed>25.61</speed>
  <fix>3d</fix>
</trkpt>
<trkpt lat="-27.2647679" lon="151.2877791">
  <ele>543.12</ele>
  <time>2026-09-01T19:56:01Z</time>
  <course>139.73</course>
  <speed>25.56549432340396</speed>
  <fix>3d</fix>
</trkpt>
<trkpt lat="-27.2647335" lon="151.2877464">
  <ele>542.77</ele>
  <time>2026-09-01T19:56:01Z</time>
  <course>136.76</course>
  <speed>25.6</speed>
  <fix>3d</fix>
</trkpt>
<trkpt lat="-27.2647863" lon="151.2877946">
  <ele>543.18</ele>
  <time>2026-09-01T19:56:01Z</time>
  <course>142.37</course>
  <speed>25.564062666172603</speed>
  <fix>3d</fix>
</trkpt>
<trkpt lat="-27.2647335" lon="151.2877464">
  <ele>542.77</ele>
  <time>2026-09-01T19:56:01Z</time>
  <course>136.76</course>
  <speed>25.6</speed>
  <fix>3d</fix>
</trkpt>
<trkpt lat="-27.2648053" lon="151.2878091">
  <ele>543.23</ele>
  <time>2026-09-01T19:56:01Z</time>
  <course>145.04</course>
  <speed>25.571853667655773</speed>
  <fix>3d</fix>
</trkpt>
<trkpt lat="-27.2647684" lon="151.2877801">
  <ele>542.95</ele>
  <time>2026-09-01T19:56:01Z</time>
  <course>141.92</course>
  <speed>25.6</speed>
  <fix>3d</fix>
</trkpt>
<trkpt lat="-27.2648248" lon="151.2878227">
  <ele>543.27</ele>
  <time>2026-09-01T19:56:01Z</time>
  <course>147.62</course>
  <speed>25.564281722747463</speed>
  <fix>3d</fix>
</trkpt>
<trkpt lat="-27.2647684" lon="151.2877801">
  <ele>542.95</ele>
  <time>2026-09-01T19:56:01Z</time>
  <course>141.92</course>
  <speed>25.6</speed>
  <fix>3d</fix>
</trkpt>
<trkpt lat="-27.2648449" lon="151.2878352">
  <ele>543.29</ele>
  <time>2026-09-01T19:56:01Z</time>
  <course>150.12</course>
  <speed>25.55371010244892</speed>
  <fix>3d</fix>
</trkpt>
<trkpt lat="-27.264806" lon="151.2878101">
  <ele>543.07</ele>
  <time>2026-09-01T19:56:01Z</time>
  <course>147.15</course>
  <speed>25.6</speed>
  <fix>3d</fix>
</trkpt>
<trkpt lat="-27.2648656" lon="151.2878468">
  <ele>543.3</ele>
  <time>2026-09-01T19:56:01Z</time>
  <course>152.61</course>
  <speed>25.553183754671355</speed>
  <fix>3d</fix>
</trkpt>
<trkpt lat="-27.264806" lon="151.2878101">
  <ele>543.07</ele>
  <time>2026-09-01T19:56:01Z</time>
  <course>147.15</course>
  <speed>25.6</speed>
  <fix>3d</fix>
</trkpt>
<trkpt lat="-27.2648866" lon="151.2878573">
  <ele>543.3</ele>
  <time>2026-09-01T19:56:01Z</time>
  <course>155.01</course>
  <speed>25.537693709495382</speed>
  <fix>3d</fix>
</trkpt>
<trkpt lat="-27.2648457" lon="151.2878362">
  <ele>543.14</ele>
  <time>2026-09-01T19:56:01Z</time>
  <course>152.33</course>
  <speed>25.59</speed>
  <fix>3d</fix>
</trkpt>
<trkpt lat="-27.2649079" lon="151.2878668">
  <ele>543.29</ele>
  <time>2026-09-01T19:56:01Z</time>
  <course>157.39</course>
  <speed>25.51997648901738</speed>
  <fix>3d</fix>
</trkpt>
<trkpt lat="-27.2648457" lon="151.2878362">
  <ele>543.14</ele>
  <time>2026-09-01T19:56:01Z</time>
  <course>152.33</course>
  <speed>25.59</speed>
  <fix>3d</fix>
</trkpt>
<trkpt lat="-27.2649303" lon="151.2878756">
  <ele>543.27</ele>
  <time>2026-09-01T19:56:01Z</time>
  <course>159.8</course>
  <speed>25.505185747216192</speed>
  <fix>3d</fix>
</trkpt>
<trkpt lat="-27.2648873" lon="151.2878582">
  <ele>543.16</ele>
  <time>2026-09-01T19:56:01Z</time>
  <course>157.28</course>
  <speed>25.57</speed>
  <fix>3d</fix>
</trkpt>
<trkpt lat="-27.264952" lon="151.2878829">
  <ele>543.24</ele>
  <time>2026-09-01T19:56:01Z</time>
  <course>162.05</course>
  <speed>25.48933110146282</speed>
  <fix>3d</fix>
</trkpt>
<trkpt lat="-27.2648873" lon="151.2878582">
  <ele>543.16</ele>
  <time>2026-09-01T19:56:01Z</time>
  <course>157.28</course>
  <speed>25.57</speed>
  <fix>3d</fix>
</trkpt>
<trkpt lat="-27.2649742" lon="151.2878894">
  <ele>543.19</ele>
  <time>2026-09-01T19:56:01Z</time>
  <course>164.16</course>
  <speed>25.473195716281847</speed>
  <fix>3d</fix>
</trkpt>
<trkpt lat="-27.2649303" lon="151.2878761">
  <ele>543.13</ele>
  <time>2026-09-01T19:56:01Z</time>
  <course>162.05</course>
  <speed>25.54</speed>
  <fix>3d</fix>
</trkpt>
<trkpt lat="-27.2649966" lon="151.2878949">
  <ele>543.13</ele>
  <time>2026-09-01T19:56:01Z</time>
  <course>166.22</course>
  <speed>25.453968256442845</speed>
  <fix>3d</fix>
</trkpt>
<trkpt lat="-27.2649303" lon="151.2878761">
  <ele>543.13</ele>
  <time>2026-09-01T19:56:01Z</time>
  <course>162.05</course>
  <speed>25.54</speed>
  <fix>3d</fix>
</trkpt>
<trkpt lat="-27.2650191" lon="151.2878995">
  <ele>543.07</ele>
  <time>2026-09-01T19:56:01Z</time>
  <course>168.2</course>
  <speed>25.432925510054876</speed>
  <fix>3d</fix>
</trkpt>
<trkpt lat="-27.2649745" lon="151.28789">
  <ele>543.07</ele>
  <time>2026-09-01T19:56:01Z</time>
  <course>166.56</course>
  <speed>25.51</speed>
  <fix>3d</fix>
</trkpt>
<trkpt lat="-27.2650419" lon="151.2879033">
  <ele>543.0</ele>
  <time>2026-09-01T19:56:01Z</time>
  <course>170.19</course>
  <speed>25.407276516777628</speed>
  <fix>3d</fix>
</trkpt>
<trkpt lat="-27.2649745" lon="151.28789">
  <ele>543.07</ele>
  <time>2026-09-01T19:56:01Z</time>
  <course>166.56</course>
  <speed>25.51</speed>
  <fix>3d</fix>
</trkpt>
<trkpt lat="-27.265064" lon="151.287906">
  <ele>542.92</ele>
  <time>2026-09-01T19:56:01Z</time>
  <course>171.94</course>
  <speed>25.388991709006486</speed>
  <fix>3d</fix>
</trkpt>
<trkpt lat="-27.2650194" lon="151.2879001">
  <ele>542.96</ele>
  <time>2026-09-01T19:56:01Z</time>
  <course>170.75</course>
  <speed>25.46</speed>
  <fix>3d</fix>
</trkpt>
<trkpt lat="-27.2650868" lon="151.2879081">
  <ele>542.82</ele>
  <time>2026-09-01T19:56:01Z</time>
  <course>173.59</course>
  <speed>25.35989353289954</speed>
  <fix>3d</fix>
</trkpt>
<trkpt lat="-27.2650194" lon="151.2879001">
  <ele>542.96</ele>
  <time>2026-09-01T19:56:01Z</time>
  <course>170.75</course>
  <speed>25.46</speed>
  <fix>3d</fix>
</trkpt>
<trkpt lat="-27.2651095" lon="151.2879094">
  <ele>542.71</ele>
  <time>2026-09-01T19:56:01Z</time>
  <course>175.28</course>
  <speed>25.33494227346887</speed>
  <fix>3d</fix>
</trkpt>
<trkpt lat="-27.2650647" lon="151.2879067">
  <ele>542.81</ele>
  <time>2026-09-01T19:56:01Z</time>
  <course>174.58</course>
  <speed>25.41</speed>
  <fix>3d</fix>
</trkpt>
<trkpt lat="-27.2651323" lon="151.28791">
  <ele>542.59</ele>
  <time>2026-09-01T19:56:01Z</time>
  <course>176.85</course>
  <speed>25.310570914145732</speed>
  <fix>3d</fix>
</trkpt>
<trkpt lat="-27.2650647" lon="151.2879067">
  <ele>542.81</ele>
  <time>2026-09-01T19:56:01Z</time>
  <course>174.58</course>
  <speed>25.41</speed>
  <fix>3d</fix>
</trkpt>
<trkpt lat="-27.2651549" lon="151.2879099">
  <ele>542.46</ele>
  <time>2026-09-01T19:56:01Z</time>
  <course>178.29</course>
  <speed>25.28455655138132</speed>
  <fix>3d</fix>
</trkpt>
<trkpt lat="-27.2651102" lon="151.28791">
  <ele>542.62</ele>
  <time>2026-09-01T19:56:01Z</time>
  <course>178.01</course>
  <speed>25.36</speed>
  <fix>3d</fix>
</trkpt>
<trkpt lat="-27.2651775" lon="151.2879091">
  <ele>542.33</ele>
  <time>2026-09-01T19:56:01Z</time>
  <course>179.69</course>
  <speed>25.26352509053319</speed>
  <fix>3d</fix>
</trkpt>
<trkpt lat="-27.2651102" lon="151.28791">
  <ele>542.62</ele>
  <time>2026-09-01T19:56:01Z</time>
  <course>178.01</course>
  <speed>25.36</speed>
  <fix>3d</fix>
</trkpt>
<trkpt lat="-27.2651999" lon="151.2879078">
  <ele>542.18</ele>
  <time>2026-09-01T19:56:01Z</time>
  <course>181.13</course>
  <speed>25.245960072851258</speed>
  <fix>3d</fix>
</trkpt>
<trkpt lat="-27.2651557" lon="151.2879103">
  <ele>542.38</ele>
  <time>2026-09-01T19:56:01Z</time>
  <course>181.07</course>
  <speed>25.32</speed>
  <fix>3d</fix>
</trkpt>
<trkpt lat="-27.2652223" lon="151.2879059">
  <ele>542.02</ele>
  <time>2026-09-01T19:56:01Z</time>
  <course>182.45</course>
  <speed>25.228749473566857</speed>
  <fix>3d</fix>
</trkpt>
<trkpt lat="-27.2651557" lon="151.2879103">
  <ele>542.38</ele>
  <time>2026-09-01T19:56:01Z</time>
  <course>181.07</course>
  <speed>25.32</speed>
  <fix>3d</fix>
</trkpt>
<trkpt lat="-27.2652446" lon="151.2879034">
  <ele>541.86</ele>
  <time>2026-09-01T19:56:01Z</time>
  <course>183.74</course>
  <speed>25.210436331011806</speed>
  <fix>3d</fix>
</trkpt>
<trkpt lat="-27.2652011" lon="151.2879082">
  <ele>542.1</ele>
  <time>2026-09-01T19:56:01Z</time>
  <course>183.83</course>
  <speed>25.29</speed>
  <fix>3d</fix>
</trkpt>
<trkpt lat="-27.265267" lon="151.2879005">
  <ele>541.68</ele>
  <time>2026-09-01T19:56:01Z</time>
  <course>185.04</course>
  <speed>25.21165603446152</speed>
  <fix>3d</fix>
</trkpt>
<trkpt lat="-27.2652011" lon="151.2879082">
  <ele>542.1</ele>
  <time>2026-09-01T19:56:01Z</time>
  <course>183.83</course>
  <speed>25.29</speed>
  <fix>3d</fix>
</trkpt>
<trkpt lat="-27.2652893" lon="151.2878971">
  <ele>541.5</ele>
  <time>2026-09-01T19:56:01Z</time>
  <course>186.21</course>
  <speed>25.213444826124018</speed>
  <fix>3d</fix>
</trkpt>
<trkpt lat="-27.2652463" lon="151.2879036">
  <ele>541.77</ele>
  <time>2026-09-01T19:56:01Z</time>
  <course>186.34</course>
  <speed>25.27</speed>
  <fix>3d</fix>
</trkpt>
<trkpt lat="-27.2653118" lon="151.287893">
  <ele>541.32</ele>
  <time>2026-09-01T19:56:01Z</time>
  <course>187.34</course>
  <speed>25.227163930969333</speed>
  <fix>3d</fix>
</trkpt>
<trkpt lat="-27.2652463" lon="151.2879036">
  <ele>541.77</ele>
  <time>2026-09-01T19:56:01Z</time>
  <course>186.34</course>
  <speed>25.27</speed>
  <fix>3d</fix>
</trkpt>
<trkpt lat="-27.265334" lon="151.2878886">
  <ele>541.14</ele>
  <time>2026-09-01T19:56:01Z</time>
  <course>188.49</course>
  <speed>25.245692701924423</speed>
  <fix>3d</fix>
</trkpt>
<trkpt lat="-27.2652914" lon="151.2878969">
  <ele>541.42</ele>
  <time>2026-09-01T19:56:01Z</time>
  <course>188.66</course>
  <speed>25.28</speed>
  <fix>3d</fix>
</trkpt>
<trkpt lat="-27.2653562" lon="151.2878837">
  <ele>540.95</ele>
  <time>2026-09-01T19:56:01Z</time>
  <course>189.6</course>
  <speed>25.26999208547561</speed>
  <fix>3d</fix>
</trkpt>
<trkpt lat="-27.2652914" lon="151.2878969">
  <ele>541.42</ele>
  <time>2026-09-01T19:56:01Z</time>
  <course>188.66</course>
  <speed>25.28</speed>
  <fix>3d</fix>
</trkpt>
<trkpt lat="-27.2653791" lon="151.2878782">
  <ele>540.76</ele>
  <time>2026-09-01T19:56:01Z</time>
  <course>190.68</course>
  <speed>25.28977659055137</speed>
  <fix>3d</fix>
</trkpt>
<trkpt lat="-27.2653363" lon="151.2878883">
  <ele>541.05</ele>
  <time>2026-09-01T19:56:01Z</time>
  <course>190.78</course>
  <speed>25.32</speed>
  <fix>3d</fix>
</trkpt>
<trkpt lat="-27.2654012" lon="151.2878724">
  <ele>540.58</ele>
  <time>2026-09-01T19:56:01Z</time>
  <course>191.66</course>
  <speed>25.326802008939065</speed>
  <fix>3d</fix>
</trkpt>
<trkpt lat="-27.2653363" lon="151.2878883">
  <ele>541.05</ele>
  <time>2026-09-01T19:56:01Z</time>
  <course>190.78</course>
  <speed>25.32</speed>
  <fix>3d</fix>
</trkpt>
<trkpt lat="-27.2654231" lon="151.2878663">
  <ele>540.4</ele>
  <time>2026-09-01T19:56:01Z</time>
  <course>192.58</course>
  <speed>25.354930486988128</speed>
  <fix>3d</fix>
</trkpt>
<trkpt lat="-27.2653809" lon="151.2878778">
  <ele>540.69</ele>
  <time>2026-09-01T19:56:01Z</time>
  <course>192.68</course>
  <speed>25.37</speed>
  <fix>3d</fix>
</trkpt>
<trkpt lat="-27.2654451" lon="151.2878599">
  <ele>540.24</ele>
  <time>2026-09-01T19:56:01Z</time>
  <course>193.43</course>
  <speed>25.390126033558793</speed>
  <fix>3d</fix>
</trkpt>
<trkpt lat="-27.2653809" lon="151.2878778">
  <ele>540.69</ele>
  <time>2026-09-01T19:56:01Z</time>
  <course>192.68</course>
  <speed>25.37</speed>
  <fix>3d</fix>
</trkpt>
<trkpt lat="-27.2654671" lon="151.287853">
  <ele>540.08</ele>
  <time>2026-09-01T19:56:01Z</time>
  <course>194.21</course>
  <speed>25.43384359470664</speed>
  <fix>3d</fix>
</trkpt>
<trkpt lat="-27.2654252" lon="151.2878658">
  <ele>540.34</ele>
  <time>2026-09-01T19:56:01Z</time>
  <course>194.39</course>
  <speed>25.43</speed>
  <fix>3d</fix>
</trkpt>
<trkpt lat="-27.2654891" lon="151.2878459">
  <ele>539.94</ele>
  <time>2026-09-01T19:56:01Z</time>
  <course>194.99</course>
  <speed>25.470031409482008</speed>
  <fix>3d</fix>
</trkpt>
<trkpt lat="-27.2654252" lon="151.2878658">
  <ele>540.34</ele>
  <time>2026-09-01T19:56:01Z</time>
  <course>194.39</course>
  <speed>25.43</speed>
  <fix>3d</fix>
</trkpt>
<trkpt lat="-27.2655112" lon="151.2878385">
  <ele>539.8</ele>
  <time>2026-09-01T19:56:01Z</time>
  <course>195.75</course>
  <speed>25.50617376244426</speed>
  <fix>3d</fix>
</trkpt>
<trkpt lat="-27.2654694" lon="151.2878523">
  <ele>540.03</ele>
  <time>2026-09-01T19:56:01Z</time>
  <course>195.84</course>
  <speed>25.51</speed>
  <fix>3d</fix>
</trkpt>
<trkpt lat="-27.2655331" lon="151.2878308">
  <ele>539.67</ele>
  <time>2026-09-01T19:56:01Z</time>
  <course>196.43</course>
  <speed>25.551502891219528</speed>
  <fix>3d</fix>
</trkpt>
<trkpt lat="-27.2654694" lon="151.2878523">
  <ele>540.03</ele>
  <time>2026-09-01T19:56:01Z</time>
  <course>195.84</course>
  <speed>25.51</speed>
  <fix>3d</fix>
</trkpt>
<trkpt lat="-27.265555" lon="151.2878229">
  <ele>539.56</ele>
  <time>2026-09-01T19:56:01Z</time>
  <course>196.96</course>
  <speed>25.58995115274744</speed>
  <fix>3d</fix>
</trkpt>
<trkpt lat="-27.2655134" lon="151.2878376">
  <ele>539.76</ele>
  <time>2026-09-01T19:56:01Z</time>
  <course>197.07</course>
  <speed>25.58</speed>
  <fix>3d</fix>
</trkpt>
<trkpt lat="-27.2655769" lon="151.2878148">
  <ele>539.46</ele>
  <time>2026-09-01T19:56:01Z</time>
  <course>197.36</course>
  <speed>25.630265312711845</speed>
  <fix>3d</fix>
</trkpt>
<trkpt lat="-27.2655134" lon="151.2878376">
  <ele>539.76</ele>
  <time>2026-09-01T19:56:01Z</time>
  <course>197.07</course>
  <speed>25.58</speed>
  <fix>3d</fix>
</trkpt>
<trkpt lat="-27.2655987" lon="151.2878066">
  <ele>539.37</ele>
  <time>2026-09-01T19:56:01Z</time>
  <course>197.75</course>
  <speed>25.665494345521573</speed>
  <fix>3d</fix>
</trkpt>
<trkpt lat="-27.2655573" lon="151.287822">
  <ele>539.53</ele>
  <time>2026-09-01T19:56:01Z</time>
  <course>198.09</course>
  <speed>25.66</speed>
  <fix>3d</fix>
</trkpt>
<trkpt lat="-27.2656206" lon="151.2877981">
  <ele>539.29</ele>
  <time>2026-09-01T19:56:01Z</time>
  <course>198.07</course>
  <speed>25.707627272854257</speed>
  <fix>3d</fix>
</trkpt>
<trkpt lat="-27.2655573" lon="151.287822">
  <ele>539.53</ele>
  <time>2026-09-01T19:56:01Z</time>
  <course>198.09</course>
  <speed>25.66</speed>
  <fix>3d</fix>
</trkpt>
<trkpt lat="-27.2656424" lon="151.2877896">
  <ele>539.23</ele>
  <time>2026-09-01T19:56:01Z</time>
  <course>198.27</course>
  <speed>25.733847361014636</speed>
  <fix>3d</fix>
</trkpt>
<trkpt lat="-27.265601" lon="151.2878056">
  <ele>539.35</ele>
  <time>2026-09-01T19:56:01Z</time>
  <course>198.88</course>
  <speed>25.74</speed>
  <fix>3d</fix>
</trkpt>
<trkpt lat="-27.2656637" lon="151.2877812">
  <ele>539.17</ele>
  <time>2026-09-01T19:56:01Z</time>
  <course>198.43</course>
  <speed>25.762616326763087</speed>
  <fix>3d</fix>
</trkpt>
<trkpt lat="-27.265601" lon="151.2878056">
  <ele>539.35</ele>
  <time>2026-09-01T19:56:01Z</time>
  <course>198.88</course>
  <speed>25.74</speed>
  <fix>3d</fix>
</trkpt>
<trkpt lat="-27.2656854" lon="151.2877726">
  <ele>539.13</ele>
  <time>2026-09-01T19:56:01Z</time>
  <course>198.56</course>
  <speed>25.784353782866074</speed>
  <fix>3d</fix>
</trkpt>
<trkpt lat="-27.2656447" lon="151.2877885">
  <ele>539.21</ele>
  <time>2026-09-01T19:56:01Z</time>
  <course>199.31</course>
  <speed>25.8</speed>
  <fix>3d</fix>
</trkpt>
<trkpt lat="-27.2657073" lon="151.2877641">
  <ele>539.1</ele>
  <time>2026-09-01T19:56:01Z</time>
  <course>198.57</course>
  <speed>25.81194297219797</speed>
  <fix>3d</fix>
</trkpt>
<trkpt lat="-27.2656447" lon="151.2877885">
  <ele>539.21</ele>
  <time>2026-09-01T19:56:01Z</time>
  <course>199.31</course>
  <speed>25.8</speed>
  <fix>3d</fix>
</trkpt>
<trkpt lat="-27.2657293" lon="151.2877556">
  <ele>539.08</ele>
  <time>2026-09-01T19:56:01Z</time>
  <course>198.54</course>
  <speed>25.833073762136788</speed>
  <fix>3d</fix>
</trkpt>
<trkpt lat="-27.2656886" lon="151.2877712">
  <ele>539.13</ele>
  <time>2026-09-01T19:56:01Z</time>
  <course>199.32</course>
  <speed>25.85</speed>
  <fix>3d</fix>
</trkpt>
<trkpt lat="-27.2657514" lon="151.2877472">
  <ele>539.07</ele>
  <time>2026-09-01T19:56:01Z</time>
  <course>198.45</course>
  <speed>25.861113665115045</speed>
  <fix>3d</fix>
</trkpt>
<trkpt lat="-27.2656886" lon="151.2877712">
  <ele>539.13</ele>
  <time>2026-09-01T19:56:01Z</time>
  <course>199.32</course>
  <speed>25.85</speed>
  <fix>3d</fix>
</trkpt>
<trkpt lat="-27.2657737" lon="151.2877389">
  <ele>539.06</ele>
  <time>2026-09-01T19:56:01Z</time>
  <course>198.2</course>
  <speed>25.884329236045506</speed>
  <fix>3d</fix>
</trkpt>
<trkpt lat="-27.2657325" lon="151.287754">
  <ele>539.08</ele>
  <time>2026-09-01T19:56:01Z</time>
  <course>198.89</course>
  <speed>25.89</speed>
  <fix>3d</fix>
</trkpt>
<trkpt lat="-27.2657959" lon="151.2877309">
  <ele>539.06</ele>
  <time>2026-09-01T19:56:01Z</time>
  <course>197.95</course>
  <speed>25.909955615554416</speed>
  <fix>3d</fix>
</trkpt>
<trkpt lat="-27.2657325" lon="151.287754">
  <ele>539.08</ele>
  <time>2026-09-01T19:56:01Z</time>
  <course>198.89</course>
  <speed>25.89</speed>
  <fix>3d</fix>
</trkpt>
<trkpt lat="-27.2658183" lon="151.2877231">
  <ele>539.07</ele>
  <time>2026-09-01T19:56:01Z</time>
  <course>197.51</course>
  <speed>25.92644402921465</speed>
  <fix>3d</fix>
</trkpt>
<trkpt lat="-27.2657767" lon="151.2877374">
  <ele>539.08</ele>
  <time>2026-09-01T19:56:01Z</time>
  <course>198.04</course>
  <speed>25.92</speed>
  <fix>3d</fix>
</trkpt>
<trkpt lat="-27.2658415" lon="151.2877154">
  <ele>539.09</ele>
  <time>2026-09-01T19:56:01Z</time>
  <course>196.96</course>
  <speed>25.947431472112996</speed>
  <fix>3d</fix>
</trkpt>
<trkpt lat="-27.2657767" lon="151.2877374">
  <ele>539.08</ele>
  <time>2026-09-01T19:56:01Z</time>
  <course>198.04</course>
  <speed>25.92</speed>
  <fix>3d</fix>
</trkpt>
<trkpt lat="-27.2658638" lon="151.2877083">
  <ele>539.12</ele>
  <time>2026-09-01T19:56:01Z</time>
  <course>196.34</course>
  <speed>25.964425662817963</speed>
  <fix>3d</fix>
</trkpt>
<trkpt lat="-27.2658212" lon="151.2877217">
  <ele>539.11</ele>
  <time>2026-09-01T19:56:01Z</time>
  <course>196.86</course>
  <speed>25.95</speed>
  <fix>3d</fix>
</trkpt>
<trkpt lat="-27.2658865" lon="151.2877015">
  <ele>539.16</ele>
  <time>2026-09-01T19:56:01Z</time>
  <course>195.61</course>
  <speed>25.98577495477093</speed>
  <fix>3d</fix>
</trkpt>
<trkpt lat="-27.2658212" lon="151.2877217">
  <ele>539.11</ele>
  <time>2026-09-01T19:56:01Z</time>
  <course>196.86</course>
  <speed>25.95</speed>
  <fix>3d</fix>
</trkpt>
<trkpt lat="-27.2659092" lon="151.2876951">
  <ele>539.2</ele>
  <time>2026-09-01T19:56:01Z</time>
  <course>194.8</course>
  <speed>25.998524958158683</speed>
  <fix>3d</fix>
</trkpt>
<trkpt lat="-27.265866" lon="151.287707">
  <ele>539.17</ele>
  <time>2026-09-01T19:56:01Z</time>
  <course>195.38</course>
  <speed>25.97</speed>
  <fix>3d</fix>
</trkpt>
<trkpt lat="-27.265932" lon="151.2876891">
  <ele>539.25</ele>
  <time>2026-09-01T19:56:01Z</time>
  <course>193.84</course>
  <speed>26.01104765287242</speed>
  <fix>3d</fix>
</trkpt>
<trkpt lat="-27.265866" lon="151.287707">
  <ele>539.17</ele>
  <time>2026-09-01T19:56:01Z</time>
  <course>195.38</course>
  <speed>25.97</speed>
  <fix>3d</fix>
</trkpt>
<trkpt lat="-27.265955" lon="151.2876835">
  <ele>539.31</ele>
  <time>2026-09-01T19:56:01Z</time>
  <course>192.92</course>
  <speed>26.02479586855582</speed>
  <fix>3d</fix>
</trkpt>
<trkpt lat="-27.2659112" lon="151.2876939">
  <ele>539.26</ele>
  <time>2026-09-01T19:56:01Z</time>
  <course>193.63</course>
  <speed>25.99</speed>
  <fix>3d</fix>
</trkpt>
<trkpt lat="-27.2659782" lon="151.2876783">
  <ele>539.38</ele>
  <time>2026-09-01T19:56:01Z</time>
  <course>191.99</course>
  <speed>26.04313729180876</speed>
  <fix>3d</fix>
</trkpt>
<trkpt lat="-27.2659112" lon="151.2876939">
  <ele>539.26</ele>
  <time>2026-09-01T19:56:01Z</time>
  <course>193.63</course>
  <speed>25.99</speed>
  <fix>3d</fix>
</trkpt>
<trkpt lat="-27.2660013" lon="151.2876737">
  <ele>539.46</ele>
  <time>2026-09-01T19:56:01Z</time>
  <course>191.04</course>
  <speed>26.04904028942333</speed>
  <fix>3d</fix>
</trkpt>
<trkpt lat="-27.2659567" lon="151.2876824">
  <ele>539.38</ele>
  <time>2026-09-01T19:56:01Z</time>
  <course>191.66</course>
  <speed>26.01</speed>
  <fix>3d</fix>
</trkpt>
<trkpt lat="-27.2660244" lon="151.2876696">
  <ele>539.54</ele>
  <time>2026-09-01T19:56:01Z</time>
  <course>190.05</course>
  <speed>26.05131282680395</speed>
  <fix>3d</fix>
</trkpt>
<trkpt lat="-27.2659567" lon="151.2876824">
  <ele>539.38</ele>
  <time>2026-09-01T19:56:01Z</time>
  <course>191.66</course>
  <speed>26.01</speed>
  <fix>3d</fix>
</trkpt>
<trkpt lat="-27.2660477" lon="151.2876659">
  <ele>539.63</ele>
  <time>2026-09-01T19:56:01Z</time>
  <course>189.04</course>
  <speed>26.0547519658123</speed>
  <fix>3d</fix>
</trkpt>
<trkpt lat="-27.2660026" lon="151.2876727">
  <ele>539.53</ele>
  <time>2026-09-01T19:56:01Z</time>
  <course>189.51</course>
  <speed>26.02</speed>
  <fix>3d</fix>
</trkpt>
<trkpt lat="-27.2660709" lon="151.2876628">
  <ele>539.72</ele>
  <time>2026-09-01T19:56:01Z</time>
  <course>187.95</course>
  <speed>26.056586499386295</speed>
  <fix>3d</fix>
</trkpt>
<trkpt lat="-27.2660026" lon="151.2876727">
  <ele>539.53</ele>
  <time>2026-09-01T19:56:01Z</time>
  <course>189.51</course>
  <speed>26.02</speed>
  <fix>3d</fix>
</trkpt>
<trkpt lat="-27.2660943" lon="151.2876602">
  <ele>539.81</ele>
  <time>2026-09-01T19:56:01Z</time>
  <course>186.83</course>
  <speed>26.056461770547436</speed>
  <fix>3d</fix>
</trkpt>
<trkpt lat="-27.2660489" lon="151.287665">
  <ele>539.71</ele>
  <time>2026-09-01T19:56:01Z</time>
  <course>187.29</course>
  <speed>26.02</speed>
  <fix>3d</fix>
</trkpt>
<trkpt lat="-27.2661176" lon="151.2876581">
  <ele>539.92</ele>
  <time>2026-09-01T19:56:01Z</time>
  <course>185.74</course>
  <speed>26.04685201708644</speed>
  <fix>3d</fix>
</trkpt>
<trkpt lat="-27.2660489" lon="151.287665">
  <ele>539.71</ele>
  <time>2026-09-01T19:56:01Z</time>
  <course>187.29</course>
  <speed>26.02</speed>
  <fix>3d</fix>
</trkpt>
<trkpt lat="-27.266141" lon="151.2876566">
  <ele>540.02</ele>
  <time>2026-09-01T19:56:01Z</time>
  <course>184.64</course>
  <speed>26.04858537425785</speed>
  <fix>3d</fix>
</trkpt>
<trkpt lat="-27.2660953" lon="151.2876594">
  <ele>539.91</ele>
  <time>2026-09-01T19:56:01Z</time>
  <course>185.02</course>
  <speed>26.01</speed>
  <fix>3d</fix>
</trkpt>
<trkpt lat="-27.2661644" lon="151.2876555">
  <ele>540.13</ele>
  <time>2026-09-01T19:56:01Z</time>
  <course>183.45</course>
  <speed>26.03941051560115</speed>
  <fix>3d</fix>
</trkpt>
<trkpt lat="-27.2660953" lon="151.2876594">
  <ele>539.91</ele>
  <time>2026-09-01T19:56:01Z</time>
  <course>185.02</course>
  <speed>26.01</speed>
  <fix>3d</fix>
</trkpt>
<trkpt lat="-27.2661878" lon="151.287655">
  <ele>540.23</ele>
  <time>2026-09-01T19:56:01Z</time>
  <course>182.24</course>
  <speed>26.030491735654937</speed>
  <fix>3d</fix>
</trkpt>
<trkpt lat="-27.2661419" lon="151.2876558">
  <ele>540.11</ele>
  <time>2026-09-01T19:56:01Z</time>
  <course>182.72</course>
  <speed>26.0</speed>
  <fix>3d</fix>
</trkpt>
<trkpt lat="-27.2662111" lon="151.287655">
  <ele>540.35</ele>
  <time>2026-09-01T19:56:01Z</time>
  <course>181.15</course>
  <speed>26.02249027283899</speed>
  <fix>3d</fix>
</trkpt>
<trkpt lat="-27.2661419" lon="151.2876558">
  <ele>540.11</ele>
  <time>2026-09-01T19:56:01Z</time>
  <course>182.72</course>
  <speed>26.0</speed>
  <fix>3d</fix>
</trkpt>
<trkpt lat="-27.2662345" lon="151.2876556">
  <ele>540.46</ele>
  <time>2026-09-01T19:56:01Z</time>
  <course>180.13</course>
  <speed>26.00422465677452</speed>
  <fix>3d</fix>
</trkpt>
<trkpt lat="-27.2661886" lon="151.2876544">
  <ele>540.32</ele>
  <time>2026-09-01T19:56:01Z</time>
  <course>180.39</course>
  <speed>25.98</speed>
  <fix>3d</fix>
</trkpt>
<trkpt lat="-27.2662578" lon="151.2876566">
  <ele>540.57</ele>
  <time>2026-09-01T19:56:01Z</time>
  <course>179.0</course>
  <speed>25.99559962762929</speed>
  <fix>3d</fix>
</trkpt>
<trkpt lat="-27.2661886" lon="151.2876544">
  <ele>540.32</ele>
  <time>2026-09-01T19:56:01Z</time>
  <course>180.39</course>
  <speed>25.98</speed>
  <fix>3d</fix>
</trkpt>
<trkpt lat="-27.2662811" lon="151.2876582">
  <ele>540.68</ele>
  <time>2026-09-01T19:56:01Z</time>
  <course>177.91</course>
  <speed>25.976676076819377</speed>
  <fix>3d</fix>
</trkpt>
<trkpt lat="-27.2662354" lon="151.2876551">
  <ele>540.55</ele>
  <time>2026-09-01T19:56:01Z</time>
  <course>178.07</course>
  <speed>25.97</speed>
  <fix>3d</fix>
</trkpt>
<trkpt lat="-27.2663038" lon="151.2876602">
  <ele>540.78</ele>
  <time>2026-09-01T19:56:01Z</time>
  <course>176.89</course>
  <speed>25.95479531801397</speed>
  <fix>3d</fix>
</trkpt>
<trkpt lat="-27.2662354" lon="151.2876551">
  <ele>540.55</ele>
  <time>2026-09-01T19:56:01Z</time>
  <course>178.07</course>
  <speed>25.97</speed>
  <fix>3d</fix>
</trkpt>
<trkpt lat="-27.2663277" lon="151.2876629">
  <ele>540.89</ele>
  <time>2026-09-01T19:56:01Z</time>
  <course>175.73</course>
  <speed>25.943717929394776</speed>
  <fix>3d</fix>
</trkpt>
<trkpt lat="-27.266282" lon="151.2876579">
  <ele>540.77</ele>
  <time>2026-09-01T19:56:01Z</time>
  <course>175.84</course>
  <speed>25.94</speed>
  <fix>3d</fix>
</trkpt>
<trkpt lat="-27.2663506" lon="151.2876659">
  <ele>540.99</ele>
  <time>2026-09-01T19:56:01Z</time>
  <course>174.62</course>
  <speed>25.920920122557376</speed>
  <fix>3d</fix>
</trkpt>
<trkpt lat="-27.266282" lon="151.2876579">
  <ele>540.77</ele>
  <time>2026-09-01T19:56:01Z</time>
  <course>175.84</course>
  <speed>25.94</speed>
  <fix>3d</fix>
</trkpt>
<trkpt lat="-27.2663737" lon="151.2876694">
  <ele>541.09</ele>
  <time>2026-09-01T19:56:01Z</time>
  <course>173.57</course>
  <speed>25.904333614281608</speed>
  <fix>3d</fix>
</trkpt>
<trkpt lat="-27.2663284" lon="151.2876626">
  <ele>540.97</ele>
  <time>2026-09-01T19:56:01Z</time>
  <course>173.66</course>
  <speed>25.91</speed>
  <fix>3d</fix>
</trkpt>
<trkpt lat="-27.2663966" lon="151.2876734">
  <ele>541.17</ele>
  <time>2026-09-01T19:56:01Z</time>
  <course>172.52</course>
  <speed>25.884661481271106</speed>
  <fix>3d</fix>
</trkpt>
<trkpt lat="-27.2663284" lon="151.2876626">
  <ele>540.97</ele>
  <time>2026-09-01T19:56:01Z</time>
  <course>173.66</course>
  <speed>25.91</speed>
  <fix>3d</fix>
</trkpt>
<trkpt lat="-27.2664195" lon="151.2876779">
  <ele>541.26</ele>
  <time>2026-09-01T19:56:01Z</time>
  <course>171.48</course>
  <speed>25.86508264050204</speed>
  <fix>3d</fix>
</trkpt>
<trkpt lat="-27.2663745" lon="151.2876693">
  <ele>541.16</ele>
  <time>2026-09-01T19:56:01Z</time>
  <course>171.55</course>
  <speed>25.88</speed>
  <fix>3d</fix>
</trkpt>
<trkpt lat="-27.2664425" lon="151.2876829">
  <ele>541.34</ele>
  <time>2026-09-01T19:56:01Z</time>
  <course>170.49</course>
  <speed>25.842277376423308</speed>
  <fix>3d</fix>
</trkpt>
<trkpt lat="-27.2663745" lon="151.2876693">
  <ele>541.16</ele>
  <time>2026-09-01T19:56:01Z</time>
  <course>171.55</course>
  <speed>25.88</speed>
  <fix>3d</fix>
</trkpt>
<trkpt lat="-27.2664652" lon="151.2876882">
  <ele>541.42</ele>
  <time>2026-09-01T19:56:01Z</time>
  <course>169.47</course>
  <speed>25.821309029559288</speed>
  <fix>3d</fix>
</trkpt>
<trkpt lat="-27.2664203" lon="151.287678">
  <ele>541.32</ele>
  <time>2026-09-01T19:56:01Z</time>
  <course>169.47</course>
  <speed>25.85</speed>
  <fix>3d</fix>
</trkpt>
<trkpt lat="-27.2664877" lon="151.2876941">
  <ele>541.49</ele>
  <time>2026-09-01T19:56:01Z</time>
  <course>168.43</course>
  <speed>25.800211239445307</speed>
  <fix>3d</fix>
</trkpt>
<trkpt lat="-27.2664203" lon="151.287678">
  <ele>541.32</ele>
  <time>2026-09-01T19:56:01Z</time>
  <course>169.47</course>
  <speed>25.85</speed>
  <fix>3d</fix>
</trkpt>
<trkpt lat="-27.2665102" lon="151.2877003">
  <ele>541.56</ele>
  <time>2026-09-01T19:56:01Z</time>
  <course>167.48</course>
  <speed>25.772180738152525</speed>
  <fix>3d</fix>
</trkpt>
<trkpt lat="-27.2664658" lon="151.2876884">
  <ele>541.48</ele>
  <time>2026-09-01T19:56:01Z</time>
  <course>167.45</course>
  <speed>25.81</speed>
  <fix>3d</fix>
</trkpt>
<trkpt lat="-27.2665326" lon="151.287707">
  <ele>541.62</ele>
  <time>2026-09-01T19:56:01Z</time>
  <course>166.58</course>
  <speed>25.758317103413415</speed>
  <fix>3d</fix>
</trkpt>
<trkpt lat="-27.2664658" lon="151.2876884">
  <ele>541.48</ele>
  <time>2026-09-01T19:56:01Z</time>
  <course>167.45</course>
  <speed>25.81</speed>
  <fix>3d</fix>
</trkpt>
<trkpt lat="-27.2665548" lon="151.287714">
  <ele>541.68</ele>
  <time>2026-09-01T19:56:01Z</time>
  <course>165.66</course>
  <speed>25.745650118029648</speed>
  <fix>3d</fix>
</trkpt>
<trkpt lat="-27.2665108" lon="151.2877006">
  <ele>541.61</ele>
  <time>2026-09-01T19:56:01Z</time>
  <course>165.51</course>
  <speed>25.78</speed>
  <fix>3d</fix>
</trkpt>
<trkpt lat="-27.2665769" lon="151.2877215">
  <ele>541.73</ele>
  <time>2026-09-01T19:56:01Z</time>
  <course>164.71</course>
  <speed>25.726657381012405</speed>
  <fix>3d</fix>
</trkpt>
<trkpt lat="-27.2665108" lon="151.2877006">
  <ele>541.61</ele>
  <time>2026-09-01T19:56:01Z</time>
  <course>165.51</course>
  <speed>25.78</speed>
  <fix>3d</fix>
</trkpt>
<trkpt lat="-27.266599" lon="151.2877293">
  <ele>541.78</ele>
  <time>2026-09-01T19:56:01Z</time>
  <course>163.8</course>
  <speed>25.704116401852833</speed>
  <fix>3d</fix>
</trkpt>
<trkpt lat="-27.2665555" lon="151.2877145">
  <ele>541.72</ele>
  <time>2026-09-01T19:56:01Z</time>
  <course>163.67</course>
  <speed>25.75</speed>
  <fix>3d</fix>
</trkpt>
<trkpt lat="-27.2666209" lon="151.2877375">
  <ele>541.82</ele>
  <time>2026-09-01T19:56:01Z</time>
  <course>162.94</course>
  <speed>25.69068702857127</speed>
  <fix>3d</fix>
</trkpt>
<trkpt lat="-27.2665555" lon="151.2877145">
  <ele>541.72</ele>
  <time>2026-09-01T19:56:01Z</time>
  <course>163.67</course>
  <speed>25.75</speed>
  <fix>3d</fix>
</trkpt>
<trkpt lat="-27.2666427" lon="151.287746">
  <ele>541.86</ele>
  <time>2026-09-01T19:56:01Z</time>
  <course>162.11</course>
  <speed>25.66990845328436</speed>
  <fix>3d</fix>
</trkpt>
<trkpt lat="-27.2665996" lon="151.2877298">
  <ele>541.82</ele>
  <time>2026-09-01T19:56:01Z</time>
  <course>161.92</course>
  <speed>25.73</speed>
  <fix>3d</fix>
</trkpt>
<trkpt lat="-27.2666643" lon="151.2877549">
  <ele>541.9</ele>
  <time>2026-09-01T19:56:01Z</time>
  <course>161.32</course>
  <speed>25.656806114557593</speed>
  <fix>3d</fix>
</trkpt>
<trkpt lat="-27.2665996" lon="151.2877298">
  <ele>541.82</ele>
  <time>2026-09-01T19:56:01Z</time>
  <course>161.92</course>
  <speed>25.73</speed>
  <fix>3d</fix>
</trkpt>
<trkpt lat="-27.2666859" lon="151.2877641">
  <ele>541.93</ele>
  <time>2026-09-01T19:56:01Z</time>
  <course>160.52</course>
  <speed>25.644751899755242</speed>
  <fix>3d</fix>
</trkpt>
<trkpt lat="-27.2666433" lon="151.2877467">
  <ele>541.91</ele>
  <time>2026-09-01T19:56:01Z</time>
  <course>160.27</course>
  <speed>25.7</speed>
  <fix>3d</fix>
</trkpt>
<trkpt lat="-27.2667073" lon="151.2877736">
  <ele>541.96</ele>
  <time>2026-09-01T19:56:01Z</time>
  <course>159.73</course>
  <speed>25.62409998419457</speed>
  <fix>3d</fix>
</trkpt>
<trkpt lat="-27.2666433" lon="151.2877467">
  <ele>541.91</ele>
  <time>2026-09-01T19:56:01Z</time>
  <course>160.27</course>
  <speed>25.7</speed>
  <fix>3d</fix>
</trkpt>
<trkpt lat="-27.2667286" lon="151.2877835">
  <ele>541.98</ele>
  <time>2026-09-01T19:56:01Z</time>
  <course>159.02</course>
  <speed>25.613115780787</speed>
  <fix>3d</fix>
</trkpt>
<trkpt lat="-27.2666866" lon="151.2877649">
  <ele>541.98</ele>
  <time>2026-09-01T19:56:01Z</time>
  <course>158.72</course>
  <speed>25.67</speed>
  <fix>3d</fix>
</trkpt>
<trkpt lat="-27.2667498" lon="151.2877936">
  <ele>542.0</ele>
  <time>2026-09-01T19:56:01Z</time>
  <course>158.29</course>
  <speed>25.598189389095474</speed>
  <fix>3d</fix>
</trkpt>
<trkpt lat="-27.2666866" lon="151.2877649">
  <ele>541.98</ele>
  <time>2026-09-01T19:56:01Z</time>
  <course>158.72</course>
  <speed>25.67</speed>
  <fix>3d</fix>
</trkpt>
<trkpt lat="-27.2667709" lon="151.287804">
  <ele>542.02</ele>
  <time>2026-09-01T19:56:01Z</time>
  <course>157.59</course>
  <speed>25.5867641564931</speed>
  <fix>3d</fix>
</trkpt>
<trkpt lat="-27.2667294" lon="151.2877844">
  <ele>542.03</ele>
  <time>2026-09-01T19:56:01Z</time>
  <course>157.27</course>
  <speed>25.65</speed>
  <fix>3d</fix>
</trkpt>
<trkpt lat="-27.2667918" lon="151.2878146">
  <ele>542.03</ele>
  <time>2026-09-01T19:56:01Z</time>
  <course>156.92</course>
  <speed>25.583793698355215</speed>
  <fix>3d</fix>
</trkpt>
<trkpt lat="-27.2667294" lon="151.2877844">
  <ele>542.03</ele>
  <time>2026-09-01T19:56:01Z</time>
  <course>157.27</course>
  <speed>25.65</speed>
  <fix>3d</fix>
</trkpt>
<trkpt lat="-27.2668127" lon="151.2878255">
  <ele>542.04</ele>
  <time>2026-09-01T19:56:01Z</time>
  <course>156.28</course>
  <speed>25.575537140009395</speed>
  <fix>3d</fix>
</trkpt>
<trkpt lat="-27.2667717" lon="151.287805">
  <ele>542.07</ele>
  <time>2026-09-01T19:56:01Z</time>
  <course>155.93</course>
  <speed>25.63</speed>
  <fix>3d</fix>
</trkpt>
<trkpt lat="-27.2668335" lon="151.2878367">
  <ele>542.05</ele>
  <time>2026-09-01T19:56:01Z</time>
  <course>155.67</course>
  <speed>25.565758349792794</speed>
  <fix>3d</fix>
</trkpt>
<trkpt lat="-27.2667717" lon="151.287805">
  <ele>542.07</ele>
  <time>2026-09-01T19:56:01Z</time>
  <course>155.93</course>
  <speed>25.63</speed>
  <fix>3d</fix>
</trkpt>
<trkpt lat="-27.2668541" lon="151.287848">
  <ele>542.05</ele>
  <time>2026-09-01T19:56:01Z</time>
  <course>155.03</course>
  <speed>25.558736275489053</speed>
  <fix>3d</fix>
</trkpt>
<trkpt lat="-27.2668135" lon="151.2878266">
  <ele>542.1</ele>
  <time>2026-09-01T19:56:01Z</time>
  <course>154.69</course>
  <speed>25.61</speed>
  <fix>3d</fix>
</trkpt>
<trkpt lat="-27.2668747" lon="151.2878596">
  <ele>542.05</ele>
  <time>2026-09-01T19:56:01Z</time>
  <course>154.41</course>
  <speed>25.54941290910615</speed>
  <fix>3d</fix>
</trkpt>
<trkpt lat="-27.2668135" lon="151.2878266">
  <ele>542.1</ele>
  <time>2026-09-01T19:56:01Z</time>
  <course>154.69</course>
  <speed>25.61</speed>
  <fix>3d</fix>
</trkpt>
<trkpt lat="-27.2668949" lon="151.2878713">
  <ele>542.05</ele>
  <time>2026-09-01T19:56:01Z</time>
  <course>153.86</course>
  <speed>25.55101759226039</speed>
  <fix>3d</fix>
</trkpt>
<trkpt lat="-27.2668549" lon="151.2878491">
  <ele>542.11</ele>
  <time>2026-09-01T19:56:01Z</time>
  <course>153.57</course>
  <speed>25.6</speed>
  <fix>3d</fix>
</trkpt>
<trkpt lat="-27.2669156" lon="151.2878835">
  <ele>542.05</ele>
  <time>2026-09-01T19:56:01Z</time>
  <course>153.3</course>
  <speed>25.54572762713953</speed>
  <fix>3d</fix>
</trkpt>
<trkpt lat="-27.2668549" lon="151.2878491">
  <ele>542.11</ele>
  <time>2026-09-01T19:56:01Z</time>
  <course>153.57</course>
  <speed>25.6</speed>
  <fix>3d</fix>
</trkpt>
<trkpt lat="-27.2669359" lon="151.2878957">
  <ele>542.06</ele>
  <time>2026-09-01T19:56:01Z</time>
  <course>152.81</course>
  <speed>25.541828438856918</speed>
  <fix>3d</fix>
</trkpt>
<trkpt lat="-27.2668959" lon="151.2878726">
  <ele>542.11</ele>
  <time>2026-09-01T19:56:01Z</time>
  <course>152.54</course>
  <speed>25.59</speed>
  <fix>3d</fix>
</trkpt>
<trkpt lat="-27.2669561" lon="151.2879081">
  <ele>542.06</ele>
  <time>2026-09-01T19:56:01Z</time>
  <course>152.35</course>
  <speed>25.530001958480142</speed>
  <fix>3d</fix>
</trkpt>
<trkpt lat="-27.2668959" lon="151.2878726">
  <ele>542.11</ele>
  <time>2026-09-01T19:56:01Z</time>
  <course>152.54</course>
  <speed>25.59</speed>
  <fix>3d</fix>
</trkpt>
<trkpt lat="-27.2669762" lon="151.2879206">
  <ele>542.06</ele>
  <time>2026-09-01T19:56:01Z</time>
  <course>151.9</course>
  <speed>25.528307817009726</speed>
  <fix>3d</fix>
</trkpt>
<trkpt lat="-27.2669365" lon="151.2878969">
  <ele>542.12</ele>
  <time>2026-09-01T19:56:01Z</time>
  <course>151.6</course>
  <speed>25.58</speed>
  <fix>3d</fix>
</trkpt>
<trkpt lat="-27.2669962" lon="151.2879333">
  <ele>542.06</ele>
  <time>2026-09-01T19:56:01Z</time>
  <course>151.4</course>
  <speed>25.526819229978496</speed>
  <fix>3d</fix>
</trkpt>
<trkpt lat="-27.2669365" lon="151.2878969">
  <ele>542.12</ele>
  <time>2026-09-01T19:56:01Z</time>
  <course>151.6</course>
  <speed>25.58</speed>
  <fix>3d</fix>
</trkpt>
<trkpt lat="-27.2670162" lon="151.2879462">
  <ele>542.06</ele>
  <time>2026-09-01T19:56:01Z</time>
  <course>151.04</course>
  <speed>25.526349131828468</speed>
  <fix>3d</fix>
</trkpt>
<trkpt lat="-27.2669767" lon="151.2879218">
  <ele>542.12</ele>
  <time>2026-09-01T19:56:01Z</time>
  <course>150.77</course>
  <speed>25.58</speed>
  <fix>3d</fix>
</trkpt>
<trkpt lat="-27.2670361" lon="151.2879591">
  <ele>542.07</ele>
  <time>2026-09-01T19:56:01Z</time>
  <course>150.72</course>
  <speed>25.52552056276228</speed>
  <fix>3d</fix>
</trkpt>
<trkpt lat="-27.2669767" lon="151.2879218">
  <ele>542.12</ele>
  <time>2026-09-01T19:56:01Z</time>
  <course>150.77</course>
  <speed>25.58</speed>
  <fix>3d</fix>
</trkpt>
<trkpt lat="-27.267056" lon="151.2879722">
  <ele>542.07</ele>
  <time>2026-09-01T19:56:01Z</time>
  <course>150.37</course>
  <speed>25.52902074110952</speed>
  <fix>3d</fix>
</trkpt>
<trkpt lat="-27.2670167" lon="151.2879472">
  <ele>542.13</ele>
  <time>2026-09-01T19:56:01Z</time>
  <course>150.05</course>
  <speed>25.57</speed>
  <fix>3d</fix>
</trkpt>
<trkpt lat="-27.2670758" lon="151.2879854">
  <ele>542.07</ele>
  <time>2026-09-01T19:56:01Z</time>
  <course>150.04</course>
  <speed>25.52295045640296</speed>
  <fix>3d</fix>
</trkpt>
<trkpt lat="-27.2670167" lon="151.2879472">
  <ele>542.13</ele>
  <time>2026-09-01T19:56:01Z</time>
  <course>150.05</course>
  <speed>25.57</speed>
  <fix>3d</fix>
</trkpt>
<trkpt lat="-27.2670955" lon="151.2879987">
  <ele>542.07</ele>
  <time>2026-09-01T19:56:01Z</time>
  <course>149.71</course>
  <speed>25.531049723816686</speed>
  <fix>3d</fix>
</trkpt>
<trkpt lat="-27.2670563" lon="151.2879733">
  <ele>542.14</ele>
  <time>2026-09-01T19:56:01Z</time>
  <course>149.46</course>
  <speed>25.57</speed>
  <fix>3d</fix>
</trkpt>
<trkpt lat="-27.2671152" lon="151.288012">
  <ele>542.07</ele>
  <time>2026-09-01T19:56:01Z</time>
  <course>149.45</course>
  <speed>25.524155225981527</speed>
  <fix>3d</fix>
</trkpt>
<trkpt lat="-27.2670563" lon="151.2879733">
  <ele>542.14</ele>
  <time>2026-09-01T19:56:01Z</time>
  <course>149.46</course>
  <speed>25.57</speed>
  <fix>3d</fix>
</trkpt>
<trkpt lat="-27.2671348" lon="151.2880255">
  <ele>542.08</ele>
  <time>2026-09-01T19:56:01Z</time>
  <course>149.21</course>
  <speed>25.517548863478247</speed>
  <fix>3d</fix>
</trkpt>
<trkpt lat="-27.2670958" lon="151.2879998">
  <ele>542.15</ele>
  <time>2026-09-01T19:56:01Z</time>
  <course>148.98</course>
  <speed>25.57</speed>
  <fix>3d</fix>
</trkpt>
<trkpt lat="-27.2671544" lon="151.288039">
  <ele>542.08</ele>
  <time>2026-09-01T19:56:01Z</time>
  <course>149.01</course>
  <speed>25.51455466983502</speed>
  <fix>3d</fix>
</trkpt>
<trkpt lat="-27.2670958" lon="151.2879998">
  <ele>542.15</ele>
  <time>2026-09-01T19:56:01Z</time>
  <course>148.98</course>
  <speed>25.57</speed>
  <fix>3d</fix>
</trkpt>
<trkpt lat="-27.267174" lon="151.2880526">
  <ele>542.09</ele>
  <time>2026-09-01T19:56:01Z</time>
  <course>148.86</course>
  <speed>25.51505633934599</speed>
  <fix>3d</fix>
</trkpt>
<trkpt lat="-27.2671351" lon="151.2880266">
  <ele>542.16</ele>
  <time>2026-09-01T19:56:01Z</time>
  <course>148.59</course>
  <speed>25.56</speed>
  <fix>3d</fix>
</trkpt>
<trkpt lat="-27.2671935" lon="151.2880661">
  <ele>542.09</ele>
  <time>2026-09-01T19:56:01Z</time>
  <course>148.71</course>
  <speed>25.515691250679453</speed>
  <fix>3d</fix>
</trkpt>
<trkpt lat="-27.2671351" lon="151.2880266">
  <ele>542.16</ele>
  <time>2026-09-01T19:56:01Z</time>
  <course>148.59</course>
  <speed>25.56</speed>
  <fix>3d</fix>
</trkpt>
<trkpt lat="-27.2672131" lon="151.2880798">
  <ele>542.09</ele>
  <time>2026-09-01T19:56:01Z</time>
  <course>148.57</course>
  <speed>25.51969631480751</speed>
  <fix>3d</fix>
</trkpt>
<trkpt lat="-27.2671743" lon="151.2880537">
  <ele>542.17</ele>
  <time>2026-09-01T19:56:01Z</time>
  <course>148.31</course>
  <speed>25.56</speed>
  <fix>3d</fix>
</trkpt>
<trkpt lat="-27.2672326" lon="151.2880935">
  <ele>542.1</ele>
  <time>2026-09-01T19:56:01Z</time>
  <course>148.51</course>
  <speed>25.521727997923655</speed>
  <fix>3d</fix>
</trkpt>
<trkpt lat="-27.2671743" lon="151.2880537">
  <ele>542.17</ele>
  <time>2026-09-01T19:56:01Z</time>
  <course>148.31</course>
  <speed>25.56</speed>
  <fix>3d</fix>
</trkpt>
<trkpt lat="-27.2672519" lon="151.2881071">
  <ele>542.11</ele>
  <time>2026-09-01T19:56:01Z</time>
  <course>148.41</course>
  <speed>25.515285614705547</speed>
  <fix>3d</fix>
</trkpt>
<trkpt lat="-27.2672134" lon="151.2880809">
  <ele>542.19</ele>
  <time>2026-09-01T19:56:01Z</time>
  <course>148.1</course>
  <speed>25.56</speed>
  <fix>3d</fix>
</trkpt>
<trkpt lat="-27.2672713" lon="151.2881208">
  <ele>542.12</ele>
  <time>2026-09-01T19:56:01Z</time>
  <course>148.32</course>
  <speed>25.51207557216778</speed>
  <fix>3d</fix>
</trkpt>
<trkpt lat="-27.2672134" lon="151.2880809">
  <ele>542.19</ele>
  <time>2026-09-01T19:56:01Z</time>
  <course>148.1</course>
  <speed>25.56</speed>
  <fix>3d</fix>
</trkpt>
<trkpt lat="-27.2672907" lon="151.2881344">
  <ele>542.13</ele>
  <time>2026-09-01T19:56:01Z</time>
  <course>148.23</course>
  <speed>25.50358602236164</speed>
  <fix>3d</fix>
</trkpt>
<trkpt lat="-27.2672523" lon="151.2881082">
  <ele>542.2</ele>
  <time>2026-09-01T19:56:01Z</time>
  <course>147.98</course>
  <speed>25.56</speed>
  <fix>3d</fix>
</trkpt>
<trkpt lat="-27.2673099" lon="151.2881479">
  <ele>542.14</ele>
  <time>2026-09-01T19:56:01Z</time>
  <course>148.11</course>
  <speed>25.498301904244528</speed>
  <fix>3d</fix>
</trkpt>
<trkpt lat="-27.2672523" lon="151.2881082">
  <ele>542.2</ele>
  <time>2026-09-01T19:56:01Z</time>
  <course>147.98</course>
  <speed>25.56</speed>
  <fix>3d</fix>
</trkpt>
<trkpt lat="-27.2673292" lon="151.2881615">
  <ele>542.15</ele>
  <time>2026-09-01T19:56:01Z</time>
  <course>148.07</course>
  <speed>25.484528639941527</speed>
  <fix>3d</fix>
</trkpt>
<trkpt lat="-27.2672912" lon="151.2881357">
  <ele>542.23</ele>
  <time>2026-09-01T19:56:01Z</time>
  <course>147.96</course>
  <speed>25.56</speed>
  <fix>3d</fix>
</trkpt>
<trkpt lat="-27.2673485" lon="151.2881751">
  <ele>542.16</ele>
  <time>2026-09-01T19:56:01Z</time>
  <course>148.12</course>
  <speed>25.479248419056635</speed>
  <fix>3d</fix>
</trkpt>
<trkpt lat="-27.2672912" lon="151.2881357">
  <ele>542.23</ele>
  <time>2026-09-01T19:56:01Z</time>
  <course>147.96</course>
  <speed>25.56</speed>
  <fix>3d</fix>
</trkpt>
<trkpt lat="-27.2673679" lon="151.2881888">
  <ele>542.18</ele>
  <time>2026-09-01T19:56:01Z</time>
  <course>148.15</course>
  <speed>25.477193723014317</speed>
  <fix>3d</fix>
</trkpt>
<trkpt lat="-27.2673302" lon="151.2881631">
  <ele>542.25</ele>
  <time>2026-09-01T19:56:01Z</time>
  <course>147.98</course>
  <speed>25.56</speed>
  <fix>3d</fix>
</trkpt>
<trkpt lat="-27.2673874" lon="151.2882025">
  <ele>542.19</ele>
  <time>2026-09-01T19:56:01Z</time>
  <course>148.2</course>
  <speed>25.475158488221425</speed>
  <fix>3d</fix>
</trkpt>
<trkpt lat="-27.2673302" lon="151.2881631">
  <ele>542.25</ele>
  <time>2026-09-01T19:56:01Z</time>
  <course>147.98</course>
  <speed>25.56</speed>
  <fix>3d</fix>
</trkpt>
<trkpt lat="-27.2674068" lon="151.288216">
  <ele>542.21</ele>
  <time>2026-09-01T19:56:01Z</time>
  <course>148.29</course>
  <speed>25.467887623436695</speed>
  <fix>3d</fix>
</trkpt>
<trkpt lat="-27.2673691" lon="151.2881904">
  <ele>542.28</ele>
  <time>2026-09-01T19:56:01Z</time>
  <course>148.06</course>
  <speed>25.56</speed>
  <fix>3d</fix>
</trkpt>
<trkpt lat="-27.2674262" lon="151.2882296">
  <ele>542.23</ele>
  <time>2026-09-01T19:56:01Z</time>
  <course>148.38</course>
  <speed>25.463929390414197</speed>
  <fix>3d</fix>
</trkpt>
<trkpt lat="-27.2673691" lon="151.2881904">
  <ele>542.28</ele>
  <time>2026-09-01T19:56:01Z</time>
  <course>148.06</course>
  <speed>25.56</speed>
  <fix>3d</fix>
</trkpt>
<trkpt lat="-27.2674457" lon="151.2882431">
  <ele>542.25</ele>
  <time>2026-09-01T19:56:01Z</time>
  <course>148.45</course>
  <speed>25.45152254777698</speed>
  <fix>3d</fix>
</trkpt>
<trkpt lat="-27.2674081" lon="151.2882177">
  <ele>542.32</ele>
  <time>2026-09-01T19:56:01Z</time>
  <course>148.2</course>
  <speed>25.56</speed>
  <fix>3d</fix>
</trkpt>
<trkpt lat="-27.2674653" lon="151.2882567">
  <ele>542.26</ele>
  <time>2026-09-01T19:56:01Z</time>
  <course>148.45</course>
  <speed>25.447711095499336</speed>
  <fix>3d</fix>
</trkpt>
<trkpt lat="-27.2674081" lon="151.2882177">
  <ele>542.32</ele>
  <time>2026-09-01T19:56:01Z</time>
  <course>148.2</course>
  <speed>25.56</speed>
  <fix>3d</fix>
</trkpt>
<trkpt lat="-27.2674848" lon="151.2882701">
  <ele>542.28</ele>
  <time>2026-09-01T19:56:01Z</time>
  <course>148.54</course>
  <speed>25.44397767645617</speed>
  <fix>3d</fix>
</trkpt>
<trkpt lat="-27.2674471" lon="151.2882448">
  <ele>542.35</ele>
  <time>2026-09-01T19:56:01Z</time>
  <course>148.39</course>
  <speed>25.55</speed>
  <fix>3d</fix>
</trkpt>
<trkpt lat="-27.2675043" lon="151.2882835">
  <ele>542.29</ele>
  <time>2026-09-01T19:56:01Z</time>
  <course>148.61</course>
  <speed>25.448876203086062</speed>
  <fix>3d</fix>
</trkpt>
<trkpt lat="-27.2674471" lon="151.2882448">
  <ele>542.35</ele>
  <time>2026-09-01T19:56:01Z</time>
  <course>148.39</course>
  <speed>25.55</speed>
  <fix>3d</fix>
</trkpt>
<trkpt lat="-27.2675238" lon="151.2882968">
  <ele>542.3</ele>
  <time>2026-09-01T19:56:01Z</time>
  <course>148.67</course>
  <speed>25.445308015427912</speed>
  <fix>3d</fix>
</trkpt>
<trkpt lat="-27.2674863" lon="151.2882718">
  <ele>542.39</ele>
  <time>2026-09-01T19:56:01Z</time>
  <course>148.6</course>
  <speed>25.55</speed>
  <fix>3d</fix>
</trkpt>
<trkpt lat="-27.2675434" lon="151.2883101">
  <ele>542.32</ele>
  <time>2026-09-01T19:56:01Z</time>
  <course>148.8</course>
  <speed>25.436670379591742</speed>
  <fix>3d</fix>
</trkpt>
<trkpt lat="-27.2674863" lon="151.2882718">
  <ele>542.39</ele>
  <time>2026-09-01T19:56:01Z</time>
  <course>148.6</course>
  <speed>25.55</speed>
  <fix>3d</fix>
</trkpt>
<trkpt lat="-27.267563" lon="151.2883234">
  <ele>542.33</ele>
  <time>2026-09-01T19:56:01Z</time>
  <course>148.91</course>
  <speed>25.441857243526854</speed>
  <fix>3d</fix>
</trkpt>
<trkpt lat="-27.2675256" lon="151.2882986">
  <ele>542.42</ele>
  <time>2026-09-01T19:56:01Z</time>
  <course>148.83</course>
  <speed>25.55</speed>
  <fix>3d</fix>
</trkpt>
<trkpt lat="-27.2675826" lon="151.2883366">
  <ele>542.35</ele>
  <time>2026-09-01T19:56:01Z</time>
  <course>149.04</course>
  <speed>25.43343468743457</speed>
  <fix>3d</fix>
</trkpt>
<trkpt lat="-27.2675256" lon="151.2882986">
  <ele>542.42</ele>
  <time>2026-09-01T19:56:01Z</time>
  <course>148.83</course>
  <speed>25.55</speed>
  <fix>3d</fix>
</trkpt>
<trkpt lat="-27.2676023" lon="151.2883498">
  <ele>542.36</ele>
  <time>2026-09-01T19:56:01Z</time>
  <course>149.18</course>
  <speed>25.433729573147545</speed>
  <fix>3d</fix>
</trkpt>
<trkpt lat="-27.267565" lon="151.2883253">
  <ele>542.45</ele>
  <time>2026-09-01T19:56:01Z</time>
  <course>149.07</course>
  <speed>25.55</speed>
  <fix>3d</fix>
</trkpt>
<trkpt lat="-27.267622" lon="151.2883629">
  <ele>542.38</ele>
  <time>2026-09-01T19:56:01Z</time>
  <course>149.3</course>
  <speed>25.43770823010595</speed>
  <fix>3d</fix>
</trkpt>
<trkpt lat="-27.267565" lon="151.2883253">
  <ele>542.45</ele>
  <time>2026-09-01T19:56:01Z</time>
  <course>149.07</course>
  <speed>25.55</speed>
  <fix>3d</fix>
</trkpt>
<trkpt lat="-27.2676417" lon="151.288376">
  <ele>542.39</ele>
  <time>2026-09-01T19:56:01Z</time>
  <course>149.4</course>
  <speed>25.43830183011437</speed>
  <fix>3d</fix>
</trkpt>
<trkpt lat="-27.2676044" lon="151.2883517">
  <ele>542.49</ele>
  <time>2026-09-01T19:56:01Z</time>
  <course>149.34</course>
  <speed>25.55</speed>
  <fix>3d</fix>
</trkpt>
<trkpt lat="-27.2676615" lon="151.288389">
  <ele>542.41</ele>
  <time>2026-09-01T19:56:01Z</time>
  <course>149.51</course>
  <speed>25.434002830856176</speed>
  <fix>3d</fix>
</trkpt>
<trkpt lat="-27.2676044" lon="151.2883517">
  <ele>542.49</ele>
  <time>2026-09-01T19:56:01Z</time>
  <course>149.34</course>
  <speed>25.55</speed>
  <fix>3d</fix>
</trkpt>
<trkpt lat="-27.2676813" lon="151.288402">
  <ele>542.42</ele>
  <time>2026-09-01T19:56:01Z</time>
  <course>149.64</course>
  <speed>25.443541420171837</speed>
  <fix>3d</fix>
</trkpt>
<trkpt lat="-27.267644" lon="151.288378">
  <ele>542.53</ele>
  <time>2026-09-01T19:56:01Z</time>
  <course>149.64</course>
  <speed>25.54</speed>
  <fix>3d</fix>
</trkpt>
<trkpt lat="-27.2677012" lon="151.2884149">
  <ele>542.44</ele>
  <time>2026-09-01T19:56:01Z</time>
  <course>149.77</course>
  <speed>25.444567200092045</speed>
  <fix>3d</fix>
</trkpt>
<trkpt lat="-27.267644" lon="151.288378">
  <ele>542.53</ele>
  <time>2026-09-01T19:56:01Z</time>
  <course>149.64</course>
  <speed>25.54</speed>
  <fix>3d</fix>
</trkpt>
<trkpt lat="-27.2677209" lon="151.2884276">
  <ele>542.46</ele>
  <time>2026-09-01T19:56:01Z</time>
  <course>149.96</course>
  <speed>25.44944793114381</speed>
  <fix>3d</fix>
</trkpt>
<trkpt lat="-27.2676836" lon="151.2884039">
  <ele>542.56</ele>
  <time>2026-09-01T19:56:01Z</time>
  <course>149.93</course>
  <speed>25.54</speed>
  <fix>3d</fix>
</trkpt>
<trkpt lat="-27.2677408" lon="151.2884405">
  <ele>542.48</ele>
  <time>2026-09-01T19:56:01Z</time>
  <course>150.12</course>
  <speed>25.450772090449437</speed>
  <fix>3d</fix>
</trkpt>
<trkpt lat="-27.2676836" lon="151.2884039">
  <ele>542.56</ele>
  <time>2026-09-01T19:56:01Z</time>
  <course>149.93</course>
  <speed>25.54</speed>
  <fix>3d</fix>
</trkpt>
<trkpt lat="-27.2677608" lon="151.2884532">
  <ele>542.5</ele>
  <time>2026-09-01T19:56:01Z</time>
  <course>150.33</course>
  <speed>25.456020898797206</speed>
  <fix>3d</fix>
</trkpt>
<trkpt lat="-27.2677234" lon="151.2884297">
  <ele>542.6</ele>
  <time>2026-09-01T19:56:01Z</time>
  <course>150.22</course>
  <speed>25.54</speed>
  <fix>3d</fix>
</trkpt>
<trkpt lat="-27.2677808" lon="151.2884659">
  <ele>542.51</ele>
  <time>2026-09-01T19:56:01Z</time>
  <course>150.47</course>
  <speed>25.461472856062354</speed>
  <fix>3d</fix>
</trkpt>
<trkpt lat="-27.2677234" lon="151.2884297">
  <ele>542.6</ele>
  <time>2026-09-01T19:56:01Z</time>
  <course>150.22</course>
  <speed>25.54</speed>
  <fix>3d</fix>
</trkpt>
<trkpt lat="-27.2678011" lon="151.2884787">
  <ele>542.54</ele>
  <time>2026-09-01T19:56:01Z</time>
  <course>150.52</course>
  <speed>25.45352627829787</speed>
  <fix>3d</fix>
</trkpt>
<trkpt lat="-27.2677633" lon="151.2884551">
  <ele>542.64</ele>
  <time>2026-09-01T19:56:01Z</time>
  <course>150.53</course>
  <speed>25.54</speed>
  <fix>3d</fix>
</trkpt>
<trkpt lat="-27.2678211" lon="151.2884912">
  <ele>542.56</ele>
  <time>2026-09-01T19:56:01Z</time>
  <course>150.59</course>
  <speed>25.455486638443983</speed>
  <fix>3d</fix>
</trkpt>
<trkpt lat="-27.2677633" lon="151.2884551">
  <ele>542.64</ele>
  <time>2026-09-01T19:56:01Z</time>
  <course>150.53</course>
  <speed>25.54</speed>
  <fix>3d</fix>
</trkpt>
<trkpt lat="-27.2678412" lon="151.2885038">
  <ele>542.58</ele>
  <time>2026-09-01T19:56:01Z</time>
  <course>150.75</course>
  <speed>25.461519986049538</speed>
  <fix>3d</fix>
</trkpt>
<trkpt lat="-27.2678033" lon="151.2884805">
  <ele>542.68</ele>
  <time>2026-09-01T19:56:01Z</time>
  <course>150.85</course>
  <speed>25.54</speed>
  <fix>3d</fix>
</trkpt>
<trkpt lat="-27.2678614" lon="151.2885162">
  <ele>542.61</ele>
  <time>2026-09-01T19:56:01Z</time>
  <course>150.98</course>
  <speed>25.45500540168868</speed>
  <fix>3d</fix>
</trkpt>
<trkpt lat="-27.2678033" lon="151.2884805">
  <ele>542.68</ele>
  <time>2026-09-01T19:56:01Z</time>
  <course>150.85</course>
  <speed>25.54</speed>
  <fix>3d</fix>
</trkpt>
<trkpt lat="-27.2678815" lon="151.2885286">
  <ele>542.62</ele>
  <time>2026-09-01T19:56:01Z</time>
  <course>151.2</course>
  <speed>25.466169715919197</speed>
  <fix>3d</fix>
</trkpt>
<trkpt lat="-27.2678433" lon="151.2885055">
  <ele>542.72</ele>
  <time>2026-09-01T19:56:01Z</time>
  <course>151.14</course>
  <speed>25.53</speed>
  <fix>3d</fix>
</trkpt>
<trkpt lat="-27.2679017" lon="151.288541">
  <ele>542.64</ele>
  <time>2026-09-01T19:56:01Z</time>
  <course>151.29</course>
  <speed>25.463937244660336</speed>
  <fix>3d</fix>
</trkpt>
<trkpt lat="-27.2678433" lon="151.2885055">
  <ele>542.72</ele>
  <time>2026-09-01T19:56:01Z</time>
  <course>151.14</course>
  <speed>25.53</speed>
  <fix>3d</fix>
</trkpt>
<trkpt lat="-27.2679219" lon="151.2885533">
  <ele>542.66</ele>
  <time>2026-09-01T19:56:01Z</time>
  <course>151.43</course>
  <speed>25.47069099965684</speed>
  <fix>3d</fix>
</trkpt>
<trkpt lat="-27.2678836" lon="151.2885303">
  <ele>542.77</ele>
  <time>2026-09-01T19:56:01Z</time>
  <course>151.43</course>
  <speed>25.53</speed>
  <fix>3d</fix>
</trkpt>
<trkpt lat="-27.2679421" lon="151.2885655">
  <ele>542.67</ele>
  <time>2026-09-01T19:56:01Z</time>
  <course>151.61</course>
  <speed>25.473533323824554</speed>
  <fix>3d</fix>
</trkpt>
<trkpt lat="-27.2678836" lon="151.2885303">
  <ele>542.77</ele>
  <time>2026-09-01T19:56:01Z</time>
  <course>151.43</course>
  <speed>25.53</speed>
  <fix>3d</fix>
</trkpt>
<trkpt lat="-27.2679624" lon="151.2885777">
  <ele>542.68</ele>
  <time>2026-09-01T19:56:01Z</time>
  <course>151.76</course>
  <speed>25.476508787508543</speed>
  <fix>3d</fix>
</trkpt>
<trkpt lat="-27.267924" lon="151.2885549">
  <ele>542.8</ele>
  <time>2026-09-01T19:56:01Z</time>
  <course>151.72</course>
  <speed>25.52</speed>
  <fix>3d</fix>
</trkpt>
<trkpt lat="-27.2679827" lon="151.2885898">
  <ele>542.69</ele>
  <time>2026-09-01T19:56:01Z</time>
  <course>151.9</course>
  <speed>25.474948478848784</speed>
  <fix>3d</fix>
</trkpt>
<trkpt lat="-27.267924" lon="151.2885549">
  <ele>542.8</ele>
  <time>2026-09-01T19:56:01Z</time>
  <course>151.72</course>
  <speed>25.52</speed>
  <fix>3d</fix>
</trkpt>
<trkpt lat="-27.2680032" lon="151.2886019">
  <ele>542.71</ele>
  <time>2026-09-01T19:56:01Z</time>
  <course>152.04</course>
  <speed>25.473564728949892</speed>
  <fix>3d</fix>
</trkpt>
<trkpt lat="-27.2679645" lon="151.2885792">
  <ele>542.83</ele>
  <time>2026-09-01T19:56:01Z</time>
  <course>152.01</course>
  <speed>25.52</speed>
  <fix>3d</fix>
</trkpt>
<trkpt lat="-27.2680235" lon="151.2886139">
  <ele>542.72</ele>
  <time>2026-09-01T19:56:01Z</time>
  <course>152.19</course>
  <speed>25.47697980530659</speed>
  <fix>3d</fix>
</trkpt>
<trkpt lat="-27.2679645" lon="151.2885792">
  <ele>542.83</ele>
  <time>2026-09-01T19:56:01Z</time>
  <course>152.01</course>
  <speed>25.52</speed>
  <fix>3d</fix>
</trkpt>
<trkpt lat="-27.2680439" lon="151.2886259">
  <ele>542.74</ele>
  <time>2026-09-01T19:56:01Z</time>
  <course>152.33</course>
  <speed>25.471650908411885</speed>
  <fix>3d</fix>
</trkpt>
<trkpt lat="-27.268005" lon="151.2886033">
  <ele>542.86</ele>
  <time>2026-09-01T19:56:01Z</time>
  <course>152.29</course>
  <speed>25.52</speed>
  <fix>3d</fix>
</trkpt>
<trkpt lat="-27.2680643" lon="151.2886378">
  <ele>542.75</ele>
  <time>2026-09-01T19:56:01Z</time>
  <course>152.43</course>
  <speed>25.47990777063371</speed>
  <fix>3d</fix>
</trkpt>
<trkpt lat="-27.268005" lon="151.2886033">
  <ele>542.86</ele>
  <time>2026-09-01T19:56:01Z</time>
  <course>152.29</course>
  <speed>25.52</speed>
  <fix>3d</fix>
</trkpt>
<trkpt lat="-27.2680847" lon="151.2886497">
  <ele>542.77</ele>
  <time>2026-09-01T19:56:01Z</time>
  <course>152.48</course>
  <speed>25.479366161661087</speed>
  <fix>3d</fix>
</trkpt>
<trkpt lat="-27.2680457" lon="151.2886272">
  <ele>542.9</ele>
  <time>2026-09-01T19:56:01Z</time>
  <course>152.54</course>
  <speed>25.51</speed>
  <fix>3d</fix>
</trkpt>
<trkpt lat="-27.2681051" lon="151.2886615">
  <ele>542.79</ele>
  <time>2026-09-01T19:56:01Z</time>
  <course>152.64</course>
  <speed>25.487804927062665</speed>
  <fix>3d</fix>
</trkpt>
<trkpt lat="-27.2680457" lon="151.2886272">
  <ele>542.9</ele>
  <time>2026-09-01T19:56:01Z</time>
  <course>152.54</course>
  <speed>25.51</speed>
  <fix>3d</fix>
</trkpt>
<trkpt lat="-27.2681256" lon="151.2886733">
  <ele>542.81</ele>
  <time>2026-09-01T19:56:01Z</time>
  <course>152.75</course>
  <speed>25.49196932369094</speed>
  <fix>3d</fix>
</trkpt>
<trkpt lat="-27.2680864" lon="151.2886509">
  <ele>542.93</ele>
  <time>2026-09-01T19:56:01Z</time>
  <course>152.77</course>
  <speed>25.51</speed>
  <fix>3d</fix>
</trkpt>
<trkpt lat="-27.2681459" lon="151.2886849">
  <ele>542.82</ele>
  <time>2026-09-01T19:56:01Z</time>
  <course>152.82</course>
  <speed>25.491655497436806</speed>
  <fix>3d</fix>
</trkpt>
<trkpt lat="-27.2680864" lon="151.2886509">
  <ele>542.93</ele>
  <time>2026-09-01T19:56:01Z</time>
  <course>152.77</course>
  <speed>25.51</speed>
  <fix>3d</fix>
</trkpt>
<trkpt lat="-27.2681664" lon="151.2886966">
  <ele>542.84</ele>
  <time>2026-09-01T19:56:01Z</time>
  <course>152.9</course>
  <speed>25.495933009011456</speed>
  <fix>3d</fix>
</trkpt>
<trkpt lat="-27.2681272" lon="151.2886744">
  <ele>542.97</ele>
  <time>2026-09-01T19:56:01Z</time>
  <course>152.97</course>
  <speed>25.51</speed>
  <fix>3d</fix>
</trkpt>
<trkpt lat="-27.2681869" lon="151.2887083">
  <ele>542.86</ele>
  <time>2026-09-01T19:56:01Z</time>
  <course>153.03</course>
  <speed>25.50026078298024</speed>
  <fix>3d</fix>
</trkpt>
<trkpt lat="-27.2681272" lon="151.2886744">
  <ele>542.97</ele>
  <time>2026-09-01T19:56:01Z</time>
  <course>152.97</course>
  <speed>25.51</speed>
  <fix>3d</fix>
</trkpt>
<trkpt lat="-27.2682074" lon="151.2887199">
  <ele>542.87</ele>
  <time>2026-09-01T19:56:01Z</time>
  <course>153.13</course>
  <speed>25.491214172730178</speed>
  <fix>3d</fix>
</trkpt>
<trkpt lat="-27.268168" lon="151.2886977">
  <ele>543.0</ele>
  <time>2026-09-01T19:56:01Z</time>
  <course>153.16</course>
  <speed>25.5</speed>
  <fix>3d</fix>
</trkpt>
<trkpt lat="-27.2682281" lon="151.2887316">
  <ele>542.88</ele>
  <time>2026-09-01T19:56:01Z</time>
  <course>153.23</course>
  <speed>25.49564864834782</speed>
  <fix>3d</fix>
</trkpt>
<trkpt lat="-27.268168" lon="151.2886977">
  <ele>543.0</ele>
  <time>2026-09-01T19:56:01Z</time>
  <course>153.16</course>
  <speed>25.5</speed>
  <fix>3d</fix>
</trkpt>
<trkpt lat="-27.2682487" lon="151.2887432">
  <ele>542.89</ele>
  <time>2026-09-01T19:56:01Z</time>
  <course>153.34</course>
  <speed>25.500133332984753</speed>
  <fix>3d</fix>
</trkpt>
<trkpt lat="-27.2682089" lon="151.2887209">
  <ele>543.03</ele>
  <time>2026-09-01T19:56:01Z</time>
  <course>153.32</course>
  <speed>25.5</speed>
  <fix>3d</fix>
</trkpt>
<trkpt lat="-27.2682692" lon="151.2887547">
  <ele>542.91</ele>
  <time>2026-09-01T19:56:01Z</time>
  <course>153.45</course>
  <speed>25.495713365191413</speed>
  <fix>3d</fix>
</trkpt>
<trkpt lat="-27.2682089" lon="151.2887209">
  <ele>543.03</ele>
  <time>2026-09-01T19:56:01Z</time>
  <course>153.32</course>
  <speed>25.5</speed>
  <fix>3d</fix>
</trkpt>
<trkpt lat="-27.2682898" lon="151.2887662">
  <ele>542.92</ele>
  <time>2026-09-01T19:56:01Z</time>
  <course>153.5</course>
  <speed>25.500292155189122</speed>
  <fix>3d</fix>
</trkpt>
<trkpt lat="-27.2682499" lon="151.2887439">
  <ele>543.06</ele>
  <time>2026-09-01T19:56:01Z</time>
  <course>153.48</course>
  <speed>25.49</speed>
  <fix>3d</fix>
</trkpt>
<trkpt lat="-27.2683104" lon="151.2887777">
  <ele>542.93</ele>
  <time>2026-09-01T19:56:01Z</time>
  <course>153.59</course>
  <speed>25.5049210937811</speed>
  <fix>3d</fix>
</trkpt>
<trkpt lat="-27.2682499" lon="151.2887439">
  <ele>543.06</ele>
  <time>2026-09-01T19:56:01Z</time>
  <course>153.48</course>
  <speed>25.49</speed>
  <fix>3d</fix>
</trkpt>
<trkpt lat="-27.268331" lon="151.2887891">
  <ele>542.94</ele>
  <time>2026-09-01T19:56:01Z</time>
  <course>153.61</course>
  <speed>25.505044599059225</speed>
  <fix>3d</fix>
</trkpt>
<trkpt lat="-27.2682908" lon="151.2887669">
  <ele>543.08</ele>
  <time>2026-09-01T19:56:01Z</time>
  <course>153.63</course>
  <speed>25.49</speed>
  <fix>3d</fix>
</trkpt>
<trkpt lat="-27.2683516" lon="151.2888005">
  <ele>542.96</ele>
  <time>2026-09-01T19:56:01Z</time>
  <course>153.7</course>
  <speed>25.51416273366618</speed>
  <fix>3d</fix>
</trkpt>
<trkpt lat="-27.2682908" lon="151.2887669">
  <ele>543.08</ele>
  <time>2026-09-01T19:56:01Z</time>
  <course>153.63</course>
  <speed>25.49</speed>
  <fix>3d</fix>
</trkpt>
<trkpt lat="-27.2683723" lon="151.2888119">
  <ele>542.97</ele>
  <time>2026-09-01T19:56:01Z</time>
  <course>153.78</course>
  <speed>25.514329307273588</speed>
  <fix>3d</fix>
</trkpt>
<trkpt lat="-27.2683319" lon="151.2887897">
  <ele>543.1</ele>
  <time>2026-09-01T19:56:01Z</time>
  <course>153.77</course>
  <speed>25.49</speed>
  <fix>3d</fix>
</trkpt>
<trkpt lat="-27.2683929" lon="151.2888233">
  <ele>542.98</ele>
  <time>2026-09-01T19:56:01Z</time>
  <course>153.89</course>
  <speed>25.514515476489063</speed>
  <fix>3d</fix>
</trkpt>
<trkpt lat="-27.2683319" lon="151.2887897">
  <ele>543.1</ele>
  <time>2026-09-01T19:56:01Z</time>
  <course>153.77</course>
  <speed>25.49</speed>
  <fix>3d</fix>
</trkpt>
<trkpt lat="-27.2684136" lon="151.2888347">
  <ele>542.98</ele>
  <time>2026-09-01T19:56:01Z</time>
  <course>154.01</course>
  <speed>25.52370858633204</speed>
  <fix>3d</fix>
</trkpt>
<trkpt lat="-27.2683731" lon="151.2888125">
  <ele>543.13</ele>
  <time>2026-09-01T19:56:01Z</time>
  <course>153.87</course>
  <speed>25.49</speed>
  <fix>3d</fix>
</trkpt>
<trkpt lat="-27.2684342" lon="151.288846">
  <ele>542.99</ele>
  <time>2026-09-01T19:56:01Z</time>
  <course>154.03</course>
  <speed>25.52393778397056</speed>
  <fix>3d</fix>
</trkpt>
<trkpt lat="-27.2683731" lon="151.2888125">
  <ele>543.13</ele>
  <time>2026-09-01T19:56:01Z</time>
  <course>153.87</course>
  <speed>25.49</speed>
  <fix>3d</fix>
</trkpt>
<trkpt lat="-27.2684549" lon="151.2888573">
  <ele>543.0</ele>
  <time>2026-09-01T19:56:01Z</time>
  <course>153.94</course>
  <speed>25.524186568821346</speed>
  <fix>3d</fix>
</trkpt>
<trkpt lat="-27.2684143" lon="151.2888352">
  <ele>543.14</ele>
  <time>2026-09-01T19:56:01Z</time>
  <course>153.98</course>
  <speed>25.49</speed>
  <fix>3d</fix>
</trkpt>
<trkpt lat="-27.2684755" lon="151.2888686">
  <ele>543.0</ele>
  <time>2026-09-01T19:56:01Z</time>
  <course>153.98</course>
  <speed>25.52881705054114</speed>
  <fix>3d</fix>
</trkpt>
<trkpt lat="-27.2684143" lon="151.2888352">
  <ele>543.14</ele>
  <time>2026-09-01T19:56:01Z</time>
  <course>153.98</course>
  <speed>25.49</speed>
  <fix>3d</fix>
</trkpt>
<trkpt lat="-27.2684962" lon="151.2888799">
  <ele>543.0</ele>
  <time>2026-09-01T19:56:01Z</time>
  <course>154.07</course>
  <speed>25.533454525386887</speed>
  <fix>3d</fix>
</trkpt>
<trkpt lat="-27.2684555" lon="151.2888577">
  <ele>543.15</ele>
  <time>2026-09-01T19:56:01Z</time>
  <course>154.08</course>
  <speed>25.49</speed>
  <fix>3d</fix>
</trkpt>
<trkpt lat="-27.2685169" lon="151.2888912">
  <ele>543.01</ele>
  <time>2026-09-01T19:56:02Z</time>
  <course>154.16</course>
  <speed>25.53809898954893</speed>
  <fix>3d</fix>
</trkpt>
<trkpt lat="-27.2684555" lon="151.2888577">
  <ele>543.15</ele>
  <time>2026-09-01T19:56:02Z</time>
  <course>154.08</course>
  <speed>25.49</speed>
  <fix>3d</fix>
</trkpt>
<trkpt lat="-27.2685376" lon="151.2889024">
  <ele>543.01</ele>
  <time>2026-09-01T19:56:02Z</time>
  <course>154.18</course>
  <speed>25.542750439214647</speed>
  <fix>3d</fix>
</trkpt>
<trkpt lat="-27.2684967" lon="151.2888802">
  <ele>543.16</ele>
  <time>2026-09-01T19:56:02Z</time>
  <course>154.14</course>
  <speed>25.49</speed>
  <fix>3d</fix>
</trkpt>
<trkpt lat="-27.2685583" lon="151.2889137">
  <ele>543.01</ele>
  <time>2026-09-01T19:56:02Z</time>
  <course>154.17</course>
  <speed>25.542750439214647</speed>
  <fix>3d</fix>
</trkpt>
<trkpt lat="-27.2684967" lon="151.2888802">
  <ele>543.16</ele>
  <time>2026-09-01T19:56:02Z</time>
  <course>154.14</course>
  <speed>25.49</speed>
  <fix>3d</fix>
</trkpt>
<trkpt lat="-27.2685789" lon="151.2889249">
  <ele>543.01</ele>
  <time>2026-09-01T19:56:02Z</time>
  <course>154.21</course>
  <speed>25.551755321308164</speed>
  <fix>3d</fix>
</trkpt>
<trkpt lat="-27.2685379" lon="151.2889027">
  <ele>543.16</ele>
  <time>2026-09-01T19:56:02Z</time>
  <course>154.18</course>
  <speed>25.5</speed>
  <fix>3d</fix>
</trkpt>
<trkpt lat="-27.2685996" lon="151.2889361">
  <ele>543.01</ele>
  <time>2026-09-01T19:56:02Z</time>
  <course>154.22</course>
  <speed>25.54740887056846</speed>
  <fix>3d</fix>
</trkpt>
<trkpt lat="-27.2685379" lon="151.2889027">
  <ele>543.16</ele>
  <time>2026-09-01T19:56:02Z</time>
  <course>154.18</course>
  <speed>25.5</speed>
  <fix>3d</fix>
</trkpt>
<trkpt lat="-27.2686203" lon="151.2889474">
  <ele>543.02</ele>
  <time>2026-09-01T19:56:02Z</time>
  <course>154.23</course>
  <speed>25.543065595186494</speed>
  <fix>3d</fix>
</trkpt>
<trkpt lat="-27.2685791" lon="151.288925">
  <ele>543.17</ele>
  <time>2026-09-01T19:56:02Z</time>
  <course>154.22</course>
  <speed>25.5</speed>
  <fix>3d</fix>
</trkpt>
<trkpt lat="-27.268641" lon="151.2889586">
  <ele>543.02</ele>
  <time>2026-09-01T19:56:02Z</time>
  <course>154.19</course>
  <speed>25.552074279791846</speed>
  <fix>3d</fix>
</trkpt>
<trkpt lat="-27.2685791" lon="151.288925">
  <ele>543.17</ele>
  <time>2026-09-01T19:56:02Z</time>
  <course>154.22</course>
  <speed>25.5</speed>
  <fix>3d</fix>
</trkpt>
<trkpt lat="-27.2686618" lon="151.2889699">
  <ele>543.03</ele>
  <time>2026-09-01T19:56:02Z</time>
  <course>154.21</course>
  <speed>25.552074279791846</speed>
  <fix>3d</fix>
</trkpt>
<trkpt lat="-27.2686204" lon="151.2889475">
  <ele>543.17</ele>
  <time>2026-09-01T19:56:02Z</time>
  <course>154.24</course>
  <speed>25.5</speed>
  <fix>3d</fix>
</trkpt>
<trkpt lat="-27.2686825" lon="151.2889811">
  <ele>543.03</ele>
  <time>2026-09-01T19:56:02Z</time>
  <course>154.25</course>
  <speed>25.552074279791846</speed>
  <fix>3d</fix>
</trkpt>
<trkpt lat="-27.2686204" lon="151.2889475">
  <ele>543.17</ele>
  <time>2026-09-01T19:56:02Z</time>
  <course>154.24</course>
  <speed>25.5</speed>
  <fix>3d</fix>
</trkpt>
<trkpt lat="-27.2687031" lon="151.2889923">
  <ele>543.03</ele>
  <time>2026-09-01T19:56:02Z</time>
  <course>154.29</course>
  <speed>25.552074279791846</speed>
  <fix>3d</fix>
</trkpt>
<trkpt lat="-27.2686616" lon="151.2889698">
  <ele>543.18</ele>
  <time>2026-09-01T19:56:02Z</time>
  <course>154.25</course>
  <speed>25.5</speed>
  <fix>3d</fix>
</trkpt>
<trkpt lat="-27.2687238" lon="151.2890035">
  <ele>543.03</ele>
  <time>2026-09-01T19:56:02Z</time>
  <course>154.35</course>
  <speed>25.552074279791846</speed>
  <fix>3d</fix>
</trkpt>
<trkpt lat="-27.2686616" lon="151.2889698">
  <ele>543.18</ele>
  <time>2026-09-01T19:56:02Z</time>
  <course>154.25</course>
  <speed>25.5</speed>
  <fix>3d</fix>
</trkpt>
<trkpt lat="-27.2687444" lon="151.2890147">
  <ele>543.04</ele>
  <time>2026-09-01T19:56:02Z</time>
  <course>154.36</course>
  <speed>25.556416024161134</speed>
  <fix>3d</fix>
</trkpt>
<trkpt lat="-27.2687029" lon="151.2889923">
  <ele>543.18</ele>
  <time>2026-09-01T19:56:02Z</time>
  <course>154.25</course>
  <speed>25.51</speed>
  <fix>3d</fix>
</trkpt>
<trkpt lat="-27.2687651" lon="151.2890259">
  <ele>543.04</ele>
  <time>2026-09-01T19:56:02Z</time>
  <course>154.34</course>
  <speed>25.556416024161134</speed>
  <fix>3d</fix>
</trkpt>
<trkpt lat="-27.2687029" lon="151.2889923">
  <ele>543.18</ele>
  <time>2026-09-01T19:56:02Z</time>
  <course>154.25</course>
  <speed>25.51</speed>
  <fix>3d</fix>
</trkpt>
<trkpt lat="-27.2687857" lon="151.2890371">
  <ele>543.04</ele>
  <time>2026-09-01T19:56:02Z</time>
  <course>154.37</course>
  <speed>25.556416024161134</speed>
  <fix>3d</fix>
</trkpt>
<trkpt lat="-27.2687442" lon="151.2890147">
  <ele>543.19</ele>
  <time>2026-09-01T19:56:02Z</time>
  <course>154.24</course>
  <speed>25.51</speed>
  <fix>3d</fix>
</trkpt>
<trkpt lat="-27.2688064" lon="151.2890483">
  <ele>543.04</ele>
  <time>2026-09-01T19:56:02Z</time>
  <course>154.32</course>
  <speed>25.556416024161134</speed>
  <fix>3d</fix>
</trkpt>
<trkpt lat="-27.2687442" lon="151.2890147">
  <ele>543.19</ele>
  <time>2026-09-01T19:56:02Z</time>
  <course>154.24</course>
  <speed>25.51</speed>
  <fix>3d</fix>
</trkpt>
<trkpt lat="-27.268827" lon="151.2890595">
  <ele>543.04</ele>
  <time>2026-09-01T19:56:02Z</time>
  <course>154.32</course>
  <speed>25.56076094328962</speed>
  <fix>3d</fix>
</trkpt>
<trkpt lat="-27.2687855" lon="151.2890371">
  <ele>543.19</ele>
  <time>2026-09-01T19:56:02Z</time>
  <course>154.23</course>
  <speed>25.52</speed>
  <fix>3d</fix>
</trkpt>
<trkpt lat="-27.2688477" lon="151.2890707">
  <ele>543.04</ele>
  <time>2026-09-01T19:56:02Z</time>
  <course>154.33</course>
  <speed>25.56076094328962</speed>
  <fix>3d</fix>
</trkpt>
<trkpt lat="-27.2687855" lon="151.2890371">
  <ele>543.19</ele>
  <time>2026-09-01T19:56:02Z</time>
  <course>154.23</course>
  <speed>25.52</speed>
  <fix>3d</fix>
</trkpt>
<trkpt lat="-27.2688683" lon="151.289082">
  <ele>543.04</ele>
  <time>2026-09-01T19:56:02Z</time>
  <course>154.31</course>
  <speed>25.56076094328962</speed>
  <fix>3d</fix>
</trkpt>
<trkpt lat="-27.2688269" lon="151.2890595">
  <ele>543.19</ele>
  <time>2026-09-01T19:56:02Z</time>
  <course>154.22</course>
  <speed>25.53</speed>
  <fix>3d</fix>
</trkpt>
<trkpt lat="-27.268889" lon="151.2890932">
  <ele>543.04</ele>
  <time>2026-09-01T19:56:02Z</time>
  <course>154.25</course>
  <speed>25.5651090355586</speed>
  <fix>3d</fix>
</trkpt>
<trkpt lat="-27.2688269" lon="151.2890595">
  <ele>543.19</ele>
  <time>2026-09-01T19:56:02Z</time>
  <course>154.22</course>
  <speed>25.53</speed>
  <fix>3d</fix>
</trkpt>
<trkpt lat="-27.2689096" lon="151.2891044">
  <ele>543.04</ele>
  <time>2026-09-01T19:56:02Z</time>
  <course>154.21</course>
  <speed>25.5694602993493</speed>
  <fix>3d</fix>
</trkpt>
<trkpt lat="-27.2688682" lon="151.289082">
  <ele>543.19</ele>
  <time>2026-09-01T19:56:02Z</time>
  <course>154.2</course>
  <speed>25.53</speed>
  <fix>3d</fix>
</trkpt>
<trkpt lat="-27.2689303" lon="151.2891157">
  <ele>543.03</ele>
  <time>2026-09-01T19:56:02Z</time>
  <course>154.24</course>
  <speed>25.564813709471856</speed>
  <fix>3d</fix>
</trkpt>
<trkpt lat="-27.2688682" lon="151.289082">
  <ele>543.19</ele>
  <time>2026-09-01T19:56:02Z</time>
  <course>154.2</course>
  <speed>25.53</speed>
  <fix>3d</fix>
</trkpt>
<trkpt lat="-27.2689509" lon="151.2891269">
  <ele>543.03</ele>
  <time>2026-09-01T19:56:02Z</time>
  <course>154.23</course>
  <speed>25.569172845440267</speed>
  <fix>3d</fix>
</trkpt>
<trkpt lat="-27.2689095" lon="151.2891045">
  <ele>543.19</ele>
  <time>2026-09-01T19:56:02Z</time>
  <course>154.17</course>
  <speed>25.54</speed>
  <fix>3d</fix>
</trkpt>
<trkpt lat="-27.2689716" lon="151.2891382">
  <ele>543.03</ele>
  <time>2026-09-01T19:56:02Z</time>
  <course>154.19</course>
  <speed>25.57353514866492</speed>
  <fix>3d</fix>
</trkpt>
<trkpt lat="-27.2689095" lon="151.2891045">
  <ele>543.19</ele>
  <time>2026-09-01T19:56:02Z</time>
  <course>154.17</course>
  <speed>25.54</speed>
  <fix>3d</fix>
</trkpt>
<trkpt lat="-27.2689922" lon="151.2891495">
  <ele>543.02</ele>
  <time>2026-09-01T19:56:02Z</time>
  <course>154.17</course>
  <speed>25.573275112898624</speed>
  <fix>3d</fix>
</trkpt>
<trkpt lat="-27.2689508" lon="151.289127">
  <ele>543.18</ele>
  <time>2026-09-01T19:56:02Z</time>
  <course>154.11</course>
  <speed>25.55</speed>
  <fix>3d</fix>
</trkpt>
<trkpt lat="-27.2690128" lon="151.2891608">
  <ele>543.02</ele>
  <time>2026-09-01T19:56:02Z</time>
  <course>154.11</course>
  <speed>25.577648445468945</speed>
  <fix>3d</fix>
</trkpt>
<trkpt lat="-27.2689508" lon="151.289127">
  <ele>543.18</ele>
  <time>2026-09-01T19:56:02Z</time>
  <course>154.11</course>
  <speed>25.55</speed>
  <fix>3d</fix>
</trkpt>
<trkpt lat="-27.2690335" lon="151.2891721">
  <ele>543.02</ele>
  <time>2026-09-01T19:56:02Z</time>
  <course>154.05</course>
  <speed>25.57741581942945</speed>
  <fix>3d</fix>
</trkpt>
<trkpt lat="-27.2689921" lon="151.2891495">
  <ele>543.18</ele>
  <time>2026-09-01T19:56:02Z</time>
  <course>154.05</course>
  <speed>25.56</speed>
  <fix>3d</fix>
</trkpt>
<trkpt lat="-27.2690541" lon="151.2891835">
  <ele>543.03</ele>
  <time>2026-09-01T19:56:02Z</time>
  <course>154.06</course>
  <speed>25.572813689541476</speed>
  <fix>3d</fix>
</trkpt>
<trkpt lat="-27.2689921" lon="151.2891495">
  <ele>543.18</ele>
  <time>2026-09-01T19:56:02Z</time>
  <course>154.05</course>
  <speed>25.56</speed>
  <fix>3d</fix>
</trkpt>
<trkpt lat="-27.2690746" lon="151.2891947">
  <ele>543.03</ele>
  <time>2026-09-01T19:56:02Z</time>
  <course>154.1</course>
  <speed>25.568218553508963</speed>
  <fix>3d</fix>
</trkpt>
<trkpt lat="-27.2690334" lon="151.2891722">
  <ele>543.18</ele>
  <time>2026-09-01T19:56:02Z</time>
  <course>153.97</course>
  <speed>25.56</speed>
  <fix>3d</fix>
</trkpt>
<trkpt lat="-27.2690952" lon="151.2892061">
  <ele>543.03</ele>
  <time>2026-09-01T19:56:02Z</time>
  <course>154.12</course>
  <speed>25.57261230300886</speed>
  <fix>3d</fix>
</trkpt>
<trkpt lat="-27.2690334" lon="151.2891722">
  <ele>543.18</ele>
  <time>2026-09-01T19:56:02Z</time>
  <course>153.97</course>
  <speed>25.56</speed>
  <fix>3d</fix>
</trkpt>
<trkpt lat="-27.2691158" lon="151.2892174">
  <ele>543.03</ele>
  <time>2026-09-01T19:56:02Z</time>
  <course>154.03</course>
  <speed>25.563630415103408</speed>
  <fix>3d</fix>
</trkpt>
<trkpt lat="-27.2690746" lon="151.2891949">
  <ele>543.19</ele>
  <time>2026-09-01T19:56:02Z</time>
  <course>153.91</course>
  <speed>25.56</speed>
  <fix>3d</fix>
</trkpt>
<trkpt lat="-27.2691364" lon="151.2892288">
  <ele>543.04</ele>
  <time>2026-09-01T19:56:02Z</time>
  <course>153.96</course>
  <speed>25.559049278093266</speed>
  <fix>3d</fix>
</trkpt>
<trkpt lat="-27.2690746" lon="151.2891949">
  <ele>543.19</ele>
  <time>2026-09-01T19:56:02Z</time>
  <course>153.91</course>
  <speed>25.56</speed>
  <fix>3d</fix>
</trkpt>
<trkpt lat="-27.2691573" lon="151.2892404">
  <ele>543.04</ele>
  <time>2026-09-01T19:56:02Z</time>
  <course>153.89</course>
  <speed>25.558882995937047</speed>
  <fix>3d</fix>
</trkpt>
<trkpt lat="-27.2691159" lon="151.2892176">
  <ele>543.19</ele>
  <time>2026-09-01T19:56:02Z</time>
  <course>153.86</course>
  <speed>25.56</speed>
  <fix>3d</fix>
</trkpt>
<trkpt lat="-27.2691779" lon="151.2892518">
  <ele>543.05</ele>
  <time>2026-09-01T19:56:02Z</time>
  <course>153.88</course>
  <speed>25.563293997448763</speed>
  <fix>3d</fix>
</trkpt>
<trkpt lat="-27.2691159" lon="151.2892176">
  <ele>543.19</ele>
  <time>2026-09-01T19:56:02Z</time>
  <course>153.86</course>
  <speed>25.56</speed>
  <fix>3d</fix>
</trkpt>
<trkpt lat="-27.2691984" lon="151.2892632">
  <ele>543.05</ele>
  <time>2026-09-01T19:56:02Z</time>
  <course>153.87</course>
  <speed>25.558736275489053</speed>
  <fix>3d</fix>
</trkpt>
<trkpt lat="-27.2691571" lon="151.2892403">
  <ele>543.2</ele>
  <time>2026-09-01T19:56:02Z</time>
  <course>153.8</course>
  <speed>25.56</speed>
  <fix>3d</fix>
</trkpt>
<trkpt lat="-27.2692189" lon="151.2892745">
  <ele>543.05</ele>
  <time>2026-09-01T19:56:02Z</time>
  <course>153.83</course>
  <speed>25.5541855671434</speed>
  <fix>3d</fix>
</trkpt>
<trkpt lat="-27.2691571" lon="151.2892403">
  <ele>543.2</ele>
  <time>2026-09-01T19:56:02Z</time>
  <course>153.8</course>
  <speed>25.56</speed>
  <fix>3d</fix>
</trkpt>
<trkpt lat="-27.2692394" lon="151.2892859">
  <ele>543.05</ele>
  <time>2026-09-01T19:56:02Z</time>
  <course>153.86</course>
  <speed>25.54067540218935</speed>
  <fix>3d</fix>
</trkpt>
<trkpt lat="-27.2691983" lon="151.2892632">
  <ele>543.21</ele>
  <time>2026-09-01T19:56:02Z</time>
  <course>153.74</course>
  <speed>25.56</speed>
  <fix>3d</fix>
</trkpt>
<trkpt lat="-27.2692598" lon="151.2892973">
  <ele>543.06</ele>
  <time>2026-09-01T19:56:02Z</time>
  <course>153.86</course>
  <speed>25.53170969598393</speed>
  <fix>3d</fix>
</trkpt>
<trkpt lat="-27.2691983" lon="151.2892632">
  <ele>543.21</ele>
  <time>2026-09-01T19:56:02Z</time>
  <course>153.74</course>
  <speed>25.56</speed>
  <fix>3d</fix>
</trkpt>
<trkpt lat="-27.2692802" lon="151.2893086">
  <ele>543.07</ele>
  <time>2026-09-01T19:56:02Z</time>
  <course>153.81</course>
  <speed>25.536141055374834</speed>
  <fix>3d</fix>
</trkpt>
<trkpt lat="-27.2692395" lon="151.2892862">
  <ele>543.21</ele>
  <time>2026-09-01T19:56:02Z</time>
  <course>153.69</course>
  <speed>25.56</speed>
  <fix>3d</fix>
</trkpt>
<trkpt lat="-27.2693007" lon="151.28932">
  <ele>543.07</ele>
  <time>2026-09-01T19:56:02Z</time>
  <course>153.76</course>
  <speed>25.531613736699054</speed>
  <fix>3d</fix>
</trkpt>
<trkpt lat="-27.2692395" lon="151.2892862">
  <ele>543.21</ele>
  <time>2026-09-01T19:56:02Z</time>
  <course>153.69</course>
  <speed>25.56</speed>
  <fix>3d</fix>
</trkpt>
<trkpt lat="-27.2693211" lon="151.2893314">
  <ele>543.07</ele>
  <time>2026-09-01T19:56:02Z</time>
  <course>153.74</course>
  <speed>25.522652683449657</speed>
  <fix>3d</fix>
</trkpt>
<trkpt lat="-27.2692807" lon="151.2893091">
  <ele>543.21</ele>
  <time>2026-09-01T19:56:02Z</time>
  <course>153.64</course>
  <speed>25.57</speed>
  <fix>3d</fix>
</trkpt>
<trkpt lat="-27.2693416" lon="151.2893429">
  <ele>543.07</ele>
  <time>2026-09-01T19:56:02Z</time>
  <course>153.73</course>
  <speed>25.518134728071328</speed>
  <fix>3d</fix>
</trkpt>
<trkpt lat="-27.2692807" lon="151.2893091">
  <ele>543.21</ele>
  <time>2026-09-01T19:56:02Z</time>
  <course>153.64</course>
  <speed>25.57</speed>
  <fix>3d</fix>
</trkpt>
<trkpt lat="-27.269362" lon="151.2893543">
  <ele>543.07</ele>
  <time>2026-09-01T19:56:02Z</time>
  <course>153.74</course>
  <speed>25.509176780131497</speed>
  <fix>3d</fix>
</trkpt>
<trkpt lat="-27.2693219" lon="151.2893321">
  <ele>543.22</ele>
  <time>2026-09-01T19:56:02Z</time>
  <course>153.59</course>
  <speed>25.57</speed>
  <fix>3d</fix>
</trkpt>
<trkpt lat="-27.2693825" lon="151.2893658">
  <ele>543.07</ele>
  <time>2026-09-01T19:56:02Z</time>
  <course>153.69</course>
  <speed>25.51362381160309</speed>
  <fix>3d</fix>
</trkpt>
<trkpt lat="-27.2693219" lon="151.2893321">
  <ele>543.22</ele>
  <time>2026-09-01T19:56:02Z</time>
  <course>153.59</course>
  <speed>25.57</speed>
  <fix>3d</fix>
</trkpt>
<trkpt lat="-27.269403" lon="151.2893772">
  <ele>543.07</ele>
  <time>2026-09-01T19:56:02Z</time>
  <course>153.64</course>
  <speed>25.50466820015505</speed>
  <fix>3d</fix>
</trkpt>
<trkpt lat="-27.269363" lon="151.2893551">
  <ele>543.22</ele>
  <time>2026-09-01T19:56:02Z</time>
  <course>153.55</course>
  <speed>25.58</speed>
  <fix>3d</fix>
</trkpt>
<trkpt lat="-27.2694235" lon="151.2893887">
  <ele>543.07</ele>
  <time>2026-09-01T19:56:02Z</time>
  <course>153.61</course>
  <speed>25.513574818123786</speed>
  <fix>3d</fix>
</trkpt>
<trkpt lat="-27.269363" lon="151.2893551">
  <ele>543.22</ele>
  <time>2026-09-01T19:56:02Z</time>
  <course>153.55</course>
  <speed>25.58</speed>
  <fix>3d</fix>
</trkpt>
<trkpt lat="-27.269444" lon="151.2894002">
  <ele>543.07</ele>
  <time>2026-09-01T19:56:02Z</time>
  <course>153.58</course>
  <speed>25.50908269616922</speed>
  <fix>3d</fix>
</trkpt>
<trkpt lat="-27.2694041" lon="151.2893781">
  <ele>543.22</ele>
  <time>2026-09-01T19:56:02Z</time>
  <course>153.52</course>
  <speed>25.58</speed>
  <fix>3d</fix>
</trkpt>
<trkpt lat="-27.2694645" lon="151.2894118">
  <ele>543.06</ele>
  <time>2026-09-01T19:56:02Z</time>
  <course>153.62</course>
  <speed>25.51354542199104</speed>
  <fix>3d</fix>
</trkpt>
<trkpt lat="-27.2694041" lon="151.2893781">
  <ele>543.22</ele>
  <time>2026-09-01T19:56:02Z</time>
  <course>153.52</course>
  <speed>25.58</speed>
  <fix>3d</fix>
</trkpt>
<trkpt lat="-27.269485" lon="151.2894233">
  <ele>543.06</ele>
  <time>2026-09-01T19:56:02Z</time>
  <course>153.63</course>
  <speed>25.51354542199104</speed>
  <fix>3d</fix>
</trkpt>
<trkpt lat="-27.2694453" lon="151.2894012">
  <ele>543.21</ele>
  <time>2026-09-01T19:56:02Z</time>
  <course>153.47</course>
  <speed>25.58</speed>
  <fix>3d</fix>
</trkpt>
<trkpt lat="-27.2695053" lon="151.2894347">
  <ele>543.06</ele>
  <time>2026-09-01T19:56:02Z</time>
  <course>153.66</course>
  <speed>25.518011286148457</speed>
  <fix>3d</fix>
</trkpt>
<trkpt lat="-27.2694453" lon="151.2894012">
  <ele>543.21</ele>
  <time>2026-09-01T19:56:02Z</time>
  <course>153.47</course>
  <speed>25.58</speed>
  <fix>3d</fix>
</trkpt>
<trkpt lat="-27.2695258" lon="151.2894463">
  <ele>543.06</ele>
  <time>2026-09-01T19:56:02Z</time>
  <course>153.63</course>
  <speed>25.518011286148457</speed>
  <fix>3d</fix>
</trkpt>
<trkpt lat="-27.2694864" lon="151.2894243">
  <ele>543.2</ele>
  <time>2026-09-01T19:56:02Z</time>
  <course>153.43</course>
  <speed>25.59</speed>
  <fix>3d</fix>
</trkpt>
<trkpt lat="-27.2695464" lon="151.2894578">
  <ele>543.05</ele>
  <time>2026-09-01T19:56:02Z</time>
  <course>153.61</course>
  <speed>25.518011286148457</speed>
  <fix>3d</fix>
</trkpt>
<trkpt lat="-27.2694864" lon="151.2894243">
  <ele>543.2</ele>
  <time>2026-09-01T19:56:02Z</time>
  <course>153.43</course>
  <speed>25.59</speed>
  <fix>3d</fix>
</trkpt>
<trkpt lat="-27.2695669" lon="151.2894694">
  <ele>543.05</ele>
  <time>2026-09-01T19:56:02Z</time>
  <course>153.6</course>
  <speed>25.518011286148457</speed>
  <fix>3d</fix>
</trkpt>
<trkpt lat="-27.2695275" lon="151.2894474">
  <ele>543.2</ele>
  <time>2026-09-01T19:56:02Z</time>
  <course>153.41</course>
  <speed>25.59</speed>
  <fix>3d</fix>
</trkpt>
<trkpt lat="-27.2695876" lon="151.289481">
  <ele>543.06</ele>
  <time>2026-09-01T19:56:02Z</time>
  <course>153.6</course>
  <speed>25.518011286148457</speed>
  <fix>3d</fix>
</trkpt>
<trkpt lat="-27.2695275" lon="151.2894474">
  <ele>543.2</ele>
  <time>2026-09-01T19:56:02Z</time>
  <course>153.41</course>
  <speed>25.59</speed>
  <fix>3d</fix>
</trkpt>
<trkpt lat="-27.2696081" lon="151.2894926">
  <ele>543.06</ele>
  <time>2026-09-01T19:56:02Z</time>
  <course>153.6</course>
  <speed>25.518011286148457</speed>
  <fix>3d</fix>
</trkpt>
<trkpt lat="-27.2695686" lon="151.2894705">
  <ele>543.2</ele>
  <time>2026-09-01T19:56:02Z</time>
  <course>153.41</course>
  <speed>25.6</speed>
  <fix>3d</fix>
</trkpt>
<trkpt lat="-27.2696286" lon="151.2895041">
  <ele>543.06</ele>
  <time>2026-09-01T19:56:02Z</time>
  <course>153.6</course>
  <speed>25.518011286148457</speed>
  <fix>3d</fix>
</trkpt>
<trkpt lat="-27.2695686" lon="151.2894705">
  <ele>543.2</ele>
  <time>2026-09-01T19:56:02Z</time>
  <course>153.41</course>
  <speed>25.6</speed>
  <fix>3d</fix>
</trkpt>
<trkpt lat="-27.2696492" lon="151.2895157">
  <ele>543.07</ele>
  <time>2026-09-01T19:56:02Z</time>
  <course>153.56</course>
  <speed>25.518011286148457</speed>
  <fix>3d</fix>
</trkpt>
<trkpt lat="-27.2696097" lon="151.2894937">
  <ele>543.2</ele>
  <time>2026-09-01T19:56:02Z</time>
  <course>153.4</course>
  <speed>25.6</speed>
  <fix>3d</fix>
</trkpt>
<trkpt lat="-27.2696697" lon="151.2895273">
  <ele>543.07</ele>
  <time>2026-09-01T19:56:02Z</time>
  <course>153.56</course>
  <speed>25.518011286148457</speed>
  <fix>3d</fix>
</trkpt>
<trkpt lat="-27.2696097" lon="151.2894937">
  <ele>543.2</ele>
  <time>2026-09-01T19:56:02Z</time>
  <course>153.4</course>
  <speed>25.6</speed>
  <fix>3d</fix>
</trkpt>
<trkpt lat="-27.2696902" lon="151.2895388">
  <ele>543.08</ele>
  <time>2026-09-01T19:56:02Z</time>
  <course>153.6</course>
  <speed>25.509065055387666</speed>
  <fix>3d</fix>
</trkpt>
<trkpt lat="-27.2696509" lon="151.2895169">
  <ele>543.2</ele>
  <time>2026-09-01T19:56:02Z</time>
  <course>153.4</course>
  <speed>25.6</speed>
  <fix>3d</fix>
</trkpt>
<trkpt lat="-27.2697108" lon="151.2895504">
  <ele>543.08</ele>
  <time>2026-09-01T19:56:02Z</time>
  <course>153.59</course>
  <speed>25.509065055387666</speed>
  <fix>3d</fix>
</trkpt>
<trkpt lat="-27.2696509" lon="151.2895169">
  <ele>543.2</ele>
  <time>2026-09-01T19:56:02Z</time>
  <course>153.4</course>
  <speed>25.6</speed>
  <fix>3d</fix>
</trkpt>
<trkpt lat="-27.2697315" lon="151.289562">
  <ele>543.09</ele>
  <time>2026-09-01T19:56:02Z</time>
  <course>153.51</course>
  <speed>25.509065055387666</speed>
  <fix>3d</fix>
</trkpt>
<trkpt lat="-27.2696921" lon="151.2895401">
  <ele>543.2</ele>
  <time>2026-09-01T19:56:02Z</time>
  <course>153.39</course>
  <speed>25.59</speed>
  <fix>3d</fix>
</trkpt>
<trkpt lat="-27.269752" lon="151.2895736">
  <ele>543.09</ele>
  <time>2026-09-01T19:56:02Z</time>
  <course>153.49</course>
  <speed>25.513535623272602</speed>
  <fix>3d</fix>
</trkpt>
<trkpt lat="-27.2696921" lon="151.2895401">
  <ele>543.2</ele>
  <time>2026-09-01T19:56:02Z</time>
  <course>153.39</course>
  <speed>25.59</speed>
  <fix>3d</fix>
</trkpt>
<trkpt lat="-27.2697726" lon="151.2895852">
  <ele>543.09</ele>
  <time>2026-09-01T19:56:02Z</time>
  <course>153.54</course>
  <speed>25.518009326748043</speed>
  <fix>3d</fix>
</trkpt>
<trkpt lat="-27.2697332" lon="151.2895633">
  <ele>543.21</ele>
  <time>2026-09-01T19:56:02Z</time>
  <course>153.38</course>
  <speed>25.59</speed>
  <fix>3d</fix>
</trkpt>
<trkpt lat="-27.2697931" lon="151.2895968">
  <ele>543.08</ele>
  <time>2026-09-01T19:56:02Z</time>
  <course>153.55</course>
  <speed>25.518009326748043</speed>
  <fix>3d</fix>
</trkpt>
<trkpt lat="-27.2697332" lon="151.2895633">
  <ele>543.21</ele>
  <time>2026-09-01T19:56:02Z</time>
  <course>153.38</course>
  <speed>25.59</speed>
  <fix>3d</fix>
</trkpt>
<trkpt lat="-27.2698137" lon="151.2896085">
  <ele>543.08</ele>
  <time>2026-09-01T19:56:02Z</time>
  <course>153.55</course>
  <speed>25.531427692160108</speed>
  <fix>3d</fix>
</trkpt>
<trkpt lat="-27.2697743" lon="151.2895864">
  <ele>543.21</ele>
  <time>2026-09-01T19:56:02Z</time>
  <course>153.35</course>
  <speed>25.59</speed>
  <fix>3d</fix>
</trkpt>
<trkpt lat="-27.2698343" lon="151.2896201">
  <ele>543.08</ele>
  <time>2026-09-01T19:56:02Z</time>
  <course>153.52</course>
  <speed>25.531427692160108</speed>
  <fix>3d</fix>
</trkpt>
<trkpt lat="-27.2697743" lon="151.2895864">
  <ele>543.21</ele>
  <time>2026-09-01T19:56:02Z</time>
  <course>153.35</course>
  <speed>25.59</speed>
  <fix>3d</fix>
</trkpt>
<trkpt lat="-27.2698549" lon="151.2896317">
  <ele>543.07</ele>
  <time>2026-09-01T19:56:02Z</time>
  <course>153.51</course>
  <speed>25.531427692160108</speed>
  <fix>3d</fix>
</trkpt>
<trkpt lat="-27.2698154" lon="151.2896097">
  <ele>543.2</ele>
  <time>2026-09-01T19:56:02Z</time>
  <course>153.34</course>
  <speed>25.6</speed>
  <fix>3d</fix>
</trkpt>
<trkpt lat="-27.2698755" lon="151.2896433">
  <ele>543.07</ele>
  <time>2026-09-01T19:56:02Z</time>
  <course>153.52</course>
  <speed>25.54037000515067</speed>
  <fix>3d</fix>
</trkpt>
<trkpt lat="-27.2698154" lon="151.2896097">
  <ele>543.2</ele>
  <time>2026-09-01T19:56:02Z</time>
  <course>153.34</course>
  <speed>25.6</speed>
  <fix>3d</fix>
</trkpt>
<trkpt lat="-27.2698961" lon="151.2896549">
  <ele>543.07</ele>
  <time>2026-09-01T19:56:02Z</time>
  <course>153.58</course>
  <speed>25.544846838452564</speed>
  <fix>3d</fix>
</trkpt>
<trkpt lat="-27.2698565" lon="151.2896328">
  <ele>543.19</ele>
  <time>2026-09-01T19:56:02Z</time>
  <course>153.33</course>
  <speed>25.6</speed>
  <fix>3d</fix>
</trkpt>
<trkpt lat="-27.2699166" lon="151.2896666">
  <ele>543.06</ele>
  <time>2026-09-01T19:56:02Z</time>
  <course>153.62</course>
  <speed>25.549313102312553</speed>
  <fix>3d</fix>
</trkpt>
<trkpt lat="-27.2698565" lon="151.2896328">
  <ele>543.19</ele>
  <time>2026-09-01T19:56:02Z</time>
  <course>153.33</course>
  <speed>25.6</speed>
  <fix>3d</fix>
</trkpt>
<trkpt lat="-27.2699371" lon="151.2896781">
  <ele>543.06</ele>
  <time>2026-09-01T19:56:02Z</time>
  <course>153.62</course>
  <speed>25.549313102312553</speed>
  <fix>3d</fix>
</trkpt>
<trkpt lat="-27.2698976" lon="151.2896561">
  <ele>543.18</ele>
  <time>2026-09-01T19:56:02Z</time>
  <course>153.34</course>
  <speed>25.6</speed>
  <fix>3d</fix>
</trkpt>
<trkpt lat="-27.2699577" lon="151.2896897">
  <ele>543.06</ele>
  <time>2026-09-01T19:56:02Z</time>
  <course>153.58</course>
  <speed>25.558256982822595</speed>
  <fix>3d</fix>
</trkpt>
<trkpt lat="-27.2698976" lon="151.2896561">
  <ele>543.18</ele>
  <time>2026-09-01T19:56:02Z</time>
  <course>153.34</course>
  <speed>25.6</speed>
  <fix>3d</fix>
</trkpt>
<trkpt lat="-27.2699783" lon="151.2897013">
  <ele>543.05</ele>
  <time>2026-09-01T19:56:02Z</time>
  <course>153.55</course>
  <speed>25.562730683555696</speed>
  <fix>3d</fix>
</trkpt>
<trkpt lat="-27.2699387" lon="151.2896793">
  <ele>543.18</ele>
  <time>2026-09-01T19:56:02Z</time>
  <course>153.35</course>
  <speed>25.61</speed>
  <fix>3d</fix>
</trkpt>
<trkpt lat="-27.2699989" lon="151.289713">
  <ele>543.05</ele>
  <time>2026-09-01T19:56:02Z</time>
  <course>153.52</course>
  <speed>25.562730683555696</speed>
  <fix>3d</fix>
</trkpt>
<trkpt lat="-27.2699387" lon="151.2896793">
  <ele>543.18</ele>
  <time>2026-09-01T19:56:02Z</time>
  <course>153.35</course>
  <speed>25.61</speed>
  <fix>3d</fix>
</trkpt>
<trkpt lat="-27.2700196" lon="151.2897247">
  <ele>543.05</ele>
  <time>2026-09-01T19:56:02Z</time>
  <course>153.47</course>
  <speed>25.56720751274961</speed>
  <fix>3d</fix>
</trkpt>
<trkpt lat="-27.2699798" lon="151.2897026">
  <ele>543.17</ele>
  <time>2026-09-01T19:56:02Z</time>
  <course>153.35</course>
  <speed>25.61</speed>
  <fix>3d</fix>
</trkpt>
<trkpt lat="-27.2700402" lon="151.2897363">
  <ele>543.05</ele>
  <time>2026-09-01T19:56:02Z</time>
  <course>153.51</course>
  <speed>25.56720751274961</speed>
  <fix>3d</fix>
</trkpt>
<trkpt lat="-27.2699798" lon="151.2897026">
  <ele>543.17</ele>
  <time>2026-09-01T19:56:02Z</time>
  <course>153.35</course>
  <speed>25.61</speed>
  <fix>3d</fix>
</trkpt>
<trkpt lat="-27.2700608" lon="151.289748">
  <ele>543.04</ele>
  <time>2026-09-01T19:56:02Z</time>
  <course>153.59</course>
  <speed>25.57168746876123</speed>
  <fix>3d</fix>
</trkpt>
<trkpt lat="-27.2700209" lon="151.2897257">
  <ele>543.17</ele>
  <time>2026-09-01T19:56:02Z</time>
  <course>153.34</course>
  <speed>25.61</speed>
  <fix>3d</fix>
</trkpt>
<trkpt lat="-27.2700814" lon="151.2897596">
  <ele>543.04</ele>
  <time>2026-09-01T19:56:02Z</time>
  <course>153.56</course>
  <speed>25.580627435620105</speed>
  <fix>3d</fix>
</trkpt>
<trkpt lat="-27.2700209" lon="151.2897257">
  <ele>543.17</ele>
  <time>2026-09-01T19:56:02Z</time>
  <course>153.34</course>
  <speed>25.61</speed>
  <fix>3d</fix>
</trkpt>
<trkpt lat="-27.270102" lon="151.2897712">
  <ele>543.04</ele>
  <time>2026-09-01T19:56:02Z</time>
  <course>153.54</course>
  <speed>25.585108950324994</speed>
  <fix>3d</fix>
</trkpt>
<trkpt lat="-27.2700621" lon="151.289749">
  <ele>543.16</ele>
  <time>2026-09-01T19:56:02Z</time>
  <course>153.32</course>
  <speed>25.61</speed>
  <fix>3d</fix>
</trkpt>
<trkpt lat="-27.2701226" lon="151.2897829">
  <ele>543.04</ele>
  <time>2026-09-01T19:56:02Z</time>
  <course>153.56</course>
  <speed>25.585108950324994</speed>
  <fix>3d</fix>
</trkpt>
<trkpt lat="-27.2700621" lon="151.289749">
  <ele>543.16</ele>
  <time>2026-09-01T19:56:02Z</time>
  <course>153.32</course>
  <speed>25.61</speed>
  <fix>3d</fix>
</trkpt>
<trkpt lat="-27.2701432" lon="151.2897945">
  <ele>543.05</ele>
  <time>2026-09-01T19:56:02Z</time>
  <course>153.52</course>
  <speed>25.585108950324994</speed>
  <fix>3d</fix>
</trkpt>
<trkpt lat="-27.2701033" lon="151.2897723">
  <ele>543.16</ele>
  <time>2026-09-01T19:56:02Z</time>
  <course>153.31</course>
  <speed>25.62</speed>
  <fix>3d</fix>
</trkpt>
<trkpt lat="-27.2701638" lon="151.2898062">
  <ele>543.05</ele>
  <time>2026-09-01T19:56:02Z</time>
  <course>153.52</course>
  <speed>25.585108950324994</speed>
  <fix>3d</fix>
</trkpt>
<trkpt lat="-27.2701033" lon="151.2897723">
  <ele>543.16</ele>
  <time>2026-09-01T19:56:02Z</time>
  <course>153.31</course>
  <speed>25.62</speed>
  <fix>3d</fix>
</trkpt>
<trkpt lat="-27.2701844" lon="151.2898178">
  <ele>543.05</ele>
  <time>2026-09-01T19:56:02Z</time>
  <course>153.54</course>
  <speed>25.594048136236676</speed>
  <fix>3d</fix>
</trkpt>
<trkpt lat="-27.2701444" lon="151.2897956">
  <ele>543.17</ele>
  <time>2026-09-01T19:56:02Z</time>
  <course>153.3</course>
  <speed>25.62</speed>
  <fix>3d</fix>
</trkpt>
<trkpt lat="-27.2702049" lon="151.2898295">
  <ele>543.05</ele>
  <time>2026-09-01T19:56:02Z</time>
  <course>153.58</course>
  <speed>25.589568187056226</speed>
  <fix>3d</fix>
</trkpt>
<trkpt lat="-27.2701444" lon="151.2897956">
  <ele>543.17</ele>
  <time>2026-09-01T19:56:02Z</time>
  <course>153.3</course>
  <speed>25.62</speed>
  <fix>3d</fix>
</trkpt>
<trkpt lat="-27.2702256" lon="151.2898411">
  <ele>543.05</ele>
  <time>2026-09-01T19:56:02Z</time>
  <course>153.6</course>
  <speed>25.598509722247503</speed>
  <fix>3d</fix>
</trkpt>
<trkpt lat="-27.2701855" lon="151.2898188">
  <ele>543.17</ele>
  <time>2026-09-01T19:56:02Z</time>
  <course>153.31</course>
  <speed>25.62</speed>
  <fix>3d</fix>
</trkpt>
<trkpt lat="-27.2702462" lon="151.2898528">
  <ele>543.05</ele>
  <time>2026-09-01T19:56:02Z</time>
  <course>153.66</course>
  <speed>25.598509722247503</speed>
  <fix>3d</fix>
</trkpt>
<trkpt lat="-27.2701855" lon="151.2898188">
  <ele>543.17</ele>
  <time>2026-09-01T19:56:02Z</time>
  <course>153.31</course>
  <speed>25.62</speed>
  <fix>3d</fix>
</trkpt>
<trkpt lat="-27.2702668" lon="151.2898644">
  <ele>543.06</ele>
  <time>2026-09-01T19:56:02Z</time>
  <course>153.64</course>
  <speed>25.602978342372595</speed>
  <fix>3d</fix>
</trkpt>
<trkpt lat="-27.2702267" lon="151.289842">
  <ele>543.17</ele>
  <time>2026-09-01T19:56:02Z</time>
  <course>153.33</course>
  <speed>25.62</speed>
  <fix>3d</fix>
</trkpt>
<trkpt lat="-27.2702875" lon="151.2898761">
  <ele>543.06</ele>
  <time>2026-09-01T19:56:02Z</time>
  <course>153.59</course>
  <speed>25.598507769008723</speed>
  <fix>3d</fix>
</trkpt>
<trkpt lat="-27.2702267" lon="151.289842">
  <ele>543.17</ele>
  <time>2026-09-01T19:56:02Z</time>
  <course>153.33</course>
  <speed>25.62</speed>
  <fix>3d</fix>
</trkpt>
<trkpt lat="-27.2703081" lon="151.2898877">
  <ele>543.07</ele>
  <time>2026-09-01T19:56:02Z</time>
  <course>153.58</course>
  <speed>25.598507769008723</speed>
  <fix>3d</fix>
</trkpt>
<trkpt lat="-27.2702678" lon="151.2898652">
  <ele>543.17</ele>
  <time>2026-09-01T19:56:02Z</time>
  <course>153.36</course>
  <speed>25.62</speed>
  <fix>3d</fix>
</trkpt>
<trkpt lat="-27.2703287" lon="151.2898993">
  <ele>543.07</ele>
  <time>2026-09-01T19:56:02Z</time>
  <course>153.6</course>
  <speed>25.594040321918698</speed>
  <fix>3d</fix>
</trkpt>
<trkpt lat="-27.2702678" lon="151.2898652">
  <ele>543.17</ele>
  <time>2026-09-01T19:56:02Z</time>
  <course>153.36</course>
  <speed>25.62</speed>
  <fix>3d</fix>
</trkpt>
<trkpt lat="-27.2703493" lon="151.2899109">
  <ele>543.07</ele>
  <time>2026-09-01T19:56:02Z</time>
  <course>153.64</course>
  <speed>25.594040321918698</speed>
  <fix>3d</fix>
</trkpt>
<trkpt lat="-27.2703089" lon="151.2898885">
  <ele>543.18</ele>
  <time>2026-09-01T19:56:02Z</time>
  <course>153.38</course>
  <speed>25.61</speed>
  <fix>3d</fix>
</trkpt>
<trkpt lat="-27.2703698" lon="151.2899224">
  <ele>543.07</ele>
  <time>2026-09-01T19:56:02Z</time>
  <course>153.72</course>
  <speed>25.589576002739864</speed>
  <fix>3d</fix>
</trkpt>
<trkpt lat="-27.2703089" lon="151.2898885">
  <ele>543.18</ele>
  <time>2026-09-01T19:56:02Z</time>
  <course>153.38</course>
  <speed>25.61</speed>
  <fix>3d</fix>
</trkpt>
<trkpt lat="-27.2703904" lon="151.289934">
  <ele>543.08</ele>
  <time>2026-09-01T19:56:02Z</time>
  <course>153.73</course>
  <speed>25.59852534815238</speed>
  <fix>3d</fix>
</trkpt>
<trkpt lat="-27.2703501" lon="151.2899117">
  <ele>543.18</ele>
  <time>2026-09-01T19:56:02Z</time>
  <course>153.4</course>
  <speed>25.61</speed>
  <fix>3d</fix>
</trkpt>
<trkpt lat="-27.270411" lon="151.2899456">
  <ele>543.08</ele>
  <time>2026-09-01T19:56:02Z</time>
  <course>153.73</course>
  <speed>25.594065718443407</speed>
  <fix>3d</fix>
</trkpt>
<trkpt lat="-27.2703501" lon="151.2899117">
  <ele>543.18</ele>
  <time>2026-09-01T19:56:02Z</time>
  <course>153.4</course>
  <speed>25.61</speed>
  <fix>3d</fix>
</trkpt>
<trkpt lat="-27.2704317" lon="151.2899572">
  <ele>543.08</ele>
  <time>2026-09-01T19:56:02Z</time>
  <course>153.75</course>
  <speed>25.598562459638238</speed>
  <fix>3d</fix>
</trkpt>
<trkpt lat="-27.2703912" lon="151.2899348">
  <ele>543.19</ele>
  <time>2026-09-01T19:56:02Z</time>
  <course>153.43</course>
  <speed>25.6</speed>
  <fix>3d</fix>
</trkpt>
<trkpt lat="-27.2704524" lon="151.2899689">
  <ele>543.09</ele>
  <time>2026-09-01T19:56:02Z</time>
  <course>153.79</course>
  <speed>25.607516474660326</speed>
  <fix>3d</fix>
</trkpt>
<trkpt lat="-27.2703912" lon="151.2899348">
  <ele>543.19</ele>
  <time>2026-09-01T19:56:02Z</time>
  <course>153.43</course>
  <speed>25.6</speed>
  <fix>3d</fix>
</trkpt>
<trkpt lat="-27.2704731" lon="151.2899805">
  <ele>543.09</ele>
  <time>2026-09-01T19:56:02Z</time>
  <course>153.78</course>
  <speed>25.603066222622633</speed>
  <fix>3d</fix>
</trkpt>
<trkpt lat="-27.2704324" lon="151.2899579">
  <ele>543.19</ele>
  <time>2026-09-01T19:56:02Z</time>
  <course>153.47</course>
  <speed>25.6</speed>
  <fix>3d</fix>
</trkpt>
<trkpt lat="-27.2704937" lon="151.289992">
  <ele>543.09</ele>
  <time>2026-09-01T19:56:02Z</time>
  <course>153.73</course>
  <speed>25.61202256753652</speed>
  <fix>3d</fix>
</trkpt>
<trkpt lat="-27.2704324" lon="151.2899579">
  <ele>543.19</ele>
  <time>2026-09-01T19:56:02Z</time>
  <course>153.47</course>
  <speed>25.6</speed>
  <fix>3d</fix>
</trkpt>
<trkpt lat="-27.2705144" lon="151.2900036">
  <ele>543.08</ele>
  <time>2026-09-01T19:56:02Z</time>
  <course>153.71</course>
  <speed>25.61202256753652</speed>
  <fix>3d</fix>
</trkpt>
<trkpt lat="-27.2704735" lon="151.289981">
  <ele>543.19</ele>
  <time>2026-09-01T19:56:02Z</time>
  <course>153.5</course>
  <speed>25.6</speed>
  <fix>3d</fix>
</trkpt>
<trkpt lat="-27.270535" lon="151.2900151">
  <ele>543.08</ele>
  <time>2026-09-01T19:56:02Z</time>
  <course>153.76</course>
  <speed>25.616471263622554</speed>
  <fix>3d</fix>
</trkpt>
<trkpt lat="-27.2704735" lon="151.289981">
  <ele>543.19</ele>
  <time>2026-09-01T19:56:02Z</time>
  <course>153.5</course>
  <speed>25.6</speed>
  <fix>3d</fix>
</trkpt>
<trkpt lat="-27.2705556" lon="151.2900267">
  <ele>543.08</ele>
  <time>2026-09-01T19:56:02Z</time>
  <course>153.82</course>
  <speed>25.616471263622554</speed>
  <fix>3d</fix>
</trkpt>
<trkpt lat="-27.2705148" lon="151.2900042">
  <ele>543.18</ele>
  <time>2026-09-01T19:56:02Z</time>
  <course>153.51</course>
  <speed>25.6</speed>
  <fix>3d</fix>
</trkpt>
<trkpt lat="-27.2705763" lon="151.2900383">
  <ele>543.09</ele>
  <time>2026-09-01T19:56:02Z</time>
  <course>154.01</course>
  <speed>25.616471263622554</speed>
  <fix>3d</fix>
</trkpt>
<trkpt lat="-27.2705148" lon="151.2900042">
  <ele>543.18</ele>
  <time>2026-09-01T19:56:02Z</time>
  <course>153.51</course>
  <speed>25.6</speed>
  <fix>3d</fix>
</trkpt>
<trkpt lat="-27.2705969" lon="151.2900498">
  <ele>543.09</ele>
  <time>2026-09-01T19:56:02Z</time>
  <course>154.33</course>
  <speed>25.621055794014424</speed>
  <fix>3d</fix>
</trkpt>
<trkpt lat="-27.270556" lon="151.2900273">
  <ele>543.18</ele>
  <time>2026-09-01T19:56:02Z</time>
  <course>153.51</course>
  <speed>25.61</speed>
  <fix>3d</fix>
</trkpt>
<trkpt lat="-27.2706176" lon="151.2900613">
  <ele>543.09</ele>
  <time>2026-09-01T19:56:02Z</time>
  <course>154.8</course>
  <speed>25.63053257347572</speed>
  <fix>3d</fix>
</trkpt>
<trkpt lat="-27.270556" lon="151.2900273">
  <ele>543.18</ele>
  <time>2026-09-01T19:56:02Z</time>
  <course>153.51</course>
  <speed>25.61</speed>
  <fix>3d</fix>
</trkpt>
<trkpt lat="-27.2706382" lon="151.2900726">
  <ele>543.09</ele>
  <time>2026-09-01T19:56:02Z</time>
  <course>155.26</course>
  <speed>25.623820948484635</speed>
  <fix>3d</fix>
</trkpt>
<trkpt lat="-27.2705972" lon="151.2900503">
  <ele>543.17</ele>
  <time>2026-09-01T19:56:02Z</time>
  <course>153.65</course>
  <speed>25.61</speed>
  <fix>3d</fix>
</trkpt>
<trkpt lat="-27.2706589" lon="151.2900837">
  <ele>543.1</ele>
  <time>2026-09-01T19:56:02Z</time>
  <course>155.6</course>
  <speed>25.620823562094955</speed>
  <fix>3d</fix>
</trkpt>
<trkpt lat="-27.2705972" lon="151.2900503">
  <ele>543.17</ele>
  <time>2026-09-01T19:56:02Z</time>
  <course>153.65</course>
  <speed>25.61</speed>
  <fix>3d</fix>
</trkpt>
<trkpt lat="-27.2706796" lon="151.2900945">
  <ele>543.1</ele>
  <time>2026-09-01T19:56:02Z</time>
  <course>155.94</course>
  <speed>25.615419184545857</speed>
  <fix>3d</fix>
</trkpt>
<trkpt lat="-27.2706385" lon="151.290073">
  <ele>543.17</ele>
  <time>2026-09-01T19:56:02Z</time>
  <course>154.31</course>
  <speed>25.61</speed>
  <fix>3d</fix>
</trkpt>
<trkpt lat="-27.2707006" lon="151.2901049">
  <ele>543.09</ele>
  <time>2026-09-01T19:56:02Z</time>
  <course>156.35</course>
  <speed>25.61526107616317</speed>
  <fix>3d</fix>
</trkpt>
<trkpt lat="-27.2706385" lon="151.290073">
  <ele>543.17</ele>
  <time>2026-09-01T19:56:02Z</time>
  <course>154.31</course>
  <speed>25.61</speed>
  <fix>3d</fix>
</trkpt>
<trkpt lat="-27.2707217" lon="151.2901148">
  <ele>543.09</ele>
  <time>2026-09-01T19:56:02Z</time>
  <course>156.98</course>
  <speed>25.61883096474154</speed>
  <fix>3d</fix>
</trkpt>
<trkpt lat="-27.2706802" lon="151.2900949">
  <ele>543.16</ele>
  <time>2026-09-01T19:56:02Z</time>
  <course>155.75</course>
  <speed>25.62</speed>
  <fix>3d</fix>
</trkpt>
<trkpt lat="-27.270743" lon="151.2901242">
  <ele>543.09</ele>
  <time>2026-09-01T19:56:02Z</time>
  <course>157.82</course>
  <speed>25.63344885106177</speed>
  <fix>3d</fix>
</trkpt>
<trkpt lat="-27.2706802" lon="151.2900949">
  <ele>543.16</ele>
  <time>2026-09-01T19:56:02Z</time>
  <course>155.75</course>
  <speed>25.62</speed>
  <fix>3d</fix>
</trkpt>
<trkpt lat="-27.2707645" lon="151.2901331">
  <ele>543.1</ele>
  <time>2026-09-01T19:56:02Z</time>
  <course>158.79</course>
  <speed>25.634946849954655</speed>
  <fix>3d</fix>
</trkpt>
<trkpt lat="-27.2707225" lon="151.2901154">
  <ele>543.16</ele>
  <time>2026-09-01T19:56:02Z</time>
  <course>157.85</course>
  <speed>25.64</speed>
  <fix>3d</fix>
</trkpt>
<trkpt lat="-27.2707862" lon="151.2901415">
  <ele>543.11</ele>
  <time>2026-09-01T19:56:02Z</time>
  <course>159.89</course>
  <speed>25.649376210738538</speed>
  <fix>3d</fix>
</trkpt>
<trkpt lat="-27.2707225" lon="151.2901154">
  <ele>543.16</ele>
  <time>2026-09-01T19:56:02Z</time>
  <course>157.85</course>
  <speed>25.64</speed>
  <fix>3d</fix>
</trkpt>
<trkpt lat="-27.2708081" lon="151.2901494">
  <ele>543.12</ele>
  <time>2026-09-01T19:56:02Z</time>
  <course>161.06</course>
  <speed>25.653869103899318</speed>
  <fix>3d</fix>
</trkpt>
<trkpt lat="-27.2707656" lon="151.2901339">
  <ele>543.16</ele>
  <time>2026-09-01T19:56:02Z</time>
  <course>160.33</course>
  <speed>25.67</speed>
  <fix>3d</fix>
</trkpt>
<trkpt lat="-27.2708301" lon="151.2901567">
  <ele>543.14</ele>
  <time>2026-09-01T19:56:02Z</time>
  <course>162.24</course>
  <speed>25.653506582921565</speed>
  <fix>3d</fix>
</trkpt>
<trkpt lat="-27.2707656" lon="151.2901339">
  <ele>543.16</ele>
  <time>2026-09-01T19:56:02Z</time>
  <course>160.33</course>
  <speed>25.67</speed>
  <fix>3d</fix>
</trkpt>
<trkpt lat="-27.2708522" lon="151.2901636">
  <ele>543.17</ele>
  <time>2026-09-01T19:56:02Z</time>
  <course>163.33</course>
  <speed>25.652417040115342</speed>
  <fix>3d</fix>
</trkpt>
<trkpt lat="-27.2708093" lon="151.2901503">
  <ele>543.19</ele>
  <time>2026-09-01T19:56:02Z</time>
  <course>162.83</course>
  <speed>25.7</speed>
  <fix>3d</fix>
</trkpt>
<trkpt lat="-27.2708745" lon="151.29017">
  <ele>543.2</ele>
  <time>2026-09-01T19:56:02Z</time>
  <course>164.31</course>
  <speed>25.643638587376792</speed>
  <fix>3d</fix>
</trkpt>
<trkpt lat="-27.2708093" lon="151.2901503">
  <ele>543.19</ele>
  <time>2026-09-01T19:56:02Z</time>
  <course>162.83</course>
  <speed>25.7</speed>
  <fix>3d</fix>
</trkpt>
<trkpt lat="-27.270897" lon="151.2901761">
  <ele>543.21</ele>
  <time>2026-09-01T19:56:02Z</time>
  <course>165.27</course>
  <speed>25.64156781478075</speed>
  <fix>3d</fix>
</trkpt>
<trkpt lat="-27.2708537" lon="151.2901646">
  <ele>543.23</ele>
  <time>2026-09-01T19:56:02Z</time>
  <course>165.09</course>
  <speed>25.72</speed>
  <fix>3d</fix>
</trkpt>
<trkpt lat="-27.2709195" lon="151.2901817">
  <ele>543.22</ele>
  <time>2026-09-01T19:56:02Z</time>
  <course>166.12</course>
  <speed>25.63803424601816</speed>
  <fix>3d</fix>
</trkpt>
<trkpt lat="-27.2708537" lon="151.2901646">
  <ele>543.23</ele>
  <time>2026-09-01T19:56:02Z</time>
  <course>165.09</course>
  <speed>25.72</speed>
  <fix>3d</fix>
</trkpt>
<trkpt lat="-27.2709421" lon="151.290187">
  <ele>543.21</ele>
  <time>2026-09-01T19:56:02Z</time>
  <course>166.89</course>
  <speed>25.634431922708956</speed>
  <fix>3d</fix>
</trkpt>
<trkpt lat="-27.2708986" lon="151.2901771">
  <ele>543.27</ele>
  <time>2026-09-01T19:56:02Z</time>
  <course>167.02</course>
  <speed>25.72</speed>
  <fix>3d</fix>
</trkpt>
<trkpt lat="-27.2709647" lon="151.2901919">
  <ele>543.19</ele>
  <time>2026-09-01T19:56:02Z</time>
  <course>167.66</course>
  <speed>25.63787237662283</speed>
  <fix>3d</fix>
</trkpt>
<trkpt lat="-27.2708986" lon="151.2901771">
  <ele>543.27</ele>
  <time>2026-09-01T19:56:02Z</time>
  <course>167.02</course>
  <speed>25.72</speed>
  <fix>3d</fix>
</trkpt>
<trkpt lat="-27.2709874" lon="151.2901965">
  <ele>543.15</ele>
  <time>2026-09-01T19:56:02Z</time>
  <course>168.32</course>
  <speed>25.631562574295</speed>
  <fix>3d</fix>
</trkpt>
<trkpt lat="-27.2709438" lon="151.290188">
  <ele>543.27</ele>
  <time>2026-09-01T19:56:02Z</time>
  <course>168.72</course>
  <speed>25.72</speed>
  <fix>3d</fix>
</trkpt>
<trkpt lat="-27.2710102" lon="151.2902007">
  <ele>543.09</ele>
  <time>2026-09-01T19:56:02Z</time>
  <course>168.98</course>
  <speed>25.6324501364969</speed>
  <fix>3d</fix>
</trkpt>
<trkpt lat="-27.2709438" lon="151.290188">
  <ele>543.27</ele>
  <time>2026-09-01T19:56:02Z</time>
  <course>168.72</course>
  <speed>25.72</speed>
  <fix>3d</fix>
</trkpt>
<trkpt lat="-27.2710331" lon="151.2902047">
  <ele>543.01</ele>
  <time>2026-09-01T19:56:02Z</time>
  <course>169.64</course>
  <speed>25.62849195719483</speed>
  <fix>3d</fix>
</trkpt>
<trkpt lat="-27.2709893" lon="151.2901974">
  <ele>543.2</ele>
  <time>2026-09-01T19:56:02Z</time>
  <course>170.25</course>
  <speed>25.71</speed>
  <fix>3d</fix>
</trkpt>
<trkpt lat="-27.2710559" lon="151.2902084">
  <ele>542.91</ele>
  <time>2026-09-01T19:56:02Z</time>
  <course>170.24</course>
  <speed>25.620636213802342</speed>
  <fix>3d</fix>
</trkpt>
<trkpt lat="-27.2709893" lon="151.2901974">
  <ele>543.2</ele>
  <time>2026-09-01T19:56:02Z</time>
  <course>170.25</course>
  <speed>25.71</speed>
  <fix>3d</fix>
</trkpt>
<trkpt lat="-27.2710789" lon="151.2902118">
  <ele>542.79</ele>
  <time>2026-09-01T19:56:02Z</time>
  <course>170.86</course>
  <speed>25.619377431936165</speed>
  <fix>3d</fix>
</trkpt>
<trkpt lat="-27.2710349" lon="151.2902057">
  <ele>543.07</ele>
  <time>2026-09-01T19:56:02Z</time>
  <course>171.61</course>
  <speed>25.69</speed>
  <fix>3d</fix>
</trkpt>
<trkpt lat="-27.2711018" lon="151.290215">
  <ele>542.65</ele>
  <time>2026-09-01T19:56:02Z</time>
  <course>171.52</course>
  <speed>25.620402026510046</speed>
  <fix>3d</fix>
</trkpt>
<trkpt lat="-27.2710349" lon="151.2902057">
  <ele>543.07</ele>
  <time>2026-09-01T19:56:02Z</time>
  <course>171.61</course>
  <speed>25.69</speed>
  <fix>3d</fix>
</trkpt>
<trkpt lat="-27.2711248" lon="151.2902179">
  <ele>542.49</ele>
  <time>2026-09-01T19:56:02Z</time>
  <course>172.15</course>
  <speed>25.6247692672539</speed>
  <fix>3d</fix>
</trkpt>
<trkpt lat="-27.2710807" lon="151.2902127">
  <ele>542.86</ele>
  <time>2026-09-01T19:56:02Z</time>
  <course>172.8</course>
  <speed>25.68</speed>
  <fix>3d</fix>
</trkpt>
<trkpt lat="-27.2711478" lon="151.2902206">
  <ele>542.31</ele>
  <time>2026-09-01T19:56:02Z</time>
  <course>172.72</course>
  <speed>25.622255950637914</speed>
  <fix>3d</fix>
</trkpt>
<trkpt lat="-27.2710807" lon="151.2902127">
  <ele>542.86</ele>
  <time>2026-09-01T19:56:02Z</time>
  <course>172.8</course>
  <speed>25.68</speed>
  <fix>3d</fix>
</trkpt>
<trkpt lat="-27.2711708" lon="151.2902231">
  <ele>542.11</ele>
  <time>2026-09-01T19:56:02Z</time>
  <course>173.25</course>
  <speed>25.623434586331317</speed>
  <fix>3d</fix>
</trkpt>
<trkpt lat="-27.2711265" lon="151.2902187">
  <ele>542.57</ele>
  <time>2026-09-01T19:56:02Z</time>
  <course>173.85</course>
  <speed>25.67</speed>
  <fix>3d</fix>
</trkpt>
<trkpt lat="-27.2711938" lon="151.2902254">
  <ele>541.89</ele>
  <time>2026-09-01T19:56:02Z</time>
  <course>173.77</course>
  <speed>25.62618972847895</speed>
  <fix>3d</fix>
</trkpt>
<trkpt lat="-27.2711265" lon="151.2902187">
  <ele>542.57</ele>
  <time>2026-09-01T19:56:02Z</time>
  <course>173.85</course>
  <speed>25.67</speed>
  <fix>3d</fix>
</trkpt>
<trkpt lat="-27.2712168" lon="151.2902275">
  <ele>541.65</ele>
  <time>2026-09-01T19:56:02Z</time>
  <course>174.26</course>
  <speed>25.622039341160963</speed>
  <fix>3d</fix>
</trkpt>
<trkpt lat="-27.2711723" lon="151.2902238">
  <ele>542.19</ele>
  <time>2026-09-01T19:56:02Z</time>
  <course>174.81</course>
  <speed>25.66</speed>
  <fix>3d</fix>
</trkpt>
<trkpt lat="-27.2712398" lon="151.2902294">
  <ele>541.39</ele>
  <time>2026-09-01T19:56:02Z</time>
  <course>174.77</course>
  <speed>25.62845684000502</speed>
  <fix>3d</fix>
</trkpt>
<trkpt lat="-27.2711723" lon="151.2902238">
  <ele>542.19</ele>
  <time>2026-09-01T19:56:02Z</time>
  <course>174.81</course>
  <speed>25.66</speed>
  <fix>3d</fix>
</trkpt>
<trkpt lat="-27.2712629" lon="151.2902311">
  <ele>541.12</ele>
  <time>2026-09-01T19:56:02Z</time>
  <course>175.23</course>
  <speed>25.64627848246213</speed>
  <fix>3d</fix>
</trkpt>
<trkpt lat="-27.2712182" lon="151.2902281">
  <ele>541.74</ele>
  <time>2026-09-01T19:56:02Z</time>
  <course>175.69</course>
  <speed>25.66</speed>
  <fix>3d</fix>
</trkpt>
<trkpt lat="-27.2712859" lon="151.2902326">
  <ele>540.84</ele>
  <time>2026-09-01T19:56:02Z</time>
  <course>175.67</course>
  <speed>25.656071406199352</speed>
  <fix>3d</fix>
</trkpt>
<trkpt lat="-27.2712182" lon="151.2902281">
  <ele>541.74</ele>
  <time>2026-09-01T19:56:02Z</time>
  <course>175.69</course>
  <speed>25.66</speed>
  <fix>3d</fix>
</trkpt>
<trkpt lat="-27.271309" lon="151.290234">
  <ele>540.54</ele>
  <time>2026-09-01T19:56:02Z</time>
  <course>176.16</course>
  <speed>25.677589450725314</speed>
  <fix>3d</fix>
</trkpt>
<trkpt lat="-27.2712642" lon="151.2902316">
  <ele>541.22</ele>
  <time>2026-09-01T19:56:02Z</time>
  <course>176.53</course>
  <speed>25.67</speed>
  <fix>3d</fix>
</trkpt>
<trkpt lat="-27.2713321" lon="151.2902351">
  <ele>540.24</ele>
  <time>2026-09-01T19:56:02Z</time>
  <course>176.62</course>
  <speed>25.68986181356373</speed>
  <fix>3d</fix>
</trkpt>
<trkpt lat="-27.2712642" lon="151.2902316">
  <ele>541.22</ele>
  <time>2026-09-01T19:56:02Z</time>
  <course>176.53</course>
  <speed>25.67</speed>
  <fix>3d</fix>
</trkpt>
<trkpt lat="-27.2713552" lon="151.2902361">
  <ele>539.92</ele>
  <time>2026-09-01T19:56:02Z</time>
  <course>177.09</course>
  <speed>25.704058045374857</speed>
  <fix>3d</fix>
</trkpt>
<trkpt lat="-27.2713103" lon="151.2902343">
  <ele>540.65</ele>
  <time>2026-09-01T19:56:02Z</time>
  <course>177.33</course>
  <speed>25.69</speed>
  <fix>3d</fix>
</trkpt>
<trkpt lat="-27.2713781" lon="151.2902369">
  <ele>539.6</ele>
  <time>2026-09-01T19:56:02Z</time>
  <course>177.47</course>
  <speed>25.729253778529998</speed>
  <fix>3d</fix>
</trkpt>
<trkpt lat="-27.2713103" lon="151.2902343">
  <ele>540.65</ele>
  <time>2026-09-01T19:56:02Z</time>
  <course>177.33</course>
  <speed>25.69</speed>
  <fix>3d</fix>
</trkpt>
<trkpt lat="-27.2714013" lon="151.2902375">
  <ele>539.28</ele>
  <time>2026-09-01T19:56:02Z</time>
  <course>177.87</course>
  <speed>25.755661513539117</speed>
  <fix>3d</fix>
</trkpt>
<trkpt lat="-27.2713564" lon="151.2902364">
  <ele>540.04</ele>
  <time>2026-09-01T19:56:02Z</time>
  <course>178.09</course>
  <speed>25.72</speed>
  <fix>3d</fix>
</trkpt>
<trkpt lat="-27.2714245" lon="151.290238">
  <ele>538.95</ele>
  <time>2026-09-01T19:56:02Z</time>
  <course>178.26</course>
  <speed>25.772950936980422</speed>
  <fix>3d</fix>
</trkpt>
<trkpt lat="-27.2713564" lon="151.2902364">
  <ele>540.04</ele>
  <time>2026-09-01T19:56:02Z</time>
  <course>178.09</course>
  <speed>25.72</speed>
  <fix>3d</fix>
</trkpt>
<trkpt lat="-27.2714477" lon="151.2902384">
  <ele>538.61</ele>
  <time>2026-09-01T19:56:02Z</time>
  <course>178.6</course>
  <speed>25.80131004425938</speed>
  <fix>3d</fix>
</trkpt>
<trkpt lat="-27.2714026" lon="151.2902378">
  <ele>539.4</ele>
  <time>2026-09-01T19:56:02Z</time>
  <course>178.79</course>
  <speed>25.76</speed>
  <fix>3d</fix>
</trkpt>
<trkpt lat="-27.2714711" lon="151.2902386">
  <ele>538.27</ele>
  <time>2026-09-01T19:56:02Z</time>
  <course>178.93</course>
  <speed>25.82032726361151</speed>
  <fix>3d</fix>
</trkpt>
<trkpt lat="-27.2714026" lon="151.2902378">
  <ele>539.4</ele>
  <time>2026-09-01T19:56:02Z</time>
  <course>178.79</course>
  <speed>25.76</speed>
  <fix>3d</fix>
</trkpt>
<trkpt lat="-27.2714943" lon="151.2902387">
  <ele>537.92</ele>
  <time>2026-09-01T19:56:02Z</time>
  <course>179.27</course>
  <speed>25.840001934984446</speed>
  <fix>3d</fix>
</trkpt>
<trkpt lat="-27.2714491" lon="151.2902386">
  <ele>538.74</ele>
  <time>2026-09-01T19:56:02Z</time>
  <course>179.42</course>
  <speed>25.8</speed>
  <fix>3d</fix>
</trkpt>
<trkpt lat="-27.2715177" lon="151.2902387">
  <ele>537.57</ele>
  <time>2026-09-01T19:56:02Z</time>
  <course>179.56</course>
  <speed>25.86015661205477</speed>
  <fix>3d</fix>
</trkpt>
<trkpt lat="-27.2714491" lon="151.2902386">
  <ele>538.74</ele>
  <time>2026-09-01T19:56:02Z</time>
  <course>179.42</course>
  <speed>25.8</speed>
  <fix>3d</fix>
</trkpt>
<trkpt lat="-27.271541" lon="151.2902385">
  <ele>537.21</ele>
  <time>2026-09-01T19:56:02Z</time>
  <course>179.84</course>
  <speed>25.880772785989215</speed>
  <fix>3d</fix>
</trkpt>
<trkpt lat="-27.2714956" lon="151.2902389">
  <ele>538.06</ele>
  <time>2026-09-01T19:56:02Z</time>
  <course>179.97</course>
  <speed>25.84</speed>
  <fix>3d</fix>
</trkpt>
<trkpt lat="-27.2715643" lon="151.2902383">
  <ele>536.85</ele>
  <time>2026-09-01T19:56:02Z</time>
  <course>180.1</course>
  <speed>25.891738064486905</speed>
  <fix>3d</fix>
</trkpt>
<trkpt lat="-27.2714956" lon="151.2902389">
  <ele>538.06</ele>
  <time>2026-09-01T19:56:02Z</time>
  <course>179.97</course>
  <speed>25.84</speed>
  <fix>3d</fix>
</trkpt>
<trkpt lat="-27.2715876" lon="151.2902379">
  <ele>536.49</ele>
  <time>2026-09-01T19:56:02Z</time>
  <course>180.33</course>
  <speed>25.913087427012627</speed>
  <fix>3d</fix>
</trkpt>
<trkpt lat="-27.271542" lon="151.2902388">
  <ele>537.37</ele>
  <time>2026-09-01T19:56:02Z</time>
  <course>180.47</course>
  <speed>25.88</speed>
  <fix>3d</fix>
</trkpt>
<trkpt lat="-27.2716109" lon="151.2902376">
  <ele>536.13</ele>
  <time>2026-09-01T19:56:02Z</time>
  <course>180.57</course>
  <speed>25.92463114491699</speed>
  <fix>3d</fix>
</trkpt>
<trkpt lat="-27.271542" lon="151.2902388">
  <ele>537.37</ele>
  <time>2026-09-01T19:56:02Z</time>
  <course>180.47</course>
  <speed>25.88</speed>
  <fix>3d</fix>
</trkpt>
<trkpt lat="-27.2716342" lon="151.2902371">
  <ele>535.76</ele>
  <time>2026-09-01T19:56:02Z</time>
  <course>180.77</course>
  <speed>25.93626418742684</speed>
  <fix>3d</fix>
</trkpt>
<trkpt lat="-27.2715885" lon="151.2902381">
  <ele>536.66</ele>
  <time>2026-09-01T19:56:02Z</time>
  <course>180.9</course>
  <speed>25.91</speed>
  <fix>3d</fix>
</trkpt>
<trkpt lat="-27.2716575" lon="151.2902364">
  <ele>535.38</ele>
  <time>2026-09-01T19:56:02Z</time>
  <course>181.01</course>
  <speed>25.947893941512866</speed>
  <fix>3d</fix>
</trkpt>
<trkpt lat="-27.2715885" lon="151.2902381">
  <ele>536.66</ele>
  <time>2026-09-01T19:56:02Z</time>
  <course>180.9</course>
  <speed>25.91</speed>
  <fix>3d</fix>
</trkpt>
<trkpt lat="-27.2716808" lon="151.2902358">
  <ele>535.01</ele>
  <time>2026-09-01T19:56:02Z</time>
  <course>181.2</course>
  <speed>25.959986517716064</speed>
  <fix>3d</fix>
</trkpt>
<trkpt lat="-27.2716351" lon="151.2902371">
  <ele>535.93</ele>
  <time>2026-09-01T19:56:02Z</time>
  <course>181.27</course>
  <speed>25.93</speed>
  <fix>3d</fix>
</trkpt>
<trkpt lat="-27.2717041" lon="151.290235">
  <ele>534.63</ele>
  <time>2026-09-01T19:56:02Z</time>
  <course>181.38</course>
  <speed>25.961719896801906</speed>
  <fix>3d</fix>
</trkpt>
<trkpt lat="-27.2716351" lon="151.2902371">
  <ele>535.93</ele>
  <time>2026-09-01T19:56:02Z</time>
  <course>181.27</course>
  <speed>25.93</speed>
  <fix>3d</fix>
</trkpt>
<trkpt lat="-27.2717274" lon="151.2902342">
  <ele>534.25</ele>
  <time>2026-09-01T19:56:02Z</time>
  <course>181.54</course>
  <speed>25.973586583296502</speed>
  <fix>3d</fix>
</trkpt>
<trkpt lat="-27.2716817" lon="151.2902358">
  <ele>535.19</ele>
  <time>2026-09-01T19:56:02Z</time>
  <course>181.6</course>
  <speed>25.95</speed>
  <fix>3d</fix>
</trkpt>
<trkpt lat="-27.2717507" lon="151.2902333">
  <ele>533.87</ele>
  <time>2026-09-01T19:56:02Z</time>
  <course>181.68</course>
  <speed>25.975596239547613</speed>
  <fix>3d</fix>
</trkpt>
<trkpt lat="-27.2716817" lon="151.2902358">
  <ele>535.19</ele>
  <time>2026-09-01T19:56:02Z</time>
  <course>181.6</course>
  <speed>25.95</speed>
  <fix>3d</fix>
</trkpt>
<trkpt lat="-27.2717741" lon="151.2902324">
  <ele>533.49</ele>
  <time>2026-09-01T19:56:02Z</time>
  <course>181.82</course>
  <speed>25.9873700092949</speed>
  <fix>3d</fix>
</trkpt>
<trkpt lat="-27.2717283" lon="151.2902342">
  <ele>534.44</ele>
  <time>2026-09-01T19:56:02Z</time>
  <course>181.89</course>
  <speed>25.97</speed>
  <fix>3d</fix>
</trkpt>
<trkpt lat="-27.2717974" lon="151.2902314">
  <ele>533.1</ele>
  <time>2026-09-01T19:56:02Z</time>
  <course>181.94</course>
  <speed>25.989245852852292</speed>
  <fix>3d</fix>
</trkpt>
<trkpt lat="-27.2717283" lon="151.2902342">
  <ele>534.44</ele>
  <time>2026-09-01T19:56:02Z</time>
  <course>181.89</course>
  <speed>25.97</speed>
  <fix>3d</fix>
</trkpt>
<trkpt lat="-27.2718207" lon="151.2902304">
  <ele>532.71</ele>
  <time>2026-09-01T19:56:02Z</time>
  <course>182.07</course>
  <speed>25.99081568554554</speed>
  <fix>3d</fix>
</trkpt>
<trkpt lat="-27.2717748" lon="151.2902324">
  <ele>533.69</ele>
  <time>2026-09-01T19:56:02Z</time>
  <course>182.12</course>
  <speed>25.98</speed>
  <fix>3d</fix>
</trkpt>
<trkpt lat="-27.271844" lon="151.2902293">
  <ele>532.33</ele>
  <time>2026-09-01T19:56:02Z</time>
  <course>182.2</course>
  <speed>25.992446979843972</speed>
  <fix>3d</fix>
</trkpt>
<trkpt lat="-27.2717748" lon="151.2902324">
  <ele>533.69</ele>
  <time>2026-09-01T19:56:02Z</time>
  <course>182.12</course>
  <speed>25.98</speed>
  <fix>3d</fix>
</trkpt>
<trkpt lat="-27.2718672" lon="151.2902282">
  <ele>531.94</ele>
  <time>2026-09-01T19:56:02Z</time>
  <course>182.28</course>
  <speed>25.983719903046985</speed>
  <fix>3d</fix>
</trkpt>
<trkpt lat="-27.2718215" lon="151.2902303">
  <ele>532.92</ele>
  <time>2026-09-01T19:56:02Z</time>
  <course>182.31</course>
  <speed>25.99</speed>
  <fix>3d</fix>
</trkpt>
<trkpt lat="-27.2718905" lon="151.2902271">
  <ele>531.55</ele>
  <time>2026-09-01T19:56:02Z</time>
  <course>182.35</course>
  <speed>25.98501876081678</speed>
  <fix>3d</fix>
</trkpt>
<trkpt lat="-27.2718215" lon="151.2902303">
  <ele>532.92</ele>
  <time>2026-09-01T19:56:02Z</time>
  <course>182.31</course>
  <speed>25.99</speed>
  <fix>3d</fix>
</trkpt>
<trkpt lat="-27.2719138" lon="151.2902259">
  <ele>531.16</ele>
  <time>2026-09-01T19:56:02Z</time>
  <course>182.47</course>
  <speed>25.976362331935547</speed>
  <fix>3d</fix>
</trkpt>
<trkpt lat="-27.2718682" lon="151.2902282">
  <ele>532.15</ele>
  <time>2026-09-01T19:56:02Z</time>
  <course>182.47</course>
  <speed>25.99</speed>
  <fix>3d</fix>
</trkpt>
<trkpt lat="-27.2719371" lon="151.2902247">
  <ele>530.77</ele>
  <time>2026-09-01T19:56:02Z</time>
  <course>182.56</course>
  <speed>25.967281336327837</speed>
  <fix>3d</fix>
</trkpt>
<trkpt lat="-27.2718682" lon="151.2902282">
  <ele>532.15</ele>
  <time>2026-09-01T19:56:02Z</time>
  <course>182.47</course>
  <speed>25.99</speed>
  <fix>3d</fix>
</trkpt>
<trkpt lat="-27.2719606" lon="151.2902235">
  <ele>530.37</ele>
  <time>2026-09-01T19:56:02Z</time>
  <course>182.61</course>
  <speed>25.958684481306058</speed>
  <fix>3d</fix>
</trkpt>
<trkpt lat="-27.2719149" lon="151.2902259">
  <ele>531.37</ele>
  <time>2026-09-01T19:56:02Z</time>
  <course>182.6</course>
  <speed>25.98</speed>
  <fix>3d</fix>
</trkpt>
<trkpt lat="-27.2719839" lon="151.2902222">
  <ele>529.97</ele>
  <time>2026-09-01T19:56:02Z</time>
  <course>182.7</course>
  <speed>25.949643542831183</speed>
  <fix>3d</fix>
</trkpt>
<trkpt lat="-27.2719149" lon="151.2902259">
  <ele>531.37</ele>
  <time>2026-09-01T19:56:02Z</time>
  <course>182.6</course>
  <speed>25.98</speed>
  <fix>3d</fix>
</trkpt>
<trkpt lat="-27.2720071" lon="151.290221">
  <ele>529.56</ele>
  <time>2026-09-01T19:56:02Z</time>
  <course>182.73</course>
  <speed>25.94013492640314</speed>
  <fix>3d</fix>
</trkpt>
<trkpt lat="-27.2719616" lon="151.2902234">
  <ele>530.58</ele>
  <time>2026-09-01T19:56:02Z</time>
  <course>182.7</course>
  <speed>25.96</speed>
  <fix>3d</fix>
</trkpt>
<trkpt lat="-27.2720312" lon="151.2902196">
  <ele>529.14</ele>
  <time>2026-09-01T19:56:02Z</time>
  <course>182.77</course>
  <speed>25.92113037658659</speed>
  <fix>3d</fix>
</trkpt>
<trkpt lat="-27.2720081" lon="151.2902209">
  <ele>529.78</ele>
  <time>2026-09-01T19:56:02Z</time>
  <course>182.78</course>
  <speed>25.94</speed>
  <fix>3d</fix>
</trkpt>
<trkpt lat="-27.2720543" lon="151.2902184">
  <ele>528.74</ele>
  <time>2026-09-01T19:56:02Z</time>
  <course>182.88</course>
  <speed>25.911634452500287</speed>
  <fix>3d</fix>
</trkpt>
<trkpt lat="-27.2720081" lon="151.2902209">
  <ele>529.78</ele>
  <time>2026-09-01T19:56:02Z</time>
  <course>182.78</course>
  <speed>25.94</speed>
  <fix>3d</fix>
</trkpt>
<trkpt lat="-27.2720775" lon="151.2902171">
  <ele>528.33</ele>
  <time>2026-09-01T19:56:02Z</time>
  <course>182.89</course>
  <speed>25.892155182603087</speed>
  <fix>3d</fix>
</trkpt>
<trkpt lat="-27.2720546" lon="151.2902183">
  <ele>528.97</ele>
  <time>2026-09-01T19:56:02Z</time>
  <course>182.84</course>
  <speed>25.91</speed>
  <fix>3d</fix>
</trkpt>
<trkpt lat="-27.2721007" lon="151.2902157">
  <ele>527.92</ele>
  <time>2026-09-01T19:56:02Z</time>
  <course>182.9</course>
  <speed>25.872680572372087</speed>
  <fix>3d</fix>
</trkpt>
<trkpt lat="-27.2720546" lon="151.2902183">
  <ele>528.97</ele>
  <time>2026-09-01T19:56:02Z</time>
  <course>182.84</course>
  <speed>25.91</speed>
  <fix>3d</fix>
</trkpt>
<trkpt lat="-27.2721239" lon="151.2902144">
  <ele>527.5</ele>
  <time>2026-09-01T19:56:02Z</time>
  <course>182.93</course>
  <speed>25.863197791456493</speed>
  <fix>3d</fix>
</trkpt>
<trkpt lat="-27.2721011" lon="151.2902156">
  <ele>528.15</ele>
  <time>2026-09-01T19:56:02Z</time>
  <course>182.89</course>
  <speed>25.88</speed>
  <fix>3d</fix>
</trkpt>
<trkpt lat="-27.2721474" lon="151.2902131">
  <ele>527.08</ele>
  <time>2026-09-01T19:56:02Z</time>
  <course>182.96</course>
  <speed>25.843732315592497</speed>
  <fix>3d</fix>
</trkpt>
<trkpt lat="-27.2721011" lon="151.2902156">
  <ele>528.15</ele>
  <time>2026-09-01T19:56:02Z</time>
  <course>182.89</course>
  <speed>25.88</speed>
  <fix>3d</fix>
</trkpt>
<trkpt lat="-27.27217" lon="151.2902118">
  <ele>526.67</ele>
  <time>2026-09-01T19:56:02Z</time>
  <course>183.01</course>
  <speed>25.824271528931845</speed>
  <fix>3d</fix>
</trkpt>
<trkpt lat="-27.2721011" lon="151.2902156">
  <ele>528.15</ele>
  <time>2026-09-01T19:56:02Z</time>
  <course>182.89</course>
  <speed>25.88</speed>
  <fix>3d</fix>
</trkpt>
<trkpt lat="-27.2721931" lon="151.2902104">
  <ele>526.25</ele>
  <time>2026-09-01T19:56:02Z</time>
  <course>183.05</course>
  <speed>25.81428480512292</speed>
  <fix>3d</fix>
</trkpt>
<trkpt lat="-27.2721475" lon="151.290213">
  <ele>527.32</ele>
  <time>2026-09-01T19:56:02Z</time>
  <course>182.92</course>
  <speed>25.85</speed>
  <fix>3d</fix>
</trkpt>
<trkpt lat="-27.2722163" lon="151.2902091">
  <ele>525.83</ele>
  <time>2026-09-01T19:56:02Z</time>
  <course>183.06</course>
  <speed>25.794828939149802</speed>
  <fix>3d</fix>
</trkpt>
<trkpt lat="-27.2721475" lon="151.290213">
  <ele>527.32</ele>
  <time>2026-09-01T19:56:02Z</time>
  <course>182.92</course>
  <speed>25.85</speed>
  <fix>3d</fix>
</trkpt>
<trkpt lat="-27.2722394" lon="151.2902077">
  <ele>525.4</ele>
  <time>2026-09-01T19:56:02Z</time>
  <course>183.05</course>
  <speed>25.774855964679997</speed>
  <fix>3d</fix>
</trkpt>
<trkpt lat="-27.2721938" lon="151.2902103">
  <ele>526.49</ele>
  <time>2026-09-01T19:56:02Z</time>
  <course>182.95</course>
  <speed>25.81</speed>
  <fix>3d</fix>
</trkpt>
<trkpt lat="-27.2722625" lon="151.2902063">
  <ele>524.98</ele>
  <time>2026-09-01T19:56:02Z</time>
  <course>183.05</course>
  <speed>25.74489658165284</speed>
  <fix>3d</fix>
</trkpt>
<trkpt lat="-27.2721938" lon="151.2902103">
  <ele>526.49</ele>
  <time>2026-09-01T19:56:02Z</time>
  <course>182.95</course>
  <speed>25.81</speed>
  <fix>3d</fix>
</trkpt>
<trkpt lat="-27.2722856" lon="151.290205">
  <ele>524.55</ele>
  <time>2026-09-01T19:56:02Z</time>
  <course>183.06</course>
  <speed>25.724923712228964</speed>
  <fix>3d</fix>
</trkpt>
<trkpt lat="-27.2722401" lon="151.2902076">
  <ele>525.64</ele>
  <time>2026-09-01T19:56:02Z</time>
  <course>182.97</course>
  <speed>25.77</speed>
  <fix>3d</fix>
</trkpt>
<trkpt lat="-27.2723087" lon="151.2902036">
  <ele>524.11</ele>
  <time>2026-09-01T19:56:02Z</time>
  <course>183.07</course>
  <speed>25.704950884994897</speed>
  <fix>3d</fix>
</trkpt>
<trkpt lat="-27.2722401" lon="151.2902076">
  <ele>525.64</ele>
  <time>2026-09-01T19:56:02Z</time>
  <course>182.97</course>
  <speed>25.77</speed>
  <fix>3d</fix>
</trkpt>
<trkpt lat="-27.2723316" lon="151.2902023">
  <ele>523.67</ele>
  <time>2026-09-01T19:56:02Z</time>
  <course>183.08</course>
  <speed>25.684978100049065</speed>
  <fix>3d</fix>
</trkpt>
<trkpt lat="-27.2722863" lon="151.2902049">
  <ele>524.79</ele>
  <time>2026-09-01T19:56:02Z</time>
  <course>182.97</course>
  <speed>25.73</speed>
  <fix>3d</fix>
</trkpt>
<trkpt lat="-27.2723547" lon="151.2902009">
  <ele>523.23</ele>
  <time>2026-09-01T19:56:03Z</time>
  <course>183.08</course>
  <speed>25.664485188680487</speed>
  <fix>3d</fix>
</trkpt>
<trkpt lat="-27.2722863" lon="151.2902049">
  <ele>524.79</ele>
  <time>2026-09-01T19:56:03Z</time>
  <course>182.97</course>
  <speed>25.73</speed>
  <fix>3d</fix>
</trkpt>
<trkpt lat="-27.2723778" lon="151.2901996">
  <ele>522.79</ele>
  <time>2026-09-01T19:56:03Z</time>
  <course>183.09</course>
  <speed>25.654498630844454</speed>
  <fix>3d</fix>
</trkpt>
<trkpt lat="-27.2723324" lon="151.2902022">
  <ele>523.91</ele>
  <time>2026-09-01T19:56:03Z</time>
  <course>182.96</course>
  <speed>25.69</speed>
  <fix>3d</fix>
</trkpt>
<trkpt lat="-27.2724008" lon="151.2901982">
  <ele>522.34</ele>
  <time>2026-09-01T19:56:03Z</time>
  <course>183.09</course>
  <speed>25.634525546613887</speed>
  <fix>3d</fix>
</trkpt>
<trkpt lat="-27.2723324" lon="151.2902022">
  <ele>523.91</ele>
  <time>2026-09-01T19:56:03Z</time>
  <course>182.96</course>
  <speed>25.69</speed>
  <fix>3d</fix>
</trkpt>
<trkpt lat="-27.2724238" lon="151.2901969">
  <ele>521.88</ele>
  <time>2026-09-01T19:56:03Z</time>
  <course>183.1</course>
  <speed>25.614552504387035</speed>
  <fix>3d</fix>
</trkpt>
<trkpt lat="-27.2723786" lon="151.2901996">
  <ele>523.03</ele>
  <time>2026-09-01T19:56:03Z</time>
  <course>182.95</course>
  <speed>25.65</speed>
  <fix>3d</fix>
</trkpt>
<trkpt lat="-27.272447" lon="151.2901955">
  <ele>521.42</ele>
  <time>2026-09-01T19:56:03Z</time>
  <course>183.13</course>
  <speed>25.604565999055716</speed>
  <fix>3d</fix>
</trkpt>
<trkpt lat="-27.2723786" lon="151.2901996">
  <ele>523.03</ele>
  <time>2026-09-01T19:56:03Z</time>
  <course>182.95</course>
  <speed>25.65</speed>
  <fix>3d</fix>
</trkpt>
<trkpt lat="-27.27247" lon="151.2901942">
  <ele>520.96</ele>
  <time>2026-09-01T19:56:03Z</time>
  <course>183.11</course>
  <speed>25.584075124967875</speed>
  <fix>3d</fix>
</trkpt>
<trkpt lat="-27.2724246" lon="151.2901969">
  <ele>522.13</ele>
  <time>2026-09-01T19:56:03Z</time>
  <course>182.95</course>
  <speed>25.61</speed>
  <fix>3d</fix>
</trkpt>
<trkpt lat="-27.272493" lon="151.2901929">
  <ele>520.5</ele>
  <time>2026-09-01T19:56:03Z</time>
  <course>183.08</course>
  <speed>25.564101783555785</speed>
  <fix>3d</fix>
</trkpt>
<trkpt lat="-27.2724246" lon="151.2901969">
  <ele>522.13</ele>
  <time>2026-09-01T19:56:03Z</time>
  <course>182.95</course>
  <speed>25.61</speed>
  <fix>3d</fix>
</trkpt>
<trkpt lat="-27.2725168" lon="151.2901915">
  <ele>520.02</ele>
  <time>2026-09-01T19:56:03Z</time>
  <course>183.04</course>
  <speed>25.554115128487624</speed>
  <fix>3d</fix>
</trkpt>
<trkpt lat="-27.2724705" lon="151.2901942">
  <ele>521.22</ele>
  <time>2026-09-01T19:56:03Z</time>
  <course>182.94</course>
  <speed>25.57</speed>
  <fix>3d</fix>
</trkpt>
<trkpt lat="-27.2725395" lon="151.2901902">
  <ele>519.56</ele>
  <time>2026-09-01T19:56:03Z</time>
  <course>183.05</course>
  <speed>25.533626847747268</speed>
  <fix>3d</fix>
</trkpt>
<trkpt lat="-27.2725164" lon="151.2901916">
  <ele>520.3</ele>
  <time>2026-09-01T19:56:03Z</time>
  <course>182.92</course>
  <speed>25.54</speed>
  <fix>3d</fix>
</trkpt>
<trkpt lat="-27.2725624" lon="151.2901889">
  <ele>519.09</ele>
  <time>2026-09-01T19:56:03Z</time>
  <course>183.05</course>
  <speed>25.5231287267059</speed>
  <fix>3d</fix>
</trkpt>
<trkpt lat="-27.2725164" lon="151.2901916">
  <ele>520.3</ele>
  <time>2026-09-01T19:56:03Z</time>
  <course>182.92</course>
  <speed>25.54</speed>
  <fix>3d</fix>
</trkpt>
<trkpt lat="-27.2725853" lon="151.2901876">
  <ele>518.62</ele>
  <time>2026-09-01T19:56:03Z</time>
  <course>183.02</course>
  <speed>25.503154706820098</speed>
  <fix>3d</fix>
</trkpt>
<trkpt lat="-27.2725621" lon="151.290189">
  <ele>519.37</ele>
  <time>2026-09-01T19:56:03Z</time>
  <course>182.89</course>
  <speed>25.51</speed>
  <fix>3d</fix>
</trkpt>
<trkpt lat="-27.2726082" lon="151.2901863">
  <ele>518.15</ele>
  <time>2026-09-01T19:56:03Z</time>
  <course>183.02</course>
  <speed>25.48267254429959</speed>
  <fix>3d</fix>
</trkpt>
<trkpt lat="-27.2725621" lon="151.290189">
  <ele>519.37</ele>
  <time>2026-09-01T19:56:03Z</time>
  <course>182.89</course>
  <speed>25.51</speed>
  <fix>3d</fix>
</trkpt>
<trkpt lat="-27.2726313" lon="151.290185">
  <ele>517.67</ele>
  <time>2026-09-01T19:56:03Z</time>
  <course>183.03</course>
  <speed>25.472180903880215</speed>
  <fix>3d</fix>
</trkpt>
<trkpt lat="-27.2726079" lon="151.2901863">
  <ele>518.43</ele>
  <time>2026-09-01T19:56:03Z</time>
  <course>182.87</course>
  <speed>25.47</speed>
  <fix>3d</fix>
</trkpt>
<trkpt lat="-27.2726542" lon="151.2901837">
  <ele>517.2</ele>
  <time>2026-09-01T19:56:03Z</time>
  <course>183.07</course>
  <speed>25.452206191212582</speed>
  <fix>3d</fix>
</trkpt>
<trkpt lat="-27.2726079" lon="151.2901863">
  <ele>518.43</ele>
  <time>2026-09-01T19:56:03Z</time>
  <course>182.87</course>
  <speed>25.47</speed>
  <fix>3d</fix>
</trkpt>
<trkpt lat="-27.272677" lon="151.2901824">
  <ele>516.72</ele>
  <time>2026-09-01T19:56:03Z</time>
  <course>183.09</course>
  <speed>25.44221884977802</speed>
  <fix>3d</fix>
</trkpt>
<trkpt lat="-27.2726536" lon="151.2901838">
  <ele>517.49</ele>
  <time>2026-09-01T19:56:03Z</time>
  <course>182.85</course>
  <speed>25.45</speed>
  <fix>3d</fix>
</trkpt>
<trkpt lat="-27.2726998" lon="151.2901811">
  <ele>516.25</ele>
  <time>2026-09-01T19:56:03Z</time>
  <course>183.04</course>
  <speed>25.4322315182919</speed>
  <fix>3d</fix>
</trkpt>
<trkpt lat="-27.2726536" lon="151.2901838">
  <ele>517.49</ele>
  <time>2026-09-01T19:56:03Z</time>
  <course>182.85</course>
  <speed>25.45</speed>
  <fix>3d</fix>
</trkpt>
<trkpt lat="-27.2727226" lon="151.2901798">
  <ele>515.77</ele>
  <time>2026-09-01T19:56:03Z</time>
  <course>183.01</course>
  <speed>25.42174266253201</speed>
  <fix>3d</fix>
</trkpt>
<trkpt lat="-27.2726992" lon="151.2901812">
  <ele>516.54</ele>
  <time>2026-09-01T19:56:03Z</time>
  <course>182.83</course>
  <speed>25.42</speed>
  <fix>3d</fix>
</trkpt>
<trkpt lat="-27.2727454" lon="151.2901785">
  <ele>515.3</ele>
  <time>2026-09-01T19:56:03Z</time>
  <course>182.99</course>
  <speed>25.411755153865307</speed>
  <fix>3d</fix>
</trkpt>
<trkpt lat="-27.2726992" lon="151.2901812">
  <ele>516.54</ele>
  <time>2026-09-01T19:56:03Z</time>
  <course>182.83</course>
  <speed>25.42</speed>
  <fix>3d</fix>
</trkpt>
<trkpt lat="-27.2727682" lon="151.2901773">
  <ele>514.83</ele>
  <time>2026-09-01T19:56:03Z</time>
  <course>182.96</course>
  <speed>25.401269653306702</speed>
  <fix>3d</fix>
</trkpt>
<trkpt lat="-27.2727448" lon="151.2901787">
  <ele>515.59</ele>
  <time>2026-09-01T19:56:03Z</time>
  <course>182.81</course>
  <speed>25.4</speed>
  <fix>3d</fix>
</trkpt>
<trkpt lat="-27.2727905" lon="151.290176">
  <ele>514.36</ele>
  <time>2026-09-01T19:56:03Z</time>
  <course>182.98</course>
  <speed>25.391281968423726</speed>
  <fix>3d</fix>
</trkpt>
<trkpt lat="-27.2727448" lon="151.2901787">
  <ele>515.59</ele>
  <time>2026-09-01T19:56:03Z</time>
  <course>182.81</course>
  <speed>25.4</speed>
  <fix>3d</fix>
</trkpt>
<trkpt lat="-27.272813" lon="151.2901748">
  <ele>513.89</ele>
  <time>2026-09-01T19:56:03Z</time>
  <course>182.99</course>
  <speed>25.3807998297926</speed>
  <fix>3d</fix>
</trkpt>
<trkpt lat="-27.2727448" lon="151.2901787">
  <ele>515.59</ele>
  <time>2026-09-01T19:56:03Z</time>
  <course>182.81</course>
  <speed>25.4</speed>
  <fix>3d</fix>
</trkpt>
<trkpt lat="-27.2728358" lon="151.2901736">
  <ele>513.42</ele>
  <time>2026-09-01T19:56:03Z</time>
  <course>182.97</course>
  <speed>25.37081196966309</speed>
  <fix>3d</fix>
</trkpt>
<trkpt lat="-27.2727903" lon="151.2901762">
  <ele>514.65</ele>
  <time>2026-09-01T19:56:03Z</time>
  <course>182.79</course>
  <speed>25.38</speed>
  <fix>3d</fix>
</trkpt>
<trkpt lat="-27.2728585" lon="151.2901723">
  <ele>512.95</ele>
  <time>2026-09-01T19:56:03Z</time>
  <course>182.95</course>
  <speed>25.360333199703824</speed>
  <fix>3d</fix>
</trkpt>
<trkpt lat="-27.2727903" lon="151.2901762">
  <ele>514.65</ele>
  <time>2026-09-01T19:56:03Z</time>
  <course>182.79</course>
  <speed>25.38</speed>
  <fix>3d</fix>
</trkpt>
<trkpt lat="-27.2728813" lon="151.2901711">
  <ele>512.47</ele>
  <time>2026-09-01T19:56:03Z</time>
  <course>182.92</course>
  <speed>25.35034516530298</speed>
  <fix>3d</fix>
</trkpt>
<trkpt lat="-27.2728358" lon="151.2901737">
  <ele>513.7</ele>
  <time>2026-09-01T19:56:03Z</time>
  <course>182.77</course>
  <speed>25.36</speed>
  <fix>3d</fix>
</trkpt>
<trkpt lat="-27.2729042" lon="151.2901698">
  <ele>512.0</ele>
  <time>2026-09-01T19:56:03Z</time>
  <course>182.93</course>
  <speed>25.3498579877679</speed>
  <fix>3d</fix>
</trkpt>
<trkpt lat="-27.2728358" lon="151.2901737">
  <ele>513.7</ele>
  <time>2026-09-01T19:56:03Z</time>
  <course>182.77</course>
  <speed>25.36</speed>
  <fix>3d</fix>
</trkpt>
<trkpt lat="-27.2729269" lon="151.2901686">
  <ele>511.53</ele>
  <time>2026-09-01T19:56:03Z</time>
  <course>182.95</course>
  <speed>25.339386338267943</speed>
  <fix>3d</fix>
</trkpt>
<trkpt lat="-27.2728814" lon="151.2901712">
  <ele>512.75</ele>
  <time>2026-09-01T19:56:03Z</time>
  <course>182.74</course>
  <speed>25.35</speed>
  <fix>3d</fix>
</trkpt>
<trkpt lat="-27.2729497" lon="151.2901674">
  <ele>511.06</ele>
  <time>2026-09-01T19:56:03Z</time>
  <course>182.95</course>
  <speed>25.329397939943224</speed>
  <fix>3d</fix>
</trkpt>
<trkpt lat="-27.2728814" lon="151.2901712">
  <ele>512.75</ele>
  <time>2026-09-01T19:56:03Z</time>
  <course>182.74</course>
  <speed>25.35</speed>
  <fix>3d</fix>
</trkpt>
<trkpt lat="-27.2729732" lon="151.2901661">
  <ele>510.58</ele>
  <time>2026-09-01T19:56:03Z</time>
  <course>182.92</course>
  <speed>25.329397939943224</speed>
  <fix>3d</fix>
</trkpt>
<trkpt lat="-27.272927" lon="151.2901688">
  <ele>511.81</ele>
  <time>2026-09-01T19:56:03Z</time>
  <course>182.71</course>
  <speed>25.34</speed>
  <fix>3d</fix>
</trkpt>
<trkpt lat="-27.2729959" lon="151.2901649">
  <ele>510.11</ele>
  <time>2026-09-01T19:56:03Z</time>
  <course>182.91</course>
  <speed>25.31892967721977</speed>
  <fix>3d</fix>
</trkpt>
<trkpt lat="-27.2729725" lon="151.2901663">
  <ele>510.87</ele>
  <time>2026-09-01T19:56:03Z</time>
  <course>182.69</course>
  <speed>25.32</speed>
  <fix>3d</fix>
</trkpt>
<trkpt lat="-27.2730184" lon="151.2901637">
  <ele>509.65</ele>
  <time>2026-09-01T19:56:03Z</time>
  <course>182.89</course>
  <speed>25.308941107837757</speed>
  <fix>3d</fix>
</trkpt>
<trkpt lat="-27.2729725" lon="151.2901663">
  <ele>510.87</ele>
  <time>2026-09-01T19:56:03Z</time>
  <course>182.69</course>
  <speed>25.32</speed>
  <fix>3d</fix>
</trkpt>
<trkpt lat="-27.2730411" lon="151.2901625">
  <ele>509.19</ele>
  <time>2026-09-01T19:56:03Z</time>
  <course>182.88</course>
  <speed>25.298476238698644</speed>
  <fix>3d</fix>
</trkpt>
<trkpt lat="-27.2730179" lon="151.290164">
  <ele>509.94</ele>
  <time>2026-09-01T19:56:03Z</time>
  <course>182.68</course>
  <speed>25.31</speed>
  <fix>3d</fix>
</trkpt>
<trkpt lat="-27.2730638" lon="151.2901613">
  <ele>508.73</ele>
  <time>2026-09-01T19:56:03Z</time>
  <course>182.9</course>
  <speed>25.298476238698644</speed>
  <fix>3d</fix>
</trkpt>
<trkpt lat="-27.2730179" lon="151.290164">
  <ele>509.94</ele>
  <time>2026-09-01T19:56:03Z</time>
  <course>182.68</course>
  <speed>25.31</speed>
  <fix>3d</fix>
</trkpt>
<trkpt lat="-27.2730865" lon="151.2901602">
  <ele>508.27</ele>
  <time>2026-09-01T19:56:03Z</time>
  <course>182.9</course>
  <speed>25.288487499255467</speed>
  <fix>3d</fix>
</trkpt>
<trkpt lat="-27.2730632" lon="151.2901615">
  <ele>509.02</ele>
  <time>2026-09-01T19:56:03Z</time>
  <course>182.66</course>
  <speed>25.3</speed>
  <fix>3d</fix>
</trkpt>
<trkpt lat="-27.2731094" lon="151.290159">
  <ele>507.81</ele>
  <time>2026-09-01T19:56:03Z</time>
  <course>182.9</course>
  <speed>25.278026030526988</speed>
  <fix>3d</fix>
</trkpt>
<trkpt lat="-27.2730632" lon="151.2901615">
  <ele>509.02</ele>
  <time>2026-09-01T19:56:03Z</time>
  <course>182.66</course>
  <speed>25.3</speed>
  <fix>3d</fix>
</trkpt>
<trkpt lat="-27.273132" lon="151.2901578">
  <ele>507.35</ele>
  <time>2026-09-01T19:56:03Z</time>
  <course>182.89</course>
  <speed>25.26803712202434</speed>
  <fix>3d</fix>
</trkpt>
<trkpt lat="-27.2731087" lon="151.2901592">
  <ele>508.1</ele>
  <time>2026-09-01T19:56:03Z</time>
  <course>182.64</course>
  <speed>25.28</speed>
  <fix>3d</fix>
</trkpt>
<trkpt lat="-27.2731547" lon="151.2901566">
  <ele>506.89</ele>
  <time>2026-09-01T19:56:03Z</time>
  <course>182.87</course>
  <speed>25.25804822229936</speed>
  <fix>3d</fix>
</trkpt>
<trkpt lat="-27.2731087" lon="151.2901592">
  <ele>508.1</ele>
  <time>2026-09-01T19:56:03Z</time>
  <course>182.64</course>
  <speed>25.28</speed>
  <fix>3d</fix>
</trkpt>
<trkpt lat="-27.2731774" lon="151.2901554">
  <ele>506.43</ele>
  <time>2026-09-01T19:56:03Z</time>
  <course>182.85</course>
  <speed>25.24758998399649</speed>
  <fix>3d</fix>
</trkpt>
<trkpt lat="-27.273154" lon="151.2901569">
  <ele>507.19</ele>
  <time>2026-09-01T19:56:03Z</time>
  <course>182.63</course>
  <speed>25.27</speed>
  <fix>3d</fix>
</trkpt>
<trkpt lat="-27.2732" lon="151.2901542">
  <ele>505.98</ele>
  <time>2026-09-01T19:56:03Z</time>
  <course>182.83</course>
  <speed>25.237600916093427</speed>
  <fix>3d</fix>
</trkpt>
<trkpt lat="-27.273154" lon="151.2901569">
  <ele>507.19</ele>
  <time>2026-09-01T19:56:03Z</time>
  <course>182.63</course>
  <speed>25.27</speed>
  <fix>3d</fix>
</trkpt>
<trkpt lat="-27.2732226" lon="151.2901531">
  <ele>505.52</ele>
  <time>2026-09-01T19:56:03Z</time>
  <course>182.76</course>
  <speed>25.22714609304826</speed>
  <fix>3d</fix>
</trkpt>
<trkpt lat="-27.2731993" lon="151.2901545">
  <ele>506.28</ele>
  <time>2026-09-01T19:56:03Z</time>
  <course>182.61</course>
  <speed>25.25</speed>
  <fix>3d</fix>
</trkpt>
<trkpt lat="-27.2732453" lon="151.2901519">
  <ele>505.06</ele>
  <time>2026-09-01T19:56:03Z</time>
  <course>182.65</course>
  <speed>25.22622643202903</speed>
  <fix>3d</fix>
</trkpt>
<trkpt lat="-27.2731993" lon="151.2901545">
  <ele>506.28</ele>
  <time>2026-09-01T19:56:03Z</time>
  <course>182.61</course>
  <speed>25.25</speed>
  <fix>3d</fix>
</trkpt>
<trkpt lat="-27.2732679" lon="151.2901508">
  <ele>504.6</ele>
  <time>2026-09-01T19:56:03Z</time>
  <course>182.51</course>
  <speed>25.21444427307491</speed>
  <fix>3d</fix>
</trkpt>
<trkpt lat="-27.2732446" lon="151.2901522">
  <ele>505.37</ele>
  <time>2026-09-01T19:56:03Z</time>
  <course>182.53</course>
  <speed>25.24</speed>
  <fix>3d</fix>
</trkpt>
<trkpt lat="-27.2732905" lon="151.2901498">
  <ele>504.14</ele>
  <time>2026-09-01T19:56:03Z</time>
  <course>182.35</course>
  <speed>25.201882866166965</speed>
  <fix>3d</fix>
</trkpt>
<trkpt lat="-27.2732446" lon="151.2901522">
  <ele>505.37</ele>
  <time>2026-09-01T19:56:03Z</time>
  <course>182.53</course>
  <speed>25.24</speed>
  <fix>3d</fix>
</trkpt>
<trkpt lat="-27.2733132" lon="151.2901488">
  <ele>503.69</ele>
  <time>2026-09-01T19:56:03Z</time>
  <course>182.16</course>
  <speed>25.197914596251806</speed>
  <fix>3d</fix>
</trkpt>
<trkpt lat="-27.2732899" lon="151.2901501">
  <ele>504.46</ele>
  <time>2026-09-01T19:56:03Z</time>
  <course>182.3</course>
  <speed>25.22</speed>
  <fix>3d</fix>
</trkpt>
<trkpt lat="-27.2733358" lon="151.2901479">
  <ele>503.23</ele>
  <time>2026-09-01T19:56:03Z</time>
  <course>181.95</course>
  <speed>25.1933483284775</speed>
  <fix>3d</fix>
</trkpt>
<trkpt lat="-27.2732899" lon="151.2901501">
  <ele>504.46</ele>
  <time>2026-09-01T19:56:03Z</time>
  <course>182.3</course>
  <speed>25.22</speed>
  <fix>3d</fix>
</trkpt>
<trkpt lat="-27.2733584" lon="151.2901472">
  <ele>502.77</ele>
  <time>2026-09-01T19:56:03Z</time>
  <course>181.75</course>
  <speed>25.188388197739055</speed>
  <fix>3d</fix>
</trkpt>
<trkpt lat="-27.2733353" lon="151.2901482">
  <ele>503.55</ele>
  <time>2026-09-01T19:56:03Z</time>
  <course>181.79</course>
  <speed>25.21</speed>
  <fix>3d</fix>
</trkpt>
<trkpt lat="-27.273381" lon="151.2901467">
  <ele>502.32</ele>
  <time>2026-09-01T19:56:03Z</time>
  <course>181.47</course>
  <speed>25.18402072743747</speed>
  <fix>3d</fix>
</trkpt>
<trkpt lat="-27.2733353" lon="151.2901482">
  <ele>503.55</ele>
  <time>2026-09-01T19:56:03Z</time>
  <course>181.79</course>
  <speed>25.21</speed>
  <fix>3d</fix>
</trkpt>
<trkpt lat="-27.2734037" lon="151.2901463">
  <ele>501.86</ele>
  <time>2026-09-01T19:56:03Z</time>
  <course>181.12</course>
  <speed>25.18087567976936</speed>
  <fix>3d</fix>
</trkpt>
<trkpt lat="-27.2733806" lon="151.290147">
  <ele>502.63</ele>
  <time>2026-09-01T19:56:03Z</time>
  <course>180.95</course>
  <speed>25.2</speed>
  <fix>3d</fix>
</trkpt>
<trkpt lat="-27.2734257" lon="151.2901463">
  <ele>501.42</ele>
  <time>2026-09-01T19:56:03Z</time>
  <course>180.71</course>
  <speed>25.180049642524537</speed>
  <fix>3d</fix>
</trkpt>
<trkpt lat="-27.2733806" lon="151.290147">
  <ele>502.63</ele>
  <time>2026-09-01T19:56:03Z</time>
  <course>180.95</course>
  <speed>25.2</speed>
  <fix>3d</fix>
</trkpt>
<trkpt lat="-27.2734491" lon="151.2901466">
  <ele>500.96</ele>
  <time>2026-09-01T19:56:03Z</time>
  <course>180.16</course>
  <speed>25.182718280598703</speed>
  <fix>3d</fix>
</trkpt>
<trkpt lat="-27.2734259" lon="151.2901465">
  <ele>501.72</ele>
  <time>2026-09-01T19:56:03Z</time>
  <course>179.79</course>
  <speed>25.19</speed>
  <fix>3d</fix>
</trkpt>
<trkpt lat="-27.2734715" lon="151.2901471">
  <ele>500.51</ele>
  <time>2026-09-01T19:56:03Z</time>
  <course>179.51</course>
  <speed>25.180295867999643</speed>
  <fix>3d</fix>
</trkpt>
<trkpt lat="-27.2734259" lon="151.2901465">
  <ele>501.72</ele>
  <time>2026-09-01T19:56:03Z</time>
  <course>179.79</course>
  <speed>25.19</speed>
  <fix>3d</fix>
</trkpt>
<trkpt lat="-27.273494" lon="151.2901481">
  <ele>500.06</ele>
  <time>2026-09-01T19:56:03Z</time>
  <course>178.79</course>
  <speed>25.184034625135027</speed>
  <fix>3d</fix>
</trkpt>
<trkpt lat="-27.2734711" lon="151.2901473">
  <ele>500.82</ele>
  <time>2026-09-01T19:56:03Z</time>
  <course>178.31</course>
  <speed>25.2</speed>
  <fix>3d</fix>
</trkpt>
<trkpt lat="-27.2735165" lon="151.2901493">
  <ele>499.61</ele>
  <time>2026-09-01T19:56:03Z</time>
  <course>177.95</course>
  <speed>25.18530722464985</speed>
  <fix>3d</fix>
</trkpt>
<trkpt lat="-27.2734711" lon="151.2901473">
  <ele>500.82</ele>
  <time>2026-09-01T19:56:03Z</time>
  <course>178.31</course>
  <speed>25.2</speed>
  <fix>3d</fix>
</trkpt>
<trkpt lat="-27.2735389" lon="151.2901511">
  <ele>499.16</ele>
  <time>2026-09-01T19:56:03Z</time>
  <course>177.01</course>
  <speed>25.187159426977864</speed>
  <fix>3d</fix>
</trkpt>
<trkpt lat="-27.2735164" lon="151.2901496">
  <ele>499.91</ele>
  <time>2026-09-01T19:56:03Z</time>
  <course>176.51</course>
  <speed>25.21</speed>
  <fix>3d</fix>
</trkpt>
<trkpt lat="-27.2735613" lon="151.2901533">
  <ele>498.71</ele>
  <time>2026-09-01T19:56:03Z</time>
  <course>176.05</course>
  <speed>25.189430323054154</speed>
  <fix>3d</fix>
</trkpt>
<trkpt lat="-27.2735164" lon="151.2901496">
  <ele>499.91</ele>
  <time>2026-09-01T19:56:03Z</time>
  <course>176.51</course>
  <speed>25.21</speed>
  <fix>3d</fix>
</trkpt>
<trkpt lat="-27.2735839" lon="151.2901561">
  <ele>498.26</ele>
  <time>2026-09-01T19:56:03Z</time>
  <course>174.96</course>
  <speed>25.20559064969516</speed>
  <fix>3d</fix>
</trkpt>
<trkpt lat="-27.2735615" lon="151.2901536">
  <ele>499.02</ele>
  <time>2026-09-01T19:56:03Z</time>
  <course>174.39</course>
  <speed>25.23</speed>
  <fix>3d</fix>
</trkpt>
<trkpt lat="-27.2736063" lon="151.2901594">
  <ele>497.81</ele>
  <time>2026-09-01T19:56:03Z</time>
  <course>173.78</course>
  <speed>25.216885216061083</speed>
  <fix>3d</fix>
</trkpt>
<trkpt lat="-27.2735615" lon="151.2901536">
  <ele>499.02</ele>
  <time>2026-09-01T19:56:03Z</time>
  <course>174.39</course>
  <speed>25.23</speed>
  <fix>3d</fix>
</trkpt>
<trkpt lat="-27.2736286" lon="151.2901632">
  <ele>497.37</ele>
  <time>2026-09-01T19:56:03Z</time>
  <course>172.49</course>
  <speed>25.22542566538769</speed>
  <fix>3d</fix>
</trkpt>
<trkpt lat="-27.2736065" lon="151.2901596">
  <ele>498.12</ele>
  <time>2026-09-01T19:56:03Z</time>
  <course>171.96</course>
  <speed>25.26</speed>
  <fix>3d</fix>
</trkpt>
<trkpt lat="-27.2736508" lon="151.2901677">
  <ele>496.92</ele>
  <time>2026-09-01T19:56:03Z</time>
  <course>171.13</course>
  <speed>25.24516587388564</speed>
  <fix>3d</fix>
</trkpt>
<trkpt lat="-27.2736065" lon="151.2901596">
  <ele>498.12</ele>
  <time>2026-09-01T19:56:03Z</time>
  <course>171.96</course>
  <speed>25.26</speed>
  <fix>3d</fix>
</trkpt>
<trkpt lat="-27.2736729" lon="151.2901728">
  <ele>496.48</ele>
  <time>2026-09-01T19:56:03Z</time>
  <course>169.7</course>
  <speed>25.25958827851317</speed>
  <fix>3d</fix>
</trkpt>
<trkpt lat="-27.2736513" lon="151.290168">
  <ele>497.23</ele>
  <time>2026-09-01T19:56:03Z</time>
  <course>169.21</course>
  <speed>25.3</speed>
  <fix>3d</fix>
</trkpt>
<trkpt lat="-27.2736949" lon="151.2901785">
  <ele>496.03</ele>
  <time>2026-09-01T19:56:03Z</time>
  <course>168.21</course>
  <speed>25.28448140658614</speed>
  <fix>3d</fix>
</trkpt>
<trkpt lat="-27.2736513" lon="151.290168">
  <ele>497.23</ele>
  <time>2026-09-01T19:56:03Z</time>
  <course>169.21</course>
  <speed>25.3</speed>
  <fix>3d</fix>
</trkpt>
<trkpt lat="-27.2737169" lon="151.290185">
  <ele>495.59</ele>
  <time>2026-09-01T19:56:03Z</time>
  <course>166.59</course>
  <speed>25.30947846163567</speed>
  <fix>3d</fix>
</trkpt>
<trkpt lat="-27.2736958" lon="151.2901789">
  <ele>496.34</ele>
  <time>2026-09-01T19:56:03Z</time>
  <course>166.16</course>
  <speed>25.34</speed>
  <fix>3d</fix>
</trkpt>
<trkpt lat="-27.2737386" lon="151.2901922">
  <ele>495.15</ele>
  <time>2026-09-01T19:56:03Z</time>
  <course>164.94</course>
  <speed>25.332589682067642</speed>
  <fix>3d</fix>
</trkpt>
<trkpt lat="-27.2736958" lon="151.2901789">
  <ele>496.34</ele>
  <time>2026-09-01T19:56:03Z</time>
  <course>166.16</course>
  <speed>25.34</speed>
  <fix>3d</fix>
</trkpt>
<trkpt lat="-27.2737603" lon="151.2902001">
  <ele>494.71</ele>
  <time>2026-09-01T19:56:03Z</time>
  <course>163.21</course>
  <speed>25.365679569055505</speed>
  <fix>3d</fix>
</trkpt>
<trkpt lat="-27.2737397" lon="151.2901925">
  <ele>495.46</ele>
  <time>2026-09-01T19:56:03Z</time>
  <course>162.84</course>
  <speed>25.4</speed>
  <fix>3d</fix>
</trkpt>
<trkpt lat="-27.2737817" lon="151.2902088">
  <ele>494.28</ele>
  <time>2026-09-01T19:56:03Z</time>
  <course>161.4</course>
  <speed>25.395826428765808</speed>
  <fix>3d</fix>
</trkpt>
<trkpt lat="-27.2737397" lon="151.2901925">
  <ele>495.46</ele>
  <time>2026-09-01T19:56:03Z</time>
  <course>162.84</course>
  <speed>25.4</speed>
  <fix>3d</fix>
</trkpt>
<trkpt lat="-27.2738028" lon="151.2902183">
  <ele>493.85</ele>
  <time>2026-09-01T19:56:03Z</time>
  <course>159.56</course>
  <speed>25.428482062443287</speed>
  <fix>3d</fix>
</trkpt>
<trkpt lat="-27.2737829" lon="151.2902092">
  <ele>494.59</ele>
  <time>2026-09-01T19:56:03Z</time>
  <course>159.25</course>
  <speed>25.46</speed>
  <fix>3d</fix>
</trkpt>
<trkpt lat="-27.2738238" lon="151.2902286">
  <ele>493.42</ele>
  <time>2026-09-01T19:56:03Z</time>
  <course>157.73</course>
  <speed>25.46139234213243</speed>
  <fix>3d</fix>
</trkpt>
<trkpt lat="-27.2737829" lon="151.2902092">
  <ele>494.59</ele>
  <time>2026-09-01T19:56:03Z</time>
  <course>159.25</course>
  <speed>25.46</speed>
  <fix>3d</fix>
</trkpt>
<trkpt lat="-27.2738445" lon="151.2902397">
  <ele>493.0</ele>
  <time>2026-09-01T19:56:03Z</time>
  <course>155.87</course>
  <speed>25.491184750811406</speed>
  <fix>3d</fix>
</trkpt>
<trkpt lat="-27.2738252" lon="151.2902291">
  <ele>493.73</ele>
  <time>2026-09-01T19:56:03Z</time>
  <course>155.46</course>
  <speed>25.52</speed>
  <fix>3d</fix>
</trkpt>
<trkpt lat="-27.2738649" lon="151.2902516">
  <ele>492.58</ele>
  <time>2026-09-01T19:56:03Z</time>
  <course>154.03</course>
  <speed>25.518152362582992</speed>
  <fix>3d</fix>
</trkpt>
<trkpt lat="-27.2738252" lon="151.2902291">
  <ele>493.73</ele>
  <time>2026-09-01T19:56:03Z</time>
  <course>155.46</course>
  <speed>25.52</speed>
  <fix>3d</fix>
</trkpt>
<trkpt lat="-27.2738849" lon="151.2902642">
  <ele>492.16</ele>
  <time>2026-09-01T19:56:03Z</time>
  <course>152.23</course>
  <speed>25.5462815298039</speed>
  <fix>3d</fix>
</trkpt>
<trkpt lat="-27.2738663" lon="151.2902522">
  <ele>492.89</ele>
  <time>2026-09-01T19:56:03Z</time>
  <course>151.64</course>
  <speed>25.57</speed>
  <fix>3d</fix>
</trkpt>
<trkpt lat="-27.2739046" lon="151.2902776">
  <ele>491.75</ele>
  <time>2026-09-01T19:56:03Z</time>
  <course>150.49</course>
  <speed>25.55874801315589</speed>
  <fix>3d</fix>
</trkpt>
<trkpt lat="-27.2738663" lon="151.2902522">
  <ele>492.89</ele>
  <time>2026-09-01T19:56:03Z</time>
  <course>151.64</course>
  <speed>25.57</speed>
  <fix>3d</fix>
</trkpt>
<trkpt lat="-27.2739239" lon="151.2902917">
  <ele>491.35</ele>
  <time>2026-09-01T19:56:03Z</time>
  <course>148.82</course>
  <speed>25.571884952032768</speed>
  <fix>3d</fix>
</trkpt>
<trkpt lat="-27.2739061" lon="151.2902782">
  <ele>492.07</ele>
  <time>2026-09-01T19:56:03Z</time>
  <course>147.93</course>
  <speed>25.6</speed>
  <fix>3d</fix>
</trkpt>
<trkpt lat="-27.2739429" lon="151.2903064">
  <ele>490.94</ele>
  <time>2026-09-01T19:56:03Z</time>
  <course>147.2</course>
  <speed>25.578000312768786</speed>
  <fix>3d</fix>
</trkpt>
<trkpt lat="-27.2739061" lon="151.2902782">
  <ele>492.07</ele>
  <time>2026-09-01T19:56:03Z</time>
  <course>147.93</course>
  <speed>25.6</speed>
  <fix>3d</fix>
</trkpt>
<trkpt lat="-27.2739614" lon="151.2903218">
  <ele>490.53</ele>
  <time>2026-09-01T19:56:03Z</time>
  <course>145.72</course>
  <speed>25.576551761330144</speed>
  <fix>3d</fix>
</trkpt>
<trkpt lat="-27.2739442" lon="151.290307">
  <ele>491.25</ele>
  <time>2026-09-01T19:56:03Z</time>
  <course>144.45</course>
  <speed>25.61</speed>
  <fix>3d</fix>
</trkpt>
<trkpt lat="-27.2739796" lon="151.2903377">
  <ele>490.12</ele>
  <time>2026-09-01T19:56:03Z</time>
  <course>144.43</course>
  <speed>25.567217290898125</speed>
  <fix>3d</fix>
</trkpt>
<trkpt lat="-27.2739442" lon="151.290307">
  <ele>491.25</ele>
  <time>2026-09-01T19:56:03Z</time>
  <course>144.45</course>
  <speed>25.61</speed>
  <fix>3d</fix>
</trkpt>
<trkpt lat="-27.2739973" lon="151.2903539">
  <ele>489.72</ele>
  <time>2026-09-01T19:56:03Z</time>
  <course>143.34</course>
  <speed>25.54606231887803</speed>
  <fix>3d</fix>
</trkpt>
<trkpt lat="-27.2739809" lon="151.2903382">
  <ele>490.43</ele>
  <time>2026-09-01T19:56:03Z</time>
  <course>141.37</course>
  <speed>25.6</speed>
  <fix>3d</fix>
</trkpt>
<trkpt lat="-27.2740151" lon="151.290371">
  <ele>489.3</ele>
  <time>2026-09-01T19:56:03Z</time>
  <course>142.47</course>
  <speed>25.507671395092107</speed>
  <fix>3d</fix>
</trkpt>
<trkpt lat="-27.2739809" lon="151.2903382">
  <ele>490.43</ele>
  <time>2026-09-01T19:56:03Z</time>
  <course>141.37</course>
  <speed>25.6</speed>
  <fix>3d</fix>
</trkpt>
<trkpt lat="-27.2740323" lon="151.290388">
  <ele>488.89</ele>
  <time>2026-09-01T19:56:03Z</time>
  <course>141.8</course>
  <speed>25.457095278134148</speed>
  <fix>3d</fix>
</trkpt>
<trkpt lat="-27.2740162" lon="151.2903713">
  <ele>489.61</ele>
  <time>2026-09-01T19:56:03Z</time>
  <course>139.0</course>
  <speed>25.54</speed>
  <fix>3d</fix>
</trkpt>
<trkpt lat="-27.2740492" lon="151.2904053">
  <ele>488.46</ele>
  <time>2026-09-01T19:56:03Z</time>
  <course>141.26</course>
  <speed>25.388203953805004</speed>
  <fix>3d</fix>
</trkpt>
<trkpt lat="-27.2740162" lon="151.2903713">
  <ele>489.61</ele>
  <time>2026-09-01T19:56:03Z</time>
  <course>139.0</course>
  <speed>25.54</speed>
  <fix>3d</fix>
</trkpt>
<trkpt lat="-27.274066" lon="151.2904226">
  <ele>488.03</ele>
  <time>2026-09-01T19:56:03Z</time>
  <course>140.78</course>
  <speed>25.318550511433315</speed>
  <fix>3d</fix>
</trkpt>
<trkpt lat="-27.2740503" lon="151.2904057">
  <ele>488.77</ele>
  <time>2026-09-01T19:56:03Z</time>
  <course>137.56</course>
  <speed>25.43</speed>
  <fix>3d</fix>
</trkpt>
<trkpt lat="-27.2740827" lon="151.29044">
  <ele>487.58</ele>
  <time>2026-09-01T19:56:03Z</time>
  <course>140.34</course>
  <speed>25.22485480632148</speed>
  <fix>3d</fix>
</trkpt>
<trkpt lat="-27.2740503" lon="151.2904057">
  <ele>488.77</ele>
  <time>2026-09-01T19:56:03Z</time>
  <course>137.56</course>
  <speed>25.43</speed>
  <fix>3d</fix>
</trkpt>
<trkpt lat="-27.2740994" lon="151.2904573">
  <ele>487.1</ele>
  <time>2026-09-01T19:56:03Z</time>
  <course>139.88</course>
  <speed>25.134299274099526</speed>
  <fix>3d</fix>
</trkpt>
<trkpt lat="-27.2740838" lon="151.2904405">
  <ele>487.87</ele>
  <time>2026-09-01T19:56:03Z</time>
  <course>137.06</course>
  <speed>25.27</speed>
  <fix>3d</fix>
</trkpt>
<trkpt lat="-27.274116" lon="151.2904745">
  <ele>486.61</ele>
  <time>2026-09-01T19:56:03Z</time>
  <course>139.45</course>
  <speed>25.039912140420938</speed>
  <fix>3d</fix>
</trkpt>
<trkpt lat="-27.2740838" lon="151.2904405">
  <ele>487.87</ele>
  <time>2026-09-01T19:56:03Z</time>
  <course>137.06</course>
  <speed>25.27</speed>
  <fix>3d</fix>
</trkpt>
<trkpt lat="-27.2741326" lon="151.2904915">
  <ele>486.09</ele>
  <time>2026-09-01T19:56:03Z</time>
  <course>139.13</course>
  <speed>24.956211651610907</speed>
  <fix>3d</fix>
</trkpt>
<trkpt lat="-27.2741169" lon="151.290475">
  <ele>486.9</ele>
  <time>2026-09-01T19:56:03Z</time>
  <course>137.35</course>
  <speed>25.09</speed>
  <fix>3d</fix>
</trkpt>
<trkpt lat="-27.2741493" lon="151.2905084">
  <ele>485.55</ele>
  <time>2026-09-01T19:56:03Z</time>
  <course>139.01</course>
  <speed>24.89206299204628</speed>
  <fix>3d</fix>
</trkpt>
<trkpt lat="-27.2741169" lon="151.290475">
  <ele>486.9</ele>
  <time>2026-09-01T19:56:03Z</time>
  <course>137.35</course>
  <speed>25.09</speed>
  <fix>3d</fix>
</trkpt>
<trkpt lat="-27.2741662" lon="151.2905249">
  <ele>484.99</ele>
  <time>2026-09-01T19:56:03Z</time>
  <course>139.18</course>
  <speed>24.850627758670402</speed>
  <fix>3d</fix>
</trkpt>
<trkpt lat="-27.2741502" lon="151.2905091">
  <ele>485.85</ele>
  <time>2026-09-01T19:56:03Z</time>
  <course>138.33</course>
  <speed>24.95</speed>
  <fix>3d</fix>
</trkpt>
<trkpt lat="-27.2741832" lon="151.2905412">
  <ele>484.42</ele>
  <time>2026-09-01T19:56:03Z</time>
  <course>139.67</course>
  <speed>24.827639839501458</speed>
  <fix>3d</fix>
</trkpt>
<trkpt lat="-27.2741502" lon="151.2905091">
  <ele>485.85</ele>
  <time>2026-09-01T19:56:03Z</time>
  <course>138.33</course>
  <speed>24.95</speed>
  <fix>3d</fix>
</trkpt>
<trkpt lat="-27.2742005" lon="151.2905571">
  <ele>483.85</ele>
  <time>2026-09-01T19:56:03Z</time>
  <course>140.49</course>
  <speed>24.826957123256165</speed>
  <fix>3d</fix>
</trkpt>
<trkpt lat="-27.2741841" lon="151.2905421">
  <ele>484.74</ele>
  <time>2026-09-01T19:56:03Z</time>
  <course>140.02</course>
  <speed>24.89</speed>
  <fix>3d</fix>
</trkpt>
<trkpt lat="-27.2742181" lon="151.2905727">
  <ele>483.28</ele>
  <time>2026-09-01T19:56:03Z</time>
  <course>141.59</course>
  <speed>24.845178606723678</speed>
  <fix>3d</fix>
</trkpt>
<trkpt lat="-27.2741841" lon="151.2905421">
  <ele>484.74</ele>
  <time>2026-09-01T19:56:03Z</time>
  <course>140.02</course>
  <speed>24.89</speed>
  <fix>3d</fix>
</trkpt>
<trkpt lat="-27.274236" lon="151.2905877">
  <ele>482.71</ele>
  <time>2026-09-01T19:56:03Z</time>
  <course>142.92</course>
  <speed>24.881151500684208</speed>
  <fix>3d</fix>
</trkpt>
<trkpt lat="-27.274219" lon="151.2905737">
  <ele>483.6</ele>
  <time>2026-09-01T19:56:03Z</time>
  <course>142.42</course>
  <speed>24.91</speed>
  <fix>3d</fix>
</trkpt>
<trkpt lat="-27.2742543" lon="151.2906023">
  <ele>482.16</ele>
  <time>2026-09-01T19:56:03Z</time>
  <course>144.49</course>
  <speed>24.921673298556822</speed>
  <fix>3d</fix>
</trkpt>
<trkpt lat="-27.274219" lon="151.2905737">
  <ele>483.6</ele>
  <time>2026-09-01T19:56:03Z</time>
  <course>142.42</course>
  <speed>24.91</speed>
  <fix>3d</fix>
</trkpt>
<trkpt lat="-27.274273" lon="151.2906162">
  <ele>481.61</ele>
  <time>2026-09-01T19:56:03Z</time>
  <course>146.19</course>
  <speed>24.968630318862107</speed>
  <fix>3d</fix>
</trkpt>
<trkpt lat="-27.2742552" lon="151.2906034">
  <ele>482.49</ele>
  <time>2026-09-01T19:56:03Z</time>
  <course>145.45</course>
  <speed>24.99</speed>
  <fix>3d</fix>
</trkpt>
<trkpt lat="-27.2742922" lon="151.2906296">
  <ele>481.07</ele>
  <time>2026-09-01T19:56:03Z</time>
  <course>148.0</course>
  <speed>25.030383536813815</speed>
  <fix>3d</fix>
</trkpt>
<trkpt lat="-27.2742552" lon="151.2906034">
  <ele>482.49</ele>
  <time>2026-09-01T19:56:03Z</time>
  <course>145.45</course>
  <speed>24.99</speed>
  <fix>3d</fix>
</trkpt>
<trkpt lat="-27.2743117" lon="151.2906422">
  <ele>480.55</ele>
  <time>2026-09-01T19:56:03Z</time>
  <course>149.92</course>
  <speed>25.080805409715218</speed>
  <fix>3d</fix>
</trkpt>
<trkpt lat="-27.274293" lon="151.2906308">
  <ele>481.41</ele>
  <time>2026-09-01T19:56:03Z</time>
  <course>149.01</course>
  <speed>25.1</speed>
  <fix>3d</fix>
</trkpt>
<trkpt lat="-27.2743317" lon="151.2906541">
  <ele>480.03</ele>
  <time>2026-09-01T19:56:03Z</time>
  <course>151.94</course>
  <speed>25.137991168746957</speed>
  <fix>3d</fix>
</trkpt>
<trkpt lat="-27.274293" lon="151.2906308">
  <ele>481.41</ele>
  <time>2026-09-01T19:56:03Z</time>
  <course>149.01</course>
  <speed>25.1</speed>
  <fix>3d</fix>
</trkpt>
<trkpt lat="-27.2743521" lon="151.2906652">
  <ele>479.53</ele>
  <time>2026-09-01T19:56:03Z</time>
  <course>154.07</course>
  <speed>25.197384784933533</speed>
  <fix>3d</fix>
</trkpt>
<trkpt lat="-27.2743326" lon="151.2906554">
  <ele>480.37</ele>
  <time>2026-09-01T19:56:03Z</time>
  <course>153.0</course>
  <speed>25.23</speed>
  <fix>3d</fix>
</trkpt>
<trkpt lat="-27.2743727" lon="151.2906754">
  <ele>479.04</ele>
  <time>2026-09-01T19:56:03Z</time>
  <course>156.28</course>
  <speed>25.254047200399388</speed>
  <fix>3d</fix>
</trkpt>
<trkpt lat="-27.2743326" lon="151.2906554">
  <ele>480.37</ele>
  <time>2026-09-01T19:56:03Z</time>
  <course>153.0</course>
  <speed>25.23</speed>
  <fix>3d</fix>
</trkpt>
<trkpt lat="-27.2743939" lon="151.2906848">
  <ele>478.57</ele>
  <time>2026-09-01T19:56:03Z</time>
  <course>158.52</course>
  <speed>25.312109750078125</speed>
  <fix>3d</fix>
</trkpt>
<trkpt lat="-27.2743738" lon="151.290677">
  <ele>479.39</ele>
  <time>2026-09-01T19:56:03Z</time>
  <course>157.34</course>
  <speed>25.36</speed>
  <fix>3d</fix>
</trkpt>
<trkpt lat="-27.2744154" lon="151.2906932">
  <ele>478.1</ele>
  <time>2026-09-01T19:56:03Z</time>
  <course>160.8</course>
  <speed>25.36953290858939</speed>
  <fix>3d</fix>
</trkpt>
<trkpt lat="-27.2743738" lon="151.290677">
  <ele>479.39</ele>
  <time>2026-09-01T19:56:03Z</time>
  <course>157.34</course>
  <speed>25.36</speed>
  <fix>3d</fix>
</trkpt>
<trkpt lat="-27.2744373" lon="151.2907007">
  <ele>477.64</ele>
  <time>2026-09-01T19:56:03Z</time>
  <course>163.19</course>
  <speed>25.429471091629097</speed>
  <fix>3d</fix>
</trkpt>
<trkpt lat="-27.2744166" lon="151.2906949">
  <ele>478.45</ele>
  <time>2026-09-01T19:56:03Z</time>
  <course>161.95</course>
  <speed>25.49</speed>
  <fix>3d</fix>
</trkpt>
<trkpt lat="-27.2744597" lon="151.2907072">
  <ele>477.19</ele>
  <time>2026-09-01T19:56:03Z</time>
  <course>165.63</course>
  <speed>25.483361238266824</speed>
  <fix>3d</fix>
</trkpt>
<trkpt lat="-27.2744166" lon="151.2906949">
  <ele>478.45</ele>
  <time>2026-09-01T19:56:03Z</time>
  <course>161.95</course>
  <speed>25.49</speed>
  <fix>3d</fix>
</trkpt>
<trkpt lat="-27.2744821" lon="151.2907125">
  <ele>476.76</ele>
  <time>2026-09-01T19:56:03Z</time>
  <course>168.04</course>
  <speed>25.53329199300396</speed>
  <fix>3d</fix>
</trkpt>
<trkpt lat="-27.2744608" lon="151.2907088">
  <ele>477.55</ele>
  <time>2026-09-01T19:56:03Z</time>
  <course>166.75</course>
  <speed>25.6</speed>
  <fix>3d</fix>
</trkpt>
<trkpt lat="-27.2745048" lon="151.2907168">
  <ele>476.34</ele>
  <time>2026-09-01T19:56:03Z</time>
  <course>170.42</course>
  <speed>25.578946420836022</speed>
  <fix>3d</fix>
</trkpt>
<trkpt lat="-27.2744608" lon="151.2907088">
  <ele>477.55</ele>
  <time>2026-09-01T19:56:03Z</time>
  <course>166.75</course>
  <speed>25.6</speed>
  <fix>3d</fix>
</trkpt>
<trkpt lat="-27.2745277" lon="151.29072">
  <ele>475.92</ele>
  <time>2026-09-01T19:56:03Z</time>
  <course>172.85</course>
  <speed>25.619346205553335</speed>
  <fix>3d</fix>
</trkpt>
<trkpt lat="-27.274506" lon="151.2907185">
  <ele>476.7</ele>
  <time>2026-09-01T19:56:03Z</time>
  <course>171.65</course>
  <speed>25.7</speed>
  <fix>3d</fix>
</trkpt>
<trkpt lat="-27.2745509" lon="151.2907222">
  <ele>475.51</ele>
  <time>2026-09-01T19:56:03Z</time>
  <course>175.29</course>
  <speed>25.656603438491228</speed>
  <fix>3d</fix>
</trkpt>
<trkpt lat="-27.274506" lon="151.2907185">
  <ele>476.7</ele>
  <time>2026-09-01T19:56:03Z</time>
  <course>171.65</course>
  <speed>25.7</speed>
  <fix>3d</fix>
</trkpt>
<trkpt lat="-27.274574" lon="151.2907232">
  <ele>475.12</ele>
  <time>2026-09-01T19:56:03Z</time>
  <course>177.65</course>
  <speed>25.681526434384697</speed>
  <fix>3d</fix>
</trkpt>
<trkpt lat="-27.274552" lon="151.2907238">
  <ele>475.89</ele>
  <time>2026-09-01T19:56:03Z</time>
  <course>176.55</course>
  <speed>25.77</speed>
  <fix>3d</fix>
</trkpt>
<trkpt lat="-27.2745972" lon="151.2907231">
  <ele>474.72</ele>
  <time>2026-09-01T19:56:03Z</time>
  <course>180.03</course>
  <speed>25.712139156437374</speed>
  <fix>3d</fix>
</trkpt>
<trkpt lat="-27.274552" lon="151.2907238">
  <ele>475.89</ele>
  <time>2026-09-01T19:56:03Z</time>
  <course>176.55</course>
  <speed>25.77</speed>
  <fix>3d</fix>
</trkpt>
<trkpt lat="-27.2746203" lon="151.2907219">
  <ele>474.34</ele>
  <time>2026-09-01T19:56:03Z</time>
  <course>182.47</course>
  <speed>25.73024679244255</speed>
  <fix>3d</fix>
</trkpt>
<trkpt lat="-27.2745983" lon="151.2907247">
  <ele>475.11</ele>
  <time>2026-09-01T19:56:03Z</time>
  <course>181.45</course>
  <speed>25.82</speed>
  <fix>3d</fix>
</trkpt>
<trkpt lat="-27.2746435" lon="151.2907197">
  <ele>473.97</ele>
  <time>2026-09-01T19:56:03Z</time>
  <course>184.82</course>
  <speed>25.7541550045813</speed>
  <fix>3d</fix>
</trkpt>
<trkpt lat="-27.2745983" lon="151.2907247">
  <ele>475.11</ele>
  <time>2026-09-01T19:56:03Z</time>
  <course>181.45</course>
  <speed>25.82</speed>
  <fix>3d</fix>
</trkpt>
<trkpt lat="-27.2746665" lon="151.2907162">
  <ele>473.59</ele>
  <time>2026-09-01T19:56:03Z</time>
  <course>187.13</course>
  <speed>25.760359081348223</speed>
  <fix>3d</fix>
</trkpt>
<trkpt lat="-27.2746446" lon="151.2907212">
  <ele>474.35</ele>
  <time>2026-09-01T19:56:03Z</time>
  <course>186.33</course>
  <speed>25.85</speed>
  <fix>3d</fix>
</trkpt>
<trkpt lat="-27.2746894" lon="151.2907119">
  <ele>473.22</ele>
  <time>2026-09-01T19:56:03Z</time>
  <course>189.49</course>
  <speed>25.777528973895073</speed>
  <fix>3d</fix>
</trkpt>
<trkpt lat="-27.2746446" lon="151.2907212">
  <ele>474.35</ele>
  <time>2026-09-01T19:56:03Z</time>
  <course>186.33</course>
  <speed>25.85</speed>
  <fix>3d</fix>
</trkpt>
<trkpt lat="-27.2747121" lon="151.2907064">
  <ele>472.85</ele>
  <time>2026-09-01T19:56:03Z</time>
  <course>191.86</course>
  <speed>25.76970702200551</speed>
  <fix>3d</fix>
</trkpt>
<trkpt lat="-27.2746907" lon="151.2907132">
  <ele>473.6</ele>
  <time>2026-09-01T19:56:03Z</time>
  <course>191.13</course>
  <speed>25.86</speed>
  <fix>3d</fix>
</trkpt>
<trkpt lat="-27.2747347" lon="151.2906998">
  <ele>472.49</ele>
  <time>2026-09-01T19:56:03Z</time>
  <course>194.16</course>
  <speed>25.784074542244092</speed>
  <fix>3d</fix>
</trkpt>
<trkpt lat="-27.2746907" lon="151.2907132">
  <ele>473.6</ele>
  <time>2026-09-01T19:56:03Z</time>
  <course>191.13</course>
  <speed>25.86</speed>
  <fix>3d</fix>
</trkpt>
<trkpt lat="-27.2747569" lon="151.2906922">
  <ele>472.12</ele>
  <time>2026-09-01T19:56:03Z</time>
  <course>196.45</course>
  <speed>25.775726953861067</speed>
  <fix>3d</fix>
</trkpt>
<trkpt lat="-27.2747358" lon="151.290701">
  <ele>472.86</ele>
  <time>2026-09-01T19:56:03Z</time>
  <course>195.86</course>
  <speed>25.85</speed>
  <fix>3d</fix>
</trkpt>
<trkpt lat="-27.2747789" lon="151.2906836">
  <ele>471.75</ele>
  <time>2026-09-01T19:56:03Z</time>
  <course>198.72</course>
  <speed>25.762084542986813</speed>
  <fix>3d</fix>
</trkpt>
<trkpt lat="-27.2747358" lon="151.290701">
  <ele>472.86</ele>
  <time>2026-09-01T19:56:03Z</time>
  <course>195.86</course>
  <speed>25.85</speed>
  <fix>3d</fix>
</trkpt>
<trkpt lat="-27.2748004" lon="151.290674">
  <ele>471.38</ele>
  <time>2026-09-01T19:56:03Z</time>
  <course>201.03</course>
  <speed>25.745339384051633</speed>
  <fix>3d</fix>
</trkpt>
<trkpt lat="-27.2747799" lon="151.2906847">
  <ele>472.12</ele>
  <time>2026-09-01T19:56:03Z</time>
  <course>200.54</course>
  <speed>25.82</speed>
  <fix>3d</fix>
</trkpt>
<trkpt lat="-27.2748217" lon="151.2906635">
  <ele>471.01</ele>
  <time>2026-09-01T19:56:03Z</time>
  <course>203.3</course>
  <speed>25.734173777294657</speed>
  <fix>3d</fix>
</trkpt>
<trkpt lat="-27.2747799" lon="151.2906847">
  <ele>472.12</ele>
  <time>2026-09-01T19:56:03Z</time>
  <course>200.54</course>
  <speed>25.82</speed>
  <fix>3d</fix>
</trkpt>
<trkpt lat="-27.2748423" lon="151.2906521">
  <ele>470.64</ele>
  <time>2026-09-01T19:56:03Z</time>
  <course>205.54</course>
  <speed>25.714435634483603</speed>
  <fix>3d</fix>
</trkpt>
<trkpt lat="-27.2748226" lon="151.2906645">
  <ele>471.37</ele>
  <time>2026-09-01T19:56:03Z</time>
  <course>205.15</course>
  <speed>25.78</speed>
  <fix>3d</fix>
</trkpt>
<trkpt lat="-27.2748627" lon="151.2906398">
  <ele>470.26</ele>
  <time>2026-09-01T19:56:03Z</time>
  <course>207.85</course>
  <speed>25.690124561784437</speed>
  <fix>3d</fix>
</trkpt>
<trkpt lat="-27.2748226" lon="151.2906645">
  <ele>471.37</ele>
  <time>2026-09-01T19:56:03Z</time>
  <course>205.15</course>
  <speed>25.78</speed>
  <fix>3d</fix>
</trkpt>
<trkpt lat="-27.2748825" lon="151.2906265">
  <ele>469.88</ele>
  <time>2026-09-01T19:56:03Z</time>
  <course>210.07</course>
  <speed>25.661554902226793</speed>
  <fix>3d</fix>
</trkpt>
<trkpt lat="-27.2748636" lon="151.2906405">
  <ele>470.62</ele>
  <time>2026-09-01T19:56:03Z</time>
  <course>209.73</course>
  <speed>25.73</speed>
  <fix>3d</fix>
</trkpt>
<trkpt lat="-27.2749019" lon="151.2906124">
  <ele>469.5</ele>
  <time>2026-09-01T19:56:03Z</time>
  <course>212.3</course>
  <speed>25.63447873470416</speed>
  <fix>3d</fix>
</trkpt>
<trkpt lat="-27.2748636" lon="151.2906405">
  <ele>470.62</ele>
  <time>2026-09-01T19:56:03Z</time>
  <course>209.73</course>
  <speed>25.73</speed>
  <fix>3d</fix>
</trkpt>
<trkpt lat="-27.2749209" lon="151.2905973">
  <ele>469.11</ele>
  <time>2026-09-01T19:56:03Z</time>
  <course>214.55</course>
  <speed>25.60225380703816</speed>
  <fix>3d</fix>
</trkpt>
<trkpt lat="-27.2749028" lon="151.2906129">
  <ele>469.84</ele>
  <time>2026-09-01T19:56:03Z</time>
  <course>214.27</course>
  <speed>25.67</speed>
  <fix>3d</fix>
</trkpt>
<trkpt lat="-27.2749392" lon="151.2905816">
  <ele>468.71</ele>
  <time>2026-09-01T19:56:03Z</time>
  <course>216.7</course>
  <speed>25.57666514618354</speed>
  <fix>3d</fix>
</trkpt>
<trkpt lat="-27.2749028" lon="151.2906129">
  <ele>469.84</ele>
  <time>2026-09-01T19:56:03Z</time>
  <course>214.27</course>
  <speed>25.67</speed>
  <fix>3d</fix>
</trkpt>
<trkpt lat="-27.2749569" lon="151.290565">
  <ele>468.31</ele>
  <time>2026-09-01T19:56:03Z</time>
  <course>218.95</course>
  <speed>25.53880380910586</speed>
  <fix>3d</fix>
</trkpt>
<trkpt lat="-27.2749398" lon="151.2905821">
  <ele>469.05</ele>
  <time>2026-09-01T19:56:03Z</time>
  <course>218.73</course>
  <speed>25.61</speed>
  <fix>3d</fix>
</trkpt>
<trkpt lat="-27.274974" lon="151.2905478">
  <ele>467.9</ele>
  <time>2026-09-01T19:56:03Z</time>
  <course>221.19</course>
  <speed>25.510131320712564</speed>
  <fix>3d</fix>
</trkpt>
<trkpt lat="-27.2749398" lon="151.2905821">
  <ele>469.05</ele>
  <time>2026-09-01T19:56:03Z</time>
  <course>218.73</course>
  <speed>25.61</speed>
  <fix>3d</fix>
</trkpt>
<trkpt lat="-27.2749904" lon="151.2905298">
  <ele>467.48</ele>
  <time>2026-09-01T19:56:03Z</time>
  <course>223.41</course>
  <speed>25.478000313996386</speed>
  <fix>3d</fix>
</trkpt>
<trkpt lat="-27.2749745" lon="151.2905482">
  <ele>468.22</ele>
  <time>2026-09-01T19:56:03Z</time>
  <course>223.18</course>
  <speed>25.54</speed>
  <fix>3d</fix>
</trkpt>
<trkpt lat="-27.2750062" lon="151.2905112">
  <ele>467.06</ele>
  <time>2026-09-01T19:56:03Z</time>
  <course>225.61</course>
  <speed>25.441831695064725</speed>
  <fix>3d</fix>
</trkpt>
<trkpt lat="-27.2749745" lon="151.2905482">
  <ele>468.22</ele>
  <time>2026-09-01T19:56:03Z</time>
  <course>223.18</course>
  <speed>25.54</speed>
  <fix>3d</fix>
</trkpt>
<trkpt lat="-27.2750213" lon="151.2904919">
  <ele>466.63</ele>
  <time>2026-09-01T19:56:03Z</time>
  <course>227.83</course>
  <speed>25.41437585304821</speed>
  <fix>3d</fix>
</trkpt>
<trkpt lat="-27.2750066" lon="151.2905115">
  <ele>467.38</ele>
  <time>2026-09-01T19:56:03Z</time>
  <course>227.64</course>
  <speed>25.48</speed>
  <fix>3d</fix>
</trkpt>
<trkpt lat="-27.2750357" lon="151.290472">
  <ele>466.19</ele>
  <time>2026-09-01T19:56:03Z</time>
  <course>230.08</course>
  <speed>25.37591968776698</speed>
  <fix>3d</fix>
</trkpt>
<trkpt lat="-27.2750066" lon="151.2905115">
  <ele>467.38</ele>
  <time>2026-09-01T19:56:03Z</time>
  <course>227.64</course>
  <speed>25.48</speed>
  <fix>3d</fix>
</trkpt>
<trkpt lat="-27.2750494" lon="151.2904514">
  <ele>465.75</ele>
  <time>2026-09-01T19:56:03Z</time>
  <course>232.29</course>
  <speed>25.34783817212032</speed>
  <fix>3d</fix>
</trkpt>
<trkpt lat="-27.2750361" lon="151.2904721">
  <ele>466.5</ele>
  <time>2026-09-01T19:56:03Z</time>
  <course>232.09</course>
  <speed>25.42</speed>
  <fix>3d</fix>
</trkpt>
<trkpt lat="-27.2750624" lon="151.2904304">
  <ele>465.29</ele>
  <time>2026-09-01T19:56:03Z</time>
  <course>234.51</course>
  <speed>25.31403760762001</speed>
  <fix>3d</fix>
</trkpt>
<trkpt lat="-27.2750361" lon="151.2904721">
  <ele>466.5</ele>
  <time>2026-09-01T19:56:03Z</time>
  <course>232.09</course>
  <speed>25.42</speed>
  <fix>3d</fix>
</trkpt>
<trkpt lat="-27.2750745" lon="151.2904088">
  <ele>464.84</ele>
  <time>2026-09-01T19:56:03Z</time>
  <course>236.77</course>
  <speed>25.28250383170148</speed>
  <fix>3d</fix>
</trkpt>
<trkpt lat="-27.2750627" lon="151.2904303">
  <ele>465.6</ele>
  <time>2026-09-01T19:56:03Z</time>
  <course>236.57</course>
  <speed>25.36</speed>
  <fix>3d</fix>
</trkpt>
<trkpt lat="-27.275086" lon="151.2903865">
  <ele>464.37</ele>
  <time>2026-09-01T19:56:03Z</time>
  <course>239.06</course>
  <speed>25.25739891596124</speed>
  <fix>3d</fix>
</trkpt>
<trkpt lat="-27.2750627" lon="151.2904303">
  <ele>465.6</ele>
  <time>2026-09-01T19:56:03Z</time>
  <course>236.57</course>
  <speed>25.36</speed>
  <fix>3d</fix>
</trkpt>
<trkpt lat="-27.2750966" lon="151.2903639">
  <ele>463.9</ele>
  <time>2026-09-01T19:56:03Z</time>
  <course>241.28</course>
  <speed>25.231823160445618</speed>
  <fix>3d</fix>
</trkpt>
<trkpt lat="-27.2750863" lon="151.2903865">
  <ele>464.68</ele>
  <time>2026-09-01T19:56:03Z</time>
  <course>241.06</course>
  <speed>25.3</speed>
  <fix>3d</fix>
</trkpt>
<trkpt lat="-27.2751064" lon="151.2903409">
  <ele>463.43</ele>
  <time>2026-09-01T19:56:03Z</time>
  <course>243.56</course>
  <speed>25.20971439743021</speed>
  <fix>3d</fix>
</trkpt>
<trkpt lat="-27.2750863" lon="151.2903865">
  <ele>464.68</ele>
  <time>2026-09-01T19:56:03Z</time>
  <course>241.06</course>
  <speed>25.3</speed>
  <fix>3d</fix>
</trkpt>
<trkpt lat="-27.2751154" lon="151.2903174">
  <ele>462.95</ele>
  <time>2026-09-01T19:56:03Z</time>
  <course>245.82</course>
  <speed>25.18628595089002</speed>
  <fix>3d</fix>
</trkpt>
<trkpt lat="-27.2751067" lon="151.2903409">
  <ele>463.75</ele>
  <time>2026-09-01T19:56:03Z</time>
  <course>245.57</course>
  <speed>25.25</speed>
  <fix>3d</fix>
</trkpt>
<trkpt lat="-27.2751236" lon="151.2902937">
  <ele>462.47</ele>
  <time>2026-09-01T19:56:03Z</time>
  <course>248.1</course>
  <speed>25.16086643977111</speed>
  <fix>3d</fix>
</trkpt>
<trkpt lat="-27.2751067" lon="151.2903409">
  <ele>463.75</ele>
  <time>2026-09-01T19:56:03Z</time>
  <course>245.57</course>
  <speed>25.25</speed>
  <fix>3d</fix>
</trkpt>
<trkpt lat="-27.2751308" lon="151.2902697">
  <ele>461.99</ele>
  <time>2026-09-01T19:56:03Z</time>
  <course>250.37</course>
  <speed>25.14251379635696</speed>
  <fix>3d</fix>
</trkpt>
<trkpt lat="-27.2751238" lon="151.2902937">
  <ele>462.79</ele>
  <time>2026-09-01T19:56:03Z</time>
  <course>250.08</course>
  <speed>25.21</speed>
  <fix>3d</fix>
</trkpt>
<trkpt lat="-27.2751372" lon="151.2902457">
  <ele>461.51</ele>
  <time>2026-09-01T19:56:03Z</time>
  <course>252.61</course>
  <speed>25.118996795254382</speed>
  <fix>3d</fix>
</trkpt>
<trkpt lat="-27.2751238" lon="151.2902937">
  <ele>462.79</ele>
  <time>2026-09-01T19:56:03Z</time>
  <course>250.08</course>
  <speed>25.21</speed>
  <fix>3d</fix>
</trkpt>
<trkpt lat="-27.2751428" lon="151.2902211">
  <ele>461.02</ele>
  <time>2026-09-01T19:56:03Z</time>
  <course>254.85</course>
  <speed>25.105626859331757</speed>
  <fix>3d</fix>
</trkpt>
<trkpt lat="-27.2751375" lon="151.2902452">
  <ele>461.82</ele>
  <time>2026-09-01T19:56:03Z</time>
  <course>254.59</course>
  <speed>25.18</speed>
  <fix>3d</fix>
</trkpt>
<trkpt lat="-27.2751475" lon="151.2901964">
  <ele>460.54</ele>
  <time>2026-09-01T19:56:03Z</time>
  <course>257.11</course>
  <speed>25.0800677830025</speed>
  <fix>3d</fix>
</trkpt>
<trkpt lat="-27.2751375" lon="151.2902452">
  <ele>461.82</ele>
  <time>2026-09-01T19:56:03Z</time>
  <course>254.59</course>
  <speed>25.18</speed>
  <fix>3d</fix>
</trkpt>
<trkpt lat="-27.2751513" lon="151.2901715">
  <ele>460.04</ele>
  <time>2026-09-01T19:56:03Z</time>
  <course>259.37</course>
  <speed>25.062140770492853</speed>
  <fix>3d</fix>
</trkpt>
<trkpt lat="-27.2751477" lon="151.2901957">
  <ele>460.84</ele>
  <time>2026-09-01T19:56:03Z</time>
  <course>259.11</course>
  <speed>25.15</speed>
  <fix>3d</fix>
</trkpt>
<trkpt lat="-27.2751543" lon="151.2901463">
  <ele>459.55</ele>
  <time>2026-09-01T19:56:03Z</time>
  <course>261.67</course>
  <speed>25.052496881548553</speed>
  <fix>3d</fix>
</trkpt>
<trkpt lat="-27.2751477" lon="151.2901957">
  <ele>460.84</ele>
  <time>2026-09-01T19:56:03Z</time>
  <course>259.11</course>
  <speed>25.15</speed>
  <fix>3d</fix>
</trkpt>
<trkpt lat="-27.2751563" lon="151.2901211">
  <ele>459.05</ele>
  <time>2026-09-01T19:56:03Z</time>
  <course>263.96</course>
  <speed>25.04262965425157</speed>
  <fix>3d</fix>
</trkpt>
<trkpt lat="-27.2751545" lon="151.2901454">
  <ele>459.85</ele>
  <time>2026-09-01T19:56:03Z</time>
  <course>263.63</course>
  <speed>25.13</speed>
  <fix>3d</fix>
</trkpt>
<trkpt lat="-27.2751575" lon="151.2900959">
  <ele>458.56</ele>
  <time>2026-09-01T19:56:03Z</time>
  <course>266.21</course>
  <speed>25.03246891539067</speed>
  <fix>3d</fix>
</trkpt>
<trkpt lat="-27.2751545" lon="151.2901454">
  <ele>459.85</ele>
  <time>2026-09-01T19:56:03Z</time>
  <course>263.63</course>
  <speed>25.13</speed>
  <fix>3d</fix>
</trkpt>
<trkpt lat="-27.2751578" lon="151.2900707">
  <ele>458.07</ele>
  <time>2026-09-01T19:56:03Z</time>
  <course>268.47</course>
  <speed>25.020721412461313</speed>
  <fix>3d</fix>
</trkpt>
<trkpt lat="-27.2751577" lon="151.2900948">
  <ele>458.86</ele>
  <time>2026-09-01T19:56:03Z</time>
  <course>268.15</course>
  <speed>25.11</speed>
  <fix>3d</fix>
</trkpt>
<trkpt lat="-27.2751572" lon="151.2900455">
  <ele>457.57</ele>
  <time>2026-09-01T19:56:03Z</time>
  <course>270.71</course>
  <speed>25.006919042537007</speed>
  <fix>3d</fix>
</trkpt>
<trkpt lat="-27.2751577" lon="151.2900948">
  <ele>458.86</ele>
  <time>2026-09-01T19:56:03Z</time>
  <course>268.15</course>
  <speed>25.11</speed>
  <fix>3d</fix>
</trkpt>
<trkpt lat="-27.2751557" lon="151.2900203">
  <ele>457.08</ele>
  <time>2026-09-01T19:56:03Z</time>
  <course>272.92</course>
  <speed>25.001753938474</speed>
  <fix>3d</fix>
</trkpt>
<trkpt lat="-27.2751575" lon="151.2900441">
  <ele>457.87</ele>
  <time>2026-09-01T19:56:03Z</time>
  <course>272.64</course>
  <speed>25.1</speed>
  <fix>3d</fix>
</trkpt>
<trkpt lat="-27.2751534" lon="151.2899952">
  <ele>456.59</ele>
  <time>2026-09-01T19:56:03Z</time>
  <course>275.11</course>
  <speed>24.99176064225968</speed>
  <fix>3d</fix>
</trkpt>
<trkpt lat="-27.2751575" lon="151.2900441">
  <ele>457.87</ele>
  <time>2026-09-01T19:56:03Z</time>
  <course>272.64</course>
  <speed>25.1</speed>
  <fix>3d</fix>
</trkpt>
<trkpt lat="-27.2751503" lon="151.2899702">
  <ele>456.09</ele>
  <time>2026-09-01T19:56:03Z</time>
  <course>277.29</course>
  <speed>24.978873073059162</speed>
  <fix>3d</fix>
</trkpt>
<trkpt lat="-27.2751537" lon="151.2899935">
  <ele>456.87</ele>
  <time>2026-09-01T19:56:03Z</time>
  <course>277.09</course>
  <speed>25.08</speed>
  <fix>3d</fix>
</trkpt>
<trkpt lat="-27.2751463" lon="151.2899453">
  <ele>455.6</ele>
  <time>2026-09-01T19:56:03Z</time>
  <course>279.48</course>
  <speed>24.9794175272363</speed>
  <fix>3d</fix>
</trkpt>
<trkpt lat="-27.2751537" lon="151.2899935">
  <ele>456.87</ele>
  <time>2026-09-01T19:56:03Z</time>
  <course>277.09</course>
  <speed>25.08</speed>
  <fix>3d</fix>
</trkpt>
<trkpt lat="-27.2751415" lon="151.2899207">
  <ele>455.1</ele>
  <time>2026-09-01T19:56:03Z</time>
  <course>281.65</course>
  <speed>24.964769175780496</speed>
  <fix>3d</fix>
</trkpt>
<trkpt lat="-27.2751463" lon="151.2899434">
  <ele>455.88</ele>
  <time>2026-09-01T19:56:03Z</time>
  <course>281.47</course>
  <speed>25.07</speed>
  <fix>3d</fix>
</trkpt>
<trkpt lat="-27.2751358" lon="151.2898962">
  <ele>454.61</ele>
  <time>2026-09-01T19:56:03Z</time>
  <course>283.79</course>
  <speed>24.966707832631837</speed>
  <fix>3d</fix>
</trkpt>
<trkpt lat="-27.2751463" lon="151.2899434">
  <ele>455.88</ele>
  <time>2026-09-01T19:56:03Z</time>
  <course>281.47</course>
  <speed>25.07</speed>
  <fix>3d</fix>
</trkpt>
<trkpt lat="-27.2751294" lon="151.289872">
  <ele>454.12</ele>
  <time>2026-09-01T19:56:03Z</time>
  <course>285.89</course>
  <speed>24.967028257283644</speed>
  <fix>3d</fix>
</trkpt>
<trkpt lat="-27.2751357" lon="151.2898942">
  <ele>454.9</ele>
  <time>2026-09-01T19:56:03Z</time>
  <course>285.79</course>
  <speed>25.06</speed>
  <fix>3d</fix>
</trkpt>
<trkpt lat="-27.2751221" lon="151.2898481">
  <ele>453.64</ele>
  <time>2026-09-01T19:56:03Z</time>
  <course>287.97</course>
  <speed>24.963495348207953</speed>
  <fix>3d</fix>
</trkpt>
<trkpt lat="-27.2751357" lon="151.2898942">
  <ele>454.9</ele>
  <time>2026-09-01T19:56:03Z</time>
  <course>285.79</course>
  <speed>25.06</speed>
  <fix>3d</fix>
</trkpt>
<trkpt lat="-27.2751141" lon="151.2898245">
  <ele>453.15</ele>
  <time>2026-09-01T19:56:03Z</time>
  <course>290.04</course>
  <speed>24.957852471717192</speed>
  <fix>3d</fix>
</trkpt>
<trkpt lat="-27.2751219" lon="151.289846">
  <ele>453.92</ele>
  <time>2026-09-01T19:56:03Z</time>
  <course>290.03</course>
  <speed>25.06</speed>
  <fix>3d</fix>
</trkpt>
<trkpt lat="-27.2751053" lon="151.2898013">
  <ele>452.67</ele>
  <time>2026-09-01T19:56:03Z</time>
  <course>292.09</course>
  <speed>24.94926852635163</speed>
  <fix>3d</fix>
</trkpt>
<trkpt lat="-27.2751219" lon="151.289846">
  <ele>453.92</ele>
  <time>2026-09-01T19:56:03Z</time>
  <course>290.03</course>
  <speed>25.06</speed>
  <fix>3d</fix>
</trkpt>
<trkpt lat="-27.2750958" lon="151.2897784">
  <ele>452.19</ele>
  <time>2026-09-01T19:56:03Z</time>
  <course>294.13</course>
  <speed>24.9460377615364</speed>
  <fix>3d</fix>
</trkpt>
<trkpt lat="-27.2751049" lon="151.289799">
  <ele>452.95</ele>
  <time>2026-09-01T19:56:03Z</time>
  <course>294.16</course>
  <speed>25.05</speed>
  <fix>3d</fix>
</trkpt>
<trkpt lat="-27.2750855" lon="151.2897559">
  <ele>451.7</ele>
  <time>2026-09-01T19:56:03Z</time>
  <course>296.15</course>
  <speed>24.947152142078263</speed>
  <fix>3d</fix>
</trkpt>
<trkpt lat="-27.2751049" lon="151.289799">
  <ele>452.95</ele>
  <time>2026-09-01T19:56:03Z</time>
  <course>294.16</course>
  <speed>25.05</speed>
  <fix>3d</fix>
</trkpt>
<trkpt lat="-27.2750746" lon="151.2897338">
  <ele>451.22</ele>
  <time>2026-09-01T19:56:03Z</time>
  <course>298.13</course>
  <speed>24.938023177469383</speed>
  <fix>3d</fix>
</trkpt>
<trkpt lat="-27.2750851" lon="151.2897537">
  <ele>451.98</ele>
  <time>2026-09-01T19:56:03Z</time>
  <course>298.21</course>
  <speed>25.04</speed>
  <fix>3d</fix>
</trkpt>
<trkpt lat="-27.275063" lon="151.2897121">
  <ele>450.73</ele>
  <time>2026-09-01T19:56:03Z</time>
  <course>300.1</course>
  <speed>24.94506363992684</speed>
  <fix>3d</fix>
</trkpt>
<trkpt lat="-27.2750851" lon="151.2897537">
  <ele>451.98</ele>
  <time>2026-09-01T19:56:03Z</time>
  <course>298.21</course>
  <speed>25.04</speed>
  <fix>3d</fix>
</trkpt>
<trkpt lat="-27.2750508" lon="151.2896909">
  <ele>450.25</ele>
  <time>2026-09-01T19:56:03Z</time>
  <course>302.07</course>
  <speed>24.94012028840278</speed>
  <fix>3d</fix>
</trkpt>
<trkpt lat="-27.2750625" lon="151.28971">
  <ele>451.02</ele>
  <time>2026-09-01T19:56:03Z</time>
  <course>302.18</course>
  <speed>25.03</speed>
  <fix>3d</fix>
</trkpt>
<trkpt lat="-27.2750379" lon="151.2896702">
  <ele>449.77</ele>
  <time>2026-09-01T19:56:03Z</time>
  <course>304.01</course>
  <speed>24.93629082281485</speed>
  <fix>3d</fix>
</trkpt>
<trkpt lat="-27.2750625" lon="151.28971">
  <ele>451.02</ele>
  <time>2026-09-01T19:56:03Z</time>
  <course>302.18</course>
  <speed>25.03</speed>
  <fix>3d</fix>
</trkpt>
<trkpt lat="-27.2750243" lon="151.2896498">
  <ele>449.29</ele>
  <time>2026-09-01T19:56:03Z</time>
  <course>305.94</course>
  <speed>24.939256203824524</speed>
  <fix>3d</fix>
</trkpt>
<trkpt lat="-27.2750372" lon="151.2896682">
  <ele>450.05</ele>
  <time>2026-09-01T19:56:03Z</time>
  <course>306.09</course>
  <speed>25.02</speed>
  <fix>3d</fix>
</trkpt>
<trkpt lat="-27.2750102" lon="151.2896301">
  <ele>448.81</ele>
  <time>2026-09-01T19:56:03Z</time>
  <course>307.83</course>
  <speed>24.94423380262461</speed>
  <fix>3d</fix>
</trkpt>
<trkpt lat="-27.2750372" lon="151.2896682">
  <ele>450.05</ele>
  <time>2026-09-01T19:56:03Z</time>
  <course>306.09</course>
  <speed>25.02</speed>
  <fix>3d</fix>
</trkpt>
<trkpt lat="-27.2749955" lon="151.289611">
  <ele>448.33</ele>
  <time>2026-09-01T19:56:03Z</time>
  <course>309.65</course>
  <speed>24.942834642437898</speed>
  <fix>3d</fix>
</trkpt>
<trkpt lat="-27.2750096" lon="151.2896283">
  <ele>449.09</ele>
  <time>2026-09-01T19:56:03Z</time>
  <course>309.93</course>
  <speed>25.01</speed>
  <fix>3d</fix>
</trkpt>
<trkpt lat="-27.2749803" lon="151.2895923">
  <ele>447.85</ele>
  <time>2026-09-01T19:56:03Z</time>
  <course>311.5</course>
  <speed>24.946560885220233</speed>
  <fix>3d</fix>
</trkpt>
<trkpt lat="-27.2750096" lon="151.2896283">
  <ele>449.09</ele>
  <time>2026-09-01T19:56:03Z</time>
  <course>309.93</course>
  <speed>25.01</speed>
  <fix>3d</fix>
</trkpt>
<trkpt lat="-27.2749645" lon="151.2895742">
  <ele>447.37</ele>
  <time>2026-09-01T19:56:03Z</time>
  <course>313.35</course>
  <speed>24.95464085095195</speed>
  <fix>3d</fix>
</trkpt>
<trkpt lat="-27.2749796" lon="151.2895907">
  <ele>448.14</ele>
  <time>2026-09-01T19:56:03Z</time>
  <course>313.65</course>
  <speed>25.01</speed>
  <fix>3d</fix>
</trkpt>
<trkpt lat="-27.2749482" lon="151.2895567">
  <ele>446.88</ele>
  <time>2026-09-01T19:56:03Z</time>
  <course>315.19</course>
  <speed>24.95279543458007</speed>
  <fix>3d</fix>
</trkpt>
<trkpt lat="-27.2749796" lon="151.2895907">
  <ele>448.14</ele>
  <time>2026-09-01T19:56:03Z</time>
  <course>313.65</course>
  <speed>25.01</speed>
  <fix>3d</fix>
</trkpt>
<trkpt lat="-27.2749315" lon="151.2895398">
  <ele>446.41</ele>
  <time>2026-09-01T19:56:03Z</time>
  <course>317.07</course>
  <speed>24.96243778159497</speed>
  <fix>3d</fix>
</trkpt>
<trkpt lat="-27.2749476" lon="151.2895552">
  <ele>447.18</ele>
  <time>2026-09-01T19:56:03Z</time>
  <course>317.32</course>
  <speed>25.01</speed>
  <fix>3d</fix>
</trkpt>
<trkpt lat="-27.2749142" lon="151.2895234">
  <ele>445.92</ele>
  <time>2026-09-01T19:56:03Z</time>
  <course>318.9</course>
  <speed>24.969549455286533</speed>
  <fix>3d</fix>
</trkpt>
<trkpt lat="-27.2749476" lon="151.2895552">
  <ele>447.18</ele>
  <time>2026-09-01T19:56:03Z</time>
  <course>317.32</course>
  <speed>25.01</speed>
  <fix>3d</fix>
</trkpt>
<trkpt lat="-27.2748965" lon="151.2895077">
  <ele>445.45</ele>
  <time>2026-09-01T19:56:03Z</time>
  <course>320.7</course>
  <speed>24.980392310770462</speed>
  <fix>3d</fix>
</trkpt>
<trkpt lat="-27.2749135" lon="151.2895221">
  <ele>446.21</ele>
  <time>2026-09-01T19:56:03Z</time>
  <course>320.99</course>
  <speed>25.01</speed>
  <fix>3d</fix>
</trkpt>
<trkpt lat="-27.2748784" lon="151.2894927">
  <ele>444.97</ele>
  <time>2026-09-01T19:56:03Z</time>
  <course>322.48</course>
  <speed>24.992144765905945</speed>
  <fix>3d</fix>
</trkpt>
<trkpt lat="-27.2749135" lon="151.2895221">
  <ele>446.21</ele>
  <time>2026-09-01T19:56:03Z</time>
  <course>320.99</course>
  <speed>25.01</speed>
  <fix>3d</fix>
</trkpt>
<trkpt lat="-27.2748598" lon="151.2894783">
  <ele>444.49</ele>
  <time>2026-09-01T19:56:03Z</time>
  <course>324.26</course>
  <speed>25.000359997408037</speed>
  <fix>3d</fix>
</trkpt>
<trkpt lat="-27.2748777" lon="151.2894915">
  <ele>445.25</ele>
  <time>2026-09-01T19:56:03Z</time>
  <course>324.63</course>
  <speed>25.02</speed>
  <fix>3d</fix>
</trkpt>
<trkpt lat="-27.2748409" lon="151.2894645">
  <ele>444.01</ele>
  <time>2026-09-01T19:56:03Z</time>
  <course>326.09</course>
  <speed>25.013996082193668</speed>
  <fix>3d</fix>
</trkpt>
<trkpt lat="-27.2748777" lon="151.2894915">
  <ele>445.25</ele>
  <time>2026-09-01T19:56:03Z</time>
  <course>324.63</course>
  <speed>25.02</speed>
  <fix>3d</fix>
</trkpt>
<trkpt lat="-27.2748215" lon="151.2894514">
  <ele>443.53</ele>
  <time>2026-09-01T19:56:03Z</time>
  <course>327.92</course>
  <speed>25.021770520888403</speed>
  <fix>3d</fix>
</trkpt>
<trkpt lat="-27.2748402" lon="151.2894635">
  <ele>444.3</ele>
  <time>2026-09-01T19:56:03Z</time>
  <course>328.23</course>
  <speed>25.03</speed>
  <fix>3d</fix>
</trkpt>
<trkpt lat="-27.2748018" lon="151.289439">
  <ele>443.05</ele>
  <time>2026-09-01T19:56:03Z</time>
  <course>329.71</course>
  <speed>25.036557271318273</speed>
  <fix>3d</fix>
</trkpt>
<trkpt lat="-27.2748402" lon="151.2894635">
  <ele>444.3</ele>
  <time>2026-09-01T19:56:03Z</time>
  <course>328.23</course>
  <speed>25.03</speed>
  <fix>3d</fix>
</trkpt>
<trkpt lat="-27.2747818" lon="151.2894274">
  <ele>442.57</ele>
  <time>2026-09-01T19:56:03Z</time>
  <course>331.49</course>
  <speed>25.04850095315087</speed>
  <fix>3d</fix>
</trkpt>
<trkpt lat="-27.2748012" lon="151.2894383">
  <ele>443.34</ele>
  <time>2026-09-01T19:56:03Z</time>
  <course>331.82</course>
  <speed>25.05</speed>
  <fix>3d</fix>
</trkpt>
<trkpt lat="-27.2747614" lon="151.2894164">
  <ele>442.1</ele>
  <time>2026-09-01T19:56:03Z</time>
  <course>333.27</course>
  <speed>25.06671099286861</speed>
  <fix>3d</fix>
</trkpt>
<trkpt lat="-27.2748012" lon="151.2894383">
  <ele>443.34</ele>
  <time>2026-09-01T19:56:03Z</time>
  <course>331.82</course>
  <speed>25.05</speed>
  <fix>3d</fix>
</trkpt>
<trkpt lat="-27.2747408" lon="151.2894061">
  <ele>441.62</ele>
  <time>2026-09-01T19:56:03Z</time>
  <course>335.08</course>
  <speed>25.07334241779504</speed>
  <fix>3d</fix>
</trkpt>
<trkpt lat="-27.2747609" lon="151.2894158">
  <ele>442.39</ele>
  <time>2026-09-01T19:56:03Z</time>
  <course>335.39</course>
  <speed>25.06</speed>
  <fix>3d</fix>
</trkpt>
<trkpt lat="-27.2747198" lon="151.2893966">
  <ele>441.15</ele>
  <time>2026-09-01T19:56:03Z</time>
  <course>336.92</course>
  <speed>25.091213601577742</speed>
  <fix>3d</fix>
</trkpt>
<trkpt lat="-27.2747609" lon="151.2894158">
  <ele>442.39</ele>
  <time>2026-09-01T19:56:03Z</time>
  <course>335.39</course>
  <speed>25.06</speed>
  <fix>3d</fix>
</trkpt>
<trkpt lat="-27.2746986" lon="151.2893878">
  <ele>440.68</ele>
  <time>2026-09-01T19:56:03Z</time>
  <course>338.78</course>
  <speed>25.104748554805322</speed>
  <fix>3d</fix>
</trkpt>
<trkpt lat="-27.2747194" lon="151.2893962">
  <ele>441.45</ele>
  <time>2026-09-01T19:56:03Z</time>
  <course>338.98</course>
  <speed>25.08</speed>
  <fix>3d</fix>
</trkpt>
<trkpt lat="-27.2746772" lon="151.2893798">
  <ele>440.21</ele>
  <time>2026-09-01T19:56:03Z</time>
  <course>340.62</course>
  <speed>25.121928667998404</speed>
  <fix>3d</fix>
</trkpt>
<trkpt lat="-27.2747194" lon="151.2893962">
  <ele>441.45</ele>
  <time>2026-09-01T19:56:03Z</time>
  <course>338.98</course>
  <speed>25.08</speed>
  <fix>3d</fix>
</trkpt>
<trkpt lat="-27.2746555" lon="151.2893725">
  <ele>439.75</ele>
  <time>2026-09-01T19:56:03Z</time>
  <course>342.42</course>
  <speed>25.136063733210097</speed>
  <fix>3d</fix>
</trkpt>
<trkpt lat="-27.2746768" lon="151.2893795">
  <ele>440.51</ele>
  <time>2026-09-01T19:56:03Z</time>
  <course>342.63</course>
  <speed>25.11</speed>
  <fix>3d</fix>
</trkpt>
<trkpt lat="-27.2746338" lon="151.2893661">
  <ele>439.29</ele>
  <time>2026-09-01T19:56:03Z</time>
  <course>344.21</course>
  <speed>25.146299926629364</speed>
  <fix>3d</fix>
</trkpt>
<trkpt lat="-27.2746768" lon="151.2893795">
  <ele>440.51</ele>
  <time>2026-09-01T19:56:03Z</time>
  <course>342.63</course>
  <speed>25.11</speed>
  <fix>3d</fix>
</trkpt>
<trkpt lat="-27.2746118" lon="151.2893605">
  <ele>438.82</ele>
  <time>2026-09-01T19:56:03Z</time>
  <course>346.01</course>
  <speed>25.159590616701216</speed>
  <fix>3d</fix>
</trkpt>
<trkpt lat="-27.2746334" lon="151.2893659">
  <ele>439.58</ele>
  <time>2026-09-01T19:56:03Z</time>
  <course>346.28</course>
  <speed>25.13</speed>
  <fix>3d</fix>
</trkpt>
<trkpt lat="-27.2745896" lon="151.2893556">
  <ele>438.36</ele>
  <time>2026-09-01T19:56:03Z</time>
  <course>347.86</course>
  <speed>25.176395691202504</speed>
  <fix>3d</fix>
</trkpt>
<trkpt lat="-27.2746334" lon="151.2893659">
  <ele>439.58</ele>
  <time>2026-09-01T19:56:03Z</time>
  <course>346.28</course>
  <speed>25.13</speed>
  <fix>3d</fix>
</trkpt>
<trkpt lat="-27.2745669" lon="151.2893514">
  <ele>437.9</ele>
  <time>2026-09-01T19:56:03Z</time>
  <course>349.72</course>
  <speed>25.185886921051637</speed>
  <fix>3d</fix>
</trkpt>
<trkpt lat="-27.2745892" lon="151.2893554">
  <ele>438.66</ele>
  <time>2026-09-01T19:56:03Z</time>
  <course>349.91</course>
  <speed>25.16</speed>
  <fix>3d</fix>
</trkpt>
<trkpt lat="-27.2745444" lon="151.2893481">
  <ele>437.44</ele>
  <time>2026-09-01T19:56:03Z</time>
  <course>351.51</course>
  <speed>25.201668595551368</speed>
  <fix>3d</fix>
</trkpt>
<trkpt lat="-27.2745892" lon="151.2893554">
  <ele>438.66</ele>
  <time>2026-09-01T19:56:03Z</time>
  <course>349.91</course>
  <speed>25.16</speed>
  <fix>3d</fix>
</trkpt>
<trkpt lat="-27.2745218" lon="151.2893456">
  <ele>436.99</ele>
  <time>2026-09-01T19:56:03Z</time>
  <course>353.31</course>
  <speed>25.21429158235464</speed>
  <fix>3d</fix>
</trkpt>
<trkpt lat="-27.2745445" lon="151.2893481">
  <ele>437.74</ele>
  <time>2026-09-01T19:56:03Z</time>
  <course>353.54</course>
  <speed>25.18</speed>
  <fix>3d</fix>
</trkpt>
<trkpt lat="-27.2744992" lon="151.2893439">
  <ele>436.53</ele>
  <time>2026-09-01T19:56:04Z</time>
  <course>355.15</course>
  <speed>25.221492818625943</speed>
  <fix>3d</fix>
</trkpt>
<trkpt lat="-27.2745445" lon="151.2893481">
  <ele>437.74</ele>
  <time>2026-09-01T19:56:04Z</time>
  <course>353.54</course>
  <speed>25.18</speed>
  <fix>3d</fix>
</trkpt>
<trkpt lat="-27.2744765" lon="151.2893431">
  <ele>436.08</ele>
  <time>2026-09-01T19:56:04Z</time>
  <course>357.02</course>
  <speed>25.23401276055792</speed>
  <fix>3d</fix>
</trkpt>
<trkpt lat="-27.2744993" lon="151.289344">
  <ele>436.83</ele>
  <time>2026-09-01T19:56:04Z</time>
  <course>357.2</course>
  <speed>25.2</speed>
  <fix>3d</fix>
</trkpt>
<trkpt lat="-27.2744538" lon="151.2893431">
  <ele>435.63</ele>
  <time>2026-09-01T19:56:04Z</time>
  <course>358.85</course>
  <speed>25.252425626066103</speed>
  <fix>3d</fix>
</trkpt>
<trkpt lat="-27.2744993" lon="151.289344">
  <ele>436.83</ele>
  <time>2026-09-01T19:56:04Z</time>
  <course>357.2</course>
  <speed>25.2</speed>
  <fix>3d</fix>
</trkpt>
<trkpt lat="-27.2744311" lon="151.2893438">
  <ele>435.18</ele>
  <time>2026-09-01T19:56:04Z</time>
  <course>0.68</course>
  <speed>25.266642040445344</speed>
  <fix>3d</fix>
</trkpt>
<trkpt lat="-27.2744539" lon="151.2893432">
  <ele>435.93</ele>
  <time>2026-09-01T19:56:04Z</time>
  <course>0.88</course>
  <speed>25.23</speed>
  <fix>3d</fix>
</trkpt>
<trkpt lat="-27.2744085" lon="151.2893454">
  <ele>434.73</ele>
  <time>2026-09-01T19:56:04Z</time>
  <course>2.55</course>
  <speed>25.266915126306973</speed>
  <fix>3d</fix>
</trkpt>
<trkpt lat="-27.2744539" lon="151.2893432">
  <ele>435.93</ele>
  <time>2026-09-01T19:56:04Z</time>
  <course>0.88</course>
  <speed>25.23</speed>
  <fix>3d</fix>
</trkpt>
<trkpt lat="-27.274386" lon="151.2893478">
  <ele>434.29</ele>
  <time>2026-09-01T19:56:04Z</time>
  <course>4.36</course>
  <speed>25.273361470132937</speed>
  <fix>3d</fix>
</trkpt>
<trkpt lat="-27.2744086" lon="151.2893456">
  <ele>435.03</ele>
  <time>2026-09-01T19:56:04Z</time>
  <course>4.57</course>
  <speed>25.25</speed>
  <fix>3d</fix>
</trkpt>
<trkpt lat="-27.2743636" lon="151.289351">
  <ele>433.85</ele>
  <time>2026-09-01T19:56:04Z</time>
  <course>6.18</course>
  <speed>25.274825419772935</speed>
  <fix>3d</fix>
</trkpt>
<trkpt lat="-27.2744086" lon="151.2893456">
  <ele>435.03</ele>
  <time>2026-09-01T19:56:04Z</time>
  <course>4.57</course>
  <speed>25.25</speed>
  <fix>3d</fix>
</trkpt>
<trkpt lat="-27.2743412" lon="151.289355">
  <ele>433.41</ele>
  <time>2026-09-01T19:56:04Z</time>
  <course>8.06</course>
  <speed>25.27244546932489</speed>
  <fix>3d</fix>
</trkpt>
<trkpt lat="-27.2743635" lon="151.2893513">
  <ele>434.13</ele>
  <time>2026-09-01T19:56:04Z</time>
  <course>8.24</course>
  <speed>25.27</speed>
  <fix>3d</fix>
</trkpt>
<trkpt lat="-27.2743191" lon="151.2893599">
  <ele>432.97</ele>
  <time>2026-09-01T19:56:04Z</time>
  <course>9.93</course>
  <speed>25.27852250429206</speed>
  <fix>3d</fix>
</trkpt>
<trkpt lat="-27.2743635" lon="151.2893513">
  <ele>434.13</ele>
  <time>2026-09-01T19:56:04Z</time>
  <course>8.24</course>
  <speed>25.27</speed>
  <fix>3d</fix>
</trkpt>
<trkpt lat="-27.274297" lon="151.2893655">
  <ele>432.53</ele>
  <time>2026-09-01T19:56:04Z</time>
  <course>11.77</course>
  <speed>25.27990704096833</speed>
  <fix>3d</fix>
</trkpt>
<trkpt lat="-27.2743189" lon="151.2893602">
  <ele>433.24</ele>
  <time>2026-09-01T19:56:04Z</time>
  <course>11.93</course>
  <speed>25.28</speed>
  <fix>3d</fix>
</trkpt>
<trkpt lat="-27.2742751" lon="151.289372">
  <ele>432.08</ele>
  <time>2026-09-01T19:56:04Z</time>
  <course>13.61</course>
  <speed>25.276291262762424</speed>
  <fix>3d</fix>
</trkpt>
<trkpt lat="-27.2743189" lon="151.2893602">
  <ele>433.24</ele>
  <time>2026-09-01T19:56:04Z</time>
  <course>11.93</course>
  <speed>25.28</speed>
  <fix>3d</fix>
</trkpt>
<trkpt lat="-27.2742535" lon="151.2893792">
  <ele>431.64</ele>
  <time>2026-09-01T19:56:04Z</time>
  <course>15.52</course>
  <speed>25.270476845520744</speed>
  <fix>3d</fix>
</trkpt>
<trkpt lat="-27.2742748" lon="151.2893724">
  <ele>432.36</ele>
  <time>2026-09-01T19:56:04Z</time>
  <course>15.65</course>
  <speed>25.29</speed>
  <fix>3d</fix>
</trkpt>
<trkpt lat="-27.274232" lon="151.2893873">
  <ele>431.2</ele>
  <time>2026-09-01T19:56:04Z</time>
  <course>17.4</course>
  <speed>25.272754103975295</speed>
  <fix>3d</fix>
</trkpt>
<trkpt lat="-27.2742748" lon="151.2893724">
  <ele>432.36</ele>
  <time>2026-09-01T19:56:04Z</time>
  <course>15.65</course>
  <speed>25.29</speed>
  <fix>3d</fix>
</trkpt>
<trkpt lat="-27.2742108" lon="151.2893961">
  <ele>430.77</ele>
  <time>2026-09-01T19:56:04Z</time>
  <course>19.25</course>
  <speed>25.267182272663486</speed>
  <fix>3d</fix>
</trkpt>
<trkpt lat="-27.2742314" lon="151.2893877">
  <ele>431.47</ele>
  <time>2026-09-01T19:56:04Z</time>
  <course>19.38</course>
  <speed>25.3</speed>
  <fix>3d</fix>
</trkpt>
<trkpt lat="-27.2741898" lon="151.2894057">
  <ele>430.33</ele>
  <time>2026-09-01T19:56:04Z</time>
  <course>21.12</course>
  <speed>25.266076070494208</speed>
  <fix>3d</fix>
</trkpt>
<trkpt lat="-27.2742314" lon="151.2893877">
  <ele>431.47</ele>
  <time>2026-09-01T19:56:04Z</time>
  <course>19.38</course>
  <speed>25.3</speed>
  <fix>3d</fix>
</trkpt>
<trkpt lat="-27.2741693" lon="151.289416">
  <ele>429.9</ele>
  <time>2026-09-01T19:56:04Z</time>
  <course>22.96</course>
  <speed>25.265060854864373</speed>
  <fix>3d</fix>
</trkpt>
<trkpt lat="-27.2741891" lon="151.2894063">
  <ele>430.59</ele>
  <time>2026-09-01T19:56:04Z</time>
  <course>23.12</course>
  <speed>25.3</speed>
  <fix>3d</fix>
</trkpt>
<trkpt lat="-27.274149" lon="151.2894271">
  <ele>429.46</ele>
  <time>2026-09-01T19:56:04Z</time>
  <course>24.85</course>
  <speed>25.25429468427103</speed>
  <fix>3d</fix>
</trkpt>
<trkpt lat="-27.2741891" lon="151.2894063">
  <ele>430.59</ele>
  <time>2026-09-01T19:56:04Z</time>
  <course>23.12</course>
  <speed>25.3</speed>
  <fix>3d</fix>
</trkpt>
<trkpt lat="-27.2741289" lon="151.2894389">
  <ele>429.03</ele>
  <time>2026-09-01T19:56:04Z</time>
  <course>26.72</course>
  <speed>25.257056439735805</speed>
  <fix>3d</fix>
</trkpt>
<trkpt lat="-27.2741479" lon="151.2894279">
  <ele>429.71</ele>
  <time>2026-09-01T19:56:04Z</time>
  <course>26.85</course>
  <speed>25.31</speed>
  <fix>3d</fix>
</trkpt>
<trkpt lat="-27.2741092" lon="151.2894515">
  <ele>428.59</ele>
  <time>2026-09-01T19:56:04Z</time>
  <course>28.56</course>
  <speed>25.25569242764886</speed>
  <fix>3d</fix>
</trkpt>
<trkpt lat="-27.2741479" lon="151.2894279">
  <ele>429.71</ele>
  <time>2026-09-01T19:56:04Z</time>
  <course>26.85</course>
  <speed>25.31</speed>
  <fix>3d</fix>
</trkpt>
<trkpt lat="-27.2740897" lon="151.2894649">
  <ele>428.15</ele>
  <time>2026-09-01T19:56:04Z</time>
  <course>30.4</course>
  <speed>25.24545107539178</speed>
  <fix>3d</fix>
</trkpt>
<trkpt lat="-27.274108" lon="151.2894525">
  <ele>428.83</ele>
  <time>2026-09-01T19:56:04Z</time>
  <course>30.58</course>
  <speed>25.31</speed>
  <fix>3d</fix>
</trkpt>
<trkpt lat="-27.2740708" lon="151.2894789">
  <ele>427.71</ele>
  <time>2026-09-01T19:56:04Z</time>
  <course>32.24</course>
  <speed>25.2427593578832</speed>
  <fix>3d</fix>
</trkpt>
<trkpt lat="-27.274108" lon="151.2894525">
  <ele>428.83</ele>
  <time>2026-09-01T19:56:04Z</time>
  <course>30.58</course>
  <speed>25.31</speed>
  <fix>3d</fix>
</trkpt>
<trkpt lat="-27.2740523" lon="151.2894936">
  <ele>427.26</ele>
  <time>2026-09-01T19:56:04Z</time>
  <course>34.16</course>
  <speed>25.236263590317805</speed>
  <fix>3d</fix>
</trkpt>
<trkpt lat="-27.2740697" lon="151.28948">
  <ele>427.95</ele>
  <time>2026-09-01T19:56:04Z</time>
  <course>34.3</course>
  <speed>25.3</speed>
  <fix>3d</fix>
</trkpt>
<trkpt lat="-27.2740342" lon="151.289509">
  <ele>426.82</ele>
  <time>2026-09-01T19:56:04Z</time>
  <course>36.05</course>
  <speed>25.234757775734643</speed>
  <fix>3d</fix>
</trkpt>
<trkpt lat="-27.2740697" lon="151.28948">
  <ele>427.95</ele>
  <time>2026-09-01T19:56:04Z</time>
  <course>34.3</course>
  <speed>25.3</speed>
  <fix>3d</fix>
</trkpt>
<trkpt lat="-27.2740166" lon="151.289525">
  <ele>426.38</ele>
  <time>2026-09-01T19:56:04Z</time>
  <course>37.91</course>
  <speed>25.23223731657579</speed>
  <fix>3d</fix>
</trkpt>
<trkpt lat="-27.2740329" lon="151.2895102">
  <ele>427.06</ele>
  <time>2026-09-01T19:56:04Z</time>
  <course>38.05</course>
  <speed>25.3</speed>
  <fix>3d</fix>
</trkpt>
<trkpt lat="-27.2739994" lon="151.2895417">
  <ele>425.93</ele>
  <time>2026-09-01T19:56:04Z</time>
  <course>39.76</course>
  <speed>25.235072815428925</speed>
  <fix>3d</fix>
</trkpt>
<trkpt lat="-27.2740329" lon="151.2895102">
  <ele>427.06</ele>
  <time>2026-09-01T19:56:04Z</time>
  <course>38.05</course>
  <speed>25.3</speed>
  <fix>3d</fix>
</trkpt>
<trkpt lat="-27.2739826" lon="151.2895591">
  <ele>425.48</ele>
  <time>2026-09-01T19:56:04Z</time>
  <course>41.64</course>
  <speed>25.229659133646656</speed>
  <fix>3d</fix>
</trkpt>
<trkpt lat="-27.273998" lon="151.2895431">
  <ele>426.17</ele>
  <time>2026-09-01T19:56:04Z</time>
  <course>41.81</course>
  <speed>25.3</speed>
  <fix>3d</fix>
</trkpt>
<trkpt lat="-27.2739664" lon="151.2895771">
  <ele>425.03</ele>
  <time>2026-09-01T19:56:04Z</time>
  <course>43.51</course>
  <speed>25.230584614709187</speed>
  <fix>3d</fix>
</trkpt>
<trkpt lat="-27.273998" lon="151.2895431">
  <ele>426.17</ele>
  <time>2026-09-01T19:56:04Z</time>
  <course>41.81</course>
  <speed>25.3</speed>
  <fix>3d</fix>
</trkpt>
<trkpt lat="-27.2739508" lon="151.2895956">
  <ele>424.58</ele>
  <time>2026-09-01T19:56:04Z</time>
  <course>45.39</course>
  <speed>25.230364642628533</speed>
  <fix>3d</fix>
</trkpt>
<trkpt lat="-27.2739652" lon="151.2895784">
  <ele>425.28</ele>
  <time>2026-09-01T19:56:04Z</time>
  <course>45.56</course>
  <speed>25.3</speed>
  <fix>3d</fix>
</trkpt>
<trkpt lat="-27.2739357" lon="151.2896146">
  <ele>424.13</ele>
  <time>2026-09-01T19:56:04Z</time>
  <course>47.3</course>
  <speed>25.230128814574055</speed>
  <fix>3d</fix>
</trkpt>
<trkpt lat="-27.2739652" lon="151.2895784">
  <ele>425.28</ele>
  <time>2026-09-01T19:56:04Z</time>
  <course>45.56</course>
  <speed>25.3</speed>
  <fix>3d</fix>
</trkpt>
<trkpt lat="-27.2739212" lon="151.2896342">
  <ele>423.68</ele>
  <time>2026-09-01T19:56:04Z</time>
  <course>49.21</course>
  <speed>25.228390753276358</speed>
  <fix>3d</fix>
</trkpt>
<trkpt lat="-27.2739345" lon="151.2896161">
  <ele>424.39</ele>
  <time>2026-09-01T19:56:04Z</time>
  <course>49.34</course>
  <speed>25.29</speed>
  <fix>3d</fix>
</trkpt>
<trkpt lat="-27.2739072" lon="151.2896544">
  <ele>423.23</ele>
  <time>2026-09-01T19:56:04Z</time>
  <course>51.12</course>
  <speed>25.226006421944795</speed>
  <fix>3d</fix>
</trkpt>
<trkpt lat="-27.2739345" lon="151.2896161">
  <ele>424.39</ele>
  <time>2026-09-01T19:56:04Z</time>
  <course>49.34</course>
  <speed>25.29</speed>
  <fix>3d</fix>
</trkpt>
<trkpt lat="-27.2738939" lon="151.2896751">
  <ele>422.78</ele>
  <time>2026-09-01T19:56:04Z</time>
  <course>53.08</course>
  <speed>25.23152393336558</speed>
  <fix>3d</fix>
</trkpt>
<trkpt lat="-27.273906" lon="151.2896559">
  <ele>423.49</ele>
  <time>2026-09-01T19:56:04Z</time>
  <course>53.14</course>
  <speed>25.3</speed>
  <fix>3d</fix>
</trkpt>
<trkpt lat="-27.2738812" lon="151.2896962">
  <ele>422.33</ele>
  <time>2026-09-01T19:56:04Z</time>
  <course>54.97</course>
  <speed>25.223742783338086</speed>
  <fix>3d</fix>
</trkpt>
<trkpt lat="-27.273906" lon="151.2896559">
  <ele>423.49</ele>
  <time>2026-09-01T19:56:04Z</time>
  <course>53.14</course>
  <speed>25.3</speed>
  <fix>3d</fix>
</trkpt>
<trkpt lat="-27.2738691" lon="151.2897178">
  <ele>421.87</ele>
  <time>2026-09-01T19:56:04Z</time>
  <course>56.88</course>
  <speed>25.227576181631083</speed>
  <fix>3d</fix>
</trkpt>
<trkpt lat="-27.27388" lon="151.2896978">
  <ele>422.59</ele>
  <time>2026-09-01T19:56:04Z</time>
  <course>56.97</course>
  <speed>25.29</speed>
  <fix>3d</fix>
</trkpt>
<trkpt lat="-27.2738576" lon="151.2897399">
  <ele>421.42</ele>
  <time>2026-09-01T19:56:04Z</time>
  <course>58.84</course>
  <speed>25.227296723985308</speed>
  <fix>3d</fix>
</trkpt>
<trkpt lat="-27.27388" lon="151.2896978">
  <ele>422.59</ele>
  <time>2026-09-01T19:56:04Z</time>
  <course>56.97</course>
  <speed>25.29</speed>
  <fix>3d</fix>
</trkpt>
<trkpt lat="-27.273847" lon="151.2897622">
  <ele>420.97</ele>
  <time>2026-09-01T19:56:04Z</time>
  <course>60.78</course>
  <speed>25.229098279565996</speed>
  <fix>3d</fix>
</trkpt>
<trkpt lat="-27.2738566" lon="151.2897416">
  <ele>421.68</ele>
  <time>2026-09-01T19:56:04Z</time>
  <course>60.84</course>
  <speed>25.29</speed>
  <fix>3d</fix>
</trkpt>
<trkpt lat="-27.2738369" lon="151.2897851">
  <ele>420.52</ele>
  <time>2026-09-01T19:56:04Z</time>
  <course>62.76</course>
  <speed>25.22476957278302</speed>
  <fix>3d</fix>
</trkpt>
<trkpt lat="-27.2738566" lon="151.2897416">
  <ele>421.68</ele>
  <time>2026-09-01T19:56:04Z</time>
  <course>60.84</course>
  <speed>25.29</speed>
  <fix>3d</fix>
</trkpt>
<trkpt lat="-27.2738276" lon="151.2898084">
  <ele>420.06</ele>
  <time>2026-09-01T19:56:04Z</time>
  <course>64.72</course>
  <speed>25.227946805081064</speed>
  <fix>3d</fix>
</trkpt>
<trkpt lat="-27.2738358" lon="151.289787">
  <ele>420.77</ele>
  <time>2026-09-01T19:56:04Z</time>
  <course>64.77</course>
  <speed>25.29</speed>
  <fix>3d</fix>
</trkpt>
<trkpt lat="-27.2738189" lon="151.289832">
  <ele>419.61</ele>
  <time>2026-09-01T19:56:04Z</time>
  <course>66.7</course>
  <speed>25.229395553599776</speed>
  <fix>3d</fix>
</trkpt>
<trkpt lat="-27.2738358" lon="151.289787">
  <ele>420.77</ele>
  <time>2026-09-01T19:56:04Z</time>
  <course>64.77</course>
  <speed>25.29</speed>
  <fix>3d</fix>
</trkpt>
<trkpt lat="-27.273811" lon="151.2898559">
  <ele>419.16</ele>
  <time>2026-09-01T19:56:04Z</time>
  <course>68.68</course>
  <speed>25.225574324482682</speed>
  <fix>3d</fix>
</trkpt>
<trkpt lat="-27.2738179" lon="151.2898339">
  <ele>419.86</ele>
  <time>2026-09-01T19:56:04Z</time>
  <course>68.71</course>
  <speed>25.29</speed>
  <fix>3d</fix>
</trkpt>
<trkpt lat="-27.2738037" lon="151.2898803">
  <ele>418.7</ele>
  <time>2026-09-01T19:56:04Z</time>
  <course>70.65</course>
  <speed>25.226906270884665</speed>
  <fix>3d</fix>
</trkpt>
<trkpt lat="-27.2738179" lon="151.2898339">
  <ele>419.86</ele>
  <time>2026-09-01T19:56:04Z</time>
  <course>68.71</course>
  <speed>25.29</speed>
  <fix>3d</fix>
</trkpt>
<trkpt lat="-27.2737973" lon="151.2899048">
  <ele>418.24</ele>
  <time>2026-09-01T19:56:04Z</time>
  <course>72.66</course>
  <speed>25.230364642628533</speed>
  <fix>3d</fix>
</trkpt>
<trkpt lat="-27.2738029" lon="151.2898822">
  <ele>418.95</ele>
  <time>2026-09-01T19:56:04Z</time>
  <course>72.67</course>
  <speed>25.29</speed>
  <fix>3d</fix>
</trkpt>
<trkpt lat="-27.2737916" lon="151.2899296">
  <ele>417.78</ele>
  <time>2026-09-01T19:56:04Z</time>
  <course>74.61</course>
  <speed>25.225328540972463</speed>
  <fix>3d</fix>
</trkpt>
<trkpt lat="-27.2738029" lon="151.2898822">
  <ele>418.95</ele>
  <time>2026-09-01T19:56:04Z</time>
  <course>72.67</course>
  <speed>25.29</speed>
  <fix>3d</fix>
</trkpt>
<trkpt lat="-27.2737867" lon="151.2899545">
  <ele>417.33</ele>
  <time>2026-09-01T19:56:04Z</time>
  <course>76.54</course>
  <speed>25.230396350434134</speed>
  <fix>3d</fix>
</trkpt>
<trkpt lat="-27.2737908" lon="151.2899316">
  <ele>418.03</ele>
  <time>2026-09-01T19:56:04Z</time>
  <course>76.63</course>
  <speed>25.29</speed>
  <fix>3d</fix>
</trkpt>
<trkpt lat="-27.2737826" lon="151.2899797">
  <ele>416.87</ele>
  <time>2026-09-01T19:56:04Z</time>
  <course>78.51</course>
  <speed>25.22373683655933</speed>
  <fix>3d</fix>
</trkpt>
<trkpt lat="-27.2737908" lon="151.2899316">
  <ele>418.03</ele>
  <time>2026-09-01T19:56:04Z</time>
  <course>76.63</course>
  <speed>25.29</speed>
  <fix>3d</fix>
</trkpt>
<trkpt lat="-27.2737792" lon="151.290005">
  <ele>416.4</ele>
  <time>2026-09-01T19:56:04Z</time>
  <course>80.5</course>
  <speed>25.225467290022596</speed>
  <fix>3d</fix>
</trkpt>
<trkpt lat="-27.2737819" lon="151.2899818">
  <ele>417.12</ele>
  <time>2026-09-01T19:56:04Z</time>
  <course>80.58</course>
  <speed>25.28</speed>
  <fix>3d</fix>
</trkpt>
<trkpt lat="-27.2737765" lon="151.2900304">
  <ele>415.94</ele>
  <time>2026-09-01T19:56:04Z</time>
  <course>82.49</course>
  <speed>25.236299253258196</speed>
  <fix>3d</fix>
</trkpt>
<trkpt lat="-27.2737819" lon="151.2899818">
  <ele>417.12</ele>
  <time>2026-09-01T19:56:04Z</time>
  <course>80.58</course>
  <speed>25.28</speed>
  <fix>3d</fix>
</trkpt>
<trkpt lat="-27.2737747" lon="151.290056">
  <ele>415.48</ele>
  <time>2026-09-01T19:56:04Z</time>
  <course>84.44</course>
  <speed>25.237030332430162</speed>
  <fix>3d</fix>
</trkpt>
<trkpt lat="-27.273776" lon="151.2900324">
  <ele>416.21</ele>
  <time>2026-09-01T19:56:04Z</time>
  <course>84.54</course>
  <speed>25.28</speed>
  <fix>3d</fix>
</trkpt>
<trkpt lat="-27.2737737" lon="151.2900815">
  <ele>415.02</ele>
  <time>2026-09-01T19:56:04Z</time>
  <course>86.39</course>
  <speed>25.229165661987317</speed>
  <fix>3d</fix>
</trkpt>
<trkpt lat="-27.273776" lon="151.2900324">
  <ele>416.21</ele>
  <time>2026-09-01T19:56:04Z</time>
  <course>84.54</course>
  <speed>25.28</speed>
  <fix>3d</fix>
</trkpt>
<trkpt lat="-27.2737734" lon="151.2901071">
  <ele>414.55</ele>
  <time>2026-09-01T19:56:04Z</time>
  <course>88.4</course>
  <speed>25.230572724375484</speed>
  <fix>3d</fix>
</trkpt>
<trkpt lat="-27.2737733" lon="151.2900834">
  <ele>415.28</ele>
  <time>2026-09-01T19:56:04Z</time>
  <course>88.49</course>
  <speed>25.27</speed>
  <fix>3d</fix>
</trkpt>
<trkpt lat="-27.2737739" lon="151.2901327">
  <ele>414.08</ele>
  <time>2026-09-01T19:56:04Z</time>
  <course>90.38</course>
  <speed>25.231856848040337</speed>
  <fix>3d</fix>
</trkpt>
<trkpt lat="-27.2737733" lon="151.2900834">
  <ele>415.28</ele>
  <time>2026-09-01T19:56:04Z</time>
  <course>88.49</course>
  <speed>25.27</speed>
  <fix>3d</fix>
</trkpt>
<trkpt lat="-27.2737752" lon="151.2901583">
  <ele>413.61</ele>
  <time>2026-09-01T19:56:04Z</time>
  <course>92.32</course>
  <speed>25.233152795479203</speed>
  <fix>3d</fix>
</trkpt>
<trkpt lat="-27.2737736" lon="151.2901345">
  <ele>414.36</ele>
  <time>2026-09-01T19:56:04Z</time>
  <course>92.44</course>
  <speed>25.26</speed>
  <fix>3d</fix>
</trkpt>
<trkpt lat="-27.2737773" lon="151.2901838">
  <ele>413.15</ele>
  <time>2026-09-01T19:56:04Z</time>
  <course>94.35</course>
  <speed>25.233604578022536</speed>
  <fix>3d</fix>
</trkpt>
<trkpt lat="-27.2737736" lon="151.2901345">
  <ele>414.36</ele>
  <time>2026-09-01T19:56:04Z</time>
  <course>92.44</course>
  <speed>25.26</speed>
  <fix>3d</fix>
</trkpt>
<trkpt lat="-27.2737802" lon="151.2902093">
  <ele>412.68</ele>
  <time>2026-09-01T19:56:04Z</time>
  <course>96.33</course>
  <speed>25.22691419892651</speed>
  <fix>3d</fix>
</trkpt>
<trkpt lat="-27.273777" lon="151.2901853">
  <ele>413.43</ele>
  <time>2026-09-01T19:56:04Z</time>
  <course>96.41</course>
  <speed>25.26</speed>
  <fix>3d</fix>
</trkpt>
<trkpt lat="-27.2737838" lon="151.2902346">
  <ele>412.21</ele>
  <time>2026-09-01T19:56:04Z</time>
  <course>98.31</course>
  <speed>25.228214364080547</speed>
  <fix>3d</fix>
</trkpt>
<trkpt lat="-27.273777" lon="151.2901853">
  <ele>413.43</ele>
  <time>2026-09-01T19:56:04Z</time>
  <course>96.41</course>
  <speed>25.26</speed>
  <fix>3d</fix>
</trkpt>
<trkpt lat="-27.2737882" lon="151.2902596">
  <ele>411.74</ele>
  <time>2026-09-01T19:56:04Z</time>
  <course>100.32</course>
  <speed>25.230277445957665</speed>
  <fix>3d</fix>
</trkpt>
<trkpt lat="-27.2737836" lon="151.2902358">
  <ele>412.49</ele>
  <time>2026-09-01T19:56:04Z</time>
  <course>100.38</course>
  <speed>25.25</speed>
  <fix>3d</fix>
</trkpt>
<trkpt lat="-27.2737934" lon="151.2902843">
  <ele>411.27</ele>
  <time>2026-09-01T19:56:04Z</time>
  <course>102.3</course>
  <speed>25.219080078385094</speed>
  <fix>3d</fix>
</trkpt>
<trkpt lat="-27.2737836" lon="151.2902358">
  <ele>412.49</ele>
  <time>2026-09-01T19:56:04Z</time>
  <course>100.38</course>
  <speed>25.25</speed>
  <fix>3d</fix>
</trkpt>
<trkpt lat="-27.2737993" lon="151.290309">
  <ele>410.8</ele>
  <time>2026-09-01T19:56:04Z</time>
  <course>104.28</course>
  <speed>25.224006422453986</speed>
  <fix>3d</fix>
</trkpt>
<trkpt lat="-27.2737934" lon="151.2902856">
  <ele>411.55</ele>
  <time>2026-09-01T19:56:04Z</time>
  <course>104.37</course>
  <speed>25.24</speed>
  <fix>3d</fix>
</trkpt>
<trkpt lat="-27.2738061" lon="151.2903334">
  <ele>410.33</ele>
  <time>2026-09-01T19:56:04Z</time>
  <course>106.27</course>
  <speed>25.216066307019418</speed>
  <fix>3d</fix>
</trkpt>
<trkpt lat="-27.2737934" lon="151.2902856">
  <ele>411.55</ele>
  <time>2026-09-01T19:56:04Z</time>
  <course>104.37</course>
  <speed>25.24</speed>
  <fix>3d</fix>
</trkpt>
<trkpt lat="-27.2738135" lon="151.2903575">
  <ele>409.86</ele>
  <time>2026-09-01T19:56:04Z</time>
  <course>108.29</course>
  <speed>25.216760299451636</speed>
  <fix>3d</fix>
</trkpt>
<trkpt lat="-27.2738062" lon="151.2903346">
  <ele>410.61</ele>
  <time>2026-09-01T19:56:04Z</time>
  <course>108.38</course>
  <speed>25.23</speed>
  <fix>3d</fix>
</trkpt>
<trkpt lat="-27.2738219" lon="151.2903816">
  <ele>409.39</ele>
  <time>2026-09-01T19:56:04Z</time>
  <course>110.29</course>
  <speed>25.220335049320816</speed>
  <fix>3d</fix>
</trkpt>
<trkpt lat="-27.2738062" lon="151.2903346">
  <ele>410.61</ele>
  <time>2026-09-01T19:56:04Z</time>
  <course>108.38</course>
  <speed>25.23</speed>
  <fix>3d</fix>
</trkpt>
<trkpt lat="-27.2738308" lon="151.290405">
  <ele>408.91</ele>
  <time>2026-09-01T19:56:04Z</time>
  <course>112.3</course>
  <speed>25.215566620641308</speed>
  <fix>3d</fix>
</trkpt>
<trkpt lat="-27.273822" lon="151.2903823">
  <ele>409.66</ele>
  <time>2026-09-01T19:56:04Z</time>
  <course>112.38</course>
  <speed>25.22</speed>
  <fix>3d</fix>
</trkpt>
<trkpt lat="-27.2738405" lon="151.2904281">
  <ele>408.44</ele>
  <time>2026-09-01T19:56:04Z</time>
  <course>114.32</course>
  <speed>25.214130958650944</speed>
  <fix>3d</fix>
</trkpt>
<trkpt lat="-27.273822" lon="151.2903823">
  <ele>409.66</ele>
  <time>2026-09-01T19:56:04Z</time>
  <course>112.38</course>
  <speed>25.22</speed>
  <fix>3d</fix>
</trkpt>
<trkpt lat="-27.2738509" lon="151.2904508">
  <ele>407.96</ele>
  <time>2026-09-01T19:56:04Z</time>
  <course>116.32</course>
  <speed>25.20314662894298</speed>
  <fix>3d</fix>
</trkpt>
<trkpt lat="-27.2738407" lon="151.2904288">
  <ele>408.71</ele>
  <time>2026-09-01T19:56:04Z</time>
  <course>116.39</course>
  <speed>25.21</speed>
  <fix>3d</fix>
</trkpt>
<trkpt lat="-27.273862" lon="151.2904731">
  <ele>407.49</ele>
  <time>2026-09-01T19:56:04Z</time>
  <course>118.31</course>
  <speed>25.196446177983116</speed>
  <fix>3d</fix>
</trkpt>
<trkpt lat="-27.2738407" lon="151.2904288">
  <ele>408.71</ele>
  <time>2026-09-01T19:56:04Z</time>
  <course>116.39</course>
  <speed>25.21</speed>
  <fix>3d</fix>
</trkpt>
<trkpt lat="-27.2738738" lon="151.2904949">
  <ele>407.01</ele>
  <time>2026-09-01T19:56:04Z</time>
  <course>120.33</course>
  <speed>25.184902223355962</speed>
  <fix>3d</fix>
</trkpt>
<trkpt lat="-27.2738623" lon="151.2904737">
  <ele>407.76</ele>
  <time>2026-09-01T19:56:04Z</time>
  <course>120.41</course>
  <speed>25.19</speed>
  <fix>3d</fix>
</trkpt>
<trkpt lat="-27.2738863" lon="151.2905162">
  <ele>406.53</ele>
  <time>2026-09-01T19:56:04Z</time>
  <course>122.34</course>
  <speed>25.18229933901986</speed>
  <fix>3d</fix>
</trkpt>
<trkpt lat="-27.2738623" lon="151.2904737">
  <ele>407.76</ele>
  <time>2026-09-01T19:56:04Z</time>
  <course>120.41</course>
  <speed>25.19</speed>
  <fix>3d</fix>
</trkpt>
<trkpt lat="-27.2738994" lon="151.290537">
  <ele>406.05</ele>
  <time>2026-09-01T19:56:04Z</time>
  <course>124.35</course>
  <speed>25.17494389268822</speed>
  <fix>3d</fix>
</trkpt>
<trkpt lat="-27.2738866" lon="151.2905166">
  <ele>406.8</ele>
  <time>2026-09-01T19:56:04Z</time>
  <course>124.43</course>
  <speed>25.18</speed>
  <fix>3d</fix>
</trkpt>
<trkpt lat="-27.2739131" lon="151.2905572">
  <ele>405.56</ele>
  <time>2026-09-01T19:56:04Z</time>
  <course>126.38</course>
  <speed>25.17865167160466</speed>
  <fix>3d</fix>
</trkpt>
<trkpt lat="-27.2738866" lon="151.2905166">
  <ele>406.8</ele>
  <time>2026-09-01T19:56:04Z</time>
  <course>124.43</course>
  <speed>25.18</speed>
  <fix>3d</fix>
</trkpt>
<trkpt lat="-27.2739275" lon="151.2905769">
  <ele>405.08</ele>
  <time>2026-09-01T19:56:04Z</time>
  <course>128.41</course>
  <speed>25.169525223968765</speed>
  <fix>3d</fix>
</trkpt>
<trkpt lat="-27.2739134" lon="151.2905576">
  <ele>405.84</ele>
  <time>2026-09-01T19:56:04Z</time>
  <course>128.47</course>
  <speed>25.17</speed>
  <fix>3d</fix>
</trkpt>
<trkpt lat="-27.2739425" lon="151.290596">
  <ele>404.59</ele>
  <time>2026-09-01T19:56:04Z</time>
  <course>130.4</course>
  <speed>25.163411930817333</speed>
  <fix>3d</fix>
</trkpt>
<trkpt lat="-27.2739134" lon="151.2905576">
  <ele>405.84</ele>
  <time>2026-09-01T19:56:04Z</time>
  <course>128.47</course>
  <speed>25.17</speed>
  <fix>3d</fix>
</trkpt>
<trkpt lat="-27.273958" lon="151.2906145">
  <ele>404.1</ele>
  <time>2026-09-01T19:56:04Z</time>
  <course>132.41</course>
  <speed>25.160147058393754</speed>
  <fix>3d</fix>
</trkpt>
<trkpt lat="-27.2739428" lon="151.2905962">
  <ele>404.89</ele>
  <time>2026-09-01T19:56:04Z</time>
  <course>132.5</course>
  <speed>25.16</speed>
  <fix>3d</fix>
</trkpt>
<trkpt lat="-27.2739742" lon="151.2906324">
  <ele>403.61</ele>
  <time>2026-09-01T19:56:04Z</time>
  <course>134.36</course>
  <speed>25.152415390971896</speed>
  <fix>3d</fix>
</trkpt>
<trkpt lat="-27.2739428" lon="151.2905962">
  <ele>404.89</ele>
  <time>2026-09-01T19:56:04Z</time>
  <course>132.5</course>
  <speed>25.16</speed>
  <fix>3d</fix>
</trkpt>
<trkpt lat="-27.2739909" lon="151.2906496">
  <ele>403.13</ele>
  <time>2026-09-01T19:56:04Z</time>
  <course>136.36</course>
  <speed>25.146172671005026</speed>
  <fix>3d</fix>
</trkpt>
<trkpt lat="-27.2739745" lon="151.2906325">
  <ele>403.92</ele>
  <time>2026-09-01T19:56:04Z</time>
  <course>136.5</course>
  <speed>25.15</speed>
  <fix>3d</fix>
</trkpt>
<trkpt lat="-27.2740081" lon="151.2906662">
  <ele>402.64</ele>
  <time>2026-09-01T19:56:04Z</time>
  <course>138.38</course>
  <speed>25.1427484575573</speed>
  <fix>3d</fix>
</trkpt>
<trkpt lat="-27.2739745" lon="151.2906325">
  <ele>403.92</ele>
  <time>2026-09-01T19:56:04Z</time>
  <course>136.5</course>
  <speed>25.15</speed>
  <fix>3d</fix>
</trkpt>
<trkpt lat="-27.2740258" lon="151.290682">
  <ele>402.15</ele>
  <time>2026-09-01T19:56:04Z</time>
  <course>140.35</course>
  <speed>25.134114267266312</speed>
  <fix>3d</fix>
</trkpt>
<trkpt lat="-27.2740083" lon="151.2906661">
  <ele>402.95</ele>
  <time>2026-09-01T19:56:04Z</time>
  <course>140.47</course>
  <speed>25.14</speed>
  <fix>3d</fix>
</trkpt>
<trkpt lat="-27.274044" lon="151.2906972">
  <ele>401.66</ele>
  <time>2026-09-01T19:56:04Z</time>
  <course>142.36</course>
  <speed>25.133931248413965</speed>
  <fix>3d</fix>
</trkpt>
<trkpt lat="-27.2740083" lon="151.2906661">
  <ele>402.95</ele>
  <time>2026-09-01T19:56:04Z</time>
  <course>140.47</course>
  <speed>25.14</speed>
  <fix>3d</fix>
</trkpt>
<trkpt lat="-27.2740626" lon="151.2907117">
  <ele>401.17</ele>
  <time>2026-09-01T19:56:04Z</time>
  <course>144.37</course>
  <speed>25.13071825475746</speed>
  <fix>3d</fix>
</trkpt>
<trkpt lat="-27.2740441" lon="151.2906971">
  <ele>401.98</ele>
  <time>2026-09-01T19:56:04Z</time>
  <course>144.46</course>
  <speed>25.13</speed>
  <fix>3d</fix>
</trkpt>
<trkpt lat="-27.2740817" lon="151.2907254">
  <ele>400.69</ele>
  <time>2026-09-01T19:56:04Z</time>
  <course>146.37</course>
  <speed>25.13636807496262</speed>
  <fix>3d</fix>
</trkpt>
<trkpt lat="-27.2740441" lon="151.2906971">
  <ele>401.98</ele>
  <time>2026-09-01T19:56:04Z</time>
  <course>144.46</course>
  <speed>25.13</speed>
  <fix>3d</fix>
</trkpt>
<trkpt lat="-27.2741012" lon="151.2907383">
  <ele>400.2</ele>
  <time>2026-09-01T19:56:04Z</time>
  <course>148.39</course>
  <speed>25.128282870104755</speed>
  <fix>3d</fix>
</trkpt>
<trkpt lat="-27.2740817" lon="151.2907251">
  <ele>401.01</ele>
  <time>2026-09-01T19:56:04Z</time>
  <course>148.46</course>
  <speed>25.12</speed>
  <fix>3d</fix>
</trkpt>
<trkpt lat="-27.2741211" lon="151.2907505">
  <ele>399.71</ele>
  <time>2026-09-01T19:56:04Z</time>
  <course>150.4</course>
  <speed>25.13275353000542</speed>
  <fix>3d</fix>
</trkpt>
<trkpt lat="-27.2740817" lon="151.2907251">
  <ele>401.01</ele>
  <time>2026-09-01T19:56:04Z</time>
  <course>148.46</course>
  <speed>25.12</speed>
  <fix>3d</fix>
</trkpt>
<trkpt lat="-27.2741415" lon="151.2907619">
  <ele>399.22</ele>
  <time>2026-09-01T19:56:04Z</time>
  <course>152.38</course>
  <speed>25.12836047178566</speed>
  <fix>3d</fix>
</trkpt>
<trkpt lat="-27.2741209" lon="151.2907501">
  <ele>400.03</ele>
  <time>2026-09-01T19:56:04Z</time>
  <course>152.47</course>
  <speed>25.11</speed>
  <fix>3d</fix>
</trkpt>
<trkpt lat="-27.2741619" lon="151.2907724">
  <ele>398.73</ele>
  <time>2026-09-01T19:56:04Z</time>
  <course>154.41</course>
  <speed>25.123345716683517</speed>
  <fix>3d</fix>
</trkpt>
<trkpt lat="-27.2741209" lon="151.2907501">
  <ele>400.03</ele>
  <time>2026-09-01T19:56:04Z</time>
  <course>152.47</course>
  <speed>25.11</speed>
  <fix>3d</fix>
</trkpt>
<trkpt lat="-27.2741827" lon="151.2907821">
  <ele>398.24</ele>
  <time>2026-09-01T19:56:04Z</time>
  <course>156.47</course>
  <speed>25.113701439652417</speed>
  <fix>3d</fix>
</trkpt>
<trkpt lat="-27.2741616" lon="151.290772">
  <ele>399.06</ele>
  <time>2026-09-01T19:56:04Z</time>
  <course>156.48</course>
  <speed>25.11</speed>
  <fix>3d</fix>
</trkpt>
<trkpt lat="-27.2742038" lon="151.290791">
  <ele>397.75</ele>
  <time>2026-09-01T19:56:04Z</time>
  <course>158.49</course>
  <speed>25.112964779173325</speed>
  <fix>3d</fix>
</trkpt>
<trkpt lat="-27.2741616" lon="151.290772">
  <ele>399.06</ele>
  <time>2026-09-01T19:56:04Z</time>
  <course>156.48</course>
  <speed>25.11</speed>
  <fix>3d</fix>
</trkpt>
<trkpt lat="-27.2742251" lon="151.290799">
  <ele>397.27</ele>
  <time>2026-09-01T19:56:04Z</time>
  <course>160.5</course>
  <speed>25.10231264246384</speed>
  <fix>3d</fix>
</trkpt>
<trkpt lat="-27.2742037" lon="151.2907905">
  <ele>398.09</ele>
  <time>2026-09-01T19:56:04Z</time>
  <course>160.52</course>
  <speed>25.11</speed>
  <fix>3d</fix>
</trkpt>
<trkpt lat="-27.2742466" lon="151.2908061">
  <ele>396.78</ele>
  <time>2026-09-01T19:56:04Z</time>
  <course>162.51</course>
  <speed>25.091082081090086</speed>
  <fix>3d</fix>
</trkpt>
<trkpt lat="-27.2742037" lon="151.2907905">
  <ele>398.09</ele>
  <time>2026-09-01T19:56:04Z</time>
  <course>160.52</course>
  <speed>25.11</speed>
  <fix>3d</fix>
</trkpt>
<trkpt lat="-27.2742684" lon="151.2908124">
  <ele>396.29</ele>
  <time>2026-09-01T19:56:04Z</time>
  <course>164.54</course>
  <speed>25.091482618609845</speed>
  <fix>3d</fix>
</trkpt>
<trkpt lat="-27.2742468" lon="151.2908058">
  <ele>397.11</ele>
  <time>2026-09-01T19:56:04Z</time>
  <course>164.55</course>
  <speed>25.1</speed>
  <fix>3d</fix>
</trkpt>
<trkpt lat="-27.2742903" lon="151.2908178">
  <ele>395.81</ele>
  <time>2026-09-01T19:56:04Z</time>
  <course>166.55</course>
  <speed>25.081397488975767</speed>
  <fix>3d</fix>
</trkpt>
<trkpt lat="-27.2742468" lon="151.2908058">
  <ele>397.11</ele>
  <time>2026-09-01T19:56:04Z</time>
  <course>164.55</course>
  <speed>25.1</speed>
  <fix>3d</fix>
</trkpt>
<trkpt lat="-27.2743124" lon="151.2908224">
  <ele>395.33</ele>
  <time>2026-09-01T19:56:04Z</time>
  <course>168.53</course>
  <speed>25.082354355203577</speed>
  <fix>3d</fix>
</trkpt>
<trkpt lat="-27.2742906" lon="151.2908176">
  <ele>396.14</ele>
  <time>2026-09-01T19:56:04Z</time>
  <course>168.55</course>
  <speed>25.1</speed>
  <fix>3d</fix>
</trkpt>
<trkpt lat="-27.2743347" lon="151.2908261">
  <ele>394.85</ele>
  <time>2026-09-01T19:56:04Z</time>
  <course>170.53</course>
  <speed>25.07283789282737</speed>
  <fix>3d</fix>
</trkpt>
<trkpt lat="-27.2742906" lon="151.2908176">
  <ele>396.14</ele>
  <time>2026-09-01T19:56:04Z</time>
  <course>168.55</course>
  <speed>25.1</speed>
  <fix>3d</fix>
</trkpt>
<trkpt lat="-27.274357" lon="151.2908289">
  <ele>394.37</ele>
  <time>2026-09-01T19:56:04Z</time>
  <course>172.52</course>
  <speed>25.06516507027233</speed>
  <fix>3d</fix>
</trkpt>
<trkpt lat="-27.2743351" lon="151.2908259">
  <ele>395.17</ele>
  <time>2026-09-01T19:56:04Z</time>
  <course>172.55</course>
  <speed>25.1</speed>
  <fix>3d</fix>
</trkpt>
<trkpt lat="-27.2743794" lon="151.2908309">
  <ele>393.88</ele>
  <time>2026-09-01T19:56:04Z</time>
  <course>174.53</course>
  <speed>25.056146950399217</speed>
  <fix>3d</fix>
</trkpt>
<trkpt lat="-27.2743351" lon="151.2908259">
  <ele>395.17</ele>
  <time>2026-09-01T19:56:04Z</time>
  <course>172.55</course>
  <speed>25.1</speed>
  <fix>3d</fix>
</trkpt>
<trkpt lat="-27.2744019" lon="151.290832">
  <ele>393.4</ele>
  <time>2026-09-01T19:56:04Z</time>
  <course>176.52</course>
  <speed>25.058431714694358</speed>
  <fix>3d</fix>
</trkpt>
<trkpt lat="-27.27438" lon="151.2908307">
  <ele>394.21</ele>
  <time>2026-09-01T19:56:04Z</time>
  <course>176.53</course>
  <speed>25.09</speed>
  <fix>3d</fix>
</trkpt>
<trkpt lat="-27.2744244" lon="151.2908322">
  <ele>392.93</ele>
  <time>2026-09-01T19:56:04Z</time>
  <course>178.53</course>
  <speed>25.050966049236504</speed>
  <fix>3d</fix>
</trkpt>
<trkpt lat="-27.27438" lon="151.2908307">
  <ele>394.21</ele>
  <time>2026-09-01T19:56:04Z</time>
  <course>176.53</course>
  <speed>25.09</speed>
  <fix>3d</fix>
</trkpt>
<trkpt lat="-27.2744469" lon="151.2908316">
  <ele>392.45</ele>
  <time>2026-09-01T19:56:04Z</time>
  <course>180.54</course>
  <speed>25.044168982020548</speed>
  <fix>3d</fix>
</trkpt>
<trkpt lat="-27.274425" lon="151.290832">
  <ele>393.25</ele>
  <time>2026-09-01T19:56:04Z</time>
  <course>180.53</course>
  <speed>25.08</speed>
  <fix>3d</fix>
</trkpt>
<trkpt lat="-27.2744693" lon="151.29083">
  <ele>391.97</ele>
  <time>2026-09-01T19:56:04Z</time>
  <course>182.51</course>
  <speed>25.03683686091356</speed>
  <fix>3d</fix>
</trkpt>
<trkpt lat="-27.274425" lon="151.290832">
  <ele>393.25</ele>
  <time>2026-09-01T19:56:04Z</time>
  <course>180.53</course>
  <speed>25.08</speed>
  <fix>3d</fix>
</trkpt>
<trkpt lat="-27.2744917" lon="151.2908276">
  <ele>391.5</ele>
  <time>2026-09-01T19:56:04Z</time>
  <course>184.46</course>
  <speed>25.029368749531017</speed>
  <fix>3d</fix>
</trkpt>
<trkpt lat="-27.27447" lon="151.2908298">
  <ele>392.28</ele>
  <time>2026-09-01T19:56:04Z</time>
  <course>184.51</course>
  <speed>25.08</speed>
  <fix>3d</fix>
</trkpt>
<trkpt lat="-27.274514" lon="151.2908243">
  <ele>391.02</ele>
  <time>2026-09-01T19:56:04Z</time>
  <course>186.39</course>
  <speed>25.01915466197849</speed>
  <fix>3d</fix>
</trkpt>
<trkpt lat="-27.27447" lon="151.2908298">
  <ele>392.28</ele>
  <time>2026-09-01T19:56:04Z</time>
  <course>184.51</course>
  <speed>25.08</speed>
  <fix>3d</fix>
</trkpt>
<trkpt lat="-27.2745361" lon="151.2908202">
  <ele>390.54</ele>
  <time>2026-09-01T19:56:04Z</time>
  <course>188.36</course>
  <speed>25.01803549441882</speed>
  <fix>3d</fix>
</trkpt>
<trkpt lat="-27.2745147" lon="151.2908241">
  <ele>391.33</ele>
  <time>2026-09-01T19:56:04Z</time>
  <course>188.43</course>
  <speed>25.07</speed>
  <fix>3d</fix>
</trkpt>
<trkpt lat="-27.2745582" lon="151.2908152">
  <ele>390.06</ele>
  <time>2026-09-01T19:56:04Z</time>
  <course>190.34</course>
  <speed>25.004675562782253</speed>
  <fix>3d</fix>
</trkpt>
<trkpt lat="-27.2745147" lon="151.2908241">
  <ele>391.33</ele>
  <time>2026-09-01T19:56:04Z</time>
  <course>188.43</course>
  <speed>25.07</speed>
  <fix>3d</fix>
</trkpt>
<trkpt lat="-27.27458" lon="151.2908094">
  <ele>389.58</ele>
  <time>2026-09-01T19:56:04Z</time>
  <course>192.28</course>
  <speed>24.998307942738844</speed>
  <fix>3d</fix>
</trkpt>
<trkpt lat="-27.2745589" lon="151.290815">
  <ele>390.38</ele>
  <time>2026-09-01T19:56:04Z</time>
  <course>192.32</course>
  <speed>25.05</speed>
  <fix>3d</fix>
</trkpt>
<trkpt lat="-27.2746015" lon="151.2908028">
  <ele>389.11</ele>
  <time>2026-09-01T19:56:04Z</time>
  <course>194.22</course>
  <speed>24.991616594370203</speed>
  <fix>3d</fix>
</trkpt>
<trkpt lat="-27.2745589" lon="151.290815">
  <ele>390.38</ele>
  <time>2026-09-01T19:56:04Z</time>
  <course>192.32</course>
  <speed>25.05</speed>
  <fix>3d</fix>
</trkpt>
<trkpt lat="-27.274623" lon="151.2907954">
  <ele>388.63</ele>
  <time>2026-09-01T19:56:04Z</time>
  <course>196.16</course>
  <speed>24.98231374392692</speed>
  <fix>3d</fix>
</trkpt>
<trkpt lat="-27.2746026" lon="151.2908026">
  <ele>389.42</ele>
  <time>2026-09-01T19:56:04Z</time>
  <course>196.22</course>
  <speed>25.04</speed>
  <fix>3d</fix>
</trkpt>
<trkpt lat="-27.2746442" lon="151.2907871">
  <ele>388.16</ele>
  <time>2026-09-01T19:56:04Z</time>
  <course>198.04</course>
  <speed>24.989143642790165</speed>
  <fix>3d</fix>
</trkpt>
<trkpt lat="-27.2746026" lon="151.2908026">
  <ele>389.42</ele>
  <time>2026-09-01T19:56:04Z</time>
  <course>196.22</course>
  <speed>25.04</speed>
  <fix>3d</fix>
</trkpt>
<trkpt lat="-27.2746651" lon="151.2907781">
  <ele>387.68</ele>
  <time>2026-09-01T19:56:04Z</time>
  <course>200.02</course>
  <speed>24.98364465005056</speed>
  <fix>3d</fix>
</trkpt>
<trkpt lat="-27.2746454" lon="151.2907867">
  <ele>388.47</ele>
  <time>2026-09-01T19:56:04Z</time>
  <course>200.11</course>
  <speed>25.03</speed>
  <fix>3d</fix>
</trkpt>
<trkpt lat="-27.274686" lon="151.2907681">
  <ele>387.2</ele>
  <time>2026-09-01T19:56:04Z</time>
  <course>202.0</course>
  <speed>24.9754859812577</speed>
  <fix>3d</fix>
</trkpt>
<trkpt lat="-27.2746454" lon="151.2907867">
  <ele>388.47</ele>
  <time>2026-09-01T19:56:04Z</time>
  <course>200.11</course>
  <speed>25.03</speed>
  <fix>3d</fix>
</trkpt>
<trkpt lat="-27.2747064" lon="151.2907575">
  <ele>386.72</ele>
  <time>2026-09-01T19:56:04Z</time>
  <course>203.92</course>
  <speed>24.973946424223787</speed>
  <fix>3d</fix>
</trkpt>
<trkpt lat="-27.2746871" lon="151.2907677">
  <ele>387.51</ele>
  <time>2026-09-01T19:56:04Z</time>
  <course>203.99</course>
  <speed>25.03</speed>
  <fix>3d</fix>
</trkpt>
<trkpt lat="-27.2747266" lon="151.290746">
  <ele>386.24</ele>
  <time>2026-09-01T19:56:04Z</time>
  <course>205.87</course>
  <speed>24.974292782779656</speed>
  <fix>3d</fix>
</trkpt>
<trkpt lat="-27.2746871" lon="151.2907677">
  <ele>387.51</ele>
  <time>2026-09-01T19:56:04Z</time>
  <course>203.99</course>
  <speed>25.03</speed>
  <fix>3d</fix>
</trkpt>
<trkpt lat="-27.2747463" lon="151.2907338">
  <ele>385.76</ele>
  <time>2026-09-01T19:56:04Z</time>
  <course>207.8</course>
  <speed>24.971924235028425</speed>
  <fix>3d</fix>
</trkpt>
<trkpt lat="-27.2747275" lon="151.2907456">
  <ele>386.56</ele>
  <time>2026-09-01T19:56:04Z</time>
  <course>207.87</course>
  <speed>25.02</speed>
  <fix>3d</fix>
</trkpt>
<trkpt lat="-27.2747656" lon="151.2907209">
  <ele>385.28</ele>
  <time>2026-09-01T19:56:04Z</time>
  <course>209.72</course>
  <speed>24.975932415027074</speed>
  <fix>3d</fix>
</trkpt>
<trkpt lat="-27.2747275" lon="151.2907456">
  <ele>386.56</ele>
  <time>2026-09-01T19:56:04Z</time>
  <course>207.87</course>
  <speed>25.02</speed>
  <fix>3d</fix>
</trkpt>
<trkpt lat="-27.2747845" lon="151.2907072">
  <ele>384.8</ele>
  <time>2026-09-01T19:56:04Z</time>
  <course>211.68</course>
  <speed>24.978150451944995</speed>
  <fix>3d</fix>
</trkpt>
<trkpt lat="-27.2747665" lon="151.2907205">
  <ele>385.61</ele>
  <time>2026-09-01T19:56:04Z</time>
  <course>211.75</course>
  <speed>25.02</speed>
  <fix>3d</fix>
</trkpt>
<trkpt lat="-27.274803" lon="151.2906929">
  <ele>384.32</ele>
  <time>2026-09-01T19:56:04Z</time>
  <course>213.72</course>
  <speed>24.98749487243569</speed>
  <fix>3d</fix>
</trkpt>
<trkpt lat="-27.2747665" lon="151.2907205">
  <ele>385.61</ele>
  <time>2026-09-01T19:56:04Z</time>
  <course>211.75</course>
  <speed>25.02</speed>
  <fix>3d</fix>
</trkpt>
<trkpt lat="-27.274821" lon="151.2906778">
  <ele>383.85</ele>
  <time>2026-09-01T19:56:04Z</time>
  <course>215.84</course>
  <speed>24.992738945541763</speed>
  <fix>3d</fix>
</trkpt>
<trkpt lat="-27.2748039" lon="151.2906924">
  <ele>384.65</ele>
  <time>2026-09-01T19:56:04Z</time>
  <course>215.7</course>
  <speed>25.03</speed>
  <fix>3d</fix>
</trkpt>
<trkpt lat="-27.2748386" lon="151.290662">
  <ele>383.38</ele>
  <time>2026-09-01T19:56:04Z</time>
  <course>217.95</course>
  <speed>25.008166666111293</speed>
  <fix>3d</fix>
</trkpt>
<trkpt lat="-27.2748039" lon="151.2906924">
  <ele>384.65</ele>
  <time>2026-09-01T19:56:04Z</time>
  <course>215.7</course>
  <speed>25.03</speed>
  <fix>3d</fix>
</trkpt>
<trkpt lat="-27.2748556" lon="151.2906454">
  <ele>382.92</ele>
  <time>2026-09-01T19:56:04Z</time>
  <course>220.13</course>
  <speed>25.026006473266968</speed>
  <fix>3d</fix>
</trkpt>
<trkpt lat="-27.2748395" lon="151.2906614">
  <ele>383.71</ele>
  <time>2026-09-01T19:56:04Z</time>
  <course>219.8</course>
  <speed>25.05</speed>
  <fix>3d</fix>
</trkpt>
<trkpt lat="-27.2748721" lon="151.2906282">
  <ele>382.47</ele>
  <time>2026-09-01T19:56:04Z</time>
  <course>222.31</course>
  <speed>25.04212650714791</speed>
  <fix>3d</fix>
</trkpt>
<trkpt lat="-27.2748395" lon="151.2906614">
  <ele>383.71</ele>
  <time>2026-09-01T19:56:04Z</time>
  <course>219.8</course>
  <speed>25.05</speed>
  <fix>3d</fix>
</trkpt>
<trkpt lat="-27.274888" lon="151.2906103">
  <ele>382.02</ele>
  <time>2026-09-01T19:56:04Z</time>
  <course>224.5</course>
  <speed>25.058709064913938</speed>
  <fix>3d</fix>
</trkpt>
<trkpt lat="-27.274873" lon="151.2906276">
  <ele>382.8</ele>
  <time>2026-09-01T19:56:04Z</time>
  <course>224.05</course>
  <speed>25.08</speed>
  <fix>3d</fix>
</trkpt>
<trkpt lat="-27.2749033" lon="151.2905916">
  <ele>381.59</ele>
  <time>2026-09-01T19:56:04Z</time>
  <course>226.76</course>
  <speed>25.08390918497354</speed>
  <fix>3d</fix>
</trkpt>
<trkpt lat="-27.274873" lon="151.2906276">
  <ele>382.8</ele>
  <time>2026-09-01T19:56:04Z</time>
  <course>224.05</course>
  <speed>25.08</speed>
  <fix>3d</fix>
</trkpt>
<trkpt lat="-27.2749179" lon="151.2905723">
  <ele>381.16</ele>
  <time>2026-09-01T19:56:04Z</time>
  <course>229.04</course>
  <speed>25.106471277342024</speed>
  <fix>3d</fix>
</trkpt>
<trkpt lat="-27.2749041" lon="151.290591">
  <ele>381.92</ele>
  <time>2026-09-01T19:56:04Z</time>
  <course>228.45</course>
  <speed>25.12</speed>
  <fix>3d</fix>
</trkpt>
<trkpt lat="-27.2749319" lon="151.2905524">
  <ele>380.76</ele>
  <time>2026-09-01T19:56:04Z</time>
  <course>231.32</course>
  <speed>25.12609201606967</speed>
  <fix>3d</fix>
</trkpt>
<trkpt lat="-27.2749041" lon="151.290591">
  <ele>381.92</ele>
  <time>2026-09-01T19:56:04Z</time>
  <course>228.45</course>
  <speed>25.12</speed>
  <fix>3d</fix>
</trkpt>
<trkpt lat="-27.2749452" lon="151.2905318">
  <ele>380.36</ele>
  <time>2026-09-01T19:56:04Z</time>
  <course>233.59</course>
  <speed>25.13758142701879</speed>
  <fix>3d</fix>
</trkpt>
<trkpt lat="-27.2749327" lon="151.2905516">
  <ele>381.1</ele>
  <time>2026-09-01T19:56:04Z</time>
  <course>232.97</course>
  <speed>25.16</speed>
  <fix>3d</fix>
</trkpt>
<trkpt lat="-27.2749577" lon="151.2905106">
  <ele>379.99</ele>
  <time>2026-09-01T19:56:04Z</time>
  <course>235.88</course>
  <speed>25.158753943707147</speed>
  <fix>3d</fix>
</trkpt>
<trkpt lat="-27.2749327" lon="151.2905516">
  <ele>381.1</ele>
  <time>2026-09-01T19:56:04Z</time>
  <course>232.97</course>
  <speed>25.16</speed>
  <fix>3d</fix>
</trkpt>
<trkpt lat="-27.2749694" lon="151.2904891">
  <ele>379.63</ele>
  <time>2026-09-01T19:56:04Z</time>
  <course>238.17</course>
  <speed>25.166209488121172</speed>
  <fix>3d</fix>
</trkpt>
<trkpt lat="-27.2749584" lon="151.2905099">
  <ele>380.33</ele>
  <time>2026-09-01T19:56:04Z</time>
  <course>237.53</course>
  <speed>25.19</speed>
  <fix>3d</fix>
</trkpt>
<trkpt lat="-27.2749804" lon="151.2904669">
  <ele>379.29</ele>
  <time>2026-09-01T19:56:04Z</time>
  <course>240.47</course>
  <speed>25.180679101247446</speed>
  <fix>3d</fix>
</trkpt>
<trkpt lat="-27.2749584" lon="151.2905099">
  <ele>380.33</ele>
  <time>2026-09-01T19:56:04Z</time>
  <course>237.53</course>
  <speed>25.19</speed>
  <fix>3d</fix>
</trkpt>
<trkpt lat="-27.2749906" lon="151.2904441">
  <ele>378.96</ele>
  <time>2026-09-01T19:56:04Z</time>
  <course>242.76</course>
  <speed>25.186031843067298</speed>
  <fix>3d</fix>
</trkpt>
<trkpt lat="-27.2749812" lon="151.2904658">
  <ele>379.62</ele>
  <time>2026-09-01T19:56:04Z</time>
  <course>242.1</course>
  <speed>25.22</speed>
  <fix>3d</fix>
</trkpt>
<trkpt lat="-27.275" lon="151.290421">
  <ele>378.65</ele>
  <time>2026-09-01T19:56:04Z</time>
  <course>244.96</course>
  <speed>25.191214738475793</speed>
  <fix>3d</fix>
</trkpt>
<trkpt lat="-27.2749812" lon="151.2904658">
  <ele>379.62</ele>
  <time>2026-09-01T19:56:04Z</time>
  <course>242.1</course>
  <speed>25.22</speed>
  <fix>3d</fix>
</trkpt>
<trkpt lat="-27.2750087" lon="151.2903972">
  <ele>378.35</ele>
  <time>2026-09-01T19:56:04Z</time>
  <course>247.18</course>
  <speed>25.18957919457965</speed>
  <fix>3d</fix>
</trkpt>
<trkpt lat="-27.2750008" lon="151.2904198">
  <ele>378.97</ele>
  <time>2026-09-01T19:56:04Z</time>
  <course>246.64</course>
  <speed>25.23</speed>
  <fix>3d</fix>
</trkpt>
<trkpt lat="-27.2750165" lon="151.2903733">
  <ele>378.07</ele>
  <time>2026-09-01T19:56:04Z</time>
  <course>249.36</course>
  <speed>25.178919754429497</speed>
  <fix>3d</fix>
</trkpt>
<trkpt lat="-27.2750008" lon="151.2904198">
  <ele>378.97</ele>
  <time>2026-09-01T19:56:04Z</time>
  <course>246.64</course>
  <speed>25.23</speed>
  <fix>3d</fix>
</trkpt>
<trkpt lat="-27.2750234" lon="151.290349">
  <ele>377.8</ele>
  <time>2026-09-01T19:56:04Z</time>
  <course>251.5</course>
  <speed>25.17935066676661</speed>
  <fix>3d</fix>
</trkpt>
<trkpt lat="-27.2750171" lon="151.2903721">
  <ele>378.39</ele>
  <time>2026-09-01T19:56:04Z</time>
  <course>251.08</course>
  <speed>25.22</speed>
  <fix>3d</fix>
</trkpt>
<trkpt lat="-27.2750298" lon="151.2903237">
  <ele>377.53</ele>
  <time>2026-09-01T19:56:04Z</time>
  <course>253.69</course>
  <speed>25.16397623588132</speed>
  <fix>3d</fix>
</trkpt>
<trkpt lat="-27.2750171" lon="151.2903721">
  <ele>378.39</ele>
  <time>2026-09-01T19:56:04Z</time>
  <course>251.08</course>
  <speed>25.22</speed>
  <fix>3d</fix>
</trkpt>
<trkpt lat="-27.275035" lon="151.2902992">
  <ele>377.3</ele>
  <time>2026-09-01T19:56:04Z</time>
  <course>255.76</course>
  <speed>25.15094431626773</speed>
  <fix>3d</fix>
</trkpt>
<trkpt lat="-27.2750301" lon="151.2903233">
  <ele>377.86</ele>
  <time>2026-09-01T19:56:04Z</time>
  <course>255.39</course>
  <speed>25.2</speed>
  <fix>3d</fix>
</trkpt>
<trkpt lat="-27.2750396" lon="151.2902742">
  <ele>377.07</ele>
  <time>2026-09-01T19:56:04Z</time>
  <course>257.83</course>
  <speed>25.129838837525398</speed>
  <fix>3d</fix>
</trkpt>
<trkpt lat="-27.2750301" lon="151.2903233">
  <ele>377.86</ele>
  <time>2026-09-01T19:56:04Z</time>
  <course>255.39</course>
  <speed>25.2</speed>
  <fix>3d</fix>
</trkpt>
<trkpt lat="-27.2750433" lon="151.2902491">
  <ele>376.85</ele>
  <time>2026-09-01T19:56:04Z</time>
  <course>259.81</course>
  <speed>25.115176686617197</speed>
  <fix>3d</fix>
</trkpt>
<trkpt lat="-27.27504" lon="151.2902737">
  <ele>377.38</ele>
  <time>2026-09-01T19:56:04Z</time>
  <course>259.58</course>
  <speed>25.17</speed>
  <fix>3d</fix>
</trkpt>
<trkpt lat="-27.2750462" lon="151.2902239">
  <ele>376.65</ele>
  <time>2026-09-01T19:56:04Z</time>
  <course>261.75</course>
  <speed>25.0944615403479</speed>
  <fix>3d</fix>
</trkpt>
<trkpt lat="-27.27504" lon="151.2902737">
  <ele>377.38</ele>
  <time>2026-09-01T19:56:04Z</time>
  <course>259.58</course>
  <speed>25.17</speed>
  <fix>3d</fix>
</trkpt>
<trkpt lat="-27.2750483" lon="151.2901985">
  <ele>376.44</ele>
  <time>2026-09-01T19:56:04Z</time>
  <course>263.73</course>
  <speed>25.06364897615668</speed>
  <fix>3d</fix>
</trkpt>
<trkpt lat="-27.2750466" lon="151.2902234">
  <ele>376.95</ele>
  <time>2026-09-01T19:56:04Z</time>
  <course>263.6</course>
  <speed>25.12</speed>
  <fix>3d</fix>
</trkpt>
<trkpt lat="-27.2750497" lon="151.2901738">
  <ele>376.25</ele>
  <time>2026-09-01T19:56:04Z</time>
  <course>265.66</course>
  <speed>25.043731750679648</speed>
  <fix>3d</fix>
</trkpt>
<trkpt lat="-27.2750466" lon="151.2902234">
  <ele>376.95</ele>
  <time>2026-09-01T19:56:04Z</time>
  <course>263.6</course>
  <speed>25.12</speed>
  <fix>3d</fix>
</trkpt>
<trkpt lat="-27.2750503" lon="151.2901485">
  <ele>376.07</ele>
  <time>2026-09-01T19:56:04Z</time>
  <course>267.54</course>
  <speed>25.021350882796078</speed>
  <fix>3d</fix>
</trkpt>
<trkpt lat="-27.27505" lon="151.2901728">
  <ele>376.55</ele>
  <time>2026-09-01T19:56:04Z</time>
  <course>267.51</course>
  <speed>25.07</speed>
  <fix>3d</fix>
</trkpt>
<trkpt lat="-27.2750502" lon="151.2901232">
  <ele>375.88</ele>
  <time>2026-09-01T19:56:04Z</time>
  <course>269.34</course>
  <speed>24.985835987615065</speed>
  <fix>3d</fix>
</trkpt>
<trkpt lat="-27.27505" lon="151.2901728">
  <ele>376.55</ele>
  <time>2026-09-01T19:56:04Z</time>
  <course>267.51</course>
  <speed>25.07</speed>
  <fix>3d</fix>
</trkpt>
<trkpt lat="-27.2750494" lon="151.2900979">
  <ele>375.71</ele>
  <time>2026-09-01T19:56:04Z</time>
  <course>271.22</course>
  <speed>24.966525589276536</speed>
  <fix>3d</fix>
</trkpt>
<trkpt lat="-27.2750505" lon="151.2901222">
  <ele>376.17</ele>
  <time>2026-09-01T19:56:04Z</time>
  <course>271.29</course>
  <speed>25.02</speed>
  <fix>3d</fix>
</trkpt>
<trkpt lat="-27.2750478" lon="151.2900727">
  <ele>375.53</ele>
  <time>2026-09-01T19:56:04Z</time>
  <course>273.1</course>
  <speed>24.93287187630017</speed>
  <fix>3d</fix>
</trkpt>
<trkpt lat="-27.2750505" lon="151.2901222">
  <ele>376.17</ele>
  <time>2026-09-01T19:56:04Z</time>
  <course>271.29</course>
  <speed>25.02</speed>
  <fix>3d</fix>
</trkpt>
<trkpt lat="-27.2750456" lon="151.2900477">
  <ele>375.36</ele>
  <time>2026-09-01T19:56:04Z</time>
  <course>274.99</course>
  <speed>24.916444369131</speed>
  <fix>3d</fix>
</trkpt>
<trkpt lat="-27.2750481" lon="151.2900718">
  <ele>375.81</ele>
  <time>2026-09-01T19:56:04Z</time>
  <course>275.01</course>
  <speed>24.97</speed>
  <fix>3d</fix>
</trkpt>
<trkpt lat="-27.2750427" lon="151.2900227">
  <ele>375.19</ele>
  <time>2026-09-01T19:56:04Z</time>
  <course>276.87</course>
  <speed>24.89557591219773</speed>
  <fix>3d</fix>
</trkpt>
<trkpt lat="-27.2750481" lon="151.2900718">
  <ele>375.81</ele>
  <time>2026-09-01T19:56:04Z</time>
  <course>275.01</course>
  <speed>24.97</speed>
  <fix>3d</fix>
</trkpt>
<trkpt lat="-27.2750389" lon="151.2899978">
  <ele>375.03</ele>
  <time>2026-09-01T19:56:04Z</time>
  <course>278.7</course>
  <speed>24.869760754780092</speed>
  <fix>3d</fix>
</trkpt>
<trkpt lat="-27.2750428" lon="151.2900218">
  <ele>375.47</ele>
  <time>2026-09-01T19:56:04Z</time>
  <course>278.73</course>
  <speed>24.92</speed>
  <fix>3d</fix>
</trkpt>
<trkpt lat="-27.2750345" lon="151.2899733">
  <ele>374.88</ele>
  <time>2026-09-01T19:56:04Z</time>
  <course>280.55</course>
  <speed>24.858143534865995</speed>
  <fix>3d</fix>
</trkpt>
<trkpt lat="-27.2750428" lon="151.2900218">
  <ele>375.47</ele>
  <time>2026-09-01T19:56:04Z</time>
  <course>278.73</course>
  <speed>24.92</speed>
  <fix>3d</fix>
</trkpt>
<trkpt lat="-27.2750294" lon="151.2899489">
  <ele>374.72</ele>
  <time>2026-09-01T19:56:04Z</time>
  <course>282.41</course>
  <speed>24.845538834969954</speed>
  <fix>3d</fix>
</trkpt>
<trkpt lat="-27.2750345" lon="151.2899723">
  <ele>375.14</ele>
  <time>2026-09-01T19:56:04Z</time>
  <course>282.46</course>
  <speed>24.88</speed>
  <fix>3d</fix>
</trkpt>
<trkpt lat="-27.2750236" lon="151.2899245">
  <ele>374.57</ele>
  <time>2026-09-01T19:56:04Z</time>
  <course>284.33</course>
  <speed>24.828058723951816</speed>
  <fix>3d</fix>
</trkpt>
<trkpt lat="-27.2750345" lon="151.2899723">
  <ele>375.14</ele>
  <time>2026-09-01T19:56:04Z</time>
  <course>282.46</course>
  <speed>24.88</speed>
  <fix>3d</fix>
</trkpt>
<trkpt lat="-27.275017" lon="151.2899005">
  <ele>374.42</ele>
  <time>2026-09-01T19:56:04Z</time>
  <course>286.22</course>
  <speed>24.815094196879446</speed>
  <fix>3d</fix>
</trkpt>
<trkpt lat="-27.2750234" lon="151.2899235">
  <ele>374.83</ele>
  <time>2026-09-01T19:56:04Z</time>
  <course>286.21</course>
  <speed>24.85</speed>
  <fix>3d</fix>
</trkpt>
<trkpt lat="-27.2750097" lon="151.2898765">
  <ele>374.27</ele>
  <time>2026-09-01T19:56:04Z</time>
  <course>288.12</course>
  <speed>24.813129588989778</speed>
  <fix>3d</fix>
</trkpt>
<trkpt lat="-27.2750234" lon="151.2899235">
  <ele>374.83</ele>
  <time>2026-09-01T19:56:04Z</time>
  <course>286.21</course>
  <speed>24.85</speed>
  <fix>3d</fix>
</trkpt>
<trkpt lat="-27.2750017" lon="151.289853">
  <ele>374.14</ele>
  <time>2026-09-01T19:56:04Z</time>
  <course>290.1</course>
  <speed>24.801477778551824</speed>
  <fix>3d</fix>
</trkpt>
<trkpt lat="-27.2750095" lon="151.2898756">
  <ele>374.53</ele>
  <time>2026-09-01T19:56:04Z</time>
  <course>290.0</course>
  <speed>24.83</speed>
  <fix>3d</fix>
</trkpt>
<trkpt lat="-27.2749931" lon="151.2898298">
  <ele>374.0</ele>
  <time>2026-09-01T19:56:04Z</time>
  <course>292.04</course>
  <speed>24.791857534279274</speed>
  <fix>3d</fix>
</trkpt>
<trkpt lat="-27.2750095" lon="151.2898756">
  <ele>374.53</ele>
  <time>2026-09-01T19:56:04Z</time>
  <course>290.0</course>
  <speed>24.83</speed>
  <fix>3d</fix>
</trkpt>
<trkpt lat="-27.2749834" lon="151.2898063">
  <ele>373.87</ele>
  <time>2026-09-01T19:56:04Z</time>
  <course>293.99</course>
  <speed>24.795912969681112</speed>
  <fix>3d</fix>
</trkpt>
<trkpt lat="-27.2749929" lon="151.2898291">
  <ele>374.25</ele>
  <time>2026-09-01T19:56:04Z</time>
  <course>293.84</course>
  <speed>24.81</speed>
  <fix>3d</fix>
</trkpt>
<trkpt lat="-27.2749735" lon="151.289784">
  <ele>373.74</ele>
  <time>2026-09-01T19:56:04Z</time>
  <course>295.88</course>
  <speed>24.798225742984116</speed>
  <fix>3d</fix>
</trkpt>
<trkpt lat="-27.2749929" lon="151.2898291">
  <ele>374.25</ele>
  <time>2026-09-01T19:56:04Z</time>
  <course>293.84</course>
  <speed>24.81</speed>
  <fix>3d</fix>
</trkpt>
<trkpt lat="-27.2749628" lon="151.289762">
  <ele>373.61</ele>
  <time>2026-09-01T19:56:04Z</time>
  <course>297.83</course>
  <speed>24.788404547287833</speed>
  <fix>3d</fix>
</trkpt>
<trkpt lat="-27.2749735" lon="151.2897841">
  <ele>373.97</ele>
  <time>2026-09-01T19:56:04Z</time>
  <course>297.7</course>
  <speed>24.8</speed>
  <fix>3d</fix>
</trkpt>
<trkpt lat="-27.2749514" lon="151.2897404">
  <ele>373.49</ele>
  <time>2026-09-01T19:56:04Z</time>
  <course>299.8</course>
  <speed>24.79504990920567</speed>
  <fix>3d</fix>
</trkpt>
<trkpt lat="-27.2749735" lon="151.2897841">
  <ele>373.97</ele>
  <time>2026-09-01T19:56:04Z</time>
  <course>297.7</course>
  <speed>24.8</speed>
  <fix>3d</fix>
</trkpt>
<trkpt lat="-27.2749394" lon="151.2897192">
  <ele>373.38</ele>
  <time>2026-09-01T19:56:04Z</time>
  <course>301.76</course>
  <speed>24.795154768623647</speed>
  <fix>3d</fix>
</trkpt>
<trkpt lat="-27.2749515" lon="151.2897405">
  <ele>373.72</ele>
  <time>2026-09-01T19:56:04Z</time>
  <course>301.61</course>
  <speed>24.8</speed>
  <fix>3d</fix>
</trkpt>
<trkpt lat="-27.2749267" lon="151.2896984">
  <ele>373.27</ele>
  <time>2026-09-01T19:56:04Z</time>
  <course>303.74</course>
  <speed>24.788646594761886</speed>
  <fix>3d</fix>
</trkpt>
<trkpt lat="-27.2749515" lon="151.2897405">
  <ele>373.72</ele>
  <time>2026-09-01T19:56:04Z</time>
  <course>301.61</course>
  <speed>24.8</speed>
  <fix>3d</fix>
</trkpt>
<trkpt lat="-27.2749134" lon="151.2896782">
  <ele>373.16</ele>
  <time>2026-09-01T19:56:04Z</time>
  <course>305.73</course>
  <speed>24.803648925107773</speed>
  <fix>3d</fix>
</trkpt>
<trkpt lat="-27.2749268" lon="151.2896988">
  <ele>373.5</ele>
  <time>2026-09-01T19:56:04Z</time>
  <course>305.56</course>
  <speed>24.81</speed>
  <fix>3d</fix>
</trkpt>
<trkpt lat="-27.2748995" lon="151.2896586">
  <ele>373.06</ele>
  <time>2026-09-01T19:56:04Z</time>
  <course>307.76</course>
  <speed>24.80485839508059</speed>
  <fix>3d</fix>
</trkpt>
<trkpt lat="-27.2749268" lon="151.2896988">
  <ele>373.5</ele>
  <time>2026-09-01T19:56:04Z</time>
  <course>305.56</course>
  <speed>24.81</speed>
  <fix>3d</fix>
</trkpt>
<trkpt lat="-27.274885" lon="151.2896395">
  <ele>372.96</ele>
  <time>2026-09-01T19:56:04Z</time>
  <course>309.74</course>
  <speed>24.808212349945734</speed>
  <fix>3d</fix>
</trkpt>
<trkpt lat="-27.2748997" lon="151.289659">
  <ele>373.28</ele>
  <time>2026-09-01T19:56:04Z</time>
  <course>309.52</course>
  <speed>24.81</speed>
  <fix>3d</fix>
</trkpt>
<trkpt lat="-27.2748699" lon="151.289621">
  <ele>372.87</ele>
  <time>2026-09-01T19:56:04Z</time>
  <course>311.67</course>
  <speed>24.81383485074405</speed>
  <fix>3d</fix>
</trkpt>
<trkpt lat="-27.2748997" lon="151.289659">
  <ele>373.28</ele>
  <time>2026-09-01T19:56:04Z</time>
  <course>309.52</course>
  <speed>24.81</speed>
  <fix>3d</fix>
</trkpt>
<trkpt lat="-27.2748542" lon="151.2896031">
  <ele>372.78</ele>
  <time>2026-09-01T19:56:04Z</time>
  <course>313.65</course>
  <speed>24.820354550247668</speed>
  <fix>3d</fix>
</trkpt>
<trkpt lat="-27.2748701" lon="151.2896214">
  <ele>373.08</ele>
  <time>2026-09-01T19:56:04Z</time>
  <course>313.5</course>
  <speed>24.82</speed>
  <fix>3d</fix>
</trkpt>
<trkpt lat="-27.274838" lon="151.2895858">
  <ele>372.7</ele>
  <time>2026-09-01T19:56:04Z</time>
  <course>315.72</course>
  <speed>24.828580305768593</speed>
  <fix>3d</fix>
</trkpt>
<trkpt lat="-27.2748701" lon="151.2896214">
  <ele>373.08</ele>
  <time>2026-09-01T19:56:04Z</time>
  <course>313.5</course>
  <speed>24.82</speed>
  <fix>3d</fix>
</trkpt>
<trkpt lat="-27.2748213" lon="151.2895692">
  <ele>372.62</ele>
  <time>2026-09-01T19:56:04Z</time>
  <course>317.7</course>
  <speed>24.840780986112332</speed>
  <fix>3d</fix>
</trkpt>
<trkpt lat="-27.2748383" lon="151.2895863">
  <ele>372.9</ele>
  <time>2026-09-01T19:56:04Z</time>
  <course>317.5</course>
  <speed>24.84</speed>
  <fix>3d</fix>
</trkpt>
<trkpt lat="-27.2748046" lon="151.2895538">
  <ele>372.54</ele>
  <time>2026-09-01T19:56:04Z</time>
  <course>319.69</course>
  <speed>24.850432591808136</speed>
  <fix>3d</fix>
</trkpt>
<trkpt lat="-27.2748383" lon="151.2895863">
  <ele>372.9</ele>
  <time>2026-09-01T19:56:04Z</time>
  <course>317.5</course>
  <speed>24.84</speed>
  <fix>3d</fix>
</trkpt>
<trkpt lat="-27.2747869" lon="151.2895385">
  <ele>372.47</ele>
  <time>2026-09-01T19:56:04Z</time>
  <course>321.76</course>
  <speed>24.860581248233117</speed>
  <fix>3d</fix>
</trkpt>
<trkpt lat="-27.2748044" lon="151.2895537">
  <ele>372.74</ele>
  <time>2026-09-01T19:56:04Z</time>
  <course>321.54</course>
  <speed>24.86</speed>
  <fix>3d</fix>
</trkpt>
<trkpt lat="-27.2747687" lon="151.2895239">
  <ele>372.4</ele>
  <time>2026-09-01T19:56:04Z</time>
  <course>323.8</course>
  <speed>24.874766330560774</speed>
  <fix>3d</fix>
</trkpt>
<trkpt lat="-27.2748044" lon="151.2895537">
  <ele>372.74</ele>
  <time>2026-09-01T19:56:04Z</time>
  <course>321.54</course>
  <speed>24.86</speed>
  <fix>3d</fix>
</trkpt>
<trkpt lat="-27.27475" lon="151.28951">
  <ele>372.33</ele>
  <time>2026-09-01T19:56:04Z</time>
  <course>325.86</course>
  <speed>24.884991460717842</speed>
  <fix>3d</fix>
</trkpt>
<trkpt lat="-27.2747683" lon="151.2895238">
  <ele>372.58</ele>
  <time>2026-09-01T19:56:04Z</time>
  <course>325.62</course>
  <speed>24.88</speed>
  <fix>3d</fix>
</trkpt>
<trkpt lat="-27.2747308" lon="151.2894969">
  <ele>372.27</ele>
  <time>2026-09-01T19:56:04Z</time>
  <course>327.95</course>
  <speed>24.8948287802909</speed>
  <fix>3d</fix>
</trkpt>
<trkpt lat="-27.2747683" lon="151.2895238">
  <ele>372.58</ele>
  <time>2026-09-01T19:56:04Z</time>
  <course>325.62</course>
  <speed>24.88</speed>
  <fix>3d</fix>
</trkpt>
<trkpt lat="-27.2747111" lon="151.2894845">
  <ele>372.21</ele>
  <time>2026-09-01T19:56:04Z</time>
  <course>329.97</course>
  <speed>24.915346676295716</speed>
  <fix>3d</fix>
</trkpt>
<trkpt lat="-27.2747304" lon="151.2894969">
  <ele>372.44</ele>
  <time>2026-09-01T19:56:04Z</time>
  <course>329.77</course>
  <speed>24.91</speed>
  <fix>3d</fix>
</trkpt>
<trkpt lat="-27.2746912" lon="151.2894731">
  <ele>372.16</ele>
  <time>2026-09-01T19:56:04Z</time>
  <course>332.01</course>
  <speed>24.919416124781097</speed>
  <fix>3d</fix>
</trkpt>
<trkpt lat="-27.2747304" lon="151.2894969">
  <ele>372.44</ele>
  <time>2026-09-01T19:56:04Z</time>
  <course>329.77</course>
  <speed>24.91</speed>
  <fix>3d</fix>
</trkpt>
<trkpt lat="-27.274671" lon="151.2894624">
  <ele>372.11</ele>
  <time>2026-09-01T19:56:04Z</time>
  <course>334.13</course>
  <speed>24.928828692900915</speed>
  <fix>3d</fix>
</trkpt>
<trkpt lat="-27.274691" lon="151.2894731">
  <ele>372.32</ele>
  <time>2026-09-01T19:56:04Z</time>
  <course>333.9</course>
  <speed>24.93</speed>
  <fix>3d</fix>
</trkpt>
<trkpt lat="-27.2746498" lon="151.2894523">
  <ele>372.06</ele>
  <time>2026-09-01T19:56:04Z</time>
  <course>336.29</course>
  <speed>24.92963898655574</speed>
  <fix>3d</fix>
</trkpt>
<trkpt lat="-27.274691" lon="151.2894731">
  <ele>372.32</ele>
  <time>2026-09-01T19:56:04Z</time>
  <course>333.9</course>
  <speed>24.93</speed>
  <fix>3d</fix>
</trkpt>
<trkpt lat="-27.2746291" lon="151.2894434">
  <ele>372.02</ele>
  <time>2026-09-01T19:56:04Z</time>
  <course>338.32</course>
  <speed>24.93277762304072</speed>
  <fix>3d</fix>
</trkpt>
<trkpt lat="-27.2746501" lon="151.2894526">
  <ele>372.21</ele>
  <time>2026-09-01T19:56:04Z</time>
  <course>338.04</course>
  <speed>24.95</speed>
  <fix>3d</fix>
</trkpt>
<trkpt lat="-27.274608" lon="151.2894353">
  <ele>371.99</ele>
  <time>2026-09-01T19:56:04Z</time>
  <course>340.36</course>
  <speed>24.939069750092926</speed>
  <fix>3d</fix>
</trkpt>
<trkpt lat="-27.2746501" lon="151.2894526">
  <ele>372.21</ele>
  <time>2026-09-01T19:56:04Z</time>
  <course>338.04</course>
  <speed>24.95</speed>
  <fix>3d</fix>
</trkpt>
<trkpt lat="-27.2745866" lon="151.2894281">
  <ele>371.95</ele>
  <time>2026-09-01T19:56:04Z</time>
  <course>342.44</course>
  <speed>24.93929429635089</speed>
  <fix>3d</fix>
</trkpt>
<trkpt lat="-27.2746079" lon="151.2894355">
  <ele>372.12</ele>
  <time>2026-09-01T19:56:04Z</time>
  <course>342.16</course>
  <speed>24.98</speed>
  <fix>3d</fix>
</trkpt>
<trkpt lat="-27.274565" lon="151.2894217">
  <ele>371.92</ele>
  <time>2026-09-01T19:56:04Z</time>
  <course>344.54</course>
  <speed>24.94769728852745</speed>
  <fix>3d</fix>
</trkpt>
<trkpt lat="-27.2746079" lon="151.2894355">
  <ele>372.12</ele>
  <time>2026-09-01T19:56:04Z</time>
  <course>342.16</course>
  <speed>24.98</speed>
  <fix>3d</fix>
</trkpt>
<trkpt lat="-27.274543" lon="151.2894162">
  <ele>371.88</ele>
  <time>2026-09-01T19:56:04Z</time>
  <course>346.56</course>
  <speed>24.95801674813125</speed>
  <fix>3d</fix>
</trkpt>
<trkpt lat="-27.2745647" lon="151.2894218">
  <ele>372.03</ele>
  <time>2026-09-01T19:56:04Z</time>
  <course>346.29</course>
  <speed>25.0</speed>
  <fix>3d</fix>
</trkpt>
<trkpt lat="-27.274521" lon="151.2894116">
  <ele>371.85</ele>
  <time>2026-09-01T19:56:04Z</time>
  <course>348.61</course>
  <speed>24.96565641035701</speed>
  <fix>3d</fix>
</trkpt>
<trkpt lat="-27.2745647" lon="151.2894218">
  <ele>372.03</ele>
  <time>2026-09-01T19:56:04Z</time>
  <course>346.29</course>
  <speed>25.0</speed>
  <fix>3d</fix>
</trkpt>
<trkpt lat="-27.2744989" lon="151.2894078">
  <ele>371.82</ele>
  <time>2026-09-01T19:56:04Z</time>
  <course>350.68</course>
  <speed>24.972386750168674</speed>
  <fix>3d</fix>
</trkpt>
<trkpt lat="-27.2745207" lon="151.2894116">
  <ele>371.96</ele>
  <time>2026-09-01T19:56:04Z</time>
  <course>350.42</course>
  <speed>25.02</speed>
  <fix>3d</fix>
</trkpt>
<trkpt lat="-27.2744766" lon="151.289405">
  <ele>371.8</ele>
  <time>2026-09-01T19:56:04Z</time>
  <course>352.76</course>
  <speed>24.980780612302734</speed>
  <fix>3d</fix>
</trkpt>
<trkpt lat="-27.2745207" lon="151.2894116">
  <ele>371.96</ele>
  <time>2026-09-01T19:56:04Z</time>
  <course>350.42</course>
  <speed>25.02</speed>
  <fix>3d</fix>
</trkpt>
<trkpt lat="-27.2744543" lon="151.2894031">
  <ele>371.77</ele>
  <time>2026-09-01T19:56:04Z</time>
  <course>354.84</course>
  <speed>24.992098751405415</speed>
  <fix>3d</fix>
</trkpt>
<trkpt lat="-27.2744762" lon="151.2894049">
  <ele>371.89</ele>
  <time>2026-09-01T19:56:04Z</time>
  <course>354.55</course>
  <speed>25.05</speed>
  <fix>3d</fix>
</trkpt>
<trkpt lat="-27.2744318" lon="151.2894021">
  <ele>371.74</ele>
  <time>2026-09-01T19:56:04Z</time>
  <course>356.86</course>
  <speed>25.006049268127104</speed>
  <fix>3d</fix>
</trkpt>
<trkpt lat="-27.2744762" lon="151.2894049">
  <ele>371.89</ele>
  <time>2026-09-01T19:56:04Z</time>
  <course>354.55</course>
  <speed>25.05</speed>
  <fix>3d</fix>
</trkpt>
<trkpt lat="-27.2744094" lon="151.289402">
  <ele>371.72</ele>
  <time>2026-09-01T19:56:04Z</time>
  <course>358.93</course>
  <speed>25.012310968800943</speed>
  <fix>3d</fix>
</trkpt>
<trkpt lat="-27.2744313" lon="151.289402">
  <ele>371.83</ele>
  <time>2026-09-01T19:56:04Z</time>
  <course>358.68</course>
  <speed>25.07</speed>
  <fix>3d</fix>
</trkpt>
<trkpt lat="-27.2743869" lon="151.2894027">
  <ele>371.7</ele>
  <time>2026-09-01T19:56:04Z</time>
  <course>0.95</course>
  <speed>25.02074539257374</speed>
  <fix>3d</fix>
</trkpt>
<trkpt lat="-27.2744313" lon="151.289402">
  <ele>371.83</ele>
  <time>2026-09-01T19:56:04Z</time>
  <course>358.68</course>
  <speed>25.07</speed>
  <fix>3d</fix>
</trkpt>
<trkpt lat="-27.2743645" lon="151.2894043">
  <ele>371.67</ele>
  <time>2026-09-01T19:56:04Z</time>
  <course>2.97</course>
  <speed>25.030791038239283</speed>
  <fix>3d</fix>
</trkpt>
<trkpt lat="-27.2743862" lon="151.2894026">
  <ele>371.77</ele>
  <time>2026-09-01T19:56:04Z</time>
  <course>2.79</course>
  <speed>25.09</speed>
  <fix>3d</fix>
</trkpt>
<trkpt lat="-27.2743421" lon="151.2894069">
  <ele>371.65</ele>
  <time>2026-09-01T19:56:04Z</time>
  <course>5.05</course>
  <speed>25.04397133044198</speed>
  <fix>3d</fix>
</trkpt>
<trkpt lat="-27.2743862" lon="151.2894026">
  <ele>371.77</ele>
  <time>2026-09-01T19:56:04Z</time>
  <course>2.79</course>
  <speed>25.09</speed>
  <fix>3d</fix>
</trkpt>
<trkpt lat="-27.2743198" lon="151.2894104">
  <ele>371.63</ele>
  <time>2026-09-01T19:56:04Z</time>
  <course>7.12</course>
  <speed>25.06007581792202</speed>
  <fix>3d</fix>
</trkpt>
<trkpt lat="-27.2743412" lon="151.2894069">
  <ele>371.72</ele>
  <time>2026-09-01T19:56:04Z</time>
  <course>6.91</course>
  <speed>25.12</speed>
  <fix>3d</fix>
</trkpt>
<trkpt lat="-27.2742976" lon="151.2894148">
  <ele>371.61</ele>
  <time>2026-09-01T19:56:04Z</time>
  <course>9.15</course>
  <speed>25.07564954293308</speed>
  <fix>3d</fix>
</trkpt>
<trkpt lat="-27.2743412" lon="151.2894069">
  <ele>371.72</ele>
  <time>2026-09-01T19:56:04Z</time>
  <course>6.91</course>
  <speed>25.12</speed>
  <fix>3d</fix>
</trkpt>
<trkpt lat="-27.2742755" lon="151.2894201">
  <ele>371.59</ele>
  <time>2026-09-01T19:56:04Z</time>
  <course>11.21</course>
  <speed>25.08387928530992</speed>
  <fix>3d</fix>
</trkpt>
<trkpt lat="-27.2742966" lon="151.2894147">
  <ele>371.68</ele>
  <time>2026-09-01T19:56:04Z</time>
  <course>11.03</course>
  <speed>25.15</speed>
  <fix>3d</fix>
</trkpt>
<trkpt lat="-27.2742537" lon="151.2894263">
  <ele>371.58</ele>
  <time>2026-09-01T19:56:04Z</time>
  <course>13.31</course>
  <speed>25.10493576968481</speed>
  <fix>3d</fix>
</trkpt>
<trkpt lat="-27.2742966" lon="151.2894147">
  <ele>371.68</ele>
  <time>2026-09-01T19:56:04Z</time>
  <course>11.03</course>
  <speed>25.15</speed>
  <fix>3d</fix>
</trkpt>
<trkpt lat="-27.2742325" lon="151.2894332">
  <ele>371.56</ele>
  <time>2026-09-01T19:56:04Z</time>
  <course>15.39</course>
  <speed>25.11719928654467</speed>
  <fix>3d</fix>
</trkpt>
<trkpt lat="-27.2742525" lon="151.2894263">
  <ele>371.64</ele>
  <time>2026-09-01T19:56:04Z</time>
  <course>15.17</course>
  <speed>25.17</speed>
  <fix>3d</fix>
</trkpt>
<trkpt lat="-27.2742103" lon="151.2894414">
  <ele>371.54</ele>
  <time>2026-09-01T19:56:05Z</time>
  <course>17.51</course>
  <speed>25.131247481969535</speed>
  <fix>3d</fix>
</trkpt>
<trkpt lat="-27.2742525" lon="151.2894263">
  <ele>371.64</ele>
  <time>2026-09-01T19:56:05Z</time>
  <course>15.17</course>
  <speed>25.17</speed>
  <fix>3d</fix>
</trkpt>
<trkpt lat="-27.2741891" lon="151.2894503">
  <ele>371.53</ele>
  <time>2026-09-01T19:56:05Z</time>
  <course>19.55</course>
  <speed>25.141608938172595</speed>
  <fix>3d</fix>
</trkpt>
<trkpt lat="-27.2742093" lon="151.2894414">
  <ele>371.6</ele>
  <time>2026-09-01T19:56:05Z</time>
  <course>19.35</course>
  <speed>25.2</speed>
  <fix>3d</fix>
</trkpt>
<trkpt lat="-27.2741683" lon="151.2894599">
  <ele>371.51</ele>
  <time>2026-09-01T19:56:05Z</time>
  <course>21.64</course>
  <speed>25.158839400894472</speed>
  <fix>3d</fix>
</trkpt>
<trkpt lat="-27.2742093" lon="151.2894414">
  <ele>371.6</ele>
  <time>2026-09-01T19:56:05Z</time>
  <course>19.35</course>
  <speed>25.2</speed>
  <fix>3d</fix>
</trkpt>
<trkpt lat="-27.2741477" lon="151.2894705">
  <ele>371.5</ele>
  <time>2026-09-01T19:56:05Z</time>
  <course>23.82</course>
  <speed>25.17232806078929</speed>
  <fix>3d</fix>
</trkpt>
<trkpt lat="-27.2741672" lon="151.28946">
  <ele>371.57</ele>
  <time>2026-09-01T19:56:05Z</time>
  <course>23.54</course>
  <speed>25.23</speed>
  <fix>3d</fix>
</trkpt>
<trkpt lat="-27.2741274" lon="151.2894819">
  <ele>371.49</ele>
  <time>2026-09-01T19:56:05Z</time>
  <course>25.93</course>
  <speed>25.183844027471263</speed>
  <fix>3d</fix>
</trkpt>
<trkpt lat="-27.2741672" lon="151.28946">
  <ele>371.57</ele>
  <time>2026-09-01T19:56:05Z</time>
  <course>23.54</course>
  <speed>25.23</speed>
  <fix>3d</fix>
</trkpt>
<trkpt lat="-27.2741075" lon="151.2894942">
  <ele>371.48</ele>
  <time>2026-09-01T19:56:05Z</time>
  <course>28.01</course>
  <speed>25.202700252155523</speed>
  <fix>3d</fix>
</trkpt>
<trkpt lat="-27.2741263" lon="151.2894822">
  <ele>371.55</ele>
  <time>2026-09-01T19:56:05Z</time>
  <course>27.74</course>
  <speed>25.25</speed>
  <fix>3d</fix>
</trkpt>
<trkpt lat="-27.2740878" lon="151.2895074">
  <ele>371.47</ele>
  <time>2026-09-01T19:56:05Z</time>
  <course>30.13</course>
  <speed>25.216290369521047</speed>
  <fix>3d</fix>
</trkpt>
<trkpt lat="-27.2741263" lon="151.2894822">
  <ele>371.55</ele>
  <time>2026-09-01T19:56:05Z</time>
  <course>27.74</course>
  <speed>25.25</speed>
  <fix>3d</fix>
</trkpt>
<trkpt lat="-27.2740688" lon="151.2895214">
  <ele>371.46</ele>
  <time>2026-09-01T19:56:05Z</time>
  <course>32.29</course>
  <speed>25.228555249954365</speed>
  <fix>3d</fix>
</trkpt>
<trkpt lat="-27.274087" lon="151.2895076">
  <ele>371.53</ele>
  <time>2026-09-01T19:56:05Z</time>
  <course>31.98</course>
  <speed>25.27</speed>
  <fix>3d</fix>
</trkpt>
<trkpt lat="-27.2740501" lon="151.2895361">
  <ele>371.45</ele>
  <time>2026-09-01T19:56:05Z</time>
  <course>34.47</course>
  <speed>25.25123759343292</speed>
  <fix>3d</fix>
</trkpt>
<trkpt lat="-27.274087" lon="151.2895076">
  <ele>371.53</ele>
  <time>2026-09-01T19:56:05Z</time>
  <course>31.98</course>
  <speed>25.27</speed>
  <fix>3d</fix>
</trkpt>
<trkpt lat="-27.274032" lon="151.2895517">
  <ele>371.45</ele>
  <time>2026-09-01T19:56:05Z</time>
  <course>36.66</course>
  <speed>25.264318712365867</speed>
  <fix>3d</fix>
</trkpt>
<trkpt lat="-27.2740494" lon="151.2895363">
  <ele>371.51</ele>
  <time>2026-09-01T19:56:05Z</time>
  <course>36.27</course>
  <speed>25.29</speed>
  <fix>3d</fix>
</trkpt>
<trkpt lat="-27.2740144" lon="151.289568">
  <ele>371.45</ele>
  <time>2026-09-01T19:56:05Z</time>
  <course>38.72</course>
  <speed>25.273499955486972</speed>
  <fix>3d</fix>
</trkpt>
<trkpt lat="-27.2740494" lon="151.2895363">
  <ele>371.51</ele>
  <time>2026-09-01T19:56:05Z</time>
  <course>36.27</course>
  <speed>25.29</speed>
  <fix>3d</fix>
</trkpt>
<trkpt lat="-27.2739974" lon="151.289585">
  <ele>371.45</ele>
  <time>2026-09-01T19:56:05Z</time>
  <course>40.83</course>
  <speed>25.29082837710145</speed>
  <fix>3d</fix>
</trkpt>
<trkpt lat="-27.2740138" lon="151.289568">
  <ele>371.51</ele>
  <time>2026-09-01T19:56:05Z</time>
  <course>40.59</course>
  <speed>25.32</speed>
  <fix>3d</fix>
</trkpt>
<trkpt lat="-27.2739809" lon="151.2896028">
  <ele>371.45</ele>
  <time>2026-09-01T19:56:05Z</time>
  <course>42.98</course>
  <speed>25.307376395035497</speed>
  <fix>3d</fix>
</trkpt>
<trkpt lat="-27.2740138" lon="151.289568">
  <ele>371.51</ele>
  <time>2026-09-01T19:56:05Z</time>
  <course>40.59</course>
  <speed>25.32</speed>
  <fix>3d</fix>
</trkpt>
<trkpt lat="-27.273965" lon="151.2896212">
  <ele>371.46</ele>
  <time>2026-09-01T19:56:05Z</time>
  <course>45.12</course>
  <speed>25.316974542784532</speed>
  <fix>3d</fix>
</trkpt>
<trkpt lat="-27.2739804" lon="151.2896028">
  <ele>371.52</ele>
  <time>2026-09-01T19:56:05Z</time>
  <course>44.88</course>
  <speed>25.34</speed>
  <fix>3d</fix>
</trkpt>
<trkpt lat="-27.2739497" lon="151.2896404">
  <ele>371.47</ele>
  <time>2026-09-01T19:56:05Z</time>
  <course>47.25</course>
  <speed>25.325706308018344</speed>
  <fix>3d</fix>
</trkpt>
<trkpt lat="-27.2739804" lon="151.2896028">
  <ele>371.52</ele>
  <time>2026-09-01T19:56:05Z</time>
  <course>44.88</course>
  <speed>25.34</speed>
  <fix>3d</fix>
</trkpt>
<trkpt lat="-27.2739351" lon="151.2896601">
  <ele>371.47</ele>
  <time>2026-09-01T19:56:05Z</time>
  <course>49.37</course>
  <speed>25.340757684015685</speed>
  <fix>3d</fix>
</trkpt>
<trkpt lat="-27.2739494" lon="151.2896402">
  <ele>371.53</ele>
  <time>2026-09-01T19:56:05Z</time>
  <course>49.15</course>
  <speed>25.35</speed>
  <fix>3d</fix>
</trkpt>
<trkpt lat="-27.2739211" lon="151.2896804">
  <ele>371.48</ele>
  <time>2026-09-01T19:56:05Z</time>
  <course>51.49</course>
  <speed>25.348364838782008</speed>
  <fix>3d</fix>
</trkpt>
<trkpt lat="-27.2739494" lon="151.2896402">
  <ele>371.53</ele>
  <time>2026-09-01T19:56:05Z</time>
  <course>49.15</course>
  <speed>25.35</speed>
  <fix>3d</fix>
</trkpt>
<trkpt lat="-27.2739078" lon="151.2897013">
  <ele>371.49</ele>
  <time>2026-09-01T19:56:05Z</time>
  <course>53.55</course>
  <speed>25.360414034475067</speed>
  <fix>3d</fix>
</trkpt>
<trkpt lat="-27.2739208" lon="151.2896803">
  <ele>371.55</ele>
  <time>2026-09-01T19:56:05Z</time>
  <course>53.39</course>
  <speed>25.37</speed>
  <fix>3d</fix>
</trkpt>
<trkpt lat="-27.2738952" lon="151.2897228">
  <ele>371.49</ele>
  <time>2026-09-01T19:56:05Z</time>
  <course>55.7</course>
  <speed>25.373578777933552</speed>
  <fix>3d</fix>
</trkpt>
<trkpt lat="-27.2739208" lon="151.2896803">
  <ele>371.55</ele>
  <time>2026-09-01T19:56:05Z</time>
  <course>53.39</course>
  <speed>25.37</speed>
  <fix>3d</fix>
</trkpt>
<trkpt lat="-27.2738834" lon="151.2897447">
  <ele>371.5</ele>
  <time>2026-09-01T19:56:05Z</time>
  <course>57.85</course>
  <speed>25.372081112908337</speed>
  <fix>3d</fix>
</trkpt>
<trkpt lat="-27.273895" lon="151.2897226">
  <ele>371.57</ele>
  <time>2026-09-01T19:56:05Z</time>
  <course>57.65</course>
  <speed>25.38</speed>
  <fix>3d</fix>
</trkpt>
<trkpt lat="-27.2738722" lon="151.2897672">
  <ele>371.51</ele>
  <time>2026-09-01T19:56:05Z</time>
  <course>59.98</course>
  <speed>25.388235464482364</speed>
  <fix>3d</fix>
</trkpt>
<trkpt lat="-27.273895" lon="151.2897226">
  <ele>371.57</ele>
  <time>2026-09-01T19:56:05Z</time>
  <course>57.65</course>
  <speed>25.38</speed>
  <fix>3d</fix>
</trkpt>
<trkpt lat="-27.2738618" lon="151.2897901">
  <ele>371.52</ele>
  <time>2026-09-01T19:56:05Z</time>
  <course>62.17</course>
  <speed>25.398773592439458</speed>
  <fix>3d</fix>
</trkpt>
<trkpt lat="-27.2738721" lon="151.289767">
  <ele>371.59</ele>
  <time>2026-09-01T19:56:05Z</time>
  <course>61.91</course>
  <speed>25.4</speed>
  <fix>3d</fix>
</trkpt>
<trkpt lat="-27.2738522" lon="151.2898135">
  <ele>371.53</ele>
  <time>2026-09-01T19:56:05Z</time>
  <course>64.36</course>
  <speed>25.409151894543825</speed>
  <fix>3d</fix>
</trkpt>
<trkpt lat="-27.2738721" lon="151.289767">
  <ele>371.59</ele>
  <time>2026-09-01T19:56:05Z</time>
  <course>61.91</course>
  <speed>25.4</speed>
  <fix>3d</fix>
</trkpt>
<trkpt lat="-27.2738433" lon="151.2898372">
  <ele>371.55</ele>
  <time>2026-09-01T19:56:05Z</time>
  <course>66.61</course>
  <speed>25.425561940692678</speed>
  <fix>3d</fix>
</trkpt>
<trkpt lat="-27.2738521" lon="151.2898132">
  <ele>371.62</ele>
  <time>2026-09-01T19:56:05Z</time>
  <course>66.2</course>
  <speed>25.42</speed>
  <fix>3d</fix>
</trkpt>
<trkpt lat="-27.2738353" lon="151.2898613">
  <ele>371.56</ele>
  <time>2026-09-01T19:56:05Z</time>
  <course>68.97</course>
  <speed>25.440786151375118</speed>
  <fix>3d</fix>
</trkpt>
<trkpt lat="-27.2738521" lon="151.2898132">
  <ele>371.62</ele>
  <time>2026-09-01T19:56:05Z</time>
  <course>66.2</course>
  <speed>25.42</speed>
  <fix>3d</fix>
</trkpt>
<trkpt lat="-27.2738281" lon="151.2898858">
  <ele>371.57</ele>
  <time>2026-09-01T19:56:05Z</time>
  <course>71.58</course>
  <speed>25.458346372064312</speed>
  <fix>3d</fix>
</trkpt>
<trkpt lat="-27.2738353" lon="151.2898609">
  <ele>371.64</ele>
  <time>2026-09-01T19:56:05Z</time>
  <course>70.67</course>
  <speed>25.44</speed>
  <fix>3d</fix>
</trkpt>
<trkpt lat="-27.2738219" lon="151.2899106">
  <ele>371.57</ele>
  <time>2026-09-01T19:56:05Z</time>
  <course>74.35</course>
  <speed>25.483567254213057</speed>
  <fix>3d</fix>
</trkpt>
<trkpt lat="-27.2738353" lon="151.2898609">
  <ele>371.64</ele>
  <time>2026-09-01T19:56:05Z</time>
  <course>70.67</course>
  <speed>25.44</speed>
  <fix>3d</fix>
</trkpt>
<trkpt lat="-27.2738168" lon="151.289936">
  <ele>371.57</ele>
  <time>2026-09-01T19:56:05Z</time>
  <course>77.29</course>
  <speed>25.530507241337762</speed>
  <fix>3d</fix>
</trkpt>
<trkpt lat="-27.273822" lon="151.2899102">
  <ele>371.65</ele>
  <time>2026-09-01T19:56:05Z</time>
  <course>75.71</course>
  <speed>25.48</speed>
  <fix>3d</fix>
</trkpt>
<trkpt lat="-27.2738128" lon="151.2899614">
  <ele>371.58</ele>
  <time>2026-09-01T19:56:05Z</time>
  <course>80.47</course>
  <speed>25.581917441818156</speed>
  <fix>3d</fix>
</trkpt>
<trkpt lat="-27.273822" lon="151.2899102">
  <ele>371.65</ele>
  <time>2026-09-01T19:56:05Z</time>
  <course>75.71</course>
  <speed>25.48</speed>
  <fix>3d</fix>
</trkpt>
<trkpt lat="-27.2738101" lon="151.2899872">
  <ele>371.59</ele>
  <time>2026-09-01T19:56:05Z</time>
  <course>83.86</course>
  <speed>25.638917683864893</speed>
  <fix>3d</fix>
</trkpt>
<trkpt lat="-27.273813" lon="151.2899607">
  <ele>371.66</ele>
  <time>2026-09-01T19:56:05Z</time>
  <course>81.63</course>
  <speed>25.56</speed>
  <fix>3d</fix>
</trkpt>
<trkpt lat="-27.2738088" lon="151.2900131">
  <ele>371.61</ele>
  <time>2026-09-01T19:56:05Z</time>
  <course>87.38</course>
  <speed>25.709531306501876</speed>
  <fix>3d</fix>
</trkpt>
<trkpt lat="-27.273813" lon="151.2899607">
  <ele>371.66</ele>
  <time>2026-09-01T19:56:05Z</time>
  <course>81.63</course>
  <speed>25.56</speed>
  <fix>3d</fix>
</trkpt>
<trkpt lat="-27.2738089" lon="151.2900392">
  <ele>371.64</ele>
  <time>2026-09-01T19:56:05Z</time>
  <course>90.94</course>
  <speed>25.77537002644191</speed>
  <fix>3d</fix>
</trkpt>
<trkpt lat="-27.273809" lon="151.2900123">
  <ele>371.7</ele>
  <time>2026-09-01T19:56:05Z</time>
  <course>88.33</course>
  <speed>25.69</speed>
  <fix>3d</fix>
</trkpt>
<trkpt lat="-27.2738105" lon="151.2900653">
  <ele>371.69</ele>
  <time>2026-09-01T19:56:05Z</time>
  <course>94.6</course>
  <speed>25.833205376027184</speed>
  <fix>3d</fix>
</trkpt>
<trkpt lat="-27.273809" lon="151.2900123">
  <ele>371.7</ele>
  <time>2026-09-01T19:56:05Z</time>
  <course>88.33</course>
  <speed>25.69</speed>
  <fix>3d</fix>
</trkpt>
<trkpt lat="-27.2738134" lon="151.2900912">
  <ele>371.76</ele>
  <time>2026-09-01T19:56:05Z</time>
  <course>98.35</course>
  <speed>25.889667823284253</speed>
  <fix>3d</fix>
</trkpt>
<trkpt lat="-27.2738104" lon="151.2900642">
  <ele>371.78</ele>
  <time>2026-09-01T19:56:05Z</time>
  <course>95.48</course>
  <speed>25.81</speed>
  <fix>3d</fix>
</trkpt>
<trkpt lat="-27.2738179" lon="151.290117">
  <ele>371.83</ele>
  <time>2026-09-01T19:56:05Z</time>
  <course>102.01</course>
  <speed>25.924052538135314</speed>
  <fix>3d</fix>
</trkpt>
<trkpt lat="-27.2738104" lon="151.2900642">
  <ele>371.78</ele>
  <time>2026-09-01T19:56:05Z</time>
  <course>95.48</course>
  <speed>25.81</speed>
  <fix>3d</fix>
</trkpt>
<trkpt lat="-27.2738239" lon="151.2901423">
  <ele>371.93</ele>
  <time>2026-09-01T19:56:05Z</time>
  <course>105.55</course>
  <speed>25.94657010088231</speed>
  <fix>3d</fix>
</trkpt>
<trkpt lat="-27.2738178" lon="151.2901158">
  <ele>371.92</ele>
  <time>2026-09-01T19:56:05Z</time>
  <course>102.78</course>
  <speed>25.9</speed>
  <fix>3d</fix>
</trkpt>
<trkpt lat="-27.2738312" lon="151.2901671">
  <ele>372.04</ele>
  <time>2026-09-01T19:56:05Z</time>
  <course>109.15</course>
  <speed>25.959015774870974</speed>
  <fix>3d</fix>
</trkpt>
<trkpt lat="-27.2738178" lon="151.2901158">
  <ele>371.92</ele>
  <time>2026-09-01T19:56:05Z</time>
  <course>102.78</course>
  <speed>25.9</speed>
  <fix>3d</fix>
</trkpt>
<trkpt lat="-27.2738399" lon="151.2901913">
  <ele>372.17</ele>
  <time>2026-09-01T19:56:05Z</time>
  <course>112.67</course>
  <speed>25.964562387993368</speed>
  <fix>3d</fix>
</trkpt>
<trkpt lat="-27.273831" lon="151.290166">
  <ele>372.12</ele>
  <time>2026-09-01T19:56:05Z</time>
  <course>110.02</course>
  <speed>25.95</speed>
  <fix>3d</fix>
</trkpt>
<trkpt lat="-27.2738499" lon="151.2902149">
  <ele>372.3</ele>
  <time>2026-09-01T19:56:05Z</time>
  <course>116.08</course>
  <speed>25.95833006955571</speed>
  <fix>3d</fix>
</trkpt>
<trkpt lat="-27.273831" lon="151.290166">
  <ele>372.12</ele>
  <time>2026-09-01T19:56:05Z</time>
  <course>110.02</course>
  <speed>25.95</speed>
  <fix>3d</fix>
</trkpt>
<trkpt lat="-27.2738612" lon="151.2902377">
  <ele>372.45</ele>
  <time>2026-09-01T19:56:05Z</time>
  <course>119.46</course>
  <speed>25.947997995991905</speed>
  <fix>3d</fix>
</trkpt>
<trkpt lat="-27.2738497" lon="151.2902141">
  <ele>372.37</ele>
  <time>2026-09-01T19:56:05Z</time>
  <course>117.07</course>
  <speed>25.98</speed>
  <fix>3d</fix>
</trkpt>
<trkpt lat="-27.2738736" lon="151.2902597">
  <ele>372.6</ele>
  <time>2026-09-01T19:56:05Z</time>
  <course>122.77</course>
  <speed>25.938427091865073</speed>
  <fix>3d</fix>
</trkpt>
<trkpt lat="-27.2738497" lon="151.2902141">
  <ele>372.37</ele>
  <time>2026-09-01T19:56:05Z</time>
  <course>117.07</course>
  <speed>25.98</speed>
  <fix>3d</fix>
</trkpt>
<trkpt lat="-27.2738871" lon="151.2902809">
  <ele>372.75</ele>
  <time>2026-09-01T19:56:05Z</time>
  <course>126.04</course>
  <speed>25.9231672447639</speed>
  <fix>3d</fix>
</trkpt>
<trkpt lat="-27.2738734" lon="151.2902595">
  <ele>372.66</ele>
  <time>2026-09-01T19:56:05Z</time>
  <course>123.89</course>
  <speed>25.98</speed>
  <fix>3d</fix>
</trkpt>
<trkpt lat="-27.2739017" lon="151.2903012">
  <ele>372.91</ele>
  <time>2026-09-01T19:56:05Z</time>
  <course>129.27</course>
  <speed>25.910221921087437</speed>
  <fix>3d</fix>
</trkpt>
<trkpt lat="-27.2738734" lon="151.2902595">
  <ele>372.66</ele>
  <time>2026-09-01T19:56:05Z</time>
  <course>123.89</course>
  <speed>25.98</speed>
  <fix>3d</fix>
</trkpt>
<trkpt lat="-27.2739173" lon="151.2903205">
  <ele>373.07</ele>
  <time>2026-09-01T19:56:05Z</time>
  <course>132.33</course>
  <speed>25.877907566107428</speed>
  <fix>3d</fix>
</trkpt>
<trkpt lat="-27.2739016" lon="151.2903013">
  <ele>372.97</ele>
  <time>2026-09-01T19:56:05Z</time>
  <course>130.48</course>
  <speed>25.97</speed>
  <fix>3d</fix>
</trkpt>
<trkpt lat="-27.2739338" lon="151.2903388">
  <ele>373.23</ele>
  <time>2026-09-01T19:56:05Z</time>
  <course>135.29</course>
  <speed>25.85303850614082</speed>
  <fix>3d</fix>
</trkpt>
<trkpt lat="-27.2739016" lon="151.2903013">
  <ele>372.97</ele>
  <time>2026-09-01T19:56:05Z</time>
  <course>130.48</course>
  <speed>25.97</speed>
  <fix>3d</fix>
</trkpt>
<trkpt lat="-27.2739511" lon="151.2903561">
  <ele>373.39</ele>
  <time>2026-09-01T19:56:05Z</time>
  <course>138.08</course>
  <speed>25.81253377721761</speed>
  <fix>3d</fix>
</trkpt>
<trkpt lat="-27.2739338" lon="151.2903392">
  <ele>373.28</ele>
  <time>2026-09-01T19:56:05Z</time>
  <course>136.73</course>
  <speed>25.92</speed>
  <fix>3d</fix>
</trkpt>
<trkpt lat="-27.2739691" lon="151.2903724">
  <ele>373.55</ele>
  <time>2026-09-01T19:56:05Z</time>
  <course>140.8</course>
  <speed>25.768587466137916</speed>
  <fix>3d</fix>
</trkpt>
<trkpt lat="-27.2739338" lon="151.2903392">
  <ele>373.28</ele>
  <time>2026-09-01T19:56:05Z</time>
  <course>136.73</course>
  <speed>25.92</speed>
  <fix>3d</fix>
</trkpt>
<trkpt lat="-27.2739876" lon="151.2903876">
  <ele>373.7</ele>
  <time>2026-09-01T19:56:05Z</time>
  <course>143.33</course>
  <speed>25.718874392165766</speed>
  <fix>3d</fix>
</trkpt>
<trkpt lat="-27.2739692" lon="151.2903731">
  <ele>373.59</ele>
  <time>2026-09-01T19:56:05Z</time>
  <course>142.53</course>
  <speed>25.86</speed>
  <fix>3d</fix>
</trkpt>
<trkpt lat="-27.2740069" lon="151.2904019">
  <ele>373.85</ele>
  <time>2026-09-01T19:56:05Z</time>
  <course>145.75</course>
  <speed>25.679511288184596</speed>
  <fix>3d</fix>
</trkpt>
<trkpt lat="-27.2739692" lon="151.2903731">
  <ele>373.59</ele>
  <time>2026-09-01T19:56:05Z</time>
  <course>142.53</course>
  <speed>25.86</speed>
  <fix>3d</fix>
</trkpt>
<trkpt lat="-27.2740266" lon="151.2904152">
  <ele>373.99</ele>
  <time>2026-09-01T19:56:05Z</time>
  <course>148.12</course>
  <speed>25.630593048152438</speed>
  <fix>3d</fix>
</trkpt>
<trkpt lat="-27.2740073" lon="151.2904028">
  <ele>373.89</ele>
  <time>2026-09-01T19:56:05Z</time>
  <course>147.78</course>
  <speed>25.77</speed>
  <fix>3d</fix>
</trkpt>
<trkpt lat="-27.2740468" lon="151.2904276">
  <ele>374.11</ele>
  <time>2026-09-01T19:56:05Z</time>
  <course>150.42</course>
  <speed>25.586844275916484</speed>
  <fix>3d</fix>
</trkpt>
<trkpt lat="-27.2740073" lon="151.2904028">
  <ele>373.89</ele>
  <time>2026-09-01T19:56:05Z</time>
  <course>147.78</course>
  <speed>25.77</speed>
  <fix>3d</fix>
</trkpt>
<trkpt lat="-27.2740674" lon="151.2904391">
  <ele>374.23</ele>
  <time>2026-09-01T19:56:05Z</time>
  <course>152.85</course>
  <speed>25.529065787842686</speed>
  <fix>3d</fix>
</trkpt>
<trkpt lat="-27.2740474" lon="151.2904285">
  <ele>374.14</ele>
  <time>2026-09-01T19:56:05Z</time>
  <course>152.64</course>
  <speed>25.67</speed>
  <fix>3d</fix>
</trkpt>
<trkpt lat="-27.2740885" lon="151.2904496">
  <ele>374.33</ele>
  <time>2026-09-01T19:56:05Z</time>
  <course>155.38</course>
  <speed>25.480883030224835</speed>
  <fix>3d</fix>
</trkpt>
<trkpt lat="-27.2740474" lon="151.2904285">
  <ele>374.14</ele>
  <time>2026-09-01T19:56:05Z</time>
  <course>152.64</course>
  <speed>25.67</speed>
  <fix>3d</fix>
</trkpt>
<trkpt lat="-27.2741098" lon="151.290459">
  <ele>374.42</ele>
  <time>2026-09-01T19:56:05Z</time>
  <course>157.96</course>
  <speed>25.43679421625296</speed>
  <fix>3d</fix>
</trkpt>
<trkpt lat="-27.2740891" lon="151.2904504">
  <ele>374.36</ele>
  <time>2026-09-01T19:56:05Z</time>
  <course>157.47</course>
  <speed>25.57</speed>
  <fix>3d</fix>
</trkpt>
<trkpt lat="-27.2741315" lon="151.2904673">
  <ele>374.5</ele>
  <time>2026-09-01T19:56:05Z</time>
  <course>160.61</course>
  <speed>25.39453681404723</speed>
  <fix>3d</fix>
</trkpt>
<trkpt lat="-27.2740891" lon="151.2904504">
  <ele>374.36</ele>
  <time>2026-09-01T19:56:05Z</time>
  <course>157.47</course>
  <speed>25.57</speed>
  <fix>3d</fix>
</trkpt>
<trkpt lat="-27.2741536" lon="151.2904745">
  <ele>374.58</ele>
  <time>2026-09-01T19:56:05Z</time>
  <course>163.36</course>
  <speed>25.356208312758437</speed>
  <fix>3d</fix>
</trkpt>
<trkpt lat="-27.2741321" lon="151.2904681">
  <ele>374.53</ele>
  <time>2026-09-01T19:56:05Z</time>
  <course>162.55</course>
  <speed>25.47</speed>
  <fix>3d</fix>
</trkpt>
<trkpt lat="-27.2741757" lon="151.2904805">
  <ele>374.66</ele>
  <time>2026-09-01T19:56:05Z</time>
  <course>166.15</course>
  <speed>25.32025671275866</speed>
  <fix>3d</fix>
</trkpt>
<trkpt lat="-27.2741321" lon="151.2904681">
  <ele>374.53</ele>
  <time>2026-09-01T19:56:05Z</time>
  <course>162.55</course>
  <speed>25.47</speed>
  <fix>3d</fix>
</trkpt>
<trkpt lat="-27.274198" lon="151.2904852">
  <ele>374.73</ele>
  <time>2026-09-01T19:56:05Z</time>
  <course>168.98</course>
  <speed>25.284841308578542</speed>
  <fix>3d</fix>
</trkpt>
<trkpt lat="-27.2741763" lon="151.2904811">
  <ele>374.69</ele>
  <time>2026-09-01T19:56:05Z</time>
  <course>167.92</course>
  <speed>25.39</speed>
  <fix>3d</fix>
</trkpt>
<trkpt lat="-27.2742206" lon="151.2904888">
  <ele>374.8</ele>
  <time>2026-09-01T19:56:05Z</time>
  <course>171.51</course>
  <speed>25.23916203046369</speed>
  <fix>3d</fix>
</trkpt>
<trkpt lat="-27.2741763" lon="151.2904811">
  <ele>374.69</ele>
  <time>2026-09-01T19:56:05Z</time>
  <course>167.92</course>
  <speed>25.39</speed>
  <fix>3d</fix>
</trkpt>
<trkpt lat="-27.2742432" lon="151.2904912">
  <ele>374.86</ele>
  <time>2026-09-01T19:56:05Z</time>
  <course>173.24</course>
  <speed>25.165897559991777</speed>
  <fix>3d</fix>
</trkpt>
<trkpt lat="-27.2742213" lon="151.2904895">
  <ele>374.82</ele>
  <time>2026-09-01T19:56:05Z</time>
  <course>173.22</course>
  <speed>25.3</speed>
  <fix>3d</fix>
</trkpt>
<trkpt lat="-27.2742657" lon="151.2904927">
  <ele>374.89</ele>
  <time>2026-09-01T19:56:05Z</time>
  <course>174.4</course>
  <speed>25.044168982020548</speed>
  <fix>3d</fix>
</trkpt>
<trkpt lat="-27.2742213" lon="151.2904895">
  <ele>374.82</ele>
  <time>2026-09-01T19:56:05Z</time>
  <course>173.22</course>
  <speed>25.3</speed>
  <fix>3d</fix>
</trkpt>
<trkpt lat="-27.2742882" lon="151.2904936">
  <ele>374.91</ele>
  <time>2026-09-01T19:56:05Z</time>
  <course>175.61</course>
  <speed>24.87608088103912</speed>
  <fix>3d</fix>
</trkpt>
<trkpt lat="-27.2742665" lon="151.2904936">
  <ele>374.91</ele>
  <time>2026-09-01T19:56:05Z</time>
  <course>177.26</course>
  <speed>25.11</speed>
  <fix>3d</fix>
</trkpt>
<trkpt lat="-27.2743105" lon="151.290494">
  <ele>374.89</ele>
  <time>2026-09-01T19:56:05Z</time>
  <course>176.99</course>
  <speed>24.67000202675306</speed>
  <fix>3d</fix>
</trkpt>
<trkpt lat="-27.2742665" lon="151.2904936">
  <ele>374.91</ele>
  <time>2026-09-01T19:56:05Z</time>
  <course>177.26</course>
  <speed>25.11</speed>
  <fix>3d</fix>
</trkpt>
<trkpt lat="-27.2743326" lon="151.2904938">
  <ele>374.88</ele>
  <time>2026-09-01T19:56:05Z</time>
  <course>178.33</course>
  <speed>24.394921602661483</speed>
  <fix>3d</fix>
</trkpt>
<trkpt lat="-27.2743113" lon="151.2904948">
  <ele>374.92</ele>
  <time>2026-09-01T19:56:05Z</time>
  <course>179.95</course>
  <speed>24.72</speed>
  <fix>3d</fix>
</trkpt>
<trkpt lat="-27.2743545" lon="151.2904933">
  <ele>374.87</ele>
  <time>2026-09-01T19:56:05Z</time>
  <course>179.37</course>
  <speed>24.07608772205318</speed>
  <fix>3d</fix>
</trkpt>
<trkpt lat="-27.2743113" lon="151.2904948">
  <ele>374.92</ele>
  <time>2026-09-01T19:56:05Z</time>
  <course>179.95</course>
  <speed>24.72</speed>
  <fix>3d</fix>
</trkpt>
<trkpt lat="-27.274376" lon="151.2904923">
  <ele>374.87</ele>
  <time>2026-09-01T19:56:05Z</time>
  <course>180.09</course>
  <speed>23.737872693230116</speed>
  <fix>3d</fix>
</trkpt>
<trkpt lat="-27.2743552" lon="151.2904939">
  <ele>374.9</ele>
  <time>2026-09-01T19:56:05Z</time>
  <course>182.03</course>
  <speed>24.15</speed>
  <fix>3d</fix>
</trkpt>
<trkpt lat="-27.2743972" lon="151.2904912">
  <ele>374.87</ele>
  <time>2026-09-01T19:56:05Z</time>
  <course>180.54</course>
  <speed>23.406687078696123</speed>
  <fix>3d</fix>
</trkpt>
<trkpt lat="-27.2743552" lon="151.2904939">
  <ele>374.9</ele>
  <time>2026-09-01T19:56:05Z</time>
  <course>182.03</course>
  <speed>24.15</speed>
  <fix>3d</fix>
</trkpt>
<trkpt lat="-27.2744181" lon="151.2904898">
  <ele>374.9</ele>
  <time>2026-09-01T19:56:05Z</time>
  <course>180.8</course>
  <speed>23.07190932714499</speed>
  <fix>3d</fix>
</trkpt>
<trkpt lat="-27.2743979" lon="151.2904917">
  <ele>374.9</ele>
  <time>2026-09-01T19:56:05Z</time>
  <course>183.25</course>
  <speed>23.48</speed>
  <fix>3d</fix>
</trkpt>
<trkpt lat="-27.2744386" lon="151.2904885">
  <ele>374.93</ele>
  <time>2026-09-01T19:56:05Z</time>
  <course>180.96</course>
  <speed>22.75372936465581</speed>
  <fix>3d</fix>
</trkpt>
<trkpt lat="-27.2743979" lon="151.2904917">
  <ele>374.9</ele>
  <time>2026-09-01T19:56:05Z</time>
  <course>183.25</course>
  <speed>23.48</speed>
  <fix>3d</fix>
</trkpt>
<trkpt lat="-27.2744589" lon="151.2904871">
  <ele>374.98</ele>
  <time>2026-09-01T19:56:05Z</time>
  <course>181.11</course>
  <speed>22.423124224781883</speed>
  <fix>3d</fix>
</trkpt>
<trkpt lat="-27.2744394" lon="151.2904888">
  <ele>374.96</ele>
  <time>2026-09-01T19:56:05Z</time>
  <course>183.68</course>
  <speed>22.81</speed>
  <fix>3d</fix>
</trkpt>
<trkpt lat="-27.2744789" lon="151.2904858">
  <ele>375.04</ele>
  <time>2026-09-01T19:56:05Z</time>
  <course>181.27</course>
  <speed>22.100660623610327</speed>
  <fix>3d</fix>
</trkpt>
<trkpt lat="-27.2744394" lon="151.2904888">
  <ele>374.96</ele>
  <time>2026-09-01T19:56:05Z</time>
  <course>183.68</course>
  <speed>22.81</speed>
  <fix>3d</fix>
</trkpt>
<trkpt lat="-27.2744986" lon="151.2904844">
  <ele>375.12</ele>
  <time>2026-09-01T19:56:05Z</time>
  <course>181.44</course>
  <speed>21.767666388476282</speed>
  <fix>3d</fix>
</trkpt>
<trkpt lat="-27.2744797" lon="151.2904858">
  <ele>375.07</ele>
  <time>2026-09-01T19:56:05Z</time>
  <course>183.67</course>
  <speed>22.14</speed>
  <fix>3d</fix>
</trkpt>
<trkpt lat="-27.2745182" lon="151.2904832">
  <ele>375.21</ele>
  <time>2026-09-01T19:56:05Z</time>
  <course>181.62</course>
  <speed>21.43418064680803</speed>
  <fix>3d</fix>
</trkpt>
<trkpt lat="-27.2744797" lon="151.2904858">
  <ele>375.07</ele>
  <time>2026-09-01T19:56:05Z</time>
  <course>183.67</course>
  <speed>22.14</speed>
  <fix>3d</fix>
</trkpt>
<trkpt lat="-27.2745374" lon="151.290482">
  <ele>375.32</ele>
  <time>2026-09-01T19:56:05Z</time>
  <course>181.78</course>
  <speed>21.101360145734684</speed>
  <fix>3d</fix>
</trkpt>
<trkpt lat="-27.2745188" lon="151.2904831">
  <ele>375.24</ele>
  <time>2026-09-01T19:56:05Z</time>
  <course>183.47</course>
  <speed>21.47</speed>
  <fix>3d</fix>
</trkpt>
<trkpt lat="-27.2745562" lon="151.2904808">
  <ele>375.44</ele>
  <time>2026-09-01T19:56:05Z</time>
  <course>181.93</course>
  <speed>20.758636756781502</speed>
  <fix>3d</fix>
</trkpt>
<trkpt lat="-27.2745188" lon="151.2904831">
  <ele>375.24</ele>
  <time>2026-09-01T19:56:05Z</time>
  <course>183.47</course>
  <speed>21.47</speed>
  <fix>3d</fix>
</trkpt>
<trkpt lat="-27.2745747" lon="151.2904797">
  <ele>375.58</ele>
  <time>2026-09-01T19:56:05Z</time>
  <course>182.07</course>
  <speed>20.426492601521193</speed>
  <fix>3d</fix>
</trkpt>
<trkpt lat="-27.2745567" lon="151.2904805">
  <ele>375.47</ele>
  <time>2026-09-01T19:56:05Z</time>
  <course>183.25</course>
  <speed>20.79</speed>
  <fix>3d</fix>
</trkpt>
<trkpt lat="-27.274593" lon="151.2904786">
  <ele>375.72</ele>
  <time>2026-09-01T19:56:05Z</time>
  <course>182.2</course>
  <speed>20.10488497853196</speed>
  <fix>3d</fix>
</trkpt>
<trkpt lat="-27.2745567" lon="151.2904805">
  <ele>375.47</ele>
  <time>2026-09-01T19:56:05Z</time>
  <course>183.25</course>
  <speed>20.79</speed>
  <fix>3d</fix>
</trkpt>
<trkpt lat="-27.2746109" lon="151.2904776">
  <ele>375.87</ele>
  <time>2026-09-01T19:56:05Z</time>
  <course>182.31</course>
  <speed>19.793294319036434</speed>
  <fix>3d</fix>
</trkpt>
<trkpt lat="-27.2745934" lon="151.2904783">
  <ele>375.74</ele>
  <time>2026-09-01T19:56:05Z</time>
  <course>183.07</course>
  <speed>20.13</speed>
  <fix>3d</fix>
</trkpt>
<trkpt lat="-27.2746286" lon="151.2904766">
  <ele>376.0</ele>
  <time>2026-09-01T19:56:05Z</time>
  <course>182.39</course>
  <speed>19.492198439375688</speed>
  <fix>3d</fix>
</trkpt>
<trkpt lat="-27.2745934" lon="151.2904783">
  <ele>375.74</ele>
  <time>2026-09-01T19:56:05Z</time>
  <course>183.07</course>
  <speed>20.13</speed>
  <fix>3d</fix>
</trkpt>
<trkpt lat="-27.274646" lon="151.2904756">
  <ele>376.14</ele>
  <time>2026-09-01T19:56:05Z</time>
  <course>182.45</course>
  <speed>19.201104134918907</speed>
  <fix>3d</fix>
</trkpt>
<trkpt lat="-27.274629" lon="151.2904762">
  <ele>376.03</ele>
  <time>2026-09-01T19:56:05Z</time>
  <course>182.94</course>
  <speed>19.51</speed>
  <fix>3d</fix>
</trkpt>
<trkpt lat="-27.2746631" lon="151.2904747">
  <ele>376.26</ele>
  <time>2026-09-01T19:56:05Z</time>
  <course>182.49</course>
  <speed>18.920013213526044</speed>
  <fix>3d</fix>
</trkpt>
<trkpt lat="-27.274629" lon="151.2904762">
  <ele>376.03</ele>
  <time>2026-09-01T19:56:05Z</time>
  <course>182.94</course>
  <speed>19.51</speed>
  <fix>3d</fix>
</trkpt>
<trkpt lat="-27.27468" lon="151.2904738">
  <ele>376.38</ele>
  <time>2026-09-01T19:56:05Z</time>
  <course>182.5</course>
  <speed>18.64892758310783</speed>
  <fix>3d</fix>
</trkpt>
<trkpt lat="-27.2746635" lon="151.2904742">
  <ele>376.29</ele>
  <time>2026-09-01T19:56:05Z</time>
  <course>182.83</course>
  <speed>18.93</speed>
  <fix>3d</fix>
</trkpt>
<trkpt lat="-27.2746966" lon="151.2904729">
  <ele>376.48</ele>
  <time>2026-09-01T19:56:05Z</time>
  <course>182.47</course>
  <speed>18.39783954707726</speed>
  <fix>3d</fix>
</trkpt>
<trkpt lat="-27.2746635" lon="151.2904742">
  <ele>376.29</ele>
  <time>2026-09-01T19:56:05Z</time>
  <course>182.83</course>
  <speed>18.93</speed>
  <fix>3d</fix>
</trkpt>
<trkpt lat="-27.2747132" lon="151.290472">
  <ele>376.57</ele>
  <time>2026-09-01T19:56:05Z</time>
  <course>182.43</course>
  <speed>18.146771062643623</speed>
  <fix>3d</fix>
</trkpt>
<trkpt lat="-27.2746971" lon="151.2904724">
  <ele>376.52</ele>
  <time>2026-09-01T19:56:05Z</time>
  <course>182.7</course>
  <speed>18.39</speed>
  <fix>3d</fix>
</trkpt>
<trkpt lat="-27.2747294" lon="151.2904712">
  <ele>376.65</ele>
  <time>2026-09-01T19:56:05Z</time>
  <course>182.36</course>
  <speed>17.905298098607574</speed>
  <fix>3d</fix>
</trkpt>
<trkpt lat="-27.2746971" lon="151.2904724">
  <ele>376.52</ele>
  <time>2026-09-01T19:56:05Z</time>
  <course>182.7</course>
  <speed>18.39</speed>
  <fix>3d</fix>
</trkpt>
<trkpt lat="-27.2747454" lon="151.2904704">
  <ele>376.73</ele>
  <time>2026-09-01T19:56:05Z</time>
  <course>182.27</course>
  <speed>17.663875565684897</speed>
  <fix>3d</fix>
</trkpt>
<trkpt lat="-27.2747296" lon="151.2904707">
  <ele>376.7</ele>
  <time>2026-09-01T19:56:05Z</time>
  <course>182.52</course>
  <speed>17.89</speed>
  <fix>3d</fix>
</trkpt>
<trkpt lat="-27.2747612" lon="151.2904697">
  <ele>376.8</ele>
  <time>2026-09-01T19:56:05Z</time>
  <course>182.15</course>
  <speed>17.44211569735736</speed>
  <fix>3d</fix>
</trkpt>
<trkpt lat="-27.2747296" lon="151.2904707">
  <ele>376.7</ele>
  <time>2026-09-01T19:56:05Z</time>
  <course>182.52</course>
  <speed>17.89</speed>
  <fix>3d</fix>
</trkpt>
<trkpt lat="-27.2747768" lon="151.290469">
  <ele>376.86</ele>
  <time>2026-09-01T19:56:05Z</time>
  <course>182.0</course>
  <speed>17.220110336464167</speed>
  <fix>3d</fix>
</trkpt>
<trkpt lat="-27.2747613" lon="151.2904692">
  <ele>376.84</ele>
  <time>2026-09-01T19:56:05Z</time>
  <course>182.26</course>
  <speed>17.42</speed>
  <fix>3d</fix>
</trkpt>
<trkpt lat="-27.2747922" lon="151.2904684">
  <ele>376.91</ele>
  <time>2026-09-01T19:56:05Z</time>
  <course>181.83</course>
  <speed>17.008259758129284</speed>
  <fix>3d</fix>
</trkpt>
<trkpt lat="-27.2747613" lon="151.2904692">
  <ele>376.84</ele>
  <time>2026-09-01T19:56:05Z</time>
  <course>182.26</course>
  <speed>17.42</speed>
  <fix>3d</fix>
</trkpt>
<trkpt lat="-27.2748073" lon="151.2904678">
  <ele>376.96</ele>
  <time>2026-09-01T19:56:05Z</time>
  <course>181.64</course>
  <speed>16.796577032240826</speed>
  <fix>3d</fix>
</trkpt>
<trkpt lat="-27.2747921" lon="151.2904679">
  <ele>376.96</ele>
  <time>2026-09-01T19:56:05Z</time>
  <course>181.91</course>
  <speed>16.98</speed>
  <fix>3d</fix>
</trkpt>
<trkpt lat="-27.2748224" lon="151.2904673">
  <ele>377.0</ele>
  <time>2026-09-01T19:56:05Z</time>
  <course>181.42</course>
  <speed>16.594821481414016</speed>
  <fix>3d</fix>
</trkpt>
<trkpt lat="-27.2747921" lon="151.2904679">
  <ele>376.96</ele>
  <time>2026-09-01T19:56:05Z</time>
  <course>181.91</course>
  <speed>16.98</speed>
  <fix>3d</fix>
</trkpt>
<trkpt lat="-27.2748372" lon="151.2904669">
  <ele>377.05</ele>
  <time>2026-09-01T19:56:05Z</time>
  <course>181.18</course>
  <speed>16.39312355837044</speed>
  <fix>3d</fix>
</trkpt>
<trkpt lat="-27.2748222" lon="151.2904669">
  <ele>377.05</ele>
  <time>2026-09-01T19:56:05Z</time>
  <course>181.47</course>
  <speed>16.55</speed>
  <fix>3d</fix>
</trkpt>
<trkpt lat="-27.2748519" lon="151.2904666">
  <ele>377.09</ele>
  <time>2026-09-01T19:56:05Z</time>
  <course>180.92</course>
  <speed>16.191778778133056</speed>
  <fix>3d</fix>
</trkpt>
<trkpt lat="-27.2748222" lon="151.2904669">
  <ele>377.05</ele>
  <time>2026-09-01T19:56:05Z</time>
  <course>181.47</course>
  <speed>16.55</speed>
  <fix>3d</fix>
</trkpt>
<trkpt lat="-27.2748665" lon="151.2904664">
  <ele>377.13</ele>
  <time>2026-09-01T19:56:05Z</time>
  <course>180.64</course>
  <speed>15.990800480276153</speed>
  <fix>3d</fix>
</trkpt>
<trkpt lat="-27.2748516" lon="151.2904663">
  <ele>377.14</ele>
  <time>2026-09-01T19:56:05Z</time>
  <course>180.93</course>
  <speed>16.14</speed>
  <fix>3d</fix>
</trkpt>
<trkpt lat="-27.2748808" lon="151.2904662">
  <ele>377.17</ele>
  <time>2026-09-01T19:56:05Z</time>
  <course>180.35</course>
  <speed>15.790202658610813</speed>
  <fix>3d</fix>
</trkpt>
<trkpt lat="-27.2748516" lon="151.2904663">
  <ele>377.14</ele>
  <time>2026-09-01T19:56:05Z</time>
  <course>180.93</course>
  <speed>16.14</speed>
  <fix>3d</fix>
</trkpt>
<trkpt lat="-27.2748949" lon="151.2904661">
  <ele>377.22</ele>
  <time>2026-09-01T19:56:05Z</time>
  <course>180.04</course>
  <speed>15.6</speed>
  <fix>3d</fix>
</trkpt>
<trkpt lat="-27.2748802" lon="151.2904659">
  <ele>377.23</ele>
  <time>2026-09-01T19:56:05Z</time>
  <course>180.32</course>
  <speed>15.74</speed>
  <fix>3d</fix>
</trkpt>
<trkpt lat="-27.2749088" lon="151.2904662">
  <ele>377.27</ele>
  <time>2026-09-01T19:56:05Z</time>
  <course>179.71</course>
  <speed>15.400262984767501</speed>
  <fix>3d</fix>
</trkpt>
<trkpt lat="-27.2748802" lon="151.2904659">
  <ele>377.23</ele>
  <time>2026-09-01T19:56:05Z</time>
  <course>180.32</course>
  <speed>15.74</speed>
  <fix>3d</fix>
</trkpt>
<trkpt lat="-27.2749226" lon="151.2904663">
  <ele>377.31</ele>
  <time>2026-09-01T19:56:05Z</time>
  <course>179.38</course>
  <speed>15.201065752110935</speed>
  <fix>3d</fix>
</trkpt>
<trkpt lat="-27.2749082" lon="151.2904658">
  <ele>377.32</ele>
  <time>2026-09-01T19:56:05Z</time>
  <course>179.64</course>
  <speed>15.34</speed>
  <fix>3d</fix>
</trkpt>
<trkpt lat="-27.2749362" lon="151.2904664">
  <ele>377.37</ele>
  <time>2026-09-01T19:56:05Z</time>
  <course>179.04</course>
  <speed>15.002429803201881</speed>
  <fix>3d</fix>
</trkpt>
<trkpt lat="-27.2749082" lon="151.2904658">
  <ele>377.32</ele>
  <time>2026-09-01T19:56:05Z</time>
  <course>179.64</course>
  <speed>15.34</speed>
  <fix>3d</fix>
</trkpt>
<trkpt lat="-27.2749495" lon="151.2904667">
  <ele>377.42</ele>
  <time>2026-09-01T19:56:05Z</time>
  <course>178.69</course>
  <speed>14.804377730928106</speed>
  <fix>3d</fix>
</trkpt>
<trkpt lat="-27.2749353" lon="151.2904661">
  <ele>377.42</ele>
  <time>2026-09-01T19:56:05Z</time>
  <course>178.92</course>
  <speed>14.94</speed>
  <fix>3d</fix>
</trkpt>
<trkpt lat="-27.2749627" lon="151.2904671">
  <ele>377.48</ele>
  <time>2026-09-01T19:56:05Z</time>
  <course>178.34</course>
  <speed>14.596938035081193</speed>
  <fix>3d</fix>
</trkpt>
<trkpt lat="-27.2749353" lon="151.2904661">
  <ele>377.42</ele>
  <time>2026-09-01T19:56:05Z</time>
  <course>178.92</course>
  <speed>14.94</speed>
  <fix>3d</fix>
</trkpt>
<trkpt lat="-27.2749757" lon="151.2904676">
  <ele>377.54</ele>
  <time>2026-09-01T19:56:05Z</time>
  <course>177.98</course>
  <speed>14.400128471649134</speed>
  <fix>3d</fix>
</trkpt>
<trkpt lat="-27.2749619" lon="151.2904669">
  <ele>377.54</ele>
  <time>2026-09-01T19:56:05Z</time>
  <course>178.16</course>
  <speed>14.54</speed>
  <fix>3d</fix>
</trkpt>
<trkpt lat="-27.2749886" lon="151.2904681">
  <ele>377.61</ele>
  <time>2026-09-01T19:56:05Z</time>
  <course>177.62</course>
  <speed>14.193547829912013</speed>
  <fix>3d</fix>
</trkpt>
<trkpt lat="-27.2749619" lon="151.2904669">
  <ele>377.54</ele>
  <time>2026-09-01T19:56:05Z</time>
  <course>178.16</course>
  <speed>14.54</speed>
  <fix>3d</fix>
</trkpt>
<trkpt lat="-27.2750012" lon="151.2904688">
  <ele>377.68</ele>
  <time>2026-09-01T19:56:05Z</time>
  <course>177.25</course>
  <speed>13.987526586212446</speed>
  <fix>3d</fix>
</trkpt>
<trkpt lat="-27.2749876" lon="151.2904681">
  <ele>377.66</ele>
  <time>2026-09-01T19:56:05Z</time>
  <course>177.39</course>
  <speed>14.13</speed>
  <fix>3d</fix>
</trkpt>
<trkpt lat="-27.2750136" lon="151.2904696">
  <ele>377.76</ele>
  <time>2026-09-01T19:56:05Z</time>
  <course>176.88</course>
  <speed>13.782089827018254</speed>
  <fix>3d</fix>
</trkpt>
<trkpt lat="-27.2749876" lon="151.2904681">
  <ele>377.66</ele>
  <time>2026-09-01T19:56:05Z</time>
  <course>177.39</course>
  <speed>14.13</speed>
  <fix>3d</fix>
</trkpt>
<trkpt lat="-27.2750259" lon="151.2904704">
  <ele>377.84</ele>
  <time>2026-09-01T19:56:05Z</time>
  <course>176.51</course>
  <speed>13.577264083754136</speed>
  <fix>3d</fix>
</trkpt>
<trkpt lat="-27.2750127" lon="151.2904696">
  <ele>377.81</ele>
  <time>2026-09-01T19:56:05Z</time>
  <course>176.61</course>
  <speed>13.73</speed>
  <fix>3d</fix>
</trkpt>
<trkpt lat="-27.2750379" lon="151.2904713">
  <ele>377.92</ele>
  <time>2026-09-01T19:56:05Z</time>
  <course>176.15</course>
  <speed>13.372378247716448</speed>
  <fix>3d</fix>
</trkpt>
<trkpt lat="-27.2750127" lon="151.2904696">
  <ele>377.81</ele>
  <time>2026-09-01T19:56:05Z</time>
  <course>176.61</course>
  <speed>13.73</speed>
  <fix>3d</fix>
</trkpt>
<trkpt lat="-27.2750498" lon="151.2904723">
  <ele>378.0</ele>
  <time>2026-09-01T19:56:05Z</time>
  <course>175.78</course>
  <speed>13.158818336005707</speed>
  <fix>3d</fix>
</trkpt>
<trkpt lat="-27.2750369" lon="151.2904714">
  <ele>377.96</ele>
  <time>2026-09-01T19:56:05Z</time>
  <course>175.83</course>
  <speed>13.31</speed>
  <fix>3d</fix>
</trkpt>
<trkpt lat="-27.2750614" lon="151.2904734">
  <ele>378.08</ele>
  <time>2026-09-01T19:56:05Z</time>
  <course>175.41</course>
  <speed>12.95426570670835</speed>
  <fix>3d</fix>
</trkpt>
<trkpt lat="-27.2750369" lon="151.2904714">
  <ele>377.96</ele>
  <time>2026-09-01T19:56:05Z</time>
  <course>175.83</course>
  <speed>13.31</speed>
  <fix>3d</fix>
</trkpt>
<trkpt lat="-27.2750729" lon="151.2904745">
  <ele>378.17</ele>
  <time>2026-09-01T19:56:05Z</time>
  <course>175.04</course>
  <speed>12.741102778017293</speed>
  <fix>3d</fix>
</trkpt>
<trkpt lat="-27.2750604" lon="151.2904735">
  <ele>378.12</ele>
  <time>2026-09-01T19:56:05Z</time>
  <course>175.05</course>
  <speed>12.9</speed>
  <fix>3d</fix>
</trkpt>
<trkpt lat="-27.2750841" lon="151.2904757">
  <ele>378.26</ele>
  <time>2026-09-01T19:56:05Z</time>
  <course>174.68</course>
  <speed>12.527605517416328</speed>
  <fix>3d</fix>
</trkpt>
<trkpt lat="-27.2750604" lon="151.2904735">
  <ele>378.12</ele>
  <time>2026-09-01T19:56:05Z</time>
  <course>175.05</course>
  <speed>12.9</speed>
  <fix>3d</fix>
</trkpt>
<trkpt lat="-27.2750952" lon="151.290477">
  <ele>378.35</ele>
  <time>2026-09-01T19:56:05Z</time>
  <course>174.31</course>
  <speed>12.304682035713071</speed>
  <fix>3d</fix>
</trkpt>
<trkpt lat="-27.275083" lon="151.2904758">
  <ele>378.3</ele>
  <time>2026-09-01T19:56:05Z</time>
  <course>174.29</course>
  <speed>12.47</speed>
  <fix>3d</fix>
</trkpt>
<trkpt lat="-27.275106" lon="151.2904783">
  <ele>378.45</ele>
  <time>2026-09-01T19:56:05Z</time>
  <course>173.95</course>
  <speed>12.091174467354278</speed>
  <fix>3d</fix>
</trkpt>
<trkpt lat="-27.275083" lon="151.2904758">
  <ele>378.3</ele>
  <time>2026-09-01T19:56:05Z</time>
  <course>174.29</course>
  <speed>12.47</speed>
  <fix>3d</fix>
</trkpt>
<trkpt lat="-27.2751166" lon="151.2904797">
  <ele>378.54</ele>
  <time>2026-09-01T19:56:05Z</time>
  <course>173.6</course>
  <speed>11.8681801469307</speed>
  <fix>3d</fix>
</trkpt>
<trkpt lat="-27.2751049" lon="151.2904785">
  <ele>378.48</ele>
  <time>2026-09-01T19:56:05Z</time>
  <course>173.53</course>
  <speed>12.05</speed>
  <fix>3d</fix>
</trkpt>
<trkpt lat="-27.275127" lon="151.2904811">
  <ele>378.64</ele>
  <time>2026-09-01T19:56:05Z</time>
  <course>173.24</course>
  <speed>11.634539097016264</speed>
  <fix>3d</fix>
</trkpt>
<trkpt lat="-27.2751049" lon="151.2904785">
  <ele>378.48</ele>
  <time>2026-09-01T19:56:05Z</time>
  <course>173.53</course>
  <speed>12.05</speed>
  <fix>3d</fix>
</trkpt>
<trkpt lat="-27.2751372" lon="151.2904826">
  <ele>378.73</ele>
  <time>2026-09-01T19:56:05Z</time>
  <course>172.89</course>
  <speed>11.42240780221053</speed>
  <fix>3d</fix>
</trkpt>
<trkpt lat="-27.275126" lon="151.2904813">
  <ele>378.67</ele>
  <time>2026-09-01T19:56:05Z</time>
  <course>172.8</course>
  <speed>11.61</speed>
  <fix>3d</fix>
</trkpt>
<trkpt lat="-27.2751472" lon="151.2904841">
  <ele>378.83</ele>
  <time>2026-09-01T19:56:05Z</time>
  <course>172.54</course>
  <speed>11.189647000687735</speed>
  <fix>3d</fix>
</trkpt>
<trkpt lat="-27.275126" lon="151.2904813">
  <ele>378.67</ele>
  <time>2026-09-01T19:56:05Z</time>
  <course>172.8</course>
  <speed>11.61</speed>
  <fix>3d</fix>
</trkpt>
<trkpt lat="-27.275157" lon="151.2904856">
  <ele>378.93</ele>
  <time>2026-09-01T19:56:05Z</time>
  <course>172.2</course>
  <speed>10.965856099730654</speed>
  <fix>3d</fix>
</trkpt>
<trkpt lat="-27.2751463" lon="151.2904843">
  <ele>378.86</ele>
  <time>2026-09-01T19:56:05Z</time>
  <course>172.08</course>
  <speed>11.18</speed>
  <fix>3d</fix>
</trkpt>
<trkpt lat="-27.2751665" lon="151.2904872">
  <ele>379.03</ele>
  <time>2026-09-01T19:56:05Z</time>
  <course>171.85</course>
  <speed>10.742411274941952</speed>
  <fix>3d</fix>
</trkpt>
<trkpt lat="-27.2751463" lon="151.2904843">
  <ele>378.86</ele>
  <time>2026-09-01T19:56:05Z</time>
  <course>172.08</course>
  <speed>11.18</speed>
  <fix>3d</fix>
</trkpt>
<trkpt lat="-27.2751759" lon="151.2904888">
  <ele>379.12</ele>
  <time>2026-09-01T19:56:05Z</time>
  <course>171.5</course>
  <speed>10.519334579715583</speed>
  <fix>3d</fix>
</trkpt>
<trkpt lat="-27.2751658" lon="151.2904875">
  <ele>379.05</ele>
  <time>2026-09-01T19:56:05Z</time>
  <course>171.37</course>
  <speed>10.74</speed>
  <fix>3d</fix>
</trkpt>
<trkpt lat="-27.2751851" lon="151.2904905">
  <ele>379.22</ele>
  <time>2026-09-01T19:56:05Z</time>
  <course>171.16</course>
  <speed>10.286773060586103</speed>
  <fix>3d</fix>
</trkpt>
<trkpt lat="-27.2751658" lon="151.2904875">
  <ele>379.05</ele>
  <time>2026-09-01T19:56:05Z</time>
  <course>171.37</course>
  <speed>10.74</speed>
  <fix>3d</fix>
</trkpt>
<trkpt lat="-27.275194" lon="151.2904921">
  <ele>379.32</ele>
  <time>2026-09-01T19:56:05Z</time>
  <course>170.82</course>
  <speed>10.062892228380468</speed>
  <fix>3d</fix>
</trkpt>
<trkpt lat="-27.2751845" lon="151.2904909">
  <ele>379.24</ele>
  <time>2026-09-01T19:56:05Z</time>
  <course>170.67</course>
  <speed>10.29</speed>
  <fix>3d</fix>
</trkpt>
<trkpt lat="-27.2752028" lon="151.2904939">
  <ele>379.41</ele>
  <time>2026-09-01T19:56:05Z</time>
  <course>170.49</course>
  <speed>9.839334327077212</speed>
  <fix>3d</fix>
</trkpt>
<trkpt lat="-27.2751845" lon="151.2904909">
  <ele>379.24</ele>
  <time>2026-09-01T19:56:05Z</time>
  <course>170.67</course>
  <speed>10.29</speed>
  <fix>3d</fix>
</trkpt>
<trkpt lat="-27.2752113" lon="151.2904956">
  <ele>379.5</ele>
  <time>2026-09-01T19:56:05Z</time>
  <course>170.16</course>
  <speed>9.616121879427277</speed>
  <fix>3d</fix>
</trkpt>
<trkpt lat="-27.2752024" lon="151.2904942">
  <ele>379.43</ele>
  <time>2026-09-01T19:56:05Z</time>
  <course>169.98</course>
  <speed>9.85</speed>
  <fix>3d</fix>
</trkpt>
<trkpt lat="-27.2752197" lon="151.2904973">
  <ele>379.59</ele>
  <time>2026-09-01T19:56:05Z</time>
  <course>169.83</course>
  <speed>9.391485505499116</speed>
  <fix>3d</fix>
</trkpt>
<trkpt lat="-27.2752024" lon="151.2904942">
  <ele>379.43</ele>
  <time>2026-09-01T19:56:05Z</time>
  <course>169.98</course>
  <speed>9.85</speed>
  <fix>3d</fix>
</trkpt>
<trkpt lat="-27.2752279" lon="151.2904991">
  <ele>379.67</ele>
  <time>2026-09-01T19:56:05Z</time>
  <course>169.5</course>
  <speed>9.167126049095213</speed>
  <fix>3d</fix>
</trkpt>
<trkpt lat="-27.2752194" lon="151.2904978">
  <ele>379.6</ele>
  <time>2026-09-01T19:56:05Z</time>
  <course>169.3</course>
  <speed>9.4</speed>
  <fix>3d</fix>
</trkpt>
<trkpt lat="-27.2752358" lon="151.2905008">
  <ele>379.75</ele>
  <time>2026-09-01T19:56:05Z</time>
  <course>169.18</course>
  <speed>8.943064351775627</speed>
  <fix>3d</fix>
</trkpt>
<trkpt lat="-27.2752194" lon="151.2904978">
  <ele>379.6</ele>
  <time>2026-09-01T19:56:05Z</time>
  <course>169.3</course>
  <speed>9.4</speed>
  <fix>3d</fix>
</trkpt>
<trkpt lat="-27.2752436" lon="151.2905026">
  <ele>379.83</ele>
  <time>2026-09-01T19:56:05Z</time>
  <course>168.86</course>
  <speed>8.719323368243662</speed>
  <fix>3d</fix>
</trkpt>
<trkpt lat="-27.2752356" lon="151.2905013">
  <ele>379.77</ele>
  <time>2026-09-01T19:56:05Z</time>
  <course>168.63</course>
  <speed>8.96</speed>
  <fix>3d</fix>
</trkpt>
<trkpt lat="-27.2752511" lon="151.2905044">
  <ele>379.9</ele>
  <time>2026-09-01T19:56:05Z</time>
  <course>168.53</course>
  <speed>8.493909582753986</speed>
  <fix>3d</fix>
</trkpt>
<trkpt lat="-27.2752356" lon="151.2905013">
  <ele>379.77</ele>
  <time>2026-09-01T19:56:05Z</time>
  <course>168.63</course>
  <speed>8.96</speed>
  <fix>3d</fix>
</trkpt>
<trkpt lat="-27.2752585" lon="151.2905062">
  <ele>379.97</ele>
  <time>2026-09-01T19:56:05Z</time>
  <course>168.21</course>
  <speed>8.2785324786462</speed>
  <fix>3d</fix>
</trkpt>
<trkpt lat="-27.275251" lon="151.2905048">
  <ele>379.91</ele>
  <time>2026-09-01T19:56:05Z</time>
  <course>167.96</course>
  <speed>8.52</speed>
  <fix>3d</fix>
</trkpt>
<trkpt lat="-27.2752656" lon="151.290508">
  <ele>380.03</ele>
  <time>2026-09-01T19:56:05Z</time>
  <course>167.89</course>
  <speed>8.063404987968793</speed>
  <fix>3d</fix>
</trkpt>
<trkpt lat="-27.275251" lon="151.2905048">
  <ele>379.91</ele>
  <time>2026-09-01T19:56:05Z</time>
  <course>167.96</course>
  <speed>8.52</speed>
  <fix>3d</fix>
</trkpt>
<trkpt lat="-27.2752726" lon="151.2905097">
  <ele>380.08</ele>
  <time>2026-09-01T19:56:05Z</time>
  <course>167.57</course>
  <speed>7.848547636346485</speed>
  <fix>3d</fix>
</trkpt>
<trkpt lat="-27.2752656" lon="151.2905084">
  <ele>380.05</ele>
  <time>2026-09-01T19:56:05Z</time>
  <course>167.3</course>
  <speed>8.09</speed>
  <fix>3d</fix>
</trkpt>
<trkpt lat="-27.2752794" lon="151.2905115">
  <ele>380.13</ele>
  <time>2026-09-01T19:56:05Z</time>
  <course>167.24</course>
  <speed>7.63398323288701</speed>
  <fix>3d</fix>
</trkpt>
<trkpt lat="-27.2752656" lon="151.2905084">
  <ele>380.05</ele>
  <time>2026-09-01T19:56:05Z</time>
  <course>167.3</course>
  <speed>8.09</speed>
  <fix>3d</fix>
</trkpt>
<trkpt lat="-27.275286" lon="151.2905133">
  <ele>380.17</ele>
  <time>2026-09-01T19:56:05Z</time>
  <course>166.92</course>
  <speed>7.427173082674188</speed>
  <fix>3d</fix>
</trkpt>
<trkpt lat="-27.2752794" lon="151.2905121">
  <ele>380.15</ele>
  <time>2026-09-01T19:56:05Z</time>
  <course>166.63</course>
  <speed>7.66</speed>
  <fix>3d</fix>
</trkpt>
<trkpt lat="-27.2752924" lon="151.2905151">
  <ele>380.21</ele>
  <time>2026-09-01T19:56:05Z</time>
  <course>166.59</course>
  <speed>7.220560920039384</speed>
  <fix>3d</fix>
</trkpt>
<trkpt lat="-27.2752794" lon="151.2905121">
  <ele>380.15</ele>
  <time>2026-09-01T19:56:05Z</time>
  <course>166.63</course>
  <speed>7.66</speed>
  <fix>3d</fix>
</trkpt>
<trkpt lat="-27.2752985" lon="151.2905168">
  <ele>380.24</ele>
  <time>2026-09-01T19:56:05Z</time>
  <course>166.25</course>
  <speed>7.0165661117102</speed>
  <fix>3d</fix>
</trkpt>
<trkpt lat="-27.2752924" lon="151.2905156">
  <ele>380.24</ele>
  <time>2026-09-01T19:56:05Z</time>
  <course>165.95</course>
  <speed>7.25</speed>
  <fix>3d</fix>
</trkpt>
<trkpt lat="-27.2753046" lon="151.2905186">
  <ele>380.26</ele>
  <time>2026-09-01T19:56:05Z</time>
  <course>165.91</course>
  <speed>6.820153957206538</speed>
  <fix>3d</fix>
</trkpt>
<trkpt lat="-27.2752924" lon="151.2905156">
  <ele>380.24</ele>
  <time>2026-09-01T19:56:05Z</time>
  <course>165.95</course>
  <speed>7.25</speed>
  <fix>3d</fix>
</trkpt>
<trkpt lat="-27.2753104" lon="151.2905203">
  <ele>380.27</ele>
  <time>2026-09-01T19:56:05Z</time>
  <course>165.56</course>
  <speed>6.6336490712126155</speed>
  <fix>3d</fix>
</trkpt>
<trkpt lat="-27.2753046" lon="151.2905192">
  <ele>380.29</ele>
  <time>2026-09-01T19:56:05Z</time>
  <course>165.25</course>
  <speed>6.86</speed>
  <fix>3d</fix>
</trkpt>
<trkpt lat="-27.2753162" lon="151.2905221">
  <ele>380.26</ele>
  <time>2026-09-01T19:56:05Z</time>
  <course>165.18</course>
  <speed>6.447363802361397</speed>
  <fix>3d</fix>
</trkpt>
<trkpt lat="-27.2753046" lon="151.2905192">
  <ele>380.29</ele>
  <time>2026-09-01T19:56:05Z</time>
  <course>165.25</course>
  <speed>6.86</speed>
  <fix>3d</fix>
</trkpt>
<trkpt lat="-27.2753217" lon="151.2905238">
  <ele>380.21</ele>
  <time>2026-09-01T19:56:05Z</time>
  <course>164.77</course>
  <speed>6.231572835167699</speed>
  <fix>3d</fix>
</trkpt>
<trkpt lat="-27.2753162" lon="151.2905227">
  <ele>380.28</ele>
  <time>2026-09-01T19:56:05Z</time>
  <course>164.7</course>
  <speed>6.46</speed>
  <fix>3d</fix>
</trkpt>
<trkpt lat="-27.275327" lon="151.2905255">
  <ele>380.07</ele>
  <time>2026-09-01T19:56:05Z</time>
  <course>164.34</course>
  <speed>5.935941374373571</speed>
  <fix>3d</fix>
</trkpt>
<trkpt lat="-27.2753162" lon="151.2905227">
  <ele>380.28</ele>
  <time>2026-09-01T19:56:05Z</time>
  <course>164.7</course>
  <speed>6.46</speed>
  <fix>3d</fix>
</trkpt>
<trkpt lat="-27.275332" lon="151.2905271">
  <ele>379.86</ele>
  <time>2026-09-01T19:56:05Z</time>
  <course>163.91</course>
  <speed>5.545637925432925</speed>
  <fix>3d</fix>
</trkpt>
<trkpt lat="-27.2753269" lon="151.2905261">
  <ele>380.09</ele>
  <time>2026-09-01T19:56:05Z</time>
  <course>164.37</course>
  <speed>5.93</speed>
  <fix>3d</fix>
</trkpt>
<trkpt lat="-27.2753366" lon="151.2905286">
  <ele>379.61</ele>
  <time>2026-09-01T19:56:05Z</time>
  <course>163.55</course>
  <speed>5.037072562510888</speed>
  <fix>3d</fix>
</trkpt>
<trkpt lat="-27.2753269" lon="151.2905261">
  <ele>380.09</ele>
  <time>2026-09-01T19:56:05Z</time>
  <course>164.37</course>
  <speed>5.93</speed>
  <fix>3d</fix>
</trkpt>
<trkpt lat="-27.2753407" lon="151.2905299">
  <ele>379.33</ele>
  <time>2026-09-01T19:56:05Z</time>
  <course>163.28</course>
  <speed>4.456007181322759</speed>
  <fix>3d</fix>
</trkpt>
<trkpt lat="-27.2753365" lon="151.2905291">
  <ele>379.66</ele>
  <time>2026-09-01T19:56:05Z</time>
  <course>163.8</course>
  <speed>5.05</speed>
  <fix>3d</fix>
</trkpt>
<trkpt lat="-27.2753442" lon="151.2905312">
  <ele>379.04</ele>
  <time>2026-09-01T19:56:05Z</time>
  <course>163.08</course>
  <speed>3.817970665157081</speed>
  <fix>3d</fix>
</trkpt>
<trkpt lat="-27.2753365" lon="151.2905291">
  <ele>379.66</ele>
  <time>2026-09-01T19:56:05Z</time>
  <course>163.8</course>
  <speed>5.05</speed>
  <fix>3d</fix>
</trkpt>
<trkpt lat="-27.2753472" lon="151.2905323">
  <ele>378.75</ele>
  <time>2026-09-01T19:56:05Z</time>
  <course>162.89</course>
  <speed>3.168627463113958</speed>
  <fix>3d</fix>
</trkpt>
<trkpt lat="-27.2753442" lon="151.2905317">
  <ele>379.13</ele>
  <time>2026-09-01T19:56:05Z</time>
  <course>162.37</course>
  <speed>3.86</speed>
  <fix>3d</fix>
</trkpt>
<trkpt lat="-27.2753496" lon="151.2905333">
  <ele>378.48</ele>
  <time>2026-09-01T19:56:05Z</time>
  <course>162.64</course>
  <speed>2.5118120948828953</speed>
  <fix>3d</fix>
</trkpt>
<trkpt lat="-27.2753442" lon="151.2905317">
  <ele>379.13</ele>
  <time>2026-09-01T19:56:05Z</time>
  <course>162.37</course>
  <speed>3.86</speed>
  <fix>3d</fix>
</trkpt>
<trkpt lat="-27.2753514" lon="151.2905341">
  <ele>378.22</ele>
  <time>2026-09-01T19:56:05Z</time>
  <course>162.21</course>
  <speed>1.8646179233290665</speed>
  <fix>3d</fix>
</trkpt>
<trkpt lat="-27.2753497" lon="151.2905338">
  <ele>378.58</ele>
  <time>2026-09-01T19:56:05Z</time>
  <course>159.24</course>
  <speed>2.57</speed>
  <fix>3d</fix>
</trkpt>
<trkpt lat="-27.2753527" lon="151.2905349">
  <ele>377.99</ele>
  <time>2026-09-01T19:56:05Z</time>
  <course>161.44</course>
  <speed>1.257060062208644</speed>
  <fix>3d</fix>
</trkpt>
<trkpt lat="-27.2753497" lon="151.2905338">
  <ele>378.58</ele>
  <time>2026-09-01T19:56:05Z</time>
  <course>159.24</course>
  <speed>2.57</speed>
  <fix>3d</fix>
</trkpt>
<trkpt lat="-27.2753535" lon="151.2905354">
  <ele>377.8</ele>
  <time>2026-09-01T19:56:05Z</time>
  <course>160.1</course>
  <speed>0.6824954212300622</speed>
  <fix>3d</fix>
</trkpt>
<trkpt lat="-27.2753529" lon="151.2905354">
  <ele>378.11</ele>
  <time>2026-09-01T19:56:05Z</time>
  <course>151.55</course>
  <speed>1.33</speed>
  <fix>3d</fix>
</trkpt>
<trkpt lat="-27.2753537" lon="151.2905358">
  <ele>377.63</ele>
  <time>2026-09-01T19:56:05Z</time>
  <course>158.03</course>
  <speed>0.27</speed>
  <fix>3d</fix>
</trkpt>
<trkpt lat="-27.2753529" lon="151.2905354">
  <ele>378.11</ele>
  <time>2026-09-01T19:56:05Z</time>
  <course>151.55</course>
  <speed>1.33</speed>
  <fix>3d</fix>
</trkpt>
<trkpt lat="-27.2753535" lon="151.2905361">
  <ele>377.51</ele>
  <time>2026-09-01T19:56:05Z</time>
  <course>155.69</course>
  <speed>0.5263078946776306</speed>
  <fix>3d</fix>
</trkpt>
<trkpt lat="-27.275354" lon="151.2905364">
  <ele>377.77</ele>
  <time>2026-09-01T19:56:05Z</time>
  <course>99.51</course>
  <speed>0.34</speed>
  <fix>3d</fix>
</trkpt>
<trkpt lat="-27.2753529" lon="151.2905362">
  <ele>377.42</ele>
  <time>2026-09-01T19:56:05Z</time>
  <course>153.81</course>
  <speed>0.9502105029939419</speed>
  <fix>3d</fix>
</trkpt>
<trkpt lat="-27.275354" lon="151.2905364">
  <ele>377.77</ele>
  <time>2026-09-01T19:56:05Z</time>
  <course>99.51</course>
  <speed>0.34</speed>
  <fix>3d</fix>
</trkpt>
<trkpt lat="-27.2753519" lon="151.2905363">
  <ele>377.38</ele>
  <time>2026-09-01T19:56:05Z</time>
  <course>152.7</course>
  <speed>1.2909686285886268</speed>
  <fix>3d</fix>
</trkpt>
<trkpt lat="-27.2753532" lon="151.2905368">
  <ele>377.56</ele>
  <time>2026-09-01T19:56:05Z</time>
  <course>6.41</course>
  <speed>0.87</speed>
  <fix>3d</fix>
</trkpt>
<trkpt lat="-27.2753507" lon="151.2905364">
  <ele>377.36</ele>
  <time>2026-09-01T19:56:05Z</time>
  <course>152.18</course>
  <speed>1.5745793088949187</speed>
  <fix>3d</fix>
</trkpt>
<trkpt lat="-27.2753532" lon="151.2905368">
  <ele>377.56</ele>
  <time>2026-09-01T19:56:05Z</time>
  <course>6.41</course>
  <speed>0.87</speed>
  <fix>3d</fix>
</trkpt>
<trkpt lat="-27.2753493" lon="151.2905362">
  <ele>377.37</ele>
  <time>2026-09-01T19:56:05Z</time>
  <course>151.72</course>
  <speed>1.7801685313475237</speed>
  <fix>3d</fix>
</trkpt>
<trkpt lat="-27.2753511" lon="151.2905368">
  <ele>377.5</ele>
  <time>2026-09-01T19:56:05Z</time>
  <course>357.4</course>
  <speed>1.5</speed>
  <fix>3d</fix>
</trkpt>
<trkpt lat="-27.2753477" lon="151.2905361">
  <ele>377.4</ele>
  <time>2026-09-01T19:56:05Z</time>
  <course>150.64</course>
  <speed>1.917706964058899</speed>
  <fix>3d</fix>
</trkpt>
<trkpt lat="-27.2753511" lon="151.2905368">
  <ele>377.5</ele>
  <time>2026-09-01T19:56:05Z</time>
  <course>357.4</course>
  <speed>1.5</speed>
  <fix>3d</fix>
</trkpt>
<trkpt lat="-27.275346" lon="151.2905358">
  <ele>377.44</ele>
  <time>2026-09-01T19:56:05Z</time>
  <course>148.39</course>
  <speed>1.9974483722990188</speed>
  <fix>3d</fix>
</trkpt>
<trkpt lat="-27.2753481" lon="151.2905366">
  <ele>377.53</ele>
  <time>2026-09-01T19:56:05Z</time>
  <course>353.46</course>
  <speed>1.86</speed>
  <fix>3d</fix>
</trkpt>
<trkpt lat="-27.2753442" lon="151.2905355">
  <ele>377.49</ele>
  <time>2026-09-01T19:56:05Z</time>
  <course>144.71</course>
  <speed>2.0298029461009266</speed>
  <fix>3d</fix>
</trkpt>
<trkpt lat="-27.2753481" lon="151.2905366">
  <ele>377.53</ele>
  <time>2026-09-01T19:56:05Z</time>
  <course>353.46</course>
  <speed>1.86</speed>
  <fix>3d</fix>
</trkpt>
<trkpt lat="-27.2753425" lon="151.2905351">
  <ele>377.55</ele>
  <time>2026-09-01T19:56:05Z</time>
  <course>139.6</course>
  <speed>2.040245083317198</speed>
  <fix>3d</fix>
</trkpt>
<trkpt lat="-27.2753446" lon="151.2905361">
  <ele>377.64</ele>
  <time>2026-09-01T19:56:05Z</time>
  <course>350.07</course>
  <speed>2.0</speed>
  <fix>3d</fix>
</trkpt>
<trkpt lat="-27.2753407" lon="151.2905347">
  <ele>377.61</ele>
  <time>2026-09-01T19:56:06Z</time>
  <course>133.27</course>
  <speed>2.04707107839469</speed>
  <fix>3d</fix>
</trkpt>
<trkpt lat="-27.2753446" lon="151.2905361">
  <ele>377.64</ele>
  <time>2026-09-01T19:56:06Z</time>
  <course>350.07</course>
  <speed>2.0</speed>
  <fix>3d</fix>
</trkpt>
<trkpt lat="-27.275339" lon="151.2905343">
  <ele>377.67</ele>
  <time>2026-09-01T19:56:06Z</time>
  <course>126.22</course>
  <speed>2.049438947614688</speed>
  <fix>3d</fix>
</trkpt>
<trkpt lat="-27.2753411" lon="151.2905353">
  <ele>377.76</ele>
  <time>2026-09-01T19:56:06Z</time>
  <course>347.81</course>
  <speed>2.03</speed>
  <fix>3d</fix>
</trkpt>
<trkpt lat="-27.2753372" lon="151.2905339">
  <ele>377.72</ele>
  <time>2026-09-01T19:56:06Z</time>
  <course>118.82</course>
  <speed>2.066518811915343</speed>
  <fix>3d</fix>
</trkpt>
<trkpt lat="-27.2753411" lon="151.2905353">
  <ele>377.76</ele>
  <time>2026-09-01T19:56:06Z</time>
  <course>347.81</course>
  <speed>2.03</speed>
  <fix>3d</fix>
</trkpt>
<trkpt lat="-27.2753354" lon="151.2905334">
  <ele>377.76</ele>
  <time>2026-09-01T19:56:06Z</time>
  <course>111.42</course>
  <speed>2.1009759636892564</speed>
  <fix>3d</fix>
</trkpt>
<trkpt lat="-27.2753375" lon="151.2905344">
  <ele>377.87</ele>
  <time>2026-09-01T19:56:06Z</time>
  <course>347.75</course>
  <speed>2.06</speed>
  <fix>3d</fix>
</trkpt>
<trkpt lat="-27.2753336" lon="151.2905331">
  <ele>377.8</ele>
  <time>2026-09-01T19:56:06Z</time>
  <course>104.26</course>
  <speed>2.161203368496357</speed>
  <fix>3d</fix>
</trkpt>
<trkpt lat="-27.2753375" lon="151.2905344">
  <ele>377.87</ele>
  <time>2026-09-01T19:56:06Z</time>
  <course>347.75</course>
  <speed>2.06</speed>
  <fix>3d</fix>
</trkpt>
<trkpt lat="-27.2753317" lon="151.2905327">
  <ele>377.82</ele>
  <time>2026-09-01T19:56:06Z</time>
  <course>97.45</course>
  <speed>2.2424317157942624</speed>
  <fix>3d</fix>
</trkpt>
<trkpt lat="-27.2753338" lon="151.2905336">
  <ele>377.95</ele>
  <time>2026-09-01T19:56:06Z</time>
  <course>349.72</course>
  <speed>2.16</speed>
  <fix>3d</fix>
</trkpt>
<trkpt lat="-27.2753296" lon="151.2905324">
  <ele>377.83</ele>
  <time>2026-09-01T19:56:06Z</time>
  <course>90.94</course>
  <speed>2.3561409125941513</speed>
  <fix>3d</fix>
</trkpt>
<trkpt lat="-27.2753338" lon="151.2905336">
  <ele>377.95</ele>
  <time>2026-09-01T19:56:06Z</time>
  <course>349.72</course>
  <speed>2.16</speed>
  <fix>3d</fix>
</trkpt>
<trkpt lat="-27.2753275" lon="151.2905321">
  <ele>377.83</ele>
  <time>2026-09-01T19:56:06Z</time>
  <course>84.76</course>
  <speed>2.4891765706755318</speed>
  <fix>3d</fix>
</trkpt>
<trkpt lat="-27.2753298" lon="151.2905328">
  <ele>377.98</ele>
  <time>2026-09-01T19:56:06Z</time>
  <course>351.44</course>
  <speed>2.35</speed>
  <fix>3d</fix>
</trkpt>
<trkpt lat="-27.2753252" lon="151.2905317">
  <ele>377.82</ele>
  <time>2026-09-01T19:56:06Z</time>
  <course>78.78</course>
  <speed>2.6439364591457184</speed>
  <fix>3d</fix>
</trkpt>
<trkpt lat="-27.2753298" lon="151.2905328">
  <ele>377.98</ele>
  <time>2026-09-01T19:56:06Z</time>
  <course>351.44</course>
  <speed>2.35</speed>
  <fix>3d</fix>
</trkpt>
<trkpt lat="-27.2753228" lon="151.2905312">
  <ele>377.8</ele>
  <time>2026-09-01T19:56:06Z</time>
  <course>72.87</course>
  <speed>2.809270367906941</speed>
  <fix>3d</fix>
</trkpt>
<trkpt lat="-27.2753253" lon="151.290532">
  <ele>377.97</ele>
  <time>2026-09-01T19:56:06Z</time>
  <course>349.63</course>
  <speed>2.63</speed>
  <fix>3d</fix>
</trkpt>
<trkpt lat="-27.2753203" lon="151.2905305">
  <ele>377.79</ele>
  <time>2026-09-01T19:56:06Z</time>
  <course>66.93</course>
  <speed>2.9837560221975252</speed>
  <fix>3d</fix>
</trkpt>
<trkpt lat="-27.2753253" lon="151.290532">
  <ele>377.97</ele>
  <time>2026-09-01T19:56:06Z</time>
  <course>349.63</course>
  <speed>2.63</speed>
  <fix>3d</fix>
</trkpt>
<trkpt lat="-27.2753177" lon="151.2905297">
  <ele>377.77</ele>
  <time>2026-09-01T19:56:06Z</time>
  <course>60.86</course>
  <speed>3.1474592928265173</speed>
  <fix>3d</fix>
</trkpt>
<trkpt lat="-27.2753204" lon="151.2905308">
  <ele>377.94</ele>
  <time>2026-09-01T19:56:06Z</time>
  <course>345.45</course>
  <speed>2.96</speed>
  <fix>3d</fix>
</trkpt>
<trkpt lat="-27.2753149" lon="151.2905287">
  <ele>377.76</ele>
  <time>2026-09-01T19:56:06Z</time>
  <course>54.63</course>
  <speed>3.317242831026996</speed>
  <fix>3d</fix>
</trkpt>
<trkpt lat="-27.2753204" lon="151.2905308">
  <ele>377.94</ele>
  <time>2026-09-01T19:56:06Z</time>
  <course>345.45</course>
  <speed>2.96</speed>
  <fix>3d</fix>
</trkpt>
<trkpt lat="-27.275312" lon="151.2905276">
  <ele>377.75</ele>
  <time>2026-09-01T19:56:06Z</time>
  <course>48.29</course>
  <speed>3.4786491631091514</speed>
  <fix>3d</fix>
</trkpt>
<trkpt lat="-27.2753151" lon="151.290529">
  <ele>377.91</ele>
  <time>2026-09-01T19:56:06Z</time>
  <course>342.29</course>
  <speed>3.29</speed>
  <fix>3d</fix>
</trkpt>
<trkpt lat="-27.275309" lon="151.2905265">
  <ele>377.75</ele>
  <time>2026-09-01T19:56:06Z</time>
  <course>41.93</course>
  <speed>3.6405082062810954</speed>
  <fix>3d</fix>
</trkpt>
<trkpt lat="-27.2753151" lon="151.290529">
  <ele>377.91</ele>
  <time>2026-09-01T19:56:06Z</time>
  <course>342.29</course>
  <speed>3.29</speed>
  <fix>3d</fix>
</trkpt>
<trkpt lat="-27.2753059" lon="151.2905252">
  <ele>377.74</ele>
  <time>2026-09-01T19:56:06Z</time>
  <course>35.61</course>
  <speed>3.795918861092792</speed>
  <fix>3d</fix>
</trkpt>
<trkpt lat="-27.2753092" lon="151.2905268">
  <ele>377.9</ele>
  <time>2026-09-01T19:56:06Z</time>
  <course>340.77</course>
  <speed>3.61</speed>
  <fix>3d</fix>
</trkpt>
<trkpt lat="-27.2753026" lon="151.290524">
  <ele>377.74</ele>
  <time>2026-09-01T19:56:06Z</time>
  <course>29.43</course>
  <speed>3.951417467188199</speed>
  <fix>3d</fix>
</trkpt>
<trkpt lat="-27.2753092" lon="151.2905268">
  <ele>377.9</ele>
  <time>2026-09-01T19:56:06Z</time>
  <course>340.77</course>
  <speed>3.61</speed>
  <fix>3d</fix>
</trkpt>
<trkpt lat="-27.2752993" lon="151.2905226">
  <ele>377.74</ele>
  <time>2026-09-01T19:56:06Z</time>
  <course>23.45</course>
  <speed>4.103522876748709</speed>
  <fix>3d</fix>
</trkpt>
<trkpt lat="-27.2753028" lon="151.2905242">
  <ele>377.89</ele>
  <time>2026-09-01T19:56:06Z</time>
  <course>340.08</course>
  <speed>3.92</speed>
  <fix>3d</fix>
</trkpt>
<trkpt lat="-27.2752958" lon="151.2905211">
  <ele>377.74</ele>
  <time>2026-09-01T19:56:06Z</time>
  <course>17.61</course>
  <speed>4.24976469936866</speed>
  <fix>3d</fix>
</trkpt>
<trkpt lat="-27.2753028" lon="151.2905242">
  <ele>377.89</ele>
  <time>2026-09-01T19:56:06Z</time>
  <course>340.08</course>
  <speed>3.92</speed>
  <fix>3d</fix>
</trkpt>
<trkpt lat="-27.2752922" lon="151.2905196">
  <ele>377.74</ele>
  <time>2026-09-01T19:56:06Z</time>
  <course>11.94</course>
  <speed>4.405451168722677</speed>
  <fix>3d</fix>
</trkpt>
<trkpt lat="-27.2752959" lon="151.2905214">
  <ele>377.89</ele>
  <time>2026-09-01T19:56:06Z</time>
  <course>339.63</course>
  <speed>4.22</speed>
  <fix>3d</fix>
</trkpt>
<trkpt lat="-27.2752884" lon="151.290518">
  <ele>377.75</ele>
  <time>2026-09-01T19:56:06Z</time>
  <course>6.41</course>
  <speed>4.5482853912216195</speed>
  <fix>3d</fix>
</trkpt>
<trkpt lat="-27.2752959" lon="151.2905214">
  <ele>377.89</ele>
  <time>2026-09-01T19:56:06Z</time>
  <course>339.63</course>
  <speed>4.22</speed>
  <fix>3d</fix>
</trkpt>
<trkpt lat="-27.2752845" lon="151.2905164">
  <ele>377.76</ele>
  <time>2026-09-01T19:56:06Z</time>
  <course>0.99</course>
  <speed>4.694731089210542</speed>
  <fix>3d</fix>
</trkpt>
<trkpt lat="-27.2752885" lon="151.2905183">
  <ele>377.91</ele>
  <time>2026-09-01T19:56:06Z</time>
  <course>339.22</course>
  <speed>4.52</speed>
  <fix>3d</fix>
</trkpt>
<trkpt lat="-27.2752805" lon="151.2905147">
  <ele>377.77</ele>
  <time>2026-09-01T19:56:06Z</time>
  <course>355.82</course>
  <speed>4.831935430032152</speed>
  <fix>3d</fix>
</trkpt>
<trkpt lat="-27.2752885" lon="151.2905183">
  <ele>377.91</ele>
  <time>2026-09-01T19:56:06Z</time>
  <course>339.22</course>
  <speed>4.52</speed>
  <fix>3d</fix>
</trkpt>
<trkpt lat="-27.2752765" lon="151.2905129">
  <ele>377.78</ele>
  <time>2026-09-01T19:56:06Z</time>
  <course>350.98</course>
  <speed>4.959939515760247</speed>
  <fix>3d</fix>
</trkpt>
<trkpt lat="-27.2752808" lon="151.2905149">
  <ele>377.93</ele>
  <time>2026-09-01T19:56:06Z</time>
  <course>338.74</course>
  <speed>4.79</speed>
  <fix>3d</fix>
</trkpt>
<trkpt lat="-27.2752723" lon="151.290511">
  <ele>377.79</ele>
  <time>2026-09-01T19:56:06Z</time>
  <course>346.66</course>
  <speed>5.084338698395299</speed>
  <fix>3d</fix>
</trkpt>
<trkpt lat="-27.2752808" lon="151.2905149">
  <ele>377.93</ele>
  <time>2026-09-01T19:56:06Z</time>
  <course>338.74</course>
  <speed>4.79</speed>
  <fix>3d</fix>
</trkpt>
<trkpt lat="-27.275268" lon="151.2905091">
  <ele>377.8</ele>
  <time>2026-09-01T19:56:06Z</time>
  <course>343.05</course>
  <speed>5.194006160951294</speed>
  <fix>3d</fix>
</trkpt>
<trkpt lat="-27.2752725" lon="151.2905113">
  <ele>377.95</ele>
  <time>2026-09-01T19:56:06Z</time>
  <course>338.2</course>
  <speed>5.04</speed>
  <fix>3d</fix>
</trkpt>
<trkpt lat="-27.2752637" lon="151.2905071">
  <ele>377.82</ele>
  <time>2026-09-01T19:56:06Z</time>
  <course>340.24</course>
  <speed>5.309284320885443</speed>
  <fix>3d</fix>
</trkpt>
<trkpt lat="-27.2752725" lon="151.2905113">
  <ele>377.95</ele>
  <time>2026-09-01T19:56:06Z</time>
  <course>338.2</course>
  <speed>5.04</speed>
  <fix>3d</fix>
</trkpt>
<trkpt lat="-27.2752592" lon="151.2905051">
  <ele>377.83</ele>
  <time>2026-09-01T19:56:06Z</time>
  <course>338.29</course>
  <speed>5.406153900879996</speed>
  <fix>3d</fix>
</trkpt>
<trkpt lat="-27.2752639" lon="151.2905074">
  <ele>377.97</ele>
  <time>2026-09-01T19:56:06Z</time>
  <course>337.69</course>
  <speed>5.27</speed>
  <fix>3d</fix>
</trkpt>
<trkpt lat="-27.2752548" lon="151.290503">
  <ele>377.84</ele>
  <time>2026-09-01T19:56:06Z</time>
  <course>337.15</course>
  <speed>5.495388976223612</speed>
  <fix>3d</fix>
</trkpt>
<trkpt lat="-27.2752639" lon="151.2905074">
  <ele>377.97</ele>
  <time>2026-09-01T19:56:06Z</time>
  <course>337.69</course>
  <speed>5.27</speed>
  <fix>3d</fix>
</trkpt>
<trkpt lat="-27.2752502" lon="151.2905008">
  <ele>377.85</ele>
  <time>2026-09-01T19:56:06Z</time>
  <course>336.69</course>
  <speed>5.5754102988031295</speed>
  <fix>3d</fix>
</trkpt>
<trkpt lat="-27.275255" lon="151.2905032">
  <ele>378.0</ele>
  <time>2026-09-01T19:56:06Z</time>
  <course>337.34</course>
  <speed>5.45</speed>
  <fix>3d</fix>
</trkpt>
<trkpt lat="-27.2752456" lon="151.2904986">
  <ele>377.86</ele>
  <time>2026-09-01T19:56:06Z</time>
  <course>336.7</course>
  <speed>5.646237685397242</speed>
  <fix>3d</fix>
</trkpt>
<trkpt lat="-27.275255" lon="151.2905032">
  <ele>378.0</ele>
  <time>2026-09-01T19:56:06Z</time>
  <course>337.34</course>
  <speed>5.45</speed>
  <fix>3d</fix>
</trkpt>
<trkpt lat="-27.2752409" lon="151.2904964">
  <ele>377.86</ele>
  <time>2026-09-01T19:56:06Z</time>
  <course>336.97</course>
  <speed>5.709290673980438</speed>
  <fix>3d</fix>
</trkpt>
<trkpt lat="-27.2752458" lon="151.2904989">
  <ele>378.02</ele>
  <time>2026-09-01T19:56:06Z</time>
  <course>337.19</course>
  <speed>5.6</speed>
  <fix>3d</fix>
</trkpt>
<trkpt lat="-27.2752362" lon="151.2904942">
  <ele>377.87</ele>
  <time>2026-09-01T19:56:06Z</time>
  <course>337.32</course>
  <speed>5.763132828592449</speed>
  <fix>3d</fix>
</trkpt>
<trkpt lat="-27.2752458" lon="151.2904989">
  <ele>378.02</ele>
  <time>2026-09-01T19:56:06Z</time>
  <course>337.19</course>
  <speed>5.6</speed>
  <fix>3d</fix>
</trkpt>
<trkpt lat="-27.2752314" lon="151.2904919">
  <ele>377.87</ele>
  <time>2026-09-01T19:56:06Z</time>
  <course>337.63</course>
  <speed>5.8038780138800306</speed>
  <fix>3d</fix>
</trkpt>
<trkpt lat="-27.2752364" lon="151.2904944">
  <ele>378.03</ele>
  <time>2026-09-01T19:56:06Z</time>
  <course>337.19</course>
  <speed>5.72</speed>
  <fix>3d</fix>
</trkpt>
<trkpt lat="-27.2752265" lon="151.2904897">
  <ele>377.88</ele>
  <time>2026-09-01T19:56:06Z</time>
  <course>337.87</course>
  <speed>5.844630013952979</speed>
  <fix>3d</fix>
</trkpt>
<trkpt lat="-27.2752364" lon="151.2904944">
  <ele>378.03</ele>
  <time>2026-09-01T19:56:06Z</time>
  <course>337.19</course>
  <speed>5.72</speed>
  <fix>3d</fix>
</trkpt>
<trkpt lat="-27.2752217" lon="151.2904874">
  <ele>377.89</ele>
  <time>2026-09-01T19:56:06Z</time>
  <course>338.01</course>
  <speed>5.876163714533488</speed>
  <fix>3d</fix>
</trkpt>
<trkpt lat="-27.2752269" lon="151.2904899">
  <ele>378.04</ele>
  <time>2026-09-01T19:56:06Z</time>
  <course>337.26</course>
  <speed>5.8</speed>
  <fix>3d</fix>
</trkpt>
<trkpt lat="-27.2752169" lon="151.2904851">
  <ele>377.89</ele>
  <time>2026-09-01T19:56:06Z</time>
  <course>338.08</course>
  <speed>5.898474379023782</speed>
  <fix>3d</fix>
</trkpt>
<trkpt lat="-27.2752269" lon="151.2904899">
  <ele>378.04</ele>
  <time>2026-09-01T19:56:06Z</time>
  <course>337.26</course>
  <speed>5.8</speed>
  <fix>3d</fix>
</trkpt>
<trkpt lat="-27.275212" lon="151.2904828">
  <ele>377.9</ele>
  <time>2026-09-01T19:56:06Z</time>
  <course>338.09</course>
  <speed>5.9169248769948055</speed>
  <fix>3d</fix>
</trkpt>
<trkpt lat="-27.2752172" lon="151.2904854">
  <ele>378.05</ele>
  <time>2026-09-01T19:56:06Z</time>
  <course>337.34</course>
  <speed>5.86</speed>
  <fix>3d</fix>
</trkpt>
<trkpt lat="-27.2752071" lon="151.2904806">
  <ele>377.9</ele>
  <time>2026-09-01T19:56:06Z</time>
  <course>338.08</course>
  <speed>5.926153896077961</speed>
  <fix>3d</fix>
</trkpt>
<trkpt lat="-27.2752172" lon="151.2904854">
  <ele>378.05</ele>
  <time>2026-09-01T19:56:06Z</time>
  <course>337.34</course>
  <speed>5.86</speed>
  <fix>3d</fix>
</trkpt>
<trkpt lat="-27.2752022" lon="151.2904783">
  <ele>377.9</ele>
  <time>2026-09-01T19:56:06Z</time>
  <course>338.05</course>
  <speed>5.93923395733827</speed>
  <fix>3d</fix>
</trkpt>
<trkpt lat="-27.2752075" lon="151.2904808">
  <ele>378.06</ele>
  <time>2026-09-01T19:56:06Z</time>
  <course>337.41</course>
  <speed>5.89</speed>
  <fix>3d</fix>
</trkpt>
<trkpt lat="-27.2751973" lon="151.290476">
  <ele>377.91</ele>
  <time>2026-09-01T19:56:06Z</time>
  <course>338.03</course>
  <speed>5.93923395733827</speed>
  <fix>3d</fix>
</trkpt>
<trkpt lat="-27.2752075" lon="151.2904808">
  <ele>378.06</ele>
  <time>2026-09-01T19:56:06Z</time>
  <course>337.41</course>
  <speed>5.89</speed>
  <fix>3d</fix>
</trkpt>
<trkpt lat="-27.2751924" lon="151.2904737">
  <ele>377.91</ele>
  <time>2026-09-01T19:56:06Z</time>
  <course>338.01</course>
  <speed>5.935385412928127</speed>
  <fix>3d</fix>
</trkpt>
<trkpt lat="-27.2751977" lon="151.2904762">
  <ele>378.07</ele>
  <time>2026-09-01T19:56:06Z</time>
  <course>337.45</course>
  <speed>5.91</speed>
  <fix>3d</fix>
</trkpt>
<trkpt lat="-27.2751875" lon="151.2904714">
  <ele>377.91</ele>
  <time>2026-09-01T19:56:06Z</time>
  <course>338.0</course>
  <speed>5.935385412928127</speed>
  <fix>3d</fix>
</trkpt>
<trkpt lat="-27.2751977" lon="151.2904762">
  <ele>378.07</ele>
  <time>2026-09-01T19:56:06Z</time>
  <course>337.45</course>
  <speed>5.91</speed>
  <fix>3d</fix>
</trkpt>
<trkpt lat="-27.2751825" lon="151.2904691">
  <ele>377.91</ele>
  <time>2026-09-01T19:56:06Z</time>
  <course>338.0</course>
  <speed>5.926153896077961</speed>
  <fix>3d</fix>
</trkpt>
<trkpt lat="-27.2751879" lon="151.2904717">
  <ele>378.07</ele>
  <time>2026-09-01T19:56:06Z</time>
  <course>337.47</course>
  <speed>5.9</speed>
  <fix>3d</fix>
</trkpt>
<trkpt lat="-27.2751777" lon="151.2904668">
  <ele>377.91</ele>
  <time>2026-09-01T19:56:06Z</time>
  <course>337.99</course>
  <speed>5.913078724319506</speed>
  <fix>3d</fix>
</trkpt>
<trkpt lat="-27.2751879" lon="151.2904717">
  <ele>378.07</ele>
  <time>2026-09-01T19:56:06Z</time>
  <course>337.47</course>
  <speed>5.9</speed>
  <fix>3d</fix>
</trkpt>
<trkpt lat="-27.2751728" lon="151.2904645">
  <ele>377.91</ele>
  <time>2026-09-01T19:56:06Z</time>
  <course>337.99</course>
  <speed>5.903846203958907</speed>
  <fix>3d</fix>
</trkpt>
<trkpt lat="-27.2751781" lon="151.2904671">
  <ele>378.06</ele>
  <time>2026-09-01T19:56:06Z</time>
  <course>337.48</course>
  <speed>5.88</speed>
  <fix>3d</fix>
</trkpt>
<trkpt lat="-27.275168" lon="151.2904623">
  <ele>377.91</ele>
  <time>2026-09-01T19:56:06Z</time>
  <course>337.99</course>
  <speed>5.881538914263851</speed>
  <fix>3d</fix>
</trkpt>
<trkpt lat="-27.2751781" lon="151.2904671">
  <ele>378.06</ele>
  <time>2026-09-01T19:56:06Z</time>
  <course>337.48</course>
  <speed>5.88</speed>
  <fix>3d</fix>
</trkpt>
<trkpt lat="-27.2751632" lon="151.29046">
  <ele>377.91</ele>
  <time>2026-09-01T19:56:06Z</time>
  <course>337.99</course>
  <speed>5.859232031589123</speed>
  <fix>3d</fix>
</trkpt>
<trkpt lat="-27.2751683" lon="151.2904625">
  <ele>378.06</ele>
  <time>2026-09-01T19:56:06Z</time>
  <course>337.47</course>
  <speed>5.86</speed>
  <fix>3d</fix>
</trkpt>
<trkpt lat="-27.2751584" lon="151.2904578">
  <ele>377.9</ele>
  <time>2026-09-01T19:56:06Z</time>
  <course>337.98</course>
  <speed>5.840770497117653</speed>
  <fix>3d</fix>
</trkpt>
<trkpt lat="-27.2751683" lon="151.2904625">
  <ele>378.06</ele>
  <time>2026-09-01T19:56:06Z</time>
  <course>337.47</course>
  <speed>5.86</speed>
  <fix>3d</fix>
</trkpt>
<trkpt lat="-27.2751536" lon="151.2904555">
  <ele>377.9</ele>
  <time>2026-09-01T19:56:06Z</time>
  <course>337.97</course>
  <speed>5.818461996094844</speed>
  <fix>3d</fix>
</trkpt>
<trkpt lat="-27.2751586" lon="151.290458">
  <ele>378.05</ele>
  <time>2026-09-01T19:56:06Z</time>
  <course>337.45</course>
  <speed>5.82</speed>
  <fix>3d</fix>
</trkpt>
<trkpt lat="-27.2751488" lon="151.2904533">
  <ele>377.89</ele>
  <time>2026-09-01T19:56:06Z</time>
  <course>337.96</course>
  <speed>5.786924917432401</speed>
  <fix>3d</fix>
</trkpt>
<trkpt lat="-27.2751586" lon="151.290458">
  <ele>378.05</ele>
  <time>2026-09-01T19:56:06Z</time>
  <course>337.45</course>
  <speed>5.82</speed>
  <fix>3d</fix>
</trkpt>
<trkpt lat="-27.275144" lon="151.2904511">
  <ele>377.89</ele>
  <time>2026-09-01T19:56:06Z</time>
  <course>337.94</course>
  <speed>5.7646162057850825</speed>
  <fix>3d</fix>
</trkpt>
<trkpt lat="-27.275149" lon="151.2904535">
  <ele>378.04</ele>
  <time>2026-09-01T19:56:06Z</time>
  <course>337.42</course>
  <speed>5.77</speed>
  <fix>3d</fix>
</trkpt>
<trkpt lat="-27.2751393" lon="151.2904489">
  <ele>377.88</ele>
  <time>2026-09-01T19:56:06Z</time>
  <course>337.92</course>
  <speed>5.7330794517431904</speed>
  <fix>3d</fix>
</trkpt>
<trkpt lat="-27.275149" lon="151.2904535">
  <ele>378.04</ele>
  <time>2026-09-01T19:56:06Z</time>
  <course>337.42</course>
  <speed>5.77</speed>
  <fix>3d</fix>
</trkpt>
<trkpt lat="-27.2751346" lon="151.2904467">
  <ele>377.87</ele>
  <time>2026-09-01T19:56:06Z</time>
  <course>337.9</course>
  <speed>5.714630346750348</speed>
  <fix>3d</fix>
</trkpt>
<trkpt lat="-27.2751394" lon="151.290449">
  <ele>378.03</ele>
  <time>2026-09-01T19:56:06Z</time>
  <course>337.37</course>
  <speed>5.72</speed>
  <fix>3d</fix>
</trkpt>
<trkpt lat="-27.2751299" lon="151.2904445">
  <ele>377.86</ele>
  <time>2026-09-01T19:56:06Z</time>
  <course>337.88</course>
  <speed>5.683097746827868</speed>
  <fix>3d</fix>
</trkpt>
<trkpt lat="-27.2751394" lon="151.290449">
  <ele>378.03</ele>
  <time>2026-09-01T19:56:06Z</time>
  <course>337.37</course>
  <speed>5.72</speed>
  <fix>3d</fix>
</trkpt>
<trkpt lat="-27.2751252" lon="151.2904423">
  <ele>377.85</ele>
  <time>2026-09-01T19:56:06Z</time>
  <course>337.85</course>
  <speed>5.651566154615905</speed>
  <fix>3d</fix>
</trkpt>
<trkpt lat="-27.27513" lon="151.2904446">
  <ele>378.01</ele>
  <time>2026-09-01T19:56:06Z</time>
  <course>337.31</course>
  <speed>5.67</speed>
  <fix>3d</fix>
</trkpt>
<trkpt lat="-27.2751206" lon="151.2904401">
  <ele>377.85</ele>
  <time>2026-09-01T19:56:06Z</time>
  <course>337.82</course>
  <speed>5.6200355870759395</speed>
  <fix>3d</fix>
</trkpt>
<trkpt lat="-27.27513" lon="151.2904446">
  <ele>378.01</ele>
  <time>2026-09-01T19:56:06Z</time>
  <course>337.31</course>
  <speed>5.67</speed>
  <fix>3d</fix>
</trkpt>
<trkpt lat="-27.275116" lon="151.2904379">
  <ele>377.84</ele>
  <time>2026-09-01T19:56:06Z</time>
  <course>337.79</course>
  <speed>5.588506061551692</speed>
  <fix>3d</fix>
</trkpt>
<trkpt lat="-27.2751206" lon="151.2904401">
  <ele>378.0</ele>
  <time>2026-09-01T19:56:06Z</time>
  <course>337.24</course>
  <speed>5.61</speed>
  <fix>3d</fix>
</trkpt>
<trkpt lat="-27.2751114" lon="151.2904357">
  <ele>377.84</ele>
  <time>2026-09-01T19:56:06Z</time>
  <course>337.75</course>
  <speed>5.556977595779922</speed>
  <fix>3d</fix>
</trkpt>
<trkpt lat="-27.2751206" lon="151.2904401">
  <ele>378.0</ele>
  <time>2026-09-01T19:56:06Z</time>
  <course>337.24</course>
  <speed>5.61</speed>
  <fix>3d</fix>
</trkpt>
<trkpt lat="-27.2751068" lon="151.2904336">
  <ele>377.84</ele>
  <time>2026-09-01T19:56:06Z</time>
  <course>337.72</course>
  <speed>5.525450207901615</speed>
  <fix>3d</fix>
</trkpt>
<trkpt lat="-27.2751114" lon="151.2904358">
  <ele>377.98</ele>
  <time>2026-09-01T19:56:06Z</time>
  <course>337.17</course>
  <speed>5.55</speed>
  <fix>3d</fix>
</trkpt>
<trkpt lat="-27.2751023" lon="151.2904314">
  <ele>377.83</ele>
  <time>2026-09-01T19:56:06Z</time>
  <course>337.68</course>
  <speed>5.493923916473543</speed>
  <fix>3d</fix>
</trkpt>
<trkpt lat="-27.2751114" lon="151.2904358">
  <ele>377.98</ele>
  <time>2026-09-01T19:56:06Z</time>
  <course>337.17</course>
  <speed>5.55</speed>
  <fix>3d</fix>
</trkpt>
<trkpt lat="-27.2750978" lon="151.2904293">
  <ele>377.83</ele>
  <time>2026-09-01T19:56:06Z</time>
  <course>337.64</course>
  <speed>5.46239874048023</speed>
  <fix>3d</fix>
</trkpt>
<trkpt lat="-27.2751022" lon="151.2904315">
  <ele>377.97</ele>
  <time>2026-09-01T19:56:06Z</time>
  <course>337.09</course>
  <speed>5.49</speed>
  <fix>3d</fix>
</trkpt>
<trkpt lat="-27.2750932" lon="151.2904271">
  <ele>377.82</ele>
  <time>2026-09-01T19:56:06Z</time>
  <course>337.6</course>
  <speed>5.434786104346702</speed>
  <fix>3d</fix>
</trkpt>
<trkpt lat="-27.2751022" lon="151.2904315">
  <ele>377.97</ele>
  <time>2026-09-01T19:56:06Z</time>
  <course>337.09</course>
  <speed>5.49</speed>
  <fix>3d</fix>
</trkpt>
<trkpt lat="-27.2750887" lon="151.290425">
  <ele>377.81</ele>
  <time>2026-09-01T19:56:06Z</time>
  <course>337.56</course>
  <speed>5.4032675299303845</speed>
  <fix>3d</fix>
</trkpt>
<trkpt lat="-27.2750932" lon="151.2904271">
  <ele>377.96</ele>
  <time>2026-09-01T19:56:06Z</time>
  <course>337.01</course>
  <speed>5.43</speed>
  <fix>3d</fix>
</trkpt>
<trkpt lat="-27.2750843" lon="151.2904228">
  <ele>377.8</ele>
  <time>2026-09-01T19:56:06Z</time>
  <course>337.52</course>
  <speed>5.371750180341598</speed>
  <fix>3d</fix>
</trkpt>
<trkpt lat="-27.2750932" lon="151.2904271">
  <ele>377.96</ele>
  <time>2026-09-01T19:56:06Z</time>
  <course>337.01</course>
  <speed>5.43</speed>
  <fix>3d</fix>
</trkpt>
<trkpt lat="-27.2750799" lon="151.2904207">
  <ele>377.8</ele>
  <time>2026-09-01T19:56:06Z</time>
  <course>337.47</course>
  <speed>5.3402340772666514</speed>
  <fix>3d</fix>
</trkpt>
<trkpt lat="-27.2750842" lon="151.2904229">
  <ele>377.95</ele>
  <time>2026-09-01T19:56:06Z</time>
  <course>336.91</course>
  <speed>5.37</speed>
  <fix>3d</fix>
</trkpt>
<trkpt lat="-27.2750755" lon="151.2904186">
  <ele>377.79</ele>
  <time>2026-09-01T19:56:06Z</time>
  <course>337.43</course>
  <speed>5.3087192429059575</speed>
  <fix>3d</fix>
</trkpt>
<trkpt lat="-27.2750842" lon="151.2904229">
  <ele>377.95</ele>
  <time>2026-09-01T19:56:06Z</time>
  <course>336.91</course>
  <speed>5.37</speed>
  <fix>3d</fix>
</trkpt>
<trkpt lat="-27.2750711" lon="151.2904165">
  <ele>377.79</ele>
  <time>2026-09-01T19:56:06Z</time>
  <course>337.38</course>
  <speed>5.290340253707695</speed>
  <fix>3d</fix>
</trkpt>
<trkpt lat="-27.2750754" lon="151.2904186">
  <ele>377.94</ele>
  <time>2026-09-01T19:56:06Z</time>
  <course>336.81</course>
  <speed>5.32</speed>
  <fix>3d</fix>
</trkpt>
<trkpt lat="-27.2750667" lon="151.2904144">
  <ele>377.79</ele>
  <time>2026-09-01T19:56:06Z</time>
  <course>337.33</course>
  <speed>5.258830668504169</speed>
  <fix>3d</fix>
</trkpt>
<trkpt lat="-27.2750754" lon="151.2904186">
  <ele>377.94</ele>
  <time>2026-09-01T19:56:06Z</time>
  <course>336.81</course>
  <speed>5.32</speed>
  <fix>3d</fix>
</trkpt>
<trkpt lat="-27.2750624" lon="151.2904123">
  <ele>377.78</ele>
  <time>2026-09-01T19:56:06Z</time>
  <course>337.27</course>
  <speed>5.227322450356396</speed>
  <fix>3d</fix>
</trkpt>
<trkpt lat="-27.2750666" lon="151.2904143">
  <ele>377.93</ele>
  <time>2026-09-01T19:56:06Z</time>
  <course>336.7</course>
  <speed>5.26</speed>
  <fix>3d</fix>
</trkpt>
<trkpt lat="-27.2750581" lon="151.2904102">
  <ele>377.78</ele>
  <time>2026-09-01T19:56:06Z</time>
  <course>337.22</course>
  <speed>5.208963428552749</speed>
  <fix>3d</fix>
</trkpt>
<trkpt lat="-27.2750666" lon="151.2904143">
  <ele>377.93</ele>
  <time>2026-09-01T19:56:06Z</time>
  <course>336.7</course>
  <speed>5.26</speed>
  <fix>3d</fix>
</trkpt>
<trkpt lat="-27.2750538" lon="151.2904081">
  <ele>377.78</ele>
  <time>2026-09-01T19:56:06Z</time>
  <course>337.16</course>
  <speed>5.1774607675964095</speed>
  <fix>3d</fix>
</trkpt>
<trkpt lat="-27.275058" lon="151.2904102">
  <ele>377.93</ele>
  <time>2026-09-01T19:56:06Z</time>
  <course>336.58</course>
  <speed>5.21</speed>
  <fix>3d</fix>
</trkpt>
<trkpt lat="-27.2750496" lon="151.290406">
  <ele>377.78</ele>
  <time>2026-09-01T19:56:06Z</time>
  <course>337.11</course>
  <speed>5.15911814169825</speed>
  <fix>3d</fix>
</trkpt>
<trkpt lat="-27.275058" lon="151.2904102">
  <ele>377.93</ele>
  <time>2026-09-01T19:56:06Z</time>
  <course>336.58</course>
  <speed>5.21</speed>
  <fix>3d</fix>
</trkpt>
<trkpt lat="-27.2750453" lon="151.2904039">
  <ele>377.78</ele>
  <time>2026-09-01T19:56:06Z</time>
  <course>337.05</course>
  <speed>5.127621280866987</speed>
  <fix>3d</fix>
</trkpt>
<trkpt lat="-27.2750494" lon="151.290406">
  <ele>377.92</ele>
  <time>2026-09-01T19:56:06Z</time>
  <course>336.47</course>
  <speed>5.16</speed>
  <fix>3d</fix>
</trkpt>
<trkpt lat="-27.2750411" lon="151.2904019">
  <ele>377.77</ele>
  <time>2026-09-01T19:56:06Z</time>
  <course>336.99</course>
  <speed>5.10929545045107</speed>
  <fix>3d</fix>
</trkpt>
<trkpt lat="-27.2750494" lon="151.290406">
  <ele>377.92</ele>
  <time>2026-09-01T19:56:06Z</time>
  <course>336.47</course>
  <speed>5.16</speed>
  <fix>3d</fix>
</trkpt>
<trkpt lat="-27.2750369" lon="151.2903998">
  <ele>377.77</ele>
  <time>2026-09-01T19:56:06Z</time>
  <course>336.93</course>
  <speed>5.086963730949927</speed>
  <fix>3d</fix>
</trkpt>
<trkpt lat="-27.275041" lon="151.2904019">
  <ele>377.92</ele>
  <time>2026-09-01T19:56:06Z</time>
  <course>336.35</course>
  <speed>5.11</speed>
  <fix>3d</fix>
</trkpt>
<trkpt lat="-27.2750327" lon="151.2903977">
  <ele>377.77</ele>
  <time>2026-09-01T19:56:06Z</time>
  <course>336.87</course>
  <speed>5.068648735116688</speed>
  <fix>3d</fix>
</trkpt>
<trkpt lat="-27.275041" lon="151.2904019">
  <ele>377.92</ele>
  <time>2026-09-01T19:56:06Z</time>
  <course>336.35</course>
  <speed>5.11</speed>
  <fix>3d</fix>
</trkpt>
<trkpt lat="-27.2750285" lon="151.2903957">
  <ele>377.76</ele>
  <time>2026-09-01T19:56:06Z</time>
  <course>336.81</course>
  <speed>5.046315487561197</speed>
  <fix>3d</fix>
</trkpt>
<trkpt lat="-27.2750326" lon="151.2903977">
  <ele>377.92</ele>
  <time>2026-09-01T19:56:06Z</time>
  <course>336.24</course>
  <speed>5.07</speed>
  <fix>3d</fix>
</trkpt>
<trkpt lat="-27.2750244" lon="151.2903936">
  <ele>377.76</ele>
  <time>2026-09-01T19:56:06Z</time>
  <course>336.76</course>
  <speed>5.028011535388518</speed>
  <fix>3d</fix>
</trkpt>
<trkpt lat="-27.2750326" lon="151.2903977">
  <ele>377.92</ele>
  <time>2026-09-01T19:56:06Z</time>
  <course>336.24</course>
  <speed>5.07</speed>
  <fix>3d</fix>
</trkpt>
<trkpt lat="-27.2750202" lon="151.2903916">
  <ele>377.76</ele>
  <time>2026-09-01T19:56:06Z</time>
  <course>336.7</course>
  <speed>5.0097205510886536</speed>
  <fix>3d</fix>
</trkpt>
<trkpt lat="-27.2750243" lon="151.2903936">
  <ele>377.92</ele>
  <time>2026-09-01T19:56:06Z</time>
  <course>336.13</course>
  <speed>5.03</speed>
  <fix>3d</fix>
</trkpt>
<trkpt lat="-27.2750161" lon="151.2903895">
  <ele>377.76</ele>
  <time>2026-09-01T19:56:06Z</time>
  <course>336.65</course>
  <speed>4.98738408386601</speed>
  <fix>3d</fix>
</trkpt>
<trkpt lat="-27.2750243" lon="151.2903936">
  <ele>377.92</ele>
  <time>2026-09-01T19:56:06Z</time>
  <course>336.13</course>
  <speed>5.03</speed>
  <fix>3d</fix>
</trkpt>
<trkpt lat="-27.275012" lon="151.2903874">
  <ele>377.76</ele>
  <time>2026-09-01T19:56:06Z</time>
  <course>336.59</course>
  <speed>4.978242661823547</speed>
  <fix>3d</fix>
</trkpt>
<trkpt lat="-27.2750161" lon="151.2903895">
  <ele>377.92</ele>
  <time>2026-09-01T19:56:06Z</time>
  <course>336.03</course>
  <speed>4.99</speed>
  <fix>3d</fix>
</trkpt>
<trkpt lat="-27.2750079" lon="151.2903854">
  <ele>377.76</ele>
  <time>2026-09-01T19:56:06Z</time>
  <course>336.54</course>
  <speed>4.9599697579723205</speed>
  <fix>3d</fix>
</trkpt>
<trkpt lat="-27.2750161" lon="151.2903895">
  <ele>377.92</ele>
  <time>2026-09-01T19:56:06Z</time>
  <course>336.03</course>
  <speed>4.99</speed>
  <fix>3d</fix>
</trkpt>
<trkpt lat="-27.2750039" lon="151.2903834">
  <ele>377.76</ele>
  <time>2026-09-01T19:56:06Z</time>
  <course>336.49</course>
  <speed>4.9508383128516735</speed>
  <fix>3d</fix>
</trkpt>
<trkpt lat="-27.2750079" lon="151.2903854">
  <ele>377.92</ele>
  <time>2026-09-01T19:56:06Z</time>
  <course>335.92</course>
  <speed>4.96</speed>
  <fix>3d</fix>
</trkpt>
<trkpt lat="-27.2749998" lon="151.2903813">
  <ele>377.76</ele>
  <time>2026-09-01T19:56:06Z</time>
  <course>336.43</course>
  <speed>4.928498757228209</speed>
  <fix>3d</fix>
</trkpt>
<trkpt lat="-27.2750079" lon="151.2903854">
  <ele>377.92</ele>
  <time>2026-09-01T19:56:06Z</time>
  <course>335.92</course>
  <speed>4.96</speed>
  <fix>3d</fix>
</trkpt>
<trkpt lat="-27.2749958" lon="151.2903793">
  <ele>377.77</ele>
  <time>2026-09-01T19:56:06Z</time>
  <course>336.38</course>
  <speed>4.919369878348242</speed>
  <fix>3d</fix>
</trkpt>
<trkpt lat="-27.2749998" lon="151.2903813">
  <ele>377.92</ele>
  <time>2026-09-01T19:56:06Z</time>
  <course>335.83</course>
  <speed>4.93</speed>
  <fix>3d</fix>
</trkpt>
<trkpt lat="-27.2749917" lon="151.2903772">
  <ele>377.77</ele>
  <time>2026-09-01T19:56:06Z</time>
  <course>336.33</course>
  <speed>4.910244393103056</speed>
  <fix>3d</fix>
</trkpt>
<trkpt lat="-27.2749998" lon="151.2903813">
  <ele>377.92</ele>
  <time>2026-09-01T19:56:06Z</time>
  <course>335.83</course>
  <speed>4.93</speed>
  <fix>3d</fix>
</trkpt>
<trkpt lat="-27.2749877" lon="151.2903752">
  <ele>377.77</ele>
  <time>2026-09-01T19:56:06Z</time>
  <course>336.28</course>
  <speed>4.901122320448654</speed>
  <fix>3d</fix>
</trkpt>
<trkpt lat="-27.2749998" lon="151.2903813">
  <ele>377.92</ele>
  <time>2026-09-01T19:56:06Z</time>
  <course>335.83</course>
  <speed>4.93</speed>
  <fix>3d</fix>
</trkpt>
<trkpt lat="-27.2749837" lon="151.2903732">
  <ele>377.77</ele>
  <time>2026-09-01T19:56:06Z</time>
  <course>336.24</course>
  <speed>4.882888489408702</speed>
  <fix>3d</fix>
</trkpt>
<trkpt lat="-27.2749917" lon="151.2903772">
  <ele>377.92</ele>
  <time>2026-09-01T19:56:06Z</time>
  <course>335.73</course>
  <speed>4.91</speed>
  <fix>3d</fix>
</trkpt>
<trkpt lat="-27.2749797" lon="151.2903711">
  <ele>377.77</ele>
  <time>2026-09-01T19:56:06Z</time>
  <course>336.19</course>
  <speed>4.869661179178691</speed>
  <fix>3d</fix>
</trkpt>
<trkpt lat="-27.2749837" lon="151.2903731">
  <ele>377.92</ele>
  <time>2026-09-01T19:56:06Z</time>
  <course>335.65</course>
  <speed>4.89</speed>
  <fix>3d</fix>
</trkpt>
<trkpt lat="-27.2749757" lon="151.2903691">
  <ele>377.77</ele>
  <time>2026-09-01T19:56:06Z</time>
  <course>336.15</course>
  <speed>4.860545236905012</speed>
  <fix>3d</fix>
</trkpt>
<trkpt lat="-27.2749837" lon="151.2903731">
  <ele>377.92</ele>
  <time>2026-09-01T19:56:06Z</time>
  <course>335.65</course>
  <speed>4.89</speed>
  <fix>3d</fix>
</trkpt>
<trkpt lat="-27.2749717" lon="151.2903671">
  <ele>377.77</ele>
  <time>2026-09-01T19:56:06Z</time>
  <course>336.1</course>
  <speed>4.860545236905012</speed>
  <fix>3d</fix>
</trkpt>
<trkpt lat="-27.2749757" lon="151.290369">
  <ele>377.92</ele>
  <time>2026-09-01T19:56:06Z</time>
  <course>335.57</course>
  <speed>4.88</speed>
  <fix>3d</fix>
</trkpt>
<trkpt lat="-27.2749678" lon="151.290365">
  <ele>377.77</ele>
  <time>2026-09-01T19:56:06Z</time>
  <course>336.07</course>
  <speed>4.851432778056396</speed>
  <fix>3d</fix>
</trkpt>
<trkpt lat="-27.2749757" lon="151.290369">
  <ele>377.92</ele>
  <time>2026-09-01T19:56:06Z</time>
  <course>335.57</course>
  <speed>4.88</speed>
  <fix>3d</fix>
</trkpt>
<trkpt lat="-27.2749638" lon="151.290363">
  <ele>377.77</ele>
  <time>2026-09-01T19:56:06Z</time>
  <course>336.03</course>
  <speed>4.851432778056396</speed>
  <fix>3d</fix>
</trkpt>
<trkpt lat="-27.2749677" lon="151.290365">
  <ele>377.92</ele>
  <time>2026-09-01T19:56:06Z</time>
  <course>335.5</course>
  <speed>4.87</speed>
  <fix>3d</fix>
</trkpt>
<trkpt lat="-27.2749598" lon="151.290361">
  <ele>377.77</ele>
  <time>2026-09-01T19:56:06Z</time>
  <course>335.99</course>
  <speed>4.842323822298546</speed>
  <fix>3d</fix>
</trkpt>
<trkpt lat="-27.2749677" lon="151.290365">
  <ele>377.92</ele>
  <time>2026-09-01T19:56:06Z</time>
  <course>335.5</course>
  <speed>4.87</speed>
  <fix>3d</fix>
</trkpt>
<trkpt lat="-27.2749558" lon="151.2903589">
  <ele>377.77</ele>
  <time>2026-09-01T19:56:06Z</time>
  <course>335.96</course>
  <speed>4.846462627525359</speed>
  <fix>3d</fix>
</trkpt>
<trkpt lat="-27.2749597" lon="151.2903609">
  <ele>377.92</ele>
  <time>2026-09-01T19:56:06Z</time>
  <course>335.43</course>
  <speed>4.86</speed>
  <fix>3d</fix>
</trkpt>
<trkpt lat="-27.2749518" lon="151.2903569">
  <ele>377.77</ele>
  <time>2026-09-01T19:56:06Z</time>
  <course>335.92</course>
  <speed>4.846462627525359</speed>
  <fix>3d</fix>
</trkpt>
<trkpt lat="-27.2749597" lon="151.2903609">
  <ele>377.92</ele>
  <time>2026-09-01T19:56:06Z</time>
  <course>335.43</course>
  <speed>4.86</speed>
  <fix>3d</fix>
</trkpt>
<trkpt lat="-27.2749479" lon="151.2903548">
  <ele>377.78</ele>
  <time>2026-09-01T19:56:06Z</time>
  <course>335.89</course>
  <speed>4.846462627525359</speed>
  <fix>3d</fix>
</trkpt>
<trkpt lat="-27.2749518" lon="151.2903568">
  <ele>377.92</ele>
  <time>2026-09-01T19:56:06Z</time>
  <course>335.37</course>
  <speed>4.85</speed>
  <fix>3d</fix>
</trkpt>
<trkpt lat="-27.2749439" lon="151.2903528">
  <ele>377.78</ele>
  <time>2026-09-01T19:56:06Z</time>
  <course>335.86</course>
  <speed>4.846462627525359</speed>
  <fix>3d</fix>
</trkpt>
<trkpt lat="-27.2749518" lon="151.2903568">
  <ele>377.92</ele>
  <time>2026-09-01T19:56:06Z</time>
  <course>335.37</course>
  <speed>4.85</speed>
  <fix>3d</fix>
</trkpt>
<trkpt lat="-27.2749399" lon="151.2903507">
  <ele>377.78</ele>
  <time>2026-09-01T19:56:06Z</time>
  <course>335.83</course>
  <speed>4.837364985195969</speed>
  <fix>3d</fix>
</trkpt>
<trkpt lat="-27.2749438" lon="151.2903527">
  <ele>377.92</ele>
  <time>2026-09-01T19:56:06Z</time>
  <course>335.33</course>
  <speed>4.85</speed>
  <fix>3d</fix>
</trkpt>
<trkpt lat="-27.2749359" lon="151.2903487">
  <ele>377.78</ele>
  <time>2026-09-01T19:56:06Z</time>
  <course>335.8</course>
  <speed>4.846462627525359</speed>
  <fix>3d</fix>
</trkpt>
<trkpt lat="-27.2749438" lon="151.2903527">
  <ele>377.92</ele>
  <time>2026-09-01T19:56:06Z</time>
  <course>335.33</course>
  <speed>4.85</speed>
  <fix>3d</fix>
</trkpt>
<trkpt lat="-27.2749319" lon="151.2903466">
  <ele>377.78</ele>
  <time>2026-09-01T19:56:06Z</time>
  <course>335.78</course>
  <speed>4.846462627525359</speed>
  <fix>3d</fix>
</trkpt>
<trkpt lat="-27.2749359" lon="151.2903486">
  <ele>377.92</ele>
  <time>2026-09-01T19:56:06Z</time>
  <course>335.29</course>
  <speed>4.85</speed>
  <fix>3d</fix>
</trkpt>
<trkpt lat="-27.274928" lon="151.2903446">
  <ele>377.79</ele>
  <time>2026-09-01T19:56:06Z</time>
  <course>335.76</course>
  <speed>4.846462627525359</speed>
  <fix>3d</fix>
</trkpt>
<trkpt lat="-27.2749359" lon="151.2903486">
  <ele>377.92</ele>
  <time>2026-09-01T19:56:06Z</time>
  <course>335.29</course>
  <speed>4.85</speed>
  <fix>3d</fix>
</trkpt>
<trkpt lat="-27.274924" lon="151.2903425">
  <ele>377.79</ele>
  <time>2026-09-01T19:56:06Z</time>
  <course>335.75</course>
  <speed>4.846462627525359</speed>
  <fix>3d</fix>
</trkpt>
<trkpt lat="-27.274928" lon="151.2903445">
  <ele>377.93</ele>
  <time>2026-09-01T19:56:06Z</time>
  <course>335.26</course>
  <speed>4.85</speed>
  <fix>3d</fix>
</trkpt>
<trkpt lat="-27.2749201" lon="151.2903405">
  <ele>377.79</ele>
  <time>2026-09-01T19:56:06Z</time>
  <course>335.73</course>
  <speed>4.850618517261484</speed>
  <fix>3d</fix>
</trkpt>
<trkpt lat="-27.274928" lon="151.2903445">
  <ele>377.93</ele>
  <time>2026-09-01T19:56:06Z</time>
  <course>335.26</course>
  <speed>4.85</speed>
  <fix>3d</fix>
</trkpt>
<trkpt lat="-27.2749161" lon="151.2903385">
  <ele>377.79</ele>
  <time>2026-09-01T19:56:06Z</time>
  <course>335.72</course>
  <speed>4.850618517261484</speed>
  <fix>3d</fix>
</trkpt>
<trkpt lat="-27.2749201" lon="151.2903404">
  <ele>377.92</ele>
  <time>2026-09-01T19:56:06Z</time>
  <course>335.23</course>
  <speed>4.86</speed>
  <fix>3d</fix>
</trkpt>
<trkpt lat="-27.2749122" lon="151.2903364">
  <ele>377.79</ele>
  <time>2026-09-01T19:56:06Z</time>
  <course>335.7</course>
  <speed>4.850618517261484</speed>
  <fix>3d</fix>
</trkpt>
<trkpt lat="-27.2749201" lon="151.2903404">
  <ele>377.92</ele>
  <time>2026-09-01T19:56:06Z</time>
  <course>335.23</course>
  <speed>4.86</speed>
  <fix>3d</fix>
</trkpt>
<trkpt lat="-27.2749082" lon="151.2903344">
  <ele>377.79</ele>
  <time>2026-09-01T19:56:06Z</time>
  <course>335.69</course>
  <speed>4.850618517261484</speed>
  <fix>3d</fix>
</trkpt>
<trkpt lat="-27.2749201" lon="151.2903404">
  <ele>377.92</ele>
  <time>2026-09-01T19:56:06Z</time>
  <course>335.23</course>
  <speed>4.86</speed>
  <fix>3d</fix>
</trkpt>
<trkpt lat="-27.2749043" lon="151.2903323">
  <ele>377.79</ele>
  <time>2026-09-01T19:56:06Z</time>
  <course>335.68</course>
  <speed>4.850618517261484</speed>
  <fix>3d</fix>
</trkpt>
<trkpt lat="-27.2749122" lon="151.2903362">
  <ele>377.92</ele>
  <time>2026-09-01T19:56:06Z</time>
  <course>335.21</course>
  <speed>4.86</speed>
  <fix>3d</fix>
</trkpt>
<trkpt lat="-27.2749003" lon="151.2903303">
  <ele>377.79</ele>
  <time>2026-09-01T19:56:06Z</time>
  <course>335.67</course>
  <speed>4.850618517261484</speed>
  <fix>3d</fix>
</trkpt>
<trkpt lat="-27.2749122" lon="151.2903362">
  <ele>377.92</ele>
  <time>2026-09-01T19:56:06Z</time>
  <course>335.21</course>
  <speed>4.86</speed>
  <fix>3d</fix>
</trkpt>
<trkpt lat="-27.2748964" lon="151.2903282">
  <ele>377.79</ele>
  <time>2026-09-01T19:56:06Z</time>
  <course>335.66</course>
  <speed>4.850618517261484</speed>
  <fix>3d</fix>
</trkpt>
<trkpt lat="-27.2749042" lon="151.2903321">
  <ele>377.92</ele>
  <time>2026-09-01T19:56:06Z</time>
  <course>335.19</course>
  <speed>4.87</speed>
  <fix>3d</fix>
</trkpt>
<trkpt lat="-27.2748923" lon="151.2903261">
  <ele>377.79</ele>
  <time>2026-09-01T19:56:06Z</time>
  <course>335.65</course>
  <speed>4.859711925618637</speed>
  <fix>3d</fix>
</trkpt>
<trkpt lat="-27.2749042" lon="151.2903321">
  <ele>377.92</ele>
  <time>2026-09-01T19:56:06Z</time>
  <course>335.19</course>
  <speed>4.87</speed>
  <fix>3d</fix>
</trkpt>
<trkpt lat="-27.2748884" lon="151.2903241">
  <ele>377.78</ele>
  <time>2026-09-01T19:56:06Z</time>
  <course>335.64</course>
  <speed>4.859711925618637</speed>
  <fix>3d</fix>
</trkpt>
<trkpt lat="-27.2748963" lon="151.290328">
  <ele>377.92</ele>
  <time>2026-09-01T19:56:06Z</time>
  <course>335.18</course>
  <speed>4.88</speed>
  <fix>3d</fix>
</trkpt>
<trkpt lat="-27.2748845" lon="151.290322">
  <ele>377.78</ele>
  <time>2026-09-01T19:56:06Z</time>
  <course>335.63</course>
  <speed>4.859711925618637</speed>
  <fix>3d</fix>
</trkpt>
<trkpt lat="-27.2748963" lon="151.290328">
  <ele>377.92</ele>
  <time>2026-09-01T19:56:06Z</time>
  <course>335.18</course>
  <speed>4.88</speed>
  <fix>3d</fix>
</trkpt>
<trkpt lat="-27.2748806" lon="151.29032">
  <ele>377.78</ele>
  <time>2026-09-01T19:56:06Z</time>
  <course>335.63</course>
  <speed>4.872966242444123</speed>
  <fix>3d</fix>
</trkpt>
<trkpt lat="-27.2748883" lon="151.2903238">
  <ele>377.92</ele>
  <time>2026-09-01T19:56:06Z</time>
  <course>335.18</course>
  <speed>4.89</speed>
  <fix>3d</fix>
</trkpt>
<trkpt lat="-27.2748766" lon="151.2903179">
  <ele>377.78</ele>
  <time>2026-09-01T19:56:06Z</time>
  <course>335.62</course>
  <speed>4.872966242444123</speed>
  <fix>3d</fix>
</trkpt>
<trkpt lat="-27.2748883" lon="151.2903238">
  <ele>377.92</ele>
  <time>2026-09-01T19:56:06Z</time>
  <course>335.18</course>
  <speed>4.89</speed>
  <fix>3d</fix>
</trkpt>
<trkpt lat="-27.2748726" lon="151.2903158">
  <ele>377.77</ele>
  <time>2026-09-01T19:56:06Z</time>
  <course>335.62</course>
  <speed>4.872966242444123</speed>
  <fix>3d</fix>
</trkpt>
<trkpt lat="-27.2748803" lon="151.2903197">
  <ele>377.92</ele>
  <time>2026-09-01T19:56:06Z</time>
  <course>335.18</course>
  <speed>4.9</speed>
  <fix>3d</fix>
</trkpt>
<trkpt lat="-27.2748688" lon="151.2903138">
  <ele>377.77</ele>
  <time>2026-09-01T19:56:06Z</time>
  <course>335.61</course>
  <speed>4.882058991859889</speed>
  <fix>3d</fix>
</trkpt>
<trkpt lat="-27.2748723" lon="151.2903155">
  <ele>377.92</ele>
  <time>2026-09-01T19:56:06Z</time>
  <course>335.18</course>
  <speed>4.91</speed>
  <fix>3d</fix>
</trkpt>
<trkpt lat="-27.2748648" lon="151.2903118">
  <ele>377.77</ele>
  <time>2026-09-01T19:56:06Z</time>
  <course>335.61</course>
  <speed>4.882058991859889</speed>
  <fix>3d</fix>
</trkpt>
<trkpt lat="-27.2748723" lon="151.2903155">
  <ele>377.92</ele>
  <time>2026-09-01T19:56:06Z</time>
  <course>335.18</course>
  <speed>4.91</speed>
  <fix>3d</fix>
</trkpt>
<trkpt lat="-27.2748608" lon="151.2903097">
  <ele>377.78</ele>
  <time>2026-09-01T19:56:06Z</time>
  <course>335.62</course>
  <speed>4.891155282752736</speed>
  <fix>3d</fix>
</trkpt>
<trkpt lat="-27.2748643" lon="151.2903114">
  <ele>377.92</ele>
  <time>2026-09-01T19:56:06Z</time>
  <course>335.19</course>
  <speed>4.93</speed>
  <fix>3d</fix>
</trkpt>
<trkpt lat="-27.2748567" lon="151.2903076">
  <ele>377.78</ele>
  <time>2026-09-01T19:56:06Z</time>
  <course>335.62</course>
  <speed>4.904406182199839</speed>
  <fix>3d</fix>
</trkpt>
<trkpt lat="-27.2748643" lon="151.2903114">
  <ele>377.92</ele>
  <time>2026-09-01T19:56:06Z</time>
  <course>335.19</course>
  <speed>4.93</speed>
  <fix>3d</fix>
</trkpt>
<trkpt lat="-27.2748527" lon="151.2903055">
  <ele>377.78</ele>
  <time>2026-09-01T19:56:06Z</time>
  <course>335.63</course>
  <speed>4.904406182199839</speed>
  <fix>3d</fix>
</trkpt>
<trkpt lat="-27.2748562" lon="151.2903071">
  <ele>377.92</ele>
  <time>2026-09-01T19:56:06Z</time>
  <course>335.21</course>
  <speed>4.94</speed>
  <fix>3d</fix>
</trkpt>
<trkpt lat="-27.2748487" lon="151.2903034">
  <ele>377.78</ele>
  <time>2026-09-01T19:56:06Z</time>
  <course>335.63</course>
  <speed>4.91350180624776</speed>
  <fix>3d</fix>
</trkpt>
<trkpt lat="-27.2748562" lon="151.2903071">
  <ele>377.92</ele>
  <time>2026-09-01T19:56:06Z</time>
  <course>335.21</course>
  <speed>4.94</speed>
  <fix>3d</fix>
</trkpt>
<trkpt lat="-27.2748446" lon="151.2903013">
  <ele>377.78</ele>
  <time>2026-09-01T19:56:06Z</time>
  <course>335.64</course>
  <speed>4.922600938528331</speed>
  <fix>3d</fix>
</trkpt>
<trkpt lat="-27.2748481" lon="151.290303">
  <ele>377.92</ele>
  <time>2026-09-01T19:56:06Z</time>
  <course>335.22</course>
  <speed>4.95</speed>
  <fix>3d</fix>
</trkpt>
<trkpt lat="-27.2748405" lon="151.2902992">
  <ele>377.78</ele>
  <time>2026-09-01T19:56:06Z</time>
  <course>335.64</course>
  <speed>4.935848457965459</speed>
  <fix>3d</fix>
</trkpt>
<trkpt lat="-27.2748481" lon="151.290303">
  <ele>377.92</ele>
  <time>2026-09-01T19:56:06Z</time>
  <course>335.22</course>
  <speed>4.95</speed>
  <fix>3d</fix>
</trkpt>
<trkpt lat="-27.2748365" lon="151.2902971">
  <ele>377.79</ele>
  <time>2026-09-01T19:56:06Z</time>
  <course>335.65</course>
  <speed>4.935848457965459</speed>
  <fix>3d</fix>
</trkpt>
<trkpt lat="-27.27484" lon="151.2902988">
  <ele>377.92</ele>
  <time>2026-09-01T19:56:06Z</time>
  <course>335.25</course>
  <speed>4.97</speed>
  <fix>3d</fix>
</trkpt>
<trkpt lat="-27.2748324" lon="151.290295">
  <ele>377.79</ele>
  <time>2026-09-01T19:56:06Z</time>
  <course>335.66</course>
  <speed>4.944946915791918</speed>
  <fix>3d</fix>
</trkpt>
<trkpt lat="-27.27484" lon="151.2902988">
  <ele>377.92</ele>
  <time>2026-09-01T19:56:06Z</time>
  <course>335.25</course>
  <speed>4.97</speed>
  <fix>3d</fix>
</trkpt>
<trkpt lat="-27.2748283" lon="151.2902929">
  <ele>377.79</ele>
  <time>2026-09-01T19:56:06Z</time>
  <course>335.67</course>
  <speed>4.944946915791918</speed>
  <fix>3d</fix>
</trkpt>
<trkpt lat="-27.2748319" lon="151.2902945">
  <ele>377.92</ele>
  <time>2026-09-01T19:56:06Z</time>
  <course>335.27</course>
  <speed>4.98</speed>
  <fix>3d</fix>
</trkpt>
<trkpt lat="-27.2748242" lon="151.2902908">
  <ele>377.79</ele>
  <time>2026-09-01T19:56:06Z</time>
  <course>335.68</course>
  <speed>4.954048849173774</speed>
  <fix>3d</fix>
</trkpt>
<trkpt lat="-27.2748319" lon="151.2902945">
  <ele>377.92</ele>
  <time>2026-09-01T19:56:06Z</time>
  <course>335.27</course>
  <speed>4.98</speed>
  <fix>3d</fix>
</trkpt>
<trkpt lat="-27.2748201" lon="151.2902886">
  <ele>377.79</ele>
  <time>2026-09-01T19:56:06Z</time>
  <course>335.69</course>
  <speed>4.963154238989556</speed>
  <fix>3d</fix>
</trkpt>
<trkpt lat="-27.2748319" lon="151.2902945">
  <ele>377.92</ele>
  <time>2026-09-01T19:56:06Z</time>
  <course>335.27</course>
  <speed>4.98</speed>
  <fix>3d</fix>
</trkpt>
<trkpt lat="-27.274816" lon="151.2902865">
  <ele>377.79</ele>
  <time>2026-09-01T19:56:06Z</time>
  <course>335.7</course>
  <speed>4.963154238989556</speed>
  <fix>3d</fix>
</trkpt>
<trkpt lat="-27.2748238" lon="151.2902904">
  <ele>377.92</ele>
  <time>2026-09-01T19:56:06Z</time>
  <course>335.29</course>
  <speed>4.99</speed>
  <fix>3d</fix>
</trkpt>
<trkpt lat="-27.274812" lon="151.2902844">
  <ele>377.79</ele>
  <time>2026-09-01T19:56:06Z</time>
  <course>335.71</course>
  <speed>4.963154238989556</speed>
  <fix>3d</fix>
</trkpt>
<trkpt lat="-27.2748238" lon="151.2902904">
  <ele>377.92</ele>
  <time>2026-09-01T19:56:06Z</time>
  <course>335.29</course>
  <speed>4.99</speed>
  <fix>3d</fix>
</trkpt>
<trkpt lat="-27.2748078" lon="151.2902823">
  <ele>377.79</ele>
  <time>2026-09-01T19:56:06Z</time>
  <course>335.71</course>
  <speed>4.972263066250618</speed>
  <fix>3d</fix>
</trkpt>
<trkpt lat="-27.2748155" lon="151.2902861">
  <ele>377.92</ele>
  <time>2026-09-01T19:56:06Z</time>
  <course>335.32</course>
  <speed>5.0</speed>
  <fix>3d</fix>
</trkpt>
<trkpt lat="-27.2748037" lon="151.2902802">
  <ele>377.79</ele>
  <time>2026-09-01T19:56:06Z</time>
  <course>335.73</course>
  <speed>4.972263066250618</speed>
  <fix>3d</fix>
</trkpt>
<trkpt lat="-27.2748155" lon="151.2902861">
  <ele>377.92</ele>
  <time>2026-09-01T19:56:06Z</time>
  <course>335.32</course>
  <speed>5.0</speed>
  <fix>3d</fix>
</trkpt>
<trkpt lat="-27.2747997" lon="151.2902781">
  <ele>377.79</ele>
  <time>2026-09-01T19:56:06Z</time>
  <course>335.74</course>
  <speed>4.972263066250618</speed>
  <fix>3d</fix>
</trkpt>
<trkpt lat="-27.2748074" lon="151.2902818">
  <ele>377.92</ele>
  <time>2026-09-01T19:56:06Z</time>
  <course>335.35</course>
  <speed>5.0</speed>
  <fix>3d</fix>
</trkpt>
<trkpt lat="-27.2747956" lon="151.290276">
  <ele>377.8</ele>
  <time>2026-09-01T19:56:06Z</time>
  <course>335.75</course>
  <speed>4.972263066250618</speed>
  <fix>3d</fix>
</trkpt>
<trkpt lat="-27.2748074" lon="151.2902818">
  <ele>377.92</ele>
  <time>2026-09-01T19:56:06Z</time>
  <course>335.35</course>
  <speed>5.0</speed>
  <fix>3d</fix>
</trkpt>
<trkpt lat="-27.2747916" lon="151.2902739">
  <ele>377.8</ele>
  <time>2026-09-01T19:56:06Z</time>
  <course>335.76</course>
  <speed>4.981375312100063</speed>
  <fix>3d</fix>
</trkpt>
<trkpt lat="-27.2747993" lon="151.2902777">
  <ele>377.92</ele>
  <time>2026-09-01T19:56:06Z</time>
  <course>335.38</course>
  <speed>5.01</speed>
  <fix>3d</fix>
</trkpt>
<trkpt lat="-27.2747875" lon="151.2902718">
  <ele>377.8</ele>
  <time>2026-09-01T19:56:06Z</time>
  <course>335.78</course>
  <speed>4.981375312100063</speed>
  <fix>3d</fix>
</trkpt>
<trkpt lat="-27.2747993" lon="151.2902777">
  <ele>377.92</ele>
  <time>2026-09-01T19:56:06Z</time>
  <course>335.38</course>
  <speed>5.01</speed>
  <fix>3d</fix>
</trkpt>
<trkpt lat="-27.2747834" lon="151.2902697">
  <ele>377.79</ele>
  <time>2026-09-01T19:56:06Z</time>
  <course>335.79</course>
  <speed>4.981375312100063</speed>
  <fix>3d</fix>
</trkpt>
<trkpt lat="-27.2747911" lon="151.2902735">
  <ele>377.92</ele>
  <time>2026-09-01T19:56:06Z</time>
  <course>335.41</course>
  <speed>5.02</speed>
  <fix>3d</fix>
</trkpt>
<trkpt lat="-27.2747794" lon="151.2902676">
  <ele>377.79</ele>
  <time>2026-09-01T19:56:06Z</time>
  <course>335.8</course>
  <speed>4.981375312100063</speed>
  <fix>3d</fix>
</trkpt>
<trkpt lat="-27.2747911" lon="151.2902735">
  <ele>377.92</ele>
  <time>2026-09-01T19:56:06Z</time>
  <course>335.41</course>
  <speed>5.02</speed>
  <fix>3d</fix>
</trkpt>
<trkpt lat="-27.2747753" lon="151.2902656">
  <ele>377.79</ele>
  <time>2026-09-01T19:56:06Z</time>
  <course>335.81</course>
  <speed>4.990490957811666</speed>
  <fix>3d</fix>
</trkpt>
<trkpt lat="-27.2747829" lon="151.2902692">
  <ele>377.92</ele>
  <time>2026-09-01T19:56:06Z</time>
  <course>335.44</course>
  <speed>5.03</speed>
  <fix>3d</fix>
</trkpt>
<trkpt lat="-27.2747713" lon="151.2902635">
  <ele>377.79</ele>
  <time>2026-09-01T19:56:06Z</time>
  <course>335.83</course>
  <speed>4.990490957811666</speed>
  <fix>3d</fix>
</trkpt>
<trkpt lat="-27.2747829" lon="151.2902692">
  <ele>377.92</ele>
  <time>2026-09-01T19:56:06Z</time>
  <course>335.44</course>
  <speed>5.03</speed>
  <fix>3d</fix>
</trkpt>
<trkpt lat="-27.2747672" lon="151.2902614">
  <ele>377.79</ele>
  <time>2026-09-01T19:56:06Z</time>
  <course>335.84</course>
  <speed>4.990490957811666</speed>
  <fix>3d</fix>
</trkpt>
<trkpt lat="-27.2747746" lon="151.2902649">
  <ele>377.91</ele>
  <time>2026-09-01T19:56:06Z</time>
  <course>335.47</course>
  <speed>5.03</speed>
  <fix>3d</fix>
</trkpt>
<trkpt lat="-27.2747631" lon="151.2902593">
  <ele>377.79</ele>
  <time>2026-09-01T19:56:06Z</time>
  <course>335.85</course>
  <speed>4.990490957811666</speed>
  <fix>3d</fix>
</trkpt>
<trkpt lat="-27.2747746" lon="151.2902649">
  <ele>377.91</ele>
  <time>2026-09-01T19:56:06Z</time>
  <course>335.47</course>
  <speed>5.03</speed>
  <fix>3d</fix>
</trkpt>
<trkpt lat="-27.2747589" lon="151.2902571">
  <ele>377.79</ele>
  <time>2026-09-01T19:56:06Z</time>
  <course>335.87</course>
  <speed>4.999609984788814</speed>
  <fix>3d</fix>
</trkpt>
<trkpt lat="-27.2747664" lon="151.2902608">
  <ele>377.91</ele>
  <time>2026-09-01T19:56:06Z</time>
  <course>335.5</course>
  <speed>5.04</speed>
  <fix>3d</fix>
</trkpt>
<trkpt lat="-27.2747549" lon="151.2902551">
  <ele>377.79</ele>
  <time>2026-09-01T19:56:06Z</time>
  <course>335.88</course>
  <speed>4.999609984788814</speed>
  <fix>3d</fix>
</trkpt>
<trkpt lat="-27.2747581" lon="151.2902566">
  <ele>377.91</ele>
  <time>2026-09-01T19:56:06Z</time>
  <course>335.53</course>
  <speed>5.05</speed>
  <fix>3d</fix>
</trkpt>
<trkpt lat="-27.2747508" lon="151.290253">
  <ele>377.79</ele>
  <time>2026-09-01T19:56:06Z</time>
  <course>335.89</course>
  <speed>5.008732374563448</speed>
  <fix>3d</fix>
</trkpt>
<trkpt lat="-27.2747581" lon="151.2902566">
  <ele>377.91</ele>
  <time>2026-09-01T19:56:06Z</time>
  <course>335.53</course>
  <speed>5.05</speed>
  <fix>3d</fix>
</trkpt>
<trkpt lat="-27.2747467" lon="151.2902509">
  <ele>377.79</ele>
  <time>2026-09-01T19:56:06Z</time>
  <course>335.9</course>
  <speed>5.008732374563448</speed>
  <fix>3d</fix>
</trkpt>
<trkpt lat="-27.2747498" lon="151.2902523">
  <ele>377.91</ele>
  <time>2026-09-01T19:56:06Z</time>
  <course>335.56</course>
  <speed>5.05</speed>
  <fix>3d</fix>
</trkpt>
<trkpt lat="-27.2747425" lon="151.2902487">
  <ele>377.79</ele>
  <time>2026-09-01T19:56:06Z</time>
  <course>335.91</course>
  <speed>5.021951811795888</speed>
  <fix>3d</fix>
</trkpt>
<trkpt lat="-27.2747498" lon="151.2902523">
  <ele>377.91</ele>
  <time>2026-09-01T19:56:06Z</time>
  <course>335.56</course>
  <speed>5.05</speed>
  <fix>3d</fix>
</trkpt>
<trkpt lat="-27.2747383" lon="151.2902466">
  <ele>377.79</ele>
  <time>2026-09-01T19:56:06Z</time>
  <course>335.93</course>
  <speed>5.021951811795888</speed>
  <fix>3d</fix>
</trkpt>
<trkpt lat="-27.2747498" lon="151.2902523">
  <ele>377.91</ele>
  <time>2026-09-01T19:56:06Z</time>
  <course>335.56</course>
  <speed>5.05</speed>
  <fix>3d</fix>
</trkpt>
<trkpt lat="-27.2747341" lon="151.2902445">
  <ele>377.79</ele>
  <time>2026-09-01T19:56:06Z</time>
  <course>335.94</course>
  <speed>5.021951811795888</speed>
  <fix>3d</fix>
</trkpt>
<trkpt lat="-27.2747415" lon="151.290248">
  <ele>377.9</ele>
  <time>2026-09-01T19:56:06Z</time>
  <course>335.6</course>
  <speed>5.06</speed>
  <fix>3d</fix>
</trkpt>
<trkpt lat="-27.2747299" lon="151.2902423">
  <ele>377.79</ele>
  <time>2026-09-01T19:56:06Z</time>
  <course>335.95</course>
  <speed>5.017858108795027</speed>
  <fix>3d</fix>
</trkpt>
<trkpt lat="-27.2747415" lon="151.290248">
  <ele>377.9</ele>
  <time>2026-09-01T19:56:06Z</time>
  <course>335.6</course>
  <speed>5.06</speed>
  <fix>3d</fix>
</trkpt>
<trkpt lat="-27.2747258" lon="151.2902402">
  <ele>377.79</ele>
  <time>2026-09-01T19:56:06Z</time>
  <course>335.96</course>
  <speed>5.017858108795027</speed>
  <fix>3d</fix>
</trkpt>
<trkpt lat="-27.2747332" lon="151.2902439">
  <ele>377.9</ele>
  <time>2026-09-01T19:56:06Z</time>
  <course>335.62</course>
  <speed>5.06</speed>
  <fix>3d</fix>
</trkpt>
<trkpt lat="-27.2747216" lon="151.2902381">
  <ele>377.79</ele>
  <time>2026-09-01T19:56:06Z</time>
  <course>335.98</course>
  <speed>5.017858108795027</speed>
  <fix>3d</fix>
</trkpt>
<trkpt lat="-27.2747332" lon="151.2902439">
  <ele>377.9</ele>
  <time>2026-09-01T19:56:06Z</time>
  <course>335.62</course>
  <speed>5.06</speed>
  <fix>3d</fix>
</trkpt>
<trkpt lat="-27.2747175" lon="151.290236">
  <ele>377.79</ele>
  <time>2026-09-01T19:56:06Z</time>
  <course>335.99</course>
  <speed>5.017858108795027</speed>
  <fix>3d</fix>
</trkpt>
<trkpt lat="-27.2747249" lon="151.2902396">
  <ele>377.9</ele>
  <time>2026-09-01T19:56:06Z</time>
  <course>335.65</course>
  <speed>5.06</speed>
  <fix>3d</fix>
</trkpt>
<trkpt lat="-27.2747134" lon="151.2902339">
  <ele>377.79</ele>
  <time>2026-09-01T19:56:06Z</time>
  <course>336.0</course>
  <speed>5.017858108795027</speed>
  <fix>3d</fix>
</trkpt>
<trkpt lat="-27.2747249" lon="151.2902396">
  <ele>377.9</ele>
  <time>2026-09-01T19:56:06Z</time>
  <course>335.65</course>
  <speed>5.06</speed>
  <fix>3d</fix>
</trkpt>
<trkpt lat="-27.2747093" lon="151.2902318">
  <ele>377.79</ele>
  <time>2026-09-01T19:56:06Z</time>
  <course>336.01</course>
  <speed>5.017858108795027</speed>
  <fix>3d</fix>
</trkpt>
<trkpt lat="-27.2747167" lon="151.2902354">
  <ele>377.9</ele>
  <time>2026-09-01T19:56:06Z</time>
  <course>335.68</course>
  <speed>5.06</speed>
  <fix>3d</fix>
</trkpt>
<trkpt lat="-27.2747052" lon="151.2902298">
  <ele>377.79</ele>
  <time>2026-09-01T19:56:06Z</time>
  <course>336.02</course>
  <speed>5.017858108795027</speed>
  <fix>3d</fix>
</trkpt>
<trkpt lat="-27.2747167" lon="151.2902354">
  <ele>377.9</ele>
  <time>2026-09-01T19:56:06Z</time>
  <course>335.68</course>
  <speed>5.06</speed>
  <fix>3d</fix>
</trkpt>
<trkpt lat="-27.274701" lon="151.2902276">
  <ele>377.79</ele>
  <time>2026-09-01T19:56:07Z</time>
  <course>336.03</course>
  <speed>5.017858108795027</speed>
  <fix>3d</fix>
</trkpt>
<trkpt lat="-27.2747084" lon="151.2902312">
  <ele>377.9</ele>
  <time>2026-09-01T19:56:07Z</time>
  <course>335.7</course>
  <speed>5.06</speed>
  <fix>3d</fix>
</trkpt>
<trkpt lat="-27.2746969" lon="151.2902255">
  <ele>377.79</ele>
  <time>2026-09-01T19:56:07Z</time>
  <course>336.04</course>
  <speed>5.013781008380801</speed>
  <fix>3d</fix>
</trkpt>
<trkpt lat="-27.2747084" lon="151.2902312">
  <ele>377.9</ele>
  <time>2026-09-01T19:56:07Z</time>
  <course>335.7</course>
  <speed>5.06</speed>
  <fix>3d</fix>
</trkpt>
<trkpt lat="-27.2746927" lon="151.2902234">
  <ele>377.79</ele>
  <time>2026-09-01T19:56:07Z</time>
  <course>336.05</course>
  <speed>5.013781008380801</speed>
  <fix>3d</fix>
</trkpt>
<trkpt lat="-27.2747001" lon="151.290227">
  <ele>377.9</ele>
  <time>2026-09-01T19:56:07Z</time>
  <course>335.72</course>
  <speed>5.06</speed>
  <fix>3d</fix>
</trkpt>
<trkpt lat="-27.2746886" lon="151.2902214">
  <ele>377.79</ele>
  <time>2026-09-01T19:56:07Z</time>
  <course>336.06</course>
  <speed>5.013781008380801</speed>
  <fix>3d</fix>
</trkpt>
<trkpt lat="-27.2747001" lon="151.290227">
  <ele>377.9</ele>
  <time>2026-09-01T19:56:07Z</time>
  <course>335.72</course>
  <speed>5.06</speed>
  <fix>3d</fix>
</trkpt>
<trkpt lat="-27.2746845" lon="151.2902193">
  <ele>377.78</ele>
  <time>2026-09-01T19:56:07Z</time>
  <course>336.07</course>
  <speed>5.013781008380801</speed>
  <fix>3d</fix>
</trkpt>
<trkpt lat="-27.2746918" lon="151.2902227">
  <ele>377.9</ele>
  <time>2026-09-01T19:56:07Z</time>
  <course>335.75</course>
  <speed>5.06</speed>
  <fix>3d</fix>
</trkpt>
<trkpt lat="-27.2746803" lon="151.2902172">
  <ele>377.78</ele>
  <time>2026-09-01T19:56:07Z</time>
  <course>336.08</course>
  <speed>5.013781008380801</speed>
  <fix>3d</fix>
</trkpt>
<trkpt lat="-27.2746918" lon="151.2902227">
  <ele>377.9</ele>
  <time>2026-09-01T19:56:07Z</time>
  <course>335.75</course>
  <speed>5.06</speed>
  <fix>3d</fix>
</trkpt>
<trkpt lat="-27.2746762" lon="151.2902151">
  <ele>377.78</ele>
  <time>2026-09-01T19:56:07Z</time>
  <course>336.08</course>
  <speed>5.013781008380801</speed>
  <fix>3d</fix>
</trkpt>
<trkpt lat="-27.2746835" lon="151.2902186">
  <ele>377.89</ele>
  <time>2026-09-01T19:56:07Z</time>
  <course>335.77</course>
  <speed>5.06</speed>
  <fix>3d</fix>
</trkpt>
<trkpt lat="-27.274672" lon="151.290213">
  <ele>377.78</ele>
  <time>2026-09-01T19:56:07Z</time>
  <course>336.08</course>
  <speed>5.013781008380801</speed>
  <fix>3d</fix>
</trkpt>
<trkpt lat="-27.2746835" lon="151.2902186">
  <ele>377.89</ele>
  <time>2026-09-01T19:56:07Z</time>
  <course>335.77</course>
  <speed>5.06</speed>
  <fix>3d</fix>
</trkpt>
<trkpt lat="-27.2746679" lon="151.2902109">
  <ele>377.78</ele>
  <time>2026-09-01T19:56:07Z</time>
  <course>336.09</course>
  <speed>5.013781008380801</speed>
  <fix>3d</fix>
</trkpt>
<trkpt lat="-27.2746752" lon="151.2902143">
  <ele>377.89</ele>
  <time>2026-09-01T19:56:07Z</time>
  <course>335.79</course>
  <speed>5.06</speed>
  <fix>3d</fix>
</trkpt>
<trkpt lat="-27.2746638" lon="151.2902088">
  <ele>377.78</ele>
  <time>2026-09-01T19:56:07Z</time>
  <course>336.1</course>
  <speed>5.013781008380801</speed>
  <fix>3d</fix>
</trkpt>
<trkpt lat="-27.2746752" lon="151.2902143">
  <ele>377.89</ele>
  <time>2026-09-01T19:56:07Z</time>
  <course>335.79</course>
  <speed>5.06</speed>
  <fix>3d</fix>
</trkpt>
<trkpt lat="-27.2746596" lon="151.2902067">
  <ele>377.78</ele>
  <time>2026-09-01T19:56:07Z</time>
  <course>336.1</course>
  <speed>5.013781008380801</speed>
  <fix>3d</fix>
</trkpt>
<trkpt lat="-27.2746669" lon="151.2902102">
  <ele>377.89</ele>
  <time>2026-09-01T19:56:07Z</time>
  <course>335.81</course>
  <speed>5.05</speed>
  <fix>3d</fix>
</trkpt>
<trkpt lat="-27.2746555" lon="151.2902046">
  <ele>377.78</ele>
  <time>2026-09-01T19:56:07Z</time>
  <course>336.12</course>
  <speed>5.013781008380801</speed>
  <fix>3d</fix>
</trkpt>
<trkpt lat="-27.2746669" lon="151.2902102">
  <ele>377.89</ele>
  <time>2026-09-01T19:56:07Z</time>
  <course>335.81</course>
  <speed>5.05</speed>
  <fix>3d</fix>
</trkpt>
<trkpt lat="-27.2746513" lon="151.2902025">
  <ele>377.78</ele>
  <time>2026-09-01T19:56:07Z</time>
  <course>336.13</course>
  <speed>5.013781008380801</speed>
  <fix>3d</fix>
</trkpt>
<trkpt lat="-27.2746586" lon="151.290206">
  <ele>377.89</ele>
  <time>2026-09-01T19:56:07Z</time>
  <course>335.83</course>
  <speed>5.05</speed>
  <fix>3d</fix>
</trkpt>
<trkpt lat="-27.2746472" lon="151.2902004">
  <ele>377.78</ele>
  <time>2026-09-01T19:56:07Z</time>
  <course>336.14</course>
  <speed>5.0097205510886536</speed>
  <fix>3d</fix>
</trkpt>
<trkpt lat="-27.2746586" lon="151.290206">
  <ele>377.89</ele>
  <time>2026-09-01T19:56:07Z</time>
  <course>335.83</course>
  <speed>5.05</speed>
  <fix>3d</fix>
</trkpt>
<trkpt lat="-27.274643" lon="151.2901983">
  <ele>377.78</ele>
  <time>2026-09-01T19:56:07Z</time>
  <course>336.15</course>
  <speed>5.0097205510886536</speed>
  <fix>3d</fix>
</trkpt>
<trkpt lat="-27.2746503" lon="151.2902018">
  <ele>377.89</ele>
  <time>2026-09-01T19:56:07Z</time>
  <course>335.85</course>
  <speed>5.05</speed>
  <fix>3d</fix>
</trkpt>
<trkpt lat="-27.274639" lon="151.2901963">
  <ele>377.79</ele>
  <time>2026-09-01T19:56:07Z</time>
  <course>336.16</course>
  <speed>5.0097205510886536</speed>
  <fix>3d</fix>
</trkpt>
<trkpt lat="-27.2746503" lon="151.2902018">
  <ele>377.89</ele>
  <time>2026-09-01T19:56:07Z</time>
  <course>335.85</course>
  <speed>5.05</speed>
  <fix>3d</fix>
</trkpt>
<trkpt lat="-27.2746347" lon="151.2901941">
  <ele>377.79</ele>
  <time>2026-09-01T19:56:07Z</time>
  <course>336.16</course>
  <speed>5.0097205510886536</speed>
  <fix>3d</fix>
</trkpt>
<trkpt lat="-27.274642" lon="151.2901977">
  <ele>377.89</ele>
  <time>2026-09-01T19:56:07Z</time>
  <course>335.87</course>
  <speed>5.05</speed>
  <fix>3d</fix>
</trkpt>
<trkpt lat="-27.2746306" lon="151.2901921">
  <ele>377.79</ele>
  <time>2026-09-01T19:56:07Z</time>
  <course>336.17</course>
  <speed>5.0097205510886536</speed>
  <fix>3d</fix>
</trkpt>
<trkpt lat="-27.274642" lon="151.2901977">
  <ele>377.89</ele>
  <time>2026-09-01T19:56:07Z</time>
  <course>335.87</course>
  <speed>5.05</speed>
  <fix>3d</fix>
</trkpt>
<trkpt lat="-27.2746265" lon="151.29019">
  <ele>377.79</ele>
  <time>2026-09-01T19:56:07Z</time>
  <course>336.17</course>
  <speed>5.000579966363902</speed>
  <fix>3d</fix>
</trkpt>
<trkpt lat="-27.2746337" lon="151.2901934">
  <ele>377.89</ele>
  <time>2026-09-01T19:56:07Z</time>
  <course>335.89</course>
  <speed>5.04</speed>
  <fix>3d</fix>
</trkpt>
<trkpt lat="-27.2746224" lon="151.2901879">
  <ele>377.79</ele>
  <time>2026-09-01T19:56:07Z</time>
  <course>336.18</course>
  <speed>4.98738408386601</speed>
  <fix>3d</fix>
</trkpt>
<trkpt lat="-27.2746337" lon="151.2901934">
  <ele>377.89</ele>
  <time>2026-09-01T19:56:07Z</time>
  <course>335.89</course>
  <speed>5.04</speed>
  <fix>3d</fix>
</trkpt>
<trkpt lat="-27.2746182" lon="151.2901858">
  <ele>377.79</ele>
  <time>2026-09-01T19:56:07Z</time>
  <course>336.18</course>
  <speed>4.974193401949707</speed>
  <fix>3d</fix>
</trkpt>
<trkpt lat="-27.2746255" lon="151.2901893">
  <ele>377.89</ele>
  <time>2026-09-01T19:56:07Z</time>
  <course>335.9</course>
  <speed>5.03</speed>
  <fix>3d</fix>
</trkpt>
<trkpt lat="-27.2746141" lon="151.2901837">
  <ele>377.79</ele>
  <time>2026-09-01T19:56:07Z</time>
  <course>336.19</course>
  <speed>4.951858237066163</speed>
  <fix>3d</fix>
</trkpt>
<trkpt lat="-27.2746255" lon="151.2901893">
  <ele>377.89</ele>
  <time>2026-09-01T19:56:07Z</time>
  <course>335.9</course>
  <speed>5.03</speed>
  <fix>3d</fix>
</trkpt>
<trkpt lat="-27.27461" lon="151.2901817">
  <ele>377.79</ele>
  <time>2026-09-01T19:56:07Z</time>
  <course>336.2</course>
  <speed>4.920376001892539</speed>
  <fix>3d</fix>
</trkpt>
<trkpt lat="-27.2746172" lon="151.2901852">
  <ele>377.89</ele>
  <time>2026-09-01T19:56:07Z</time>
  <course>335.91</course>
  <speed>5.0</speed>
  <fix>3d</fix>
</trkpt>
<trkpt lat="-27.274606" lon="151.2901797">
  <ele>377.8</ele>
  <time>2026-09-01T19:56:07Z</time>
  <course>336.2</course>
  <speed>4.888895580803501</speed>
  <fix>3d</fix>
</trkpt>
<trkpt lat="-27.2746172" lon="151.2901852">
  <ele>377.89</ele>
  <time>2026-09-01T19:56:07Z</time>
  <course>335.91</course>
  <speed>5.0</speed>
  <fix>3d</fix>
</trkpt>
<trkpt lat="-27.274602" lon="151.2901776">
  <ele>377.8</ele>
  <time>2026-09-01T19:56:07Z</time>
  <course>336.2</course>
  <speed>4.857417009069738</speed>
  <fix>3d</fix>
</trkpt>
<trkpt lat="-27.2746091" lon="151.290181">
  <ele>377.89</ele>
  <time>2026-09-01T19:56:07Z</time>
  <course>335.92</course>
  <speed>4.95</speed>
  <fix>3d</fix>
</trkpt>
<trkpt lat="-27.274598" lon="151.2901756">
  <ele>377.8</ele>
  <time>2026-09-01T19:56:07Z</time>
  <course>336.2</course>
  <speed>4.821887597196766</speed>
  <fix>3d</fix>
</trkpt>
<trkpt lat="-27.2746091" lon="151.290181">
  <ele>377.89</ele>
  <time>2026-09-01T19:56:07Z</time>
  <course>335.92</course>
  <speed>4.95</speed>
  <fix>3d</fix>
</trkpt>
<trkpt lat="-27.274594" lon="151.2901736">
  <ele>377.8</ele>
  <time>2026-09-01T19:56:07Z</time>
  <course>336.2</course>
  <speed>4.777216762927971</speed>
  <fix>3d</fix>
</trkpt>
<trkpt lat="-27.274601" lon="151.290177">
  <ele>377.89</ele>
  <time>2026-09-01T19:56:07Z</time>
  <course>335.93</course>
  <speed>4.89</speed>
  <fix>3d</fix>
</trkpt>
<trkpt lat="-27.2745901" lon="151.2901717">
  <ele>377.81</ele>
  <time>2026-09-01T19:56:07Z</time>
  <course>336.2</course>
  <speed>4.732546883021868</speed>
  <fix>3d</fix>
</trkpt>
<trkpt lat="-27.274601" lon="151.290177">
  <ele>377.89</ele>
  <time>2026-09-01T19:56:07Z</time>
  <course>335.93</course>
  <speed>4.89</speed>
  <fix>3d</fix>
</trkpt>
<trkpt lat="-27.2745862" lon="151.2901697">
  <ele>377.81</ele>
  <time>2026-09-01T19:56:07Z</time>
  <course>336.2</course>
  <speed>4.691918584118867</speed>
  <fix>3d</fix>
</trkpt>
<trkpt lat="-27.2745931" lon="151.290173">
  <ele>377.9</ele>
  <time>2026-09-01T19:56:07Z</time>
  <course>335.94</course>
  <speed>4.8</speed>
  <fix>3d</fix>
</trkpt>
<trkpt lat="-27.2745823" lon="151.2901678">
  <ele>377.81</ele>
  <time>2026-09-01T19:56:07Z</time>
  <course>336.2</course>
  <speed>4.638103060519462</speed>
  <fix>3d</fix>
</trkpt>
<trkpt lat="-27.2745931" lon="151.290173">
  <ele>377.9</ele>
  <time>2026-09-01T19:56:07Z</time>
  <course>335.94</course>
  <speed>4.8</speed>
  <fix>3d</fix>
</trkpt>
<trkpt lat="-27.2745785" lon="151.2901658">
  <ele>377.81</ele>
  <time>2026-09-01T19:56:07Z</time>
  <course>336.2</course>
  <speed>4.5934300909015695</speed>
  <fix>3d</fix>
</trkpt>
<trkpt lat="-27.2745853" lon="151.2901691">
  <ele>377.9</ele>
  <time>2026-09-01T19:56:07Z</time>
  <course>335.96</course>
  <speed>4.71</speed>
  <fix>3d</fix>
</trkpt>
<trkpt lat="-27.2745747" lon="151.2901639">
  <ele>377.81</ele>
  <time>2026-09-01T19:56:07Z</time>
  <course>336.21</course>
  <speed>4.535570526405691</speed>
  <fix>3d</fix>
</trkpt>
<trkpt lat="-27.2745853" lon="151.2901691">
  <ele>377.9</ele>
  <time>2026-09-01T19:56:07Z</time>
  <course>335.96</course>
  <speed>4.71</speed>
  <fix>3d</fix>
</trkpt>
<trkpt lat="-27.2745709" lon="151.290162">
  <ele>377.81</ele>
  <time>2026-09-01T19:56:07Z</time>
  <course>336.21</course>
  <speed>4.481751889607455</speed>
  <fix>3d</fix>
</trkpt>
<trkpt lat="-27.2745776" lon="151.2901652">
  <ele>377.9</ele>
  <time>2026-09-01T19:56:07Z</time>
  <course>335.97</course>
  <speed>4.61</speed>
  <fix>3d</fix>
</trkpt>
<trkpt lat="-27.2745672" lon="151.2901602">
  <ele>377.8</ele>
  <time>2026-09-01T19:56:07Z</time>
  <course>336.21</course>
  <speed>4.418789426981104</speed>
  <fix>3d</fix>
</trkpt>
<trkpt lat="-27.2745776" lon="151.2901652">
  <ele>377.9</ele>
  <time>2026-09-01T19:56:07Z</time>
  <course>335.97</course>
  <speed>4.61</speed>
  <fix>3d</fix>
</trkpt>
<trkpt lat="-27.2745636" lon="151.2901584">
  <ele>377.8</ele>
  <time>2026-09-01T19:56:07Z</time>
  <course>336.22</course>
  <speed>4.360928800152554</speed>
  <fix>3d</fix>
</trkpt>
<trkpt lat="-27.2745701" lon="151.2901615">
  <ele>377.9</ele>
  <time>2026-09-01T19:56:07Z</time>
  <course>335.99</course>
  <speed>4.5</speed>
  <fix>3d</fix>
</trkpt>
<trkpt lat="-27.27456" lon="151.2901566">
  <ele>377.8</ele>
  <time>2026-09-01T19:56:07Z</time>
  <course>336.22</course>
  <speed>4.297964634568321</speed>
  <fix>3d</fix>
</trkpt>
<trkpt lat="-27.2745701" lon="151.2901615">
  <ele>377.9</ele>
  <time>2026-09-01T19:56:07Z</time>
  <course>335.99</course>
  <speed>4.5</speed>
  <fix>3d</fix>
</trkpt>
<trkpt lat="-27.2745565" lon="151.2901548">
  <ele>377.79</ele>
  <time>2026-09-01T19:56:07Z</time>
  <course>336.22</course>
  <speed>4.2401061307472006</speed>
  <fix>3d</fix>
</trkpt>
<trkpt lat="-27.2745628" lon="151.2901579">
  <ele>377.9</ele>
  <time>2026-09-01T19:56:07Z</time>
  <course>336.02</course>
  <speed>4.38</speed>
  <fix>3d</fix>
</trkpt>
<trkpt lat="-27.274553" lon="151.290153">
  <ele>377.79</ele>
  <time>2026-09-01T19:56:07Z</time>
  <course>336.22</course>
  <speed>4.173104360065778</speed>
  <fix>3d</fix>
</trkpt>
<trkpt lat="-27.2745628" lon="151.2901579">
  <ele>377.9</ele>
  <time>2026-09-01T19:56:07Z</time>
  <course>336.02</course>
  <speed>4.38</speed>
  <fix>3d</fix>
</trkpt>
<trkpt lat="-27.2745495" lon="151.2901513">
  <ele>377.79</ele>
  <time>2026-09-01T19:56:07Z</time>
  <course>336.23</course>
  <speed>4.110133817772847</speed>
  <fix>3d</fix>
</trkpt>
<trkpt lat="-27.2745557" lon="151.2901543">
  <ele>377.9</ele>
  <time>2026-09-01T19:56:07Z</time>
  <course>336.04</course>
  <speed>4.25</speed>
  <fix>3d</fix>
</trkpt>
<trkpt lat="-27.2745461" lon="151.2901496">
  <ele>377.78</ele>
  <time>2026-09-01T19:56:07Z</time>
  <course>336.23</course>
  <speed>4.033980664306659</speed>
  <fix>3d</fix>
</trkpt>
<trkpt lat="-27.2745557" lon="151.2901543">
  <ele>377.9</ele>
  <time>2026-09-01T19:56:07Z</time>
  <course>336.04</course>
  <speed>4.25</speed>
  <fix>3d</fix>
</trkpt>
<trkpt lat="-27.2745428" lon="151.290148">
  <ele>377.78</ele>
  <time>2026-09-01T19:56:07Z</time>
  <course>336.23</course>
  <speed>3.966976178400874</speed>
  <fix>3d</fix>
</trkpt>
<trkpt lat="-27.2745488" lon="151.2901509">
  <ele>377.89</ele>
  <time>2026-09-01T19:56:07Z</time>
  <course>336.06</course>
  <speed>4.12</speed>
  <fix>3d</fix>
</trkpt>
<trkpt lat="-27.2745396" lon="151.2901464">
  <ele>377.78</ele>
  <time>2026-09-01T19:56:07Z</time>
  <course>336.23</course>
  <speed>3.8999743588900686</speed>
  <fix>3d</fix>
</trkpt>
<trkpt lat="-27.2745488" lon="151.2901509">
  <ele>377.89</ele>
  <time>2026-09-01T19:56:07Z</time>
  <course>336.06</course>
  <speed>4.12</speed>
  <fix>3d</fix>
</trkpt>
<trkpt lat="-27.2745363" lon="151.2901447">
  <ele>377.78</ele>
  <time>2026-09-01T19:56:07Z</time>
  <course>336.24</course>
  <speed>3.832975345602943</speed>
  <fix>3d</fix>
</trkpt>
<trkpt lat="-27.2745422" lon="151.2901475">
  <ele>377.89</ele>
  <time>2026-09-01T19:56:07Z</time>
  <course>336.07</course>
  <speed>3.98</speed>
  <fix>3d</fix>
</trkpt>
<trkpt lat="-27.2745332" lon="151.2901432">
  <ele>377.78</ele>
  <time>2026-09-01T19:56:07Z</time>
  <course>336.24</course>
  <speed>3.77</speed>
  <fix>3d</fix>
</trkpt>
<trkpt lat="-27.2745422" lon="151.2901475">
  <ele>377.89</ele>
  <time>2026-09-01T19:56:07Z</time>
  <course>336.07</course>
  <speed>3.98</speed>
  <fix>3d</fix>
</trkpt>
<trkpt lat="-27.2745301" lon="151.2901416">
  <ele>377.78</ele>
  <time>2026-09-01T19:56:07Z</time>
  <course>336.24</course>
  <speed>3.712155707941142</speed>
  <fix>3d</fix>
</trkpt>
<trkpt lat="-27.2745357" lon="151.2901443">
  <ele>377.89</ele>
  <time>2026-09-01T19:56:07Z</time>
  <course>336.08</course>
  <speed>3.84</speed>
  <fix>3d</fix>
</trkpt>
<trkpt lat="-27.2745271" lon="151.2901401">
  <ele>377.78</ele>
  <time>2026-09-01T19:56:07Z</time>
  <course>336.24</course>
  <speed>3.6583329536825926</speed>
  <fix>3d</fix>
</trkpt>
<trkpt lat="-27.2745357" lon="151.2901443">
  <ele>377.89</ele>
  <time>2026-09-01T19:56:07Z</time>
  <course>336.08</course>
  <speed>3.84</speed>
  <fix>3d</fix>
</trkpt>
<trkpt lat="-27.2745241" lon="151.2901386">
  <ele>377.78</ele>
  <time>2026-09-01T19:56:07Z</time>
  <course>336.24</course>
  <speed>3.604511062543712</speed>
  <fix>3d</fix>
</trkpt>
<trkpt lat="-27.2745295" lon="151.2901412">
  <ele>377.88</ele>
  <time>2026-09-01T19:56:07Z</time>
  <course>336.09</course>
  <speed>3.72</speed>
  <fix>3d</fix>
</trkpt>
<trkpt lat="-27.2745212" lon="151.2901372">
  <ele>377.78</ele>
  <time>2026-09-01T19:56:07Z</time>
  <course>336.23</course>
  <speed>3.5506900737743923</speed>
  <fix>3d</fix>
</trkpt>
<trkpt lat="-27.2745295" lon="151.2901412">
  <ele>377.88</ele>
  <time>2026-09-01T19:56:07Z</time>
  <course>336.09</course>
  <speed>3.72</speed>
  <fix>3d</fix>
</trkpt>
<trkpt lat="-27.2745182" lon="151.2901357">
  <ele>377.78</ele>
  <time>2026-09-01T19:56:07Z</time>
  <course>336.23</course>
  <speed>3.506023388398885</speed>
  <fix>3d</fix>
</trkpt>
<trkpt lat="-27.2745235" lon="151.2901382">
  <ele>377.88</ele>
  <time>2026-09-01T19:56:07Z</time>
  <course>336.1</course>
  <speed>3.61</speed>
  <fix>3d</fix>
</trkpt>
<trkpt lat="-27.2745154" lon="151.2901343">
  <ele>377.78</ele>
  <time>2026-09-01T19:56:07Z</time>
  <course>336.23</course>
  <speed>3.4745359402371996</speed>
  <fix>3d</fix>
</trkpt>
<trkpt lat="-27.2745235" lon="151.2901382">
  <ele>377.88</ele>
  <time>2026-09-01T19:56:07Z</time>
  <course>336.1</course>
  <speed>3.61</speed>
  <fix>3d</fix>
</trkpt>
<trkpt lat="-27.2745125" lon="151.2901328">
  <ele>377.77</ele>
  <time>2026-09-01T19:56:07Z</time>
  <course>336.23</course>
  <speed>3.4298688021555575</speed>
  <fix>3d</fix>
</trkpt>
<trkpt lat="-27.2745176" lon="151.2901353">
  <ele>377.88</ele>
  <time>2026-09-01T19:56:07Z</time>
  <course>336.1</course>
  <speed>3.52</speed>
  <fix>3d</fix>
</trkpt>
<trkpt lat="-27.2745097" lon="151.2901314">
  <ele>377.77</ele>
  <time>2026-09-01T19:56:07Z</time>
  <course>336.23</course>
  <speed>3.3983819679370946</speed>
  <fix>3d</fix>
</trkpt>
<trkpt lat="-27.2745176" lon="151.2901353">
  <ele>377.88</ele>
  <time>2026-09-01T19:56:07Z</time>
  <course>336.1</course>
  <speed>3.52</speed>
  <fix>3d</fix>
</trkpt>
<trkpt lat="-27.2745069" lon="151.29013">
  <ele>377.77</ele>
  <time>2026-09-01T19:56:07Z</time>
  <course>336.23</course>
  <speed>3.362870797399151</speed>
  <fix>3d</fix>
</trkpt>
<trkpt lat="-27.274512" lon="151.2901325">
  <ele>377.87</ele>
  <time>2026-09-01T19:56:07Z</time>
  <course>336.1</course>
  <speed>3.44</speed>
  <fix>3d</fix>
</trkpt>
<trkpt lat="-27.2745041" lon="151.2901287">
  <ele>377.77</ele>
  <time>2026-09-01T19:56:07Z</time>
  <course>336.22</course>
  <speed>3.331381094981479</speed>
  <fix>3d</fix>
</trkpt>
<trkpt lat="-27.274512" lon="151.2901325">
  <ele>377.87</ele>
  <time>2026-09-01T19:56:07Z</time>
  <course>336.1</course>
  <speed>3.44</speed>
  <fix>3d</fix>
</trkpt>
<trkpt lat="-27.2745014" lon="151.2901273">
  <ele>377.77</ele>
  <time>2026-09-01T19:56:07Z</time>
  <course>336.22</course>
  <speed>3.309048201522607</speed>
  <fix>3d</fix>
</trkpt>
<trkpt lat="-27.2745064" lon="151.2901297">
  <ele>377.87</ele>
  <time>2026-09-01T19:56:07Z</time>
  <course>336.1</course>
  <speed>3.37</speed>
  <fix>3d</fix>
</trkpt>
<trkpt lat="-27.2744986" lon="151.2901259">
  <ele>377.77</ele>
  <time>2026-09-01T19:56:07Z</time>
  <course>336.22</course>
  <speed>3.286715685908959</speed>
  <fix>3d</fix>
</trkpt>
<trkpt lat="-27.2745064" lon="151.2901297">
  <ele>377.87</ele>
  <time>2026-09-01T19:56:07Z</time>
  <course>336.1</course>
  <speed>3.37</speed>
  <fix>3d</fix>
</trkpt>
<trkpt lat="-27.2744959" lon="151.2901246">
  <ele>377.77</ele>
  <time>2026-09-01T19:56:07Z</time>
  <course>336.21</course>
  <speed>3.2775600680994392</speed>
  <fix>3d</fix>
</trkpt>
<trkpt lat="-27.2745009" lon="151.2901269">
  <ele>377.87</ele>
  <time>2026-09-01T19:56:07Z</time>
  <course>336.09</course>
  <speed>3.31</speed>
  <fix>3d</fix>
</trkpt>
<trkpt lat="-27.2744932" lon="151.2901232">
  <ele>377.77</ele>
  <time>2026-09-01T19:56:07Z</time>
  <course>336.21</course>
  <speed>3.255226566615602</speed>
  <fix>3d</fix>
</trkpt>
<trkpt lat="-27.2745009" lon="151.2901269">
  <ele>377.87</ele>
  <time>2026-09-01T19:56:07Z</time>
  <course>336.09</course>
  <speed>3.31</speed>
  <fix>3d</fix>
</trkpt>
<trkpt lat="-27.2744905" lon="151.2901219">
  <ele>377.77</ele>
  <time>2026-09-01T19:56:07Z</time>
  <course>336.21</course>
  <speed>3.2237400639629743</speed>
  <fix>3d</fix>
</trkpt>
<trkpt lat="-27.2744955" lon="151.2901242">
  <ele>377.87</ele>
  <time>2026-09-01T19:56:07Z</time>
  <course>336.09</course>
  <speed>3.27</speed>
  <fix>3d</fix>
</trkpt>
<trkpt lat="-27.2744879" lon="151.2901206">
  <ele>377.77</ele>
  <time>2026-09-01T19:56:07Z</time>
  <course>336.21</course>
  <speed>3.188228348158268</speed>
  <fix>3d</fix>
</trkpt>
<trkpt lat="-27.2744955" lon="151.2901242">
  <ele>377.87</ele>
  <time>2026-09-01T19:56:07Z</time>
  <course>336.09</course>
  <speed>3.27</speed>
  <fix>3d</fix>
</trkpt>
<trkpt lat="-27.2744853" lon="151.2901193">
  <ele>377.78</ele>
  <time>2026-09-01T19:56:07Z</time>
  <course>336.21</course>
  <speed>3.134405844813336</speed>
  <fix>3d</fix>
</trkpt>
<trkpt lat="-27.2744901" lon="151.2901216">
  <ele>377.87</ele>
  <time>2026-09-01T19:56:07Z</time>
  <course>336.08</course>
  <speed>3.22</speed>
  <fix>3d</fix>
</trkpt>
<trkpt lat="-27.2744827" lon="151.290118">
  <ele>377.78</ele>
  <time>2026-09-01T19:56:07Z</time>
  <course>336.21</course>
  <speed>3.0582511342268806</speed>
  <fix>3d</fix>
</trkpt>
<trkpt lat="-27.2744901" lon="151.2901216">
  <ele>377.87</ele>
  <time>2026-09-01T19:56:07Z</time>
  <course>336.08</course>
  <speed>3.22</speed>
  <fix>3d</fix>
</trkpt>
<trkpt lat="-27.2744802" lon="151.2901167">
  <ele>377.78</ele>
  <time>2026-09-01T19:56:07Z</time>
  <course>336.21</course>
  <speed>2.982096577912929</speed>
  <fix>3d</fix>
</trkpt>
<trkpt lat="-27.2744849" lon="151.290119">
  <ele>377.88</ele>
  <time>2026-09-01T19:56:07Z</time>
  <course>336.09</course>
  <speed>3.12</speed>
  <fix>3d</fix>
</trkpt>
<trkpt lat="-27.2744778" lon="151.2901156">
  <ele>377.79</ele>
  <time>2026-09-01T19:56:07Z</time>
  <course>336.2</course>
  <speed>2.892766841624122</speed>
  <fix>3d</fix>
</trkpt>
<trkpt lat="-27.2744849" lon="151.290119">
  <ele>377.88</ele>
  <time>2026-09-01T19:56:07Z</time>
  <course>336.09</course>
  <speed>3.12</speed>
  <fix>3d</fix>
</trkpt>
<trkpt lat="-27.2744755" lon="151.2901144">
  <ele>377.79</ele>
  <time>2026-09-01T19:56:07Z</time>
  <course>336.2</course>
  <speed>2.7942798714516766</speed>
  <fix>3d</fix>
</trkpt>
<trkpt lat="-27.2744798" lon="151.2901165">
  <ele>377.88</ele>
  <time>2026-09-01T19:56:07Z</time>
  <course>336.1</course>
  <speed>2.98</speed>
  <fix>3d</fix>
</trkpt>
<trkpt lat="-27.2744732" lon="151.2901133">
  <ele>377.8</ele>
  <time>2026-09-01T19:56:07Z</time>
  <course>336.2</course>
  <speed>2.695793018760899</speed>
  <fix>3d</fix>
</trkpt>
<trkpt lat="-27.2744798" lon="151.2901165">
  <ele>377.88</ele>
  <time>2026-09-01T19:56:07Z</time>
  <course>336.1</course>
  <speed>2.98</speed>
  <fix>3d</fix>
</trkpt>
<trkpt lat="-27.274471" lon="151.2901122">
  <ele>377.8</ele>
  <time>2026-09-01T19:56:07Z</time>
  <course>336.19</course>
  <speed>2.5881460546112924</speed>
  <fix>3d</fix>
</trkpt>
<trkpt lat="-27.274475" lon="151.2901141">
  <ele>377.89</ele>
  <time>2026-09-01T19:56:07Z</time>
  <course>336.12</course>
  <speed>2.8</speed>
  <fix>3d</fix>
</trkpt>
<trkpt lat="-27.2744689" lon="151.2901112">
  <ele>377.8</ele>
  <time>2026-09-01T19:56:07Z</time>
  <course>336.19</course>
  <speed>2.485658866377283</speed>
  <fix>3d</fix>
</trkpt>
<trkpt lat="-27.274475" lon="151.2901141">
  <ele>377.89</ele>
  <time>2026-09-01T19:56:07Z</time>
  <course>336.12</course>
  <speed>2.8</speed>
  <fix>3d</fix>
</trkpt>
<trkpt lat="-27.2744669" lon="151.2901102">
  <ele>377.8</ele>
  <time>2026-09-01T19:56:07Z</time>
  <course>336.19</course>
  <speed>2.387174061521279</speed>
  <fix>3d</fix>
</trkpt>
<trkpt lat="-27.2744707" lon="151.2901119">
  <ele>377.9</ele>
  <time>2026-09-01T19:56:07Z</time>
  <course>336.15</course>
  <speed>2.6</speed>
  <fix>3d</fix>
</trkpt>
<trkpt lat="-27.274465" lon="151.2901092">
  <ele>377.8</ele>
  <time>2026-09-01T19:56:07Z</time>
  <course>336.19</course>
  <speed>2.279517492804124</speed>
  <fix>3d</fix>
</trkpt>
<trkpt lat="-27.2744707" lon="151.2901119">
  <ele>377.9</ele>
  <time>2026-09-01T19:56:07Z</time>
  <course>336.15</course>
  <speed>2.6</speed>
  <fix>3d</fix>
</trkpt>
<trkpt lat="-27.2744632" lon="151.2901083">
  <ele>377.8</ele>
  <time>2026-09-01T19:56:07Z</time>
  <course>336.19</course>
  <speed>2.181031865883669</speed>
  <fix>3d</fix>
</trkpt>
<trkpt lat="-27.2744665" lon="151.2901099">
  <ele>377.91</ele>
  <time>2026-09-01T19:56:07Z</time>
  <course>336.17</course>
  <speed>2.39</speed>
  <fix>3d</fix>
</trkpt>
<trkpt lat="-27.2744614" lon="151.2901074">
  <ele>377.8</ele>
  <time>2026-09-01T19:56:07Z</time>
  <course>336.18</course>
  <speed>2.0825465180878915</speed>
  <fix>3d</fix>
</trkpt>
<trkpt lat="-27.2744665" lon="151.2901099">
  <ele>377.91</ele>
  <time>2026-09-01T19:56:07Z</time>
  <course>336.17</course>
  <speed>2.39</speed>
  <fix>3d</fix>
</trkpt>
<trkpt lat="-27.2744597" lon="151.2901066">
  <ele>377.8</ele>
  <time>2026-09-01T19:56:07Z</time>
  <course>336.18</course>
  <speed>1.9840614909825753</speed>
  <fix>3d</fix>
</trkpt>
<trkpt lat="-27.2744628" lon="151.290108">
  <ele>377.91</ele>
  <time>2026-09-01T19:56:07Z</time>
  <course>336.18</course>
  <speed>2.19</speed>
  <fix>3d</fix>
</trkpt>
<trkpt lat="-27.2744581" lon="151.2901058">
  <ele>377.79</ele>
  <time>2026-09-01T19:56:07Z</time>
  <course>336.18</course>
  <speed>1.8947559209565754</speed>
  <fix>3d</fix>
</trkpt>
<trkpt lat="-27.2744628" lon="151.290108">
  <ele>377.91</ele>
  <time>2026-09-01T19:56:07Z</time>
  <course>336.18</course>
  <speed>2.19</speed>
  <fix>3d</fix>
</trkpt>
<trkpt lat="-27.2744566" lon="151.290105">
  <ele>377.79</ele>
  <time>2026-09-01T19:56:07Z</time>
  <course>336.17</course>
  <speed>1.8002499826412999</speed>
  <fix>3d</fix>
</trkpt>
<trkpt lat="-27.2744593" lon="151.2901063">
  <ele>377.9</ele>
  <time>2026-09-01T19:56:07Z</time>
  <course>336.19</course>
  <speed>2.0</speed>
  <fix>3d</fix>
</trkpt>
<trkpt lat="-27.2744551" lon="151.2901043">
  <ele>377.78</ele>
  <time>2026-09-01T19:56:07Z</time>
  <course>336.17</course>
  <speed>1.7109354166653983</speed>
  <fix>3d</fix>
</trkpt>
<trkpt lat="-27.2744593" lon="151.2901063">
  <ele>377.9</ele>
  <time>2026-09-01T19:56:07Z</time>
  <course>336.19</course>
  <speed>2.0</speed>
  <fix>3d</fix>
</trkpt>
<trkpt lat="-27.2744537" lon="151.2901036">
  <ele>377.78</ele>
  <time>2026-09-01T19:56:07Z</time>
  <course>336.16</course>
  <speed>1.6216349774224779</speed>
  <fix>3d</fix>
</trkpt>
<trkpt lat="-27.2744562" lon="151.2901047">
  <ele>377.89</ele>
  <time>2026-09-01T19:56:07Z</time>
  <course>336.2</course>
  <speed>1.81</speed>
  <fix>3d</fix>
</trkpt>
<trkpt lat="-27.2744524" lon="151.290103">
  <ele>377.77</ele>
  <time>2026-09-01T19:56:07Z</time>
  <course>336.16</course>
  <speed>1.5362942426501507</speed>
  <fix>3d</fix>
</trkpt>
<trkpt lat="-27.2744562" lon="151.2901047">
  <ele>377.89</ele>
  <time>2026-09-01T19:56:07Z</time>
  <course>336.2</course>
  <speed>1.81</speed>
  <fix>3d</fix>
</trkpt>
<trkpt lat="-27.2744512" lon="151.2901023">
  <ele>377.77</ele>
  <time>2026-09-01T19:56:07Z</time>
  <course>336.16</course>
  <speed>1.4601369798755184</speed>
  <fix>3d</fix>
</trkpt>
<trkpt lat="-27.2744534" lon="151.2901033">
  <ele>377.88</ele>
  <time>2026-09-01T19:56:07Z</time>
  <course>336.2</course>
  <speed>1.63</speed>
  <fix>3d</fix>
</trkpt>
<trkpt lat="-27.27445" lon="151.2901018">
  <ele>377.77</ele>
  <time>2026-09-01T19:56:07Z</time>
  <course>336.15</course>
  <speed>1.3708391590555036</speed>
  <fix>3d</fix>
</trkpt>
<trkpt lat="-27.2744534" lon="151.2901033">
  <ele>377.88</ele>
  <time>2026-09-01T19:56:07Z</time>
  <course>336.2</course>
  <speed>1.63</speed>
  <fix>3d</fix>
</trkpt>
<trkpt lat="-27.2744489" lon="151.2901012">
  <ele>377.77</ele>
  <time>2026-09-01T19:56:07Z</time>
  <course>336.15</course>
  <speed>1.2946814279968644</speed>
  <fix>3d</fix>
</trkpt>
<trkpt lat="-27.2744508" lon="151.2901021">
  <ele>377.86</ele>
  <time>2026-09-01T19:56:07Z</time>
  <course>336.2</course>
  <speed>1.46</speed>
  <fix>3d</fix>
</trkpt>
<trkpt lat="-27.2744478" lon="151.2901007">
  <ele>377.76</ele>
  <time>2026-09-01T19:56:07Z</time>
  <course>336.15</course>
  <speed>1.2277214667830811</speed>
  <fix>3d</fix>
</trkpt>
<trkpt lat="-27.2744508" lon="151.2901021">
  <ele>377.86</ele>
  <time>2026-09-01T19:56:07Z</time>
  <course>336.2</course>
  <speed>1.46</speed>
  <fix>3d</fix>
</trkpt>
<trkpt lat="-27.2744468" lon="151.2901002">
  <ele>377.76</ele>
  <time>2026-09-01T19:56:07Z</time>
  <course>336.15</course>
  <speed>1.155508546052343</speed>
  <fix>3d</fix>
</trkpt>
<trkpt lat="-27.2744485" lon="151.2901009">
  <ele>377.85</ele>
  <time>2026-09-01T19:56:07Z</time>
  <course>336.18</course>
  <speed>1.31</speed>
  <fix>3d</fix>
</trkpt>
<trkpt lat="-27.2744459" lon="151.2900997">
  <ele>377.77</ele>
  <time>2026-09-01T19:56:07Z</time>
  <course>336.15</course>
  <speed>1.0885311203635843</speed>
  <fix>3d</fix>
</trkpt>
<trkpt lat="-27.2744485" lon="151.2901009">
  <ele>377.85</ele>
  <time>2026-09-01T19:56:07Z</time>
  <course>336.18</course>
  <speed>1.31</speed>
  <fix>3d</fix>
</trkpt>
<trkpt lat="-27.274445" lon="151.2900993">
  <ele>377.77</ele>
  <time>2026-09-01T19:56:07Z</time>
  <course>336.14</course>
  <speed>1.0215674231297707</speed>
  <fix>3d</fix>
</trkpt>
<trkpt lat="-27.2744465" lon="151.2900999">
  <ele>377.85</ele>
  <time>2026-09-01T19:56:07Z</time>
  <course>336.15</course>
  <speed>1.16</speed>
  <fix>3d</fix>
</trkpt>
<trkpt lat="-27.2744442" lon="151.2900989">
  <ele>377.77</ele>
  <time>2026-09-01T19:56:07Z</time>
  <course>336.14</course>
  <speed>0.9677293009927931</speed>
  <fix>3d</fix>
</trkpt>
<trkpt lat="-27.2744465" lon="151.2900999">
  <ele>377.85</ele>
  <time>2026-09-01T19:56:07Z</time>
  <course>336.15</course>
  <speed>1.16</speed>
  <fix>3d</fix>
</trkpt>
<trkpt lat="-27.2744434" lon="151.2900985">
  <ele>377.77</ele>
  <time>2026-09-01T19:56:07Z</time>
  <course>336.14</course>
  <speed>0.9047098982546836</speed>
  <fix>3d</fix>
</trkpt>
<trkpt lat="-27.2744447" lon="151.290099">
  <ele>377.85</ele>
  <time>2026-09-01T19:56:07Z</time>
  <course>336.1</course>
  <speed>1.03</speed>
  <fix>3d</fix>
</trkpt>
<trkpt lat="-27.2744427" lon="151.2900981">
  <ele>377.77</ele>
  <time>2026-09-01T19:56:07Z</time>
  <course>336.13</course>
  <speed>0.8561541917201597</speed>
  <fix>3d</fix>
</trkpt>
<trkpt lat="-27.2744447" lon="151.290099">
  <ele>377.85</ele>
  <time>2026-09-01T19:56:07Z</time>
  <course>336.1</course>
  <speed>1.03</speed>
  <fix>3d</fix>
</trkpt>
<trkpt lat="-27.274442" lon="151.2900978">
  <ele>377.77</ele>
  <time>2026-09-01T19:56:07Z</time>
  <course>336.13</course>
  <speed>0.8062257748298549</speed>
  <fix>3d</fix>
</trkpt>
<trkpt lat="-27.2744431" lon="151.2900982">
  <ele>377.85</ele>
  <time>2026-09-01T19:56:07Z</time>
  <course>336.03</course>
  <speed>0.91</speed>
  <fix>3d</fix>
</trkpt>
<trkpt lat="-27.2744413" lon="151.2900974">
  <ele>377.76</ele>
  <time>2026-09-01T19:56:07Z</time>
  <course>336.13</course>
  <speed>0.7615773105863909</speed>
  <fix>3d</fix>
</trkpt>
<trkpt lat="-27.2744431" lon="151.2900982">
  <ele>377.85</ele>
  <time>2026-09-01T19:56:07Z</time>
  <course>336.03</course>
  <speed>0.91</speed>
  <fix>3d</fix>
</trkpt>
<trkpt lat="-27.2744407" lon="151.2900971">
  <ele>377.74</ele>
  <time>2026-09-01T19:56:07Z</time>
  <course>336.13</course>
  <speed>0.7261542535852834</speed>
  <fix>3d</fix>
</trkpt>
<trkpt lat="-27.2744417" lon="151.2900975">
  <ele>377.84</ele>
  <time>2026-09-01T19:56:07Z</time>
  <course>335.93</course>
  <speed>0.81</speed>
  <fix>3d</fix>
</trkpt>
<trkpt lat="-27.2744401" lon="151.2900968">
  <ele>377.7</ele>
  <time>2026-09-01T19:56:07Z</time>
  <course>336.13</course>
  <speed>0.6946221994724903</speed>
  <fix>3d</fix>
</trkpt>
<trkpt lat="-27.2744417" lon="151.2900975">
  <ele>377.84</ele>
  <time>2026-09-01T19:56:07Z</time>
  <course>335.93</course>
  <speed>0.81</speed>
  <fix>3d</fix>
</trkpt>
<trkpt lat="-27.2744395" lon="151.2900965">
  <ele>377.64</ele>
  <time>2026-09-01T19:56:07Z</time>
  <course>336.13</course>
  <speed>0.6539113089708727</speed>
  <fix>3d</fix>
</trkpt>
<trkpt lat="-27.2744405" lon="151.2900968">
  <ele>377.81</ele>
  <time>2026-09-01T19:56:07Z</time>
  <course>335.83</course>
  <speed>0.73</speed>
  <fix>3d</fix>
</trkpt>
<trkpt lat="-27.274439" lon="151.2900963">
  <ele>377.56</ele>
  <time>2026-09-01T19:56:07Z</time>
  <course>336.13</course>
  <speed>0.6184658438426491</speed>
  <fix>3d</fix>
</trkpt>
<trkpt lat="-27.2744405" lon="151.2900968">
  <ele>377.81</ele>
  <time>2026-09-01T19:56:07Z</time>
  <course>335.83</course>
  <speed>0.73</speed>
  <fix>3d</fix>
</trkpt>
<trkpt lat="-27.2744385" lon="151.290096">
  <ele>377.46</ele>
  <time>2026-09-01T19:56:07Z</time>
  <course>336.13</course>
  <speed>0.5869412236331676</speed>
  <fix>3d</fix>
</trkpt>
<trkpt lat="-27.2744393" lon="151.2900963">
  <ele>377.71</ele>
  <time>2026-09-01T19:56:07Z</time>
  <course>335.71</course>
  <speed>0.66</speed>
  <fix>3d</fix>
</trkpt>
<trkpt lat="-27.274438" lon="151.2900958">
  <ele>377.35</ele>
  <time>2026-09-01T19:56:07Z</time>
  <course>336.13</course>
  <speed>0.551543289325507</speed>
  <fix>3d</fix>
</trkpt>
<trkpt lat="-27.2744393" lon="151.2900963">
  <ele>377.71</ele>
  <time>2026-09-01T19:56:07Z</time>
  <course>335.71</course>
  <speed>0.66</speed>
  <fix>3d</fix>
</trkpt>
<trkpt lat="-27.2744376" lon="151.2900955">
  <ele>377.21</ele>
  <time>2026-09-01T19:56:07Z</time>
  <course>336.12</course>
  <speed>0.52</speed>
  <fix>3d</fix>
</trkpt>
<trkpt lat="-27.2744383" lon="151.2900957">
  <ele>377.53</ele>
  <time>2026-09-01T19:56:07Z</time>
  <course>335.58</course>
  <speed>0.59</speed>
  <fix>3d</fix>
</trkpt>
<trkpt lat="-27.2744371" lon="151.2900953">
  <ele>377.07</ele>
  <time>2026-09-01T19:56:07Z</time>
  <course>336.12</course>
  <speed>0.4884669896727925</speed>
  <fix>3d</fix>
</trkpt>
<trkpt lat="-27.2744383" lon="151.2900957">
  <ele>377.53</ele>
  <time>2026-09-01T19:56:07Z</time>
  <course>335.58</course>
  <speed>0.59</speed>
  <fix>3d</fix>
</trkpt>
<trkpt lat="-27.2744367" lon="151.2900951">
  <ele>376.91</ele>
  <time>2026-09-01T19:56:07Z</time>
  <course>336.12</course>
  <speed>0.45310043036836767</speed>
  <fix>3d</fix>
</trkpt>
<trkpt lat="-27.2744373" lon="151.2900953">
  <ele>377.29</ele>
  <time>2026-09-01T19:56:07Z</time>
  <course>335.43</course>
  <speed>0.52</speed>
  <fix>3d</fix>
</trkpt>
<trkpt lat="-27.2744364" lon="151.2900949">
  <ele>376.75</ele>
  <time>2026-09-01T19:56:07Z</time>
  <course>336.11</course>
  <speed>0.4215447781671598</speed>
  <fix>3d</fix>
</trkpt>
<trkpt lat="-27.2744373" lon="151.2900953">
  <ele>377.29</ele>
  <time>2026-09-01T19:56:07Z</time>
  <course>335.43</course>
  <speed>0.52</speed>
  <fix>3d</fix>
</trkpt>
<trkpt lat="-27.274436" lon="151.2900947">
  <ele>376.58</ele>
  <time>2026-09-01T19:56:07Z</time>
  <course>336.11</course>
  <speed>0.39</speed>
  <fix>3d</fix>
</trkpt>
<trkpt lat="-27.2744365" lon="151.2900948">
  <ele>377.0</ele>
  <time>2026-09-01T19:56:07Z</time>
  <course>335.26</course>
  <speed>0.45</speed>
  <fix>3d</fix>
</trkpt>
<trkpt lat="-27.2744357" lon="151.2900946">
  <ele>376.41</ele>
  <time>2026-09-01T19:56:07Z</time>
  <course>336.1</course>
  <speed>0.3676955262170047</speed>
  <fix>3d</fix>
</trkpt>
<trkpt lat="-27.2744365" lon="151.2900948">
  <ele>377.0</ele>
  <time>2026-09-01T19:56:07Z</time>
  <course>335.26</course>
  <speed>0.45</speed>
  <fix>3d</fix>
</trkpt>
<trkpt lat="-27.2744354" lon="151.2900944">
  <ele>376.25</ele>
  <time>2026-09-01T19:56:07Z</time>
  <course>336.1</course>
  <speed>0.3453983207834109</speed>
  <fix>3d</fix>
</trkpt>
<trkpt lat="-27.2744359" lon="151.2900945">
  <ele>376.68</ele>
  <time>2026-09-01T19:56:07Z</time>
  <course>335.06</course>
  <speed>0.39</speed>
  <fix>3d</fix>
</trkpt>
<trkpt lat="-27.2744351" lon="151.2900943">
  <ele>376.08</ele>
  <time>2026-09-01T19:56:07Z</time>
  <course>336.09</course>
  <speed>0.3231098884280702</speed>
  <fix>3d</fix>
</trkpt>
<trkpt lat="-27.2744359" lon="151.2900945">
  <ele>376.68</ele>
  <time>2026-09-01T19:56:07Z</time>
  <course>335.06</course>
  <speed>0.39</speed>
  <fix>3d</fix>
</trkpt>
<trkpt lat="-27.2744348" lon="151.2900941">
  <ele>375.92</ele>
  <time>2026-09-01T19:56:07Z</time>
  <course>336.09</course>
  <speed>0.30083217912982646</speed>
  <fix>3d</fix>
</trkpt>
<trkpt lat="-27.2744353" lon="151.2900942">
  <ele>376.35</ele>
  <time>2026-09-01T19:56:07Z</time>
  <course>334.86</course>
  <speed>0.34</speed>
  <fix>3d</fix>
</trkpt>
<trkpt lat="-27.2744346" lon="151.290094">
  <ele>375.75</ele>
  <time>2026-09-01T19:56:07Z</time>
  <course>336.08</course>
  <speed>0.291547594742265</speed>
  <fix>3d</fix>
</trkpt>
<trkpt lat="-27.2744353" lon="151.2900942">
  <ele>376.35</ele>
  <time>2026-09-01T19:56:07Z</time>
  <course>334.86</course>
  <speed>0.34</speed>
  <fix>3d</fix>
</trkpt>
<trkpt lat="-27.2744343" lon="151.2900939">
  <ele>375.59</ele>
  <time>2026-09-01T19:56:07Z</time>
  <course>336.08</course>
  <speed>0.2692582403567252</speed>
  <fix>3d</fix>
</trkpt>
<trkpt lat="-27.2744347" lon="151.2900939">
  <ele>376.03</ele>
  <time>2026-09-01T19:56:07Z</time>
  <course>334.63</course>
  <speed>0.31</speed>
  <fix>3d</fix>
</trkpt>
<trkpt lat="-27.2744341" lon="151.2900937">
  <ele>375.44</ele>
  <time>2026-09-01T19:56:07Z</time>
  <course>336.08</course>
  <speed>0.25632011235952595</speed>
  <fix>3d</fix>
</trkpt>
<trkpt lat="-27.2744347" lon="151.2900939">
  <ele>376.03</ele>
  <time>2026-09-01T19:56:07Z</time>
  <course>334.63</course>
  <speed>0.31</speed>
  <fix>3d</fix>
</trkpt>
<trkpt lat="-27.2744339" lon="151.2900936">
  <ele>375.28</ele>
  <time>2026-09-01T19:56:07Z</time>
  <course>336.08</course>
  <speed>0.24698178070456936</speed>
  <fix>3d</fix>
</trkpt>
<trkpt lat="-27.2744342" lon="151.2900937">
  <ele>375.71</ele>
  <time>2026-09-01T19:56:07Z</time>
  <course>334.41</course>
  <speed>0.28</speed>
  <fix>3d</fix>
</trkpt>
<trkpt lat="-27.2744337" lon="151.2900935">
  <ele>375.14</ele>
  <time>2026-09-01T19:56:07Z</time>
  <course>336.08</course>
  <speed>0.2340939982143925</speed>
  <fix>3d</fix>
</trkpt>
<trkpt lat="-27.2744342" lon="151.2900937">
  <ele>375.71</ele>
  <time>2026-09-01T19:56:07Z</time>
  <course>334.41</course>
  <speed>0.28</speed>
  <fix>3d</fix>
</trkpt>
<trkpt lat="-27.2744335" lon="151.2900934">
  <ele>374.99</ele>
  <time>2026-09-01T19:56:07Z</time>
  <course>336.08</course>
  <speed>0.2340939982143925</speed>
  <fix>3d</fix>
</trkpt>
<trkpt lat="-27.2744338" lon="151.2900934">
  <ele>375.41</ele>
  <time>2026-09-01T19:56:07Z</time>
  <course>334.19</course>
  <speed>0.25</speed>
  <fix>3d</fix>
</trkpt>
<trkpt lat="-27.2744333" lon="151.2900933">
  <ele>374.84</ele>
  <time>2026-09-01T19:56:07Z</time>
  <course>336.08</course>
  <speed>0.22472205054244232</speed>
  <fix>3d</fix>
</trkpt>
<trkpt lat="-27.2744338" lon="151.2900934">
  <ele>375.41</ele>
  <time>2026-09-01T19:56:07Z</time>
  <course>334.19</course>
  <speed>0.25</speed>
  <fix>3d</fix>
</trkpt>
<trkpt lat="-27.2744331" lon="151.2900932">
  <ele>374.7</ele>
  <time>2026-09-01T19:56:07Z</time>
  <course>336.07</course>
  <speed>0.21540659228538014</speed>
  <fix>3d</fix>
</trkpt>
<trkpt lat="-27.2744334" lon="151.2900932">
  <ele>375.11</ele>
  <time>2026-09-01T19:56:07Z</time>
  <course>333.95</course>
  <speed>0.24</speed>
  <fix>3d</fix>
</trkpt>
<trkpt lat="-27.2744329" lon="151.2900931">
  <ele>374.56</ele>
  <time>2026-09-01T19:56:07Z</time>
  <course>336.07</course>
  <speed>0.21189620100417092</speed>
  <fix>3d</fix>
</trkpt>
<trkpt lat="-27.2744334" lon="151.2900932">
  <ele>375.11</ele>
  <time>2026-09-01T19:56:07Z</time>
  <course>333.95</course>
  <speed>0.24</speed>
  <fix>3d</fix>
</trkpt>
<trkpt lat="-27.2744327" lon="151.290093">
  <ele>374.42</ele>
  <time>2026-09-01T19:56:07Z</time>
  <course>336.06</course>
  <speed>0.21189620100417092</speed>
  <fix>3d</fix>
</trkpt>
<trkpt lat="-27.274433" lon="151.290093">
  <ele>374.83</ele>
  <time>2026-09-01T19:56:07Z</time>
  <course>333.67</course>
  <speed>0.22</speed>
  <fix>3d</fix>
</trkpt>
<trkpt lat="-27.2744326" lon="151.2900929">
  <ele>374.27</ele>
  <time>2026-09-01T19:56:07Z</time>
  <course>336.06</course>
  <speed>0.20248456731316586</speed>
  <fix>3d</fix>
</trkpt>
<trkpt lat="-27.274433" lon="151.290093">
  <ele>374.83</ele>
  <time>2026-09-01T19:56:07Z</time>
  <course>333.67</course>
  <speed>0.22</speed>
  <fix>3d</fix>
</trkpt>
<trkpt lat="-27.2744324" lon="151.2900928">
  <ele>374.13</ele>
  <time>2026-09-01T19:56:07Z</time>
  <course>336.06</course>
  <speed>0.20248456731316586</speed>
  <fix>3d</fix>
</trkpt>
<trkpt lat="-27.2744327" lon="151.2900928">
  <ele>374.55</ele>
  <time>2026-09-01T19:56:07Z</time>
  <course>333.46</course>
  <speed>0.22</speed>
  <fix>3d</fix>
</trkpt>
<trkpt lat="-27.2744322" lon="151.2900927">
  <ele>373.99</ele>
  <time>2026-09-01T19:56:07Z</time>
  <course>336.06</course>
  <speed>0.20248456731316586</speed>
  <fix>3d</fix>
</trkpt>
<trkpt lat="-27.2744327" lon="151.2900928">
  <ele>374.55</ele>
  <time>2026-09-01T19:56:07Z</time>
  <course>333.46</course>
  <speed>0.22</speed>
  <fix>3d</fix>
</trkpt>
<trkpt lat="-27.274432" lon="151.2900927">
  <ele>373.85</ele>
  <time>2026-09-01T19:56:07Z</time>
  <course>336.06</course>
  <speed>0.20248456731316586</speed>
  <fix>3d</fix>
</trkpt>
<trkpt lat="-27.2744323" lon="151.2900925">
  <ele>374.27</ele>
  <time>2026-09-01T19:56:07Z</time>
  <course>333.34</course>
  <speed>0.21</speed>
  <fix>3d</fix>
</trkpt>
<trkpt lat="-27.2744319" lon="151.2900926">
  <ele>373.71</ele>
  <time>2026-09-01T19:56:07Z</time>
  <course>336.06</course>
  <speed>0.20248456731316586</speed>
  <fix>3d</fix>
</trkpt>
<trkpt lat="-27.2744323" lon="151.2900925">
  <ele>374.27</ele>
  <time>2026-09-01T19:56:07Z</time>
  <course>333.34</course>
  <speed>0.21</speed>
  <fix>3d</fix>
</trkpt>
<trkpt lat="-27.2744317" lon="151.2900925">
  <ele>373.57</ele>
  <time>2026-09-01T19:56:07Z</time>
  <course>336.06</course>
  <speed>0.18973665961010278</speed>
  <fix>3d</fix>
</trkpt>
<trkpt lat="-27.274432" lon="151.2900924">
  <ele>373.99</ele>
  <time>2026-09-01T19:56:07Z</time>
  <course>333.29</course>
  <speed>0.21</speed>
  <fix>3d</fix>
</trkpt>
<trkpt lat="-27.2744315" lon="151.2900924">
  <ele>373.42</ele>
  <time>2026-09-01T19:56:07Z</time>
  <course>336.06</course>
  <speed>0.18973665961010278</speed>
  <fix>3d</fix>
</trkpt>
<trkpt lat="-27.274432" lon="151.2900924">
  <ele>373.99</ele>
  <time>2026-09-01T19:56:07Z</time>
  <course>333.29</course>
  <speed>0.21</speed>
  <fix>3d</fix>
</trkpt>
<trkpt lat="-27.2744314" lon="151.2900923">
  <ele>373.28</ele>
  <time>2026-09-01T19:56:07Z</time>
  <course>336.06</course>
  <speed>0.18973665961010278</speed>
  <fix>3d</fix>
</trkpt>
<trkpt lat="-27.2744316" lon="151.2900922">
  <ele>373.71</ele>
  <time>2026-09-01T19:56:07Z</time>
  <course>333.3</course>
  <speed>0.21</speed>
  <fix>3d</fix>
</trkpt>
<trkpt lat="-27.2744312" lon="151.2900922">
  <ele>373.13</ele>
  <time>2026-09-01T19:56:07Z</time>
  <course>336.06</course>
  <speed>0.18973665961010278</speed>
  <fix>3d</fix>
</trkpt>
<trkpt lat="-27.2744316" lon="151.2900922">
  <ele>373.71</ele>
  <time>2026-09-01T19:56:07Z</time>
  <course>333.3</course>
  <speed>0.21</speed>
  <fix>3d</fix>
</trkpt>
<trkpt lat="-27.274431" lon="151.2900921">
  <ele>372.99</ele>
  <time>2026-09-01T19:56:07Z</time>
  <course>336.05</course>
  <speed>0.18973665961010278</speed>
  <fix>3d</fix>
</trkpt>
<trkpt lat="-27.2744312" lon="151.2900919">
  <ele>373.42</ele>
  <time>2026-09-01T19:56:07Z</time>
  <course>333.4</course>
  <speed>0.2</speed>
  <fix>3d</fix>
</trkpt>
<trkpt lat="-27.2744309" lon="151.290092">
  <ele>372.84</ele>
  <time>2026-09-01T19:56:07Z</time>
  <course>336.05</course>
  <speed>0.18973665961010278</speed>
  <fix>3d</fix>
</trkpt>
<trkpt lat="-27.2744312" lon="151.2900919">
  <ele>373.42</ele>
  <time>2026-09-01T19:56:07Z</time>
  <course>333.4</course>
  <speed>0.2</speed>
  <fix>3d</fix>
</trkpt>
<trkpt lat="-27.2744307" lon="151.2900919">
  <ele>372.69</ele>
  <time>2026-09-01T19:56:07Z</time>
  <course>336.04</course>
  <speed>0.18973665961010278</speed>
  <fix>3d</fix>
</trkpt>
<trkpt lat="-27.2744309" lon="151.2900918">
  <ele>373.13</ele>
  <time>2026-09-01T19:56:07Z</time>
  <course>333.48</course>
  <speed>0.2</speed>
  <fix>3d</fix>
</trkpt>
<trkpt lat="-27.2744305" lon="151.2900918">
  <ele>372.54</ele>
  <time>2026-09-01T19:56:07Z</time>
  <course>336.04</course>
  <speed>0.18973665961010278</speed>
  <fix>3d</fix>
</trkpt>
<trkpt lat="-27.2744309" lon="151.2900918">
  <ele>373.13</ele>
  <time>2026-09-01T19:56:07Z</time>
  <course>333.48</course>
  <speed>0.2</speed>
  <fix>3d</fix>
</trkpt>
<trkpt lat="-27.2744304" lon="151.2900917">
  <ele>372.39</ele>
  <time>2026-09-01T19:56:07Z</time>
  <course>336.04</course>
  <speed>0.18027756377319945</speed>
  <fix>3d</fix>
</trkpt>
<trkpt lat="-27.2744306" lon="151.2900917">
  <ele>372.83</ele>
  <time>2026-09-01T19:56:07Z</time>
  <course>333.57</course>
  <speed>0.2</speed>
  <fix>3d</fix>
</trkpt>
<trkpt lat="-27.2744302" lon="151.2900916">
  <ele>372.24</ele>
  <time>2026-09-01T19:56:07Z</time>
  <course>336.05</course>
  <speed>0.18027756377319945</speed>
  <fix>3d</fix>
</trkpt>
<trkpt lat="-27.2744306" lon="151.2900917">
  <ele>372.83</ele>
  <time>2026-09-01T19:56:07Z</time>
  <course>333.57</course>
  <speed>0.2</speed>
  <fix>3d</fix>
</trkpt>
<trkpt lat="-27.2744301" lon="151.2900916">
  <ele>372.09</ele>
  <time>2026-09-01T19:56:07Z</time>
  <course>336.05</course>
  <speed>0.18027756377319945</speed>
  <fix>3d</fix>
</trkpt>
<trkpt lat="-27.2744303" lon="151.2900915">
  <ele>372.53</ele>
  <time>2026-09-01T19:56:07Z</time>
  <course>333.71</course>
  <speed>0.2</speed>
  <fix>3d</fix>
</trkpt>
<trkpt lat="-27.2744299" lon="151.2900915">
  <ele>371.94</ele>
  <time>2026-09-01T19:56:07Z</time>
  <course>336.06</course>
  <speed>0.1772004514666935</speed>
  <fix>3d</fix>
</trkpt>
<trkpt lat="-27.2744303" lon="151.2900915">
  <ele>372.53</ele>
  <time>2026-09-01T19:56:07Z</time>
  <course>333.71</course>
  <speed>0.2</speed>
  <fix>3d</fix>
</trkpt>
<trkpt lat="-27.2744297" lon="151.2900914">
  <ele>371.79</ele>
  <time>2026-09-01T19:56:07Z</time>
  <course>336.06</course>
  <speed>0.1772004514666935</speed>
  <fix>3d</fix>
</trkpt>
<trkpt lat="-27.27443" lon="151.2900913">
  <ele>372.22</ele>
  <time>2026-09-01T19:56:07Z</time>
  <course>333.86</course>
  <speed>0.2</speed>
  <fix>3d</fix>
</trkpt>
<trkpt lat="-27.2744296" lon="151.2900913">
  <ele>371.64</ele>
  <time>2026-09-01T19:56:07Z</time>
  <course>336.07</course>
  <speed>0.1676305461424021</speed>
  <fix>3d</fix>
</trkpt>
<trkpt lat="-27.27443" lon="151.2900913">
  <ele>372.22</ele>
  <time>2026-09-01T19:56:07Z</time>
  <course>333.86</course>
  <speed>0.2</speed>
  <fix>3d</fix>
</trkpt>
<trkpt lat="-27.2744294" lon="151.2900912">
  <ele>371.49</ele>
  <time>2026-09-01T19:56:07Z</time>
  <course>336.08</course>
  <speed>0.1676305461424021</speed>
  <fix>3d</fix>
</trkpt>
<trkpt lat="-27.2744296" lon="151.290091">
  <ele>371.93</ele>
  <time>2026-09-01T19:56:07Z</time>
  <course>334.06</course>
  <speed>0.19</speed>
  <fix>3d</fix>
</trkpt>
<trkpt lat="-27.2744293" lon="151.2900911">
  <ele>371.34</ele>
  <time>2026-09-01T19:56:07Z</time>
  <course>336.1</course>
  <speed>0.1676305461424021</speed>
  <fix>3d</fix>
</trkpt>
<trkpt lat="-27.2744296" lon="151.290091">
  <ele>371.93</ele>
  <time>2026-09-01T19:56:07Z</time>
  <course>334.06</course>
  <speed>0.19</speed>
  <fix>3d</fix>
</trkpt>
<trkpt lat="-27.2744291" lon="151.2900911">
  <ele>371.18</ele>
  <time>2026-09-01T19:56:07Z</time>
  <course>336.1</course>
  <speed>0.15811388300841897</speed>
  <fix>3d</fix>
</trkpt>
<trkpt lat="-27.2744293" lon="151.2900909">
  <ele>371.63</ele>
  <time>2026-09-01T19:56:07Z</time>
  <course>334.22</course>
  <speed>0.19</speed>
  <fix>3d</fix>
</trkpt>
<trkpt lat="-27.274429" lon="151.290091">
  <ele>371.03</ele>
  <time>2026-09-01T19:56:07Z</time>
  <course>336.1</course>
  <speed>0.15811388300841897</speed>
  <fix>3d</fix>
</trkpt>
<trkpt lat="-27.2744293" lon="151.2900909">
  <ele>371.63</ele>
  <time>2026-09-01T19:56:07Z</time>
  <course>334.22</course>
  <speed>0.19</speed>
  <fix>3d</fix>
</trkpt>
<trkpt lat="-27.2744288" lon="151.2900909">
  <ele>370.88</ele>
  <time>2026-09-01T19:56:07Z</time>
  <course>336.1</course>
  <speed>0.15524174696260024</speed>
  <fix>3d</fix>
</trkpt>
<trkpt lat="-27.274429" lon="151.2900907">
  <ele>371.33</ele>
  <time>2026-09-01T19:56:07Z</time>
  <course>334.34</course>
  <speed>0.18</speed>
  <fix>3d</fix>
</trkpt>
<trkpt lat="-27.2744287" lon="151.2900908">
  <ele>370.73</ele>
  <time>2026-09-01T19:56:07Z</time>
  <course>336.09</course>
  <speed>0.14560219778561037</speed>
  <fix>3d</fix>
</trkpt>
<trkpt lat="-27.274429" lon="151.2900907">
  <ele>371.33</ele>
  <time>2026-09-01T19:56:07Z</time>
  <course>334.34</course>
  <speed>0.18</speed>
  <fix>3d</fix>
</trkpt>
<trkpt lat="-27.2744286" lon="151.2900907">
  <ele>370.57</ele>
  <time>2026-09-01T19:56:07Z</time>
  <course>336.08</course>
  <speed>0.14560219778561037</speed>
  <fix>3d</fix>
</trkpt>
<trkpt lat="-27.2744287" lon="151.2900905">
  <ele>371.03</ele>
  <time>2026-09-01T19:56:07Z</time>
  <course>334.55</course>
  <speed>0.17</speed>
  <fix>3d</fix>
</trkpt>
<trkpt lat="-27.2744284" lon="151.2900907">
  <ele>370.42</ele>
  <time>2026-09-01T19:56:07Z</time>
  <course>336.07</course>
  <speed>0.13601470508735444</speed>
  <fix>3d</fix>
</trkpt>
<trkpt lat="-27.2744287" lon="151.2900905">
  <ele>371.03</ele>
  <time>2026-09-01T19:56:07Z</time>
  <course>334.55</course>
  <speed>0.17</speed>
  <fix>3d</fix>
</trkpt>
<trkpt lat="-27.2744283" lon="151.2900906">
  <ele>370.27</ele>
  <time>2026-09-01T19:56:07Z</time>
  <course>336.07</course>
  <speed>0.13341664064126335</speed>
  <fix>3d</fix>
</trkpt>
<trkpt lat="-27.2744284" lon="151.2900904">
  <ele>370.72</ele>
  <time>2026-09-01T19:56:07Z</time>
  <course>334.91</course>
  <speed>0.17</speed>
  <fix>3d</fix>
</trkpt>
<trkpt lat="-27.2744282" lon="151.2900905">
  <ele>370.13</ele>
  <time>2026-09-01T19:56:07Z</time>
  <course>336.07</course>
  <speed>0.12369316876852982</speed>
  <fix>3d</fix>
</trkpt>
<trkpt lat="-27.2744284" lon="151.2900904">
  <ele>370.72</ele>
  <time>2026-09-01T19:56:07Z</time>
  <course>334.91</course>
  <speed>0.17</speed>
  <fix>3d</fix>
</trkpt>
<trkpt lat="-27.274428" lon="151.2900905">
  <ele>369.98</ele>
  <time>2026-09-01T19:56:07Z</time>
  <course>336.08</course>
  <speed>0.12369316876852982</speed>
  <fix>3d</fix>
</trkpt>
<trkpt lat="-27.2744282" lon="151.2900903">
  <ele>370.43</ele>
  <time>2026-09-01T19:56:07Z</time>
  <course>335.35</course>
  <speed>0.16</speed>
  <fix>3d</fix>
</trkpt>
<trkpt lat="-27.2744279" lon="151.2900904">
  <ele>369.83</ele>
  <time>2026-09-01T19:56:07Z</time>
  <course>336.09</course>
  <speed>0.11401754250991379</speed>
  <fix>3d</fix>
</trkpt>
<trkpt lat="-27.2744282" lon="151.2900903">
  <ele>370.43</ele>
  <time>2026-09-01T19:56:07Z</time>
  <course>335.35</course>
  <speed>0.16</speed>
  <fix>3d</fix>
</trkpt>
<trkpt lat="-27.2744278" lon="151.2900903">
  <ele>369.68</ele>
  <time>2026-09-01T19:56:07Z</time>
  <course>336.1</course>
  <speed>0.1118033988749895</speed>
  <fix>3d</fix>
</trkpt>
<trkpt lat="-27.2744279" lon="151.2900902">
  <ele>370.13</ele>
  <time>2026-09-01T19:56:07Z</time>
  <course>335.69</course>
  <speed>0.14</speed>
  <fix>3d</fix>
</trkpt>
<trkpt lat="-27.2744277" lon="151.2900903">
  <ele>369.54</ele>
  <time>2026-09-01T19:56:07Z</time>
  <course>336.11</course>
  <speed>0.1019803902718557</speed>
  <fix>3d</fix>
</trkpt>
<trkpt lat="-27.2744279" lon="151.2900902">
  <ele>370.13</ele>
  <time>2026-09-01T19:56:07Z</time>
  <course>335.69</course>
  <speed>0.14</speed>
  <fix>3d</fix>
</trkpt>
<trkpt lat="-27.2744276" lon="151.2900902">
  <ele>369.39</ele>
  <time>2026-09-01T19:56:07Z</time>
  <course>336.12</course>
  <speed>0.1019803902718557</speed>
  <fix>3d</fix>
</trkpt>
<trkpt lat="-27.2744276" lon="151.29009">
  <ele>369.83</ele>
  <time>2026-09-01T19:56:07Z</time>
  <course>335.77</course>
  <speed>0.13</speed>
  <fix>3d</fix>
</trkpt>
<trkpt lat="-27.2744275" lon="151.2900902">
  <ele>369.24</ele>
  <time>2026-09-01T19:56:07Z</time>
  <course>336.12</course>
  <speed>0.09219544457292887</speed>
  <fix>3d</fix>
</trkpt>
<trkpt lat="-27.2744276" lon="151.29009">
  <ele>369.83</ele>
  <time>2026-09-01T19:56:07Z</time>
  <course>335.77</course>
  <speed>0.13</speed>
  <fix>3d</fix>
</trkpt>
<trkpt lat="-27.2744274" lon="151.2900901">
  <ele>369.09</ele>
  <time>2026-09-01T19:56:07Z</time>
  <course>336.12</course>
  <speed>0.09055385138137417</speed>
  <fix>3d</fix>
</trkpt>
<trkpt lat="-27.2744275" lon="151.2900899">
  <ele>369.54</ele>
  <time>2026-09-01T19:56:07Z</time>
  <course>335.79</course>
  <speed>0.12</speed>
  <fix>3d</fix>
</trkpt>
<trkpt lat="-27.2744273" lon="151.2900901">
  <ele>368.94</ele>
  <time>2026-09-01T19:56:07Z</time>
  <course>336.12</course>
  <speed>0.08062257748298549</speed>
  <fix>3d</fix>
</trkpt>
<trkpt lat="-27.2744275" lon="151.2900899">
  <ele>369.54</ele>
  <time>2026-09-01T19:56:07Z</time>
  <course>335.79</course>
  <speed>0.12</speed>
  <fix>3d</fix>
</trkpt>
<trkpt lat="-27.2744272" lon="151.29009">
  <ele>368.79</ele>
  <time>2026-09-01T19:56:07Z</time>
  <course>336.11</course>
  <speed>0.08062257748298549</speed>
  <fix>3d</fix>
</trkpt>
<trkpt lat="-27.2744273" lon="151.2900898">
  <ele>369.24</ele>
  <time>2026-09-01T19:56:07Z</time>
  <course>335.89</course>
  <speed>0.11</speed>
  <fix>3d</fix>
</trkpt>
<trkpt lat="-27.2744272" lon="151.29009">
  <ele>368.63</ele>
  <time>2026-09-01T19:56:07Z</time>
  <course>336.11</course>
  <speed>0.07071067811865475</speed>
  <fix>3d</fix>
</trkpt>
<trkpt lat="-27.2744273" lon="151.2900898">
  <ele>369.24</ele>
  <time>2026-09-01T19:56:07Z</time>
  <course>335.89</course>
  <speed>0.11</speed>
  <fix>3d</fix>
</trkpt>
<trkpt lat="-27.2744271" lon="151.29009">
  <ele>368.48</ele>
  <time>2026-09-01T19:56:07Z</time>
  <course>336.11</course>
  <speed>0.06</speed>
  <fix>3d</fix>
</trkpt>
<trkpt lat="-27.274427" lon="151.2900897">
  <ele>368.94</ele>
  <time>2026-09-01T19:56:07Z</time>
  <course>336.1</course>
  <speed>0.1</speed>
  <fix>3d</fix>
</trkpt>
<trkpt lat="-27.274427" lon="151.2900899">
  <ele>368.34</ele>
  <time>2026-09-01T19:56:07Z</time>
  <course>336.12</course>
  <speed>0.06</speed>
  <fix>3d</fix>
</trkpt>
<trkpt lat="-27.274427" lon="151.2900897">
  <ele>368.94</ele>
  <time>2026-09-01T19:56:07Z</time>
  <course>336.1</course>
  <speed>0.1</speed>
  <fix>3d</fix>
</trkpt>
<trkpt lat="-27.2744269" lon="151.2900899">
  <ele>368.19</ele>
  <time>2026-09-01T19:56:07Z</time>
  <course>336.13</course>
  <speed>0.05</speed>
  <fix>3d</fix>
</trkpt>
<trkpt lat="-27.2744269" lon="151.2900896">
  <ele>368.64</ele>
  <time>2026-09-01T19:56:07Z</time>
  <course>336.53</course>
  <speed>0.09</speed>
  <fix>3d</fix>
</trkpt>
<trkpt lat="-27.2744269" lon="151.2900899">
  <ele>368.04</ele>
  <time>2026-09-01T19:56:07Z</time>
  <course>336.15</course>
  <speed>0.05</speed>
  <fix>3d</fix>
</trkpt>
<trkpt lat="-27.2744269" lon="151.2900896">
  <ele>368.64</ele>
  <time>2026-09-01T19:56:07Z</time>
  <course>336.53</course>
  <speed>0.09</speed>
  <fix>3d</fix>
</trkpt>
<trkpt lat="-27.2744268" lon="151.2900898">
  <ele>367.88</ele>
  <time>2026-09-01T19:56:07Z</time>
  <course>336.17</course>
  <speed>0.04</speed>
  <fix>3d</fix>
</trkpt>
<trkpt lat="-27.2744268" lon="151.2900896">
  <ele>368.34</ele>
  <time>2026-09-01T19:56:07Z</time>
  <course>337.08</course>
  <speed>0.07</speed>
  <fix>3d</fix>
</trkpt>
<trkpt lat="-27.2744268" lon="151.2900898">
  <ele>367.74</ele>
  <time>2026-09-01T19:56:07Z</time>
  <course>336.19</course>
  <speed>0.04</speed>
  <fix>3d</fix>
</trkpt>
<trkpt lat="-27.2744268" lon="151.2900896">
  <ele>368.34</ele>
  <time>2026-09-01T19:56:07Z</time>
  <course>337.08</course>
  <speed>0.07</speed>
  <fix>3d</fix>
</trkpt>
<trkpt lat="-27.2744267" lon="151.2900898">
  <ele>367.59</ele>
  <time>2026-09-01T19:56:07Z</time>
  <course>336.21</course>
  <speed>0.03</speed>
  <fix>3d</fix>
</trkpt>
<trkpt lat="-27.2744267" lon="151.2900895">
  <ele>368.04</ele>
  <time>2026-09-01T19:56:07Z</time>
  <course>337.51</course>
  <speed>0.06</speed>
  <fix>3d</fix>
</trkpt>
<trkpt lat="-27.2744267" lon="151.2900897">
  <ele>367.43</ele>
  <time>2026-09-01T19:56:07Z</time>
  <course>336.23</course>
  <speed>0.03</speed>
  <fix>3d</fix>
</trkpt>
<trkpt lat="-27.2744267" lon="151.2900895">
  <ele>368.04</ele>
  <time>2026-09-01T19:56:07Z</time>
  <course>337.51</course>
  <speed>0.06</speed>
  <fix>3d</fix>
</trkpt>
<trkpt lat="-27.2744266" lon="151.2900897">
  <ele>367.28</ele>
  <time>2026-09-01T19:56:07Z</time>
  <course>336.25</course>
  <speed>0.02</speed>
  <fix>3d</fix>
</trkpt>
<trkpt lat="-27.2744265" lon="151.2900895">
  <ele>367.74</ele>
  <time>2026-09-01T19:56:07Z</time>
  <course>337.84</course>
  <speed>0.05</speed>
  <fix>3d</fix>
</trkpt>
<trkpt lat="-27.2744266" lon="151.2900897">
  <ele>367.13</ele>
  <time>2026-09-01T19:56:07Z</time>
  <course>336.27</course>
  <speed>0.022360679774997897</speed>
  <fix>3d</fix>
</trkpt>
<trkpt lat="-27.2744265" lon="151.2900895">
  <ele>367.74</ele>
  <time>2026-09-01T19:56:07Z</time>
  <course>337.84</course>
  <speed>0.05</speed>
  <fix>3d</fix>
</trkpt>
<trkpt lat="-27.2744266" lon="151.2900897">
  <ele>366.98</ele>
  <time>2026-09-01T19:56:07Z</time>
  <course>336.28</course>
  <speed>0.01414213562373095</speed>
  <fix>3d</fix>
</trkpt>
<trkpt lat="-27.2744265" lon="151.2900895">
  <ele>367.45</ele>
  <time>2026-09-01T19:56:07Z</time>
  <course>337.79</course>
  <speed>0.04</speed>
  <fix>3d</fix>
</trkpt>
<trkpt lat="-27.2744266" lon="151.2900897">
  <ele>366.83</ele>
  <time>2026-09-01T19:56:07Z</time>
  <course>336.28</course>
  <speed>0.01414213562373095</speed>
  <fix>3d</fix>
</trkpt>
<trkpt lat="-27.2744265" lon="151.2900895">
  <ele>367.45</ele>
  <time>2026-09-01T19:56:07Z</time>
  <course>337.79</course>
  <speed>0.04</speed>
  <fix>3d</fix>
</trkpt>
<trkpt lat="-27.2744265" lon="151.2900897">
  <ele>366.68</ele>
  <time>2026-09-01T19:56:07Z</time>
  <course>336.27</course>
  <speed>0.01</speed>
  <fix>3d</fix>
</trkpt>
<trkpt lat="-27.2744264" lon="151.2900895">
  <ele>367.15</ele>
  <time>2026-09-01T19:56:07Z</time>
  <course>336.57</course>
  <speed>0.03</speed>
  <fix>3d</fix>
</trkpt>
<trkpt lat="-27.2744265" lon="151.2900897">
  <ele>366.53</ele>
  <time>2026-09-01T19:56:07Z</time>
  <course>336.28</course>
  <speed>0.01</speed>
  <fix>3d</fix>
</trkpt>
<trkpt lat="-27.2744264" lon="151.2900895">
  <ele>367.15</ele>
  <time>2026-09-01T19:56:07Z</time>
  <course>336.57</course>
  <speed>0.03</speed>
  <fix>3d</fix>
</trkpt>
<trkpt lat="-27.2744265" lon="151.2900897">
  <ele>366.38</ele>
  <time>2026-09-01T19:56:07Z</time>
  <course>336.29</course>
  <speed>0.01</speed>
  <fix>3d</fix>
</trkpt>
<trkpt lat="-27.2744264" lon="151.2900894">
  <ele>366.85</ele>
  <time>2026-09-01T19:56:07Z</time>
  <course>332.17</course>
  <speed>0.02</speed>
  <fix>3d</fix>
</trkpt>
<trkpt lat="-27.2744265" lon="151.2900897">
  <ele>366.23</ele>
  <time>2026-09-01T19:56:07Z</time>
  <course>336.31</course>
  <speed>0.02</speed>
  <fix>3d</fix>
</trkpt>
<trkpt lat="-27.2744264" lon="151.2900894">
  <ele>366.85</ele>
  <time>2026-09-01T19:56:07Z</time>
  <course>332.17</course>
  <speed>0.02</speed>
  <fix>3d</fix>
</trkpt>
<trkpt lat="-27.2744265" lon="151.2900897">
  <ele>366.08</ele>
  <time>2026-09-01T19:56:08Z</time>
  <course>336.31</course>
  <speed>0.022360679774997897</speed>
  <fix>3d</fix>
</trkpt>
<trkpt lat="-27.2744264" lon="151.2900894">
  <ele>366.55</ele>
  <time>2026-09-01T19:56:08Z</time>
  <course>323.1</course>
  <speed>0.01</speed>
  <fix>3d</fix>
</trkpt>
<trkpt lat="-27.2744265" lon="151.2900897">
  <ele>365.93</ele>
  <time>2026-09-01T19:56:08Z</time>
  <course>336.31</course>
  <speed>0.022360679774997897</speed>
  <fix>3d</fix>
</trkpt>
<trkpt lat="-27.2744264" lon="151.2900894">
  <ele>366.55</ele>
  <time>2026-09-01T19:56:08Z</time>
  <course>323.1</course>
  <speed>0.01</speed>
  <fix>3d</fix>
</trkpt>
<trkpt lat="-27.2744265" lon="151.2900897">
  <ele>365.78</ele>
  <time>2026-09-01T19:56:08Z</time>
  <course>336.29</course>
  <speed>0.0282842712474619</speed>
  <fix>3d</fix>
</trkpt>
<trkpt lat="-27.2744264" lon="151.2900894">
  <ele>366.25</ele>
  <time>2026-09-01T19:56:08Z</time>
  <course>298.12</course>
  <speed>0.0</speed>
  <fix>3d</fix>
</trkpt>
<trkpt lat="-27.2744265" lon="151.2900897">
  <ele>365.63</ele>
  <time>2026-09-01T19:56:08Z</time>
  <course>336.26</course>
  <speed>0.0282842712474619</speed>
  <fix>3d</fix>
</trkpt>
<trkpt lat="-27.2744264" lon="151.2900894">
  <ele>366.25</ele>
  <time>2026-09-01T19:56:08Z</time>
  <course>298.12</course>
  <speed>0.0</speed>
  <fix>3d</fix>
</trkpt>
<trkpt lat="-27.2744265" lon="151.2900897">
  <ele>365.48</ele>
  <time>2026-09-01T19:56:08Z</time>
  <course>336.24</course>
  <speed>0.0282842712474619</speed>
  <fix>3d</fix>
</trkpt>
<trkpt lat="-27.2744264" lon="151.2900894">
  <ele>365.96</ele>
  <time>2026-09-01T19:56:08Z</time>
  <course>179.93</course>
  <speed>0.0</speed>
  <fix>3d</fix>
</trkpt>
<trkpt lat="-27.2744265" lon="151.2900897">
  <ele>365.33</ele>
  <time>2026-09-01T19:56:08Z</time>
  <course>336.23</course>
  <speed>0.04242640687119285</speed>
  <fix>3d</fix>
</trkpt>
<trkpt lat="-27.2744264" lon="151.2900894">
  <ele>365.96</ele>
  <time>2026-09-01T19:56:08Z</time>
  <course>179.93</course>
  <speed>0.0</speed>
  <fix>3d</fix>
</trkpt>
<trkpt lat="-27.2744265" lon="151.2900897">
  <ele>365.18</ele>
  <time>2026-09-01T19:56:08Z</time>
  <course>336.24</course>
  <speed>0.03605551275463989</speed>
  <fix>3d</fix>
</trkpt>
<trkpt lat="-27.2744264" lon="151.2900894">
  <ele>365.66</ele>
  <time>2026-09-01T19:56:08Z</time>
  <course>167.55</course>
  <speed>0.01</speed>
  <fix>3d</fix>
</trkpt>
<trkpt lat="-27.2744265" lon="151.2900897">
  <ele>365.03</ele>
  <time>2026-09-01T19:56:08Z</time>
  <course>336.26</course>
  <speed>0.04242640687119285</speed>
  <fix>3d</fix>
</trkpt>
<trkpt lat="-27.2744264" lon="151.2900894">
  <ele>365.66</ele>
  <time>2026-09-01T19:56:08Z</time>
  <course>167.55</course>
  <speed>0.01</speed>
  <fix>3d</fix>
</trkpt>
<trkpt lat="-27.2744265" lon="151.2900897">
  <ele>364.88</ele>
  <time>2026-09-01T19:56:08Z</time>
  <course>336.27</course>
  <speed>0.04242640687119285</speed>
  <fix>3d</fix>
</trkpt>
<trkpt lat="-27.2744264" lon="151.2900894">
  <ele>365.36</ele>
  <time>2026-09-01T19:56:08Z</time>
  <course>164.81</course>
  <speed>0.01</speed>
  <fix>3d</fix>
</trkpt>
<trkpt lat="-27.2744265" lon="151.2900897">
  <ele>364.73</ele>
  <time>2026-09-01T19:56:08Z</time>
  <course>336.29</course>
  <speed>0.05</speed>
  <fix>3d</fix>
</trkpt>
<trkpt lat="-27.2744264" lon="151.2900894">
  <ele>365.36</ele>
  <time>2026-09-01T19:56:08Z</time>
  <course>164.81</course>
  <speed>0.01</speed>
  <fix>3d</fix>
</trkpt>
<trkpt lat="-27.2744266" lon="151.2900897">
  <ele>364.58</ele>
  <time>2026-09-01T19:56:08Z</time>
  <course>336.31</course>
  <speed>0.05</speed>
  <fix>3d</fix>
</trkpt>
<trkpt lat="-27.2744264" lon="151.2900894">
  <ele>365.06</ele>
  <time>2026-09-01T19:56:08Z</time>
  <course>163.76</course>
  <speed>0.02</speed>
  <fix>3d</fix>
</trkpt>
<trkpt lat="-27.2744266" lon="151.2900897">
  <ele>364.43</ele>
  <time>2026-09-01T19:56:08Z</time>
  <course>336.32</course>
  <speed>0.05</speed>
  <fix>3d</fix>
</trkpt>
<trkpt lat="-27.2744264" lon="151.2900894">
  <ele>365.06</ele>
  <time>2026-09-01T19:56:08Z</time>
  <course>163.76</course>
  <speed>0.02</speed>
  <fix>3d</fix>
</trkpt>
<trkpt lat="-27.2744266" lon="151.2900897">
  <ele>364.29</ele>
  <time>2026-09-01T19:56:08Z</time>
  <course>336.33</course>
  <speed>0.05</speed>
  <fix>3d</fix>
</trkpt>
<trkpt lat="-27.2744264" lon="151.2900894">
  <ele>364.77</ele>
  <time>2026-09-01T19:56:08Z</time>
  <course>163.1</course>
  <speed>0.02</speed>
  <fix>3d</fix>
</trkpt>
<trkpt lat="-27.2744266" lon="151.2900897">
  <ele>364.14</ele>
  <time>2026-09-01T19:56:08Z</time>
  <course>336.33</course>
  <speed>0.05</speed>
  <fix>3d</fix>
</trkpt>
<trkpt lat="-27.2744264" lon="151.2900894">
  <ele>364.77</ele>
  <time>2026-09-01T19:56:08Z</time>
  <course>163.1</course>
  <speed>0.02</speed>
  <fix>3d</fix>
</trkpt>
<trkpt lat="-27.2744267" lon="151.2900897">
  <ele>363.98</ele>
  <time>2026-09-01T19:56:08Z</time>
  <course>336.32</course>
  <speed>0.05</speed>
  <fix>3d</fix>
</trkpt>
<trkpt lat="-27.2744264" lon="151.2900894">
  <ele>364.47</ele>
  <time>2026-09-01T19:56:08Z</time>
  <course>161.65</course>
  <speed>0.03</speed>
  <fix>3d</fix>
</trkpt>
<trkpt lat="-27.2744267" lon="151.2900897">
  <ele>363.83</ele>
  <time>2026-09-01T19:56:08Z</time>
  <course>336.31</course>
  <speed>0.05</speed>
  <fix>3d</fix>
</trkpt>
<trkpt lat="-27.2744264" lon="151.2900894">
  <ele>364.47</ele>
  <time>2026-09-01T19:56:08Z</time>
  <course>161.65</course>
  <speed>0.03</speed>
  <fix>3d</fix>
</trkpt>
<trkpt lat="-27.2744267" lon="151.2900897">
  <ele>363.68</ele>
  <time>2026-09-01T19:56:08Z</time>
  <course>336.29</course>
  <speed>0.05</speed>
  <fix>3d</fix>
</trkpt>
<trkpt lat="-27.2744265" lon="151.2900894">
  <ele>364.16</ele>
  <time>2026-09-01T19:56:08Z</time>
  <course>160.98</course>
  <speed>0.03</speed>
  <fix>3d</fix>
</trkpt>
<trkpt lat="-27.2744267" lon="151.2900897">
  <ele>363.53</ele>
  <time>2026-09-01T19:56:08Z</time>
  <course>336.27</course>
  <speed>0.05</speed>
  <fix>3d</fix>
</trkpt>
<trkpt lat="-27.2744265" lon="151.2900894">
  <ele>364.16</ele>
  <time>2026-09-01T19:56:08Z</time>
  <course>160.98</course>
  <speed>0.03</speed>
  <fix>3d</fix>
</trkpt>
<trkpt lat="-27.2744267" lon="151.2900897">
  <ele>363.38</ele>
  <time>2026-09-01T19:56:08Z</time>
  <course>336.26</course>
  <speed>0.05830951894845301</speed>
  <fix>3d</fix>
</trkpt>
<trkpt lat="-27.2744265" lon="151.2900894">
  <ele>363.87</ele>
  <time>2026-09-01T19:56:08Z</time>
  <course>160.47</course>
  <speed>0.03</speed>
  <fix>3d</fix>
</trkpt>
<trkpt lat="-27.2744268" lon="151.2900897">
  <ele>363.23</ele>
  <time>2026-09-01T19:56:08Z</time>
  <course>336.28</course>
  <speed>0.05830951894845301</speed>
  <fix>3d</fix>
</trkpt>
<trkpt lat="-27.2744265" lon="151.2900894">
  <ele>363.87</ele>
  <time>2026-09-01T19:56:08Z</time>
  <course>160.47</course>
  <speed>0.03</speed>
  <fix>3d</fix>
</trkpt>
<trkpt lat="-27.2744268" lon="151.2900897">
  <ele>363.08</ele>
  <time>2026-09-01T19:56:08Z</time>
  <course>336.31</course>
  <speed>0.05830951894845301</speed>
  <fix>3d</fix>
</trkpt>
<trkpt lat="-27.2744266" lon="151.2900894">
  <ele>363.57</ele>
  <time>2026-09-01T19:56:08Z</time>
  <course>161.25</course>
  <speed>0.04</speed>
  <fix>3d</fix>
</trkpt>
<trkpt lat="-27.2744268" lon="151.2900897">
  <ele>362.93</ele>
  <time>2026-09-01T19:56:08Z</time>
  <course>336.34</course>
  <speed>0.05830951894845301</speed>
  <fix>3d</fix>
</trkpt>
<trkpt lat="-27.2744266" lon="151.2900894">
  <ele>363.57</ele>
  <time>2026-09-01T19:56:08Z</time>
  <course>161.25</course>
  <speed>0.04</speed>
  <fix>3d</fix>
</trkpt>
<trkpt lat="-27.2744269" lon="151.2900897">
  <ele>362.78</ele>
  <time>2026-09-01T19:56:08Z</time>
  <course>336.37</course>
  <speed>0.05830951894845301</speed>
  <fix>3d</fix>
</trkpt>
<trkpt lat="-27.2744267" lon="151.2900895">
  <ele>363.27</ele>
  <time>2026-09-01T19:56:08Z</time>
  <course>162.41</course>
  <speed>0.04</speed>
  <fix>3d</fix>
</trkpt>
<trkpt lat="-27.2744269" lon="151.2900897">
  <ele>362.63</ele>
  <time>2026-09-01T19:56:08Z</time>
  <course>336.4</course>
  <speed>0.05830951894845301</speed>
  <fix>3d</fix>
</trkpt>
<trkpt lat="-27.2744267" lon="151.2900895">
  <ele>363.27</ele>
  <time>2026-09-01T19:56:08Z</time>
  <course>162.41</course>
  <speed>0.04</speed>
  <fix>3d</fix>
</trkpt>
<trkpt lat="-27.2744269" lon="151.2900897">
  <ele>362.48</ele>
  <time>2026-09-01T19:56:08Z</time>
  <course>336.42</course>
  <speed>0.05830951894845301</speed>
  <fix>3d</fix>
</trkpt>
<trkpt lat="-27.2744267" lon="151.2900895">
  <ele>362.97</ele>
  <time>2026-09-01T19:56:08Z</time>
  <course>162.36</course>
  <speed>0.04</speed>
  <fix>3d</fix>
</trkpt>
<trkpt lat="-27.2744269" lon="151.2900897">
  <ele>362.33</ele>
  <time>2026-09-01T19:56:08Z</time>
  <course>336.44</course>
  <speed>0.06403124237432849</speed>
  <fix>3d</fix>
</trkpt>
<trkpt lat="-27.2744267" lon="151.2900895">
  <ele>362.97</ele>
  <time>2026-09-01T19:56:08Z</time>
  <course>162.36</course>
  <speed>0.04</speed>
  <fix>3d</fix>
</trkpt>
<trkpt lat="-27.274427" lon="151.2900897">
  <ele>362.18</ele>
  <time>2026-09-01T19:56:08Z</time>
  <course>336.44</course>
  <speed>0.05830951894845301</speed>
  <fix>3d</fix>
</trkpt>
<trkpt lat="-27.2744268" lon="151.2900895">
  <ele>362.68</ele>
  <time>2026-09-01T19:56:08Z</time>
  <course>162.13</course>
  <speed>0.04</speed>
  <fix>3d</fix>
</trkpt>
<trkpt lat="-27.274427" lon="151.2900898">
  <ele>362.03</ele>
  <time>2026-09-01T19:56:08Z</time>
  <course>336.43</course>
  <speed>0.06403124237432849</speed>
  <fix>3d</fix>
</trkpt>
<trkpt lat="-27.2744268" lon="151.2900895">
  <ele>362.68</ele>
  <time>2026-09-01T19:56:08Z</time>
  <course>162.13</course>
  <speed>0.04</speed>
  <fix>3d</fix>
</trkpt>
<trkpt lat="-27.274427" lon="151.2900898">
  <ele>361.88</ele>
  <time>2026-09-01T19:56:08Z</time>
  <course>336.4</course>
  <speed>0.05830951894845301</speed>
  <fix>3d</fix>
</trkpt>
<trkpt lat="-27.2744269" lon="151.2900895">
  <ele>362.38</ele>
  <time>2026-09-01T19:56:08Z</time>
  <course>161.58</course>
  <speed>0.04</speed>
  <fix>3d</fix>
</trkpt>
<trkpt lat="-27.2744271" lon="151.2900898">
  <ele>361.73</ele>
  <time>2026-09-01T19:56:08Z</time>
  <course>336.38</course>
  <speed>0.05830951894845301</speed>
  <fix>3d</fix>
</trkpt>
<trkpt lat="-27.2744269" lon="151.2900895">
  <ele>362.38</ele>
  <time>2026-09-01T19:56:08Z</time>
  <course>161.58</course>
  <speed>0.04</speed>
  <fix>3d</fix>
</trkpt>
<trkpt lat="-27.2744271" lon="151.2900898">
  <ele>361.58</ele>
  <time>2026-09-01T19:56:08Z</time>
  <course>336.38</course>
  <speed>0.05830951894845301</speed>
  <fix>3d</fix>
</trkpt>
<trkpt lat="-27.274427" lon="151.2900895">
  <ele>362.08</ele>
  <time>2026-09-01T19:56:08Z</time>
  <course>161.67</course>
  <speed>0.04</speed>
  <fix>3d</fix>
</trkpt>
<trkpt lat="-27.2744272" lon="151.2900898">
  <ele>361.44</ele>
  <time>2026-09-01T19:56:08Z</time>
  <course>336.38</course>
  <speed>0.06403124237432849</speed>
  <fix>3d</fix>
</trkpt>
<trkpt lat="-27.274427" lon="151.2900895">
  <ele>362.08</ele>
  <time>2026-09-01T19:56:08Z</time>
  <course>161.67</course>
  <speed>0.04</speed>
  <fix>3d</fix>
</trkpt>
<trkpt lat="-27.2744272" lon="151.2900898">
  <ele>361.29</ele>
  <time>2026-09-01T19:56:08Z</time>
  <course>336.4</course>
  <speed>0.06403124237432849</speed>
  <fix>3d</fix>
</trkpt>
<trkpt lat="-27.2744271" lon="151.2900895">
  <ele>361.78</ele>
  <time>2026-09-01T19:56:08Z</time>
  <course>162.49</course>
  <speed>0.05</speed>
  <fix>3d</fix>
</trkpt>
<trkpt lat="-27.2744272" lon="151.2900898">
  <ele>361.14</ele>
  <time>2026-09-01T19:56:08Z</time>
  <course>336.42</course>
  <speed>0.05830951894845301</speed>
  <fix>3d</fix>
</trkpt>
<trkpt lat="-27.2744271" lon="151.2900895">
  <ele>361.78</ele>
  <time>2026-09-01T19:56:08Z</time>
  <course>162.49</course>
  <speed>0.05</speed>
  <fix>3d</fix>
</trkpt>
<trkpt lat="-27.2744273" lon="151.2900898">
  <ele>360.99</ele>
  <time>2026-09-01T19:56:08Z</time>
  <course>336.44</course>
  <speed>0.06403124237432849</speed>
  <fix>3d</fix>
</trkpt>
<trkpt lat="-27.2744272" lon="151.2900896">
  <ele>361.47</ele>
  <time>2026-09-01T19:56:08Z</time>
  <course>163.07</course>
  <speed>0.05</speed>
  <fix>3d</fix>
</trkpt>
<trkpt lat="-27.2744273" lon="151.2900898">
  <ele>360.84</ele>
  <time>2026-09-01T19:56:08Z</time>
  <course>336.45</course>
  <speed>0.06403124237432849</speed>
  <fix>3d</fix>
</trkpt>
<trkpt lat="-27.2744272" lon="151.2900896">
  <ele>361.47</ele>
  <time>2026-09-01T19:56:08Z</time>
  <course>163.07</course>
  <speed>0.05</speed>
  <fix>3d</fix>
</trkpt>
<trkpt lat="-27.2744273" lon="151.2900898">
  <ele>360.69</ele>
  <time>2026-09-01T19:56:08Z</time>
  <course>336.45</course>
  <speed>0.05830951894845301</speed>
  <fix>3d</fix>
</trkpt>
<trkpt lat="-27.2744272" lon="151.2900896">
  <ele>361.18</ele>
  <time>2026-09-01T19:56:08Z</time>
  <course>163.21</course>
  <speed>0.05</speed>
  <fix>3d</fix>
</trkpt>
<trkpt lat="-27.2744274" lon="151.2900899">
  <ele>360.53</ele>
  <time>2026-09-01T19:56:08Z</time>
  <course>336.45</course>
  <speed>0.05830951894845301</speed>
  <fix>3d</fix>
</trkpt>
<trkpt lat="-27.2744272" lon="151.2900896">
  <ele>361.18</ele>
  <time>2026-09-01T19:56:08Z</time>
  <course>163.21</course>
  <speed>0.05</speed>
  <fix>3d</fix>
</trkpt>
<trkpt lat="-27.2744274" lon="151.2900899">
  <ele>360.38</ele>
  <time>2026-09-01T19:56:08Z</time>
  <course>336.44</course>
  <speed>0.05830951894845301</speed>
  <fix>3d</fix>
</trkpt>
<trkpt lat="-27.2744273" lon="151.2900896">
  <ele>360.88</ele>
  <time>2026-09-01T19:56:08Z</time>
  <course>163.31</course>
  <speed>0.04</speed>
  <fix>3d</fix>
</trkpt>
<trkpt lat="-27.2744275" lon="151.2900899">
  <ele>360.23</ele>
  <time>2026-09-01T19:56:08Z</time>
  <course>336.45</course>
  <speed>0.05830951894845301</speed>
  <fix>3d</fix>
</trkpt>
<trkpt lat="-27.2744273" lon="151.2900896">
  <ele>360.88</ele>
  <time>2026-09-01T19:56:08Z</time>
  <course>163.31</course>
  <speed>0.04</speed>
  <fix>3d</fix>
</trkpt>
<trkpt lat="-27.2744275" lon="151.2900899">
  <ele>360.08</ele>
  <time>2026-09-01T19:56:08Z</time>
  <course>336.47</course>
  <speed>0.05830951894845301</speed>
  <fix>3d</fix>
</trkpt>
<trkpt lat="-27.2744274" lon="151.2900896">
  <ele>360.58</ele>
  <time>2026-09-01T19:56:08Z</time>
  <course>164.49</course>
  <speed>0.04</speed>
  <fix>3d</fix>
</trkpt>
<trkpt lat="-27.2744275" lon="151.2900899">
  <ele>359.93</ele>
  <time>2026-09-01T19:56:08Z</time>
  <course>336.51</course>
  <speed>0.044721359549995794</speed>
  <fix>3d</fix>
</trkpt>
<trkpt lat="-27.2744274" lon="151.2900896">
  <ele>360.58</ele>
  <time>2026-09-01T19:56:08Z</time>
  <course>164.49</course>
  <speed>0.04</speed>
  <fix>3d</fix>
</trkpt>
<trkpt lat="-27.2744276" lon="151.2900899">
  <ele>359.78</ele>
  <time>2026-09-01T19:56:08Z</time>
  <course>336.55</course>
  <speed>0.05</speed>
  <fix>3d</fix>
</trkpt>
<trkpt lat="-27.2744275" lon="151.2900897">
  <ele>360.28</ele>
  <time>2026-09-01T19:56:08Z</time>
  <course>166.4</course>
  <speed>0.04</speed>
  <fix>3d</fix>
</trkpt>
<trkpt lat="-27.2744276" lon="151.2900899">
  <ele>359.63</ele>
  <time>2026-09-01T19:56:08Z</time>
  <course>336.59</course>
  <speed>0.05</speed>
  <fix>3d</fix>
</trkpt>
<trkpt lat="-27.2744275" lon="151.2900897">
  <ele>360.28</ele>
  <time>2026-09-01T19:56:08Z</time>
  <course>166.4</course>
  <speed>0.04</speed>
  <fix>3d</fix>
</trkpt>
<trkpt lat="-27.2744276" lon="151.2900899">
  <ele>359.48</ele>
  <time>2026-09-01T19:56:08Z</time>
  <course>336.61</course>
  <speed>0.05</speed>
  <fix>3d</fix>
</trkpt>
<trkpt lat="-27.2744276" lon="151.2900898">
  <ele>359.98</ele>
  <time>2026-09-01T19:56:08Z</time>
  <course>167.75</course>
  <speed>0.04</speed>
  <fix>3d</fix>
</trkpt>
<trkpt lat="-27.2744277" lon="151.2900899">
  <ele>359.33</ele>
  <time>2026-09-01T19:56:08Z</time>
  <course>336.6</course>
  <speed>0.05</speed>
  <fix>3d</fix>
</trkpt>
<trkpt lat="-27.2744276" lon="151.2900898">
  <ele>359.98</ele>
  <time>2026-09-01T19:56:08Z</time>
  <course>167.75</course>
  <speed>0.04</speed>
  <fix>3d</fix>
</trkpt>
<trkpt lat="-27.2744277" lon="151.2900899">
  <ele>359.18</ele>
  <time>2026-09-01T19:56:08Z</time>
  <course>336.59</course>
  <speed>0.05</speed>
  <fix>3d</fix>
</trkpt>
<trkpt lat="-27.2744277" lon="151.2900898">
  <ele>359.69</ele>
  <time>2026-09-01T19:56:08Z</time>
  <course>168.41</course>
  <speed>0.04</speed>
  <fix>3d</fix>
</trkpt>
<trkpt lat="-27.2744277" lon="151.2900899">
  <ele>359.03</ele>
  <time>2026-09-01T19:56:08Z</time>
  <course>336.58</course>
  <speed>0.05</speed>
  <fix>3d</fix>
</trkpt>
<trkpt lat="-27.2744277" lon="151.2900898">
  <ele>359.69</ele>
  <time>2026-09-01T19:56:08Z</time>
  <course>168.41</course>
  <speed>0.04</speed>
  <fix>3d</fix>
</trkpt>
<trkpt lat="-27.2744278" lon="151.2900899">
  <ele>358.89</ele>
  <time>2026-09-01T19:56:08Z</time>
  <course>336.57</course>
  <speed>0.05</speed>
  <fix>3d</fix>
</trkpt>
<trkpt lat="-27.2744277" lon="151.2900898">
  <ele>359.39</ele>
  <time>2026-09-01T19:56:08Z</time>
  <course>169.17</course>
  <speed>0.03</speed>
  <fix>3d</fix>
</trkpt>
<trkpt lat="-27.2744278" lon="151.2900899">
  <ele>358.74</ele>
  <time>2026-09-01T19:56:08Z</time>
  <course>336.56</course>
  <speed>0.05</speed>
  <fix>3d</fix>
</trkpt>
<trkpt lat="-27.2744277" lon="151.2900898">
  <ele>359.39</ele>
  <time>2026-09-01T19:56:08Z</time>
  <course>169.17</course>
  <speed>0.03</speed>
  <fix>3d</fix>
</trkpt>
<trkpt lat="-27.2744278" lon="151.29009">
  <ele>358.59</ele>
  <time>2026-09-01T19:56:08Z</time>
  <course>336.55</course>
  <speed>0.04242640687119285</speed>
  <fix>3d</fix>
</trkpt>
<trkpt lat="-27.2744278" lon="151.2900898">
  <ele>359.09</ele>
  <time>2026-09-01T19:56:08Z</time>
  <course>170.05</course>
  <speed>0.03</speed>
  <fix>3d</fix>
</trkpt>
<trkpt lat="-27.2744279" lon="151.29009">
  <ele>358.44</ele>
  <time>2026-09-01T19:56:08Z</time>
  <course>336.56</course>
  <speed>0.04242640687119285</speed>
  <fix>3d</fix>
</trkpt>
<trkpt lat="-27.2744278" lon="151.2900898">
  <ele>359.09</ele>
  <time>2026-09-01T19:56:08Z</time>
  <course>170.05</course>
  <speed>0.03</speed>
  <fix>3d</fix>
</trkpt>
<trkpt lat="-27.2744279" lon="151.29009">
  <ele>358.29</ele>
  <time>2026-09-01T19:56:08Z</time>
  <course>336.57</course>
  <speed>0.03605551275463989</speed>
  <fix>3d</fix>
</trkpt>
<trkpt lat="-27.2744279" lon="151.2900898">
  <ele>358.79</ele>
  <time>2026-09-01T19:56:08Z</time>
  <course>171.52</course>
  <speed>0.03</speed>
  <fix>3d</fix>
</trkpt>
<trkpt lat="-27.2744279" lon="151.29009">
  <ele>358.14</ele>
  <time>2026-09-01T19:56:08Z</time>
  <course>336.58</course>
  <speed>0.04242640687119285</speed>
  <fix>3d</fix>
</trkpt>
<trkpt lat="-27.2744279" lon="151.2900898">
  <ele>358.79</ele>
  <time>2026-09-01T19:56:08Z</time>
  <course>171.52</course>
  <speed>0.03</speed>
  <fix>3d</fix>
</trkpt>
<trkpt lat="-27.274428" lon="151.29009">
  <ele>357.99</ele>
  <time>2026-09-01T19:56:08Z</time>
  <course>336.59</course>
  <speed>0.03605551275463989</speed>
  <fix>3d</fix>
</trkpt>
<trkpt lat="-27.2744279" lon="151.2900898">
  <ele>358.49</ele>
  <time>2026-09-01T19:56:08Z</time>
  <course>174.22</course>
  <speed>0.03</speed>
  <fix>3d</fix>
</trkpt>
<trkpt lat="-27.274428" lon="151.29009">
  <ele>357.85</ele>
  <time>2026-09-01T19:56:08Z</time>
  <course>336.61</course>
  <speed>0.03605551275463989</speed>
  <fix>3d</fix>
</trkpt>
<trkpt lat="-27.2744279" lon="151.2900898">
  <ele>358.49</ele>
  <time>2026-09-01T19:56:08Z</time>
  <course>174.22</course>
  <speed>0.03</speed>
  <fix>3d</fix>
</trkpt>
<trkpt lat="-27.274428" lon="151.29009">
  <ele>357.7</ele>
  <time>2026-09-01T19:56:08Z</time>
  <course>336.63</course>
  <speed>0.03605551275463989</speed>
  <fix>3d</fix>
</trkpt>
<trkpt lat="-27.274428" lon="151.2900898">
  <ele>358.19</ele>
  <time>2026-09-01T19:56:08Z</time>
  <course>177.32</course>
  <speed>0.02</speed>
  <fix>3d</fix>
</trkpt>
<trkpt lat="-27.274428" lon="151.29009">
  <ele>357.55</ele>
  <time>2026-09-01T19:56:08Z</time>
  <course>336.65</course>
  <speed>0.03605551275463989</speed>
  <fix>3d</fix>
</trkpt>
<trkpt lat="-27.274428" lon="151.2900898">
  <ele>358.19</ele>
  <time>2026-09-01T19:56:08Z</time>
  <course>177.32</course>
  <speed>0.02</speed>
  <fix>3d</fix>
</trkpt>
<trkpt lat="-27.2744281" lon="151.29009">
  <ele>357.4</ele>
  <time>2026-09-01T19:56:08Z</time>
  <course>336.66</course>
  <speed>0.03605551275463989</speed>
  <fix>3d</fix>
</trkpt>
<trkpt lat="-27.274428" lon="151.2900898">
  <ele>357.89</ele>
  <time>2026-09-01T19:56:08Z</time>
  <course>180.55</course>
  <speed>0.02</speed>
  <fix>3d</fix>
</trkpt>
<trkpt lat="-27.2744281" lon="151.29009">
  <ele>357.25</ele>
  <time>2026-09-01T19:56:08Z</time>
  <course>336.67</course>
  <speed>0.0282842712474619</speed>
  <fix>3d</fix>
</trkpt>
<trkpt lat="-27.274428" lon="151.2900898">
  <ele>357.89</ele>
  <time>2026-09-01T19:56:08Z</time>
  <course>180.55</course>
  <speed>0.02</speed>
  <fix>3d</fix>
</trkpt>
<trkpt lat="-27.2744281" lon="151.29009">
  <ele>357.1</ele>
  <time>2026-09-01T19:56:08Z</time>
  <course>336.67</course>
  <speed>0.0282842712474619</speed>
  <fix>3d</fix>
</trkpt>
<trkpt lat="-27.2744281" lon="151.2900898">
  <ele>357.58</ele>
  <time>2026-09-01T19:56:08Z</time>
  <course>185.17</course>
  <speed>0.02</speed>
  <fix>3d</fix>
</trkpt>
<trkpt lat="-27.2744281" lon="151.29009">
  <ele>356.95</ele>
  <time>2026-09-01T19:56:08Z</time>
  <course>336.68</course>
  <speed>0.0282842712474619</speed>
  <fix>3d</fix>
</trkpt>
<trkpt lat="-27.2744281" lon="151.2900898">
  <ele>357.58</ele>
  <time>2026-09-01T19:56:08Z</time>
  <course>185.17</course>
  <speed>0.02</speed>
  <fix>3d</fix>
</trkpt>
<trkpt lat="-27.2744281" lon="151.29009">
  <ele>356.8</ele>
  <time>2026-09-01T19:56:08Z</time>
  <course>336.7</course>
  <speed>0.022360679774997897</speed>
  <fix>3d</fix>
</trkpt>
<trkpt lat="-27.2744281" lon="151.2900898">
  <ele>357.28</ele>
  <time>2026-09-01T19:56:08Z</time>
  <course>192.17</course>
  <speed>0.02</speed>
  <fix>3d</fix>
</trkpt>
<trkpt lat="-27.2744282" lon="151.29009">
  <ele>356.65</ele>
  <time>2026-09-01T19:56:08Z</time>
  <course>336.72</course>
  <speed>0.022360679774997897</speed>
  <fix>3d</fix>
</trkpt>
<trkpt lat="-27.2744281" lon="151.2900898">
  <ele>357.28</ele>
  <time>2026-09-01T19:56:08Z</time>
  <course>192.17</course>
  <speed>0.02</speed>
  <fix>3d</fix>
</trkpt>
<trkpt lat="-27.2744282" lon="151.29009">
  <ele>356.5</ele>
  <time>2026-09-01T19:56:08Z</time>
  <course>336.74</course>
  <speed>0.022360679774997897</speed>
  <fix>3d</fix>
</trkpt>
<trkpt lat="-27.2744282" lon="151.2900898">
  <ele>356.97</ele>
  <time>2026-09-01T19:56:08Z</time>
  <course>201.02</course>
  <speed>0.01</speed>
  <fix>3d</fix>
</trkpt>
<trkpt lat="-27.2744282" lon="151.2900899">
  <ele>356.35</ele>
  <time>2026-09-01T19:56:08Z</time>
  <course>336.77</course>
  <speed>0.022360679774997897</speed>
  <fix>3d</fix>
</trkpt>
<trkpt lat="-27.2744282" lon="151.2900898">
  <ele>356.97</ele>
  <time>2026-09-01T19:56:08Z</time>
  <course>201.02</course>
  <speed>0.01</speed>
  <fix>3d</fix>
</trkpt>
<trkpt lat="-27.2744282" lon="151.2900899">
  <ele>356.2</ele>
  <time>2026-09-01T19:56:08Z</time>
  <course>336.78</course>
  <speed>0.022360679774997897</speed>
  <fix>3d</fix>
</trkpt>
<trkpt lat="-27.2744282" lon="151.2900898">
  <ele>356.67</ele>
  <time>2026-09-01T19:56:08Z</time>
  <course>208.76</course>
  <speed>0.01</speed>
  <fix>3d</fix>
</trkpt>
<trkpt lat="-27.2744282" lon="151.2900899">
  <ele>356.05</ele>
  <time>2026-09-01T19:56:08Z</time>
  <course>336.81</course>
  <speed>0.022360679774997897</speed>
  <fix>3d</fix>
</trkpt>
<trkpt lat="-27.2744282" lon="151.2900898">
  <ele>356.67</ele>
  <time>2026-09-01T19:56:08Z</time>
  <course>208.76</course>
  <speed>0.01</speed>
  <fix>3d</fix>
</trkpt>
<trkpt lat="-27.2744282" lon="151.2900899">
  <ele>355.9</ele>
  <time>2026-09-01T19:56:08Z</time>
  <course>336.85</course>
  <speed>0.02</speed>
  <fix>3d</fix>
</trkpt>
<trkpt lat="-27.2744282" lon="151.2900898">
  <ele>356.37</ele>
  <time>2026-09-01T19:56:08Z</time>
  <course>217.06</course>
  <speed>0.01</speed>
  <fix>3d</fix>
</trkpt>
<trkpt lat="-27.2744282" lon="151.2900899">
  <ele>355.75</ele>
  <time>2026-09-01T19:56:08Z</time>
  <course>336.88</course>
  <speed>0.02</speed>
  <fix>3d</fix>
</trkpt>
<trkpt lat="-27.2744282" lon="151.2900898">
  <ele>356.37</ele>
  <time>2026-09-01T19:56:08Z</time>
  <course>217.06</course>
  <speed>0.01</speed>
  <fix>3d</fix>
</trkpt>
<trkpt lat="-27.2744283" lon="151.2900899">
  <ele>355.6</ele>
  <time>2026-09-01T19:56:08Z</time>
  <course>336.92</course>
  <speed>0.01</speed>
  <fix>3d</fix>
</trkpt>
<trkpt lat="-27.2744282" lon="151.2900898">
  <ele>356.06</ele>
  <time>2026-09-01T19:56:08Z</time>
  <course>227.67</course>
  <speed>0.01</speed>
  <fix>3d</fix>
</trkpt>
<trkpt lat="-27.2744283" lon="151.2900899">
  <ele>355.44</ele>
  <time>2026-09-01T19:56:08Z</time>
  <course>336.94</course>
  <speed>0.01</speed>
  <fix>3d</fix>
</trkpt>
<trkpt lat="-27.2744282" lon="151.2900898">
  <ele>356.06</ele>
  <time>2026-09-01T19:56:08Z</time>
  <course>227.67</course>
  <speed>0.01</speed>
  <fix>3d</fix>
</trkpt>
<trkpt lat="-27.2744283" lon="151.2900899">
  <ele>355.29</ele>
  <time>2026-09-01T19:56:08Z</time>
  <course>336.97</course>
  <speed>0.01</speed>
  <fix>3d</fix>
</trkpt>
<trkpt lat="-27.2744283" lon="151.2900898">
  <ele>355.76</ele>
  <time>2026-09-01T19:56:08Z</time>
  <course>237.33</course>
  <speed>0.01</speed>
  <fix>3d</fix>
</trkpt>
<trkpt lat="-27.2744283" lon="151.2900899">
  <ele>355.14</ele>
  <time>2026-09-01T19:56:08Z</time>
  <course>337.0</course>
  <speed>0.01</speed>
  <fix>3d</fix>
</trkpt>
<trkpt lat="-27.2744283" lon="151.2900898">
  <ele>355.76</ele>
  <time>2026-09-01T19:56:08Z</time>
  <course>237.33</course>
  <speed>0.01</speed>
  <fix>3d</fix>
</trkpt>
<trkpt lat="-27.2744283" lon="151.2900899">
  <ele>354.99</ele>
  <time>2026-09-01T19:56:08Z</time>
  <course>337.04</course>
  <speed>0.01</speed>
  <fix>3d</fix>
</trkpt>
<trkpt lat="-27.2744283" lon="151.2900898">
  <ele>355.45</ele>
  <time>2026-09-01T19:56:08Z</time>
  <course>245.84</course>
  <speed>0.01</speed>
  <fix>3d</fix>
</trkpt>
<trkpt lat="-27.2744283" lon="151.2900899">
  <ele>354.83</ele>
  <time>2026-09-01T19:56:08Z</time>
  <course>337.07</course>
  <speed>0.01</speed>
  <fix>3d</fix>
</trkpt>
<trkpt lat="-27.2744283" lon="151.2900898">
  <ele>355.45</ele>
  <time>2026-09-01T19:56:08Z</time>
  <course>245.84</course>
  <speed>0.01</speed>
  <fix>3d</fix>
</trkpt>
<trkpt lat="-27.2744283" lon="151.2900899">
  <ele>354.68</ele>
  <time>2026-09-01T19:56:08Z</time>
  <course>337.09</course>
  <speed>0.01</speed>
  <fix>3d</fix>
</trkpt>
<trkpt lat="-27.2744283" lon="151.2900898">
  <ele>355.15</ele>
  <time>2026-09-01T19:56:08Z</time>
  <course>253.17</course>
  <speed>0.01</speed>
  <fix>3d</fix>
</trkpt>
<trkpt lat="-27.2744283" lon="151.2900899">
  <ele>354.53</ele>
  <time>2026-09-01T19:56:08Z</time>
  <course>337.1</course>
  <speed>0.01</speed>
  <fix>3d</fix>
</trkpt>
<trkpt lat="-27.2744283" lon="151.2900898">
  <ele>355.15</ele>
  <time>2026-09-01T19:56:08Z</time>
  <course>253.17</course>
  <speed>0.01</speed>
  <fix>3d</fix>
</trkpt>
<trkpt lat="-27.2744283" lon="151.2900899">
  <ele>354.38</ele>
  <time>2026-09-01T19:56:08Z</time>
  <course>337.11</course>
  <speed>0.01</speed>
  <fix>3d</fix>
</trkpt>
<trkpt lat="-27.2744283" lon="151.2900897">
  <ele>354.85</ele>
  <time>2026-09-01T19:56:08Z</time>
  <course>258.76</course>
  <speed>0.01</speed>
  <fix>3d</fix>
</trkpt>
<trkpt lat="-27.2744283" lon="151.2900899">
  <ele>354.23</ele>
  <time>2026-09-01T19:56:08Z</time>
  <course>337.12</course>
  <speed>0.01</speed>
  <fix>3d</fix>
</trkpt>
<trkpt lat="-27.2744283" lon="151.2900897">
  <ele>354.85</ele>
  <time>2026-09-01T19:56:08Z</time>
  <course>258.76</course>
  <speed>0.01</speed>
  <fix>3d</fix>
</trkpt>
<trkpt lat="-27.2744283" lon="151.2900899">
  <ele>354.09</ele>
  <time>2026-09-01T19:56:08Z</time>
  <course>337.13</course>
  <speed>0.01</speed>
  <fix>3d</fix>
</trkpt>
<trkpt lat="-27.2744283" lon="151.2900896">
  <ele>354.55</ele>
  <time>2026-09-01T19:56:08Z</time>
  <course>262.38</course>
  <speed>0.02</speed>
  <fix>3d</fix>
</trkpt>
<trkpt lat="-27.2744283" lon="151.2900899">
  <ele>353.94</ele>
  <time>2026-09-01T19:56:08Z</time>
  <course>337.13</course>
  <speed>0.01414213562373095</speed>
  <fix>3d</fix>
</trkpt>
<trkpt lat="-27.2744283" lon="151.2900896">
  <ele>354.55</ele>
  <time>2026-09-01T19:56:08Z</time>
  <course>262.38</course>
  <speed>0.02</speed>
  <fix>3d</fix>
</trkpt>
<trkpt lat="-27.2744283" lon="151.2900898">
  <ele>353.8</ele>
  <time>2026-09-01T19:56:08Z</time>
  <course>337.13</course>
  <speed>0.01</speed>
  <fix>3d</fix>
</trkpt>
<trkpt lat="-27.2744283" lon="151.2900896">
  <ele>354.25</ele>
  <time>2026-09-01T19:56:08Z</time>
  <course>264.72</course>
  <speed>0.02</speed>
  <fix>3d</fix>
</trkpt>
<trkpt lat="-27.2744283" lon="151.2900898">
  <ele>353.66</ele>
  <time>2026-09-01T19:56:08Z</time>
  <course>337.14</course>
  <speed>0.01</speed>
  <fix>3d</fix>
</trkpt>
<trkpt lat="-27.2744283" lon="151.2900896">
  <ele>354.25</ele>
  <time>2026-09-01T19:56:08Z</time>
  <course>264.72</course>
  <speed>0.02</speed>
  <fix>3d</fix>
</trkpt>
<trkpt lat="-27.2744283" lon="151.2900898">
  <ele>353.52</ele>
  <time>2026-09-01T19:56:08Z</time>
  <course>337.14</course>
  <speed>0.01</speed>
  <fix>3d</fix>
</trkpt>
<trkpt lat="-27.2744283" lon="151.2900895">
  <ele>353.96</ele>
  <time>2026-09-01T19:56:08Z</time>
  <course>266.01</course>
  <speed>0.02</speed>
  <fix>3d</fix>
</trkpt>
<trkpt lat="-27.2744283" lon="151.2900898">
  <ele>353.38</ele>
  <time>2026-09-01T19:56:08Z</time>
  <course>337.15</course>
  <speed>0.01</speed>
  <fix>3d</fix>
</trkpt>
<trkpt lat="-27.2744283" lon="151.2900895">
  <ele>353.96</ele>
  <time>2026-09-01T19:56:08Z</time>
  <course>266.01</course>
  <speed>0.02</speed>
  <fix>3d</fix>
</trkpt>
<trkpt lat="-27.2744283" lon="151.2900898">
  <ele>353.25</ele>
  <time>2026-09-01T19:56:08Z</time>
  <course>337.16</course>
  <speed>0.01</speed>
  <fix>3d</fix>
</trkpt>
<trkpt lat="-27.2744283" lon="151.2900895">
  <ele>353.68</ele>
  <time>2026-09-01T19:56:08Z</time>
  <course>265.23</course>
  <speed>0.02</speed>
  <fix>3d</fix>
</trkpt>
<trkpt lat="-27.2744283" lon="151.2900898">
  <ele>353.12</ele>
  <time>2026-09-01T19:56:08Z</time>
  <course>337.18</course>
  <speed>0.01</speed>
  <fix>3d</fix>
</trkpt>
<trkpt lat="-27.2744283" lon="151.2900895">
  <ele>353.68</ele>
  <time>2026-09-01T19:56:08Z</time>
  <course>265.23</course>
  <speed>0.02</speed>
  <fix>3d</fix>
</trkpt>
<trkpt lat="-27.2744283" lon="151.2900897">
  <ele>352.99</ele>
  <time>2026-09-01T19:56:08Z</time>
  <course>337.2</course>
  <speed>0.01</speed>
  <fix>3d</fix>
</trkpt>
<trkpt lat="-27.2744283" lon="151.2900895">
  <ele>353.4</ele>
  <time>2026-09-01T19:56:08Z</time>
  <course>262.16</course>
  <speed>0.02</speed>
  <fix>3d</fix>
</trkpt>
<trkpt lat="-27.2744284" lon="151.2900897">
  <ele>352.86</ele>
  <time>2026-09-01T19:56:08Z</time>
  <course>337.23</course>
  <speed>0.01</speed>
  <fix>3d</fix>
</trkpt>
<trkpt lat="-27.2744283" lon="151.2900895">
  <ele>353.4</ele>
  <time>2026-09-01T19:56:08Z</time>
  <course>262.16</course>
  <speed>0.02</speed>
  <fix>3d</fix>
</trkpt>
<trkpt lat="-27.2744284" lon="151.2900897">
  <ele>352.74</ele>
  <time>2026-09-01T19:56:08Z</time>
  <course>337.25</course>
  <speed>0.01</speed>
  <fix>3d</fix>
</trkpt>
<trkpt lat="-27.2744283" lon="151.2900895">
  <ele>353.14</ele>
  <time>2026-09-01T19:56:08Z</time>
  <course>257.27</course>
  <speed>0.02</speed>
  <fix>3d</fix>
</trkpt>
<trkpt lat="-27.2744284" lon="151.2900897">
  <ele>352.61</ele>
  <time>2026-09-01T19:56:08Z</time>
  <course>337.28</course>
  <speed>0.01</speed>
  <fix>3d</fix>
</trkpt>
<trkpt lat="-27.2744283" lon="151.2900895">
  <ele>353.14</ele>
  <time>2026-09-01T19:56:08Z</time>
  <course>257.27</course>
  <speed>0.02</speed>
  <fix>3d</fix>
</trkpt>
<trkpt lat="-27.2744284" lon="151.2900897">
  <ele>352.49</ele>
  <time>2026-09-01T19:56:08Z</time>
  <course>337.31</course>
  <speed>0.02</speed>
  <fix>3d</fix>
</trkpt>
<trkpt lat="-27.2744283" lon="151.2900894">
  <ele>352.88</ele>
  <time>2026-09-01T19:56:08Z</time>
  <course>250.81</course>
  <speed>0.01</speed>
  <fix>3d</fix>
</trkpt>
<trkpt lat="-27.2744284" lon="151.2900896">
  <ele>352.37</ele>
  <time>2026-09-01T19:56:08Z</time>
  <course>337.33</course>
  <speed>0.02</speed>
  <fix>3d</fix>
</trkpt>
<trkpt lat="-27.2744283" lon="151.2900894">
  <ele>352.88</ele>
  <time>2026-09-01T19:56:08Z</time>
  <course>250.81</course>
  <speed>0.01</speed>
  <fix>3d</fix>
</trkpt>
<trkpt lat="-27.2744284" lon="151.2900896">
  <ele>352.26</ele>
  <time>2026-09-01T19:56:08Z</time>
  <course>337.36</course>
  <speed>0.02</speed>
  <fix>3d</fix>
</trkpt>
<trkpt lat="-27.2744283" lon="151.2900894">
  <ele>352.64</ele>
  <time>2026-09-01T19:56:08Z</time>
  <course>243.83</course>
  <speed>0.02</speed>
  <fix>3d</fix>
</trkpt>
<trkpt lat="-27.2744284" lon="151.2900896">
  <ele>352.15</ele>
  <time>2026-09-01T19:56:08Z</time>
  <course>337.39</course>
  <speed>0.02</speed>
  <fix>3d</fix>
</trkpt>
<trkpt lat="-27.2744283" lon="151.2900894">
  <ele>352.64</ele>
  <time>2026-09-01T19:56:08Z</time>
  <course>243.83</course>
  <speed>0.02</speed>
  <fix>3d</fix>
</trkpt>
<trkpt lat="-27.2744284" lon="151.2900896">
  <ele>352.04</ele>
  <time>2026-09-01T19:56:08Z</time>
  <course>337.43</course>
  <speed>0.02</speed>
  <fix>3d</fix>
</trkpt>
<trkpt lat="-27.2744284" lon="151.2900894">
  <ele>352.4</ele>
  <time>2026-09-01T19:56:08Z</time>
  <course>237.66</course>
  <speed>0.02</speed>
  <fix>3d</fix>
</trkpt>
<trkpt lat="-27.2744284" lon="151.2900896">
  <ele>351.93</ele>
  <time>2026-09-01T19:56:08Z</time>
  <course>337.47</course>
  <speed>0.02</speed>
  <fix>3d</fix>
</trkpt>
<trkpt lat="-27.2744284" lon="151.2900894">
  <ele>352.4</ele>
  <time>2026-09-01T19:56:08Z</time>
  <course>237.66</course>
  <speed>0.02</speed>
  <fix>3d</fix>
</trkpt>
<trkpt lat="-27.2744284" lon="151.2900895">
  <ele>351.83</ele>
  <time>2026-09-01T19:56:08Z</time>
  <course>337.5</course>
  <speed>0.02</speed>
  <fix>3d</fix>
</trkpt>
<trkpt lat="-27.2744284" lon="151.2900893">
  <ele>352.18</ele>
  <time>2026-09-01T19:56:08Z</time>
  <course>232.85</course>
  <speed>0.02</speed>
  <fix>3d</fix>
</trkpt>
<trkpt lat="-27.2744285" lon="151.2900895">
  <ele>351.72</ele>
  <time>2026-09-01T19:56:08Z</time>
  <course>337.53</course>
  <speed>0.02</speed>
  <fix>3d</fix>
</trkpt>
<trkpt lat="-27.2744284" lon="151.2900893">
  <ele>352.18</ele>
  <time>2026-09-01T19:56:08Z</time>
  <course>232.85</course>
  <speed>0.02</speed>
  <fix>3d</fix>
</trkpt>
<trkpt lat="-27.2744285" lon="151.2900895">
  <ele>351.62</ele>
  <time>2026-09-01T19:56:08Z</time>
  <course>337.53</course>
  <speed>0.02</speed>
  <fix>3d</fix>
</trkpt>
<trkpt lat="-27.2744284" lon="151.2900893">
  <ele>351.96</ele>
  <time>2026-09-01T19:56:08Z</time>
  <course>228.35</course>
  <speed>0.02</speed>
  <fix>3d</fix>
</trkpt>
<trkpt lat="-27.2744285" lon="151.2900895">
  <ele>351.52</ele>
  <time>2026-09-01T19:56:08Z</time>
  <course>337.5</course>
  <speed>0.02</speed>
  <fix>3d</fix>
</trkpt>
<trkpt lat="-27.2744284" lon="151.2900893">
  <ele>351.96</ele>
  <time>2026-09-01T19:56:08Z</time>
  <course>228.35</course>
  <speed>0.02</speed>
  <fix>3d</fix>
</trkpt>
<trkpt lat="-27.2744285" lon="151.2900895">
  <ele>351.42</ele>
  <time>2026-09-01T19:56:08Z</time>
  <course>337.41</course>
  <speed>0.022360679774997897</speed>
  <fix>3d</fix>
</trkpt>
<trkpt lat="-27.2744284" lon="151.2900893">
  <ele>351.75</ele>
  <time>2026-09-01T19:56:08Z</time>
  <course>221.43</course>
  <speed>0.01</speed>
  <fix>3d</fix>
</trkpt>
<trkpt lat="-27.2744285" lon="151.2900895">
  <ele>351.32</ele>
  <time>2026-09-01T19:56:08Z</time>
  <course>337.26</course>
  <speed>0.0282842712474619</speed>
  <fix>3d</fix>
</trkpt>
<trkpt lat="-27.2744284" lon="151.2900893">
  <ele>351.75</ele>
  <time>2026-09-01T19:56:08Z</time>
  <course>221.43</course>
  <speed>0.01</speed>
  <fix>3d</fix>
</trkpt>
<trkpt lat="-27.2744285" lon="151.2900895">
  <ele>351.22</ele>
  <time>2026-09-01T19:56:08Z</time>
  <course>337.05</course>
  <speed>0.0282842712474619</speed>
  <fix>3d</fix>
</trkpt>
<trkpt lat="-27.2744284" lon="151.2900893">
  <ele>351.55</ele>
  <time>2026-09-01T19:56:08Z</time>
  <course>198.25</course>
  <speed>0.01</speed>
  <fix>3d</fix>
</trkpt>
<trkpt lat="-27.2744285" lon="151.2900895">
  <ele>351.12</ele>
  <time>2026-09-01T19:56:08Z</time>
  <course>336.82</course>
  <speed>0.0316227766016838</speed>
  <fix>3d</fix>
</trkpt>
<trkpt lat="-27.2744284" lon="151.2900893">
  <ele>351.55</ele>
  <time>2026-09-01T19:56:08Z</time>
  <course>198.25</course>
  <speed>0.01</speed>
  <fix>3d</fix>
</trkpt>
<trkpt lat="-27.2744285" lon="151.2900895">
  <ele>351.03</ele>
  <time>2026-09-01T19:56:08Z</time>
  <course>336.59</course>
  <speed>0.0412310562561766</speed>
  <fix>3d</fix>
</trkpt>
<trkpt lat="-27.2744285" lon="151.2900893">
  <ele>351.35</ele>
  <time>2026-09-01T19:56:08Z</time>
  <course>122.34</course>
  <speed>0.01</speed>
  <fix>3d</fix>
</trkpt>
<trkpt lat="-27.2744285" lon="151.2900895">
  <ele>350.93</ele>
  <time>2026-09-01T19:56:08Z</time>
  <course>336.38</course>
  <speed>0.05099019513592785</speed>
  <fix>3d</fix>
</trkpt>
<trkpt lat="-27.2744285" lon="151.2900893">
  <ele>351.35</ele>
  <time>2026-09-01T19:56:08Z</time>
  <course>122.34</course>
  <speed>0.01</speed>
  <fix>3d</fix>
</trkpt>
<trkpt lat="-27.2744285" lon="151.2900895">
  <ele>350.84</ele>
  <time>2026-09-01T19:56:08Z</time>
  <course>336.21</course>
  <speed>0.06</speed>
  <fix>3d</fix>
</trkpt>
<trkpt lat="-27.2744285" lon="151.2900893">
  <ele>351.16</ele>
  <time>2026-09-01T19:56:08Z</time>
  <course>90.89</course>
  <speed>0.03</speed>
  <fix>3d</fix>
</trkpt>
<trkpt lat="-27.2744285" lon="151.2900896">
  <ele>350.76</ele>
  <time>2026-09-01T19:56:08Z</time>
  <course>336.09</course>
  <speed>0.07</speed>
  <fix>3d</fix>
</trkpt>
<trkpt lat="-27.2744285" lon="151.2900893">
  <ele>351.16</ele>
  <time>2026-09-01T19:56:08Z</time>
  <course>90.89</course>
  <speed>0.03</speed>
  <fix>3d</fix>
</trkpt>
<trkpt lat="-27.2744285" lon="151.2900896">
  <ele>350.67</ele>
  <time>2026-09-01T19:56:08Z</time>
  <course>336.02</course>
  <speed>0.08</speed>
  <fix>3d</fix>
</trkpt>
<trkpt lat="-27.2744285" lon="151.2900893">
  <ele>350.99</ele>
  <time>2026-09-01T19:56:08Z</time>
  <course>82.58</course>
  <speed>0.05</speed>
  <fix>3d</fix>
</trkpt>
<trkpt lat="-27.2744285" lon="151.2900897">
  <ele>350.58</ele>
  <time>2026-09-01T19:56:08Z</time>
  <course>335.98</course>
  <speed>0.09</speed>
  <fix>3d</fix>
</trkpt>
<trkpt lat="-27.2744285" lon="151.2900893">
  <ele>350.99</ele>
  <time>2026-09-01T19:56:08Z</time>
  <course>82.58</course>
  <speed>0.05</speed>
  <fix>3d</fix>
</trkpt>
<trkpt lat="-27.2744285" lon="151.2900898">
  <ele>350.5</ele>
  <time>2026-09-01T19:56:08Z</time>
  <course>335.97</course>
  <speed>0.1</speed>
  <fix>3d</fix>
</trkpt>
<trkpt lat="-27.2744285" lon="151.2900894">
  <ele>350.81</ele>
  <time>2026-09-01T19:56:08Z</time>
  <course>78.79</course>
  <speed>0.06</speed>
  <fix>3d</fix>
</trkpt>
<trkpt lat="-27.2744285" lon="151.2900899">
  <ele>350.42</ele>
  <time>2026-09-01T19:56:08Z</time>
  <course>335.98</course>
  <speed>0.11</speed>
  <fix>3d</fix>
</trkpt>
<trkpt lat="-27.2744285" lon="151.2900894">
  <ele>350.81</ele>
  <time>2026-09-01T19:56:08Z</time>
  <course>78.79</course>
  <speed>0.06</speed>
  <fix>3d</fix>
</trkpt>
<trkpt lat="-27.2744285" lon="151.2900899">
  <ele>350.35</ele>
  <time>2026-09-01T19:56:08Z</time>
  <course>336.0</course>
  <speed>0.11045361017187261</speed>
  <fix>3d</fix>
</trkpt>
<trkpt lat="-27.2744285" lon="151.2900895">
  <ele>350.64</ele>
  <time>2026-09-01T19:56:08Z</time>
  <course>76.26</course>
  <speed>0.08</speed>
  <fix>3d</fix>
</trkpt>
<trkpt lat="-27.2744285" lon="151.29009">
  <ele>350.27</ele>
  <time>2026-09-01T19:56:08Z</time>
  <course>336.01</course>
  <speed>0.12041594578792296</speed>
  <fix>3d</fix>
</trkpt>
<trkpt lat="-27.2744285" lon="151.2900895">
  <ele>350.64</ele>
  <time>2026-09-01T19:56:08Z</time>
  <course>76.26</course>
  <speed>0.08</speed>
  <fix>3d</fix>
</trkpt>
<trkpt lat="-27.2744285" lon="151.2900901">
  <ele>350.19</ele>
  <time>2026-09-01T19:56:08Z</time>
  <course>336.01</course>
  <speed>0.12041594578792296</speed>
  <fix>3d</fix>
</trkpt>
<trkpt lat="-27.2744285" lon="151.2900897">
  <ele>350.47</ele>
  <time>2026-09-01T19:56:08Z</time>
  <course>74.48</course>
  <speed>0.1</speed>
  <fix>3d</fix>
</trkpt>
<trkpt lat="-27.2744285" lon="151.2900902">
  <ele>350.11</ele>
  <time>2026-09-01T19:56:08Z</time>
  <course>335.99</course>
  <speed>0.130384048104053</speed>
  <fix>3d</fix>
</trkpt>
<trkpt lat="-27.2744285" lon="151.2900897">
  <ele>350.47</ele>
  <time>2026-09-01T19:56:08Z</time>
  <course>74.48</course>
  <speed>0.1</speed>
  <fix>3d</fix>
</trkpt>
<trkpt lat="-27.2744285" lon="151.2900903">
  <ele>350.04</ele>
  <time>2026-09-01T19:56:08Z</time>
  <course>335.98</course>
  <speed>0.13152946437965907</speed>
  <fix>3d</fix>
</trkpt>
<trkpt lat="-27.2744284" lon="151.29009">
  <ele>350.32</ele>
  <time>2026-09-01T19:56:08Z</time>
  <course>73.32</course>
  <speed>0.11</speed>
  <fix>3d</fix>
</trkpt>
<trkpt lat="-27.2744284" lon="151.2900905">
  <ele>349.97</ele>
  <time>2026-09-01T19:56:08Z</time>
  <course>335.95</course>
  <speed>0.13152946437965907</speed>
  <fix>3d</fix>
</trkpt>
<trkpt lat="-27.2744284" lon="151.29009">
  <ele>350.32</ele>
  <time>2026-09-01T19:56:08Z</time>
  <course>73.32</course>
  <speed>0.11</speed>
  <fix>3d</fix>
</trkpt>
<trkpt lat="-27.2744284" lon="151.2900906">
  <ele>349.9</ele>
  <time>2026-09-01T19:56:08Z</time>
  <course>335.93</course>
  <speed>0.1414213562373095</speed>
  <fix>3d</fix>
</trkpt>
<trkpt lat="-27.2744283" lon="151.2900902">
  <ele>350.17</ele>
  <time>2026-09-01T19:56:08Z</time>
  <course>72.34</course>
  <speed>0.12</speed>
  <fix>3d</fix>
</trkpt>
<trkpt lat="-27.2744284" lon="151.2900907">
  <ele>349.83</ele>
  <time>2026-09-01T19:56:08Z</time>
  <course>335.9</course>
  <speed>0.1414213562373095</speed>
  <fix>3d</fix>
</trkpt>
<trkpt lat="-27.2744283" lon="151.2900902">
  <ele>350.17</ele>
  <time>2026-09-01T19:56:08Z</time>
  <course>72.34</course>
  <speed>0.12</speed>
  <fix>3d</fix>
</trkpt>
<trkpt lat="-27.2744283" lon="151.2900908">
  <ele>349.76</ele>
  <time>2026-09-01T19:56:08Z</time>
  <course>335.87</course>
  <speed>0.1414213562373095</speed>
  <fix>3d</fix>
</trkpt>
<trkpt lat="-27.2744283" lon="151.2900904">
  <ele>350.03</ele>
  <time>2026-09-01T19:56:08Z</time>
  <course>71.38</course>
  <speed>0.13</speed>
  <fix>3d</fix>
</trkpt>
<trkpt lat="-27.2744283" lon="151.2900909">
  <ele>349.69</ele>
  <time>2026-09-01T19:56:08Z</time>
  <course>335.85</course>
  <speed>0.14317821063276354</speed>
  <fix>3d</fix>
</trkpt>
<trkpt lat="-27.2744283" lon="151.2900904">
  <ele>350.03</ele>
  <time>2026-09-01T19:56:08Z</time>
  <course>71.38</course>
  <speed>0.13</speed>
  <fix>3d</fix>
</trkpt>
<trkpt lat="-27.2744283" lon="151.2900911">
  <ele>349.63</ele>
  <time>2026-09-01T19:56:08Z</time>
  <course>335.82</course>
  <speed>0.14317821063276354</speed>
  <fix>3d</fix>
</trkpt>
<trkpt lat="-27.2744282" lon="151.2900907">
  <ele>349.89</ele>
  <time>2026-09-01T19:56:08Z</time>
  <course>70.59</course>
  <speed>0.13</speed>
  <fix>3d</fix>
</trkpt>
<trkpt lat="-27.2744282" lon="151.2900912">
  <ele>349.56</ele>
  <time>2026-09-01T19:56:08Z</time>
  <course>335.81</course>
  <speed>0.14317821063276354</speed>
  <fix>3d</fix>
</trkpt>
<trkpt lat="-27.2744282" lon="151.2900907">
  <ele>349.89</ele>
  <time>2026-09-01T19:56:08Z</time>
  <course>70.59</course>
  <speed>0.13</speed>
  <fix>3d</fix>
</trkpt>
<trkpt lat="-27.2744282" lon="151.2900913">
  <ele>349.5</ele>
  <time>2026-09-01T19:56:08Z</time>
  <course>335.79</course>
  <speed>0.14317821063276354</speed>
  <fix>3d</fix>
</trkpt>
<trkpt lat="-27.2744281" lon="151.2900909">
  <ele>349.75</ele>
  <time>2026-09-01T19:56:08Z</time>
  <course>69.95</course>
  <speed>0.13</speed>
  <fix>3d</fix>
</trkpt>
<trkpt lat="-27.2744281" lon="151.2900914">
  <ele>349.44</ele>
  <time>2026-09-01T19:56:08Z</time>
  <course>335.78</course>
  <speed>0.13341664064126335</speed>
  <fix>3d</fix>
</trkpt>
<trkpt lat="-27.2744281" lon="151.2900909">
  <ele>349.75</ele>
  <time>2026-09-01T19:56:08Z</time>
  <course>69.95</course>
  <speed>0.13</speed>
  <fix>3d</fix>
</trkpt>
<trkpt lat="-27.2744281" lon="151.2900915">
  <ele>349.38</ele>
  <time>2026-09-01T19:56:08Z</time>
  <course>335.78</course>
  <speed>0.13341664064126335</speed>
  <fix>3d</fix>
</trkpt>
<trkpt lat="-27.274428" lon="151.2900912">
  <ele>349.62</ele>
  <time>2026-09-01T19:56:08Z</time>
  <course>69.4</course>
  <speed>0.13</speed>
  <fix>3d</fix>
</trkpt>
<trkpt lat="-27.2744281" lon="151.2900917">
  <ele>349.32</ele>
  <time>2026-09-01T19:56:08Z</time>
  <course>335.77</course>
  <speed>0.13341664064126335</speed>
  <fix>3d</fix>
</trkpt>
<trkpt lat="-27.274428" lon="151.2900912">
  <ele>349.62</ele>
  <time>2026-09-01T19:56:08Z</time>
  <course>69.4</course>
  <speed>0.13</speed>
  <fix>3d</fix>
</trkpt>
<trkpt lat="-27.274428" lon="151.2900918">
  <ele>349.26</ele>
  <time>2026-09-01T19:56:08Z</time>
  <course>335.77</course>
  <speed>0.12369316876852982</speed>
  <fix>3d</fix>
</trkpt>
<trkpt lat="-27.2744279" lon="151.2900915">
  <ele>349.5</ele>
  <time>2026-09-01T19:56:08Z</time>
  <course>68.91</course>
  <speed>0.13</speed>
  <fix>3d</fix>
</trkpt>
<trkpt lat="-27.274428" lon="151.2900919">
  <ele>349.2</ele>
  <time>2026-09-01T19:56:08Z</time>
  <course>335.76</course>
  <speed>0.12165525060596438</speed>
  <fix>3d</fix>
</trkpt>
<trkpt lat="-27.2744279" lon="151.2900915">
  <ele>349.5</ele>
  <time>2026-09-01T19:56:08Z</time>
  <course>68.91</course>
  <speed>0.13</speed>
  <fix>3d</fix>
</trkpt>
<trkpt lat="-27.2744279" lon="151.290092">
  <ele>349.14</ele>
  <time>2026-09-01T19:56:08Z</time>
  <course>335.75</course>
  <speed>0.1118033988749895</speed>
  <fix>3d</fix>
</trkpt>
<trkpt lat="-27.2744278" lon="151.2900917">
  <ele>349.37</ele>
  <time>2026-09-01T19:56:08Z</time>
  <course>68.26</course>
  <speed>0.12</speed>
  <fix>3d</fix>
</trkpt>
<trkpt lat="-27.2744279" lon="151.2900921">
  <ele>349.09</ele>
  <time>2026-09-01T19:56:08Z</time>
  <course>335.74</course>
  <speed>0.1118033988749895</speed>
  <fix>3d</fix>
</trkpt>
<trkpt lat="-27.2744278" lon="151.2900917">
  <ele>349.37</ele>
  <time>2026-09-01T19:56:08Z</time>
  <course>68.26</course>
  <speed>0.12</speed>
  <fix>3d</fix>
</trkpt>
<trkpt lat="-27.2744279" lon="151.2900922">
  <ele>349.03</ele>
  <time>2026-09-01T19:56:08Z</time>
  <course>335.73</course>
  <speed>0.1019803902718557</speed>
  <fix>3d</fix>
</trkpt>
<trkpt lat="-27.2744278" lon="151.2900919">
  <ele>349.25</ele>
  <time>2026-09-01T19:56:08Z</time>
  <course>67.18</course>
  <speed>0.11</speed>
  <fix>3d</fix>
</trkpt>
<trkpt lat="-27.2744278" lon="151.2900923">
  <ele>348.97</ele>
  <time>2026-09-01T19:56:08Z</time>
  <course>335.72</course>
  <speed>0.1019803902718557</speed>
  <fix>3d</fix>
</trkpt>
<trkpt lat="-27.2744278" lon="151.2900919">
  <ele>349.25</ele>
  <time>2026-09-01T19:56:08Z</time>
  <course>67.18</course>
  <speed>0.11</speed>
  <fix>3d</fix>
</trkpt>
<trkpt lat="-27.2744278" lon="151.2900924">
  <ele>348.92</ele>
  <time>2026-09-01T19:56:08Z</time>
  <course>335.7</course>
  <speed>0.09219544457292887</speed>
  <fix>3d</fix>
</trkpt>
<trkpt lat="-27.2744277" lon="151.2900921">
  <ele>349.14</ele>
  <time>2026-09-01T19:56:08Z</time>
  <course>65.74</course>
  <speed>0.1</speed>
  <fix>3d</fix>
</trkpt>
<trkpt lat="-27.2744278" lon="151.2900924">
  <ele>348.86</ele>
  <time>2026-09-01T19:56:08Z</time>
  <course>335.69</course>
  <speed>0.0824621125123532</speed>
  <fix>3d</fix>
</trkpt>
<trkpt lat="-27.2744277" lon="151.2900921">
  <ele>349.14</ele>
  <time>2026-09-01T19:56:08Z</time>
  <course>65.74</course>
  <speed>0.1</speed>
  <fix>3d</fix>
</trkpt>
<trkpt lat="-27.2744277" lon="151.2900925">
  <ele>348.81</ele>
  <time>2026-09-01T19:56:08Z</time>
  <course>335.68</course>
  <speed>0.0824621125123532</speed>
  <fix>3d</fix>
</trkpt>
<trkpt lat="-27.2744276" lon="151.2900923">
  <ele>349.02</ele>
  <time>2026-09-01T19:56:08Z</time>
  <course>64.29</course>
  <speed>0.08</speed>
  <fix>3d</fix>
</trkpt>
<trkpt lat="-27.2744277" lon="151.2900926">
  <ele>348.75</ele>
  <time>2026-09-01T19:56:08Z</time>
  <course>335.68</course>
  <speed>0.07071067811865475</speed>
  <fix>3d</fix>
</trkpt>
<trkpt lat="-27.2744276" lon="151.2900923">
  <ele>349.02</ele>
  <time>2026-09-01T19:56:08Z</time>
  <course>64.29</course>
  <speed>0.08</speed>
  <fix>3d</fix>
</trkpt>
<trkpt lat="-27.2744277" lon="151.2900926">
  <ele>348.7</ele>
  <time>2026-09-01T19:56:08Z</time>
  <course>335.68</course>
  <speed>0.06082762530298219</speed>
  <fix>3d</fix>
</trkpt>
<trkpt lat="-27.2744276" lon="151.2900924">
  <ele>348.91</ele>
  <time>2026-09-01T19:56:08Z</time>
  <course>62.65</course>
  <speed>0.07</speed>
  <fix>3d</fix>
</trkpt>
<trkpt lat="-27.2744276" lon="151.2900927">
  <ele>348.65</ele>
  <time>2026-09-01T19:56:08Z</time>
  <course>335.67</course>
  <speed>0.05099019513592785</speed>
  <fix>3d</fix>
</trkpt>
<trkpt lat="-27.2744276" lon="151.2900924">
  <ele>348.91</ele>
  <time>2026-09-01T19:56:08Z</time>
  <course>62.65</course>
  <speed>0.07</speed>
  <fix>3d</fix>
</trkpt>
<trkpt lat="-27.2744276" lon="151.2900927">
  <ele>348.6</ele>
  <time>2026-09-01T19:56:08Z</time>
  <course>335.65</course>
  <speed>0.0412310562561766</speed>
  <fix>3d</fix>
</trkpt>
<trkpt lat="-27.2744275" lon="151.2900925">
  <ele>348.8</ele>
  <time>2026-09-01T19:56:08Z</time>
  <course>59.9</course>
  <speed>0.05</speed>
  <fix>3d</fix>
</trkpt>
<trkpt lat="-27.2744276" lon="151.2900927">
  <ele>348.55</ele>
  <time>2026-09-01T19:56:08Z</time>
  <course>335.64</course>
  <speed>0.04</speed>
  <fix>3d</fix>
</trkpt>
<trkpt lat="-27.2744275" lon="151.2900925">
  <ele>348.8</ele>
  <time>2026-09-01T19:56:08Z</time>
  <course>59.9</course>
  <speed>0.05</speed>
  <fix>3d</fix>
</trkpt>
<trkpt lat="-27.2744276" lon="151.2900927">
  <ele>348.5</ele>
  <time>2026-09-01T19:56:08Z</time>
  <course>335.63</course>
  <speed>0.03</speed>
  <fix>3d</fix>
</trkpt>
<trkpt lat="-27.2744275" lon="151.2900926">
  <ele>348.7</ele>
  <time>2026-09-01T19:56:08Z</time>
  <course>54.54</course>
  <speed>0.04</speed>
  <fix>3d</fix>
</trkpt>
<trkpt lat="-27.2744276" lon="151.2900928">
  <ele>348.45</ele>
  <time>2026-09-01T19:56:08Z</time>
  <course>335.62</course>
  <speed>0.02</speed>
  <fix>3d</fix>
</trkpt>
<trkpt lat="-27.2744275" lon="151.2900926">
  <ele>348.7</ele>
  <time>2026-09-01T19:56:08Z</time>
  <course>54.54</course>
  <speed>0.04</speed>
  <fix>3d</fix>
</trkpt>
<trkpt lat="-27.2744276" lon="151.2900928">
  <ele>348.39</ele>
  <time>2026-09-01T19:56:08Z</time>
  <course>335.6</course>
  <speed>0.01</speed>
  <fix>3d</fix>
</trkpt>
<trkpt lat="-27.2744274" lon="151.2900927">
  <ele>348.59</ele>
  <time>2026-09-01T19:56:08Z</time>
  <course>43.55</course>
  <speed>0.02</speed>
  <fix>3d</fix>
</trkpt>
<trkpt lat="-27.2744275" lon="151.2900928">
  <ele>348.34</ele>
  <time>2026-09-01T19:56:08Z</time>
  <course>335.56</course>
  <speed>0.01</speed>
  <fix>3d</fix>
</trkpt>
<trkpt lat="-27.2744274" lon="151.2900927">
  <ele>348.59</ele>
  <time>2026-09-01T19:56:08Z</time>
  <course>43.55</course>
  <speed>0.02</speed>
  <fix>3d</fix>
</trkpt>
<trkpt lat="-27.2744275" lon="151.2900928">
  <ele>348.29</ele>
  <time>2026-09-01T19:56:08Z</time>
  <course>335.52</course>
  <speed>0.0</speed>
  <fix>3d</fix>
</trkpt>
<trkpt lat="-27.2744274" lon="151.2900927">
  <ele>348.5</ele>
  <time>2026-09-01T19:56:08Z</time>
  <course>14.66</course>
  <speed>0.01</speed>
  <fix>3d</fix>
</trkpt>
<trkpt lat="-27.2744275" lon="151.2900928">
  <ele>348.24</ele>
  <time>2026-09-01T19:56:08Z</time>
  <course>335.46</course>
  <speed>0.0</speed>
  <fix>3d</fix>
</trkpt>
<trkpt lat="-27.2744274" lon="151.2900927">
  <ele>348.5</ele>
  <time>2026-09-01T19:56:08Z</time>
  <course>14.66</course>
  <speed>0.01</speed>
  <fix>3d</fix>
</trkpt>
<trkpt lat="-27.2744275" lon="151.2900927">
  <ele>348.19</ele>
  <time>2026-09-01T19:56:08Z</time>
  <course>335.4</course>
  <speed>0.0</speed>
  <fix>3d</fix>
</trkpt>
<trkpt lat="-27.2744274" lon="151.2900927">
  <ele>348.4</ele>
  <time>2026-09-01T19:56:08Z</time>
  <course>320.07</course>
  <speed>0.01</speed>
  <fix>3d</fix>
</trkpt>
<trkpt lat="-27.2744275" lon="151.2900928">
  <ele>348.14</ele>
  <time>2026-09-01T19:56:08Z</time>
  <course>335.34</course>
  <speed>0.0</speed>
  <fix>3d</fix>
</trkpt>
<trkpt lat="-27.2744274" lon="151.2900927">
  <ele>348.4</ele>
  <time>2026-09-01T19:56:08Z</time>
  <course>320.07</course>
  <speed>0.01</speed>
  <fix>3d</fix>
</trkpt>
<trkpt lat="-27.2744275" lon="151.2900928">
  <ele>348.09</ele>
  <time>2026-09-01T19:56:08Z</time>
  <course>335.3</course>
  <speed>0.0</speed>
  <fix>3d</fix>
</trkpt>
<trkpt lat="-27.2744274" lon="151.2900927">
  <ele>348.3</ele>
  <time>2026-09-01T19:56:08Z</time>
  <course>291.02</course>
  <speed>0.02</speed>
  <fix>3d</fix>
</trkpt>
<trkpt lat="-27.2744275" lon="151.2900928">
  <ele>348.04</ele>
  <time>2026-09-01T19:56:08Z</time>
  <course>335.27</course>
  <speed>0.01</speed>
  <fix>3d</fix>
</trkpt>
<trkpt lat="-27.2744274" lon="151.2900927">
  <ele>348.3</ele>
  <time>2026-09-01T19:56:08Z</time>
  <course>291.02</course>
  <speed>0.02</speed>
  <fix>3d</fix>
</trkpt>
<trkpt lat="-27.2744275" lon="151.2900928">
  <ele>347.99</ele>
  <time>2026-09-01T19:56:08Z</time>
  <course>335.26</course>
  <speed>0.01</speed>
  <fix>3d</fix>
</trkpt>
<trkpt lat="-27.2744274" lon="151.2900927">
  <ele>348.2</ele>
  <time>2026-09-01T19:56:08Z</time>
  <course>279.33</course>
  <speed>0.02</speed>
  <fix>3d</fix>
</trkpt>
<trkpt lat="-27.2744275" lon="151.2900927">
  <ele>347.94</ele>
  <time>2026-09-01T19:56:08Z</time>
  <course>335.27</course>
  <speed>0.022360679774997897</speed>
  <fix>3d</fix>
</trkpt>
<trkpt lat="-27.2744274" lon="151.2900927">
  <ele>348.2</ele>
  <time>2026-09-01T19:56:08Z</time>
  <course>279.33</course>
  <speed>0.02</speed>
  <fix>3d</fix>
</trkpt>
<trkpt lat="-27.2744275" lon="151.2900927">
  <ele>347.89</ele>
  <time>2026-09-01T19:56:08Z</time>
  <course>335.29</course>
  <speed>0.022360679774997897</speed>
  <fix>3d</fix>
</trkpt>
<trkpt lat="-27.2744274" lon="151.2900927">
  <ele>348.09</ele>
  <time>2026-09-01T19:56:08Z</time>
  <course>273.12</course>
  <speed>0.03</speed>
  <fix>3d</fix>
</trkpt>
<trkpt lat="-27.2744275" lon="151.2900926">
  <ele>347.84</ele>
  <time>2026-09-01T19:56:08Z</time>
  <course>335.31</course>
  <speed>0.0316227766016838</speed>
  <fix>3d</fix>
</trkpt>
<trkpt lat="-27.2744274" lon="151.2900927">
  <ele>348.09</ele>
  <time>2026-09-01T19:56:08Z</time>
  <course>273.12</course>
  <speed>0.03</speed>
  <fix>3d</fix>
</trkpt>
<trkpt lat="-27.2744275" lon="151.2900926">
  <ele>347.79</ele>
  <time>2026-09-01T19:56:08Z</time>
  <course>335.32</course>
  <speed>0.0316227766016838</speed>
  <fix>3d</fix>
</trkpt>
<trkpt lat="-27.2744274" lon="151.2900926">
  <ele>347.99</ele>
  <time>2026-09-01T19:56:08Z</time>
  <course>269.16</course>
  <speed>0.04</speed>
  <fix>3d</fix>
</trkpt>
<trkpt lat="-27.2744275" lon="151.2900926">
  <ele>347.74</ele>
  <time>2026-09-01T19:56:08Z</time>
  <course>335.33</course>
  <speed>0.0316227766016838</speed>
  <fix>3d</fix>
</trkpt>
<trkpt lat="-27.2744274" lon="151.2900926">
  <ele>347.99</ele>
  <time>2026-09-01T19:56:08Z</time>
  <course>269.16</course>
  <speed>0.04</speed>
  <fix>3d</fix>
</trkpt>
<trkpt lat="-27.2744275" lon="151.2900925">
  <ele>347.69</ele>
  <time>2026-09-01T19:56:08Z</time>
  <course>335.34</course>
  <speed>0.0412310562561766</speed>
  <fix>3d</fix>
</trkpt>
<trkpt lat="-27.2744274" lon="151.2900924">
  <ele>347.89</ele>
  <time>2026-09-01T19:56:08Z</time>
  <course>266.37</course>
  <speed>0.05</speed>
  <fix>3d</fix>
</trkpt>
<trkpt lat="-27.2744275" lon="151.2900924">
  <ele>347.64</ele>
  <time>2026-09-01T19:56:08Z</time>
  <course>335.34</course>
  <speed>0.0412310562561766</speed>
  <fix>3d</fix>
</trkpt>
<trkpt lat="-27.2744274" lon="151.2900924">
  <ele>347.89</ele>
  <time>2026-09-01T19:56:08Z</time>
  <course>266.37</course>
  <speed>0.05</speed>
  <fix>3d</fix>
</trkpt>
<trkpt lat="-27.2744275" lon="151.2900924">
  <ele>347.59</ele>
  <time>2026-09-01T19:56:08Z</time>
  <course>335.34</course>
  <speed>0.044721359549995794</speed>
  <fix>3d</fix>
</trkpt>
<trkpt lat="-27.2744274" lon="151.2900923">
  <ele>347.78</ele>
  <time>2026-09-01T19:56:08Z</time>
  <course>264.47</course>
  <speed>0.06</speed>
  <fix>3d</fix>
</trkpt>
<trkpt lat="-27.2744275" lon="151.2900923">
  <ele>347.54</ele>
  <time>2026-09-01T19:56:08Z</time>
  <course>335.34</course>
  <speed>0.044721359549995794</speed>
  <fix>3d</fix>
</trkpt>
<trkpt lat="-27.2744274" lon="151.2900923">
  <ele>347.78</ele>
  <time>2026-09-01T19:56:08Z</time>
  <course>264.47</course>
  <speed>0.06</speed>
  <fix>3d</fix>
</trkpt>
<trkpt lat="-27.2744275" lon="151.2900922">
  <ele>347.49</ele>
  <time>2026-09-01T19:56:08Z</time>
  <course>335.35</course>
  <speed>0.053851648071345036</speed>
  <fix>3d</fix>
</trkpt>
<trkpt lat="-27.2744274" lon="151.2900922">
  <ele>347.69</ele>
  <time>2026-09-01T19:56:08Z</time>
  <course>263.08</course>
  <speed>0.07</speed>
  <fix>3d</fix>
</trkpt>
<trkpt lat="-27.2744275" lon="151.2900922">
  <ele>347.44</ele>
  <time>2026-09-01T19:56:08Z</time>
  <course>335.35</course>
  <speed>0.053851648071345036</speed>
  <fix>3d</fix>
</trkpt>
<trkpt lat="-27.2744274" lon="151.2900922">
  <ele>347.69</ele>
  <time>2026-09-01T19:56:08Z</time>
  <course>263.08</course>
  <speed>0.07</speed>
  <fix>3d</fix>
</trkpt>
<trkpt lat="-27.2744275" lon="151.2900921">
  <ele>347.39</ele>
  <time>2026-09-01T19:56:08Z</time>
  <course>335.36</course>
  <speed>0.053851648071345036</speed>
  <fix>3d</fix>
</trkpt>
<trkpt lat="-27.2744274" lon="151.290092">
  <ele>347.59</ele>
  <time>2026-09-01T19:56:08Z</time>
  <course>261.92</course>
  <speed>0.07</speed>
  <fix>3d</fix>
</trkpt>
<trkpt lat="-27.2744275" lon="151.290092">
  <ele>347.33</ele>
  <time>2026-09-01T19:56:08Z</time>
  <course>335.37</course>
  <speed>0.053851648071345036</speed>
  <fix>3d</fix>
</trkpt>
<trkpt lat="-27.2744274" lon="151.290092">
  <ele>347.59</ele>
  <time>2026-09-01T19:56:08Z</time>
  <course>261.92</course>
  <speed>0.07</speed>
  <fix>3d</fix>
</trkpt>
<trkpt lat="-27.2744275" lon="151.2900919">
  <ele>347.28</ele>
  <time>2026-09-01T19:56:08Z</time>
  <course>335.38</course>
  <speed>0.053851648071345036</speed>
  <fix>3d</fix>
</trkpt>
<trkpt lat="-27.2744274" lon="151.2900919">
  <ele>347.49</ele>
  <time>2026-09-01T19:56:08Z</time>
  <course>260.99</course>
  <speed>0.08</speed>
  <fix>3d</fix>
</trkpt>
<trkpt lat="-27.2744275" lon="151.2900919">
  <ele>347.24</ele>
  <time>2026-09-01T19:56:08Z</time>
  <course>335.39</course>
  <speed>0.053851648071345036</speed>
  <fix>3d</fix>
</trkpt>
<trkpt lat="-27.2744274" lon="151.2900919">
  <ele>347.49</ele>
  <time>2026-09-01T19:56:08Z</time>
  <course>260.99</course>
  <speed>0.08</speed>
  <fix>3d</fix>
</trkpt>
<trkpt lat="-27.2744275" lon="151.2900918">
  <ele>347.19</ele>
  <time>2026-09-01T19:56:08Z</time>
  <course>335.39</course>
  <speed>0.053851648071345036</speed>
  <fix>3d</fix>
</trkpt>
<trkpt lat="-27.2744274" lon="151.2900917">
  <ele>347.39</ele>
  <time>2026-09-01T19:56:08Z</time>
  <course>260.19</course>
  <speed>0.08</speed>
  <fix>3d</fix>
</trkpt>
<trkpt lat="-27.2744275" lon="151.2900917">
  <ele>347.14</ele>
  <time>2026-09-01T19:56:08Z</time>
  <course>335.4</course>
  <speed>0.053851648071345036</speed>
  <fix>3d</fix>
</trkpt>
<trkpt lat="-27.2744274" lon="151.2900917">
  <ele>347.39</ele>
  <time>2026-09-01T19:56:08Z</time>
  <course>260.19</course>
  <speed>0.08</speed>
  <fix>3d</fix>
</trkpt>
<trkpt lat="-27.2744275" lon="151.2900916">
  <ele>347.09</ele>
  <time>2026-09-01T19:56:08Z</time>
  <course>335.4</course>
  <speed>0.053851648071345036</speed>
  <fix>3d</fix>
</trkpt>
<trkpt lat="-27.2744274" lon="151.2900915">
  <ele>347.28</ele>
  <time>2026-09-01T19:56:08Z</time>
  <course>259.45</course>
  <speed>0.08</speed>
  <fix>3d</fix>
</trkpt>
<trkpt lat="-27.2744276" lon="151.2900915">
  <ele>347.04</ele>
  <time>2026-09-01T19:56:08Z</time>
  <course>335.41</course>
  <speed>0.053851648071345036</speed>
  <fix>3d</fix>
</trkpt>
<trkpt lat="-27.2744274" lon="151.2900915">
  <ele>347.28</ele>
  <time>2026-09-01T19:56:08Z</time>
  <course>259.45</course>
  <speed>0.08</speed>
  <fix>3d</fix>
</trkpt>
<trkpt lat="-27.2744276" lon="151.2900915">
  <ele>346.99</ele>
  <time>2026-09-01T19:56:08Z</time>
  <course>335.41</course>
  <speed>0.053851648071345036</speed>
  <fix>3d</fix>
</trkpt>
<trkpt lat="-27.2744274" lon="151.2900914">
  <ele>347.19</ele>
  <time>2026-09-01T19:56:08Z</time>
  <course>258.77</course>
  <speed>0.08</speed>
  <fix>3d</fix>
</trkpt>
<trkpt lat="-27.2744276" lon="151.2900914">
  <ele>346.94</ele>
  <time>2026-09-01T19:56:08Z</time>
  <course>335.42</course>
  <speed>0.053851648071345036</speed>
  <fix>3d</fix>
</trkpt>
<trkpt lat="-27.2744274" lon="151.2900914">
  <ele>347.19</ele>
  <time>2026-09-01T19:56:08Z</time>
  <course>258.77</course>
  <speed>0.08</speed>
  <fix>3d</fix>
</trkpt>
<trkpt lat="-27.2744276" lon="151.2900913">
  <ele>346.89</ele>
  <time>2026-09-01T19:56:08Z</time>
  <course>335.43</course>
  <speed>0.053851648071345036</speed>
  <fix>3d</fix>
</trkpt>
<trkpt lat="-27.2744274" lon="151.2900912">
  <ele>347.09</ele>
  <time>2026-09-01T19:56:08Z</time>
  <course>258.09</course>
  <speed>0.08</speed>
  <fix>3d</fix>
</trkpt>
<trkpt lat="-27.2744276" lon="151.2900912">
  <ele>346.84</ele>
  <time>2026-09-01T19:56:09Z</time>
  <course>335.44</course>
  <speed>0.053851648071345036</speed>
  <fix>3d</fix>
</trkpt>
<trkpt lat="-27.2744274" lon="151.2900912">
  <ele>347.09</ele>
  <time>2026-09-01T19:56:09Z</time>
  <course>258.09</course>
  <speed>0.08</speed>
  <fix>3d</fix>
</trkpt>
<trkpt lat="-27.2744276" lon="151.2900912">
  <ele>346.79</ele>
  <time>2026-09-01T19:56:09Z</time>
  <course>335.44</course>
  <speed>0.053851648071345036</speed>
  <fix>3d</fix>
</trkpt>
<trkpt lat="-27.2744274" lon="151.290091">
  <ele>347.0</ele>
  <time>2026-09-01T19:56:09Z</time>
  <course>257.34</course>
  <speed>0.08</speed>
  <fix>3d</fix>
</trkpt>
<trkpt lat="-27.2744276" lon="151.2900911">
  <ele>346.74</ele>
  <time>2026-09-01T19:56:09Z</time>
  <course>335.45</course>
  <speed>0.044721359549995794</speed>
  <fix>3d</fix>
</trkpt>
<trkpt lat="-27.2744274" lon="151.290091">
  <ele>347.0</ele>
  <time>2026-09-01T19:56:09Z</time>
  <course>257.34</course>
  <speed>0.08</speed>
  <fix>3d</fix>
</trkpt>
<trkpt lat="-27.2744276" lon="151.290091">
  <ele>346.69</ele>
  <time>2026-09-01T19:56:09Z</time>
  <course>335.45</course>
  <speed>0.044721359549995794</speed>
  <fix>3d</fix>
</trkpt>
<trkpt lat="-27.2744275" lon="151.2900909">
  <ele>346.9</ele>
  <time>2026-09-01T19:56:09Z</time>
  <course>256.5</course>
  <speed>0.07</speed>
  <fix>3d</fix>
</trkpt>
<trkpt lat="-27.2744276" lon="151.2900909">
  <ele>346.64</ele>
  <time>2026-09-01T19:56:09Z</time>
  <course>335.45</course>
  <speed>0.044721359549995794</speed>
  <fix>3d</fix>
</trkpt>
<trkpt lat="-27.2744275" lon="151.2900909">
  <ele>346.9</ele>
  <time>2026-09-01T19:56:09Z</time>
  <course>256.5</course>
  <speed>0.07</speed>
  <fix>3d</fix>
</trkpt>
<trkpt lat="-27.2744276" lon="151.2900909">
  <ele>346.59</ele>
  <time>2026-09-01T19:56:09Z</time>
  <course>335.46</course>
  <speed>0.044721359549995794</speed>
  <fix>3d</fix>
</trkpt>
<trkpt lat="-27.2744275" lon="151.2900907">
  <ele>346.8</ele>
  <time>2026-09-01T19:56:09Z</time>
  <course>255.55</course>
  <speed>0.07</speed>
  <fix>3d</fix>
</trkpt>
<trkpt lat="-27.2744276" lon="151.2900908">
  <ele>346.54</ele>
  <time>2026-09-01T19:56:09Z</time>
  <course>335.47</course>
  <speed>0.03605551275463989</speed>
  <fix>3d</fix>
</trkpt>
<trkpt lat="-27.2744275" lon="151.2900907">
  <ele>346.8</ele>
  <time>2026-09-01T19:56:09Z</time>
  <course>255.55</course>
  <speed>0.07</speed>
  <fix>3d</fix>
</trkpt>
<trkpt lat="-27.2744276" lon="151.2900907">
  <ele>346.49</ele>
  <time>2026-09-01T19:56:09Z</time>
  <course>335.47</course>
  <speed>0.03605551275463989</speed>
  <fix>3d</fix>
</trkpt>
<trkpt lat="-27.2744275" lon="151.2900906">
  <ele>346.7</ele>
  <time>2026-09-01T19:56:09Z</time>
  <course>254.48</course>
  <speed>0.07</speed>
  <fix>3d</fix>
</trkpt>
<trkpt lat="-27.2744276" lon="151.2900907">
  <ele>346.44</ele>
  <time>2026-09-01T19:56:09Z</time>
  <course>335.48</course>
  <speed>0.03605551275463989</speed>
  <fix>3d</fix>
</trkpt>
<trkpt lat="-27.2744275" lon="151.2900906">
  <ele>346.7</ele>
  <time>2026-09-01T19:56:09Z</time>
  <course>254.48</course>
  <speed>0.07</speed>
  <fix>3d</fix>
</trkpt>
<trkpt lat="-27.2744277" lon="151.2900906">
  <ele>346.39</ele>
  <time>2026-09-01T19:56:09Z</time>
  <course>335.48</course>
  <speed>0.0282842712474619</speed>
  <fix>3d</fix>
</trkpt>
<trkpt lat="-27.2744276" lon="151.2900905">
  <ele>346.59</ele>
  <time>2026-09-01T19:56:09Z</time>
  <course>253.21</course>
  <speed>0.06</speed>
  <fix>3d</fix>
</trkpt>
<trkpt lat="-27.2744277" lon="151.2900906">
  <ele>346.34</ele>
  <time>2026-09-01T19:56:09Z</time>
  <course>335.48</course>
  <speed>0.0282842712474619</speed>
  <fix>3d</fix>
</trkpt>
<trkpt lat="-27.2744276" lon="151.2900905">
  <ele>346.59</ele>
  <time>2026-09-01T19:56:09Z</time>
  <course>253.21</course>
  <speed>0.06</speed>
  <fix>3d</fix>
</trkpt>
<trkpt lat="-27.2744277" lon="151.2900905">
  <ele>346.29</ele>
  <time>2026-09-01T19:56:09Z</time>
  <course>335.48</course>
  <speed>0.0282842712474619</speed>
  <fix>3d</fix>
</trkpt>
<trkpt lat="-27.2744276" lon="151.2900903">
  <ele>346.5</ele>
  <time>2026-09-01T19:56:09Z</time>
  <course>251.69</course>
  <speed>0.05</speed>
  <fix>3d</fix>
</trkpt>
<trkpt lat="-27.2744277" lon="151.2900905">
  <ele>346.24</ele>
  <time>2026-09-01T19:56:09Z</time>
  <course>335.49</course>
  <speed>0.022360679774997897</speed>
  <fix>3d</fix>
</trkpt>
<trkpt lat="-27.2744276" lon="151.2900903">
  <ele>346.5</ele>
  <time>2026-09-01T19:56:09Z</time>
  <course>251.69</course>
  <speed>0.05</speed>
  <fix>3d</fix>
</trkpt>
<trkpt lat="-27.2744277" lon="151.2900904">
  <ele>346.19</ele>
  <time>2026-09-01T19:56:09Z</time>
  <course>335.5</course>
  <speed>0.022360679774997897</speed>
  <fix>3d</fix>
</trkpt>
<trkpt lat="-27.2744276" lon="151.2900902">
  <ele>346.4</ele>
  <time>2026-09-01T19:56:09Z</time>
  <course>249.9</course>
  <speed>0.05</speed>
  <fix>3d</fix>
</trkpt>
<trkpt lat="-27.2744277" lon="151.2900904">
  <ele>346.13</ele>
  <time>2026-09-01T19:56:09Z</time>
  <course>335.51</course>
  <speed>0.02</speed>
  <fix>3d</fix>
</trkpt>
<trkpt lat="-27.2744276" lon="151.2900902">
  <ele>346.4</ele>
  <time>2026-09-01T19:56:09Z</time>
  <course>249.9</course>
  <speed>0.05</speed>
  <fix>3d</fix>
</trkpt>
<trkpt lat="-27.2744277" lon="151.2900904">
  <ele>346.08</ele>
  <time>2026-09-01T19:56:09Z</time>
  <course>335.51</course>
  <speed>0.02</speed>
  <fix>3d</fix>
</trkpt>
<trkpt lat="-27.2744277" lon="151.2900901">
  <ele>346.3</ele>
  <time>2026-09-01T19:56:09Z</time>
  <course>247.55</course>
  <speed>0.04</speed>
  <fix>3d</fix>
</trkpt>
<trkpt lat="-27.2744277" lon="151.2900903">
  <ele>346.03</ele>
  <time>2026-09-01T19:56:09Z</time>
  <course>335.51</course>
  <speed>0.01</speed>
  <fix>3d</fix>
</trkpt>
<trkpt lat="-27.2744277" lon="151.2900901">
  <ele>346.3</ele>
  <time>2026-09-01T19:56:09Z</time>
  <course>247.55</course>
  <speed>0.04</speed>
  <fix>3d</fix>
</trkpt>
<trkpt lat="-27.2744277" lon="151.2900903">
  <ele>345.98</ele>
  <time>2026-09-01T19:56:09Z</time>
  <course>335.52</course>
  <speed>0.01</speed>
  <fix>3d</fix>
</trkpt>
<trkpt lat="-27.2744277" lon="151.29009">
  <ele>346.2</ele>
  <time>2026-09-01T19:56:09Z</time>
  <course>244.03</course>
  <speed>0.03</speed>
  <fix>3d</fix>
</trkpt>
<trkpt lat="-27.2744277" lon="151.2900903">
  <ele>345.93</ele>
  <time>2026-09-01T19:56:09Z</time>
  <course>335.52</course>
  <speed>0.01</speed>
  <fix>3d</fix>
</trkpt>
<trkpt lat="-27.2744277" lon="151.29009">
  <ele>346.2</ele>
  <time>2026-09-01T19:56:09Z</time>
  <course>244.03</course>
  <speed>0.03</speed>
  <fix>3d</fix>
</trkpt>
<trkpt lat="-27.2744278" lon="151.2900903">
  <ele>345.88</ele>
  <time>2026-09-01T19:56:09Z</time>
  <course>335.52</course>
  <speed>0.01414213562373095</speed>
  <fix>3d</fix>
</trkpt>
<trkpt lat="-27.2744277" lon="151.29009">
  <ele>346.09</ele>
  <time>2026-09-01T19:56:09Z</time>
  <course>238.52</course>
  <speed>0.02</speed>
  <fix>3d</fix>
</trkpt>
<trkpt lat="-27.2744278" lon="151.2900902">
  <ele>345.83</ele>
  <time>2026-09-01T19:56:09Z</time>
  <course>335.52</course>
  <speed>0.01414213562373095</speed>
  <fix>3d</fix>
</trkpt>
<trkpt lat="-27.2744277" lon="151.29009">
  <ele>346.09</ele>
  <time>2026-09-01T19:56:09Z</time>
  <course>238.52</course>
  <speed>0.02</speed>
  <fix>3d</fix>
</trkpt>
<trkpt lat="-27.2744278" lon="151.2900902">
  <ele>345.78</ele>
  <time>2026-09-01T19:56:09Z</time>
  <course>335.52</course>
  <speed>0.01414213562373095</speed>
  <fix>3d</fix>
</trkpt>
<trkpt lat="-27.2744278" lon="151.29009">
  <ele>346.0</ele>
  <time>2026-09-01T19:56:09Z</time>
  <course>228.9</course>
  <speed>0.02</speed>
  <fix>3d</fix>
</trkpt>
<trkpt lat="-27.2744278" lon="151.2900902">
  <ele>345.73</ele>
  <time>2026-09-01T19:56:09Z</time>
  <course>335.51</course>
  <speed>0.022360679774997897</speed>
  <fix>3d</fix>
</trkpt>
<trkpt lat="-27.2744278" lon="151.29009">
  <ele>346.0</ele>
  <time>2026-09-01T19:56:09Z</time>
  <course>228.9</course>
  <speed>0.02</speed>
  <fix>3d</fix>
</trkpt>
<trkpt lat="-27.2744278" lon="151.2900902">
  <ele>345.68</ele>
  <time>2026-09-01T19:56:09Z</time>
  <course>335.48</course>
  <speed>0.022360679774997897</speed>
  <fix>3d</fix>
</trkpt>
<trkpt lat="-27.2744278" lon="151.29009">
  <ele>345.9</ele>
  <time>2026-09-01T19:56:09Z</time>
  <course>208.41</course>
  <speed>0.01</speed>
  <fix>3d</fix>
</trkpt>
<trkpt lat="-27.2744278" lon="151.2900902">
  <ele>345.63</ele>
  <time>2026-09-01T19:56:09Z</time>
  <course>335.5</course>
  <speed>0.022360679774997897</speed>
  <fix>3d</fix>
</trkpt>
<trkpt lat="-27.2744278" lon="151.29009">
  <ele>345.9</ele>
  <time>2026-09-01T19:56:09Z</time>
  <course>208.41</course>
  <speed>0.01</speed>
  <fix>3d</fix>
</trkpt>
<trkpt lat="-27.2744278" lon="151.2900902">
  <ele>345.58</ele>
  <time>2026-09-01T19:56:09Z</time>
  <course>335.57</course>
  <speed>0.022360679774997897</speed>
  <fix>3d</fix>
</trkpt>
<trkpt lat="-27.2744278" lon="151.29009">
  <ele>345.8</ele>
  <time>2026-09-01T19:56:09Z</time>
  <course>174.44</course>
  <speed>0.0</speed>
  <fix>3d</fix>
</trkpt>
<trkpt lat="-27.2744278" lon="151.2900902">
  <ele>345.53</ele>
  <time>2026-09-01T19:56:09Z</time>
  <course>335.67</course>
  <speed>0.022360679774997897</speed>
  <fix>3d</fix>
</trkpt>
<trkpt lat="-27.2744278" lon="151.29009">
  <ele>345.8</ele>
  <time>2026-09-01T19:56:09Z</time>
  <course>174.44</course>
  <speed>0.0</speed>
  <fix>3d</fix>
</trkpt>
<trkpt lat="-27.2744278" lon="151.2900902">
  <ele>345.49</ele>
  <time>2026-09-01T19:56:09Z</time>
  <course>335.78</course>
  <speed>0.022360679774997897</speed>
  <fix>3d</fix>
</trkpt>
<trkpt lat="-27.2744278" lon="151.29009">
  <ele>345.7</ele>
  <time>2026-09-01T19:56:09Z</time>
  <course>158.45</course>
  <speed>0.0</speed>
  <fix>3d</fix>
</trkpt>
<trkpt lat="-27.2744278" lon="151.2900902">
  <ele>345.44</ele>
  <time>2026-09-01T19:56:09Z</time>
  <course>335.89</course>
  <speed>0.022360679774997897</speed>
  <fix>3d</fix>
</trkpt>
<trkpt lat="-27.2744278" lon="151.29009">
  <ele>345.7</ele>
  <time>2026-09-01T19:56:09Z</time>
  <course>158.45</course>
  <speed>0.0</speed>
  <fix>3d</fix>
</trkpt>
<trkpt lat="-27.2744278" lon="151.2900902">
  <ele>345.39</ele>
  <time>2026-09-01T19:56:09Z</time>
  <course>335.97</course>
  <speed>0.022360679774997897</speed>
  <fix>3d</fix>
</trkpt>
<trkpt lat="-27.2744278" lon="151.29009">
  <ele>345.59</ele>
  <time>2026-09-01T19:56:09Z</time>
  <course>158.46</course>
  <speed>0.0</speed>
  <fix>3d</fix>
</trkpt>
<trkpt lat="-27.2744278" lon="151.2900902">
  <ele>345.34</ele>
  <time>2026-09-01T19:56:09Z</time>
  <course>336.02</course>
  <speed>0.022360679774997897</speed>
  <fix>3d</fix>
</trkpt>
<trkpt lat="-27.2744278" lon="151.29009">
  <ele>345.59</ele>
  <time>2026-09-01T19:56:09Z</time>
  <course>158.46</course>
  <speed>0.0</speed>
  <fix>3d</fix>
</trkpt>
<trkpt lat="-27.2744278" lon="151.2900902">
  <ele>345.29</ele>
  <time>2026-09-01T19:56:09Z</time>
  <course>336.04</course>
  <speed>0.022360679774997897</speed>
  <fix>3d</fix>
</trkpt>
<trkpt lat="-27.2744278" lon="151.29009">
  <ele>345.5</ele>
  <time>2026-09-01T19:56:09Z</time>
  <course>158.87</course>
  <speed>0.0</speed>
  <fix>3d</fix>
</trkpt>
<trkpt lat="-27.2744279" lon="151.2900902">
  <ele>345.24</ele>
  <time>2026-09-01T19:56:09Z</time>
  <course>336.04</course>
  <speed>0.022360679774997897</speed>
  <fix>3d</fix>
</trkpt>
<trkpt lat="-27.2744278" lon="151.29009">
  <ele>345.5</ele>
  <time>2026-09-01T19:56:09Z</time>
  <course>158.87</course>
  <speed>0.0</speed>
  <fix>3d</fix>
</trkpt>
<trkpt lat="-27.2744279" lon="151.2900902">
  <ele>345.19</ele>
  <time>2026-09-01T19:56:09Z</time>
  <course>336.01</course>
  <speed>0.022360679774997897</speed>
  <fix>3d</fix>
</trkpt>
<trkpt lat="-27.2744279" lon="151.29009">
  <ele>345.4</ele>
  <time>2026-09-01T19:56:09Z</time>
  <course>158.95</course>
  <speed>0.0</speed>
  <fix>3d</fix>
</trkpt>
<trkpt lat="-27.2744279" lon="151.2900902">
  <ele>345.14</ele>
  <time>2026-09-01T19:56:09Z</time>
  <course>335.98</course>
  <speed>0.022360679774997897</speed>
  <fix>3d</fix>
</trkpt>
<trkpt lat="-27.2744279" lon="151.29009">
  <ele>345.4</ele>
  <time>2026-09-01T19:56:09Z</time>
  <course>158.95</course>
  <speed>0.0</speed>
  <fix>3d</fix>
</trkpt>
<trkpt lat="-27.2744279" lon="151.2900902">
  <ele>345.1</ele>
  <time>2026-09-01T19:56:09Z</time>
  <course>335.95</course>
  <speed>0.022360679774997897</speed>
  <fix>3d</fix>
</trkpt>
<trkpt lat="-27.2744279" lon="151.29009">
  <ele>345.31</ele>
  <time>2026-09-01T19:56:09Z</time>
  <course>158.91</course>
  <speed>0.0</speed>
  <fix>3d</fix>
</trkpt>
<trkpt lat="-27.2744279" lon="151.2900902">
  <ele>345.05</ele>
  <time>2026-09-01T19:56:09Z</time>
  <course>335.93</course>
  <speed>0.022360679774997897</speed>
  <fix>3d</fix>
</trkpt>
<trkpt lat="-27.2744279" lon="151.29009">
  <ele>345.31</ele>
  <time>2026-09-01T19:56:09Z</time>
  <course>158.91</course>
  <speed>0.0</speed>
  <fix>3d</fix>
</trkpt>
<trkpt lat="-27.2744279" lon="151.2900902">
  <ele>345.0</ele>
  <time>2026-09-01T19:56:09Z</time>
  <course>335.92</course>
  <speed>0.022360679774997897</speed>
  <fix>3d</fix>
</trkpt>
<trkpt lat="-27.2744279" lon="151.29009">
  <ele>345.21</ele>
  <time>2026-09-01T19:56:09Z</time>
  <course>159.51</course>
  <speed>0.0</speed>
  <fix>3d</fix>
</trkpt>
<trkpt lat="-27.2744279" lon="151.2900902">
  <ele>344.95</ele>
  <time>2026-09-01T19:56:09Z</time>
  <course>335.92</course>
  <speed>0.022360679774997897</speed>
  <fix>3d</fix>
</trkpt>
<trkpt lat="-27.2744279" lon="151.29009">
  <ele>345.21</ele>
  <time>2026-09-01T19:56:09Z</time>
  <course>159.51</course>
  <speed>0.0</speed>
  <fix>3d</fix>
</trkpt>
<trkpt lat="-27.2744279" lon="151.2900902">
  <ele>344.9</ele>
  <time>2026-09-01T19:56:09Z</time>
  <course>335.93</course>
  <speed>0.022360679774997897</speed>
  <fix>3d</fix>
</trkpt>
<trkpt lat="-27.2744279" lon="151.29009">
  <ele>345.1</ele>
  <time>2026-09-01T19:56:09Z</time>
  <course>160.81</course>
  <speed>0.0</speed>
  <fix>3d</fix>
</trkpt>
<trkpt lat="-27.2744279" lon="151.2900902">
  <ele>344.85</ele>
  <time>2026-09-01T19:56:09Z</time>
  <course>335.95</course>
  <speed>0.022360679774997897</speed>
  <fix>3d</fix>
</trkpt>
<trkpt lat="-27.2744279" lon="151.29009">
  <ele>345.1</ele>
  <time>2026-09-01T19:56:09Z</time>
  <course>160.81</course>
  <speed>0.0</speed>
  <fix>3d</fix>
</trkpt>
<trkpt lat="-27.2744279" lon="151.2900902">
  <ele>344.8</ele>
  <time>2026-09-01T19:56:09Z</time>
  <course>335.97</course>
  <speed>0.022360679774997897</speed>
  <fix>3d</fix>
</trkpt>
<trkpt lat="-27.2744279" lon="151.29009">
  <ele>345.0</ele>
  <time>2026-09-01T19:56:09Z</time>
  <course>162.21</course>
  <speed>0.0</speed>
  <fix>3d</fix>
</trkpt>
<trkpt lat="-27.2744279" lon="151.2900902">
  <ele>344.75</ele>
  <time>2026-09-01T19:56:09Z</time>
  <course>336.0</course>
  <speed>0.022360679774997897</speed>
  <fix>3d</fix>
</trkpt>
<trkpt lat="-27.2744279" lon="151.29009">
  <ele>345.0</ele>
  <time>2026-09-01T19:56:09Z</time>
  <course>162.21</course>
  <speed>0.0</speed>
  <fix>3d</fix>
</trkpt>
<trkpt lat="-27.2744279" lon="151.2900902">
  <ele>344.7</ele>
  <time>2026-09-01T19:56:09Z</time>
  <course>336.02</course>
  <speed>0.022360679774997897</speed>
  <fix>3d</fix>
</trkpt>
<trkpt lat="-27.2744279" lon="151.29009">
  <ele>344.9</ele>
  <time>2026-09-01T19:56:09Z</time>
  <course>163.94</course>
  <speed>0.0</speed>
  <fix>3d</fix>
</trkpt>
<trkpt lat="-27.2744279" lon="151.2900902">
  <ele>344.65</ele>
  <time>2026-09-01T19:56:09Z</time>
  <course>336.03</course>
  <speed>0.022360679774997897</speed>
  <fix>3d</fix>
</trkpt>
<trkpt lat="-27.2744279" lon="151.29009">
  <ele>344.9</ele>
  <time>2026-09-01T19:56:09Z</time>
  <course>163.94</course>
  <speed>0.0</speed>
  <fix>3d</fix>
</trkpt>
<trkpt lat="-27.274428" lon="151.2900902">
  <ele>344.59</ele>
  <time>2026-09-01T19:56:09Z</time>
  <course>336.04</course>
  <speed>0.022360679774997897</speed>
  <fix>3d</fix>
</trkpt>
<trkpt lat="-27.274428" lon="151.29009">
  <ele>344.8</ele>
  <time>2026-09-01T19:56:09Z</time>
  <course>164.82</course>
  <speed>0.0</speed>
  <fix>3d</fix>
</trkpt>
<trkpt lat="-27.274428" lon="151.2900902">
  <ele>344.54</ele>
  <time>2026-09-01T19:56:09Z</time>
  <course>336.06</course>
  <speed>0.022360679774997897</speed>
  <fix>3d</fix>
</trkpt>
<trkpt lat="-27.274428" lon="151.29009">
  <ele>344.8</ele>
  <time>2026-09-01T19:56:09Z</time>
  <course>164.82</course>
  <speed>0.0</speed>
  <fix>3d</fix>
</trkpt>
<trkpt lat="-27.274428" lon="151.2900902">
  <ele>344.49</ele>
  <time>2026-09-01T19:56:09Z</time>
  <course>336.08</course>
  <speed>0.022360679774997897</speed>
  <fix>3d</fix>
</trkpt>
<trkpt lat="-27.274428" lon="151.29009">
  <ele>344.7</ele>
  <time>2026-09-01T19:56:09Z</time>
  <course>166.89</course>
  <speed>0.0</speed>
  <fix>3d</fix>
</trkpt>
<trkpt lat="-27.274428" lon="151.2900902">
  <ele>344.44</ele>
  <time>2026-09-01T19:56:09Z</time>
  <course>336.1</course>
  <speed>0.022360679774997897</speed>
  <fix>3d</fix>
</trkpt>
<trkpt lat="-27.274428" lon="151.29009">
  <ele>344.7</ele>
  <time>2026-09-01T19:56:09Z</time>
  <course>166.89</course>
  <speed>0.0</speed>
  <fix>3d</fix>
</trkpt>
<trkpt lat="-27.274428" lon="151.2900902">
  <ele>344.39</ele>
  <time>2026-09-01T19:56:09Z</time>
  <course>336.11</course>
  <speed>0.022360679774997897</speed>
  <fix>3d</fix>
</trkpt>
<trkpt lat="-27.274428" lon="151.29009">
  <ele>344.59</ele>
  <time>2026-09-01T19:56:09Z</time>
  <course>171.24</course>
  <speed>0.0</speed>
  <fix>3d</fix>
</trkpt>
<trkpt lat="-27.274428" lon="151.2900902">
  <ele>344.34</ele>
  <time>2026-09-01T19:56:09Z</time>
  <course>336.13</course>
  <speed>0.022360679774997897</speed>
  <fix>3d</fix>
</trkpt>
<trkpt lat="-27.274428" lon="151.29009">
  <ele>344.59</ele>
  <time>2026-09-01T19:56:09Z</time>
  <course>171.24</course>
  <speed>0.0</speed>
  <fix>3d</fix>
</trkpt>
<trkpt lat="-27.274428" lon="151.2900902">
  <ele>344.29</ele>
  <time>2026-09-01T19:56:09Z</time>
  <course>336.15</course>
  <speed>0.022360679774997897</speed>
  <fix>3d</fix>
</trkpt>
<trkpt lat="-27.274428" lon="151.29009">
  <ele>344.49</ele>
  <time>2026-09-01T19:56:09Z</time>
  <course>179.4</course>
  <speed>0.0</speed>
  <fix>3d</fix>
</trkpt>
<trkpt lat="-27.274428" lon="151.2900902">
  <ele>344.24</ele>
  <time>2026-09-01T19:56:09Z</time>
  <course>336.17</course>
  <speed>0.022360679774997897</speed>
  <fix>3d</fix>
</trkpt>
<trkpt lat="-27.274428" lon="151.29009">
  <ele>344.49</ele>
  <time>2026-09-01T19:56:09Z</time>
  <course>179.4</course>
  <speed>0.0</speed>
  <fix>3d</fix>
</trkpt>
<trkpt lat="-27.274428" lon="151.2900902">
  <ele>344.19</ele>
  <time>2026-09-01T19:56:09Z</time>
  <course>336.18</course>
  <speed>0.022360679774997897</speed>
  <fix>3d</fix>
</trkpt>
<trkpt lat="-27.274428" lon="151.29009">
  <ele>344.39</ele>
  <time>2026-09-01T19:56:09Z</time>
  <course>192.89</course>
  <speed>0.0</speed>
  <fix>3d</fix>
</trkpt>
<trkpt lat="-27.274428" lon="151.2900902">
  <ele>344.14</ele>
  <time>2026-09-01T19:56:09Z</time>
  <course>336.18</course>
  <speed>0.022360679774997897</speed>
  <fix>3d</fix>
</trkpt>
<trkpt lat="-27.274428" lon="151.29009">
  <ele>344.39</ele>
  <time>2026-09-01T19:56:09Z</time>
  <course>192.89</course>
  <speed>0.0</speed>
  <fix>3d</fix>
</trkpt>
<trkpt lat="-27.274428" lon="151.2900902">
  <ele>344.09</ele>
  <time>2026-09-01T19:56:09Z</time>
  <course>336.17</course>
  <speed>0.022360679774997897</speed>
  <fix>3d</fix>
</trkpt>
<trkpt lat="-27.274428" lon="151.29009">
  <ele>344.28</ele>
  <time>2026-09-01T19:56:09Z</time>
  <course>200.91</course>
  <speed>0.0</speed>
  <fix>3d</fix>
</trkpt>
<trkpt lat="-27.274428" lon="151.2900902">
  <ele>344.04</ele>
  <time>2026-09-01T19:56:09Z</time>
  <course>336.17</course>
  <speed>0.022360679774997897</speed>
  <fix>3d</fix>
</trkpt>
<trkpt lat="-27.274428" lon="151.29009">
  <ele>344.28</ele>
  <time>2026-09-01T19:56:09Z</time>
  <course>200.91</course>
  <speed>0.0</speed>
  <fix>3d</fix>
</trkpt>
<trkpt lat="-27.274428" lon="151.2900902">
  <ele>343.99</ele>
  <time>2026-09-01T19:56:09Z</time>
  <course>336.17</course>
  <speed>0.022360679774997897</speed>
  <fix>3d</fix>
</trkpt>
<trkpt lat="-27.274428" lon="151.29009">
  <ele>344.19</ele>
  <time>2026-09-01T19:56:09Z</time>
  <course>204.06</course>
  <speed>0.0</speed>
  <fix>3d</fix>
</trkpt>
<trkpt lat="-27.274428" lon="151.2900902">
  <ele>343.94</ele>
  <time>2026-09-01T19:56:09Z</time>
  <course>336.17</course>
  <speed>0.022360679774997897</speed>
  <fix>3d</fix>
</trkpt>
<trkpt lat="-27.274428" lon="151.29009">
  <ele>344.19</ele>
  <time>2026-09-01T19:56:09Z</time>
  <course>204.06</course>
  <speed>0.0</speed>
  <fix>3d</fix>
</trkpt>
<trkpt lat="-27.274428" lon="151.2900902">
  <ele>343.89</ele>
  <time>2026-09-01T19:56:09Z</time>
  <course>336.18</course>
  <speed>0.022360679774997897</speed>
  <fix>3d</fix>
</trkpt>
<trkpt lat="-27.274428" lon="151.29009">
  <ele>344.09</ele>
  <time>2026-09-01T19:56:09Z</time>
  <course>210.22</course>
  <speed>0.0</speed>
  <fix>3d</fix>
</trkpt>
<trkpt lat="-27.274428" lon="151.2900902">
  <ele>343.84</ele>
  <time>2026-09-01T19:56:09Z</time>
  <course>336.18</course>
  <speed>0.022360679774997897</speed>
  <fix>3d</fix>
</trkpt>
<trkpt lat="-27.274428" lon="151.29009">
  <ele>344.09</ele>
  <time>2026-09-01T19:56:09Z</time>
  <course>210.22</course>
  <speed>0.0</speed>
  <fix>3d</fix>
</trkpt>
<trkpt lat="-27.274428" lon="151.2900902">
  <ele>343.79</ele>
  <time>2026-09-01T19:56:09Z</time>
  <course>336.18</course>
  <speed>0.022360679774997897</speed>
  <fix>3d</fix>
</trkpt>
<trkpt lat="-27.274428" lon="151.29009">
  <ele>343.99</ele>
  <time>2026-09-01T19:56:09Z</time>
  <course>225.54</course>
  <speed>0.0</speed>
  <fix>3d</fix>
</trkpt>
<trkpt lat="-27.274428" lon="151.2900902">
  <ele>343.74</ele>
  <time>2026-09-01T19:56:09Z</time>
  <course>336.15</course>
  <speed>0.02</speed>
  <fix>3d</fix>
</trkpt>
<trkpt lat="-27.274428" lon="151.29009">
  <ele>343.99</ele>
  <time>2026-09-01T19:56:09Z</time>
  <course>225.54</course>
  <speed>0.0</speed>
  <fix>3d</fix>
</trkpt>
<trkpt lat="-27.274428" lon="151.2900902">
  <ele>343.69</ele>
  <time>2026-09-01T19:56:09Z</time>
  <course>336.1</course>
  <speed>0.02</speed>
  <fix>3d</fix>
</trkpt>
<trkpt lat="-27.274428" lon="151.29009">
  <ele>343.89</ele>
  <time>2026-09-01T19:56:09Z</time>
  <course>280.39</course>
  <speed>0.0</speed>
  <fix>3d</fix>
</trkpt>
<trkpt lat="-27.274428" lon="151.2900902">
  <ele>343.64</ele>
  <time>2026-09-01T19:56:09Z</time>
  <course>336.04</course>
  <speed>0.02</speed>
  <fix>3d</fix>
</trkpt>
<trkpt lat="-27.274428" lon="151.29009">
  <ele>343.89</ele>
  <time>2026-09-01T19:56:09Z</time>
  <course>280.39</course>
  <speed>0.0</speed>
  <fix>3d</fix>
</trkpt>
<trkpt lat="-27.274428" lon="151.2900902">
  <ele>343.59</ele>
  <time>2026-09-01T19:56:09Z</time>
  <course>335.99</course>
  <speed>0.02</speed>
  <fix>3d</fix>
</trkpt>
<trkpt lat="-27.274428" lon="151.29009">
  <ele>343.79</ele>
  <time>2026-09-01T19:56:09Z</time>
  <course>38.5</course>
  <speed>0.0</speed>
  <fix>3d</fix>
</trkpt>
<trkpt lat="-27.274428" lon="151.2900902">
  <ele>343.54</ele>
  <time>2026-09-01T19:56:09Z</time>
  <course>335.94</course>
  <speed>0.02</speed>
  <fix>3d</fix>
</trkpt>
<trkpt lat="-27.274428" lon="151.29009">
  <ele>343.79</ele>
  <time>2026-09-01T19:56:09Z</time>
  <course>38.5</course>
  <speed>0.0</speed>
  <fix>3d</fix>
</trkpt>
<trkpt lat="-27.274428" lon="151.2900902">
  <ele>343.49</ele>
  <time>2026-09-01T19:56:09Z</time>
  <course>335.91</course>
  <speed>0.03</speed>
  <fix>3d</fix>
</trkpt>
<trkpt lat="-27.274428" lon="151.29009">
  <ele>343.7</ele>
  <time>2026-09-01T19:56:09Z</time>
  <course>44.3</course>
  <speed>0.0</speed>
  <fix>3d</fix>
</trkpt>
<trkpt lat="-27.274428" lon="151.2900902">
  <ele>343.44</ele>
  <time>2026-09-01T19:56:09Z</time>
  <course>335.9</course>
  <speed>0.03</speed>
  <fix>3d</fix>
</trkpt>
<trkpt lat="-27.274428" lon="151.29009">
  <ele>343.7</ele>
  <time>2026-09-01T19:56:09Z</time>
  <course>44.3</course>
  <speed>0.0</speed>
  <fix>3d</fix>
</trkpt>
<trkpt lat="-27.274428" lon="151.2900902">
  <ele>343.39</ele>
  <time>2026-09-01T19:56:09Z</time>
  <course>335.91</course>
  <speed>0.03</speed>
  <fix>3d</fix>
</trkpt>
<trkpt lat="-27.274428" lon="151.29009">
  <ele>343.59</ele>
  <time>2026-09-01T19:56:09Z</time>
  <course>47.71</course>
  <speed>0.01</speed>
  <fix>3d</fix>
</trkpt>
<trkpt lat="-27.274428" lon="151.2900902">
  <ele>343.34</ele>
  <time>2026-09-01T19:56:09Z</time>
  <course>335.93</course>
  <speed>0.03</speed>
  <fix>3d</fix>
</trkpt>
<trkpt lat="-27.274428" lon="151.29009">
  <ele>343.59</ele>
  <time>2026-09-01T19:56:09Z</time>
  <course>47.71</course>
  <speed>0.01</speed>
  <fix>3d</fix>
</trkpt>
<trkpt lat="-27.274428" lon="151.2900902">
  <ele>343.29</ele>
  <time>2026-09-01T19:56:09Z</time>
  <course>335.95</course>
  <speed>0.03</speed>
  <fix>3d</fix>
</trkpt>
<trkpt lat="-27.274428" lon="151.29009">
  <ele>343.5</ele>
  <time>2026-09-01T19:56:09Z</time>
  <course>50.73</course>
  <speed>0.01</speed>
  <fix>3d</fix>
</trkpt>
<trkpt lat="-27.274428" lon="151.2900902">
  <ele>343.24</ele>
  <time>2026-09-01T19:56:09Z</time>
  <course>335.97</course>
  <speed>0.03</speed>
  <fix>3d</fix>
</trkpt>
<trkpt lat="-27.274428" lon="151.29009">
  <ele>343.5</ele>
  <time>2026-09-01T19:56:09Z</time>
  <course>50.73</course>
  <speed>0.01</speed>
  <fix>3d</fix>
</trkpt>
<trkpt lat="-27.274428" lon="151.2900902">
  <ele>343.19</ele>
  <time>2026-09-01T19:56:09Z</time>
  <course>335.98</course>
  <speed>0.03</speed>
  <fix>3d</fix>
</trkpt>
<trkpt lat="-27.274428" lon="151.29009">
  <ele>343.4</ele>
  <time>2026-09-01T19:56:09Z</time>
  <course>51.56</course>
  <speed>0.01</speed>
  <fix>3d</fix>
</trkpt>
<trkpt lat="-27.274428" lon="151.2900902">
  <ele>343.14</ele>
  <time>2026-09-01T19:56:09Z</time>
  <course>335.99</course>
  <speed>0.03</speed>
  <fix>3d</fix>
</trkpt>
<trkpt lat="-27.274428" lon="151.29009">
  <ele>343.4</ele>
  <time>2026-09-01T19:56:09Z</time>
  <course>51.56</course>
  <speed>0.01</speed>
  <fix>3d</fix>
</trkpt>
<trkpt lat="-27.274428" lon="151.2900903">
  <ele>343.09</ele>
  <time>2026-09-01T19:56:09Z</time>
  <course>336.0</course>
  <speed>0.03</speed>
  <fix>3d</fix>
</trkpt>
<trkpt lat="-27.274428" lon="151.29009">
  <ele>343.3</ele>
  <time>2026-09-01T19:56:09Z</time>
  <course>51.64</course>
  <speed>0.01</speed>
  <fix>3d</fix>
</trkpt>
<trkpt lat="-27.274428" lon="151.2900903">
  <ele>343.04</ele>
  <time>2026-09-01T19:56:09Z</time>
  <course>335.99</course>
  <speed>0.03</speed>
  <fix>3d</fix>
</trkpt>
<trkpt lat="-27.274428" lon="151.29009">
  <ele>343.3</ele>
  <time>2026-09-01T19:56:09Z</time>
  <course>51.64</course>
  <speed>0.01</speed>
  <fix>3d</fix>
</trkpt>
<trkpt lat="-27.274428" lon="151.2900903">
  <ele>342.99</ele>
  <time>2026-09-01T19:56:09Z</time>
  <course>335.99</course>
  <speed>0.03</speed>
  <fix>3d</fix>
</trkpt>
<trkpt lat="-27.274428" lon="151.29009">
  <ele>343.2</ele>
  <time>2026-09-01T19:56:09Z</time>
  <course>52.5</course>
  <speed>0.02</speed>
  <fix>3d</fix>
</trkpt>
<trkpt lat="-27.274428" lon="151.2900903">
  <ele>342.97</ele>
  <time>2026-09-01T19:56:09Z</time>
  <course>335.99</course>
  <speed>0.022360679774997897</speed>
  <fix>3d</fix>
</trkpt>
<trkpt lat="-27.274428" lon="151.29009">
  <ele>343.2</ele>
  <time>2026-09-01T19:56:09Z</time>
  <course>52.5</course>
  <speed>0.02</speed>
  <fix>3d</fix>
</trkpt>
<trkpt lat="-27.274428" lon="151.2900903">
  <ele>342.98</ele>
  <time>2026-09-01T19:56:09Z</time>
  <course>335.99</course>
  <speed>0.01414213562373095</speed>
  <fix>3d</fix>
</trkpt>
<trkpt lat="-27.274428" lon="151.29009">
  <ele>343.11</ele>
  <time>2026-09-01T19:56:09Z</time>
  <course>53.0</course>
  <speed>0.01</speed>
  <fix>3d</fix>
</trkpt>
<trkpt lat="-27.274428" lon="151.2900903">
  <ele>343.0</ele>
  <time>2026-09-01T19:56:09Z</time>
  <course>335.99</course>
  <speed>0.01414213562373095</speed>
  <fix>3d</fix>
</trkpt>
<trkpt lat="-27.274428" lon="151.29009">
  <ele>343.11</ele>
  <time>2026-09-01T19:56:09Z</time>
  <course>53.0</course>
  <speed>0.01</speed>
  <fix>3d</fix>
</trkpt>
<trkpt lat="-27.274428" lon="151.2900902">
  <ele>343.01</ele>
  <time>2026-09-01T19:56:09Z</time>
  <course>335.99</course>
  <speed>0.01414213562373095</speed>
  <fix>3d</fix>
</trkpt>
<trkpt lat="-27.274428" lon="151.29009">
  <ele>343.09</ele>
  <time>2026-09-01T19:56:09Z</time>
  <course>233.21</course>
  <speed>0.0</speed>
  <fix>3d</fix>
</trkpt>
<trkpt lat="-27.274428" lon="151.2900902">
  <ele>343.01</ele>
  <time>2026-09-01T19:56:09Z</time>
  <course>335.99</course>
  <speed>0.022360679774997897</speed>
  <fix>3d</fix>
</trkpt>
<trkpt lat="-27.274428" lon="151.29009">
  <ele>343.09</ele>
  <time>2026-09-01T19:56:09Z</time>
  <course>233.21</course>
  <speed>0.0</speed>
  <fix>3d</fix>
</trkpt>
<trkpt lat="-27.274428" lon="151.2900902">
  <ele>343.01</ele>
  <time>2026-09-01T19:56:09Z</time>
  <course>335.99</course>
  <speed>0.022360679774997897</speed>
  <fix>3d</fix>
</trkpt>
<trkpt lat="-27.274428" lon="151.29009">
  <ele>343.1</ele>
  <time>2026-09-01T19:56:09Z</time>
  <course>233.2</course>
  <speed>0.0</speed>
  <fix>3d</fix>
</trkpt>
<trkpt lat="-27.274428" lon="151.2900902">
  <ele>343.0</ele>
  <time>2026-09-01T19:56:09Z</time>
  <course>335.99</course>
  <speed>0.01414213562373095</speed>
  <fix>3d</fix>
</trkpt>
<trkpt lat="-27.274428" lon="151.29009">
  <ele>343.1</ele>
  <time>2026-09-01T19:56:09Z</time>
  <course>233.2</course>
  <speed>0.0</speed>
  <fix>3d</fix>
</trkpt>
<trkpt lat="-27.274428" lon="151.2900902">
  <ele>343.0</ele>
  <time>2026-09-01T19:56:09Z</time>
  <course>335.99</course>
  <speed>0.01414213562373095</speed>
  <fix>3d</fix>
</trkpt>
<trkpt lat="-27.274428" lon="151.29009">
  <ele>343.1</ele>
  <time>2026-09-01T19:56:09Z</time>
  <course>53.2</course>
  <speed>0.0</speed>
  <fix>3d</fix>
</trkpt>
<trkpt lat="-27.274428" lon="151.2900902">
  <ele>343.0</ele>
  <time>2026-09-01T19:56:09Z</time>
  <course>335.99</course>
  <speed>0.01414213562373095</speed>
  <fix>3d</fix>
</trkpt>
<trkpt lat="-27.274428" lon="151.29009">
  <ele>343.1</ele>
  <time>2026-09-01T19:56:09Z</time>
  <course>53.2</course>
  <speed>0.0</speed>
  <fix>3d</fix>
</trkpt>
<trkpt lat="-27.274428" lon="151.2900902">
  <ele>343.0</ele>
  <time>2026-09-01T19:56:09Z</time>
  <course>335.99</course>
  <speed>0.01414213562373095</speed>
  <fix>3d</fix>
</trkpt>
<trkpt lat="-27.274428" lon="151.29009">
  <ele>343.1</ele>
  <time>2026-09-01T19:56:09Z</time>
  <course>53.2</course>
  <speed>0.0</speed>
  <fix>3d</fix>
</trkpt>
<trkpt lat="-27.274428" lon="151.2900902">
  <ele>343.0</ele>
  <time>2026-09-01T19:56:09Z</time>
  <course>335.99</course>
  <speed>0.01414213562373095</speed>
  <fix>3d</fix>
</trkpt>
<trkpt lat="-27.274428" lon="151.29009">
  <ele>343.1</ele>
  <time>2026-09-01T19:56:09Z</time>
  <course>53.2</course>
  <speed>0.0</speed>
  <fix>3d</fix>
</trkpt>
<trkpt lat="-27.274428" lon="151.2900902">
  <ele>343.0</ele>
  <time>2026-09-01T19:56:09Z</time>
  <course>335.99</course>
  <speed>0.01414213562373095</speed>
  <fix>3d</fix>
</trkpt>
<trkpt lat="-27.274428" lon="151.29009">
  <ele>343.1</ele>
  <time>2026-09-01T19:56:09Z</time>
  <course>233.23</course>
  <speed>0.0</speed>
  <fix>3d</fix>
</trkpt>
<trkpt lat="-27.274428" lon="151.2900902">
  <ele>343.0</ele>
  <time>2026-09-01T19:56:09Z</time>
  <course>335.99</course>
  <speed>0.01414213562373095</speed>
  <fix>3d</fix>
</trkpt>
<trkpt lat="-27.274428" lon="151.29009">
  <ele>343.1</ele>
  <time>2026-09-01T19:56:09Z</time>
  <course>233.23</course>
  <speed>0.0</speed>
  <fix>3d</fix>
</trkpt>
<trkpt lat="-27.274428" lon="151.2900902">
  <ele>343.0</ele>
  <time>2026-09-01T19:56:09Z</time>
  <course>335.99</course>
  <speed>0.01414213562373095</speed>
  <fix>3d</fix>
</trkpt>
<trkpt lat="-27.274428" lon="151.29009">
  <ele>343.1</ele>
  <time>2026-09-01T19:56:09Z</time>
  <course>233.33</course>
  <speed>0.0</speed>
  <fix>3d</fix>
</trkpt>
<trkpt lat="-27.274428" lon="151.2900902">
  <ele>343.0</ele>
  <time>2026-09-01T19:56:09Z</time>
  <course>335.99</course>
  <speed>0.01414213562373095</speed>
  <fix>3d</fix>
</trkpt>
<trkpt lat="-27.274428" lon="151.29009">
  <ele>343.1</ele>
  <time>2026-09-01T19:56:09Z</time>
  <course>233.33</course>
  <speed>0.0</speed>
  <fix>3d</fix>
</trkpt>
<trkpt lat="-27.274428" lon="151.2900902">
  <ele>343.0</ele>
  <time>2026-09-01T19:56:09Z</time>
  <course>335.99</course>
  <speed>0.01414213562373095</speed>
  <fix>3d</fix>
</trkpt>
<trkpt lat="-27.274428" lon="151.29009">
  <ele>343.1</ele>
  <time>2026-09-01T19:56:09Z</time>
  <course>53.14</course>
  <speed>0.0</speed>
  <fix>3d</fix>
</trkpt>
<trkpt lat="-27.274428" lon="151.2900902">
  <ele>343.0</ele>
  <time>2026-09-01T19:56:09Z</time>
  <course>335.99</course>
  <speed>0.01414213562373095</speed>
  <fix>3d</fix>
</trkpt>
<trkpt lat="-27.274428" lon="151.29009">
  <ele>343.1</ele>
  <time>2026-09-01T19:56:09Z</time>
  <course>53.14</course>
  <speed>0.0</speed>
  <fix>3d</fix>
</trkpt>
<trkpt lat="-27.274428" lon="151.2900902">
  <ele>343.0</ele>
  <time>2026-09-01T19:56:09Z</time>
  <course>335.99</course>
  <speed>0.01414213562373095</speed>
  <fix>3d</fix>
</trkpt>
<trkpt lat="-27.274428" lon="151.29009">
  <ele>343.1</ele>
  <time>2026-09-01T19:56:09Z</time>
  <course>52.98</course>
  <speed>0.0</speed>
  <fix>3d</fix>
</trkpt>
<trkpt lat="-27.2744281" lon="151.2900902">
  <ele>343.0</ele>
  <time>2026-09-01T19:56:09Z</time>
  <course>335.99</course>
  <speed>0.01414213562373095</speed>
  <fix>3d</fix>
</trkpt>
<trkpt lat="-27.274428" lon="151.29009">
  <ele>343.1</ele>
  <time>2026-09-01T19:56:09Z</time>
  <course>52.98</course>
  <speed>0.0</speed>
  <fix>3d</fix>
</trkpt>
<trkpt lat="-27.2744281" lon="151.2900902">
  <ele>343.01</ele>
  <time>2026-09-01T19:56:09Z</time>
  <course>335.99</course>
  <speed>0.01414213562373095</speed>
  <fix>3d</fix>
</trkpt>
<trkpt lat="-27.274428" lon="151.29009">
  <ele>343.1</ele>
  <time>2026-09-01T19:56:09Z</time>
  <course>233.6</course>
  <speed>0.0</speed>
  <fix>3d</fix>
</trkpt>
<trkpt lat="-27.2744281" lon="151.2900902">
  <ele>343.01</ele>
  <time>2026-09-01T19:56:09Z</time>
  <course>335.99</course>
  <speed>0.01414213562373095</speed>
  <fix>3d</fix>
</trkpt>
<trkpt lat="-27.274428" lon="151.29009">
  <ele>343.1</ele>
  <time>2026-09-01T19:56:09Z</time>
  <course>233.6</course>
  <speed>0.0</speed>
  <fix>3d</fix>
</trkpt>
<trkpt lat="-27.2744281" lon="151.2900902">
  <ele>343.01</ele>
  <time>2026-09-01T19:56:09Z</time>
  <course>335.99</course>
  <speed>0.01414213562373095</speed>
  <fix>3d</fix>
</trkpt>
<trkpt lat="-27.274428" lon="151.29009">
  <ele>343.1</ele>
  <time>2026-09-01T19:56:09Z</time>
  <course>51.31</course>
  <speed>0.0</speed>
  <fix>3d</fix>
</trkpt>
<trkpt lat="-27.2744281" lon="151.2900902">
  <ele>343.01</ele>
  <time>2026-09-01T19:56:09Z</time>
  <course>335.99</course>
  <speed>0.01414213562373095</speed>
  <fix>3d</fix>
</trkpt>
<trkpt lat="-27.274428" lon="151.29009">
  <ele>343.1</ele>
  <time>2026-09-01T19:56:09Z</time>
  <course>51.31</course>
  <speed>0.0</speed>
  <fix>3d</fix>
</trkpt>
<trkpt lat="-27.2744281" lon="151.2900902">
  <ele>343.01</ele>
  <time>2026-09-01T19:56:09Z</time>
  <course>335.99</course>
  <speed>0.01414213562373095</speed>
  <fix>3d</fix>
</trkpt>
<trkpt lat="-27.274428" lon="151.29009">
  <ele>343.1</ele>
  <time>2026-09-01T19:56:09Z</time>
  <course>60.21</course>
  <speed>0.0</speed>
  <fix>3d</fix>
</trkpt>
<trkpt lat="-27.2744281" lon="151.2900902">
  <ele>343.01</ele>
  <time>2026-09-01T19:56:09Z</time>
  <course>335.99</course>
  <speed>0.01414213562373095</speed>
  <fix>3d</fix>
</trkpt>
<trkpt lat="-27.274428" lon="151.29009">
  <ele>343.1</ele>
  <time>2026-09-01T19:56:09Z</time>
  <course>60.21</course>
  <speed>0.0</speed>
  <fix>3d</fix>
</trkpt>
<trkpt lat="-27.2744281" lon="151.2900902">
  <ele>343.01</ele>
  <time>2026-09-01T19:56:09Z</time>
  <course>335.99</course>
  <speed>0.01414213562373095</speed>
  <fix>3d</fix>
</trkpt>
<trkpt lat="-27.274428" lon="151.29009">
  <ele>343.1</ele>
  <time>2026-09-01T19:56:09Z</time>
  <course>92.5</course>
  <speed>0.0</speed>
  <fix>3d</fix>
</trkpt>
<trkpt lat="-27.2744281" lon="151.2900902">
  <ele>343.01</ele>
  <time>2026-09-01T19:56:09Z</time>
  <course>335.99</course>
  <speed>0.01414213562373095</speed>
  <fix>3d</fix>
</trkpt>
<trkpt lat="-27.274428" lon="151.29009">
  <ele>343.1</ele>
  <time>2026-09-01T19:56:09Z</time>
  <course>92.5</course>
  <speed>0.0</speed>
  <fix>3d</fix>
</trkpt>
<trkpt lat="-27.2744281" lon="151.2900902">
  <ele>343.01</ele>
  <time>2026-09-01T19:56:09Z</time>
  <course>335.99</course>
  <speed>0.01414213562373095</speed>
  <fix>3d</fix>
</trkpt>
<trkpt lat="-27.274428" lon="151.29009">
  <ele>343.1</ele>
  <time>2026-09-01T19:56:09Z</time>
  <course>83.95</course>
  <speed>0.0</speed>
  <fix>3d</fix>
</trkpt>
<trkpt lat="-27.2744281" lon="151.2900902">
  <ele>343.01</ele>
  <time>2026-09-01T19:56:09Z</time>
  <course>335.99</course>
  <speed>0.01414213562373095</speed>
  <fix>3d</fix>
</trkpt>
<trkpt lat="-27.274428" lon="151.29009">
  <ele>343.1</ele>
  <time>2026-09-01T19:56:09Z</time>
  <course>83.95</course>
  <speed>0.0</speed>
  <fix>3d</fix>
</trkpt>
<trkpt lat="-27.2744281" lon="151.2900902">
  <ele>343.01</ele>
  <time>2026-09-01T19:56:09Z</time>
  <course>335.99</course>
  <speed>0.01414213562373095</speed>
  <fix>3d</fix>
</trkpt>
<trkpt lat="-27.274428" lon="151.29009">
  <ele>343.1</ele>
  <time>2026-09-01T19:56:09Z</time>
  <course>85.83</course>
  <speed>0.0</speed>
  <fix>3d</fix>
</trkpt>
<trkpt lat="-27.2744281" lon="151.2900902">
  <ele>343.02</ele>
  <time>2026-09-01T19:56:09Z</time>
  <course>335.99</course>
  <speed>0.022360679774997897</speed>
  <fix>3d</fix>
</trkpt>
<trkpt lat="-27.274428" lon="151.29009">
  <ele>343.1</ele>
  <time>2026-09-01T19:56:09Z</time>
  <course>85.83</course>
  <speed>0.0</speed>
  <fix>3d</fix>
</trkpt>
<trkpt lat="-27.2744281" lon="151.2900902">
  <ele>343.02</ele>
  <time>2026-09-01T19:56:09Z</time>
  <course>335.99</course>
  <speed>0.022360679774997897</speed>
  <fix>3d</fix>
</trkpt>
<trkpt lat="-27.274428" lon="151.29009">
  <ele>343.1</ele>
  <time>2026-09-01T19:56:09Z</time>
  <course>115.83</course>
  <speed>0.0</speed>
  <fix>3d</fix>
</trkpt>
<trkpt lat="-27.2744281" lon="151.2900902">
  <ele>343.02</ele>
  <time>2026-09-01T19:56:09Z</time>
  <course>335.99</course>
  <speed>0.022360679774997897</speed>
  <fix>3d</fix>
</trkpt>
<trkpt lat="-27.274428" lon="151.29009">
  <ele>343.1</ele>
  <time>2026-09-01T19:56:09Z</time>
  <course>115.83</course>
  <speed>0.0</speed>
  <fix>3d</fix>
</trkpt>
<trkpt lat="-27.2744281" lon="151.2900902">
  <ele>343.02</ele>
  <time>2026-09-01T19:56:09Z</time>
  <course>335.98</course>
  <speed>0.022360679774997897</speed>
  <fix>3d</fix>
</trkpt>
<trkpt lat="-27.274428" lon="151.29009">
  <ele>343.1</ele>
  <time>2026-09-01T19:56:09Z</time>
  <course>117.86</course>
  <speed>0.0</speed>
  <fix>3d</fix>
</trkpt>
<trkpt lat="-27.2744281" lon="151.2900902">
  <ele>343.02</ele>
  <time>2026-09-01T19:56:09Z</time>
  <course>335.98</course>
  <speed>0.022360679774997897</speed>
  <fix>3d</fix>
</trkpt>
<trkpt lat="-27.274428" lon="151.29009">
  <ele>343.1</ele>
  <time>2026-09-01T19:56:09Z</time>
  <course>117.86</course>
  <speed>0.0</speed>
  <fix>3d</fix>
</trkpt>
<trkpt lat="-27.2744281" lon="151.2900902">
  <ele>343.02</ele>
  <time>2026-09-01T19:56:09Z</time>
  <course>335.98</course>
  <speed>0.022360679774997897</speed>
  <fix>3d</fix>
</trkpt>
<trkpt lat="-27.274428" lon="151.29009">
  <ele>343.1</ele>
  <time>2026-09-01T19:56:09Z</time>
  <course>107.75</course>
  <speed>0.0</speed>
  <fix>3d</fix>
</trkpt>
<trkpt lat="-27.2744281" lon="151.2900902">
  <ele>343.02</ele>
  <time>2026-09-01T19:56:09Z</time>
  <course>335.98</course>
  <speed>0.022360679774997897</speed>
  <fix>3d</fix>
</trkpt>
<trkpt lat="-27.274428" lon="151.29009">
  <ele>343.1</ele>
  <time>2026-09-01T19:56:09Z</time>
  <course>107.75</course>
  <speed>0.0</speed>
  <fix>3d</fix>
</trkpt>
<trkpt lat="-27.2744281" lon="151.2900902">
  <ele>343.02</ele>
  <time>2026-09-01T19:56:09Z</time>
  <course>335.98</course>
  <speed>0.022360679774997897</speed>
  <fix>3d</fix>
</trkpt>
<trkpt lat="-27.274428" lon="151.29009">
  <ele>343.1</ele>
  <time>2026-09-01T19:56:09Z</time>
  <course>109.38</course>
  <speed>0.0</speed>
  <fix>3d</fix>
</trkpt>
<trkpt lat="-27.2744281" lon="151.2900902">
  <ele>343.02</ele>
  <time>2026-09-01T19:56:09Z</time>
  <course>335.98</course>
  <speed>0.022360679774997897</speed>
  <fix>3d</fix>
</trkpt>
<trkpt lat="-27.274428" lon="151.29009">
  <ele>343.1</ele>
  <time>2026-09-01T19:56:09Z</time>
  <course>109.38</course>
  <speed>0.0</speed>
  <fix>3d</fix>
</trkpt>
<trkpt lat="-27.2744281" lon="151.2900902">
  <ele>343.02</ele>
  <time>2026-09-01T19:56:09Z</time>
  <course>335.98</course>
  <speed>0.022360679774997897</speed>
  <fix>3d</fix>
</trkpt>
<trkpt lat="-27.274428" lon="151.29009">
  <ele>343.1</ele>
  <time>2026-09-01T19:56:09Z</time>
  <course>110.82</course>
  <speed>0.0</speed>
  <fix>3d</fix>
</trkpt>
<trkpt lat="-27.2744281" lon="151.2900902">
  <ele>343.02</ele>
  <time>2026-09-01T19:56:09Z</time>
  <course>335.98</course>
  <speed>0.022360679774997897</speed>
  <fix>3d</fix>
</trkpt>
<trkpt lat="-27.274428" lon="151.29009">
  <ele>343.1</ele>
  <time>2026-09-01T19:56:09Z</time>
  <course>110.82</course>
  <speed>0.0</speed>
  <fix>3d</fix>
</trkpt>
<trkpt lat="-27.2744281" lon="151.2900902">
  <ele>343.02</ele>
  <time>2026-09-01T19:56:09Z</time>
  <course>335.98</course>
  <speed>0.022360679774997897</speed>
  <fix>3d</fix>
</trkpt>
<trkpt lat="-27.274428" lon="151.29009">
  <ele>343.1</ele>
  <time>2026-09-01T19:56:09Z</time>
  <course>110.29</course>
  <speed>0.0</speed>
  <fix>3d</fix>
</trkpt>
<trkpt lat="-27.2744281" lon="151.2900902">
  <ele>343.02</ele>
  <time>2026-09-01T19:56:09Z</time>
  <course>335.98</course>
  <speed>0.022360679774997897</speed>
  <fix>3d</fix>
</trkpt>
<trkpt lat="-27.274428" lon="151.29009">
  <ele>343.1</ele>
  <time>2026-09-01T19:56:09Z</time>
  <course>110.29</course>
  <speed>0.0</speed>
  <fix>3d</fix>
</trkpt>
<trkpt lat="-27.2744281" lon="151.2900902">
  <ele>343.02</ele>
  <time>2026-09-01T19:56:09Z</time>
  <course>335.98</course>
  <speed>0.022360679774997897</speed>
  <fix>3d</fix>
</trkpt>
<trkpt lat="-27.274428" lon="151.29009">
  <ele>343.1</ele>
  <time>2026-09-01T19:56:09Z</time>
  <course>110.33</course>
  <speed>0.0</speed>
  <fix>3d</fix>
</trkpt>
<trkpt lat="-27.2744281" lon="151.2900902">
  <ele>343.02</ele>
  <time>2026-09-01T19:56:09Z</time>
  <course>335.98</course>
  <speed>0.022360679774997897</speed>
  <fix>3d</fix>
</trkpt>
<trkpt lat="-27.274428" lon="151.29009">
  <ele>343.1</ele>
  <time>2026-09-01T19:56:09Z</time>
  <course>110.33</course>
  <speed>0.0</speed>
  <fix>3d</fix>
</trkpt>
<trkpt lat="-27.2744281" lon="151.2900902">
  <ele>343.02</ele>
  <time>2026-09-01T19:56:09Z</time>
  <course>335.98</course>
  <speed>0.022360679774997897</speed>
  <fix>3d</fix>
</trkpt>
<trkpt lat="-27.274428" lon="151.29009">
  <ele>343.1</ele>
  <time>2026-09-01T19:56:09Z</time>
  <course>143.91</course>
  <speed>0.0</speed>
  <fix>3d</fix>
</trkpt>
<trkpt lat="-27.2744281" lon="151.2900902">
  <ele>343.02</ele>
  <time>2026-09-01T19:56:09Z</time>
  <course>335.98</course>
  <speed>0.022360679774997897</speed>
  <fix>3d</fix>
</trkpt>
<trkpt lat="-27.274428" lon="151.29009">
  <ele>343.1</ele>
  <time>2026-09-01T19:56:09Z</time>
  <course>143.91</course>
  <speed>0.0</speed>
  <fix>3d</fix>
</trkpt>
<trkpt lat="-27.274428" lon="151.2900902">
  <ele>343.02</ele>
  <time>2026-09-01T19:56:09Z</time>
  <course>335.98</course>
  <speed>0.022360679774997897</speed>
  <fix>3d</fix>
</trkpt>
<trkpt lat="-27.274428" lon="151.29009">
  <ele>343.1</ele>
  <time>2026-09-01T19:56:09Z</time>
  <course>136.36</course>
  <speed>0.0</speed>
  <fix>3d</fix>
</trkpt>
<trkpt lat="-27.274428" lon="151.2900902">
  <ele>343.02</ele>
  <time>2026-09-01T19:56:09Z</time>
  <course>335.98</course>
  <speed>0.022360679774997897</speed>
  <fix>3d</fix>
</trkpt>
<trkpt lat="-27.274428" lon="151.29009">
  <ele>343.1</ele>
  <time>2026-09-01T19:56:09Z</time>
  <course>136.36</course>
  <speed>0.0</speed>
  <fix>3d</fix>
</trkpt>
<trkpt lat="-27.274428" lon="151.2900902">
  <ele>343.02</ele>
  <time>2026-09-01T19:56:09Z</time>
  <course>335.98</course>
  <speed>0.022360679774997897</speed>
  <fix>3d</fix>
</trkpt>
<trkpt lat="-27.274428" lon="151.29009">
  <ele>343.1</ele>
  <time>2026-09-01T19:56:09Z</time>
  <course>102.81</course>
  <speed>0.0</speed>
  <fix>3d</fix>
</trkpt>
<trkpt lat="-27.274428" lon="151.2900902">
  <ele>343.02</ele>
  <time>2026-09-01T19:56:09Z</time>
  <course>335.98</course>
  <speed>0.022360679774997897</speed>
  <fix>3d</fix>
</trkpt>
<trkpt lat="-27.274428" lon="151.29009">
  <ele>343.1</ele>
  <time>2026-09-01T19:56:09Z</time>
  <course>102.81</course>
  <speed>0.0</speed>
  <fix>3d</fix>
</trkpt>
<trkpt lat="-27.274428" lon="151.2900902">
  <ele>343.03</ele>
  <time>2026-09-01T19:56:09Z</time>
  <course>335.98</course>
  <speed>0.022360679774997897</speed>
  <fix>3d</fix>
</trkpt>
<trkpt lat="-27.274428" lon="151.29009">
  <ele>343.1</ele>
  <time>2026-09-01T19:56:09Z</time>
  <course>107.71</course>
  <speed>0.0</speed>
  <fix>3d</fix>
</trkpt>
<trkpt lat="-27.274428" lon="151.2900902">
  <ele>343.03</ele>
  <time>2026-09-01T19:56:09Z</time>
  <course>335.98</course>
  <speed>0.022360679774997897</speed>
  <fix>3d</fix>
</trkpt>
<trkpt lat="-27.274428" lon="151.29009">
  <ele>343.1</ele>
  <time>2026-09-01T19:56:09Z</time>
  <course>107.71</course>
  <speed>0.0</speed>
  <fix>3d</fix>
</trkpt>
<trkpt lat="-27.274428" lon="151.2900902">
  <ele>343.03</ele>
  <time>2026-09-01T19:56:09Z</time>
  <course>335.98</course>
  <speed>0.022360679774997897</speed>
  <fix>3d</fix>
</trkpt>
<trkpt lat="-27.274428" lon="151.29009">
  <ele>343.1</ele>
  <time>2026-09-01T19:56:09Z</time>
  <course>111.68</course>
  <speed>0.0</speed>
  <fix>3d</fix>
</trkpt>
<trkpt lat="-27.274428" lon="151.2900902">
  <ele>343.03</ele>
  <time>2026-09-01T19:56:09Z</time>
  <course>335.98</course>
  <speed>0.02</speed>
  <fix>3d</fix>
</trkpt>
<trkpt lat="-27.274428" lon="151.29009">
  <ele>343.1</ele>
  <time>2026-09-01T19:56:09Z</time>
  <course>111.68</course>
  <speed>0.0</speed>
  <fix>3d</fix>
</trkpt>
<trkpt lat="-27.274428" lon="151.2900902">
  <ele>343.03</ele>
  <time>2026-09-01T19:56:09Z</time>
  <course>335.98</course>
  <speed>0.02</speed>
  <fix>3d</fix>
</trkpt>
<trkpt lat="-27.274428" lon="151.29009">
  <ele>343.1</ele>
  <time>2026-09-01T19:56:09Z</time>
  <course>110.55</course>
  <speed>0.0</speed>
  <fix>3d</fix>
</trkpt>
<trkpt lat="-27.274428" lon="151.2900902">
  <ele>343.03</ele>
  <time>2026-09-01T19:56:09Z</time>
  <course>335.98</course>
  <speed>0.02</speed>
  <fix>3d</fix>
</trkpt>
<trkpt lat="-27.274428" lon="151.29009">
  <ele>343.1</ele>
  <time>2026-09-01T19:56:09Z</time>
  <course>110.55</course>
  <speed>0.0</speed>
  <fix>3d</fix>
</trkpt>
<trkpt lat="-27.274428" lon="151.2900902">
  <ele>343.03</ele>
  <time>2026-09-01T19:56:09Z</time>
  <course>335.98</course>
  <speed>0.02</speed>
  <fix>3d</fix>
</trkpt>
<trkpt lat="-27.274428" lon="151.29009">
  <ele>343.1</ele>
  <time>2026-09-01T19:56:09Z</time>
  <course>110.18</course>
  <speed>0.0</speed>
  <fix>3d</fix>
</trkpt>
<trkpt lat="-27.274428" lon="151.2900902">
  <ele>343.03</ele>
  <time>2026-09-01T19:56:09Z</time>
  <course>335.98</course>
  <speed>0.02</speed>
  <fix>3d</fix>
</trkpt>
<trkpt lat="-27.274428" lon="151.29009">
  <ele>343.1</ele>
  <time>2026-09-01T19:56:09Z</time>
  <course>110.18</course>
  <speed>0.0</speed>
  <fix>3d</fix>
</trkpt>
<trkpt lat="-27.274428" lon="151.2900902">
  <ele>343.03</ele>
  <time>2026-09-01T19:56:09Z</time>
  <course>335.98</course>
  <speed>0.02</speed>
  <fix>3d</fix>
</trkpt>
<trkpt lat="-27.274428" lon="151.29009">
  <ele>343.1</ele>
  <time>2026-09-01T19:56:09Z</time>
  <course>110.07</course>
  <speed>0.0</speed>
  <fix>3d</fix>
</trkpt>
<trkpt lat="-27.274428" lon="151.2900902">
  <ele>343.03</ele>
  <time>2026-09-01T19:56:09Z</time>
  <course>335.98</course>
  <speed>0.02</speed>
  <fix>3d</fix>
</trkpt>
<trkpt lat="-27.274428" lon="151.29009">
  <ele>343.1</ele>
  <time>2026-09-01T19:56:09Z</time>
  <course>110.07</course>
  <speed>0.0</speed>
  <fix>3d</fix>
</trkpt>
<trkpt lat="-27.274428" lon="151.2900902">
  <ele>343.03</ele>
  <time>2026-09-01T19:56:09Z</time>
  <course>335.98</course>
  <speed>0.02</speed>
  <fix>3d</fix>
</trkpt>
<trkpt lat="-27.274428" lon="151.29009">
  <ele>343.1</ele>
  <time>2026-09-01T19:56:09Z</time>
  <course>110.23</course>
  <speed>0.0</speed>
  <fix>3d</fix>
</trkpt>
<trkpt lat="-27.274428" lon="151.2900902">
  <ele>343.03</ele>
  <time>2026-09-01T19:56:09Z</time>
  <course>335.98</course>
  <speed>0.02</speed>
  <fix>3d</fix>
</trkpt>
<trkpt lat="-27.274428" lon="151.29009">
  <ele>343.1</ele>
  <time>2026-09-01T19:56:09Z</time>
  <course>110.23</course>
  <speed>0.0</speed>
  <fix>3d</fix>
</trkpt>
<trkpt lat="-27.274428" lon="151.2900902">
  <ele>343.03</ele>
  <time>2026-09-01T19:56:09Z</time>
  <course>335.98</course>
  <speed>0.02</speed>
  <fix>3d</fix>
</trkpt>
<trkpt lat="-27.274428" lon="151.29009">
  <ele>343.1</ele>
  <time>2026-09-01T19:56:09Z</time>
  <course>19.64</course>
  <speed>0.0</speed>
  <fix>3d</fix>
</trkpt>
<trkpt lat="-27.274428" lon="151.2900902">
  <ele>343.03</ele>
  <time>2026-09-01T19:56:09Z</time>
  <course>335.99</course>
  <speed>0.02</speed>
  <fix>3d</fix>
</trkpt>
<trkpt lat="-27.274428" lon="151.29009">
  <ele>343.1</ele>
  <time>2026-09-01T19:56:09Z</time>
  <course>19.64</course>
  <speed>0.0</speed>
  <fix>3d</fix>
</trkpt>
<trkpt lat="-27.274428" lon="151.2900902">
  <ele>343.03</ele>
  <time>2026-09-01T19:56:09Z</time>
  <course>335.99</course>
  <speed>0.02</speed>
  <fix>3d</fix>
</trkpt>
<trkpt lat="-27.274428" lon="151.29009">
  <ele>343.1</ele>
  <time>2026-09-01T19:56:09Z</time>
  <course>17.48</course>
  <speed>0.0</speed>
  <fix>3d</fix>
</trkpt>
<trkpt lat="-27.274428" lon="151.2900902">
  <ele>343.03</ele>
  <time>2026-09-01T19:56:09Z</time>
  <course>336.0</course>
  <speed>0.02</speed>
  <fix>3d</fix>
</trkpt>
<trkpt lat="-27.274428" lon="151.29009">
  <ele>343.1</ele>
  <time>2026-09-01T19:56:09Z</time>
  <course>17.48</course>
  <speed>0.0</speed>
  <fix>3d</fix>
</trkpt>
<trkpt lat="-27.274428" lon="151.2900902">
  <ele>343.03</ele>
  <time>2026-09-01T19:56:09Z</time>
  <course>336.01</course>
  <speed>0.02</speed>
  <fix>3d</fix>
</trkpt>
<trkpt lat="-27.274428" lon="151.29009">
  <ele>343.1</ele>
  <time>2026-09-01T19:56:09Z</time>
  <course>214.48</course>
  <speed>0.0</speed>
  <fix>3d</fix>
</trkpt>
<trkpt lat="-27.274428" lon="151.2900902">
  <ele>343.03</ele>
  <time>2026-09-01T19:56:09Z</time>
  <course>336.01</course>
  <speed>0.02</speed>
  <fix>3d</fix>
</trkpt>
<trkpt lat="-27.274428" lon="151.29009">
  <ele>343.1</ele>
  <time>2026-09-01T19:56:09Z</time>
  <course>214.48</course>
  <speed>0.0</speed>
  <fix>3d</fix>
</trkpt>
<trkpt lat="-27.274428" lon="151.2900902">
  <ele>343.1</ele>
  <time>2026-09-01T19:56:09Z</time>
  <course>336.02</course>
  <speed>0.02</speed>
  <fix>3d</fix>
</trkpt>
<trkpt lat="-27.274428" lon="151.29009">
  <ele>343.1</ele>
  <time>2026-09-01T19:56:09Z</time>
  <course>197.39</course>
  <speed>0.0</speed>
  <fix>3d</fix>
</trkpt>
<trkpt lat="-27.274428" lon="151.2900902">
  <ele>343.09</ele>
  <time>2026-09-01T19:56:09Z</time>
  <course>336.02</course>
  <speed>0.02</speed>
  <fix>3d</fix>
</trkpt>
<trkpt lat="-27.274428" lon="151.29009">
  <ele>343.1</ele>
  <time>2026-09-01T19:56:09Z</time>
  <course>197.39</course>
  <speed>0.0</speed>
  <fix>3d</fix>
</trkpt>
<trkpt lat="-27.274428" lon="151.2900902">
  <ele>343.09</ele>
  <time>2026-09-01T19:56:09Z</time>
  <course>336.03</course>
  <speed>0.02</speed>
  <fix>3d</fix>
</trkpt>
<trkpt lat="-27.274428" lon="151.29009">
  <ele>343.1</ele>
  <time>2026-09-01T19:56:09Z</time>
  <course>18.19</course>
  <speed>0.0</speed>
  <fix>3d</fix>
</trkpt>
<trkpt lat="-27.274428" lon="151.2900902">
  <ele>343.09</ele>
  <time>2026-09-01T19:56:09Z</time>
  <course>336.03</course>
  <speed>0.02</speed>
  <fix>3d</fix>
</trkpt>
<trkpt lat="-27.274428" lon="151.29009">
  <ele>343.1</ele>
  <time>2026-09-01T19:56:09Z</time>
  <course>18.19</course>
  <speed>0.0</speed>
  <fix>3d</fix>
</trkpt>
<trkpt lat="-27.274428" lon="151.2900902">
  <ele>343.1</ele>
  <time>2026-09-01T19:56:09Z</time>
  <course>336.04</course>
  <speed>0.02</speed>
  <fix>3d</fix>
</trkpt>
<trkpt lat="-27.274428" lon="151.29009">
  <ele>343.1</ele>
  <time>2026-09-01T19:56:09Z</time>
  <course>17.29</course>
  <speed>0.0</speed>
  <fix>3d</fix>
</trkpt>
<trkpt lat="-27.274428" lon="151.2900902">
  <ele>343.11</ele>
  <time>2026-09-01T19:56:09Z</time>
  <course>336.04</course>
  <speed>0.02</speed>
  <fix>3d</fix>
</trkpt>
<trkpt lat="-27.274428" lon="151.29009">
  <ele>343.1</ele>
  <time>2026-09-01T19:56:09Z</time>
  <course>17.29</course>
  <speed>0.0</speed>
  <fix>3d</fix>
</trkpt>
<trkpt lat="-27.274428" lon="151.2900902">
  <ele>343.11</ele>
  <time>2026-09-01T19:56:09Z</time>
  <course>336.05</course>
  <speed>0.02</speed>
  <fix>3d</fix>
</trkpt>
<trkpt lat="-27.274428" lon="151.29009">
  <ele>343.1</ele>
  <time>2026-09-01T19:56:09Z</time>
  <course>197.78</course>
  <speed>0.0</speed>
  <fix>3d</fix>
</trkpt>
<trkpt lat="-27.274428" lon="151.2900902">
  <ele>343.12</ele>
  <time>2026-09-01T19:56:09Z</time>
  <course>336.05</course>
  <speed>0.02</speed>
  <fix>3d</fix>
</trkpt>
<trkpt lat="-27.274428" lon="151.29009">
  <ele>343.1</ele>
  <time>2026-09-01T19:56:09Z</time>
  <course>197.78</course>
  <speed>0.0</speed>
  <fix>3d</fix>
</trkpt>
<trkpt lat="-27.274428" lon="151.2900902">
  <ele>343.13</ele>
  <time>2026-09-01T19:56:09Z</time>
  <course>336.06</course>
  <speed>0.02</speed>
  <fix>3d</fix>
</trkpt>
<trkpt lat="-27.274428" lon="151.29009">
  <ele>343.1</ele>
  <time>2026-09-01T19:56:09Z</time>
  <course>197.14</course>
  <speed>0.0</speed>
  <fix>3d</fix>
</trkpt>
<trkpt lat="-27.274428" lon="151.2900902">
  <ele>343.14</ele>
  <time>2026-09-01T19:56:09Z</time>
  <course>336.07</course>
  <speed>0.02</speed>
  <fix>3d</fix>
</trkpt>
<trkpt lat="-27.274428" lon="151.29009">
  <ele>343.1</ele>
  <time>2026-09-01T19:56:09Z</time>
  <course>197.14</course>
  <speed>0.0</speed>
  <fix>3d</fix>
</trkpt>
<trkpt lat="-27.274428" lon="151.2900902">
  <ele>343.15</ele>
  <time>2026-09-01T19:56:09Z</time>
  <course>336.07</course>
  <speed>0.02</speed>
  <fix>3d</fix>
</trkpt>
<trkpt lat="-27.274428" lon="151.29009">
  <ele>343.1</ele>
  <time>2026-09-01T19:56:09Z</time>
  <course>17.62</course>
  <speed>0.0</speed>
  <fix>3d</fix>
</trkpt>
<trkpt lat="-27.274428" lon="151.2900902">
  <ele>343.16</ele>
  <time>2026-09-01T19:56:09Z</time>
  <course>336.08</course>
  <speed>0.02</speed>
  <fix>3d</fix>
</trkpt>
<trkpt lat="-27.274428" lon="151.29009">
  <ele>343.1</ele>
  <time>2026-09-01T19:56:09Z</time>
  <course>17.62</course>
  <speed>0.0</speed>
  <fix>3d</fix>
</trkpt>
<trkpt lat="-27.274428" lon="151.2900902">
  <ele>343.16</ele>
  <time>2026-09-01T19:56:09Z</time>
  <course>336.08</course>
  <speed>0.02</speed>
  <fix>3d</fix>
</trkpt>
<trkpt lat="-27.274428" lon="151.29009">
  <ele>343.1</ele>
  <time>2026-09-01T19:56:09Z</time>
  <course>16.81</course>
  <speed>0.0</speed>
  <fix>3d</fix>
</trkpt>
<trkpt lat="-27.274428" lon="151.2900902">
  <ele>343.17</ele>
  <time>2026-09-01T19:56:09Z</time>
  <course>336.09</course>
  <speed>0.02</speed>
  <fix>3d</fix>
</trkpt>
<trkpt lat="-27.274428" lon="151.29009">
  <ele>343.1</ele>
  <time>2026-09-01T19:56:09Z</time>
  <course>16.81</course>
  <speed>0.0</speed>
  <fix>3d</fix>
</trkpt>
<trkpt lat="-27.274428" lon="151.2900902">
  <ele>343.17</ele>
  <time>2026-09-01T19:56:09Z</time>
  <course>336.09</course>
  <speed>0.02</speed>
  <fix>3d</fix>
</trkpt>
<trkpt lat="-27.274428" lon="151.29009">
  <ele>343.1</ele>
  <time>2026-09-01T19:56:09Z</time>
  <course>197.51</course>
  <speed>0.0</speed>
  <fix>3d</fix>
</trkpt>
<trkpt lat="-27.274428" lon="151.2900902">
  <ele>343.18</ele>
  <time>2026-09-01T19:56:09Z</time>
  <course>336.1</course>
  <speed>0.02</speed>
  <fix>3d</fix>
</trkpt>
<trkpt lat="-27.274428" lon="151.29009">
  <ele>343.1</ele>
  <time>2026-09-01T19:56:09Z</time>
  <course>197.51</course>
  <speed>0.0</speed>
  <fix>3d</fix>
</trkpt>
<trkpt lat="-27.274428" lon="151.2900902">
  <ele>343.1</ele>
  <time>2026-09-01T19:56:09Z</time>
  <course>336.11</course>
  <speed>0.02</speed>
  <fix>3d</fix>
</trkpt>
<trkpt lat="-27.274428" lon="151.29009">
  <ele>343.1</ele>
  <time>2026-09-01T19:56:09Z</time>
  <course>194.07</course>
  <speed>0.0</speed>
  <fix>3d</fix>
</trkpt>
<trkpt lat="-27.274428" lon="151.2900902">
  <ele>343.1</ele>
  <time>2026-09-01T19:56:09Z</time>
  <course>336.11</course>
  <speed>0.02</speed>
  <fix>3d</fix>
</trkpt>
<trkpt lat="-27.274428" lon="151.29009">
  <ele>343.1</ele>
  <time>2026-09-01T19:56:09Z</time>
  <course>194.07</course>
  <speed>0.0</speed>
  <fix>3d</fix>
</trkpt>
<trkpt lat="-27.274428" lon="151.2900902">
  <ele>343.1</ele>
  <time>2026-09-01T19:56:09Z</time>
  <course>336.12</course>
  <speed>0.02</speed>
  <fix>3d</fix>
</trkpt>
<trkpt lat="-27.274428" lon="151.29009">
  <ele>343.1</ele>
  <time>2026-09-01T19:56:09Z</time>
  <course>17.42</course>
  <speed>0.0</speed>
  <fix>3d</fix>
</trkpt>
<trkpt lat="-27.274428" lon="151.2900902">
  <ele>343.1</ele>
  <time>2026-09-01T19:56:09Z</time>
  <course>336.12</course>
  <speed>0.02</speed>
  <fix>3d</fix>
</trkpt>
<trkpt lat="-27.274428" lon="151.29009">
  <ele>343.1</ele>
  <time>2026-09-01T19:56:09Z</time>
  <course>17.42</course>
  <speed>0.0</speed>
  <fix>3d</fix>
</trkpt>
<trkpt lat="-27.274428" lon="151.2900902">
  <ele>343.1</ele>
  <time>2026-09-01T19:56:09Z</time>
  <course>336.13</course>
  <speed>0.02</speed>
  <fix>3d</fix>
</trkpt>
<trkpt lat="-27.274428" lon="151.29009">
  <ele>343.1</ele>
  <time>2026-09-01T19:56:09Z</time>
  <course>110.49</course>
  <speed>0.0</speed>
  <fix>3d</fix>
</trkpt>
<trkpt lat="-27.274428" lon="151.2900902">
  <ele>343.1</ele>
  <time>2026-09-01T19:56:09Z</time>
  <course>336.13</course>
  <speed>0.02</speed>
  <fix>3d</fix>
</trkpt>
<trkpt lat="-27.274428" lon="151.29009">
  <ele>343.1</ele>
  <time>2026-09-01T19:56:09Z</time>
  <course>110.49</course>
  <speed>0.0</speed>
  <fix>3d</fix>
</trkpt>
<trkpt lat="-27.274428" lon="151.2900902">
  <ele>343.09</ele>
  <time>2026-09-01T19:56:09Z</time>
  <course>336.14</course>
  <speed>0.02</speed>
  <fix>3d</fix>
</trkpt>
<trkpt lat="-27.274428" lon="151.29009">
  <ele>343.1</ele>
  <time>2026-09-01T19:56:09Z</time>
  <course>108.7</course>
  <speed>0.0</speed>
  <fix>3d</fix>
</trkpt>
<trkpt lat="-27.274428" lon="151.2900902">
  <ele>343.09</ele>
  <time>2026-09-01T19:56:09Z</time>
  <course>336.14</course>
  <speed>0.02</speed>
  <fix>3d</fix>
</trkpt>
<trkpt lat="-27.274428" lon="151.29009">
  <ele>343.1</ele>
  <time>2026-09-01T19:56:09Z</time>
  <course>108.7</course>
  <speed>0.0</speed>
  <fix>3d</fix>
</trkpt>
<trkpt lat="-27.274428" lon="151.2900902">
  <ele>343.09</ele>
  <time>2026-09-01T19:56:09Z</time>
  <course>336.15</course>
  <speed>0.02</speed>
  <fix>3d</fix>
</trkpt>
<trkpt lat="-27.274428" lon="151.29009">
  <ele>343.1</ele>
  <time>2026-09-01T19:56:09Z</time>
  <course>49.61</course>
  <speed>0.0</speed>
  <fix>3d</fix>
</trkpt>
<trkpt lat="-27.274428" lon="151.2900902">
  <ele>343.09</ele>
  <time>2026-09-01T19:56:09Z</time>
  <course>336.16</course>
  <speed>0.02</speed>
  <fix>3d</fix>
</trkpt>
<trkpt lat="-27.274428" lon="151.29009">
  <ele>343.1</ele>
  <time>2026-09-01T19:56:09Z</time>
  <course>49.61</course>
  <speed>0.0</speed>
  <fix>3d</fix>
</trkpt>
<trkpt lat="-27.274428" lon="151.2900902">
  <ele>343.09</ele>
  <time>2026-09-01T19:56:09Z</time>
  <course>336.16</course>
  <speed>0.02</speed>
  <fix>3d</fix>
</trkpt>
<trkpt lat="-27.274428" lon="151.29009">
  <ele>343.1</ele>
  <time>2026-09-01T19:56:09Z</time>
  <course>288.61</course>
  <speed>0.0</speed>
  <fix>3d</fix>
</trkpt>
<trkpt lat="-27.274428" lon="151.2900902">
  <ele>343.09</ele>
  <time>2026-09-01T19:56:09Z</time>
  <course>336.17</course>
  <speed>0.02</speed>
  <fix>3d</fix>
</trkpt>
<trkpt lat="-27.274428" lon="151.29009">
  <ele>343.1</ele>
  <time>2026-09-01T19:56:09Z</time>
  <course>288.61</course>
  <speed>0.0</speed>
  <fix>3d</fix>
</trkpt>
<trkpt lat="-27.274428" lon="151.2900902">
  <ele>343.09</ele>
  <time>2026-09-01T19:56:09Z</time>
  <course>336.17</course>
  <speed>0.02</speed>
  <fix>3d</fix>
</trkpt>
<trkpt lat="-27.274428" lon="151.29009">
  <ele>343.1</ele>
  <time>2026-09-01T19:56:09Z</time>
  <course>278.26</course>
  <speed>0.0</speed>
  <fix>3d</fix>
</trkpt>
<trkpt lat="-27.274428" lon="151.2900902">
  <ele>343.09</ele>
  <time>2026-09-01T19:56:09Z</time>
  <course>336.18</course>
  <speed>0.02</speed>
  <fix>3d</fix>
</trkpt>
<trkpt lat="-27.274428" lon="151.29009">
  <ele>343.1</ele>
  <time>2026-09-01T19:56:09Z</time>
  <course>278.26</course>
  <speed>0.0</speed>
  <fix>3d</fix>
</trkpt>
<trkpt lat="-27.274428" lon="151.2900902">
  <ele>343.1</ele>
  <time>2026-09-01T19:56:09Z</time>
  <course>336.18</course>
  <speed>0.02</speed>
  <fix>3d</fix>
</trkpt>
<trkpt lat="-27.274428" lon="151.29009">
  <ele>343.1</ele>
  <time>2026-09-01T19:56:09Z</time>
  <course>327.61</course>
  <speed>0.0</speed>
  <fix>3d</fix>
</trkpt>
<trkpt lat="-27.274428" lon="151.2900902">
  <ele>343.14</ele>
  <time>2026-09-01T19:56:10Z</time>
  <course>336.19</course>
  <speed>0.02</speed>
  <fix>3d</fix>
</trkpt>
<trkpt lat="-27.274428" lon="151.29009">
  <ele>343.1</ele>
  <time>2026-09-01T19:56:10Z</time>
  <course>327.61</course>
  <speed>0.0</speed>
  <fix>3d</fix>
</trkpt>
<trkpt lat="-27.274428" lon="151.2900902">
  <ele>343.2</ele>
  <time>2026-09-01T19:56:10Z</time>
  <course>336.19</course>
  <speed>0.02</speed>
  <fix>3d</fix>
</trkpt>
<trkpt lat="-27.274428" lon="151.29009">
  <ele>343.13</ele>
  <time>2026-09-01T19:56:10Z</time>
  <course>335.23</course>
  <speed>0.0</speed>
  <fix>3d</fix>
</trkpt>
<trkpt lat="-27.274428" lon="151.2900902">
  <ele>343.29</ele>
  <time>2026-09-01T19:56:10Z</time>
  <course>336.19</course>
  <speed>0.01414213562373095</speed>
  <fix>3d</fix>
</trkpt>
<trkpt lat="-27.274428" lon="151.29009">
  <ele>343.13</ele>
  <time>2026-09-01T19:56:10Z</time>
  <course>335.23</course>
  <speed>0.0</speed>
  <fix>3d</fix>
</trkpt>
<trkpt lat="-27.274428" lon="151.2900902">
  <ele>343.45</ele>
  <time>2026-09-01T19:56:10Z</time>
  <course>336.18</course>
  <speed>0.04</speed>
  <fix>3d</fix>
</trkpt>
<trkpt lat="-27.274428" lon="151.29009">
  <ele>343.22</ele>
  <time>2026-09-01T19:56:10Z</time>
  <course>329.2</course>
  <speed>0.01</speed>
  <fix>3d</fix>
</trkpt>
<trkpt lat="-27.274428" lon="151.2900902">
  <ele>343.68</ele>
  <time>2026-09-01T19:56:10Z</time>
  <course>336.17</course>
  <speed>0.0824621125123532</speed>
  <fix>3d</fix>
</trkpt>
<trkpt lat="-27.274428" lon="151.29009">
  <ele>343.22</ele>
  <time>2026-09-01T19:56:10Z</time>
  <course>329.2</course>
  <speed>0.01</speed>
  <fix>3d</fix>
</trkpt>
<trkpt lat="-27.2744279" lon="151.2900902">
  <ele>343.93</ele>
  <time>2026-09-01T19:56:10Z</time>
  <course>336.13</course>
  <speed>0.1264911064067352</speed>
  <fix>3d</fix>
</trkpt>
<trkpt lat="-27.2744279" lon="151.29009">
  <ele>343.49</ele>
  <time>2026-09-01T19:56:10Z</time>
  <course>329.47</course>
  <speed>0.06</speed>
  <fix>3d</fix>
</trkpt>
<trkpt lat="-27.2744278" lon="151.2900901">
  <ele>344.2</ele>
  <time>2026-09-01T19:56:10Z</time>
  <course>336.09</course>
  <speed>0.1708800749063506</speed>
  <fix>3d</fix>
</trkpt>
<trkpt lat="-27.2744279" lon="151.29009">
  <ele>343.49</ele>
  <time>2026-09-01T19:56:10Z</time>
  <course>329.47</course>
  <speed>0.06</speed>
  <fix>3d</fix>
</trkpt>
<trkpt lat="-27.2744276" lon="151.29009">
  <ele>344.48</ele>
  <time>2026-09-01T19:56:10Z</time>
  <course>336.04</course>
  <speed>0.21540659228538014</speed>
  <fix>3d</fix>
</trkpt>
<trkpt lat="-27.2744277" lon="151.29009">
  <ele>343.94</ele>
  <time>2026-09-01T19:56:10Z</time>
  <course>330.38</course>
  <speed>0.15</speed>
  <fix>3d</fix>
</trkpt>
<trkpt lat="-27.2744274" lon="151.2900899">
  <ele>344.78</ele>
  <time>2026-09-01T19:56:10Z</time>
  <course>336.0</course>
  <speed>0.26</speed>
  <fix>3d</fix>
</trkpt>
<trkpt lat="-27.2744277" lon="151.29009">
  <ele>343.94</ele>
  <time>2026-09-01T19:56:10Z</time>
  <course>330.38</course>
  <speed>0.15</speed>
  <fix>3d</fix>
</trkpt>
<trkpt lat="-27.2744271" lon="151.2900897">
  <ele>345.09</ele>
  <time>2026-09-01T19:56:10Z</time>
  <course>335.97</course>
  <speed>0.30463092423455634</speed>
  <fix>3d</fix>
</trkpt>
<trkpt lat="-27.2744274" lon="151.2900898">
  <ele>344.5</ele>
  <time>2026-09-01T19:56:10Z</time>
  <course>331.25</course>
  <speed>0.24</speed>
  <fix>3d</fix>
</trkpt>
<trkpt lat="-27.2744269" lon="151.2900896">
  <ele>345.42</ele>
  <time>2026-09-01T19:56:10Z</time>
  <course>336.35</course>
  <speed>0.3453983207834109</speed>
  <fix>3d</fix>
</trkpt>
<trkpt lat="-27.2744274" lon="151.2900898">
  <ele>344.5</ele>
  <time>2026-09-01T19:56:10Z</time>
  <course>331.25</course>
  <speed>0.24</speed>
  <fix>3d</fix>
</trkpt>
<trkpt lat="-27.2744266" lon="151.2900894">
  <ele>345.76</ele>
  <time>2026-09-01T19:56:10Z</time>
  <course>335.75</course>
  <speed>0.38078865529319544</speed>
  <fix>3d</fix>
</trkpt>
<trkpt lat="-27.274427" lon="151.2900895">
  <ele>345.12</ele>
  <time>2026-09-01T19:56:10Z</time>
  <course>331.93</course>
  <speed>0.32</speed>
  <fix>3d</fix>
</trkpt>
<trkpt lat="-27.2744262" lon="151.2900892">
  <ele>346.11</ele>
  <time>2026-09-01T19:56:10Z</time>
  <course>335.55</course>
  <speed>0.41231056256176607</speed>
  <fix>3d</fix>
</trkpt>
<trkpt lat="-27.274427" lon="151.2900895">
  <ele>345.12</ele>
  <time>2026-09-01T19:56:10Z</time>
  <course>331.93</course>
  <speed>0.32</speed>
  <fix>3d</fix>
</trkpt>
<trkpt lat="-27.2744259" lon="151.290089">
  <ele>346.45</ele>
  <time>2026-09-01T19:56:10Z</time>
  <course>335.69</course>
  <speed>0.4386342439892262</speed>
  <fix>3d</fix>
</trkpt>
<trkpt lat="-27.2744264" lon="151.2900892">
  <ele>345.79</ele>
  <time>2026-09-01T19:56:10Z</time>
  <course>332.45</course>
  <speed>0.4</speed>
  <fix>3d</fix>
</trkpt>
<trkpt lat="-27.2744255" lon="151.2900888">
  <ele>346.8</ele>
  <time>2026-09-01T19:56:10Z</time>
  <course>336.02</course>
  <speed>0.45694638635183454</speed>
  <fix>3d</fix>
</trkpt>
<trkpt lat="-27.2744264" lon="151.2900892">
  <ele>345.79</ele>
  <time>2026-09-01T19:56:10Z</time>
  <course>332.45</course>
  <speed>0.4</speed>
  <fix>3d</fix>
</trkpt>
<trkpt lat="-27.2744251" lon="151.2900886">
  <ele>347.14</ele>
  <time>2026-09-01T19:56:10Z</time>
  <course>336.36</course>
  <speed>0.47010637094172636</speed>
  <fix>3d</fix>
</trkpt>
<trkpt lat="-27.2744257" lon="151.2900888">
  <ele>346.48</ele>
  <time>2026-09-01T19:56:10Z</time>
  <course>332.86</course>
  <speed>0.46</speed>
  <fix>3d</fix>
</trkpt>
<trkpt lat="-27.2744247" lon="151.2900884">
  <ele>347.47</ele>
  <time>2026-09-01T19:56:10Z</time>
  <course>336.63</course>
  <speed>0.47927027865287036</speed>
  <fix>3d</fix>
</trkpt>
<trkpt lat="-27.2744257" lon="151.2900888">
  <ele>346.48</ele>
  <time>2026-09-01T19:56:10Z</time>
  <course>332.86</course>
  <speed>0.46</speed>
  <fix>3d</fix>
</trkpt>
<trkpt lat="-27.2744243" lon="151.2900882">
  <ele>347.8</ele>
  <time>2026-09-01T19:56:10Z</time>
  <course>336.81</course>
  <speed>0.47927027865287036</speed>
  <fix>3d</fix>
</trkpt>
<trkpt lat="-27.2744249" lon="151.2900884">
  <ele>347.16</ele>
  <time>2026-09-01T19:56:10Z</time>
  <course>333.28</course>
  <speed>0.49</speed>
  <fix>3d</fix>
</trkpt>
<trkpt lat="-27.2744239" lon="151.290088">
  <ele>348.12</ele>
  <time>2026-09-01T19:56:10Z</time>
  <course>336.9</course>
  <speed>0.4661544808322666</speed>
  <fix>3d</fix>
</trkpt>
<trkpt lat="-27.2744249" lon="151.2900884">
  <ele>347.16</ele>
  <time>2026-09-01T19:56:10Z</time>
  <course>333.28</course>
  <speed>0.49</speed>
  <fix>3d</fix>
</trkpt>
<trkpt lat="-27.2744235" lon="151.2900877">
  <ele>348.44</ele>
  <time>2026-09-01T19:56:10Z</time>
  <course>336.92</course>
  <speed>0.45694638635183454</speed>
  <fix>3d</fix>
</trkpt>
<trkpt lat="-27.2744241" lon="151.2900879">
  <ele>347.83</ele>
  <time>2026-09-01T19:56:10Z</time>
  <course>333.75</course>
  <speed>0.5</speed>
  <fix>3d</fix>
</trkpt>
<trkpt lat="-27.2744231" lon="151.2900875">
  <ele>348.74</ele>
  <time>2026-09-01T19:56:10Z</time>
  <course>336.91</course>
  <speed>0.4346262762420146</speed>
  <fix>3d</fix>
</trkpt>
<trkpt lat="-27.2744241" lon="151.2900879">
  <ele>347.83</ele>
  <time>2026-09-01T19:56:10Z</time>
  <course>333.75</course>
  <speed>0.5</speed>
  <fix>3d</fix>
</trkpt>
<trkpt lat="-27.2744228" lon="151.2900873">
  <ele>349.03</ele>
  <time>2026-09-01T19:56:10Z</time>
  <course>336.87</course>
  <speed>0.41231056256176607</speed>
  <fix>3d</fix>
</trkpt>
<trkpt lat="-27.2744233" lon="151.2900874">
  <ele>348.45</ele>
  <time>2026-09-01T19:56:10Z</time>
  <course>334.25</course>
  <speed>0.48</speed>
  <fix>3d</fix>
</trkpt>
<trkpt lat="-27.2744224" lon="151.2900872">
  <ele>349.31</ele>
  <time>2026-09-01T19:56:10Z</time>
  <course>336.84</course>
  <speed>0.3769615364994153</speed>
  <fix>3d</fix>
</trkpt>
<trkpt lat="-27.2744233" lon="151.2900874">
  <ele>348.45</ele>
  <time>2026-09-01T19:56:10Z</time>
  <course>334.25</course>
  <speed>0.48</speed>
  <fix>3d</fix>
</trkpt>
<trkpt lat="-27.2744221" lon="151.290087">
  <ele>349.58</ele>
  <time>2026-09-01T19:56:10Z</time>
  <course>336.81</course>
  <speed>0.3453983207834109</speed>
  <fix>3d</fix>
</trkpt>
<trkpt lat="-27.2744225" lon="151.2900871">
  <ele>349.05</ele>
  <time>2026-09-01T19:56:10Z</time>
  <course>334.71</course>
  <speed>0.44</speed>
  <fix>3d</fix>
</trkpt>
<trkpt lat="-27.2744218" lon="151.2900868">
  <ele>349.85</ele>
  <time>2026-09-01T19:56:10Z</time>
  <course>336.81</course>
  <speed>0.3138470965295043</speed>
  <fix>3d</fix>
</trkpt>
<trkpt lat="-27.2744225" lon="151.2900871">
  <ele>349.05</ele>
  <time>2026-09-01T19:56:10Z</time>
  <course>334.71</course>
  <speed>0.44</speed>
  <fix>3d</fix>
</trkpt>
<trkpt lat="-27.2744215" lon="151.2900867">
  <ele>350.11</ele>
  <time>2026-09-01T19:56:10Z</time>
  <course>336.82</course>
  <speed>0.2785677655436824</speed>
  <fix>3d</fix>
</trkpt>
<trkpt lat="-27.2744219" lon="151.2900867">
  <ele>349.6</ele>
  <time>2026-09-01T19:56:10Z</time>
  <course>335.12</course>
  <speed>0.38</speed>
  <fix>3d</fix>
</trkpt>
<trkpt lat="-27.2744213" lon="151.2900866">
  <ele>350.36</ele>
  <time>2026-09-01T19:56:10Z</time>
  <course>336.84</course>
  <speed>0.2340939982143925</speed>
  <fix>3d</fix>
</trkpt>
<trkpt lat="-27.2744219" lon="151.2900867">
  <ele>349.6</ele>
  <time>2026-09-01T19:56:10Z</time>
  <course>335.12</course>
  <speed>0.38</speed>
  <fix>3d</fix>
</trkpt>
<trkpt lat="-27.2744211" lon="151.2900865">
  <ele>350.61</ele>
  <time>2026-09-01T19:56:10Z</time>
  <course>336.86</course>
  <speed>0.18973665961010278</speed>
  <fix>3d</fix>
</trkpt>
<trkpt lat="-27.2744213" lon="151.2900864">
  <ele>350.13</ele>
  <time>2026-09-01T19:56:10Z</time>
  <course>335.6</course>
  <speed>0.3</speed>
  <fix>3d</fix>
</trkpt>
<trkpt lat="-27.274421" lon="151.2900864">
  <ele>350.86</ele>
  <time>2026-09-01T19:56:10Z</time>
  <course>336.89</course>
  <speed>0.14866068747318506</speed>
  <fix>3d</fix>
</trkpt>
<trkpt lat="-27.2744213" lon="151.2900864">
  <ele>350.13</ele>
  <time>2026-09-01T19:56:10Z</time>
  <course>335.6</course>
  <speed>0.3</speed>
  <fix>3d</fix>
</trkpt>
<trkpt lat="-27.2744208" lon="151.2900863">
  <ele>351.1</ele>
  <time>2026-09-01T19:56:10Z</time>
  <course>336.92</course>
  <speed>0.1044030650891055</speed>
  <fix>3d</fix>
</trkpt>
<trkpt lat="-27.2744209" lon="151.2900862">
  <ele>350.63</ele>
  <time>2026-09-01T19:56:10Z</time>
  <course>336.28</course>
  <speed>0.22</speed>
  <fix>3d</fix>
</trkpt>
<trkpt lat="-27.2744207" lon="151.2900863">
  <ele>351.35</ele>
  <time>2026-09-01T19:56:10Z</time>
  <course>336.95</course>
  <speed>0.06082762530298219</speed>
  <fix>3d</fix>
</trkpt>
<trkpt lat="-27.2744209" lon="151.2900862">
  <ele>350.63</ele>
  <time>2026-09-01T19:56:10Z</time>
  <course>336.28</course>
  <speed>0.22</speed>
  <fix>3d</fix>
</trkpt>
<trkpt lat="-27.2744207" lon="151.2900862">
  <ele>351.59</ele>
  <time>2026-09-01T19:56:10Z</time>
  <course>336.97</course>
  <speed>0.02</speed>
  <fix>3d</fix>
</trkpt>
<trkpt lat="-27.2744206" lon="151.290086">
  <ele>351.12</ele>
  <time>2026-09-01T19:56:10Z</time>
  <course>337.69</course>
  <speed>0.13</speed>
  <fix>3d</fix>
</trkpt>
<trkpt lat="-27.2744206" lon="151.2900862">
  <ele>351.82</ele>
  <time>2026-09-01T19:56:10Z</time>
  <course>337.0</course>
  <speed>0.01</speed>
  <fix>3d</fix>
</trkpt>
<trkpt lat="-27.2744206" lon="151.290086">
  <ele>351.12</ele>
  <time>2026-09-01T19:56:10Z</time>
  <course>337.69</course>
  <speed>0.13</speed>
  <fix>3d</fix>
</trkpt>
<trkpt lat="-27.2744206" lon="151.2900862">
  <ele>352.06</ele>
  <time>2026-09-01T19:56:10Z</time>
  <course>337.02</course>
  <speed>0.05</speed>
  <fix>3d</fix>
</trkpt>
<trkpt lat="-27.2744204" lon="151.290086">
  <ele>351.59</ele>
  <time>2026-09-01T19:56:10Z</time>
  <course>343.36</course>
  <speed>0.05</speed>
  <fix>3d</fix>
</trkpt>
<trkpt lat="-27.2744207" lon="151.2900863">
  <ele>352.3</ele>
  <time>2026-09-01T19:56:10Z</time>
  <course>337.04</course>
  <speed>0.08062257748298549</speed>
  <fix>3d</fix>
</trkpt>
<trkpt lat="-27.2744204" lon="151.290086">
  <ele>351.59</ele>
  <time>2026-09-01T19:56:10Z</time>
  <course>343.36</course>
  <speed>0.05</speed>
  <fix>3d</fix>
</trkpt>
<trkpt lat="-27.2744207" lon="151.2900863">
  <ele>352.54</ele>
  <time>2026-09-01T19:56:10Z</time>
  <course>337.07</course>
  <speed>0.11661903789690602</speed>
  <fix>3d</fix>
</trkpt>
<trkpt lat="-27.2744204" lon="151.290086">
  <ele>352.06</ele>
  <time>2026-09-01T19:56:10Z</time>
  <course>136.59</course>
  <speed>0.02</speed>
  <fix>3d</fix>
</trkpt>
<trkpt lat="-27.2744208" lon="151.2900863">
  <ele>352.78</ele>
  <time>2026-09-01T19:56:10Z</time>
  <course>337.12</course>
  <speed>0.13892443989449804</speed>
  <fix>3d</fix>
</trkpt>
<trkpt lat="-27.2744204" lon="151.290086">
  <ele>352.06</ele>
  <time>2026-09-01T19:56:10Z</time>
  <course>136.59</course>
  <speed>0.02</speed>
  <fix>3d</fix>
</trkpt>
<trkpt lat="-27.2744208" lon="151.2900863">
  <ele>353.02</ele>
  <time>2026-09-01T19:56:10Z</time>
  <course>337.17</course>
  <speed>0.16552945357246848</speed>
  <fix>3d</fix>
</trkpt>
<trkpt lat="-27.2744204" lon="151.290086">
  <ele>352.53</ele>
  <time>2026-09-01T19:56:10Z</time>
  <course>150.04</course>
  <speed>0.09</speed>
  <fix>3d</fix>
</trkpt>
<trkpt lat="-27.2744209" lon="151.2900863">
  <ele>353.26</ele>
  <time>2026-09-01T19:56:10Z</time>
  <course>337.24</course>
  <speed>0.18788294228055935</speed>
  <fix>3d</fix>
</trkpt>
<trkpt lat="-27.2744204" lon="151.290086">
  <ele>352.53</ele>
  <time>2026-09-01T19:56:10Z</time>
  <course>150.04</course>
  <speed>0.09</speed>
  <fix>3d</fix>
</trkpt>
<trkpt lat="-27.2744211" lon="151.2900864">
  <ele>353.5</ele>
  <time>2026-09-01T19:56:10Z</time>
  <course>337.33</course>
  <speed>0.2102379604162864</speed>
  <fix>3d</fix>
</trkpt>
<trkpt lat="-27.2744206" lon="151.2900861">
  <ele>353.02</ele>
  <time>2026-09-01T19:56:10Z</time>
  <course>152.93</course>
  <speed>0.14</speed>
  <fix>3d</fix>
</trkpt>
<trkpt lat="-27.2744212" lon="151.2900865">
  <ele>353.74</ele>
  <time>2026-09-01T19:56:10Z</time>
  <course>337.4</course>
  <speed>0.2193171219946131</speed>
  <fix>3d</fix>
</trkpt>
<trkpt lat="-27.2744206" lon="151.2900861">
  <ele>353.02</ele>
  <time>2026-09-01T19:56:10Z</time>
  <course>152.93</course>
  <speed>0.14</speed>
  <fix>3d</fix>
</trkpt>
<trkpt lat="-27.2744214" lon="151.2900866">
  <ele>353.99</ele>
  <time>2026-09-01T19:56:10Z</time>
  <course>337.42</course>
  <speed>0.23769728648009425</speed>
  <fix>3d</fix>
</trkpt>
<trkpt lat="-27.2744208" lon="151.2900862">
  <ele>353.5</ele>
  <time>2026-09-01T19:56:10Z</time>
  <course>154.47</course>
  <speed>0.19</speed>
  <fix>3d</fix>
</trkpt>
<trkpt lat="-27.2744216" lon="151.2900866">
  <ele>354.24</ele>
  <time>2026-09-01T19:56:10Z</time>
  <course>337.4</course>
  <speed>0.24166091947189144</speed>
  <fix>3d</fix>
</trkpt>
<trkpt lat="-27.2744208" lon="151.2900862">
  <ele>353.5</ele>
  <time>2026-09-01T19:56:10Z</time>
  <course>154.47</course>
  <speed>0.19</speed>
  <fix>3d</fix>
</trkpt>
<trkpt lat="-27.2744218" lon="151.2900867">
  <ele>354.49</ele>
  <time>2026-09-01T19:56:10Z</time>
  <course>337.39</course>
  <speed>0.25079872407968906</speed>
  <fix>3d</fix>
</trkpt>
<trkpt lat="-27.2744212" lon="151.2900864">
  <ele>354.0</ele>
  <time>2026-09-01T19:56:10Z</time>
  <course>154.68</course>
  <speed>0.22</speed>
  <fix>3d</fix>
</trkpt>
<trkpt lat="-27.274422" lon="151.2900868">
  <ele>354.74</ele>
  <time>2026-09-01T19:56:10Z</time>
  <course>337.39</course>
  <speed>0.2640075756488817</speed>
  <fix>3d</fix>
</trkpt>
<trkpt lat="-27.2744212" lon="151.2900864">
  <ele>354.0</ele>
  <time>2026-09-01T19:56:10Z</time>
  <course>154.68</course>
  <speed>0.22</speed>
  <fix>3d</fix>
</trkpt>
<trkpt lat="-27.2744221" lon="151.2900869">
  <ele>354.99</ele>
  <time>2026-09-01T19:56:10Z</time>
  <course>337.41</course>
  <speed>0.2640075756488817</speed>
  <fix>3d</fix>
</trkpt>
<trkpt lat="-27.2744215" lon="151.2900866">
  <ele>354.5</ele>
  <time>2026-09-01T19:56:10Z</time>
  <course>154.79</course>
  <speed>0.24</speed>
  <fix>3d</fix>
</trkpt>
<trkpt lat="-27.2744223" lon="151.290087">
  <ele>355.25</ele>
  <time>2026-09-01T19:56:10Z</time>
  <course>337.41</course>
  <speed>0.2692582403567252</speed>
  <fix>3d</fix>
</trkpt>
<trkpt lat="-27.2744215" lon="151.2900866">
  <ele>354.5</ele>
  <time>2026-09-01T19:56:10Z</time>
  <course>154.79</course>
  <speed>0.24</speed>
  <fix>3d</fix>
</trkpt>
<trkpt lat="-27.2744225" lon="151.2900871">
  <ele>355.5</ele>
  <time>2026-09-01T19:56:10Z</time>
  <course>337.4</course>
  <speed>0.2692582403567252</speed>
  <fix>3d</fix>
</trkpt>
<trkpt lat="-27.274422" lon="151.2900868">
  <ele>355.0</ele>
  <time>2026-09-01T19:56:10Z</time>
  <course>155.04</course>
  <speed>0.25</speed>
  <fix>3d</fix>
</trkpt>
<trkpt lat="-27.2744228" lon="151.2900872">
  <ele>355.75</ele>
  <time>2026-09-01T19:56:10Z</time>
  <course>337.38</course>
  <speed>0.2692582403567252</speed>
  <fix>3d</fix>
</trkpt>
<trkpt lat="-27.274422" lon="151.2900868">
  <ele>355.0</ele>
  <time>2026-09-01T19:56:10Z</time>
  <course>155.04</course>
  <speed>0.25</speed>
  <fix>3d</fix>
</trkpt>
<trkpt lat="-27.274423" lon="151.2900873">
  <ele>356.01</ele>
  <time>2026-09-01T19:56:10Z</time>
  <course>337.36</course>
  <speed>0.27313000567495327</speed>
  <fix>3d</fix>
</trkpt>
<trkpt lat="-27.2744224" lon="151.2900871">
  <ele>355.5</ele>
  <time>2026-09-01T19:56:10Z</time>
  <course>154.82</course>
  <speed>0.26</speed>
  <fix>3d</fix>
</trkpt>
<trkpt lat="-27.2744232" lon="151.2900874">
  <ele>356.26</ele>
  <time>2026-09-01T19:56:10Z</time>
  <course>337.35</course>
  <speed>0.27313000567495327</speed>
  <fix>3d</fix>
</trkpt>
<trkpt lat="-27.2744224" lon="151.2900871">
  <ele>355.5</ele>
  <time>2026-09-01T19:56:10Z</time>
  <course>154.82</course>
  <speed>0.26</speed>
  <fix>3d</fix>
</trkpt>
<trkpt lat="-27.2744234" lon="151.2900875">
  <ele>356.51</ele>
  <time>2026-09-01T19:56:10Z</time>
  <course>337.37</course>
  <speed>0.2692582403567252</speed>
  <fix>3d</fix>
</trkpt>
<trkpt lat="-27.2744228" lon="151.2900872">
  <ele>356.0</ele>
  <time>2026-09-01T19:56:10Z</time>
  <course>154.71</course>
  <speed>0.26</speed>
  <fix>3d</fix>
</trkpt>
<trkpt lat="-27.2744236" lon="151.2900876">
  <ele>356.77</ele>
  <time>2026-09-01T19:56:10Z</time>
  <course>337.39</course>
  <speed>0.2692582403567252</speed>
  <fix>3d</fix>
</trkpt>
<trkpt lat="-27.2744228" lon="151.2900872">
  <ele>356.0</ele>
  <time>2026-09-01T19:56:10Z</time>
  <course>154.71</course>
  <speed>0.26</speed>
  <fix>3d</fix>
</trkpt>
<trkpt lat="-27.2744238" lon="151.2900877">
  <ele>357.02</ele>
  <time>2026-09-01T19:56:10Z</time>
  <course>337.42</course>
  <speed>0.26</speed>
  <fix>3d</fix>
</trkpt>
<trkpt lat="-27.2744233" lon="151.2900875">
  <ele>356.51</ele>
  <time>2026-09-01T19:56:10Z</time>
  <course>154.7</course>
  <speed>0.26</speed>
  <fix>3d</fix>
</trkpt>
<trkpt lat="-27.274424" lon="151.2900878">
  <ele>357.28</ele>
  <time>2026-09-01T19:56:10Z</time>
  <course>337.42</course>
  <speed>0.26</speed>
  <fix>3d</fix>
</trkpt>
<trkpt lat="-27.2744233" lon="151.2900875">
  <ele>356.51</ele>
  <time>2026-09-01T19:56:10Z</time>
  <course>154.7</course>
  <speed>0.26</speed>
  <fix>3d</fix>
</trkpt>
<trkpt lat="-27.2744242" lon="151.2900879">
  <ele>357.53</ele>
  <time>2026-09-01T19:56:10Z</time>
  <course>337.43</course>
  <speed>0.26</speed>
  <fix>3d</fix>
</trkpt>
<trkpt lat="-27.2744237" lon="151.2900877">
  <ele>357.02</ele>
  <time>2026-09-01T19:56:10Z</time>
  <course>154.58</course>
  <speed>0.26</speed>
  <fix>3d</fix>
</trkpt>
<trkpt lat="-27.2744244" lon="151.290088">
  <ele>357.78</ele>
  <time>2026-09-01T19:56:10Z</time>
  <course>337.43</course>
  <speed>0.25079872407968906</speed>
  <fix>3d</fix>
</trkpt>
<trkpt lat="-27.2744237" lon="151.2900877">
  <ele>357.02</ele>
  <time>2026-09-01T19:56:10Z</time>
  <course>154.58</course>
  <speed>0.26</speed>
  <fix>3d</fix>
</trkpt>
<trkpt lat="-27.2744246" lon="151.2900881">
  <ele>358.04</ele>
  <time>2026-09-01T19:56:10Z</time>
  <course>337.43</course>
  <speed>0.25079872407968906</speed>
  <fix>3d</fix>
</trkpt>
<trkpt lat="-27.2744241" lon="151.290088">
  <ele>357.53</ele>
  <time>2026-09-01T19:56:10Z</time>
  <course>154.61</course>
  <speed>0.25</speed>
  <fix>3d</fix>
</trkpt>
<trkpt lat="-27.2744248" lon="151.2900882">
  <ele>358.29</ele>
  <time>2026-09-01T19:56:10Z</time>
  <course>337.43</course>
  <speed>0.24596747752497689</speed>
  <fix>3d</fix>
</trkpt>
<trkpt lat="-27.2744241" lon="151.290088">
  <ele>357.53</ele>
  <time>2026-09-01T19:56:10Z</time>
  <course>154.61</course>
  <speed>0.25</speed>
  <fix>3d</fix>
</trkpt>
<trkpt lat="-27.274425" lon="151.2900884">
  <ele>358.54</ele>
  <time>2026-09-01T19:56:10Z</time>
  <course>337.42</course>
  <speed>0.24596747752497689</speed>
  <fix>3d</fix>
</trkpt>
<trkpt lat="-27.2744245" lon="151.2900881">
  <ele>358.03</ele>
  <time>2026-09-01T19:56:10Z</time>
  <course>154.64</course>
  <speed>0.24</speed>
  <fix>3d</fix>
</trkpt>
<trkpt lat="-27.2744252" lon="151.2900885">
  <ele>358.79</ele>
  <time>2026-09-01T19:56:10Z</time>
  <course>337.41</course>
  <speed>0.24596747752497689</speed>
  <fix>3d</fix>
</trkpt>
<trkpt lat="-27.2744245" lon="151.2900881">
  <ele>358.03</ele>
  <time>2026-09-01T19:56:10Z</time>
  <course>154.64</course>
  <speed>0.24</speed>
  <fix>3d</fix>
</trkpt>
<trkpt lat="-27.2744253" lon="151.2900886">
  <ele>359.04</ele>
  <time>2026-09-01T19:56:10Z</time>
  <course>337.4</course>
  <speed>0.23259406699226015</speed>
  <fix>3d</fix>
</trkpt>
<trkpt lat="-27.2744249" lon="151.2900884">
  <ele>358.53</ele>
  <time>2026-09-01T19:56:10Z</time>
  <course>154.71</course>
  <speed>0.24</speed>
  <fix>3d</fix>
</trkpt>
<trkpt lat="-27.2744255" lon="151.2900887">
  <ele>359.29</ele>
  <time>2026-09-01T19:56:10Z</time>
  <course>337.37</course>
  <speed>0.23259406699226015</speed>
  <fix>3d</fix>
</trkpt>
<trkpt lat="-27.2744249" lon="151.2900884">
  <ele>358.53</ele>
  <time>2026-09-01T19:56:10Z</time>
  <course>154.71</course>
  <speed>0.24</speed>
  <fix>3d</fix>
</trkpt>
<trkpt lat="-27.2744257" lon="151.2900888">
  <ele>359.54</ele>
  <time>2026-09-01T19:56:10Z</time>
  <course>337.35</course>
  <speed>0.22825424421026652</speed>
  <fix>3d</fix>
</trkpt>
<trkpt lat="-27.2744253" lon="151.2900886">
  <ele>359.03</ele>
  <time>2026-09-01T19:56:10Z</time>
  <course>154.87</course>
  <speed>0.23</speed>
  <fix>3d</fix>
</trkpt>
<trkpt lat="-27.2744259" lon="151.2900889">
  <ele>359.79</ele>
  <time>2026-09-01T19:56:10Z</time>
  <course>337.32</course>
  <speed>0.2195449840010015</speed>
  <fix>3d</fix>
</trkpt>
<trkpt lat="-27.2744253" lon="151.2900886">
  <ele>359.03</ele>
  <time>2026-09-01T19:56:10Z</time>
  <course>154.87</course>
  <speed>0.23</speed>
  <fix>3d</fix>
</trkpt>
<trkpt lat="-27.274426" lon="151.290089">
  <ele>360.04</ele>
  <time>2026-09-01T19:56:10Z</time>
  <course>337.29</course>
  <speed>0.21470910553583888</speed>
  <fix>3d</fix>
</trkpt>
<trkpt lat="-27.2744257" lon="151.2900887">
  <ele>359.53</ele>
  <time>2026-09-01T19:56:10Z</time>
  <course>154.77</course>
  <speed>0.22</speed>
  <fix>3d</fix>
</trkpt>
<trkpt lat="-27.2744262" lon="151.2900891">
  <ele>360.29</ele>
  <time>2026-09-01T19:56:10Z</time>
  <course>337.26</course>
  <speed>0.21470910553583888</speed>
  <fix>3d</fix>
</trkpt>
<trkpt lat="-27.2744257" lon="151.2900887">
  <ele>359.53</ele>
  <time>2026-09-01T19:56:10Z</time>
  <course>154.77</course>
  <speed>0.22</speed>
  <fix>3d</fix>
</trkpt>
<trkpt lat="-27.2744264" lon="151.2900892">
  <ele>360.54</ele>
  <time>2026-09-01T19:56:10Z</time>
  <course>337.24</course>
  <speed>0.20124611797498107</speed>
  <fix>3d</fix>
</trkpt>
<trkpt lat="-27.274426" lon="151.290089">
  <ele>360.03</ele>
  <time>2026-09-01T19:56:10Z</time>
  <course>154.8</course>
  <speed>0.2</speed>
  <fix>3d</fix>
</trkpt>
<trkpt lat="-27.2744265" lon="151.2900892">
  <ele>360.79</ele>
  <time>2026-09-01T19:56:10Z</time>
  <course>337.22</course>
  <speed>0.20124611797498107</speed>
  <fix>3d</fix>
</trkpt>
<trkpt lat="-27.274426" lon="151.290089">
  <ele>360.03</ele>
  <time>2026-09-01T19:56:10Z</time>
  <course>154.8</course>
  <speed>0.2</speed>
  <fix>3d</fix>
</trkpt>
<trkpt lat="-27.2744267" lon="151.2900893">
  <ele>361.04</ele>
  <time>2026-09-01T19:56:10Z</time>
  <course>337.2</course>
  <speed>0.18788294228055935</speed>
  <fix>3d</fix>
</trkpt>
<trkpt lat="-27.2744263" lon="151.2900892">
  <ele>360.53</ele>
  <time>2026-09-01T19:56:10Z</time>
  <course>155.07</course>
  <speed>0.19</speed>
  <fix>3d</fix>
</trkpt>
<trkpt lat="-27.2744268" lon="151.2900894">
  <ele>361.29</ele>
  <time>2026-09-01T19:56:10Z</time>
  <course>337.18</course>
  <speed>0.18788294228055935</speed>
  <fix>3d</fix>
</trkpt>
<trkpt lat="-27.2744263" lon="151.2900892">
  <ele>360.53</ele>
  <time>2026-09-01T19:56:10Z</time>
  <course>155.07</course>
  <speed>0.19</speed>
  <fix>3d</fix>
</trkpt>
<trkpt lat="-27.2744269" lon="151.2900895">
  <ele>361.54</ele>
  <time>2026-09-01T19:56:10Z</time>
  <course>337.16</course>
  <speed>0.17888543819998318</speed>
  <fix>3d</fix>
</trkpt>
<trkpt lat="-27.2744266" lon="151.2900893">
  <ele>361.03</ele>
  <time>2026-09-01T19:56:10Z</time>
  <course>154.84</course>
  <speed>0.18</speed>
  <fix>3d</fix>
</trkpt>
<trkpt lat="-27.2744271" lon="151.2900896">
  <ele>361.79</ele>
  <time>2026-09-01T19:56:10Z</time>
  <course>337.15</course>
  <speed>0.17492855684535902</speed>
  <fix>3d</fix>
</trkpt>
<trkpt lat="-27.2744266" lon="151.2900893">
  <ele>361.03</ele>
  <time>2026-09-01T19:56:10Z</time>
  <course>154.84</course>
  <speed>0.18</speed>
  <fix>3d</fix>
</trkpt>
<trkpt lat="-27.2744272" lon="151.2900896">
  <ele>362.04</ele>
  <time>2026-09-01T19:56:10Z</time>
  <course>337.16</course>
  <speed>0.16124515496597097</speed>
  <fix>3d</fix>
</trkpt>
<trkpt lat="-27.2744269" lon="151.2900895">
  <ele>361.52</ele>
  <time>2026-09-01T19:56:10Z</time>
  <course>154.41</course>
  <speed>0.17</speed>
  <fix>3d</fix>
</trkpt>
<trkpt lat="-27.2744273" lon="151.2900897">
  <ele>362.29</ele>
  <time>2026-09-01T19:56:10Z</time>
  <course>337.19</course>
  <speed>0.16124515496597097</speed>
  <fix>3d</fix>
</trkpt>
<trkpt lat="-27.2744269" lon="151.2900895">
  <ele>361.52</ele>
  <time>2026-09-01T19:56:10Z</time>
  <course>154.41</course>
  <speed>0.17</speed>
  <fix>3d</fix>
</trkpt>
<trkpt lat="-27.2744274" lon="151.2900898">
  <ele>362.54</ele>
  <time>2026-09-01T19:56:10Z</time>
  <course>337.21</course>
  <speed>0.15264337522473748</speed>
  <fix>3d</fix>
</trkpt>
<trkpt lat="-27.2744272" lon="151.2900896">
  <ele>362.02</ele>
  <time>2026-09-01T19:56:10Z</time>
  <course>154.75</course>
  <speed>0.15</speed>
  <fix>3d</fix>
</trkpt>
<trkpt lat="-27.2744275" lon="151.2900899">
  <ele>362.78</ele>
  <time>2026-09-01T19:56:10Z</time>
  <course>337.23</course>
  <speed>0.15</speed>
  <fix>3d</fix>
</trkpt>
<trkpt lat="-27.2744272" lon="151.2900896">
  <ele>362.02</ele>
  <time>2026-09-01T19:56:10Z</time>
  <course>154.75</course>
  <speed>0.15</speed>
  <fix>3d</fix>
</trkpt>
<trkpt lat="-27.2744277" lon="151.2900899">
  <ele>363.03</ele>
  <time>2026-09-01T19:56:10Z</time>
  <course>337.21</course>
  <speed>0.14422205101855956</speed>
  <fix>3d</fix>
</trkpt>
<trkpt lat="-27.2744275" lon="151.2900897">
  <ele>362.52</ele>
  <time>2026-09-01T19:56:10Z</time>
  <course>155.66</course>
  <speed>0.14</speed>
  <fix>3d</fix>
</trkpt>
<trkpt lat="-27.2744278" lon="151.29009">
  <ele>363.28</ele>
  <time>2026-09-01T19:56:10Z</time>
  <course>337.17</course>
  <speed>0.13601470508735444</speed>
  <fix>3d</fix>
</trkpt>
<trkpt lat="-27.2744275" lon="151.2900897">
  <ele>362.52</ele>
  <time>2026-09-01T19:56:10Z</time>
  <course>155.66</course>
  <speed>0.14</speed>
  <fix>3d</fix>
</trkpt>
<trkpt lat="-27.2744278" lon="151.2900901">
  <ele>363.53</ele>
  <time>2026-09-01T19:56:10Z</time>
  <course>337.1</course>
  <speed>0.1063014581273465</speed>
  <fix>3d</fix>
</trkpt>
<trkpt lat="-27.2744276" lon="151.2900898">
  <ele>363.02</ele>
  <time>2026-09-01T19:56:10Z</time>
  <course>156.46</course>
  <speed>0.13</speed>
  <fix>3d</fix>
</trkpt>
<trkpt lat="-27.2744279" lon="151.2900901">
  <ele>363.78</ele>
  <time>2026-09-01T19:56:10Z</time>
  <course>337.03</course>
  <speed>0.0412310562561766</speed>
  <fix>3d</fix>
</trkpt>
<trkpt lat="-27.2744276" lon="151.2900898">
  <ele>363.02</ele>
  <time>2026-09-01T19:56:10Z</time>
  <course>156.46</course>
  <speed>0.13</speed>
  <fix>3d</fix>
</trkpt>
<trkpt lat="-27.2744278" lon="151.2900901">
  <ele>364.03</ele>
  <time>2026-09-01T19:56:10Z</time>
  <course>336.96</course>
  <speed>0.1004987562112089</speed>
  <fix>3d</fix>
</trkpt>
<trkpt lat="-27.2744279" lon="151.2900899">
  <ele>363.52</ele>
  <time>2026-09-01T19:56:10Z</time>
  <course>156.8</course>
  <speed>0.07</speed>
  <fix>3d</fix>
</trkpt>
<trkpt lat="-27.2744277" lon="151.29009">
  <ele>364.28</ele>
  <time>2026-09-01T19:56:10Z</time>
  <course>336.92</course>
  <speed>0.29120439557122074</speed>
  <fix>3d</fix>
</trkpt>
<trkpt lat="-27.2744279" lon="151.2900899">
  <ele>363.52</ele>
  <time>2026-09-01T19:56:10Z</time>
  <course>156.8</course>
  <speed>0.07</speed>
  <fix>3d</fix>
</trkpt>
<trkpt lat="-27.2744274" lon="151.2900899">
  <ele>364.54</ele>
  <time>2026-09-01T19:56:10Z</time>
  <course>336.9</course>
  <speed>0.5408326913195984</speed>
  <fix>3d</fix>
</trkpt>
<trkpt lat="-27.2744279" lon="151.2900899">
  <ele>364.02</ele>
  <time>2026-09-01T19:56:10Z</time>
  <course>337.01</course>
  <speed>0.14</speed>
  <fix>3d</fix>
</trkpt>
<trkpt lat="-27.2744268" lon="151.2900897">
  <ele>364.79</ele>
  <time>2026-09-01T19:56:10Z</time>
  <course>336.84</course>
  <speed>0.8544003745317531</speed>
  <fix>3d</fix>
</trkpt>
<trkpt lat="-27.2744279" lon="151.2900899">
  <ele>364.02</ele>
  <time>2026-09-01T19:56:10Z</time>
  <course>337.01</course>
  <speed>0.14</speed>
  <fix>3d</fix>
</trkpt>
<trkpt lat="-27.274426" lon="151.2900893">
  <ele>365.05</ele>
  <time>2026-09-01T19:56:10Z</time>
  <course>336.79</course>
  <speed>1.2256018929489298</speed>
  <fix>3d</fix>
</trkpt>
<trkpt lat="-27.2744273" lon="151.2900897">
  <ele>364.52</ele>
  <time>2026-09-01T19:56:10Z</time>
  <course>337.22</course>
  <speed>0.58</speed>
  <fix>3d</fix>
</trkpt>
<trkpt lat="-27.2744248" lon="151.2900887">
  <ele>365.3</ele>
  <time>2026-09-01T19:56:10Z</time>
  <course>336.67</course>
  <speed>1.6638810053606599</speed>
  <fix>3d</fix>
</trkpt>
<trkpt lat="-27.2744273" lon="151.2900897">
  <ele>364.52</ele>
  <time>2026-09-01T19:56:10Z</time>
  <course>337.22</course>
  <speed>0.58</speed>
  <fix>3d</fix>
</trkpt>
<trkpt lat="-27.2744232" lon="151.2900879">
  <ele>365.56</ele>
  <time>2026-09-01T19:56:10Z</time>
  <course>336.46</course>
  <speed>2.165386801474508</speed>
  <fix>3d</fix>
</trkpt>
<trkpt lat="-27.2744259" lon="151.2900891">
  <ele>365.03</ele>
  <time>2026-09-01T19:56:10Z</time>
  <course>337.2</course>
  <speed>1.26</speed>
  <fix>3d</fix>
</trkpt>
<trkpt lat="-27.2744212" lon="151.290087">
  <ele>365.81</ele>
  <time>2026-09-01T19:56:10Z</time>
  <course>336.34</course>
  <speed>2.7338617375427017</speed>
  <fix>3d</fix>
</trkpt>
<trkpt lat="-27.2744259" lon="151.2900891">
  <ele>365.03</ele>
  <time>2026-09-01T19:56:10Z</time>
  <course>337.2</course>
  <speed>1.26</speed>
  <fix>3d</fix>
</trkpt>
<trkpt lat="-27.2744187" lon="151.2900858">
  <ele>366.06</ele>
  <time>2026-09-01T19:56:10Z</time>
  <course>336.39</course>
  <speed>3.3562181097181396</speed>
  <fix>3d</fix>
</trkpt>
<trkpt lat="-27.274423" lon="151.2900877">
  <ele>365.55</ele>
  <time>2026-09-01T19:56:10Z</time>
  <course>337.08</course>
  <speed>2.2</speed>
  <fix>3d</fix>
</trkpt>
<trkpt lat="-27.2744157" lon="151.2900843">
  <ele>366.31</ele>
  <time>2026-09-01T19:56:10Z</time>
  <course>336.44</course>
  <speed>4.000912395941706</speed>
  <fix>3d</fix>
</trkpt>
<trkpt lat="-27.274423" lon="151.2900877">
  <ele>365.55</ele>
  <time>2026-09-01T19:56:10Z</time>
  <course>337.08</course>
  <speed>2.2</speed>
  <fix>3d</fix>
</trkpt>
<trkpt lat="-27.2744122" lon="151.2900826">
  <ele>366.55</ele>
  <time>2026-09-01T19:56:10Z</time>
  <course>336.52</course>
  <speed>4.664011149214804</speed>
  <fix>3d</fix>
</trkpt>
<trkpt lat="-27.2744184" lon="151.2900855">
  <ele>366.06</ele>
  <time>2026-09-01T19:56:10Z</time>
  <course>337.09</course>
  <speed>3.38</speed>
  <fix>3d</fix>
</trkpt>
<trkpt lat="-27.2744081" lon="151.2900806">
  <ele>366.78</ele>
  <time>2026-09-01T19:56:10Z</time>
  <course>336.62</course>
  <speed>5.327109910636348</speed>
  <fix>3d</fix>
</trkpt>
<trkpt lat="-27.2744184" lon="151.2900855">
  <ele>366.06</ele>
  <time>2026-09-01T19:56:10Z</time>
  <course>337.09</course>
  <speed>3.38</speed>
  <fix>3d</fix>
</trkpt>
<trkpt lat="-27.2744034" lon="151.2900784">
  <ele>367.0</ele>
  <time>2026-09-01T19:56:10Z</time>
  <course>336.63</course>
  <speed>6.003332407921453</speed>
  <fix>3d</fix>
</trkpt>
<trkpt lat="-27.2744117" lon="151.2900823">
  <ele>366.54</ele>
  <time>2026-09-01T19:56:10Z</time>
  <course>337.16</course>
  <speed>4.69</speed>
  <fix>3d</fix>
</trkpt>
<trkpt lat="-27.2743983" lon="151.2900759">
  <ele>367.21</ele>
  <time>2026-09-01T19:56:10Z</time>
  <course>336.73</course>
  <speed>6.658595948095965</speed>
  <fix>3d</fix>
</trkpt>
<trkpt lat="-27.2744117" lon="151.2900823">
  <ele>366.54</ele>
  <time>2026-09-01T19:56:10Z</time>
  <course>337.16</course>
  <speed>4.69</speed>
  <fix>3d</fix>
</trkpt>
<trkpt lat="-27.2743924" lon="151.2900731">
  <ele>367.42</ele>
  <time>2026-09-01T19:56:10Z</time>
  <course>336.79</course>
  <speed>7.304690274063645</speed>
  <fix>3d</fix>
</trkpt>
<trkpt lat="-27.2744029" lon="151.2900781">
  <ele>366.99</ele>
  <time>2026-09-01T19:56:10Z</time>
  <course>337.26</course>
  <speed>6.03</speed>
  <fix>3d</fix>
</trkpt>
<trkpt lat="-27.2743862" lon="151.2900702">
  <ele>367.63</ele>
  <time>2026-09-01T19:56:10Z</time>
  <course>336.86</course>
  <speed>7.915402706116726</speed>
  <fix>3d</fix>
</trkpt>
<trkpt lat="-27.2744029" lon="151.2900781">
  <ele>366.99</ele>
  <time>2026-09-01T19:56:10Z</time>
  <course>337.26</course>
  <speed>6.03</speed>
  <fix>3d</fix>
</trkpt>
<trkpt lat="-27.2743794" lon="151.2900671">
  <ele>367.84</ele>
  <time>2026-09-01T19:56:10Z</time>
  <course>337.01</course>
  <speed>8.535385169985007</speed>
  <fix>3d</fix>
</trkpt>
<trkpt lat="-27.2743918" lon="151.2900729">
  <ele>367.41</ele>
  <time>2026-09-01T19:56:10Z</time>
  <course>337.4</course>
  <speed>7.32</speed>
  <fix>3d</fix>
</trkpt>
<trkpt lat="-27.2743721" lon="151.2900637">
  <ele>368.06</ele>
  <time>2026-09-01T19:56:10Z</time>
  <course>337.05</course>
  <speed>9.133110094595377</speed>
  <fix>3d</fix>
</trkpt>
<trkpt lat="-27.2743918" lon="151.2900729">
  <ele>367.41</ele>
  <time>2026-09-01T19:56:10Z</time>
  <course>337.4</course>
  <speed>7.32</speed>
  <fix>3d</fix>
</trkpt>
<trkpt lat="-27.2743642" lon="151.2900601">
  <ele>368.29</ele>
  <time>2026-09-01T19:56:10Z</time>
  <course>337.08</course>
  <speed>9.70857868073386</speed>
  <fix>3d</fix>
</trkpt>
<trkpt lat="-27.2743785" lon="151.2900667">
  <ele>367.83</ele>
  <time>2026-09-01T19:56:10Z</time>
  <course>337.59</course>
  <speed>8.57</speed>
  <fix>3d</fix>
</trkpt>
<trkpt lat="-27.2743561" lon="151.2900563">
  <ele>368.51</ele>
  <time>2026-09-01T19:56:10Z</time>
  <course>337.12</course>
  <speed>10.284089653440406</speed>
  <fix>3d</fix>
</trkpt>
<trkpt lat="-27.2743785" lon="151.2900667">
  <ele>367.83</ele>
  <time>2026-09-01T19:56:10Z</time>
  <course>337.59</course>
  <speed>8.57</speed>
  <fix>3d</fix>
</trkpt>
<trkpt lat="-27.2743472" lon="151.2900523">
  <ele>368.75</ele>
  <time>2026-09-01T19:56:10Z</time>
  <course>337.18</course>
  <speed>10.846607764642362</speed>
  <fix>3d</fix>
</trkpt>
<trkpt lat="-27.2743633" lon="151.2900597">
  <ele>368.27</ele>
  <time>2026-09-01T19:56:10Z</time>
  <course>337.81</course>
  <speed>9.76</speed>
  <fix>3d</fix>
</trkpt>
<trkpt lat="-27.274338" lon="151.2900481">
  <ele>369.0</ele>
  <time>2026-09-01T19:56:10Z</time>
  <course>337.33</course>
  <speed>11.405437299814505</speed>
  <fix>3d</fix>
</trkpt>
<trkpt lat="-27.2743633" lon="151.2900597">
  <ele>368.27</ele>
  <time>2026-09-01T19:56:10Z</time>
  <course>337.81</course>
  <speed>9.76</speed>
  <fix>3d</fix>
</trkpt>
<trkpt lat="-27.2743282" lon="151.2900437">
  <ele>369.24</ele>
  <time>2026-09-01T19:56:10Z</time>
  <course>337.48</course>
  <speed>11.945781682250852</speed>
  <fix>3d</fix>
</trkpt>
<trkpt lat="-27.2743461" lon="151.2900518">
  <ele>368.73</ele>
  <time>2026-09-01T19:56:10Z</time>
  <course>338.03</course>
  <speed>10.91</speed>
  <fix>3d</fix>
</trkpt>
<trkpt lat="-27.274318" lon="151.2900392">
  <ele>369.48</ele>
  <time>2026-09-01T19:56:10Z</time>
  <course>337.63</course>
  <speed>12.482471710362494</speed>
  <fix>3d</fix>
</trkpt>
<trkpt lat="-27.2743461" lon="151.2900518">
  <ele>368.73</ele>
  <time>2026-09-01T19:56:10Z</time>
  <course>338.03</course>
  <speed>10.91</speed>
  <fix>3d</fix>
</trkpt>
<trkpt lat="-27.2743073" lon="151.2900344">
  <ele>369.71</ele>
  <time>2026-09-01T19:56:10Z</time>
  <course>337.81</course>
  <speed>13.022910580972288</speed>
  <fix>3d</fix>
</trkpt>
<trkpt lat="-27.2743269" lon="151.2900432">
  <ele>369.21</ele>
  <time>2026-09-01T19:56:10Z</time>
  <course>338.25</course>
  <speed>12.02</speed>
  <fix>3d</fix>
</trkpt>
<trkpt lat="-27.2742962" lon="151.2900295">
  <ele>369.93</ele>
  <time>2026-09-01T19:56:10Z</time>
  <course>338.05</course>
  <speed>13.550413277830312</speed>
  <fix>3d</fix>
</trkpt>
<trkpt lat="-27.2743269" lon="151.2900432">
  <ele>369.21</ele>
  <time>2026-09-01T19:56:10Z</time>
  <course>338.25</course>
  <speed>12.02</speed>
  <fix>3d</fix>
</trkpt>
<trkpt lat="-27.2742846" lon="151.2900244">
  <ele>370.12</ele>
  <time>2026-09-01T19:56:10Z</time>
  <course>338.19</course>
  <speed>14.070685839716557</speed>
  <fix>3d</fix>
</trkpt>
<trkpt lat="-27.274306" lon="151.2900339">
  <ele>369.67</ele>
  <time>2026-09-01T19:56:10Z</time>
  <course>338.47</course>
  <speed>13.09</speed>
  <fix>3d</fix>
</trkpt>
<trkpt lat="-27.2742727" lon="151.2900192">
  <ele>370.3</ele>
  <time>2026-09-01T19:56:10Z</time>
  <course>338.36</course>
  <speed>14.594690815498627</speed>
  <fix>3d</fix>
</trkpt>
<trkpt lat="-27.274306" lon="151.2900339">
  <ele>369.67</ele>
  <time>2026-09-01T19:56:10Z</time>
  <course>338.47</course>
  <speed>13.09</speed>
  <fix>3d</fix>
</trkpt>
<trkpt lat="-27.2742603" lon="151.2900139">
  <ele>370.45</ele>
  <time>2026-09-01T19:56:10Z</time>
  <course>338.55</course>
  <speed>15.09291886945663</speed>
  <fix>3d</fix>
</trkpt>
<trkpt lat="-27.2742832" lon="151.2900238">
  <ele>370.08</ele>
  <time>2026-09-01T19:56:10Z</time>
  <course>338.71</course>
  <speed>14.15</speed>
  <fix>3d</fix>
</trkpt>
<trkpt lat="-27.2742475" lon="151.2900083">
  <ele>370.58</ele>
  <time>2026-09-01T19:56:10Z</time>
  <course>338.63</course>
  <speed>15.594822858884932</speed>
  <fix>3d</fix>
</trkpt>
<trkpt lat="-27.2742832" lon="151.2900238">
  <ele>370.08</ele>
  <time>2026-09-01T19:56:10Z</time>
  <course>338.71</course>
  <speed>14.15</speed>
  <fix>3d</fix>
</trkpt>
<trkpt lat="-27.2742343" lon="151.2900027">
  <ele>370.68</ele>
  <time>2026-09-01T19:56:10Z</time>
  <course>338.72</course>
  <speed>16.06164686450303</speed>
  <fix>3d</fix>
</trkpt>
<trkpt lat="-27.2742586" lon="151.2900131">
  <ele>370.4</ele>
  <time>2026-09-01T19:56:10Z</time>
  <course>338.98</course>
  <speed>15.17</speed>
  <fix>3d</fix>
</trkpt>
<trkpt lat="-27.2742205" lon="151.2899969">
  <ele>370.77</ele>
  <time>2026-09-01T19:56:10Z</time>
  <course>338.83</course>
  <speed>16.515680428005382</speed>
  <fix>3d</fix>
</trkpt>
<trkpt lat="-27.2742586" lon="151.2900131">
  <ele>370.4</ele>
  <time>2026-09-01T19:56:10Z</time>
  <course>338.98</course>
  <speed>15.17</speed>
  <fix>3d</fix>
</trkpt>
<trkpt lat="-27.2742066" lon="151.289991">
  <ele>370.83</ele>
  <time>2026-09-01T19:56:10Z</time>
  <course>338.91</course>
  <speed>16.969823216521732</speed>
  <fix>3d</fix>
</trkpt>
<trkpt lat="-27.2742323" lon="151.2900018">
  <ele>370.63</ele>
  <time>2026-09-01T19:56:10Z</time>
  <course>339.24</course>
  <speed>16.15</speed>
  <fix>3d</fix>
</trkpt>
<trkpt lat="-27.2741922" lon="151.2899849">
  <ele>370.87</ele>
  <time>2026-09-01T19:56:10Z</time>
  <course>339.07</course>
  <speed>17.383083731030002</speed>
  <fix>3d</fix>
</trkpt>
<trkpt lat="-27.2742323" lon="151.2900018">
  <ele>370.63</ele>
  <time>2026-09-01T19:56:10Z</time>
  <course>339.24</course>
  <speed>16.15</speed>
  <fix>3d</fix>
</trkpt>
<trkpt lat="-27.2741768" lon="151.2899786">
  <ele>370.89</ele>
  <time>2026-09-01T19:56:10Z</time>
  <course>339.2</course>
  <speed>17.805802425052345</speed>
  <fix>3d</fix>
</trkpt>
<trkpt lat="-27.2742043" lon="151.28999">
  <ele>370.77</ele>
  <time>2026-09-01T19:56:10Z</time>
  <course>339.51</course>
  <speed>17.06</speed>
  <fix>3d</fix>
</trkpt>
<trkpt lat="-27.2741616" lon="151.2899723">
  <ele>370.9</ele>
  <time>2026-09-01T19:56:10Z</time>
  <course>339.35</course>
  <speed>18.2029558039347</speed>
  <fix>3d</fix>
</trkpt>
<trkpt lat="-27.2742043" lon="151.28999">
  <ele>370.77</ele>
  <time>2026-09-01T19:56:10Z</time>
  <course>339.51</course>
  <speed>17.06</speed>
  <fix>3d</fix>
</trkpt>
<trkpt lat="-27.2741462" lon="151.2899659">
  <ele>370.89</ele>
  <time>2026-09-01T19:56:10Z</time>
  <course>339.53</course>
  <speed>18.581436973495887</speed>
  <fix>3d</fix>
</trkpt>
<trkpt lat="-27.2741748" lon="151.2899777">
  <ele>370.83</ele>
  <time>2026-09-01T19:56:10Z</time>
  <course>339.77</course>
  <speed>17.9</speed>
  <fix>3d</fix>
</trkpt>
<trkpt lat="-27.2741302" lon="151.2899595">
  <ele>370.87</ele>
  <time>2026-09-01T19:56:10Z</time>
  <course>339.66</course>
  <speed>18.937806103136655</speed>
  <fix>3d</fix>
</trkpt>
<trkpt lat="-27.2741748" lon="151.2899777">
  <ele>370.83</ele>
  <time>2026-09-01T19:56:10Z</time>
  <course>339.77</course>
  <speed>17.9</speed>
  <fix>3d</fix>
</trkpt>
<trkpt lat="-27.274114" lon="151.2899529">
  <ele>370.84</ele>
  <time>2026-09-01T19:56:10Z</time>
  <course>339.88</course>
  <speed>19.281493718070703</speed>
  <fix>3d</fix>
</trkpt>
<trkpt lat="-27.2741439" lon="151.289965">
  <ele>370.83</ele>
  <time>2026-09-01T19:56:10Z</time>
  <course>340.05</course>
  <speed>18.67</speed>
  <fix>3d</fix>
</trkpt>
<trkpt lat="-27.2740974" lon="151.2899463">
  <ele>370.8</ele>
  <time>2026-09-01T19:56:10Z</time>
  <course>340.03</course>
  <speed>19.612539356238397</speed>
  <fix>3d</fix>
</trkpt>
<trkpt lat="-27.2741439" lon="151.289965">
  <ele>370.83</ele>
  <time>2026-09-01T19:56:10Z</time>
  <course>340.05</course>
  <speed>18.67</speed>
  <fix>3d</fix>
</trkpt>
<trkpt lat="-27.2740804" lon="151.2899395">
  <ele>370.76</ele>
  <time>2026-09-01T19:56:10Z</time>
  <course>340.18</course>
  <speed>19.93098592644127</speed>
  <fix>3d</fix>
</trkpt>
<trkpt lat="-27.2741118" lon="151.289952">
  <ele>370.79</ele>
  <time>2026-09-01T19:56:10Z</time>
  <course>340.33</course>
  <speed>19.38</speed>
  <fix>3d</fix>
</trkpt>
<trkpt lat="-27.2740633" lon="151.2899328">
  <ele>370.71</ele>
  <time>2026-09-01T19:56:10Z</time>
  <course>340.25</course>
  <speed>20.221266033559818</speed>
  <fix>3d</fix>
</trkpt>
<trkpt lat="-27.2741118" lon="151.289952">
  <ele>370.79</ele>
  <time>2026-09-01T19:56:10Z</time>
  <course>340.33</course>
  <speed>19.38</speed>
  <fix>3d</fix>
</trkpt>
<trkpt lat="-27.2740458" lon="151.289926">
  <ele>370.67</ele>
  <time>2026-09-01T19:56:10Z</time>
  <course>340.43</course>
  <speed>20.511660098587825</speed>
  <fix>3d</fix>
</trkpt>
<trkpt lat="-27.2740784" lon="151.2899387">
  <ele>370.71</ele>
  <time>2026-09-01T19:56:10Z</time>
  <course>340.62</course>
  <speed>20.01</speed>
  <fix>3d</fix>
</trkpt>
<trkpt lat="-27.2740282" lon="151.2899192">
  <ele>370.62</ele>
  <time>2026-09-01T19:56:10Z</time>
  <course>340.65</course>
  <speed>20.776765869595778</speed>
  <fix>3d</fix>
</trkpt>
<trkpt lat="-27.2740784" lon="151.2899387">
  <ele>370.71</ele>
  <time>2026-09-01T19:56:10Z</time>
  <course>340.62</course>
  <speed>20.01</speed>
  <fix>3d</fix>
</trkpt>
<trkpt lat="-27.2740104" lon="151.2899123">
  <ele>370.58</ele>
  <time>2026-09-01T19:56:10Z</time>
  <course>340.76</course>
  <speed>21.026309709504424</speed>
  <fix>3d</fix>
</trkpt>
<trkpt lat="-27.2740439" lon="151.2899252">
  <ele>370.63</ele>
  <time>2026-09-01T19:56:10Z</time>
  <course>340.91</course>
  <speed>20.59</speed>
  <fix>3d</fix>
</trkpt>
<trkpt lat="-27.2739924" lon="151.2899055">
  <ele>370.54</ele>
  <time>2026-09-01T19:56:10Z</time>
  <course>340.93</course>
  <speed>21.26007761039456</speed>
  <fix>3d</fix>
</trkpt>
<trkpt lat="-27.2740439" lon="151.2899252">
  <ele>370.63</ele>
  <time>2026-09-01T19:56:10Z</time>
  <course>340.91</course>
  <speed>20.59</speed>
  <fix>3d</fix>
</trkpt>
<trkpt lat="-27.2739742" lon="151.2898986">
  <ele>370.51</ele>
  <time>2026-09-01T19:56:10Z</time>
  <course>341.03</course>
  <speed>21.475029685660505</speed>
  <fix>3d</fix>
</trkpt>
<trkpt lat="-27.2740085" lon="151.2899115">
  <ele>370.55</ele>
  <time>2026-09-01T19:56:10Z</time>
  <course>341.19</course>
  <speed>21.11</speed>
  <fix>3d</fix>
</trkpt>
<trkpt lat="-27.2739564" lon="151.2898919">
  <ele>370.49</ele>
  <time>2026-09-01T19:56:10Z</time>
  <course>341.17</course>
  <speed>21.667971755565862</speed>
  <fix>3d</fix>
</trkpt>
<trkpt lat="-27.2740085" lon="151.2899115">
  <ele>370.55</ele>
  <time>2026-09-01T19:56:10Z</time>
  <course>341.19</course>
  <speed>21.11</speed>
  <fix>3d</fix>
</trkpt>
<trkpt lat="-27.2739381" lon="151.2898851">
  <ele>370.48</ele>
  <time>2026-09-01T19:56:10Z</time>
  <course>341.33</course>
  <speed>21.848425572567006</speed>
  <fix>3d</fix>
</trkpt>
<trkpt lat="-27.2739722" lon="151.2898976">
  <ele>370.49</ele>
  <time>2026-09-01T19:56:10Z</time>
  <course>341.47</course>
  <speed>21.56</speed>
  <fix>3d</fix>
</trkpt>
<trkpt lat="-27.2739195" lon="151.2898782">
  <ele>370.48</ele>
  <time>2026-09-01T19:56:10Z</time>
  <course>341.44</course>
  <speed>22.000511357693487</speed>
  <fix>3d</fix>
</trkpt>
<trkpt lat="-27.2739722" lon="151.2898976">
  <ele>370.49</ele>
  <time>2026-09-01T19:56:10Z</time>
  <course>341.47</course>
  <speed>21.56</speed>
  <fix>3d</fix>
</trkpt>
<trkpt lat="-27.2739007" lon="151.2898714">
  <ele>370.48</ele>
  <time>2026-09-01T19:56:10Z</time>
  <course>341.55</course>
  <speed>22.146270566395597</speed>
  <fix>3d</fix>
</trkpt>
<trkpt lat="-27.2739351" lon="151.2898838">
  <ele>370.46</ele>
  <time>2026-09-01T19:56:10Z</time>
  <course>341.73</course>
  <speed>21.95</speed>
  <fix>3d</fix>
</trkpt>
<trkpt lat="-27.2738818" lon="151.2898645">
  <ele>370.5</ele>
  <time>2026-09-01T19:56:10Z</time>
  <course>341.74</course>
  <speed>22.289028691264228</speed>
  <fix>3d</fix>
</trkpt>
<trkpt lat="-27.2739351" lon="151.2898838">
  <ele>370.46</ele>
  <time>2026-09-01T19:56:10Z</time>
  <course>341.73</course>
  <speed>21.95</speed>
  <fix>3d</fix>
</trkpt>
<trkpt lat="-27.2738626" lon="151.2898575">
  <ele>370.54</ele>
  <time>2026-09-01T19:56:10Z</time>
  <course>341.83</course>
  <speed>22.409788040050714</speed>
  <fix>3d</fix>
</trkpt>
<trkpt lat="-27.2738973" lon="151.2898698">
  <ele>370.47</ele>
  <time>2026-09-01T19:56:10Z</time>
  <course>341.98</course>
  <speed>22.27</speed>
  <fix>3d</fix>
</trkpt>
<trkpt lat="-27.2738433" lon="151.2898506">
  <ele>370.58</ele>
  <time>2026-09-01T19:56:10Z</time>
  <course>341.94</course>
  <speed>22.533674800174072</speed>
  <fix>3d</fix>
</trkpt>
<trkpt lat="-27.2738973" lon="151.2898698">
  <ele>370.47</ele>
  <time>2026-09-01T19:56:10Z</time>
  <course>341.98</course>
  <speed>22.27</speed>
  <fix>3d</fix>
</trkpt>
<trkpt lat="-27.273824" lon="151.2898436">
  <ele>370.64</ele>
  <time>2026-09-01T19:56:10Z</time>
  <course>342.05</course>
  <speed>22.635549474223062</speed>
  <fix>3d</fix>
</trkpt>
<trkpt lat="-27.2738589" lon="151.2898559">
  <ele>370.53</ele>
  <time>2026-09-01T19:56:10Z</time>
  <course>342.2</course>
  <speed>22.54</speed>
  <fix>3d</fix>
</trkpt>
<trkpt lat="-27.2738038" lon="151.2898365">
  <ele>370.71</ele>
  <time>2026-09-01T19:56:10Z</time>
  <course>342.18</course>
  <speed>22.750035164807986</speed>
  <fix>3d</fix>
</trkpt>
<trkpt lat="-27.2738589" lon="151.2898559">
  <ele>370.53</ele>
  <time>2026-09-01T19:56:10Z</time>
  <course>342.2</course>
  <speed>22.54</speed>
  <fix>3d</fix>
</trkpt>
<trkpt lat="-27.2737844" lon="151.2898296">
  <ele>370.79</ele>
  <time>2026-09-01T19:56:10Z</time>
  <course>342.27</course>
  <speed>22.845483142188087</speed>
  <fix>3d</fix>
</trkpt>
<trkpt lat="-27.2738202" lon="151.2898419">
  <ele>370.64</ele>
  <time>2026-09-01T19:56:10Z</time>
  <course>342.39</course>
  <speed>22.77</speed>
  <fix>3d</fix>
</trkpt>
<trkpt lat="-27.2737647" lon="151.2898227">
  <ele>370.88</ele>
  <time>2026-09-01T19:56:10Z</time>
  <course>342.32</course>
  <speed>22.92845611898019</speed>
  <fix>3d</fix>
</trkpt>
<trkpt lat="-27.2738202" lon="151.2898419">
  <ele>370.64</ele>
  <time>2026-09-01T19:56:10Z</time>
  <course>342.39</course>
  <speed>22.77</speed>
  <fix>3d</fix>
</trkpt>
<trkpt lat="-27.273745" lon="151.2898157">
  <ele>370.98</ele>
  <time>2026-09-01T19:56:10Z</time>
  <course>342.36</course>
  <speed>22.99532561195862</speed>
  <fix>3d</fix>
</trkpt>
<trkpt lat="-27.273781" lon="151.289828">
  <ele>370.8</ele>
  <time>2026-09-01T19:56:10Z</time>
  <course>342.56</course>
  <speed>22.97</speed>
  <fix>3d</fix>
</trkpt>
<trkpt lat="-27.2737251" lon="151.2898088">
  <ele>371.1</ele>
  <time>2026-09-01T19:56:10Z</time>
  <course>342.42</course>
  <speed>23.07177062992782</speed>
  <fix>3d</fix>
</trkpt>
<trkpt lat="-27.273781" lon="151.289828">
  <ele>370.8</ele>
  <time>2026-09-01T19:56:10Z</time>
  <course>342.56</course>
  <speed>22.97</speed>
  <fix>3d</fix>
</trkpt>
<trkpt lat="-27.2737052" lon="151.2898019">
  <ele>371.22</ele>
  <time>2026-09-01T19:56:10Z</time>
  <course>342.53</course>
  <speed>23.129120173495576</speed>
  <fix>3d</fix>
</trkpt>
<trkpt lat="-27.2737414" lon="151.2898141">
  <ele>371.01</ele>
  <time>2026-09-01T19:56:10Z</time>
  <course>342.69</course>
  <speed>23.13</speed>
  <fix>3d</fix>
</trkpt>
<trkpt lat="-27.2736851" lon="151.2897949">
  <ele>371.36</ele>
  <time>2026-09-01T19:56:10Z</time>
  <course>342.61</course>
  <speed>23.183556672779954</speed>
  <fix>3d</fix>
</trkpt>
<trkpt lat="-27.2737414" lon="151.2898141">
  <ele>371.01</ele>
  <time>2026-09-01T19:56:10Z</time>
  <course>342.69</course>
  <speed>23.13</speed>
  <fix>3d</fix>
</trkpt>
<trkpt lat="-27.2736652" lon="151.289788">
  <ele>371.51</ele>
  <time>2026-09-01T19:56:10Z</time>
  <course>342.65</course>
  <speed>23.23137533595461</speed>
  <fix>3d</fix>
</trkpt>
<trkpt lat="-27.2737016" lon="151.2898002">
  <ele>371.26</ele>
  <time>2026-09-01T19:56:10Z</time>
  <course>342.8</course>
  <speed>23.25</speed>
  <fix>3d</fix>
</trkpt>
<trkpt lat="-27.2736452" lon="151.2897811">
  <ele>371.67</ele>
  <time>2026-09-01T19:56:10Z</time>
  <course>342.7</course>
  <speed>23.269636868675025</speed>
  <fix>3d</fix>
</trkpt>
<trkpt lat="-27.2737016" lon="151.2898002">
  <ele>371.26</ele>
  <time>2026-09-01T19:56:10Z</time>
  <course>342.8</course>
  <speed>23.25</speed>
  <fix>3d</fix>
</trkpt>
<trkpt lat="-27.2736252" lon="151.2897742">
  <ele>371.84</ele>
  <time>2026-09-01T19:56:10Z</time>
  <course>342.73</course>
  <speed>23.30790423869122</speed>
  <fix>3d</fix>
</trkpt>
<trkpt lat="-27.2736616" lon="151.2897863">
  <ele>371.55</ele>
  <time>2026-09-01T19:56:10Z</time>
  <course>342.89</course>
  <speed>23.35</speed>
  <fix>3d</fix>
</trkpt>
<trkpt lat="-27.2736052" lon="151.2897673">
  <ele>372.02</ele>
  <time>2026-09-01T19:56:10Z</time>
  <course>342.79</course>
  <speed>23.333705235131433</speed>
  <fix>3d</fix>
</trkpt>
<trkpt lat="-27.2736616" lon="151.2897863">
  <ele>371.55</ele>
  <time>2026-09-01T19:56:10Z</time>
  <course>342.89</course>
  <speed>23.35</speed>
  <fix>3d</fix>
</trkpt>
<trkpt lat="-27.2735851" lon="151.2897604">
  <ele>372.21</ele>
  <time>2026-09-01T19:56:10Z</time>
  <course>342.84</course>
  <speed>23.36531617590483</speed>
  <fix>3d</fix>
</trkpt>
<trkpt lat="-27.2736215" lon="151.2897724">
  <ele>371.89</ele>
  <time>2026-09-01T19:56:10Z</time>
  <course>342.95</course>
  <speed>23.43</speed>
  <fix>3d</fix>
</trkpt>
<trkpt lat="-27.2735649" lon="151.2897535">
  <ele>372.41</ele>
  <time>2026-09-01T19:56:10Z</time>
  <course>342.92</course>
  <speed>23.38445637597761</speed>
  <fix>3d</fix>
</trkpt>
<trkpt lat="-27.2736215" lon="151.2897724">
  <ele>371.89</ele>
  <time>2026-09-01T19:56:10Z</time>
  <course>342.95</course>
  <speed>23.43</speed>
  <fix>3d</fix>
</trkpt>
<trkpt lat="-27.2735447" lon="151.2897465">
  <ele>372.61</ele>
  <time>2026-09-01T19:56:10Z</time>
  <course>342.92</course>
  <speed>23.413169371103944</speed>
  <fix>3d</fix>
</trkpt>
<trkpt lat="-27.2735812" lon="151.2897585">
  <ele>372.26</ele>
  <time>2026-09-01T19:56:10Z</time>
  <course>342.99</course>
  <speed>23.49</speed>
  <fix>3d</fix>
</trkpt>
<trkpt lat="-27.2735244" lon="151.2897396">
  <ele>372.82</ele>
  <time>2026-09-01T19:56:10Z</time>
  <course>342.93</course>
  <speed>23.432313159395935</speed>
  <fix>3d</fix>
</trkpt>
<trkpt lat="-27.2735812" lon="151.2897585">
  <ele>372.26</ele>
  <time>2026-09-01T19:56:10Z</time>
  <course>342.99</course>
  <speed>23.49</speed>
  <fix>3d</fix>
</trkpt>
<trkpt lat="-27.2735041" lon="151.2897326">
  <ele>373.03</ele>
  <time>2026-09-01T19:56:10Z</time>
  <course>342.92</course>
  <speed>23.444779802762064</speed>
  <fix>3d</fix>
</trkpt>
<trkpt lat="-27.2735408" lon="151.2897447">
  <ele>372.66</ele>
  <time>2026-09-01T19:56:10Z</time>
  <course>343.01</course>
  <speed>23.53</speed>
  <fix>3d</fix>
</trkpt>
<trkpt lat="-27.2734838" lon="151.2897256">
  <ele>373.26</ele>
  <time>2026-09-01T19:56:10Z</time>
  <course>342.9</course>
  <speed>23.454351408640573</speed>
  <fix>3d</fix>
</trkpt>
<trkpt lat="-27.2735408" lon="151.2897447">
  <ele>372.66</ele>
  <time>2026-09-01T19:56:10Z</time>
  <course>343.01</course>
  <speed>23.53</speed>
  <fix>3d</fix>
</trkpt>
<trkpt lat="-27.2734635" lon="151.2897186">
  <ele>373.5</ele>
  <time>2026-09-01T19:56:10Z</time>
  <course>342.92</course>
  <speed>23.47639026767105</speed>
  <fix>3d</fix>
</trkpt>
<trkpt lat="-27.2735003" lon="151.2897308">
  <ele>373.09</ele>
  <time>2026-09-01T19:56:10Z</time>
  <course>343.03</course>
  <speed>23.55</speed>
  <fix>3d</fix>
</trkpt>
<trkpt lat="-27.2734432" lon="151.2897117">
  <ele>373.74</ele>
  <time>2026-09-01T19:56:10Z</time>
  <course>342.98</course>
  <speed>23.47639026767105</speed>
  <fix>3d</fix>
</trkpt>
<trkpt lat="-27.2735003" lon="151.2897308">
  <ele>373.09</ele>
  <time>2026-09-01T19:56:10Z</time>
  <course>343.03</course>
  <speed>23.55</speed>
  <fix>3d</fix>
</trkpt>
<trkpt lat="-27.2734228" lon="151.2897047">
  <ele>373.98</ele>
  <time>2026-09-01T19:56:10Z</time>
  <course>343.01</course>
  <speed>23.48885906126562</speed>
  <fix>3d</fix>
</trkpt>
<trkpt lat="-27.2734598" lon="151.2897168">
  <ele>373.56</ele>
  <time>2026-09-01T19:56:10Z</time>
  <course>343.02</course>
  <speed>23.57</speed>
  <fix>3d</fix>
</trkpt>
<trkpt lat="-27.273403" lon="151.2896979">
  <ele>374.23</ele>
  <time>2026-09-01T19:56:10Z</time>
  <course>342.98</course>
  <speed>23.49842973477164</speed>
  <fix>3d</fix>
</trkpt>
<trkpt lat="-27.2734598" lon="151.2897168">
  <ele>373.56</ele>
  <time>2026-09-01T19:56:10Z</time>
  <course>343.02</course>
  <speed>23.57</speed>
  <fix>3d</fix>
</trkpt>
<trkpt lat="-27.2733821" lon="151.2896907">
  <ele>374.49</ele>
  <time>2026-09-01T19:56:10Z</time>
  <course>342.99</course>
  <speed>23.49842973477164</speed>
  <fix>3d</fix>
</trkpt>
<trkpt lat="-27.2734192" lon="151.2897029">
  <ele>374.05</ele>
  <time>2026-09-01T19:56:10Z</time>
  <course>343.01</course>
  <speed>23.57</speed>
  <fix>3d</fix>
</trkpt>
<trkpt lat="-27.2733621" lon="151.2896838">
  <ele>374.76</ele>
  <time>2026-09-01T19:56:10Z</time>
  <course>342.97</course>
  <speed>23.49176025758819</speed>
  <fix>3d</fix>
</trkpt>
<trkpt lat="-27.2734192" lon="151.2897029">
  <ele>374.05</ele>
  <time>2026-09-01T19:56:10Z</time>
  <course>343.01</course>
  <speed>23.57</speed>
  <fix>3d</fix>
</trkpt>
<trkpt lat="-27.2733418" lon="151.2896768">
  <ele>375.03</ele>
  <time>2026-09-01T19:56:10Z</time>
  <course>343.02</course>
  <speed>23.48219112433931</speed>
  <fix>3d</fix>
</trkpt>
<trkpt lat="-27.2733787" lon="151.289689">
  <ele>374.56</ele>
  <time>2026-09-01T19:56:10Z</time>
  <course>343.0</course>
  <speed>23.57</speed>
  <fix>3d</fix>
</trkpt>
<trkpt lat="-27.2733215" lon="151.2896698">
  <ele>375.31</ele>
  <time>2026-09-01T19:56:10Z</time>
  <course>343.13</course>
  <speed>23.472622350304196</speed>
  <fix>3d</fix>
</trkpt>
<trkpt lat="-27.2733787" lon="151.289689">
  <ele>374.56</ele>
  <time>2026-09-01T19:56:10Z</time>
  <course>343.0</course>
  <speed>23.57</speed>
  <fix>3d</fix>
</trkpt>
<trkpt lat="-27.2733012" lon="151.2896628">
  <ele>375.59</ele>
  <time>2026-09-01T19:56:10Z</time>
  <course>343.14</course>
  <speed>23.469718788259907</speed>
  <fix>3d</fix>
</trkpt>
<trkpt lat="-27.2733383" lon="151.2896751">
  <ele>375.09</ele>
  <time>2026-09-01T19:56:10Z</time>
  <course>342.99</course>
  <speed>23.55</speed>
  <fix>3d</fix>
</trkpt>
<trkpt lat="-27.2732807" lon="151.2896558">
  <ele>375.88</ele>
  <time>2026-09-01T19:56:10Z</time>
  <course>343.1</course>
  <speed>23.469718788259907</speed>
  <fix>3d</fix>
</trkpt>
<trkpt lat="-27.2733383" lon="151.2896751">
  <ele>375.09</ele>
  <time>2026-09-01T19:56:10Z</time>
  <course>342.99</course>
  <speed>23.55</speed>
  <fix>3d</fix>
</trkpt>
<trkpt lat="-27.2732604" lon="151.2896488">
  <ele>376.18</ele>
  <time>2026-09-01T19:56:10Z</time>
  <course>343.16</course>
  <speed>23.460149189636454</speed>
  <fix>3d</fix>
</trkpt>
<trkpt lat="-27.2732978" lon="151.2896612">
  <ele>375.65</ele>
  <time>2026-09-01T19:56:10Z</time>
  <course>342.99</course>
  <speed>23.52</speed>
  <fix>3d</fix>
</trkpt>
<trkpt lat="-27.2732402" lon="151.2896418">
  <ele>376.47</ele>
  <time>2026-09-01T19:56:10Z</time>
  <course>343.13</course>
  <speed>23.44767792341067</speed>
  <fix>3d</fix>
</trkpt>
<trkpt lat="-27.2732978" lon="151.2896612">
  <ele>375.65</ele>
  <time>2026-09-01T19:56:10Z</time>
  <course>342.99</course>
  <speed>23.52</speed>
  <fix>3d</fix>
</trkpt>
<trkpt lat="-27.2732199" lon="151.2896348">
  <ele>376.78</ele>
  <time>2026-09-01T19:56:10Z</time>
  <course>343.1</course>
  <speed>23.438107858784164</speed>
  <fix>3d</fix>
</trkpt>
<trkpt lat="-27.2732574" lon="151.2896473">
  <ele>376.23</ele>
  <time>2026-09-01T19:56:10Z</time>
  <course>343.01</course>
  <speed>23.49</speed>
  <fix>3d</fix>
</trkpt>
<trkpt lat="-27.2731996" lon="151.2896279">
  <ele>377.08</ele>
  <time>2026-09-01T19:56:10Z</time>
  <course>343.08</course>
  <speed>23.42853815328647</speed>
  <fix>3d</fix>
</trkpt>
<trkpt lat="-27.2732574" lon="151.2896473">
  <ele>376.23</ele>
  <time>2026-09-01T19:56:10Z</time>
  <course>343.01</course>
  <speed>23.49</speed>
  <fix>3d</fix>
</trkpt>
<trkpt lat="-27.2731794" lon="151.2896209">
  <ele>377.39</ele>
  <time>2026-09-01T19:56:10Z</time>
  <course>343.05</course>
  <speed>23.412306592901096</speed>
  <fix>3d</fix>
</trkpt>
<trkpt lat="-27.2732171" lon="151.2896334">
  <ele>376.83</ele>
  <time>2026-09-01T19:56:10Z</time>
  <course>343.02</course>
  <speed>23.46</speed>
  <fix>3d</fix>
</trkpt>
<trkpt lat="-27.2731592" lon="151.2896139">
  <ele>377.71</ele>
  <time>2026-09-01T19:56:10Z</time>
  <course>343.01</course>
  <speed>23.39317208075895</speed>
  <fix>3d</fix>
</trkpt>
<trkpt lat="-27.2732171" lon="151.2896334">
  <ele>376.83</ele>
  <time>2026-09-01T19:56:10Z</time>
  <course>343.02</course>
  <speed>23.46</speed>
  <fix>3d</fix>
</trkpt>
<trkpt lat="-27.273139" lon="151.289607">
  <ele>378.02</ele>
  <time>2026-09-01T19:56:10Z</time>
  <course>342.99</course>
  <speed>23.38651962135452</speed>
  <fix>3d</fix>
</trkpt>
<trkpt lat="-27.2731769" lon="151.2896196">
  <ele>377.45</ele>
  <time>2026-09-01T19:56:10Z</time>
  <course>343.0</course>
  <speed>23.42</speed>
  <fix>3d</fix>
</trkpt>
<trkpt lat="-27.2731188" lon="151.2896">
  <ele>378.34</ele>
  <time>2026-09-01T19:56:10Z</time>
  <course>343.07</course>
  <speed>23.389437787172227</speed>
  <fix>3d</fix>
</trkpt>
<trkpt lat="-27.2731769" lon="151.2896196">
  <ele>377.45</ele>
  <time>2026-09-01T19:56:10Z</time>
  <course>343.0</course>
  <speed>23.42</speed>
  <fix>3d</fix>
</trkpt>
<trkpt lat="-27.2730986" lon="151.289593">
  <ele>378.64</ele>
  <time>2026-09-01T19:56:10Z</time>
  <course>343.2</course>
  <speed>23.40856680790176</speed>
  <fix>3d</fix>
</trkpt>
<trkpt lat="-27.2731367" lon="151.2896058">
  <ele>378.07</ele>
  <time>2026-09-01T19:56:10Z</time>
  <course>342.96</course>
  <speed>23.39</speed>
  <fix>3d</fix>
</trkpt>
<trkpt lat="-27.2730784" lon="151.289586">
  <ele>378.92</ele>
  <time>2026-09-01T19:56:10Z</time>
  <course>343.22</course>
  <speed>23.440179180202527</speed>
  <fix>3d</fix>
</trkpt>
<trkpt lat="-27.2731367" lon="151.2896058">
  <ele>378.07</ele>
  <time>2026-09-01T19:56:10Z</time>
  <course>342.96</course>
  <speed>23.39</speed>
  <fix>3d</fix>
</trkpt>
<trkpt lat="-27.2730583" lon="151.2895791">
  <ele>379.19</ele>
  <time>2026-09-01T19:56:10Z</time>
  <course>343.15</course>
  <speed>23.44974413506467</speed>
  <fix>3d</fix>
</trkpt>
<trkpt lat="-27.2730965" lon="151.2895919">
  <ele>378.68</ele>
  <time>2026-09-01T19:56:10Z</time>
  <course>342.94</course>
  <speed>23.39</speed>
  <fix>3d</fix>
</trkpt>
<trkpt lat="-27.2730382" lon="151.2895721">
  <ele>379.44</ele>
  <time>2026-09-01T19:56:10Z</time>
  <course>343.06</course>
  <speed>23.47179158053343</speed>
  <fix>3d</fix>
</trkpt>
<trkpt lat="-27.2730965" lon="151.2895919">
  <ele>378.68</ele>
  <time>2026-09-01T19:56:10Z</time>
  <course>342.94</course>
  <speed>23.39</speed>
  <fix>3d</fix>
</trkpt>
<trkpt lat="-27.2730181" lon="151.2895652">
  <ele>379.69</ele>
  <time>2026-09-01T19:56:10Z</time>
  <course>343.03</course>
  <speed>23.496761478978332</speed>
  <fix>3d</fix>
</trkpt>
<trkpt lat="-27.2730562" lon="151.289578">
  <ele>379.24</ele>
  <time>2026-09-01T19:56:10Z</time>
  <course>342.94</course>
  <speed>23.43</speed>
  <fix>3d</fix>
</trkpt>
<trkpt lat="-27.272998" lon="151.2895582">
  <ele>379.92</ele>
  <time>2026-09-01T19:56:10Z</time>
  <course>343.04</course>
  <speed>23.540862346141868</speed>
  <fix>3d</fix>
</trkpt>
<trkpt lat="-27.2730562" lon="151.289578">
  <ele>379.24</ele>
  <time>2026-09-01T19:56:10Z</time>
  <course>342.94</course>
  <speed>23.43</speed>
  <fix>3d</fix>
</trkpt>
<trkpt lat="-27.2729777" lon="151.2895512">
  <ele>380.12</ele>
  <time>2026-09-01T19:56:10Z</time>
  <course>343.08</course>
  <speed>23.60701802430794</speed>
  <fix>3d</fix>
</trkpt>
<trkpt lat="-27.2730158" lon="151.2895641">
  <ele>379.73</ele>
  <time>2026-09-01T19:56:10Z</time>
  <course>342.92</course>
  <speed>23.48</speed>
  <fix>3d</fix>
</trkpt>
<trkpt lat="-27.2729574" lon="151.2895441">
  <ele>380.3</ele>
  <time>2026-09-01T19:56:10Z</time>
  <course>343.08</course>
  <speed>23.67980574244645</speed>
  <fix>3d</fix>
</trkpt>
<trkpt lat="-27.2730158" lon="151.2895641">
  <ele>379.73</ele>
  <time>2026-09-01T19:56:10Z</time>
  <course>342.92</course>
  <speed>23.48</speed>
  <fix>3d</fix>
</trkpt>
<trkpt lat="-27.2729369" lon="151.289537">
  <ele>380.46</ele>
  <time>2026-09-01T19:56:10Z</time>
  <course>343.03</course>
  <speed>23.76508573517041</speed>
  <fix>3d</fix>
</trkpt>
<trkpt lat="-27.2729754" lon="151.28955">
  <ele>380.16</ele>
  <time>2026-09-01T19:56:10Z</time>
  <course>342.89</course>
  <speed>23.59</speed>
  <fix>3d</fix>
</trkpt>
<trkpt lat="-27.2729164" lon="151.2895299">
  <ele>380.6</ele>
  <time>2026-09-01T19:56:10Z</time>
  <course>343.01</course>
  <speed>23.85036687348855</speed>
  <fix>3d</fix>
</trkpt>
<trkpt lat="-27.2729754" lon="151.28955">
  <ele>380.16</ele>
  <time>2026-09-01T19:56:10Z</time>
  <course>342.89</course>
  <speed>23.59</speed>
  <fix>3d</fix>
</trkpt>
<trkpt lat="-27.2728958" lon="151.2895228">
  <ele>380.72</ele>
  <time>2026-09-01T19:56:10Z</time>
  <course>343.06</course>
  <speed>23.945208288924945</speed>
  <fix>3d</fix>
</trkpt>
<trkpt lat="-27.2729348" lon="151.289536">
  <ele>380.51</ele>
  <time>2026-09-01T19:56:10Z</time>
  <course>342.87</course>
  <speed>23.73</speed>
  <fix>3d</fix>
</trkpt>
<trkpt lat="-27.2728751" lon="151.2895156">
  <ele>380.83</ele>
  <time>2026-09-01T19:56:10Z</time>
  <course>343.1</course>
  <speed>24.0400499167535</speed>
  <fix>3d</fix>
</trkpt>
<trkpt lat="-27.2729348" lon="151.289536">
  <ele>380.51</ele>
  <time>2026-09-01T19:56:10Z</time>
  <course>342.87</course>
  <speed>23.73</speed>
  <fix>3d</fix>
</trkpt>
<trkpt lat="-27.2728546" lon="151.2895084">
  <ele>380.93</ele>
  <time>2026-09-01T19:56:10Z</time>
  <course>343.12</course>
  <speed>24.144450708185513</speed>
  <fix>3d</fix>
</trkpt>
<trkpt lat="-27.272894" lon="151.2895219">
  <ele>380.77</ele>
  <time>2026-09-01T19:56:10Z</time>
  <course>342.85</course>
  <speed>23.9</speed>
  <fix>3d</fix>
</trkpt>
<trkpt lat="-27.2728334" lon="151.2895011">
  <ele>381.02</ele>
  <time>2026-09-01T19:56:10Z</time>
  <course>343.09</course>
  <speed>24.26797066093496</speed>
  <fix>3d</fix>
</trkpt>
<trkpt lat="-27.272894" lon="151.2895219">
  <ele>380.77</ele>
  <time>2026-09-01T19:56:10Z</time>
  <course>342.85</course>
  <speed>23.9</speed>
  <fix>3d</fix>
</trkpt>
<trkpt lat="-27.2728124" lon="151.2894938">
  <ele>381.12</ele>
  <time>2026-09-01T19:56:11Z</time>
  <course>343.08</course>
  <speed>24.372371653164983</speed>
  <fix>3d</fix>
</trkpt>
<trkpt lat="-27.2728528" lon="151.2895075">
  <ele>380.99</ele>
  <time>2026-09-01T19:56:11Z</time>
  <course>342.85</course>
  <speed>24.1</speed>
  <fix>3d</fix>
</trkpt>
<trkpt lat="-27.2727914" lon="151.2894865">
  <ele>381.22</ele>
  <time>2026-09-01T19:56:11Z</time>
  <course>343.06</course>
  <speed>24.486332922673412</speed>
  <fix>3d</fix>
</trkpt>
<trkpt lat="-27.2728528" lon="151.2895075">
  <ele>380.99</ele>
  <time>2026-09-01T19:56:11Z</time>
  <course>342.85</course>
  <speed>24.1</speed>
  <fix>3d</fix>
</trkpt>
<trkpt lat="-27.2727704" lon="151.2894792">
  <ele>381.32</ele>
  <time>2026-09-01T19:56:11Z</time>
  <course>343.07</course>
  <speed>24.590734027271328</speed>
  <fix>3d</fix>
</trkpt>
<trkpt lat="-27.2728112" lon="151.2894931">
  <ele>381.18</ele>
  <time>2026-09-01T19:56:11Z</time>
  <course>342.86</course>
  <speed>24.31</speed>
  <fix>3d</fix>
</trkpt>
<trkpt lat="-27.2727493" lon="151.2894719">
  <ele>381.43</ele>
  <time>2026-09-01T19:56:11Z</time>
  <course>343.11</course>
  <speed>24.707628376677516</speed>
  <fix>3d</fix>
</trkpt>
<trkpt lat="-27.2728112" lon="151.2894931">
  <ele>381.18</ele>
  <time>2026-09-01T19:56:11Z</time>
  <course>342.86</course>
  <speed>24.31</speed>
  <fix>3d</fix>
</trkpt>
<trkpt lat="-27.2727282" lon="151.2894646">
  <ele>381.55</ele>
  <time>2026-09-01T19:56:11Z</time>
  <course>343.05</course>
  <speed>24.80909712182207</speed>
  <fix>3d</fix>
</trkpt>
<trkpt lat="-27.2727693" lon="151.2894786">
  <ele>381.37</ele>
  <time>2026-09-01T19:56:11Z</time>
  <course>342.86</course>
  <speed>24.53</speed>
  <fix>3d</fix>
</trkpt>
<trkpt lat="-27.272707" lon="151.2894573">
  <ele>381.68</ele>
  <time>2026-09-01T19:56:11Z</time>
  <course>342.96</course>
  <speed>24.916430322178975</speed>
  <fix>3d</fix>
</trkpt>
<trkpt lat="-27.2727693" lon="151.2894786">
  <ele>381.37</ele>
  <time>2026-09-01T19:56:11Z</time>
  <course>342.86</course>
  <speed>24.53</speed>
  <fix>3d</fix>
</trkpt>
<trkpt lat="-27.2726858" lon="151.2894499">
  <ele>381.82</ele>
  <time>2026-09-01T19:56:11Z</time>
  <course>342.95</course>
  <speed>25.014207962675933</speed>
  <fix>3d</fix>
</trkpt>
<trkpt lat="-27.272727" lon="151.2894639">
  <ele>381.6</ele>
  <time>2026-09-01T19:56:11Z</time>
  <course>342.85</course>
  <speed>24.76</speed>
  <fix>3d</fix>
</trkpt>
<trkpt lat="-27.2726644" lon="151.2894424">
  <ele>381.98</ele>
  <time>2026-09-01T19:56:11Z</time>
  <course>343.05</course>
  <speed>25.111991159603413</speed>
  <fix>3d</fix>
</trkpt>
<trkpt lat="-27.272727" lon="151.2894639">
  <ele>381.6</ele>
  <time>2026-09-01T19:56:11Z</time>
  <course>342.85</course>
  <speed>24.76</speed>
  <fix>3d</fix>
</trkpt>
<trkpt lat="-27.272643" lon="151.289435">
  <ele>382.15</ele>
  <time>2026-09-01T19:56:11Z</time>
  <course>343.1</course>
  <speed>25.21639149442283</speed>
  <fix>3d</fix>
</trkpt>
<trkpt lat="-27.2726843" lon="151.2894491">
  <ele>381.88</ele>
  <time>2026-09-01T19:56:11Z</time>
  <course>342.82</course>
  <speed>24.97</speed>
  <fix>3d</fix>
</trkpt>
<trkpt lat="-27.2726215" lon="151.2894275">
  <ele>382.33</ele>
  <time>2026-09-01T19:56:11Z</time>
  <course>343.07</course>
  <speed>25.311234659731635</speed>
  <fix>3d</fix>
</trkpt>
<trkpt lat="-27.2726843" lon="151.2894491">
  <ele>381.88</ele>
  <time>2026-09-01T19:56:11Z</time>
  <course>342.82</course>
  <speed>24.97</speed>
  <fix>3d</fix>
</trkpt>
<trkpt lat="-27.2725999" lon="151.28942">
  <ele>382.52</ele>
  <time>2026-09-01T19:56:11Z</time>
  <course>343.05</course>
  <speed>25.406078012948004</speed>
  <fix>3d</fix>
</trkpt>
<trkpt lat="-27.2726413" lon="151.2894341">
  <ele>382.2</ele>
  <time>2026-09-01T19:56:11Z</time>
  <course>342.79</course>
  <speed>25.19</speed>
  <fix>3d</fix>
</trkpt>
<trkpt lat="-27.2725782" lon="151.2894124">
  <ele>382.73</ele>
  <time>2026-09-01T19:56:11Z</time>
  <course>343.01</course>
  <speed>25.488420900479497</speed>
  <fix>3d</fix>
</trkpt>
<trkpt lat="-27.2726413" lon="151.2894341">
  <ele>382.2</ele>
  <time>2026-09-01T19:56:11Z</time>
  <course>342.79</course>
  <speed>25.19</speed>
  <fix>3d</fix>
</trkpt>
<trkpt lat="-27.2725563" lon="151.2894048">
  <ele>382.95</ele>
  <time>2026-09-01T19:56:11Z</time>
  <course>343.1</course>
  <speed>25.561206935510697</speed>
  <fix>3d</fix>
</trkpt>
<trkpt lat="-27.2725978" lon="151.289419">
  <ele>382.58</ele>
  <time>2026-09-01T19:56:11Z</time>
  <course>342.78</course>
  <speed>25.39</speed>
  <fix>3d</fix>
</trkpt>
<trkpt lat="-27.2725343" lon="151.2893972">
  <ele>383.19</ele>
  <time>2026-09-01T19:56:11Z</time>
  <course>343.11</course>
  <speed>25.643550846167933</speed>
  <fix>3d</fix>
</trkpt>
<trkpt lat="-27.2725978" lon="151.289419">
  <ele>382.58</ele>
  <time>2026-09-01T19:56:11Z</time>
  <course>342.78</course>
  <speed>25.39</speed>
  <fix>3d</fix>
</trkpt>
<trkpt lat="-27.2725122" lon="151.2893895">
  <ele>383.45</ele>
  <time>2026-09-01T19:56:11Z</time>
  <course>343.06</course>
  <speed>25.71339923075127</speed>
  <fix>3d</fix>
</trkpt>
<trkpt lat="-27.272554" lon="151.2894037">
  <ele>383.01</ele>
  <time>2026-09-01T19:56:11Z</time>
  <course>342.79</course>
  <speed>25.56</speed>
  <fix>3d</fix>
</trkpt>
<trkpt lat="-27.2724901" lon="151.2893818">
  <ele>383.71</ele>
  <time>2026-09-01T19:56:11Z</time>
  <course>343.07</course>
  <speed>25.78325231618385</speed>
  <fix>3d</fix>
</trkpt>
<trkpt lat="-27.272554" lon="151.2894037">
  <ele>383.01</ele>
  <time>2026-09-01T19:56:11Z</time>
  <course>342.79</course>
  <speed>25.56</speed>
  <fix>3d</fix>
</trkpt>
<trkpt lat="-27.2724678" lon="151.2893741">
  <ele>383.99</ele>
  <time>2026-09-01T19:56:11Z</time>
  <course>343.08</course>
  <speed>25.84647945078788</speed>
  <fix>3d</fix>
</trkpt>
<trkpt lat="-27.2725099" lon="151.2893884">
  <ele>383.5</ele>
  <time>2026-09-01T19:56:11Z</time>
  <course>342.83</course>
  <speed>25.71</speed>
  <fix>3d</fix>
</trkpt>
<trkpt lat="-27.2724455" lon="151.2893664">
  <ele>384.29</ele>
  <time>2026-09-01T19:56:11Z</time>
  <course>343.08</course>
  <speed>25.900146717731154</speed>
  <fix>3d</fix>
</trkpt>
<trkpt lat="-27.2725099" lon="151.2893884">
  <ele>383.5</ele>
  <time>2026-09-01T19:56:11Z</time>
  <course>342.83</course>
  <speed>25.71</speed>
  <fix>3d</fix>
</trkpt>
<trkpt lat="-27.2724232" lon="151.2893586">
  <ele>384.6</ele>
  <time>2026-09-01T19:56:11Z</time>
  <course>343.15</course>
  <speed>25.95088052456024</speed>
  <fix>3d</fix>
</trkpt>
<trkpt lat="-27.2724657" lon="151.2893729">
  <ele>384.05</ele>
  <time>2026-09-01T19:56:11Z</time>
  <course>342.84</course>
  <speed>25.83</speed>
  <fix>3d</fix>
</trkpt>
<trkpt lat="-27.272401" lon="151.2893509">
  <ele>384.92</ele>
  <time>2026-09-01T19:56:11Z</time>
  <course>343.25</course>
  <speed>25.989124648590995</speed>
  <fix>3d</fix>
</trkpt>
<trkpt lat="-27.2724657" lon="151.2893729">
  <ele>384.05</ele>
  <time>2026-09-01T19:56:11Z</time>
  <course>342.84</course>
  <speed>25.83</speed>
  <fix>3d</fix>
</trkpt>
<trkpt lat="-27.2723786" lon="151.2893431">
  <ele>385.26</ele>
  <time>2026-09-01T19:56:11Z</time>
  <course>343.23</course>
  <speed>26.027374051179272</speed>
  <fix>3d</fix>
</trkpt>
<trkpt lat="-27.2724213" lon="151.2893576">
  <ele>384.65</ele>
  <time>2026-09-01T19:56:11Z</time>
  <course>342.86</course>
  <speed>25.93</speed>
  <fix>3d</fix>
</trkpt>
<trkpt lat="-27.2723561" lon="151.2893354">
  <ele>385.61</ele>
  <time>2026-09-01T19:56:11Z</time>
  <course>343.19</course>
  <speed>26.06855001721423</speed>
  <fix>3d</fix>
</trkpt>
<trkpt lat="-27.2724213" lon="151.2893576">
  <ele>384.65</ele>
  <time>2026-09-01T19:56:11Z</time>
  <course>342.86</course>
  <speed>25.93</speed>
  <fix>3d</fix>
</trkpt>
<trkpt lat="-27.2723337" lon="151.2893276">
  <ele>385.97</ele>
  <time>2026-09-01T19:56:11Z</time>
  <course>343.18</course>
  <speed>26.090599839789043</speed>
  <fix>3d</fix>
</trkpt>
<trkpt lat="-27.2723767" lon="151.2893421">
  <ele>385.31</ele>
  <time>2026-09-01T19:56:11Z</time>
  <course>342.88</course>
  <speed>26.0</speed>
  <fix>3d</fix>
</trkpt>
<trkpt lat="-27.272311" lon="151.2893198">
  <ele>386.34</ele>
  <time>2026-09-01T19:56:11Z</time>
  <course>343.26</course>
  <speed>26.122212769977967</speed>
  <fix>3d</fix>
</trkpt>
<trkpt lat="-27.2723767" lon="151.2893421">
  <ele>385.31</ele>
  <time>2026-09-01T19:56:11Z</time>
  <course>342.88</course>
  <speed>26.0</speed>
  <fix>3d</fix>
</trkpt>
<trkpt lat="-27.2722885" lon="151.289312">
  <ele>386.71</ele>
  <time>2026-09-01T19:56:11Z</time>
  <course>343.37</course>
  <speed>26.144263233068934</speed>
  <fix>3d</fix>
</trkpt>
<trkpt lat="-27.2723321" lon="151.2893267">
  <ele>386.01</ele>
  <time>2026-09-01T19:56:11Z</time>
  <course>342.9</course>
  <speed>26.06</speed>
  <fix>3d</fix>
</trkpt>
<trkpt lat="-27.272266" lon="151.2893042">
  <ele>387.09</ele>
  <time>2026-09-01T19:56:11Z</time>
  <course>343.33</course>
  <speed>26.172951686808275</speed>
  <fix>3d</fix>
</trkpt>
<trkpt lat="-27.2723321" lon="151.2893267">
  <ele>386.01</ele>
  <time>2026-09-01T19:56:11Z</time>
  <course>342.9</course>
  <speed>26.06</speed>
  <fix>3d</fix>
</trkpt>
<trkpt lat="-27.2722433" lon="151.2892963">
  <ele>387.47</ele>
  <time>2026-09-01T19:56:11Z</time>
  <course>343.29</course>
  <speed>26.182515158021012</speed>
  <fix>3d</fix>
</trkpt>
<trkpt lat="-27.2722873" lon="151.2893112">
  <ele>386.74</ele>
  <time>2026-09-01T19:56:11Z</time>
  <course>342.91</course>
  <speed>26.11</speed>
  <fix>3d</fix>
</trkpt>
<trkpt lat="-27.2722208" lon="151.2892886">
  <ele>387.86</ele>
  <time>2026-09-01T19:56:11Z</time>
  <course>343.29</course>
  <speed>26.20164307824988</speed>
  <fix>3d</fix>
</trkpt>
<trkpt lat="-27.2722873" lon="151.2893112">
  <ele>386.74</ele>
  <time>2026-09-01T19:56:11Z</time>
  <course>342.91</course>
  <speed>26.11</speed>
  <fix>3d</fix>
</trkpt>
<trkpt lat="-27.2721985" lon="151.2892809">
  <ele>388.25</ele>
  <time>2026-09-01T19:56:11Z</time>
  <course>343.32</course>
  <speed>26.195001431570873</speed>
  <fix>3d</fix>
</trkpt>
<trkpt lat="-27.2722424" lon="151.2892957">
  <ele>387.5</ele>
  <time>2026-09-01T19:56:11Z</time>
  <course>342.94</course>
  <speed>26.15</speed>
  <fix>3d</fix>
</trkpt>
<trkpt lat="-27.2721762" lon="151.2892732">
  <ele>388.65</ele>
  <time>2026-09-01T19:56:11Z</time>
  <course>343.3</course>
  <speed>26.20164307824988</speed>
  <fix>3d</fix>
</trkpt>
<trkpt lat="-27.2722424" lon="151.2892957">
  <ele>387.5</ele>
  <time>2026-09-01T19:56:11Z</time>
  <course>342.94</course>
  <speed>26.15</speed>
  <fix>3d</fix>
</trkpt>
<trkpt lat="-27.272154" lon="151.2892655">
  <ele>389.05</ele>
  <time>2026-09-01T19:56:11Z</time>
  <course>343.24</course>
  <speed>26.182515158021012</speed>
  <fix>3d</fix>
</trkpt>
<trkpt lat="-27.2721975" lon="151.2892801">
  <ele>388.27</ele>
  <time>2026-09-01T19:56:11Z</time>
  <course>342.95</course>
  <speed>26.17</speed>
  <fix>3d</fix>
</trkpt>
<trkpt lat="-27.2721318" lon="151.2892578">
  <ele>389.46</ele>
  <time>2026-09-01T19:56:11Z</time>
  <course>343.27</course>
  <speed>26.17959510764061</speed>
  <fix>3d</fix>
</trkpt>
<trkpt lat="-27.2721975" lon="151.2892801">
  <ele>388.27</ele>
  <time>2026-09-01T19:56:11Z</time>
  <course>342.95</course>
  <speed>26.17</speed>
  <fix>3d</fix>
</trkpt>
<trkpt lat="-27.2721095" lon="151.2892502">
  <ele>389.87</ele>
  <time>2026-09-01T19:56:11Z</time>
  <course>343.32</course>
  <speed>26.17003056933637</speed>
  <fix>3d</fix>
</trkpt>
<trkpt lat="-27.2721524" lon="151.2892646">
  <ele>389.07</ele>
  <time>2026-09-01T19:56:11Z</time>
  <course>342.95</course>
  <speed>26.19</speed>
  <fix>3d</fix>
</trkpt>
<trkpt lat="-27.2720872" lon="151.2892425">
  <ele>390.29</ele>
  <time>2026-09-01T19:56:11Z</time>
  <course>343.31</course>
  <speed>26.17003056933637</speed>
  <fix>3d</fix>
</trkpt>
<trkpt lat="-27.2721524" lon="151.2892646">
  <ele>389.07</ele>
  <time>2026-09-01T19:56:11Z</time>
  <course>342.95</course>
  <speed>26.19</speed>
  <fix>3d</fix>
</trkpt>
<trkpt lat="-27.2720649" lon="151.2892347">
  <ele>390.71</ele>
  <time>2026-09-01T19:56:11Z</time>
  <course>343.26</course>
  <speed>26.17003056933637</speed>
  <fix>3d</fix>
</trkpt>
<trkpt lat="-27.2721074" lon="151.2892491">
  <ele>389.89</ele>
  <time>2026-09-01T19:56:11Z</time>
  <course>342.95</course>
  <speed>26.2</speed>
  <fix>3d</fix>
</trkpt>
<trkpt lat="-27.2720425" lon="151.289227">
  <ele>391.12</ele>
  <time>2026-09-01T19:56:11Z</time>
  <course>343.32</course>
  <speed>26.17003056933637</speed>
  <fix>3d</fix>
</trkpt>
<trkpt lat="-27.2721074" lon="151.2892491">
  <ele>389.89</ele>
  <time>2026-09-01T19:56:11Z</time>
  <course>342.95</course>
  <speed>26.2</speed>
  <fix>3d</fix>
</trkpt>
<trkpt lat="-27.2720201" lon="151.2892193">
  <ele>391.54</ele>
  <time>2026-09-01T19:56:11Z</time>
  <course>343.39</course>
  <speed>26.17003056933637</speed>
  <fix>3d</fix>
</trkpt>
<trkpt lat="-27.2720624" lon="151.2892335">
  <ele>390.71</ele>
  <time>2026-09-01T19:56:11Z</time>
  <course>342.96</course>
  <speed>26.21</speed>
  <fix>3d</fix>
</trkpt>
<trkpt lat="-27.2719977" lon="151.2892115">
  <ele>391.95</ele>
  <time>2026-09-01T19:56:11Z</time>
  <course>343.34</course>
  <speed>26.172951686808275</speed>
  <fix>3d</fix>
</trkpt>
<trkpt lat="-27.2720624" lon="151.2892335">
  <ele>390.71</ele>
  <time>2026-09-01T19:56:11Z</time>
  <course>342.96</course>
  <speed>26.21</speed>
  <fix>3d</fix>
</trkpt>
<trkpt lat="-27.2719752" lon="151.2892038">
  <ele>392.37</ele>
  <time>2026-09-01T19:56:11Z</time>
  <course>343.33</course>
  <speed>26.175876298607463</speed>
  <fix>3d</fix>
</trkpt>
<trkpt lat="-27.2720173" lon="151.289218">
  <ele>391.54</ele>
  <time>2026-09-01T19:56:11Z</time>
  <course>342.95</course>
  <speed>26.22</speed>
  <fix>3d</fix>
</trkpt>
<trkpt lat="-27.2719528" lon="151.289196">
  <ele>392.8</ele>
  <time>2026-09-01T19:56:11Z</time>
  <course>343.36</course>
  <speed>26.175876298607463</speed>
  <fix>3d</fix>
</trkpt>
<trkpt lat="-27.2720173" lon="151.289218">
  <ele>391.54</ele>
  <time>2026-09-01T19:56:11Z</time>
  <course>342.95</course>
  <speed>26.22</speed>
  <fix>3d</fix>
</trkpt>
<trkpt lat="-27.2719305" lon="151.2891883">
  <ele>393.22</ele>
  <time>2026-09-01T19:56:11Z</time>
  <course>343.46</course>
  <speed>26.175876298607463</speed>
  <fix>3d</fix>
</trkpt>
<trkpt lat="-27.2719723" lon="151.2892024">
  <ele>392.38</ele>
  <time>2026-09-01T19:56:11Z</time>
  <course>342.94</course>
  <speed>26.23</speed>
  <fix>3d</fix>
</trkpt>
<trkpt lat="-27.271908" lon="151.2891806">
  <ele>393.64</ele>
  <time>2026-09-01T19:56:11Z</time>
  <course>343.57</course>
  <speed>26.182515158021012</speed>
  <fix>3d</fix>
</trkpt>
<trkpt lat="-27.2719723" lon="151.2892024">
  <ele>392.38</ele>
  <time>2026-09-01T19:56:11Z</time>
  <course>342.94</course>
  <speed>26.23</speed>
  <fix>3d</fix>
</trkpt>
<trkpt lat="-27.2718855" lon="151.2891728">
  <ele>394.06</ele>
  <time>2026-09-01T19:56:11Z</time>
  <course>343.46</course>
  <speed>26.17959510764061</speed>
  <fix>3d</fix>
</trkpt>
<trkpt lat="-27.2719272" lon="151.2891869">
  <ele>393.22</ele>
  <time>2026-09-01T19:56:11Z</time>
  <course>342.95</course>
  <speed>26.23</speed>
  <fix>3d</fix>
</trkpt>
<trkpt lat="-27.271863" lon="151.289165">
  <ele>394.48</ele>
  <time>2026-09-01T19:56:11Z</time>
  <course>343.39</course>
  <speed>26.17003056933637</speed>
  <fix>3d</fix>
</trkpt>
<trkpt lat="-27.2719272" lon="151.2891869">
  <ele>393.22</ele>
  <time>2026-09-01T19:56:11Z</time>
  <course>342.95</course>
  <speed>26.23</speed>
  <fix>3d</fix>
</trkpt>
<trkpt lat="-27.2718403" lon="151.2891572">
  <ele>394.91</ele>
  <time>2026-09-01T19:56:11Z</time>
  <course>343.37</course>
  <speed>26.17003056933637</speed>
  <fix>3d</fix>
</trkpt>
<trkpt lat="-27.2718822" lon="151.2891714">
  <ele>394.06</ele>
  <time>2026-09-01T19:56:11Z</time>
  <course>342.97</course>
  <speed>26.24</speed>
  <fix>3d</fix>
</trkpt>
<trkpt lat="-27.2718179" lon="151.2891495">
  <ele>395.34</ele>
  <time>2026-09-01T19:56:11Z</time>
  <course>343.35</course>
  <speed>26.150902470086955</speed>
  <fix>3d</fix>
</trkpt>
<trkpt lat="-27.2718822" lon="151.2891714">
  <ele>394.06</ele>
  <time>2026-09-01T19:56:11Z</time>
  <course>342.97</course>
  <speed>26.24</speed>
  <fix>3d</fix>
</trkpt>
<trkpt lat="-27.2717954" lon="151.2891417">
  <ele>395.77</ele>
  <time>2026-09-01T19:56:11Z</time>
  <course>343.34</course>
  <speed>26.134701069650674</speed>
  <fix>3d</fix>
</trkpt>
<trkpt lat="-27.2718371" lon="151.2891559">
  <ele>394.9</ele>
  <time>2026-09-01T19:56:11Z</time>
  <course>342.97</course>
  <speed>26.23</speed>
  <fix>3d</fix>
</trkpt>
<trkpt lat="-27.2717729" lon="151.289134">
  <ele>396.2</ele>
  <time>2026-09-01T19:56:11Z</time>
  <course>343.35</course>
  <speed>26.122212769977967</speed>
  <fix>3d</fix>
</trkpt>
<trkpt lat="-27.2718371" lon="151.2891559">
  <ele>394.9</ele>
  <time>2026-09-01T19:56:11Z</time>
  <course>342.97</course>
  <speed>26.23</speed>
  <fix>3d</fix>
</trkpt>
<trkpt lat="-27.2717506" lon="151.2891262">
  <ele>396.63</ele>
  <time>2026-09-01T19:56:11Z</time>
  <course>343.31</course>
  <speed>26.09352601700276</speed>
  <fix>3d</fix>
</trkpt>
<trkpt lat="-27.2717921" lon="151.2891404">
  <ele>395.75</ele>
  <time>2026-09-01T19:56:11Z</time>
  <course>342.95</course>
  <speed>26.2</speed>
  <fix>3d</fix>
</trkpt>
<trkpt lat="-27.2717283" lon="151.2891185">
  <ele>397.07</ele>
  <time>2026-09-01T19:56:11Z</time>
  <course>343.34</course>
  <speed>26.071474833618446</speed>
  <fix>3d</fix>
</trkpt>
<trkpt lat="-27.2717921" lon="151.2891404">
  <ele>395.75</ele>
  <time>2026-09-01T19:56:11Z</time>
  <course>342.95</course>
  <speed>26.2</speed>
  <fix>3d</fix>
</trkpt>
<trkpt lat="-27.271706" lon="151.2891109">
  <ele>397.5</ele>
  <time>2026-09-01T19:56:11Z</time>
  <course>343.33</course>
  <speed>26.042789789114376</speed>
  <fix>3d</fix>
</trkpt>
<trkpt lat="-27.2717471" lon="151.2891248">
  <ele>396.61</ele>
  <time>2026-09-01T19:56:11Z</time>
  <course>342.94</course>
  <speed>26.16</speed>
  <fix>3d</fix>
</trkpt>
<trkpt lat="-27.2716838" lon="151.2891032">
  <ele>397.93</ele>
  <time>2026-09-01T19:56:11Z</time>
  <course>343.45</course>
  <speed>26.02073788346518</speed>
  <fix>3d</fix>
</trkpt>
<trkpt lat="-27.2717471" lon="151.2891248">
  <ele>396.61</ele>
  <time>2026-09-01T19:56:11Z</time>
  <course>342.94</course>
  <speed>26.16</speed>
  <fix>3d</fix>
</trkpt>
<trkpt lat="-27.2716616" lon="151.2890955">
  <ele>398.35</ele>
  <time>2026-09-01T19:56:11Z</time>
  <course>343.46</course>
  <speed>25.989124648590995</speed>
  <fix>3d</fix>
</trkpt>
<trkpt lat="-27.2717021" lon="151.2891093">
  <ele>397.47</ele>
  <time>2026-09-01T19:56:11Z</time>
  <course>342.93</course>
  <speed>26.13</speed>
  <fix>3d</fix>
</trkpt>
<trkpt lat="-27.2716394" lon="151.2890878">
  <ele>398.78</ele>
  <time>2026-09-01T19:56:11Z</time>
  <course>343.42</course>
  <speed>25.964148358842813</speed>
  <fix>3d</fix>
</trkpt>
<trkpt lat="-27.2717021" lon="151.2891093">
  <ele>397.47</ele>
  <time>2026-09-01T19:56:11Z</time>
  <course>342.93</course>
  <speed>26.13</speed>
  <fix>3d</fix>
</trkpt>
<trkpt lat="-27.2716171" lon="151.2890801">
  <ele>399.2</ele>
  <time>2026-09-01T19:56:11Z</time>
  <course>343.41</course>
  <speed>25.932535548997134</speed>
  <fix>3d</fix>
</trkpt>
<trkpt lat="-27.2716572" lon="151.2890938">
  <ele>398.32</ele>
  <time>2026-09-01T19:56:11Z</time>
  <course>342.93</course>
  <speed>26.09</speed>
  <fix>3d</fix>
</trkpt>
<trkpt lat="-27.2715949" lon="151.2890725">
  <ele>399.62</ele>
  <time>2026-09-01T19:56:11Z</time>
  <course>343.44</course>
  <speed>25.89800185342491</speed>
  <fix>3d</fix>
</trkpt>
<trkpt lat="-27.2716572" lon="151.2890938">
  <ele>398.32</ele>
  <time>2026-09-01T19:56:11Z</time>
  <course>342.93</course>
  <speed>26.09</speed>
  <fix>3d</fix>
</trkpt>
<trkpt lat="-27.2715726" lon="151.2890648">
  <ele>400.03</ele>
  <time>2026-09-01T19:56:11Z</time>
  <course>343.41</course>
  <speed>25.888437573557812</speed>
  <fix>3d</fix>
</trkpt>
<trkpt lat="-27.2716124" lon="151.2890784">
  <ele>399.16</ele>
  <time>2026-09-01T19:56:11Z</time>
  <course>342.96</course>
  <speed>26.05</speed>
  <fix>3d</fix>
</trkpt>
<trkpt lat="-27.2715503" lon="151.2890571">
  <ele>400.44</ele>
  <time>2026-09-01T19:56:11Z</time>
  <course>343.45</course>
  <speed>25.87595408869014</speed>
  <fix>3d</fix>
</trkpt>
<trkpt lat="-27.2716124" lon="151.2890784">
  <ele>399.16</ele>
  <time>2026-09-01T19:56:11Z</time>
  <course>342.96</course>
  <speed>26.05</speed>
  <fix>3d</fix>
</trkpt>
<trkpt lat="-27.271528" lon="151.2890495">
  <ele>400.84</ele>
  <time>2026-09-01T19:56:11Z</time>
  <course>343.43</course>
  <speed>25.863472311350616</speed>
  <fix>3d</fix>
</trkpt>
<trkpt lat="-27.2715677" lon="151.289063">
  <ele>399.99</ele>
  <time>2026-09-01T19:56:11Z</time>
  <course>342.97</course>
  <speed>26.01</speed>
  <fix>3d</fix>
</trkpt>
<trkpt lat="-27.2715057" lon="151.2890418">
  <ele>401.23</ele>
  <time>2026-09-01T19:56:11Z</time>
  <course>343.43</course>
  <speed>25.844341740504824</speed>
  <fix>3d</fix>
</trkpt>
<trkpt lat="-27.2715677" lon="151.289063">
  <ele>399.99</ele>
  <time>2026-09-01T19:56:11Z</time>
  <course>342.97</course>
  <speed>26.01</speed>
  <fix>3d</fix>
</trkpt>
<trkpt lat="-27.2714834" lon="151.2890341">
  <ele>401.62</ele>
  <time>2026-09-01T19:56:11Z</time>
  <course>343.45</course>
  <speed>25.834776948911326</speed>
  <fix>3d</fix>
</trkpt>
<trkpt lat="-27.271523" lon="151.2890476">
  <ele>400.79</ele>
  <time>2026-09-01T19:56:11Z</time>
  <course>342.99</course>
  <speed>25.97</speed>
  <fix>3d</fix>
</trkpt>
<trkpt lat="-27.2714614" lon="151.2890266">
  <ele>402.01</ele>
  <time>2026-09-01T19:56:11Z</time>
  <course>343.43</course>
  <speed>25.80316453460699</speed>
  <fix>3d</fix>
</trkpt>
<trkpt lat="-27.271523" lon="151.2890476">
  <ele>400.79</ele>
  <time>2026-09-01T19:56:11Z</time>
  <course>342.99</course>
  <speed>25.97</speed>
  <fix>3d</fix>
</trkpt>
<trkpt lat="-27.271439" lon="151.2890189">
  <ele>402.39</ele>
  <time>2026-09-01T19:56:11Z</time>
  <course>343.47</course>
  <speed>25.800248060822984</speed>
  <fix>3d</fix>
</trkpt>
<trkpt lat="-27.2714785" lon="151.2890322">
  <ele>401.57</ele>
  <time>2026-09-01T19:56:11Z</time>
  <course>343.0</course>
  <speed>25.93</speed>
  <fix>3d</fix>
</trkpt>
<trkpt lat="-27.2714167" lon="151.2890112">
  <ele>402.78</ele>
  <time>2026-09-01T19:56:11Z</time>
  <course>343.48</course>
  <speed>25.79068242602355</speed>
  <fix>3d</fix>
</trkpt>
<trkpt lat="-27.2714785" lon="151.2890322">
  <ele>401.57</ele>
  <time>2026-09-01T19:56:11Z</time>
  <course>343.0</course>
  <speed>25.93</speed>
  <fix>3d</fix>
</trkpt>
<trkpt lat="-27.2713943" lon="151.2890035">
  <ele>403.16</ele>
  <time>2026-09-01T19:56:11Z</time>
  <course>343.48</course>
  <speed>25.79068242602355</speed>
  <fix>3d</fix>
</trkpt>
<trkpt lat="-27.271434" lon="151.2890169">
  <ele>402.34</ele>
  <time>2026-09-01T19:56:11Z</time>
  <course>343.0</course>
  <speed>25.9</speed>
  <fix>3d</fix>
</trkpt>
<trkpt lat="-27.2713718" lon="151.2889957">
  <ele>403.54</ele>
  <time>2026-09-01T19:56:11Z</time>
  <course>343.57</course>
  <speed>25.781117120869684</speed>
  <fix>3d</fix>
</trkpt>
<trkpt lat="-27.271434" lon="151.2890169">
  <ele>402.34</ele>
  <time>2026-09-01T19:56:11Z</time>
  <course>343.0</course>
  <speed>25.9</speed>
  <fix>3d</fix>
</trkpt>
<trkpt lat="-27.2713494" lon="151.288988">
  <ele>403.92</ele>
  <time>2026-09-01T19:56:11Z</time>
  <course>343.65</course>
  <speed>25.76572335487595</speed>
  <fix>3d</fix>
</trkpt>
<trkpt lat="-27.2713896" lon="151.2890016">
  <ele>403.11</ele>
  <time>2026-09-01T19:56:11Z</time>
  <course>343.0</course>
  <speed>25.87</speed>
  <fix>3d</fix>
</trkpt>
<trkpt lat="-27.271327" lon="151.2889804">
  <ele>404.3</ele>
  <time>2026-09-01T19:56:11Z</time>
  <course>343.61</course>
  <speed>25.75324639729912</speed>
  <fix>3d</fix>
</trkpt>
<trkpt lat="-27.2713896" lon="151.2890016">
  <ele>403.11</ele>
  <time>2026-09-01T19:56:11Z</time>
  <course>343.0</course>
  <speed>25.87</speed>
  <fix>3d</fix>
</trkpt>
<trkpt lat="-27.2713047" lon="151.2889727">
  <ele>404.68</ele>
  <time>2026-09-01T19:56:11Z</time>
  <course>343.59</course>
  <speed>25.740771161719298</speed>
  <fix>3d</fix>
</trkpt>
<trkpt lat="-27.2713452" lon="151.2889864">
  <ele>403.86</ele>
  <time>2026-09-01T19:56:11Z</time>
  <course>343.02</course>
  <speed>25.83</speed>
  <fix>3d</fix>
</trkpt>
<trkpt lat="-27.2712824" lon="151.2889651">
  <ele>405.07</ele>
  <time>2026-09-01T19:56:11Z</time>
  <course>343.63</course>
  <speed>25.740771161719298</speed>
  <fix>3d</fix>
</trkpt>
<trkpt lat="-27.2713452" lon="151.2889864">
  <ele>403.86</ele>
  <time>2026-09-01T19:56:11Z</time>
  <course>343.02</course>
  <speed>25.83</speed>
  <fix>3d</fix>
</trkpt>
<trkpt lat="-27.27126" lon="151.2889574">
  <ele>405.46</ele>
  <time>2026-09-01T19:56:11Z</time>
  <course>343.66</course>
  <speed>25.718728584438228</speed>
  <fix>3d</fix>
</trkpt>
<trkpt lat="-27.2713008" lon="151.2889712">
  <ele>404.62</ele>
  <time>2026-09-01T19:56:11Z</time>
  <course>343.05</course>
  <speed>25.79</speed>
  <fix>3d</fix>
</trkpt>
<trkpt lat="-27.2712378" lon="151.2889498">
  <ele>405.85</ele>
  <time>2026-09-01T19:56:11Z</time>
  <course>343.65</course>
  <speed>25.715825866574846</speed>
  <fix>3d</fix>
</trkpt>
<trkpt lat="-27.2713008" lon="151.2889712">
  <ele>404.62</ele>
  <time>2026-09-01T19:56:11Z</time>
  <course>343.05</course>
  <speed>25.79</speed>
  <fix>3d</fix>
</trkpt>
<trkpt lat="-27.2712155" lon="151.2889422">
  <ele>406.23</ele>
  <time>2026-09-01T19:56:11Z</time>
  <course>343.59</course>
  <speed>25.703355812033575</speed>
  <fix>3d</fix>
</trkpt>
<trkpt lat="-27.2712565" lon="151.288956">
  <ele>405.39</ele>
  <time>2026-09-01T19:56:11Z</time>
  <course>343.07</course>
  <speed>25.75</speed>
  <fix>3d</fix>
</trkpt>
<trkpt lat="-27.2711933" lon="151.2889346">
  <ele>406.62</ele>
  <time>2026-09-01T19:56:11Z</time>
  <course>343.55</course>
  <speed>25.69378524079315</speed>
  <fix>3d</fix>
</trkpt>
<trkpt lat="-27.2712565" lon="151.288956">
  <ele>405.39</ele>
  <time>2026-09-01T19:56:11Z</time>
  <course>343.07</course>
  <speed>25.75</speed>
  <fix>3d</fix>
</trkpt>
<trkpt lat="-27.271171" lon="151.288927">
  <ele>407.01</ele>
  <time>2026-09-01T19:56:11Z</time>
  <course>343.56</course>
  <speed>25.67464508031221</speed>
  <fix>3d</fix>
</trkpt>
<trkpt lat="-27.2712122" lon="151.2889409">
  <ele>406.16</ele>
  <time>2026-09-01T19:56:11Z</time>
  <course>343.08</course>
  <speed>25.71</speed>
  <fix>3d</fix>
</trkpt>
<trkpt lat="-27.2711488" lon="151.2889194">
  <ele>407.4</ele>
  <time>2026-09-01T19:56:11Z</time>
  <course>343.66</course>
  <speed>25.655506231606502</speed>
  <fix>3d</fix>
</trkpt>
<trkpt lat="-27.2712122" lon="151.2889409">
  <ele>406.16</ele>
  <time>2026-09-01T19:56:11Z</time>
  <course>343.08</course>
  <speed>25.71</speed>
  <fix>3d</fix>
</trkpt>
<trkpt lat="-27.2711267" lon="151.2889118">
  <ele>407.79</ele>
  <time>2026-09-01T19:56:11Z</time>
  <course>343.68</course>
  <speed>25.64593730008712</speed>
  <fix>3d</fix>
</trkpt>
<trkpt lat="-27.2711679" lon="151.2889257">
  <ele>406.94</ele>
  <time>2026-09-01T19:56:11Z</time>
  <course>343.07</course>
  <speed>25.68</speed>
  <fix>3d</fix>
</trkpt>
<trkpt lat="-27.2711045" lon="151.2889042">
  <ele>408.18</ele>
  <time>2026-09-01T19:56:11Z</time>
  <course>343.66</course>
  <speed>25.633464455668104</speed>
  <fix>3d</fix>
</trkpt>
<trkpt lat="-27.2711679" lon="151.2889257">
  <ele>406.94</ele>
  <time>2026-09-01T19:56:11Z</time>
  <course>343.07</course>
  <speed>25.68</speed>
  <fix>3d</fix>
</trkpt>
<trkpt lat="-27.2710825" lon="151.2888967">
  <ele>408.57</ele>
  <time>2026-09-01T19:56:11Z</time>
  <course>343.67</course>
  <speed>25.623895098130575</speed>
  <fix>3d</fix>
</trkpt>
<trkpt lat="-27.2711239" lon="151.2889106">
  <ele>407.71</ele>
  <time>2026-09-01T19:56:11Z</time>
  <course>343.07</course>
  <speed>25.63</speed>
  <fix>3d</fix>
</trkpt>
<trkpt lat="-27.2710605" lon="151.2888891">
  <ele>408.96</ele>
  <time>2026-09-01T19:56:11Z</time>
  <course>343.63</course>
  <speed>25.604757370457545</speed>
  <fix>3d</fix>
</trkpt>
<trkpt lat="-27.2711239" lon="151.2889106">
  <ele>407.71</ele>
  <time>2026-09-01T19:56:11Z</time>
  <course>343.07</course>
  <speed>25.63</speed>
  <fix>3d</fix>
</trkpt>
<trkpt lat="-27.2710386" lon="151.2888816">
  <ele>409.35</ele>
  <time>2026-09-01T19:56:11Z</time>
  <course>343.56</course>
  <speed>25.57314607161192</speed>
  <fix>3d</fix>
</trkpt>
<trkpt lat="-27.2710798" lon="151.2888955">
  <ele>408.5</ele>
  <time>2026-09-01T19:56:11Z</time>
  <course>343.07</course>
  <speed>25.6</speed>
  <fix>3d</fix>
</trkpt>
<trkpt lat="-27.2710167" lon="151.2888741">
  <ele>409.75</ele>
  <time>2026-09-01T19:56:11Z</time>
  <course>343.49</course>
  <speed>25.544441665458262</speed>
  <fix>3d</fix>
</trkpt>
<trkpt lat="-27.2710798" lon="151.2888955">
  <ele>408.5</ele>
  <time>2026-09-01T19:56:11Z</time>
  <course>343.07</course>
  <speed>25.6</speed>
  <fix>3d</fix>
</trkpt>
<trkpt lat="-27.2709949" lon="151.2888666">
  <ele>410.14</ele>
  <time>2026-09-01T19:56:11Z</time>
  <course>343.5</course>
  <speed>25.52530705006308</speed>
  <fix>3d</fix>
</trkpt>
<trkpt lat="-27.2710359" lon="151.2888805">
  <ele>409.28</ele>
  <time>2026-09-01T19:56:11Z</time>
  <course>343.05</course>
  <speed>25.56</speed>
  <fix>3d</fix>
</trkpt>
<trkpt lat="-27.2709731" lon="151.2888591">
  <ele>410.54</ele>
  <time>2026-09-01T19:56:11Z</time>
  <course>343.49</course>
  <speed>25.50617376244426</speed>
  <fix>3d</fix>
</trkpt>
<trkpt lat="-27.2710359" lon="151.2888805">
  <ele>409.28</ele>
  <time>2026-09-01T19:56:11Z</time>
  <course>343.05</course>
  <speed>25.56</speed>
  <fix>3d</fix>
</trkpt>
<trkpt lat="-27.2709512" lon="151.2888516">
  <ele>410.94</ele>
  <time>2026-09-01T19:56:11Z</time>
  <course>343.55</course>
  <speed>25.48995880734216</speed>
  <fix>3d</fix>
</trkpt>
<trkpt lat="-27.270992" lon="151.2888654">
  <ele>410.07</ele>
  <time>2026-09-01T19:56:11Z</time>
  <course>343.02</course>
  <speed>25.52</speed>
  <fix>3d</fix>
</trkpt>
<trkpt lat="-27.2709293" lon="151.2888441">
  <ele>411.34</ele>
  <time>2026-09-01T19:56:11Z</time>
  <course>343.59</course>
  <speed>25.467911182505723</speed>
  <fix>3d</fix>
</trkpt>
<trkpt lat="-27.270992" lon="151.2888654">
  <ele>410.07</ele>
  <time>2026-09-01T19:56:11Z</time>
  <course>343.02</course>
  <speed>25.52</speed>
  <fix>3d</fix>
</trkpt>
<trkpt lat="-27.2709072" lon="151.2888364">
  <ele>411.75</ele>
  <time>2026-09-01T19:56:11Z</time>
  <course>343.61</course>
  <speed>25.44878189619299</speed>
  <fix>3d</fix>
</trkpt>
<trkpt lat="-27.2709482" lon="151.2888504">
  <ele>410.87</ele>
  <time>2026-09-01T19:56:11Z</time>
  <course>342.99</course>
  <speed>25.49</speed>
  <fix>3d</fix>
</trkpt>
<trkpt lat="-27.2708853" lon="151.2888289">
  <ele>412.16</ele>
  <time>2026-09-01T19:56:11Z</time>
  <course>343.6</course>
  <speed>25.436298865990704</speed>
  <fix>3d</fix>
</trkpt>
<trkpt lat="-27.2709482" lon="151.2888504">
  <ele>410.87</ele>
  <time>2026-09-01T19:56:11Z</time>
  <course>342.99</course>
  <speed>25.49</speed>
  <fix>3d</fix>
</trkpt>
<trkpt lat="-27.2708633" lon="151.2888214">
  <ele>412.56</ele>
  <time>2026-09-01T19:56:11Z</time>
  <course>343.5</course>
  <speed>25.417169393935275</speed>
  <fix>3d</fix>
</trkpt>
<trkpt lat="-27.2709044" lon="151.2888353">
  <ele>411.66</ele>
  <time>2026-09-01T19:56:11Z</time>
  <course>342.98</course>
  <speed>25.45</speed>
  <fix>3d</fix>
</trkpt>
<trkpt lat="-27.2708415" lon="151.2888138">
  <ele>412.97</ele>
  <time>2026-09-01T19:56:11Z</time>
  <course>343.49</course>
  <speed>25.39804126305806</speed>
  <fix>3d</fix>
</trkpt>
<trkpt lat="-27.2709044" lon="151.2888353">
  <ele>411.66</ele>
  <time>2026-09-01T19:56:11Z</time>
  <course>342.98</course>
  <speed>25.45</speed>
  <fix>3d</fix>
</trkpt>
<trkpt lat="-27.2708196" lon="151.2888063">
  <ele>413.38</ele>
  <time>2026-09-01T19:56:11Z</time>
  <course>343.53</course>
  <speed>25.388477701508613</speed>
  <fix>3d</fix>
</trkpt>
<trkpt lat="-27.2708608" lon="151.2888203">
  <ele>412.48</ele>
  <time>2026-09-01T19:56:11Z</time>
  <course>342.97</course>
  <speed>25.4</speed>
  <fix>3d</fix>
</trkpt>
<trkpt lat="-27.2707977" lon="151.2887987">
  <ele>413.79</ele>
  <time>2026-09-01T19:56:11Z</time>
  <course>343.55</course>
  <speed>25.375992591423888</speed>
  <fix>3d</fix>
</trkpt>
<trkpt lat="-27.2708608" lon="151.2888203">
  <ele>412.48</ele>
  <time>2026-09-01T19:56:11Z</time>
  <course>342.97</course>
  <speed>25.4</speed>
  <fix>3d</fix>
</trkpt>
<trkpt lat="-27.2707758" lon="151.2887912">
  <ele>414.2</ele>
  <time>2026-09-01T19:56:11Z</time>
  <course>343.6</course>
  <speed>25.356864948175275</speed>
  <fix>3d</fix>
</trkpt>
<trkpt lat="-27.2708171" lon="151.2888052">
  <ele>413.29</ele>
  <time>2026-09-01T19:56:11Z</time>
  <course>342.96</course>
  <speed>25.37</speed>
  <fix>3d</fix>
</trkpt>
<trkpt lat="-27.270754" lon="151.2887837">
  <ele>414.62</ele>
  <time>2026-09-01T19:56:11Z</time>
  <course>343.63</course>
  <speed>25.344380047655537</speed>
  <fix>3d</fix>
</trkpt>
<trkpt lat="-27.2708171" lon="151.2888052">
  <ele>413.29</ele>
  <time>2026-09-01T19:56:11Z</time>
  <course>342.96</course>
  <speed>25.37</speed>
  <fix>3d</fix>
</trkpt>
<trkpt lat="-27.2707322" lon="151.2887762">
  <ele>415.03</ele>
  <time>2026-09-01T19:56:11Z</time>
  <course>343.6</course>
  <speed>25.322332041105533</speed>
  <fix>3d</fix>
</trkpt>
<trkpt lat="-27.2707735" lon="151.2887902">
  <ele>414.11</ele>
  <time>2026-09-01T19:56:11Z</time>
  <course>342.96</course>
  <speed>25.33</speed>
  <fix>3d</fix>
</trkpt>
<trkpt lat="-27.2707104" lon="151.2887687">
  <ele>415.45</ele>
  <time>2026-09-01T19:56:11Z</time>
  <course>343.56</course>
  <speed>25.322332041105533</speed>
  <fix>3d</fix>
</trkpt>
<trkpt lat="-27.2707735" lon="151.2887902">
  <ele>414.11</ele>
  <time>2026-09-01T19:56:11Z</time>
  <course>342.96</course>
  <speed>25.33</speed>
  <fix>3d</fix>
</trkpt>
<trkpt lat="-27.2706886" lon="151.2887611">
  <ele>415.87</ele>
  <time>2026-09-01T19:56:11Z</time>
  <course>343.47</course>
  <speed>25.29363951668482</speed>
  <fix>3d</fix>
</trkpt>
<trkpt lat="-27.27073" lon="151.2887752">
  <ele>414.93</ele>
  <time>2026-09-01T19:56:11Z</time>
  <course>342.97</course>
  <speed>25.3</speed>
  <fix>3d</fix>
</trkpt>
<trkpt lat="-27.2706668" lon="151.2887536">
  <ele>416.29</ele>
  <time>2026-09-01T19:56:11Z</time>
  <course>343.42</course>
  <speed>25.284076016338823</speed>
  <fix>3d</fix>
</trkpt>
<trkpt lat="-27.27073" lon="151.2887752">
  <ele>414.93</ele>
  <time>2026-09-01T19:56:11Z</time>
  <course>342.97</course>
  <speed>25.3</speed>
  <fix>3d</fix>
</trkpt>
<trkpt lat="-27.2706452" lon="151.2887462">
  <ele>416.71</ele>
  <time>2026-09-01T19:56:11Z</time>
  <course>343.54</course>
  <speed>25.26495002963592</speed>
  <fix>3d</fix>
</trkpt>
<trkpt lat="-27.2706866" lon="151.2887602">
  <ele>415.77</ele>
  <time>2026-09-01T19:56:11Z</time>
  <course>342.96</course>
  <speed>25.26</speed>
  <fix>3d</fix>
</trkpt>
<trkpt lat="-27.2706236" lon="151.2887387">
  <ele>417.13</ele>
  <time>2026-09-01T19:56:11Z</time>
  <course>343.58</course>
  <speed>25.245825397479084</speed>
  <fix>3d</fix>
</trkpt>
<trkpt lat="-27.2706866" lon="151.2887602">
  <ele>415.77</ele>
  <time>2026-09-01T19:56:11Z</time>
  <course>342.96</course>
  <speed>25.26</speed>
  <fix>3d</fix>
</trkpt>
<trkpt lat="-27.2706021" lon="151.2887313">
  <ele>417.56</ele>
  <time>2026-09-01T19:56:11Z</time>
  <course>343.54</course>
  <speed>25.21421226213502</speed>
  <fix>3d</fix>
</trkpt>
<trkpt lat="-27.2706432" lon="151.2887453">
  <ele>416.6</ele>
  <time>2026-09-01T19:56:11Z</time>
  <course>342.94</course>
  <speed>25.23</speed>
  <fix>3d</fix>
</trkpt>
<trkpt lat="-27.2705806" lon="151.2887239">
  <ele>417.98</ele>
  <time>2026-09-01T19:56:11Z</time>
  <course>343.5</course>
  <speed>25.192161479317335</speed>
  <fix>3d</fix>
</trkpt>
<trkpt lat="-27.2706432" lon="151.2887453">
  <ele>416.6</ele>
  <time>2026-09-01T19:56:11Z</time>
  <course>342.94</course>
  <speed>25.23</speed>
  <fix>3d</fix>
</trkpt>
<trkpt lat="-27.2705591" lon="151.2887164">
  <ele>418.42</ele>
  <time>2026-09-01T19:56:11Z</time>
  <course>343.48</course>
  <speed>25.173037162805763</speed>
  <fix>3d</fix>
</trkpt>
<trkpt lat="-27.2705999" lon="151.2887303">
  <ele>417.44</ele>
  <time>2026-09-01T19:56:11Z</time>
  <course>342.93</course>
  <speed>25.19</speed>
  <fix>3d</fix>
</trkpt>
<trkpt lat="-27.2705376" lon="151.288709">
  <ele>418.85</ele>
  <time>2026-09-01T19:56:11Z</time>
  <course>343.52</course>
  <speed>25.15098606416854</speed>
  <fix>3d</fix>
</trkpt>
<trkpt lat="-27.2705999" lon="151.2887303">
  <ele>417.44</ele>
  <time>2026-09-01T19:56:11Z</time>
  <course>342.93</course>
  <speed>25.19</speed>
  <fix>3d</fix>
</trkpt>
<trkpt lat="-27.2705162" lon="151.2887016">
  <ele>419.28</ele>
  <time>2026-09-01T19:56:11Z</time>
  <course>343.6</course>
  <speed>25.128935512671443</speed>
  <fix>3d</fix>
</trkpt>
<trkpt lat="-27.2705567" lon="151.2887154">
  <ele>418.3</ele>
  <time>2026-09-01T19:56:11Z</time>
  <course>342.93</course>
  <speed>25.16</speed>
  <fix>3d</fix>
</trkpt>
<trkpt lat="-27.2704947" lon="151.2886942">
  <ele>419.71</ele>
  <time>2026-09-01T19:56:11Z</time>
  <course>343.56</course>
  <speed>25.116448793569525</speed>
  <fix>3d</fix>
</trkpt>
<trkpt lat="-27.2705567" lon="151.2887154">
  <ele>418.3</ele>
  <time>2026-09-01T19:56:11Z</time>
  <course>342.93</course>
  <speed>25.16</speed>
  <fix>3d</fix>
</trkpt>
<trkpt lat="-27.2704735" lon="151.2886869">
  <ele>420.13</ele>
  <time>2026-09-01T19:56:11Z</time>
  <course>343.52</course>
  <speed>25.084836056869097</speed>
  <fix>3d</fix>
</trkpt>
<trkpt lat="-27.2705135" lon="151.2887005">
  <ele>419.16</ele>
  <time>2026-09-01T19:56:11Z</time>
  <course>342.94</course>
  <speed>25.14</speed>
  <fix>3d</fix>
</trkpt>
<trkpt lat="-27.2704521" lon="151.2886795">
  <ele>420.57</ele>
  <time>2026-09-01T19:56:11Z</time>
  <course>343.57</course>
  <speed>25.075272680471492</speed>
  <fix>3d</fix>
</trkpt>
<trkpt lat="-27.2705135" lon="151.2887005">
  <ele>419.16</ele>
  <time>2026-09-01T19:56:11Z</time>
  <course>342.94</course>
  <speed>25.14</speed>
  <fix>3d</fix>
</trkpt>
<trkpt lat="-27.2704305" lon="151.2886721">
  <ele>421.0</ele>
  <time>2026-09-01T19:56:11Z</time>
  <course>343.59</course>
  <speed>25.07235130577106</speed>
  <fix>3d</fix>
</trkpt>
<trkpt lat="-27.2704703" lon="151.2886856">
  <ele>420.02</ele>
  <time>2026-09-01T19:56:11Z</time>
  <course>342.95</course>
  <speed>25.12</speed>
  <fix>3d</fix>
</trkpt>
<trkpt lat="-27.270409" lon="151.2886647">
  <ele>421.43</ele>
  <time>2026-09-01T19:56:11Z</time>
  <course>343.56</course>
  <speed>25.06278715546218</speed>
  <fix>3d</fix>
</trkpt>
<trkpt lat="-27.2704703" lon="151.2886856">
  <ele>420.02</ele>
  <time>2026-09-01T19:56:11Z</time>
  <course>342.95</course>
  <speed>25.12</speed>
  <fix>3d</fix>
</trkpt>
<trkpt lat="-27.270387" lon="151.2886571">
  <ele>421.87</ele>
  <time>2026-09-01T19:56:11Z</time>
  <course>343.49</course>
  <speed>25.06278715546218</speed>
  <fix>3d</fix>
</trkpt>
<trkpt lat="-27.2704272" lon="151.2886707">
  <ele>420.88</ele>
  <time>2026-09-01T19:56:11Z</time>
  <course>342.96</course>
  <speed>25.1</speed>
  <fix>3d</fix>
</trkpt>
<trkpt lat="-27.2703654" lon="151.2886496">
  <ele>422.31</ele>
  <time>2026-09-01T19:56:11Z</time>
  <course>343.5</course>
  <speed>25.06278715546218</speed>
  <fix>3d</fix>
</trkpt>
<trkpt lat="-27.2704272" lon="151.2886707">
  <ele>420.88</ele>
  <time>2026-09-01T19:56:11Z</time>
  <course>342.96</course>
  <speed>25.1</speed>
  <fix>3d</fix>
</trkpt>
<trkpt lat="-27.2703439" lon="151.2886422">
  <ele>422.74</ele>
  <time>2026-09-01T19:56:11Z</time>
  <course>343.55</course>
  <speed>25.06278715546218</speed>
  <fix>3d</fix>
</trkpt>
<trkpt lat="-27.2703841" lon="151.2886558">
  <ele>421.74</ele>
  <time>2026-09-01T19:56:11Z</time>
  <course>342.96</course>
  <speed>25.09</speed>
  <fix>3d</fix>
</trkpt>
<trkpt lat="-27.2703223" lon="151.2886348">
  <ele>423.16</ele>
  <time>2026-09-01T19:56:11Z</time>
  <course>343.56</course>
  <speed>25.06278715546218</speed>
  <fix>3d</fix>
</trkpt>
<trkpt lat="-27.2703841" lon="151.2886558">
  <ele>421.74</ele>
  <time>2026-09-01T19:56:11Z</time>
  <course>342.96</course>
  <speed>25.09</speed>
  <fix>3d</fix>
</trkpt>
<trkpt lat="-27.2703008" lon="151.2886274">
  <ele>423.59</ele>
  <time>2026-09-01T19:56:11Z</time>
  <course>343.53</course>
  <speed>25.043659876304023</speed>
  <fix>3d</fix>
</trkpt>
<trkpt lat="-27.270341" lon="151.288641">
  <ele>422.6</ele>
  <time>2026-09-01T19:56:11Z</time>
  <course>342.96</course>
  <speed>25.08</speed>
  <fix>3d</fix>
</trkpt>
<trkpt lat="-27.2702794" lon="151.28862">
  <ele>424.02</ele>
  <time>2026-09-01T19:56:11Z</time>
  <course>343.59</course>
  <speed>25.0407388069921</speed>
  <fix>3d</fix>
</trkpt>
<trkpt lat="-27.270341" lon="151.288641">
  <ele>422.6</ele>
  <time>2026-09-01T19:56:11Z</time>
  <course>342.96</course>
  <speed>25.08</speed>
  <fix>3d</fix>
</trkpt>
<trkpt lat="-27.2702579" lon="151.2886126">
  <ele>424.45</ele>
  <time>2026-09-01T19:56:11Z</time>
  <course>343.65</course>
  <speed>25.02825603193319</speed>
  <fix>3d</fix>
</trkpt>
<trkpt lat="-27.2702979" lon="151.2886261">
  <ele>423.46</ele>
  <time>2026-09-01T19:56:11Z</time>
  <course>342.97</course>
  <speed>25.07</speed>
  <fix>3d</fix>
</trkpt>
<trkpt lat="-27.2702364" lon="151.2886052">
  <ele>424.89</ele>
  <time>2026-09-01T19:56:11Z</time>
  <course>343.62</course>
  <speed>25.015775022973003</speed>
  <fix>3d</fix>
</trkpt>
<trkpt lat="-27.2702979" lon="151.2886261">
  <ele>423.46</ele>
  <time>2026-09-01T19:56:11Z</time>
  <course>342.97</course>
  <speed>25.07</speed>
  <fix>3d</fix>
</trkpt>
<trkpt lat="-27.270215" lon="151.2885978">
  <ele>425.33</ele>
  <time>2026-09-01T19:56:11Z</time>
  <course>343.61</course>
  <speed>25.00329578275632</speed>
  <fix>3d</fix>
</trkpt>
<trkpt lat="-27.2702547" lon="151.2886113">
  <ele>424.32</ele>
  <time>2026-09-01T19:56:11Z</time>
  <course>342.98</course>
  <speed>25.05</speed>
  <fix>3d</fix>
</trkpt>
<trkpt lat="-27.2701935" lon="151.2885904">
  <ele>425.77</ele>
  <time>2026-09-01T19:56:11Z</time>
  <course>343.62</course>
  <speed>24.99081831393282</speed>
  <fix>3d</fix>
</trkpt>
<trkpt lat="-27.2702547" lon="151.2886113">
  <ele>424.32</ele>
  <time>2026-09-01T19:56:11Z</time>
  <course>342.98</course>
  <speed>25.05</speed>
  <fix>3d</fix>
</trkpt>
<trkpt lat="-27.270172" lon="151.288583">
  <ele>426.22</ele>
  <time>2026-09-01T19:56:11Z</time>
  <course>343.64</course>
  <speed>24.99081831393282</speed>
  <fix>3d</fix>
</trkpt>
<trkpt lat="-27.2702118" lon="151.2885965">
  <ele>425.2</ele>
  <time>2026-09-01T19:56:11Z</time>
  <course>343.02</course>
  <speed>25.03</speed>
  <fix>3d</fix>
</trkpt>
<trkpt lat="-27.2701504" lon="151.2885756">
  <ele>426.67</ele>
  <time>2026-09-01T19:56:11Z</time>
  <course>343.66</course>
  <speed>24.99081831393282</speed>
  <fix>3d</fix>
</trkpt>
<trkpt lat="-27.2702118" lon="151.2885965">
  <ele>425.2</ele>
  <time>2026-09-01T19:56:11Z</time>
  <course>343.02</course>
  <speed>25.03</speed>
  <fix>3d</fix>
</trkpt>
<trkpt lat="-27.2701288" lon="151.2885682">
  <ele>427.12</ele>
  <time>2026-09-01T19:56:11Z</time>
  <course>343.69</course>
  <speed>24.99081831393282</speed>
  <fix>3d</fix>
</trkpt>
<trkpt lat="-27.2701688" lon="151.2885817">
  <ele>426.08</ele>
  <time>2026-09-01T19:56:11Z</time>
  <course>343.03</course>
  <speed>25.02</speed>
  <fix>3d</fix>
</trkpt>
<trkpt lat="-27.2701072" lon="151.2885608">
  <ele>427.57</ele>
  <time>2026-09-01T19:56:11Z</time>
  <course>343.7</course>
  <speed>24.993729213544743</speed>
  <fix>3d</fix>
</trkpt>
<trkpt lat="-27.2701688" lon="151.2885817">
  <ele>426.08</ele>
  <time>2026-09-01T19:56:11Z</time>
  <course>343.03</course>
  <speed>25.02</speed>
  <fix>3d</fix>
</trkpt>
<trkpt lat="-27.2700858" lon="151.2885534">
  <ele>428.01</ele>
  <time>2026-09-01T19:56:11Z</time>
  <course>343.73</course>
  <speed>24.981250969477088</speed>
  <fix>3d</fix>
</trkpt>
<trkpt lat="-27.2701258" lon="151.288567">
  <ele>426.97</ele>
  <time>2026-09-01T19:56:11Z</time>
  <course>343.03</course>
  <speed>25.01</speed>
  <fix>3d</fix>
</trkpt>
<trkpt lat="-27.2700644" lon="151.2885461">
  <ele>428.46</ele>
  <time>2026-09-01T19:56:11Z</time>
  <course>343.64</course>
  <speed>24.962117298017812</speed>
  <fix>3d</fix>
</trkpt>
<trkpt lat="-27.2701258" lon="151.288567">
  <ele>426.97</ele>
  <time>2026-09-01T19:56:11Z</time>
  <course>343.03</course>
  <speed>25.01</speed>
  <fix>3d</fix>
</trkpt>
<trkpt lat="-27.270043" lon="151.2885388">
  <ele>428.91</ele>
  <time>2026-09-01T19:56:11Z</time>
  <course>343.63</course>
  <speed>24.952550971794448</speed>
  <fix>3d</fix>
</trkpt>
<trkpt lat="-27.2700828" lon="151.2885523">
  <ele>427.87</ele>
  <time>2026-09-01T19:56:11Z</time>
  <course>343.02</course>
  <speed>24.99</speed>
  <fix>3d</fix>
</trkpt>
<trkpt lat="-27.2700218" lon="151.2885315">
  <ele>429.36</ele>
  <time>2026-09-01T19:56:11Z</time>
  <course>343.68</course>
  <speed>24.952550971794448</speed>
  <fix>3d</fix>
</trkpt>
<trkpt lat="-27.2700828" lon="151.2885523">
  <ele>427.87</ele>
  <time>2026-09-01T19:56:11Z</time>
  <course>343.02</course>
  <speed>24.99</speed>
  <fix>3d</fix>
</trkpt>
<trkpt lat="-27.2700003" lon="151.2885241">
  <ele>429.8</ele>
  <time>2026-09-01T19:56:11Z</time>
  <course>343.67</course>
  <speed>24.962117298017812</speed>
  <fix>3d</fix>
</trkpt>
<trkpt lat="-27.2700399" lon="151.2885375">
  <ele>428.77</ele>
  <time>2026-09-01T19:56:11Z</time>
  <course>343.01</course>
  <speed>24.98</speed>
  <fix>3d</fix>
</trkpt>
<trkpt lat="-27.2699789" lon="151.2885167">
  <ele>430.24</ele>
  <time>2026-09-01T19:56:11Z</time>
  <course>343.7</course>
  <speed>24.971683964042153</speed>
  <fix>3d</fix>
</trkpt>
<trkpt lat="-27.2700399" lon="151.2885375">
  <ele>428.77</ele>
  <time>2026-09-01T19:56:11Z</time>
  <course>343.01</course>
  <speed>24.98</speed>
  <fix>3d</fix>
</trkpt>
<trkpt lat="-27.2699574" lon="151.2885094">
  <ele>430.69</ele>
  <time>2026-09-01T19:56:11Z</time>
  <course>343.71</course>
  <speed>24.971683964042153</speed>
  <fix>3d</fix>
</trkpt>
<trkpt lat="-27.2699969" lon="151.2885228">
  <ele>429.66</ele>
  <time>2026-09-01T19:56:11Z</time>
  <course>343.02</course>
  <speed>24.99</speed>
  <fix>3d</fix>
</trkpt>
<trkpt lat="-27.2699358" lon="151.2885019">
  <ele>431.13</ele>
  <time>2026-09-01T19:56:11Z</time>
  <course>343.71</course>
  <speed>24.971683964042153</speed>
  <fix>3d</fix>
</trkpt>
<trkpt lat="-27.2699969" lon="151.2885228">
  <ele>429.66</ele>
  <time>2026-09-01T19:56:11Z</time>
  <course>343.02</course>
  <speed>24.99</speed>
  <fix>3d</fix>
</trkpt>
<trkpt lat="-27.2699143" lon="151.2884945">
  <ele>431.57</ele>
  <time>2026-09-01T19:56:11Z</time>
  <course>343.65</course>
  <speed>24.984162983778344</speed>
  <fix>3d</fix>
</trkpt>
<trkpt lat="-27.269954" lon="151.288508">
  <ele>430.54</ele>
  <time>2026-09-01T19:56:11Z</time>
  <course>343.02</course>
  <speed>25.0</speed>
  <fix>3d</fix>
</trkpt>
<trkpt lat="-27.2698928" lon="151.2884872">
  <ele>432.0</ele>
  <time>2026-09-01T19:56:11Z</time>
  <course>343.66</course>
  <speed>24.993729213544743</speed>
  <fix>3d</fix>
</trkpt>
<trkpt lat="-27.269954" lon="151.288508">
  <ele>430.54</ele>
  <time>2026-09-01T19:56:11Z</time>
  <course>343.02</course>
  <speed>25.0</speed>
  <fix>3d</fix>
</trkpt>
<trkpt lat="-27.2698713" lon="151.2884798">
  <ele>432.44</ele>
  <time>2026-09-01T19:56:11Z</time>
  <course>343.66</course>
  <speed>25.00620922890953</speed>
  <fix>3d</fix>
</trkpt>
<trkpt lat="-27.2699111" lon="151.2884932">
  <ele>431.41</ele>
  <time>2026-09-01T19:56:11Z</time>
  <course>343.02</course>
  <speed>25.01</speed>
  <fix>3d</fix>
</trkpt>
<trkpt lat="-27.2698498" lon="151.2884724">
  <ele>432.87</ele>
  <time>2026-09-01T19:56:11Z</time>
  <course>343.64</course>
  <speed>25.00620922890953</speed>
  <fix>3d</fix>
</trkpt>
<trkpt lat="-27.2699111" lon="151.2884932">
  <ele>431.41</ele>
  <time>2026-09-01T19:56:11Z</time>
  <course>343.02</course>
  <speed>25.01</speed>
  <fix>3d</fix>
</trkpt>
<trkpt lat="-27.2698284" lon="151.288465">
  <ele>433.3</ele>
  <time>2026-09-01T19:56:11Z</time>
  <course>343.61</course>
  <speed>25.00912633420048</speed>
  <fix>3d</fix>
</trkpt>
<trkpt lat="-27.269868" lon="151.2884785">
  <ele>432.28</ele>
  <time>2026-09-01T19:56:11Z</time>
  <course>343.02</course>
  <speed>25.02</speed>
  <fix>3d</fix>
</trkpt>
<trkpt lat="-27.2698068" lon="151.2884576">
  <ele>433.73</ele>
  <time>2026-09-01T19:56:11Z</time>
  <course>343.64</course>
  <speed>25.021610659587846</speed>
  <fix>3d</fix>
</trkpt>
<trkpt lat="-27.269868" lon="151.2884785">
  <ele>432.28</ele>
  <time>2026-09-01T19:56:11Z</time>
  <course>343.02</course>
  <speed>25.02</speed>
  <fix>3d</fix>
</trkpt>
<trkpt lat="-27.2697854" lon="151.2884502">
  <ele>434.16</ele>
  <time>2026-09-01T19:56:11Z</time>
  <course>343.67</course>
  <speed>25.021610659587846</speed>
  <fix>3d</fix>
</trkpt>
<trkpt lat="-27.2698248" lon="151.2884637">
  <ele>433.14</ele>
  <time>2026-09-01T19:56:11Z</time>
  <course>343.0</course>
  <speed>25.04</speed>
  <fix>3d</fix>
</trkpt>
<trkpt lat="-27.269764" lon="151.2884429">
  <ele>434.58</ele>
  <time>2026-09-01T19:56:11Z</time>
  <course>343.65</course>
  <speed>25.03117456293252</speed>
  <fix>3d</fix>
</trkpt>
<trkpt lat="-27.2698248" lon="151.2884637">
  <ele>433.14</ele>
  <time>2026-09-01T19:56:11Z</time>
  <course>343.0</course>
  <speed>25.04</speed>
  <fix>3d</fix>
</trkpt>
<trkpt lat="-27.2697425" lon="151.2884355">
  <ele>435.0</ele>
  <time>2026-09-01T19:56:11Z</time>
  <course>343.6</course>
  <speed>25.03117456293252</speed>
  <fix>3d</fix>
</trkpt>
<trkpt lat="-27.2697819" lon="151.2884489">
  <ele>433.99</ele>
  <time>2026-09-01T19:56:11Z</time>
  <course>342.98</course>
  <speed>25.06</speed>
  <fix>3d</fix>
</trkpt>
<trkpt lat="-27.269721" lon="151.2884281">
  <ele>435.41</ele>
  <time>2026-09-01T19:56:11Z</time>
  <course>343.58</course>
  <speed>25.0407388069921</speed>
  <fix>3d</fix>
</trkpt>
<trkpt lat="-27.2697819" lon="151.2884489">
  <ele>433.99</ele>
  <time>2026-09-01T19:56:11Z</time>
  <course>342.98</course>
  <speed>25.06</speed>
  <fix>3d</fix>
</trkpt>
<trkpt lat="-27.2696994" lon="151.2884206">
  <ele>435.83</ele>
  <time>2026-09-01T19:56:11Z</time>
  <course>343.59</course>
  <speed>25.050303391376318</speed>
  <fix>3d</fix>
</trkpt>
<trkpt lat="-27.2697388" lon="151.2884341">
  <ele>434.83</ele>
  <time>2026-09-01T19:56:11Z</time>
  <course>342.98</course>
  <speed>25.08</speed>
  <fix>3d</fix>
</trkpt>
<trkpt lat="-27.2696779" lon="151.2884132">
  <ele>436.25</ele>
  <time>2026-09-01T19:56:11Z</time>
  <course>343.62</course>
  <speed>25.059868315695518</speed>
  <fix>3d</fix>
</trkpt>
<trkpt lat="-27.2697388" lon="151.2884341">
  <ele>434.83</ele>
  <time>2026-09-01T19:56:11Z</time>
  <course>342.98</course>
  <speed>25.08</speed>
  <fix>3d</fix>
</trkpt>
<trkpt lat="-27.2696562" lon="151.2884058">
  <ele>436.67</ele>
  <time>2026-09-01T19:56:11Z</time>
  <course>343.66</course>
  <speed>25.078999182583026</speed>
  <fix>3d</fix>
</trkpt>
<trkpt lat="-27.2696957" lon="151.2884192">
  <ele>435.66</ele>
  <time>2026-09-01T19:56:11Z</time>
  <course>342.98</course>
  <speed>25.09</speed>
  <fix>3d</fix>
</trkpt>
<trkpt lat="-27.2696346" lon="151.2883984">
  <ele>437.09</ele>
  <time>2026-09-01T19:56:11Z</time>
  <course>343.67</course>
  <speed>25.098131404548827</speed>
  <fix>3d</fix>
</trkpt>
<trkpt lat="-27.2696957" lon="151.2884192">
  <ele>435.66</ele>
  <time>2026-09-01T19:56:11Z</time>
  <course>342.98</course>
  <speed>25.09</speed>
  <fix>3d</fix>
</trkpt>
<trkpt lat="-27.2696129" lon="151.2883909">
  <ele>437.51</ele>
  <time>2026-09-01T19:56:11Z</time>
  <course>343.64</course>
  <speed>25.10769802271805</speed>
  <fix>3d</fix>
</trkpt>
<trkpt lat="-27.2696526" lon="151.2884044">
  <ele>436.5</ele>
  <time>2026-09-01T19:56:11Z</time>
  <course>343.0</course>
  <speed>25.11</speed>
  <fix>3d</fix>
</trkpt>
<trkpt lat="-27.2695912" lon="151.2883835">
  <ele>437.92</ele>
  <time>2026-09-01T19:56:11Z</time>
  <course>343.64</course>
  <speed>25.117264978496365</speed>
  <fix>3d</fix>
</trkpt>
<trkpt lat="-27.2696526" lon="151.2884044">
  <ele>436.5</ele>
  <time>2026-09-01T19:56:11Z</time>
  <course>343.0</course>
  <speed>25.11</speed>
  <fix>3d</fix>
</trkpt>
<trkpt lat="-27.2695698" lon="151.2883761">
  <ele>438.33</ele>
  <time>2026-09-01T19:56:11Z</time>
  <course>343.56</course>
  <speed>25.126832271498134</speed>
  <fix>3d</fix>
</trkpt>
<trkpt lat="-27.2696095" lon="151.2883896">
  <ele>437.33</ele>
  <time>2026-09-01T19:56:11Z</time>
  <course>343.01</course>
  <speed>25.13</speed>
  <fix>3d</fix>
</trkpt>
<trkpt lat="-27.2695483" lon="151.2883687">
  <ele>438.75</ele>
  <time>2026-09-01T19:56:11Z</time>
  <course>343.61</course>
  <speed>25.12974333334903</speed>
  <fix>3d</fix>
</trkpt>
<trkpt lat="-27.2696095" lon="151.2883896">
  <ele>437.33</ele>
  <time>2026-09-01T19:56:11Z</time>
  <course>343.01</course>
  <speed>25.13</speed>
  <fix>3d</fix>
</trkpt>
<trkpt lat="-27.2695268" lon="151.2883614">
  <ele>439.16</ele>
  <time>2026-09-01T19:56:11Z</time>
  <course>343.66</course>
  <speed>25.126832271498134</speed>
  <fix>3d</fix>
</trkpt>
<trkpt lat="-27.2695663" lon="151.2883747">
  <ele>438.16</ele>
  <time>2026-09-01T19:56:11Z</time>
  <course>343.02</course>
  <speed>25.14</speed>
  <fix>3d</fix>
</trkpt>
<trkpt lat="-27.2695052" lon="151.288354">
  <ele>439.57</ele>
  <time>2026-09-01T19:56:11Z</time>
  <course>343.72</course>
  <speed>25.117264978496365</speed>
  <fix>3d</fix>
</trkpt>
<trkpt lat="-27.2695663" lon="151.2883747">
  <ele>438.16</ele>
  <time>2026-09-01T19:56:11Z</time>
  <course>343.02</course>
  <speed>25.14</speed>
  <fix>3d</fix>
</trkpt>
<trkpt lat="-27.2694836" lon="151.2883465">
  <ele>439.98</ele>
  <time>2026-09-01T19:56:11Z</time>
  <course>343.68</course>
  <speed>25.117264978496365</speed>
  <fix>3d</fix>
</trkpt>
<trkpt lat="-27.2695231" lon="151.2883599">
  <ele>438.99</ele>
  <time>2026-09-01T19:56:11Z</time>
  <course>343.01</course>
  <speed>25.16</speed>
  <fix>3d</fix>
</trkpt>
<trkpt lat="-27.2694621" lon="151.2883391">
  <ele>440.4</ele>
  <time>2026-09-01T19:56:11Z</time>
  <course>343.65</course>
  <speed>25.110611302793885</speed>
  <fix>3d</fix>
</trkpt>
<trkpt lat="-27.2695231" lon="151.2883599">
  <ele>438.99</ele>
  <time>2026-09-01T19:56:11Z</time>
  <course>343.01</course>
  <speed>25.16</speed>
  <fix>3d</fix>
</trkpt>
<trkpt lat="-27.2694406" lon="151.2883317">
  <ele>440.82</ele>
  <time>2026-09-01T19:56:11Z</time>
  <course>343.65</course>
  <speed>25.123092962451896</speed>
  <fix>3d</fix>
</trkpt>
<trkpt lat="-27.2694798" lon="151.288345">
  <ele>439.82</ele>
  <time>2026-09-01T19:56:11Z</time>
  <course>342.99</course>
  <speed>25.16</speed>
  <fix>3d</fix>
</trkpt>
<trkpt lat="-27.2694191" lon="151.2883243">
  <ele>441.23</ele>
  <time>2026-09-01T19:56:11Z</time>
  <course>343.7</course>
  <speed>25.123092962451896</speed>
  <fix>3d</fix>
</trkpt>
<trkpt lat="-27.2694798" lon="151.288345">
  <ele>439.82</ele>
  <time>2026-09-01T19:56:11Z</time>
  <course>342.99</course>
  <speed>25.16</speed>
  <fix>3d</fix>
</trkpt>
<trkpt lat="-27.2693976" lon="151.2883169">
  <ele>441.64</ele>
  <time>2026-09-01T19:56:11Z</time>
  <course>343.75</course>
  <speed>25.12017714905689</speed>
  <fix>3d</fix>
</trkpt>
<trkpt lat="-27.2694365" lon="151.2883301">
  <ele>440.65</ele>
  <time>2026-09-01T19:56:11Z</time>
  <course>342.98</course>
  <speed>25.17</speed>
  <fix>3d</fix>
</trkpt>
<trkpt lat="-27.2693761" lon="151.2883095">
  <ele>442.06</ele>
  <time>2026-09-01T19:56:11Z</time>
  <course>343.76</course>
  <speed>25.12017714905689</speed>
  <fix>3d</fix>
</trkpt>
<trkpt lat="-27.2694365" lon="151.2883301">
  <ele>440.65</ele>
  <time>2026-09-01T19:56:11Z</time>
  <course>342.98</course>
  <speed>25.17</speed>
  <fix>3d</fix>
</trkpt>
<trkpt lat="-27.2693544" lon="151.2883021">
  <ele>442.47</ele>
  <time>2026-09-01T19:56:11Z</time>
  <course>343.73</course>
  <speed>25.126832271498134</speed>
  <fix>3d</fix>
</trkpt>
<trkpt lat="-27.2693932" lon="151.2883152">
  <ele>441.48</ele>
  <time>2026-09-01T19:56:11Z</time>
  <course>342.99</course>
  <speed>25.19</speed>
  <fix>3d</fix>
</trkpt>
<trkpt lat="-27.2693328" lon="151.2882947">
  <ele>442.89</ele>
  <time>2026-09-01T19:56:11Z</time>
  <course>343.72</course>
  <speed>25.145967867632375</speed>
  <fix>3d</fix>
</trkpt>
<trkpt lat="-27.2693932" lon="151.2883152">
  <ele>441.48</ele>
  <time>2026-09-01T19:56:11Z</time>
  <course>342.99</course>
  <speed>25.19</speed>
  <fix>3d</fix>
</trkpt>
<trkpt lat="-27.269311" lon="151.2882872">
  <ele>443.3</ele>
  <time>2026-09-01T19:56:11Z</time>
  <course>343.72</course>
  <speed>25.15553616999646</speed>
  <fix>3d</fix>
</trkpt>
<trkpt lat="-27.2693499" lon="151.2883003">
  <ele>442.31</ele>
  <time>2026-09-01T19:56:11Z</time>
  <course>343.02</course>
  <speed>25.2</speed>
  <fix>3d</fix>
</trkpt>
<trkpt lat="-27.2692893" lon="151.2882798">
  <ele>443.7</ele>
  <time>2026-09-01T19:56:11Z</time>
  <course>343.72</course>
  <speed>25.165104808047193</speed>
  <fix>3d</fix>
</trkpt>
<trkpt lat="-27.2693499" lon="151.2883003">
  <ele>442.31</ele>
  <time>2026-09-01T19:56:11Z</time>
  <course>343.02</course>
  <speed>25.2</speed>
  <fix>3d</fix>
</trkpt>
<trkpt lat="-27.2692674" lon="151.2882723">
  <ele>444.1</ele>
  <time>2026-09-01T19:56:11Z</time>
  <course>343.72</course>
  <speed>25.184243089678116</speed>
  <fix>3d</fix>
</trkpt>
<trkpt lat="-27.2693066" lon="151.2882854">
  <ele>443.13</ele>
  <time>2026-09-01T19:56:11Z</time>
  <course>343.04</course>
  <speed>25.21</speed>
  <fix>3d</fix>
</trkpt>
<trkpt lat="-27.2692457" lon="151.2882648">
  <ele>444.51</ele>
  <time>2026-09-01T19:56:11Z</time>
  <course>343.77</course>
  <speed>25.203382709469775</speed>
  <fix>3d</fix>
</trkpt>
<trkpt lat="-27.2693066" lon="151.2882854">
  <ele>443.13</ele>
  <time>2026-09-01T19:56:11Z</time>
  <course>343.04</course>
  <speed>25.21</speed>
  <fix>3d</fix>
</trkpt>
<trkpt lat="-27.2692238" lon="151.2882573">
  <ele>444.91</ele>
  <time>2026-09-01T19:56:11Z</time>
  <course>343.81</course>
  <speed>25.203382709469775</speed>
  <fix>3d</fix>
</trkpt>
<trkpt lat="-27.2692632" lon="151.2882706">
  <ele>443.94</ele>
  <time>2026-09-01T19:56:11Z</time>
  <course>343.06</course>
  <speed>25.23</speed>
  <fix>3d</fix>
</trkpt>
<trkpt lat="-27.2692019" lon="151.2882498">
  <ele>445.31</ele>
  <time>2026-09-01T19:56:11Z</time>
  <course>343.83</course>
  <speed>25.222523664375853</speed>
  <fix>3d</fix>
</trkpt>
<trkpt lat="-27.2692632" lon="151.2882706">
  <ele>443.94</ele>
  <time>2026-09-01T19:56:11Z</time>
  <course>343.06</course>
  <speed>25.23</speed>
  <fix>3d</fix>
</trkpt>
<trkpt lat="-27.26918" lon="151.2882424">
  <ele>445.72</ele>
  <time>2026-09-01T19:56:11Z</time>
  <course>343.87</course>
  <speed>25.232094641547302</speed>
  <fix>3d</fix>
</trkpt>
<trkpt lat="-27.2692198" lon="151.2882558">
  <ele>444.75</ele>
  <time>2026-09-01T19:56:11Z</time>
  <course>343.07</course>
  <speed>25.24</speed>
  <fix>3d</fix>
</trkpt>
<trkpt lat="-27.2691582" lon="151.2882349">
  <ele>446.13</ele>
  <time>2026-09-01T19:56:11Z</time>
  <course>343.92</course>
  <speed>25.23877176092371</speed>
  <fix>3d</fix>
</trkpt>
<trkpt lat="-27.2692198" lon="151.2882558">
  <ele>444.75</ele>
  <time>2026-09-01T19:56:11Z</time>
  <course>343.07</course>
  <speed>25.24</speed>
  <fix>3d</fix>
</trkpt>
<trkpt lat="-27.2691364" lon="151.2882275">
  <ele>446.54</ele>
  <time>2026-09-01T19:56:11Z</time>
  <course>343.92</course>
  <speed>25.245455036501127</speed>
  <fix>3d</fix>
</trkpt>
<trkpt lat="-27.2691765" lon="151.2882409">
  <ele>445.57</ele>
  <time>2026-09-01T19:56:11Z</time>
  <course>343.1</course>
  <speed>25.24</speed>
  <fix>3d</fix>
</trkpt>
<trkpt lat="-27.2691147" lon="151.2882201">
  <ele>446.95</ele>
  <time>2026-09-01T19:56:11Z</time>
  <course>343.84</course>
  <speed>25.257917570536176</speed>
  <fix>3d</fix>
</trkpt>
<trkpt lat="-27.2691765" lon="151.2882409">
  <ele>445.57</ele>
  <time>2026-09-01T19:56:11Z</time>
  <course>343.1</course>
  <speed>25.24</speed>
  <fix>3d</fix>
</trkpt>
<trkpt lat="-27.269093" lon="151.2882127">
  <ele>447.36</ele>
  <time>2026-09-01T19:56:11Z</time>
  <course>343.74</course>
  <speed>25.257917570536176</speed>
  <fix>3d</fix>
</trkpt>
<trkpt lat="-27.2691331" lon="151.288226">
  <ele>446.39</ele>
  <time>2026-09-01T19:56:11Z</time>
  <course>343.13</course>
  <speed>25.25</speed>
  <fix>3d</fix>
</trkpt>
<trkpt lat="-27.2690714" lon="151.2882053">
  <ele>447.77</ele>
  <time>2026-09-01T19:56:11Z</time>
  <course>343.75</course>
  <speed>25.24834450018456</speed>
  <fix>3d</fix>
</trkpt>
<trkpt lat="-27.2691331" lon="151.288226">
  <ele>446.39</ele>
  <time>2026-09-01T19:56:11Z</time>
  <course>343.13</course>
  <speed>25.25</speed>
  <fix>3d</fix>
</trkpt>
<trkpt lat="-27.2690498" lon="151.2881979">
  <ele>448.19</ele>
  <time>2026-09-01T19:56:11Z</time>
  <course>343.81</course>
  <speed>25.23877176092371</speed>
  <fix>3d</fix>
</trkpt>
<trkpt lat="-27.2690897" lon="151.2882113">
  <ele>447.22</ele>
  <time>2026-09-01T19:56:11Z</time>
  <course>343.14</course>
  <speed>25.25</speed>
  <fix>3d</fix>
</trkpt>
<trkpt lat="-27.269028" lon="151.2881905">
  <ele>448.61</ele>
  <time>2026-09-01T19:56:11Z</time>
  <course>343.84</course>
  <speed>25.226307696529826</speed>
  <fix>3d</fix>
</trkpt>
<trkpt lat="-27.2690897" lon="151.2882113">
  <ele>447.22</ele>
  <time>2026-09-01T19:56:11Z</time>
  <course>343.14</course>
  <speed>25.25</speed>
  <fix>3d</fix>
</trkpt>
<trkpt lat="-27.2690064" lon="151.2881831">
  <ele>449.03</ele>
  <time>2026-09-01T19:56:11Z</time>
  <course>343.88</course>
  <speed>25.226307696529826</speed>
  <fix>3d</fix>
</trkpt>
<trkpt lat="-27.2690463" lon="151.2881966">
  <ele>448.04</ele>
  <time>2026-09-01T19:56:11Z</time>
  <course>343.13</course>
  <speed>25.25</speed>
  <fix>3d</fix>
</trkpt>
<trkpt lat="-27.2689848" lon="151.2881758">
  <ele>449.44</ele>
  <time>2026-09-01T19:56:11Z</time>
  <course>343.87</course>
  <speed>25.216734522931393</speed>
  <fix>3d</fix>
</trkpt>
<trkpt lat="-27.2690463" lon="151.2881966">
  <ele>448.04</ele>
  <time>2026-09-01T19:56:11Z</time>
  <course>343.13</course>
  <speed>25.25</speed>
  <fix>3d</fix>
</trkpt>
<trkpt lat="-27.2689633" lon="151.2881684">
  <ele>449.85</ele>
  <time>2026-09-01T19:56:11Z</time>
  <course>343.78</course>
  <speed>25.216734522931393</speed>
  <fix>3d</fix>
</trkpt>
<trkpt lat="-27.2690028" lon="151.2881818">
  <ele>448.88</ele>
  <time>2026-09-01T19:56:11Z</time>
  <course>343.13</course>
  <speed>25.24</speed>
  <fix>3d</fix>
</trkpt>
<trkpt lat="-27.2689417" lon="151.2881611">
  <ele>450.27</ele>
  <time>2026-09-01T19:56:11Z</time>
  <course>343.72</course>
  <speed>25.21005553345728</speed>
  <fix>3d</fix>
</trkpt>
<trkpt lat="-27.2690028" lon="151.2881818">
  <ele>448.88</ele>
  <time>2026-09-01T19:56:11Z</time>
  <course>343.13</course>
  <speed>25.24</speed>
  <fix>3d</fix>
</trkpt>
<trkpt lat="-27.26892" lon="151.2881537">
  <ele>450.68</ele>
  <time>2026-09-01T19:56:11Z</time>
  <course>343.77</course>
  <speed>25.222523664375853</speed>
  <fix>3d</fix>
</trkpt>
<trkpt lat="-27.2689594" lon="151.2881669">
  <ele>449.71</ele>
  <time>2026-09-01T19:56:12Z</time>
  <course>343.12</course>
  <speed>25.24</speed>
  <fix>3d</fix>
</trkpt>
<trkpt lat="-27.2688983" lon="151.2881463">
  <ele>451.09</ele>
  <time>2026-09-01T19:56:12Z</time>
  <course>343.8</course>
  <speed>25.222523664375853</speed>
  <fix>3d</fix>
</trkpt>
<trkpt lat="-27.2689594" lon="151.2881669">
  <ele>449.71</ele>
  <time>2026-09-01T19:56:12Z</time>
  <course>343.12</course>
  <speed>25.24</speed>
  <fix>3d</fix>
</trkpt>
<trkpt lat="-27.2688765" lon="151.2881388">
  <ele>451.5</ele>
  <time>2026-09-01T19:56:12Z</time>
  <course>343.73</course>
  <speed>25.222523664375853</speed>
  <fix>3d</fix>
</trkpt>
<trkpt lat="-27.2689159" lon="151.2881521">
  <ele>450.54</ele>
  <time>2026-09-01T19:56:12Z</time>
  <course>343.1</course>
  <speed>25.25</speed>
  <fix>3d</fix>
</trkpt>
<trkpt lat="-27.2688547" lon="151.2881314">
  <ele>451.91</ele>
  <time>2026-09-01T19:56:12Z</time>
  <course>343.67</course>
  <speed>25.225423683260505</speed>
  <fix>3d</fix>
</trkpt>
<trkpt lat="-27.2689159" lon="151.2881521">
  <ele>450.54</ele>
  <time>2026-09-01T19:56:12Z</time>
  <course>343.1</course>
  <speed>25.25</speed>
  <fix>3d</fix>
</trkpt>
<trkpt lat="-27.2688329" lon="151.2881239">
  <ele>452.33</ele>
  <time>2026-09-01T19:56:12Z</time>
  <course>343.66</course>
  <speed>25.23789610882809</speed>
  <fix>3d</fix>
</trkpt>
<trkpt lat="-27.2688726" lon="151.2881372">
  <ele>451.37</ele>
  <time>2026-09-01T19:56:12Z</time>
  <course>343.07</course>
  <speed>25.25</speed>
  <fix>3d</fix>
</trkpt>
<trkpt lat="-27.2688112" lon="151.2881164">
  <ele>452.74</ele>
  <time>2026-09-01T19:56:12Z</time>
  <course>343.69</course>
  <speed>25.23789610882809</speed>
  <fix>3d</fix>
</trkpt>
<trkpt lat="-27.2688726" lon="151.2881372">
  <ele>451.37</ele>
  <time>2026-09-01T19:56:12Z</time>
  <course>343.07</course>
  <speed>25.25</speed>
  <fix>3d</fix>
</trkpt>
<trkpt lat="-27.2687893" lon="151.2881089">
  <ele>453.16</ele>
  <time>2026-09-01T19:56:12Z</time>
  <course>343.68</course>
  <speed>25.240802285188956</speed>
  <fix>3d</fix>
</trkpt>
<trkpt lat="-27.2688292" lon="151.2881223">
  <ele>452.2</ele>
  <time>2026-09-01T19:56:12Z</time>
  <course>343.04</course>
  <speed>25.25</speed>
  <fix>3d</fix>
</trkpt>
<trkpt lat="-27.2687676" lon="151.2881015">
  <ele>453.57</ele>
  <time>2026-09-01T19:56:12Z</time>
  <course>343.73</course>
  <speed>25.243712088359747</speed>
  <fix>3d</fix>
</trkpt>
<trkpt lat="-27.2688292" lon="151.2881223">
  <ele>452.2</ele>
  <time>2026-09-01T19:56:12Z</time>
  <course>343.04</course>
  <speed>25.25</speed>
  <fix>3d</fix>
</trkpt>
<trkpt lat="-27.2687457" lon="151.288094">
  <ele>453.98</ele>
  <time>2026-09-01T19:56:12Z</time>
  <course>343.69</course>
  <speed>25.243712088359747</speed>
  <fix>3d</fix>
</trkpt>
<trkpt lat="-27.2687857" lon="151.2881074">
  <ele>453.03</ele>
  <time>2026-09-01T19:56:12Z</time>
  <course>343.01</course>
  <speed>25.25</speed>
  <fix>3d</fix>
</trkpt>
<trkpt lat="-27.268724" lon="151.2880865">
  <ele>454.39</ele>
  <time>2026-09-01T19:56:12Z</time>
  <course>343.71</course>
  <speed>25.243712088359747</speed>
  <fix>3d</fix>
</trkpt>
<trkpt lat="-27.2687857" lon="151.2881074">
  <ele>453.03</ele>
  <time>2026-09-01T19:56:12Z</time>
  <course>343.01</course>
  <speed>25.25</speed>
  <fix>3d</fix>
</trkpt>
<trkpt lat="-27.2687022" lon="151.288079">
  <ele>454.81</ele>
  <time>2026-09-01T19:56:12Z</time>
  <course>343.76</course>
  <speed>25.243712088359747</speed>
  <fix>3d</fix>
</trkpt>
<trkpt lat="-27.2687424" lon="151.2880925">
  <ele>453.86</ele>
  <time>2026-09-01T19:56:12Z</time>
  <course>342.99</course>
  <speed>25.24</speed>
  <fix>3d</fix>
</trkpt>
<trkpt lat="-27.2686804" lon="151.2880715">
  <ele>455.22</ele>
  <time>2026-09-01T19:56:12Z</time>
  <course>343.75</course>
  <speed>25.234145517532387</speed>
  <fix>3d</fix>
</trkpt>
<trkpt lat="-27.2687424" lon="151.2880925">
  <ele>453.86</ele>
  <time>2026-09-01T19:56:12Z</time>
  <course>342.99</course>
  <speed>25.24</speed>
  <fix>3d</fix>
</trkpt>
<trkpt lat="-27.2686587" lon="151.288064">
  <ele>455.63</ele>
  <time>2026-09-01T19:56:12Z</time>
  <course>343.69</course>
  <speed>25.243712088359747</speed>
  <fix>3d</fix>
</trkpt>
<trkpt lat="-27.268699" lon="151.2880776">
  <ele>454.68</ele>
  <time>2026-09-01T19:56:12Z</time>
  <course>342.99</course>
  <speed>25.23</speed>
  <fix>3d</fix>
</trkpt>
<trkpt lat="-27.2686369" lon="151.2880565">
  <ele>456.04</ele>
  <time>2026-09-01T19:56:12Z</time>
  <course>343.69</course>
  <speed>25.243712088359747</speed>
  <fix>3d</fix>
</trkpt>
<trkpt lat="-27.268699" lon="151.2880776">
  <ele>454.68</ele>
  <time>2026-09-01T19:56:12Z</time>
  <course>342.99</course>
  <speed>25.23</speed>
  <fix>3d</fix>
</trkpt>
<trkpt lat="-27.2686151" lon="151.288049">
  <ele>456.45</ele>
  <time>2026-09-01T19:56:12Z</time>
  <course>343.66</course>
  <speed>25.243712088359747</speed>
  <fix>3d</fix>
</trkpt>
<trkpt lat="-27.2686557" lon="151.2880627">
  <ele>455.51</ele>
  <time>2026-09-01T19:56:12Z</time>
  <course>342.99</course>
  <speed>25.23</speed>
  <fix>3d</fix>
</trkpt>
<trkpt lat="-27.2685934" lon="151.2880416">
  <ele>456.86</ele>
  <time>2026-09-01T19:56:12Z</time>
  <course>343.68</course>
  <speed>25.243712088359747</speed>
  <fix>3d</fix>
</trkpt>
<trkpt lat="-27.2686557" lon="151.2880627">
  <ele>455.51</ele>
  <time>2026-09-01T19:56:12Z</time>
  <course>342.99</course>
  <speed>25.23</speed>
  <fix>3d</fix>
</trkpt>
<trkpt lat="-27.2685715" lon="151.288034">
  <ele>457.28</ele>
  <time>2026-09-01T19:56:12Z</time>
  <course>343.68</course>
  <speed>25.243712088359747</speed>
  <fix>3d</fix>
</trkpt>
<trkpt lat="-27.2686124" lon="151.2880478">
  <ele>456.32</ele>
  <time>2026-09-01T19:56:12Z</time>
  <course>342.99</course>
  <speed>25.22</speed>
  <fix>3d</fix>
</trkpt>
<trkpt lat="-27.2685498" lon="151.2880266">
  <ele>457.69</ele>
  <time>2026-09-01T19:56:12Z</time>
  <course>343.72</course>
  <speed>25.240802285188956</speed>
  <fix>3d</fix>
</trkpt>
<trkpt lat="-27.2686124" lon="151.2880478">
  <ele>456.32</ele>
  <time>2026-09-01T19:56:12Z</time>
  <course>342.99</course>
  <speed>25.22</speed>
  <fix>3d</fix>
</trkpt>
<trkpt lat="-27.2685282" lon="151.2880191">
  <ele>458.1</ele>
  <time>2026-09-01T19:56:12Z</time>
  <course>343.64</course>
  <speed>25.231234611092656</speed>
  <fix>3d</fix>
</trkpt>
<trkpt lat="-27.268569" lon="151.2880329">
  <ele>457.14</ele>
  <time>2026-09-01T19:56:12Z</time>
  <course>343.0</course>
  <speed>25.21</speed>
  <fix>3d</fix>
</trkpt>
<trkpt lat="-27.2685066" lon="151.2880117">
  <ele>458.51</ele>
  <time>2026-09-01T19:56:12Z</time>
  <course>343.65</course>
  <speed>25.231234611092656</speed>
  <fix>3d</fix>
</trkpt>
<trkpt lat="-27.268569" lon="151.2880329">
  <ele>457.14</ele>
  <time>2026-09-01T19:56:12Z</time>
  <course>343.0</course>
  <speed>25.21</speed>
  <fix>3d</fix>
</trkpt>
<trkpt lat="-27.2684851" lon="151.2880043">
  <ele>458.92</ele>
  <time>2026-09-01T19:56:12Z</time>
  <course>343.63</course>
  <speed>25.221667272406876</speed>
  <fix>3d</fix>
</trkpt>
<trkpt lat="-27.2685256" lon="151.288018">
  <ele>457.96</ele>
  <time>2026-09-01T19:56:12Z</time>
  <course>343.01</course>
  <speed>25.21</speed>
  <fix>3d</fix>
</trkpt>
<trkpt lat="-27.2684635" lon="151.2879969">
  <ele>459.33</ele>
  <time>2026-09-01T19:56:12Z</time>
  <course>343.59</course>
  <speed>25.20253360279478</speed>
  <fix>3d</fix>
</trkpt>
<trkpt lat="-27.2685256" lon="151.288018">
  <ele>457.96</ele>
  <time>2026-09-01T19:56:12Z</time>
  <course>343.01</course>
  <speed>25.21</speed>
  <fix>3d</fix>
</trkpt>
<trkpt lat="-27.2684419" lon="151.2879895">
  <ele>459.74</ele>
  <time>2026-09-01T19:56:12Z</time>
  <course>343.64</course>
  <speed>25.20253360279478</speed>
  <fix>3d</fix>
</trkpt>
<trkpt lat="-27.2684822" lon="151.288003">
  <ele>458.79</ele>
  <time>2026-09-01T19:56:12Z</time>
  <course>343.01</course>
  <speed>25.2</speed>
  <fix>3d</fix>
</trkpt>
<trkpt lat="-27.2684203" lon="151.2879821">
  <ele>460.16</ele>
  <time>2026-09-01T19:56:12Z</time>
  <course>343.67</course>
  <speed>25.20253360279478</speed>
  <fix>3d</fix>
</trkpt>
<trkpt lat="-27.2684822" lon="151.288003">
  <ele>458.79</ele>
  <time>2026-09-01T19:56:12Z</time>
  <course>343.01</course>
  <speed>25.2</speed>
  <fix>3d</fix>
</trkpt>
<trkpt lat="-27.2683986" lon="151.2879746">
  <ele>460.56</ele>
  <time>2026-09-01T19:56:12Z</time>
  <course>343.71</course>
  <speed>25.20253360279478</speed>
  <fix>3d</fix>
</trkpt>
<trkpt lat="-27.2684389" lon="151.2879882">
  <ele>459.61</ele>
  <time>2026-09-01T19:56:12Z</time>
  <course>343.01</course>
  <speed>25.2</speed>
  <fix>3d</fix>
</trkpt>
<trkpt lat="-27.268377" lon="151.2879672">
  <ele>460.97</ele>
  <time>2026-09-01T19:56:12Z</time>
  <course>343.69</course>
  <speed>25.20253360279478</speed>
  <fix>3d</fix>
</trkpt>
<trkpt lat="-27.2684389" lon="151.2879882">
  <ele>459.61</ele>
  <time>2026-09-01T19:56:12Z</time>
  <course>343.01</course>
  <speed>25.2</speed>
  <fix>3d</fix>
</trkpt>
<trkpt lat="-27.2683553" lon="151.2879597">
  <ele>461.38</ele>
  <time>2026-09-01T19:56:12Z</time>
  <course>343.67</course>
  <speed>25.192967272633847</speed>
  <fix>3d</fix>
</trkpt>
<trkpt lat="-27.2683956" lon="151.2879733">
  <ele>460.42</ele>
  <time>2026-09-01T19:56:12Z</time>
  <course>343.01</course>
  <speed>25.2</speed>
  <fix>3d</fix>
</trkpt>
<trkpt lat="-27.2683336" lon="151.2879523">
  <ele>461.78</ele>
  <time>2026-09-01T19:56:12Z</time>
  <course>343.62</course>
  <speed>25.180488478184852</speed>
  <fix>3d</fix>
</trkpt>
<trkpt lat="-27.2683956" lon="151.2879733">
  <ele>460.42</ele>
  <time>2026-09-01T19:56:12Z</time>
  <course>343.01</course>
  <speed>25.2</speed>
  <fix>3d</fix>
</trkpt>
<trkpt lat="-27.2683119" lon="151.2879448">
  <ele>462.19</ele>
  <time>2026-09-01T19:56:12Z</time>
  <course>343.64</course>
  <speed>25.183401279414184</speed>
  <fix>3d</fix>
</trkpt>
<trkpt lat="-27.2683524" lon="151.2879584">
  <ele>461.24</ele>
  <time>2026-09-01T19:56:12Z</time>
  <course>343.01</course>
  <speed>25.19</speed>
  <fix>3d</fix>
</trkpt>
<trkpt lat="-27.2682902" lon="151.2879373">
  <ele>462.6</ele>
  <time>2026-09-01T19:56:12Z</time>
  <course>343.68</course>
  <speed>25.192967272633847</speed>
  <fix>3d</fix>
</trkpt>
<trkpt lat="-27.2683524" lon="151.2879584">
  <ele>461.24</ele>
  <time>2026-09-01T19:56:12Z</time>
  <course>343.01</course>
  <speed>25.19</speed>
  <fix>3d</fix>
</trkpt>
<trkpt lat="-27.2682686" lon="151.2879299">
  <ele>463.0</ele>
  <time>2026-09-01T19:56:12Z</time>
  <course>343.65</course>
  <speed>25.192967272633847</speed>
  <fix>3d</fix>
</trkpt>
<trkpt lat="-27.2683091" lon="151.2879436">
  <ele>462.06</ele>
  <time>2026-09-01T19:56:12Z</time>
  <course>342.99</course>
  <speed>25.17</speed>
  <fix>3d</fix>
</trkpt>
<trkpt lat="-27.2682469" lon="151.2879224">
  <ele>463.41</ele>
  <time>2026-09-01T19:56:12Z</time>
  <course>343.59</course>
  <speed>25.192967272633847</speed>
  <fix>3d</fix>
</trkpt>
<trkpt lat="-27.2683091" lon="151.2879436">
  <ele>462.06</ele>
  <time>2026-09-01T19:56:12Z</time>
  <course>342.99</course>
  <speed>25.17</speed>
  <fix>3d</fix>
</trkpt>
<trkpt lat="-27.2682252" lon="151.287915">
  <ele>463.81</ele>
  <time>2026-09-01T19:56:12Z</time>
  <course>343.6</course>
  <speed>25.195882600139253</speed>
  <fix>3d</fix>
</trkpt>
<trkpt lat="-27.2682659" lon="151.2879287">
  <ele>462.87</ele>
  <time>2026-09-01T19:56:12Z</time>
  <course>342.98</course>
  <speed>25.18</speed>
  <fix>3d</fix>
</trkpt>
<trkpt lat="-27.2682035" lon="151.2879075">
  <ele>464.2</ele>
  <time>2026-09-01T19:56:12Z</time>
  <course>343.69</course>
  <speed>25.20544782383364</speed>
  <fix>3d</fix>
</trkpt>
<trkpt lat="-27.2682659" lon="151.2879287">
  <ele>462.87</ele>
  <time>2026-09-01T19:56:12Z</time>
  <course>342.98</course>
  <speed>25.18</speed>
  <fix>3d</fix>
</trkpt>
<trkpt lat="-27.2681818" lon="151.2879">
  <ele>464.6</ele>
  <time>2026-09-01T19:56:12Z</time>
  <course>343.69</course>
  <speed>25.21210026951345</speed>
  <fix>3d</fix>
</trkpt>
<trkpt lat="-27.2682226" lon="151.2879138">
  <ele>463.66</ele>
  <time>2026-09-01T19:56:12Z</time>
  <course>342.98</course>
  <speed>25.18</speed>
  <fix>3d</fix>
</trkpt>
<trkpt lat="-27.2681602" lon="151.2878926">
  <ele>465.0</ele>
  <time>2026-09-01T19:56:12Z</time>
  <course>343.66</course>
  <speed>25.21210026951345</speed>
  <fix>3d</fix>
</trkpt>
<trkpt lat="-27.2682226" lon="151.2879138">
  <ele>463.66</ele>
  <time>2026-09-01T19:56:12Z</time>
  <course>342.98</course>
  <speed>25.18</speed>
  <fix>3d</fix>
</trkpt>
<trkpt lat="-27.2681385" lon="151.2878851">
  <ele>465.39</ele>
  <time>2026-09-01T19:56:12Z</time>
  <course>343.65</course>
  <speed>25.20919078431515</speed>
  <fix>3d</fix>
</trkpt>
<trkpt lat="-27.2681794" lon="151.2878989">
  <ele>464.46</ele>
  <time>2026-09-01T19:56:12Z</time>
  <course>342.99</course>
  <speed>25.18</speed>
  <fix>3d</fix>
</trkpt>
<trkpt lat="-27.268117" lon="151.2878778">
  <ele>465.78</ele>
  <time>2026-09-01T19:56:12Z</time>
  <course>343.61</course>
  <speed>25.206284930548573</speed>
  <fix>3d</fix>
</trkpt>
<trkpt lat="-27.2681794" lon="151.2878989">
  <ele>464.46</ele>
  <time>2026-09-01T19:56:12Z</time>
  <course>342.99</course>
  <speed>25.18</speed>
  <fix>3d</fix>
</trkpt>
<trkpt lat="-27.2680954" lon="151.2878704">
  <ele>466.17</ele>
  <time>2026-09-01T19:56:12Z</time>
  <course>343.61</course>
  <speed>25.19962301305319</speed>
  <fix>3d</fix>
</trkpt>
<trkpt lat="-27.2681361" lon="151.287884">
  <ele>465.25</ele>
  <time>2026-09-01T19:56:12Z</time>
  <course>343.02</course>
  <speed>25.19</speed>
  <fix>3d</fix>
</trkpt>
<trkpt lat="-27.2680739" lon="151.287863">
  <ele>466.56</ele>
  <time>2026-09-01T19:56:12Z</time>
  <course>343.68</course>
  <speed>25.19962301305319</speed>
  <fix>3d</fix>
</trkpt>
<trkpt lat="-27.2681361" lon="151.287884">
  <ele>465.25</ele>
  <time>2026-09-01T19:56:12Z</time>
  <course>343.02</course>
  <speed>25.19</speed>
  <fix>3d</fix>
</trkpt>
<trkpt lat="-27.2680524" lon="151.2878556">
  <ele>466.95</ele>
  <time>2026-09-01T19:56:12Z</time>
  <course>343.72</course>
  <speed>25.19005557754885</speed>
  <fix>3d</fix>
</trkpt>
<trkpt lat="-27.2680928" lon="151.2878692">
  <ele>466.04</ele>
  <time>2026-09-01T19:56:12Z</time>
  <course>343.02</course>
  <speed>25.19</speed>
  <fix>3d</fix>
</trkpt>
<trkpt lat="-27.2680307" lon="151.2878481">
  <ele>467.35</ele>
  <time>2026-09-01T19:56:12Z</time>
  <course>343.73</course>
  <speed>25.187147516144023</speed>
  <fix>3d</fix>
</trkpt>
<trkpt lat="-27.2680928" lon="151.2878692">
  <ele>466.04</ele>
  <time>2026-09-01T19:56:12Z</time>
  <course>343.02</course>
  <speed>25.19</speed>
  <fix>3d</fix>
</trkpt>
<trkpt lat="-27.2680092" lon="151.2878408">
  <ele>467.74</ele>
  <time>2026-09-01T19:56:12Z</time>
  <course>343.7</course>
  <speed>25.187147516144023</speed>
  <fix>3d</fix>
</trkpt>
<trkpt lat="-27.2680494" lon="151.2878543">
  <ele>466.84</ele>
  <time>2026-09-01T19:56:12Z</time>
  <course>343.02</course>
  <speed>25.19</speed>
  <fix>3d</fix>
</trkpt>
<trkpt lat="-27.2679876" lon="151.2878333">
  <ele>468.13</ele>
  <time>2026-09-01T19:56:12Z</time>
  <course>343.68</course>
  <speed>25.174673781401815</speed>
  <fix>3d</fix>
</trkpt>
<trkpt lat="-27.2680494" lon="151.2878543">
  <ele>466.84</ele>
  <time>2026-09-01T19:56:12Z</time>
  <course>343.02</course>
  <speed>25.19</speed>
  <fix>3d</fix>
</trkpt>
<trkpt lat="-27.267966" lon="151.2878259">
  <ele>468.53</ele>
  <time>2026-09-01T19:56:12Z</time>
  <course>343.64</course>
  <speed>25.174673781401815</speed>
  <fix>3d</fix>
</trkpt>
<trkpt lat="-27.2680061" lon="151.2878394">
  <ele>467.63</ele>
  <time>2026-09-01T19:56:12Z</time>
  <course>343.04</course>
  <speed>25.2</speed>
  <fix>3d</fix>
</trkpt>
<trkpt lat="-27.2679444" lon="151.2878185">
  <ele>468.92</ele>
  <time>2026-09-01T19:56:12Z</time>
  <course>343.61</course>
  <speed>25.17757931176069</speed>
  <fix>3d</fix>
</trkpt>
<trkpt lat="-27.2680061" lon="151.2878394">
  <ele>467.63</ele>
  <time>2026-09-01T19:56:12Z</time>
  <course>343.04</course>
  <speed>25.2</speed>
  <fix>3d</fix>
</trkpt>
<trkpt lat="-27.2679227" lon="151.2878111">
  <ele>469.32</ele>
  <time>2026-09-01T19:56:12Z</time>
  <course>343.69</course>
  <speed>25.174673781401815</speed>
  <fix>3d</fix>
</trkpt>
<trkpt lat="-27.2679628" lon="151.2878246">
  <ele>468.41</ele>
  <time>2026-09-01T19:56:12Z</time>
  <course>343.04</course>
  <speed>25.2</speed>
  <fix>3d</fix>
</trkpt>
<trkpt lat="-27.267901" lon="151.2878037">
  <ele>469.71</ele>
  <time>2026-09-01T19:56:12Z</time>
  <course>343.76</course>
  <speed>25.17757931176069</speed>
  <fix>3d</fix>
</trkpt>
<trkpt lat="-27.2679628" lon="151.2878246">
  <ele>468.41</ele>
  <time>2026-09-01T19:56:12Z</time>
  <course>343.04</course>
  <speed>25.2</speed>
  <fix>3d</fix>
</trkpt>
<trkpt lat="-27.2678793" lon="151.2877962">
  <ele>470.11</ele>
  <time>2026-09-01T19:56:12Z</time>
  <course>343.78</course>
  <speed>25.184243089678116</speed>
  <fix>3d</fix>
</trkpt>
<trkpt lat="-27.2679195" lon="151.2878097">
  <ele>469.2</ele>
  <time>2026-09-01T19:56:12Z</time>
  <course>343.04</course>
  <speed>25.21</speed>
  <fix>3d</fix>
</trkpt>
<trkpt lat="-27.2678576" lon="151.2877888">
  <ele>470.51</ele>
  <time>2026-09-01T19:56:12Z</time>
  <course>343.72</course>
  <speed>25.184243089678116</speed>
  <fix>3d</fix>
</trkpt>
<trkpt lat="-27.2679195" lon="151.2878097">
  <ele>469.2</ele>
  <time>2026-09-01T19:56:12Z</time>
  <course>343.04</course>
  <speed>25.21</speed>
  <fix>3d</fix>
</trkpt>
<trkpt lat="-27.2678359" lon="151.2877813">
  <ele>470.9</ele>
  <time>2026-09-01T19:56:12Z</time>
  <course>343.69</course>
  <speed>25.184243089678116</speed>
  <fix>3d</fix>
</trkpt>
<trkpt lat="-27.2678762" lon="151.2877949">
  <ele>469.99</ele>
  <time>2026-09-01T19:56:12Z</time>
  <course>343.06</course>
  <speed>25.21</speed>
  <fix>3d</fix>
</trkpt>
<trkpt lat="-27.2678142" lon="151.2877739">
  <ele>471.3</ele>
  <time>2026-09-01T19:56:12Z</time>
  <course>343.74</course>
  <speed>25.203382709469775</speed>
  <fix>3d</fix>
</trkpt>
<trkpt lat="-27.2678762" lon="151.2877949">
  <ele>469.99</ele>
  <time>2026-09-01T19:56:12Z</time>
  <course>343.06</course>
  <speed>25.21</speed>
  <fix>3d</fix>
</trkpt>
<trkpt lat="-27.2677925" lon="151.2877665">
  <ele>471.7</ele>
  <time>2026-09-01T19:56:12Z</time>
  <course>343.74</course>
  <speed>25.21005553345728</speed>
  <fix>3d</fix>
</trkpt>
<trkpt lat="-27.2678329" lon="151.2877801">
  <ele>470.79</ele>
  <time>2026-09-01T19:56:12Z</time>
  <course>343.08</course>
  <speed>25.21</speed>
  <fix>3d</fix>
</trkpt>
<trkpt lat="-27.2677707" lon="151.2877591">
  <ele>472.09</ele>
  <time>2026-09-01T19:56:12Z</time>
  <course>343.83</course>
  <speed>25.21005553345728</speed>
  <fix>3d</fix>
</trkpt>
<trkpt lat="-27.2678329" lon="151.2877801">
  <ele>470.79</ele>
  <time>2026-09-01T19:56:12Z</time>
  <course>343.08</course>
  <speed>25.21</speed>
  <fix>3d</fix>
</trkpt>
<trkpt lat="-27.267749" lon="151.2877516">
  <ele>472.49</ele>
  <time>2026-09-01T19:56:12Z</time>
  <course>343.84</course>
  <speed>25.207161680760493</speed>
  <fix>3d</fix>
</trkpt>
<trkpt lat="-27.2677895" lon="151.2877652">
  <ele>471.58</ele>
  <time>2026-09-01T19:56:12Z</time>
  <course>343.1</course>
  <speed>25.22</speed>
  <fix>3d</fix>
</trkpt>
<trkpt lat="-27.2677273" lon="151.2877442">
  <ele>472.88</ele>
  <time>2026-09-01T19:56:12Z</time>
  <course>343.86</course>
  <speed>25.207161680760493</speed>
  <fix>3d</fix>
</trkpt>
<trkpt lat="-27.2677895" lon="151.2877652">
  <ele>471.58</ele>
  <time>2026-09-01T19:56:12Z</time>
  <course>343.1</course>
  <speed>25.22</speed>
  <fix>3d</fix>
</trkpt>
<trkpt lat="-27.2677056" lon="151.2877368">
  <ele>473.28</ele>
  <time>2026-09-01T19:56:12Z</time>
  <course>343.86</course>
  <speed>25.20427146338493</speed>
  <fix>3d</fix>
</trkpt>
<trkpt lat="-27.2677462" lon="151.2877504">
  <ele>472.37</ele>
  <time>2026-09-01T19:56:12Z</time>
  <course>343.13</course>
  <speed>25.21</speed>
  <fix>3d</fix>
</trkpt>
<trkpt lat="-27.2676839" lon="151.2877294">
  <ele>473.67</ele>
  <time>2026-09-01T19:56:12Z</time>
  <course>343.79</course>
  <speed>25.20427146338493</speed>
  <fix>3d</fix>
</trkpt>
<trkpt lat="-27.2677462" lon="151.2877504">
  <ele>472.37</ele>
  <time>2026-09-01T19:56:12Z</time>
  <course>343.13</course>
  <speed>25.21</speed>
  <fix>3d</fix>
</trkpt>
<trkpt lat="-27.2676624" lon="151.2877221">
  <ele>474.06</ele>
  <time>2026-09-01T19:56:12Z</time>
  <course>343.79</course>
  <speed>25.20427146338493</speed>
  <fix>3d</fix>
</trkpt>
<trkpt lat="-27.2677028" lon="151.2877356">
  <ele>473.16</ele>
  <time>2026-09-01T19:56:12Z</time>
  <course>343.15</course>
  <speed>25.21</speed>
  <fix>3d</fix>
</trkpt>
<trkpt lat="-27.2676408" lon="151.2877148">
  <ele>474.46</ele>
  <time>2026-09-01T19:56:12Z</time>
  <course>343.8</course>
  <speed>25.197589170394853</speed>
  <fix>3d</fix>
</trkpt>
<trkpt lat="-27.2677028" lon="151.2877356">
  <ele>473.16</ele>
  <time>2026-09-01T19:56:12Z</time>
  <course>343.15</course>
  <speed>25.21</speed>
  <fix>3d</fix>
</trkpt>
<trkpt lat="-27.2676193" lon="151.2877074">
  <ele>474.85</ele>
  <time>2026-09-01T19:56:12Z</time>
  <course>343.75</course>
  <speed>25.188016992212784</speed>
  <fix>3d</fix>
</trkpt>
<trkpt lat="-27.2676595" lon="151.2877209">
  <ele>473.95</ele>
  <time>2026-09-01T19:56:12Z</time>
  <course>343.15</course>
  <speed>25.21</speed>
  <fix>3d</fix>
</trkpt>
<trkpt lat="-27.2675978" lon="151.2877001">
  <ele>475.25</ele>
  <time>2026-09-01T19:56:12Z</time>
  <course>343.67</course>
  <speed>25.168873633915364</speed>
  <fix>3d</fix>
</trkpt>
<trkpt lat="-27.2676595" lon="151.2877209">
  <ele>473.95</ele>
  <time>2026-09-01T19:56:12Z</time>
  <course>343.15</course>
  <speed>25.21</speed>
  <fix>3d</fix>
</trkpt>
<trkpt lat="-27.2675761" lon="151.2876927">
  <ele>475.65</ele>
  <time>2026-09-01T19:56:12Z</time>
  <course>343.67</course>
  <speed>25.162201811447268</speed>
  <fix>3d</fix>
</trkpt>
<trkpt lat="-27.267616" lon="151.287706">
  <ele>474.74</ele>
  <time>2026-09-01T19:56:12Z</time>
  <course>343.14</course>
  <speed>25.2</speed>
  <fix>3d</fix>
</trkpt>
<trkpt lat="-27.2675546" lon="151.2876853">
  <ele>476.05</ele>
  <time>2026-09-01T19:56:12Z</time>
  <course>343.7</course>
  <speed>25.162201811447268</speed>
  <fix>3d</fix>
</trkpt>
<trkpt lat="-27.267616" lon="151.287706">
  <ele>474.74</ele>
  <time>2026-09-01T19:56:12Z</time>
  <course>343.14</course>
  <speed>25.2</speed>
  <fix>3d</fix>
</trkpt>
<trkpt lat="-27.2675331" lon="151.2876779">
  <ele>476.44</ele>
  <time>2026-09-01T19:56:12Z</time>
  <course>343.78</course>
  <speed>25.165104808047193</speed>
  <fix>3d</fix>
</trkpt>
<trkpt lat="-27.2675726" lon="151.2876913">
  <ele>475.53</ele>
  <time>2026-09-01T19:56:12Z</time>
  <course>343.11</course>
  <speed>25.2</speed>
  <fix>3d</fix>
</trkpt>
<trkpt lat="-27.2675109" lon="151.2876703">
  <ele>476.84</ele>
  <time>2026-09-01T19:56:12Z</time>
  <course>343.69</course>
  <speed>25.15844391054423</speed>
  <fix>3d</fix>
</trkpt>
<trkpt lat="-27.2675726" lon="151.2876913">
  <ele>475.53</ele>
  <time>2026-09-01T19:56:12Z</time>
  <course>343.11</course>
  <speed>25.2</speed>
  <fix>3d</fix>
</trkpt>
<trkpt lat="-27.2674895" lon="151.287663">
  <ele>477.23</ele>
  <time>2026-09-01T19:56:12Z</time>
  <course>343.68</course>
  <speed>25.15844391054423</speed>
  <fix>3d</fix>
</trkpt>
<trkpt lat="-27.2675293" lon="151.2876764">
  <ele>476.32</ele>
  <time>2026-09-01T19:56:12Z</time>
  <course>343.07</course>
  <speed>25.21</speed>
  <fix>3d</fix>
</trkpt>
<trkpt lat="-27.267468" lon="151.2876556">
  <ele>477.62</ele>
  <time>2026-09-01T19:56:12Z</time>
  <course>343.65</course>
  <speed>25.161355289411578</speed>
  <fix>3d</fix>
</trkpt>
<trkpt lat="-27.2675293" lon="151.2876764">
  <ele>476.32</ele>
  <time>2026-09-01T19:56:12Z</time>
  <course>343.07</course>
  <speed>25.21</speed>
  <fix>3d</fix>
</trkpt>
<trkpt lat="-27.2674463" lon="151.2876482">
  <ele>478.02</ele>
  <time>2026-09-01T19:56:12Z</time>
  <course>343.62</course>
  <speed>25.161355289411578</speed>
  <fix>3d</fix>
</trkpt>
<trkpt lat="-27.267486" lon="151.2876616">
  <ele>477.11</ele>
  <time>2026-09-01T19:56:12Z</time>
  <course>343.04</course>
  <speed>25.23</speed>
  <fix>3d</fix>
</trkpt>
<trkpt lat="-27.2674247" lon="151.2876407">
  <ele>478.41</ele>
  <time>2026-09-01T19:56:12Z</time>
  <course>343.66</course>
  <speed>25.161355289411578</speed>
  <fix>3d</fix>
</trkpt>
<trkpt lat="-27.267486" lon="151.2876616">
  <ele>477.11</ele>
  <time>2026-09-01T19:56:12Z</time>
  <course>343.04</course>
  <speed>25.23</speed>
  <fix>3d</fix>
</trkpt>
<trkpt lat="-27.2674027" lon="151.2876332">
  <ele>478.8</ele>
  <time>2026-09-01T19:56:12Z</time>
  <course>343.65</course>
  <speed>25.173835623519906</speed>
  <fix>3d</fix>
</trkpt>
<trkpt lat="-27.2674426" lon="151.2876467">
  <ele>477.89</ele>
  <time>2026-09-01T19:56:12Z</time>
  <course>343.03</course>
  <speed>25.23</speed>
  <fix>3d</fix>
</trkpt>
<trkpt lat="-27.2673816" lon="151.2876259">
  <ele>479.19</ele>
  <time>2026-09-01T19:56:12Z</time>
  <course>343.66</course>
  <speed>25.173835623519906</speed>
  <fix>3d</fix>
</trkpt>
<trkpt lat="-27.2674426" lon="151.2876467">
  <ele>477.89</ele>
  <time>2026-09-01T19:56:12Z</time>
  <course>343.03</course>
  <speed>25.23</speed>
  <fix>3d</fix>
</trkpt>
<trkpt lat="-27.2673598" lon="151.2876184">
  <ele>479.58</ele>
  <time>2026-09-01T19:56:12Z</time>
  <course>343.63</course>
  <speed>25.1863177141876</speed>
  <fix>3d</fix>
</trkpt>
<trkpt lat="-27.2673993" lon="151.2876318">
  <ele>478.68</ele>
  <time>2026-09-01T19:56:12Z</time>
  <course>343.01</course>
  <speed>25.23</speed>
  <fix>3d</fix>
</trkpt>
<trkpt lat="-27.267338" lon="151.2876109">
  <ele>479.97</ele>
  <time>2026-09-01T19:56:12Z</time>
  <course>343.61</course>
  <speed>25.195882600139253</speed>
  <fix>3d</fix>
</trkpt>
<trkpt lat="-27.2673993" lon="151.2876318">
  <ele>478.68</ele>
  <time>2026-09-01T19:56:12Z</time>
  <course>343.01</course>
  <speed>25.23</speed>
  <fix>3d</fix>
</trkpt>
<trkpt lat="-27.2673162" lon="151.2876034">
  <ele>480.36</ele>
  <time>2026-09-01T19:56:12Z</time>
  <course>343.67</course>
  <speed>25.195882600139253</speed>
  <fix>3d</fix>
</trkpt>
<trkpt lat="-27.267356" lon="151.2876169">
  <ele>479.46</ele>
  <time>2026-09-01T19:56:12Z</time>
  <course>343.01</course>
  <speed>25.24</speed>
  <fix>3d</fix>
</trkpt>
<trkpt lat="-27.2672945" lon="151.287596">
  <ele>480.76</ele>
  <time>2026-09-01T19:56:12Z</time>
  <course>343.61</course>
  <speed>25.195882600139253</speed>
  <fix>3d</fix>
</trkpt>
<trkpt lat="-27.267356" lon="151.2876169">
  <ele>479.46</ele>
  <time>2026-09-01T19:56:12Z</time>
  <course>343.01</course>
  <speed>25.24</speed>
  <fix>3d</fix>
</trkpt>
<trkpt lat="-27.2672727" lon="151.2875885">
  <ele>481.15</ele>
  <time>2026-09-01T19:56:12Z</time>
  <course>343.64</course>
  <speed>25.195882600139253</speed>
  <fix>3d</fix>
</trkpt>
<trkpt lat="-27.2673125" lon="151.287602">
  <ele>480.25</ele>
  <time>2026-09-01T19:56:12Z</time>
  <course>343.01</course>
  <speed>25.24</speed>
  <fix>3d</fix>
</trkpt>
<trkpt lat="-27.2672509" lon="151.287581">
  <ele>481.55</ele>
  <time>2026-09-01T19:56:12Z</time>
  <course>343.64</course>
  <speed>25.20544782383364</speed>
  <fix>3d</fix>
</trkpt>
<trkpt lat="-27.2673125" lon="151.287602">
  <ele>480.25</ele>
  <time>2026-09-01T19:56:12Z</time>
  <course>343.01</course>
  <speed>25.24</speed>
  <fix>3d</fix>
</trkpt>
<trkpt lat="-27.2672295" lon="151.2875736">
  <ele>481.95</ele>
  <time>2026-09-01T19:56:12Z</time>
  <course>343.58</course>
  <speed>25.20253360279478</speed>
  <fix>3d</fix>
</trkpt>
<trkpt lat="-27.2672692" lon="151.2875872">
  <ele>481.05</ele>
  <time>2026-09-01T19:56:12Z</time>
  <course>343.01</course>
  <speed>25.23</speed>
  <fix>3d</fix>
</trkpt>
<trkpt lat="-27.2672078" lon="151.2875662">
  <ele>482.34</ele>
  <time>2026-09-01T19:56:12Z</time>
  <course>343.58</course>
  <speed>25.20253360279478</speed>
  <fix>3d</fix>
</trkpt>
<trkpt lat="-27.2672692" lon="151.2875872">
  <ele>481.05</ele>
  <time>2026-09-01T19:56:12Z</time>
  <course>343.01</course>
  <speed>25.23</speed>
  <fix>3d</fix>
</trkpt>
<trkpt lat="-27.2671862" lon="151.2875588">
  <ele>482.74</ele>
  <time>2026-09-01T19:56:12Z</time>
  <course>343.65</course>
  <speed>25.20253360279478</speed>
  <fix>3d</fix>
</trkpt>
<trkpt lat="-27.2672259" lon="151.2875723">
  <ele>481.85</ele>
  <time>2026-09-01T19:56:12Z</time>
  <course>343.03</course>
  <speed>25.23</speed>
  <fix>3d</fix>
</trkpt>
<trkpt lat="-27.2671647" lon="151.2875514">
  <ele>483.14</ele>
  <time>2026-09-01T19:56:12Z</time>
  <course>343.75</course>
  <speed>25.19005557754885</speed>
  <fix>3d</fix>
</trkpt>
<trkpt lat="-27.2672259" lon="151.2875723">
  <ele>481.85</ele>
  <time>2026-09-01T19:56:12Z</time>
  <course>343.03</course>
  <speed>25.23</speed>
  <fix>3d</fix>
</trkpt>
<trkpt lat="-27.2671431" lon="151.287544">
  <ele>483.54</ele>
  <time>2026-09-01T19:56:12Z</time>
  <course>343.75</course>
  <speed>25.174673781401815</speed>
  <fix>3d</fix>
</trkpt>
<trkpt lat="-27.2671824" lon="151.2875574">
  <ele>482.65</ele>
  <time>2026-09-01T19:56:12Z</time>
  <course>343.06</course>
  <speed>25.23</speed>
  <fix>3d</fix>
</trkpt>
<trkpt lat="-27.2671214" lon="151.2875366">
  <ele>483.95</ele>
  <time>2026-09-01T19:56:12Z</time>
  <course>343.72</course>
  <speed>25.171771888367335</speed>
  <fix>3d</fix>
</trkpt>
<trkpt lat="-27.2671824" lon="151.2875574">
  <ele>482.65</ele>
  <time>2026-09-01T19:56:12Z</time>
  <course>343.06</course>
  <speed>25.23</speed>
  <fix>3d</fix>
</trkpt>
<trkpt lat="-27.2670998" lon="151.2875292">
  <ele>484.35</ele>
  <time>2026-09-01T19:56:12Z</time>
  <course>343.72</course>
  <speed>25.162201811447268</speed>
  <fix>3d</fix>
</trkpt>
<trkpt lat="-27.267139" lon="151.2875425">
  <ele>483.45</ele>
  <time>2026-09-01T19:56:12Z</time>
  <course>343.09</course>
  <speed>25.22</speed>
  <fix>3d</fix>
</trkpt>
<trkpt lat="-27.2670782" lon="151.2875218">
  <ele>484.75</ele>
  <time>2026-09-01T19:56:12Z</time>
  <course>343.71</course>
  <speed>25.171771888367335</speed>
  <fix>3d</fix>
</trkpt>
<trkpt lat="-27.267139" lon="151.2875425">
  <ele>483.45</ele>
  <time>2026-09-01T19:56:12Z</time>
  <course>343.09</course>
  <speed>25.22</speed>
  <fix>3d</fix>
</trkpt>
<trkpt lat="-27.2670557" lon="151.2875142">
  <ele>485.16</ele>
  <time>2026-09-01T19:56:12Z</time>
  <course>343.73</course>
  <speed>25.171771888367335</speed>
  <fix>3d</fix>
</trkpt>
<trkpt lat="-27.2670957" lon="151.2875277">
  <ele>484.25</ele>
  <time>2026-09-01T19:56:12Z</time>
  <course>343.12</course>
  <speed>25.22</speed>
  <fix>3d</fix>
</trkpt>
<trkpt lat="-27.2670342" lon="151.2875068">
  <ele>485.55</ele>
  <time>2026-09-01T19:56:12Z</time>
  <course>343.65</course>
  <speed>25.171771888367335</speed>
  <fix>3d</fix>
</trkpt>
<trkpt lat="-27.2670957" lon="151.2875277">
  <ele>484.25</ele>
  <time>2026-09-01T19:56:12Z</time>
  <course>343.12</course>
  <speed>25.22</speed>
  <fix>3d</fix>
</trkpt>
<trkpt lat="-27.2670124" lon="151.2874994">
  <ele>485.95</ele>
  <time>2026-09-01T19:56:12Z</time>
  <course>343.61</course>
  <speed>25.174673781401815</speed>
  <fix>3d</fix>
</trkpt>
<trkpt lat="-27.2670523" lon="151.2875128">
  <ele>485.05</ele>
  <time>2026-09-01T19:56:12Z</time>
  <course>343.12</course>
  <speed>25.21</speed>
  <fix>3d</fix>
</trkpt>
<trkpt lat="-27.2669906" lon="151.2874919">
  <ele>486.34</ele>
  <time>2026-09-01T19:56:12Z</time>
  <course>343.68</course>
  <speed>25.187147516144023</speed>
  <fix>3d</fix>
</trkpt>
<trkpt lat="-27.2670523" lon="151.2875128">
  <ele>485.05</ele>
  <time>2026-09-01T19:56:12Z</time>
  <course>343.12</course>
  <speed>25.21</speed>
  <fix>3d</fix>
</trkpt>
<trkpt lat="-27.2669688" lon="151.2874844">
  <ele>486.73</ele>
  <time>2026-09-01T19:56:12Z</time>
  <course>343.79</course>
  <speed>25.206284930548573</speed>
  <fix>3d</fix>
</trkpt>
<trkpt lat="-27.267009" lon="151.2874981">
  <ele>485.84</ele>
  <time>2026-09-01T19:56:12Z</time>
  <course>343.1</course>
  <speed>25.21</speed>
  <fix>3d</fix>
</trkpt>
<trkpt lat="-27.2669468" lon="151.2874769">
  <ele>487.13</ele>
  <time>2026-09-01T19:56:12Z</time>
  <course>343.78</course>
  <speed>25.206284930548573</speed>
  <fix>3d</fix>
</trkpt>
<trkpt lat="-27.267009" lon="151.2874981">
  <ele>485.84</ele>
  <time>2026-09-01T19:56:12Z</time>
  <course>343.1</course>
  <speed>25.21</speed>
  <fix>3d</fix>
</trkpt>
<trkpt lat="-27.2669249" lon="151.2874694">
  <ele>487.52</ele>
  <time>2026-09-01T19:56:12Z</time>
  <course>343.7</course>
  <speed>25.215854139806567</speed>
  <fix>3d</fix>
</trkpt>
<trkpt lat="-27.2669656" lon="151.2874833">
  <ele>486.63</ele>
  <time>2026-09-01T19:56:12Z</time>
  <course>343.1</course>
  <speed>25.21</speed>
  <fix>3d</fix>
</trkpt>
<trkpt lat="-27.2669031" lon="151.287462">
  <ele>487.91</ele>
  <time>2026-09-01T19:56:12Z</time>
  <course>343.64</course>
  <speed>25.225423683260505</speed>
  <fix>3d</fix>
</trkpt>
<trkpt lat="-27.2669656" lon="151.2874833">
  <ele>486.63</ele>
  <time>2026-09-01T19:56:12Z</time>
  <course>343.1</course>
  <speed>25.21</speed>
  <fix>3d</fix>
</trkpt>
<trkpt lat="-27.2668813" lon="151.2874545">
  <ele>488.3</ele>
  <time>2026-09-01T19:56:12Z</time>
  <course>343.59</course>
  <speed>25.23499356053019</speed>
  <fix>3d</fix>
</trkpt>
<trkpt lat="-27.2669223" lon="151.2874685">
  <ele>487.41</ele>
  <time>2026-09-01T19:56:12Z</time>
  <course>343.11</course>
  <speed>25.21</speed>
  <fix>3d</fix>
</trkpt>
<trkpt lat="-27.2668595" lon="151.2874471">
  <ele>488.69</ele>
  <time>2026-09-01T19:56:12Z</time>
  <course>343.57</course>
  <speed>25.23499356053019</speed>
  <fix>3d</fix>
</trkpt>
<trkpt lat="-27.2669223" lon="151.2874685">
  <ele>487.41</ele>
  <time>2026-09-01T19:56:12Z</time>
  <course>343.11</course>
  <speed>25.21</speed>
  <fix>3d</fix>
</trkpt>
<trkpt lat="-27.2668378" lon="151.2874397">
  <ele>489.08</ele>
  <time>2026-09-01T19:56:12Z</time>
  <course>343.57</course>
  <speed>25.228327332583902</speed>
  <fix>3d</fix>
</trkpt>
<trkpt lat="-27.2668789" lon="151.2874537">
  <ele>488.2</ele>
  <time>2026-09-01T19:56:12Z</time>
  <course>343.12</course>
  <speed>25.21</speed>
  <fix>3d</fix>
</trkpt>
<trkpt lat="-27.2668161" lon="151.2874323">
  <ele>489.48</ele>
  <time>2026-09-01T19:56:12Z</time>
  <course>343.62</course>
  <speed>25.228327332583902</speed>
  <fix>3d</fix>
</trkpt>
<trkpt lat="-27.2668789" lon="151.2874537">
  <ele>488.2</ele>
  <time>2026-09-01T19:56:12Z</time>
  <course>343.12</course>
  <speed>25.21</speed>
  <fix>3d</fix>
</trkpt>
<trkpt lat="-27.266795" lon="151.2874251">
  <ele>489.87</ele>
  <time>2026-09-01T19:56:12Z</time>
  <course>343.68</course>
  <speed>25.20919078431515</speed>
  <fix>3d</fix>
</trkpt>
<trkpt lat="-27.2668356" lon="151.2874388">
  <ele>488.99</ele>
  <time>2026-09-01T19:56:12Z</time>
  <course>343.1</course>
  <speed>25.2</speed>
  <fix>3d</fix>
</trkpt>
<trkpt lat="-27.2667736" lon="151.2874177">
  <ele>490.27</ele>
  <time>2026-09-01T19:56:12Z</time>
  <course>343.69</course>
  <speed>25.20919078431515</speed>
  <fix>3d</fix>
</trkpt>
<trkpt lat="-27.2668356" lon="151.2874388">
  <ele>488.99</ele>
  <time>2026-09-01T19:56:12Z</time>
  <course>343.1</course>
  <speed>25.2</speed>
  <fix>3d</fix>
</trkpt>
<trkpt lat="-27.2667519" lon="151.2874103">
  <ele>490.66</ele>
  <time>2026-09-01T19:56:12Z</time>
  <course>343.61</course>
  <speed>25.21210026951345</speed>
  <fix>3d</fix>
</trkpt>
<trkpt lat="-27.2667923" lon="151.2874241">
  <ele>489.79</ele>
  <time>2026-09-01T19:56:12Z</time>
  <course>343.09</course>
  <speed>25.2</speed>
  <fix>3d</fix>
</trkpt>
<trkpt lat="-27.2667302" lon="151.2874029">
  <ele>491.06</ele>
  <time>2026-09-01T19:56:12Z</time>
  <course>343.63</course>
  <speed>25.21210026951345</speed>
  <fix>3d</fix>
</trkpt>
<trkpt lat="-27.2667923" lon="151.2874241">
  <ele>489.79</ele>
  <time>2026-09-01T19:56:12Z</time>
  <course>343.09</course>
  <speed>25.2</speed>
  <fix>3d</fix>
</trkpt>
<trkpt lat="-27.2667084" lon="151.2873954">
  <ele>491.45</ele>
  <time>2026-09-01T19:56:12Z</time>
  <course>343.71</course>
  <speed>25.221667272406876</speed>
  <fix>3d</fix>
</trkpt>
<trkpt lat="-27.266749" lon="151.2874092">
  <ele>490.58</ele>
  <time>2026-09-01T19:56:12Z</time>
  <course>343.08</course>
  <speed>25.19</speed>
  <fix>3d</fix>
</trkpt>
<trkpt lat="-27.2666865" lon="151.2873879">
  <ele>491.86</ele>
  <time>2026-09-01T19:56:12Z</time>
  <course>343.73</course>
  <speed>25.221667272406876</speed>
  <fix>3d</fix>
</trkpt>
<trkpt lat="-27.266749" lon="151.2874092">
  <ele>490.58</ele>
  <time>2026-09-01T19:56:12Z</time>
  <course>343.08</course>
  <speed>25.19</speed>
  <fix>3d</fix>
</trkpt>
<trkpt lat="-27.2666647" lon="151.2873804">
  <ele>492.25</ele>
  <time>2026-09-01T19:56:12Z</time>
  <course>343.74</course>
  <speed>25.240802285188956</speed>
  <fix>3d</fix>
</trkpt>
<trkpt lat="-27.2667056" lon="151.2873944">
  <ele>491.38</ele>
  <time>2026-09-01T19:56:12Z</time>
  <course>343.07</course>
  <speed>25.19</speed>
  <fix>3d</fix>
</trkpt>
<trkpt lat="-27.2666429" lon="151.287373">
  <ele>492.65</ele>
  <time>2026-09-01T19:56:12Z</time>
  <course>343.74</course>
  <speed>25.23789610882809</speed>
  <fix>3d</fix>
</trkpt>
<trkpt lat="-27.2667056" lon="151.2873944">
  <ele>491.38</ele>
  <time>2026-09-01T19:56:12Z</time>
  <course>343.07</course>
  <speed>25.19</speed>
  <fix>3d</fix>
</trkpt>
<trkpt lat="-27.2666203" lon="151.2873653">
  <ele>493.06</ele>
  <time>2026-09-01T19:56:12Z</time>
  <course>343.74</course>
  <speed>25.23789610882809</speed>
  <fix>3d</fix>
</trkpt>
<trkpt lat="-27.2666623" lon="151.2873796">
  <ele>492.18</ele>
  <time>2026-09-01T19:56:12Z</time>
  <course>343.09</course>
  <speed>25.19</speed>
  <fix>3d</fix>
</trkpt>
<trkpt lat="-27.2665986" lon="151.2873578">
  <ele>493.46</ele>
  <time>2026-09-01T19:56:12Z</time>
  <course>343.72</course>
  <speed>25.23789610882809</speed>
  <fix>3d</fix>
</trkpt>
<trkpt lat="-27.2666623" lon="151.2873796">
  <ele>492.18</ele>
  <time>2026-09-01T19:56:12Z</time>
  <course>343.09</course>
  <speed>25.19</speed>
  <fix>3d</fix>
</trkpt>
<trkpt lat="-27.2665771" lon="151.2873505">
  <ele>493.85</ele>
  <time>2026-09-01T19:56:12Z</time>
  <course>343.61</course>
  <speed>25.23499356053019</speed>
  <fix>3d</fix>
</trkpt>
<trkpt lat="-27.266619" lon="151.2873648">
  <ele>492.97</ele>
  <time>2026-09-01T19:56:12Z</time>
  <course>343.11</course>
  <speed>25.18</speed>
  <fix>3d</fix>
</trkpt>
<trkpt lat="-27.2665554" lon="151.2873431">
  <ele>494.25</ele>
  <time>2026-09-01T19:56:12Z</time>
  <course>343.61</course>
  <speed>25.228327332583902</speed>
  <fix>3d</fix>
</trkpt>
<trkpt lat="-27.266619" lon="151.2873648">
  <ele>492.97</ele>
  <time>2026-09-01T19:56:12Z</time>
  <course>343.11</course>
  <speed>25.18</speed>
  <fix>3d</fix>
</trkpt>
<trkpt lat="-27.2665339" lon="151.2873357">
  <ele>494.65</ele>
  <time>2026-09-01T19:56:12Z</time>
  <course>343.68</course>
  <speed>25.228327332583902</speed>
  <fix>3d</fix>
</trkpt>
<trkpt lat="-27.2665757" lon="151.28735">
  <ele>493.78</ele>
  <time>2026-09-01T19:56:12Z</time>
  <course>343.13</course>
  <speed>25.17</speed>
  <fix>3d</fix>
</trkpt>
<trkpt lat="-27.2665123" lon="151.2873284">
  <ele>495.05</ele>
  <time>2026-09-01T19:56:12Z</time>
  <course>343.76</course>
  <speed>25.225423683260505</speed>
  <fix>3d</fix>
</trkpt>
<trkpt lat="-27.2665757" lon="151.28735">
  <ele>493.78</ele>
  <time>2026-09-01T19:56:12Z</time>
  <course>343.13</course>
  <speed>25.17</speed>
  <fix>3d</fix>
</trkpt>
<trkpt lat="-27.2664905" lon="151.287321">
  <ele>495.45</ele>
  <time>2026-09-01T19:56:12Z</time>
  <course>343.71</course>
  <speed>25.212953020223555</speed>
  <fix>3d</fix>
</trkpt>
<trkpt lat="-27.2665324" lon="151.2873353">
  <ele>494.57</ele>
  <time>2026-09-01T19:56:12Z</time>
  <course>343.13</course>
  <speed>25.17</speed>
  <fix>3d</fix>
</trkpt>
<trkpt lat="-27.266469" lon="151.2873136">
  <ele>495.84</ele>
  <time>2026-09-01T19:56:12Z</time>
  <course>343.72</course>
  <speed>25.215854139806567</speed>
  <fix>3d</fix>
</trkpt>
<trkpt lat="-27.2665324" lon="151.2873353">
  <ele>494.57</ele>
  <time>2026-09-01T19:56:12Z</time>
  <course>343.13</course>
  <speed>25.17</speed>
  <fix>3d</fix>
</trkpt>
<trkpt lat="-27.2664475" lon="151.2873063">
  <ele>496.24</ele>
  <time>2026-09-01T19:56:12Z</time>
  <course>343.7</course>
  <speed>25.225423683260505</speed>
  <fix>3d</fix>
</trkpt>
<trkpt lat="-27.2664892" lon="151.2873205">
  <ele>495.36</ele>
  <time>2026-09-01T19:56:12Z</time>
  <course>343.13</course>
  <speed>25.18</speed>
  <fix>3d</fix>
</trkpt>
<trkpt lat="-27.266426" lon="151.2872989">
  <ele>496.63</ele>
  <time>2026-09-01T19:56:12Z</time>
  <course>343.69</course>
  <speed>25.212953020223555</speed>
  <fix>3d</fix>
</trkpt>
<trkpt lat="-27.2664892" lon="151.2873205">
  <ele>495.36</ele>
  <time>2026-09-01T19:56:12Z</time>
  <course>343.13</course>
  <speed>25.18</speed>
  <fix>3d</fix>
</trkpt>
<trkpt lat="-27.2664046" lon="151.2872916">
  <ele>497.02</ele>
  <time>2026-09-01T19:56:12Z</time>
  <course>343.76</course>
  <speed>25.203382709469775</speed>
  <fix>3d</fix>
</trkpt>
<trkpt lat="-27.2664459" lon="151.2873058">
  <ele>496.15</ele>
  <time>2026-09-01T19:56:12Z</time>
  <course>343.13</course>
  <speed>25.18</speed>
  <fix>3d</fix>
</trkpt>
<trkpt lat="-27.2663831" lon="151.2872843">
  <ele>497.41</ele>
  <time>2026-09-01T19:56:12Z</time>
  <course>343.75</course>
  <speed>25.188016992212784</speed>
  <fix>3d</fix>
</trkpt>
<trkpt lat="-27.2664459" lon="151.2873058">
  <ele>496.15</ele>
  <time>2026-09-01T19:56:12Z</time>
  <course>343.13</course>
  <speed>25.18</speed>
  <fix>3d</fix>
</trkpt>
<trkpt lat="-27.2663616" lon="151.287277">
  <ele>497.8</ele>
  <time>2026-09-01T19:56:12Z</time>
  <course>343.65</course>
  <speed>25.188016992212784</speed>
  <fix>3d</fix>
</trkpt>
<trkpt lat="-27.2664026" lon="151.287291">
  <ele>496.93</ele>
  <time>2026-09-01T19:56:12Z</time>
  <course>343.14</course>
  <speed>25.19</speed>
  <fix>3d</fix>
</trkpt>
<trkpt lat="-27.2663401" lon="151.2872697">
  <ele>498.19</ele>
  <time>2026-09-01T19:56:12Z</time>
  <course>343.65</course>
  <speed>25.17844514659315</speed>
  <fix>3d</fix>
</trkpt>
<trkpt lat="-27.2664026" lon="151.287291">
  <ele>496.93</ele>
  <time>2026-09-01T19:56:12Z</time>
  <course>343.14</course>
  <speed>25.19</speed>
  <fix>3d</fix>
</trkpt>
<trkpt lat="-27.2663185" lon="151.2872623">
  <ele>498.58</ele>
  <time>2026-09-01T19:56:12Z</time>
  <course>343.63</course>
  <speed>25.17844514659315</speed>
  <fix>3d</fix>
</trkpt>
<trkpt lat="-27.2663593" lon="151.2872762">
  <ele>497.71</ele>
  <time>2026-09-01T19:56:12Z</time>
  <course>343.16</course>
  <speed>25.19</speed>
  <fix>3d</fix>
</trkpt>
<trkpt lat="-27.2662969" lon="151.287255">
  <ele>498.97</ele>
  <time>2026-09-01T19:56:12Z</time>
  <course>343.63</course>
  <speed>25.17844514659315</speed>
  <fix>3d</fix>
</trkpt>
<trkpt lat="-27.2663593" lon="151.2872762">
  <ele>497.71</ele>
  <time>2026-09-01T19:56:12Z</time>
  <course>343.16</course>
  <speed>25.19</speed>
  <fix>3d</fix>
</trkpt>
<trkpt lat="-27.2662752" lon="151.2872476">
  <ele>499.36</ele>
  <time>2026-09-01T19:56:12Z</time>
  <course>343.72</course>
  <speed>25.17844514659315</speed>
  <fix>3d</fix>
</trkpt>
<trkpt lat="-27.266316" lon="151.2872615">
  <ele>498.5</ele>
  <time>2026-09-01T19:56:12Z</time>
  <course>343.15</course>
  <speed>25.19</speed>
  <fix>3d</fix>
</trkpt>
<trkpt lat="-27.2662536" lon="151.2872402">
  <ele>499.75</ele>
  <time>2026-09-01T19:56:12Z</time>
  <course>343.74</course>
  <speed>25.188016992212784</speed>
  <fix>3d</fix>
</trkpt>
<trkpt lat="-27.266316" lon="151.2872615">
  <ele>498.5</ele>
  <time>2026-09-01T19:56:12Z</time>
  <course>343.15</course>
  <speed>25.19</speed>
  <fix>3d</fix>
</trkpt>
<trkpt lat="-27.2662319" lon="151.2872329">
  <ele>500.14</ele>
  <time>2026-09-01T19:56:12Z</time>
  <course>343.67</course>
  <speed>25.197589170394853</speed>
  <fix>3d</fix>
</trkpt>
<trkpt lat="-27.2662726" lon="151.2872467">
  <ele>499.28</ele>
  <time>2026-09-01T19:56:12Z</time>
  <course>343.15</course>
  <speed>25.2</speed>
  <fix>3d</fix>
</trkpt>
<trkpt lat="-27.2662102" lon="151.2872255">
  <ele>500.52</ele>
  <time>2026-09-01T19:56:12Z</time>
  <course>343.69</course>
  <speed>25.21005553345728</speed>
  <fix>3d</fix>
</trkpt>
<trkpt lat="-27.2662726" lon="151.2872467">
  <ele>499.28</ele>
  <time>2026-09-01T19:56:12Z</time>
  <course>343.15</course>
  <speed>25.2</speed>
  <fix>3d</fix>
</trkpt>
<trkpt lat="-27.2661891" lon="151.2872183">
  <ele>500.9</ele>
  <time>2026-09-01T19:56:12Z</time>
  <course>343.7</course>
  <speed>25.21005553345728</speed>
  <fix>3d</fix>
</trkpt>
<trkpt lat="-27.2662292" lon="151.2872319">
  <ele>500.06</ele>
  <time>2026-09-01T19:56:12Z</time>
  <course>343.15</course>
  <speed>25.22</speed>
  <fix>3d</fix>
</trkpt>
<trkpt lat="-27.2661666" lon="151.2872107">
  <ele>501.3</ele>
  <time>2026-09-01T19:56:12Z</time>
  <course>343.62</course>
  <speed>25.219627277182347</speed>
  <fix>3d</fix>
</trkpt>
<trkpt lat="-27.2662292" lon="151.2872319">
  <ele>500.06</ele>
  <time>2026-09-01T19:56:12Z</time>
  <course>343.15</course>
  <speed>25.22</speed>
  <fix>3d</fix>
</trkpt>
<trkpt lat="-27.2661452" lon="151.2872034">
  <ele>501.68</ele>
  <time>2026-09-01T19:56:12Z</time>
  <course>343.66</course>
  <speed>25.219627277182347</speed>
  <fix>3d</fix>
</trkpt>
<trkpt lat="-27.2661858" lon="151.2872171">
  <ele>500.83</ele>
  <time>2026-09-01T19:56:12Z</time>
  <course>343.16</course>
  <speed>25.23</speed>
  <fix>3d</fix>
</trkpt>
<trkpt lat="-27.2661236" lon="151.287196">
  <ele>502.07</ele>
  <time>2026-09-01T19:56:12Z</time>
  <course>343.62</course>
  <speed>25.219627277182347</speed>
  <fix>3d</fix>
</trkpt>
<trkpt lat="-27.2661858" lon="151.2872171">
  <ele>500.83</ele>
  <time>2026-09-01T19:56:12Z</time>
  <course>343.16</course>
  <speed>25.23</speed>
  <fix>3d</fix>
</trkpt>
<trkpt lat="-27.2661021" lon="151.2871887">
  <ele>502.47</ele>
  <time>2026-09-01T19:56:12Z</time>
  <course>343.63</course>
  <speed>25.212953020223555</speed>
  <fix>3d</fix>
</trkpt>
<trkpt lat="-27.2661424" lon="151.2872024">
  <ele>501.61</ele>
  <time>2026-09-01T19:56:12Z</time>
  <course>343.16</course>
  <speed>25.24</speed>
  <fix>3d</fix>
</trkpt>
<trkpt lat="-27.2660805" lon="151.2871813">
  <ele>502.86</ele>
  <time>2026-09-01T19:56:12Z</time>
  <course>343.73</course>
  <speed>25.212953020223555</speed>
  <fix>3d</fix>
</trkpt>
<trkpt lat="-27.2661424" lon="151.2872024">
  <ele>501.61</ele>
  <time>2026-09-01T19:56:12Z</time>
  <course>343.16</course>
  <speed>25.24</speed>
  <fix>3d</fix>
</trkpt>
<trkpt lat="-27.266059" lon="151.287174">
  <ele>503.25</ele>
  <time>2026-09-01T19:56:12Z</time>
  <course>343.72</course>
  <speed>25.20048412233384</speed>
  <fix>3d</fix>
</trkpt>
<trkpt lat="-27.2660989" lon="151.2871876">
  <ele>502.39</ele>
  <time>2026-09-01T19:56:12Z</time>
  <course>343.15</course>
  <speed>25.24</speed>
  <fix>3d</fix>
</trkpt>
<trkpt lat="-27.2660373" lon="151.2871666">
  <ele>503.65</ele>
  <time>2026-09-01T19:56:12Z</time>
  <course>343.56</course>
  <speed>25.190913044191152</speed>
  <fix>3d</fix>
</trkpt>
<trkpt lat="-27.2660989" lon="151.2871876">
  <ele>502.39</ele>
  <time>2026-09-01T19:56:12Z</time>
  <course>343.15</course>
  <speed>25.24</speed>
  <fix>3d</fix>
</trkpt>
<trkpt lat="-27.2660158" lon="151.2871593">
  <ele>504.04</ele>
  <time>2026-09-01T19:56:12Z</time>
  <course>343.5</course>
  <speed>25.184243089678116</speed>
  <fix>3d</fix>
</trkpt>
<trkpt lat="-27.2660556" lon="151.2871728">
  <ele>503.17</ele>
  <time>2026-09-01T19:56:12Z</time>
  <course>343.16</course>
  <speed>25.25</speed>
  <fix>3d</fix>
</trkpt>
<trkpt lat="-27.2659942" lon="151.2871519">
  <ele>504.43</ele>
  <time>2026-09-01T19:56:12Z</time>
  <course>343.56</course>
  <speed>25.187147516144023</speed>
  <fix>3d</fix>
</trkpt>
<trkpt lat="-27.2660556" lon="151.2871728">
  <ele>503.17</ele>
  <time>2026-09-01T19:56:12Z</time>
  <course>343.16</course>
  <speed>25.25</speed>
  <fix>3d</fix>
</trkpt>
<trkpt lat="-27.2659727" lon="151.2871446">
  <ele>504.82</ele>
  <time>2026-09-01T19:56:12Z</time>
  <course>343.66</course>
  <speed>25.187147516144023</speed>
  <fix>3d</fix>
</trkpt>
<trkpt lat="-27.2660122" lon="151.2871581">
  <ele>503.96</ele>
  <time>2026-09-01T19:56:12Z</time>
  <course>343.14</course>
  <speed>25.25</speed>
  <fix>3d</fix>
</trkpt>
<trkpt lat="-27.2659512" lon="151.2871372">
  <ele>505.2</ele>
  <time>2026-09-01T19:56:12Z</time>
  <course>343.54</course>
  <speed>25.187147516144023</speed>
  <fix>3d</fix>
</trkpt>
<trkpt lat="-27.2660122" lon="151.2871581">
  <ele>503.96</ele>
  <time>2026-09-01T19:56:12Z</time>
  <course>343.14</course>
  <speed>25.25</speed>
  <fix>3d</fix>
</trkpt>
<trkpt lat="-27.2659295" lon="151.2871298">
  <ele>505.6</ele>
  <time>2026-09-01T19:56:12Z</time>
  <course>343.49</course>
  <speed>25.187147516144023</speed>
  <fix>3d</fix>
</trkpt>
<trkpt lat="-27.2659687" lon="151.2871432">
  <ele>504.75</ele>
  <time>2026-09-01T19:56:12Z</time>
  <course>343.11</course>
  <speed>25.25</speed>
  <fix>3d</fix>
</trkpt>
<trkpt lat="-27.2659078" lon="151.2871224">
  <ele>505.99</ele>
  <time>2026-09-01T19:56:12Z</time>
  <course>343.49</course>
  <speed>25.19005557754885</speed>
  <fix>3d</fix>
</trkpt>
<trkpt lat="-27.2659687" lon="151.2871432">
  <ele>504.75</ele>
  <time>2026-09-01T19:56:12Z</time>
  <course>343.11</course>
  <speed>25.25</speed>
  <fix>3d</fix>
</trkpt>
<trkpt lat="-27.265886" lon="151.2871149">
  <ele>506.38</ele>
  <time>2026-09-01T19:56:12Z</time>
  <course>343.58</course>
  <speed>25.192967272633847</speed>
  <fix>3d</fix>
</trkpt>
<trkpt lat="-27.2659254" lon="151.2871284">
  <ele>505.53</ele>
  <time>2026-09-01T19:56:12Z</time>
  <course>343.09</course>
  <speed>25.27</speed>
  <fix>3d</fix>
</trkpt>
<trkpt lat="-27.2658643" lon="151.2871075">
  <ele>506.77</ele>
  <time>2026-09-01T19:56:12Z</time>
  <course>343.73</course>
  <speed>25.20253360279478</speed>
  <fix>3d</fix>
</trkpt>
<trkpt lat="-27.2659254" lon="151.2871284">
  <ele>505.53</ele>
  <time>2026-09-01T19:56:12Z</time>
  <course>343.09</course>
  <speed>25.27</speed>
  <fix>3d</fix>
</trkpt>
<trkpt lat="-27.2658425" lon="151.2871">
  <ele>507.16</ele>
  <time>2026-09-01T19:56:12Z</time>
  <course>343.73</course>
  <speed>25.21210026951345</speed>
  <fix>3d</fix>
</trkpt>
<trkpt lat="-27.265882" lon="151.2871135">
  <ele>506.31</ele>
  <time>2026-09-01T19:56:12Z</time>
  <course>343.07</course>
  <speed>25.27</speed>
  <fix>3d</fix>
</trkpt>
<trkpt lat="-27.2658207" lon="151.2870926">
  <ele>507.55</ele>
  <time>2026-09-01T19:56:12Z</time>
  <course>343.64</course>
  <speed>25.228327332583902</speed>
  <fix>3d</fix>
</trkpt>
<trkpt lat="-27.265882" lon="151.2871135">
  <ele>506.31</ele>
  <time>2026-09-01T19:56:12Z</time>
  <course>343.07</course>
  <speed>25.27</speed>
  <fix>3d</fix>
</trkpt>
<trkpt lat="-27.2657989" lon="151.2870851">
  <ele>507.94</ele>
  <time>2026-09-01T19:56:12Z</time>
  <course>343.59</course>
  <speed>25.23789610882809</speed>
  <fix>3d</fix>
</trkpt>
<trkpt lat="-27.2658385" lon="151.2870987">
  <ele>507.09</ele>
  <time>2026-09-01T19:56:12Z</time>
  <course>343.08</course>
  <speed>25.28</speed>
  <fix>3d</fix>
</trkpt>
<trkpt lat="-27.2657771" lon="151.2870777">
  <ele>508.33</ele>
  <time>2026-09-01T19:56:12Z</time>
  <course>343.61</course>
  <speed>25.23789610882809</speed>
  <fix>3d</fix>
</trkpt>
<trkpt lat="-27.2658385" lon="151.2870987">
  <ele>507.09</ele>
  <time>2026-09-01T19:56:12Z</time>
  <course>343.08</course>
  <speed>25.28</speed>
  <fix>3d</fix>
</trkpt>
<trkpt lat="-27.2657552" lon="151.2870702">
  <ele>508.72</ele>
  <time>2026-09-01T19:56:12Z</time>
  <course>343.65</course>
  <speed>25.257034663633814</speed>
  <fix>3d</fix>
</trkpt>
<trkpt lat="-27.265795" lon="151.2870838">
  <ele>507.87</ele>
  <time>2026-09-01T19:56:12Z</time>
  <course>343.1</course>
  <speed>25.29</speed>
  <fix>3d</fix>
</trkpt>
<trkpt lat="-27.2657334" lon="151.2870628">
  <ele>509.12</ele>
  <time>2026-09-01T19:56:12Z</time>
  <course>343.6</course>
  <speed>25.2541343149988</speed>
  <fix>3d</fix>
</trkpt>
<trkpt lat="-27.265795" lon="151.2870838">
  <ele>507.87</ele>
  <time>2026-09-01T19:56:12Z</time>
  <course>343.1</course>
  <speed>25.29</speed>
  <fix>3d</fix>
</trkpt>
<trkpt lat="-27.2657116" lon="151.2870553">
  <ele>509.52</ele>
  <time>2026-09-01T19:56:12Z</time>
  <course>343.64</course>
  <speed>25.2541343149988</speed>
  <fix>3d</fix>
</trkpt>
<trkpt lat="-27.2657514" lon="151.2870689">
  <ele>508.65</ele>
  <time>2026-09-01T19:56:12Z</time>
  <course>343.13</course>
  <speed>25.29</speed>
  <fix>3d</fix>
</trkpt>
<trkpt lat="-27.2656897" lon="151.2870479">
  <ele>509.92</ele>
  <time>2026-09-01T19:56:12Z</time>
  <course>343.62</course>
  <speed>25.2541343149988</speed>
  <fix>3d</fix>
</trkpt>
<trkpt lat="-27.2657514" lon="151.2870689">
  <ele>508.65</ele>
  <time>2026-09-01T19:56:12Z</time>
  <course>343.13</course>
  <speed>25.29</speed>
  <fix>3d</fix>
</trkpt>
<trkpt lat="-27.2656679" lon="151.2870404">
  <ele>510.32</ele>
  <time>2026-09-01T19:56:12Z</time>
  <course>343.58</course>
  <speed>25.26370519144015</speed>
  <fix>3d</fix>
</trkpt>
<trkpt lat="-27.2657079" lon="151.287054">
  <ele>509.44</ele>
  <time>2026-09-01T19:56:12Z</time>
  <course>343.14</course>
  <speed>25.29</speed>
  <fix>3d</fix>
</trkpt>
<trkpt lat="-27.2656461" lon="151.287033">
  <ele>510.72</ele>
  <time>2026-09-01T19:56:12Z</time>
  <course>343.56</course>
  <speed>25.26660444143613</speed>
  <fix>3d</fix>
</trkpt>
<trkpt lat="-27.2657079" lon="151.287054">
  <ele>509.44</ele>
  <time>2026-09-01T19:56:12Z</time>
  <course>343.14</course>
  <speed>25.29</speed>
  <fix>3d</fix>
</trkpt>
<trkpt lat="-27.2656242" lon="151.2870255">
  <ele>511.12</ele>
  <time>2026-09-01T19:56:12Z</time>
  <course>343.54</course>
  <speed>25.269507316131033</speed>
  <fix>3d</fix>
</trkpt>
<trkpt lat="-27.2656645" lon="151.2870393">
  <ele>510.24</ele>
  <time>2026-09-01T19:56:12Z</time>
  <course>343.14</course>
  <speed>25.28</speed>
  <fix>3d</fix>
</trkpt>
<trkpt lat="-27.2656026" lon="151.2870182">
  <ele>511.52</ele>
  <time>2026-09-01T19:56:12Z</time>
  <course>343.48</course>
  <speed>25.272413814275833</speed>
  <fix>3d</fix>
</trkpt>
<trkpt lat="-27.2656645" lon="151.2870393">
  <ele>510.24</ele>
  <time>2026-09-01T19:56:12Z</time>
  <course>343.14</course>
  <speed>25.28</speed>
  <fix>3d</fix>
</trkpt>
<trkpt lat="-27.2655806" lon="151.2870106">
  <ele>511.93</ele>
  <time>2026-09-01T19:56:12Z</time>
  <course>343.5</course>
  <speed>25.265757459454882</speed>
  <fix>3d</fix>
</trkpt>
<trkpt lat="-27.265621" lon="151.2870244">
  <ele>511.03</ele>
  <time>2026-09-01T19:56:12Z</time>
  <course>343.13</course>
  <speed>25.28</speed>
  <fix>3d</fix>
</trkpt>
<trkpt lat="-27.2655589" lon="151.2870032">
  <ele>512.33</ele>
  <time>2026-09-01T19:56:12Z</time>
  <course>343.51</course>
  <speed>25.26867230386274</speed>
  <fix>3d</fix>
</trkpt>
<trkpt lat="-27.265621" lon="151.2870244">
  <ele>511.03</ele>
  <time>2026-09-01T19:56:12Z</time>
  <course>343.13</course>
  <speed>25.28</speed>
  <fix>3d</fix>
</trkpt>
<trkpt lat="-27.2655372" lon="151.2869957">
  <ele>512.73</ele>
  <time>2026-09-01T19:56:12Z</time>
  <course>343.5</course>
  <speed>25.26867230386274</speed>
  <fix>3d</fix>
</trkpt>
<trkpt lat="-27.2655776" lon="151.2870096">
  <ele>511.83</ele>
  <time>2026-09-01T19:56:12Z</time>
  <course>343.09</course>
  <speed>25.27</speed>
  <fix>3d</fix>
</trkpt>
<trkpt lat="-27.2655154" lon="151.2869883">
  <ele>513.12</ele>
  <time>2026-09-01T19:56:12Z</time>
  <course>343.47</course>
  <speed>25.26867230386274</speed>
  <fix>3d</fix>
</trkpt>
<trkpt lat="-27.2655776" lon="151.2870096">
  <ele>511.83</ele>
  <time>2026-09-01T19:56:12Z</time>
  <course>343.09</course>
  <speed>25.27</speed>
  <fix>3d</fix>
</trkpt>
<trkpt lat="-27.2654936" lon="151.2869808">
  <ele>513.52</ele>
  <time>2026-09-01T19:56:12Z</time>
  <course>343.49</course>
  <speed>25.26867230386274</speed>
  <fix>3d</fix>
</trkpt>
<trkpt lat="-27.2655342" lon="151.2869948">
  <ele>512.63</ele>
  <time>2026-09-01T19:56:12Z</time>
  <course>343.05</course>
  <speed>25.27</speed>
  <fix>3d</fix>
</trkpt>
<trkpt lat="-27.2654718" lon="151.2869733">
  <ele>513.92</ele>
  <time>2026-09-01T19:56:12Z</time>
  <course>343.49</course>
  <speed>25.271590769082977</speed>
  <fix>3d</fix>
</trkpt>
<trkpt lat="-27.2655342" lon="151.2869948">
  <ele>512.63</ele>
  <time>2026-09-01T19:56:12Z</time>
  <course>343.05</course>
  <speed>25.27</speed>
  <fix>3d</fix>
</trkpt>
<trkpt lat="-27.26545" lon="151.2869658">
  <ele>514.31</ele>
  <time>2026-09-01T19:56:12Z</time>
  <course>343.43</course>
  <speed>25.271590769082977</speed>
  <fix>3d</fix>
</trkpt>
<trkpt lat="-27.2654908" lon="151.2869799">
  <ele>513.42</ele>
  <time>2026-09-01T19:56:12Z</time>
  <course>343.04</course>
  <speed>25.26</speed>
  <fix>3d</fix>
</trkpt>
<trkpt lat="-27.2654283" lon="151.2869584">
  <ele>514.71</ele>
  <time>2026-09-01T19:56:12Z</time>
  <course>343.44</course>
  <speed>25.271590769082977</speed>
  <fix>3d</fix>
</trkpt>
<trkpt lat="-27.2654908" lon="151.2869799">
  <ele>513.42</ele>
  <time>2026-09-01T19:56:12Z</time>
  <course>343.04</course>
  <speed>25.26</speed>
  <fix>3d</fix>
</trkpt>
<trkpt lat="-27.2654065" lon="151.2869509">
  <ele>515.1</ele>
  <time>2026-09-01T19:56:12Z</time>
  <course>343.48</course>
  <speed>25.271590769082977</speed>
  <fix>3d</fix>
</trkpt>
<trkpt lat="-27.2654474" lon="151.286965">
  <ele>514.21</ele>
  <time>2026-09-01T19:56:12Z</time>
  <course>343.03</course>
  <speed>25.26</speed>
  <fix>3d</fix>
</trkpt>
<trkpt lat="-27.2653847" lon="151.2869434">
  <ele>515.5</ele>
  <time>2026-09-01T19:56:12Z</time>
  <course>343.5</course>
  <speed>25.281155036904465</speed>
  <fix>3d</fix>
</trkpt>
<trkpt lat="-27.2654474" lon="151.286965">
  <ele>514.21</ele>
  <time>2026-09-01T19:56:12Z</time>
  <course>343.03</course>
  <speed>25.26</speed>
  <fix>3d</fix>
</trkpt>
<trkpt lat="-27.265363" lon="151.286936">
  <ele>515.89</ele>
  <time>2026-09-01T19:56:12Z</time>
  <course>343.49</course>
  <speed>25.290719641797462</speed>
  <fix>3d</fix>
</trkpt>
<trkpt lat="-27.2654039" lon="151.2869501">
  <ele>515.01</ele>
  <time>2026-09-01T19:56:12Z</time>
  <course>343.02</course>
  <speed>25.26</speed>
  <fix>3d</fix>
</trkpt>
<trkpt lat="-27.2653413" lon="151.2869285">
  <ele>516.28</ele>
  <time>2026-09-01T19:56:12Z</time>
  <course>343.48</course>
  <speed>25.281155036904465</speed>
  <fix>3d</fix>
</trkpt>
<trkpt lat="-27.2654039" lon="151.2869501">
  <ele>515.01</ele>
  <time>2026-09-01T19:56:12Z</time>
  <course>343.02</course>
  <speed>25.26</speed>
  <fix>3d</fix>
</trkpt>
<trkpt lat="-27.2653196" lon="151.2869211">
  <ele>516.67</ele>
  <time>2026-09-01T19:56:12Z</time>
  <course>343.46</course>
  <speed>25.271590769082977</speed>
  <fix>3d</fix>
</trkpt>
<trkpt lat="-27.2653605" lon="151.2869352">
  <ele>515.8</ele>
  <time>2026-09-01T19:56:12Z</time>
  <course>343.03</course>
  <speed>25.26</speed>
  <fix>3d</fix>
</trkpt>
<trkpt lat="-27.265298" lon="151.2869137">
  <ele>517.07</ele>
  <time>2026-09-01T19:56:12Z</time>
  <course>343.47</course>
  <speed>25.259107268468533</speed>
  <fix>3d</fix>
</trkpt>
<trkpt lat="-27.2653605" lon="151.2869352">
  <ele>515.8</ele>
  <time>2026-09-01T19:56:12Z</time>
  <course>343.03</course>
  <speed>25.26</speed>
  <fix>3d</fix>
</trkpt>
<trkpt lat="-27.2652762" lon="151.2869062">
  <ele>517.47</ele>
  <time>2026-09-01T19:56:12Z</time>
  <course>343.55</course>
  <speed>25.259107268468533</speed>
  <fix>3d</fix>
</trkpt>
<trkpt lat="-27.2653169" lon="151.2869203">
  <ele>516.58</ele>
  <time>2026-09-01T19:56:12Z</time>
  <course>343.04</course>
  <speed>25.25</speed>
  <fix>3d</fix>
</trkpt>
<trkpt lat="-27.2652545" lon="151.2868987">
  <ele>517.87</ele>
  <time>2026-09-01T19:56:12Z</time>
  <course>343.61</course>
  <speed>25.26867230386274</speed>
  <fix>3d</fix>
</trkpt>
<trkpt lat="-27.2653169" lon="151.2869203">
  <ele>516.58</ele>
  <time>2026-09-01T19:56:12Z</time>
  <course>343.04</course>
  <speed>25.25</speed>
  <fix>3d</fix>
</trkpt>
<trkpt lat="-27.2652326" lon="151.2868913">
  <ele>518.26</ele>
  <time>2026-09-01T19:56:12Z</time>
  <course>343.89</course>
  <speed>25.26867230386274</speed>
  <fix>3d</fix>
</trkpt>
<trkpt lat="-27.2652736" lon="151.2869054">
  <ele>517.38</ele>
  <time>2026-09-01T19:56:12Z</time>
  <course>343.05</course>
  <speed>25.24</speed>
  <fix>3d</fix>
</trkpt>
<trkpt lat="-27.2652108" lon="151.2868838">
  <ele>518.66</ele>
  <time>2026-09-01T19:56:12Z</time>
  <course>344.44</course>
  <speed>25.27038187285661</speed>
  <fix>3d</fix>
</trkpt>
<trkpt lat="-27.2652736" lon="151.2869054">
  <ele>517.38</ele>
  <time>2026-09-01T19:56:12Z</time>
  <course>343.05</course>
  <speed>25.24</speed>
  <fix>3d</fix>
</trkpt>
<trkpt lat="-27.265189" lon="151.2868765">
  <ele>519.06</ele>
  <time>2026-09-01T19:56:12Z</time>
  <course>345.16</course>
  <speed>25.275347673177517</speed>
  <fix>3d</fix>
</trkpt>
<trkpt lat="-27.2652302" lon="151.2868905">
  <ele>518.18</ele>
  <time>2026-09-01T19:56:12Z</time>
  <course>343.11</course>
  <speed>25.24</speed>
  <fix>3d</fix>
</trkpt>
<trkpt lat="-27.2651671" lon="151.2868694">
  <ele>519.46</ele>
  <time>2026-09-01T19:56:12Z</time>
  <course>345.8</course>
  <speed>25.27170947917849</speed>
  <fix>3d</fix>
</trkpt>
<trkpt lat="-27.2652302" lon="151.2868905">
  <ele>518.18</ele>
  <time>2026-09-01T19:56:12Z</time>
  <course>343.11</course>
  <speed>25.24</speed>
  <fix>3d</fix>
</trkpt>
<trkpt lat="-27.2651453" lon="151.2868627">
  <ele>519.86</ele>
  <time>2026-09-01T19:56:12Z</time>
  <course>346.38</course>
  <speed>25.283909903335758</speed>
  <fix>3d</fix>
</trkpt>
<trkpt lat="-27.2651867" lon="151.2868758">
  <ele>518.98</ele>
  <time>2026-09-01T19:56:12Z</time>
  <course>343.68</course>
  <speed>25.24</speed>
  <fix>3d</fix>
</trkpt>
<trkpt lat="-27.2651231" lon="151.2868564">
  <ele>520.25</ele>
  <time>2026-09-01T19:56:12Z</time>
  <course>347.04</course>
  <speed>25.305471740317348</speed>
  <fix>3d</fix>
</trkpt>
<trkpt lat="-27.2651867" lon="151.2868758">
  <ele>518.98</ele>
  <time>2026-09-01T19:56:12Z</time>
  <course>343.68</course>
  <speed>25.24</speed>
  <fix>3d</fix>
</trkpt>
<trkpt lat="-27.2651008" lon="151.2868509">
  <ele>520.64</ele>
  <time>2026-09-01T19:56:12Z</time>
  <course>348.09</course>
  <speed>25.340570238256284</speed>
  <fix>3d</fix>
</trkpt>
<trkpt lat="-27.2651431" lon="151.2868621">
  <ele>519.79</ele>
  <time>2026-09-01T19:56:12Z</time>
  <course>345.37</course>
  <speed>25.24</speed>
  <fix>3d</fix>
</trkpt>
<trkpt lat="-27.2650784" lon="151.2868461">
  <ele>521.03</ele>
  <time>2026-09-01T19:56:12Z</time>
  <course>349.87</course>
  <speed>25.378278113378773</speed>
  <fix>3d</fix>
</trkpt>
<trkpt lat="-27.2651431" lon="151.2868621">
  <ele>519.79</ele>
  <time>2026-09-01T19:56:12Z</time>
  <course>345.37</course>
  <speed>25.24</speed>
  <fix>3d</fix>
</trkpt>
<trkpt lat="-27.2650555" lon="151.2868424">
  <ele>521.42</ele>
  <time>2026-09-01T19:56:12Z</time>
  <course>352.23</course>
  <speed>25.434741988076077</speed>
  <fix>3d</fix>
</trkpt>
<trkpt lat="-27.2650989" lon="151.2868505">
  <ele>520.57</ele>
  <time>2026-09-01T19:56:12Z</time>
  <course>348.47</course>
  <speed>25.29</speed>
  <fix>3d</fix>
</trkpt>
<trkpt lat="-27.2650327" lon="151.28684">
  <ele>521.83</ele>
  <time>2026-09-01T19:56:12Z</time>
  <course>355.12</course>
  <speed>25.461596572092645</speed>
  <fix>3d</fix>
</trkpt>
<trkpt lat="-27.2650989" lon="151.2868505">
  <ele>520.57</ele>
  <time>2026-09-01T19:56:12Z</time>
  <course>348.47</course>
  <speed>25.29</speed>
  <fix>3d</fix>
</trkpt>
<trkpt lat="-27.2650098" lon="151.2868389">
  <ele>522.25</ele>
  <time>2026-09-01T19:56:12Z</time>
  <course>358.35</course>
  <speed>25.462138559044877</speed>
  <fix>3d</fix>
</trkpt>
<trkpt lat="-27.265054" lon="151.2868423">
  <ele>521.36</ele>
  <time>2026-09-01T19:56:12Z</time>
  <course>353.11</course>
  <speed>25.36</speed>
  <fix>3d</fix>
</trkpt>
<trkpt lat="-27.2649869" lon="151.2868393">
  <ele>522.69</ele>
  <time>2026-09-01T19:56:12Z</time>
  <course>1.82</course>
  <speed>25.446911403940558</speed>
  <fix>3d</fix>
</trkpt>
<trkpt lat="-27.265054" lon="151.2868423">
  <ele>521.36</ele>
  <time>2026-09-01T19:56:12Z</time>
  <course>353.11</course>
  <speed>25.36</speed>
  <fix>3d</fix>
</trkpt>
<trkpt lat="-27.2649639" lon="151.2868413">
  <ele>523.17</ele>
  <time>2026-09-01T19:56:12Z</time>
  <course>5.32</course>
  <speed>25.406022907964164</speed>
  <fix>3d</fix>
</trkpt>
<trkpt lat="-27.2650085" lon="151.2868388">
  <ele>522.19</ele>
  <time>2026-09-01T19:56:12Z</time>
  <course>359.14</course>
  <speed>25.4</speed>
  <fix>3d</fix>
</trkpt>
<trkpt lat="-27.2649413" lon="151.2868448">
  <ele>523.67</ele>
  <time>2026-09-01T19:56:12Z</time>
  <course>8.66</course>
  <speed>25.352003865572442</speed>
  <fix>3d</fix>
</trkpt>
<trkpt lat="-27.2650085" lon="151.2868388">
  <ele>522.19</ele>
  <time>2026-09-01T19:56:12Z</time>
  <course>359.14</course>
  <speed>25.4</speed>
  <fix>3d</fix>
</trkpt>
<trkpt lat="-27.2649191" lon="151.2868496">
  <ele>524.2</ele>
  <time>2026-09-01T19:56:12Z</time>
  <course>12.0</course>
  <speed>25.29674287334241</speed>
  <fix>3d</fix>
</trkpt>
<trkpt lat="-27.264963" lon="151.2868409">
  <ele>523.11</ele>
  <time>2026-09-01T19:56:12Z</time>
  <course>5.9</course>
  <speed>25.36</speed>
  <fix>3d</fix>
</trkpt>
<trkpt lat="-27.2648972" lon="151.2868559">
  <ele>524.74</ele>
  <time>2026-09-01T19:56:12Z</time>
  <course>15.24</course>
  <speed>25.241616430014936</speed>
  <fix>3d</fix>
</trkpt>
<trkpt lat="-27.264963" lon="151.2868409">
  <ele>523.11</ele>
  <time>2026-09-01T19:56:12Z</time>
  <course>5.9</course>
  <speed>25.36</speed>
  <fix>3d</fix>
</trkpt>
<trkpt lat="-27.2648756" lon="151.2868636">
  <ele>525.3</ele>
  <time>2026-09-01T19:56:13Z</time>
  <course>18.4</course>
  <speed>25.20391437852462</speed>
  <fix>3d</fix>
</trkpt>
<trkpt lat="-27.2649182" lon="151.2868492">
  <ele>524.13</ele>
  <time>2026-09-01T19:56:13Z</time>
  <course>12.69</course>
  <speed>25.3</speed>
  <fix>3d</fix>
</trkpt>
<trkpt lat="-27.2648545" lon="151.2868726">
  <ele>525.87</ele>
  <time>2026-09-01T19:56:13Z</time>
  <course>21.67</course>
  <speed>25.170001986491776</speed>
  <fix>3d</fix>
</trkpt>
<trkpt lat="-27.2649182" lon="151.2868492">
  <ele>524.13</ele>
  <time>2026-09-01T19:56:13Z</time>
  <course>12.69</course>
  <speed>25.3</speed>
  <fix>3d</fix>
</trkpt>
<trkpt lat="-27.2648338" lon="151.286883">
  <ele>526.44</ele>
  <time>2026-09-01T19:56:13Z</time>
  <course>24.85</course>
  <speed>25.15744422631202</speed>
  <fix>3d</fix>
</trkpt>
<trkpt lat="-27.2648745" lon="151.2868633">
  <ele>525.22</ele>
  <time>2026-09-01T19:56:13Z</time>
  <course>19.26</course>
  <speed>25.25</speed>
  <fix>3d</fix>
</trkpt>
<trkpt lat="-27.2648137" lon="151.2868947">
  <ele>527.02</ele>
  <time>2026-09-01T19:56:13Z</time>
  <course>28.0</course>
  <speed>25.136925030719247</speed>
  <fix>3d</fix>
</trkpt>
<trkpt lat="-27.2648745" lon="151.2868633">
  <ele>525.22</ele>
  <time>2026-09-01T19:56:13Z</time>
  <course>19.26</course>
  <speed>25.25</speed>
  <fix>3d</fix>
</trkpt>
<trkpt lat="-27.2647942" lon="151.2869077">
  <ele>527.6</ele>
  <time>2026-09-01T19:56:13Z</time>
  <course>31.17</course>
  <speed>25.11734261421777</speed>
  <fix>3d</fix>
</trkpt>
<trkpt lat="-27.2648326" lon="151.2868829">
  <ele>526.35</ele>
  <time>2026-09-01T19:56:13Z</time>
  <course>25.76</course>
  <speed>25.21</speed>
  <fix>3d</fix>
</trkpt>
<trkpt lat="-27.2647755" lon="151.2869219">
  <ele>528.18</ele>
  <time>2026-09-01T19:56:13Z</time>
  <course>34.33</course>
  <speed>25.103722831484575</speed>
  <fix>3d</fix>
</trkpt>
<trkpt lat="-27.2648326" lon="151.2868829">
  <ele>526.35</ele>
  <time>2026-09-01T19:56:13Z</time>
  <course>25.76</course>
  <speed>25.21</speed>
  <fix>3d</fix>
</trkpt>
<trkpt lat="-27.2647574" lon="151.2869372">
  <ele>528.76</ele>
  <time>2026-09-01T19:56:13Z</time>
  <course>37.48</course>
  <speed>25.111354005708254</speed>
  <fix>3d</fix>
</trkpt>
<trkpt lat="-27.264793" lon="151.2869076">
  <ele>527.5</ele>
  <time>2026-09-01T19:56:13Z</time>
  <course>32.29</course>
  <speed>25.18</speed>
  <fix>3d</fix>
</trkpt>
<trkpt lat="-27.2647401" lon="151.2869537">
  <ele>529.34</ele>
  <time>2026-09-01T19:56:13Z</time>
  <course>40.62</course>
  <speed>25.107010973033013</speed>
  <fix>3d</fix>
</trkpt>
<trkpt lat="-27.264793" lon="151.2869076">
  <ele>527.5</ele>
  <time>2026-09-01T19:56:13Z</time>
  <course>32.29</course>
  <speed>25.18</speed>
  <fix>3d</fix>
</trkpt>
<trkpt lat="-27.2647236" lon="151.2869712">
  <ele>529.92</ele>
  <time>2026-09-01T19:56:13Z</time>
  <course>43.78</course>
  <speed>25.109585818965634</speed>
  <fix>3d</fix>
</trkpt>
<trkpt lat="-27.2647562" lon="151.2869371">
  <ele>528.65</ele>
  <time>2026-09-01T19:56:13Z</time>
  <course>38.76</course>
  <speed>25.16</speed>
  <fix>3d</fix>
</trkpt>
<trkpt lat="-27.2647082" lon="151.2869895">
  <ele>530.49</ele>
  <time>2026-09-01T19:56:13Z</time>
  <course>46.74</course>
  <speed>25.123751710284036</speed>
  <fix>3d</fix>
</trkpt>
<trkpt lat="-27.2647562" lon="151.2869371">
  <ele>528.65</ele>
  <time>2026-09-01T19:56:13Z</time>
  <course>38.76</course>
  <speed>25.16</speed>
  <fix>3d</fix>
</trkpt>
<trkpt lat="-27.2646936" lon="151.2870088">
  <ele>531.06</ele>
  <time>2026-09-01T19:56:13Z</time>
  <course>49.66</course>
  <speed>25.13616717003609</speed>
  <fix>3d</fix>
</trkpt>
<trkpt lat="-27.2647226" lon="151.2869711">
  <ele>529.8</ele>
  <time>2026-09-01T19:56:13Z</time>
  <course>45.12</course>
  <speed>25.17</speed>
  <fix>3d</fix>
</trkpt>
<trkpt lat="-27.2646799" lon="151.2870289">
  <ele>531.62</ele>
  <time>2026-09-01T19:56:13Z</time>
  <course>52.61</course>
  <speed>25.151417455085905</speed>
  <fix>3d</fix>
</trkpt>
<trkpt lat="-27.2647226" lon="151.2869711">
  <ele>529.8</ele>
  <time>2026-09-01T19:56:13Z</time>
  <course>45.12</course>
  <speed>25.17</speed>
  <fix>3d</fix>
</trkpt>
<trkpt lat="-27.2646672" lon="151.2870497">
  <ele>532.18</ele>
  <time>2026-09-01T19:56:13Z</time>
  <course>55.38</course>
  <speed>25.164459064323236</speed>
  <fix>3d</fix>
</trkpt>
<trkpt lat="-27.2646925" lon="151.287009">
  <ele>530.94</ele>
  <time>2026-09-01T19:56:13Z</time>
  <course>51.28</course>
  <speed>25.2</speed>
  <fix>3d</fix>
</trkpt>
<trkpt lat="-27.2646553" lon="151.2870715">
  <ele>532.74</ele>
  <time>2026-09-01T19:56:13Z</time>
  <course>58.15</course>
  <speed>25.200337299329945</speed>
  <fix>3d</fix>
</trkpt>
<trkpt lat="-27.2646925" lon="151.287009">
  <ele>530.94</ele>
  <time>2026-09-01T19:56:13Z</time>
  <course>51.28</course>
  <speed>25.2</speed>
  <fix>3d</fix>
</trkpt>
<trkpt lat="-27.2646444" lon="151.2870937">
  <ele>533.28</ele>
  <time>2026-09-01T19:56:13Z</time>
  <course>61.07</course>
  <speed>25.233170629153996</speed>
  <fix>3d</fix>
</trkpt>
<trkpt lat="-27.2646661" lon="151.2870504">
  <ele>532.05</ele>
  <time>2026-09-01T19:56:13Z</time>
  <course>57.14</course>
  <speed>25.26</speed>
  <fix>3d</fix>
</trkpt>
<trkpt lat="-27.2646345" lon="151.2871165">
  <ele>533.81</ele>
  <time>2026-09-01T19:56:13Z</time>
  <course>63.9</course>
  <speed>25.273484128627775</speed>
  <fix>3d</fix>
</trkpt>
<trkpt lat="-27.2646661" lon="151.2870504">
  <ele>532.05</ele>
  <time>2026-09-01T19:56:13Z</time>
  <course>57.14</course>
  <speed>25.26</speed>
  <fix>3d</fix>
</trkpt>
<trkpt lat="-27.2646256" lon="151.2871399">
  <ele>534.33</ele>
  <time>2026-09-01T19:56:13Z</time>
  <course>66.73</course>
  <speed>25.308800840814246</speed>
  <fix>3d</fix>
</trkpt>
<trkpt lat="-27.2646434" lon="151.2870947">
  <ele>533.12</ele>
  <time>2026-09-01T19:56:13Z</time>
  <course>62.84</course>
  <speed>25.33</speed>
  <fix>3d</fix>
</trkpt>
<trkpt lat="-27.2646178" lon="151.2871638">
  <ele>534.83</ele>
  <time>2026-09-01T19:56:13Z</time>
  <course>69.47</course>
  <speed>25.342695199997966</speed>
  <fix>3d</fix>
</trkpt>
<trkpt lat="-27.2646434" lon="151.2870947">
  <ele>533.12</ele>
  <time>2026-09-01T19:56:13Z</time>
  <course>62.84</course>
  <speed>25.33</speed>
  <fix>3d</fix>
</trkpt>
<trkpt lat="-27.2646109" lon="151.2871883">
  <ele>535.33</ele>
  <time>2026-09-01T19:56:13Z</time>
  <course>72.21</course>
  <speed>25.392479201527365</speed>
  <fix>3d</fix>
</trkpt>
<trkpt lat="-27.2646246" lon="151.2871414">
  <ele>534.15</ele>
  <time>2026-09-01T19:56:13Z</time>
  <course>68.5</course>
  <speed>25.42</speed>
  <fix>3d</fix>
</trkpt>
<trkpt lat="-27.2646051" lon="151.2872132">
  <ele>535.81</ele>
  <time>2026-09-01T19:56:13Z</time>
  <course>75.05</course>
  <speed>25.433163389558917</speed>
  <fix>3d</fix>
</trkpt>
<trkpt lat="-27.2646246" lon="151.2871414">
  <ele>534.15</ele>
  <time>2026-09-01T19:56:13Z</time>
  <course>68.5</course>
  <speed>25.42</speed>
  <fix>3d</fix>
</trkpt>
<trkpt lat="-27.2646003" lon="151.2872385">
  <ele>536.27</ele>
  <time>2026-09-01T19:56:13Z</time>
  <course>77.76</course>
  <speed>25.461659411750837</speed>
  <fix>3d</fix>
</trkpt>
<trkpt lat="-27.26461" lon="151.28719">
  <ele>535.14</ele>
  <time>2026-09-01T19:56:13Z</time>
  <course>74.12</course>
  <speed>25.5</speed>
  <fix>3d</fix>
</trkpt>
<trkpt lat="-27.2645967" lon="151.287264">
  <ele>536.72</ele>
  <time>2026-09-01T19:56:13Z</time>
  <course>80.57</course>
  <speed>25.500998019685426</speed>
  <fix>3d</fix>
</trkpt>
<trkpt lat="-27.26461" lon="151.28719">
  <ele>535.14</ele>
  <time>2026-09-01T19:56:13Z</time>
  <course>74.12</course>
  <speed>25.5</speed>
  <fix>3d</fix>
</trkpt>
<trkpt lat="-27.2645942" lon="151.2872899">
  <ele>537.16</ele>
  <time>2026-09-01T19:56:13Z</time>
  <course>83.46</course>
  <speed>25.51410982182212</speed>
  <fix>3d</fix>
</trkpt>
<trkpt lat="-27.2645996" lon="151.2872404">
  <ele>536.07</ele>
  <time>2026-09-01T19:56:13Z</time>
  <course>79.71</course>
  <speed>25.57</speed>
  <fix>3d</fix>
</trkpt>
<trkpt lat="-27.2645928" lon="151.2873159">
  <ele>537.59</ele>
  <time>2026-09-01T19:56:13Z</time>
  <course>86.29</course>
  <speed>25.542531197984275</speed>
  <fix>3d</fix>
</trkpt>
<trkpt lat="-27.2645996" lon="151.2872404">
  <ele>536.07</ele>
  <time>2026-09-01T19:56:13Z</time>
  <course>79.71</course>
  <speed>25.57</speed>
  <fix>3d</fix>
</trkpt>
<trkpt lat="-27.2645926" lon="151.2873417">
  <ele>538.01</ele>
  <time>2026-09-01T19:56:13Z</time>
  <course>89.09</course>
  <speed>25.533965614451663</speed>
  <fix>3d</fix>
</trkpt>
<trkpt lat="-27.2645936" lon="151.2872918">
  <ele>536.96</ele>
  <time>2026-09-01T19:56:13Z</time>
  <course>85.37</course>
  <speed>25.61</speed>
  <fix>3d</fix>
</trkpt>
<trkpt lat="-27.2645935" lon="151.2873673">
  <ele>538.41</ele>
  <time>2026-09-01T19:56:13Z</time>
  <course>91.82</course>
  <speed>25.535984414155646</speed>
  <fix>3d</fix>
</trkpt>
<trkpt lat="-27.2645936" lon="151.2872918">
  <ele>536.96</ele>
  <time>2026-09-01T19:56:13Z</time>
  <course>85.37</course>
  <speed>25.61</speed>
  <fix>3d</fix>
</trkpt>
<trkpt lat="-27.2645954" lon="151.2873929">
  <ele>538.8</ele>
  <time>2026-09-01T19:56:13Z</time>
  <course>94.55</course>
  <speed>25.524139554547183</speed>
  <fix>3d</fix>
</trkpt>
<trkpt lat="-27.2645922" lon="151.2873435">
  <ele>537.79</ele>
  <time>2026-09-01T19:56:13Z</time>
  <course>91.03</course>
  <speed>25.63</speed>
  <fix>3d</fix>
</trkpt>
<trkpt lat="-27.2645985" lon="151.2874184">
  <ele>539.17</ele>
  <time>2026-09-01T19:56:13Z</time>
  <course>97.25</course>
  <speed>25.519878526356663</speed>
  <fix>3d</fix>
</trkpt>
<trkpt lat="-27.2645922" lon="151.2873435">
  <ele>537.79</ele>
  <time>2026-09-01T19:56:13Z</time>
  <course>91.03</course>
  <speed>25.63</speed>
  <fix>3d</fix>
</trkpt>
<trkpt lat="-27.2646025" lon="151.2874437">
  <ele>539.53</ele>
  <time>2026-09-01T19:56:13Z</time>
  <course>99.9</course>
  <speed>25.510282240696593</speed>
  <fix>3d</fix>
</trkpt>
<trkpt lat="-27.2645952" lon="151.2873952">
  <ele>538.57</ele>
  <time>2026-09-01T19:56:13Z</time>
  <course>96.56</course>
  <speed>25.64</speed>
  <fix>3d</fix>
</trkpt>
<trkpt lat="-27.2646077" lon="151.2874687">
  <ele>539.87</ele>
  <time>2026-09-01T19:56:13Z</time>
  <course>102.57</course>
  <speed>25.494191495319086</speed>
  <fix>3d</fix>
</trkpt>
<trkpt lat="-27.2645952" lon="151.2873952">
  <ele>538.57</ele>
  <time>2026-09-01T19:56:13Z</time>
  <course>96.56</course>
  <speed>25.64</speed>
  <fix>3d</fix>
</trkpt>
<trkpt lat="-27.2646138" lon="151.2874931">
  <ele>540.19</ele>
  <time>2026-09-01T19:56:13Z</time>
  <course>105.17</course>
  <speed>25.484075419759687</speed>
  <fix>3d</fix>
</trkpt>
<trkpt lat="-27.2646026" lon="151.2874463">
  <ele>539.29</ele>
  <time>2026-09-01T19:56:13Z</time>
  <course>101.97</course>
  <speed>25.63</speed>
  <fix>3d</fix>
</trkpt>
<trkpt lat="-27.264621" lon="151.2875174">
  <ele>540.49</ele>
  <time>2026-09-01T19:56:13Z</time>
  <course>107.62</course>
  <speed>25.479609494652777</speed>
  <fix>3d</fix>
</trkpt>
<trkpt lat="-27.2646026" lon="151.2874463">
  <ele>539.29</ele>
  <time>2026-09-01T19:56:13Z</time>
  <course>101.97</course>
  <speed>25.63</speed>
  <fix>3d</fix>
</trkpt>
<trkpt lat="-27.2646291" lon="151.2875415">
  <ele>540.77</ele>
  <time>2026-09-01T19:56:13Z</time>
  <course>110.19</course>
  <speed>25.484132317973863</speed>
  <fix>3d</fix>
</trkpt>
<trkpt lat="-27.2646143" lon="151.2874964">
  <ele>539.95</ele>
  <time>2026-09-01T19:56:13Z</time>
  <course>107.27</course>
  <speed>25.62</speed>
  <fix>3d</fix>
</trkpt>
<trkpt lat="-27.2646383" lon="151.2875652">
  <ele>541.03</ele>
  <time>2026-09-01T19:56:13Z</time>
  <course>112.89</course>
  <speed>25.483084585661917</speed>
  <fix>3d</fix>
</trkpt>
<trkpt lat="-27.2646143" lon="151.2874964">
  <ele>539.95</ele>
  <time>2026-09-01T19:56:13Z</time>
  <course>107.27</course>
  <speed>25.62</speed>
  <fix>3d</fix>
</trkpt>
<trkpt lat="-27.2646484" lon="151.2875886">
  <ele>541.27</ele>
  <time>2026-09-01T19:56:13Z</time>
  <course>115.42</course>
  <speed>25.490865030437863</speed>
  <fix>3d</fix>
</trkpt>
<trkpt lat="-27.2646299" lon="151.2875451">
  <ele>540.53</ele>
  <time>2026-09-01T19:56:13Z</time>
  <course>112.47</course>
  <speed>25.62</speed>
  <fix>3d</fix>
</trkpt>
<trkpt lat="-27.2646595" lon="151.2876113">
  <ele>541.49</ele>
  <time>2026-09-01T19:56:13Z</time>
  <course>118.0</course>
  <speed>25.5059777307203</speed>
  <fix>3d</fix>
</trkpt>
<trkpt lat="-27.2646299" lon="151.2875451">
  <ele>540.53</ele>
  <time>2026-09-01T19:56:13Z</time>
  <course>112.47</course>
  <speed>25.62</speed>
  <fix>3d</fix>
</trkpt>
<trkpt lat="-27.2646715" lon="151.2876335">
  <ele>541.68</ele>
  <time>2026-09-01T19:56:13Z</time>
  <course>120.59</course>
  <speed>25.52496816844244</speed>
  <fix>3d</fix>
</trkpt>
<trkpt lat="-27.2646494" lon="151.2875919">
  <ele>541.03</ele>
  <time>2026-09-01T19:56:13Z</time>
  <course>117.64</course>
  <speed>25.63</speed>
  <fix>3d</fix>
</trkpt>
<trkpt lat="-27.2646843" lon="151.287655">
  <ele>541.86</ele>
  <time>2026-09-01T19:56:13Z</time>
  <course>123.23</course>
  <speed>25.536172383503366</speed>
  <fix>3d</fix>
</trkpt>
<trkpt lat="-27.2646494" lon="151.2875919">
  <ele>541.03</ele>
  <time>2026-09-01T19:56:13Z</time>
  <course>117.64</course>
  <speed>25.63</speed>
  <fix>3d</fix>
</trkpt>
<trkpt lat="-27.264698" lon="151.2876759">
  <ele>542.03</ele>
  <time>2026-09-01T19:56:13Z</time>
  <course>125.85</course>
  <speed>25.5452931085161</speed>
  <fix>3d</fix>
</trkpt>
<trkpt lat="-27.2646726" lon="151.2876367">
  <ele>541.45</ele>
  <time>2026-09-01T19:56:13Z</time>
  <course>122.84</course>
  <speed>25.64</speed>
  <fix>3d</fix>
</trkpt>
<trkpt lat="-27.2647126" lon="151.287696">
  <ele>542.18</ele>
  <time>2026-09-01T19:56:13Z</time>
  <course>128.49</course>
  <speed>25.557672037961517</speed>
  <fix>3d</fix>
</trkpt>
<trkpt lat="-27.2646726" lon="151.2876367">
  <ele>541.45</ele>
  <time>2026-09-01T19:56:13Z</time>
  <course>122.84</course>
  <speed>25.64</speed>
  <fix>3d</fix>
</trkpt>
<trkpt lat="-27.264728" lon="151.2877154">
  <ele>542.3</ele>
  <time>2026-09-01T19:56:13Z</time>
  <course>131.08</course>
  <speed>25.57352732807893</speed>
  <fix>3d</fix>
</trkpt>
<trkpt lat="-27.2646993" lon="151.2876789">
  <ele>541.81</ele>
  <time>2026-09-01T19:56:13Z</time>
  <course>128.07</course>
  <speed>25.65</speed>
  <fix>3d</fix>
</trkpt>
<trkpt lat="-27.2647441" lon="151.2877339">
  <ele>542.42</ele>
  <time>2026-09-01T19:56:13Z</time>
  <course>133.8</course>
  <speed>25.593594901849954</speed>
  <fix>3d</fix>
</trkpt>
<trkpt lat="-27.2646993" lon="151.2876789">
  <ele>541.81</ele>
  <time>2026-09-01T19:56:13Z</time>
  <course>128.07</course>
  <speed>25.65</speed>
  <fix>3d</fix>
</trkpt>
<trkpt lat="-27.264761" lon="151.2877517">
  <ele>542.51</ele>
  <time>2026-09-01T19:56:13Z</time>
  <course>136.5</course>
  <speed>25.605643909107226</speed>
  <fix>3d</fix>
</trkpt>
<trkpt lat="-27.2647295" lon="151.2877182">
  <ele>542.1</ele>
  <time>2026-09-01T19:56:13Z</time>
  <course>133.34</course>
  <speed>25.66</speed>
  <fix>3d</fix>
</trkpt>
<trkpt lat="-27.2647787" lon="151.2877685">
  <ele>542.6</ele>
  <time>2026-09-01T19:56:13Z</time>
  <course>139.14</course>
  <speed>25.631248506461795</speed>
  <fix>3d</fix>
</trkpt>
<trkpt lat="-27.2647295" lon="151.2877182">
  <ele>542.1</ele>
  <time>2026-09-01T19:56:13Z</time>
  <course>133.34</course>
  <speed>25.66</speed>
  <fix>3d</fix>
</trkpt>
<trkpt lat="-27.264797" lon="151.2877844">
  <ele>542.67</ele>
  <time>2026-09-01T19:56:13Z</time>
  <course>141.74</course>
  <speed>25.646498786384075</speed>
  <fix>3d</fix>
</trkpt>
<trkpt lat="-27.2647627" lon="151.2877543">
  <ele>542.32</ele>
  <time>2026-09-01T19:56:13Z</time>
  <course>138.66</course>
  <speed>25.67</speed>
  <fix>3d</fix>
</trkpt>
<trkpt lat="-27.264816" lon="151.2877993">
  <ele>542.73</ele>
  <time>2026-09-01T19:56:13Z</time>
  <course>144.35</course>
  <speed>25.65238780308765</speed>
  <fix>3d</fix>
</trkpt>
<trkpt lat="-27.2647627" lon="151.2877543">
  <ele>542.32</ele>
  <time>2026-09-01T19:56:13Z</time>
  <course>138.66</course>
  <speed>25.67</speed>
  <fix>3d</fix>
</trkpt>
<trkpt lat="-27.2648355" lon="151.2878132">
  <ele>542.77</ele>
  <time>2026-09-01T19:56:13Z</time>
  <course>147.04</course>
  <speed>25.663191539635125</speed>
  <fix>3d</fix>
</trkpt>
<trkpt lat="-27.2647987" lon="151.2877867">
  <ele>542.5</ele>
  <time>2026-09-01T19:56:13Z</time>
  <course>143.98</course>
  <speed>25.69</speed>
  <fix>3d</fix>
</trkpt>
<trkpt lat="-27.2648556" lon="151.2878261">
  <ele>542.81</ele>
  <time>2026-09-01T19:56:13Z</time>
  <course>149.67</course>
  <speed>25.670597967324408</speed>
  <fix>3d</fix>
</trkpt>
<trkpt lat="-27.2647987" lon="151.2877867">
  <ele>542.5</ele>
  <time>2026-09-01T19:56:13Z</time>
  <course>143.98</course>
  <speed>25.69</speed>
  <fix>3d</fix>
</trkpt>
<trkpt lat="-27.2648761" lon="151.2878378">
  <ele>542.84</ele>
  <time>2026-09-01T19:56:13Z</time>
  <course>152.25</course>
  <speed>25.665330701161828</speed>
  <fix>3d</fix>
</trkpt>
<trkpt lat="-27.2648372" lon="151.2878152">
  <ele>542.62</ele>
  <time>2026-09-01T19:56:13Z</time>
  <course>149.26</course>
  <speed>25.7</speed>
  <fix>3d</fix>
</trkpt>
<trkpt lat="-27.2648971" lon="151.2878485">
  <ele>542.86</ele>
  <time>2026-09-01T19:56:13Z</time>
  <course>154.72</course>
  <speed>25.662755113198582</speed>
  <fix>3d</fix>
</trkpt>
<trkpt lat="-27.2648372" lon="151.2878152">
  <ele>542.62</ele>
  <time>2026-09-01T19:56:13Z</time>
  <course>149.26</course>
  <speed>25.7</speed>
  <fix>3d</fix>
</trkpt>
<trkpt lat="-27.2649183" lon="151.2878582">
  <ele>542.87</ele>
  <time>2026-09-01T19:56:13Z</time>
  <course>157.24</course>
  <speed>25.65309532980377</speed>
  <fix>3d</fix>
</trkpt>
<trkpt lat="-27.2648779" lon="151.2878397">
  <ele>542.69</ele>
  <time>2026-09-01T19:56:13Z</time>
  <course>154.5</course>
  <speed>25.7</speed>
  <fix>3d</fix>
</trkpt>
<trkpt lat="-27.2649399" lon="151.2878668">
  <ele>542.88</ele>
  <time>2026-09-01T19:56:13Z</time>
  <course>159.65</course>
  <speed>25.634172504686006</speed>
  <fix>3d</fix>
</trkpt>
<trkpt lat="-27.2648779" lon="151.2878397">
  <ele>542.69</ele>
  <time>2026-09-01T19:56:13Z</time>
  <course>154.5</course>
  <speed>25.7</speed>
  <fix>3d</fix>
</trkpt>
<trkpt lat="-27.2649619" lon="151.2878744">
  <ele>542.87</ele>
  <time>2026-09-01T19:56:13Z</time>
  <course>161.91</course>
  <speed>25.626400449536412</speed>
  <fix>3d</fix>
</trkpt>
<trkpt lat="-27.2649204" lon="151.2878599">
  <ele>542.74</ele>
  <time>2026-09-01T19:56:13Z</time>
  <course>159.58</course>
  <speed>25.68</speed>
  <fix>3d</fix>
</trkpt>
<trkpt lat="-27.2649842" lon="151.2878809">
  <ele>542.85</ele>
  <time>2026-09-01T19:56:13Z</time>
  <course>164.13</course>
  <speed>25.623257013892673</speed>
  <fix>3d</fix>
</trkpt>
<trkpt lat="-27.2649204" lon="151.2878599">
  <ele>542.74</ele>
  <time>2026-09-01T19:56:13Z</time>
  <course>159.58</course>
  <speed>25.68</speed>
  <fix>3d</fix>
</trkpt>
<trkpt lat="-27.2650067" lon="151.2878865">
  <ele>542.83</ele>
  <time>2026-09-01T19:56:13Z</time>
  <course>166.26</course>
  <speed>25.603064269731465</speed>
  <fix>3d</fix>
</trkpt>
<trkpt lat="-27.2649643" lon="151.2878759">
  <ele>542.74</ele>
  <time>2026-09-01T19:56:13Z</time>
  <course>164.41</course>
  <speed>25.66</speed>
  <fix>3d</fix>
</trkpt>
<trkpt lat="-27.2650295" lon="151.2878911">
  <ele>542.79</ele>
  <time>2026-09-01T19:56:13Z</time>
  <course>168.31</course>
  <speed>25.577881069392753</speed>
  <fix>3d</fix>
</trkpt>
<trkpt lat="-27.2649643" lon="151.2878759">
  <ele>542.74</ele>
  <time>2026-09-01T19:56:13Z</time>
  <course>164.41</course>
  <speed>25.66</speed>
  <fix>3d</fix>
</trkpt>
<trkpt lat="-27.2650523" lon="151.2878948">
  <ele>542.74</ele>
  <time>2026-09-01T19:56:13Z</time>
  <course>170.2</course>
  <speed>25.552426499258345</speed>
  <fix>3d</fix>
</trkpt>
<trkpt lat="-27.2650091" lon="151.2878878">
  <ele>542.71</ele>
  <time>2026-09-01T19:56:13Z</time>
  <course>168.9</course>
  <speed>25.63</speed>
  <fix>3d</fix>
</trkpt>
<trkpt lat="-27.2650752" lon="151.2878977">
  <ele>542.68</ele>
  <time>2026-09-01T19:56:13Z</time>
  <course>171.95</course>
  <speed>25.53379916894468</speed>
  <fix>3d</fix>
</trkpt>
<trkpt lat="-27.2650091" lon="151.2878878">
  <ele>542.71</ele>
  <time>2026-09-01T19:56:13Z</time>
  <course>168.9</course>
  <speed>25.63</speed>
  <fix>3d</fix>
</trkpt>
<trkpt lat="-27.2650981" lon="151.2878997">
  <ele>542.61</ele>
  <time>2026-09-01T19:56:13Z</time>
  <course>173.66</course>
  <speed>25.515315008833422</speed>
  <fix>3d</fix>
</trkpt>
<trkpt lat="-27.2650545" lon="151.287896">
  <ele>542.64</ele>
  <time>2026-09-01T19:56:13Z</time>
  <course>173.01</course>
  <speed>25.58</speed>
  <fix>3d</fix>
</trkpt>
<trkpt lat="-27.265121" lon="151.2879009">
  <ele>542.53</ele>
  <time>2026-09-01T19:56:13Z</time>
  <course>175.31</course>
  <speed>25.491631960312</speed>
  <fix>3d</fix>
</trkpt>
<trkpt lat="-27.2650545" lon="151.287896">
  <ele>542.64</ele>
  <time>2026-09-01T19:56:13Z</time>
  <course>173.01</course>
  <speed>25.58</speed>
  <fix>3d</fix>
</trkpt>
<trkpt lat="-27.265144" lon="151.2879014">
  <ele>542.44</ele>
  <time>2026-09-01T19:56:13Z</time>
  <course>176.86</course>
  <speed>25.470096191416317</speed>
  <fix>3d</fix>
</trkpt>
<trkpt lat="-27.2651002" lon="151.2879006">
  <ele>542.53</ele>
  <time>2026-09-01T19:56:13Z</time>
  <course>176.68</course>
  <speed>25.53</speed>
  <fix>3d</fix>
</trkpt>
<trkpt lat="-27.2651669" lon="151.2879012">
  <ele>542.34</ele>
  <time>2026-09-01T19:56:13Z</time>
  <course>178.28</course>
  <speed>25.44638481199245</speed>
  <fix>3d</fix>
</trkpt>
<trkpt lat="-27.2651002" lon="151.2879006">
  <ele>542.53</ele>
  <time>2026-09-01T19:56:13Z</time>
  <course>176.68</course>
  <speed>25.53</speed>
  <fix>3d</fix>
</trkpt>
<trkpt lat="-27.2651897" lon="151.2879005">
  <ele>542.22</ele>
  <time>2026-09-01T19:56:13Z</time>
  <course>179.69</course>
  <speed>25.42693257158637</speed>
  <fix>3d</fix>
</trkpt>
<trkpt lat="-27.265146" lon="151.2879021">
  <ele>542.38</ele>
  <time>2026-09-01T19:56:13Z</time>
  <course>179.94</course>
  <speed>25.48</speed>
  <fix>3d</fix>
</trkpt>
<trkpt lat="-27.2652126" lon="151.287899">
  <ele>542.09</ele>
  <time>2026-09-01T19:56:13Z</time>
  <course>181.11</course>
  <speed>25.410332544065614</speed>
  <fix>3d</fix>
</trkpt>
<trkpt lat="-27.265146" lon="151.2879021">
  <ele>542.38</ele>
  <time>2026-09-01T19:56:13Z</time>
  <course>179.94</course>
  <speed>25.48</speed>
  <fix>3d</fix>
</trkpt>
<trkpt lat="-27.2652354" lon="151.287897">
  <ele>541.96</ele>
  <time>2026-09-01T19:56:13Z</time>
  <course>182.42</course>
  <speed>25.396190659230765</speed>
  <fix>3d</fix>
</trkpt>
<trkpt lat="-27.2651917" lon="151.2879008">
  <ele>542.17</ele>
  <time>2026-09-01T19:56:13Z</time>
  <course>182.82</course>
  <speed>25.43</speed>
  <fix>3d</fix>
</trkpt>
<trkpt lat="-27.2652581" lon="151.2878944">
  <ele>541.81</ele>
  <time>2026-09-01T19:56:13Z</time>
  <course>183.65</course>
  <speed>25.380522059248506</speed>
  <fix>3d</fix>
</trkpt>
<trkpt lat="-27.2651917" lon="151.2879008">
  <ele>542.17</ele>
  <time>2026-09-01T19:56:13Z</time>
  <course>182.82</course>
  <speed>25.43</speed>
  <fix>3d</fix>
</trkpt>
<trkpt lat="-27.2652807" lon="151.2878913">
  <ele>541.65</ele>
  <time>2026-09-01T19:56:13Z</time>
  <course>184.85</course>
  <speed>25.38204286498626</speed>
  <fix>3d</fix>
</trkpt>
<trkpt lat="-27.2652374" lon="151.2878971">
  <ele>541.92</ele>
  <time>2026-09-01T19:56:13Z</time>
  <course>185.43</course>
  <speed>25.39</speed>
  <fix>3d</fix>
</trkpt>
<trkpt lat="-27.2653033" lon="151.2878877">
  <ele>541.48</ele>
  <time>2026-09-01T19:56:13Z</time>
  <course>186.01</course>
  <speed>25.389021249351067</speed>
  <fix>3d</fix>
</trkpt>
<trkpt lat="-27.2652374" lon="151.2878971">
  <ele>541.92</ele>
  <time>2026-09-01T19:56:13Z</time>
  <course>185.43</course>
  <speed>25.39</speed>
  <fix>3d</fix>
</trkpt>
<trkpt lat="-27.2653258" lon="151.2878836">
  <ele>541.32</ele>
  <time>2026-09-01T19:56:13Z</time>
  <course>187.17</course>
  <speed>25.389929105848246</speed>
  <fix>3d</fix>
</trkpt>
<trkpt lat="-27.2652827" lon="151.2878912">
  <ele>541.63</ele>
  <time>2026-09-01T19:56:13Z</time>
  <course>187.79</course>
  <speed>25.37</speed>
  <fix>3d</fix>
</trkpt>
<trkpt lat="-27.2653481" lon="151.2878791">
  <ele>541.15</ele>
  <time>2026-09-01T19:56:13Z</time>
  <course>188.28</course>
  <speed>25.39680491715444</speed>
  <fix>3d</fix>
</trkpt>
<trkpt lat="-27.2652827" lon="151.2878912">
  <ele>541.63</ele>
  <time>2026-09-01T19:56:13Z</time>
  <course>187.79</course>
  <speed>25.37</speed>
  <fix>3d</fix>
</trkpt>
<trkpt lat="-27.2653704" lon="151.2878742">
  <ele>540.98</ele>
  <time>2026-09-01T19:56:13Z</time>
  <course>189.34</course>
  <speed>25.409136152179595</speed>
  <fix>3d</fix>
</trkpt>
<trkpt lat="-27.2653277" lon="151.2878833">
  <ele>541.31</ele>
  <time>2026-09-01T19:56:13Z</time>
  <course>189.9</course>
  <speed>25.38</speed>
  <fix>3d</fix>
</trkpt>
<trkpt lat="-27.2653925" lon="151.2878689">
  <ele>540.81</ele>
  <time>2026-09-01T19:56:13Z</time>
  <course>190.32</course>
  <speed>25.42968737519201</speed>
  <fix>3d</fix>
</trkpt>
<trkpt lat="-27.2653277" lon="151.2878833">
  <ele>541.31</ele>
  <time>2026-09-01T19:56:13Z</time>
  <course>189.9</course>
  <speed>25.38</speed>
  <fix>3d</fix>
</trkpt>
<trkpt lat="-27.2654146" lon="151.2878632">
  <ele>540.64</ele>
  <time>2026-09-01T19:56:13Z</time>
  <course>191.26</course>
  <speed>25.444001257663857</speed>
  <fix>3d</fix>
</trkpt>
<trkpt lat="-27.2653725" lon="151.2878736">
  <ele>540.98</ele>
  <time>2026-09-01T19:56:13Z</time>
  <course>191.83</course>
  <speed>25.41</speed>
  <fix>3d</fix>
</trkpt>
<trkpt lat="-27.2654367" lon="151.2878571">
  <ele>540.47</ele>
  <time>2026-09-01T19:56:13Z</time>
  <course>192.18</course>
  <speed>25.468688619557938</speed>
  <fix>3d</fix>
</trkpt>
<trkpt lat="-27.2653725" lon="151.2878736">
  <ele>540.98</ele>
  <time>2026-09-01T19:56:13Z</time>
  <course>191.83</course>
  <speed>25.41</speed>
  <fix>3d</fix>
</trkpt>
<trkpt lat="-27.2654587" lon="151.2878506">
  <ele>540.32</ele>
  <time>2026-09-01T19:56:13Z</time>
  <course>193.01</course>
  <speed>25.50282533367627</speed>
  <fix>3d</fix>
</trkpt>
<trkpt lat="-27.2654171" lon="151.2878623">
  <ele>540.64</ele>
  <time>2026-09-01T19:56:13Z</time>
  <course>193.57</course>
  <speed>25.46</speed>
  <fix>3d</fix>
</trkpt>
<trkpt lat="-27.2654807" lon="151.2878439">
  <ele>540.17</ele>
  <time>2026-09-01T19:56:13Z</time>
  <course>193.83</course>
  <speed>25.53322541317489</speed>
  <fix>3d</fix>
</trkpt>
<trkpt lat="-27.2654171" lon="151.2878623">
  <ele>540.64</ele>
  <time>2026-09-01T19:56:13Z</time>
  <course>193.57</course>
  <speed>25.46</speed>
  <fix>3d</fix>
</trkpt>
<trkpt lat="-27.2655026" lon="151.2878369">
  <ele>540.02</ele>
  <time>2026-09-01T19:56:13Z</time>
  <course>194.61</course>
  <speed>25.56441667631006</speed>
  <fix>3d</fix>
</trkpt>
<trkpt lat="-27.2654615" lon="151.2878495">
  <ele>540.32</ele>
  <time>2026-09-01T19:56:13Z</time>
  <course>195.1</course>
  <speed>25.53</speed>
  <fix>3d</fix>
</trkpt>
<trkpt lat="-27.2655246" lon="151.2878295">
  <ele>539.89</ele>
  <time>2026-09-01T19:56:13Z</time>
  <course>195.3</course>
  <speed>25.60273618190056</speed>
  <fix>3d</fix>
</trkpt>
<trkpt lat="-27.2654615" lon="151.2878495">
  <ele>540.32</ele>
  <time>2026-09-01T19:56:13Z</time>
  <course>195.1</course>
  <speed>25.53</speed>
  <fix>3d</fix>
</trkpt>
<trkpt lat="-27.2655466" lon="151.2878218">
  <ele>539.77</ele>
  <time>2026-09-01T19:56:13Z</time>
  <course>195.93</course>
  <speed>25.644492586128507</speed>
  <fix>3d</fix>
</trkpt>
<trkpt lat="-27.2655056" lon="151.2878354">
  <ele>540.05</ele>
  <time>2026-09-01T19:56:13Z</time>
  <course>196.45</course>
  <speed>25.6</speed>
  <fix>3d</fix>
</trkpt>
<trkpt lat="-27.265569" lon="151.2878138">
  <ele>539.66</ele>
  <time>2026-09-01T19:56:13Z</time>
  <course>196.47</course>
  <speed>25.69185084808021</speed>
  <fix>3d</fix>
</trkpt>
<trkpt lat="-27.2655056" lon="151.2878354">
  <ele>540.05</ele>
  <time>2026-09-01T19:56:13Z</time>
  <course>196.45</course>
  <speed>25.6</speed>
  <fix>3d</fix>
</trkpt>
<trkpt lat="-27.265591" lon="151.2878057">
  <ele>539.56</ele>
  <time>2026-09-01T19:56:13Z</time>
  <course>196.91</course>
  <speed>25.72211888628151</speed>
  <fix>3d</fix>
</trkpt>
<trkpt lat="-27.2655497" lon="151.2878203">
  <ele>539.81</ele>
  <time>2026-09-01T19:56:13Z</time>
  <course>197.58</course>
  <speed>25.67</speed>
  <fix>3d</fix>
</trkpt>
<trkpt lat="-27.2656129" lon="151.2877974">
  <ele>539.47</ele>
  <time>2026-09-01T19:56:13Z</time>
  <course>197.25</course>
  <speed>25.763161684855373</speed>
  <fix>3d</fix>
</trkpt>
<trkpt lat="-27.2655497" lon="151.2878203">
  <ele>539.81</ele>
  <time>2026-09-01T19:56:13Z</time>
  <course>197.58</course>
  <speed>25.67</speed>
  <fix>3d</fix>
</trkpt>
<trkpt lat="-27.2656347" lon="151.287789">
  <ele>539.4</ele>
  <time>2026-09-01T19:56:13Z</time>
  <course>197.53</course>
  <speed>25.785736367224416</speed>
  <fix>3d</fix>
</trkpt>
<trkpt lat="-27.2655936" lon="151.2878042">
  <ele>539.61</ele>
  <time>2026-09-01T19:56:13Z</time>
  <course>198.46</course>
  <speed>25.74</speed>
  <fix>3d</fix>
</trkpt>
<trkpt lat="-27.2656566" lon="151.2877806">
  <ele>539.34</ele>
  <time>2026-09-01T19:56:13Z</time>
  <course>197.74</course>
  <speed>25.805135147873184</speed>
  <fix>3d</fix>
</trkpt>
<trkpt lat="-27.2655936" lon="151.2878042">
  <ele>539.61</ele>
  <time>2026-09-01T19:56:13Z</time>
  <course>198.46</course>
  <speed>25.74</speed>
  <fix>3d</fix>
</trkpt>
<trkpt lat="-27.2656785" lon="151.287772">
  <ele>539.29</ele>
  <time>2026-09-01T19:56:13Z</time>
  <course>197.86</course>
  <speed>25.836756762411184</speed>
  <fix>3d</fix>
</trkpt>
<trkpt lat="-27.2656374" lon="151.2877874">
  <ele>539.47</ele>
  <time>2026-09-01T19:56:13Z</time>
  <course>199.02</course>
  <speed>25.8</speed>
  <fix>3d</fix>
</trkpt>
<trkpt lat="-27.2657004" lon="151.2877636">
  <ele>539.25</ele>
  <time>2026-09-01T19:56:13Z</time>
  <course>197.98</course>
  <speed>25.852204934976047</speed>
  <fix>3d</fix>
</trkpt>
<trkpt lat="-27.2656374" lon="151.2877874">
  <ele>539.47</ele>
  <time>2026-09-01T19:56:13Z</time>
  <course>199.02</course>
  <speed>25.8</speed>
  <fix>3d</fix>
</trkpt>
<trkpt lat="-27.2657223" lon="151.2877551">
  <ele>539.23</ele>
  <time>2026-09-01T19:56:13Z</time>
  <course>197.96</course>
  <speed>25.88017387885947</speed>
  <fix>3d</fix>
</trkpt>
<trkpt lat="-27.2656814" lon="151.2877703">
  <ele>539.37</ele>
  <time>2026-09-01T19:56:13Z</time>
  <course>199.14</course>
  <speed>25.85</speed>
  <fix>3d</fix>
</trkpt>
<trkpt lat="-27.2657443" lon="151.2877468">
  <ele>539.21</ele>
  <time>2026-09-01T19:56:13Z</time>
  <course>197.86</course>
  <speed>25.892860019704273</speed>
  <fix>3d</fix>
</trkpt>
<trkpt lat="-27.2656814" lon="151.2877703">
  <ele>539.37</ele>
  <time>2026-09-01T19:56:13Z</time>
  <course>199.14</course>
  <speed>25.85</speed>
  <fix>3d</fix>
</trkpt>
<trkpt lat="-27.2657664" lon="151.2877386">
  <ele>539.21</ele>
  <time>2026-09-01T19:56:13Z</time>
  <course>197.67</course>
  <speed>25.910138942120707</speed>
  <fix>3d</fix>
</trkpt>
<trkpt lat="-27.2657254" lon="151.2877532">
  <ele>539.32</ele>
  <time>2026-09-01T19:56:13Z</time>
  <course>198.79</course>
  <speed>25.9</speed>
  <fix>3d</fix>
</trkpt>
<trkpt lat="-27.2657885" lon="151.2877307">
  <ele>539.21</ele>
  <time>2026-09-01T19:56:13Z</time>
  <course>197.38</course>
  <speed>25.917148762933007</speed>
  <fix>3d</fix>
</trkpt>
<trkpt lat="-27.2657254" lon="151.2877532">
  <ele>539.32</ele>
  <time>2026-09-01T19:56:13Z</time>
  <course>198.79</course>
  <speed>25.9</speed>
  <fix>3d</fix>
</trkpt>
<trkpt lat="-27.2658108" lon="151.2877229">
  <ele>539.22</ele>
  <time>2026-09-01T19:56:13Z</time>
  <course>196.97</course>
  <speed>25.934126166115565</speed>
  <fix>3d</fix>
</trkpt>
<trkpt lat="-27.2657695" lon="151.2877366">
  <ele>539.3</ele>
  <time>2026-09-01T19:56:13Z</time>
  <course>198.0</course>
  <speed>25.93</speed>
  <fix>3d</fix>
</trkpt>
<trkpt lat="-27.2658333" lon="151.2877155">
  <ele>539.24</ele>
  <time>2026-09-01T19:56:13Z</time>
  <course>196.45</course>
  <speed>25.94878417190293</speed>
  <fix>3d</fix>
</trkpt>
<trkpt lat="-27.2657695" lon="151.2877366">
  <ele>539.3</ele>
  <time>2026-09-01T19:56:13Z</time>
  <course>198.0</course>
  <speed>25.93</speed>
  <fix>3d</fix>
</trkpt>
<trkpt lat="-27.2658559" lon="151.2877082">
  <ele>539.27</ele>
  <time>2026-09-01T19:56:13Z</time>
  <course>195.91</course>
  <speed>25.9688216906351</speed>
  <fix>3d</fix>
</trkpt>
<trkpt lat="-27.265814" lon="151.2877209">
  <ele>539.32</ele>
  <time>2026-09-01T19:56:13Z</time>
  <course>196.84</course>
  <speed>25.96</speed>
  <fix>3d</fix>
</trkpt>
<trkpt lat="-27.2658785" lon="151.2877014">
  <ele>539.3</ele>
  <time>2026-09-01T19:56:13Z</time>
  <course>195.22</course>
  <speed>25.98577495477093</speed>
  <fix>3d</fix>
</trkpt>
<trkpt lat="-27.265814" lon="151.2877209">
  <ele>539.32</ele>
  <time>2026-09-01T19:56:13Z</time>
  <course>196.84</course>
  <speed>25.96</speed>
  <fix>3d</fix>
</trkpt>
<trkpt lat="-27.2659014" lon="151.2876949">
  <ele>539.34</ele>
  <time>2026-09-01T19:56:13Z</time>
  <course>194.46</course>
  <speed>26.000861524188004</speed>
  <fix>3d</fix>
</trkpt>
<trkpt lat="-27.2658588" lon="151.2877064">
  <ele>539.38</ele>
  <time>2026-09-01T19:56:13Z</time>
  <course>195.39</course>
  <speed>25.98</speed>
  <fix>3d</fix>
</trkpt>
<trkpt lat="-27.2659243" lon="151.2876888">
  <ele>539.4</ele>
  <time>2026-09-01T19:56:13Z</time>
  <course>193.6</course>
  <speed>26.027339472178095</speed>
  <fix>3d</fix>
</trkpt>
<trkpt lat="-27.2658588" lon="151.2877064">
  <ele>539.38</ele>
  <time>2026-09-01T19:56:13Z</time>
  <course>195.39</course>
  <speed>25.98</speed>
  <fix>3d</fix>
</trkpt>
<trkpt lat="-27.2659473" lon="151.2876831">
  <ele>539.46</ele>
  <time>2026-09-01T19:56:13Z</time>
  <course>192.68</course>
  <speed>26.03483243656467</speed>
  <fix>3d</fix>
</trkpt>
<trkpt lat="-27.265904" lon="151.2876931">
  <ele>539.47</ele>
  <time>2026-09-01T19:56:13Z</time>
  <course>193.7</course>
  <speed>26.0</speed>
  <fix>3d</fix>
</trkpt>
<trkpt lat="-27.2659702" lon="151.287678">
  <ele>539.53</ele>
  <time>2026-09-01T19:56:13Z</time>
  <course>191.77</course>
  <speed>26.0577857846748</speed>
  <fix>3d</fix>
</trkpt>
<trkpt lat="-27.265904" lon="151.2876931">
  <ele>539.47</ele>
  <time>2026-09-01T19:56:13Z</time>
  <course>193.7</course>
  <speed>26.0</speed>
  <fix>3d</fix>
</trkpt>
<trkpt lat="-27.2659933" lon="151.2876732">
  <ele>539.61</ele>
  <time>2026-09-01T19:56:13Z</time>
  <course>190.79</course>
  <speed>26.05735404832962</speed>
  <fix>3d</fix>
</trkpt>
<trkpt lat="-27.2659495" lon="151.2876815">
  <ele>539.6</ele>
  <time>2026-09-01T19:56:13Z</time>
  <course>191.79</course>
  <speed>26.02</speed>
  <fix>3d</fix>
</trkpt>
<trkpt lat="-27.2660164" lon="151.2876689">
  <ele>539.69</ele>
  <time>2026-09-01T19:56:13Z</time>
  <course>189.77</course>
  <speed>26.060454715910083</speed>
  <fix>3d</fix>
</trkpt>
<trkpt lat="-27.2659495" lon="151.2876815">
  <ele>539.6</ele>
  <time>2026-09-01T19:56:13Z</time>
  <course>191.79</course>
  <speed>26.02</speed>
  <fix>3d</fix>
</trkpt>
<trkpt lat="-27.2660395" lon="151.2876651">
  <ele>539.79</ele>
  <time>2026-09-01T19:56:13Z</time>
  <course>188.68</course>
  <speed>26.05020729284126</speed>
  <fix>3d</fix>
</trkpt>
<trkpt lat="-27.2659954" lon="151.2876717">
  <ele>539.75</ele>
  <time>2026-09-01T19:56:13Z</time>
  <course>189.72</course>
  <speed>26.03</speed>
  <fix>3d</fix>
</trkpt>
<trkpt lat="-27.2660629" lon="151.2876619">
  <ele>539.89</ele>
  <time>2026-09-01T19:56:13Z</time>
  <course>187.67</course>
  <speed>26.048589213237634</speed>
  <fix>3d</fix>
</trkpt>
<trkpt lat="-27.2659954" lon="151.2876717">
  <ele>539.75</ele>
  <time>2026-09-01T19:56:13Z</time>
  <course>189.72</course>
  <speed>26.03</speed>
  <fix>3d</fix>
</trkpt>
<trkpt lat="-27.2660861" lon="151.2876591">
  <ele>539.99</ele>
  <time>2026-09-01T19:56:13Z</time>
  <course>186.59</course>
  <speed>26.02812517258975</speed>
  <fix>3d</fix>
</trkpt>
<trkpt lat="-27.2660417" lon="151.2876638">
  <ele>539.92</ele>
  <time>2026-09-01T19:56:13Z</time>
  <course>187.54</course>
  <speed>26.03</speed>
  <fix>3d</fix>
</trkpt>
<trkpt lat="-27.2661093" lon="151.2876569">
  <ele>540.09</ele>
  <time>2026-09-01T19:56:13Z</time>
  <course>185.5</course>
  <speed>26.026547984702084</speed>
  <fix>3d</fix>
</trkpt>
<trkpt lat="-27.2660417" lon="151.2876638">
  <ele>539.92</ele>
  <time>2026-09-01T19:56:13Z</time>
  <course>187.54</course>
  <speed>26.03</speed>
  <fix>3d</fix>
</trkpt>
<trkpt lat="-27.2661325" lon="151.2876551">
  <ele>540.2</ele>
  <time>2026-09-01T19:56:13Z</time>
  <course>184.42</course>
  <speed>26.004547679204112</speed>
  <fix>3d</fix>
</trkpt>
<trkpt lat="-27.2660881" lon="151.287658">
  <ele>540.12</ele>
  <time>2026-09-01T19:56:13Z</time>
  <course>185.27</course>
  <speed>26.02</speed>
  <fix>3d</fix>
</trkpt>
<trkpt lat="-27.2661558" lon="151.287654">
  <ele>540.3</ele>
  <time>2026-09-01T19:56:13Z</time>
  <course>183.3</course>
  <speed>25.992937502329358</speed>
  <fix>3d</fix>
</trkpt>
<trkpt lat="-27.2660881" lon="151.287658">
  <ele>540.12</ele>
  <time>2026-09-01T19:56:13Z</time>
  <course>185.27</course>
  <speed>26.02</speed>
  <fix>3d</fix>
</trkpt>
<trkpt lat="-27.2661792" lon="151.2876533">
  <ele>540.41</ele>
  <time>2026-09-01T19:56:13Z</time>
  <course>182.15</course>
  <speed>25.98173204388037</speed>
  <fix>3d</fix>
</trkpt>
<trkpt lat="-27.2661348" lon="151.2876542">
  <ele>540.33</ele>
  <time>2026-09-01T19:56:13Z</time>
  <course>182.97</course>
  <speed>26.01</speed>
  <fix>3d</fix>
</trkpt>
<trkpt lat="-27.2662028" lon="151.2876532">
  <ele>540.52</ele>
  <time>2026-09-01T19:56:13Z</time>
  <course>181.01</course>
  <speed>25.970849042724808</speed>
  <fix>3d</fix>
</trkpt>
<trkpt lat="-27.2661348" lon="151.2876542">
  <ele>540.33</ele>
  <time>2026-09-01T19:56:13Z</time>
  <course>182.97</course>
  <speed>26.01</speed>
  <fix>3d</fix>
</trkpt>
<trkpt lat="-27.266226" lon="151.2876536">
  <ele>540.63</ele>
  <time>2026-09-01T19:56:13Z</time>
  <course>179.89</course>
  <speed>25.94971483465666</speed>
  <fix>3d</fix>
</trkpt>
<trkpt lat="-27.2661815" lon="151.2876524">
  <ele>540.55</ele>
  <time>2026-09-01T19:56:13Z</time>
  <course>180.66</course>
  <speed>25.99</speed>
  <fix>3d</fix>
</trkpt>
<trkpt lat="-27.2662491" lon="151.2876545">
  <ele>540.74</ele>
  <time>2026-09-01T19:56:13Z</time>
  <course>178.78</course>
  <speed>25.92871766979617</speed>
  <fix>3d</fix>
</trkpt>
<trkpt lat="-27.2661815" lon="151.2876524">
  <ele>540.55</ele>
  <time>2026-09-01T19:56:13Z</time>
  <course>180.66</course>
  <speed>25.99</speed>
  <fix>3d</fix>
</trkpt>
<trkpt lat="-27.2662723" lon="151.2876559">
  <ele>540.85</ele>
  <time>2026-09-01T19:56:13Z</time>
  <course>177.78</course>
  <speed>25.906497254549873</speed>
  <fix>3d</fix>
</trkpt>
<trkpt lat="-27.2662282" lon="151.2876529">
  <ele>540.78</ele>
  <time>2026-09-01T19:56:13Z</time>
  <course>178.37</course>
  <speed>25.96</speed>
  <fix>3d</fix>
</trkpt>
<trkpt lat="-27.2662955" lon="151.2876578">
  <ele>540.95</ele>
  <time>2026-09-01T19:56:13Z</time>
  <course>176.69</course>
  <speed>25.883664732800106</speed>
  <fix>3d</fix>
</trkpt>
<trkpt lat="-27.2662282" lon="151.2876529">
  <ele>540.78</ele>
  <time>2026-09-01T19:56:13Z</time>
  <course>178.37</course>
  <speed>25.96</speed>
  <fix>3d</fix>
</trkpt>
<trkpt lat="-27.2663186" lon="151.2876601">
  <ele>541.05</ele>
  <time>2026-09-01T19:56:13Z</time>
  <course>175.55</course>
  <speed>25.868161898364562</speed>
  <fix>3d</fix>
</trkpt>
<trkpt lat="-27.2662748" lon="151.2876554">
  <ele>540.99</ele>
  <time>2026-09-01T19:56:13Z</time>
  <course>176.14</course>
  <speed>25.94</speed>
  <fix>3d</fix>
</trkpt>
<trkpt lat="-27.2663416" lon="151.287663">
  <ele>541.15</ele>
  <time>2026-09-01T19:56:13Z</time>
  <course>174.43</course>
  <speed>25.842697227650216</speed>
  <fix>3d</fix>
</trkpt>
<trkpt lat="-27.2662748" lon="151.2876554">
  <ele>540.99</ele>
  <time>2026-09-01T19:56:13Z</time>
  <course>176.14</course>
  <speed>25.94</speed>
  <fix>3d</fix>
</trkpt>
<trkpt lat="-27.2663647" lon="151.2876664">
  <ele>541.24</ele>
  <time>2026-09-01T19:56:13Z</time>
  <course>173.34</course>
  <speed>25.826377988405575</speed>
  <fix>3d</fix>
</trkpt>
<trkpt lat="-27.2663212" lon="151.2876599">
  <ele>541.19</ele>
  <time>2026-09-01T19:56:13Z</time>
  <course>173.96</course>
  <speed>25.91</speed>
  <fix>3d</fix>
</trkpt>
<trkpt lat="-27.2663876" lon="151.2876703">
  <ele>541.33</ele>
  <time>2026-09-01T19:56:13Z</time>
  <course>172.3</course>
  <speed>25.799476738879804</speed>
  <fix>3d</fix>
</trkpt>
<trkpt lat="-27.2663212" lon="151.2876599">
  <ele>541.19</ele>
  <time>2026-09-01T19:56:13Z</time>
  <course>173.96</course>
  <speed>25.91</speed>
  <fix>3d</fix>
</trkpt>
<trkpt lat="-27.2664105" lon="151.2876746">
  <ele>541.42</ele>
  <time>2026-09-01T19:56:13Z</time>
  <course>171.31</course>
  <speed>25.7863917599962</speed>
  <fix>3d</fix>
</trkpt>
<trkpt lat="-27.2663674" lon="151.2876663">
  <ele>541.38</ele>
  <time>2026-09-01T19:56:13Z</time>
  <course>171.79</course>
  <speed>25.88</speed>
  <fix>3d</fix>
</trkpt>
<trkpt lat="-27.2664331" lon="151.2876793">
  <ele>541.5</ele>
  <time>2026-09-01T19:56:13Z</time>
  <course>170.3</course>
  <speed>25.767780269165602</speed>
  <fix>3d</fix>
</trkpt>
<trkpt lat="-27.2663674" lon="151.2876663">
  <ele>541.38</ele>
  <time>2026-09-01T19:56:13Z</time>
  <course>171.79</course>
  <speed>25.88</speed>
  <fix>3d</fix>
</trkpt>
<trkpt lat="-27.2664556" lon="151.2876845">
  <ele>541.58</ele>
  <time>2026-09-01T19:56:13Z</time>
  <course>169.25</course>
  <speed>25.737171561770342</speed>
  <fix>3d</fix>
</trkpt>
<trkpt lat="-27.2664132" lon="151.2876748">
  <ele>541.56</ele>
  <time>2026-09-01T19:56:13Z</time>
  <course>169.68</course>
  <speed>25.84</speed>
  <fix>3d</fix>
</trkpt>
<trkpt lat="-27.2664781" lon="151.2876902">
  <ele>541.66</ele>
  <time>2026-09-01T19:56:13Z</time>
  <course>168.27</course>
  <speed>25.714278134919518</speed>
  <fix>3d</fix>
</trkpt>
<trkpt lat="-27.2664132" lon="151.2876748">
  <ele>541.56</ele>
  <time>2026-09-01T19:56:13Z</time>
  <course>169.68</course>
  <speed>25.84</speed>
  <fix>3d</fix>
</trkpt>
<trkpt lat="-27.2665004" lon="151.2876962">
  <ele>541.73</ele>
  <time>2026-09-01T19:56:13Z</time>
  <course>167.3</course>
  <speed>25.674843719095932</speed>
  <fix>3d</fix>
</trkpt>
<trkpt lat="-27.2664587" lon="151.287685">
  <ele>541.72</ele>
  <time>2026-09-01T19:56:13Z</time>
  <course>167.66</course>
  <speed>25.81</speed>
  <fix>3d</fix>
</trkpt>
<trkpt lat="-27.2665226" lon="151.2877027">
  <ele>541.8</ele>
  <time>2026-09-01T19:56:13Z</time>
  <course>166.32</course>
  <speed>25.649727094064765</speed>
  <fix>3d</fix>
</trkpt>
<trkpt lat="-27.2664587" lon="151.287685">
  <ele>541.72</ele>
  <time>2026-09-01T19:56:13Z</time>
  <course>167.66</course>
  <speed>25.81</speed>
  <fix>3d</fix>
</trkpt>
<trkpt lat="-27.2665448" lon="151.2877096">
  <ele>541.87</ele>
  <time>2026-09-01T19:56:13Z</time>
  <course>165.37</course>
  <speed>25.616371718102467</speed>
  <fix>3d</fix>
</trkpt>
<trkpt lat="-27.2665037" lon="151.287697">
  <ele>541.87</ele>
  <time>2026-09-01T19:56:13Z</time>
  <course>165.7</course>
  <speed>25.77</speed>
  <fix>3d</fix>
</trkpt>
<trkpt lat="-27.2665668" lon="151.2877169">
  <ele>541.92</ele>
  <time>2026-09-01T19:56:13Z</time>
  <course>164.46</course>
  <speed>25.596056336865644</speed>
  <fix>3d</fix>
</trkpt>
<trkpt lat="-27.2665037" lon="151.287697">
  <ele>541.87</ele>
  <time>2026-09-01T19:56:13Z</time>
  <course>165.7</course>
  <speed>25.77</speed>
  <fix>3d</fix>
</trkpt>
<trkpt lat="-27.2665886" lon="151.2877245">
  <ele>541.98</ele>
  <time>2026-09-01T19:56:13Z</time>
  <course>163.56</course>
  <speed>25.566133849293678</speed>
  <fix>3d</fix>
</trkpt>
<trkpt lat="-27.2665484" lon="151.2877107">
  <ele>542.0</ele>
  <time>2026-09-01T19:56:13Z</time>
  <course>163.85</course>
  <speed>25.73</speed>
  <fix>3d</fix>
</trkpt>
<trkpt lat="-27.2666103" lon="151.2877325">
  <ele>542.03</ele>
  <time>2026-09-01T19:56:13Z</time>
  <course>162.7</course>
  <speed>25.548050806274833</speed>
  <fix>3d</fix>
</trkpt>
<trkpt lat="-27.2665484" lon="151.2877107">
  <ele>542.0</ele>
  <time>2026-09-01T19:56:13Z</time>
  <course>163.85</course>
  <speed>25.73</speed>
  <fix>3d</fix>
</trkpt>
<trkpt lat="-27.2666321" lon="151.2877408">
  <ele>542.07</ele>
  <time>2026-09-01T19:56:13Z</time>
  <course>161.84</course>
  <speed>25.535144409225495</speed>
  <fix>3d</fix>
</trkpt>
<trkpt lat="-27.2665926" lon="151.287726">
  <ele>542.12</ele>
  <time>2026-09-01T19:56:13Z</time>
  <course>162.11</course>
  <speed>25.7</speed>
  <fix>3d</fix>
</trkpt>
<trkpt lat="-27.2666537" lon="151.2877496">
  <ele>542.11</ele>
  <time>2026-09-01T19:56:13Z</time>
  <course>161.02</course>
  <speed>25.514593863120766</speed>
  <fix>3d</fix>
</trkpt>
<trkpt lat="-27.2665926" lon="151.287726">
  <ele>542.12</ele>
  <time>2026-09-01T19:56:13Z</time>
  <course>162.11</course>
  <speed>25.7</speed>
  <fix>3d</fix>
</trkpt>
<trkpt lat="-27.2666753" lon="151.2877587">
  <ele>542.15</ele>
  <time>2026-09-01T19:56:13Z</time>
  <course>160.22</course>
  <speed>25.504842677421088</speed>
  <fix>3d</fix>
</trkpt>
<trkpt lat="-27.2666363" lon="151.2877427">
  <ele>542.2</ele>
  <time>2026-09-01T19:56:13Z</time>
  <course>160.46</course>
  <speed>25.66</speed>
  <fix>3d</fix>
</trkpt>
<trkpt lat="-27.2666968" lon="151.2877681">
  <ele>542.18</ele>
  <time>2026-09-01T19:56:13Z</time>
  <course>159.39</course>
  <speed>25.499766665599118</speed>
  <fix>3d</fix>
</trkpt>
<trkpt lat="-27.2666363" lon="151.2877427">
  <ele>542.2</ele>
  <time>2026-09-01T19:56:13Z</time>
  <course>160.46</course>
  <speed>25.66</speed>
  <fix>3d</fix>
</trkpt>
<trkpt lat="-27.2667182" lon="151.2877778">
  <ele>542.21</ele>
  <time>2026-09-01T19:56:13Z</time>
  <course>158.66</course>
  <speed>25.497184158255596</speed>
  <fix>3d</fix>
</trkpt>
<trkpt lat="-27.2666795" lon="151.2877606">
  <ele>542.28</ele>
  <time>2026-09-01T19:56:13Z</time>
  <course>158.88</course>
  <speed>25.63</speed>
  <fix>3d</fix>
</trkpt>
<trkpt lat="-27.2667394" lon="151.2877879">
  <ele>542.24</ele>
  <time>2026-09-01T19:56:13Z</time>
  <course>157.98</course>
  <speed>25.485346770252118</speed>
  <fix>3d</fix>
</trkpt>
<trkpt lat="-27.2666795" lon="151.2877606">
  <ele>542.28</ele>
  <time>2026-09-01T19:56:13Z</time>
  <course>158.88</course>
  <speed>25.63</speed>
  <fix>3d</fix>
</trkpt>
<trkpt lat="-27.2667606" lon="151.2877982">
  <ele>542.25</ele>
  <time>2026-09-01T19:56:13Z</time>
  <course>157.33</course>
  <speed>25.482374300680853</speed>
  <fix>3d</fix>
</trkpt>
<trkpt lat="-27.2667223" lon="151.2877799">
  <ele>542.34</ele>
  <time>2026-09-01T19:56:13Z</time>
  <course>157.4</course>
  <speed>25.6</speed>
  <fix>3d</fix>
</trkpt>
<trkpt lat="-27.2667817" lon="151.2878088">
  <ele>542.27</ele>
  <time>2026-09-01T19:56:13Z</time>
  <course>156.66</course>
  <speed>25.478700908798313</speed>
  <fix>3d</fix>
</trkpt>
<trkpt lat="-27.2667223" lon="151.2877799">
  <ele>542.34</ele>
  <time>2026-09-01T19:56:13Z</time>
  <course>157.4</course>
  <speed>25.6</speed>
  <fix>3d</fix>
</trkpt>
<trkpt lat="-27.2668028" lon="151.2878197">
  <ele>542.29</ele>
  <time>2026-09-01T19:56:13Z</time>
  <course>156.04</course>
  <speed>25.483084585661917</speed>
  <fix>3d</fix>
</trkpt>
<trkpt lat="-27.2667645" lon="151.2878003">
  <ele>542.39</ele>
  <time>2026-09-01T19:56:13Z</time>
  <course>156.03</course>
  <speed>25.58</speed>
  <fix>3d</fix>
</trkpt>
<trkpt lat="-27.2668237" lon="151.2878308">
  <ele>542.3</ele>
  <time>2026-09-01T19:56:13Z</time>
  <course>155.34</course>
  <speed>25.481762105474573</speed>
  <fix>3d</fix>
</trkpt>
<trkpt lat="-27.2667645" lon="151.2878003">
  <ele>542.39</ele>
  <time>2026-09-01T19:56:13Z</time>
  <course>156.03</course>
  <speed>25.58</speed>
  <fix>3d</fix>
</trkpt>
<trkpt lat="-27.2668443" lon="151.2878421">
  <ele>542.31</ele>
  <time>2026-09-01T19:56:13Z</time>
  <course>154.67</course>
  <speed>25.47858905041643</speed>
  <fix>3d</fix>
</trkpt>
<trkpt lat="-27.2668063" lon="151.2878218">
  <ele>542.42</ele>
  <time>2026-09-01T19:56:13Z</time>
  <course>154.78</course>
  <speed>25.56</speed>
  <fix>3d</fix>
</trkpt>
<trkpt lat="-27.2668648" lon="151.2878536">
  <ele>542.32</ele>
  <time>2026-09-01T19:56:13Z</time>
  <course>154.05</course>
  <speed>25.473305635507927</speed>
  <fix>3d</fix>
</trkpt>
<trkpt lat="-27.2668063" lon="151.2878218">
  <ele>542.42</ele>
  <time>2026-09-01T19:56:13Z</time>
  <course>154.78</course>
  <speed>25.56</speed>
  <fix>3d</fix>
</trkpt>
<trkpt lat="-27.2668851" lon="151.2878652">
  <ele>542.33</ele>
  <time>2026-09-01T19:56:13Z</time>
  <course>153.52</course>
  <speed>25.465663156493687</speed>
  <fix>3d</fix>
</trkpt>
<trkpt lat="-27.2668476" lon="151.2878443">
  <ele>542.45</ele>
  <time>2026-09-01T19:56:13Z</time>
  <course>153.64</course>
  <speed>25.54</speed>
  <fix>3d</fix>
</trkpt>
<trkpt lat="-27.2669053" lon="151.287877">
  <ele>542.34</ele>
  <time>2026-09-01T19:56:13Z</time>
  <course>152.95</course>
  <speed>25.464282829092202</speed>
  <fix>3d</fix>
</trkpt>
<trkpt lat="-27.2668476" lon="151.2878443">
  <ele>542.45</ele>
  <time>2026-09-01T19:56:13Z</time>
  <course>153.64</course>
  <speed>25.54</speed>
  <fix>3d</fix>
</trkpt>
<trkpt lat="-27.2669256" lon="151.2878892">
  <ele>542.35</ele>
  <time>2026-09-01T19:56:13Z</time>
  <course>152.46</course>
  <speed>25.46471283953542</speed>
  <fix>3d</fix>
</trkpt>
<trkpt lat="-27.2668885" lon="151.2878677">
  <ele>542.47</ele>
  <time>2026-09-01T19:56:13Z</time>
  <course>152.59</course>
  <speed>25.53</speed>
  <fix>3d</fix>
</trkpt>
<trkpt lat="-27.2669458" lon="151.2879015">
  <ele>542.35</ele>
  <time>2026-09-01T19:56:13Z</time>
  <course>151.99</course>
  <speed>25.46139234213243</speed>
  <fix>3d</fix>
</trkpt>
<trkpt lat="-27.2668885" lon="151.2878677">
  <ele>542.47</ele>
  <time>2026-09-01T19:56:13Z</time>
  <course>152.59</course>
  <speed>25.53</speed>
  <fix>3d</fix>
</trkpt>
<trkpt lat="-27.2669662" lon="151.2879141">
  <ele>542.36</ele>
  <time>2026-09-01T19:56:13Z</time>
  <course>151.55</course>
  <speed>25.468146771997368</speed>
  <fix>3d</fix>
</trkpt>
<trkpt lat="-27.266929" lon="151.2878918">
  <ele>542.49</ele>
  <time>2026-09-01T19:56:13Z</time>
  <course>151.64</course>
  <speed>25.52</speed>
  <fix>3d</fix>
</trkpt>
<trkpt lat="-27.2669863" lon="151.2879267">
  <ele>542.36</ele>
  <time>2026-09-01T19:56:13Z</time>
  <course>151.13</course>
  <speed>25.47125831206617</speed>
  <fix>3d</fix>
</trkpt>
<trkpt lat="-27.266929" lon="151.2878918">
  <ele>542.49</ele>
  <time>2026-09-01T19:56:13Z</time>
  <course>151.64</course>
  <speed>25.52</speed>
  <fix>3d</fix>
</trkpt>
<trkpt lat="-27.2670063" lon="151.2879396">
  <ele>542.37</ele>
  <time>2026-09-01T19:56:13Z</time>
  <course>150.75</course>
  <speed>25.474292924436586</speed>
  <fix>3d</fix>
</trkpt>
<trkpt lat="-27.2669692" lon="151.2879166">
  <ele>542.5</ele>
  <time>2026-09-01T19:56:13Z</time>
  <course>150.82</course>
  <speed>25.51</speed>
  <fix>3d</fix>
</trkpt>
<trkpt lat="-27.2670263" lon="151.2879525">
  <ele>542.38</ele>
  <time>2026-09-01T19:56:13Z</time>
  <course>150.39</course>
  <speed>25.481852365948594</speed>
  <fix>3d</fix>
</trkpt>
<trkpt lat="-27.2669692" lon="151.2879166">
  <ele>542.5</ele>
  <time>2026-09-01T19:56:13Z</time>
  <course>150.82</course>
  <speed>25.51</speed>
  <fix>3d</fix>
</trkpt>
<trkpt lat="-27.2670463" lon="151.2879656">
  <ele>542.38</ele>
  <time>2026-09-01T19:56:13Z</time>
  <course>150.01</course>
  <speed>25.49011573139675</speed>
  <fix>3d</fix>
</trkpt>
<trkpt lat="-27.2670091" lon="151.2879422">
  <ele>542.52</ele>
  <time>2026-09-01T19:56:13Z</time>
  <course>150.11</course>
  <speed>25.5</speed>
  <fix>3d</fix>
</trkpt>
<trkpt lat="-27.2670661" lon="151.2879788">
  <ele>542.38</ele>
  <time>2026-09-01T19:56:13Z</time>
  <course>149.69</course>
  <speed>25.49753909694032</speed>
  <fix>3d</fix>
</trkpt>
<trkpt lat="-27.2670091" lon="151.2879422">
  <ele>542.52</ele>
  <time>2026-09-01T19:56:13Z</time>
  <course>150.11</course>
  <speed>25.5</speed>
  <fix>3d</fix>
</trkpt>
<trkpt lat="-27.2670859" lon="151.287992">
  <ele>542.39</ele>
  <time>2026-09-01T19:56:13Z</time>
  <course>149.39</course>
  <speed>25.496856669009222</speed>
  <fix>3d</fix>
</trkpt>
<trkpt lat="-27.2670488" lon="151.2879681">
  <ele>542.53</ele>
  <time>2026-09-01T19:56:13Z</time>
  <course>149.51</course>
  <speed>25.49</speed>
  <fix>3d</fix>
</trkpt>
<trkpt lat="-27.2671055" lon="151.2880054">
  <ele>542.39</ele>
  <time>2026-09-01T19:56:13Z</time>
  <course>149.14</course>
  <speed>25.494979898011294</speed>
  <fix>3d</fix>
</trkpt>
<trkpt lat="-27.2670488" lon="151.2879681">
  <ele>542.53</ele>
  <time>2026-09-01T19:56:13Z</time>
  <course>149.51</course>
  <speed>25.49</speed>
  <fix>3d</fix>
</trkpt>
<trkpt lat="-27.2671251" lon="151.2880187">
  <ele>542.4</ele>
  <time>2026-09-01T19:56:13Z</time>
  <course>148.91</course>
  <speed>25.49683313668582</speed>
  <fix>3d</fix>
</trkpt>
<trkpt lat="-27.2670881" lon="151.2879944">
  <ele>542.54</ele>
  <time>2026-09-01T19:56:13Z</time>
  <course>149.02</course>
  <speed>25.48</speed>
  <fix>3d</fix>
</trkpt>
<trkpt lat="-27.2671446" lon="151.2880321">
  <ele>542.4</ele>
  <time>2026-09-01T19:56:13Z</time>
  <course>148.68</course>
  <speed>25.49894115448718</speed>
  <fix>3d</fix>
</trkpt>
<trkpt lat="-27.2670881" lon="151.2879944">
  <ele>542.54</ele>
  <time>2026-09-01T19:56:13Z</time>
  <course>149.02</course>
  <speed>25.48</speed>
  <fix>3d</fix>
</trkpt>
<trkpt lat="-27.2671641" lon="151.2880456">
  <ele>542.41</ele>
  <time>2026-09-01T19:56:13Z</time>
  <course>148.47</course>
  <speed>25.490855223001052</speed>
  <fix>3d</fix>
</trkpt>
<trkpt lat="-27.2671273" lon="151.288021">
  <ele>542.56</ele>
  <time>2026-09-01T19:56:13Z</time>
  <course>148.62</course>
  <speed>25.47</speed>
  <fix>3d</fix>
</trkpt>
<trkpt lat="-27.2671835" lon="151.2880591">
  <ele>542.42</ele>
  <time>2026-09-01T19:56:13Z</time>
  <course>148.32</course>
  <speed>25.486204111244184</speed>
  <fix>3d</fix>
</trkpt>
<trkpt lat="-27.2671273" lon="151.288021">
  <ele>542.56</ele>
  <time>2026-09-01T19:56:13Z</time>
  <course>148.62</course>
  <speed>25.47</speed>
  <fix>3d</fix>
</trkpt>
<trkpt lat="-27.2672029" lon="151.2880726">
  <ele>542.43</ele>
  <time>2026-09-01T19:56:13Z</time>
  <course>148.12</course>
  <speed>25.484907298242227</speed>
  <fix>3d</fix>
</trkpt>
<trkpt lat="-27.2671663" lon="151.288048">
  <ele>542.57</ele>
  <time>2026-09-01T19:56:13Z</time>
  <course>148.32</course>
  <speed>25.47</speed>
  <fix>3d</fix>
</trkpt>
<trkpt lat="-27.2672223" lon="151.2880862">
  <ele>542.44</ele>
  <time>2026-09-01T19:56:13Z</time>
  <course>147.99</course>
  <speed>25.492165463137884</speed>
  <fix>3d</fix>
</trkpt>
<trkpt lat="-27.2671663" lon="151.288048">
  <ele>542.57</ele>
  <time>2026-09-01T19:56:13Z</time>
  <course>148.32</course>
  <speed>25.47</speed>
  <fix>3d</fix>
</trkpt>
<trkpt lat="-27.2672418" lon="151.2880999">
  <ele>542.45</ele>
  <time>2026-09-01T19:56:13Z</time>
  <course>147.9</course>
  <speed>25.499460778612555</speed>
  <fix>3d</fix>
</trkpt>
<trkpt lat="-27.2672052" lon="151.2880751">
  <ele>542.59</ele>
  <time>2026-09-01T19:56:13Z</time>
  <course>148.12</course>
  <speed>25.47</speed>
  <fix>3d</fix>
</trkpt>
<trkpt lat="-27.2672613" lon="151.2881136">
  <ele>542.46</ele>
  <time>2026-09-01T19:56:13Z</time>
  <course>147.83</course>
  <speed>25.510007840061515</speed>
  <fix>3d</fix>
</trkpt>
<trkpt lat="-27.2672052" lon="151.2880751">
  <ele>542.59</ele>
  <time>2026-09-01T19:56:13Z</time>
  <course>148.12</course>
  <speed>25.47</speed>
  <fix>3d</fix>
</trkpt>
<trkpt lat="-27.2672808" lon="151.2881273">
  <ele>542.47</ele>
  <time>2026-09-01T19:56:13Z</time>
  <course>147.71</course>
  <speed>25.515285614705547</speed>
  <fix>3d</fix>
</trkpt>
<trkpt lat="-27.267244" lon="151.2881023">
  <ele>542.62</ele>
  <time>2026-09-01T19:56:13Z</time>
  <course>148.0</course>
  <speed>25.47</speed>
  <fix>3d</fix>
</trkpt>
<trkpt lat="-27.2673003" lon="151.2881411">
  <ele>542.48</ele>
  <time>2026-09-01T19:56:13Z</time>
  <course>147.64</course>
  <speed>25.534339623338607</speed>
  <fix>3d</fix>
</trkpt>
<trkpt lat="-27.267244" lon="151.2881023">
  <ele>542.62</ele>
  <time>2026-09-01T19:56:13Z</time>
  <course>148.0</course>
  <speed>25.47</speed>
  <fix>3d</fix>
</trkpt>
<trkpt lat="-27.2673199" lon="151.2881548">
  <ele>542.49</ele>
  <time>2026-09-01T19:56:13Z</time>
  <course>147.64</course>
  <speed>25.54811343328505</speed>
  <fix>3d</fix>
</trkpt>
<trkpt lat="-27.2672827" lon="151.2881296">
  <ele>542.64</ele>
  <time>2026-09-01T19:56:13Z</time>
  <course>147.94</course>
  <speed>25.47</speed>
  <fix>3d</fix>
</trkpt>
<trkpt lat="-27.2673394" lon="151.2881686">
  <ele>542.5</ele>
  <time>2026-09-01T19:56:13Z</time>
  <course>147.68</course>
  <speed>25.556603843233944</speed>
  <fix>3d</fix>
</trkpt>
<trkpt lat="-27.2672827" lon="151.2881296">
  <ele>542.64</ele>
  <time>2026-09-01T19:56:13Z</time>
  <course>147.94</course>
  <speed>25.47</speed>
  <fix>3d</fix>
</trkpt>
<trkpt lat="-27.267359" lon="151.2881824">
  <ele>542.51</ele>
  <time>2026-09-01T19:56:13Z</time>
  <course>147.71</course>
  <speed>25.5598161182744</speed>
  <fix>3d</fix>
</trkpt>
<trkpt lat="-27.2673216" lon="151.2881569">
  <ele>542.67</ele>
  <time>2026-09-01T19:56:13Z</time>
  <course>147.94</course>
  <speed>25.47</speed>
  <fix>3d</fix>
</trkpt>
<trkpt lat="-27.2673787" lon="151.2881962">
  <ele>542.53</ele>
  <time>2026-09-01T19:56:13Z</time>
  <course>147.71</course>
  <speed>25.566262925973362</speed>
  <fix>3d</fix>
</trkpt>
<trkpt lat="-27.2673216" lon="151.2881569">
  <ele>542.67</ele>
  <time>2026-09-01T19:56:13Z</time>
  <course>147.94</course>
  <speed>25.47</speed>
  <fix>3d</fix>
</trkpt>
<trkpt lat="-27.2673981" lon="151.2882099">
  <ele>542.54</ele>
  <time>2026-09-01T19:56:13Z</time>
  <course>147.79</course>
  <speed>25.56423478221087</speed>
  <fix>3d</fix>
</trkpt>
<trkpt lat="-27.2673604" lon="151.2881842">
  <ele>542.7</ele>
  <time>2026-09-01T19:56:13Z</time>
  <course>148.0</course>
  <speed>25.47</speed>
  <fix>3d</fix>
</trkpt>
<trkpt lat="-27.2674176" lon="151.2882235">
  <ele>542.56</ele>
  <time>2026-09-01T19:56:13Z</time>
  <course>147.83</course>
  <speed>25.56548454459645</speed>
  <fix>3d</fix>
</trkpt>
<trkpt lat="-27.2673604" lon="151.2881842">
  <ele>542.7</ele>
  <time>2026-09-01T19:56:13Z</time>
  <course>148.0</course>
  <speed>25.47</speed>
  <fix>3d</fix>
</trkpt>
<trkpt lat="-27.2674371" lon="151.2882371">
  <ele>542.58</ele>
  <time>2026-09-01T19:56:13Z</time>
  <course>147.85</course>
  <speed>25.56154924882293</speed>
  <fix>3d</fix>
</trkpt>
<trkpt lat="-27.2673992" lon="151.2882115">
  <ele>542.73</ele>
  <time>2026-09-01T19:56:13Z</time>
  <course>148.13</course>
  <speed>25.47</speed>
  <fix>3d</fix>
</trkpt>
<trkpt lat="-27.2674565" lon="151.2882506">
  <ele>542.59</ele>
  <time>2026-09-01T19:56:13Z</time>
  <course>147.88</course>
  <speed>25.562912588357378</speed>
  <fix>3d</fix>
</trkpt>
<trkpt lat="-27.2673992" lon="151.2882115">
  <ele>542.73</ele>
  <time>2026-09-01T19:56:13Z</time>
  <course>148.13</course>
  <speed>25.47</speed>
  <fix>3d</fix>
</trkpt>
<trkpt lat="-27.2674761" lon="151.2882641">
  <ele>542.61</ele>
  <time>2026-09-01T19:56:13Z</time>
  <course>147.99</course>
  <speed>25.567655348115128</speed>
  <fix>3d</fix>
</trkpt>
<trkpt lat="-27.2674381" lon="151.2882386">
  <ele>542.77</ele>
  <time>2026-09-01T19:56:13Z</time>
  <course>148.32</course>
  <speed>25.47</speed>
  <fix>3d</fix>
</trkpt>
<trkpt lat="-27.2674957" lon="151.2882776">
  <ele>542.63</ele>
  <time>2026-09-01T19:56:13Z</time>
  <course>148.1</course>
  <speed>25.57249498973458</speed>
  <fix>3d</fix>
</trkpt>
<trkpt lat="-27.2674381" lon="151.2882386">
  <ele>542.77</ele>
  <time>2026-09-01T19:56:13Z</time>
  <course>148.32</course>
  <speed>25.47</speed>
  <fix>3d</fix>
</trkpt>
<trkpt lat="-27.2675154" lon="151.2882911">
  <ele>542.64</ele>
  <time>2026-09-01T19:56:13Z</time>
  <course>148.17</course>
  <speed>25.582605418526082</speed>
  <fix>3d</fix>
</trkpt>
<trkpt lat="-27.2674772" lon="151.2882656">
  <ele>542.8</ele>
  <time>2026-09-01T19:56:13Z</time>
  <course>148.54</course>
  <speed>25.48</speed>
  <fix>3d</fix>
</trkpt>
<trkpt lat="-27.2675351" lon="151.2883045">
  <ele>542.66</ele>
  <time>2026-09-01T19:56:13Z</time>
  <course>148.29</course>
  <speed>25.58246469752279</speed>
  <fix>3d</fix>
</trkpt>
<trkpt lat="-27.2674772" lon="151.2882656">
  <ele>542.8</ele>
  <time>2026-09-01T19:56:13Z</time>
  <course>148.54</course>
  <speed>25.48</speed>
  <fix>3d</fix>
</trkpt>
<trkpt lat="-27.2675546" lon="151.2883178">
  <ele>542.67</ele>
  <time>2026-09-01T19:56:13Z</time>
  <course>148.38</course>
  <speed>25.582456879666584</speed>
  <fix>3d</fix>
</trkpt>
<trkpt lat="-27.2675163" lon="151.2882924">
  <ele>542.83</ele>
  <time>2026-09-01T19:56:13Z</time>
  <course>148.78</course>
  <speed>25.48</speed>
  <fix>3d</fix>
</trkpt>
<trkpt lat="-27.2675741" lon="151.288331">
  <ele>542.69</ele>
  <time>2026-09-01T19:56:13Z</time>
  <course>148.51</course>
  <speed>25.57399069367157</speed>
  <fix>3d</fix>
</trkpt>
<trkpt lat="-27.2675163" lon="151.2882924">
  <ele>542.83</ele>
  <time>2026-09-01T19:56:13Z</time>
  <course>148.78</course>
  <speed>25.48</speed>
  <fix>3d</fix>
</trkpt>
<trkpt lat="-27.2675937" lon="151.2883441">
  <ele>542.7</ele>
  <time>2026-09-01T19:56:13Z</time>
  <course>148.6</course>
  <speed>25.574237036517825</speed>
  <fix>3d</fix>
</trkpt>
<trkpt lat="-27.2675555" lon="151.288319">
  <ele>542.86</ele>
  <time>2026-09-01T19:56:13Z</time>
  <course>149.04</course>
  <speed>25.48</speed>
  <fix>3d</fix>
</trkpt>
<trkpt lat="-27.2676133" lon="151.2883572">
  <ele>542.72</ele>
  <time>2026-09-01T19:56:13Z</time>
  <course>148.75</course>
  <speed>25.57461632165769</speed>
  <fix>3d</fix>
</trkpt>
<trkpt lat="-27.2675555" lon="151.288319">
  <ele>542.86</ele>
  <time>2026-09-01T19:56:13Z</time>
  <course>149.04</course>
  <speed>25.48</speed>
  <fix>3d</fix>
</trkpt>
<trkpt lat="-27.267633" lon="151.2883703">
  <ele>542.73</ele>
  <time>2026-09-01T19:56:13Z</time>
  <course>148.93</course>
  <speed>25.570070394897233</speed>
  <fix>3d</fix>
</trkpt>
<trkpt lat="-27.2675948" lon="151.2883453">
  <ele>542.89</ele>
  <time>2026-09-01T19:56:13Z</time>
  <course>149.32</course>
  <speed>25.48</speed>
  <fix>3d</fix>
</trkpt>
<trkpt lat="-27.2676527" lon="151.2883833">
  <ele>542.74</ele>
  <time>2026-09-01T19:56:13Z</time>
  <course>149.07</course>
  <speed>25.57073522603525</speed>
  <fix>3d</fix>
</trkpt>
<trkpt lat="-27.2675948" lon="151.2883453">
  <ele>542.89</ele>
  <time>2026-09-01T19:56:13Z</time>
  <course>149.32</course>
  <speed>25.48</speed>
  <fix>3d</fix>
</trkpt>
<trkpt lat="-27.2676725" lon="151.2883962">
  <ele>542.76</ele>
  <time>2026-09-01T19:56:13Z</time>
  <course>149.2</course>
  <speed>25.562883248960787</speed>
  <fix>3d</fix>
</trkpt>
<trkpt lat="-27.2676342" lon="151.2883715">
  <ele>542.92</ele>
  <time>2026-09-01T19:56:13Z</time>
  <course>149.6</course>
  <speed>25.48</speed>
  <fix>3d</fix>
</trkpt>
<trkpt lat="-27.2676923" lon="151.2884092">
  <ele>542.77</ele>
  <time>2026-09-01T19:56:13Z</time>
  <course>149.38</course>
  <speed>25.567467610226867</speed>
  <fix>3d</fix>
</trkpt>
<trkpt lat="-27.2676342" lon="151.2883715">
  <ele>542.92</ele>
  <time>2026-09-01T19:56:13Z</time>
  <course>149.6</course>
  <speed>25.48</speed>
  <fix>3d</fix>
</trkpt>
<trkpt lat="-27.2677121" lon="151.288422">
  <ele>542.78</ele>
  <time>2026-09-01T19:56:13Z</time>
  <course>149.55</course>
  <speed>25.563577605648238</speed>
  <fix>3d</fix>
</trkpt>
<trkpt lat="-27.2676738" lon="151.2883975">
  <ele>542.95</ele>
  <time>2026-09-01T19:56:13Z</time>
  <course>149.9</course>
  <speed>25.48</speed>
  <fix>3d</fix>
</trkpt>
<trkpt lat="-27.2677319" lon="151.2884348">
  <ele>542.79</ele>
  <time>2026-09-01T19:56:13Z</time>
  <course>149.64</course>
  <speed>25.56855295084178</speed>
  <fix>3d</fix>
</trkpt>
<trkpt lat="-27.2676738" lon="151.2883975">
  <ele>542.95</ele>
  <time>2026-09-01T19:56:13Z</time>
  <course>149.9</course>
  <speed>25.48</speed>
  <fix>3d</fix>
</trkpt>
<trkpt lat="-27.2677518" lon="151.2884475">
  <ele>542.8</ele>
  <time>2026-09-01T19:56:13Z</time>
  <course>149.8</course>
  <speed>25.565026892221336</speed>
  <fix>3d</fix>
</trkpt>
<trkpt lat="-27.2677134" lon="151.2884232">
  <ele>542.97</ele>
  <time>2026-09-01T19:56:13Z</time>
  <course>150.21</course>
  <speed>25.49</speed>
  <fix>3d</fix>
</trkpt>
<trkpt lat="-27.2677718" lon="151.2884602">
  <ele>542.81</ele>
  <time>2026-09-01T19:56:13Z</time>
  <course>149.96</course>
  <speed>25.570393035696576</speed>
  <fix>3d</fix>
</trkpt>
<trkpt lat="-27.2677134" lon="151.2884232">
  <ele>542.97</ele>
  <time>2026-09-01T19:56:13Z</time>
  <course>150.21</course>
  <speed>25.49</speed>
  <fix>3d</fix>
</trkpt>
<trkpt lat="-27.2677914" lon="151.2884726">
  <ele>542.82</ele>
  <time>2026-09-01T19:56:13Z</time>
  <course>150.14</course>
  <speed>25.567230980299765</speed>
  <fix>3d</fix>
</trkpt>
<trkpt lat="-27.2677532" lon="151.2884486">
  <ele>542.99</ele>
  <time>2026-09-01T19:56:13Z</time>
  <course>150.54</course>
  <speed>25.49</speed>
  <fix>3d</fix>
</trkpt>
<trkpt lat="-27.2678113" lon="151.2884851">
  <ele>542.83</ele>
  <time>2026-09-01T19:56:13Z</time>
  <course>150.38</course>
  <speed>25.559391620302705</speed>
  <fix>3d</fix>
</trkpt>
<trkpt lat="-27.2677532" lon="151.2884486">
  <ele>542.99</ele>
  <time>2026-09-01T19:56:13Z</time>
  <course>150.54</course>
  <speed>25.49</speed>
  <fix>3d</fix>
</trkpt>
<trkpt lat="-27.2678312" lon="151.2884975">
  <ele>542.84</ele>
  <time>2026-09-01T19:56:13Z</time>
  <course>150.57</course>
  <speed>25.55177684623909</speed>
  <fix>3d</fix>
</trkpt>
<trkpt lat="-27.2677932" lon="151.2884738">
  <ele>543.01</ele>
  <time>2026-09-01T19:56:13Z</time>
  <course>150.87</course>
  <speed>25.5</speed>
  <fix>3d</fix>
</trkpt>
<trkpt lat="-27.2678511" lon="151.2885098">
  <ele>542.85</ele>
  <time>2026-09-01T19:56:13Z</time>
  <course>150.74</course>
  <speed>25.549187854019937</speed>
  <fix>3d</fix>
</trkpt>
<trkpt lat="-27.2677932" lon="151.2884738">
  <ele>543.01</ele>
  <time>2026-09-01T19:56:13Z</time>
  <course>150.87</course>
  <speed>25.5</speed>
  <fix>3d</fix>
</trkpt>
<trkpt lat="-27.2678712" lon="151.2885221">
  <ele>542.85</ele>
  <time>2026-09-01T19:56:13Z</time>
  <course>150.88</course>
  <speed>25.53799130707033</speed>
  <fix>3d</fix>
</trkpt>
<trkpt lat="-27.2678333" lon="151.2884988">
  <ele>543.03</ele>
  <time>2026-09-01T19:56:13Z</time>
  <course>151.2</course>
  <speed>25.5</speed>
  <fix>3d</fix>
</trkpt>
<trkpt lat="-27.2678911" lon="151.2885343">
  <ele>542.86</ele>
  <time>2026-09-01T19:56:13Z</time>
  <course>151.02</course>
  <speed>25.53574161836699</speed>
  <fix>3d</fix>
</trkpt>
<trkpt lat="-27.2678333" lon="151.2884988">
  <ele>543.03</ele>
  <time>2026-09-01T19:56:13Z</time>
  <course>151.2</course>
  <speed>25.5</speed>
  <fix>3d</fix>
</trkpt>
<trkpt lat="-27.2679113" lon="151.2885465">
  <ele>542.88</ele>
  <time>2026-09-01T19:56:13Z</time>
  <course>151.15</course>
  <speed>25.520125391541477</speed>
  <fix>3d</fix>
</trkpt>
<trkpt lat="-27.2678736" lon="151.2885236">
  <ele>543.05</ele>
  <time>2026-09-01T19:56:13Z</time>
  <course>151.52</course>
  <speed>25.51</speed>
  <fix>3d</fix>
</trkpt>
<trkpt lat="-27.2679313" lon="151.2885586">
  <ele>542.89</ele>
  <time>2026-09-01T19:56:13Z</time>
  <course>151.26</course>
  <speed>25.52295045640296</speed>
  <fix>3d</fix>
</trkpt>
<trkpt lat="-27.2678736" lon="151.2885236">
  <ele>543.05</ele>
  <time>2026-09-01T19:56:13Z</time>
  <course>151.52</course>
  <speed>25.51</speed>
  <fix>3d</fix>
</trkpt>
<trkpt lat="-27.2679515" lon="151.2885706">
  <ele>542.9</ele>
  <time>2026-09-01T19:56:13Z</time>
  <course>151.44</course>
  <speed>25.517078594541346</speed>
  <fix>3d</fix>
</trkpt>
<trkpt lat="-27.267914" lon="151.2885481">
  <ele>543.07</ele>
  <time>2026-09-01T19:56:13Z</time>
  <course>151.82</course>
  <speed>25.52</speed>
  <fix>3d</fix>
</trkpt>
<trkpt lat="-27.2679717" lon="151.2885827">
  <ele>542.9</ele>
  <time>2026-09-01T19:56:13Z</time>
  <course>151.61</course>
  <speed>25.52015869856612</speed>
  <fix>3d</fix>
</trkpt>
<trkpt lat="-27.267914" lon="151.2885481">
  <ele>543.07</ele>
  <time>2026-09-01T19:56:13Z</time>
  <course>151.82</course>
  <speed>25.52</speed>
  <fix>3d</fix>
</trkpt>
<trkpt lat="-27.267992" lon="151.2885947">
  <ele>542.91</ele>
  <time>2026-09-01T19:56:13Z</time>
  <course>151.76</course>
  <speed>25.523371642477017</speed>
  <fix>3d</fix>
</trkpt>
<trkpt lat="-27.2679544" lon="151.2885723">
  <ele>543.08</ele>
  <time>2026-09-01T19:56:13Z</time>
  <course>152.1</course>
  <speed>25.52</speed>
  <fix>3d</fix>
</trkpt>
<trkpt lat="-27.2680123" lon="151.2886067">
  <ele>542.91</ele>
  <time>2026-09-01T19:56:13Z</time>
  <course>151.89</course>
  <speed>25.535579100541266</speed>
  <fix>3d</fix>
</trkpt>
<trkpt lat="-27.2679544" lon="151.2885723">
  <ele>543.08</ele>
  <time>2026-09-01T19:56:13Z</time>
  <course>152.1</course>
  <speed>25.52</speed>
  <fix>3d</fix>
</trkpt>
<trkpt lat="-27.2680327" lon="151.2886186">
  <ele>542.91</ele>
  <time>2026-09-01T19:56:13Z</time>
  <course>152.03</course>
  <speed>25.543682193450493</speed>
  <fix>3d</fix>
</trkpt>
<trkpt lat="-27.267995" lon="151.2885963">
  <ele>543.1</ele>
  <time>2026-09-01T19:56:13Z</time>
  <course>152.37</course>
  <speed>25.53</speed>
  <fix>3d</fix>
</trkpt>
<trkpt lat="-27.2680531" lon="151.2886305">
  <ele>542.92</ele>
  <time>2026-09-01T19:56:13Z</time>
  <course>152.16</course>
  <speed>25.55188055701576</speed>
  <fix>3d</fix>
</trkpt>
<trkpt lat="-27.267995" lon="151.2885963">
  <ele>543.1</ele>
  <time>2026-09-01T19:56:13Z</time>
  <course>152.37</course>
  <speed>25.53</speed>
  <fix>3d</fix>
</trkpt>
<trkpt lat="-27.2680736" lon="151.2886424">
  <ele>542.92</ele>
  <time>2026-09-01T19:56:13Z</time>
  <course>152.27</course>
  <speed>25.555594299487538</speed>
  <fix>3d</fix>
</trkpt>
<trkpt lat="-27.2680357" lon="151.2886201">
  <ele>543.1</ele>
  <time>2026-09-01T19:56:13Z</time>
  <course>152.63</course>
  <speed>25.54</speed>
  <fix>3d</fix>
</trkpt>
<trkpt lat="-27.268094" lon="151.2886542">
  <ele>542.93</ele>
  <time>2026-09-01T19:56:13Z</time>
  <course>152.37</course>
  <speed>25.56400007823502</speed>
  <fix>3d</fix>
</trkpt>
<trkpt lat="-27.2680357" lon="151.2886201">
  <ele>543.1</ele>
  <time>2026-09-01T19:56:13Z</time>
  <course>152.63</course>
  <speed>25.54</speed>
  <fix>3d</fix>
</trkpt>
<trkpt lat="-27.2681146" lon="151.2886659">
  <ele>542.94</ele>
  <time>2026-09-01T19:56:14Z</time>
  <course>152.48</course>
  <speed>25.57250085541107</speed>
  <fix>3d</fix>
</trkpt>
<trkpt lat="-27.2680765" lon="151.2886438">
  <ele>543.11</ele>
  <time>2026-09-01T19:56:14Z</time>
  <course>152.87</course>
  <speed>25.55</speed>
  <fix>3d</fix>
</trkpt>
<trkpt lat="-27.2681351" lon="151.2886777">
  <ele>542.95</ele>
  <time>2026-09-01T19:56:14Z</time>
  <course>152.61</course>
  <speed>25.57218019645568</speed>
  <fix>3d</fix>
</trkpt>
<trkpt lat="-27.2680765" lon="151.2886438">
  <ele>543.11</ele>
  <time>2026-09-01T19:56:14Z</time>
  <course>152.87</course>
  <speed>25.55</speed>
  <fix>3d</fix>
</trkpt>
<trkpt lat="-27.2681556" lon="151.2886893">
  <ele>542.96</ele>
  <time>2026-09-01T19:56:14Z</time>
  <course>152.72</course>
  <speed>25.58537472854365</speed>
  <fix>3d</fix>
</trkpt>
<trkpt lat="-27.2681174" lon="151.2886672">
  <ele>543.13</ele>
  <time>2026-09-01T19:56:14Z</time>
  <course>153.09</course>
  <speed>25.55</speed>
  <fix>3d</fix>
</trkpt>
<trkpt lat="-27.2681762" lon="151.288701">
  <ele>542.98</ele>
  <time>2026-09-01T19:56:14Z</time>
  <course>152.86</course>
  <speed>25.59413409357699</speed>
  <fix>3d</fix>
</trkpt>
<trkpt lat="-27.2681174" lon="151.2886672">
  <ele>543.13</ele>
  <time>2026-09-01T19:56:14Z</time>
  <course>153.09</course>
  <speed>25.55</speed>
  <fix>3d</fix>
</trkpt>
<trkpt lat="-27.2681968" lon="151.2887126">
  <ele>542.98</ele>
  <time>2026-09-01T19:56:14Z</time>
  <course>152.9</course>
  <speed>25.59853120786425</speed>
  <fix>3d</fix>
</trkpt>
<trkpt lat="-27.2681584" lon="151.2886906">
  <ele>543.15</ele>
  <time>2026-09-01T19:56:14Z</time>
  <course>153.29</course>
  <speed>25.56</speed>
  <fix>3d</fix>
</trkpt>
<trkpt lat="-27.2682172" lon="151.2887241">
  <ele>542.99</ele>
  <time>2026-09-01T19:56:14Z</time>
  <course>152.92</course>
  <speed>25.602978342372595</speed>
  <fix>3d</fix>
</trkpt>
<trkpt lat="-27.2681584" lon="151.2886906">
  <ele>543.15</ele>
  <time>2026-09-01T19:56:14Z</time>
  <course>153.29</course>
  <speed>25.56</speed>
  <fix>3d</fix>
</trkpt>
<trkpt lat="-27.2682377" lon="151.2887355">
  <ele>543.0</ele>
  <time>2026-09-01T19:56:14Z</time>
  <course>153.06</course>
  <speed>25.59852534815238</speed>
  <fix>3d</fix>
</trkpt>
<trkpt lat="-27.2681994" lon="151.2887137">
  <ele>543.16</ele>
  <time>2026-09-01T19:56:14Z</time>
  <course>153.48</course>
  <speed>25.57</speed>
  <fix>3d</fix>
</trkpt>
<trkpt lat="-27.2682583" lon="151.288747">
  <ele>543.01</ele>
  <time>2026-09-01T19:56:14Z</time>
  <course>153.2</course>
  <speed>25.594110650694624</speed>
  <fix>3d</fix>
</trkpt>
<trkpt lat="-27.2681994" lon="151.2887137">
  <ele>543.16</ele>
  <time>2026-09-01T19:56:14Z</time>
  <course>153.48</course>
  <speed>25.57</speed>
  <fix>3d</fix>
</trkpt>
<trkpt lat="-27.2682787" lon="151.2887583">
  <ele>543.02</ele>
  <time>2026-09-01T19:56:14Z</time>
  <course>153.24</course>
  <speed>25.589734269819996</speed>
  <fix>3d</fix>
</trkpt>
<trkpt lat="-27.2682406" lon="151.2887366">
  <ele>543.18</ele>
  <time>2026-09-01T19:56:14Z</time>
  <course>153.65</course>
  <speed>25.57</speed>
  <fix>3d</fix>
</trkpt>
<trkpt lat="-27.2682994" lon="151.2887698">
  <ele>543.03</ele>
  <time>2026-09-01T19:56:14Z</time>
  <course>153.39</course>
  <speed>25.585396225190653</speed>
  <fix>3d</fix>
</trkpt>
<trkpt lat="-27.2682406" lon="151.2887366">
  <ele>543.18</ele>
  <time>2026-09-01T19:56:14Z</time>
  <course>153.65</course>
  <speed>25.57</speed>
  <fix>3d</fix>
</trkpt>
<trkpt lat="-27.2683198" lon="151.2887811">
  <ele>543.04</ele>
  <time>2026-09-01T19:56:14Z</time>
  <course>153.47</course>
  <speed>25.567708149147826</speed>
  <fix>3d</fix>
</trkpt>
<trkpt lat="-27.2682819" lon="151.2887596">
  <ele>543.19</ele>
  <time>2026-09-01T19:56:14Z</time>
  <course>153.79</course>
  <speed>25.57</speed>
  <fix>3d</fix>
</trkpt>
<trkpt lat="-27.2683403" lon="151.2887924">
  <ele>543.05</ele>
  <time>2026-09-01T19:56:14Z</time>
  <course>153.51</course>
  <speed>25.567858729271798</speed>
  <fix>3d</fix>
</trkpt>
<trkpt lat="-27.2682819" lon="151.2887596">
  <ele>543.19</ele>
  <time>2026-09-01T19:56:14Z</time>
  <course>153.79</course>
  <speed>25.57</speed>
  <fix>3d</fix>
</trkpt>
<trkpt lat="-27.2683615" lon="151.288804">
  <ele>543.06</ele>
  <time>2026-09-01T19:56:14Z</time>
  <course>153.57</course>
  <speed>25.559049278093266</speed>
  <fix>3d</fix>
</trkpt>
<trkpt lat="-27.2683232" lon="151.2887824">
  <ele>543.2</ele>
  <time>2026-09-01T19:56:14Z</time>
  <course>153.92</course>
  <speed>25.58</speed>
  <fix>3d</fix>
</trkpt>
<trkpt lat="-27.2683819" lon="151.2888151">
  <ele>543.06</ele>
  <time>2026-09-01T19:56:14Z</time>
  <course>153.64</course>
  <speed>25.55923512157592</speed>
  <fix>3d</fix>
</trkpt>
<trkpt lat="-27.2683644" lon="151.2888051">
  <ele>543.22</ele>
  <time>2026-09-01T19:56:14Z</time>
  <course>154.03</course>
  <speed>25.58</speed>
  <fix>3d</fix>
</trkpt>
<trkpt lat="-27.2684025" lon="151.2888264">
  <ele>543.07</ele>
  <time>2026-09-01T19:56:14Z</time>
  <course>153.7</course>
  <speed>25.559440525958312</speed>
  <fix>3d</fix>
</trkpt>
<trkpt lat="-27.2683644" lon="151.2888051">
  <ele>543.22</ele>
  <time>2026-09-01T19:56:14Z</time>
  <course>154.03</course>
  <speed>25.58</speed>
  <fix>3d</fix>
</trkpt>
<trkpt lat="-27.2684232" lon="151.2888377">
  <ele>543.07</ele>
  <time>2026-09-01T19:56:14Z</time>
  <course>153.71</course>
  <speed>25.564045063330646</speed>
  <fix>3d</fix>
</trkpt>
<trkpt lat="-27.2684058" lon="151.2888277">
  <ele>543.23</ele>
  <time>2026-09-01T19:56:14Z</time>
  <course>154.11</course>
  <speed>25.58</speed>
  <fix>3d</fix>
</trkpt>
<trkpt lat="-27.2684439" lon="151.288849">
  <ele>543.07</ele>
  <time>2026-09-01T19:56:14Z</time>
  <course>153.77</course>
  <speed>25.568656593571745</speed>
  <fix>3d</fix>
</trkpt>
<trkpt lat="-27.2684058" lon="151.2888277">
  <ele>543.23</ele>
  <time>2026-09-01T19:56:14Z</time>
  <course>154.11</course>
  <speed>25.58</speed>
  <fix>3d</fix>
</trkpt>
<trkpt lat="-27.2684648" lon="151.2888604">
  <ele>543.08</ele>
  <time>2026-09-01T19:56:14Z</time>
  <course>153.82</course>
  <speed>25.573275112898624</speed>
  <fix>3d</fix>
</trkpt>
<trkpt lat="-27.2684471" lon="151.2888502">
  <ele>543.24</ele>
  <time>2026-09-01T19:56:14Z</time>
  <course>154.18</course>
  <speed>25.59</speed>
  <fix>3d</fix>
</trkpt>
<trkpt lat="-27.2684851" lon="151.2888714">
  <ele>543.08</ele>
  <time>2026-09-01T19:56:14Z</time>
  <course>153.85</course>
  <speed>25.57790061752528</speed>
  <fix>3d</fix>
</trkpt>
<trkpt lat="-27.2684471" lon="151.2888502">
  <ele>543.24</ele>
  <time>2026-09-01T19:56:14Z</time>
  <course>154.18</course>
  <speed>25.59</speed>
  <fix>3d</fix>
</trkpt>
<trkpt lat="-27.2685058" lon="151.2888827">
  <ele>543.09</ele>
  <time>2026-09-01T19:56:14Z</time>
  <course>153.89</course>
  <speed>25.586897037350973</speed>
  <fix>3d</fix>
</trkpt>
<trkpt lat="-27.2684471" lon="151.2888502">
  <ele>543.24</ele>
  <time>2026-09-01T19:56:14Z</time>
  <course>154.18</course>
  <speed>25.59</speed>
  <fix>3d</fix>
</trkpt>
<trkpt lat="-27.2685266" lon="151.288894">
  <ele>543.1</ele>
  <time>2026-09-01T19:56:14Z</time>
  <course>153.93</course>
  <speed>25.59153180253187</speed>
  <fix>3d</fix>
</trkpt>
<trkpt lat="-27.2684885" lon="151.2888727">
  <ele>543.24</ele>
  <time>2026-09-01T19:56:14Z</time>
  <course>154.23</course>
  <speed>25.59</speed>
  <fix>3d</fix>
</trkpt>
<trkpt lat="-27.2685474" lon="151.2889052">
  <ele>543.1</ele>
  <time>2026-09-01T19:56:14Z</time>
  <course>153.94</course>
  <speed>25.59617354215274</speed>
  <fix>3d</fix>
</trkpt>
<trkpt lat="-27.2684885" lon="151.2888727">
  <ele>543.24</ele>
  <time>2026-09-01T19:56:14Z</time>
  <course>154.23</course>
  <speed>25.59</speed>
  <fix>3d</fix>
</trkpt>
<trkpt lat="-27.2685682" lon="151.2889165">
  <ele>543.11</ele>
  <time>2026-09-01T19:56:14Z</time>
  <course>153.88</course>
  <speed>25.60082225241994</speed>
  <fix>3d</fix>
</trkpt>
<trkpt lat="-27.2685299" lon="151.2888952">
  <ele>543.25</ele>
  <time>2026-09-01T19:56:14Z</time>
  <course>154.28</course>
  <speed>25.59</speed>
  <fix>3d</fix>
</trkpt>
<trkpt lat="-27.268589" lon="151.2889278">
  <ele>543.12</ele>
  <time>2026-09-01T19:56:14Z</time>
  <course>153.92</course>
  <speed>25.60082225241994</speed>
  <fix>3d</fix>
</trkpt>
<trkpt lat="-27.2685299" lon="151.2888952">
  <ele>543.25</ele>
  <time>2026-09-01T19:56:14Z</time>
  <course>154.28</course>
  <speed>25.59</speed>
  <fix>3d</fix>
</trkpt>
<trkpt lat="-27.2686098" lon="151.288939">
  <ele>543.12</ele>
  <time>2026-09-01T19:56:14Z</time>
  <course>154.0</course>
  <speed>25.609826239160626</speed>
  <fix>3d</fix>
</trkpt>
<trkpt lat="-27.2685714" lon="151.2889176">
  <ele>543.27</ele>
  <time>2026-09-01T19:56:14Z</time>
  <course>154.31</course>
  <speed>25.59</speed>
  <fix>3d</fix>
</trkpt>
<trkpt lat="-27.2686306" lon="151.2889502">
  <ele>543.13</ele>
  <time>2026-09-01T19:56:14Z</time>
  <course>153.96</course>
  <speed>25.605477929536875</speed>
  <fix>3d</fix>
</trkpt>
<trkpt lat="-27.2685714" lon="151.2889176">
  <ele>543.27</ele>
  <time>2026-09-01T19:56:14Z</time>
  <course>154.31</course>
  <speed>25.59</speed>
  <fix>3d</fix>
</trkpt>
<trkpt lat="-27.2686511" lon="151.2889613">
  <ele>543.14</ele>
  <time>2026-09-01T19:56:14Z</time>
  <course>153.96</course>
  <speed>25.605477929536875</speed>
  <fix>3d</fix>
</trkpt>
<trkpt lat="-27.2686128" lon="151.2889399">
  <ele>543.28</ele>
  <time>2026-09-01T19:56:14Z</time>
  <course>154.33</course>
  <speed>25.59</speed>
  <fix>3d</fix>
</trkpt>
<trkpt lat="-27.2686718" lon="151.2889725">
  <ele>543.15</ele>
  <time>2026-09-01T19:56:14Z</time>
  <course>154.04</course>
  <speed>25.605477929536875</speed>
  <fix>3d</fix>
</trkpt>
<trkpt lat="-27.2686128" lon="151.2889399">
  <ele>543.28</ele>
  <time>2026-09-01T19:56:14Z</time>
  <course>154.33</course>
  <speed>25.59</speed>
  <fix>3d</fix>
</trkpt>
<trkpt lat="-27.2686924" lon="151.2889836">
  <ele>543.16</ele>
  <time>2026-09-01T19:56:14Z</time>
  <course>154.07</course>
  <speed>25.596472413205692</speed>
  <fix>3d</fix>
</trkpt>
<trkpt lat="-27.2686542" lon="151.2889624">
  <ele>543.29</ele>
  <time>2026-09-01T19:56:14Z</time>
  <course>154.34</course>
  <speed>25.58</speed>
  <fix>3d</fix>
</trkpt>
<trkpt lat="-27.268713" lon="151.2889947">
  <ele>543.17</ele>
  <time>2026-09-01T19:56:14Z</time>
  <course>154.09</course>
  <speed>25.596472413205692</speed>
  <fix>3d</fix>
</trkpt>
<trkpt lat="-27.2686542" lon="151.2889624">
  <ele>543.29</ele>
  <time>2026-09-01T19:56:14Z</time>
  <course>154.34</course>
  <speed>25.58</speed>
  <fix>3d</fix>
</trkpt>
<trkpt lat="-27.2687337" lon="151.2890059">
  <ele>543.17</ele>
  <time>2026-09-01T19:56:14Z</time>
  <course>154.06</course>
  <speed>25.58311943450212</speed>
  <fix>3d</fix>
</trkpt>
<trkpt lat="-27.2686957" lon="151.2889848">
  <ele>543.31</ele>
  <time>2026-09-01T19:56:14Z</time>
  <course>154.34</course>
  <speed>25.58</speed>
  <fix>3d</fix>
</trkpt>
<trkpt lat="-27.2687543" lon="151.289017">
  <ele>543.18</ele>
  <time>2026-09-01T19:56:14Z</time>
  <course>153.99</course>
  <speed>25.57411386539131</speed>
  <fix>3d</fix>
</trkpt>
<trkpt lat="-27.2686957" lon="151.2889848">
  <ele>543.31</ele>
  <time>2026-09-01T19:56:14Z</time>
  <course>154.34</course>
  <speed>25.58</speed>
  <fix>3d</fix>
</trkpt>
<trkpt lat="-27.268775" lon="151.2890282">
  <ele>543.19</ele>
  <time>2026-09-01T19:56:14Z</time>
  <course>154.05</course>
  <speed>25.5694602993493</speed>
  <fix>3d</fix>
</trkpt>
<trkpt lat="-27.2687371" lon="151.2890072">
  <ele>543.32</ele>
  <time>2026-09-01T19:56:14Z</time>
  <course>154.32</course>
  <speed>25.58</speed>
  <fix>3d</fix>
</trkpt>
<trkpt lat="-27.2687964" lon="151.2890398">
  <ele>543.19</ele>
  <time>2026-09-01T19:56:14Z</time>
  <course>154.06</course>
  <speed>25.5694602993493</speed>
  <fix>3d</fix>
</trkpt>
<trkpt lat="-27.2687786" lon="151.2890297">
  <ele>543.33</ele>
  <time>2026-09-01T19:56:14Z</time>
  <course>154.3</course>
  <speed>25.58</speed>
  <fix>3d</fix>
</trkpt>
<trkpt lat="-27.2688171" lon="151.289051">
  <ele>543.2</ele>
  <time>2026-09-01T19:56:14Z</time>
  <course>154.04</course>
  <speed>25.5694602993493</speed>
  <fix>3d</fix>
</trkpt>
<trkpt lat="-27.2687786" lon="151.2890297">
  <ele>543.33</ele>
  <time>2026-09-01T19:56:14Z</time>
  <course>154.3</course>
  <speed>25.58</speed>
  <fix>3d</fix>
</trkpt>
<trkpt lat="-27.2688378" lon="151.2890622">
  <ele>543.2</ele>
  <time>2026-09-01T19:56:14Z</time>
  <course>153.96</course>
  <speed>25.57381473304286</speed>
  <fix>3d</fix>
</trkpt>
<trkpt lat="-27.26882" lon="151.2890521">
  <ele>543.34</ele>
  <time>2026-09-01T19:56:14Z</time>
  <course>154.27</course>
  <speed>25.57</speed>
  <fix>3d</fix>
</trkpt>
<trkpt lat="-27.2688586" lon="151.2890735">
  <ele>543.2</ele>
  <time>2026-09-01T19:56:14Z</time>
  <course>153.94</course>
  <speed>25.578172335020344</speed>
  <fix>3d</fix>
</trkpt>
<trkpt lat="-27.26882" lon="151.2890521">
  <ele>543.34</ele>
  <time>2026-09-01T19:56:14Z</time>
  <course>154.27</course>
  <speed>25.57</speed>
  <fix>3d</fix>
</trkpt>
<trkpt lat="-27.2688794" lon="151.2890848">
  <ele>543.2</ele>
  <time>2026-09-01T19:56:14Z</time>
  <course>153.96</course>
  <speed>25.59153180253187</speed>
  <fix>3d</fix>
</trkpt>
<trkpt lat="-27.2688614" lon="151.2890745">
  <ele>543.35</ele>
  <time>2026-09-01T19:56:14Z</time>
  <course>154.25</course>
  <speed>25.57</speed>
  <fix>3d</fix>
</trkpt>
<trkpt lat="-27.2689004" lon="151.2890962">
  <ele>543.2</ele>
  <time>2026-09-01T19:56:14Z</time>
  <course>153.94</course>
  <speed>25.595894202000444</speed>
  <fix>3d</fix>
</trkpt>
<trkpt lat="-27.2688614" lon="151.2890745">
  <ele>543.35</ele>
  <time>2026-09-01T19:56:14Z</time>
  <course>154.25</course>
  <speed>25.57</speed>
  <fix>3d</fix>
</trkpt>
<trkpt lat="-27.2689213" lon="151.2891075">
  <ele>543.2</ele>
  <time>2026-09-01T19:56:14Z</time>
  <course>153.93</course>
  <speed>25.60025976430708</speed>
  <fix>3d</fix>
</trkpt>
<trkpt lat="-27.2689027" lon="151.2890969">
  <ele>543.36</ele>
  <time>2026-09-01T19:56:14Z</time>
  <course>154.21</course>
  <speed>25.57</speed>
  <fix>3d</fix>
</trkpt>
<trkpt lat="-27.2689421" lon="151.2891188">
  <ele>543.2</ele>
  <time>2026-09-01T19:56:14Z</time>
  <course>153.91</course>
  <speed>25.61362332822125</speed>
  <fix>3d</fix>
</trkpt>
<trkpt lat="-27.2689027" lon="151.2890969">
  <ele>543.36</ele>
  <time>2026-09-01T19:56:14Z</time>
  <course>154.21</course>
  <speed>25.57</speed>
  <fix>3d</fix>
</trkpt>
<trkpt lat="-27.2689629" lon="151.2891301">
  <ele>543.2</ele>
  <time>2026-09-01T19:56:14Z</time>
  <course>153.87</course>
  <speed>25.617993676320555</speed>
  <fix>3d</fix>
</trkpt>
<trkpt lat="-27.2689441" lon="151.2891194">
  <ele>543.36</ele>
  <time>2026-09-01T19:56:14Z</time>
  <course>154.17</course>
  <speed>25.57</speed>
  <fix>3d</fix>
</trkpt>
<trkpt lat="-27.2689835" lon="151.2891414">
  <ele>543.2</ele>
  <time>2026-09-01T19:56:14Z</time>
  <course>153.82</course>
  <speed>25.62236718181987</speed>
  <fix>3d</fix>
</trkpt>
<trkpt lat="-27.2689441" lon="151.2891194">
  <ele>543.36</ele>
  <time>2026-09-01T19:56:14Z</time>
  <course>154.17</course>
  <speed>25.57</speed>
  <fix>3d</fix>
</trkpt>
<trkpt lat="-27.2690042" lon="151.2891527">
  <ele>543.2</ele>
  <time>2026-09-01T19:56:14Z</time>
  <course>153.76</course>
  <speed>25.61775360955757</speed>
  <fix>3d</fix>
</trkpt>
<trkpt lat="-27.2689854" lon="151.2891419">
  <ele>543.37</ele>
  <time>2026-09-01T19:56:14Z</time>
  <course>154.12</course>
  <speed>25.57</speed>
  <fix>3d</fix>
</trkpt>
<trkpt lat="-27.2690248" lon="151.2891639">
  <ele>543.2</ele>
  <time>2026-09-01T19:56:14Z</time>
  <course>153.71</course>
  <speed>25.613147014765676</speed>
  <fix>3d</fix>
</trkpt>
<trkpt lat="-27.2689854" lon="151.2891419">
  <ele>543.37</ele>
  <time>2026-09-01T19:56:14Z</time>
  <course>154.12</course>
  <speed>25.57</speed>
  <fix>3d</fix>
</trkpt>
<trkpt lat="-27.2690449" lon="151.2891749">
  <ele>543.2</ele>
  <time>2026-09-01T19:56:14Z</time>
  <course>153.69</course>
  <speed>25.60854740120962</speed>
  <fix>3d</fix>
</trkpt>
<trkpt lat="-27.2689854" lon="151.2891419">
  <ele>543.37</ele>
  <time>2026-09-01T19:56:14Z</time>
  <course>154.12</course>
  <speed>25.57</speed>
  <fix>3d</fix>
</trkpt>
<trkpt lat="-27.2690653" lon="151.2891861">
  <ele>543.2</ele>
  <time>2026-09-01T19:56:14Z</time>
  <course>153.64</course>
  <speed>25.60835020066697</speed>
  <fix>3d</fix>
</trkpt>
<trkpt lat="-27.2690267" lon="151.2891646">
  <ele>543.37</ele>
  <time>2026-09-01T19:56:14Z</time>
  <course>154.05</course>
  <speed>25.57</speed>
  <fix>3d</fix>
</trkpt>
<trkpt lat="-27.2690858" lon="151.2891974">
  <ele>543.2</ele>
  <time>2026-09-01T19:56:14Z</time>
  <course>153.67</course>
  <speed>25.60376925376418</speed>
  <fix>3d</fix>
</trkpt>
<trkpt lat="-27.2690267" lon="151.2891646">
  <ele>543.37</ele>
  <time>2026-09-01T19:56:14Z</time>
  <course>154.05</course>
  <speed>25.57</speed>
  <fix>3d</fix>
</trkpt>
<trkpt lat="-27.2691065" lon="151.2892087">
  <ele>543.2</ele>
  <time>2026-09-01T19:56:14Z</time>
  <course>153.67</course>
  <speed>25.599195299852692</speed>
  <fix>3d</fix>
</trkpt>
<trkpt lat="-27.269068" lon="151.2891872">
  <ele>543.37</ele>
  <time>2026-09-01T19:56:14Z</time>
  <course>153.97</course>
  <speed>25.57</speed>
  <fix>3d</fix>
</trkpt>
<trkpt lat="-27.2691271" lon="151.2892201">
  <ele>543.21</ele>
  <time>2026-09-01T19:56:14Z</time>
  <course>153.58</course>
  <speed>25.608014370505185</speed>
  <fix>3d</fix>
</trkpt>
<trkpt lat="-27.269068" lon="151.2891872">
  <ele>543.37</ele>
  <time>2026-09-01T19:56:14Z</time>
  <course>153.97</course>
  <speed>25.57</speed>
  <fix>3d</fix>
</trkpt>
<trkpt lat="-27.2691478" lon="151.2892315">
  <ele>543.21</ele>
  <time>2026-09-01T19:56:14Z</time>
  <course>153.56</course>
  <speed>25.616846019758167</speed>
  <fix>3d</fix>
</trkpt>
<trkpt lat="-27.2691094" lon="151.28921">
  <ele>543.37</ele>
  <time>2026-09-01T19:56:14Z</time>
  <course>153.9</course>
  <speed>25.58</speed>
  <fix>3d</fix>
</trkpt>
<trkpt lat="-27.2691686" lon="151.289243">
  <ele>543.2</ele>
  <time>2026-09-01T19:56:14Z</time>
  <course>153.52</course>
  <speed>25.621266557295716</speed>
  <fix>3d</fix>
</trkpt>
<trkpt lat="-27.2691094" lon="151.28921">
  <ele>543.37</ele>
  <time>2026-09-01T19:56:14Z</time>
  <course>153.9</course>
  <speed>25.58</speed>
  <fix>3d</fix>
</trkpt>
<trkpt lat="-27.2691894" lon="151.2892545">
  <ele>543.2</ele>
  <time>2026-09-01T19:56:14Z</time>
  <course>153.47</course>
  <speed>25.630117050064364</speed>
  <fix>3d</fix>
</trkpt>
<trkpt lat="-27.2691507" lon="151.2892327">
  <ele>543.37</ele>
  <time>2026-09-01T19:56:14Z</time>
  <course>153.83</course>
  <speed>25.58</speed>
  <fix>3d</fix>
</trkpt>
<trkpt lat="-27.2692101" lon="151.289266">
  <ele>543.2</ele>
  <time>2026-09-01T19:56:14Z</time>
  <course>153.42</course>
  <speed>25.63454700204394</speed>
  <fix>3d</fix>
</trkpt>
<trkpt lat="-27.2691507" lon="151.2892327">
  <ele>543.37</ele>
  <time>2026-09-01T19:56:14Z</time>
  <course>153.83</course>
  <speed>25.58</speed>
  <fix>3d</fix>
</trkpt>
<trkpt lat="-27.2692315" lon="151.2892778">
  <ele>543.19</ele>
  <time>2026-09-01T19:56:14Z</time>
  <course>153.43</course>
  <speed>25.638980088919293</speed>
  <fix>3d</fix>
</trkpt>
<trkpt lat="-27.2691919" lon="151.2892556">
  <ele>543.36</ele>
  <time>2026-09-01T19:56:14Z</time>
  <course>153.77</course>
  <speed>25.59</speed>
  <fix>3d</fix>
</trkpt>
<trkpt lat="-27.269252" lon="151.2892893">
  <ele>543.18</ele>
  <time>2026-09-01T19:56:14Z</time>
  <course>153.42</course>
  <speed>25.643416309064595</speed>
  <fix>3d</fix>
</trkpt>
<trkpt lat="-27.2692332" lon="151.2892785">
  <ele>543.36</ele>
  <time>2026-09-01T19:56:14Z</time>
  <course>153.72</course>
  <speed>25.59</speed>
  <fix>3d</fix>
</trkpt>
<trkpt lat="-27.2692727" lon="151.2893008">
  <ele>543.18</ele>
  <time>2026-09-01T19:56:14Z</time>
  <course>153.37</course>
  <speed>25.64785566085399</speed>
  <fix>3d</fix>
</trkpt>
<trkpt lat="-27.2692332" lon="151.2892785">
  <ele>543.36</ele>
  <time>2026-09-01T19:56:14Z</time>
  <course>153.72</course>
  <speed>25.59</speed>
  <fix>3d</fix>
</trkpt>
<trkpt lat="-27.2692934" lon="151.2893123">
  <ele>543.18</ele>
  <time>2026-09-01T19:56:14Z</time>
  <course>153.3</course>
  <speed>25.652298142661603</speed>
  <fix>3d</fix>
</trkpt>
<trkpt lat="-27.2692744" lon="151.2893014">
  <ele>543.36</ele>
  <time>2026-09-01T19:56:14Z</time>
  <course>153.67</course>
  <speed>25.59</speed>
  <fix>3d</fix>
</trkpt>
<trkpt lat="-27.2693141" lon="151.2893238">
  <ele>543.18</ele>
  <time>2026-09-01T19:56:14Z</time>
  <course>153.26</course>
  <speed>25.656743752861548</speed>
  <fix>3d</fix>
</trkpt>
<trkpt lat="-27.2692744" lon="151.2893014">
  <ele>543.36</ele>
  <time>2026-09-01T19:56:14Z</time>
  <course>153.67</course>
  <speed>25.59</speed>
  <fix>3d</fix>
</trkpt>
<trkpt lat="-27.269335" lon="151.2893354">
  <ele>543.18</ele>
  <time>2026-09-01T19:56:14Z</time>
  <course>153.28</course>
  <speed>25.661192489827904</speed>
  <fix>3d</fix>
</trkpt>
<trkpt lat="-27.2693156" lon="151.2893244">
  <ele>543.36</ele>
  <time>2026-09-01T19:56:14Z</time>
  <course>153.63</course>
  <speed>25.6</speed>
  <fix>3d</fix>
</trkpt>
<trkpt lat="-27.2693556" lon="151.289347">
  <ele>543.18</ele>
  <time>2026-09-01T19:56:14Z</time>
  <course>153.25</course>
  <speed>25.66564435193475</speed>
  <fix>3d</fix>
</trkpt>
<trkpt lat="-27.2693156" lon="151.2893244">
  <ele>543.36</ele>
  <time>2026-09-01T19:56:14Z</time>
  <course>153.63</course>
  <speed>25.6</speed>
  <fix>3d</fix>
</trkpt>
<trkpt lat="-27.2693763" lon="151.2893585">
  <ele>543.18</ele>
  <time>2026-09-01T19:56:14Z</time>
  <course>153.26</course>
  <speed>25.661147675035892</speed>
  <fix>3d</fix>
</trkpt>
<trkpt lat="-27.2693568" lon="151.2893474">
  <ele>543.36</ele>
  <time>2026-09-01T19:56:14Z</time>
  <course>153.59</course>
  <speed>25.6</speed>
  <fix>3d</fix>
</trkpt>
<trkpt lat="-27.269397" lon="151.2893701">
  <ele>543.18</ele>
  <time>2026-09-01T19:56:14Z</time>
  <course>153.21</course>
  <speed>25.66560733744674</speed>
  <fix>3d</fix>
</trkpt>
<trkpt lat="-27.2693568" lon="151.2893474">
  <ele>543.36</ele>
  <time>2026-09-01T19:56:14Z</time>
  <course>153.59</course>
  <speed>25.6</speed>
  <fix>3d</fix>
</trkpt>
<trkpt lat="-27.2694176" lon="151.2893816">
  <ele>543.18</ele>
  <time>2026-09-01T19:56:14Z</time>
  <course>153.14</course>
  <speed>25.670070120667766</speed>
  <fix>3d</fix>
</trkpt>
<trkpt lat="-27.269398" lon="151.2893704">
  <ele>543.36</ele>
  <time>2026-09-01T19:56:14Z</time>
  <course>153.55</course>
  <speed>25.6</speed>
  <fix>3d</fix>
</trkpt>
<trkpt lat="-27.2694382" lon="151.2893931">
  <ele>543.19</ele>
  <time>2026-09-01T19:56:14Z</time>
  <course>153.17</course>
  <speed>25.661122344901443</speed>
  <fix>3d</fix>
</trkpt>
<trkpt lat="-27.269398" lon="151.2893704">
  <ele>543.36</ele>
  <time>2026-09-01T19:56:14Z</time>
  <course>153.55</course>
  <speed>25.6</speed>
  <fix>3d</fix>
</trkpt>
<trkpt lat="-27.2694587" lon="151.2894046">
  <ele>543.19</ele>
  <time>2026-09-01T19:56:14Z</time>
  <course>153.17</course>
  <speed>25.652175346352205</speed>
  <fix>3d</fix>
</trkpt>
<trkpt lat="-27.2694391" lon="151.2893934">
  <ele>543.36</ele>
  <time>2026-09-01T19:56:14Z</time>
  <course>153.51</course>
  <speed>25.6</speed>
  <fix>3d</fix>
</trkpt>
<trkpt lat="-27.2694791" lon="151.2894161">
  <ele>543.2</ele>
  <time>2026-09-01T19:56:14Z</time>
  <course>153.11</course>
  <speed>25.656644363595174</speed>
  <fix>3d</fix>
</trkpt>
<trkpt lat="-27.2694391" lon="151.2893934">
  <ele>543.36</ele>
  <time>2026-09-01T19:56:14Z</time>
  <course>153.51</course>
  <speed>25.6</speed>
  <fix>3d</fix>
</trkpt>
<trkpt lat="-27.2694996" lon="151.2894276">
  <ele>543.2</ele>
  <time>2026-09-01T19:56:14Z</time>
  <course>153.03</course>
  <speed>25.647699701922587</speed>
  <fix>3d</fix>
</trkpt>
<trkpt lat="-27.2694803" lon="151.2894165">
  <ele>543.37</ele>
  <time>2026-09-01T19:56:14Z</time>
  <course>153.48</course>
  <speed>25.61</speed>
  <fix>3d</fix>
</trkpt>
<trkpt lat="-27.26952" lon="151.2894391">
  <ele>543.21</ele>
  <time>2026-09-01T19:56:14Z</time>
  <course>153.05</course>
  <speed>25.634289535698077</speed>
  <fix>3d</fix>
</trkpt>
<trkpt lat="-27.2694803" lon="151.2894165">
  <ele>543.37</ele>
  <time>2026-09-01T19:56:14Z</time>
  <course>153.48</course>
  <speed>25.61</speed>
  <fix>3d</fix>
</trkpt>
<trkpt lat="-27.2695404" lon="151.2894506">
  <ele>543.21</ele>
  <time>2026-09-01T19:56:14Z</time>
  <course>153.05</course>
  <speed>25.62983027645716</speed>
  <fix>3d</fix>
</trkpt>
<trkpt lat="-27.2695214" lon="151.2894396">
  <ele>543.39</ele>
  <time>2026-09-01T19:56:14Z</time>
  <course>153.44</course>
  <speed>25.61</speed>
  <fix>3d</fix>
</trkpt>
<trkpt lat="-27.2695609" lon="151.2894621">
  <ele>543.22</ele>
  <time>2026-09-01T19:56:14Z</time>
  <course>153.07</course>
  <speed>25.62089186581919</speed>
  <fix>3d</fix>
</trkpt>
<trkpt lat="-27.2695214" lon="151.2894396">
  <ele>543.39</ele>
  <time>2026-09-01T19:56:14Z</time>
  <course>153.44</course>
  <speed>25.61</speed>
  <fix>3d</fix>
</trkpt>
<trkpt lat="-27.2695813" lon="151.2894736">
  <ele>543.22</ele>
  <time>2026-09-01T19:56:14Z</time>
  <course>153.1</course>
  <speed>25.61195424015903</speed>
  <fix>3d</fix>
</trkpt>
<trkpt lat="-27.2695626" lon="151.2894628">
  <ele>543.4</ele>
  <time>2026-09-01T19:56:14Z</time>
  <course>153.39</course>
  <speed>25.61</speed>
  <fix>3d</fix>
</trkpt>
<trkpt lat="-27.2696018" lon="151.2894851">
  <ele>543.22</ele>
  <time>2026-09-01T19:56:14Z</time>
  <course>153.08</course>
  <speed>25.616441985568567</speed>
  <fix>3d</fix>
</trkpt>
<trkpt lat="-27.2695626" lon="151.2894628">
  <ele>543.4</ele>
  <time>2026-09-01T19:56:14Z</time>
  <course>153.39</course>
  <speed>25.61</speed>
  <fix>3d</fix>
</trkpt>
<trkpt lat="-27.2696218" lon="151.2894964">
  <ele>543.23</ele>
  <time>2026-09-01T19:56:14Z</time>
  <course>153.05</course>
  <speed>25.616441985568567</speed>
  <fix>3d</fix>
</trkpt>
<trkpt lat="-27.2695626" lon="151.2894628">
  <ele>543.4</ele>
  <time>2026-09-01T19:56:14Z</time>
  <course>153.39</course>
  <speed>25.61</speed>
  <fix>3d</fix>
</trkpt>
<trkpt lat="-27.2696431" lon="151.2895084">
  <ele>543.23</ele>
  <time>2026-09-01T19:56:14Z</time>
  <course>153.04</course>
  <speed>25.60301740029874</speed>
  <fix>3d</fix>
</trkpt>
<trkpt lat="-27.2696039" lon="151.289486">
  <ele>543.4</ele>
  <time>2026-09-01T19:56:14Z</time>
  <course>153.36</course>
  <speed>25.61</speed>
  <fix>3d</fix>
</trkpt>
<trkpt lat="-27.2696637" lon="151.28952">
  <ele>543.23</ele>
  <time>2026-09-01T19:56:14Z</time>
  <course>153.07</course>
  <speed>25.607506711899934</speed>
  <fix>3d</fix>
</trkpt>
<trkpt lat="-27.269645" lon="151.2895093">
  <ele>543.41</ele>
  <time>2026-09-01T19:56:14Z</time>
  <course>153.35</course>
  <speed>25.61</speed>
  <fix>3d</fix>
</trkpt>
<trkpt lat="-27.2696841" lon="151.2895315">
  <ele>543.23</ele>
  <time>2026-09-01T19:56:14Z</time>
  <course>153.05</course>
  <speed>25.61195424015903</speed>
  <fix>3d</fix>
</trkpt>
<trkpt lat="-27.269645" lon="151.2895093">
  <ele>543.41</ele>
  <time>2026-09-01T19:56:14Z</time>
  <course>153.35</course>
  <speed>25.61</speed>
  <fix>3d</fix>
</trkpt>
<trkpt lat="-27.2697046" lon="151.2895431">
  <ele>543.23</ele>
  <time>2026-09-01T19:56:14Z</time>
  <course>152.95</course>
  <speed>25.60301740029874</speed>
  <fix>3d</fix>
</trkpt>
<trkpt lat="-27.2696861" lon="151.2895325">
  <ele>543.41</ele>
  <time>2026-09-01T19:56:14Z</time>
  <course>153.36</course>
  <speed>25.6</speed>
  <fix>3d</fix>
</trkpt>
<trkpt lat="-27.2697251" lon="151.2895547">
  <ele>543.23</ele>
  <time>2026-09-01T19:56:14Z</time>
  <course>152.89</course>
  <speed>25.60301740029874</speed>
  <fix>3d</fix>
</trkpt>
<trkpt lat="-27.2696861" lon="151.2895325">
  <ele>543.41</ele>
  <time>2026-09-01T19:56:14Z</time>
  <course>153.36</course>
  <speed>25.6</speed>
  <fix>3d</fix>
</trkpt>
<trkpt lat="-27.2697456" lon="151.2895663">
  <ele>543.23</ele>
  <time>2026-09-01T19:56:14Z</time>
  <course>152.87</course>
  <speed>25.607506711899934</speed>
  <fix>3d</fix>
</trkpt>
<trkpt lat="-27.2697272" lon="151.2895557">
  <ele>543.41</ele>
  <time>2026-09-01T19:56:14Z</time>
  <course>153.35</course>
  <speed>25.6</speed>
  <fix>3d</fix>
</trkpt>
<trkpt lat="-27.2697663" lon="151.2895779">
  <ele>543.23</ele>
  <time>2026-09-01T19:56:14Z</time>
  <course>152.88</course>
  <speed>25.603066222622633</speed>
  <fix>3d</fix>
</trkpt>
<trkpt lat="-27.2697272" lon="151.2895557">
  <ele>543.41</ele>
  <time>2026-09-01T19:56:14Z</time>
  <course>153.35</course>
  <speed>25.6</speed>
  <fix>3d</fix>
</trkpt>
<trkpt lat="-27.2697868" lon="151.2895895">
  <ele>543.23</ele>
  <time>2026-09-01T19:56:14Z</time>
  <course>152.91</course>
  <speed>25.603066222622633</speed>
  <fix>3d</fix>
</trkpt>
<trkpt lat="-27.2697683" lon="151.2895789">
  <ele>543.4</ele>
  <time>2026-09-01T19:56:14Z</time>
  <course>153.31</course>
  <speed>25.61</speed>
  <fix>3d</fix>
</trkpt>
<trkpt lat="-27.2698074" lon="151.2896012">
  <ele>543.23</ele>
  <time>2026-09-01T19:56:14Z</time>
  <course>152.93</course>
  <speed>25.607563335858412</speed>
  <fix>3d</fix>
</trkpt>
<trkpt lat="-27.2697683" lon="151.2895789">
  <ele>543.4</ele>
  <time>2026-09-01T19:56:14Z</time>
  <course>153.31</course>
  <speed>25.61</speed>
  <fix>3d</fix>
</trkpt>
<trkpt lat="-27.269828" lon="151.2896129">
  <ele>543.22</ele>
  <time>2026-09-01T19:56:14Z</time>
  <course>152.96</course>
  <speed>25.616494686041648</speed>
  <fix>3d</fix>
</trkpt>
<trkpt lat="-27.2698094" lon="151.2896022">
  <ele>543.39</ele>
  <time>2026-09-01T19:56:14Z</time>
  <course>153.29</course>
  <speed>25.61</speed>
  <fix>3d</fix>
</trkpt>
<trkpt lat="-27.2698488" lon="151.2896246">
  <ele>543.22</ele>
  <time>2026-09-01T19:56:14Z</time>
  <course>152.93</course>
  <speed>25.629923917171503</speed>
  <fix>3d</fix>
</trkpt>
<trkpt lat="-27.2698094" lon="151.2896022">
  <ele>543.39</ele>
  <time>2026-09-01T19:56:14Z</time>
  <course>153.29</course>
  <speed>25.61</speed>
  <fix>3d</fix>
</trkpt>
<trkpt lat="-27.2698694" lon="151.2896363">
  <ele>543.22</ele>
  <time>2026-09-01T19:56:14Z</time>
  <course>152.9</course>
  <speed>25.643353914806074</speed>
  <fix>3d</fix>
</trkpt>
<trkpt lat="-27.2698505" lon="151.2896254">
  <ele>543.39</ele>
  <time>2026-09-01T19:56:14Z</time>
  <course>153.29</course>
  <speed>25.61</speed>
  <fix>3d</fix>
</trkpt>
<trkpt lat="-27.2698902" lon="151.289648">
  <ele>543.22</ele>
  <time>2026-09-01T19:56:14Z</time>
  <course>152.88</course>
  <speed>25.652284498656254</speed>
  <fix>3d</fix>
</trkpt>
<trkpt lat="-27.2698505" lon="151.2896254">
  <ele>543.39</ele>
  <time>2026-09-01T19:56:14Z</time>
  <course>153.29</course>
  <speed>25.61</speed>
  <fix>3d</fix>
</trkpt>
<trkpt lat="-27.2699109" lon="151.2896598">
  <ele>543.22</ele>
  <time>2026-09-01T19:56:14Z</time>
  <course>152.88</course>
  <speed>25.656784677741676</speed>
  <fix>3d</fix>
</trkpt>
<trkpt lat="-27.2698916" lon="151.2896487">
  <ele>543.39</ele>
  <time>2026-09-01T19:56:14Z</time>
  <course>153.28</course>
  <speed>25.62</speed>
  <fix>3d</fix>
</trkpt>
<trkpt lat="-27.2699316" lon="151.2896715">
  <ele>543.22</ele>
  <time>2026-09-01T19:56:14Z</time>
  <course>152.94</course>
  <speed>25.67464508031221</speed>
  <fix>3d</fix>
</trkpt>
<trkpt lat="-27.2698916" lon="151.2896487">
  <ele>543.39</ele>
  <time>2026-09-01T19:56:14Z</time>
  <course>153.28</course>
  <speed>25.62</speed>
  <fix>3d</fix>
</trkpt>
<trkpt lat="-27.2699524" lon="151.2896832">
  <ele>543.22</ele>
  <time>2026-09-01T19:56:14Z</time>
  <course>152.84</course>
  <speed>25.67464508031221</speed>
  <fix>3d</fix>
</trkpt>
<trkpt lat="-27.2699327" lon="151.289672">
  <ele>543.39</ele>
  <time>2026-09-01T19:56:14Z</time>
  <course>153.29</course>
  <speed>25.62</speed>
  <fix>3d</fix>
</trkpt>
<trkpt lat="-27.2699731" lon="151.289695">
  <ele>543.23</ele>
  <time>2026-09-01T19:56:14Z</time>
  <course>152.83</course>
  <speed>25.67464508031221</speed>
  <fix>3d</fix>
</trkpt>
<trkpt lat="-27.2699327" lon="151.289672">
  <ele>543.39</ele>
  <time>2026-09-01T19:56:14Z</time>
  <course>153.29</course>
  <speed>25.62</speed>
  <fix>3d</fix>
</trkpt>
<trkpt lat="-27.2699938" lon="151.2897067">
  <ele>543.23</ele>
  <time>2026-09-01T19:56:14Z</time>
  <course>152.88</course>
  <speed>25.683576464347794</speed>
  <fix>3d</fix>
</trkpt>
<trkpt lat="-27.2699739" lon="151.2896953">
  <ele>543.39</ele>
  <time>2026-09-01T19:56:14Z</time>
  <course>153.3</course>
  <speed>25.62</speed>
  <fix>3d</fix>
</trkpt>
<trkpt lat="-27.2700144" lon="151.2897183">
  <ele>543.24</ele>
  <time>2026-09-01T19:56:14Z</time>
  <course>152.91</course>
  <speed>25.67908098044009</speed>
  <fix>3d</fix>
</trkpt>
<trkpt lat="-27.2699739" lon="151.2896953">
  <ele>543.39</ele>
  <time>2026-09-01T19:56:14Z</time>
  <course>153.3</course>
  <speed>25.62</speed>
  <fix>3d</fix>
</trkpt>
<trkpt lat="-27.270035" lon="151.28973">
  <ele>543.24</ele>
  <time>2026-09-01T19:56:14Z</time>
  <course>152.95</course>
  <speed>25.67908098044009</speed>
  <fix>3d</fix>
</trkpt>
<trkpt lat="-27.2700151" lon="151.2897185">
  <ele>543.4</ele>
  <time>2026-09-01T19:56:14Z</time>
  <course>153.32</course>
  <speed>25.61</speed>
  <fix>3d</fix>
</trkpt>
<trkpt lat="-27.2700555" lon="151.2897416">
  <ele>543.25</ele>
  <time>2026-09-01T19:56:14Z</time>
  <course>152.94</course>
  <speed>25.674588604298997</speed>
  <fix>3d</fix>
</trkpt>
<trkpt lat="-27.2700151" lon="151.2897185">
  <ele>543.4</ele>
  <time>2026-09-01T19:56:14Z</time>
  <course>153.32</course>
  <speed>25.61</speed>
  <fix>3d</fix>
</trkpt>
<trkpt lat="-27.270076" lon="151.2897532">
  <ele>543.26</ele>
  <time>2026-09-01T19:56:14Z</time>
  <course>152.82</course>
  <speed>25.674588604298997</speed>
  <fix>3d</fix>
</trkpt>
<trkpt lat="-27.2700562" lon="151.2897418">
  <ele>543.41</ele>
  <time>2026-09-01T19:56:14Z</time>
  <course>153.34</course>
  <speed>25.61</speed>
  <fix>3d</fix>
</trkpt>
<trkpt lat="-27.2700965" lon="151.2897647">
  <ele>543.26</ele>
  <time>2026-09-01T19:56:14Z</time>
  <course>152.79</course>
  <speed>25.665654092580613</speed>
  <fix>3d</fix>
</trkpt>
<trkpt lat="-27.2700562" lon="151.2897418">
  <ele>543.41</ele>
  <time>2026-09-01T19:56:14Z</time>
  <course>153.34</course>
  <speed>25.61</speed>
  <fix>3d</fix>
</trkpt>
<trkpt lat="-27.270117" lon="151.2897763">
  <ele>543.27</ele>
  <time>2026-09-01T19:56:14Z</time>
  <course>152.8</course>
  <speed>25.65672036718645</speed>
  <fix>3d</fix>
</trkpt>
<trkpt lat="-27.2700973" lon="151.289765">
  <ele>543.42</ele>
  <time>2026-09-01T19:56:14Z</time>
  <course>153.33</course>
  <speed>25.61</speed>
  <fix>3d</fix>
</trkpt>
<trkpt lat="-27.2701375" lon="151.2897879">
  <ele>543.27</ele>
  <time>2026-09-01T19:56:14Z</time>
  <course>152.88</course>
  <speed>25.64778742893819</speed>
  <fix>3d</fix>
</trkpt>
<trkpt lat="-27.2700973" lon="151.289765">
  <ele>543.42</ele>
  <time>2026-09-01T19:56:14Z</time>
  <course>153.33</course>
  <speed>25.61</speed>
  <fix>3d</fix>
</trkpt>
<trkpt lat="-27.270158" lon="151.2897995">
  <ele>543.27</ele>
  <time>2026-09-01T19:56:14Z</time>
  <course>152.9</course>
  <speed>25.64778742893819</speed>
  <fix>3d</fix>
</trkpt>
<trkpt lat="-27.2701384" lon="151.2897882">
  <ele>543.43</ele>
  <time>2026-09-01T19:56:14Z</time>
  <course>153.32</course>
  <speed>25.61</speed>
  <fix>3d</fix>
</trkpt>
<trkpt lat="-27.2701785" lon="151.289811">
  <ele>543.27</ele>
  <time>2026-09-01T19:56:14Z</time>
  <course>152.89</course>
  <speed>25.63435975404886</speed>
  <fix>3d</fix>
</trkpt>
<trkpt lat="-27.2701384" lon="151.2897882">
  <ele>543.43</ele>
  <time>2026-09-01T19:56:14Z</time>
  <course>153.32</course>
  <speed>25.61</speed>
  <fix>3d</fix>
</trkpt>
<trkpt lat="-27.2701991" lon="151.2898227">
  <ele>543.27</ele>
  <time>2026-09-01T19:56:14Z</time>
  <course>152.88</course>
  <speed>25.63435975404886</speed>
  <fix>3d</fix>
</trkpt>
<trkpt lat="-27.2701795" lon="151.2898114">
  <ele>543.43</ele>
  <time>2026-09-01T19:56:14Z</time>
  <course>153.32</course>
  <speed>25.61</speed>
  <fix>3d</fix>
</trkpt>
<trkpt lat="-27.2702197" lon="151.2898343">
  <ele>543.27</ele>
  <time>2026-09-01T19:56:14Z</time>
  <course>152.88</course>
  <speed>25.63435975404886</speed>
  <fix>3d</fix>
</trkpt>
<trkpt lat="-27.2701795" lon="151.2898114">
  <ele>543.43</ele>
  <time>2026-09-01T19:56:14Z</time>
  <course>153.32</course>
  <speed>25.61</speed>
  <fix>3d</fix>
</trkpt>
<trkpt lat="-27.2702403" lon="151.289846">
  <ele>543.26</ele>
  <time>2026-09-01T19:56:14Z</time>
  <course>152.93</course>
  <speed>25.64778742893819</speed>
  <fix>3d</fix>
</trkpt>
<trkpt lat="-27.2702206" lon="151.2898347">
  <ele>543.42</ele>
  <time>2026-09-01T19:56:14Z</time>
  <course>153.31</course>
  <speed>25.61</speed>
  <fix>3d</fix>
</trkpt>
<trkpt lat="-27.270261" lon="151.2898577">
  <ele>543.26</ele>
  <time>2026-09-01T19:56:14Z</time>
  <course>152.94</course>
  <speed>25.64778742893819</speed>
  <fix>3d</fix>
</trkpt>
<trkpt lat="-27.2702206" lon="151.2898347">
  <ele>543.42</ele>
  <time>2026-09-01T19:56:14Z</time>
  <course>153.31</course>
  <speed>25.61</speed>
  <fix>3d</fix>
</trkpt>
<trkpt lat="-27.2702816" lon="151.2898693">
  <ele>543.26</ele>
  <time>2026-09-01T19:56:14Z</time>
  <course>152.94</course>
  <speed>25.65672036718645</speed>
  <fix>3d</fix>
</trkpt>
<trkpt lat="-27.2702617" lon="151.2898579">
  <ele>543.41</ele>
  <time>2026-09-01T19:56:14Z</time>
  <course>153.32</course>
  <speed>25.61</speed>
  <fix>3d</fix>
</trkpt>
<trkpt lat="-27.2703023" lon="151.289881">
  <ele>543.26</ele>
  <time>2026-09-01T19:56:14Z</time>
  <course>152.92</course>
  <speed>25.665654092580613</speed>
  <fix>3d</fix>
</trkpt>
<trkpt lat="-27.2702617" lon="151.2898579">
  <ele>543.41</ele>
  <time>2026-09-01T19:56:14Z</time>
  <course>153.32</course>
  <speed>25.61</speed>
  <fix>3d</fix>
</trkpt>
<trkpt lat="-27.2703229" lon="151.2898927">
  <ele>543.25</ele>
  <time>2026-09-01T19:56:14Z</time>
  <course>152.89</course>
  <speed>25.665654092580613</speed>
  <fix>3d</fix>
</trkpt>
<trkpt lat="-27.2703028" lon="151.2898812">
  <ele>543.41</ele>
  <time>2026-09-01T19:56:14Z</time>
  <course>153.34</course>
  <speed>25.62</speed>
  <fix>3d</fix>
</trkpt>
<trkpt lat="-27.2703436" lon="151.2899044">
  <ele>543.25</ele>
  <time>2026-09-01T19:56:14Z</time>
  <course>152.92</course>
  <speed>25.674588604298997</speed>
  <fix>3d</fix>
</trkpt>
<trkpt lat="-27.2703028" lon="151.2898812">
  <ele>543.41</ele>
  <time>2026-09-01T19:56:14Z</time>
  <course>153.34</course>
  <speed>25.62</speed>
  <fix>3d</fix>
</trkpt>
<trkpt lat="-27.2703643" lon="151.289916">
  <ele>543.25</ele>
  <time>2026-09-01T19:56:14Z</time>
  <course>152.92</course>
  <speed>25.68352390152099</speed>
  <fix>3d</fix>
</trkpt>
<trkpt lat="-27.270344" lon="151.2899044">
  <ele>543.41</ele>
  <time>2026-09-01T19:56:14Z</time>
  <course>153.36</course>
  <speed>25.62</speed>
  <fix>3d</fix>
</trkpt>
<trkpt lat="-27.270385" lon="151.2899277">
  <ele>543.25</ele>
  <time>2026-09-01T19:56:14Z</time>
  <course>152.9</course>
  <speed>25.68352390152099</speed>
  <fix>3d</fix>
</trkpt>
<trkpt lat="-27.270344" lon="151.2899044">
  <ele>543.41</ele>
  <time>2026-09-01T19:56:14Z</time>
  <course>153.36</course>
  <speed>25.62</speed>
  <fix>3d</fix>
</trkpt>
<trkpt lat="-27.2704056" lon="151.2899394">
  <ele>543.25</ele>
  <time>2026-09-01T19:56:14Z</time>
  <course>152.91</course>
  <speed>25.679036196866893</speed>
  <fix>3d</fix>
</trkpt>
<trkpt lat="-27.2703851" lon="151.2899276">
  <ele>543.41</ele>
  <time>2026-09-01T19:56:14Z</time>
  <course>153.38</course>
  <speed>25.62</speed>
  <fix>3d</fix>
</trkpt>
<trkpt lat="-27.2704263" lon="151.289951">
  <ele>543.25</ele>
  <time>2026-09-01T19:56:14Z</time>
  <course>152.91</course>
  <speed>25.679036196866893</speed>
  <fix>3d</fix>
</trkpt>
<trkpt lat="-27.2703851" lon="151.2899276">
  <ele>543.41</ele>
  <time>2026-09-01T19:56:14Z</time>
  <course>153.38</course>
  <speed>25.62</speed>
  <fix>3d</fix>
</trkpt>
<trkpt lat="-27.270447" lon="151.2899627">
  <ele>543.25</ele>
  <time>2026-09-01T19:56:14Z</time>
  <course>152.97</course>
  <speed>25.687973839911937</speed>
  <fix>3d</fix>
</trkpt>
<trkpt lat="-27.2704263" lon="151.2899508">
  <ele>543.41</ele>
  <time>2026-09-01T19:56:14Z</time>
  <course>153.39</course>
  <speed>25.62</speed>
  <fix>3d</fix>
</trkpt>
<trkpt lat="-27.2704675" lon="151.2899742">
  <ele>543.25</ele>
  <time>2026-09-01T19:56:14Z</time>
  <course>152.98</course>
  <speed>25.68349080635263</speed>
  <fix>3d</fix>
</trkpt>
<trkpt lat="-27.2704263" lon="151.2899508">
  <ele>543.41</ele>
  <time>2026-09-01T19:56:14Z</time>
  <course>153.39</course>
  <speed>25.62</speed>
  <fix>3d</fix>
</trkpt>
<trkpt lat="-27.2704881" lon="151.2899858">
  <ele>543.26</ele>
  <time>2026-09-01T19:56:14Z</time>
  <course>153.01</course>
  <speed>25.670070120667766</speed>
  <fix>3d</fix>
</trkpt>
<trkpt lat="-27.2704675" lon="151.2899741">
  <ele>543.41</ele>
  <time>2026-09-01T19:56:14Z</time>
  <course>153.42</course>
  <speed>25.62</speed>
  <fix>3d</fix>
</trkpt>
<trkpt lat="-27.2705085" lon="151.2899973">
  <ele>543.26</ele>
  <time>2026-09-01T19:56:14Z</time>
  <course>153.01</course>
  <speed>25.656650210033266</speed>
  <fix>3d</fix>
</trkpt>
<trkpt lat="-27.2704675" lon="151.2899741">
  <ele>543.41</ele>
  <time>2026-09-01T19:56:14Z</time>
  <course>153.42</course>
  <speed>25.62</speed>
  <fix>3d</fix>
</trkpt>
<trkpt lat="-27.270529" lon="151.2900089">
  <ele>543.26</ele>
  <time>2026-09-01T19:56:14Z</time>
  <course>152.95</course>
  <speed>25.656650210033266</speed>
  <fix>3d</fix>
</trkpt>
<trkpt lat="-27.2705087" lon="151.2899972">
  <ele>543.41</ele>
  <time>2026-09-01T19:56:14Z</time>
  <course>153.44</course>
  <speed>25.61</speed>
  <fix>3d</fix>
</trkpt>
<trkpt lat="-27.2705495" lon="151.2900203">
  <ele>543.27</ele>
  <time>2026-09-01T19:56:14Z</time>
  <course>152.96</course>
  <speed>25.643231075665952</speed>
  <fix>3d</fix>
</trkpt>
<trkpt lat="-27.2705087" lon="151.2899972">
  <ele>543.41</ele>
  <time>2026-09-01T19:56:14Z</time>
  <course>153.44</course>
  <speed>25.61</speed>
  <fix>3d</fix>
</trkpt>
<trkpt lat="-27.27057" lon="151.2900319">
  <ele>543.27</ele>
  <time>2026-09-01T19:56:14Z</time>
  <course>153.06</course>
  <speed>25.643231075665952</speed>
  <fix>3d</fix>
</trkpt>
<trkpt lat="-27.2705499" lon="151.2900203">
  <ele>543.42</ele>
  <time>2026-09-01T19:56:14Z</time>
  <course>153.45</course>
  <speed>25.61</speed>
  <fix>3d</fix>
</trkpt>
<trkpt lat="-27.2705904" lon="151.2900433">
  <ele>543.27</ele>
  <time>2026-09-01T19:56:14Z</time>
  <course>153.28</course>
  <speed>25.62981271878513</speed>
  <fix>3d</fix>
</trkpt>
<trkpt lat="-27.2705499" lon="151.2900203">
  <ele>543.42</ele>
  <time>2026-09-01T19:56:14Z</time>
  <course>153.45</course>
  <speed>25.61</speed>
  <fix>3d</fix>
</trkpt>
<trkpt lat="-27.2706107" lon="151.2900547">
  <ele>543.27</ele>
  <time>2026-09-01T19:56:14Z</time>
  <course>153.67</course>
  <speed>25.629836129011828</speed>
  <fix>3d</fix>
</trkpt>
<trkpt lat="-27.2705911" lon="151.2900434">
  <ele>543.42</ele>
  <time>2026-09-01T19:56:14Z</time>
  <course>153.5</course>
  <speed>25.61</speed>
  <fix>3d</fix>
</trkpt>
<trkpt lat="-27.2706313" lon="151.2900662">
  <ele>543.27</ele>
  <time>2026-09-01T19:56:14Z</time>
  <course>154.15</course>
  <speed>25.625817060144637</speed>
  <fix>3d</fix>
</trkpt>
<trkpt lat="-27.2705911" lon="151.2900434">
  <ele>543.42</ele>
  <time>2026-09-01T19:56:14Z</time>
  <course>153.5</course>
  <speed>25.61</speed>
  <fix>3d</fix>
</trkpt>
<trkpt lat="-27.270652" lon="151.2900775">
  <ele>543.28</ele>
  <time>2026-09-01T19:56:14Z</time>
  <course>154.57</course>
  <speed>25.623491175091658</speed>
  <fix>3d</fix>
</trkpt>
<trkpt lat="-27.2706323" lon="151.2900664">
  <ele>543.42</ele>
  <time>2026-09-01T19:56:14Z</time>
  <course>153.91</course>
  <speed>25.61</speed>
  <fix>3d</fix>
</trkpt>
<trkpt lat="-27.2706729" lon="151.2900886">
  <ele>543.28</ele>
  <time>2026-09-01T19:56:14Z</time>
  <course>154.91</course>
  <speed>25.629882949401075</speed>
  <fix>3d</fix>
</trkpt>
<trkpt lat="-27.2706323" lon="151.2900664">
  <ele>543.42</ele>
  <time>2026-09-01T19:56:14Z</time>
  <course>153.91</course>
  <speed>25.61</speed>
  <fix>3d</fix>
</trkpt>
<trkpt lat="-27.2706939" lon="151.2900994">
  <ele>543.28</ele>
  <time>2026-09-01T19:56:14Z</time>
  <course>155.24</course>
  <speed>25.651902463560088</speed>
  <fix>3d</fix>
</trkpt>
<trkpt lat="-27.2706738" lon="151.2900887">
  <ele>543.42</ele>
  <time>2026-09-01T19:56:14Z</time>
  <course>155.03</course>
  <speed>25.61</speed>
  <fix>3d</fix>
</trkpt>
<trkpt lat="-27.2707152" lon="151.2901099">
  <ele>543.27</ele>
  <time>2026-09-01T19:56:14Z</time>
  <course>155.66</course>
  <speed>25.66254858738703</speed>
  <fix>3d</fix>
</trkpt>
<trkpt lat="-27.2706738" lon="151.2900887">
  <ele>543.42</ele>
  <time>2026-09-01T19:56:14Z</time>
  <course>155.03</course>
  <speed>25.61</speed>
  <fix>3d</fix>
</trkpt>
<trkpt lat="-27.2707366" lon="151.2901199">
  <ele>543.26</ele>
  <time>2026-09-01T19:56:14Z</time>
  <course>156.3</course>
  <speed>25.694766003993887</speed>
  <fix>3d</fix>
</trkpt>
<trkpt lat="-27.2707158" lon="151.2901099">
  <ele>543.41</ele>
  <time>2026-09-01T19:56:14Z</time>
  <course>156.9</course>
  <speed>25.62</speed>
  <fix>3d</fix>
</trkpt>
<trkpt lat="-27.2707582" lon="151.2901293">
  <ele>543.25</ele>
  <time>2026-09-01T19:56:14Z</time>
  <course>157.21</course>
  <speed>25.71633721975196</speed>
  <fix>3d</fix>
</trkpt>
<trkpt lat="-27.2707158" lon="151.2901099">
  <ele>543.41</ele>
  <time>2026-09-01T19:56:14Z</time>
  <course>156.9</course>
  <speed>25.62</speed>
  <fix>3d</fix>
</trkpt>
<trkpt lat="-27.2707802" lon="151.2901383">
  <ele>543.25</ele>
  <time>2026-09-01T19:56:14Z</time>
  <course>158.26</course>
  <speed>25.75365799260369</speed>
  <fix>3d</fix>
</trkpt>
<trkpt lat="-27.2707585" lon="151.2901292">
  <ele>543.39</ele>
  <time>2026-09-01T19:56:14Z</time>
  <course>159.3</course>
  <speed>25.66</speed>
  <fix>3d</fix>
</trkpt>
<trkpt lat="-27.2708022" lon="151.2901466">
  <ele>543.27</ele>
  <time>2026-09-01T19:56:14Z</time>
  <course>159.45</course>
  <speed>25.776355444476632</speed>
  <fix>3d</fix>
</trkpt>
<trkpt lat="-27.2707585" lon="151.2901292">
  <ele>543.39</ele>
  <time>2026-09-01T19:56:14Z</time>
  <course>159.3</course>
  <speed>25.66</speed>
  <fix>3d</fix>
</trkpt>
<trkpt lat="-27.2708243" lon="151.2901544">
  <ele>543.28</ele>
  <time>2026-09-01T19:56:14Z</time>
  <course>160.68</course>
  <speed>25.7990794409413</speed>
  <fix>3d</fix>
</trkpt>
<trkpt lat="-27.270802" lon="151.2901465">
  <ele>543.4</ele>
  <time>2026-09-01T19:56:14Z</time>
  <course>161.89</course>
  <speed>25.7</speed>
  <fix>3d</fix>
</trkpt>
<trkpt lat="-27.2708466" lon="151.2901617">
  <ele>543.31</ele>
  <time>2026-09-01T19:56:14Z</time>
  <course>161.82</course>
  <speed>25.813215607513918</speed>
  <fix>3d</fix>
</trkpt>
<trkpt lat="-27.270802" lon="151.2901465">
  <ele>543.4</ele>
  <time>2026-09-01T19:56:14Z</time>
  <course>161.89</course>
  <speed>25.7</speed>
  <fix>3d</fix>
</trkpt>
<trkpt lat="-27.270869" lon="151.2901685">
  <ele>543.33</ele>
  <time>2026-09-01T19:56:14Z</time>
  <course>162.9</course>
  <speed>25.82866818091866</speed>
  <fix>3d</fix>
</trkpt>
<trkpt lat="-27.2708463" lon="151.2901616">
  <ele>543.44</ele>
  <time>2026-09-01T19:56:14Z</time>
  <course>164.3</course>
  <speed>25.73</speed>
  <fix>3d</fix>
</trkpt>
<trkpt lat="-27.2708914" lon="151.2901748">
  <ele>543.35</ele>
  <time>2026-09-01T19:56:14Z</time>
  <course>163.91</course>
  <speed>25.821185100610702</speed>
  <fix>3d</fix>
</trkpt>
<trkpt lat="-27.2708463" lon="151.2901616">
  <ele>543.44</ele>
  <time>2026-09-01T19:56:14Z</time>
  <course>164.3</course>
  <speed>25.73</speed>
  <fix>3d</fix>
</trkpt>
<trkpt lat="-27.2709139" lon="151.2901807">
  <ele>543.37</ele>
  <time>2026-09-01T19:56:14Z</time>
  <course>164.84</course>
  <speed>25.8158594666147</speed>
  <fix>3d</fix>
</trkpt>
<trkpt lat="-27.2708911" lon="151.2901748">
  <ele>543.49</ele>
  <time>2026-09-01T19:56:14Z</time>
  <course>166.39</course>
  <speed>25.74</speed>
  <fix>3d</fix>
</trkpt>
<trkpt lat="-27.2709364" lon="151.2901862">
  <ele>543.37</ele>
  <time>2026-09-01T19:56:14Z</time>
  <course>165.71</course>
  <speed>25.794096223748564</speed>
  <fix>3d</fix>
</trkpt>
<trkpt lat="-27.2708911" lon="151.2901748">
  <ele>543.49</ele>
  <time>2026-09-01T19:56:14Z</time>
  <course>166.39</course>
  <speed>25.74</speed>
  <fix>3d</fix>
</trkpt>
<trkpt lat="-27.2709589" lon="151.2901913">
  <ele>543.36</ele>
  <time>2026-09-01T19:56:14Z</time>
  <course>166.51</course>
  <speed>25.791675013461223</speed>
  <fix>3d</fix>
</trkpt>
<trkpt lat="-27.2709362" lon="151.2901862">
  <ele>543.5</ele>
  <time>2026-09-01T19:56:14Z</time>
  <course>168.19</course>
  <speed>25.73</speed>
  <fix>3d</fix>
</trkpt>
<trkpt lat="-27.2709815" lon="151.2901961">
  <ele>543.33</ele>
  <time>2026-09-01T19:56:14Z</time>
  <course>167.24</course>
  <speed>25.768478806479823</speed>
  <fix>3d</fix>
</trkpt>
<trkpt lat="-27.2709362" lon="151.2901862">
  <ele>543.5</ele>
  <time>2026-09-01T19:56:14Z</time>
  <course>168.19</course>
  <speed>25.73</speed>
  <fix>3d</fix>
</trkpt>
<trkpt lat="-27.2710041" lon="151.2902005">
  <ele>543.28</ele>
  <time>2026-09-01T19:56:14Z</time>
  <course>167.95</course>
  <speed>25.754758783572406</speed>
  <fix>3d</fix>
</trkpt>
<trkpt lat="-27.2709816" lon="151.2901961">
  <ele>543.46</ele>
  <time>2026-09-01T19:56:14Z</time>
  <course>169.77</course>
  <speed>25.72</speed>
  <fix>3d</fix>
</trkpt>
<trkpt lat="-27.2710266" lon="151.2902046">
  <ele>543.21</ele>
  <time>2026-09-01T19:56:14Z</time>
  <course>168.67</course>
  <speed>25.73494511359991</speed>
  <fix>3d</fix>
</trkpt>
<trkpt lat="-27.2709816" lon="151.2901961">
  <ele>543.46</ele>
  <time>2026-09-01T19:56:14Z</time>
  <course>169.77</course>
  <speed>25.72</speed>
  <fix>3d</fix>
</trkpt>
<trkpt lat="-27.2710492" lon="151.2902084">
  <ele>543.13</ele>
  <time>2026-09-01T19:56:14Z</time>
  <course>169.3</course>
  <speed>25.71325339197668</speed>
  <fix>3d</fix>
</trkpt>
<trkpt lat="-27.2710271" lon="151.2902046">
  <ele>543.35</ele>
  <time>2026-09-01T19:56:14Z</time>
  <course>171.17</course>
  <speed>25.71</speed>
  <fix>3d</fix>
</trkpt>
<trkpt lat="-27.2710716" lon="151.2902119">
  <ele>543.02</ele>
  <time>2026-09-01T19:56:14Z</time>
  <course>169.97</course>
  <speed>25.688674547356467</speed>
  <fix>3d</fix>
</trkpt>
<trkpt lat="-27.2710271" lon="151.2902046">
  <ele>543.35</ele>
  <time>2026-09-01T19:56:14Z</time>
  <course>171.17</course>
  <speed>25.71</speed>
  <fix>3d</fix>
</trkpt>
<trkpt lat="-27.2710942" lon="151.2902152">
  <ele>542.89</ele>
  <time>2026-09-01T19:56:14Z</time>
  <course>170.64</course>
  <speed>25.666511254940747</speed>
  <fix>3d</fix>
</trkpt>
<trkpt lat="-27.2710728" lon="151.290212">
  <ele>543.15</ele>
  <time>2026-09-01T19:56:14Z</time>
  <course>172.39</course>
  <speed>25.69</speed>
  <fix>3d</fix>
</trkpt>
<trkpt lat="-27.2711169" lon="151.2902183">
  <ele>542.73</ele>
  <time>2026-09-01T19:56:14Z</time>
  <course>171.3</course>
  <speed>25.647910246255933</speed>
  <fix>3d</fix>
</trkpt>
<trkpt lat="-27.2710728" lon="151.290212">
  <ele>543.15</ele>
  <time>2026-09-01T19:56:14Z</time>
  <course>172.39</course>
  <speed>25.69</speed>
  <fix>3d</fix>
</trkpt>
<trkpt lat="-27.2711397" lon="151.2902211">
  <ele>542.56</ele>
  <time>2026-09-01T19:56:14Z</time>
  <course>171.95</course>
  <speed>25.64254277562972</speed>
  <fix>3d</fix>
</trkpt>
<trkpt lat="-27.2711186" lon="151.2902184">
  <ele>542.86</ele>
  <time>2026-09-01T19:56:14Z</time>
  <course>173.48</course>
  <speed>25.68</speed>
  <fix>3d</fix>
</trkpt>
<trkpt lat="-27.2711627" lon="151.2902237">
  <ele>542.36</ele>
  <time>2026-09-01T19:56:14Z</time>
  <course>172.5</course>
  <speed>25.630265312711845</speed>
  <fix>3d</fix>
</trkpt>
<trkpt lat="-27.2711186" lon="151.2902184">
  <ele>542.86</ele>
  <time>2026-09-01T19:56:14Z</time>
  <course>173.48</course>
  <speed>25.68</speed>
  <fix>3d</fix>
</trkpt>
<trkpt lat="-27.2711856" lon="151.2902261">
  <ele>542.14</ele>
  <time>2026-09-01T19:56:14Z</time>
  <course>173.04</course>
  <speed>25.630719849430683</speed>
  <fix>3d</fix>
</trkpt>
<trkpt lat="-27.2711644" lon="151.2902238">
  <ele>542.49</ele>
  <time>2026-09-01T19:56:14Z</time>
  <course>174.5</course>
  <speed>25.67</speed>
  <fix>3d</fix>
</trkpt>
<trkpt lat="-27.2712085" lon="151.2902283">
  <ele>541.9</ele>
  <time>2026-09-01T19:56:14Z</time>
  <course>173.63</course>
  <speed>25.632910486325972</speed>
  <fix>3d</fix>
</trkpt>
<trkpt lat="-27.2711644" lon="151.2902238">
  <ele>542.49</ele>
  <time>2026-09-01T19:56:14Z</time>
  <course>174.5</course>
  <speed>25.67</speed>
  <fix>3d</fix>
</trkpt>
<trkpt lat="-27.2712314" lon="151.2902302">
  <ele>541.65</ele>
  <time>2026-09-01T19:56:14Z</time>
  <course>174.16</course>
  <speed>25.63756033635026</speed>
  <fix>3d</fix>
</trkpt>
<trkpt lat="-27.2712104" lon="151.2902283">
  <ele>542.04</ele>
  <time>2026-09-01T19:56:14Z</time>
  <course>175.45</course>
  <speed>25.67</speed>
  <fix>3d</fix>
</trkpt>
<trkpt lat="-27.2712544" lon="151.290232">
  <ele>541.38</ele>
  <time>2026-09-01T19:56:14Z</time>
  <course>174.65</course>
  <speed>25.653763856401266</speed>
  <fix>3d</fix>
</trkpt>
<trkpt lat="-27.2712104" lon="151.2902283">
  <ele>542.04</ele>
  <time>2026-09-01T19:56:14Z</time>
  <course>175.45</course>
  <speed>25.67</speed>
  <fix>3d</fix>
</trkpt>
<trkpt lat="-27.2712775" lon="151.2902336">
  <ele>541.1</ele>
  <time>2026-09-01T19:56:14Z</time>
  <course>175.12</course>
  <speed>25.661566592864123</speed>
  <fix>3d</fix>
</trkpt>
<trkpt lat="-27.2712564" lon="151.290232">
  <ele>541.53</ele>
  <time>2026-09-01T19:56:14Z</time>
  <course>176.36</course>
  <speed>25.68</speed>
  <fix>3d</fix>
</trkpt>
<trkpt lat="-27.2713005" lon="151.2902349">
  <ele>540.8</ele>
  <time>2026-09-01T19:56:14Z</time>
  <course>175.56</course>
  <speed>25.6819177632824</speed>
  <fix>3d</fix>
</trkpt>
<trkpt lat="-27.2712564" lon="151.290232">
  <ele>541.53</ele>
  <time>2026-09-01T19:56:14Z</time>
  <course>176.36</course>
  <speed>25.68</speed>
  <fix>3d</fix>
</trkpt>
<trkpt lat="-27.2713236" lon="151.2902361">
  <ele>540.5</ele>
  <time>2026-09-01T19:56:14Z</time>
  <course>176.03</course>
  <speed>25.693987623566723</speed>
  <fix>3d</fix>
</trkpt>
<trkpt lat="-27.2713025" lon="151.2902349">
  <ele>540.95</ele>
  <time>2026-09-01T19:56:14Z</time>
  <course>177.2</course>
  <speed>25.71</speed>
  <fix>3d</fix>
</trkpt>
<trkpt lat="-27.2713467" lon="151.2902372">
  <ele>540.18</ele>
  <time>2026-09-01T19:56:14Z</time>
  <course>176.49</course>
  <speed>25.70682788676969</speed>
  <fix>3d</fix>
</trkpt>
<trkpt lat="-27.2713025" lon="151.2902349">
  <ele>540.95</ele>
  <time>2026-09-01T19:56:14Z</time>
  <course>177.2</course>
  <speed>25.71</speed>
  <fix>3d</fix>
</trkpt>
<trkpt lat="-27.2713698" lon="151.290238">
  <ele>539.85</ele>
  <time>2026-09-01T19:56:14Z</time>
  <course>176.93</course>
  <speed>25.73122616588646</speed>
  <fix>3d</fix>
</trkpt>
<trkpt lat="-27.2713488" lon="151.2902371">
  <ele>540.33</ele>
  <time>2026-09-01T19:56:14Z</time>
  <course>177.99</course>
  <speed>25.74</speed>
  <fix>3d</fix>
</trkpt>
<trkpt lat="-27.271393" lon="151.2902387">
  <ele>539.51</ele>
  <time>2026-09-01T19:56:14Z</time>
  <course>177.35</course>
  <speed>25.75698934270075</speed>
  <fix>3d</fix>
</trkpt>
<trkpt lat="-27.2713488" lon="151.2902371">
  <ele>540.33</ele>
  <time>2026-09-01T19:56:14Z</time>
  <course>177.99</course>
  <speed>25.74</speed>
  <fix>3d</fix>
</trkpt>
<trkpt lat="-27.2714163" lon="151.2902392">
  <ele>539.17</ele>
  <time>2026-09-01T19:56:14Z</time>
  <course>177.77</course>
  <speed>25.773756032057104</speed>
  <fix>3d</fix>
</trkpt>
<trkpt lat="-27.2713951" lon="151.2902386">
  <ele>539.68</ele>
  <time>2026-09-01T19:56:14Z</time>
  <course>178.74</course>
  <speed>25.78</speed>
  <fix>3d</fix>
</trkpt>
<trkpt lat="-27.2714396" lon="151.2902395">
  <ele>538.82</ele>
  <time>2026-09-01T19:56:14Z</time>
  <course>178.15</course>
  <speed>25.801744127093425</speed>
  <fix>3d</fix>
</trkpt>
<trkpt lat="-27.2713951" lon="151.2902386">
  <ele>539.68</ele>
  <time>2026-09-01T19:56:14Z</time>
  <course>178.74</course>
  <speed>25.78</speed>
  <fix>3d</fix>
</trkpt>
<trkpt lat="-27.2714628" lon="151.2902398">
  <ele>538.47</ele>
  <time>2026-09-01T19:56:14Z</time>
  <course>178.5</course>
  <speed>25.83049554305918</speed>
  <fix>3d</fix>
</trkpt>
<trkpt lat="-27.2714415" lon="151.2902394">
  <ele>539.01</ele>
  <time>2026-09-01T19:56:14Z</time>
  <course>179.41</course>
  <speed>25.82</speed>
  <fix>3d</fix>
</trkpt>
<trkpt lat="-27.2714861" lon="151.2902398">
  <ele>538.11</ele>
  <time>2026-09-01T19:56:14Z</time>
  <course>178.84</course>
  <speed>25.86001740138626</speed>
  <fix>3d</fix>
</trkpt>
<trkpt lat="-27.2714415" lon="151.2902394">
  <ele>539.01</ele>
  <time>2026-09-01T19:56:14Z</time>
  <course>179.41</course>
  <speed>25.82</speed>
  <fix>3d</fix>
</trkpt>
<trkpt lat="-27.2715094" lon="151.2902398">
  <ele>537.76</ele>
  <time>2026-09-01T19:56:14Z</time>
  <course>179.15</course>
  <speed>25.880156491026092</speed>
  <fix>3d</fix>
</trkpt>
<trkpt lat="-27.2714878" lon="151.2902397">
  <ele>538.31</ele>
  <time>2026-09-01T19:56:14Z</time>
  <course>180.01</course>
  <speed>25.87</speed>
  <fix>3d</fix>
</trkpt>
<trkpt lat="-27.2715327" lon="151.2902396">
  <ele>537.4</ele>
  <time>2026-09-01T19:56:14Z</time>
  <course>179.43</course>
  <speed>25.900772189261076</speed>
  <fix>3d</fix>
</trkpt>
<trkpt lat="-27.2714878" lon="151.2902397">
  <ele>538.31</ele>
  <time>2026-09-01T19:56:14Z</time>
  <course>180.01</course>
  <speed>25.87</speed>
  <fix>3d</fix>
</trkpt>
<trkpt lat="-27.2715559" lon="151.2902393">
  <ele>537.05</ele>
  <time>2026-09-01T19:56:14Z</time>
  <course>179.68</course>
  <speed>25.92185371457836</speed>
  <fix>3d</fix>
</trkpt>
<trkpt lat="-27.2715344" lon="151.2902394">
  <ele>537.61</ele>
  <time>2026-09-01T19:56:14Z</time>
  <course>180.54</course>
  <speed>25.91</speed>
  <fix>3d</fix>
</trkpt>
<trkpt lat="-27.2715792" lon="151.290239">
  <ele>536.69</ele>
  <time>2026-09-01T19:56:14Z</time>
  <course>179.94</course>
  <speed>25.94308385678156</speed>
  <fix>3d</fix>
</trkpt>
<trkpt lat="-27.2715344" lon="151.2902394">
  <ele>537.61</ele>
  <time>2026-09-01T19:56:14Z</time>
  <course>180.54</course>
  <speed>25.91</speed>
  <fix>3d</fix>
</trkpt>
<trkpt lat="-27.2716026" lon="151.2902386">
  <ele>536.32</ele>
  <time>2026-09-01T19:56:14Z</time>
  <course>180.24</course>
  <speed>25.95481650869449</speed>
  <fix>3d</fix>
</trkpt>
<trkpt lat="-27.271581" lon="151.2902388">
  <ele>536.9</ele>
  <time>2026-09-01T19:56:14Z</time>
  <course>180.99</course>
  <speed>25.95</speed>
  <fix>3d</fix>
</trkpt>
<trkpt lat="-27.271626" lon="151.290238">
  <ele>535.95</ele>
  <time>2026-09-01T19:56:14Z</time>
  <course>180.48</course>
  <speed>25.966478390417134</speed>
  <fix>3d</fix>
</trkpt>
<trkpt lat="-27.271581" lon="151.2902388">
  <ele>536.9</ele>
  <time>2026-09-01T19:56:14Z</time>
  <course>180.99</course>
  <speed>25.95</speed>
  <fix>3d</fix>
</trkpt>
<trkpt lat="-27.2716495" lon="151.2902373">
  <ele>535.58</ele>
  <time>2026-09-01T19:56:14Z</time>
  <course>180.71</course>
  <speed>25.988637901975547</speed>
  <fix>3d</fix>
</trkpt>
<trkpt lat="-27.2716276" lon="151.2902377">
  <ele>536.17</ele>
  <time>2026-09-01T19:56:14Z</time>
  <course>181.39</course>
  <speed>25.97</speed>
  <fix>3d</fix>
</trkpt>
<trkpt lat="-27.2716729" lon="151.2902366">
  <ele>535.21</ele>
  <time>2026-09-01T19:56:14Z</time>
  <course>180.92</course>
  <speed>26.000819217863118</speed>
  <fix>3d</fix>
</trkpt>
<trkpt lat="-27.2716276" lon="151.2902377">
  <ele>536.17</ele>
  <time>2026-09-01T19:56:14Z</time>
  <course>181.39</course>
  <speed>25.97</speed>
  <fix>3d</fix>
</trkpt>
<trkpt lat="-27.2716963" lon="151.2902357">
  <ele>534.83</ele>
  <time>2026-09-01T19:56:14Z</time>
  <course>181.11</course>
  <speed>26.012927555352167</speed>
  <fix>3d</fix>
</trkpt>
<trkpt lat="-27.2716742" lon="151.2902363">
  <ele>535.43</ele>
  <time>2026-09-01T19:56:14Z</time>
  <course>181.74</course>
  <speed>26.0</speed>
  <fix>3d</fix>
</trkpt>
<trkpt lat="-27.2717196" lon="151.2902348">
  <ele>534.46</ele>
  <time>2026-09-01T19:56:14Z</time>
  <course>181.26</course>
  <speed>26.015228232710164</speed>
  <fix>3d</fix>
</trkpt>
<trkpt lat="-27.2716742" lon="151.2902363">
  <ele>535.43</ele>
  <time>2026-09-01T19:56:14Z</time>
  <course>181.74</course>
  <speed>26.0</speed>
  <fix>3d</fix>
</trkpt>
<trkpt lat="-27.2717429" lon="151.2902339">
  <ele>534.09</ele>
  <time>2026-09-01T19:56:14Z</time>
  <course>181.4</course>
  <speed>26.01734998034965</speed>
  <fix>3d</fix>
</trkpt>
<trkpt lat="-27.2717209" lon="151.2902345">
  <ele>534.69</ele>
  <time>2026-09-01T19:56:14Z</time>
  <course>182.05</course>
  <speed>26.02</speed>
  <fix>3d</fix>
</trkpt>
<trkpt lat="-27.2717663" lon="151.2902329">
  <ele>533.71</ele>
  <time>2026-09-01T19:56:14Z</time>
  <course>181.52</course>
  <speed>26.019223662515373</speed>
  <fix>3d</fix>
</trkpt>
<trkpt lat="-27.2717209" lon="151.2902345">
  <ele>534.69</ele>
  <time>2026-09-01T19:56:14Z</time>
  <course>182.05</course>
  <speed>26.02</speed>
  <fix>3d</fix>
</trkpt>
<trkpt lat="-27.2717897" lon="151.2902318">
  <ele>533.33</ele>
  <time>2026-09-01T19:56:14Z</time>
  <course>181.66</course>
  <speed>26.02079168664935</speed>
  <fix>3d</fix>
</trkpt>
<trkpt lat="-27.2717676" lon="151.2902325">
  <ele>533.94</ele>
  <time>2026-09-01T19:56:14Z</time>
  <course>182.29</course>
  <speed>26.02</speed>
  <fix>3d</fix>
</trkpt>
<trkpt lat="-27.2718131" lon="151.2902307">
  <ele>532.95</ele>
  <time>2026-09-01T19:56:14Z</time>
  <course>181.76</course>
  <speed>26.022421101811414</speed>
  <fix>3d</fix>
</trkpt>
<trkpt lat="-27.2717676" lon="151.2902325">
  <ele>533.94</ele>
  <time>2026-09-01T19:56:14Z</time>
  <course>182.29</course>
  <speed>26.02</speed>
  <fix>3d</fix>
</trkpt>
<trkpt lat="-27.2718365" lon="151.2902296">
  <ele>532.56</ele>
  <time>2026-09-01T19:56:14Z</time>
  <course>181.91</course>
  <speed>26.024111896470167</speed>
  <fix>3d</fix>
</trkpt>
<trkpt lat="-27.2718144" lon="151.2902303">
  <ele>533.19</ele>
  <time>2026-09-01T19:56:14Z</time>
  <course>182.48</course>
  <speed>26.02</speed>
  <fix>3d</fix>
</trkpt>
<trkpt lat="-27.2718599" lon="151.2902284">
  <ele>532.17</ele>
  <time>2026-09-01T19:56:14Z</time>
  <course>182.06</course>
  <speed>26.025864058662872</speed>
  <fix>3d</fix>
</trkpt>
<trkpt lat="-27.2718144" lon="151.2902303">
  <ele>533.19</ele>
  <time>2026-09-01T19:56:14Z</time>
  <course>182.48</course>
  <speed>26.02</speed>
  <fix>3d</fix>
</trkpt>
<trkpt lat="-27.2718833" lon="151.2902271">
  <ele>531.78</ele>
  <time>2026-09-01T19:56:14Z</time>
  <course>182.11</course>
  <speed>26.017228907014673</speed>
  <fix>3d</fix>
</trkpt>
<trkpt lat="-27.2718612" lon="151.290228">
  <ele>532.42</ele>
  <time>2026-09-01T19:56:14Z</time>
  <course>182.65</course>
  <speed>26.01</speed>
  <fix>3d</fix>
</trkpt>
<trkpt lat="-27.2719068" lon="151.2902259">
  <ele>531.39</ele>
  <time>2026-09-01T19:56:14Z</time>
  <course>182.19</course>
  <speed>26.008629337202684</speed>
  <fix>3d</fix>
</trkpt>
<trkpt lat="-27.2718612" lon="151.290228">
  <ele>532.42</ele>
  <time>2026-09-01T19:56:14Z</time>
  <course>182.65</course>
  <speed>26.01</speed>
  <fix>3d</fix>
</trkpt>
<trkpt lat="-27.2719302" lon="151.2902246">
  <ele>530.99</ele>
  <time>2026-09-01T19:56:14Z</time>
  <course>182.26</course>
  <speed>26.010053825396056</speed>
  <fix>3d</fix>
</trkpt>
<trkpt lat="-27.2719079" lon="151.2902255">
  <ele>531.65</ele>
  <time>2026-09-01T19:56:14Z</time>
  <course>182.79</course>
  <speed>26.0</speed>
  <fix>3d</fix>
</trkpt>
<trkpt lat="-27.2719536" lon="151.2902233">
  <ele>530.6</ele>
  <time>2026-09-01T19:56:14Z</time>
  <course>182.34</course>
  <speed>26.001524955279066</speed>
  <fix>3d</fix>
</trkpt>
<trkpt lat="-27.2719079" lon="151.2902255">
  <ele>531.65</ele>
  <time>2026-09-01T19:56:14Z</time>
  <course>182.79</course>
  <speed>26.0</speed>
  <fix>3d</fix>
</trkpt>
<trkpt lat="-27.271977" lon="151.2902219">
  <ele>530.2</ele>
  <time>2026-09-01T19:56:14Z</time>
  <course>182.4</course>
  <speed>25.99252969604921</speed>
  <fix>3d</fix>
</trkpt>
<trkpt lat="-27.2719545" lon="151.2902228">
  <ele>530.86</ele>
  <time>2026-09-01T19:56:14Z</time>
  <course>182.9</course>
  <speed>25.99</speed>
  <fix>3d</fix>
</trkpt>
<trkpt lat="-27.2720004" lon="151.2902206">
  <ele>529.8</ele>
  <time>2026-09-01T19:56:14Z</time>
  <course>182.45</course>
  <speed>25.98355056569444</speed>
  <fix>3d</fix>
</trkpt>
<trkpt lat="-27.2719545" lon="151.2902228">
  <ele>530.86</ele>
  <time>2026-09-01T19:56:14Z</time>
  <course>182.9</course>
  <speed>25.99</speed>
  <fix>3d</fix>
</trkpt>
<trkpt lat="-27.2720237" lon="151.2902192">
  <ele>529.4</ele>
  <time>2026-09-01T19:56:14Z</time>
  <course>182.49</course>
  <speed>25.974073611969303</speed>
  <fix>3d</fix>
</trkpt>
<trkpt lat="-27.2720011" lon="151.2902201">
  <ele>530.07</ele>
  <time>2026-09-01T19:56:14Z</time>
  <course>182.99</course>
  <speed>25.96</speed>
  <fix>3d</fix>
</trkpt>
<trkpt lat="-27.2720471" lon="151.2902178">
  <ele>529.0</ele>
  <time>2026-09-01T19:56:14Z</time>
  <course>182.53</course>
  <speed>25.96460090199732</speed>
  <fix>3d</fix>
</trkpt>
<trkpt lat="-27.2720011" lon="151.2902201">
  <ele>530.07</ele>
  <time>2026-09-01T19:56:14Z</time>
  <course>182.99</course>
  <speed>25.96</speed>
  <fix>3d</fix>
</trkpt>
<trkpt lat="-27.2720704" lon="151.2902164">
  <ele>528.59</ele>
  <time>2026-09-01T19:56:14Z</time>
  <course>182.58</course>
  <speed>25.94514598147407</speed>
  <fix>3d</fix>
</trkpt>
<trkpt lat="-27.2720476" lon="151.2902174">
  <ele>529.28</ele>
  <time>2026-09-01T19:56:14Z</time>
  <course>183.05</course>
  <speed>25.93</speed>
  <fix>3d</fix>
</trkpt>
<trkpt lat="-27.2720937" lon="151.290215">
  <ele>528.19</ele>
  <time>2026-09-01T19:56:14Z</time>
  <course>182.6</course>
  <speed>25.93568198447845</speed>
  <fix>3d</fix>
</trkpt>
<trkpt lat="-27.2720476" lon="151.2902174">
  <ele>529.28</ele>
  <time>2026-09-01T19:56:14Z</time>
  <course>183.05</course>
  <speed>25.93</speed>
  <fix>3d</fix>
</trkpt>
<trkpt lat="-27.272117" lon="151.2902135">
  <ele>527.78</ele>
  <time>2026-09-01T19:56:14Z</time>
  <course>182.59</course>
  <speed>25.916236223649452</speed>
  <fix>3d</fix>
</trkpt>
<trkpt lat="-27.2720941" lon="151.2902145">
  <ele>528.47</ele>
  <time>2026-09-01T19:56:14Z</time>
  <course>183.09</course>
  <speed>25.9</speed>
  <fix>3d</fix>
</trkpt>
<trkpt lat="-27.2721405" lon="151.2902121">
  <ele>527.36</ele>
  <time>2026-09-01T19:56:14Z</time>
  <course>182.59</course>
  <speed>25.90625021109771</speed>
  <fix>3d</fix>
</trkpt>
<trkpt lat="-27.2720941" lon="151.2902145">
  <ele>528.47</ele>
  <time>2026-09-01T19:56:14Z</time>
  <course>183.09</course>
  <speed>25.9</speed>
  <fix>3d</fix>
</trkpt>
<trkpt lat="-27.2721638" lon="151.2902107">
  <ele>526.94</ele>
  <time>2026-09-01T19:56:14Z</time>
  <course>182.61</course>
  <speed>25.886278218392075</speed>
  <fix>3d</fix>
</trkpt>
<trkpt lat="-27.2721406" lon="151.2902117">
  <ele>527.66</ele>
  <time>2026-09-01T19:56:14Z</time>
  <course>183.11</course>
  <speed>25.87</speed>
  <fix>3d</fix>
</trkpt>
<trkpt lat="-27.2721871" lon="151.2902092">
  <ele>526.53</ele>
  <time>2026-09-01T19:56:14Z</time>
  <course>182.63</course>
  <speed>25.876823607235877</speed>
  <fix>3d</fix>
</trkpt>
<trkpt lat="-27.2721406" lon="151.2902117">
  <ele>527.66</ele>
  <time>2026-09-01T19:56:14Z</time>
  <course>183.11</course>
  <speed>25.87</speed>
  <fix>3d</fix>
</trkpt>
<trkpt lat="-27.2722103" lon="151.2902078">
  <ele>526.11</ele>
  <time>2026-09-01T19:56:14Z</time>
  <course>182.67</course>
  <speed>25.856852089919993</speed>
  <fix>3d</fix>
</trkpt>
<trkpt lat="-27.2721869" lon="151.2902088">
  <ele>526.83</ele>
  <time>2026-09-01T19:56:14Z</time>
  <course>183.12</course>
  <speed>25.83</speed>
  <fix>3d</fix>
</trkpt>
<trkpt lat="-27.2722335" lon="151.2902064">
  <ele>525.68</ele>
  <time>2026-09-01T19:56:14Z</time>
  <course>182.72</course>
  <speed>25.83688061666888</speed>
  <fix>3d</fix>
</trkpt>
<trkpt lat="-27.2721869" lon="151.2902088">
  <ele>526.83</ele>
  <time>2026-09-01T19:56:14Z</time>
  <course>183.12</course>
  <speed>25.83</speed>
  <fix>3d</fix>
</trkpt>
<trkpt lat="-27.2722567" lon="151.2902049">
  <ele>525.26</ele>
  <time>2026-09-01T19:56:14Z</time>
  <course>182.7</course>
  <speed>25.817445652116707</speed>
  <fix>3d</fix>
</trkpt>
<trkpt lat="-27.2722332" lon="151.290206">
  <ele>525.99</ele>
  <time>2026-09-01T19:56:14Z</time>
  <course>183.13</course>
  <speed>25.79</speed>
  <fix>3d</fix>
</trkpt>
<trkpt lat="-27.2722799" lon="151.2902035">
  <ele>524.83</ele>
  <time>2026-09-01T19:56:14Z</time>
  <course>182.68</course>
  <speed>25.797474682611863</speed>
  <fix>3d</fix>
</trkpt>
<trkpt lat="-27.2722332" lon="151.290206">
  <ele>525.99</ele>
  <time>2026-09-01T19:56:14Z</time>
  <course>183.13</course>
  <speed>25.79</speed>
  <fix>3d</fix>
</trkpt>
<trkpt lat="-27.272303" lon="151.2902021">
  <ele>524.4</ele>
  <time>2026-09-01T19:56:14Z</time>
  <course>182.69</course>
  <speed>25.776966462328343</speed>
  <fix>3d</fix>
</trkpt>
<trkpt lat="-27.2722795" lon="151.2902032">
  <ele>525.14</ele>
  <time>2026-09-01T19:56:14Z</time>
  <course>183.13</course>
  <speed>25.75</speed>
  <fix>3d</fix>
</trkpt>
<trkpt lat="-27.2723262" lon="151.2902006">
  <ele>523.97</ele>
  <time>2026-09-01T19:56:14Z</time>
  <course>182.66</course>
  <speed>25.75699516636209</speed>
  <fix>3d</fix>
</trkpt>
<trkpt lat="-27.2722795" lon="151.2902032">
  <ele>525.14</ele>
  <time>2026-09-01T19:56:14Z</time>
  <course>183.13</course>
  <speed>25.75</speed>
  <fix>3d</fix>
</trkpt>
<trkpt lat="-27.2723493" lon="151.2901992">
  <ele>523.53</ele>
  <time>2026-09-01T19:56:14Z</time>
  <course>182.64</course>
  <speed>25.737023914975097</speed>
  <fix>3d</fix>
</trkpt>
<trkpt lat="-27.2723257" lon="151.2902003">
  <ele>524.28</ele>
  <time>2026-09-01T19:56:14Z</time>
  <course>183.12</course>
  <speed>25.7</speed>
  <fix>3d</fix>
</trkpt>
<trkpt lat="-27.2723722" lon="151.2901978">
  <ele>523.09</ele>
  <time>2026-09-01T19:56:14Z</time>
  <course>182.63</course>
  <speed>25.707067121707993</speed>
  <fix>3d</fix>
</trkpt>
<trkpt lat="-27.2723257" lon="151.2902003">
  <ele>524.28</ele>
  <time>2026-09-01T19:56:14Z</time>
  <course>183.12</course>
  <speed>25.7</speed>
  <fix>3d</fix>
</trkpt>
<trkpt lat="-27.2723952" lon="151.2901964">
  <ele>522.65</ele>
  <time>2026-09-01T19:56:14Z</time>
  <course>182.63</course>
  <speed>25.68709598222423</speed>
  <fix>3d</fix>
</trkpt>
<trkpt lat="-27.2723718" lon="151.2901975">
  <ele>523.4</ele>
  <time>2026-09-01T19:56:14Z</time>
  <course>183.11</course>
  <speed>25.65</speed>
  <fix>3d</fix>
</trkpt>
<trkpt lat="-27.2724181" lon="151.2901949">
  <ele>522.2</ele>
  <time>2026-09-01T19:56:15Z</time>
  <course>182.63</course>
  <speed>25.656603438491228</speed>
  <fix>3d</fix>
</trkpt>
<trkpt lat="-27.2723718" lon="151.2901975">
  <ele>523.4</ele>
  <time>2026-09-01T19:56:15Z</time>
  <course>183.11</course>
  <speed>25.65</speed>
  <fix>3d</fix>
</trkpt>
<trkpt lat="-27.272441" lon="151.2901935">
  <ele>521.75</ele>
  <time>2026-09-01T19:56:15Z</time>
  <course>182.62</course>
  <speed>25.626646288580172</speed>
  <fix>3d</fix>
</trkpt>
<trkpt lat="-27.2724178" lon="151.2901947">
  <ele>522.52</ele>
  <time>2026-09-01T19:56:15Z</time>
  <course>183.1</course>
  <speed>25.61</speed>
  <fix>3d</fix>
</trkpt>
<trkpt lat="-27.2724637" lon="151.2901921">
  <ele>521.3</ele>
  <time>2026-09-01T19:56:15Z</time>
  <course>182.59</course>
  <speed>25.596155961393894</speed>
  <fix>3d</fix>
</trkpt>
<trkpt lat="-27.2724178" lon="151.2901947">
  <ele>522.52</ele>
  <time>2026-09-01T19:56:15Z</time>
  <course>183.1</course>
  <speed>25.61</speed>
  <fix>3d</fix>
</trkpt>
<trkpt lat="-27.2724864" lon="151.2901908">
  <ele>520.84</ele>
  <time>2026-09-01T19:56:15Z</time>
  <course>182.54</course>
  <speed>25.56619838771498</speed>
  <fix>3d</fix>
</trkpt>
<trkpt lat="-27.2724636" lon="151.2901919">
  <ele>521.62</ele>
  <time>2026-09-01T19:56:15Z</time>
  <course>183.09</course>
  <speed>25.57</speed>
  <fix>3d</fix>
</trkpt>
<trkpt lat="-27.272509" lon="151.2901894">
  <ele>520.38</ele>
  <time>2026-09-01T19:56:15Z</time>
  <course>182.49</course>
  <speed>25.525724279636023</speed>
  <fix>3d</fix>
</trkpt>
<trkpt lat="-27.2724636" lon="151.2901919">
  <ele>521.62</ele>
  <time>2026-09-01T19:56:15Z</time>
  <course>183.09</course>
  <speed>25.57</speed>
  <fix>3d</fix>
</trkpt>
<trkpt lat="-27.2725315" lon="151.290188">
  <ele>519.92</ele>
  <time>2026-09-01T19:56:15Z</time>
  <course>182.47</course>
  <speed>25.495238771190202</speed>
  <fix>3d</fix>
</trkpt>
<trkpt lat="-27.2725095" lon="151.2901891">
  <ele>520.71</ele>
  <time>2026-09-01T19:56:15Z</time>
  <course>183.06</course>
  <speed>25.53</speed>
  <fix>3d</fix>
</trkpt>
<trkpt lat="-27.2725541" lon="151.2901867">
  <ele>519.45</ele>
  <time>2026-09-01T19:56:15Z</time>
  <course>182.46</course>
  <speed>25.455294144833605</speed>
  <fix>3d</fix>
</trkpt>
<trkpt lat="-27.2725095" lon="151.2901891">
  <ele>520.71</ele>
  <time>2026-09-01T19:56:15Z</time>
  <course>183.06</course>
  <speed>25.53</speed>
  <fix>3d</fix>
</trkpt>
<trkpt lat="-27.2725766" lon="151.2901853">
  <ele>518.98</ele>
  <time>2026-09-01T19:56:15Z</time>
  <course>182.45</course>
  <speed>25.42481071709286</speed>
  <fix>3d</fix>
</trkpt>
<trkpt lat="-27.2725553" lon="151.2901863">
  <ele>519.79</ele>
  <time>2026-09-01T19:56:15Z</time>
  <course>183.03</course>
  <speed>25.49</speed>
  <fix>3d</fix>
</trkpt>
<trkpt lat="-27.2725991" lon="151.290184">
  <ele>518.51</ele>
  <time>2026-09-01T19:56:15Z</time>
  <course>182.41</course>
  <speed>25.404316562348217</speed>
  <fix>3d</fix>
</trkpt>
<trkpt lat="-27.2725553" lon="151.2901863">
  <ele>519.79</ele>
  <time>2026-09-01T19:56:15Z</time>
  <course>183.03</course>
  <speed>25.49</speed>
  <fix>3d</fix>
</trkpt>
<trkpt lat="-27.2726215" lon="151.2901826">
  <ele>518.04</ele>
  <time>2026-09-01T19:56:15Z</time>
  <course>182.37</course>
  <speed>25.373838889691093</speed>
  <fix>3d</fix>
</trkpt>
<trkpt lat="-27.272601" lon="151.2901836">
  <ele>518.84</ele>
  <time>2026-09-01T19:56:15Z</time>
  <course>183.0</course>
  <speed>25.46</speed>
  <fix>3d</fix>
</trkpt>
<trkpt lat="-27.2726442" lon="151.2901813">
  <ele>517.56</ele>
  <time>2026-09-01T19:56:15Z</time>
  <course>182.36</course>
  <speed>25.353350863347433</speed>
  <fix>3d</fix>
</trkpt>
<trkpt lat="-27.272601" lon="151.2901836">
  <ele>518.84</ele>
  <time>2026-09-01T19:56:15Z</time>
  <course>183.0</course>
  <speed>25.46</speed>
  <fix>3d</fix>
</trkpt>
<trkpt lat="-27.2726668" lon="151.29018">
  <ele>517.09</ele>
  <time>2026-09-01T19:56:15Z</time>
  <course>182.36</course>
  <speed>25.343364022954805</speed>
  <fix>3d</fix>
</trkpt>
<trkpt lat="-27.2726466" lon="151.290181">
  <ele>517.9</ele>
  <time>2026-09-01T19:56:15Z</time>
  <course>182.96</course>
  <speed>25.43</speed>
  <fix>3d</fix>
</trkpt>
<trkpt lat="-27.2726899" lon="151.2901786">
  <ele>516.6</ele>
  <time>2026-09-01T19:56:15Z</time>
  <course>182.37</course>
  <speed>25.332866004461476</speed>
  <fix>3d</fix>
</trkpt>
<trkpt lat="-27.2726466" lon="151.290181">
  <ele>517.9</ele>
  <time>2026-09-01T19:56:15Z</time>
  <course>182.96</course>
  <speed>25.43</speed>
  <fix>3d</fix>
</trkpt>
<trkpt lat="-27.2727127" lon="151.2901773">
  <ele>516.12</ele>
  <time>2026-09-01T19:56:15Z</time>
  <course>182.37</course>
  <speed>25.322371531908303</speed>
  <fix>3d</fix>
</trkpt>
<trkpt lat="-27.2726922" lon="151.2901783">
  <ele>516.94</ele>
  <time>2026-09-01T19:56:15Z</time>
  <course>182.94</course>
  <speed>25.41</speed>
  <fix>3d</fix>
</trkpt>
<trkpt lat="-27.2727353" lon="151.290176">
  <ele>515.64</ele>
  <time>2026-09-01T19:56:15Z</time>
  <course>182.35</course>
  <speed>25.311880609705792</speed>
  <fix>3d</fix>
</trkpt>
<trkpt lat="-27.2726922" lon="151.2901783">
  <ele>516.94</ele>
  <time>2026-09-01T19:56:15Z</time>
  <course>182.94</course>
  <speed>25.41</speed>
  <fix>3d</fix>
</trkpt>
<trkpt lat="-27.272758" lon="151.2901747">
  <ele>515.16</ele>
  <time>2026-09-01T19:56:15Z</time>
  <course>182.32</course>
  <speed>25.301893209797562</speed>
  <fix>3d</fix>
</trkpt>
<trkpt lat="-27.2727378" lon="151.2901757">
  <ele>515.99</ele>
  <time>2026-09-01T19:56:15Z</time>
  <course>182.91</course>
  <speed>25.39</speed>
  <fix>3d</fix>
</trkpt>
<trkpt lat="-27.2727806" lon="151.2901734">
  <ele>514.68</ele>
  <time>2026-09-01T19:56:15Z</time>
  <course>182.25</course>
  <speed>25.291405654886006</speed>
  <fix>3d</fix>
</trkpt>
<trkpt lat="-27.2727378" lon="151.2901757">
  <ele>515.99</ele>
  <time>2026-09-01T19:56:15Z</time>
  <course>182.91</course>
  <speed>25.39</speed>
  <fix>3d</fix>
</trkpt>
<trkpt lat="-27.2728032" lon="151.2901721">
  <ele>514.19</ele>
  <time>2026-09-01T19:56:15Z</time>
  <course>182.22</course>
  <speed>25.2809216604142</speed>
  <fix>3d</fix>
</trkpt>
<trkpt lat="-27.2727834" lon="151.2901731">
  <ele>515.03</ele>
  <time>2026-09-01T19:56:15Z</time>
  <course>182.87</course>
  <speed>25.37</speed>
  <fix>3d</fix>
</trkpt>
<trkpt lat="-27.2728258" lon="151.2901709">
  <ele>513.71</ele>
  <time>2026-09-01T19:56:15Z</time>
  <course>182.24</course>
  <speed>25.27044123081352</speed>
  <fix>3d</fix>
</trkpt>
<trkpt lat="-27.2727834" lon="151.2901731">
  <ele>515.03</ele>
  <time>2026-09-01T19:56:15Z</time>
  <course>182.87</course>
  <speed>25.37</speed>
  <fix>3d</fix>
</trkpt>
<trkpt lat="-27.2728485" lon="151.2901696">
  <ele>513.23</ele>
  <time>2026-09-01T19:56:15Z</time>
  <course>182.24</course>
  <speed>25.25996437052119</speed>
  <fix>3d</fix>
</trkpt>
<trkpt lat="-27.272829" lon="151.2901705">
  <ele>514.07</ele>
  <time>2026-09-01T19:56:15Z</time>
  <course>182.84</course>
  <speed>25.36</speed>
  <fix>3d</fix>
</trkpt>
<trkpt lat="-27.2728711" lon="151.2901683">
  <ele>512.75</ele>
  <time>2026-09-01T19:56:15Z</time>
  <course>182.25</course>
  <speed>25.25996437052119</speed>
  <fix>3d</fix>
</trkpt>
<trkpt lat="-27.272829" lon="151.2901705">
  <ele>514.07</ele>
  <time>2026-09-01T19:56:15Z</time>
  <course>182.84</course>
  <speed>25.36</speed>
  <fix>3d</fix>
</trkpt>
<trkpt lat="-27.2728937" lon="151.2901671">
  <ele>512.28</ele>
  <time>2026-09-01T19:56:15Z</time>
  <course>182.22</course>
  <speed>25.24949108398029</speed>
  <fix>3d</fix>
</trkpt>
<trkpt lat="-27.2728745" lon="151.290168">
  <ele>513.13</ele>
  <time>2026-09-01T19:56:15Z</time>
  <course>182.81</course>
  <speed>25.35</speed>
  <fix>3d</fix>
</trkpt>
<trkpt lat="-27.2729165" lon="151.2901658">
  <ele>511.8</ele>
  <time>2026-09-01T19:56:15Z</time>
  <course>182.2</course>
  <speed>25.24949108398029</speed>
  <fix>3d</fix>
</trkpt>
<trkpt lat="-27.2728745" lon="151.290168">
  <ele>513.13</ele>
  <time>2026-09-01T19:56:15Z</time>
  <course>182.81</course>
  <speed>25.35</speed>
  <fix>3d</fix>
</trkpt>
<trkpt lat="-27.2729392" lon="151.2901646">
  <ele>511.33</ele>
  <time>2026-09-01T19:56:15Z</time>
  <course>182.21</course>
  <speed>25.25899839661106</speed>
  <fix>3d</fix>
</trkpt>
<trkpt lat="-27.27292" lon="151.2901655">
  <ele>512.19</ele>
  <time>2026-09-01T19:56:15Z</time>
  <course>182.78</course>
  <speed>25.34</speed>
  <fix>3d</fix>
</trkpt>
<trkpt lat="-27.2729621" lon="151.2901633">
  <ele>510.87</ele>
  <time>2026-09-01T19:56:15Z</time>
  <course>182.19</course>
  <speed>25.25899839661106</speed>
  <fix>3d</fix>
</trkpt>
<trkpt lat="-27.27292" lon="151.2901655">
  <ele>512.19</ele>
  <time>2026-09-01T19:56:15Z</time>
  <course>182.78</course>
  <speed>25.34</speed>
  <fix>3d</fix>
</trkpt>
<trkpt lat="-27.2729849" lon="151.2901621">
  <ele>510.4</ele>
  <time>2026-09-01T19:56:15Z</time>
  <course>182.18</course>
  <speed>25.26851004709221</speed>
  <fix>3d</fix>
</trkpt>
<trkpt lat="-27.2729654" lon="151.290163">
  <ele>511.26</ele>
  <time>2026-09-01T19:56:15Z</time>
  <course>182.76</course>
  <speed>25.34</speed>
  <fix>3d</fix>
</trkpt>
<trkpt lat="-27.2730078" lon="151.2901609">
  <ele>509.94</ele>
  <time>2026-09-01T19:56:15Z</time>
  <course>182.18</course>
  <speed>25.26803712202434</speed>
  <fix>3d</fix>
</trkpt>
<trkpt lat="-27.2729654" lon="151.290163">
  <ele>511.26</ele>
  <time>2026-09-01T19:56:15Z</time>
  <course>182.76</course>
  <speed>25.34</speed>
  <fix>3d</fix>
</trkpt>
<trkpt lat="-27.2730306" lon="151.2901596">
  <ele>509.48</ele>
  <time>2026-09-01T19:56:15Z</time>
  <course>182.18</course>
  <speed>25.26803712202434</speed>
  <fix>3d</fix>
</trkpt>
<trkpt lat="-27.2730109" lon="151.2901605">
  <ele>510.34</ele>
  <time>2026-09-01T19:56:15Z</time>
  <course>182.73</course>
  <speed>25.33</speed>
  <fix>3d</fix>
</trkpt>
<trkpt lat="-27.2730536" lon="151.2901584">
  <ele>509.03</ele>
  <time>2026-09-01T19:56:15Z</time>
  <course>182.18</course>
  <speed>25.277557239575188</speed>
  <fix>3d</fix>
</trkpt>
<trkpt lat="-27.2730109" lon="151.2901605">
  <ele>510.34</ele>
  <time>2026-09-01T19:56:15Z</time>
  <course>182.73</course>
  <speed>25.33</speed>
  <fix>3d</fix>
</trkpt>
<trkpt lat="-27.2730764" lon="151.2901572">
  <ele>508.58</ele>
  <time>2026-09-01T19:56:15Z</time>
  <course>182.15</course>
  <speed>25.287081682155417</speed>
  <fix>3d</fix>
</trkpt>
<trkpt lat="-27.2730563" lon="151.2901582">
  <ele>509.43</ele>
  <time>2026-09-01T19:56:15Z</time>
  <course>182.7</course>
  <speed>25.32</speed>
  <fix>3d</fix>
</trkpt>
<trkpt lat="-27.273099" lon="151.290156">
  <ele>508.14</ele>
  <time>2026-09-01T19:56:15Z</time>
  <course>182.16</course>
  <speed>25.277092396080683</speed>
  <fix>3d</fix>
</trkpt>
<trkpt lat="-27.2730563" lon="151.2901582">
  <ele>509.43</ele>
  <time>2026-09-01T19:56:15Z</time>
  <course>182.7</course>
  <speed>25.32</speed>
  <fix>3d</fix>
</trkpt>
<trkpt lat="-27.2731217" lon="151.2901548">
  <ele>507.69</ele>
  <time>2026-09-01T19:56:15Z</time>
  <course>182.16</course>
  <speed>25.277092396080683</speed>
  <fix>3d</fix>
</trkpt>
<trkpt lat="-27.2731018" lon="151.2901557">
  <ele>508.53</ele>
  <time>2026-09-01T19:56:15Z</time>
  <course>182.68</course>
  <speed>25.31</speed>
  <fix>3d</fix>
</trkpt>
<trkpt lat="-27.2731444" lon="151.2901536">
  <ele>507.25</ele>
  <time>2026-09-01T19:56:15Z</time>
  <course>182.14</course>
  <speed>25.266642040445344</speed>
  <fix>3d</fix>
</trkpt>
<trkpt lat="-27.2731018" lon="151.2901557">
  <ele>508.53</ele>
  <time>2026-09-01T19:56:15Z</time>
  <course>182.68</course>
  <speed>25.31</speed>
  <fix>3d</fix>
</trkpt>
<trkpt lat="-27.2731671" lon="151.2901524">
  <ele>506.81</ele>
  <time>2026-09-01T19:56:15Z</time>
  <course>182.11</course>
  <speed>25.266642040445344</speed>
  <fix>3d</fix>
</trkpt>
<trkpt lat="-27.2731471" lon="151.2901534">
  <ele>507.65</ele>
  <time>2026-09-01T19:56:15Z</time>
  <course>182.66</course>
  <speed>25.29</speed>
  <fix>3d</fix>
</trkpt>
<trkpt lat="-27.27319" lon="151.2901513">
  <ele>506.37</ele>
  <time>2026-09-01T19:56:15Z</time>
  <course>182.11</course>
  <speed>25.256652588971484</speed>
  <fix>3d</fix>
</trkpt>
<trkpt lat="-27.2731471" lon="151.2901534">
  <ele>507.65</ele>
  <time>2026-09-01T19:56:15Z</time>
  <course>182.66</course>
  <speed>25.29</speed>
  <fix>3d</fix>
</trkpt>
<trkpt lat="-27.2732126" lon="151.2901501">
  <ele>505.93</ele>
  <time>2026-09-01T19:56:15Z</time>
  <course>182.18</course>
  <speed>25.236673711089583</speed>
  <fix>3d</fix>
</trkpt>
<trkpt lat="-27.2731925" lon="151.2901509">
  <ele>506.77</ele>
  <time>2026-09-01T19:56:15Z</time>
  <course>182.65</course>
  <speed>25.27</speed>
  <fix>3d</fix>
</trkpt>
<trkpt lat="-27.2732352" lon="151.2901489">
  <ele>505.49</ele>
  <time>2026-09-01T19:56:15Z</time>
  <course>182.29</course>
  <speed>25.22714609304826</speed>
  <fix>3d</fix>
</trkpt>
<trkpt lat="-27.2731925" lon="151.2901509">
  <ele>506.77</ele>
  <time>2026-09-01T19:56:15Z</time>
  <course>182.65</course>
  <speed>25.27</speed>
  <fix>3d</fix>
</trkpt>
<trkpt lat="-27.2732578" lon="151.2901477">
  <ele>505.06</ele>
  <time>2026-09-01T19:56:15Z</time>
  <course>182.44</course>
  <speed>25.218092711384816</speed>
  <fix>3d</fix>
</trkpt>
<trkpt lat="-27.2732379" lon="151.2901486">
  <ele>505.9</ele>
  <time>2026-09-01T19:56:15Z</time>
  <course>182.69</course>
  <speed>25.25</speed>
  <fix>3d</fix>
</trkpt>
<trkpt lat="-27.2732804" lon="151.2901464">
  <ele>504.62</ele>
  <time>2026-09-01T19:56:15Z</time>
  <course>182.58</course>
  <speed>25.201019820634244</speed>
  <fix>3d</fix>
</trkpt>
<trkpt lat="-27.2732379" lon="151.2901486">
  <ele>505.9</ele>
  <time>2026-09-01T19:56:15Z</time>
  <course>182.69</course>
  <speed>25.25</speed>
  <fix>3d</fix>
</trkpt>
<trkpt lat="-27.273303" lon="151.2901451">
  <ele>504.18</ele>
  <time>2026-09-01T19:56:15Z</time>
  <course>182.71</course>
  <speed>25.195128497390122</speed>
  <fix>3d</fix>
</trkpt>
<trkpt lat="-27.2732833" lon="151.2901461">
  <ele>505.02</ele>
  <time>2026-09-01T19:56:15Z</time>
  <course>182.89</course>
  <speed>25.22</speed>
  <fix>3d</fix>
</trkpt>
<trkpt lat="-27.2733259" lon="151.2901437">
  <ele>503.73</ele>
  <time>2026-09-01T19:56:15Z</time>
  <course>182.9</course>
  <speed>25.191764527321226</speed>
  <fix>3d</fix>
</trkpt>
<trkpt lat="-27.2732833" lon="151.2901461">
  <ele>505.02</ele>
  <time>2026-09-01T19:56:15Z</time>
  <course>182.89</course>
  <speed>25.22</speed>
  <fix>3d</fix>
</trkpt>
<trkpt lat="-27.2733486" lon="151.2901421">
  <ele>503.29</ele>
  <time>2026-09-01T19:56:15Z</time>
  <course>183.12</course>
  <speed>25.180883622303647</speed>
  <fix>3d</fix>
</trkpt>
<trkpt lat="-27.2733285" lon="151.2901433">
  <ele>504.14</ele>
  <time>2026-09-01T19:56:15Z</time>
  <course>183.35</course>
  <speed>25.2</speed>
  <fix>3d</fix>
</trkpt>
<trkpt lat="-27.2733713" lon="151.2901404">
  <ele>502.85</ele>
  <time>2026-09-01T19:56:15Z</time>
  <course>183.37</course>
  <speed>25.19366983986255</speed>
  <fix>3d</fix>
</trkpt>
<trkpt lat="-27.2733285" lon="151.2901433">
  <ele>504.14</ele>
  <time>2026-09-01T19:56:15Z</time>
  <course>183.35</course>
  <speed>25.2</speed>
  <fix>3d</fix>
</trkpt>
<trkpt lat="-27.273394" lon="151.2901384">
  <ele>502.41</ele>
  <time>2026-09-01T19:56:15Z</time>
  <course>183.71</course>
  <speed>25.190319569231352</speed>
  <fix>3d</fix>
</trkpt>
<trkpt lat="-27.2733736" lon="151.29014">
  <ele>503.25</ele>
  <time>2026-09-01T19:56:15Z</time>
  <course>184.11</course>
  <speed>25.18</speed>
  <fix>3d</fix>
</trkpt>
<trkpt lat="-27.2734167" lon="151.2901362">
  <ele>501.96</ele>
  <time>2026-09-01T19:56:15Z</time>
  <course>184.11</course>
  <speed>25.202438374093887</speed>
  <fix>3d</fix>
</trkpt>
<trkpt lat="-27.2733736" lon="151.29014">
  <ele>503.25</ele>
  <time>2026-09-01T19:56:15Z</time>
  <course>184.11</course>
  <speed>25.18</speed>
  <fix>3d</fix>
</trkpt>
<trkpt lat="-27.2734394" lon="151.2901338">
  <ele>501.52</ele>
  <time>2026-09-01T19:56:15Z</time>
  <course>184.62</course>
  <speed>25.211332769213136</speed>
  <fix>3d</fix>
</trkpt>
<trkpt lat="-27.2734187" lon="151.290136">
  <ele>502.36</ele>
  <time>2026-09-01T19:56:15Z</time>
  <course>185.2</course>
  <speed>25.17</speed>
  <fix>3d</fix>
</trkpt>
<trkpt lat="-27.2734621" lon="151.290131">
  <ele>501.07</ele>
  <time>2026-09-01T19:56:15Z</time>
  <course>185.21</course>
  <speed>25.217305565821263</speed>
  <fix>3d</fix>
</trkpt>
<trkpt lat="-27.2734187" lon="151.290136">
  <ele>502.36</ele>
  <time>2026-09-01T19:56:15Z</time>
  <course>185.2</course>
  <speed>25.17</speed>
  <fix>3d</fix>
</trkpt>
<trkpt lat="-27.2734847" lon="151.2901278">
  <ele>500.62</ele>
  <time>2026-09-01T19:56:15Z</time>
  <course>185.88</course>
  <speed>25.232782248495706</speed>
  <fix>3d</fix>
</trkpt>
<trkpt lat="-27.2734636" lon="151.2901307">
  <ele>501.47</ele>
  <time>2026-09-01T19:56:15Z</time>
  <course>186.63</course>
  <speed>25.16</speed>
  <fix>3d</fix>
</trkpt>
<trkpt lat="-27.2735071" lon="151.2901243">
  <ele>500.18</ele>
  <time>2026-09-01T19:56:15Z</time>
  <course>186.67</course>
  <speed>25.238260637373568</speed>
  <fix>3d</fix>
</trkpt>
<trkpt lat="-27.2734636" lon="151.2901307">
  <ele>501.47</ele>
  <time>2026-09-01T19:56:15Z</time>
  <course>186.63</course>
  <speed>25.16</speed>
  <fix>3d</fix>
</trkpt>
<trkpt lat="-27.2735295" lon="151.2901204">
  <ele>499.73</ele>
  <time>2026-09-01T19:56:15Z</time>
  <course>187.55</course>
  <speed>25.256652588971484</speed>
  <fix>3d</fix>
</trkpt>
<trkpt lat="-27.2735085" lon="151.2901241">
  <ele>500.57</ele>
  <time>2026-09-01T19:56:15Z</time>
  <course>188.38</course>
  <speed>25.17</speed>
  <fix>3d</fix>
</trkpt>
<trkpt lat="-27.2735519" lon="151.290116">
  <ele>499.29</ele>
  <time>2026-09-01T19:56:15Z</time>
  <course>188.55</course>
  <speed>25.266725153846114</speed>
  <fix>3d</fix>
</trkpt>
<trkpt lat="-27.2735085" lon="151.2901241">
  <ele>500.57</ele>
  <time>2026-09-01T19:56:15Z</time>
  <course>188.38</course>
  <speed>25.17</speed>
  <fix>3d</fix>
</trkpt>
<trkpt lat="-27.2735739" lon="151.2901112">
  <ele>498.85</ele>
  <time>2026-09-01T19:56:15Z</time>
  <course>189.62</course>
  <speed>25.283548010514664</speed>
  <fix>3d</fix>
</trkpt>
<trkpt lat="-27.2735531" lon="151.2901158">
  <ele>499.69</ele>
  <time>2026-09-01T19:56:15Z</time>
  <course>190.46</course>
  <speed>25.19</speed>
  <fix>3d</fix>
</trkpt>
<trkpt lat="-27.2735962" lon="151.2901058">
  <ele>498.4</ele>
  <time>2026-09-01T19:56:15Z</time>
  <course>190.79</course>
  <speed>25.309573287592187</speed>
  <fix>3d</fix>
</trkpt>
<trkpt lat="-27.2735531" lon="151.2901158">
  <ele>499.69</ele>
  <time>2026-09-01T19:56:15Z</time>
  <course>190.46</course>
  <speed>25.19</speed>
  <fix>3d</fix>
</trkpt>
<trkpt lat="-27.2736183" lon="151.2900998">
  <ele>497.96</ele>
  <time>2026-09-01T19:56:15Z</time>
  <course>192.06</course>
  <speed>25.33773865205812</speed>
  <fix>3d</fix>
</trkpt>
<trkpt lat="-27.2735974" lon="151.2901055">
  <ele>498.81</ele>
  <time>2026-09-01T19:56:15Z</time>
  <course>192.86</course>
  <speed>25.21</speed>
  <fix>3d</fix>
</trkpt>
<trkpt lat="-27.2736404" lon="151.2900933">
  <ele>497.52</ele>
  <time>2026-09-01T19:56:15Z</time>
  <course>193.4</course>
  <speed>25.35872433700087</speed>
  <fix>3d</fix>
</trkpt>
<trkpt lat="-27.2735974" lon="151.2901055">
  <ele>498.81</ele>
  <time>2026-09-01T19:56:15Z</time>
  <course>192.86</course>
  <speed>25.21</speed>
  <fix>3d</fix>
</trkpt>
<trkpt lat="-27.2736625" lon="151.290086">
  <ele>497.08</ele>
  <time>2026-09-01T19:56:15Z</time>
  <course>194.81</course>
  <speed>25.391402088108485</speed>
  <fix>3d</fix>
</trkpt>
<trkpt lat="-27.2736413" lon="151.290093">
  <ele>497.94</ele>
  <time>2026-09-01T19:56:15Z</time>
  <course>195.58</course>
  <speed>25.25</speed>
  <fix>3d</fix>
</trkpt>
<trkpt lat="-27.2736843" lon="151.2900781">
  <ele>496.65</ele>
  <time>2026-09-01T19:56:15Z</time>
  <course>196.34</course>
  <speed>25.421606951567796</speed>
  <fix>3d</fix>
</trkpt>
<trkpt lat="-27.2736413" lon="151.290093">
  <ele>497.94</ele>
  <time>2026-09-01T19:56:15Z</time>
  <course>195.58</course>
  <speed>25.25</speed>
  <fix>3d</fix>
</trkpt>
<trkpt lat="-27.2737059" lon="151.2900696">
  <ele>496.21</ele>
  <time>2026-09-01T19:56:15Z</time>
  <course>197.98</course>
  <speed>25.45576948355716</speed>
  <fix>3d</fix>
</trkpt>
<trkpt lat="-27.2736847" lon="151.290078">
  <ele>497.07</ele>
  <time>2026-09-01T19:56:15Z</time>
  <course>198.63</course>
  <speed>25.29</speed>
  <fix>3d</fix>
</trkpt>
<trkpt lat="-27.2737273" lon="151.2900603">
  <ele>495.79</ele>
  <time>2026-09-01T19:56:15Z</time>
  <course>199.7</course>
  <speed>25.497909718249456</speed>
  <fix>3d</fix>
</trkpt>
<trkpt lat="-27.2736847" lon="151.290078">
  <ele>497.07</ele>
  <time>2026-09-01T19:56:15Z</time>
  <course>198.63</course>
  <speed>25.29</speed>
  <fix>3d</fix>
</trkpt>
<trkpt lat="-27.2737485" lon="151.2900503">
  <ele>495.36</ele>
  <time>2026-09-01T19:56:15Z</time>
  <course>201.44</course>
  <speed>25.531065391009438</speed>
  <fix>3d</fix>
</trkpt>
<trkpt lat="-27.2737275" lon="151.2900602">
  <ele>496.21</ele>
  <time>2026-09-01T19:56:15Z</time>
  <course>202.01</course>
  <speed>25.34</speed>
  <fix>3d</fix>
</trkpt>
<trkpt lat="-27.2737694" lon="151.2900395">
  <ele>494.95</ele>
  <time>2026-09-01T19:56:15Z</time>
  <course>203.21</course>
  <speed>25.562169313264477</speed>
  <fix>3d</fix>
</trkpt>
<trkpt lat="-27.2737275" lon="151.2900602">
  <ele>496.21</ele>
  <time>2026-09-01T19:56:15Z</time>
  <course>202.01</course>
  <speed>25.34</speed>
  <fix>3d</fix>
</trkpt>
<trkpt lat="-27.2737899" lon="151.2900279">
  <ele>494.53</ele>
  <time>2026-09-01T19:56:15Z</time>
  <course>205.04</course>
  <speed>25.592319160248064</speed>
  <fix>3d</fix>
</trkpt>
<trkpt lat="-27.2737692" lon="151.2900394">
  <ele>495.37</ele>
  <time>2026-09-01T19:56:15Z</time>
  <course>205.63</course>
  <speed>25.4</speed>
  <fix>3d</fix>
</trkpt>
<trkpt lat="-27.2738102" lon="151.2900156">
  <ele>494.12</ele>
  <time>2026-09-01T19:56:15Z</time>
  <course>206.93</course>
  <speed>25.622712580833436</speed>
  <fix>3d</fix>
</trkpt>
<trkpt lat="-27.2737692" lon="151.2900394">
  <ele>495.37</ele>
  <time>2026-09-01T19:56:15Z</time>
  <course>205.63</course>
  <speed>25.4</speed>
  <fix>3d</fix>
</trkpt>
<trkpt lat="-27.2738301" lon="151.2900025">
  <ele>493.71</ele>
  <time>2026-09-01T19:56:15Z</time>
  <course>208.84</course>
  <speed>25.651270923679395</speed>
  <fix>3d</fix>
</trkpt>
<trkpt lat="-27.2738097" lon="151.2900158">
  <ele>494.54</ele>
  <time>2026-09-01T19:56:15Z</time>
  <course>209.38</course>
  <speed>25.45</speed>
  <fix>3d</fix>
</trkpt>
<trkpt lat="-27.2738495" lon="151.2899887">
  <ele>493.3</ele>
  <time>2026-09-01T19:56:15Z</time>
  <course>210.72</course>
  <speed>25.667302156635007</speed>
  <fix>3d</fix>
</trkpt>
<trkpt lat="-27.2738097" lon="151.2900158">
  <ele>494.54</ele>
  <time>2026-09-01T19:56:15Z</time>
  <course>209.38</course>
  <speed>25.45</speed>
  <fix>3d</fix>
</trkpt>
<trkpt lat="-27.2738686" lon="151.2899742">
  <ele>492.89</ele>
  <time>2026-09-01T19:56:15Z</time>
  <course>212.58</course>
  <speed>25.689476444645578</speed>
  <fix>3d</fix>
</trkpt>
<trkpt lat="-27.2738488" lon="151.289989">
  <ele>493.72</ele>
  <time>2026-09-01T19:56:15Z</time>
  <course>213.19</course>
  <speed>25.5</speed>
  <fix>3d</fix>
</trkpt>
<trkpt lat="-27.2738872" lon="151.2899589">
  <ele>492.49</ele>
  <time>2026-09-01T19:56:15Z</time>
  <course>214.44</course>
  <speed>25.706001244845528</speed>
  <fix>3d</fix>
</trkpt>
<trkpt lat="-27.2738488" lon="151.289989">
  <ele>493.72</ele>
  <time>2026-09-01T19:56:15Z</time>
  <course>213.19</course>
  <speed>25.5</speed>
  <fix>3d</fix>
</trkpt>
<trkpt lat="-27.2739054" lon="151.289943">
  <ele>492.09</ele>
  <time>2026-09-01T19:56:15Z</time>
  <course>216.18</course>
  <speed>25.70933682536366</speed>
  <fix>3d</fix>
</trkpt>
<trkpt lat="-27.2738863" lon="151.2899593">
  <ele>492.91</ele>
  <time>2026-09-01T19:56:15Z</time>
  <course>216.97</course>
  <speed>25.53</speed>
  <fix>3d</fix>
</trkpt>
<trkpt lat="-27.2739231" lon="151.2899264">
  <ele>491.69</ele>
  <time>2026-09-01T19:56:15Z</time>
  <course>217.86</course>
  <speed>25.692243965835292</speed>
  <fix>3d</fix>
</trkpt>
<trkpt lat="-27.2738863" lon="151.2899593">
  <ele>492.91</ele>
  <time>2026-09-01T19:56:15Z</time>
  <course>216.97</course>
  <speed>25.53</speed>
  <fix>3d</fix>
</trkpt>
<trkpt lat="-27.2739403" lon="151.2899094">
  <ele>491.3</ele>
  <time>2026-09-01T19:56:15Z</time>
  <course>219.42</course>
  <speed>25.686805951694346</speed>
  <fix>3d</fix>
</trkpt>
<trkpt lat="-27.2739221" lon="151.2899271">
  <ele>492.1</ele>
  <time>2026-09-01T19:56:15Z</time>
  <course>220.52</course>
  <speed>25.55</speed>
  <fix>3d</fix>
</trkpt>
<trkpt lat="-27.2739569" lon="151.289892">
  <ele>490.9</ele>
  <time>2026-09-01T19:56:15Z</time>
  <course>220.78</course>
  <speed>25.64000195007793</speed>
  <fix>3d</fix>
</trkpt>
<trkpt lat="-27.2739221" lon="151.2899271">
  <ele>492.1</ele>
  <time>2026-09-01T19:56:15Z</time>
  <course>220.52</course>
  <speed>25.55</speed>
  <fix>3d</fix>
</trkpt>
<trkpt lat="-27.273973" lon="151.2898744">
  <ele>490.5</ele>
  <time>2026-09-01T19:56:15Z</time>
  <course>221.95</course>
  <speed>25.597281105617448</speed>
  <fix>3d</fix>
</trkpt>
<trkpt lat="-27.2739561" lon="151.2898924">
  <ele>491.3</ele>
  <time>2026-09-01T19:56:15Z</time>
  <course>223.66</course>
  <speed>25.53</speed>
  <fix>3d</fix>
</trkpt>
<trkpt lat="-27.2739888" lon="151.2898561">
  <ele>490.1</ele>
  <time>2026-09-01T19:56:15Z</time>
  <course>222.89</course>
  <speed>25.53802067506407</speed>
  <fix>3d</fix>
</trkpt>
<trkpt lat="-27.2739561" lon="151.2898924">
  <ele>491.3</ele>
  <time>2026-09-01T19:56:15Z</time>
  <course>223.66</course>
  <speed>25.53</speed>
  <fix>3d</fix>
</trkpt>
<trkpt lat="-27.2740044" lon="151.2898376">
  <ele>489.69</ele>
  <time>2026-09-01T19:56:15Z</time>
  <course>223.63</course>
  <speed>25.477285962205627</speed>
  <fix>3d</fix>
</trkpt>
<trkpt lat="-27.2739885" lon="151.2898559">
  <ele>490.49</ele>
  <time>2026-09-01T19:56:15Z</time>
  <course>226.1</course>
  <speed>25.48</speed>
  <fix>3d</fix>
</trkpt>
<trkpt lat="-27.2740197" lon="151.2898189">
  <ele>489.28</ele>
  <time>2026-09-01T19:56:15Z</time>
  <course>224.21</course>
  <speed>25.396204440821467</speed>
  <fix>3d</fix>
</trkpt>
<trkpt lat="-27.2739885" lon="151.2898559">
  <ele>490.49</ele>
  <time>2026-09-01T19:56:15Z</time>
  <course>226.1</course>
  <speed>25.48</speed>
  <fix>3d</fix>
</trkpt>
<trkpt lat="-27.2740348" lon="151.2898001">
  <ele>488.85</ele>
  <time>2026-09-01T19:56:15Z</time>
  <course>224.71</course>
  <speed>25.31144602743984</speed>
  <fix>3d</fix>
</trkpt>
<trkpt lat="-27.2740197" lon="151.2898184">
  <ele>489.65</ele>
  <time>2026-09-01T19:56:15Z</time>
  <course>227.6</course>
  <speed>25.37</speed>
  <fix>3d</fix>
</trkpt>
<trkpt lat="-27.27405" lon="151.2897811">
  <ele>488.4</ele>
  <time>2026-09-01T19:56:15Z</time>
  <course>225.19</course>
  <speed>25.20807807033293</speed>
  <fix>3d</fix>
</trkpt>
<trkpt lat="-27.2740197" lon="151.2898184">
  <ele>489.65</ele>
  <time>2026-09-01T19:56:15Z</time>
  <course>227.6</course>
  <speed>25.37</speed>
  <fix>3d</fix>
</trkpt>
<trkpt lat="-27.274065" lon="151.2897623">
  <ele>487.93</ele>
  <time>2026-09-01T19:56:15Z</time>
  <course>225.69</course>
  <speed>25.11443608763693</speed>
  <fix>3d</fix>
</trkpt>
<trkpt lat="-27.2740502" lon="151.2897805">
  <ele>488.78</ele>
  <time>2026-09-01T19:56:15Z</time>
  <course>228.14</course>
  <speed>25.21</speed>
  <fix>3d</fix>
</trkpt>
<trkpt lat="-27.27408" lon="151.2897435">
  <ele>487.44</ele>
  <time>2026-09-01T19:56:15Z</time>
  <course>226.14</course>
  <speed>25.01737396290826</speed>
  <fix>3d</fix>
</trkpt>
<trkpt lat="-27.2740502" lon="151.2897805">
  <ele>488.78</ele>
  <time>2026-09-01T19:56:15Z</time>
  <course>228.14</course>
  <speed>25.21</speed>
  <fix>3d</fix>
</trkpt>
<trkpt lat="-27.2740951" lon="151.2897249">
  <ele>486.92</ele>
  <time>2026-09-01T19:56:15Z</time>
  <course>226.51</course>
  <speed>24.93246277446334</speed>
  <fix>3d</fix>
</trkpt>
<trkpt lat="-27.2740804" lon="151.2897426">
  <ele>487.81</ele>
  <time>2026-09-01T19:56:15Z</time>
  <course>227.89</course>
  <speed>25.03</speed>
  <fix>3d</fix>
</trkpt>
<trkpt lat="-27.2741102" lon="151.2897066">
  <ele>486.38</ele>
  <time>2026-09-01T19:56:15Z</time>
  <course>226.67</course>
  <speed>24.8671932473289</speed>
  <fix>3d</fix>
</trkpt>
<trkpt lat="-27.2740804" lon="151.2897426">
  <ele>487.81</ele>
  <time>2026-09-01T19:56:15Z</time>
  <course>227.89</course>
  <speed>25.03</speed>
  <fix>3d</fix>
</trkpt>
<trkpt lat="-27.2741254" lon="151.2896885">
  <ele>485.82</ele>
  <time>2026-09-01T19:56:15Z</time>
  <course>226.56</course>
  <speed>24.816899484020965</speed>
  <fix>3d</fix>
</trkpt>
<trkpt lat="-27.2741107" lon="151.2897054">
  <ele>486.76</ele>
  <time>2026-09-01T19:56:15Z</time>
  <course>226.97</course>
  <speed>24.9</speed>
  <fix>3d</fix>
</trkpt>
<trkpt lat="-27.2741408" lon="151.2896707">
  <ele>485.26</ele>
  <time>2026-09-01T19:56:15Z</time>
  <course>226.17</course>
  <speed>24.791308961004862</speed>
  <fix>3d</fix>
</trkpt>
<trkpt lat="-27.2741107" lon="151.2897054">
  <ele>486.76</ele>
  <time>2026-09-01T19:56:15Z</time>
  <course>226.97</course>
  <speed>24.9</speed>
  <fix>3d</fix>
</trkpt>
<trkpt lat="-27.2741565" lon="151.2896532">
  <ele>484.69</ele>
  <time>2026-09-01T19:56:15Z</time>
  <course>225.45</course>
  <speed>24.79410413787923</speed>
  <fix>3d</fix>
</trkpt>
<trkpt lat="-27.2741416" lon="151.2896691">
  <ele>485.64</ele>
  <time>2026-09-01T19:56:15Z</time>
  <course>225.37</course>
  <speed>24.84</speed>
  <fix>3d</fix>
</trkpt>
<trkpt lat="-27.2741725" lon="151.289636">
  <ele>484.12</ele>
  <time>2026-09-01T19:56:15Z</time>
  <course>224.41</course>
  <speed>24.815529412043578</speed>
  <fix>3d</fix>
</trkpt>
<trkpt lat="-27.2741416" lon="151.2896691">
  <ele>485.64</ele>
  <time>2026-09-01T19:56:15Z</time>
  <course>225.37</course>
  <speed>24.84</speed>
  <fix>3d</fix>
</trkpt>
<trkpt lat="-27.2741889" lon="151.2896192">
  <ele>483.56</ele>
  <time>2026-09-01T19:56:15Z</time>
  <course>223.12</course>
  <speed>24.853156741146584</speed>
  <fix>3d</fix>
</trkpt>
<trkpt lat="-27.2741736" lon="151.2896341">
  <ele>484.51</ele>
  <time>2026-09-01T19:56:15Z</time>
  <course>223.06</course>
  <speed>24.86</speed>
  <fix>3d</fix>
</trkpt>
<trkpt lat="-27.2742057" lon="151.2896029">
  <ele>483.0</ele>
  <time>2026-09-01T19:56:15Z</time>
  <course>221.67</course>
  <speed>24.90447750907455</speed>
  <fix>3d</fix>
</trkpt>
<trkpt lat="-27.2741736" lon="151.2896341">
  <ele>484.51</ele>
  <time>2026-09-01T19:56:15Z</time>
  <course>223.06</course>
  <speed>24.86</speed>
  <fix>3d</fix>
</trkpt>
<trkpt lat="-27.2742229" lon="151.2895871">
  <ele>482.45</ele>
  <time>2026-09-01T19:56:15Z</time>
  <course>220.05</course>
  <speed>24.96055488165277</speed>
  <fix>3d</fix>
</trkpt>
<trkpt lat="-27.2742069" lon="151.2896006">
  <ele>483.39</ele>
  <time>2026-09-01T19:56:15Z</time>
  <course>220.1</course>
  <speed>24.95</speed>
  <fix>3d</fix>
</trkpt>
<trkpt lat="-27.2742406" lon="151.2895718">
  <ele>481.91</ele>
  <time>2026-09-01T19:56:15Z</time>
  <course>218.26</course>
  <speed>25.024949550398695</speed>
  <fix>3d</fix>
</trkpt>
<trkpt lat="-27.2742069" lon="151.2896006">
  <ele>483.39</ele>
  <time>2026-09-01T19:56:15Z</time>
  <course>220.1</course>
  <speed>24.95</speed>
  <fix>3d</fix>
</trkpt>
<trkpt lat="-27.2742588" lon="151.2895571">
  <ele>481.39</ele>
  <time>2026-09-01T19:56:15Z</time>
  <course>216.33</course>
  <speed>25.082832774628947</speed>
  <fix>3d</fix>
</trkpt>
<trkpt lat="-27.2742421" lon="151.2895692">
  <ele>482.3</ele>
  <time>2026-09-01T19:56:15Z</time>
  <course>216.59</course>
  <speed>25.06</speed>
  <fix>3d</fix>
</trkpt>
<trkpt lat="-27.2742776" lon="151.289543">
  <ele>480.87</ele>
  <time>2026-09-01T19:56:15Z</time>
  <course>214.31</course>
  <speed>25.159558819661367</speed>
  <fix>3d</fix>
</trkpt>
<trkpt lat="-27.2742421" lon="151.2895692">
  <ele>482.3</ele>
  <time>2026-09-01T19:56:15Z</time>
  <course>216.59</course>
  <speed>25.06</speed>
  <fix>3d</fix>
</trkpt>
<trkpt lat="-27.2742969" lon="151.2895297">
  <ele>480.37</ele>
  <time>2026-09-01T19:56:15Z</time>
  <course>212.18</course>
  <speed>25.234581431044184</speed>
  <fix>3d</fix>
</trkpt>
<trkpt lat="-27.2742793" lon="151.2895404">
  <ele>481.26</ele>
  <time>2026-09-01T19:56:15Z</time>
  <course>212.62</course>
  <speed>25.2</speed>
  <fix>3d</fix>
</trkpt>
<trkpt lat="-27.2743168" lon="151.2895171">
  <ele>479.89</ele>
  <time>2026-09-01T19:56:15Z</time>
  <course>209.99</course>
  <speed>25.31176801410759</speed>
  <fix>3d</fix>
</trkpt>
<trkpt lat="-27.2742793" lon="151.2895404">
  <ele>481.26</ele>
  <time>2026-09-01T19:56:15Z</time>
  <course>212.62</course>
  <speed>25.2</speed>
  <fix>3d</fix>
</trkpt>
<trkpt lat="-27.2743371" lon="151.2895053">
  <ele>479.41</ele>
  <time>2026-09-01T19:56:15Z</time>
  <course>207.76</course>
  <speed>25.386240367569197</speed>
  <fix>3d</fix>
</trkpt>
<trkpt lat="-27.2743184" lon="151.2895145">
  <ele>480.28</ele>
  <time>2026-09-01T19:56:15Z</time>
  <course>208.29</course>
  <speed>25.33</speed>
  <fix>3d</fix>
</trkpt>
<trkpt lat="-27.2743579" lon="151.2894944">
  <ele>478.95</ele>
  <time>2026-09-01T19:56:15Z</time>
  <course>205.42</course>
  <speed>25.47103845546938</speed>
  <fix>3d</fix>
</trkpt>
<trkpt lat="-27.2743184" lon="151.2895145">
  <ele>480.28</ele>
  <time>2026-09-01T19:56:15Z</time>
  <course>208.29</course>
  <speed>25.33</speed>
  <fix>3d</fix>
</trkpt>
<trkpt lat="-27.2743791" lon="151.2894845">
  <ele>478.5</ele>
  <time>2026-09-01T19:56:15Z</time>
  <course>203.02</course>
  <speed>25.54279741923347</speed>
  <fix>3d</fix>
</trkpt>
<trkpt lat="-27.2743594" lon="151.289492">
  <ele>479.35</ele>
  <time>2026-09-01T19:56:15Z</time>
  <course>203.68</course>
  <speed>25.46</speed>
  <fix>3d</fix>
</trkpt>
<trkpt lat="-27.2744009" lon="151.2894755">
  <ele>478.06</ele>
  <time>2026-09-01T19:56:15Z</time>
  <course>200.56</course>
  <speed>25.608236956104573</speed>
  <fix>3d</fix>
</trkpt>
<trkpt lat="-27.2743594" lon="151.289492">
  <ele>479.35</ele>
  <time>2026-09-01T19:56:15Z</time>
  <course>203.68</course>
  <speed>25.46</speed>
  <fix>3d</fix>
</trkpt>
<trkpt lat="-27.2744229" lon="151.2894676">
  <ele>477.64</ele>
  <time>2026-09-01T19:56:15Z</time>
  <course>198.13</course>
  <speed>25.672849471766863</speed>
  <fix>3d</fix>
</trkpt>
<trkpt lat="-27.2744021" lon="151.2894733">
  <ele>478.47</ele>
  <time>2026-09-01T19:56:15Z</time>
  <course>198.86</course>
  <speed>25.59</speed>
  <fix>3d</fix>
</trkpt>
<trkpt lat="-27.2744452" lon="151.2894607">
  <ele>477.23</ele>
  <time>2026-09-01T19:56:15Z</time>
  <course>195.71</course>
  <speed>25.721356884892366</speed>
  <fix>3d</fix>
</trkpt>
<trkpt lat="-27.2744021" lon="151.2894733">
  <ele>478.47</ele>
  <time>2026-09-01T19:56:15Z</time>
  <course>198.86</course>
  <speed>25.59</speed>
  <fix>3d</fix>
</trkpt>
<trkpt lat="-27.2744677" lon="151.289455">
  <ele>476.83</ele>
  <time>2026-09-01T19:56:15Z</time>
  <course>193.3</course>
  <speed>25.763798244824073</speed>
  <fix>3d</fix>
</trkpt>
<trkpt lat="-27.2744464" lon="151.2894587">
  <ele>477.64</ele>
  <time>2026-09-01T19:56:15Z</time>
  <course>193.93</course>
  <speed>25.69</speed>
  <fix>3d</fix>
</trkpt>
<trkpt lat="-27.2744903" lon="151.2894502">
  <ele>476.44</ele>
  <time>2026-09-01T19:56:15Z</time>
  <course>190.84</course>
  <speed>25.794235790191575</speed>
  <fix>3d</fix>
</trkpt>
<trkpt lat="-27.2744464" lon="151.2894587">
  <ele>477.64</ele>
  <time>2026-09-01T19:56:15Z</time>
  <course>193.93</course>
  <speed>25.69</speed>
  <fix>3d</fix>
</trkpt>
<trkpt lat="-27.2745132" lon="151.2894467">
  <ele>476.06</ele>
  <time>2026-09-01T19:56:15Z</time>
  <course>188.42</course>
  <speed>25.82993999218736</speed>
  <fix>3d</fix>
</trkpt>
<trkpt lat="-27.2744918" lon="151.2894483">
  <ele>476.85</ele>
  <time>2026-09-01T19:56:15Z</time>
  <course>189.0</course>
  <speed>25.77</speed>
  <fix>3d</fix>
</trkpt>
<trkpt lat="-27.2745363" lon="151.2894441">
  <ele>475.69</ele>
  <time>2026-09-01T19:56:15Z</time>
  <course>185.99</course>
  <speed>25.851353929726773</speed>
  <fix>3d</fix>
</trkpt>
<trkpt lat="-27.2744918" lon="151.2894483">
  <ele>476.85</ele>
  <time>2026-09-01T19:56:15Z</time>
  <course>189.0</course>
  <speed>25.77</speed>
  <fix>3d</fix>
</trkpt>
<trkpt lat="-27.2745595" lon="151.2894427">
  <ele>475.32</ele>
  <time>2026-09-01T19:56:15Z</time>
  <course>183.58</course>
  <speed>25.868938903634994</speed>
  <fix>3d</fix>
</trkpt>
<trkpt lat="-27.2745378" lon="151.2894423">
  <ele>476.1</ele>
  <time>2026-09-01T19:56:15Z</time>
  <course>184.11</course>
  <speed>25.82</speed>
  <fix>3d</fix>
</trkpt>
<trkpt lat="-27.2745828" lon="151.2894424">
  <ele>474.96</ele>
  <time>2026-09-01T19:56:15Z</time>
  <course>181.21</course>
  <speed>25.892937260959794</speed>
  <fix>3d</fix>
</trkpt>
<trkpt lat="-27.2745378" lon="151.2894423">
  <ele>476.1</ele>
  <time>2026-09-01T19:56:15Z</time>
  <course>184.11</course>
  <speed>25.82</speed>
  <fix>3d</fix>
</trkpt>
<trkpt lat="-27.2746061" lon="151.2894431">
  <ele>474.6</ele>
  <time>2026-09-01T19:56:15Z</time>
  <course>178.82</course>
  <speed>25.901747045324957</speed>
  <fix>3d</fix>
</trkpt>
<trkpt lat="-27.2745842" lon="151.2894408">
  <ele>475.37</ele>
  <time>2026-09-01T19:56:15Z</time>
  <course>179.24</course>
  <speed>25.85</speed>
  <fix>3d</fix>
</trkpt>
<trkpt lat="-27.2746293" lon="151.289445">
  <ele>474.24</ele>
  <time>2026-09-01T19:56:15Z</time>
  <course>176.41</course>
  <speed>25.905808229043927</speed>
  <fix>3d</fix>
</trkpt>
<trkpt lat="-27.2745842" lon="151.2894408">
  <ele>475.37</ele>
  <time>2026-09-01T19:56:15Z</time>
  <course>179.24</course>
  <speed>25.85</speed>
  <fix>3d</fix>
</trkpt>
<trkpt lat="-27.2746523" lon="151.289448">
  <ele>473.89</ele>
  <time>2026-09-01T19:56:15Z</time>
  <course>173.98</course>
  <speed>25.895684968735623</speed>
  <fix>3d</fix>
</trkpt>
<trkpt lat="-27.2746305" lon="151.2894436">
  <ele>474.65</ele>
  <time>2026-09-01T19:56:15Z</time>
  <course>174.41</course>
  <speed>25.86</speed>
  <fix>3d</fix>
</trkpt>
<trkpt lat="-27.2746753" lon="151.289452">
  <ele>473.53</ele>
  <time>2026-09-01T19:56:15Z</time>
  <course>171.59</course>
  <speed>25.90001737451155</speed>
  <fix>3d</fix>
</trkpt>
<trkpt lat="-27.2746305" lon="151.2894436">
  <ele>474.65</ele>
  <time>2026-09-01T19:56:15Z</time>
  <course>174.41</course>
  <speed>25.86</speed>
  <fix>3d</fix>
</trkpt>
<trkpt lat="-27.2746982" lon="151.2894572">
  <ele>473.18</ele>
  <time>2026-09-01T19:56:15Z</time>
  <course>169.27</course>
  <speed>25.888901096802083</speed>
  <fix>3d</fix>
</trkpt>
<trkpt lat="-27.2746765" lon="151.2894509">
  <ele>473.94</ele>
  <time>2026-09-01T19:56:15Z</time>
  <course>169.58</course>
  <speed>25.85</speed>
  <fix>3d</fix>
</trkpt>
<trkpt lat="-27.2747207" lon="151.2894634">
  <ele>472.83</ele>
  <time>2026-09-01T19:56:15Z</time>
  <course>167.0</course>
  <speed>25.878523914628516</speed>
  <fix>3d</fix>
</trkpt>
<trkpt lat="-27.2746765" lon="151.2894509">
  <ele>473.94</ele>
  <time>2026-09-01T19:56:15Z</time>
  <course>169.58</course>
  <speed>25.85</speed>
  <fix>3d</fix>
</trkpt>
<trkpt lat="-27.2747429" lon="151.2894706">
  <ele>472.48</ele>
  <time>2026-09-01T19:56:15Z</time>
  <course>164.7</course>
  <speed>25.858681327554194</speed>
  <fix>3d</fix>
</trkpt>
<trkpt lat="-27.2747218" lon="151.2894625">
  <ele>473.23</ele>
  <time>2026-09-01T19:56:15Z</time>
  <course>164.85</course>
  <speed>25.84</speed>
  <fix>3d</fix>
</trkpt>
<trkpt lat="-27.2747649" lon="151.2894787">
  <ele>472.13</ele>
  <time>2026-09-01T19:56:15Z</time>
  <course>162.41</course>
  <speed>25.823249214612787</speed>
  <fix>3d</fix>
</trkpt>
<trkpt lat="-27.2747218" lon="151.2894625">
  <ele>473.23</ele>
  <time>2026-09-01T19:56:15Z</time>
  <course>164.85</course>
  <speed>25.84</speed>
  <fix>3d</fix>
</trkpt>
<trkpt lat="-27.2747865" lon="151.2894879">
  <ele>471.77</ele>
  <time>2026-09-01T19:56:15Z</time>
  <course>160.11</course>
  <speed>25.806210492825173</speed>
  <fix>3d</fix>
</trkpt>
<trkpt lat="-27.274766" lon="151.2894782">
  <ele>472.52</ele>
  <time>2026-09-01T19:56:15Z</time>
  <course>160.25</course>
  <speed>25.8</speed>
  <fix>3d</fix>
</trkpt>
<trkpt lat="-27.2748077" lon="151.289498">
  <ele>471.4</ele>
  <time>2026-09-01T19:56:15Z</time>
  <course>157.84</course>
  <speed>25.766804225592278</speed>
  <fix>3d</fix>
</trkpt>
<trkpt lat="-27.274766" lon="151.2894782">
  <ele>472.52</ele>
  <time>2026-09-01T19:56:15Z</time>
  <course>160.25</course>
  <speed>25.8</speed>
  <fix>3d</fix>
</trkpt>
<trkpt lat="-27.2748285" lon="151.289509">
  <ele>471.04</ele>
  <time>2026-09-01T19:56:15Z</time>
  <course>155.62</course>
  <speed>25.73715213460883</speed>
  <fix>3d</fix>
</trkpt>
<trkpt lat="-27.2748088" lon="151.2894977">
  <ele>471.79</ele>
  <time>2026-09-01T19:56:15Z</time>
  <course>155.69</course>
  <speed>25.76</speed>
  <fix>3d</fix>
</trkpt>
<trkpt lat="-27.2748489" lon="151.2895209">
  <ele>470.67</ele>
  <time>2026-09-01T19:56:15Z</time>
  <course>153.38</course>
  <speed>25.69767499210775</speed>
  <fix>3d</fix>
</trkpt>
<trkpt lat="-27.2748088" lon="151.2894977">
  <ele>471.79</ele>
  <time>2026-09-01T19:56:15Z</time>
  <course>155.69</course>
  <speed>25.76</speed>
  <fix>3d</fix>
</trkpt>
<trkpt lat="-27.2748687" lon="151.2895336">
  <ele>470.3</ele>
  <time>2026-09-01T19:56:15Z</time>
  <course>151.14</course>
  <speed>25.66990845328436</speed>
  <fix>3d</fix>
</trkpt>
<trkpt lat="-27.2748502" lon="151.2895209">
  <ele>471.05</ele>
  <time>2026-09-01T19:56:15Z</time>
  <course>151.16</course>
  <speed>25.7</speed>
  <fix>3d</fix>
</trkpt>
<trkpt lat="-27.2748883" lon="151.2895474">
  <ele>469.92</ele>
  <time>2026-09-01T19:56:15Z</time>
  <course>148.93</course>
  <speed>25.636382350089878</speed>
  <fix>3d</fix>
</trkpt>
<trkpt lat="-27.2748502" lon="151.2895209">
  <ele>471.05</ele>
  <time>2026-09-01T19:56:15Z</time>
  <course>151.16</course>
  <speed>25.7</speed>
  <fix>3d</fix>
</trkpt>
<trkpt lat="-27.2749073" lon="151.2895619">
  <ele>469.53</ele>
  <time>2026-09-01T19:56:15Z</time>
  <course>146.74</course>
  <speed>25.605899710808835</speed>
  <fix>3d</fix>
</trkpt>
<trkpt lat="-27.2748897" lon="151.2895477">
  <ele>470.28</ele>
  <time>2026-09-01T19:56:15Z</time>
  <course>146.68</course>
  <speed>25.65</speed>
  <fix>3d</fix>
</trkpt>
<trkpt lat="-27.2749259" lon="151.2895774">
  <ele>469.13</ele>
  <time>2026-09-01T19:56:15Z</time>
  <course>144.52</course>
  <speed>25.588366497297166</speed>
  <fix>3d</fix>
</trkpt>
<trkpt lat="-27.2748897" lon="151.2895477">
  <ele>470.28</ele>
  <time>2026-09-01T19:56:15Z</time>
  <course>146.68</course>
  <speed>25.65</speed>
  <fix>3d</fix>
</trkpt>
<trkpt lat="-27.274944" lon="151.2895937">
  <ele>468.73</ele>
  <time>2026-09-01T19:56:15Z</time>
  <course>142.26</course>
  <speed>25.55621255194126</speed>
  <fix>3d</fix>
</trkpt>
<trkpt lat="-27.2749272" lon="151.2895779">
  <ele>469.49</ele>
  <time>2026-09-01T19:56:15Z</time>
  <course>142.2</course>
  <speed>25.59</speed>
  <fix>3d</fix>
</trkpt>
<trkpt lat="-27.2749615" lon="151.2896107">
  <ele>468.32</ele>
  <time>2026-09-01T19:56:15Z</time>
  <course>140.1</course>
  <speed>25.53743330877244</speed>
  <fix>3d</fix>
</trkpt>
<trkpt lat="-27.2749272" lon="151.2895779">
  <ele>469.49</ele>
  <time>2026-09-01T19:56:15Z</time>
  <course>142.2</course>
  <speed>25.59</speed>
  <fix>3d</fix>
</trkpt>
<trkpt lat="-27.2749784" lon="151.2896286">
  <ele>467.9</ele>
  <time>2026-09-01T19:56:15Z</time>
  <course>137.89</course>
  <speed>25.506989238246057</speed>
  <fix>3d</fix>
</trkpt>
<trkpt lat="-27.2749624" lon="151.2896112">
  <ele>468.67</ele>
  <time>2026-09-01T19:56:15Z</time>
  <course>137.75</course>
  <speed>25.53</speed>
  <fix>3d</fix>
</trkpt>
<trkpt lat="-27.2749946" lon="151.289647">
  <ele>467.47</ele>
  <time>2026-09-01T19:56:15Z</time>
  <course>135.66</course>
  <speed>25.486288470469763</speed>
  <fix>3d</fix>
</trkpt>
<trkpt lat="-27.2749624" lon="151.2896112">
  <ele>468.67</ele>
  <time>2026-09-01T19:56:15Z</time>
  <course>137.75</course>
  <speed>25.53</speed>
  <fix>3d</fix>
</trkpt>
<trkpt lat="-27.27501" lon="151.2896661">
  <ele>467.04</ele>
  <time>2026-09-01T19:56:15Z</time>
  <course>133.44</course>
  <speed>25.461557297227518</speed>
  <fix>3d</fix>
</trkpt>
<trkpt lat="-27.2749951" lon="151.2896472">
  <ele>467.83</ele>
  <time>2026-09-01T19:56:15Z</time>
  <course>133.34</course>
  <speed>25.47</speed>
  <fix>3d</fix>
</trkpt>
<trkpt lat="-27.2750249" lon="151.2896859">
  <ele>466.6</ele>
  <time>2026-09-01T19:56:15Z</time>
  <course>131.25</course>
  <speed>25.438120999790844</speed>
  <fix>3d</fix>
</trkpt>
<trkpt lat="-27.2749951" lon="151.2896472">
  <ele>467.83</ele>
  <time>2026-09-01T19:56:15Z</time>
  <course>133.34</course>
  <speed>25.47</speed>
  <fix>3d</fix>
</trkpt>
<trkpt lat="-27.2750389" lon="151.2897062">
  <ele>466.16</ele>
  <time>2026-09-01T19:56:15Z</time>
  <course>129.06</course>
  <speed>25.408000708438276</speed>
  <fix>3d</fix>
</trkpt>
<trkpt lat="-27.2750251" lon="151.289686">
  <ele>466.96</ele>
  <time>2026-09-01T19:56:15Z</time>
  <course>128.94</course>
  <speed>25.42</speed>
  <fix>3d</fix>
</trkpt>
<trkpt lat="-27.2750523" lon="151.2897271">
  <ele>465.72</ele>
  <time>2026-09-01T19:56:15Z</time>
  <course>126.84</course>
  <speed>25.381081537239503</speed>
  <fix>3d</fix>
</trkpt>
<trkpt lat="-27.2750251" lon="151.289686">
  <ele>466.96</ele>
  <time>2026-09-01T19:56:15Z</time>
  <course>128.94</course>
  <speed>25.42</speed>
  <fix>3d</fix>
</trkpt>
<trkpt lat="-27.275065" lon="151.2897485">
  <ele>465.26</ele>
  <time>2026-09-01T19:56:15Z</time>
  <course>124.63</course>
  <speed>25.361232225583993</speed>
  <fix>3d</fix>
</trkpt>
<trkpt lat="-27.2750524" lon="151.2897271">
  <ele>466.07</ele>
  <time>2026-09-01T19:56:15Z</time>
  <course>124.55</course>
  <speed>25.36</speed>
  <fix>3d</fix>
</trkpt>
<trkpt lat="-27.2750768" lon="151.2897703">
  <ele>464.81</ele>
  <time>2026-09-01T19:56:15Z</time>
  <course>122.4</course>
  <speed>25.32887680099534</speed>
  <fix>3d</fix>
</trkpt>
<trkpt lat="-27.2750524" lon="151.2897271">
  <ele>466.07</ele>
  <time>2026-09-01T19:56:15Z</time>
  <course>124.55</course>
  <speed>25.36</speed>
  <fix>3d</fix>
</trkpt>
<trkpt lat="-27.2750878" lon="151.2897926">
  <ele>464.34</ele>
  <time>2026-09-01T19:56:15Z</time>
  <course>120.18</course>
  <speed>25.307068182624395</speed>
  <fix>3d</fix>
</trkpt>
<trkpt lat="-27.2750768" lon="151.2897704">
  <ele>465.16</ele>
  <time>2026-09-01T19:56:15Z</time>
  <course>120.14</course>
  <speed>25.31</speed>
  <fix>3d</fix>
</trkpt>
<trkpt lat="-27.275098" lon="151.2898152">
  <ele>463.87</ele>
  <time>2026-09-01T19:56:15Z</time>
  <course>117.96</course>
  <speed>25.278797439751756</speed>
  <fix>3d</fix>
</trkpt>
<trkpt lat="-27.2750768" lon="151.2897704">
  <ele>465.16</ele>
  <time>2026-09-01T19:56:15Z</time>
  <course>120.14</course>
  <speed>25.31</speed>
  <fix>3d</fix>
</trkpt>
<trkpt lat="-27.2751074" lon="151.2898383">
  <ele>463.4</ele>
  <time>2026-09-01T19:56:15Z</time>
  <course>115.73</course>
  <speed>25.253328493487743</speed>
  <fix>3d</fix>
</trkpt>
<trkpt lat="-27.275098" lon="151.2898155">
  <ele>464.22</ele>
  <time>2026-09-01T19:56:15Z</time>
  <course>115.69</course>
  <speed>25.27</speed>
  <fix>3d</fix>
</trkpt>
<trkpt lat="-27.275116" lon="151.2898617">
  <ele>462.93</ele>
  <time>2026-09-01T19:56:15Z</time>
  <course>113.5</course>
  <speed>25.229395553599776</speed>
  <fix>3d</fix>
</trkpt>
<trkpt lat="-27.275098" lon="151.2898155">
  <ele>464.22</ele>
  <time>2026-09-01T19:56:15Z</time>
  <course>115.69</course>
  <speed>25.27</speed>
  <fix>3d</fix>
</trkpt>
<trkpt lat="-27.2751238" lon="151.2898855">
  <ele>462.45</ele>
  <time>2026-09-01T19:56:15Z</time>
  <course>111.26</course>
  <speed>25.20823079868954</speed>
  <fix>3d</fix>
</trkpt>
<trkpt lat="-27.2751161" lon="151.2898623">
  <ele>463.27</ele>
  <time>2026-09-01T19:56:15Z</time>
  <course>111.24</course>
  <speed>25.24</speed>
  <fix>3d</fix>
</trkpt>
<trkpt lat="-27.2751307" lon="151.2899096">
  <ele>461.97</ele>
  <time>2026-09-01T19:56:15Z</time>
  <course>109.07</course>
  <speed>25.180488478184852</speed>
  <fix>3d</fix>
</trkpt>
<trkpt lat="-27.2751161" lon="151.2898623">
  <ele>463.27</ele>
  <time>2026-09-01T19:56:15Z</time>
  <course>111.24</course>
  <speed>25.24</speed>
  <fix>3d</fix>
</trkpt>
<trkpt lat="-27.2751368" lon="151.2899339">
  <ele>461.48</ele>
  <time>2026-09-01T19:56:15Z</time>
  <course>106.85</course>
  <speed>25.164810748344603</speed>
  <fix>3d</fix>
</trkpt>
<trkpt lat="-27.2751309" lon="151.2899105">
  <ele>462.3</ele>
  <time>2026-09-01T19:56:15Z</time>
  <course>106.83</course>
  <speed>25.21</speed>
  <fix>3d</fix>
</trkpt>
<trkpt lat="-27.2751421" lon="151.2899583">
  <ele>461.0</ele>
  <time>2026-09-01T19:56:15Z</time>
  <course>104.66</course>
  <speed>25.137901662628884</speed>
  <fix>3d</fix>
</trkpt>
<trkpt lat="-27.2751309" lon="151.2899105">
  <ele>462.3</ele>
  <time>2026-09-01T19:56:15Z</time>
  <course>106.83</course>
  <speed>25.21</speed>
  <fix>3d</fix>
</trkpt>
<trkpt lat="-27.2751465" lon="151.2899831">
  <ele>460.5</ele>
  <time>2026-09-01T19:56:15Z</time>
  <course>102.49</course>
  <speed>25.12624922267548</speed>
  <fix>3d</fix>
</trkpt>
<trkpt lat="-27.2751423" lon="151.2899598">
  <ele>461.31</ele>
  <time>2026-09-01T19:56:15Z</time>
  <course>102.43</course>
  <speed>25.18</speed>
  <fix>3d</fix>
</trkpt>
<trkpt lat="-27.2751501" lon="151.2900082">
  <ele>460.0</ele>
  <time>2026-09-01T19:56:15Z</time>
  <course>100.31</course>
  <speed>25.110778562203123</speed>
  <fix>3d</fix>
</trkpt>
<trkpt lat="-27.2751423" lon="151.2899598">
  <ele>461.31</ele>
  <time>2026-09-01T19:56:15Z</time>
  <course>102.43</course>
  <speed>25.18</speed>
  <fix>3d</fix>
</trkpt>
<trkpt lat="-27.2751529" lon="151.2900334">
  <ele>459.49</ele>
  <time>2026-09-01T19:56:15Z</time>
  <course>98.14</course>
  <speed>25.103963830439206</speed>
  <fix>3d</fix>
</trkpt>
<trkpt lat="-27.2751503" lon="151.2900099">
  <ele>460.31</ele>
  <time>2026-09-01T19:56:15Z</time>
  <course>98.03</course>
  <speed>25.16</speed>
  <fix>3d</fix>
</trkpt>
<trkpt lat="-27.2751548" lon="151.290059">
  <ele>458.98</ele>
  <time>2026-09-01T19:56:15Z</time>
  <course>95.95</course>
  <speed>25.10232857724558</speed>
  <fix>3d</fix>
</trkpt>
<trkpt lat="-27.2751503" lon="151.2900099">
  <ele>460.31</ele>
  <time>2026-09-01T19:56:15Z</time>
  <course>98.03</course>
  <speed>25.16</speed>
  <fix>3d</fix>
</trkpt>
<trkpt lat="-27.2751558" lon="151.2900845">
  <ele>458.47</ele>
  <time>2026-09-01T19:56:15Z</time>
  <course>93.81</course>
  <speed>25.098944200902157</speed>
  <fix>3d</fix>
</trkpt>
<trkpt lat="-27.2751549" lon="151.2900606">
  <ele>459.3</ele>
  <time>2026-09-01T19:56:15Z</time>
  <course>93.66</course>
  <speed>25.14</speed>
  <fix>3d</fix>
</trkpt>
<trkpt lat="-27.275156" lon="151.29011">
  <ele>457.95</ele>
  <time>2026-09-01T19:56:15Z</time>
  <course>91.64</course>
  <speed>25.10145214922834</speed>
  <fix>3d</fix>
</trkpt>
<trkpt lat="-27.2751549" lon="151.2900606">
  <ele>459.3</ele>
  <time>2026-09-01T19:56:15Z</time>
  <course>93.66</course>
  <speed>25.14</speed>
  <fix>3d</fix>
</trkpt>
<trkpt lat="-27.2751554" lon="151.2901364">
  <ele>457.42</ele>
  <time>2026-09-01T19:56:15Z</time>
  <course>89.38</course>
  <speed>25.111130998025555</speed>
  <fix>3d</fix>
</trkpt>
<trkpt lat="-27.2751562" lon="151.2901114">
  <ele>458.28</ele>
  <time>2026-09-01T19:56:15Z</time>
  <course>89.32</course>
  <speed>25.13</speed>
  <fix>3d</fix>
</trkpt>
<trkpt lat="-27.2751539" lon="151.2901617">
  <ele>456.91</ele>
  <time>2026-09-01T19:56:15Z</time>
  <course>87.24</course>
  <speed>25.115662443981044</speed>
  <fix>3d</fix>
</trkpt>
<trkpt lat="-27.2751562" lon="151.2901114">
  <ele>458.28</ele>
  <time>2026-09-01T19:56:15Z</time>
  <course>89.32</course>
  <speed>25.13</speed>
  <fix>3d</fix>
</trkpt>
<trkpt lat="-27.2751515" lon="151.290187">
  <ele>456.39</ele>
  <time>2026-09-01T19:56:15Z</time>
  <course>85.07</course>
  <speed>25.115797817310128</speed>
  <fix>3d</fix>
</trkpt>
<trkpt lat="-27.275154" lon="151.290162">
  <ele>457.26</ele>
  <time>2026-09-01T19:56:15Z</time>
  <course>85.02</course>
  <speed>25.12</speed>
  <fix>3d</fix>
</trkpt>
<trkpt lat="-27.2751482" lon="151.2902123">
  <ele>455.87</ele>
  <time>2026-09-01T19:56:15Z</time>
  <course>82.91</course>
  <speed>25.12026472790444</speed>
  <fix>3d</fix>
</trkpt>
<trkpt lat="-27.275154" lon="151.290162">
  <ele>457.26</ele>
  <time>2026-09-01T19:56:15Z</time>
  <course>85.02</course>
  <speed>25.12</speed>
  <fix>3d</fix>
</trkpt>
<trkpt lat="-27.2751442" lon="151.2902374">
  <ele>455.36</ele>
  <time>2026-09-01T19:56:15Z</time>
  <course>80.77</course>
  <speed>25.120599117059292</speed>
  <fix>3d</fix>
</trkpt>
<trkpt lat="-27.2751484" lon="151.2902124">
  <ele>456.24</ele>
  <time>2026-09-01T19:56:15Z</time>
  <course>80.72</course>
  <speed>25.11</speed>
  <fix>3d</fix>
</trkpt>
<trkpt lat="-27.2751392" lon="151.2902625">
  <ele>454.84</ele>
  <time>2026-09-01T19:56:15Z</time>
  <course>78.63</course>
  <speed>25.13705034406384</speed>
  <fix>3d</fix>
</trkpt>
<trkpt lat="-27.2751484" lon="151.2902124">
  <ele>456.24</ele>
  <time>2026-09-01T19:56:15Z</time>
  <course>80.72</course>
  <speed>25.11</speed>
  <fix>3d</fix>
</trkpt>
<trkpt lat="-27.2751336" lon="151.2902866">
  <ele>454.33</ele>
  <time>2026-09-01T19:56:15Z</time>
  <course>76.56</course>
  <speed>25.1372233947984</speed>
  <fix>3d</fix>
</trkpt>
<trkpt lat="-27.2751395" lon="151.2902621">
  <ele>455.22</ele>
  <time>2026-09-01T19:56:15Z</time>
  <course>76.44</course>
  <speed>25.11</speed>
  <fix>3d</fix>
</trkpt>
<trkpt lat="-27.2751271" lon="151.290311">
  <ele>453.82</ele>
  <time>2026-09-01T19:56:15Z</time>
  <course>74.44</course>
  <speed>25.14477480511607</speed>
  <fix>3d</fix>
</trkpt>
<trkpt lat="-27.2751395" lon="151.2902621">
  <ele>455.22</ele>
  <time>2026-09-01T19:56:15Z</time>
  <course>76.44</course>
  <speed>25.11</speed>
  <fix>3d</fix>
</trkpt>
<trkpt lat="-27.2751198" lon="151.2903351">
  <ele>453.31</ele>
  <time>2026-09-01T19:56:15Z</time>
  <course>72.3</course>
  <speed>25.154868316093406</speed>
  <fix>3d</fix>
</trkpt>
<trkpt lat="-27.2751273" lon="151.2903109">
  <ele>454.2</ele>
  <time>2026-09-01T19:56:15Z</time>
  <course>72.19</course>
  <speed>25.11</speed>
  <fix>3d</fix>
</trkpt>
<trkpt lat="-27.2751118" lon="151.2903588">
  <ele>452.81</ele>
  <time>2026-09-01T19:56:15Z</time>
  <course>70.19</course>
  <speed>25.158219332854223</speed>
  <fix>3d</fix>
</trkpt>
<trkpt lat="-27.2751273" lon="151.2903109">
  <ele>454.2</ele>
  <time>2026-09-01T19:56:15Z</time>
  <course>72.19</course>
  <speed>25.11</speed>
  <fix>3d</fix>
</trkpt>
<trkpt lat="-27.2751029" lon="151.2903821">
  <ele>452.31</ele>
  <time>2026-09-01T19:56:15Z</time>
  <course>68.1</course>
  <speed>25.156311335328954</speed>
  <fix>3d</fix>
</trkpt>
<trkpt lat="-27.2751119" lon="151.2903586">
  <ele>453.19</ele>
  <time>2026-09-01T19:56:15Z</time>
  <course>67.97</course>
  <speed>25.12</speed>
  <fix>3d</fix>
</trkpt>
<trkpt lat="-27.2750934" lon="151.2904049">
  <ele>451.81</ele>
  <time>2026-09-01T19:56:15Z</time>
  <course>66.01</course>
  <speed>25.15625170807448</speed>
  <fix>3d</fix>
</trkpt>
<trkpt lat="-27.2751119" lon="151.2903586">
  <ele>453.19</ele>
  <time>2026-09-01T19:56:15Z</time>
  <course>67.97</course>
  <speed>25.12</speed>
  <fix>3d</fix>
</trkpt>
<trkpt lat="-27.2750831" lon="151.2904274">
  <ele>451.32</ele>
  <time>2026-09-01T19:56:15Z</time>
  <course>63.99</course>
  <speed>25.144233931460313</speed>
  <fix>3d</fix>
</trkpt>
<trkpt lat="-27.2750934" lon="151.290405">
  <ele>452.19</ele>
  <time>2026-09-01T19:56:15Z</time>
  <course>63.81</course>
  <speed>25.12</speed>
  <fix>3d</fix>
</trkpt>
<trkpt lat="-27.2750722" lon="151.2904494">
  <ele>450.83</ele>
  <time>2026-09-01T19:56:15Z</time>
  <course>61.97</course>
  <speed>25.136686336906063</speed>
  <fix>3d</fix>
</trkpt>
<trkpt lat="-27.2750934" lon="151.290405">
  <ele>452.19</ele>
  <time>2026-09-01T19:56:15Z</time>
  <course>63.81</course>
  <speed>25.12</speed>
  <fix>3d</fix>
</trkpt>
<trkpt lat="-27.2750607" lon="151.2904708">
  <ele>450.34</ele>
  <time>2026-09-01T19:56:15Z</time>
  <course>59.97</course>
  <speed>25.127486941594455</speed>
  <fix>3d</fix>
</trkpt>
<trkpt lat="-27.275072" lon="151.2904497">
  <ele>451.2</ele>
  <time>2026-09-01T19:56:15Z</time>
  <course>59.73</course>
  <speed>25.12</speed>
  <fix>3d</fix>
</trkpt>
<trkpt lat="-27.2750483" lon="151.290492">
  <ele>449.85</ele>
  <time>2026-09-01T19:56:15Z</time>
  <course>58.03</course>
  <speed>25.126330810526238</speed>
  <fix>3d</fix>
</trkpt>
<trkpt lat="-27.275072" lon="151.2904497">
  <ele>451.2</ele>
  <time>2026-09-01T19:56:15Z</time>
  <course>59.73</course>
  <speed>25.12</speed>
  <fix>3d</fix>
</trkpt>
<trkpt lat="-27.2750353" lon="151.2905127">
  <ele>449.36</ele>
  <time>2026-09-01T19:56:15Z</time>
  <course>56.12</course>
  <speed>25.12383927667107</speed>
  <fix>3d</fix>
</trkpt>
<trkpt lat="-27.275048" lon="151.2904926">
  <ele>450.22</ele>
  <time>2026-09-01T19:56:15Z</time>
  <course>55.75</course>
  <speed>25.12</speed>
  <fix>3d</fix>
</trkpt>
<trkpt lat="-27.2750217" lon="151.290533">
  <ele>448.87</ele>
  <time>2026-09-01T19:56:15Z</time>
  <course>54.22</course>
  <speed>25.121761482826</speed>
  <fix>3d</fix>
</trkpt>
<trkpt lat="-27.275048" lon="151.2904926">
  <ele>450.22</ele>
  <time>2026-09-01T19:56:15Z</time>
  <course>55.75</course>
  <speed>25.12</speed>
  <fix>3d</fix>
</trkpt>
<trkpt lat="-27.2750073" lon="151.2905529">
  <ele>448.38</ele>
  <time>2026-09-01T19:56:15Z</time>
  <course>52.29</course>
  <speed>25.126145745020267</speed>
  <fix>3d</fix>
</trkpt>
<trkpt lat="-27.2750213" lon="151.2905336">
  <ele>449.24</ele>
  <time>2026-09-01T19:56:15Z</time>
  <course>51.87</course>
  <speed>25.11</speed>
  <fix>3d</fix>
</trkpt>
<trkpt lat="-27.2749926" lon="151.2905719">
  <ele>447.89</ele>
  <time>2026-09-01T19:56:15Z</time>
  <course>50.4</course>
  <speed>25.110734756275054</speed>
  <fix>3d</fix>
</trkpt>
<trkpt lat="-27.2750213" lon="151.2905336">
  <ele>449.24</ele>
  <time>2026-09-01T19:56:15Z</time>
  <course>51.87</course>
  <speed>25.11</speed>
  <fix>3d</fix>
</trkpt>
<trkpt lat="-27.2749775" lon="151.2905904">
  <ele>447.41</ele>
  <time>2026-09-01T19:56:15Z</time>
  <course>48.53</course>
  <speed>25.09390364211993</speed>
  <fix>3d</fix>
</trkpt>
<trkpt lat="-27.2749922" lon="151.2905726">
  <ele>448.26</ele>
  <time>2026-09-01T19:56:15Z</time>
  <course>48.08</course>
  <speed>25.1</speed>
  <fix>3d</fix>
</trkpt>
<trkpt lat="-27.2749612" lon="151.2906089">
  <ele>446.91</ele>
  <time>2026-09-01T19:56:15Z</time>
  <course>46.59</course>
  <speed>25.089906337011303</speed>
  <fix>3d</fix>
</trkpt>
<trkpt lat="-27.2749922" lon="151.2905726">
  <ele>448.26</ele>
  <time>2026-09-01T19:56:15Z</time>
  <course>48.08</course>
  <speed>25.1</speed>
  <fix>3d</fix>
</trkpt>
<trkpt lat="-27.274945" lon="151.2906261">
  <ele>446.43</ele>
  <time>2026-09-01T19:56:15Z</time>
  <course>44.76</course>
  <speed>25.084130441376672</speed>
  <fix>3d</fix>
</trkpt>
<trkpt lat="-27.2749611" lon="151.2906092">
  <ele>447.28</ele>
  <time>2026-09-01T19:56:15Z</time>
  <course>44.35</course>
  <speed>25.09</speed>
  <fix>3d</fix>
</trkpt>
<trkpt lat="-27.2749282" lon="151.2906429">
  <ele>445.94</ele>
  <time>2026-09-01T19:56:15Z</time>
  <course>42.92</course>
  <speed>25.07500747756618</speed>
  <fix>3d</fix>
</trkpt>
<trkpt lat="-27.2749611" lon="151.2906092">
  <ele>447.28</ele>
  <time>2026-09-01T19:56:15Z</time>
  <course>44.35</course>
  <speed>25.09</speed>
  <fix>3d</fix>
</trkpt>
<trkpt lat="-27.274911" lon="151.290659">
  <ele>445.45</ele>
  <time>2026-09-01T19:56:15Z</time>
  <course>41.05</course>
  <speed>25.070686069591314</speed>
  <fix>3d</fix>
</trkpt>
<trkpt lat="-27.2749279" lon="151.2906434">
  <ele>446.3</ele>
  <time>2026-09-01T19:56:15Z</time>
  <course>40.68</course>
  <speed>25.08</speed>
  <fix>3d</fix>
</trkpt>
<trkpt lat="-27.2748933" lon="151.2906746">
  <ele>444.96</ele>
  <time>2026-09-01T19:56:15Z</time>
  <course>39.23</course>
  <speed>25.07007179886009</speed>
  <fix>3d</fix>
</trkpt>
<trkpt lat="-27.2749279" lon="151.2906434">
  <ele>446.3</ele>
  <time>2026-09-01T19:56:15Z</time>
  <course>40.68</course>
  <speed>25.08</speed>
  <fix>3d</fix>
</trkpt>
<trkpt lat="-27.274875" lon="151.2906896">
  <ele>444.48</ele>
  <time>2026-09-01T19:56:15Z</time>
  <course>37.4</course>
  <speed>25.066984262172422</speed>
  <fix>3d</fix>
</trkpt>
<trkpt lat="-27.2748927" lon="151.2906752">
  <ele>445.33</ele>
  <time>2026-09-01T19:56:15Z</time>
  <course>37.03</course>
  <speed>25.08</speed>
  <fix>3d</fix>
</trkpt>
<trkpt lat="-27.2748564" lon="151.2907039">
  <ele>443.99</ele>
  <time>2026-09-01T19:56:15Z</time>
  <course>35.58</course>
  <speed>25.072847863774868</speed>
  <fix>3d</fix>
</trkpt>
<trkpt lat="-27.2748927" lon="151.2906752">
  <ele>445.33</ele>
  <time>2026-09-01T19:56:15Z</time>
  <course>37.03</course>
  <speed>25.08</speed>
  <fix>3d</fix>
</trkpt>
<trkpt lat="-27.2748374" lon="151.2907175">
  <ele>443.5</ele>
  <time>2026-09-01T19:56:15Z</time>
  <course>33.73</course>
  <speed>25.067588635526953</speed>
  <fix>3d</fix>
</trkpt>
<trkpt lat="-27.274856" lon="151.2907044">
  <ele>444.35</ele>
  <time>2026-09-01T19:56:15Z</time>
  <course>33.39</course>
  <speed>25.08</speed>
  <fix>3d</fix>
</trkpt>
<trkpt lat="-27.2748181" lon="151.2907304">
  <ele>443.01</ele>
  <time>2026-09-01T19:56:15Z</time>
  <course>31.95</course>
  <speed>25.07362159720849</speed>
  <fix>3d</fix>
</trkpt>
<trkpt lat="-27.274856" lon="151.2907044">
  <ele>444.35</ele>
  <time>2026-09-01T19:56:15Z</time>
  <course>33.39</course>
  <speed>25.08</speed>
  <fix>3d</fix>
</trkpt>
<trkpt lat="-27.2747984" lon="151.2907426">
  <ele>442.52</ele>
  <time>2026-09-01T19:56:15Z</time>
  <course>30.16</course>
  <speed>25.07827944656491</speed>
  <fix>3d</fix>
</trkpt>
<trkpt lat="-27.2748176" lon="151.290731">
  <ele>443.38</ele>
  <time>2026-09-01T19:56:15Z</time>
  <course>29.78</course>
  <speed>25.08</speed>
  <fix>3d</fix>
</trkpt>
<trkpt lat="-27.2747785" lon="151.2907541">
  <ele>442.04</ele>
  <time>2026-09-01T19:56:15Z</time>
  <course>28.34</course>
  <speed>25.071370126102</speed>
  <fix>3d</fix>
</trkpt>
<trkpt lat="-27.2748176" lon="151.290731">
  <ele>443.38</ele>
  <time>2026-09-01T19:56:15Z</time>
  <course>29.78</course>
  <speed>25.08</speed>
  <fix>3d</fix>
</trkpt>
<trkpt lat="-27.2747583" lon="151.2907649">
  <ele>441.56</ele>
  <time>2026-09-01T19:56:15Z</time>
  <course>26.58</course>
  <speed>25.075647548966707</speed>
  <fix>3d</fix>
</trkpt>
<trkpt lat="-27.2747778" lon="151.2907547">
  <ele>442.4</ele>
  <time>2026-09-01T19:56:15Z</time>
  <course>26.18</course>
  <speed>25.08</speed>
  <fix>3d</fix>
</trkpt>
<trkpt lat="-27.2747378" lon="151.2907749">
  <ele>441.08</ele>
  <time>2026-09-01T19:56:15Z</time>
  <course>24.79</course>
  <speed>25.063848467464048</speed>
  <fix>3d</fix>
</trkpt>
<trkpt lat="-27.2747778" lon="151.2907547">
  <ele>442.4</ele>
  <time>2026-09-01T19:56:15Z</time>
  <course>26.18</course>
  <speed>25.08</speed>
  <fix>3d</fix>
</trkpt>
<trkpt lat="-27.2747176" lon="151.290784">
  <ele>440.61</ele>
  <time>2026-09-01T19:56:15Z</time>
  <course>23.01</course>
  <speed>25.064742169030982</speed>
  <fix>3d</fix>
</trkpt>
<trkpt lat="-27.2747368" lon="151.2907756">
  <ele>441.43</ele>
  <time>2026-09-01T19:56:15Z</time>
  <course>22.6</course>
  <speed>25.09</speed>
  <fix>3d</fix>
</trkpt>
<trkpt lat="-27.2746968" lon="151.2907926">
  <ele>440.14</ele>
  <time>2026-09-01T19:56:15Z</time>
  <course>21.24</course>
  <speed>25.05957701159379</speed>
  <fix>3d</fix>
</trkpt>
<trkpt lat="-27.2747368" lon="151.2907756">
  <ele>441.43</ele>
  <time>2026-09-01T19:56:15Z</time>
  <course>22.6</course>
  <speed>25.09</speed>
  <fix>3d</fix>
</trkpt>
<trkpt lat="-27.2746755" lon="151.2908005">
  <ele>439.66</ele>
  <time>2026-09-01T19:56:15Z</time>
  <course>19.46</course>
  <speed>25.056296613825435</speed>
  <fix>3d</fix>
</trkpt>
<trkpt lat="-27.2746947" lon="151.2907937">
  <ele>440.47</ele>
  <time>2026-09-01T19:56:15Z</time>
  <course>19.04</course>
  <speed>25.09</speed>
  <fix>3d</fix>
</trkpt>
<trkpt lat="-27.274654" lon="151.2908077">
  <ele>439.17</ele>
  <time>2026-09-01T19:56:15Z</time>
  <course>17.66</course>
  <speed>25.06057660948766</speed>
  <fix>3d</fix>
</trkpt>
<trkpt lat="-27.2746947" lon="151.2907937">
  <ele>440.47</ele>
  <time>2026-09-01T19:56:15Z</time>
  <course>19.04</course>
  <speed>25.09</speed>
  <fix>3d</fix>
</trkpt>
<trkpt lat="-27.2746322" lon="151.2908141">
  <ele>438.69</ele>
  <time>2026-09-01T19:56:15Z</time>
  <course>15.84</course>
  <speed>25.071166705999143</speed>
  <fix>3d</fix>
</trkpt>
<trkpt lat="-27.2746515" lon="151.2908087">
  <ele>439.5</ele>
  <time>2026-09-01T19:56:15Z</time>
  <course>15.47</course>
  <speed>25.1</speed>
  <fix>3d</fix>
</trkpt>
<trkpt lat="-27.27461" lon="151.2908198">
  <ele>438.2</ele>
  <time>2026-09-01T19:56:15Z</time>
  <course>14.05</course>
  <speed>25.082816827461784</speed>
  <fix>3d</fix>
</trkpt>
<trkpt lat="-27.2746515" lon="151.2908087">
  <ele>439.5</ele>
  <time>2026-09-01T19:56:15Z</time>
  <course>15.47</course>
  <speed>25.1</speed>
  <fix>3d</fix>
</trkpt>
<trkpt lat="-27.2745878" lon="151.2908247">
  <ele>437.71</ele>
  <time>2026-09-01T19:56:15Z</time>
  <course>12.23</course>
  <speed>25.092357402205156</speed>
  <fix>3d</fix>
</trkpt>
<trkpt lat="-27.2746075" lon="151.2908208">
  <ele>438.53</ele>
  <time>2026-09-01T19:56:15Z</time>
  <course>11.88</course>
  <speed>25.11</speed>
  <fix>3d</fix>
</trkpt>
<trkpt lat="-27.2745655" lon="151.2908289">
  <ele>437.23</ele>
  <time>2026-09-01T19:56:15Z</time>
  <course>10.43</course>
  <speed>25.10528231269268</speed>
  <fix>3d</fix>
</trkpt>
<trkpt lat="-27.2746075" lon="151.2908208">
  <ele>438.53</ele>
  <time>2026-09-01T19:56:15Z</time>
  <course>11.88</course>
  <speed>25.11</speed>
  <fix>3d</fix>
</trkpt>
<trkpt lat="-27.2745423" lon="151.2908323">
  <ele>436.73</ele>
  <time>2026-09-01T19:56:15Z</time>
  <course>8.59</course>
  <speed>25.121050933430315</speed>
  <fix>3d</fix>
</trkpt>
<trkpt lat="-27.2745631" lon="151.2908296">
  <ele>437.58</ele>
  <time>2026-09-01T19:56:15Z</time>
  <course>8.27</course>
  <speed>25.13</speed>
  <fix>3d</fix>
</trkpt>
<trkpt lat="-27.27452" lon="151.2908348">
  <ele>436.26</ele>
  <time>2026-09-01T19:56:15Z</time>
  <course>6.79</course>
  <speed>25.134559872812574</speed>
  <fix>3d</fix>
</trkpt>
<trkpt lat="-27.2745631" lon="151.2908296">
  <ele>437.58</ele>
  <time>2026-09-01T19:56:15Z</time>
  <course>8.27</course>
  <speed>25.13</speed>
  <fix>3d</fix>
</trkpt>
<trkpt lat="-27.2744975" lon="151.2908365">
  <ele>435.78</ele>
  <time>2026-09-01T19:56:15Z</time>
  <course>4.97</course>
  <speed>25.14159302828681</speed>
  <fix>3d</fix>
</trkpt>
<trkpt lat="-27.2745183" lon="151.2908354">
  <ele>436.62</ele>
  <time>2026-09-01T19:56:15Z</time>
  <course>4.66</course>
  <speed>25.15</speed>
  <fix>3d</fix>
</trkpt>
<trkpt lat="-27.274475" lon="151.2908374">
  <ele>435.31</ele>
  <time>2026-09-01T19:56:15Z</time>
  <course>3.15</course>
  <speed>25.154391266735118</speed>
  <fix>3d</fix>
</trkpt>
<trkpt lat="-27.2745183" lon="151.2908354">
  <ele>436.62</ele>
  <time>2026-09-01T19:56:15Z</time>
  <course>4.66</course>
  <speed>25.15</speed>
  <fix>3d</fix>
</trkpt>
<trkpt lat="-27.2744525" lon="151.2908375">
  <ele>434.84</ele>
  <time>2026-09-01T19:56:15Z</time>
  <course>1.34</course>
  <speed>25.162034893863414</speed>
  <fix>3d</fix>
</trkpt>
<trkpt lat="-27.2744732" lon="151.2908379">
  <ele>435.67</ele>
  <time>2026-09-01T19:56:15Z</time>
  <course>1.03</course>
  <speed>25.16</speed>
  <fix>3d</fix>
</trkpt>
<trkpt lat="-27.2744298" lon="151.2908369">
  <ele>434.37</ele>
  <time>2026-09-01T19:56:15Z</time>
  <course>359.48</course>
  <speed>25.16449284209797</speed>
  <fix>3d</fix>
</trkpt>
<trkpt lat="-27.2744732" lon="151.2908379">
  <ele>435.67</ele>
  <time>2026-09-01T19:56:15Z</time>
  <course>1.03</course>
  <speed>25.16</speed>
  <fix>3d</fix>
</trkpt>
<trkpt lat="-27.2744073" lon="151.2908354">
  <ele>433.9</ele>
  <time>2026-09-01T19:56:15Z</time>
  <course>357.61</course>
  <speed>25.17332715395404</speed>
  <fix>3d</fix>
</trkpt>
<trkpt lat="-27.274428" lon="151.2908373">
  <ele>434.73</ele>
  <time>2026-09-01T19:56:15Z</time>
  <course>357.39</course>
  <speed>25.18</speed>
  <fix>3d</fix>
</trkpt>
<trkpt lat="-27.2743847" lon="151.290833">
  <ele>433.43</ele>
  <time>2026-09-01T19:56:15Z</time>
  <course>355.83</course>
  <speed>25.188380257571147</speed>
  <fix>3d</fix>
</trkpt>
<trkpt lat="-27.274428" lon="151.2908373">
  <ele>434.73</ele>
  <time>2026-09-01T19:56:16Z</time>
  <course>357.39</course>
  <speed>25.18</speed>
  <fix>3d</fix>
</trkpt>
<trkpt lat="-27.2743622" lon="151.2908299">
  <ele>432.96</ele>
  <time>2026-09-01T19:56:16Z</time>
  <course>354.04</course>
  <speed>25.197081180168468</speed>
  <fix>3d</fix>
</trkpt>
<trkpt lat="-27.2743829" lon="151.2908334">
  <ele>433.79</ele>
  <time>2026-09-01T19:56:16Z</time>
  <course>353.73</course>
  <speed>25.2</speed>
  <fix>3d</fix>
</trkpt>
<trkpt lat="-27.2743397" lon="151.2908261">
  <ele>432.48</ele>
  <time>2026-09-01T19:56:16Z</time>
  <course>352.24</course>
  <speed>25.212853864646103</speed>
  <fix>3d</fix>
</trkpt>
<trkpt lat="-27.2743829" lon="151.2908334">
  <ele>433.79</ele>
  <time>2026-09-01T19:56:16Z</time>
  <course>353.73</course>
  <speed>25.2</speed>
  <fix>3d</fix>
</trkpt>
<trkpt lat="-27.2743173" lon="151.2908213">
  <ele>432.02</ele>
  <time>2026-09-01T19:56:16Z</time>
  <course>350.39</course>
  <speed>25.23486675217446</speed>
  <fix>3d</fix>
</trkpt>
<trkpt lat="-27.2743381" lon="151.2908262">
  <ele>432.85</ele>
  <time>2026-09-01T19:56:16Z</time>
  <course>350.07</course>
  <speed>25.22</speed>
  <fix>3d</fix>
</trkpt>
<trkpt lat="-27.274295" lon="151.2908157">
  <ele>431.55</ele>
  <time>2026-09-01T19:56:16Z</time>
  <course>348.52</course>
  <speed>25.253690819363413</speed>
  <fix>3d</fix>
</trkpt>
<trkpt lat="-27.2743381" lon="151.2908262">
  <ele>432.85</ele>
  <time>2026-09-01T19:56:16Z</time>
  <course>350.07</course>
  <speed>25.22</speed>
  <fix>3d</fix>
</trkpt>
<trkpt lat="-27.2742729" lon="151.2908093">
  <ele>431.09</ele>
  <time>2026-09-01T19:56:16Z</time>
  <course>346.63</course>
  <speed>25.269903046905423</speed>
  <fix>3d</fix>
</trkpt>
<trkpt lat="-27.2742937" lon="151.2908158">
  <ele>431.92</ele>
  <time>2026-09-01T19:56:16Z</time>
  <course>346.37</course>
  <speed>25.24</speed>
  <fix>3d</fix>
</trkpt>
<trkpt lat="-27.274251" lon="151.2908021">
  <ele>430.62</ele>
  <time>2026-09-01T19:56:16Z</time>
  <course>344.79</course>
  <speed>25.290761158968703</speed>
  <fix>3d</fix>
</trkpt>
<trkpt lat="-27.2742937" lon="151.2908158">
  <ele>431.92</ele>
  <time>2026-09-01T19:56:16Z</time>
  <course>346.37</course>
  <speed>25.24</speed>
  <fix>3d</fix>
</trkpt>
<trkpt lat="-27.2742293" lon="151.2907941">
  <ele>430.16</ele>
  <time>2026-09-01T19:56:16Z</time>
  <course>342.94</course>
  <speed>25.300197627686625</speed>
  <fix>3d</fix>
</trkpt>
<trkpt lat="-27.27425" lon="151.2908021">
  <ele>430.99</ele>
  <time>2026-09-01T19:56:16Z</time>
  <course>342.64</course>
  <speed>25.25</speed>
  <fix>3d</fix>
</trkpt>
<trkpt lat="-27.2742078" lon="151.2907853">
  <ele>429.69</ele>
  <time>2026-09-01T19:56:16Z</time>
  <course>341.08</course>
  <speed>25.31807654621496</speed>
  <fix>3d</fix>
</trkpt>
<trkpt lat="-27.27425" lon="151.2908021">
  <ele>430.99</ele>
  <time>2026-09-01T19:56:16Z</time>
  <course>342.64</course>
  <speed>25.25</speed>
  <fix>3d</fix>
</trkpt>
<trkpt lat="-27.2741866" lon="151.2907757">
  <ele>429.23</ele>
  <time>2026-09-01T19:56:16Z</time>
  <course>339.24</course>
  <speed>25.32412683588518</speed>
  <fix>3d</fix>
</trkpt>
<trkpt lat="-27.2742071" lon="151.2907852">
  <ele>430.07</ele>
  <time>2026-09-01T19:56:16Z</time>
  <course>338.9</course>
  <speed>25.27</speed>
  <fix>3d</fix>
</trkpt>
<trkpt lat="-27.2741657" lon="151.2907653">
  <ele>428.77</ele>
  <time>2026-09-01T19:56:16Z</time>
  <course>337.33</course>
  <speed>25.33835432698817</speed>
  <fix>3d</fix>
</trkpt>
<trkpt lat="-27.2742071" lon="151.2907852">
  <ele>430.07</ele>
  <time>2026-09-01T19:56:16Z</time>
  <course>338.9</course>
  <speed>25.27</speed>
  <fix>3d</fix>
</trkpt>
<trkpt lat="-27.2741451" lon="151.2907542">
  <ele>428.31</ele>
  <time>2026-09-01T19:56:16Z</time>
  <course>335.41</course>
  <speed>25.343626417701156</speed>
  <fix>3d</fix>
</trkpt>
<trkpt lat="-27.2741652" lon="151.2907653">
  <ele>429.15</ele>
  <time>2026-09-01T19:56:16Z</time>
  <course>335.13</course>
  <speed>25.28</speed>
  <fix>3d</fix>
</trkpt>
<trkpt lat="-27.2741254" lon="151.2907426">
  <ele>427.86</ele>
  <time>2026-09-01T19:56:16Z</time>
  <course>333.54</course>
  <speed>25.353666401528596</speed>
  <fix>3d</fix>
</trkpt>
<trkpt lat="-27.2741652" lon="151.2907653">
  <ele>429.15</ele>
  <time>2026-09-01T19:56:16Z</time>
  <course>335.13</course>
  <speed>25.28</speed>
  <fix>3d</fix>
</trkpt>
<trkpt lat="-27.2741057" lon="151.2907301">
  <ele>427.41</ele>
  <time>2026-09-01T19:56:16Z</time>
  <course>331.65</course>
  <speed>25.355587155496913</speed>
  <fix>3d</fix>
</trkpt>
<trkpt lat="-27.2741247" lon="151.2907422">
  <ele>428.23</ele>
  <time>2026-09-01T19:56:16Z</time>
  <course>331.34</course>
  <speed>25.29</speed>
  <fix>3d</fix>
</trkpt>
<trkpt lat="-27.2740855" lon="151.2907163">
  <ele>426.94</ele>
  <time>2026-09-01T19:56:16Z</time>
  <course>329.7</course>
  <speed>25.356681565220633</speed>
  <fix>3d</fix>
</trkpt>
<trkpt lat="-27.2741247" lon="151.2907422">
  <ele>428.23</ele>
  <time>2026-09-01T19:56:16Z</time>
  <course>331.34</course>
  <speed>25.29</speed>
  <fix>3d</fix>
</trkpt>
<trkpt lat="-27.2740666" lon="151.2907023">
  <ele>426.49</ele>
  <time>2026-09-01T19:56:16Z</time>
  <course>327.77</course>
  <speed>25.362176562747923</speed>
  <fix>3d</fix>
</trkpt>
<trkpt lat="-27.2740856" lon="151.2907162">
  <ele>427.33</ele>
  <time>2026-09-01T19:56:16Z</time>
  <course>327.52</course>
  <speed>25.3</speed>
  <fix>3d</fix>
</trkpt>
<trkpt lat="-27.274048" lon="151.2906874">
  <ele>426.03</ele>
  <time>2026-09-01T19:56:16Z</time>
  <course>325.86</course>
  <speed>25.36575053098173</speed>
  <fix>3d</fix>
</trkpt>
<trkpt lat="-27.2740856" lon="151.2907162">
  <ele>427.33</ele>
  <time>2026-09-01T19:56:16Z</time>
  <course>327.52</course>
  <speed>25.3</speed>
  <fix>3d</fix>
</trkpt>
<trkpt lat="-27.2740298" lon="151.2906719">
  <ele>425.58</ele>
  <time>2026-09-01T19:56:16Z</time>
  <course>323.94</course>
  <speed>25.37617977552965</speed>
  <fix>3d</fix>
</trkpt>
<trkpt lat="-27.2740481" lon="151.2906874">
  <ele>426.42</ele>
  <time>2026-09-01T19:56:16Z</time>
  <course>323.68</course>
  <speed>25.3</speed>
  <fix>3d</fix>
</trkpt>
<trkpt lat="-27.2740121" lon="151.2906556">
  <ele>425.13</ele>
  <time>2026-09-01T19:56:16Z</time>
  <course>322.01</course>
  <speed>25.380973188591486</speed>
  <fix>3d</fix>
</trkpt>
<trkpt lat="-27.2740481" lon="151.2906874">
  <ele>426.42</ele>
  <time>2026-09-01T19:56:16Z</time>
  <course>323.68</course>
  <speed>25.3</speed>
  <fix>3d</fix>
</trkpt>
<trkpt lat="-27.2739947" lon="151.2906386">
  <ele>424.67</ele>
  <time>2026-09-01T19:56:16Z</time>
  <course>320.05</course>
  <speed>25.37754913304277</speed>
  <fix>3d</fix>
</trkpt>
<trkpt lat="-27.2740123" lon="151.2906557">
  <ele>425.52</ele>
  <time>2026-09-01T19:56:16Z</time>
  <course>319.82</course>
  <speed>25.3</speed>
  <fix>3d</fix>
</trkpt>
<trkpt lat="-27.273978" lon="151.290621">
  <ele>424.22</ele>
  <time>2026-09-01T19:56:16Z</time>
  <course>318.13</course>
  <speed>25.389422994625143</speed>
  <fix>3d</fix>
</trkpt>
<trkpt lat="-27.2740123" lon="151.2906557">
  <ele>425.52</ele>
  <time>2026-09-01T19:56:16Z</time>
  <course>319.82</course>
  <speed>25.3</speed>
  <fix>3d</fix>
</trkpt>
<trkpt lat="-27.2739618" lon="151.2906029">
  <ele>423.77</ele>
  <time>2026-09-01T19:56:16Z</time>
  <course>316.17</course>
  <speed>25.388221678565827</speed>
  <fix>3d</fix>
</trkpt>
<trkpt lat="-27.2739787" lon="151.2906214">
  <ele>424.61</ele>
  <time>2026-09-01T19:56:16Z</time>
  <course>315.95</course>
  <speed>25.3</speed>
  <fix>3d</fix>
</trkpt>
<trkpt lat="-27.2739462" lon="151.2905841">
  <ele>423.32</ele>
  <time>2026-09-01T19:56:16Z</time>
  <course>314.22</course>
  <speed>25.38806806356088</speed>
  <fix>3d</fix>
</trkpt>
<trkpt lat="-27.2739787" lon="151.2906214">
  <ele>424.61</ele>
  <time>2026-09-01T19:56:16Z</time>
  <course>315.95</course>
  <speed>25.3</speed>
  <fix>3d</fix>
</trkpt>
<trkpt lat="-27.2739312" lon="151.2905647">
  <ele>422.87</ele>
  <time>2026-09-01T19:56:16Z</time>
  <course>312.25</course>
  <speed>25.389056697719198</speed>
  <fix>3d</fix>
</trkpt>
<trkpt lat="-27.2739471" lon="151.2905847">
  <ele>423.71</ele>
  <time>2026-09-01T19:56:16Z</time>
  <course>312.06</course>
  <speed>25.3</speed>
  <fix>3d</fix>
</trkpt>
<trkpt lat="-27.2739169" lon="151.2905449">
  <ele>422.42</ele>
  <time>2026-09-01T19:56:16Z</time>
  <course>310.28</course>
  <speed>25.383524184005655</speed>
  <fix>3d</fix>
</trkpt>
<trkpt lat="-27.2739471" lon="151.2905847">
  <ele>423.71</ele>
  <time>2026-09-01T19:56:16Z</time>
  <course>312.06</course>
  <speed>25.3</speed>
  <fix>3d</fix>
</trkpt>
<trkpt lat="-27.2739032" lon="151.2905246">
  <ele>421.97</ele>
  <time>2026-09-01T19:56:16Z</time>
  <course>308.32</course>
  <speed>25.373271369691373</speed>
  <fix>3d</fix>
</trkpt>
<trkpt lat="-27.2739178" lon="151.2905456">
  <ele>422.81</ele>
  <time>2026-09-01T19:56:16Z</time>
  <course>308.15</course>
  <speed>25.29</speed>
  <fix>3d</fix>
</trkpt>
<trkpt lat="-27.2738902" lon="151.2905038">
  <ele>421.52</ele>
  <time>2026-09-01T19:56:16Z</time>
  <course>306.38</course>
  <speed>25.36256493338164</speed>
  <fix>3d</fix>
</trkpt>
<trkpt lat="-27.2739178" lon="151.2905456">
  <ele>422.81</ele>
  <time>2026-09-01T19:56:16Z</time>
  <course>308.15</course>
  <speed>25.29</speed>
  <fix>3d</fix>
</trkpt>
<trkpt lat="-27.2738778" lon="151.2904826">
  <ele>421.07</ele>
  <time>2026-09-01T19:56:16Z</time>
  <course>304.4</course>
  <speed>25.34514549178994</speed>
  <fix>3d</fix>
</trkpt>
<trkpt lat="-27.273891" lon="151.2905044">
  <ele>421.9</ele>
  <time>2026-09-01T19:56:16Z</time>
  <course>304.23</course>
  <speed>25.29</speed>
  <fix>3d</fix>
</trkpt>
<trkpt lat="-27.273866" lon="151.2904609">
  <ele>420.63</ele>
  <time>2026-09-01T19:56:16Z</time>
  <course>302.4</course>
  <speed>25.338338540638375</speed>
  <fix>3d</fix>
</trkpt>
<trkpt lat="-27.273891" lon="151.2905044">
  <ele>421.9</ele>
  <time>2026-09-01T19:56:16Z</time>
  <course>304.23</course>
  <speed>25.29</speed>
  <fix>3d</fix>
</trkpt>
<trkpt lat="-27.273855" lon="151.2904387">
  <ele>420.18</ele>
  <time>2026-09-01T19:56:16Z</time>
  <course>300.43</course>
  <speed>25.317014041944205</speed>
  <fix>3d</fix>
</trkpt>
<trkpt lat="-27.2738668" lon="151.2904611">
  <ele>421.01</ele>
  <time>2026-09-01T19:56:16Z</time>
  <course>300.3</course>
  <speed>25.28</speed>
  <fix>3d</fix>
</trkpt>
<trkpt lat="-27.2738447" lon="151.2904163">
  <ele>419.74</ele>
  <time>2026-09-01T19:56:16Z</time>
  <course>298.49</course>
  <speed>25.298887327311455</speed>
  <fix>3d</fix>
</trkpt>
<trkpt lat="-27.2738668" lon="151.2904611">
  <ele>421.01</ele>
  <time>2026-09-01T19:56:16Z</time>
  <course>300.3</course>
  <speed>25.28</speed>
  <fix>3d</fix>
</trkpt>
<trkpt lat="-27.273835" lon="151.2903935">
  <ele>419.3</ele>
  <time>2026-09-01T19:56:16Z</time>
  <course>296.54</course>
  <speed>25.26935891549289</speed>
  <fix>3d</fix>
</trkpt>
<trkpt lat="-27.2738452" lon="151.2904161">
  <ele>420.1</ele>
  <time>2026-09-01T19:56:16Z</time>
  <course>296.38</course>
  <speed>25.27</speed>
  <fix>3d</fix>
</trkpt>
<trkpt lat="-27.2738261" lon="151.2903702">
  <ele>418.85</ele>
  <time>2026-09-01T19:56:16Z</time>
  <course>294.6</course>
  <speed>25.255385564271236</speed>
  <fix>3d</fix>
</trkpt>
<trkpt lat="-27.2738452" lon="151.2904161">
  <ele>420.1</ele>
  <time>2026-09-01T19:56:16Z</time>
  <course>296.38</course>
  <speed>25.27</speed>
  <fix>3d</fix>
</trkpt>
<trkpt lat="-27.2738178" lon="151.2903466">
  <ele>418.4</ele>
  <time>2026-09-01T19:56:16Z</time>
  <course>292.65</course>
  <speed>25.238829212148488</speed>
  <fix>3d</fix>
</trkpt>
<trkpt lat="-27.2738264" lon="151.2903696">
  <ele>419.19</ele>
  <time>2026-09-01T19:56:16Z</time>
  <course>292.49</course>
  <speed>25.25</speed>
  <fix>3d</fix>
</trkpt>
<trkpt lat="-27.2738103" lon="151.2903227">
  <ele>417.94</ele>
  <time>2026-09-01T19:56:16Z</time>
  <course>290.75</course>
  <speed>25.229034860652124</speed>
  <fix>3d</fix>
</trkpt>
<trkpt lat="-27.2738264" lon="151.2903696">
  <ele>419.19</ele>
  <time>2026-09-01T19:56:16Z</time>
  <course>292.49</course>
  <speed>25.25</speed>
  <fix>3d</fix>
</trkpt>
<trkpt lat="-27.2738034" lon="151.2902985">
  <ele>417.48</ele>
  <time>2026-09-01T19:56:16Z</time>
  <course>288.8</course>
  <speed>25.207161680760493</speed>
  <fix>3d</fix>
</trkpt>
<trkpt lat="-27.2738104" lon="151.2903218">
  <ele>418.28</ele>
  <time>2026-09-01T19:56:16Z</time>
  <course>288.62</course>
  <speed>25.23</speed>
  <fix>3d</fix>
</trkpt>
<trkpt lat="-27.2737973" lon="151.290274">
  <ele>417.02</ele>
  <time>2026-09-01T19:56:16Z</time>
  <course>286.86</course>
  <speed>25.194908215748672</speed>
  <fix>3d</fix>
</trkpt>
<trkpt lat="-27.2738104" lon="151.2903218">
  <ele>418.28</ele>
  <time>2026-09-01T19:56:16Z</time>
  <course>288.62</course>
  <speed>25.23</speed>
  <fix>3d</fix>
</trkpt>
<trkpt lat="-27.2737919" lon="151.2902493">
  <ele>416.56</ele>
  <time>2026-09-01T19:56:16Z</time>
  <course>284.91</course>
  <speed>25.179777600288688</speed>
  <fix>3d</fix>
</trkpt>
<trkpt lat="-27.2737975" lon="151.290273">
  <ele>417.35</ele>
  <time>2026-09-01T19:56:16Z</time>
  <course>284.75</course>
  <speed>25.21</speed>
  <fix>3d</fix>
</trkpt>
<trkpt lat="-27.2737873" lon="151.2902244">
  <ele>416.1</ele>
  <time>2026-09-01T19:56:16Z</time>
  <course>282.95</course>
  <speed>25.16998609455317</speed>
  <fix>3d</fix>
</trkpt>
<trkpt lat="-27.2737975" lon="151.290273">
  <ele>417.35</ele>
  <time>2026-09-01T19:56:16Z</time>
  <course>284.75</course>
  <speed>25.21</speed>
  <fix>3d</fix>
</trkpt>
<trkpt lat="-27.2737834" lon="151.2901994">
  <ele>415.63</ele>
  <time>2026-09-01T19:56:16Z</time>
  <course>281.01</course>
  <speed>25.161975280172264</speed>
  <fix>3d</fix>
</trkpt>
<trkpt lat="-27.2737874" lon="151.2902234">
  <ele>416.42</ele>
  <time>2026-09-01T19:56:16Z</time>
  <course>280.86</course>
  <speed>25.19</speed>
  <fix>3d</fix>
</trkpt>
<trkpt lat="-27.2737802" lon="151.290174">
  <ele>415.15</ele>
  <time>2026-09-01T19:56:16Z</time>
  <course>279.07</course>
  <speed>25.160465019550017</speed>
  <fix>3d</fix>
</trkpt>
<trkpt lat="-27.2737874" lon="151.2902234">
  <ele>416.42</ele>
  <time>2026-09-01T19:56:16Z</time>
  <course>280.86</course>
  <speed>25.19</speed>
  <fix>3d</fix>
</trkpt>
<trkpt lat="-27.2737779" lon="151.2901487">
  <ele>414.68</ele>
  <time>2026-09-01T19:56:16Z</time>
  <course>277.1</course>
  <speed>25.149952286237045</speed>
  <fix>3d</fix>
</trkpt>
<trkpt lat="-27.2737804" lon="151.2901731">
  <ele>415.48</ele>
  <time>2026-09-01T19:56:16Z</time>
  <course>276.97</course>
  <speed>25.18</speed>
  <fix>3d</fix>
</trkpt>
<trkpt lat="-27.2737763" lon="151.2901235">
  <ele>414.2</ele>
  <time>2026-09-01T19:56:16Z</time>
  <course>275.13</course>
  <speed>25.137907629713336</speed>
  <fix>3d</fix>
</trkpt>
<trkpt lat="-27.2737804" lon="151.2901731">
  <ele>415.48</ele>
  <time>2026-09-01T19:56:16Z</time>
  <course>276.97</course>
  <speed>25.18</speed>
  <fix>3d</fix>
</trkpt>
<trkpt lat="-27.2737754" lon="151.2900982">
  <ele>413.73</ele>
  <time>2026-09-01T19:56:16Z</time>
  <course>273.18</course>
  <speed>25.125381589142084</speed>
  <fix>3d</fix>
</trkpt>
<trkpt lat="-27.2737765" lon="151.2901224">
  <ele>414.54</ele>
  <time>2026-09-01T19:56:16Z</time>
  <course>273.06</course>
  <speed>25.16</speed>
  <fix>3d</fix>
</trkpt>
<trkpt lat="-27.2737754" lon="151.290073">
  <ele>413.26</ele>
  <time>2026-09-01T19:56:16Z</time>
  <course>271.19</course>
  <speed>25.11216836515716</speed>
  <fix>3d</fix>
</trkpt>
<trkpt lat="-27.2737765" lon="151.2901224">
  <ele>414.54</ele>
  <time>2026-09-01T19:56:16Z</time>
  <course>273.06</course>
  <speed>25.16</speed>
  <fix>3d</fix>
</trkpt>
<trkpt lat="-27.2737761" lon="151.2900477">
  <ele>412.78</ele>
  <time>2026-09-01T19:56:16Z</time>
  <course>269.23</course>
  <speed>25.098227029015415</speed>
  <fix>3d</fix>
</trkpt>
<trkpt lat="-27.2737756" lon="151.2900716">
  <ele>413.59</ele>
  <time>2026-09-01T19:56:16Z</time>
  <course>269.14</course>
  <speed>25.15</speed>
  <fix>3d</fix>
</trkpt>
<trkpt lat="-27.2737776" lon="151.2900224">
  <ele>412.3</ele>
  <time>2026-09-01T19:56:16Z</time>
  <course>267.28</course>
  <speed>25.093875746882944</speed>
  <fix>3d</fix>
</trkpt>
<trkpt lat="-27.2737756" lon="151.2900716">
  <ele>413.59</ele>
  <time>2026-09-01T19:56:16Z</time>
  <course>269.14</course>
  <speed>25.15</speed>
  <fix>3d</fix>
</trkpt>
<trkpt lat="-27.2737797" lon="151.2899972">
  <ele>411.82</ele>
  <time>2026-09-01T19:56:16Z</time>
  <course>265.33</course>
  <speed>25.088172512161982</speed>
  <fix>3d</fix>
</trkpt>
<trkpt lat="-27.2737779" lon="151.2900209">
  <ele>412.63</ele>
  <time>2026-09-01T19:56:16Z</time>
  <course>265.22</course>
  <speed>25.14</speed>
  <fix>3d</fix>
</trkpt>
<trkpt lat="-27.2737827" lon="151.289972">
  <ele>411.34</ele>
  <time>2026-09-01T19:56:16Z</time>
  <course>263.37</course>
  <speed>25.083412845942636</speed>
  <fix>3d</fix>
</trkpt>
<trkpt lat="-27.2737779" lon="151.2900209">
  <ele>412.63</ele>
  <time>2026-09-01T19:56:16Z</time>
  <course>265.22</course>
  <speed>25.14</speed>
  <fix>3d</fix>
</trkpt>
<trkpt lat="-27.2737865" lon="151.2899469">
  <ele>410.85</ele>
  <time>2026-09-01T19:56:16Z</time>
  <course>261.34</course>
  <speed>25.08904143246609</speed>
  <fix>3d</fix>
</trkpt>
<trkpt lat="-27.2737831" lon="151.2899704">
  <ele>411.66</ele>
  <time>2026-09-01T19:56:16Z</time>
  <course>261.29</course>
  <speed>25.13</speed>
  <fix>3d</fix>
</trkpt>
<trkpt lat="-27.2737911" lon="151.2899219">
  <ele>410.37</ele>
  <time>2026-09-01T19:56:16Z</time>
  <course>259.35</course>
  <speed>25.095627109120027</speed>
  <fix>3d</fix>
</trkpt>
<trkpt lat="-27.2737831" lon="151.2899704">
  <ele>411.66</ele>
  <time>2026-09-01T19:56:16Z</time>
  <course>261.29</course>
  <speed>25.13</speed>
  <fix>3d</fix>
</trkpt>
<trkpt lat="-27.2737964" lon="151.2898972">
  <ele>409.88</ele>
  <time>2026-09-01T19:56:16Z</time>
  <course>257.41</course>
  <speed>25.09873502788537</speed>
  <fix>3d</fix>
</trkpt>
<trkpt lat="-27.2737915" lon="151.2899204">
  <ele>410.69</ele>
  <time>2026-09-01T19:56:16Z</time>
  <course>257.31</course>
  <speed>25.12</speed>
  <fix>3d</fix>
</trkpt>
<trkpt lat="-27.2738025" lon="151.2898727">
  <ele>409.39</ele>
  <time>2026-09-01T19:56:16Z</time>
  <course>255.41</course>
  <speed>25.102772755215707</speed>
  <fix>3d</fix>
</trkpt>
<trkpt lat="-27.2737915" lon="151.2899204">
  <ele>410.69</ele>
  <time>2026-09-01T19:56:16Z</time>
  <course>257.31</course>
  <speed>25.12</speed>
  <fix>3d</fix>
</trkpt>
<trkpt lat="-27.2738094" lon="151.2898484">
  <ele>408.89</ele>
  <time>2026-09-01T19:56:16Z</time>
  <course>253.42</course>
  <speed>25.10537990152708</speed>
  <fix>3d</fix>
</trkpt>
<trkpt lat="-27.2738029" lon="151.2898712">
  <ele>409.71</ele>
  <time>2026-09-01T19:56:16Z</time>
  <course>253.32</course>
  <speed>25.12</speed>
  <fix>3d</fix>
</trkpt>
<trkpt lat="-27.273817" lon="151.2898244">
  <ele>408.4</ele>
  <time>2026-09-01T19:56:16Z</time>
  <course>251.41</course>
  <speed>25.11000796495294</speed>
  <fix>3d</fix>
</trkpt>
<trkpt lat="-27.2738029" lon="151.2898712">
  <ele>409.71</ele>
  <time>2026-09-01T19:56:16Z</time>
  <course>253.32</course>
  <speed>25.12</speed>
  <fix>3d</fix>
</trkpt>
<trkpt lat="-27.2738253" lon="151.2898007">
  <ele>407.91</ele>
  <time>2026-09-01T19:56:16Z</time>
  <course>249.4</course>
  <speed>25.11769495793752</speed>
  <fix>3d</fix>
</trkpt>
<trkpt lat="-27.2738174" lon="151.2898231">
  <ele>408.74</ele>
  <time>2026-09-01T19:56:16Z</time>
  <course>249.33</course>
  <speed>25.12</speed>
  <fix>3d</fix>
</trkpt>
<trkpt lat="-27.2738344" lon="151.2897773">
  <ele>407.42</ele>
  <time>2026-09-01T19:56:16Z</time>
  <course>247.42</course>
  <speed>25.117087808900138</speed>
  <fix>3d</fix>
</trkpt>
<trkpt lat="-27.2738174" lon="151.2898231">
  <ele>408.74</ele>
  <time>2026-09-01T19:56:16Z</time>
  <course>249.33</course>
  <speed>25.12</speed>
  <fix>3d</fix>
</trkpt>
<trkpt lat="-27.2738441" lon="151.2897543">
  <ele>406.92</ele>
  <time>2026-09-01T19:56:16Z</time>
  <course>245.41</course>
  <speed>25.12446019320614</speed>
  <fix>3d</fix>
</trkpt>
<trkpt lat="-27.2738348" lon="151.2897763">
  <ele>407.76</ele>
  <time>2026-09-01T19:56:16Z</time>
  <course>245.33</course>
  <speed>25.12</speed>
  <fix>3d</fix>
</trkpt>
<trkpt lat="-27.2738546" lon="151.2897318">
  <ele>406.43</ele>
  <time>2026-09-01T19:56:16Z</time>
  <course>243.4</course>
  <speed>25.12218143394399</speed>
  <fix>3d</fix>
</trkpt>
<trkpt lat="-27.2738348" lon="151.2897763">
  <ele>407.76</ele>
  <time>2026-09-01T19:56:16Z</time>
  <course>245.33</course>
  <speed>25.12</speed>
  <fix>3d</fix>
</trkpt>
<trkpt lat="-27.2738657" lon="151.2897098">
  <ele>405.94</ele>
  <time>2026-09-01T19:56:16Z</time>
  <course>241.38</course>
  <speed>25.12848980738795</speed>
  <fix>3d</fix>
</trkpt>
<trkpt lat="-27.273855" lon="151.289731">
  <ele>406.78</ele>
  <time>2026-09-01T19:56:16Z</time>
  <course>241.32</course>
  <speed>25.12</speed>
  <fix>3d</fix>
</trkpt>
<trkpt lat="-27.2738775" lon="151.2896882">
  <ele>405.46</ele>
  <time>2026-09-01T19:56:16Z</time>
  <course>239.34</course>
  <speed>25.12124996890083</speed>
  <fix>3d</fix>
</trkpt>
<trkpt lat="-27.273855" lon="151.289731">
  <ele>406.78</ele>
  <time>2026-09-01T19:56:16Z</time>
  <course>241.32</course>
  <speed>25.12</speed>
  <fix>3d</fix>
</trkpt>
<trkpt lat="-27.2738899" lon="151.2896673">
  <ele>404.97</ele>
  <time>2026-09-01T19:56:16Z</time>
  <course>237.34</course>
  <speed>25.117360530119402</speed>
  <fix>3d</fix>
</trkpt>
<trkpt lat="-27.2738781" lon="151.2896873">
  <ele>405.8</ele>
  <time>2026-09-01T19:56:16Z</time>
  <course>237.29</course>
  <speed>25.12</speed>
  <fix>3d</fix>
</trkpt>
<trkpt lat="-27.273903" lon="151.2896466">
  <ele>404.49</ele>
  <time>2026-09-01T19:56:16Z</time>
  <course>235.29</course>
  <speed>25.122215268562606</speed>
  <fix>3d</fix>
</trkpt>
<trkpt lat="-27.2738781" lon="151.2896873">
  <ele>405.8</ele>
  <time>2026-09-01T19:56:16Z</time>
  <course>237.29</course>
  <speed>25.12</speed>
  <fix>3d</fix>
</trkpt>
<trkpt lat="-27.2739168" lon="151.2896265">
  <ele>404.0</ele>
  <time>2026-09-01T19:56:16Z</time>
  <course>233.23</course>
  <speed>25.126802422910878</speed>
  <fix>3d</fix>
</trkpt>
<trkpt lat="-27.2739038" lon="151.2896456">
  <ele>404.83</ele>
  <time>2026-09-01T19:56:16Z</time>
  <course>233.23</course>
  <speed>25.12</speed>
  <fix>3d</fix>
</trkpt>
<trkpt lat="-27.2739314" lon="151.2896069">
  <ele>403.51</ele>
  <time>2026-09-01T19:56:16Z</time>
  <course>231.2</course>
  <speed>25.13582503121789</speed>
  <fix>3d</fix>
</trkpt>
<trkpt lat="-27.2739038" lon="151.2896456">
  <ele>404.83</ele>
  <time>2026-09-01T19:56:16Z</time>
  <course>233.23</course>
  <speed>25.12</speed>
  <fix>3d</fix>
</trkpt>
<trkpt lat="-27.2739466" lon="151.2895877">
  <ele>403.03</ele>
  <time>2026-09-01T19:56:16Z</time>
  <course>229.12</course>
  <speed>25.141632802982386</speed>
  <fix>3d</fix>
</trkpt>
<trkpt lat="-27.273932" lon="151.289606">
  <ele>403.86</ele>
  <time>2026-09-01T19:56:16Z</time>
  <course>229.14</course>
  <speed>25.13</speed>
  <fix>3d</fix>
</trkpt>
<trkpt lat="-27.2739623" lon="151.2895693">
  <ele>402.55</ele>
  <time>2026-09-01T19:56:16Z</time>
  <course>227.09</course>
  <speed>25.151836911048864</speed>
  <fix>3d</fix>
</trkpt>
<trkpt lat="-27.273932" lon="151.289606">
  <ele>403.86</ele>
  <time>2026-09-01T19:56:16Z</time>
  <course>229.14</course>
  <speed>25.13</speed>
  <fix>3d</fix>
</trkpt>
<trkpt lat="-27.2739786" lon="151.2895516">
  <ele>402.07</ele>
  <time>2026-09-01T19:56:16Z</time>
  <course>225.05</course>
  <speed>25.159030187986183</speed>
  <fix>3d</fix>
</trkpt>
<trkpt lat="-27.2739628" lon="151.2895689">
  <ele>402.9</ele>
  <time>2026-09-01T19:56:16Z</time>
  <course>225.03</course>
  <speed>25.14</speed>
  <fix>3d</fix>
</trkpt>
<trkpt lat="-27.2739956" lon="151.2895343">
  <ele>401.58</ele>
  <time>2026-09-01T19:56:16Z</time>
  <course>222.98</course>
  <speed>25.171017063281333</speed>
  <fix>3d</fix>
</trkpt>
<trkpt lat="-27.2739628" lon="151.2895689">
  <ele>402.9</ele>
  <time>2026-09-01T19:56:16Z</time>
  <course>225.03</course>
  <speed>25.14</speed>
  <fix>3d</fix>
</trkpt>
<trkpt lat="-27.274013" lon="151.2895179">
  <ele>401.11</ele>
  <time>2026-09-01T19:56:16Z</time>
  <course>221.0</course>
  <speed>25.17866755807384</speed>
  <fix>3d</fix>
</trkpt>
<trkpt lat="-27.2739958" lon="151.2895342">
  <ele>401.94</ele>
  <time>2026-09-01T19:56:16Z</time>
  <course>220.93</course>
  <speed>25.14</speed>
  <fix>3d</fix>
</trkpt>
<trkpt lat="-27.2740309" lon="151.2895022">
  <ele>400.63</ele>
  <time>2026-09-01T19:56:16Z</time>
  <course>219.03</course>
  <speed>25.18003177122698</speed>
  <fix>3d</fix>
</trkpt>
<trkpt lat="-27.2739958" lon="151.2895342">
  <ele>401.94</ele>
  <time>2026-09-01T19:56:16Z</time>
  <course>220.93</course>
  <speed>25.14</speed>
  <fix>3d</fix>
</trkpt>
<trkpt lat="-27.2740493" lon="151.2894873">
  <ele>400.16</ele>
  <time>2026-09-01T19:56:16Z</time>
  <course>216.99</course>
  <speed>25.18401278589256</speed>
  <fix>3d</fix>
</trkpt>
<trkpt lat="-27.2740309" lon="151.2895023">
  <ele>400.99</ele>
  <time>2026-09-01T19:56:16Z</time>
  <course>216.88</course>
  <speed>25.14</speed>
  <fix>3d</fix>
</trkpt>
<trkpt lat="-27.2740681" lon="151.289473">
  <ele>399.69</ele>
  <time>2026-09-01T19:56:16Z</time>
  <course>214.97</course>
  <speed>25.182670628827278</speed>
  <fix>3d</fix>
</trkpt>
<trkpt lat="-27.2740309" lon="151.2895023">
  <ele>400.99</ele>
  <time>2026-09-01T19:56:16Z</time>
  <course>216.88</course>
  <speed>25.14</speed>
  <fix>3d</fix>
</trkpt>
<trkpt lat="-27.2740873" lon="151.2894595">
  <ele>399.22</ele>
  <time>2026-09-01T19:56:16Z</time>
  <course>212.93</course>
  <speed>25.184568687988286</speed>
  <fix>3d</fix>
</trkpt>
<trkpt lat="-27.2740681" lon="151.2894732">
  <ele>400.04</ele>
  <time>2026-09-01T19:56:16Z</time>
  <course>212.86</course>
  <speed>25.14</speed>
  <fix>3d</fix>
</trkpt>
<trkpt lat="-27.2741069" lon="151.2894469">
  <ele>398.75</ele>
  <time>2026-09-01T19:56:16Z</time>
  <course>210.93</course>
  <speed>25.1728683308041</speed>
  <fix>3d</fix>
</trkpt>
<trkpt lat="-27.2740681" lon="151.2894732">
  <ele>400.04</ele>
  <time>2026-09-01T19:56:16Z</time>
  <course>212.86</course>
  <speed>25.14</speed>
  <fix>3d</fix>
</trkpt>
<trkpt lat="-27.2741268" lon="151.289435">
  <ele>398.28</ele>
  <time>2026-09-01T19:56:16Z</time>
  <course>208.94</course>
  <speed>25.165313429401195</speed>
  <fix>3d</fix>
</trkpt>
<trkpt lat="-27.2741069" lon="151.2894471">
  <ele>399.1</ele>
  <time>2026-09-01T19:56:16Z</time>
  <course>208.85</course>
  <speed>25.13</speed>
  <fix>3d</fix>
</trkpt>
<trkpt lat="-27.2741469" lon="151.289424">
  <ele>397.82</ele>
  <time>2026-09-01T19:56:16Z</time>
  <course>206.92</course>
  <speed>25.156249720496895</speed>
  <fix>3d</fix>
</trkpt>
<trkpt lat="-27.2741069" lon="151.2894471">
  <ele>399.1</ele>
  <time>2026-09-01T19:56:16Z</time>
  <course>208.85</course>
  <speed>25.13</speed>
  <fix>3d</fix>
</trkpt>
<trkpt lat="-27.2741675" lon="151.2894138">
  <ele>397.35</ele>
  <time>2026-09-01T19:56:16Z</time>
  <course>204.9</course>
  <speed>25.146667771297253</speed>
  <fix>3d</fix>
</trkpt>
<trkpt lat="-27.2741472" lon="151.2894241">
  <ele>398.16</ele>
  <time>2026-09-01T19:56:16Z</time>
  <course>204.87</course>
  <speed>25.13</speed>
  <fix>3d</fix>
</trkpt>
<trkpt lat="-27.2741883" lon="151.2894043">
  <ele>396.89</ele>
  <time>2026-09-01T19:56:16Z</time>
  <course>202.92</course>
  <speed>25.130692389984006</speed>
  <fix>3d</fix>
</trkpt>
<trkpt lat="-27.2741472" lon="151.2894241">
  <ele>398.16</ele>
  <time>2026-09-01T19:56:16Z</time>
  <course>204.87</course>
  <speed>25.13</speed>
  <fix>3d</fix>
</trkpt>
<trkpt lat="-27.2742094" lon="151.2893957">
  <ele>396.43</ele>
  <time>2026-09-01T19:56:16Z</time>
  <course>200.95</course>
  <speed>25.119213761580994</speed>
  <fix>3d</fix>
</trkpt>
<trkpt lat="-27.2741888" lon="151.2894044">
  <ele>397.22</ele>
  <time>2026-09-01T19:56:16Z</time>
  <course>200.88</course>
  <speed>25.12</speed>
  <fix>3d</fix>
</trkpt>
<trkpt lat="-27.2742308" lon="151.2893879">
  <ele>395.96</ele>
  <time>2026-09-01T19:56:16Z</time>
  <course>198.98</course>
  <speed>25.109810831625154</speed>
  <fix>3d</fix>
</trkpt>
<trkpt lat="-27.2741888" lon="151.2894044">
  <ele>397.22</ele>
  <time>2026-09-01T19:56:16Z</time>
  <course>200.88</course>
  <speed>25.12</speed>
  <fix>3d</fix>
</trkpt>
<trkpt lat="-27.2742524" lon="151.289381">
  <ele>395.49</ele>
  <time>2026-09-01T19:56:16Z</time>
  <course>197.07</course>
  <speed>25.113808950455923</speed>
  <fix>3d</fix>
</trkpt>
<trkpt lat="-27.2742314" lon="151.289388">
  <ele>396.28</ele>
  <time>2026-09-01T19:56:16Z</time>
  <course>196.91</course>
  <speed>25.11</speed>
  <fix>3d</fix>
</trkpt>
<trkpt lat="-27.2742743" lon="151.2893748">
  <ele>395.02</ele>
  <time>2026-09-01T19:56:16Z</time>
  <course>195.16</course>
  <speed>25.103358341066638</speed>
  <fix>3d</fix>
</trkpt>
<trkpt lat="-27.2742314" lon="151.289388">
  <ele>396.28</ele>
  <time>2026-09-01T19:56:16Z</time>
  <course>196.91</course>
  <speed>25.11</speed>
  <fix>3d</fix>
</trkpt>
<trkpt lat="-27.2742965" lon="151.2893695">
  <ele>394.55</ele>
  <time>2026-09-01T19:56:16Z</time>
  <course>193.2</course>
  <speed>25.104909878348497</speed>
  <fix>3d</fix>
</trkpt>
<trkpt lat="-27.2742749" lon="151.289375">
  <ele>395.34</ele>
  <time>2026-09-01T19:56:16Z</time>
  <course>192.98</course>
  <speed>25.09</speed>
  <fix>3d</fix>
</trkpt>
<trkpt lat="-27.2743188" lon="151.289365">
  <ele>394.07</ele>
  <time>2026-09-01T19:56:16Z</time>
  <course>191.24</course>
  <speed>25.112232079207935</speed>
  <fix>3d</fix>
</trkpt>
<trkpt lat="-27.2742749" lon="151.289375">
  <ele>395.34</ele>
  <time>2026-09-01T19:56:16Z</time>
  <course>192.98</course>
  <speed>25.09</speed>
  <fix>3d</fix>
</trkpt>
<trkpt lat="-27.2743412" lon="151.2893614">
  <ele>393.6</ele>
  <time>2026-09-01T19:56:16Z</time>
  <course>189.25</course>
  <speed>25.10963360943365</speed>
  <fix>3d</fix>
</trkpt>
<trkpt lat="-27.2743192" lon="151.2893652">
  <ele>394.4</ele>
  <time>2026-09-01T19:56:16Z</time>
  <course>189.07</course>
  <speed>25.08</speed>
  <fix>3d</fix>
</trkpt>
<trkpt lat="-27.2743639" lon="151.2893587">
  <ele>393.12</ele>
  <time>2026-09-01T19:56:16Z</time>
  <course>187.27</course>
  <speed>25.105577069647293</speed>
  <fix>3d</fix>
</trkpt>
<trkpt lat="-27.2743192" lon="151.2893652">
  <ele>394.4</ele>
  <time>2026-09-01T19:56:16Z</time>
  <course>189.07</course>
  <speed>25.08</speed>
  <fix>3d</fix>
</trkpt>
<trkpt lat="-27.2743865" lon="151.2893568">
  <ele>392.64</ele>
  <time>2026-09-01T19:56:16Z</time>
  <course>185.33</course>
  <speed>25.101914269632903</speed>
  <fix>3d</fix>
</trkpt>
<trkpt lat="-27.2743639" lon="151.289359">
  <ele>393.45</ele>
  <time>2026-09-01T19:56:16Z</time>
  <course>185.16</course>
  <speed>25.07</speed>
  <fix>3d</fix>
</trkpt>
<trkpt lat="-27.2744092" lon="151.2893558">
  <ele>392.17</ele>
  <time>2026-09-01T19:56:16Z</time>
  <course>183.37</course>
  <speed>25.107170290576356</speed>
  <fix>3d</fix>
</trkpt>
<trkpt lat="-27.2743639" lon="151.289359">
  <ele>393.45</ele>
  <time>2026-09-01T19:56:16Z</time>
  <course>185.16</course>
  <speed>25.07</speed>
  <fix>3d</fix>
</trkpt>
<trkpt lat="-27.2744318" lon="151.2893557">
  <ele>391.69</ele>
  <time>2026-09-01T19:56:16Z</time>
  <course>181.4</course>
  <speed>25.10124498904387</speed>
  <fix>3d</fix>
</trkpt>
<trkpt lat="-27.2744088" lon="151.2893561">
  <ele>392.5</ele>
  <time>2026-09-01T19:56:16Z</time>
  <course>181.26</course>
  <speed>25.06</speed>
  <fix>3d</fix>
</trkpt>
<trkpt lat="-27.2744543" lon="151.2893564">
  <ele>391.22</ele>
  <time>2026-09-01T19:56:16Z</time>
  <course>179.43</course>
  <speed>25.094561163726294</speed>
  <fix>3d</fix>
</trkpt>
<trkpt lat="-27.2744088" lon="151.2893561">
  <ele>392.5</ele>
  <time>2026-09-01T19:56:16Z</time>
  <course>181.26</course>
  <speed>25.06</speed>
  <fix>3d</fix>
</trkpt>
<trkpt lat="-27.2744767" lon="151.289358">
  <ele>390.74</ele>
  <time>2026-09-01T19:56:16Z</time>
  <course>177.47</course>
  <speed>25.086683718658392</speed>
  <fix>3d</fix>
</trkpt>
<trkpt lat="-27.2744538" lon="151.2893567">
  <ele>391.55</ele>
  <time>2026-09-01T19:56:16Z</time>
  <course>177.35</course>
  <speed>25.05</speed>
  <fix>3d</fix>
</trkpt>
<trkpt lat="-27.274499" lon="151.2893603">
  <ele>390.27</ele>
  <time>2026-09-01T19:56:16Z</time>
  <course>175.54</course>
  <speed>25.0779285428442</speed>
  <fix>3d</fix>
</trkpt>
<trkpt lat="-27.2744538" lon="151.2893567">
  <ele>391.55</ele>
  <time>2026-09-01T19:56:16Z</time>
  <course>177.35</course>
  <speed>25.05</speed>
  <fix>3d</fix>
</trkpt>
<trkpt lat="-27.2745212" lon="151.2893636">
  <ele>389.8</ele>
  <time>2026-09-01T19:56:16Z</time>
  <course>173.57</course>
  <speed>25.06861783186301</speed>
  <fix>3d</fix>
</trkpt>
<trkpt lat="-27.2744987" lon="151.2893608">
  <ele>390.59</ele>
  <time>2026-09-01T19:56:16Z</time>
  <course>173.43</course>
  <speed>25.04</speed>
  <fix>3d</fix>
</trkpt>
<trkpt lat="-27.2745433" lon="151.2893678">
  <ele>389.32</ele>
  <time>2026-09-01T19:56:16Z</time>
  <course>171.59</course>
  <speed>25.057384141206757</speed>
  <fix>3d</fix>
</trkpt>
<trkpt lat="-27.2744987" lon="151.2893608">
  <ele>390.59</ele>
  <time>2026-09-01T19:56:16Z</time>
  <course>173.43</course>
  <speed>25.04</speed>
  <fix>3d</fix>
</trkpt>
<trkpt lat="-27.2745652" lon="151.2893728">
  <ele>388.85</ele>
  <time>2026-09-01T19:56:16Z</time>
  <course>169.63</course>
  <speed>25.0458878860383</speed>
  <fix>3d</fix>
</trkpt>
<trkpt lat="-27.2745433" lon="151.2893682">
  <ele>389.64</ele>
  <time>2026-09-01T19:56:16Z</time>
  <course>169.51</course>
  <speed>25.04</speed>
  <fix>3d</fix>
</trkpt>
<trkpt lat="-27.2745872" lon="151.2893787">
  <ele>388.37</ele>
  <time>2026-09-01T19:56:16Z</time>
  <course>167.61</course>
  <speed>25.046935940350068</speed>
  <fix>3d</fix>
</trkpt>
<trkpt lat="-27.2745433" lon="151.2893682">
  <ele>389.64</ele>
  <time>2026-09-01T19:56:16Z</time>
  <course>169.51</course>
  <speed>25.04</speed>
  <fix>3d</fix>
</trkpt>
<trkpt lat="-27.2746088" lon="151.2893854">
  <ele>387.89</ele>
  <time>2026-09-01T19:56:16Z</time>
  <course>165.62</course>
  <speed>25.037208310832103</speed>
  <fix>3d</fix>
</trkpt>
<trkpt lat="-27.2745872" lon="151.2893792">
  <ele>388.69</ele>
  <time>2026-09-01T19:56:16Z</time>
  <course>165.56</course>
  <speed>25.04</speed>
  <fix>3d</fix>
</trkpt>
<trkpt lat="-27.2746301" lon="151.2893929">
  <ele>387.41</ele>
  <time>2026-09-01T19:56:16Z</time>
  <course>163.65</course>
  <speed>25.032686631682186</speed>
  <fix>3d</fix>
</trkpt>
<trkpt lat="-27.2745872" lon="151.2893792">
  <ele>388.69</ele>
  <time>2026-09-01T19:56:16Z</time>
  <course>165.56</course>
  <speed>25.04</speed>
  <fix>3d</fix>
</trkpt>
<trkpt lat="-27.2746513" lon="151.2894013">
  <ele>386.93</ele>
  <time>2026-09-01T19:56:16Z</time>
  <course>161.69</course>
  <speed>25.032031479686182</speed>
  <fix>3d</fix>
</trkpt>
<trkpt lat="-27.2746303" lon="151.2893935">
  <ele>387.72</ele>
  <time>2026-09-01T19:56:16Z</time>
  <course>161.61</course>
  <speed>25.04</speed>
  <fix>3d</fix>
</trkpt>
<trkpt lat="-27.2746722" lon="151.2894105">
  <ele>386.45</ele>
  <time>2026-09-01T19:56:16Z</time>
  <course>159.72</course>
  <speed>25.02301740398228</speed>
  <fix>3d</fix>
</trkpt>
<trkpt lat="-27.2746303" lon="151.2893935">
  <ele>387.72</ele>
  <time>2026-09-01T19:56:16Z</time>
  <course>161.61</course>
  <speed>25.04</speed>
  <fix>3d</fix>
</trkpt>
<trkpt lat="-27.2746928" lon="151.2894204">
  <ele>385.97</ele>
  <time>2026-09-01T19:56:16Z</time>
  <course>157.76</course>
  <speed>25.02132090837732</speed>
  <fix>3d</fix>
</trkpt>
<trkpt lat="-27.2746725" lon="151.2894111">
  <ele>386.77</ele>
  <time>2026-09-01T19:56:16Z</time>
  <course>157.69</course>
  <speed>25.04</speed>
  <fix>3d</fix>
</trkpt>
<trkpt lat="-27.2747129" lon="151.2894311">
  <ele>385.5</ele>
  <time>2026-09-01T19:56:16Z</time>
  <course>155.83</course>
  <speed>25.022409955877553</speed>
  <fix>3d</fix>
</trkpt>
<trkpt lat="-27.2746725" lon="151.2894111">
  <ele>386.77</ele>
  <time>2026-09-01T19:56:16Z</time>
  <course>157.69</course>
  <speed>25.04</speed>
  <fix>3d</fix>
</trkpt>
<trkpt lat="-27.2747329" lon="151.2894427">
  <ele>385.02</ele>
  <time>2026-09-01T19:56:16Z</time>
  <course>153.83</course>
  <speed>25.025882601818463</speed>
  <fix>3d</fix>
</trkpt>
<trkpt lat="-27.2747135" lon="151.2894319">
  <ele>385.81</ele>
  <time>2026-09-01T19:56:16Z</time>
  <course>153.76</course>
  <speed>25.04</speed>
  <fix>3d</fix>
</trkpt>
<trkpt lat="-27.2747525" lon="151.289455">
  <ele>384.53</ele>
  <time>2026-09-01T19:56:16Z</time>
  <course>151.8</course>
  <speed>25.02812817611417</speed>
  <fix>3d</fix>
</trkpt>
<trkpt lat="-27.2747135" lon="151.2894319">
  <ele>385.81</ele>
  <time>2026-09-01T19:56:16Z</time>
  <course>153.76</course>
  <speed>25.04</speed>
  <fix>3d</fix>
</trkpt>
<trkpt lat="-27.2747717" lon="151.2894681">
  <ele>384.05</ele>
  <time>2026-09-01T19:56:16Z</time>
  <course>149.66</course>
  <speed>25.045688251673184</speed>
  <fix>3d</fix>
</trkpt>
<trkpt lat="-27.2747531" lon="151.2894558">
  <ele>384.84</ele>
  <time>2026-09-01T19:56:16Z</time>
  <course>149.78</course>
  <speed>25.05</speed>
  <fix>3d</fix>
</trkpt>
<trkpt lat="-27.2747907" lon="151.2894821">
  <ele>383.57</ele>
  <time>2026-09-01T19:56:16Z</time>
  <course>147.45</course>
  <speed>25.059852353914618</speed>
  <fix>3d</fix>
</trkpt>
<trkpt lat="-27.2747531" lon="151.2894558">
  <ele>384.84</ele>
  <time>2026-09-01T19:56:16Z</time>
  <course>149.78</course>
  <speed>25.05</speed>
  <fix>3d</fix>
</trkpt>
<trkpt lat="-27.274809" lon="151.2894968">
  <ele>383.11</ele>
  <time>2026-09-01T19:56:16Z</time>
  <course>145.3</course>
  <speed>25.07666046346682</speed>
  <fix>3d</fix>
</trkpt>
<trkpt lat="-27.2747912" lon="151.2894829">
  <ele>383.9</ele>
  <time>2026-09-01T19:56:16Z</time>
  <course>145.62</course>
  <speed>25.08</speed>
  <fix>3d</fix>
</trkpt>
<trkpt lat="-27.2748268" lon="151.2895122">
  <ele>382.65</ele>
  <time>2026-09-01T19:56:16Z</time>
  <course>143.12</course>
  <speed>25.08775797077132</speed>
  <fix>3d</fix>
</trkpt>
<trkpt lat="-27.2747912" lon="151.2894829">
  <ele>383.9</ele>
  <time>2026-09-01T19:56:16Z</time>
  <course>145.62</course>
  <speed>25.08</speed>
  <fix>3d</fix>
</trkpt>
<trkpt lat="-27.2748441" lon="151.2895283">
  <ele>382.21</ele>
  <time>2026-09-01T19:56:16Z</time>
  <course>140.87</course>
  <speed>25.105539229421066</speed>
  <fix>3d</fix>
</trkpt>
<trkpt lat="-27.2748274" lon="151.2895131">
  <ele>382.97</ele>
  <time>2026-09-01T19:56:16Z</time>
  <course>141.29</course>
  <speed>25.12</speed>
  <fix>3d</fix>
</trkpt>
<trkpt lat="-27.2748607" lon="151.2895452">
  <ele>381.77</ele>
  <time>2026-09-01T19:56:16Z</time>
  <course>138.56</course>
  <speed>25.1234571665605</speed>
  <fix>3d</fix>
</trkpt>
<trkpt lat="-27.2748274" lon="151.2895131">
  <ele>382.97</ele>
  <time>2026-09-01T19:56:16Z</time>
  <course>141.29</course>
  <speed>25.12</speed>
  <fix>3d</fix>
</trkpt>
<trkpt lat="-27.2748768" lon="151.2895629">
  <ele>381.35</ele>
  <time>2026-09-01T19:56:16Z</time>
  <course>136.23</course>
  <speed>25.145198348790174</speed>
  <fix>3d</fix>
</trkpt>
<trkpt lat="-27.2748616" lon="151.2895464">
  <ele>382.09</ele>
  <time>2026-09-01T19:56:16Z</time>
  <course>136.84</course>
  <speed>25.17</speed>
  <fix>3d</fix>
</trkpt>
<trkpt lat="-27.2748924" lon="151.2895813">
  <ele>380.93</ele>
  <time>2026-09-01T19:56:16Z</time>
  <course>133.91</course>
  <speed>25.157972891312212</speed>
  <fix>3d</fix>
</trkpt>
<trkpt lat="-27.2748616" lon="151.2895464">
  <ele>382.09</ele>
  <time>2026-09-01T19:56:16Z</time>
  <course>136.84</course>
  <speed>25.17</speed>
  <fix>3d</fix>
</trkpt>
<trkpt lat="-27.2749073" lon="151.2896005">
  <ele>380.54</ele>
  <time>2026-09-01T19:56:16Z</time>
  <course>131.6</course>
  <speed>25.183728874017046</speed>
  <fix>3d</fix>
</trkpt>
<trkpt lat="-27.2748933" lon="151.2895826">
  <ele>381.25</ele>
  <time>2026-09-01T19:56:16Z</time>
  <course>132.26</course>
  <speed>25.21</speed>
  <fix>3d</fix>
</trkpt>
<trkpt lat="-27.2749215" lon="151.2896204">
  <ele>380.15</ele>
  <time>2026-09-01T19:56:16Z</time>
  <course>129.3</course>
  <speed>25.20854220299143</speed>
  <fix>3d</fix>
</trkpt>
<trkpt lat="-27.2748933" lon="151.2895826">
  <ele>381.25</ele>
  <time>2026-09-01T19:56:16Z</time>
  <course>132.26</course>
  <speed>25.21</speed>
  <fix>3d</fix>
</trkpt>
<trkpt lat="-27.274935" lon="151.2896409">
  <ele>379.79</ele>
  <time>2026-09-01T19:56:16Z</time>
  <course>126.97</course>
  <speed>25.218901641427607</speed>
  <fix>3d</fix>
</trkpt>
<trkpt lat="-27.2749224" lon="151.2896218">
  <ele>380.47</ele>
  <time>2026-09-01T19:56:16Z</time>
  <course>127.62</course>
  <speed>25.25</speed>
  <fix>3d</fix>
</trkpt>
<trkpt lat="-27.2749478" lon="151.2896622">
  <ele>379.44</ele>
  <time>2026-09-01T19:56:16Z</time>
  <course>124.69</course>
  <speed>25.23505696446909</speed>
  <fix>3d</fix>
</trkpt>
<trkpt lat="-27.2749224" lon="151.2896218">
  <ele>380.47</ele>
  <time>2026-09-01T19:56:16Z</time>
  <course>127.62</course>
  <speed>25.25</speed>
  <fix>3d</fix>
</trkpt>
<trkpt lat="-27.2749598" lon="151.2896839">
  <ele>379.1</ele>
  <time>2026-09-01T19:56:16Z</time>
  <course>122.38</course>
  <speed>25.25339779118842</speed>
  <fix>3d</fix>
</trkpt>
<trkpt lat="-27.2749487" lon="151.2896635">
  <ele>379.77</ele>
  <time>2026-09-01T19:56:16Z</time>
  <course>122.97</course>
  <speed>25.27</speed>
  <fix>3d</fix>
</trkpt>
<trkpt lat="-27.2749711" lon="151.2897062">
  <ele>378.79</ele>
  <time>2026-09-01T19:56:16Z</time>
  <course>120.1</course>
  <speed>25.262794778092147</speed>
  <fix>3d</fix>
</trkpt>
<trkpt lat="-27.2749487" lon="151.2896635">
  <ele>379.77</ele>
  <time>2026-09-01T19:56:16Z</time>
  <course>122.97</course>
  <speed>25.27</speed>
  <fix>3d</fix>
</trkpt>
<trkpt lat="-27.2749815" lon="151.289729">
  <ele>378.49</ele>
  <time>2026-09-01T19:56:16Z</time>
  <course>117.95</course>
  <speed>25.26363790114163</speed>
  <fix>3d</fix>
</trkpt>
<trkpt lat="-27.2749718" lon="151.2897075">
  <ele>379.12</ele>
  <time>2026-09-01T19:56:16Z</time>
  <course>118.39</course>
  <speed>25.28</speed>
  <fix>3d</fix>
</trkpt>
<trkpt lat="-27.2749912" lon="151.2897522">
  <ele>378.2</ele>
  <time>2026-09-01T19:56:16Z</time>
  <course>115.76</course>
  <speed>25.261815057513186</speed>
  <fix>3d</fix>
</trkpt>
<trkpt lat="-27.2749718" lon="151.2897075">
  <ele>379.12</ele>
  <time>2026-09-01T19:56:16Z</time>
  <course>118.39</course>
  <speed>25.28</speed>
  <fix>3d</fix>
</trkpt>
<trkpt lat="-27.2750001" lon="151.2897758">
  <ele>377.93</ele>
  <time>2026-09-01T19:56:16Z</time>
  <course>113.56</course>
  <speed>25.265707985330632</speed>
  <fix>3d</fix>
</trkpt>
<trkpt lat="-27.2749918" lon="151.2897533">
  <ele>378.53</ele>
  <time>2026-09-01T19:56:16Z</time>
  <course>113.93</course>
  <speed>25.28</speed>
  <fix>3d</fix>
</trkpt>
<trkpt lat="-27.2750082" lon="151.2897998">
  <ele>377.67</ele>
  <time>2026-09-01T19:56:16Z</time>
  <course>111.41</course>
  <speed>25.25011881160166</speed>
  <fix>3d</fix>
</trkpt>
<trkpt lat="-27.2749918" lon="151.2897533">
  <ele>378.53</ele>
  <time>2026-09-01T19:56:16Z</time>
  <course>113.93</course>
  <speed>25.28</speed>
  <fix>3d</fix>
</trkpt>
<trkpt lat="-27.2750154" lon="151.2898241">
  <ele>377.43</ele>
  <time>2026-09-01T19:56:16Z</time>
  <course>109.34</course>
  <speed>25.231797399313432</speed>
  <fix>3d</fix>
</trkpt>
<trkpt lat="-27.2750087" lon="151.2898007">
  <ele>378.0</ele>
  <time>2026-09-01T19:56:16Z</time>
  <course>109.61</course>
  <speed>25.26</speed>
  <fix>3d</fix>
</trkpt>
<trkpt lat="-27.2750219" lon="151.2898486">
  <ele>377.19</ele>
  <time>2026-09-01T19:56:16Z</time>
  <course>107.33</course>
  <speed>25.221706920825163</speed>
  <fix>3d</fix>
</trkpt>
<trkpt lat="-27.2750087" lon="151.2898007">
  <ele>378.0</ele>
  <time>2026-09-01T19:56:16Z</time>
  <course>109.61</course>
  <speed>25.26</speed>
  <fix>3d</fix>
</trkpt>
<trkpt lat="-27.2750276" lon="151.2898733">
  <ele>376.97</ele>
  <time>2026-09-01T19:56:16Z</time>
  <course>105.31</course>
  <speed>25.208191129075484</speed>
  <fix>3d</fix>
</trkpt>
<trkpt lat="-27.2750222" lon="151.2898493">
  <ele>377.52</ele>
  <time>2026-09-01T19:56:16Z</time>
  <course>105.41</course>
  <speed>25.22</speed>
  <fix>3d</fix>
</trkpt>
<trkpt lat="-27.2750325" lon="151.2898983">
  <ele>376.75</ele>
  <time>2026-09-01T19:56:16Z</time>
  <course>103.27</course>
  <speed>25.185253621911375</speed>
  <fix>3d</fix>
</trkpt>
<trkpt lat="-27.2750222" lon="151.2898493">
  <ele>377.52</ele>
  <time>2026-09-01T19:56:16Z</time>
  <course>105.41</course>
  <speed>25.22</speed>
  <fix>3d</fix>
</trkpt>
<trkpt lat="-27.2750366" lon="151.2899236">
  <ele>376.55</ele>
  <time>2026-09-01T19:56:16Z</time>
  <course>101.29</course>
  <speed>25.166225382444622</speed>
  <fix>3d</fix>
</trkpt>
<trkpt lat="-27.2750327" lon="151.2898989">
  <ele>377.08</ele>
  <time>2026-09-01T19:56:16Z</time>
  <course>101.33</course>
  <speed>25.18</speed>
  <fix>3d</fix>
</trkpt>
<trkpt lat="-27.2750399" lon="151.2899489">
  <ele>376.35</ele>
  <time>2026-09-01T19:56:16Z</time>
  <course>99.38</course>
  <speed>25.14095065823884</speed>
  <fix>3d</fix>
</trkpt>
<trkpt lat="-27.2750327" lon="151.2898989">
  <ele>377.08</ele>
  <time>2026-09-01T19:56:16Z</time>
  <course>101.33</course>
  <speed>25.18</speed>
  <fix>3d</fix>
</trkpt>
<trkpt lat="-27.2750425" lon="151.2899741">
  <ele>376.16</ele>
  <time>2026-09-01T19:56:16Z</time>
  <course>97.46</course>
  <speed>25.116854898653216</speed>
  <fix>3d</fix>
</trkpt>
<trkpt lat="-27.2750401" lon="151.2899491">
  <ele>376.67</ele>
  <time>2026-09-01T19:56:16Z</time>
  <course>97.39</course>
  <speed>25.13</speed>
  <fix>3d</fix>
</trkpt>
<trkpt lat="-27.2750443" lon="151.2899995">
  <ele>375.98</ele>
  <time>2026-09-01T19:56:16Z</time>
  <course>95.53</course>
  <speed>25.0997788834882</speed>
  <fix>3d</fix>
</trkpt>
<trkpt lat="-27.2750401" lon="151.2899491">
  <ele>376.67</ele>
  <time>2026-09-01T19:56:16Z</time>
  <course>97.39</course>
  <speed>25.13</speed>
  <fix>3d</fix>
</trkpt>
<trkpt lat="-27.2750453" lon="151.2900249">
  <ele>375.8</ele>
  <time>2026-09-01T19:56:16Z</time>
  <course>93.63</course>
  <speed>25.07092339743393</speed>
  <fix>3d</fix>
</trkpt>
<trkpt lat="-27.2750444" lon="151.2899995">
  <ele>376.29</ele>
  <time>2026-09-01T19:56:16Z</time>
  <course>93.54</course>
  <speed>25.08</speed>
  <fix>3d</fix>
</trkpt>
<trkpt lat="-27.2750456" lon="151.2900503">
  <ele>375.62</ele>
  <time>2026-09-01T19:56:16Z</time>
  <course>91.76</course>
  <speed>25.050097804200288</speed>
  <fix>3d</fix>
</trkpt>
<trkpt lat="-27.2750444" lon="151.2899995">
  <ele>376.29</ele>
  <time>2026-09-01T19:56:16Z</time>
  <course>93.54</course>
  <speed>25.08</speed>
  <fix>3d</fix>
</trkpt>
<trkpt lat="-27.2750453" lon="151.2900757">
  <ele>375.46</ele>
  <time>2026-09-01T19:56:16Z</time>
  <course>89.84</course>
  <speed>25.03582433234424</speed>
  <fix>3d</fix>
</trkpt>
<trkpt lat="-27.2750457" lon="151.2900502">
  <ele>375.94</ele>
  <time>2026-09-01T19:56:16Z</time>
  <course>89.74</course>
  <speed>25.03</speed>
  <fix>3d</fix>
</trkpt>
<trkpt lat="-27.2750441" lon="151.290101">
  <ele>375.29</ele>
  <time>2026-09-01T19:56:16Z</time>
  <course>87.97</course>
  <speed>25.00853054459618</speed>
  <fix>3d</fix>
</trkpt>
<trkpt lat="-27.2750457" lon="151.2900502">
  <ele>375.94</ele>
  <time>2026-09-01T19:56:16Z</time>
  <course>89.74</course>
  <speed>25.03</speed>
  <fix>3d</fix>
</trkpt>
<trkpt lat="-27.2750422" lon="151.2901262">
  <ele>375.14</ele>
  <time>2026-09-01T19:56:16Z</time>
  <course>86.13</course>
  <speed>24.98840731219179</speed>
  <fix>3d</fix>
</trkpt>
<trkpt lat="-27.275044" lon="151.2901008">
  <ele>375.6</ele>
  <time>2026-09-01T19:56:16Z</time>
  <course>85.98</course>
  <speed>24.98</speed>
  <fix>3d</fix>
</trkpt>
<trkpt lat="-27.2750395" lon="151.2901513">
  <ele>374.98</ele>
  <time>2026-09-01T19:56:16Z</time>
  <course>84.21</course>
  <speed>24.97434884036018</speed>
  <fix>3d</fix>
</trkpt>
<trkpt lat="-27.275044" lon="151.2901008">
  <ele>375.6</ele>
  <time>2026-09-01T19:56:16Z</time>
  <course>85.98</course>
  <speed>24.98</speed>
  <fix>3d</fix>
</trkpt>
<trkpt lat="-27.2750361" lon="151.2901763">
  <ele>374.83</ele>
  <time>2026-09-01T19:56:16Z</time>
  <course>82.29</course>
  <speed>24.95912057745625</speed>
  <fix>3d</fix>
</trkpt>
<trkpt lat="-27.2750394" lon="151.290151">
  <ele>375.28</ele>
  <time>2026-09-01T19:56:16Z</time>
  <course>82.19</course>
  <speed>24.93</speed>
  <fix>3d</fix>
</trkpt>
<trkpt lat="-27.275032" lon="151.290201">
  <ele>374.68</ele>
  <time>2026-09-01T19:56:16Z</time>
  <course>80.38</course>
  <speed>24.93041917016238</speed>
  <fix>3d</fix>
</trkpt>
<trkpt lat="-27.2750394" lon="151.290151">
  <ele>375.28</ele>
  <time>2026-09-01T19:56:16Z</time>
  <course>82.19</course>
  <speed>24.93</speed>
  <fix>3d</fix>
</trkpt>
<trkpt lat="-27.2750272" lon="151.2902255">
  <ele>374.55</ele>
  <time>2026-09-01T19:56:16Z</time>
  <course>78.49</course>
  <speed>24.917273125283995</speed>
  <fix>3d</fix>
</trkpt>
<trkpt lat="-27.2750319" lon="151.2902006">
  <ele>374.97</ele>
  <time>2026-09-01T19:56:16Z</time>
  <course>78.39</course>
  <speed>24.9</speed>
  <fix>3d</fix>
</trkpt>
<trkpt lat="-27.2750216" lon="151.2902497">
  <ele>374.41</ele>
  <time>2026-09-01T19:56:16Z</time>
  <course>76.58</course>
  <speed>24.902315153414953</speed>
  <fix>3d</fix>
</trkpt>
<trkpt lat="-27.2750319" lon="151.2902006">
  <ele>374.97</ele>
  <time>2026-09-01T19:56:16Z</time>
  <course>78.39</course>
  <speed>24.9</speed>
  <fix>3d</fix>
</trkpt>
<trkpt lat="-27.2750154" lon="151.2902738">
  <ele>374.28</ele>
  <time>2026-09-01T19:56:16Z</time>
  <course>74.62</course>
  <speed>24.883377986117562</speed>
  <fix>3d</fix>
</trkpt>
<trkpt lat="-27.2750214" lon="151.2902495">
  <ele>374.69</ele>
  <time>2026-09-01T19:56:16Z</time>
  <course>74.59</course>
  <speed>24.87</speed>
  <fix>3d</fix>
</trkpt>
<trkpt lat="-27.2750084" lon="151.2902976">
  <ele>374.16</ele>
  <time>2026-09-01T19:56:16Z</time>
  <course>72.76</course>
  <speed>24.86985323639848</speed>
  <fix>3d</fix>
</trkpt>
<trkpt lat="-27.2750214" lon="151.2902495">
  <ele>374.69</ele>
  <time>2026-09-01T19:56:16Z</time>
  <course>74.59</course>
  <speed>24.87</speed>
  <fix>3d</fix>
</trkpt>
<trkpt lat="-27.2750007" lon="151.2903212">
  <ele>374.03</ele>
  <time>2026-09-01T19:56:16Z</time>
  <course>70.82</course>
  <speed>24.86146013411119</speed>
  <fix>3d</fix>
</trkpt>
<trkpt lat="-27.2750081" lon="151.2902975">
  <ele>374.41</ele>
  <time>2026-09-01T19:56:16Z</time>
  <course>70.78</course>
  <speed>24.85</speed>
  <fix>3d</fix>
</trkpt>
<trkpt lat="-27.2749923" lon="151.2903446">
  <ele>373.9</ele>
  <time>2026-09-01T19:56:16Z</time>
  <course>68.9</course>
  <speed>24.85655245604265</speed>
  <fix>3d</fix>
</trkpt>
<trkpt lat="-27.2750081" lon="151.2902975">
  <ele>374.41</ele>
  <time>2026-09-01T19:56:16Z</time>
  <course>70.78</course>
  <speed>24.85</speed>
  <fix>3d</fix>
</trkpt>
<trkpt lat="-27.2749832" lon="151.2903676">
  <ele>373.78</ele>
  <time>2026-09-01T19:56:16Z</time>
  <course>66.96</course>
  <speed>24.848806812400472</speed>
  <fix>3d</fix>
</trkpt>
<trkpt lat="-27.2749921" lon="151.2903442">
  <ele>374.16</ele>
  <time>2026-09-01T19:56:16Z</time>
  <course>66.94</course>
  <speed>24.83</speed>
  <fix>3d</fix>
</trkpt>
<trkpt lat="-27.2749734" lon="151.2903902">
  <ele>373.67</ele>
  <time>2026-09-01T19:56:16Z</time>
  <course>65.05</course>
  <speed>24.856403601486683</speed>
  <fix>3d</fix>
</trkpt>
<trkpt lat="-27.2749921" lon="151.2903442">
  <ele>374.16</ele>
  <time>2026-09-01T19:56:16Z</time>
  <course>66.94</course>
  <speed>24.83</speed>
  <fix>3d</fix>
</trkpt>
<trkpt lat="-27.2749629" lon="151.2904125">
  <ele>373.55</ele>
  <time>2026-09-01T19:56:16Z</time>
  <course>63.08</course>
  <speed>24.861315331253092</speed>
  <fix>3d</fix>
</trkpt>
<trkpt lat="-27.2749732" lon="151.2903897">
  <ele>373.92</ele>
  <time>2026-09-01T19:56:16Z</time>
  <course>63.06</course>
  <speed>24.82</speed>
  <fix>3d</fix>
</trkpt>
<trkpt lat="-27.2749518" lon="151.2904342">
  <ele>373.44</ele>
  <time>2026-09-01T19:56:16Z</time>
  <course>61.17</course>
  <speed>24.86405035387437</speed>
  <fix>3d</fix>
</trkpt>
<trkpt lat="-27.2749732" lon="151.2903897">
  <ele>373.92</ele>
  <time>2026-09-01T19:56:16Z</time>
  <course>63.06</course>
  <speed>24.82</speed>
  <fix>3d</fix>
</trkpt>
<trkpt lat="-27.27494" lon="151.2904556">
  <ele>373.33</ele>
  <time>2026-09-01T19:56:16Z</time>
  <course>59.2</course>
  <speed>24.87365071717459</speed>
  <fix>3d</fix>
</trkpt>
<trkpt lat="-27.2749516" lon="151.2904336">
  <ele>373.7</ele>
  <time>2026-09-01T19:56:16Z</time>
  <course>59.15</course>
  <speed>24.82</speed>
  <fix>3d</fix>
</trkpt>
<trkpt lat="-27.2749275" lon="151.2904765">
  <ele>373.23</ele>
  <time>2026-09-01T19:56:16Z</time>
  <course>57.22</course>
  <speed>24.87384369171761</speed>
  <fix>3d</fix>
</trkpt>
<trkpt lat="-27.2749516" lon="151.2904336">
  <ele>373.7</ele>
  <time>2026-09-01T19:56:16Z</time>
  <course>59.15</course>
  <speed>24.82</speed>
  <fix>3d</fix>
</trkpt>
<trkpt lat="-27.2749142" lon="151.2904973">
  <ele>373.13</ele>
  <time>2026-09-01T19:56:16Z</time>
  <course>55.22</course>
  <speed>24.888087511900142</speed>
  <fix>3d</fix>
</trkpt>
<trkpt lat="-27.2749275" lon="151.2904758">
  <ele>373.49</ele>
  <time>2026-09-01T19:56:16Z</time>
  <course>55.21</course>
  <speed>24.83</speed>
  <fix>3d</fix>
</trkpt>
<trkpt lat="-27.2749004" lon="151.2905172">
  <ele>373.03</ele>
  <time>2026-09-01T19:56:16Z</time>
  <course>53.23</course>
  <speed>24.89879113531418</speed>
  <fix>3d</fix>
</trkpt>
<trkpt lat="-27.2749275" lon="151.2904758">
  <ele>373.49</ele>
  <time>2026-09-01T19:56:16Z</time>
  <course>55.21</course>
  <speed>24.83</speed>
  <fix>3d</fix>
</trkpt>
<trkpt lat="-27.2748861" lon="151.2905366">
  <ele>372.94</ele>
  <time>2026-09-01T19:56:16Z</time>
  <course>51.26</course>
  <speed>24.911236420539225</speed>
  <fix>3d</fix>
</trkpt>
<trkpt lat="-27.2749008" lon="151.290516">
  <ele>373.29</ele>
  <time>2026-09-01T19:56:16Z</time>
  <course>51.24</course>
  <speed>24.84</speed>
  <fix>3d</fix>
</trkpt>
<trkpt lat="-27.2748712" lon="151.2905553">
  <ele>372.86</ele>
  <time>2026-09-01T19:56:16Z</time>
  <course>49.28</course>
  <speed>24.917754714259466</speed>
  <fix>3d</fix>
</trkpt>
<trkpt lat="-27.2749008" lon="151.290516">
  <ele>373.29</ele>
  <time>2026-09-01T19:56:16Z</time>
  <course>51.24</course>
  <speed>24.84</speed>
  <fix>3d</fix>
</trkpt>
<trkpt lat="-27.2748558" lon="151.2905734">
  <ele>372.78</ele>
  <time>2026-09-01T19:56:16Z</time>
  <course>47.23</course>
  <speed>24.91884427496588</speed>
  <fix>3d</fix>
</trkpt>
<trkpt lat="-27.2748716" lon="151.2905541">
  <ele>373.11</ele>
  <time>2026-09-01T19:56:16Z</time>
  <course>47.25</course>
  <speed>24.86</speed>
  <fix>3d</fix>
</trkpt>
<trkpt lat="-27.2748399" lon="151.2905908">
  <ele>372.7</ele>
  <time>2026-09-01T19:56:16Z</time>
  <course>45.19</course>
  <speed>24.929292007596203</speed>
  <fix>3d</fix>
</trkpt>
<trkpt lat="-27.2748716" lon="151.2905541">
  <ele>373.11</ele>
  <time>2026-09-01T19:56:16Z</time>
  <course>47.25</course>
  <speed>24.86</speed>
  <fix>3d</fix>
</trkpt>
<trkpt lat="-27.2748234" lon="151.2906076">
  <ele>372.63</ele>
  <time>2026-09-01T19:56:16Z</time>
  <course>43.17</course>
  <speed>24.935719359986386</speed>
  <fix>3d</fix>
</trkpt>
<trkpt lat="-27.2748401" lon="151.2905899">
  <ele>372.94</ele>
  <time>2026-09-01T19:56:16Z</time>
  <course>43.24</course>
  <speed>24.89</speed>
  <fix>3d</fix>
</trkpt>
<trkpt lat="-27.2748064" lon="151.2906237">
  <ele>372.57</ele>
  <time>2026-09-01T19:56:16Z</time>
  <course>41.08</course>
  <speed>24.93903165722358</speed>
  <fix>3d</fix>
</trkpt>
<trkpt lat="-27.2748401" lon="151.2905899">
  <ele>372.94</ele>
  <time>2026-09-01T19:56:16Z</time>
  <course>43.24</course>
  <speed>24.89</speed>
  <fix>3d</fix>
</trkpt>
<trkpt lat="-27.2747889" lon="151.2906392">
  <ele>372.5</ele>
  <time>2026-09-01T19:56:16Z</time>
  <course>39.03</course>
  <speed>24.94028869119201</speed>
  <fix>3d</fix>
</trkpt>
<trkpt lat="-27.2748064" lon="151.2906231">
  <ele>372.78</ele>
  <time>2026-09-01T19:56:16Z</time>
  <course>39.16</course>
  <speed>24.91</speed>
  <fix>3d</fix>
</trkpt>
<trkpt lat="-27.2747709" lon="151.2906539">
  <ele>372.44</ele>
  <time>2026-09-01T19:56:16Z</time>
  <course>36.95</course>
  <speed>24.938263772764934</speed>
  <fix>3d</fix>
</trkpt>
<trkpt lat="-27.2748064" lon="151.2906231">
  <ele>372.78</ele>
  <time>2026-09-01T19:56:16Z</time>
  <course>39.16</course>
  <speed>24.91</speed>
  <fix>3d</fix>
</trkpt>
<trkpt lat="-27.2747524" lon="151.2906679">
  <ele>372.38</ele>
  <time>2026-09-01T19:56:16Z</time>
  <course>34.85</course>
  <speed>24.941186820197633</speed>
  <fix>3d</fix>
</trkpt>
<trkpt lat="-27.2747707" lon="151.2906534">
  <ele>372.64</ele>
  <time>2026-09-01T19:56:16Z</time>
  <course>35.01</course>
  <speed>24.94</speed>
  <fix>3d</fix>
</trkpt>
<trkpt lat="-27.2747334" lon="151.2906811">
  <ele>372.33</ele>
  <time>2026-09-01T19:56:16Z</time>
  <course>32.78</course>
  <speed>24.958215080409897</speed>
  <fix>3d</fix>
</trkpt>
<trkpt lat="-27.2747707" lon="151.2906534">
  <ele>372.64</ele>
  <time>2026-09-01T19:56:16Z</time>
  <course>35.01</course>
  <speed>24.94</speed>
  <fix>3d</fix>
</trkpt>
<trkpt lat="-27.2747139" lon="151.2906937">
  <ele>372.28</ele>
  <time>2026-09-01T19:56:16Z</time>
  <course>30.73</course>
  <speed>24.973906382462477</speed>
  <fix>3d</fix>
</trkpt>
<trkpt lat="-27.2747331" lon="151.2906808">
  <ele>372.52</ele>
  <time>2026-09-01T19:56:16Z</time>
  <course>30.86</course>
  <speed>24.96</speed>
  <fix>3d</fix>
</trkpt>
<trkpt lat="-27.274694" lon="151.2907054">
  <ele>372.23</ele>
  <time>2026-09-01T19:56:16Z</time>
  <course>28.69</course>
  <speed>24.981467130655076</speed>
  <fix>3d</fix>
</trkpt>
<trkpt lat="-27.2747331" lon="151.2906808">
  <ele>372.52</ele>
  <time>2026-09-01T19:56:16Z</time>
  <course>30.86</course>
  <speed>24.96</speed>
  <fix>3d</fix>
</trkpt>
<trkpt lat="-27.2746737" lon="151.2907164">
  <ele>372.18</ele>
  <time>2026-09-01T19:56:16Z</time>
  <course>26.67</course>
  <speed>25.00383970513329</speed>
  <fix>3d</fix>
</trkpt>
<trkpt lat="-27.2746938" lon="151.2907051">
  <ele>372.41</ele>
  <time>2026-09-01T19:56:16Z</time>
  <course>26.72</course>
  <speed>24.98</speed>
  <fix>3d</fix>
</trkpt>
<trkpt lat="-27.274653" lon="151.2907265">
  <ele>372.13</ele>
  <time>2026-09-01T19:56:16Z</time>
  <course>24.6</course>
  <speed>25.01384616567392</speed>
  <fix>3d</fix>
</trkpt>
<trkpt lat="-27.2746938" lon="151.2907051">
  <ele>372.41</ele>
  <time>2026-09-01T19:56:16Z</time>
  <course>26.72</course>
  <speed>24.98</speed>
  <fix>3d</fix>
</trkpt>
<trkpt lat="-27.274632" lon="151.2907358">
  <ele>372.09</ele>
  <time>2026-09-01T19:56:16Z</time>
  <course>22.43</course>
  <speed>25.030421490658124</speed>
  <fix>3d</fix>
</trkpt>
<trkpt lat="-27.274653" lon="151.2907262">
  <ele>372.32</ele>
  <time>2026-09-01T19:56:16Z</time>
  <course>22.59</course>
  <speed>25.0</speed>
  <fix>3d</fix>
</trkpt>
<trkpt lat="-27.2746107" lon="151.2907442">
  <ele>372.04</ele>
  <time>2026-09-01T19:56:16Z</time>
  <course>20.32</course>
  <speed>25.05156681726714</speed>
  <fix>3d</fix>
</trkpt>
<trkpt lat="-27.274653" lon="151.2907262">
  <ele>372.32</ele>
  <time>2026-09-01T19:56:16Z</time>
  <course>22.59</course>
  <speed>25.0</speed>
  <fix>3d</fix>
</trkpt>
<trkpt lat="-27.2745893" lon="151.2907517">
  <ele>372.0</ele>
  <time>2026-09-01T19:56:16Z</time>
  <course>18.33</course>
  <speed>25.07161941319308</speed>
  <fix>3d</fix>
</trkpt>
<trkpt lat="-27.2746109" lon="151.2907439">
  <ele>372.22</ele>
  <time>2026-09-01T19:56:16Z</time>
  <course>18.42</course>
  <speed>25.03</speed>
  <fix>3d</fix>
</trkpt>
<trkpt lat="-27.2745675" lon="151.2907584">
  <ele>371.96</ele>
  <time>2026-09-01T19:56:16Z</time>
  <course>16.28</course>
  <speed>25.092923305187064</speed>
  <fix>3d</fix>
</trkpt>
<trkpt lat="-27.2746109" lon="151.2907439">
  <ele>372.22</ele>
  <time>2026-09-01T19:56:16Z</time>
  <course>18.42</course>
  <speed>25.03</speed>
  <fix>3d</fix>
</trkpt>
<trkpt lat="-27.2745455" lon="151.2907642">
  <ele>371.93</ele>
  <time>2026-09-01T19:56:16Z</time>
  <course>14.18</course>
  <speed>25.113474470889127</speed>
  <fix>3d</fix>
</trkpt>
<trkpt lat="-27.2745678" lon="151.2907581">
  <ele>372.15</ele>
  <time>2026-09-01T19:56:16Z</time>
  <course>14.23</course>
  <speed>25.06</speed>
  <fix>3d</fix>
</trkpt>
<trkpt lat="-27.2745232" lon="151.2907691">
  <ele>371.9</ele>
  <time>2026-09-01T19:56:16Z</time>
  <course>12.09</course>
  <speed>25.12822317634098</speed>
  <fix>3d</fix>
</trkpt>
<trkpt lat="-27.2745678" lon="151.2907581">
  <ele>372.15</ele>
  <time>2026-09-01T19:56:16Z</time>
  <course>14.23</course>
  <speed>25.06</speed>
  <fix>3d</fix>
</trkpt>
<trkpt lat="-27.2745007" lon="151.2907731">
  <ele>371.87</ele>
  <time>2026-09-01T19:56:16Z</time>
  <course>9.89</course>
  <speed>25.153294018875542</speed>
  <fix>3d</fix>
</trkpt>
<trkpt lat="-27.2745238" lon="151.2907687">
  <ele>372.09</ele>
  <time>2026-09-01T19:56:16Z</time>
  <course>10.06</course>
  <speed>25.09</speed>
  <fix>3d</fix>
</trkpt>
<trkpt lat="-27.2744782" lon="151.2907761">
  <ele>371.84</ele>
  <time>2026-09-01T19:56:16Z</time>
  <course>7.78</course>
  <speed>25.160574317769456</speed>
  <fix>3d</fix>
</trkpt>
<trkpt lat="-27.2745238" lon="151.2907687">
  <ele>372.09</ele>
  <time>2026-09-01T19:56:16Z</time>
  <course>10.06</course>
  <speed>25.09</speed>
  <fix>3d</fix>
</trkpt>
<trkpt lat="-27.2744556" lon="151.2907782">
  <ele>371.81</ele>
  <time>2026-09-01T19:56:16Z</time>
  <course>5.69</course>
  <speed>25.182807627427092</speed>
  <fix>3d</fix>
</trkpt>
<trkpt lat="-27.2744791" lon="151.2907758">
  <ele>372.03</ele>
  <time>2026-09-01T19:56:16Z</time>
  <course>5.85</course>
  <speed>25.11</speed>
  <fix>3d</fix>
</trkpt>
<trkpt lat="-27.274433" lon="151.2907794">
  <ele>371.79</ele>
  <time>2026-09-01T19:56:16Z</time>
  <course>3.57</course>
  <speed>25.189728065225317</speed>
  <fix>3d</fix>
</trkpt>
<trkpt lat="-27.2744791" lon="151.2907758">
  <ele>372.03</ele>
  <time>2026-09-01T19:56:16Z</time>
  <course>5.85</course>
  <speed>25.11</speed>
  <fix>3d</fix>
</trkpt>
<trkpt lat="-27.2744103" lon="151.2907796">
  <ele>371.77</ele>
  <time>2026-09-01T19:56:16Z</time>
  <course>1.51</course>
  <speed>25.210874637743135</speed>
  <fix>3d</fix>
</trkpt>
<trkpt lat="-27.274434" lon="151.2907791">
  <ele>371.97</ele>
  <time>2026-09-01T19:56:16Z</time>
  <course>1.61</course>
  <speed>25.14</speed>
  <fix>3d</fix>
</trkpt>
<trkpt lat="-27.2743878" lon="151.2907789">
  <ele>371.76</ele>
  <time>2026-09-01T19:56:16Z</time>
  <course>359.42</course>
  <speed>25.215782756043883</speed>
  <fix>3d</fix>
</trkpt>
<trkpt lat="-27.274434" lon="151.2907791">
  <ele>371.97</ele>
  <time>2026-09-01T19:56:16Z</time>
  <course>1.61</course>
  <speed>25.14</speed>
  <fix>3d</fix>
</trkpt>
<trkpt lat="-27.2743651" lon="151.2907772">
  <ele>371.75</ele>
  <time>2026-09-01T19:56:16Z</time>
  <course>357.28</course>
  <speed>25.225899389318116</speed>
  <fix>3d</fix>
</trkpt>
<trkpt lat="-27.2743887" lon="151.2907786">
  <ele>371.94</ele>
  <time>2026-09-01T19:56:16Z</time>
  <course>357.38</course>
  <speed>25.16</speed>
  <fix>3d</fix>
</trkpt>
<trkpt lat="-27.2743429" lon="151.2907746">
  <ele>371.74</ele>
  <time>2026-09-01T19:56:16Z</time>
  <course>355.16</course>
  <speed>25.21907214788046</speed>
  <fix>3d</fix>
</trkpt>
<trkpt lat="-27.2743887" lon="151.2907786">
  <ele>371.94</ele>
  <time>2026-09-01T19:56:16Z</time>
  <course>357.38</course>
  <speed>25.16</speed>
  <fix>3d</fix>
</trkpt>
<trkpt lat="-27.2743207" lon="151.2907712">
  <ele>371.74</ele>
  <time>2026-09-01T19:56:16Z</time>
  <course>353.03</course>
  <speed>25.216552103727427</speed>
  <fix>3d</fix>
</trkpt>
<trkpt lat="-27.2743437" lon="151.2907745">
  <ele>371.91</ele>
  <time>2026-09-01T19:56:16Z</time>
  <course>353.16</course>
  <speed>25.18</speed>
  <fix>3d</fix>
</trkpt>
<trkpt lat="-27.2742986" lon="151.2907668">
  <ele>371.74</ele>
  <time>2026-09-01T19:56:16Z</time>
  <course>350.91</course>
  <speed>25.20707242025539</speed>
  <fix>3d</fix>
</trkpt>
<trkpt lat="-27.2743437" lon="151.2907745">
  <ele>371.91</ele>
  <time>2026-09-01T19:56:16Z</time>
  <course>353.16</course>
  <speed>25.18</speed>
  <fix>3d</fix>
</trkpt>
<trkpt lat="-27.2742767" lon="151.2907615">
  <ele>371.74</ele>
  <time>2026-09-01T19:56:16Z</time>
  <course>348.76</course>
  <speed>25.20464441328225</speed>
  <fix>3d</fix>
</trkpt>
<trkpt lat="-27.274299" lon="151.2907665">
  <ele>371.88</ele>
  <time>2026-09-01T19:56:16Z</time>
  <course>348.93</course>
  <speed>25.2</speed>
  <fix>3d</fix>
</trkpt>
<trkpt lat="-27.2742549" lon="151.2907552">
  <ele>371.73</ele>
  <time>2026-09-01T19:56:16Z</time>
  <course>346.67</course>
  <speed>25.20314662894298</speed>
  <fix>3d</fix>
</trkpt>
<trkpt lat="-27.274299" lon="151.2907665">
  <ele>371.88</ele>
  <time>2026-09-01T19:56:16Z</time>
  <course>348.93</course>
  <speed>25.2</speed>
  <fix>3d</fix>
</trkpt>
<trkpt lat="-27.2742333" lon="151.2907481">
  <ele>371.73</ele>
  <time>2026-09-01T19:56:16Z</time>
  <course>344.54</course>
  <speed>25.20724102316634</speed>
  <fix>3d</fix>
</trkpt>
<trkpt lat="-27.2742549" lon="151.290755">
  <ele>371.86</ele>
  <time>2026-09-01T19:56:16Z</time>
  <course>344.7</course>
  <speed>25.22</speed>
  <fix>3d</fix>
</trkpt>
<trkpt lat="-27.2742119" lon="151.29074">
  <ele>371.73</ele>
  <time>2026-09-01T19:56:16Z</time>
  <course>342.4</course>
  <speed>25.22392713278406</speed>
  <fix>3d</fix>
</trkpt>
<trkpt lat="-27.2742549" lon="151.290755">
  <ele>371.86</ele>
  <time>2026-09-01T19:56:16Z</time>
  <course>344.7</course>
  <speed>25.22</speed>
  <fix>3d</fix>
</trkpt>
<trkpt lat="-27.2741907" lon="151.290731">
  <ele>371.73</ele>
  <time>2026-09-01T19:56:16Z</time>
  <course>340.28</course>
  <speed>25.22490832490774</speed>
  <fix>3d</fix>
</trkpt>
<trkpt lat="-27.2742117" lon="151.2907397">
  <ele>371.85</ele>
  <time>2026-09-01T19:56:16Z</time>
  <course>340.45</course>
  <speed>25.23</speed>
  <fix>3d</fix>
</trkpt>
<trkpt lat="-27.2741699" lon="151.2907212">
  <ele>371.73</ele>
  <time>2026-09-01T19:56:16Z</time>
  <course>338.21</course>
  <speed>25.22939753541491</speed>
  <fix>3d</fix>
</trkpt>
<trkpt lat="-27.2742117" lon="151.2907397">
  <ele>371.85</ele>
  <time>2026-09-01T19:56:16Z</time>
  <course>340.45</course>
  <speed>25.23</speed>
  <fix>3d</fix>
</trkpt>
<trkpt lat="-27.2741494" lon="151.2907105">
  <ele>371.74</ele>
  <time>2026-09-01T19:56:16Z</time>
  <course>336.14</course>
  <speed>25.23788620308761</speed>
  <fix>3d</fix>
</trkpt>
<trkpt lat="-27.2741696" lon="151.2907209">
  <ele>371.84</ele>
  <time>2026-09-01T19:56:16Z</time>
  <course>336.22</course>
  <speed>25.25</speed>
  <fix>3d</fix>
</trkpt>
<trkpt lat="-27.2741294" lon="151.290699">
  <ele>371.74</ele>
  <time>2026-09-01T19:56:17Z</time>
  <course>334.0</course>
  <speed>25.244139914047377</speed>
  <fix>3d</fix>
</trkpt>
<trkpt lat="-27.2741696" lon="151.2907209">
  <ele>371.84</ele>
  <time>2026-09-01T19:56:17Z</time>
  <course>336.22</course>
  <speed>25.25</speed>
  <fix>3d</fix>
</trkpt>
<trkpt lat="-27.2741096" lon="151.2906866">
  <ele>371.74</ele>
  <time>2026-09-01T19:56:17Z</time>
  <course>331.86</course>
  <speed>25.249049487059906</speed>
  <fix>3d</fix>
</trkpt>
<trkpt lat="-27.2741287" lon="151.2906985">
  <ele>371.84</ele>
  <time>2026-09-01T19:56:17Z</time>
  <course>332.0</course>
  <speed>25.27</speed>
  <fix>3d</fix>
</trkpt>
<trkpt lat="-27.2740902" lon="151.2906734">
  <ele>371.75</ele>
  <time>2026-09-01T19:56:17Z</time>
  <course>329.7</course>
  <speed>25.257870060636545</speed>
  <fix>3d</fix>
</trkpt>
<trkpt lat="-27.2741287" lon="151.2906985">
  <ele>371.84</ele>
  <time>2026-09-01T19:56:17Z</time>
  <course>332.0</course>
  <speed>25.27</speed>
  <fix>3d</fix>
</trkpt>
<trkpt lat="-27.2740713" lon="151.2906594">
  <ele>371.75</ele>
  <time>2026-09-01T19:56:17Z</time>
  <course>327.65</course>
  <speed>25.262662171671455</speed>
  <fix>3d</fix>
</trkpt>
<trkpt lat="-27.2740895" lon="151.2906729">
  <ele>371.84</ele>
  <time>2026-09-01T19:56:17Z</time>
  <course>327.77</course>
  <speed>25.28</speed>
  <fix>3d</fix>
</trkpt>
<trkpt lat="-27.2740526" lon="151.2906445">
  <ele>371.76</ele>
  <time>2026-09-01T19:56:17Z</time>
  <course>325.6</course>
  <speed>25.270714275619515</speed>
  <fix>3d</fix>
</trkpt>
<trkpt lat="-27.2740895" lon="151.2906729">
  <ele>371.84</ele>
  <time>2026-09-01T19:56:17Z</time>
  <course>327.77</course>
  <speed>25.28</speed>
  <fix>3d</fix>
</trkpt>
<trkpt lat="-27.2740346" lon="151.290629">
  <ele>371.76</ele>
  <time>2026-09-01T19:56:17Z</time>
  <course>323.47</course>
  <speed>25.278370200628046</speed>
  <fix>3d</fix>
</trkpt>
<trkpt lat="-27.274052" lon="151.2906441">
  <ele>371.84</ele>
  <time>2026-09-01T19:56:17Z</time>
  <course>323.58</course>
  <speed>25.3</speed>
  <fix>3d</fix>
</trkpt>
<trkpt lat="-27.2740171" lon="151.2906127">
  <ele>371.76</ele>
  <time>2026-09-01T19:56:17Z</time>
  <course>321.31</course>
  <speed>25.28216169555127</speed>
  <fix>3d</fix>
</trkpt>
<trkpt lat="-27.274052" lon="151.2906441">
  <ele>371.84</ele>
  <time>2026-09-01T19:56:17Z</time>
  <course>323.58</course>
  <speed>25.3</speed>
  <fix>3d</fix>
</trkpt>
<trkpt lat="-27.2740001" lon="151.2905957">
  <ele>371.76</ele>
  <time>2026-09-01T19:56:17Z</time>
  <course>319.22</course>
  <speed>25.298721311560392</speed>
  <fix>3d</fix>
</trkpt>
<trkpt lat="-27.2740164" lon="151.2906122">
  <ele>371.84</ele>
  <time>2026-09-01T19:56:17Z</time>
  <course>319.39</course>
  <speed>25.31</speed>
  <fix>3d</fix>
</trkpt>
<trkpt lat="-27.2739838" lon="151.2905782">
  <ele>371.77</ele>
  <time>2026-09-01T19:56:17Z</time>
  <course>317.08</course>
  <speed>25.2932896239299</speed>
  <fix>3d</fix>
</trkpt>
<trkpt lat="-27.2740164" lon="151.2906122">
  <ele>371.84</ele>
  <time>2026-09-01T19:56:17Z</time>
  <course>319.39</course>
  <speed>25.31</speed>
  <fix>3d</fix>
</trkpt>
<trkpt lat="-27.2739681" lon="151.2905599">
  <ele>371.77</ele>
  <time>2026-09-01T19:56:17Z</time>
  <course>314.93</course>
  <speed>25.2950133425543</speed>
  <fix>3d</fix>
</trkpt>
<trkpt lat="-27.2739829" lon="151.2905774">
  <ele>371.84</ele>
  <time>2026-09-01T19:56:17Z</time>
  <course>315.13</course>
  <speed>25.33</speed>
  <fix>3d</fix>
</trkpt>
<trkpt lat="-27.273953" lon="151.290541">
  <ele>371.78</ele>
  <time>2026-09-01T19:56:17Z</time>
  <course>312.83</course>
  <speed>25.29646615636263</speed>
  <fix>3d</fix>
</trkpt>
<trkpt lat="-27.2739829" lon="151.2905774">
  <ele>371.84</ele>
  <time>2026-09-01T19:56:17Z</time>
  <course>315.13</course>
  <speed>25.33</speed>
  <fix>3d</fix>
</trkpt>
<trkpt lat="-27.2739385" lon="151.2905216">
  <ele>371.79</ele>
  <time>2026-09-01T19:56:17Z</time>
  <course>310.7</course>
  <speed>25.289232886744507</speed>
  <fix>3d</fix>
</trkpt>
<trkpt lat="-27.2739519" lon="151.29054">
  <ele>371.84</ele>
  <time>2026-09-01T19:56:17Z</time>
  <course>310.85</course>
  <speed>25.34</speed>
  <fix>3d</fix>
</trkpt>
<trkpt lat="-27.2739247" lon="151.2905015">
  <ele>371.8</ele>
  <time>2026-09-01T19:56:17Z</time>
  <course>308.55</course>
  <speed>25.282304088037545</speed>
  <fix>3d</fix>
</trkpt>
<trkpt lat="-27.2739519" lon="151.29054">
  <ele>371.84</ele>
  <time>2026-09-01T19:56:17Z</time>
  <course>310.85</course>
  <speed>25.34</speed>
  <fix>3d</fix>
</trkpt>
<trkpt lat="-27.2739116" lon="151.2904809">
  <ele>371.81</ele>
  <time>2026-09-01T19:56:17Z</time>
  <course>306.44</course>
  <speed>25.280065268903087</speed>
  <fix>3d</fix>
</trkpt>
<trkpt lat="-27.2739234" lon="151.2905">
  <ele>371.84</ele>
  <time>2026-09-01T19:56:17Z</time>
  <course>306.59</course>
  <speed>25.35</speed>
  <fix>3d</fix>
</trkpt>
<trkpt lat="-27.2738991" lon="151.2904597">
  <ele>371.81</ele>
  <time>2026-09-01T19:56:17Z</time>
  <course>304.27</course>
  <speed>25.284590168717386</speed>
  <fix>3d</fix>
</trkpt>
<trkpt lat="-27.2739234" lon="151.2905">
  <ele>371.84</ele>
  <time>2026-09-01T19:56:17Z</time>
  <course>306.59</course>
  <speed>25.35</speed>
  <fix>3d</fix>
</trkpt>
<trkpt lat="-27.2738874" lon="151.290438">
  <ele>371.82</ele>
  <time>2026-09-01T19:56:17Z</time>
  <course>302.19</course>
  <speed>25.279210826289656</speed>
  <fix>3d</fix>
</trkpt>
<trkpt lat="-27.2738977" lon="151.2904578">
  <ele>371.85</ele>
  <time>2026-09-01T19:56:17Z</time>
  <course>302.33</course>
  <speed>25.36</speed>
  <fix>3d</fix>
</trkpt>
<trkpt lat="-27.2738763" lon="151.2904159">
  <ele>371.83</ele>
  <time>2026-09-01T19:56:17Z</time>
  <course>300.13</course>
  <speed>25.28179186687526</speed>
  <fix>3d</fix>
</trkpt>
<trkpt lat="-27.2738977" lon="151.2904578">
  <ele>371.85</ele>
  <time>2026-09-01T19:56:17Z</time>
  <course>302.33</course>
  <speed>25.36</speed>
  <fix>3d</fix>
</trkpt>
<trkpt lat="-27.2738659" lon="151.290393">
  <ele>371.84</ele>
  <time>2026-09-01T19:56:17Z</time>
  <course>297.98</course>
  <speed>25.286526056380303</speed>
  <fix>3d</fix>
</trkpt>
<trkpt lat="-27.2738747" lon="151.2904135">
  <ele>371.86</ele>
  <time>2026-09-01T19:56:17Z</time>
  <course>298.12</course>
  <speed>25.37</speed>
  <fix>3d</fix>
</trkpt>
<trkpt lat="-27.2738563" lon="151.29037">
  <ele>371.85</ele>
  <time>2026-09-01T19:56:17Z</time>
  <course>295.92</course>
  <speed>25.285167588924537</speed>
  <fix>3d</fix>
</trkpt>
<trkpt lat="-27.2738747" lon="151.2904135">
  <ele>371.86</ele>
  <time>2026-09-01T19:56:17Z</time>
  <course>298.12</course>
  <speed>25.37</speed>
  <fix>3d</fix>
</trkpt>
<trkpt lat="-27.2738474" lon="151.2903465">
  <ele>371.86</ele>
  <time>2026-09-01T19:56:17Z</time>
  <course>293.88</course>
  <speed>25.28614244996654</speed>
  <fix>3d</fix>
</trkpt>
<trkpt lat="-27.2738547" lon="151.2903674">
  <ele>371.86</ele>
  <time>2026-09-01T19:56:17Z</time>
  <course>293.93</course>
  <speed>25.38</speed>
  <fix>3d</fix>
</trkpt>
<trkpt lat="-27.2738392" lon="151.2903226">
  <ele>371.85</ele>
  <time>2026-09-01T19:56:17Z</time>
  <course>291.78</course>
  <speed>25.295946315566056</speed>
  <fix>3d</fix>
</trkpt>
<trkpt lat="-27.2738547" lon="151.2903674">
  <ele>371.86</ele>
  <time>2026-09-01T19:56:17Z</time>
  <course>293.93</course>
  <speed>25.38</speed>
  <fix>3d</fix>
</trkpt>
<trkpt lat="-27.2738319" lon="151.2902985">
  <ele>371.85</ele>
  <time>2026-09-01T19:56:17Z</time>
  <course>289.69</course>
  <speed>25.300197627686625</speed>
  <fix>3d</fix>
</trkpt>
<trkpt lat="-27.2738378" lon="151.2903198">
  <ele>371.86</ele>
  <time>2026-09-01T19:56:17Z</time>
  <course>289.75</course>
  <speed>25.39</speed>
  <fix>3d</fix>
</trkpt>
<trkpt lat="-27.2738253" lon="151.2902739">
  <ele>371.85</ele>
  <time>2026-09-01T19:56:17Z</time>
  <course>287.6</course>
  <speed>25.303616342333363</speed>
  <fix>3d</fix>
</trkpt>
<trkpt lat="-27.2738378" lon="151.2903198">
  <ele>371.86</ele>
  <time>2026-09-01T19:56:17Z</time>
  <course>289.75</course>
  <speed>25.39</speed>
  <fix>3d</fix>
</trkpt>
<trkpt lat="-27.2738196" lon="151.2902492">
  <ele>371.86</ele>
  <time>2026-09-01T19:56:17Z</time>
  <course>285.4</course>
  <speed>25.31940955077744</speed>
  <fix>3d</fix>
</trkpt>
<trkpt lat="-27.273824" lon="151.2902709">
  <ele>371.86</ele>
  <time>2026-09-01T19:56:17Z</time>
  <course>285.56</course>
  <speed>25.4</speed>
  <fix>3d</fix>
</trkpt>
<trkpt lat="-27.2738146" lon="151.2902242">
  <ele>371.86</ele>
  <time>2026-09-01T19:56:17Z</time>
  <course>283.14</course>
  <speed>25.33428506984162</speed>
  <fix>3d</fix>
</trkpt>
<trkpt lat="-27.273824" lon="151.2902709">
  <ele>371.86</ele>
  <time>2026-09-01T19:56:17Z</time>
  <course>285.56</course>
  <speed>25.4</speed>
  <fix>3d</fix>
</trkpt>
<trkpt lat="-27.2738104" lon="151.2901988">
  <ele>371.86</ele>
  <time>2026-09-01T19:56:17Z</time>
  <course>280.76</course>
  <speed>25.34918144635049</speed>
  <fix>3d</fix>
</trkpt>
<trkpt lat="-27.2738134" lon="151.2902209">
  <ele>371.86</ele>
  <time>2026-09-01T19:56:17Z</time>
  <course>281.26</course>
  <speed>25.41</speed>
  <fix>3d</fix>
</trkpt>
<trkpt lat="-27.2738072" lon="151.2901734">
  <ele>371.86</ele>
  <time>2026-09-01T19:56:17Z</time>
  <course>278.2</course>
  <speed>25.373245752169748</speed>
  <fix>3d</fix>
</trkpt>
<trkpt lat="-27.2738134" lon="151.2902209">
  <ele>371.86</ele>
  <time>2026-09-01T19:56:17Z</time>
  <course>281.26</course>
  <speed>25.41</speed>
  <fix>3d</fix>
</trkpt>
<trkpt lat="-27.273805" lon="151.2901478">
  <ele>371.86</ele>
  <time>2026-09-01T19:56:17Z</time>
  <course>275.5</course>
  <speed>25.40456061418894</speed>
  <fix>3d</fix>
</trkpt>
<trkpt lat="-27.2738062" lon="151.2901702">
  <ele>371.85</ele>
  <time>2026-09-01T19:56:17Z</time>
  <course>276.57</course>
  <speed>25.45</speed>
  <fix>3d</fix>
</trkpt>
<trkpt lat="-27.2738039" lon="151.2901221">
  <ele>371.85</ele>
  <time>2026-09-01T19:56:17Z</time>
  <course>272.57</course>
  <speed>25.456160354617506</speed>
  <fix>3d</fix>
</trkpt>
<trkpt lat="-27.2738062" lon="151.2901702">
  <ele>371.85</ele>
  <time>2026-09-01T19:56:17Z</time>
  <course>276.57</course>
  <speed>25.45</speed>
  <fix>3d</fix>
</trkpt>
<trkpt lat="-27.2738039" lon="151.2900964">
  <ele>371.84</ele>
  <time>2026-09-01T19:56:17Z</time>
  <course>269.35</course>
  <speed>25.512234320027716</speed>
  <fix>3d</fix>
</trkpt>
<trkpt lat="-27.2738031" lon="151.2901187">
  <ele>371.83</ele>
  <time>2026-09-01T19:56:17Z</time>
  <course>271.11</course>
  <speed>25.52</speed>
  <fix>3d</fix>
</trkpt>
<trkpt lat="-27.2738052" lon="151.2900704">
  <ele>371.83</ele>
  <time>2026-09-01T19:56:17Z</time>
  <course>265.91</course>
  <speed>25.591766254012246</speed>
  <fix>3d</fix>
</trkpt>
<trkpt lat="-27.2738031" lon="151.2901187">
  <ele>371.83</ele>
  <time>2026-09-01T19:56:17Z</time>
  <course>271.11</course>
  <speed>25.52</speed>
  <fix>3d</fix>
</trkpt>
<trkpt lat="-27.2738079" lon="151.2900446">
  <ele>371.84</ele>
  <time>2026-09-01T19:56:17Z</time>
  <course>262.36</course>
  <speed>25.671852290008214</speed>
  <fix>3d</fix>
</trkpt>
<trkpt lat="-27.2738047" lon="151.290067">
  <ele>371.82</ele>
  <time>2026-09-01T19:56:17Z</time>
  <course>264.73</course>
  <speed>25.63</speed>
  <fix>3d</fix>
</trkpt>
<trkpt lat="-27.2738121" lon="151.2900188">
  <ele>371.86</ele>
  <time>2026-09-01T19:56:17Z</time>
  <course>258.72</course>
  <speed>25.749873786098448</speed>
  <fix>3d</fix>
</trkpt>
<trkpt lat="-27.2738047" lon="151.290067">
  <ele>371.82</ele>
  <time>2026-09-01T19:56:17Z</time>
  <course>264.73</course>
  <speed>25.63</speed>
  <fix>3d</fix>
</trkpt>
<trkpt lat="-27.2738177" lon="151.2899933">
  <ele>371.89</ele>
  <time>2026-09-01T19:56:17Z</time>
  <course>255.04</course>
  <speed>25.818297775027695</speed>
  <fix>3d</fix>
</trkpt>
<trkpt lat="-27.2738117" lon="151.2900158">
  <ele>371.85</ele>
  <time>2026-09-01T19:56:17Z</time>
  <course>257.65</course>
  <speed>25.77</speed>
  <fix>3d</fix>
</trkpt>
<trkpt lat="-27.2738247" lon="151.2899684">
  <ele>371.94</ele>
  <time>2026-09-01T19:56:17Z</time>
  <course>251.33</course>
  <speed>25.883108391381434</speed>
  <fix>3d</fix>
</trkpt>
<trkpt lat="-27.2738117" lon="151.2900158">
  <ele>371.85</ele>
  <time>2026-09-01T19:56:17Z</time>
  <course>257.65</course>
  <speed>25.77</speed>
  <fix>3d</fix>
</trkpt>
<trkpt lat="-27.2738331" lon="151.2899439">
  <ele>372.01</ele>
  <time>2026-09-01T19:56:17Z</time>
  <course>247.71</course>
  <speed>25.91606644535393</speed>
  <fix>3d</fix>
</trkpt>
<trkpt lat="-27.2738245" lon="151.2899656">
  <ele>371.94</ele>
  <time>2026-09-01T19:56:17Z</time>
  <course>250.29</course>
  <speed>25.88</speed>
  <fix>3d</fix>
</trkpt>
<trkpt lat="-27.273843" lon="151.28992">
  <ele>372.09</ele>
  <time>2026-09-01T19:56:17Z</time>
  <course>244.13</course>
  <speed>25.966072094177047</speed>
  <fix>3d</fix>
</trkpt>
<trkpt lat="-27.2738245" lon="151.2899656">
  <ele>371.94</ele>
  <time>2026-09-01T19:56:17Z</time>
  <course>250.29</course>
  <speed>25.88</speed>
  <fix>3d</fix>
</trkpt>
<trkpt lat="-27.2738543" lon="151.2898969">
  <ele>372.2</ele>
  <time>2026-09-01T19:56:17Z</time>
  <course>240.57</course>
  <speed>25.989417076956535</speed>
  <fix>3d</fix>
</trkpt>
<trkpt lat="-27.273843" lon="151.2899176">
  <ele>372.09</ele>
  <time>2026-09-01T19:56:17Z</time>
  <course>242.97</course>
  <speed>25.96</speed>
  <fix>3d</fix>
</trkpt>
<trkpt lat="-27.2738667" lon="151.2898745">
  <ele>372.31</ele>
  <time>2026-09-01T19:56:17Z</time>
  <course>237.07</course>
  <speed>26.002255671383587</speed>
  <fix>3d</fix>
</trkpt>
<trkpt lat="-27.273843" lon="151.2899176">
  <ele>372.09</ele>
  <time>2026-09-01T19:56:17Z</time>
  <course>242.97</course>
  <speed>25.96</speed>
  <fix>3d</fix>
</trkpt>
<trkpt lat="-27.2738803" lon="151.2898532">
  <ele>372.43</ele>
  <time>2026-09-01T19:56:17Z</time>
  <course>233.64</course>
  <speed>26.012093341367205</speed>
  <fix>3d</fix>
</trkpt>
<trkpt lat="-27.2738667" lon="151.2898724">
  <ele>372.31</ele>
  <time>2026-09-01T19:56:17Z</time>
  <course>235.84</course>
  <speed>26.0</speed>
  <fix>3d</fix>
</trkpt>
<trkpt lat="-27.273895" lon="151.2898328">
  <ele>372.57</ele>
  <time>2026-09-01T19:56:17Z</time>
  <course>230.29</course>
  <speed>26.01387706590465</speed>
  <fix>3d</fix>
</trkpt>
<trkpt lat="-27.2738667" lon="151.2898724">
  <ele>372.31</ele>
  <time>2026-09-01T19:56:17Z</time>
  <course>235.84</course>
  <speed>26.0</speed>
  <fix>3d</fix>
</trkpt>
<trkpt lat="-27.2739107" lon="151.2898134">
  <ele>372.71</ele>
  <time>2026-09-01T19:56:17Z</time>
  <course>226.92</course>
  <speed>26.008775442146444</speed>
  <fix>3d</fix>
</trkpt>
<trkpt lat="-27.2738953" lon="151.2898308">
  <ele>372.56</ele>
  <time>2026-09-01T19:56:17Z</time>
  <course>228.92</course>
  <speed>26.01</speed>
  <fix>3d</fix>
</trkpt>
<trkpt lat="-27.2739274" lon="151.2897951">
  <ele>372.86</ele>
  <time>2026-09-01T19:56:17Z</time>
  <course>223.7</course>
  <speed>25.994095483397764</speed>
  <fix>3d</fix>
</trkpt>
<trkpt lat="-27.2738953" lon="151.2898308">
  <ele>372.56</ele>
  <time>2026-09-01T19:56:17Z</time>
  <course>228.92</course>
  <speed>26.01</speed>
  <fix>3d</fix>
</trkpt>
<trkpt lat="-27.2739451" lon="151.289778">
  <ele>373.02</ele>
  <time>2026-09-01T19:56:17Z</time>
  <course>220.44</course>
  <speed>25.97996535794457</speed>
  <fix>3d</fix>
</trkpt>
<trkpt lat="-27.273928" lon="151.2897933">
  <ele>372.85</ele>
  <time>2026-09-01T19:56:17Z</time>
  <course>222.19</course>
  <speed>26.01</speed>
  <fix>3d</fix>
</trkpt>
<trkpt lat="-27.2739635" lon="151.289762">
  <ele>373.18</ele>
  <time>2026-09-01T19:56:17Z</time>
  <course>217.3</course>
  <speed>25.95481650869449</speed>
  <fix>3d</fix>
</trkpt>
<trkpt lat="-27.273928" lon="151.2897933">
  <ele>372.85</ele>
  <time>2026-09-01T19:56:17Z</time>
  <course>222.19</course>
  <speed>26.01</speed>
  <fix>3d</fix>
</trkpt>
<trkpt lat="-27.2739827" lon="151.2897472">
  <ele>373.35</ele>
  <time>2026-09-01T19:56:17Z</time>
  <course>214.34</course>
  <speed>25.928150724646752</speed>
  <fix>3d</fix>
</trkpt>
<trkpt lat="-27.2739642" lon="151.2897604">
  <ele>373.15</ele>
  <time>2026-09-01T19:56:17Z</time>
  <course>215.7</course>
  <speed>25.98</speed>
  <fix>3d</fix>
</trkpt>
<trkpt lat="-27.2740027" lon="151.2897335">
  <ele>373.51</ele>
  <time>2026-09-01T19:56:17Z</time>
  <course>211.5</course>
  <speed>25.887303837982046</speed>
  <fix>3d</fix>
</trkpt>
<trkpt lat="-27.2739642" lon="151.2897604">
  <ele>373.15</ele>
  <time>2026-09-01T19:56:17Z</time>
  <course>215.7</course>
  <speed>25.98</speed>
  <fix>3d</fix>
</trkpt>
<trkpt lat="-27.2740231" lon="151.2897211">
  <ele>373.67</ele>
  <time>2026-09-01T19:56:17Z</time>
  <course>208.81</course>
  <speed>25.853814031976018</speed>
  <fix>3d</fix>
</trkpt>
<trkpt lat="-27.2740035" lon="151.2897321">
  <ele>373.46</ele>
  <time>2026-09-01T19:56:17Z</time>
  <course>209.62</course>
  <speed>25.93</speed>
  <fix>3d</fix>
</trkpt>
<trkpt lat="-27.274044" lon="151.2897097">
  <ele>373.82</ele>
  <time>2026-09-01T19:56:17Z</time>
  <course>206.2</course>
  <speed>25.808293240739495</speed>
  <fix>3d</fix>
</trkpt>
<trkpt lat="-27.2740035" lon="151.2897321">
  <ele>373.46</ele>
  <time>2026-09-01T19:56:17Z</time>
  <course>209.62</course>
  <speed>25.93</speed>
  <fix>3d</fix>
</trkpt>
<trkpt lat="-27.2740653" lon="151.2896995">
  <ele>373.97</ele>
  <time>2026-09-01T19:56:17Z</time>
  <course>203.76</course>
  <speed>25.756040068302426</speed>
  <fix>3d</fix>
</trkpt>
<trkpt lat="-27.2740451" lon="151.2897085">
  <ele>373.76</ele>
  <time>2026-09-01T19:56:17Z</time>
  <course>204.09</course>
  <speed>25.85</speed>
  <fix>3d</fix>
</trkpt>
<trkpt lat="-27.2740869" lon="151.2896904">
  <ele>374.11</ele>
  <time>2026-09-01T19:56:17Z</time>
  <course>201.44</course>
  <speed>25.702227529924325</speed>
  <fix>3d</fix>
</trkpt>
<trkpt lat="-27.2740451" lon="151.2897085">
  <ele>373.76</ele>
  <time>2026-09-01T19:56:17Z</time>
  <course>204.09</course>
  <speed>25.85</speed>
  <fix>3d</fix>
</trkpt>
<trkpt lat="-27.2741087" lon="151.2896823">
  <ele>374.23</ele>
  <time>2026-09-01T19:56:17Z</time>
  <course>199.2</course>
  <speed>25.64593730008712</speed>
  <fix>3d</fix>
</trkpt>
<trkpt lat="-27.2740883" lon="151.2896893">
  <ele>374.03</ele>
  <time>2026-09-01T19:56:17Z</time>
  <course>199.05</course>
  <speed>25.75</speed>
  <fix>3d</fix>
</trkpt>
<trkpt lat="-27.2741307" lon="151.2896753">
  <ele>374.35</ele>
  <time>2026-09-01T19:56:17Z</time>
  <course>196.91</course>
  <speed>25.58632642643332</speed>
  <fix>3d</fix>
</trkpt>
<trkpt lat="-27.2740883" lon="151.2896893">
  <ele>374.03</ele>
  <time>2026-09-01T19:56:17Z</time>
  <course>199.05</course>
  <speed>25.75</speed>
  <fix>3d</fix>
</trkpt>
<trkpt lat="-27.2741529" lon="151.2896692">
  <ele>374.46</ele>
  <time>2026-09-01T19:56:17Z</time>
  <course>194.5</course>
  <speed>25.516631831023464</speed>
  <fix>3d</fix>
</trkpt>
<trkpt lat="-27.2741325" lon="151.2896744">
  <ele>374.26</ele>
  <time>2026-09-01T19:56:17Z</time>
  <course>194.37</course>
  <speed>25.65</speed>
  <fix>3d</fix>
</trkpt>
<trkpt lat="-27.2741753" lon="151.2896642">
  <ele>374.55</ele>
  <time>2026-09-01T19:56:17Z</time>
  <course>191.99</course>
  <speed>25.461313791711536</speed>
  <fix>3d</fix>
</trkpt>
<trkpt lat="-27.2741325" lon="151.2896744">
  <ele>374.26</ele>
  <time>2026-09-01T19:56:17Z</time>
  <course>194.37</course>
  <speed>25.65</speed>
  <fix>3d</fix>
</trkpt>
<trkpt lat="-27.2741977" lon="151.2896603">
  <ele>374.64</ele>
  <time>2026-09-01T19:56:17Z</time>
  <course>189.41</course>
  <speed>25.403940639200055</speed>
  <fix>3d</fix>
</trkpt>
<trkpt lat="-27.2741775" lon="151.2896636">
  <ele>374.45</ele>
  <time>2026-09-01T19:56:17Z</time>
  <course>189.64</course>
  <speed>25.54</speed>
  <fix>3d</fix>
</trkpt>
<trkpt lat="-27.2742203" lon="151.2896576">
  <ele>374.72</ele>
  <time>2026-09-01T19:56:17Z</time>
  <course>186.77</course>
  <speed>25.361297285430805</speed>
  <fix>3d</fix>
</trkpt>
<trkpt lat="-27.2741775" lon="151.2896636">
  <ele>374.45</ele>
  <time>2026-09-01T19:56:17Z</time>
  <course>189.64</course>
  <speed>25.54</speed>
  <fix>3d</fix>
</trkpt>
<trkpt lat="-27.2742429" lon="151.289656">
  <ele>374.79</ele>
  <time>2026-09-01T19:56:17Z</time>
  <course>184.07</course>
  <speed>25.318973122936878</speed>
  <fix>3d</fix>
</trkpt>
<trkpt lat="-27.2742229" lon="151.2896572">
  <ele>374.6</ele>
  <time>2026-09-01T19:56:17Z</time>
  <course>184.59</course>
  <speed>25.45</speed>
  <fix>3d</fix>
</trkpt>
<trkpt lat="-27.2742656" lon="151.2896555">
  <ele>374.86</ele>
  <time>2026-09-01T19:56:17Z</time>
  <course>181.27</course>
  <speed>25.280957260357056</speed>
  <fix>3d</fix>
</trkpt>
<trkpt lat="-27.2742229" lon="151.2896572">
  <ele>374.6</ele>
  <time>2026-09-01T19:56:17Z</time>
  <course>184.59</course>
  <speed>25.45</speed>
  <fix>3d</fix>
</trkpt>
<trkpt lat="-27.2742882" lon="151.2896564">
  <ele>374.92</ele>
  <time>2026-09-01T19:56:17Z</time>
  <course>178.43</course>
  <speed>25.24110932585967</speed>
  <fix>3d</fix>
</trkpt>
<trkpt lat="-27.2742685" lon="151.2896554">
  <ele>374.73</ele>
  <time>2026-09-01T19:56:17Z</time>
  <course>179.22</course>
  <speed>25.37</speed>
  <fix>3d</fix>
</trkpt>
<trkpt lat="-27.2743109" lon="151.2896584">
  <ele>374.98</ele>
  <time>2026-09-01T19:56:17Z</time>
  <course>175.99</course>
  <speed>25.19762885669999</speed>
  <fix>3d</fix>
</trkpt>
<trkpt lat="-27.2742685" lon="151.2896554">
  <ele>374.73</ele>
  <time>2026-09-01T19:56:17Z</time>
  <course>179.22</course>
  <speed>25.37</speed>
  <fix>3d</fix>
</trkpt>
<trkpt lat="-27.2743334" lon="151.2896616">
  <ele>375.02</ele>
  <time>2026-09-01T19:56:17Z</time>
  <course>174.34</course>
  <speed>25.11787610447985</speed>
  <fix>3d</fix>
</trkpt>
<trkpt lat="-27.2743139" lon="151.2896585">
  <ele>374.84</ele>
  <time>2026-09-01T19:56:17Z</time>
  <course>173.99</course>
  <speed>25.28</speed>
  <fix>3d</fix>
</trkpt>
<trkpt lat="-27.2743558" lon="151.2896656">
  <ele>375.04</ele>
  <time>2026-09-01T19:56:17Z</time>
  <course>173.16</course>
  <speed>25.005543385417564</speed>
  <fix>3d</fix>
</trkpt>
<trkpt lat="-27.2743139" lon="151.2896585">
  <ele>374.84</ele>
  <time>2026-09-01T19:56:17Z</time>
  <course>173.99</course>
  <speed>25.28</speed>
  <fix>3d</fix>
</trkpt>
<trkpt lat="-27.2743779" lon="151.2896702">
  <ele>375.04</ele>
  <time>2026-09-01T19:56:17Z</time>
  <course>171.93</course>
  <speed>24.832434435632766</speed>
  <fix>3d</fix>
</trkpt>
<trkpt lat="-27.2743587" lon="151.2896657">
  <ele>374.9</ele>
  <time>2026-09-01T19:56:17Z</time>
  <course>170.06</course>
  <speed>25.08</speed>
  <fix>3d</fix>
</trkpt>
<trkpt lat="-27.2743998" lon="151.2896751">
  <ele>375.01</ele>
  <time>2026-09-01T19:56:17Z</time>
  <course>170.52</course>
  <speed>24.620629561406428</speed>
  <fix>3d</fix>
</trkpt>
<trkpt lat="-27.2743587" lon="151.2896657">
  <ele>374.9</ele>
  <time>2026-09-01T19:56:17Z</time>
  <course>170.06</course>
  <speed>25.08</speed>
  <fix>3d</fix>
</trkpt>
<trkpt lat="-27.2744214" lon="151.2896807">
  <ele>374.98</ele>
  <time>2026-09-01T19:56:17Z</time>
  <course>169.2</course>
  <speed>24.348983551680345</speed>
  <fix>3d</fix>
</trkpt>
<trkpt lat="-27.2744025" lon="151.2896756">
  <ele>374.88</ele>
  <time>2026-09-01T19:56:17Z</time>
  <course>167.37</course>
  <speed>24.68</speed>
  <fix>3d</fix>
</trkpt>
<trkpt lat="-27.2744425" lon="151.2896866">
  <ele>374.97</ele>
  <time>2026-09-01T19:56:17Z</time>
  <course>168.2</course>
  <speed>24.03608329158476</speed>
  <fix>3d</fix>
</trkpt>
<trkpt lat="-27.2744025" lon="151.2896756">
  <ele>374.88</ele>
  <time>2026-09-01T19:56:17Z</time>
  <course>167.37</course>
  <speed>24.68</speed>
  <fix>3d</fix>
</trkpt>
<trkpt lat="-27.2744634" lon="151.2896928">
  <ele>374.96</ele>
  <time>2026-09-01T19:56:17Z</time>
  <course>167.51</course>
  <speed>23.7025420577625</speed>
  <fix>3d</fix>
</trkpt>
<trkpt lat="-27.2744451" lon="151.2896873">
  <ele>374.85</ele>
  <time>2026-09-01T19:56:17Z</time>
  <course>165.3</course>
  <speed>24.1</speed>
  <fix>3d</fix>
</trkpt>
<trkpt lat="-27.2744839" lon="151.2896992">
  <ele>374.97</ele>
  <time>2026-09-01T19:56:17Z</time>
  <course>167.11</course>
  <speed>23.366921063760195</speed>
  <fix>3d</fix>
</trkpt>
<trkpt lat="-27.2744451" lon="151.2896873">
  <ele>374.85</ele>
  <time>2026-09-01T19:56:17Z</time>
  <course>165.3</course>
  <speed>24.1</speed>
  <fix>3d</fix>
</trkpt>
<trkpt lat="-27.2745041" lon="151.2897056">
  <ele>374.99</ele>
  <time>2026-09-01T19:56:17Z</time>
  <course>166.88</course>
  <speed>23.03957030849317</speed>
  <fix>3d</fix>
</trkpt>
<trkpt lat="-27.2744451" lon="151.2896873">
  <ele>374.85</ele>
  <time>2026-09-01T19:56:17Z</time>
  <course>165.3</course>
  <speed>24.1</speed>
  <fix>3d</fix>
</trkpt>
<trkpt lat="-27.2745238" lon="151.2897119">
  <ele>375.03</ele>
  <time>2026-09-01T19:56:17Z</time>
  <course>166.73</course>
  <speed>22.702986587671674</speed>
  <fix>3d</fix>
</trkpt>
<trkpt lat="-27.2744864" lon="151.2897">
  <ele>374.87</ele>
  <time>2026-09-01T19:56:17Z</time>
  <course>164.15</course>
  <speed>23.43</speed>
  <fix>3d</fix>
</trkpt>
<trkpt lat="-27.2745434" lon="151.2897182">
  <ele>375.09</ele>
  <time>2026-09-01T19:56:17Z</time>
  <course>166.6</course>
  <speed>22.358222201239524</speed>
  <fix>3d</fix>
</trkpt>
<trkpt lat="-27.2744864" lon="151.2897">
  <ele>374.87</ele>
  <time>2026-09-01T19:56:17Z</time>
  <course>164.15</course>
  <speed>23.43</speed>
  <fix>3d</fix>
</trkpt>
<trkpt lat="-27.2745626" lon="151.2897243">
  <ele>375.16</ele>
  <time>2026-09-01T19:56:17Z</time>
  <course>166.46</course>
  <speed>22.01492675436373</speed>
  <fix>3d</fix>
</trkpt>
<trkpt lat="-27.2745263" lon="151.289713">
  <ele>374.94</ele>
  <time>2026-09-01T19:56:17Z</time>
  <course>163.78</course>
  <speed>22.75</speed>
  <fix>3d</fix>
</trkpt>
<trkpt lat="-27.2745813" lon="151.2897303">
  <ele>375.25</ele>
  <time>2026-09-01T19:56:17Z</time>
  <course>166.3</course>
  <speed>21.678636949771544</speed>
  <fix>3d</fix>
</trkpt>
<trkpt lat="-27.2745649" lon="151.2897256">
  <ele>375.07</ele>
  <time>2026-09-01T19:56:17Z</time>
  <course>163.87</course>
  <speed>22.07</speed>
  <fix>3d</fix>
</trkpt>
<trkpt lat="-27.2746" lon="151.2897362">
  <ele>375.34</ele>
  <time>2026-09-01T19:56:17Z</time>
  <course>166.16</course>
  <speed>21.34246939789302</speed>
  <fix>3d</fix>
</trkpt>
<trkpt lat="-27.2745649" lon="151.2897256">
  <ele>375.07</ele>
  <time>2026-09-01T19:56:17Z</time>
  <course>163.87</course>
  <speed>22.07</speed>
  <fix>3d</fix>
</trkpt>
<trkpt lat="-27.2746183" lon="151.289742">
  <ele>375.46</ele>
  <time>2026-09-01T19:56:17Z</time>
  <course>166.03</course>
  <speed>21.006429967988375</speed>
  <fix>3d</fix>
</trkpt>
<trkpt lat="-27.2746025" lon="151.2897377">
  <ele>375.26</ele>
  <time>2026-09-01T19:56:17Z</time>
  <course>164.12</course>
  <speed>21.39</speed>
  <fix>3d</fix>
</trkpt>
<trkpt lat="-27.2746364" lon="151.2897476">
  <ele>375.59</ele>
  <time>2026-09-01T19:56:17Z</time>
  <course>165.9</course>
  <speed>20.675768425865094</speed>
  <fix>3d</fix>
</trkpt>
<trkpt lat="-27.2746025" lon="151.2897377">
  <ele>375.26</ele>
  <time>2026-09-01T19:56:17Z</time>
  <course>164.12</course>
  <speed>21.39</speed>
  <fix>3d</fix>
</trkpt>
<trkpt lat="-27.2746542" lon="151.2897531">
  <ele>375.73</ele>
  <time>2026-09-01T19:56:17Z</time>
  <course>165.78</course>
  <speed>20.342556378193965</speed>
  <fix>3d</fix>
</trkpt>
<trkpt lat="-27.2746389" lon="151.2897492">
  <ele>375.51</ele>
  <time>2026-09-01T19:56:17Z</time>
  <course>164.39</course>
  <speed>20.71</speed>
  <fix>3d</fix>
</trkpt>
<trkpt lat="-27.2746719" lon="151.2897586">
  <ele>375.87</ele>
  <time>2026-09-01T19:56:17Z</time>
  <course>165.68</course>
  <speed>20.024277764753464</speed>
  <fix>3d</fix>
</trkpt>
<trkpt lat="-27.2746389" lon="151.2897492">
  <ele>375.51</ele>
  <time>2026-09-01T19:56:17Z</time>
  <course>164.39</course>
  <speed>20.71</speed>
  <fix>3d</fix>
</trkpt>
<trkpt lat="-27.2746892" lon="151.2897639">
  <ele>376.02</ele>
  <time>2026-09-01T19:56:17Z</time>
  <course>165.6</course>
  <speed>19.718280858127567</speed>
  <fix>3d</fix>
</trkpt>
<trkpt lat="-27.2746741" lon="151.2897602">
  <ele>375.8</ele>
  <time>2026-09-01T19:56:17Z</time>
  <course>164.61</course>
  <speed>20.04</speed>
  <fix>3d</fix>
</trkpt>
<trkpt lat="-27.2747063" lon="151.2897691">
  <ele>376.15</ele>
  <time>2026-09-01T19:56:17Z</time>
  <course>165.53</course>
  <speed>19.424543752685672</speed>
  <fix>3d</fix>
</trkpt>
<trkpt lat="-27.2746741" lon="151.2897602">
  <ele>375.8</ele>
  <time>2026-09-01T19:56:17Z</time>
  <course>164.61</course>
  <speed>20.04</speed>
  <fix>3d</fix>
</trkpt>
<trkpt lat="-27.2747231" lon="151.2897742">
  <ele>376.29</ele>
  <time>2026-09-01T19:56:17Z</time>
  <course>165.49</course>
  <speed>19.13081806928287</speed>
  <fix>3d</fix>
</trkpt>
<trkpt lat="-27.2747083" lon="151.2897707">
  <ele>376.09</ele>
  <time>2026-09-01T19:56:17Z</time>
  <course>164.78</course>
  <speed>19.42</speed>
  <fix>3d</fix>
</trkpt>
<trkpt lat="-27.2747397" lon="151.2897793">
  <ele>376.41</ele>
  <time>2026-09-01T19:56:17Z</time>
  <course>165.48</course>
  <speed>18.856439218473884</speed>
  <fix>3d</fix>
</trkpt>
<trkpt lat="-27.2747083" lon="151.2897707">
  <ele>376.09</ele>
  <time>2026-09-01T19:56:17Z</time>
  <course>164.78</course>
  <speed>19.42</speed>
  <fix>3d</fix>
</trkpt>
<trkpt lat="-27.2747559" lon="151.2897842">
  <ele>376.52</ele>
  <time>2026-09-01T19:56:17Z</time>
  <course>165.5</course>
  <speed>18.591753548280487</speed>
  <fix>3d</fix>
</trkpt>
<trkpt lat="-27.2747415" lon="151.2897808">
  <ele>376.36</ele>
  <time>2026-09-01T19:56:17Z</time>
  <course>164.93</course>
  <speed>18.84</speed>
  <fix>3d</fix>
</trkpt>
<trkpt lat="-27.274772" lon="151.2897891">
  <ele>376.63</ele>
  <time>2026-09-01T19:56:17Z</time>
  <course>165.54</course>
  <speed>18.3270974243059</speed>
  <fix>3d</fix>
</trkpt>
<trkpt lat="-27.2747415" lon="151.2897808">
  <ele>376.36</ele>
  <time>2026-09-01T19:56:17Z</time>
  <course>164.93</course>
  <speed>18.84</speed>
  <fix>3d</fix>
</trkpt>
<trkpt lat="-27.2747878" lon="151.2897938">
  <ele>376.72</ele>
  <time>2026-09-01T19:56:17Z</time>
  <course>165.61</course>
  <speed>18.081827894325286</speed>
  <fix>3d</fix>
</trkpt>
<trkpt lat="-27.2747737" lon="151.2897905">
  <ele>376.59</ele>
  <time>2026-09-01T19:56:17Z</time>
  <course>165.11</course>
  <speed>18.3</speed>
  <fix>3d</fix>
</trkpt>
<trkpt lat="-27.2748035" lon="151.2897985">
  <ele>376.8</ele>
  <time>2026-09-01T19:56:17Z</time>
  <course>165.7</course>
  <speed>17.836605618782965</speed>
  <fix>3d</fix>
</trkpt>
<trkpt lat="-27.2747737" lon="151.2897905">
  <ele>376.59</ele>
  <time>2026-09-01T19:56:17Z</time>
  <course>165.11</course>
  <speed>18.3</speed>
  <fix>3d</fix>
</trkpt>
<trkpt lat="-27.2748188" lon="151.289803">
  <ele>376.88</ele>
  <time>2026-09-01T19:56:17Z</time>
  <course>165.82</course>
  <speed>17.61080634156199</speed>
  <fix>3d</fix>
</trkpt>
<trkpt lat="-27.274805" lon="151.2897998">
  <ele>376.78</ele>
  <time>2026-09-01T19:56:17Z</time>
  <course>165.34</course>
  <speed>17.8</speed>
  <fix>3d</fix>
</trkpt>
<trkpt lat="-27.2748341" lon="151.2898075">
  <ele>376.94</ele>
  <time>2026-09-01T19:56:17Z</time>
  <course>165.97</course>
  <speed>17.38261775452708</speed>
  <fix>3d</fix>
</trkpt>
<trkpt lat="-27.274805" lon="151.2897998">
  <ele>376.78</ele>
  <time>2026-09-01T19:56:17Z</time>
  <course>165.34</course>
  <speed>17.8</speed>
  <fix>3d</fix>
</trkpt>
<trkpt lat="-27.2748492" lon="151.2898118">
  <ele>377.01</ele>
  <time>2026-09-01T19:56:17Z</time>
  <course>166.14</course>
  <speed>17.164247726014676</speed>
  <fix>3d</fix>
</trkpt>
<trkpt lat="-27.2748355" lon="151.2898087">
  <ele>376.93</ele>
  <time>2026-09-01T19:56:17Z</time>
  <course>165.65</course>
  <speed>17.33</speed>
  <fix>3d</fix>
</trkpt>
<trkpt lat="-27.2748642" lon="151.2898161">
  <ele>377.06</ele>
  <time>2026-09-01T19:56:17Z</time>
  <course>166.34</course>
  <speed>16.955721748129744</speed>
  <fix>3d</fix>
</trkpt>
<trkpt lat="-27.2748355" lon="151.2898087">
  <ele>376.93</ele>
  <time>2026-09-01T19:56:17Z</time>
  <course>165.65</course>
  <speed>17.33</speed>
  <fix>3d</fix>
</trkpt>
<trkpt lat="-27.2748791" lon="151.2898203">
  <ele>377.11</ele>
  <time>2026-09-01T19:56:17Z</time>
  <course>166.56</course>
  <speed>16.742622255787772</speed>
  <fix>3d</fix>
</trkpt>
<trkpt lat="-27.2748355" lon="151.2898087">
  <ele>376.93</ele>
  <time>2026-09-01T19:56:17Z</time>
  <course>165.65</course>
  <speed>17.33</speed>
  <fix>3d</fix>
</trkpt>
<trkpt lat="-27.2748936" lon="151.2898243">
  <ele>377.16</ele>
  <time>2026-09-01T19:56:17Z</time>
  <course>166.8</course>
  <speed>16.541877160709422</speed>
  <fix>3d</fix>
</trkpt>
<trkpt lat="-27.2748654" lon="151.2898172">
  <ele>377.06</ele>
  <time>2026-09-01T19:56:17Z</time>
  <course>166.05</course>
  <speed>16.88</speed>
  <fix>3d</fix>
</trkpt>
<trkpt lat="-27.2749079" lon="151.2898281">
  <ele>377.21</ele>
  <time>2026-09-01T19:56:17Z</time>
  <course>167.07</course>
  <speed>16.327097108794327</speed>
  <fix>3d</fix>
</trkpt>
<trkpt lat="-27.2748654" lon="151.2898172">
  <ele>377.06</ele>
  <time>2026-09-01T19:56:17Z</time>
  <course>166.05</course>
  <speed>16.88</speed>
  <fix>3d</fix>
</trkpt>
<trkpt lat="-27.2749224" lon="151.289832">
  <ele>377.26</ele>
  <time>2026-09-01T19:56:17Z</time>
  <course>167.36</course>
  <speed>16.114968197300296</speed>
  <fix>3d</fix>
</trkpt>
<trkpt lat="-27.2748945" lon="151.2898252">
  <ele>377.16</ele>
  <time>2026-09-01T19:56:17Z</time>
  <course>166.55</course>
  <speed>16.46</speed>
  <fix>3d</fix>
</trkpt>
<trkpt lat="-27.2749363" lon="151.2898356">
  <ele>377.31</ele>
  <time>2026-09-01T19:56:17Z</time>
  <course>167.66</course>
  <speed>15.910766794846815</speed>
  <fix>3d</fix>
</trkpt>
<trkpt lat="-27.2748945" lon="151.2898252">
  <ele>377.16</ele>
  <time>2026-09-01T19:56:17Z</time>
  <course>166.55</course>
  <speed>16.46</speed>
  <fix>3d</fix>
</trkpt>
<trkpt lat="-27.2749499" lon="151.289839">
  <ele>377.35</ele>
  <time>2026-09-01T19:56:17Z</time>
  <course>167.97</course>
  <speed>15.707049372813469</speed>
  <fix>3d</fix>
</trkpt>
<trkpt lat="-27.274923" lon="151.2898326">
  <ele>377.27</ele>
  <time>2026-09-01T19:56:17Z</time>
  <course>167.14</course>
  <speed>16.04</speed>
  <fix>3d</fix>
</trkpt>
<trkpt lat="-27.2749634" lon="151.2898423">
  <ele>377.4</ele>
  <time>2026-09-01T19:56:17Z</time>
  <course>168.29</course>
  <speed>15.50383500944202</speed>
  <fix>3d</fix>
</trkpt>
<trkpt lat="-27.274923" lon="151.2898326">
  <ele>377.27</ele>
  <time>2026-09-01T19:56:17Z</time>
  <course>167.14</course>
  <speed>16.04</speed>
  <fix>3d</fix>
</trkpt>
<trkpt lat="-27.2749768" lon="151.2898454">
  <ele>377.45</ele>
  <time>2026-09-01T19:56:17Z</time>
  <course>168.63</course>
  <speed>15.301143748099355</speed>
  <fix>3d</fix>
</trkpt>
<trkpt lat="-27.2749508" lon="151.2898396">
  <ele>377.37</ele>
  <time>2026-09-01T19:56:17Z</time>
  <course>167.81</course>
  <speed>15.63</speed>
  <fix>3d</fix>
</trkpt>
<trkpt lat="-27.2749901" lon="151.2898485">
  <ele>377.5</ele>
  <time>2026-09-01T19:56:17Z</time>
  <course>168.98</course>
  <speed>15.097052692495977</speed>
  <fix>3d</fix>
</trkpt>
<trkpt lat="-27.2749508" lon="151.2898396">
  <ele>377.37</ele>
  <time>2026-09-01T19:56:17Z</time>
  <course>167.81</course>
  <speed>15.63</speed>
  <fix>3d</fix>
</trkpt>
<trkpt lat="-27.2750029" lon="151.2898513">
  <ele>377.55</ele>
  <time>2026-09-01T19:56:17Z</time>
  <course>169.34</course>
  <speed>14.895532887412923</speed>
  <fix>3d</fix>
</trkpt>
<trkpt lat="-27.2749779" lon="151.289846">
  <ele>377.47</ele>
  <time>2026-09-01T19:56:17Z</time>
  <course>168.53</course>
  <speed>15.23</speed>
  <fix>3d</fix>
</trkpt>
<trkpt lat="-27.2750159" lon="151.2898541">
  <ele>377.61</ele>
  <time>2026-09-01T19:56:17Z</time>
  <course>169.71</course>
  <speed>14.69460445197488</speed>
  <fix>3d</fix>
</trkpt>
<trkpt lat="-27.2750044" lon="151.2898519">
  <ele>377.57</ele>
  <time>2026-09-01T19:56:17Z</time>
  <course>169.3</course>
  <speed>14.84</speed>
  <fix>3d</fix>
</trkpt>
<trkpt lat="-27.2750287" lon="151.2898567">
  <ele>377.67</ele>
  <time>2026-09-01T19:56:17Z</time>
  <course>170.08</course>
  <speed>14.494291979948521</speed>
  <fix>3d</fix>
</trkpt>
<trkpt lat="-27.2750044" lon="151.2898519">
  <ele>377.57</ele>
  <time>2026-09-01T19:56:17Z</time>
  <course>169.3</course>
  <speed>14.84</speed>
  <fix>3d</fix>
</trkpt>
<trkpt lat="-27.2750414" lon="151.2898592">
  <ele>377.73</ele>
  <time>2026-09-01T19:56:17Z</time>
  <course>170.46</course>
  <speed>14.294621366094312</speed>
  <fix>3d</fix>
</trkpt>
<trkpt lat="-27.2750303" lon="151.2898572">
  <ele>377.69</ele>
  <time>2026-09-01T19:56:17Z</time>
  <course>170.1</course>
  <speed>14.44</speed>
  <fix>3d</fix>
</trkpt>
<trkpt lat="-27.2750539" lon="151.2898616">
  <ele>377.79</ele>
  <time>2026-09-01T19:56:17Z</time>
  <course>170.85</course>
  <speed>14.095619887042924</speed>
  <fix>3d</fix>
</trkpt>
<trkpt lat="-27.2750303" lon="151.2898572">
  <ele>377.69</ele>
  <time>2026-09-01T19:56:17Z</time>
  <course>170.1</course>
  <speed>14.44</speed>
  <fix>3d</fix>
</trkpt>
<trkpt lat="-27.2750663" lon="151.2898638">
  <ele>377.86</ele>
  <time>2026-09-01T19:56:17Z</time>
  <course>171.23</course>
  <speed>13.89886686028757</speed>
  <fix>3d</fix>
</trkpt>
<trkpt lat="-27.2750555" lon="151.2898619">
  <ele>377.81</ele>
  <time>2026-09-01T19:56:17Z</time>
  <course>170.92</course>
  <speed>14.04</speed>
  <fix>3d</fix>
</trkpt>
<trkpt lat="-27.2750786" lon="151.2898659">
  <ele>377.93</ele>
  <time>2026-09-01T19:56:17Z</time>
  <course>171.62</course>
  <speed>13.701218923876809</speed>
  <fix>3d</fix>
</trkpt>
<trkpt lat="-27.2750555" lon="151.2898619">
  <ele>377.81</ele>
  <time>2026-09-01T19:56:17Z</time>
  <course>170.92</course>
  <speed>14.04</speed>
  <fix>3d</fix>
</trkpt>
<trkpt lat="-27.2750907" lon="151.2898679">
  <ele>378.0</ele>
  <time>2026-09-01T19:56:17Z</time>
  <course>172.01</course>
  <speed>13.495840099823354</speed>
  <fix>3d</fix>
</trkpt>
<trkpt lat="-27.27508" lon="151.2898661">
  <ele>377.95</ele>
  <time>2026-09-01T19:56:17Z</time>
  <course>171.75</course>
  <speed>13.63</speed>
  <fix>3d</fix>
</trkpt>
<trkpt lat="-27.2751025" lon="151.2898698">
  <ele>378.07</ele>
  <time>2026-09-01T19:56:17Z</time>
  <course>172.4</course>
  <speed>13.291087239199058</speed>
  <fix>3d</fix>
</trkpt>
<trkpt lat="-27.27508" lon="151.2898661">
  <ele>377.95</ele>
  <time>2026-09-01T19:56:17Z</time>
  <course>171.75</course>
  <speed>13.63</speed>
  <fix>3d</fix>
</trkpt>
<trkpt lat="-27.2751142" lon="151.2898715">
  <ele>378.15</ele>
  <time>2026-09-01T19:56:17Z</time>
  <course>172.79</course>
  <speed>13.088269557126335</speed>
  <fix>3d</fix>
</trkpt>
<trkpt lat="-27.275104" lon="151.2898698">
  <ele>378.11</ele>
  <time>2026-09-01T19:56:17Z</time>
  <course>172.58</course>
  <speed>13.22</speed>
  <fix>3d</fix>
</trkpt>
<trkpt lat="-27.2751259" lon="151.2898731">
  <ele>378.24</ele>
  <time>2026-09-01T19:56:17Z</time>
  <course>173.18</course>
  <speed>12.884785601631094</speed>
  <fix>3d</fix>
</trkpt>
<trkpt lat="-27.275104" lon="151.2898698">
  <ele>378.11</ele>
  <time>2026-09-01T19:56:17Z</time>
  <course>172.58</course>
  <speed>13.22</speed>
  <fix>3d</fix>
</trkpt>
<trkpt lat="-27.2751373" lon="151.2898746">
  <ele>378.32</ele>
  <time>2026-09-01T19:56:17Z</time>
  <course>173.56</course>
  <speed>12.673223741416388</speed>
  <fix>3d</fix>
</trkpt>
<trkpt lat="-27.275104" lon="151.2898698">
  <ele>378.11</ele>
  <time>2026-09-01T19:56:17Z</time>
  <course>172.58</course>
  <speed>13.22</speed>
  <fix>3d</fix>
</trkpt>
<trkpt lat="-27.2751486" lon="151.289876">
  <ele>378.42</ele>
  <time>2026-09-01T19:56:17Z</time>
  <course>173.96</course>
  <speed>12.463330213069057</speed>
  <fix>3d</fix>
</trkpt>
<trkpt lat="-27.2751272" lon="151.289873">
  <ele>378.27</ele>
  <time>2026-09-01T19:56:17Z</time>
  <course>173.41</course>
  <speed>12.8</speed>
  <fix>3d</fix>
</trkpt>
<trkpt lat="-27.2751596" lon="151.2898773">
  <ele>378.51</ele>
  <time>2026-09-01T19:56:17Z</time>
  <course>174.34</course>
  <speed>12.242957159118053</speed>
  <fix>3d</fix>
</trkpt>
<trkpt lat="-27.2751272" lon="151.289873">
  <ele>378.27</ele>
  <time>2026-09-01T19:56:17Z</time>
  <course>173.41</course>
  <speed>12.8</speed>
  <fix>3d</fix>
</trkpt>
<trkpt lat="-27.2751704" lon="151.2898784">
  <ele>378.6</ele>
  <time>2026-09-01T19:56:17Z</time>
  <course>174.72</course>
  <speed>12.024163172545522</speed>
  <fix>3d</fix>
</trkpt>
<trkpt lat="-27.2751498" lon="151.2898758">
  <ele>378.45</ele>
  <time>2026-09-01T19:56:17Z</time>
  <course>174.22</course>
  <speed>12.38</speed>
  <fix>3d</fix>
</trkpt>
<trkpt lat="-27.2751813" lon="151.2898795">
  <ele>378.7</ele>
  <time>2026-09-01T19:56:17Z</time>
  <course>175.11</course>
  <speed>11.805896831668486</speed>
  <fix>3d</fix>
</trkpt>
<trkpt lat="-27.2751498" lon="151.2898758">
  <ele>378.45</ele>
  <time>2026-09-01T19:56:17Z</time>
  <course>174.22</course>
  <speed>12.38</speed>
  <fix>3d</fix>
</trkpt>
<trkpt lat="-27.2751916" lon="151.2898804">
  <ele>378.8</ele>
  <time>2026-09-01T19:56:17Z</time>
  <course>175.48</course>
  <speed>11.579037092953799</speed>
  <fix>3d</fix>
</trkpt>
<trkpt lat="-27.2751715" lon="151.289878">
  <ele>378.63</ele>
  <time>2026-09-01T19:56:17Z</time>
  <course>175.02</course>
  <speed>11.95</speed>
  <fix>3d</fix>
</trkpt>
<trkpt lat="-27.2752018" lon="151.2898813">
  <ele>378.89</ele>
  <time>2026-09-01T19:56:17Z</time>
  <course>175.85</course>
  <speed>11.362592133839883</speed>
  <fix>3d</fix>
</trkpt>
<trkpt lat="-27.2751715" lon="151.289878">
  <ele>378.63</ele>
  <time>2026-09-01T19:56:17Z</time>
  <course>175.02</course>
  <speed>11.95</speed>
  <fix>3d</fix>
</trkpt>
<trkpt lat="-27.2752118" lon="151.289882">
  <ele>378.99</ele>
  <time>2026-09-01T19:56:17Z</time>
  <course>176.22</course>
  <speed>11.136651202224122</speed>
  <fix>3d</fix>
</trkpt>
<trkpt lat="-27.2751925" lon="151.2898799">
  <ele>378.82</ele>
  <time>2026-09-01T19:56:17Z</time>
  <course>175.8</course>
  <speed>11.51</speed>
  <fix>3d</fix>
</trkpt>
<trkpt lat="-27.2752216" lon="151.2898827">
  <ele>379.08</ele>
  <time>2026-09-01T19:56:17Z</time>
  <course>176.59</course>
  <speed>10.91183760876233</speed>
  <fix>3d</fix>
</trkpt>
<trkpt lat="-27.2751925" lon="151.2898799">
  <ele>378.82</ele>
  <time>2026-09-01T19:56:17Z</time>
  <course>175.8</course>
  <speed>11.51</speed>
  <fix>3d</fix>
</trkpt>
<trkpt lat="-27.2752312" lon="151.2898832">
  <ele>379.18</ele>
  <time>2026-09-01T19:56:17Z</time>
  <course>176.95</course>
  <speed>10.686856413370585</speed>
  <fix>3d</fix>
</trkpt>
<trkpt lat="-27.2752128" lon="151.2898814">
  <ele>379.02</ele>
  <time>2026-09-01T19:56:17Z</time>
  <course>176.57</course>
  <speed>11.07</speed>
  <fix>3d</fix>
</trkpt>
<trkpt lat="-27.2752407" lon="151.2898837">
  <ele>379.27</ele>
  <time>2026-09-01T19:56:17Z</time>
  <course>177.32</course>
  <speed>10.463431559483725</speed>
  <fix>3d</fix>
</trkpt>
<trkpt lat="-27.2752128" lon="151.2898814">
  <ele>379.02</ele>
  <time>2026-09-01T19:56:17Z</time>
  <course>176.57</course>
  <speed>11.07</speed>
  <fix>3d</fix>
</trkpt>
<trkpt lat="-27.2752499" lon="151.2898841">
  <ele>379.36</ele>
  <time>2026-09-01T19:56:17Z</time>
  <course>177.67</course>
  <speed>10.229902247822313</speed>
  <fix>3d</fix>
</trkpt>
<trkpt lat="-27.2752322" lon="151.2898827">
  <ele>379.21</ele>
  <time>2026-09-01T19:56:17Z</time>
  <course>177.33</course>
  <speed>10.62</speed>
  <fix>3d</fix>
</trkpt>
<trkpt lat="-27.275259" lon="151.2898845">
  <ele>379.46</ele>
  <time>2026-09-01T19:56:17Z</time>
  <course>178.03</course>
  <speed>10.007217395460138</speed>
  <fix>3d</fix>
</trkpt>
<trkpt lat="-27.2752322" lon="151.2898827">
  <ele>379.21</ele>
  <time>2026-09-01T19:56:17Z</time>
  <course>177.33</course>
  <speed>10.62</speed>
  <fix>3d</fix>
</trkpt>
<trkpt lat="-27.2752678" lon="151.2898847">
  <ele>379.55</ele>
  <time>2026-09-01T19:56:17Z</time>
  <course>178.38</course>
  <speed>9.7849118544829</speed>
  <fix>3d</fix>
</trkpt>
<trkpt lat="-27.2752509" lon="151.2898835">
  <ele>379.41</ele>
  <time>2026-09-01T19:56:17Z</time>
  <course>178.07</course>
  <speed>10.17</speed>
  <fix>3d</fix>
</trkpt>
<trkpt lat="-27.2752764" lon="151.289885">
  <ele>379.64</ele>
  <time>2026-09-01T19:56:17Z</time>
  <course>178.73</course>
  <speed>9.55327169089208</speed>
  <fix>3d</fix>
</trkpt>
<trkpt lat="-27.2752509" lon="151.2898835">
  <ele>379.41</ele>
  <time>2026-09-01T19:56:17Z</time>
  <course>178.07</course>
  <speed>10.17</speed>
  <fix>3d</fix>
</trkpt>
<trkpt lat="-27.2752848" lon="151.2898851">
  <ele>379.73</ele>
  <time>2026-09-01T19:56:17Z</time>
  <course>179.07</course>
  <speed>9.331934418972306</speed>
  <fix>3d</fix>
</trkpt>
<trkpt lat="-27.2752687" lon="151.2898841">
  <ele>379.6</ele>
  <time>2026-09-01T19:56:17Z</time>
  <course>178.8</course>
  <speed>9.72</speed>
  <fix>3d</fix>
</trkpt>
<trkpt lat="-27.2752931" lon="151.2898852">
  <ele>379.81</ele>
  <time>2026-09-01T19:56:17Z</time>
  <course>179.42</course>
  <speed>9.11092750492506</speed>
  <fix>3d</fix>
</trkpt>
<trkpt lat="-27.2752687" lon="151.2898841">
  <ele>379.6</ele>
  <time>2026-09-01T19:56:17Z</time>
  <course>178.8</course>
  <speed>9.72</speed>
  <fix>3d</fix>
</trkpt>
<trkpt lat="-27.2753009" lon="151.2898852">
  <ele>379.89</ele>
  <time>2026-09-01T19:56:17Z</time>
  <course>179.75</course>
  <speed>8.890275586279651</speed>
  <fix>3d</fix>
</trkpt>
<trkpt lat="-27.2752858" lon="151.2898843">
  <ele>379.77</ele>
  <time>2026-09-01T19:56:17Z</time>
  <course>179.52</course>
  <speed>9.27</speed>
  <fix>3d</fix>
</trkpt>
<trkpt lat="-27.2753087" lon="151.2898851">
  <ele>379.97</ele>
  <time>2026-09-01T19:56:17Z</time>
  <course>180.1</course>
  <speed>8.670023068020061</speed>
  <fix>3d</fix>
</trkpt>
<trkpt lat="-27.2753021" lon="151.2898844">
  <ele>379.94</ele>
  <time>2026-09-01T19:56:17Z</time>
  <course>180.24</course>
  <speed>8.82</speed>
  <fix>3d</fix>
</trkpt>
<trkpt lat="-27.2753164" lon="151.289885">
  <ele>380.04</ele>
  <time>2026-09-01T19:56:17Z</time>
  <course>180.44</course>
  <speed>8.450023668605905</speed>
  <fix>3d</fix>
</trkpt>
<trkpt lat="-27.2753021" lon="151.2898844">
  <ele>379.94</ele>
  <time>2026-09-01T19:56:17Z</time>
  <course>180.24</course>
  <speed>8.82</speed>
  <fix>3d</fix>
</trkpt>
<trkpt lat="-27.2753239" lon="151.2898849">
  <ele>380.1</ele>
  <time>2026-09-01T19:56:17Z</time>
  <course>180.78</course>
  <speed>8.23029768598925</speed>
  <fix>3d</fix>
</trkpt>
<trkpt lat="-27.2753175" lon="151.2898842">
  <ele>380.09</ele>
  <time>2026-09-01T19:56:17Z</time>
  <course>180.95</course>
  <speed>8.38</speed>
  <fix>3d</fix>
</trkpt>
<trkpt lat="-27.2753312" lon="151.2898847">
  <ele>380.17</ele>
  <time>2026-09-01T19:56:17Z</time>
  <course>181.12</course>
  <speed>8.020897705369393</speed>
  <fix>3d</fix>
</trkpt>
<trkpt lat="-27.2753175" lon="151.2898842">
  <ele>380.09</ele>
  <time>2026-09-01T19:56:17Z</time>
  <course>180.95</course>
  <speed>8.38</speed>
  <fix>3d</fix>
</trkpt>
<trkpt lat="-27.2753384" lon="151.2898844">
  <ele>380.22</ele>
  <time>2026-09-01T19:56:17Z</time>
  <course>181.47</course>
  <speed>7.801640853051363</speed>
  <fix>3d</fix>
</trkpt>
<trkpt lat="-27.2753175" lon="151.2898842">
  <ele>380.09</ele>
  <time>2026-09-01T19:56:17Z</time>
  <course>180.95</course>
  <speed>8.38</speed>
  <fix>3d</fix>
</trkpt>
<trkpt lat="-27.2753453" lon="151.2898842">
  <ele>380.27</ele>
  <time>2026-09-01T19:56:17Z</time>
  <course>181.82</course>
  <speed>7.592634588863079</speed>
  <fix>3d</fix>
</trkpt>
<trkpt lat="-27.2753322" lon="151.2898839">
  <ele>380.22</ele>
  <time>2026-09-01T19:56:17Z</time>
  <course>181.67</course>
  <speed>7.94</speed>
  <fix>3d</fix>
</trkpt>
<trkpt lat="-27.275352" lon="151.2898839">
  <ele>380.32</ele>
  <time>2026-09-01T19:56:17Z</time>
  <course>182.18</course>
  <speed>7.383901407792496</speed>
  <fix>3d</fix>
</trkpt>
<trkpt lat="-27.2753322" lon="151.2898839">
  <ele>380.22</ele>
  <time>2026-09-01T19:56:17Z</time>
  <course>181.67</course>
  <speed>7.94</speed>
  <fix>3d</fix>
</trkpt>
<trkpt lat="-27.2753586" lon="151.2898835">
  <ele>380.36</ele>
  <time>2026-09-01T19:56:17Z</time>
  <course>182.55</course>
  <speed>7.175465141717296</speed>
  <fix>3d</fix>
</trkpt>
<trkpt lat="-27.2753461" lon="151.2898833">
  <ele>380.32</ele>
  <time>2026-09-01T19:56:17Z</time>
  <course>182.4</course>
  <speed>7.51</speed>
  <fix>3d</fix>
</trkpt>
<trkpt lat="-27.2753649" lon="151.2898831">
  <ele>380.38</ele>
  <time>2026-09-01T19:56:17Z</time>
  <course>182.92</course>
  <speed>6.977341900752751</speed>
  <fix>3d</fix>
</trkpt>
<trkpt lat="-27.2753461" lon="151.2898833">
  <ele>380.32</ele>
  <time>2026-09-01T19:56:17Z</time>
  <course>182.4</course>
  <speed>7.51</speed>
  <fix>3d</fix>
</trkpt>
<trkpt lat="-27.275371" lon="151.2898827">
  <ele>380.4</ele>
  <time>2026-09-01T19:56:17Z</time>
  <course>183.29</course>
  <speed>6.779564882792995</speed>
  <fix>3d</fix>
</trkpt>
<trkpt lat="-27.2753592" lon="151.2898826">
  <ele>380.4</ele>
  <time>2026-09-01T19:56:17Z</time>
  <course>183.15</course>
  <speed>7.1</speed>
  <fix>3d</fix>
</trkpt>
<trkpt lat="-27.2753769" lon="151.2898822">
  <ele>380.4</ele>
  <time>2026-09-01T19:56:17Z</time>
  <course>183.69</course>
  <speed>6.591547617972581</speed>
  <fix>3d</fix>
</trkpt>
<trkpt lat="-27.2753592" lon="151.2898826">
  <ele>380.4</ele>
  <time>2026-09-01T19:56:17Z</time>
  <course>183.15</course>
  <speed>7.1</speed>
  <fix>3d</fix>
</trkpt>
<trkpt lat="-27.2753827" lon="151.2898817">
  <ele>380.38</ele>
  <time>2026-09-01T19:56:17Z</time>
  <course>184.11</course>
  <speed>6.392526886920383</speed>
  <fix>3d</fix>
</trkpt>
<trkpt lat="-27.2753716" lon="151.2898817">
  <ele>380.44</ele>
  <time>2026-09-01T19:56:17Z</time>
  <course>183.91</course>
  <speed>6.71</speed>
  <fix>3d</fix>
</trkpt>
<trkpt lat="-27.2753883" lon="151.2898812">
  <ele>380.27</ele>
  <time>2026-09-01T19:56:17Z</time>
  <course>184.57</course>
  <speed>6.132413880357392</speed>
  <fix>3d</fix>
</trkpt>
<trkpt lat="-27.2753716" lon="151.2898817">
  <ele>380.44</ele>
  <time>2026-09-01T19:56:17Z</time>
  <course>183.91</course>
  <speed>6.71</speed>
  <fix>3d</fix>
</trkpt>
<trkpt lat="-27.2753936" lon="151.2898807">
  <ele>380.1</ele>
  <time>2026-09-01T19:56:17Z</time>
  <course>185.05</course>
  <speed>5.782499459576282</speed>
  <fix>3d</fix>
</trkpt>
<trkpt lat="-27.2753832" lon="151.2898808">
  <ele>380.4</ele>
  <time>2026-09-01T19:56:17Z</time>
  <course>184.43</course>
  <speed>6.29</speed>
  <fix>3d</fix>
</trkpt>
<trkpt lat="-27.2753986" lon="151.2898803">
  <ele>379.87</ele>
  <time>2026-09-01T19:56:17Z</time>
  <course>185.47</course>
  <speed>5.332851019857952</speed>
  <fix>3d</fix>
</trkpt>
<trkpt lat="-27.2753832" lon="151.2898808">
  <ele>380.4</ele>
  <time>2026-09-01T19:56:17Z</time>
  <course>184.43</course>
  <speed>6.29</speed>
  <fix>3d</fix>
</trkpt>
<trkpt lat="-27.275403" lon="151.2898798">
  <ele>379.6</ele>
  <time>2026-09-01T19:56:17Z</time>
  <course>185.79</course>
  <speed>4.7843285840335</speed>
  <fix>3d</fix>
</trkpt>
<trkpt lat="-27.275394" lon="151.2898798">
  <ele>380.14</ele>
  <time>2026-09-01T19:56:17Z</time>
  <course>184.79</course>
  <speed>5.67</speed>
  <fix>3d</fix>
</trkpt>
<trkpt lat="-27.275407" lon="151.2898793">
  <ele>379.32</ele>
  <time>2026-09-01T19:56:17Z</time>
  <course>186.0</course>
  <speed>4.16646132827367</speed>
  <fix>3d</fix>
</trkpt>
<trkpt lat="-27.275394" lon="151.2898798">
  <ele>380.14</ele>
  <time>2026-09-01T19:56:17Z</time>
  <course>184.79</course>
  <speed>5.67</speed>
  <fix>3d</fix>
</trkpt>
<trkpt lat="-27.2754104" lon="151.2898789">
  <ele>379.03</ele>
  <time>2026-09-01T19:56:17Z</time>
  <course>186.15</course>
  <speed>3.5305098781904007</speed>
  <fix>3d</fix>
</trkpt>
<trkpt lat="-27.2754033" lon="151.2898789">
  <ele>379.66</ele>
  <time>2026-09-01T19:56:17Z</time>
  <course>185.63</course>
  <speed>4.7</speed>
  <fix>3d</fix>
</trkpt>
<trkpt lat="-27.2754132" lon="151.2898784">
  <ele>378.75</ele>
  <time>2026-09-01T19:56:17Z</time>
  <course>186.31</course>
  <speed>2.875221730580096</speed>
  <fix>3d</fix>
</trkpt>
<trkpt lat="-27.2754033" lon="151.2898789">
  <ele>379.66</ele>
  <time>2026-09-01T19:56:17Z</time>
  <course>185.63</course>
  <speed>4.7</speed>
  <fix>3d</fix>
</trkpt>
<trkpt lat="-27.2754155" lon="151.2898779">
  <ele>378.48</ele>
  <time>2026-09-01T19:56:17Z</time>
  <course>186.6</course>
  <speed>2.232576986354558</speed>
  <fix>3d</fix>
</trkpt>
<trkpt lat="-27.2754107" lon="151.2898779">
  <ele>379.11</ele>
  <time>2026-09-01T19:56:17Z</time>
  <course>187.64</course>
  <speed>3.48</speed>
  <fix>3d</fix>
</trkpt>
<trkpt lat="-27.2754171" lon="151.2898775">
  <ele>378.24</ele>
  <time>2026-09-01T19:56:17Z</time>
  <course>187.15</course>
  <speed>1.613009609394811</speed>
  <fix>3d</fix>
</trkpt>
<trkpt lat="-27.2754107" lon="151.2898779">
  <ele>379.11</ele>
  <time>2026-09-01T19:56:17Z</time>
  <course>187.64</course>
  <speed>3.48</speed>
  <fix>3d</fix>
</trkpt>
<trkpt lat="-27.2754183" lon="151.289877">
  <ele>378.02</ele>
  <time>2026-09-01T19:56:17Z</time>
  <course>188.17</course>
  <speed>1.0312128781197412</speed>
  <fix>3d</fix>
</trkpt>
<trkpt lat="-27.2754156" lon="151.289877">
  <ele>378.57</ele>
  <time>2026-09-01T19:56:17Z</time>
  <course>192.08</course>
  <speed>2.2</speed>
  <fix>3d</fix>
</trkpt>
<trkpt lat="-27.2754189" lon="151.2898766">
  <ele>377.85</ele>
  <time>2026-09-01T19:56:17Z</time>
  <course>189.88</course>
  <speed>0.5</speed>
  <fix>3d</fix>
</trkpt>
<trkpt lat="-27.2754156" lon="151.289877">
  <ele>378.57</ele>
  <time>2026-09-01T19:56:17Z</time>
  <course>192.08</course>
  <speed>2.2</speed>
  <fix>3d</fix>
</trkpt>
<trkpt lat="-27.275419" lon="151.2898762">
  <ele>377.7</ele>
  <time>2026-09-01T19:56:17Z</time>
  <course>192.16</course>
  <speed>0.2906888370749727</speed>
  <fix>3d</fix>
</trkpt>
<trkpt lat="-27.2754184" lon="151.2898761">
  <ele>378.12</ele>
  <time>2026-09-01T19:56:17Z</time>
  <course>204.78</course>
  <speed>1.0</speed>
  <fix>3d</fix>
</trkpt>
<trkpt lat="-27.2754186" lon="151.2898759">
  <ele>377.59</ele>
  <time>2026-09-01T19:56:17Z</time>
  <course>194.38</course>
  <speed>0.6555150646628953</speed>
  <fix>3d</fix>
</trkpt>
<trkpt lat="-27.2754184" lon="151.2898761">
  <ele>378.12</ele>
  <time>2026-09-01T19:56:17Z</time>
  <course>204.78</course>
  <speed>1.0</speed>
  <fix>3d</fix>
</trkpt>
<trkpt lat="-27.2754179" lon="151.2898755">
  <ele>377.52</ele>
  <time>2026-09-01T19:56:17Z</time>
  <course>195.98</course>
  <speed>1.016366075781753</speed>
  <fix>3d</fix>
</trkpt>
<trkpt lat="-27.2754191" lon="151.2898753">
  <ele>377.8</ele>
  <time>2026-09-01T19:56:17Z</time>
  <course>299.23</course>
  <speed>0.4</speed>
  <fix>3d</fix>
</trkpt>
<trkpt lat="-27.275417" lon="151.2898752">
  <ele>377.48</ele>
  <time>2026-09-01T19:56:17Z</time>
  <course>196.84</course>
  <speed>1.3201893803541975</speed>
  <fix>3d</fix>
</trkpt>
<trkpt lat="-27.2754191" lon="151.2898753">
  <ele>377.8</ele>
  <time>2026-09-01T19:56:17Z</time>
  <course>299.23</course>
  <speed>0.4</speed>
  <fix>3d</fix>
</trkpt>
<trkpt lat="-27.2754157" lon="151.2898749">
  <ele>377.47</ele>
  <time>2026-09-01T19:56:17Z</time>
  <course>197.24</course>
  <speed>1.545736070614903</speed>
  <fix>3d</fix>
</trkpt>
<trkpt lat="-27.2754179" lon="151.2898746">
  <ele>377.63</ele>
  <time>2026-09-01T19:56:17Z</time>
  <course>343.8</course>
  <speed>1.11</speed>
  <fix>3d</fix>
</trkpt>
<trkpt lat="-27.2754142" lon="151.2898746">
  <ele>377.48</ele>
  <time>2026-09-01T19:56:17Z</time>
  <course>197.82</course>
  <speed>1.720523176246109</speed>
  <fix>3d</fix>
</trkpt>
<trkpt lat="-27.2754179" lon="151.2898746">
  <ele>377.63</ele>
  <time>2026-09-01T19:56:17Z</time>
  <course>343.8</course>
  <speed>1.11</speed>
  <fix>3d</fix>
</trkpt>
<trkpt lat="-27.2754126" lon="151.2898743">
  <ele>377.52</ele>
  <time>2026-09-01T19:56:17Z</time>
  <course>199.18</course>
  <speed>1.8261708572858126</speed>
  <fix>3d</fix>
</trkpt>
<trkpt lat="-27.2754155" lon="151.2898741">
  <ele>377.58</ele>
  <time>2026-09-01T19:56:17Z</time>
  <course>350.2</course>
  <speed>1.66</speed>
  <fix>3d</fix>
</trkpt>
<trkpt lat="-27.275411" lon="151.2898741">
  <ele>377.56</ele>
  <time>2026-09-01T19:56:17Z</time>
  <course>201.79</course>
  <speed>1.8826576959181933</speed>
  <fix>3d</fix>
</trkpt>
<trkpt lat="-27.2754155" lon="151.2898741">
  <ele>377.58</ele>
  <time>2026-09-01T19:56:17Z</time>
  <course>350.2</course>
  <speed>1.66</speed>
  <fix>3d</fix>
</trkpt>
<trkpt lat="-27.2754092" lon="151.289874">
  <ele>377.62</ele>
  <time>2026-09-01T19:56:17Z</time>
  <course>205.84</course>
  <speed>1.9106543381784158</speed>
  <fix>3d</fix>
</trkpt>
<trkpt lat="-27.2754122" lon="151.2898736">
  <ele>377.63</ele>
  <time>2026-09-01T19:56:17Z</time>
  <course>353.83</course>
  <speed>1.96</speed>
  <fix>3d</fix>
</trkpt>
<trkpt lat="-27.2754075" lon="151.2898739">
  <ele>377.67</ele>
  <time>2026-09-01T19:56:17Z</time>
  <course>211.26</course>
  <speed>1.9200260414900625</speed>
  <fix>3d</fix>
</trkpt>
<trkpt lat="-27.2754122" lon="151.2898736">
  <ele>377.63</ele>
  <time>2026-09-01T19:56:17Z</time>
  <course>353.83</course>
  <speed>1.96</speed>
  <fix>3d</fix>
</trkpt>
<trkpt lat="-27.2754057" lon="151.2898738">
  <ele>377.73</ele>
  <time>2026-09-01T19:56:17Z</time>
  <course>217.8</course>
  <speed>1.9300259065618783</speed>
  <fix>3d</fix>
</trkpt>
<trkpt lat="-27.2754086" lon="151.2898732">
  <ele>377.74</ele>
  <time>2026-09-01T19:56:17Z</time>
  <course>356.96</course>
  <speed>2.06</speed>
  <fix>3d</fix>
</trkpt>
<trkpt lat="-27.2754039" lon="151.2898737">
  <ele>377.78</ele>
  <time>2026-09-01T19:56:17Z</time>
  <course>224.94</course>
  <speed>1.9400257730246782</speed>
  <fix>3d</fix>
</trkpt>
<trkpt lat="-27.2754086" lon="151.2898732">
  <ele>377.74</ele>
  <time>2026-09-01T19:56:17Z</time>
  <course>356.96</course>
  <speed>2.06</speed>
  <fix>3d</fix>
</trkpt>
<trkpt lat="-27.2754021" lon="151.2898737">
  <ele>377.83</ele>
  <time>2026-09-01T19:56:17Z</time>
  <course>232.34</course>
  <speed>1.9700253805471644</speed>
  <fix>3d</fix>
</trkpt>
<trkpt lat="-27.2754049" lon="151.2898731">
  <ele>377.85</ele>
  <time>2026-09-01T19:56:17Z</time>
  <course>358.86</course>
  <speed>2.09</speed>
  <fix>3d</fix>
</trkpt>
<trkpt lat="-27.2754002" lon="151.2898736">
  <ele>377.86</ele>
  <time>2026-09-01T19:56:17Z</time>
  <course>239.68</course>
  <speed>2.0206187171260193</speed>
  <fix>3d</fix>
</trkpt>
<trkpt lat="-27.2754049" lon="151.2898731">
  <ele>377.85</ele>
  <time>2026-09-01T19:56:17Z</time>
  <course>358.86</course>
  <speed>2.09</speed>
  <fix>3d</fix>
</trkpt>
<trkpt lat="-27.2753983" lon="151.2898734">
  <ele>377.89</ele>
  <time>2026-09-01T19:56:17Z</time>
  <course>246.76</course>
  <speed>2.092390976849212</speed>
  <fix>3d</fix>
</trkpt>
<trkpt lat="-27.275401" lon="151.289873">
  <ele>377.95</ele>
  <time>2026-09-01T19:56:17Z</time>
  <course>358.68</course>
  <speed>2.14</speed>
  <fix>3d</fix>
</trkpt>
<trkpt lat="-27.2753963" lon="151.2898732">
  <ele>377.91</ele>
  <time>2026-09-01T19:56:17Z</time>
  <course>253.49</course>
  <speed>2.1951309755912063</speed>
  <fix>3d</fix>
</trkpt>
<trkpt lat="-27.275401" lon="151.289873">
  <ele>377.95</ele>
  <time>2026-09-01T19:56:17Z</time>
  <course>358.68</course>
  <speed>2.14</speed>
  <fix>3d</fix>
</trkpt>
<trkpt lat="-27.2753942" lon="151.289873">
  <ele>377.91</ele>
  <time>2026-09-01T19:56:17Z</time>
  <course>259.89</course>
  <speed>2.336193485137736</speed>
  <fix>3d</fix>
</trkpt>
<trkpt lat="-27.2753971" lon="151.2898728">
  <ele>378.02</ele>
  <time>2026-09-01T19:56:17Z</time>
  <course>356.96</course>
  <speed>2.26</speed>
  <fix>3d</fix>
</trkpt>
<trkpt lat="-27.2753919" lon="151.2898728">
  <ele>377.9</ele>
  <time>2026-09-01T19:56:17Z</time>
  <course>266.05</course>
  <speed>2.4834049206683955</speed>
  <fix>3d</fix>
</trkpt>
<trkpt lat="-27.2753971" lon="151.2898728">
  <ele>378.02</ele>
  <time>2026-09-01T19:56:17Z</time>
  <course>356.96</course>
  <speed>2.26</speed>
  <fix>3d</fix>
</trkpt>
<trkpt lat="-27.2753895" lon="151.2898727">
  <ele>377.89</ele>
  <time>2026-09-01T19:56:17Z</time>
  <course>272.06</course>
  <speed>2.6503018695990086</speed>
  <fix>3d</fix>
</trkpt>
<trkpt lat="-27.2753929" lon="151.2898725">
  <ele>378.05</ele>
  <time>2026-09-01T19:56:17Z</time>
  <course>356.37</course>
  <speed>2.48</speed>
  <fix>3d</fix>
</trkpt>
<trkpt lat="-27.2753869" lon="151.2898726">
  <ele>377.87</ele>
  <time>2026-09-01T19:56:17Z</time>
  <course>278.03</course>
  <speed>2.8311305162425837</speed>
  <fix>3d</fix>
</trkpt>
<trkpt lat="-27.2753929" lon="151.2898725">
  <ele>378.05</ele>
  <time>2026-09-01T19:56:17Z</time>
  <course>356.37</course>
  <speed>2.48</speed>
  <fix>3d</fix>
</trkpt>
<trkpt lat="-27.2753842" lon="151.2898728">
  <ele>377.86</ele>
  <time>2026-09-01T19:56:17Z</time>
  <course>284.07</course>
  <speed>3.0066592756745814</speed>
  <fix>3d</fix>
</trkpt>
<trkpt lat="-27.2753882" lon="151.2898723">
  <ele>378.03</ele>
  <time>2026-09-01T19:56:17Z</time>
  <course>359.28</course>
  <speed>2.79</speed>
  <fix>3d</fix>
</trkpt>
<trkpt lat="-27.2753814" lon="151.289873">
  <ele>377.85</ele>
  <time>2026-09-01T19:56:17Z</time>
  <course>290.25</course>
  <speed>3.185121661726597</speed>
  <fix>3d</fix>
</trkpt>
<trkpt lat="-27.2753882" lon="151.2898723">
  <ele>378.03</ele>
  <time>2026-09-01T19:56:17Z</time>
  <course>359.28</course>
  <speed>2.79</speed>
  <fix>3d</fix>
</trkpt>
<trkpt lat="-27.2753783" lon="151.2898733">
  <ele>377.84</ele>
  <time>2026-09-01T19:56:17Z</time>
  <course>296.56</course>
  <speed>3.352760057027642</speed>
  <fix>3d</fix>
</trkpt>
<trkpt lat="-27.2753828" lon="151.2898724">
  <ele>378.01</ele>
  <time>2026-09-01T19:56:17Z</time>
  <course>3.61</course>
  <speed>3.13</speed>
  <fix>3d</fix>
</trkpt>
<trkpt lat="-27.2753752" lon="151.2898736">
  <ele>377.83</ele>
  <time>2026-09-01T19:56:17Z</time>
  <course>302.94</course>
  <speed>3.5188918710298562</speed>
  <fix>3d</fix>
</trkpt>
<trkpt lat="-27.2753828" lon="151.2898724">
  <ele>378.01</ele>
  <time>2026-09-01T19:56:17Z</time>
  <course>3.61</course>
  <speed>3.13</speed>
  <fix>3d</fix>
</trkpt>
<trkpt lat="-27.2753719" lon="151.2898741">
  <ele>377.83</ele>
  <time>2026-09-01T19:56:17Z</time>
  <course>309.32</course>
  <speed>3.6939951272301372</speed>
  <fix>3d</fix>
</trkpt>
<trkpt lat="-27.2753769" lon="151.289873">
  <ele>377.99</ele>
  <time>2026-09-01T19:56:17Z</time>
  <course>6.47</course>
  <speed>3.47</speed>
  <fix>3d</fix>
</trkpt>
<trkpt lat="-27.2753684" lon="151.2898746">
  <ele>377.83</ele>
  <time>2026-09-01T19:56:17Z</time>
  <course>315.6</course>
  <speed>3.8565917595721744</speed>
  <fix>3d</fix>
</trkpt>
<trkpt lat="-27.2753769" lon="151.289873">
  <ele>377.99</ele>
  <time>2026-09-01T19:56:17Z</time>
  <course>6.47</course>
  <speed>3.47</speed>
  <fix>3d</fix>
</trkpt>
<trkpt lat="-27.2753648" lon="151.2898751">
  <ele>377.83</ele>
  <time>2026-09-01T19:56:17Z</time>
  <course>321.72</course>
  <speed>4.019203901271992</speed>
  <fix>3d</fix>
</trkpt>
<trkpt lat="-27.2753704" lon="151.2898739">
  <ele>377.99</ele>
  <time>2026-09-01T19:56:17Z</time>
  <course>7.76</course>
  <speed>3.8</speed>
  <fix>3d</fix>
</trkpt>
<trkpt lat="-27.2753611" lon="151.2898757">
  <ele>377.83</ele>
  <time>2026-09-01T19:56:17Z</time>
  <course>327.66</course>
  <speed>4.183252323252806</speed>
  <fix>3d</fix>
</trkpt>
<trkpt lat="-27.2753704" lon="151.2898739">
  <ele>377.99</ele>
  <time>2026-09-01T19:56:17Z</time>
  <course>7.76</course>
  <speed>3.8</speed>
  <fix>3d</fix>
</trkpt>
<trkpt lat="-27.2753572" lon="151.2898763">
  <ele>377.83</ele>
  <time>2026-09-01T19:56:17Z</time>
  <course>333.42</course>
  <speed>4.347367019242797</speed>
  <fix>3d</fix>
</trkpt>
<trkpt lat="-27.2753634" lon="151.2898751">
  <ele>377.99</ele>
  <time>2026-09-01T19:56:17Z</time>
  <course>8.32</course>
  <speed>4.12</speed>
  <fix>3d</fix>
</trkpt>
<trkpt lat="-27.2753532" lon="151.2898769">
  <ele>377.84</ele>
  <time>2026-09-01T19:56:17Z</time>
  <course>338.99</course>
  <speed>4.500155552867033</speed>
  <fix>3d</fix>
</trkpt>
<trkpt lat="-27.2753634" lon="151.2898751">
  <ele>377.99</ele>
  <time>2026-09-01T19:56:17Z</time>
  <course>8.32</course>
  <speed>4.12</speed>
  <fix>3d</fix>
</trkpt>
<trkpt lat="-27.275349" lon="151.2898776">
  <ele>377.84</ele>
  <time>2026-09-01T19:56:18Z</time>
  <course>344.42</course>
  <speed>4.6544709688642385</speed>
  <fix>3d</fix>
</trkpt>
<trkpt lat="-27.2753557" lon="151.2898763">
  <ele>378.0</ele>
  <time>2026-09-01T19:56:18Z</time>
  <course>8.73</course>
  <speed>4.43</speed>
  <fix>3d</fix>
</trkpt>
<trkpt lat="-27.2753447" lon="151.2898784">
  <ele>377.85</ele>
  <time>2026-09-01T19:56:18Z</time>
  <course>349.72</course>
  <speed>4.800541636107326</speed>
  <fix>3d</fix>
</trkpt>
<trkpt lat="-27.2753557" lon="151.2898763">
  <ele>378.0</ele>
  <time>2026-09-01T19:56:18Z</time>
  <course>8.73</course>
  <speed>4.43</speed>
  <fix>3d</fix>
</trkpt>
<trkpt lat="-27.2753403" lon="151.2898792">
  <ele>377.86</ele>
  <time>2026-09-01T19:56:18Z</time>
  <course>354.71</course>
  <speed>4.945139027368189</speed>
  <fix>3d</fix>
</trkpt>
<trkpt lat="-27.2753475" lon="151.2898778">
  <ele>378.02</ele>
  <time>2026-09-01T19:56:18Z</time>
  <course>9.18</course>
  <speed>4.73</speed>
  <fix>3d</fix>
</trkpt>
<trkpt lat="-27.2753358" lon="151.28988">
  <ele>377.87</ele>
  <time>2026-09-01T19:56:18Z</time>
  <course>359.25</course>
  <speed>5.081594238031998</speed>
  <fix>3d</fix>
</trkpt>
<trkpt lat="-27.2753475" lon="151.2898778">
  <ele>378.02</ele>
  <time>2026-09-01T19:56:18Z</time>
  <course>9.18</course>
  <speed>4.73</speed>
  <fix>3d</fix>
</trkpt>
<trkpt lat="-27.2753312" lon="151.2898809">
  <ele>377.89</ele>
  <time>2026-09-01T19:56:18Z</time>
  <course>3.16</course>
  <speed>5.208349066642903</speed>
  <fix>3d</fix>
</trkpt>
<trkpt lat="-27.2753389" lon="151.2898794">
  <ele>378.04</ele>
  <time>2026-09-01T19:56:18Z</time>
  <course>9.72</course>
  <speed>5.01</speed>
  <fix>3d</fix>
</trkpt>
<trkpt lat="-27.2753265" lon="151.2898819">
  <ele>377.9</ele>
  <time>2026-09-01T19:56:18Z</time>
  <course>6.31</course>
  <speed>5.323645367602917</speed>
  <fix>3d</fix>
</trkpt>
<trkpt lat="-27.2753389" lon="151.2898794">
  <ele>378.04</ele>
  <time>2026-09-01T19:56:18Z</time>
  <course>9.72</course>
  <speed>5.01</speed>
  <fix>3d</fix>
</trkpt>
<trkpt lat="-27.2753216" lon="151.2898829">
  <ele>377.92</ele>
  <time>2026-09-01T19:56:18Z</time>
  <course>8.63</course>
  <speed>5.42918041696903</speed>
  <fix>3d</fix>
</trkpt>
<trkpt lat="-27.2753298" lon="151.2898812">
  <ele>378.07</ele>
  <time>2026-09-01T19:56:18Z</time>
  <course>10.3</course>
  <speed>5.26</speed>
  <fix>3d</fix>
</trkpt>
<trkpt lat="-27.2753168" lon="151.2898839">
  <ele>377.93</ele>
  <time>2026-09-01T19:56:18Z</time>
  <course>10.12</course>
  <speed>5.5347990026739</speed>
  <fix>3d</fix>
</trkpt>
<trkpt lat="-27.2753298" lon="151.2898812">
  <ele>378.07</ele>
  <time>2026-09-01T19:56:18Z</time>
  <course>10.3</course>
  <speed>5.26</speed>
  <fix>3d</fix>
</trkpt>
<trkpt lat="-27.2753118" lon="151.289885">
  <ele>377.95</ele>
  <time>2026-09-01T19:56:18Z</time>
  <course>10.87</course>
  <speed>5.618976775178911</speed>
  <fix>3d</fix>
</trkpt>
<trkpt lat="-27.2753204" lon="151.2898832">
  <ele>378.1</ele>
  <time>2026-09-01T19:56:18Z</time>
  <course>10.81</course>
  <speed>5.48</speed>
  <fix>3d</fix>
</trkpt>
<trkpt lat="-27.2753067" lon="151.2898861">
  <ele>377.96</ele>
  <time>2026-09-01T19:56:18Z</time>
  <course>11.07</course>
  <speed>5.691484867765178</speed>
  <fix>3d</fix>
</trkpt>
<trkpt lat="-27.2753204" lon="151.2898832">
  <ele>378.1</ele>
  <time>2026-09-01T19:56:18Z</time>
  <course>10.81</course>
  <speed>5.48</speed>
  <fix>3d</fix>
</trkpt>
<trkpt lat="-27.2753017" lon="151.2898872">
  <ele>377.97</ele>
  <time>2026-09-01T19:56:18Z</time>
  <course>10.93</course>
  <speed>5.764000346981253</speed>
  <fix>3d</fix>
</trkpt>
<trkpt lat="-27.2753106" lon="151.2898854">
  <ele>378.13</ele>
  <time>2026-09-01T19:56:18Z</time>
  <course>11.15</course>
  <speed>5.66</speed>
  <fix>3d</fix>
</trkpt>
<trkpt lat="-27.2752965" lon="151.2898883">
  <ele>377.98</ele>
  <time>2026-09-01T19:56:18Z</time>
  <course>10.65</course>
  <speed>5.82480900974444</speed>
  <fix>3d</fix>
</trkpt>
<trkpt lat="-27.2753106" lon="151.2898854">
  <ele>378.13</ele>
  <time>2026-09-01T19:56:18Z</time>
  <course>11.15</course>
  <speed>5.66</speed>
  <fix>3d</fix>
</trkpt>
<trkpt lat="-27.2752913" lon="151.2898895">
  <ele>377.99</ele>
  <time>2026-09-01T19:56:18Z</time>
  <course>10.36</course>
  <speed>5.865978179297977</speed>
  <fix>3d</fix>
</trkpt>
<trkpt lat="-27.2753005" lon="151.2898876">
  <ele>378.16</ele>
  <time>2026-09-01T19:56:18Z</time>
  <course>11.29</course>
  <speed>5.79</speed>
  <fix>3d</fix>
</trkpt>
<trkpt lat="-27.2752861" lon="151.2898906">
  <ele>378.0</ele>
  <time>2026-09-01T19:56:18Z</time>
  <course>10.13</course>
  <speed>5.907148212124019</speed>
  <fix>3d</fix>
</trkpt>
<trkpt lat="-27.2753005" lon="151.2898876">
  <ele>378.16</ele>
  <time>2026-09-01T19:56:18Z</time>
  <course>11.29</course>
  <speed>5.79</speed>
  <fix>3d</fix>
</trkpt>
<trkpt lat="-27.2752808" lon="151.2898918">
  <ele>378.01</ele>
  <time>2026-09-01T19:56:18Z</time>
  <course>9.98</course>
  <speed>5.946427498927402</speed>
  <fix>3d</fix>
</trkpt>
<trkpt lat="-27.2752901" lon="151.2898899">
  <ele>378.19</ele>
  <time>2026-09-01T19:56:18Z</time>
  <course>11.3</course>
  <speed>5.89</speed>
  <fix>3d</fix>
</trkpt>
<trkpt lat="-27.2752756" lon="151.2898929">
  <ele>378.02</ele>
  <time>2026-09-01T19:56:18Z</time>
  <course>9.92</course>
  <speed>5.966070733740927</speed>
  <fix>3d</fix>
</trkpt>
<trkpt lat="-27.2752901" lon="151.2898899">
  <ele>378.19</ele>
  <time>2026-09-01T19:56:18Z</time>
  <course>11.3</course>
  <speed>5.89</speed>
  <fix>3d</fix>
</trkpt>
<trkpt lat="-27.2752703" lon="151.2898941">
  <ele>378.03</ele>
  <time>2026-09-01T19:56:18Z</time>
  <course>9.91</course>
  <speed>5.985716331400946</speed>
  <fix>3d</fix>
</trkpt>
<trkpt lat="-27.2752796" lon="151.2898923">
  <ele>378.21</ele>
  <time>2026-09-01T19:56:18Z</time>
  <course>11.25</course>
  <speed>5.96</speed>
  <fix>3d</fix>
</trkpt>
<trkpt lat="-27.2752649" lon="151.2898953">
  <ele>378.04</ele>
  <time>2026-09-01T19:56:18Z</time>
  <course>9.93</course>
  <speed>6.005364268718426</speed>
  <fix>3d</fix>
</trkpt>
<trkpt lat="-27.2752796" lon="151.2898923">
  <ele>378.21</ele>
  <time>2026-09-01T19:56:18Z</time>
  <course>11.25</course>
  <speed>5.96</speed>
  <fix>3d</fix>
</trkpt>
<trkpt lat="-27.2752596" lon="151.2898965">
  <ele>378.04</ele>
  <time>2026-09-01T19:56:18Z</time>
  <course>9.97</course>
  <speed>6.015189107584233</speed>
  <fix>3d</fix>
</trkpt>
<trkpt lat="-27.275269" lon="151.2898946">
  <ele>378.22</ele>
  <time>2026-09-01T19:56:18Z</time>
  <course>11.2</course>
  <speed>6.0</speed>
  <fix>3d</fix>
</trkpt>
<trkpt lat="-27.2752543" lon="151.2898976">
  <ele>378.04</ele>
  <time>2026-09-01T19:56:18Z</time>
  <course>10.0</course>
  <speed>6.015189107584233</speed>
  <fix>3d</fix>
</trkpt>
<trkpt lat="-27.275269" lon="151.2898946">
  <ele>378.22</ele>
  <time>2026-09-01T19:56:18Z</time>
  <course>11.2</course>
  <speed>6.0</speed>
  <fix>3d</fix>
</trkpt>
<trkpt lat="-27.2752489" lon="151.2898988">
  <ele>378.05</ele>
  <time>2026-09-01T19:56:18Z</time>
  <course>10.03</course>
  <speed>6.015189107584233</speed>
  <fix>3d</fix>
</trkpt>
<trkpt lat="-27.2752585" lon="151.289897">
  <ele>378.23</ele>
  <time>2026-09-01T19:56:18Z</time>
  <course>11.15</course>
  <speed>6.01</speed>
  <fix>3d</fix>
</trkpt>
<trkpt lat="-27.2752436" lon="151.2899">
  <ele>378.05</ele>
  <time>2026-09-01T19:56:18Z</time>
  <course>10.06</course>
  <speed>6.005364268718426</speed>
  <fix>3d</fix>
</trkpt>
<trkpt lat="-27.2752585" lon="151.289897">
  <ele>378.23</ele>
  <time>2026-09-01T19:56:18Z</time>
  <course>11.15</course>
  <speed>6.01</speed>
  <fix>3d</fix>
</trkpt>
<trkpt lat="-27.2752384" lon="151.2899011">
  <ele>378.05</ele>
  <time>2026-09-01T19:56:18Z</time>
  <course>10.07</course>
  <speed>5.995540009040053</speed>
  <fix>3d</fix>
</trkpt>
<trkpt lat="-27.2752479" lon="151.2898993">
  <ele>378.24</ele>
  <time>2026-09-01T19:56:18Z</time>
  <course>11.13</course>
  <speed>6.01</speed>
  <fix>3d</fix>
</trkpt>
<trkpt lat="-27.2752331" lon="151.2899023">
  <ele>378.05</ele>
  <time>2026-09-01T19:56:18Z</time>
  <course>10.08</course>
  <speed>5.985716331400946</speed>
  <fix>3d</fix>
</trkpt>
<trkpt lat="-27.2752479" lon="151.2898993">
  <ele>378.24</ele>
  <time>2026-09-01T19:56:18Z</time>
  <course>11.13</course>
  <speed>6.01</speed>
  <fix>3d</fix>
</trkpt>
<trkpt lat="-27.2752278" lon="151.2899035">
  <ele>378.05</ele>
  <time>2026-09-01T19:56:18Z</time>
  <course>10.08</course>
  <speed>5.964201539183598</speed>
  <fix>3d</fix>
</trkpt>
<trkpt lat="-27.2752374" lon="151.2899016">
  <ele>378.25</ele>
  <time>2026-09-01T19:56:18Z</time>
  <course>11.11</course>
  <speed>5.98</speed>
  <fix>3d</fix>
</trkpt>
<trkpt lat="-27.2752225" lon="151.2899046">
  <ele>378.04</ele>
  <time>2026-09-01T19:56:18Z</time>
  <course>10.09</course>
  <speed>5.9543765416708405</speed>
  <fix>3d</fix>
</trkpt>
<trkpt lat="-27.2752374" lon="151.2899016">
  <ele>378.25</ele>
  <time>2026-09-01T19:56:18Z</time>
  <course>11.11</course>
  <speed>5.98</speed>
  <fix>3d</fix>
</trkpt>
<trkpt lat="-27.2752172" lon="151.2899058">
  <ele>378.04</ele>
  <time>2026-09-01T19:56:18Z</time>
  <course>10.1</course>
  <speed>5.93472830043634</speed>
  <fix>3d</fix>
</trkpt>
<trkpt lat="-27.2752268" lon="151.289904">
  <ele>378.25</ele>
  <time>2026-09-01T19:56:18Z</time>
  <course>11.11</course>
  <speed>5.95</speed>
  <fix>3d</fix>
</trkpt>
<trkpt lat="-27.275212" lon="151.2899069">
  <ele>378.04</ele>
  <time>2026-09-01T19:56:18Z</time>
  <course>10.1</course>
  <speed>5.903388857258177</speed>
  <fix>3d</fix>
</trkpt>
<trkpt lat="-27.2752268" lon="151.289904">
  <ele>378.25</ele>
  <time>2026-09-01T19:56:18Z</time>
  <course>11.11</course>
  <speed>5.95</speed>
  <fix>3d</fix>
</trkpt>
<trkpt lat="-27.2752068" lon="151.2899081">
  <ele>378.03</ele>
  <time>2026-09-01T19:56:18Z</time>
  <course>10.11</course>
  <speed>5.883740306981606</speed>
  <fix>3d</fix>
</trkpt>
<trkpt lat="-27.2752164" lon="151.2899063">
  <ele>378.24</ele>
  <time>2026-09-01T19:56:18Z</time>
  <course>11.11</course>
  <speed>5.9</speed>
  <fix>3d</fix>
</trkpt>
<trkpt lat="-27.2752016" lon="151.2899092">
  <ele>378.03</ele>
  <time>2026-09-01T19:56:18Z</time>
  <course>10.12</course>
  <speed>5.854271944486351</speed>
  <fix>3d</fix>
</trkpt>
<trkpt lat="-27.2752164" lon="151.2899063">
  <ele>378.24</ele>
  <time>2026-09-01T19:56:18Z</time>
  <course>11.11</course>
  <speed>5.9</speed>
  <fix>3d</fix>
</trkpt>
<trkpt lat="-27.2751965" lon="151.2899104">
  <ele>378.02</ele>
  <time>2026-09-01T19:56:18Z</time>
  <course>10.13</course>
  <speed>5.8229288163260255</speed>
  <fix>3d</fix>
</trkpt>
<trkpt lat="-27.275206" lon="151.2899086">
  <ele>378.24</ele>
  <time>2026-09-01T19:56:18Z</time>
  <course>11.12</course>
  <speed>5.85</speed>
  <fix>3d</fix>
</trkpt>
<trkpt lat="-27.2751914" lon="151.2899115">
  <ele>378.02</ele>
  <time>2026-09-01T19:56:18Z</time>
  <course>10.15</course>
  <speed>5.793461832100044</speed>
  <fix>3d</fix>
</trkpt>
<trkpt lat="-27.275206" lon="151.2899086">
  <ele>378.24</ele>
  <time>2026-09-01T19:56:18Z</time>
  <course>11.12</course>
  <speed>5.85</speed>
  <fix>3d</fix>
</trkpt>
<trkpt lat="-27.2751863" lon="151.2899126">
  <ele>378.01</ele>
  <time>2026-09-01T19:56:18Z</time>
  <course>10.17</course>
  <speed>5.764000346981253</speed>
  <fix>3d</fix>
</trkpt>
<trkpt lat="-27.2751958" lon="151.2899109">
  <ele>378.23</ele>
  <time>2026-09-01T19:56:18Z</time>
  <course>11.14</course>
  <speed>5.79</speed>
  <fix>3d</fix>
</trkpt>
<trkpt lat="-27.2751813" lon="151.2899138">
  <ele>378.01</ele>
  <time>2026-09-01T19:56:18Z</time>
  <course>10.18</course>
  <speed>5.73265209130992</speed>
  <fix>3d</fix>
</trkpt>
<trkpt lat="-27.2751958" lon="151.2899109">
  <ele>378.23</ele>
  <time>2026-09-01T19:56:18Z</time>
  <course>11.14</course>
  <speed>5.79</speed>
  <fix>3d</fix>
</trkpt>
<trkpt lat="-27.2751763" lon="151.2899149">
  <ele>378.0</ele>
  <time>2026-09-01T19:56:18Z</time>
  <course>10.2</course>
  <speed>5.693373340999166</speed>
  <fix>3d</fix>
</trkpt>
<trkpt lat="-27.2751856" lon="151.2899131">
  <ele>378.22</ele>
  <time>2026-09-01T19:56:18Z</time>
  <course>11.17</course>
  <speed>5.72</speed>
  <fix>3d</fix>
</trkpt>
<trkpt lat="-27.2751713" lon="151.289916">
  <ele>378.0</ele>
  <time>2026-09-01T19:56:18Z</time>
  <course>10.22</course>
  <speed>5.662022606807571</speed>
  <fix>3d</fix>
</trkpt>
<trkpt lat="-27.2751856" lon="151.2899131">
  <ele>378.22</ele>
  <time>2026-09-01T19:56:18Z</time>
  <course>11.17</course>
  <speed>5.72</speed>
  <fix>3d</fix>
</trkpt>
<trkpt lat="-27.2751664" lon="151.2899171">
  <ele>377.99</ele>
  <time>2026-09-01T19:56:18Z</time>
  <course>10.24</course>
  <speed>5.622748438263978</speed>
  <fix>3d</fix>
</trkpt>
<trkpt lat="-27.2751755" lon="151.2899153">
  <ele>378.2</ele>
  <time>2026-09-01T19:56:18Z</time>
  <course>11.2</course>
  <speed>5.65</speed>
  <fix>3d</fix>
</trkpt>
<trkpt lat="-27.2751615" lon="151.2899182">
  <ele>377.98</ele>
  <time>2026-09-01T19:56:18Z</time>
  <course>10.26</course>
  <speed>5.591395174730543</speed>
  <fix>3d</fix>
</trkpt>
<trkpt lat="-27.2751755" lon="151.2899153">
  <ele>378.2</ele>
  <time>2026-09-01T19:56:18Z</time>
  <course>11.2</course>
  <speed>5.65</speed>
  <fix>3d</fix>
</trkpt>
<trkpt lat="-27.2751566" lon="151.2899193">
  <ele>377.98</ele>
  <time>2026-09-01T19:56:18Z</time>
  <course>10.29</course>
  <speed>5.55212571903771</speed>
  <fix>3d</fix>
</trkpt>
<trkpt lat="-27.2751656" lon="151.2899176">
  <ele>378.19</ele>
  <time>2026-09-01T19:56:18Z</time>
  <course>11.24</course>
  <speed>5.58</speed>
  <fix>3d</fix>
</trkpt>
<trkpt lat="-27.2751518" lon="151.2899204">
  <ele>377.97</ele>
  <time>2026-09-01T19:56:18Z</time>
  <course>10.32</course>
  <speed>5.520769873849117</speed>
  <fix>3d</fix>
</trkpt>
<trkpt lat="-27.2751656" lon="151.2899176">
  <ele>378.19</ele>
  <time>2026-09-01T19:56:18Z</time>
  <course>11.24</course>
  <speed>5.58</speed>
  <fix>3d</fix>
</trkpt>
<trkpt lat="-27.275147" lon="151.2899215">
  <ele>377.96</ele>
  <time>2026-09-01T19:56:18Z</time>
  <course>10.34</course>
  <speed>5.481505267716159</speed>
  <fix>3d</fix>
</trkpt>
<trkpt lat="-27.2751558" lon="151.2899198">
  <ele>378.18</ele>
  <time>2026-09-01T19:56:18Z</time>
  <course>11.28</course>
  <speed>5.51</speed>
  <fix>3d</fix>
</trkpt>
<trkpt lat="-27.2751422" lon="151.2899225">
  <ele>377.96</ele>
  <time>2026-09-01T19:56:18Z</time>
  <course>10.37</course>
  <speed>5.452063829413592</speed>
  <fix>3d</fix>
</trkpt>
<trkpt lat="-27.2751558" lon="151.2899198">
  <ele>378.18</ele>
  <time>2026-09-01T19:56:18Z</time>
  <course>11.28</course>
  <speed>5.51</speed>
  <fix>3d</fix>
</trkpt>
<trkpt lat="-27.2751375" lon="151.2899236">
  <ele>377.95</ele>
  <time>2026-09-01T19:56:18Z</time>
  <course>10.39</course>
  <speed>5.410887173098327</speed>
  <fix>3d</fix>
</trkpt>
<trkpt lat="-27.2751462" lon="151.2899219">
  <ele>378.16</ele>
  <time>2026-09-01T19:56:18Z</time>
  <course>11.33</course>
  <speed>5.44</speed>
  <fix>3d</fix>
</trkpt>
<trkpt lat="-27.2751328" lon="151.2899247">
  <ele>377.95</ele>
  <time>2026-09-01T19:56:18Z</time>
  <course>10.42</course>
  <speed>5.3814496188294845</speed>
  <fix>3d</fix>
</trkpt>
<trkpt lat="-27.2751462" lon="151.2899219">
  <ele>378.16</ele>
  <time>2026-09-01T19:56:18Z</time>
  <course>11.33</course>
  <speed>5.44</speed>
  <fix>3d</fix>
</trkpt>
<trkpt lat="-27.2751281" lon="151.2899258">
  <ele>377.94</ele>
  <time>2026-09-01T19:56:18Z</time>
  <course>10.45</course>
  <speed>5.350084111488342</speed>
  <fix>3d</fix>
</trkpt>
<trkpt lat="-27.2751367" lon="151.2899241">
  <ele>378.15</ele>
  <time>2026-09-01T19:56:18Z</time>
  <course>11.39</course>
  <speed>5.36</speed>
  <fix>3d</fix>
</trkpt>
<trkpt lat="-27.2751234" lon="151.2899268">
  <ele>377.94</ele>
  <time>2026-09-01T19:56:18Z</time>
  <course>10.48</course>
  <speed>5.310837975310488</speed>
  <fix>3d</fix>
</trkpt>
<trkpt lat="-27.2751367" lon="151.2899241">
  <ele>378.15</ele>
  <time>2026-09-01T19:56:18Z</time>
  <course>11.39</course>
  <speed>5.36</speed>
  <fix>3d</fix>
</trkpt>
<trkpt lat="-27.2751188" lon="151.2899279">
  <ele>377.93</ele>
  <time>2026-09-01T19:56:18Z</time>
  <course>10.51</course>
  <speed>5.2814107963687125</speed>
  <fix>3d</fix>
</trkpt>
<trkpt lat="-27.2751273" lon="151.2899262">
  <ele>378.14</ele>
  <time>2026-09-01T19:56:18Z</time>
  <course>11.44</course>
  <speed>5.29</speed>
  <fix>3d</fix>
</trkpt>
<trkpt lat="-27.2751141" lon="151.289929">
  <ele>377.93</ele>
  <time>2026-09-01T19:56:18Z</time>
  <course>10.54</course>
  <speed>5.251990099000568</speed>
  <fix>3d</fix>
</trkpt>
<trkpt lat="-27.2751273" lon="151.2899262">
  <ele>378.14</ele>
  <time>2026-09-01T19:56:18Z</time>
  <course>11.44</course>
  <speed>5.29</speed>
  <fix>3d</fix>
</trkpt>
<trkpt lat="-27.2751095" lon="151.28993">
  <ele>377.92</ele>
  <time>2026-09-01T19:56:18Z</time>
  <course>10.58</course>
  <speed>5.220612990827801</speed>
  <fix>3d</fix>
</trkpt>
<trkpt lat="-27.2751181" lon="151.2899283">
  <ele>378.13</ele>
  <time>2026-09-01T19:56:18Z</time>
  <course>11.51</course>
  <speed>5.23</speed>
  <fix>3d</fix>
</trkpt>
<trkpt lat="-27.2751049" lon="151.2899311">
  <ele>377.92</ele>
  <time>2026-09-01T19:56:18Z</time>
  <course>10.61</course>
  <speed>5.191194467557539</speed>
  <fix>3d</fix>
</trkpt>
<trkpt lat="-27.2751181" lon="151.2899283">
  <ele>378.13</ele>
  <time>2026-09-01T19:56:18Z</time>
  <course>11.51</course>
  <speed>5.23</speed>
  <fix>3d</fix>
</trkpt>
<trkpt lat="-27.2751004" lon="151.2899321">
  <ele>377.91</ele>
  <time>2026-09-01T19:56:18Z</time>
  <course>10.65</course>
  <speed>5.1617826378103135</speed>
  <fix>3d</fix>
</trkpt>
<trkpt lat="-27.2751089" lon="151.2899304">
  <ele>378.13</ele>
  <time>2026-09-01T19:56:18Z</time>
  <course>11.58</course>
  <speed>5.16</speed>
  <fix>3d</fix>
</trkpt>
<trkpt lat="-27.2750959" lon="151.2899332">
  <ele>377.91</ele>
  <time>2026-09-01T19:56:18Z</time>
  <course>10.69</course>
  <speed>5.142178526655798</speed>
  <fix>3d</fix>
</trkpt>
<trkpt lat="-27.2751089" lon="151.2899304">
  <ele>378.13</ele>
  <time>2026-09-01T19:56:18Z</time>
  <course>11.58</course>
  <speed>5.16</speed>
  <fix>3d</fix>
</trkpt>
<trkpt lat="-27.2750914" lon="151.2899342">
  <ele>377.91</ele>
  <time>2026-09-01T19:56:18Z</time>
  <course>10.73</course>
  <speed>5.110792502146805</speed>
  <fix>3d</fix>
</trkpt>
<trkpt lat="-27.2750999" lon="151.2899325">
  <ele>378.12</ele>
  <time>2026-09-01T19:56:18Z</time>
  <course>11.65</course>
  <speed>5.1</speed>
  <fix>3d</fix>
</trkpt>
<trkpt lat="-27.275087" lon="151.2899353">
  <ele>377.91</ele>
  <time>2026-09-01T19:56:18Z</time>
  <course>10.77</course>
  <speed>5.08138760576282</speed>
  <fix>3d</fix>
</trkpt>
<trkpt lat="-27.2750999" lon="151.2899325">
  <ele>378.12</ele>
  <time>2026-09-01T19:56:18Z</time>
  <course>11.65</course>
  <speed>5.1</speed>
  <fix>3d</fix>
</trkpt>
<trkpt lat="-27.2750826" lon="151.2899363">
  <ele>377.91</ele>
  <time>2026-09-01T19:56:18Z</time>
  <course>10.81</course>
  <speed>5.0519897070362285</speed>
  <fix>3d</fix>
</trkpt>
<trkpt lat="-27.2750909" lon="151.2899346">
  <ele>378.12</ele>
  <time>2026-09-01T19:56:18Z</time>
  <course>11.72</course>
  <speed>5.04</speed>
  <fix>3d</fix>
</trkpt>
<trkpt lat="-27.2750782" lon="151.2899373">
  <ele>377.91</ele>
  <time>2026-09-01T19:56:18Z</time>
  <course>10.85</course>
  <speed>5.032395056034453</speed>
  <fix>3d</fix>
</trkpt>
<trkpt lat="-27.2750909" lon="151.2899346">
  <ele>378.12</ele>
  <time>2026-09-01T19:56:18Z</time>
  <course>11.72</course>
  <speed>5.04</speed>
  <fix>3d</fix>
</trkpt>
<trkpt lat="-27.2750739" lon="151.2899384">
  <ele>377.91</ele>
  <time>2026-09-01T19:56:18Z</time>
  <course>10.89</course>
  <speed>5.000999900019995</speed>
  <fix>3d</fix>
</trkpt>
<trkpt lat="-27.2750821" lon="151.2899367">
  <ele>378.11</ele>
  <time>2026-09-01T19:56:18Z</time>
  <course>11.79</course>
  <speed>4.99</speed>
  <fix>3d</fix>
</trkpt>
<trkpt lat="-27.2750695" lon="151.2899394">
  <ele>377.91</ele>
  <time>2026-09-01T19:56:18Z</time>
  <course>10.92</course>
  <speed>4.981405424174989</speed>
  <fix>3d</fix>
</trkpt>
<trkpt lat="-27.2750821" lon="151.2899367">
  <ele>378.11</ele>
  <time>2026-09-01T19:56:18Z</time>
  <course>11.79</course>
  <speed>4.99</speed>
  <fix>3d</fix>
</trkpt>
<trkpt lat="-27.2750652" lon="151.2899404">
  <ele>377.91</ele>
  <time>2026-09-01T19:56:18Z</time>
  <course>10.96</course>
  <speed>4.9618141843483015</speed>
  <fix>3d</fix>
</trkpt>
<trkpt lat="-27.2750733" lon="151.2899387">
  <ele>378.11</ele>
  <time>2026-09-01T19:56:18Z</time>
  <course>11.86</course>
  <speed>4.94</speed>
  <fix>3d</fix>
</trkpt>
<trkpt lat="-27.2750609" lon="151.2899414">
  <ele>377.9</ele>
  <time>2026-09-01T19:56:18Z</time>
  <course>11.0</course>
  <speed>4.942226219023164</speed>
  <fix>3d</fix>
</trkpt>
<trkpt lat="-27.2750733" lon="151.2899387">
  <ele>378.11</ele>
  <time>2026-09-01T19:56:18Z</time>
  <course>11.86</course>
  <speed>4.94</speed>
  <fix>3d</fix>
</trkpt>
<trkpt lat="-27.2750566" lon="151.2899425">
  <ele>377.9</ele>
  <time>2026-09-01T19:56:18Z</time>
  <course>11.04</course>
  <speed>4.9226415672888475</speed>
  <fix>3d</fix>
</trkpt>
<trkpt lat="-27.2750647" lon="151.2899407">
  <ele>378.11</ele>
  <time>2026-09-01T19:56:18Z</time>
  <course>11.93</course>
  <speed>4.9</speed>
  <fix>3d</fix>
</trkpt>
<trkpt lat="-27.2750523" lon="151.2899435">
  <ele>377.9</ele>
  <time>2026-09-01T19:56:18Z</time>
  <course>11.07</course>
  <speed>4.903060268852505</speed>
  <fix>3d</fix>
</trkpt>
<trkpt lat="-27.2750647" lon="151.2899407">
  <ele>378.11</ele>
  <time>2026-09-01T19:56:18Z</time>
  <course>11.93</course>
  <speed>4.9</speed>
  <fix>3d</fix>
</trkpt>
<trkpt lat="-27.2750481" lon="151.2899445">
  <ele>377.9</ele>
  <time>2026-09-01T19:56:18Z</time>
  <course>11.11</course>
  <speed>4.893270889701489</speed>
  <fix>3d</fix>
</trkpt>
<trkpt lat="-27.2750561" lon="151.2899428">
  <ele>378.11</ele>
  <time>2026-09-01T19:56:18Z</time>
  <course>11.99</course>
  <speed>4.86</speed>
  <fix>3d</fix>
</trkpt>
<trkpt lat="-27.2750439" lon="151.2899455">
  <ele>377.9</ele>
  <time>2026-09-01T19:56:18Z</time>
  <course>11.14</course>
  <speed>4.871652696980769</speed>
  <fix>3d</fix>
</trkpt>
<trkpt lat="-27.2750561" lon="151.2899428">
  <ele>378.11</ele>
  <time>2026-09-01T19:56:18Z</time>
  <course>11.99</course>
  <speed>4.86</speed>
  <fix>3d</fix>
</trkpt>
<trkpt lat="-27.2750397" lon="151.2899465">
  <ele>377.9</ele>
  <time>2026-09-01T19:56:18Z</time>
  <course>11.18</course>
  <speed>4.8618617833089415</speed>
  <fix>3d</fix>
</trkpt>
<trkpt lat="-27.2750476" lon="151.2899449">
  <ele>378.11</ele>
  <time>2026-09-01T19:56:18Z</time>
  <course>12.05</course>
  <speed>4.83</speed>
  <fix>3d</fix>
</trkpt>
<trkpt lat="-27.2750354" lon="151.2899475">
  <ele>377.9</ele>
  <time>2026-09-01T19:56:18Z</time>
  <course>11.21</course>
  <speed>4.852071722470722</speed>
  <fix>3d</fix>
</trkpt>
<trkpt lat="-27.2750476" lon="151.2899449">
  <ele>378.11</ele>
  <time>2026-09-01T19:56:18Z</time>
  <course>12.05</course>
  <speed>4.83</speed>
  <fix>3d</fix>
</trkpt>
<trkpt lat="-27.2750312" lon="151.2899486">
  <ele>377.9</ele>
  <time>2026-09-01T19:56:18Z</time>
  <course>11.24</course>
  <speed>4.842282519638854</speed>
  <fix>3d</fix>
</trkpt>
<trkpt lat="-27.2750391" lon="151.2899469">
  <ele>378.11</ele>
  <time>2026-09-01T19:56:18Z</time>
  <course>12.11</course>
  <speed>4.8</speed>
  <fix>3d</fix>
</trkpt>
<trkpt lat="-27.275027" lon="151.2899496">
  <ele>377.9</ele>
  <time>2026-09-01T19:56:18Z</time>
  <course>11.27</course>
  <speed>4.832494180027536</speed>
  <fix>3d</fix>
</trkpt>
<trkpt lat="-27.2750391" lon="151.2899469">
  <ele>378.11</ele>
  <time>2026-09-01T19:56:18Z</time>
  <course>12.11</course>
  <speed>4.8</speed>
  <fix>3d</fix>
</trkpt>
<trkpt lat="-27.2750227" lon="151.2899506">
  <ele>377.9</ele>
  <time>2026-09-01T19:56:18Z</time>
  <course>11.3</course>
  <speed>4.822706708892839</speed>
  <fix>3d</fix>
</trkpt>
<trkpt lat="-27.2750307" lon="151.2899489">
  <ele>378.11</ele>
  <time>2026-09-01T19:56:18Z</time>
  <course>12.17</course>
  <speed>4.78</speed>
  <fix>3d</fix>
</trkpt>
<trkpt lat="-27.2750185" lon="151.2899516">
  <ele>377.9</ele>
  <time>2026-09-01T19:56:18Z</time>
  <course>11.33</course>
  <speed>4.824769424542483</speed>
  <fix>3d</fix>
</trkpt>
<trkpt lat="-27.2750307" lon="151.2899489">
  <ele>378.11</ele>
  <time>2026-09-01T19:56:18Z</time>
  <course>12.17</course>
  <speed>4.78</speed>
  <fix>3d</fix>
</trkpt>
<trkpt lat="-27.2750143" lon="151.2899527">
  <ele>377.9</ele>
  <time>2026-09-01T19:56:18Z</time>
  <course>11.36</course>
  <speed>4.814987019712515</speed>
  <fix>3d</fix>
</trkpt>
<trkpt lat="-27.2750223" lon="151.289951">
  <ele>378.11</ele>
  <time>2026-09-01T19:56:18Z</time>
  <course>12.22</course>
  <speed>4.76</speed>
  <fix>3d</fix>
</trkpt>
<trkpt lat="-27.2750101" lon="151.2899537">
  <ele>377.9</ele>
  <time>2026-09-01T19:56:18Z</time>
  <course>11.39</course>
  <speed>4.814987019712515</speed>
  <fix>3d</fix>
</trkpt>
<trkpt lat="-27.2750223" lon="151.289951">
  <ele>378.11</ele>
  <time>2026-09-01T19:56:18Z</time>
  <course>12.22</course>
  <speed>4.76</speed>
  <fix>3d</fix>
</trkpt>
<trkpt lat="-27.2750059" lon="151.2899547">
  <ele>377.9</ele>
  <time>2026-09-01T19:56:18Z</time>
  <course>11.42</course>
  <speed>4.805205510693585</speed>
  <fix>3d</fix>
</trkpt>
<trkpt lat="-27.2750139" lon="151.289953">
  <ele>378.12</ele>
  <time>2026-09-01T19:56:18Z</time>
  <course>12.26</course>
  <speed>4.75</speed>
  <fix>3d</fix>
</trkpt>
<trkpt lat="-27.2750017" lon="151.2899558">
  <ele>377.91</ele>
  <time>2026-09-01T19:56:18Z</time>
  <course>11.44</course>
  <speed>4.805205510693585</speed>
  <fix>3d</fix>
</trkpt>
<trkpt lat="-27.2750139" lon="151.289953">
  <ele>378.12</ele>
  <time>2026-09-01T19:56:18Z</time>
  <course>12.26</course>
  <speed>4.75</speed>
  <fix>3d</fix>
</trkpt>
<trkpt lat="-27.2749976" lon="151.2899568">
  <ele>377.91</ele>
  <time>2026-09-01T19:56:18Z</time>
  <course>11.46</course>
  <speed>4.795424902967411</speed>
  <fix>3d</fix>
</trkpt>
<trkpt lat="-27.2750056" lon="151.289955">
  <ele>378.12</ele>
  <time>2026-09-01T19:56:18Z</time>
  <course>12.3</course>
  <speed>4.74</speed>
  <fix>3d</fix>
</trkpt>
<trkpt lat="-27.2749934" lon="151.2899578">
  <ele>377.91</ele>
  <time>2026-09-01T19:56:18Z</time>
  <course>11.49</course>
  <speed>4.795424902967411</speed>
  <fix>3d</fix>
</trkpt>
<trkpt lat="-27.2750056" lon="151.289955">
  <ele>378.12</ele>
  <time>2026-09-01T19:56:18Z</time>
  <course>12.3</course>
  <speed>4.74</speed>
  <fix>3d</fix>
</trkpt>
<trkpt lat="-27.2749893" lon="151.2899588">
  <ele>377.91</ele>
  <time>2026-09-01T19:56:18Z</time>
  <course>11.51</course>
  <speed>4.795424902967411</speed>
  <fix>3d</fix>
</trkpt>
<trkpt lat="-27.2749973" lon="151.2899571">
  <ele>378.12</ele>
  <time>2026-09-01T19:56:18Z</time>
  <course>12.33</course>
  <speed>4.74</speed>
  <fix>3d</fix>
</trkpt>
<trkpt lat="-27.2749851" lon="151.2899598">
  <ele>377.91</ele>
  <time>2026-09-01T19:56:18Z</time>
  <course>11.53</course>
  <speed>4.795424902967411</speed>
  <fix>3d</fix>
</trkpt>
<trkpt lat="-27.2749973" lon="151.2899571">
  <ele>378.12</ele>
  <time>2026-09-01T19:56:18Z</time>
  <course>12.33</course>
  <speed>4.74</speed>
  <fix>3d</fix>
</trkpt>
<trkpt lat="-27.274981" lon="151.2899609">
  <ele>377.92</ele>
  <time>2026-09-01T19:56:18Z</time>
  <course>11.54</course>
  <speed>4.795424902967411</speed>
  <fix>3d</fix>
</trkpt>
<trkpt lat="-27.2749889" lon="151.2899592">
  <ele>378.12</ele>
  <time>2026-09-01T19:56:18Z</time>
  <course>12.36</course>
  <speed>4.73</speed>
  <fix>3d</fix>
</trkpt>
<trkpt lat="-27.2749768" lon="151.2899619">
  <ele>377.92</ele>
  <time>2026-09-01T19:56:18Z</time>
  <course>11.56</course>
  <speed>4.795424902967411</speed>
  <fix>3d</fix>
</trkpt>
<trkpt lat="-27.2749889" lon="151.2899592">
  <ele>378.12</ele>
  <time>2026-09-01T19:56:18Z</time>
  <course>12.36</course>
  <speed>4.73</speed>
  <fix>3d</fix>
</trkpt>
<trkpt lat="-27.2749727" lon="151.2899629">
  <ele>377.92</ele>
  <time>2026-09-01T19:56:18Z</time>
  <course>11.57</course>
  <speed>4.795424902967411</speed>
  <fix>3d</fix>
</trkpt>
<trkpt lat="-27.2749806" lon="151.2899612">
  <ele>378.13</ele>
  <time>2026-09-01T19:56:18Z</time>
  <course>12.38</course>
  <speed>4.73</speed>
  <fix>3d</fix>
</trkpt>
<trkpt lat="-27.2749686" lon="151.2899639">
  <ele>377.92</ele>
  <time>2026-09-01T19:56:18Z</time>
  <course>11.59</course>
  <speed>4.795424902967411</speed>
  <fix>3d</fix>
</trkpt>
<trkpt lat="-27.2749806" lon="151.2899612">
  <ele>378.13</ele>
  <time>2026-09-01T19:56:18Z</time>
  <course>12.38</course>
  <speed>4.73</speed>
  <fix>3d</fix>
</trkpt>
<trkpt lat="-27.2749644" lon="151.2899649">
  <ele>377.93</ele>
  <time>2026-09-01T19:56:18Z</time>
  <course>11.6</course>
  <speed>4.795424902967411</speed>
  <fix>3d</fix>
</trkpt>
<trkpt lat="-27.2749723" lon="151.2899632">
  <ele>378.13</ele>
  <time>2026-09-01T19:56:18Z</time>
  <course>12.4</course>
  <speed>4.74</speed>
  <fix>3d</fix>
</trkpt>
<trkpt lat="-27.2749603" lon="151.289966">
  <ele>377.93</ele>
  <time>2026-09-01T19:56:18Z</time>
  <course>11.61</course>
  <speed>4.795424902967411</speed>
  <fix>3d</fix>
</trkpt>
<trkpt lat="-27.2749723" lon="151.2899632">
  <ele>378.13</ele>
  <time>2026-09-01T19:56:18Z</time>
  <course>12.4</course>
  <speed>4.74</speed>
  <fix>3d</fix>
</trkpt>
<trkpt lat="-27.2749561" lon="151.289967">
  <ele>377.93</ele>
  <time>2026-09-01T19:56:18Z</time>
  <course>11.63</course>
  <speed>4.805205510693585</speed>
  <fix>3d</fix>
</trkpt>
<trkpt lat="-27.274964" lon="151.2899653">
  <ele>378.13</ele>
  <time>2026-09-01T19:56:18Z</time>
  <course>12.41</course>
  <speed>4.75</speed>
  <fix>3d</fix>
</trkpt>
<trkpt lat="-27.274952" lon="151.289968">
  <ele>377.93</ele>
  <time>2026-09-01T19:56:18Z</time>
  <course>11.64</course>
  <speed>4.807296537556217</speed>
  <fix>3d</fix>
</trkpt>
<trkpt lat="-27.274964" lon="151.2899653">
  <ele>378.13</ele>
  <time>2026-09-01T19:56:18Z</time>
  <course>12.41</course>
  <speed>4.75</speed>
  <fix>3d</fix>
</trkpt>
<trkpt lat="-27.2749478" lon="151.2899691">
  <ele>377.93</ele>
  <time>2026-09-01T19:56:18Z</time>
  <course>11.64</course>
  <speed>4.807296537556217</speed>
  <fix>3d</fix>
</trkpt>
<trkpt lat="-27.2749556" lon="151.2899674">
  <ele>378.13</ele>
  <time>2026-09-01T19:56:18Z</time>
  <course>12.42</course>
  <speed>4.76</speed>
  <fix>3d</fix>
</trkpt>
<trkpt lat="-27.2749436" lon="151.2899701">
  <ele>377.93</ele>
  <time>2026-09-01T19:56:18Z</time>
  <course>11.65</course>
  <speed>4.817073800555686</speed>
  <fix>3d</fix>
</trkpt>
<trkpt lat="-27.2749556" lon="151.2899674">
  <ele>378.13</ele>
  <time>2026-09-01T19:56:18Z</time>
  <course>12.42</course>
  <speed>4.76</speed>
  <fix>3d</fix>
</trkpt>
<trkpt lat="-27.2749394" lon="151.2899711">
  <ele>377.93</ele>
  <time>2026-09-01T19:56:18Z</time>
  <course>11.66</course>
  <speed>4.817073800555686</speed>
  <fix>3d</fix>
</trkpt>
<trkpt lat="-27.2749473" lon="151.2899695">
  <ele>378.13</ele>
  <time>2026-09-01T19:56:18Z</time>
  <course>12.42</course>
  <speed>4.77</speed>
  <fix>3d</fix>
</trkpt>
<trkpt lat="-27.2749352" lon="151.2899722">
  <ele>377.93</ele>
  <time>2026-09-01T19:56:18Z</time>
  <course>11.66</course>
  <speed>4.8268519761848925</speed>
  <fix>3d</fix>
</trkpt>
<trkpt lat="-27.2749473" lon="151.2899695">
  <ele>378.13</ele>
  <time>2026-09-01T19:56:18Z</time>
  <course>12.42</course>
  <speed>4.77</speed>
  <fix>3d</fix>
</trkpt>
<trkpt lat="-27.274931" lon="151.2899732">
  <ele>377.93</ele>
  <time>2026-09-01T19:56:18Z</time>
  <course>11.67</course>
  <speed>4.83663105890867</speed>
  <fix>3d</fix>
</trkpt>
<trkpt lat="-27.2749389" lon="151.2899716">
  <ele>378.13</ele>
  <time>2026-09-01T19:56:18Z</time>
  <course>12.42</course>
  <speed>4.78</speed>
  <fix>3d</fix>
</trkpt>
<trkpt lat="-27.2749268" lon="151.2899743">
  <ele>377.93</ele>
  <time>2026-09-01T19:56:18Z</time>
  <course>11.67</course>
  <speed>4.846411043236015</speed>
  <fix>3d</fix>
</trkpt>
<trkpt lat="-27.2749389" lon="151.2899716">
  <ele>378.13</ele>
  <time>2026-09-01T19:56:18Z</time>
  <course>12.42</course>
  <speed>4.78</speed>
  <fix>3d</fix>
</trkpt>
<trkpt lat="-27.2749225" lon="151.2899753">
  <ele>377.93</ele>
  <time>2026-09-01T19:56:18Z</time>
  <course>11.67</course>
  <speed>4.846411043236015</speed>
  <fix>3d</fix>
</trkpt>
<trkpt lat="-27.2749304" lon="151.2899736">
  <ele>378.13</ele>
  <time>2026-09-01T19:56:18Z</time>
  <course>12.42</course>
  <speed>4.79</speed>
  <fix>3d</fix>
</trkpt>
<trkpt lat="-27.2749183" lon="151.2899764">
  <ele>377.93</ele>
  <time>2026-09-01T19:56:18Z</time>
  <course>11.68</course>
  <speed>4.8561919237196545</speed>
  <fix>3d</fix>
</trkpt>
<trkpt lat="-27.2749304" lon="151.2899736">
  <ele>378.13</ele>
  <time>2026-09-01T19:56:18Z</time>
  <course>12.42</course>
  <speed>4.79</speed>
  <fix>3d</fix>
</trkpt>
<trkpt lat="-27.2749141" lon="151.2899774">
  <ele>377.93</ele>
  <time>2026-09-01T19:56:18Z</time>
  <course>11.68</course>
  <speed>4.86805916151396</speed>
  <fix>3d</fix>
</trkpt>
<trkpt lat="-27.2749221" lon="151.2899757">
  <ele>378.13</ele>
  <time>2026-09-01T19:56:18Z</time>
  <course>12.4</course>
  <speed>4.81</speed>
  <fix>3d</fix>
</trkpt>
<trkpt lat="-27.2749098" lon="151.2899785">
  <ele>377.93</ele>
  <time>2026-09-01T19:56:18Z</time>
  <course>11.68</course>
  <speed>4.86805916151396</speed>
  <fix>3d</fix>
</trkpt>
<trkpt lat="-27.2749221" lon="151.2899757">
  <ele>378.13</ele>
  <time>2026-09-01T19:56:18Z</time>
  <course>12.4</course>
  <speed>4.81</speed>
  <fix>3d</fix>
</trkpt>
<trkpt lat="-27.2749056" lon="151.2899795">
  <ele>377.93</ele>
  <time>2026-09-01T19:56:18Z</time>
  <course>11.68</course>
  <speed>4.877837635674234</speed>
  <fix>3d</fix>
</trkpt>
<trkpt lat="-27.2749136" lon="151.2899778">
  <ele>378.13</ele>
  <time>2026-09-01T19:56:18Z</time>
  <course>12.39</course>
  <speed>4.82</speed>
  <fix>3d</fix>
</trkpt>
<trkpt lat="-27.2749014" lon="151.2899805">
  <ele>377.93</ele>
  <time>2026-09-01T19:56:18Z</time>
  <course>11.67</course>
  <speed>4.877837635674234</speed>
  <fix>3d</fix>
</trkpt>
<trkpt lat="-27.2749136" lon="151.2899778">
  <ele>378.13</ele>
  <time>2026-09-01T19:56:18Z</time>
  <course>12.39</course>
  <speed>4.82</speed>
  <fix>3d</fix>
</trkpt>
<trkpt lat="-27.2748972" lon="151.2899816">
  <ele>377.93</ele>
  <time>2026-09-01T19:56:18Z</time>
  <course>11.67</course>
  <speed>4.887617006272075</speed>
  <fix>3d</fix>
</trkpt>
<trkpt lat="-27.2749051" lon="151.2899799">
  <ele>378.13</ele>
  <time>2026-09-01T19:56:18Z</time>
  <course>12.37</course>
  <speed>4.84</speed>
  <fix>3d</fix>
</trkpt>
<trkpt lat="-27.2748929" lon="151.2899826">
  <ele>377.93</ele>
  <time>2026-09-01T19:56:18Z</time>
  <course>11.66</course>
  <speed>4.897397267937327</speed>
  <fix>3d</fix>
</trkpt>
<trkpt lat="-27.2749051" lon="151.2899799">
  <ele>378.13</ele>
  <time>2026-09-01T19:56:18Z</time>
  <course>12.37</course>
  <speed>4.84</speed>
  <fix>3d</fix>
</trkpt>
<trkpt lat="-27.2748887" lon="151.2899837">
  <ele>377.93</ele>
  <time>2026-09-01T19:56:18Z</time>
  <course>11.66</course>
  <speed>4.897397267937327</speed>
  <fix>3d</fix>
</trkpt>
<trkpt lat="-27.2748966" lon="151.289982">
  <ele>378.13</ele>
  <time>2026-09-01T19:56:18Z</time>
  <course>12.35</course>
  <speed>4.85</speed>
  <fix>3d</fix>
</trkpt>
<trkpt lat="-27.2748844" lon="151.2899847">
  <ele>377.93</ele>
  <time>2026-09-01T19:56:18Z</time>
  <course>11.65</course>
  <speed>4.907178415342161</speed>
  <fix>3d</fix>
</trkpt>
<trkpt lat="-27.2748966" lon="151.289982">
  <ele>378.13</ele>
  <time>2026-09-01T19:56:18Z</time>
  <course>12.35</course>
  <speed>4.85</speed>
  <fix>3d</fix>
</trkpt>
<trkpt lat="-27.2748802" lon="151.2899858">
  <ele>377.93</ele>
  <time>2026-09-01T19:56:18Z</time>
  <course>11.65</course>
  <speed>4.907178415342161</speed>
  <fix>3d</fix>
</trkpt>
<trkpt lat="-27.2748881" lon="151.2899841">
  <ele>378.13</ele>
  <time>2026-09-01T19:56:18Z</time>
  <course>12.33</course>
  <speed>4.87</speed>
  <fix>3d</fix>
</trkpt>
<trkpt lat="-27.2748759" lon="151.2899868">
  <ele>377.93</ele>
  <time>2026-09-01T19:56:18Z</time>
  <course>11.64</course>
  <speed>4.916960443200657</speed>
  <fix>3d</fix>
</trkpt>
<trkpt lat="-27.2748881" lon="151.2899841">
  <ele>378.13</ele>
  <time>2026-09-01T19:56:18Z</time>
  <course>12.33</course>
  <speed>4.87</speed>
  <fix>3d</fix>
</trkpt>
<trkpt lat="-27.2748716" lon="151.2899879">
  <ele>377.93</ele>
  <time>2026-09-01T19:56:18Z</time>
  <course>11.63</course>
  <speed>4.916960443200657</speed>
  <fix>3d</fix>
</trkpt>
<trkpt lat="-27.2748795" lon="151.2899862">
  <ele>378.13</ele>
  <time>2026-09-01T19:56:18Z</time>
  <course>12.3</course>
  <speed>4.88</speed>
  <fix>3d</fix>
</trkpt>
<trkpt lat="-27.2748673" lon="151.2899889">
  <ele>377.93</ele>
  <time>2026-09-01T19:56:18Z</time>
  <course>11.62</course>
  <speed>4.926743346268405</speed>
  <fix>3d</fix>
</trkpt>
<trkpt lat="-27.2748795" lon="151.2899862">
  <ele>378.13</ele>
  <time>2026-09-01T19:56:18Z</time>
  <course>12.3</course>
  <speed>4.88</speed>
  <fix>3d</fix>
</trkpt>
<trkpt lat="-27.274863" lon="151.28999">
  <ele>377.93</ele>
  <time>2026-09-01T19:56:18Z</time>
  <course>11.61</course>
  <speed>4.936527119342099</speed>
  <fix>3d</fix>
</trkpt>
<trkpt lat="-27.2748709" lon="151.2899883">
  <ele>378.13</ele>
  <time>2026-09-01T19:56:18Z</time>
  <course>12.27</course>
  <speed>4.9</speed>
  <fix>3d</fix>
</trkpt>
<trkpt lat="-27.2748587" lon="151.289991">
  <ele>377.93</ele>
  <time>2026-09-01T19:56:18Z</time>
  <course>11.6</course>
  <speed>4.936527119342099</speed>
  <fix>3d</fix>
</trkpt>
<trkpt lat="-27.2748709" lon="151.2899883">
  <ele>378.13</ele>
  <time>2026-09-01T19:56:18Z</time>
  <course>12.27</course>
  <speed>4.9</speed>
  <fix>3d</fix>
</trkpt>
<trkpt lat="-27.2748544" lon="151.2899921">
  <ele>377.93</ele>
  <time>2026-09-01T19:56:18Z</time>
  <course>11.59</course>
  <speed>4.9463117572591395</speed>
  <fix>3d</fix>
</trkpt>
<trkpt lat="-27.2748623" lon="151.2899904">
  <ele>378.13</ele>
  <time>2026-09-01T19:56:18Z</time>
  <course>12.24</course>
  <speed>4.91</speed>
  <fix>3d</fix>
</trkpt>
<trkpt lat="-27.2748502" lon="151.2899931">
  <ele>377.93</ele>
  <time>2026-09-01T19:56:18Z</time>
  <course>11.59</course>
  <speed>4.956097254897244</speed>
  <fix>3d</fix>
</trkpt>
<trkpt lat="-27.2748623" lon="151.2899904">
  <ele>378.13</ele>
  <time>2026-09-01T19:56:18Z</time>
  <course>12.24</course>
  <speed>4.91</speed>
  <fix>3d</fix>
</trkpt>
<trkpt lat="-27.2748458" lon="151.2899942">
  <ele>377.92</ele>
  <time>2026-09-01T19:56:18Z</time>
  <course>11.58</course>
  <speed>4.956097254897244</speed>
  <fix>3d</fix>
</trkpt>
<trkpt lat="-27.2748536" lon="151.2899925">
  <ele>378.13</ele>
  <time>2026-09-01T19:56:18Z</time>
  <course>12.21</course>
  <speed>4.93</speed>
  <fix>3d</fix>
</trkpt>
<trkpt lat="-27.2748415" lon="151.2899952">
  <ele>377.92</ele>
  <time>2026-09-01T19:56:18Z</time>
  <course>11.57</course>
  <speed>4.965883607174055</speed>
  <fix>3d</fix>
</trkpt>
<trkpt lat="-27.2748536" lon="151.2899925">
  <ele>378.13</ele>
  <time>2026-09-01T19:56:18Z</time>
  <course>12.21</course>
  <speed>4.93</speed>
  <fix>3d</fix>
</trkpt>
<trkpt lat="-27.274837" lon="151.2899963">
  <ele>377.92</ele>
  <time>2026-09-01T19:56:18Z</time>
  <course>11.56</course>
  <speed>4.975670809046756</speed>
  <fix>3d</fix>
</trkpt>
<trkpt lat="-27.2748449" lon="151.2899947">
  <ele>378.13</ele>
  <time>2026-09-01T19:56:18Z</time>
  <course>12.18</course>
  <speed>4.94</speed>
  <fix>3d</fix>
</trkpt>
<trkpt lat="-27.2748326" lon="151.2899974">
  <ele>377.92</ele>
  <time>2026-09-01T19:56:18Z</time>
  <course>11.55</course>
  <speed>4.985458855511697</speed>
  <fix>3d</fix>
</trkpt>
<trkpt lat="-27.2748449" lon="151.2899947">
  <ele>378.13</ele>
  <time>2026-09-01T19:56:18Z</time>
  <course>12.18</course>
  <speed>4.94</speed>
  <fix>3d</fix>
</trkpt>
<trkpt lat="-27.2748283" lon="151.2899984">
  <ele>377.92</ele>
  <time>2026-09-01T19:56:18Z</time>
  <course>11.54</course>
  <speed>4.985458855511697</speed>
  <fix>3d</fix>
</trkpt>
<trkpt lat="-27.2748362" lon="151.2899968">
  <ele>378.13</ele>
  <time>2026-09-01T19:56:18Z</time>
  <course>12.15</course>
  <speed>4.96</speed>
  <fix>3d</fix>
</trkpt>
<trkpt lat="-27.2748239" lon="151.2899995">
  <ele>377.92</ele>
  <time>2026-09-01T19:56:18Z</time>
  <course>11.52</course>
  <speed>4.995247741604014</speed>
  <fix>3d</fix>
</trkpt>
<trkpt lat="-27.2748362" lon="151.2899968">
  <ele>378.13</ele>
  <time>2026-09-01T19:56:18Z</time>
  <course>12.15</course>
  <speed>4.96</speed>
  <fix>3d</fix>
</trkpt>
<trkpt lat="-27.2748195" lon="151.2900005">
  <ele>377.93</ele>
  <time>2026-09-01T19:56:18Z</time>
  <course>11.51</course>
  <speed>4.995247741604014</speed>
  <fix>3d</fix>
</trkpt>
<trkpt lat="-27.2748275" lon="151.2899989">
  <ele>378.13</ele>
  <time>2026-09-01T19:56:18Z</time>
  <course>12.12</course>
  <speed>4.97</speed>
  <fix>3d</fix>
</trkpt>
<trkpt lat="-27.2748151" lon="151.2900016">
  <ele>377.93</ele>
  <time>2026-09-01T19:56:18Z</time>
  <course>11.5</course>
  <speed>5.00503746239726</speed>
  <fix>3d</fix>
</trkpt>
<trkpt lat="-27.2748275" lon="151.2899989">
  <ele>378.13</ele>
  <time>2026-09-01T19:56:18Z</time>
  <course>12.12</course>
  <speed>4.97</speed>
  <fix>3d</fix>
</trkpt>
<trkpt lat="-27.2748108" lon="151.2900027">
  <ele>377.93</ele>
  <time>2026-09-01T19:56:18Z</time>
  <course>11.49</course>
  <speed>5.00503746239726</speed>
  <fix>3d</fix>
</trkpt>
<trkpt lat="-27.2748188" lon="151.290001">
  <ele>378.13</ele>
  <time>2026-09-01T19:56:18Z</time>
  <course>12.09</course>
  <speed>4.98</speed>
  <fix>3d</fix>
</trkpt>
<trkpt lat="-27.2748064" lon="151.2900037">
  <ele>377.93</ele>
  <time>2026-09-01T19:56:18Z</time>
  <course>11.48</course>
  <speed>5.00503746239726</speed>
  <fix>3d</fix>
</trkpt>
<trkpt lat="-27.2748188" lon="151.290001">
  <ele>378.13</ele>
  <time>2026-09-01T19:56:18Z</time>
  <course>12.09</course>
  <speed>4.98</speed>
  <fix>3d</fix>
</trkpt>
<trkpt lat="-27.274802" lon="151.2900048">
  <ele>377.94</ele>
  <time>2026-09-01T19:56:18Z</time>
  <course>11.47</course>
  <speed>5.00503746239726</speed>
  <fix>3d</fix>
</trkpt>
<trkpt lat="-27.27481" lon="151.2900031">
  <ele>378.13</ele>
  <time>2026-09-01T19:56:18Z</time>
  <course>12.06</course>
  <speed>4.99</speed>
  <fix>3d</fix>
</trkpt>
<trkpt lat="-27.2747976" lon="151.2900058">
  <ele>377.94</ele>
  <time>2026-09-01T19:56:18Z</time>
  <course>11.46</course>
  <speed>5.014828013003038</speed>
  <fix>3d</fix>
</trkpt>
<trkpt lat="-27.27481" lon="151.2900031">
  <ele>378.13</ele>
  <time>2026-09-01T19:56:18Z</time>
  <course>12.06</course>
  <speed>4.99</speed>
  <fix>3d</fix>
</trkpt>
<trkpt lat="-27.2747932" lon="151.2900069">
  <ele>377.94</ele>
  <time>2026-09-01T19:56:18Z</time>
  <course>11.45</course>
  <speed>5.014828013003038</speed>
  <fix>3d</fix>
</trkpt>
<trkpt lat="-27.2748012" lon="151.2900052">
  <ele>378.13</ele>
  <time>2026-09-01T19:56:18Z</time>
  <course>12.03</course>
  <speed>4.99</speed>
  <fix>3d</fix>
</trkpt>
<trkpt lat="-27.2747888" lon="151.2900079">
  <ele>377.94</ele>
  <time>2026-09-01T19:56:18Z</time>
  <course>11.44</course>
  <speed>5.014828013003038</speed>
  <fix>3d</fix>
</trkpt>
<trkpt lat="-27.2748012" lon="151.2900052">
  <ele>378.13</ele>
  <time>2026-09-01T19:56:18Z</time>
  <course>12.03</course>
  <speed>4.99</speed>
  <fix>3d</fix>
</trkpt>
<trkpt lat="-27.2747844" lon="151.290009">
  <ele>377.94</ele>
  <time>2026-09-01T19:56:18Z</time>
  <course>11.43</course>
  <speed>5.014828013003038</speed>
  <fix>3d</fix>
</trkpt>
<trkpt lat="-27.2747924" lon="151.2900073">
  <ele>378.13</ele>
  <time>2026-09-01T19:56:18Z</time>
  <course>12.0</course>
  <speed>5.0</speed>
  <fix>3d</fix>
</trkpt>
<trkpt lat="-27.27478" lon="151.29001">
  <ele>377.94</ele>
  <time>2026-09-01T19:56:18Z</time>
  <course>11.42</course>
  <speed>5.024619388570641</speed>
  <fix>3d</fix>
</trkpt>
<trkpt lat="-27.2747924" lon="151.2900073">
  <ele>378.13</ele>
  <time>2026-09-01T19:56:18Z</time>
  <course>12.0</course>
  <speed>5.0</speed>
  <fix>3d</fix>
</trkpt>
<trkpt lat="-27.2747756" lon="151.2900111">
  <ele>377.94</ele>
  <time>2026-09-01T19:56:18Z</time>
  <course>11.41</course>
  <speed>5.024619388570641</speed>
  <fix>3d</fix>
</trkpt>
<trkpt lat="-27.2747837" lon="151.2900094">
  <ele>378.13</ele>
  <time>2026-09-01T19:56:18Z</time>
  <course>11.97</course>
  <speed>5.0</speed>
  <fix>3d</fix>
</trkpt>
<trkpt lat="-27.2747712" lon="151.2900121">
  <ele>377.94</ele>
  <time>2026-09-01T19:56:18Z</time>
  <course>11.4</course>
  <speed>5.024619388570641</speed>
  <fix>3d</fix>
</trkpt>
<trkpt lat="-27.2747837" lon="151.2900094">
  <ele>378.13</ele>
  <time>2026-09-01T19:56:18Z</time>
  <course>11.97</course>
  <speed>5.0</speed>
  <fix>3d</fix>
</trkpt>
<trkpt lat="-27.2747668" lon="151.2900132">
  <ele>377.94</ele>
  <time>2026-09-01T19:56:18Z</time>
  <course>11.39</course>
  <speed>5.022598928841521</speed>
  <fix>3d</fix>
</trkpt>
<trkpt lat="-27.2747749" lon="151.2900115">
  <ele>378.13</ele>
  <time>2026-09-01T19:56:18Z</time>
  <course>11.95</course>
  <speed>5.01</speed>
  <fix>3d</fix>
</trkpt>
<trkpt lat="-27.2747624" lon="151.2900142">
  <ele>377.94</ele>
  <time>2026-09-01T19:56:18Z</time>
  <course>11.38</course>
  <speed>5.022598928841521</speed>
  <fix>3d</fix>
</trkpt>
<trkpt lat="-27.2747749" lon="151.2900115">
  <ele>378.13</ele>
  <time>2026-09-01T19:56:18Z</time>
  <course>11.95</course>
  <speed>5.01</speed>
  <fix>3d</fix>
</trkpt>
<trkpt lat="-27.274758" lon="151.2900153">
  <ele>377.94</ele>
  <time>2026-09-01T19:56:18Z</time>
  <course>11.37</course>
  <speed>5.022598928841521</speed>
  <fix>3d</fix>
</trkpt>
<trkpt lat="-27.2747661" lon="151.2900136">
  <ele>378.13</ele>
  <time>2026-09-01T19:56:18Z</time>
  <course>11.92</course>
  <speed>5.01</speed>
  <fix>3d</fix>
</trkpt>
<trkpt lat="-27.2747536" lon="151.2900163">
  <ele>377.94</ele>
  <time>2026-09-01T19:56:18Z</time>
  <course>11.36</course>
  <speed>5.032395056034453</speed>
  <fix>3d</fix>
</trkpt>
<trkpt lat="-27.2747661" lon="151.2900136">
  <ele>378.13</ele>
  <time>2026-09-01T19:56:18Z</time>
  <course>11.92</course>
  <speed>5.01</speed>
  <fix>3d</fix>
</trkpt>
<trkpt lat="-27.2747492" lon="151.2900174">
  <ele>377.94</ele>
  <time>2026-09-01T19:56:18Z</time>
  <course>11.35</course>
  <speed>5.032395056034453</speed>
  <fix>3d</fix>
</trkpt>
<trkpt lat="-27.2747573" lon="151.2900157">
  <ele>378.12</ele>
  <time>2026-09-01T19:56:18Z</time>
  <course>11.9</course>
  <speed>5.01</speed>
  <fix>3d</fix>
</trkpt>
<trkpt lat="-27.2747448" lon="151.2900184">
  <ele>377.94</ele>
  <time>2026-09-01T19:56:18Z</time>
  <course>11.35</course>
  <speed>5.032395056034453</speed>
  <fix>3d</fix>
</trkpt>
<trkpt lat="-27.2747573" lon="151.2900157">
  <ele>378.12</ele>
  <time>2026-09-01T19:56:18Z</time>
  <course>11.9</course>
  <speed>5.01</speed>
  <fix>3d</fix>
</trkpt>
<trkpt lat="-27.2747404" lon="151.2900195">
  <ele>377.93</ele>
  <time>2026-09-01T19:56:18Z</time>
  <course>11.34</course>
  <speed>5.032395056034453</speed>
  <fix>3d</fix>
</trkpt>
<trkpt lat="-27.2747484" lon="151.2900178">
  <ele>378.12</ele>
  <time>2026-09-01T19:56:18Z</time>
  <course>11.87</course>
  <speed>5.01</speed>
  <fix>3d</fix>
</trkpt>
<trkpt lat="-27.274736" lon="151.2900205">
  <ele>377.93</ele>
  <time>2026-09-01T19:56:18Z</time>
  <course>11.33</course>
  <speed>5.032395056034453</speed>
  <fix>3d</fix>
</trkpt>
<trkpt lat="-27.2747484" lon="151.2900178">
  <ele>378.12</ele>
  <time>2026-09-01T19:56:18Z</time>
  <course>11.87</course>
  <speed>5.01</speed>
  <fix>3d</fix>
</trkpt>
<trkpt lat="-27.2747315" lon="151.2900215">
  <ele>377.93</ele>
  <time>2026-09-01T19:56:18Z</time>
  <course>11.32</course>
  <speed>5.032395056034453</speed>
  <fix>3d</fix>
</trkpt>
<trkpt lat="-27.2747395" lon="151.2900199">
  <ele>378.12</ele>
  <time>2026-09-01T19:56:18Z</time>
  <course>11.85</course>
  <speed>5.01</speed>
  <fix>3d</fix>
</trkpt>
<trkpt lat="-27.2747271" lon="151.2900226">
  <ele>377.92</ele>
  <time>2026-09-01T19:56:18Z</time>
  <course>11.32</course>
  <speed>5.032395056034453</speed>
  <fix>3d</fix>
</trkpt>
<trkpt lat="-27.2747395" lon="151.2900199">
  <ele>378.12</ele>
  <time>2026-09-01T19:56:18Z</time>
  <course>11.85</course>
  <speed>5.01</speed>
  <fix>3d</fix>
</trkpt>
<trkpt lat="-27.2747227" lon="151.2900236">
  <ele>377.92</ele>
  <time>2026-09-01T19:56:18Z</time>
  <course>11.31</course>
  <speed>5.032395056034453</speed>
  <fix>3d</fix>
</trkpt>
<trkpt lat="-27.2747308" lon="151.290022">
  <ele>378.12</ele>
  <time>2026-09-01T19:56:18Z</time>
  <course>11.83</course>
  <speed>5.01</speed>
  <fix>3d</fix>
</trkpt>
<trkpt lat="-27.2747183" lon="151.2900247">
  <ele>377.92</ele>
  <time>2026-09-01T19:56:18Z</time>
  <course>11.3</course>
  <speed>5.032395056034453</speed>
  <fix>3d</fix>
</trkpt>
<trkpt lat="-27.2747308" lon="151.290022">
  <ele>378.12</ele>
  <time>2026-09-01T19:56:18Z</time>
  <course>11.83</course>
  <speed>5.01</speed>
  <fix>3d</fix>
</trkpt>
<trkpt lat="-27.2747138" lon="151.2900257">
  <ele>377.92</ele>
  <time>2026-09-01T19:56:18Z</time>
  <course>11.29</course>
  <speed>5.030397598599936</speed>
  <fix>3d</fix>
</trkpt>
<trkpt lat="-27.2747219" lon="151.290024">
  <ele>378.11</ele>
  <time>2026-09-01T19:56:18Z</time>
  <course>11.81</course>
  <speed>5.01</speed>
  <fix>3d</fix>
</trkpt>
<trkpt lat="-27.2747094" lon="151.2900268">
  <ele>377.92</ele>
  <time>2026-09-01T19:56:18Z</time>
  <course>11.28</course>
  <speed>5.030397598599936</speed>
  <fix>3d</fix>
</trkpt>
<trkpt lat="-27.2747219" lon="151.290024">
  <ele>378.11</ele>
  <time>2026-09-01T19:56:18Z</time>
  <course>11.81</course>
  <speed>5.01</speed>
  <fix>3d</fix>
</trkpt>
<trkpt lat="-27.274705" lon="151.2900278">
  <ele>377.92</ele>
  <time>2026-09-01T19:56:18Z</time>
  <course>11.27</course>
  <speed>5.030397598599936</speed>
  <fix>3d</fix>
</trkpt>
<trkpt lat="-27.2747131" lon="151.2900261">
  <ele>378.11</ele>
  <time>2026-09-01T19:56:18Z</time>
  <course>11.78</course>
  <speed>5.01</speed>
  <fix>3d</fix>
</trkpt>
<trkpt lat="-27.2747006" lon="151.2900288">
  <ele>377.92</ele>
  <time>2026-09-01T19:56:18Z</time>
  <course>11.26</course>
  <speed>5.030397598599936</speed>
  <fix>3d</fix>
</trkpt>
<trkpt lat="-27.2747131" lon="151.2900261">
  <ele>378.11</ele>
  <time>2026-09-01T19:56:18Z</time>
  <course>11.78</course>
  <speed>5.01</speed>
  <fix>3d</fix>
</trkpt>
<trkpt lat="-27.2746962" lon="151.2900299">
  <ele>377.92</ele>
  <time>2026-09-01T19:56:18Z</time>
  <course>11.25</course>
  <speed>5.030397598599936</speed>
  <fix>3d</fix>
</trkpt>
<trkpt lat="-27.2747042" lon="151.2900282">
  <ele>378.11</ele>
  <time>2026-09-01T19:56:18Z</time>
  <course>11.76</course>
  <speed>5.01</speed>
  <fix>3d</fix>
</trkpt>
<trkpt lat="-27.2746918" lon="151.2900309">
  <ele>377.92</ele>
  <time>2026-09-01T19:56:18Z</time>
  <course>11.24</course>
  <speed>5.030397598599936</speed>
  <fix>3d</fix>
</trkpt>
<trkpt lat="-27.2747042" lon="151.2900282">
  <ele>378.11</ele>
  <time>2026-09-01T19:56:18Z</time>
  <course>11.76</course>
  <speed>5.01</speed>
  <fix>3d</fix>
</trkpt>
<trkpt lat="-27.2746874" lon="151.2900319">
  <ele>377.92</ele>
  <time>2026-09-01T19:56:18Z</time>
  <course>11.23</course>
  <speed>5.030397598599936</speed>
  <fix>3d</fix>
</trkpt>
<trkpt lat="-27.2746955" lon="151.2900302">
  <ele>378.11</ele>
  <time>2026-09-01T19:56:18Z</time>
  <course>11.74</course>
  <speed>5.01</speed>
  <fix>3d</fix>
</trkpt>
<trkpt lat="-27.274683" lon="151.2900329">
  <ele>377.92</ele>
  <time>2026-09-01T19:56:18Z</time>
  <course>11.22</course>
  <speed>5.020597573994554</speed>
  <fix>3d</fix>
</trkpt>
<trkpt lat="-27.2746955" lon="151.2900302">
  <ele>378.11</ele>
  <time>2026-09-01T19:56:18Z</time>
  <course>11.74</course>
  <speed>5.01</speed>
  <fix>3d</fix>
</trkpt>
<trkpt lat="-27.2746786" lon="151.290034">
  <ele>377.92</ele>
  <time>2026-09-01T19:56:18Z</time>
  <course>11.22</course>
  <speed>5.020597573994554</speed>
  <fix>3d</fix>
</trkpt>
<trkpt lat="-27.2746866" lon="151.2900323">
  <ele>378.11</ele>
  <time>2026-09-01T19:56:18Z</time>
  <course>11.72</course>
  <speed>5.01</speed>
  <fix>3d</fix>
</trkpt>
<trkpt lat="-27.2746742" lon="151.290035">
  <ele>377.92</ele>
  <time>2026-09-01T19:56:18Z</time>
  <course>11.21</course>
  <speed>5.020597573994554</speed>
  <fix>3d</fix>
</trkpt>
<trkpt lat="-27.2746866" lon="151.2900323">
  <ele>378.11</ele>
  <time>2026-09-01T19:56:18Z</time>
  <course>11.72</course>
  <speed>5.01</speed>
  <fix>3d</fix>
</trkpt>
<trkpt lat="-27.2746698" lon="151.290036">
  <ele>377.92</ele>
  <time>2026-09-01T19:56:18Z</time>
  <course>11.21</course>
  <speed>5.0186153468860315</speed>
  <fix>3d</fix>
</trkpt>
<trkpt lat="-27.2746779" lon="151.2900344">
  <ele>378.11</ele>
  <time>2026-09-01T19:56:18Z</time>
  <course>11.7</course>
  <speed>5.01</speed>
  <fix>3d</fix>
</trkpt>
<trkpt lat="-27.2746654" lon="151.290037">
  <ele>377.92</ele>
  <time>2026-09-01T19:56:18Z</time>
  <course>11.2</course>
  <speed>5.0186153468860315</speed>
  <fix>3d</fix>
</trkpt>
<trkpt lat="-27.2746779" lon="151.2900344">
  <ele>378.11</ele>
  <time>2026-09-01T19:56:18Z</time>
  <course>11.7</course>
  <speed>5.01</speed>
  <fix>3d</fix>
</trkpt>
<trkpt lat="-27.274661" lon="151.2900381">
  <ele>377.92</ele>
  <time>2026-09-01T19:56:18Z</time>
  <course>11.2</course>
  <speed>5.0186153468860315</speed>
  <fix>3d</fix>
</trkpt>
<trkpt lat="-27.274669" lon="151.2900364">
  <ele>378.11</ele>
  <time>2026-09-01T19:56:18Z</time>
  <course>11.69</course>
  <speed>5.0</speed>
  <fix>3d</fix>
</trkpt>
<trkpt lat="-27.2746566" lon="151.2900391">
  <ele>377.92</ele>
  <time>2026-09-01T19:56:18Z</time>
  <course>11.19</course>
  <speed>5.0186153468860315</speed>
  <fix>3d</fix>
</trkpt>
<trkpt lat="-27.274669" lon="151.2900364">
  <ele>378.11</ele>
  <time>2026-09-01T19:56:18Z</time>
  <course>11.69</course>
  <speed>5.0</speed>
  <fix>3d</fix>
</trkpt>
<trkpt lat="-27.2746522" lon="151.2900401">
  <ele>377.92</ele>
  <time>2026-09-01T19:56:18Z</time>
  <course>11.19</course>
  <speed>5.0186153468860315</speed>
  <fix>3d</fix>
</trkpt>
<trkpt lat="-27.2746602" lon="151.2900384">
  <ele>378.11</ele>
  <time>2026-09-01T19:56:18Z</time>
  <course>11.67</course>
  <speed>5.0</speed>
  <fix>3d</fix>
</trkpt>
<trkpt lat="-27.2746478" lon="151.2900411">
  <ele>377.91</ele>
  <time>2026-09-01T19:56:18Z</time>
  <course>11.19</course>
  <speed>5.008812234452396</speed>
  <fix>3d</fix>
</trkpt>
<trkpt lat="-27.2746602" lon="151.2900384">
  <ele>378.11</ele>
  <time>2026-09-01T19:56:18Z</time>
  <course>11.67</course>
  <speed>5.0</speed>
  <fix>3d</fix>
</trkpt>
<trkpt lat="-27.2746434" lon="151.2900422">
  <ele>377.91</ele>
  <time>2026-09-01T19:56:18Z</time>
  <course>11.19</course>
  <speed>5.008812234452396</speed>
  <fix>3d</fix>
</trkpt>
<trkpt lat="-27.2746513" lon="151.2900405">
  <ele>378.11</ele>
  <time>2026-09-01T19:56:18Z</time>
  <course>11.66</course>
  <speed>5.0</speed>
  <fix>3d</fix>
</trkpt>
<trkpt lat="-27.274639" lon="151.2900432">
  <ele>377.91</ele>
  <time>2026-09-01T19:56:18Z</time>
  <course>11.19</course>
  <speed>4.99900990197059</speed>
  <fix>3d</fix>
</trkpt>
<trkpt lat="-27.2746513" lon="151.2900405">
  <ele>378.11</ele>
  <time>2026-09-01T19:56:18Z</time>
  <course>11.66</course>
  <speed>5.0</speed>
  <fix>3d</fix>
</trkpt>
<trkpt lat="-27.2746346" lon="151.2900442">
  <ele>377.91</ele>
  <time>2026-09-01T19:56:18Z</time>
  <course>11.18</course>
  <speed>4.977429055245288</speed>
  <fix>3d</fix>
</trkpt>
<trkpt lat="-27.2746426" lon="151.2900426">
  <ele>378.11</ele>
  <time>2026-09-01T19:56:18Z</time>
  <course>11.65</course>
  <speed>4.99</speed>
  <fix>3d</fix>
</trkpt>
<trkpt lat="-27.2746302" lon="151.2900452">
  <ele>377.91</ele>
  <time>2026-09-01T19:56:18Z</time>
  <course>11.18</course>
  <speed>4.957822102496216</speed>
  <fix>3d</fix>
</trkpt>
<trkpt lat="-27.2746426" lon="151.2900426">
  <ele>378.11</ele>
  <time>2026-09-01T19:56:18Z</time>
  <course>11.65</course>
  <speed>4.99</speed>
  <fix>3d</fix>
</trkpt>
<trkpt lat="-27.2746259" lon="151.2900462">
  <ele>377.91</ele>
  <time>2026-09-01T19:56:18Z</time>
  <course>11.18</course>
  <speed>4.936243511011182</speed>
  <fix>3d</fix>
</trkpt>
<trkpt lat="-27.2746339" lon="151.2900446">
  <ele>378.12</ele>
  <time>2026-09-01T19:56:18Z</time>
  <course>11.64</course>
  <speed>4.96</speed>
  <fix>3d</fix>
</trkpt>
<trkpt lat="-27.2746215" lon="151.2900472">
  <ele>377.91</ele>
  <time>2026-09-01T19:56:18Z</time>
  <course>11.18</course>
  <speed>4.906831971853122</speed>
  <fix>3d</fix>
</trkpt>
<trkpt lat="-27.2746339" lon="151.2900446">
  <ele>378.12</ele>
  <time>2026-09-01T19:56:18Z</time>
  <course>11.64</course>
  <speed>4.96</speed>
  <fix>3d</fix>
</trkpt>
<trkpt lat="-27.2746172" lon="151.2900482">
  <ele>377.92</ele>
  <time>2026-09-01T19:56:18Z</time>
  <course>11.17</course>
  <speed>4.8754486972995625</speed>
  <fix>3d</fix>
</trkpt>
<trkpt lat="-27.2746251" lon="151.2900467">
  <ele>378.12</ele>
  <time>2026-09-01T19:56:18Z</time>
  <course>11.63</course>
  <speed>4.92</speed>
  <fix>3d</fix>
</trkpt>
<trkpt lat="-27.2746129" lon="151.2900492">
  <ele>377.92</ele>
  <time>2026-09-01T19:56:18Z</time>
  <course>11.17</course>
  <speed>4.844068537913146</speed>
  <fix>3d</fix>
</trkpt>
<trkpt lat="-27.2746251" lon="151.2900467">
  <ele>378.12</ele>
  <time>2026-09-01T19:56:18Z</time>
  <course>11.63</course>
  <speed>4.92</speed>
  <fix>3d</fix>
</trkpt>
<trkpt lat="-27.2746087" lon="151.2900502">
  <ele>377.93</ele>
  <time>2026-09-01T19:56:18Z</time>
  <course>11.17</course>
  <speed>4.8048517146734095</speed>
  <fix>3d</fix>
</trkpt>
<trkpt lat="-27.2746165" lon="151.2900486">
  <ele>378.13</ele>
  <time>2026-09-01T19:56:18Z</time>
  <course>11.62</course>
  <speed>4.86</speed>
  <fix>3d</fix>
</trkpt>
<trkpt lat="-27.2746045" lon="151.2900512">
  <ele>377.93</ele>
  <time>2026-09-01T19:56:18Z</time>
  <course>11.17</course>
  <speed>4.76366455578056</speed>
  <fix>3d</fix>
</trkpt>
<trkpt lat="-27.2746165" lon="151.2900486">
  <ele>378.13</ele>
  <time>2026-09-01T19:56:18Z</time>
  <course>11.62</course>
  <speed>4.86</speed>
  <fix>3d</fix>
</trkpt>
<trkpt lat="-27.2746003" lon="151.2900521">
  <ele>377.93</ele>
  <time>2026-09-01T19:56:18Z</time>
  <course>11.16</course>
  <speed>4.712674399955932</speed>
  <fix>3d</fix>
</trkpt>
<trkpt lat="-27.274608" lon="151.2900506">
  <ele>378.13</ele>
  <time>2026-09-01T19:56:18Z</time>
  <course>11.6</course>
  <speed>4.78</speed>
  <fix>3d</fix>
</trkpt>
<trkpt lat="-27.2745962" lon="151.2900531">
  <ele>377.94</ele>
  <time>2026-09-01T19:56:18Z</time>
  <course>11.16</course>
  <speed>4.671487985642262</speed>
  <fix>3d</fix>
</trkpt>
<trkpt lat="-27.274608" lon="151.2900506">
  <ele>378.13</ele>
  <time>2026-09-01T19:56:18Z</time>
  <course>11.6</course>
  <speed>4.78</speed>
  <fix>3d</fix>
</trkpt>
<trkpt lat="-27.2745921" lon="151.2900541">
  <ele>377.94</ele>
  <time>2026-09-01T19:56:18Z</time>
  <course>11.16</course>
  <speed>4.620497808678195</speed>
  <fix>3d</fix>
</trkpt>
<trkpt lat="-27.2745996" lon="151.2900525">
  <ele>378.14</ele>
  <time>2026-09-01T19:56:18Z</time>
  <course>11.58</course>
  <speed>4.69</speed>
  <fix>3d</fix>
</trkpt>
<trkpt lat="-27.274588" lon="151.290055">
  <ele>377.94</ele>
  <time>2026-09-01T19:56:18Z</time>
  <course>11.15</course>
  <speed>4.56950763211968</speed>
  <fix>3d</fix>
</trkpt>
<trkpt lat="-27.2745996" lon="151.2900525">
  <ele>378.14</ele>
  <time>2026-09-01T19:56:18Z</time>
  <course>11.58</course>
  <speed>4.69</speed>
  <fix>3d</fix>
</trkpt>
<trkpt lat="-27.2745841" lon="151.2900559">
  <ele>377.95</ele>
  <time>2026-09-01T19:56:18Z</time>
  <course>11.15</course>
  <speed>4.506750492317053</speed>
  <fix>3d</fix>
</trkpt>
<trkpt lat="-27.2745915" lon="151.2900544">
  <ele>378.15</ele>
  <time>2026-09-01T19:56:18Z</time>
  <course>11.56</course>
  <speed>4.6</speed>
  <fix>3d</fix>
</trkpt>
<trkpt lat="-27.2745801" lon="151.2900568">
  <ele>377.95</ele>
  <time>2026-09-01T19:56:18Z</time>
  <course>11.14</course>
  <speed>4.4557603167136355</speed>
  <fix>3d</fix>
</trkpt>
<trkpt lat="-27.2745915" lon="151.2900544">
  <ele>378.15</ele>
  <time>2026-09-01T19:56:18Z</time>
  <course>11.56</course>
  <speed>4.6</speed>
  <fix>3d</fix>
</trkpt>
<trkpt lat="-27.2745763" lon="151.2900577">
  <ele>377.95</ele>
  <time>2026-09-01T19:56:18Z</time>
  <course>11.14</course>
  <speed>4.394963026010571</speed>
  <fix>3d</fix>
</trkpt>
<trkpt lat="-27.2745835" lon="151.2900563">
  <ele>378.16</ele>
  <time>2026-09-01T19:56:18Z</time>
  <course>11.54</course>
  <speed>4.49</speed>
  <fix>3d</fix>
</trkpt>
<trkpt lat="-27.2745725" lon="151.2900586">
  <ele>377.96</ele>
  <time>2026-09-01T19:56:18Z</time>
  <course>11.13</course>
  <speed>4.3341665865538666</speed>
  <fix>3d</fix>
</trkpt>
<trkpt lat="-27.2745835" lon="151.2900563">
  <ele>378.16</ele>
  <time>2026-09-01T19:56:18Z</time>
  <course>11.54</course>
  <speed>4.49</speed>
  <fix>3d</fix>
</trkpt>
<trkpt lat="-27.2745687" lon="151.2900595">
  <ele>377.96</ele>
  <time>2026-09-01T19:56:18Z</time>
  <course>11.13</course>
  <speed>4.273371034675084</speed>
  <fix>3d</fix>
</trkpt>
<trkpt lat="-27.2745757" lon="151.290058">
  <ele>378.16</ele>
  <time>2026-09-01T19:56:18Z</time>
  <course>11.52</course>
  <speed>4.37</speed>
  <fix>3d</fix>
</trkpt>
<trkpt lat="-27.2745649" lon="151.2900603">
  <ele>377.96</ele>
  <time>2026-09-01T19:56:18Z</time>
  <course>11.12</course>
  <speed>4.210617531906691</speed>
  <fix>3d</fix>
</trkpt>
<trkpt lat="-27.2745757" lon="151.290058">
  <ele>378.16</ele>
  <time>2026-09-01T19:56:18Z</time>
  <course>11.52</course>
  <speed>4.37</speed>
  <fix>3d</fix>
</trkpt>
<trkpt lat="-27.2745612" lon="151.2900612">
  <ele>377.96</ele>
  <time>2026-09-01T19:56:18Z</time>
  <course>11.12</course>
  <speed>4.149819273173231</speed>
  <fix>3d</fix>
</trkpt>
<trkpt lat="-27.2745681" lon="151.2900598">
  <ele>378.15</ele>
  <time>2026-09-01T19:56:18Z</time>
  <course>11.5</course>
  <speed>4.25</speed>
  <fix>3d</fix>
</trkpt>
<trkpt lat="-27.2745576" lon="151.290062">
  <ele>377.96</ele>
  <time>2026-09-01T19:56:18Z</time>
  <course>11.11</course>
  <speed>4.079215610874228</speed>
  <fix>3d</fix>
</trkpt>
<trkpt lat="-27.2745681" lon="151.2900598">
  <ele>378.15</ele>
  <time>2026-09-01T19:56:18Z</time>
  <course>11.5</course>
  <speed>4.25</speed>
  <fix>3d</fix>
</trkpt>
<trkpt lat="-27.2745541" lon="151.2900628">
  <ele>377.96</ele>
  <time>2026-09-01T19:56:18Z</time>
  <course>11.11</course>
  <speed>4.016466108409232</speed>
  <fix>3d</fix>
</trkpt>
<trkpt lat="-27.2745607" lon="151.2900614">
  <ele>378.15</ele>
  <time>2026-09-01T19:56:18Z</time>
  <course>11.48</course>
  <speed>4.12</speed>
  <fix>3d</fix>
</trkpt>
<trkpt lat="-27.2745505" lon="151.2900636">
  <ele>377.95</ele>
  <time>2026-09-01T19:56:18Z</time>
  <course>11.11</course>
  <speed>3.9458585884443456</speed>
  <fix>3d</fix>
</trkpt>
<trkpt lat="-27.2745607" lon="151.2900614">
  <ele>378.15</ele>
  <time>2026-09-01T19:56:18Z</time>
  <course>11.48</course>
  <speed>4.12</speed>
  <fix>3d</fix>
</trkpt>
<trkpt lat="-27.2745471" lon="151.2900644">
  <ele>377.94</ele>
  <time>2026-09-01T19:56:18Z</time>
  <course>11.1</course>
  <speed>3.885061132080163</speed>
  <fix>3d</fix>
</trkpt>
<trkpt lat="-27.2745535" lon="151.2900631">
  <ele>378.14</ele>
  <time>2026-09-01T19:56:18Z</time>
  <course>11.47</course>
  <speed>3.99</speed>
  <fix>3d</fix>
</trkpt>
<trkpt lat="-27.2745437" lon="151.2900652">
  <ele>377.94</ele>
  <time>2026-09-01T19:56:18Z</time>
  <course>11.1</course>
  <speed>3.822316051819891</speed>
  <fix>3d</fix>
</trkpt>
<trkpt lat="-27.2745535" lon="151.2900631">
  <ele>378.14</ele>
  <time>2026-09-01T19:56:18Z</time>
  <course>11.47</course>
  <speed>3.99</speed>
  <fix>3d</fix>
</trkpt>
<trkpt lat="-27.2745404" lon="151.2900659">
  <ele>377.94</ele>
  <time>2026-09-01T19:56:19Z</time>
  <course>11.09</course>
  <speed>3.761515651967967</speed>
  <fix>3d</fix>
</trkpt>
<trkpt lat="-27.2745466" lon="151.2900647">
  <ele>378.13</ele>
  <time>2026-09-01T19:56:19Z</time>
  <course>11.45</course>
  <speed>3.86</speed>
  <fix>3d</fix>
</trkpt>
<trkpt lat="-27.2745371" lon="151.2900667">
  <ele>377.93</ele>
  <time>2026-09-01T19:56:19Z</time>
  <course>11.09</course>
  <speed>3.7007161469099463</speed>
  <fix>3d</fix>
</trkpt>
<trkpt lat="-27.2745466" lon="151.2900647">
  <ele>378.13</ele>
  <time>2026-09-01T19:56:19Z</time>
  <course>11.45</course>
  <speed>3.86</speed>
  <fix>3d</fix>
</trkpt>
<trkpt lat="-27.2745339" lon="151.2900674">
  <ele>377.93</ele>
  <time>2026-09-01T19:56:19Z</time>
  <course>11.08</course>
  <speed>3.6497260171141614</speed>
  <fix>3d</fix>
</trkpt>
<trkpt lat="-27.2745399" lon="151.2900662">
  <ele>378.12</ele>
  <time>2026-09-01T19:56:19Z</time>
  <course>11.44</course>
  <speed>3.73</speed>
  <fix>3d</fix>
</trkpt>
<trkpt lat="-27.2745307" lon="151.2900681">
  <ele>377.92</ele>
  <time>2026-09-01T19:56:19Z</time>
  <course>11.08</course>
  <speed>3.5987358891699732</speed>
  <fix>3d</fix>
</trkpt>
<trkpt lat="-27.2745399" lon="151.2900662">
  <ele>378.12</ele>
  <time>2026-09-01T19:56:19Z</time>
  <course>11.44</course>
  <speed>3.73</speed>
  <fix>3d</fix>
</trkpt>
<trkpt lat="-27.2745276" lon="151.2900688">
  <ele>377.91</ele>
  <time>2026-09-01T19:56:19Z</time>
  <course>11.07</course>
  <speed>3.547745763157219</speed>
  <fix>3d</fix>
</trkpt>
<trkpt lat="-27.2745334" lon="151.2900677">
  <ele>378.11</ele>
  <time>2026-09-01T19:56:19Z</time>
  <course>11.43</course>
  <speed>3.62</speed>
  <fix>3d</fix>
</trkpt>
<trkpt lat="-27.2745245" lon="151.2900695">
  <ele>377.91</ele>
  <time>2026-09-01T19:56:19Z</time>
  <course>11.07</course>
  <speed>3.5065652710308983</speed>
  <fix>3d</fix>
</trkpt>
<trkpt lat="-27.2745334" lon="151.2900677">
  <ele>378.11</ele>
  <time>2026-09-01T19:56:19Z</time>
  <course>11.43</course>
  <speed>3.62</speed>
  <fix>3d</fix>
</trkpt>
<trkpt lat="-27.2745215" lon="151.2900702">
  <ele>377.9</ele>
  <time>2026-09-01T19:56:19Z</time>
  <course>11.07</course>
  <speed>3.4653859813879317</speed>
  <fix>3d</fix>
</trkpt>
<trkpt lat="-27.2745272" lon="151.290069">
  <ele>378.1</ele>
  <time>2026-09-01T19:56:19Z</time>
  <course>11.42</course>
  <speed>3.52</speed>
  <fix>3d</fix>
</trkpt>
<trkpt lat="-27.2745185" lon="151.2900709">
  <ele>377.9</ele>
  <time>2026-09-01T19:56:19Z</time>
  <course>11.06</course>
  <speed>3.424207937611266</speed>
  <fix>3d</fix>
</trkpt>
<trkpt lat="-27.2745272" lon="151.290069">
  <ele>378.1</ele>
  <time>2026-09-01T19:56:19Z</time>
  <course>11.42</course>
  <speed>3.52</speed>
  <fix>3d</fix>
</trkpt>
<trkpt lat="-27.2745155" lon="151.2900716">
  <ele>377.9</ele>
  <time>2026-09-01T19:56:19Z</time>
  <course>11.06</course>
  <speed>3.394775397577872</speed>
  <fix>3d</fix>
</trkpt>
<trkpt lat="-27.274521" lon="151.2900705">
  <ele>378.09</ele>
  <time>2026-09-01T19:56:19Z</time>
  <course>11.42</course>
  <speed>3.44</speed>
  <fix>3d</fix>
</trkpt>
<trkpt lat="-27.2745125" lon="151.2900723">
  <ele>377.89</ele>
  <time>2026-09-01T19:56:19Z</time>
  <course>11.06</course>
  <speed>3.3634060117684275</speed>
  <fix>3d</fix>
</trkpt>
<trkpt lat="-27.274521" lon="151.2900705">
  <ele>378.09</ele>
  <time>2026-09-01T19:56:19Z</time>
  <course>11.42</course>
  <speed>3.44</speed>
  <fix>3d</fix>
</trkpt>
<trkpt lat="-27.2745096" lon="151.2900729">
  <ele>377.89</ele>
  <time>2026-09-01T19:56:19Z</time>
  <course>11.06</course>
  <speed>3.3320414163092273</speed>
  <fix>3d</fix>
</trkpt>
<trkpt lat="-27.274515" lon="151.2900718">
  <ele>378.08</ele>
  <time>2026-09-01T19:56:19Z</time>
  <course>11.42</course>
  <speed>3.36</speed>
  <fix>3d</fix>
</trkpt>
<trkpt lat="-27.2745066" lon="151.2900736">
  <ele>377.9</ele>
  <time>2026-09-01T19:56:19Z</time>
  <course>11.06</course>
  <speed>3.3124160366717224</speed>
  <fix>3d</fix>
</trkpt>
<trkpt lat="-27.274515" lon="151.2900718">
  <ele>378.08</ele>
  <time>2026-09-01T19:56:19Z</time>
  <course>11.42</course>
  <speed>3.36</speed>
  <fix>3d</fix>
</trkpt>
<trkpt lat="-27.2745037" lon="151.2900743">
  <ele>377.9</ele>
  <time>2026-09-01T19:56:19Z</time>
  <course>11.06</course>
  <speed>3.292795165205391</speed>
  <fix>3d</fix>
</trkpt>
<trkpt lat="-27.2745092" lon="151.2900732">
  <ele>378.08</ele>
  <time>2026-09-01T19:56:19Z</time>
  <course>11.42</course>
  <speed>3.3</speed>
  <fix>3d</fix>
</trkpt>
<trkpt lat="-27.2745008" lon="151.2900749">
  <ele>377.9</ele>
  <time>2026-09-01T19:56:19Z</time>
  <course>11.06</course>
  <speed>3.2810516606722304</speed>
  <fix>3d</fix>
</trkpt>
<trkpt lat="-27.2745092" lon="151.2900732">
  <ele>378.08</ele>
  <time>2026-09-01T19:56:19Z</time>
  <course>11.42</course>
  <speed>3.3</speed>
  <fix>3d</fix>
</trkpt>
<trkpt lat="-27.274498" lon="151.2900756">
  <ele>377.9</ele>
  <time>2026-09-01T19:56:19Z</time>
  <course>11.06</course>
  <speed>3.2614260684553313</speed>
  <fix>3d</fix>
</trkpt>
<trkpt lat="-27.2745034" lon="151.2900745">
  <ele>378.08</ele>
  <time>2026-09-01T19:56:19Z</time>
  <course>11.43</course>
  <speed>3.26</speed>
  <fix>3d</fix>
</trkpt>
<trkpt lat="-27.2744951" lon="151.2900762">
  <ele>377.91</ele>
  <time>2026-09-01T19:56:19Z</time>
  <course>11.06</course>
  <speed>3.230061918911153</speed>
  <fix>3d</fix>
</trkpt>
<trkpt lat="-27.2745034" lon="151.2900745">
  <ele>378.08</ele>
  <time>2026-09-01T19:56:19Z</time>
  <course>11.43</course>
  <speed>3.26</speed>
  <fix>3d</fix>
</trkpt>
<trkpt lat="-27.2744923" lon="151.2900769">
  <ele>377.91</ele>
  <time>2026-09-01T19:56:19Z</time>
  <course>11.07</course>
  <speed>3.1888869531546584</speed>
  <fix>3d</fix>
</trkpt>
<trkpt lat="-27.2744976" lon="151.2900758">
  <ele>378.08</ele>
  <time>2026-09-01T19:56:19Z</time>
  <course>11.43</course>
  <speed>3.22</speed>
  <fix>3d</fix>
</trkpt>
<trkpt lat="-27.2744895" lon="151.2900775">
  <ele>377.92</ele>
  <time>2026-09-01T19:56:19Z</time>
  <course>11.07</course>
  <speed>3.13789738519283</speed>
  <fix>3d</fix>
</trkpt>
<trkpt lat="-27.2744976" lon="151.2900758">
  <ele>378.08</ele>
  <time>2026-09-01T19:56:19Z</time>
  <course>11.43</course>
  <speed>3.22</speed>
  <fix>3d</fix>
</trkpt>
<trkpt lat="-27.2744868" lon="151.2900781">
  <ele>377.92</ele>
  <time>2026-09-01T19:56:19Z</time>
  <course>11.07</course>
  <speed>3.0672789243888468</speed>
  <fix>3d</fix>
</trkpt>
<trkpt lat="-27.274492" lon="151.2900771">
  <ele>378.09</ele>
  <time>2026-09-01T19:56:19Z</time>
  <course>11.42</course>
  <speed>3.15</speed>
  <fix>3d</fix>
</trkpt>
<trkpt lat="-27.2744841" lon="151.2900787">
  <ele>377.93</ele>
  <time>2026-09-01T19:56:19Z</time>
  <course>11.07</course>
  <speed>2.984928809871351</speed>
  <fix>3d</fix>
</trkpt>
<trkpt lat="-27.274492" lon="151.2900771">
  <ele>378.09</ele>
  <time>2026-09-01T19:56:19Z</time>
  <course>11.42</course>
  <speed>3.15</speed>
  <fix>3d</fix>
</trkpt>
<trkpt lat="-27.2744816" lon="151.2900793">
  <ele>377.93</ele>
  <time>2026-09-01T19:56:19Z</time>
  <course>11.07</course>
  <speed>2.9025850547399985</speed>
  <fix>3d</fix>
</trkpt>
<trkpt lat="-27.2744866" lon="151.2900784">
  <ele>378.09</ele>
  <time>2026-09-01T19:56:19Z</time>
  <course>11.42</course>
  <speed>3.03</speed>
  <fix>3d</fix>
</trkpt>
<trkpt lat="-27.2744791" lon="151.2900799">
  <ele>377.93</ele>
  <time>2026-09-01T19:56:19Z</time>
  <course>11.07</course>
  <speed>2.8025167260874646</speed>
  <fix>3d</fix>
</trkpt>
<trkpt lat="-27.2744866" lon="151.2900784">
  <ele>378.09</ele>
  <time>2026-09-01T19:56:19Z</time>
  <course>11.42</course>
  <speed>3.03</speed>
  <fix>3d</fix>
</trkpt>
<trkpt lat="-27.2744767" lon="151.2900804">
  <ele>377.93</ele>
  <time>2026-09-01T19:56:19Z</time>
  <course>11.08</course>
  <speed>2.7005369836386244</speed>
  <fix>3d</fix>
</trkpt>
<trkpt lat="-27.2744814" lon="151.2900795">
  <ele>378.1</ele>
  <time>2026-09-01T19:56:19Z</time>
  <course>11.4</course>
  <speed>2.86</speed>
  <fix>3d</fix>
</trkpt>
<trkpt lat="-27.2744743" lon="151.2900809">
  <ele>377.94</ele>
  <time>2026-09-01T19:56:19Z</time>
  <course>11.08</course>
  <speed>2.5985572920372566</speed>
  <fix>3d</fix>
</trkpt>
<trkpt lat="-27.2744814" lon="151.2900795">
  <ele>378.1</ele>
  <time>2026-09-01T19:56:19Z</time>
  <course>11.4</course>
  <speed>2.86</speed>
  <fix>3d</fix>
</trkpt>
<trkpt lat="-27.2744721" lon="151.2900814">
  <ele>377.94</ele>
  <time>2026-09-01T19:56:19Z</time>
  <course>11.08</course>
  <speed>2.4946743274423615</speed>
  <fix>3d</fix>
</trkpt>
<trkpt lat="-27.2744765" lon="151.2900806">
  <ele>378.11</ele>
  <time>2026-09-01T19:56:19Z</time>
  <course>11.38</course>
  <speed>2.67</speed>
  <fix>3d</fix>
</trkpt>
<trkpt lat="-27.27447" lon="151.2900819">
  <ele>377.94</ele>
  <time>2026-09-01T19:56:19Z</time>
  <course>11.08</course>
  <speed>2.39269722280108</speed>
  <fix>3d</fix>
</trkpt>
<trkpt lat="-27.2744765" lon="151.2900806">
  <ele>378.11</ele>
  <time>2026-09-01T19:56:19Z</time>
  <course>11.38</course>
  <speed>2.67</speed>
  <fix>3d</fix>
</trkpt>
<trkpt lat="-27.2744679" lon="151.2900824">
  <ele>377.94</ele>
  <time>2026-09-01T19:56:19Z</time>
  <course>11.08</course>
  <speed>2.290720410700529</speed>
  <fix>3d</fix>
</trkpt>
<trkpt lat="-27.2744719" lon="151.2900817">
  <ele>378.12</ele>
  <time>2026-09-01T19:56:19Z</time>
  <course>11.35</course>
  <speed>2.47</speed>
  <fix>3d</fix>
</trkpt>
<trkpt lat="-27.274466" lon="151.2900828">
  <ele>377.94</ele>
  <time>2026-09-01T19:56:19Z</time>
  <course>11.08</course>
  <speed>2.198567715582124</speed>
  <fix>3d</fix>
</trkpt>
<trkpt lat="-27.2744719" lon="151.2900817">
  <ele>378.12</ele>
  <time>2026-09-01T19:56:19Z</time>
  <course>11.35</course>
  <speed>2.47</speed>
  <fix>3d</fix>
</trkpt>
<trkpt lat="-27.2744641" lon="151.2900833">
  <ele>377.94</ele>
  <time>2026-09-01T19:56:19Z</time>
  <course>11.09</course>
  <speed>2.098475637218598</speed>
  <fix>3d</fix>
</trkpt>
<trkpt lat="-27.2744677" lon="151.2900826">
  <ele>378.12</ele>
  <time>2026-09-01T19:56:19Z</time>
  <course>11.32</course>
  <speed>2.27</speed>
  <fix>3d</fix>
</trkpt>
<trkpt lat="-27.2744623" lon="151.2900837">
  <ele>377.94</ele>
  <time>2026-09-01T19:56:19Z</time>
  <course>11.09</course>
  <speed>2.006315030098713</speed>
  <fix>3d</fix>
</trkpt>
<trkpt lat="-27.2744677" lon="151.2900826">
  <ele>378.12</ele>
  <time>2026-09-01T19:56:19Z</time>
  <course>11.32</course>
  <speed>2.27</speed>
  <fix>3d</fix>
</trkpt>
<trkpt lat="-27.2744606" lon="151.290084">
  <ele>377.93</ele>
  <time>2026-09-01T19:56:19Z</time>
  <course>11.09</course>
  <speed>1.9141577782408639</speed>
  <fix>3d</fix>
</trkpt>
<trkpt lat="-27.2744639" lon="151.2900834">
  <ele>378.11</ele>
  <time>2026-09-01T19:56:19Z</time>
  <course>11.29</course>
  <speed>2.07</speed>
  <fix>3d</fix>
</trkpt>
<trkpt lat="-27.274459" lon="151.2900844">
  <ele>377.93</ele>
  <time>2026-09-01T19:56:19Z</time>
  <course>11.1</course>
  <speed>1.8220043907740728</speed>
  <fix>3d</fix>
</trkpt>
<trkpt lat="-27.2744639" lon="151.2900834">
  <ele>378.11</ele>
  <time>2026-09-01T19:56:19Z</time>
  <course>11.29</course>
  <speed>2.07</speed>
  <fix>3d</fix>
</trkpt>
<trkpt lat="-27.2744574" lon="151.2900848">
  <ele>377.92</ele>
  <time>2026-09-01T19:56:19Z</time>
  <course>11.1</course>
  <speed>1.729855485293497</speed>
  <fix>3d</fix>
</trkpt>
<trkpt lat="-27.2744604" lon="151.2900842">
  <ele>378.1</ele>
  <time>2026-09-01T19:56:19Z</time>
  <course>11.26</course>
  <speed>1.88</speed>
  <fix>3d</fix>
</trkpt>
<trkpt lat="-27.2744559" lon="151.2900851">
  <ele>377.91</ele>
  <time>2026-09-01T19:56:19Z</time>
  <course>11.1</course>
  <speed>1.6377118183612156</speed>
  <fix>3d</fix>
</trkpt>
<trkpt lat="-27.2744604" lon="151.2900842">
  <ele>378.1</ele>
  <time>2026-09-01T19:56:19Z</time>
  <course>11.26</course>
  <speed>1.88</speed>
  <fix>3d</fix>
</trkpt>
<trkpt lat="-27.2744545" lon="151.2900854">
  <ele>377.9</ele>
  <time>2026-09-01T19:56:19Z</time>
  <course>11.11</course>
  <speed>1.5572411502397439</speed>
  <fix>3d</fix>
</trkpt>
<trkpt lat="-27.2744573" lon="151.2900849">
  <ele>378.09</ele>
  <time>2026-09-01T19:56:19Z</time>
  <course>11.23</course>
  <speed>1.7</speed>
  <fix>3d</fix>
</trkpt>
<trkpt lat="-27.2744532" lon="151.2900857">
  <ele>377.89</ele>
  <time>2026-09-01T19:56:19Z</time>
  <course>11.11</course>
  <speed>1.4749237268414932</speed>
  <fix>3d</fix>
</trkpt>
<trkpt lat="-27.2744573" lon="151.2900849">
  <ele>378.09</ele>
  <time>2026-09-01T19:56:19Z</time>
  <course>11.23</course>
  <speed>1.7</speed>
  <fix>3d</fix>
</trkpt>
<trkpt lat="-27.274452" lon="151.290086">
  <ele>377.89</ele>
  <time>2026-09-01T19:56:19Z</time>
  <course>11.11</course>
  <speed>1.3926234236145822</speed>
  <fix>3d</fix>
</trkpt>
<trkpt lat="-27.2744544" lon="151.2900856">
  <ele>378.07</ele>
  <time>2026-09-01T19:56:19Z</time>
  <course>11.2</course>
  <speed>1.52</speed>
  <fix>3d</fix>
</trkpt>
<trkpt lat="-27.2744508" lon="151.2900862">
  <ele>377.88</ele>
  <time>2026-09-01T19:56:19Z</time>
  <course>11.12</course>
  <speed>1.3219682295728592</speed>
  <fix>3d</fix>
</trkpt>
<trkpt lat="-27.2744544" lon="151.2900856">
  <ele>378.07</ele>
  <time>2026-09-01T19:56:19Z</time>
  <course>11.2</course>
  <speed>1.52</speed>
  <fix>3d</fix>
</trkpt>
<trkpt lat="-27.2744497" lon="151.2900865">
  <ele>377.88</ele>
  <time>2026-09-01T19:56:19Z</time>
  <course>11.12</course>
  <speed>1.2495199078045935</speed>
  <fix>3d</fix>
</trkpt>
<trkpt lat="-27.2744519" lon="151.2900861">
  <ele>378.06</ele>
  <time>2026-09-01T19:56:19Z</time>
  <course>11.18</course>
  <speed>1.36</speed>
  <fix>3d</fix>
</trkpt>
<trkpt lat="-27.2744486" lon="151.2900867">
  <ele>377.87</ele>
  <time>2026-09-01T19:56:19Z</time>
  <course>11.12</course>
  <speed>1.1788553770501282</speed>
  <fix>3d</fix>
</trkpt>
<trkpt lat="-27.2744519" lon="151.2900861">
  <ele>378.06</ele>
  <time>2026-09-01T19:56:19Z</time>
  <course>11.18</course>
  <speed>1.36</speed>
  <fix>3d</fix>
</trkpt>
<trkpt lat="-27.2744476" lon="151.2900869">
  <ele>377.87</ele>
  <time>2026-09-01T19:56:19Z</time>
  <course>11.12</course>
  <speed>1.1081967334368028</speed>
  <fix>3d</fix>
</trkpt>
<trkpt lat="-27.2744496" lon="151.2900866">
  <ele>378.06</ele>
  <time>2026-09-01T19:56:19Z</time>
  <course>11.16</course>
  <speed>1.21</speed>
  <fix>3d</fix>
</trkpt>
<trkpt lat="-27.2744467" lon="151.2900871">
  <ele>377.87</ele>
  <time>2026-09-01T19:56:19Z</time>
  <course>11.12</course>
  <speed>1.045609869884557</speed>
  <fix>3d</fix>
</trkpt>
<trkpt lat="-27.2744496" lon="151.2900866">
  <ele>378.06</ele>
  <time>2026-09-01T19:56:19Z</time>
  <course>11.16</course>
  <speed>1.21</speed>
  <fix>3d</fix>
</trkpt>
<trkpt lat="-27.2744458" lon="151.2900873">
  <ele>377.88</ele>
  <time>2026-09-01T19:56:19Z</time>
  <course>11.12</course>
  <speed>0.9847842403288144</speed>
  <fix>3d</fix>
</trkpt>
<trkpt lat="-27.2744476" lon="151.2900871">
  <ele>378.06</ele>
  <time>2026-09-01T19:56:19Z</time>
  <course>11.14</course>
  <speed>1.07</speed>
  <fix>3d</fix>
</trkpt>
<trkpt lat="-27.274445" lon="151.2900875">
  <ele>377.88</ele>
  <time>2026-09-01T19:56:19Z</time>
  <course>11.12</course>
  <speed>0.9239588735436226</speed>
  <fix>3d</fix>
</trkpt>
<trkpt lat="-27.2744476" lon="151.2900871">
  <ele>378.06</ele>
  <time>2026-09-01T19:56:19Z</time>
  <course>11.14</course>
  <speed>1.07</speed>
  <fix>3d</fix>
</trkpt>
<trkpt lat="-27.2744442" lon="151.2900877">
  <ele>377.88</ele>
  <time>2026-09-01T19:56:19Z</time>
  <course>11.12</course>
  <speed>0.8729833904490967</speed>
  <fix>3d</fix>
</trkpt>
<trkpt lat="-27.2744458" lon="151.2900874">
  <ele>378.06</ele>
  <time>2026-09-01T19:56:19Z</time>
  <course>11.13</course>
  <speed>0.95</speed>
  <fix>3d</fix>
</trkpt>
<trkpt lat="-27.2744434" lon="151.2900878">
  <ele>377.89</ele>
  <time>2026-09-01T19:56:19Z</time>
  <course>11.13</course>
  <speed>0.8220097323024831</speed>
  <fix>3d</fix>
</trkpt>
<trkpt lat="-27.2744458" lon="151.2900874">
  <ele>378.06</ele>
  <time>2026-09-01T19:56:19Z</time>
  <course>11.13</course>
  <speed>0.95</speed>
  <fix>3d</fix>
</trkpt>
<trkpt lat="-27.2744428" lon="151.290088">
  <ele>377.88</ele>
  <time>2026-09-01T19:56:19Z</time>
  <course>11.13</course>
  <speed>0.7808969202141856</speed>
  <fix>3d</fix>
</trkpt>
<trkpt lat="-27.2744442" lon="151.2900878">
  <ele>378.07</ele>
  <time>2026-09-01T19:56:19Z</time>
  <course>11.17</course>
  <speed>0.84</speed>
  <fix>3d</fix>
</trkpt>
<trkpt lat="-27.2744421" lon="151.2900881">
  <ele>377.87</ele>
  <time>2026-09-01T19:56:19Z</time>
  <course>11.14</course>
  <speed>0.7414849964766651</speed>
  <fix>3d</fix>
</trkpt>
<trkpt lat="-27.2744442" lon="151.2900878">
  <ele>378.07</ele>
  <time>2026-09-01T19:56:19Z</time>
  <course>11.17</course>
  <speed>0.84</speed>
  <fix>3d</fix>
</trkpt>
<trkpt lat="-27.2744415" lon="151.2900883">
  <ele>377.85</ele>
  <time>2026-09-01T19:56:19Z</time>
  <course>11.14</course>
  <speed>0.7102112361825881</speed>
  <fix>3d</fix>
</trkpt>
<trkpt lat="-27.2744428" lon="151.2900881">
  <ele>378.07</ele>
  <time>2026-09-01T19:56:19Z</time>
  <course>11.26</course>
  <speed>0.75</speed>
  <fix>3d</fix>
</trkpt>
<trkpt lat="-27.2744409" lon="151.2900884">
  <ele>377.81</ele>
  <time>2026-09-01T19:56:19Z</time>
  <course>11.14</course>
  <speed>0.6789698078707183</speed>
  <fix>3d</fix>
</trkpt>
<trkpt lat="-27.2744428" lon="151.2900881">
  <ele>378.07</ele>
  <time>2026-09-01T19:56:19Z</time>
  <course>11.26</course>
  <speed>0.75</speed>
  <fix>3d</fix>
</trkpt>
<trkpt lat="-27.2744403" lon="151.2900885">
  <ele>377.75</ele>
  <time>2026-09-01T19:56:19Z</time>
  <course>11.15</course>
  <speed>0.6395310782127792</speed>
  <fix>3d</fix>
</trkpt>
<trkpt lat="-27.2744416" lon="151.2900884">
  <ele>378.03</ele>
  <time>2026-09-01T19:56:19Z</time>
  <course>11.38</course>
  <speed>0.67</speed>
  <fix>3d</fix>
</trkpt>
<trkpt lat="-27.2744398" lon="151.2900886">
  <ele>377.67</ele>
  <time>2026-09-01T19:56:19Z</time>
  <course>11.15</course>
  <speed>0.608276253029822</speed>
  <fix>3d</fix>
</trkpt>
<trkpt lat="-27.2744416" lon="151.2900884">
  <ele>378.03</ele>
  <time>2026-09-01T19:56:19Z</time>
  <course>11.38</course>
  <speed>0.67</speed>
  <fix>3d</fix>
</trkpt>
<trkpt lat="-27.2744393" lon="151.2900888">
  <ele>377.57</ele>
  <time>2026-09-01T19:56:19Z</time>
  <course>11.15</course>
  <speed>0.5787054518492115</speed>
  <fix>3d</fix>
</trkpt>
<trkpt lat="-27.2744404" lon="151.2900887">
  <ele>377.93</ele>
  <time>2026-09-01T19:56:19Z</time>
  <course>11.52</course>
  <speed>0.6</speed>
  <fix>3d</fix>
</trkpt>
<trkpt lat="-27.2744388" lon="151.2900889">
  <ele>377.46</ele>
  <time>2026-09-01T19:56:19Z</time>
  <course>11.16</course>
  <speed>0.5474486277268398</speed>
  <fix>3d</fix>
</trkpt>
<trkpt lat="-27.2744404" lon="151.2900887">
  <ele>377.93</ele>
  <time>2026-09-01T19:56:19Z</time>
  <course>11.52</course>
  <speed>0.6</speed>
  <fix>3d</fix>
</trkpt>
<trkpt lat="-27.2744384" lon="151.290089">
  <ele>377.32</ele>
  <time>2026-09-01T19:56:19Z</time>
  <course>11.16</course>
  <speed>0.5162363799656123</speed>
  <fix>3d</fix>
</trkpt>
<trkpt lat="-27.2744394" lon="151.290089">
  <ele>377.75</ele>
  <time>2026-09-01T19:56:19Z</time>
  <course>11.69</course>
  <speed>0.54</speed>
  <fix>3d</fix>
</trkpt>
<trkpt lat="-27.2744379" lon="151.2900891">
  <ele>377.18</ele>
  <time>2026-09-01T19:56:19Z</time>
  <course>11.16</course>
  <speed>0.48662100242385753</speed>
  <fix>3d</fix>
</trkpt>
<trkpt lat="-27.2744394" lon="151.290089">
  <ele>377.75</ele>
  <time>2026-09-01T19:56:19Z</time>
  <course>11.69</course>
  <speed>0.54</speed>
  <fix>3d</fix>
</trkpt>
<trkpt lat="-27.2744376" lon="151.2900892">
  <ele>377.03</ele>
  <time>2026-09-01T19:56:19Z</time>
  <course>11.17</course>
  <speed>0.455411901469428</speed>
  <fix>3d</fix>
</trkpt>
<trkpt lat="-27.2744385" lon="151.2900892">
  <ele>377.51</ele>
  <time>2026-09-01T19:56:19Z</time>
  <course>11.88</course>
  <speed>0.48</speed>
  <fix>3d</fix>
</trkpt>
<trkpt lat="-27.2744372" lon="151.2900893">
  <ele>376.86</ele>
  <time>2026-09-01T19:56:19Z</time>
  <course>11.17</course>
  <speed>0.42579337712087534</speed>
  <fix>3d</fix>
</trkpt>
<trkpt lat="-27.2744385" lon="151.2900892">
  <ele>377.51</ele>
  <time>2026-09-01T19:56:19Z</time>
  <course>11.88</course>
  <speed>0.48</speed>
  <fix>3d</fix>
</trkpt>
<trkpt lat="-27.2744368" lon="151.2900893">
  <ele>376.7</ele>
  <time>2026-09-01T19:56:19Z</time>
  <course>11.17</course>
  <speed>0.4044749683231337</speed>
  <fix>3d</fix>
</trkpt>
<trkpt lat="-27.2744377" lon="151.2900894">
  <ele>377.21</ele>
  <time>2026-09-01T19:56:19Z</time>
  <course>12.08</course>
  <speed>0.42</speed>
  <fix>3d</fix>
</trkpt>
<trkpt lat="-27.2744365" lon="151.2900894">
  <ele>376.53</ele>
  <time>2026-09-01T19:56:19Z</time>
  <course>11.18</course>
  <speed>0.38470768123342686</speed>
  <fix>3d</fix>
</trkpt>
<trkpt lat="-27.2744377" lon="151.2900894">
  <ele>377.21</ele>
  <time>2026-09-01T19:56:19Z</time>
  <course>12.08</course>
  <speed>0.42</speed>
  <fix>3d</fix>
</trkpt>
<trkpt lat="-27.2744362" lon="151.2900895">
  <ele>376.37</ele>
  <time>2026-09-01T19:56:19Z</time>
  <course>11.19</course>
  <speed>0.3649657518178932</speed>
  <fix>3d</fix>
</trkpt>
<trkpt lat="-27.2744371" lon="151.2900895">
  <ele>376.89</ele>
  <time>2026-09-01T19:56:19Z</time>
  <course>12.29</course>
  <speed>0.37</speed>
  <fix>3d</fix>
</trkpt>
<trkpt lat="-27.2744359" lon="151.2900896">
  <ele>376.2</ele>
  <time>2026-09-01T19:56:19Z</time>
  <course>11.19</course>
  <speed>0.34365680554879163</speed>
  <fix>3d</fix>
</trkpt>
<trkpt lat="-27.2744371" lon="151.2900895">
  <ele>376.89</ele>
  <time>2026-09-01T19:56:19Z</time>
  <course>12.29</course>
  <speed>0.37</speed>
  <fix>3d</fix>
</trkpt>
<trkpt lat="-27.2744357" lon="151.2900896">
  <ele>376.04</ele>
  <time>2026-09-01T19:56:19Z</time>
  <course>11.2</course>
  <speed>0.3238826948140329</speed>
  <fix>3d</fix>
</trkpt>
<trkpt lat="-27.2744365" lon="151.2900897">
  <ele>376.56</ele>
  <time>2026-09-01T19:56:19Z</time>
  <course>12.5</course>
  <speed>0.32</speed>
  <fix>3d</fix>
</trkpt>
<trkpt lat="-27.2744354" lon="151.2900897">
  <ele>375.88</ele>
  <time>2026-09-01T19:56:19Z</time>
  <course>11.2</course>
  <speed>0.31400636936215165</speed>
  <fix>3d</fix>
</trkpt>
<trkpt lat="-27.2744365" lon="151.2900897">
  <ele>376.56</ele>
  <time>2026-09-01T19:56:19Z</time>
  <course>12.5</course>
  <speed>0.32</speed>
  <fix>3d</fix>
</trkpt>
<trkpt lat="-27.2744352" lon="151.2900898">
  <ele>375.72</ele>
  <time>2026-09-01T19:56:19Z</time>
  <course>11.2</course>
  <speed>0.3026549190084311</speed>
  <fix>3d</fix>
</trkpt>
<trkpt lat="-27.2744359" lon="151.2900898">
  <ele>376.23</ele>
  <time>2026-09-01T19:56:19Z</time>
  <course>12.68</course>
  <speed>0.29</speed>
  <fix>3d</fix>
</trkpt>
<trkpt lat="-27.2744349" lon="151.2900898">
  <ele>375.57</ele>
  <time>2026-09-01T19:56:19Z</time>
  <course>11.21</course>
  <speed>0.29274562336608895</speed>
  <fix>3d</fix>
</trkpt>
<trkpt lat="-27.2744359" lon="151.2900898">
  <ele>376.23</ele>
  <time>2026-09-01T19:56:19Z</time>
  <course>12.68</course>
  <speed>0.29</speed>
  <fix>3d</fix>
</trkpt>
<trkpt lat="-27.2744347" lon="151.2900899">
  <ele>375.42</ele>
  <time>2026-09-01T19:56:19Z</time>
  <course>11.21</course>
  <speed>0.282842712474619</speed>
  <fix>3d</fix>
</trkpt>
<trkpt lat="-27.2744354" lon="151.2900899">
  <ele>375.91</ele>
  <time>2026-09-01T19:56:19Z</time>
  <course>12.82</course>
  <speed>0.27</speed>
  <fix>3d</fix>
</trkpt>
<trkpt lat="-27.2744345" lon="151.2900899">
  <ele>375.27</ele>
  <time>2026-09-01T19:56:19Z</time>
  <course>11.22</course>
  <speed>0.27294688127912364</speed>
  <fix>3d</fix>
</trkpt>
<trkpt lat="-27.2744354" lon="151.2900899">
  <ele>375.91</ele>
  <time>2026-09-01T19:56:19Z</time>
  <course>12.82</course>
  <speed>0.27</speed>
  <fix>3d</fix>
</trkpt>
<trkpt lat="-27.2744343" lon="151.29009">
  <ele>375.13</ele>
  <time>2026-09-01T19:56:19Z</time>
  <course>11.23</course>
  <speed>0.261725046566048</speed>
  <fix>3d</fix>
</trkpt>
<trkpt lat="-27.2744349" lon="151.29009">
  <ele>375.61</ele>
  <time>2026-09-01T19:56:19Z</time>
  <course>12.9</course>
  <speed>0.25</speed>
  <fix>3d</fix>
</trkpt>
<trkpt lat="-27.2744341" lon="151.29009">
  <ele>374.98</ele>
  <time>2026-09-01T19:56:19Z</time>
  <course>11.23</course>
  <speed>0.261725046566048</speed>
  <fix>3d</fix>
</trkpt>
<trkpt lat="-27.2744349" lon="151.29009">
  <ele>375.61</ele>
  <time>2026-09-01T19:56:19Z</time>
  <course>12.9</course>
  <speed>0.25</speed>
  <fix>3d</fix>
</trkpt>
<trkpt lat="-27.2744339" lon="151.2900901">
  <ele>374.84</ele>
  <time>2026-09-01T19:56:19Z</time>
  <course>11.22</course>
  <speed>0.25179356624028343</speed>
  <fix>3d</fix>
</trkpt>
<trkpt lat="-27.2744345" lon="151.2900901">
  <ele>375.31</ele>
  <time>2026-09-01T19:56:19Z</time>
  <course>13.04</course>
  <speed>0.23</speed>
  <fix>3d</fix>
</trkpt>
<trkpt lat="-27.2744337" lon="151.2900901">
  <ele>374.69</ele>
  <time>2026-09-01T19:56:19Z</time>
  <course>11.22</course>
  <speed>0.25179356624028343</speed>
  <fix>3d</fix>
</trkpt>
<trkpt lat="-27.2744345" lon="151.2900901">
  <ele>375.31</ele>
  <time>2026-09-01T19:56:19Z</time>
  <course>13.04</course>
  <speed>0.23</speed>
  <fix>3d</fix>
</trkpt>
<trkpt lat="-27.2744335" lon="151.2900902">
  <ele>374.55</ele>
  <time>2026-09-01T19:56:19Z</time>
  <course>11.22</course>
  <speed>0.25179356624028343</speed>
  <fix>3d</fix>
</trkpt>
<trkpt lat="-27.2744341" lon="151.2900902">
  <ele>375.02</ele>
  <time>2026-09-01T19:56:19Z</time>
  <course>13.25</course>
  <speed>0.22</speed>
  <fix>3d</fix>
</trkpt>
<trkpt lat="-27.2744333" lon="151.2900902">
  <ele>374.41</ele>
  <time>2026-09-01T19:56:19Z</time>
  <course>11.22</course>
  <speed>0.24186773244895649</speed>
  <fix>3d</fix>
</trkpt>
<trkpt lat="-27.2744341" lon="151.2900902">
  <ele>375.02</ele>
  <time>2026-09-01T19:56:19Z</time>
  <course>13.25</course>
  <speed>0.22</speed>
  <fix>3d</fix>
</trkpt>
<trkpt lat="-27.2744331" lon="151.2900903">
  <ele>374.26</ele>
  <time>2026-09-01T19:56:19Z</time>
  <course>11.22</course>
  <speed>0.24186773244895649</speed>
  <fix>3d</fix>
</trkpt>
<trkpt lat="-27.2744336" lon="151.2900903">
  <ele>374.73</ele>
  <time>2026-09-01T19:56:19Z</time>
  <course>13.42</course>
  <speed>0.22</speed>
  <fix>3d</fix>
</trkpt>
<trkpt lat="-27.2744329" lon="151.2900903">
  <ele>374.12</ele>
  <time>2026-09-01T19:56:19Z</time>
  <course>11.22</course>
  <speed>0.24186773244895649</speed>
  <fix>3d</fix>
</trkpt>
<trkpt lat="-27.2744336" lon="151.2900903">
  <ele>374.73</ele>
  <time>2026-09-01T19:56:19Z</time>
  <course>13.42</course>
  <speed>0.22</speed>
  <fix>3d</fix>
</trkpt>
<trkpt lat="-27.2744327" lon="151.2900904">
  <ele>373.98</ele>
  <time>2026-09-01T19:56:19Z</time>
  <course>11.22</course>
  <speed>0.24186773244895649</speed>
  <fix>3d</fix>
</trkpt>
<trkpt lat="-27.2744333" lon="151.2900905">
  <ele>374.45</ele>
  <time>2026-09-01T19:56:19Z</time>
  <course>13.54</course>
  <speed>0.21</speed>
  <fix>3d</fix>
</trkpt>
<trkpt lat="-27.2744325" lon="151.2900904">
  <ele>373.83</ele>
  <time>2026-09-01T19:56:19Z</time>
  <course>11.22</course>
  <speed>0.23194827009486402</speed>
  <fix>3d</fix>
</trkpt>
<trkpt lat="-27.2744333" lon="151.2900905">
  <ele>374.45</ele>
  <time>2026-09-01T19:56:19Z</time>
  <course>13.54</course>
  <speed>0.21</speed>
  <fix>3d</fix>
</trkpt>
<trkpt lat="-27.2744323" lon="151.2900905">
  <ele>373.68</ele>
  <time>2026-09-01T19:56:19Z</time>
  <course>11.22</course>
  <speed>0.23194827009486402</speed>
  <fix>3d</fix>
</trkpt>
<trkpt lat="-27.2744329" lon="151.2900906">
  <ele>374.16</ele>
  <time>2026-09-01T19:56:19Z</time>
  <course>13.61</course>
  <speed>0.21</speed>
  <fix>3d</fix>
</trkpt>
<trkpt lat="-27.2744322" lon="151.2900905">
  <ele>373.54</ele>
  <time>2026-09-01T19:56:19Z</time>
  <course>11.23</course>
  <speed>0.2308679276123039</speed>
  <fix>3d</fix>
</trkpt>
<trkpt lat="-27.2744329" lon="151.2900906">
  <ele>374.16</ele>
  <time>2026-09-01T19:56:19Z</time>
  <course>13.61</course>
  <speed>0.21</speed>
  <fix>3d</fix>
</trkpt>
<trkpt lat="-27.274432" lon="151.2900906">
  <ele>373.39</ele>
  <time>2026-09-01T19:56:19Z</time>
  <course>11.23</course>
  <speed>0.2308679276123039</speed>
  <fix>3d</fix>
</trkpt>
<trkpt lat="-27.2744326" lon="151.2900907">
  <ele>373.87</ele>
  <time>2026-09-01T19:56:19Z</time>
  <course>13.6</course>
  <speed>0.21</speed>
  <fix>3d</fix>
</trkpt>
<trkpt lat="-27.2744318" lon="151.2900906">
  <ele>373.24</ele>
  <time>2026-09-01T19:56:19Z</time>
  <course>11.24</course>
  <speed>0.2308679276123039</speed>
  <fix>3d</fix>
</trkpt>
<trkpt lat="-27.2744326" lon="151.2900907">
  <ele>373.87</ele>
  <time>2026-09-01T19:56:19Z</time>
  <course>13.6</course>
  <speed>0.21</speed>
  <fix>3d</fix>
</trkpt>
<trkpt lat="-27.2744316" lon="151.2900907">
  <ele>373.09</ele>
  <time>2026-09-01T19:56:19Z</time>
  <course>11.25</course>
  <speed>0.2308679276123039</speed>
  <fix>3d</fix>
</trkpt>
<trkpt lat="-27.2744322" lon="151.2900908">
  <ele>373.58</ele>
  <time>2026-09-01T19:56:19Z</time>
  <course>13.59</course>
  <speed>0.21</speed>
  <fix>3d</fix>
</trkpt>
<trkpt lat="-27.2744314" lon="151.2900907">
  <ele>372.94</ele>
  <time>2026-09-01T19:56:19Z</time>
  <course>11.26</course>
  <speed>0.2308679276123039</speed>
  <fix>3d</fix>
</trkpt>
<trkpt lat="-27.2744322" lon="151.2900908">
  <ele>373.58</ele>
  <time>2026-09-01T19:56:19Z</time>
  <course>13.59</course>
  <speed>0.21</speed>
  <fix>3d</fix>
</trkpt>
<trkpt lat="-27.2744313" lon="151.2900908">
  <ele>372.78</ele>
  <time>2026-09-01T19:56:19Z</time>
  <course>11.25</course>
  <speed>0.22090722034374521</speed>
  <fix>3d</fix>
</trkpt>
<trkpt lat="-27.2744318" lon="151.2900909">
  <ele>373.28</ele>
  <time>2026-09-01T19:56:19Z</time>
  <course>13.6</course>
  <speed>0.2</speed>
  <fix>3d</fix>
</trkpt>
<trkpt lat="-27.2744311" lon="151.2900908">
  <ele>372.63</ele>
  <time>2026-09-01T19:56:19Z</time>
  <course>11.25</course>
  <speed>0.22090722034374521</speed>
  <fix>3d</fix>
</trkpt>
<trkpt lat="-27.2744318" lon="151.2900909">
  <ele>373.28</ele>
  <time>2026-09-01T19:56:19Z</time>
  <course>13.6</course>
  <speed>0.2</speed>
  <fix>3d</fix>
</trkpt>
<trkpt lat="-27.2744309" lon="151.2900909">
  <ele>372.48</ele>
  <time>2026-09-01T19:56:19Z</time>
  <course>11.25</course>
  <speed>0.22090722034374521</speed>
  <fix>3d</fix>
</trkpt>
<trkpt lat="-27.2744315" lon="151.290091">
  <ele>372.99</ele>
  <time>2026-09-01T19:56:19Z</time>
  <course>13.56</course>
  <speed>0.2</speed>
  <fix>3d</fix>
</trkpt>
<trkpt lat="-27.2744307" lon="151.2900909">
  <ele>372.33</ele>
  <time>2026-09-01T19:56:19Z</time>
  <course>11.24</course>
  <speed>0.22090722034374521</speed>
  <fix>3d</fix>
</trkpt>
<trkpt lat="-27.2744315" lon="151.290091">
  <ele>372.99</ele>
  <time>2026-09-01T19:56:19Z</time>
  <course>13.56</course>
  <speed>0.2</speed>
  <fix>3d</fix>
</trkpt>
<trkpt lat="-27.2744306" lon="151.2900909">
  <ele>372.18</ele>
  <time>2026-09-01T19:56:19Z</time>
  <course>11.23</course>
  <speed>0.2109502310972899</speed>
  <fix>3d</fix>
</trkpt>
<trkpt lat="-27.2744311" lon="151.290091">
  <ele>372.69</ele>
  <time>2026-09-01T19:56:19Z</time>
  <course>13.39</course>
  <speed>0.2</speed>
  <fix>3d</fix>
</trkpt>
<trkpt lat="-27.2744304" lon="151.290091">
  <ele>372.03</ele>
  <time>2026-09-01T19:56:19Z</time>
  <course>11.22</course>
  <speed>0.2109502310972899</speed>
  <fix>3d</fix>
</trkpt>
<trkpt lat="-27.2744311" lon="151.290091">
  <ele>372.69</ele>
  <time>2026-09-01T19:56:19Z</time>
  <course>13.39</course>
  <speed>0.2</speed>
  <fix>3d</fix>
</trkpt>
<trkpt lat="-27.2744302" lon="151.290091">
  <ele>371.88</ele>
  <time>2026-09-01T19:56:19Z</time>
  <course>11.21</course>
  <speed>0.2109502310972899</speed>
  <fix>3d</fix>
</trkpt>
<trkpt lat="-27.2744307" lon="151.2900911">
  <ele>372.39</ele>
  <time>2026-09-01T19:56:19Z</time>
  <course>13.11</course>
  <speed>0.19</speed>
  <fix>3d</fix>
</trkpt>
<trkpt lat="-27.2744301" lon="151.2900911">
  <ele>371.72</ele>
  <time>2026-09-01T19:56:19Z</time>
  <course>11.21</course>
  <speed>0.2109502310972899</speed>
  <fix>3d</fix>
</trkpt>
<trkpt lat="-27.2744307" lon="151.2900911">
  <ele>372.39</ele>
  <time>2026-09-01T19:56:19Z</time>
  <course>13.11</course>
  <speed>0.19</speed>
  <fix>3d</fix>
</trkpt>
<trkpt lat="-27.2744299" lon="151.2900911">
  <ele>371.57</ele>
  <time>2026-09-01T19:56:19Z</time>
  <course>11.2</course>
  <speed>0.2009975124224178</speed>
  <fix>3d</fix>
</trkpt>
<trkpt lat="-27.2744304" lon="151.2900912">
  <ele>372.09</ele>
  <time>2026-09-01T19:56:19Z</time>
  <course>12.86</course>
  <speed>0.19</speed>
  <fix>3d</fix>
</trkpt>
<trkpt lat="-27.2744297" lon="151.2900911">
  <ele>371.42</ele>
  <time>2026-09-01T19:56:19Z</time>
  <course>11.2</course>
  <speed>0.2002498439450079</speed>
  <fix>3d</fix>
</trkpt>
<trkpt lat="-27.2744304" lon="151.2900912">
  <ele>372.09</ele>
  <time>2026-09-01T19:56:19Z</time>
  <course>12.86</course>
  <speed>0.19</speed>
  <fix>3d</fix>
</trkpt>
<trkpt lat="-27.2744296" lon="151.2900912">
  <ele>371.27</ele>
  <time>2026-09-01T19:56:19Z</time>
  <course>11.2</course>
  <speed>0.2002498439450079</speed>
  <fix>3d</fix>
</trkpt>
<trkpt lat="-27.27443" lon="151.2900913">
  <ele>371.79</ele>
  <time>2026-09-01T19:56:19Z</time>
  <course>12.72</course>
  <speed>0.18</speed>
  <fix>3d</fix>
</trkpt>
<trkpt lat="-27.2744294" lon="151.2900912">
  <ele>371.12</ele>
  <time>2026-09-01T19:56:19Z</time>
  <course>11.21</course>
  <speed>0.19026297590440447</speed>
  <fix>3d</fix>
</trkpt>
<trkpt lat="-27.27443" lon="151.2900913">
  <ele>371.79</ele>
  <time>2026-09-01T19:56:19Z</time>
  <course>12.72</course>
  <speed>0.18</speed>
  <fix>3d</fix>
</trkpt>
<trkpt lat="-27.2744293" lon="151.2900912">
  <ele>370.97</ele>
  <time>2026-09-01T19:56:19Z</time>
  <course>11.22</course>
  <speed>0.19026297590440447</speed>
  <fix>3d</fix>
</trkpt>
<trkpt lat="-27.2744297" lon="151.2900914">
  <ele>371.49</ele>
  <time>2026-09-01T19:56:19Z</time>
  <course>12.73</course>
  <speed>0.18</speed>
  <fix>3d</fix>
</trkpt>
<trkpt lat="-27.2744291" lon="151.2900913">
  <ele>370.83</ele>
  <time>2026-09-01T19:56:19Z</time>
  <course>11.23</course>
  <speed>0.18027756377319945</speed>
  <fix>3d</fix>
</trkpt>
<trkpt lat="-27.2744297" lon="151.2900914">
  <ele>371.49</ele>
  <time>2026-09-01T19:56:19Z</time>
  <course>12.73</course>
  <speed>0.18</speed>
  <fix>3d</fix>
</trkpt>
<trkpt lat="-27.274429" lon="151.2900913">
  <ele>370.68</ele>
  <time>2026-09-01T19:56:19Z</time>
  <course>11.23</course>
  <speed>0.18027756377319945</speed>
  <fix>3d</fix>
</trkpt>
<trkpt lat="-27.2744294" lon="151.2900915">
  <ele>371.19</ele>
  <time>2026-09-01T19:56:19Z</time>
  <course>12.8</course>
  <speed>0.17</speed>
  <fix>3d</fix>
</trkpt>
<trkpt lat="-27.2744288" lon="151.2900914">
  <ele>370.53</ele>
  <time>2026-09-01T19:56:19Z</time>
  <course>11.23</course>
  <speed>0.17029386365926402</speed>
  <fix>3d</fix>
</trkpt>
<trkpt lat="-27.2744294" lon="151.2900915">
  <ele>371.19</ele>
  <time>2026-09-01T19:56:19Z</time>
  <course>12.8</course>
  <speed>0.17</speed>
  <fix>3d</fix>
</trkpt>
<trkpt lat="-27.2744287" lon="151.2900914">
  <ele>370.38</ele>
  <time>2026-09-01T19:56:19Z</time>
  <course>11.23</course>
  <speed>0.17029386365926402</speed>
  <fix>3d</fix>
</trkpt>
<trkpt lat="-27.2744291" lon="151.2900915">
  <ele>370.89</ele>
  <time>2026-09-01T19:56:19Z</time>
  <course>12.68</course>
  <speed>0.16</speed>
  <fix>3d</fix>
</trkpt>
<trkpt lat="-27.2744286" lon="151.2900914">
  <ele>370.24</ele>
  <time>2026-09-01T19:56:19Z</time>
  <course>11.22</course>
  <speed>0.16031219541881397</speed>
  <fix>3d</fix>
</trkpt>
<trkpt lat="-27.2744291" lon="151.2900915">
  <ele>370.89</ele>
  <time>2026-09-01T19:56:19Z</time>
  <course>12.68</course>
  <speed>0.16</speed>
  <fix>3d</fix>
</trkpt>
<trkpt lat="-27.2744284" lon="151.2900914">
  <ele>370.09</ele>
  <time>2026-09-01T19:56:19Z</time>
  <course>11.21</course>
  <speed>0.16</speed>
  <fix>3d</fix>
</trkpt>
<trkpt lat="-27.2744288" lon="151.2900916">
  <ele>370.6</ele>
  <time>2026-09-01T19:56:19Z</time>
  <course>12.33</course>
  <speed>0.15</speed>
  <fix>3d</fix>
</trkpt>
<trkpt lat="-27.2744283" lon="151.2900915">
  <ele>369.95</ele>
  <time>2026-09-01T19:56:19Z</time>
  <course>11.2</course>
  <speed>0.15</speed>
  <fix>3d</fix>
</trkpt>
<trkpt lat="-27.2744288" lon="151.2900916">
  <ele>370.6</ele>
  <time>2026-09-01T19:56:19Z</time>
  <course>12.33</course>
  <speed>0.15</speed>
  <fix>3d</fix>
</trkpt>
<trkpt lat="-27.2744282" lon="151.2900915">
  <ele>369.8</ele>
  <time>2026-09-01T19:56:19Z</time>
  <course>11.2</course>
  <speed>0.15</speed>
  <fix>3d</fix>
</trkpt>
<trkpt lat="-27.2744286" lon="151.2900917">
  <ele>370.3</ele>
  <time>2026-09-01T19:56:19Z</time>
  <course>11.95</course>
  <speed>0.14</speed>
  <fix>3d</fix>
</trkpt>
<trkpt lat="-27.2744281" lon="151.2900915">
  <ele>369.64</ele>
  <time>2026-09-01T19:56:19Z</time>
  <course>11.19</course>
  <speed>0.14</speed>
  <fix>3d</fix>
</trkpt>
<trkpt lat="-27.2744286" lon="151.2900917">
  <ele>370.3</ele>
  <time>2026-09-01T19:56:19Z</time>
  <course>11.95</course>
  <speed>0.14</speed>
  <fix>3d</fix>
</trkpt>
<trkpt lat="-27.274428" lon="151.2900916">
  <ele>369.49</ele>
  <time>2026-09-01T19:56:19Z</time>
  <course>11.18</course>
  <speed>0.13</speed>
  <fix>3d</fix>
</trkpt>
<trkpt lat="-27.2744283" lon="151.2900918">
  <ele>370.01</ele>
  <time>2026-09-01T19:56:19Z</time>
  <course>11.58</course>
  <speed>0.13</speed>
  <fix>3d</fix>
</trkpt>
<trkpt lat="-27.2744279" lon="151.2900916">
  <ele>369.34</ele>
  <time>2026-09-01T19:56:19Z</time>
  <course>11.17</course>
  <speed>0.13</speed>
  <fix>3d</fix>
</trkpt>
<trkpt lat="-27.2744283" lon="151.2900918">
  <ele>370.01</ele>
  <time>2026-09-01T19:56:19Z</time>
  <course>11.58</course>
  <speed>0.13</speed>
  <fix>3d</fix>
</trkpt>
<trkpt lat="-27.2744278" lon="151.2900916">
  <ele>369.19</ele>
  <time>2026-09-01T19:56:19Z</time>
  <course>11.17</course>
  <speed>0.12</speed>
  <fix>3d</fix>
</trkpt>
<trkpt lat="-27.2744281" lon="151.2900918">
  <ele>369.71</ele>
  <time>2026-09-01T19:56:19Z</time>
  <course>11.05</course>
  <speed>0.12</speed>
  <fix>3d</fix>
</trkpt>
<trkpt lat="-27.2744277" lon="151.2900916">
  <ele>369.04</ele>
  <time>2026-09-01T19:56:19Z</time>
  <course>11.17</course>
  <speed>0.11</speed>
  <fix>3d</fix>
</trkpt>
<trkpt lat="-27.2744281" lon="151.2900918">
  <ele>369.71</ele>
  <time>2026-09-01T19:56:19Z</time>
  <course>11.05</course>
  <speed>0.12</speed>
  <fix>3d</fix>
</trkpt>
<trkpt lat="-27.2744276" lon="151.2900917">
  <ele>368.89</ele>
  <time>2026-09-01T19:56:19Z</time>
  <course>11.16</course>
  <speed>0.11</speed>
  <fix>3d</fix>
</trkpt>
<trkpt lat="-27.2744279" lon="151.2900919">
  <ele>369.41</ele>
  <time>2026-09-01T19:56:19Z</time>
  <course>10.49</course>
  <speed>0.1</speed>
  <fix>3d</fix>
</trkpt>
<trkpt lat="-27.2744275" lon="151.2900917">
  <ele>368.74</ele>
  <time>2026-09-01T19:56:19Z</time>
  <course>11.16</course>
  <speed>0.1</speed>
  <fix>3d</fix>
</trkpt>
<trkpt lat="-27.2744279" lon="151.2900919">
  <ele>369.41</ele>
  <time>2026-09-01T19:56:19Z</time>
  <course>10.49</course>
  <speed>0.1</speed>
  <fix>3d</fix>
</trkpt>
<trkpt lat="-27.2744274" lon="151.2900917">
  <ele>368.59</ele>
  <time>2026-09-01T19:56:19Z</time>
  <course>11.16</course>
  <speed>0.1</speed>
  <fix>3d</fix>
</trkpt>
<trkpt lat="-27.2744277" lon="151.2900919">
  <ele>369.11</ele>
  <time>2026-09-01T19:56:19Z</time>
  <course>10.21</course>
  <speed>0.09</speed>
  <fix>3d</fix>
</trkpt>
<trkpt lat="-27.2744274" lon="151.2900917">
  <ele>368.44</ele>
  <time>2026-09-01T19:56:19Z</time>
  <course>11.16</course>
  <speed>0.09</speed>
  <fix>3d</fix>
</trkpt>
<trkpt lat="-27.2744277" lon="151.2900919">
  <ele>369.11</ele>
  <time>2026-09-01T19:56:19Z</time>
  <course>10.21</course>
  <speed>0.09</speed>
  <fix>3d</fix>
</trkpt>
<trkpt lat="-27.2744273" lon="151.2900917">
  <ele>368.29</ele>
  <time>2026-09-01T19:56:19Z</time>
  <course>11.16</course>
  <speed>0.09</speed>
  <fix>3d</fix>
</trkpt>
<trkpt lat="-27.2744276" lon="151.2900919">
  <ele>368.81</ele>
  <time>2026-09-01T19:56:19Z</time>
  <course>10.29</course>
  <speed>0.08</speed>
  <fix>3d</fix>
</trkpt>
<trkpt lat="-27.2744273" lon="151.2900917">
  <ele>368.14</ele>
  <time>2026-09-01T19:56:19Z</time>
  <course>11.17</course>
  <speed>0.08</speed>
  <fix>3d</fix>
</trkpt>
<trkpt lat="-27.2744276" lon="151.2900919">
  <ele>368.81</ele>
  <time>2026-09-01T19:56:19Z</time>
  <course>10.29</course>
  <speed>0.08</speed>
  <fix>3d</fix>
</trkpt>
<trkpt lat="-27.2744272" lon="151.2900918">
  <ele>367.99</ele>
  <time>2026-09-01T19:56:19Z</time>
  <course>11.17</course>
  <speed>0.07</speed>
  <fix>3d</fix>
</trkpt>
<trkpt lat="-27.2744274" lon="151.2900919">
  <ele>368.51</ele>
  <time>2026-09-01T19:56:19Z</time>
  <course>10.48</course>
  <speed>0.07</speed>
  <fix>3d</fix>
</trkpt>
<trkpt lat="-27.2744271" lon="151.2900918">
  <ele>367.83</ele>
  <time>2026-09-01T19:56:19Z</time>
  <course>11.18</course>
  <speed>0.07</speed>
  <fix>3d</fix>
</trkpt>
<trkpt lat="-27.2744274" lon="151.2900919">
  <ele>368.51</ele>
  <time>2026-09-01T19:56:19Z</time>
  <course>10.48</course>
  <speed>0.07</speed>
  <fix>3d</fix>
</trkpt>
<trkpt lat="-27.2744271" lon="151.2900918">
  <ele>367.68</ele>
  <time>2026-09-01T19:56:19Z</time>
  <course>11.18</course>
  <speed>0.06</speed>
  <fix>3d</fix>
</trkpt>
<trkpt lat="-27.2744273" lon="151.2900919">
  <ele>368.21</ele>
  <time>2026-09-01T19:56:19Z</time>
  <course>10.42</course>
  <speed>0.06</speed>
  <fix>3d</fix>
</trkpt>
<trkpt lat="-27.2744271" lon="151.2900918">
  <ele>367.53</ele>
  <time>2026-09-01T19:56:19Z</time>
  <course>11.17</course>
  <speed>0.06</speed>
  <fix>3d</fix>
</trkpt>
<trkpt lat="-27.2744273" lon="151.2900919">
  <ele>368.21</ele>
  <time>2026-09-01T19:56:19Z</time>
  <course>10.42</course>
  <speed>0.06</speed>
  <fix>3d</fix>
</trkpt>
<trkpt lat="-27.274427" lon="151.2900918">
  <ele>367.38</ele>
  <time>2026-09-01T19:56:19Z</time>
  <course>11.16</course>
  <speed>0.05</speed>
  <fix>3d</fix>
</trkpt>
<trkpt lat="-27.2744272" lon="151.2900919">
  <ele>367.91</ele>
  <time>2026-09-01T19:56:19Z</time>
  <course>10.28</course>
  <speed>0.04</speed>
  <fix>3d</fix>
</trkpt>
<trkpt lat="-27.274427" lon="151.2900918">
  <ele>367.23</ele>
  <time>2026-09-01T19:56:19Z</time>
  <course>11.14</course>
  <speed>0.0412310562561766</speed>
  <fix>3d</fix>
</trkpt>
<trkpt lat="-27.2744272" lon="151.2900919">
  <ele>367.91</ele>
  <time>2026-09-01T19:56:19Z</time>
  <course>10.28</course>
  <speed>0.04</speed>
  <fix>3d</fix>
</trkpt>
<trkpt lat="-27.274427" lon="151.2900918">
  <ele>367.08</ele>
  <time>2026-09-01T19:56:19Z</time>
  <course>11.11</course>
  <speed>0.0412310562561766</speed>
  <fix>3d</fix>
</trkpt>
<trkpt lat="-27.2744271" lon="151.290092">
  <ele>367.61</ele>
  <time>2026-09-01T19:56:19Z</time>
  <course>10.64</course>
  <speed>0.03</speed>
  <fix>3d</fix>
</trkpt>
<trkpt lat="-27.2744269" lon="151.2900918">
  <ele>366.93</ele>
  <time>2026-09-01T19:56:19Z</time>
  <course>11.08</course>
  <speed>0.0316227766016838</speed>
  <fix>3d</fix>
</trkpt>
<trkpt lat="-27.2744271" lon="151.290092">
  <ele>367.61</ele>
  <time>2026-09-01T19:56:19Z</time>
  <course>10.64</course>
  <speed>0.03</speed>
  <fix>3d</fix>
</trkpt>
<trkpt lat="-27.2744269" lon="151.2900918">
  <ele>366.78</ele>
  <time>2026-09-01T19:56:19Z</time>
  <course>11.05</course>
  <speed>0.0316227766016838</speed>
  <fix>3d</fix>
</trkpt>
<trkpt lat="-27.2744271" lon="151.290092">
  <ele>367.31</ele>
  <time>2026-09-01T19:56:19Z</time>
  <course>12.49</course>
  <speed>0.02</speed>
  <fix>3d</fix>
</trkpt>
<trkpt lat="-27.2744269" lon="151.2900918">
  <ele>366.64</ele>
  <time>2026-09-01T19:56:19Z</time>
  <course>11.03</course>
  <speed>0.03605551275463989</speed>
  <fix>3d</fix>
</trkpt>
<trkpt lat="-27.2744271" lon="151.290092">
  <ele>367.31</ele>
  <time>2026-09-01T19:56:19Z</time>
  <course>12.49</course>
  <speed>0.02</speed>
  <fix>3d</fix>
</trkpt>
<trkpt lat="-27.2744269" lon="151.2900918">
  <ele>366.48</ele>
  <time>2026-09-01T19:56:19Z</time>
  <course>11.03</course>
  <speed>0.022360679774997897</speed>
  <fix>3d</fix>
</trkpt>
<trkpt lat="-27.274427" lon="151.290092">
  <ele>367.01</ele>
  <time>2026-09-01T19:56:19Z</time>
  <course>16.72</course>
  <speed>0.01</speed>
  <fix>3d</fix>
</trkpt>
<trkpt lat="-27.2744269" lon="151.2900918">
  <ele>366.34</ele>
  <time>2026-09-01T19:56:19Z</time>
  <course>11.05</course>
  <speed>0.0282842712474619</speed>
  <fix>3d</fix>
</trkpt>
<trkpt lat="-27.274427" lon="151.290092">
  <ele>367.01</ele>
  <time>2026-09-01T19:56:19Z</time>
  <course>16.72</course>
  <speed>0.01</speed>
  <fix>3d</fix>
</trkpt>
<trkpt lat="-27.2744269" lon="151.2900918">
  <ele>366.19</ele>
  <time>2026-09-01T19:56:19Z</time>
  <course>11.07</course>
  <speed>0.022360679774997897</speed>
  <fix>3d</fix>
</trkpt>
<trkpt lat="-27.274427" lon="151.290092">
  <ele>366.71</ele>
  <time>2026-09-01T19:56:19Z</time>
  <course>25.27</course>
  <speed>0.0</speed>
  <fix>3d</fix>
</trkpt>
<trkpt lat="-27.2744269" lon="151.2900918">
  <ele>366.04</ele>
  <time>2026-09-01T19:56:19Z</time>
  <course>11.09</course>
  <speed>0.022360679774997897</speed>
  <fix>3d</fix>
</trkpt>
<trkpt lat="-27.274427" lon="151.290092">
  <ele>366.71</ele>
  <time>2026-09-01T19:56:19Z</time>
  <course>25.27</course>
  <speed>0.0</speed>
  <fix>3d</fix>
</trkpt>
<trkpt lat="-27.2744269" lon="151.2900918">
  <ele>365.89</ele>
  <time>2026-09-01T19:56:19Z</time>
  <course>11.1</course>
  <speed>0.01</speed>
  <fix>3d</fix>
</trkpt>
<trkpt lat="-27.274427" lon="151.290092">
  <ele>366.41</ele>
  <time>2026-09-01T19:56:19Z</time>
  <course>145.98</course>
  <speed>0.0</speed>
  <fix>3d</fix>
</trkpt>
<trkpt lat="-27.2744269" lon="151.2900918">
  <ele>365.74</ele>
  <time>2026-09-01T19:56:19Z</time>
  <course>11.11</course>
  <speed>0.02</speed>
  <fix>3d</fix>
</trkpt>
<trkpt lat="-27.274427" lon="151.290092">
  <ele>366.41</ele>
  <time>2026-09-01T19:56:19Z</time>
  <course>145.98</course>
  <speed>0.0</speed>
  <fix>3d</fix>
</trkpt>
<trkpt lat="-27.2744269" lon="151.2900918">
  <ele>365.59</ele>
  <time>2026-09-01T19:56:19Z</time>
  <course>11.1</course>
  <speed>0.02</speed>
  <fix>3d</fix>
</trkpt>
<trkpt lat="-27.274427" lon="151.290092">
  <ele>366.12</ele>
  <time>2026-09-01T19:56:19Z</time>
  <course>178.07</course>
  <speed>0.01</speed>
  <fix>3d</fix>
</trkpt>
<trkpt lat="-27.2744269" lon="151.2900918">
  <ele>365.44</ele>
  <time>2026-09-01T19:56:19Z</time>
  <course>11.08</course>
  <speed>0.02</speed>
  <fix>3d</fix>
</trkpt>
<trkpt lat="-27.274427" lon="151.290092">
  <ele>366.12</ele>
  <time>2026-09-01T19:56:19Z</time>
  <course>178.07</course>
  <speed>0.01</speed>
  <fix>3d</fix>
</trkpt>
<trkpt lat="-27.2744269" lon="151.2900918">
  <ele>365.29</ele>
  <time>2026-09-01T19:56:19Z</time>
  <course>11.07</course>
  <speed>0.02</speed>
  <fix>3d</fix>
</trkpt>
<trkpt lat="-27.274427" lon="151.290092">
  <ele>365.82</ele>
  <time>2026-09-01T19:56:19Z</time>
  <course>183.24</course>
  <speed>0.01</speed>
  <fix>3d</fix>
</trkpt>
<trkpt lat="-27.2744269" lon="151.2900918">
  <ele>365.14</ele>
  <time>2026-09-01T19:56:19Z</time>
  <course>11.07</course>
  <speed>0.02</speed>
  <fix>3d</fix>
</trkpt>
<trkpt lat="-27.274427" lon="151.290092">
  <ele>365.82</ele>
  <time>2026-09-01T19:56:19Z</time>
  <course>183.24</course>
  <speed>0.01</speed>
  <fix>3d</fix>
</trkpt>
<trkpt lat="-27.2744269" lon="151.2900918">
  <ele>364.99</ele>
  <time>2026-09-01T19:56:19Z</time>
  <course>11.07</course>
  <speed>0.03</speed>
  <fix>3d</fix>
</trkpt>
<trkpt lat="-27.274427" lon="151.290092">
  <ele>365.52</ele>
  <time>2026-09-01T19:56:19Z</time>
  <course>186.15</course>
  <speed>0.02</speed>
  <fix>3d</fix>
</trkpt>
<trkpt lat="-27.2744269" lon="151.2900918">
  <ele>364.84</ele>
  <time>2026-09-01T19:56:19Z</time>
  <course>11.09</course>
  <speed>0.022360679774997897</speed>
  <fix>3d</fix>
</trkpt>
<trkpt lat="-27.274427" lon="151.290092">
  <ele>365.52</ele>
  <time>2026-09-01T19:56:19Z</time>
  <course>186.15</course>
  <speed>0.02</speed>
  <fix>3d</fix>
</trkpt>
<trkpt lat="-27.2744269" lon="151.2900918">
  <ele>364.69</ele>
  <time>2026-09-01T19:56:19Z</time>
  <course>11.11</course>
  <speed>0.022360679774997897</speed>
  <fix>3d</fix>
</trkpt>
<trkpt lat="-27.274427" lon="151.290092">
  <ele>365.22</ele>
  <time>2026-09-01T19:56:19Z</time>
  <course>188.48</course>
  <speed>0.03</speed>
  <fix>3d</fix>
</trkpt>
<trkpt lat="-27.274427" lon="151.2900918">
  <ele>364.54</ele>
  <time>2026-09-01T19:56:19Z</time>
  <course>11.12</course>
  <speed>0.022360679774997897</speed>
  <fix>3d</fix>
</trkpt>
<trkpt lat="-27.274427" lon="151.290092">
  <ele>365.22</ele>
  <time>2026-09-01T19:56:19Z</time>
  <course>188.48</course>
  <speed>0.03</speed>
  <fix>3d</fix>
</trkpt>
<trkpt lat="-27.274427" lon="151.2900918">
  <ele>364.39</ele>
  <time>2026-09-01T19:56:19Z</time>
  <course>11.12</course>
  <speed>0.022360679774997897</speed>
  <fix>3d</fix>
</trkpt>
<trkpt lat="-27.2744271" lon="151.290092">
  <ele>364.91</ele>
  <time>2026-09-01T19:56:19Z</time>
  <course>188.88</course>
  <speed>0.03</speed>
  <fix>3d</fix>
</trkpt>
<trkpt lat="-27.274427" lon="151.2900918">
  <ele>364.24</ele>
  <time>2026-09-01T19:56:19Z</time>
  <course>11.12</course>
  <speed>0.022360679774997897</speed>
  <fix>3d</fix>
</trkpt>
<trkpt lat="-27.2744271" lon="151.290092">
  <ele>364.91</ele>
  <time>2026-09-01T19:56:19Z</time>
  <course>188.88</course>
  <speed>0.03</speed>
  <fix>3d</fix>
</trkpt>
<trkpt lat="-27.274427" lon="151.2900918">
  <ele>364.09</ele>
  <time>2026-09-01T19:56:19Z</time>
  <course>11.14</course>
  <speed>0.022360679774997897</speed>
  <fix>3d</fix>
</trkpt>
<trkpt lat="-27.2744271" lon="151.290092">
  <ele>364.62</ele>
  <time>2026-09-01T19:56:19Z</time>
  <course>188.58</course>
  <speed>0.03</speed>
  <fix>3d</fix>
</trkpt>
<trkpt lat="-27.2744271" lon="151.2900918">
  <ele>363.94</ele>
  <time>2026-09-01T19:56:19Z</time>
  <course>11.15</course>
  <speed>0.0282842712474619</speed>
  <fix>3d</fix>
</trkpt>
<trkpt lat="-27.2744271" lon="151.290092">
  <ele>364.62</ele>
  <time>2026-09-01T19:56:19Z</time>
  <course>188.58</course>
  <speed>0.03</speed>
  <fix>3d</fix>
</trkpt>
<trkpt lat="-27.2744271" lon="151.2900918">
  <ele>363.79</ele>
  <time>2026-09-01T19:56:19Z</time>
  <course>11.14</course>
  <speed>0.022360679774997897</speed>
  <fix>3d</fix>
</trkpt>
<trkpt lat="-27.2744272" lon="151.290092">
  <ele>364.32</ele>
  <time>2026-09-01T19:56:19Z</time>
  <course>188.72</course>
  <speed>0.04</speed>
  <fix>3d</fix>
</trkpt>
<trkpt lat="-27.2744271" lon="151.2900918">
  <ele>363.64</ele>
  <time>2026-09-01T19:56:19Z</time>
  <course>11.11</course>
  <speed>0.022360679774997897</speed>
  <fix>3d</fix>
</trkpt>
<trkpt lat="-27.2744272" lon="151.290092">
  <ele>364.32</ele>
  <time>2026-09-01T19:56:19Z</time>
  <course>188.72</course>
  <speed>0.04</speed>
  <fix>3d</fix>
</trkpt>
<trkpt lat="-27.2744272" lon="151.2900918">
  <ele>363.49</ele>
  <time>2026-09-01T19:56:19Z</time>
  <course>11.08</course>
  <speed>0.022360679774997897</speed>
  <fix>3d</fix>
</trkpt>
<trkpt lat="-27.2744273" lon="151.290092">
  <ele>364.02</ele>
  <time>2026-09-01T19:56:19Z</time>
  <course>188.16</course>
  <speed>0.04</speed>
  <fix>3d</fix>
</trkpt>
<trkpt lat="-27.2744272" lon="151.2900918">
  <ele>363.34</ele>
  <time>2026-09-01T19:56:19Z</time>
  <course>11.05</course>
  <speed>0.022360679774997897</speed>
  <fix>3d</fix>
</trkpt>
<trkpt lat="-27.2744273" lon="151.290092">
  <ele>364.02</ele>
  <time>2026-09-01T19:56:19Z</time>
  <course>188.16</course>
  <speed>0.04</speed>
  <fix>3d</fix>
</trkpt>
<trkpt lat="-27.2744273" lon="151.2900918">
  <ele>363.19</ele>
  <time>2026-09-01T19:56:19Z</time>
  <course>11.04</course>
  <speed>0.022360679774997897</speed>
  <fix>3d</fix>
</trkpt>
<trkpt lat="-27.2744274" lon="151.290092">
  <ele>363.72</ele>
  <time>2026-09-01T19:56:19Z</time>
  <course>188.03</course>
  <speed>0.04</speed>
  <fix>3d</fix>
</trkpt>
<trkpt lat="-27.2744273" lon="151.2900918">
  <ele>363.04</ele>
  <time>2026-09-01T19:56:19Z</time>
  <course>11.04</course>
  <speed>0.022360679774997897</speed>
  <fix>3d</fix>
</trkpt>
<trkpt lat="-27.2744274" lon="151.290092">
  <ele>363.72</ele>
  <time>2026-09-01T19:56:19Z</time>
  <course>188.03</course>
  <speed>0.04</speed>
  <fix>3d</fix>
</trkpt>
<trkpt lat="-27.2744273" lon="151.2900918">
  <ele>362.88</ele>
  <time>2026-09-01T19:56:19Z</time>
  <course>11.04</course>
  <speed>0.022360679774997897</speed>
  <fix>3d</fix>
</trkpt>
<trkpt lat="-27.2744275" lon="151.290092">
  <ele>363.41</ele>
  <time>2026-09-01T19:56:19Z</time>
  <course>188.31</course>
  <speed>0.05</speed>
  <fix>3d</fix>
</trkpt>
<trkpt lat="-27.2744274" lon="151.2900918">
  <ele>362.73</ele>
  <time>2026-09-01T19:56:19Z</time>
  <course>11.04</course>
  <speed>0.022360679774997897</speed>
  <fix>3d</fix>
</trkpt>
<trkpt lat="-27.2744275" lon="151.290092">
  <ele>363.41</ele>
  <time>2026-09-01T19:56:19Z</time>
  <course>188.31</course>
  <speed>0.05</speed>
  <fix>3d</fix>
</trkpt>
<trkpt lat="-27.2744274" lon="151.2900918">
  <ele>362.58</ele>
  <time>2026-09-01T19:56:19Z</time>
  <course>11.04</course>
  <speed>0.022360679774997897</speed>
  <fix>3d</fix>
</trkpt>
<trkpt lat="-27.2744275" lon="151.290092">
  <ele>363.12</ele>
  <time>2026-09-01T19:56:19Z</time>
  <course>188.13</course>
  <speed>0.05</speed>
  <fix>3d</fix>
</trkpt>
<trkpt lat="-27.2744275" lon="151.2900918">
  <ele>362.43</ele>
  <time>2026-09-01T19:56:19Z</time>
  <course>11.03</course>
  <speed>0.022360679774997897</speed>
  <fix>3d</fix>
</trkpt>
<trkpt lat="-27.2744275" lon="151.290092">
  <ele>363.12</ele>
  <time>2026-09-01T19:56:19Z</time>
  <course>188.13</course>
  <speed>0.05</speed>
  <fix>3d</fix>
</trkpt>
<trkpt lat="-27.2744275" lon="151.2900918">
  <ele>362.28</ele>
  <time>2026-09-01T19:56:19Z</time>
  <course>11.0</course>
  <speed>0.022360679774997897</speed>
  <fix>3d</fix>
</trkpt>
<trkpt lat="-27.2744276" lon="151.290092">
  <ele>362.82</ele>
  <time>2026-09-01T19:56:19Z</time>
  <course>187.37</course>
  <speed>0.05</speed>
  <fix>3d</fix>
</trkpt>
<trkpt lat="-27.2744275" lon="151.2900918">
  <ele>362.13</ele>
  <time>2026-09-01T19:56:19Z</time>
  <course>10.97</course>
  <speed>0.022360679774997897</speed>
  <fix>3d</fix>
</trkpt>
<trkpt lat="-27.2744276" lon="151.290092">
  <ele>362.82</ele>
  <time>2026-09-01T19:56:19Z</time>
  <course>187.37</course>
  <speed>0.05</speed>
  <fix>3d</fix>
</trkpt>
<trkpt lat="-27.2744276" lon="151.2900918">
  <ele>361.98</ele>
  <time>2026-09-01T19:56:19Z</time>
  <course>10.93</course>
  <speed>0.02</speed>
  <fix>3d</fix>
</trkpt>
<trkpt lat="-27.2744277" lon="151.290092">
  <ele>362.52</ele>
  <time>2026-09-01T19:56:19Z</time>
  <course>186.05</course>
  <speed>0.05</speed>
  <fix>3d</fix>
</trkpt>
<trkpt lat="-27.2744276" lon="151.2900918">
  <ele>361.83</ele>
  <time>2026-09-01T19:56:19Z</time>
  <course>10.88</course>
  <speed>0.02</speed>
  <fix>3d</fix>
</trkpt>
<trkpt lat="-27.2744277" lon="151.290092">
  <ele>362.52</ele>
  <time>2026-09-01T19:56:19Z</time>
  <course>186.05</course>
  <speed>0.05</speed>
  <fix>3d</fix>
</trkpt>
<trkpt lat="-27.2744277" lon="151.2900918">
  <ele>361.68</ele>
  <time>2026-09-01T19:56:19Z</time>
  <course>10.83</course>
  <speed>0.02</speed>
  <fix>3d</fix>
</trkpt>
<trkpt lat="-27.2744278" lon="151.290092">
  <ele>362.22</ele>
  <time>2026-09-01T19:56:19Z</time>
  <course>184.66</course>
  <speed>0.05</speed>
  <fix>3d</fix>
</trkpt>
<trkpt lat="-27.2744277" lon="151.2900918">
  <ele>361.53</ele>
  <time>2026-09-01T19:56:19Z</time>
  <course>10.79</course>
  <speed>0.02</speed>
  <fix>3d</fix>
</trkpt>
<trkpt lat="-27.2744278" lon="151.290092">
  <ele>362.22</ele>
  <time>2026-09-01T19:56:19Z</time>
  <course>184.66</course>
  <speed>0.05</speed>
  <fix>3d</fix>
</trkpt>
<trkpt lat="-27.2744278" lon="151.2900918">
  <ele>361.38</ele>
  <time>2026-09-01T19:56:19Z</time>
  <course>10.75</course>
  <speed>0.02</speed>
  <fix>3d</fix>
</trkpt>
<trkpt lat="-27.2744279" lon="151.290092">
  <ele>361.91</ele>
  <time>2026-09-01T19:56:19Z</time>
  <course>183.93</course>
  <speed>0.05</speed>
  <fix>3d</fix>
</trkpt>
<trkpt lat="-27.2744278" lon="151.2900918">
  <ele>361.23</ele>
  <time>2026-09-01T19:56:19Z</time>
  <course>10.73</course>
  <speed>0.02</speed>
  <fix>3d</fix>
</trkpt>
<trkpt lat="-27.2744279" lon="151.290092">
  <ele>361.91</ele>
  <time>2026-09-01T19:56:19Z</time>
  <course>183.93</course>
  <speed>0.05</speed>
  <fix>3d</fix>
</trkpt>
<trkpt lat="-27.2744278" lon="151.2900918">
  <ele>361.08</ele>
  <time>2026-09-01T19:56:19Z</time>
  <course>10.71</course>
  <speed>0.02</speed>
  <fix>3d</fix>
</trkpt>
<trkpt lat="-27.274428" lon="151.2900919">
  <ele>361.62</ele>
  <time>2026-09-01T19:56:19Z</time>
  <course>183.14</course>
  <speed>0.05</speed>
  <fix>3d</fix>
</trkpt>
<trkpt lat="-27.2744279" lon="151.2900918">
  <ele>360.94</ele>
  <time>2026-09-01T19:56:19Z</time>
  <course>10.68</course>
  <speed>0.02</speed>
  <fix>3d</fix>
</trkpt>
<trkpt lat="-27.274428" lon="151.2900919">
  <ele>361.62</ele>
  <time>2026-09-01T19:56:19Z</time>
  <course>183.14</course>
  <speed>0.05</speed>
  <fix>3d</fix>
</trkpt>
<trkpt lat="-27.2744279" lon="151.2900918">
  <ele>360.79</ele>
  <time>2026-09-01T19:56:19Z</time>
  <course>10.66</course>
  <speed>0.02</speed>
  <fix>3d</fix>
</trkpt>
<trkpt lat="-27.2744281" lon="151.2900919">
  <ele>361.32</ele>
  <time>2026-09-01T19:56:19Z</time>
  <course>181.63</course>
  <speed>0.05</speed>
  <fix>3d</fix>
</trkpt>
<trkpt lat="-27.274428" lon="151.2900919">
  <ele>360.63</ele>
  <time>2026-09-01T19:56:19Z</time>
  <course>10.65</course>
  <speed>0.02</speed>
  <fix>3d</fix>
</trkpt>
<trkpt lat="-27.2744281" lon="151.2900919">
  <ele>361.32</ele>
  <time>2026-09-01T19:56:19Z</time>
  <course>181.63</course>
  <speed>0.05</speed>
  <fix>3d</fix>
</trkpt>
<trkpt lat="-27.274428" lon="151.2900919">
  <ele>360.49</ele>
  <time>2026-09-01T19:56:19Z</time>
  <course>10.64</course>
  <speed>0.02</speed>
  <fix>3d</fix>
</trkpt>
<trkpt lat="-27.2744282" lon="151.2900919">
  <ele>361.03</ele>
  <time>2026-09-01T19:56:19Z</time>
  <course>180.55</course>
  <speed>0.04</speed>
  <fix>3d</fix>
</trkpt>
<trkpt lat="-27.2744281" lon="151.2900919">
  <ele>360.34</ele>
  <time>2026-09-01T19:56:19Z</time>
  <course>10.64</course>
  <speed>0.02</speed>
  <fix>3d</fix>
</trkpt>
<trkpt lat="-27.2744282" lon="151.2900919">
  <ele>361.03</ele>
  <time>2026-09-01T19:56:19Z</time>
  <course>180.55</course>
  <speed>0.04</speed>
  <fix>3d</fix>
</trkpt>
<trkpt lat="-27.2744281" lon="151.2900919">
  <ele>360.19</ele>
  <time>2026-09-01T19:56:19Z</time>
  <course>10.64</course>
  <speed>0.01</speed>
  <fix>3d</fix>
</trkpt>
<trkpt lat="-27.2744283" lon="151.2900919">
  <ele>360.72</ele>
  <time>2026-09-01T19:56:19Z</time>
  <course>179.64</course>
  <speed>0.04</speed>
  <fix>3d</fix>
</trkpt>
<trkpt lat="-27.2744281" lon="151.2900919">
  <ele>360.04</ele>
  <time>2026-09-01T19:56:19Z</time>
  <course>10.64</course>
  <speed>0.01</speed>
  <fix>3d</fix>
</trkpt>
<trkpt lat="-27.2744283" lon="151.2900919">
  <ele>360.72</ele>
  <time>2026-09-01T19:56:19Z</time>
  <course>179.64</course>
  <speed>0.04</speed>
  <fix>3d</fix>
</trkpt>
<trkpt lat="-27.2744282" lon="151.2900919">
  <ele>359.89</ele>
  <time>2026-09-01T19:56:19Z</time>
  <course>10.63</course>
  <speed>0.01</speed>
  <fix>3d</fix>
</trkpt>
<trkpt lat="-27.2744284" lon="151.2900919">
  <ele>360.43</ele>
  <time>2026-09-01T19:56:19Z</time>
  <course>178.16</course>
  <speed>0.04</speed>
  <fix>3d</fix>
</trkpt>
<trkpt lat="-27.2744282" lon="151.2900919">
  <ele>359.74</ele>
  <time>2026-09-01T19:56:19Z</time>
  <course>10.62</course>
  <speed>0.01</speed>
  <fix>3d</fix>
</trkpt>
<trkpt lat="-27.2744284" lon="151.2900919">
  <ele>360.43</ele>
  <time>2026-09-01T19:56:19Z</time>
  <course>178.16</course>
  <speed>0.04</speed>
  <fix>3d</fix>
</trkpt>
<trkpt lat="-27.2744283" lon="151.2900919">
  <ele>359.59</ele>
  <time>2026-09-01T19:56:19Z</time>
  <course>10.61</course>
  <speed>0.01</speed>
  <fix>3d</fix>
</trkpt>
<trkpt lat="-27.2744285" lon="151.2900919">
  <ele>360.13</ele>
  <time>2026-09-01T19:56:19Z</time>
  <course>176.46</course>
  <speed>0.04</speed>
  <fix>3d</fix>
</trkpt>
<trkpt lat="-27.2744283" lon="151.2900919">
  <ele>359.44</ele>
  <time>2026-09-01T19:56:19Z</time>
  <course>10.58</course>
  <speed>0.01</speed>
  <fix>3d</fix>
</trkpt>
<trkpt lat="-27.2744285" lon="151.2900919">
  <ele>360.13</ele>
  <time>2026-09-01T19:56:19Z</time>
  <course>176.46</course>
  <speed>0.04</speed>
  <fix>3d</fix>
</trkpt>
<trkpt lat="-27.2744283" lon="151.2900919">
  <ele>359.29</ele>
  <time>2026-09-01T19:56:19Z</time>
  <course>10.55</course>
  <speed>0.01</speed>
  <fix>3d</fix>
</trkpt>
<trkpt lat="-27.2744285" lon="151.2900919">
  <ele>359.83</ele>
  <time>2026-09-01T19:56:19Z</time>
  <course>174.29</course>
  <speed>0.04</speed>
  <fix>3d</fix>
</trkpt>
<trkpt lat="-27.2744284" lon="151.2900919">
  <ele>359.14</ele>
  <time>2026-09-01T19:56:19Z</time>
  <course>10.52</course>
  <speed>0.01</speed>
  <fix>3d</fix>
</trkpt>
<trkpt lat="-27.2744285" lon="151.2900919">
  <ele>359.83</ele>
  <time>2026-09-01T19:56:19Z</time>
  <course>174.29</course>
  <speed>0.04</speed>
  <fix>3d</fix>
</trkpt>
<trkpt lat="-27.2744284" lon="151.2900919">
  <ele>358.99</ele>
  <time>2026-09-01T19:56:20Z</time>
  <course>10.49</course>
  <speed>0.0</speed>
  <fix>3d</fix>
</trkpt>
<trkpt lat="-27.2744286" lon="151.2900919">
  <ele>359.53</ele>
  <time>2026-09-01T19:56:20Z</time>
  <course>171.89</course>
  <speed>0.03</speed>
  <fix>3d</fix>
</trkpt>
<trkpt lat="-27.2744284" lon="151.2900919">
  <ele>358.84</ele>
  <time>2026-09-01T19:56:20Z</time>
  <course>10.47</course>
  <speed>0.0</speed>
  <fix>3d</fix>
</trkpt>
<trkpt lat="-27.2744286" lon="151.2900919">
  <ele>359.53</ele>
  <time>2026-09-01T19:56:20Z</time>
  <course>171.89</course>
  <speed>0.03</speed>
  <fix>3d</fix>
</trkpt>
<trkpt lat="-27.2744285" lon="151.2900919">
  <ele>358.69</ele>
  <time>2026-09-01T19:56:20Z</time>
  <course>10.47</course>
  <speed>0.0</speed>
  <fix>3d</fix>
</trkpt>
<trkpt lat="-27.2744287" lon="151.2900919">
  <ele>359.22</ele>
  <time>2026-09-01T19:56:20Z</time>
  <course>169.63</course>
  <speed>0.03</speed>
  <fix>3d</fix>
</trkpt>
<trkpt lat="-27.2744285" lon="151.2900919">
  <ele>358.54</ele>
  <time>2026-09-01T19:56:20Z</time>
  <course>10.47</course>
  <speed>0.0</speed>
  <fix>3d</fix>
</trkpt>
<trkpt lat="-27.2744287" lon="151.2900919">
  <ele>359.22</ele>
  <time>2026-09-01T19:56:20Z</time>
  <course>169.63</course>
  <speed>0.03</speed>
  <fix>3d</fix>
</trkpt>
<trkpt lat="-27.2744285" lon="151.2900919">
  <ele>358.39</ele>
  <time>2026-09-01T19:56:20Z</time>
  <course>10.48</course>
  <speed>0.0</speed>
  <fix>3d</fix>
</trkpt>
<trkpt lat="-27.2744287" lon="151.2900919">
  <ele>358.91</ele>
  <time>2026-09-01T19:56:20Z</time>
  <course>167.34</course>
  <speed>0.03</speed>
  <fix>3d</fix>
</trkpt>
<trkpt lat="-27.2744285" lon="151.2900919">
  <ele>358.24</ele>
  <time>2026-09-01T19:56:20Z</time>
  <course>10.48</course>
  <speed>0.0</speed>
  <fix>3d</fix>
</trkpt>
<trkpt lat="-27.2744287" lon="151.2900919">
  <ele>358.91</ele>
  <time>2026-09-01T19:56:20Z</time>
  <course>167.34</course>
  <speed>0.03</speed>
  <fix>3d</fix>
</trkpt>
<trkpt lat="-27.2744286" lon="151.2900919">
  <ele>358.09</ele>
  <time>2026-09-01T19:56:20Z</time>
  <course>10.48</course>
  <speed>0.0</speed>
  <fix>3d</fix>
</trkpt>
<trkpt lat="-27.2744288" lon="151.2900919">
  <ele>358.62</ele>
  <time>2026-09-01T19:56:20Z</time>
  <course>164.32</course>
  <speed>0.03</speed>
  <fix>3d</fix>
</trkpt>
<trkpt lat="-27.2744286" lon="151.2900919">
  <ele>357.94</ele>
  <time>2026-09-01T19:56:20Z</time>
  <course>10.49</course>
  <speed>0.0</speed>
  <fix>3d</fix>
</trkpt>
<trkpt lat="-27.2744288" lon="151.2900919">
  <ele>358.62</ele>
  <time>2026-09-01T19:56:20Z</time>
  <course>164.32</course>
  <speed>0.03</speed>
  <fix>3d</fix>
</trkpt>
<trkpt lat="-27.2744286" lon="151.2900919">
  <ele>357.79</ele>
  <time>2026-09-01T19:56:20Z</time>
  <course>10.49</course>
  <speed>0.0</speed>
  <fix>3d</fix>
</trkpt>
<trkpt lat="-27.2744288" lon="151.2900919">
  <ele>358.32</ele>
  <time>2026-09-01T19:56:20Z</time>
  <course>160.32</course>
  <speed>0.02</speed>
  <fix>3d</fix>
</trkpt>
<trkpt lat="-27.2744286" lon="151.2900919">
  <ele>357.64</ele>
  <time>2026-09-01T19:56:20Z</time>
  <course>10.5</course>
  <speed>0.0</speed>
  <fix>3d</fix>
</trkpt>
<trkpt lat="-27.2744288" lon="151.2900919">
  <ele>358.32</ele>
  <time>2026-09-01T19:56:20Z</time>
  <course>160.32</course>
  <speed>0.02</speed>
  <fix>3d</fix>
</trkpt>
<trkpt lat="-27.2744286" lon="151.2900919">
  <ele>357.48</ele>
  <time>2026-09-01T19:56:20Z</time>
  <course>10.49</course>
  <speed>0.0</speed>
  <fix>3d</fix>
</trkpt>
<trkpt lat="-27.2744289" lon="151.2900919">
  <ele>358.02</ele>
  <time>2026-09-01T19:56:20Z</time>
  <course>156.14</course>
  <speed>0.02</speed>
  <fix>3d</fix>
</trkpt>
<trkpt lat="-27.2744287" lon="151.2900919">
  <ele>357.33</ele>
  <time>2026-09-01T19:56:20Z</time>
  <course>10.49</course>
  <speed>0.0</speed>
  <fix>3d</fix>
</trkpt>
<trkpt lat="-27.2744289" lon="151.2900919">
  <ele>358.02</ele>
  <time>2026-09-01T19:56:20Z</time>
  <course>156.14</course>
  <speed>0.02</speed>
  <fix>3d</fix>
</trkpt>
<trkpt lat="-27.2744287" lon="151.2900919">
  <ele>357.18</ele>
  <time>2026-09-01T19:56:20Z</time>
  <course>10.5</course>
  <speed>0.0</speed>
  <fix>3d</fix>
</trkpt>
<trkpt lat="-27.2744289" lon="151.290092">
  <ele>357.72</ele>
  <time>2026-09-01T19:56:20Z</time>
  <course>151.23</course>
  <speed>0.02</speed>
  <fix>3d</fix>
</trkpt>
<trkpt lat="-27.2744287" lon="151.2900919">
  <ele>357.03</ele>
  <time>2026-09-01T19:56:20Z</time>
  <course>10.5</course>
  <speed>0.01414213562373095</speed>
  <fix>3d</fix>
</trkpt>
<trkpt lat="-27.2744289" lon="151.290092">
  <ele>357.72</ele>
  <time>2026-09-01T19:56:20Z</time>
  <course>151.23</course>
  <speed>0.02</speed>
  <fix>3d</fix>
</trkpt>
<trkpt lat="-27.2744287" lon="151.2900919">
  <ele>356.88</ele>
  <time>2026-09-01T19:56:20Z</time>
  <course>10.49</course>
  <speed>0.01</speed>
  <fix>3d</fix>
</trkpt>
<trkpt lat="-27.274429" lon="151.290092">
  <ele>357.41</ele>
  <time>2026-09-01T19:56:20Z</time>
  <course>144.53</course>
  <speed>0.01</speed>
  <fix>3d</fix>
</trkpt>
<trkpt lat="-27.2744287" lon="151.2900919">
  <ele>356.73</ele>
  <time>2026-09-01T19:56:20Z</time>
  <course>10.47</course>
  <speed>0.01</speed>
  <fix>3d</fix>
</trkpt>
<trkpt lat="-27.274429" lon="151.290092">
  <ele>357.41</ele>
  <time>2026-09-01T19:56:20Z</time>
  <course>144.53</course>
  <speed>0.01</speed>
  <fix>3d</fix>
</trkpt>
<trkpt lat="-27.2744287" lon="151.2900919">
  <ele>356.58</ele>
  <time>2026-09-01T19:56:20Z</time>
  <course>10.44</course>
  <speed>0.01</speed>
  <fix>3d</fix>
</trkpt>
<trkpt lat="-27.274429" lon="151.290092">
  <ele>357.12</ele>
  <time>2026-09-01T19:56:20Z</time>
  <course>135.49</course>
  <speed>0.01</speed>
  <fix>3d</fix>
</trkpt>
<trkpt lat="-27.2744287" lon="151.2900919">
  <ele>356.43</ele>
  <time>2026-09-01T19:56:20Z</time>
  <course>10.42</course>
  <speed>0.01</speed>
  <fix>3d</fix>
</trkpt>
<trkpt lat="-27.274429" lon="151.290092">
  <ele>357.12</ele>
  <time>2026-09-01T19:56:20Z</time>
  <course>135.49</course>
  <speed>0.01</speed>
  <fix>3d</fix>
</trkpt>
<trkpt lat="-27.2744288" lon="151.2900919">
  <ele>356.28</ele>
  <time>2026-09-01T19:56:20Z</time>
  <course>10.4</course>
  <speed>0.01</speed>
  <fix>3d</fix>
</trkpt>
<trkpt lat="-27.274429" lon="151.290092">
  <ele>356.82</ele>
  <time>2026-09-01T19:56:20Z</time>
  <course>126.07</course>
  <speed>0.01</speed>
  <fix>3d</fix>
</trkpt>
<trkpt lat="-27.2744288" lon="151.2900919">
  <ele>356.13</ele>
  <time>2026-09-01T19:56:20Z</time>
  <course>10.39</course>
  <speed>0.01</speed>
  <fix>3d</fix>
</trkpt>
<trkpt lat="-27.274429" lon="151.290092">
  <ele>356.82</ele>
  <time>2026-09-01T19:56:20Z</time>
  <course>126.07</course>
  <speed>0.01</speed>
  <fix>3d</fix>
</trkpt>
<trkpt lat="-27.2744288" lon="151.2900919">
  <ele>355.97</ele>
  <time>2026-09-01T19:56:20Z</time>
  <course>10.38</course>
  <speed>0.01</speed>
  <fix>3d</fix>
</trkpt>
<trkpt lat="-27.274429" lon="151.2900921">
  <ele>356.52</ele>
  <time>2026-09-01T19:56:20Z</time>
  <course>116.3</course>
  <speed>0.01</speed>
  <fix>3d</fix>
</trkpt>
<trkpt lat="-27.2744288" lon="151.2900919">
  <ele>355.82</ele>
  <time>2026-09-01T19:56:20Z</time>
  <course>10.36</course>
  <speed>0.02</speed>
  <fix>3d</fix>
</trkpt>
<trkpt lat="-27.274429" lon="151.2900921">
  <ele>356.52</ele>
  <time>2026-09-01T19:56:20Z</time>
  <course>116.3</course>
  <speed>0.01</speed>
  <fix>3d</fix>
</trkpt>
<trkpt lat="-27.2744288" lon="151.2900919">
  <ele>355.67</ele>
  <time>2026-09-01T19:56:20Z</time>
  <course>10.35</course>
  <speed>0.02</speed>
  <fix>3d</fix>
</trkpt>
<trkpt lat="-27.274429" lon="151.2900922">
  <ele>356.22</ele>
  <time>2026-09-01T19:56:20Z</time>
  <course>105.77</course>
  <speed>0.01</speed>
  <fix>3d</fix>
</trkpt>
<trkpt lat="-27.2744288" lon="151.290092">
  <ele>355.53</ele>
  <time>2026-09-01T19:56:20Z</time>
  <course>10.33</course>
  <speed>0.02</speed>
  <fix>3d</fix>
</trkpt>
<trkpt lat="-27.274429" lon="151.2900922">
  <ele>356.22</ele>
  <time>2026-09-01T19:56:20Z</time>
  <course>105.77</course>
  <speed>0.01</speed>
  <fix>3d</fix>
</trkpt>
<trkpt lat="-27.2744288" lon="151.290092">
  <ele>355.38</ele>
  <time>2026-09-01T19:56:20Z</time>
  <course>10.31</course>
  <speed>0.02</speed>
  <fix>3d</fix>
</trkpt>
<trkpt lat="-27.2744291" lon="151.2900922">
  <ele>355.91</ele>
  <time>2026-09-01T19:56:20Z</time>
  <course>97.07</course>
  <speed>0.01</speed>
  <fix>3d</fix>
</trkpt>
<trkpt lat="-27.2744288" lon="151.290092">
  <ele>355.23</ele>
  <time>2026-09-01T19:56:20Z</time>
  <course>10.28</course>
  <speed>0.02</speed>
  <fix>3d</fix>
</trkpt>
<trkpt lat="-27.2744291" lon="151.2900922">
  <ele>355.91</ele>
  <time>2026-09-01T19:56:20Z</time>
  <course>97.07</course>
  <speed>0.01</speed>
  <fix>3d</fix>
</trkpt>
<trkpt lat="-27.2744288" lon="151.290092">
  <ele>355.08</ele>
  <time>2026-09-01T19:56:20Z</time>
  <course>10.25</course>
  <speed>0.02</speed>
  <fix>3d</fix>
</trkpt>
<trkpt lat="-27.2744291" lon="151.2900922">
  <ele>355.62</ele>
  <time>2026-09-01T19:56:20Z</time>
  <course>89.79</course>
  <speed>0.01</speed>
  <fix>3d</fix>
</trkpt>
<trkpt lat="-27.2744288" lon="151.2900921">
  <ele>354.93</ele>
  <time>2026-09-01T19:56:20Z</time>
  <course>10.21</course>
  <speed>0.022360679774997897</speed>
  <fix>3d</fix>
</trkpt>
<trkpt lat="-27.2744291" lon="151.2900922">
  <ele>355.62</ele>
  <time>2026-09-01T19:56:20Z</time>
  <course>89.79</course>
  <speed>0.01</speed>
  <fix>3d</fix>
</trkpt>
<trkpt lat="-27.2744288" lon="151.2900921">
  <ele>354.79</ele>
  <time>2026-09-01T19:56:20Z</time>
  <course>10.15</course>
  <speed>0.022360679774997897</speed>
  <fix>3d</fix>
</trkpt>
<trkpt lat="-27.2744291" lon="151.2900923">
  <ele>355.32</ele>
  <time>2026-09-01T19:56:20Z</time>
  <course>84.9</course>
  <speed>0.02</speed>
  <fix>3d</fix>
</trkpt>
<trkpt lat="-27.2744288" lon="151.2900921">
  <ele>354.64</ele>
  <time>2026-09-01T19:56:20Z</time>
  <course>10.1</course>
  <speed>0.022360679774997897</speed>
  <fix>3d</fix>
</trkpt>
<trkpt lat="-27.2744291" lon="151.2900923">
  <ele>355.32</ele>
  <time>2026-09-01T19:56:20Z</time>
  <course>84.9</course>
  <speed>0.02</speed>
  <fix>3d</fix>
</trkpt>
<trkpt lat="-27.2744288" lon="151.2900922">
  <ele>354.49</ele>
  <time>2026-09-01T19:56:20Z</time>
  <course>10.04</course>
  <speed>0.022360679774997897</speed>
  <fix>3d</fix>
</trkpt>
<trkpt lat="-27.2744291" lon="151.2900923">
  <ele>355.02</ele>
  <time>2026-09-01T19:56:20Z</time>
  <course>82.57</course>
  <speed>0.02</speed>
  <fix>3d</fix>
</trkpt>
<trkpt lat="-27.2744288" lon="151.2900922">
  <ele>354.35</ele>
  <time>2026-09-01T19:56:20Z</time>
  <course>9.99</course>
  <speed>0.022360679774997897</speed>
  <fix>3d</fix>
</trkpt>
<trkpt lat="-27.2744291" lon="151.2900923">
  <ele>355.02</ele>
  <time>2026-09-01T19:56:20Z</time>
  <course>82.57</course>
  <speed>0.02</speed>
  <fix>3d</fix>
</trkpt>
<trkpt lat="-27.2744288" lon="151.2900922">
  <ele>354.2</ele>
  <time>2026-09-01T19:56:20Z</time>
  <course>9.95</course>
  <speed>0.022360679774997897</speed>
  <fix>3d</fix>
</trkpt>
<trkpt lat="-27.2744291" lon="151.2900924">
  <ele>354.72</ele>
  <time>2026-09-01T19:56:20Z</time>
  <course>81.11</course>
  <speed>0.02</speed>
  <fix>3d</fix>
</trkpt>
<trkpt lat="-27.2744288" lon="151.2900923">
  <ele>354.06</ele>
  <time>2026-09-01T19:56:20Z</time>
  <course>9.91</course>
  <speed>0.022360679774997897</speed>
  <fix>3d</fix>
</trkpt>
<trkpt lat="-27.2744291" lon="151.2900924">
  <ele>354.72</ele>
  <time>2026-09-01T19:56:20Z</time>
  <course>81.11</course>
  <speed>0.02</speed>
  <fix>3d</fix>
</trkpt>
<trkpt lat="-27.2744288" lon="151.2900923">
  <ele>353.91</ele>
  <time>2026-09-01T19:56:20Z</time>
  <course>9.89</course>
  <speed>0.022360679774997897</speed>
  <fix>3d</fix>
</trkpt>
<trkpt lat="-27.2744291" lon="151.2900924">
  <ele>354.43</ele>
  <time>2026-09-01T19:56:20Z</time>
  <course>80.06</course>
  <speed>0.02</speed>
  <fix>3d</fix>
</trkpt>
<trkpt lat="-27.2744288" lon="151.2900923">
  <ele>353.77</ele>
  <time>2026-09-01T19:56:20Z</time>
  <course>9.89</course>
  <speed>0.022360679774997897</speed>
  <fix>3d</fix>
</trkpt>
<trkpt lat="-27.2744291" lon="151.2900924">
  <ele>354.43</ele>
  <time>2026-09-01T19:56:20Z</time>
  <course>80.06</course>
  <speed>0.02</speed>
  <fix>3d</fix>
</trkpt>
<trkpt lat="-27.2744288" lon="151.2900923">
  <ele>353.63</ele>
  <time>2026-09-01T19:56:20Z</time>
  <course>9.9</course>
  <speed>0.022360679774997897</speed>
  <fix>3d</fix>
</trkpt>
<trkpt lat="-27.2744291" lon="151.2900924">
  <ele>354.14</ele>
  <time>2026-09-01T19:56:20Z</time>
  <course>78.97</course>
  <speed>0.02</speed>
  <fix>3d</fix>
</trkpt>
<trkpt lat="-27.2744288" lon="151.2900924">
  <ele>353.49</ele>
  <time>2026-09-01T19:56:20Z</time>
  <course>9.93</course>
  <speed>0.022360679774997897</speed>
  <fix>3d</fix>
</trkpt>
<trkpt lat="-27.2744291" lon="151.2900924">
  <ele>354.14</ele>
  <time>2026-09-01T19:56:20Z</time>
  <course>78.97</course>
  <speed>0.02</speed>
  <fix>3d</fix>
</trkpt>
<trkpt lat="-27.2744288" lon="151.2900924">
  <ele>353.35</ele>
  <time>2026-09-01T19:56:20Z</time>
  <course>9.96</course>
  <speed>0.02</speed>
  <fix>3d</fix>
</trkpt>
<trkpt lat="-27.2744291" lon="151.2900925">
  <ele>353.86</ele>
  <time>2026-09-01T19:56:20Z</time>
  <course>77.39</course>
  <speed>0.02</speed>
  <fix>3d</fix>
</trkpt>
<trkpt lat="-27.2744288" lon="151.2900924">
  <ele>353.22</ele>
  <time>2026-09-01T19:56:20Z</time>
  <course>10.0</course>
  <speed>0.02</speed>
  <fix>3d</fix>
</trkpt>
<trkpt lat="-27.2744291" lon="151.2900925">
  <ele>353.86</ele>
  <time>2026-09-01T19:56:20Z</time>
  <course>77.39</course>
  <speed>0.02</speed>
  <fix>3d</fix>
</trkpt>
<trkpt lat="-27.2744288" lon="151.2900924">
  <ele>353.09</ele>
  <time>2026-09-01T19:56:20Z</time>
  <course>10.04</course>
  <speed>0.02</speed>
  <fix>3d</fix>
</trkpt>
<trkpt lat="-27.2744291" lon="151.2900925">
  <ele>353.59</ele>
  <time>2026-09-01T19:56:20Z</time>
  <course>75.83</course>
  <speed>0.01</speed>
  <fix>3d</fix>
</trkpt>
<trkpt lat="-27.2744288" lon="151.2900924">
  <ele>352.96</ele>
  <time>2026-09-01T19:56:20Z</time>
  <course>10.08</course>
  <speed>0.02</speed>
  <fix>3d</fix>
</trkpt>
<trkpt lat="-27.2744291" lon="151.2900925">
  <ele>353.59</ele>
  <time>2026-09-01T19:56:20Z</time>
  <course>75.83</course>
  <speed>0.01</speed>
  <fix>3d</fix>
</trkpt>
<trkpt lat="-27.2744288" lon="151.2900924">
  <ele>352.84</ele>
  <time>2026-09-01T19:56:20Z</time>
  <course>10.13</course>
  <speed>0.02</speed>
  <fix>3d</fix>
</trkpt>
<trkpt lat="-27.2744291" lon="151.2900925">
  <ele>353.33</ele>
  <time>2026-09-01T19:56:20Z</time>
  <course>73.2</course>
  <speed>0.01</speed>
  <fix>3d</fix>
</trkpt>
<trkpt lat="-27.2744288" lon="151.2900924">
  <ele>352.71</ele>
  <time>2026-09-01T19:56:20Z</time>
  <course>10.19</course>
  <speed>0.02</speed>
  <fix>3d</fix>
</trkpt>
<trkpt lat="-27.2744291" lon="151.2900925">
  <ele>353.33</ele>
  <time>2026-09-01T19:56:20Z</time>
  <course>73.2</course>
  <speed>0.01</speed>
  <fix>3d</fix>
</trkpt>
<trkpt lat="-27.2744288" lon="151.2900924">
  <ele>352.59</ele>
  <time>2026-09-01T19:56:20Z</time>
  <course>10.25</course>
  <speed>0.022360679774997897</speed>
  <fix>3d</fix>
</trkpt>
<trkpt lat="-27.2744291" lon="151.2900925">
  <ele>353.07</ele>
  <time>2026-09-01T19:56:20Z</time>
  <course>59.55</course>
  <speed>0.0</speed>
  <fix>3d</fix>
</trkpt>
<trkpt lat="-27.2744288" lon="151.2900924">
  <ele>352.48</ele>
  <time>2026-09-01T19:56:20Z</time>
  <course>10.33</course>
  <speed>0.0282842712474619</speed>
  <fix>3d</fix>
</trkpt>
<trkpt lat="-27.2744291" lon="151.2900925">
  <ele>353.07</ele>
  <time>2026-09-01T19:56:20Z</time>
  <course>59.55</course>
  <speed>0.0</speed>
  <fix>3d</fix>
</trkpt>
<trkpt lat="-27.2744288" lon="151.2900924">
  <ele>352.37</ele>
  <time>2026-09-01T19:56:20Z</time>
  <course>10.42</course>
  <speed>0.0282842712474619</speed>
  <fix>3d</fix>
</trkpt>
<trkpt lat="-27.2744291" lon="151.2900925">
  <ele>352.83</ele>
  <time>2026-09-01T19:56:20Z</time>
  <course>299.04</course>
  <speed>0.0</speed>
  <fix>3d</fix>
</trkpt>
<trkpt lat="-27.2744288" lon="151.2900924">
  <ele>352.26</ele>
  <time>2026-09-01T19:56:20Z</time>
  <course>10.51</course>
  <speed>0.0316227766016838</speed>
  <fix>3d</fix>
</trkpt>
<trkpt lat="-27.2744291" lon="151.2900925">
  <ele>352.83</ele>
  <time>2026-09-01T19:56:20Z</time>
  <course>299.04</course>
  <speed>0.0</speed>
  <fix>3d</fix>
</trkpt>
<trkpt lat="-27.2744288" lon="151.2900924">
  <ele>352.15</ele>
  <time>2026-09-01T19:56:20Z</time>
  <course>10.59</course>
  <speed>0.0412310562561766</speed>
  <fix>3d</fix>
</trkpt>
<trkpt lat="-27.2744291" lon="151.2900925">
  <ele>352.6</ele>
  <time>2026-09-01T19:56:20Z</time>
  <course>276.86</course>
  <speed>0.01</speed>
  <fix>3d</fix>
</trkpt>
<trkpt lat="-27.2744288" lon="151.2900924">
  <ele>352.04</ele>
  <time>2026-09-01T19:56:20Z</time>
  <course>10.66</course>
  <speed>0.0412310562561766</speed>
  <fix>3d</fix>
</trkpt>
<trkpt lat="-27.2744291" lon="151.2900925">
  <ele>352.6</ele>
  <time>2026-09-01T19:56:20Z</time>
  <course>276.86</course>
  <speed>0.01</speed>
  <fix>3d</fix>
</trkpt>
<trkpt lat="-27.2744289" lon="151.2900924">
  <ele>351.94</ele>
  <time>2026-09-01T19:56:20Z</time>
  <course>10.73</course>
  <speed>0.05099019513592785</speed>
  <fix>3d</fix>
</trkpt>
<trkpt lat="-27.2744291" lon="151.2900925">
  <ele>352.38</ele>
  <time>2026-09-01T19:56:20Z</time>
  <course>273.04</course>
  <speed>0.02</speed>
  <fix>3d</fix>
</trkpt>
<trkpt lat="-27.2744289" lon="151.2900923">
  <ele>351.84</ele>
  <time>2026-09-01T19:56:20Z</time>
  <course>10.78</course>
  <speed>0.06082762530298219</speed>
  <fix>3d</fix>
</trkpt>
<trkpt lat="-27.2744291" lon="151.2900925">
  <ele>352.38</ele>
  <time>2026-09-01T19:56:20Z</time>
  <course>273.04</course>
  <speed>0.02</speed>
  <fix>3d</fix>
</trkpt>
<trkpt lat="-27.2744289" lon="151.2900923">
  <ele>351.74</ele>
  <time>2026-09-01T19:56:20Z</time>
  <course>10.84</course>
  <speed>0.06082762530298219</speed>
  <fix>3d</fix>
</trkpt>
<trkpt lat="-27.2744291" lon="151.2900925">
  <ele>352.17</ele>
  <time>2026-09-01T19:56:20Z</time>
  <course>272.01</course>
  <speed>0.04</speed>
  <fix>3d</fix>
</trkpt>
<trkpt lat="-27.2744289" lon="151.2900922">
  <ele>351.64</ele>
  <time>2026-09-01T19:56:20Z</time>
  <course>10.88</course>
  <speed>0.07280109889280519</speed>
  <fix>3d</fix>
</trkpt>
<trkpt lat="-27.2744291" lon="151.2900925">
  <ele>352.17</ele>
  <time>2026-09-01T19:56:20Z</time>
  <course>272.01</course>
  <speed>0.04</speed>
  <fix>3d</fix>
</trkpt>
<trkpt lat="-27.2744289" lon="151.2900922">
  <ele>351.55</ele>
  <time>2026-09-01T19:56:20Z</time>
  <course>10.92</course>
  <speed>0.0824621125123532</speed>
  <fix>3d</fix>
</trkpt>
<trkpt lat="-27.2744291" lon="151.2900924">
  <ele>351.97</ele>
  <time>2026-09-01T19:56:20Z</time>
  <course>271.88</course>
  <speed>0.05</speed>
  <fix>3d</fix>
</trkpt>
<trkpt lat="-27.2744289" lon="151.2900921">
  <ele>351.45</ele>
  <time>2026-09-01T19:56:20Z</time>
  <course>10.95</course>
  <speed>0.0824621125123532</speed>
  <fix>3d</fix>
</trkpt>
<trkpt lat="-27.2744291" lon="151.2900924">
  <ele>351.97</ele>
  <time>2026-09-01T19:56:20Z</time>
  <course>271.88</course>
  <speed>0.05</speed>
  <fix>3d</fix>
</trkpt>
<trkpt lat="-27.2744289" lon="151.290092">
  <ele>351.36</ele>
  <time>2026-09-01T19:56:20Z</time>
  <course>10.98</course>
  <speed>0.0824621125123532</speed>
  <fix>3d</fix>
</trkpt>
<trkpt lat="-27.2744291" lon="151.2900923">
  <ele>351.77</ele>
  <time>2026-09-01T19:56:20Z</time>
  <course>271.92</course>
  <speed>0.06</speed>
  <fix>3d</fix>
</trkpt>
<trkpt lat="-27.2744289" lon="151.2900919">
  <ele>351.27</ele>
  <time>2026-09-01T19:56:20Z</time>
  <course>11.01</course>
  <speed>0.09219544457292887</speed>
  <fix>3d</fix>
</trkpt>
<trkpt lat="-27.2744291" lon="151.2900923">
  <ele>351.77</ele>
  <time>2026-09-01T19:56:20Z</time>
  <course>271.92</course>
  <speed>0.06</speed>
  <fix>3d</fix>
</trkpt>
<trkpt lat="-27.2744289" lon="151.2900919">
  <ele>351.18</ele>
  <time>2026-09-01T19:56:20Z</time>
  <course>11.03</course>
  <speed>0.09219544457292887</speed>
  <fix>3d</fix>
</trkpt>
<trkpt lat="-27.2744291" lon="151.2900922">
  <ele>351.58</ele>
  <time>2026-09-01T19:56:20Z</time>
  <course>272.12</course>
  <speed>0.07</speed>
  <fix>3d</fix>
</trkpt>
<trkpt lat="-27.2744289" lon="151.2900918">
  <ele>351.09</ele>
  <time>2026-09-01T19:56:20Z</time>
  <course>11.05</course>
  <speed>0.1019803902718557</speed>
  <fix>3d</fix>
</trkpt>
<trkpt lat="-27.2744291" lon="151.2900922">
  <ele>351.58</ele>
  <time>2026-09-01T19:56:20Z</time>
  <course>272.12</course>
  <speed>0.07</speed>
  <fix>3d</fix>
</trkpt>
<trkpt lat="-27.2744289" lon="151.2900917">
  <ele>351.0</ele>
  <time>2026-09-01T19:56:20Z</time>
  <course>11.08</course>
  <speed>0.1019803902718557</speed>
  <fix>3d</fix>
</trkpt>
<trkpt lat="-27.2744291" lon="151.290092">
  <ele>351.39</ele>
  <time>2026-09-01T19:56:20Z</time>
  <course>272.63</course>
  <speed>0.08</speed>
  <fix>3d</fix>
</trkpt>
<trkpt lat="-27.2744289" lon="151.2900916">
  <ele>350.91</ele>
  <time>2026-09-01T19:56:20Z</time>
  <course>11.1</course>
  <speed>0.1019803902718557</speed>
  <fix>3d</fix>
</trkpt>
<trkpt lat="-27.2744291" lon="151.290092">
  <ele>351.39</ele>
  <time>2026-09-01T19:56:20Z</time>
  <course>272.63</course>
  <speed>0.08</speed>
  <fix>3d</fix>
</trkpt>
<trkpt lat="-27.2744289" lon="151.2900915">
  <ele>350.82</ele>
  <time>2026-09-01T19:56:20Z</time>
  <course>11.13</course>
  <speed>0.1019803902718557</speed>
  <fix>3d</fix>
</trkpt>
<trkpt lat="-27.2744291" lon="151.2900919">
  <ele>351.21</ele>
  <time>2026-09-01T19:56:20Z</time>
  <course>273.29</course>
  <speed>0.09</speed>
  <fix>3d</fix>
</trkpt>
<trkpt lat="-27.2744289" lon="151.2900914">
  <ele>350.74</ele>
  <time>2026-09-01T19:56:20Z</time>
  <course>11.16</course>
  <speed>0.1118033988749895</speed>
  <fix>3d</fix>
</trkpt>
<trkpt lat="-27.2744291" lon="151.2900919">
  <ele>351.21</ele>
  <time>2026-09-01T19:56:20Z</time>
  <course>273.29</course>
  <speed>0.09</speed>
  <fix>3d</fix>
</trkpt>
<trkpt lat="-27.2744289" lon="151.2900914">
  <ele>350.66</ele>
  <time>2026-09-01T19:56:20Z</time>
  <course>11.19</course>
  <speed>0.1118033988749895</speed>
  <fix>3d</fix>
</trkpt>
<trkpt lat="-27.274429" lon="151.2900917">
  <ele>351.03</ele>
  <time>2026-09-01T19:56:20Z</time>
  <course>273.91</course>
  <speed>0.09</speed>
  <fix>3d</fix>
</trkpt>
<trkpt lat="-27.2744289" lon="151.2900913">
  <ele>350.58</ele>
  <time>2026-09-01T19:56:20Z</time>
  <course>11.21</course>
  <speed>0.1118033988749895</speed>
  <fix>3d</fix>
</trkpt>
<trkpt lat="-27.274429" lon="151.2900917">
  <ele>351.03</ele>
  <time>2026-09-01T19:56:20Z</time>
  <course>273.91</course>
  <speed>0.09</speed>
  <fix>3d</fix>
</trkpt>
<trkpt lat="-27.2744289" lon="151.2900912">
  <ele>350.5</ele>
  <time>2026-09-01T19:56:20Z</time>
  <course>11.24</course>
  <speed>0.1118033988749895</speed>
  <fix>3d</fix>
</trkpt>
<trkpt lat="-27.274429" lon="151.2900915">
  <ele>350.86</ele>
  <time>2026-09-01T19:56:20Z</time>
  <course>274.47</course>
  <speed>0.1</speed>
  <fix>3d</fix>
</trkpt>
<trkpt lat="-27.2744289" lon="151.2900911">
  <ele>350.42</ele>
  <time>2026-09-01T19:56:20Z</time>
  <course>11.27</course>
  <speed>0.1118033988749895</speed>
  <fix>3d</fix>
</trkpt>
<trkpt lat="-27.274429" lon="151.2900915">
  <ele>350.86</ele>
  <time>2026-09-01T19:56:20Z</time>
  <course>274.47</course>
  <speed>0.1</speed>
  <fix>3d</fix>
</trkpt>
<trkpt lat="-27.2744289" lon="151.290091">
  <ele>350.34</ele>
  <time>2026-09-01T19:56:20Z</time>
  <course>11.3</course>
  <speed>0.1118033988749895</speed>
  <fix>3d</fix>
</trkpt>
<trkpt lat="-27.274429" lon="151.2900913">
  <ele>350.7</ele>
  <time>2026-09-01T19:56:20Z</time>
  <course>274.92</course>
  <speed>0.1</speed>
  <fix>3d</fix>
</trkpt>
<trkpt lat="-27.2744289" lon="151.2900909">
  <ele>350.26</ele>
  <time>2026-09-01T19:56:20Z</time>
  <course>11.32</course>
  <speed>0.11401754250991379</speed>
  <fix>3d</fix>
</trkpt>
<trkpt lat="-27.274429" lon="151.2900913">
  <ele>350.7</ele>
  <time>2026-09-01T19:56:20Z</time>
  <course>274.92</course>
  <speed>0.1</speed>
  <fix>3d</fix>
</trkpt>
<trkpt lat="-27.2744289" lon="151.2900908">
  <ele>350.18</ele>
  <time>2026-09-01T19:56:20Z</time>
  <course>11.35</course>
  <speed>0.11401754250991379</speed>
  <fix>3d</fix>
</trkpt>
<trkpt lat="-27.274429" lon="151.290091">
  <ele>350.53</ele>
  <time>2026-09-01T19:56:20Z</time>
  <course>275.33</course>
  <speed>0.1</speed>
  <fix>3d</fix>
</trkpt>
<trkpt lat="-27.2744289" lon="151.2900907">
  <ele>350.11</ele>
  <time>2026-09-01T19:56:20Z</time>
  <course>11.37</course>
  <speed>0.1044030650891055</speed>
  <fix>3d</fix>
</trkpt>
<trkpt lat="-27.274429" lon="151.290091">
  <ele>350.53</ele>
  <time>2026-09-01T19:56:20Z</time>
  <course>275.33</course>
  <speed>0.1</speed>
  <fix>3d</fix>
</trkpt>
<trkpt lat="-27.2744289" lon="151.2900906">
  <ele>350.03</ele>
  <time>2026-09-01T19:56:20Z</time>
  <course>11.4</course>
  <speed>0.1044030650891055</speed>
  <fix>3d</fix>
</trkpt>
<trkpt lat="-27.274429" lon="151.2900909">
  <ele>350.38</ele>
  <time>2026-09-01T19:56:20Z</time>
  <course>275.71</course>
  <speed>0.1</speed>
  <fix>3d</fix>
</trkpt>
<trkpt lat="-27.2744288" lon="151.2900905">
  <ele>349.96</ele>
  <time>2026-09-01T19:56:20Z</time>
  <course>11.42</course>
  <speed>0.1044030650891055</speed>
  <fix>3d</fix>
</trkpt>
<trkpt lat="-27.274429" lon="151.2900909">
  <ele>350.38</ele>
  <time>2026-09-01T19:56:20Z</time>
  <course>275.71</course>
  <speed>0.1</speed>
  <fix>3d</fix>
</trkpt>
<trkpt lat="-27.2744288" lon="151.2900904">
  <ele>349.89</ele>
  <time>2026-09-01T19:56:20Z</time>
  <course>11.44</course>
  <speed>0.1044030650891055</speed>
  <fix>3d</fix>
</trkpt>
<trkpt lat="-27.274429" lon="151.2900907">
  <ele>350.23</ele>
  <time>2026-09-01T19:56:20Z</time>
  <course>276.01</course>
  <speed>0.09</speed>
  <fix>3d</fix>
</trkpt>
<trkpt lat="-27.2744288" lon="151.2900903">
  <ele>349.82</ele>
  <time>2026-09-01T19:56:20Z</time>
  <course>11.47</course>
  <speed>0.09486832980505139</speed>
  <fix>3d</fix>
</trkpt>
<trkpt lat="-27.274429" lon="151.2900907">
  <ele>350.23</ele>
  <time>2026-09-01T19:56:20Z</time>
  <course>276.01</course>
  <speed>0.09</speed>
  <fix>3d</fix>
</trkpt>
<trkpt lat="-27.2744288" lon="151.2900902">
  <ele>349.76</ele>
  <time>2026-09-01T19:56:20Z</time>
  <course>11.49</course>
  <speed>0.09486832980505139</speed>
  <fix>3d</fix>
</trkpt>
<trkpt lat="-27.2744289" lon="151.2900905">
  <ele>350.09</ele>
  <time>2026-09-01T19:56:20Z</time>
  <course>276.22</course>
  <speed>0.09</speed>
  <fix>3d</fix>
</trkpt>
<trkpt lat="-27.2744288" lon="151.2900902">
  <ele>349.69</ele>
  <time>2026-09-01T19:56:20Z</time>
  <course>11.52</course>
  <speed>0.09486832980505139</speed>
  <fix>3d</fix>
</trkpt>
<trkpt lat="-27.2744289" lon="151.2900905">
  <ele>350.09</ele>
  <time>2026-09-01T19:56:20Z</time>
  <course>276.22</course>
  <speed>0.09</speed>
  <fix>3d</fix>
</trkpt>
<trkpt lat="-27.2744288" lon="151.2900901">
  <ele>349.63</ele>
  <time>2026-09-01T19:56:20Z</time>
  <course>11.54</course>
  <speed>0.0854400374531753</speed>
  <fix>3d</fix>
</trkpt>
<trkpt lat="-27.2744289" lon="151.2900902">
  <ele>349.95</ele>
  <time>2026-09-01T19:56:20Z</time>
  <course>276.49</course>
  <speed>0.08</speed>
  <fix>3d</fix>
</trkpt>
<trkpt lat="-27.2744288" lon="151.29009">
  <ele>349.57</ele>
  <time>2026-09-01T19:56:20Z</time>
  <course>11.56</course>
  <speed>0.0854400374531753</speed>
  <fix>3d</fix>
</trkpt>
<trkpt lat="-27.2744289" lon="151.2900902">
  <ele>349.95</ele>
  <time>2026-09-01T19:56:20Z</time>
  <course>276.49</course>
  <speed>0.08</speed>
  <fix>3d</fix>
</trkpt>
<trkpt lat="-27.2744288" lon="151.2900899">
  <ele>349.51</ele>
  <time>2026-09-01T19:56:20Z</time>
  <course>11.57</course>
  <speed>0.0854400374531753</speed>
  <fix>3d</fix>
</trkpt>
<trkpt lat="-27.2744289" lon="151.29009">
  <ele>349.82</ele>
  <time>2026-09-01T19:56:20Z</time>
  <course>276.78</course>
  <speed>0.08</speed>
  <fix>3d</fix>
</trkpt>
<trkpt lat="-27.2744288" lon="151.2900898">
  <ele>349.45</ele>
  <time>2026-09-01T19:56:20Z</time>
  <course>11.57</course>
  <speed>0.07615773105863909</speed>
  <fix>3d</fix>
</trkpt>
<trkpt lat="-27.2744289" lon="151.29009">
  <ele>349.82</ele>
  <time>2026-09-01T19:56:20Z</time>
  <course>276.78</course>
  <speed>0.08</speed>
  <fix>3d</fix>
</trkpt>
<trkpt lat="-27.2744288" lon="151.2900898">
  <ele>349.39</ele>
  <time>2026-09-01T19:56:20Z</time>
  <course>11.57</course>
  <speed>0.07615773105863909</speed>
  <fix>3d</fix>
</trkpt>
<trkpt lat="-27.2744289" lon="151.2900899">
  <ele>349.7</ele>
  <time>2026-09-01T19:56:20Z</time>
  <course>276.97</course>
  <speed>0.07</speed>
  <fix>3d</fix>
</trkpt>
<trkpt lat="-27.2744287" lon="151.2900897">
  <ele>349.33</ele>
  <time>2026-09-01T19:56:20Z</time>
  <course>11.58</course>
  <speed>0.0670820393249937</speed>
  <fix>3d</fix>
</trkpt>
<trkpt lat="-27.2744289" lon="151.2900899">
  <ele>349.7</ele>
  <time>2026-09-01T19:56:20Z</time>
  <course>276.97</course>
  <speed>0.07</speed>
  <fix>3d</fix>
</trkpt>
<trkpt lat="-27.2744287" lon="151.2900897">
  <ele>349.28</ele>
  <time>2026-09-01T19:56:20Z</time>
  <course>11.6</course>
  <speed>0.05830951894845301</speed>
  <fix>3d</fix>
</trkpt>
<trkpt lat="-27.2744289" lon="151.2900898">
  <ele>349.58</ele>
  <time>2026-09-01T19:56:20Z</time>
  <course>277.47</course>
  <speed>0.06</speed>
  <fix>3d</fix>
</trkpt>
<trkpt lat="-27.2744287" lon="151.2900896">
  <ele>349.22</ele>
  <time>2026-09-01T19:56:20Z</time>
  <course>11.62</course>
  <speed>0.05830951894845301</speed>
  <fix>3d</fix>
</trkpt>
<trkpt lat="-27.2744289" lon="151.2900898">
  <ele>349.58</ele>
  <time>2026-09-01T19:56:20Z</time>
  <course>277.47</course>
  <speed>0.06</speed>
  <fix>3d</fix>
</trkpt>
<trkpt lat="-27.2744287" lon="151.2900896">
  <ele>349.17</ele>
  <time>2026-09-01T19:56:20Z</time>
  <course>11.63</course>
  <speed>0.044721359549995794</speed>
  <fix>3d</fix>
</trkpt>
<trkpt lat="-27.2744289" lon="151.2900897">
  <ele>349.46</ele>
  <time>2026-09-01T19:56:20Z</time>
  <course>278.33</course>
  <speed>0.05</speed>
  <fix>3d</fix>
</trkpt>
<trkpt lat="-27.2744287" lon="151.2900895">
  <ele>349.11</ele>
  <time>2026-09-01T19:56:20Z</time>
  <course>11.64</course>
  <speed>0.044721359549995794</speed>
  <fix>3d</fix>
</trkpt>
<trkpt lat="-27.2744289" lon="151.2900897">
  <ele>349.46</ele>
  <time>2026-09-01T19:56:20Z</time>
  <course>278.33</course>
  <speed>0.05</speed>
  <fix>3d</fix>
</trkpt>
<trkpt lat="-27.2744287" lon="151.2900895">
  <ele>349.06</ele>
  <time>2026-09-01T19:56:20Z</time>
  <course>11.64</course>
  <speed>0.03605551275463989</speed>
  <fix>3d</fix>
</trkpt>
<trkpt lat="-27.2744289" lon="151.2900896">
  <ele>349.35</ele>
  <time>2026-09-01T19:56:20Z</time>
  <course>279.3</course>
  <speed>0.03</speed>
  <fix>3d</fix>
</trkpt>
<trkpt lat="-27.2744287" lon="151.2900895">
  <ele>349.0</ele>
  <time>2026-09-01T19:56:20Z</time>
  <course>11.63</course>
  <speed>0.03605551275463989</speed>
  <fix>3d</fix>
</trkpt>
<trkpt lat="-27.2744289" lon="151.2900896">
  <ele>349.35</ele>
  <time>2026-09-01T19:56:20Z</time>
  <course>279.3</course>
  <speed>0.03</speed>
  <fix>3d</fix>
</trkpt>
<trkpt lat="-27.2744287" lon="151.2900895">
  <ele>348.95</ele>
  <time>2026-09-01T19:56:20Z</time>
  <course>11.63</course>
  <speed>0.0282842712474619</speed>
  <fix>3d</fix>
</trkpt>
<trkpt lat="-27.2744288" lon="151.2900895">
  <ele>349.24</ele>
  <time>2026-09-01T19:56:20Z</time>
  <course>280.77</course>
  <speed>0.02</speed>
  <fix>3d</fix>
</trkpt>
<trkpt lat="-27.2744287" lon="151.2900894">
  <ele>348.9</ele>
  <time>2026-09-01T19:56:20Z</time>
  <course>11.64</course>
  <speed>0.022360679774997897</speed>
  <fix>3d</fix>
</trkpt>
<trkpt lat="-27.2744288" lon="151.2900895">
  <ele>349.24</ele>
  <time>2026-09-01T19:56:20Z</time>
  <course>280.77</course>
  <speed>0.02</speed>
  <fix>3d</fix>
</trkpt>
<trkpt lat="-27.2744287" lon="151.2900894">
  <ele>348.85</ele>
  <time>2026-09-01T19:56:20Z</time>
  <course>11.65</course>
  <speed>0.022360679774997897</speed>
  <fix>3d</fix>
</trkpt>
<trkpt lat="-27.2744288" lon="151.2900895">
  <ele>349.14</ele>
  <time>2026-09-01T19:56:20Z</time>
  <course>285.56</course>
  <speed>0.01</speed>
  <fix>3d</fix>
</trkpt>
<trkpt lat="-27.2744287" lon="151.2900894">
  <ele>348.8</ele>
  <time>2026-09-01T19:56:20Z</time>
  <course>11.69</course>
  <speed>0.022360679774997897</speed>
  <fix>3d</fix>
</trkpt>
<trkpt lat="-27.2744288" lon="151.2900895">
  <ele>349.14</ele>
  <time>2026-09-01T19:56:20Z</time>
  <course>285.56</course>
  <speed>0.01</speed>
  <fix>3d</fix>
</trkpt>
<trkpt lat="-27.2744287" lon="151.2900894">
  <ele>348.75</ele>
  <time>2026-09-01T19:56:20Z</time>
  <course>11.75</course>
  <speed>0.02</speed>
  <fix>3d</fix>
</trkpt>
<trkpt lat="-27.2744288" lon="151.2900895">
  <ele>349.03</ele>
  <time>2026-09-01T19:56:20Z</time>
  <course>313.16</course>
  <speed>0.0</speed>
  <fix>3d</fix>
</trkpt>
<trkpt lat="-27.2744287" lon="151.2900894">
  <ele>348.7</ele>
  <time>2026-09-01T19:56:20Z</time>
  <course>11.84</course>
  <speed>0.02</speed>
  <fix>3d</fix>
</trkpt>
<trkpt lat="-27.2744288" lon="151.2900895">
  <ele>349.03</ele>
  <time>2026-09-01T19:56:20Z</time>
  <course>313.16</course>
  <speed>0.0</speed>
  <fix>3d</fix>
</trkpt>
<trkpt lat="-27.2744287" lon="151.2900895">
  <ele>348.65</ele>
  <time>2026-09-01T19:56:20Z</time>
  <course>11.93</course>
  <speed>0.03</speed>
  <fix>3d</fix>
</trkpt>
<trkpt lat="-27.2744288" lon="151.2900895">
  <ele>348.93</ele>
  <time>2026-09-01T19:56:20Z</time>
  <course>38.37</course>
  <speed>0.0</speed>
  <fix>3d</fix>
</trkpt>
<trkpt lat="-27.2744287" lon="151.2900895">
  <ele>348.6</ele>
  <time>2026-09-01T19:56:20Z</time>
  <course>12.02</course>
  <speed>0.03</speed>
  <fix>3d</fix>
</trkpt>
<trkpt lat="-27.2744288" lon="151.2900895">
  <ele>348.93</ele>
  <time>2026-09-01T19:56:20Z</time>
  <course>38.37</course>
  <speed>0.0</speed>
  <fix>3d</fix>
</trkpt>
<trkpt lat="-27.2744286" lon="151.2900895">
  <ele>348.55</ele>
  <time>2026-09-01T19:56:20Z</time>
  <course>12.09</course>
  <speed>0.03</speed>
  <fix>3d</fix>
</trkpt>
<trkpt lat="-27.2744288" lon="151.2900895">
  <ele>348.83</ele>
  <time>2026-09-01T19:56:20Z</time>
  <course>60.25</course>
  <speed>0.01</speed>
  <fix>3d</fix>
</trkpt>
<trkpt lat="-27.2744286" lon="151.2900895">
  <ele>348.5</ele>
  <time>2026-09-01T19:56:20Z</time>
  <course>12.12</course>
  <speed>0.03</speed>
  <fix>3d</fix>
</trkpt>
<trkpt lat="-27.2744288" lon="151.2900895">
  <ele>348.83</ele>
  <time>2026-09-01T19:56:20Z</time>
  <course>60.25</course>
  <speed>0.01</speed>
  <fix>3d</fix>
</trkpt>
<trkpt lat="-27.2744286" lon="151.2900895">
  <ele>348.45</ele>
  <time>2026-09-01T19:56:20Z</time>
  <course>12.13</course>
  <speed>0.03</speed>
  <fix>3d</fix>
</trkpt>
<trkpt lat="-27.2744288" lon="151.2900895">
  <ele>348.72</ele>
  <time>2026-09-01T19:56:20Z</time>
  <course>68.18</course>
  <speed>0.01</speed>
  <fix>3d</fix>
</trkpt>
<trkpt lat="-27.2744286" lon="151.2900895">
  <ele>348.4</ele>
  <time>2026-09-01T19:56:20Z</time>
  <course>12.12</course>
  <speed>0.0316227766016838</speed>
  <fix>3d</fix>
</trkpt>
<trkpt lat="-27.2744288" lon="151.2900895">
  <ele>348.72</ele>
  <time>2026-09-01T19:56:20Z</time>
  <course>68.18</course>
  <speed>0.01</speed>
  <fix>3d</fix>
</trkpt>
<trkpt lat="-27.2744286" lon="151.2900895">
  <ele>348.35</ele>
  <time>2026-09-01T19:56:20Z</time>
  <course>12.1</course>
  <speed>0.0316227766016838</speed>
  <fix>3d</fix>
</trkpt>
<trkpt lat="-27.2744288" lon="151.2900895">
  <ele>348.63</ele>
  <time>2026-09-01T19:56:20Z</time>
  <course>73.51</course>
  <speed>0.02</speed>
  <fix>3d</fix>
</trkpt>
<trkpt lat="-27.2744286" lon="151.2900895">
  <ele>348.3</ele>
  <time>2026-09-01T19:56:20Z</time>
  <course>12.07</course>
  <speed>0.0316227766016838</speed>
  <fix>3d</fix>
</trkpt>
<trkpt lat="-27.2744288" lon="151.2900895">
  <ele>348.63</ele>
  <time>2026-09-01T19:56:20Z</time>
  <course>73.51</course>
  <speed>0.02</speed>
  <fix>3d</fix>
</trkpt>
<trkpt lat="-27.2744286" lon="151.2900895">
  <ele>348.25</ele>
  <time>2026-09-01T19:56:20Z</time>
  <course>12.04</course>
  <speed>0.0316227766016838</speed>
  <fix>3d</fix>
</trkpt>
<trkpt lat="-27.2744288" lon="151.2900895">
  <ele>348.53</ele>
  <time>2026-09-01T19:56:20Z</time>
  <course>76.68</course>
  <speed>0.02</speed>
  <fix>3d</fix>
</trkpt>
<trkpt lat="-27.2744286" lon="151.2900895">
  <ele>348.2</ele>
  <time>2026-09-01T19:56:20Z</time>
  <course>12.02</course>
  <speed>0.0316227766016838</speed>
  <fix>3d</fix>
</trkpt>
<trkpt lat="-27.2744288" lon="151.2900895">
  <ele>348.53</ele>
  <time>2026-09-01T19:56:20Z</time>
  <course>76.68</course>
  <speed>0.02</speed>
  <fix>3d</fix>
</trkpt>
<trkpt lat="-27.2744286" lon="151.2900895">
  <ele>348.15</ele>
  <time>2026-09-01T19:56:20Z</time>
  <course>11.99</course>
  <speed>0.03605551275463989</speed>
  <fix>3d</fix>
</trkpt>
<trkpt lat="-27.2744288" lon="151.2900895">
  <ele>348.42</ele>
  <time>2026-09-01T19:56:20Z</time>
  <course>78.24</course>
  <speed>0.03</speed>
  <fix>3d</fix>
</trkpt>
<trkpt lat="-27.2744286" lon="151.2900896">
  <ele>348.1</ele>
  <time>2026-09-01T19:56:20Z</time>
  <course>11.97</course>
  <speed>0.03605551275463989</speed>
  <fix>3d</fix>
</trkpt>
<trkpt lat="-27.2744288" lon="151.2900895">
  <ele>348.42</ele>
  <time>2026-09-01T19:56:20Z</time>
  <course>78.24</course>
  <speed>0.03</speed>
  <fix>3d</fix>
</trkpt>
<trkpt lat="-27.2744286" lon="151.2900896">
  <ele>348.05</ele>
  <time>2026-09-01T19:56:20Z</time>
  <course>11.95</course>
  <speed>0.03605551275463989</speed>
  <fix>3d</fix>
</trkpt>
<trkpt lat="-27.2744288" lon="151.2900896">
  <ele>348.32</ele>
  <time>2026-09-01T19:56:20Z</time>
  <course>79.45</course>
  <speed>0.03</speed>
  <fix>3d</fix>
</trkpt>
<trkpt lat="-27.2744286" lon="151.2900896">
  <ele>347.99</ele>
  <time>2026-09-01T19:56:20Z</time>
  <course>11.94</course>
  <speed>0.04242640687119285</speed>
  <fix>3d</fix>
</trkpt>
<trkpt lat="-27.2744288" lon="151.2900896">
  <ele>348.32</ele>
  <time>2026-09-01T19:56:20Z</time>
  <course>79.45</course>
  <speed>0.03</speed>
  <fix>3d</fix>
</trkpt>
<trkpt lat="-27.2744286" lon="151.2900897">
  <ele>347.94</ele>
  <time>2026-09-01T19:56:20Z</time>
  <course>11.94</course>
  <speed>0.04242640687119285</speed>
  <fix>3d</fix>
</trkpt>
<trkpt lat="-27.2744287" lon="151.2900897">
  <ele>348.22</ele>
  <time>2026-09-01T19:56:20Z</time>
  <course>80.84</course>
  <speed>0.04</speed>
  <fix>3d</fix>
</trkpt>
<trkpt lat="-27.2744286" lon="151.2900897">
  <ele>347.89</ele>
  <time>2026-09-01T19:56:20Z</time>
  <course>11.95</course>
  <speed>0.04242640687119285</speed>
  <fix>3d</fix>
</trkpt>
<trkpt lat="-27.2744287" lon="151.2900897">
  <ele>348.22</ele>
  <time>2026-09-01T19:56:20Z</time>
  <course>80.84</course>
  <speed>0.04</speed>
  <fix>3d</fix>
</trkpt>
<trkpt lat="-27.2744286" lon="151.2900898">
  <ele>347.84</ele>
  <time>2026-09-01T19:56:20Z</time>
  <course>11.97</course>
  <speed>0.04242640687119285</speed>
  <fix>3d</fix>
</trkpt>
<trkpt lat="-27.2744287" lon="151.2900898">
  <ele>348.12</ele>
  <time>2026-09-01T19:56:20Z</time>
  <course>81.78</course>
  <speed>0.04</speed>
  <fix>3d</fix>
</trkpt>
<trkpt lat="-27.2744286" lon="151.2900898">
  <ele>347.79</ele>
  <time>2026-09-01T19:56:20Z</time>
  <course>11.98</course>
  <speed>0.04242640687119285</speed>
  <fix>3d</fix>
</trkpt>
<trkpt lat="-27.2744287" lon="151.2900898">
  <ele>348.12</ele>
  <time>2026-09-01T19:56:20Z</time>
  <course>81.78</course>
  <speed>0.04</speed>
  <fix>3d</fix>
</trkpt>
<trkpt lat="-27.2744285" lon="151.2900899">
  <ele>347.74</ele>
  <time>2026-09-01T19:56:20Z</time>
  <course>11.98</course>
  <speed>0.04242640687119285</speed>
  <fix>3d</fix>
</trkpt>
<trkpt lat="-27.2744287" lon="151.2900899">
  <ele>348.01</ele>
  <time>2026-09-01T19:56:20Z</time>
  <course>82.54</course>
  <speed>0.05</speed>
  <fix>3d</fix>
</trkpt>
<trkpt lat="-27.2744285" lon="151.2900899">
  <ele>347.69</ele>
  <time>2026-09-01T19:56:20Z</time>
  <course>11.98</course>
  <speed>0.04242640687119285</speed>
  <fix>3d</fix>
</trkpt>
<trkpt lat="-27.2744287" lon="151.2900899">
  <ele>348.01</ele>
  <time>2026-09-01T19:56:20Z</time>
  <course>82.54</course>
  <speed>0.05</speed>
  <fix>3d</fix>
</trkpt>
<trkpt lat="-27.2744285" lon="151.29009">
  <ele>347.64</ele>
  <time>2026-09-01T19:56:20Z</time>
  <course>11.98</course>
  <speed>0.05</speed>
  <fix>3d</fix>
</trkpt>
<trkpt lat="-27.2744287" lon="151.29009">
  <ele>347.9</ele>
  <time>2026-09-01T19:56:20Z</time>
  <course>83.4</course>
  <speed>0.05</speed>
  <fix>3d</fix>
</trkpt>
<trkpt lat="-27.2744285" lon="151.29009">
  <ele>347.59</ele>
  <time>2026-09-01T19:56:20Z</time>
  <course>11.96</course>
  <speed>0.05</speed>
  <fix>3d</fix>
</trkpt>
<trkpt lat="-27.2744287" lon="151.29009">
  <ele>347.9</ele>
  <time>2026-09-01T19:56:20Z</time>
  <course>83.4</course>
  <speed>0.05</speed>
  <fix>3d</fix>
</trkpt>
<trkpt lat="-27.2744285" lon="151.2900901">
  <ele>347.54</ele>
  <time>2026-09-01T19:56:20Z</time>
  <course>11.95</course>
  <speed>0.05</speed>
  <fix>3d</fix>
</trkpt>
<trkpt lat="-27.2744287" lon="151.2900901">
  <ele>347.81</ele>
  <time>2026-09-01T19:56:20Z</time>
  <course>83.91</course>
  <speed>0.05</speed>
  <fix>3d</fix>
</trkpt>
<trkpt lat="-27.2744285" lon="151.2900901">
  <ele>347.49</ele>
  <time>2026-09-01T19:56:20Z</time>
  <course>11.93</course>
  <speed>0.05</speed>
  <fix>3d</fix>
</trkpt>
<trkpt lat="-27.2744287" lon="151.2900901">
  <ele>347.81</ele>
  <time>2026-09-01T19:56:20Z</time>
  <course>83.91</course>
  <speed>0.05</speed>
  <fix>3d</fix>
</trkpt>
<trkpt lat="-27.2744285" lon="151.2900902">
  <ele>347.44</ele>
  <time>2026-09-01T19:56:20Z</time>
  <course>11.92</course>
  <speed>0.05</speed>
  <fix>3d</fix>
</trkpt>
<trkpt lat="-27.2744287" lon="151.2900902">
  <ele>347.71</ele>
  <time>2026-09-01T19:56:20Z</time>
  <course>84.55</course>
  <speed>0.05</speed>
  <fix>3d</fix>
</trkpt>
<trkpt lat="-27.2744285" lon="151.2900902">
  <ele>347.39</ele>
  <time>2026-09-01T19:56:20Z</time>
  <course>11.92</course>
  <speed>0.044721359549995794</speed>
  <fix>3d</fix>
</trkpt>
<trkpt lat="-27.2744287" lon="151.2900902">
  <ele>347.71</ele>
  <time>2026-09-01T19:56:20Z</time>
  <course>84.55</course>
  <speed>0.05</speed>
  <fix>3d</fix>
</trkpt>
<trkpt lat="-27.2744285" lon="151.2900903">
  <ele>347.34</ele>
  <time>2026-09-01T19:56:20Z</time>
  <course>11.92</course>
  <speed>0.044721359549995794</speed>
  <fix>3d</fix>
</trkpt>
<trkpt lat="-27.2744287" lon="151.2900903">
  <ele>347.61</ele>
  <time>2026-09-01T19:56:20Z</time>
  <course>85.55</course>
  <speed>0.06</speed>
  <fix>3d</fix>
</trkpt>
<trkpt lat="-27.2744285" lon="151.2900903">
  <ele>347.29</ele>
  <time>2026-09-01T19:56:20Z</time>
  <course>11.92</course>
  <speed>0.044721359549995794</speed>
  <fix>3d</fix>
</trkpt>
<trkpt lat="-27.2744287" lon="151.2900903">
  <ele>347.61</ele>
  <time>2026-09-01T19:56:20Z</time>
  <course>85.55</course>
  <speed>0.06</speed>
  <fix>3d</fix>
</trkpt>
<trkpt lat="-27.2744285" lon="151.2900904">
  <ele>347.24</ele>
  <time>2026-09-01T19:56:20Z</time>
  <course>11.91</course>
  <speed>0.044721359549995794</speed>
  <fix>3d</fix>
</trkpt>
<trkpt lat="-27.2744287" lon="151.2900904">
  <ele>347.51</ele>
  <time>2026-09-01T19:56:20Z</time>
  <course>86.58</course>
  <speed>0.06</speed>
  <fix>3d</fix>
</trkpt>
<trkpt lat="-27.2744285" lon="151.2900905">
  <ele>347.19</ele>
  <time>2026-09-01T19:56:20Z</time>
  <course>11.91</course>
  <speed>0.044721359549995794</speed>
  <fix>3d</fix>
</trkpt>
<trkpt lat="-27.2744287" lon="151.2900904">
  <ele>347.51</ele>
  <time>2026-09-01T19:56:20Z</time>
  <course>86.58</course>
  <speed>0.06</speed>
  <fix>3d</fix>
</trkpt>
<trkpt lat="-27.2744285" lon="151.2900905">
  <ele>347.14</ele>
  <time>2026-09-01T19:56:20Z</time>
  <course>11.9</course>
  <speed>0.044721359549995794</speed>
  <fix>3d</fix>
</trkpt>
<trkpt lat="-27.2744287" lon="151.2900905">
  <ele>347.4</ele>
  <time>2026-09-01T19:56:20Z</time>
  <course>87.45</course>
  <speed>0.06</speed>
  <fix>3d</fix>
</trkpt>
<trkpt lat="-27.2744285" lon="151.2900906">
  <ele>347.09</ele>
  <time>2026-09-01T19:56:20Z</time>
  <course>11.89</course>
  <speed>0.044721359549995794</speed>
  <fix>3d</fix>
</trkpt>
<trkpt lat="-27.2744287" lon="151.2900905">
  <ele>347.4</ele>
  <time>2026-09-01T19:56:20Z</time>
  <course>87.45</course>
  <speed>0.06</speed>
  <fix>3d</fix>
</trkpt>
<trkpt lat="-27.2744285" lon="151.2900906">
  <ele>347.04</ele>
  <time>2026-09-01T19:56:20Z</time>
  <course>11.88</course>
  <speed>0.044721359549995794</speed>
  <fix>3d</fix>
</trkpt>
<trkpt lat="-27.2744287" lon="151.2900907">
  <ele>347.31</ele>
  <time>2026-09-01T19:56:20Z</time>
  <course>88.18</course>
  <speed>0.06</speed>
  <fix>3d</fix>
</trkpt>
<trkpt lat="-27.2744285" lon="151.2900907">
  <ele>346.99</ele>
  <time>2026-09-01T19:56:20Z</time>
  <course>11.87</course>
  <speed>0.044721359549995794</speed>
  <fix>3d</fix>
</trkpt>
<trkpt lat="-27.2744287" lon="151.2900907">
  <ele>347.31</ele>
  <time>2026-09-01T19:56:20Z</time>
  <course>88.18</course>
  <speed>0.06</speed>
  <fix>3d</fix>
</trkpt>
<trkpt lat="-27.2744285" lon="151.2900907">
  <ele>346.94</ele>
  <time>2026-09-01T19:56:20Z</time>
  <course>11.87</course>
  <speed>0.03605551275463989</speed>
  <fix>3d</fix>
</trkpt>
<trkpt lat="-27.2744287" lon="151.2900908">
  <ele>347.2</ele>
  <time>2026-09-01T19:56:20Z</time>
  <course>88.73</course>
  <speed>0.05</speed>
  <fix>3d</fix>
</trkpt>
<trkpt lat="-27.2744285" lon="151.2900908">
  <ele>346.89</ele>
  <time>2026-09-01T19:56:20Z</time>
  <course>11.86</course>
  <speed>0.03605551275463989</speed>
  <fix>3d</fix>
</trkpt>
<trkpt lat="-27.2744287" lon="151.2900908">
  <ele>347.2</ele>
  <time>2026-09-01T19:56:20Z</time>
  <course>88.73</course>
  <speed>0.05</speed>
  <fix>3d</fix>
</trkpt>
<trkpt lat="-27.2744285" lon="151.2900908">
  <ele>346.83</ele>
  <time>2026-09-01T19:56:20Z</time>
  <course>11.86</course>
  <speed>0.03605551275463989</speed>
  <fix>3d</fix>
</trkpt>
<trkpt lat="-27.2744287" lon="151.2900909">
  <ele>347.09</ele>
  <time>2026-09-01T19:56:20Z</time>
  <course>89.06</course>
  <speed>0.05</speed>
  <fix>3d</fix>
</trkpt>
<trkpt lat="-27.2744285" lon="151.2900909">
  <ele>346.78</ele>
  <time>2026-09-01T19:56:20Z</time>
  <course>11.86</course>
  <speed>0.03605551275463989</speed>
  <fix>3d</fix>
</trkpt>
<trkpt lat="-27.2744287" lon="151.2900909">
  <ele>347.09</ele>
  <time>2026-09-01T19:56:20Z</time>
  <course>89.06</course>
  <speed>0.05</speed>
  <fix>3d</fix>
</trkpt>
<trkpt lat="-27.2744285" lon="151.2900909">
  <ele>346.74</ele>
  <time>2026-09-01T19:56:20Z</time>
  <course>11.85</course>
  <speed>0.03605551275463989</speed>
  <fix>3d</fix>
</trkpt>
<trkpt lat="-27.2744287" lon="151.290091">
  <ele>347.0</ele>
  <time>2026-09-01T19:56:20Z</time>
  <course>89.22</course>
  <speed>0.05</speed>
  <fix>3d</fix>
</trkpt>
<trkpt lat="-27.2744285" lon="151.290091">
  <ele>346.68</ele>
  <time>2026-09-01T19:56:20Z</time>
  <course>11.85</course>
  <speed>0.03605551275463989</speed>
  <fix>3d</fix>
</trkpt>
<trkpt lat="-27.2744287" lon="151.290091">
  <ele>347.0</ele>
  <time>2026-09-01T19:56:20Z</time>
  <course>89.22</course>
  <speed>0.05</speed>
  <fix>3d</fix>
</trkpt>
<trkpt lat="-27.2744285" lon="151.290091">
  <ele>346.63</ele>
  <time>2026-09-01T19:56:20Z</time>
  <course>11.84</course>
  <speed>0.0282842712474619</speed>
  <fix>3d</fix>
</trkpt>
<trkpt lat="-27.2744287" lon="151.2900911">
  <ele>346.9</ele>
  <time>2026-09-01T19:56:20Z</time>
  <course>89.24</course>
  <speed>0.05</speed>
  <fix>3d</fix>
</trkpt>
<trkpt lat="-27.2744285" lon="151.2900911">
  <ele>346.58</ele>
  <time>2026-09-01T19:56:20Z</time>
  <course>11.84</course>
  <speed>0.0282842712474619</speed>
  <fix>3d</fix>
</trkpt>
<trkpt lat="-27.2744287" lon="151.2900911">
  <ele>346.9</ele>
  <time>2026-09-01T19:56:20Z</time>
  <course>89.24</course>
  <speed>0.05</speed>
  <fix>3d</fix>
</trkpt>
<trkpt lat="-27.2744285" lon="151.2900911">
  <ele>346.54</ele>
  <time>2026-09-01T19:56:20Z</time>
  <course>11.83</course>
  <speed>0.0282842712474619</speed>
  <fix>3d</fix>
</trkpt>
<trkpt lat="-27.2744287" lon="151.2900912">
  <ele>346.8</ele>
  <time>2026-09-01T19:56:20Z</time>
  <course>89.07</course>
  <speed>0.04</speed>
  <fix>3d</fix>
</trkpt>
<trkpt lat="-27.2744285" lon="151.2900911">
  <ele>346.49</ele>
  <time>2026-09-01T19:56:20Z</time>
  <course>11.82</course>
  <speed>0.0282842712474619</speed>
  <fix>3d</fix>
</trkpt>
<trkpt lat="-27.2744287" lon="151.2900912">
  <ele>346.8</ele>
  <time>2026-09-01T19:56:20Z</time>
  <course>89.07</course>
  <speed>0.04</speed>
  <fix>3d</fix>
</trkpt>
<trkpt lat="-27.2744285" lon="151.2900912">
  <ele>346.44</ele>
  <time>2026-09-01T19:56:20Z</time>
  <course>11.82</course>
  <speed>0.022360679774997897</speed>
  <fix>3d</fix>
</trkpt>
<trkpt lat="-27.2744287" lon="151.2900913">
  <ele>346.7</ele>
  <time>2026-09-01T19:56:20Z</time>
  <course>88.6</course>
  <speed>0.04</speed>
  <fix>3d</fix>
</trkpt>
<trkpt lat="-27.2744285" lon="151.2900912">
  <ele>346.39</ele>
  <time>2026-09-01T19:56:20Z</time>
  <course>11.81</course>
  <speed>0.022360679774997897</speed>
  <fix>3d</fix>
</trkpt>
<trkpt lat="-27.2744287" lon="151.2900913">
  <ele>346.7</ele>
  <time>2026-09-01T19:56:20Z</time>
  <course>88.6</course>
  <speed>0.04</speed>
  <fix>3d</fix>
</trkpt>
<trkpt lat="-27.2744285" lon="151.2900912">
  <ele>346.34</ele>
  <time>2026-09-01T19:56:20Z</time>
  <course>11.81</course>
  <speed>0.022360679774997897</speed>
  <fix>3d</fix>
</trkpt>
<trkpt lat="-27.2744287" lon="151.2900914">
  <ele>346.59</ele>
  <time>2026-09-01T19:56:20Z</time>
  <course>87.78</course>
  <speed>0.03</speed>
  <fix>3d</fix>
</trkpt>
<trkpt lat="-27.2744285" lon="151.2900913">
  <ele>346.28</ele>
  <time>2026-09-01T19:56:20Z</time>
  <course>11.8</course>
  <speed>0.022360679774997897</speed>
  <fix>3d</fix>
</trkpt>
<trkpt lat="-27.2744287" lon="151.2900914">
  <ele>346.59</ele>
  <time>2026-09-01T19:56:20Z</time>
  <course>87.78</course>
  <speed>0.03</speed>
  <fix>3d</fix>
</trkpt>
<trkpt lat="-27.2744285" lon="151.2900913">
  <ele>346.23</ele>
  <time>2026-09-01T19:56:20Z</time>
  <course>11.79</course>
  <speed>0.02</speed>
  <fix>3d</fix>
</trkpt>
<trkpt lat="-27.2744287" lon="151.2900915">
  <ele>346.5</ele>
  <time>2026-09-01T19:56:20Z</time>
  <course>86.68</course>
  <speed>0.03</speed>
  <fix>3d</fix>
</trkpt>
<trkpt lat="-27.2744285" lon="151.2900913">
  <ele>346.18</ele>
  <time>2026-09-01T19:56:20Z</time>
  <course>11.79</course>
  <speed>0.02</speed>
  <fix>3d</fix>
</trkpt>
<trkpt lat="-27.2744287" lon="151.2900915">
  <ele>346.5</ele>
  <time>2026-09-01T19:56:20Z</time>
  <course>86.68</course>
  <speed>0.03</speed>
  <fix>3d</fix>
</trkpt>
<trkpt lat="-27.2744285" lon="151.2900914">
  <ele>346.13</ele>
  <time>2026-09-01T19:56:20Z</time>
  <course>11.78</course>
  <speed>0.02</speed>
  <fix>3d</fix>
</trkpt>
<trkpt lat="-27.2744286" lon="151.2900915">
  <ele>346.4</ele>
  <time>2026-09-01T19:56:20Z</time>
  <course>85.1</course>
  <speed>0.02</speed>
  <fix>3d</fix>
</trkpt>
<trkpt lat="-27.2744285" lon="151.2900914">
  <ele>346.09</ele>
  <time>2026-09-01T19:56:20Z</time>
  <course>11.77</course>
  <speed>0.02</speed>
  <fix>3d</fix>
</trkpt>
<trkpt lat="-27.2744286" lon="151.2900915">
  <ele>346.4</ele>
  <time>2026-09-01T19:56:20Z</time>
  <course>85.1</course>
  <speed>0.02</speed>
  <fix>3d</fix>
</trkpt>
<trkpt lat="-27.2744285" lon="151.2900914">
  <ele>346.04</ele>
  <time>2026-09-01T19:56:20Z</time>
  <course>11.77</course>
  <speed>0.02</speed>
  <fix>3d</fix>
</trkpt>
<trkpt lat="-27.2744286" lon="151.2900915">
  <ele>346.3</ele>
  <time>2026-09-01T19:56:20Z</time>
  <course>82.48</course>
  <speed>0.02</speed>
  <fix>3d</fix>
</trkpt>
<trkpt lat="-27.2744285" lon="151.2900914">
  <ele>345.99</ele>
  <time>2026-09-01T19:56:20Z</time>
  <course>11.76</course>
  <speed>0.02</speed>
  <fix>3d</fix>
</trkpt>
<trkpt lat="-27.2744286" lon="151.2900915">
  <ele>346.3</ele>
  <time>2026-09-01T19:56:20Z</time>
  <course>82.48</course>
  <speed>0.02</speed>
  <fix>3d</fix>
</trkpt>
<trkpt lat="-27.2744285" lon="151.2900914">
  <ele>345.94</ele>
  <time>2026-09-01T19:56:20Z</time>
  <course>11.76</course>
  <speed>0.02</speed>
  <fix>3d</fix>
</trkpt>
<trkpt lat="-27.2744286" lon="151.2900916">
  <ele>346.2</ele>
  <time>2026-09-01T19:56:20Z</time>
  <course>78.08</course>
  <speed>0.01</speed>
  <fix>3d</fix>
</trkpt>
<trkpt lat="-27.2744285" lon="151.2900914">
  <ele>345.89</ele>
  <time>2026-09-01T19:56:20Z</time>
  <course>11.75</course>
  <speed>0.02</speed>
  <fix>3d</fix>
</trkpt>
<trkpt lat="-27.2744286" lon="151.2900916">
  <ele>346.2</ele>
  <time>2026-09-01T19:56:20Z</time>
  <course>78.08</course>
  <speed>0.01</speed>
  <fix>3d</fix>
</trkpt>
<trkpt lat="-27.2744285" lon="151.2900914">
  <ele>345.84</ele>
  <time>2026-09-01T19:56:20Z</time>
  <course>11.73</course>
  <speed>0.02</speed>
  <fix>3d</fix>
</trkpt>
<trkpt lat="-27.2744286" lon="151.2900917">
  <ele>346.1</ele>
  <time>2026-09-01T19:56:20Z</time>
  <course>70.06</course>
  <speed>0.01</speed>
  <fix>3d</fix>
</trkpt>
<trkpt lat="-27.2744285" lon="151.2900914">
  <ele>345.79</ele>
  <time>2026-09-01T19:56:20Z</time>
  <course>11.72</course>
  <speed>0.022360679774997897</speed>
  <fix>3d</fix>
</trkpt>
<trkpt lat="-27.2744286" lon="151.2900917">
  <ele>346.1</ele>
  <time>2026-09-01T19:56:20Z</time>
  <course>70.06</course>
  <speed>0.01</speed>
  <fix>3d</fix>
</trkpt>
<trkpt lat="-27.2744285" lon="151.2900915">
  <ele>345.74</ele>
  <time>2026-09-01T19:56:20Z</time>
  <course>11.69</course>
  <speed>0.022360679774997897</speed>
  <fix>3d</fix>
</trkpt>
<trkpt lat="-27.2744286" lon="151.2900917">
  <ele>346.01</ele>
  <time>2026-09-01T19:56:20Z</time>
  <course>54.18</course>
  <speed>0.0</speed>
  <fix>3d</fix>
</trkpt>
<trkpt lat="-27.2744285" lon="151.2900915">
  <ele>345.69</ele>
  <time>2026-09-01T19:56:20Z</time>
  <course>11.65</course>
  <speed>0.022360679774997897</speed>
  <fix>3d</fix>
</trkpt>
<trkpt lat="-27.2744286" lon="151.2900917">
  <ele>346.01</ele>
  <time>2026-09-01T19:56:20Z</time>
  <course>54.18</course>
  <speed>0.0</speed>
  <fix>3d</fix>
</trkpt>
<trkpt lat="-27.2744285" lon="151.2900915">
  <ele>345.64</ele>
  <time>2026-09-01T19:56:20Z</time>
  <course>11.61</course>
  <speed>0.022360679774997897</speed>
  <fix>3d</fix>
</trkpt>
<trkpt lat="-27.2744286" lon="151.2900917">
  <ele>345.9</ele>
  <time>2026-09-01T19:56:20Z</time>
  <course>28.13</course>
  <speed>0.0</speed>
  <fix>3d</fix>
</trkpt>
<trkpt lat="-27.2744285" lon="151.2900915">
  <ele>345.59</ele>
  <time>2026-09-01T19:56:20Z</time>
  <course>11.56</course>
  <speed>0.022360679774997897</speed>
  <fix>3d</fix>
</trkpt>
<trkpt lat="-27.2744286" lon="151.2900917">
  <ele>345.9</ele>
  <time>2026-09-01T19:56:20Z</time>
  <course>28.13</course>
  <speed>0.0</speed>
  <fix>3d</fix>
</trkpt>
<trkpt lat="-27.2744285" lon="151.2900915">
  <ele>345.54</ele>
  <time>2026-09-01T19:56:20Z</time>
  <course>11.52</course>
  <speed>0.022360679774997897</speed>
  <fix>3d</fix>
</trkpt>
<trkpt lat="-27.2744286" lon="151.2900917">
  <ele>345.8</ele>
  <time>2026-09-01T19:56:20Z</time>
  <course>10.48</course>
  <speed>0.0</speed>
  <fix>3d</fix>
</trkpt>
<trkpt lat="-27.2744284" lon="151.2900915">
  <ele>345.49</ele>
  <time>2026-09-01T19:56:20Z</time>
  <course>11.48</course>
  <speed>0.022360679774997897</speed>
  <fix>3d</fix>
</trkpt>
<trkpt lat="-27.2744286" lon="151.2900917">
  <ele>345.8</ele>
  <time>2026-09-01T19:56:20Z</time>
  <course>10.48</course>
  <speed>0.0</speed>
  <fix>3d</fix>
</trkpt>
<trkpt lat="-27.2744284" lon="151.2900915">
  <ele>345.44</ele>
  <time>2026-09-01T19:56:20Z</time>
  <course>11.46</course>
  <speed>0.022360679774997897</speed>
  <fix>3d</fix>
</trkpt>
<trkpt lat="-27.2744286" lon="151.2900917">
  <ele>345.7</ele>
  <time>2026-09-01T19:56:20Z</time>
  <course>5.31</course>
  <speed>0.0</speed>
  <fix>3d</fix>
</trkpt>
<trkpt lat="-27.2744284" lon="151.2900915">
  <ele>345.39</ele>
  <time>2026-09-01T19:56:20Z</time>
  <course>11.44</course>
  <speed>0.022360679774997897</speed>
  <fix>3d</fix>
</trkpt>
<trkpt lat="-27.2744286" lon="151.2900917">
  <ele>345.7</ele>
  <time>2026-09-01T19:56:20Z</time>
  <course>5.31</course>
  <speed>0.0</speed>
  <fix>3d</fix>
</trkpt>
<trkpt lat="-27.2744284" lon="151.2900915">
  <ele>345.34</ele>
  <time>2026-09-01T19:56:20Z</time>
  <course>11.41</course>
  <speed>0.022360679774997897</speed>
  <fix>3d</fix>
</trkpt>
<trkpt lat="-27.2744286" lon="151.2900917">
  <ele>345.59</ele>
  <time>2026-09-01T19:56:20Z</time>
  <course>3.03</course>
  <speed>0.0</speed>
  <fix>3d</fix>
</trkpt>
<trkpt lat="-27.2744284" lon="151.2900915">
  <ele>345.29</ele>
  <time>2026-09-01T19:56:20Z</time>
  <course>11.39</course>
  <speed>0.022360679774997897</speed>
  <fix>3d</fix>
</trkpt>
<trkpt lat="-27.2744286" lon="151.2900917">
  <ele>345.59</ele>
  <time>2026-09-01T19:56:20Z</time>
  <course>3.03</course>
  <speed>0.0</speed>
  <fix>3d</fix>
</trkpt>
<trkpt lat="-27.2744284" lon="151.2900915">
  <ele>345.24</ele>
  <time>2026-09-01T19:56:20Z</time>
  <course>11.38</course>
  <speed>0.022360679774997897</speed>
  <fix>3d</fix>
</trkpt>
<trkpt lat="-27.2744286" lon="151.2900917">
  <ele>345.5</ele>
  <time>2026-09-01T19:56:20Z</time>
  <course>53.92</course>
  <speed>0.0</speed>
  <fix>3d</fix>
</trkpt>
<trkpt lat="-27.2744284" lon="151.2900915">
  <ele>345.19</ele>
  <time>2026-09-01T19:56:20Z</time>
  <course>11.37</course>
  <speed>0.022360679774997897</speed>
  <fix>3d</fix>
</trkpt>
<trkpt lat="-27.2744286" lon="151.2900917">
  <ele>345.5</ele>
  <time>2026-09-01T19:56:20Z</time>
  <course>53.92</course>
  <speed>0.0</speed>
  <fix>3d</fix>
</trkpt>
<trkpt lat="-27.2744284" lon="151.2900915">
  <ele>345.14</ele>
  <time>2026-09-01T19:56:20Z</time>
  <course>11.36</course>
  <speed>0.022360679774997897</speed>
  <fix>3d</fix>
</trkpt>
<trkpt lat="-27.2744286" lon="151.2900917">
  <ele>345.4</ele>
  <time>2026-09-01T19:56:20Z</time>
  <course>164.99</course>
  <speed>0.0</speed>
  <fix>3d</fix>
</trkpt>
<trkpt lat="-27.2744284" lon="151.2900915">
  <ele>345.09</ele>
  <time>2026-09-01T19:56:20Z</time>
  <course>11.34</course>
  <speed>0.022360679774997897</speed>
  <fix>3d</fix>
</trkpt>
<trkpt lat="-27.2744286" lon="151.2900917">
  <ele>345.4</ele>
  <time>2026-09-01T19:56:20Z</time>
  <course>164.99</course>
  <speed>0.0</speed>
  <fix>3d</fix>
</trkpt>
<trkpt lat="-27.2744284" lon="151.2900915">
  <ele>345.04</ele>
  <time>2026-09-01T19:56:20Z</time>
  <course>11.33</course>
  <speed>0.022360679774997897</speed>
  <fix>3d</fix>
</trkpt>
<trkpt lat="-27.2744286" lon="151.2900917">
  <ele>345.3</ele>
  <time>2026-09-01T19:56:20Z</time>
  <course>174.11</course>
  <speed>0.0</speed>
  <fix>3d</fix>
</trkpt>
<trkpt lat="-27.2744285" lon="151.2900915">
  <ele>344.99</ele>
  <time>2026-09-01T19:56:20Z</time>
  <course>11.32</course>
  <speed>0.01414213562373095</speed>
  <fix>3d</fix>
</trkpt>
<trkpt lat="-27.2744286" lon="151.2900917">
  <ele>345.3</ele>
  <time>2026-09-01T19:56:20Z</time>
  <course>174.11</course>
  <speed>0.0</speed>
  <fix>3d</fix>
</trkpt>
<trkpt lat="-27.2744285" lon="151.2900915">
  <ele>344.94</ele>
  <time>2026-09-01T19:56:20Z</time>
  <course>11.31</course>
  <speed>0.01414213562373095</speed>
  <fix>3d</fix>
</trkpt>
<trkpt lat="-27.2744286" lon="151.2900917">
  <ele>345.2</ele>
  <time>2026-09-01T19:56:20Z</time>
  <course>178.61</course>
  <speed>0.0</speed>
  <fix>3d</fix>
</trkpt>
<trkpt lat="-27.2744285" lon="151.2900915">
  <ele>344.88</ele>
  <time>2026-09-01T19:56:20Z</time>
  <course>11.31</course>
  <speed>0.01414213562373095</speed>
  <fix>3d</fix>
</trkpt>
<trkpt lat="-27.2744286" lon="151.2900917">
  <ele>345.2</ele>
  <time>2026-09-01T19:56:20Z</time>
  <course>178.61</course>
  <speed>0.0</speed>
  <fix>3d</fix>
</trkpt>
<trkpt lat="-27.2744285" lon="151.2900915">
  <ele>344.83</ele>
  <time>2026-09-01T19:56:20Z</time>
  <course>11.31</course>
  <speed>0.01414213562373095</speed>
  <fix>3d</fix>
</trkpt>
<trkpt lat="-27.2744286" lon="151.2900917">
  <ele>345.09</ele>
  <time>2026-09-01T19:56:20Z</time>
  <course>181.26</course>
  <speed>0.0</speed>
  <fix>3d</fix>
</trkpt>
<trkpt lat="-27.2744285" lon="151.2900915">
  <ele>344.79</ele>
  <time>2026-09-01T19:56:20Z</time>
  <course>11.31</course>
  <speed>0.01414213562373095</speed>
  <fix>3d</fix>
</trkpt>
<trkpt lat="-27.2744286" lon="151.2900917">
  <ele>345.09</ele>
  <time>2026-09-01T19:56:21Z</time>
  <course>181.26</course>
  <speed>0.0</speed>
  <fix>3d</fix>
</trkpt>
<trkpt lat="-27.2744285" lon="151.2900915">
  <ele>344.74</ele>
  <time>2026-09-01T19:56:21Z</time>
  <course>11.31</course>
  <speed>0.01414213562373095</speed>
  <fix>3d</fix>
</trkpt>
<trkpt lat="-27.2744286" lon="151.2900917">
  <ele>345.0</ele>
  <time>2026-09-01T19:56:21Z</time>
  <course>182.3</course>
  <speed>0.0</speed>
  <fix>3d</fix>
</trkpt>
<trkpt lat="-27.2744285" lon="151.2900915">
  <ele>344.69</ele>
  <time>2026-09-01T19:56:21Z</time>
  <course>11.31</course>
  <speed>0.01414213562373095</speed>
  <fix>3d</fix>
</trkpt>
<trkpt lat="-27.2744286" lon="151.2900917">
  <ele>345.0</ele>
  <time>2026-09-01T19:56:21Z</time>
  <course>182.3</course>
  <speed>0.0</speed>
  <fix>3d</fix>
</trkpt>
<trkpt lat="-27.2744285" lon="151.2900915">
  <ele>344.64</ele>
  <time>2026-09-01T19:56:21Z</time>
  <course>11.29</course>
  <speed>0.01414213562373095</speed>
  <fix>3d</fix>
</trkpt>
<trkpt lat="-27.2744286" lon="151.2900917">
  <ele>344.9</ele>
  <time>2026-09-01T19:56:21Z</time>
  <course>182.28</course>
  <speed>0.0</speed>
  <fix>3d</fix>
</trkpt>
<trkpt lat="-27.2744285" lon="151.2900915">
  <ele>344.59</ele>
  <time>2026-09-01T19:56:21Z</time>
  <course>11.26</course>
  <speed>0.01414213562373095</speed>
  <fix>3d</fix>
</trkpt>
<trkpt lat="-27.2744286" lon="151.2900917">
  <ele>344.9</ele>
  <time>2026-09-01T19:56:21Z</time>
  <course>182.28</course>
  <speed>0.0</speed>
  <fix>3d</fix>
</trkpt>
<trkpt lat="-27.2744285" lon="151.2900916">
  <ele>344.54</ele>
  <time>2026-09-01T19:56:21Z</time>
  <course>11.23</course>
  <speed>0.01414213562373095</speed>
  <fix>3d</fix>
</trkpt>
<trkpt lat="-27.2744286" lon="151.2900917">
  <ele>344.8</ele>
  <time>2026-09-01T19:56:21Z</time>
  <course>181.61</course>
  <speed>0.0</speed>
  <fix>3d</fix>
</trkpt>
<trkpt lat="-27.2744285" lon="151.2900916">
  <ele>344.49</ele>
  <time>2026-09-01T19:56:21Z</time>
  <course>11.2</course>
  <speed>0.01414213562373095</speed>
  <fix>3d</fix>
</trkpt>
<trkpt lat="-27.2744286" lon="151.2900917">
  <ele>344.8</ele>
  <time>2026-09-01T19:56:21Z</time>
  <course>181.61</course>
  <speed>0.0</speed>
  <fix>3d</fix>
</trkpt>
<trkpt lat="-27.2744285" lon="151.2900916">
  <ele>344.44</ele>
  <time>2026-09-01T19:56:21Z</time>
  <course>11.18</course>
  <speed>0.01414213562373095</speed>
  <fix>3d</fix>
</trkpt>
<trkpt lat="-27.2744286" lon="151.2900917">
  <ele>344.7</ele>
  <time>2026-09-01T19:56:21Z</time>
  <course>180.38</course>
  <speed>0.0</speed>
  <fix>3d</fix>
</trkpt>
<trkpt lat="-27.2744285" lon="151.2900916">
  <ele>344.39</ele>
  <time>2026-09-01T19:56:21Z</time>
  <course>11.17</course>
  <speed>0.01414213562373095</speed>
  <fix>3d</fix>
</trkpt>
<trkpt lat="-27.2744286" lon="151.2900917">
  <ele>344.7</ele>
  <time>2026-09-01T19:56:21Z</time>
  <course>180.38</course>
  <speed>0.0</speed>
  <fix>3d</fix>
</trkpt>
<trkpt lat="-27.2744285" lon="151.2900916">
  <ele>344.34</ele>
  <time>2026-09-01T19:56:21Z</time>
  <course>11.16</course>
  <speed>0.01414213562373095</speed>
  <fix>3d</fix>
</trkpt>
<trkpt lat="-27.2744286" lon="151.2900917">
  <ele>344.59</ele>
  <time>2026-09-01T19:56:21Z</time>
  <course>179.46</course>
  <speed>0.0</speed>
  <fix>3d</fix>
</trkpt>
<trkpt lat="-27.2744285" lon="151.2900916">
  <ele>344.29</ele>
  <time>2026-09-01T19:56:21Z</time>
  <course>11.17</course>
  <speed>0.022360679774997897</speed>
  <fix>3d</fix>
</trkpt>
<trkpt lat="-27.2744286" lon="151.2900917">
  <ele>344.59</ele>
  <time>2026-09-01T19:56:21Z</time>
  <course>179.46</course>
  <speed>0.0</speed>
  <fix>3d</fix>
</trkpt>
<trkpt lat="-27.2744285" lon="151.2900916">
  <ele>344.23</ele>
  <time>2026-09-01T19:56:21Z</time>
  <course>11.18</course>
  <speed>0.022360679774997897</speed>
  <fix>3d</fix>
</trkpt>
<trkpt lat="-27.2744286" lon="151.2900917">
  <ele>344.5</ele>
  <time>2026-09-01T19:56:21Z</time>
  <course>178.59</course>
  <speed>0.0</speed>
  <fix>3d</fix>
</trkpt>
<trkpt lat="-27.2744285" lon="151.2900916">
  <ele>344.18</ele>
  <time>2026-09-01T19:56:21Z</time>
  <course>11.21</course>
  <speed>0.022360679774997897</speed>
  <fix>3d</fix>
</trkpt>
<trkpt lat="-27.2744286" lon="151.2900917">
  <ele>344.5</ele>
  <time>2026-09-01T19:56:21Z</time>
  <course>178.59</course>
  <speed>0.0</speed>
  <fix>3d</fix>
</trkpt>
<trkpt lat="-27.2744285" lon="151.2900916">
  <ele>344.13</ele>
  <time>2026-09-01T19:56:21Z</time>
  <course>11.24</course>
  <speed>0.022360679774997897</speed>
  <fix>3d</fix>
</trkpt>
<trkpt lat="-27.2744286" lon="151.2900917">
  <ele>344.4</ele>
  <time>2026-09-01T19:56:21Z</time>
  <course>178.87</course>
  <speed>0.0</speed>
  <fix>3d</fix>
</trkpt>
<trkpt lat="-27.2744285" lon="151.2900916">
  <ele>344.08</ele>
  <time>2026-09-01T19:56:21Z</time>
  <course>11.27</course>
  <speed>0.022360679774997897</speed>
  <fix>3d</fix>
</trkpt>
<trkpt lat="-27.2744286" lon="151.2900917">
  <ele>344.4</ele>
  <time>2026-09-01T19:56:21Z</time>
  <course>178.87</course>
  <speed>0.0</speed>
  <fix>3d</fix>
</trkpt>
<trkpt lat="-27.2744285" lon="151.2900916">
  <ele>344.03</ele>
  <time>2026-09-01T19:56:21Z</time>
  <course>11.29</course>
  <speed>0.022360679774997897</speed>
  <fix>3d</fix>
</trkpt>
<trkpt lat="-27.2744286" lon="151.2900917">
  <ele>344.3</ele>
  <time>2026-09-01T19:56:21Z</time>
  <course>179.88</course>
  <speed>0.0</speed>
  <fix>3d</fix>
</trkpt>
<trkpt lat="-27.2744285" lon="151.2900916">
  <ele>343.98</ele>
  <time>2026-09-01T19:56:21Z</time>
  <course>11.29</course>
  <speed>0.022360679774997897</speed>
  <fix>3d</fix>
</trkpt>
<trkpt lat="-27.2744286" lon="151.2900917">
  <ele>344.3</ele>
  <time>2026-09-01T19:56:21Z</time>
  <course>179.88</course>
  <speed>0.0</speed>
  <fix>3d</fix>
</trkpt>
<trkpt lat="-27.2744285" lon="151.2900916">
  <ele>343.94</ele>
  <time>2026-09-01T19:56:21Z</time>
  <course>11.28</course>
  <speed>0.022360679774997897</speed>
  <fix>3d</fix>
</trkpt>
<trkpt lat="-27.2744286" lon="151.2900917">
  <ele>344.2</ele>
  <time>2026-09-01T19:56:21Z</time>
  <course>178.74</course>
  <speed>0.0</speed>
  <fix>3d</fix>
</trkpt>
<trkpt lat="-27.2744285" lon="151.2900916">
  <ele>343.89</ele>
  <time>2026-09-01T19:56:21Z</time>
  <course>11.25</course>
  <speed>0.01414213562373095</speed>
  <fix>3d</fix>
</trkpt>
<trkpt lat="-27.2744286" lon="151.2900917">
  <ele>344.2</ele>
  <time>2026-09-01T19:56:21Z</time>
  <course>178.74</course>
  <speed>0.0</speed>
  <fix>3d</fix>
</trkpt>
<trkpt lat="-27.2744285" lon="151.2900916">
  <ele>343.83</ele>
  <time>2026-09-01T19:56:21Z</time>
  <course>11.21</course>
  <speed>0.01414213562373095</speed>
  <fix>3d</fix>
</trkpt>
<trkpt lat="-27.2744286" lon="151.2900917">
  <ele>344.09</ele>
  <time>2026-09-01T19:56:21Z</time>
  <course>178.03</course>
  <speed>0.0</speed>
  <fix>3d</fix>
</trkpt>
<trkpt lat="-27.2744285" lon="151.2900916">
  <ele>343.79</ele>
  <time>2026-09-01T19:56:21Z</time>
  <course>11.18</course>
  <speed>0.01414213562373095</speed>
  <fix>3d</fix>
</trkpt>
<trkpt lat="-27.2744286" lon="151.2900917">
  <ele>344.09</ele>
  <time>2026-09-01T19:56:21Z</time>
  <course>178.03</course>
  <speed>0.0</speed>
  <fix>3d</fix>
</trkpt>
<trkpt lat="-27.2744285" lon="151.2900916">
  <ele>343.73</ele>
  <time>2026-09-01T19:56:21Z</time>
  <course>11.16</course>
  <speed>0.01414213562373095</speed>
  <fix>3d</fix>
</trkpt>
<trkpt lat="-27.2744287" lon="151.2900917">
  <ele>344.0</ele>
  <time>2026-09-01T19:56:21Z</time>
  <course>179.3</course>
  <speed>0.0</speed>
  <fix>3d</fix>
</trkpt>
<trkpt lat="-27.2744285" lon="151.2900916">
  <ele>343.68</ele>
  <time>2026-09-01T19:56:21Z</time>
  <course>11.14</course>
  <speed>0.01</speed>
  <fix>3d</fix>
</trkpt>
<trkpt lat="-27.2744287" lon="151.2900917">
  <ele>344.0</ele>
  <time>2026-09-01T19:56:21Z</time>
  <course>179.3</course>
  <speed>0.0</speed>
  <fix>3d</fix>
</trkpt>
<trkpt lat="-27.2744285" lon="151.2900916">
  <ele>343.63</ele>
  <time>2026-09-01T19:56:21Z</time>
  <course>11.12</course>
  <speed>0.01</speed>
  <fix>3d</fix>
</trkpt>
<trkpt lat="-27.2744287" lon="151.2900917">
  <ele>343.9</ele>
  <time>2026-09-01T19:56:21Z</time>
  <course>179.33</course>
  <speed>0.0</speed>
  <fix>3d</fix>
</trkpt>
<trkpt lat="-27.2744285" lon="151.2900916">
  <ele>343.59</ele>
  <time>2026-09-01T19:56:21Z</time>
  <course>11.1</course>
  <speed>0.01414213562373095</speed>
  <fix>3d</fix>
</trkpt>
<trkpt lat="-27.2744287" lon="151.2900917">
  <ele>343.9</ele>
  <time>2026-09-01T19:56:21Z</time>
  <course>179.33</course>
  <speed>0.0</speed>
  <fix>3d</fix>
</trkpt>
<trkpt lat="-27.2744285" lon="151.2900916">
  <ele>343.54</ele>
  <time>2026-09-01T19:56:21Z</time>
  <course>11.08</course>
  <speed>0.01414213562373095</speed>
  <fix>3d</fix>
</trkpt>
<trkpt lat="-27.2744287" lon="151.2900917">
  <ele>343.81</ele>
  <time>2026-09-01T19:56:21Z</time>
  <course>178.92</course>
  <speed>0.0</speed>
  <fix>3d</fix>
</trkpt>
<trkpt lat="-27.2744285" lon="151.2900916">
  <ele>343.49</ele>
  <time>2026-09-01T19:56:21Z</time>
  <course>11.07</course>
  <speed>0.01414213562373095</speed>
  <fix>3d</fix>
</trkpt>
<trkpt lat="-27.2744287" lon="151.2900917">
  <ele>343.81</ele>
  <time>2026-09-01T19:56:21Z</time>
  <course>178.92</course>
  <speed>0.0</speed>
  <fix>3d</fix>
</trkpt>
<trkpt lat="-27.2744285" lon="151.2900916">
  <ele>343.44</ele>
  <time>2026-09-01T19:56:21Z</time>
  <course>11.07</course>
  <speed>0.01414213562373095</speed>
  <fix>3d</fix>
</trkpt>
<trkpt lat="-27.2744287" lon="151.2900917">
  <ele>343.71</ele>
  <time>2026-09-01T19:56:21Z</time>
  <course>181.98</course>
  <speed>0.0</speed>
  <fix>3d</fix>
</trkpt>
<trkpt lat="-27.2744285" lon="151.2900916">
  <ele>343.39</ele>
  <time>2026-09-01T19:56:21Z</time>
  <course>11.07</course>
  <speed>0.01414213562373095</speed>
  <fix>3d</fix>
</trkpt>
<trkpt lat="-27.2744287" lon="151.2900917">
  <ele>343.71</ele>
  <time>2026-09-01T19:56:21Z</time>
  <course>181.98</course>
  <speed>0.0</speed>
  <fix>3d</fix>
</trkpt>
<trkpt lat="-27.2744285" lon="151.2900916">
  <ele>343.34</ele>
  <time>2026-09-01T19:56:21Z</time>
  <course>11.08</course>
  <speed>0.01414213562373095</speed>
  <fix>3d</fix>
</trkpt>
<trkpt lat="-27.2744287" lon="151.2900917">
  <ele>343.61</ele>
  <time>2026-09-01T19:56:21Z</time>
  <course>186.17</course>
  <speed>0.0</speed>
  <fix>3d</fix>
</trkpt>
<trkpt lat="-27.2744285" lon="151.2900916">
  <ele>343.29</ele>
  <time>2026-09-01T19:56:21Z</time>
  <course>11.09</course>
  <speed>0.01414213562373095</speed>
  <fix>3d</fix>
</trkpt>
<trkpt lat="-27.2744287" lon="151.2900917">
  <ele>343.61</ele>
  <time>2026-09-01T19:56:21Z</time>
  <course>186.17</course>
  <speed>0.0</speed>
  <fix>3d</fix>
</trkpt>
<trkpt lat="-27.2744285" lon="151.2900916">
  <ele>343.24</ele>
  <time>2026-09-01T19:56:21Z</time>
  <course>11.1</course>
  <speed>0.01414213562373095</speed>
  <fix>3d</fix>
</trkpt>
<trkpt lat="-27.2744287" lon="151.2900917">
  <ele>343.51</ele>
  <time>2026-09-01T19:56:21Z</time>
  <course>188.8</course>
  <speed>0.0</speed>
  <fix>3d</fix>
</trkpt>
<trkpt lat="-27.2744285" lon="151.2900916">
  <ele>343.19</ele>
  <time>2026-09-01T19:56:21Z</time>
  <course>11.11</course>
  <speed>0.022360679774997897</speed>
  <fix>3d</fix>
</trkpt>
<trkpt lat="-27.2744287" lon="151.2900917">
  <ele>343.51</ele>
  <time>2026-09-01T19:56:21Z</time>
  <course>188.8</course>
  <speed>0.0</speed>
  <fix>3d</fix>
</trkpt>
<trkpt lat="-27.2744285" lon="151.2900916">
  <ele>343.14</ele>
  <time>2026-09-01T19:56:21Z</time>
  <course>11.12</course>
  <speed>0.022360679774997897</speed>
  <fix>3d</fix>
</trkpt>
<trkpt lat="-27.2744287" lon="151.2900917">
  <ele>343.4</ele>
  <time>2026-09-01T19:56:21Z</time>
  <course>192.21</course>
  <speed>0.0</speed>
  <fix>3d</fix>
</trkpt>
<trkpt lat="-27.2744285" lon="151.2900916">
  <ele>343.09</ele>
  <time>2026-09-01T19:56:21Z</time>
  <course>11.13</course>
  <speed>0.022360679774997897</speed>
  <fix>3d</fix>
</trkpt>
<trkpt lat="-27.2744287" lon="151.2900917">
  <ele>343.4</ele>
  <time>2026-09-01T19:56:21Z</time>
  <course>192.21</course>
  <speed>0.0</speed>
  <fix>3d</fix>
</trkpt>
<trkpt lat="-27.2744285" lon="151.2900916">
  <ele>343.04</ele>
  <time>2026-09-01T19:56:21Z</time>
  <course>11.14</course>
  <speed>0.022360679774997897</speed>
  <fix>3d</fix>
</trkpt>
<trkpt lat="-27.2744288" lon="151.2900917">
  <ele>343.31</ele>
  <time>2026-09-01T19:56:21Z</time>
  <course>203.09</course>
  <speed>0.0</speed>
  <fix>3d</fix>
</trkpt>
<trkpt lat="-27.2744285" lon="151.2900916">
  <ele>342.99</ele>
  <time>2026-09-01T19:56:21Z</time>
  <course>11.17</course>
  <speed>0.022360679774997897</speed>
  <fix>3d</fix>
</trkpt>
<trkpt lat="-27.2744288" lon="151.2900917">
  <ele>343.31</ele>
  <time>2026-09-01T19:56:21Z</time>
  <course>203.09</course>
  <speed>0.0</speed>
  <fix>3d</fix>
</trkpt>
<trkpt lat="-27.2744285" lon="151.2900916">
  <ele>342.93</ele>
  <time>2026-09-01T19:56:21Z</time>
  <course>11.21</course>
  <speed>0.022360679774997897</speed>
  <fix>3d</fix>
</trkpt>
<trkpt lat="-27.2744288" lon="151.2900917">
  <ele>343.21</ele>
  <time>2026-09-01T19:56:21Z</time>
  <course>228.12</course>
  <speed>0.0</speed>
  <fix>3d</fix>
</trkpt>
<trkpt lat="-27.2744285" lon="151.2900916">
  <ele>342.9</ele>
  <time>2026-09-01T19:56:21Z</time>
  <course>11.21</course>
  <speed>0.022360679774997897</speed>
  <fix>3d</fix>
</trkpt>
<trkpt lat="-27.2744288" lon="151.2900917">
  <ele>343.21</ele>
  <time>2026-09-01T19:56:21Z</time>
  <course>228.12</course>
  <speed>0.0</speed>
  <fix>3d</fix>
</trkpt>
<trkpt lat="-27.2744285" lon="151.2900916">
  <ele>342.91</ele>
  <time>2026-09-01T19:56:21Z</time>
  <course>11.21</course>
  <speed>0.02</speed>
  <fix>3d</fix>
</trkpt>
<trkpt lat="-27.2744288" lon="151.2900917">
  <ele>343.12</ele>
  <time>2026-09-01T19:56:21Z</time>
  <course>244.55</course>
  <speed>0.0</speed>
  <fix>3d</fix>
</trkpt>
<trkpt lat="-27.2744285" lon="151.2900916">
  <ele>342.93</ele>
  <time>2026-09-01T19:56:21Z</time>
  <course>11.21</course>
  <speed>0.02</speed>
  <fix>3d</fix>
</trkpt>
<trkpt lat="-27.2744288" lon="151.2900917">
  <ele>343.12</ele>
  <time>2026-09-01T19:56:21Z</time>
  <course>244.55</course>
  <speed>0.0</speed>
  <fix>3d</fix>
</trkpt>
<trkpt lat="-27.2744285" lon="151.2900916">
  <ele>342.94</ele>
  <time>2026-09-01T19:56:21Z</time>
  <course>11.21</course>
  <speed>0.022360679774997897</speed>
  <fix>3d</fix>
</trkpt>
<trkpt lat="-27.2744288" lon="151.2900917">
  <ele>343.08</ele>
  <time>2026-09-01T19:56:21Z</time>
  <course>73.78</course>
  <speed>0.0</speed>
  <fix>3d</fix>
</trkpt>
<trkpt lat="-27.2744285" lon="151.2900916">
  <ele>342.95</ele>
  <time>2026-09-01T19:56:21Z</time>
  <course>11.21</course>
  <speed>0.022360679774997897</speed>
  <fix>3d</fix>
</trkpt>
<trkpt lat="-27.2744288" lon="151.2900917">
  <ele>343.08</ele>
  <time>2026-09-01T19:56:21Z</time>
  <course>73.78</course>
  <speed>0.0</speed>
  <fix>3d</fix>
</trkpt>
<trkpt lat="-27.2744285" lon="151.2900916">
  <ele>342.95</ele>
  <time>2026-09-01T19:56:21Z</time>
  <course>11.21</course>
  <speed>0.022360679774997897</speed>
  <fix>3d</fix>
</trkpt>
<trkpt lat="-27.2744288" lon="151.2900917">
  <ele>343.09</ele>
  <time>2026-09-01T19:56:21Z</time>
  <course>73.68</course>
  <speed>0.0</speed>
  <fix>3d</fix>
</trkpt>
<trkpt lat="-27.2744285" lon="151.2900916">
  <ele>342.94</ele>
  <time>2026-09-01T19:56:21Z</time>
  <course>11.21</course>
  <speed>0.022360679774997897</speed>
  <fix>3d</fix>
</trkpt>
<trkpt lat="-27.2744288" lon="151.2900917">
  <ele>343.09</ele>
  <time>2026-09-01T19:56:21Z</time>
  <course>73.68</course>
  <speed>0.0</speed>
  <fix>3d</fix>
</trkpt>
<trkpt lat="-27.2744285" lon="151.2900916">
  <ele>342.95</ele>
  <time>2026-09-01T19:56:21Z</time>
  <course>11.21</course>
  <speed>0.022360679774997897</speed>
  <fix>3d</fix>
</trkpt>
<trkpt lat="-27.2744288" lon="151.2900917">
  <ele>343.1</ele>
  <time>2026-09-01T19:56:21Z</time>
  <course>253.69</course>
  <speed>0.0</speed>
  <fix>3d</fix>
</trkpt>
<trkpt lat="-27.2744285" lon="151.2900916">
  <ele>342.95</ele>
  <time>2026-09-01T19:56:21Z</time>
  <course>11.21</course>
  <speed>0.022360679774997897</speed>
  <fix>3d</fix>
</trkpt>
<trkpt lat="-27.2744288" lon="151.2900917">
  <ele>343.1</ele>
  <time>2026-09-01T19:56:21Z</time>
  <course>253.69</course>
  <speed>0.0</speed>
  <fix>3d</fix>
</trkpt>
<trkpt lat="-27.2744285" lon="151.2900916">
  <ele>342.95</ele>
  <time>2026-09-01T19:56:21Z</time>
  <course>11.22</course>
  <speed>0.022360679774997897</speed>
  <fix>3d</fix>
</trkpt>
<trkpt lat="-27.2744288" lon="151.2900917">
  <ele>343.1</ele>
  <time>2026-09-01T19:56:21Z</time>
  <course>253.64</course>
  <speed>0.0</speed>
  <fix>3d</fix>
</trkpt>
<trkpt lat="-27.2744285" lon="151.2900916">
  <ele>342.95</ele>
  <time>2026-09-01T19:56:21Z</time>
  <course>11.22</course>
  <speed>0.022360679774997897</speed>
  <fix>3d</fix>
</trkpt>
<trkpt lat="-27.2744288" lon="151.2900917">
  <ele>343.1</ele>
  <time>2026-09-01T19:56:21Z</time>
  <course>253.64</course>
  <speed>0.0</speed>
  <fix>3d</fix>
</trkpt>
<trkpt lat="-27.2744285" lon="151.2900916">
  <ele>342.95</ele>
  <time>2026-09-01T19:56:21Z</time>
  <course>11.22</course>
  <speed>0.022360679774997897</speed>
  <fix>3d</fix>
</trkpt>
<trkpt lat="-27.2744288" lon="151.2900917">
  <ele>343.1</ele>
  <time>2026-09-01T19:56:21Z</time>
  <course>73.84</course>
  <speed>0.0</speed>
  <fix>3d</fix>
</trkpt>
<trkpt lat="-27.2744285" lon="151.2900916">
  <ele>342.95</ele>
  <time>2026-09-01T19:56:21Z</time>
  <course>11.22</course>
  <speed>0.022360679774997897</speed>
  <fix>3d</fix>
</trkpt>
<trkpt lat="-27.2744288" lon="151.2900917">
  <ele>343.1</ele>
  <time>2026-09-01T19:56:21Z</time>
  <course>73.84</course>
  <speed>0.0</speed>
  <fix>3d</fix>
</trkpt>
<trkpt lat="-27.2744285" lon="151.2900916">
  <ele>342.95</ele>
  <time>2026-09-01T19:56:21Z</time>
  <course>11.22</course>
  <speed>0.022360679774997897</speed>
  <fix>3d</fix>
</trkpt>
<trkpt lat="-27.2744288" lon="151.2900917">
  <ele>343.1</ele>
  <time>2026-09-01T19:56:21Z</time>
  <course>74.07</course>
  <speed>0.0</speed>
  <fix>3d</fix>
</trkpt>
<trkpt lat="-27.2744285" lon="151.2900916">
  <ele>342.95</ele>
  <time>2026-09-01T19:56:21Z</time>
  <course>11.22</course>
  <speed>0.022360679774997897</speed>
  <fix>3d</fix>
</trkpt>
<trkpt lat="-27.2744288" lon="151.2900917">
  <ele>343.1</ele>
  <time>2026-09-01T19:56:21Z</time>
  <course>74.07</course>
  <speed>0.0</speed>
  <fix>3d</fix>
</trkpt>
<trkpt lat="-27.2744285" lon="151.2900916">
  <ele>342.95</ele>
  <time>2026-09-01T19:56:21Z</time>
  <course>11.22</course>
  <speed>0.022360679774997897</speed>
  <fix>3d</fix>
</trkpt>
<trkpt lat="-27.2744288" lon="151.2900917">
  <ele>343.1</ele>
  <time>2026-09-01T19:56:21Z</time>
  <course>253.14</course>
  <speed>0.0</speed>
  <fix>3d</fix>
</trkpt>
<trkpt lat="-27.2744285" lon="151.2900916">
  <ele>342.95</ele>
  <time>2026-09-01T19:56:21Z</time>
  <course>11.22</course>
  <speed>0.022360679774997897</speed>
  <fix>3d</fix>
</trkpt>
<trkpt lat="-27.2744288" lon="151.2900917">
  <ele>343.1</ele>
  <time>2026-09-01T19:56:21Z</time>
  <course>253.14</course>
  <speed>0.0</speed>
  <fix>3d</fix>
</trkpt>
<trkpt lat="-27.2744286" lon="151.2900916">
  <ele>342.95</ele>
  <time>2026-09-01T19:56:21Z</time>
  <course>11.22</course>
  <speed>0.022360679774997897</speed>
  <fix>3d</fix>
</trkpt>
<trkpt lat="-27.2744288" lon="151.2900917">
  <ele>343.1</ele>
  <time>2026-09-01T19:56:21Z</time>
  <course>248.66</course>
  <speed>0.0</speed>
  <fix>3d</fix>
</trkpt>
<trkpt lat="-27.2744286" lon="151.2900916">
  <ele>342.95</ele>
  <time>2026-09-01T19:56:21Z</time>
  <course>11.22</course>
  <speed>0.022360679774997897</speed>
  <fix>3d</fix>
</trkpt>
<trkpt lat="-27.2744288" lon="151.2900917">
  <ele>343.1</ele>
  <time>2026-09-01T19:56:21Z</time>
  <course>248.66</course>
  <speed>0.0</speed>
  <fix>3d</fix>
</trkpt>
<trkpt lat="-27.2744286" lon="151.2900916">
  <ele>342.95</ele>
  <time>2026-09-01T19:56:21Z</time>
  <course>11.22</course>
  <speed>0.022360679774997897</speed>
  <fix>3d</fix>
</trkpt>
<trkpt lat="-27.2744288" lon="151.2900917">
  <ele>343.1</ele>
  <time>2026-09-01T19:56:21Z</time>
  <course>77.15</course>
  <speed>0.0</speed>
  <fix>3d</fix>
</trkpt>
<trkpt lat="-27.2744286" lon="151.2900916">
  <ele>342.95</ele>
  <time>2026-09-01T19:56:21Z</time>
  <course>11.22</course>
  <speed>0.022360679774997897</speed>
  <fix>3d</fix>
</trkpt>
<trkpt lat="-27.2744288" lon="151.2900917">
  <ele>343.1</ele>
  <time>2026-09-01T19:56:21Z</time>
  <course>77.15</course>
  <speed>0.0</speed>
  <fix>3d</fix>
</trkpt>
<trkpt lat="-27.2744286" lon="151.2900916">
  <ele>342.95</ele>
  <time>2026-09-01T19:56:21Z</time>
  <course>11.22</course>
  <speed>0.022360679774997897</speed>
  <fix>3d</fix>
</trkpt>
<trkpt lat="-27.2744288" lon="151.2900917">
  <ele>343.1</ele>
  <time>2026-09-01T19:56:21Z</time>
  <course>99.84</course>
  <speed>0.0</speed>
  <fix>3d</fix>
</trkpt>
<trkpt lat="-27.2744286" lon="151.2900916">
  <ele>342.95</ele>
  <time>2026-09-01T19:56:21Z</time>
  <course>11.22</course>
  <speed>0.022360679774997897</speed>
  <fix>3d</fix>
</trkpt>
<trkpt lat="-27.2744288" lon="151.2900917">
  <ele>343.1</ele>
  <time>2026-09-01T19:56:21Z</time>
  <course>99.84</course>
  <speed>0.0</speed>
  <fix>3d</fix>
</trkpt>
<trkpt lat="-27.2744286" lon="151.2900916">
  <ele>342.96</ele>
  <time>2026-09-01T19:56:21Z</time>
  <course>11.22</course>
  <speed>0.022360679774997897</speed>
  <fix>3d</fix>
</trkpt>
<trkpt lat="-27.2744288" lon="151.2900917">
  <ele>343.1</ele>
  <time>2026-09-01T19:56:21Z</time>
  <course>239.19</course>
  <speed>0.0</speed>
  <fix>3d</fix>
</trkpt>
<trkpt lat="-27.2744286" lon="151.2900916">
  <ele>342.96</ele>
  <time>2026-09-01T19:56:21Z</time>
  <course>11.22</course>
  <speed>0.022360679774997897</speed>
  <fix>3d</fix>
</trkpt>
<trkpt lat="-27.2744288" lon="151.2900917">
  <ele>343.1</ele>
  <time>2026-09-01T19:56:21Z</time>
  <course>239.19</course>
  <speed>0.0</speed>
  <fix>3d</fix>
</trkpt>
<trkpt lat="-27.2744286" lon="151.2900916">
  <ele>342.96</ele>
  <time>2026-09-01T19:56:21Z</time>
  <course>11.22</course>
  <speed>0.022360679774997897</speed>
  <fix>3d</fix>
</trkpt>
<trkpt lat="-27.2744288" lon="151.2900917">
  <ele>343.1</ele>
  <time>2026-09-01T19:56:21Z</time>
  <course>284.66</course>
  <speed>0.0</speed>
  <fix>3d</fix>
</trkpt>
<trkpt lat="-27.2744286" lon="151.2900916">
  <ele>342.96</ele>
  <time>2026-09-01T19:56:21Z</time>
  <course>11.22</course>
  <speed>0.022360679774997897</speed>
  <fix>3d</fix>
</trkpt>
<trkpt lat="-27.2744288" lon="151.2900917">
  <ele>343.1</ele>
  <time>2026-09-01T19:56:21Z</time>
  <course>284.66</course>
  <speed>0.0</speed>
  <fix>3d</fix>
</trkpt>
<trkpt lat="-27.2744286" lon="151.2900916">
  <ele>342.96</ele>
  <time>2026-09-01T19:56:21Z</time>
  <course>11.22</course>
  <speed>0.022360679774997897</speed>
  <fix>3d</fix>
</trkpt>
<trkpt lat="-27.2744288" lon="151.2900917">
  <ele>343.1</ele>
  <time>2026-09-01T19:56:21Z</time>
  <course>285.2</course>
  <speed>0.0</speed>
  <fix>3d</fix>
</trkpt>
<trkpt lat="-27.2744286" lon="151.2900916">
  <ele>342.96</ele>
  <time>2026-09-01T19:56:21Z</time>
  <course>11.22</course>
  <speed>0.022360679774997897</speed>
  <fix>3d</fix>
</trkpt>
<trkpt lat="-27.2744288" lon="151.2900917">
  <ele>343.1</ele>
  <time>2026-09-01T19:56:21Z</time>
  <course>285.2</course>
  <speed>0.0</speed>
  <fix>3d</fix>
</trkpt>
<trkpt lat="-27.2744286" lon="151.2900916">
  <ele>342.96</ele>
  <time>2026-09-01T19:56:21Z</time>
  <course>11.22</course>
  <speed>0.022360679774997897</speed>
  <fix>3d</fix>
</trkpt>
<trkpt lat="-27.2744288" lon="151.2900917">
  <ele>343.1</ele>
  <time>2026-09-01T19:56:21Z</time>
  <course>287.36</course>
  <speed>0.0</speed>
  <fix>3d</fix>
</trkpt>
<trkpt lat="-27.2744286" lon="151.2900916">
  <ele>342.96</ele>
  <time>2026-09-01T19:56:21Z</time>
  <course>11.22</course>
  <speed>0.022360679774997897</speed>
  <fix>3d</fix>
</trkpt>
<trkpt lat="-27.2744288" lon="151.2900917">
  <ele>343.1</ele>
  <time>2026-09-01T19:56:21Z</time>
  <course>287.36</course>
  <speed>0.0</speed>
  <fix>3d</fix>
</trkpt>
<trkpt lat="-27.2744286" lon="151.2900916">
  <ele>342.96</ele>
  <time>2026-09-01T19:56:21Z</time>
  <course>11.22</course>
  <speed>0.022360679774997897</speed>
  <fix>3d</fix>
</trkpt>
<trkpt lat="-27.2744288" lon="151.2900917">
  <ele>343.1</ele>
  <time>2026-09-01T19:56:21Z</time>
  <course>293.28</course>
  <speed>0.0</speed>
  <fix>3d</fix>
</trkpt>
<trkpt lat="-27.2744286" lon="151.2900916">
  <ele>342.96</ele>
  <time>2026-09-01T19:56:21Z</time>
  <course>11.22</course>
  <speed>0.022360679774997897</speed>
  <fix>3d</fix>
</trkpt>
<trkpt lat="-27.2744288" lon="151.2900917">
  <ele>343.1</ele>
  <time>2026-09-01T19:56:21Z</time>
  <course>293.28</course>
  <speed>0.0</speed>
  <fix>3d</fix>
</trkpt>
<trkpt lat="-27.2744286" lon="151.2900916">
  <ele>342.96</ele>
  <time>2026-09-01T19:56:21Z</time>
  <course>11.22</course>
  <speed>0.022360679774997897</speed>
  <fix>3d</fix>
</trkpt>
<trkpt lat="-27.2744288" lon="151.2900917">
  <ele>343.1</ele>
  <time>2026-09-01T19:56:21Z</time>
  <course>294.15</course>
  <speed>0.0</speed>
  <fix>3d</fix>
</trkpt>
<trkpt lat="-27.2744286" lon="151.2900916">
  <ele>342.96</ele>
  <time>2026-09-01T19:56:21Z</time>
  <course>11.22</course>
  <speed>0.022360679774997897</speed>
  <fix>3d</fix>
</trkpt>
<trkpt lat="-27.2744288" lon="151.2900917">
  <ele>343.1</ele>
  <time>2026-09-01T19:56:21Z</time>
  <course>294.15</course>
  <speed>0.0</speed>
  <fix>3d</fix>
</trkpt>
<trkpt lat="-27.2744286" lon="151.2900916">
  <ele>342.96</ele>
  <time>2026-09-01T19:56:21Z</time>
  <course>11.22</course>
  <speed>0.022360679774997897</speed>
  <fix>3d</fix>
</trkpt>
<trkpt lat="-27.2744288" lon="151.2900917">
  <ele>343.1</ele>
  <time>2026-09-01T19:56:21Z</time>
  <course>284.93</course>
  <speed>0.0</speed>
  <fix>3d</fix>
</trkpt>
<trkpt lat="-27.2744286" lon="151.2900916">
  <ele>342.96</ele>
  <time>2026-09-01T19:56:21Z</time>
  <course>11.22</course>
  <speed>0.022360679774997897</speed>
  <fix>3d</fix>
</trkpt>
<trkpt lat="-27.2744288" lon="151.2900917">
  <ele>343.1</ele>
  <time>2026-09-01T19:56:21Z</time>
  <course>284.93</course>
  <speed>0.0</speed>
  <fix>3d</fix>
</trkpt>
<trkpt lat="-27.2744286" lon="151.2900916">
  <ele>342.96</ele>
  <time>2026-09-01T19:56:21Z</time>
  <course>11.22</course>
  <speed>0.022360679774997897</speed>
  <fix>3d</fix>
</trkpt>
<trkpt lat="-27.2744288" lon="151.2900917">
  <ele>343.1</ele>
  <time>2026-09-01T19:56:21Z</time>
  <course>279.94</course>
  <speed>0.0</speed>
  <fix>3d</fix>
</trkpt>
<trkpt lat="-27.2744286" lon="151.2900916">
  <ele>342.95</ele>
  <time>2026-09-01T19:56:21Z</time>
  <course>11.22</course>
  <speed>0.022360679774997897</speed>
  <fix>3d</fix>
</trkpt>
<trkpt lat="-27.2744288" lon="151.2900917">
  <ele>343.1</ele>
  <time>2026-09-01T19:56:21Z</time>
  <course>279.94</course>
  <speed>0.0</speed>
  <fix>3d</fix>
</trkpt>
<trkpt lat="-27.2744286" lon="151.2900916">
  <ele>342.95</ele>
  <time>2026-09-01T19:56:21Z</time>
  <course>11.22</course>
  <speed>0.022360679774997897</speed>
  <fix>3d</fix>
</trkpt>
<trkpt lat="-27.2744288" lon="151.2900917">
  <ele>343.1</ele>
  <time>2026-09-01T19:56:21Z</time>
  <course>328.31</course>
  <speed>0.0</speed>
  <fix>3d</fix>
</trkpt>
<trkpt lat="-27.2744286" lon="151.2900916">
  <ele>342.95</ele>
  <time>2026-09-01T19:56:21Z</time>
  <course>11.22</course>
  <speed>0.022360679774997897</speed>
  <fix>3d</fix>
</trkpt>
<trkpt lat="-27.2744288" lon="151.2900917">
  <ele>343.1</ele>
  <time>2026-09-01T19:56:21Z</time>
  <course>328.31</course>
  <speed>0.0</speed>
  <fix>3d</fix>
</trkpt>
<trkpt lat="-27.2744286" lon="151.2900916">
  <ele>342.95</ele>
  <time>2026-09-01T19:56:21Z</time>
  <course>11.22</course>
  <speed>0.022360679774997897</speed>
  <fix>3d</fix>
</trkpt>
<trkpt lat="-27.2744288" lon="151.2900917">
  <ele>343.1</ele>
  <time>2026-09-01T19:56:21Z</time>
  <course>293.65</course>
  <speed>0.0</speed>
  <fix>3d</fix>
</trkpt>
<trkpt lat="-27.2744286" lon="151.2900916">
  <ele>342.95</ele>
  <time>2026-09-01T19:56:21Z</time>
  <course>11.22</course>
  <speed>0.022360679774997897</speed>
  <fix>3d</fix>
</trkpt>
<trkpt lat="-27.2744288" lon="151.2900917">
  <ele>343.1</ele>
  <time>2026-09-01T19:56:21Z</time>
  <course>293.65</course>
  <speed>0.0</speed>
  <fix>3d</fix>
</trkpt>
<trkpt lat="-27.2744286" lon="151.2900916">
  <ele>342.95</ele>
  <time>2026-09-01T19:56:21Z</time>
  <course>11.22</course>
  <speed>0.022360679774997897</speed>
  <fix>3d</fix>
</trkpt>
<trkpt lat="-27.2744288" lon="151.2900917">
  <ele>343.1</ele>
  <time>2026-09-01T19:56:21Z</time>
  <course>290.55</course>
  <speed>0.0</speed>
  <fix>3d</fix>
</trkpt>
<trkpt lat="-27.2744286" lon="151.2900916">
  <ele>342.95</ele>
  <time>2026-09-01T19:56:21Z</time>
  <course>11.22</course>
  <speed>0.022360679774997897</speed>
  <fix>3d</fix>
</trkpt>
<trkpt lat="-27.2744288" lon="151.2900917">
  <ele>343.1</ele>
  <time>2026-09-01T19:56:21Z</time>
  <course>290.55</course>
  <speed>0.0</speed>
  <fix>3d</fix>
</trkpt>
<trkpt lat="-27.2744286" lon="151.2900916">
  <ele>342.95</ele>
  <time>2026-09-01T19:56:21Z</time>
  <course>11.22</course>
  <speed>0.022360679774997897</speed>
  <fix>3d</fix>
</trkpt>
<trkpt lat="-27.2744288" lon="151.2900917">
  <ele>343.1</ele>
  <time>2026-09-01T19:56:21Z</time>
  <course>287.67</course>
  <speed>0.0</speed>
  <fix>3d</fix>
</trkpt>
<trkpt lat="-27.2744286" lon="151.2900916">
  <ele>342.95</ele>
  <time>2026-09-01T19:56:21Z</time>
  <course>11.22</course>
  <speed>0.022360679774997897</speed>
  <fix>3d</fix>
</trkpt>
<trkpt lat="-27.2744288" lon="151.2900917">
  <ele>343.1</ele>
  <time>2026-09-01T19:56:21Z</time>
  <course>287.67</course>
  <speed>0.0</speed>
  <fix>3d</fix>
</trkpt>
<trkpt lat="-27.2744286" lon="151.2900916">
  <ele>342.95</ele>
  <time>2026-09-01T19:56:21Z</time>
  <course>11.22</course>
  <speed>0.022360679774997897</speed>
  <fix>3d</fix>
</trkpt>
<trkpt lat="-27.2744288" lon="151.2900917">
  <ele>343.1</ele>
  <time>2026-09-01T19:56:21Z</time>
  <course>276.67</course>
  <speed>0.0</speed>
  <fix>3d</fix>
</trkpt>
<trkpt lat="-27.2744286" lon="151.2900916">
  <ele>342.96</ele>
  <time>2026-09-01T19:56:21Z</time>
  <course>11.22</course>
  <speed>0.022360679774997897</speed>
  <fix>3d</fix>
</trkpt>
<trkpt lat="-27.2744288" lon="151.2900917">
  <ele>343.1</ele>
  <time>2026-09-01T19:56:21Z</time>
  <course>276.67</course>
  <speed>0.0</speed>
  <fix>3d</fix>
</trkpt>
<trkpt lat="-27.2744286" lon="151.2900916">
  <ele>342.96</ele>
  <time>2026-09-01T19:56:21Z</time>
  <course>11.22</course>
  <speed>0.022360679774997897</speed>
  <fix>3d</fix>
</trkpt>
<trkpt lat="-27.2744288" lon="151.2900917">
  <ele>343.1</ele>
  <time>2026-09-01T19:56:21Z</time>
  <course>319.41</course>
  <speed>0.0</speed>
  <fix>3d</fix>
</trkpt>
<trkpt lat="-27.2744286" lon="151.2900916">
  <ele>342.96</ele>
  <time>2026-09-01T19:56:21Z</time>
  <course>11.22</course>
  <speed>0.022360679774997897</speed>
  <fix>3d</fix>
</trkpt>
<trkpt lat="-27.2744288" lon="151.2900917">
  <ele>343.1</ele>
  <time>2026-09-01T19:56:21Z</time>
  <course>319.41</course>
  <speed>0.0</speed>
  <fix>3d</fix>
</trkpt>
<trkpt lat="-27.2744286" lon="151.2900916">
  <ele>342.96</ele>
  <time>2026-09-01T19:56:21Z</time>
  <course>11.22</course>
  <speed>0.022360679774997897</speed>
  <fix>3d</fix>
</trkpt>
<trkpt lat="-27.2744288" lon="151.2900917">
  <ele>343.1</ele>
  <time>2026-09-01T19:56:21Z</time>
  <course>289.37</course>
  <speed>0.0</speed>
  <fix>3d</fix>
</trkpt>
<trkpt lat="-27.2744286" lon="151.2900916">
  <ele>342.96</ele>
  <time>2026-09-01T19:56:21Z</time>
  <course>11.22</course>
  <speed>0.022360679774997897</speed>
  <fix>3d</fix>
</trkpt>
<trkpt lat="-27.2744288" lon="151.2900917">
  <ele>343.1</ele>
  <time>2026-09-01T19:56:21Z</time>
  <course>289.37</course>
  <speed>0.0</speed>
  <fix>3d</fix>
</trkpt>
<trkpt lat="-27.2744286" lon="151.2900916">
  <ele>342.96</ele>
  <time>2026-09-01T19:56:21Z</time>
  <course>11.22</course>
  <speed>0.022360679774997897</speed>
  <fix>3d</fix>
</trkpt>
<trkpt lat="-27.2744288" lon="151.2900917">
  <ele>343.1</ele>
  <time>2026-09-01T19:56:21Z</time>
  <course>283.68</course>
  <speed>0.0</speed>
  <fix>3d</fix>
</trkpt>
<trkpt lat="-27.2744286" lon="151.2900916">
  <ele>342.96</ele>
  <time>2026-09-01T19:56:21Z</time>
  <course>11.23</course>
  <speed>0.022360679774997897</speed>
  <fix>3d</fix>
</trkpt>
<trkpt lat="-27.2744288" lon="151.2900917">
  <ele>343.1</ele>
  <time>2026-09-01T19:56:21Z</time>
  <course>283.68</course>
  <speed>0.0</speed>
  <fix>3d</fix>
</trkpt>
<trkpt lat="-27.2744286" lon="151.2900916">
  <ele>342.96</ele>
  <time>2026-09-01T19:56:21Z</time>
  <course>11.23</course>
  <speed>0.022360679774997897</speed>
  <fix>3d</fix>
</trkpt>
<trkpt lat="-27.2744288" lon="151.2900917">
  <ele>343.1</ele>
  <time>2026-09-01T19:56:21Z</time>
  <course>299.63</course>
  <speed>0.0</speed>
  <fix>3d</fix>
</trkpt>
<trkpt lat="-27.2744286" lon="151.2900916">
  <ele>342.96</ele>
  <time>2026-09-01T19:56:21Z</time>
  <course>11.23</course>
  <speed>0.022360679774997897</speed>
  <fix>3d</fix>
</trkpt>
<trkpt lat="-27.2744288" lon="151.2900917">
  <ele>343.1</ele>
  <time>2026-09-01T19:56:21Z</time>
  <course>299.63</course>
  <speed>0.0</speed>
  <fix>3d</fix>
</trkpt>
<trkpt lat="-27.2744286" lon="151.2900916">
  <ele>342.96</ele>
  <time>2026-09-01T19:56:21Z</time>
  <course>11.23</course>
  <speed>0.022360679774997897</speed>
  <fix>3d</fix>
</trkpt>
<trkpt lat="-27.2744288" lon="151.2900917">
  <ele>343.1</ele>
  <time>2026-09-01T19:56:21Z</time>
  <course>280.95</course>
  <speed>0.0</speed>
  <fix>3d</fix>
</trkpt>
<trkpt lat="-27.2744286" lon="151.2900916">
  <ele>342.96</ele>
  <time>2026-09-01T19:56:21Z</time>
  <course>11.23</course>
  <speed>0.022360679774997897</speed>
  <fix>3d</fix>
</trkpt>
<trkpt lat="-27.2744288" lon="151.2900917">
  <ele>343.1</ele>
  <time>2026-09-01T19:56:21Z</time>
  <course>280.95</course>
  <speed>0.0</speed>
  <fix>3d</fix>
</trkpt>
<trkpt lat="-27.2744286" lon="151.2900916">
  <ele>342.96</ele>
  <time>2026-09-01T19:56:21Z</time>
  <course>11.23</course>
  <speed>0.022360679774997897</speed>
  <fix>3d</fix>
</trkpt>
<trkpt lat="-27.2744288" lon="151.2900917">
  <ele>343.1</ele>
  <time>2026-09-01T19:56:21Z</time>
  <course>303.12</course>
  <speed>0.0</speed>
  <fix>3d</fix>
</trkpt>
<trkpt lat="-27.2744286" lon="151.2900916">
  <ele>342.96</ele>
  <time>2026-09-01T19:56:21Z</time>
  <course>11.23</course>
  <speed>0.022360679774997897</speed>
  <fix>3d</fix>
</trkpt>
<trkpt lat="-27.2744288" lon="151.2900917">
  <ele>343.1</ele>
  <time>2026-09-01T19:56:21Z</time>
  <course>303.12</course>
  <speed>0.0</speed>
  <fix>3d</fix>
</trkpt>
<trkpt lat="-27.2744286" lon="151.2900916">
  <ele>342.96</ele>
  <time>2026-09-01T19:56:21Z</time>
  <course>11.23</course>
  <speed>0.022360679774997897</speed>
  <fix>3d</fix>
</trkpt>
<trkpt lat="-27.2744288" lon="151.2900917">
  <ele>343.1</ele>
  <time>2026-09-01T19:56:21Z</time>
  <course>287.77</course>
  <speed>0.0</speed>
  <fix>3d</fix>
</trkpt>
<trkpt lat="-27.2744286" lon="151.2900916">
  <ele>342.96</ele>
  <time>2026-09-01T19:56:21Z</time>
  <course>11.23</course>
  <speed>0.022360679774997897</speed>
  <fix>3d</fix>
</trkpt>
<trkpt lat="-27.2744288" lon="151.2900917">
  <ele>343.1</ele>
  <time>2026-09-01T19:56:21Z</time>
  <course>287.77</course>
  <speed>0.0</speed>
  <fix>3d</fix>
</trkpt>
<trkpt lat="-27.2744286" lon="151.2900916">
  <ele>342.96</ele>
  <time>2026-09-01T19:56:21Z</time>
  <course>11.23</course>
  <speed>0.022360679774997897</speed>
  <fix>3d</fix>
</trkpt>
<trkpt lat="-27.2744288" lon="151.2900917">
  <ele>343.1</ele>
  <time>2026-09-01T19:56:21Z</time>
  <course>261.73</course>
  <speed>0.0</speed>
  <fix>3d</fix>
</trkpt>
<trkpt lat="-27.2744286" lon="151.2900916">
  <ele>342.96</ele>
  <time>2026-09-01T19:56:21Z</time>
  <course>11.23</course>
  <speed>0.022360679774997897</speed>
  <fix>3d</fix>
</trkpt>
<trkpt lat="-27.2744288" lon="151.2900917">
  <ele>343.1</ele>
  <time>2026-09-01T19:56:21Z</time>
  <course>261.73</course>
  <speed>0.0</speed>
  <fix>3d</fix>
</trkpt>
<trkpt lat="-27.2744286" lon="151.2900916">
  <ele>343.1</ele>
  <time>2026-09-01T19:56:21Z</time>
  <course>11.23</course>
  <speed>0.022360679774997897</speed>
  <fix>3d</fix>
</trkpt>
<trkpt lat="-27.2744288" lon="151.2900917">
  <ele>343.1</ele>
  <time>2026-09-01T19:56:21Z</time>
  <course>261.61</course>
  <speed>0.0</speed>
  <fix>3d</fix>
</trkpt>
<trkpt lat="-27.2744286" lon="151.2900916">
  <ele>343.09</ele>
  <time>2026-09-01T19:56:21Z</time>
  <course>11.23</course>
  <speed>0.022360679774997897</speed>
  <fix>3d</fix>
</trkpt>
<trkpt lat="-27.2744288" lon="151.2900917">
  <ele>343.1</ele>
  <time>2026-09-01T19:56:21Z</time>
  <course>261.61</course>
  <speed>0.0</speed>
  <fix>3d</fix>
</trkpt>
<trkpt lat="-27.2744286" lon="151.2900916">
  <ele>343.09</ele>
  <time>2026-09-01T19:56:21Z</time>
  <course>11.23</course>
  <speed>0.022360679774997897</speed>
  <fix>3d</fix>
</trkpt>
<trkpt lat="-27.2744288" lon="151.2900917">
  <ele>343.1</ele>
  <time>2026-09-01T19:56:21Z</time>
  <course>260.24</course>
  <speed>0.0</speed>
  <fix>3d</fix>
</trkpt>
<trkpt lat="-27.2744286" lon="151.2900916">
  <ele>343.09</ele>
  <time>2026-09-01T19:56:21Z</time>
  <course>11.23</course>
  <speed>0.022360679774997897</speed>
  <fix>3d</fix>
</trkpt>
<trkpt lat="-27.2744288" lon="151.2900917">
  <ele>343.1</ele>
  <time>2026-09-01T19:56:21Z</time>
  <course>260.24</course>
  <speed>0.0</speed>
  <fix>3d</fix>
</trkpt>
<trkpt lat="-27.2744286" lon="151.2900916">
  <ele>343.09</ele>
  <time>2026-09-01T19:56:21Z</time>
  <course>11.23</course>
  <speed>0.022360679774997897</speed>
  <fix>3d</fix>
</trkpt>
<trkpt lat="-27.2744288" lon="151.2900917">
  <ele>343.1</ele>
  <time>2026-09-01T19:56:21Z</time>
  <course>81.31</course>
  <speed>0.0</speed>
  <fix>3d</fix>
</trkpt>
<trkpt lat="-27.2744286" lon="151.2900916">
  <ele>343.09</ele>
  <time>2026-09-01T19:56:21Z</time>
  <course>11.23</course>
  <speed>0.022360679774997897</speed>
  <fix>3d</fix>
</trkpt>
<trkpt lat="-27.2744288" lon="151.2900917">
  <ele>343.1</ele>
  <time>2026-09-01T19:56:21Z</time>
  <course>81.31</course>
  <speed>0.0</speed>
  <fix>3d</fix>
</trkpt>
<trkpt lat="-27.2744286" lon="151.2900916">
  <ele>343.09</ele>
  <time>2026-09-01T19:56:21Z</time>
  <course>11.23</course>
  <speed>0.022360679774997897</speed>
  <fix>3d</fix>
</trkpt>
<trkpt lat="-27.2744288" lon="151.2900917">
  <ele>343.1</ele>
  <time>2026-09-01T19:56:21Z</time>
  <course>79.21</course>
  <speed>0.0</speed>
  <fix>3d</fix>
</trkpt>
<trkpt lat="-27.2744286" lon="151.2900916">
  <ele>343.09</ele>
  <time>2026-09-01T19:56:21Z</time>
  <course>11.23</course>
  <speed>0.022360679774997897</speed>
  <fix>3d</fix>
</trkpt>
<trkpt lat="-27.2744288" lon="151.2900917">
  <ele>343.1</ele>
  <time>2026-09-01T19:56:21Z</time>
  <course>79.21</course>
  <speed>0.0</speed>
  <fix>3d</fix>
</trkpt>
<trkpt lat="-27.2744286" lon="151.2900916">
  <ele>343.08</ele>
  <time>2026-09-01T19:56:21Z</time>
  <course>11.24</course>
  <speed>0.022360679774997897</speed>
  <fix>3d</fix>
</trkpt>
<trkpt lat="-27.2744288" lon="151.2900917">
  <ele>343.1</ele>
  <time>2026-09-01T19:56:21Z</time>
  <course>261.1</course>
  <speed>0.0</speed>
  <fix>3d</fix>
</trkpt>
<trkpt lat="-27.2744286" lon="151.2900916">
  <ele>343.08</ele>
  <time>2026-09-01T19:56:21Z</time>
  <course>11.24</course>
  <speed>0.022360679774997897</speed>
  <fix>3d</fix>
</trkpt>
<trkpt lat="-27.2744288" lon="151.2900917">
  <ele>343.1</ele>
  <time>2026-09-01T19:56:21Z</time>
  <course>261.1</course>
  <speed>0.0</speed>
  <fix>3d</fix>
</trkpt>
<trkpt lat="-27.2744286" lon="151.2900916">
  <ele>343.08</ele>
  <time>2026-09-01T19:56:21Z</time>
  <course>11.24</course>
  <speed>0.022360679774997897</speed>
  <fix>3d</fix>
</trkpt>
<trkpt lat="-27.2744288" lon="151.2900917">
  <ele>343.1</ele>
  <time>2026-09-01T19:56:21Z</time>
  <course>109.51</course>
  <speed>0.0</speed>
  <fix>3d</fix>
</trkpt>
<trkpt lat="-27.2744286" lon="151.2900916">
  <ele>343.08</ele>
  <time>2026-09-01T19:56:21Z</time>
  <course>11.24</course>
  <speed>0.022360679774997897</speed>
  <fix>3d</fix>
</trkpt>
<trkpt lat="-27.2744288" lon="151.2900917">
  <ele>343.1</ele>
  <time>2026-09-01T19:56:21Z</time>
  <course>109.51</course>
  <speed>0.0</speed>
  <fix>3d</fix>
</trkpt>
<trkpt lat="-27.2744286" lon="151.2900916">
  <ele>343.08</ele>
  <time>2026-09-01T19:56:21Z</time>
  <course>11.24</course>
  <speed>0.022360679774997897</speed>
  <fix>3d</fix>
</trkpt>
<trkpt lat="-27.2744288" lon="151.2900917">
  <ele>343.1</ele>
  <time>2026-09-01T19:56:21Z</time>
  <course>80.91</course>
  <speed>0.0</speed>
  <fix>3d</fix>
</trkpt>
<trkpt lat="-27.2744286" lon="151.2900916">
  <ele>343.07</ele>
  <time>2026-09-01T19:56:21Z</time>
  <course>11.24</course>
  <speed>0.022360679774997897</speed>
  <fix>3d</fix>
</trkpt>
<trkpt lat="-27.2744288" lon="151.2900917">
  <ele>343.1</ele>
  <time>2026-09-01T19:56:21Z</time>
  <course>80.91</course>
  <speed>0.0</speed>
  <fix>3d</fix>
</trkpt>
<trkpt lat="-27.2744286" lon="151.2900916">
  <ele>343.07</ele>
  <time>2026-09-01T19:56:21Z</time>
  <course>11.24</course>
  <speed>0.022360679774997897</speed>
  <fix>3d</fix>
</trkpt>
<trkpt lat="-27.2744288" lon="151.2900917">
  <ele>343.1</ele>
  <time>2026-09-01T19:56:21Z</time>
  <course>262.61</course>
  <speed>0.0</speed>
  <fix>3d</fix>
</trkpt>
<trkpt lat="-27.2744286" lon="151.2900916">
  <ele>343.07</ele>
  <time>2026-09-01T19:56:21Z</time>
  <course>11.24</course>
  <speed>0.022360679774997897</speed>
  <fix>3d</fix>
</trkpt>
<trkpt lat="-27.2744288" lon="151.2900917">
  <ele>343.1</ele>
  <time>2026-09-01T19:56:21Z</time>
  <course>262.61</course>
  <speed>0.0</speed>
  <fix>3d</fix>
</trkpt>
<trkpt lat="-27.2744286" lon="151.2900916">
  <ele>343.07</ele>
  <time>2026-09-01T19:56:21Z</time>
  <course>11.24</course>
  <speed>0.022360679774997897</speed>
  <fix>3d</fix>
</trkpt>
<trkpt lat="-27.2744288" lon="151.2900917">
  <ele>343.1</ele>
  <time>2026-09-01T19:56:21Z</time>
  <course>260.69</course>
  <speed>0.0</speed>
  <fix>3d</fix>
</trkpt>
<trkpt lat="-27.2744286" lon="151.2900916">
  <ele>343.07</ele>
  <time>2026-09-01T19:56:21Z</time>
  <course>11.24</course>
  <speed>0.022360679774997897</speed>
  <fix>3d</fix>
</trkpt>
<trkpt lat="-27.2744288" lon="151.2900917">
  <ele>343.1</ele>
  <time>2026-09-01T19:56:21Z</time>
  <course>260.69</course>
  <speed>0.0</speed>
  <fix>3d</fix>
</trkpt>
<trkpt lat="-27.2744286" lon="151.2900916">
  <ele>343.06</ele>
  <time>2026-09-01T19:56:21Z</time>
  <course>11.24</course>
  <speed>0.022360679774997897</speed>
  <fix>3d</fix>
</trkpt>
<trkpt lat="-27.2744288" lon="151.2900917">
  <ele>343.1</ele>
  <time>2026-09-01T19:56:21Z</time>
  <course>81.74</course>
  <speed>0.0</speed>
  <fix>3d</fix>
</trkpt>
<trkpt lat="-27.2744286" lon="151.2900916">
  <ele>343.06</ele>
  <time>2026-09-01T19:56:21Z</time>
  <course>11.24</course>
  <speed>0.022360679774997897</speed>
  <fix>3d</fix>
</trkpt>
<trkpt lat="-27.2744288" lon="151.2900917">
  <ele>343.1</ele>
  <time>2026-09-01T19:56:21Z</time>
  <course>81.74</course>
  <speed>0.0</speed>
  <fix>3d</fix>
</trkpt>
<trkpt lat="-27.2744286" lon="151.2900916">
  <ele>343.06</ele>
  <time>2026-09-01T19:56:21Z</time>
  <course>11.24</course>
  <speed>0.022360679774997897</speed>
  <fix>3d</fix>
</trkpt>
<trkpt lat="-27.2744288" lon="151.2900917">
  <ele>343.1</ele>
  <time>2026-09-01T19:56:21Z</time>
  <course>80.38</course>
  <speed>0.0</speed>
  <fix>3d</fix>
</trkpt>
<trkpt lat="-27.2744286" lon="151.2900916">
  <ele>343.06</ele>
  <time>2026-09-01T19:56:21Z</time>
  <course>11.25</course>
  <speed>0.022360679774997897</speed>
  <fix>3d</fix>
</trkpt>
<trkpt lat="-27.2744288" lon="151.2900917">
  <ele>343.1</ele>
  <time>2026-09-01T19:56:21Z</time>
  <course>80.38</course>
  <speed>0.0</speed>
  <fix>3d</fix>
</trkpt>
<trkpt lat="-27.2744286" lon="151.2900916">
  <ele>343.05</ele>
  <time>2026-09-01T19:56:21Z</time>
  <course>11.25</course>
  <speed>0.022360679774997897</speed>
  <fix>3d</fix>
</trkpt>
<trkpt lat="-27.2744288" lon="151.2900917">
  <ele>343.1</ele>
  <time>2026-09-01T19:56:21Z</time>
  <course>261.39</course>
  <speed>0.0</speed>
  <fix>3d</fix>
</trkpt>
<trkpt lat="-27.2744286" lon="151.2900916">
  <ele>343.05</ele>
  <time>2026-09-01T19:56:21Z</time>
  <course>11.25</course>
  <speed>0.022360679774997897</speed>
  <fix>3d</fix>
</trkpt>
<trkpt lat="-27.2744288" lon="151.2900917">
  <ele>343.1</ele>
  <time>2026-09-01T19:56:21Z</time>
  <course>261.39</course>
  <speed>0.0</speed>
  <fix>3d</fix>
</trkpt>
<trkpt lat="-27.2744286" lon="151.2900916">
  <ele>343.05</ele>
  <time>2026-09-01T19:56:21Z</time>
  <course>11.25</course>
  <speed>0.022360679774997897</speed>
  <fix>3d</fix>
</trkpt>
<trkpt lat="-27.2744288" lon="151.2900917">
  <ele>343.1</ele>
  <time>2026-09-01T19:56:21Z</time>
  <course>81.16</course>
  <speed>0.0</speed>
  <fix>3d</fix>
</trkpt>
<trkpt lat="-27.2744286" lon="151.2900916">
  <ele>343.05</ele>
  <time>2026-09-01T19:56:21Z</time>
  <course>11.25</course>
  <speed>0.022360679774997897</speed>
  <fix>3d</fix>
</trkpt>
<trkpt lat="-27.2744288" lon="151.2900917">
  <ele>343.1</ele>
  <time>2026-09-01T19:56:21Z</time>
  <course>260.97</course>
  <speed>0.0</speed>
  <fix>3d</fix>
</trkpt>
<trkpt lat="-27.2744286" lon="151.2900916">
  <ele>343.05</ele>
  <time>2026-09-01T19:56:21Z</time>
  <course>11.26</course>
  <speed>0.022360679774997897</speed>
  <fix>3d</fix>
</trkpt>
<trkpt lat="-27.2744288" lon="151.2900917">
  <ele>343.1</ele>
  <time>2026-09-01T19:56:21Z</time>
  <course>83.3</course>
  <speed>0.0</speed>
  <fix>3d</fix>
</trkpt>
<trkpt lat="-27.2744286" lon="151.2900916">
  <ele>343.04</ele>
  <time>2026-09-01T19:56:21Z</time>
  <course>11.26</course>
  <speed>0.022360679774997897</speed>
  <fix>3d</fix>
</trkpt>
<trkpt lat="-27.2744288" lon="151.2900917">
  <ele>343.1</ele>
  <time>2026-09-01T19:56:21Z</time>
  <course>83.3</course>
  <speed>0.0</speed>
  <fix>3d</fix>
</trkpt>
<trkpt lat="-27.2744286" lon="151.2900916">
  <ele>343.04</ele>
  <time>2026-09-01T19:56:21Z</time>
  <course>11.26</course>
  <speed>0.022360679774997897</speed>
  <fix>3d</fix>
</trkpt>
<trkpt lat="-27.2744288" lon="151.2900917">
  <ele>343.1</ele>
  <time>2026-09-01T19:56:21Z</time>
  <course>80.78</course>
  <speed>0.0</speed>
  <fix>3d</fix>
</trkpt>
<trkpt lat="-27.2744286" lon="151.2900916">
  <ele>343.04</ele>
  <time>2026-09-01T19:56:21Z</time>
  <course>11.26</course>
  <speed>0.022360679774997897</speed>
  <fix>3d</fix>
</trkpt>
<trkpt lat="-27.2744288" lon="151.2900917">
  <ele>343.1</ele>
  <time>2026-09-01T19:56:21Z</time>
  <course>80.78</course>
  <speed>0.0</speed>
  <fix>3d</fix>
</trkpt>
<trkpt lat="-27.2744286" lon="151.2900916">
  <ele>343.04</ele>
  <time>2026-09-01T19:56:21Z</time>
  <course>11.26</course>
  <speed>0.022360679774997897</speed>
  <fix>3d</fix>
</trkpt>
<trkpt lat="-27.2744288" lon="151.2900917">
  <ele>343.1</ele>
  <time>2026-09-01T19:56:21Z</time>
  <course>262.11</course>
  <speed>0.0</speed>
  <fix>3d</fix>
</trkpt>
<trkpt lat="-27.2744286" lon="151.2900916">
  <ele>343.03</ele>
  <time>2026-09-01T19:56:21Z</time>
  <course>11.26</course>
  <speed>0.022360679774997897</speed>
  <fix>3d</fix>
</trkpt>
<trkpt lat="-27.2744288" lon="151.2900917">
  <ele>343.1</ele>
  <time>2026-09-01T19:56:21Z</time>
  <course>262.11</course>
  <speed>0.0</speed>
  <fix>3d</fix>
</trkpt>
<trkpt lat="-27.2744286" lon="151.2900916">
  <ele>343.03</ele>
  <time>2026-09-01T19:56:21Z</time>
  <course>11.26</course>
  <speed>0.022360679774997897</speed>
  <fix>3d</fix>
</trkpt>
<trkpt lat="-27.2744288" lon="151.2900917">
  <ele>343.1</ele>
  <time>2026-09-01T19:56:21Z</time>
  <course>260.98</course>
  <speed>0.0</speed>
  <fix>3d</fix>
</trkpt>
<trkpt lat="-27.2744286" lon="151.2900916">
  <ele>343.03</ele>
  <time>2026-09-01T19:56:21Z</time>
  <course>11.26</course>
  <speed>0.022360679774997897</speed>
  <fix>3d</fix>
</trkpt>
<trkpt lat="-27.2744288" lon="151.2900917">
  <ele>343.1</ele>
  <time>2026-09-01T19:56:21Z</time>
  <course>260.98</course>
  <speed>0.0</speed>
  <fix>3d</fix>
</trkpt>
<trkpt lat="-27.2744286" lon="151.2900916">
  <ele>343.03</ele>
  <time>2026-09-01T19:56:21Z</time>
  <course>11.27</course>
  <speed>0.022360679774997897</speed>
  <fix>3d</fix>
</trkpt>
<trkpt lat="-27.2744288" lon="151.2900917">
  <ele>343.1</ele>
  <time>2026-09-01T19:56:21Z</time>
  <course>79.44</course>
  <speed>0.0</speed>
  <fix>3d</fix>
</trkpt>
<trkpt lat="-27.2744286" lon="151.2900916">
  <ele>343.03</ele>
  <time>2026-09-01T19:56:21Z</time>
  <course>11.27</course>
  <speed>0.022360679774997897</speed>
  <fix>3d</fix>
</trkpt>
<trkpt lat="-27.2744288" lon="151.2900917">
  <ele>343.1</ele>
  <time>2026-09-01T19:56:21Z</time>
  <course>79.44</course>
  <speed>0.0</speed>
  <fix>3d</fix>
</trkpt>
<trkpt lat="-27.2744286" lon="151.2900916">
  <ele>343.03</ele>
  <time>2026-09-01T19:56:21Z</time>
  <course>11.27</course>
  <speed>0.022360679774997897</speed>
  <fix>3d</fix>
</trkpt>
<trkpt lat="-27.2744288" lon="151.2900917">
  <ele>343.1</ele>
  <time>2026-09-01T19:56:21Z</time>
  <course>51.08</course>
  <speed>0.0</speed>
  <fix>3d</fix>
</trkpt>
<trkpt lat="-27.2744286" lon="151.2900916">
  <ele>343.03</ele>
  <time>2026-09-01T19:56:21Z</time>
  <course>11.27</course>
  <speed>0.022360679774997897</speed>
  <fix>3d</fix>
</trkpt>
<trkpt lat="-27.2744288" lon="151.2900917">
  <ele>343.1</ele>
  <time>2026-09-01T19:56:21Z</time>
  <course>51.08</course>
  <speed>0.0</speed>
  <fix>3d</fix>
</trkpt>
<trkpt lat="-27.2744286" lon="151.2900916">
  <ele>343.03</ele>
  <time>2026-09-01T19:56:21Z</time>
  <course>11.27</course>
  <speed>0.022360679774997897</speed>
  <fix>3d</fix>
</trkpt>
<trkpt lat="-27.2744288" lon="151.2900917">
  <ele>343.1</ele>
  <time>2026-09-01T19:56:21Z</time>
  <course>302.18</course>
  <speed>0.0</speed>
  <fix>3d</fix>
</trkpt>
<trkpt lat="-27.2744286" lon="151.2900916">
  <ele>343.03</ele>
  <time>2026-09-01T19:56:21Z</time>
  <course>11.27</course>
  <speed>0.022360679774997897</speed>
  <fix>3d</fix>
</trkpt>
<trkpt lat="-27.2744288" lon="151.2900917">
  <ele>343.1</ele>
  <time>2026-09-01T19:56:21Z</time>
  <course>302.18</course>
  <speed>0.0</speed>
  <fix>3d</fix>
</trkpt>
<trkpt lat="-27.2744286" lon="151.2900916">
  <ele>343.03</ele>
  <time>2026-09-01T19:56:21Z</time>
  <course>11.27</course>
  <speed>0.022360679774997897</speed>
  <fix>3d</fix>
</trkpt>
<trkpt lat="-27.2744288" lon="151.2900917">
  <ele>343.1</ele>
  <time>2026-09-01T19:56:21Z</time>
  <course>315.68</course>
  <speed>0.0</speed>
  <fix>3d</fix>
</trkpt>
<trkpt lat="-27.2744286" lon="151.2900916">
  <ele>343.03</ele>
  <time>2026-09-01T19:56:21Z</time>
  <course>11.28</course>
  <speed>0.022360679774997897</speed>
  <fix>3d</fix>
</trkpt>
<trkpt lat="-27.2744288" lon="151.2900917">
  <ele>343.1</ele>
  <time>2026-09-01T19:56:21Z</time>
  <course>315.68</course>
  <speed>0.0</speed>
  <fix>3d</fix>
</trkpt>
<trkpt lat="-27.2744286" lon="151.2900916">
  <ele>343.03</ele>
  <time>2026-09-01T19:56:21Z</time>
  <course>11.28</course>
  <speed>0.022360679774997897</speed>
  <fix>3d</fix>
</trkpt>
<trkpt lat="-27.2744288" lon="151.2900917">
  <ele>343.1</ele>
  <time>2026-09-01T19:56:21Z</time>
  <course>319.55</course>
  <speed>0.0</speed>
  <fix>3d</fix>
</trkpt>
<trkpt lat="-27.2744286" lon="151.2900916">
  <ele>343.03</ele>
  <time>2026-09-01T19:56:21Z</time>
  <course>11.28</course>
  <speed>0.022360679774997897</speed>
  <fix>3d</fix>
</trkpt>
<trkpt lat="-27.2744288" lon="151.2900917">
  <ele>343.1</ele>
  <time>2026-09-01T19:56:21Z</time>
  <course>319.55</course>
  <speed>0.0</speed>
  <fix>3d</fix>
</trkpt>
<trkpt lat="-27.2744286" lon="151.2900916">
  <ele>343.03</ele>
  <time>2026-09-01T19:56:21Z</time>
  <course>11.28</course>
  <speed>0.022360679774997897</speed>
  <fix>3d</fix>
</trkpt>
<trkpt lat="-27.2744288" lon="151.2900917">
  <ele>343.1</ele>
  <time>2026-09-01T19:56:21Z</time>
  <course>320.1</course>
  <speed>0.0</speed>
  <fix>3d</fix>
</trkpt>
<trkpt lat="-27.2744286" lon="151.2900916">
  <ele>343.03</ele>
  <time>2026-09-01T19:56:21Z</time>
  <course>11.28</course>
  <speed>0.022360679774997897</speed>
  <fix>3d</fix>
</trkpt>
<trkpt lat="-27.2744288" lon="151.2900917">
  <ele>343.1</ele>
  <time>2026-09-01T19:56:21Z</time>
  <course>320.1</course>
  <speed>0.0</speed>
  <fix>3d</fix>
</trkpt>
<trkpt lat="-27.2744286" lon="151.2900916">
  <ele>343.03</ele>
  <time>2026-09-01T19:56:21Z</time>
  <course>11.29</course>
  <speed>0.022360679774997897</speed>
  <fix>3d</fix>
</trkpt>
<trkpt lat="-27.2744288" lon="151.2900917">
  <ele>343.1</ele>
  <time>2026-09-01T19:56:21Z</time>
  <course>320.18</course>
  <speed>0.0</speed>
  <fix>3d</fix>
</trkpt>
<trkpt lat="-27.2744286" lon="151.2900916">
  <ele>343.03</ele>
  <time>2026-09-01T19:56:21Z</time>
  <course>11.29</course>
  <speed>0.022360679774997897</speed>
  <fix>3d</fix>
</trkpt>
<trkpt lat="-27.2744288" lon="151.2900917">
  <ele>343.1</ele>
  <time>2026-09-01T19:56:21Z</time>
  <course>320.18</course>
  <speed>0.0</speed>
  <fix>3d</fix>
</trkpt>
<trkpt lat="-27.2744286" lon="151.2900916">
  <ele>343.03</ele>
  <time>2026-09-01T19:56:21Z</time>
  <course>11.29</course>
  <speed>0.022360679774997897</speed>
  <fix>3d</fix>
</trkpt>
<trkpt lat="-27.2744288" lon="151.2900917">
  <ele>343.1</ele>
  <time>2026-09-01T19:56:21Z</time>
  <course>320.19</course>
  <speed>0.0</speed>
  <fix>3d</fix>
</trkpt>
<trkpt lat="-27.2744286" lon="151.2900916">
  <ele>343.03</ele>
  <time>2026-09-01T19:56:21Z</time>
  <course>11.29</course>
  <speed>0.022360679774997897</speed>
  <fix>3d</fix>
</trkpt>
<trkpt lat="-27.2744288" lon="151.2900917">
  <ele>343.1</ele>
  <time>2026-09-01T19:56:21Z</time>
  <course>320.19</course>
  <speed>0.0</speed>
  <fix>3d</fix>
</trkpt>
<trkpt lat="-27.2744286" lon="151.2900916">
  <ele>343.03</ele>
  <time>2026-09-01T19:56:21Z</time>
  <course>11.29</course>
  <speed>0.022360679774997897</speed>
  <fix>3d</fix>
</trkpt>
<trkpt lat="-27.2744288" lon="151.2900917">
  <ele>343.1</ele>
  <time>2026-09-01T19:56:21Z</time>
  <course>320.19</course>
  <speed>0.0</speed>
  <fix>3d</fix>
</trkpt>
<trkpt lat="-27.2744286" lon="151.2900916">
  <ele>343.03</ele>
  <time>2026-09-01T19:56:21Z</time>
  <course>11.29</course>
  <speed>0.022360679774997897</speed>
  <fix>3d</fix>
</trkpt>
<trkpt lat="-27.2744288" lon="151.2900917">
  <ele>343.1</ele>
  <time>2026-09-01T19:56:21Z</time>
  <course>320.19</course>
  <speed>0.0</speed>
  <fix>3d</fix>
</trkpt>
<trkpt lat="-27.2744286" lon="151.2900916">
  <ele>343.03</ele>
  <time>2026-09-01T19:56:22Z</time>
  <course>11.3</course>
  <speed>0.022360679774997897</speed>
  <fix>3d</fix>
</trkpt>
<trkpt lat="-27.2744288" lon="151.2900917">
  <ele>343.1</ele>
  <time>2026-09-01T19:56:22Z</time>
  <course>320.19</course>
  <speed>0.0</speed>
  <fix>3d</fix>
</trkpt>
<trkpt lat="-27.2744286" lon="151.2900916">
  <ele>343.03</ele>
  <time>2026-09-01T19:56:22Z</time>
  <course>11.3</course>
  <speed>0.022360679774997897</speed>
  <fix>3d</fix>
</trkpt>
<trkpt lat="-27.2744288" lon="151.2900917">
  <ele>343.1</ele>
  <time>2026-09-01T19:56:22Z</time>
  <course>320.19</course>
  <speed>0.0</speed>
  <fix>3d</fix>
</trkpt>
<trkpt lat="-27.2744286" lon="151.2900916">
  <ele>343.09</ele>
  <time>2026-09-01T19:56:22Z</time>
  <course>11.3</course>
  <speed>0.022360679774997897</speed>
  <fix>3d</fix>
</trkpt>
<trkpt lat="-27.2744288" lon="151.2900917">
  <ele>343.1</ele>
  <time>2026-09-01T19:56:22Z</time>
  <course>320.19</course>
  <speed>0.0</speed>
  <fix>3d</fix>
</trkpt>
<trkpt lat="-27.2744286" lon="151.2900916">
  <ele>343.09</ele>
  <time>2026-09-01T19:56:22Z</time>
  <course>11.3</course>
  <speed>0.022360679774997897</speed>
  <fix>3d</fix>
</trkpt>
<trkpt lat="-27.2744288" lon="151.2900917">
  <ele>343.1</ele>
  <time>2026-09-01T19:56:22Z</time>
  <course>320.19</course>
  <speed>0.0</speed>
  <fix>3d</fix>
</trkpt>
<trkpt lat="-27.2744286" lon="151.2900916">
  <ele>343.09</ele>
  <time>2026-09-01T19:56:22Z</time>
  <course>11.31</course>
  <speed>0.022360679774997897</speed>
  <fix>3d</fix>
</trkpt>
<trkpt lat="-27.2744288" lon="151.2900917">
  <ele>343.1</ele>
  <time>2026-09-01T19:56:22Z</time>
  <course>320.19</course>
  <speed>0.0</speed>
  <fix>3d</fix>
</trkpt>
<trkpt lat="-27.2744286" lon="151.2900916">
  <ele>343.09</ele>
  <time>2026-09-01T19:56:22Z</time>
  <course>11.31</course>
  <speed>0.022360679774997897</speed>
  <fix>3d</fix>
</trkpt>
<trkpt lat="-27.2744288" lon="151.2900917">
  <ele>343.1</ele>
  <time>2026-09-01T19:56:22Z</time>
  <course>320.19</course>
  <speed>0.0</speed>
  <fix>3d</fix>
</trkpt>
<trkpt lat="-27.2744286" lon="151.2900916">
  <ele>343.09</ele>
  <time>2026-09-01T19:56:22Z</time>
  <course>11.31</course>
  <speed>0.022360679774997897</speed>
  <fix>3d</fix>
</trkpt>
<trkpt lat="-27.2744288" lon="151.2900917">
  <ele>343.1</ele>
  <time>2026-09-01T19:56:22Z</time>
  <course>320.19</course>
  <speed>0.0</speed>
  <fix>3d</fix>
</trkpt>
<trkpt lat="-27.2744286" lon="151.2900916">
  <ele>343.09</ele>
  <time>2026-09-01T19:56:22Z</time>
  <course>11.31</course>
  <speed>0.022360679774997897</speed>
  <fix>3d</fix>
</trkpt>
<trkpt lat="-27.2744288" lon="151.2900917">
  <ele>343.1</ele>
  <time>2026-09-01T19:56:22Z</time>
  <course>320.19</course>
  <speed>0.0</speed>
  <fix>3d</fix>
</trkpt>
<trkpt lat="-27.2744286" lon="151.2900916">
  <ele>343.09</ele>
  <time>2026-09-01T19:56:22Z</time>
  <course>11.31</course>
  <speed>0.022360679774997897</speed>
  <fix>3d</fix>
</trkpt>
<trkpt lat="-27.2744288" lon="151.2900917">
  <ele>343.1</ele>
  <time>2026-09-01T19:56:22Z</time>
  <course>320.19</course>
  <speed>0.0</speed>
  <fix>3d</fix>
</trkpt>
<trkpt lat="-27.2744286" lon="151.2900916">
  <ele>343.1</ele>
  <time>2026-09-01T19:56:22Z</time>
  <course>11.32</course>
  <speed>0.022360679774997897</speed>
  <fix>3d</fix>
</trkpt>
<trkpt lat="-27.2744288" lon="151.2900917">
  <ele>343.1</ele>
  <time>2026-09-01T19:56:22Z</time>
  <course>320.19</course>
  <speed>0.0</speed>
  <fix>3d</fix>
</trkpt>
<trkpt lat="-27.2744286" lon="151.2900916">
  <ele>343.1</ele>
  <time>2026-09-01T19:56:22Z</time>
  <course>11.32</course>
  <speed>0.022360679774997897</speed>
  <fix>3d</fix>
</trkpt>
<trkpt lat="-27.2744288" lon="151.2900917">
  <ele>343.1</ele>
  <time>2026-09-01T19:56:22Z</time>
  <course>320.19</course>
  <speed>0.0</speed>
  <fix>3d</fix>
</trkpt>
<trkpt lat="-27.2744286" lon="151.2900916">
  <ele>343.1</ele>
  <time>2026-09-01T19:56:22Z</time>
  <course>11.32</course>
  <speed>0.022360679774997897</speed>
  <fix>3d</fix>
</trkpt>
<trkpt lat="-27.2744288" lon="151.2900917">
  <ele>343.1</ele>
  <time>2026-09-01T19:56:22Z</time>
  <course>320.19</course>
  <speed>0.0</speed>
  <fix>3d</fix>
</trkpt>
<trkpt lat="-27.2744286" lon="151.2900916">
  <ele>343.1</ele>
  <time>2026-09-01T19:56:22Z</time>
  <course>11.32</course>
  <speed>0.022360679774997897</speed>
  <fix>3d</fix>
</trkpt>
<trkpt lat="-27.2744288" lon="151.2900917">
  <ele>343.1</ele>
  <time>2026-09-01T19:56:22Z</time>
  <course>320.19</course>
  <speed>0.0</speed>
  <fix>3d</fix>
</trkpt>
<trkpt lat="-27.2744286" lon="151.2900916">
  <ele>343.1</ele>
  <time>2026-09-01T19:56:22Z</time>
  <course>11.33</course>
  <speed>0.022360679774997897</speed>
  <fix>3d</fix>
</trkpt>
<trkpt lat="-27.2744288" lon="151.2900917">
  <ele>343.1</ele>
  <time>2026-09-01T19:56:22Z</time>
  <course>320.19</course>
  <speed>0.0</speed>
  <fix>3d</fix>
</trkpt>
<trkpt lat="-27.2744286" lon="151.2900916">
  <ele>343.1</ele>
  <time>2026-09-01T19:56:22Z</time>
  <course>11.33</course>
  <speed>0.022360679774997897</speed>
  <fix>3d</fix>
</trkpt>
<trkpt lat="-27.2744288" lon="151.2900917">
  <ele>343.1</ele>
  <time>2026-09-01T19:56:22Z</time>
  <course>320.19</course>
  <speed>0.0</speed>
  <fix>3d</fix>
</trkpt>
<trkpt lat="-27.2744286" lon="151.2900916">
  <ele>343.1</ele>
  <time>2026-09-01T19:56:22Z</time>
  <course>11.33</course>
  <speed>0.022360679774997897</speed>
  <fix>3d</fix>
</trkpt>
<trkpt lat="-27.2744288" lon="151.2900917">
  <ele>343.1</ele>
  <time>2026-09-01T19:56:22Z</time>
  <course>320.19</course>
  <speed>0.0</speed>
  <fix>3d</fix>
</trkpt>
<trkpt lat="-27.2744286" lon="151.2900916">
  <ele>343.1</ele>
  <time>2026-09-01T19:56:22Z</time>
  <course>11.33</course>
  <speed>0.022360679774997897</speed>
  <fix>3d</fix>
</trkpt>
<trkpt lat="-27.2744288" lon="151.2900917">
  <ele>343.1</ele>
  <time>2026-09-01T19:56:22Z</time>
  <course>320.19</course>
  <speed>0.0</speed>
  <fix>3d</fix>
</trkpt>
<trkpt lat="-27.2744286" lon="151.2900916">
  <ele>343.09</ele>
  <time>2026-09-01T19:56:22Z</time>
  <course>11.34</course>
  <speed>0.022360679774997897</speed>
  <fix>3d</fix>
</trkpt>
<trkpt lat="-27.2744288" lon="151.2900917">
  <ele>343.1</ele>
  <time>2026-09-01T19:56:22Z</time>
  <course>320.19</course>
  <speed>0.0</speed>
  <fix>3d</fix>
</trkpt>
<trkpt lat="-27.2744286" lon="151.2900916">
  <ele>343.09</ele>
  <time>2026-09-01T19:56:22Z</time>
  <course>11.34</course>
  <speed>0.022360679774997897</speed>
  <fix>3d</fix>
</trkpt>
<trkpt lat="-27.2744288" lon="151.2900917">
  <ele>343.1</ele>
  <time>2026-09-01T19:56:22Z</time>
  <course>320.19</course>
  <speed>0.0</speed>
  <fix>3d</fix>
</trkpt>
<trkpt lat="-27.2744286" lon="151.2900916">
  <ele>343.09</ele>
  <time>2026-09-01T19:56:22Z</time>
  <course>11.34</course>
  <speed>0.022360679774997897</speed>
  <fix>3d</fix>
</trkpt>
<trkpt lat="-27.2744288" lon="151.2900917">
  <ele>343.1</ele>
  <time>2026-09-01T19:56:22Z</time>
  <course>320.19</course>
  <speed>0.0</speed>
  <fix>3d</fix>
</trkpt>
<trkpt lat="-27.2744286" lon="151.2900916">
  <ele>343.09</ele>
  <time>2026-09-01T19:56:22Z</time>
  <course>11.34</course>
  <speed>0.022360679774997897</speed>
  <fix>3d</fix>
</trkpt>
<trkpt lat="-27.2744288" lon="151.2900917">
  <ele>343.1</ele>
  <time>2026-09-01T19:56:22Z</time>
  <course>320.19</course>
  <speed>0.0</speed>
  <fix>3d</fix>
</trkpt>
<trkpt lat="-27.2744286" lon="151.2900916">
  <ele>343.08</ele>
  <time>2026-09-01T19:56:22Z</time>
  <course>11.35</course>
  <speed>0.022360679774997897</speed>
  <fix>3d</fix>
</trkpt>
<trkpt lat="-27.2744288" lon="151.2900917">
  <ele>343.1</ele>
  <time>2026-09-01T19:56:22Z</time>
  <course>320.19</course>
  <speed>0.0</speed>
  <fix>3d</fix>
</trkpt>
<trkpt lat="-27.2744286" lon="151.2900916">
  <ele>343.08</ele>
  <time>2026-09-01T19:56:22Z</time>
  <course>11.35</course>
  <speed>0.022360679774997897</speed>
  <fix>3d</fix>
</trkpt>
<trkpt lat="-27.2744288" lon="151.2900917">
  <ele>343.1</ele>
  <time>2026-09-01T19:56:22Z</time>
  <course>320.19</course>
  <speed>0.0</speed>
  <fix>3d</fix>
</trkpt>
<trkpt lat="-27.2744286" lon="151.2900916">
  <ele>343.08</ele>
  <time>2026-09-01T19:56:22Z</time>
  <course>11.35</course>
  <speed>0.022360679774997897</speed>
  <fix>3d</fix>
</trkpt>
<trkpt lat="-27.2744288" lon="151.2900917">
  <ele>343.1</ele>
  <time>2026-09-01T19:56:22Z</time>
  <course>320.19</course>
  <speed>0.0</speed>
  <fix>3d</fix>
</trkpt>
<trkpt lat="-27.2744286" lon="151.2900916">
  <ele>343.08</ele>
  <time>2026-09-01T19:56:22Z</time>
  <course>11.36</course>
  <speed>0.022360679774997897</speed>
  <fix>3d</fix>
</trkpt>
<trkpt lat="-27.2744288" lon="151.2900917">
  <ele>343.1</ele>
  <time>2026-09-01T19:56:22Z</time>
  <course>320.19</course>
  <speed>0.0</speed>
  <fix>3d</fix>
</trkpt>
<trkpt lat="-27.2744286" lon="151.2900916">
  <ele>343.08</ele>
  <time>2026-09-01T19:56:22Z</time>
  <course>11.36</course>
  <speed>0.022360679774997897</speed>
  <fix>3d</fix>
</trkpt>
<trkpt lat="-27.2744288" lon="151.2900917">
  <ele>343.1</ele>
  <time>2026-09-01T19:56:22Z</time>
  <course>320.19</course>
  <speed>0.0</speed>
  <fix>3d</fix>
</trkpt>
<trkpt lat="-27.2744286" lon="151.2900916">
  <ele>343.08</ele>
  <time>2026-09-01T19:56:22Z</time>
  <course>11.36</course>
  <speed>0.022360679774997897</speed>
  <fix>3d</fix>
</trkpt>
<trkpt lat="-27.2744288" lon="151.2900917">
  <ele>343.1</ele>
  <time>2026-09-01T19:56:22Z</time>
  <course>320.19</course>
  <speed>0.0</speed>
  <fix>3d</fix>
</trkpt>
<trkpt lat="-27.2744286" lon="151.2900916">
  <ele>343.08</ele>
  <time>2026-09-01T19:56:22Z</time>
  <course>11.36</course>
  <speed>0.022360679774997897</speed>
  <fix>3d</fix>
</trkpt>
<trkpt lat="-27.2744288" lon="151.2900917">
  <ele>343.1</ele>
  <time>2026-09-01T19:56:22Z</time>
  <course>320.19</course>
  <speed>0.0</speed>
  <fix>3d</fix>
</trkpt>
<trkpt lat="-27.2744286" lon="151.2900916">
  <ele>343.08</ele>
  <time>2026-09-01T19:56:22Z</time>
  <course>11.37</course>
  <speed>0.022360679774997897</speed>
  <fix>3d</fix>
</trkpt>
<trkpt lat="-27.2744288" lon="151.2900917">
  <ele>343.1</ele>
  <time>2026-09-01T19:56:22Z</time>
  <course>320.19</course>
  <speed>0.0</speed>
  <fix>3d</fix>
</trkpt>
<trkpt lat="-27.2744286" lon="151.2900916">
  <ele>343.08</ele>
  <time>2026-09-01T19:56:22Z</time>
  <course>11.37</course>
  <speed>0.022360679774997897</speed>
  <fix>3d</fix>
</trkpt>
<trkpt lat="-27.2744288" lon="151.2900917">
  <ele>343.1</ele>
  <time>2026-09-01T19:56:22Z</time>
  <course>320.19</course>
  <speed>0.0</speed>
  <fix>3d</fix>
</trkpt>
<trkpt lat="-27.2744286" lon="151.2900916">
  <ele>343.08</ele>
  <time>2026-09-01T19:56:22Z</time>
  <course>11.37</course>
  <speed>0.022360679774997897</speed>
  <fix>3d</fix>
</trkpt>
<trkpt lat="-27.2744288" lon="151.2900917">
  <ele>343.1</ele>
  <time>2026-09-01T19:56:22Z</time>
  <course>320.19</course>
  <speed>0.0</speed>
  <fix>3d</fix>
</trkpt>
<trkpt lat="-27.2744286" lon="151.2900916">
  <ele>343.08</ele>
  <time>2026-09-01T19:56:22Z</time>
  <course>11.38</course>
  <speed>0.022360679774997897</speed>
  <fix>3d</fix>
</trkpt>
<trkpt lat="-27.2744288" lon="151.2900917">
  <ele>343.1</ele>
  <time>2026-09-01T19:56:22Z</time>
  <course>320.19</course>
  <speed>0.0</speed>
  <fix>3d</fix>
</trkpt>
<trkpt lat="-27.2744286" lon="151.2900916">
  <ele>343.07</ele>
  <time>2026-09-01T19:56:22Z</time>
  <course>11.38</course>
  <speed>0.022360679774997897</speed>
  <fix>3d</fix>
</trkpt>
<trkpt lat="-27.2744288" lon="151.2900917">
  <ele>343.1</ele>
  <time>2026-09-01T19:56:22Z</time>
  <course>320.19</course>
  <speed>0.0</speed>
  <fix>3d</fix>
</trkpt>
<trkpt lat="-27.2744286" lon="151.2900916">
  <ele>343.07</ele>
  <time>2026-09-01T19:56:22Z</time>
  <course>11.38</course>
  <speed>0.022360679774997897</speed>
  <fix>3d</fix>
</trkpt>
<trkpt lat="-27.2744288" lon="151.2900917">
  <ele>343.1</ele>
  <time>2026-09-01T19:56:22Z</time>
  <course>320.19</course>
  <speed>0.0</speed>
  <fix>3d</fix>
</trkpt>
<trkpt lat="-27.2744286" lon="151.2900916">
  <ele>343.07</ele>
  <time>2026-09-01T19:56:22Z</time>
  <course>11.39</course>
  <speed>0.022360679774997897</speed>
  <fix>3d</fix>
</trkpt>
<trkpt lat="-27.2744288" lon="151.2900917">
  <ele>343.1</ele>
  <time>2026-09-01T19:56:22Z</time>
  <course>320.19</course>
  <speed>0.0</speed>
  <fix>3d</fix>
</trkpt>
<trkpt lat="-27.2744286" lon="151.2900916">
  <ele>343.07</ele>
  <time>2026-09-01T19:56:22Z</time>
  <course>11.39</course>
  <speed>0.022360679774997897</speed>
  <fix>3d</fix>
</trkpt>
<trkpt lat="-27.2744288" lon="151.2900917">
  <ele>343.1</ele>
  <time>2026-09-01T19:56:22Z</time>
  <course>320.19</course>
  <speed>0.0</speed>
  <fix>3d</fix>
</trkpt>
<trkpt lat="-27.2744286" lon="151.2900916">
  <ele>343.07</ele>
  <time>2026-09-01T19:56:22Z</time>
  <course>11.39</course>
  <speed>0.022360679774997897</speed>
  <fix>3d</fix>
</trkpt>
<trkpt lat="-27.2744288" lon="151.2900917">
  <ele>343.1</ele>
  <time>2026-09-01T19:56:22Z</time>
  <course>320.19</course>
  <speed>0.0</speed>
  <fix>3d</fix>
</trkpt>
<trkpt lat="-27.2744286" lon="151.2900916">
  <ele>343.07</ele>
  <time>2026-09-01T19:56:22Z</time>
  <course>11.4</course>
  <speed>0.022360679774997897</speed>
  <fix>3d</fix>
</trkpt>
<trkpt lat="-27.2744288" lon="151.2900917">
  <ele>343.1</ele>
  <time>2026-09-01T19:56:22Z</time>
  <course>320.19</course>
  <speed>0.0</speed>
  <fix>3d</fix>
</trkpt>
<trkpt lat="-27.2744286" lon="151.2900916">
  <ele>343.07</ele>
  <time>2026-09-01T19:56:22Z</time>
  <course>11.4</course>
  <speed>0.022360679774997897</speed>
  <fix>3d</fix>
</trkpt>
<trkpt lat="-27.2744288" lon="151.2900917">
  <ele>343.1</ele>
  <time>2026-09-01T19:56:22Z</time>
  <course>320.19</course>
  <speed>0.0</speed>
  <fix>3d</fix>
</trkpt>
<trkpt lat="-26.9720619" lon="149.6127921">
  <ele>339.29</ele>
  <time>2026-09-01T19:56:22Z</time>
  <course>310.27</course>
  <speed>0.0</speed>
  <fix>3d</fix>
</trkpt>
<trkpt lat="-26.9720619" lon="149.6127921">
  <ele>339.29</ele>
  <time>2026-09-01T19:56:22Z</time>
  <course>310.27</course>
  <speed>0.0</speed>
  <fix>3d</fix>
</trkpt>
<trkpt lat="-27.274439" lon="151.290064">
  <ele>-0.01</ele>
  <time>2026-09-01T19:56:22Z</time>
  <course>0.22</course>
  <speed>0.0</speed>
  <fix>3d</fix>
</trkpt>
<trkpt lat="-27.274439" lon="151.290064">
  <ele>343.1</ele>
  <time>2026-09-01T19:56:22Z</time>
  <course>294.58</course>
  <speed>0.0</speed>
  <fix>3d</fix>
</trkpt>
<trkpt lat="-27.274439" lon="151.290064">
  <ele>0.02</ele>
  <time>2026-09-01T19:56:22Z</time>
  <course>1.2</course>
  <speed>0.0</speed>
  <fix>3d</fix>
</trkpt>
<trkpt lat="-27.274439" lon="151.290064">
  <ele>343.1</ele>
  <time>2026-09-01T19:56:22Z</time>
  <course>294.58</course>
  <speed>0.0</speed>
  <fix>3d</fix>
</trkpt>
<trkpt lat="-27.274439" lon="151.290064">
  <ele>-0.08</ele>
  <time>2026-09-01T19:56:22Z</time>
  <course>2.1</course>
  <speed>0.0</speed>
  <fix>3d</fix>
</trkpt>
<trkpt lat="-27.274439" lon="151.290064">
  <ele>343.1</ele>
  <time>2026-09-01T19:56:22Z</time>
  <course>273.33</course>
  <speed>0.0</speed>
  <fix>3d</fix>
</trkpt>
<trkpt lat="-27.274439" lon="151.290064">
  <ele>0.22</ele>
  <time>2026-09-01T19:56:22Z</time>
  <course>2.92</course>
  <speed>0.0</speed>
  <fix>3d</fix>
</trkpt>
<trkpt lat="-27.274439" lon="151.290064">
  <ele>343.1</ele>
  <time>2026-09-01T19:56:22Z</time>
  <course>273.33</course>
  <speed>0.0</speed>
  <fix>3d</fix>
</trkpt>
<trkpt lat="-27.274439" lon="151.290064">
  <ele>0.09</ele>
  <time>2026-09-01T19:56:22Z</time>
  <course>3.66</course>
  <speed>0.0</speed>
  <fix>3d</fix>
</trkpt>
<trkpt lat="-27.274439" lon="151.290064">
  <ele>343.1</ele>
  <time>2026-09-01T19:56:22Z</time>
  <course>270.44</course>
  <speed>0.0</speed>
  <fix>3d</fix>
</trkpt>
<trkpt lat="-27.274439" lon="151.290064">
  <ele>0.08</ele>
  <time>2026-09-01T19:56:22Z</time>
  <course>4.34</course>
  <speed>0.0</speed>
  <fix>3d</fix>
</trkpt>
<trkpt lat="-27.274439" lon="151.290064">
  <ele>343.1</ele>
  <time>2026-09-01T19:56:22Z</time>
  <course>270.44</course>
  <speed>0.0</speed>
  <fix>3d</fix>
</trkpt>
<trkpt lat="-27.274439" lon="151.290064">
  <ele>0.09</ele>
  <time>2026-09-01T19:56:22Z</time>
  <course>4.95</course>
  <speed>0.0</speed>
  <fix>3d</fix>
</trkpt>
<trkpt lat="-27.274439" lon="151.290064">
  <ele>343.1</ele>
  <time>2026-09-01T19:56:22Z</time>
  <course>270.05</course>
  <speed>0.0</speed>
  <fix>3d</fix>
</trkpt>
<trkpt lat="-27.274439" lon="151.290064">
  <ele>-0.05</ele>
  <time>2026-09-01T19:56:22Z</time>
  <course>5.5</course>
  <speed>0.0</speed>
  <fix>3d</fix>
</trkpt>
<trkpt lat="-27.274439" lon="151.290064">
  <ele>343.1</ele>
  <time>2026-09-01T19:56:22Z</time>
  <course>270.05</course>
  <speed>0.0</speed>
  <fix>3d</fix>
</trkpt>
<trkpt lat="-27.274439" lon="151.290064">
  <ele>343.06</ele>
  <time>2026-09-01T19:56:22Z</time>
  <course>5.98</course>
  <speed>0.0</speed>
  <fix>3d</fix>
</trkpt>
<trkpt lat="-27.274439" lon="151.290064">
  <ele>343.1</ele>
  <time>2026-09-01T19:56:22Z</time>
  <course>270.0</course>
  <speed>0.0</speed>
  <fix>3d</fix>
</trkpt>
<trkpt lat="-27.274439" lon="151.290064">
  <ele>343.18</ele>
  <time>2026-09-01T19:56:22Z</time>
  <course>6.44</course>
  <speed>0.0</speed>
  <fix>3d</fix>
</trkpt>
<trkpt lat="-27.274439" lon="151.290064">
  <ele>343.1</ele>
  <time>2026-09-01T19:56:22Z</time>
  <course>270.0</course>
  <speed>0.0</speed>
  <fix>3d</fix>
</trkpt>
<trkpt lat="-27.274439" lon="151.290064">
  <ele>342.91</ele>
  <time>2026-09-01T19:56:22Z</time>
  <course>6.85</course>
  <speed>0.0</speed>
  <fix>3d</fix>
</trkpt>
<trkpt lat="-27.274439" lon="151.290064">
  <ele>343.1</ele>
  <time>2026-09-01T19:56:22Z</time>
  <course>270.0</course>
  <speed>0.0</speed>
  <fix>3d</fix>
</trkpt>
<trkpt lat="-27.274439" lon="151.290064">
  <ele>343.06</ele>
  <time>2026-09-01T19:56:22Z</time>
  <course>7.22</course>
  <speed>0.0</speed>
  <fix>3d</fix>
</trkpt>
<trkpt lat="-27.274439" lon="151.290064">
  <ele>343.1</ele>
  <time>2026-09-01T19:56:22Z</time>
  <course>270.0</course>
  <speed>0.0</speed>
  <fix>3d</fix>
</trkpt>
<trkpt lat="-27.274439" lon="151.290064">
  <ele>343.13</ele>
  <time>2026-09-01T19:56:22Z</time>
  <course>7.56</course>
  <speed>0.0</speed>
  <fix>3d</fix>
</trkpt>
<trkpt lat="-27.274439" lon="151.290064">
  <ele>343.1</ele>
  <time>2026-09-01T19:56:22Z</time>
  <course>270.0</course>
  <speed>0.0</speed>
  <fix>3d</fix>
</trkpt>
<trkpt lat="-27.274439" lon="151.290064">
  <ele>343.04</ele>
  <time>2026-09-01T19:56:22Z</time>
  <course>7.87</course>
  <speed>0.0</speed>
  <fix>3d</fix>
</trkpt>
<trkpt lat="-27.274439" lon="151.290064">
  <ele>343.1</ele>
  <time>2026-09-01T19:56:22Z</time>
  <course>270.0</course>
  <speed>0.0</speed>
  <fix>3d</fix>
</trkpt>
<trkpt lat="-27.274439" lon="151.290064">
  <ele>342.88</ele>
  <time>2026-09-01T19:56:22Z</time>
  <course>8.14</course>
  <speed>0.0</speed>
  <fix>3d</fix>
</trkpt>
<trkpt lat="-27.274439" lon="151.290064">
  <ele>343.1</ele>
  <time>2026-09-01T19:56:22Z</time>
  <course>270.0</course>
  <speed>0.0</speed>
  <fix>3d</fix>
</trkpt>
<trkpt lat="-27.274439" lon="151.290064">
  <ele>343.02</ele>
  <time>2026-09-01T19:56:22Z</time>
  <course>8.39</course>
  <speed>0.0</speed>
  <fix>3d</fix>
</trkpt>
<trkpt lat="-27.274439" lon="151.290064">
  <ele>343.1</ele>
  <time>2026-09-01T19:56:22Z</time>
  <course>270.0</course>
  <speed>0.0</speed>
  <fix>3d</fix>
</trkpt>
<trkpt lat="-27.274439" lon="151.290064">
  <ele>343.23</ele>
  <time>2026-09-01T19:56:22Z</time>
  <course>8.63</course>
  <speed>0.0</speed>
  <fix>3d</fix>
</trkpt>
<trkpt lat="-27.274439" lon="151.290064">
  <ele>343.1</ele>
  <time>2026-09-01T19:56:22Z</time>
  <course>270.0</course>
  <speed>0.0</speed>
  <fix>3d</fix>
</trkpt>
<trkpt lat="-27.274439" lon="151.290064">
  <ele>343.17</ele>
  <time>2026-09-01T19:56:22Z</time>
  <course>8.83</course>
  <speed>0.0</speed>
  <fix>3d</fix>
</trkpt>
<trkpt lat="-27.274439" lon="151.290064">
  <ele>343.1</ele>
  <time>2026-09-01T19:56:22Z</time>
  <course>270.0</course>
  <speed>0.0</speed>
  <fix>3d</fix>
</trkpt>
<trkpt lat="-27.274439" lon="151.290064">
  <ele>343.04</ele>
  <time>2026-09-01T19:56:22Z</time>
  <course>9.01</course>
  <speed>0.0</speed>
  <fix>3d</fix>
</trkpt>
<trkpt lat="-27.274439" lon="151.290064">
  <ele>343.1</ele>
  <time>2026-09-01T19:56:22Z</time>
  <course>270.0</course>
  <speed>0.0</speed>
  <fix>3d</fix>
</trkpt>
<trkpt lat="-27.274439" lon="151.290064">
  <ele>342.89</ele>
  <time>2026-09-01T19:56:22Z</time>
  <course>9.18</course>
  <speed>0.0</speed>
  <fix>3d</fix>
</trkpt>
<trkpt lat="-27.274439" lon="151.290064">
  <ele>343.1</ele>
  <time>2026-09-01T19:56:22Z</time>
  <course>270.0</course>
  <speed>0.0</speed>
  <fix>3d</fix>
</trkpt>
<trkpt lat="-27.274439" lon="151.290064">
  <ele>343.08</ele>
  <time>2026-09-01T19:56:22Z</time>
  <course>9.33</course>
  <speed>0.0</speed>
  <fix>3d</fix>
</trkpt>
<trkpt lat="-27.274439" lon="151.290064">
  <ele>343.1</ele>
  <time>2026-09-01T19:56:22Z</time>
  <course>270.0</course>
  <speed>0.0</speed>
  <fix>3d</fix>
</trkpt>
<trkpt lat="-27.274439" lon="151.290064">
  <ele>343.19</ele>
  <time>2026-09-01T19:56:22Z</time>
  <course>9.47</course>
  <speed>0.0</speed>
  <fix>3d</fix>
</trkpt>
<trkpt lat="-27.274439" lon="151.290064">
  <ele>343.1</ele>
  <time>2026-09-01T19:56:22Z</time>
  <course>270.0</course>
  <speed>0.0</speed>
  <fix>3d</fix>
</trkpt>
<trkpt lat="-27.274439" lon="151.290064">
  <ele>342.88</ele>
  <time>2026-09-01T19:56:22Z</time>
  <course>9.59</course>
  <speed>0.0</speed>
  <fix>3d</fix>
</trkpt>
<trkpt lat="-27.274439" lon="151.290064">
  <ele>343.1</ele>
  <time>2026-09-01T19:56:22Z</time>
  <course>270.0</course>
  <speed>0.0</speed>
  <fix>3d</fix>
</trkpt>
<trkpt lat="-27.274439" lon="151.290064">
  <ele>343.17</ele>
  <time>2026-09-01T19:56:22Z</time>
  <course>9.7</course>
  <speed>0.0</speed>
  <fix>3d</fix>
</trkpt>
<trkpt lat="-27.274439" lon="151.290064">
  <ele>343.1</ele>
  <time>2026-09-01T19:56:22Z</time>
  <course>270.0</course>
  <speed>0.0</speed>
  <fix>3d</fix>
</trkpt>
<trkpt lat="-27.274439" lon="151.290064">
  <ele>342.89</ele>
  <time>2026-09-01T19:56:22Z</time>
  <course>9.8</course>
  <speed>0.0</speed>
  <fix>3d</fix>
</trkpt>
<trkpt lat="-27.274439" lon="151.290064">
  <ele>343.1</ele>
  <time>2026-09-01T19:56:22Z</time>
  <course>270.0</course>
  <speed>0.0</speed>
  <fix>3d</fix>
</trkpt>
<trkpt lat="-27.274439" lon="151.290064">
  <ele>342.99</ele>
  <time>2026-09-01T19:56:22Z</time>
  <course>9.9</course>
  <speed>0.0</speed>
  <fix>3d</fix>
</trkpt>
<trkpt lat="-27.274439" lon="151.290064">
  <ele>343.1</ele>
  <time>2026-09-01T19:56:22Z</time>
  <course>270.0</course>
  <speed>0.0</speed>
  <fix>3d</fix>
</trkpt>
<trkpt lat="-27.274439" lon="151.290064">
  <ele>342.87</ele>
  <time>2026-09-01T19:56:22Z</time>
  <course>9.98</course>
  <speed>0.0</speed>
  <fix>3d</fix>
</trkpt>
<trkpt lat="-27.274439" lon="151.290064">
  <ele>343.1</ele>
  <time>2026-09-01T19:56:22Z</time>
  <course>270.0</course>
  <speed>0.0</speed>
  <fix>3d</fix>
</trkpt>
<trkpt lat="-27.274439" lon="151.290064">
  <ele>343.09</ele>
  <time>2026-09-01T19:56:22Z</time>
  <course>10.06</course>
  <speed>0.0</speed>
  <fix>3d</fix>
</trkpt>
<trkpt lat="-27.274439" lon="151.290064">
  <ele>343.1</ele>
  <time>2026-09-01T19:56:22Z</time>
  <course>270.0</course>
  <speed>0.0</speed>
  <fix>3d</fix>
</trkpt>
<trkpt lat="-27.274439" lon="151.290064">
  <ele>343.18</ele>
  <time>2026-09-01T19:56:22Z</time>
  <course>10.13</course>
  <speed>0.0</speed>
  <fix>3d</fix>
</trkpt>
<trkpt lat="-27.274439" lon="151.290064">
  <ele>343.1</ele>
  <time>2026-09-01T19:56:22Z</time>
  <course>270.0</course>
  <speed>0.0</speed>
  <fix>3d</fix>
</trkpt>
<trkpt lat="-27.274439" lon="151.290064">
  <ele>343.05</ele>
  <time>2026-09-01T19:56:22Z</time>
  <course>10.2</course>
  <speed>0.0</speed>
  <fix>3d</fix>
</trkpt>
<trkpt lat="-27.274439" lon="151.290064">
  <ele>343.1</ele>
  <time>2026-09-01T19:56:22Z</time>
  <course>270.0</course>
  <speed>0.0</speed>
  <fix>3d</fix>
</trkpt>
<trkpt lat="-27.274439" lon="151.290064">
  <ele>342.96</ele>
  <time>2026-09-01T19:56:22Z</time>
  <course>10.25</course>
  <speed>0.0</speed>
  <fix>3d</fix>
</trkpt>
<trkpt lat="-27.274439" lon="151.290064">
  <ele>343.1</ele>
  <time>2026-09-01T19:56:22Z</time>
  <course>270.0</course>
  <speed>0.0</speed>
  <fix>3d</fix>
</trkpt>
<trkpt lat="-27.274439" lon="151.290064">
  <ele>343.1</ele>
  <time>2026-09-01T19:56:22Z</time>
  <course>10.31</course>
  <speed>0.0</speed>
  <fix>3d</fix>
</trkpt>
<trkpt lat="-27.274439" lon="151.290064">
  <ele>343.1</ele>
  <time>2026-09-01T19:56:22Z</time>
  <course>270.0</course>
  <speed>0.0</speed>
  <fix>3d</fix>
</trkpt>
<trkpt lat="-27.274439" lon="151.290064">
  <ele>343.22</ele>
  <time>2026-09-01T19:56:22Z</time>
  <course>10.35</course>
  <speed>0.0</speed>
  <fix>3d</fix>
</trkpt>
<trkpt lat="-27.274439" lon="151.290064">
  <ele>343.1</ele>
  <time>2026-09-01T19:56:22Z</time>
  <course>270.0</course>
  <speed>0.0</speed>
  <fix>3d</fix>
</trkpt>
<trkpt lat="-27.274439" lon="151.290064">
  <ele>343.17</ele>
  <time>2026-09-01T19:56:22Z</time>
  <course>10.4</course>
  <speed>0.0</speed>
  <fix>3d</fix>
</trkpt>
<trkpt lat="-27.274439" lon="151.290064">
  <ele>343.1</ele>
  <time>2026-09-01T19:56:22Z</time>
  <course>270.0</course>
  <speed>0.0</speed>
  <fix>3d</fix>
</trkpt>
<trkpt lat="-27.274439" lon="151.290064">
  <ele>343.08</ele>
  <time>2026-09-01T19:56:22Z</time>
  <course>10.44</course>
  <speed>0.0</speed>
  <fix>3d</fix>
</trkpt>
<trkpt lat="-27.274439" lon="151.290064">
  <ele>343.1</ele>
  <time>2026-09-01T19:56:22Z</time>
  <course>270.0</course>
  <speed>0.0</speed>
  <fix>3d</fix>
</trkpt>
<trkpt lat="-27.274439" lon="151.290064">
  <ele>343.04</ele>
  <time>2026-09-01T19:56:22Z</time>
  <course>10.47</course>
  <speed>0.0</speed>
  <fix>3d</fix>
</trkpt>
<trkpt lat="-27.274439" lon="151.290064">
  <ele>343.1</ele>
  <time>2026-09-01T19:56:22Z</time>
  <course>270.0</course>
  <speed>0.0</speed>
  <fix>3d</fix>
</trkpt>
<trkpt lat="-27.274439" lon="151.290064">
  <ele>343.18</ele>
  <time>2026-09-01T19:56:22Z</time>
  <course>10.5</course>
  <speed>0.0</speed>
  <fix>3d</fix>
</trkpt>
<trkpt lat="-27.274439" lon="151.290064">
  <ele>343.1</ele>
  <time>2026-09-01T19:56:22Z</time>
  <course>270.0</course>
  <speed>0.0</speed>
  <fix>3d</fix>
</trkpt>
<trkpt lat="-27.274439" lon="151.290064">
  <ele>343.12</ele>
  <time>2026-09-01T19:56:22Z</time>
  <course>10.53</course>
  <speed>0.0</speed>
  <fix>3d</fix>
</trkpt>
<trkpt lat="-27.274439" lon="151.290064">
  <ele>343.1</ele>
  <time>2026-09-01T19:56:22Z</time>
  <course>270.0</course>
  <speed>0.0</speed>
  <fix>3d</fix>
</trkpt>
<trkpt lat="-27.274439" lon="151.290064">
  <ele>343.04</ele>
  <time>2026-09-01T19:56:22Z</time>
  <course>10.56</course>
  <speed>0.0</speed>
  <fix>3d</fix>
</trkpt>
<trkpt lat="-27.274439" lon="151.290064">
  <ele>343.1</ele>
  <time>2026-09-01T19:56:22Z</time>
  <course>270.0</course>
  <speed>0.0</speed>
  <fix>3d</fix>
</trkpt>
<trkpt lat="-27.274439" lon="151.290064">
  <ele>343.07</ele>
  <time>2026-09-01T19:56:22Z</time>
  <course>10.58</course>
  <speed>0.0</speed>
  <fix>3d</fix>
</trkpt>
<trkpt lat="-27.274439" lon="151.290064">
  <ele>343.1</ele>
  <time>2026-09-01T19:56:22Z</time>
  <course>270.0</course>
  <speed>0.0</speed>
  <fix>3d</fix>
</trkpt>
<trkpt lat="-27.274439" lon="151.290064">
  <ele>343.04</ele>
  <time>2026-09-01T19:56:22Z</time>
  <course>10.6</course>
  <speed>0.0</speed>
  <fix>3d</fix>
</trkpt>
<trkpt lat="-27.274439" lon="151.290064">
  <ele>343.1</ele>
  <time>2026-09-01T19:56:22Z</time>
  <course>270.0</course>
  <speed>0.0</speed>
  <fix>3d</fix>
</trkpt>
<trkpt lat="-27.274439" lon="151.290064">
  <ele>343.01</ele>
  <time>2026-09-01T19:56:22Z</time>
  <course>10.62</course>
  <speed>0.0</speed>
  <fix>3d</fix>
</trkpt>
<trkpt lat="-27.274439" lon="151.290064">
  <ele>343.1</ele>
  <time>2026-09-01T19:56:22Z</time>
  <course>270.0</course>
  <speed>0.0</speed>
  <fix>3d</fix>
</trkpt>
<trkpt lat="-27.274439" lon="151.290064">
  <ele>343.2</ele>
  <time>2026-09-01T19:56:22Z</time>
  <course>10.64</course>
  <speed>0.0</speed>
  <fix>3d</fix>
</trkpt>
<trkpt lat="-27.274439" lon="151.290064">
  <ele>343.1</ele>
  <time>2026-09-01T19:56:22Z</time>
  <course>270.0</course>
  <speed>0.0</speed>
  <fix>3d</fix>
</trkpt>
<trkpt lat="-27.274439" lon="151.290064">
  <ele>343.24</ele>
  <time>2026-09-01T19:56:22Z</time>
  <course>10.65</course>
  <speed>0.0</speed>
  <fix>3d</fix>
</trkpt>
<trkpt lat="-27.274439" lon="151.290064">
  <ele>343.1</ele>
  <time>2026-09-01T19:56:22Z</time>
  <course>270.0</course>
  <speed>0.0</speed>
  <fix>3d</fix>
</trkpt>
<trkpt lat="-27.274439" lon="151.290064">
  <ele>342.88</ele>
  <time>2026-09-01T19:56:22Z</time>
  <course>10.67</course>
  <speed>0.0</speed>
  <fix>3d</fix>
</trkpt>
<trkpt lat="-27.274439" lon="151.290064">
  <ele>343.1</ele>
  <time>2026-09-01T19:56:22Z</time>
  <course>270.0</course>
  <speed>0.0</speed>
  <fix>3d</fix>
</trkpt>
<trkpt lat="-27.274439" lon="151.290064">
  <ele>343.21</ele>
  <time>2026-09-01T19:56:22Z</time>
  <course>10.68</course>
  <speed>0.0</speed>
  <fix>3d</fix>
</trkpt>
<trkpt lat="-27.274439" lon="151.290064">
  <ele>343.1</ele>
  <time>2026-09-01T19:56:22Z</time>
  <course>270.0</course>
  <speed>0.0</speed>
  <fix>3d</fix>
</trkpt>
<trkpt lat="-27.274439" lon="151.290064">
  <ele>343.02</ele>
  <time>2026-09-01T19:56:22Z</time>
  <course>10.69</course>
  <speed>0.0</speed>
  <fix>3d</fix>
</trkpt>
<trkpt lat="-27.274439" lon="151.290064">
  <ele>343.1</ele>
  <time>2026-09-01T19:56:22Z</time>
  <course>270.0</course>
  <speed>0.0</speed>
  <fix>3d</fix>
</trkpt>
<trkpt lat="-27.274439" lon="151.290064">
  <ele>342.93</ele>
  <time>2026-09-01T19:56:22Z</time>
  <course>10.7</course>
  <speed>0.0</speed>
  <fix>3d</fix>
</trkpt>
<trkpt lat="-27.274439" lon="151.290064">
  <ele>343.1</ele>
  <time>2026-09-01T19:56:22Z</time>
  <course>270.0</course>
  <speed>0.0</speed>
  <fix>3d</fix>
</trkpt>
<trkpt lat="-27.274439" lon="151.290064">
  <ele>343.07</ele>
  <time>2026-09-01T19:56:22Z</time>
  <course>10.71</course>
  <speed>0.0</speed>
  <fix>3d</fix>
</trkpt>
<trkpt lat="-27.274439" lon="151.290064">
  <ele>343.1</ele>
  <time>2026-09-01T19:56:22Z</time>
  <course>270.0</course>
  <speed>0.0</speed>
  <fix>3d</fix>
</trkpt>
<trkpt lat="-27.274439" lon="151.290064">
  <ele>342.94</ele>
  <time>2026-09-01T19:56:22Z</time>
  <course>10.72</course>
  <speed>0.0</speed>
  <fix>3d</fix>
</trkpt>
<trkpt lat="-27.274439" lon="151.290064">
  <ele>343.1</ele>
  <time>2026-09-01T19:56:22Z</time>
  <course>270.0</course>
  <speed>0.0</speed>
  <fix>3d</fix>
</trkpt>
<trkpt lat="-27.274439" lon="151.290064">
  <ele>343.11</ele>
  <time>2026-09-01T19:56:22Z</time>
  <course>10.73</course>
  <speed>0.0</speed>
  <fix>3d</fix>
</trkpt>
<trkpt lat="-27.274439" lon="151.290064">
  <ele>343.1</ele>
  <time>2026-09-01T19:56:22Z</time>
  <course>270.0</course>
  <speed>0.0</speed>
  <fix>3d</fix>
</trkpt>
<trkpt lat="-27.274439" lon="151.290064">
  <ele>343.24</ele>
  <time>2026-09-01T19:56:22Z</time>
  <course>10.73</course>
  <speed>0.0</speed>
  <fix>3d</fix>
</trkpt>
<trkpt lat="-27.274439" lon="151.290064">
  <ele>343.1</ele>
  <time>2026-09-01T19:56:22Z</time>
  <course>270.0</course>
  <speed>0.0</speed>
  <fix>3d</fix>
</trkpt>
<trkpt lat="-27.274439" lon="151.290064">
  <ele>343.18</ele>
  <time>2026-09-01T19:56:22Z</time>
  <course>10.74</course>
  <speed>0.0</speed>
  <fix>3d</fix>
</trkpt>
<trkpt lat="-27.274439" lon="151.290064">
  <ele>343.1</ele>
  <time>2026-09-01T19:56:22Z</time>
  <course>270.0</course>
  <speed>0.0</speed>
  <fix>3d</fix>
</trkpt>
<trkpt lat="-27.274439" lon="151.290064">
  <ele>342.89</ele>
  <time>2026-09-01T19:56:22Z</time>
  <course>10.75</course>
  <speed>0.0</speed>
  <fix>3d</fix>
</trkpt>
<trkpt lat="-27.274439" lon="151.290064">
  <ele>343.1</ele>
  <time>2026-09-01T19:56:22Z</time>
  <course>270.0</course>
  <speed>0.0</speed>
  <fix>3d</fix>
</trkpt>
<trkpt lat="-27.274439" lon="151.290064">
  <ele>343.23</ele>
  <time>2026-09-01T19:56:22Z</time>
  <course>10.75</course>
  <speed>0.0</speed>
  <fix>3d</fix>
</trkpt>
<trkpt lat="-27.274439" lon="151.290064">
  <ele>343.1</ele>
  <time>2026-09-01T19:56:22Z</time>
  <course>270.0</course>
  <speed>0.0</speed>
  <fix>3d</fix>
</trkpt>
<trkpt lat="-27.274439" lon="151.290064">
  <ele>343.23</ele>
  <time>2026-09-01T19:56:22Z</time>
  <course>10.76</course>
  <speed>0.0</speed>
  <fix>3d</fix>
</trkpt>
<trkpt lat="-27.274439" lon="151.290064">
  <ele>343.1</ele>
  <time>2026-09-01T19:56:22Z</time>
  <course>270.0</course>
  <speed>0.0</speed>
  <fix>3d</fix>
</trkpt>
<trkpt lat="-27.274439" lon="151.290064">
  <ele>342.99</ele>
  <time>2026-09-01T19:56:22Z</time>
  <course>10.76</course>
  <speed>0.0</speed>
  <fix>3d</fix>
</trkpt>
<trkpt lat="-27.274439" lon="151.290064">
  <ele>343.1</ele>
  <time>2026-09-01T19:56:22Z</time>
  <course>270.0</course>
  <speed>0.0</speed>
  <fix>3d</fix>
</trkpt>
<trkpt lat="-27.274439" lon="151.290064">
  <ele>343.13</ele>
  <time>2026-09-01T19:56:22Z</time>
  <course>10.76</course>
  <speed>0.0</speed>
  <fix>3d</fix>
</trkpt>
<trkpt lat="-27.274439" lon="151.290064">
  <ele>343.1</ele>
  <time>2026-09-01T19:56:22Z</time>
  <course>270.0</course>
  <speed>0.0</speed>
  <fix>3d</fix>
</trkpt>
<trkpt lat="-27.274439" lon="151.290064">
  <ele>343.07</ele>
  <time>2026-09-01T19:56:22Z</time>
  <course>10.77</course>
  <speed>0.0</speed>
  <fix>3d</fix>
</trkpt>
<trkpt lat="-27.274439" lon="151.290064">
  <ele>343.1</ele>
  <time>2026-09-01T19:56:22Z</time>
  <course>270.0</course>
  <speed>0.0</speed>
  <fix>3d</fix>
</trkpt>
<trkpt lat="-27.274439" lon="151.290064">
  <ele>343.19</ele>
  <time>2026-09-01T19:56:22Z</time>
  <course>10.77</course>
  <speed>0.0</speed>
  <fix>3d</fix>
</trkpt>
<trkpt lat="-27.274439" lon="151.290064">
  <ele>343.1</ele>
  <time>2026-09-01T19:56:22Z</time>
  <course>270.0</course>
  <speed>0.0</speed>
  <fix>3d</fix>
</trkpt>
<trkpt lat="-27.274439" lon="151.290064">
  <ele>342.93</ele>
  <time>2026-09-01T19:56:22Z</time>
  <course>10.77</course>
  <speed>0.0</speed>
  <fix>3d</fix>
</trkpt>
<trkpt lat="-27.274439" lon="151.290064">
  <ele>343.1</ele>
  <time>2026-09-01T19:56:22Z</time>
  <course>270.0</course>
  <speed>0.0</speed>
  <fix>3d</fix>
</trkpt>
<trkpt lat="-27.274439" lon="151.290064">
  <ele>343.19</ele>
  <time>2026-09-01T19:56:22Z</time>
  <course>10.78</course>
  <speed>0.0</speed>
  <fix>3d</fix>
</trkpt>
<trkpt lat="-27.274439" lon="151.290064">
  <ele>343.1</ele>
  <time>2026-09-01T19:56:22Z</time>
  <course>270.0</course>
  <speed>0.0</speed>
  <fix>3d</fix>
</trkpt>
<trkpt lat="-27.274439" lon="151.290064">
  <ele>343.1</ele>
  <time>2026-09-01T19:56:22Z</time>
  <course>10.78</course>
  <speed>0.0</speed>
  <fix>3d</fix>
</trkpt>
<trkpt lat="-27.274439" lon="151.290064">
  <ele>343.1</ele>
  <time>2026-09-01T19:56:22Z</time>
  <course>270.0</course>
  <speed>0.0</speed>
  <fix>3d</fix>
</trkpt>
<trkpt lat="-27.274439" lon="151.290064">
  <ele>343.01</ele>
  <time>2026-09-01T19:56:22Z</time>
  <course>10.78</course>
  <speed>0.0</speed>
  <fix>3d</fix>
</trkpt>
<trkpt lat="-27.274439" lon="151.290064">
  <ele>343.1</ele>
  <time>2026-09-01T19:56:22Z</time>
  <course>270.0</course>
  <speed>0.0</speed>
  <fix>3d</fix>
</trkpt>
<trkpt lat="-27.274439" lon="151.290064">
  <ele>343.11</ele>
  <time>2026-09-01T19:56:22Z</time>
  <course>10.78</course>
  <speed>0.0</speed>
  <fix>3d</fix>
</trkpt>
<trkpt lat="-27.274439" lon="151.290064">
  <ele>343.1</ele>
  <time>2026-09-01T19:56:22Z</time>
  <course>270.0</course>
  <speed>0.0</speed>
  <fix>3d</fix>
</trkpt>
<trkpt lat="-27.274439" lon="151.290064">
  <ele>342.96</ele>
  <time>2026-09-01T19:56:22Z</time>
  <course>10.78</course>
  <speed>0.0</speed>
  <fix>3d</fix>
</trkpt>
<trkpt lat="-27.274439" lon="151.290064">
  <ele>343.1</ele>
  <time>2026-09-01T19:56:22Z</time>
  <course>270.0</course>
  <speed>0.0</speed>
  <fix>3d</fix>
</trkpt>
<trkpt lat="-27.274439" lon="151.290064">
  <ele>343.19</ele>
  <time>2026-09-01T19:56:22Z</time>
  <course>10.79</course>
  <speed>0.0</speed>
  <fix>3d</fix>
</trkpt>
<trkpt lat="-27.274439" lon="151.290064">
  <ele>343.1</ele>
  <time>2026-09-01T19:56:22Z</time>
  <course>270.0</course>
  <speed>0.0</speed>
  <fix>3d</fix>
</trkpt>
<trkpt lat="-27.274439" lon="151.290064">
  <ele>343.0</ele>
  <time>2026-09-01T19:56:22Z</time>
  <course>10.79</course>
  <speed>0.0</speed>
  <fix>3d</fix>
</trkpt>
<trkpt lat="-27.274439" lon="151.290064">
  <ele>343.1</ele>
  <time>2026-09-01T19:56:22Z</time>
  <course>270.0</course>
  <speed>0.0</speed>
  <fix>3d</fix>
</trkpt>
<trkpt lat="-27.274439" lon="151.290064">
  <ele>343.2</ele>
  <time>2026-09-01T19:56:22Z</time>
  <course>10.79</course>
  <speed>0.0</speed>
  <fix>3d</fix>
</trkpt>
<trkpt lat="-27.274439" lon="151.290064">
  <ele>343.1</ele>
  <time>2026-09-01T19:56:22Z</time>
  <course>270.0</course>
  <speed>0.0</speed>
  <fix>3d</fix>
</trkpt>
<trkpt lat="-27.274439" lon="151.290064">
  <ele>343.2</ele>
  <time>2026-09-01T19:56:22Z</time>
  <course>10.79</course>
  <speed>0.0</speed>
  <fix>3d</fix>
</trkpt>
<trkpt lat="-27.274439" lon="151.290064">
  <ele>343.1</ele>
  <time>2026-09-01T19:56:23Z</time>
  <course>270.0</course>
  <speed>0.0</speed>
  <fix>3d</fix>
</trkpt>
<trkpt lat="-27.274439" lon="151.290064">
  <ele>343.13</ele>
  <time>2026-09-01T19:56:23Z</time>
  <course>10.79</course>
  <speed>0.0</speed>
  <fix>3d</fix>
</trkpt>
<trkpt lat="-27.274439" lon="151.290064">
  <ele>343.1</ele>
  <time>2026-09-01T19:56:23Z</time>
  <course>270.0</course>
  <speed>0.0</speed>
  <fix>3d</fix>
</trkpt>
<trkpt lat="-27.274439" lon="151.290064">
  <ele>343.1</ele>
  <time>2026-09-01T19:56:23Z</time>
  <course>10.79</course>
  <speed>0.0</speed>
  <fix>3d</fix>
</trkpt>
<trkpt lat="-27.274439" lon="151.290064">
  <ele>343.1</ele>
  <time>2026-09-01T19:56:23Z</time>
  <course>270.0</course>
  <speed>0.0</speed>
  <fix>3d</fix>
</trkpt>
<trkpt lat="-27.274439" lon="151.290064">
  <ele>343.12</ele>
  <time>2026-09-01T19:56:23Z</time>
  <course>10.79</course>
  <speed>0.0</speed>
  <fix>3d</fix>
</trkpt>
<trkpt lat="-27.274439" lon="151.290064">
  <ele>343.1</ele>
  <time>2026-09-01T19:56:23Z</time>
  <course>270.0</course>
  <speed>0.0</speed>
  <fix>3d</fix>
</trkpt>
<trkpt lat="-27.274439" lon="151.290064">
  <ele>342.94</ele>
  <time>2026-09-01T19:56:23Z</time>
  <course>10.79</course>
  <speed>0.0</speed>
  <fix>3d</fix>
</trkpt>
<trkpt lat="-27.274439" lon="151.290064">
  <ele>343.1</ele>
  <time>2026-09-01T19:56:23Z</time>
  <course>270.0</course>
  <speed>0.0</speed>
  <fix>3d</fix>
</trkpt>
<trkpt lat="-27.274439" lon="151.290064">
  <ele>343.25</ele>
  <time>2026-09-01T19:56:23Z</time>
  <course>10.79</course>
  <speed>0.0</speed>
  <fix>3d</fix>
</trkpt>
<trkpt lat="-27.274439" lon="151.290064">
  <ele>343.1</ele>
  <time>2026-09-01T19:56:23Z</time>
  <course>270.0</course>
  <speed>0.0</speed>
  <fix>3d</fix>
</trkpt>
<trkpt lat="-27.274439" lon="151.290064">
  <ele>342.93</ele>
  <time>2026-09-01T19:56:23Z</time>
  <course>10.79</course>
  <speed>0.0</speed>
  <fix>3d</fix>
</trkpt>
<trkpt lat="-27.274439" lon="151.290064">
  <ele>343.1</ele>
  <time>2026-09-01T19:56:23Z</time>
  <course>270.0</course>
  <speed>0.0</speed>
  <fix>3d</fix>
</trkpt>
<trkpt lat="-27.274439" lon="151.290064">
  <ele>343.08</ele>
  <time>2026-09-01T19:56:23Z</time>
  <course>10.79</course>
  <speed>0.0</speed>
  <fix>3d</fix>
</trkpt>
<trkpt lat="-27.274439" lon="151.290064">
  <ele>343.1</ele>
  <time>2026-09-01T19:56:23Z</time>
  <course>270.0</course>
  <speed>0.0</speed>
  <fix>3d</fix>
</trkpt>
<trkpt lat="-27.274439" lon="151.290064">
  <ele>343.23</ele>
  <time>2026-09-01T19:56:23Z</time>
  <course>10.8</course>
  <speed>0.0</speed>
  <fix>3d</fix>
</trkpt>
<trkpt lat="-27.274439" lon="151.290064">
  <ele>343.1</ele>
  <time>2026-09-01T19:56:23Z</time>
  <course>270.0</course>
  <speed>0.0</speed>
  <fix>3d</fix>
</trkpt>
<trkpt lat="-27.274439" lon="151.290064">
  <ele>343.01</ele>
  <time>2026-09-01T19:56:23Z</time>
  <course>10.8</course>
  <speed>0.0</speed>
  <fix>3d</fix>
</trkpt>
<trkpt lat="-27.274439" lon="151.290064">
  <ele>343.1</ele>
  <time>2026-09-01T19:56:23Z</time>
  <course>270.0</course>
  <speed>0.0</speed>
  <fix>3d</fix>
</trkpt>
<trkpt lat="-27.274439" lon="151.290064">
  <ele>343.1</ele>
  <time>2026-09-01T19:56:23Z</time>
  <course>10.8</course>
  <speed>0.0</speed>
  <fix>3d</fix>
</trkpt>
<trkpt lat="-27.274439" lon="151.290064">
  <ele>343.1</ele>
  <time>2026-09-01T19:56:23Z</time>
  <course>270.0</course>
  <speed>0.0</speed>
  <fix>3d</fix>
</trkpt>
<trkpt lat="-27.274439" lon="151.290064">
  <ele>342.99</ele>
  <time>2026-09-01T19:56:23Z</time>
  <course>10.8</course>
  <speed>0.0</speed>
  <fix>3d</fix>
</trkpt>
<trkpt lat="-27.274439" lon="151.290064">
  <ele>343.1</ele>
  <time>2026-09-01T19:56:23Z</time>
  <course>270.0</course>
  <speed>0.0</speed>
  <fix>3d</fix>
</trkpt>
<trkpt lat="-27.274439" lon="151.290064">
  <ele>342.87</ele>
  <time>2026-09-01T19:56:23Z</time>
  <course>10.8</course>
  <speed>0.0</speed>
  <fix>3d</fix>
</trkpt>
<trkpt lat="-27.274439" lon="151.290064">
  <ele>343.1</ele>
  <time>2026-09-01T19:56:23Z</time>
  <course>270.0</course>
  <speed>0.0</speed>
  <fix>3d</fix>
</trkpt>
<trkpt lat="-27.274439" lon="151.290064">
  <ele>343.1</ele>
  <time>2026-09-01T19:56:23Z</time>
  <course>10.8</course>
  <speed>0.0</speed>
  <fix>3d</fix>
</trkpt>
<trkpt lat="-27.274439" lon="151.290064">
  <ele>343.1</ele>
  <time>2026-09-01T19:56:23Z</time>
  <course>270.0</course>
  <speed>0.0</speed>
  <fix>3d</fix>
</trkpt>
<trkpt lat="-27.274439" lon="151.290064">
  <ele>342.99</ele>
  <time>2026-09-01T19:56:23Z</time>
  <course>10.8</course>
  <speed>0.0</speed>
  <fix>3d</fix>
</trkpt>
<trkpt lat="-27.274439" lon="151.290064">
  <ele>343.1</ele>
  <time>2026-09-01T19:56:23Z</time>
  <course>270.0</course>
  <speed>0.0</speed>
  <fix>3d</fix>
</trkpt>
<trkpt lat="-27.274439" lon="151.290064">
  <ele>342.91</ele>
  <time>2026-09-01T19:56:23Z</time>
  <course>10.8</course>
  <speed>0.0</speed>
  <fix>3d</fix>
</trkpt>
<trkpt lat="-27.274439" lon="151.290064">
  <ele>343.1</ele>
  <time>2026-09-01T19:56:23Z</time>
  <course>270.0</course>
  <speed>0.0</speed>
  <fix>3d</fix>
</trkpt>
<trkpt lat="-27.274439" lon="151.290064">
  <ele>342.9</ele>
  <time>2026-09-01T19:56:23Z</time>
  <course>10.8</course>
  <speed>0.0</speed>
  <fix>3d</fix>
</trkpt>
<trkpt lat="-27.274439" lon="151.290064">
  <ele>343.1</ele>
  <time>2026-09-01T19:56:23Z</time>
  <course>270.0</course>
  <speed>0.0</speed>
  <fix>3d</fix>
</trkpt>
<trkpt lat="-27.274439" lon="151.290064">
  <ele>342.87</ele>
  <time>2026-09-01T19:56:23Z</time>
  <course>10.8</course>
  <speed>0.0</speed>
  <fix>3d</fix>
</trkpt>
<trkpt lat="-27.274439" lon="151.290064">
  <ele>343.1</ele>
  <time>2026-09-01T19:56:23Z</time>
  <course>270.0</course>
  <speed>0.0</speed>
  <fix>3d</fix>
</trkpt>
<trkpt lat="-27.274439" lon="151.290064">
  <ele>343.12</ele>
  <time>2026-09-01T19:56:23Z</time>
  <course>10.8</course>
  <speed>0.0</speed>
  <fix>3d</fix>
</trkpt>
<trkpt lat="-27.274439" lon="151.290064">
  <ele>343.1</ele>
  <time>2026-09-01T19:56:23Z</time>
  <course>270.0</course>
  <speed>0.0</speed>
  <fix>3d</fix>
</trkpt>
<trkpt lat="-27.274439" lon="151.290064">
  <ele>342.99</ele>
  <time>2026-09-01T19:56:23Z</time>
  <course>10.8</course>
  <speed>0.0</speed>
  <fix>3d</fix>
</trkpt>
<trkpt lat="-27.274439" lon="151.290064">
  <ele>343.1</ele>
  <time>2026-09-01T19:56:23Z</time>
  <course>270.0</course>
  <speed>0.0</speed>
  <fix>3d</fix>
</trkpt>
<trkpt lat="-27.274439" lon="151.290064">
  <ele>343.13</ele>
  <time>2026-09-01T19:56:23Z</time>
  <course>10.8</course>
  <speed>0.0</speed>
  <fix>3d</fix>
</trkpt>
<trkpt lat="-27.274439" lon="151.290064">
  <ele>343.1</ele>
  <time>2026-09-01T19:56:23Z</time>
  <course>270.0</course>
  <speed>0.0</speed>
  <fix>3d</fix>
</trkpt>
<trkpt lat="-27.274439" lon="151.290064">
  <ele>343.0</ele>
  <time>2026-09-01T19:56:23Z</time>
  <course>10.8</course>
  <speed>0.0</speed>
  <fix>3d</fix>
</trkpt>
<trkpt lat="-27.274439" lon="151.290064">
  <ele>343.1</ele>
  <time>2026-09-01T19:56:23Z</time>
  <course>270.0</course>
  <speed>0.0</speed>
  <fix>3d</fix>
</trkpt>
<trkpt lat="-27.274439" lon="151.290064">
  <ele>343.17</ele>
  <time>2026-09-01T19:56:23Z</time>
  <course>10.8</course>
  <speed>0.0</speed>
  <fix>3d</fix>
</trkpt>
<trkpt lat="-27.274439" lon="151.290064">
  <ele>343.1</ele>
  <time>2026-09-01T19:56:23Z</time>
  <course>270.0</course>
  <speed>0.0</speed>
  <fix>3d</fix>
</trkpt>
<trkpt lat="-27.274439" lon="151.290064">
  <ele>343.0</ele>
  <time>2026-09-01T19:56:23Z</time>
  <course>10.8</course>
  <speed>0.0</speed>
  <fix>3d</fix>
</trkpt>
<trkpt lat="-27.274439" lon="151.290064">
  <ele>343.1</ele>
  <time>2026-09-01T19:56:23Z</time>
  <course>270.0</course>
  <speed>0.0</speed>
  <fix>3d</fix>
</trkpt>
<trkpt lat="-27.274439" lon="151.290064">
  <ele>342.99</ele>
  <time>2026-09-01T19:56:23Z</time>
  <course>10.8</course>
  <speed>0.0</speed>
  <fix>3d</fix>
</trkpt>
<trkpt lat="-27.274439" lon="151.290064">
  <ele>343.1</ele>
  <time>2026-09-01T19:56:23Z</time>
  <course>270.0</course>
  <speed>0.0</speed>
  <fix>3d</fix>
</trkpt>
<trkpt lat="-27.274439" lon="151.290064">
  <ele>343.17</ele>
  <time>2026-09-01T19:56:23Z</time>
  <course>10.8</course>
  <speed>0.0</speed>
  <fix>3d</fix>
</trkpt>
<trkpt lat="-27.274439" lon="151.290064">
  <ele>343.1</ele>
  <time>2026-09-01T19:56:23Z</time>
  <course>270.0</course>
  <speed>0.0</speed>
  <fix>3d</fix>
</trkpt>
<trkpt lat="-27.274439" lon="151.290064">
  <ele>343.16</ele>
  <time>2026-09-01T19:56:23Z</time>
  <course>10.8</course>
  <speed>0.0</speed>
  <fix>3d</fix>
</trkpt>
<trkpt lat="-27.274439" lon="151.290064">
  <ele>343.1</ele>
  <time>2026-09-01T19:56:23Z</time>
  <course>270.0</course>
  <speed>0.0</speed>
  <fix>3d</fix>
</trkpt>
<trkpt lat="-27.274439" lon="151.290064">
  <ele>342.87</ele>
  <time>2026-09-01T19:56:23Z</time>
  <course>10.8</course>
  <speed>0.0</speed>
  <fix>3d</fix>
</trkpt>
<trkpt lat="-27.274439" lon="151.290064">
  <ele>343.1</ele>
  <time>2026-09-01T19:56:23Z</time>
  <course>270.0</course>
  <speed>0.0</speed>
  <fix>3d</fix>
</trkpt>
<trkpt lat="-27.274439" lon="151.290064">
  <ele>343.19</ele>
  <time>2026-09-01T19:56:23Z</time>
  <course>10.8</course>
  <speed>0.0</speed>
  <fix>3d</fix>
</trkpt>
<trkpt lat="-27.274439" lon="151.290064">
  <ele>343.1</ele>
  <time>2026-09-01T19:56:23Z</time>
  <course>270.0</course>
  <speed>0.0</speed>
  <fix>3d</fix>
</trkpt>
<trkpt lat="-27.274439" lon="151.290064">
  <ele>343.16</ele>
  <time>2026-09-01T19:56:23Z</time>
  <course>10.8</course>
  <speed>0.0</speed>
  <fix>3d</fix>
</trkpt>
<trkpt lat="-27.274439" lon="151.290064">
  <ele>343.1</ele>
  <time>2026-09-01T19:56:23Z</time>
  <course>270.0</course>
  <speed>0.0</speed>
  <fix>3d</fix>
</trkpt>
<trkpt lat="-27.274439" lon="151.290064">
  <ele>343.21</ele>
  <time>2026-09-01T19:56:23Z</time>
  <course>10.8</course>
  <speed>0.0</speed>
  <fix>3d</fix>
</trkpt>
<trkpt lat="-27.274439" lon="151.290064">
  <ele>343.1</ele>
  <time>2026-09-01T19:56:23Z</time>
  <course>270.0</course>
  <speed>0.0</speed>
  <fix>3d</fix>
</trkpt>
<trkpt lat="-27.274439" lon="151.290064">
  <ele>343.22</ele>
  <time>2026-09-01T19:56:23Z</time>
  <course>10.8</course>
  <speed>0.0</speed>
  <fix>3d</fix>
</trkpt>
<trkpt lat="-27.274439" lon="151.290064">
  <ele>343.1</ele>
  <time>2026-09-01T19:56:23Z</time>
  <course>270.0</course>
  <speed>0.0</speed>
  <fix>3d</fix>
</trkpt>
<trkpt lat="-27.274439" lon="151.290064">
  <ele>343.24</ele>
  <time>2026-09-01T19:56:23Z</time>
  <course>10.8</course>
  <speed>0.0</speed>
  <fix>3d</fix>
</trkpt>
<trkpt lat="-27.274439" lon="151.290064">
  <ele>343.1</ele>
  <time>2026-09-01T19:56:23Z</time>
  <course>270.0</course>
  <speed>0.0</speed>
  <fix>3d</fix>
</trkpt>
<trkpt lat="-27.274439" lon="151.290064">
  <ele>343.0</ele>
  <time>2026-09-01T19:56:23Z</time>
  <course>10.8</course>
  <speed>0.0</speed>
  <fix>3d</fix>
</trkpt>
<trkpt lat="-27.274439" lon="151.290064">
  <ele>343.1</ele>
  <time>2026-09-01T19:56:23Z</time>
  <course>270.0</course>
  <speed>0.0</speed>
  <fix>3d</fix>
</trkpt>
<trkpt lat="-27.274439" lon="151.290064">
  <ele>343.1</ele>
  <time>2026-09-01T19:56:23Z</time>
  <course>10.8</course>
  <speed>0.0</speed>
  <fix>3d</fix>
</trkpt>
<trkpt lat="-27.274439" lon="151.290064">
  <ele>343.1</ele>
  <time>2026-09-01T19:56:23Z</time>
  <course>270.0</course>
  <speed>0.0</speed>
  <fix>3d</fix>
</trkpt>
<trkpt lat="-27.274439" lon="151.290064">
  <ele>343.05</ele>
  <time>2026-09-01T19:56:23Z</time>
  <course>10.8</course>
  <speed>0.0</speed>
  <fix>3d</fix>
</trkpt>
<trkpt lat="-27.274439" lon="151.290064">
  <ele>343.1</ele>
  <time>2026-09-01T19:56:23Z</time>
  <course>270.0</course>
  <speed>0.0</speed>
  <fix>3d</fix>
</trkpt>
<trkpt lat="-27.274439" lon="151.290064">
  <ele>342.87</ele>
  <time>2026-09-01T19:56:23Z</time>
  <course>10.8</course>
  <speed>0.0</speed>
  <fix>3d</fix>
</trkpt>
<trkpt lat="-27.274439" lon="151.290064">
  <ele>343.1</ele>
  <time>2026-09-01T19:56:23Z</time>
  <course>270.0</course>
  <speed>0.0</speed>
  <fix>3d</fix>
</trkpt>
<trkpt lat="-27.274439" lon="151.290064">
  <ele>342.92</ele>
  <time>2026-09-01T19:56:23Z</time>
  <course>10.8</course>
  <speed>0.0</speed>
  <fix>3d</fix>
</trkpt>
<trkpt lat="-27.274439" lon="151.290064">
  <ele>343.1</ele>
  <time>2026-09-01T19:56:23Z</time>
  <course>270.0</course>
  <speed>0.0</speed>
  <fix>3d</fix>
</trkpt>
<trkpt lat="-27.274439" lon="151.290064">
  <ele>342.96</ele>
  <time>2026-09-01T19:56:23Z</time>
  <course>10.8</course>
  <speed>0.0</speed>
  <fix>3d</fix>
</trkpt>
<trkpt lat="-27.274439" lon="151.290064">
  <ele>343.1</ele>
  <time>2026-09-01T19:56:23Z</time>
  <course>270.0</course>
  <speed>0.0</speed>
  <fix>3d</fix>
</trkpt>
<trkpt lat="-27.274439" lon="151.290064">
  <ele>343.15</ele>
  <time>2026-09-01T19:56:23Z</time>
  <course>10.8</course>
  <speed>0.0</speed>
  <fix>3d</fix>
</trkpt>
<trkpt lat="-27.274439" lon="151.290064">
  <ele>343.1</ele>
  <time>2026-09-01T19:56:23Z</time>
  <course>270.0</course>
  <speed>0.0</speed>
  <fix>3d</fix>
</trkpt>
<trkpt lat="-27.274439" lon="151.290064">
  <ele>343.16</ele>
  <time>2026-09-01T19:56:23Z</time>
  <course>10.8</course>
  <speed>0.0</speed>
  <fix>3d</fix>
</trkpt>
<trkpt lat="-27.274439" lon="151.290064">
  <ele>343.1</ele>
  <time>2026-09-01T19:56:23Z</time>
  <course>270.0</course>
  <speed>0.0</speed>
  <fix>3d</fix>
</trkpt>
<trkpt lat="-27.274439" lon="151.290064">
  <ele>343.2</ele>
  <time>2026-09-01T19:56:23Z</time>
  <course>10.81</course>
  <speed>0.0</speed>
  <fix>3d</fix>
</trkpt>
<trkpt lat="-27.274439" lon="151.290064">
  <ele>343.1</ele>
  <time>2026-09-01T19:56:23Z</time>
  <course>270.0</course>
  <speed>0.0</speed>
  <fix>3d</fix>
</trkpt>
<trkpt lat="-27.274439" lon="151.290064">
  <ele>343.13</ele>
  <time>2026-09-01T19:56:23Z</time>
  <course>10.82</course>
  <speed>0.0</speed>
  <fix>3d</fix>
</trkpt>
<trkpt lat="-27.274439" lon="151.290064">
  <ele>343.1</ele>
  <time>2026-09-01T19:56:23Z</time>
  <course>270.0</course>
  <speed>0.0</speed>
  <fix>3d</fix>
</trkpt>
<trkpt lat="-27.274439" lon="151.290064">
  <ele>343.09</ele>
  <time>2026-09-01T19:56:23Z</time>
  <course>10.71</course>
  <speed>0.0</speed>
  <fix>3d</fix>
</trkpt>
<trkpt lat="-27.274439" lon="151.290064">
  <ele>343.1</ele>
  <time>2026-09-01T19:56:23Z</time>
  <course>270.0</course>
  <speed>0.0</speed>
  <fix>3d</fix>
</trkpt>
<trkpt lat="-27.274439" lon="151.290064">
  <ele>343.09</ele>
  <time>2026-09-01T19:56:23Z</time>
  <course>10.71</course>
  <speed>0.0</speed>
  <fix>3d</fix>
</trkpt>
<trkpt lat="-27.274439" lon="151.290064">
  <ele>343.1</ele>
  <time>2026-09-01T19:56:23Z</time>
  <course>270.0</course>
  <speed>0.0</speed>
  <fix>3d</fix>
</trkpt>
<trkpt lat="-27.274439" lon="151.290064">
  <ele>343.1</ele>
  <time>2026-09-01T19:56:23Z</time>
  <course>10.71</course>
  <speed>0.0</speed>
  <fix>3d</fix>
</trkpt>
<trkpt lat="-27.274439" lon="151.290064">
  <ele>343.1</ele>
  <time>2026-09-01T19:56:23Z</time>
  <course>270.0</course>
  <speed>0.0</speed>
  <fix>3d</fix>
</trkpt>
<trkpt lat="-27.274439" lon="151.290064">
  <ele>343.1</ele>
  <time>2026-09-01T19:56:23Z</time>
  <course>10.71</course>
  <speed>0.0</speed>
  <fix>3d</fix>
</trkpt>
<trkpt lat="-27.274439" lon="151.290064">
  <ele>343.1</ele>
  <time>2026-09-01T19:56:23Z</time>
  <course>270.0</course>
  <speed>0.0</speed>
  <fix>3d</fix>
</trkpt>
<trkpt lat="-27.274439" lon="151.290064">
  <ele>343.1</ele>
  <time>2026-09-01T19:56:23Z</time>
  <course>10.71</course>
  <speed>0.0</speed>
  <fix>3d</fix>
</trkpt>
<trkpt lat="-27.274439" lon="151.290064">
  <ele>343.1</ele>
  <time>2026-09-01T19:56:23Z</time>
  <course>270.0</course>
  <speed>0.0</speed>
  <fix>3d</fix>
</trkpt>
<trkpt lat="-27.274439" lon="151.290064">
  <ele>343.1</ele>
  <time>2026-09-01T19:56:23Z</time>
  <course>10.71</course>
  <speed>0.0</speed>
  <fix>3d</fix>
</trkpt>
<trkpt lat="-27.274439" lon="151.290064">
  <ele>343.1</ele>
  <time>2026-09-01T19:56:23Z</time>
  <course>270.0</course>
  <speed>0.0</speed>
  <fix>3d</fix>
</trkpt>
<trkpt lat="-27.274439" lon="151.290064">
  <ele>343.1</ele>
  <time>2026-09-01T19:56:23Z</time>
  <course>10.71</course>
  <speed>0.0</speed>
  <fix>3d</fix>
</trkpt>
<trkpt lat="-27.274439" lon="151.290064">
  <ele>343.1</ele>
  <time>2026-09-01T19:56:23Z</time>
  <course>270.0</course>
  <speed>0.0</speed>
  <fix>3d</fix>
</trkpt>
<trkpt lat="-27.274439" lon="151.290064">
  <ele>343.11</ele>
  <time>2026-09-01T19:56:23Z</time>
  <course>10.71</course>
  <speed>0.0</speed>
  <fix>3d</fix>
</trkpt>
<trkpt lat="-27.274439" lon="151.290064">
  <ele>343.1</ele>
  <time>2026-09-01T19:56:23Z</time>
  <course>270.0</course>
  <speed>0.0</speed>
  <fix>3d</fix>
</trkpt>
<trkpt lat="-27.274439" lon="151.290064">
  <ele>343.11</ele>
  <time>2026-09-01T19:56:23Z</time>
  <course>10.71</course>
  <speed>0.0</speed>
  <fix>3d</fix>
</trkpt>
<trkpt lat="-27.274439" lon="151.290064">
  <ele>343.1</ele>
  <time>2026-09-01T19:56:23Z</time>
  <course>270.0</course>
  <speed>0.0</speed>
  <fix>3d</fix>
</trkpt>
<trkpt lat="-27.274439" lon="151.290064">
  <ele>343.11</ele>
  <time>2026-09-01T19:56:23Z</time>
  <course>10.71</course>
  <speed>0.0</speed>
  <fix>3d</fix>
</trkpt>
<trkpt lat="-27.274439" lon="151.290064">
  <ele>343.1</ele>
  <time>2026-09-01T19:56:23Z</time>
  <course>270.0</course>
  <speed>0.0</speed>
  <fix>3d</fix>
</trkpt>
<trkpt lat="-27.274439" lon="151.290064">
  <ele>343.12</ele>
  <time>2026-09-01T19:56:23Z</time>
  <course>10.71</course>
  <speed>0.0</speed>
  <fix>3d</fix>
</trkpt>
<trkpt lat="-27.274439" lon="151.290064">
  <ele>343.1</ele>
  <time>2026-09-01T19:56:23Z</time>
  <course>270.0</course>
  <speed>0.0</speed>
  <fix>3d</fix>
</trkpt>
<trkpt lat="-27.274439" lon="151.290064">
  <ele>343.12</ele>
  <time>2026-09-01T19:56:23Z</time>
  <course>10.71</course>
  <speed>0.0</speed>
  <fix>3d</fix>
</trkpt>
<trkpt lat="-27.274439" lon="151.290064">
  <ele>343.1</ele>
  <time>2026-09-01T19:56:23Z</time>
  <course>270.0</course>
  <speed>0.0</speed>
  <fix>3d</fix>
</trkpt>
<trkpt lat="-27.274439" lon="151.290064">
  <ele>343.1</ele>
  <time>2026-09-01T19:56:23Z</time>
  <course>10.71</course>
  <speed>0.0</speed>
  <fix>3d</fix>
</trkpt>
<trkpt lat="-27.274439" lon="151.290064">
  <ele>343.1</ele>
  <time>2026-09-01T19:56:23Z</time>
  <course>270.0</course>
  <speed>0.0</speed>
  <fix>3d</fix>
</trkpt>
<trkpt lat="-27.274439" lon="151.290064">
  <ele>343.1</ele>
  <time>2026-09-01T19:56:23Z</time>
  <course>10.71</course>
  <speed>0.0</speed>
  <fix>3d</fix>
</trkpt>
<trkpt lat="-27.274439" lon="151.290064">
  <ele>343.1</ele>
  <time>2026-09-01T19:56:23Z</time>
  <course>270.0</course>
  <speed>0.0</speed>
  <fix>3d</fix>
</trkpt>
<trkpt lat="-27.274439" lon="151.290064">
  <ele>343.1</ele>
  <time>2026-09-01T19:56:23Z</time>
  <course>10.71</course>
  <speed>0.0</speed>
  <fix>3d</fix>
</trkpt>
<trkpt lat="-27.274439" lon="151.290064">
  <ele>343.1</ele>
  <time>2026-09-01T19:56:23Z</time>
  <course>270.0</course>
  <speed>0.0</speed>
  <fix>3d</fix>
</trkpt>
<trkpt lat="-27.274439" lon="151.290064">
  <ele>343.09</ele>
  <time>2026-09-01T19:56:23Z</time>
  <course>10.71</course>
  <speed>0.0</speed>
  <fix>3d</fix>
</trkpt>
<trkpt lat="-27.274439" lon="151.290064">
  <ele>343.1</ele>
  <time>2026-09-01T19:56:23Z</time>
  <course>270.0</course>
  <speed>0.0</speed>
  <fix>3d</fix>
</trkpt>
<trkpt lat="-27.274439" lon="151.290064">
  <ele>343.09</ele>
  <time>2026-09-01T19:56:23Z</time>
  <course>10.71</course>
  <speed>0.0</speed>
  <fix>3d</fix>
</trkpt>
<trkpt lat="-27.274439" lon="151.290064">
  <ele>343.1</ele>
  <time>2026-09-01T19:56:23Z</time>
  <course>270.0</course>
  <speed>0.0</speed>
  <fix>3d</fix>
</trkpt>
<trkpt lat="-27.274439" lon="151.290064">
  <ele>343.1</ele>
  <time>2026-09-01T19:56:23Z</time>
  <course>10.71</course>
  <speed>0.0</speed>
  <fix>3d</fix>
</trkpt>
<trkpt lat="-27.274439" lon="151.290064">
  <ele>343.1</ele>
  <time>2026-09-01T19:56:23Z</time>
  <course>270.0</course>
  <speed>0.0</speed>
  <fix>3d</fix>
</trkpt>
<trkpt lat="-27.274439" lon="151.290064">
  <ele>343.1</ele>
  <time>2026-09-01T19:56:23Z</time>
  <course>10.71</course>
  <speed>0.0</speed>
  <fix>3d</fix>
</trkpt>
<trkpt lat="-27.274439" lon="151.290064">
  <ele>343.1</ele>
  <time>2026-09-01T19:56:23Z</time>
  <course>270.0</course>
  <speed>0.0</speed>
  <fix>3d</fix>
</trkpt>
<trkpt lat="-27.274439" lon="151.290064">
  <ele>343.1</ele>
  <time>2026-09-01T19:56:23Z</time>
  <course>10.71</course>
  <speed>0.0</speed>
  <fix>3d</fix>
</trkpt>
<trkpt lat="-27.274439" lon="151.290064">
  <ele>343.1</ele>
  <time>2026-09-01T19:56:23Z</time>
  <course>270.0</course>
  <speed>0.0</speed>
  <fix>3d</fix>
</trkpt>
<trkpt lat="-27.274439" lon="151.290064">
  <ele>343.1</ele>
  <time>2026-09-01T19:56:23Z</time>
  <course>10.71</course>
  <speed>0.0</speed>
  <fix>3d</fix>
</trkpt>
<trkpt lat="-27.274439" lon="151.290064">
  <ele>343.1</ele>
  <time>2026-09-01T19:56:23Z</time>
  <course>270.0</course>
  <speed>0.0</speed>
  <fix>3d</fix>
</trkpt>
<trkpt lat="-27.274439" lon="151.290064">
  <ele>343.1</ele>
  <time>2026-09-01T19:56:23Z</time>
  <course>10.71</course>
  <speed>0.0</speed>
  <fix>3d</fix>
</trkpt>
<trkpt lat="-27.274439" lon="151.290064">
  <ele>343.1</ele>
  <time>2026-09-01T19:56:23Z</time>
  <course>270.0</course>
  <speed>0.0</speed>
  <fix>3d</fix>
</trkpt>
<trkpt lat="-27.274439" lon="151.290064">
  <ele>343.1</ele>
  <time>2026-09-01T19:56:23Z</time>
  <course>10.71</course>
  <speed>0.0</speed>
  <fix>3d</fix>
</trkpt>
<trkpt lat="-27.274439" lon="151.290064">
  <ele>343.1</ele>
  <time>2026-09-01T19:56:23Z</time>
  <course>270.0</course>
  <speed>0.0</speed>
  <fix>3d</fix>
</trkpt>
<trkpt lat="-27.274439" lon="151.290064">
  <ele>343.11</ele>
  <time>2026-09-01T19:56:23Z</time>
  <course>10.71</course>
  <speed>0.0</speed>
  <fix>3d</fix>
</trkpt>
<trkpt lat="-27.274439" lon="151.290064">
  <ele>343.1</ele>
  <time>2026-09-01T19:56:23Z</time>
  <course>270.0</course>
  <speed>0.0</speed>
  <fix>3d</fix>
</trkpt>
<trkpt lat="-27.274439" lon="151.290064">
  <ele>343.11</ele>
  <time>2026-09-01T19:56:23Z</time>
  <course>10.71</course>
  <speed>0.0</speed>
  <fix>3d</fix>
</trkpt>
<trkpt lat="-27.274439" lon="151.290064">
  <ele>343.1</ele>
  <time>2026-09-01T19:56:23Z</time>
  <course>270.0</course>
  <speed>0.0</speed>
  <fix>3d</fix>
</trkpt>
<trkpt lat="-27.274439" lon="151.290064">
  <ele>343.11</ele>
  <time>2026-09-01T19:56:23Z</time>
  <course>10.71</course>
  <speed>0.0</speed>
  <fix>3d</fix>
</trkpt>
<trkpt lat="-27.274439" lon="151.290064">
  <ele>343.1</ele>
  <time>2026-09-01T19:56:23Z</time>
  <course>270.0</course>
  <speed>0.0</speed>
  <fix>3d</fix>
</trkpt>
<trkpt lat="-27.274439" lon="151.290064">
  <ele>343.11</ele>
  <time>2026-09-01T19:56:23Z</time>
  <course>10.71</course>
  <speed>0.0</speed>
  <fix>3d</fix>
</trkpt>
<trkpt lat="-27.274439" lon="151.290064">
  <ele>343.1</ele>
  <time>2026-09-01T19:56:23Z</time>
  <course>270.0</course>
  <speed>0.0</speed>
  <fix>3d</fix>
</trkpt>
<trkpt lat="-27.274439" lon="151.290064">
  <ele>343.12</ele>
  <time>2026-09-01T19:56:23Z</time>
  <course>10.71</course>
  <speed>0.0</speed>
  <fix>3d</fix>
</trkpt>
<trkpt lat="-27.274439" lon="151.290064">
  <ele>343.1</ele>
  <time>2026-09-01T19:56:23Z</time>
  <course>270.0</course>
  <speed>0.0</speed>
  <fix>3d</fix>
</trkpt>
<trkpt lat="-27.274439" lon="151.290064">
  <ele>343.12</ele>
  <time>2026-09-01T19:56:23Z</time>
  <course>10.71</course>
  <speed>0.0</speed>
  <fix>3d</fix>
</trkpt>
<trkpt lat="-27.274439" lon="151.290064">
  <ele>343.1</ele>
  <time>2026-09-01T19:56:23Z</time>
  <course>270.0</course>
  <speed>0.0</speed>
  <fix>3d</fix>
</trkpt>
<trkpt lat="-27.274439" lon="151.290064">
  <ele>343.13</ele>
  <time>2026-09-01T19:56:23Z</time>
  <course>10.71</course>
  <speed>0.0</speed>
  <fix>3d</fix>
</trkpt>
<trkpt lat="-27.274439" lon="151.290064">
  <ele>343.1</ele>
  <time>2026-09-01T19:56:23Z</time>
  <course>270.0</course>
  <speed>0.0</speed>
  <fix>3d</fix>
</trkpt>
<trkpt lat="-27.274439" lon="151.290064">
  <ele>343.13</ele>
  <time>2026-09-01T19:56:23Z</time>
  <course>10.71</course>
  <speed>0.0</speed>
  <fix>3d</fix>
</trkpt>
<trkpt lat="-27.274439" lon="151.290064">
  <ele>343.1</ele>
  <time>2026-09-01T19:56:23Z</time>
  <course>270.0</course>
  <speed>0.0</speed>
  <fix>3d</fix>
</trkpt>
<trkpt lat="-27.274439" lon="151.290064">
  <ele>343.14</ele>
  <time>2026-09-01T19:56:23Z</time>
  <course>10.71</course>
  <speed>0.0</speed>
  <fix>3d</fix>
</trkpt>
<trkpt lat="-27.274439" lon="151.290064">
  <ele>343.1</ele>
  <time>2026-09-01T19:56:23Z</time>
  <course>270.0</course>
  <speed>0.0</speed>
  <fix>3d</fix>
</trkpt>
<trkpt lat="-27.274439" lon="151.290064">
  <ele>343.14</ele>
  <time>2026-09-01T19:56:23Z</time>
  <course>10.71</course>
  <speed>0.0</speed>
  <fix>3d</fix>
</trkpt>
<trkpt lat="-27.274439" lon="151.290064">
  <ele>343.1</ele>
  <time>2026-09-01T19:56:23Z</time>
  <course>270.0</course>
  <speed>0.0</speed>
  <fix>3d</fix>
</trkpt>
<trkpt lat="-27.274439" lon="151.290064">
  <ele>343.15</ele>
  <time>2026-09-01T19:56:23Z</time>
  <course>10.71</course>
  <speed>0.0</speed>
  <fix>3d</fix>
</trkpt>
<trkpt lat="-27.274439" lon="151.290064">
  <ele>343.1</ele>
  <time>2026-09-01T19:56:23Z</time>
  <course>270.0</course>
  <speed>0.0</speed>
  <fix>3d</fix>
</trkpt>
<trkpt lat="-27.274439" lon="151.290064">
  <ele>343.15</ele>
  <time>2026-09-01T19:56:23Z</time>
  <course>10.71</course>
  <speed>0.0</speed>
  <fix>3d</fix>
</trkpt>
<trkpt lat="-27.274439" lon="151.290064">
  <ele>343.1</ele>
  <time>2026-09-01T19:56:23Z</time>
  <course>270.0</course>
  <speed>0.0</speed>
  <fix>3d</fix>
</trkpt>
<trkpt lat="-27.274439" lon="151.290064">
  <ele>343.15</ele>
  <time>2026-09-01T19:56:23Z</time>
  <course>10.71</course>
  <speed>0.0</speed>
  <fix>3d</fix>
</trkpt>
<trkpt lat="-27.274439" lon="151.290064">
  <ele>343.1</ele>
  <time>2026-09-01T19:56:23Z</time>
  <course>270.0</course>
  <speed>0.0</speed>
  <fix>3d</fix>
</trkpt>
<trkpt lat="-27.274439" lon="151.290064">
  <ele>343.16</ele>
  <time>2026-09-01T19:56:23Z</time>
  <course>10.71</course>
  <speed>0.0</speed>
  <fix>3d</fix>
</trkpt>
<trkpt lat="-27.274439" lon="151.290064">
  <ele>343.1</ele>
  <time>2026-09-01T19:56:23Z</time>
  <course>270.0</course>
  <speed>0.0</speed>
  <fix>3d</fix>
</trkpt>
<trkpt lat="-27.274439" lon="151.290064">
  <ele>343.16</ele>
  <time>2026-09-01T19:56:23Z</time>
  <course>10.71</course>
  <speed>0.0</speed>
  <fix>3d</fix>
</trkpt>
<trkpt lat="-27.274439" lon="151.290064">
  <ele>343.1</ele>
  <time>2026-09-01T19:56:23Z</time>
  <course>270.0</course>
  <speed>0.0</speed>
  <fix>3d</fix>
</trkpt>
<trkpt lat="-27.274439" lon="151.290064">
  <ele>343.16</ele>
  <time>2026-09-01T19:56:23Z</time>
  <course>10.71</course>
  <speed>0.0</speed>
  <fix>3d</fix>
</trkpt>
<trkpt lat="-27.274439" lon="151.290064">
  <ele>343.1</ele>
  <time>2026-09-01T19:56:23Z</time>
  <course>270.0</course>
  <speed>0.0</speed>
  <fix>3d</fix>
</trkpt>
<trkpt lat="-27.274439" lon="151.290064">
  <ele>343.17</ele>
  <time>2026-09-01T19:56:23Z</time>
  <course>10.71</course>
  <speed>0.0</speed>
  <fix>3d</fix>
</trkpt>
<trkpt lat="-27.274439" lon="151.290064">
  <ele>343.1</ele>
  <time>2026-09-01T19:56:23Z</time>
  <course>270.0</course>
  <speed>0.0</speed>
  <fix>3d</fix>
</trkpt>
<trkpt lat="-27.274439" lon="151.290064">
  <ele>343.17</ele>
  <time>2026-09-01T19:56:23Z</time>
  <course>10.71</course>
  <speed>0.0</speed>
  <fix>3d</fix>
</trkpt>
<trkpt lat="-27.274439" lon="151.290064">
  <ele>343.1</ele>
  <time>2026-09-01T19:56:23Z</time>
  <course>270.0</course>
  <speed>0.0</speed>
  <fix>3d</fix>
</trkpt>
<trkpt lat="-27.274439" lon="151.290064">
  <ele>343.18</ele>
  <time>2026-09-01T19:56:23Z</time>
  <course>10.71</course>
  <speed>0.0</speed>
  <fix>3d</fix>
</trkpt>
<trkpt lat="-27.274439" lon="151.290064">
  <ele>343.1</ele>
  <time>2026-09-01T19:56:23Z</time>
  <course>270.0</course>
  <speed>0.0</speed>
  <fix>3d</fix>
</trkpt>
<trkpt lat="-27.274439" lon="151.290064">
  <ele>343.18</ele>
  <time>2026-09-01T19:56:23Z</time>
  <course>10.71</course>
  <speed>0.0</speed>
  <fix>3d</fix>
</trkpt>
<trkpt lat="-27.274439" lon="151.290064">
  <ele>343.1</ele>
  <time>2026-09-01T19:56:23Z</time>
  <course>270.0</course>
  <speed>0.0</speed>
  <fix>3d</fix>
</trkpt>
<trkpt lat="-27.274439" lon="151.290064">
  <ele>343.18</ele>
  <time>2026-09-01T19:56:23Z</time>
  <course>10.71</course>
  <speed>0.0</speed>
  <fix>3d</fix>
</trkpt>
<trkpt lat="-27.274439" lon="151.290064">
  <ele>343.1</ele>
  <time>2026-09-01T19:56:23Z</time>
  <course>270.0</course>
  <speed>0.0</speed>
  <fix>3d</fix>
</trkpt>
<trkpt lat="-27.274439" lon="151.290064">
  <ele>343.18</ele>
  <time>2026-09-01T19:56:23Z</time>
  <course>10.71</course>
  <speed>0.0</speed>
  <fix>3d</fix>
</trkpt>
<trkpt lat="-27.274439" lon="151.290064">
  <ele>343.1</ele>
  <time>2026-09-01T19:56:23Z</time>
  <course>270.0</course>
  <speed>0.0</speed>
  <fix>3d</fix>
</trkpt>
<trkpt lat="-27.274439" lon="151.290064">
  <ele>343.19</ele>
  <time>2026-09-01T19:56:23Z</time>
  <course>10.71</course>
  <speed>0.0</speed>
  <fix>3d</fix>
</trkpt>
<trkpt lat="-27.274439" lon="151.290064">
  <ele>343.1</ele>
  <time>2026-09-01T19:56:23Z</time>
  <course>270.0</course>
  <speed>0.0</speed>
  <fix>3d</fix>
</trkpt>
<trkpt lat="-27.274439" lon="151.290064">
  <ele>343.19</ele>
  <time>2026-09-01T19:56:23Z</time>
  <course>10.71</course>
  <speed>0.0</speed>
  <fix>3d</fix>
</trkpt>
<trkpt lat="-27.274439" lon="151.290064">
  <ele>343.1</ele>
  <time>2026-09-01T19:56:23Z</time>
  <course>270.0</course>
  <speed>0.0</speed>
  <fix>3d</fix>
</trkpt>
<trkpt lat="-27.274439" lon="151.290064">
  <ele>343.19</ele>
  <time>2026-09-01T19:56:23Z</time>
  <course>10.71</course>
  <speed>0.0</speed>
  <fix>3d</fix>
</trkpt>
<trkpt lat="-27.274439" lon="151.290064">
  <ele>343.1</ele>
  <time>2026-09-01T19:56:23Z</time>
  <course>270.0</course>
  <speed>0.0</speed>
  <fix>3d</fix>
</trkpt>
<trkpt lat="-27.274439" lon="151.290064">
  <ele>343.19</ele>
  <time>2026-09-01T19:56:23Z</time>
  <course>10.71</course>
  <speed>0.0</speed>
  <fix>3d</fix>
</trkpt>
<trkpt lat="-27.274439" lon="151.290064">
  <ele>343.1</ele>
  <time>2026-09-01T19:56:23Z</time>
  <course>270.0</course>
  <speed>0.0</speed>
  <fix>3d</fix>
</trkpt>
<trkpt lat="-27.274439" lon="151.290064">
  <ele>343.19</ele>
  <time>2026-09-01T19:56:23Z</time>
  <course>10.71</course>
  <speed>0.0</speed>
  <fix>3d</fix>
</trkpt>
<trkpt lat="-27.274439" lon="151.290064">
  <ele>343.1</ele>
  <time>2026-09-01T19:56:23Z</time>
  <course>270.0</course>
  <speed>0.0</speed>
  <fix>3d</fix>
</trkpt>
<trkpt lat="-27.274439" lon="151.290064">
  <ele>343.19</ele>
  <time>2026-09-01T19:56:23Z</time>
  <course>10.71</course>
  <speed>0.0</speed>
  <fix>3d</fix>
</trkpt>
<trkpt lat="-27.274439" lon="151.290064">
  <ele>343.1</ele>
  <time>2026-09-01T19:56:23Z</time>
  <course>270.0</course>
  <speed>0.0</speed>
  <fix>3d</fix>
</trkpt>
<trkpt lat="-27.274439" lon="151.290064">
  <ele>343.19</ele>
  <time>2026-09-01T19:56:23Z</time>
  <course>10.71</course>
  <speed>0.0</speed>
  <fix>3d</fix>
</trkpt>
<trkpt lat="-27.274439" lon="151.290064">
  <ele>343.1</ele>
  <time>2026-09-01T19:56:23Z</time>
  <course>270.0</course>
  <speed>0.0</speed>
  <fix>3d</fix>
</trkpt>
<trkpt lat="-27.274439" lon="151.290064">
  <ele>343.19</ele>
  <time>2026-09-01T19:56:23Z</time>
  <course>10.71</course>
  <speed>0.0</speed>
  <fix>3d</fix>
</trkpt>
<trkpt lat="-27.274439" lon="151.290064">
  <ele>343.1</ele>
  <time>2026-09-01T19:56:23Z</time>
  <course>110.07</course>
  <speed>0.0</speed>
  <fix>3d</fix>
</trkpt>
<trkpt lat="-27.274439" lon="151.290064">
  <ele>343.19</ele>
  <time>2026-09-01T19:56:23Z</time>
  <course>10.71</course>
  <speed>0.0</speed>
  <fix>3d</fix>
</trkpt>
<trkpt lat="-27.274439" lon="151.290064">
  <ele>343.19</ele>
  <time>2026-09-01T19:56:23Z</time>
  <course>10.71</course>
  <speed>0.0</speed>
  <fix>3d</fix>
</trkpt>
<trkpt lat="-27.274439" lon="151.290064">
  <ele>343.1</ele>
  <time>2026-09-01T19:56:23Z</time>
  <course>110.07</course>
  <speed>0.0</speed>
  <fix>3d</fix>
</trkpt>
<trkpt lat="-27.274439" lon="151.290064">
  <ele>343.19</ele>
  <time>2026-09-01T19:56:23Z</time>
  <course>10.71</course>
  <speed>0.0</speed>
  <fix>3d</fix>
</trkpt>
<trkpt lat="-27.274439" lon="151.290064">
  <ele>343.19</ele>
  <time>2026-09-01T19:56:23Z</time>
  <course>10.71</course>
  <speed>0.0</speed>
  <fix>3d</fix>
</trkpt>
<trkpt lat="-27.274439" lon="151.290064">
  <ele>343.1</ele>
  <time>2026-09-01T19:56:23Z</time>
  <course>113.8</course>
  <speed>0.0</speed>
  <fix>3d</fix>
</trkpt>
<trkpt lat="-27.274439" lon="151.290064">
  <ele>343.19</ele>
  <time>2026-09-01T19:56:23Z</time>
  <course>10.71</course>
  <speed>0.0</speed>
  <fix>3d</fix>
</trkpt>
<trkpt lat="-27.274439" lon="151.290064">
  <ele>343.19</ele>
  <time>2026-09-01T19:56:23Z</time>
  <course>10.71</course>
  <speed>0.0</speed>
  <fix>3d</fix>
</trkpt>
<trkpt lat="-27.274439" lon="151.290064">
  <ele>343.1</ele>
  <time>2026-09-01T19:56:23Z</time>
  <course>113.8</course>
  <speed>0.0</speed>
  <fix>3d</fix>
</trkpt>
<trkpt lat="-27.274439" lon="151.290064">
  <ele>343.19</ele>
  <time>2026-09-01T19:56:23Z</time>
  <course>10.71</course>
  <speed>0.0</speed>
  <fix>3d</fix>
</trkpt>
<trkpt lat="-27.274439" lon="151.290064">
  <ele>343.19</ele>
  <time>2026-09-01T19:56:23Z</time>
  <course>10.71</course>
  <speed>0.0</speed>
  <fix>3d</fix>
</trkpt>
<trkpt lat="-27.274439" lon="151.290064">
  <ele>343.1</ele>
  <time>2026-09-01T19:56:23Z</time>
  <course>137.97</course>
  <speed>0.0</speed>
  <fix>3d</fix>
</trkpt>
<trkpt lat="-27.274439" lon="151.290064">
  <ele>343.19</ele>
  <time>2026-09-01T19:56:23Z</time>
  <course>10.71</course>
  <speed>0.0</speed>
  <fix>3d</fix>
</trkpt>
<trkpt lat="-27.274439" lon="151.290064">
  <ele>343.2</ele>
  <time>2026-09-01T19:56:23Z</time>
  <course>10.71</course>
  <speed>0.0</speed>
  <fix>3d</fix>
</trkpt>
<trkpt lat="-27.274439" lon="151.290064">
  <ele>343.1</ele>
  <time>2026-09-01T19:56:23Z</time>
  <course>137.97</course>
  <speed>0.0</speed>
  <fix>3d</fix>
</trkpt>
<trkpt lat="-27.274439" lon="151.290064">
  <ele>343.2</ele>
  <time>2026-09-01T19:56:23Z</time>
  <course>10.71</course>
  <speed>0.0</speed>
  <fix>3d</fix>
</trkpt>
<trkpt lat="-27.274439" lon="151.290064">
  <ele>343.2</ele>
  <time>2026-09-01T19:56:23Z</time>
  <course>10.71</course>
  <speed>0.0</speed>
  <fix>3d</fix>
</trkpt>
<trkpt lat="-27.274439" lon="151.290064">
  <ele>343.1</ele>
  <time>2026-09-01T19:56:23Z</time>
  <course>320.11</course>
  <speed>0.0</speed>
  <fix>3d</fix>
</trkpt>
<trkpt lat="-27.274439" lon="151.290064">
  <ele>343.2</ele>
  <time>2026-09-01T19:56:23Z</time>
  <course>10.71</course>
  <speed>0.0</speed>
  <fix>3d</fix>
</trkpt>
<trkpt lat="-27.274439" lon="151.290064">
  <ele>343.2</ele>
  <time>2026-09-01T19:56:23Z</time>
  <course>10.71</course>
  <speed>0.0</speed>
  <fix>3d</fix>
</trkpt>
<trkpt lat="-27.274439" lon="151.290064">
  <ele>343.1</ele>
  <time>2026-09-01T19:56:23Z</time>
  <course>320.11</course>
  <speed>0.0</speed>
  <fix>3d</fix>
</trkpt>
<trkpt lat="-27.274439" lon="151.290064">
  <ele>343.2</ele>
  <time>2026-09-01T19:56:23Z</time>
  <course>10.71</course>
  <speed>0.0</speed>
  <fix>3d</fix>
</trkpt>
<trkpt lat="-27.274439" lon="151.290064">
  <ele>343.2</ele>
  <time>2026-09-01T19:56:23Z</time>
  <course>10.71</course>
  <speed>0.0</speed>
  <fix>3d</fix>
</trkpt>
<trkpt lat="-27.274439" lon="151.290064">
  <ele>343.1</ele>
  <time>2026-09-01T19:56:23Z</time>
  <course>310.83</course>
  <speed>0.0</speed>
  <fix>3d</fix>
</trkpt>
<trkpt lat="-27.274439" lon="151.290064">
  <ele>343.2</ele>
  <time>2026-09-01T19:56:23Z</time>
  <course>10.71</course>
  <speed>0.0</speed>
  <fix>3d</fix>
</trkpt>
<trkpt lat="-27.274439" lon="151.290064">
  <ele>343.22</ele>
  <time>2026-09-01T19:56:23Z</time>
  <course>10.71</course>
  <speed>0.0</speed>
  <fix>3d</fix>
</trkpt>
<trkpt lat="-27.274439" lon="151.290064">
  <ele>343.1</ele>
  <time>2026-09-01T19:56:23Z</time>
  <course>310.83</course>
  <speed>0.0</speed>
  <fix>3d</fix>
</trkpt>
<trkpt lat="-27.274439" lon="151.290064">
  <ele>343.22</ele>
  <time>2026-09-01T19:56:23Z</time>
  <course>10.71</course>
  <speed>0.0</speed>
  <fix>3d</fix>
</trkpt>
<trkpt lat="-27.274439" lon="151.290064">
  <ele>343.25</ele>
  <time>2026-09-01T19:56:23Z</time>
  <course>10.71</course>
  <speed>0.0</speed>
  <fix>3d</fix>
</trkpt>
<trkpt lat="-27.274439" lon="151.290064">
  <ele>343.1</ele>
  <time>2026-09-01T19:56:23Z</time>
  <course>7.74</course>
  <speed>0.0</speed>
  <fix>3d</fix>
</trkpt>
<trkpt lat="-27.274439" lon="151.290064">
  <ele>343.26</ele>
  <time>2026-09-01T19:56:23Z</time>
  <course>10.71</course>
  <speed>0.0</speed>
  <fix>3d</fix>
</trkpt>
<trkpt lat="-27.274439" lon="151.290064">
  <ele>343.29</ele>
  <time>2026-09-01T19:56:23Z</time>
  <course>10.71</course>
  <speed>0.0</speed>
  <fix>3d</fix>
</trkpt>
<trkpt lat="-27.274439" lon="151.290064">
  <ele>343.1</ele>
  <time>2026-09-01T19:56:23Z</time>
  <course>7.74</course>
  <speed>0.0</speed>
  <fix>3d</fix>
</trkpt>
<trkpt lat="-27.274439" lon="151.290064">
  <ele>343.3</ele>
  <time>2026-09-01T19:56:23Z</time>
  <course>10.71</course>
  <speed>0.0</speed>
  <fix>3d</fix>
</trkpt>
<trkpt lat="-27.274439" lon="151.290064">
  <ele>343.35</ele>
  <time>2026-09-01T19:56:23Z</time>
  <course>10.71</course>
  <speed>0.0</speed>
  <fix>3d</fix>
</trkpt>
<trkpt lat="-27.274439" lon="151.290064">
  <ele>343.14</ele>
  <time>2026-09-01T19:56:23Z</time>
  <course>7.93</course>
  <speed>0.0</speed>
  <fix>3d</fix>
</trkpt>
<trkpt lat="-27.274439" lon="151.290064">
  <ele>343.35</ele>
  <time>2026-09-01T19:56:23Z</time>
  <course>10.71</course>
  <speed>0.0</speed>
  <fix>3d</fix>
</trkpt>
<trkpt lat="-27.274439" lon="151.290064">
  <ele>343.45</ele>
  <time>2026-09-01T19:56:23Z</time>
  <course>10.71</course>
  <speed>0.02</speed>
  <fix>3d</fix>
</trkpt>
<trkpt lat="-27.274439" lon="151.290064">
  <ele>343.14</ele>
  <time>2026-09-01T19:56:23Z</time>
  <course>7.93</course>
  <speed>0.0</speed>
  <fix>3d</fix>
</trkpt>
<trkpt lat="-27.274439" lon="151.290064">
  <ele>343.46</ele>
  <time>2026-09-01T19:56:23Z</time>
  <course>10.71</course>
  <speed>0.02</speed>
  <fix>3d</fix>
</trkpt>
<trkpt lat="-27.274439" lon="151.290064">
  <ele>343.63</ele>
  <time>2026-09-01T19:56:23Z</time>
  <course>10.71</course>
  <speed>0.06082762530298219</speed>
  <fix>3d</fix>
</trkpt>
<trkpt lat="-27.274439" lon="151.290064">
  <ele>343.25</ele>
  <time>2026-09-01T19:56:23Z</time>
  <course>6.02</course>
  <speed>0.01</speed>
  <fix>3d</fix>
</trkpt>
<trkpt lat="-27.274439" lon="151.290064">
  <ele>343.69</ele>
  <time>2026-09-01T19:56:23Z</time>
  <course>10.71</course>
  <speed>0.06082762530298219</speed>
  <fix>3d</fix>
</trkpt>
<trkpt lat="-27.2744389" lon="151.290064">
  <ele>343.86</ele>
  <time>2026-09-01T19:56:23Z</time>
  <course>10.71</course>
  <speed>0.09055385138137417</speed>
  <fix>3d</fix>
</trkpt>
<trkpt lat="-27.274439" lon="151.290064">
  <ele>343.25</ele>
  <time>2026-09-01T19:56:23Z</time>
  <course>6.02</course>
  <speed>0.01</speed>
  <fix>3d</fix>
</trkpt>
<trkpt lat="-27.2744389" lon="151.290064">
  <ele>343.92</ele>
  <time>2026-09-01T19:56:23Z</time>
  <course>10.71</course>
  <speed>0.1019803902718557</speed>
  <fix>3d</fix>
</trkpt>
<trkpt lat="-27.2744388" lon="151.290064">
  <ele>344.09</ele>
  <time>2026-09-01T19:56:23Z</time>
  <course>10.71</course>
  <speed>0.12165525060596438</speed>
  <fix>3d</fix>
</trkpt>
<trkpt lat="-27.274439" lon="151.290064">
  <ele>343.52</ele>
  <time>2026-09-01T19:56:23Z</time>
  <course>6.08</course>
  <speed>0.06</speed>
  <fix>3d</fix>
</trkpt>
<trkpt lat="-27.2744388" lon="151.290064">
  <ele>344.15</ele>
  <time>2026-09-01T19:56:23Z</time>
  <course>10.71</course>
  <speed>0.13152946437965907</speed>
  <fix>3d</fix>
</trkpt>
<trkpt lat="-27.2744387" lon="151.290064">
  <ele>344.32</ele>
  <time>2026-09-01T19:56:23Z</time>
  <course>10.7</course>
  <speed>0.15132745950421556</speed>
  <fix>3d</fix>
</trkpt>
<trkpt lat="-27.274439" lon="151.290064">
  <ele>343.52</ele>
  <time>2026-09-01T19:56:23Z</time>
  <course>6.08</course>
  <speed>0.06</speed>
  <fix>3d</fix>
</trkpt>
<trkpt lat="-27.2744387" lon="151.290064">
  <ele>344.37</ele>
  <time>2026-09-01T19:56:23Z</time>
  <course>10.7</course>
  <speed>0.16124515496597097</speed>
  <fix>3d</fix>
</trkpt>
<trkpt lat="-27.2744386" lon="151.2900641">
  <ele>344.55</ele>
  <time>2026-09-01T19:56:23Z</time>
  <course>10.69</course>
  <speed>0.17262676501632068</speed>
  <fix>3d</fix>
</trkpt>
<trkpt lat="-27.2744389" lon="151.290064">
  <ele>343.95</ele>
  <time>2026-09-01T19:56:23Z</time>
  <course>6.32</course>
  <speed>0.13</speed>
  <fix>3d</fix>
</trkpt>
<trkpt lat="-27.2744385" lon="151.2900641">
  <ele>344.61</ele>
  <time>2026-09-01T19:56:23Z</time>
  <course>10.68</course>
  <speed>0.1824828759089466</speed>
  <fix>3d</fix>
</trkpt>
<trkpt lat="-27.2744384" lon="151.2900641">
  <ele>344.78</ele>
  <time>2026-09-01T19:56:23Z</time>
  <course>10.68</course>
  <speed>0.19235384061671343</speed>
  <fix>3d</fix>
</trkpt>
<trkpt lat="-27.2744389" lon="151.290064">
  <ele>343.95</ele>
  <time>2026-09-01T19:56:23Z</time>
  <course>6.32</course>
  <speed>0.13</speed>
  <fix>3d</fix>
</trkpt>
<trkpt lat="-27.2744384" lon="151.2900641">
  <ele>344.84</ele>
  <time>2026-09-01T19:56:23Z</time>
  <course>10.67</course>
  <speed>0.20223748416156684</speed>
  <fix>3d</fix>
</trkpt>
<trkpt lat="-27.2744382" lon="151.2900641">
  <ele>345.01</ele>
  <time>2026-09-01T19:56:23Z</time>
  <course>10.65</course>
  <speed>0.21213203435596426</speed>
  <fix>3d</fix>
</trkpt>
<trkpt lat="-27.2744385" lon="151.290064">
  <ele>344.41</ele>
  <time>2026-09-01T19:56:23Z</time>
  <course>6.49</course>
  <speed>0.18</speed>
  <fix>3d</fix>
</trkpt>
<trkpt lat="-27.2744382" lon="151.2900641">
  <ele>345.02</ele>
  <time>2026-09-01T19:56:23Z</time>
  <course>10.65</course>
  <speed>0.21213203435596426</speed>
  <fix>3d</fix>
</trkpt>
<trkpt lat="-27.274438" lon="151.2900641">
  <ele>345.24</ele>
  <time>2026-09-01T19:56:23Z</time>
  <course>10.65</course>
  <speed>0.2220360331117452</speed>
  <fix>3d</fix>
</trkpt>
<trkpt lat="-27.2744385" lon="151.290064">
  <ele>344.41</ele>
  <time>2026-09-01T19:56:23Z</time>
  <course>6.49</course>
  <speed>0.18</speed>
  <fix>3d</fix>
</trkpt>
<trkpt lat="-27.274438" lon="151.2900641">
  <ele>345.29</ele>
  <time>2026-09-01T19:56:23Z</time>
  <course>10.65</course>
  <speed>0.23345235059857505</speed>
  <fix>3d</fix>
</trkpt>
<trkpt lat="-27.2744378" lon="151.2900642">
  <ele>345.46</ele>
  <time>2026-09-01T19:56:23Z</time>
  <course>10.65</course>
  <speed>0.23345235059857505</speed>
  <fix>3d</fix>
</trkpt>
<trkpt lat="-27.2744382" lon="151.290064">
  <ele>344.87</ele>
  <time>2026-09-01T19:56:23Z</time>
  <course>6.6</course>
  <speed>0.22</speed>
  <fix>3d</fix>
</trkpt>
<trkpt lat="-27.2744378" lon="151.2900642">
  <ele>345.52</ele>
  <time>2026-09-01T19:56:23Z</time>
  <course>10.65</course>
  <speed>0.23345235059857505</speed>
  <fix>3d</fix>
</trkpt>
<trkpt lat="-27.2744376" lon="151.2900642">
  <ele>345.68</ele>
  <time>2026-09-01T19:56:23Z</time>
  <course>10.65</course>
  <speed>0.24331050121192876</speed>
  <fix>3d</fix>
</trkpt>
<trkpt lat="-27.2744382" lon="151.290064">
  <ele>344.87</ele>
  <time>2026-09-01T19:56:23Z</time>
  <course>6.6</course>
  <speed>0.22</speed>
  <fix>3d</fix>
</trkpt>
<trkpt lat="-27.2744376" lon="151.2900642">
  <ele>345.69</ele>
  <time>2026-09-01T19:56:23Z</time>
  <course>10.65</course>
  <speed>0.24331050121192876</speed>
  <fix>3d</fix>
</trkpt>
<trkpt lat="-27.2744374" lon="151.2900642">
  <ele>345.88</ele>
  <time>2026-09-01T19:56:23Z</time>
  <course>10.64</course>
  <speed>0.24331050121192876</speed>
  <fix>3d</fix>
</trkpt>
<trkpt lat="-27.2744378" lon="151.2900641">
  <ele>345.31</ele>
  <time>2026-09-01T19:56:23Z</time>
  <course>6.71</course>
  <speed>0.24</speed>
  <fix>3d</fix>
</trkpt>
<trkpt lat="-27.2744374" lon="151.2900642">
  <ele>345.89</ele>
  <time>2026-09-01T19:56:23Z</time>
  <course>10.64</course>
  <speed>0.24331050121192876</speed>
  <fix>3d</fix>
</trkpt>
<trkpt lat="-27.2744372" lon="151.2900642">
  <ele>346.08</ele>
  <time>2026-09-01T19:56:23Z</time>
  <course>10.65</course>
  <speed>0.23194827009486402</speed>
  <fix>3d</fix>
</trkpt>
<trkpt lat="-27.2744378" lon="151.2900641">
  <ele>345.31</ele>
  <time>2026-09-01T19:56:23Z</time>
  <course>6.71</course>
  <speed>0.24</speed>
  <fix>3d</fix>
</trkpt>
<trkpt lat="-27.2744371" lon="151.2900642">
  <ele>346.12</ele>
  <time>2026-09-01T19:56:23Z</time>
  <course>10.65</course>
  <speed>0.23194827009486402</speed>
  <fix>3d</fix>
</trkpt>
<trkpt lat="-27.274437" lon="151.2900643">
  <ele>346.26</ele>
  <time>2026-09-01T19:56:23Z</time>
  <course>10.65</course>
  <speed>0.2220360331117452</speed>
  <fix>3d</fix>
</trkpt>
<trkpt lat="-27.2744373" lon="151.2900641">
  <ele>345.71</ele>
  <time>2026-09-01T19:56:23Z</time>
  <course>6.85</course>
  <speed>0.25</speed>
  <fix>3d</fix>
</trkpt>
<trkpt lat="-27.2744369" lon="151.2900643">
  <ele>346.3</ele>
  <time>2026-09-01T19:56:23Z</time>
  <course>10.65</course>
  <speed>0.2220360331117452</speed>
  <fix>3d</fix>
</trkpt>
<trkpt lat="-27.2744368" lon="151.2900643">
  <ele>346.43</ele>
  <time>2026-09-01T19:56:23Z</time>
  <course>10.66</course>
  <speed>0.21213203435596426</speed>
  <fix>3d</fix>
</trkpt>
<trkpt lat="-27.2744373" lon="151.2900641">
  <ele>345.71</ele>
  <time>2026-09-01T19:56:23Z</time>
  <course>6.85</course>
  <speed>0.25</speed>
  <fix>3d</fix>
</trkpt>
<trkpt lat="-27.2744367" lon="151.2900643">
  <ele>346.48</ele>
  <time>2026-09-01T19:56:23Z</time>
  <course>10.66</course>
  <speed>0.21213203435596426</speed>
  <fix>3d</fix>
</trkpt>
<trkpt lat="-27.2744366" lon="151.2900643">
  <ele>346.59</ele>
  <time>2026-09-01T19:56:23Z</time>
  <course>10.67</course>
  <speed>0.20223748416156684</speed>
  <fix>3d</fix>
</trkpt>
<trkpt lat="-27.2744369" lon="151.2900642">
  <ele>346.08</ele>
  <time>2026-09-01T19:56:23Z</time>
  <course>7.02</course>
  <speed>0.24</speed>
  <fix>3d</fix>
</trkpt>
<trkpt lat="-27.2744365" lon="151.2900643">
  <ele>346.63</ele>
  <time>2026-09-01T19:56:23Z</time>
  <course>10.67</course>
  <speed>0.19235384061671343</speed>
  <fix>3d</fix>
</trkpt>
<trkpt lat="-27.2744364" lon="151.2900643">
  <ele>346.74</ele>
  <time>2026-09-01T19:56:23Z</time>
  <course>10.67</course>
  <speed>0.18110770276274835</speed>
  <fix>3d</fix>
</trkpt>
<trkpt lat="-27.2744369" lon="151.2900642">
  <ele>346.08</ele>
  <time>2026-09-01T19:56:23Z</time>
  <course>7.02</course>
  <speed>0.24</speed>
  <fix>3d</fix>
</trkpt>
<trkpt lat="-27.2744364" lon="151.2900643">
  <ele>346.79</ele>
  <time>2026-09-01T19:56:23Z</time>
  <course>10.68</course>
  <speed>0.18110770276274835</speed>
  <fix>3d</fix>
</trkpt>
<trkpt lat="-27.2744362" lon="151.2900643">
  <ele>346.89</ele>
  <time>2026-09-01T19:56:23Z</time>
  <course>10.68</course>
  <speed>0.16124515496597097</speed>
  <fix>3d</fix>
</trkpt>
<trkpt lat="-27.2744365" lon="151.2900642">
  <ele>346.41</ele>
  <time>2026-09-01T19:56:23Z</time>
  <course>7.27</course>
  <speed>0.21</speed>
  <fix>3d</fix>
</trkpt>
<trkpt lat="-27.2744362" lon="151.2900643">
  <ele>346.94</ele>
  <time>2026-09-01T19:56:23Z</time>
  <course>10.68</course>
  <speed>0.16124515496597097</speed>
  <fix>3d</fix>
</trkpt>
<trkpt lat="-27.2744361" lon="151.2900643">
  <ele>347.04</ele>
  <time>2026-09-01T19:56:23Z</time>
  <course>10.69</course>
  <speed>0.1414213562373095</speed>
  <fix>3d</fix>
</trkpt>
<trkpt lat="-27.2744365" lon="151.2900642">
  <ele>346.41</ele>
  <time>2026-09-01T19:56:23Z</time>
  <course>7.27</course>
  <speed>0.21</speed>
  <fix>3d</fix>
</trkpt>
<trkpt lat="-27.2744361" lon="151.2900643">
  <ele>347.07</ele>
  <time>2026-09-01T19:56:23Z</time>
  <course>10.69</course>
  <speed>0.1414213562373095</speed>
  <fix>3d</fix>
</trkpt>
<trkpt lat="-27.274436" lon="151.2900643">
  <ele>347.17</ele>
  <time>2026-09-01T19:56:23Z</time>
  <course>10.69</course>
  <speed>0.12041594578792296</speed>
  <fix>3d</fix>
</trkpt>
<trkpt lat="-27.2744361" lon="151.2900643">
  <ele>346.71</ele>
  <time>2026-09-01T19:56:23Z</time>
  <course>7.74</course>
  <speed>0.18</speed>
  <fix>3d</fix>
</trkpt>
<trkpt lat="-27.2744359" lon="151.2900644">
  <ele>347.21</ele>
  <time>2026-09-01T19:56:23Z</time>
  <course>10.69</course>
  <speed>0.12041594578792296</speed>
  <fix>3d</fix>
</trkpt>
<trkpt lat="-27.2744358" lon="151.2900644">
  <ele>347.3</ele>
  <time>2026-09-01T19:56:23Z</time>
  <course>10.7</course>
  <speed>0.1004987562112089</speed>
  <fix>3d</fix>
</trkpt>
<trkpt lat="-27.2744361" lon="151.2900643">
  <ele>346.71</ele>
  <time>2026-09-01T19:56:23Z</time>
  <course>7.74</course>
  <speed>0.18</speed>
  <fix>3d</fix>
</trkpt>
<trkpt lat="-27.2744358" lon="151.2900644">
  <ele>347.34</ele>
  <time>2026-09-01T19:56:23Z</time>
  <course>10.7</course>
  <speed>0.1004987562112089</speed>
  <fix>3d</fix>
</trkpt>
<trkpt lat="-27.2744357" lon="151.2900644">
  <ele>347.43</ele>
  <time>2026-09-01T19:56:23Z</time>
  <course>10.7</course>
  <speed>0.08062257748298549</speed>
  <fix>3d</fix>
</trkpt>
<trkpt lat="-27.2744358" lon="151.2900644">
  <ele>346.97</ele>
  <time>2026-09-01T19:56:23Z</time>
  <course>8.67</course>
  <speed>0.14</speed>
  <fix>3d</fix>
</trkpt>
<trkpt lat="-27.2744357" lon="151.2900644">
  <ele>347.44</ele>
  <time>2026-09-01T19:56:23Z</time>
  <course>10.7</course>
  <speed>0.08062257748298549</speed>
  <fix>3d</fix>
</trkpt>
<trkpt lat="-27.2744357" lon="151.2900644">
  <ele>347.56</ele>
  <time>2026-09-01T19:56:23Z</time>
  <course>10.71</course>
  <speed>0.06</speed>
  <fix>3d</fix>
</trkpt>
<trkpt lat="-27.2744358" lon="151.2900644">
  <ele>346.97</ele>
  <time>2026-09-01T19:56:23Z</time>
  <course>8.67</course>
  <speed>0.14</speed>
  <fix>3d</fix>
</trkpt>
<trkpt lat="-27.2744357" lon="151.2900644">
  <ele>347.56</ele>
  <time>2026-09-01T19:56:23Z</time>
  <course>10.71</course>
  <speed>0.06</speed>
  <fix>3d</fix>
</trkpt>
<trkpt lat="-27.2744356" lon="151.2900644">
  <ele>347.69</ele>
  <time>2026-09-01T19:56:23Z</time>
  <course>10.71</course>
  <speed>0.04</speed>
  <fix>3d</fix>
</trkpt>
<trkpt lat="-27.2744355" lon="151.2900644">
  <ele>347.24</ele>
  <time>2026-09-01T19:56:23Z</time>
  <course>10.73</course>
  <speed>0.09</speed>
  <fix>3d</fix>
</trkpt>
<trkpt lat="-27.2744356" lon="151.2900644">
  <ele>347.72</ele>
  <time>2026-09-01T19:56:23Z</time>
  <course>10.71</course>
  <speed>0.03</speed>
  <fix>3d</fix>
</trkpt>
<trkpt lat="-27.2744356" lon="151.2900644">
  <ele>347.81</ele>
  <time>2026-09-01T19:56:23Z</time>
  <course>10.72</course>
  <speed>0.02</speed>
  <fix>3d</fix>
</trkpt>
<trkpt lat="-27.2744355" lon="151.2900644">
  <ele>347.24</ele>
  <time>2026-09-01T19:56:23Z</time>
  <course>10.73</course>
  <speed>0.09</speed>
  <fix>3d</fix>
</trkpt>
<trkpt lat="-27.2744355" lon="151.2900644">
  <ele>347.85</ele>
  <time>2026-09-01T19:56:23Z</time>
  <course>10.73</course>
  <speed>0.01</speed>
  <fix>3d</fix>
</trkpt>
<trkpt lat="-27.2744355" lon="151.2900644">
  <ele>347.94</ele>
  <time>2026-09-01T19:56:23Z</time>
  <course>10.74</course>
  <speed>0.0</speed>
  <fix>3d</fix>
</trkpt>
<trkpt lat="-27.2744354" lon="151.2900644">
  <ele>347.49</ele>
  <time>2026-09-01T19:56:23Z</time>
  <course>16.28</course>
  <speed>0.05</speed>
  <fix>3d</fix>
</trkpt>
<trkpt lat="-27.2744355" lon="151.2900644">
  <ele>347.98</ele>
  <time>2026-09-01T19:56:23Z</time>
  <course>10.74</course>
  <speed>0.0</speed>
  <fix>3d</fix>
</trkpt>
<trkpt lat="-27.2744355" lon="151.2900644">
  <ele>348.07</ele>
  <time>2026-09-01T19:56:23Z</time>
  <course>10.76</course>
  <speed>0.01</speed>
  <fix>3d</fix>
</trkpt>
<trkpt lat="-27.2744354" lon="151.2900644">
  <ele>347.49</ele>
  <time>2026-09-01T19:56:23Z</time>
  <course>16.28</course>
  <speed>0.05</speed>
  <fix>3d</fix>
</trkpt>
<trkpt lat="-27.2744355" lon="151.2900644">
  <ele>348.1</ele>
  <time>2026-09-01T19:56:23Z</time>
  <course>10.77</course>
  <speed>0.01</speed>
  <fix>3d</fix>
</trkpt>
<trkpt lat="-27.2744355" lon="151.2900644">
  <ele>348.2</ele>
  <time>2026-09-01T19:56:23Z</time>
  <course>10.8</course>
  <speed>0.03</speed>
  <fix>3d</fix>
</trkpt>
<trkpt lat="-27.2744354" lon="151.2900645">
  <ele>347.75</ele>
  <time>2026-09-01T19:56:23Z</time>
  <course>53.18</course>
  <speed>0.01</speed>
  <fix>3d</fix>
</trkpt>
<trkpt lat="-27.2744355" lon="151.2900644">
  <ele>348.24</ele>
  <time>2026-09-01T19:56:23Z</time>
  <course>10.82</course>
  <speed>0.03</speed>
  <fix>3d</fix>
</trkpt>
<trkpt lat="-27.2744355" lon="151.2900644">
  <ele>348.34</ele>
  <time>2026-09-01T19:56:23Z</time>
  <course>10.88</course>
  <speed>0.0412310562561766</speed>
  <fix>3d</fix>
</trkpt>
<trkpt lat="-27.2744354" lon="151.2900645">
  <ele>347.75</ele>
  <time>2026-09-01T19:56:23Z</time>
  <course>53.18</course>
  <speed>0.01</speed>
  <fix>3d</fix>
</trkpt>
<trkpt lat="-27.2744355" lon="151.2900644">
  <ele>348.38</ele>
  <time>2026-09-01T19:56:23Z</time>
  <course>10.92</course>
  <speed>0.0412310562561766</speed>
  <fix>3d</fix>
</trkpt>
<trkpt lat="-27.2744356" lon="151.2900644">
  <ele>348.48</ele>
  <time>2026-09-01T19:56:23Z</time>
  <course>11.01</course>
  <speed>0.05099019513592785</speed>
  <fix>3d</fix>
</trkpt>
<trkpt lat="-27.2744354" lon="151.2900645">
  <ele>348.01</ele>
  <time>2026-09-01T19:56:23Z</time>
  <course>174.14</course>
  <speed>0.02</speed>
  <fix>3d</fix>
</trkpt>
<trkpt lat="-27.2744356" lon="151.2900644">
  <ele>348.52</ele>
  <time>2026-09-01T19:56:23Z</time>
  <course>11.03</course>
  <speed>0.06082762530298219</speed>
  <fix>3d</fix>
</trkpt>
<trkpt lat="-27.2744356" lon="151.2900644">
  <ele>348.62</ele>
  <time>2026-09-01T19:56:23Z</time>
  <course>11.08</course>
  <speed>0.07071067811865475</speed>
  <fix>3d</fix>
</trkpt>
<trkpt lat="-27.2744354" lon="151.2900645">
  <ele>348.01</ele>
  <time>2026-09-01T19:56:23Z</time>
  <course>174.14</course>
  <speed>0.02</speed>
  <fix>3d</fix>
</trkpt>
<trkpt lat="-27.2744356" lon="151.2900644">
  <ele>348.63</ele>
  <time>2026-09-01T19:56:23Z</time>
  <course>11.08</course>
  <speed>0.07071067811865475</speed>
  <fix>3d</fix>
</trkpt>
<trkpt lat="-27.2744356" lon="151.2900644">
  <ele>348.77</ele>
  <time>2026-09-01T19:56:23Z</time>
  <course>11.1</course>
  <speed>0.0824621125123532</speed>
  <fix>3d</fix>
</trkpt>
<trkpt lat="-27.2744355" lon="151.2900645">
  <ele>348.28</ele>
  <time>2026-09-01T19:56:23Z</time>
  <course>184.46</course>
  <speed>0.06</speed>
  <fix>3d</fix>
</trkpt>
<trkpt lat="-27.2744356" lon="151.2900644">
  <ele>348.77</ele>
  <time>2026-09-01T19:56:23Z</time>
  <course>11.1</course>
  <speed>0.0824621125123532</speed>
  <fix>3d</fix>
</trkpt>
<trkpt lat="-27.2744357" lon="151.2900644">
  <ele>348.91</ele>
  <time>2026-09-01T19:56:23Z</time>
  <course>11.09</course>
  <speed>0.09219544457292887</speed>
  <fix>3d</fix>
</trkpt>
<trkpt lat="-27.2744355" lon="151.2900645">
  <ele>348.28</ele>
  <time>2026-09-01T19:56:23Z</time>
  <course>184.46</course>
  <speed>0.06</speed>
  <fix>3d</fix>
</trkpt>
<trkpt lat="-27.2744357" lon="151.2900644">
  <ele>348.92</ele>
  <time>2026-09-01T19:56:23Z</time>
  <course>11.09</course>
  <speed>0.09219544457292887</speed>
  <fix>3d</fix>
</trkpt>
<trkpt lat="-27.2744357" lon="151.2900644">
  <ele>349.06</ele>
  <time>2026-09-01T19:56:23Z</time>
  <course>11.05</course>
  <speed>0.09055385138137417</speed>
  <fix>3d</fix>
</trkpt>
<trkpt lat="-27.2744356" lon="151.2900645">
  <ele>348.57</ele>
  <time>2026-09-01T19:56:23Z</time>
  <course>185.97</course>
  <speed>0.08</speed>
  <fix>3d</fix>
</trkpt>
<trkpt lat="-27.2744357" lon="151.2900644">
  <ele>349.07</ele>
  <time>2026-09-01T19:56:23Z</time>
  <course>11.05</course>
  <speed>0.09055385138137417</speed>
  <fix>3d</fix>
</trkpt>
<trkpt lat="-27.2744358" lon="151.2900644">
  <ele>349.21</ele>
  <time>2026-09-01T19:56:23Z</time>
  <course>11.01</course>
  <speed>0.1004987562112089</speed>
  <fix>3d</fix>
</trkpt>
<trkpt lat="-27.2744356" lon="151.2900645">
  <ele>348.57</ele>
  <time>2026-09-01T19:56:23Z</time>
  <course>185.97</course>
  <speed>0.08</speed>
  <fix>3d</fix>
</trkpt>
<trkpt lat="-27.2744358" lon="151.2900644">
  <ele>349.25</ele>
  <time>2026-09-01T19:56:23Z</time>
  <course>11.0</course>
  <speed>0.1004987562112089</speed>
  <fix>3d</fix>
</trkpt>
<trkpt lat="-27.2744359" lon="151.2900644">
  <ele>349.36</ele>
  <time>2026-09-01T19:56:23Z</time>
  <course>10.97</course>
  <speed>0.11045361017187261</speed>
  <fix>3d</fix>
</trkpt>
<trkpt lat="-27.2744357" lon="151.2900645">
  <ele>348.86</ele>
  <time>2026-09-01T19:56:23Z</time>
  <course>186.34</course>
  <speed>0.1</speed>
  <fix>3d</fix>
</trkpt>
<trkpt lat="-27.2744359" lon="151.2900644">
  <ele>349.4</ele>
  <time>2026-09-01T19:56:23Z</time>
  <course>10.96</course>
  <speed>0.1118033988749895</speed>
  <fix>3d</fix>
</trkpt>
<trkpt lat="-27.274436" lon="151.2900644">
  <ele>349.51</ele>
  <time>2026-09-01T19:56:23Z</time>
  <course>10.93</course>
  <speed>0.1118033988749895</speed>
  <fix>3d</fix>
</trkpt>
<trkpt lat="-27.2744357" lon="151.2900645">
  <ele>348.86</ele>
  <time>2026-09-01T19:56:23Z</time>
  <course>186.34</course>
  <speed>0.1</speed>
  <fix>3d</fix>
</trkpt>
<trkpt lat="-27.274436" lon="151.2900644">
  <ele>349.51</ele>
  <time>2026-09-01T19:56:23Z</time>
  <course>10.93</course>
  <speed>0.1118033988749895</speed>
  <fix>3d</fix>
</trkpt>
<trkpt lat="-27.2744361" lon="151.2900644">
  <ele>349.66</ele>
  <time>2026-09-01T19:56:23Z</time>
  <course>10.91</course>
  <speed>0.12041594578792296</speed>
  <fix>3d</fix>
</trkpt>
<trkpt lat="-27.2744359" lon="151.2900645">
  <ele>349.15</ele>
  <time>2026-09-01T19:56:23Z</time>
  <course>186.52</course>
  <speed>0.11</speed>
  <fix>3d</fix>
</trkpt>
<trkpt lat="-27.2744361" lon="151.2900644">
  <ele>349.66</ele>
  <time>2026-09-01T19:56:23Z</time>
  <course>10.91</course>
  <speed>0.12041594578792296</speed>
  <fix>3d</fix>
</trkpt>
<trkpt lat="-27.2744362" lon="151.2900644">
  <ele>349.8</ele>
  <time>2026-09-01T19:56:23Z</time>
  <course>10.89</course>
  <speed>0.12165525060596438</speed>
  <fix>3d</fix>
</trkpt>
<trkpt lat="-27.2744359" lon="151.2900645">
  <ele>349.15</ele>
  <time>2026-09-01T19:56:23Z</time>
  <course>186.52</course>
  <speed>0.11</speed>
  <fix>3d</fix>
</trkpt>
<trkpt lat="-27.2744362" lon="151.2900644">
  <ele>349.81</ele>
  <time>2026-09-01T19:56:23Z</time>
  <course>10.89</course>
  <speed>0.12041594578792296</speed>
  <fix>3d</fix>
</trkpt>
<trkpt lat="-27.2744363" lon="151.2900644">
  <ele>349.95</ele>
  <time>2026-09-01T19:56:23Z</time>
  <course>10.87</course>
  <speed>0.12165525060596438</speed>
  <fix>3d</fix>
</trkpt>
<trkpt lat="-27.2744361" lon="151.2900645">
  <ele>349.45</ele>
  <time>2026-09-01T19:56:23Z</time>
  <course>186.78</course>
  <speed>0.13</speed>
  <fix>3d</fix>
</trkpt>
<trkpt lat="-27.2744364" lon="151.2900644">
  <ele>349.99</ele>
  <time>2026-09-01T19:56:23Z</time>
  <course>10.87</course>
  <speed>0.12165525060596438</speed>
  <fix>3d</fix>
</trkpt>
<trkpt lat="-27.2744364" lon="151.2900644">
  <ele>350.1</ele>
  <time>2026-09-01T19:56:23Z</time>
  <course>10.86</course>
  <speed>0.12041594578792296</speed>
  <fix>3d</fix>
</trkpt>
<trkpt lat="-27.2744361" lon="151.2900645">
  <ele>349.45</ele>
  <time>2026-09-01T19:56:23Z</time>
  <course>186.78</course>
  <speed>0.13</speed>
  <fix>3d</fix>
</trkpt>
<trkpt lat="-27.2744365" lon="151.2900644">
  <ele>350.13</ele>
  <time>2026-09-01T19:56:23Z</time>
  <course>10.86</course>
  <speed>0.130384048104053</speed>
  <fix>3d</fix>
</trkpt>
<trkpt lat="-27.2744366" lon="151.2900644">
  <ele>350.24</ele>
  <time>2026-09-01T19:56:23Z</time>
  <course>10.84</course>
  <speed>0.130384048104053</speed>
  <fix>3d</fix>
</trkpt>
<trkpt lat="-27.2744364" lon="151.2900645">
  <ele>349.74</ele>
  <time>2026-09-01T19:56:23Z</time>
  <course>187.09</course>
  <speed>0.13</speed>
  <fix>3d</fix>
</trkpt>
<trkpt lat="-27.2744366" lon="151.2900644">
  <ele>350.27</ele>
  <time>2026-09-01T19:56:23Z</time>
  <course>10.84</course>
  <speed>0.130384048104053</speed>
  <fix>3d</fix>
</trkpt>
<trkpt lat="-27.2744367" lon="151.2900644">
  <ele>350.39</ele>
  <time>2026-09-01T19:56:23Z</time>
  <course>10.83</course>
  <speed>0.130384048104053</speed>
  <fix>3d</fix>
</trkpt>
<trkpt lat="-27.2744364" lon="151.2900645">
  <ele>349.74</ele>
  <time>2026-09-01T19:56:23Z</time>
  <course>187.09</course>
  <speed>0.13</speed>
  <fix>3d</fix>
</trkpt>
<trkpt lat="-27.2744367" lon="151.2900644">
  <ele>350.42</ele>
  <time>2026-09-01T19:56:23Z</time>
  <course>10.83</course>
  <speed>0.130384048104053</speed>
  <fix>3d</fix>
</trkpt>
<trkpt lat="-27.2744368" lon="151.2900644">
  <ele>350.54</ele>
  <time>2026-09-01T19:56:23Z</time>
  <course>10.82</course>
  <speed>0.130384048104053</speed>
  <fix>3d</fix>
</trkpt>
<trkpt lat="-27.2744366" lon="151.2900644">
  <ele>350.03</ele>
  <time>2026-09-01T19:56:23Z</time>
  <course>187.19</course>
  <speed>0.14</speed>
  <fix>3d</fix>
</trkpt>
<trkpt lat="-27.2744368" lon="151.2900644">
  <ele>350.54</ele>
  <time>2026-09-01T19:56:23Z</time>
  <course>10.82</course>
  <speed>0.130384048104053</speed>
  <fix>3d</fix>
</trkpt>
<trkpt lat="-27.2744369" lon="151.2900644">
  <ele>350.68</ele>
  <time>2026-09-01T19:56:23Z</time>
  <course>10.82</course>
  <speed>0.130384048104053</speed>
  <fix>3d</fix>
</trkpt>
<trkpt lat="-27.2744366" lon="151.2900644">
  <ele>350.03</ele>
  <time>2026-09-01T19:56:23Z</time>
  <course>187.19</course>
  <speed>0.14</speed>
  <fix>3d</fix>
</trkpt>
<trkpt lat="-27.2744369" lon="151.2900644">
  <ele>350.69</ele>
  <time>2026-09-01T19:56:23Z</time>
  <course>10.82</course>
  <speed>0.130384048104053</speed>
  <fix>3d</fix>
</trkpt>
<trkpt lat="-27.2744371" lon="151.2900644">
  <ele>350.83</ele>
  <time>2026-09-01T19:56:23Z</time>
  <course>10.82</course>
  <speed>0.130384048104053</speed>
  <fix>3d</fix>
</trkpt>
<trkpt lat="-27.2744369" lon="151.2900644">
  <ele>350.32</ele>
  <time>2026-09-01T19:56:23Z</time>
  <course>187.28</course>
  <speed>0.14</speed>
  <fix>3d</fix>
</trkpt>
<trkpt lat="-27.2744371" lon="151.2900644">
  <ele>350.86</ele>
  <time>2026-09-01T19:56:23Z</time>
  <course>10.82</course>
  <speed>0.130384048104053</speed>
  <fix>3d</fix>
</trkpt>
<trkpt lat="-27.2744372" lon="151.2900644">
  <ele>350.97</ele>
  <time>2026-09-01T19:56:23Z</time>
  <course>10.82</course>
  <speed>0.130384048104053</speed>
  <fix>3d</fix>
</trkpt>
<trkpt lat="-27.2744369" lon="151.2900644">
  <ele>350.32</ele>
  <time>2026-09-01T19:56:23Z</time>
  <course>187.28</course>
  <speed>0.14</speed>
  <fix>3d</fix>
</trkpt>
<trkpt lat="-27.2744372" lon="151.2900644">
  <ele>350.98</ele>
  <time>2026-09-01T19:56:23Z</time>
  <course>10.82</course>
  <speed>0.130384048104053</speed>
  <fix>3d</fix>
</trkpt>
<trkpt lat="-27.2744373" lon="151.2900643">
  <ele>351.12</ele>
  <time>2026-09-01T19:56:23Z</time>
  <course>10.82</course>
  <speed>0.130384048104053</speed>
  <fix>3d</fix>
</trkpt>
<trkpt lat="-27.2744371" lon="151.2900643">
  <ele>350.61</ele>
  <time>2026-09-01T19:56:23Z</time>
  <course>187.58</course>
  <speed>0.14</speed>
  <fix>3d</fix>
</trkpt>
<trkpt lat="-27.2744373" lon="151.2900643">
  <ele>351.12</ele>
  <time>2026-09-01T19:56:23Z</time>
  <course>10.82</course>
  <speed>0.130384048104053</speed>
  <fix>3d</fix>
</trkpt>
<trkpt lat="-27.2744374" lon="151.2900643">
  <ele>351.26</ele>
  <time>2026-09-01T19:56:23Z</time>
  <course>10.8</course>
  <speed>0.130384048104053</speed>
  <fix>3d</fix>
</trkpt>
<trkpt lat="-27.2744371" lon="151.2900643">
  <ele>350.61</ele>
  <time>2026-09-01T19:56:23Z</time>
  <course>187.58</course>
  <speed>0.14</speed>
  <fix>3d</fix>
</trkpt>
<trkpt lat="-27.2744375" lon="151.2900643">
  <ele>351.29</ele>
  <time>2026-09-01T19:56:23Z</time>
  <course>10.79</course>
  <speed>0.130384048104053</speed>
  <fix>3d</fix>
</trkpt>
<trkpt lat="-27.2744376" lon="151.2900643">
  <ele>351.4</ele>
  <time>2026-09-01T19:56:23Z</time>
  <course>10.77</course>
  <speed>0.130384048104053</speed>
  <fix>3d</fix>
</trkpt>
<trkpt lat="-27.2744374" lon="151.2900642">
  <ele>350.9</ele>
  <time>2026-09-01T19:56:23Z</time>
  <course>187.75</course>
  <speed>0.14</speed>
  <fix>3d</fix>
</trkpt>
<trkpt lat="-27.2744376" lon="151.2900643">
  <ele>351.41</ele>
  <time>2026-09-01T19:56:23Z</time>
  <course>10.77</course>
  <speed>0.130384048104053</speed>
  <fix>3d</fix>
</trkpt>
<trkpt lat="-27.2744377" lon="151.2900643">
  <ele>351.55</ele>
  <time>2026-09-01T19:56:23Z</time>
  <course>10.74</course>
  <speed>0.13</speed>
  <fix>3d</fix>
</trkpt>
<trkpt lat="-27.2744374" lon="151.2900642">
  <ele>350.9</ele>
  <time>2026-09-01T19:56:23Z</time>
  <course>187.75</course>
  <speed>0.14</speed>
  <fix>3d</fix>
</trkpt>
<trkpt lat="-27.2744377" lon="151.2900643">
  <ele>351.55</ele>
  <time>2026-09-01T19:56:23Z</time>
  <course>10.74</course>
  <speed>0.13</speed>
  <fix>3d</fix>
</trkpt>
<trkpt lat="-27.2744378" lon="151.2900643">
  <ele>351.69</ele>
  <time>2026-09-01T19:56:23Z</time>
  <course>10.71</course>
  <speed>0.13</speed>
  <fix>3d</fix>
</trkpt>
<trkpt lat="-27.2744377" lon="151.2900642">
  <ele>351.19</ele>
  <time>2026-09-01T19:56:23Z</time>
  <course>187.79</course>
  <speed>0.14</speed>
  <fix>3d</fix>
</trkpt>
<trkpt lat="-27.2744378" lon="151.2900643">
  <ele>351.7</ele>
  <time>2026-09-01T19:56:23Z</time>
  <course>10.71</course>
  <speed>0.13</speed>
  <fix>3d</fix>
</trkpt>
<trkpt lat="-27.2744379" lon="151.2900643">
  <ele>351.83</ele>
  <time>2026-09-01T19:56:23Z</time>
  <course>10.68</course>
  <speed>0.13</speed>
  <fix>3d</fix>
</trkpt>
<trkpt lat="-27.2744377" lon="151.2900642">
  <ele>351.19</ele>
  <time>2026-09-01T19:56:23Z</time>
  <course>187.79</course>
  <speed>0.14</speed>
  <fix>3d</fix>
</trkpt>
<trkpt lat="-27.274438" lon="151.2900643">
  <ele>351.86</ele>
  <time>2026-09-01T19:56:23Z</time>
  <course>10.68</course>
  <speed>0.130384048104053</speed>
  <fix>3d</fix>
</trkpt>
<trkpt lat="-27.2744381" lon="151.2900642">
  <ele>351.98</ele>
  <time>2026-09-01T19:56:23Z</time>
  <course>10.66</course>
  <speed>0.12041594578792296</speed>
  <fix>3d</fix>
</trkpt>
<trkpt lat="-27.2744379" lon="151.2900642">
  <ele>351.47</ele>
  <time>2026-09-01T19:56:23Z</time>
  <course>188.0</course>
  <speed>0.14</speed>
  <fix>3d</fix>
</trkpt>
<trkpt lat="-27.2744381" lon="151.2900642">
  <ele>352.01</ele>
  <time>2026-09-01T19:56:23Z</time>
  <course>10.65</course>
  <speed>0.12041594578792296</speed>
  <fix>3d</fix>
</trkpt>
<trkpt lat="-27.2744382" lon="151.2900642">
  <ele>352.12</ele>
  <time>2026-09-01T19:56:23Z</time>
  <course>10.63</course>
  <speed>0.12</speed>
  <fix>3d</fix>
</trkpt>
<trkpt lat="-27.2744379" lon="151.2900642">
  <ele>351.47</ele>
  <time>2026-09-01T19:56:23Z</time>
  <course>188.0</course>
  <speed>0.14</speed>
  <fix>3d</fix>
</trkpt>
<trkpt lat="-27.2744382" lon="151.2900642">
  <ele>352.12</ele>
  <time>2026-09-01T19:56:23Z</time>
  <course>10.63</course>
  <speed>0.12</speed>
  <fix>3d</fix>
</trkpt>
<trkpt lat="-27.2744383" lon="151.2900642">
  <ele>352.26</ele>
  <time>2026-09-01T19:56:23Z</time>
  <course>10.61</course>
  <speed>0.12</speed>
  <fix>3d</fix>
</trkpt>
<trkpt lat="-27.2744382" lon="151.2900642">
  <ele>351.76</ele>
  <time>2026-09-01T19:56:23Z</time>
  <course>188.2</course>
  <speed>0.13</speed>
  <fix>3d</fix>
</trkpt>
<trkpt lat="-27.2744383" lon="151.2900642">
  <ele>352.26</ele>
  <time>2026-09-01T19:56:23Z</time>
  <course>10.61</course>
  <speed>0.12</speed>
  <fix>3d</fix>
</trkpt>
<trkpt lat="-27.2744384" lon="151.2900642">
  <ele>352.4</ele>
  <time>2026-09-01T19:56:23Z</time>
  <course>10.6</course>
  <speed>0.12</speed>
  <fix>3d</fix>
</trkpt>
<trkpt lat="-27.2744382" lon="151.2900642">
  <ele>351.76</ele>
  <time>2026-09-01T19:56:23Z</time>
  <course>188.2</course>
  <speed>0.13</speed>
  <fix>3d</fix>
</trkpt>
<trkpt lat="-27.2744384" lon="151.2900642">
  <ele>352.43</ele>
  <time>2026-09-01T19:56:23Z</time>
  <course>10.6</course>
  <speed>0.11</speed>
  <fix>3d</fix>
</trkpt>
<trkpt lat="-27.2744385" lon="151.2900642">
  <ele>352.54</ele>
  <time>2026-09-01T19:56:23Z</time>
  <course>10.59</course>
  <speed>0.11</speed>
  <fix>3d</fix>
</trkpt>
<trkpt lat="-27.2744384" lon="151.2900642">
  <ele>352.03</ele>
  <time>2026-09-01T19:56:23Z</time>
  <course>188.38</course>
  <speed>0.12</speed>
  <fix>3d</fix>
</trkpt>
<trkpt lat="-27.2744385" lon="151.2900642">
  <ele>352.57</ele>
  <time>2026-09-01T19:56:23Z</time>
  <course>10.58</course>
  <speed>0.11</speed>
  <fix>3d</fix>
</trkpt>
<trkpt lat="-27.2744386" lon="151.2900642">
  <ele>352.69</ele>
  <time>2026-09-01T19:56:23Z</time>
  <course>10.57</course>
  <speed>0.11</speed>
  <fix>3d</fix>
</trkpt>
<trkpt lat="-27.2744384" lon="151.2900642">
  <ele>352.03</ele>
  <time>2026-09-01T19:56:23Z</time>
  <course>188.38</course>
  <speed>0.12</speed>
  <fix>3d</fix>
</trkpt>
<trkpt lat="-27.2744386" lon="151.2900642">
  <ele>352.71</ele>
  <time>2026-09-01T19:56:23Z</time>
  <course>10.57</course>
  <speed>0.11</speed>
  <fix>3d</fix>
</trkpt>
<trkpt lat="-27.2744387" lon="151.2900642">
  <ele>352.83</ele>
  <time>2026-09-01T19:56:23Z</time>
  <course>10.56</course>
  <speed>0.1</speed>
  <fix>3d</fix>
</trkpt>
<trkpt lat="-27.2744386" lon="151.2900641">
  <ele>352.32</ele>
  <time>2026-09-01T19:56:23Z</time>
  <course>188.61</course>
  <speed>0.11</speed>
  <fix>3d</fix>
</trkpt>
<trkpt lat="-27.2744388" lon="151.2900642">
  <ele>352.87</ele>
  <time>2026-09-01T19:56:23Z</time>
  <course>10.55</course>
  <speed>0.1</speed>
  <fix>3d</fix>
</trkpt>
<trkpt lat="-27.2744388" lon="151.2900642">
  <ele>352.97</ele>
  <time>2026-09-01T19:56:23Z</time>
  <course>10.54</course>
  <speed>0.1</speed>
  <fix>3d</fix>
</trkpt>
<trkpt lat="-27.2744386" lon="151.2900641">
  <ele>352.32</ele>
  <time>2026-09-01T19:56:23Z</time>
  <course>188.61</course>
  <speed>0.11</speed>
  <fix>3d</fix>
</trkpt>
<trkpt lat="-27.2744389" lon="151.2900642">
  <ele>353.01</ele>
  <time>2026-09-01T19:56:23Z</time>
  <course>10.54</course>
  <speed>0.1</speed>
  <fix>3d</fix>
</trkpt>
<trkpt lat="-27.2744389" lon="151.2900642">
  <ele>353.12</ele>
  <time>2026-09-01T19:56:23Z</time>
  <course>10.53</course>
  <speed>0.09</speed>
  <fix>3d</fix>
</trkpt>
<trkpt lat="-27.2744388" lon="151.2900641">
  <ele>352.61</ele>
  <time>2026-09-01T19:56:23Z</time>
  <course>188.86</course>
  <speed>0.1</speed>
  <fix>3d</fix>
</trkpt>
<trkpt lat="-27.2744389" lon="151.2900642">
  <ele>353.14</ele>
  <time>2026-09-01T19:56:23Z</time>
  <course>10.53</course>
  <speed>0.09</speed>
  <fix>3d</fix>
</trkpt>
<trkpt lat="-27.274439" lon="151.2900642">
  <ele>353.26</ele>
  <time>2026-09-01T19:56:23Z</time>
  <course>10.52</course>
  <speed>0.09</speed>
  <fix>3d</fix>
</trkpt>
<trkpt lat="-27.2744388" lon="151.2900641">
  <ele>352.61</ele>
  <time>2026-09-01T19:56:23Z</time>
  <course>188.86</course>
  <speed>0.1</speed>
  <fix>3d</fix>
</trkpt>
<trkpt lat="-27.274439" lon="151.2900642">
  <ele>353.29</ele>
  <time>2026-09-01T19:56:23Z</time>
  <course>10.52</course>
  <speed>0.09</speed>
  <fix>3d</fix>
</trkpt>
<trkpt lat="-27.2744391" lon="151.2900642">
  <ele>353.4</ele>
  <time>2026-09-01T19:56:23Z</time>
  <course>10.51</course>
  <speed>0.08</speed>
  <fix>3d</fix>
</trkpt>
<trkpt lat="-27.274439" lon="151.2900641">
  <ele>352.9</ele>
  <time>2026-09-01T19:56:23Z</time>
  <course>189.38</course>
  <speed>0.09</speed>
  <fix>3d</fix>
</trkpt>
<trkpt lat="-27.2744391" lon="151.2900642">
  <ele>353.43</ele>
  <time>2026-09-01T19:56:23Z</time>
  <course>10.5</course>
  <speed>0.08</speed>
  <fix>3d</fix>
</trkpt>
<trkpt lat="-27.2744392" lon="151.2900641">
  <ele>353.55</ele>
  <time>2026-09-01T19:56:23Z</time>
  <course>10.48</course>
  <speed>0.08</speed>
  <fix>3d</fix>
</trkpt>
<trkpt lat="-27.274439" lon="151.2900641">
  <ele>352.9</ele>
  <time>2026-09-01T19:56:23Z</time>
  <course>189.38</course>
  <speed>0.09</speed>
  <fix>3d</fix>
</trkpt>
<trkpt lat="-27.2744392" lon="151.2900641">
  <ele>353.57</ele>
  <time>2026-09-01T19:56:23Z</time>
  <course>10.48</course>
  <speed>0.08</speed>
  <fix>3d</fix>
</trkpt>
<trkpt lat="-27.2744392" lon="151.2900641">
  <ele>353.69</ele>
  <time>2026-09-01T19:56:23Z</time>
  <course>10.46</course>
  <speed>0.07071067811865475</speed>
  <fix>3d</fix>
</trkpt>
<trkpt lat="-27.2744391" lon="151.290064">
  <ele>353.18</ele>
  <time>2026-09-01T19:56:23Z</time>
  <course>189.7</course>
  <speed>0.08</speed>
  <fix>3d</fix>
</trkpt>
<trkpt lat="-27.2744392" lon="151.2900641">
  <ele>353.69</ele>
  <time>2026-09-01T19:56:23Z</time>
  <course>10.46</course>
  <speed>0.07071067811865475</speed>
  <fix>3d</fix>
</trkpt>
<trkpt lat="-27.2744393" lon="151.2900641">
  <ele>353.83</ele>
  <time>2026-09-01T19:56:23Z</time>
  <course>10.46</course>
  <speed>0.07071067811865475</speed>
  <fix>3d</fix>
</trkpt>
<trkpt lat="-27.2744391" lon="151.290064">
  <ele>353.18</ele>
  <time>2026-09-01T19:56:23Z</time>
  <course>189.7</course>
  <speed>0.08</speed>
  <fix>3d</fix>
</trkpt>
<trkpt lat="-27.2744393" lon="151.2900641">
  <ele>353.84</ele>
  <time>2026-09-01T19:56:23Z</time>
  <course>10.46</course>
  <speed>0.06</speed>
  <fix>3d</fix>
</trkpt>
<trkpt lat="-27.2744394" lon="151.2900641">
  <ele>353.98</ele>
  <time>2026-09-01T19:56:23Z</time>
  <course>10.46</course>
  <speed>0.06082762530298219</speed>
  <fix>3d</fix>
</trkpt>
<trkpt lat="-27.2744393" lon="151.290064">
  <ele>353.47</ele>
  <time>2026-09-01T19:56:23Z</time>
  <course>189.98</course>
  <speed>0.07</speed>
  <fix>3d</fix>
</trkpt>
<trkpt lat="-27.2744394" lon="151.2900641">
  <ele>354.01</ele>
  <time>2026-09-01T19:56:23Z</time>
  <course>10.46</course>
  <speed>0.06082762530298219</speed>
  <fix>3d</fix>
</trkpt>
<trkpt lat="-27.2744394" lon="151.2900641">
  <ele>354.12</ele>
  <time>2026-09-01T19:56:23Z</time>
  <course>10.46</course>
  <speed>0.05099019513592785</speed>
  <fix>3d</fix>
</trkpt>
<trkpt lat="-27.2744393" lon="151.290064">
  <ele>353.47</ele>
  <time>2026-09-01T19:56:23Z</time>
  <course>189.98</course>
  <speed>0.07</speed>
  <fix>3d</fix>
</trkpt>
<trkpt lat="-27.2744394" lon="151.2900641">
  <ele>354.16</ele>
  <time>2026-09-01T19:56:23Z</time>
  <course>10.46</course>
  <speed>0.05099019513592785</speed>
  <fix>3d</fix>
</trkpt>
<trkpt lat="-27.2744395" lon="151.2900641">
  <ele>354.27</ele>
  <time>2026-09-01T19:56:23Z</time>
  <course>10.45</course>
  <speed>0.05099019513592785</speed>
  <fix>3d</fix>
</trkpt>
<trkpt lat="-27.2744394" lon="151.290064">
  <ele>353.76</ele>
  <time>2026-09-01T19:56:23Z</time>
  <course>191.03</course>
  <speed>0.05</speed>
  <fix>3d</fix>
</trkpt>
<trkpt lat="-27.2744395" lon="151.2900641">
  <ele>354.31</ele>
  <time>2026-09-01T19:56:23Z</time>
  <course>10.44</course>
  <speed>0.05099019513592785</speed>
  <fix>3d</fix>
</trkpt>
<trkpt lat="-27.2744395" lon="151.2900641">
  <ele>354.41</ele>
  <time>2026-09-01T19:56:23Z</time>
  <course>10.43</course>
  <speed>0.0412310562561766</speed>
  <fix>3d</fix>
</trkpt>
<trkpt lat="-27.2744394" lon="151.290064">
  <ele>353.76</ele>
  <time>2026-09-01T19:56:23Z</time>
  <course>191.03</course>
  <speed>0.05</speed>
  <fix>3d</fix>
</trkpt>
<trkpt lat="-27.2744395" lon="151.2900641">
  <ele>354.45</ele>
  <time>2026-09-01T19:56:23Z</time>
  <course>10.43</course>
  <speed>0.0412310562561766</speed>
  <fix>3d</fix>
</trkpt>
<trkpt lat="-27.2744395" lon="151.2900641">
  <ele>354.56</ele>
  <time>2026-09-01T19:56:23Z</time>
  <course>10.42</course>
  <speed>0.0412310562561766</speed>
  <fix>3d</fix>
</trkpt>
<trkpt lat="-27.2744395" lon="151.290064">
  <ele>354.05</ele>
  <time>2026-09-01T19:56:23Z</time>
  <course>192.28</course>
  <speed>0.04</speed>
  <fix>3d</fix>
</trkpt>
<trkpt lat="-27.2744396" lon="151.2900641">
  <ele>354.61</ele>
  <time>2026-09-01T19:56:23Z</time>
  <course>10.41</course>
  <speed>0.0412310562561766</speed>
  <fix>3d</fix>
</trkpt>
<trkpt lat="-27.2744396" lon="151.2900641">
  <ele>354.7</ele>
  <time>2026-09-01T19:56:23Z</time>
  <course>10.4</course>
  <speed>0.0316227766016838</speed>
  <fix>3d</fix>
</trkpt>
<trkpt lat="-27.2744395" lon="151.290064">
  <ele>354.05</ele>
  <time>2026-09-01T19:56:23Z</time>
  <course>192.28</course>
  <speed>0.04</speed>
  <fix>3d</fix>
</trkpt>
<trkpt lat="-27.2744396" lon="151.2900641">
  <ele>354.74</ele>
  <time>2026-09-01T19:56:23Z</time>
  <course>10.4</course>
  <speed>0.0316227766016838</speed>
  <fix>3d</fix>
</trkpt>
<trkpt lat="-27.2744396" lon="151.2900641">
  <ele>354.85</ele>
  <time>2026-09-01T19:56:23Z</time>
  <course>10.39</course>
  <speed>0.0316227766016838</speed>
  <fix>3d</fix>
</trkpt>
<trkpt lat="-27.2744396" lon="151.2900639">
  <ele>354.34</ele>
  <time>2026-09-01T19:56:23Z</time>
  <course>193.46</course>
  <speed>0.03</speed>
  <fix>3d</fix>
</trkpt>
<trkpt lat="-27.2744396" lon="151.2900641">
  <ele>354.88</ele>
  <time>2026-09-01T19:56:23Z</time>
  <course>10.39</course>
  <speed>0.0316227766016838</speed>
  <fix>3d</fix>
</trkpt>
<trkpt lat="-27.2744396" lon="151.2900641">
  <ele>354.99</ele>
  <time>2026-09-01T19:56:23Z</time>
  <course>10.39</course>
  <speed>0.022360679774997897</speed>
  <fix>3d</fix>
</trkpt>
<trkpt lat="-27.2744396" lon="151.2900639">
  <ele>354.34</ele>
  <time>2026-09-01T19:56:23Z</time>
  <course>193.46</course>
  <speed>0.03</speed>
  <fix>3d</fix>
</trkpt>
<trkpt lat="-27.2744396" lon="151.2900641">
  <ele>355.03</ele>
  <time>2026-09-01T19:56:23Z</time>
  <course>10.4</course>
  <speed>0.022360679774997897</speed>
  <fix>3d</fix>
</trkpt>
<trkpt lat="-27.2744396" lon="151.2900641">
  <ele>355.13</ele>
  <time>2026-09-01T19:56:23Z</time>
  <course>10.41</course>
  <speed>0.022360679774997897</speed>
  <fix>3d</fix>
</trkpt>
<trkpt lat="-27.2744396" lon="151.2900639">
  <ele>354.63</ele>
  <time>2026-09-01T19:56:23Z</time>
  <course>196.65</course>
  <speed>0.02</speed>
  <fix>3d</fix>
</trkpt>
<trkpt lat="-27.2744397" lon="151.2900641">
  <ele>355.18</ele>
  <time>2026-09-01T19:56:23Z</time>
  <course>10.41</course>
  <speed>0.022360679774997897</speed>
  <fix>3d</fix>
</trkpt>
<trkpt lat="-27.2744397" lon="151.2900641">
  <ele>355.28</ele>
  <time>2026-09-01T19:56:23Z</time>
  <course>10.43</course>
  <speed>0.022360679774997897</speed>
  <fix>3d</fix>
</trkpt>
<trkpt lat="-27.2744396" lon="151.2900639">
  <ele>354.63</ele>
  <time>2026-09-01T19:56:23Z</time>
  <course>196.65</course>
  <speed>0.02</speed>
  <fix>3d</fix>
</trkpt>
<trkpt lat="-27.2744397" lon="151.2900641">
  <ele>355.28</ele>
  <time>2026-09-01T19:56:23Z</time>
  <course>10.43</course>
  <speed>0.022360679774997897</speed>
  <fix>3d</fix>
</trkpt>
<trkpt lat="-27.2744397" lon="151.2900641">
  <ele>355.42</ele>
  <time>2026-09-01T19:56:23Z</time>
  <course>10.45</course>
  <speed>0.01414213562373095</speed>
  <fix>3d</fix>
</trkpt>
<trkpt lat="-27.2744397" lon="151.2900639">
  <ele>354.91</ele>
  <time>2026-09-01T19:56:23Z</time>
  <course>205.84</course>
  <speed>0.01</speed>
  <fix>3d</fix>
</trkpt>
<trkpt lat="-27.2744397" lon="151.2900641">
  <ele>355.43</ele>
  <time>2026-09-01T19:56:23Z</time>
  <course>10.45</course>
  <speed>0.01414213562373095</speed>
  <fix>3d</fix>
</trkpt>
<trkpt lat="-27.2744397" lon="151.2900641">
  <ele>355.57</ele>
  <time>2026-09-01T19:56:23Z</time>
  <course>10.47</course>
  <speed>0.01414213562373095</speed>
  <fix>3d</fix>
</trkpt>
<trkpt lat="-27.2744397" lon="151.2900639">
  <ele>354.91</ele>
  <time>2026-09-01T19:56:23Z</time>
  <course>205.84</course>
  <speed>0.01</speed>
  <fix>3d</fix>
</trkpt>
<trkpt lat="-27.2744397" lon="151.2900641">
  <ele>355.57</ele>
  <time>2026-09-01T19:56:23Z</time>
  <course>10.47</course>
  <speed>0.01414213562373095</speed>
  <fix>3d</fix>
</trkpt>
<trkpt lat="-27.2744397" lon="151.2900641">
  <ele>355.71</ele>
  <time>2026-09-01T19:56:23Z</time>
  <course>10.48</course>
  <speed>0.01</speed>
  <fix>3d</fix>
</trkpt>
<trkpt lat="-27.2744397" lon="151.2900639">
  <ele>355.2</ele>
  <time>2026-09-01T19:56:24Z</time>
  <course>230.45</course>
  <speed>0.0</speed>
  <fix>3d</fix>
</trkpt>
<trkpt lat="-27.2744397" lon="151.2900641">
  <ele>355.71</ele>
  <time>2026-09-01T19:56:24Z</time>
  <course>10.48</course>
  <speed>0.01</speed>
  <fix>3d</fix>
</trkpt>
<trkpt lat="-27.2744397" lon="151.2900641">
  <ele>355.85</ele>
  <time>2026-09-01T19:56:24Z</time>
  <course>10.5</course>
  <speed>0.01</speed>
  <fix>3d</fix>
</trkpt>
<trkpt lat="-27.2744397" lon="151.2900639">
  <ele>355.2</ele>
  <time>2026-09-01T19:56:24Z</time>
  <course>230.45</course>
  <speed>0.0</speed>
  <fix>3d</fix>
</trkpt>
<trkpt lat="-27.2744397" lon="151.2900641">
  <ele>355.85</ele>
  <time>2026-09-01T19:56:24Z</time>
  <course>10.5</course>
  <speed>0.01</speed>
  <fix>3d</fix>
</trkpt>
<trkpt lat="-27.2744397" lon="151.2900641">
  <ele>355.99</ele>
  <time>2026-09-01T19:56:24Z</time>
  <course>10.51</course>
  <speed>0.0</speed>
  <fix>3d</fix>
</trkpt>
<trkpt lat="-27.2744397" lon="151.2900639">
  <ele>355.49</ele>
  <time>2026-09-01T19:56:24Z</time>
  <course>293.09</course>
  <speed>0.0</speed>
  <fix>3d</fix>
</trkpt>
<trkpt lat="-27.2744397" lon="151.2900641">
  <ele>356.03</ele>
  <time>2026-09-01T19:56:24Z</time>
  <course>10.51</course>
  <speed>0.0</speed>
  <fix>3d</fix>
</trkpt>
<trkpt lat="-27.2744397" lon="151.2900641">
  <ele>356.13</ele>
  <time>2026-09-01T19:56:24Z</time>
  <course>10.52</course>
  <speed>0.0</speed>
  <fix>3d</fix>
</trkpt>
<trkpt lat="-27.2744397" lon="151.2900639">
  <ele>355.49</ele>
  <time>2026-09-01T19:56:24Z</time>
  <course>293.09</course>
  <speed>0.0</speed>
  <fix>3d</fix>
</trkpt>
<trkpt lat="-27.2744397" lon="151.2900641">
  <ele>356.16</ele>
  <time>2026-09-01T19:56:24Z</time>
  <course>10.52</course>
  <speed>0.0</speed>
  <fix>3d</fix>
</trkpt>
<trkpt lat="-27.2744397" lon="151.2900641">
  <ele>356.27</ele>
  <time>2026-09-01T19:56:24Z</time>
  <course>10.53</course>
  <speed>0.0</speed>
  <fix>3d</fix>
</trkpt>
<trkpt lat="-27.2744397" lon="151.2900639">
  <ele>355.78</ele>
  <time>2026-09-01T19:56:24Z</time>
  <course>331.74</course>
  <speed>0.01</speed>
  <fix>3d</fix>
</trkpt>
<trkpt lat="-27.2744397" lon="151.2900641">
  <ele>356.31</ele>
  <time>2026-09-01T19:56:24Z</time>
  <course>10.53</course>
  <speed>0.0</speed>
  <fix>3d</fix>
</trkpt>
<trkpt lat="-27.2744397" lon="151.290064">
  <ele>356.42</ele>
  <time>2026-09-01T19:56:24Z</time>
  <course>10.54</course>
  <speed>0.0</speed>
  <fix>3d</fix>
</trkpt>
<trkpt lat="-27.2744397" lon="151.2900639">
  <ele>355.78</ele>
  <time>2026-09-01T19:56:24Z</time>
  <course>331.74</course>
  <speed>0.01</speed>
  <fix>3d</fix>
</trkpt>
<trkpt lat="-27.2744397" lon="151.290064">
  <ele>356.46</ele>
  <time>2026-09-01T19:56:24Z</time>
  <course>10.55</course>
  <speed>0.0</speed>
  <fix>3d</fix>
</trkpt>
<trkpt lat="-27.2744397" lon="151.290064">
  <ele>356.56</ele>
  <time>2026-09-01T19:56:24Z</time>
  <course>10.55</course>
  <speed>0.0</speed>
  <fix>3d</fix>
</trkpt>
<trkpt lat="-27.2744397" lon="151.2900639">
  <ele>356.07</ele>
  <time>2026-09-01T19:56:24Z</time>
  <course>343.16</course>
  <speed>0.01</speed>
  <fix>3d</fix>
</trkpt>
<trkpt lat="-27.2744397" lon="151.290064">
  <ele>356.62</ele>
  <time>2026-09-01T19:56:24Z</time>
  <course>10.56</course>
  <speed>0.0</speed>
  <fix>3d</fix>
</trkpt>
<trkpt lat="-27.2744397" lon="151.290064">
  <ele>356.71</ele>
  <time>2026-09-01T19:56:24Z</time>
  <course>10.56</course>
  <speed>0.01</speed>
  <fix>3d</fix>
</trkpt>
<trkpt lat="-27.2744397" lon="151.2900639">
  <ele>356.07</ele>
  <time>2026-09-01T19:56:24Z</time>
  <course>343.16</course>
  <speed>0.01</speed>
  <fix>3d</fix>
</trkpt>
<trkpt lat="-27.2744397" lon="151.290064">
  <ele>356.78</ele>
  <time>2026-09-01T19:56:24Z</time>
  <course>10.56</course>
  <speed>0.01</speed>
  <fix>3d</fix>
</trkpt>
<trkpt lat="-27.2744397" lon="151.290064">
  <ele>356.85</ele>
  <time>2026-09-01T19:56:24Z</time>
  <course>10.57</course>
  <speed>0.01</speed>
  <fix>3d</fix>
</trkpt>
<trkpt lat="-27.2744397" lon="151.2900639">
  <ele>356.36</ele>
  <time>2026-09-01T19:56:24Z</time>
  <course>348.4</course>
  <speed>0.02</speed>
  <fix>3d</fix>
</trkpt>
<trkpt lat="-27.2744397" lon="151.290064">
  <ele>356.85</ele>
  <time>2026-09-01T19:56:24Z</time>
  <course>10.57</course>
  <speed>0.01</speed>
  <fix>3d</fix>
</trkpt>
<trkpt lat="-27.2744397" lon="151.290064">
  <ele>357.0</ele>
  <time>2026-09-01T19:56:24Z</time>
  <course>10.57</course>
  <speed>0.01</speed>
  <fix>3d</fix>
</trkpt>
<trkpt lat="-27.2744397" lon="151.2900639">
  <ele>356.36</ele>
  <time>2026-09-01T19:56:24Z</time>
  <course>348.4</course>
  <speed>0.02</speed>
  <fix>3d</fix>
</trkpt>
<trkpt lat="-27.2744397" lon="151.290064">
  <ele>357.0</ele>
  <time>2026-09-01T19:56:24Z</time>
  <course>10.57</course>
  <speed>0.01</speed>
  <fix>3d</fix>
</trkpt>
<trkpt lat="-27.2744397" lon="151.290064">
  <ele>357.14</ele>
  <time>2026-09-01T19:56:24Z</time>
  <course>10.57</course>
  <speed>0.01</speed>
  <fix>3d</fix>
</trkpt>
<trkpt lat="-27.2744397" lon="151.2900638">
  <ele>356.64</ele>
  <time>2026-09-01T19:56:24Z</time>
  <course>352.1</course>
  <speed>0.02</speed>
  <fix>3d</fix>
</trkpt>
<trkpt lat="-27.2744397" lon="151.290064">
  <ele>357.2</ele>
  <time>2026-09-01T19:56:24Z</time>
  <course>10.57</course>
  <speed>0.01</speed>
  <fix>3d</fix>
</trkpt>
<trkpt lat="-27.2744397" lon="151.290064">
  <ele>357.29</ele>
  <time>2026-09-01T19:56:24Z</time>
  <course>10.57</course>
  <speed>0.01</speed>
  <fix>3d</fix>
</trkpt>
<trkpt lat="-27.2744397" lon="151.2900638">
  <ele>356.64</ele>
  <time>2026-09-01T19:56:24Z</time>
  <course>352.1</course>
  <speed>0.02</speed>
  <fix>3d</fix>
</trkpt>
<trkpt lat="-27.2744397" lon="151.290064">
  <ele>357.33</ele>
  <time>2026-09-01T19:56:24Z</time>
  <course>10.57</course>
  <speed>0.01</speed>
  <fix>3d</fix>
</trkpt>
<trkpt lat="-27.2744396" lon="151.290064">
  <ele>357.44</ele>
  <time>2026-09-01T19:56:24Z</time>
  <course>10.57</course>
  <speed>0.02</speed>
  <fix>3d</fix>
</trkpt>
<trkpt lat="-27.2744396" lon="151.2900637">
  <ele>356.93</ele>
  <time>2026-09-01T19:56:24Z</time>
  <course>354.88</course>
  <speed>0.03</speed>
  <fix>3d</fix>
</trkpt>
<trkpt lat="-27.2744396" lon="151.290064">
  <ele>357.47</ele>
  <time>2026-09-01T19:56:24Z</time>
  <course>10.57</course>
  <speed>0.02</speed>
  <fix>3d</fix>
</trkpt>
<trkpt lat="-27.2744396" lon="151.290064">
  <ele>357.58</ele>
  <time>2026-09-01T19:56:24Z</time>
  <course>10.58</course>
  <speed>0.02</speed>
  <fix>3d</fix>
</trkpt>
<trkpt lat="-27.2744396" lon="151.2900637">
  <ele>356.93</ele>
  <time>2026-09-01T19:56:24Z</time>
  <course>354.88</course>
  <speed>0.03</speed>
  <fix>3d</fix>
</trkpt>
<trkpt lat="-27.2744396" lon="151.290064">
  <ele>357.63</ele>
  <time>2026-09-01T19:56:24Z</time>
  <course>10.58</course>
  <speed>0.02</speed>
  <fix>3d</fix>
</trkpt>
<trkpt lat="-27.2744396" lon="151.290064">
  <ele>357.73</ele>
  <time>2026-09-01T19:56:24Z</time>
  <course>10.58</course>
  <speed>0.02</speed>
  <fix>3d</fix>
</trkpt>
<trkpt lat="-27.2744396" lon="151.2900637">
  <ele>357.22</ele>
  <time>2026-09-01T19:56:24Z</time>
  <course>357.16</course>
  <speed>0.03</speed>
  <fix>3d</fix>
</trkpt>
<trkpt lat="-27.2744396" lon="151.290064">
  <ele>357.78</ele>
  <time>2026-09-01T19:56:24Z</time>
  <course>10.59</course>
  <speed>0.02</speed>
  <fix>3d</fix>
</trkpt>
<trkpt lat="-27.2744396" lon="151.2900639">
  <ele>357.87</ele>
  <time>2026-09-01T19:56:24Z</time>
  <course>10.59</course>
  <speed>0.02</speed>
  <fix>3d</fix>
</trkpt>
<trkpt lat="-27.2744396" lon="151.2900637">
  <ele>357.22</ele>
  <time>2026-09-01T19:56:24Z</time>
  <course>357.16</course>
  <speed>0.03</speed>
  <fix>3d</fix>
</trkpt>
<trkpt lat="-27.2744396" lon="151.2900639">
  <ele>357.87</ele>
  <time>2026-09-01T19:56:24Z</time>
  <course>10.59</course>
  <speed>0.02</speed>
  <fix>3d</fix>
</trkpt>
<trkpt lat="-27.2744395" lon="151.2900639">
  <ele>358.01</ele>
  <time>2026-09-01T19:56:24Z</time>
  <course>10.6</course>
  <speed>0.02</speed>
  <fix>3d</fix>
</trkpt>
<trkpt lat="-27.2744395" lon="151.2900637">
  <ele>357.51</ele>
  <time>2026-09-01T19:56:24Z</time>
  <course>359.48</course>
  <speed>0.03</speed>
  <fix>3d</fix>
</trkpt>
<trkpt lat="-27.2744395" lon="151.2900639">
  <ele>358.06</ele>
  <time>2026-09-01T19:56:24Z</time>
  <course>10.6</course>
  <speed>0.02</speed>
  <fix>3d</fix>
</trkpt>
<trkpt lat="-27.2744395" lon="151.2900639">
  <ele>358.16</ele>
  <time>2026-09-01T19:56:24Z</time>
  <course>10.61</course>
  <speed>0.02</speed>
  <fix>3d</fix>
</trkpt>
<trkpt lat="-27.2744395" lon="151.2900637">
  <ele>357.51</ele>
  <time>2026-09-01T19:56:24Z</time>
  <course>359.48</course>
  <speed>0.03</speed>
  <fix>3d</fix>
</trkpt>
<trkpt lat="-27.2744395" lon="151.2900639">
  <ele>358.2</ele>
  <time>2026-09-01T19:56:24Z</time>
  <course>10.62</course>
  <speed>0.02</speed>
  <fix>3d</fix>
</trkpt>
<trkpt lat="-27.2744395" lon="151.2900639">
  <ele>358.3</ele>
  <time>2026-09-01T19:56:24Z</time>
  <course>10.63</course>
  <speed>0.02</speed>
  <fix>3d</fix>
</trkpt>
<trkpt lat="-27.2744394" lon="151.2900637">
  <ele>357.8</ele>
  <time>2026-09-01T19:56:24Z</time>
  <course>1.74</course>
  <speed>0.04</speed>
  <fix>3d</fix>
</trkpt>
<trkpt lat="-27.2744395" lon="151.2900639">
  <ele>358.34</ele>
  <time>2026-09-01T19:56:24Z</time>
  <course>10.63</course>
  <speed>0.02</speed>
  <fix>3d</fix>
</trkpt>
<trkpt lat="-27.2744394" lon="151.2900639">
  <ele>358.44</ele>
  <time>2026-09-01T19:56:24Z</time>
  <course>10.64</course>
  <speed>0.02</speed>
  <fix>3d</fix>
</trkpt>
<trkpt lat="-27.2744394" lon="151.2900637">
  <ele>357.8</ele>
  <time>2026-09-01T19:56:24Z</time>
  <course>1.74</course>
  <speed>0.04</speed>
  <fix>3d</fix>
</trkpt>
<trkpt lat="-27.2744394" lon="151.2900639">
  <ele>358.45</ele>
  <time>2026-09-01T19:56:24Z</time>
  <course>10.64</course>
  <speed>0.02</speed>
  <fix>3d</fix>
</trkpt>
<trkpt lat="-27.2744394" lon="151.2900639">
  <ele>358.59</ele>
  <time>2026-09-01T19:56:24Z</time>
  <course>10.66</course>
  <speed>0.02</speed>
  <fix>3d</fix>
</trkpt>
<trkpt lat="-27.2744393" lon="151.2900637">
  <ele>358.09</ele>
  <time>2026-09-01T19:56:24Z</time>
  <course>3.84</course>
  <speed>0.04</speed>
  <fix>3d</fix>
</trkpt>
<trkpt lat="-27.2744394" lon="151.2900639">
  <ele>358.59</ele>
  <time>2026-09-01T19:56:24Z</time>
  <course>10.66</course>
  <speed>0.02</speed>
  <fix>3d</fix>
</trkpt>
<trkpt lat="-27.2744394" lon="151.2900639">
  <ele>358.73</ele>
  <time>2026-09-01T19:56:24Z</time>
  <course>10.67</course>
  <speed>0.02</speed>
  <fix>3d</fix>
</trkpt>
<trkpt lat="-27.2744393" lon="151.2900637">
  <ele>358.09</ele>
  <time>2026-09-01T19:56:24Z</time>
  <course>3.84</course>
  <speed>0.04</speed>
  <fix>3d</fix>
</trkpt>
<trkpt lat="-27.2744394" lon="151.2900639">
  <ele>358.76</ele>
  <time>2026-09-01T19:56:24Z</time>
  <course>10.67</course>
  <speed>0.02</speed>
  <fix>3d</fix>
</trkpt>
<trkpt lat="-27.2744393" lon="151.2900639">
  <ele>358.87</ele>
  <time>2026-09-01T19:56:24Z</time>
  <course>10.68</course>
  <speed>0.02</speed>
  <fix>3d</fix>
</trkpt>
<trkpt lat="-27.2744393" lon="151.2900637">
  <ele>358.38</ele>
  <time>2026-09-01T19:56:24Z</time>
  <course>5.82</course>
  <speed>0.04</speed>
  <fix>3d</fix>
</trkpt>
<trkpt lat="-27.2744393" lon="151.2900639">
  <ele>358.91</ele>
  <time>2026-09-01T19:56:24Z</time>
  <course>10.69</course>
  <speed>0.02</speed>
  <fix>3d</fix>
</trkpt>
<trkpt lat="-27.2744393" lon="151.2900639">
  <ele>359.01</ele>
  <time>2026-09-01T19:56:24Z</time>
  <course>10.7</course>
  <speed>0.02</speed>
  <fix>3d</fix>
</trkpt>
<trkpt lat="-27.2744393" lon="151.2900637">
  <ele>358.38</ele>
  <time>2026-09-01T19:56:24Z</time>
  <course>5.82</course>
  <speed>0.04</speed>
  <fix>3d</fix>
</trkpt>
<trkpt lat="-27.2744393" lon="151.2900639">
  <ele>359.04</ele>
  <time>2026-09-01T19:56:24Z</time>
  <course>10.7</course>
  <speed>0.02</speed>
  <fix>3d</fix>
</trkpt>
<trkpt lat="-27.2744393" lon="151.2900638">
  <ele>359.15</ele>
  <time>2026-09-01T19:56:24Z</time>
  <course>10.7</course>
  <speed>0.02</speed>
  <fix>3d</fix>
</trkpt>
<trkpt lat="-27.2744392" lon="151.2900637">
  <ele>358.66</ele>
  <time>2026-09-01T19:56:24Z</time>
  <course>7.7</course>
  <speed>0.04</speed>
  <fix>3d</fix>
</trkpt>
<trkpt lat="-27.2744393" lon="151.2900638">
  <ele>359.18</ele>
  <time>2026-09-01T19:56:24Z</time>
  <course>10.71</course>
  <speed>0.02</speed>
  <fix>3d</fix>
</trkpt>
<trkpt lat="-27.2744392" lon="151.2900638">
  <ele>359.29</ele>
  <time>2026-09-01T19:56:24Z</time>
  <course>10.71</course>
  <speed>0.02</speed>
  <fix>3d</fix>
</trkpt>
<trkpt lat="-27.2744392" lon="151.2900637">
  <ele>358.66</ele>
  <time>2026-09-01T19:56:24Z</time>
  <course>7.7</course>
  <speed>0.04</speed>
  <fix>3d</fix>
</trkpt>
<trkpt lat="-27.2744392" lon="151.2900638">
  <ele>359.32</ele>
  <time>2026-09-01T19:56:24Z</time>
  <course>10.72</course>
  <speed>0.02</speed>
  <fix>3d</fix>
</trkpt>
<trkpt lat="-27.2744392" lon="151.2900638">
  <ele>359.43</ele>
  <time>2026-09-01T19:56:24Z</time>
  <course>10.72</course>
  <speed>0.02</speed>
  <fix>3d</fix>
</trkpt>
<trkpt lat="-27.2744391" lon="151.2900637">
  <ele>358.95</ele>
  <time>2026-09-01T19:56:24Z</time>
  <course>9.79</course>
  <speed>0.04</speed>
  <fix>3d</fix>
</trkpt>
<trkpt lat="-27.2744392" lon="151.2900638">
  <ele>359.47</ele>
  <time>2026-09-01T19:56:24Z</time>
  <course>10.72</course>
  <speed>0.02</speed>
  <fix>3d</fix>
</trkpt>
<trkpt lat="-27.2744392" lon="151.2900638">
  <ele>359.57</ele>
  <time>2026-09-01T19:56:24Z</time>
  <course>10.73</course>
  <speed>0.02</speed>
  <fix>3d</fix>
</trkpt>
<trkpt lat="-27.2744391" lon="151.2900637">
  <ele>358.95</ele>
  <time>2026-09-01T19:56:24Z</time>
  <course>9.79</course>
  <speed>0.04</speed>
  <fix>3d</fix>
</trkpt>
<trkpt lat="-27.2744392" lon="151.2900638">
  <ele>359.57</ele>
  <time>2026-09-01T19:56:24Z</time>
  <course>10.73</course>
  <speed>0.02</speed>
  <fix>3d</fix>
</trkpt>
<trkpt lat="-27.2744391" lon="151.2900638">
  <ele>359.71</ele>
  <time>2026-09-01T19:56:24Z</time>
  <course>10.74</course>
  <speed>0.02</speed>
  <fix>3d</fix>
</trkpt>
<trkpt lat="-27.274439" lon="151.2900637">
  <ele>359.24</ele>
  <time>2026-09-01T19:56:24Z</time>
  <course>12.21</course>
  <speed>0.04</speed>
  <fix>3d</fix>
</trkpt>
<trkpt lat="-27.2744391" lon="151.2900638">
  <ele>359.72</ele>
  <time>2026-09-01T19:56:24Z</time>
  <course>10.74</course>
  <speed>0.02</speed>
  <fix>3d</fix>
</trkpt>
<trkpt lat="-27.2744391" lon="151.2900638">
  <ele>359.86</ele>
  <time>2026-09-01T19:56:24Z</time>
  <course>10.75</course>
  <speed>0.02</speed>
  <fix>3d</fix>
</trkpt>
<trkpt lat="-27.274439" lon="151.2900637">
  <ele>359.24</ele>
  <time>2026-09-01T19:56:24Z</time>
  <course>12.21</course>
  <speed>0.04</speed>
  <fix>3d</fix>
</trkpt>
<trkpt lat="-27.2744391" lon="151.2900638">
  <ele>359.86</ele>
  <time>2026-09-01T19:56:24Z</time>
  <course>10.75</course>
  <speed>0.02</speed>
  <fix>3d</fix>
</trkpt>
<trkpt lat="-27.2744391" lon="151.2900638">
  <ele>360.0</ele>
  <time>2026-09-01T19:56:24Z</time>
  <course>10.76</course>
  <speed>0.02</speed>
  <fix>3d</fix>
</trkpt>
<trkpt lat="-27.274439" lon="151.2900637">
  <ele>359.53</ele>
  <time>2026-09-01T19:56:24Z</time>
  <course>14.72</course>
  <speed>0.03</speed>
  <fix>3d</fix>
</trkpt>
<trkpt lat="-27.2744391" lon="151.2900638">
  <ele>360.01</ele>
  <time>2026-09-01T19:56:24Z</time>
  <course>10.76</course>
  <speed>0.02</speed>
  <fix>3d</fix>
</trkpt>
<trkpt lat="-27.274439" lon="151.2900638">
  <ele>360.15</ele>
  <time>2026-09-01T19:56:24Z</time>
  <course>10.77</course>
  <speed>0.01</speed>
  <fix>3d</fix>
</trkpt>
<trkpt lat="-27.274439" lon="151.2900637">
  <ele>359.53</ele>
  <time>2026-09-01T19:56:24Z</time>
  <course>14.72</course>
  <speed>0.03</speed>
  <fix>3d</fix>
</trkpt>
<trkpt lat="-27.274439" lon="151.2900638">
  <ele>360.15</ele>
  <time>2026-09-01T19:56:24Z</time>
  <course>10.77</course>
  <speed>0.01</speed>
  <fix>3d</fix>
</trkpt>
<trkpt lat="-27.274439" lon="151.2900638">
  <ele>360.29</ele>
  <time>2026-09-01T19:56:24Z</time>
  <course>10.78</course>
  <speed>0.01</speed>
  <fix>3d</fix>
</trkpt>
<trkpt lat="-27.2744389" lon="151.2900637">
  <ele>359.82</ele>
  <time>2026-09-01T19:56:24Z</time>
  <course>17.06</course>
  <speed>0.03</speed>
  <fix>3d</fix>
</trkpt>
<trkpt lat="-27.274439" lon="151.2900638">
  <ele>360.33</ele>
  <time>2026-09-01T19:56:24Z</time>
  <course>10.78</course>
  <speed>0.01</speed>
  <fix>3d</fix>
</trkpt>
<trkpt lat="-27.274439" lon="151.2900638">
  <ele>360.43</ele>
  <time>2026-09-01T19:56:24Z</time>
  <course>10.79</course>
  <speed>0.01</speed>
  <fix>3d</fix>
</trkpt>
<trkpt lat="-27.2744389" lon="151.2900637">
  <ele>359.82</ele>
  <time>2026-09-01T19:56:24Z</time>
  <course>17.06</course>
  <speed>0.03</speed>
  <fix>3d</fix>
</trkpt>
<trkpt lat="-27.274439" lon="151.2900638">
  <ele>360.47</ele>
  <time>2026-09-01T19:56:24Z</time>
  <course>10.79</course>
  <speed>0.01</speed>
  <fix>3d</fix>
</trkpt>
<trkpt lat="-27.2744389" lon="151.2900638">
  <ele>360.58</ele>
  <time>2026-09-01T19:56:24Z</time>
  <course>10.8</course>
  <speed>0.01</speed>
  <fix>3d</fix>
</trkpt>
<trkpt lat="-27.2744388" lon="151.2900638">
  <ele>360.11</ele>
  <time>2026-09-01T19:56:24Z</time>
  <course>19.57</course>
  <speed>0.03</speed>
  <fix>3d</fix>
</trkpt>
<trkpt lat="-27.2744389" lon="151.2900638">
  <ele>360.62</ele>
  <time>2026-09-01T19:56:24Z</time>
  <course>10.8</course>
  <speed>0.01</speed>
  <fix>3d</fix>
</trkpt>
<trkpt lat="-27.2744389" lon="151.2900638">
  <ele>360.73</ele>
  <time>2026-09-01T19:56:24Z</time>
  <course>10.81</course>
  <speed>0.01</speed>
  <fix>3d</fix>
</trkpt>
<trkpt lat="-27.2744388" lon="151.2900638">
  <ele>360.11</ele>
  <time>2026-09-01T19:56:24Z</time>
  <course>19.57</course>
  <speed>0.03</speed>
  <fix>3d</fix>
</trkpt>
<trkpt lat="-27.2744389" lon="151.2900638">
  <ele>360.77</ele>
  <time>2026-09-01T19:56:24Z</time>
  <course>10.81</course>
  <speed>0.01</speed>
  <fix>3d</fix>
</trkpt>
<trkpt lat="-27.2744389" lon="151.2900638">
  <ele>360.87</ele>
  <time>2026-09-01T19:56:24Z</time>
  <course>10.82</course>
  <speed>0.01</speed>
  <fix>3d</fix>
</trkpt>
<trkpt lat="-27.2744388" lon="151.2900639">
  <ele>360.4</ele>
  <time>2026-09-01T19:56:24Z</time>
  <course>22.69</course>
  <speed>0.03</speed>
  <fix>3d</fix>
</trkpt>
<trkpt lat="-27.2744389" lon="151.2900638">
  <ele>360.91</ele>
  <time>2026-09-01T19:56:24Z</time>
  <course>10.82</course>
  <speed>0.01</speed>
  <fix>3d</fix>
</trkpt>
<trkpt lat="-27.2744389" lon="151.2900639">
  <ele>361.02</ele>
  <time>2026-09-01T19:56:24Z</time>
  <course>10.83</course>
  <speed>0.01</speed>
  <fix>3d</fix>
</trkpt>
<trkpt lat="-27.2744388" lon="151.2900639">
  <ele>360.4</ele>
  <time>2026-09-01T19:56:24Z</time>
  <course>22.69</course>
  <speed>0.03</speed>
  <fix>3d</fix>
</trkpt>
<trkpt lat="-27.2744388" lon="151.2900639">
  <ele>361.06</ele>
  <time>2026-09-01T19:56:24Z</time>
  <course>10.83</course>
  <speed>0.01</speed>
  <fix>3d</fix>
</trkpt>
<trkpt lat="-27.2744388" lon="151.2900639">
  <ele>361.17</ele>
  <time>2026-09-01T19:56:24Z</time>
  <course>10.84</course>
  <speed>0.01</speed>
  <fix>3d</fix>
</trkpt>
<trkpt lat="-27.2744387" lon="151.2900639">
  <ele>360.69</ele>
  <time>2026-09-01T19:56:24Z</time>
  <course>26.02</course>
  <speed>0.03</speed>
  <fix>3d</fix>
</trkpt>
<trkpt lat="-27.2744388" lon="151.2900639">
  <ele>361.21</ele>
  <time>2026-09-01T19:56:24Z</time>
  <course>10.84</course>
  <speed>0.01</speed>
  <fix>3d</fix>
</trkpt>
<trkpt lat="-27.2744388" lon="151.2900639">
  <ele>361.31</ele>
  <time>2026-09-01T19:56:24Z</time>
  <course>10.85</course>
  <speed>0.01</speed>
  <fix>3d</fix>
</trkpt>
<trkpt lat="-27.2744387" lon="151.2900639">
  <ele>360.69</ele>
  <time>2026-09-01T19:56:24Z</time>
  <course>26.02</course>
  <speed>0.03</speed>
  <fix>3d</fix>
</trkpt>
<trkpt lat="-27.2744388" lon="151.2900639">
  <ele>361.35</ele>
  <time>2026-09-01T19:56:24Z</time>
  <course>10.86</course>
  <speed>0.01</speed>
  <fix>3d</fix>
</trkpt>
<trkpt lat="-27.2744388" lon="151.2900639">
  <ele>361.46</ele>
  <time>2026-09-01T19:56:24Z</time>
  <course>10.86</course>
  <speed>0.0</speed>
  <fix>3d</fix>
</trkpt>
<trkpt lat="-27.2744387" lon="151.2900639">
  <ele>360.99</ele>
  <time>2026-09-01T19:56:24Z</time>
  <course>28.88</course>
  <speed>0.02</speed>
  <fix>3d</fix>
</trkpt>
<trkpt lat="-27.2744388" lon="151.2900639">
  <ele>361.5</ele>
  <time>2026-09-01T19:56:24Z</time>
  <course>10.86</course>
  <speed>0.0</speed>
  <fix>3d</fix>
</trkpt>
<trkpt lat="-27.2744388" lon="151.2900639">
  <ele>361.61</ele>
  <time>2026-09-01T19:56:24Z</time>
  <course>10.87</course>
  <speed>0.0</speed>
  <fix>3d</fix>
</trkpt>
<trkpt lat="-27.2744387" lon="151.2900639">
  <ele>360.99</ele>
  <time>2026-09-01T19:56:24Z</time>
  <course>28.88</course>
  <speed>0.02</speed>
  <fix>3d</fix>
</trkpt>
<trkpt lat="-27.2744388" lon="151.2900639">
  <ele>361.61</ele>
  <time>2026-09-01T19:56:24Z</time>
  <course>10.87</course>
  <speed>0.0</speed>
  <fix>3d</fix>
</trkpt>
<trkpt lat="-27.2744387" lon="151.2900639">
  <ele>361.75</ele>
  <time>2026-09-01T19:56:24Z</time>
  <course>10.88</course>
  <speed>0.0</speed>
  <fix>3d</fix>
</trkpt>
<trkpt lat="-27.2744386" lon="151.2900639">
  <ele>361.28</ele>
  <time>2026-09-01T19:56:24Z</time>
  <course>31.81</course>
  <speed>0.02</speed>
  <fix>3d</fix>
</trkpt>
<trkpt lat="-27.2744387" lon="151.2900639">
  <ele>361.76</ele>
  <time>2026-09-01T19:56:24Z</time>
  <course>10.88</course>
  <speed>0.0</speed>
  <fix>3d</fix>
</trkpt>
<trkpt lat="-27.2744387" lon="151.2900639">
  <ele>361.9</ele>
  <time>2026-09-01T19:56:24Z</time>
  <course>10.88</course>
  <speed>0.0</speed>
  <fix>3d</fix>
</trkpt>
<trkpt lat="-27.2744386" lon="151.2900639">
  <ele>361.28</ele>
  <time>2026-09-01T19:56:24Z</time>
  <course>31.81</course>
  <speed>0.02</speed>
  <fix>3d</fix>
</trkpt>
<trkpt lat="-27.2744387" lon="151.2900639">
  <ele>361.93</ele>
  <time>2026-09-01T19:56:24Z</time>
  <course>10.88</course>
  <speed>0.0</speed>
  <fix>3d</fix>
</trkpt>
<trkpt lat="-27.2744387" lon="151.2900639">
  <ele>362.04</ele>
  <time>2026-09-01T19:56:24Z</time>
  <course>10.88</course>
  <speed>0.0</speed>
  <fix>3d</fix>
</trkpt>
<trkpt lat="-27.2744386" lon="151.290064">
  <ele>361.57</ele>
  <time>2026-09-01T19:56:24Z</time>
  <course>36.02</course>
  <speed>0.02</speed>
  <fix>3d</fix>
</trkpt>
<trkpt lat="-27.2744387" lon="151.2900639">
  <ele>362.04</ele>
  <time>2026-09-01T19:56:24Z</time>
  <course>10.88</course>
  <speed>0.0</speed>
  <fix>3d</fix>
</trkpt>
<trkpt lat="-27.2744387" lon="151.2900639">
  <ele>362.18</ele>
  <time>2026-09-01T19:56:24Z</time>
  <course>10.88</course>
  <speed>0.0</speed>
  <fix>3d</fix>
</trkpt>
<trkpt lat="-27.2744386" lon="151.290064">
  <ele>361.57</ele>
  <time>2026-09-01T19:56:24Z</time>
  <course>36.02</course>
  <speed>0.02</speed>
  <fix>3d</fix>
</trkpt>
<trkpt lat="-27.2744387" lon="151.2900639">
  <ele>362.22</ele>
  <time>2026-09-01T19:56:24Z</time>
  <course>10.88</course>
  <speed>0.0</speed>
  <fix>3d</fix>
</trkpt>
<trkpt lat="-27.2744387" lon="151.2900639">
  <ele>362.33</ele>
  <time>2026-09-01T19:56:24Z</time>
  <course>10.87</course>
  <speed>0.0</speed>
  <fix>3d</fix>
</trkpt>
<trkpt lat="-27.2744386" lon="151.290064">
  <ele>361.86</ele>
  <time>2026-09-01T19:56:24Z</time>
  <course>42.27</course>
  <speed>0.01</speed>
  <fix>3d</fix>
</trkpt>
<trkpt lat="-27.2744387" lon="151.2900639">
  <ele>362.37</ele>
  <time>2026-09-01T19:56:24Z</time>
  <course>10.87</course>
  <speed>0.0</speed>
  <fix>3d</fix>
</trkpt>
<trkpt lat="-27.2744387" lon="151.2900639">
  <ele>362.47</ele>
  <time>2026-09-01T19:56:24Z</time>
  <course>10.87</course>
  <speed>0.0</speed>
  <fix>3d</fix>
</trkpt>
<trkpt lat="-27.2744386" lon="151.290064">
  <ele>361.86</ele>
  <time>2026-09-01T19:56:24Z</time>
  <course>42.27</course>
  <speed>0.01</speed>
  <fix>3d</fix>
</trkpt>
<trkpt lat="-27.2744387" lon="151.2900639">
  <ele>362.51</ele>
  <time>2026-09-01T19:56:24Z</time>
  <course>10.87</course>
  <speed>0.0</speed>
  <fix>3d</fix>
</trkpt>
<trkpt lat="-27.2744387" lon="151.2900639">
  <ele>362.61</ele>
  <time>2026-09-01T19:56:24Z</time>
  <course>10.87</course>
  <speed>0.0</speed>
  <fix>3d</fix>
</trkpt>
<trkpt lat="-27.2744386" lon="151.290064">
  <ele>362.14</ele>
  <time>2026-09-01T19:56:24Z</time>
  <course>51.62</course>
  <speed>0.01</speed>
  <fix>3d</fix>
</trkpt>
<trkpt lat="-27.2744387" lon="151.2900639">
  <ele>362.65</ele>
  <time>2026-09-01T19:56:24Z</time>
  <course>10.86</course>
  <speed>0.0</speed>
  <fix>3d</fix>
</trkpt>
<trkpt lat="-27.2744387" lon="151.2900639">
  <ele>362.76</ele>
  <time>2026-09-01T19:56:24Z</time>
  <course>10.86</course>
  <speed>0.0</speed>
  <fix>3d</fix>
</trkpt>
<trkpt lat="-27.2744386" lon="151.290064">
  <ele>362.14</ele>
  <time>2026-09-01T19:56:24Z</time>
  <course>51.62</course>
  <speed>0.01</speed>
  <fix>3d</fix>
</trkpt>
<trkpt lat="-27.2744387" lon="151.2900639">
  <ele>362.79</ele>
  <time>2026-09-01T19:56:24Z</time>
  <course>10.86</course>
  <speed>0.0</speed>
  <fix>3d</fix>
</trkpt>
<trkpt lat="-27.2744387" lon="151.2900639">
  <ele>362.9</ele>
  <time>2026-09-01T19:56:24Z</time>
  <course>10.86</course>
  <speed>0.01</speed>
  <fix>3d</fix>
</trkpt>
<trkpt lat="-27.2744386" lon="151.290064">
  <ele>362.43</ele>
  <time>2026-09-01T19:56:24Z</time>
  <course>67.41</course>
  <speed>0.0</speed>
  <fix>3d</fix>
</trkpt>
<trkpt lat="-27.2744387" lon="151.2900639">
  <ele>362.94</ele>
  <time>2026-09-01T19:56:24Z</time>
  <course>10.86</course>
  <speed>0.01</speed>
  <fix>3d</fix>
</trkpt>
<trkpt lat="-27.2744387" lon="151.2900639">
  <ele>363.05</ele>
  <time>2026-09-01T19:56:24Z</time>
  <course>10.86</course>
  <speed>0.01</speed>
  <fix>3d</fix>
</trkpt>
<trkpt lat="-27.2744386" lon="151.290064">
  <ele>362.43</ele>
  <time>2026-09-01T19:56:24Z</time>
  <course>67.41</course>
  <speed>0.0</speed>
  <fix>3d</fix>
</trkpt>
<trkpt lat="-27.2744387" lon="151.2900639">
  <ele>363.06</ele>
  <time>2026-09-01T19:56:24Z</time>
  <course>10.86</course>
  <speed>0.01</speed>
  <fix>3d</fix>
</trkpt>
<trkpt lat="-27.2744387" lon="151.2900639">
  <ele>363.19</ele>
  <time>2026-09-01T19:56:24Z</time>
  <course>10.85</course>
  <speed>0.01</speed>
  <fix>3d</fix>
</trkpt>
<trkpt lat="-27.2744386" lon="151.2900641">
  <ele>362.72</ele>
  <time>2026-09-01T19:56:24Z</time>
  <course>94.69</course>
  <speed>0.0</speed>
  <fix>3d</fix>
</trkpt>
<trkpt lat="-27.2744387" lon="151.2900639">
  <ele>363.2</ele>
  <time>2026-09-01T19:56:24Z</time>
  <course>10.85</course>
  <speed>0.01</speed>
  <fix>3d</fix>
</trkpt>
<trkpt lat="-27.2744387" lon="151.2900639">
  <ele>363.34</ele>
  <time>2026-09-01T19:56:24Z</time>
  <course>10.84</course>
  <speed>0.01</speed>
  <fix>3d</fix>
</trkpt>
<trkpt lat="-27.2744386" lon="151.2900641">
  <ele>362.72</ele>
  <time>2026-09-01T19:56:24Z</time>
  <course>94.69</course>
  <speed>0.0</speed>
  <fix>3d</fix>
</trkpt>
<trkpt lat="-27.2744387" lon="151.290064">
  <ele>363.48</ele>
  <time>2026-09-01T19:56:24Z</time>
  <course>10.84</course>
  <speed>0.01</speed>
  <fix>3d</fix>
</trkpt>
<trkpt lat="-27.2744386" lon="151.2900641">
  <ele>363.01</ele>
  <time>2026-09-01T19:56:24Z</time>
  <course>127.58</course>
  <speed>0.0</speed>
  <fix>3d</fix>
</trkpt>
<trkpt lat="-27.2744387" lon="151.290064">
  <ele>363.62</ele>
  <time>2026-09-01T19:56:24Z</time>
  <course>10.83</course>
  <speed>0.01</speed>
  <fix>3d</fix>
</trkpt>
<trkpt lat="-27.2744386" lon="151.2900641">
  <ele>363.01</ele>
  <time>2026-09-01T19:56:24Z</time>
  <course>127.58</course>
  <speed>0.0</speed>
  <fix>3d</fix>
</trkpt>
<trkpt lat="-27.2744387" lon="151.290064">
  <ele>363.76</ele>
  <time>2026-09-01T19:56:24Z</time>
  <course>10.83</course>
  <speed>0.02</speed>
  <fix>3d</fix>
</trkpt>
<trkpt lat="-27.2744386" lon="151.2900641">
  <ele>363.29</ele>
  <time>2026-09-01T19:56:24Z</time>
  <course>148.67</course>
  <speed>0.0</speed>
  <fix>3d</fix>
</trkpt>
<trkpt lat="-27.2744387" lon="151.290064">
  <ele>363.89</ele>
  <time>2026-09-01T19:56:24Z</time>
  <course>10.84</course>
  <speed>0.02</speed>
  <fix>3d</fix>
</trkpt>
<trkpt lat="-27.2744386" lon="151.2900641">
  <ele>363.29</ele>
  <time>2026-09-01T19:56:24Z</time>
  <course>148.67</course>
  <speed>0.0</speed>
  <fix>3d</fix>
</trkpt>
<trkpt lat="-27.2744387" lon="151.290064">
  <ele>364.0</ele>
  <time>2026-09-01T19:56:24Z</time>
  <course>10.85</course>
  <speed>0.02</speed>
  <fix>3d</fix>
</trkpt>
<trkpt lat="-27.2744386" lon="151.2900641">
  <ele>363.57</ele>
  <time>2026-09-01T19:56:24Z</time>
  <course>164.6</course>
  <speed>0.01</speed>
  <fix>3d</fix>
</trkpt>
<trkpt lat="-27.2744387" lon="151.290064">
  <ele>364.09</ele>
  <time>2026-09-01T19:56:24Z</time>
  <course>10.88</course>
  <speed>0.03</speed>
  <fix>3d</fix>
</trkpt>
<trkpt lat="-27.2744386" lon="151.2900641">
  <ele>363.57</ele>
  <time>2026-09-01T19:56:24Z</time>
  <course>164.6</course>
  <speed>0.01</speed>
  <fix>3d</fix>
</trkpt>
<trkpt lat="-27.2744387" lon="151.290064">
  <ele>364.17</ele>
  <time>2026-09-01T19:56:24Z</time>
  <course>10.9</course>
  <speed>0.04</speed>
  <fix>3d</fix>
</trkpt>
<trkpt lat="-27.2744386" lon="151.2900641">
  <ele>363.8</ele>
  <time>2026-09-01T19:56:24Z</time>
  <course>181.03</course>
  <speed>0.01</speed>
  <fix>3d</fix>
</trkpt>
<trkpt lat="-27.2744387" lon="151.290064">
  <ele>364.24</ele>
  <time>2026-09-01T19:56:24Z</time>
  <course>10.89</course>
  <speed>0.05</speed>
  <fix>3d</fix>
</trkpt>
<trkpt lat="-27.2744386" lon="151.2900641">
  <ele>363.8</ele>
  <time>2026-09-01T19:56:24Z</time>
  <course>181.03</course>
  <speed>0.01</speed>
  <fix>3d</fix>
</trkpt>
<trkpt lat="-27.2744388" lon="151.290064">
  <ele>364.28</ele>
  <time>2026-09-01T19:56:24Z</time>
  <course>10.88</course>
  <speed>0.06082762530298219</speed>
  <fix>3d</fix>
</trkpt>
<trkpt lat="-27.2744386" lon="151.2900641">
  <ele>363.97</ele>
  <time>2026-09-01T19:56:24Z</time>
  <course>187.5</course>
  <speed>0.03</speed>
  <fix>3d</fix>
</trkpt>
<trkpt lat="-27.2744388" lon="151.290064">
  <ele>364.31</ele>
  <time>2026-09-01T19:56:24Z</time>
  <course>10.85</course>
  <speed>0.07071067811865475</speed>
  <fix>3d</fix>
</trkpt>
<trkpt lat="-27.2744386" lon="151.2900641">
  <ele>363.97</ele>
  <time>2026-09-01T19:56:24Z</time>
  <course>187.5</course>
  <speed>0.03</speed>
  <fix>3d</fix>
</trkpt>
<trkpt lat="-27.2744389" lon="151.290064">
  <ele>364.33</ele>
  <time>2026-09-01T19:56:24Z</time>
  <course>10.81</course>
  <speed>0.08062257748298549</speed>
  <fix>3d</fix>
</trkpt>
<trkpt lat="-27.2744386" lon="151.2900641">
  <ele>364.09</ele>
  <time>2026-09-01T19:56:24Z</time>
  <course>188.23</course>
  <speed>0.05</speed>
  <fix>3d</fix>
</trkpt>
<trkpt lat="-27.2744389" lon="151.290064">
  <ele>364.33</ele>
  <time>2026-09-01T19:56:24Z</time>
  <course>10.77</course>
  <speed>0.09055385138137417</speed>
  <fix>3d</fix>
</trkpt>
<trkpt lat="-27.2744386" lon="151.2900641">
  <ele>364.09</ele>
  <time>2026-09-01T19:56:24Z</time>
  <course>188.23</course>
  <speed>0.05</speed>
  <fix>3d</fix>
</trkpt>
<trkpt lat="-27.274439" lon="151.290064">
  <ele>364.32</ele>
  <time>2026-09-01T19:56:24Z</time>
  <course>10.72</course>
  <speed>0.1004987562112089</speed>
  <fix>3d</fix>
</trkpt>
<trkpt lat="-27.2744388" lon="151.2900641">
  <ele>364.14</ele>
  <time>2026-09-01T19:56:24Z</time>
  <course>188.1</course>
  <speed>0.08</speed>
  <fix>3d</fix>
</trkpt>
<trkpt lat="-27.2744391" lon="151.290064">
  <ele>364.31</ele>
  <time>2026-09-01T19:56:24Z</time>
  <course>10.68</course>
  <speed>0.11045361017187261</speed>
  <fix>3d</fix>
</trkpt>
<trkpt lat="-27.2744388" lon="151.2900641">
  <ele>364.14</ele>
  <time>2026-09-01T19:56:24Z</time>
  <course>188.1</course>
  <speed>0.08</speed>
  <fix>3d</fix>
</trkpt>
<trkpt lat="-27.2744392" lon="151.290064">
  <ele>364.29</ele>
  <time>2026-09-01T19:56:24Z</time>
  <course>10.65</course>
  <speed>0.12041594578792296</speed>
  <fix>3d</fix>
</trkpt>
<trkpt lat="-27.2744389" lon="151.2900641">
  <ele>364.14</ele>
  <time>2026-09-01T19:56:24Z</time>
  <course>187.85</course>
  <speed>0.1</speed>
  <fix>3d</fix>
</trkpt>
<trkpt lat="-27.2744393" lon="151.290064">
  <ele>364.27</ele>
  <time>2026-09-01T19:56:24Z</time>
  <course>10.65</course>
  <speed>0.130384048104053</speed>
  <fix>3d</fix>
</trkpt>
<trkpt lat="-27.2744389" lon="151.2900641">
  <ele>364.14</ele>
  <time>2026-09-01T19:56:24Z</time>
  <course>187.85</course>
  <speed>0.1</speed>
  <fix>3d</fix>
</trkpt>
<trkpt lat="-27.2744394" lon="151.290064">
  <ele>364.25</ele>
  <time>2026-09-01T19:56:24Z</time>
  <course>10.66</course>
  <speed>0.130384048104053</speed>
  <fix>3d</fix>
</trkpt>
<trkpt lat="-27.2744391" lon="151.2900641">
  <ele>364.1</ele>
  <time>2026-09-01T19:56:24Z</time>
  <course>187.97</course>
  <speed>0.11</speed>
  <fix>3d</fix>
</trkpt>
<trkpt lat="-27.2744395" lon="151.290064">
  <ele>364.23</ele>
  <time>2026-09-01T19:56:24Z</time>
  <course>10.67</course>
  <speed>0.140356688476182</speed>
  <fix>3d</fix>
</trkpt>
<trkpt lat="-27.2744391" lon="151.2900641">
  <ele>364.1</ele>
  <time>2026-09-01T19:56:24Z</time>
  <course>187.97</course>
  <speed>0.11</speed>
  <fix>3d</fix>
</trkpt>
<trkpt lat="-27.2744396" lon="151.290064">
  <ele>364.21</ele>
  <time>2026-09-01T19:56:24Z</time>
  <course>10.68</course>
  <speed>0.140356688476182</speed>
  <fix>3d</fix>
</trkpt>
<trkpt lat="-27.2744393" lon="151.290064">
  <ele>364.06</ele>
  <time>2026-09-01T19:56:24Z</time>
  <course>188.04</course>
  <speed>0.13</speed>
  <fix>3d</fix>
</trkpt>
<trkpt lat="-27.2744397" lon="151.290064">
  <ele>364.19</ele>
  <time>2026-09-01T19:56:24Z</time>
  <course>10.68</course>
  <speed>0.1414213562373095</speed>
  <fix>3d</fix>
</trkpt>
<trkpt lat="-27.2744393" lon="151.290064">
  <ele>364.06</ele>
  <time>2026-09-01T19:56:24Z</time>
  <course>188.04</course>
  <speed>0.13</speed>
  <fix>3d</fix>
</trkpt>
<trkpt lat="-27.2744399" lon="151.290064">
  <ele>364.18</ele>
  <time>2026-09-01T19:56:24Z</time>
  <course>10.67</course>
  <speed>0.140356688476182</speed>
  <fix>3d</fix>
</trkpt>
<trkpt lat="-27.2744396" lon="151.290064">
  <ele>364.02</ele>
  <time>2026-09-01T19:56:24Z</time>
  <course>188.13</course>
  <speed>0.14</speed>
  <fix>3d</fix>
</trkpt>
<trkpt lat="-27.27444" lon="151.2900639">
  <ele>364.17</ele>
  <time>2026-09-01T19:56:24Z</time>
  <course>10.67</course>
  <speed>0.140356688476182</speed>
  <fix>3d</fix>
</trkpt>
<trkpt lat="-27.2744396" lon="151.290064">
  <ele>364.02</ele>
  <time>2026-09-01T19:56:24Z</time>
  <course>188.13</course>
  <speed>0.14</speed>
  <fix>3d</fix>
</trkpt>
<trkpt lat="-27.2744401" lon="151.2900639">
  <ele>364.17</ele>
  <time>2026-09-01T19:56:24Z</time>
  <course>10.67</course>
  <speed>0.140356688476182</speed>
  <fix>3d</fix>
</trkpt>
<trkpt lat="-27.2744398" lon="151.290064">
  <ele>364.0</ele>
  <time>2026-09-01T19:56:24Z</time>
  <course>188.37</course>
  <speed>0.14</speed>
  <fix>3d</fix>
</trkpt>
<trkpt lat="-27.2744402" lon="151.2900639">
  <ele>364.17</ele>
  <time>2026-09-01T19:56:24Z</time>
  <course>10.66</course>
  <speed>0.140356688476182</speed>
  <fix>3d</fix>
</trkpt>
<trkpt lat="-27.2744398" lon="151.290064">
  <ele>364.0</ele>
  <time>2026-09-01T19:56:24Z</time>
  <course>188.37</course>
  <speed>0.14</speed>
  <fix>3d</fix>
</trkpt>
<trkpt lat="-27.2744403" lon="151.2900639">
  <ele>364.18</ele>
  <time>2026-09-01T19:56:24Z</time>
  <course>10.65</course>
  <speed>0.130384048104053</speed>
  <fix>3d</fix>
</trkpt>
<trkpt lat="-27.2744401" lon="151.2900639">
  <ele>363.99</ele>
  <time>2026-09-01T19:56:24Z</time>
  <course>188.47</course>
  <speed>0.14</speed>
  <fix>3d</fix>
</trkpt>
<trkpt lat="-27.2744405" lon="151.2900639">
  <ele>364.19</ele>
  <time>2026-09-01T19:56:24Z</time>
  <course>10.64</course>
  <speed>0.130384048104053</speed>
  <fix>3d</fix>
</trkpt>
<trkpt lat="-27.2744401" lon="151.2900639">
  <ele>363.99</ele>
  <time>2026-09-01T19:56:24Z</time>
  <course>188.47</course>
  <speed>0.14</speed>
  <fix>3d</fix>
</trkpt>
<trkpt lat="-27.2744406" lon="151.2900639">
  <ele>364.2</ele>
  <time>2026-09-01T19:56:24Z</time>
  <course>10.63</course>
  <speed>0.130384048104053</speed>
  <fix>3d</fix>
</trkpt>
<trkpt lat="-27.2744403" lon="151.2900639">
  <ele>364.0</ele>
  <time>2026-09-01T19:56:24Z</time>
  <course>188.5</course>
  <speed>0.13</speed>
  <fix>3d</fix>
</trkpt>
<trkpt lat="-27.2744407" lon="151.2900639">
  <ele>364.21</ele>
  <time>2026-09-01T19:56:24Z</time>
  <course>10.61</course>
  <speed>0.12041594578792296</speed>
  <fix>3d</fix>
</trkpt>
<trkpt lat="-27.2744403" lon="151.2900639">
  <ele>364.0</ele>
  <time>2026-09-01T19:56:24Z</time>
  <course>188.5</course>
  <speed>0.13</speed>
  <fix>3d</fix>
</trkpt>
<trkpt lat="-27.2744408" lon="151.2900639">
  <ele>364.23</ele>
  <time>2026-09-01T19:56:24Z</time>
  <course>10.6</course>
  <speed>0.12041594578792296</speed>
  <fix>3d</fix>
</trkpt>
<trkpt lat="-27.2744406" lon="151.2900638">
  <ele>364.02</ele>
  <time>2026-09-01T19:56:24Z</time>
  <course>188.62</course>
  <speed>0.13</speed>
  <fix>3d</fix>
</trkpt>
<trkpt lat="-27.2744409" lon="151.2900638">
  <ele>364.24</ele>
  <time>2026-09-01T19:56:24Z</time>
  <course>10.6</course>
  <speed>0.11045361017187261</speed>
  <fix>3d</fix>
</trkpt>
<trkpt lat="-27.2744406" lon="151.2900638">
  <ele>364.02</ele>
  <time>2026-09-01T19:56:24Z</time>
  <course>188.62</course>
  <speed>0.13</speed>
  <fix>3d</fix>
</trkpt>
<trkpt lat="-27.274441" lon="151.2900638">
  <ele>364.25</ele>
  <time>2026-09-01T19:56:24Z</time>
  <course>10.6</course>
  <speed>0.1004987562112089</speed>
  <fix>3d</fix>
</trkpt>
<trkpt lat="-27.2744408" lon="151.2900637">
  <ele>364.04</ele>
  <time>2026-09-01T19:56:24Z</time>
  <course>188.92</course>
  <speed>0.12</speed>
  <fix>3d</fix>
</trkpt>
<trkpt lat="-27.2744411" lon="151.2900638">
  <ele>364.26</ele>
  <time>2026-09-01T19:56:24Z</time>
  <course>10.61</course>
  <speed>0.1</speed>
  <fix>3d</fix>
</trkpt>
<trkpt lat="-27.2744408" lon="151.2900637">
  <ele>364.04</ele>
  <time>2026-09-01T19:56:24Z</time>
  <course>188.92</course>
  <speed>0.12</speed>
  <fix>3d</fix>
</trkpt>
<trkpt lat="-27.2744412" lon="151.2900638">
  <ele>364.27</ele>
  <time>2026-09-01T19:56:24Z</time>
  <course>10.62</course>
  <speed>0.09</speed>
  <fix>3d</fix>
</trkpt>
<trkpt lat="-27.2744409" lon="151.2900637">
  <ele>364.07</ele>
  <time>2026-09-01T19:56:24Z</time>
  <course>189.59</course>
  <speed>0.1</speed>
  <fix>3d</fix>
</trkpt>
<trkpt lat="-27.2744412" lon="151.2900638">
  <ele>364.27</ele>
  <time>2026-09-01T19:56:24Z</time>
  <course>10.63</course>
  <speed>0.08</speed>
  <fix>3d</fix>
</trkpt>
<trkpt lat="-27.2744409" lon="151.2900637">
  <ele>364.07</ele>
  <time>2026-09-01T19:56:24Z</time>
  <course>189.59</course>
  <speed>0.1</speed>
  <fix>3d</fix>
</trkpt>
<trkpt lat="-27.2744413" lon="151.2900638">
  <ele>364.27</ele>
  <time>2026-09-01T19:56:24Z</time>
  <course>10.65</course>
  <speed>0.07</speed>
  <fix>3d</fix>
</trkpt>
<trkpt lat="-27.2744412" lon="151.2900637">
  <ele>364.09</ele>
  <time>2026-09-01T19:56:24Z</time>
  <course>190.74</course>
  <speed>0.09</speed>
  <fix>3d</fix>
</trkpt>
<trkpt lat="-27.2744414" lon="151.2900637">
  <ele>364.27</ele>
  <time>2026-09-01T19:56:24Z</time>
  <course>10.66</course>
  <speed>0.06</speed>
  <fix>3d</fix>
</trkpt>
<trkpt lat="-27.2744412" lon="151.2900637">
  <ele>364.09</ele>
  <time>2026-09-01T19:56:24Z</time>
  <course>190.74</course>
  <speed>0.09</speed>
  <fix>3d</fix>
</trkpt>
<trkpt lat="-27.2744414" lon="151.2900637">
  <ele>364.27</ele>
  <time>2026-09-01T19:56:24Z</time>
  <course>10.67</course>
  <speed>0.06</speed>
  <fix>3d</fix>
</trkpt>
<trkpt lat="-27.2744413" lon="151.2900637">
  <ele>364.1</ele>
  <time>2026-09-01T19:56:24Z</time>
  <course>192.63</course>
  <speed>0.07</speed>
  <fix>3d</fix>
</trkpt>
<trkpt lat="-27.2744415" lon="151.2900637">
  <ele>364.27</ele>
  <time>2026-09-01T19:56:24Z</time>
  <course>10.67</course>
  <speed>0.05</speed>
  <fix>3d</fix>
</trkpt>
<trkpt lat="-27.2744413" lon="151.2900637">
  <ele>364.1</ele>
  <time>2026-09-01T19:56:24Z</time>
  <course>192.63</course>
  <speed>0.07</speed>
  <fix>3d</fix>
</trkpt>
<trkpt lat="-27.2744415" lon="151.2900637">
  <ele>364.27</ele>
  <time>2026-09-01T19:56:24Z</time>
  <course>10.68</course>
  <speed>0.04</speed>
  <fix>3d</fix>
</trkpt>
<trkpt lat="-27.2744414" lon="151.2900637">
  <ele>364.11</ele>
  <time>2026-09-01T19:56:24Z</time>
  <course>196.19</course>
  <speed>0.06</speed>
  <fix>3d</fix>
</trkpt>
<trkpt lat="-27.2744415" lon="151.2900637">
  <ele>364.26</ele>
  <time>2026-09-01T19:56:24Z</time>
  <course>10.68</course>
  <speed>0.03</speed>
  <fix>3d</fix>
</trkpt>
<trkpt lat="-27.2744414" lon="151.2900637">
  <ele>364.11</ele>
  <time>2026-09-01T19:56:24Z</time>
  <course>196.19</course>
  <speed>0.06</speed>
  <fix>3d</fix>
</trkpt>
<trkpt lat="-27.2744415" lon="151.2900637">
  <ele>364.26</ele>
  <time>2026-09-01T19:56:24Z</time>
  <course>10.68</course>
  <speed>0.02</speed>
  <fix>3d</fix>
</trkpt>
<trkpt lat="-27.2744415" lon="151.2900636">
  <ele>364.12</ele>
  <time>2026-09-01T19:56:24Z</time>
  <course>203.41</course>
  <speed>0.04</speed>
  <fix>3d</fix>
</trkpt>
<trkpt lat="-27.2744416" lon="151.2900637">
  <ele>364.26</ele>
  <time>2026-09-01T19:56:24Z</time>
  <course>10.68</course>
  <speed>0.01</speed>
  <fix>3d</fix>
</trkpt>
<trkpt lat="-27.2744415" lon="151.2900636">
  <ele>364.12</ele>
  <time>2026-09-01T19:56:24Z</time>
  <course>203.41</course>
  <speed>0.04</speed>
  <fix>3d</fix>
</trkpt>
<trkpt lat="-27.2744416" lon="151.2900637">
  <ele>364.26</ele>
  <time>2026-09-01T19:56:24Z</time>
  <course>10.68</course>
  <speed>0.0</speed>
  <fix>3d</fix>
</trkpt>
<trkpt lat="-27.2744416" lon="151.2900636">
  <ele>364.11</ele>
  <time>2026-09-01T19:56:24Z</time>
  <course>220.17</course>
  <speed>0.02</speed>
  <fix>3d</fix>
</trkpt>
<trkpt lat="-27.2744416" lon="151.2900637">
  <ele>364.26</ele>
  <time>2026-09-01T19:56:24Z</time>
  <course>10.68</course>
  <speed>0.0</speed>
  <fix>3d</fix>
</trkpt>
<trkpt lat="-27.2744416" lon="151.2900636">
  <ele>364.11</ele>
  <time>2026-09-01T19:56:24Z</time>
  <course>220.17</course>
  <speed>0.02</speed>
  <fix>3d</fix>
</trkpt>
<trkpt lat="-27.2744416" lon="151.2900637">
  <ele>364.26</ele>
  <time>2026-09-01T19:56:24Z</time>
  <course>10.67</course>
  <speed>0.01</speed>
  <fix>3d</fix>
</trkpt>
<trkpt lat="-27.2744416" lon="151.2900636">
  <ele>364.11</ele>
  <time>2026-09-01T19:56:24Z</time>
  <course>269.05</course>
  <speed>0.01</speed>
  <fix>3d</fix>
</trkpt>
<trkpt lat="-27.2744416" lon="151.2900637">
  <ele>364.26</ele>
  <time>2026-09-01T19:56:24Z</time>
  <course>10.67</course>
  <speed>0.02</speed>
  <fix>3d</fix>
</trkpt>
<trkpt lat="-27.2744416" lon="151.2900636">
  <ele>364.11</ele>
  <time>2026-09-01T19:56:24Z</time>
  <course>269.05</course>
  <speed>0.01</speed>
  <fix>3d</fix>
</trkpt>
<trkpt lat="-27.2744416" lon="151.2900636">
  <ele>364.26</ele>
  <time>2026-09-01T19:56:24Z</time>
  <course>10.66</course>
  <speed>0.03</speed>
  <fix>3d</fix>
</trkpt>
<trkpt lat="-27.2744416" lon="151.2900635">
  <ele>364.11</ele>
  <time>2026-09-01T19:56:24Z</time>
  <course>322.96</course>
  <speed>0.02</speed>
  <fix>3d</fix>
</trkpt>
<trkpt lat="-27.2744416" lon="151.2900636">
  <ele>364.25</ele>
  <time>2026-09-01T19:56:24Z</time>
  <course>10.66</course>
  <speed>0.04</speed>
  <fix>3d</fix>
</trkpt>
<trkpt lat="-27.2744416" lon="151.2900635">
  <ele>364.11</ele>
  <time>2026-09-01T19:56:24Z</time>
  <course>322.96</course>
  <speed>0.02</speed>
  <fix>3d</fix>
</trkpt>
<trkpt lat="-27.2744415" lon="151.2900636">
  <ele>364.25</ele>
  <time>2026-09-01T19:56:24Z</time>
  <course>10.66</course>
  <speed>0.05</speed>
  <fix>3d</fix>
</trkpt>
<trkpt lat="-27.2744416" lon="151.2900635">
  <ele>364.11</ele>
  <time>2026-09-01T19:56:24Z</time>
  <course>340.69</course>
  <speed>0.04</speed>
  <fix>3d</fix>
</trkpt>
<trkpt lat="-27.2744415" lon="151.2900636">
  <ele>364.25</ele>
  <time>2026-09-01T19:56:24Z</time>
  <course>10.66</course>
  <speed>0.05</speed>
  <fix>3d</fix>
</trkpt>
<trkpt lat="-27.2744416" lon="151.2900635">
  <ele>364.11</ele>
  <time>2026-09-01T19:56:24Z</time>
  <course>340.69</course>
  <speed>0.04</speed>
  <fix>3d</fix>
</trkpt>
<trkpt lat="-27.2744414" lon="151.2900636">
  <ele>364.25</ele>
  <time>2026-09-01T19:56:24Z</time>
  <course>10.66</course>
  <speed>0.06</speed>
  <fix>3d</fix>
</trkpt>
<trkpt lat="-27.2744415" lon="151.2900635">
  <ele>364.11</ele>
  <time>2026-09-01T19:56:24Z</time>
  <course>347.68</course>
  <speed>0.05</speed>
  <fix>3d</fix>
</trkpt>
<trkpt lat="-27.2744414" lon="151.2900636">
  <ele>364.26</ele>
  <time>2026-09-01T19:56:24Z</time>
  <course>10.66</course>
  <speed>0.07</speed>
  <fix>3d</fix>
</trkpt>
<trkpt lat="-27.2744415" lon="151.2900635">
  <ele>364.11</ele>
  <time>2026-09-01T19:56:24Z</time>
  <course>347.68</course>
  <speed>0.05</speed>
  <fix>3d</fix>
</trkpt>
<trkpt lat="-27.2744413" lon="151.2900636">
  <ele>364.26</ele>
  <time>2026-09-01T19:56:24Z</time>
  <course>10.66</course>
  <speed>0.07</speed>
  <fix>3d</fix>
</trkpt>
<trkpt lat="-27.2744414" lon="151.2900635">
  <ele>364.12</ele>
  <time>2026-09-01T19:56:24Z</time>
  <course>351.4</course>
  <speed>0.07</speed>
  <fix>3d</fix>
</trkpt>
<trkpt lat="-27.2744412" lon="151.2900636">
  <ele>364.26</ele>
  <time>2026-09-01T19:56:24Z</time>
  <course>10.66</course>
  <speed>0.08</speed>
  <fix>3d</fix>
</trkpt>
<trkpt lat="-27.2744414" lon="151.2900635">
  <ele>364.12</ele>
  <time>2026-09-01T19:56:24Z</time>
  <course>351.4</course>
  <speed>0.07</speed>
  <fix>3d</fix>
</trkpt>
<trkpt lat="-27.2744411" lon="151.2900636">
  <ele>364.27</ele>
  <time>2026-09-01T19:56:24Z</time>
  <course>10.67</course>
  <speed>0.09</speed>
  <fix>3d</fix>
</trkpt>
<trkpt lat="-27.2744413" lon="151.2900634">
  <ele>364.12</ele>
  <time>2026-09-01T19:56:24Z</time>
  <course>353.66</course>
  <speed>0.08</speed>
  <fix>3d</fix>
</trkpt>
<trkpt lat="-27.2744411" lon="151.2900636">
  <ele>364.27</ele>
  <time>2026-09-01T19:56:24Z</time>
  <course>10.67</course>
  <speed>0.09</speed>
  <fix>3d</fix>
</trkpt>
<trkpt lat="-27.2744413" lon="151.2900634">
  <ele>364.12</ele>
  <time>2026-09-01T19:56:24Z</time>
  <course>353.66</course>
  <speed>0.08</speed>
  <fix>3d</fix>
</trkpt>
<trkpt lat="-27.274441" lon="151.2900636">
  <ele>364.28</ele>
  <time>2026-09-01T19:56:24Z</time>
  <course>10.67</course>
  <speed>0.1</speed>
  <fix>3d</fix>
</trkpt>
<trkpt lat="-27.2744411" lon="151.2900633">
  <ele>364.13</ele>
  <time>2026-09-01T19:56:24Z</time>
  <course>355.19</course>
  <speed>0.1</speed>
  <fix>3d</fix>
</trkpt>
<trkpt lat="-27.2744409" lon="151.2900636">
  <ele>364.28</ele>
  <time>2026-09-01T19:56:24Z</time>
  <course>10.67</course>
  <speed>0.1</speed>
  <fix>3d</fix>
</trkpt>
<trkpt lat="-27.2744411" lon="151.2900633">
  <ele>364.13</ele>
  <time>2026-09-01T19:56:24Z</time>
  <course>355.19</course>
  <speed>0.1</speed>
  <fix>3d</fix>
</trkpt>
<trkpt lat="-27.2744408" lon="151.2900636">
  <ele>364.28</ele>
  <time>2026-09-01T19:56:24Z</time>
  <course>10.67</course>
  <speed>0.11045361017187261</speed>
  <fix>3d</fix>
</trkpt>
<trkpt lat="-27.2744409" lon="151.2900633">
  <ele>364.13</ele>
  <time>2026-09-01T19:56:24Z</time>
  <course>356.46</course>
  <speed>0.11</speed>
  <fix>3d</fix>
</trkpt>
<trkpt lat="-27.2744407" lon="151.2900635">
  <ele>364.28</ele>
  <time>2026-09-01T19:56:24Z</time>
  <course>10.67</course>
  <speed>0.11045361017187261</speed>
  <fix>3d</fix>
</trkpt>
<trkpt lat="-27.2744409" lon="151.2900633">
  <ele>364.13</ele>
  <time>2026-09-01T19:56:24Z</time>
  <course>356.46</course>
  <speed>0.11</speed>
  <fix>3d</fix>
</trkpt>
<trkpt lat="-27.2744406" lon="151.2900635">
  <ele>364.28</ele>
  <time>2026-09-01T19:56:24Z</time>
  <course>10.66</course>
  <speed>0.11045361017187261</speed>
  <fix>3d</fix>
</trkpt>
<trkpt lat="-27.2744407" lon="151.2900633">
  <ele>364.14</ele>
  <time>2026-09-01T19:56:24Z</time>
  <course>357.71</course>
  <speed>0.12</speed>
  <fix>3d</fix>
</trkpt>
<trkpt lat="-27.2744405" lon="151.2900635">
  <ele>364.28</ele>
  <time>2026-09-01T19:56:24Z</time>
  <course>10.66</course>
  <speed>0.11045361017187261</speed>
  <fix>3d</fix>
</trkpt>
<trkpt lat="-27.2744407" lon="151.2900633">
  <ele>364.14</ele>
  <time>2026-09-01T19:56:24Z</time>
  <course>357.71</course>
  <speed>0.12</speed>
  <fix>3d</fix>
</trkpt>
<trkpt lat="-27.2744403" lon="151.2900635">
  <ele>364.28</ele>
  <time>2026-09-01T19:56:24Z</time>
  <course>10.66</course>
  <speed>0.11045361017187261</speed>
  <fix>3d</fix>
</trkpt>
<trkpt lat="-27.2744405" lon="151.2900633">
  <ele>364.14</ele>
  <time>2026-09-01T19:56:24Z</time>
  <course>359.07</course>
  <speed>0.12</speed>
  <fix>3d</fix>
</trkpt>
<trkpt lat="-27.2744402" lon="151.2900635">
  <ele>364.28</ele>
  <time>2026-09-01T19:56:24Z</time>
  <course>10.67</course>
  <speed>0.12041594578792296</speed>
  <fix>3d</fix>
</trkpt>
<trkpt lat="-27.2744405" lon="151.2900633">
  <ele>364.14</ele>
  <time>2026-09-01T19:56:24Z</time>
  <course>359.07</course>
  <speed>0.12</speed>
  <fix>3d</fix>
</trkpt>
<trkpt lat="-27.2744401" lon="151.2900635">
  <ele>364.28</ele>
  <time>2026-09-01T19:56:24Z</time>
  <course>10.67</course>
  <speed>0.12041594578792296</speed>
  <fix>3d</fix>
</trkpt>
<trkpt lat="-27.2744403" lon="151.2900633">
  <ele>364.14</ele>
  <time>2026-09-01T19:56:24Z</time>
  <course>0.47</course>
  <speed>0.13</speed>
  <fix>3d</fix>
</trkpt>
<trkpt lat="-27.27444" lon="151.2900635">
  <ele>364.27</ele>
  <time>2026-09-01T19:56:24Z</time>
  <course>10.68</course>
  <speed>0.11045361017187261</speed>
  <fix>3d</fix>
</trkpt>
<trkpt lat="-27.2744403" lon="151.2900633">
  <ele>364.14</ele>
  <time>2026-09-01T19:56:24Z</time>
  <course>0.47</course>
  <speed>0.13</speed>
  <fix>3d</fix>
</trkpt>
<trkpt lat="-27.2744399" lon="151.2900635">
  <ele>364.27</ele>
  <time>2026-09-01T19:56:24Z</time>
  <course>10.68</course>
  <speed>0.11045361017187261</speed>
  <fix>3d</fix>
</trkpt>
<trkpt lat="-27.27444" lon="151.2900633">
  <ele>364.14</ele>
  <time>2026-09-01T19:56:24Z</time>
  <course>1.91</course>
  <speed>0.13</speed>
  <fix>3d</fix>
</trkpt>
<trkpt lat="-27.2744398" lon="151.2900635">
  <ele>364.27</ele>
  <time>2026-09-01T19:56:24Z</time>
  <course>10.68</course>
  <speed>0.11045361017187261</speed>
  <fix>3d</fix>
</trkpt>
<trkpt lat="-27.27444" lon="151.2900633">
  <ele>364.14</ele>
  <time>2026-09-01T19:56:24Z</time>
  <course>1.91</course>
  <speed>0.13</speed>
  <fix>3d</fix>
</trkpt>
<trkpt lat="-27.2744397" lon="151.2900635">
  <ele>364.27</ele>
  <time>2026-09-01T19:56:24Z</time>
  <course>10.67</course>
  <speed>0.1118033988749895</speed>
  <fix>3d</fix>
</trkpt>
<trkpt lat="-27.2744397" lon="151.2900633">
  <ele>364.14</ele>
  <time>2026-09-01T19:56:24Z</time>
  <course>3.36</course>
  <speed>0.13</speed>
  <fix>3d</fix>
</trkpt>
<trkpt lat="-27.2744396" lon="151.2900635">
  <ele>364.26</ele>
  <time>2026-09-01T19:56:24Z</time>
  <course>10.67</course>
  <speed>0.1118033988749895</speed>
  <fix>3d</fix>
</trkpt>
<trkpt lat="-27.2744397" lon="151.2900633">
  <ele>364.14</ele>
  <time>2026-09-01T19:56:24Z</time>
  <course>3.36</course>
  <speed>0.13</speed>
  <fix>3d</fix>
</trkpt>
<trkpt lat="-27.2744394" lon="151.2900635">
  <ele>364.26</ele>
  <time>2026-09-01T19:56:24Z</time>
  <course>10.67</course>
  <speed>0.1118033988749895</speed>
  <fix>3d</fix>
</trkpt>
<trkpt lat="-27.2744396" lon="151.2900633">
  <ele>364.14</ele>
  <time>2026-09-01T19:56:24Z</time>
  <course>4.76</course>
  <speed>0.13</speed>
  <fix>3d</fix>
</trkpt>
<trkpt lat="-27.2744393" lon="151.2900635">
  <ele>364.26</ele>
  <time>2026-09-01T19:56:24Z</time>
  <course>10.67</course>
  <speed>0.1019803902718557</speed>
  <fix>3d</fix>
</trkpt>
<trkpt lat="-27.2744396" lon="151.2900633">
  <ele>364.14</ele>
  <time>2026-09-01T19:56:24Z</time>
  <course>4.76</course>
  <speed>0.13</speed>
  <fix>3d</fix>
</trkpt>
<trkpt lat="-27.2744392" lon="151.2900635">
  <ele>364.26</ele>
  <time>2026-09-01T19:56:24Z</time>
  <course>10.67</course>
  <speed>0.1019803902718557</speed>
  <fix>3d</fix>
</trkpt>
<trkpt lat="-27.2744393" lon="151.2900633">
  <ele>364.14</ele>
  <time>2026-09-01T19:56:24Z</time>
  <course>6.53</course>
  <speed>0.12</speed>
  <fix>3d</fix>
</trkpt>
<trkpt lat="-27.2744391" lon="151.2900635">
  <ele>364.26</ele>
  <time>2026-09-01T19:56:24Z</time>
  <course>10.67</course>
  <speed>0.09219544457292887</speed>
  <fix>3d</fix>
</trkpt>
<trkpt lat="-27.2744393" lon="151.2900633">
  <ele>364.14</ele>
  <time>2026-09-01T19:56:24Z</time>
  <course>6.53</course>
  <speed>0.12</speed>
  <fix>3d</fix>
</trkpt>
<trkpt lat="-27.274439" lon="151.2900635">
  <ele>364.26</ele>
  <time>2026-09-01T19:56:24Z</time>
  <course>10.67</course>
  <speed>0.09219544457292887</speed>
  <fix>3d</fix>
</trkpt>
<trkpt lat="-27.2744391" lon="151.2900633">
  <ele>364.14</ele>
  <time>2026-09-01T19:56:24Z</time>
  <course>8.94</course>
  <speed>0.12</speed>
  <fix>3d</fix>
</trkpt>
<trkpt lat="-27.274439" lon="151.2900635">
  <ele>364.26</ele>
  <time>2026-09-01T19:56:24Z</time>
  <course>10.67</course>
  <speed>0.0824621125123532</speed>
  <fix>3d</fix>
</trkpt>
<trkpt lat="-27.2744391" lon="151.2900633">
  <ele>364.14</ele>
  <time>2026-09-01T19:56:24Z</time>
  <course>8.94</course>
  <speed>0.12</speed>
  <fix>3d</fix>
</trkpt>
<trkpt lat="-27.2744389" lon="151.2900635">
  <ele>364.26</ele>
  <time>2026-09-01T19:56:24Z</time>
  <course>10.67</course>
  <speed>0.0824621125123532</speed>
  <fix>3d</fix>
</trkpt>
<trkpt lat="-27.2744389" lon="151.2900634">
  <ele>364.14</ele>
  <time>2026-09-01T19:56:24Z</time>
  <course>11.58</course>
  <speed>0.11</speed>
  <fix>3d</fix>
</trkpt>
<trkpt lat="-27.2744388" lon="151.2900635">
  <ele>364.27</ele>
  <time>2026-09-01T19:56:24Z</time>
  <course>10.67</course>
  <speed>0.07280109889280519</speed>
  <fix>3d</fix>
</trkpt>
<trkpt lat="-27.2744389" lon="151.2900634">
  <ele>364.14</ele>
  <time>2026-09-01T19:56:24Z</time>
  <course>11.58</course>
  <speed>0.11</speed>
  <fix>3d</fix>
</trkpt>
<trkpt lat="-27.2744387" lon="151.2900635">
  <ele>364.27</ele>
  <time>2026-09-01T19:56:24Z</time>
  <course>10.68</course>
  <speed>0.07280109889280519</speed>
  <fix>3d</fix>
</trkpt>
<trkpt lat="-27.2744387" lon="151.2900635">
  <ele>364.15</ele>
  <time>2026-09-01T19:56:24Z</time>
  <course>14.1</course>
  <speed>0.1</speed>
  <fix>3d</fix>
</trkpt>
<trkpt lat="-27.2744386" lon="151.2900636">
  <ele>364.27</ele>
  <time>2026-09-01T19:56:24Z</time>
  <course>10.68</course>
  <speed>0.0670820393249937</speed>
  <fix>3d</fix>
</trkpt>
<trkpt lat="-27.2744387" lon="151.2900635">
  <ele>364.15</ele>
  <time>2026-09-01T19:56:24Z</time>
  <course>14.1</course>
  <speed>0.1</speed>
  <fix>3d</fix>
</trkpt>
<trkpt lat="-27.2744386" lon="151.2900636">
  <ele>364.27</ele>
  <time>2026-09-01T19:56:24Z</time>
  <course>10.68</course>
  <speed>0.0670820393249937</speed>
  <fix>3d</fix>
</trkpt>
<trkpt lat="-27.2744385" lon="151.2900635">
  <ele>364.15</ele>
  <time>2026-09-01T19:56:24Z</time>
  <course>16.73</course>
  <speed>0.09</speed>
  <fix>3d</fix>
</trkpt>
<trkpt lat="-27.2744385" lon="151.2900636">
  <ele>364.27</ele>
  <time>2026-09-01T19:56:24Z</time>
  <course>10.68</course>
  <speed>0.05830951894845301</speed>
  <fix>3d</fix>
</trkpt>
<trkpt lat="-27.2744385" lon="151.2900635">
  <ele>364.15</ele>
  <time>2026-09-01T19:56:24Z</time>
  <course>16.73</course>
  <speed>0.09</speed>
  <fix>3d</fix>
</trkpt>
<trkpt lat="-27.2744384" lon="151.2900636">
  <ele>364.27</ele>
  <time>2026-09-01T19:56:24Z</time>
  <course>10.68</course>
  <speed>0.05</speed>
  <fix>3d</fix>
</trkpt>
<trkpt lat="-27.2744384" lon="151.2900636">
  <ele>364.16</ele>
  <time>2026-09-01T19:56:24Z</time>
  <course>20.07</course>
  <speed>0.08</speed>
  <fix>3d</fix>
</trkpt>
<trkpt lat="-27.2744384" lon="151.2900637">
  <ele>364.27</ele>
  <time>2026-09-01T19:56:24Z</time>
  <course>10.69</course>
  <speed>0.05</speed>
  <fix>3d</fix>
</trkpt>
<trkpt lat="-27.2744384" lon="151.2900636">
  <ele>364.16</ele>
  <time>2026-09-01T19:56:24Z</time>
  <course>20.07</course>
  <speed>0.08</speed>
  <fix>3d</fix>
</trkpt>
<trkpt lat="-27.2744383" lon="151.2900637">
  <ele>364.27</ele>
  <time>2026-09-01T19:56:24Z</time>
  <course>10.69</course>
  <speed>0.04242640687119285</speed>
  <fix>3d</fix>
</trkpt>
<trkpt lat="-27.2744382" lon="151.2900636">
  <ele>364.16</ele>
  <time>2026-09-01T19:56:24Z</time>
  <course>24.63</course>
  <speed>0.07</speed>
  <fix>3d</fix>
</trkpt>
<trkpt lat="-27.2744383" lon="151.2900637">
  <ele>364.27</ele>
  <time>2026-09-01T19:56:24Z</time>
  <course>10.69</course>
  <speed>0.03605551275463989</speed>
  <fix>3d</fix>
</trkpt>
<trkpt lat="-27.2744382" lon="151.2900636">
  <ele>364.16</ele>
  <time>2026-09-01T19:56:24Z</time>
  <course>24.63</course>
  <speed>0.07</speed>
  <fix>3d</fix>
</trkpt>
<trkpt lat="-27.2744382" lon="151.2900637">
  <ele>364.27</ele>
  <time>2026-09-01T19:56:24Z</time>
  <course>10.69</course>
  <speed>0.03605551275463989</speed>
  <fix>3d</fix>
</trkpt>
<trkpt lat="-27.2744381" lon="151.2900637">
  <ele>364.17</ele>
  <time>2026-09-01T19:56:24Z</time>
  <course>30.97</course>
  <speed>0.05</speed>
  <fix>3d</fix>
</trkpt>
<trkpt lat="-27.2744382" lon="151.2900638">
  <ele>364.27</ele>
  <time>2026-09-01T19:56:24Z</time>
  <course>10.69</course>
  <speed>0.0316227766016838</speed>
  <fix>3d</fix>
</trkpt>
<trkpt lat="-27.2744381" lon="151.2900637">
  <ele>364.17</ele>
  <time>2026-09-01T19:56:24Z</time>
  <course>30.97</course>
  <speed>0.05</speed>
  <fix>3d</fix>
</trkpt>
<trkpt lat="-27.2744382" lon="151.2900638">
  <ele>364.27</ele>
  <time>2026-09-01T19:56:24Z</time>
  <course>10.69</course>
  <speed>0.03</speed>
  <fix>3d</fix>
</trkpt>
<trkpt lat="-27.2744381" lon="151.2900637">
  <ele>364.17</ele>
  <time>2026-09-01T19:56:24Z</time>
  <course>39.98</course>
  <speed>0.04</speed>
  <fix>3d</fix>
</trkpt>
<trkpt lat="-27.2744382" lon="151.2900638">
  <ele>364.28</ele>
  <time>2026-09-01T19:56:24Z</time>
  <course>10.69</course>
  <speed>0.02</speed>
  <fix>3d</fix>
</trkpt>
<trkpt lat="-27.2744381" lon="151.2900637">
  <ele>364.17</ele>
  <time>2026-09-01T19:56:24Z</time>
  <course>39.98</course>
  <speed>0.04</speed>
  <fix>3d</fix>
</trkpt>
<trkpt lat="-27.2744382" lon="151.2900638">
  <ele>364.28</ele>
  <time>2026-09-01T19:56:24Z</time>
  <course>10.69</course>
  <speed>0.02</speed>
  <fix>3d</fix>
</trkpt>
<trkpt lat="-27.274438" lon="151.2900638">
  <ele>364.18</ele>
  <time>2026-09-01T19:56:24Z</time>
  <course>52.7</course>
  <speed>0.03</speed>
  <fix>3d</fix>
</trkpt>
<trkpt lat="-27.2744382" lon="151.2900639">
  <ele>364.28</ele>
  <time>2026-09-01T19:56:24Z</time>
  <course>10.69</course>
  <speed>0.022360679774997897</speed>
  <fix>3d</fix>
</trkpt>
<trkpt lat="-27.274438" lon="151.2900638">
  <ele>364.18</ele>
  <time>2026-09-01T19:56:24Z</time>
  <course>52.7</course>
  <speed>0.03</speed>
  <fix>3d</fix>
</trkpt>
<trkpt lat="-27.2744382" lon="151.2900639">
  <ele>364.29</ele>
  <time>2026-09-01T19:56:24Z</time>
  <course>10.69</course>
  <speed>0.022360679774997897</speed>
  <fix>3d</fix>
</trkpt>
<trkpt lat="-27.274438" lon="151.2900639">
  <ele>364.18</ele>
  <time>2026-09-01T19:56:24Z</time>
  <course>71.14</course>
  <speed>0.03</speed>
  <fix>3d</fix>
</trkpt>
<trkpt lat="-27.2744381" lon="151.2900639">
  <ele>364.29</ele>
  <time>2026-09-01T19:56:24Z</time>
  <course>10.69</course>
  <speed>0.0282842712474619</speed>
  <fix>3d</fix>
</trkpt>
<trkpt lat="-27.274438" lon="151.2900639">
  <ele>364.18</ele>
  <time>2026-09-01T19:56:24Z</time>
  <course>71.14</course>
  <speed>0.03</speed>
  <fix>3d</fix>
</trkpt>
<trkpt lat="-27.2744381" lon="151.2900639">
  <ele>364.3</ele>
  <time>2026-09-01T19:56:24Z</time>
  <course>10.69</course>
  <speed>0.03605551275463989</speed>
  <fix>3d</fix>
</trkpt>
<trkpt lat="-27.274438" lon="151.2900639">
  <ele>364.19</ele>
  <time>2026-09-01T19:56:24Z</time>
  <course>95.65</course>
  <speed>0.02</speed>
  <fix>3d</fix>
</trkpt>
<trkpt lat="-27.2744381" lon="151.290064">
  <ele>364.3</ele>
  <time>2026-09-01T19:56:24Z</time>
  <course>10.69</course>
  <speed>0.03605551275463989</speed>
  <fix>3d</fix>
</trkpt>
<trkpt lat="-27.274438" lon="151.2900639">
  <ele>364.19</ele>
  <time>2026-09-01T19:56:24Z</time>
  <course>95.65</course>
  <speed>0.02</speed>
  <fix>3d</fix>
</trkpt>
<trkpt lat="-27.2744381" lon="151.290064">
  <ele>364.3</ele>
  <time>2026-09-01T19:56:24Z</time>
  <course>10.69</course>
  <speed>0.044721359549995794</speed>
  <fix>3d</fix>
</trkpt>
<trkpt lat="-27.274438" lon="151.290064">
  <ele>364.19</ele>
  <time>2026-09-01T19:56:24Z</time>
  <course>119.2</course>
  <speed>0.03</speed>
  <fix>3d</fix>
</trkpt>
<trkpt lat="-27.2744381" lon="151.290064">
  <ele>364.3</ele>
  <time>2026-09-01T19:56:24Z</time>
  <course>10.69</course>
  <speed>0.044721359549995794</speed>
  <fix>3d</fix>
</trkpt>
<trkpt lat="-27.274438" lon="151.290064">
  <ele>364.19</ele>
  <time>2026-09-01T19:56:24Z</time>
  <course>119.2</course>
  <speed>0.03</speed>
  <fix>3d</fix>
</trkpt>
<trkpt lat="-27.2744382" lon="151.290064">
  <ele>364.3</ele>
  <time>2026-09-01T19:56:24Z</time>
  <course>10.69</course>
  <speed>0.044721359549995794</speed>
  <fix>3d</fix>
</trkpt>
<trkpt lat="-27.274438" lon="151.290064">
  <ele>364.2</ele>
  <time>2026-09-01T19:56:24Z</time>
  <course>136.37</course>
  <speed>0.03</speed>
  <fix>3d</fix>
</trkpt>
<trkpt lat="-27.2744382" lon="151.290064">
  <ele>364.3</ele>
  <time>2026-09-01T19:56:24Z</time>
  <course>10.69</course>
  <speed>0.05099019513592785</speed>
  <fix>3d</fix>
</trkpt>
<trkpt lat="-27.274438" lon="151.290064">
  <ele>364.2</ele>
  <time>2026-09-01T19:56:24Z</time>
  <course>136.37</course>
  <speed>0.03</speed>
  <fix>3d</fix>
</trkpt>
<trkpt lat="-27.2744382" lon="151.2900641">
  <ele>364.3</ele>
  <time>2026-09-01T19:56:24Z</time>
  <course>10.69</course>
  <speed>0.05099019513592785</speed>
  <fix>3d</fix>
</trkpt>
<trkpt lat="-27.2744381" lon="151.2900641">
  <ele>364.21</ele>
  <time>2026-09-01T19:56:24Z</time>
  <course>147.84</course>
  <speed>0.04</speed>
  <fix>3d</fix>
</trkpt>
<trkpt lat="-27.2744383" lon="151.2900641">
  <ele>364.3</ele>
  <time>2026-09-01T19:56:24Z</time>
  <course>10.69</course>
  <speed>0.05099019513592785</speed>
  <fix>3d</fix>
</trkpt>
<trkpt lat="-27.2744381" lon="151.2900641">
  <ele>364.21</ele>
  <time>2026-09-01T19:56:24Z</time>
  <course>147.84</course>
  <speed>0.04</speed>
  <fix>3d</fix>
</trkpt>
<trkpt lat="-27.2744383" lon="151.2900641">
  <ele>364.3</ele>
  <time>2026-09-01T19:56:24Z</time>
  <course>10.69</course>
  <speed>0.06082762530298219</speed>
  <fix>3d</fix>
</trkpt>
<trkpt lat="-27.2744381" lon="151.2900641">
  <ele>364.21</ele>
  <time>2026-09-01T19:56:24Z</time>
  <course>155.5</course>
  <speed>0.04</speed>
  <fix>3d</fix>
</trkpt>
<trkpt lat="-27.2744383" lon="151.2900641">
  <ele>364.3</ele>
  <time>2026-09-01T19:56:24Z</time>
  <course>10.69</course>
  <speed>0.06082762530298219</speed>
  <fix>3d</fix>
</trkpt>
<trkpt lat="-27.2744381" lon="151.2900641">
  <ele>364.21</ele>
  <time>2026-09-01T19:56:24Z</time>
  <course>155.5</course>
  <speed>0.04</speed>
  <fix>3d</fix>
</trkpt>
<trkpt lat="-27.2744384" lon="151.2900641">
  <ele>364.3</ele>
  <time>2026-09-01T19:56:24Z</time>
  <course>10.69</course>
  <speed>0.06082762530298219</speed>
  <fix>3d</fix>
</trkpt>
<trkpt lat="-27.2744381" lon="151.2900642">
  <ele>364.21</ele>
  <time>2026-09-01T19:56:24Z</time>
  <course>160.97</course>
  <speed>0.05</speed>
  <fix>3d</fix>
</trkpt>
<trkpt lat="-27.2744384" lon="151.2900641">
  <ele>364.29</ele>
  <time>2026-09-01T19:56:24Z</time>
  <course>10.69</course>
  <speed>0.06082762530298219</speed>
  <fix>3d</fix>
</trkpt>
<trkpt lat="-27.2744381" lon="151.2900642">
  <ele>364.21</ele>
  <time>2026-09-01T19:56:24Z</time>
  <course>160.97</course>
  <speed>0.05</speed>
  <fix>3d</fix>
</trkpt>
<trkpt lat="-27.2744385" lon="151.2900642">
  <ele>364.29</ele>
  <time>2026-09-01T19:56:24Z</time>
  <course>10.69</course>
  <speed>0.06082762530298219</speed>
  <fix>3d</fix>
</trkpt>
<trkpt lat="-27.2744382" lon="151.2900642">
  <ele>364.21</ele>
  <time>2026-09-01T19:56:24Z</time>
  <course>165.66</course>
  <speed>0.05</speed>
  <fix>3d</fix>
</trkpt>
<trkpt lat="-27.2744385" lon="151.2900642">
  <ele>364.29</ele>
  <time>2026-09-01T19:56:24Z</time>
  <course>10.69</course>
  <speed>0.06</speed>
  <fix>3d</fix>
</trkpt>
<trkpt lat="-27.2744382" lon="151.2900642">
  <ele>364.21</ele>
  <time>2026-09-01T19:56:24Z</time>
  <course>165.66</course>
  <speed>0.05</speed>
  <fix>3d</fix>
</trkpt>
<trkpt lat="-27.2744385" lon="151.2900642">
  <ele>364.29</ele>
  <time>2026-09-01T19:56:24Z</time>
  <course>10.69</course>
  <speed>0.06</speed>
  <fix>3d</fix>
</trkpt>
<trkpt lat="-27.2744383" lon="151.2900642">
  <ele>364.21</ele>
  <time>2026-09-01T19:56:24Z</time>
  <course>169.97</course>
  <speed>0.05</speed>
  <fix>3d</fix>
</trkpt>
<trkpt lat="-27.2744386" lon="151.2900642">
  <ele>364.29</ele>
  <time>2026-09-01T19:56:24Z</time>
  <course>10.69</course>
  <speed>0.06</speed>
  <fix>3d</fix>
</trkpt>
<trkpt lat="-27.2744383" lon="151.2900642">
  <ele>364.21</ele>
  <time>2026-09-01T19:56:24Z</time>
  <course>169.97</course>
  <speed>0.05</speed>
  <fix>3d</fix>
</trkpt>
<trkpt lat="-27.2744386" lon="151.2900642">
  <ele>364.29</ele>
  <time>2026-09-01T19:56:24Z</time>
  <course>10.7</course>
  <speed>0.06</speed>
  <fix>3d</fix>
</trkpt>
<trkpt lat="-27.2744384" lon="151.2900642">
  <ele>364.21</ele>
  <time>2026-09-01T19:56:24Z</time>
  <course>173.89</course>
  <speed>0.05</speed>
  <fix>3d</fix>
</trkpt>
<trkpt lat="-27.2744387" lon="151.2900642">
  <ele>364.29</ele>
  <time>2026-09-01T19:56:24Z</time>
  <course>10.7</course>
  <speed>0.06</speed>
  <fix>3d</fix>
</trkpt>
<trkpt lat="-27.2744384" lon="151.2900642">
  <ele>364.21</ele>
  <time>2026-09-01T19:56:24Z</time>
  <course>173.89</course>
  <speed>0.05</speed>
  <fix>3d</fix>
</trkpt>
<trkpt lat="-27.2744387" lon="151.2900642">
  <ele>364.29</ele>
  <time>2026-09-01T19:56:24Z</time>
  <course>10.7</course>
  <speed>0.06</speed>
  <fix>3d</fix>
</trkpt>
<trkpt lat="-27.2744385" lon="151.2900642">
  <ele>364.21</ele>
  <time>2026-09-01T19:56:24Z</time>
  <course>177.69</course>
  <speed>0.05</speed>
  <fix>3d</fix>
</trkpt>
<trkpt lat="-27.2744388" lon="151.2900642">
  <ele>364.3</ele>
  <time>2026-09-01T19:56:24Z</time>
  <course>10.71</course>
  <speed>0.06</speed>
  <fix>3d</fix>
</trkpt>
<trkpt lat="-27.2744385" lon="151.2900642">
  <ele>364.21</ele>
  <time>2026-09-01T19:56:24Z</time>
  <course>177.69</course>
  <speed>0.05</speed>
  <fix>3d</fix>
</trkpt>
<trkpt lat="-27.2744388" lon="151.2900642">
  <ele>364.3</ele>
  <time>2026-09-01T19:56:24Z</time>
  <course>10.71</course>
  <speed>0.06</speed>
  <fix>3d</fix>
</trkpt>
<trkpt lat="-27.2744386" lon="151.2900642">
  <ele>364.21</ele>
  <time>2026-09-01T19:56:24Z</time>
  <course>181.46</course>
  <speed>0.05</speed>
  <fix>3d</fix>
</trkpt>
<trkpt lat="-27.2744388" lon="151.2900642">
  <ele>364.31</ele>
  <time>2026-09-01T19:56:24Z</time>
  <course>10.71</course>
  <speed>0.06</speed>
  <fix>3d</fix>
</trkpt>
<trkpt lat="-27.2744386" lon="151.2900642">
  <ele>364.21</ele>
  <time>2026-09-01T19:56:24Z</time>
  <course>181.46</course>
  <speed>0.05</speed>
  <fix>3d</fix>
</trkpt>
<trkpt lat="-27.2744389" lon="151.2900642">
  <ele>364.31</ele>
  <time>2026-09-01T19:56:24Z</time>
  <course>10.71</course>
  <speed>0.06</speed>
  <fix>3d</fix>
</trkpt>
<trkpt lat="-27.2744387" lon="151.2900642">
  <ele>364.22</ele>
  <time>2026-09-01T19:56:24Z</time>
  <course>185.23</course>
  <speed>0.05</speed>
  <fix>3d</fix>
</trkpt>
<trkpt lat="-27.2744389" lon="151.2900642">
  <ele>364.31</ele>
  <time>2026-09-01T19:56:24Z</time>
  <course>10.7</course>
  <speed>0.06</speed>
  <fix>3d</fix>
</trkpt>
<trkpt lat="-27.2744387" lon="151.2900642">
  <ele>364.22</ele>
  <time>2026-09-01T19:56:24Z</time>
  <course>185.23</course>
  <speed>0.05</speed>
  <fix>3d</fix>
</trkpt>
<trkpt lat="-27.274439" lon="151.2900642">
  <ele>364.31</ele>
  <time>2026-09-01T19:56:24Z</time>
  <course>10.7</course>
  <speed>0.06</speed>
  <fix>3d</fix>
</trkpt>
<trkpt lat="-27.2744388" lon="151.2900642">
  <ele>364.22</ele>
  <time>2026-09-01T19:56:24Z</time>
  <course>188.96</course>
  <speed>0.05</speed>
  <fix>3d</fix>
</trkpt>
<trkpt lat="-27.274439" lon="151.2900642">
  <ele>364.32</ele>
  <time>2026-09-01T19:56:24Z</time>
  <course>10.69</course>
  <speed>0.05</speed>
  <fix>3d</fix>
</trkpt>
<trkpt lat="-27.2744388" lon="151.2900642">
  <ele>364.22</ele>
  <time>2026-09-01T19:56:24Z</time>
  <course>188.96</course>
  <speed>0.05</speed>
  <fix>3d</fix>
</trkpt>
<trkpt lat="-27.2744391" lon="151.2900642">
  <ele>364.32</ele>
  <time>2026-09-01T19:56:24Z</time>
  <course>10.69</course>
  <speed>0.05</speed>
  <fix>3d</fix>
</trkpt>
<trkpt lat="-27.2744389" lon="151.2900642">
  <ele>364.22</ele>
  <time>2026-09-01T19:56:24Z</time>
  <course>192.72</course>
  <speed>0.05</speed>
  <fix>3d</fix>
</trkpt>
<trkpt lat="-27.2744391" lon="151.2900642">
  <ele>364.32</ele>
  <time>2026-09-01T19:56:24Z</time>
  <course>10.68</course>
  <speed>0.05</speed>
  <fix>3d</fix>
</trkpt>
<trkpt lat="-27.2744389" lon="151.2900642">
  <ele>364.22</ele>
  <time>2026-09-01T19:56:24Z</time>
  <course>192.72</course>
  <speed>0.05</speed>
  <fix>3d</fix>
</trkpt>
<trkpt lat="-27.2744391" lon="151.2900642">
  <ele>364.31</ele>
  <time>2026-09-01T19:56:24Z</time>
  <course>10.68</course>
  <speed>0.05099019513592785</speed>
  <fix>3d</fix>
</trkpt>
<trkpt lat="-27.274439" lon="151.2900642">
  <ele>364.22</ele>
  <time>2026-09-01T19:56:24Z</time>
  <course>196.76</course>
  <speed>0.05</speed>
  <fix>3d</fix>
</trkpt>
<trkpt lat="-27.2744392" lon="151.2900642">
  <ele>364.31</ele>
  <time>2026-09-01T19:56:24Z</time>
  <course>10.67</course>
  <speed>0.0412310562561766</speed>
  <fix>3d</fix>
</trkpt>
<trkpt lat="-27.274439" lon="151.2900642">
  <ele>364.22</ele>
  <time>2026-09-01T19:56:24Z</time>
  <course>196.76</course>
  <speed>0.05</speed>
  <fix>3d</fix>
</trkpt>
<trkpt lat="-27.2744392" lon="151.2900642">
  <ele>364.31</ele>
  <time>2026-09-01T19:56:24Z</time>
  <course>10.67</course>
  <speed>0.0412310562561766</speed>
  <fix>3d</fix>
</trkpt>
<trkpt lat="-27.2744391" lon="151.2900642">
  <ele>364.22</ele>
  <time>2026-09-01T19:56:24Z</time>
  <course>201.41</course>
  <speed>0.04</speed>
  <fix>3d</fix>
</trkpt>
<trkpt lat="-27.2744392" lon="151.2900642">
  <ele>364.31</ele>
  <time>2026-09-01T19:56:24Z</time>
  <course>10.67</course>
  <speed>0.0412310562561766</speed>
  <fix>3d</fix>
</trkpt>
<trkpt lat="-27.2744391" lon="151.2900642">
  <ele>364.22</ele>
  <time>2026-09-01T19:56:24Z</time>
  <course>201.41</course>
  <speed>0.04</speed>
  <fix>3d</fix>
</trkpt>
<trkpt lat="-27.2744393" lon="151.2900642">
  <ele>364.31</ele>
  <time>2026-09-01T19:56:24Z</time>
  <course>10.67</course>
  <speed>0.0316227766016838</speed>
  <fix>3d</fix>
</trkpt>
<trkpt lat="-27.2744392" lon="151.2900642">
  <ele>364.21</ele>
  <time>2026-09-01T19:56:24Z</time>
  <course>207.0</course>
  <speed>0.04</speed>
  <fix>3d</fix>
</trkpt>
<trkpt lat="-27.2744393" lon="151.2900642">
  <ele>364.31</ele>
  <time>2026-09-01T19:56:24Z</time>
  <course>10.68</course>
  <speed>0.0316227766016838</speed>
  <fix>3d</fix>
</trkpt>
<trkpt lat="-27.2744392" lon="151.2900642">
  <ele>364.21</ele>
  <time>2026-09-01T19:56:24Z</time>
  <course>207.0</course>
  <speed>0.04</speed>
  <fix>3d</fix>
</trkpt>
<trkpt lat="-27.2744393" lon="151.2900641">
  <ele>364.31</ele>
  <time>2026-09-01T19:56:24Z</time>
  <course>10.68</course>
  <speed>0.0316227766016838</speed>
  <fix>3d</fix>
</trkpt>
<trkpt lat="-27.2744393" lon="151.2900642">
  <ele>364.21</ele>
  <time>2026-09-01T19:56:24Z</time>
  <course>213.91</course>
  <speed>0.03</speed>
  <fix>3d</fix>
</trkpt>
<trkpt lat="-27.2744393" lon="151.2900641">
  <ele>364.31</ele>
  <time>2026-09-01T19:56:24Z</time>
  <course>10.68</course>
  <speed>0.0316227766016838</speed>
  <fix>3d</fix>
</trkpt>
<trkpt lat="-27.2744393" lon="151.2900642">
  <ele>364.21</ele>
  <time>2026-09-01T19:56:24Z</time>
  <course>213.91</course>
  <speed>0.03</speed>
  <fix>3d</fix>
</trkpt>
<trkpt lat="-27.2744393" lon="151.2900641">
  <ele>364.31</ele>
  <time>2026-09-01T19:56:24Z</time>
  <course>10.68</course>
  <speed>0.022360679774997897</speed>
  <fix>3d</fix>
</trkpt>
<trkpt lat="-27.2744393" lon="151.2900641">
  <ele>364.21</ele>
  <time>2026-09-01T19:56:24Z</time>
  <course>222.46</course>
  <speed>0.03</speed>
  <fix>3d</fix>
</trkpt>
<trkpt lat="-27.2744394" lon="151.2900641">
  <ele>364.31</ele>
  <time>2026-09-01T19:56:24Z</time>
  <course>10.69</course>
  <speed>0.022360679774997897</speed>
  <fix>3d</fix>
</trkpt>
<trkpt lat="-27.2744393" lon="151.2900641">
  <ele>364.21</ele>
  <time>2026-09-01T19:56:24Z</time>
  <course>222.46</course>
  <speed>0.03</speed>
  <fix>3d</fix>
</trkpt>
<trkpt lat="-27.2744394" lon="151.2900641">
  <ele>364.31</ele>
  <time>2026-09-01T19:56:24Z</time>
  <course>10.69</course>
  <speed>0.022360679774997897</speed>
  <fix>3d</fix>
</trkpt>
<trkpt lat="-27.2744394" lon="151.2900641">
  <ele>364.2</ele>
  <time>2026-09-01T19:56:24Z</time>
  <course>232.88</course>
  <speed>0.03</speed>
  <fix>3d</fix>
</trkpt>
<trkpt lat="-27.2744394" lon="151.2900641">
  <ele>364.31</ele>
  <time>2026-09-01T19:56:24Z</time>
  <course>10.69</course>
  <speed>0.01414213562373095</speed>
  <fix>3d</fix>
</trkpt>
<trkpt lat="-27.2744394" lon="151.2900641">
  <ele>364.2</ele>
  <time>2026-09-01T19:56:24Z</time>
  <course>232.88</course>
  <speed>0.03</speed>
  <fix>3d</fix>
</trkpt>
<trkpt lat="-27.2744394" lon="151.2900641">
  <ele>364.31</ele>
  <time>2026-09-01T19:56:24Z</time>
  <course>10.7</course>
  <speed>0.01414213562373095</speed>
  <fix>3d</fix>
</trkpt>
<trkpt lat="-27.2744394" lon="151.290064">
  <ele>364.2</ele>
  <time>2026-09-01T19:56:24Z</time>
  <course>245.34</course>
  <speed>0.02</speed>
  <fix>3d</fix>
</trkpt>
<trkpt lat="-27.2744394" lon="151.290064">
  <ele>364.31</ele>
  <time>2026-09-01T19:56:24Z</time>
  <course>10.71</course>
  <speed>0.01414213562373095</speed>
  <fix>3d</fix>
</trkpt>
<trkpt lat="-27.2744394" lon="151.290064">
  <ele>364.2</ele>
  <time>2026-09-01T19:56:24Z</time>
  <course>245.34</course>
  <speed>0.02</speed>
  <fix>3d</fix>
</trkpt>
<trkpt lat="-27.2744394" lon="151.290064">
  <ele>364.31</ele>
  <time>2026-09-01T19:56:25Z</time>
  <course>10.71</course>
  <speed>0.01</speed>
  <fix>3d</fix>
</trkpt>
<trkpt lat="-27.2744394" lon="151.290064">
  <ele>364.2</ele>
  <time>2026-09-01T19:56:25Z</time>
  <course>259.44</course>
  <speed>0.02</speed>
  <fix>3d</fix>
</trkpt>
<trkpt lat="-27.2744394" lon="151.290064">
  <ele>364.31</ele>
  <time>2026-09-01T19:56:25Z</time>
  <course>10.71</course>
  <speed>0.01</speed>
  <fix>3d</fix>
</trkpt>
<trkpt lat="-27.2744394" lon="151.290064">
  <ele>364.2</ele>
  <time>2026-09-01T19:56:25Z</time>
  <course>259.44</course>
  <speed>0.02</speed>
  <fix>3d</fix>
</trkpt>
<trkpt lat="-27.2744394" lon="151.290064">
  <ele>364.32</ele>
  <time>2026-09-01T19:56:25Z</time>
  <course>10.69</course>
  <speed>0.01</speed>
  <fix>3d</fix>
</trkpt>
<trkpt lat="-27.2744394" lon="151.2900639">
  <ele>364.2</ele>
  <time>2026-09-01T19:56:25Z</time>
  <course>273.99</course>
  <speed>0.02</speed>
  <fix>3d</fix>
</trkpt>
<trkpt lat="-27.2744394" lon="151.290064">
  <ele>364.31</ele>
  <time>2026-09-01T19:56:25Z</time>
  <course>10.68</course>
  <speed>0.01</speed>
  <fix>3d</fix>
</trkpt>
<trkpt lat="-27.2744394" lon="151.2900639">
  <ele>364.2</ele>
  <time>2026-09-01T19:56:25Z</time>
  <course>273.99</course>
  <speed>0.02</speed>
  <fix>3d</fix>
</trkpt>
<trkpt lat="-27.2744394" lon="151.2900639">
  <ele>364.31</ele>
  <time>2026-09-01T19:56:25Z</time>
  <course>10.67</course>
  <speed>0.01</speed>
  <fix>3d</fix>
</trkpt>
<trkpt lat="-27.2744394" lon="151.2900638">
  <ele>364.19</ele>
  <time>2026-09-01T19:56:25Z</time>
  <course>286.47</course>
  <speed>0.03</speed>
  <fix>3d</fix>
</trkpt>
<trkpt lat="-27.2744394" lon="151.2900639">
  <ele>364.31</ele>
  <time>2026-09-01T19:56:25Z</time>
  <course>10.67</course>
  <speed>0.01</speed>
  <fix>3d</fix>
</trkpt>
<trkpt lat="-27.2744394" lon="151.2900638">
  <ele>364.19</ele>
  <time>2026-09-01T19:56:25Z</time>
  <course>286.47</course>
  <speed>0.03</speed>
  <fix>3d</fix>
</trkpt>
<trkpt lat="-27.2744394" lon="151.2900639">
  <ele>364.31</ele>
  <time>2026-09-01T19:56:25Z</time>
  <course>10.67</course>
  <speed>0.01</speed>
  <fix>3d</fix>
</trkpt>
<trkpt lat="-27.2744394" lon="151.2900637">
  <ele>364.19</ele>
  <time>2026-09-01T19:56:25Z</time>
  <course>296.97</course>
  <speed>0.03</speed>
  <fix>3d</fix>
</trkpt>
<trkpt lat="-27.2744394" lon="151.2900639">
  <ele>364.31</ele>
  <time>2026-09-01T19:56:25Z</time>
  <course>10.67</course>
  <speed>0.01414213562373095</speed>
  <fix>3d</fix>
</trkpt>
<trkpt lat="-27.2744394" lon="151.2900637">
  <ele>364.19</ele>
  <time>2026-09-01T19:56:25Z</time>
  <course>296.97</course>
  <speed>0.03</speed>
  <fix>3d</fix>
</trkpt>
<trkpt lat="-27.2744394" lon="151.2900638">
  <ele>364.3</ele>
  <time>2026-09-01T19:56:25Z</time>
  <course>10.67</course>
  <speed>0.01</speed>
  <fix>3d</fix>
</trkpt>
<trkpt lat="-27.2744394" lon="151.2900637">
  <ele>364.19</ele>
  <time>2026-09-01T19:56:25Z</time>
  <course>306.51</course>
  <speed>0.03</speed>
  <fix>3d</fix>
</trkpt>
<trkpt lat="-27.2744394" lon="151.2900638">
  <ele>364.3</ele>
  <time>2026-09-01T19:56:25Z</time>
  <course>10.67</course>
  <speed>0.01</speed>
  <fix>3d</fix>
</trkpt>
<trkpt lat="-27.2744394" lon="151.2900637">
  <ele>364.19</ele>
  <time>2026-09-01T19:56:25Z</time>
  <course>306.51</course>
  <speed>0.03</speed>
  <fix>3d</fix>
</trkpt>
<trkpt lat="-27.2744394" lon="151.2900638">
  <ele>364.3</ele>
  <time>2026-09-01T19:56:25Z</time>
  <course>10.68</course>
  <speed>0.01</speed>
  <fix>3d</fix>
</trkpt>
<trkpt lat="-27.2744394" lon="151.2900637">
  <ele>364.18</ele>
  <time>2026-09-01T19:56:25Z</time>
  <course>314.52</course>
  <speed>0.03</speed>
  <fix>3d</fix>
</trkpt>
<trkpt lat="-27.2744394" lon="151.2900638">
  <ele>364.29</ele>
  <time>2026-09-01T19:56:25Z</time>
  <course>10.68</course>
  <speed>0.01</speed>
  <fix>3d</fix>
</trkpt>
<trkpt lat="-27.2744394" lon="151.2900637">
  <ele>364.18</ele>
  <time>2026-09-01T19:56:25Z</time>
  <course>314.52</course>
  <speed>0.03</speed>
  <fix>3d</fix>
</trkpt>
<trkpt lat="-27.2744394" lon="151.2900637">
  <ele>364.29</ele>
  <time>2026-09-01T19:56:25Z</time>
  <course>10.68</course>
  <speed>0.01</speed>
  <fix>3d</fix>
</trkpt>
<trkpt lat="-27.2744393" lon="151.2900636">
  <ele>364.18</ele>
  <time>2026-09-01T19:56:25Z</time>
  <course>320.22</course>
  <speed>0.04</speed>
  <fix>3d</fix>
</trkpt>
<trkpt lat="-27.2744393" lon="151.2900637">
  <ele>364.29</ele>
  <time>2026-09-01T19:56:25Z</time>
  <course>10.68</course>
  <speed>0.02</speed>
  <fix>3d</fix>
</trkpt>
<trkpt lat="-27.2744393" lon="151.2900636">
  <ele>364.18</ele>
  <time>2026-09-01T19:56:25Z</time>
  <course>320.22</course>
  <speed>0.04</speed>
  <fix>3d</fix>
</trkpt>
<trkpt lat="-27.2744393" lon="151.2900637">
  <ele>364.29</ele>
  <time>2026-09-01T19:56:25Z</time>
  <course>10.69</course>
  <speed>0.02</speed>
  <fix>3d</fix>
</trkpt>
<trkpt lat="-27.2744393" lon="151.2900636">
  <ele>364.18</ele>
  <time>2026-09-01T19:56:25Z</time>
  <course>324.95</course>
  <speed>0.04</speed>
  <fix>3d</fix>
</trkpt>
<trkpt lat="-27.2744393" lon="151.2900637">
  <ele>364.29</ele>
  <time>2026-09-01T19:56:25Z</time>
  <course>10.69</course>
  <speed>0.02</speed>
  <fix>3d</fix>
</trkpt>
<trkpt lat="-27.2744393" lon="151.2900636">
  <ele>364.18</ele>
  <time>2026-09-01T19:56:25Z</time>
  <course>324.95</course>
  <speed>0.04</speed>
  <fix>3d</fix>
</trkpt>
<trkpt lat="-27.2744393" lon="151.2900637">
  <ele>364.29</ele>
  <time>2026-09-01T19:56:25Z</time>
  <course>10.69</course>
  <speed>0.02</speed>
  <fix>3d</fix>
</trkpt>
<trkpt lat="-27.2744392" lon="151.2900635">
  <ele>364.17</ele>
  <time>2026-09-01T19:56:25Z</time>
  <course>329.53</course>
  <speed>0.04</speed>
  <fix>3d</fix>
</trkpt>
<trkpt lat="-27.2744392" lon="151.2900637">
  <ele>364.29</ele>
  <time>2026-09-01T19:56:25Z</time>
  <course>10.68</course>
  <speed>0.02</speed>
  <fix>3d</fix>
</trkpt>
<trkpt lat="-27.2744392" lon="151.2900635">
  <ele>364.17</ele>
  <time>2026-09-01T19:56:25Z</time>
  <course>329.53</course>
  <speed>0.04</speed>
  <fix>3d</fix>
</trkpt>
<trkpt lat="-27.2744392" lon="151.2900636">
  <ele>364.29</ele>
  <time>2026-09-01T19:56:25Z</time>
  <course>10.68</course>
  <speed>0.02</speed>
  <fix>3d</fix>
</trkpt>
<trkpt lat="-27.2744391" lon="151.2900635">
  <ele>364.17</ele>
  <time>2026-09-01T19:56:25Z</time>
  <course>333.89</course>
  <speed>0.04</speed>
  <fix>3d</fix>
</trkpt>
<trkpt lat="-27.2744392" lon="151.2900636">
  <ele>364.29</ele>
  <time>2026-09-01T19:56:25Z</time>
  <course>10.68</course>
  <speed>0.02</speed>
  <fix>3d</fix>
</trkpt>
<trkpt lat="-27.2744391" lon="151.2900635">
  <ele>364.17</ele>
  <time>2026-09-01T19:56:25Z</time>
  <course>333.89</course>
  <speed>0.04</speed>
  <fix>3d</fix>
</trkpt>
<trkpt lat="-27.2744391" lon="151.2900636">
  <ele>364.29</ele>
  <time>2026-09-01T19:56:25Z</time>
  <course>10.68</course>
  <speed>0.02</speed>
  <fix>3d</fix>
</trkpt>
<trkpt lat="-27.2744391" lon="151.2900634">
  <ele>364.17</ele>
  <time>2026-09-01T19:56:25Z</time>
  <course>338.32</course>
  <speed>0.04</speed>
  <fix>3d</fix>
</trkpt>
<trkpt lat="-27.2744391" lon="151.2900636">
  <ele>364.29</ele>
  <time>2026-09-01T19:56:25Z</time>
  <course>10.68</course>
  <speed>0.02</speed>
  <fix>3d</fix>
</trkpt>
<trkpt lat="-27.2744391" lon="151.2900634">
  <ele>364.17</ele>
  <time>2026-09-01T19:56:25Z</time>
  <course>338.32</course>
  <speed>0.04</speed>
  <fix>3d</fix>
</trkpt>
<trkpt lat="-27.2744391" lon="151.2900636">
  <ele>364.29</ele>
  <time>2026-09-01T19:56:25Z</time>
  <course>10.68</course>
  <speed>0.02</speed>
  <fix>3d</fix>
</trkpt>
<trkpt lat="-27.274439" lon="151.2900633">
  <ele>364.17</ele>
  <time>2026-09-01T19:56:25Z</time>
  <course>342.38</course>
  <speed>0.04</speed>
  <fix>3d</fix>
</trkpt>
<trkpt lat="-27.274439" lon="151.2900636">
  <ele>364.29</ele>
  <time>2026-09-01T19:56:25Z</time>
  <course>10.68</course>
  <speed>0.02</speed>
  <fix>3d</fix>
</trkpt>
<trkpt lat="-27.274439" lon="151.2900633">
  <ele>364.17</ele>
  <time>2026-09-01T19:56:25Z</time>
  <course>342.38</course>
  <speed>0.04</speed>
  <fix>3d</fix>
</trkpt>
<trkpt lat="-27.274439" lon="151.2900635">
  <ele>364.29</ele>
  <time>2026-09-01T19:56:25Z</time>
  <course>10.68</course>
  <speed>0.02</speed>
  <fix>3d</fix>
</trkpt>
<trkpt lat="-27.2744389" lon="151.2900633">
  <ele>364.18</ele>
  <time>2026-09-01T19:56:25Z</time>
  <course>346.05</course>
  <speed>0.04</speed>
  <fix>3d</fix>
</trkpt>
<trkpt lat="-27.274439" lon="151.2900635">
  <ele>364.29</ele>
  <time>2026-09-01T19:56:25Z</time>
  <course>10.68</course>
  <speed>0.02</speed>
  <fix>3d</fix>
</trkpt>
<trkpt lat="-27.2744389" lon="151.2900633">
  <ele>364.18</ele>
  <time>2026-09-01T19:56:25Z</time>
  <course>346.05</course>
  <speed>0.04</speed>
  <fix>3d</fix>
</trkpt>
<trkpt lat="-27.2744389" lon="151.2900635">
  <ele>364.29</ele>
  <time>2026-09-01T19:56:25Z</time>
  <course>10.68</course>
  <speed>0.022360679774997897</speed>
  <fix>3d</fix>
</trkpt>
<trkpt lat="-27.2744388" lon="151.2900633">
  <ele>364.18</ele>
  <time>2026-09-01T19:56:25Z</time>
  <course>349.96</course>
  <speed>0.04</speed>
  <fix>3d</fix>
</trkpt>
<trkpt lat="-27.2744389" lon="151.2900635">
  <ele>364.29</ele>
  <time>2026-09-01T19:56:25Z</time>
  <course>10.68</course>
  <speed>0.022360679774997897</speed>
  <fix>3d</fix>
</trkpt>
<trkpt lat="-27.2744388" lon="151.2900633">
  <ele>364.18</ele>
  <time>2026-09-01T19:56:25Z</time>
  <course>349.96</course>
  <speed>0.04</speed>
  <fix>3d</fix>
</trkpt>
<trkpt lat="-27.2744388" lon="151.2900635">
  <ele>364.29</ele>
  <time>2026-09-01T19:56:25Z</time>
  <course>10.68</course>
  <speed>0.022360679774997897</speed>
  <fix>3d</fix>
</trkpt>
<trkpt lat="-27.2744387" lon="151.2900633">
  <ele>364.18</ele>
  <time>2026-09-01T19:56:25Z</time>
  <course>354.42</course>
  <speed>0.04</speed>
  <fix>3d</fix>
</trkpt>
<trkpt lat="-27.2744388" lon="151.2900635">
  <ele>364.29</ele>
  <time>2026-09-01T19:56:25Z</time>
  <course>10.68</course>
  <speed>0.022360679774997897</speed>
  <fix>3d</fix>
</trkpt>
<trkpt lat="-27.2744387" lon="151.2900633">
  <ele>364.18</ele>
  <time>2026-09-01T19:56:25Z</time>
  <course>354.42</course>
  <speed>0.04</speed>
  <fix>3d</fix>
</trkpt>
<trkpt lat="-27.2744388" lon="151.2900635">
  <ele>364.3</ele>
  <time>2026-09-01T19:56:25Z</time>
  <course>10.68</course>
  <speed>0.022360679774997897</speed>
  <fix>3d</fix>
</trkpt>
<trkpt lat="-27.2744387" lon="151.2900633">
  <ele>364.18</ele>
  <time>2026-09-01T19:56:25Z</time>
  <course>359.43</course>
  <speed>0.04</speed>
  <fix>3d</fix>
</trkpt>
<trkpt lat="-27.2744387" lon="151.2900635">
  <ele>364.29</ele>
  <time>2026-09-01T19:56:25Z</time>
  <course>10.68</course>
  <speed>0.022360679774997897</speed>
  <fix>3d</fix>
</trkpt>
<trkpt lat="-27.2744387" lon="151.2900633">
  <ele>364.18</ele>
  <time>2026-09-01T19:56:25Z</time>
  <course>359.43</course>
  <speed>0.04</speed>
  <fix>3d</fix>
</trkpt>
<trkpt lat="-27.2744387" lon="151.2900635">
  <ele>364.29</ele>
  <time>2026-09-01T19:56:25Z</time>
  <course>10.68</course>
  <speed>0.0282842712474619</speed>
  <fix>3d</fix>
</trkpt>
<trkpt lat="-27.2744386" lon="151.2900633">
  <ele>364.18</ele>
  <time>2026-09-01T19:56:25Z</time>
  <course>4.73</course>
  <speed>0.04</speed>
  <fix>3d</fix>
</trkpt>
<trkpt lat="-27.2744387" lon="151.2900635">
  <ele>364.29</ele>
  <time>2026-09-01T19:56:25Z</time>
  <course>10.68</course>
  <speed>0.022360679774997897</speed>
  <fix>3d</fix>
</trkpt>
<trkpt lat="-27.2744386" lon="151.2900633">
  <ele>364.18</ele>
  <time>2026-09-01T19:56:25Z</time>
  <course>4.73</course>
  <speed>0.04</speed>
  <fix>3d</fix>
</trkpt>
<trkpt lat="-27.2744386" lon="151.2900635">
  <ele>364.29</ele>
  <time>2026-09-01T19:56:25Z</time>
  <course>10.68</course>
  <speed>0.022360679774997897</speed>
  <fix>3d</fix>
</trkpt>
<trkpt lat="-27.2744385" lon="151.2900633">
  <ele>364.18</ele>
  <time>2026-09-01T19:56:25Z</time>
  <course>10.24</course>
  <speed>0.04</speed>
  <fix>3d</fix>
</trkpt>
<trkpt lat="-27.2744386" lon="151.2900635">
  <ele>364.29</ele>
  <time>2026-09-01T19:56:25Z</time>
  <course>10.68</course>
  <speed>0.022360679774997897</speed>
  <fix>3d</fix>
</trkpt>
<trkpt lat="-27.2744385" lon="151.2900633">
  <ele>364.18</ele>
  <time>2026-09-01T19:56:25Z</time>
  <course>10.24</course>
  <speed>0.04</speed>
  <fix>3d</fix>
</trkpt>
<trkpt lat="-27.2744386" lon="151.2900635">
  <ele>364.29</ele>
  <time>2026-09-01T19:56:25Z</time>
  <course>10.68</course>
  <speed>0.02</speed>
  <fix>3d</fix>
</trkpt>
<trkpt lat="-27.2744384" lon="151.2900633">
  <ele>364.17</ele>
  <time>2026-09-01T19:56:25Z</time>
  <course>16.41</course>
  <speed>0.03</speed>
  <fix>3d</fix>
</trkpt>
<trkpt lat="-27.2744386" lon="151.2900635">
  <ele>364.29</ele>
  <time>2026-09-01T19:56:25Z</time>
  <course>10.68</course>
  <speed>0.02</speed>
  <fix>3d</fix>
</trkpt>
<trkpt lat="-27.2744384" lon="151.2900633">
  <ele>364.17</ele>
  <time>2026-09-01T19:56:25Z</time>
  <course>16.41</course>
  <speed>0.03</speed>
  <fix>3d</fix>
</trkpt>
<trkpt lat="-27.2744385" lon="151.2900635">
  <ele>364.28</ele>
  <time>2026-09-01T19:56:25Z</time>
  <course>10.69</course>
  <speed>0.02</speed>
  <fix>3d</fix>
</trkpt>
<trkpt lat="-27.2744384" lon="151.2900633">
  <ele>364.17</ele>
  <time>2026-09-01T19:56:25Z</time>
  <course>23.63</course>
  <speed>0.03</speed>
  <fix>3d</fix>
</trkpt>
<trkpt lat="-27.2744385" lon="151.2900635">
  <ele>364.28</ele>
  <time>2026-09-01T19:56:25Z</time>
  <course>10.69</course>
  <speed>0.02</speed>
  <fix>3d</fix>
</trkpt>
<trkpt lat="-27.2744384" lon="151.2900633">
  <ele>364.17</ele>
  <time>2026-09-01T19:56:25Z</time>
  <course>23.63</course>
  <speed>0.03</speed>
  <fix>3d</fix>
</trkpt>
<trkpt lat="-27.2744385" lon="151.2900635">
  <ele>364.28</ele>
  <time>2026-09-01T19:56:25Z</time>
  <course>10.69</course>
  <speed>0.02</speed>
  <fix>3d</fix>
</trkpt>
<trkpt lat="-27.2744383" lon="151.2900633">
  <ele>364.17</ele>
  <time>2026-09-01T19:56:25Z</time>
  <course>32.36</course>
  <speed>0.03</speed>
  <fix>3d</fix>
</trkpt>
<trkpt lat="-27.2744385" lon="151.2900635">
  <ele>364.28</ele>
  <time>2026-09-01T19:56:25Z</time>
  <course>10.69</course>
  <speed>0.03</speed>
  <fix>3d</fix>
</trkpt>
<trkpt lat="-27.2744383" lon="151.2900633">
  <ele>364.17</ele>
  <time>2026-09-01T19:56:25Z</time>
  <course>32.36</course>
  <speed>0.03</speed>
  <fix>3d</fix>
</trkpt>
<trkpt lat="-27.2744385" lon="151.2900635">
  <ele>364.28</ele>
  <time>2026-09-01T19:56:25Z</time>
  <course>10.69</course>
  <speed>0.03</speed>
  <fix>3d</fix>
</trkpt>
<trkpt lat="-27.2744383" lon="151.2900633">
  <ele>364.17</ele>
  <time>2026-09-01T19:56:25Z</time>
  <course>42.91</course>
  <speed>0.02</speed>
  <fix>3d</fix>
</trkpt>
<trkpt lat="-27.2744385" lon="151.2900635">
  <ele>364.28</ele>
  <time>2026-09-01T19:56:25Z</time>
  <course>10.68</course>
  <speed>0.03</speed>
  <fix>3d</fix>
</trkpt>
<trkpt lat="-27.2744383" lon="151.2900633">
  <ele>364.17</ele>
  <time>2026-09-01T19:56:25Z</time>
  <course>42.91</course>
  <speed>0.02</speed>
  <fix>3d</fix>
</trkpt>
<trkpt lat="-27.2744385" lon="151.2900635">
  <ele>364.28</ele>
  <time>2026-09-01T19:56:25Z</time>
  <course>10.68</course>
  <speed>0.0316227766016838</speed>
  <fix>3d</fix>
</trkpt>
<trkpt lat="-27.2744383" lon="151.2900633">
  <ele>364.17</ele>
  <time>2026-09-01T19:56:25Z</time>
  <course>54.34</course>
  <speed>0.02</speed>
  <fix>3d</fix>
</trkpt>
<trkpt lat="-27.2744385" lon="151.2900635">
  <ele>364.28</ele>
  <time>2026-09-01T19:56:25Z</time>
  <course>10.68</course>
  <speed>0.0316227766016838</speed>
  <fix>3d</fix>
</trkpt>
<trkpt lat="-27.2744383" lon="151.2900633">
  <ele>364.17</ele>
  <time>2026-09-01T19:56:25Z</time>
  <course>54.34</course>
  <speed>0.02</speed>
  <fix>3d</fix>
</trkpt>
<trkpt lat="-27.2744384" lon="151.2900636">
  <ele>364.28</ele>
  <time>2026-09-01T19:56:25Z</time>
  <course>10.67</course>
  <speed>0.0316227766016838</speed>
  <fix>3d</fix>
</trkpt>
<trkpt lat="-27.2744382" lon="151.2900634">
  <ele>364.17</ele>
  <time>2026-09-01T19:56:25Z</time>
  <course>66.26</course>
  <speed>0.02</speed>
  <fix>3d</fix>
</trkpt>
<trkpt lat="-27.2744384" lon="151.2900636">
  <ele>364.29</ele>
  <time>2026-09-01T19:56:25Z</time>
  <course>10.67</course>
  <speed>0.0316227766016838</speed>
  <fix>3d</fix>
</trkpt>
<trkpt lat="-27.2744382" lon="151.2900634">
  <ele>364.17</ele>
  <time>2026-09-01T19:56:25Z</time>
  <course>66.26</course>
  <speed>0.02</speed>
  <fix>3d</fix>
</trkpt>
<trkpt lat="-27.2744384" lon="151.2900636">
  <ele>364.29</ele>
  <time>2026-09-01T19:56:25Z</time>
  <course>10.68</course>
  <speed>0.03605551275463989</speed>
  <fix>3d</fix>
</trkpt>
<trkpt lat="-27.2744382" lon="151.2900635">
  <ele>364.18</ele>
  <time>2026-09-01T19:56:25Z</time>
  <course>77.66</course>
  <speed>0.02</speed>
  <fix>3d</fix>
</trkpt>
<trkpt lat="-27.2744384" lon="151.2900636">
  <ele>364.29</ele>
  <time>2026-09-01T19:56:25Z</time>
  <course>10.68</course>
  <speed>0.03605551275463989</speed>
  <fix>3d</fix>
</trkpt>
<trkpt lat="-27.2744382" lon="151.2900635">
  <ele>364.18</ele>
  <time>2026-09-01T19:56:25Z</time>
  <course>77.66</course>
  <speed>0.02</speed>
  <fix>3d</fix>
</trkpt>
<trkpt lat="-27.2744384" lon="151.2900636">
  <ele>364.29</ele>
  <time>2026-09-01T19:56:25Z</time>
  <course>10.68</course>
  <speed>0.03605551275463989</speed>
  <fix>3d</fix>
</trkpt>
<trkpt lat="-27.2744382" lon="151.2900635">
  <ele>364.18</ele>
  <time>2026-09-01T19:56:25Z</time>
  <course>87.8</course>
  <speed>0.02</speed>
  <fix>3d</fix>
</trkpt>
<trkpt lat="-27.2744384" lon="151.2900636">
  <ele>364.29</ele>
  <time>2026-09-01T19:56:25Z</time>
  <course>10.68</course>
  <speed>0.03605551275463989</speed>
  <fix>3d</fix>
</trkpt>
<trkpt lat="-27.2744382" lon="151.2900635">
  <ele>364.18</ele>
  <time>2026-09-01T19:56:25Z</time>
  <course>87.8</course>
  <speed>0.02</speed>
  <fix>3d</fix>
</trkpt>
<trkpt lat="-27.2744384" lon="151.2900637">
  <ele>364.29</ele>
  <time>2026-09-01T19:56:25Z</time>
  <course>10.69</course>
  <speed>0.03605551275463989</speed>
  <fix>3d</fix>
</trkpt>
<trkpt lat="-27.2744382" lon="151.2900636">
  <ele>364.18</ele>
  <time>2026-09-01T19:56:25Z</time>
  <course>97.18</course>
  <speed>0.02</speed>
  <fix>3d</fix>
</trkpt>
<trkpt lat="-27.2744384" lon="151.2900637">
  <ele>364.29</ele>
  <time>2026-09-01T19:56:25Z</time>
  <course>10.69</course>
  <speed>0.04242640687119285</speed>
  <fix>3d</fix>
</trkpt>
<trkpt lat="-27.2744382" lon="151.2900636">
  <ele>364.18</ele>
  <time>2026-09-01T19:56:25Z</time>
  <course>97.18</course>
  <speed>0.02</speed>
  <fix>3d</fix>
</trkpt>
<trkpt lat="-27.2744384" lon="151.2900637">
  <ele>364.29</ele>
  <time>2026-09-01T19:56:25Z</time>
  <course>10.69</course>
  <speed>0.04242640687119285</speed>
  <fix>3d</fix>
</trkpt>
<trkpt lat="-27.2744382" lon="151.2900636">
  <ele>364.18</ele>
  <time>2026-09-01T19:56:25Z</time>
  <course>105.87</course>
  <speed>0.02</speed>
  <fix>3d</fix>
</trkpt>
<trkpt lat="-27.2744384" lon="151.2900637">
  <ele>364.29</ele>
  <time>2026-09-01T19:56:25Z</time>
  <course>10.69</course>
  <speed>0.04242640687119285</speed>
  <fix>3d</fix>
</trkpt>
<trkpt lat="-27.2744382" lon="151.2900636">
  <ele>364.18</ele>
  <time>2026-09-01T19:56:25Z</time>
  <course>105.87</course>
  <speed>0.02</speed>
  <fix>3d</fix>
</trkpt>
<trkpt lat="-27.2744384" lon="151.2900638">
  <ele>364.29</ele>
  <time>2026-09-01T19:56:25Z</time>
  <course>10.69</course>
  <speed>0.04242640687119285</speed>
  <fix>3d</fix>
</trkpt>
<trkpt lat="-27.2744382" lon="151.2900637">
  <ele>364.18</ele>
  <time>2026-09-01T19:56:25Z</time>
  <course>113.77</course>
  <speed>0.02</speed>
  <fix>3d</fix>
</trkpt>
<trkpt lat="-27.2744384" lon="151.2900638">
  <ele>364.29</ele>
  <time>2026-09-01T19:56:25Z</time>
  <course>10.69</course>
  <speed>0.04242640687119285</speed>
  <fix>3d</fix>
</trkpt>
<trkpt lat="-27.2744382" lon="151.2900637">
  <ele>364.18</ele>
  <time>2026-09-01T19:56:25Z</time>
  <course>113.77</course>
  <speed>0.02</speed>
  <fix>3d</fix>
</trkpt>
<trkpt lat="-27.2744384" lon="151.2900638">
  <ele>364.29</ele>
  <time>2026-09-01T19:56:25Z</time>
  <course>10.7</course>
  <speed>0.03605551275463989</speed>
  <fix>3d</fix>
</trkpt>
<trkpt lat="-27.2744382" lon="151.2900637">
  <ele>364.18</ele>
  <time>2026-09-01T19:56:25Z</time>
  <course>121.44</course>
  <speed>0.02</speed>
  <fix>3d</fix>
</trkpt>
<trkpt lat="-27.2744384" lon="151.2900638">
  <ele>364.29</ele>
  <time>2026-09-01T19:56:25Z</time>
  <course>10.7</course>
  <speed>0.03605551275463989</speed>
  <fix>3d</fix>
</trkpt>
<trkpt lat="-27.2744382" lon="151.2900637">
  <ele>364.18</ele>
  <time>2026-09-01T19:56:25Z</time>
  <course>121.44</course>
  <speed>0.02</speed>
  <fix>3d</fix>
</trkpt>
<trkpt lat="-27.2744384" lon="151.2900638">
  <ele>364.29</ele>
  <time>2026-09-01T19:56:25Z</time>
  <course>10.7</course>
  <speed>0.03605551275463989</speed>
  <fix>3d</fix>
</trkpt>
<trkpt lat="-27.2744382" lon="151.2900638">
  <ele>364.18</ele>
  <time>2026-09-01T19:56:25Z</time>
  <course>128.52</course>
  <speed>0.03</speed>
  <fix>3d</fix>
</trkpt>
<trkpt lat="-27.2744384" lon="151.2900639">
  <ele>364.29</ele>
  <time>2026-09-01T19:56:25Z</time>
  <course>10.69</course>
  <speed>0.044721359549995794</speed>
  <fix>3d</fix>
</trkpt>
<trkpt lat="-27.2744382" lon="151.2900638">
  <ele>364.18</ele>
  <time>2026-09-01T19:56:25Z</time>
  <course>128.52</course>
  <speed>0.03</speed>
  <fix>3d</fix>
</trkpt>
<trkpt lat="-27.2744385" lon="151.2900639">
  <ele>364.3</ele>
  <time>2026-09-01T19:56:25Z</time>
  <course>10.69</course>
  <speed>0.044721359549995794</speed>
  <fix>3d</fix>
</trkpt>
<trkpt lat="-27.2744382" lon="151.2900639">
  <ele>364.18</ele>
  <time>2026-09-01T19:56:25Z</time>
  <course>134.13</course>
  <speed>0.03</speed>
  <fix>3d</fix>
</trkpt>
<trkpt lat="-27.2744385" lon="151.2900639">
  <ele>364.3</ele>
  <time>2026-09-01T19:56:25Z</time>
  <course>10.69</course>
  <speed>0.03605551275463989</speed>
  <fix>3d</fix>
</trkpt>
<trkpt lat="-27.2744382" lon="151.2900639">
  <ele>364.18</ele>
  <time>2026-09-01T19:56:25Z</time>
  <course>134.13</course>
  <speed>0.03</speed>
  <fix>3d</fix>
</trkpt>
<trkpt lat="-27.2744385" lon="151.2900639">
  <ele>364.3</ele>
  <time>2026-09-01T19:56:25Z</time>
  <course>10.69</course>
  <speed>0.03605551275463989</speed>
  <fix>3d</fix>
</trkpt>
<trkpt lat="-27.2744383" lon="151.2900639">
  <ele>364.18</ele>
  <time>2026-09-01T19:56:25Z</time>
  <course>138.96</course>
  <speed>0.02</speed>
  <fix>3d</fix>
</trkpt>
<trkpt lat="-27.2744385" lon="151.2900639">
  <ele>364.3</ele>
  <time>2026-09-01T19:56:25Z</time>
  <course>10.69</course>
  <speed>0.03605551275463989</speed>
  <fix>3d</fix>
</trkpt>
<trkpt lat="-27.2744383" lon="151.2900639">
  <ele>364.18</ele>
  <time>2026-09-01T19:56:25Z</time>
  <course>138.96</course>
  <speed>0.02</speed>
  <fix>3d</fix>
</trkpt>
<trkpt lat="-27.2744385" lon="151.290064">
  <ele>364.29</ele>
  <time>2026-09-01T19:56:25Z</time>
  <course>10.7</course>
  <speed>0.03605551275463989</speed>
  <fix>3d</fix>
</trkpt>
<trkpt lat="-27.2744383" lon="151.2900639">
  <ele>364.18</ele>
  <time>2026-09-01T19:56:25Z</time>
  <course>143.74</course>
  <speed>0.02</speed>
  <fix>3d</fix>
</trkpt>
<trkpt lat="-27.2744385" lon="151.290064">
  <ele>364.29</ele>
  <time>2026-09-01T19:56:25Z</time>
  <course>10.7</course>
  <speed>0.03605551275463989</speed>
  <fix>3d</fix>
</trkpt>
<trkpt lat="-27.2744383" lon="151.2900639">
  <ele>364.18</ele>
  <time>2026-09-01T19:56:25Z</time>
  <course>143.74</course>
  <speed>0.02</speed>
  <fix>3d</fix>
</trkpt>
<trkpt lat="-27.2744385" lon="151.290064">
  <ele>364.29</ele>
  <time>2026-09-01T19:56:25Z</time>
  <course>10.7</course>
  <speed>0.03605551275463989</speed>
  <fix>3d</fix>
</trkpt>
<trkpt lat="-27.2744384" lon="151.290064">
  <ele>364.18</ele>
  <time>2026-09-01T19:56:25Z</time>
  <course>148.64</course>
  <speed>0.02</speed>
  <fix>3d</fix>
</trkpt>
<trkpt lat="-27.2744386" lon="151.290064">
  <ele>364.29</ele>
  <time>2026-09-01T19:56:25Z</time>
  <course>10.7</course>
  <speed>0.0412310562561766</speed>
  <fix>3d</fix>
</trkpt>
<trkpt lat="-27.2744384" lon="151.290064">
  <ele>364.18</ele>
  <time>2026-09-01T19:56:25Z</time>
  <course>148.64</course>
  <speed>0.02</speed>
  <fix>3d</fix>
</trkpt>
<trkpt lat="-27.2744386" lon="151.290064">
  <ele>364.29</ele>
  <time>2026-09-01T19:56:25Z</time>
  <course>10.7</course>
  <speed>0.0412310562561766</speed>
  <fix>3d</fix>
</trkpt>
<trkpt lat="-27.2744384" lon="151.290064">
  <ele>364.18</ele>
  <time>2026-09-01T19:56:25Z</time>
  <course>153.54</course>
  <speed>0.02</speed>
  <fix>3d</fix>
</trkpt>
<trkpt lat="-27.2744386" lon="151.290064">
  <ele>364.29</ele>
  <time>2026-09-01T19:56:25Z</time>
  <course>10.69</course>
  <speed>0.0412310562561766</speed>
  <fix>3d</fix>
</trkpt>
<trkpt lat="-27.2744384" lon="151.290064">
  <ele>364.18</ele>
  <time>2026-09-01T19:56:25Z</time>
  <course>153.54</course>
  <speed>0.02</speed>
  <fix>3d</fix>
</trkpt>
<trkpt lat="-27.2744386" lon="151.290064">
  <ele>364.29</ele>
  <time>2026-09-01T19:56:25Z</time>
  <course>10.69</course>
  <speed>0.0412310562561766</speed>
  <fix>3d</fix>
</trkpt>
<trkpt lat="-27.2744384" lon="151.290064">
  <ele>364.17</ele>
  <time>2026-09-01T19:56:25Z</time>
  <course>158.96</course>
  <speed>0.02</speed>
  <fix>3d</fix>
</trkpt>
<trkpt lat="-27.2744386" lon="151.290064">
  <ele>364.28</ele>
  <time>2026-09-01T19:56:25Z</time>
  <course>10.69</course>
  <speed>0.0316227766016838</speed>
  <fix>3d</fix>
</trkpt>
<trkpt lat="-27.2744384" lon="151.290064">
  <ele>364.17</ele>
  <time>2026-09-01T19:56:25Z</time>
  <course>158.96</course>
  <speed>0.02</speed>
  <fix>3d</fix>
</trkpt>
<trkpt lat="-27.2744386" lon="151.2900641">
  <ele>364.28</ele>
  <time>2026-09-01T19:56:25Z</time>
  <course>10.69</course>
  <speed>0.0316227766016838</speed>
  <fix>3d</fix>
</trkpt>
<trkpt lat="-27.2744385" lon="151.290064">
  <ele>364.17</ele>
  <time>2026-09-01T19:56:25Z</time>
  <course>165.1</course>
  <speed>0.02</speed>
  <fix>3d</fix>
</trkpt>
<trkpt lat="-27.2744387" lon="151.2900641">
  <ele>364.28</ele>
  <time>2026-09-01T19:56:25Z</time>
  <course>10.69</course>
  <speed>0.0316227766016838</speed>
  <fix>3d</fix>
</trkpt>
<trkpt lat="-27.2744385" lon="151.290064">
  <ele>364.17</ele>
  <time>2026-09-01T19:56:25Z</time>
  <course>165.1</course>
  <speed>0.02</speed>
  <fix>3d</fix>
</trkpt>
<trkpt lat="-27.2744387" lon="151.2900641">
  <ele>364.28</ele>
  <time>2026-09-01T19:56:25Z</time>
  <course>10.69</course>
  <speed>0.03</speed>
  <fix>3d</fix>
</trkpt>
<trkpt lat="-27.2744385" lon="151.2900641">
  <ele>364.17</ele>
  <time>2026-09-01T19:56:25Z</time>
  <course>171.91</course>
  <speed>0.02</speed>
  <fix>3d</fix>
</trkpt>
<trkpt lat="-27.2744387" lon="151.2900641">
  <ele>364.28</ele>
  <time>2026-09-01T19:56:25Z</time>
  <course>10.7</course>
  <speed>0.03</speed>
  <fix>3d</fix>
</trkpt>
<trkpt lat="-27.2744385" lon="151.2900641">
  <ele>364.17</ele>
  <time>2026-09-01T19:56:25Z</time>
  <course>171.91</course>
  <speed>0.02</speed>
  <fix>3d</fix>
</trkpt>
<trkpt lat="-27.2744387" lon="151.2900641">
  <ele>364.28</ele>
  <time>2026-09-01T19:56:25Z</time>
  <course>10.7</course>
  <speed>0.03</speed>
  <fix>3d</fix>
</trkpt>
<trkpt lat="-27.2744386" lon="151.2900641">
  <ele>364.17</ele>
  <time>2026-09-01T19:56:25Z</time>
  <course>179.32</course>
  <speed>0.02</speed>
  <fix>3d</fix>
</trkpt>
<trkpt lat="-27.2744387" lon="151.2900641">
  <ele>364.28</ele>
  <time>2026-09-01T19:56:25Z</time>
  <course>10.7</course>
  <speed>0.03</speed>
  <fix>3d</fix>
</trkpt>
<trkpt lat="-27.2744386" lon="151.2900641">
  <ele>364.17</ele>
  <time>2026-09-01T19:56:25Z</time>
  <course>179.32</course>
  <speed>0.02</speed>
  <fix>3d</fix>
</trkpt>
<trkpt lat="-27.2744387" lon="151.2900641">
  <ele>364.28</ele>
  <time>2026-09-01T19:56:25Z</time>
  <course>10.7</course>
  <speed>0.03</speed>
  <fix>3d</fix>
</trkpt>
<trkpt lat="-27.2744386" lon="151.2900641">
  <ele>364.17</ele>
  <time>2026-09-01T19:56:25Z</time>
  <course>186.97</course>
  <speed>0.02</speed>
  <fix>3d</fix>
</trkpt>
<trkpt lat="-27.2744388" lon="151.2900641">
  <ele>364.28</ele>
  <time>2026-09-01T19:56:25Z</time>
  <course>10.69</course>
  <speed>0.03</speed>
  <fix>3d</fix>
</trkpt>
<trkpt lat="-27.2744386" lon="151.2900641">
  <ele>364.17</ele>
  <time>2026-09-01T19:56:25Z</time>
  <course>186.97</course>
  <speed>0.02</speed>
  <fix>3d</fix>
</trkpt>
<trkpt lat="-27.2744388" lon="151.2900641">
  <ele>364.27</ele>
  <time>2026-09-01T19:56:25Z</time>
  <course>10.69</course>
  <speed>0.03</speed>
  <fix>3d</fix>
</trkpt>
<trkpt lat="-27.2744387" lon="151.290064">
  <ele>364.17</ele>
  <time>2026-09-01T19:56:25Z</time>
  <course>194.94</course>
  <speed>0.02</speed>
  <fix>3d</fix>
</trkpt>
<trkpt lat="-27.2744388" lon="151.2900641">
  <ele>364.28</ele>
  <time>2026-09-01T19:56:25Z</time>
  <course>10.69</course>
  <speed>0.03</speed>
  <fix>3d</fix>
</trkpt>
<trkpt lat="-27.2744387" lon="151.290064">
  <ele>364.17</ele>
  <time>2026-09-01T19:56:25Z</time>
  <course>194.94</course>
  <speed>0.02</speed>
  <fix>3d</fix>
</trkpt>
<trkpt lat="-27.2744388" lon="151.2900641">
  <ele>364.28</ele>
  <time>2026-09-01T19:56:25Z</time>
  <course>10.69</course>
  <speed>0.03</speed>
  <fix>3d</fix>
</trkpt>
<trkpt lat="-27.2744387" lon="151.290064">
  <ele>364.17</ele>
  <time>2026-09-01T19:56:25Z</time>
  <course>202.93</course>
  <speed>0.02</speed>
  <fix>3d</fix>
</trkpt>
<trkpt lat="-27.2744388" lon="151.2900641">
  <ele>364.28</ele>
  <time>2026-09-01T19:56:25Z</time>
  <course>10.69</course>
  <speed>0.03</speed>
  <fix>3d</fix>
</trkpt>
<trkpt lat="-27.2744387" lon="151.290064">
  <ele>364.17</ele>
  <time>2026-09-01T19:56:25Z</time>
  <course>202.93</course>
  <speed>0.02</speed>
  <fix>3d</fix>
</trkpt>
<trkpt lat="-27.2744389" lon="151.2900641">
  <ele>364.28</ele>
  <time>2026-09-01T19:56:25Z</time>
  <course>10.69</course>
  <speed>0.03</speed>
  <fix>3d</fix>
</trkpt>
<trkpt lat="-27.2744387" lon="151.290064">
  <ele>364.18</ele>
  <time>2026-09-01T19:56:25Z</time>
  <course>210.3</course>
  <speed>0.02</speed>
  <fix>3d</fix>
</trkpt>
<trkpt lat="-27.2744389" lon="151.2900641">
  <ele>364.28</ele>
  <time>2026-09-01T19:56:25Z</time>
  <course>10.69</course>
  <speed>0.03</speed>
  <fix>3d</fix>
</trkpt>
<trkpt lat="-27.2744387" lon="151.290064">
  <ele>364.18</ele>
  <time>2026-09-01T19:56:25Z</time>
  <course>210.3</course>
  <speed>0.02</speed>
  <fix>3d</fix>
</trkpt>
<trkpt lat="-27.2744389" lon="151.2900641">
  <ele>364.28</ele>
  <time>2026-09-01T19:56:25Z</time>
  <course>10.69</course>
  <speed>0.03</speed>
  <fix>3d</fix>
</trkpt>
<trkpt lat="-27.2744388" lon="151.290064">
  <ele>364.18</ele>
  <time>2026-09-01T19:56:25Z</time>
  <course>217.73</course>
  <speed>0.02</speed>
  <fix>3d</fix>
</trkpt>
<trkpt lat="-27.2744389" lon="151.2900641">
  <ele>364.28</ele>
  <time>2026-09-01T19:56:25Z</time>
  <course>10.69</course>
  <speed>0.02</speed>
  <fix>3d</fix>
</trkpt>
<trkpt lat="-27.2744388" lon="151.290064">
  <ele>364.18</ele>
  <time>2026-09-01T19:56:25Z</time>
  <course>217.73</course>
  <speed>0.02</speed>
  <fix>3d</fix>
</trkpt>
<trkpt lat="-27.2744389" lon="151.2900641">
  <ele>364.28</ele>
  <time>2026-09-01T19:56:25Z</time>
  <course>10.69</course>
  <speed>0.02</speed>
  <fix>3d</fix>
</trkpt>
<trkpt lat="-27.2744388" lon="151.290064">
  <ele>364.18</ele>
  <time>2026-09-01T19:56:25Z</time>
  <course>225.68</course>
  <speed>0.02</speed>
  <fix>3d</fix>
</trkpt>
<trkpt lat="-27.2744389" lon="151.2900641">
  <ele>364.28</ele>
  <time>2026-09-01T19:56:25Z</time>
  <course>10.69</course>
  <speed>0.02</speed>
  <fix>3d</fix>
</trkpt>
<trkpt lat="-27.2744388" lon="151.290064">
  <ele>364.18</ele>
  <time>2026-09-01T19:56:25Z</time>
  <course>225.68</course>
  <speed>0.02</speed>
  <fix>3d</fix>
</trkpt>
<trkpt lat="-27.2744389" lon="151.290064">
  <ele>364.28</ele>
  <time>2026-09-01T19:56:25Z</time>
  <course>10.69</course>
  <speed>0.02</speed>
  <fix>3d</fix>
</trkpt>
<trkpt lat="-27.2744389" lon="151.290064">
  <ele>364.19</ele>
  <time>2026-09-01T19:56:25Z</time>
  <course>233.77</course>
  <speed>0.02</speed>
  <fix>3d</fix>
</trkpt>
<trkpt lat="-27.2744389" lon="151.290064">
  <ele>364.27</ele>
  <time>2026-09-01T19:56:25Z</time>
  <course>10.69</course>
  <speed>0.02</speed>
  <fix>3d</fix>
</trkpt>
<trkpt lat="-27.2744389" lon="151.290064">
  <ele>364.19</ele>
  <time>2026-09-01T19:56:25Z</time>
  <course>233.77</course>
  <speed>0.02</speed>
  <fix>3d</fix>
</trkpt>
<trkpt lat="-27.274439" lon="151.290064">
  <ele>364.27</ele>
  <time>2026-09-01T19:56:25Z</time>
  <course>10.69</course>
  <speed>0.02</speed>
  <fix>3d</fix>
</trkpt>
<trkpt lat="-27.2744389" lon="151.290064">
  <ele>364.19</ele>
  <time>2026-09-01T19:56:25Z</time>
  <course>241.9</course>
  <speed>0.02</speed>
  <fix>3d</fix>
</trkpt>
<trkpt lat="-27.274439" lon="151.290064">
  <ele>364.27</ele>
  <time>2026-09-01T19:56:25Z</time>
  <course>10.69</course>
  <speed>0.02</speed>
  <fix>3d</fix>
</trkpt>
<trkpt lat="-27.2744389" lon="151.290064">
  <ele>364.19</ele>
  <time>2026-09-01T19:56:25Z</time>
  <course>241.9</course>
  <speed>0.02</speed>
  <fix>3d</fix>
</trkpt>
<trkpt lat="-27.274439" lon="151.290064">
  <ele>364.27</ele>
  <time>2026-09-01T19:56:25Z</time>
  <course>10.7</course>
  <speed>0.01</speed>
  <fix>3d</fix>
</trkpt>
<trkpt lat="-27.2744389" lon="151.2900639">
  <ele>364.19</ele>
  <time>2026-09-01T19:56:25Z</time>
  <course>250.66</course>
  <speed>0.02</speed>
  <fix>3d</fix>
</trkpt>
<trkpt lat="-27.274439" lon="151.290064">
  <ele>364.27</ele>
  <time>2026-09-01T19:56:25Z</time>
  <course>10.7</course>
  <speed>0.01</speed>
  <fix>3d</fix>
</trkpt>
<trkpt lat="-27.2744389" lon="151.2900639">
  <ele>364.19</ele>
  <time>2026-09-01T19:56:25Z</time>
  <course>250.66</course>
  <speed>0.02</speed>
  <fix>3d</fix>
</trkpt>
<trkpt lat="-27.274439" lon="151.290064">
  <ele>364.27</ele>
  <time>2026-09-01T19:56:25Z</time>
  <course>10.7</course>
  <speed>0.01</speed>
  <fix>3d</fix>
</trkpt>
<trkpt lat="-27.2744389" lon="151.2900639">
  <ele>364.19</ele>
  <time>2026-09-01T19:56:25Z</time>
  <course>261.78</course>
  <speed>0.02</speed>
  <fix>3d</fix>
</trkpt>
<trkpt lat="-27.274439" lon="151.2900639">
  <ele>364.27</ele>
  <time>2026-09-01T19:56:25Z</time>
  <course>10.7</course>
  <speed>0.01</speed>
  <fix>3d</fix>
</trkpt>
<trkpt lat="-27.2744389" lon="151.2900639">
  <ele>364.19</ele>
  <time>2026-09-01T19:56:25Z</time>
  <course>261.78</course>
  <speed>0.02</speed>
  <fix>3d</fix>
</trkpt>
<trkpt lat="-27.274439" lon="151.2900639">
  <ele>364.28</ele>
  <time>2026-09-01T19:56:25Z</time>
  <course>10.71</course>
  <speed>0.01</speed>
  <fix>3d</fix>
</trkpt>
<trkpt lat="-27.2744389" lon="151.2900638">
  <ele>364.19</ele>
  <time>2026-09-01T19:56:25Z</time>
  <course>273.98</course>
  <speed>0.02</speed>
  <fix>3d</fix>
</trkpt>
<trkpt lat="-27.274439" lon="151.2900639">
  <ele>364.28</ele>
  <time>2026-09-01T19:56:25Z</time>
  <course>10.71</course>
  <speed>0.0</speed>
  <fix>3d</fix>
</trkpt>
<trkpt lat="-27.2744389" lon="151.2900638">
  <ele>364.19</ele>
  <time>2026-09-01T19:56:25Z</time>
  <course>273.98</course>
  <speed>0.02</speed>
  <fix>3d</fix>
</trkpt>
<trkpt lat="-27.274439" lon="151.2900639">
  <ele>364.28</ele>
  <time>2026-09-01T19:56:25Z</time>
  <course>10.71</course>
  <speed>0.0</speed>
  <fix>3d</fix>
</trkpt>
<trkpt lat="-27.2744389" lon="151.2900637">
  <ele>364.2</ele>
  <time>2026-09-01T19:56:25Z</time>
  <course>283.3</course>
  <speed>0.02</speed>
  <fix>3d</fix>
</trkpt>
<trkpt lat="-27.274439" lon="151.2900639">
  <ele>364.29</ele>
  <time>2026-09-01T19:56:25Z</time>
  <course>10.7</course>
  <speed>0.0</speed>
  <fix>3d</fix>
</trkpt>
<trkpt lat="-27.2744389" lon="151.2900637">
  <ele>364.2</ele>
  <time>2026-09-01T19:56:25Z</time>
  <course>283.3</course>
  <speed>0.02</speed>
  <fix>3d</fix>
</trkpt>
<trkpt lat="-27.274439" lon="151.2900639">
  <ele>364.29</ele>
  <time>2026-09-01T19:56:25Z</time>
  <course>10.69</course>
  <speed>0.0</speed>
  <fix>3d</fix>
</trkpt>
<trkpt lat="-27.2744389" lon="151.2900637">
  <ele>364.2</ele>
  <time>2026-09-01T19:56:25Z</time>
  <course>290.11</course>
  <speed>0.02</speed>
  <fix>3d</fix>
</trkpt>
<trkpt lat="-27.274439" lon="151.2900638">
  <ele>364.3</ele>
  <time>2026-09-01T19:56:25Z</time>
  <course>10.69</course>
  <speed>0.0</speed>
  <fix>3d</fix>
</trkpt>
<trkpt lat="-27.2744389" lon="151.2900637">
  <ele>364.2</ele>
  <time>2026-09-01T19:56:25Z</time>
  <course>290.11</course>
  <speed>0.02</speed>
  <fix>3d</fix>
</trkpt>
<trkpt lat="-27.274439" lon="151.2900638">
  <ele>364.3</ele>
  <time>2026-09-01T19:56:25Z</time>
  <course>10.68</course>
  <speed>0.0</speed>
  <fix>3d</fix>
</trkpt>
<trkpt lat="-27.2744389" lon="151.2900637">
  <ele>364.2</ele>
  <time>2026-09-01T19:56:25Z</time>
  <course>296.84</course>
  <speed>0.02</speed>
  <fix>3d</fix>
</trkpt>
<trkpt lat="-27.274439" lon="151.2900638">
  <ele>364.3</ele>
  <time>2026-09-01T19:56:25Z</time>
  <course>10.69</course>
  <speed>0.0</speed>
  <fix>3d</fix>
</trkpt>
<trkpt lat="-27.2744389" lon="151.2900637">
  <ele>364.2</ele>
  <time>2026-09-01T19:56:25Z</time>
  <course>296.84</course>
  <speed>0.02</speed>
  <fix>3d</fix>
</trkpt>
<trkpt lat="-27.274439" lon="151.2900638">
  <ele>364.31</ele>
  <time>2026-09-01T19:56:25Z</time>
  <course>10.69</course>
  <speed>0.0</speed>
  <fix>3d</fix>
</trkpt>
<trkpt lat="-27.2744389" lon="151.2900636">
  <ele>364.21</ele>
  <time>2026-09-01T19:56:25Z</time>
  <course>303.81</course>
  <speed>0.02</speed>
  <fix>3d</fix>
</trkpt>
<trkpt lat="-27.274439" lon="151.2900638">
  <ele>364.31</ele>
  <time>2026-09-01T19:56:25Z</time>
  <course>10.69</course>
  <speed>0.0</speed>
  <fix>3d</fix>
</trkpt>
<trkpt lat="-27.2744389" lon="151.2900636">
  <ele>364.21</ele>
  <time>2026-09-01T19:56:25Z</time>
  <course>303.81</course>
  <speed>0.02</speed>
  <fix>3d</fix>
</trkpt>
<trkpt lat="-27.274439" lon="151.2900637">
  <ele>364.31</ele>
  <time>2026-09-01T19:56:25Z</time>
  <course>10.69</course>
  <speed>0.0</speed>
  <fix>3d</fix>
</trkpt>
<trkpt lat="-27.2744389" lon="151.2900636">
  <ele>364.21</ele>
  <time>2026-09-01T19:56:25Z</time>
  <course>310.27</course>
  <speed>0.02</speed>
  <fix>3d</fix>
</trkpt>
<trkpt lat="-27.274439" lon="151.2900637">
  <ele>364.31</ele>
  <time>2026-09-01T19:56:25Z</time>
  <course>10.69</course>
  <speed>0.0</speed>
  <fix>3d</fix>
</trkpt>
<trkpt lat="-27.2744389" lon="151.2900636">
  <ele>364.21</ele>
  <time>2026-09-01T19:56:25Z</time>
  <course>310.27</course>
  <speed>0.02</speed>
  <fix>3d</fix>
</trkpt>
<trkpt lat="-27.274439" lon="151.2900637">
  <ele>364.3</ele>
  <time>2026-09-01T19:56:25Z</time>
  <course>10.69</course>
  <speed>0.0</speed>
  <fix>3d</fix>
</trkpt>
<trkpt lat="-27.2744389" lon="151.2900636">
  <ele>364.2</ele>
  <time>2026-09-01T19:56:25Z</time>
  <course>316.49</course>
  <speed>0.02</speed>
  <fix>3d</fix>
</trkpt>
<trkpt lat="-27.274439" lon="151.2900637">
  <ele>364.3</ele>
  <time>2026-09-01T19:56:25Z</time>
  <course>10.69</course>
  <speed>0.0</speed>
  <fix>3d</fix>
</trkpt>
<trkpt lat="-27.2744389" lon="151.2900636">
  <ele>364.2</ele>
  <time>2026-09-01T19:56:25Z</time>
  <course>316.49</course>
  <speed>0.02</speed>
  <fix>3d</fix>
</trkpt>
<trkpt lat="-27.274439" lon="151.2900637">
  <ele>364.3</ele>
  <time>2026-09-01T19:56:25Z</time>
  <course>10.69</course>
  <speed>0.0</speed>
  <fix>3d</fix>
</trkpt>
<trkpt lat="-27.2744389" lon="151.2900635">
  <ele>364.2</ele>
  <time>2026-09-01T19:56:25Z</time>
  <course>322.46</course>
  <speed>0.02</speed>
  <fix>3d</fix>
</trkpt>
<trkpt lat="-27.2744389" lon="151.2900637">
  <ele>364.3</ele>
  <time>2026-09-01T19:56:25Z</time>
  <course>10.69</course>
  <speed>0.0</speed>
  <fix>3d</fix>
</trkpt>
<trkpt lat="-27.2744389" lon="151.2900635">
  <ele>364.2</ele>
  <time>2026-09-01T19:56:25Z</time>
  <course>322.46</course>
  <speed>0.02</speed>
  <fix>3d</fix>
</trkpt>
<trkpt lat="-27.2744389" lon="151.2900637">
  <ele>364.3</ele>
  <time>2026-09-01T19:56:25Z</time>
  <course>10.69</course>
  <speed>0.0</speed>
  <fix>3d</fix>
</trkpt>
<trkpt lat="-27.2744388" lon="151.2900635">
  <ele>364.19</ele>
  <time>2026-09-01T19:56:25Z</time>
  <course>327.71</course>
  <speed>0.02</speed>
  <fix>3d</fix>
</trkpt>
<trkpt lat="-27.2744389" lon="151.2900637">
  <ele>364.29</ele>
  <time>2026-09-01T19:56:25Z</time>
  <course>10.69</course>
  <speed>0.0</speed>
  <fix>3d</fix>
</trkpt>
<trkpt lat="-27.2744388" lon="151.2900635">
  <ele>364.19</ele>
  <time>2026-09-01T19:56:25Z</time>
  <course>327.71</course>
  <speed>0.02</speed>
  <fix>3d</fix>
</trkpt>
<trkpt lat="-27.2744389" lon="151.2900636">
  <ele>364.29</ele>
  <time>2026-09-01T19:56:25Z</time>
  <course>10.68</course>
  <speed>0.0</speed>
  <fix>3d</fix>
</trkpt>
<trkpt lat="-27.2744388" lon="151.2900635">
  <ele>364.19</ele>
  <time>2026-09-01T19:56:25Z</time>
  <course>332.03</course>
  <speed>0.02</speed>
  <fix>3d</fix>
</trkpt>
<trkpt lat="-27.2744389" lon="151.2900636">
  <ele>364.29</ele>
  <time>2026-09-01T19:56:25Z</time>
  <course>10.68</course>
  <speed>0.0</speed>
  <fix>3d</fix>
</trkpt>
<trkpt lat="-27.2744388" lon="151.2900635">
  <ele>364.19</ele>
  <time>2026-09-01T19:56:25Z</time>
  <course>332.03</course>
  <speed>0.02</speed>
  <fix>3d</fix>
</trkpt>
<trkpt lat="-27.2744389" lon="151.2900636">
  <ele>364.28</ele>
  <time>2026-09-01T19:56:25Z</time>
  <course>10.68</course>
  <speed>0.0</speed>
  <fix>3d</fix>
</trkpt>
<trkpt lat="-27.2744387" lon="151.2900635">
  <ele>364.18</ele>
  <time>2026-09-01T19:56:25Z</time>
  <course>336.11</course>
  <speed>0.02</speed>
  <fix>3d</fix>
</trkpt>
<trkpt lat="-27.2744389" lon="151.2900636">
  <ele>364.28</ele>
  <time>2026-09-01T19:56:25Z</time>
  <course>10.68</course>
  <speed>0.0</speed>
  <fix>3d</fix>
</trkpt>
<trkpt lat="-27.2744387" lon="151.2900635">
  <ele>364.18</ele>
  <time>2026-09-01T19:56:25Z</time>
  <course>336.11</course>
  <speed>0.02</speed>
  <fix>3d</fix>
</trkpt>
<trkpt lat="-27.2744389" lon="151.2900636">
  <ele>364.28</ele>
  <time>2026-09-01T19:56:25Z</time>
  <course>10.68</course>
  <speed>0.01</speed>
  <fix>3d</fix>
</trkpt>
<trkpt lat="-27.2744387" lon="151.2900635">
  <ele>364.18</ele>
  <time>2026-09-01T19:56:25Z</time>
  <course>340.45</course>
  <speed>0.02</speed>
  <fix>3d</fix>
</trkpt>
<trkpt lat="-27.2744388" lon="151.2900636">
  <ele>364.28</ele>
  <time>2026-09-01T19:56:25Z</time>
  <course>10.68</course>
  <speed>0.01</speed>
  <fix>3d</fix>
</trkpt>
<trkpt lat="-27.2744387" lon="151.2900635">
  <ele>364.18</ele>
  <time>2026-09-01T19:56:25Z</time>
  <course>340.45</course>
  <speed>0.02</speed>
  <fix>3d</fix>
</trkpt>
<trkpt lat="-27.2744388" lon="151.2900636">
  <ele>364.28</ele>
  <time>2026-09-01T19:56:25Z</time>
  <course>10.68</course>
  <speed>0.01</speed>
  <fix>3d</fix>
</trkpt>
<trkpt lat="-27.2744386" lon="151.2900634">
  <ele>364.18</ele>
  <time>2026-09-01T19:56:25Z</time>
  <course>344.75</course>
  <speed>0.02</speed>
  <fix>3d</fix>
</trkpt>
<trkpt lat="-27.2744388" lon="151.2900636">
  <ele>364.28</ele>
  <time>2026-09-01T19:56:25Z</time>
  <course>10.68</course>
  <speed>0.01</speed>
  <fix>3d</fix>
</trkpt>
<trkpt lat="-27.2744386" lon="151.2900634">
  <ele>364.18</ele>
  <time>2026-09-01T19:56:25Z</time>
  <course>344.75</course>
  <speed>0.02</speed>
  <fix>3d</fix>
</trkpt>
<trkpt lat="-27.2744388" lon="151.2900636">
  <ele>364.28</ele>
  <time>2026-09-01T19:56:25Z</time>
  <course>10.68</course>
  <speed>0.01</speed>
  <fix>3d</fix>
</trkpt>
<trkpt lat="-27.2744386" lon="151.2900633">
  <ele>364.18</ele>
  <time>2026-09-01T19:56:25Z</time>
  <course>349.3</course>
  <speed>0.02</speed>
  <fix>3d</fix>
</trkpt>
<trkpt lat="-27.2744388" lon="151.2900636">
  <ele>364.28</ele>
  <time>2026-09-01T19:56:25Z</time>
  <course>10.68</course>
  <speed>0.01</speed>
  <fix>3d</fix>
</trkpt>
<trkpt lat="-27.2744386" lon="151.2900633">
  <ele>364.18</ele>
  <time>2026-09-01T19:56:25Z</time>
  <course>349.3</course>
  <speed>0.02</speed>
  <fix>3d</fix>
</trkpt>
<trkpt lat="-27.2744387" lon="151.2900636">
  <ele>364.28</ele>
  <time>2026-09-01T19:56:25Z</time>
  <course>10.68</course>
  <speed>0.01</speed>
  <fix>3d</fix>
</trkpt>
<trkpt lat="-27.2744386" lon="151.2900633">
  <ele>364.18</ele>
  <time>2026-09-01T19:56:25Z</time>
  <course>354.27</course>
  <speed>0.02</speed>
  <fix>3d</fix>
</trkpt>
<trkpt lat="-27.2744387" lon="151.2900636">
  <ele>364.28</ele>
  <time>2026-09-01T19:56:25Z</time>
  <course>10.69</course>
  <speed>0.01</speed>
  <fix>3d</fix>
</trkpt>
<trkpt lat="-27.2744386" lon="151.2900633">
  <ele>364.18</ele>
  <time>2026-09-01T19:56:25Z</time>
  <course>354.27</course>
  <speed>0.02</speed>
  <fix>3d</fix>
</trkpt>
<trkpt lat="-27.2744387" lon="151.2900636">
  <ele>364.28</ele>
  <time>2026-09-01T19:56:25Z</time>
  <course>10.69</course>
  <speed>0.01</speed>
  <fix>3d</fix>
</trkpt>
<trkpt lat="-27.2744385" lon="151.2900633">
  <ele>364.18</ele>
  <time>2026-09-01T19:56:25Z</time>
  <course>359.29</course>
  <speed>0.02</speed>
  <fix>3d</fix>
</trkpt>
<trkpt lat="-27.2744387" lon="151.2900636">
  <ele>364.28</ele>
  <time>2026-09-01T19:56:25Z</time>
  <course>10.69</course>
  <speed>0.01</speed>
  <fix>3d</fix>
</trkpt>
<trkpt lat="-27.2744385" lon="151.2900633">
  <ele>364.18</ele>
  <time>2026-09-01T19:56:25Z</time>
  <course>359.29</course>
  <speed>0.02</speed>
  <fix>3d</fix>
</trkpt>
<trkpt lat="-27.2744387" lon="151.2900636">
  <ele>364.28</ele>
  <time>2026-09-01T19:56:25Z</time>
  <course>10.69</course>
  <speed>0.01</speed>
  <fix>3d</fix>
</trkpt>
<trkpt lat="-27.2744385" lon="151.2900633">
  <ele>364.18</ele>
  <time>2026-09-01T19:56:25Z</time>
  <course>4.63</course>
  <speed>0.02</speed>
  <fix>3d</fix>
</trkpt>
<trkpt lat="-27.2744387" lon="151.2900636">
  <ele>364.29</ele>
  <time>2026-09-01T19:56:25Z</time>
  <course>10.69</course>
  <speed>0.01</speed>
  <fix>3d</fix>
</trkpt>
<trkpt lat="-27.2744385" lon="151.2900633">
  <ele>364.18</ele>
  <time>2026-09-01T19:56:25Z</time>
  <course>4.63</course>
  <speed>0.02</speed>
  <fix>3d</fix>
</trkpt>
<trkpt lat="-27.2744387" lon="151.2900636">
  <ele>364.29</ele>
  <time>2026-09-01T19:56:25Z</time>
  <course>10.69</course>
  <speed>0.01</speed>
  <fix>3d</fix>
</trkpt>
<trkpt lat="-27.2744385" lon="151.2900633">
  <ele>364.18</ele>
  <time>2026-09-01T19:56:25Z</time>
  <course>11.07</course>
  <speed>0.02</speed>
  <fix>3d</fix>
</trkpt>
<trkpt lat="-27.2744386" lon="151.2900636">
  <ele>364.29</ele>
  <time>2026-09-01T19:56:25Z</time>
  <course>10.69</course>
  <speed>0.02</speed>
  <fix>3d</fix>
</trkpt>
<trkpt lat="-27.2744385" lon="151.2900633">
  <ele>364.18</ele>
  <time>2026-09-01T19:56:25Z</time>
  <course>11.07</course>
  <speed>0.02</speed>
  <fix>3d</fix>
</trkpt>
<trkpt lat="-27.2744386" lon="151.2900636">
  <ele>364.29</ele>
  <time>2026-09-01T19:56:25Z</time>
  <course>10.68</course>
  <speed>0.02</speed>
  <fix>3d</fix>
</trkpt>
<trkpt lat="-27.2744384" lon="151.2900633">
  <ele>364.18</ele>
  <time>2026-09-01T19:56:25Z</time>
  <course>17.8</course>
  <speed>0.02</speed>
  <fix>3d</fix>
</trkpt>
<trkpt lat="-27.2744386" lon="151.2900636">
  <ele>364.29</ele>
  <time>2026-09-01T19:56:25Z</time>
  <course>10.68</course>
  <speed>0.02</speed>
  <fix>3d</fix>
</trkpt>
<trkpt lat="-27.2744384" lon="151.2900633">
  <ele>364.18</ele>
  <time>2026-09-01T19:56:25Z</time>
  <course>17.8</course>
  <speed>0.02</speed>
  <fix>3d</fix>
</trkpt>
<trkpt lat="-27.2744386" lon="151.2900635">
  <ele>364.29</ele>
  <time>2026-09-01T19:56:25Z</time>
  <course>10.68</course>
  <speed>0.02</speed>
  <fix>3d</fix>
</trkpt>
<trkpt lat="-27.2744384" lon="151.2900633">
  <ele>364.19</ele>
  <time>2026-09-01T19:56:25Z</time>
  <course>24.78</course>
  <speed>0.02</speed>
  <fix>3d</fix>
</trkpt>
<trkpt lat="-27.2744386" lon="151.2900635">
  <ele>364.28</ele>
  <time>2026-09-01T19:56:25Z</time>
  <course>10.68</course>
  <speed>0.02</speed>
  <fix>3d</fix>
</trkpt>
<trkpt lat="-27.2744384" lon="151.2900633">
  <ele>364.19</ele>
  <time>2026-09-01T19:56:25Z</time>
  <course>24.78</course>
  <speed>0.02</speed>
  <fix>3d</fix>
</trkpt>
<trkpt lat="-27.2744386" lon="151.2900635">
  <ele>364.28</ele>
  <time>2026-09-01T19:56:25Z</time>
  <course>10.68</course>
  <speed>0.02</speed>
  <fix>3d</fix>
</trkpt>
<trkpt lat="-27.2744384" lon="151.2900633">
  <ele>364.19</ele>
  <time>2026-09-01T19:56:25Z</time>
  <course>32.4</course>
  <speed>0.02</speed>
  <fix>3d</fix>
</trkpt>
<trkpt lat="-27.2744386" lon="151.2900635">
  <ele>364.28</ele>
  <time>2026-09-01T19:56:25Z</time>
  <course>10.68</course>
  <speed>0.022360679774997897</speed>
  <fix>3d</fix>
</trkpt>
<trkpt lat="-27.2744384" lon="151.2900633">
  <ele>364.19</ele>
  <time>2026-09-01T19:56:25Z</time>
  <course>32.4</course>
  <speed>0.02</speed>
  <fix>3d</fix>
</trkpt>
<trkpt lat="-27.2744386" lon="151.2900635">
  <ele>364.28</ele>
  <time>2026-09-01T19:56:25Z</time>
  <course>10.69</course>
  <speed>0.022360679774997897</speed>
  <fix>3d</fix>
</trkpt>
<trkpt lat="-27.2744383" lon="151.2900633">
  <ele>364.18</ele>
  <time>2026-09-01T19:56:25Z</time>
  <course>40.24</course>
  <speed>0.02</speed>
  <fix>3d</fix>
</trkpt>
<trkpt lat="-27.2744385" lon="151.2900635">
  <ele>364.27</ele>
  <time>2026-09-01T19:56:25Z</time>
  <course>10.69</course>
  <speed>0.022360679774997897</speed>
  <fix>3d</fix>
</trkpt>
<trkpt lat="-27.2744383" lon="151.2900633">
  <ele>364.18</ele>
  <time>2026-09-01T19:56:25Z</time>
  <course>40.24</course>
  <speed>0.02</speed>
  <fix>3d</fix>
</trkpt>
<trkpt lat="-27.2744385" lon="151.2900635">
  <ele>364.27</ele>
  <time>2026-09-01T19:56:25Z</time>
  <course>10.69</course>
  <speed>0.022360679774997897</speed>
  <fix>3d</fix>
</trkpt>
<trkpt lat="-27.2744383" lon="151.2900634">
  <ele>364.18</ele>
  <time>2026-09-01T19:56:25Z</time>
  <course>48.54</course>
  <speed>0.02</speed>
  <fix>3d</fix>
</trkpt>
<trkpt lat="-27.2744385" lon="151.2900635">
  <ele>364.27</ele>
  <time>2026-09-01T19:56:25Z</time>
  <course>10.7</course>
  <speed>0.022360679774997897</speed>
  <fix>3d</fix>
</trkpt>
<trkpt lat="-27.2744383" lon="151.2900634">
  <ele>364.18</ele>
  <time>2026-09-01T19:56:25Z</time>
  <course>48.54</course>
  <speed>0.02</speed>
  <fix>3d</fix>
</trkpt>
<trkpt lat="-27.2744385" lon="151.2900635">
  <ele>364.27</ele>
  <time>2026-09-01T19:56:25Z</time>
  <course>10.7</course>
  <speed>0.022360679774997897</speed>
  <fix>3d</fix>
</trkpt>
<trkpt lat="-27.2744383" lon="151.2900635">
  <ele>364.18</ele>
  <time>2026-09-01T19:56:25Z</time>
  <course>58.06</course>
  <speed>0.01</speed>
  <fix>3d</fix>
</trkpt>
<trkpt lat="-27.2744385" lon="151.2900635">
  <ele>364.27</ele>
  <time>2026-09-01T19:56:25Z</time>
  <course>10.71</course>
  <speed>0.022360679774997897</speed>
  <fix>3d</fix>
</trkpt>
<trkpt lat="-27.2744383" lon="151.2900635">
  <ele>364.18</ele>
  <time>2026-09-01T19:56:25Z</time>
  <course>58.06</course>
  <speed>0.01</speed>
  <fix>3d</fix>
</trkpt>
<trkpt lat="-27.2744385" lon="151.2900636">
  <ele>364.27</ele>
  <time>2026-09-01T19:56:25Z</time>
  <course>10.71</course>
  <speed>0.022360679774997897</speed>
  <fix>3d</fix>
</trkpt>
<trkpt lat="-27.2744383" lon="151.2900635">
  <ele>364.18</ele>
  <time>2026-09-01T19:56:25Z</time>
  <course>67.6</course>
  <speed>0.02</speed>
  <fix>3d</fix>
</trkpt>
<trkpt lat="-27.2744385" lon="151.2900636">
  <ele>364.28</ele>
  <time>2026-09-01T19:56:25Z</time>
  <course>10.7</course>
  <speed>0.0282842712474619</speed>
  <fix>3d</fix>
</trkpt>
<trkpt lat="-27.2744383" lon="151.2900635">
  <ele>364.18</ele>
  <time>2026-09-01T19:56:25Z</time>
  <course>67.6</course>
  <speed>0.02</speed>
  <fix>3d</fix>
</trkpt>
<trkpt lat="-27.2744385" lon="151.2900636">
  <ele>364.28</ele>
  <time>2026-09-01T19:56:25Z</time>
  <course>10.7</course>
  <speed>0.0282842712474619</speed>
  <fix>3d</fix>
</trkpt>
<trkpt lat="-27.2744383" lon="151.2900635">
  <ele>364.19</ele>
  <time>2026-09-01T19:56:25Z</time>
  <course>76.15</course>
  <speed>0.02</speed>
  <fix>3d</fix>
</trkpt>
<trkpt lat="-27.2744385" lon="151.2900636">
  <ele>364.28</ele>
  <time>2026-09-01T19:56:25Z</time>
  <course>10.69</course>
  <speed>0.03605551275463989</speed>
  <fix>3d</fix>
</trkpt>
<trkpt lat="-27.2744383" lon="151.2900635">
  <ele>364.19</ele>
  <time>2026-09-01T19:56:25Z</time>
  <course>76.15</course>
  <speed>0.02</speed>
  <fix>3d</fix>
</trkpt>
<trkpt lat="-27.2744385" lon="151.2900636">
  <ele>364.28</ele>
  <time>2026-09-01T19:56:25Z</time>
  <course>10.68</course>
  <speed>0.03605551275463989</speed>
  <fix>3d</fix>
</trkpt>
<trkpt lat="-27.2744383" lon="151.2900636">
  <ele>364.19</ele>
  <time>2026-09-01T19:56:25Z</time>
  <course>84.32</course>
  <speed>0.02</speed>
  <fix>3d</fix>
</trkpt>
<trkpt lat="-27.2744385" lon="151.2900637">
  <ele>364.29</ele>
  <time>2026-09-01T19:56:25Z</time>
  <course>10.68</course>
  <speed>0.03605551275463989</speed>
  <fix>3d</fix>
</trkpt>
<trkpt lat="-27.2744383" lon="151.2900636">
  <ele>364.19</ele>
  <time>2026-09-01T19:56:25Z</time>
  <course>84.32</course>
  <speed>0.02</speed>
  <fix>3d</fix>
</trkpt>
<trkpt lat="-27.2744385" lon="151.2900637">
  <ele>364.29</ele>
  <time>2026-09-01T19:56:25Z</time>
  <course>10.69</course>
  <speed>0.03605551275463989</speed>
  <fix>3d</fix>
</trkpt>
<trkpt lat="-27.2744383" lon="151.2900636">
  <ele>364.19</ele>
  <time>2026-09-01T19:56:25Z</time>
  <course>92.29</course>
  <speed>0.02</speed>
  <fix>3d</fix>
</trkpt>
<trkpt lat="-27.2744385" lon="151.2900637">
  <ele>364.29</ele>
  <time>2026-09-01T19:56:25Z</time>
  <course>10.69</course>
  <speed>0.03605551275463989</speed>
  <fix>3d</fix>
</trkpt>
<trkpt lat="-27.2744383" lon="151.2900636">
  <ele>364.19</ele>
  <time>2026-09-01T19:56:25Z</time>
  <course>92.29</course>
  <speed>0.02</speed>
  <fix>3d</fix>
</trkpt>
<trkpt lat="-27.2744385" lon="151.2900637">
  <ele>364.29</ele>
  <time>2026-09-01T19:56:25Z</time>
  <course>10.7</course>
  <speed>0.0282842712474619</speed>
  <fix>3d</fix>
</trkpt>
<trkpt lat="-27.2744383" lon="151.2900637">
  <ele>364.19</ele>
  <time>2026-09-01T19:56:25Z</time>
  <course>99.06</course>
  <speed>0.02</speed>
  <fix>3d</fix>
</trkpt>
<trkpt lat="-27.2744385" lon="151.2900638">
  <ele>364.29</ele>
  <time>2026-09-01T19:56:25Z</time>
  <course>10.7</course>
  <speed>0.0282842712474619</speed>
  <fix>3d</fix>
</trkpt>
<trkpt lat="-27.2744383" lon="151.2900637">
  <ele>364.19</ele>
  <time>2026-09-01T19:56:25Z</time>
  <course>99.06</course>
  <speed>0.02</speed>
  <fix>3d</fix>
</trkpt>
<trkpt lat="-27.2744385" lon="151.2900638">
  <ele>364.29</ele>
  <time>2026-09-01T19:56:25Z</time>
  <course>10.71</course>
  <speed>0.03605551275463989</speed>
  <fix>3d</fix>
</trkpt>
<trkpt lat="-27.2744383" lon="151.2900637">
  <ele>364.19</ele>
  <time>2026-09-01T19:56:25Z</time>
  <course>104.94</course>
  <speed>0.02</speed>
  <fix>3d</fix>
</trkpt>
<trkpt lat="-27.2744385" lon="151.2900638">
  <ele>364.29</ele>
  <time>2026-09-01T19:56:25Z</time>
  <course>10.71</course>
  <speed>0.03605551275463989</speed>
  <fix>3d</fix>
</trkpt>
<trkpt lat="-27.2744383" lon="151.2900637">
  <ele>364.19</ele>
  <time>2026-09-01T19:56:25Z</time>
  <course>104.94</course>
  <speed>0.02</speed>
  <fix>3d</fix>
</trkpt>
<trkpt lat="-27.2744385" lon="151.2900638">
  <ele>364.29</ele>
  <time>2026-09-01T19:56:25Z</time>
  <course>10.7</course>
  <speed>0.03605551275463989</speed>
  <fix>3d</fix>
</trkpt>
<trkpt lat="-27.2744383" lon="151.2900637">
  <ele>364.19</ele>
  <time>2026-09-01T19:56:25Z</time>
  <course>111.7</course>
  <speed>0.02</speed>
  <fix>3d</fix>
</trkpt>
<trkpt lat="-27.2744385" lon="151.2900638">
  <ele>364.29</ele>
  <time>2026-09-01T19:56:25Z</time>
  <course>10.7</course>
  <speed>0.03605551275463989</speed>
  <fix>3d</fix>
</trkpt>
<trkpt lat="-27.2744383" lon="151.2900637">
  <ele>364.19</ele>
  <time>2026-09-01T19:56:25Z</time>
  <course>111.7</course>
  <speed>0.02</speed>
  <fix>3d</fix>
</trkpt>
<trkpt lat="-27.2744385" lon="151.2900638">
  <ele>364.29</ele>
  <time>2026-09-01T19:56:25Z</time>
  <course>10.69</course>
  <speed>0.03605551275463989</speed>
  <fix>3d</fix>
</trkpt>
<trkpt lat="-27.2744383" lon="151.2900637">
  <ele>364.19</ele>
  <time>2026-09-01T19:56:25Z</time>
  <course>119.22</course>
  <speed>0.01</speed>
  <fix>3d</fix>
</trkpt>
<trkpt lat="-27.2744385" lon="151.2900638">
  <ele>364.28</ele>
  <time>2026-09-01T19:56:25Z</time>
  <course>10.69</course>
  <speed>0.03605551275463989</speed>
  <fix>3d</fix>
</trkpt>
<trkpt lat="-27.2744383" lon="151.2900637">
  <ele>364.19</ele>
  <time>2026-09-01T19:56:25Z</time>
  <course>119.22</course>
  <speed>0.01</speed>
  <fix>3d</fix>
</trkpt>
<trkpt lat="-27.2744385" lon="151.2900639">
  <ele>364.28</ele>
  <time>2026-09-01T19:56:25Z</time>
  <course>10.69</course>
  <speed>0.03605551275463989</speed>
  <fix>3d</fix>
</trkpt>
<trkpt lat="-27.2744383" lon="151.2900637">
  <ele>364.19</ele>
  <time>2026-09-01T19:56:25Z</time>
  <course>126.34</course>
  <speed>0.01</speed>
  <fix>3d</fix>
</trkpt>
<trkpt lat="-27.2744385" lon="151.2900639">
  <ele>364.28</ele>
  <time>2026-09-01T19:56:25Z</time>
  <course>10.68</course>
  <speed>0.03605551275463989</speed>
  <fix>3d</fix>
</trkpt>
<trkpt lat="-27.2744383" lon="151.2900637">
  <ele>364.19</ele>
  <time>2026-09-01T19:56:25Z</time>
  <course>126.34</course>
  <speed>0.01</speed>
  <fix>3d</fix>
</trkpt>
<trkpt lat="-27.2744385" lon="151.2900639">
  <ele>364.28</ele>
  <time>2026-09-01T19:56:25Z</time>
  <course>10.68</course>
  <speed>0.03605551275463989</speed>
  <fix>3d</fix>
</trkpt>
<trkpt lat="-27.2744383" lon="151.2900638">
  <ele>364.19</ele>
  <time>2026-09-01T19:56:25Z</time>
  <course>133.24</course>
  <speed>0.01</speed>
  <fix>3d</fix>
</trkpt>
<trkpt lat="-27.2744385" lon="151.2900639">
  <ele>364.28</ele>
  <time>2026-09-01T19:56:25Z</time>
  <course>10.68</course>
  <speed>0.0316227766016838</speed>
  <fix>3d</fix>
</trkpt>
<trkpt lat="-27.2744383" lon="151.2900638">
  <ele>364.19</ele>
  <time>2026-09-01T19:56:25Z</time>
  <course>133.24</course>
  <speed>0.01</speed>
  <fix>3d</fix>
</trkpt>
<trkpt lat="-27.2744385" lon="151.2900639">
  <ele>364.28</ele>
  <time>2026-09-01T19:56:25Z</time>
  <course>10.68</course>
  <speed>0.0316227766016838</speed>
  <fix>3d</fix>
</trkpt>
<trkpt lat="-27.2744383" lon="151.2900639">
  <ele>364.19</ele>
  <time>2026-09-01T19:56:25Z</time>
  <course>140.8</course>
  <speed>0.01</speed>
  <fix>3d</fix>
</trkpt>
<trkpt lat="-27.2744385" lon="151.2900639">
  <ele>364.28</ele>
  <time>2026-09-01T19:56:25Z</time>
  <course>10.68</course>
  <speed>0.0316227766016838</speed>
  <fix>3d</fix>
</trkpt>
<trkpt lat="-27.2744383" lon="151.2900639">
  <ele>364.19</ele>
  <time>2026-09-01T19:56:25Z</time>
  <course>140.8</course>
  <speed>0.01</speed>
  <fix>3d</fix>
</trkpt>
<trkpt lat="-27.2744386" lon="151.2900639">
  <ele>364.28</ele>
  <time>2026-09-01T19:56:25Z</time>
  <course>10.68</course>
  <speed>0.0316227766016838</speed>
  <fix>3d</fix>
</trkpt>
<trkpt lat="-27.2744383" lon="151.2900639">
  <ele>364.19</ele>
  <time>2026-09-01T19:56:25Z</time>
  <course>149.17</course>
  <speed>0.01</speed>
  <fix>3d</fix>
</trkpt>
<trkpt lat="-27.2744386" lon="151.2900639">
  <ele>364.27</ele>
  <time>2026-09-01T19:56:25Z</time>
  <course>10.68</course>
  <speed>0.0316227766016838</speed>
  <fix>3d</fix>
</trkpt>
<trkpt lat="-27.2744383" lon="151.2900639">
  <ele>364.19</ele>
  <time>2026-09-01T19:56:25Z</time>
  <course>149.17</course>
  <speed>0.01</speed>
  <fix>3d</fix>
</trkpt>
<trkpt lat="-27.2744386" lon="151.2900639">
  <ele>364.27</ele>
  <time>2026-09-01T19:56:25Z</time>
  <course>10.68</course>
  <speed>0.0316227766016838</speed>
  <fix>3d</fix>
</trkpt>
<trkpt lat="-27.2744383" lon="151.2900639">
  <ele>364.19</ele>
  <time>2026-09-01T19:56:25Z</time>
  <course>156.65</course>
  <speed>0.01</speed>
  <fix>3d</fix>
</trkpt>
<trkpt lat="-27.2744386" lon="151.2900639">
  <ele>364.28</ele>
  <time>2026-09-01T19:56:25Z</time>
  <course>10.69</course>
  <speed>0.0316227766016838</speed>
  <fix>3d</fix>
</trkpt>
<trkpt lat="-27.2744383" lon="151.2900639">
  <ele>364.19</ele>
  <time>2026-09-01T19:56:25Z</time>
  <course>156.65</course>
  <speed>0.01</speed>
  <fix>3d</fix>
</trkpt>
<trkpt lat="-27.2744386" lon="151.2900639">
  <ele>364.28</ele>
  <time>2026-09-01T19:56:25Z</time>
  <course>10.69</course>
  <speed>0.0316227766016838</speed>
  <fix>3d</fix>
</trkpt>
<trkpt lat="-27.2744383" lon="151.2900639">
  <ele>364.19</ele>
  <time>2026-09-01T19:56:25Z</time>
  <course>162.67</course>
  <speed>0.01</speed>
  <fix>3d</fix>
</trkpt>
<trkpt lat="-27.2744386" lon="151.2900639">
  <ele>364.28</ele>
  <time>2026-09-01T19:56:25Z</time>
  <course>10.7</course>
  <speed>0.0316227766016838</speed>
  <fix>3d</fix>
</trkpt>
<trkpt lat="-27.2744383" lon="151.2900639">
  <ele>364.19</ele>
  <time>2026-09-01T19:56:25Z</time>
  <course>162.67</course>
  <speed>0.01</speed>
  <fix>3d</fix>
</trkpt>
<trkpt lat="-27.2744386" lon="151.290064">
  <ele>364.28</ele>
  <time>2026-09-01T19:56:25Z</time>
  <course>10.7</course>
  <speed>0.0316227766016838</speed>
  <fix>3d</fix>
</trkpt>
<trkpt lat="-27.2744384" lon="151.2900639">
  <ele>364.19</ele>
  <time>2026-09-01T19:56:25Z</time>
  <course>168.34</course>
  <speed>0.01</speed>
  <fix>3d</fix>
</trkpt>
<trkpt lat="-27.2744386" lon="151.290064">
  <ele>364.28</ele>
  <time>2026-09-01T19:56:25Z</time>
  <course>10.7</course>
  <speed>0.0316227766016838</speed>
  <fix>3d</fix>
</trkpt>
<trkpt lat="-27.2744384" lon="151.2900639">
  <ele>364.19</ele>
  <time>2026-09-01T19:56:25Z</time>
  <course>168.34</course>
  <speed>0.01</speed>
  <fix>3d</fix>
</trkpt>
<trkpt lat="-27.2744386" lon="151.290064">
  <ele>364.29</ele>
  <time>2026-09-01T19:56:25Z</time>
  <course>10.7</course>
  <speed>0.0316227766016838</speed>
  <fix>3d</fix>
</trkpt>
<trkpt lat="-27.2744384" lon="151.2900639">
  <ele>364.19</ele>
  <time>2026-09-01T19:56:25Z</time>
  <course>174.43</course>
  <speed>0.01</speed>
  <fix>3d</fix>
</trkpt>
<trkpt lat="-27.2744386" lon="151.290064">
  <ele>364.29</ele>
  <time>2026-09-01T19:56:25Z</time>
  <course>10.7</course>
  <speed>0.03</speed>
  <fix>3d</fix>
</trkpt>
<trkpt lat="-27.2744384" lon="151.2900639">
  <ele>364.19</ele>
  <time>2026-09-01T19:56:25Z</time>
  <course>174.43</course>
  <speed>0.01</speed>
  <fix>3d</fix>
</trkpt>
<trkpt lat="-27.2744386" lon="151.290064">
  <ele>364.29</ele>
  <time>2026-09-01T19:56:25Z</time>
  <course>10.7</course>
  <speed>0.02</speed>
  <fix>3d</fix>
</trkpt>
<trkpt lat="-27.2744384" lon="151.290064">
  <ele>364.19</ele>
  <time>2026-09-01T19:56:25Z</time>
  <course>182.49</course>
  <speed>0.01</speed>
  <fix>3d</fix>
</trkpt>
<trkpt lat="-27.2744386" lon="151.290064">
  <ele>364.29</ele>
  <time>2026-09-01T19:56:26Z</time>
  <course>10.7</course>
  <speed>0.02</speed>
  <fix>3d</fix>
</trkpt>
<trkpt lat="-27.2744384" lon="151.290064">
  <ele>364.19</ele>
  <time>2026-09-01T19:56:26Z</time>
  <course>182.49</course>
  <speed>0.01</speed>
  <fix>3d</fix>
</trkpt>
<trkpt lat="-27.2744386" lon="151.290064">
  <ele>364.29</ele>
  <time>2026-09-01T19:56:26Z</time>
  <course>10.7</course>
  <speed>0.02</speed>
  <fix>3d</fix>
</trkpt>
<trkpt lat="-27.2744385" lon="151.2900639">
  <ele>364.19</ele>
  <time>2026-09-01T19:56:26Z</time>
  <course>192.29</course>
  <speed>0.01</speed>
  <fix>3d</fix>
</trkpt>
<trkpt lat="-27.2744386" lon="151.290064">
  <ele>364.29</ele>
  <time>2026-09-01T19:56:26Z</time>
  <course>10.7</course>
  <speed>0.02</speed>
  <fix>3d</fix>
</trkpt>
<trkpt lat="-27.2744385" lon="151.2900639">
  <ele>364.19</ele>
  <time>2026-09-01T19:56:26Z</time>
  <course>192.29</course>
  <speed>0.01</speed>
  <fix>3d</fix>
</trkpt>
<trkpt lat="-27.2744386" lon="151.2900639">
  <ele>364.29</ele>
  <time>2026-09-01T19:56:26Z</time>
  <course>10.69</course>
  <speed>0.02</speed>
  <fix>3d</fix>
</trkpt>
<trkpt lat="-27.2744385" lon="151.2900639">
  <ele>364.19</ele>
  <time>2026-09-01T19:56:26Z</time>
  <course>202.23</course>
  <speed>0.01</speed>
  <fix>3d</fix>
</trkpt>
<trkpt lat="-27.2744386" lon="151.2900639">
  <ele>364.29</ele>
  <time>2026-09-01T19:56:26Z</time>
  <course>10.69</course>
  <speed>0.02</speed>
  <fix>3d</fix>
</trkpt>
<trkpt lat="-27.2744385" lon="151.2900639">
  <ele>364.19</ele>
  <time>2026-09-01T19:56:26Z</time>
  <course>202.23</course>
  <speed>0.01</speed>
  <fix>3d</fix>
</trkpt>
<trkpt lat="-27.2744386" lon="151.2900639">
  <ele>364.29</ele>
  <time>2026-09-01T19:56:26Z</time>
  <course>10.69</course>
  <speed>0.02</speed>
  <fix>3d</fix>
</trkpt>
<trkpt lat="-27.2744385" lon="151.2900639">
  <ele>364.19</ele>
  <time>2026-09-01T19:56:26Z</time>
  <course>211.93</course>
  <speed>0.01</speed>
  <fix>3d</fix>
</trkpt>
<trkpt lat="-27.2744387" lon="151.2900639">
  <ele>364.29</ele>
  <time>2026-09-01T19:56:26Z</time>
  <course>10.69</course>
  <speed>0.02</speed>
  <fix>3d</fix>
</trkpt>
<trkpt lat="-27.2744385" lon="151.2900639">
  <ele>364.19</ele>
  <time>2026-09-01T19:56:26Z</time>
  <course>211.93</course>
  <speed>0.01</speed>
  <fix>3d</fix>
</trkpt>
<trkpt lat="-27.2744387" lon="151.2900639">
  <ele>364.29</ele>
  <time>2026-09-01T19:56:26Z</time>
  <course>10.69</course>
  <speed>0.02</speed>
  <fix>3d</fix>
</trkpt>
<trkpt lat="-27.2744385" lon="151.2900639">
  <ele>364.19</ele>
  <time>2026-09-01T19:56:26Z</time>
  <course>220.92</course>
  <speed>0.01</speed>
  <fix>3d</fix>
</trkpt>
<trkpt lat="-27.2744387" lon="151.2900639">
  <ele>364.28</ele>
  <time>2026-09-01T19:56:26Z</time>
  <course>10.69</course>
  <speed>0.02</speed>
  <fix>3d</fix>
</trkpt>
<trkpt lat="-27.2744385" lon="151.2900639">
  <ele>364.19</ele>
  <time>2026-09-01T19:56:26Z</time>
  <course>220.92</course>
  <speed>0.01</speed>
  <fix>3d</fix>
</trkpt>
<trkpt lat="-27.2744387" lon="151.2900639">
  <ele>364.28</ele>
  <time>2026-09-01T19:56:26Z</time>
  <course>10.69</course>
  <speed>0.02</speed>
  <fix>3d</fix>
</trkpt>
<trkpt lat="-27.2744385" lon="151.2900639">
  <ele>364.19</ele>
  <time>2026-09-01T19:56:26Z</time>
  <course>229.67</course>
  <speed>0.01</speed>
  <fix>3d</fix>
</trkpt>
<trkpt lat="-27.2744387" lon="151.2900639">
  <ele>364.28</ele>
  <time>2026-09-01T19:56:26Z</time>
  <course>10.69</course>
  <speed>0.02</speed>
  <fix>3d</fix>
</trkpt>
<trkpt lat="-27.2744385" lon="151.2900639">
  <ele>364.19</ele>
  <time>2026-09-01T19:56:26Z</time>
  <course>229.67</course>
  <speed>0.01</speed>
  <fix>3d</fix>
</trkpt>
<trkpt lat="-27.2744387" lon="151.2900639">
  <ele>364.28</ele>
  <time>2026-09-01T19:56:26Z</time>
  <course>10.69</course>
  <speed>0.02</speed>
  <fix>3d</fix>
</trkpt>
<trkpt lat="-27.2744386" lon="151.2900639">
  <ele>364.19</ele>
  <time>2026-09-01T19:56:26Z</time>
  <course>237.18</course>
  <speed>0.01</speed>
  <fix>3d</fix>
</trkpt>
<trkpt lat="-27.2744387" lon="151.2900639">
  <ele>364.28</ele>
  <time>2026-09-01T19:56:26Z</time>
  <course>10.69</course>
  <speed>0.02</speed>
  <fix>3d</fix>
</trkpt>
<trkpt lat="-27.2744386" lon="151.2900639">
  <ele>364.19</ele>
  <time>2026-09-01T19:56:26Z</time>
  <course>237.18</course>
  <speed>0.01</speed>
  <fix>3d</fix>
</trkpt>
<trkpt lat="-27.2744387" lon="151.2900639">
  <ele>364.28</ele>
  <time>2026-09-01T19:56:26Z</time>
  <course>10.69</course>
  <speed>0.02</speed>
  <fix>3d</fix>
</trkpt>
<trkpt lat="-27.2744386" lon="151.2900639">
  <ele>364.19</ele>
  <time>2026-09-01T19:56:26Z</time>
  <course>241.25</course>
  <speed>0.01</speed>
  <fix>3d</fix>
</trkpt>
<trkpt lat="-27.2744387" lon="151.2900639">
  <ele>364.29</ele>
  <time>2026-09-01T19:56:26Z</time>
  <course>10.69</course>
  <speed>0.02</speed>
  <fix>3d</fix>
</trkpt>
<trkpt lat="-27.2744386" lon="151.2900639">
  <ele>364.19</ele>
  <time>2026-09-01T19:56:26Z</time>
  <course>241.25</course>
  <speed>0.01</speed>
  <fix>3d</fix>
</trkpt>
<trkpt lat="-27.2744387" lon="151.2900639">
  <ele>364.29</ele>
  <time>2026-09-01T19:56:26Z</time>
  <course>10.69</course>
  <speed>0.02</speed>
  <fix>3d</fix>
</trkpt>
<trkpt lat="-27.2744386" lon="151.2900639">
  <ele>364.19</ele>
  <time>2026-09-01T19:56:26Z</time>
  <course>242.57</course>
  <speed>0.01</speed>
  <fix>3d</fix>
</trkpt>
<trkpt lat="-27.2744387" lon="151.2900639">
  <ele>364.29</ele>
  <time>2026-09-01T19:56:26Z</time>
  <course>10.69</course>
  <speed>0.02</speed>
  <fix>3d</fix>
</trkpt>
<trkpt lat="-27.2744386" lon="151.2900639">
  <ele>364.19</ele>
  <time>2026-09-01T19:56:26Z</time>
  <course>242.57</course>
  <speed>0.01</speed>
  <fix>3d</fix>
</trkpt>
<trkpt lat="-27.2744387" lon="151.2900639">
  <ele>364.29</ele>
  <time>2026-09-01T19:56:26Z</time>
  <course>10.7</course>
  <speed>0.02</speed>
  <fix>3d</fix>
</trkpt>
<trkpt lat="-27.2744386" lon="151.2900639">
  <ele>364.19</ele>
  <time>2026-09-01T19:56:26Z</time>
  <course>244.37</course>
  <speed>0.01</speed>
  <fix>3d</fix>
</trkpt>
<trkpt lat="-27.2744387" lon="151.2900639">
  <ele>364.29</ele>
  <time>2026-09-01T19:56:26Z</time>
  <course>10.7</course>
  <speed>0.02</speed>
  <fix>3d</fix>
</trkpt>
<trkpt lat="-27.2744386" lon="151.2900639">
  <ele>364.19</ele>
  <time>2026-09-01T19:56:26Z</time>
  <course>244.37</course>
  <speed>0.01</speed>
  <fix>3d</fix>
</trkpt>
<trkpt lat="-27.2744387" lon="151.2900639">
  <ele>364.29</ele>
  <time>2026-09-01T19:56:26Z</time>
  <course>10.7</course>
  <speed>0.02</speed>
  <fix>3d</fix>
</trkpt>
<trkpt lat="-27.2744386" lon="151.2900638">
  <ele>364.18</ele>
  <time>2026-09-01T19:56:26Z</time>
  <course>248.51</course>
  <speed>0.01</speed>
  <fix>3d</fix>
</trkpt>
<trkpt lat="-27.2744387" lon="151.2900639">
  <ele>364.29</ele>
  <time>2026-09-01T19:56:26Z</time>
  <course>10.7</course>
  <speed>0.02</speed>
  <fix>3d</fix>
</trkpt>
<trkpt lat="-27.2744386" lon="151.2900638">
  <ele>364.18</ele>
  <time>2026-09-01T19:56:26Z</time>
  <course>248.51</course>
  <speed>0.01</speed>
  <fix>3d</fix>
</trkpt>
<trkpt lat="-27.2744387" lon="151.2900639">
  <ele>364.29</ele>
  <time>2026-09-01T19:56:26Z</time>
  <course>10.7</course>
  <speed>0.02</speed>
  <fix>3d</fix>
</trkpt>
<trkpt lat="-27.2744386" lon="151.2900637">
  <ele>364.18</ele>
  <time>2026-09-01T19:56:26Z</time>
  <course>253.98</course>
  <speed>0.01</speed>
  <fix>3d</fix>
</trkpt>
<trkpt lat="-27.2744387" lon="151.2900639">
  <ele>364.29</ele>
  <time>2026-09-01T19:56:26Z</time>
  <course>10.7</course>
  <speed>0.01</speed>
  <fix>3d</fix>
</trkpt>
<trkpt lat="-27.2744386" lon="151.2900637">
  <ele>364.18</ele>
  <time>2026-09-01T19:56:26Z</time>
  <course>253.98</course>
  <speed>0.01</speed>
  <fix>3d</fix>
</trkpt>
<trkpt lat="-27.2744387" lon="151.2900639">
  <ele>364.29</ele>
  <time>2026-09-01T19:56:26Z</time>
  <course>10.7</course>
  <speed>0.01</speed>
  <fix>3d</fix>
</trkpt>
<trkpt lat="-27.2744386" lon="151.2900637">
  <ele>364.18</ele>
  <time>2026-09-01T19:56:26Z</time>
  <course>259.24</course>
  <speed>0.01</speed>
  <fix>3d</fix>
</trkpt>
<trkpt lat="-27.2744387" lon="151.2900638">
  <ele>364.29</ele>
  <time>2026-09-01T19:56:26Z</time>
  <course>10.7</course>
  <speed>0.01</speed>
  <fix>3d</fix>
</trkpt>
<trkpt lat="-27.2744386" lon="151.2900637">
  <ele>364.18</ele>
  <time>2026-09-01T19:56:26Z</time>
  <course>259.24</course>
  <speed>0.01</speed>
  <fix>3d</fix>
</trkpt>
<trkpt lat="-27.2744387" lon="151.2900638">
  <ele>364.29</ele>
  <time>2026-09-01T19:56:26Z</time>
  <course>10.69</course>
  <speed>0.01</speed>
  <fix>3d</fix>
</trkpt>
<trkpt lat="-27.2744386" lon="151.2900637">
  <ele>364.18</ele>
  <time>2026-09-01T19:56:26Z</time>
  <course>263.4</course>
  <speed>0.01</speed>
  <fix>3d</fix>
</trkpt>
<trkpt lat="-27.2744387" lon="151.2900638">
  <ele>364.29</ele>
  <time>2026-09-01T19:56:26Z</time>
  <course>10.69</course>
  <speed>0.01</speed>
  <fix>3d</fix>
</trkpt>
<trkpt lat="-27.2744386" lon="151.2900637">
  <ele>364.18</ele>
  <time>2026-09-01T19:56:26Z</time>
  <course>263.4</course>
  <speed>0.01</speed>
  <fix>3d</fix>
</trkpt>
<trkpt lat="-27.2744387" lon="151.2900638">
  <ele>364.29</ele>
  <time>2026-09-01T19:56:26Z</time>
  <course>10.69</course>
  <speed>0.01</speed>
  <fix>3d</fix>
</trkpt>
<trkpt lat="-27.2744387" lon="151.2900637">
  <ele>364.18</ele>
  <time>2026-09-01T19:56:26Z</time>
  <course>268.51</course>
  <speed>0.01</speed>
  <fix>3d</fix>
</trkpt>
<trkpt lat="-27.2744387" lon="151.2900638">
  <ele>364.29</ele>
  <time>2026-09-01T19:56:26Z</time>
  <course>10.69</course>
  <speed>0.01</speed>
  <fix>3d</fix>
</trkpt>
<trkpt lat="-27.2744387" lon="151.2900637">
  <ele>364.18</ele>
  <time>2026-09-01T19:56:26Z</time>
  <course>268.51</course>
  <speed>0.01</speed>
  <fix>3d</fix>
</trkpt>
<trkpt lat="-27.2744387" lon="151.2900638">
  <ele>364.29</ele>
  <time>2026-09-01T19:56:26Z</time>
  <course>10.69</course>
  <speed>0.01</speed>
  <fix>3d</fix>
</trkpt>
<trkpt lat="-27.2744387" lon="151.2900636">
  <ele>364.17</ele>
  <time>2026-09-01T19:56:26Z</time>
  <course>273.95</course>
  <speed>0.01</speed>
  <fix>3d</fix>
</trkpt>
<trkpt lat="-27.2744387" lon="151.2900638">
  <ele>364.29</ele>
  <time>2026-09-01T19:56:26Z</time>
  <course>10.69</course>
  <speed>0.01</speed>
  <fix>3d</fix>
</trkpt>
<trkpt lat="-27.2744387" lon="151.2900636">
  <ele>364.17</ele>
  <time>2026-09-01T19:56:26Z</time>
  <course>273.95</course>
  <speed>0.01</speed>
  <fix>3d</fix>
</trkpt>
<trkpt lat="-27.2744387" lon="151.2900638">
  <ele>364.29</ele>
  <time>2026-09-01T19:56:26Z</time>
  <course>10.69</course>
  <speed>0.01</speed>
  <fix>3d</fix>
</trkpt>
<trkpt lat="-27.2744387" lon="151.2900636">
  <ele>364.17</ele>
  <time>2026-09-01T19:56:26Z</time>
  <course>278.45</course>
  <speed>0.01</speed>
  <fix>3d</fix>
</trkpt>
<trkpt lat="-27.2744387" lon="151.2900637">
  <ele>364.29</ele>
  <time>2026-09-01T19:56:26Z</time>
  <course>10.69</course>
  <speed>0.01</speed>
  <fix>3d</fix>
</trkpt>
<trkpt lat="-27.2744387" lon="151.2900636">
  <ele>364.17</ele>
  <time>2026-09-01T19:56:26Z</time>
  <course>278.45</course>
  <speed>0.01</speed>
  <fix>3d</fix>
</trkpt>
<trkpt lat="-27.2744387" lon="151.2900637">
  <ele>364.28</ele>
  <time>2026-09-01T19:56:26Z</time>
  <course>10.69</course>
  <speed>0.01</speed>
  <fix>3d</fix>
</trkpt>
<trkpt lat="-27.2744387" lon="151.2900636">
  <ele>364.17</ele>
  <time>2026-09-01T19:56:26Z</time>
  <course>283.8</course>
  <speed>0.01</speed>
  <fix>3d</fix>
</trkpt>
<trkpt lat="-27.2744387" lon="151.2900637">
  <ele>364.28</ele>
  <time>2026-09-01T19:56:26Z</time>
  <course>10.69</course>
  <speed>0.01</speed>
  <fix>3d</fix>
</trkpt>
<trkpt lat="-27.2744387" lon="151.2900636">
  <ele>364.17</ele>
  <time>2026-09-01T19:56:26Z</time>
  <course>283.8</course>
  <speed>0.01</speed>
  <fix>3d</fix>
</trkpt>
<trkpt lat="-27.2744387" lon="151.2900637">
  <ele>364.28</ele>
  <time>2026-09-01T19:56:26Z</time>
  <course>10.69</course>
  <speed>0.01</speed>
  <fix>3d</fix>
</trkpt>
<trkpt lat="-27.2744387" lon="151.2900635">
  <ele>364.17</ele>
  <time>2026-09-01T19:56:26Z</time>
  <course>289.71</course>
  <speed>0.01</speed>
  <fix>3d</fix>
</trkpt>
<trkpt lat="-27.2744387" lon="151.2900637">
  <ele>364.27</ele>
  <time>2026-09-01T19:56:26Z</time>
  <course>10.7</course>
  <speed>0.01</speed>
  <fix>3d</fix>
</trkpt>
<trkpt lat="-27.2744387" lon="151.2900635">
  <ele>364.17</ele>
  <time>2026-09-01T19:56:26Z</time>
  <course>289.71</course>
  <speed>0.01</speed>
  <fix>3d</fix>
</trkpt>
<trkpt lat="-27.2744387" lon="151.2900637">
  <ele>364.27</ele>
  <time>2026-09-01T19:56:26Z</time>
  <course>10.7</course>
  <speed>0.01</speed>
  <fix>3d</fix>
</trkpt>
<trkpt lat="-27.2744387" lon="151.2900635">
  <ele>364.16</ele>
  <time>2026-09-01T19:56:26Z</time>
  <course>295.63</course>
  <speed>0.01</speed>
  <fix>3d</fix>
</trkpt>
<trkpt lat="-27.2744387" lon="151.2900637">
  <ele>364.28</ele>
  <time>2026-09-01T19:56:26Z</time>
  <course>10.7</course>
  <speed>0.01</speed>
  <fix>3d</fix>
</trkpt>
<trkpt lat="-27.2744387" lon="151.2900635">
  <ele>364.16</ele>
  <time>2026-09-01T19:56:26Z</time>
  <course>295.63</course>
  <speed>0.01</speed>
  <fix>3d</fix>
</trkpt>
<trkpt lat="-27.2744387" lon="151.2900637">
  <ele>364.28</ele>
  <time>2026-09-01T19:56:26Z</time>
  <course>10.69</course>
  <speed>0.01</speed>
  <fix>3d</fix>
</trkpt>
<trkpt lat="-27.2744387" lon="151.2900635">
  <ele>364.16</ele>
  <time>2026-09-01T19:56:26Z</time>
  <course>301.25</course>
  <speed>0.01</speed>
  <fix>3d</fix>
</trkpt>
<trkpt lat="-27.2744387" lon="151.2900637">
  <ele>364.28</ele>
  <time>2026-09-01T19:56:26Z</time>
  <course>10.69</course>
  <speed>0.01</speed>
  <fix>3d</fix>
</trkpt>
<trkpt lat="-27.2744387" lon="151.2900635">
  <ele>364.16</ele>
  <time>2026-09-01T19:56:26Z</time>
  <course>301.25</course>
  <speed>0.01</speed>
  <fix>3d</fix>
</trkpt>
<trkpt lat="-27.2744387" lon="151.2900637">
  <ele>364.28</ele>
  <time>2026-09-01T19:56:26Z</time>
  <course>10.69</course>
  <speed>0.01414213562373095</speed>
  <fix>3d</fix>
</trkpt>
<trkpt lat="-27.2744387" lon="151.2900635">
  <ele>364.16</ele>
  <time>2026-09-01T19:56:26Z</time>
  <course>308.12</course>
  <speed>0.01</speed>
  <fix>3d</fix>
</trkpt>
<trkpt lat="-27.2744387" lon="151.2900637">
  <ele>364.28</ele>
  <time>2026-09-01T19:56:26Z</time>
  <course>10.69</course>
  <speed>0.01414213562373095</speed>
  <fix>3d</fix>
</trkpt>
<trkpt lat="-27.2744387" lon="151.2900635">
  <ele>364.16</ele>
  <time>2026-09-01T19:56:26Z</time>
  <course>308.12</course>
  <speed>0.01</speed>
  <fix>3d</fix>
</trkpt>
<trkpt lat="-27.2744387" lon="151.2900637">
  <ele>364.28</ele>
  <time>2026-09-01T19:56:26Z</time>
  <course>10.68</course>
  <speed>0.01414213562373095</speed>
  <fix>3d</fix>
</trkpt>
<trkpt lat="-27.2744387" lon="151.2900635">
  <ele>364.16</ele>
  <time>2026-09-01T19:56:26Z</time>
  <course>319.71</course>
  <speed>0.01</speed>
  <fix>3d</fix>
</trkpt>
<trkpt lat="-27.2744387" lon="151.2900637">
  <ele>364.28</ele>
  <time>2026-09-01T19:56:26Z</time>
  <course>10.68</course>
  <speed>0.01414213562373095</speed>
  <fix>3d</fix>
</trkpt>
<trkpt lat="-27.2744387" lon="151.2900635">
  <ele>364.16</ele>
  <time>2026-09-01T19:56:26Z</time>
  <course>319.71</course>
  <speed>0.01</speed>
  <fix>3d</fix>
</trkpt>
<trkpt lat="-27.2744387" lon="151.2900636">
  <ele>364.28</ele>
  <time>2026-09-01T19:56:26Z</time>
  <course>10.68</course>
  <speed>0.01414213562373095</speed>
  <fix>3d</fix>
</trkpt>
<trkpt lat="-27.2744387" lon="151.2900634">
  <ele>364.17</ele>
  <time>2026-09-01T19:56:26Z</time>
  <course>334.31</course>
  <speed>0.01</speed>
  <fix>3d</fix>
</trkpt>
<trkpt lat="-27.2744387" lon="151.2900636">
  <ele>364.28</ele>
  <time>2026-09-01T19:56:26Z</time>
  <course>10.68</course>
  <speed>0.01414213562373095</speed>
  <fix>3d</fix>
</trkpt>
<trkpt lat="-27.2744387" lon="151.2900634">
  <ele>364.17</ele>
  <time>2026-09-01T19:56:26Z</time>
  <course>334.31</course>
  <speed>0.01</speed>
  <fix>3d</fix>
</trkpt>
<trkpt lat="-27.2744387" lon="151.2900636">
  <ele>364.28</ele>
  <time>2026-09-01T19:56:26Z</time>
  <course>10.68</course>
  <speed>0.01414213562373095</speed>
  <fix>3d</fix>
</trkpt>
<trkpt lat="-27.2744386" lon="151.2900633">
  <ele>364.17</ele>
  <time>2026-09-01T19:56:26Z</time>
  <course>344.57</course>
  <speed>0.01</speed>
  <fix>3d</fix>
</trkpt>
<trkpt lat="-27.2744387" lon="151.2900636">
  <ele>364.28</ele>
  <time>2026-09-01T19:56:26Z</time>
  <course>10.68</course>
  <speed>0.01414213562373095</speed>
  <fix>3d</fix>
</trkpt>
<trkpt lat="-27.2744386" lon="151.2900633">
  <ele>364.17</ele>
  <time>2026-09-01T19:56:26Z</time>
  <course>344.57</course>
  <speed>0.01</speed>
  <fix>3d</fix>
</trkpt>
<trkpt lat="-27.2744387" lon="151.2900636">
  <ele>364.28</ele>
  <time>2026-09-01T19:56:26Z</time>
  <course>10.68</course>
  <speed>0.01414213562373095</speed>
  <fix>3d</fix>
</trkpt>
<trkpt lat="-27.2744386" lon="151.2900633">
  <ele>364.17</ele>
  <time>2026-09-01T19:56:26Z</time>
  <course>350.32</course>
  <speed>0.01</speed>
  <fix>3d</fix>
</trkpt>
<trkpt lat="-27.2744387" lon="151.2900636">
  <ele>364.28</ele>
  <time>2026-09-01T19:56:26Z</time>
  <course>10.69</course>
  <speed>0.01414213562373095</speed>
  <fix>3d</fix>
</trkpt>
<trkpt lat="-27.2744386" lon="151.2900633">
  <ele>364.17</ele>
  <time>2026-09-01T19:56:26Z</time>
  <course>350.32</course>
  <speed>0.01</speed>
  <fix>3d</fix>
</trkpt>
<trkpt lat="-27.2744387" lon="151.2900636">
  <ele>364.28</ele>
  <time>2026-09-01T19:56:26Z</time>
  <course>10.71</course>
  <speed>0.01414213562373095</speed>
  <fix>3d</fix>
</trkpt>
<trkpt lat="-27.2744386" lon="151.2900633">
  <ele>364.17</ele>
  <time>2026-09-01T19:56:26Z</time>
  <course>356.14</course>
  <speed>0.01</speed>
  <fix>3d</fix>
</trkpt>
<trkpt lat="-27.2744387" lon="151.2900636">
  <ele>364.28</ele>
  <time>2026-09-01T19:56:26Z</time>
  <course>10.72</course>
  <speed>0.01414213562373095</speed>
  <fix>3d</fix>
</trkpt>
<trkpt lat="-27.2744386" lon="151.2900633">
  <ele>364.17</ele>
  <time>2026-09-01T19:56:26Z</time>
  <course>356.14</course>
  <speed>0.01</speed>
  <fix>3d</fix>
</trkpt>
<trkpt lat="-27.2744387" lon="151.2900636">
  <ele>364.27</ele>
  <time>2026-09-01T19:56:26Z</time>
  <course>10.72</course>
  <speed>0.01414213562373095</speed>
  <fix>3d</fix>
</trkpt>
<trkpt lat="-27.2744386" lon="151.2900633">
  <ele>364.17</ele>
  <time>2026-09-01T19:56:26Z</time>
  <course>3.79</course>
  <speed>0.01</speed>
  <fix>3d</fix>
</trkpt>
<trkpt lat="-27.2744387" lon="151.2900636">
  <ele>364.27</ele>
  <time>2026-09-01T19:56:26Z</time>
  <course>10.72</course>
  <speed>0.01414213562373095</speed>
  <fix>3d</fix>
</trkpt>
<trkpt lat="-27.2744386" lon="151.2900633">
  <ele>364.17</ele>
  <time>2026-09-01T19:56:26Z</time>
  <course>3.79</course>
  <speed>0.01</speed>
  <fix>3d</fix>
</trkpt>
<trkpt lat="-27.2744387" lon="151.2900636">
  <ele>364.27</ele>
  <time>2026-09-01T19:56:26Z</time>
  <course>10.71</course>
  <speed>0.01</speed>
  <fix>3d</fix>
</trkpt>
<trkpt lat="-27.2744385" lon="151.2900633">
  <ele>364.17</ele>
  <time>2026-09-01T19:56:26Z</time>
  <course>11.74</course>
  <speed>0.01</speed>
  <fix>3d</fix>
</trkpt>
<trkpt lat="-27.2744387" lon="151.2900636">
  <ele>364.27</ele>
  <time>2026-09-01T19:56:26Z</time>
  <course>10.7</course>
  <speed>0.02</speed>
  <fix>3d</fix>
</trkpt>
<trkpt lat="-27.2744385" lon="151.2900633">
  <ele>364.17</ele>
  <time>2026-09-01T19:56:26Z</time>
  <course>11.74</course>
  <speed>0.01</speed>
  <fix>3d</fix>
</trkpt>
<trkpt lat="-27.2744387" lon="151.2900635">
  <ele>364.27</ele>
  <time>2026-09-01T19:56:26Z</time>
  <course>10.69</course>
  <speed>0.02</speed>
  <fix>3d</fix>
</trkpt>
<trkpt lat="-27.2744385" lon="151.2900633">
  <ele>364.17</ele>
  <time>2026-09-01T19:56:26Z</time>
  <course>17.79</course>
  <speed>0.01</speed>
  <fix>3d</fix>
</trkpt>
<trkpt lat="-27.2744387" lon="151.2900635">
  <ele>364.27</ele>
  <time>2026-09-01T19:56:26Z</time>
  <course>10.68</course>
  <speed>0.02</speed>
  <fix>3d</fix>
</trkpt>
<trkpt lat="-27.2744385" lon="151.2900633">
  <ele>364.17</ele>
  <time>2026-09-01T19:56:26Z</time>
  <course>17.79</course>
  <speed>0.01</speed>
  <fix>3d</fix>
</trkpt>
<trkpt lat="-27.2744387" lon="151.2900635">
  <ele>364.27</ele>
  <time>2026-09-01T19:56:26Z</time>
  <course>10.68</course>
  <speed>0.02</speed>
  <fix>3d</fix>
</trkpt>
<trkpt lat="-27.2744385" lon="151.2900633">
  <ele>364.17</ele>
  <time>2026-09-01T19:56:26Z</time>
  <course>23.02</course>
  <speed>0.01</speed>
  <fix>3d</fix>
</trkpt>
<trkpt lat="-27.2744387" lon="151.2900635">
  <ele>364.27</ele>
  <time>2026-09-01T19:56:26Z</time>
  <course>10.68</course>
  <speed>0.02</speed>
  <fix>3d</fix>
</trkpt>
<trkpt lat="-27.2744385" lon="151.2900633">
  <ele>364.17</ele>
  <time>2026-09-01T19:56:26Z</time>
  <course>23.02</course>
  <speed>0.01</speed>
  <fix>3d</fix>
</trkpt>
<trkpt lat="-27.2744387" lon="151.2900635">
  <ele>364.28</ele>
  <time>2026-09-01T19:56:26Z</time>
  <course>10.68</course>
  <speed>0.022360679774997897</speed>
  <fix>3d</fix>
</trkpt>
<trkpt lat="-27.2744385" lon="151.2900633">
  <ele>364.17</ele>
  <time>2026-09-01T19:56:26Z</time>
  <course>29.09</course>
  <speed>0.01</speed>
  <fix>3d</fix>
</trkpt>
<trkpt lat="-27.2744387" lon="151.2900635">
  <ele>364.28</ele>
  <time>2026-09-01T19:56:26Z</time>
  <course>10.68</course>
  <speed>0.022360679774997897</speed>
  <fix>3d</fix>
</trkpt>
<trkpt lat="-27.2744385" lon="151.2900633">
  <ele>364.17</ele>
  <time>2026-09-01T19:56:26Z</time>
  <course>29.09</course>
  <speed>0.01</speed>
  <fix>3d</fix>
</trkpt>
<trkpt lat="-27.2744387" lon="151.2900635">
  <ele>364.28</ele>
  <time>2026-09-01T19:56:26Z</time>
  <course>10.69</course>
  <speed>0.022360679774997897</speed>
  <fix>3d</fix>
</trkpt>
<trkpt lat="-27.2744384" lon="151.2900633">
  <ele>364.17</ele>
  <time>2026-09-01T19:56:26Z</time>
  <course>34.94</course>
  <speed>0.01</speed>
  <fix>3d</fix>
</trkpt>
<trkpt lat="-27.2744387" lon="151.2900635">
  <ele>364.28</ele>
  <time>2026-09-01T19:56:26Z</time>
  <course>10.69</course>
  <speed>0.022360679774997897</speed>
  <fix>3d</fix>
</trkpt>
<trkpt lat="-27.2744384" lon="151.2900633">
  <ele>364.17</ele>
  <time>2026-09-01T19:56:26Z</time>
  <course>34.94</course>
  <speed>0.01</speed>
  <fix>3d</fix>
</trkpt>
<trkpt lat="-27.2744386" lon="151.2900635">
  <ele>364.29</ele>
  <time>2026-09-01T19:56:26Z</time>
  <course>10.69</course>
  <speed>0.022360679774997897</speed>
  <fix>3d</fix>
</trkpt>
<trkpt lat="-27.2744384" lon="151.2900633">
  <ele>364.18</ele>
  <time>2026-09-01T19:56:26Z</time>
  <course>40.73</course>
  <speed>0.02</speed>
  <fix>3d</fix>
</trkpt>
<trkpt lat="-27.2744386" lon="151.2900635">
  <ele>364.29</ele>
  <time>2026-09-01T19:56:26Z</time>
  <course>10.69</course>
  <speed>0.022360679774997897</speed>
  <fix>3d</fix>
</trkpt>
<trkpt lat="-27.2744384" lon="151.2900633">
  <ele>364.18</ele>
  <time>2026-09-01T19:56:26Z</time>
  <course>40.73</course>
  <speed>0.02</speed>
  <fix>3d</fix>
</trkpt>
<trkpt lat="-27.2744386" lon="151.2900635">
  <ele>364.29</ele>
  <time>2026-09-01T19:56:26Z</time>
  <course>10.69</course>
  <speed>0.022360679774997897</speed>
  <fix>3d</fix>
</trkpt>
<trkpt lat="-27.2744384" lon="151.2900634">
  <ele>364.18</ele>
  <time>2026-09-01T19:56:26Z</time>
  <course>47.28</course>
  <speed>0.02</speed>
  <fix>3d</fix>
</trkpt>
<trkpt lat="-27.2744386" lon="151.2900635">
  <ele>364.29</ele>
  <time>2026-09-01T19:56:26Z</time>
  <course>10.69</course>
  <speed>0.022360679774997897</speed>
  <fix>3d</fix>
</trkpt>
<trkpt lat="-27.2744384" lon="151.2900634">
  <ele>364.18</ele>
  <time>2026-09-01T19:56:26Z</time>
  <course>47.28</course>
  <speed>0.02</speed>
  <fix>3d</fix>
</trkpt>
<trkpt lat="-27.2744386" lon="151.2900635">
  <ele>364.28</ele>
  <time>2026-09-01T19:56:26Z</time>
  <course>10.69</course>
  <speed>0.022360679774997897</speed>
  <fix>3d</fix>
</trkpt>
<trkpt lat="-27.2744384" lon="151.2900635">
  <ele>364.18</ele>
  <time>2026-09-01T19:56:26Z</time>
  <course>54.11</course>
  <speed>0.02</speed>
  <fix>3d</fix>
</trkpt>
<trkpt lat="-27.2744386" lon="151.2900636">
  <ele>364.28</ele>
  <time>2026-09-01T19:56:26Z</time>
  <course>10.69</course>
  <speed>0.022360679774997897</speed>
  <fix>3d</fix>
</trkpt>
<trkpt lat="-27.2744384" lon="151.2900635">
  <ele>364.18</ele>
  <time>2026-09-01T19:56:26Z</time>
  <course>54.11</course>
  <speed>0.02</speed>
  <fix>3d</fix>
</trkpt>
<trkpt lat="-27.2744386" lon="151.2900636">
  <ele>364.28</ele>
  <time>2026-09-01T19:56:26Z</time>
  <course>10.69</course>
  <speed>0.022360679774997897</speed>
  <fix>3d</fix>
</trkpt>
<trkpt lat="-27.2744383" lon="151.2900635">
  <ele>364.18</ele>
  <time>2026-09-01T19:56:26Z</time>
  <course>60.01</course>
  <speed>0.02</speed>
  <fix>3d</fix>
</trkpt>
<trkpt lat="-27.2744386" lon="151.2900636">
  <ele>364.28</ele>
  <time>2026-09-01T19:56:26Z</time>
  <course>10.69</course>
  <speed>0.022360679774997897</speed>
  <fix>3d</fix>
</trkpt>
<trkpt lat="-27.2744383" lon="151.2900635">
  <ele>364.18</ele>
  <time>2026-09-01T19:56:26Z</time>
  <course>60.01</course>
  <speed>0.02</speed>
  <fix>3d</fix>
</trkpt>
<trkpt lat="-27.2744386" lon="151.2900636">
  <ele>364.28</ele>
  <time>2026-09-01T19:56:26Z</time>
  <course>10.69</course>
  <speed>0.022360679774997897</speed>
  <fix>3d</fix>
</trkpt>
<trkpt lat="-27.2744383" lon="151.2900635">
  <ele>364.18</ele>
  <time>2026-09-01T19:56:26Z</time>
  <course>64.05</course>
  <speed>0.02</speed>
  <fix>3d</fix>
</trkpt>
<trkpt lat="-27.2744386" lon="151.2900636">
  <ele>364.28</ele>
  <time>2026-09-01T19:56:26Z</time>
  <course>10.69</course>
  <speed>0.022360679774997897</speed>
  <fix>3d</fix>
</trkpt>
<trkpt lat="-27.2744383" lon="151.2900635">
  <ele>364.18</ele>
  <time>2026-09-01T19:56:26Z</time>
  <course>64.05</course>
  <speed>0.02</speed>
  <fix>3d</fix>
</trkpt>
<trkpt lat="-27.2744386" lon="151.2900636">
  <ele>364.28</ele>
  <time>2026-09-01T19:56:26Z</time>
  <course>10.69</course>
  <speed>0.022360679774997897</speed>
  <fix>3d</fix>
</trkpt>
<trkpt lat="-27.2744383" lon="151.2900636">
  <ele>364.18</ele>
  <time>2026-09-01T19:56:26Z</time>
  <course>67.44</course>
  <speed>0.02</speed>
  <fix>3d</fix>
</trkpt>
<trkpt lat="-27.2744386" lon="151.2900637">
  <ele>364.28</ele>
  <time>2026-09-01T19:56:26Z</time>
  <course>10.69</course>
  <speed>0.0282842712474619</speed>
  <fix>3d</fix>
</trkpt>
<trkpt lat="-27.2744383" lon="151.2900636">
  <ele>364.18</ele>
  <time>2026-09-01T19:56:26Z</time>
  <course>67.44</course>
  <speed>0.02</speed>
  <fix>3d</fix>
</trkpt>
<trkpt lat="-27.2744385" lon="151.2900637">
  <ele>364.28</ele>
  <time>2026-09-01T19:56:26Z</time>
  <course>10.69</course>
  <speed>0.0282842712474619</speed>
  <fix>3d</fix>
</trkpt>
<trkpt lat="-27.2744383" lon="151.2900636">
  <ele>364.18</ele>
  <time>2026-09-01T19:56:26Z</time>
  <course>71.35</course>
  <speed>0.01</speed>
  <fix>3d</fix>
</trkpt>
<trkpt lat="-27.2744385" lon="151.2900637">
  <ele>364.28</ele>
  <time>2026-09-01T19:56:26Z</time>
  <course>10.69</course>
  <speed>0.0282842712474619</speed>
  <fix>3d</fix>
</trkpt>
<trkpt lat="-27.2744383" lon="151.2900636">
  <ele>364.18</ele>
  <time>2026-09-01T19:56:26Z</time>
  <course>71.35</course>
  <speed>0.01</speed>
  <fix>3d</fix>
</trkpt>
<trkpt lat="-27.2744385" lon="151.2900637">
  <ele>364.28</ele>
  <time>2026-09-01T19:56:26Z</time>
  <course>10.69</course>
  <speed>0.0282842712474619</speed>
  <fix>3d</fix>
</trkpt>
<trkpt lat="-27.2744383" lon="151.2900637">
  <ele>364.18</ele>
  <time>2026-09-01T19:56:26Z</time>
  <course>75.8</course>
  <speed>0.01</speed>
  <fix>3d</fix>
</trkpt>
<trkpt lat="-27.2744385" lon="151.2900637">
  <ele>364.28</ele>
  <time>2026-09-01T19:56:26Z</time>
  <course>10.69</course>
  <speed>0.0282842712474619</speed>
  <fix>3d</fix>
</trkpt>
<trkpt lat="-27.2744383" lon="151.2900637">
  <ele>364.18</ele>
  <time>2026-09-01T19:56:26Z</time>
  <course>75.8</course>
  <speed>0.01</speed>
  <fix>3d</fix>
</trkpt>
<trkpt lat="-27.2744385" lon="151.2900638">
  <ele>364.28</ele>
  <time>2026-09-01T19:56:26Z</time>
  <course>10.69</course>
  <speed>0.0282842712474619</speed>
  <fix>3d</fix>
</trkpt>
<trkpt lat="-27.2744383" lon="151.2900637">
  <ele>364.18</ele>
  <time>2026-09-01T19:56:26Z</time>
  <course>82.2</course>
  <speed>0.01</speed>
  <fix>3d</fix>
</trkpt>
<trkpt lat="-27.2744385" lon="151.2900638">
  <ele>364.28</ele>
  <time>2026-09-01T19:56:26Z</time>
  <course>10.69</course>
  <speed>0.0282842712474619</speed>
  <fix>3d</fix>
</trkpt>
<trkpt lat="-27.2744383" lon="151.2900637">
  <ele>364.18</ele>
  <time>2026-09-01T19:56:26Z</time>
  <course>82.2</course>
  <speed>0.01</speed>
  <fix>3d</fix>
</trkpt>
<trkpt lat="-27.2744385" lon="151.2900638">
  <ele>364.28</ele>
  <time>2026-09-01T19:56:26Z</time>
  <course>10.69</course>
  <speed>0.0282842712474619</speed>
  <fix>3d</fix>
</trkpt>
<trkpt lat="-27.2744383" lon="151.2900637">
  <ele>364.18</ele>
  <time>2026-09-01T19:56:26Z</time>
  <course>90.66</course>
  <speed>0.01</speed>
  <fix>3d</fix>
</trkpt>
<trkpt lat="-27.2744385" lon="151.2900638">
  <ele>364.28</ele>
  <time>2026-09-01T19:56:26Z</time>
  <course>10.69</course>
  <speed>0.0282842712474619</speed>
  <fix>3d</fix>
</trkpt>
<trkpt lat="-27.2744383" lon="151.2900637">
  <ele>364.18</ele>
  <time>2026-09-01T19:56:26Z</time>
  <course>90.66</course>
  <speed>0.01</speed>
  <fix>3d</fix>
</trkpt>
<trkpt lat="-27.2744385" lon="151.2900638">
  <ele>364.28</ele>
  <time>2026-09-01T19:56:26Z</time>
  <course>10.69</course>
  <speed>0.0282842712474619</speed>
  <fix>3d</fix>
</trkpt>
<trkpt lat="-27.2744383" lon="151.2900637">
  <ele>364.18</ele>
  <time>2026-09-01T19:56:26Z</time>
  <course>99.2</course>
  <speed>0.01</speed>
  <fix>3d</fix>
</trkpt>
<trkpt lat="-27.2744385" lon="151.2900638">
  <ele>364.28</ele>
  <time>2026-09-01T19:56:26Z</time>
  <course>10.68</course>
  <speed>0.0282842712474619</speed>
  <fix>3d</fix>
</trkpt>
<trkpt lat="-27.2744383" lon="151.2900637">
  <ele>364.18</ele>
  <time>2026-09-01T19:56:26Z</time>
  <course>99.2</course>
  <speed>0.01</speed>
  <fix>3d</fix>
</trkpt>
<trkpt lat="-27.2744385" lon="151.2900638">
  <ele>364.28</ele>
  <time>2026-09-01T19:56:26Z</time>
  <course>10.68</course>
  <speed>0.0282842712474619</speed>
  <fix>3d</fix>
</trkpt>
<trkpt lat="-27.2744383" lon="151.2900637">
  <ele>364.18</ele>
  <time>2026-09-01T19:56:26Z</time>
  <course>107.91</course>
  <speed>0.01</speed>
  <fix>3d</fix>
</trkpt>
<trkpt lat="-27.2744385" lon="151.2900638">
  <ele>364.28</ele>
  <time>2026-09-01T19:56:26Z</time>
  <course>10.68</course>
  <speed>0.03605551275463989</speed>
  <fix>3d</fix>
</trkpt>
<trkpt lat="-27.2744383" lon="151.2900637">
  <ele>364.18</ele>
  <time>2026-09-01T19:56:26Z</time>
  <course>107.91</course>
  <speed>0.01</speed>
  <fix>3d</fix>
</trkpt>
<trkpt lat="-27.2744385" lon="151.2900638">
  <ele>364.28</ele>
  <time>2026-09-01T19:56:26Z</time>
  <course>10.68</course>
  <speed>0.03605551275463989</speed>
  <fix>3d</fix>
</trkpt>
<trkpt lat="-27.2744383" lon="151.2900637">
  <ele>364.18</ele>
  <time>2026-09-01T19:56:26Z</time>
  <course>117.91</course>
  <speed>0.01</speed>
  <fix>3d</fix>
</trkpt>
<trkpt lat="-27.2744385" lon="151.2900639">
  <ele>364.28</ele>
  <time>2026-09-01T19:56:26Z</time>
  <course>10.69</course>
  <speed>0.0316227766016838</speed>
  <fix>3d</fix>
</trkpt>
<trkpt lat="-27.2744383" lon="151.2900637">
  <ele>364.18</ele>
  <time>2026-09-01T19:56:26Z</time>
  <course>117.91</course>
  <speed>0.01</speed>
  <fix>3d</fix>
</trkpt>
<trkpt lat="-27.2744385" lon="151.2900638">
  <ele>364.28</ele>
  <time>2026-09-01T19:56:26Z</time>
  <course>10.69</course>
  <speed>0.0316227766016838</speed>
  <fix>3d</fix>
</trkpt>
<trkpt lat="-27.2744383" lon="151.2900637">
  <ele>364.18</ele>
  <time>2026-09-01T19:56:26Z</time>
  <course>127.79</course>
  <speed>0.01</speed>
  <fix>3d</fix>
</trkpt>
<trkpt lat="-27.2744385" lon="151.2900639">
  <ele>364.28</ele>
  <time>2026-09-01T19:56:26Z</time>
  <course>10.7</course>
  <speed>0.0316227766016838</speed>
  <fix>3d</fix>
</trkpt>
<trkpt lat="-27.2744383" lon="151.2900637">
  <ele>364.18</ele>
  <time>2026-09-01T19:56:26Z</time>
  <course>127.79</course>
  <speed>0.01</speed>
  <fix>3d</fix>
</trkpt>
<trkpt lat="-27.2744385" lon="151.2900639">
  <ele>364.28</ele>
  <time>2026-09-01T19:56:26Z</time>
  <course>10.7</course>
  <speed>0.0316227766016838</speed>
  <fix>3d</fix>
</trkpt>
<trkpt lat="-27.2744383" lon="151.2900638">
  <ele>364.18</ele>
  <time>2026-09-01T19:56:26Z</time>
  <course>136.93</course>
  <speed>0.01</speed>
  <fix>3d</fix>
</trkpt>
<trkpt lat="-27.2744385" lon="151.2900639">
  <ele>364.29</ele>
  <time>2026-09-01T19:56:26Z</time>
  <course>10.7</course>
  <speed>0.0316227766016838</speed>
  <fix>3d</fix>
</trkpt>
<trkpt lat="-27.2744383" lon="151.2900638">
  <ele>364.18</ele>
  <time>2026-09-01T19:56:26Z</time>
  <course>136.93</course>
  <speed>0.01</speed>
  <fix>3d</fix>
</trkpt>
<trkpt lat="-27.2744385" lon="151.2900639">
  <ele>364.29</ele>
  <time>2026-09-01T19:56:26Z</time>
  <course>10.7</course>
  <speed>0.0316227766016838</speed>
  <fix>3d</fix>
</trkpt>
<trkpt lat="-27.2744383" lon="151.2900639">
  <ele>364.18</ele>
  <time>2026-09-01T19:56:26Z</time>
  <course>146.6</course>
  <speed>0.01</speed>
  <fix>3d</fix>
</trkpt>
<trkpt lat="-27.2744385" lon="151.2900639">
  <ele>364.29</ele>
  <time>2026-09-01T19:56:26Z</time>
  <course>10.7</course>
  <speed>0.0316227766016838</speed>
  <fix>3d</fix>
</trkpt>
<trkpt lat="-27.2744383" lon="151.2900639">
  <ele>364.18</ele>
  <time>2026-09-01T19:56:26Z</time>
  <course>146.6</course>
  <speed>0.01</speed>
  <fix>3d</fix>
</trkpt>
<trkpt lat="-27.2744385" lon="151.2900639">
  <ele>364.29</ele>
  <time>2026-09-01T19:56:26Z</time>
  <course>10.7</course>
  <speed>0.0316227766016838</speed>
  <fix>3d</fix>
</trkpt>
<trkpt lat="-27.2744383" lon="151.2900639">
  <ele>364.18</ele>
  <time>2026-09-01T19:56:26Z</time>
  <course>157.14</course>
  <speed>0.0</speed>
  <fix>3d</fix>
</trkpt>
<trkpt lat="-27.2744385" lon="151.2900639">
  <ele>364.29</ele>
  <time>2026-09-01T19:56:26Z</time>
  <course>10.7</course>
  <speed>0.0316227766016838</speed>
  <fix>3d</fix>
</trkpt>
<trkpt lat="-27.2744383" lon="151.2900639">
  <ele>364.18</ele>
  <time>2026-09-01T19:56:26Z</time>
  <course>157.14</course>
  <speed>0.0</speed>
  <fix>3d</fix>
</trkpt>
<trkpt lat="-27.2744385" lon="151.2900639">
  <ele>364.29</ele>
  <time>2026-09-01T19:56:26Z</time>
  <course>10.69</course>
  <speed>0.0316227766016838</speed>
  <fix>3d</fix>
</trkpt>
<trkpt lat="-27.2744383" lon="151.2900639">
  <ele>364.18</ele>
  <time>2026-09-01T19:56:26Z</time>
  <course>168.15</course>
  <speed>0.01</speed>
  <fix>3d</fix>
</trkpt>
<trkpt lat="-27.2744385" lon="151.2900639">
  <ele>364.29</ele>
  <time>2026-09-01T19:56:26Z</time>
  <course>10.68</course>
  <speed>0.0316227766016838</speed>
  <fix>3d</fix>
</trkpt>
<trkpt lat="-27.2744383" lon="151.2900639">
  <ele>364.18</ele>
  <time>2026-09-01T19:56:26Z</time>
  <course>168.15</course>
  <speed>0.01</speed>
  <fix>3d</fix>
</trkpt>
<trkpt lat="-27.2744385" lon="151.2900639">
  <ele>364.29</ele>
  <time>2026-09-01T19:56:26Z</time>
  <course>10.67</course>
  <speed>0.0316227766016838</speed>
  <fix>3d</fix>
</trkpt>
<trkpt lat="-27.2744383" lon="151.2900639">
  <ele>364.18</ele>
  <time>2026-09-01T19:56:26Z</time>
  <course>180.37</course>
  <speed>0.01</speed>
  <fix>3d</fix>
</trkpt>
<trkpt lat="-27.2744385" lon="151.2900639">
  <ele>364.29</ele>
  <time>2026-09-01T19:56:26Z</time>
  <course>10.67</course>
  <speed>0.02</speed>
  <fix>3d</fix>
</trkpt>
<trkpt lat="-27.2744383" lon="151.2900639">
  <ele>364.18</ele>
  <time>2026-09-01T19:56:26Z</time>
  <course>180.37</course>
  <speed>0.01</speed>
  <fix>3d</fix>
</trkpt>
<trkpt lat="-27.2744385" lon="151.2900639">
  <ele>364.29</ele>
  <time>2026-09-01T19:56:26Z</time>
  <course>10.67</course>
  <speed>0.02</speed>
  <fix>3d</fix>
</trkpt>
<trkpt lat="-27.2744383" lon="151.2900639">
  <ele>364.18</ele>
  <time>2026-09-01T19:56:26Z</time>
  <course>194.71</course>
  <speed>0.01</speed>
  <fix>3d</fix>
</trkpt>
<trkpt lat="-27.2744385" lon="151.2900639">
  <ele>364.29</ele>
  <time>2026-09-01T19:56:26Z</time>
  <course>10.68</course>
  <speed>0.02</speed>
  <fix>3d</fix>
</trkpt>
<trkpt lat="-27.2744383" lon="151.2900639">
  <ele>364.18</ele>
  <time>2026-09-01T19:56:26Z</time>
  <course>194.71</course>
  <speed>0.01</speed>
  <fix>3d</fix>
</trkpt>
<trkpt lat="-27.2744385" lon="151.2900639">
  <ele>364.29</ele>
  <time>2026-09-01T19:56:26Z</time>
  <course>10.69</course>
  <speed>0.02</speed>
  <fix>3d</fix>
</trkpt>
<trkpt lat="-27.2744383" lon="151.2900639">
  <ele>364.17</ele>
  <time>2026-09-01T19:56:26Z</time>
  <course>208.51</course>
  <speed>0.01</speed>
  <fix>3d</fix>
</trkpt>
<trkpt lat="-27.2744385" lon="151.2900639">
  <ele>364.29</ele>
  <time>2026-09-01T19:56:26Z</time>
  <course>10.71</course>
  <speed>0.02</speed>
  <fix>3d</fix>
</trkpt>
<trkpt lat="-27.2744383" lon="151.2900639">
  <ele>364.17</ele>
  <time>2026-09-01T19:56:26Z</time>
  <course>208.51</course>
  <speed>0.01</speed>
  <fix>3d</fix>
</trkpt>
<trkpt lat="-27.2744385" lon="151.2900639">
  <ele>364.29</ele>
  <time>2026-09-01T19:56:26Z</time>
  <course>10.72</course>
  <speed>0.02</speed>
  <fix>3d</fix>
</trkpt>
<trkpt lat="-27.2744383" lon="151.2900639">
  <ele>364.17</ele>
  <time>2026-09-01T19:56:26Z</time>
  <course>216.59</course>
  <speed>0.01</speed>
  <fix>3d</fix>
</trkpt>
<trkpt lat="-27.2744385" lon="151.2900639">
  <ele>364.29</ele>
  <time>2026-09-01T19:56:26Z</time>
  <course>10.72</course>
  <speed>0.02</speed>
  <fix>3d</fix>
</trkpt>
<trkpt lat="-27.2744383" lon="151.2900639">
  <ele>364.17</ele>
  <time>2026-09-01T19:56:26Z</time>
  <course>216.59</course>
  <speed>0.01</speed>
  <fix>3d</fix>
</trkpt>
<trkpt lat="-27.2744385" lon="151.2900639">
  <ele>364.29</ele>
  <time>2026-09-01T19:56:26Z</time>
  <course>10.72</course>
  <speed>0.02</speed>
  <fix>3d</fix>
</trkpt>
<trkpt lat="-27.2744383" lon="151.2900639">
  <ele>364.17</ele>
  <time>2026-09-01T19:56:26Z</time>
  <course>220.91</course>
  <speed>0.01</speed>
  <fix>3d</fix>
</trkpt>
<trkpt lat="-27.2744385" lon="151.2900639">
  <ele>364.29</ele>
  <time>2026-09-01T19:56:26Z</time>
  <course>10.72</course>
  <speed>0.02</speed>
  <fix>3d</fix>
</trkpt>
<trkpt lat="-27.2744383" lon="151.2900639">
  <ele>364.17</ele>
  <time>2026-09-01T19:56:26Z</time>
  <course>220.91</course>
  <speed>0.01</speed>
  <fix>3d</fix>
</trkpt>
<trkpt lat="-27.2744385" lon="151.2900639">
  <ele>364.29</ele>
  <time>2026-09-01T19:56:26Z</time>
  <course>10.71</course>
  <speed>0.02</speed>
  <fix>3d</fix>
</trkpt>
<trkpt lat="-27.2744384" lon="151.2900639">
  <ele>364.17</ele>
  <time>2026-09-01T19:56:26Z</time>
  <course>224.77</course>
  <speed>0.01</speed>
  <fix>3d</fix>
</trkpt>
<trkpt lat="-27.2744385" lon="151.2900639">
  <ele>364.29</ele>
  <time>2026-09-01T19:56:26Z</time>
  <course>10.7</course>
  <speed>0.02</speed>
  <fix>3d</fix>
</trkpt>
<trkpt lat="-27.2744384" lon="151.2900639">
  <ele>364.17</ele>
  <time>2026-09-01T19:56:26Z</time>
  <course>224.77</course>
  <speed>0.01</speed>
  <fix>3d</fix>
</trkpt>
<trkpt lat="-27.2744385" lon="151.2900639">
  <ele>364.29</ele>
  <time>2026-09-01T19:56:26Z</time>
  <course>10.69</course>
  <speed>0.02</speed>
  <fix>3d</fix>
</trkpt>
<trkpt lat="-27.2744384" lon="151.2900639">
  <ele>364.17</ele>
  <time>2026-09-01T19:56:26Z</time>
  <course>227.67</course>
  <speed>0.01</speed>
  <fix>3d</fix>
</trkpt>
<trkpt lat="-27.2744386" lon="151.2900639">
  <ele>364.28</ele>
  <time>2026-09-01T19:56:26Z</time>
  <course>10.68</course>
  <speed>0.02</speed>
  <fix>3d</fix>
</trkpt>
<trkpt lat="-27.2744384" lon="151.2900639">
  <ele>364.17</ele>
  <time>2026-09-01T19:56:26Z</time>
  <course>227.67</course>
  <speed>0.01</speed>
  <fix>3d</fix>
</trkpt>
<trkpt lat="-27.2744386" lon="151.2900639">
  <ele>364.28</ele>
  <time>2026-09-01T19:56:26Z</time>
  <course>10.68</course>
  <speed>0.02</speed>
  <fix>3d</fix>
</trkpt>
<trkpt lat="-27.2744384" lon="151.2900639">
  <ele>364.16</ele>
  <time>2026-09-01T19:56:26Z</time>
  <course>229.52</course>
  <speed>0.01</speed>
  <fix>3d</fix>
</trkpt>
<trkpt lat="-27.2744386" lon="151.2900639">
  <ele>364.28</ele>
  <time>2026-09-01T19:56:26Z</time>
  <course>10.67</course>
  <speed>0.02</speed>
  <fix>3d</fix>
</trkpt>
<trkpt lat="-27.2744384" lon="151.2900639">
  <ele>364.16</ele>
  <time>2026-09-01T19:56:26Z</time>
  <course>229.52</course>
  <speed>0.01</speed>
  <fix>3d</fix>
</trkpt>
<trkpt lat="-27.2744386" lon="151.2900639">
  <ele>364.28</ele>
  <time>2026-09-01T19:56:26Z</time>
  <course>10.67</course>
  <speed>0.02</speed>
  <fix>3d</fix>
</trkpt>
<trkpt lat="-27.2744384" lon="151.2900638">
  <ele>364.16</ele>
  <time>2026-09-01T19:56:26Z</time>
  <course>231.1</course>
  <speed>0.01</speed>
  <fix>3d</fix>
</trkpt>
<trkpt lat="-27.2744386" lon="151.2900639">
  <ele>364.28</ele>
  <time>2026-09-01T19:56:26Z</time>
  <course>10.66</course>
  <speed>0.02</speed>
  <fix>3d</fix>
</trkpt>
<trkpt lat="-27.2744384" lon="151.2900638">
  <ele>364.16</ele>
  <time>2026-09-01T19:56:26Z</time>
  <course>231.1</course>
  <speed>0.01</speed>
  <fix>3d</fix>
</trkpt>
<trkpt lat="-27.2744386" lon="151.2900639">
  <ele>364.28</ele>
  <time>2026-09-01T19:56:26Z</time>
  <course>10.66</course>
  <speed>0.02</speed>
  <fix>3d</fix>
</trkpt>
<trkpt lat="-27.2744384" lon="151.2900637">
  <ele>364.16</ele>
  <time>2026-09-01T19:56:26Z</time>
  <course>232.56</course>
  <speed>0.01</speed>
  <fix>3d</fix>
</trkpt>
<trkpt lat="-27.2744386" lon="151.2900639">
  <ele>364.28</ele>
  <time>2026-09-01T19:56:26Z</time>
  <course>10.66</course>
  <speed>0.02</speed>
  <fix>3d</fix>
</trkpt>
<trkpt lat="-27.2744384" lon="151.2900637">
  <ele>364.16</ele>
  <time>2026-09-01T19:56:26Z</time>
  <course>232.56</course>
  <speed>0.01</speed>
  <fix>3d</fix>
</trkpt>
<trkpt lat="-27.2744386" lon="151.2900639">
  <ele>364.28</ele>
  <time>2026-09-01T19:56:26Z</time>
  <course>10.65</course>
  <speed>0.02</speed>
  <fix>3d</fix>
</trkpt>
<trkpt lat="-27.2744385" lon="151.2900637">
  <ele>364.16</ele>
  <time>2026-09-01T19:56:26Z</time>
  <course>233.82</course>
  <speed>0.02</speed>
  <fix>3d</fix>
</trkpt>
<trkpt lat="-27.2744386" lon="151.2900639">
  <ele>364.28</ele>
  <time>2026-09-01T19:56:26Z</time>
  <course>10.65</course>
  <speed>0.02</speed>
  <fix>3d</fix>
</trkpt>
<trkpt lat="-27.2744385" lon="151.2900637">
  <ele>364.16</ele>
  <time>2026-09-01T19:56:26Z</time>
  <course>233.82</course>
  <speed>0.02</speed>
  <fix>3d</fix>
</trkpt>
<trkpt lat="-27.2744386" lon="151.2900639">
  <ele>364.27</ele>
  <time>2026-09-01T19:56:26Z</time>
  <course>10.64</course>
  <speed>0.02</speed>
  <fix>3d</fix>
</trkpt>
<trkpt lat="-27.2744385" lon="151.2900637">
  <ele>364.16</ele>
  <time>2026-09-01T19:56:26Z</time>
  <course>234.93</course>
  <speed>0.02</speed>
  <fix>3d</fix>
</trkpt>
<trkpt lat="-27.2744386" lon="151.2900638">
  <ele>364.27</ele>
  <time>2026-09-01T19:56:26Z</time>
  <course>10.64</course>
  <speed>0.02</speed>
  <fix>3d</fix>
</trkpt>
<trkpt lat="-27.2744385" lon="151.2900637">
  <ele>364.16</ele>
  <time>2026-09-01T19:56:26Z</time>
  <course>234.93</course>
  <speed>0.02</speed>
  <fix>3d</fix>
</trkpt>
<trkpt lat="-27.2744386" lon="151.2900638">
  <ele>364.27</ele>
  <time>2026-09-01T19:56:26Z</time>
  <course>10.65</course>
  <speed>0.02</speed>
  <fix>3d</fix>
</trkpt>
<trkpt lat="-27.2744385" lon="151.2900637">
  <ele>364.16</ele>
  <time>2026-09-01T19:56:26Z</time>
  <course>236.01</course>
  <speed>0.01</speed>
  <fix>3d</fix>
</trkpt>
<trkpt lat="-27.2744386" lon="151.2900638">
  <ele>364.27</ele>
  <time>2026-09-01T19:56:26Z</time>
  <course>10.66</course>
  <speed>0.02</speed>
  <fix>3d</fix>
</trkpt>
<trkpt lat="-27.2744385" lon="151.2900637">
  <ele>364.16</ele>
  <time>2026-09-01T19:56:26Z</time>
  <course>236.01</course>
  <speed>0.01</speed>
  <fix>3d</fix>
</trkpt>
<trkpt lat="-27.2744386" lon="151.2900638">
  <ele>364.27</ele>
  <time>2026-09-01T19:56:26Z</time>
  <course>10.68</course>
  <speed>0.02</speed>
  <fix>3d</fix>
</trkpt>
<trkpt lat="-27.2744385" lon="151.2900637">
  <ele>364.16</ele>
  <time>2026-09-01T19:56:26Z</time>
  <course>237.06</course>
  <speed>0.01</speed>
  <fix>3d</fix>
</trkpt>
<trkpt lat="-27.2744387" lon="151.2900638">
  <ele>364.27</ele>
  <time>2026-09-01T19:56:26Z</time>
  <course>10.7</course>
  <speed>0.02</speed>
  <fix>3d</fix>
</trkpt>
<trkpt lat="-27.2744385" lon="151.2900637">
  <ele>364.16</ele>
  <time>2026-09-01T19:56:26Z</time>
  <course>237.06</course>
  <speed>0.01</speed>
  <fix>3d</fix>
</trkpt>
<trkpt lat="-27.2744387" lon="151.2900638">
  <ele>364.27</ele>
  <time>2026-09-01T19:56:26Z</time>
  <course>10.71</course>
  <speed>0.02</speed>
  <fix>3d</fix>
</trkpt>
<trkpt lat="-27.2744386" lon="151.2900636">
  <ele>364.16</ele>
  <time>2026-09-01T19:56:26Z</time>
  <course>238.06</course>
  <speed>0.01</speed>
  <fix>3d</fix>
</trkpt>
<trkpt lat="-27.2744387" lon="151.2900638">
  <ele>364.27</ele>
  <time>2026-09-01T19:56:26Z</time>
  <course>10.72</course>
  <speed>0.02</speed>
  <fix>3d</fix>
</trkpt>
<trkpt lat="-27.2744386" lon="151.2900636">
  <ele>364.16</ele>
  <time>2026-09-01T19:56:26Z</time>
  <course>238.06</course>
  <speed>0.01</speed>
  <fix>3d</fix>
</trkpt>
<trkpt lat="-27.2744387" lon="151.2900638">
  <ele>364.27</ele>
  <time>2026-09-01T19:56:26Z</time>
  <course>10.73</course>
  <speed>0.02</speed>
  <fix>3d</fix>
</trkpt>
<trkpt lat="-27.2744386" lon="151.2900636">
  <ele>364.16</ele>
  <time>2026-09-01T19:56:26Z</time>
  <course>239.37</course>
  <speed>0.01</speed>
  <fix>3d</fix>
</trkpt>
<trkpt lat="-27.2744387" lon="151.2900638">
  <ele>364.27</ele>
  <time>2026-09-01T19:56:26Z</time>
  <course>10.73</course>
  <speed>0.02</speed>
  <fix>3d</fix>
</trkpt>
<trkpt lat="-27.2744386" lon="151.2900636">
  <ele>364.16</ele>
  <time>2026-09-01T19:56:26Z</time>
  <course>239.37</course>
  <speed>0.01</speed>
  <fix>3d</fix>
</trkpt>
<trkpt lat="-27.2744387" lon="151.2900637">
  <ele>364.27</ele>
  <time>2026-09-01T19:56:26Z</time>
  <course>10.72</course>
  <speed>0.02</speed>
  <fix>3d</fix>
</trkpt>
<trkpt lat="-27.2744386" lon="151.2900636">
  <ele>364.16</ele>
  <time>2026-09-01T19:56:26Z</time>
  <course>242.45</course>
  <speed>0.01</speed>
  <fix>3d</fix>
</trkpt>
<trkpt lat="-27.2744387" lon="151.2900637">
  <ele>364.27</ele>
  <time>2026-09-01T19:56:26Z</time>
  <course>10.72</course>
  <speed>0.02</speed>
  <fix>3d</fix>
</trkpt>
<trkpt lat="-27.2744386" lon="151.2900636">
  <ele>364.16</ele>
  <time>2026-09-01T19:56:26Z</time>
  <course>242.45</course>
  <speed>0.01</speed>
  <fix>3d</fix>
</trkpt>
<trkpt lat="-27.2744387" lon="151.2900637">
  <ele>364.28</ele>
  <time>2026-09-01T19:56:26Z</time>
  <course>10.71</course>
  <speed>0.02</speed>
  <fix>3d</fix>
</trkpt>
<trkpt lat="-27.2744386" lon="151.2900636">
  <ele>364.17</ele>
  <time>2026-09-01T19:56:26Z</time>
  <course>248.22</course>
  <speed>0.01</speed>
  <fix>3d</fix>
</trkpt>
<trkpt lat="-27.2744387" lon="151.2900637">
  <ele>364.28</ele>
  <time>2026-09-01T19:56:26Z</time>
  <course>10.7</course>
  <speed>0.02</speed>
  <fix>3d</fix>
</trkpt>
<trkpt lat="-27.2744386" lon="151.2900636">
  <ele>364.17</ele>
  <time>2026-09-01T19:56:26Z</time>
  <course>248.22</course>
  <speed>0.01</speed>
  <fix>3d</fix>
</trkpt>
<trkpt lat="-27.2744387" lon="151.2900637">
  <ele>364.28</ele>
  <time>2026-09-01T19:56:26Z</time>
  <course>10.69</course>
  <speed>0.02</speed>
  <fix>3d</fix>
</trkpt>
<trkpt lat="-27.2744386" lon="151.2900635">
  <ele>364.17</ele>
  <time>2026-09-01T19:56:26Z</time>
  <course>256.03</course>
  <speed>0.01</speed>
  <fix>3d</fix>
</trkpt>
<trkpt lat="-27.2744387" lon="151.2900637">
  <ele>364.28</ele>
  <time>2026-09-01T19:56:26Z</time>
  <course>10.69</course>
  <speed>0.02</speed>
  <fix>3d</fix>
</trkpt>
<trkpt lat="-27.2744386" lon="151.2900635">
  <ele>364.17</ele>
  <time>2026-09-01T19:56:26Z</time>
  <course>256.03</course>
  <speed>0.01</speed>
  <fix>3d</fix>
</trkpt>
<trkpt lat="-27.2744387" lon="151.2900637">
  <ele>364.28</ele>
  <time>2026-09-01T19:56:26Z</time>
  <course>10.68</course>
  <speed>0.01</speed>
  <fix>3d</fix>
</trkpt>
<trkpt lat="-27.2744386" lon="151.2900635">
  <ele>364.17</ele>
  <time>2026-09-01T19:56:26Z</time>
  <course>265.04</course>
  <speed>0.01</speed>
  <fix>3d</fix>
</trkpt>
<trkpt lat="-27.2744387" lon="151.2900637">
  <ele>364.29</ele>
  <time>2026-09-01T19:56:26Z</time>
  <course>10.68</course>
  <speed>0.01</speed>
  <fix>3d</fix>
</trkpt>
<trkpt lat="-27.2744386" lon="151.2900635">
  <ele>364.17</ele>
  <time>2026-09-01T19:56:26Z</time>
  <course>265.04</course>
  <speed>0.01</speed>
  <fix>3d</fix>
</trkpt>
<trkpt lat="-27.2744387" lon="151.2900637">
  <ele>364.29</ele>
  <time>2026-09-01T19:56:26Z</time>
  <course>10.68</course>
  <speed>0.01</speed>
  <fix>3d</fix>
</trkpt>
<trkpt lat="-27.2744386" lon="151.2900635">
  <ele>364.17</ele>
  <time>2026-09-01T19:56:26Z</time>
  <course>274.5</course>
  <speed>0.01</speed>
  <fix>3d</fix>
</trkpt>
<trkpt lat="-27.2744387" lon="151.2900637">
  <ele>364.29</ele>
  <time>2026-09-01T19:56:26Z</time>
  <course>10.68</course>
  <speed>0.01414213562373095</speed>
  <fix>3d</fix>
</trkpt>
<trkpt lat="-27.2744386" lon="151.2900635">
  <ele>364.17</ele>
  <time>2026-09-01T19:56:26Z</time>
  <course>274.5</course>
  <speed>0.01</speed>
  <fix>3d</fix>
</trkpt>
<trkpt lat="-27.2744387" lon="151.2900637">
  <ele>364.29</ele>
  <time>2026-09-01T19:56:26Z</time>
  <course>10.68</course>
  <speed>0.01414213562373095</speed>
  <fix>3d</fix>
</trkpt>
<trkpt lat="-27.2744386" lon="151.2900635">
  <ele>364.17</ele>
  <time>2026-09-01T19:56:26Z</time>
  <course>284.47</course>
  <speed>0.0</speed>
  <fix>3d</fix>
</trkpt>
<trkpt lat="-27.2744387" lon="151.2900637">
  <ele>364.29</ele>
  <time>2026-09-01T19:56:26Z</time>
  <course>10.69</course>
  <speed>0.01414213562373095</speed>
  <fix>3d</fix>
</trkpt>
<trkpt lat="-27.2744386" lon="151.2900635">
  <ele>364.17</ele>
  <time>2026-09-01T19:56:26Z</time>
  <course>284.47</course>
  <speed>0.0</speed>
  <fix>3d</fix>
</trkpt>
<trkpt lat="-27.2744387" lon="151.2900637">
  <ele>364.29</ele>
  <time>2026-09-01T19:56:26Z</time>
  <course>10.69</course>
  <speed>0.01414213562373095</speed>
  <fix>3d</fix>
</trkpt>
<trkpt lat="-27.2744386" lon="151.2900635">
  <ele>364.17</ele>
  <time>2026-09-01T19:56:26Z</time>
  <course>295.44</course>
  <speed>0.0</speed>
  <fix>3d</fix>
</trkpt>
<trkpt lat="-27.2744387" lon="151.2900637">
  <ele>364.29</ele>
  <time>2026-09-01T19:56:26Z</time>
  <course>10.69</course>
  <speed>0.01414213562373095</speed>
  <fix>3d</fix>
</trkpt>
<trkpt lat="-27.2744386" lon="151.2900635">
  <ele>364.17</ele>
  <time>2026-09-01T19:56:26Z</time>
  <course>295.44</course>
  <speed>0.0</speed>
  <fix>3d</fix>
</trkpt>
<trkpt lat="-27.2744387" lon="151.2900636">
  <ele>364.29</ele>
  <time>2026-09-01T19:56:26Z</time>
  <course>10.69</course>
  <speed>0.01414213562373095</speed>
  <fix>3d</fix>
</trkpt>
<trkpt lat="-27.2744386" lon="151.2900634">
  <ele>364.17</ele>
  <time>2026-09-01T19:56:26Z</time>
  <course>305.6</course>
  <speed>0.0</speed>
  <fix>3d</fix>
</trkpt>
<trkpt lat="-27.2744387" lon="151.2900636">
  <ele>364.29</ele>
  <time>2026-09-01T19:56:26Z</time>
  <course>10.69</course>
  <speed>0.01414213562373095</speed>
  <fix>3d</fix>
</trkpt>
<trkpt lat="-27.2744386" lon="151.2900634">
  <ele>364.17</ele>
  <time>2026-09-01T19:56:26Z</time>
  <course>305.6</course>
  <speed>0.0</speed>
  <fix>3d</fix>
</trkpt>
<trkpt lat="-27.2744387" lon="151.2900636">
  <ele>364.29</ele>
  <time>2026-09-01T19:56:26Z</time>
  <course>10.69</course>
  <speed>0.01414213562373095</speed>
  <fix>3d</fix>
</trkpt>
<trkpt lat="-27.2744386" lon="151.2900633">
  <ele>364.17</ele>
  <time>2026-09-01T19:56:26Z</time>
  <course>316.37</course>
  <speed>0.0</speed>
  <fix>3d</fix>
</trkpt>
<trkpt lat="-27.2744387" lon="151.2900636">
  <ele>364.29</ele>
  <time>2026-09-01T19:56:26Z</time>
  <course>10.69</course>
  <speed>0.01414213562373095</speed>
  <fix>3d</fix>
</trkpt>
<trkpt lat="-27.2744386" lon="151.2900633">
  <ele>364.17</ele>
  <time>2026-09-01T19:56:26Z</time>
  <course>316.37</course>
  <speed>0.0</speed>
  <fix>3d</fix>
</trkpt>
<trkpt lat="-27.2744387" lon="151.2900636">
  <ele>364.29</ele>
  <time>2026-09-01T19:56:26Z</time>
  <course>10.69</course>
  <speed>0.01414213562373095</speed>
  <fix>3d</fix>
</trkpt>
<trkpt lat="-27.2744386" lon="151.2900633">
  <ele>364.17</ele>
  <time>2026-09-01T19:56:26Z</time>
  <course>332.28</course>
  <speed>0.0</speed>
  <fix>3d</fix>
</trkpt>
<trkpt lat="-27.2744387" lon="151.2900636">
  <ele>364.29</ele>
  <time>2026-09-01T19:56:26Z</time>
  <course>10.69</course>
  <speed>0.01414213562373095</speed>
  <fix>3d</fix>
</trkpt>
<trkpt lat="-27.2744386" lon="151.2900633">
  <ele>364.17</ele>
  <time>2026-09-01T19:56:26Z</time>
  <course>332.28</course>
  <speed>0.0</speed>
  <fix>3d</fix>
</trkpt>
<trkpt lat="-27.2744387" lon="151.2900636">
  <ele>364.28</ele>
  <time>2026-09-01T19:56:26Z</time>
  <course>10.69</course>
  <speed>0.01414213562373095</speed>
  <fix>3d</fix>
</trkpt>
<trkpt lat="-27.2744386" lon="151.2900633">
  <ele>364.16</ele>
  <time>2026-09-01T19:56:26Z</time>
  <course>346.82</course>
  <speed>0.0</speed>
  <fix>3d</fix>
</trkpt>
<trkpt lat="-27.2744387" lon="151.2900636">
  <ele>364.28</ele>
  <time>2026-09-01T19:56:26Z</time>
  <course>10.69</course>
  <speed>0.01414213562373095</speed>
  <fix>3d</fix>
</trkpt>
<trkpt lat="-27.2744386" lon="151.2900633">
  <ele>364.16</ele>
  <time>2026-09-01T19:56:26Z</time>
  <course>346.82</course>
  <speed>0.0</speed>
  <fix>3d</fix>
</trkpt>
<trkpt lat="-27.2744387" lon="151.2900636">
  <ele>364.28</ele>
  <time>2026-09-01T19:56:26Z</time>
  <course>10.69</course>
  <speed>0.01414213562373095</speed>
  <fix>3d</fix>
</trkpt>
<trkpt lat="-27.2744386" lon="151.2900633">
  <ele>364.16</ele>
  <time>2026-09-01T19:56:26Z</time>
  <course>359.48</course>
  <speed>0.0</speed>
  <fix>3d</fix>
</trkpt>
<trkpt lat="-27.2744387" lon="151.2900636">
  <ele>364.27</ele>
  <time>2026-09-01T19:56:26Z</time>
  <course>10.69</course>
  <speed>0.01414213562373095</speed>
  <fix>3d</fix>
</trkpt>
<trkpt lat="-27.2744386" lon="151.2900633">
  <ele>364.16</ele>
  <time>2026-09-01T19:56:26Z</time>
  <course>359.48</course>
  <speed>0.0</speed>
  <fix>3d</fix>
</trkpt>
<trkpt lat="-27.2744387" lon="151.2900636">
  <ele>364.27</ele>
  <time>2026-09-01T19:56:26Z</time>
  <course>10.69</course>
  <speed>0.01414213562373095</speed>
  <fix>3d</fix>
</trkpt>
<trkpt lat="-27.2744386" lon="151.2900633">
  <ele>364.16</ele>
  <time>2026-09-01T19:56:26Z</time>
  <course>10.88</course>
  <speed>0.01</speed>
  <fix>3d</fix>
</trkpt>
<trkpt lat="-27.2744387" lon="151.2900636">
  <ele>364.27</ele>
  <time>2026-09-01T19:56:26Z</time>
  <course>10.69</course>
  <speed>0.01414213562373095</speed>
  <fix>3d</fix>
</trkpt>
<trkpt lat="-27.2744386" lon="151.2900633">
  <ele>364.16</ele>
  <time>2026-09-01T19:56:26Z</time>
  <course>10.88</course>
  <speed>0.01</speed>
  <fix>3d</fix>
</trkpt>
<trkpt lat="-27.2744387" lon="151.2900636">
  <ele>364.28</ele>
  <time>2026-09-01T19:56:26Z</time>
  <course>10.69</course>
  <speed>0.01414213562373095</speed>
  <fix>3d</fix>
</trkpt>
<trkpt lat="-27.2744386" lon="151.2900633">
  <ele>364.16</ele>
  <time>2026-09-01T19:56:26Z</time>
  <course>20.62</course>
  <speed>0.01</speed>
  <fix>3d</fix>
</trkpt>
<trkpt lat="-27.2744387" lon="151.2900636">
  <ele>364.28</ele>
  <time>2026-09-01T19:56:26Z</time>
  <course>10.69</course>
  <speed>0.022360679774997897</speed>
  <fix>3d</fix>
</trkpt>
<trkpt lat="-27.2744386" lon="151.2900633">
  <ele>364.16</ele>
  <time>2026-09-01T19:56:26Z</time>
  <course>20.62</course>
  <speed>0.01</speed>
  <fix>3d</fix>
</trkpt>
<trkpt lat="-27.2744387" lon="151.2900636">
  <ele>364.28</ele>
  <time>2026-09-01T19:56:26Z</time>
  <course>10.69</course>
  <speed>0.022360679774997897</speed>
  <fix>3d</fix>
</trkpt>
<trkpt lat="-27.2744386" lon="151.2900633">
  <ele>364.16</ele>
  <time>2026-09-01T19:56:26Z</time>
  <course>28.39</course>
  <speed>0.01</speed>
  <fix>3d</fix>
</trkpt>
<trkpt lat="-27.2744387" lon="151.2900636">
  <ele>364.28</ele>
  <time>2026-09-01T19:56:26Z</time>
  <course>10.69</course>
  <speed>0.022360679774997897</speed>
  <fix>3d</fix>
</trkpt>
<trkpt lat="-27.2744386" lon="151.2900633">
  <ele>364.16</ele>
  <time>2026-09-01T19:56:26Z</time>
  <course>28.39</course>
  <speed>0.01</speed>
  <fix>3d</fix>
</trkpt>
<trkpt lat="-27.2744387" lon="151.2900636">
  <ele>364.28</ele>
  <time>2026-09-01T19:56:26Z</time>
  <course>10.69</course>
  <speed>0.022360679774997897</speed>
  <fix>3d</fix>
</trkpt>
<trkpt lat="-27.2744386" lon="151.2900633">
  <ele>364.16</ele>
  <time>2026-09-01T19:56:26Z</time>
  <course>33.56</course>
  <speed>0.01</speed>
  <fix>3d</fix>
</trkpt>
<trkpt lat="-27.2744387" lon="151.2900636">
  <ele>364.28</ele>
  <time>2026-09-01T19:56:26Z</time>
  <course>10.68</course>
  <speed>0.022360679774997897</speed>
  <fix>3d</fix>
</trkpt>
<trkpt lat="-27.2744386" lon="151.2900633">
  <ele>364.16</ele>
  <time>2026-09-01T19:56:26Z</time>
  <course>33.56</course>
  <speed>0.01</speed>
  <fix>3d</fix>
</trkpt>
<trkpt lat="-27.2744387" lon="151.2900636">
  <ele>364.28</ele>
  <time>2026-09-01T19:56:26Z</time>
  <course>10.68</course>
  <speed>0.022360679774997897</speed>
  <fix>3d</fix>
</trkpt>
<trkpt lat="-27.2744385" lon="151.2900633">
  <ele>364.16</ele>
  <time>2026-09-01T19:56:26Z</time>
  <course>37.21</course>
  <speed>0.01</speed>
  <fix>3d</fix>
</trkpt>
<trkpt lat="-27.2744387" lon="151.2900636">
  <ele>364.28</ele>
  <time>2026-09-01T19:56:26Z</time>
  <course>10.68</course>
  <speed>0.022360679774997897</speed>
  <fix>3d</fix>
</trkpt>
<trkpt lat="-27.2744385" lon="151.2900633">
  <ele>364.16</ele>
  <time>2026-09-01T19:56:26Z</time>
  <course>37.21</course>
  <speed>0.01</speed>
  <fix>3d</fix>
</trkpt>
<trkpt lat="-27.2744387" lon="151.2900636">
  <ele>364.28</ele>
  <time>2026-09-01T19:56:26Z</time>
  <course>10.68</course>
  <speed>0.022360679774997897</speed>
  <fix>3d</fix>
</trkpt>
<trkpt lat="-27.2744385" lon="151.2900633">
  <ele>364.16</ele>
  <time>2026-09-01T19:56:26Z</time>
  <course>39.97</course>
  <speed>0.01</speed>
  <fix>3d</fix>
</trkpt>
<trkpt lat="-27.2744387" lon="151.2900636">
  <ele>364.28</ele>
  <time>2026-09-01T19:56:26Z</time>
  <course>10.68</course>
  <speed>0.022360679774997897</speed>
  <fix>3d</fix>
</trkpt>
<trkpt lat="-27.2744385" lon="151.2900633">
  <ele>364.16</ele>
  <time>2026-09-01T19:56:26Z</time>
  <course>39.97</course>
  <speed>0.01</speed>
  <fix>3d</fix>
</trkpt>
<trkpt lat="-27.2744387" lon="151.2900636">
  <ele>364.28</ele>
  <time>2026-09-01T19:56:26Z</time>
  <course>10.68</course>
  <speed>0.022360679774997897</speed>
  <fix>3d</fix>
</trkpt>
<trkpt lat="-27.2744385" lon="151.2900633">
  <ele>364.16</ele>
  <time>2026-09-01T19:56:26Z</time>
  <course>42.32</course>
  <speed>0.01</speed>
  <fix>3d</fix>
</trkpt>
<trkpt lat="-27.2744387" lon="151.2900636">
  <ele>364.28</ele>
  <time>2026-09-01T19:56:26Z</time>
  <course>10.69</course>
  <speed>0.022360679774997897</speed>
  <fix>3d</fix>
</trkpt>
<trkpt lat="-27.2744385" lon="151.2900633">
  <ele>364.16</ele>
  <time>2026-09-01T19:56:26Z</time>
  <course>42.32</course>
  <speed>0.01</speed>
  <fix>3d</fix>
</trkpt>
<trkpt lat="-27.2744387" lon="151.2900636">
  <ele>364.28</ele>
  <time>2026-09-01T19:56:27Z</time>
  <course>10.7</course>
  <speed>0.022360679774997897</speed>
  <fix>3d</fix>
</trkpt>
<trkpt lat="-27.2744384" lon="151.2900634">
  <ele>364.17</ele>
  <time>2026-09-01T19:56:27Z</time>
  <course>45.51</course>
  <speed>0.02</speed>
  <fix>3d</fix>
</trkpt>
<trkpt lat="-27.2744387" lon="151.2900636">
  <ele>364.28</ele>
  <time>2026-09-01T19:56:27Z</time>
  <course>10.71</course>
  <speed>0.022360679774997897</speed>
  <fix>3d</fix>
</trkpt>
<trkpt lat="-27.2744384" lon="151.2900634">
  <ele>364.17</ele>
  <time>2026-09-01T19:56:27Z</time>
  <course>45.51</course>
  <speed>0.02</speed>
  <fix>3d</fix>
</trkpt>
<trkpt lat="-27.2744387" lon="151.2900636">
  <ele>364.28</ele>
  <time>2026-09-01T19:56:27Z</time>
  <course>10.72</course>
  <speed>0.022360679774997897</speed>
  <fix>3d</fix>
</trkpt>
<trkpt lat="-27.2744384" lon="151.2900635">
  <ele>364.17</ele>
  <time>2026-09-01T19:56:27Z</time>
  <course>49.07</course>
  <speed>0.02</speed>
  <fix>3d</fix>
</trkpt>
<trkpt lat="-27.2744386" lon="151.2900636">
  <ele>364.28</ele>
  <time>2026-09-01T19:56:27Z</time>
  <course>10.72</course>
  <speed>0.022360679774997897</speed>
  <fix>3d</fix>
</trkpt>
<trkpt lat="-27.2744384" lon="151.2900635">
  <ele>364.17</ele>
  <time>2026-09-01T19:56:27Z</time>
  <course>49.07</course>
  <speed>0.02</speed>
  <fix>3d</fix>
</trkpt>
<trkpt lat="-27.2744386" lon="151.2900636">
  <ele>364.28</ele>
  <time>2026-09-01T19:56:27Z</time>
  <course>10.72</course>
  <speed>0.022360679774997897</speed>
  <fix>3d</fix>
</trkpt>
<trkpt lat="-27.2744384" lon="151.2900635">
  <ele>364.17</ele>
  <time>2026-09-01T19:56:27Z</time>
  <course>51.62</course>
  <speed>0.02</speed>
  <fix>3d</fix>
</trkpt>
<trkpt lat="-27.2744386" lon="151.2900636">
  <ele>364.28</ele>
  <time>2026-09-01T19:56:27Z</time>
  <course>10.71</course>
  <speed>0.022360679774997897</speed>
  <fix>3d</fix>
</trkpt>
<trkpt lat="-27.2744384" lon="151.2900635">
  <ele>364.17</ele>
  <time>2026-09-01T19:56:27Z</time>
  <course>51.62</course>
  <speed>0.02</speed>
  <fix>3d</fix>
</trkpt>
<trkpt lat="-27.2744386" lon="151.2900636">
  <ele>364.28</ele>
  <time>2026-09-01T19:56:27Z</time>
  <course>10.7</course>
  <speed>0.022360679774997897</speed>
  <fix>3d</fix>
</trkpt>
<trkpt lat="-27.2744384" lon="151.2900635">
  <ele>364.16</ele>
  <time>2026-09-01T19:56:27Z</time>
  <course>53.69</course>
  <speed>0.02</speed>
  <fix>3d</fix>
</trkpt>
<trkpt lat="-27.2744386" lon="151.2900636">
  <ele>364.28</ele>
  <time>2026-09-01T19:56:27Z</time>
  <course>10.69</course>
  <speed>0.022360679774997897</speed>
  <fix>3d</fix>
</trkpt>
<trkpt lat="-27.2744384" lon="151.2900635">
  <ele>364.16</ele>
  <time>2026-09-01T19:56:27Z</time>
  <course>53.69</course>
  <speed>0.02</speed>
  <fix>3d</fix>
</trkpt>
<trkpt lat="-27.2744386" lon="151.2900636">
  <ele>364.28</ele>
  <time>2026-09-01T19:56:27Z</time>
  <course>10.68</course>
  <speed>0.022360679774997897</speed>
  <fix>3d</fix>
</trkpt>
<trkpt lat="-27.2744384" lon="151.2900636">
  <ele>364.16</ele>
  <time>2026-09-01T19:56:27Z</time>
  <course>56.37</course>
  <speed>0.02</speed>
  <fix>3d</fix>
</trkpt>
<trkpt lat="-27.2744386" lon="151.2900637">
  <ele>364.28</ele>
  <time>2026-09-01T19:56:27Z</time>
  <course>10.68</course>
  <speed>0.022360679774997897</speed>
  <fix>3d</fix>
</trkpt>
<trkpt lat="-27.2744384" lon="151.2900636">
  <ele>364.16</ele>
  <time>2026-09-01T19:56:27Z</time>
  <course>56.37</course>
  <speed>0.02</speed>
  <fix>3d</fix>
</trkpt>
<trkpt lat="-27.2744386" lon="151.2900637">
  <ele>364.28</ele>
  <time>2026-09-01T19:56:27Z</time>
  <course>10.67</course>
  <speed>0.022360679774997897</speed>
  <fix>3d</fix>
</trkpt>
<trkpt lat="-27.2744383" lon="151.2900636">
  <ele>364.16</ele>
  <time>2026-09-01T19:56:27Z</time>
  <course>59.59</course>
  <speed>0.02</speed>
  <fix>3d</fix>
</trkpt>
<trkpt lat="-27.2744386" lon="151.2900637">
  <ele>364.28</ele>
  <time>2026-09-01T19:56:27Z</time>
  <course>10.68</course>
  <speed>0.022360679774997897</speed>
  <fix>3d</fix>
</trkpt>
<trkpt lat="-27.2744383" lon="151.2900636">
  <ele>364.16</ele>
  <time>2026-09-01T19:56:27Z</time>
  <course>59.59</course>
  <speed>0.02</speed>
  <fix>3d</fix>
</trkpt>
<trkpt lat="-27.2744386" lon="151.2900637">
  <ele>364.28</ele>
  <time>2026-09-01T19:56:27Z</time>
  <course>10.68</course>
  <speed>0.022360679774997897</speed>
  <fix>3d</fix>
</trkpt>
<trkpt lat="-27.2744383" lon="151.2900636">
  <ele>364.16</ele>
  <time>2026-09-01T19:56:27Z</time>
  <course>63.19</course>
  <speed>0.01</speed>
  <fix>3d</fix>
</trkpt>
<trkpt lat="-27.2744386" lon="151.2900637">
  <ele>364.28</ele>
  <time>2026-09-01T19:56:27Z</time>
  <course>10.68</course>
  <speed>0.0282842712474619</speed>
  <fix>3d</fix>
</trkpt>
<trkpt lat="-27.2744383" lon="151.2900636">
  <ele>364.16</ele>
  <time>2026-09-01T19:56:27Z</time>
  <course>63.19</course>
  <speed>0.01</speed>
  <fix>3d</fix>
</trkpt>
<trkpt lat="-27.2744386" lon="151.2900637">
  <ele>364.28</ele>
  <time>2026-09-01T19:56:27Z</time>
  <course>10.69</course>
  <speed>0.0282842712474619</speed>
  <fix>3d</fix>
</trkpt>
<trkpt lat="-27.2744383" lon="151.2900637">
  <ele>364.16</ele>
  <time>2026-09-01T19:56:27Z</time>
  <course>67.0</course>
  <speed>0.01</speed>
  <fix>3d</fix>
</trkpt>
<trkpt lat="-27.2744386" lon="151.2900638">
  <ele>364.28</ele>
  <time>2026-09-01T19:56:27Z</time>
  <course>10.7</course>
  <speed>0.0282842712474619</speed>
  <fix>3d</fix>
</trkpt>
<trkpt lat="-27.2744383" lon="151.2900637">
  <ele>364.16</ele>
  <time>2026-09-01T19:56:27Z</time>
  <course>67.0</course>
  <speed>0.01</speed>
  <fix>3d</fix>
</trkpt>
<trkpt lat="-27.2744386" lon="151.2900638">
  <ele>364.28</ele>
  <time>2026-09-01T19:56:27Z</time>
  <course>10.71</course>
  <speed>0.0282842712474619</speed>
  <fix>3d</fix>
</trkpt>
<trkpt lat="-27.2744383" lon="151.2900637">
  <ele>364.16</ele>
  <time>2026-09-01T19:56:27Z</time>
  <course>71.01</course>
  <speed>0.01</speed>
  <fix>3d</fix>
</trkpt>
<trkpt lat="-27.2744385" lon="151.2900638">
  <ele>364.28</ele>
  <time>2026-09-01T19:56:27Z</time>
  <course>10.71</course>
  <speed>0.0282842712474619</speed>
  <fix>3d</fix>
</trkpt>
<trkpt lat="-27.2744383" lon="151.2900637">
  <ele>364.16</ele>
  <time>2026-09-01T19:56:27Z</time>
  <course>71.01</course>
  <speed>0.01</speed>
  <fix>3d</fix>
</trkpt>
<trkpt lat="-27.2744385" lon="151.2900638">
  <ele>364.28</ele>
  <time>2026-09-01T19:56:27Z</time>
  <course>10.72</course>
  <speed>0.0282842712474619</speed>
  <fix>3d</fix>
</trkpt>
<trkpt lat="-27.2744383" lon="151.2900637">
  <ele>364.16</ele>
  <time>2026-09-01T19:56:27Z</time>
  <course>76.11</course>
  <speed>0.01</speed>
  <fix>3d</fix>
</trkpt>
<trkpt lat="-27.2744385" lon="151.2900638">
  <ele>364.28</ele>
  <time>2026-09-01T19:56:27Z</time>
  <course>10.72</course>
  <speed>0.0282842712474619</speed>
  <fix>3d</fix>
</trkpt>
<trkpt lat="-27.2744383" lon="151.2900637">
  <ele>364.16</ele>
  <time>2026-09-01T19:56:27Z</time>
  <course>76.11</course>
  <speed>0.01</speed>
  <fix>3d</fix>
</trkpt>
<trkpt lat="-27.2744385" lon="151.2900638">
  <ele>364.28</ele>
  <time>2026-09-01T19:56:27Z</time>
  <course>10.71</course>
  <speed>0.0282842712474619</speed>
  <fix>3d</fix>
</trkpt>
<trkpt lat="-27.2744383" lon="151.2900637">
  <ele>364.16</ele>
  <time>2026-09-01T19:56:27Z</time>
  <course>82.89</course>
  <speed>0.01</speed>
  <fix>3d</fix>
</trkpt>
<trkpt lat="-27.2744385" lon="151.2900638">
  <ele>364.28</ele>
  <time>2026-09-01T19:56:27Z</time>
  <course>10.7</course>
  <speed>0.0282842712474619</speed>
  <fix>3d</fix>
</trkpt>
<trkpt lat="-27.2744383" lon="151.2900637">
  <ele>364.16</ele>
  <time>2026-09-01T19:56:27Z</time>
  <course>82.89</course>
  <speed>0.01</speed>
  <fix>3d</fix>
</trkpt>
<trkpt lat="-27.2744385" lon="151.2900638">
  <ele>364.28</ele>
  <time>2026-09-01T19:56:27Z</time>
  <course>10.69</course>
  <speed>0.022360679774997897</speed>
  <fix>3d</fix>
</trkpt>
<trkpt lat="-27.2744383" lon="151.2900637">
  <ele>364.16</ele>
  <time>2026-09-01T19:56:27Z</time>
  <course>90.99</course>
  <speed>0.01</speed>
  <fix>3d</fix>
</trkpt>
<trkpt lat="-27.2744385" lon="151.2900638">
  <ele>364.28</ele>
  <time>2026-09-01T19:56:27Z</time>
  <course>10.69</course>
  <speed>0.022360679774997897</speed>
  <fix>3d</fix>
</trkpt>
<trkpt lat="-27.2744383" lon="151.2900637">
  <ele>364.16</ele>
  <time>2026-09-01T19:56:27Z</time>
  <course>90.99</course>
  <speed>0.01</speed>
  <fix>3d</fix>
</trkpt>
<trkpt lat="-27.2744385" lon="151.2900638">
  <ele>364.28</ele>
  <time>2026-09-01T19:56:27Z</time>
  <course>10.68</course>
  <speed>0.022360679774997897</speed>
  <fix>3d</fix>
</trkpt>
<trkpt lat="-27.2744383" lon="151.2900637">
  <ele>364.16</ele>
  <time>2026-09-01T19:56:27Z</time>
  <course>101.14</course>
  <speed>0.0</speed>
  <fix>3d</fix>
</trkpt>
<trkpt lat="-27.2744385" lon="151.2900638">
  <ele>364.28</ele>
  <time>2026-09-01T19:56:27Z</time>
  <course>10.69</course>
  <speed>0.022360679774997897</speed>
  <fix>3d</fix>
</trkpt>
<trkpt lat="-27.2744383" lon="151.2900637">
  <ele>364.16</ele>
  <time>2026-09-01T19:56:27Z</time>
  <course>101.14</course>
  <speed>0.0</speed>
  <fix>3d</fix>
</trkpt>
<trkpt lat="-27.2744385" lon="151.2900638">
  <ele>364.28</ele>
  <time>2026-09-01T19:56:27Z</time>
  <course>10.69</course>
  <speed>0.022360679774997897</speed>
  <fix>3d</fix>
</trkpt>
<trkpt lat="-27.2744383" lon="151.2900638">
  <ele>364.16</ele>
  <time>2026-09-01T19:56:27Z</time>
  <course>115.1</course>
  <speed>0.0</speed>
  <fix>3d</fix>
</trkpt>
<trkpt lat="-27.2744385" lon="151.2900638">
  <ele>364.28</ele>
  <time>2026-09-01T19:56:27Z</time>
  <course>10.7</course>
  <speed>0.0316227766016838</speed>
  <fix>3d</fix>
</trkpt>
<trkpt lat="-27.2744383" lon="151.2900638">
  <ele>364.16</ele>
  <time>2026-09-01T19:56:27Z</time>
  <course>115.1</course>
  <speed>0.0</speed>
  <fix>3d</fix>
</trkpt>
<trkpt lat="-27.2744385" lon="151.2900639">
  <ele>364.28</ele>
  <time>2026-09-01T19:56:27Z</time>
  <course>10.71</course>
  <speed>0.0316227766016838</speed>
  <fix>3d</fix>
</trkpt>
<trkpt lat="-27.2744383" lon="151.2900639">
  <ele>364.17</ele>
  <time>2026-09-01T19:56:27Z</time>
  <course>129.98</course>
  <speed>0.0</speed>
  <fix>3d</fix>
</trkpt>
<trkpt lat="-27.2744385" lon="151.2900639">
  <ele>364.28</ele>
  <time>2026-09-01T19:56:27Z</time>
  <course>10.7</course>
  <speed>0.0316227766016838</speed>
  <fix>3d</fix>
</trkpt>
<trkpt lat="-27.2744383" lon="151.2900639">
  <ele>364.17</ele>
  <time>2026-09-01T19:56:27Z</time>
  <course>129.98</course>
  <speed>0.0</speed>
  <fix>3d</fix>
</trkpt>
<trkpt lat="-27.2744385" lon="151.2900639">
  <ele>364.28</ele>
  <time>2026-09-01T19:56:27Z</time>
  <course>10.7</course>
  <speed>0.0316227766016838</speed>
  <fix>3d</fix>
</trkpt>
<trkpt lat="-27.2744383" lon="151.2900639">
  <ele>364.17</ele>
  <time>2026-09-01T19:56:27Z</time>
  <course>143.64</course>
  <speed>0.0</speed>
  <fix>3d</fix>
</trkpt>
<trkpt lat="-27.2744385" lon="151.2900639">
  <ele>364.28</ele>
  <time>2026-09-01T19:56:27Z</time>
  <course>10.69</course>
  <speed>0.0316227766016838</speed>
  <fix>3d</fix>
</trkpt>
<trkpt lat="-27.2744383" lon="151.2900639">
  <ele>364.17</ele>
  <time>2026-09-01T19:56:27Z</time>
  <course>143.64</course>
  <speed>0.0</speed>
  <fix>3d</fix>
</trkpt>
<trkpt lat="-27.2744385" lon="151.2900639">
  <ele>364.28</ele>
  <time>2026-09-01T19:56:27Z</time>
  <course>10.68</course>
  <speed>0.0316227766016838</speed>
  <fix>3d</fix>
</trkpt>
<trkpt lat="-27.2744383" lon="151.2900639">
  <ele>364.17</ele>
  <time>2026-09-01T19:56:27Z</time>
  <course>158.56</course>
  <speed>0.0</speed>
  <fix>3d</fix>
</trkpt>
<trkpt lat="-27.2744385" lon="151.2900639">
  <ele>364.28</ele>
  <time>2026-09-01T19:56:27Z</time>
  <course>10.68</course>
  <speed>0.0316227766016838</speed>
  <fix>3d</fix>
</trkpt>
<trkpt lat="-27.2744383" lon="151.2900639">
  <ele>364.17</ele>
  <time>2026-09-01T19:56:27Z</time>
  <course>158.56</course>
  <speed>0.0</speed>
  <fix>3d</fix>
</trkpt>
<trkpt lat="-27.2744385" lon="151.2900639">
  <ele>364.28</ele>
  <time>2026-09-01T19:56:27Z</time>
  <course>10.68</course>
  <speed>0.022360679774997897</speed>
  <fix>3d</fix>
</trkpt>
<trkpt lat="-27.2744383" lon="151.2900639">
  <ele>364.17</ele>
  <time>2026-09-01T19:56:27Z</time>
  <course>175.89</course>
  <speed>0.0</speed>
  <fix>3d</fix>
</trkpt>
<trkpt lat="-27.2744385" lon="151.2900639">
  <ele>364.28</ele>
  <time>2026-09-01T19:56:27Z</time>
  <course>10.68</course>
  <speed>0.0316227766016838</speed>
  <fix>3d</fix>
</trkpt>
<trkpt lat="-27.2744383" lon="151.2900639">
  <ele>364.17</ele>
  <time>2026-09-01T19:56:27Z</time>
  <course>175.89</course>
  <speed>0.0</speed>
  <fix>3d</fix>
</trkpt>
<trkpt lat="-27.2744385" lon="151.2900639">
  <ele>364.28</ele>
  <time>2026-09-01T19:56:27Z</time>
  <course>10.69</course>
  <speed>0.03</speed>
  <fix>3d</fix>
</trkpt>
<trkpt lat="-27.2744383" lon="151.2900639">
  <ele>364.17</ele>
  <time>2026-09-01T19:56:27Z</time>
  <course>193.53</course>
  <speed>0.0</speed>
  <fix>3d</fix>
</trkpt>
<trkpt lat="-27.2744385" lon="151.2900639">
  <ele>364.28</ele>
  <time>2026-09-01T19:56:27Z</time>
  <course>10.7</course>
  <speed>0.03</speed>
  <fix>3d</fix>
</trkpt>
<trkpt lat="-27.2744383" lon="151.2900639">
  <ele>364.17</ele>
  <time>2026-09-01T19:56:27Z</time>
  <course>193.53</course>
  <speed>0.0</speed>
  <fix>3d</fix>
</trkpt>
<trkpt lat="-27.2744385" lon="151.2900639">
  <ele>364.28</ele>
  <time>2026-09-01T19:56:27Z</time>
  <course>10.71</course>
  <speed>0.03</speed>
  <fix>3d</fix>
</trkpt>
<trkpt lat="-27.2744383" lon="151.2900639">
  <ele>364.17</ele>
  <time>2026-09-01T19:56:27Z</time>
  <course>206.37</course>
  <speed>0.0</speed>
  <fix>3d</fix>
</trkpt>
<trkpt lat="-27.2744385" lon="151.2900639">
  <ele>364.28</ele>
  <time>2026-09-01T19:56:27Z</time>
  <course>10.71</course>
  <speed>0.03</speed>
  <fix>3d</fix>
</trkpt>
<trkpt lat="-27.2744383" lon="151.2900639">
  <ele>364.17</ele>
  <time>2026-09-01T19:56:27Z</time>
  <course>206.37</course>
  <speed>0.0</speed>
  <fix>3d</fix>
</trkpt>
<trkpt lat="-27.2744385" lon="151.2900639">
  <ele>364.29</ele>
  <time>2026-09-01T19:56:27Z</time>
  <course>10.72</course>
  <speed>0.03</speed>
  <fix>3d</fix>
</trkpt>
<trkpt lat="-27.2744383" lon="151.2900639">
  <ele>364.17</ele>
  <time>2026-09-01T19:56:27Z</time>
  <course>214.11</course>
  <speed>0.0</speed>
  <fix>3d</fix>
</trkpt>
<trkpt lat="-27.2744385" lon="151.2900639">
  <ele>364.29</ele>
  <time>2026-09-01T19:56:27Z</time>
  <course>10.73</course>
  <speed>0.03</speed>
  <fix>3d</fix>
</trkpt>
<trkpt lat="-27.2744383" lon="151.2900639">
  <ele>364.17</ele>
  <time>2026-09-01T19:56:27Z</time>
  <course>214.11</course>
  <speed>0.0</speed>
  <fix>3d</fix>
</trkpt>
<trkpt lat="-27.2744385" lon="151.2900639">
  <ele>364.29</ele>
  <time>2026-09-01T19:56:27Z</time>
  <course>10.73</course>
  <speed>0.02</speed>
  <fix>3d</fix>
</trkpt>
<trkpt lat="-27.2744383" lon="151.2900639">
  <ele>364.17</ele>
  <time>2026-09-01T19:56:27Z</time>
  <course>221.25</course>
  <speed>0.01</speed>
  <fix>3d</fix>
</trkpt>
<trkpt lat="-27.2744385" lon="151.2900639">
  <ele>364.29</ele>
  <time>2026-09-01T19:56:27Z</time>
  <course>10.73</course>
  <speed>0.02</speed>
  <fix>3d</fix>
</trkpt>
<trkpt lat="-27.2744383" lon="151.2900639">
  <ele>364.17</ele>
  <time>2026-09-01T19:56:27Z</time>
  <course>221.25</course>
  <speed>0.01</speed>
  <fix>3d</fix>
</trkpt>
<trkpt lat="-27.2744385" lon="151.2900639">
  <ele>364.29</ele>
  <time>2026-09-01T19:56:27Z</time>
  <course>10.72</course>
  <speed>0.02</speed>
  <fix>3d</fix>
</trkpt>
<trkpt lat="-27.2744383" lon="151.2900639">
  <ele>364.17</ele>
  <time>2026-09-01T19:56:27Z</time>
  <course>229.57</course>
  <speed>0.01</speed>
  <fix>3d</fix>
</trkpt>
<trkpt lat="-27.2744385" lon="151.2900639">
  <ele>364.29</ele>
  <time>2026-09-01T19:56:27Z</time>
  <course>10.71</course>
  <speed>0.02</speed>
  <fix>3d</fix>
</trkpt>
<trkpt lat="-27.2744383" lon="151.2900639">
  <ele>364.17</ele>
  <time>2026-09-01T19:56:27Z</time>
  <course>229.57</course>
  <speed>0.01</speed>
  <fix>3d</fix>
</trkpt>
<trkpt lat="-27.2744385" lon="151.2900639">
  <ele>364.29</ele>
  <time>2026-09-01T19:56:27Z</time>
  <course>10.69</course>
  <speed>0.02</speed>
  <fix>3d</fix>
</trkpt>
<trkpt lat="-27.2744383" lon="151.2900639">
  <ele>364.17</ele>
  <time>2026-09-01T19:56:27Z</time>
  <course>237.88</course>
  <speed>0.01</speed>
  <fix>3d</fix>
</trkpt>
<trkpt lat="-27.2744385" lon="151.2900639">
  <ele>364.29</ele>
  <time>2026-09-01T19:56:27Z</time>
  <course>10.68</course>
  <speed>0.02</speed>
  <fix>3d</fix>
</trkpt>
<trkpt lat="-27.2744383" lon="151.2900639">
  <ele>364.17</ele>
  <time>2026-09-01T19:56:27Z</time>
  <course>237.88</course>
  <speed>0.01</speed>
  <fix>3d</fix>
</trkpt>
<trkpt lat="-27.2744385" lon="151.2900639">
  <ele>364.29</ele>
  <time>2026-09-01T19:56:27Z</time>
  <course>10.67</course>
  <speed>0.02</speed>
  <fix>3d</fix>
</trkpt>
<trkpt lat="-27.2744383" lon="151.2900639">
  <ele>364.17</ele>
  <time>2026-09-01T19:56:27Z</time>
  <course>243.58</course>
  <speed>0.01</speed>
  <fix>3d</fix>
</trkpt>
<trkpt lat="-27.2744385" lon="151.2900639">
  <ele>364.29</ele>
  <time>2026-09-01T19:56:27Z</time>
  <course>10.66</course>
  <speed>0.02</speed>
  <fix>3d</fix>
</trkpt>
<trkpt lat="-27.2744383" lon="151.2900639">
  <ele>364.17</ele>
  <time>2026-09-01T19:56:27Z</time>
  <course>243.58</course>
  <speed>0.01</speed>
  <fix>3d</fix>
</trkpt>
<trkpt lat="-27.2744385" lon="151.2900639">
  <ele>364.29</ele>
  <time>2026-09-01T19:56:27Z</time>
  <course>10.66</course>
  <speed>0.02</speed>
  <fix>3d</fix>
</trkpt>
<trkpt lat="-27.2744383" lon="151.2900638">
  <ele>364.17</ele>
  <time>2026-09-01T19:56:27Z</time>
  <course>244.28</course>
  <speed>0.01</speed>
  <fix>3d</fix>
</trkpt>
<trkpt lat="-27.2744385" lon="151.2900639">
  <ele>364.29</ele>
  <time>2026-09-01T19:56:27Z</time>
  <course>10.67</course>
  <speed>0.02</speed>
  <fix>3d</fix>
</trkpt>
<trkpt lat="-27.2744383" lon="151.2900638">
  <ele>364.17</ele>
  <time>2026-09-01T19:56:27Z</time>
  <course>244.28</course>
  <speed>0.01</speed>
  <fix>3d</fix>
</trkpt>
<trkpt lat="-27.2744385" lon="151.2900639">
  <ele>364.29</ele>
  <time>2026-09-01T19:56:27Z</time>
  <course>10.69</course>
  <speed>0.02</speed>
  <fix>3d</fix>
</trkpt>
<trkpt lat="-27.2744383" lon="151.2900637">
  <ele>364.16</ele>
  <time>2026-09-01T19:56:27Z</time>
  <course>241.75</course>
  <speed>0.01</speed>
  <fix>3d</fix>
</trkpt>
<trkpt lat="-27.2744385" lon="151.2900639">
  <ele>364.28</ele>
  <time>2026-09-01T19:56:27Z</time>
  <course>10.71</course>
  <speed>0.02</speed>
  <fix>3d</fix>
</trkpt>
<trkpt lat="-27.2744383" lon="151.2900637">
  <ele>364.16</ele>
  <time>2026-09-01T19:56:27Z</time>
  <course>241.75</course>
  <speed>0.01</speed>
  <fix>3d</fix>
</trkpt>
<trkpt lat="-27.2744385" lon="151.2900639">
  <ele>364.28</ele>
  <time>2026-09-01T19:56:27Z</time>
  <course>10.72</course>
  <speed>0.02</speed>
  <fix>3d</fix>
</trkpt>
<trkpt lat="-27.2744384" lon="151.2900637">
  <ele>364.16</ele>
  <time>2026-09-01T19:56:27Z</time>
  <course>240.05</course>
  <speed>0.01</speed>
  <fix>3d</fix>
</trkpt>
<trkpt lat="-27.2744385" lon="151.2900639">
  <ele>364.28</ele>
  <time>2026-09-01T19:56:27Z</time>
  <course>10.72</course>
  <speed>0.02</speed>
  <fix>3d</fix>
</trkpt>
<trkpt lat="-27.2744384" lon="151.2900637">
  <ele>364.16</ele>
  <time>2026-09-01T19:56:27Z</time>
  <course>240.05</course>
  <speed>0.01</speed>
  <fix>3d</fix>
</trkpt>
<trkpt lat="-27.2744385" lon="151.2900639">
  <ele>364.28</ele>
  <time>2026-09-01T19:56:27Z</time>
  <course>10.72</course>
  <speed>0.02</speed>
  <fix>3d</fix>
</trkpt>
<trkpt lat="-27.2744384" lon="151.2900637">
  <ele>364.16</ele>
  <time>2026-09-01T19:56:27Z</time>
  <course>239.72</course>
  <speed>0.01</speed>
  <fix>3d</fix>
</trkpt>
<trkpt lat="-27.2744385" lon="151.2900638">
  <ele>364.28</ele>
  <time>2026-09-01T19:56:27Z</time>
  <course>10.72</course>
  <speed>0.02</speed>
  <fix>3d</fix>
</trkpt>
<trkpt lat="-27.2744384" lon="151.2900637">
  <ele>364.16</ele>
  <time>2026-09-01T19:56:27Z</time>
  <course>239.72</course>
  <speed>0.01</speed>
  <fix>3d</fix>
</trkpt>
<trkpt lat="-27.2744385" lon="151.2900638">
  <ele>364.27</ele>
  <time>2026-09-01T19:56:27Z</time>
  <course>10.71</course>
  <speed>0.02</speed>
  <fix>3d</fix>
</trkpt>
<trkpt lat="-27.2744384" lon="151.2900637">
  <ele>364.16</ele>
  <time>2026-09-01T19:56:27Z</time>
  <course>238.85</course>
  <speed>0.01</speed>
  <fix>3d</fix>
</trkpt>
<trkpt lat="-27.2744386" lon="151.2900638">
  <ele>364.27</ele>
  <time>2026-09-01T19:56:27Z</time>
  <course>10.71</course>
  <speed>0.02</speed>
  <fix>3d</fix>
</trkpt>
<trkpt lat="-27.2744384" lon="151.2900637">
  <ele>364.16</ele>
  <time>2026-09-01T19:56:27Z</time>
  <course>238.85</course>
  <speed>0.01</speed>
  <fix>3d</fix>
</trkpt>
<trkpt lat="-27.2744386" lon="151.2900638">
  <ele>364.27</ele>
  <time>2026-09-01T19:56:27Z</time>
  <course>10.7</course>
  <speed>0.02</speed>
  <fix>3d</fix>
</trkpt>
<trkpt lat="-27.2744384" lon="151.2900637">
  <ele>364.16</ele>
  <time>2026-09-01T19:56:27Z</time>
  <course>237.27</course>
  <speed>0.01</speed>
  <fix>3d</fix>
</trkpt>
<trkpt lat="-27.2744386" lon="151.2900638">
  <ele>364.27</ele>
  <time>2026-09-01T19:56:27Z</time>
  <course>10.7</course>
  <speed>0.02</speed>
  <fix>3d</fix>
</trkpt>
<trkpt lat="-27.2744384" lon="151.2900637">
  <ele>364.16</ele>
  <time>2026-09-01T19:56:27Z</time>
  <course>237.27</course>
  <speed>0.01</speed>
  <fix>3d</fix>
</trkpt>
<trkpt lat="-27.2744386" lon="151.2900638">
  <ele>364.27</ele>
  <time>2026-09-01T19:56:27Z</time>
  <course>10.7</course>
  <speed>0.02</speed>
  <fix>3d</fix>
</trkpt>
<trkpt lat="-27.2744384" lon="151.2900637">
  <ele>364.16</ele>
  <time>2026-09-01T19:56:27Z</time>
  <course>236.67</course>
  <speed>0.01</speed>
  <fix>3d</fix>
</trkpt>
<trkpt lat="-27.2744386" lon="151.2900638">
  <ele>364.27</ele>
  <time>2026-09-01T19:56:27Z</time>
  <course>10.69</course>
  <speed>0.02</speed>
  <fix>3d</fix>
</trkpt>
<trkpt lat="-27.2744384" lon="151.2900637">
  <ele>364.16</ele>
  <time>2026-09-01T19:56:27Z</time>
  <course>236.67</course>
  <speed>0.01</speed>
  <fix>3d</fix>
</trkpt>
<trkpt lat="-27.2744386" lon="151.2900638">
  <ele>364.27</ele>
  <time>2026-09-01T19:56:27Z</time>
  <course>10.69</course>
  <speed>0.02</speed>
  <fix>3d</fix>
</trkpt>
<trkpt lat="-27.2744384" lon="151.2900636">
  <ele>364.16</ele>
  <time>2026-09-01T19:56:27Z</time>
  <course>237.71</course>
  <speed>0.01</speed>
  <fix>3d</fix>
</trkpt>
<trkpt lat="-27.2744386" lon="151.2900638">
  <ele>364.27</ele>
  <time>2026-09-01T19:56:27Z</time>
  <course>10.69</course>
  <speed>0.02</speed>
  <fix>3d</fix>
</trkpt>
<trkpt lat="-27.2744384" lon="151.2900636">
  <ele>364.16</ele>
  <time>2026-09-01T19:56:27Z</time>
  <course>237.71</course>
  <speed>0.01</speed>
  <fix>3d</fix>
</trkpt>
<trkpt lat="-27.2744386" lon="151.2900638">
  <ele>364.27</ele>
  <time>2026-09-01T19:56:27Z</time>
  <course>10.69</course>
  <speed>0.02</speed>
  <fix>3d</fix>
</trkpt>
<trkpt lat="-27.2744385" lon="151.2900636">
  <ele>364.16</ele>
  <time>2026-09-01T19:56:27Z</time>
  <course>239.03</course>
  <speed>0.01</speed>
  <fix>3d</fix>
</trkpt>
<trkpt lat="-27.2744386" lon="151.2900637">
  <ele>364.28</ele>
  <time>2026-09-01T19:56:27Z</time>
  <course>10.69</course>
  <speed>0.02</speed>
  <fix>3d</fix>
</trkpt>
<trkpt lat="-27.2744385" lon="151.2900636">
  <ele>364.16</ele>
  <time>2026-09-01T19:56:27Z</time>
  <course>239.03</course>
  <speed>0.01</speed>
  <fix>3d</fix>
</trkpt>
<trkpt lat="-27.2744386" lon="151.2900637">
  <ele>364.28</ele>
  <time>2026-09-01T19:56:27Z</time>
  <course>10.69</course>
  <speed>0.02</speed>
  <fix>3d</fix>
</trkpt>
<trkpt lat="-27.2744385" lon="151.2900636">
  <ele>364.16</ele>
  <time>2026-09-01T19:56:27Z</time>
  <course>240.58</course>
  <speed>0.01</speed>
  <fix>3d</fix>
</trkpt>
<trkpt lat="-27.2744386" lon="151.2900637">
  <ele>364.28</ele>
  <time>2026-09-01T19:56:27Z</time>
  <course>10.69</course>
  <speed>0.02</speed>
  <fix>3d</fix>
</trkpt>
<trkpt lat="-27.2744385" lon="151.2900636">
  <ele>364.16</ele>
  <time>2026-09-01T19:56:27Z</time>
  <course>240.58</course>
  <speed>0.01</speed>
  <fix>3d</fix>
</trkpt>
<trkpt lat="-27.2744386" lon="151.2900637">
  <ele>364.28</ele>
  <time>2026-09-01T19:56:27Z</time>
  <course>10.69</course>
  <speed>0.02</speed>
  <fix>3d</fix>
</trkpt>
<trkpt lat="-27.2744385" lon="151.2900635">
  <ele>364.17</ele>
  <time>2026-09-01T19:56:27Z</time>
  <course>241.74</course>
  <speed>0.01</speed>
  <fix>3d</fix>
</trkpt>
<trkpt lat="-27.2744386" lon="151.2900637">
  <ele>364.28</ele>
  <time>2026-09-01T19:56:27Z</time>
  <course>10.69</course>
  <speed>0.02</speed>
  <fix>3d</fix>
</trkpt>
<trkpt lat="-27.2744385" lon="151.2900635">
  <ele>364.17</ele>
  <time>2026-09-01T19:56:27Z</time>
  <course>241.74</course>
  <speed>0.01</speed>
  <fix>3d</fix>
</trkpt>
<trkpt lat="-27.2744386" lon="151.2900637">
  <ele>364.29</ele>
  <time>2026-09-01T19:56:27Z</time>
  <course>10.69</course>
  <speed>0.02</speed>
  <fix>3d</fix>
</trkpt>
<trkpt lat="-27.2744385" lon="151.2900635">
  <ele>364.17</ele>
  <time>2026-09-01T19:56:27Z</time>
  <course>242.23</course>
  <speed>0.01</speed>
  <fix>3d</fix>
</trkpt>
<trkpt lat="-27.2744386" lon="151.2900637">
  <ele>364.28</ele>
  <time>2026-09-01T19:56:27Z</time>
  <course>10.69</course>
  <speed>0.02</speed>
  <fix>3d</fix>
</trkpt>
<trkpt lat="-27.2744385" lon="151.2900635">
  <ele>364.17</ele>
  <time>2026-09-01T19:56:27Z</time>
  <course>242.23</course>
  <speed>0.01</speed>
  <fix>3d</fix>
</trkpt>
<trkpt lat="-27.2744386" lon="151.2900637">
  <ele>364.28</ele>
  <time>2026-09-01T19:56:27Z</time>
  <course>10.69</course>
  <speed>0.02</speed>
  <fix>3d</fix>
</trkpt>
<trkpt lat="-27.2744385" lon="151.2900635">
  <ele>364.17</ele>
  <time>2026-09-01T19:56:27Z</time>
  <course>244.93</course>
  <speed>0.01</speed>
  <fix>3d</fix>
</trkpt>
<trkpt lat="-27.2744386" lon="151.2900637">
  <ele>364.28</ele>
  <time>2026-09-01T19:56:27Z</time>
  <course>10.69</course>
  <speed>0.02</speed>
  <fix>3d</fix>
</trkpt>
<trkpt lat="-27.2744385" lon="151.2900635">
  <ele>364.17</ele>
  <time>2026-09-01T19:56:27Z</time>
  <course>244.93</course>
  <speed>0.01</speed>
  <fix>3d</fix>
</trkpt>
<trkpt lat="-27.2744386" lon="151.2900637">
  <ele>364.28</ele>
  <time>2026-09-01T19:56:27Z</time>
  <course>10.69</course>
  <speed>0.02</speed>
  <fix>3d</fix>
</trkpt>
<trkpt lat="-27.2744385" lon="151.2900635">
  <ele>364.17</ele>
  <time>2026-09-01T19:56:27Z</time>
  <course>250.54</course>
  <speed>0.0</speed>
  <fix>3d</fix>
</trkpt>
<trkpt lat="-27.2744386" lon="151.2900637">
  <ele>364.28</ele>
  <time>2026-09-01T19:56:27Z</time>
  <course>10.69</course>
  <speed>0.022360679774997897</speed>
  <fix>3d</fix>
</trkpt>
<trkpt lat="-27.2744385" lon="151.2900635">
  <ele>364.17</ele>
  <time>2026-09-01T19:56:27Z</time>
  <course>250.54</course>
  <speed>0.0</speed>
  <fix>3d</fix>
</trkpt>
<trkpt lat="-27.2744386" lon="151.2900636">
  <ele>364.28</ele>
  <time>2026-09-01T19:56:27Z</time>
  <course>10.69</course>
  <speed>0.022360679774997897</speed>
  <fix>3d</fix>
</trkpt>
<trkpt lat="-27.2744385" lon="151.2900635">
  <ele>364.17</ele>
  <time>2026-09-01T19:56:27Z</time>
  <course>255.4</course>
  <speed>0.0</speed>
  <fix>3d</fix>
</trkpt>
<trkpt lat="-27.2744386" lon="151.2900636">
  <ele>364.28</ele>
  <time>2026-09-01T19:56:27Z</time>
  <course>10.69</course>
  <speed>0.022360679774997897</speed>
  <fix>3d</fix>
</trkpt>
<trkpt lat="-27.2744385" lon="151.2900635">
  <ele>364.17</ele>
  <time>2026-09-01T19:56:27Z</time>
  <course>255.4</course>
  <speed>0.0</speed>
  <fix>3d</fix>
</trkpt>
<trkpt lat="-27.2744386" lon="151.2900636">
  <ele>364.28</ele>
  <time>2026-09-01T19:56:27Z</time>
  <course>10.69</course>
  <speed>0.022360679774997897</speed>
  <fix>3d</fix>
</trkpt>
<trkpt lat="-27.2744385" lon="151.2900635">
  <ele>364.17</ele>
  <time>2026-09-01T19:56:27Z</time>
  <course>257.45</course>
  <speed>0.0</speed>
  <fix>3d</fix>
</trkpt>
<trkpt lat="-27.2744386" lon="151.2900636">
  <ele>364.28</ele>
  <time>2026-09-01T19:56:27Z</time>
  <course>10.69</course>
  <speed>0.022360679774997897</speed>
  <fix>3d</fix>
</trkpt>
<trkpt lat="-27.2744385" lon="151.2900635">
  <ele>364.17</ele>
  <time>2026-09-01T19:56:27Z</time>
  <course>257.45</course>
  <speed>0.0</speed>
  <fix>3d</fix>
</trkpt>
<trkpt lat="-27.2744386" lon="151.2900636">
  <ele>364.29</ele>
  <time>2026-09-01T19:56:27Z</time>
  <course>10.69</course>
  <speed>0.022360679774997897</speed>
  <fix>3d</fix>
</trkpt>
<trkpt lat="-27.2744385" lon="151.2900634">
  <ele>364.17</ele>
  <time>2026-09-01T19:56:27Z</time>
  <course>261.0</course>
  <speed>0.0</speed>
  <fix>3d</fix>
</trkpt>
<trkpt lat="-27.2744386" lon="151.2900636">
  <ele>364.29</ele>
  <time>2026-09-01T19:56:27Z</time>
  <course>10.69</course>
  <speed>0.022360679774997897</speed>
  <fix>3d</fix>
</trkpt>
<trkpt lat="-27.2744385" lon="151.2900634">
  <ele>364.17</ele>
  <time>2026-09-01T19:56:27Z</time>
  <course>261.0</course>
  <speed>0.0</speed>
  <fix>3d</fix>
</trkpt>
<trkpt lat="-27.2744386" lon="151.2900636">
  <ele>364.29</ele>
  <time>2026-09-01T19:56:27Z</time>
  <course>10.69</course>
  <speed>0.022360679774997897</speed>
  <fix>3d</fix>
</trkpt>
<trkpt lat="-27.2744385" lon="151.2900633">
  <ele>364.17</ele>
  <time>2026-09-01T19:56:27Z</time>
  <course>276.33</course>
  <speed>0.0</speed>
  <fix>3d</fix>
</trkpt>
<trkpt lat="-27.2744386" lon="151.2900636">
  <ele>364.29</ele>
  <time>2026-09-01T19:56:27Z</time>
  <course>10.69</course>
  <speed>0.022360679774997897</speed>
  <fix>3d</fix>
</trkpt>
<trkpt lat="-27.2744385" lon="151.2900633">
  <ele>364.17</ele>
  <time>2026-09-01T19:56:27Z</time>
  <course>276.33</course>
  <speed>0.0</speed>
  <fix>3d</fix>
</trkpt>
<trkpt lat="-27.2744386" lon="151.2900636">
  <ele>364.29</ele>
  <time>2026-09-01T19:56:27Z</time>
  <course>10.69</course>
  <speed>0.022360679774997897</speed>
  <fix>3d</fix>
</trkpt>
<trkpt lat="-27.2744385" lon="151.2900633">
  <ele>364.17</ele>
  <time>2026-09-01T19:56:27Z</time>
  <course>336.54</course>
  <speed>0.0</speed>
  <fix>3d</fix>
</trkpt>
<trkpt lat="-27.2744386" lon="151.2900636">
  <ele>364.29</ele>
  <time>2026-09-01T19:56:27Z</time>
  <course>10.69</course>
  <speed>0.022360679774997897</speed>
  <fix>3d</fix>
</trkpt>
<trkpt lat="-27.2744385" lon="151.2900633">
  <ele>364.17</ele>
  <time>2026-09-01T19:56:27Z</time>
  <course>336.54</course>
  <speed>0.0</speed>
  <fix>3d</fix>
</trkpt>
<trkpt lat="-27.2744386" lon="151.2900636">
  <ele>364.29</ele>
  <time>2026-09-01T19:56:27Z</time>
  <course>10.69</course>
  <speed>0.01414213562373095</speed>
  <fix>3d</fix>
</trkpt>
<trkpt lat="-27.2744385" lon="151.2900633">
  <ele>364.17</ele>
  <time>2026-09-01T19:56:27Z</time>
  <course>25.28</course>
  <speed>0.0</speed>
  <fix>3d</fix>
</trkpt>
<trkpt lat="-27.2744386" lon="151.2900636">
  <ele>364.29</ele>
  <time>2026-09-01T19:56:27Z</time>
  <course>10.69</course>
  <speed>0.01414213562373095</speed>
  <fix>3d</fix>
</trkpt>
<trkpt lat="-27.2744385" lon="151.2900633">
  <ele>364.17</ele>
  <time>2026-09-01T19:56:27Z</time>
  <course>25.28</course>
  <speed>0.0</speed>
  <fix>3d</fix>
</trkpt>
<trkpt lat="-27.2744386" lon="151.2900636">
  <ele>364.29</ele>
  <time>2026-09-01T19:56:27Z</time>
  <course>10.69</course>
  <speed>0.01414213562373095</speed>
  <fix>3d</fix>
</trkpt>
<trkpt lat="-27.2744385" lon="151.2900633">
  <ele>364.16</ele>
  <time>2026-09-01T19:56:27Z</time>
  <course>36.81</course>
  <speed>0.0</speed>
  <fix>3d</fix>
</trkpt>
<trkpt lat="-27.2744386" lon="151.2900636">
  <ele>364.28</ele>
  <time>2026-09-01T19:56:27Z</time>
  <course>10.69</course>
  <speed>0.01414213562373095</speed>
  <fix>3d</fix>
</trkpt>
<trkpt lat="-27.2744385" lon="151.2900633">
  <ele>364.16</ele>
  <time>2026-09-01T19:56:27Z</time>
  <course>36.81</course>
  <speed>0.0</speed>
  <fix>3d</fix>
</trkpt>
<trkpt lat="-27.2744386" lon="151.2900636">
  <ele>364.28</ele>
  <time>2026-09-01T19:56:27Z</time>
  <course>10.69</course>
  <speed>0.01414213562373095</speed>
  <fix>3d</fix>
</trkpt>
<trkpt lat="-27.2744385" lon="151.2900633">
  <ele>364.16</ele>
  <time>2026-09-01T19:56:27Z</time>
  <course>41.26</course>
  <speed>0.0</speed>
  <fix>3d</fix>
</trkpt>
<trkpt lat="-27.2744386" lon="151.2900636">
  <ele>364.28</ele>
  <time>2026-09-01T19:56:27Z</time>
  <course>10.69</course>
  <speed>0.01414213562373095</speed>
  <fix>3d</fix>
</trkpt>
<trkpt lat="-27.2744385" lon="151.2900633">
  <ele>364.16</ele>
  <time>2026-09-01T19:56:27Z</time>
  <course>41.26</course>
  <speed>0.0</speed>
  <fix>3d</fix>
</trkpt>
<trkpt lat="-27.2744386" lon="151.2900636">
  <ele>364.27</ele>
  <time>2026-09-01T19:56:27Z</time>
  <course>10.69</course>
  <speed>0.01414213562373095</speed>
  <fix>3d</fix>
</trkpt>
<trkpt lat="-27.2744385" lon="151.2900633">
  <ele>364.16</ele>
  <time>2026-09-01T19:56:27Z</time>
  <course>48.53</course>
  <speed>0.0</speed>
  <fix>3d</fix>
</trkpt>
<trkpt lat="-27.2744386" lon="151.2900636">
  <ele>364.27</ele>
  <time>2026-09-01T19:56:27Z</time>
  <course>10.68</course>
  <speed>0.022360679774997897</speed>
  <fix>3d</fix>
</trkpt>
<trkpt lat="-27.2744385" lon="151.2900633">
  <ele>364.16</ele>
  <time>2026-09-01T19:56:27Z</time>
  <course>48.53</course>
  <speed>0.0</speed>
  <fix>3d</fix>
</trkpt>
<trkpt lat="-27.2744386" lon="151.2900636">
  <ele>364.27</ele>
  <time>2026-09-01T19:56:27Z</time>
  <course>10.68</course>
  <speed>0.022360679774997897</speed>
  <fix>3d</fix>
</trkpt>
<trkpt lat="-27.2744385" lon="151.2900633">
  <ele>364.16</ele>
  <time>2026-09-01T19:56:27Z</time>
  <course>56.0</course>
  <speed>0.0</speed>
  <fix>3d</fix>
</trkpt>
<trkpt lat="-27.2744386" lon="151.2900636">
  <ele>364.27</ele>
  <time>2026-09-01T19:56:27Z</time>
  <course>10.68</course>
  <speed>0.022360679774997897</speed>
  <fix>3d</fix>
</trkpt>
<trkpt lat="-27.2744385" lon="151.2900633">
  <ele>364.16</ele>
  <time>2026-09-01T19:56:27Z</time>
  <course>56.0</course>
  <speed>0.0</speed>
  <fix>3d</fix>
</trkpt>
<trkpt lat="-27.2744386" lon="151.2900635">
  <ele>364.27</ele>
  <time>2026-09-01T19:56:27Z</time>
  <course>10.68</course>
  <speed>0.022360679774997897</speed>
  <fix>3d</fix>
</trkpt>
<trkpt lat="-27.2744385" lon="151.2900633">
  <ele>364.16</ele>
  <time>2026-09-01T19:56:27Z</time>
  <course>62.11</course>
  <speed>0.01</speed>
  <fix>3d</fix>
</trkpt>
<trkpt lat="-27.2744386" lon="151.2900635">
  <ele>364.27</ele>
  <time>2026-09-01T19:56:27Z</time>
  <course>10.68</course>
  <speed>0.022360679774997897</speed>
  <fix>3d</fix>
</trkpt>
<trkpt lat="-27.2744385" lon="151.2900633">
  <ele>364.16</ele>
  <time>2026-09-01T19:56:27Z</time>
  <course>62.11</course>
  <speed>0.01</speed>
  <fix>3d</fix>
</trkpt>
<trkpt lat="-27.2744386" lon="151.2900635">
  <ele>364.26</ele>
  <time>2026-09-01T19:56:27Z</time>
  <course>10.67</course>
  <speed>0.022360679774997897</speed>
  <fix>3d</fix>
</trkpt>
<trkpt lat="-27.2744385" lon="151.2900633">
  <ele>364.16</ele>
  <time>2026-09-01T19:56:27Z</time>
  <course>66.88</course>
  <speed>0.01</speed>
  <fix>3d</fix>
</trkpt>
<trkpt lat="-27.2744386" lon="151.2900635">
  <ele>364.26</ele>
  <time>2026-09-01T19:56:27Z</time>
  <course>10.68</course>
  <speed>0.022360679774997897</speed>
  <fix>3d</fix>
</trkpt>
<trkpt lat="-27.2744385" lon="151.2900633">
  <ele>364.16</ele>
  <time>2026-09-01T19:56:27Z</time>
  <course>66.88</course>
  <speed>0.01</speed>
  <fix>3d</fix>
</trkpt>
<trkpt lat="-27.2744386" lon="151.2900635">
  <ele>364.26</ele>
  <time>2026-09-01T19:56:27Z</time>
  <course>10.68</course>
  <speed>0.022360679774997897</speed>
  <fix>3d</fix>
</trkpt>
<trkpt lat="-27.2744385" lon="151.2900634">
  <ele>364.16</ele>
  <time>2026-09-01T19:56:27Z</time>
  <course>69.03</course>
  <speed>0.01</speed>
  <fix>3d</fix>
</trkpt>
<trkpt lat="-27.2744386" lon="151.2900635">
  <ele>364.27</ele>
  <time>2026-09-01T19:56:27Z</time>
  <course>10.69</course>
  <speed>0.022360679774997897</speed>
  <fix>3d</fix>
</trkpt>
<trkpt lat="-27.2744385" lon="151.2900634">
  <ele>364.16</ele>
  <time>2026-09-01T19:56:27Z</time>
  <course>69.03</course>
  <speed>0.01</speed>
  <fix>3d</fix>
</trkpt>
<trkpt lat="-27.2744386" lon="151.2900635">
  <ele>364.27</ele>
  <time>2026-09-01T19:56:27Z</time>
  <course>10.69</course>
  <speed>0.022360679774997897</speed>
  <fix>3d</fix>
</trkpt>
<trkpt lat="-27.2744385" lon="151.2900635">
  <ele>364.16</ele>
  <time>2026-09-01T19:56:27Z</time>
  <course>69.88</course>
  <speed>0.01</speed>
  <fix>3d</fix>
</trkpt>
<trkpt lat="-27.2744386" lon="151.2900636">
  <ele>364.27</ele>
  <time>2026-09-01T19:56:27Z</time>
  <course>10.69</course>
  <speed>0.022360679774997897</speed>
  <fix>3d</fix>
</trkpt>
<trkpt lat="-27.2744385" lon="151.2900635">
  <ele>364.16</ele>
  <time>2026-09-01T19:56:27Z</time>
  <course>69.88</course>
  <speed>0.01</speed>
  <fix>3d</fix>
</trkpt>
<trkpt lat="-27.2744386" lon="151.2900636">
  <ele>364.27</ele>
  <time>2026-09-01T19:56:27Z</time>
  <course>10.69</course>
  <speed>0.022360679774997897</speed>
  <fix>3d</fix>
</trkpt>
<trkpt lat="-27.2744385" lon="151.2900635">
  <ele>364.17</ele>
  <time>2026-09-01T19:56:27Z</time>
  <course>71.09</course>
  <speed>0.01</speed>
  <fix>3d</fix>
</trkpt>
<trkpt lat="-27.2744386" lon="151.2900636">
  <ele>364.28</ele>
  <time>2026-09-01T19:56:27Z</time>
  <course>10.7</course>
  <speed>0.022360679774997897</speed>
  <fix>3d</fix>
</trkpt>
<trkpt lat="-27.2744385" lon="151.2900635">
  <ele>364.17</ele>
  <time>2026-09-01T19:56:27Z</time>
  <course>71.09</course>
  <speed>0.01</speed>
  <fix>3d</fix>
</trkpt>
<trkpt lat="-27.2744386" lon="151.2900636">
  <ele>364.28</ele>
  <time>2026-09-01T19:56:27Z</time>
  <course>10.69</course>
  <speed>0.022360679774997897</speed>
  <fix>3d</fix>
</trkpt>
<trkpt lat="-27.2744385" lon="151.2900635">
  <ele>364.17</ele>
  <time>2026-09-01T19:56:27Z</time>
  <course>72.18</course>
  <speed>0.02</speed>
  <fix>3d</fix>
</trkpt>
<trkpt lat="-27.2744386" lon="151.2900636">
  <ele>364.28</ele>
  <time>2026-09-01T19:56:27Z</time>
  <course>10.69</course>
  <speed>0.022360679774997897</speed>
  <fix>3d</fix>
</trkpt>
<trkpt lat="-27.2744385" lon="151.2900635">
  <ele>364.17</ele>
  <time>2026-09-01T19:56:27Z</time>
  <course>72.18</course>
  <speed>0.02</speed>
  <fix>3d</fix>
</trkpt>
<trkpt lat="-27.2744386" lon="151.2900636">
  <ele>364.28</ele>
  <time>2026-09-01T19:56:27Z</time>
  <course>10.69</course>
  <speed>0.022360679774997897</speed>
  <fix>3d</fix>
</trkpt>
<trkpt lat="-27.2744385" lon="151.2900636">
  <ele>364.18</ele>
  <time>2026-09-01T19:56:27Z</time>
  <course>71.97</course>
  <speed>0.02</speed>
  <fix>3d</fix>
</trkpt>
<trkpt lat="-27.2744386" lon="151.2900637">
  <ele>364.28</ele>
  <time>2026-09-01T19:56:27Z</time>
  <course>10.69</course>
  <speed>0.0282842712474619</speed>
  <fix>3d</fix>
</trkpt>
<trkpt lat="-27.2744385" lon="151.2900636">
  <ele>364.18</ele>
  <time>2026-09-01T19:56:27Z</time>
  <course>71.97</course>
  <speed>0.02</speed>
  <fix>3d</fix>
</trkpt>
<trkpt lat="-27.2744386" lon="151.2900637">
  <ele>364.28</ele>
  <time>2026-09-01T19:56:27Z</time>
  <course>10.68</course>
  <speed>0.0282842712474619</speed>
  <fix>3d</fix>
</trkpt>
<trkpt lat="-27.2744385" lon="151.2900636">
  <ele>364.18</ele>
  <time>2026-09-01T19:56:27Z</time>
  <course>71.4</course>
  <speed>0.02</speed>
  <fix>3d</fix>
</trkpt>
<trkpt lat="-27.2744386" lon="151.2900637">
  <ele>364.28</ele>
  <time>2026-09-01T19:56:27Z</time>
  <course>10.68</course>
  <speed>0.0282842712474619</speed>
  <fix>3d</fix>
</trkpt>
<trkpt lat="-27.2744385" lon="151.2900636">
  <ele>364.18</ele>
  <time>2026-09-01T19:56:27Z</time>
  <course>71.4</course>
  <speed>0.02</speed>
  <fix>3d</fix>
</trkpt>
<trkpt lat="-27.2744386" lon="151.2900637">
  <ele>364.28</ele>
  <time>2026-09-01T19:56:27Z</time>
  <course>10.68</course>
  <speed>0.0282842712474619</speed>
  <fix>3d</fix>
</trkpt>
<trkpt lat="-27.2744385" lon="151.2900636">
  <ele>364.18</ele>
  <time>2026-09-01T19:56:27Z</time>
  <course>70.89</course>
  <speed>0.01</speed>
  <fix>3d</fix>
</trkpt>
<trkpt lat="-27.2744386" lon="151.2900637">
  <ele>364.28</ele>
  <time>2026-09-01T19:56:27Z</time>
  <course>10.69</course>
  <speed>0.0282842712474619</speed>
  <fix>3d</fix>
</trkpt>
<trkpt lat="-27.2744385" lon="151.2900636">
  <ele>364.18</ele>
  <time>2026-09-01T19:56:27Z</time>
  <course>70.89</course>
  <speed>0.01</speed>
  <fix>3d</fix>
</trkpt>
<trkpt lat="-27.2744386" lon="151.2900638">
  <ele>364.28</ele>
  <time>2026-09-01T19:56:27Z</time>
  <course>10.7</course>
  <speed>0.0282842712474619</speed>
  <fix>3d</fix>
</trkpt>
<trkpt lat="-27.2744385" lon="151.2900637">
  <ele>364.18</ele>
  <time>2026-09-01T19:56:27Z</time>
  <course>69.06</course>
  <speed>0.01</speed>
  <fix>3d</fix>
</trkpt>
<trkpt lat="-27.2744386" lon="151.2900638">
  <ele>364.28</ele>
  <time>2026-09-01T19:56:27Z</time>
  <course>10.7</course>
  <speed>0.0282842712474619</speed>
  <fix>3d</fix>
</trkpt>
<trkpt lat="-27.2744385" lon="151.2900637">
  <ele>364.18</ele>
  <time>2026-09-01T19:56:27Z</time>
  <course>69.06</course>
  <speed>0.01</speed>
  <fix>3d</fix>
</trkpt>
<trkpt lat="-27.2744386" lon="151.2900638">
  <ele>364.28</ele>
  <time>2026-09-01T19:56:27Z</time>
  <course>10.7</course>
  <speed>0.0282842712474619</speed>
  <fix>3d</fix>
</trkpt>
<trkpt lat="-27.2744385" lon="151.2900637">
  <ele>364.18</ele>
  <time>2026-09-01T19:56:27Z</time>
  <course>66.21</course>
  <speed>0.01</speed>
  <fix>3d</fix>
</trkpt>
<trkpt lat="-27.2744386" lon="151.2900638">
  <ele>364.28</ele>
  <time>2026-09-01T19:56:27Z</time>
  <course>10.69</course>
  <speed>0.0282842712474619</speed>
  <fix>3d</fix>
</trkpt>
<trkpt lat="-27.2744385" lon="151.2900637">
  <ele>364.18</ele>
  <time>2026-09-01T19:56:27Z</time>
  <course>66.21</course>
  <speed>0.01</speed>
  <fix>3d</fix>
</trkpt>
<trkpt lat="-27.2744386" lon="151.2900638">
  <ele>364.28</ele>
  <time>2026-09-01T19:56:27Z</time>
  <course>10.69</course>
  <speed>0.0282842712474619</speed>
  <fix>3d</fix>
</trkpt>
<trkpt lat="-27.2744385" lon="151.2900637">
  <ele>364.18</ele>
  <time>2026-09-01T19:56:27Z</time>
  <course>64.13</course>
  <speed>0.01</speed>
  <fix>3d</fix>
</trkpt>
<trkpt lat="-27.2744386" lon="151.2900638">
  <ele>364.28</ele>
  <time>2026-09-01T19:56:27Z</time>
  <course>10.68</course>
  <speed>0.0282842712474619</speed>
  <fix>3d</fix>
</trkpt>
<trkpt lat="-27.2744385" lon="151.2900637">
  <ele>364.18</ele>
  <time>2026-09-01T19:56:27Z</time>
  <course>64.13</course>
  <speed>0.01</speed>
  <fix>3d</fix>
</trkpt>
<trkpt lat="-27.2744386" lon="151.2900638">
  <ele>364.28</ele>
  <time>2026-09-01T19:56:27Z</time>
  <course>10.68</course>
  <speed>0.0282842712474619</speed>
  <fix>3d</fix>
</trkpt>
<trkpt lat="-27.2744384" lon="151.2900637">
  <ele>364.18</ele>
  <time>2026-09-01T19:56:27Z</time>
  <course>63.0</course>
  <speed>0.01</speed>
  <fix>3d</fix>
</trkpt>
<trkpt lat="-27.2744386" lon="151.2900638">
  <ele>364.28</ele>
  <time>2026-09-01T19:56:27Z</time>
  <course>10.68</course>
  <speed>0.0282842712474619</speed>
  <fix>3d</fix>
</trkpt>
<trkpt lat="-27.2744384" lon="151.2900637">
  <ele>364.18</ele>
  <time>2026-09-01T19:56:27Z</time>
  <course>63.0</course>
  <speed>0.01</speed>
  <fix>3d</fix>
</trkpt>
<trkpt lat="-27.2744386" lon="151.2900638">
  <ele>364.28</ele>
  <time>2026-09-01T19:56:27Z</time>
  <course>10.68</course>
  <speed>0.022360679774997897</speed>
  <fix>3d</fix>
</trkpt>
<trkpt lat="-27.2744384" lon="151.2900637">
  <ele>364.18</ele>
  <time>2026-09-01T19:56:27Z</time>
  <course>60.35</course>
  <speed>0.01</speed>
  <fix>3d</fix>
</trkpt>
<trkpt lat="-27.2744386" lon="151.2900638">
  <ele>364.28</ele>
  <time>2026-09-01T19:56:27Z</time>
  <course>10.69</course>
  <speed>0.022360679774997897</speed>
  <fix>3d</fix>
</trkpt>
<trkpt lat="-27.2744384" lon="151.2900637">
  <ele>364.18</ele>
  <time>2026-09-01T19:56:27Z</time>
  <course>60.35</course>
  <speed>0.01</speed>
  <fix>3d</fix>
</trkpt>
<trkpt lat="-27.2744386" lon="151.2900638">
  <ele>364.28</ele>
  <time>2026-09-01T19:56:27Z</time>
  <course>10.69</course>
  <speed>0.022360679774997897</speed>
  <fix>3d</fix>
</trkpt>
<trkpt lat="-27.2744384" lon="151.2900637">
  <ele>364.18</ele>
  <time>2026-09-01T19:56:27Z</time>
  <course>53.73</course>
  <speed>0.01</speed>
  <fix>3d</fix>
</trkpt>
<trkpt lat="-27.2744386" lon="151.2900638">
  <ele>364.28</ele>
  <time>2026-09-01T19:56:27Z</time>
  <course>10.69</course>
  <speed>0.01414213562373095</speed>
  <fix>3d</fix>
</trkpt>
<trkpt lat="-27.2744384" lon="151.2900637">
  <ele>364.18</ele>
  <time>2026-09-01T19:56:27Z</time>
  <course>53.73</course>
  <speed>0.01</speed>
  <fix>3d</fix>
</trkpt>
<trkpt lat="-27.2744386" lon="151.2900638">
  <ele>364.28</ele>
  <time>2026-09-01T19:56:27Z</time>
  <course>10.7</course>
  <speed>0.01414213562373095</speed>
  <fix>3d</fix>
</trkpt>
<trkpt lat="-27.2744384" lon="151.2900638">
  <ele>364.18</ele>
  <time>2026-09-01T19:56:27Z</time>
  <course>43.89</course>
  <speed>0.0</speed>
  <fix>3d</fix>
</trkpt>
<trkpt lat="-27.2744386" lon="151.2900639">
  <ele>364.28</ele>
  <time>2026-09-01T19:56:27Z</time>
  <course>10.7</course>
  <speed>0.01414213562373095</speed>
  <fix>3d</fix>
</trkpt>
<trkpt lat="-27.2744384" lon="151.2900638">
  <ele>364.18</ele>
  <time>2026-09-01T19:56:27Z</time>
  <course>43.89</course>
  <speed>0.0</speed>
  <fix>3d</fix>
</trkpt>
<trkpt lat="-27.2744386" lon="151.2900639">
  <ele>364.28</ele>
  <time>2026-09-01T19:56:27Z</time>
  <course>10.7</course>
  <speed>0.01414213562373095</speed>
  <fix>3d</fix>
</trkpt>
<trkpt lat="-27.2744384" lon="151.2900639">
  <ele>364.18</ele>
  <time>2026-09-01T19:56:27Z</time>
  <course>33.19</course>
  <speed>0.0</speed>
  <fix>3d</fix>
</trkpt>
<trkpt lat="-27.2744386" lon="151.2900639">
  <ele>364.28</ele>
  <time>2026-09-01T19:56:27Z</time>
  <course>10.7</course>
  <speed>0.01414213562373095</speed>
  <fix>3d</fix>
</trkpt>
<trkpt lat="-27.2744384" lon="151.2900639">
  <ele>364.18</ele>
  <time>2026-09-01T19:56:27Z</time>
  <course>33.19</course>
  <speed>0.0</speed>
  <fix>3d</fix>
</trkpt>
<trkpt lat="-27.2744386" lon="151.2900639">
  <ele>364.28</ele>
  <time>2026-09-01T19:56:27Z</time>
  <course>10.7</course>
  <speed>0.01414213562373095</speed>
  <fix>3d</fix>
</trkpt>
<trkpt lat="-27.2744384" lon="151.2900639">
  <ele>364.18</ele>
  <time>2026-09-01T19:56:27Z</time>
  <course>23.36</course>
  <speed>0.0</speed>
  <fix>3d</fix>
</trkpt>
<trkpt lat="-27.2744386" lon="151.2900639">
  <ele>364.29</ele>
  <time>2026-09-01T19:56:27Z</time>
  <course>10.7</course>
  <speed>0.01414213562373095</speed>
  <fix>3d</fix>
</trkpt>
<trkpt lat="-27.2744384" lon="151.2900639">
  <ele>364.18</ele>
  <time>2026-09-01T19:56:27Z</time>
  <course>23.36</course>
  <speed>0.0</speed>
  <fix>3d</fix>
</trkpt>
<trkpt lat="-27.2744386" lon="151.2900639">
  <ele>364.29</ele>
  <time>2026-09-01T19:56:27Z</time>
  <course>10.7</course>
  <speed>0.01414213562373095</speed>
  <fix>3d</fix>
</trkpt>
<trkpt lat="-27.2744384" lon="151.2900639">
  <ele>364.18</ele>
  <time>2026-09-01T19:56:27Z</time>
  <course>11.8</course>
  <speed>0.0</speed>
  <fix>3d</fix>
</trkpt>
<trkpt lat="-27.2744386" lon="151.2900639">
  <ele>364.29</ele>
  <time>2026-09-01T19:56:27Z</time>
  <course>10.7</course>
  <speed>0.01</speed>
  <fix>3d</fix>
</trkpt>
<trkpt lat="-27.2744384" lon="151.2900639">
  <ele>364.18</ele>
  <time>2026-09-01T19:56:27Z</time>
  <course>11.8</course>
  <speed>0.0</speed>
  <fix>3d</fix>
</trkpt>
<trkpt lat="-27.2744386" lon="151.2900639">
  <ele>364.29</ele>
  <time>2026-09-01T19:56:27Z</time>
  <course>10.69</course>
  <speed>0.02</speed>
  <fix>3d</fix>
</trkpt>
<trkpt lat="-27.2744384" lon="151.2900639">
  <ele>364.19</ele>
  <time>2026-09-01T19:56:27Z</time>
  <course>352.75</course>
  <speed>0.0</speed>
  <fix>3d</fix>
</trkpt>
<trkpt lat="-27.2744386" lon="151.2900639">
  <ele>364.29</ele>
  <time>2026-09-01T19:56:27Z</time>
  <course>10.69</course>
  <speed>0.02</speed>
  <fix>3d</fix>
</trkpt>
<trkpt lat="-27.2744384" lon="151.2900639">
  <ele>364.19</ele>
  <time>2026-09-01T19:56:27Z</time>
  <course>352.75</course>
  <speed>0.0</speed>
  <fix>3d</fix>
</trkpt>
<trkpt lat="-27.2744386" lon="151.2900639">
  <ele>364.3</ele>
  <time>2026-09-01T19:56:27Z</time>
  <course>10.69</course>
  <speed>0.02</speed>
  <fix>3d</fix>
</trkpt>
<trkpt lat="-27.2744383" lon="151.2900639">
  <ele>364.19</ele>
  <time>2026-09-01T19:56:27Z</time>
  <course>330.68</course>
  <speed>0.0</speed>
  <fix>3d</fix>
</trkpt>
<trkpt lat="-27.2744386" lon="151.2900639">
  <ele>364.3</ele>
  <time>2026-09-01T19:56:27Z</time>
  <course>10.69</course>
  <speed>0.02</speed>
  <fix>3d</fix>
</trkpt>
<trkpt lat="-27.2744383" lon="151.2900639">
  <ele>364.19</ele>
  <time>2026-09-01T19:56:27Z</time>
  <course>330.68</course>
  <speed>0.0</speed>
  <fix>3d</fix>
</trkpt>
<trkpt lat="-27.2744386" lon="151.2900639">
  <ele>364.29</ele>
  <time>2026-09-01T19:56:27Z</time>
  <course>10.69</course>
  <speed>0.02</speed>
  <fix>3d</fix>
</trkpt>
<trkpt lat="-27.2744383" lon="151.2900639">
  <ele>364.18</ele>
  <time>2026-09-01T19:56:27Z</time>
  <course>314.28</course>
  <speed>0.0</speed>
  <fix>3d</fix>
</trkpt>
<trkpt lat="-27.2744386" lon="151.2900639">
  <ele>364.29</ele>
  <time>2026-09-01T19:56:27Z</time>
  <course>10.7</course>
  <speed>0.02</speed>
  <fix>3d</fix>
</trkpt>
<trkpt lat="-27.2744383" lon="151.2900639">
  <ele>364.18</ele>
  <time>2026-09-01T19:56:27Z</time>
  <course>314.28</course>
  <speed>0.0</speed>
  <fix>3d</fix>
</trkpt>
<trkpt lat="-27.2744386" lon="151.2900639">
  <ele>364.29</ele>
  <time>2026-09-01T19:56:27Z</time>
  <course>10.7</course>
  <speed>0.02</speed>
  <fix>3d</fix>
</trkpt>
<trkpt lat="-27.2744383" lon="151.2900639">
  <ele>364.18</ele>
  <time>2026-09-01T19:56:27Z</time>
  <course>302.92</course>
  <speed>0.0</speed>
  <fix>3d</fix>
</trkpt>
<trkpt lat="-27.2744386" lon="151.2900639">
  <ele>364.29</ele>
  <time>2026-09-01T19:56:27Z</time>
  <course>10.7</course>
  <speed>0.02</speed>
  <fix>3d</fix>
</trkpt>
<trkpt lat="-27.2744383" lon="151.2900639">
  <ele>364.18</ele>
  <time>2026-09-01T19:56:27Z</time>
  <course>302.92</course>
  <speed>0.0</speed>
  <fix>3d</fix>
</trkpt>
<trkpt lat="-27.2744386" lon="151.2900639">
  <ele>364.29</ele>
  <time>2026-09-01T19:56:27Z</time>
  <course>10.7</course>
  <speed>0.02</speed>
  <fix>3d</fix>
</trkpt>
<trkpt lat="-27.2744383" lon="151.2900639">
  <ele>364.18</ele>
  <time>2026-09-01T19:56:27Z</time>
  <course>292.35</course>
  <speed>0.0</speed>
  <fix>3d</fix>
</trkpt>
<trkpt lat="-27.2744386" lon="151.2900639">
  <ele>364.29</ele>
  <time>2026-09-01T19:56:27Z</time>
  <course>10.7</course>
  <speed>0.02</speed>
  <fix>3d</fix>
</trkpt>
<trkpt lat="-27.2744383" lon="151.2900639">
  <ele>364.18</ele>
  <time>2026-09-01T19:56:27Z</time>
  <course>292.35</course>
  <speed>0.0</speed>
  <fix>3d</fix>
</trkpt>
<trkpt lat="-27.2744386" lon="151.2900639">
  <ele>364.28</ele>
  <time>2026-09-01T19:56:27Z</time>
  <course>10.7</course>
  <speed>0.02</speed>
  <fix>3d</fix>
</trkpt>
<trkpt lat="-27.2744383" lon="151.2900639">
  <ele>364.18</ele>
  <time>2026-09-01T19:56:27Z</time>
  <course>280.96</course>
  <speed>0.01</speed>
  <fix>3d</fix>
</trkpt>
<trkpt lat="-27.2744386" lon="151.2900639">
  <ele>364.28</ele>
  <time>2026-09-01T19:56:27Z</time>
  <course>10.7</course>
  <speed>0.02</speed>
  <fix>3d</fix>
</trkpt>
<trkpt lat="-27.2744383" lon="151.2900639">
  <ele>364.18</ele>
  <time>2026-09-01T19:56:27Z</time>
  <course>280.96</course>
  <speed>0.01</speed>
  <fix>3d</fix>
</trkpt>
<trkpt lat="-27.2744385" lon="151.2900639">
  <ele>364.28</ele>
  <time>2026-09-01T19:56:27Z</time>
  <course>10.7</course>
  <speed>0.02</speed>
  <fix>3d</fix>
</trkpt>
<trkpt lat="-27.2744383" lon="151.2900639">
  <ele>364.17</ele>
  <time>2026-09-01T19:56:27Z</time>
  <course>268.43</course>
  <speed>0.01</speed>
  <fix>3d</fix>
</trkpt>
<trkpt lat="-27.2744385" lon="151.2900639">
  <ele>364.28</ele>
  <time>2026-09-01T19:56:27Z</time>
  <course>10.7</course>
  <speed>0.02</speed>
  <fix>3d</fix>
</trkpt>
<trkpt lat="-27.2744383" lon="151.2900639">
  <ele>364.17</ele>
  <time>2026-09-01T19:56:27Z</time>
  <course>268.43</course>
  <speed>0.01</speed>
  <fix>3d</fix>
</trkpt>
<trkpt lat="-27.2744385" lon="151.2900639">
  <ele>364.28</ele>
  <time>2026-09-01T19:56:27Z</time>
  <course>10.7</course>
  <speed>0.02</speed>
  <fix>3d</fix>
</trkpt>
<trkpt lat="-27.2744383" lon="151.2900639">
  <ele>364.17</ele>
  <time>2026-09-01T19:56:27Z</time>
  <course>258.26</course>
  <speed>0.01</speed>
  <fix>3d</fix>
</trkpt>
<trkpt lat="-27.2744385" lon="151.2900639">
  <ele>364.29</ele>
  <time>2026-09-01T19:56:27Z</time>
  <course>10.7</course>
  <speed>0.02</speed>
  <fix>3d</fix>
</trkpt>
<trkpt lat="-27.2744383" lon="151.2900639">
  <ele>364.17</ele>
  <time>2026-09-01T19:56:27Z</time>
  <course>258.26</course>
  <speed>0.01</speed>
  <fix>3d</fix>
</trkpt>
<trkpt lat="-27.2744385" lon="151.2900639">
  <ele>364.29</ele>
  <time>2026-09-01T19:56:27Z</time>
  <course>10.7</course>
  <speed>0.02</speed>
  <fix>3d</fix>
</trkpt>
<trkpt lat="-27.2744383" lon="151.2900638">
  <ele>364.17</ele>
  <time>2026-09-01T19:56:27Z</time>
  <course>254.55</course>
  <speed>0.01</speed>
  <fix>3d</fix>
</trkpt>
<trkpt lat="-27.2744385" lon="151.2900639">
  <ele>364.29</ele>
  <time>2026-09-01T19:56:27Z</time>
  <course>10.7</course>
  <speed>0.02</speed>
  <fix>3d</fix>
</trkpt>
<trkpt lat="-27.2744383" lon="151.2900638">
  <ele>364.17</ele>
  <time>2026-09-01T19:56:27Z</time>
  <course>254.55</course>
  <speed>0.01</speed>
  <fix>3d</fix>
</trkpt>
<trkpt lat="-27.2744385" lon="151.2900639">
  <ele>364.29</ele>
  <time>2026-09-01T19:56:27Z</time>
  <course>10.7</course>
  <speed>0.02</speed>
  <fix>3d</fix>
</trkpt>
<trkpt lat="-27.2744383" lon="151.2900637">
  <ele>364.17</ele>
  <time>2026-09-01T19:56:27Z</time>
  <course>255.3</course>
  <speed>0.01</speed>
  <fix>3d</fix>
</trkpt>
<trkpt lat="-27.2744385" lon="151.2900639">
  <ele>364.29</ele>
  <time>2026-09-01T19:56:27Z</time>
  <course>10.69</course>
  <speed>0.02</speed>
  <fix>3d</fix>
</trkpt>
<trkpt lat="-27.2744383" lon="151.2900637">
  <ele>364.17</ele>
  <time>2026-09-01T19:56:27Z</time>
  <course>255.3</course>
  <speed>0.01</speed>
  <fix>3d</fix>
</trkpt>
<trkpt lat="-27.2744385" lon="151.2900639">
  <ele>364.29</ele>
  <time>2026-09-01T19:56:27Z</time>
  <course>10.7</course>
  <speed>0.02</speed>
  <fix>3d</fix>
</trkpt>
<trkpt lat="-27.2744383" lon="151.2900637">
  <ele>364.17</ele>
  <time>2026-09-01T19:56:27Z</time>
  <course>256.42</course>
  <speed>0.01</speed>
  <fix>3d</fix>
</trkpt>
<trkpt lat="-27.2744385" lon="151.2900639">
  <ele>364.29</ele>
  <time>2026-09-01T19:56:27Z</time>
  <course>10.7</course>
  <speed>0.02</speed>
  <fix>3d</fix>
</trkpt>
<trkpt lat="-27.2744383" lon="151.2900637">
  <ele>364.17</ele>
  <time>2026-09-01T19:56:27Z</time>
  <course>256.42</course>
  <speed>0.01</speed>
  <fix>3d</fix>
</trkpt>
<trkpt lat="-27.2744385" lon="151.2900638">
  <ele>364.29</ele>
  <time>2026-09-01T19:56:27Z</time>
  <course>10.7</course>
  <speed>0.02</speed>
  <fix>3d</fix>
</trkpt>
<trkpt lat="-27.2744383" lon="151.2900637">
  <ele>364.17</ele>
  <time>2026-09-01T19:56:27Z</time>
  <course>256.02</course>
  <speed>0.01</speed>
  <fix>3d</fix>
</trkpt>
<trkpt lat="-27.2744385" lon="151.2900638">
  <ele>364.29</ele>
  <time>2026-09-01T19:56:27Z</time>
  <course>10.7</course>
  <speed>0.02</speed>
  <fix>3d</fix>
</trkpt>
<trkpt lat="-27.2744383" lon="151.2900637">
  <ele>364.17</ele>
  <time>2026-09-01T19:56:27Z</time>
  <course>256.02</course>
  <speed>0.01</speed>
  <fix>3d</fix>
</trkpt>
<trkpt lat="-27.2744385" lon="151.2900638">
  <ele>364.28</ele>
  <time>2026-09-01T19:56:27Z</time>
  <course>10.69</course>
  <speed>0.02</speed>
  <fix>3d</fix>
</trkpt>
<trkpt lat="-27.2744383" lon="151.2900637">
  <ele>364.17</ele>
  <time>2026-09-01T19:56:27Z</time>
  <course>255.29</course>
  <speed>0.01</speed>
  <fix>3d</fix>
</trkpt>
<trkpt lat="-27.2744385" lon="151.2900638">
  <ele>364.28</ele>
  <time>2026-09-01T19:56:27Z</time>
  <course>10.69</course>
  <speed>0.02</speed>
  <fix>3d</fix>
</trkpt>
<trkpt lat="-27.2744383" lon="151.2900637">
  <ele>364.17</ele>
  <time>2026-09-01T19:56:27Z</time>
  <course>255.29</course>
  <speed>0.01</speed>
  <fix>3d</fix>
</trkpt>
<trkpt lat="-27.2744385" lon="151.2900638">
  <ele>364.28</ele>
  <time>2026-09-01T19:56:27Z</time>
  <course>10.69</course>
  <speed>0.02</speed>
  <fix>3d</fix>
</trkpt>
<trkpt lat="-27.2744383" lon="151.2900637">
  <ele>364.16</ele>
  <time>2026-09-01T19:56:27Z</time>
  <course>254.13</course>
  <speed>0.01</speed>
  <fix>3d</fix>
</trkpt>
<trkpt lat="-27.2744385" lon="151.2900638">
  <ele>364.28</ele>
  <time>2026-09-01T19:56:27Z</time>
  <course>10.69</course>
  <speed>0.02</speed>
  <fix>3d</fix>
</trkpt>
<trkpt lat="-27.2744383" lon="151.2900637">
  <ele>364.16</ele>
  <time>2026-09-01T19:56:27Z</time>
  <course>254.13</course>
  <speed>0.01</speed>
  <fix>3d</fix>
</trkpt>
<trkpt lat="-27.2744385" lon="151.2900638">
  <ele>364.28</ele>
  <time>2026-09-01T19:56:27Z</time>
  <course>10.69</course>
  <speed>0.02</speed>
  <fix>3d</fix>
</trkpt>
<trkpt lat="-27.2744383" lon="151.2900636">
  <ele>364.16</ele>
  <time>2026-09-01T19:56:27Z</time>
  <course>251.99</course>
  <speed>0.01</speed>
  <fix>3d</fix>
</trkpt>
<trkpt lat="-27.2744385" lon="151.2900638">
  <ele>364.28</ele>
  <time>2026-09-01T19:56:27Z</time>
  <course>10.7</course>
  <speed>0.02</speed>
  <fix>3d</fix>
</trkpt>
<trkpt lat="-27.2744383" lon="151.2900636">
  <ele>364.16</ele>
  <time>2026-09-01T19:56:27Z</time>
  <course>251.99</course>
  <speed>0.01</speed>
  <fix>3d</fix>
</trkpt>
<trkpt lat="-27.2744385" lon="151.2900638">
  <ele>364.28</ele>
  <time>2026-09-01T19:56:27Z</time>
  <course>10.7</course>
  <speed>0.02</speed>
  <fix>3d</fix>
</trkpt>
<trkpt lat="-27.2744383" lon="151.2900636">
  <ele>364.16</ele>
  <time>2026-09-01T19:56:27Z</time>
  <course>248.53</course>
  <speed>0.01</speed>
  <fix>3d</fix>
</trkpt>
<trkpt lat="-27.2744385" lon="151.2900637">
  <ele>364.28</ele>
  <time>2026-09-01T19:56:27Z</time>
  <course>10.7</course>
  <speed>0.02</speed>
  <fix>3d</fix>
</trkpt>
<trkpt lat="-27.2744383" lon="151.2900636">
  <ele>364.16</ele>
  <time>2026-09-01T19:56:27Z</time>
  <course>248.53</course>
  <speed>0.01</speed>
  <fix>3d</fix>
</trkpt>
<trkpt lat="-27.2744385" lon="151.2900637">
  <ele>364.28</ele>
  <time>2026-09-01T19:56:27Z</time>
  <course>10.7</course>
  <speed>0.02</speed>
  <fix>3d</fix>
</trkpt>
<trkpt lat="-27.2744383" lon="151.2900636">
  <ele>364.16</ele>
  <time>2026-09-01T19:56:27Z</time>
  <course>243.45</course>
  <speed>0.01</speed>
  <fix>3d</fix>
</trkpt>
<trkpt lat="-27.2744385" lon="151.2900637">
  <ele>364.28</ele>
  <time>2026-09-01T19:56:27Z</time>
  <course>10.7</course>
  <speed>0.02</speed>
  <fix>3d</fix>
</trkpt>
<trkpt lat="-27.2744383" lon="151.2900636">
  <ele>364.16</ele>
  <time>2026-09-01T19:56:27Z</time>
  <course>243.45</course>
  <speed>0.01</speed>
  <fix>3d</fix>
</trkpt>
<trkpt lat="-27.2744385" lon="151.2900637">
  <ele>364.28</ele>
  <time>2026-09-01T19:56:27Z</time>
  <course>10.69</course>
  <speed>0.02</speed>
  <fix>3d</fix>
</trkpt>
<trkpt lat="-27.2744383" lon="151.2900636">
  <ele>364.16</ele>
  <time>2026-09-01T19:56:27Z</time>
  <course>237.9</course>
  <speed>0.01</speed>
  <fix>3d</fix>
</trkpt>
<trkpt lat="-27.2744385" lon="151.2900637">
  <ele>364.28</ele>
  <time>2026-09-01T19:56:27Z</time>
  <course>10.69</course>
  <speed>0.02</speed>
  <fix>3d</fix>
</trkpt>
<trkpt lat="-27.2744383" lon="151.2900636">
  <ele>364.16</ele>
  <time>2026-09-01T19:56:27Z</time>
  <course>237.9</course>
  <speed>0.01</speed>
  <fix>3d</fix>
</trkpt>
<trkpt lat="-27.2744385" lon="151.2900637">
  <ele>364.28</ele>
  <time>2026-09-01T19:56:27Z</time>
  <course>10.69</course>
  <speed>0.02</speed>
  <fix>3d</fix>
</trkpt>
<trkpt lat="-27.2744383" lon="151.2900635">
  <ele>364.16</ele>
  <time>2026-09-01T19:56:27Z</time>
  <course>232.64</course>
  <speed>0.01</speed>
  <fix>3d</fix>
</trkpt>
<trkpt lat="-27.2744385" lon="151.2900637">
  <ele>364.28</ele>
  <time>2026-09-01T19:56:27Z</time>
  <course>10.69</course>
  <speed>0.02</speed>
  <fix>3d</fix>
</trkpt>
<trkpt lat="-27.2744383" lon="151.2900635">
  <ele>364.16</ele>
  <time>2026-09-01T19:56:27Z</time>
  <course>232.64</course>
  <speed>0.01</speed>
  <fix>3d</fix>
</trkpt>
<trkpt lat="-27.2744385" lon="151.2900637">
  <ele>364.28</ele>
  <time>2026-09-01T19:56:27Z</time>
  <course>10.69</course>
  <speed>0.022360679774997897</speed>
  <fix>3d</fix>
</trkpt>
<trkpt lat="-27.2744383" lon="151.2900635">
  <ele>364.16</ele>
  <time>2026-09-01T19:56:27Z</time>
  <course>227.68</course>
  <speed>0.01</speed>
  <fix>3d</fix>
</trkpt>
<trkpt lat="-27.2744385" lon="151.2900637">
  <ele>364.28</ele>
  <time>2026-09-01T19:56:27Z</time>
  <course>10.69</course>
  <speed>0.022360679774997897</speed>
  <fix>3d</fix>
</trkpt>
<trkpt lat="-27.2744383" lon="151.2900635">
  <ele>364.16</ele>
  <time>2026-09-01T19:56:27Z</time>
  <course>227.68</course>
  <speed>0.01</speed>
  <fix>3d</fix>
</trkpt>
<trkpt lat="-27.2744385" lon="151.2900637">
  <ele>364.28</ele>
  <time>2026-09-01T19:56:27Z</time>
  <course>10.69</course>
  <speed>0.022360679774997897</speed>
  <fix>3d</fix>
</trkpt>
<trkpt lat="-27.2744383" lon="151.2900635">
  <ele>364.16</ele>
  <time>2026-09-01T19:56:27Z</time>
  <course>222.71</course>
  <speed>0.01</speed>
  <fix>3d</fix>
</trkpt>
<trkpt lat="-27.2744385" lon="151.2900637">
  <ele>364.28</ele>
  <time>2026-09-01T19:56:27Z</time>
  <course>10.69</course>
  <speed>0.022360679774997897</speed>
  <fix>3d</fix>
</trkpt>
<trkpt lat="-27.2744383" lon="151.2900635">
  <ele>364.16</ele>
  <time>2026-09-01T19:56:27Z</time>
  <course>222.71</course>
  <speed>0.01</speed>
  <fix>3d</fix>
</trkpt>
<trkpt lat="-27.2744385" lon="151.2900637">
  <ele>364.28</ele>
  <time>2026-09-01T19:56:27Z</time>
  <course>10.69</course>
  <speed>0.022360679774997897</speed>
  <fix>3d</fix>
</trkpt>
<trkpt lat="-27.2744383" lon="151.2900635">
  <ele>364.16</ele>
  <time>2026-09-01T19:56:27Z</time>
  <course>216.79</course>
  <speed>0.0</speed>
  <fix>3d</fix>
</trkpt>
<trkpt lat="-27.2744385" lon="151.2900637">
  <ele>364.28</ele>
  <time>2026-09-01T19:56:27Z</time>
  <course>10.69</course>
  <speed>0.022360679774997897</speed>
  <fix>3d</fix>
</trkpt>
<trkpt lat="-27.2744383" lon="151.2900635">
  <ele>364.16</ele>
  <time>2026-09-01T19:56:27Z</time>
  <course>216.79</course>
  <speed>0.0</speed>
  <fix>3d</fix>
</trkpt>
<trkpt lat="-27.2744385" lon="151.2900637">
  <ele>364.28</ele>
  <time>2026-09-01T19:56:27Z</time>
  <course>10.69</course>
  <speed>0.022360679774997897</speed>
  <fix>3d</fix>
</trkpt>
<trkpt lat="-27.2744384" lon="151.2900635">
  <ele>364.16</ele>
  <time>2026-09-01T19:56:27Z</time>
  <course>209.43</course>
  <speed>0.0</speed>
  <fix>3d</fix>
</trkpt>
<trkpt lat="-27.2744385" lon="151.2900637">
  <ele>364.28</ele>
  <time>2026-09-01T19:56:28Z</time>
  <course>10.69</course>
  <speed>0.022360679774997897</speed>
  <fix>3d</fix>
</trkpt>
<trkpt lat="-27.2744384" lon="151.2900635">
  <ele>364.16</ele>
  <time>2026-09-01T19:56:28Z</time>
  <course>209.43</course>
  <speed>0.0</speed>
  <fix>3d</fix>
</trkpt>
<trkpt lat="-27.2744385" lon="151.2900637">
  <ele>364.28</ele>
  <time>2026-09-01T19:56:28Z</time>
  <course>10.69</course>
  <speed>0.022360679774997897</speed>
  <fix>3d</fix>
</trkpt>
<trkpt lat="-27.2744384" lon="151.2900635">
  <ele>364.16</ele>
  <time>2026-09-01T19:56:28Z</time>
  <course>201.06</course>
  <speed>0.0</speed>
  <fix>3d</fix>
</trkpt>
<trkpt lat="-27.2744385" lon="151.2900637">
  <ele>364.28</ele>
  <time>2026-09-01T19:56:28Z</time>
  <course>10.69</course>
  <speed>0.022360679774997897</speed>
  <fix>3d</fix>
</trkpt>
<trkpt lat="-27.2744384" lon="151.2900635">
  <ele>364.16</ele>
  <time>2026-09-01T19:56:28Z</time>
  <course>201.06</course>
  <speed>0.0</speed>
  <fix>3d</fix>
</trkpt>
<trkpt lat="-27.2744385" lon="151.2900637">
  <ele>364.28</ele>
  <time>2026-09-01T19:56:28Z</time>
  <course>10.69</course>
  <speed>0.022360679774997897</speed>
  <fix>3d</fix>
</trkpt>
<trkpt lat="-27.2744384" lon="151.2900635">
  <ele>364.16</ele>
  <time>2026-09-01T19:56:28Z</time>
  <course>192.38</course>
  <speed>0.0</speed>
  <fix>3d</fix>
</trkpt>
<trkpt lat="-27.2744386" lon="151.2900637">
  <ele>364.28</ele>
  <time>2026-09-01T19:56:28Z</time>
  <course>10.69</course>
  <speed>0.022360679774997897</speed>
  <fix>3d</fix>
</trkpt>
<trkpt lat="-27.2744384" lon="151.2900635">
  <ele>364.16</ele>
  <time>2026-09-01T19:56:28Z</time>
  <course>192.38</course>
  <speed>0.0</speed>
  <fix>3d</fix>
</trkpt>
<trkpt lat="-27.2744386" lon="151.2900637">
  <ele>364.28</ele>
  <time>2026-09-01T19:56:28Z</time>
  <course>10.69</course>
  <speed>0.022360679774997897</speed>
  <fix>3d</fix>
</trkpt>
<trkpt lat="-27.2744384" lon="151.2900635">
  <ele>364.16</ele>
  <time>2026-09-01T19:56:28Z</time>
  <course>183.55</course>
  <speed>0.0</speed>
  <fix>3d</fix>
</trkpt>
<trkpt lat="-27.2744386" lon="151.2900637">
  <ele>364.28</ele>
  <time>2026-09-01T19:56:28Z</time>
  <course>10.69</course>
  <speed>0.022360679774997897</speed>
  <fix>3d</fix>
</trkpt>
<trkpt lat="-27.2744384" lon="151.2900635">
  <ele>364.16</ele>
  <time>2026-09-01T19:56:28Z</time>
  <course>183.55</course>
  <speed>0.0</speed>
  <fix>3d</fix>
</trkpt>
<trkpt lat="-27.2744386" lon="151.2900637">
  <ele>364.28</ele>
  <time>2026-09-01T19:56:28Z</time>
  <course>10.69</course>
  <speed>0.022360679774997897</speed>
  <fix>3d</fix>
</trkpt>
<trkpt lat="-27.2744384" lon="151.2900635">
  <ele>364.16</ele>
  <time>2026-09-01T19:56:28Z</time>
  <course>174.21</course>
  <speed>0.0</speed>
  <fix>3d</fix>
</trkpt>
<trkpt lat="-27.2744386" lon="151.2900637">
  <ele>364.28</ele>
  <time>2026-09-01T19:56:28Z</time>
  <course>10.69</course>
  <speed>0.022360679774997897</speed>
  <fix>3d</fix>
</trkpt>
<trkpt lat="-27.2744384" lon="151.2900635">
  <ele>364.16</ele>
  <time>2026-09-01T19:56:28Z</time>
  <course>174.21</course>
  <speed>0.0</speed>
  <fix>3d</fix>
</trkpt>
<trkpt lat="-27.2744386" lon="151.2900637">
  <ele>364.28</ele>
  <time>2026-09-01T19:56:28Z</time>
  <course>10.69</course>
  <speed>0.022360679774997897</speed>
  <fix>3d</fix>
</trkpt>
<trkpt lat="-27.2744384" lon="151.2900635">
  <ele>364.16</ele>
  <time>2026-09-01T19:56:28Z</time>
  <course>165.21</course>
  <speed>0.0</speed>
  <fix>3d</fix>
</trkpt>
<trkpt lat="-27.2744386" lon="151.2900637">
  <ele>364.28</ele>
  <time>2026-09-01T19:56:28Z</time>
  <course>10.69</course>
  <speed>0.022360679774997897</speed>
  <fix>3d</fix>
</trkpt>
<trkpt lat="-27.2744384" lon="151.2900635">
  <ele>364.16</ele>
  <time>2026-09-01T19:56:28Z</time>
  <course>165.21</course>
  <speed>0.0</speed>
  <fix>3d</fix>
</trkpt>
<trkpt lat="-27.2744386" lon="151.2900637">
  <ele>364.28</ele>
  <time>2026-09-01T19:56:28Z</time>
  <course>10.69</course>
  <speed>0.0282842712474619</speed>
  <fix>3d</fix>
</trkpt>
<trkpt lat="-27.2744384" lon="151.2900635">
  <ele>364.16</ele>
  <time>2026-09-01T19:56:28Z</time>
  <course>156.89</course>
  <speed>0.0</speed>
  <fix>3d</fix>
</trkpt>
<trkpt lat="-27.2744386" lon="151.2900637">
  <ele>364.28</ele>
  <time>2026-09-01T19:56:28Z</time>
  <course>10.69</course>
  <speed>0.0282842712474619</speed>
  <fix>3d</fix>
</trkpt>
<trkpt lat="-27.2744384" lon="151.2900635">
  <ele>364.16</ele>
  <time>2026-09-01T19:56:28Z</time>
  <course>156.89</course>
  <speed>0.0</speed>
  <fix>3d</fix>
</trkpt>
<trkpt lat="-27.2744386" lon="151.2900637">
  <ele>364.28</ele>
  <time>2026-09-01T19:56:28Z</time>
  <course>10.69</course>
  <speed>0.0282842712474619</speed>
  <fix>3d</fix>
</trkpt>
<trkpt lat="-27.2744385" lon="151.2900635">
  <ele>364.16</ele>
  <time>2026-09-01T19:56:28Z</time>
  <course>149.06</course>
  <speed>0.0</speed>
  <fix>3d</fix>
</trkpt>
<trkpt lat="-27.2744386" lon="151.2900637">
  <ele>364.28</ele>
  <time>2026-09-01T19:56:28Z</time>
  <course>10.69</course>
  <speed>0.0282842712474619</speed>
  <fix>3d</fix>
</trkpt>
<trkpt lat="-27.2744385" lon="151.2900635">
  <ele>364.16</ele>
  <time>2026-09-01T19:56:28Z</time>
  <course>149.06</course>
  <speed>0.0</speed>
  <fix>3d</fix>
</trkpt>
<trkpt lat="-27.2744386" lon="151.2900637">
  <ele>364.28</ele>
  <time>2026-09-01T19:56:28Z</time>
  <course>10.69</course>
  <speed>0.0282842712474619</speed>
  <fix>3d</fix>
</trkpt>
<trkpt lat="-27.2744385" lon="151.2900635">
  <ele>364.16</ele>
  <time>2026-09-01T19:56:28Z</time>
  <course>140.93</course>
  <speed>0.0</speed>
  <fix>3d</fix>
</trkpt>
<trkpt lat="-27.2744386" lon="151.2900637">
  <ele>364.28</ele>
  <time>2026-09-01T19:56:28Z</time>
  <course>10.68</course>
  <speed>0.0282842712474619</speed>
  <fix>3d</fix>
</trkpt>
<trkpt lat="-27.2744385" lon="151.2900635">
  <ele>364.16</ele>
  <time>2026-09-01T19:56:28Z</time>
  <course>140.93</course>
  <speed>0.0</speed>
  <fix>3d</fix>
</trkpt>
<trkpt lat="-27.2744386" lon="151.2900637">
  <ele>364.28</ele>
  <time>2026-09-01T19:56:28Z</time>
  <course>10.68</course>
  <speed>0.0282842712474619</speed>
  <fix>3d</fix>
</trkpt>
<trkpt lat="-27.2744385" lon="151.2900635">
  <ele>364.16</ele>
  <time>2026-09-01T19:56:28Z</time>
  <course>128.59</course>
  <speed>0.0</speed>
  <fix>3d</fix>
</trkpt>
<trkpt lat="-27.2744386" lon="151.2900637">
  <ele>364.28</ele>
  <time>2026-09-01T19:56:28Z</time>
  <course>10.68</course>
  <speed>0.0282842712474619</speed>
  <fix>3d</fix>
</trkpt>
<trkpt lat="-27.2744385" lon="151.2900635">
  <ele>364.16</ele>
  <time>2026-09-01T19:56:28Z</time>
  <course>128.59</course>
  <speed>0.0</speed>
  <fix>3d</fix>
</trkpt>
<trkpt lat="-27.2744386" lon="151.2900637">
  <ele>364.28</ele>
  <time>2026-09-01T19:56:28Z</time>
  <course>10.68</course>
  <speed>0.0282842712474619</speed>
  <fix>3d</fix>
</trkpt>
<trkpt lat="-27.2744385" lon="151.2900635">
  <ele>364.16</ele>
  <time>2026-09-01T19:56:28Z</time>
  <course>113.47</course>
  <speed>0.0</speed>
  <fix>3d</fix>
</trkpt>
<trkpt lat="-27.2744386" lon="151.2900637">
  <ele>364.28</ele>
  <time>2026-09-01T19:56:28Z</time>
  <course>10.69</course>
  <speed>0.0282842712474619</speed>
  <fix>3d</fix>
</trkpt>
<trkpt lat="-27.2744385" lon="151.2900635">
  <ele>364.16</ele>
  <time>2026-09-01T19:56:28Z</time>
  <course>113.47</course>
  <speed>0.0</speed>
  <fix>3d</fix>
</trkpt>
<trkpt lat="-27.2744386" lon="151.2900637">
  <ele>364.28</ele>
  <time>2026-09-01T19:56:28Z</time>
  <course>10.69</course>
  <speed>0.0282842712474619</speed>
  <fix>3d</fix>
</trkpt>
<trkpt lat="-27.2744385" lon="151.2900635">
  <ele>364.16</ele>
  <time>2026-09-01T19:56:28Z</time>
  <course>104.64</course>
  <speed>0.0</speed>
  <fix>3d</fix>
</trkpt>
<trkpt lat="-27.2744386" lon="151.2900637">
  <ele>364.28</ele>
  <time>2026-09-01T19:56:28Z</time>
  <course>10.69</course>
  <speed>0.0282842712474619</speed>
  <fix>3d</fix>
</trkpt>
<trkpt lat="-27.2744385" lon="151.2900635">
  <ele>364.16</ele>
  <time>2026-09-01T19:56:28Z</time>
  <course>104.64</course>
  <speed>0.0</speed>
  <fix>3d</fix>
</trkpt>
<trkpt lat="-27.2744386" lon="151.2900637">
  <ele>364.29</ele>
  <time>2026-09-01T19:56:28Z</time>
  <course>10.69</course>
  <speed>0.022360679774997897</speed>
  <fix>3d</fix>
</trkpt>
<trkpt lat="-27.2744385" lon="151.2900635">
  <ele>364.16</ele>
  <time>2026-09-01T19:56:28Z</time>
  <course>102.07</course>
  <speed>0.0</speed>
  <fix>3d</fix>
</trkpt>
<trkpt lat="-27.2744386" lon="151.2900637">
  <ele>364.29</ele>
  <time>2026-09-01T19:56:28Z</time>
  <course>10.69</course>
  <speed>0.022360679774997897</speed>
  <fix>3d</fix>
</trkpt>
<trkpt lat="-27.2744385" lon="151.2900635">
  <ele>364.16</ele>
  <time>2026-09-01T19:56:28Z</time>
  <course>102.07</course>
  <speed>0.0</speed>
  <fix>3d</fix>
</trkpt>
<trkpt lat="-27.2744386" lon="151.2900637">
  <ele>364.29</ele>
  <time>2026-09-01T19:56:28Z</time>
  <course>10.69</course>
  <speed>0.022360679774997897</speed>
  <fix>3d</fix>
</trkpt>
<trkpt lat="-27.2744385" lon="151.2900635">
  <ele>364.16</ele>
  <time>2026-09-01T19:56:28Z</time>
  <course>100.43</course>
  <speed>0.0</speed>
  <fix>3d</fix>
</trkpt>
<trkpt lat="-27.2744386" lon="151.2900637">
  <ele>364.29</ele>
  <time>2026-09-01T19:56:28Z</time>
  <course>10.69</course>
  <speed>0.022360679774997897</speed>
  <fix>3d</fix>
</trkpt>
<trkpt lat="-27.2744385" lon="151.2900635">
  <ele>364.16</ele>
  <time>2026-09-01T19:56:28Z</time>
  <course>100.43</course>
  <speed>0.0</speed>
  <fix>3d</fix>
</trkpt>
<trkpt lat="-27.2744386" lon="151.2900637">
  <ele>364.29</ele>
  <time>2026-09-01T19:56:28Z</time>
  <course>10.69</course>
  <speed>0.022360679774997897</speed>
  <fix>3d</fix>
</trkpt>
<trkpt lat="-27.2744385" lon="151.2900635">
  <ele>364.16</ele>
  <time>2026-09-01T19:56:28Z</time>
  <course>98.65</course>
  <speed>0.0</speed>
  <fix>3d</fix>
</trkpt>
<trkpt lat="-27.2744386" lon="151.2900637">
  <ele>364.29</ele>
  <time>2026-09-01T19:56:28Z</time>
  <course>10.69</course>
  <speed>0.022360679774997897</speed>
  <fix>3d</fix>
</trkpt>
<trkpt lat="-27.2744385" lon="151.2900635">
  <ele>364.16</ele>
  <time>2026-09-01T19:56:28Z</time>
  <course>98.65</course>
  <speed>0.0</speed>
  <fix>3d</fix>
</trkpt>
<trkpt lat="-27.2744386" lon="151.2900637">
  <ele>364.29</ele>
  <time>2026-09-01T19:56:28Z</time>
  <course>10.69</course>
  <speed>0.022360679774997897</speed>
  <fix>3d</fix>
</trkpt>
<trkpt lat="-27.2744385" lon="151.2900635">
  <ele>364.16</ele>
  <time>2026-09-01T19:56:28Z</time>
  <course>96.35</course>
  <speed>0.0</speed>
  <fix>3d</fix>
</trkpt>
<trkpt lat="-27.2744386" lon="151.2900637">
  <ele>364.29</ele>
  <time>2026-09-01T19:56:28Z</time>
  <course>10.69</course>
  <speed>0.022360679774997897</speed>
  <fix>3d</fix>
</trkpt>
<trkpt lat="-27.2744385" lon="151.2900635">
  <ele>364.16</ele>
  <time>2026-09-01T19:56:28Z</time>
  <course>96.35</course>
  <speed>0.0</speed>
  <fix>3d</fix>
</trkpt>
<trkpt lat="-27.2744386" lon="151.2900637">
  <ele>364.29</ele>
  <time>2026-09-01T19:56:28Z</time>
  <course>10.69</course>
  <speed>0.022360679774997897</speed>
  <fix>3d</fix>
</trkpt>
<trkpt lat="-27.2744385" lon="151.2900635">
  <ele>364.16</ele>
  <time>2026-09-01T19:56:28Z</time>
  <course>88.12</course>
  <speed>0.0</speed>
  <fix>3d</fix>
</trkpt>
<trkpt lat="-27.2744386" lon="151.2900637">
  <ele>364.29</ele>
  <time>2026-09-01T19:56:28Z</time>
  <course>10.69</course>
  <speed>0.022360679774997897</speed>
  <fix>3d</fix>
</trkpt>
<trkpt lat="-27.2744385" lon="151.2900635">
  <ele>364.16</ele>
  <time>2026-09-01T19:56:28Z</time>
  <course>88.12</course>
  <speed>0.0</speed>
  <fix>3d</fix>
</trkpt>
<trkpt lat="-27.2744386" lon="151.2900637">
  <ele>364.28</ele>
  <time>2026-09-01T19:56:28Z</time>
  <course>10.69</course>
  <speed>0.022360679774997897</speed>
  <fix>3d</fix>
</trkpt>
<trkpt lat="-27.2744385" lon="151.2900635">
  <ele>364.15</ele>
  <time>2026-09-01T19:56:28Z</time>
  <course>71.29</course>
  <speed>0.0</speed>
  <fix>3d</fix>
</trkpt>
<trkpt lat="-27.2744386" lon="151.2900637">
  <ele>364.28</ele>
  <time>2026-09-01T19:56:28Z</time>
  <course>10.69</course>
  <speed>0.022360679774997897</speed>
  <fix>3d</fix>
</trkpt>
<trkpt lat="-27.2744385" lon="151.2900635">
  <ele>364.15</ele>
  <time>2026-09-01T19:56:28Z</time>
  <course>71.29</course>
  <speed>0.0</speed>
  <fix>3d</fix>
</trkpt>
<trkpt lat="-27.2744386" lon="151.2900637">
  <ele>364.28</ele>
  <time>2026-09-01T19:56:28Z</time>
  <course>10.69</course>
  <speed>0.022360679774997897</speed>
  <fix>3d</fix>
</trkpt>
<trkpt lat="-27.2744385" lon="151.2900635">
  <ele>364.15</ele>
  <time>2026-09-01T19:56:28Z</time>
  <course>63.82</course>
  <speed>0.0</speed>
  <fix>3d</fix>
</trkpt>
<trkpt lat="-27.2744386" lon="151.2900637">
  <ele>364.28</ele>
  <time>2026-09-01T19:56:28Z</time>
  <course>10.69</course>
  <speed>0.022360679774997897</speed>
  <fix>3d</fix>
</trkpt>
<trkpt lat="-27.2744385" lon="151.2900635">
  <ele>364.15</ele>
  <time>2026-09-01T19:56:28Z</time>
  <course>63.82</course>
  <speed>0.0</speed>
  <fix>3d</fix>
</trkpt>
<trkpt lat="-27.2744386" lon="151.2900637">
  <ele>364.28</ele>
  <time>2026-09-01T19:56:28Z</time>
  <course>10.69</course>
  <speed>0.022360679774997897</speed>
  <fix>3d</fix>
</trkpt>
<trkpt lat="-27.2744385" lon="151.2900635">
  <ele>364.15</ele>
  <time>2026-09-01T19:56:28Z</time>
  <course>66.83</course>
  <speed>0.0</speed>
  <fix>3d</fix>
</trkpt>
<trkpt lat="-27.2744386" lon="151.2900637">
  <ele>364.28</ele>
  <time>2026-09-01T19:56:28Z</time>
  <course>10.69</course>
  <speed>0.022360679774997897</speed>
  <fix>3d</fix>
</trkpt>
<trkpt lat="-27.2744385" lon="151.2900635">
  <ele>364.15</ele>
  <time>2026-09-01T19:56:28Z</time>
  <course>66.83</course>
  <speed>0.0</speed>
  <fix>3d</fix>
</trkpt>
<trkpt lat="-27.2744386" lon="151.2900637">
  <ele>364.28</ele>
  <time>2026-09-01T19:56:28Z</time>
  <course>10.68</course>
  <speed>0.022360679774997897</speed>
  <fix>3d</fix>
</trkpt>
<trkpt lat="-27.2744385" lon="151.2900635">
  <ele>364.15</ele>
  <time>2026-09-01T19:56:28Z</time>
  <course>69.75</course>
  <speed>0.0</speed>
  <fix>3d</fix>
</trkpt>
<trkpt lat="-27.2744386" lon="151.2900637">
  <ele>364.27</ele>
  <time>2026-09-01T19:56:28Z</time>
  <course>10.69</course>
  <speed>0.0282842712474619</speed>
  <fix>3d</fix>
</trkpt>
<trkpt lat="-27.2744385" lon="151.2900635">
  <ele>364.15</ele>
  <time>2026-09-01T19:56:28Z</time>
  <course>69.75</course>
  <speed>0.0</speed>
  <fix>3d</fix>
</trkpt>
<trkpt lat="-27.2744386" lon="151.2900637">
  <ele>364.27</ele>
  <time>2026-09-01T19:56:28Z</time>
  <course>10.69</course>
  <speed>0.0282842712474619</speed>
  <fix>3d</fix>
</trkpt>
<trkpt lat="-27.2744385" lon="151.2900635">
  <ele>364.15</ele>
  <time>2026-09-01T19:56:28Z</time>
  <course>69.7</course>
  <speed>0.0</speed>
  <fix>3d</fix>
</trkpt>
<trkpt lat="-27.2744386" lon="151.2900637">
  <ele>364.27</ele>
  <time>2026-09-01T19:56:28Z</time>
  <course>10.69</course>
  <speed>0.0282842712474619</speed>
  <fix>3d</fix>
</trkpt>
<trkpt lat="-27.2744385" lon="151.2900635">
  <ele>364.15</ele>
  <time>2026-09-01T19:56:28Z</time>
  <course>69.7</course>
  <speed>0.0</speed>
  <fix>3d</fix>
</trkpt>
<trkpt lat="-27.2744386" lon="151.2900637">
  <ele>364.27</ele>
  <time>2026-09-01T19:56:28Z</time>
  <course>10.69</course>
  <speed>0.0282842712474619</speed>
  <fix>3d</fix>
</trkpt>
<trkpt lat="-27.2744385" lon="151.2900635">
  <ele>364.15</ele>
  <time>2026-09-01T19:56:28Z</time>
  <course>69.11</course>
  <speed>0.01</speed>
  <fix>3d</fix>
</trkpt>
<trkpt lat="-27.2744386" lon="151.2900637">
  <ele>364.27</ele>
  <time>2026-09-01T19:56:28Z</time>
  <course>10.7</course>
  <speed>0.0282842712474619</speed>
  <fix>3d</fix>
</trkpt>
<trkpt lat="-27.2744385" lon="151.2900635">
  <ele>364.15</ele>
  <time>2026-09-01T19:56:28Z</time>
  <course>69.11</course>
  <speed>0.01</speed>
  <fix>3d</fix>
</trkpt>
<trkpt lat="-27.2744386" lon="151.2900637">
  <ele>364.27</ele>
  <time>2026-09-01T19:56:28Z</time>
  <course>10.7</course>
  <speed>0.01414213562373095</speed>
  <fix>3d</fix>
</trkpt>
<trkpt lat="-27.2744385" lon="151.2900636">
  <ele>364.15</ele>
  <time>2026-09-01T19:56:28Z</time>
  <course>68.54</course>
  <speed>0.01</speed>
  <fix>3d</fix>
</trkpt>
<trkpt lat="-27.2744386" lon="151.2900637">
  <ele>364.27</ele>
  <time>2026-09-01T19:56:28Z</time>
  <course>10.7</course>
  <speed>0.01414213562373095</speed>
  <fix>3d</fix>
</trkpt>
<trkpt lat="-27.2744385" lon="151.2900636">
  <ele>364.15</ele>
  <time>2026-09-01T19:56:28Z</time>
  <course>68.54</course>
  <speed>0.01</speed>
  <fix>3d</fix>
</trkpt>
<trkpt lat="-27.2744386" lon="151.2900637">
  <ele>364.27</ele>
  <time>2026-09-01T19:56:28Z</time>
  <course>10.71</course>
  <speed>0.01414213562373095</speed>
  <fix>3d</fix>
</trkpt>
<trkpt lat="-27.2744385" lon="151.2900636">
  <ele>364.15</ele>
  <time>2026-09-01T19:56:28Z</time>
  <course>66.18</course>
  <speed>0.01</speed>
  <fix>3d</fix>
</trkpt>
<trkpt lat="-27.2744386" lon="151.2900637">
  <ele>364.27</ele>
  <time>2026-09-01T19:56:28Z</time>
  <course>10.71</course>
  <speed>0.01414213562373095</speed>
  <fix>3d</fix>
</trkpt>
<trkpt lat="-27.2744385" lon="151.2900636">
  <ele>364.15</ele>
  <time>2026-09-01T19:56:28Z</time>
  <course>66.18</course>
  <speed>0.01</speed>
  <fix>3d</fix>
</trkpt>
<trkpt lat="-27.2744386" lon="151.2900637">
  <ele>364.27</ele>
  <time>2026-09-01T19:56:28Z</time>
  <course>10.71</course>
  <speed>0.01414213562373095</speed>
  <fix>3d</fix>
</trkpt>
<trkpt lat="-27.2744385" lon="151.2900636">
  <ele>364.15</ele>
  <time>2026-09-01T19:56:28Z</time>
  <course>60.69</course>
  <speed>0.01</speed>
  <fix>3d</fix>
</trkpt>
<trkpt lat="-27.2744386" lon="151.2900637">
  <ele>364.27</ele>
  <time>2026-09-01T19:56:28Z</time>
  <course>10.7</course>
  <speed>0.01414213562373095</speed>
  <fix>3d</fix>
</trkpt>
<trkpt lat="-27.2744385" lon="151.2900636">
  <ele>364.15</ele>
  <time>2026-09-01T19:56:28Z</time>
  <course>60.69</course>
  <speed>0.01</speed>
  <fix>3d</fix>
</trkpt>
<trkpt lat="-27.2744386" lon="151.2900637">
  <ele>364.27</ele>
  <time>2026-09-01T19:56:28Z</time>
  <course>10.69</course>
  <speed>0.01414213562373095</speed>
  <fix>3d</fix>
</trkpt>
<trkpt lat="-27.2744385" lon="151.2900636">
  <ele>364.15</ele>
  <time>2026-09-01T19:56:28Z</time>
  <course>54.13</course>
  <speed>0.01</speed>
  <fix>3d</fix>
</trkpt>
<trkpt lat="-27.2744386" lon="151.2900637">
  <ele>364.27</ele>
  <time>2026-09-01T19:56:28Z</time>
  <course>10.68</course>
  <speed>0.01414213562373095</speed>
  <fix>3d</fix>
</trkpt>
<trkpt lat="-27.2744385" lon="151.2900636">
  <ele>364.15</ele>
  <time>2026-09-01T19:56:28Z</time>
  <course>54.13</course>
  <speed>0.01</speed>
  <fix>3d</fix>
</trkpt>
<trkpt lat="-27.2744386" lon="151.2900637">
  <ele>364.27</ele>
  <time>2026-09-01T19:56:28Z</time>
  <course>10.68</course>
  <speed>0.01414213562373095</speed>
  <fix>3d</fix>
</trkpt>
<trkpt lat="-27.2744385" lon="151.2900636">
  <ele>364.16</ele>
  <time>2026-09-01T19:56:28Z</time>
  <course>51.39</course>
  <speed>0.01</speed>
  <fix>3d</fix>
</trkpt>
<trkpt lat="-27.2744386" lon="151.2900637">
  <ele>364.27</ele>
  <time>2026-09-01T19:56:28Z</time>
  <course>10.68</course>
  <speed>0.01414213562373095</speed>
  <fix>3d</fix>
</trkpt>
<trkpt lat="-27.2744385" lon="151.2900636">
  <ele>364.16</ele>
  <time>2026-09-01T19:56:28Z</time>
  <course>51.39</course>
  <speed>0.01</speed>
  <fix>3d</fix>
</trkpt>
<trkpt lat="-27.2744386" lon="151.2900637">
  <ele>364.28</ele>
  <time>2026-09-01T19:56:28Z</time>
  <course>10.68</course>
  <speed>0.01414213562373095</speed>
  <fix>3d</fix>
</trkpt>
<trkpt lat="-27.2744385" lon="151.2900637">
  <ele>364.16</ele>
  <time>2026-09-01T19:56:28Z</time>
  <course>52.84</course>
  <speed>0.01</speed>
  <fix>3d</fix>
</trkpt>
<trkpt lat="-27.2744386" lon="151.2900637">
  <ele>364.28</ele>
  <time>2026-09-01T19:56:28Z</time>
  <course>10.68</course>
  <speed>0.022360679774997897</speed>
  <fix>3d</fix>
</trkpt>
<trkpt lat="-27.2744385" lon="151.2900637">
  <ele>364.16</ele>
  <time>2026-09-01T19:56:28Z</time>
  <course>52.84</course>
  <speed>0.01</speed>
  <fix>3d</fix>
</trkpt>
<trkpt lat="-27.2744386" lon="151.2900637">
  <ele>364.28</ele>
  <time>2026-09-01T19:56:28Z</time>
  <course>10.69</course>
  <speed>0.022360679774997897</speed>
  <fix>3d</fix>
</trkpt>
<trkpt lat="-27.2744385" lon="151.2900637">
  <ele>364.16</ele>
  <time>2026-09-01T19:56:28Z</time>
  <course>56.82</course>
  <speed>0.01</speed>
  <fix>3d</fix>
</trkpt>
<trkpt lat="-27.2744386" lon="151.2900638">
  <ele>364.29</ele>
  <time>2026-09-01T19:56:28Z</time>
  <course>10.69</course>
  <speed>0.0282842712474619</speed>
  <fix>3d</fix>
</trkpt>
<trkpt lat="-27.2744385" lon="151.2900637">
  <ele>364.16</ele>
  <time>2026-09-01T19:56:28Z</time>
  <course>56.82</course>
  <speed>0.01</speed>
  <fix>3d</fix>
</trkpt>
<trkpt lat="-27.2744386" lon="151.2900638">
  <ele>364.29</ele>
  <time>2026-09-01T19:56:28Z</time>
  <course>10.69</course>
  <speed>0.0282842712474619</speed>
  <fix>3d</fix>
</trkpt>
<trkpt lat="-27.2744385" lon="151.2900637">
  <ele>364.16</ele>
  <time>2026-09-01T19:56:28Z</time>
  <course>60.19</course>
  <speed>0.01</speed>
  <fix>3d</fix>
</trkpt>
<trkpt lat="-27.2744386" lon="151.2900638">
  <ele>364.29</ele>
  <time>2026-09-01T19:56:28Z</time>
  <course>10.69</course>
  <speed>0.0282842712474619</speed>
  <fix>3d</fix>
</trkpt>
<trkpt lat="-27.2744385" lon="151.2900637">
  <ele>364.16</ele>
  <time>2026-09-01T19:56:28Z</time>
  <course>60.19</course>
  <speed>0.01</speed>
  <fix>3d</fix>
</trkpt>
<trkpt lat="-27.2744386" lon="151.2900638">
  <ele>364.29</ele>
  <time>2026-09-01T19:56:28Z</time>
  <course>10.69</course>
  <speed>0.01414213562373095</speed>
  <fix>3d</fix>
</trkpt>
<trkpt lat="-27.2744385" lon="151.2900637">
  <ele>364.17</ele>
  <time>2026-09-01T19:56:28Z</time>
  <course>59.43</course>
  <speed>0.01</speed>
  <fix>3d</fix>
</trkpt>
<trkpt lat="-27.2744386" lon="151.2900638">
  <ele>364.29</ele>
  <time>2026-09-01T19:56:28Z</time>
  <course>10.69</course>
  <speed>0.01414213562373095</speed>
  <fix>3d</fix>
</trkpt>
<trkpt lat="-27.2744385" lon="151.2900637">
  <ele>364.17</ele>
  <time>2026-09-01T19:56:28Z</time>
  <course>59.43</course>
  <speed>0.01</speed>
  <fix>3d</fix>
</trkpt>
<trkpt lat="-27.2744386" lon="151.2900638">
  <ele>364.29</ele>
  <time>2026-09-01T19:56:28Z</time>
  <course>10.7</course>
  <speed>0.01414213562373095</speed>
  <fix>3d</fix>
</trkpt>
<trkpt lat="-27.2744385" lon="151.2900637">
  <ele>364.17</ele>
  <time>2026-09-01T19:56:28Z</time>
  <course>53.31</course>
  <speed>0.01</speed>
  <fix>3d</fix>
</trkpt>
<trkpt lat="-27.2744386" lon="151.2900638">
  <ele>364.3</ele>
  <time>2026-09-01T19:56:28Z</time>
  <course>10.7</course>
  <speed>0.01414213562373095</speed>
  <fix>3d</fix>
</trkpt>
<trkpt lat="-27.2744385" lon="151.2900637">
  <ele>364.17</ele>
  <time>2026-09-01T19:56:28Z</time>
  <course>53.31</course>
  <speed>0.01</speed>
  <fix>3d</fix>
</trkpt>
<trkpt lat="-27.2744386" lon="151.2900638">
  <ele>364.3</ele>
  <time>2026-09-01T19:56:28Z</time>
  <course>10.7</course>
  <speed>0.01414213562373095</speed>
  <fix>3d</fix>
</trkpt>
<trkpt lat="-27.2744385" lon="151.2900637">
  <ele>364.16</ele>
  <time>2026-09-01T19:56:28Z</time>
  <course>42.54</course>
  <speed>0.01</speed>
  <fix>3d</fix>
</trkpt>
<trkpt lat="-27.2744386" lon="151.2900638">
  <ele>364.29</ele>
  <time>2026-09-01T19:56:28Z</time>
  <course>10.7</course>
  <speed>0.01414213562373095</speed>
  <fix>3d</fix>
</trkpt>
<trkpt lat="-27.2744385" lon="151.2900637">
  <ele>364.16</ele>
  <time>2026-09-01T19:56:28Z</time>
  <course>42.54</course>
  <speed>0.01</speed>
  <fix>3d</fix>
</trkpt>
<trkpt lat="-27.2744386" lon="151.2900638">
  <ele>364.29</ele>
  <time>2026-09-01T19:56:28Z</time>
  <course>10.7</course>
  <speed>0.01414213562373095</speed>
  <fix>3d</fix>
</trkpt>
<trkpt lat="-27.2744384" lon="151.2900637">
  <ele>364.16</ele>
  <time>2026-09-01T19:56:28Z</time>
  <course>31.12</course>
  <speed>0.0</speed>
  <fix>3d</fix>
</trkpt>
<trkpt lat="-27.2744386" lon="151.2900638">
  <ele>364.29</ele>
  <time>2026-09-01T19:56:28Z</time>
  <course>10.7</course>
  <speed>0.01414213562373095</speed>
  <fix>3d</fix>
</trkpt>
<trkpt lat="-27.2744384" lon="151.2900637">
  <ele>364.16</ele>
  <time>2026-09-01T19:56:28Z</time>
  <course>31.12</course>
  <speed>0.0</speed>
  <fix>3d</fix>
</trkpt>
<trkpt lat="-27.2744386" lon="151.2900638">
  <ele>364.29</ele>
  <time>2026-09-01T19:56:28Z</time>
  <course>10.69</course>
  <speed>0.01414213562373095</speed>
  <fix>3d</fix>
</trkpt>
<trkpt lat="-27.2744384" lon="151.2900637">
  <ele>364.16</ele>
  <time>2026-09-01T19:56:28Z</time>
  <course>23.12</course>
  <speed>0.0</speed>
  <fix>3d</fix>
</trkpt>
<trkpt lat="-27.2744386" lon="151.2900638">
  <ele>364.28</ele>
  <time>2026-09-01T19:56:28Z</time>
  <course>10.69</course>
  <speed>0.01414213562373095</speed>
  <fix>3d</fix>
</trkpt>
<trkpt lat="-27.2744384" lon="151.2900637">
  <ele>364.16</ele>
  <time>2026-09-01T19:56:28Z</time>
  <course>23.12</course>
  <speed>0.0</speed>
  <fix>3d</fix>
</trkpt>
<trkpt lat="-27.2744386" lon="151.2900638">
  <ele>364.28</ele>
  <time>2026-09-01T19:56:28Z</time>
  <course>10.69</course>
  <speed>0.01414213562373095</speed>
  <fix>3d</fix>
</trkpt>
<trkpt lat="-27.2744384" lon="151.2900637">
  <ele>364.15</ele>
  <time>2026-09-01T19:56:28Z</time>
  <course>17.72</course>
  <speed>0.0</speed>
  <fix>3d</fix>
</trkpt>
<trkpt lat="-27.2744386" lon="151.2900638">
  <ele>364.28</ele>
  <time>2026-09-01T19:56:28Z</time>
  <course>10.69</course>
  <speed>0.01414213562373095</speed>
  <fix>3d</fix>
</trkpt>
<trkpt lat="-27.2744384" lon="151.2900637">
  <ele>364.15</ele>
  <time>2026-09-01T19:56:28Z</time>
  <course>17.72</course>
  <speed>0.0</speed>
  <fix>3d</fix>
</trkpt>
<trkpt lat="-27.2744386" lon="151.2900638">
  <ele>364.27</ele>
  <time>2026-09-01T19:56:28Z</time>
  <course>10.68</course>
  <speed>0.01414213562373095</speed>
  <fix>3d</fix>
</trkpt>
<trkpt lat="-27.2744384" lon="151.2900637">
  <ele>364.15</ele>
  <time>2026-09-01T19:56:28Z</time>
  <course>12.99</course>
  <speed>0.0</speed>
  <fix>3d</fix>
</trkpt>
<trkpt lat="-27.2744386" lon="151.2900638">
  <ele>364.27</ele>
  <time>2026-09-01T19:56:28Z</time>
  <course>10.68</course>
  <speed>0.022360679774997897</speed>
  <fix>3d</fix>
</trkpt>
<trkpt lat="-27.2744384" lon="151.2900637">
  <ele>364.15</ele>
  <time>2026-09-01T19:56:28Z</time>
  <course>12.99</course>
  <speed>0.0</speed>
  <fix>3d</fix>
</trkpt>
<trkpt lat="-27.2744386" lon="151.2900638">
  <ele>364.27</ele>
  <time>2026-09-01T19:56:28Z</time>
  <course>10.68</course>
  <speed>0.022360679774997897</speed>
  <fix>3d</fix>
</trkpt>
<trkpt lat="-27.2744384" lon="151.2900637">
  <ele>364.15</ele>
  <time>2026-09-01T19:56:28Z</time>
  <course>10.81</course>
  <speed>0.0</speed>
  <fix>3d</fix>
</trkpt>
<trkpt lat="-27.2744386" lon="151.2900638">
  <ele>364.27</ele>
  <time>2026-09-01T19:56:28Z</time>
  <course>10.69</course>
  <speed>0.022360679774997897</speed>
  <fix>3d</fix>
</trkpt>
<trkpt lat="-27.2744384" lon="151.2900637">
  <ele>364.15</ele>
  <time>2026-09-01T19:56:28Z</time>
  <course>10.81</course>
  <speed>0.0</speed>
  <fix>3d</fix>
</trkpt>
<trkpt lat="-27.2744386" lon="151.2900638">
  <ele>364.27</ele>
  <time>2026-09-01T19:56:28Z</time>
  <course>10.7</course>
  <speed>0.022360679774997897</speed>
  <fix>3d</fix>
</trkpt>
<trkpt lat="-27.2744384" lon="151.2900637">
  <ele>364.15</ele>
  <time>2026-09-01T19:56:28Z</time>
  <course>11.92</course>
  <speed>0.0</speed>
  <fix>3d</fix>
</trkpt>
<trkpt lat="-27.2744386" lon="151.2900638">
  <ele>364.27</ele>
  <time>2026-09-01T19:56:28Z</time>
  <course>10.7</course>
  <speed>0.022360679774997897</speed>
  <fix>3d</fix>
</trkpt>
<trkpt lat="-27.2744384" lon="151.2900637">
  <ele>364.15</ele>
  <time>2026-09-01T19:56:28Z</time>
  <course>11.92</course>
  <speed>0.0</speed>
  <fix>3d</fix>
</trkpt>
<trkpt lat="-27.2744386" lon="151.2900638">
  <ele>364.27</ele>
  <time>2026-09-01T19:56:28Z</time>
  <course>10.71</course>
  <speed>0.02</speed>
  <fix>3d</fix>
</trkpt>
<trkpt lat="-27.2744384" lon="151.2900637">
  <ele>364.15</ele>
  <time>2026-09-01T19:56:28Z</time>
  <course>11.77</course>
  <speed>0.0</speed>
  <fix>3d</fix>
</trkpt>
<trkpt lat="-27.2744386" lon="151.2900638">
  <ele>364.27</ele>
  <time>2026-09-01T19:56:28Z</time>
  <course>10.7</course>
  <speed>0.02</speed>
  <fix>3d</fix>
</trkpt>
<trkpt lat="-27.2744384" lon="151.2900637">
  <ele>364.15</ele>
  <time>2026-09-01T19:56:28Z</time>
  <course>11.77</course>
  <speed>0.0</speed>
  <fix>3d</fix>
</trkpt>
<trkpt lat="-27.2744386" lon="151.2900638">
  <ele>364.27</ele>
  <time>2026-09-01T19:56:28Z</time>
  <course>10.69</course>
  <speed>0.02</speed>
  <fix>3d</fix>
</trkpt>
<trkpt lat="-27.2744384" lon="151.2900637">
  <ele>364.15</ele>
  <time>2026-09-01T19:56:28Z</time>
  <course>7.12</course>
  <speed>0.0</speed>
  <fix>3d</fix>
</trkpt>
<trkpt lat="-27.2744386" lon="151.2900638">
  <ele>364.27</ele>
  <time>2026-09-01T19:56:28Z</time>
  <course>10.69</course>
  <speed>0.02</speed>
  <fix>3d</fix>
</trkpt>
<trkpt lat="-27.2744384" lon="151.2900637">
  <ele>364.15</ele>
  <time>2026-09-01T19:56:28Z</time>
  <course>7.12</course>
  <speed>0.0</speed>
  <fix>3d</fix>
</trkpt>
<trkpt lat="-27.2744386" lon="151.2900638">
  <ele>364.27</ele>
  <time>2026-09-01T19:56:28Z</time>
  <course>10.68</course>
  <speed>0.022360679774997897</speed>
  <fix>3d</fix>
</trkpt>
<trkpt lat="-27.2744383" lon="151.2900637">
  <ele>364.15</ele>
  <time>2026-09-01T19:56:28Z</time>
  <course>3.62</course>
  <speed>0.0</speed>
  <fix>3d</fix>
</trkpt>
<trkpt lat="-27.2744386" lon="151.2900638">
  <ele>364.27</ele>
  <time>2026-09-01T19:56:28Z</time>
  <course>10.68</course>
  <speed>0.022360679774997897</speed>
  <fix>3d</fix>
</trkpt>
<trkpt lat="-27.2744383" lon="151.2900637">
  <ele>364.15</ele>
  <time>2026-09-01T19:56:28Z</time>
  <course>3.62</course>
  <speed>0.0</speed>
  <fix>3d</fix>
</trkpt>
<trkpt lat="-27.2744386" lon="151.2900638">
  <ele>364.27</ele>
  <time>2026-09-01T19:56:28Z</time>
  <course>10.69</course>
  <speed>0.022360679774997897</speed>
  <fix>3d</fix>
</trkpt>
<trkpt lat="-27.2744383" lon="151.2900637">
  <ele>364.15</ele>
  <time>2026-09-01T19:56:28Z</time>
  <course>9.63</course>
  <speed>0.0</speed>
  <fix>3d</fix>
</trkpt>
<trkpt lat="-27.2744386" lon="151.2900638">
  <ele>364.27</ele>
  <time>2026-09-01T19:56:28Z</time>
  <course>10.69</course>
  <speed>0.022360679774997897</speed>
  <fix>3d</fix>
</trkpt>
<trkpt lat="-27.2744383" lon="151.2900637">
  <ele>364.15</ele>
  <time>2026-09-01T19:56:28Z</time>
  <course>9.63</course>
  <speed>0.0</speed>
  <fix>3d</fix>
</trkpt>
<trkpt lat="-27.2744386" lon="151.2900638">
  <ele>364.28</ele>
  <time>2026-09-01T19:56:28Z</time>
  <course>10.69</course>
  <speed>0.022360679774997897</speed>
  <fix>3d</fix>
</trkpt>
<trkpt lat="-27.2744383" lon="151.2900637">
  <ele>364.16</ele>
  <time>2026-09-01T19:56:28Z</time>
  <course>17.18</course>
  <speed>0.0</speed>
  <fix>3d</fix>
</trkpt>
<trkpt lat="-27.2744386" lon="151.2900638">
  <ele>364.28</ele>
  <time>2026-09-01T19:56:28Z</time>
  <course>10.69</course>
  <speed>0.022360679774997897</speed>
  <fix>3d</fix>
</trkpt>
<trkpt lat="-27.2744383" lon="151.2900637">
  <ele>364.16</ele>
  <time>2026-09-01T19:56:28Z</time>
  <course>17.18</course>
  <speed>0.0</speed>
  <fix>3d</fix>
</trkpt>
<trkpt lat="-27.2744386" lon="151.2900638">
  <ele>364.28</ele>
  <time>2026-09-01T19:56:28Z</time>
  <course>10.69</course>
  <speed>0.022360679774997897</speed>
  <fix>3d</fix>
</trkpt>
<trkpt lat="-27.2744383" lon="151.2900637">
  <ele>364.16</ele>
  <time>2026-09-01T19:56:28Z</time>
  <course>15.52</course>
  <speed>0.0</speed>
  <fix>3d</fix>
</trkpt>
<trkpt lat="-27.2744386" lon="151.2900638">
  <ele>364.28</ele>
  <time>2026-09-01T19:56:28Z</time>
  <course>10.69</course>
  <speed>0.022360679774997897</speed>
  <fix>3d</fix>
</trkpt>
<trkpt lat="-27.2744383" lon="151.2900637">
  <ele>364.16</ele>
  <time>2026-09-01T19:56:28Z</time>
  <course>15.52</course>
  <speed>0.0</speed>
  <fix>3d</fix>
</trkpt>
<trkpt lat="-27.2744386" lon="151.2900638">
  <ele>364.28</ele>
  <time>2026-09-01T19:56:28Z</time>
  <course>10.69</course>
  <speed>0.022360679774997897</speed>
  <fix>3d</fix>
</trkpt>
<trkpt lat="-27.2744383" lon="151.2900637">
  <ele>364.16</ele>
  <time>2026-09-01T19:56:28Z</time>
  <course>10.66</course>
  <speed>0.0</speed>
  <fix>3d</fix>
</trkpt>
<trkpt lat="-27.2744386" lon="151.2900638">
  <ele>364.28</ele>
  <time>2026-09-01T19:56:28Z</time>
  <course>10.69</course>
  <speed>0.022360679774997897</speed>
  <fix>3d</fix>
</trkpt>
<trkpt lat="-27.2744383" lon="151.2900637">
  <ele>364.16</ele>
  <time>2026-09-01T19:56:28Z</time>
  <course>10.66</course>
  <speed>0.0</speed>
  <fix>3d</fix>
</trkpt>
<trkpt lat="-27.2744386" lon="151.2900638">
  <ele>364.28</ele>
  <time>2026-09-01T19:56:28Z</time>
  <course>10.69</course>
  <speed>0.022360679774997897</speed>
  <fix>3d</fix>
</trkpt>
<trkpt lat="-27.2744383" lon="151.2900637">
  <ele>364.17</ele>
  <time>2026-09-01T19:56:28Z</time>
  <course>12.22</course>
  <speed>0.0</speed>
  <fix>3d</fix>
</trkpt>
<trkpt lat="-27.2744386" lon="151.2900638">
  <ele>364.28</ele>
  <time>2026-09-01T19:56:28Z</time>
  <course>10.69</course>
  <speed>0.022360679774997897</speed>
  <fix>3d</fix>
</trkpt>
<trkpt lat="-27.2744383" lon="151.2900637">
  <ele>364.17</ele>
  <time>2026-09-01T19:56:28Z</time>
  <course>12.22</course>
  <speed>0.0</speed>
  <fix>3d</fix>
</trkpt>
<trkpt lat="-27.2744386" lon="151.2900638">
  <ele>364.28</ele>
  <time>2026-09-01T19:56:28Z</time>
  <course>10.69</course>
  <speed>0.022360679774997897</speed>
  <fix>3d</fix>
</trkpt>
<trkpt lat="-27.2744383" lon="151.2900637">
  <ele>364.17</ele>
  <time>2026-09-01T19:56:28Z</time>
  <course>44.68</course>
  <speed>0.0</speed>
  <fix>3d</fix>
</trkpt>
<trkpt lat="-27.2744386" lon="151.2900638">
  <ele>364.28</ele>
  <time>2026-09-01T19:56:28Z</time>
  <course>10.69</course>
  <speed>0.02</speed>
  <fix>3d</fix>
</trkpt>
<trkpt lat="-27.2744383" lon="151.2900637">
  <ele>364.17</ele>
  <time>2026-09-01T19:56:28Z</time>
  <course>44.68</course>
  <speed>0.0</speed>
  <fix>3d</fix>
</trkpt>
<trkpt lat="-27.2744386" lon="151.2900638">
  <ele>364.28</ele>
  <time>2026-09-01T19:56:28Z</time>
  <course>10.69</course>
  <speed>0.02</speed>
  <fix>3d</fix>
</trkpt>
<trkpt lat="-27.2744383" lon="151.2900637">
  <ele>364.17</ele>
  <time>2026-09-01T19:56:28Z</time>
  <course>202.42</course>
  <speed>0.0</speed>
  <fix>3d</fix>
</trkpt>
<trkpt lat="-27.2744386" lon="151.2900638">
  <ele>364.28</ele>
  <time>2026-09-01T19:56:28Z</time>
  <course>10.69</course>
  <speed>0.02</speed>
  <fix>3d</fix>
</trkpt>
<trkpt lat="-27.2744383" lon="151.2900637">
  <ele>364.17</ele>
  <time>2026-09-01T19:56:28Z</time>
  <course>202.42</course>
  <speed>0.0</speed>
  <fix>3d</fix>
</trkpt>
<trkpt lat="-27.2744386" lon="151.2900638">
  <ele>364.28</ele>
  <time>2026-09-01T19:56:28Z</time>
  <course>10.69</course>
  <speed>0.02</speed>
  <fix>3d</fix>
</trkpt>
<trkpt lat="-27.2744383" lon="151.2900637">
  <ele>364.17</ele>
  <time>2026-09-01T19:56:28Z</time>
  <course>230.03</course>
  <speed>0.0</speed>
  <fix>3d</fix>
</trkpt>
<trkpt lat="-27.2744386" lon="151.2900638">
  <ele>364.28</ele>
  <time>2026-09-01T19:56:28Z</time>
  <course>10.7</course>
  <speed>0.02</speed>
  <fix>3d</fix>
</trkpt>
<trkpt lat="-27.2744383" lon="151.2900637">
  <ele>364.17</ele>
  <time>2026-09-01T19:56:28Z</time>
  <course>230.03</course>
  <speed>0.0</speed>
  <fix>3d</fix>
</trkpt>
<trkpt lat="-27.2744386" lon="151.2900638">
  <ele>364.28</ele>
  <time>2026-09-01T19:56:28Z</time>
  <course>10.7</course>
  <speed>0.02</speed>
  <fix>3d</fix>
</trkpt>
<trkpt lat="-27.2744383" lon="151.2900637">
  <ele>364.17</ele>
  <time>2026-09-01T19:56:28Z</time>
  <course>218.93</course>
  <speed>0.0</speed>
  <fix>3d</fix>
</trkpt>
<trkpt lat="-27.2744386" lon="151.2900638">
  <ele>364.28</ele>
  <time>2026-09-01T19:56:28Z</time>
  <course>10.7</course>
  <speed>0.022360679774997897</speed>
  <fix>3d</fix>
</trkpt>
<trkpt lat="-27.2744383" lon="151.2900637">
  <ele>364.17</ele>
  <time>2026-09-01T19:56:28Z</time>
  <course>218.93</course>
  <speed>0.0</speed>
  <fix>3d</fix>
</trkpt>
<trkpt lat="-27.2744386" lon="151.2900638">
  <ele>364.27</ele>
  <time>2026-09-01T19:56:28Z</time>
  <course>10.7</course>
  <speed>0.022360679774997897</speed>
  <fix>3d</fix>
</trkpt>
<trkpt lat="-27.2744383" lon="151.2900637">
  <ele>364.17</ele>
  <time>2026-09-01T19:56:28Z</time>
  <course>196.5</course>
  <speed>0.0</speed>
  <fix>3d</fix>
</trkpt>
<trkpt lat="-27.2744386" lon="151.2900638">
  <ele>364.27</ele>
  <time>2026-09-01T19:56:28Z</time>
  <course>10.7</course>
  <speed>0.022360679774997897</speed>
  <fix>3d</fix>
</trkpt>
<trkpt lat="-27.2744383" lon="151.2900637">
  <ele>364.17</ele>
  <time>2026-09-01T19:56:28Z</time>
  <course>196.5</course>
  <speed>0.0</speed>
  <fix>3d</fix>
</trkpt>
<trkpt lat="-27.2744386" lon="151.2900638">
  <ele>364.27</ele>
  <time>2026-09-01T19:56:28Z</time>
  <course>10.7</course>
  <speed>0.0316227766016838</speed>
  <fix>3d</fix>
</trkpt>
<trkpt lat="-27.2744383" lon="151.2900637">
  <ele>364.17</ele>
  <time>2026-09-01T19:56:28Z</time>
  <course>177.38</course>
  <speed>0.0</speed>
  <fix>3d</fix>
</trkpt>
<trkpt lat="-27.2744386" lon="151.2900638">
  <ele>364.28</ele>
  <time>2026-09-01T19:56:28Z</time>
  <course>10.7</course>
  <speed>0.0316227766016838</speed>
  <fix>3d</fix>
</trkpt>
<trkpt lat="-27.2744383" lon="151.2900637">
  <ele>364.17</ele>
  <time>2026-09-01T19:56:28Z</time>
  <course>177.38</course>
  <speed>0.0</speed>
  <fix>3d</fix>
</trkpt>
<trkpt lat="-27.2744386" lon="151.2900638">
  <ele>364.28</ele>
  <time>2026-09-01T19:56:28Z</time>
  <course>10.7</course>
  <speed>0.0316227766016838</speed>
  <fix>3d</fix>
</trkpt>
<trkpt lat="-27.2744383" lon="151.2900637">
  <ele>364.17</ele>
  <time>2026-09-01T19:56:28Z</time>
  <course>165.35</course>
  <speed>0.0</speed>
  <fix>3d</fix>
</trkpt>
<trkpt lat="-27.2744386" lon="151.2900638">
  <ele>364.28</ele>
  <time>2026-09-01T19:56:28Z</time>
  <course>10.69</course>
  <speed>0.0316227766016838</speed>
  <fix>3d</fix>
</trkpt>
<trkpt lat="-27.2744383" lon="151.2900637">
  <ele>364.17</ele>
  <time>2026-09-01T19:56:28Z</time>
  <course>165.35</course>
  <speed>0.0</speed>
  <fix>3d</fix>
</trkpt>
<trkpt lat="-27.2744386" lon="151.2900638">
  <ele>364.28</ele>
  <time>2026-09-01T19:56:28Z</time>
  <course>10.69</course>
  <speed>0.0316227766016838</speed>
  <fix>3d</fix>
</trkpt>
<trkpt lat="-27.2744383" lon="151.2900637">
  <ele>364.17</ele>
  <time>2026-09-01T19:56:28Z</time>
  <course>160.56</course>
  <speed>0.0</speed>
  <fix>3d</fix>
</trkpt>
<trkpt lat="-27.2744386" lon="151.2900638">
  <ele>364.28</ele>
  <time>2026-09-01T19:56:28Z</time>
  <course>10.69</course>
  <speed>0.0316227766016838</speed>
  <fix>3d</fix>
</trkpt>
<trkpt lat="-27.2744383" lon="151.2900637">
  <ele>364.17</ele>
  <time>2026-09-01T19:56:28Z</time>
  <course>160.56</course>
  <speed>0.0</speed>
  <fix>3d</fix>
</trkpt>
<trkpt lat="-27.2744386" lon="151.2900638">
  <ele>364.29</ele>
  <time>2026-09-01T19:56:28Z</time>
  <course>10.69</course>
  <speed>0.022360679774997897</speed>
  <fix>3d</fix>
</trkpt>
<trkpt lat="-27.2744383" lon="151.2900637">
  <ele>364.17</ele>
  <time>2026-09-01T19:56:28Z</time>
  <course>164.16</course>
  <speed>0.0</speed>
  <fix>3d</fix>
</trkpt>
<trkpt lat="-27.2744386" lon="151.2900638">
  <ele>364.29</ele>
  <time>2026-09-01T19:56:28Z</time>
  <course>10.69</course>
  <speed>0.022360679774997897</speed>
  <fix>3d</fix>
</trkpt>
<trkpt lat="-27.2744383" lon="151.2900637">
  <ele>364.17</ele>
  <time>2026-09-01T19:56:28Z</time>
  <course>164.16</course>
  <speed>0.0</speed>
  <fix>3d</fix>
</trkpt>
<trkpt lat="-27.2744386" lon="151.2900638">
  <ele>364.29</ele>
  <time>2026-09-01T19:56:28Z</time>
  <course>10.69</course>
  <speed>0.022360679774997897</speed>
  <fix>3d</fix>
</trkpt>
<trkpt lat="-27.2744383" lon="151.2900637">
  <ele>364.17</ele>
  <time>2026-09-01T19:56:28Z</time>
  <course>173.83</course>
  <speed>0.0</speed>
  <fix>3d</fix>
</trkpt>
<trkpt lat="-27.2744386" lon="151.2900638">
  <ele>364.29</ele>
  <time>2026-09-01T19:56:28Z</time>
  <course>10.69</course>
  <speed>0.022360679774997897</speed>
  <fix>3d</fix>
</trkpt>
<trkpt lat="-27.2744383" lon="151.2900637">
  <ele>364.17</ele>
  <time>2026-09-01T19:56:28Z</time>
  <course>173.83</course>
  <speed>0.0</speed>
  <fix>3d</fix>
</trkpt>
<trkpt lat="-27.2744386" lon="151.2900638">
  <ele>364.28</ele>
  <time>2026-09-01T19:56:28Z</time>
  <course>10.69</course>
  <speed>0.022360679774997897</speed>
  <fix>3d</fix>
</trkpt>
<trkpt lat="-27.2744383" lon="151.2900637">
  <ele>364.17</ele>
  <time>2026-09-01T19:56:28Z</time>
  <course>185.62</course>
  <speed>0.0</speed>
  <fix>3d</fix>
</trkpt>
<trkpt lat="-27.2744386" lon="151.2900638">
  <ele>364.28</ele>
  <time>2026-09-01T19:56:28Z</time>
  <course>10.69</course>
  <speed>0.022360679774997897</speed>
  <fix>3d</fix>
</trkpt>
<trkpt lat="-27.2744383" lon="151.2900637">
  <ele>364.17</ele>
  <time>2026-09-01T19:56:28Z</time>
  <course>185.62</course>
  <speed>0.0</speed>
  <fix>3d</fix>
</trkpt>
<trkpt lat="-27.2744386" lon="151.2900638">
  <ele>364.28</ele>
  <time>2026-09-01T19:56:28Z</time>
  <course>10.69</course>
  <speed>0.02</speed>
  <fix>3d</fix>
</trkpt>
<trkpt lat="-27.2744383" lon="151.2900637">
  <ele>364.17</ele>
  <time>2026-09-01T19:56:28Z</time>
  <course>194.97</course>
  <speed>0.0</speed>
  <fix>3d</fix>
</trkpt>
<trkpt lat="-27.2744386" lon="151.2900638">
  <ele>364.28</ele>
  <time>2026-09-01T19:56:28Z</time>
  <course>10.69</course>
  <speed>0.02</speed>
  <fix>3d</fix>
</trkpt>
<trkpt lat="-27.2744383" lon="151.2900637">
  <ele>364.17</ele>
  <time>2026-09-01T19:56:28Z</time>
  <course>194.97</course>
  <speed>0.0</speed>
  <fix>3d</fix>
</trkpt>
<trkpt lat="-27.2744386" lon="151.2900638">
  <ele>364.27</ele>
  <time>2026-09-01T19:56:28Z</time>
  <course>10.69</course>
  <speed>0.02</speed>
  <fix>3d</fix>
</trkpt>
<trkpt lat="-27.2744383" lon="151.2900637">
  <ele>364.17</ele>
  <time>2026-09-01T19:56:28Z</time>
  <course>201.48</course>
  <speed>0.0</speed>
  <fix>3d</fix>
</trkpt>
<trkpt lat="-27.2744386" lon="151.2900638">
  <ele>364.27</ele>
  <time>2026-09-01T19:56:28Z</time>
  <course>10.69</course>
  <speed>0.02</speed>
  <fix>3d</fix>
</trkpt>
<trkpt lat="-27.2744383" lon="151.2900637">
  <ele>364.17</ele>
  <time>2026-09-01T19:56:28Z</time>
  <course>201.48</course>
  <speed>0.0</speed>
  <fix>3d</fix>
</trkpt>
<trkpt lat="-27.2744386" lon="151.2900638">
  <ele>364.27</ele>
  <time>2026-09-01T19:56:28Z</time>
  <course>10.69</course>
  <speed>0.02</speed>
  <fix>3d</fix>
</trkpt>
<trkpt lat="-27.2744383" lon="151.2900637">
  <ele>364.17</ele>
  <time>2026-09-01T19:56:28Z</time>
  <course>204.25</course>
  <speed>0.0</speed>
  <fix>3d</fix>
</trkpt>
<trkpt lat="-27.2744386" lon="151.2900638">
  <ele>364.27</ele>
  <time>2026-09-01T19:56:28Z</time>
  <course>10.69</course>
  <speed>0.02</speed>
  <fix>3d</fix>
</trkpt>
<trkpt lat="-27.2744383" lon="151.2900637">
  <ele>364.17</ele>
  <time>2026-09-01T19:56:28Z</time>
  <course>204.25</course>
  <speed>0.0</speed>
  <fix>3d</fix>
</trkpt>
<trkpt lat="-27.2744386" lon="151.2900638">
  <ele>364.26</ele>
  <time>2026-09-01T19:56:28Z</time>
  <course>10.69</course>
  <speed>0.02</speed>
  <fix>3d</fix>
</trkpt>
<trkpt lat="-27.2744383" lon="151.2900637">
  <ele>364.17</ele>
  <time>2026-09-01T19:56:28Z</time>
  <course>205.87</course>
  <speed>0.0</speed>
  <fix>3d</fix>
</trkpt>
<trkpt lat="-27.2744386" lon="151.2900638">
  <ele>364.23</ele>
  <time>2026-09-01T19:56:28Z</time>
  <course>10.68</course>
  <speed>0.02</speed>
  <fix>3d</fix>
</trkpt>
<trkpt lat="-27.2744383" lon="151.2900637">
  <ele>364.17</ele>
  <time>2026-09-01T19:56:28Z</time>
  <course>205.87</course>
  <speed>0.0</speed>
  <fix>3d</fix>
</trkpt>
<trkpt lat="-27.2744386" lon="151.2900638">
  <ele>364.2</ele>
  <time>2026-09-01T19:56:28Z</time>
  <course>10.66</course>
  <speed>0.022360679774997897</speed>
  <fix>3d</fix>
</trkpt>
<trkpt lat="-27.2744384" lon="151.2900637">
  <ele>364.15</ele>
  <time>2026-09-01T19:56:28Z</time>
  <course>210.18</course>
  <speed>0.0</speed>
  <fix>3d</fix>
</trkpt>
<trkpt lat="-27.2744386" lon="151.2900638">
  <ele>364.14</ele>
  <time>2026-09-01T19:56:28Z</time>
  <course>10.62</course>
  <speed>0.022360679774997897</speed>
  <fix>3d</fix>
</trkpt>
<trkpt lat="-27.2744384" lon="151.2900637">
  <ele>364.15</ele>
  <time>2026-09-01T19:56:28Z</time>
  <course>210.18</course>
  <speed>0.0</speed>
  <fix>3d</fix>
</trkpt>
<trkpt lat="-27.2744386" lon="151.2900638">
  <ele>364.07</ele>
  <time>2026-09-01T19:56:28Z</time>
  <course>10.59</course>
  <speed>0.022360679774997897</speed>
  <fix>3d</fix>
</trkpt>
<trkpt lat="-27.2744384" lon="151.2900637">
  <ele>364.09</ele>
  <time>2026-09-01T19:56:28Z</time>
  <course>202.0</course>
  <speed>0.0</speed>
  <fix>3d</fix>
</trkpt>
<trkpt lat="-27.2744386" lon="151.2900638">
  <ele>363.98</ele>
  <time>2026-09-01T19:56:28Z</time>
  <course>10.59</course>
  <speed>0.022360679774997897</speed>
  <fix>3d</fix>
</trkpt>
<trkpt lat="-27.2744384" lon="151.2900637">
  <ele>364.09</ele>
  <time>2026-09-01T19:56:28Z</time>
  <course>202.0</course>
  <speed>0.0</speed>
  <fix>3d</fix>
</trkpt>
<trkpt lat="-27.2744386" lon="151.2900638">
  <ele>363.88</ele>
  <time>2026-09-01T19:56:28Z</time>
  <course>10.62</course>
  <speed>0.01414213562373095</speed>
  <fix>3d</fix>
</trkpt>
<trkpt lat="-27.2744384" lon="151.2900637">
  <ele>363.97</ele>
  <time>2026-09-01T19:56:28Z</time>
  <course>161.21</course>
  <speed>0.0</speed>
  <fix>3d</fix>
</trkpt>
<trkpt lat="-27.2744386" lon="151.2900638">
  <ele>363.75</ele>
  <time>2026-09-01T19:56:28Z</time>
  <course>10.64</course>
  <speed>0.01414213562373095</speed>
  <fix>3d</fix>
</trkpt>
<trkpt lat="-27.2744384" lon="151.2900637">
  <ele>363.97</ele>
  <time>2026-09-01T19:56:28Z</time>
  <course>161.21</course>
  <speed>0.0</speed>
  <fix>3d</fix>
</trkpt>
<trkpt lat="-27.2744386" lon="151.2900638">
  <ele>363.62</ele>
  <time>2026-09-01T19:56:28Z</time>
  <course>10.65</course>
  <speed>0.01</speed>
  <fix>3d</fix>
</trkpt>
<trkpt lat="-27.2744384" lon="151.2900637">
  <ele>363.77</ele>
  <time>2026-09-01T19:56:28Z</time>
  <course>14.02</course>
  <speed>0.0</speed>
  <fix>3d</fix>
</trkpt>
<trkpt lat="-27.2744386" lon="151.2900638">
  <ele>363.48</ele>
  <time>2026-09-01T19:56:28Z</time>
  <course>10.65</course>
  <speed>0.02</speed>
  <fix>3d</fix>
</trkpt>
<trkpt lat="-27.2744384" lon="151.2900637">
  <ele>363.77</ele>
  <time>2026-09-01T19:56:28Z</time>
  <course>14.02</course>
  <speed>0.0</speed>
  <fix>3d</fix>
</trkpt>
<trkpt lat="-27.2744386" lon="151.2900638">
  <ele>363.33</ele>
  <time>2026-09-01T19:56:28Z</time>
  <course>10.65</course>
  <speed>0.02</speed>
  <fix>3d</fix>
</trkpt>
<trkpt lat="-27.2744384" lon="151.2900637">
  <ele>363.52</ele>
  <time>2026-09-01T19:56:28Z</time>
  <course>9.08</course>
  <speed>0.01</speed>
  <fix>3d</fix>
</trkpt>
<trkpt lat="-27.2744385" lon="151.2900638">
  <ele>363.16</ele>
  <time>2026-09-01T19:56:28Z</time>
  <course>10.65</course>
  <speed>0.022360679774997897</speed>
  <fix>3d</fix>
</trkpt>
<trkpt lat="-27.2744384" lon="151.2900637">
  <ele>363.52</ele>
  <time>2026-09-01T19:56:28Z</time>
  <course>9.08</course>
  <speed>0.01</speed>
  <fix>3d</fix>
</trkpt>
<trkpt lat="-27.2744385" lon="151.2900638">
  <ele>363.0</ele>
  <time>2026-09-01T19:56:28Z</time>
  <course>10.64</course>
  <speed>0.022360679774997897</speed>
  <fix>3d</fix>
</trkpt>
<trkpt lat="-27.2744384" lon="151.2900637">
  <ele>363.22</ele>
  <time>2026-09-01T19:56:28Z</time>
  <course>7.91</course>
  <speed>0.02</speed>
  <fix>3d</fix>
</trkpt>
<trkpt lat="-27.2744385" lon="151.2900638">
  <ele>362.83</ele>
  <time>2026-09-01T19:56:28Z</time>
  <course>10.64</course>
  <speed>0.0282842712474619</speed>
  <fix>3d</fix>
</trkpt>
<trkpt lat="-27.2744384" lon="151.2900637">
  <ele>363.22</ele>
  <time>2026-09-01T19:56:28Z</time>
  <course>7.91</course>
  <speed>0.02</speed>
  <fix>3d</fix>
</trkpt>
<trkpt lat="-27.2744384" lon="151.2900638">
  <ele>362.67</ele>
  <time>2026-09-01T19:56:28Z</time>
  <course>10.63</course>
  <speed>0.0282842712474619</speed>
  <fix>3d</fix>
</trkpt>
<trkpt lat="-27.2744383" lon="151.2900637">
  <ele>362.9</ele>
  <time>2026-09-01T19:56:28Z</time>
  <course>7.27</course>
  <speed>0.04</speed>
  <fix>3d</fix>
</trkpt>
<trkpt lat="-27.2744384" lon="151.2900638">
  <ele>362.5</ele>
  <time>2026-09-01T19:56:28Z</time>
  <course>10.63</course>
  <speed>0.0282842712474619</speed>
  <fix>3d</fix>
</trkpt>
<trkpt lat="-27.2744383" lon="151.2900637">
  <ele>362.9</ele>
  <time>2026-09-01T19:56:28Z</time>
  <course>7.27</course>
  <speed>0.04</speed>
  <fix>3d</fix>
</trkpt>
<trkpt lat="-27.2744384" lon="151.2900638">
  <ele>362.33</ele>
  <time>2026-09-01T19:56:28Z</time>
  <course>10.63</course>
  <speed>0.03605551275463989</speed>
  <fix>3d</fix>
</trkpt>
<trkpt lat="-27.2744382" lon="151.2900637">
  <ele>362.58</ele>
  <time>2026-09-01T19:56:28Z</time>
  <course>6.73</course>
  <speed>0.04</speed>
  <fix>3d</fix>
</trkpt>
<trkpt lat="-27.2744383" lon="151.2900638">
  <ele>362.17</ele>
  <time>2026-09-01T19:56:28Z</time>
  <course>10.63</course>
  <speed>0.03605551275463989</speed>
  <fix>3d</fix>
</trkpt>
<trkpt lat="-27.2744382" lon="151.2900637">
  <ele>362.58</ele>
  <time>2026-09-01T19:56:28Z</time>
  <course>6.73</course>
  <speed>0.04</speed>
  <fix>3d</fix>
</trkpt>
<trkpt lat="-27.2744383" lon="151.2900638">
  <ele>362.01</ele>
  <time>2026-09-01T19:56:28Z</time>
  <course>10.63</course>
  <speed>0.03605551275463989</speed>
  <fix>3d</fix>
</trkpt>
<trkpt lat="-27.2744381" lon="151.2900637">
  <ele>362.26</ele>
  <time>2026-09-01T19:56:28Z</time>
  <course>6.15</course>
  <speed>0.05</speed>
  <fix>3d</fix>
</trkpt>
<trkpt lat="-27.2744382" lon="151.2900639">
  <ele>361.85</ele>
  <time>2026-09-01T19:56:28Z</time>
  <course>10.62</course>
  <speed>0.03605551275463989</speed>
  <fix>3d</fix>
</trkpt>
<trkpt lat="-27.2744381" lon="151.2900637">
  <ele>362.26</ele>
  <time>2026-09-01T19:56:28Z</time>
  <course>6.15</course>
  <speed>0.05</speed>
  <fix>3d</fix>
</trkpt>
<trkpt lat="-27.2744382" lon="151.2900639">
  <ele>361.7</ele>
  <time>2026-09-01T19:56:28Z</time>
  <course>10.62</course>
  <speed>0.03605551275463989</speed>
  <fix>3d</fix>
</trkpt>
<trkpt lat="-27.274438" lon="151.2900638">
  <ele>361.94</ele>
  <time>2026-09-01T19:56:28Z</time>
  <course>5.5</course>
  <speed>0.05</speed>
  <fix>3d</fix>
</trkpt>
<trkpt lat="-27.2744381" lon="151.2900639">
  <ele>361.55</ele>
  <time>2026-09-01T19:56:28Z</time>
  <course>10.62</course>
  <speed>0.03605551275463989</speed>
  <fix>3d</fix>
</trkpt>
<trkpt lat="-27.274438" lon="151.2900638">
  <ele>361.94</ele>
  <time>2026-09-01T19:56:28Z</time>
  <course>5.5</course>
  <speed>0.05</speed>
  <fix>3d</fix>
</trkpt>
<trkpt lat="-27.2744381" lon="151.2900639">
  <ele>361.4</ele>
  <time>2026-09-01T19:56:28Z</time>
  <course>10.63</course>
  <speed>0.0282842712474619</speed>
  <fix>3d</fix>
</trkpt>
<trkpt lat="-27.2744379" lon="151.2900639">
  <ele>361.63</ele>
  <time>2026-09-01T19:56:28Z</time>
  <course>4.94</course>
  <speed>0.05</speed>
  <fix>3d</fix>
</trkpt>
<trkpt lat="-27.274438" lon="151.2900639">
  <ele>361.26</ele>
  <time>2026-09-01T19:56:28Z</time>
  <course>10.63</course>
  <speed>0.0282842712474619</speed>
  <fix>3d</fix>
</trkpt>
<trkpt lat="-27.2744379" lon="151.2900639">
  <ele>361.63</ele>
  <time>2026-09-01T19:56:28Z</time>
  <course>4.94</course>
  <speed>0.05</speed>
  <fix>3d</fix>
</trkpt>
<trkpt lat="-27.274438" lon="151.2900639">
  <ele>361.11</ele>
  <time>2026-09-01T19:56:28Z</time>
  <course>10.62</course>
  <speed>0.0282842712474619</speed>
  <fix>3d</fix>
</trkpt>
<trkpt lat="-27.2744378" lon="151.2900639">
  <ele>361.34</ele>
  <time>2026-09-01T19:56:28Z</time>
  <course>4.45</course>
  <speed>0.05</speed>
  <fix>3d</fix>
</trkpt>
<trkpt lat="-27.2744379" lon="151.2900639">
  <ele>360.97</ele>
  <time>2026-09-01T19:56:28Z</time>
  <course>10.62</course>
  <speed>0.022360679774997897</speed>
  <fix>3d</fix>
</trkpt>
<trkpt lat="-27.2744378" lon="151.2900639">
  <ele>361.34</ele>
  <time>2026-09-01T19:56:28Z</time>
  <course>4.45</course>
  <speed>0.05</speed>
  <fix>3d</fix>
</trkpt>
<trkpt lat="-27.2744379" lon="151.2900639">
  <ele>360.83</ele>
  <time>2026-09-01T19:56:28Z</time>
  <course>10.61</course>
  <speed>0.022360679774997897</speed>
  <fix>3d</fix>
</trkpt>
<trkpt lat="-27.2744377" lon="151.2900639">
  <ele>361.05</ele>
  <time>2026-09-01T19:56:28Z</time>
  <course>3.92</course>
  <speed>0.04</speed>
  <fix>3d</fix>
</trkpt>
<trkpt lat="-27.2744379" lon="151.2900639">
  <ele>360.69</ele>
  <time>2026-09-01T19:56:28Z</time>
  <course>10.6</course>
  <speed>0.022360679774997897</speed>
  <fix>3d</fix>
</trkpt>
<trkpt lat="-27.2744377" lon="151.2900639">
  <ele>361.05</ele>
  <time>2026-09-01T19:56:28Z</time>
  <course>3.92</course>
  <speed>0.04</speed>
  <fix>3d</fix>
</trkpt>
<trkpt lat="-27.2744378" lon="151.2900639">
  <ele>360.54</ele>
  <time>2026-09-01T19:56:28Z</time>
  <course>10.6</course>
  <speed>0.01414213562373095</speed>
  <fix>3d</fix>
</trkpt>
<trkpt lat="-27.2744377" lon="151.2900639">
  <ele>360.77</ele>
  <time>2026-09-01T19:56:28Z</time>
  <course>3.62</course>
  <speed>0.04</speed>
  <fix>3d</fix>
</trkpt>
<trkpt lat="-27.2744378" lon="151.290064">
  <ele>360.4</ele>
  <time>2026-09-01T19:56:28Z</time>
  <course>10.59</course>
  <speed>0.02</speed>
  <fix>3d</fix>
</trkpt>
<trkpt lat="-27.2744377" lon="151.2900639">
  <ele>360.77</ele>
  <time>2026-09-01T19:56:28Z</time>
  <course>3.62</course>
  <speed>0.04</speed>
  <fix>3d</fix>
</trkpt>
<trkpt lat="-27.2744378" lon="151.290064">
  <ele>360.26</ele>
  <time>2026-09-01T19:56:28Z</time>
  <course>10.58</course>
  <speed>0.02</speed>
  <fix>3d</fix>
</trkpt>
<trkpt lat="-27.2744376" lon="151.2900639">
  <ele>360.49</ele>
  <time>2026-09-01T19:56:28Z</time>
  <course>4.14</course>
  <speed>0.03</speed>
  <fix>3d</fix>
</trkpt>
<trkpt lat="-27.2744378" lon="151.290064">
  <ele>360.12</ele>
  <time>2026-09-01T19:56:28Z</time>
  <course>10.57</course>
  <speed>0.02</speed>
  <fix>3d</fix>
</trkpt>
<trkpt lat="-27.2744376" lon="151.2900639">
  <ele>360.49</ele>
  <time>2026-09-01T19:56:28Z</time>
  <course>4.14</course>
  <speed>0.03</speed>
  <fix>3d</fix>
</trkpt>
<trkpt lat="-27.2744377" lon="151.290064">
  <ele>359.97</ele>
  <time>2026-09-01T19:56:28Z</time>
  <course>10.57</course>
  <speed>0.02</speed>
  <fix>3d</fix>
</trkpt>
<trkpt lat="-27.2744376" lon="151.2900639">
  <ele>360.2</ele>
  <time>2026-09-01T19:56:28Z</time>
  <course>6.06</course>
  <speed>0.02</speed>
  <fix>3d</fix>
</trkpt>
<trkpt lat="-27.2744377" lon="151.290064">
  <ele>359.83</ele>
  <time>2026-09-01T19:56:28Z</time>
  <course>10.56</course>
  <speed>0.02</speed>
  <fix>3d</fix>
</trkpt>
<trkpt lat="-27.2744376" lon="151.2900639">
  <ele>360.2</ele>
  <time>2026-09-01T19:56:28Z</time>
  <course>6.06</course>
  <speed>0.02</speed>
  <fix>3d</fix>
</trkpt>
<trkpt lat="-27.2744377" lon="151.290064">
  <ele>359.68</ele>
  <time>2026-09-01T19:56:28Z</time>
  <course>10.57</course>
  <speed>0.02</speed>
  <fix>3d</fix>
</trkpt>
<trkpt lat="-27.2744375" lon="151.2900639">
  <ele>359.91</ele>
  <time>2026-09-01T19:56:28Z</time>
  <course>9.99</course>
  <speed>0.02</speed>
  <fix>3d</fix>
</trkpt>
<trkpt lat="-27.2744377" lon="151.290064">
  <ele>359.54</ele>
  <time>2026-09-01T19:56:28Z</time>
  <course>10.57</course>
  <speed>0.022360679774997897</speed>
  <fix>3d</fix>
</trkpt>
<trkpt lat="-27.2744375" lon="151.2900639">
  <ele>359.91</ele>
  <time>2026-09-01T19:56:28Z</time>
  <course>9.99</course>
  <speed>0.02</speed>
  <fix>3d</fix>
</trkpt>
<trkpt lat="-27.2744377" lon="151.290064">
  <ele>359.39</ele>
  <time>2026-09-01T19:56:28Z</time>
  <course>10.57</course>
  <speed>0.022360679774997897</speed>
  <fix>3d</fix>
</trkpt>
<trkpt lat="-27.2744375" lon="151.2900639">
  <ele>359.63</ele>
  <time>2026-09-01T19:56:28Z</time>
  <course>16.46</course>
  <speed>0.01</speed>
  <fix>3d</fix>
</trkpt>
<trkpt lat="-27.2744377" lon="151.290064">
  <ele>359.24</ele>
  <time>2026-09-01T19:56:28Z</time>
  <course>10.57</course>
  <speed>0.022360679774997897</speed>
  <fix>3d</fix>
</trkpt>
<trkpt lat="-27.2744375" lon="151.2900639">
  <ele>359.63</ele>
  <time>2026-09-01T19:56:28Z</time>
  <course>16.46</course>
  <speed>0.01</speed>
  <fix>3d</fix>
</trkpt>
<trkpt lat="-27.2744377" lon="151.290064">
  <ele>359.09</ele>
  <time>2026-09-01T19:56:28Z</time>
  <course>10.57</course>
  <speed>0.022360679774997897</speed>
  <fix>3d</fix>
</trkpt>
<trkpt lat="-27.2744375" lon="151.2900639">
  <ele>359.34</ele>
  <time>2026-09-01T19:56:28Z</time>
  <course>25.07</course>
  <speed>0.01</speed>
  <fix>3d</fix>
</trkpt>
<trkpt lat="-27.2744377" lon="151.290064">
  <ele>358.94</ele>
  <time>2026-09-01T19:56:28Z</time>
  <course>10.57</course>
  <speed>0.01414213562373095</speed>
  <fix>3d</fix>
</trkpt>
<trkpt lat="-27.2744375" lon="151.2900639">
  <ele>359.34</ele>
  <time>2026-09-01T19:56:28Z</time>
  <course>25.07</course>
  <speed>0.01</speed>
  <fix>3d</fix>
</trkpt>
<trkpt lat="-27.2744377" lon="151.290064">
  <ele>358.79</ele>
  <time>2026-09-01T19:56:28Z</time>
  <course>10.58</course>
  <speed>0.0282842712474619</speed>
  <fix>3d</fix>
</trkpt>
<trkpt lat="-27.2744375" lon="151.2900639">
  <ele>359.04</ele>
  <time>2026-09-01T19:56:28Z</time>
  <course>36.82</course>
  <speed>0.0</speed>
  <fix>3d</fix>
</trkpt>
<trkpt lat="-27.2744377" lon="151.290064">
  <ele>358.64</ele>
  <time>2026-09-01T19:56:28Z</time>
  <course>10.57</course>
  <speed>0.022360679774997897</speed>
  <fix>3d</fix>
</trkpt>
<trkpt lat="-27.2744375" lon="151.2900639">
  <ele>359.04</ele>
  <time>2026-09-01T19:56:28Z</time>
  <course>36.82</course>
  <speed>0.0</speed>
  <fix>3d</fix>
</trkpt>
<trkpt lat="-27.2744377" lon="151.290064">
  <ele>358.49</ele>
  <time>2026-09-01T19:56:28Z</time>
  <course>10.56</course>
  <speed>0.022360679774997897</speed>
  <fix>3d</fix>
</trkpt>
<trkpt lat="-27.2744374" lon="151.2900639">
  <ele>358.74</ele>
  <time>2026-09-01T19:56:28Z</time>
  <course>54.64</course>
  <speed>0.0</speed>
  <fix>3d</fix>
</trkpt>
<trkpt lat="-27.2744377" lon="151.290064">
  <ele>358.34</ele>
  <time>2026-09-01T19:56:28Z</time>
  <course>10.56</course>
  <speed>0.022360679774997897</speed>
  <fix>3d</fix>
</trkpt>
<trkpt lat="-27.2744374" lon="151.2900639">
  <ele>358.74</ele>
  <time>2026-09-01T19:56:28Z</time>
  <course>54.64</course>
  <speed>0.0</speed>
  <fix>3d</fix>
</trkpt>
<trkpt lat="-27.2744377" lon="151.290064">
  <ele>358.19</ele>
  <time>2026-09-01T19:56:28Z</time>
  <course>10.56</course>
  <speed>0.022360679774997897</speed>
  <fix>3d</fix>
</trkpt>
<trkpt lat="-27.2744374" lon="151.2900639">
  <ele>358.44</ele>
  <time>2026-09-01T19:56:28Z</time>
  <course>80.02</course>
  <speed>0.0</speed>
  <fix>3d</fix>
</trkpt>
<trkpt lat="-27.2744377" lon="151.290064">
  <ele>358.04</ele>
  <time>2026-09-01T19:56:28Z</time>
  <course>10.57</course>
  <speed>0.022360679774997897</speed>
  <fix>3d</fix>
</trkpt>
<trkpt lat="-27.2744374" lon="151.2900639">
  <ele>358.44</ele>
  <time>2026-09-01T19:56:28Z</time>
  <course>80.02</course>
  <speed>0.0</speed>
  <fix>3d</fix>
</trkpt>
<trkpt lat="-27.2744376" lon="151.290064">
  <ele>357.89</ele>
  <time>2026-09-01T19:56:28Z</time>
  <course>10.58</course>
  <speed>0.022360679774997897</speed>
  <fix>3d</fix>
</trkpt>
<trkpt lat="-27.2744374" lon="151.290064">
  <ele>358.14</ele>
  <time>2026-09-01T19:56:28Z</time>
  <course>109.1</course>
  <speed>0.0</speed>
  <fix>3d</fix>
</trkpt>
<trkpt lat="-27.2744376" lon="151.290064">
  <ele>357.74</ele>
  <time>2026-09-01T19:56:28Z</time>
  <course>10.59</course>
  <speed>0.0316227766016838</speed>
  <fix>3d</fix>
</trkpt>
<trkpt lat="-27.2744374" lon="151.290064">
  <ele>358.14</ele>
  <time>2026-09-01T19:56:28Z</time>
  <course>109.1</course>
  <speed>0.0</speed>
  <fix>3d</fix>
</trkpt>
<trkpt lat="-27.2744376" lon="151.290064">
  <ele>357.58</ele>
  <time>2026-09-01T19:56:28Z</time>
  <course>10.59</course>
  <speed>0.0316227766016838</speed>
  <fix>3d</fix>
</trkpt>
<trkpt lat="-27.2744374" lon="151.290064">
  <ele>357.84</ele>
  <time>2026-09-01T19:56:28Z</time>
  <course>139.18</course>
  <speed>0.0</speed>
  <fix>3d</fix>
</trkpt>
<trkpt lat="-27.2744376" lon="151.290064">
  <ele>357.43</ele>
  <time>2026-09-01T19:56:28Z</time>
  <course>10.58</course>
  <speed>0.0316227766016838</speed>
  <fix>3d</fix>
</trkpt>
<trkpt lat="-27.2744374" lon="151.290064">
  <ele>357.84</ele>
  <time>2026-09-01T19:56:28Z</time>
  <course>139.18</course>
  <speed>0.0</speed>
  <fix>3d</fix>
</trkpt>
<trkpt lat="-27.2744376" lon="151.290064">
  <ele>357.28</ele>
  <time>2026-09-01T19:56:28Z</time>
  <course>10.57</course>
  <speed>0.0316227766016838</speed>
  <fix>3d</fix>
</trkpt>
<trkpt lat="-27.2744374" lon="151.290064">
  <ele>357.54</ele>
  <time>2026-09-01T19:56:28Z</time>
  <course>155.73</course>
  <speed>0.0</speed>
  <fix>3d</fix>
</trkpt>
<trkpt lat="-27.2744376" lon="151.290064">
  <ele>357.13</ele>
  <time>2026-09-01T19:56:28Z</time>
  <course>10.56</course>
  <speed>0.0316227766016838</speed>
  <fix>3d</fix>
</trkpt>
<trkpt lat="-27.2744374" lon="151.290064">
  <ele>357.54</ele>
  <time>2026-09-01T19:56:28Z</time>
  <course>155.73</course>
  <speed>0.0</speed>
  <fix>3d</fix>
</trkpt>
<trkpt lat="-27.2744376" lon="151.290064">
  <ele>356.98</ele>
  <time>2026-09-01T19:56:28Z</time>
  <course>10.55</course>
  <speed>0.0316227766016838</speed>
  <fix>3d</fix>
</trkpt>
<trkpt lat="-27.2744374" lon="151.290064">
  <ele>357.25</ele>
  <time>2026-09-01T19:56:28Z</time>
  <course>161.75</course>
  <speed>0.01</speed>
  <fix>3d</fix>
</trkpt>
<trkpt lat="-27.2744376" lon="151.2900641">
  <ele>356.83</ele>
  <time>2026-09-01T19:56:28Z</time>
  <course>10.56</course>
  <speed>0.0412310562561766</speed>
  <fix>3d</fix>
</trkpt>
<trkpt lat="-27.2744374" lon="151.290064">
  <ele>357.25</ele>
  <time>2026-09-01T19:56:28Z</time>
  <course>161.75</course>
  <speed>0.01</speed>
  <fix>3d</fix>
</trkpt>
<trkpt lat="-27.2744376" lon="151.2900641">
  <ele>356.68</ele>
  <time>2026-09-01T19:56:28Z</time>
  <course>10.56</course>
  <speed>0.0412310562561766</speed>
  <fix>3d</fix>
</trkpt>
<trkpt lat="-27.2744374" lon="151.290064">
  <ele>356.95</ele>
  <time>2026-09-01T19:56:28Z</time>
  <course>165.38</course>
  <speed>0.01</speed>
  <fix>3d</fix>
</trkpt>
<trkpt lat="-27.2744377" lon="151.2900641">
  <ele>356.53</ele>
  <time>2026-09-01T19:56:29Z</time>
  <course>10.57</course>
  <speed>0.0412310562561766</speed>
  <fix>3d</fix>
</trkpt>
<trkpt lat="-27.2744374" lon="151.290064">
  <ele>356.95</ele>
  <time>2026-09-01T19:56:29Z</time>
  <course>165.38</course>
  <speed>0.01</speed>
  <fix>3d</fix>
</trkpt>
<trkpt lat="-27.2744377" lon="151.2900641">
  <ele>356.38</ele>
  <time>2026-09-01T19:56:29Z</time>
  <course>10.57</course>
  <speed>0.0412310562561766</speed>
  <fix>3d</fix>
</trkpt>
<trkpt lat="-27.2744374" lon="151.290064">
  <ele>356.65</ele>
  <time>2026-09-01T19:56:29Z</time>
  <course>169.49</course>
  <speed>0.01</speed>
  <fix>3d</fix>
</trkpt>
<trkpt lat="-27.2744377" lon="151.2900641">
  <ele>356.23</ele>
  <time>2026-09-01T19:56:29Z</time>
  <course>10.57</course>
  <speed>0.0412310562561766</speed>
  <fix>3d</fix>
</trkpt>
<trkpt lat="-27.2744374" lon="151.290064">
  <ele>356.65</ele>
  <time>2026-09-01T19:56:29Z</time>
  <course>169.49</course>
  <speed>0.01</speed>
  <fix>3d</fix>
</trkpt>
<trkpt lat="-27.2744377" lon="151.2900641">
  <ele>356.08</ele>
  <time>2026-09-01T19:56:29Z</time>
  <course>10.56</course>
  <speed>0.0412310562561766</speed>
  <fix>3d</fix>
</trkpt>
<trkpt lat="-27.2744375" lon="151.290064">
  <ele>356.35</ele>
  <time>2026-09-01T19:56:29Z</time>
  <course>171.82</course>
  <speed>0.02</speed>
  <fix>3d</fix>
</trkpt>
<trkpt lat="-27.2744377" lon="151.2900641">
  <ele>355.93</ele>
  <time>2026-09-01T19:56:29Z</time>
  <course>10.55</course>
  <speed>0.0412310562561766</speed>
  <fix>3d</fix>
</trkpt>
<trkpt lat="-27.2744375" lon="151.290064">
  <ele>356.35</ele>
  <time>2026-09-01T19:56:29Z</time>
  <course>171.82</course>
  <speed>0.02</speed>
  <fix>3d</fix>
</trkpt>
<trkpt lat="-27.2744377" lon="151.2900641">
  <ele>355.78</ele>
  <time>2026-09-01T19:56:29Z</time>
  <course>10.55</course>
  <speed>0.0412310562561766</speed>
  <fix>3d</fix>
</trkpt>
<trkpt lat="-27.2744375" lon="151.290064">
  <ele>356.05</ele>
  <time>2026-09-01T19:56:29Z</time>
  <course>171.84</course>
  <speed>0.02</speed>
  <fix>3d</fix>
</trkpt>
<trkpt lat="-27.2744378" lon="151.2900641">
  <ele>355.63</ele>
  <time>2026-09-01T19:56:29Z</time>
  <course>10.54</course>
  <speed>0.0412310562561766</speed>
  <fix>3d</fix>
</trkpt>
<trkpt lat="-27.2744375" lon="151.290064">
  <ele>356.05</ele>
  <time>2026-09-01T19:56:29Z</time>
  <course>171.84</course>
  <speed>0.02</speed>
  <fix>3d</fix>
</trkpt>
<trkpt lat="-27.2744378" lon="151.2900641">
  <ele>355.48</ele>
  <time>2026-09-01T19:56:29Z</time>
  <course>10.54</course>
  <speed>0.0412310562561766</speed>
  <fix>3d</fix>
</trkpt>
<trkpt lat="-27.2744375" lon="151.290064">
  <ele>355.76</ele>
  <time>2026-09-01T19:56:29Z</time>
  <course>171.97</course>
  <speed>0.02</speed>
  <fix>3d</fix>
</trkpt>
<trkpt lat="-27.2744378" lon="151.2900641">
  <ele>355.33</ele>
  <time>2026-09-01T19:56:29Z</time>
  <course>10.54</course>
  <speed>0.0412310562561766</speed>
  <fix>3d</fix>
</trkpt>
<trkpt lat="-27.2744375" lon="151.290064">
  <ele>355.76</ele>
  <time>2026-09-01T19:56:29Z</time>
  <course>171.97</course>
  <speed>0.02</speed>
  <fix>3d</fix>
</trkpt>
<trkpt lat="-27.2744378" lon="151.2900641">
  <ele>355.18</ele>
  <time>2026-09-01T19:56:29Z</time>
  <course>10.54</course>
  <speed>0.0412310562561766</speed>
  <fix>3d</fix>
</trkpt>
<trkpt lat="-27.2744376" lon="151.290064">
  <ele>355.46</ele>
  <time>2026-09-01T19:56:29Z</time>
  <course>172.17</course>
  <speed>0.02</speed>
  <fix>3d</fix>
</trkpt>
<trkpt lat="-27.2744378" lon="151.2900641">
  <ele>355.03</ele>
  <time>2026-09-01T19:56:29Z</time>
  <course>10.54</course>
  <speed>0.0412310562561766</speed>
  <fix>3d</fix>
</trkpt>
<trkpt lat="-27.2744376" lon="151.290064">
  <ele>355.46</ele>
  <time>2026-09-01T19:56:29Z</time>
  <course>172.17</course>
  <speed>0.02</speed>
  <fix>3d</fix>
</trkpt>
<trkpt lat="-27.2744378" lon="151.2900641">
  <ele>354.88</ele>
  <time>2026-09-01T19:56:29Z</time>
  <course>10.52</course>
  <speed>0.0412310562561766</speed>
  <fix>3d</fix>
</trkpt>
<trkpt lat="-27.2744376" lon="151.290064">
  <ele>355.16</ele>
  <time>2026-09-01T19:56:29Z</time>
  <course>172.14</course>
  <speed>0.02</speed>
  <fix>3d</fix>
</trkpt>
<trkpt lat="-27.2744379" lon="151.2900641">
  <ele>354.73</ele>
  <time>2026-09-01T19:56:29Z</time>
  <course>10.51</course>
  <speed>0.05099019513592785</speed>
  <fix>3d</fix>
</trkpt>
<trkpt lat="-27.2744376" lon="151.290064">
  <ele>355.16</ele>
  <time>2026-09-01T19:56:29Z</time>
  <course>172.14</course>
  <speed>0.02</speed>
  <fix>3d</fix>
</trkpt>
<trkpt lat="-27.2744379" lon="151.2900641">
  <ele>354.58</ele>
  <time>2026-09-01T19:56:29Z</time>
  <course>10.5</course>
  <speed>0.05099019513592785</speed>
  <fix>3d</fix>
</trkpt>
<trkpt lat="-27.2744377" lon="151.290064">
  <ele>354.86</ele>
  <time>2026-09-01T19:56:29Z</time>
  <course>172.05</course>
  <speed>0.02</speed>
  <fix>3d</fix>
</trkpt>
<trkpt lat="-27.2744379" lon="151.2900641">
  <ele>354.44</ele>
  <time>2026-09-01T19:56:29Z</time>
  <course>10.5</course>
  <speed>0.05099019513592785</speed>
  <fix>3d</fix>
</trkpt>
<trkpt lat="-27.2744377" lon="151.290064">
  <ele>354.86</ele>
  <time>2026-09-01T19:56:29Z</time>
  <course>172.05</course>
  <speed>0.02</speed>
  <fix>3d</fix>
</trkpt>
<trkpt lat="-27.2744379" lon="151.2900641">
  <ele>354.29</ele>
  <time>2026-09-01T19:56:29Z</time>
  <course>10.49</course>
  <speed>0.05099019513592785</speed>
  <fix>3d</fix>
</trkpt>
<trkpt lat="-27.2744377" lon="151.290064">
  <ele>354.56</ele>
  <time>2026-09-01T19:56:29Z</time>
  <course>171.76</course>
  <speed>0.03</speed>
  <fix>3d</fix>
</trkpt>
<trkpt lat="-27.274438" lon="151.2900641">
  <ele>354.14</ele>
  <time>2026-09-01T19:56:29Z</time>
  <course>10.49</course>
  <speed>0.053851648071345036</speed>
  <fix>3d</fix>
</trkpt>
<trkpt lat="-27.2744377" lon="151.290064">
  <ele>354.56</ele>
  <time>2026-09-01T19:56:29Z</time>
  <course>171.76</course>
  <speed>0.03</speed>
  <fix>3d</fix>
</trkpt>
<trkpt lat="-27.274438" lon="151.2900641">
  <ele>354.0</ele>
  <time>2026-09-01T19:56:29Z</time>
  <course>10.48</course>
  <speed>0.05099019513592785</speed>
  <fix>3d</fix>
</trkpt>
<trkpt lat="-27.2744378" lon="151.2900641">
  <ele>354.27</ele>
  <time>2026-09-01T19:56:29Z</time>
  <course>171.65</course>
  <speed>0.03</speed>
  <fix>3d</fix>
</trkpt>
<trkpt lat="-27.274438" lon="151.2900641">
  <ele>353.85</ele>
  <time>2026-09-01T19:56:29Z</time>
  <course>10.47</course>
  <speed>0.053851648071345036</speed>
  <fix>3d</fix>
</trkpt>
<trkpt lat="-27.2744378" lon="151.2900641">
  <ele>354.27</ele>
  <time>2026-09-01T19:56:29Z</time>
  <course>171.65</course>
  <speed>0.03</speed>
  <fix>3d</fix>
</trkpt>
<trkpt lat="-27.274438" lon="151.2900641">
  <ele>353.71</ele>
  <time>2026-09-01T19:56:29Z</time>
  <course>10.46</course>
  <speed>0.053851648071345036</speed>
  <fix>3d</fix>
</trkpt>
<trkpt lat="-27.2744378" lon="151.2900641">
  <ele>353.98</ele>
  <time>2026-09-01T19:56:29Z</time>
  <course>171.17</course>
  <speed>0.03</speed>
  <fix>3d</fix>
</trkpt>
<trkpt lat="-27.2744381" lon="151.2900641">
  <ele>353.57</ele>
  <time>2026-09-01T19:56:29Z</time>
  <course>10.45</course>
  <speed>0.053851648071345036</speed>
  <fix>3d</fix>
</trkpt>
<trkpt lat="-27.2744378" lon="151.2900641">
  <ele>353.98</ele>
  <time>2026-09-01T19:56:29Z</time>
  <course>171.17</course>
  <speed>0.03</speed>
  <fix>3d</fix>
</trkpt>
<trkpt lat="-27.2744381" lon="151.2900641">
  <ele>353.44</ele>
  <time>2026-09-01T19:56:29Z</time>
  <course>10.45</course>
  <speed>0.053851648071345036</speed>
  <fix>3d</fix>
</trkpt>
<trkpt lat="-27.2744379" lon="151.2900641">
  <ele>353.7</ele>
  <time>2026-09-01T19:56:29Z</time>
  <course>171.06</course>
  <speed>0.03</speed>
  <fix>3d</fix>
</trkpt>
<trkpt lat="-27.2744381" lon="151.2900642">
  <ele>353.31</ele>
  <time>2026-09-01T19:56:29Z</time>
  <course>10.45</course>
  <speed>0.05099019513592785</speed>
  <fix>3d</fix>
</trkpt>
<trkpt lat="-27.2744379" lon="151.2900641">
  <ele>353.7</ele>
  <time>2026-09-01T19:56:29Z</time>
  <course>171.06</course>
  <speed>0.03</speed>
  <fix>3d</fix>
</trkpt>
<trkpt lat="-27.2744382" lon="151.2900642">
  <ele>353.18</ele>
  <time>2026-09-01T19:56:29Z</time>
  <course>10.44</course>
  <speed>0.05099019513592785</speed>
  <fix>3d</fix>
</trkpt>
<trkpt lat="-27.274438" lon="151.2900641">
  <ele>353.42</ele>
  <time>2026-09-01T19:56:29Z</time>
  <course>171.83</course>
  <speed>0.03</speed>
  <fix>3d</fix>
</trkpt>
<trkpt lat="-27.2744382" lon="151.2900642">
  <ele>353.05</ele>
  <time>2026-09-01T19:56:29Z</time>
  <course>10.44</course>
  <speed>0.05099019513592785</speed>
  <fix>3d</fix>
</trkpt>
<trkpt lat="-27.274438" lon="151.2900641">
  <ele>353.42</ele>
  <time>2026-09-01T19:56:29Z</time>
  <course>171.83</course>
  <speed>0.03</speed>
  <fix>3d</fix>
</trkpt>
<trkpt lat="-27.2744382" lon="151.2900642">
  <ele>352.92</ele>
  <time>2026-09-01T19:56:29Z</time>
  <course>10.44</course>
  <speed>0.06082762530298219</speed>
  <fix>3d</fix>
</trkpt>
<trkpt lat="-27.274438" lon="151.2900641">
  <ele>353.16</ele>
  <time>2026-09-01T19:56:29Z</time>
  <course>172.69</course>
  <speed>0.03</speed>
  <fix>3d</fix>
</trkpt>
<trkpt lat="-27.2744383" lon="151.2900642">
  <ele>352.79</ele>
  <time>2026-09-01T19:56:29Z</time>
  <course>10.44</course>
  <speed>0.06082762530298219</speed>
  <fix>3d</fix>
</trkpt>
<trkpt lat="-27.274438" lon="151.2900641">
  <ele>353.16</ele>
  <time>2026-09-01T19:56:29Z</time>
  <course>172.69</course>
  <speed>0.03</speed>
  <fix>3d</fix>
</trkpt>
<trkpt lat="-27.2744383" lon="151.2900642">
  <ele>352.67</ele>
  <time>2026-09-01T19:56:29Z</time>
  <course>10.43</course>
  <speed>0.06082762530298219</speed>
  <fix>3d</fix>
</trkpt>
<trkpt lat="-27.2744381" lon="151.2900641">
  <ele>352.9</ele>
  <time>2026-09-01T19:56:29Z</time>
  <course>173.52</course>
  <speed>0.04</speed>
  <fix>3d</fix>
</trkpt>
<trkpt lat="-27.2744383" lon="151.2900642">
  <ele>352.55</ele>
  <time>2026-09-01T19:56:29Z</time>
  <course>10.43</course>
  <speed>0.0632455532033676</speed>
  <fix>3d</fix>
</trkpt>
<trkpt lat="-27.2744381" lon="151.2900641">
  <ele>352.9</ele>
  <time>2026-09-01T19:56:29Z</time>
  <course>173.52</course>
  <speed>0.04</speed>
  <fix>3d</fix>
</trkpt>
<trkpt lat="-27.2744384" lon="151.2900642">
  <ele>352.44</ele>
  <time>2026-09-01T19:56:29Z</time>
  <course>10.42</course>
  <speed>0.0632455532033676</speed>
  <fix>3d</fix>
</trkpt>
<trkpt lat="-27.2744382" lon="151.2900641">
  <ele>352.65</ele>
  <time>2026-09-01T19:56:29Z</time>
  <course>174.12</course>
  <speed>0.04</speed>
  <fix>3d</fix>
</trkpt>
<trkpt lat="-27.2744384" lon="151.2900642">
  <ele>352.32</ele>
  <time>2026-09-01T19:56:29Z</time>
  <course>10.41</course>
  <speed>0.0632455532033676</speed>
  <fix>3d</fix>
</trkpt>
<trkpt lat="-27.2744382" lon="151.2900641">
  <ele>352.65</ele>
  <time>2026-09-01T19:56:29Z</time>
  <course>174.12</course>
  <speed>0.04</speed>
  <fix>3d</fix>
</trkpt>
<trkpt lat="-27.2744385" lon="151.2900642">
  <ele>352.21</ele>
  <time>2026-09-01T19:56:29Z</time>
  <course>10.4</course>
  <speed>0.0632455532033676</speed>
  <fix>3d</fix>
</trkpt>
<trkpt lat="-27.2744382" lon="151.2900641">
  <ele>352.41</ele>
  <time>2026-09-01T19:56:29Z</time>
  <course>174.22</course>
  <speed>0.04</speed>
  <fix>3d</fix>
</trkpt>
<trkpt lat="-27.2744385" lon="151.2900642">
  <ele>352.1</ele>
  <time>2026-09-01T19:56:29Z</time>
  <course>10.39</course>
  <speed>0.0632455532033676</speed>
  <fix>3d</fix>
</trkpt>
<trkpt lat="-27.2744382" lon="151.2900641">
  <ele>352.41</ele>
  <time>2026-09-01T19:56:29Z</time>
  <course>174.22</course>
  <speed>0.04</speed>
  <fix>3d</fix>
</trkpt>
<trkpt lat="-27.2744385" lon="151.2900642">
  <ele>351.99</ele>
  <time>2026-09-01T19:56:29Z</time>
  <course>10.38</course>
  <speed>0.06082762530298219</speed>
  <fix>3d</fix>
</trkpt>
<trkpt lat="-27.2744383" lon="151.2900641">
  <ele>352.19</ele>
  <time>2026-09-01T19:56:29Z</time>
  <course>174.16</course>
  <speed>0.04</speed>
  <fix>3d</fix>
</trkpt>
<trkpt lat="-27.2744386" lon="151.2900642">
  <ele>351.88</ele>
  <time>2026-09-01T19:56:29Z</time>
  <course>10.38</course>
  <speed>0.06082762530298219</speed>
  <fix>3d</fix>
</trkpt>
<trkpt lat="-27.2744383" lon="151.2900641">
  <ele>352.19</ele>
  <time>2026-09-01T19:56:29Z</time>
  <course>174.16</course>
  <speed>0.04</speed>
  <fix>3d</fix>
</trkpt>
<trkpt lat="-27.2744386" lon="151.2900642">
  <ele>351.78</ele>
  <time>2026-09-01T19:56:29Z</time>
  <course>10.38</course>
  <speed>0.06082762530298219</speed>
  <fix>3d</fix>
</trkpt>
<trkpt lat="-27.2744384" lon="151.2900641">
  <ele>351.96</ele>
  <time>2026-09-01T19:56:29Z</time>
  <course>174.28</course>
  <speed>0.04</speed>
  <fix>3d</fix>
</trkpt>
<trkpt lat="-27.2744386" lon="151.2900642">
  <ele>351.68</ele>
  <time>2026-09-01T19:56:29Z</time>
  <course>10.38</course>
  <speed>0.06082762530298219</speed>
  <fix>3d</fix>
</trkpt>
<trkpt lat="-27.2744384" lon="151.2900641">
  <ele>351.96</ele>
  <time>2026-09-01T19:56:29Z</time>
  <course>174.28</course>
  <speed>0.04</speed>
  <fix>3d</fix>
</trkpt>
<trkpt lat="-27.2744387" lon="151.2900642">
  <ele>351.58</ele>
  <time>2026-09-01T19:56:29Z</time>
  <course>10.38</course>
  <speed>0.06082762530298219</speed>
  <fix>3d</fix>
</trkpt>
<trkpt lat="-27.2744385" lon="151.2900642">
  <ele>351.75</ele>
  <time>2026-09-01T19:56:29Z</time>
  <course>174.53</course>
  <speed>0.04</speed>
  <fix>3d</fix>
</trkpt>
<trkpt lat="-27.2744387" lon="151.2900642">
  <ele>351.48</ele>
  <time>2026-09-01T19:56:29Z</time>
  <course>10.37</course>
  <speed>0.06082762530298219</speed>
  <fix>3d</fix>
</trkpt>
<trkpt lat="-27.2744385" lon="151.2900642">
  <ele>351.75</ele>
  <time>2026-09-01T19:56:29Z</time>
  <course>174.53</course>
  <speed>0.04</speed>
  <fix>3d</fix>
</trkpt>
<trkpt lat="-27.2744388" lon="151.2900642">
  <ele>351.38</ele>
  <time>2026-09-01T19:56:29Z</time>
  <course>10.37</course>
  <speed>0.06082762530298219</speed>
  <fix>3d</fix>
</trkpt>
<trkpt lat="-27.2744386" lon="151.2900642">
  <ele>351.55</ele>
  <time>2026-09-01T19:56:29Z</time>
  <course>174.61</course>
  <speed>0.04</speed>
  <fix>3d</fix>
</trkpt>
<trkpt lat="-27.2744388" lon="151.2900642">
  <ele>351.29</ele>
  <time>2026-09-01T19:56:29Z</time>
  <course>10.36</course>
  <speed>0.0632455532033676</speed>
  <fix>3d</fix>
</trkpt>
<trkpt lat="-27.2744386" lon="151.2900642">
  <ele>351.55</ele>
  <time>2026-09-01T19:56:29Z</time>
  <course>174.61</course>
  <speed>0.04</speed>
  <fix>3d</fix>
</trkpt>
<trkpt lat="-27.2744388" lon="151.2900643">
  <ele>351.2</ele>
  <time>2026-09-01T19:56:29Z</time>
  <course>10.35</course>
  <speed>0.0632455532033676</speed>
  <fix>3d</fix>
</trkpt>
<trkpt lat="-27.2744387" lon="151.2900642">
  <ele>351.35</ele>
  <time>2026-09-01T19:56:29Z</time>
  <course>174.12</course>
  <speed>0.04</speed>
  <fix>3d</fix>
</trkpt>
<trkpt lat="-27.2744389" lon="151.2900643">
  <ele>351.11</ele>
  <time>2026-09-01T19:56:29Z</time>
  <course>10.34</course>
  <speed>0.0632455532033676</speed>
  <fix>3d</fix>
</trkpt>
<trkpt lat="-27.2744387" lon="151.2900642">
  <ele>351.35</ele>
  <time>2026-09-01T19:56:29Z</time>
  <course>174.12</course>
  <speed>0.04</speed>
  <fix>3d</fix>
</trkpt>
<trkpt lat="-27.2744389" lon="151.2900643">
  <ele>351.02</ele>
  <time>2026-09-01T19:56:29Z</time>
  <course>10.34</course>
  <speed>0.0632455532033676</speed>
  <fix>3d</fix>
</trkpt>
<trkpt lat="-27.2744387" lon="151.2900642">
  <ele>351.16</ele>
  <time>2026-09-01T19:56:29Z</time>
  <course>173.42</course>
  <speed>0.04</speed>
  <fix>3d</fix>
</trkpt>
<trkpt lat="-27.274439" lon="151.2900643">
  <ele>350.93</ele>
  <time>2026-09-01T19:56:29Z</time>
  <course>10.33</course>
  <speed>0.0632455532033676</speed>
  <fix>3d</fix>
</trkpt>
<trkpt lat="-27.2744387" lon="151.2900642">
  <ele>351.16</ele>
  <time>2026-09-01T19:56:29Z</time>
  <course>173.42</course>
  <speed>0.04</speed>
  <fix>3d</fix>
</trkpt>
<trkpt lat="-27.274439" lon="151.2900643">
  <ele>350.84</ele>
  <time>2026-09-01T19:56:29Z</time>
  <course>10.32</course>
  <speed>0.053851648071345036</speed>
  <fix>3d</fix>
</trkpt>
<trkpt lat="-27.2744388" lon="151.2900642">
  <ele>350.98</ele>
  <time>2026-09-01T19:56:29Z</time>
  <course>172.5</course>
  <speed>0.04</speed>
  <fix>3d</fix>
</trkpt>
<trkpt lat="-27.274439" lon="151.2900643">
  <ele>350.75</ele>
  <time>2026-09-01T19:56:29Z</time>
  <course>10.31</course>
  <speed>0.053851648071345036</speed>
  <fix>3d</fix>
</trkpt>
<trkpt lat="-27.2744388" lon="151.2900642">
  <ele>350.98</ele>
  <time>2026-09-01T19:56:29Z</time>
  <course>172.5</course>
  <speed>0.04</speed>
  <fix>3d</fix>
</trkpt>
<trkpt lat="-27.2744391" lon="151.2900643">
  <ele>350.67</ele>
  <time>2026-09-01T19:56:29Z</time>
  <course>10.3</course>
  <speed>0.053851648071345036</speed>
  <fix>3d</fix>
</trkpt>
<trkpt lat="-27.2744389" lon="151.2900642">
  <ele>350.8</ele>
  <time>2026-09-01T19:56:29Z</time>
  <course>171.05</course>
  <speed>0.03</speed>
  <fix>3d</fix>
</trkpt>
<trkpt lat="-27.2744391" lon="151.2900643">
  <ele>350.58</ele>
  <time>2026-09-01T19:56:29Z</time>
  <course>10.31</course>
  <speed>0.053851648071345036</speed>
  <fix>3d</fix>
</trkpt>
<trkpt lat="-27.2744389" lon="151.2900642">
  <ele>350.8</ele>
  <time>2026-09-01T19:56:29Z</time>
  <course>171.05</course>
  <speed>0.03</speed>
  <fix>3d</fix>
</trkpt>
<trkpt lat="-27.2744391" lon="151.2900643">
  <ele>350.5</ele>
  <time>2026-09-01T19:56:29Z</time>
  <course>10.32</course>
  <speed>0.053851648071345036</speed>
  <fix>3d</fix>
</trkpt>
<trkpt lat="-27.274439" lon="151.2900642">
  <ele>350.63</ele>
  <time>2026-09-01T19:56:29Z</time>
  <course>169.81</course>
  <speed>0.03</speed>
  <fix>3d</fix>
</trkpt>
<trkpt lat="-27.2744392" lon="151.2900643">
  <ele>350.42</ele>
  <time>2026-09-01T19:56:29Z</time>
  <course>10.34</course>
  <speed>0.05099019513592785</speed>
  <fix>3d</fix>
</trkpt>
<trkpt lat="-27.274439" lon="151.2900642">
  <ele>350.63</ele>
  <time>2026-09-01T19:56:29Z</time>
  <course>169.81</course>
  <speed>0.03</speed>
  <fix>3d</fix>
</trkpt>
<trkpt lat="-27.2744392" lon="151.2900643">
  <ele>350.34</ele>
  <time>2026-09-01T19:56:29Z</time>
  <course>10.37</course>
  <speed>0.0412310562561766</speed>
  <fix>3d</fix>
</trkpt>
<trkpt lat="-27.274439" lon="151.2900642">
  <ele>350.46</ele>
  <time>2026-09-01T19:56:29Z</time>
  <course>171.13</course>
  <speed>0.03</speed>
  <fix>3d</fix>
</trkpt>
<trkpt lat="-27.2744392" lon="151.2900643">
  <ele>350.26</ele>
  <time>2026-09-01T19:56:29Z</time>
  <course>10.41</course>
  <speed>0.0412310562561766</speed>
  <fix>3d</fix>
</trkpt>
<trkpt lat="-27.274439" lon="151.2900642">
  <ele>350.46</ele>
  <time>2026-09-01T19:56:29Z</time>
  <course>171.13</course>
  <speed>0.03</speed>
  <fix>3d</fix>
</trkpt>
<trkpt lat="-27.2744392" lon="151.2900643">
  <ele>350.19</ele>
  <time>2026-09-01T19:56:29Z</time>
  <course>10.45</course>
  <speed>0.04</speed>
  <fix>3d</fix>
</trkpt>
<trkpt lat="-27.2744391" lon="151.2900642">
  <ele>350.3</ele>
  <time>2026-09-01T19:56:29Z</time>
  <course>179.51</course>
  <speed>0.02</speed>
  <fix>3d</fix>
</trkpt>
<trkpt lat="-27.2744393" lon="151.2900643">
  <ele>350.11</ele>
  <time>2026-09-01T19:56:29Z</time>
  <course>10.49</course>
  <speed>0.04</speed>
  <fix>3d</fix>
</trkpt>
<trkpt lat="-27.2744391" lon="151.2900642">
  <ele>350.3</ele>
  <time>2026-09-01T19:56:29Z</time>
  <course>179.51</course>
  <speed>0.02</speed>
  <fix>3d</fix>
</trkpt>
<trkpt lat="-27.2744393" lon="151.2900643">
  <ele>350.04</ele>
  <time>2026-09-01T19:56:29Z</time>
  <course>10.53</course>
  <speed>0.03</speed>
  <fix>3d</fix>
</trkpt>
<trkpt lat="-27.2744391" lon="151.2900642">
  <ele>350.14</ele>
  <time>2026-09-01T19:56:29Z</time>
  <course>200.1</course>
  <speed>0.02</speed>
  <fix>3d</fix>
</trkpt>
<trkpt lat="-27.2744393" lon="151.2900643">
  <ele>349.96</ele>
  <time>2026-09-01T19:56:29Z</time>
  <course>10.57</course>
  <speed>0.0316227766016838</speed>
  <fix>3d</fix>
</trkpt>
<trkpt lat="-27.2744391" lon="151.2900642">
  <ele>350.14</ele>
  <time>2026-09-01T19:56:29Z</time>
  <course>200.1</course>
  <speed>0.02</speed>
  <fix>3d</fix>
</trkpt>
<trkpt lat="-27.2744393" lon="151.2900643">
  <ele>349.89</ele>
  <time>2026-09-01T19:56:29Z</time>
  <course>10.61</course>
  <speed>0.0316227766016838</speed>
  <fix>3d</fix>
</trkpt>
<trkpt lat="-27.2744392" lon="151.2900642">
  <ele>349.99</ele>
  <time>2026-09-01T19:56:29Z</time>
  <course>230.26</course>
  <speed>0.02</speed>
  <fix>3d</fix>
</trkpt>
<trkpt lat="-27.2744393" lon="151.2900643">
  <ele>349.82</ele>
  <time>2026-09-01T19:56:29Z</time>
  <course>10.64</course>
  <speed>0.0282842712474619</speed>
  <fix>3d</fix>
</trkpt>
<trkpt lat="-27.2744392" lon="151.2900642">
  <ele>349.99</ele>
  <time>2026-09-01T19:56:29Z</time>
  <course>230.26</course>
  <speed>0.02</speed>
  <fix>3d</fix>
</trkpt>
<trkpt lat="-27.2744393" lon="151.2900642">
  <ele>349.75</ele>
  <time>2026-09-01T19:56:29Z</time>
  <course>10.66</course>
  <speed>0.03605551275463989</speed>
  <fix>3d</fix>
</trkpt>
<trkpt lat="-27.2744392" lon="151.2900642">
  <ele>349.85</ele>
  <time>2026-09-01T19:56:29Z</time>
  <course>253.49</course>
  <speed>0.03</speed>
  <fix>3d</fix>
</trkpt>
<trkpt lat="-27.2744393" lon="151.2900642">
  <ele>349.69</ele>
  <time>2026-09-01T19:56:29Z</time>
  <course>10.68</course>
  <speed>0.03605551275463989</speed>
  <fix>3d</fix>
</trkpt>
<trkpt lat="-27.2744392" lon="151.2900642">
  <ele>349.85</ele>
  <time>2026-09-01T19:56:29Z</time>
  <course>253.49</course>
  <speed>0.03</speed>
  <fix>3d</fix>
</trkpt>
<trkpt lat="-27.2744393" lon="151.2900641">
  <ele>349.62</ele>
  <time>2026-09-01T19:56:29Z</time>
  <course>10.7</course>
  <speed>0.0412310562561766</speed>
  <fix>3d</fix>
</trkpt>
<trkpt lat="-27.2744392" lon="151.2900641">
  <ele>349.71</ele>
  <time>2026-09-01T19:56:29Z</time>
  <course>266.24</course>
  <speed>0.04</speed>
  <fix>3d</fix>
</trkpt>
<trkpt lat="-27.2744393" lon="151.2900641">
  <ele>349.55</ele>
  <time>2026-09-01T19:56:29Z</time>
  <course>10.71</course>
  <speed>0.0412310562561766</speed>
  <fix>3d</fix>
</trkpt>
<trkpt lat="-27.2744392" lon="151.2900641">
  <ele>349.71</ele>
  <time>2026-09-01T19:56:29Z</time>
  <course>266.24</course>
  <speed>0.04</speed>
  <fix>3d</fix>
</trkpt>
<trkpt lat="-27.2744393" lon="151.290064">
  <ele>349.49</ele>
  <time>2026-09-01T19:56:29Z</time>
  <course>10.72</course>
  <speed>0.05099019513592785</speed>
  <fix>3d</fix>
</trkpt>
<trkpt lat="-27.2744392" lon="151.290064">
  <ele>349.58</ele>
  <time>2026-09-01T19:56:29Z</time>
  <course>273.39</course>
  <speed>0.05</speed>
  <fix>3d</fix>
</trkpt>
<trkpt lat="-27.2744393" lon="151.290064">
  <ele>349.43</ele>
  <time>2026-09-01T19:56:29Z</time>
  <course>10.73</course>
  <speed>0.05</speed>
  <fix>3d</fix>
</trkpt>
<trkpt lat="-27.2744392" lon="151.290064">
  <ele>349.58</ele>
  <time>2026-09-01T19:56:29Z</time>
  <course>273.39</course>
  <speed>0.05</speed>
  <fix>3d</fix>
</trkpt>
<trkpt lat="-27.2744393" lon="151.2900639">
  <ele>349.37</ele>
  <time>2026-09-01T19:56:29Z</time>
  <course>10.74</course>
  <speed>0.06</speed>
  <fix>3d</fix>
</trkpt>
<trkpt lat="-27.2744392" lon="151.2900639">
  <ele>349.45</ele>
  <time>2026-09-01T19:56:29Z</time>
  <course>277.98</course>
  <speed>0.06</speed>
  <fix>3d</fix>
</trkpt>
<trkpt lat="-27.2744393" lon="151.2900638">
  <ele>349.31</ele>
  <time>2026-09-01T19:56:29Z</time>
  <course>10.75</course>
  <speed>0.06</speed>
  <fix>3d</fix>
</trkpt>
<trkpt lat="-27.2744392" lon="151.2900639">
  <ele>349.45</ele>
  <time>2026-09-01T19:56:29Z</time>
  <course>277.98</course>
  <speed>0.06</speed>
  <fix>3d</fix>
</trkpt>
<trkpt lat="-27.2744393" lon="151.2900637">
  <ele>349.26</ele>
  <time>2026-09-01T19:56:29Z</time>
  <course>10.75</course>
  <speed>0.07</speed>
  <fix>3d</fix>
</trkpt>
<trkpt lat="-27.2744392" lon="151.2900637">
  <ele>349.33</ele>
  <time>2026-09-01T19:56:29Z</time>
  <course>281.4</course>
  <speed>0.07</speed>
  <fix>3d</fix>
</trkpt>
<trkpt lat="-27.2744393" lon="151.2900636">
  <ele>349.2</ele>
  <time>2026-09-01T19:56:29Z</time>
  <course>10.75</course>
  <speed>0.07</speed>
  <fix>3d</fix>
</trkpt>
<trkpt lat="-27.2744392" lon="151.2900637">
  <ele>349.33</ele>
  <time>2026-09-01T19:56:29Z</time>
  <course>281.4</course>
  <speed>0.07</speed>
  <fix>3d</fix>
</trkpt>
<trkpt lat="-27.2744393" lon="151.2900635">
  <ele>349.14</ele>
  <time>2026-09-01T19:56:29Z</time>
  <course>10.76</course>
  <speed>0.07</speed>
  <fix>3d</fix>
</trkpt>
<trkpt lat="-27.2744392" lon="151.2900636">
  <ele>349.21</ele>
  <time>2026-09-01T19:56:29Z</time>
  <course>284.24</course>
  <speed>0.08</speed>
  <fix>3d</fix>
</trkpt>
<trkpt lat="-27.2744393" lon="151.2900635">
  <ele>349.09</ele>
  <time>2026-09-01T19:56:29Z</time>
  <course>10.76</course>
  <speed>0.07</speed>
  <fix>3d</fix>
</trkpt>
<trkpt lat="-27.2744392" lon="151.2900636">
  <ele>349.21</ele>
  <time>2026-09-01T19:56:29Z</time>
  <course>284.24</course>
  <speed>0.08</speed>
  <fix>3d</fix>
</trkpt>
<trkpt lat="-27.2744393" lon="151.2900634">
  <ele>349.04</ele>
  <time>2026-09-01T19:56:29Z</time>
  <course>10.77</course>
  <speed>0.07</speed>
  <fix>3d</fix>
</trkpt>
<trkpt lat="-27.2744392" lon="151.2900634">
  <ele>349.1</ele>
  <time>2026-09-01T19:56:29Z</time>
  <course>286.49</course>
  <speed>0.09</speed>
  <fix>3d</fix>
</trkpt>
<trkpt lat="-27.2744393" lon="151.2900633">
  <ele>348.98</ele>
  <time>2026-09-01T19:56:29Z</time>
  <course>10.77</course>
  <speed>0.07</speed>
  <fix>3d</fix>
</trkpt>
<trkpt lat="-27.2744392" lon="151.2900634">
  <ele>349.1</ele>
  <time>2026-09-01T19:56:29Z</time>
  <course>286.49</course>
  <speed>0.09</speed>
  <fix>3d</fix>
</trkpt>
<trkpt lat="-27.2744392" lon="151.2900632">
  <ele>348.93</ele>
  <time>2026-09-01T19:56:29Z</time>
  <course>10.77</course>
  <speed>0.07071067811865475</speed>
  <fix>3d</fix>
</trkpt>
<trkpt lat="-27.2744391" lon="151.2900632">
  <ele>348.99</ele>
  <time>2026-09-01T19:56:29Z</time>
  <course>288.5</course>
  <speed>0.09</speed>
  <fix>3d</fix>
</trkpt>
<trkpt lat="-27.2744392" lon="151.2900631">
  <ele>348.88</ele>
  <time>2026-09-01T19:56:29Z</time>
  <course>10.78</course>
  <speed>0.07071067811865475</speed>
  <fix>3d</fix>
</trkpt>
<trkpt lat="-27.2744391" lon="151.2900632">
  <ele>348.99</ele>
  <time>2026-09-01T19:56:29Z</time>
  <course>288.5</course>
  <speed>0.09</speed>
  <fix>3d</fix>
</trkpt>
<trkpt lat="-27.2744392" lon="151.290063">
  <ele>348.83</ele>
  <time>2026-09-01T19:56:29Z</time>
  <course>10.79</course>
  <speed>0.07071067811865475</speed>
  <fix>3d</fix>
</trkpt>
<trkpt lat="-27.274439" lon="151.2900631">
  <ele>348.88</ele>
  <time>2026-09-01T19:56:29Z</time>
  <course>290.69</course>
  <speed>0.09</speed>
  <fix>3d</fix>
</trkpt>
<trkpt lat="-27.2744392" lon="151.2900629">
  <ele>348.78</ele>
  <time>2026-09-01T19:56:29Z</time>
  <course>10.79</course>
  <speed>0.07071067811865475</speed>
  <fix>3d</fix>
</trkpt>
<trkpt lat="-27.274439" lon="151.2900631">
  <ele>348.88</ele>
  <time>2026-09-01T19:56:29Z</time>
  <course>290.69</course>
  <speed>0.09</speed>
  <fix>3d</fix>
</trkpt>
<trkpt lat="-27.2744391" lon="151.2900628">
  <ele>348.73</ele>
  <time>2026-09-01T19:56:29Z</time>
  <course>10.79</course>
  <speed>0.06082762530298219</speed>
  <fix>3d</fix>
</trkpt>
<trkpt lat="-27.274439" lon="151.2900629">
  <ele>348.78</ele>
  <time>2026-09-01T19:56:29Z</time>
  <course>293.14</course>
  <speed>0.09</speed>
  <fix>3d</fix>
</trkpt>
<trkpt lat="-27.2744391" lon="151.2900628">
  <ele>348.68</ele>
  <time>2026-09-01T19:56:29Z</time>
  <course>10.79</course>
  <speed>0.06082762530298219</speed>
  <fix>3d</fix>
</trkpt>
<trkpt lat="-27.274439" lon="151.2900629">
  <ele>348.78</ele>
  <time>2026-09-01T19:56:29Z</time>
  <course>293.14</course>
  <speed>0.09</speed>
  <fix>3d</fix>
</trkpt>
<trkpt lat="-27.2744391" lon="151.2900627">
  <ele>348.63</ele>
  <time>2026-09-01T19:56:29Z</time>
  <course>10.79</course>
  <speed>0.06082762530298219</speed>
  <fix>3d</fix>
</trkpt>
<trkpt lat="-27.2744389" lon="151.2900627">
  <ele>348.67</ele>
  <time>2026-09-01T19:56:29Z</time>
  <course>295.85</course>
  <speed>0.09</speed>
  <fix>3d</fix>
</trkpt>
<trkpt lat="-27.274439" lon="151.2900626">
  <ele>348.58</ele>
  <time>2026-09-01T19:56:29Z</time>
  <course>10.79</course>
  <speed>0.05099019513592785</speed>
  <fix>3d</fix>
</trkpt>
<trkpt lat="-27.2744389" lon="151.2900627">
  <ele>348.67</ele>
  <time>2026-09-01T19:56:29Z</time>
  <course>295.85</course>
  <speed>0.09</speed>
  <fix>3d</fix>
</trkpt>
<trkpt lat="-27.274439" lon="151.2900625">
  <ele>348.53</ele>
  <time>2026-09-01T19:56:29Z</time>
  <course>10.79</course>
  <speed>0.05099019513592785</speed>
  <fix>3d</fix>
</trkpt>
<trkpt lat="-27.2744388" lon="151.2900625">
  <ele>348.57</ele>
  <time>2026-09-01T19:56:29Z</time>
  <course>298.87</course>
  <speed>0.09</speed>
  <fix>3d</fix>
</trkpt>
<trkpt lat="-27.274439" lon="151.2900625">
  <ele>348.48</ele>
  <time>2026-09-01T19:56:29Z</time>
  <course>10.79</course>
  <speed>0.05099019513592785</speed>
  <fix>3d</fix>
</trkpt>
<trkpt lat="-27.2744388" lon="151.2900625">
  <ele>348.57</ele>
  <time>2026-09-01T19:56:29Z</time>
  <course>298.87</course>
  <speed>0.09</speed>
  <fix>3d</fix>
</trkpt>
<trkpt lat="-27.2744389" lon="151.2900624">
  <ele>348.43</ele>
  <time>2026-09-01T19:56:29Z</time>
  <course>10.79</course>
  <speed>0.0412310562561766</speed>
  <fix>3d</fix>
</trkpt>
<trkpt lat="-27.2744387" lon="151.2900624">
  <ele>348.47</ele>
  <time>2026-09-01T19:56:29Z</time>
  <course>302.29</course>
  <speed>0.08</speed>
  <fix>3d</fix>
</trkpt>
<trkpt lat="-27.2744389" lon="151.2900624">
  <ele>348.38</ele>
  <time>2026-09-01T19:56:29Z</time>
  <course>10.79</course>
  <speed>0.0412310562561766</speed>
  <fix>3d</fix>
</trkpt>
<trkpt lat="-27.2744387" lon="151.2900624">
  <ele>348.47</ele>
  <time>2026-09-01T19:56:29Z</time>
  <course>302.29</course>
  <speed>0.08</speed>
  <fix>3d</fix>
</trkpt>
<trkpt lat="-27.2744388" lon="151.2900623">
  <ele>348.33</ele>
  <time>2026-09-01T19:56:29Z</time>
  <course>10.79</course>
  <speed>0.0316227766016838</speed>
  <fix>3d</fix>
</trkpt>
<trkpt lat="-27.2744387" lon="151.2900622">
  <ele>348.37</ele>
  <time>2026-09-01T19:56:29Z</time>
  <course>306.56</course>
  <speed>0.07</speed>
  <fix>3d</fix>
</trkpt>
<trkpt lat="-27.2744388" lon="151.2900623">
  <ele>348.28</ele>
  <time>2026-09-01T19:56:29Z</time>
  <course>10.79</course>
  <speed>0.022360679774997897</speed>
  <fix>3d</fix>
</trkpt>
<trkpt lat="-27.2744387" lon="151.2900622">
  <ele>348.37</ele>
  <time>2026-09-01T19:56:29Z</time>
  <course>306.56</course>
  <speed>0.07</speed>
  <fix>3d</fix>
</trkpt>
<trkpt lat="-27.2744388" lon="151.2900622">
  <ele>348.23</ele>
  <time>2026-09-01T19:56:29Z</time>
  <course>10.79</course>
  <speed>0.022360679774997897</speed>
  <fix>3d</fix>
</trkpt>
<trkpt lat="-27.2744386" lon="151.2900621">
  <ele>348.27</ele>
  <time>2026-09-01T19:56:29Z</time>
  <course>312.29</course>
  <speed>0.06</speed>
  <fix>3d</fix>
</trkpt>
<trkpt lat="-27.2744387" lon="151.2900622">
  <ele>348.18</ele>
  <time>2026-09-01T19:56:29Z</time>
  <course>10.8</course>
  <speed>0.01414213562373095</speed>
  <fix>3d</fix>
</trkpt>
<trkpt lat="-27.2744386" lon="151.2900621">
  <ele>348.27</ele>
  <time>2026-09-01T19:56:29Z</time>
  <course>312.29</course>
  <speed>0.06</speed>
  <fix>3d</fix>
</trkpt>
<trkpt lat="-27.2744387" lon="151.2900621">
  <ele>348.13</ele>
  <time>2026-09-01T19:56:29Z</time>
  <course>10.8</course>
  <speed>0.01414213562373095</speed>
  <fix>3d</fix>
</trkpt>
<trkpt lat="-27.2744385" lon="151.290062">
  <ele>348.16</ele>
  <time>2026-09-01T19:56:29Z</time>
  <course>319.75</course>
  <speed>0.06</speed>
  <fix>3d</fix>
</trkpt>
<trkpt lat="-27.2744387" lon="151.2900621">
  <ele>348.08</ele>
  <time>2026-09-01T19:56:29Z</time>
  <course>10.81</course>
  <speed>0.01</speed>
  <fix>3d</fix>
</trkpt>
<trkpt lat="-27.2744385" lon="151.290062">
  <ele>348.16</ele>
  <time>2026-09-01T19:56:29Z</time>
  <course>319.75</course>
  <speed>0.06</speed>
  <fix>3d</fix>
</trkpt>
<trkpt lat="-27.2744386" lon="151.2900621">
  <ele>348.03</ele>
  <time>2026-09-01T19:56:29Z</time>
  <course>10.81</course>
  <speed>0.01</speed>
  <fix>3d</fix>
</trkpt>
<trkpt lat="-27.2744384" lon="151.290062">
  <ele>348.06</ele>
  <time>2026-09-01T19:56:29Z</time>
  <course>328.74</course>
  <speed>0.05</speed>
  <fix>3d</fix>
</trkpt>
<trkpt lat="-27.2744386" lon="151.2900621">
  <ele>347.98</ele>
  <time>2026-09-01T19:56:29Z</time>
  <course>10.81</course>
  <speed>0.01</speed>
  <fix>3d</fix>
</trkpt>
<trkpt lat="-27.2744384" lon="151.290062">
  <ele>348.06</ele>
  <time>2026-09-01T19:56:29Z</time>
  <course>328.74</course>
  <speed>0.05</speed>
  <fix>3d</fix>
</trkpt>
<trkpt lat="-27.2744385" lon="151.2900621">
  <ele>347.92</ele>
  <time>2026-09-01T19:56:29Z</time>
  <course>10.82</course>
  <speed>0.01</speed>
  <fix>3d</fix>
</trkpt>
<trkpt lat="-27.2744383" lon="151.2900619">
  <ele>347.96</ele>
  <time>2026-09-01T19:56:29Z</time>
  <course>339.09</course>
  <speed>0.04</speed>
  <fix>3d</fix>
</trkpt>
<trkpt lat="-27.2744385" lon="151.2900621">
  <ele>347.87</ele>
  <time>2026-09-01T19:56:29Z</time>
  <course>10.82</course>
  <speed>0.01</speed>
  <fix>3d</fix>
</trkpt>
<trkpt lat="-27.2744383" lon="151.2900619">
  <ele>347.96</ele>
  <time>2026-09-01T19:56:29Z</time>
  <course>339.09</course>
  <speed>0.04</speed>
  <fix>3d</fix>
</trkpt>
<trkpt lat="-27.2744385" lon="151.2900621">
  <ele>347.82</ele>
  <time>2026-09-01T19:56:29Z</time>
  <course>10.83</course>
  <speed>0.01</speed>
  <fix>3d</fix>
</trkpt>
<trkpt lat="-27.2744383" lon="151.2900618">
  <ele>347.85</ele>
  <time>2026-09-01T19:56:29Z</time>
  <course>350.88</course>
  <speed>0.04</speed>
  <fix>3d</fix>
</trkpt>
<trkpt lat="-27.2744384" lon="151.2900621">
  <ele>347.77</ele>
  <time>2026-09-01T19:56:29Z</time>
  <course>10.83</course>
  <speed>0.02</speed>
  <fix>3d</fix>
</trkpt>
<trkpt lat="-27.2744383" lon="151.2900618">
  <ele>347.85</ele>
  <time>2026-09-01T19:56:29Z</time>
  <course>350.88</course>
  <speed>0.04</speed>
  <fix>3d</fix>
</trkpt>
<trkpt lat="-27.2744384" lon="151.2900621">
  <ele>347.72</ele>
  <time>2026-09-01T19:56:29Z</time>
  <course>10.84</course>
  <speed>0.02</speed>
  <fix>3d</fix>
</trkpt>
<trkpt lat="-27.2744382" lon="151.2900618">
  <ele>347.75</ele>
  <time>2026-09-01T19:56:29Z</time>
  <course>4.07</course>
  <speed>0.04</speed>
  <fix>3d</fix>
</trkpt>
<trkpt lat="-27.2744384" lon="151.2900621">
  <ele>347.67</ele>
  <time>2026-09-01T19:56:29Z</time>
  <course>10.84</course>
  <speed>0.02</speed>
  <fix>3d</fix>
</trkpt>
<trkpt lat="-27.2744382" lon="151.2900618">
  <ele>347.75</ele>
  <time>2026-09-01T19:56:29Z</time>
  <course>4.07</course>
  <speed>0.04</speed>
  <fix>3d</fix>
</trkpt>
<trkpt lat="-27.2744384" lon="151.2900621">
  <ele>347.62</ele>
  <time>2026-09-01T19:56:29Z</time>
  <course>10.84</course>
  <speed>0.03</speed>
  <fix>3d</fix>
</trkpt>
<trkpt lat="-27.2744381" lon="151.2900618">
  <ele>347.65</ele>
  <time>2026-09-01T19:56:29Z</time>
  <course>18.23</course>
  <speed>0.03</speed>
  <fix>3d</fix>
</trkpt>
<trkpt lat="-27.2744383" lon="151.2900621">
  <ele>347.57</ele>
  <time>2026-09-01T19:56:29Z</time>
  <course>10.85</course>
  <speed>0.03</speed>
  <fix>3d</fix>
</trkpt>
<trkpt lat="-27.2744381" lon="151.2900618">
  <ele>347.65</ele>
  <time>2026-09-01T19:56:29Z</time>
  <course>18.23</course>
  <speed>0.03</speed>
  <fix>3d</fix>
</trkpt>
<trkpt lat="-27.2744383" lon="151.2900621">
  <ele>347.52</ele>
  <time>2026-09-01T19:56:29Z</time>
  <course>10.86</course>
  <speed>0.04</speed>
  <fix>3d</fix>
</trkpt>
<trkpt lat="-27.2744381" lon="151.2900619">
  <ele>347.55</ele>
  <time>2026-09-01T19:56:29Z</time>
  <course>31.64</course>
  <speed>0.03</speed>
  <fix>3d</fix>
</trkpt>
<trkpt lat="-27.2744383" lon="151.2900621">
  <ele>347.46</ele>
  <time>2026-09-01T19:56:29Z</time>
  <course>10.86</course>
  <speed>0.04</speed>
  <fix>3d</fix>
</trkpt>
<trkpt lat="-27.2744381" lon="151.2900619">
  <ele>347.55</ele>
  <time>2026-09-01T19:56:29Z</time>
  <course>31.64</course>
  <speed>0.03</speed>
  <fix>3d</fix>
</trkpt>
<trkpt lat="-27.2744383" lon="151.2900621">
  <ele>347.41</ele>
  <time>2026-09-01T19:56:29Z</time>
  <course>10.87</course>
  <speed>0.04</speed>
  <fix>3d</fix>
</trkpt>
<trkpt lat="-27.274438" lon="151.290062">
  <ele>347.44</ele>
  <time>2026-09-01T19:56:29Z</time>
  <course>43.2</course>
  <speed>0.04</speed>
  <fix>3d</fix>
</trkpt>
<trkpt lat="-27.2744382" lon="151.2900621">
  <ele>347.36</ele>
  <time>2026-09-01T19:56:29Z</time>
  <course>10.87</course>
  <speed>0.04</speed>
  <fix>3d</fix>
</trkpt>
<trkpt lat="-27.274438" lon="151.290062">
  <ele>347.44</ele>
  <time>2026-09-01T19:56:29Z</time>
  <course>43.2</course>
  <speed>0.04</speed>
  <fix>3d</fix>
</trkpt>
<trkpt lat="-27.2744382" lon="151.2900622">
  <ele>347.31</ele>
  <time>2026-09-01T19:56:29Z</time>
  <course>10.87</course>
  <speed>0.05</speed>
  <fix>3d</fix>
</trkpt>
<trkpt lat="-27.274438" lon="151.290062">
  <ele>347.34</ele>
  <time>2026-09-01T19:56:29Z</time>
  <course>53.08</course>
  <speed>0.04</speed>
  <fix>3d</fix>
</trkpt>
<trkpt lat="-27.2744382" lon="151.2900622">
  <ele>347.26</ele>
  <time>2026-09-01T19:56:29Z</time>
  <course>10.87</course>
  <speed>0.05099019513592785</speed>
  <fix>3d</fix>
</trkpt>
<trkpt lat="-27.274438" lon="151.290062">
  <ele>347.34</ele>
  <time>2026-09-01T19:56:29Z</time>
  <course>53.08</course>
  <speed>0.04</speed>
  <fix>3d</fix>
</trkpt>
<trkpt lat="-27.2744382" lon="151.2900622">
  <ele>347.21</ele>
  <time>2026-09-01T19:56:29Z</time>
  <course>10.87</course>
  <speed>0.05099019513592785</speed>
  <fix>3d</fix>
</trkpt>
<trkpt lat="-27.2744379" lon="151.290062">
  <ele>347.24</ele>
  <time>2026-09-01T19:56:29Z</time>
  <course>61.28</course>
  <speed>0.04</speed>
  <fix>3d</fix>
</trkpt>
<trkpt lat="-27.2744382" lon="151.2900623">
  <ele>347.16</ele>
  <time>2026-09-01T19:56:29Z</time>
  <course>10.87</course>
  <speed>0.05099019513592785</speed>
  <fix>3d</fix>
</trkpt>
<trkpt lat="-27.2744379" lon="151.290062">
  <ele>347.24</ele>
  <time>2026-09-01T19:56:29Z</time>
  <course>61.28</course>
  <speed>0.04</speed>
  <fix>3d</fix>
</trkpt>
<trkpt lat="-27.2744382" lon="151.2900623">
  <ele>347.11</ele>
  <time>2026-09-01T19:56:29Z</time>
  <course>10.88</course>
  <speed>0.06082762530298219</speed>
  <fix>3d</fix>
</trkpt>
<trkpt lat="-27.2744379" lon="151.2900621">
  <ele>347.14</ele>
  <time>2026-09-01T19:56:29Z</time>
  <course>67.95</course>
  <speed>0.05</speed>
  <fix>3d</fix>
</trkpt>
<trkpt lat="-27.2744381" lon="151.2900624">
  <ele>347.06</ele>
  <time>2026-09-01T19:56:29Z</time>
  <course>10.88</course>
  <speed>0.06082762530298219</speed>
  <fix>3d</fix>
</trkpt>
<trkpt lat="-27.2744379" lon="151.2900621">
  <ele>347.14</ele>
  <time>2026-09-01T19:56:29Z</time>
  <course>67.95</course>
  <speed>0.05</speed>
  <fix>3d</fix>
</trkpt>
<trkpt lat="-27.2744381" lon="151.2900624">
  <ele>347.01</ele>
  <time>2026-09-01T19:56:29Z</time>
  <course>10.88</course>
  <speed>0.06082762530298219</speed>
  <fix>3d</fix>
</trkpt>
<trkpt lat="-27.2744379" lon="151.2900622">
  <ele>347.03</ele>
  <time>2026-09-01T19:56:29Z</time>
  <course>73.42</course>
  <speed>0.05</speed>
  <fix>3d</fix>
</trkpt>
<trkpt lat="-27.2744381" lon="151.2900625">
  <ele>346.96</ele>
  <time>2026-09-01T19:56:29Z</time>
  <course>10.88</course>
  <speed>0.0632455532033676</speed>
  <fix>3d</fix>
</trkpt>
<trkpt lat="-27.2744379" lon="151.2900622">
  <ele>347.03</ele>
  <time>2026-09-01T19:56:29Z</time>
  <course>73.42</course>
  <speed>0.05</speed>
  <fix>3d</fix>
</trkpt>
<trkpt lat="-27.2744381" lon="151.2900625">
  <ele>346.91</ele>
  <time>2026-09-01T19:56:29Z</time>
  <course>10.88</course>
  <speed>0.0632455532033676</speed>
  <fix>3d</fix>
</trkpt>
<trkpt lat="-27.2744378" lon="151.2900623">
  <ele>346.94</ele>
  <time>2026-09-01T19:56:29Z</time>
  <course>78.01</course>
  <speed>0.05</speed>
  <fix>3d</fix>
</trkpt>
<trkpt lat="-27.2744381" lon="151.2900626">
  <ele>346.86</ele>
  <time>2026-09-01T19:56:29Z</time>
  <course>10.88</course>
  <speed>0.0632455532033676</speed>
  <fix>3d</fix>
</trkpt>
<trkpt lat="-27.2744378" lon="151.2900623">
  <ele>346.94</ele>
  <time>2026-09-01T19:56:29Z</time>
  <course>78.01</course>
  <speed>0.05</speed>
  <fix>3d</fix>
</trkpt>
<trkpt lat="-27.2744381" lon="151.2900626">
  <ele>346.81</ele>
  <time>2026-09-01T19:56:29Z</time>
  <course>10.88</course>
  <speed>0.0632455532033676</speed>
  <fix>3d</fix>
</trkpt>
<trkpt lat="-27.2744378" lon="151.2900624">
  <ele>346.84</ele>
  <time>2026-09-01T19:56:29Z</time>
  <course>82.07</course>
  <speed>0.05</speed>
  <fix>3d</fix>
</trkpt>
<trkpt lat="-27.2744381" lon="151.2900627">
  <ele>346.76</ele>
  <time>2026-09-01T19:56:29Z</time>
  <course>10.88</course>
  <speed>0.0632455532033676</speed>
  <fix>3d</fix>
</trkpt>
<trkpt lat="-27.2744378" lon="151.2900624">
  <ele>346.84</ele>
  <time>2026-09-01T19:56:29Z</time>
  <course>82.07</course>
  <speed>0.05</speed>
  <fix>3d</fix>
</trkpt>
<trkpt lat="-27.2744381" lon="151.2900627">
  <ele>346.71</ele>
  <time>2026-09-01T19:56:29Z</time>
  <course>10.88</course>
  <speed>0.0632455532033676</speed>
  <fix>3d</fix>
</trkpt>
<trkpt lat="-27.2744378" lon="151.2900626">
  <ele>346.74</ele>
  <time>2026-09-01T19:56:29Z</time>
  <course>85.79</course>
  <speed>0.05</speed>
  <fix>3d</fix>
</trkpt>
<trkpt lat="-27.2744381" lon="151.2900628">
  <ele>346.66</ele>
  <time>2026-09-01T19:56:29Z</time>
  <course>10.88</course>
  <speed>0.0670820393249937</speed>
  <fix>3d</fix>
</trkpt>
<trkpt lat="-27.2744378" lon="151.2900626">
  <ele>346.74</ele>
  <time>2026-09-01T19:56:29Z</time>
  <course>85.79</course>
  <speed>0.05</speed>
  <fix>3d</fix>
</trkpt>
<trkpt lat="-27.2744381" lon="151.2900628">
  <ele>346.61</ele>
  <time>2026-09-01T19:56:29Z</time>
  <course>10.88</course>
  <speed>0.0670820393249937</speed>
  <fix>3d</fix>
</trkpt>
<trkpt lat="-27.2744378" lon="151.2900627">
  <ele>346.64</ele>
  <time>2026-09-01T19:56:29Z</time>
  <course>89.29</course>
  <speed>0.05</speed>
  <fix>3d</fix>
</trkpt>
<trkpt lat="-27.2744381" lon="151.2900629">
  <ele>346.56</ele>
  <time>2026-09-01T19:56:29Z</time>
  <course>10.88</course>
  <speed>0.0670820393249937</speed>
  <fix>3d</fix>
</trkpt>
<trkpt lat="-27.2744378" lon="151.2900627">
  <ele>346.64</ele>
  <time>2026-09-01T19:56:29Z</time>
  <course>89.29</course>
  <speed>0.05</speed>
  <fix>3d</fix>
</trkpt>
<trkpt lat="-27.2744381" lon="151.290063">
  <ele>346.51</ele>
  <time>2026-09-01T19:56:29Z</time>
  <course>10.88</course>
  <speed>0.0670820393249937</speed>
  <fix>3d</fix>
</trkpt>
<trkpt lat="-27.2744378" lon="151.2900628">
  <ele>346.53</ele>
  <time>2026-09-01T19:56:29Z</time>
  <course>92.57</course>
  <speed>0.05</speed>
  <fix>3d</fix>
</trkpt>
<trkpt lat="-27.2744381" lon="151.290063">
  <ele>346.46</ele>
  <time>2026-09-01T19:56:29Z</time>
  <course>10.88</course>
  <speed>0.0670820393249937</speed>
  <fix>3d</fix>
</trkpt>
<trkpt lat="-27.2744378" lon="151.2900628">
  <ele>346.53</ele>
  <time>2026-09-01T19:56:29Z</time>
  <course>92.57</course>
  <speed>0.05</speed>
  <fix>3d</fix>
</trkpt>
<trkpt lat="-27.2744381" lon="151.2900631">
  <ele>346.41</ele>
  <time>2026-09-01T19:56:29Z</time>
  <course>10.88</course>
  <speed>0.0670820393249937</speed>
  <fix>3d</fix>
</trkpt>
<trkpt lat="-27.2744378" lon="151.2900629">
  <ele>346.44</ele>
  <time>2026-09-01T19:56:29Z</time>
  <course>95.63</course>
  <speed>0.05</speed>
  <fix>3d</fix>
</trkpt>
<trkpt lat="-27.2744381" lon="151.2900631">
  <ele>346.36</ele>
  <time>2026-09-01T19:56:29Z</time>
  <course>10.88</course>
  <speed>0.0670820393249937</speed>
  <fix>3d</fix>
</trkpt>
<trkpt lat="-27.2744378" lon="151.2900629">
  <ele>346.44</ele>
  <time>2026-09-01T19:56:29Z</time>
  <course>95.63</course>
  <speed>0.05</speed>
  <fix>3d</fix>
</trkpt>
<trkpt lat="-27.2744381" lon="151.2900632">
  <ele>346.31</ele>
  <time>2026-09-01T19:56:29Z</time>
  <course>10.88</course>
  <speed>0.05830951894845301</speed>
  <fix>3d</fix>
</trkpt>
<trkpt lat="-27.2744378" lon="151.290063">
  <ele>346.34</ele>
  <time>2026-09-01T19:56:29Z</time>
  <course>98.58</course>
  <speed>0.05</speed>
  <fix>3d</fix>
</trkpt>
<trkpt lat="-27.2744381" lon="151.2900632">
  <ele>346.26</ele>
  <time>2026-09-01T19:56:29Z</time>
  <course>10.88</course>
  <speed>0.05830951894845301</speed>
  <fix>3d</fix>
</trkpt>
<trkpt lat="-27.2744378" lon="151.290063">
  <ele>346.34</ele>
  <time>2026-09-01T19:56:29Z</time>
  <course>98.58</course>
  <speed>0.05</speed>
  <fix>3d</fix>
</trkpt>
<trkpt lat="-27.2744381" lon="151.2900633">
  <ele>346.21</ele>
  <time>2026-09-01T19:56:29Z</time>
  <course>10.88</course>
  <speed>0.05830951894845301</speed>
  <fix>3d</fix>
</trkpt>
<trkpt lat="-27.2744378" lon="151.2900631">
  <ele>346.24</ele>
  <time>2026-09-01T19:56:29Z</time>
  <course>101.53</course>
  <speed>0.05</speed>
  <fix>3d</fix>
</trkpt>
<trkpt lat="-27.2744381" lon="151.2900633">
  <ele>346.16</ele>
  <time>2026-09-01T19:56:29Z</time>
  <course>10.88</course>
  <speed>0.05830951894845301</speed>
  <fix>3d</fix>
</trkpt>
<trkpt lat="-27.2744378" lon="151.2900631">
  <ele>346.24</ele>
  <time>2026-09-01T19:56:29Z</time>
  <course>101.53</course>
  <speed>0.05</speed>
  <fix>3d</fix>
</trkpt>
<trkpt lat="-27.2744381" lon="151.2900633">
  <ele>346.11</ele>
  <time>2026-09-01T19:56:29Z</time>
  <course>10.88</course>
  <speed>0.05830951894845301</speed>
  <fix>3d</fix>
</trkpt>
<trkpt lat="-27.2744378" lon="151.2900632">
  <ele>346.14</ele>
  <time>2026-09-01T19:56:29Z</time>
  <course>104.36</course>
  <speed>0.05</speed>
  <fix>3d</fix>
</trkpt>
<trkpt lat="-27.2744381" lon="151.2900634">
  <ele>346.06</ele>
  <time>2026-09-01T19:56:29Z</time>
  <course>10.88</course>
  <speed>0.05830951894845301</speed>
  <fix>3d</fix>
</trkpt>
<trkpt lat="-27.2744378" lon="151.2900632">
  <ele>346.14</ele>
  <time>2026-09-01T19:56:29Z</time>
  <course>104.36</course>
  <speed>0.05</speed>
  <fix>3d</fix>
</trkpt>
<trkpt lat="-27.2744381" lon="151.2900634">
  <ele>346.01</ele>
  <time>2026-09-01T19:56:29Z</time>
  <course>10.88</course>
  <speed>0.05</speed>
  <fix>3d</fix>
</trkpt>
<trkpt lat="-27.2744378" lon="151.2900633">
  <ele>346.03</ele>
  <time>2026-09-01T19:56:29Z</time>
  <course>107.0</course>
  <speed>0.04</speed>
  <fix>3d</fix>
</trkpt>
<trkpt lat="-27.2744381" lon="151.2900635">
  <ele>345.96</ele>
  <time>2026-09-01T19:56:29Z</time>
  <course>10.88</course>
  <speed>0.05</speed>
  <fix>3d</fix>
</trkpt>
<trkpt lat="-27.2744378" lon="151.2900633">
  <ele>346.03</ele>
  <time>2026-09-01T19:56:29Z</time>
  <course>107.0</course>
  <speed>0.04</speed>
  <fix>3d</fix>
</trkpt>
<trkpt lat="-27.2744381" lon="151.2900635">
  <ele>345.91</ele>
  <time>2026-09-01T19:56:29Z</time>
  <course>10.88</course>
  <speed>0.05</speed>
  <fix>3d</fix>
</trkpt>
<trkpt lat="-27.2744378" lon="151.2900634">
  <ele>345.94</ele>
  <time>2026-09-01T19:56:29Z</time>
  <course>110.0</course>
  <speed>0.04</speed>
  <fix>3d</fix>
</trkpt>
<trkpt lat="-27.2744381" lon="151.2900635">
  <ele>345.86</ele>
  <time>2026-09-01T19:56:29Z</time>
  <course>10.88</course>
  <speed>0.05</speed>
  <fix>3d</fix>
</trkpt>
<trkpt lat="-27.2744378" lon="151.2900634">
  <ele>345.94</ele>
  <time>2026-09-01T19:56:29Z</time>
  <course>110.0</course>
  <speed>0.04</speed>
  <fix>3d</fix>
</trkpt>
<trkpt lat="-27.2744381" lon="151.2900636">
  <ele>345.81</ele>
  <time>2026-09-01T19:56:29Z</time>
  <course>10.88</course>
  <speed>0.04242640687119285</speed>
  <fix>3d</fix>
</trkpt>
<trkpt lat="-27.2744378" lon="151.2900635">
  <ele>345.84</ele>
  <time>2026-09-01T19:56:29Z</time>
  <course>113.87</course>
  <speed>0.04</speed>
  <fix>3d</fix>
</trkpt>
<trkpt lat="-27.2744381" lon="151.2900636">
  <ele>345.76</ele>
  <time>2026-09-01T19:56:29Z</time>
  <course>10.89</course>
  <speed>0.04242640687119285</speed>
  <fix>3d</fix>
</trkpt>
<trkpt lat="-27.2744378" lon="151.2900635">
  <ele>345.84</ele>
  <time>2026-09-01T19:56:29Z</time>
  <course>113.87</course>
  <speed>0.04</speed>
  <fix>3d</fix>
</trkpt>
<trkpt lat="-27.2744381" lon="151.2900636">
  <ele>345.71</ele>
  <time>2026-09-01T19:56:29Z</time>
  <course>10.89</course>
  <speed>0.04242640687119285</speed>
  <fix>3d</fix>
</trkpt>
<trkpt lat="-27.2744379" lon="151.2900636">
  <ele>345.74</ele>
  <time>2026-09-01T19:56:29Z</time>
  <course>118.74</course>
  <speed>0.03</speed>
  <fix>3d</fix>
</trkpt>
<trkpt lat="-27.2744381" lon="151.2900637">
  <ele>345.66</ele>
  <time>2026-09-01T19:56:29Z</time>
  <course>10.89</course>
  <speed>0.04242640687119285</speed>
  <fix>3d</fix>
</trkpt>
<trkpt lat="-27.2744379" lon="151.2900636">
  <ele>345.74</ele>
  <time>2026-09-01T19:56:29Z</time>
  <course>118.74</course>
  <speed>0.03</speed>
  <fix>3d</fix>
</trkpt>
<trkpt lat="-27.2744381" lon="151.2900637">
  <ele>345.61</ele>
  <time>2026-09-01T19:56:29Z</time>
  <course>10.89</course>
  <speed>0.03605551275463989</speed>
  <fix>3d</fix>
</trkpt>
<trkpt lat="-27.2744379" lon="151.2900636">
  <ele>345.64</ele>
  <time>2026-09-01T19:56:29Z</time>
  <course>125.65</course>
  <speed>0.03</speed>
  <fix>3d</fix>
</trkpt>
<trkpt lat="-27.2744381" lon="151.2900637">
  <ele>345.56</ele>
  <time>2026-09-01T19:56:29Z</time>
  <course>10.89</course>
  <speed>0.03605551275463989</speed>
  <fix>3d</fix>
</trkpt>
<trkpt lat="-27.2744379" lon="151.2900636">
  <ele>345.64</ele>
  <time>2026-09-01T19:56:29Z</time>
  <course>125.65</course>
  <speed>0.03</speed>
  <fix>3d</fix>
</trkpt>
<trkpt lat="-27.2744381" lon="151.2900637">
  <ele>345.51</ele>
  <time>2026-09-01T19:56:29Z</time>
  <course>10.9</course>
  <speed>0.0316227766016838</speed>
  <fix>3d</fix>
</trkpt>
<trkpt lat="-27.2744379" lon="151.2900637">
  <ele>345.53</ele>
  <time>2026-09-01T19:56:29Z</time>
  <course>136.31</course>
  <speed>0.02</speed>
  <fix>3d</fix>
</trkpt>
<trkpt lat="-27.2744382" lon="151.2900637">
  <ele>345.46</ele>
  <time>2026-09-01T19:56:29Z</time>
  <course>10.9</course>
  <speed>0.0316227766016838</speed>
  <fix>3d</fix>
</trkpt>
<trkpt lat="-27.2744379" lon="151.2900637">
  <ele>345.53</ele>
  <time>2026-09-01T19:56:29Z</time>
  <course>136.31</course>
  <speed>0.02</speed>
  <fix>3d</fix>
</trkpt>
<trkpt lat="-27.2744382" lon="151.2900637">
  <ele>345.41</ele>
  <time>2026-09-01T19:56:29Z</time>
  <course>10.91</course>
  <speed>0.0316227766016838</speed>
  <fix>3d</fix>
</trkpt>
<trkpt lat="-27.274438" lon="151.2900637">
  <ele>345.44</ele>
  <time>2026-09-01T19:56:29Z</time>
  <course>151.69</course>
  <speed>0.02</speed>
  <fix>3d</fix>
</trkpt>
<trkpt lat="-27.2744382" lon="151.2900637">
  <ele>345.37</ele>
  <time>2026-09-01T19:56:29Z</time>
  <course>10.92</course>
  <speed>0.03</speed>
  <fix>3d</fix>
</trkpt>
<trkpt lat="-27.274438" lon="151.2900637">
  <ele>345.44</ele>
  <time>2026-09-01T19:56:29Z</time>
  <course>151.69</course>
  <speed>0.02</speed>
  <fix>3d</fix>
</trkpt>
<trkpt lat="-27.2744382" lon="151.2900637">
  <ele>345.32</ele>
  <time>2026-09-01T19:56:29Z</time>
  <course>10.92</course>
  <speed>0.03</speed>
  <fix>3d</fix>
</trkpt>
<trkpt lat="-27.274438" lon="151.2900637">
  <ele>345.34</ele>
  <time>2026-09-01T19:56:29Z</time>
  <course>171.56</course>
  <speed>0.02</speed>
  <fix>3d</fix>
</trkpt>
<trkpt lat="-27.2744382" lon="151.2900637">
  <ele>345.27</ele>
  <time>2026-09-01T19:56:29Z</time>
  <course>10.88</course>
  <speed>0.03</speed>
  <fix>3d</fix>
</trkpt>
<trkpt lat="-27.274438" lon="151.2900637">
  <ele>345.34</ele>
  <time>2026-09-01T19:56:29Z</time>
  <course>171.56</course>
  <speed>0.02</speed>
  <fix>3d</fix>
</trkpt>
<trkpt lat="-27.2744382" lon="151.2900637">
  <ele>345.22</ele>
  <time>2026-09-01T19:56:29Z</time>
  <course>10.83</course>
  <speed>0.03</speed>
  <fix>3d</fix>
</trkpt>
<trkpt lat="-27.274438" lon="151.2900637">
  <ele>345.24</ele>
  <time>2026-09-01T19:56:29Z</time>
  <course>186.01</course>
  <speed>0.02</speed>
  <fix>3d</fix>
</trkpt>
<trkpt lat="-27.2744382" lon="151.2900637">
  <ele>345.17</ele>
  <time>2026-09-01T19:56:29Z</time>
  <course>10.78</course>
  <speed>0.03</speed>
  <fix>3d</fix>
</trkpt>
<trkpt lat="-27.274438" lon="151.2900637">
  <ele>345.24</ele>
  <time>2026-09-01T19:56:29Z</time>
  <course>186.01</course>
  <speed>0.02</speed>
  <fix>3d</fix>
</trkpt>
<trkpt lat="-27.2744382" lon="151.2900637">
  <ele>345.12</ele>
  <time>2026-09-01T19:56:29Z</time>
  <course>10.77</course>
  <speed>0.03</speed>
  <fix>3d</fix>
</trkpt>
<trkpt lat="-27.2744381" lon="151.2900637">
  <ele>345.14</ele>
  <time>2026-09-01T19:56:29Z</time>
  <course>189.24</course>
  <speed>0.02</speed>
  <fix>3d</fix>
</trkpt>
<trkpt lat="-27.2744383" lon="151.2900637">
  <ele>345.06</ele>
  <time>2026-09-01T19:56:29Z</time>
  <course>10.77</course>
  <speed>0.04</speed>
  <fix>3d</fix>
</trkpt>
<trkpt lat="-27.2744381" lon="151.2900637">
  <ele>345.03</ele>
  <time>2026-09-01T19:56:29Z</time>
  <course>189.23</course>
  <speed>0.02</speed>
  <fix>3d</fix>
</trkpt>
<trkpt lat="-27.2744383" lon="151.2900637">
  <ele>345.01</ele>
  <time>2026-09-01T19:56:29Z</time>
  <course>10.77</course>
  <speed>0.03</speed>
  <fix>3d</fix>
</trkpt>
<trkpt lat="-27.2744381" lon="151.2900637">
  <ele>345.03</ele>
  <time>2026-09-01T19:56:29Z</time>
  <course>189.23</course>
  <speed>0.02</speed>
  <fix>3d</fix>
</trkpt>
<trkpt lat="-27.2744383" lon="151.2900637">
  <ele>344.96</ele>
  <time>2026-09-01T19:56:29Z</time>
  <course>10.77</course>
  <speed>0.03</speed>
  <fix>3d</fix>
</trkpt>
<trkpt lat="-27.2744381" lon="151.2900637">
  <ele>344.94</ele>
  <time>2026-09-01T19:56:29Z</time>
  <course>188.94</course>
  <speed>0.02</speed>
  <fix>3d</fix>
</trkpt>
<trkpt lat="-27.2744383" lon="151.2900637">
  <ele>344.91</ele>
  <time>2026-09-01T19:56:29Z</time>
  <course>10.77</course>
  <speed>0.03</speed>
  <fix>3d</fix>
</trkpt>
<trkpt lat="-27.2744381" lon="151.2900637">
  <ele>344.94</ele>
  <time>2026-09-01T19:56:29Z</time>
  <course>188.94</course>
  <speed>0.02</speed>
  <fix>3d</fix>
</trkpt>
<trkpt lat="-27.2744383" lon="151.2900637">
  <ele>344.86</ele>
  <time>2026-09-01T19:56:29Z</time>
  <course>10.76</course>
  <speed>0.0316227766016838</speed>
  <fix>3d</fix>
</trkpt>
<trkpt lat="-27.2744382" lon="151.2900637">
  <ele>344.84</ele>
  <time>2026-09-01T19:56:29Z</time>
  <course>188.52</course>
  <speed>0.02</speed>
  <fix>3d</fix>
</trkpt>
<trkpt lat="-27.2744383" lon="151.2900637">
  <ele>344.81</ele>
  <time>2026-09-01T19:56:29Z</time>
  <course>10.76</course>
  <speed>0.0316227766016838</speed>
  <fix>3d</fix>
</trkpt>
<trkpt lat="-27.2744382" lon="151.2900637">
  <ele>344.84</ele>
  <time>2026-09-01T19:56:29Z</time>
  <course>188.52</course>
  <speed>0.02</speed>
  <fix>3d</fix>
</trkpt>
<trkpt lat="-27.2744384" lon="151.2900637">
  <ele>344.76</ele>
  <time>2026-09-01T19:56:29Z</time>
  <course>10.75</course>
  <speed>0.0316227766016838</speed>
  <fix>3d</fix>
</trkpt>
<trkpt lat="-27.2744382" lon="151.2900637">
  <ele>344.84</ele>
  <time>2026-09-01T19:56:29Z</time>
  <course>188.52</course>
  <speed>0.02</speed>
  <fix>3d</fix>
</trkpt>
<trkpt lat="-27.2744384" lon="151.2900637">
  <ele>344.71</ele>
  <time>2026-09-01T19:56:29Z</time>
  <course>10.74</course>
  <speed>0.0316227766016838</speed>
  <fix>3d</fix>
</trkpt>
<trkpt lat="-27.2744382" lon="151.2900637">
  <ele>344.74</ele>
  <time>2026-09-01T19:56:29Z</time>
  <course>188.35</course>
  <speed>0.02</speed>
  <fix>3d</fix>
</trkpt>
<trkpt lat="-27.2744384" lon="151.2900637">
  <ele>344.66</ele>
  <time>2026-09-01T19:56:29Z</time>
  <course>10.73</course>
  <speed>0.0316227766016838</speed>
  <fix>3d</fix>
</trkpt>
<trkpt lat="-27.2744382" lon="151.2900637">
  <ele>344.74</ele>
  <time>2026-09-01T19:56:29Z</time>
  <course>188.35</course>
  <speed>0.02</speed>
  <fix>3d</fix>
</trkpt>
<trkpt lat="-27.2744384" lon="151.2900637">
  <ele>344.62</ele>
  <time>2026-09-01T19:56:29Z</time>
  <course>10.73</course>
  <speed>0.0316227766016838</speed>
  <fix>3d</fix>
</trkpt>
<trkpt lat="-27.2744383" lon="151.2900637">
  <ele>344.64</ele>
  <time>2026-09-01T19:56:29Z</time>
  <course>188.06</course>
  <speed>0.01</speed>
  <fix>3d</fix>
</trkpt>
<trkpt lat="-27.2744384" lon="151.2900637">
  <ele>344.57</ele>
  <time>2026-09-01T19:56:29Z</time>
  <course>10.73</course>
  <speed>0.0316227766016838</speed>
  <fix>3d</fix>
</trkpt>
<trkpt lat="-27.2744383" lon="151.2900637">
  <ele>344.64</ele>
  <time>2026-09-01T19:56:29Z</time>
  <course>188.06</course>
  <speed>0.01</speed>
  <fix>3d</fix>
</trkpt>
<trkpt lat="-27.2744384" lon="151.2900637">
  <ele>344.52</ele>
  <time>2026-09-01T19:56:29Z</time>
  <course>10.73</course>
  <speed>0.0316227766016838</speed>
  <fix>3d</fix>
</trkpt>
<trkpt lat="-27.2744383" lon="151.2900637">
  <ele>344.53</ele>
  <time>2026-09-01T19:56:29Z</time>
  <course>187.91</course>
  <speed>0.01</speed>
  <fix>3d</fix>
</trkpt>
<trkpt lat="-27.2744385" lon="151.2900637">
  <ele>344.47</ele>
  <time>2026-09-01T19:56:29Z</time>
  <course>10.73</course>
  <speed>0.0316227766016838</speed>
  <fix>3d</fix>
</trkpt>
<trkpt lat="-27.2744383" lon="151.2900637">
  <ele>344.53</ele>
  <time>2026-09-01T19:56:29Z</time>
  <course>187.91</course>
  <speed>0.01</speed>
  <fix>3d</fix>
</trkpt>
<trkpt lat="-27.2744385" lon="151.2900637">
  <ele>344.42</ele>
  <time>2026-09-01T19:56:29Z</time>
  <course>10.74</course>
  <speed>0.0316227766016838</speed>
  <fix>3d</fix>
</trkpt>
<trkpt lat="-27.2744383" lon="151.2900637">
  <ele>344.44</ele>
  <time>2026-09-01T19:56:29Z</time>
  <course>188.2</course>
  <speed>0.01</speed>
  <fix>3d</fix>
</trkpt>
<trkpt lat="-27.2744385" lon="151.2900637">
  <ele>344.37</ele>
  <time>2026-09-01T19:56:29Z</time>
  <course>10.74</course>
  <speed>0.0316227766016838</speed>
  <fix>3d</fix>
</trkpt>
<trkpt lat="-27.2744383" lon="151.2900637">
  <ele>344.44</ele>
  <time>2026-09-01T19:56:29Z</time>
  <course>188.2</course>
  <speed>0.01</speed>
  <fix>3d</fix>
</trkpt>
<trkpt lat="-27.2744385" lon="151.2900637">
  <ele>344.32</ele>
  <time>2026-09-01T19:56:29Z</time>
  <course>10.74</course>
  <speed>0.0316227766016838</speed>
  <fix>3d</fix>
</trkpt>
<trkpt lat="-27.2744384" lon="151.2900637">
  <ele>344.34</ele>
  <time>2026-09-01T19:56:29Z</time>
  <course>188.06</course>
  <speed>0.01</speed>
  <fix>3d</fix>
</trkpt>
<trkpt lat="-27.2744385" lon="151.2900637">
  <ele>344.27</ele>
  <time>2026-09-01T19:56:29Z</time>
  <course>10.73</course>
  <speed>0.0316227766016838</speed>
  <fix>3d</fix>
</trkpt>
<trkpt lat="-27.2744384" lon="151.2900637">
  <ele>344.34</ele>
  <time>2026-09-01T19:56:29Z</time>
  <course>188.06</course>
  <speed>0.01</speed>
  <fix>3d</fix>
</trkpt>
<trkpt lat="-27.2744385" lon="151.2900637">
  <ele>344.22</ele>
  <time>2026-09-01T19:56:29Z</time>
  <course>10.73</course>
  <speed>0.0316227766016838</speed>
  <fix>3d</fix>
</trkpt>
<trkpt lat="-27.2744384" lon="151.2900637">
  <ele>344.24</ele>
  <time>2026-09-01T19:56:29Z</time>
  <course>187.44</course>
  <speed>0.01</speed>
  <fix>3d</fix>
</trkpt>
<trkpt lat="-27.2744385" lon="151.2900638">
  <ele>344.16</ele>
  <time>2026-09-01T19:56:29Z</time>
  <course>10.72</course>
  <speed>0.0316227766016838</speed>
  <fix>3d</fix>
</trkpt>
<trkpt lat="-27.2744384" lon="151.2900637">
  <ele>344.24</ele>
  <time>2026-09-01T19:56:29Z</time>
  <course>187.44</course>
  <speed>0.01</speed>
  <fix>3d</fix>
</trkpt>
<trkpt lat="-27.2744385" lon="151.2900638">
  <ele>344.11</ele>
  <time>2026-09-01T19:56:29Z</time>
  <course>10.71</course>
  <speed>0.0316227766016838</speed>
  <fix>3d</fix>
</trkpt>
<trkpt lat="-27.2744384" lon="151.2900637">
  <ele>344.14</ele>
  <time>2026-09-01T19:56:29Z</time>
  <course>187.0</course>
  <speed>0.01</speed>
  <fix>3d</fix>
</trkpt>
<trkpt lat="-27.2744386" lon="151.2900638">
  <ele>344.06</ele>
  <time>2026-09-01T19:56:29Z</time>
  <course>10.71</course>
  <speed>0.0316227766016838</speed>
  <fix>3d</fix>
</trkpt>
<trkpt lat="-27.2744384" lon="151.2900637">
  <ele>344.14</ele>
  <time>2026-09-01T19:56:29Z</time>
  <course>187.0</course>
  <speed>0.01</speed>
  <fix>3d</fix>
</trkpt>
<trkpt lat="-27.2744386" lon="151.2900638">
  <ele>344.01</ele>
  <time>2026-09-01T19:56:29Z</time>
  <course>10.7</course>
  <speed>0.022360679774997897</speed>
  <fix>3d</fix>
</trkpt>
<trkpt lat="-27.2744384" lon="151.2900637">
  <ele>344.03</ele>
  <time>2026-09-01T19:56:29Z</time>
  <course>185.97</course>
  <speed>0.01</speed>
  <fix>3d</fix>
</trkpt>
<trkpt lat="-27.2744386" lon="151.2900638">
  <ele>343.96</ele>
  <time>2026-09-01T19:56:29Z</time>
  <course>10.7</course>
  <speed>0.022360679774997897</speed>
  <fix>3d</fix>
</trkpt>
<trkpt lat="-27.2744385" lon="151.2900637">
  <ele>343.94</ele>
  <time>2026-09-01T19:56:29Z</time>
  <course>184.59</course>
  <speed>0.0</speed>
  <fix>3d</fix>
</trkpt>
<trkpt lat="-27.2744386" lon="151.2900638">
  <ele>343.91</ele>
  <time>2026-09-01T19:56:29Z</time>
  <course>10.69</course>
  <speed>0.022360679774997897</speed>
  <fix>3d</fix>
</trkpt>
<trkpt lat="-27.2744385" lon="151.2900637">
  <ele>343.94</ele>
  <time>2026-09-01T19:56:29Z</time>
  <course>184.59</course>
  <speed>0.0</speed>
  <fix>3d</fix>
</trkpt>
<trkpt lat="-27.2744386" lon="151.2900638">
  <ele>343.86</ele>
  <time>2026-09-01T19:56:29Z</time>
  <course>10.69</course>
  <speed>0.022360679774997897</speed>
  <fix>3d</fix>
</trkpt>
<trkpt lat="-27.2744385" lon="151.2900637">
  <ele>343.83</ele>
  <time>2026-09-01T19:56:29Z</time>
  <course>182.67</course>
  <speed>0.0</speed>
  <fix>3d</fix>
</trkpt>
<trkpt lat="-27.2744386" lon="151.2900638">
  <ele>343.81</ele>
  <time>2026-09-01T19:56:29Z</time>
  <course>10.69</course>
  <speed>0.022360679774997897</speed>
  <fix>3d</fix>
</trkpt>
<trkpt lat="-27.2744385" lon="151.2900637">
  <ele>343.83</ele>
  <time>2026-09-01T19:56:29Z</time>
  <course>182.67</course>
  <speed>0.0</speed>
  <fix>3d</fix>
</trkpt>
<trkpt lat="-27.2744386" lon="151.2900638">
  <ele>343.76</ele>
  <time>2026-09-01T19:56:29Z</time>
  <course>10.69</course>
  <speed>0.022360679774997897</speed>
  <fix>3d</fix>
</trkpt>
<trkpt lat="-27.2744385" lon="151.2900637">
  <ele>343.72</ele>
  <time>2026-09-01T19:56:29Z</time>
  <course>177.19</course>
  <speed>0.0</speed>
  <fix>3d</fix>
</trkpt>
<trkpt lat="-27.2744386" lon="151.2900638">
  <ele>343.71</ele>
  <time>2026-09-01T19:56:29Z</time>
  <course>10.68</course>
  <speed>0.022360679774997897</speed>
  <fix>3d</fix>
</trkpt>
<trkpt lat="-27.2744385" lon="151.2900637">
  <ele>343.72</ele>
  <time>2026-09-01T19:56:29Z</time>
  <course>177.19</course>
  <speed>0.0</speed>
  <fix>3d</fix>
</trkpt>
<trkpt lat="-27.2744386" lon="151.2900638">
  <ele>343.66</ele>
  <time>2026-09-01T19:56:29Z</time>
  <course>10.68</course>
  <speed>0.022360679774997897</speed>
  <fix>3d</fix>
</trkpt>
<trkpt lat="-27.2744385" lon="151.2900637">
  <ele>343.63</ele>
  <time>2026-09-01T19:56:29Z</time>
  <course>153.13</course>
  <speed>0.0</speed>
  <fix>3d</fix>
</trkpt>
<trkpt lat="-27.2744386" lon="151.2900638">
  <ele>343.62</ele>
  <time>2026-09-01T19:56:29Z</time>
  <course>10.69</course>
  <speed>0.022360679774997897</speed>
  <fix>3d</fix>
</trkpt>
<trkpt lat="-27.2744385" lon="151.2900637">
  <ele>343.63</ele>
  <time>2026-09-01T19:56:29Z</time>
  <course>153.13</course>
  <speed>0.0</speed>
  <fix>3d</fix>
</trkpt>
<trkpt lat="-27.2744386" lon="151.2900638">
  <ele>343.57</ele>
  <time>2026-09-01T19:56:29Z</time>
  <course>10.69</course>
  <speed>0.022360679774997897</speed>
  <fix>3d</fix>
</trkpt>
<trkpt lat="-27.2744385" lon="151.2900637">
  <ele>343.53</ele>
  <time>2026-09-01T19:56:29Z</time>
  <course>349.67</course>
  <speed>0.0</speed>
  <fix>3d</fix>
</trkpt>
<trkpt lat="-27.2744386" lon="151.2900638">
  <ele>343.52</ele>
  <time>2026-09-01T19:56:29Z</time>
  <course>10.7</course>
  <speed>0.01414213562373095</speed>
  <fix>3d</fix>
</trkpt>
<trkpt lat="-27.2744385" lon="151.2900637">
  <ele>343.53</ele>
  <time>2026-09-01T19:56:29Z</time>
  <course>349.67</course>
  <speed>0.0</speed>
  <fix>3d</fix>
</trkpt>
<trkpt lat="-27.2744386" lon="151.2900638">
  <ele>343.47</ele>
  <time>2026-09-01T19:56:30Z</time>
  <course>10.69</course>
  <speed>0.01414213562373095</speed>
  <fix>3d</fix>
</trkpt>
<trkpt lat="-27.2744385" lon="151.2900637">
  <ele>343.43</ele>
  <time>2026-09-01T19:56:30Z</time>
  <course>333.34</course>
  <speed>0.0</speed>
  <fix>3d</fix>
</trkpt>
<trkpt lat="-27.2744386" lon="151.2900638">
  <ele>343.42</ele>
  <time>2026-09-01T19:56:30Z</time>
  <course>10.68</course>
  <speed>0.01414213562373095</speed>
  <fix>3d</fix>
</trkpt>
<trkpt lat="-27.2744385" lon="151.2900637">
  <ele>343.43</ele>
  <time>2026-09-01T19:56:30Z</time>
  <course>333.34</course>
  <speed>0.0</speed>
  <fix>3d</fix>
</trkpt>
<trkpt lat="-27.2744386" lon="151.2900638">
  <ele>343.37</ele>
  <time>2026-09-01T19:56:30Z</time>
  <course>10.68</course>
  <speed>0.01414213562373095</speed>
  <fix>3d</fix>
</trkpt>
<trkpt lat="-27.2744385" lon="151.2900637">
  <ele>343.43</ele>
  <time>2026-09-01T19:56:30Z</time>
  <course>333.34</course>
  <speed>0.0</speed>
  <fix>3d</fix>
</trkpt>
<trkpt lat="-27.2744386" lon="151.2900638">
  <ele>343.32</ele>
  <time>2026-09-01T19:56:30Z</time>
  <course>10.67</course>
  <speed>0.01414213562373095</speed>
  <fix>3d</fix>
</trkpt>
<trkpt lat="-27.2744385" lon="151.2900637">
  <ele>343.33</ele>
  <time>2026-09-01T19:56:30Z</time>
  <course>326.71</course>
  <speed>0.0</speed>
  <fix>3d</fix>
</trkpt>
<trkpt lat="-27.2744386" lon="151.2900638">
  <ele>343.28</ele>
  <time>2026-09-01T19:56:30Z</time>
  <course>10.68</course>
  <speed>0.01414213562373095</speed>
  <fix>3d</fix>
</trkpt>
<trkpt lat="-27.2744385" lon="151.2900637">
  <ele>343.33</ele>
  <time>2026-09-01T19:56:30Z</time>
  <course>326.71</course>
  <speed>0.0</speed>
  <fix>3d</fix>
</trkpt>
<trkpt lat="-27.2744386" lon="151.2900638">
  <ele>343.23</ele>
  <time>2026-09-01T19:56:30Z</time>
  <course>10.68</course>
  <speed>0.01414213562373095</speed>
  <fix>3d</fix>
</trkpt>
<trkpt lat="-27.2744385" lon="151.2900637">
  <ele>343.22</ele>
  <time>2026-09-01T19:56:30Z</time>
  <course>324.24</course>
  <speed>0.0</speed>
  <fix>3d</fix>
</trkpt>
<trkpt lat="-27.2744386" lon="151.2900638">
  <ele>343.18</ele>
  <time>2026-09-01T19:56:30Z</time>
  <course>10.68</course>
  <speed>0.01414213562373095</speed>
  <fix>3d</fix>
</trkpt>
<trkpt lat="-27.2744385" lon="151.2900637">
  <ele>343.22</ele>
  <time>2026-09-01T19:56:30Z</time>
  <course>324.24</course>
  <speed>0.0</speed>
  <fix>3d</fix>
</trkpt>
<trkpt lat="-27.2744386" lon="151.2900638">
  <ele>343.17</ele>
  <time>2026-09-01T19:56:30Z</time>
  <course>10.68</course>
  <speed>0.022360679774997897</speed>
  <fix>3d</fix>
</trkpt>
<trkpt lat="-27.2744385" lon="151.2900637">
  <ele>343.13</ele>
  <time>2026-09-01T19:56:30Z</time>
  <course>324.0</course>
  <speed>0.0</speed>
  <fix>3d</fix>
</trkpt>
<trkpt lat="-27.2744386" lon="151.2900638">
  <ele>343.18</ele>
  <time>2026-09-01T19:56:30Z</time>
  <course>10.68</course>
  <speed>0.022360679774997897</speed>
  <fix>3d</fix>
</trkpt>
<trkpt lat="-27.2744385" lon="151.2900637">
  <ele>343.13</ele>
  <time>2026-09-01T19:56:30Z</time>
  <course>324.0</course>
  <speed>0.0</speed>
  <fix>3d</fix>
</trkpt>
<trkpt lat="-27.2744386" lon="151.2900638">
  <ele>343.2</ele>
  <time>2026-09-01T19:56:30Z</time>
  <course>10.68</course>
  <speed>0.022360679774997897</speed>
  <fix>3d</fix>
</trkpt>
<trkpt lat="-27.2744385" lon="151.2900637">
  <ele>343.08</ele>
  <time>2026-09-01T19:56:30Z</time>
  <course>324.43</course>
  <speed>0.0</speed>
  <fix>3d</fix>
</trkpt>
<trkpt lat="-27.2744386" lon="151.2900638">
  <ele>343.2</ele>
  <time>2026-09-01T19:56:30Z</time>
  <course>10.68</course>
  <speed>0.022360679774997897</speed>
  <fix>3d</fix>
</trkpt>
<trkpt lat="-27.2744385" lon="151.2900637">
  <ele>343.09</ele>
  <time>2026-09-01T19:56:30Z</time>
  <course>144.42</course>
  <speed>0.0</speed>
  <fix>3d</fix>
</trkpt>
<trkpt lat="-27.2744386" lon="151.2900638">
  <ele>343.2</ele>
  <time>2026-09-01T19:56:30Z</time>
  <course>10.67</course>
  <speed>0.022360679774997897</speed>
  <fix>3d</fix>
</trkpt>
<trkpt lat="-27.2744385" lon="151.2900637">
  <ele>343.09</ele>
  <time>2026-09-01T19:56:30Z</time>
  <course>144.42</course>
  <speed>0.0</speed>
  <fix>3d</fix>
</trkpt>
<trkpt lat="-27.2744386" lon="151.2900638">
  <ele>343.2</ele>
  <time>2026-09-01T19:56:30Z</time>
  <course>10.67</course>
  <speed>0.022360679774997897</speed>
  <fix>3d</fix>
</trkpt>
<trkpt lat="-27.2744385" lon="151.2900637">
  <ele>343.1</ele>
  <time>2026-09-01T19:56:30Z</time>
  <course>144.45</course>
  <speed>0.0</speed>
  <fix>3d</fix>
</trkpt>
<trkpt lat="-27.2744386" lon="151.2900638">
  <ele>343.2</ele>
  <time>2026-09-01T19:56:30Z</time>
  <course>10.67</course>
  <speed>0.022360679774997897</speed>
  <fix>3d</fix>
</trkpt>
<trkpt lat="-27.2744385" lon="151.2900637">
  <ele>343.1</ele>
  <time>2026-09-01T19:56:30Z</time>
  <course>144.45</course>
  <speed>0.0</speed>
  <fix>3d</fix>
</trkpt>
<trkpt lat="-27.2744386" lon="151.2900638">
  <ele>343.2</ele>
  <time>2026-09-01T19:56:30Z</time>
  <course>10.67</course>
  <speed>0.022360679774997897</speed>
  <fix>3d</fix>
</trkpt>
<trkpt lat="-27.2744385" lon="151.2900637">
  <ele>343.09</ele>
  <time>2026-09-01T19:56:30Z</time>
  <course>324.43</course>
  <speed>0.0</speed>
  <fix>3d</fix>
</trkpt>
<trkpt lat="-27.2744386" lon="151.2900638">
  <ele>343.2</ele>
  <time>2026-09-01T19:56:30Z</time>
  <course>10.67</course>
  <speed>0.022360679774997897</speed>
  <fix>3d</fix>
</trkpt>
<trkpt lat="-27.2744385" lon="151.2900637">
  <ele>343.09</ele>
  <time>2026-09-01T19:56:30Z</time>
  <course>324.43</course>
  <speed>0.0</speed>
  <fix>3d</fix>
</trkpt>
<trkpt lat="-27.2744386" lon="151.2900638">
  <ele>343.2</ele>
  <time>2026-09-01T19:56:30Z</time>
  <course>10.67</course>
  <speed>0.022360679774997897</speed>
  <fix>3d</fix>
</trkpt>
<trkpt lat="-27.2744385" lon="151.2900637">
  <ele>343.09</ele>
  <time>2026-09-01T19:56:30Z</time>
  <course>144.26</course>
  <speed>0.0</speed>
  <fix>3d</fix>
</trkpt>
<trkpt lat="-27.2744386" lon="151.2900638">
  <ele>343.2</ele>
  <time>2026-09-01T19:56:30Z</time>
  <course>10.67</course>
  <speed>0.022360679774997897</speed>
  <fix>3d</fix>
</trkpt>
<trkpt lat="-27.2744385" lon="151.2900637">
  <ele>343.09</ele>
  <time>2026-09-01T19:56:30Z</time>
  <course>144.26</course>
  <speed>0.0</speed>
  <fix>3d</fix>
</trkpt>
<trkpt lat="-27.2744386" lon="151.2900638">
  <ele>343.2</ele>
  <time>2026-09-01T19:56:30Z</time>
  <course>10.67</course>
  <speed>0.022360679774997897</speed>
  <fix>3d</fix>
</trkpt>
<trkpt lat="-27.2744385" lon="151.2900637">
  <ele>343.09</ele>
  <time>2026-09-01T19:56:30Z</time>
  <course>144.3</course>
  <speed>0.0</speed>
  <fix>3d</fix>
</trkpt>
<trkpt lat="-27.2744386" lon="151.2900638">
  <ele>343.2</ele>
  <time>2026-09-01T19:56:30Z</time>
  <course>10.67</course>
  <speed>0.022360679774997897</speed>
  <fix>3d</fix>
</trkpt>
<trkpt lat="-27.2744385" lon="151.2900637">
  <ele>343.09</ele>
  <time>2026-09-01T19:56:30Z</time>
  <course>144.3</course>
  <speed>0.0</speed>
  <fix>3d</fix>
</trkpt>
<trkpt lat="-27.2744386" lon="151.2900638">
  <ele>343.2</ele>
  <time>2026-09-01T19:56:30Z</time>
  <course>10.67</course>
  <speed>0.022360679774997897</speed>
  <fix>3d</fix>
</trkpt>
<trkpt lat="-27.2744385" lon="151.2900637">
  <ele>343.09</ele>
  <time>2026-09-01T19:56:30Z</time>
  <course>324.64</course>
  <speed>0.0</speed>
  <fix>3d</fix>
</trkpt>
<trkpt lat="-27.2744386" lon="151.2900638">
  <ele>343.2</ele>
  <time>2026-09-01T19:56:30Z</time>
  <course>10.67</course>
  <speed>0.022360679774997897</speed>
  <fix>3d</fix>
</trkpt>
<trkpt lat="-27.2744385" lon="151.2900637">
  <ele>343.09</ele>
  <time>2026-09-01T19:56:30Z</time>
  <course>324.64</course>
  <speed>0.0</speed>
  <fix>3d</fix>
</trkpt>
<trkpt lat="-27.2744386" lon="151.2900638">
  <ele>343.2</ele>
  <time>2026-09-01T19:56:30Z</time>
  <course>10.67</course>
  <speed>0.022360679774997897</speed>
  <fix>3d</fix>
</trkpt>
<trkpt lat="-27.2744385" lon="151.2900637">
  <ele>343.09</ele>
  <time>2026-09-01T19:56:30Z</time>
  <course>324.35</course>
  <speed>0.0</speed>
  <fix>3d</fix>
</trkpt>
<trkpt lat="-27.2744386" lon="151.2900638">
  <ele>343.2</ele>
  <time>2026-09-01T19:56:30Z</time>
  <course>10.67</course>
  <speed>0.022360679774997897</speed>
  <fix>3d</fix>
</trkpt>
<trkpt lat="-27.2744385" lon="151.2900637">
  <ele>343.09</ele>
  <time>2026-09-01T19:56:30Z</time>
  <course>324.35</course>
  <speed>0.0</speed>
  <fix>3d</fix>
</trkpt>
<trkpt lat="-27.2744387" lon="151.2900638">
  <ele>343.2</ele>
  <time>2026-09-01T19:56:30Z</time>
  <course>10.67</course>
  <speed>0.022360679774997897</speed>
  <fix>3d</fix>
</trkpt>
<trkpt lat="-27.2744385" lon="151.2900637">
  <ele>343.09</ele>
  <time>2026-09-01T19:56:30Z</time>
  <course>144.14</course>
  <speed>0.0</speed>
  <fix>3d</fix>
</trkpt>
<trkpt lat="-27.2744386" lon="151.2900638">
  <ele>343.2</ele>
  <time>2026-09-01T19:56:30Z</time>
  <course>10.67</course>
  <speed>0.022360679774997897</speed>
  <fix>3d</fix>
</trkpt>
<trkpt lat="-27.2744385" lon="151.2900637">
  <ele>343.09</ele>
  <time>2026-09-01T19:56:30Z</time>
  <course>144.14</course>
  <speed>0.0</speed>
  <fix>3d</fix>
</trkpt>
<trkpt lat="-27.2744387" lon="151.2900638">
  <ele>343.2</ele>
  <time>2026-09-01T19:56:30Z</time>
  <course>10.66</course>
  <speed>0.022360679774997897</speed>
  <fix>3d</fix>
</trkpt>
<trkpt lat="-27.2744385" lon="151.2900637">
  <ele>343.09</ele>
  <time>2026-09-01T19:56:30Z</time>
  <course>142.17</course>
  <speed>0.0</speed>
  <fix>3d</fix>
</trkpt>
<trkpt lat="-27.2744387" lon="151.2900638">
  <ele>343.2</ele>
  <time>2026-09-01T19:56:30Z</time>
  <course>10.66</course>
  <speed>0.022360679774997897</speed>
  <fix>3d</fix>
</trkpt>
<trkpt lat="-27.2744385" lon="151.2900637">
  <ele>343.09</ele>
  <time>2026-09-01T19:56:30Z</time>
  <course>142.17</course>
  <speed>0.0</speed>
  <fix>3d</fix>
</trkpt>
<trkpt lat="-27.2744387" lon="151.2900638">
  <ele>343.2</ele>
  <time>2026-09-01T19:56:30Z</time>
  <course>10.66</course>
  <speed>0.022360679774997897</speed>
  <fix>3d</fix>
</trkpt>
<trkpt lat="-27.2744385" lon="151.2900637">
  <ele>343.09</ele>
  <time>2026-09-01T19:56:30Z</time>
  <course>330.81</course>
  <speed>0.0</speed>
  <fix>3d</fix>
</trkpt>
<trkpt lat="-27.2744387" lon="151.2900638">
  <ele>343.2</ele>
  <time>2026-09-01T19:56:30Z</time>
  <course>10.66</course>
  <speed>0.022360679774997897</speed>
  <fix>3d</fix>
</trkpt>
<trkpt lat="-27.2744385" lon="151.2900637">
  <ele>343.09</ele>
  <time>2026-09-01T19:56:30Z</time>
  <course>330.81</course>
  <speed>0.0</speed>
  <fix>3d</fix>
</trkpt>
<trkpt lat="-27.2744387" lon="151.2900638">
  <ele>343.2</ele>
  <time>2026-09-01T19:56:30Z</time>
  <course>10.66</course>
  <speed>0.022360679774997897</speed>
  <fix>3d</fix>
</trkpt>
<trkpt lat="-27.2744385" lon="151.2900637">
  <ele>343.09</ele>
  <time>2026-09-01T19:56:30Z</time>
  <course>142.52</course>
  <speed>0.0</speed>
  <fix>3d</fix>
</trkpt>
<trkpt lat="-27.2744387" lon="151.2900638">
  <ele>343.21</ele>
  <time>2026-09-01T19:56:30Z</time>
  <course>10.66</course>
  <speed>0.022360679774997897</speed>
  <fix>3d</fix>
</trkpt>
<trkpt lat="-27.2744385" lon="151.2900637">
  <ele>343.09</ele>
  <time>2026-09-01T19:56:30Z</time>
  <course>142.52</course>
  <speed>0.0</speed>
  <fix>3d</fix>
</trkpt>
<trkpt lat="-27.2744387" lon="151.2900638">
  <ele>343.21</ele>
  <time>2026-09-01T19:56:30Z</time>
  <course>10.66</course>
  <speed>0.022360679774997897</speed>
  <fix>3d</fix>
</trkpt>
<trkpt lat="-27.2744385" lon="151.2900637">
  <ele>343.09</ele>
  <time>2026-09-01T19:56:30Z</time>
  <course>145.59</course>
  <speed>0.0</speed>
  <fix>3d</fix>
</trkpt>
<trkpt lat="-27.2744387" lon="151.2900638">
  <ele>343.21</ele>
  <time>2026-09-01T19:56:30Z</time>
  <course>10.66</course>
  <speed>0.022360679774997897</speed>
  <fix>3d</fix>
</trkpt>
<trkpt lat="-27.2744385" lon="151.2900637">
  <ele>343.09</ele>
  <time>2026-09-01T19:56:30Z</time>
  <course>145.59</course>
  <speed>0.0</speed>
  <fix>3d</fix>
</trkpt>
<trkpt lat="-27.2744387" lon="151.2900638">
  <ele>343.21</ele>
  <time>2026-09-01T19:56:30Z</time>
  <course>10.66</course>
  <speed>0.022360679774997897</speed>
  <fix>3d</fix>
</trkpt>
<trkpt lat="-27.2744385" lon="151.2900637">
  <ele>343.09</ele>
  <time>2026-09-01T19:56:30Z</time>
  <course>147.11</course>
  <speed>0.0</speed>
  <fix>3d</fix>
</trkpt>
<trkpt lat="-27.2744387" lon="151.2900638">
  <ele>343.21</ele>
  <time>2026-09-01T19:56:30Z</time>
  <course>10.66</course>
  <speed>0.022360679774997897</speed>
  <fix>3d</fix>
</trkpt>
<trkpt lat="-27.2744385" lon="151.2900637">
  <ele>343.09</ele>
  <time>2026-09-01T19:56:30Z</time>
  <course>147.11</course>
  <speed>0.0</speed>
  <fix>3d</fix>
</trkpt>
<trkpt lat="-27.2744387" lon="151.2900638">
  <ele>343.21</ele>
  <time>2026-09-01T19:56:30Z</time>
  <course>10.66</course>
  <speed>0.022360679774997897</speed>
  <fix>3d</fix>
</trkpt>
<trkpt lat="-27.2744385" lon="151.2900637">
  <ele>343.09</ele>
  <time>2026-09-01T19:56:30Z</time>
  <course>151.61</course>
  <speed>0.0</speed>
  <fix>3d</fix>
</trkpt>
<trkpt lat="-27.2744387" lon="151.2900638">
  <ele>343.21</ele>
  <time>2026-09-01T19:56:30Z</time>
  <course>10.66</course>
  <speed>0.022360679774997897</speed>
  <fix>3d</fix>
</trkpt>
<trkpt lat="-27.2744385" lon="151.2900637">
  <ele>343.09</ele>
  <time>2026-09-01T19:56:30Z</time>
  <course>151.61</course>
  <speed>0.0</speed>
  <fix>3d</fix>
</trkpt>
<trkpt lat="-27.2744387" lon="151.2900638">
  <ele>343.21</ele>
  <time>2026-09-01T19:56:30Z</time>
  <course>10.66</course>
  <speed>0.022360679774997897</speed>
  <fix>3d</fix>
</trkpt>
<trkpt lat="-27.2744385" lon="151.2900637">
  <ele>343.09</ele>
  <time>2026-09-01T19:56:30Z</time>
  <course>151.28</course>
  <speed>0.0</speed>
  <fix>3d</fix>
</trkpt>
<trkpt lat="-27.2744387" lon="151.2900638">
  <ele>343.21</ele>
  <time>2026-09-01T19:56:30Z</time>
  <course>10.66</course>
  <speed>0.022360679774997897</speed>
  <fix>3d</fix>
</trkpt>
<trkpt lat="-27.2744385" lon="151.2900637">
  <ele>343.09</ele>
  <time>2026-09-01T19:56:30Z</time>
  <course>151.28</course>
  <speed>0.0</speed>
  <fix>3d</fix>
</trkpt>
<trkpt lat="-27.2744387" lon="151.2900638">
  <ele>343.21</ele>
  <time>2026-09-01T19:56:30Z</time>
  <course>10.66</course>
  <speed>0.022360679774997897</speed>
  <fix>3d</fix>
</trkpt>
<trkpt lat="-27.2744385" lon="151.2900637">
  <ele>343.09</ele>
  <time>2026-09-01T19:56:30Z</time>
  <course>148.17</course>
  <speed>0.0</speed>
  <fix>3d</fix>
</trkpt>
<trkpt lat="-27.2744387" lon="151.2900638">
  <ele>343.21</ele>
  <time>2026-09-01T19:56:30Z</time>
  <course>10.66</course>
  <speed>0.022360679774997897</speed>
  <fix>3d</fix>
</trkpt>
<trkpt lat="-27.2744385" lon="151.2900637">
  <ele>343.09</ele>
  <time>2026-09-01T19:56:30Z</time>
  <course>148.17</course>
  <speed>0.0</speed>
  <fix>3d</fix>
</trkpt>
<trkpt lat="-27.2744387" lon="151.2900638">
  <ele>343.21</ele>
  <time>2026-09-01T19:56:30Z</time>
  <course>10.66</course>
  <speed>0.022360679774997897</speed>
  <fix>3d</fix>
</trkpt>
<trkpt lat="-27.2744385" lon="151.2900637">
  <ele>343.09</ele>
  <time>2026-09-01T19:56:30Z</time>
  <course>148.39</course>
  <speed>0.0</speed>
  <fix>3d</fix>
</trkpt>
<trkpt lat="-27.2744387" lon="151.2900638">
  <ele>343.21</ele>
  <time>2026-09-01T19:56:30Z</time>
  <course>10.66</course>
  <speed>0.022360679774997897</speed>
  <fix>3d</fix>
</trkpt>
<trkpt lat="-27.2744385" lon="151.2900637">
  <ele>343.09</ele>
  <time>2026-09-01T19:56:30Z</time>
  <course>148.39</course>
  <speed>0.0</speed>
  <fix>3d</fix>
</trkpt>
<trkpt lat="-27.2744387" lon="151.2900638">
  <ele>343.21</ele>
  <time>2026-09-01T19:56:30Z</time>
  <course>10.65</course>
  <speed>0.022360679774997897</speed>
  <fix>3d</fix>
</trkpt>
<trkpt lat="-27.2744385" lon="151.2900637">
  <ele>343.09</ele>
  <time>2026-09-01T19:56:30Z</time>
  <course>149.02</course>
  <speed>0.0</speed>
  <fix>3d</fix>
</trkpt>
<trkpt lat="-27.2744387" lon="151.2900638">
  <ele>343.21</ele>
  <time>2026-09-01T19:56:30Z</time>
  <course>10.65</course>
  <speed>0.022360679774997897</speed>
  <fix>3d</fix>
</trkpt>
<trkpt lat="-27.2744385" lon="151.2900637">
  <ele>343.09</ele>
  <time>2026-09-01T19:56:30Z</time>
  <course>149.02</course>
  <speed>0.0</speed>
  <fix>3d</fix>
</trkpt>
<trkpt lat="-27.2744387" lon="151.2900638">
  <ele>343.21</ele>
  <time>2026-09-01T19:56:30Z</time>
  <course>10.65</course>
  <speed>0.022360679774997897</speed>
  <fix>3d</fix>
</trkpt>
<trkpt lat="-27.2744385" lon="151.2900637">
  <ele>343.09</ele>
  <time>2026-09-01T19:56:30Z</time>
  <course>144.84</course>
  <speed>0.0</speed>
  <fix>3d</fix>
</trkpt>
<trkpt lat="-27.2744387" lon="151.2900638">
  <ele>343.21</ele>
  <time>2026-09-01T19:56:30Z</time>
  <course>10.65</course>
  <speed>0.022360679774997897</speed>
  <fix>3d</fix>
</trkpt>
<trkpt lat="-27.2744385" lon="151.2900637">
  <ele>343.09</ele>
  <time>2026-09-01T19:56:30Z</time>
  <course>144.84</course>
  <speed>0.0</speed>
  <fix>3d</fix>
</trkpt>
<trkpt lat="-27.2744387" lon="151.2900638">
  <ele>343.21</ele>
  <time>2026-09-01T19:56:30Z</time>
  <course>10.65</course>
  <speed>0.022360679774997897</speed>
  <fix>3d</fix>
</trkpt>
<trkpt lat="-27.2744385" lon="151.2900637">
  <ele>343.09</ele>
  <time>2026-09-01T19:56:30Z</time>
  <course>151.97</course>
  <speed>0.0</speed>
  <fix>3d</fix>
</trkpt>
<trkpt lat="-27.2744387" lon="151.2900638">
  <ele>343.21</ele>
  <time>2026-09-01T19:56:30Z</time>
  <course>10.65</course>
  <speed>0.022360679774997897</speed>
  <fix>3d</fix>
</trkpt>
<trkpt lat="-27.2744385" lon="151.2900637">
  <ele>343.09</ele>
  <time>2026-09-01T19:56:30Z</time>
  <course>151.97</course>
  <speed>0.0</speed>
  <fix>3d</fix>
</trkpt>
<trkpt lat="-27.2744387" lon="151.2900638">
  <ele>343.21</ele>
  <time>2026-09-01T19:56:30Z</time>
  <course>10.65</course>
  <speed>0.022360679774997897</speed>
  <fix>3d</fix>
</trkpt>
<trkpt lat="-27.2744385" lon="151.2900637">
  <ele>343.09</ele>
  <time>2026-09-01T19:56:30Z</time>
  <course>161.98</course>
  <speed>0.0</speed>
  <fix>3d</fix>
</trkpt>
<trkpt lat="-27.2744387" lon="151.2900638">
  <ele>343.21</ele>
  <time>2026-09-01T19:56:30Z</time>
  <course>10.65</course>
  <speed>0.022360679774997897</speed>
  <fix>3d</fix>
</trkpt>
<trkpt lat="-27.2744385" lon="151.2900637">
  <ele>343.09</ele>
  <time>2026-09-01T19:56:30Z</time>
  <course>161.98</course>
  <speed>0.0</speed>
  <fix>3d</fix>
</trkpt>
<trkpt lat="-27.2744387" lon="151.2900638">
  <ele>343.21</ele>
  <time>2026-09-01T19:56:30Z</time>
  <course>10.65</course>
  <speed>0.022360679774997897</speed>
  <fix>3d</fix>
</trkpt>
<trkpt lat="-27.2744385" lon="151.2900637">
  <ele>343.09</ele>
  <time>2026-09-01T19:56:30Z</time>
  <course>161.19</course>
  <speed>0.0</speed>
  <fix>3d</fix>
</trkpt>
<trkpt lat="-27.2744387" lon="151.2900638">
  <ele>343.21</ele>
  <time>2026-09-01T19:56:30Z</time>
  <course>10.65</course>
  <speed>0.022360679774997897</speed>
  <fix>3d</fix>
</trkpt>
<trkpt lat="-27.2744385" lon="151.2900637">
  <ele>343.09</ele>
  <time>2026-09-01T19:56:30Z</time>
  <course>161.19</course>
  <speed>0.0</speed>
  <fix>3d</fix>
</trkpt>
<trkpt lat="-27.2744387" lon="151.2900638">
  <ele>343.21</ele>
  <time>2026-09-01T19:56:30Z</time>
  <course>10.65</course>
  <speed>0.022360679774997897</speed>
  <fix>3d</fix>
</trkpt>
<trkpt lat="-27.2744385" lon="151.2900637">
  <ele>343.09</ele>
  <time>2026-09-01T19:56:30Z</time>
  <course>157.02</course>
  <speed>0.0</speed>
  <fix>3d</fix>
</trkpt>
<trkpt lat="-27.2744387" lon="151.2900638">
  <ele>343.21</ele>
  <time>2026-09-01T19:56:30Z</time>
  <course>10.65</course>
  <speed>0.022360679774997897</speed>
  <fix>3d</fix>
</trkpt>
<trkpt lat="-27.2744385" lon="151.2900637">
  <ele>343.09</ele>
  <time>2026-09-01T19:56:30Z</time>
  <course>157.02</course>
  <speed>0.0</speed>
  <fix>3d</fix>
</trkpt>
<trkpt lat="-27.2744387" lon="151.2900638">
  <ele>343.21</ele>
  <time>2026-09-01T19:56:30Z</time>
  <course>10.65</course>
  <speed>0.022360679774997897</speed>
  <fix>3d</fix>
</trkpt>
<trkpt lat="-27.2744385" lon="151.2900637">
  <ele>343.09</ele>
  <time>2026-09-01T19:56:30Z</time>
  <course>154.28</course>
  <speed>0.0</speed>
  <fix>3d</fix>
</trkpt>
<trkpt lat="-27.2744387" lon="151.2900638">
  <ele>343.21</ele>
  <time>2026-09-01T19:56:30Z</time>
  <course>10.65</course>
  <speed>0.022360679774997897</speed>
  <fix>3d</fix>
</trkpt>
<trkpt lat="-27.2744385" lon="151.2900637">
  <ele>343.09</ele>
  <time>2026-09-01T19:56:30Z</time>
  <course>154.28</course>
  <speed>0.0</speed>
  <fix>3d</fix>
</trkpt>
<trkpt lat="-27.2744387" lon="151.2900638">
  <ele>343.21</ele>
  <time>2026-09-01T19:56:30Z</time>
  <course>10.65</course>
  <speed>0.022360679774997897</speed>
  <fix>3d</fix>
</trkpt>
<trkpt lat="-27.2744385" lon="151.2900637">
  <ele>343.09</ele>
  <time>2026-09-01T19:56:30Z</time>
  <course>153.96</course>
  <speed>0.0</speed>
  <fix>3d</fix>
</trkpt>
<trkpt lat="-27.2744387" lon="151.2900638">
  <ele>343.21</ele>
  <time>2026-09-01T19:56:30Z</time>
  <course>10.65</course>
  <speed>0.022360679774997897</speed>
  <fix>3d</fix>
</trkpt>
<trkpt lat="-27.2744385" lon="151.2900637">
  <ele>343.09</ele>
  <time>2026-09-01T19:56:30Z</time>
  <course>153.96</course>
  <speed>0.0</speed>
  <fix>3d</fix>
</trkpt>
<trkpt lat="-27.2744387" lon="151.2900638">
  <ele>343.21</ele>
  <time>2026-09-01T19:56:30Z</time>
  <course>10.65</course>
  <speed>0.022360679774997897</speed>
  <fix>3d</fix>
</trkpt>
<trkpt lat="-27.2744385" lon="151.2900637">
  <ele>343.09</ele>
  <time>2026-09-01T19:56:30Z</time>
  <course>153.39</course>
  <speed>0.0</speed>
  <fix>3d</fix>
</trkpt>
<trkpt lat="-27.2744387" lon="151.2900638">
  <ele>343.21</ele>
  <time>2026-09-01T19:56:30Z</time>
  <course>10.65</course>
  <speed>0.022360679774997897</speed>
  <fix>3d</fix>
</trkpt>
<trkpt lat="-27.2744385" lon="151.2900637">
  <ele>343.09</ele>
  <time>2026-09-01T19:56:30Z</time>
  <course>153.39</course>
  <speed>0.0</speed>
  <fix>3d</fix>
</trkpt>
<trkpt lat="-27.2744387" lon="151.2900638">
  <ele>343.21</ele>
  <time>2026-09-01T19:56:30Z</time>
  <course>10.65</course>
  <speed>0.022360679774997897</speed>
  <fix>3d</fix>
</trkpt>
<trkpt lat="-27.2744385" lon="151.2900637">
  <ele>343.09</ele>
  <time>2026-09-01T19:56:30Z</time>
  <course>149.18</course>
  <speed>0.0</speed>
  <fix>3d</fix>
</trkpt>
<trkpt lat="-27.2744387" lon="151.2900638">
  <ele>343.21</ele>
  <time>2026-09-01T19:56:30Z</time>
  <course>10.65</course>
  <speed>0.022360679774997897</speed>
  <fix>3d</fix>
</trkpt>
<trkpt lat="-27.2744385" lon="151.2900637">
  <ele>343.09</ele>
  <time>2026-09-01T19:56:30Z</time>
  <course>149.18</course>
  <speed>0.0</speed>
  <fix>3d</fix>
</trkpt>
<trkpt lat="-27.2744387" lon="151.2900638">
  <ele>343.21</ele>
  <time>2026-09-01T19:56:30Z</time>
  <course>10.65</course>
  <speed>0.022360679774997897</speed>
  <fix>3d</fix>
</trkpt>
<trkpt lat="-27.2744385" lon="151.2900637">
  <ele>343.09</ele>
  <time>2026-09-01T19:56:30Z</time>
  <course>145.2</course>
  <speed>0.0</speed>
  <fix>3d</fix>
</trkpt>
<trkpt lat="-27.2744387" lon="151.2900638">
  <ele>343.21</ele>
  <time>2026-09-01T19:56:30Z</time>
  <course>10.65</course>
  <speed>0.022360679774997897</speed>
  <fix>3d</fix>
</trkpt>
<trkpt lat="-27.2744385" lon="151.2900637">
  <ele>343.09</ele>
  <time>2026-09-01T19:56:30Z</time>
  <course>145.2</course>
  <speed>0.0</speed>
  <fix>3d</fix>
</trkpt>
<trkpt lat="-27.2744387" lon="151.2900638">
  <ele>343.21</ele>
  <time>2026-09-01T19:56:30Z</time>
  <course>10.65</course>
  <speed>0.022360679774997897</speed>
  <fix>3d</fix>
</trkpt>
<trkpt lat="-27.2744385" lon="151.2900637">
  <ele>343.09</ele>
  <time>2026-09-01T19:56:30Z</time>
  <course>144.37</course>
  <speed>0.0</speed>
  <fix>3d</fix>
</trkpt>
<trkpt lat="-27.2744387" lon="151.2900638">
  <ele>343.2</ele>
  <time>2026-09-01T19:56:30Z</time>
  <course>10.65</course>
  <speed>0.022360679774997897</speed>
  <fix>3d</fix>
</trkpt>
<trkpt lat="-27.2744385" lon="151.2900637">
  <ele>343.09</ele>
  <time>2026-09-01T19:56:30Z</time>
  <course>144.37</course>
  <speed>0.0</speed>
  <fix>3d</fix>
</trkpt>
<trkpt lat="-27.2744387" lon="151.2900638">
  <ele>343.2</ele>
  <time>2026-09-01T19:56:30Z</time>
  <course>10.66</course>
  <speed>0.022360679774997897</speed>
  <fix>3d</fix>
</trkpt>
<trkpt lat="-27.2744385" lon="151.2900637">
  <ele>343.09</ele>
  <time>2026-09-01T19:56:30Z</time>
  <course>317.49</course>
  <speed>0.0</speed>
  <fix>3d</fix>
</trkpt>
<trkpt lat="-27.2744387" lon="151.2900638">
  <ele>343.2</ele>
  <time>2026-09-01T19:56:30Z</time>
  <course>10.7</course>
  <speed>0.022360679774997897</speed>
  <fix>3d</fix>
</trkpt>
<trkpt lat="-27.2744385" lon="151.2900637">
  <ele>343.09</ele>
  <time>2026-09-01T19:56:30Z</time>
  <course>317.49</course>
  <speed>0.0</speed>
  <fix>3d</fix>
</trkpt>
<trkpt lat="-27.2744387" lon="151.2900638">
  <ele>343.2</ele>
  <time>2026-09-01T19:56:30Z</time>
  <course>10.73</course>
  <speed>0.022360679774997897</speed>
  <fix>3d</fix>
</trkpt>
<trkpt lat="-27.2744385" lon="151.2900637">
  <ele>343.09</ele>
  <time>2026-09-01T19:56:30Z</time>
  <course>317.73</course>
  <speed>0.0</speed>
  <fix>3d</fix>
</trkpt>
<trkpt lat="-27.2744387" lon="151.2900638">
  <ele>343.2</ele>
  <time>2026-09-01T19:56:30Z</time>
  <course>10.77</course>
  <speed>0.022360679774997897</speed>
  <fix>3d</fix>
</trkpt>
<trkpt lat="-27.2744385" lon="151.2900637">
  <ele>343.09</ele>
  <time>2026-09-01T19:56:30Z</time>
  <course>317.73</course>
  <speed>0.0</speed>
  <fix>3d</fix>
</trkpt>
<trkpt lat="-27.2744387" lon="151.2900638">
  <ele>343.2</ele>
  <time>2026-09-01T19:56:30Z</time>
  <course>10.8</course>
  <speed>0.022360679774997897</speed>
  <fix>3d</fix>
</trkpt>
<trkpt lat="-27.2744385" lon="151.2900637">
  <ele>343.09</ele>
  <time>2026-09-01T19:56:30Z</time>
  <course>319.71</course>
  <speed>0.0</speed>
  <fix>3d</fix>
</trkpt>
<trkpt lat="-27.2744387" lon="151.2900638">
  <ele>343.2</ele>
  <time>2026-09-01T19:56:30Z</time>
  <course>10.82</course>
  <speed>0.022360679774997897</speed>
  <fix>3d</fix>
</trkpt>
<trkpt lat="-27.2744385" lon="151.2900637">
  <ele>343.09</ele>
  <time>2026-09-01T19:56:30Z</time>
  <course>319.71</course>
  <speed>0.0</speed>
  <fix>3d</fix>
</trkpt>
<trkpt lat="-27.2744387" lon="151.2900638">
  <ele>343.2</ele>
  <time>2026-09-01T19:56:30Z</time>
  <course>10.85</course>
  <speed>0.022360679774997897</speed>
  <fix>3d</fix>
</trkpt>
<trkpt lat="-27.2744385" lon="151.2900637">
  <ele>343.09</ele>
  <time>2026-09-01T19:56:30Z</time>
  <course>137.77</course>
  <speed>0.0</speed>
  <fix>3d</fix>
</trkpt>
<trkpt lat="-27.2744387" lon="151.2900638">
  <ele>343.08</ele>
  <time>2026-09-01T19:56:30Z</time>
  <course>10.87</course>
  <speed>0.022360679774997897</speed>
  <fix>3d</fix>
</trkpt>
<trkpt lat="-27.2744385" lon="151.2900637">
  <ele>343.09</ele>
  <time>2026-09-01T19:56:30Z</time>
  <course>137.77</course>
  <speed>0.0</speed>
  <fix>3d</fix>
</trkpt>
<trkpt lat="-27.2744387" lon="151.2900638">
  <ele>343.09</ele>
  <time>2026-09-01T19:56:30Z</time>
  <course>10.89</course>
  <speed>0.022360679774997897</speed>
  <fix>3d</fix>
</trkpt>
<trkpt lat="-27.2744385" lon="151.2900637">
  <ele>343.09</ele>
  <time>2026-09-01T19:56:30Z</time>
  <course>317.34</course>
  <speed>0.0</speed>
  <fix>3d</fix>
</trkpt>
<trkpt lat="-27.2744387" lon="151.2900638">
  <ele>343.09</ele>
  <time>2026-09-01T19:56:30Z</time>
  <course>10.91</course>
  <speed>0.022360679774997897</speed>
  <fix>3d</fix>
</trkpt>
<trkpt lat="-27.2744385" lon="151.2900637">
  <ele>343.09</ele>
  <time>2026-09-01T19:56:30Z</time>
  <course>317.34</course>
  <speed>0.0</speed>
  <fix>3d</fix>
</trkpt>
<trkpt lat="-27.2744387" lon="151.2900638">
  <ele>343.08</ele>
  <time>2026-09-01T19:56:30Z</time>
  <course>10.93</course>
  <speed>0.022360679774997897</speed>
  <fix>3d</fix>
</trkpt>
<trkpt lat="-27.2744385" lon="151.2900637">
  <ele>343.09</ele>
  <time>2026-09-01T19:56:30Z</time>
  <course>317.81</course>
  <speed>0.0</speed>
  <fix>3d</fix>
</trkpt>
<trkpt lat="-27.2744387" lon="151.2900638">
  <ele>343.08</ele>
  <time>2026-09-01T19:56:30Z</time>
  <course>10.94</course>
  <speed>0.022360679774997897</speed>
  <fix>3d</fix>
</trkpt>
<trkpt lat="-27.2744385" lon="151.2900637">
  <ele>343.09</ele>
  <time>2026-09-01T19:56:30Z</time>
  <course>317.81</course>
  <speed>0.0</speed>
  <fix>3d</fix>
</trkpt>
<trkpt lat="-27.2744387" lon="151.2900638">
  <ele>343.07</ele>
  <time>2026-09-01T19:56:30Z</time>
  <course>10.96</course>
  <speed>0.022360679774997897</speed>
  <fix>3d</fix>
</trkpt>
<trkpt lat="-27.2744385" lon="151.2900637">
  <ele>343.09</ele>
  <time>2026-09-01T19:56:30Z</time>
  <course>137.59</course>
  <speed>0.0</speed>
  <fix>3d</fix>
</trkpt>
<trkpt lat="-27.2744387" lon="151.2900638">
  <ele>343.07</ele>
  <time>2026-09-01T19:56:30Z</time>
  <course>10.97</course>
  <speed>0.022360679774997897</speed>
  <fix>3d</fix>
</trkpt>
<trkpt lat="-27.2744385" lon="151.2900637">
  <ele>343.09</ele>
  <time>2026-09-01T19:56:30Z</time>
  <course>137.59</course>
  <speed>0.0</speed>
  <fix>3d</fix>
</trkpt>
<trkpt lat="-27.2744387" lon="151.2900638">
  <ele>343.06</ele>
  <time>2026-09-01T19:56:30Z</time>
  <course>10.98</course>
  <speed>0.022360679774997897</speed>
  <fix>3d</fix>
</trkpt>
<trkpt lat="-27.2744385" lon="151.2900637">
  <ele>343.09</ele>
  <time>2026-09-01T19:56:30Z</time>
  <course>137.86</course>
  <speed>0.0</speed>
  <fix>3d</fix>
</trkpt>
<trkpt lat="-27.2744387" lon="151.2900638">
  <ele>343.05</ele>
  <time>2026-09-01T19:56:30Z</time>
  <course>11.0</course>
  <speed>0.022360679774997897</speed>
  <fix>3d</fix>
</trkpt>
<trkpt lat="-27.2744385" lon="151.2900637">
  <ele>343.09</ele>
  <time>2026-09-01T19:56:30Z</time>
  <course>137.86</course>
  <speed>0.0</speed>
  <fix>3d</fix>
</trkpt>
<trkpt lat="-27.2744387" lon="151.2900638">
  <ele>343.04</ele>
  <time>2026-09-01T19:56:30Z</time>
  <course>11.01</course>
  <speed>0.022360679774997897</speed>
  <fix>3d</fix>
</trkpt>
<trkpt lat="-27.2744385" lon="151.2900637">
  <ele>343.09</ele>
  <time>2026-09-01T19:56:30Z</time>
  <course>317.67</course>
  <speed>0.0</speed>
  <fix>3d</fix>
</trkpt>
<trkpt lat="-27.2744387" lon="151.2900638">
  <ele>343.03</ele>
  <time>2026-09-01T19:56:30Z</time>
  <course>11.02</course>
  <speed>0.01414213562373095</speed>
  <fix>3d</fix>
</trkpt>
<trkpt lat="-27.2744385" lon="151.2900637">
  <ele>343.09</ele>
  <time>2026-09-01T19:56:30Z</time>
  <course>317.67</course>
  <speed>0.0</speed>
  <fix>3d</fix>
</trkpt>
<trkpt lat="-27.2744387" lon="151.2900638">
  <ele>343.02</ele>
  <time>2026-09-01T19:56:30Z</time>
  <course>11.03</course>
  <speed>0.01414213562373095</speed>
  <fix>3d</fix>
</trkpt>
<trkpt lat="-27.2744385" lon="151.2900637">
  <ele>343.09</ele>
  <time>2026-09-01T19:56:30Z</time>
  <course>317.97</course>
  <speed>0.0</speed>
  <fix>3d</fix>
</trkpt>
<trkpt lat="-27.2744387" lon="151.2900638">
  <ele>343.01</ele>
  <time>2026-09-01T19:56:30Z</time>
  <course>11.04</course>
  <speed>0.01414213562373095</speed>
  <fix>3d</fix>
</trkpt>
<trkpt lat="-27.2744385" lon="151.2900637">
  <ele>343.09</ele>
  <time>2026-09-01T19:56:30Z</time>
  <course>317.97</course>
  <speed>0.0</speed>
  <fix>3d</fix>
</trkpt>
<trkpt lat="-27.2744387" lon="151.2900638">
  <ele>343.01</ele>
  <time>2026-09-01T19:56:30Z</time>
  <course>11.05</course>
  <speed>0.01414213562373095</speed>
  <fix>3d</fix>
</trkpt>
<trkpt lat="-27.2744385" lon="151.2900637">
  <ele>343.09</ele>
  <time>2026-09-01T19:56:30Z</time>
  <course>137.72</course>
  <speed>0.0</speed>
  <fix>3d</fix>
</trkpt>
<trkpt lat="-27.2744387" lon="151.2900638">
  <ele>343.01</ele>
  <time>2026-09-01T19:56:30Z</time>
  <course>11.06</course>
  <speed>0.01</speed>
  <fix>3d</fix>
</trkpt>
<trkpt lat="-27.2744385" lon="151.2900637">
  <ele>343.09</ele>
  <time>2026-09-01T19:56:30Z</time>
  <course>137.72</course>
  <speed>0.0</speed>
  <fix>3d</fix>
</trkpt>
<trkpt lat="-27.2744387" lon="151.2900638">
  <ele>343.01</ele>
  <time>2026-09-01T19:56:30Z</time>
  <course>11.07</course>
  <speed>0.01</speed>
  <fix>3d</fix>
</trkpt>
<trkpt lat="-27.2744385" lon="151.2900637">
  <ele>343.09</ele>
  <time>2026-09-01T19:56:30Z</time>
  <course>138.45</course>
  <speed>0.0</speed>
  <fix>3d</fix>
</trkpt>
<trkpt lat="-27.2744387" lon="151.2900638">
  <ele>343.0</ele>
  <time>2026-09-01T19:56:30Z</time>
  <course>11.08</course>
  <speed>0.01</speed>
  <fix>3d</fix>
</trkpt>
<trkpt lat="-27.2744385" lon="151.2900637">
  <ele>343.09</ele>
  <time>2026-09-01T19:56:30Z</time>
  <course>138.45</course>
  <speed>0.0</speed>
  <fix>3d</fix>
</trkpt>
<trkpt lat="-27.2744387" lon="151.2900638">
  <ele>343.0</ele>
  <time>2026-09-01T19:56:30Z</time>
  <course>11.09</course>
  <speed>0.01</speed>
  <fix>3d</fix>
</trkpt>
<trkpt lat="-27.2744385" lon="151.2900637">
  <ele>343.09</ele>
  <time>2026-09-01T19:56:30Z</time>
  <course>317.76</course>
  <speed>0.0</speed>
  <fix>3d</fix>
</trkpt>
<trkpt lat="-27.2744387" lon="151.2900638">
  <ele>343.0</ele>
  <time>2026-09-01T19:56:30Z</time>
  <course>11.1</course>
  <speed>0.01</speed>
  <fix>3d</fix>
</trkpt>
<trkpt lat="-27.2744385" lon="151.2900637">
  <ele>343.09</ele>
  <time>2026-09-01T19:56:30Z</time>
  <course>317.76</course>
  <speed>0.0</speed>
  <fix>3d</fix>
</trkpt>
<trkpt lat="-27.2744387" lon="151.2900638">
  <ele>342.99</ele>
  <time>2026-09-01T19:56:30Z</time>
  <course>11.1</course>
  <speed>0.01</speed>
  <fix>3d</fix>
</trkpt>
<trkpt lat="-27.2744385" lon="151.2900637">
  <ele>343.09</ele>
  <time>2026-09-01T19:56:30Z</time>
  <course>137.1</course>
  <speed>0.0</speed>
  <fix>3d</fix>
</trkpt>
<trkpt lat="-27.2744387" lon="151.2900638">
  <ele>342.99</ele>
  <time>2026-09-01T19:56:30Z</time>
  <course>11.11</course>
  <speed>0.01</speed>
  <fix>3d</fix>
</trkpt>
<trkpt lat="-27.2744385" lon="151.2900637">
  <ele>343.09</ele>
  <time>2026-09-01T19:56:30Z</time>
  <course>137.1</course>
  <speed>0.0</speed>
  <fix>3d</fix>
</trkpt>
<trkpt lat="-27.2744387" lon="151.2900638">
  <ele>342.99</ele>
  <time>2026-09-01T19:56:30Z</time>
  <course>11.12</course>
  <speed>0.01</speed>
  <fix>3d</fix>
</trkpt>
<trkpt lat="-27.2744385" lon="151.2900637">
  <ele>343.09</ele>
  <time>2026-09-01T19:56:30Z</time>
  <course>137.8</course>
  <speed>0.0</speed>
  <fix>3d</fix>
</trkpt>
<trkpt lat="-27.2744387" lon="151.2900638">
  <ele>342.99</ele>
  <time>2026-09-01T19:56:30Z</time>
  <course>11.13</course>
  <speed>0.01</speed>
  <fix>3d</fix>
</trkpt>
<trkpt lat="-27.2744385" lon="151.2900637">
  <ele>343.09</ele>
  <time>2026-09-01T19:56:30Z</time>
  <course>137.8</course>
  <speed>0.0</speed>
  <fix>3d</fix>
</trkpt>
<trkpt lat="-27.2744387" lon="151.2900638">
  <ele>342.99</ele>
  <time>2026-09-01T19:56:30Z</time>
  <course>11.13</course>
  <speed>0.01</speed>
  <fix>3d</fix>
</trkpt>
<trkpt lat="-27.2744385" lon="151.2900637">
  <ele>343.09</ele>
  <time>2026-09-01T19:56:30Z</time>
  <course>317.55</course>
  <speed>0.0</speed>
  <fix>3d</fix>
</trkpt>
<trkpt lat="-27.2744387" lon="151.2900638">
  <ele>342.98</ele>
  <time>2026-09-01T19:56:30Z</time>
  <course>11.14</course>
  <speed>0.01</speed>
  <fix>3d</fix>
</trkpt>
<trkpt lat="-27.2744385" lon="151.2900637">
  <ele>343.09</ele>
  <time>2026-09-01T19:56:30Z</time>
  <course>317.55</course>
  <speed>0.0</speed>
  <fix>3d</fix>
</trkpt>
<trkpt lat="-27.2744387" lon="151.2900638">
  <ele>342.98</ele>
  <time>2026-09-01T19:56:30Z</time>
  <course>11.14</course>
  <speed>0.01</speed>
  <fix>3d</fix>
</trkpt>
<trkpt lat="-27.2744385" lon="151.2900637">
  <ele>343.09</ele>
  <time>2026-09-01T19:56:30Z</time>
  <course>317.84</course>
  <speed>0.0</speed>
  <fix>3d</fix>
</trkpt>
<trkpt lat="-27.2744386" lon="151.2900638">
  <ele>342.98</ele>
  <time>2026-09-01T19:56:30Z</time>
  <course>11.15</course>
  <speed>0.01</speed>
  <fix>3d</fix>
</trkpt>
<trkpt lat="-27.2744385" lon="151.2900637">
  <ele>343.09</ele>
  <time>2026-09-01T19:56:30Z</time>
  <course>317.84</course>
  <speed>0.0</speed>
  <fix>3d</fix>
</trkpt>
<trkpt lat="-26.9720619" lon="149.6127921">
  <ele>339.29</ele>
  <time>2026-09-01T19:56:31Z</time>
  <course>310.27</course>
  <speed>0.0</speed>
  <fix>3d</fix>
</trkpt>
<trkpt lat="-26.9720619" lon="149.6127921">
  <ele>339.29</ele>
  <time>2026-09-01T19:56:31Z</time>
  <course>310.27</course>
  <speed>0.0</speed>
  <fix>3d</fix>
</trkpt>
<trkpt lat="-27.274439" lon="151.290064">
  <ele>-0.01</ele>
  <time>2026-09-01T19:56:31Z</time>
  <course>0.22</course>
  <speed>0.0</speed>
  <fix>3d</fix>
</trkpt>
<trkpt lat="-27.274439" lon="151.290064">
  <ele>343.1</ele>
  <time>2026-09-01T19:56:31Z</time>
  <course>294.58</course>
  <speed>0.0</speed>
  <fix>3d</fix>
</trkpt>
<trkpt lat="-27.274439" lon="151.290064">
  <ele>0.02</ele>
  <time>2026-09-01T19:56:31Z</time>
  <course>1.2</course>
  <speed>0.0</speed>
  <fix>3d</fix>
</trkpt>
<trkpt lat="-27.274439" lon="151.290064">
  <ele>343.1</ele>
  <time>2026-09-01T19:56:31Z</time>
  <course>294.58</course>
  <speed>0.0</speed>
  <fix>3d</fix>
</trkpt>
<trkpt lat="-27.274439" lon="151.290064">
  <ele>-0.08</ele>
  <time>2026-09-01T19:56:31Z</time>
  <course>2.1</course>
  <speed>0.0</speed>
  <fix>3d</fix>
</trkpt>
<trkpt lat="-27.274439" lon="151.290064">
  <ele>343.1</ele>
  <time>2026-09-01T19:56:31Z</time>
  <course>273.33</course>
  <speed>0.0</speed>
  <fix>3d</fix>
</trkpt>
<trkpt lat="-27.274439" lon="151.290064">
  <ele>0.22</ele>
  <time>2026-09-01T19:56:31Z</time>
  <course>2.92</course>
  <speed>0.0</speed>
  <fix>3d</fix>
</trkpt>
<trkpt lat="-27.274439" lon="151.290064">
  <ele>343.1</ele>
  <time>2026-09-01T19:56:31Z</time>
  <course>273.33</course>
  <speed>0.0</speed>
  <fix>3d</fix>
</trkpt>
<trkpt lat="-27.274439" lon="151.290064">
  <ele>0.09</ele>
  <time>2026-09-01T19:56:31Z</time>
  <course>3.66</course>
  <speed>0.0</speed>
  <fix>3d</fix>
</trkpt>
<trkpt lat="-27.274439" lon="151.290064">
  <ele>343.1</ele>
  <time>2026-09-01T19:56:31Z</time>
  <course>270.44</course>
  <speed>0.0</speed>
  <fix>3d</fix>
</trkpt>
<trkpt lat="-27.274439" lon="151.290064">
  <ele>0.08</ele>
  <time>2026-09-01T19:56:31Z</time>
  <course>4.34</course>
  <speed>0.0</speed>
  <fix>3d</fix>
</trkpt>
<trkpt lat="-27.274439" lon="151.290064">
  <ele>343.1</ele>
  <time>2026-09-01T19:56:31Z</time>
  <course>270.44</course>
  <speed>0.0</speed>
  <fix>3d</fix>
</trkpt>
<trkpt lat="-27.274439" lon="151.290064">
  <ele>0.09</ele>
  <time>2026-09-01T19:56:31Z</time>
  <course>4.95</course>
  <speed>0.0</speed>
  <fix>3d</fix>
</trkpt>
<trkpt lat="-27.274439" lon="151.290064">
  <ele>343.1</ele>
  <time>2026-09-01T19:56:31Z</time>
  <course>270.05</course>
  <speed>0.0</speed>
  <fix>3d</fix>
</trkpt>
<trkpt lat="-27.274439" lon="151.290064">
  <ele>-0.05</ele>
  <time>2026-09-01T19:56:31Z</time>
  <course>5.5</course>
  <speed>0.0</speed>
  <fix>3d</fix>
</trkpt>
<trkpt lat="-27.274439" lon="151.290064">
  <ele>343.1</ele>
  <time>2026-09-01T19:56:31Z</time>
  <course>270.05</course>
  <speed>0.0</speed>
  <fix>3d</fix>
</trkpt>
<trkpt lat="-27.274439" lon="151.290064">
  <ele>343.06</ele>
  <time>2026-09-01T19:56:31Z</time>
  <course>5.98</course>
  <speed>0.0</speed>
  <fix>3d</fix>
</trkpt>
<trkpt lat="-27.274439" lon="151.290064">
  <ele>343.1</ele>
  <time>2026-09-01T19:56:31Z</time>
  <course>270.0</course>
  <speed>0.0</speed>
  <fix>3d</fix>
</trkpt>
<trkpt lat="-27.274439" lon="151.290064">
  <ele>343.18</ele>
  <time>2026-09-01T19:56:31Z</time>
  <course>6.44</course>
  <speed>0.0</speed>
  <fix>3d</fix>
</trkpt>
<trkpt lat="-27.274439" lon="151.290064">
  <ele>343.1</ele>
  <time>2026-09-01T19:56:31Z</time>
  <course>270.0</course>
  <speed>0.0</speed>
  <fix>3d</fix>
</trkpt>
<trkpt lat="-27.274439" lon="151.290064">
  <ele>342.91</ele>
  <time>2026-09-01T19:56:31Z</time>
  <course>6.85</course>
  <speed>0.0</speed>
  <fix>3d</fix>
</trkpt>
<trkpt lat="-27.274439" lon="151.290064">
  <ele>343.1</ele>
  <time>2026-09-01T19:56:31Z</time>
  <course>270.0</course>
  <speed>0.0</speed>
  <fix>3d</fix>
</trkpt>
<trkpt lat="-27.274439" lon="151.290064">
  <ele>343.06</ele>
  <time>2026-09-01T19:56:31Z</time>
  <course>7.22</course>
  <speed>0.0</speed>
  <fix>3d</fix>
</trkpt>
<trkpt lat="-27.274439" lon="151.290064">
  <ele>343.1</ele>
  <time>2026-09-01T19:56:31Z</time>
  <course>270.0</course>
  <speed>0.0</speed>
  <fix>3d</fix>
</trkpt>
<trkpt lat="-27.274439" lon="151.290064">
  <ele>343.13</ele>
  <time>2026-09-01T19:56:31Z</time>
  <course>7.56</course>
  <speed>0.0</speed>
  <fix>3d</fix>
</trkpt>
<trkpt lat="-27.274439" lon="151.290064">
  <ele>343.1</ele>
  <time>2026-09-01T19:56:31Z</time>
  <course>270.0</course>
  <speed>0.0</speed>
  <fix>3d</fix>
</trkpt>
<trkpt lat="-27.274439" lon="151.290064">
  <ele>343.04</ele>
  <time>2026-09-01T19:56:31Z</time>
  <course>7.87</course>
  <speed>0.0</speed>
  <fix>3d</fix>
</trkpt>
<trkpt lat="-27.274439" lon="151.290064">
  <ele>343.1</ele>
  <time>2026-09-01T19:56:31Z</time>
  <course>270.0</course>
  <speed>0.0</speed>
  <fix>3d</fix>
</trkpt>
<trkpt lat="-27.274439" lon="151.290064">
  <ele>342.88</ele>
  <time>2026-09-01T19:56:31Z</time>
  <course>8.14</course>
  <speed>0.0</speed>
  <fix>3d</fix>
</trkpt>
<trkpt lat="-27.274439" lon="151.290064">
  <ele>343.1</ele>
  <time>2026-09-01T19:56:31Z</time>
  <course>270.0</course>
  <speed>0.0</speed>
  <fix>3d</fix>
</trkpt>
<trkpt lat="-27.274439" lon="151.290064">
  <ele>343.02</ele>
  <time>2026-09-01T19:56:31Z</time>
  <course>8.39</course>
  <speed>0.0</speed>
  <fix>3d</fix>
</trkpt>
<trkpt lat="-27.274439" lon="151.290064">
  <ele>343.1</ele>
  <time>2026-09-01T19:56:31Z</time>
  <course>270.0</course>
  <speed>0.0</speed>
  <fix>3d</fix>
</trkpt>
<trkpt lat="-27.274439" lon="151.290064">
  <ele>343.23</ele>
  <time>2026-09-01T19:56:31Z</time>
  <course>8.63</course>
  <speed>0.0</speed>
  <fix>3d</fix>
</trkpt>
<trkpt lat="-27.274439" lon="151.290064">
  <ele>343.1</ele>
  <time>2026-09-01T19:56:31Z</time>
  <course>270.0</course>
  <speed>0.0</speed>
  <fix>3d</fix>
</trkpt>
<trkpt lat="-27.274439" lon="151.290064">
  <ele>343.17</ele>
  <time>2026-09-01T19:56:31Z</time>
  <course>8.83</course>
  <speed>0.0</speed>
  <fix>3d</fix>
</trkpt>
<trkpt lat="-27.274439" lon="151.290064">
  <ele>343.1</ele>
  <time>2026-09-01T19:56:31Z</time>
  <course>270.0</course>
  <speed>0.0</speed>
  <fix>3d</fix>
</trkpt>
<trkpt lat="-27.274439" lon="151.290064">
  <ele>343.04</ele>
  <time>2026-09-01T19:56:31Z</time>
  <course>9.01</course>
  <speed>0.0</speed>
  <fix>3d</fix>
</trkpt>
<trkpt lat="-27.274439" lon="151.290064">
  <ele>343.1</ele>
  <time>2026-09-01T19:56:31Z</time>
  <course>270.0</course>
  <speed>0.0</speed>
  <fix>3d</fix>
</trkpt>
<trkpt lat="-27.274439" lon="151.290064">
  <ele>342.89</ele>
  <time>2026-09-01T19:56:31Z</time>
  <course>9.18</course>
  <speed>0.0</speed>
  <fix>3d</fix>
</trkpt>
<trkpt lat="-27.274439" lon="151.290064">
  <ele>343.1</ele>
  <time>2026-09-01T19:56:31Z</time>
  <course>270.0</course>
  <speed>0.0</speed>
  <fix>3d</fix>
</trkpt>
<trkpt lat="-27.274439" lon="151.290064">
  <ele>343.08</ele>
  <time>2026-09-01T19:56:31Z</time>
  <course>9.33</course>
  <speed>0.0</speed>
  <fix>3d</fix>
</trkpt>
<trkpt lat="-27.274439" lon="151.290064">
  <ele>343.1</ele>
  <time>2026-09-01T19:56:31Z</time>
  <course>270.0</course>
  <speed>0.0</speed>
  <fix>3d</fix>
</trkpt>
<trkpt lat="-27.274439" lon="151.290064">
  <ele>343.19</ele>
  <time>2026-09-01T19:56:31Z</time>
  <course>9.47</course>
  <speed>0.0</speed>
  <fix>3d</fix>
</trkpt>
<trkpt lat="-27.274439" lon="151.290064">
  <ele>343.1</ele>
  <time>2026-09-01T19:56:31Z</time>
  <course>270.0</course>
  <speed>0.0</speed>
  <fix>3d</fix>
</trkpt>
<trkpt lat="-27.274439" lon="151.290064">
  <ele>342.88</ele>
  <time>2026-09-01T19:56:31Z</time>
  <course>9.59</course>
  <speed>0.0</speed>
  <fix>3d</fix>
</trkpt>
<trkpt lat="-27.274439" lon="151.290064">
  <ele>343.1</ele>
  <time>2026-09-01T19:56:31Z</time>
  <course>270.0</course>
  <speed>0.0</speed>
  <fix>3d</fix>
</trkpt>
<trkpt lat="-27.274439" lon="151.290064">
  <ele>343.17</ele>
  <time>2026-09-01T19:56:31Z</time>
  <course>9.7</course>
  <speed>0.0</speed>
  <fix>3d</fix>
</trkpt>
<trkpt lat="-27.274439" lon="151.290064">
  <ele>343.1</ele>
  <time>2026-09-01T19:56:31Z</time>
  <course>270.0</course>
  <speed>0.0</speed>
  <fix>3d</fix>
</trkpt>
<trkpt lat="-27.274439" lon="151.290064">
  <ele>342.89</ele>
  <time>2026-09-01T19:56:31Z</time>
  <course>9.8</course>
  <speed>0.0</speed>
  <fix>3d</fix>
</trkpt>
<trkpt lat="-27.274439" lon="151.290064">
  <ele>343.1</ele>
  <time>2026-09-01T19:56:31Z</time>
  <course>270.0</course>
  <speed>0.0</speed>
  <fix>3d</fix>
</trkpt>
<trkpt lat="-27.274439" lon="151.290064">
  <ele>342.99</ele>
  <time>2026-09-01T19:56:31Z</time>
  <course>9.9</course>
  <speed>0.0</speed>
  <fix>3d</fix>
</trkpt>
<trkpt lat="-27.274439" lon="151.290064">
  <ele>343.1</ele>
  <time>2026-09-01T19:56:31Z</time>
  <course>270.0</course>
  <speed>0.0</speed>
  <fix>3d</fix>
</trkpt>
<trkpt lat="-27.274439" lon="151.290064">
  <ele>342.87</ele>
  <time>2026-09-01T19:56:31Z</time>
  <course>9.98</course>
  <speed>0.0</speed>
  <fix>3d</fix>
</trkpt>
<trkpt lat="-27.274439" lon="151.290064">
  <ele>343.1</ele>
  <time>2026-09-01T19:56:31Z</time>
  <course>270.0</course>
  <speed>0.0</speed>
  <fix>3d</fix>
</trkpt>
<trkpt lat="-27.274439" lon="151.290064">
  <ele>343.09</ele>
  <time>2026-09-01T19:56:31Z</time>
  <course>10.06</course>
  <speed>0.0</speed>
  <fix>3d</fix>
</trkpt>
<trkpt lat="-27.274439" lon="151.290064">
  <ele>343.1</ele>
  <time>2026-09-01T19:56:31Z</time>
  <course>270.0</course>
  <speed>0.0</speed>
  <fix>3d</fix>
</trkpt>
<trkpt lat="-27.274439" lon="151.290064">
  <ele>343.18</ele>
  <time>2026-09-01T19:56:31Z</time>
  <course>10.13</course>
  <speed>0.0</speed>
  <fix>3d</fix>
</trkpt>
<trkpt lat="-27.274439" lon="151.290064">
  <ele>343.1</ele>
  <time>2026-09-01T19:56:31Z</time>
  <course>270.0</course>
  <speed>0.0</speed>
  <fix>3d</fix>
</trkpt>
<trkpt lat="-27.274439" lon="151.290064">
  <ele>343.05</ele>
  <time>2026-09-01T19:56:31Z</time>
  <course>10.2</course>
  <speed>0.0</speed>
  <fix>3d</fix>
</trkpt>
<trkpt lat="-27.274439" lon="151.290064">
  <ele>343.1</ele>
  <time>2026-09-01T19:56:31Z</time>
  <course>270.0</course>
  <speed>0.0</speed>
  <fix>3d</fix>
</trkpt>
<trkpt lat="-27.274439" lon="151.290064">
  <ele>342.96</ele>
  <time>2026-09-01T19:56:31Z</time>
  <course>10.25</course>
  <speed>0.0</speed>
  <fix>3d</fix>
</trkpt>
<trkpt lat="-27.274439" lon="151.290064">
  <ele>343.1</ele>
  <time>2026-09-01T19:56:31Z</time>
  <course>270.0</course>
  <speed>0.0</speed>
  <fix>3d</fix>
</trkpt>
<trkpt lat="-27.274439" lon="151.290064">
  <ele>343.1</ele>
  <time>2026-09-01T19:56:31Z</time>
  <course>10.31</course>
  <speed>0.0</speed>
  <fix>3d</fix>
</trkpt>
<trkpt lat="-27.274439" lon="151.290064">
  <ele>343.1</ele>
  <time>2026-09-01T19:56:31Z</time>
  <course>270.0</course>
  <speed>0.0</speed>
  <fix>3d</fix>
</trkpt>
<trkpt lat="-27.274439" lon="151.290064">
  <ele>343.22</ele>
  <time>2026-09-01T19:56:31Z</time>
  <course>10.35</course>
  <speed>0.0</speed>
  <fix>3d</fix>
</trkpt>
<trkpt lat="-27.274439" lon="151.290064">
  <ele>343.1</ele>
  <time>2026-09-01T19:56:31Z</time>
  <course>270.0</course>
  <speed>0.0</speed>
  <fix>3d</fix>
</trkpt>
<trkpt lat="-27.274439" lon="151.290064">
  <ele>343.17</ele>
  <time>2026-09-01T19:56:31Z</time>
  <course>10.4</course>
  <speed>0.0</speed>
  <fix>3d</fix>
</trkpt>
<trkpt lat="-27.274439" lon="151.290064">
  <ele>343.1</ele>
  <time>2026-09-01T19:56:31Z</time>
  <course>270.0</course>
  <speed>0.0</speed>
  <fix>3d</fix>
</trkpt>
<trkpt lat="-27.274439" lon="151.290064">
  <ele>343.08</ele>
  <time>2026-09-01T19:56:31Z</time>
  <course>10.44</course>
  <speed>0.0</speed>
  <fix>3d</fix>
</trkpt>
<trkpt lat="-27.274439" lon="151.290064">
  <ele>343.1</ele>
  <time>2026-09-01T19:56:31Z</time>
  <course>270.0</course>
  <speed>0.0</speed>
  <fix>3d</fix>
</trkpt>
<trkpt lat="-27.274439" lon="151.290064">
  <ele>343.04</ele>
  <time>2026-09-01T19:56:31Z</time>
  <course>10.47</course>
  <speed>0.0</speed>
  <fix>3d</fix>
</trkpt>
<trkpt lat="-27.274439" lon="151.290064">
  <ele>343.1</ele>
  <time>2026-09-01T19:56:31Z</time>
  <course>270.0</course>
  <speed>0.0</speed>
  <fix>3d</fix>
</trkpt>
<trkpt lat="-27.274439" lon="151.290064">
  <ele>343.18</ele>
  <time>2026-09-01T19:56:31Z</time>
  <course>10.5</course>
  <speed>0.0</speed>
  <fix>3d</fix>
</trkpt>
<trkpt lat="-27.274439" lon="151.290064">
  <ele>343.1</ele>
  <time>2026-09-01T19:56:31Z</time>
  <course>270.0</course>
  <speed>0.0</speed>
  <fix>3d</fix>
</trkpt>
<trkpt lat="-27.274439" lon="151.290064">
  <ele>343.12</ele>
  <time>2026-09-01T19:56:31Z</time>
  <course>10.53</course>
  <speed>0.0</speed>
  <fix>3d</fix>
</trkpt>
<trkpt lat="-27.274439" lon="151.290064">
  <ele>343.1</ele>
  <time>2026-09-01T19:56:31Z</time>
  <course>270.0</course>
  <speed>0.0</speed>
  <fix>3d</fix>
</trkpt>
<trkpt lat="-27.274439" lon="151.290064">
  <ele>343.04</ele>
  <time>2026-09-01T19:56:31Z</time>
  <course>10.56</course>
  <speed>0.0</speed>
  <fix>3d</fix>
</trkpt>
<trkpt lat="-27.274439" lon="151.290064">
  <ele>343.1</ele>
  <time>2026-09-01T19:56:31Z</time>
  <course>270.0</course>
  <speed>0.0</speed>
  <fix>3d</fix>
</trkpt>
<trkpt lat="-27.274439" lon="151.290064">
  <ele>343.07</ele>
  <time>2026-09-01T19:56:31Z</time>
  <course>10.58</course>
  <speed>0.0</speed>
  <fix>3d</fix>
</trkpt>
<trkpt lat="-27.274439" lon="151.290064">
  <ele>343.1</ele>
  <time>2026-09-01T19:56:31Z</time>
  <course>270.0</course>
  <speed>0.0</speed>
  <fix>3d</fix>
</trkpt>
<trkpt lat="-27.274439" lon="151.290064">
  <ele>343.04</ele>
  <time>2026-09-01T19:56:31Z</time>
  <course>10.6</course>
  <speed>0.0</speed>
  <fix>3d</fix>
</trkpt>
<trkpt lat="-27.274439" lon="151.290064">
  <ele>343.1</ele>
  <time>2026-09-01T19:56:31Z</time>
  <course>270.0</course>
  <speed>0.0</speed>
  <fix>3d</fix>
</trkpt>
<trkpt lat="-27.274439" lon="151.290064">
  <ele>343.01</ele>
  <time>2026-09-01T19:56:31Z</time>
  <course>10.62</course>
  <speed>0.0</speed>
  <fix>3d</fix>
</trkpt>
<trkpt lat="-27.274439" lon="151.290064">
  <ele>343.1</ele>
  <time>2026-09-01T19:56:31Z</time>
  <course>270.0</course>
  <speed>0.0</speed>
  <fix>3d</fix>
</trkpt>
<trkpt lat="-27.274439" lon="151.290064">
  <ele>343.2</ele>
  <time>2026-09-01T19:56:31Z</time>
  <course>10.64</course>
  <speed>0.0</speed>
  <fix>3d</fix>
</trkpt>
<trkpt lat="-27.274439" lon="151.290064">
  <ele>343.1</ele>
  <time>2026-09-01T19:56:31Z</time>
  <course>270.0</course>
  <speed>0.0</speed>
  <fix>3d</fix>
</trkpt>
<trkpt lat="-27.274439" lon="151.290064">
  <ele>343.24</ele>
  <time>2026-09-01T19:56:31Z</time>
  <course>10.65</course>
  <speed>0.0</speed>
  <fix>3d</fix>
</trkpt>
<trkpt lat="-27.274439" lon="151.290064">
  <ele>343.1</ele>
  <time>2026-09-01T19:56:31Z</time>
  <course>270.0</course>
  <speed>0.0</speed>
  <fix>3d</fix>
</trkpt>
<trkpt lat="-27.274439" lon="151.290064">
  <ele>342.88</ele>
  <time>2026-09-01T19:56:31Z</time>
  <course>10.67</course>
  <speed>0.0</speed>
  <fix>3d</fix>
</trkpt>
<trkpt lat="-27.274439" lon="151.290064">
  <ele>343.1</ele>
  <time>2026-09-01T19:56:31Z</time>
  <course>270.0</course>
  <speed>0.0</speed>
  <fix>3d</fix>
</trkpt>
<trkpt lat="-27.274439" lon="151.290064">
  <ele>343.21</ele>
  <time>2026-09-01T19:56:31Z</time>
  <course>10.68</course>
  <speed>0.0</speed>
  <fix>3d</fix>
</trkpt>
<trkpt lat="-27.274439" lon="151.290064">
  <ele>343.1</ele>
  <time>2026-09-01T19:56:31Z</time>
  <course>270.0</course>
  <speed>0.0</speed>
  <fix>3d</fix>
</trkpt>
<trkpt lat="-27.274439" lon="151.290064">
  <ele>343.02</ele>
  <time>2026-09-01T19:56:31Z</time>
  <course>10.69</course>
  <speed>0.0</speed>
  <fix>3d</fix>
</trkpt>
<trkpt lat="-27.274439" lon="151.290064">
  <ele>343.1</ele>
  <time>2026-09-01T19:56:31Z</time>
  <course>270.0</course>
  <speed>0.0</speed>
  <fix>3d</fix>
</trkpt>
<trkpt lat="-27.274439" lon="151.290064">
  <ele>342.93</ele>
  <time>2026-09-01T19:56:31Z</time>
  <course>10.7</course>
  <speed>0.0</speed>
  <fix>3d</fix>
</trkpt>
<trkpt lat="-27.274439" lon="151.290064">
  <ele>343.1</ele>
  <time>2026-09-01T19:56:31Z</time>
  <course>270.0</course>
  <speed>0.0</speed>
  <fix>3d</fix>
</trkpt>
<trkpt lat="-27.274439" lon="151.290064">
  <ele>343.07</ele>
  <time>2026-09-01T19:56:31Z</time>
  <course>10.71</course>
  <speed>0.0</speed>
  <fix>3d</fix>
</trkpt>
<trkpt lat="-27.274439" lon="151.290064">
  <ele>343.1</ele>
  <time>2026-09-01T19:56:31Z</time>
  <course>270.0</course>
  <speed>0.0</speed>
  <fix>3d</fix>
</trkpt>
<trkpt lat="-27.274439" lon="151.290064">
  <ele>342.94</ele>
  <time>2026-09-01T19:56:31Z</time>
  <course>10.72</course>
  <speed>0.0</speed>
  <fix>3d</fix>
</trkpt>
<trkpt lat="-27.274439" lon="151.290064">
  <ele>343.1</ele>
  <time>2026-09-01T19:56:31Z</time>
  <course>270.0</course>
  <speed>0.0</speed>
  <fix>3d</fix>
</trkpt>
<trkpt lat="-27.274439" lon="151.290064">
  <ele>343.11</ele>
  <time>2026-09-01T19:56:31Z</time>
  <course>10.73</course>
  <speed>0.0</speed>
  <fix>3d</fix>
</trkpt>
<trkpt lat="-27.274439" lon="151.290064">
  <ele>343.1</ele>
  <time>2026-09-01T19:56:31Z</time>
  <course>270.0</course>
  <speed>0.0</speed>
  <fix>3d</fix>
</trkpt>
<trkpt lat="-27.274439" lon="151.290064">
  <ele>343.24</ele>
  <time>2026-09-01T19:56:31Z</time>
  <course>10.73</course>
  <speed>0.0</speed>
  <fix>3d</fix>
</trkpt>
<trkpt lat="-27.274439" lon="151.290064">
  <ele>343.1</ele>
  <time>2026-09-01T19:56:31Z</time>
  <course>270.0</course>
  <speed>0.0</speed>
  <fix>3d</fix>
</trkpt>
<trkpt lat="-27.274439" lon="151.290064">
  <ele>343.18</ele>
  <time>2026-09-01T19:56:31Z</time>
  <course>10.74</course>
  <speed>0.0</speed>
  <fix>3d</fix>
</trkpt>
<trkpt lat="-27.274439" lon="151.290064">
  <ele>343.1</ele>
  <time>2026-09-01T19:56:31Z</time>
  <course>270.0</course>
  <speed>0.0</speed>
  <fix>3d</fix>
</trkpt>
<trkpt lat="-27.274439" lon="151.290064">
  <ele>342.89</ele>
  <time>2026-09-01T19:56:31Z</time>
  <course>10.75</course>
  <speed>0.0</speed>
  <fix>3d</fix>
</trkpt>
<trkpt lat="-27.274439" lon="151.290064">
  <ele>343.1</ele>
  <time>2026-09-01T19:56:31Z</time>
  <course>270.0</course>
  <speed>0.0</speed>
  <fix>3d</fix>
</trkpt>
<trkpt lat="-27.274439" lon="151.290064">
  <ele>343.23</ele>
  <time>2026-09-01T19:56:31Z</time>
  <course>10.75</course>
  <speed>0.0</speed>
  <fix>3d</fix>
</trkpt>
<trkpt lat="-27.274439" lon="151.290064">
  <ele>343.1</ele>
  <time>2026-09-01T19:56:31Z</time>
  <course>270.0</course>
  <speed>0.0</speed>
  <fix>3d</fix>
</trkpt>
<trkpt lat="-27.274439" lon="151.290064">
  <ele>343.23</ele>
  <time>2026-09-01T19:56:31Z</time>
  <course>10.76</course>
  <speed>0.0</speed>
  <fix>3d</fix>
</trkpt>
<trkpt lat="-27.274439" lon="151.290064">
  <ele>343.1</ele>
  <time>2026-09-01T19:56:31Z</time>
  <course>270.0</course>
  <speed>0.0</speed>
  <fix>3d</fix>
</trkpt>
<trkpt lat="-27.274439" lon="151.290064">
  <ele>342.99</ele>
  <time>2026-09-01T19:56:31Z</time>
  <course>10.76</course>
  <speed>0.0</speed>
  <fix>3d</fix>
</trkpt>
<trkpt lat="-27.274439" lon="151.290064">
  <ele>343.1</ele>
  <time>2026-09-01T19:56:31Z</time>
  <course>270.0</course>
  <speed>0.0</speed>
  <fix>3d</fix>
</trkpt>
<trkpt lat="-27.274439" lon="151.290064">
  <ele>343.13</ele>
  <time>2026-09-01T19:56:31Z</time>
  <course>10.76</course>
  <speed>0.0</speed>
  <fix>3d</fix>
</trkpt>
<trkpt lat="-27.274439" lon="151.290064">
  <ele>343.1</ele>
  <time>2026-09-01T19:56:31Z</time>
  <course>270.0</course>
  <speed>0.0</speed>
  <fix>3d</fix>
</trkpt>
<trkpt lat="-27.274439" lon="151.290064">
  <ele>343.07</ele>
  <time>2026-09-01T19:56:31Z</time>
  <course>10.77</course>
  <speed>0.0</speed>
  <fix>3d</fix>
</trkpt>
<trkpt lat="-27.274439" lon="151.290064">
  <ele>343.1</ele>
  <time>2026-09-01T19:56:31Z</time>
  <course>270.0</course>
  <speed>0.0</speed>
  <fix>3d</fix>
</trkpt>
<trkpt lat="-27.274439" lon="151.290064">
  <ele>343.19</ele>
  <time>2026-09-01T19:56:31Z</time>
  <course>10.77</course>
  <speed>0.0</speed>
  <fix>3d</fix>
</trkpt>
<trkpt lat="-27.274439" lon="151.290064">
  <ele>343.1</ele>
  <time>2026-09-01T19:56:31Z</time>
  <course>270.0</course>
  <speed>0.0</speed>
  <fix>3d</fix>
</trkpt>
<trkpt lat="-27.274439" lon="151.290064">
  <ele>342.93</ele>
  <time>2026-09-01T19:56:31Z</time>
  <course>10.77</course>
  <speed>0.0</speed>
  <fix>3d</fix>
</trkpt>
<trkpt lat="-27.274439" lon="151.290064">
  <ele>343.1</ele>
  <time>2026-09-01T19:56:31Z</time>
  <course>270.0</course>
  <speed>0.0</speed>
  <fix>3d</fix>
</trkpt>
<trkpt lat="-27.274439" lon="151.290064">
  <ele>343.19</ele>
  <time>2026-09-01T19:56:31Z</time>
  <course>10.78</course>
  <speed>0.0</speed>
  <fix>3d</fix>
</trkpt>
<trkpt lat="-27.274439" lon="151.290064">
  <ele>343.1</ele>
  <time>2026-09-01T19:56:31Z</time>
  <course>270.0</course>
  <speed>0.0</speed>
  <fix>3d</fix>
</trkpt>
<trkpt lat="-27.274439" lon="151.290064">
  <ele>343.1</ele>
  <time>2026-09-01T19:56:31Z</time>
  <course>10.78</course>
  <speed>0.0</speed>
  <fix>3d</fix>
</trkpt>
<trkpt lat="-27.274439" lon="151.290064">
  <ele>343.1</ele>
  <time>2026-09-01T19:56:31Z</time>
  <course>270.0</course>
  <speed>0.0</speed>
  <fix>3d</fix>
</trkpt>
<trkpt lat="-27.274439" lon="151.290064">
  <ele>343.01</ele>
  <time>2026-09-01T19:56:31Z</time>
  <course>10.78</course>
  <speed>0.0</speed>
  <fix>3d</fix>
</trkpt>
<trkpt lat="-27.274439" lon="151.290064">
  <ele>343.1</ele>
  <time>2026-09-01T19:56:31Z</time>
  <course>270.0</course>
  <speed>0.0</speed>
  <fix>3d</fix>
</trkpt>
<trkpt lat="-27.274439" lon="151.290064">
  <ele>343.11</ele>
  <time>2026-09-01T19:56:31Z</time>
  <course>10.78</course>
  <speed>0.0</speed>
  <fix>3d</fix>
</trkpt>
<trkpt lat="-27.274439" lon="151.290064">
  <ele>343.1</ele>
  <time>2026-09-01T19:56:31Z</time>
  <course>270.0</course>
  <speed>0.0</speed>
  <fix>3d</fix>
</trkpt>
<trkpt lat="-27.274439" lon="151.290064">
  <ele>342.96</ele>
  <time>2026-09-01T19:56:31Z</time>
  <course>10.78</course>
  <speed>0.0</speed>
  <fix>3d</fix>
</trkpt>
<trkpt lat="-27.274439" lon="151.290064">
  <ele>343.1</ele>
  <time>2026-09-01T19:56:31Z</time>
  <course>270.0</course>
  <speed>0.0</speed>
  <fix>3d</fix>
</trkpt>
<trkpt lat="-27.274439" lon="151.290064">
  <ele>343.19</ele>
  <time>2026-09-01T19:56:31Z</time>
  <course>10.79</course>
  <speed>0.0</speed>
  <fix>3d</fix>
</trkpt>
<trkpt lat="-27.274439" lon="151.290064">
  <ele>343.1</ele>
  <time>2026-09-01T19:56:31Z</time>
  <course>270.0</course>
  <speed>0.0</speed>
  <fix>3d</fix>
</trkpt>
<trkpt lat="-27.274439" lon="151.290064">
  <ele>343.0</ele>
  <time>2026-09-01T19:56:31Z</time>
  <course>10.79</course>
  <speed>0.0</speed>
  <fix>3d</fix>
</trkpt>
<trkpt lat="-27.274439" lon="151.290064">
  <ele>343.1</ele>
  <time>2026-09-01T19:56:31Z</time>
  <course>270.0</course>
  <speed>0.0</speed>
  <fix>3d</fix>
</trkpt>
<trkpt lat="-27.274439" lon="151.290064">
  <ele>343.2</ele>
  <time>2026-09-01T19:56:31Z</time>
  <course>10.79</course>
  <speed>0.0</speed>
  <fix>3d</fix>
</trkpt>
<trkpt lat="-27.274439" lon="151.290064">
  <ele>343.1</ele>
  <time>2026-09-01T19:56:31Z</time>
  <course>270.0</course>
  <speed>0.0</speed>
  <fix>3d</fix>
</trkpt>
<trkpt lat="-27.274439" lon="151.290064">
  <ele>343.2</ele>
  <time>2026-09-01T19:56:31Z</time>
  <course>10.79</course>
  <speed>0.0</speed>
  <fix>3d</fix>
</trkpt>
<trkpt lat="-27.274439" lon="151.290064">
  <ele>343.1</ele>
  <time>2026-09-01T19:56:31Z</time>
  <course>270.0</course>
  <speed>0.0</speed>
  <fix>3d</fix>
</trkpt>
<trkpt lat="-27.274439" lon="151.290064">
  <ele>343.13</ele>
  <time>2026-09-01T19:56:31Z</time>
  <course>10.79</course>
  <speed>0.0</speed>
  <fix>3d</fix>
</trkpt>
<trkpt lat="-27.274439" lon="151.290064">
  <ele>343.1</ele>
  <time>2026-09-01T19:56:31Z</time>
  <course>270.0</course>
  <speed>0.0</speed>
  <fix>3d</fix>
</trkpt>
<trkpt lat="-27.274439" lon="151.290064">
  <ele>343.1</ele>
  <time>2026-09-01T19:56:31Z</time>
  <course>10.79</course>
  <speed>0.0</speed>
  <fix>3d</fix>
</trkpt>
<trkpt lat="-27.274439" lon="151.290064">
  <ele>343.1</ele>
  <time>2026-09-01T19:56:31Z</time>
  <course>270.0</course>
  <speed>0.0</speed>
  <fix>3d</fix>
</trkpt>
<trkpt lat="-27.274439" lon="151.290064">
  <ele>343.12</ele>
  <time>2026-09-01T19:56:31Z</time>
  <course>10.79</course>
  <speed>0.0</speed>
  <fix>3d</fix>
</trkpt>
<trkpt lat="-27.274439" lon="151.290064">
  <ele>343.1</ele>
  <time>2026-09-01T19:56:31Z</time>
  <course>270.0</course>
  <speed>0.0</speed>
  <fix>3d</fix>
</trkpt>
<trkpt lat="-27.274439" lon="151.290064">
  <ele>342.94</ele>
  <time>2026-09-01T19:56:31Z</time>
  <course>10.79</course>
  <speed>0.0</speed>
  <fix>3d</fix>
</trkpt>
<trkpt lat="-27.274439" lon="151.290064">
  <ele>343.1</ele>
  <time>2026-09-01T19:56:31Z</time>
  <course>270.0</course>
  <speed>0.0</speed>
  <fix>3d</fix>
</trkpt>
<trkpt lat="-27.274439" lon="151.290064">
  <ele>343.25</ele>
  <time>2026-09-01T19:56:31Z</time>
  <course>10.79</course>
  <speed>0.0</speed>
  <fix>3d</fix>
</trkpt>
<trkpt lat="-27.274439" lon="151.290064">
  <ele>343.1</ele>
  <time>2026-09-01T19:56:31Z</time>
  <course>270.0</course>
  <speed>0.0</speed>
  <fix>3d</fix>
</trkpt>
<trkpt lat="-27.274439" lon="151.290064">
  <ele>342.93</ele>
  <time>2026-09-01T19:56:31Z</time>
  <course>10.79</course>
  <speed>0.0</speed>
  <fix>3d</fix>
</trkpt>
<trkpt lat="-27.274439" lon="151.290064">
  <ele>343.1</ele>
  <time>2026-09-01T19:56:31Z</time>
  <course>270.0</course>
  <speed>0.0</speed>
  <fix>3d</fix>
</trkpt>
<trkpt lat="-27.274439" lon="151.290064">
  <ele>343.08</ele>
  <time>2026-09-01T19:56:31Z</time>
  <course>10.79</course>
  <speed>0.0</speed>
  <fix>3d</fix>
</trkpt>
<trkpt lat="-27.274439" lon="151.290064">
  <ele>343.1</ele>
  <time>2026-09-01T19:56:31Z</time>
  <course>270.0</course>
  <speed>0.0</speed>
  <fix>3d</fix>
</trkpt>
<trkpt lat="-27.274439" lon="151.290064">
  <ele>343.23</ele>
  <time>2026-09-01T19:56:31Z</time>
  <course>10.8</course>
  <speed>0.0</speed>
  <fix>3d</fix>
</trkpt>
<trkpt lat="-27.274439" lon="151.290064">
  <ele>343.1</ele>
  <time>2026-09-01T19:56:31Z</time>
  <course>270.0</course>
  <speed>0.0</speed>
  <fix>3d</fix>
</trkpt>
<trkpt lat="-27.274439" lon="151.290064">
  <ele>343.01</ele>
  <time>2026-09-01T19:56:31Z</time>
  <course>10.8</course>
  <speed>0.0</speed>
  <fix>3d</fix>
</trkpt>
<trkpt lat="-27.274439" lon="151.290064">
  <ele>343.1</ele>
  <time>2026-09-01T19:56:31Z</time>
  <course>270.0</course>
  <speed>0.0</speed>
  <fix>3d</fix>
</trkpt>
<trkpt lat="-27.274439" lon="151.290064">
  <ele>343.1</ele>
  <time>2026-09-01T19:56:31Z</time>
  <course>10.8</course>
  <speed>0.0</speed>
  <fix>3d</fix>
</trkpt>
<trkpt lat="-27.274439" lon="151.290064">
  <ele>343.1</ele>
  <time>2026-09-01T19:56:31Z</time>
  <course>270.0</course>
  <speed>0.0</speed>
  <fix>3d</fix>
</trkpt>
<trkpt lat="-27.274439" lon="151.290064">
  <ele>342.99</ele>
  <time>2026-09-01T19:56:31Z</time>
  <course>10.8</course>
  <speed>0.0</speed>
  <fix>3d</fix>
</trkpt>
<trkpt lat="-27.274439" lon="151.290064">
  <ele>343.1</ele>
  <time>2026-09-01T19:56:31Z</time>
  <course>270.0</course>
  <speed>0.0</speed>
  <fix>3d</fix>
</trkpt>
<trkpt lat="-27.274439" lon="151.290064">
  <ele>342.87</ele>
  <time>2026-09-01T19:56:31Z</time>
  <course>10.8</course>
  <speed>0.0</speed>
  <fix>3d</fix>
</trkpt>
<trkpt lat="-27.274439" lon="151.290064">
  <ele>343.1</ele>
  <time>2026-09-01T19:56:31Z</time>
  <course>270.0</course>
  <speed>0.0</speed>
  <fix>3d</fix>
</trkpt>
<trkpt lat="-27.274439" lon="151.290064">
  <ele>343.1</ele>
  <time>2026-09-01T19:56:31Z</time>
  <course>10.8</course>
  <speed>0.0</speed>
  <fix>3d</fix>
</trkpt>
<trkpt lat="-27.274439" lon="151.290064">
  <ele>343.1</ele>
  <time>2026-09-01T19:56:31Z</time>
  <course>270.0</course>
  <speed>0.0</speed>
  <fix>3d</fix>
</trkpt>
<trkpt lat="-27.274439" lon="151.290064">
  <ele>342.99</ele>
  <time>2026-09-01T19:56:31Z</time>
  <course>10.8</course>
  <speed>0.0</speed>
  <fix>3d</fix>
</trkpt>
<trkpt lat="-27.274439" lon="151.290064">
  <ele>343.1</ele>
  <time>2026-09-01T19:56:31Z</time>
  <course>270.0</course>
  <speed>0.0</speed>
  <fix>3d</fix>
</trkpt>
<trkpt lat="-27.274439" lon="151.290064">
  <ele>342.91</ele>
  <time>2026-09-01T19:56:31Z</time>
  <course>10.8</course>
  <speed>0.0</speed>
  <fix>3d</fix>
</trkpt>
<trkpt lat="-27.274439" lon="151.290064">
  <ele>343.1</ele>
  <time>2026-09-01T19:56:31Z</time>
  <course>270.0</course>
  <speed>0.0</speed>
  <fix>3d</fix>
</trkpt>
<trkpt lat="-27.274439" lon="151.290064">
  <ele>342.9</ele>
  <time>2026-09-01T19:56:31Z</time>
  <course>10.8</course>
  <speed>0.0</speed>
  <fix>3d</fix>
</trkpt>
<trkpt lat="-27.274439" lon="151.290064">
  <ele>343.1</ele>
  <time>2026-09-01T19:56:31Z</time>
  <course>270.0</course>
  <speed>0.0</speed>
  <fix>3d</fix>
</trkpt>
<trkpt lat="-27.274439" lon="151.290064">
  <ele>342.87</ele>
  <time>2026-09-01T19:56:31Z</time>
  <course>10.8</course>
  <speed>0.0</speed>
  <fix>3d</fix>
</trkpt>
<trkpt lat="-27.274439" lon="151.290064">
  <ele>343.1</ele>
  <time>2026-09-01T19:56:31Z</time>
  <course>270.0</course>
  <speed>0.0</speed>
  <fix>3d</fix>
</trkpt>
<trkpt lat="-27.274439" lon="151.290064">
  <ele>343.12</ele>
  <time>2026-09-01T19:56:31Z</time>
  <course>10.8</course>
  <speed>0.0</speed>
  <fix>3d</fix>
</trkpt>
<trkpt lat="-27.274439" lon="151.290064">
  <ele>343.1</ele>
  <time>2026-09-01T19:56:31Z</time>
  <course>270.0</course>
  <speed>0.0</speed>
  <fix>3d</fix>
</trkpt>
<trkpt lat="-27.274439" lon="151.290064">
  <ele>342.99</ele>
  <time>2026-09-01T19:56:31Z</time>
  <course>10.8</course>
  <speed>0.0</speed>
  <fix>3d</fix>
</trkpt>
<trkpt lat="-27.274439" lon="151.290064">
  <ele>343.1</ele>
  <time>2026-09-01T19:56:31Z</time>
  <course>270.0</course>
  <speed>0.0</speed>
  <fix>3d</fix>
</trkpt>
<trkpt lat="-27.274439" lon="151.290064">
  <ele>343.13</ele>
  <time>2026-09-01T19:56:31Z</time>
  <course>10.8</course>
  <speed>0.0</speed>
  <fix>3d</fix>
</trkpt>
<trkpt lat="-27.274439" lon="151.290064">
  <ele>343.1</ele>
  <time>2026-09-01T19:56:31Z</time>
  <course>270.0</course>
  <speed>0.0</speed>
  <fix>3d</fix>
</trkpt>
<trkpt lat="-27.274439" lon="151.290064">
  <ele>343.0</ele>
  <time>2026-09-01T19:56:31Z</time>
  <course>10.8</course>
  <speed>0.0</speed>
  <fix>3d</fix>
</trkpt>
<trkpt lat="-27.274439" lon="151.290064">
  <ele>343.1</ele>
  <time>2026-09-01T19:56:31Z</time>
  <course>270.0</course>
  <speed>0.0</speed>
  <fix>3d</fix>
</trkpt>
<trkpt lat="-27.274439" lon="151.290064">
  <ele>343.17</ele>
  <time>2026-09-01T19:56:31Z</time>
  <course>10.8</course>
  <speed>0.0</speed>
  <fix>3d</fix>
</trkpt>
<trkpt lat="-27.274439" lon="151.290064">
  <ele>343.1</ele>
  <time>2026-09-01T19:56:31Z</time>
  <course>270.0</course>
  <speed>0.0</speed>
  <fix>3d</fix>
</trkpt>
<trkpt lat="-27.274439" lon="151.290064">
  <ele>343.0</ele>
  <time>2026-09-01T19:56:31Z</time>
  <course>10.8</course>
  <speed>0.0</speed>
  <fix>3d</fix>
</trkpt>
<trkpt lat="-27.274439" lon="151.290064">
  <ele>343.1</ele>
  <time>2026-09-01T19:56:31Z</time>
  <course>270.0</course>
  <speed>0.0</speed>
  <fix>3d</fix>
</trkpt>
<trkpt lat="-27.274439" lon="151.290064">
  <ele>342.99</ele>
  <time>2026-09-01T19:56:31Z</time>
  <course>10.8</course>
  <speed>0.0</speed>
  <fix>3d</fix>
</trkpt>
<trkpt lat="-27.274439" lon="151.290064">
  <ele>343.1</ele>
  <time>2026-09-01T19:56:31Z</time>
  <course>270.0</course>
  <speed>0.0</speed>
  <fix>3d</fix>
</trkpt>
<trkpt lat="-27.274439" lon="151.290064">
  <ele>343.17</ele>
  <time>2026-09-01T19:56:31Z</time>
  <course>10.8</course>
  <speed>0.0</speed>
  <fix>3d</fix>
</trkpt>
<trkpt lat="-27.274439" lon="151.290064">
  <ele>343.1</ele>
  <time>2026-09-01T19:56:31Z</time>
  <course>270.0</course>
  <speed>0.0</speed>
  <fix>3d</fix>
</trkpt>
<trkpt lat="-27.274439" lon="151.290064">
  <ele>343.16</ele>
  <time>2026-09-01T19:56:31Z</time>
  <course>10.8</course>
  <speed>0.0</speed>
  <fix>3d</fix>
</trkpt>
<trkpt lat="-27.274439" lon="151.290064">
  <ele>343.1</ele>
  <time>2026-09-01T19:56:31Z</time>
  <course>270.0</course>
  <speed>0.0</speed>
  <fix>3d</fix>
</trkpt>
<trkpt lat="-27.274439" lon="151.290064">
  <ele>342.87</ele>
  <time>2026-09-01T19:56:31Z</time>
  <course>10.8</course>
  <speed>0.0</speed>
  <fix>3d</fix>
</trkpt>
<trkpt lat="-27.274439" lon="151.290064">
  <ele>343.1</ele>
  <time>2026-09-01T19:56:31Z</time>
  <course>270.0</course>
  <speed>0.0</speed>
  <fix>3d</fix>
</trkpt>
<trkpt lat="-27.274439" lon="151.290064">
  <ele>343.19</ele>
  <time>2026-09-01T19:56:31Z</time>
  <course>10.8</course>
  <speed>0.0</speed>
  <fix>3d</fix>
</trkpt>
<trkpt lat="-27.274439" lon="151.290064">
  <ele>343.1</ele>
  <time>2026-09-01T19:56:31Z</time>
  <course>270.0</course>
  <speed>0.0</speed>
  <fix>3d</fix>
</trkpt>
<trkpt lat="-27.274439" lon="151.290064">
  <ele>343.16</ele>
  <time>2026-09-01T19:56:31Z</time>
  <course>10.8</course>
  <speed>0.0</speed>
  <fix>3d</fix>
</trkpt>
<trkpt lat="-27.274439" lon="151.290064">
  <ele>343.1</ele>
  <time>2026-09-01T19:56:31Z</time>
  <course>270.0</course>
  <speed>0.0</speed>
  <fix>3d</fix>
</trkpt>
<trkpt lat="-27.274439" lon="151.290064">
  <ele>343.21</ele>
  <time>2026-09-01T19:56:31Z</time>
  <course>10.8</course>
  <speed>0.0</speed>
  <fix>3d</fix>
</trkpt>
<trkpt lat="-27.274439" lon="151.290064">
  <ele>343.1</ele>
  <time>2026-09-01T19:56:31Z</time>
  <course>270.0</course>
  <speed>0.0</speed>
  <fix>3d</fix>
</trkpt>
<trkpt lat="-27.274439" lon="151.290064">
  <ele>343.22</ele>
  <time>2026-09-01T19:56:31Z</time>
  <course>10.8</course>
  <speed>0.0</speed>
  <fix>3d</fix>
</trkpt>
<trkpt lat="-27.274439" lon="151.290064">
  <ele>343.1</ele>
  <time>2026-09-01T19:56:31Z</time>
  <course>270.0</course>
  <speed>0.0</speed>
  <fix>3d</fix>
</trkpt>
<trkpt lat="-27.274439" lon="151.290064">
  <ele>343.24</ele>
  <time>2026-09-01T19:56:31Z</time>
  <course>10.8</course>
  <speed>0.0</speed>
  <fix>3d</fix>
</trkpt>
<trkpt lat="-27.274439" lon="151.290064">
  <ele>343.1</ele>
  <time>2026-09-01T19:56:31Z</time>
  <course>270.0</course>
  <speed>0.0</speed>
  <fix>3d</fix>
</trkpt>
<trkpt lat="-27.274439" lon="151.290064">
  <ele>343.0</ele>
  <time>2026-09-01T19:56:31Z</time>
  <course>10.8</course>
  <speed>0.0</speed>
  <fix>3d</fix>
</trkpt>
<trkpt lat="-27.274439" lon="151.290064">
  <ele>343.1</ele>
  <time>2026-09-01T19:56:31Z</time>
  <course>270.0</course>
  <speed>0.0</speed>
  <fix>3d</fix>
</trkpt>
<trkpt lat="-27.274439" lon="151.290064">
  <ele>343.1</ele>
  <time>2026-09-01T19:56:31Z</time>
  <course>10.8</course>
  <speed>0.0</speed>
  <fix>3d</fix>
</trkpt>
<trkpt lat="-27.274439" lon="151.290064">
  <ele>343.1</ele>
  <time>2026-09-01T19:56:31Z</time>
  <course>270.0</course>
  <speed>0.0</speed>
  <fix>3d</fix>
</trkpt>
<trkpt lat="-27.274439" lon="151.290064">
  <ele>343.05</ele>
  <time>2026-09-01T19:56:31Z</time>
  <course>10.8</course>
  <speed>0.0</speed>
  <fix>3d</fix>
</trkpt>
<trkpt lat="-27.274439" lon="151.290064">
  <ele>343.1</ele>
  <time>2026-09-01T19:56:31Z</time>
  <course>270.0</course>
  <speed>0.0</speed>
  <fix>3d</fix>
</trkpt>
<trkpt lat="-27.274439" lon="151.290064">
  <ele>342.87</ele>
  <time>2026-09-01T19:56:31Z</time>
  <course>10.8</course>
  <speed>0.0</speed>
  <fix>3d</fix>
</trkpt>
<trkpt lat="-27.274439" lon="151.290064">
  <ele>343.1</ele>
  <time>2026-09-01T19:56:31Z</time>
  <course>270.0</course>
  <speed>0.0</speed>
  <fix>3d</fix>
</trkpt>
<trkpt lat="-27.274439" lon="151.290064">
  <ele>342.92</ele>
  <time>2026-09-01T19:56:31Z</time>
  <course>10.8</course>
  <speed>0.0</speed>
  <fix>3d</fix>
</trkpt>
<trkpt lat="-27.274439" lon="151.290064">
  <ele>343.1</ele>
  <time>2026-09-01T19:56:31Z</time>
  <course>270.0</course>
  <speed>0.0</speed>
  <fix>3d</fix>
</trkpt>
<trkpt lat="-27.274439" lon="151.290064">
  <ele>342.96</ele>
  <time>2026-09-01T19:56:31Z</time>
  <course>10.8</course>
  <speed>0.0</speed>
  <fix>3d</fix>
</trkpt>
<trkpt lat="-27.274439" lon="151.290064">
  <ele>343.1</ele>
  <time>2026-09-01T19:56:31Z</time>
  <course>270.0</course>
  <speed>0.0</speed>
  <fix>3d</fix>
</trkpt>
<trkpt lat="-27.274439" lon="151.290064">
  <ele>343.15</ele>
  <time>2026-09-01T19:56:31Z</time>
  <course>10.8</course>
  <speed>0.0</speed>
  <fix>3d</fix>
</trkpt>
<trkpt lat="-27.274439" lon="151.290064">
  <ele>343.1</ele>
  <time>2026-09-01T19:56:31Z</time>
  <course>270.0</course>
  <speed>0.0</speed>
  <fix>3d</fix>
</trkpt>
<trkpt lat="-27.274439" lon="151.290064">
  <ele>343.16</ele>
  <time>2026-09-01T19:56:31Z</time>
  <course>10.8</course>
  <speed>0.0</speed>
  <fix>3d</fix>
</trkpt>
<trkpt lat="-27.274439" lon="151.290064">
  <ele>343.1</ele>
  <time>2026-09-01T19:56:31Z</time>
  <course>270.0</course>
  <speed>0.0</speed>
  <fix>3d</fix>
</trkpt>
<trkpt lat="-27.274439" lon="151.290064">
  <ele>343.2</ele>
  <time>2026-09-01T19:56:31Z</time>
  <course>10.81</course>
  <speed>0.0</speed>
  <fix>3d</fix>
</trkpt>
<trkpt lat="-27.274439" lon="151.290064">
  <ele>343.1</ele>
  <time>2026-09-01T19:56:31Z</time>
  <course>270.0</course>
  <speed>0.0</speed>
  <fix>3d</fix>
</trkpt>
<trkpt lat="-27.274439" lon="151.290064">
  <ele>343.13</ele>
  <time>2026-09-01T19:56:31Z</time>
  <course>10.82</course>
  <speed>0.0</speed>
  <fix>3d</fix>
</trkpt>
<trkpt lat="-27.274439" lon="151.290064">
  <ele>343.1</ele>
  <time>2026-09-01T19:56:31Z</time>
  <course>270.0</course>
  <speed>0.0</speed>
  <fix>3d</fix>
</trkpt>
<trkpt lat="-27.274439" lon="151.290064">
  <ele>343.09</ele>
  <time>2026-09-01T19:56:31Z</time>
  <course>10.71</course>
  <speed>0.0</speed>
  <fix>3d</fix>
</trkpt>
<trkpt lat="-27.274439" lon="151.290064">
  <ele>343.1</ele>
  <time>2026-09-01T19:56:31Z</time>
  <course>270.0</course>
  <speed>0.0</speed>
  <fix>3d</fix>
</trkpt>
<trkpt lat="-27.274439" lon="151.290064">
  <ele>343.09</ele>
  <time>2026-09-01T19:56:31Z</time>
  <course>10.71</course>
  <speed>0.0</speed>
  <fix>3d</fix>
</trkpt>
<trkpt lat="-27.274439" lon="151.290064">
  <ele>343.1</ele>
  <time>2026-09-01T19:56:31Z</time>
  <course>270.0</course>
  <speed>0.0</speed>
  <fix>3d</fix>
</trkpt>
<trkpt lat="-27.274439" lon="151.290064">
  <ele>343.1</ele>
  <time>2026-09-01T19:56:31Z</time>
  <course>10.71</course>
  <speed>0.0</speed>
  <fix>3d</fix>
</trkpt>
<trkpt lat="-27.274439" lon="151.290064">
  <ele>343.1</ele>
  <time>2026-09-01T19:56:31Z</time>
  <course>270.0</course>
  <speed>0.0</speed>
  <fix>3d</fix>
</trkpt>
<trkpt lat="-27.274439" lon="151.290064">
  <ele>343.1</ele>
  <time>2026-09-01T19:56:31Z</time>
  <course>10.71</course>
  <speed>0.0</speed>
  <fix>3d</fix>
</trkpt>
<trkpt lat="-27.274439" lon="151.290064">
  <ele>343.1</ele>
  <time>2026-09-01T19:56:31Z</time>
  <course>270.0</course>
  <speed>0.0</speed>
  <fix>3d</fix>
</trkpt>
<trkpt lat="-27.274439" lon="151.290064">
  <ele>343.1</ele>
  <time>2026-09-01T19:56:31Z</time>
  <course>10.71</course>
  <speed>0.0</speed>
  <fix>3d</fix>
</trkpt>
<trkpt lat="-27.274439" lon="151.290064">
  <ele>343.1</ele>
  <time>2026-09-01T19:56:31Z</time>
  <course>270.0</course>
  <speed>0.0</speed>
  <fix>3d</fix>
</trkpt>
<trkpt lat="-27.274439" lon="151.290064">
  <ele>343.1</ele>
  <time>2026-09-01T19:56:31Z</time>
  <course>10.71</course>
  <speed>0.0</speed>
  <fix>3d</fix>
</trkpt>
<trkpt lat="-27.274439" lon="151.290064">
  <ele>343.1</ele>
  <time>2026-09-01T19:56:31Z</time>
  <course>270.0</course>
  <speed>0.0</speed>
  <fix>3d</fix>
</trkpt>
<trkpt lat="-27.274439" lon="151.290064">
  <ele>343.1</ele>
  <time>2026-09-01T19:56:31Z</time>
  <course>10.71</course>
  <speed>0.0</speed>
  <fix>3d</fix>
</trkpt>
<trkpt lat="-27.274439" lon="151.290064">
  <ele>343.1</ele>
  <time>2026-09-01T19:56:31Z</time>
  <course>270.0</course>
  <speed>0.0</speed>
  <fix>3d</fix>
</trkpt>
<trkpt lat="-27.274439" lon="151.290064">
  <ele>343.11</ele>
  <time>2026-09-01T19:56:31Z</time>
  <course>10.71</course>
  <speed>0.0</speed>
  <fix>3d</fix>
</trkpt>
<trkpt lat="-27.274439" lon="151.290064">
  <ele>343.1</ele>
  <time>2026-09-01T19:56:31Z</time>
  <course>270.0</course>
  <speed>0.0</speed>
  <fix>3d</fix>
</trkpt>
<trkpt lat="-27.274439" lon="151.290064">
  <ele>343.11</ele>
  <time>2026-09-01T19:56:31Z</time>
  <course>10.71</course>
  <speed>0.0</speed>
  <fix>3d</fix>
</trkpt>
<trkpt lat="-27.274439" lon="151.290064">
  <ele>343.1</ele>
  <time>2026-09-01T19:56:31Z</time>
  <course>270.0</course>
  <speed>0.0</speed>
  <fix>3d</fix>
</trkpt>
<trkpt lat="-27.274439" lon="151.290064">
  <ele>343.11</ele>
  <time>2026-09-01T19:56:31Z</time>
  <course>10.71</course>
  <speed>0.0</speed>
  <fix>3d</fix>
</trkpt>
<trkpt lat="-27.274439" lon="151.290064">
  <ele>343.1</ele>
  <time>2026-09-01T19:56:31Z</time>
  <course>270.0</course>
  <speed>0.0</speed>
  <fix>3d</fix>
</trkpt>
<trkpt lat="-27.274439" lon="151.290064">
  <ele>343.12</ele>
  <time>2026-09-01T19:56:31Z</time>
  <course>10.71</course>
  <speed>0.0</speed>
  <fix>3d</fix>
</trkpt>
<trkpt lat="-27.274439" lon="151.290064">
  <ele>343.1</ele>
  <time>2026-09-01T19:56:31Z</time>
  <course>270.0</course>
  <speed>0.0</speed>
  <fix>3d</fix>
</trkpt>
<trkpt lat="-27.274439" lon="151.290064">
  <ele>343.12</ele>
  <time>2026-09-01T19:56:31Z</time>
  <course>10.71</course>
  <speed>0.0</speed>
  <fix>3d</fix>
</trkpt>
<trkpt lat="-27.274439" lon="151.290064">
  <ele>343.1</ele>
  <time>2026-09-01T19:56:31Z</time>
  <course>270.0</course>
  <speed>0.0</speed>
  <fix>3d</fix>
</trkpt>
<trkpt lat="-27.274439" lon="151.290064">
  <ele>343.1</ele>
  <time>2026-09-01T19:56:31Z</time>
  <course>10.71</course>
  <speed>0.0</speed>
  <fix>3d</fix>
</trkpt>
<trkpt lat="-27.274439" lon="151.290064">
  <ele>343.1</ele>
  <time>2026-09-01T19:56:31Z</time>
  <course>270.0</course>
  <speed>0.0</speed>
  <fix>3d</fix>
</trkpt>
<trkpt lat="-27.274439" lon="151.290064">
  <ele>343.1</ele>
  <time>2026-09-01T19:56:31Z</time>
  <course>10.71</course>
  <speed>0.0</speed>
  <fix>3d</fix>
</trkpt>
<trkpt lat="-27.274439" lon="151.290064">
  <ele>343.1</ele>
  <time>2026-09-01T19:56:31Z</time>
  <course>270.0</course>
  <speed>0.0</speed>
  <fix>3d</fix>
</trkpt>
<trkpt lat="-27.274439" lon="151.290064">
  <ele>343.1</ele>
  <time>2026-09-01T19:56:31Z</time>
  <course>10.71</course>
  <speed>0.0</speed>
  <fix>3d</fix>
</trkpt>
<trkpt lat="-27.274439" lon="151.290064">
  <ele>343.1</ele>
  <time>2026-09-01T19:56:31Z</time>
  <course>270.0</course>
  <speed>0.0</speed>
  <fix>3d</fix>
</trkpt>
<trkpt lat="-27.274439" lon="151.290064">
  <ele>343.09</ele>
  <time>2026-09-01T19:56:31Z</time>
  <course>10.71</course>
  <speed>0.0</speed>
  <fix>3d</fix>
</trkpt>
<trkpt lat="-27.274439" lon="151.290064">
  <ele>343.1</ele>
  <time>2026-09-01T19:56:31Z</time>
  <course>270.0</course>
  <speed>0.0</speed>
  <fix>3d</fix>
</trkpt>
<trkpt lat="-27.274439" lon="151.290064">
  <ele>343.09</ele>
  <time>2026-09-01T19:56:31Z</time>
  <course>10.71</course>
  <speed>0.0</speed>
  <fix>3d</fix>
</trkpt>
<trkpt lat="-27.274439" lon="151.290064">
  <ele>343.1</ele>
  <time>2026-09-01T19:56:31Z</time>
  <course>270.0</course>
  <speed>0.0</speed>
  <fix>3d</fix>
</trkpt>
<trkpt lat="-27.274439" lon="151.290064">
  <ele>343.09</ele>
  <time>2026-09-01T19:56:31Z</time>
  <course>10.71</course>
  <speed>0.0</speed>
  <fix>3d</fix>
</trkpt>
<trkpt lat="-27.274439" lon="151.290064">
  <ele>343.1</ele>
  <time>2026-09-01T19:56:31Z</time>
  <course>270.0</course>
  <speed>0.0</speed>
  <fix>3d</fix>
</trkpt>
<trkpt lat="-27.274439" lon="151.290064">
  <ele>343.1</ele>
  <time>2026-09-01T19:56:31Z</time>
  <course>10.71</course>
  <speed>0.0</speed>
  <fix>3d</fix>
</trkpt>
<trkpt lat="-27.274439" lon="151.290064">
  <ele>343.1</ele>
  <time>2026-09-01T19:56:31Z</time>
  <course>270.0</course>
  <speed>0.0</speed>
  <fix>3d</fix>
</trkpt>
<trkpt lat="-27.274439" lon="151.290064">
  <ele>343.1</ele>
  <time>2026-09-01T19:56:31Z</time>
  <course>10.71</course>
  <speed>0.0</speed>
  <fix>3d</fix>
</trkpt>
<trkpt lat="-27.274439" lon="151.290064">
  <ele>343.1</ele>
  <time>2026-09-01T19:56:31Z</time>
  <course>270.0</course>
  <speed>0.0</speed>
  <fix>3d</fix>
</trkpt>
<trkpt lat="-27.274439" lon="151.290064">
  <ele>343.1</ele>
  <time>2026-09-01T19:56:31Z</time>
  <course>10.71</course>
  <speed>0.0</speed>
  <fix>3d</fix>
</trkpt>
<trkpt lat="-27.274439" lon="151.290064">
  <ele>343.1</ele>
  <time>2026-09-01T19:56:31Z</time>
  <course>270.0</course>
  <speed>0.0</speed>
  <fix>3d</fix>
</trkpt>
<trkpt lat="-27.274439" lon="151.290064">
  <ele>343.1</ele>
  <time>2026-09-01T19:56:31Z</time>
  <course>10.71</course>
  <speed>0.0</speed>
  <fix>3d</fix>
</trkpt>
<trkpt lat="-27.274439" lon="151.290064">
  <ele>343.1</ele>
  <time>2026-09-01T19:56:31Z</time>
  <course>270.0</course>
  <speed>0.0</speed>
  <fix>3d</fix>
</trkpt>
<trkpt lat="-27.274439" lon="151.290064">
  <ele>343.1</ele>
  <time>2026-09-01T19:56:31Z</time>
  <course>10.71</course>
  <speed>0.0</speed>
  <fix>3d</fix>
</trkpt>
<trkpt lat="-27.274439" lon="151.290064">
  <ele>343.1</ele>
  <time>2026-09-01T19:56:31Z</time>
  <course>270.0</course>
  <speed>0.0</speed>
  <fix>3d</fix>
</trkpt>
<trkpt lat="-27.274439" lon="151.290064">
  <ele>343.11</ele>
  <time>2026-09-01T19:56:31Z</time>
  <course>10.71</course>
  <speed>0.0</speed>
  <fix>3d</fix>
</trkpt>
<trkpt lat="-27.274439" lon="151.290064">
  <ele>343.1</ele>
  <time>2026-09-01T19:56:31Z</time>
  <course>270.0</course>
  <speed>0.0</speed>
  <fix>3d</fix>
</trkpt>
<trkpt lat="-27.274439" lon="151.290064">
  <ele>343.11</ele>
  <time>2026-09-01T19:56:31Z</time>
  <course>10.71</course>
  <speed>0.0</speed>
  <fix>3d</fix>
</trkpt>
<trkpt lat="-27.274439" lon="151.290064">
  <ele>343.1</ele>
  <time>2026-09-01T19:56:31Z</time>
  <course>270.0</course>
  <speed>0.0</speed>
  <fix>3d</fix>
</trkpt>
<trkpt lat="-27.274439" lon="151.290064">
  <ele>343.12</ele>
  <time>2026-09-01T19:56:31Z</time>
  <course>10.71</course>
  <speed>0.0</speed>
  <fix>3d</fix>
</trkpt>
<trkpt lat="-27.274439" lon="151.290064">
  <ele>343.1</ele>
  <time>2026-09-01T19:56:31Z</time>
  <course>270.0</course>
  <speed>0.0</speed>
  <fix>3d</fix>
</trkpt>
<trkpt lat="-27.274439" lon="151.290064">
  <ele>343.12</ele>
  <time>2026-09-01T19:56:31Z</time>
  <course>10.71</course>
  <speed>0.0</speed>
  <fix>3d</fix>
</trkpt>
<trkpt lat="-27.274439" lon="151.290064">
  <ele>343.1</ele>
  <time>2026-09-01T19:56:31Z</time>
  <course>270.0</course>
  <speed>0.0</speed>
  <fix>3d</fix>
</trkpt>
<trkpt lat="-27.274439" lon="151.290064">
  <ele>343.13</ele>
  <time>2026-09-01T19:56:31Z</time>
  <course>10.71</course>
  <speed>0.0</speed>
  <fix>3d</fix>
</trkpt>
<trkpt lat="-27.274439" lon="151.290064">
  <ele>343.1</ele>
  <time>2026-09-01T19:56:31Z</time>
  <course>270.0</course>
  <speed>0.0</speed>
  <fix>3d</fix>
</trkpt>
<trkpt lat="-27.274439" lon="151.290064">
  <ele>343.14</ele>
  <time>2026-09-01T19:56:31Z</time>
  <course>10.71</course>
  <speed>0.0</speed>
  <fix>3d</fix>
</trkpt>
<trkpt lat="-27.274439" lon="151.290064">
  <ele>343.1</ele>
  <time>2026-09-01T19:56:31Z</time>
  <course>270.0</course>
  <speed>0.0</speed>
  <fix>3d</fix>
</trkpt>
<trkpt lat="-27.274439" lon="151.290064">
  <ele>343.14</ele>
  <time>2026-09-01T19:56:31Z</time>
  <course>10.71</course>
  <speed>0.0</speed>
  <fix>3d</fix>
</trkpt>
<trkpt lat="-27.274439" lon="151.290064">
  <ele>343.1</ele>
  <time>2026-09-01T19:56:31Z</time>
  <course>270.0</course>
  <speed>0.0</speed>
  <fix>3d</fix>
</trkpt>
<trkpt lat="-27.274439" lon="151.290064">
  <ele>343.15</ele>
  <time>2026-09-01T19:56:31Z</time>
  <course>10.71</course>
  <speed>0.0</speed>
  <fix>3d</fix>
</trkpt>
<trkpt lat="-27.274439" lon="151.290064">
  <ele>343.1</ele>
  <time>2026-09-01T19:56:31Z</time>
  <course>270.0</course>
  <speed>0.0</speed>
  <fix>3d</fix>
</trkpt>
<trkpt lat="-27.274439" lon="151.290064">
  <ele>343.16</ele>
  <time>2026-09-01T19:56:31Z</time>
  <course>10.71</course>
  <speed>0.0</speed>
  <fix>3d</fix>
</trkpt>
<trkpt lat="-27.274439" lon="151.290064">
  <ele>343.1</ele>
  <time>2026-09-01T19:56:31Z</time>
  <course>270.0</course>
  <speed>0.0</speed>
  <fix>3d</fix>
</trkpt>
<trkpt lat="-27.274439" lon="151.290064">
  <ele>343.17</ele>
  <time>2026-09-01T19:56:31Z</time>
  <course>10.71</course>
  <speed>0.0</speed>
  <fix>3d</fix>
</trkpt>
<trkpt lat="-27.274439" lon="151.290064">
  <ele>343.1</ele>
  <time>2026-09-01T19:56:31Z</time>
  <course>270.0</course>
  <speed>0.0</speed>
  <fix>3d</fix>
</trkpt>
<trkpt lat="-27.274439" lon="151.290064">
  <ele>343.17</ele>
  <time>2026-09-01T19:56:31Z</time>
  <course>10.71</course>
  <speed>0.0</speed>
  <fix>3d</fix>
</trkpt>
<trkpt lat="-27.274439" lon="151.290064">
  <ele>343.1</ele>
  <time>2026-09-01T19:56:31Z</time>
  <course>270.0</course>
  <speed>0.0</speed>
  <fix>3d</fix>
</trkpt>
<trkpt lat="-27.274439" lon="151.290064">
  <ele>343.18</ele>
  <time>2026-09-01T19:56:31Z</time>
  <course>10.71</course>
  <speed>0.0</speed>
  <fix>3d</fix>
</trkpt>
<trkpt lat="-27.274439" lon="151.290064">
  <ele>343.1</ele>
  <time>2026-09-01T19:56:31Z</time>
  <course>270.0</course>
  <speed>0.0</speed>
  <fix>3d</fix>
</trkpt>
<trkpt lat="-27.274439" lon="151.290064">
  <ele>343.19</ele>
  <time>2026-09-01T19:56:31Z</time>
  <course>10.71</course>
  <speed>0.0</speed>
  <fix>3d</fix>
</trkpt>
<trkpt lat="-27.274439" lon="151.290064">
  <ele>343.1</ele>
  <time>2026-09-01T19:56:31Z</time>
  <course>270.0</course>
  <speed>0.0</speed>
  <fix>3d</fix>
</trkpt>
<trkpt lat="-27.274439" lon="151.290064">
  <ele>343.19</ele>
  <time>2026-09-01T19:56:31Z</time>
  <course>10.71</course>
  <speed>0.0</speed>
  <fix>3d</fix>
</trkpt>
<trkpt lat="-27.274439" lon="151.290064">
  <ele>343.1</ele>
  <time>2026-09-01T19:56:31Z</time>
  <course>270.0</course>
  <speed>0.0</speed>
  <fix>3d</fix>
</trkpt>
<trkpt lat="-27.274439" lon="151.290064">
  <ele>343.2</ele>
  <time>2026-09-01T19:56:31Z</time>
  <course>10.71</course>
  <speed>0.0</speed>
  <fix>3d</fix>
</trkpt>
<trkpt lat="-27.274439" lon="151.290064">
  <ele>343.1</ele>
  <time>2026-09-01T19:56:31Z</time>
  <course>270.0</course>
  <speed>0.0</speed>
  <fix>3d</fix>
</trkpt>
<trkpt lat="-27.274439" lon="151.290064">
  <ele>343.2</ele>
  <time>2026-09-01T19:56:31Z</time>
  <course>10.71</course>
  <speed>0.0</speed>
  <fix>3d</fix>
</trkpt>
<trkpt lat="-27.274439" lon="151.290064">
  <ele>343.1</ele>
  <time>2026-09-01T19:56:31Z</time>
  <course>270.0</course>
  <speed>0.0</speed>
  <fix>3d</fix>
</trkpt>
<trkpt lat="-27.274439" lon="151.290064">
  <ele>343.21</ele>
  <time>2026-09-01T19:56:31Z</time>
  <course>10.71</course>
  <speed>0.0</speed>
  <fix>3d</fix>
</trkpt>
<trkpt lat="-27.274439" lon="151.290064">
  <ele>343.1</ele>
  <time>2026-09-01T19:56:31Z</time>
  <course>270.0</course>
  <speed>0.0</speed>
  <fix>3d</fix>
</trkpt>
<trkpt lat="-27.274439" lon="151.290064">
  <ele>343.21</ele>
  <time>2026-09-01T19:56:31Z</time>
  <course>10.71</course>
  <speed>0.0</speed>
  <fix>3d</fix>
</trkpt>
<trkpt lat="-27.274439" lon="151.290064">
  <ele>343.1</ele>
  <time>2026-09-01T19:56:31Z</time>
  <course>270.0</course>
  <speed>0.0</speed>
  <fix>3d</fix>
</trkpt>
<trkpt lat="-27.274439" lon="151.290064">
  <ele>343.22</ele>
  <time>2026-09-01T19:56:31Z</time>
  <course>10.71</course>
  <speed>0.0</speed>
  <fix>3d</fix>
</trkpt>
<trkpt lat="-27.274439" lon="151.290064">
  <ele>343.1</ele>
  <time>2026-09-01T19:56:31Z</time>
  <course>270.0</course>
  <speed>0.0</speed>
  <fix>3d</fix>
</trkpt>
<trkpt lat="-27.274439" lon="151.290064">
  <ele>343.23</ele>
  <time>2026-09-01T19:56:31Z</time>
  <course>10.71</course>
  <speed>0.0</speed>
  <fix>3d</fix>
</trkpt>
<trkpt lat="-27.274439" lon="151.290064">
  <ele>343.1</ele>
  <time>2026-09-01T19:56:31Z</time>
  <course>270.0</course>
  <speed>0.0</speed>
  <fix>3d</fix>
</trkpt>
<trkpt lat="-27.274439" lon="151.290064">
  <ele>343.23</ele>
  <time>2026-09-01T19:56:31Z</time>
  <course>10.71</course>
  <speed>0.0</speed>
  <fix>3d</fix>
</trkpt>
<trkpt lat="-27.274439" lon="151.290064">
  <ele>343.1</ele>
  <time>2026-09-01T19:56:31Z</time>
  <course>270.0</course>
  <speed>0.0</speed>
  <fix>3d</fix>
</trkpt>
<trkpt lat="-27.274439" lon="151.290064">
  <ele>343.24</ele>
  <time>2026-09-01T19:56:31Z</time>
  <course>10.71</course>
  <speed>0.0</speed>
  <fix>3d</fix>
</trkpt>
<trkpt lat="-27.274439" lon="151.290064">
  <ele>343.1</ele>
  <time>2026-09-01T19:56:31Z</time>
  <course>270.0</course>
  <speed>0.0</speed>
  <fix>3d</fix>
</trkpt>
<trkpt lat="-27.274439" lon="151.290064">
  <ele>343.24</ele>
  <time>2026-09-01T19:56:31Z</time>
  <course>10.71</course>
  <speed>0.0</speed>
  <fix>3d</fix>
</trkpt>
<trkpt lat="-27.274439" lon="151.290064">
  <ele>343.1</ele>
  <time>2026-09-01T19:56:31Z</time>
  <course>270.0</course>
  <speed>0.0</speed>
  <fix>3d</fix>
</trkpt>
<trkpt lat="-27.274439" lon="151.290064">
  <ele>343.24</ele>
  <time>2026-09-01T19:56:31Z</time>
  <course>10.71</course>
  <speed>0.0</speed>
  <fix>3d</fix>
</trkpt>
<trkpt lat="-27.274439" lon="151.290064">
  <ele>343.1</ele>
  <time>2026-09-01T19:56:31Z</time>
  <course>270.0</course>
  <speed>0.0</speed>
  <fix>3d</fix>
</trkpt>
<trkpt lat="-27.274439" lon="151.290064">
  <ele>343.24</ele>
  <time>2026-09-01T19:56:31Z</time>
  <course>10.71</course>
  <speed>0.0</speed>
  <fix>3d</fix>
</trkpt>
<trkpt lat="-27.274439" lon="151.290064">
  <ele>343.1</ele>
  <time>2026-09-01T19:56:31Z</time>
  <course>270.0</course>
  <speed>0.0</speed>
  <fix>3d</fix>
</trkpt>
<trkpt lat="-27.274439" lon="151.290064">
  <ele>343.25</ele>
  <time>2026-09-01T19:56:31Z</time>
  <course>10.71</course>
  <speed>0.0</speed>
  <fix>3d</fix>
</trkpt>
<trkpt lat="-27.274439" lon="151.290064">
  <ele>343.1</ele>
  <time>2026-09-01T19:56:31Z</time>
  <course>270.0</course>
  <speed>0.0</speed>
  <fix>3d</fix>
</trkpt>
<trkpt lat="-27.274439" lon="151.290064">
  <ele>343.25</ele>
  <time>2026-09-01T19:56:31Z</time>
  <course>10.71</course>
  <speed>0.0</speed>
  <fix>3d</fix>
</trkpt>
<trkpt lat="-27.274439" lon="151.290064">
  <ele>343.1</ele>
  <time>2026-09-01T19:56:31Z</time>
  <course>270.0</course>
  <speed>0.0</speed>
  <fix>3d</fix>
</trkpt>
<trkpt lat="-27.274439" lon="151.290064">
  <ele>343.25</ele>
  <time>2026-09-01T19:56:31Z</time>
  <course>10.71</course>
  <speed>0.0</speed>
  <fix>3d</fix>
</trkpt>
<trkpt lat="-27.274439" lon="151.290064">
  <ele>343.1</ele>
  <time>2026-09-01T19:56:31Z</time>
  <course>270.0</course>
  <speed>0.0</speed>
  <fix>3d</fix>
</trkpt>
<trkpt lat="-27.274439" lon="151.290064">
  <ele>343.25</ele>
  <time>2026-09-01T19:56:31Z</time>
  <course>10.71</course>
  <speed>0.0</speed>
  <fix>3d</fix>
</trkpt>
<trkpt lat="-27.274439" lon="151.290064">
  <ele>343.1</ele>
  <time>2026-09-01T19:56:31Z</time>
  <course>270.0</course>
  <speed>0.0</speed>
  <fix>3d</fix>
</trkpt>
<trkpt lat="-27.274439" lon="151.290064">
  <ele>343.25</ele>
  <time>2026-09-01T19:56:31Z</time>
  <course>10.71</course>
  <speed>0.0</speed>
  <fix>3d</fix>
</trkpt>
<trkpt lat="-27.274439" lon="151.290064">
  <ele>343.1</ele>
  <time>2026-09-01T19:56:31Z</time>
  <course>114.88</course>
  <speed>0.0</speed>
  <fix>3d</fix>
</trkpt>
<trkpt lat="-27.274439" lon="151.290064">
  <ele>343.25</ele>
  <time>2026-09-01T19:56:31Z</time>
  <course>10.71</course>
  <speed>0.0</speed>
  <fix>3d</fix>
</trkpt>
<trkpt lat="-27.274439" lon="151.290064">
  <ele>343.26</ele>
  <time>2026-09-01T19:56:31Z</time>
  <course>10.71</course>
  <speed>0.0</speed>
  <fix>3d</fix>
</trkpt>
<trkpt lat="-27.274439" lon="151.290064">
  <ele>343.1</ele>
  <time>2026-09-01T19:56:31Z</time>
  <course>114.88</course>
  <speed>0.0</speed>
  <fix>3d</fix>
</trkpt>
<trkpt lat="-27.274439" lon="151.290064">
  <ele>343.26</ele>
  <time>2026-09-01T19:56:31Z</time>
  <course>10.71</course>
  <speed>0.0</speed>
  <fix>3d</fix>
</trkpt>
<trkpt lat="-27.274439" lon="151.290064">
  <ele>343.26</ele>
  <time>2026-09-01T19:56:31Z</time>
  <course>10.71</course>
  <speed>0.0</speed>
  <fix>3d</fix>
</trkpt>
<trkpt lat="-27.274439" lon="151.290064">
  <ele>343.1</ele>
  <time>2026-09-01T19:56:31Z</time>
  <course>126.72</course>
  <speed>0.0</speed>
  <fix>3d</fix>
</trkpt>
<trkpt lat="-27.274439" lon="151.290064">
  <ele>343.26</ele>
  <time>2026-09-01T19:56:31Z</time>
  <course>10.71</course>
  <speed>0.0</speed>
  <fix>3d</fix>
</trkpt>
<trkpt lat="-27.274439" lon="151.290064">
  <ele>343.26</ele>
  <time>2026-09-01T19:56:31Z</time>
  <course>10.71</course>
  <speed>0.0</speed>
  <fix>3d</fix>
</trkpt>
<trkpt lat="-27.274439" lon="151.290064">
  <ele>343.1</ele>
  <time>2026-09-01T19:56:31Z</time>
  <course>126.72</course>
  <speed>0.0</speed>
  <fix>3d</fix>
</trkpt>
<trkpt lat="-27.274439" lon="151.290064">
  <ele>343.26</ele>
  <time>2026-09-01T19:56:31Z</time>
  <course>10.71</course>
  <speed>0.0</speed>
  <fix>3d</fix>
</trkpt>
<trkpt lat="-27.274439" lon="151.290064">
  <ele>343.26</ele>
  <time>2026-09-01T19:56:31Z</time>
  <course>10.71</course>
  <speed>0.0</speed>
  <fix>3d</fix>
</trkpt>
<trkpt lat="-27.274439" lon="151.290064">
  <ele>343.1</ele>
  <time>2026-09-01T19:56:31Z</time>
  <course>246.01</course>
  <speed>0.0</speed>
  <fix>3d</fix>
</trkpt>
<trkpt lat="-27.274439" lon="151.290064">
  <ele>343.26</ele>
  <time>2026-09-01T19:56:31Z</time>
  <course>10.71</course>
  <speed>0.0</speed>
  <fix>3d</fix>
</trkpt>
<trkpt lat="-27.274439" lon="151.290064">
  <ele>343.26</ele>
  <time>2026-09-01T19:56:31Z</time>
  <course>10.71</course>
  <speed>0.0</speed>
  <fix>3d</fix>
</trkpt>
<trkpt lat="-27.274439" lon="151.290064">
  <ele>343.1</ele>
  <time>2026-09-01T19:56:31Z</time>
  <course>246.01</course>
  <speed>0.0</speed>
  <fix>3d</fix>
</trkpt>
<trkpt lat="-27.274439" lon="151.290064">
  <ele>343.26</ele>
  <time>2026-09-01T19:56:31Z</time>
  <course>10.71</course>
  <speed>0.0</speed>
  <fix>3d</fix>
</trkpt>
<trkpt lat="-27.274439" lon="151.290064">
  <ele>343.26</ele>
  <time>2026-09-01T19:56:31Z</time>
  <course>10.71</course>
  <speed>0.0</speed>
  <fix>3d</fix>
</trkpt>
<trkpt lat="-27.274439" lon="151.290064">
  <ele>343.1</ele>
  <time>2026-09-01T19:56:31Z</time>
  <course>264.57</course>
  <speed>0.0</speed>
  <fix>3d</fix>
</trkpt>
<trkpt lat="-27.274439" lon="151.290064">
  <ele>343.26</ele>
  <time>2026-09-01T19:56:31Z</time>
  <course>10.71</course>
  <speed>0.0</speed>
  <fix>3d</fix>
</trkpt>
<trkpt lat="-27.274439" lon="151.290064">
  <ele>343.26</ele>
  <time>2026-09-01T19:56:31Z</time>
  <course>10.71</course>
  <speed>0.0</speed>
  <fix>3d</fix>
</trkpt>
<trkpt lat="-27.274439" lon="151.290064">
  <ele>343.1</ele>
  <time>2026-09-01T19:56:31Z</time>
  <course>264.57</course>
  <speed>0.0</speed>
  <fix>3d</fix>
</trkpt>
<trkpt lat="-27.274439" lon="151.290064">
  <ele>343.26</ele>
  <time>2026-09-01T19:56:31Z</time>
  <course>10.71</course>
  <speed>0.0</speed>
  <fix>3d</fix>
</trkpt>
<trkpt lat="-27.274439" lon="151.290064">
  <ele>343.27</ele>
  <time>2026-09-01T19:56:31Z</time>
  <course>10.71</course>
  <speed>0.0</speed>
  <fix>3d</fix>
</trkpt>
<trkpt lat="-27.274439" lon="151.290064">
  <ele>343.1</ele>
  <time>2026-09-01T19:56:31Z</time>
  <course>304.38</course>
  <speed>0.0</speed>
  <fix>3d</fix>
</trkpt>
<trkpt lat="-27.274439" lon="151.290064">
  <ele>343.27</ele>
  <time>2026-09-01T19:56:31Z</time>
  <course>10.71</course>
  <speed>0.0</speed>
  <fix>3d</fix>
</trkpt>
<trkpt lat="-27.274439" lon="151.290064">
  <ele>343.28</ele>
  <time>2026-09-01T19:56:31Z</time>
  <course>10.71</course>
  <speed>0.0</speed>
  <fix>3d</fix>
</trkpt>
<trkpt lat="-27.274439" lon="151.290064">
  <ele>343.1</ele>
  <time>2026-09-01T19:56:31Z</time>
  <course>304.38</course>
  <speed>0.0</speed>
  <fix>3d</fix>
</trkpt>
<trkpt lat="-27.274439" lon="151.290064">
  <ele>343.28</ele>
  <time>2026-09-01T19:56:31Z</time>
  <course>10.71</course>
  <speed>0.0</speed>
  <fix>3d</fix>
</trkpt>
<trkpt lat="-27.274439" lon="151.290064">
  <ele>343.31</ele>
  <time>2026-09-01T19:56:31Z</time>
  <course>10.71</course>
  <speed>0.0</speed>
  <fix>3d</fix>
</trkpt>
<trkpt lat="-27.274439" lon="151.290064">
  <ele>343.1</ele>
  <time>2026-09-01T19:56:31Z</time>
  <course>7.83</course>
  <speed>0.0</speed>
  <fix>3d</fix>
</trkpt>
<trkpt lat="-27.274439" lon="151.290064">
  <ele>343.31</ele>
  <time>2026-09-01T19:56:31Z</time>
  <course>10.71</course>
  <speed>0.0</speed>
  <fix>3d</fix>
</trkpt>
<trkpt lat="-27.274439" lon="151.290064">
  <ele>343.35</ele>
  <time>2026-09-01T19:56:31Z</time>
  <course>10.71</course>
  <speed>0.0</speed>
  <fix>3d</fix>
</trkpt>
<trkpt lat="-27.274439" lon="151.290064">
  <ele>343.1</ele>
  <time>2026-09-01T19:56:31Z</time>
  <course>7.83</course>
  <speed>0.0</speed>
  <fix>3d</fix>
</trkpt>
<trkpt lat="-27.274439" lon="151.290064">
  <ele>343.37</ele>
  <time>2026-09-01T19:56:31Z</time>
  <course>10.71</course>
  <speed>0.0</speed>
  <fix>3d</fix>
</trkpt>
<trkpt lat="-27.274439" lon="151.290064">
  <ele>343.41</ele>
  <time>2026-09-01T19:56:31Z</time>
  <course>10.71</course>
  <speed>0.0</speed>
  <fix>3d</fix>
</trkpt>
<trkpt lat="-27.274439" lon="151.290064">
  <ele>343.14</ele>
  <time>2026-09-01T19:56:31Z</time>
  <course>7.95</course>
  <speed>0.0</speed>
  <fix>3d</fix>
</trkpt>
<trkpt lat="-27.274439" lon="151.290064">
  <ele>343.41</ele>
  <time>2026-09-01T19:56:31Z</time>
  <course>10.71</course>
  <speed>0.0</speed>
  <fix>3d</fix>
</trkpt>
<trkpt lat="-27.274439" lon="151.290064">
  <ele>343.5</ele>
  <time>2026-09-01T19:56:31Z</time>
  <course>10.71</course>
  <speed>0.02</speed>
  <fix>3d</fix>
</trkpt>
<trkpt lat="-27.274439" lon="151.290064">
  <ele>343.14</ele>
  <time>2026-09-01T19:56:31Z</time>
  <course>7.95</course>
  <speed>0.0</speed>
  <fix>3d</fix>
</trkpt>
<trkpt lat="-27.274439" lon="151.290064">
  <ele>343.5</ele>
  <time>2026-09-01T19:56:31Z</time>
  <course>10.71</course>
  <speed>0.02</speed>
  <fix>3d</fix>
</trkpt>
<trkpt lat="-27.274439" lon="151.290064">
  <ele>343.66</ele>
  <time>2026-09-01T19:56:31Z</time>
  <course>10.71</course>
  <speed>0.0412310562561766</speed>
  <fix>3d</fix>
</trkpt>
<trkpt lat="-27.274439" lon="151.290064">
  <ele>343.23</ele>
  <time>2026-09-01T19:56:31Z</time>
  <course>6.5</course>
  <speed>0.01</speed>
  <fix>3d</fix>
</trkpt>
<trkpt lat="-27.274439" lon="151.290064">
  <ele>343.72</ele>
  <time>2026-09-01T19:56:31Z</time>
  <course>10.71</course>
  <speed>0.05099019513592785</speed>
  <fix>3d</fix>
</trkpt>
<trkpt lat="-27.274439" lon="151.290064">
  <ele>343.88</ele>
  <time>2026-09-01T19:56:31Z</time>
  <course>10.72</course>
  <speed>0.08062257748298549</speed>
  <fix>3d</fix>
</trkpt>
<trkpt lat="-27.274439" lon="151.290064">
  <ele>343.23</ele>
  <time>2026-09-01T19:56:31Z</time>
  <course>6.5</course>
  <speed>0.01</speed>
  <fix>3d</fix>
</trkpt>
<trkpt lat="-27.2744389" lon="151.290064">
  <ele>343.94</ele>
  <time>2026-09-01T19:56:31Z</time>
  <course>10.72</course>
  <speed>0.09055385138137417</speed>
  <fix>3d</fix>
</trkpt>
<trkpt lat="-27.2744389" lon="151.290064">
  <ele>344.11</ele>
  <time>2026-09-01T19:56:31Z</time>
  <course>10.72</course>
  <speed>0.1118033988749895</speed>
  <fix>3d</fix>
</trkpt>
<trkpt lat="-27.274439" lon="151.290064">
  <ele>343.47</ele>
  <time>2026-09-01T19:56:31Z</time>
  <course>6.24</course>
  <speed>0.05</speed>
  <fix>3d</fix>
</trkpt>
<trkpt lat="-27.2744388" lon="151.290064">
  <ele>344.17</ele>
  <time>2026-09-01T19:56:31Z</time>
  <course>10.71</course>
  <speed>0.12165525060596438</speed>
  <fix>3d</fix>
</trkpt>
<trkpt lat="-27.2744388" lon="151.290064">
  <ele>344.34</ele>
  <time>2026-09-01T19:56:31Z</time>
  <course>10.71</course>
  <speed>0.13152946437965907</speed>
  <fix>3d</fix>
</trkpt>
<trkpt lat="-27.274439" lon="151.290064">
  <ele>343.47</ele>
  <time>2026-09-01T19:56:31Z</time>
  <course>6.24</course>
  <speed>0.05</speed>
  <fix>3d</fix>
</trkpt>
<trkpt lat="-27.2744387" lon="151.290064">
  <ele>344.4</ele>
  <time>2026-09-01T19:56:31Z</time>
  <course>10.71</course>
  <speed>0.1414213562373095</speed>
  <fix>3d</fix>
</trkpt>
<trkpt lat="-27.2744386" lon="151.290064">
  <ele>344.57</ele>
  <time>2026-09-01T19:56:31Z</time>
  <course>10.7</course>
  <speed>0.16124515496597097</speed>
  <fix>3d</fix>
</trkpt>
<trkpt lat="-27.2744389" lon="151.290064">
  <ele>343.89</ele>
  <time>2026-09-01T19:56:31Z</time>
  <course>6.27</course>
  <speed>0.11</speed>
  <fix>3d</fix>
</trkpt>
<trkpt lat="-27.2744386" lon="151.290064">
  <ele>344.63</ele>
  <time>2026-09-01T19:56:31Z</time>
  <course>10.7</course>
  <speed>0.16278820596099705</speed>
  <fix>3d</fix>
</trkpt>
<trkpt lat="-27.2744385" lon="151.2900641">
  <ele>344.8</ele>
  <time>2026-09-01T19:56:31Z</time>
  <course>10.69</course>
  <speed>0.1824828759089466</speed>
  <fix>3d</fix>
</trkpt>
<trkpt lat="-27.2744389" lon="151.290064">
  <ele>343.89</ele>
  <time>2026-09-01T19:56:31Z</time>
  <course>6.27</course>
  <speed>0.11</speed>
  <fix>3d</fix>
</trkpt>
<trkpt lat="-27.2744384" lon="151.2900641">
  <ele>344.85</ele>
  <time>2026-09-01T19:56:31Z</time>
  <course>10.69</course>
  <speed>0.1824828759089466</speed>
  <fix>3d</fix>
</trkpt>
<trkpt lat="-27.2744383" lon="151.2900641">
  <ele>345.03</ele>
  <time>2026-09-01T19:56:31Z</time>
  <course>10.65</course>
  <speed>0.19235384061671343</speed>
  <fix>3d</fix>
</trkpt>
<trkpt lat="-27.2744386" lon="151.290064">
  <ele>344.36</ele>
  <time>2026-09-01T19:56:31Z</time>
  <course>6.35</course>
  <speed>0.16</speed>
  <fix>3d</fix>
</trkpt>
<trkpt lat="-27.2744383" lon="151.2900641">
  <ele>345.09</ele>
  <time>2026-09-01T19:56:31Z</time>
  <course>10.65</course>
  <speed>0.20223748416156684</speed>
  <fix>3d</fix>
</trkpt>
<trkpt lat="-27.2744381" lon="151.2900641">
  <ele>345.26</ele>
  <time>2026-09-01T19:56:32Z</time>
  <course>10.64</course>
  <speed>0.21213203435596426</speed>
  <fix>3d</fix>
</trkpt>
<trkpt lat="-27.2744386" lon="151.290064">
  <ele>344.36</ele>
  <time>2026-09-01T19:56:32Z</time>
  <course>6.35</course>
  <speed>0.16</speed>
  <fix>3d</fix>
</trkpt>
<trkpt lat="-27.2744381" lon="151.2900641">
  <ele>345.32</ele>
  <time>2026-09-01T19:56:32Z</time>
  <course>10.64</course>
  <speed>0.21213203435596426</speed>
  <fix>3d</fix>
</trkpt>
<trkpt lat="-27.2744379" lon="151.2900641">
  <ele>345.49</ele>
  <time>2026-09-01T19:56:32Z</time>
  <course>10.62</course>
  <speed>0.21213203435596426</speed>
  <fix>3d</fix>
</trkpt>
<trkpt lat="-27.2744383" lon="151.290064">
  <ele>344.81</ele>
  <time>2026-09-01T19:56:32Z</time>
  <course>6.46</course>
  <speed>0.2</speed>
  <fix>3d</fix>
</trkpt>
<trkpt lat="-27.2744379" lon="151.2900641">
  <ele>345.56</ele>
  <time>2026-09-01T19:56:32Z</time>
  <course>10.62</course>
  <speed>0.2220360331117452</speed>
  <fix>3d</fix>
</trkpt>
<trkpt lat="-27.2744377" lon="151.2900642">
  <ele>345.7</ele>
  <time>2026-09-01T19:56:32Z</time>
  <course>10.61</course>
  <speed>0.2220360331117452</speed>
  <fix>3d</fix>
</trkpt>
<trkpt lat="-27.2744383" lon="151.290064">
  <ele>344.81</ele>
  <time>2026-09-01T19:56:32Z</time>
  <course>6.46</course>
  <speed>0.2</speed>
  <fix>3d</fix>
</trkpt>
<trkpt lat="-27.2744377" lon="151.2900642">
  <ele>345.77</ele>
  <time>2026-09-01T19:56:32Z</time>
  <course>10.6</course>
  <speed>0.2220360331117452</speed>
  <fix>3d</fix>
</trkpt>
<trkpt lat="-27.2744375" lon="151.2900642">
  <ele>345.91</ele>
  <time>2026-09-01T19:56:32Z</time>
  <course>10.59</course>
  <speed>0.2220360331117452</speed>
  <fix>3d</fix>
</trkpt>
<trkpt lat="-27.2744379" lon="151.2900641">
  <ele>345.25</ele>
  <time>2026-09-01T19:56:32Z</time>
  <course>6.6</course>
  <speed>0.23</speed>
  <fix>3d</fix>
</trkpt>
<trkpt lat="-27.2744375" lon="151.2900642">
  <ele>345.92</ele>
  <time>2026-09-01T19:56:32Z</time>
  <course>10.59</course>
  <speed>0.2220360331117452</speed>
  <fix>3d</fix>
</trkpt>
<trkpt lat="-27.2744373" lon="151.2900642">
  <ele>346.11</ele>
  <time>2026-09-01T19:56:32Z</time>
  <course>10.59</course>
  <speed>0.2220360331117452</speed>
  <fix>3d</fix>
</trkpt>
<trkpt lat="-27.2744379" lon="151.2900641">
  <ele>345.25</ele>
  <time>2026-09-01T19:56:32Z</time>
  <course>6.6</course>
  <speed>0.23</speed>
  <fix>3d</fix>
</trkpt>
<trkpt lat="-27.2744373" lon="151.2900642">
  <ele>346.16</ele>
  <time>2026-09-01T19:56:32Z</time>
  <course>10.59</course>
  <speed>0.2220360331117452</speed>
  <fix>3d</fix>
</trkpt>
<trkpt lat="-27.2744371" lon="151.2900642">
  <ele>346.29</ele>
  <time>2026-09-01T19:56:32Z</time>
  <course>10.58</course>
  <speed>0.21213203435596426</speed>
  <fix>3d</fix>
</trkpt>
<trkpt lat="-27.2744375" lon="151.2900641">
  <ele>345.66</ele>
  <time>2026-09-01T19:56:32Z</time>
  <course>6.72</course>
  <speed>0.23</speed>
  <fix>3d</fix>
</trkpt>
<trkpt lat="-27.2744371" lon="151.2900642">
  <ele>346.34</ele>
  <time>2026-09-01T19:56:32Z</time>
  <course>10.58</course>
  <speed>0.21213203435596426</speed>
  <fix>3d</fix>
</trkpt>
<trkpt lat="-27.274437" lon="151.2900643">
  <ele>346.46</ele>
  <time>2026-09-01T19:56:32Z</time>
  <course>10.58</course>
  <speed>0.20223748416156684</speed>
  <fix>3d</fix>
</trkpt>
<trkpt lat="-27.2744375" lon="151.2900641">
  <ele>345.66</ele>
  <time>2026-09-01T19:56:32Z</time>
  <course>6.72</course>
  <speed>0.23</speed>
  <fix>3d</fix>
</trkpt>
<trkpt lat="-27.2744369" lon="151.2900643">
  <ele>346.51</ele>
  <time>2026-09-01T19:56:32Z</time>
  <course>10.58</course>
  <speed>0.20223748416156684</speed>
  <fix>3d</fix>
</trkpt>
<trkpt lat="-27.2744368" lon="151.2900643">
  <ele>346.62</ele>
  <time>2026-09-01T19:56:32Z</time>
  <course>10.59</course>
  <speed>0.19235384061671343</speed>
  <fix>3d</fix>
</trkpt>
<trkpt lat="-27.2744371" lon="151.2900642">
  <ele>346.03</ele>
  <time>2026-09-01T19:56:32Z</time>
  <course>6.83</course>
  <speed>0.23</speed>
  <fix>3d</fix>
</trkpt>
<trkpt lat="-27.2744367" lon="151.2900643">
  <ele>346.67</ele>
  <time>2026-09-01T19:56:32Z</time>
  <course>10.59</course>
  <speed>0.19235384061671343</speed>
  <fix>3d</fix>
</trkpt>
<trkpt lat="-27.2744366" lon="151.2900643">
  <ele>346.78</ele>
  <time>2026-09-01T19:56:32Z</time>
  <course>10.6</course>
  <speed>0.18110770276274835</speed>
  <fix>3d</fix>
</trkpt>
<trkpt lat="-27.2744371" lon="151.2900642">
  <ele>346.03</ele>
  <time>2026-09-01T19:56:32Z</time>
  <course>6.83</course>
  <speed>0.23</speed>
  <fix>3d</fix>
</trkpt>
<trkpt lat="-27.2744366" lon="151.2900643">
  <ele>346.82</ele>
  <time>2026-09-01T19:56:32Z</time>
  <course>10.61</course>
  <speed>0.1711724276862369</speed>
  <fix>3d</fix>
</trkpt>
<trkpt lat="-27.2744364" lon="151.2900643">
  <ele>346.93</ele>
  <time>2026-09-01T19:56:32Z</time>
  <course>10.62</course>
  <speed>0.16124515496597097</speed>
  <fix>3d</fix>
</trkpt>
<trkpt lat="-27.2744367" lon="151.2900642">
  <ele>346.36</ele>
  <time>2026-09-01T19:56:32Z</time>
  <course>7.01</course>
  <speed>0.21</speed>
  <fix>3d</fix>
</trkpt>
<trkpt lat="-27.2744364" lon="151.2900643">
  <ele>346.97</ele>
  <time>2026-09-01T19:56:32Z</time>
  <course>10.62</course>
  <speed>0.16124515496597097</speed>
  <fix>3d</fix>
</trkpt>
<trkpt lat="-27.2744363" lon="151.2900643">
  <ele>347.07</ele>
  <time>2026-09-01T19:56:32Z</time>
  <course>10.63</course>
  <speed>0.15132745950421556</speed>
  <fix>3d</fix>
</trkpt>
<trkpt lat="-27.2744367" lon="151.2900642">
  <ele>346.36</ele>
  <time>2026-09-01T19:56:32Z</time>
  <course>7.01</course>
  <speed>0.21</speed>
  <fix>3d</fix>
</trkpt>
<trkpt lat="-27.2744363" lon="151.2900643">
  <ele>347.11</ele>
  <time>2026-09-01T19:56:32Z</time>
  <course>10.64</course>
  <speed>0.1414213562373095</speed>
  <fix>3d</fix>
</trkpt>
<trkpt lat="-27.2744362" lon="151.2900643">
  <ele>347.21</ele>
  <time>2026-09-01T19:56:32Z</time>
  <course>10.65</course>
  <speed>0.130384048104053</speed>
  <fix>3d</fix>
</trkpt>
<trkpt lat="-27.2744363" lon="151.2900642">
  <ele>346.66</ele>
  <time>2026-09-01T19:56:32Z</time>
  <course>7.36</course>
  <speed>0.18</speed>
  <fix>3d</fix>
</trkpt>
<trkpt lat="-27.2744361" lon="151.2900643">
  <ele>347.25</ele>
  <time>2026-09-01T19:56:32Z</time>
  <course>10.65</course>
  <speed>0.12041594578792296</speed>
  <fix>3d</fix>
</trkpt>
<trkpt lat="-27.274436" lon="151.2900643">
  <ele>347.34</ele>
  <time>2026-09-01T19:56:32Z</time>
  <course>10.67</course>
  <speed>0.11045361017187261</speed>
  <fix>3d</fix>
</trkpt>
<trkpt lat="-27.2744363" lon="151.2900642">
  <ele>346.66</ele>
  <time>2026-09-01T19:56:32Z</time>
  <course>7.36</course>
  <speed>0.18</speed>
  <fix>3d</fix>
</trkpt>
<trkpt lat="-27.274436" lon="151.2900643">
  <ele>347.38</ele>
  <time>2026-09-01T19:56:32Z</time>
  <course>10.67</course>
  <speed>0.1004987562112089</speed>
  <fix>3d</fix>
</trkpt>
<trkpt lat="-27.2744359" lon="151.2900643">
  <ele>347.47</ele>
  <time>2026-09-01T19:56:32Z</time>
  <course>10.68</course>
  <speed>0.09055385138137417</speed>
  <fix>3d</fix>
</trkpt>
<trkpt lat="-27.274436" lon="151.2900643">
  <ele>346.94</ele>
  <time>2026-09-01T19:56:32Z</time>
  <course>8.07</course>
  <speed>0.14</speed>
  <fix>3d</fix>
</trkpt>
<trkpt lat="-27.2744359" lon="151.2900643">
  <ele>347.48</ele>
  <time>2026-09-01T19:56:32Z</time>
  <course>10.68</course>
  <speed>0.09055385138137417</speed>
  <fix>3d</fix>
</trkpt>
<trkpt lat="-27.2744358" lon="151.2900643">
  <ele>347.6</ele>
  <time>2026-09-01T19:56:32Z</time>
  <course>10.7</course>
  <speed>0.07</speed>
  <fix>3d</fix>
</trkpt>
<trkpt lat="-27.274436" lon="151.2900643">
  <ele>346.94</ele>
  <time>2026-09-01T19:56:32Z</time>
  <course>8.07</course>
  <speed>0.14</speed>
  <fix>3d</fix>
</trkpt>
<trkpt lat="-27.2744358" lon="151.2900643">
  <ele>347.61</ele>
  <time>2026-09-01T19:56:32Z</time>
  <course>10.7</course>
  <speed>0.07</speed>
  <fix>3d</fix>
</trkpt>
<trkpt lat="-27.2744358" lon="151.2900643">
  <ele>347.73</ele>
  <time>2026-09-01T19:56:32Z</time>
  <course>10.71</course>
  <speed>0.05</speed>
  <fix>3d</fix>
</trkpt>
<trkpt lat="-27.2744358" lon="151.2900644">
  <ele>347.19</ele>
  <time>2026-09-01T19:56:32Z</time>
  <course>9.54</course>
  <speed>0.1</speed>
  <fix>3d</fix>
</trkpt>
<trkpt lat="-27.2744358" lon="151.2900643">
  <ele>347.76</ele>
  <time>2026-09-01T19:56:32Z</time>
  <course>10.71</course>
  <speed>0.05</speed>
  <fix>3d</fix>
</trkpt>
<trkpt lat="-27.2744357" lon="151.2900644">
  <ele>347.85</ele>
  <time>2026-09-01T19:56:32Z</time>
  <course>10.73</course>
  <speed>0.03</speed>
  <fix>3d</fix>
</trkpt>
<trkpt lat="-27.2744358" lon="151.2900644">
  <ele>347.19</ele>
  <time>2026-09-01T19:56:32Z</time>
  <course>9.54</course>
  <speed>0.1</speed>
  <fix>3d</fix>
</trkpt>
<trkpt lat="-27.2744357" lon="151.2900644">
  <ele>347.86</ele>
  <time>2026-09-01T19:56:32Z</time>
  <course>10.73</course>
  <speed>0.03</speed>
  <fix>3d</fix>
</trkpt>
<trkpt lat="-27.2744357" lon="151.2900644">
  <ele>347.98</ele>
  <time>2026-09-01T19:56:32Z</time>
  <course>10.74</course>
  <speed>0.01</speed>
  <fix>3d</fix>
</trkpt>
<trkpt lat="-27.2744356" lon="151.2900644">
  <ele>347.45</ele>
  <time>2026-09-01T19:56:32Z</time>
  <course>12.99</course>
  <speed>0.06</speed>
  <fix>3d</fix>
</trkpt>
<trkpt lat="-27.2744357" lon="151.2900644">
  <ele>347.99</ele>
  <time>2026-09-01T19:56:32Z</time>
  <course>10.74</course>
  <speed>0.01</speed>
  <fix>3d</fix>
</trkpt>
<trkpt lat="-27.2744357" lon="151.2900644">
  <ele>348.11</ele>
  <time>2026-09-01T19:56:32Z</time>
  <course>10.77</course>
  <speed>0.0</speed>
  <fix>3d</fix>
</trkpt>
<trkpt lat="-27.2744356" lon="151.2900644">
  <ele>347.45</ele>
  <time>2026-09-01T19:56:32Z</time>
  <course>12.99</course>
  <speed>0.06</speed>
  <fix>3d</fix>
</trkpt>
<trkpt lat="-27.2744357" lon="151.2900644">
  <ele>348.12</ele>
  <time>2026-09-01T19:56:32Z</time>
  <course>10.77</course>
  <speed>0.0</speed>
  <fix>3d</fix>
</trkpt>
<trkpt lat="-27.2744357" lon="151.2900644">
  <ele>348.24</ele>
  <time>2026-09-01T19:56:32Z</time>
  <course>10.8</course>
  <speed>0.01</speed>
  <fix>3d</fix>
</trkpt>
<trkpt lat="-27.2744356" lon="151.2900644">
  <ele>347.71</ele>
  <time>2026-09-01T19:56:32Z</time>
  <course>25.38</course>
  <speed>0.02</speed>
  <fix>3d</fix>
</trkpt>
<trkpt lat="-27.2744357" lon="151.2900644">
  <ele>348.27</ele>
  <time>2026-09-01T19:56:32Z</time>
  <course>10.81</course>
  <speed>0.01</speed>
  <fix>3d</fix>
</trkpt>
<trkpt lat="-27.2744357" lon="151.2900644">
  <ele>348.38</ele>
  <time>2026-09-01T19:56:32Z</time>
  <course>10.85</course>
  <speed>0.03</speed>
  <fix>3d</fix>
</trkpt>
<trkpt lat="-27.2744356" lon="151.2900644">
  <ele>347.71</ele>
  <time>2026-09-01T19:56:32Z</time>
  <course>25.38</course>
  <speed>0.02</speed>
  <fix>3d</fix>
</trkpt>
<trkpt lat="-27.2744357" lon="151.2900644">
  <ele>348.41</ele>
  <time>2026-09-01T19:56:32Z</time>
  <course>10.87</course>
  <speed>0.03</speed>
  <fix>3d</fix>
</trkpt>
<trkpt lat="-27.2744357" lon="151.2900644">
  <ele>348.52</ele>
  <time>2026-09-01T19:56:32Z</time>
  <course>10.94</course>
  <speed>0.0412310562561766</speed>
  <fix>3d</fix>
</trkpt>
<trkpt lat="-27.2744356" lon="151.2900645">
  <ele>347.97</ele>
  <time>2026-09-01T19:56:32Z</time>
  <course>150.42</course>
  <speed>0.01</speed>
  <fix>3d</fix>
</trkpt>
<trkpt lat="-27.2744357" lon="151.2900644">
  <ele>348.55</ele>
  <time>2026-09-01T19:56:32Z</time>
  <course>10.98</course>
  <speed>0.0412310562561766</speed>
  <fix>3d</fix>
</trkpt>
<trkpt lat="-27.2744357" lon="151.2900644">
  <ele>348.66</ele>
  <time>2026-09-01T19:56:32Z</time>
  <course>11.09</course>
  <speed>0.05099019513592785</speed>
  <fix>3d</fix>
</trkpt>
<trkpt lat="-27.2744356" lon="151.2900645">
  <ele>347.97</ele>
  <time>2026-09-01T19:56:32Z</time>
  <course>150.42</course>
  <speed>0.01</speed>
  <fix>3d</fix>
</trkpt>
<trkpt lat="-27.2744357" lon="151.2900644">
  <ele>348.66</ele>
  <time>2026-09-01T19:56:32Z</time>
  <course>11.09</course>
  <speed>0.05099019513592785</speed>
  <fix>3d</fix>
</trkpt>
<trkpt lat="-27.2744358" lon="151.2900644">
  <ele>348.8</ele>
  <time>2026-09-01T19:56:32Z</time>
  <course>11.2</course>
  <speed>0.06082762530298219</speed>
  <fix>3d</fix>
</trkpt>
<trkpt lat="-27.2744356" lon="151.2900645">
  <ele>348.24</ele>
  <time>2026-09-01T19:56:32Z</time>
  <course>181.22</course>
  <speed>0.04</speed>
  <fix>3d</fix>
</trkpt>
<trkpt lat="-27.2744358" lon="151.2900644">
  <ele>348.81</ele>
  <time>2026-09-01T19:56:32Z</time>
  <course>11.21</course>
  <speed>0.06082762530298219</speed>
  <fix>3d</fix>
</trkpt>
<trkpt lat="-27.2744358" lon="151.2900644">
  <ele>348.95</ele>
  <time>2026-09-01T19:56:32Z</time>
  <course>11.28</course>
  <speed>0.07071067811865475</speed>
  <fix>3d</fix>
</trkpt>
<trkpt lat="-27.2744356" lon="151.2900645">
  <ele>348.24</ele>
  <time>2026-09-01T19:56:32Z</time>
  <course>181.22</course>
  <speed>0.04</speed>
  <fix>3d</fix>
</trkpt>
<trkpt lat="-27.2744358" lon="151.2900644">
  <ele>348.96</ele>
  <time>2026-09-01T19:56:32Z</time>
  <course>11.28</course>
  <speed>0.07071067811865475</speed>
  <fix>3d</fix>
</trkpt>
<trkpt lat="-27.2744358" lon="151.2900644">
  <ele>349.1</ele>
  <time>2026-09-01T19:56:32Z</time>
  <course>11.33</course>
  <speed>0.08062257748298549</speed>
  <fix>3d</fix>
</trkpt>
<trkpt lat="-27.2744356" lon="151.2900645">
  <ele>348.52</ele>
  <time>2026-09-01T19:56:32Z</time>
  <course>185.99</course>
  <speed>0.06</speed>
  <fix>3d</fix>
</trkpt>
<trkpt lat="-27.2744358" lon="151.2900644">
  <ele>349.11</ele>
  <time>2026-09-01T19:56:32Z</time>
  <course>11.33</course>
  <speed>0.08062257748298549</speed>
  <fix>3d</fix>
</trkpt>
<trkpt lat="-27.2744359" lon="151.2900644">
  <ele>349.25</ele>
  <time>2026-09-01T19:56:32Z</time>
  <course>11.35</course>
  <speed>0.09055385138137417</speed>
  <fix>3d</fix>
</trkpt>
<trkpt lat="-27.2744356" lon="151.2900645">
  <ele>348.52</ele>
  <time>2026-09-01T19:56:32Z</time>
  <course>185.99</course>
  <speed>0.06</speed>
  <fix>3d</fix>
</trkpt>
<trkpt lat="-27.2744359" lon="151.2900644">
  <ele>349.29</ele>
  <time>2026-09-01T19:56:32Z</time>
  <course>11.36</course>
  <speed>0.09055385138137417</speed>
  <fix>3d</fix>
</trkpt>
<trkpt lat="-27.2744359" lon="151.2900644">
  <ele>349.4</ele>
  <time>2026-09-01T19:56:32Z</time>
  <course>11.36</course>
  <speed>0.09055385138137417</speed>
  <fix>3d</fix>
</trkpt>
<trkpt lat="-27.2744357" lon="151.2900645">
  <ele>348.81</ele>
  <time>2026-09-01T19:56:32Z</time>
  <course>186.3</course>
  <speed>0.08</speed>
  <fix>3d</fix>
</trkpt>
<trkpt lat="-27.274436" lon="151.2900644">
  <ele>349.44</ele>
  <time>2026-09-01T19:56:32Z</time>
  <course>11.36</course>
  <speed>0.09055385138137417</speed>
  <fix>3d</fix>
</trkpt>
<trkpt lat="-27.274436" lon="151.2900644">
  <ele>349.55</ele>
  <time>2026-09-01T19:56:32Z</time>
  <course>11.35</course>
  <speed>0.1004987562112089</speed>
  <fix>3d</fix>
</trkpt>
<trkpt lat="-27.2744357" lon="151.2900645">
  <ele>348.81</ele>
  <time>2026-09-01T19:56:32Z</time>
  <course>186.3</course>
  <speed>0.08</speed>
  <fix>3d</fix>
</trkpt>
<trkpt lat="-27.274436" lon="151.2900644">
  <ele>349.59</ele>
  <time>2026-09-01T19:56:32Z</time>
  <course>11.34</course>
  <speed>0.1004987562112089</speed>
  <fix>3d</fix>
</trkpt>
<trkpt lat="-27.2744361" lon="151.2900644">
  <ele>349.69</ele>
  <time>2026-09-01T19:56:32Z</time>
  <course>11.32</course>
  <speed>0.1004987562112089</speed>
  <fix>3d</fix>
</trkpt>
<trkpt lat="-27.2744359" lon="151.2900645">
  <ele>349.1</ele>
  <time>2026-09-01T19:56:32Z</time>
  <course>186.84</course>
  <speed>0.1</speed>
  <fix>3d</fix>
</trkpt>
<trkpt lat="-27.2744361" lon="151.2900644">
  <ele>349.7</ele>
  <time>2026-09-01T19:56:32Z</time>
  <course>11.31</course>
  <speed>0.1004987562112089</speed>
  <fix>3d</fix>
</trkpt>
<trkpt lat="-27.2744362" lon="151.2900644">
  <ele>349.84</ele>
  <time>2026-09-01T19:56:32Z</time>
  <course>11.27</course>
  <speed>0.11045361017187261</speed>
  <fix>3d</fix>
</trkpt>
<trkpt lat="-27.2744359" lon="151.2900645">
  <ele>349.1</ele>
  <time>2026-09-01T19:56:32Z</time>
  <course>186.84</course>
  <speed>0.1</speed>
  <fix>3d</fix>
</trkpt>
<trkpt lat="-27.2744362" lon="151.2900644">
  <ele>349.85</ele>
  <time>2026-09-01T19:56:32Z</time>
  <course>11.27</course>
  <speed>0.11045361017187261</speed>
  <fix>3d</fix>
</trkpt>
<trkpt lat="-27.2744363" lon="151.2900644">
  <ele>349.99</ele>
  <time>2026-09-01T19:56:32Z</time>
  <course>11.22</course>
  <speed>0.11045361017187261</speed>
  <fix>3d</fix>
</trkpt>
<trkpt lat="-27.2744361" lon="151.2900645">
  <ele>349.4</ele>
  <time>2026-09-01T19:56:32Z</time>
  <course>187.0</course>
  <speed>0.11</speed>
  <fix>3d</fix>
</trkpt>
<trkpt lat="-27.2744363" lon="151.2900644">
  <ele>350.03</ele>
  <time>2026-09-01T19:56:32Z</time>
  <course>11.2</course>
  <speed>0.11045361017187261</speed>
  <fix>3d</fix>
</trkpt>
<trkpt lat="-27.2744364" lon="151.2900644">
  <ele>350.14</ele>
  <time>2026-09-01T19:56:32Z</time>
  <course>11.16</course>
  <speed>0.11045361017187261</speed>
  <fix>3d</fix>
</trkpt>
<trkpt lat="-27.2744361" lon="151.2900645">
  <ele>349.4</ele>
  <time>2026-09-01T19:56:32Z</time>
  <course>187.0</course>
  <speed>0.11</speed>
  <fix>3d</fix>
</trkpt>
<trkpt lat="-27.2744364" lon="151.2900644">
  <ele>350.14</ele>
  <time>2026-09-01T19:56:32Z</time>
  <course>11.16</course>
  <speed>0.11045361017187261</speed>
  <fix>3d</fix>
</trkpt>
<trkpt lat="-27.2744365" lon="151.2900644">
  <ele>350.28</ele>
  <time>2026-09-01T19:56:32Z</time>
  <course>11.13</course>
  <speed>0.12041594578792296</speed>
  <fix>3d</fix>
</trkpt>
<trkpt lat="-27.2744363" lon="151.2900645">
  <ele>349.69</ele>
  <time>2026-09-01T19:56:32Z</time>
  <course>187.0</course>
  <speed>0.12</speed>
  <fix>3d</fix>
</trkpt>
<trkpt lat="-27.2744365" lon="151.2900644">
  <ele>350.32</ele>
  <time>2026-09-01T19:56:32Z</time>
  <course>11.12</course>
  <speed>0.12041594578792296</speed>
  <fix>3d</fix>
</trkpt>
<trkpt lat="-27.2744366" lon="151.2900644">
  <ele>350.43</ele>
  <time>2026-09-01T19:56:32Z</time>
  <course>11.09</course>
  <speed>0.12041594578792296</speed>
  <fix>3d</fix>
</trkpt>
<trkpt lat="-27.2744363" lon="151.2900645">
  <ele>349.69</ele>
  <time>2026-09-01T19:56:32Z</time>
  <course>187.0</course>
  <speed>0.12</speed>
  <fix>3d</fix>
</trkpt>
<trkpt lat="-27.2744366" lon="151.2900644">
  <ele>350.47</ele>
  <time>2026-09-01T19:56:32Z</time>
  <course>11.08</course>
  <speed>0.12041594578792296</speed>
  <fix>3d</fix>
</trkpt>
<trkpt lat="-27.2744367" lon="151.2900644">
  <ele>350.57</ele>
  <time>2026-09-01T19:56:32Z</time>
  <course>11.05</course>
  <speed>0.12041594578792296</speed>
  <fix>3d</fix>
</trkpt>
<trkpt lat="-27.2744366" lon="151.2900644">
  <ele>349.98</ele>
  <time>2026-09-01T19:56:32Z</time>
  <course>187.25</course>
  <speed>0.13</speed>
  <fix>3d</fix>
</trkpt>
<trkpt lat="-27.2744367" lon="151.2900644">
  <ele>350.58</ele>
  <time>2026-09-01T19:56:32Z</time>
  <course>11.04</course>
  <speed>0.12041594578792296</speed>
  <fix>3d</fix>
</trkpt>
<trkpt lat="-27.2744368" lon="151.2900644">
  <ele>350.72</ele>
  <time>2026-09-01T19:56:32Z</time>
  <course>11.01</course>
  <speed>0.130384048104053</speed>
  <fix>3d</fix>
</trkpt>
<trkpt lat="-27.2744366" lon="151.2900644">
  <ele>349.98</ele>
  <time>2026-09-01T19:56:32Z</time>
  <course>187.25</course>
  <speed>0.13</speed>
  <fix>3d</fix>
</trkpt>
<trkpt lat="-27.2744369" lon="151.2900644">
  <ele>350.73</ele>
  <time>2026-09-01T19:56:32Z</time>
  <course>11.01</course>
  <speed>0.130384048104053</speed>
  <fix>3d</fix>
</trkpt>
<trkpt lat="-27.274437" lon="151.2900644">
  <ele>350.87</ele>
  <time>2026-09-01T19:56:32Z</time>
  <course>10.99</course>
  <speed>0.130384048104053</speed>
  <fix>3d</fix>
</trkpt>
<trkpt lat="-27.2744367" lon="151.2900644">
  <ele>350.27</ele>
  <time>2026-09-01T19:56:32Z</time>
  <course>187.56</course>
  <speed>0.13</speed>
  <fix>3d</fix>
</trkpt>
<trkpt lat="-27.274437" lon="151.2900644">
  <ele>350.9</ele>
  <time>2026-09-01T19:56:32Z</time>
  <course>10.99</course>
  <speed>0.130384048104053</speed>
  <fix>3d</fix>
</trkpt>
<trkpt lat="-27.2744371" lon="151.2900644">
  <ele>351.01</ele>
  <time>2026-09-01T19:56:32Z</time>
  <course>10.97</course>
  <speed>0.13</speed>
  <fix>3d</fix>
</trkpt>
<trkpt lat="-27.2744367" lon="151.2900644">
  <ele>350.27</ele>
  <time>2026-09-01T19:56:32Z</time>
  <course>187.56</course>
  <speed>0.13</speed>
  <fix>3d</fix>
</trkpt>
<trkpt lat="-27.2744371" lon="151.2900644">
  <ele>351.05</ele>
  <time>2026-09-01T19:56:32Z</time>
  <course>10.96</course>
  <speed>0.13</speed>
  <fix>3d</fix>
</trkpt>
<trkpt lat="-27.2744372" lon="151.2900644">
  <ele>351.15</ele>
  <time>2026-09-01T19:56:32Z</time>
  <course>10.93</course>
  <speed>0.13</speed>
  <fix>3d</fix>
</trkpt>
<trkpt lat="-27.274437" lon="151.2900643">
  <ele>350.56</ele>
  <time>2026-09-01T19:56:32Z</time>
  <course>187.9</course>
  <speed>0.14</speed>
  <fix>3d</fix>
</trkpt>
<trkpt lat="-27.2744372" lon="151.2900644">
  <ele>351.19</ele>
  <time>2026-09-01T19:56:32Z</time>
  <course>10.92</course>
  <speed>0.13</speed>
  <fix>3d</fix>
</trkpt>
<trkpt lat="-27.2744373" lon="151.2900644">
  <ele>351.3</ele>
  <time>2026-09-01T19:56:32Z</time>
  <course>10.9</course>
  <speed>0.13</speed>
  <fix>3d</fix>
</trkpt>
<trkpt lat="-27.274437" lon="151.2900643">
  <ele>350.56</ele>
  <time>2026-09-01T19:56:32Z</time>
  <course>187.9</course>
  <speed>0.14</speed>
  <fix>3d</fix>
</trkpt>
<trkpt lat="-27.2744374" lon="151.2900644">
  <ele>351.34</ele>
  <time>2026-09-01T19:56:32Z</time>
  <course>10.89</course>
  <speed>0.13</speed>
  <fix>3d</fix>
</trkpt>
<trkpt lat="-27.2744374" lon="151.2900644">
  <ele>351.44</ele>
  <time>2026-09-01T19:56:32Z</time>
  <course>10.86</course>
  <speed>0.13</speed>
  <fix>3d</fix>
</trkpt>
<trkpt lat="-27.2744373" lon="151.2900642">
  <ele>350.85</ele>
  <time>2026-09-01T19:56:32Z</time>
  <course>188.06</course>
  <speed>0.14</speed>
  <fix>3d</fix>
</trkpt>
<trkpt lat="-27.2744375" lon="151.2900644">
  <ele>351.48</ele>
  <time>2026-09-01T19:56:32Z</time>
  <course>10.85</course>
  <speed>0.13</speed>
  <fix>3d</fix>
</trkpt>
<trkpt lat="-27.2744376" lon="151.2900644">
  <ele>351.59</ele>
  <time>2026-09-01T19:56:32Z</time>
  <course>10.82</course>
  <speed>0.13</speed>
  <fix>3d</fix>
</trkpt>
<trkpt lat="-27.2744373" lon="151.2900642">
  <ele>350.85</ele>
  <time>2026-09-01T19:56:32Z</time>
  <course>188.06</course>
  <speed>0.14</speed>
  <fix>3d</fix>
</trkpt>
<trkpt lat="-27.2744376" lon="151.2900644">
  <ele>351.63</ele>
  <time>2026-09-01T19:56:32Z</time>
  <course>10.8</course>
  <speed>0.13</speed>
  <fix>3d</fix>
</trkpt>
<trkpt lat="-27.2744377" lon="151.2900644">
  <ele>351.73</ele>
  <time>2026-09-01T19:56:32Z</time>
  <course>10.75</course>
  <speed>0.13</speed>
  <fix>3d</fix>
</trkpt>
<trkpt lat="-27.2744375" lon="151.2900642">
  <ele>351.14</ele>
  <time>2026-09-01T19:56:32Z</time>
  <course>188.39</course>
  <speed>0.13</speed>
  <fix>3d</fix>
</trkpt>
<trkpt lat="-27.2744377" lon="151.2900643">
  <ele>351.77</ele>
  <time>2026-09-01T19:56:32Z</time>
  <course>10.72</course>
  <speed>0.13</speed>
  <fix>3d</fix>
</trkpt>
<trkpt lat="-27.2744378" lon="151.2900643">
  <ele>351.87</ele>
  <time>2026-09-01T19:56:32Z</time>
  <course>10.66</course>
  <speed>0.130384048104053</speed>
  <fix>3d</fix>
</trkpt>
<trkpt lat="-27.2744375" lon="151.2900642">
  <ele>351.14</ele>
  <time>2026-09-01T19:56:32Z</time>
  <course>188.39</course>
  <speed>0.13</speed>
  <fix>3d</fix>
</trkpt>
<trkpt lat="-27.2744378" lon="151.2900643">
  <ele>351.91</ele>
  <time>2026-09-01T19:56:32Z</time>
  <course>10.63</course>
  <speed>0.130384048104053</speed>
  <fix>3d</fix>
</trkpt>
<trkpt lat="-27.2744379" lon="151.2900643">
  <ele>352.01</ele>
  <time>2026-09-01T19:56:32Z</time>
  <course>10.56</course>
  <speed>0.12041594578792296</speed>
  <fix>3d</fix>
</trkpt>
<trkpt lat="-27.2744378" lon="151.2900642">
  <ele>351.41</ele>
  <time>2026-09-01T19:56:32Z</time>
  <course>188.84</course>
  <speed>0.13</speed>
  <fix>3d</fix>
</trkpt>
<trkpt lat="-27.274438" lon="151.2900643">
  <ele>352.05</ele>
  <time>2026-09-01T19:56:32Z</time>
  <course>10.53</course>
  <speed>0.12041594578792296</speed>
  <fix>3d</fix>
</trkpt>
<trkpt lat="-27.274438" lon="151.2900643">
  <ele>352.15</ele>
  <time>2026-09-01T19:56:32Z</time>
  <course>10.47</course>
  <speed>0.12</speed>
  <fix>3d</fix>
</trkpt>
<trkpt lat="-27.2744378" lon="151.2900642">
  <ele>351.41</ele>
  <time>2026-09-01T19:56:32Z</time>
  <course>188.84</course>
  <speed>0.13</speed>
  <fix>3d</fix>
</trkpt>
<trkpt lat="-27.2744381" lon="151.2900643">
  <ele>352.16</ele>
  <time>2026-09-01T19:56:32Z</time>
  <course>10.46</course>
  <speed>0.12</speed>
  <fix>3d</fix>
</trkpt>
<trkpt lat="-27.2744382" lon="151.2900643">
  <ele>352.3</ele>
  <time>2026-09-01T19:56:32Z</time>
  <course>10.38</course>
  <speed>0.12</speed>
  <fix>3d</fix>
</trkpt>
<trkpt lat="-27.274438" lon="151.2900642">
  <ele>351.7</ele>
  <time>2026-09-01T19:56:32Z</time>
  <course>189.0</course>
  <speed>0.13</speed>
  <fix>3d</fix>
</trkpt>
<trkpt lat="-27.2744382" lon="151.2900643">
  <ele>352.31</ele>
  <time>2026-09-01T19:56:32Z</time>
  <course>10.37</course>
  <speed>0.12</speed>
  <fix>3d</fix>
</trkpt>
<trkpt lat="-27.2744383" lon="151.2900643">
  <ele>352.44</ele>
  <time>2026-09-01T19:56:32Z</time>
  <course>10.29</course>
  <speed>0.12</speed>
  <fix>3d</fix>
</trkpt>
<trkpt lat="-27.274438" lon="151.2900642">
  <ele>351.7</ele>
  <time>2026-09-01T19:56:32Z</time>
  <course>189.0</course>
  <speed>0.13</speed>
  <fix>3d</fix>
</trkpt>
<trkpt lat="-27.2744383" lon="151.2900643">
  <ele>352.48</ele>
  <time>2026-09-01T19:56:32Z</time>
  <course>10.27</course>
  <speed>0.11</speed>
  <fix>3d</fix>
</trkpt>
<trkpt lat="-27.2744384" lon="151.2900643">
  <ele>352.58</ele>
  <time>2026-09-01T19:56:32Z</time>
  <course>10.2</course>
  <speed>0.11</speed>
  <fix>3d</fix>
</trkpt>
<trkpt lat="-27.2744383" lon="151.2900641">
  <ele>351.99</ele>
  <time>2026-09-01T19:56:32Z</time>
  <course>189.17</course>
  <speed>0.12</speed>
  <fix>3d</fix>
</trkpt>
<trkpt lat="-27.2744384" lon="151.2900643">
  <ele>352.62</ele>
  <time>2026-09-01T19:56:32Z</time>
  <course>10.18</course>
  <speed>0.11</speed>
  <fix>3d</fix>
</trkpt>
<trkpt lat="-27.2744385" lon="151.2900643">
  <ele>352.72</ele>
  <time>2026-09-01T19:56:32Z</time>
  <course>10.12</course>
  <speed>0.11</speed>
  <fix>3d</fix>
</trkpt>
<trkpt lat="-27.2744383" lon="151.2900641">
  <ele>351.99</ele>
  <time>2026-09-01T19:56:32Z</time>
  <course>189.17</course>
  <speed>0.12</speed>
  <fix>3d</fix>
</trkpt>
<trkpt lat="-27.2744385" lon="151.2900643">
  <ele>352.76</ele>
  <time>2026-09-01T19:56:32Z</time>
  <course>10.11</course>
  <speed>0.11</speed>
  <fix>3d</fix>
</trkpt>
<trkpt lat="-27.2744386" lon="151.2900642">
  <ele>352.87</ele>
  <time>2026-09-01T19:56:32Z</time>
  <course>10.07</course>
  <speed>0.1</speed>
  <fix>3d</fix>
</trkpt>
<trkpt lat="-27.2744385" lon="151.2900641">
  <ele>352.27</ele>
  <time>2026-09-01T19:56:32Z</time>
  <course>189.07</course>
  <speed>0.11</speed>
  <fix>3d</fix>
</trkpt>
<trkpt lat="-27.2744386" lon="151.2900642">
  <ele>352.9</ele>
  <time>2026-09-01T19:56:32Z</time>
  <course>10.06</course>
  <speed>0.1</speed>
  <fix>3d</fix>
</trkpt>
<trkpt lat="-27.2744387" lon="151.2900642">
  <ele>353.01</ele>
  <time>2026-09-01T19:56:32Z</time>
  <course>10.05</course>
  <speed>0.1</speed>
  <fix>3d</fix>
</trkpt>
<trkpt lat="-27.2744385" lon="151.2900641">
  <ele>352.27</ele>
  <time>2026-09-01T19:56:32Z</time>
  <course>189.07</course>
  <speed>0.11</speed>
  <fix>3d</fix>
</trkpt>
<trkpt lat="-27.2744387" lon="151.2900642">
  <ele>353.05</ele>
  <time>2026-09-01T19:56:32Z</time>
  <course>10.05</course>
  <speed>0.1</speed>
  <fix>3d</fix>
</trkpt>
<trkpt lat="-27.2744388" lon="151.2900642">
  <ele>353.15</ele>
  <time>2026-09-01T19:56:32Z</time>
  <course>10.04</course>
  <speed>0.1</speed>
  <fix>3d</fix>
</trkpt>
<trkpt lat="-27.2744387" lon="151.2900641">
  <ele>352.56</ele>
  <time>2026-09-01T19:56:32Z</time>
  <course>189.08</course>
  <speed>0.1</speed>
  <fix>3d</fix>
</trkpt>
<trkpt lat="-27.2744388" lon="151.2900642">
  <ele>353.19</ele>
  <time>2026-09-01T19:56:32Z</time>
  <course>10.03</course>
  <speed>0.09</speed>
  <fix>3d</fix>
</trkpt>
<trkpt lat="-27.2744389" lon="151.2900642">
  <ele>353.3</ele>
  <time>2026-09-01T19:56:32Z</time>
  <course>10.03</course>
  <speed>0.09</speed>
  <fix>3d</fix>
</trkpt>
<trkpt lat="-27.2744387" lon="151.2900641">
  <ele>352.56</ele>
  <time>2026-09-01T19:56:32Z</time>
  <course>189.08</course>
  <speed>0.1</speed>
  <fix>3d</fix>
</trkpt>
<trkpt lat="-27.2744389" lon="151.2900642">
  <ele>353.34</ele>
  <time>2026-09-01T19:56:32Z</time>
  <course>10.03</course>
  <speed>0.09</speed>
  <fix>3d</fix>
</trkpt>
<trkpt lat="-27.274439" lon="151.2900642">
  <ele>353.44</ele>
  <time>2026-09-01T19:56:32Z</time>
  <course>10.04</course>
  <speed>0.09</speed>
  <fix>3d</fix>
</trkpt>
<trkpt lat="-27.2744389" lon="151.290064">
  <ele>352.84</ele>
  <time>2026-09-01T19:56:32Z</time>
  <course>189.49</course>
  <speed>0.09</speed>
  <fix>3d</fix>
</trkpt>
<trkpt lat="-27.274439" lon="151.2900642">
  <ele>353.48</ele>
  <time>2026-09-01T19:56:32Z</time>
  <course>10.04</course>
  <speed>0.08</speed>
  <fix>3d</fix>
</trkpt>
<trkpt lat="-27.274439" lon="151.2900642">
  <ele>353.59</ele>
  <time>2026-09-01T19:56:32Z</time>
  <course>10.05</course>
  <speed>0.08</speed>
  <fix>3d</fix>
</trkpt>
<trkpt lat="-27.2744389" lon="151.290064">
  <ele>352.84</ele>
  <time>2026-09-01T19:56:32Z</time>
  <course>189.49</course>
  <speed>0.09</speed>
  <fix>3d</fix>
</trkpt>
<trkpt lat="-27.2744391" lon="151.2900642">
  <ele>353.62</ele>
  <time>2026-09-01T19:56:32Z</time>
  <course>10.05</course>
  <speed>0.08</speed>
  <fix>3d</fix>
</trkpt>
<trkpt lat="-27.2744391" lon="151.2900642">
  <ele>353.73</ele>
  <time>2026-09-01T19:56:32Z</time>
  <course>10.06</course>
  <speed>0.07</speed>
  <fix>3d</fix>
</trkpt>
<trkpt lat="-27.274439" lon="151.290064">
  <ele>353.13</ele>
  <time>2026-09-01T19:56:32Z</time>
  <course>190.09</course>
  <speed>0.08</speed>
  <fix>3d</fix>
</trkpt>
<trkpt lat="-27.2744391" lon="151.2900642">
  <ele>353.73</ele>
  <time>2026-09-01T19:56:32Z</time>
  <course>10.06</course>
  <speed>0.07</speed>
  <fix>3d</fix>
</trkpt>
<trkpt lat="-27.2744392" lon="151.2900642">
  <ele>353.87</ele>
  <time>2026-09-01T19:56:32Z</time>
  <course>10.08</course>
  <speed>0.07</speed>
  <fix>3d</fix>
</trkpt>
<trkpt lat="-27.274439" lon="151.290064">
  <ele>353.13</ele>
  <time>2026-09-01T19:56:32Z</time>
  <course>190.09</course>
  <speed>0.08</speed>
  <fix>3d</fix>
</trkpt>
<trkpt lat="-27.2744392" lon="151.2900642">
  <ele>353.88</ele>
  <time>2026-09-01T19:56:32Z</time>
  <course>10.08</course>
  <speed>0.06</speed>
  <fix>3d</fix>
</trkpt>
<trkpt lat="-27.2744392" lon="151.2900641">
  <ele>354.02</ele>
  <time>2026-09-01T19:56:32Z</time>
  <course>10.06</course>
  <speed>0.06</speed>
  <fix>3d</fix>
</trkpt>
<trkpt lat="-27.2744391" lon="151.290064">
  <ele>353.42</ele>
  <time>2026-09-01T19:56:32Z</time>
  <course>191.31</course>
  <speed>0.07</speed>
  <fix>3d</fix>
</trkpt>
<trkpt lat="-27.2744393" lon="151.2900641">
  <ele>354.05</ele>
  <time>2026-09-01T19:56:32Z</time>
  <course>10.06</course>
  <speed>0.06</speed>
  <fix>3d</fix>
</trkpt>
<trkpt lat="-27.2744393" lon="151.2900641">
  <ele>354.16</ele>
  <time>2026-09-01T19:56:32Z</time>
  <course>10.04</course>
  <speed>0.05</speed>
  <fix>3d</fix>
</trkpt>
<trkpt lat="-27.2744391" lon="151.290064">
  <ele>353.42</ele>
  <time>2026-09-01T19:56:32Z</time>
  <course>191.31</course>
  <speed>0.07</speed>
  <fix>3d</fix>
</trkpt>
<trkpt lat="-27.2744393" lon="151.2900641">
  <ele>354.21</ele>
  <time>2026-09-01T19:56:32Z</time>
  <course>10.04</course>
  <speed>0.05</speed>
  <fix>3d</fix>
</trkpt>
<trkpt lat="-27.2744393" lon="151.2900641">
  <ele>354.31</ele>
  <time>2026-09-01T19:56:32Z</time>
  <course>10.03</course>
  <speed>0.05</speed>
  <fix>3d</fix>
</trkpt>
<trkpt lat="-27.2744393" lon="151.2900639">
  <ele>353.71</ele>
  <time>2026-09-01T19:56:32Z</time>
  <course>192.01</course>
  <speed>0.06</speed>
  <fix>3d</fix>
</trkpt>
<trkpt lat="-27.2744393" lon="151.2900641">
  <ele>354.31</ele>
  <time>2026-09-01T19:56:32Z</time>
  <course>10.02</course>
  <speed>0.05</speed>
  <fix>3d</fix>
</trkpt>
<trkpt lat="-27.2744394" lon="151.2900641">
  <ele>354.45</ele>
  <time>2026-09-01T19:56:32Z</time>
  <course>10.01</course>
  <speed>0.04</speed>
  <fix>3d</fix>
</trkpt>
<trkpt lat="-27.2744393" lon="151.2900639">
  <ele>353.71</ele>
  <time>2026-09-01T19:56:32Z</time>
  <course>192.01</course>
  <speed>0.06</speed>
  <fix>3d</fix>
</trkpt>
<trkpt lat="-27.2744394" lon="151.2900641">
  <ele>354.49</ele>
  <time>2026-09-01T19:56:32Z</time>
  <course>10.01</course>
  <speed>0.04</speed>
  <fix>3d</fix>
</trkpt>
<trkpt lat="-27.2744394" lon="151.2900641">
  <ele>354.6</ele>
  <time>2026-09-01T19:56:32Z</time>
  <course>10.0</course>
  <speed>0.04</speed>
  <fix>3d</fix>
</trkpt>
<trkpt lat="-27.2744394" lon="151.2900639">
  <ele>354.0</ele>
  <time>2026-09-01T19:56:32Z</time>
  <course>192.0</course>
  <speed>0.04</speed>
  <fix>3d</fix>
</trkpt>
<trkpt lat="-27.2744394" lon="151.2900641">
  <ele>354.64</ele>
  <time>2026-09-01T19:56:32Z</time>
  <course>10.0</course>
  <speed>0.04</speed>
  <fix>3d</fix>
</trkpt>
<trkpt lat="-27.2744395" lon="151.2900641">
  <ele>354.74</ele>
  <time>2026-09-01T19:56:32Z</time>
  <course>10.01</course>
  <speed>0.03</speed>
  <fix>3d</fix>
</trkpt>
<trkpt lat="-27.2744394" lon="151.2900639">
  <ele>354.0</ele>
  <time>2026-09-01T19:56:32Z</time>
  <course>192.0</course>
  <speed>0.04</speed>
  <fix>3d</fix>
</trkpt>
<trkpt lat="-27.2744395" lon="151.2900641">
  <ele>354.78</ele>
  <time>2026-09-01T19:56:32Z</time>
  <course>10.02</course>
  <speed>0.03</speed>
  <fix>3d</fix>
</trkpt>
<trkpt lat="-27.2744395" lon="151.2900641">
  <ele>354.89</ele>
  <time>2026-09-01T19:56:32Z</time>
  <course>10.05</course>
  <speed>0.03</speed>
  <fix>3d</fix>
</trkpt>
<trkpt lat="-27.2744394" lon="151.2900639">
  <ele>354.29</ele>
  <time>2026-09-01T19:56:32Z</time>
  <course>193.07</course>
  <speed>0.03</speed>
  <fix>3d</fix>
</trkpt>
<trkpt lat="-27.2744395" lon="151.2900641">
  <ele>354.93</ele>
  <time>2026-09-01T19:56:32Z</time>
  <course>10.06</course>
  <speed>0.03</speed>
  <fix>3d</fix>
</trkpt>
<trkpt lat="-27.2744395" lon="151.290064">
  <ele>355.03</ele>
  <time>2026-09-01T19:56:32Z</time>
  <course>10.08</course>
  <speed>0.02</speed>
  <fix>3d</fix>
</trkpt>
<trkpt lat="-27.2744394" lon="151.2900639">
  <ele>354.29</ele>
  <time>2026-09-01T19:56:32Z</time>
  <course>193.07</course>
  <speed>0.03</speed>
  <fix>3d</fix>
</trkpt>
<trkpt lat="-27.2744395" lon="151.290064">
  <ele>355.07</ele>
  <time>2026-09-01T19:56:32Z</time>
  <course>10.09</course>
  <speed>0.02</speed>
  <fix>3d</fix>
</trkpt>
<trkpt lat="-27.2744395" lon="151.290064">
  <ele>355.17</ele>
  <time>2026-09-01T19:56:32Z</time>
  <course>10.12</course>
  <speed>0.02</speed>
  <fix>3d</fix>
</trkpt>
<trkpt lat="-27.2744395" lon="151.2900639">
  <ele>354.58</ele>
  <time>2026-09-01T19:56:32Z</time>
  <course>195.77</course>
  <speed>0.02</speed>
  <fix>3d</fix>
</trkpt>
<trkpt lat="-27.2744395" lon="151.290064">
  <ele>355.21</ele>
  <time>2026-09-01T19:56:32Z</time>
  <course>10.13</course>
  <speed>0.02</speed>
  <fix>3d</fix>
</trkpt>
<trkpt lat="-27.2744395" lon="151.290064">
  <ele>355.32</ele>
  <time>2026-09-01T19:56:32Z</time>
  <course>10.16</course>
  <speed>0.01</speed>
  <fix>3d</fix>
</trkpt>
<trkpt lat="-27.2744395" lon="151.2900639">
  <ele>354.58</ele>
  <time>2026-09-01T19:56:32Z</time>
  <course>195.77</course>
  <speed>0.02</speed>
  <fix>3d</fix>
</trkpt>
<trkpt lat="-27.2744395" lon="151.290064">
  <ele>355.32</ele>
  <time>2026-09-01T19:56:32Z</time>
  <course>10.16</course>
  <speed>0.01</speed>
  <fix>3d</fix>
</trkpt>
<trkpt lat="-27.2744395" lon="151.290064">
  <ele>355.46</ele>
  <time>2026-09-01T19:56:32Z</time>
  <course>10.22</course>
  <speed>0.01</speed>
  <fix>3d</fix>
</trkpt>
<trkpt lat="-27.2744396" lon="151.2900639">
  <ele>354.87</ele>
  <time>2026-09-01T19:56:32Z</time>
  <course>204.09</course>
  <speed>0.01</speed>
  <fix>3d</fix>
</trkpt>
<trkpt lat="-27.2744395" lon="151.290064">
  <ele>355.47</ele>
  <time>2026-09-01T19:56:32Z</time>
  <course>10.22</course>
  <speed>0.01</speed>
  <fix>3d</fix>
</trkpt>
<trkpt lat="-27.2744396" lon="151.290064">
  <ele>355.6</ele>
  <time>2026-09-01T19:56:32Z</time>
  <course>10.27</course>
  <speed>0.01</speed>
  <fix>3d</fix>
</trkpt>
<trkpt lat="-27.2744396" lon="151.2900639">
  <ele>354.87</ele>
  <time>2026-09-01T19:56:32Z</time>
  <course>204.09</course>
  <speed>0.01</speed>
  <fix>3d</fix>
</trkpt>
<trkpt lat="-27.2744396" lon="151.290064">
  <ele>355.65</ele>
  <time>2026-09-01T19:56:32Z</time>
  <course>10.29</course>
  <speed>0.01</speed>
  <fix>3d</fix>
</trkpt>
<trkpt lat="-27.2744396" lon="151.290064">
  <ele>355.75</ele>
  <time>2026-09-01T19:56:32Z</time>
  <course>10.32</course>
  <speed>0.01</speed>
  <fix>3d</fix>
</trkpt>
<trkpt lat="-27.2744396" lon="151.2900639">
  <ele>355.15</ele>
  <time>2026-09-01T19:56:32Z</time>
  <course>227.9</course>
  <speed>0.0</speed>
  <fix>3d</fix>
</trkpt>
<trkpt lat="-27.2744396" lon="151.290064">
  <ele>355.78</ele>
  <time>2026-09-01T19:56:32Z</time>
  <course>10.33</course>
  <speed>0.0</speed>
  <fix>3d</fix>
</trkpt>
<trkpt lat="-27.2744396" lon="151.290064">
  <ele>355.89</ele>
  <time>2026-09-01T19:56:32Z</time>
  <course>10.36</course>
  <speed>0.0</speed>
  <fix>3d</fix>
</trkpt>
<trkpt lat="-27.2744396" lon="151.2900639">
  <ele>355.15</ele>
  <time>2026-09-01T19:56:32Z</time>
  <course>227.9</course>
  <speed>0.0</speed>
  <fix>3d</fix>
</trkpt>
<trkpt lat="-27.2744396" lon="151.290064">
  <ele>355.93</ele>
  <time>2026-09-01T19:56:32Z</time>
  <course>10.37</course>
  <speed>0.0</speed>
  <fix>3d</fix>
</trkpt>
<trkpt lat="-27.2744396" lon="151.290064">
  <ele>356.03</ele>
  <time>2026-09-01T19:56:32Z</time>
  <course>10.39</course>
  <speed>0.0</speed>
  <fix>3d</fix>
</trkpt>
<trkpt lat="-27.2744396" lon="151.2900639">
  <ele>355.44</ele>
  <time>2026-09-01T19:56:32Z</time>
  <course>274.67</course>
  <speed>0.0</speed>
  <fix>3d</fix>
</trkpt>
<trkpt lat="-27.2744396" lon="151.290064">
  <ele>356.07</ele>
  <time>2026-09-01T19:56:32Z</time>
  <course>10.4</course>
  <speed>0.0</speed>
  <fix>3d</fix>
</trkpt>
<trkpt lat="-27.2744396" lon="151.290064">
  <ele>356.17</ele>
  <time>2026-09-01T19:56:32Z</time>
  <course>10.42</course>
  <speed>0.0</speed>
  <fix>3d</fix>
</trkpt>
<trkpt lat="-27.2744396" lon="151.2900639">
  <ele>355.44</ele>
  <time>2026-09-01T19:56:32Z</time>
  <course>274.67</course>
  <speed>0.0</speed>
  <fix>3d</fix>
</trkpt>
<trkpt lat="-27.2744396" lon="151.290064">
  <ele>356.21</ele>
  <time>2026-09-01T19:56:32Z</time>
  <course>10.43</course>
  <speed>0.0</speed>
  <fix>3d</fix>
</trkpt>
<trkpt lat="-27.2744396" lon="151.290064">
  <ele>356.31</ele>
  <time>2026-09-01T19:56:32Z</time>
  <course>10.46</course>
  <speed>0.0</speed>
  <fix>3d</fix>
</trkpt>
<trkpt lat="-27.2744396" lon="151.2900638">
  <ele>355.73</ele>
  <time>2026-09-01T19:56:32Z</time>
  <course>329.0</course>
  <speed>0.0</speed>
  <fix>3d</fix>
</trkpt>
<trkpt lat="-27.2744396" lon="151.290064">
  <ele>356.35</ele>
  <time>2026-09-01T19:56:32Z</time>
  <course>10.47</course>
  <speed>0.0</speed>
  <fix>3d</fix>
</trkpt>
<trkpt lat="-27.2744396" lon="151.290064">
  <ele>356.46</ele>
  <time>2026-09-01T19:56:32Z</time>
  <course>10.49</course>
  <speed>0.0</speed>
  <fix>3d</fix>
</trkpt>
<trkpt lat="-27.2744396" lon="151.2900638">
  <ele>355.73</ele>
  <time>2026-09-01T19:56:32Z</time>
  <course>329.0</course>
  <speed>0.0</speed>
  <fix>3d</fix>
</trkpt>
<trkpt lat="-27.2744396" lon="151.290064">
  <ele>356.5</ele>
  <time>2026-09-01T19:56:32Z</time>
  <course>10.5</course>
  <speed>0.0</speed>
  <fix>3d</fix>
</trkpt>
<trkpt lat="-27.2744396" lon="151.290064">
  <ele>356.6</ele>
  <time>2026-09-01T19:56:32Z</time>
  <course>10.52</course>
  <speed>0.0</speed>
  <fix>3d</fix>
</trkpt>
<trkpt lat="-27.2744396" lon="151.2900637">
  <ele>356.02</ele>
  <time>2026-09-01T19:56:32Z</time>
  <course>342.55</course>
  <speed>0.01</speed>
  <fix>3d</fix>
</trkpt>
<trkpt lat="-27.2744396" lon="151.290064">
  <ele>356.64</ele>
  <time>2026-09-01T19:56:32Z</time>
  <course>10.52</course>
  <speed>0.0</speed>
  <fix>3d</fix>
</trkpt>
<trkpt lat="-27.2744396" lon="151.2900639">
  <ele>356.75</ele>
  <time>2026-09-01T19:56:32Z</time>
  <course>10.53</course>
  <speed>0.0</speed>
  <fix>3d</fix>
</trkpt>
<trkpt lat="-27.2744396" lon="151.2900637">
  <ele>356.02</ele>
  <time>2026-09-01T19:56:32Z</time>
  <course>342.55</course>
  <speed>0.01</speed>
  <fix>3d</fix>
</trkpt>
<trkpt lat="-27.2744396" lon="151.2900639">
  <ele>356.78</ele>
  <time>2026-09-01T19:56:32Z</time>
  <course>10.53</course>
  <speed>0.0</speed>
  <fix>3d</fix>
</trkpt>
<trkpt lat="-27.2744396" lon="151.2900639">
  <ele>356.89</ele>
  <time>2026-09-01T19:56:32Z</time>
  <course>10.53</course>
  <speed>0.0</speed>
  <fix>3d</fix>
</trkpt>
<trkpt lat="-27.2744396" lon="151.2900637">
  <ele>356.31</ele>
  <time>2026-09-01T19:56:32Z</time>
  <course>346.67</course>
  <speed>0.01</speed>
  <fix>3d</fix>
</trkpt>
<trkpt lat="-27.2744396" lon="151.2900639">
  <ele>356.89</ele>
  <time>2026-09-01T19:56:32Z</time>
  <course>10.53</course>
  <speed>0.0</speed>
  <fix>3d</fix>
</trkpt>
<trkpt lat="-27.2744396" lon="151.2900639">
  <ele>357.04</ele>
  <time>2026-09-01T19:56:32Z</time>
  <course>10.53</course>
  <speed>0.0</speed>
  <fix>3d</fix>
</trkpt>
<trkpt lat="-27.2744396" lon="151.2900637">
  <ele>356.31</ele>
  <time>2026-09-01T19:56:32Z</time>
  <course>346.67</course>
  <speed>0.01</speed>
  <fix>3d</fix>
</trkpt>
<trkpt lat="-27.2744396" lon="151.2900639">
  <ele>357.05</ele>
  <time>2026-09-01T19:56:32Z</time>
  <course>10.53</course>
  <speed>0.0</speed>
  <fix>3d</fix>
</trkpt>
<trkpt lat="-27.2744396" lon="151.2900639">
  <ele>357.18</ele>
  <time>2026-09-01T19:56:32Z</time>
  <course>10.53</course>
  <speed>0.0</speed>
  <fix>3d</fix>
</trkpt>
<trkpt lat="-27.2744396" lon="151.2900637">
  <ele>356.6</ele>
  <time>2026-09-01T19:56:32Z</time>
  <course>351.76</course>
  <speed>0.02</speed>
  <fix>3d</fix>
</trkpt>
<trkpt lat="-27.2744396" lon="151.2900639">
  <ele>357.22</ele>
  <time>2026-09-01T19:56:32Z</time>
  <course>10.53</course>
  <speed>0.0</speed>
  <fix>3d</fix>
</trkpt>
<trkpt lat="-27.2744396" lon="151.2900639">
  <ele>357.33</ele>
  <time>2026-09-01T19:56:32Z</time>
  <course>10.53</course>
  <speed>0.01</speed>
  <fix>3d</fix>
</trkpt>
<trkpt lat="-27.2744396" lon="151.2900637">
  <ele>356.6</ele>
  <time>2026-09-01T19:56:32Z</time>
  <course>351.76</course>
  <speed>0.02</speed>
  <fix>3d</fix>
</trkpt>
<trkpt lat="-27.2744396" lon="151.2900639">
  <ele>357.37</ele>
  <time>2026-09-01T19:56:32Z</time>
  <course>10.53</course>
  <speed>0.01</speed>
  <fix>3d</fix>
</trkpt>
<trkpt lat="-27.2744396" lon="151.2900639">
  <ele>357.48</ele>
  <time>2026-09-01T19:56:32Z</time>
  <course>10.53</course>
  <speed>0.01</speed>
  <fix>3d</fix>
</trkpt>
<trkpt lat="-27.2744395" lon="151.2900637">
  <ele>356.89</ele>
  <time>2026-09-01T19:56:32Z</time>
  <course>356.84</course>
  <speed>0.02</speed>
  <fix>3d</fix>
</trkpt>
<trkpt lat="-27.2744396" lon="151.2900639">
  <ele>357.51</ele>
  <time>2026-09-01T19:56:32Z</time>
  <course>10.53</course>
  <speed>0.01</speed>
  <fix>3d</fix>
</trkpt>
<trkpt lat="-27.2744396" lon="151.2900639">
  <ele>357.62</ele>
  <time>2026-09-01T19:56:32Z</time>
  <course>10.54</course>
  <speed>0.01</speed>
  <fix>3d</fix>
</trkpt>
<trkpt lat="-27.2744395" lon="151.2900637">
  <ele>356.89</ele>
  <time>2026-09-01T19:56:32Z</time>
  <course>356.84</course>
  <speed>0.02</speed>
  <fix>3d</fix>
</trkpt>
<trkpt lat="-27.2744396" lon="151.2900639">
  <ele>357.66</ele>
  <time>2026-09-01T19:56:32Z</time>
  <course>10.54</course>
  <speed>0.01</speed>
  <fix>3d</fix>
</trkpt>
<trkpt lat="-27.2744395" lon="151.2900638">
  <ele>357.77</ele>
  <time>2026-09-01T19:56:32Z</time>
  <course>10.55</course>
  <speed>0.01</speed>
  <fix>3d</fix>
</trkpt>
<trkpt lat="-27.2744395" lon="151.2900637">
  <ele>357.17</ele>
  <time>2026-09-01T19:56:32Z</time>
  <course>1.37</course>
  <speed>0.02</speed>
  <fix>3d</fix>
</trkpt>
<trkpt lat="-27.2744395" lon="151.2900638">
  <ele>357.8</ele>
  <time>2026-09-01T19:56:32Z</time>
  <course>10.56</course>
  <speed>0.01</speed>
  <fix>3d</fix>
</trkpt>
<trkpt lat="-27.2744395" lon="151.2900638">
  <ele>357.91</ele>
  <time>2026-09-01T19:56:32Z</time>
  <course>10.58</course>
  <speed>0.02</speed>
  <fix>3d</fix>
</trkpt>
<trkpt lat="-27.2744395" lon="151.2900637">
  <ele>357.17</ele>
  <time>2026-09-01T19:56:32Z</time>
  <course>1.37</course>
  <speed>0.02</speed>
  <fix>3d</fix>
</trkpt>
<trkpt lat="-27.2744395" lon="151.2900638">
  <ele>357.95</ele>
  <time>2026-09-01T19:56:32Z</time>
  <course>10.58</course>
  <speed>0.02</speed>
  <fix>3d</fix>
</trkpt>
<trkpt lat="-27.2744395" lon="151.2900638">
  <ele>358.05</ele>
  <time>2026-09-01T19:56:32Z</time>
  <course>10.61</course>
  <speed>0.02</speed>
  <fix>3d</fix>
</trkpt>
<trkpt lat="-27.2744394" lon="151.2900637">
  <ele>357.46</ele>
  <time>2026-09-01T19:56:32Z</time>
  <course>4.69</course>
  <speed>0.03</speed>
  <fix>3d</fix>
</trkpt>
<trkpt lat="-27.2744395" lon="151.2900638">
  <ele>358.09</ele>
  <time>2026-09-01T19:56:32Z</time>
  <course>10.62</course>
  <speed>0.02</speed>
  <fix>3d</fix>
</trkpt>
<trkpt lat="-27.2744395" lon="151.2900638">
  <ele>358.2</ele>
  <time>2026-09-01T19:56:32Z</time>
  <course>10.64</course>
  <speed>0.02</speed>
  <fix>3d</fix>
</trkpt>
<trkpt lat="-27.2744394" lon="151.2900637">
  <ele>357.46</ele>
  <time>2026-09-01T19:56:32Z</time>
  <course>4.69</course>
  <speed>0.03</speed>
  <fix>3d</fix>
</trkpt>
<trkpt lat="-27.2744394" lon="151.2900638">
  <ele>358.24</ele>
  <time>2026-09-01T19:56:32Z</time>
  <course>10.65</course>
  <speed>0.02</speed>
  <fix>3d</fix>
</trkpt>
<trkpt lat="-27.2744394" lon="151.2900638">
  <ele>358.34</ele>
  <time>2026-09-01T19:56:32Z</time>
  <course>10.67</course>
  <speed>0.02</speed>
  <fix>3d</fix>
</trkpt>
<trkpt lat="-27.2744394" lon="151.2900637">
  <ele>357.75</ele>
  <time>2026-09-01T19:56:32Z</time>
  <course>5.66</course>
  <speed>0.03</speed>
  <fix>3d</fix>
</trkpt>
<trkpt lat="-27.2744394" lon="151.2900638">
  <ele>358.38</ele>
  <time>2026-09-01T19:56:32Z</time>
  <course>10.68</course>
  <speed>0.02</speed>
  <fix>3d</fix>
</trkpt>
<trkpt lat="-27.2744394" lon="151.2900638">
  <ele>358.48</ele>
  <time>2026-09-01T19:56:32Z</time>
  <course>10.7</course>
  <speed>0.02</speed>
  <fix>3d</fix>
</trkpt>
<trkpt lat="-27.2744394" lon="151.2900637">
  <ele>357.75</ele>
  <time>2026-09-01T19:56:32Z</time>
  <course>5.66</course>
  <speed>0.03</speed>
  <fix>3d</fix>
</trkpt>
<trkpt lat="-27.2744394" lon="151.2900638">
  <ele>358.49</ele>
  <time>2026-09-01T19:56:32Z</time>
  <course>10.7</course>
  <speed>0.02</speed>
  <fix>3d</fix>
</trkpt>
<trkpt lat="-27.2744394" lon="151.2900638">
  <ele>358.63</ele>
  <time>2026-09-01T19:56:32Z</time>
  <course>10.72</course>
  <speed>0.02</speed>
  <fix>3d</fix>
</trkpt>
<trkpt lat="-27.2744393" lon="151.2900637">
  <ele>358.04</ele>
  <time>2026-09-01T19:56:32Z</time>
  <course>5.36</course>
  <speed>0.04</speed>
  <fix>3d</fix>
</trkpt>
<trkpt lat="-27.2744394" lon="151.2900638">
  <ele>358.63</ele>
  <time>2026-09-01T19:56:32Z</time>
  <course>10.72</course>
  <speed>0.02</speed>
  <fix>3d</fix>
</trkpt>
<trkpt lat="-27.2744393" lon="151.2900638">
  <ele>358.77</ele>
  <time>2026-09-01T19:56:32Z</time>
  <course>10.73</course>
  <speed>0.02</speed>
  <fix>3d</fix>
</trkpt>
<trkpt lat="-27.2744393" lon="151.2900637">
  <ele>358.04</ele>
  <time>2026-09-01T19:56:32Z</time>
  <course>5.36</course>
  <speed>0.04</speed>
  <fix>3d</fix>
</trkpt>
<trkpt lat="-27.2744393" lon="151.2900638">
  <ele>358.81</ele>
  <time>2026-09-01T19:56:32Z</time>
  <course>10.74</course>
  <speed>0.02</speed>
  <fix>3d</fix>
</trkpt>
<trkpt lat="-27.2744393" lon="151.2900638">
  <ele>358.91</ele>
  <time>2026-09-01T19:56:32Z</time>
  <course>10.75</course>
  <speed>0.02</speed>
  <fix>3d</fix>
</trkpt>
<trkpt lat="-27.2744392" lon="151.2900637">
  <ele>358.33</ele>
  <time>2026-09-01T19:56:32Z</time>
  <course>6.57</course>
  <speed>0.04</speed>
  <fix>3d</fix>
</trkpt>
<trkpt lat="-27.2744393" lon="151.2900638">
  <ele>358.95</ele>
  <time>2026-09-01T19:56:32Z</time>
  <course>10.75</course>
  <speed>0.02</speed>
  <fix>3d</fix>
</trkpt>
<trkpt lat="-27.2744393" lon="151.2900638">
  <ele>359.05</ele>
  <time>2026-09-01T19:56:32Z</time>
  <course>10.76</course>
  <speed>0.02</speed>
  <fix>3d</fix>
</trkpt>
<trkpt lat="-27.2744392" lon="151.2900637">
  <ele>358.33</ele>
  <time>2026-09-01T19:56:32Z</time>
  <course>6.57</course>
  <speed>0.04</speed>
  <fix>3d</fix>
</trkpt>
<trkpt lat="-27.2744393" lon="151.2900638">
  <ele>359.09</ele>
  <time>2026-09-01T19:56:32Z</time>
  <course>10.76</course>
  <speed>0.02</speed>
  <fix>3d</fix>
</trkpt>
<trkpt lat="-27.2744392" lon="151.2900638">
  <ele>359.19</ele>
  <time>2026-09-01T19:56:32Z</time>
  <course>10.76</course>
  <speed>0.02</speed>
  <fix>3d</fix>
</trkpt>
<trkpt lat="-27.2744392" lon="151.2900637">
  <ele>358.62</ele>
  <time>2026-09-01T19:56:32Z</time>
  <course>10.19</course>
  <speed>0.03</speed>
  <fix>3d</fix>
</trkpt>
<trkpt lat="-27.2744392" lon="151.2900638">
  <ele>359.22</ele>
  <time>2026-09-01T19:56:32Z</time>
  <course>10.77</course>
  <speed>0.02</speed>
  <fix>3d</fix>
</trkpt>
<trkpt lat="-27.2744392" lon="151.2900638">
  <ele>359.33</ele>
  <time>2026-09-01T19:56:32Z</time>
  <course>10.78</course>
  <speed>0.02</speed>
  <fix>3d</fix>
</trkpt>
<trkpt lat="-27.2744392" lon="151.2900637">
  <ele>358.62</ele>
  <time>2026-09-01T19:56:32Z</time>
  <course>10.19</course>
  <speed>0.03</speed>
  <fix>3d</fix>
</trkpt>
<trkpt lat="-27.2744392" lon="151.2900638">
  <ele>359.36</ele>
  <time>2026-09-01T19:56:32Z</time>
  <course>10.78</course>
  <speed>0.02</speed>
  <fix>3d</fix>
</trkpt>
<trkpt lat="-27.2744392" lon="151.2900638">
  <ele>359.47</ele>
  <time>2026-09-01T19:56:32Z</time>
  <course>10.8</course>
  <speed>0.02</speed>
  <fix>3d</fix>
</trkpt>
<trkpt lat="-27.2744391" lon="151.2900637">
  <ele>358.9</ele>
  <time>2026-09-01T19:56:32Z</time>
  <course>14.26</course>
  <speed>0.03</speed>
  <fix>3d</fix>
</trkpt>
<trkpt lat="-27.2744392" lon="151.2900638">
  <ele>359.51</ele>
  <time>2026-09-01T19:56:32Z</time>
  <course>10.8</course>
  <speed>0.01</speed>
  <fix>3d</fix>
</trkpt>
<trkpt lat="-27.2744391" lon="151.2900638">
  <ele>359.61</ele>
  <time>2026-09-01T19:56:32Z</time>
  <course>10.82</course>
  <speed>0.01</speed>
  <fix>3d</fix>
</trkpt>
<trkpt lat="-27.2744391" lon="151.2900637">
  <ele>358.9</ele>
  <time>2026-09-01T19:56:32Z</time>
  <course>14.26</course>
  <speed>0.03</speed>
  <fix>3d</fix>
</trkpt>
<trkpt lat="-27.2744391" lon="151.2900638">
  <ele>359.65</ele>
  <time>2026-09-01T19:56:32Z</time>
  <course>10.82</course>
  <speed>0.01</speed>
  <fix>3d</fix>
</trkpt>
<trkpt lat="-27.2744391" lon="151.2900638">
  <ele>359.75</ele>
  <time>2026-09-01T19:56:32Z</time>
  <course>10.84</course>
  <speed>0.01</speed>
  <fix>3d</fix>
</trkpt>
<trkpt lat="-27.274439" lon="151.2900637">
  <ele>359.19</ele>
  <time>2026-09-01T19:56:32Z</time>
  <course>17.88</course>
  <speed>0.03</speed>
  <fix>3d</fix>
</trkpt>
<trkpt lat="-27.2744391" lon="151.2900638">
  <ele>359.79</ele>
  <time>2026-09-01T19:56:32Z</time>
  <course>10.84</course>
  <speed>0.01</speed>
  <fix>3d</fix>
</trkpt>
<trkpt lat="-27.2744391" lon="151.2900638">
  <ele>359.9</ele>
  <time>2026-09-01T19:56:32Z</time>
  <course>10.86</course>
  <speed>0.01</speed>
  <fix>3d</fix>
</trkpt>
<trkpt lat="-27.274439" lon="151.2900637">
  <ele>359.19</ele>
  <time>2026-09-01T19:56:32Z</time>
  <course>17.88</course>
  <speed>0.03</speed>
  <fix>3d</fix>
</trkpt>
<trkpt lat="-27.2744391" lon="151.2900638">
  <ele>359.93</ele>
  <time>2026-09-01T19:56:32Z</time>
  <course>10.87</course>
  <speed>0.01</speed>
  <fix>3d</fix>
</trkpt>
<trkpt lat="-27.2744391" lon="151.2900638">
  <ele>360.04</ele>
  <time>2026-09-01T19:56:32Z</time>
  <course>10.89</course>
  <speed>0.01</speed>
  <fix>3d</fix>
</trkpt>
<trkpt lat="-27.274439" lon="151.2900637">
  <ele>359.48</ele>
  <time>2026-09-01T19:56:32Z</time>
  <course>19.71</course>
  <speed>0.03</speed>
  <fix>3d</fix>
</trkpt>
<trkpt lat="-27.2744391" lon="151.2900638">
  <ele>360.05</ele>
  <time>2026-09-01T19:56:32Z</time>
  <course>10.89</course>
  <speed>0.01</speed>
  <fix>3d</fix>
</trkpt>
<trkpt lat="-27.274439" lon="151.2900638">
  <ele>360.19</ele>
  <time>2026-09-01T19:56:32Z</time>
  <course>10.92</course>
  <speed>0.01</speed>
  <fix>3d</fix>
</trkpt>
<trkpt lat="-27.274439" lon="151.2900637">
  <ele>359.48</ele>
  <time>2026-09-01T19:56:32Z</time>
  <course>19.71</course>
  <speed>0.03</speed>
  <fix>3d</fix>
</trkpt>
<trkpt lat="-27.274439" lon="151.2900638">
  <ele>360.19</ele>
  <time>2026-09-01T19:56:32Z</time>
  <course>10.92</course>
  <speed>0.01</speed>
  <fix>3d</fix>
</trkpt>
<trkpt lat="-27.274439" lon="151.2900638">
  <ele>360.33</ele>
  <time>2026-09-01T19:56:32Z</time>
  <course>10.93</course>
  <speed>0.01</speed>
  <fix>3d</fix>
</trkpt>
<trkpt lat="-27.2744389" lon="151.2900638">
  <ele>359.77</ele>
  <time>2026-09-01T19:56:32Z</time>
  <course>19.3</course>
  <speed>0.03</speed>
  <fix>3d</fix>
</trkpt>
<trkpt lat="-27.274439" lon="151.2900638">
  <ele>360.37</ele>
  <time>2026-09-01T19:56:32Z</time>
  <course>10.94</course>
  <speed>0.01</speed>
  <fix>3d</fix>
</trkpt>
<trkpt lat="-27.274439" lon="151.2900638">
  <ele>360.48</ele>
  <time>2026-09-01T19:56:32Z</time>
  <course>10.95</course>
  <speed>0.01</speed>
  <fix>3d</fix>
</trkpt>
<trkpt lat="-27.2744389" lon="151.2900638">
  <ele>359.77</ele>
  <time>2026-09-01T19:56:32Z</time>
  <course>19.3</course>
  <speed>0.03</speed>
  <fix>3d</fix>
</trkpt>
<trkpt lat="-27.274439" lon="151.2900638">
  <ele>360.51</ele>
  <time>2026-09-01T19:56:32Z</time>
  <course>10.95</course>
  <speed>0.01</speed>
  <fix>3d</fix>
</trkpt>
<trkpt lat="-27.2744389" lon="151.2900638">
  <ele>360.62</ele>
  <time>2026-09-01T19:56:32Z</time>
  <course>10.95</course>
  <speed>0.01</speed>
  <fix>3d</fix>
</trkpt>
<trkpt lat="-27.2744388" lon="151.2900639">
  <ele>360.06</ele>
  <time>2026-09-01T19:56:32Z</time>
  <course>19.91</course>
  <speed>0.03</speed>
  <fix>3d</fix>
</trkpt>
<trkpt lat="-27.2744389" lon="151.2900638">
  <ele>360.66</ele>
  <time>2026-09-01T19:56:32Z</time>
  <course>10.95</course>
  <speed>0.01</speed>
  <fix>3d</fix>
</trkpt>
<trkpt lat="-27.2744389" lon="151.2900638">
  <ele>360.77</ele>
  <time>2026-09-01T19:56:32Z</time>
  <course>10.96</course>
  <speed>0.01</speed>
  <fix>3d</fix>
</trkpt>
<trkpt lat="-27.2744388" lon="151.2900639">
  <ele>360.06</ele>
  <time>2026-09-01T19:56:32Z</time>
  <course>19.91</course>
  <speed>0.03</speed>
  <fix>3d</fix>
</trkpt>
<trkpt lat="-27.2744389" lon="151.2900638">
  <ele>360.8</ele>
  <time>2026-09-01T19:56:32Z</time>
  <course>10.96</course>
  <speed>0.01</speed>
  <fix>3d</fix>
</trkpt>
<trkpt lat="-27.2744389" lon="151.2900638">
  <ele>360.91</ele>
  <time>2026-09-01T19:56:32Z</time>
  <course>10.96</course>
  <speed>0.01</speed>
  <fix>3d</fix>
</trkpt>
<trkpt lat="-27.2744388" lon="151.2900639">
  <ele>360.36</ele>
  <time>2026-09-01T19:56:32Z</time>
  <course>22.22</course>
  <speed>0.03</speed>
  <fix>3d</fix>
</trkpt>
<trkpt lat="-27.2744389" lon="151.2900638">
  <ele>360.95</ele>
  <time>2026-09-01T19:56:32Z</time>
  <course>10.96</course>
  <speed>0.01</speed>
  <fix>3d</fix>
</trkpt>
<trkpt lat="-27.2744389" lon="151.2900638">
  <ele>361.06</ele>
  <time>2026-09-01T19:56:32Z</time>
  <course>10.97</course>
  <speed>0.01</speed>
  <fix>3d</fix>
</trkpt>
<trkpt lat="-27.2744388" lon="151.2900639">
  <ele>360.36</ele>
  <time>2026-09-01T19:56:32Z</time>
  <course>22.22</course>
  <speed>0.03</speed>
  <fix>3d</fix>
</trkpt>
<trkpt lat="-27.2744389" lon="151.2900638">
  <ele>361.09</ele>
  <time>2026-09-01T19:56:32Z</time>
  <course>10.97</course>
  <speed>0.01</speed>
  <fix>3d</fix>
</trkpt>
<trkpt lat="-27.2744388" lon="151.2900638">
  <ele>361.21</ele>
  <time>2026-09-01T19:56:32Z</time>
  <course>10.98</course>
  <speed>0.01</speed>
  <fix>3d</fix>
</trkpt>
<trkpt lat="-27.2744387" lon="151.2900639">
  <ele>360.65</ele>
  <time>2026-09-01T19:56:32Z</time>
  <course>25.71</course>
  <speed>0.03</speed>
  <fix>3d</fix>
</trkpt>
<trkpt lat="-27.2744388" lon="151.2900638">
  <ele>361.25</ele>
  <time>2026-09-01T19:56:32Z</time>
  <course>10.99</course>
  <speed>0.01</speed>
  <fix>3d</fix>
</trkpt>
<trkpt lat="-27.2744388" lon="151.2900638">
  <ele>361.35</ele>
  <time>2026-09-01T19:56:32Z</time>
  <course>11.0</course>
  <speed>0.0</speed>
  <fix>3d</fix>
</trkpt>
<trkpt lat="-27.2744387" lon="151.2900639">
  <ele>360.65</ele>
  <time>2026-09-01T19:56:32Z</time>
  <course>25.71</course>
  <speed>0.03</speed>
  <fix>3d</fix>
</trkpt>
<trkpt lat="-27.2744388" lon="151.2900638">
  <ele>361.39</ele>
  <time>2026-09-01T19:56:32Z</time>
  <course>11.0</course>
  <speed>0.0</speed>
  <fix>3d</fix>
</trkpt>
<trkpt lat="-27.2744388" lon="151.2900638">
  <ele>361.5</ele>
  <time>2026-09-01T19:56:32Z</time>
  <course>11.01</course>
  <speed>0.0</speed>
  <fix>3d</fix>
</trkpt>
<trkpt lat="-27.2744387" lon="151.2900639">
  <ele>360.94</ele>
  <time>2026-09-01T19:56:32Z</time>
  <course>28.94</course>
  <speed>0.02</speed>
  <fix>3d</fix>
</trkpt>
<trkpt lat="-27.2744388" lon="151.2900638">
  <ele>361.54</ele>
  <time>2026-09-01T19:56:32Z</time>
  <course>11.01</course>
  <speed>0.0</speed>
  <fix>3d</fix>
</trkpt>
<trkpt lat="-27.2744388" lon="151.2900638">
  <ele>361.64</ele>
  <time>2026-09-01T19:56:32Z</time>
  <course>11.02</course>
  <speed>0.0</speed>
  <fix>3d</fix>
</trkpt>
<trkpt lat="-27.2744387" lon="151.2900639">
  <ele>360.94</ele>
  <time>2026-09-01T19:56:32Z</time>
  <course>28.94</course>
  <speed>0.02</speed>
  <fix>3d</fix>
</trkpt>
<trkpt lat="-27.2744388" lon="151.2900638">
  <ele>361.65</ele>
  <time>2026-09-01T19:56:32Z</time>
  <course>11.02</course>
  <speed>0.0</speed>
  <fix>3d</fix>
</trkpt>
<trkpt lat="-27.2744388" lon="151.2900639">
  <ele>361.79</ele>
  <time>2026-09-01T19:56:32Z</time>
  <course>11.04</course>
  <speed>0.0</speed>
  <fix>3d</fix>
</trkpt>
<trkpt lat="-27.2744387" lon="151.290064">
  <ele>361.23</ele>
  <time>2026-09-01T19:56:32Z</time>
  <course>32.97</course>
  <speed>0.02</speed>
  <fix>3d</fix>
</trkpt>
<trkpt lat="-27.2744388" lon="151.2900639">
  <ele>361.8</ele>
  <time>2026-09-01T19:56:32Z</time>
  <course>11.04</course>
  <speed>0.0</speed>
  <fix>3d</fix>
</trkpt>
<trkpt lat="-27.2744388" lon="151.2900639">
  <ele>361.94</ele>
  <time>2026-09-01T19:56:32Z</time>
  <course>11.06</course>
  <speed>0.0</speed>
  <fix>3d</fix>
</trkpt>
<trkpt lat="-27.2744387" lon="151.290064">
  <ele>361.23</ele>
  <time>2026-09-01T19:56:32Z</time>
  <course>32.97</course>
  <speed>0.02</speed>
  <fix>3d</fix>
</trkpt>
<trkpt lat="-27.2744388" lon="151.2900639">
  <ele>361.97</ele>
  <time>2026-09-01T19:56:32Z</time>
  <course>11.07</course>
  <speed>0.0</speed>
  <fix>3d</fix>
</trkpt>
<trkpt lat="-27.2744387" lon="151.2900639">
  <ele>362.08</ele>
  <time>2026-09-01T19:56:32Z</time>
  <course>11.08</course>
  <speed>0.0</speed>
  <fix>3d</fix>
</trkpt>
<trkpt lat="-27.2744386" lon="151.290064">
  <ele>361.52</ele>
  <time>2026-09-01T19:56:32Z</time>
  <course>38.51</course>
  <speed>0.01</speed>
  <fix>3d</fix>
</trkpt>
<trkpt lat="-27.2744387" lon="151.2900639">
  <ele>362.12</ele>
  <time>2026-09-01T19:56:32Z</time>
  <course>11.09</course>
  <speed>0.0</speed>
  <fix>3d</fix>
</trkpt>
<trkpt lat="-27.2744387" lon="151.2900639">
  <ele>362.22</ele>
  <time>2026-09-01T19:56:32Z</time>
  <course>11.1</course>
  <speed>0.0</speed>
  <fix>3d</fix>
</trkpt>
<trkpt lat="-27.2744386" lon="151.290064">
  <ele>361.52</ele>
  <time>2026-09-01T19:56:32Z</time>
  <course>38.51</course>
  <speed>0.01</speed>
  <fix>3d</fix>
</trkpt>
<trkpt lat="-27.2744387" lon="151.2900639">
  <ele>362.26</ele>
  <time>2026-09-01T19:56:32Z</time>
  <course>11.1</course>
  <speed>0.0</speed>
  <fix>3d</fix>
</trkpt>
<trkpt lat="-27.2744387" lon="151.2900639">
  <ele>362.37</ele>
  <time>2026-09-01T19:56:32Z</time>
  <course>11.1</course>
  <speed>0.0</speed>
  <fix>3d</fix>
</trkpt>
<trkpt lat="-27.2744386" lon="151.290064">
  <ele>361.81</ele>
  <time>2026-09-01T19:56:32Z</time>
  <course>43.49</course>
  <speed>0.01</speed>
  <fix>3d</fix>
</trkpt>
<trkpt lat="-27.2744387" lon="151.2900639">
  <ele>362.41</ele>
  <time>2026-09-01T19:56:32Z</time>
  <course>11.1</course>
  <speed>0.0</speed>
  <fix>3d</fix>
</trkpt>
<trkpt lat="-27.2744387" lon="151.2900639">
  <ele>362.51</ele>
  <time>2026-09-01T19:56:32Z</time>
  <course>11.1</course>
  <speed>0.01</speed>
  <fix>3d</fix>
</trkpt>
<trkpt lat="-27.2744386" lon="151.290064">
  <ele>361.81</ele>
  <time>2026-09-01T19:56:32Z</time>
  <course>43.49</course>
  <speed>0.01</speed>
  <fix>3d</fix>
</trkpt>
<trkpt lat="-27.2744387" lon="151.2900639">
  <ele>362.54</ele>
  <time>2026-09-01T19:56:32Z</time>
  <course>11.1</course>
  <speed>0.01</speed>
  <fix>3d</fix>
</trkpt>
<trkpt lat="-27.2744387" lon="151.2900639">
  <ele>362.65</ele>
  <time>2026-09-01T19:56:32Z</time>
  <course>11.09</course>
  <speed>0.01</speed>
  <fix>3d</fix>
</trkpt>
<trkpt lat="-27.2744386" lon="151.290064">
  <ele>362.1</ele>
  <time>2026-09-01T19:56:32Z</time>
  <course>58.49</course>
  <speed>0.0</speed>
  <fix>3d</fix>
</trkpt>
<trkpt lat="-27.2744387" lon="151.2900639">
  <ele>362.66</ele>
  <time>2026-09-01T19:56:32Z</time>
  <course>11.09</course>
  <speed>0.01</speed>
  <fix>3d</fix>
</trkpt>
<trkpt lat="-27.2744387" lon="151.2900639">
  <ele>362.8</ele>
  <time>2026-09-01T19:56:32Z</time>
  <course>11.07</course>
  <speed>0.01</speed>
  <fix>3d</fix>
</trkpt>
<trkpt lat="-27.2744386" lon="151.290064">
  <ele>362.1</ele>
  <time>2026-09-01T19:56:32Z</time>
  <course>58.49</course>
  <speed>0.0</speed>
  <fix>3d</fix>
</trkpt>
<trkpt lat="-27.2744387" lon="151.2900639">
  <ele>362.83</ele>
  <time>2026-09-01T19:56:32Z</time>
  <course>11.06</course>
  <speed>0.01</speed>
  <fix>3d</fix>
</trkpt>
<trkpt lat="-27.2744387" lon="151.2900639">
  <ele>362.94</ele>
  <time>2026-09-01T19:56:32Z</time>
  <course>11.05</course>
  <speed>0.01</speed>
  <fix>3d</fix>
</trkpt>
<trkpt lat="-27.2744386" lon="151.290064">
  <ele>362.39</ele>
  <time>2026-09-01T19:56:32Z</time>
  <course>94.83</course>
  <speed>0.0</speed>
  <fix>3d</fix>
</trkpt>
<trkpt lat="-27.2744387" lon="151.2900639">
  <ele>362.98</ele>
  <time>2026-09-01T19:56:32Z</time>
  <course>11.04</course>
  <speed>0.01</speed>
  <fix>3d</fix>
</trkpt>
<trkpt lat="-27.2744387" lon="151.2900639">
  <ele>363.09</ele>
  <time>2026-09-01T19:56:32Z</time>
  <course>11.02</course>
  <speed>0.01</speed>
  <fix>3d</fix>
</trkpt>
<trkpt lat="-27.2744386" lon="151.290064">
  <ele>362.39</ele>
  <time>2026-09-01T19:56:32Z</time>
  <course>94.83</course>
  <speed>0.0</speed>
  <fix>3d</fix>
</trkpt>
<trkpt lat="-27.2744387" lon="151.2900639">
  <ele>363.1</ele>
  <time>2026-09-01T19:56:32Z</time>
  <course>11.02</course>
  <speed>0.01</speed>
  <fix>3d</fix>
</trkpt>
<trkpt lat="-27.2744387" lon="151.290064">
  <ele>363.24</ele>
  <time>2026-09-01T19:56:32Z</time>
  <course>11.0</course>
  <speed>0.01</speed>
  <fix>3d</fix>
</trkpt>
<trkpt lat="-27.2744386" lon="151.2900641">
  <ele>362.68</ele>
  <time>2026-09-01T19:56:32Z</time>
  <course>123.04</course>
  <speed>0.0</speed>
  <fix>3d</fix>
</trkpt>
<trkpt lat="-27.2744387" lon="151.290064">
  <ele>363.38</ele>
  <time>2026-09-01T19:56:32Z</time>
  <course>10.97</course>
  <speed>0.01</speed>
  <fix>3d</fix>
</trkpt>
<trkpt lat="-27.2744386" lon="151.2900641">
  <ele>362.68</ele>
  <time>2026-09-01T19:56:32Z</time>
  <course>123.04</course>
  <speed>0.0</speed>
  <fix>3d</fix>
</trkpt>
<trkpt lat="-27.2744387" lon="151.290064">
  <ele>363.52</ele>
  <time>2026-09-01T19:56:32Z</time>
  <course>10.93</course>
  <speed>0.01</speed>
  <fix>3d</fix>
</trkpt>
<trkpt lat="-27.2744386" lon="151.2900641">
  <ele>362.96</ele>
  <time>2026-09-01T19:56:32Z</time>
  <course>155.77</course>
  <speed>0.0</speed>
  <fix>3d</fix>
</trkpt>
<trkpt lat="-27.2744387" lon="151.290064">
  <ele>363.66</ele>
  <time>2026-09-01T19:56:32Z</time>
  <course>10.89</course>
  <speed>0.01</speed>
  <fix>3d</fix>
</trkpt>
<trkpt lat="-27.2744386" lon="151.2900641">
  <ele>362.96</ele>
  <time>2026-09-01T19:56:32Z</time>
  <course>155.77</course>
  <speed>0.0</speed>
  <fix>3d</fix>
</trkpt>
<trkpt lat="-27.2744387" lon="151.290064">
  <ele>363.79</ele>
  <time>2026-09-01T19:56:32Z</time>
  <course>10.84</course>
  <speed>0.02</speed>
  <fix>3d</fix>
</trkpt>
<trkpt lat="-27.2744386" lon="151.2900641">
  <ele>363.24</ele>
  <time>2026-09-01T19:56:32Z</time>
  <course>174.45</course>
  <speed>0.0</speed>
  <fix>3d</fix>
</trkpt>
<trkpt lat="-27.2744387" lon="151.290064">
  <ele>363.9</ele>
  <time>2026-09-01T19:56:32Z</time>
  <course>10.8</course>
  <speed>0.02</speed>
  <fix>3d</fix>
</trkpt>
<trkpt lat="-27.2744386" lon="151.2900641">
  <ele>363.24</ele>
  <time>2026-09-01T19:56:32Z</time>
  <course>174.45</course>
  <speed>0.0</speed>
  <fix>3d</fix>
</trkpt>
<trkpt lat="-27.2744387" lon="151.290064">
  <ele>363.99</ele>
  <time>2026-09-01T19:56:32Z</time>
  <course>10.79</course>
  <speed>0.03</speed>
  <fix>3d</fix>
</trkpt>
<trkpt lat="-27.2744386" lon="151.2900641">
  <ele>363.5</ele>
  <time>2026-09-01T19:56:32Z</time>
  <course>179.52</course>
  <speed>0.01</speed>
  <fix>3d</fix>
</trkpt>
<trkpt lat="-27.2744387" lon="151.290064">
  <ele>364.07</ele>
  <time>2026-09-01T19:56:32Z</time>
  <course>10.78</course>
  <speed>0.04</speed>
  <fix>3d</fix>
</trkpt>
<trkpt lat="-27.2744386" lon="151.2900641">
  <ele>363.5</ele>
  <time>2026-09-01T19:56:32Z</time>
  <course>179.52</course>
  <speed>0.01</speed>
  <fix>3d</fix>
</trkpt>
<trkpt lat="-27.2744387" lon="151.290064">
  <ele>364.13</ele>
  <time>2026-09-01T19:56:32Z</time>
  <course>10.78</course>
  <speed>0.05</speed>
  <fix>3d</fix>
</trkpt>
<trkpt lat="-27.2744386" lon="151.2900641">
  <ele>363.71</ele>
  <time>2026-09-01T19:56:32Z</time>
  <course>185.81</course>
  <speed>0.02</speed>
  <fix>3d</fix>
</trkpt>
<trkpt lat="-27.2744388" lon="151.290064">
  <ele>364.18</ele>
  <time>2026-09-01T19:56:32Z</time>
  <course>10.78</course>
  <speed>0.06</speed>
  <fix>3d</fix>
</trkpt>
<trkpt lat="-27.2744386" lon="151.2900641">
  <ele>363.71</ele>
  <time>2026-09-01T19:56:32Z</time>
  <course>185.81</course>
  <speed>0.02</speed>
  <fix>3d</fix>
</trkpt>
<trkpt lat="-27.2744388" lon="151.290064">
  <ele>364.21</ele>
  <time>2026-09-01T19:56:32Z</time>
  <course>10.78</course>
  <speed>0.07</speed>
  <fix>3d</fix>
</trkpt>
<trkpt lat="-27.2744386" lon="151.2900641">
  <ele>363.85</ele>
  <time>2026-09-01T19:56:32Z</time>
  <course>188.14</course>
  <speed>0.04</speed>
  <fix>3d</fix>
</trkpt>
<trkpt lat="-27.2744389" lon="151.290064">
  <ele>364.23</ele>
  <time>2026-09-01T19:56:32Z</time>
  <course>10.77</course>
  <speed>0.08</speed>
  <fix>3d</fix>
</trkpt>
<trkpt lat="-27.2744386" lon="151.2900641">
  <ele>363.85</ele>
  <time>2026-09-01T19:56:32Z</time>
  <course>188.14</course>
  <speed>0.04</speed>
  <fix>3d</fix>
</trkpt>
<trkpt lat="-27.2744389" lon="151.290064">
  <ele>364.23</ele>
  <time>2026-09-01T19:56:32Z</time>
  <course>10.77</course>
  <speed>0.09055385138137417</speed>
  <fix>3d</fix>
</trkpt>
<trkpt lat="-27.2744387" lon="151.2900641">
  <ele>363.93</ele>
  <time>2026-09-01T19:56:32Z</time>
  <course>188.41</course>
  <speed>0.06</speed>
  <fix>3d</fix>
</trkpt>
<trkpt lat="-27.274439" lon="151.290064">
  <ele>364.22</ele>
  <time>2026-09-01T19:56:32Z</time>
  <course>10.76</course>
  <speed>0.1004987562112089</speed>
  <fix>3d</fix>
</trkpt>
<trkpt lat="-27.2744387" lon="151.2900641">
  <ele>363.93</ele>
  <time>2026-09-01T19:56:32Z</time>
  <course>188.41</course>
  <speed>0.06</speed>
  <fix>3d</fix>
</trkpt>
<trkpt lat="-27.2744391" lon="151.290064">
  <ele>364.21</ele>
  <time>2026-09-01T19:56:32Z</time>
  <course>10.74</course>
  <speed>0.11045361017187261</speed>
  <fix>3d</fix>
</trkpt>
<trkpt lat="-27.2744388" lon="151.2900641">
  <ele>363.95</ele>
  <time>2026-09-01T19:56:32Z</time>
  <course>188.49</course>
  <speed>0.08</speed>
  <fix>3d</fix>
</trkpt>
<trkpt lat="-27.2744392" lon="151.290064">
  <ele>364.19</ele>
  <time>2026-09-01T19:56:32Z</time>
  <course>10.72</course>
  <speed>0.12041594578792296</speed>
  <fix>3d</fix>
</trkpt>
<trkpt lat="-27.2744388" lon="151.2900641">
  <ele>363.95</ele>
  <time>2026-09-01T19:56:32Z</time>
  <course>188.49</course>
  <speed>0.08</speed>
  <fix>3d</fix>
</trkpt>
<trkpt lat="-27.2744393" lon="151.290064">
  <ele>364.17</ele>
  <time>2026-09-01T19:56:32Z</time>
  <course>10.69</course>
  <speed>0.12041594578792296</speed>
  <fix>3d</fix>
</trkpt>
<trkpt lat="-27.274439" lon="151.2900641">
  <ele>363.93</ele>
  <time>2026-09-01T19:56:32Z</time>
  <course>188.46</course>
  <speed>0.1</speed>
  <fix>3d</fix>
</trkpt>
<trkpt lat="-27.2744394" lon="151.290064">
  <ele>364.15</ele>
  <time>2026-09-01T19:56:32Z</time>
  <course>10.65</course>
  <speed>0.130384048104053</speed>
  <fix>3d</fix>
</trkpt>
<trkpt lat="-27.274439" lon="151.2900641">
  <ele>363.93</ele>
  <time>2026-09-01T19:56:32Z</time>
  <course>188.46</course>
  <speed>0.1</speed>
  <fix>3d</fix>
</trkpt>
<trkpt lat="-27.2744395" lon="151.290064">
  <ele>364.13</ele>
  <time>2026-09-01T19:56:32Z</time>
  <course>10.61</course>
  <speed>0.130384048104053</speed>
  <fix>3d</fix>
</trkpt>
<trkpt lat="-27.2744391" lon="151.290064">
  <ele>363.9</ele>
  <time>2026-09-01T19:56:32Z</time>
  <course>188.37</course>
  <speed>0.12</speed>
  <fix>3d</fix>
</trkpt>
<trkpt lat="-27.2744396" lon="151.290064">
  <ele>364.11</ele>
  <time>2026-09-01T19:56:32Z</time>
  <course>10.56</course>
  <speed>0.130384048104053</speed>
  <fix>3d</fix>
</trkpt>
<trkpt lat="-27.2744391" lon="151.290064">
  <ele>363.9</ele>
  <time>2026-09-01T19:56:32Z</time>
  <course>188.37</course>
  <speed>0.12</speed>
  <fix>3d</fix>
</trkpt>
<trkpt lat="-27.2744397" lon="151.290064">
  <ele>364.09</ele>
  <time>2026-09-01T19:56:32Z</time>
  <course>10.52</course>
  <speed>0.140356688476182</speed>
  <fix>3d</fix>
</trkpt>
<trkpt lat="-27.2744394" lon="151.290064">
  <ele>363.86</ele>
  <time>2026-09-01T19:56:32Z</time>
  <course>188.29</course>
  <speed>0.13</speed>
  <fix>3d</fix>
</trkpt>
<trkpt lat="-27.2744398" lon="151.290064">
  <ele>364.08</ele>
  <time>2026-09-01T19:56:32Z</time>
  <course>10.49</course>
  <speed>0.140356688476182</speed>
  <fix>3d</fix>
</trkpt>
<trkpt lat="-27.2744394" lon="151.290064">
  <ele>363.86</ele>
  <time>2026-09-01T19:56:32Z</time>
  <course>188.29</course>
  <speed>0.13</speed>
  <fix>3d</fix>
</trkpt>
<trkpt lat="-27.2744399" lon="151.290064">
  <ele>364.07</ele>
  <time>2026-09-01T19:56:32Z</time>
  <course>10.46</course>
  <speed>0.140356688476182</speed>
  <fix>3d</fix>
</trkpt>
<trkpt lat="-27.2744397" lon="151.290064">
  <ele>363.82</ele>
  <time>2026-09-01T19:56:32Z</time>
  <course>188.4</course>
  <speed>0.13</speed>
  <fix>3d</fix>
</trkpt>
<trkpt lat="-27.27444" lon="151.290064">
  <ele>364.07</ele>
  <time>2026-09-01T19:56:32Z</time>
  <course>10.46</course>
  <speed>0.140356688476182</speed>
  <fix>3d</fix>
</trkpt>
<trkpt lat="-27.2744397" lon="151.290064">
  <ele>363.82</ele>
  <time>2026-09-01T19:56:32Z</time>
  <course>188.4</course>
  <speed>0.13</speed>
  <fix>3d</fix>
</trkpt>
<trkpt lat="-27.2744402" lon="151.2900639">
  <ele>364.07</ele>
  <time>2026-09-01T19:56:32Z</time>
  <course>10.47</course>
  <speed>0.140356688476182</speed>
  <fix>3d</fix>
</trkpt>
<trkpt lat="-27.2744399" lon="151.2900639">
  <ele>363.8</ele>
  <time>2026-09-01T19:56:32Z</time>
  <course>188.87</course>
  <speed>0.14</speed>
  <fix>3d</fix>
</trkpt>
<trkpt lat="-27.2744403" lon="151.2900639">
  <ele>364.08</ele>
  <time>2026-09-01T19:56:32Z</time>
  <course>10.49</course>
  <speed>0.130384048104053</speed>
  <fix>3d</fix>
</trkpt>
<trkpt lat="-27.2744399" lon="151.2900639">
  <ele>363.8</ele>
  <time>2026-09-01T19:56:32Z</time>
  <course>188.87</course>
  <speed>0.14</speed>
  <fix>3d</fix>
</trkpt>
<trkpt lat="-27.2744404" lon="151.2900639">
  <ele>364.09</ele>
  <time>2026-09-01T19:56:32Z</time>
  <course>10.51</course>
  <speed>0.130384048104053</speed>
  <fix>3d</fix>
</trkpt>
<trkpt lat="-27.2744402" lon="151.2900639">
  <ele>363.8</ele>
  <time>2026-09-01T19:56:32Z</time>
  <course>189.68</course>
  <speed>0.13</speed>
  <fix>3d</fix>
</trkpt>
<trkpt lat="-27.2744405" lon="151.2900639">
  <ele>364.1</ele>
  <time>2026-09-01T19:56:32Z</time>
  <course>10.54</course>
  <speed>0.130384048104053</speed>
  <fix>3d</fix>
</trkpt>
<trkpt lat="-27.2744402" lon="151.2900639">
  <ele>363.8</ele>
  <time>2026-09-01T19:56:32Z</time>
  <course>189.68</course>
  <speed>0.13</speed>
  <fix>3d</fix>
</trkpt>
<trkpt lat="-27.2744406" lon="151.2900639">
  <ele>364.11</ele>
  <time>2026-09-01T19:56:32Z</time>
  <course>10.57</course>
  <speed>0.12041594578792296</speed>
  <fix>3d</fix>
</trkpt>
<trkpt lat="-27.2744404" lon="151.2900638">
  <ele>363.82</ele>
  <time>2026-09-01T19:56:32Z</time>
  <course>190.61</course>
  <speed>0.13</speed>
  <fix>3d</fix>
</trkpt>
<trkpt lat="-27.2744407" lon="151.2900638">
  <ele>364.13</ele>
  <time>2026-09-01T19:56:32Z</time>
  <course>10.59</course>
  <speed>0.12041594578792296</speed>
  <fix>3d</fix>
</trkpt>
<trkpt lat="-27.2744404" lon="151.2900638">
  <ele>363.82</ele>
  <time>2026-09-01T19:56:32Z</time>
  <course>190.61</course>
  <speed>0.13</speed>
  <fix>3d</fix>
</trkpt>
<trkpt lat="-27.2744408" lon="151.2900638">
  <ele>364.14</ele>
  <time>2026-09-01T19:56:32Z</time>
  <course>10.62</course>
  <speed>0.11045361017187261</speed>
  <fix>3d</fix>
</trkpt>
<trkpt lat="-27.2744407" lon="151.2900637">
  <ele>363.84</ele>
  <time>2026-09-01T19:56:32Z</time>
  <course>191.6</course>
  <speed>0.12</speed>
  <fix>3d</fix>
</trkpt>
<trkpt lat="-27.2744409" lon="151.2900638">
  <ele>364.15</ele>
  <time>2026-09-01T19:56:32Z</time>
  <course>10.63</course>
  <speed>0.1004987562112089</speed>
  <fix>3d</fix>
</trkpt>
<trkpt lat="-27.2744407" lon="151.2900637">
  <ele>363.84</ele>
  <time>2026-09-01T19:56:32Z</time>
  <course>191.6</course>
  <speed>0.12</speed>
  <fix>3d</fix>
</trkpt>
<trkpt lat="-27.274441" lon="151.2900638">
  <ele>364.16</ele>
  <time>2026-09-01T19:56:32Z</time>
  <course>10.64</course>
  <speed>0.1004987562112089</speed>
  <fix>3d</fix>
</trkpt>
<trkpt lat="-27.2744409" lon="151.2900637">
  <ele>363.87</ele>
  <time>2026-09-01T19:56:32Z</time>
  <course>192.88</course>
  <speed>0.11</speed>
  <fix>3d</fix>
</trkpt>
<trkpt lat="-27.2744411" lon="151.2900638">
  <ele>364.17</ele>
  <time>2026-09-01T19:56:32Z</time>
  <course>10.65</course>
  <speed>0.09055385138137417</speed>
  <fix>3d</fix>
</trkpt>
<trkpt lat="-27.2744409" lon="151.2900637">
  <ele>363.87</ele>
  <time>2026-09-01T19:56:32Z</time>
  <course>192.88</course>
  <speed>0.11</speed>
  <fix>3d</fix>
</trkpt>
<trkpt lat="-27.2744412" lon="151.2900637">
  <ele>364.17</ele>
  <time>2026-09-01T19:56:32Z</time>
  <course>10.65</course>
  <speed>0.08062257748298549</speed>
  <fix>3d</fix>
</trkpt>
<trkpt lat="-27.2744411" lon="151.2900637">
  <ele>363.9</ele>
  <time>2026-09-01T19:56:32Z</time>
  <course>194.74</course>
  <speed>0.1</speed>
  <fix>3d</fix>
</trkpt>
<trkpt lat="-27.2744413" lon="151.2900637">
  <ele>364.18</ele>
  <time>2026-09-01T19:56:32Z</time>
  <course>10.66</course>
  <speed>0.08062257748298549</speed>
  <fix>3d</fix>
</trkpt>
<trkpt lat="-27.2744411" lon="151.2900637">
  <ele>363.9</ele>
  <time>2026-09-01T19:56:32Z</time>
  <course>194.74</course>
  <speed>0.1</speed>
  <fix>3d</fix>
</trkpt>
<trkpt lat="-27.2744413" lon="151.2900637">
  <ele>364.18</ele>
  <time>2026-09-01T19:56:32Z</time>
  <course>10.67</course>
  <speed>0.07071067811865475</speed>
  <fix>3d</fix>
</trkpt>
<trkpt lat="-27.2744412" lon="151.2900636">
  <ele>363.91</ele>
  <time>2026-09-01T19:56:32Z</time>
  <course>197.53</course>
  <speed>0.08</speed>
  <fix>3d</fix>
</trkpt>
<trkpt lat="-27.2744414" lon="151.2900637">
  <ele>364.17</ele>
  <time>2026-09-01T19:56:32Z</time>
  <course>10.67</course>
  <speed>0.06082762530298219</speed>
  <fix>3d</fix>
</trkpt>
<trkpt lat="-27.2744412" lon="151.2900636">
  <ele>363.91</ele>
  <time>2026-09-01T19:56:32Z</time>
  <course>197.53</course>
  <speed>0.08</speed>
  <fix>3d</fix>
</trkpt>
<trkpt lat="-27.2744414" lon="151.2900636">
  <ele>364.17</ele>
  <time>2026-09-01T19:56:32Z</time>
  <course>10.68</course>
  <speed>0.05099019513592785</speed>
  <fix>3d</fix>
</trkpt>
<trkpt lat="-27.2744413" lon="151.2900636">
  <ele>363.93</ele>
  <time>2026-09-01T19:56:32Z</time>
  <course>202.05</course>
  <speed>0.07</speed>
  <fix>3d</fix>
</trkpt>
<trkpt lat="-27.2744415" lon="151.2900636">
  <ele>364.17</ele>
  <time>2026-09-01T19:56:32Z</time>
  <course>10.68</course>
  <speed>0.0412310562561766</speed>
  <fix>3d</fix>
</trkpt>
<trkpt lat="-27.2744413" lon="151.2900636">
  <ele>363.93</ele>
  <time>2026-09-01T19:56:32Z</time>
  <course>202.05</course>
  <speed>0.07</speed>
  <fix>3d</fix>
</trkpt>
<trkpt lat="-27.2744415" lon="151.2900636">
  <ele>364.16</ele>
  <time>2026-09-01T19:56:32Z</time>
  <course>10.69</course>
  <speed>0.0316227766016838</speed>
  <fix>3d</fix>
</trkpt>
<trkpt lat="-27.2744414" lon="151.2900635">
  <ele>363.93</ele>
  <time>2026-09-01T19:56:32Z</time>
  <course>209.46</course>
  <speed>0.05</speed>
  <fix>3d</fix>
</trkpt>
<trkpt lat="-27.2744415" lon="151.2900636">
  <ele>364.16</ele>
  <time>2026-09-01T19:56:32Z</time>
  <course>10.69</course>
  <speed>0.02</speed>
  <fix>3d</fix>
</trkpt>
<trkpt lat="-27.2744414" lon="151.2900635">
  <ele>363.93</ele>
  <time>2026-09-01T19:56:32Z</time>
  <course>209.46</course>
  <speed>0.05</speed>
  <fix>3d</fix>
</trkpt>
<trkpt lat="-27.2744415" lon="151.2900636">
  <ele>364.16</ele>
  <time>2026-09-01T19:56:32Z</time>
  <course>10.7</course>
  <speed>0.01</speed>
  <fix>3d</fix>
</trkpt>
<trkpt lat="-27.2744415" lon="151.2900634">
  <ele>363.93</ele>
  <time>2026-09-01T19:56:32Z</time>
  <course>222.7</course>
  <speed>0.03</speed>
  <fix>3d</fix>
</trkpt>
<trkpt lat="-27.2744415" lon="151.2900635">
  <ele>364.16</ele>
  <time>2026-09-01T19:56:32Z</time>
  <course>10.7</course>
  <speed>0.0</speed>
  <fix>3d</fix>
</trkpt>
<trkpt lat="-27.2744415" lon="151.2900634">
  <ele>363.93</ele>
  <time>2026-09-01T19:56:32Z</time>
  <course>222.7</course>
  <speed>0.03</speed>
  <fix>3d</fix>
</trkpt>
<trkpt lat="-27.2744415" lon="151.2900635">
  <ele>364.15</ele>
  <time>2026-09-01T19:56:32Z</time>
  <course>10.7</course>
  <speed>0.0</speed>
  <fix>3d</fix>
</trkpt>
<trkpt lat="-27.2744416" lon="151.2900633">
  <ele>363.93</ele>
  <time>2026-09-01T19:56:32Z</time>
  <course>249.98</course>
  <speed>0.02</speed>
  <fix>3d</fix>
</trkpt>
<trkpt lat="-27.2744415" lon="151.2900635">
  <ele>364.15</ele>
  <time>2026-09-01T19:56:32Z</time>
  <course>10.7</course>
  <speed>0.01</speed>
  <fix>3d</fix>
</trkpt>
<trkpt lat="-27.2744416" lon="151.2900633">
  <ele>363.93</ele>
  <time>2026-09-01T19:56:32Z</time>
  <course>249.98</course>
  <speed>0.02</speed>
  <fix>3d</fix>
</trkpt>
<trkpt lat="-27.2744415" lon="151.2900635">
  <ele>364.15</ele>
  <time>2026-09-01T19:56:32Z</time>
  <course>10.7</course>
  <speed>0.02</speed>
  <fix>3d</fix>
</trkpt>
<trkpt lat="-27.2744416" lon="151.2900633">
  <ele>363.93</ele>
  <time>2026-09-01T19:56:32Z</time>
  <course>292.45</course>
  <speed>0.02</speed>
  <fix>3d</fix>
</trkpt>
<trkpt lat="-27.2744415" lon="151.2900634">
  <ele>364.15</ele>
  <time>2026-09-01T19:56:32Z</time>
  <course>10.7</course>
  <speed>0.03</speed>
  <fix>3d</fix>
</trkpt>
<trkpt lat="-27.2744416" lon="151.2900633">
  <ele>363.93</ele>
  <time>2026-09-01T19:56:32Z</time>
  <course>292.45</course>
  <speed>0.02</speed>
  <fix>3d</fix>
</trkpt>
<trkpt lat="-27.2744415" lon="151.2900634">
  <ele>364.15</ele>
  <time>2026-09-01T19:56:32Z</time>
  <course>10.69</course>
  <speed>0.04</speed>
  <fix>3d</fix>
</trkpt>
<trkpt lat="-27.2744415" lon="151.2900632">
  <ele>363.93</ele>
  <time>2026-09-01T19:56:32Z</time>
  <course>322.06</course>
  <speed>0.03</speed>
  <fix>3d</fix>
</trkpt>
<trkpt lat="-27.2744415" lon="151.2900634">
  <ele>364.15</ele>
  <time>2026-09-01T19:56:32Z</time>
  <course>10.69</course>
  <speed>0.04</speed>
  <fix>3d</fix>
</trkpt>
<trkpt lat="-27.2744415" lon="151.2900632">
  <ele>363.93</ele>
  <time>2026-09-01T19:56:32Z</time>
  <course>322.06</course>
  <speed>0.03</speed>
  <fix>3d</fix>
</trkpt>
<trkpt lat="-27.2744414" lon="151.2900634">
  <ele>364.15</ele>
  <time>2026-09-01T19:56:32Z</time>
  <course>10.68</course>
  <speed>0.05</speed>
  <fix>3d</fix>
</trkpt>
<trkpt lat="-27.2744415" lon="151.2900632">
  <ele>363.93</ele>
  <time>2026-09-01T19:56:32Z</time>
  <course>336.53</course>
  <speed>0.05</speed>
  <fix>3d</fix>
</trkpt>
<trkpt lat="-27.2744414" lon="151.2900634">
  <ele>364.15</ele>
  <time>2026-09-01T19:56:32Z</time>
  <course>10.67</course>
  <speed>0.06</speed>
  <fix>3d</fix>
</trkpt>
<trkpt lat="-27.2744415" lon="151.2900632">
  <ele>363.93</ele>
  <time>2026-09-01T19:56:32Z</time>
  <course>336.53</course>
  <speed>0.05</speed>
  <fix>3d</fix>
</trkpt>
<trkpt lat="-27.2744413" lon="151.2900633">
  <ele>364.16</ele>
  <time>2026-09-01T19:56:32Z</time>
  <course>10.67</course>
  <speed>0.07</speed>
  <fix>3d</fix>
</trkpt>
<trkpt lat="-27.2744414" lon="151.2900632">
  <ele>363.93</ele>
  <time>2026-09-01T19:56:32Z</time>
  <course>344.7</course>
  <speed>0.06</speed>
  <fix>3d</fix>
</trkpt>
<trkpt lat="-27.2744413" lon="151.2900633">
  <ele>364.16</ele>
  <time>2026-09-01T19:56:32Z</time>
  <course>10.66</course>
  <speed>0.07</speed>
  <fix>3d</fix>
</trkpt>
<trkpt lat="-27.2744414" lon="151.2900632">
  <ele>363.93</ele>
  <time>2026-09-01T19:56:32Z</time>
  <course>344.7</course>
  <speed>0.06</speed>
  <fix>3d</fix>
</trkpt>
<trkpt lat="-27.2744412" lon="151.2900633">
  <ele>364.16</ele>
  <time>2026-09-01T19:56:32Z</time>
  <course>10.66</course>
  <speed>0.08</speed>
  <fix>3d</fix>
</trkpt>
<trkpt lat="-27.2744413" lon="151.2900632">
  <ele>363.93</ele>
  <time>2026-09-01T19:56:32Z</time>
  <course>350.07</course>
  <speed>0.08</speed>
  <fix>3d</fix>
</trkpt>
<trkpt lat="-27.2744411" lon="151.2900633">
  <ele>364.17</ele>
  <time>2026-09-01T19:56:32Z</time>
  <course>10.66</course>
  <speed>0.09055385138137417</speed>
  <fix>3d</fix>
</trkpt>
<trkpt lat="-27.2744413" lon="151.2900632">
  <ele>363.93</ele>
  <time>2026-09-01T19:56:32Z</time>
  <course>350.07</course>
  <speed>0.08</speed>
  <fix>3d</fix>
</trkpt>
<trkpt lat="-27.274441" lon="151.2900633">
  <ele>364.17</ele>
  <time>2026-09-01T19:56:32Z</time>
  <course>10.65</course>
  <speed>0.09055385138137417</speed>
  <fix>3d</fix>
</trkpt>
<trkpt lat="-27.2744412" lon="151.2900632">
  <ele>363.94</ele>
  <time>2026-09-01T19:56:32Z</time>
  <course>354.09</course>
  <speed>0.09</speed>
  <fix>3d</fix>
</trkpt>
<trkpt lat="-27.2744409" lon="151.2900633">
  <ele>364.17</ele>
  <time>2026-09-01T19:56:32Z</time>
  <course>10.66</course>
  <speed>0.1004987562112089</speed>
  <fix>3d</fix>
</trkpt>
<trkpt lat="-27.2744412" lon="151.2900632">
  <ele>363.94</ele>
  <time>2026-09-01T19:56:32Z</time>
  <course>354.09</course>
  <speed>0.09</speed>
  <fix>3d</fix>
</trkpt>
<trkpt lat="-27.2744408" lon="151.2900633">
  <ele>364.18</ele>
  <time>2026-09-01T19:56:32Z</time>
  <course>10.66</course>
  <speed>0.1004987562112089</speed>
  <fix>3d</fix>
</trkpt>
<trkpt lat="-27.2744409" lon="151.2900632">
  <ele>363.95</ele>
  <time>2026-09-01T19:56:32Z</time>
  <course>357.13</course>
  <speed>0.1</speed>
  <fix>3d</fix>
</trkpt>
<trkpt lat="-27.2744407" lon="151.2900633">
  <ele>364.18</ele>
  <time>2026-09-01T19:56:32Z</time>
  <course>10.66</course>
  <speed>0.1004987562112089</speed>
  <fix>3d</fix>
</trkpt>
<trkpt lat="-27.2744409" lon="151.2900632">
  <ele>363.95</ele>
  <time>2026-09-01T19:56:32Z</time>
  <course>357.13</course>
  <speed>0.1</speed>
  <fix>3d</fix>
</trkpt>
<trkpt lat="-27.2744406" lon="151.2900633">
  <ele>364.18</ele>
  <time>2026-09-01T19:56:32Z</time>
  <course>10.67</course>
  <speed>0.1118033988749895</speed>
  <fix>3d</fix>
</trkpt>
<trkpt lat="-27.2744408" lon="151.2900632">
  <ele>363.95</ele>
  <time>2026-09-01T19:56:32Z</time>
  <course>359.41</course>
  <speed>0.11</speed>
  <fix>3d</fix>
</trkpt>
<trkpt lat="-27.2744405" lon="151.2900633">
  <ele>364.18</ele>
  <time>2026-09-01T19:56:32Z</time>
  <course>10.67</course>
  <speed>0.1118033988749895</speed>
  <fix>3d</fix>
</trkpt>
<trkpt lat="-27.2744408" lon="151.2900632">
  <ele>363.95</ele>
  <time>2026-09-01T19:56:32Z</time>
  <course>359.41</course>
  <speed>0.11</speed>
  <fix>3d</fix>
</trkpt>
<trkpt lat="-27.2744404" lon="151.2900633">
  <ele>364.18</ele>
  <time>2026-09-01T19:56:32Z</time>
  <course>10.68</course>
  <speed>0.1118033988749895</speed>
  <fix>3d</fix>
</trkpt>
<trkpt lat="-27.2744406" lon="151.2900632">
  <ele>363.96</ele>
  <time>2026-09-01T19:56:32Z</time>
  <course>1.33</course>
  <speed>0.12</speed>
  <fix>3d</fix>
</trkpt>
<trkpt lat="-27.2744403" lon="151.2900633">
  <ele>364.18</ele>
  <time>2026-09-01T19:56:32Z</time>
  <course>10.69</course>
  <speed>0.1118033988749895</speed>
  <fix>3d</fix>
</trkpt>
<trkpt lat="-27.2744406" lon="151.2900632">
  <ele>363.96</ele>
  <time>2026-09-01T19:56:32Z</time>
  <course>1.33</course>
  <speed>0.12</speed>
  <fix>3d</fix>
</trkpt>
<trkpt lat="-27.2744402" lon="151.2900633">
  <ele>364.18</ele>
  <time>2026-09-01T19:56:32Z</time>
  <course>10.69</course>
  <speed>0.1118033988749895</speed>
  <fix>3d</fix>
</trkpt>
<trkpt lat="-27.2744403" lon="151.2900632">
  <ele>363.96</ele>
  <time>2026-09-01T19:56:32Z</time>
  <course>3.09</course>
  <speed>0.12</speed>
  <fix>3d</fix>
</trkpt>
<trkpt lat="-27.2744401" lon="151.2900633">
  <ele>364.18</ele>
  <time>2026-09-01T19:56:32Z</time>
  <course>10.69</course>
  <speed>0.1118033988749895</speed>
  <fix>3d</fix>
</trkpt>
<trkpt lat="-27.2744403" lon="151.2900632">
  <ele>363.96</ele>
  <time>2026-09-01T19:56:32Z</time>
  <course>3.09</course>
  <speed>0.12</speed>
  <fix>3d</fix>
</trkpt>
<trkpt lat="-27.27444" lon="151.2900633">
  <ele>364.18</ele>
  <time>2026-09-01T19:56:32Z</time>
  <course>10.69</course>
  <speed>0.11401754250991379</speed>
  <fix>3d</fix>
</trkpt>
<trkpt lat="-27.2744401" lon="151.2900632">
  <ele>363.96</ele>
  <time>2026-09-01T19:56:32Z</time>
  <course>4.76</course>
  <speed>0.13</speed>
  <fix>3d</fix>
</trkpt>
<trkpt lat="-27.2744399" lon="151.2900633">
  <ele>364.17</ele>
  <time>2026-09-01T19:56:32Z</time>
  <course>10.7</course>
  <speed>0.11401754250991379</speed>
  <fix>3d</fix>
</trkpt>
<trkpt lat="-27.2744401" lon="151.2900632">
  <ele>363.96</ele>
  <time>2026-09-01T19:56:32Z</time>
  <course>4.76</course>
  <speed>0.13</speed>
  <fix>3d</fix>
</trkpt>
<trkpt lat="-27.2744398" lon="151.2900633">
  <ele>364.17</ele>
  <time>2026-09-01T19:56:32Z</time>
  <course>10.69</course>
  <speed>0.11401754250991379</speed>
  <fix>3d</fix>
</trkpt>
<trkpt lat="-27.2744399" lon="151.2900632">
  <ele>363.96</ele>
  <time>2026-09-01T19:56:32Z</time>
  <course>6.17</course>
  <speed>0.13</speed>
  <fix>3d</fix>
</trkpt>
<trkpt lat="-27.2744397" lon="151.2900634">
  <ele>364.17</ele>
  <time>2026-09-01T19:56:32Z</time>
  <course>10.69</course>
  <speed>0.1044030650891055</speed>
  <fix>3d</fix>
</trkpt>
<trkpt lat="-27.2744399" lon="151.2900632">
  <ele>363.96</ele>
  <time>2026-09-01T19:56:32Z</time>
  <course>6.17</course>
  <speed>0.13</speed>
  <fix>3d</fix>
</trkpt>
<trkpt lat="-27.2744396" lon="151.2900634">
  <ele>364.16</ele>
  <time>2026-09-01T19:56:32Z</time>
  <course>10.69</course>
  <speed>0.1044030650891055</speed>
  <fix>3d</fix>
</trkpt>
<trkpt lat="-27.2744396" lon="151.2900632">
  <ele>363.96</ele>
  <time>2026-09-01T19:56:32Z</time>
  <course>7.48</course>
  <speed>0.13</speed>
  <fix>3d</fix>
</trkpt>
<trkpt lat="-27.2744394" lon="151.2900634">
  <ele>364.16</ele>
  <time>2026-09-01T19:56:32Z</time>
  <course>10.69</course>
  <speed>0.1044030650891055</speed>
  <fix>3d</fix>
</trkpt>
<trkpt lat="-27.2744396" lon="151.2900632">
  <ele>363.96</ele>
  <time>2026-09-01T19:56:32Z</time>
  <course>7.48</course>
  <speed>0.13</speed>
  <fix>3d</fix>
</trkpt>
<trkpt lat="-27.2744393" lon="151.2900634">
  <ele>364.16</ele>
  <time>2026-09-01T19:56:32Z</time>
  <course>10.69</course>
  <speed>0.1044030650891055</speed>
  <fix>3d</fix>
</trkpt>
<trkpt lat="-27.2744394" lon="151.2900632">
  <ele>363.96</ele>
  <time>2026-09-01T19:56:32Z</time>
  <course>9.07</course>
  <speed>0.12</speed>
  <fix>3d</fix>
</trkpt>
<trkpt lat="-27.2744392" lon="151.2900634">
  <ele>364.16</ele>
  <time>2026-09-01T19:56:32Z</time>
  <course>10.69</course>
  <speed>0.09486832980505139</speed>
  <fix>3d</fix>
</trkpt>
<trkpt lat="-27.2744394" lon="151.2900632">
  <ele>363.96</ele>
  <time>2026-09-01T19:56:32Z</time>
  <course>9.07</course>
  <speed>0.12</speed>
  <fix>3d</fix>
</trkpt>
<trkpt lat="-27.2744391" lon="151.2900634">
  <ele>364.16</ele>
  <time>2026-09-01T19:56:32Z</time>
  <course>10.68</course>
  <speed>0.09486832980505139</speed>
  <fix>3d</fix>
</trkpt>
<trkpt lat="-27.2744391" lon="151.2900632">
  <ele>363.96</ele>
  <time>2026-09-01T19:56:32Z</time>
  <course>10.66</course>
  <speed>0.12</speed>
  <fix>3d</fix>
</trkpt>
<trkpt lat="-27.274439" lon="151.2900635">
  <ele>364.16</ele>
  <time>2026-09-01T19:56:32Z</time>
  <course>10.68</course>
  <speed>0.09486832980505139</speed>
  <fix>3d</fix>
</trkpt>
<trkpt lat="-27.2744391" lon="151.2900632">
  <ele>363.96</ele>
  <time>2026-09-01T19:56:32Z</time>
  <course>10.66</course>
  <speed>0.12</speed>
  <fix>3d</fix>
</trkpt>
<trkpt lat="-27.2744389" lon="151.2900635">
  <ele>364.16</ele>
  <time>2026-09-01T19:56:32Z</time>
  <course>10.68</course>
  <speed>0.0854400374531753</speed>
  <fix>3d</fix>
</trkpt>
<trkpt lat="-27.274439" lon="151.2900632">
  <ele>363.96</ele>
  <time>2026-09-01T19:56:32Z</time>
  <course>12.14</course>
  <speed>0.11</speed>
  <fix>3d</fix>
</trkpt>
<trkpt lat="-27.2744389" lon="151.2900635">
  <ele>364.16</ele>
  <time>2026-09-01T19:56:32Z</time>
  <course>10.68</course>
  <speed>0.0854400374531753</speed>
  <fix>3d</fix>
</trkpt>
<trkpt lat="-27.274439" lon="151.2900632">
  <ele>363.96</ele>
  <time>2026-09-01T19:56:32Z</time>
  <course>12.14</course>
  <speed>0.11</speed>
  <fix>3d</fix>
</trkpt>
<trkpt lat="-27.2744388" lon="151.2900635">
  <ele>364.16</ele>
  <time>2026-09-01T19:56:32Z</time>
  <course>10.68</course>
  <speed>0.07615773105863909</speed>
  <fix>3d</fix>
</trkpt>
<trkpt lat="-27.2744388" lon="151.2900633">
  <ele>363.96</ele>
  <time>2026-09-01T19:56:32Z</time>
  <course>14.0</course>
  <speed>0.1</speed>
  <fix>3d</fix>
</trkpt>
<trkpt lat="-27.2744387" lon="151.2900635">
  <ele>364.16</ele>
  <time>2026-09-01T19:56:32Z</time>
  <course>10.68</course>
  <speed>0.0670820393249937</speed>
  <fix>3d</fix>
</trkpt>
<trkpt lat="-27.2744388" lon="151.2900633">
  <ele>363.96</ele>
  <time>2026-09-01T19:56:32Z</time>
  <course>14.0</course>
  <speed>0.1</speed>
  <fix>3d</fix>
</trkpt>
<trkpt lat="-27.2744386" lon="151.2900635">
  <ele>364.17</ele>
  <time>2026-09-01T19:56:33Z</time>
  <course>10.68</course>
  <speed>0.0670820393249937</speed>
  <fix>3d</fix>
</trkpt>
<trkpt lat="-27.2744385" lon="151.2900633">
  <ele>363.97</ele>
  <time>2026-09-01T19:56:33Z</time>
  <course>16.38</course>
  <speed>0.09</speed>
  <fix>3d</fix>
</trkpt>
<trkpt lat="-27.2744385" lon="151.2900635">
  <ele>364.17</ele>
  <time>2026-09-01T19:56:33Z</time>
  <course>10.68</course>
  <speed>0.05830951894845301</speed>
  <fix>3d</fix>
</trkpt>
<trkpt lat="-27.2744385" lon="151.2900633">
  <ele>363.97</ele>
  <time>2026-09-01T19:56:33Z</time>
  <course>16.38</course>
  <speed>0.09</speed>
  <fix>3d</fix>
</trkpt>
<trkpt lat="-27.2744385" lon="151.2900636">
  <ele>364.17</ele>
  <time>2026-09-01T19:56:33Z</time>
  <course>10.69</course>
  <speed>0.05830951894845301</speed>
  <fix>3d</fix>
</trkpt>
<trkpt lat="-27.2744384" lon="151.2900634">
  <ele>363.97</ele>
  <time>2026-09-01T19:56:33Z</time>
  <course>19.47</course>
  <speed>0.08</speed>
  <fix>3d</fix>
</trkpt>
<trkpt lat="-27.2744384" lon="151.2900636">
  <ele>364.17</ele>
  <time>2026-09-01T19:56:33Z</time>
  <course>10.69</course>
  <speed>0.05</speed>
  <fix>3d</fix>
</trkpt>
<trkpt lat="-27.2744384" lon="151.2900634">
  <ele>363.97</ele>
  <time>2026-09-01T19:56:33Z</time>
  <course>19.47</course>
  <speed>0.08</speed>
  <fix>3d</fix>
</trkpt>
<trkpt lat="-27.2744384" lon="151.2900636">
  <ele>364.17</ele>
  <time>2026-09-01T19:56:33Z</time>
  <course>10.69</course>
  <speed>0.04242640687119285</speed>
  <fix>3d</fix>
</trkpt>
<trkpt lat="-27.2744383" lon="151.2900635">
  <ele>363.98</ele>
  <time>2026-09-01T19:56:33Z</time>
  <course>24.09</course>
  <speed>0.07</speed>
  <fix>3d</fix>
</trkpt>
<trkpt lat="-27.2744383" lon="151.2900636">
  <ele>364.17</ele>
  <time>2026-09-01T19:56:33Z</time>
  <course>10.69</course>
  <speed>0.04242640687119285</speed>
  <fix>3d</fix>
</trkpt>
<trkpt lat="-27.2744383" lon="151.2900635">
  <ele>363.98</ele>
  <time>2026-09-01T19:56:33Z</time>
  <course>24.09</course>
  <speed>0.07</speed>
  <fix>3d</fix>
</trkpt>
<trkpt lat="-27.2744383" lon="151.2900636">
  <ele>364.17</ele>
  <time>2026-09-01T19:56:33Z</time>
  <course>10.69</course>
  <speed>0.03605551275463989</speed>
  <fix>3d</fix>
</trkpt>
<trkpt lat="-27.2744381" lon="151.2900635">
  <ele>363.98</ele>
  <time>2026-09-01T19:56:33Z</time>
  <course>30.52</course>
  <speed>0.06</speed>
  <fix>3d</fix>
</trkpt>
<trkpt lat="-27.2744382" lon="151.2900637">
  <ele>364.17</ele>
  <time>2026-09-01T19:56:33Z</time>
  <course>10.69</course>
  <speed>0.0316227766016838</speed>
  <fix>3d</fix>
</trkpt>
<trkpt lat="-27.2744381" lon="151.2900635">
  <ele>363.98</ele>
  <time>2026-09-01T19:56:33Z</time>
  <course>30.52</course>
  <speed>0.06</speed>
  <fix>3d</fix>
</trkpt>
<trkpt lat="-27.2744382" lon="151.2900637">
  <ele>364.17</ele>
  <time>2026-09-01T19:56:33Z</time>
  <course>10.69</course>
  <speed>0.03</speed>
  <fix>3d</fix>
</trkpt>
<trkpt lat="-27.2744381" lon="151.2900636">
  <ele>363.98</ele>
  <time>2026-09-01T19:56:33Z</time>
  <course>39.31</course>
  <speed>0.05</speed>
  <fix>3d</fix>
</trkpt>
<trkpt lat="-27.2744382" lon="151.2900637">
  <ele>364.17</ele>
  <time>2026-09-01T19:56:33Z</time>
  <course>10.69</course>
  <speed>0.03</speed>
  <fix>3d</fix>
</trkpt>
<trkpt lat="-27.2744381" lon="151.2900636">
  <ele>363.98</ele>
  <time>2026-09-01T19:56:33Z</time>
  <course>39.31</course>
  <speed>0.05</speed>
  <fix>3d</fix>
</trkpt>
<trkpt lat="-27.2744382" lon="151.2900637">
  <ele>364.17</ele>
  <time>2026-09-01T19:56:33Z</time>
  <course>10.69</course>
  <speed>0.03</speed>
  <fix>3d</fix>
</trkpt>
<trkpt lat="-27.274438" lon="151.2900637">
  <ele>363.99</ele>
  <time>2026-09-01T19:56:33Z</time>
  <course>52.56</course>
  <speed>0.04</speed>
  <fix>3d</fix>
</trkpt>
<trkpt lat="-27.2744382" lon="151.2900638">
  <ele>364.17</ele>
  <time>2026-09-01T19:56:33Z</time>
  <course>10.69</course>
  <speed>0.0316227766016838</speed>
  <fix>3d</fix>
</trkpt>
<trkpt lat="-27.274438" lon="151.2900637">
  <ele>363.99</ele>
  <time>2026-09-01T19:56:33Z</time>
  <course>52.56</course>
  <speed>0.04</speed>
  <fix>3d</fix>
</trkpt>
<trkpt lat="-27.2744382" lon="151.2900638">
  <ele>364.17</ele>
  <time>2026-09-01T19:56:33Z</time>
  <course>10.69</course>
  <speed>0.0316227766016838</speed>
  <fix>3d</fix>
</trkpt>
<trkpt lat="-27.274438" lon="151.2900637">
  <ele>363.99</ele>
  <time>2026-09-01T19:56:33Z</time>
  <course>70.84</course>
  <speed>0.03</speed>
  <fix>3d</fix>
</trkpt>
<trkpt lat="-27.2744382" lon="151.2900638">
  <ele>364.17</ele>
  <time>2026-09-01T19:56:33Z</time>
  <course>10.69</course>
  <speed>0.03605551275463989</speed>
  <fix>3d</fix>
</trkpt>
<trkpt lat="-27.274438" lon="151.2900637">
  <ele>363.99</ele>
  <time>2026-09-01T19:56:33Z</time>
  <course>70.84</course>
  <speed>0.03</speed>
  <fix>3d</fix>
</trkpt>
<trkpt lat="-27.2744382" lon="151.2900639">
  <ele>364.17</ele>
  <time>2026-09-01T19:56:33Z</time>
  <course>10.7</course>
  <speed>0.03605551275463989</speed>
  <fix>3d</fix>
</trkpt>
<trkpt lat="-27.274438" lon="151.2900638">
  <ele>363.99</ele>
  <time>2026-09-01T19:56:33Z</time>
  <course>91.61</course>
  <speed>0.03</speed>
  <fix>3d</fix>
</trkpt>
<trkpt lat="-27.2744381" lon="151.2900639">
  <ele>364.18</ele>
  <time>2026-09-01T19:56:33Z</time>
  <course>10.7</course>
  <speed>0.04242640687119285</speed>
  <fix>3d</fix>
</trkpt>
<trkpt lat="-27.274438" lon="151.2900638">
  <ele>363.99</ele>
  <time>2026-09-01T19:56:33Z</time>
  <course>91.61</course>
  <speed>0.03</speed>
  <fix>3d</fix>
</trkpt>
<trkpt lat="-27.2744381" lon="151.2900639">
  <ele>364.18</ele>
  <time>2026-09-01T19:56:33Z</time>
  <course>10.7</course>
  <speed>0.03605551275463989</speed>
  <fix>3d</fix>
</trkpt>
<trkpt lat="-27.274438" lon="151.2900639">
  <ele>364.0</ele>
  <time>2026-09-01T19:56:33Z</time>
  <course>111.6</course>
  <speed>0.03</speed>
  <fix>3d</fix>
</trkpt>
<trkpt lat="-27.2744381" lon="151.2900639">
  <ele>364.18</ele>
  <time>2026-09-01T19:56:33Z</time>
  <course>10.71</course>
  <speed>0.044721359549995794</speed>
  <fix>3d</fix>
</trkpt>
<trkpt lat="-27.274438" lon="151.2900639">
  <ele>364.0</ele>
  <time>2026-09-01T19:56:33Z</time>
  <course>111.6</course>
  <speed>0.03</speed>
  <fix>3d</fix>
</trkpt>
<trkpt lat="-27.2744382" lon="151.290064">
  <ele>364.18</ele>
  <time>2026-09-01T19:56:33Z</time>
  <course>10.71</course>
  <speed>0.044721359549995794</speed>
  <fix>3d</fix>
</trkpt>
<trkpt lat="-27.274438" lon="151.2900639">
  <ele>364.0</ele>
  <time>2026-09-01T19:56:33Z</time>
  <course>127.84</course>
  <speed>0.03</speed>
  <fix>3d</fix>
</trkpt>
<trkpt lat="-27.2744382" lon="151.290064">
  <ele>364.18</ele>
  <time>2026-09-01T19:56:33Z</time>
  <course>10.72</course>
  <speed>0.053851648071345036</speed>
  <fix>3d</fix>
</trkpt>
<trkpt lat="-27.274438" lon="151.2900639">
  <ele>364.0</ele>
  <time>2026-09-01T19:56:33Z</time>
  <course>127.84</course>
  <speed>0.03</speed>
  <fix>3d</fix>
</trkpt>
<trkpt lat="-27.2744382" lon="151.290064">
  <ele>364.18</ele>
  <time>2026-09-01T19:56:33Z</time>
  <course>10.71</course>
  <speed>0.053851648071345036</speed>
  <fix>3d</fix>
</trkpt>
<trkpt lat="-27.274438" lon="151.290064">
  <ele>364.0</ele>
  <time>2026-09-01T19:56:33Z</time>
  <course>139.77</course>
  <speed>0.04</speed>
  <fix>3d</fix>
</trkpt>
<trkpt lat="-27.2744382" lon="151.290064">
  <ele>364.18</ele>
  <time>2026-09-01T19:56:33Z</time>
  <course>10.7</course>
  <speed>0.053851648071345036</speed>
  <fix>3d</fix>
</trkpt>
<trkpt lat="-27.274438" lon="151.290064">
  <ele>364.0</ele>
  <time>2026-09-01T19:56:33Z</time>
  <course>139.77</course>
  <speed>0.04</speed>
  <fix>3d</fix>
</trkpt>
<trkpt lat="-27.2744383" lon="151.2900641">
  <ele>364.18</ele>
  <time>2026-09-01T19:56:33Z</time>
  <course>10.69</course>
  <speed>0.0632455532033676</speed>
  <fix>3d</fix>
</trkpt>
<trkpt lat="-27.274438" lon="151.2900641">
  <ele>364.0</ele>
  <time>2026-09-01T19:56:33Z</time>
  <course>148.31</course>
  <speed>0.04</speed>
  <fix>3d</fix>
</trkpt>
<trkpt lat="-27.2744383" lon="151.2900641">
  <ele>364.18</ele>
  <time>2026-09-01T19:56:33Z</time>
  <course>10.69</course>
  <speed>0.0632455532033676</speed>
  <fix>3d</fix>
</trkpt>
<trkpt lat="-27.274438" lon="151.2900641">
  <ele>364.0</ele>
  <time>2026-09-01T19:56:33Z</time>
  <course>148.31</course>
  <speed>0.04</speed>
  <fix>3d</fix>
</trkpt>
<trkpt lat="-27.2744383" lon="151.2900641">
  <ele>364.18</ele>
  <time>2026-09-01T19:56:33Z</time>
  <course>10.68</course>
  <speed>0.06082762530298219</speed>
  <fix>3d</fix>
</trkpt>
<trkpt lat="-27.2744381" lon="151.2900641">
  <ele>364.0</ele>
  <time>2026-09-01T19:56:33Z</time>
  <course>155.01</course>
  <speed>0.05</speed>
  <fix>3d</fix>
</trkpt>
<trkpt lat="-27.2744384" lon="151.2900641">
  <ele>364.17</ele>
  <time>2026-09-01T19:56:33Z</time>
  <course>10.68</course>
  <speed>0.06082762530298219</speed>
  <fix>3d</fix>
</trkpt>
<trkpt lat="-27.2744381" lon="151.2900641">
  <ele>364.0</ele>
  <time>2026-09-01T19:56:33Z</time>
  <course>155.01</course>
  <speed>0.05</speed>
  <fix>3d</fix>
</trkpt>
<trkpt lat="-27.2744384" lon="151.2900641">
  <ele>364.17</ele>
  <time>2026-09-01T19:56:33Z</time>
  <course>10.68</course>
  <speed>0.06082762530298219</speed>
  <fix>3d</fix>
</trkpt>
<trkpt lat="-27.2744382" lon="151.2900641">
  <ele>364.0</ele>
  <time>2026-09-01T19:56:33Z</time>
  <course>161.18</course>
  <speed>0.05</speed>
  <fix>3d</fix>
</trkpt>
<trkpt lat="-27.2744385" lon="151.2900641">
  <ele>364.17</ele>
  <time>2026-09-01T19:56:33Z</time>
  <course>10.69</course>
  <speed>0.06082762530298219</speed>
  <fix>3d</fix>
</trkpt>
<trkpt lat="-27.2744382" lon="151.2900641">
  <ele>364.0</ele>
  <time>2026-09-01T19:56:33Z</time>
  <course>161.18</course>
  <speed>0.05</speed>
  <fix>3d</fix>
</trkpt>
<trkpt lat="-27.2744385" lon="151.2900641">
  <ele>364.17</ele>
  <time>2026-09-01T19:56:33Z</time>
  <course>10.69</course>
  <speed>0.06082762530298219</speed>
  <fix>3d</fix>
</trkpt>
<trkpt lat="-27.2744383" lon="151.2900642">
  <ele>364.0</ele>
  <time>2026-09-01T19:56:33Z</time>
  <course>166.62</course>
  <speed>0.05</speed>
  <fix>3d</fix>
</trkpt>
<trkpt lat="-27.2744385" lon="151.2900642">
  <ele>364.17</ele>
  <time>2026-09-01T19:56:33Z</time>
  <course>10.7</course>
  <speed>0.06</speed>
  <fix>3d</fix>
</trkpt>
<trkpt lat="-27.2744383" lon="151.2900642">
  <ele>364.0</ele>
  <time>2026-09-01T19:56:33Z</time>
  <course>166.62</course>
  <speed>0.05</speed>
  <fix>3d</fix>
</trkpt>
<trkpt lat="-27.2744386" lon="151.2900642">
  <ele>364.17</ele>
  <time>2026-09-01T19:56:33Z</time>
  <course>10.7</course>
  <speed>0.06</speed>
  <fix>3d</fix>
</trkpt>
<trkpt lat="-27.2744384" lon="151.2900642">
  <ele>364.0</ele>
  <time>2026-09-01T19:56:33Z</time>
  <course>170.81</course>
  <speed>0.05</speed>
  <fix>3d</fix>
</trkpt>
<trkpt lat="-27.2744386" lon="151.2900642">
  <ele>364.17</ele>
  <time>2026-09-01T19:56:33Z</time>
  <course>10.7</course>
  <speed>0.06</speed>
  <fix>3d</fix>
</trkpt>
<trkpt lat="-27.2744384" lon="151.2900642">
  <ele>364.0</ele>
  <time>2026-09-01T19:56:33Z</time>
  <course>170.81</course>
  <speed>0.05</speed>
  <fix>3d</fix>
</trkpt>
<trkpt lat="-27.2744387" lon="151.2900642">
  <ele>364.17</ele>
  <time>2026-09-01T19:56:33Z</time>
  <course>10.71</course>
  <speed>0.06</speed>
  <fix>3d</fix>
</trkpt>
<trkpt lat="-27.2744385" lon="151.2900642">
  <ele>364.01</ele>
  <time>2026-09-01T19:56:33Z</time>
  <course>174.47</course>
  <speed>0.05</speed>
  <fix>3d</fix>
</trkpt>
<trkpt lat="-27.2744387" lon="151.2900642">
  <ele>364.17</ele>
  <time>2026-09-01T19:56:33Z</time>
  <course>10.71</course>
  <speed>0.06</speed>
  <fix>3d</fix>
</trkpt>
<trkpt lat="-27.2744385" lon="151.2900642">
  <ele>364.01</ele>
  <time>2026-09-01T19:56:33Z</time>
  <course>174.47</course>
  <speed>0.05</speed>
  <fix>3d</fix>
</trkpt>
<trkpt lat="-27.2744388" lon="151.2900642">
  <ele>364.17</ele>
  <time>2026-09-01T19:56:33Z</time>
  <course>10.72</course>
  <speed>0.06</speed>
  <fix>3d</fix>
</trkpt>
<trkpt lat="-27.2744386" lon="151.2900642">
  <ele>364.01</ele>
  <time>2026-09-01T19:56:33Z</time>
  <course>178.2</course>
  <speed>0.05</speed>
  <fix>3d</fix>
</trkpt>
<trkpt lat="-27.2744388" lon="151.2900642">
  <ele>364.18</ele>
  <time>2026-09-01T19:56:33Z</time>
  <course>10.72</course>
  <speed>0.06</speed>
  <fix>3d</fix>
</trkpt>
<trkpt lat="-27.2744386" lon="151.2900642">
  <ele>364.01</ele>
  <time>2026-09-01T19:56:33Z</time>
  <course>178.2</course>
  <speed>0.05</speed>
  <fix>3d</fix>
</trkpt>
<trkpt lat="-27.2744389" lon="151.2900642">
  <ele>364.18</ele>
  <time>2026-09-01T19:56:33Z</time>
  <course>10.72</course>
  <speed>0.06</speed>
  <fix>3d</fix>
</trkpt>
<trkpt lat="-27.2744387" lon="151.2900642">
  <ele>364.01</ele>
  <time>2026-09-01T19:56:33Z</time>
  <course>181.87</course>
  <speed>0.05</speed>
  <fix>3d</fix>
</trkpt>
<trkpt lat="-27.2744389" lon="151.2900642">
  <ele>364.18</ele>
  <time>2026-09-01T19:56:33Z</time>
  <course>10.72</course>
  <speed>0.06</speed>
  <fix>3d</fix>
</trkpt>
<trkpt lat="-27.2744387" lon="151.2900642">
  <ele>364.01</ele>
  <time>2026-09-01T19:56:33Z</time>
  <course>181.87</course>
  <speed>0.05</speed>
  <fix>3d</fix>
</trkpt>
<trkpt lat="-27.2744389" lon="151.2900642">
  <ele>364.19</ele>
  <time>2026-09-01T19:56:33Z</time>
  <course>10.72</course>
  <speed>0.06</speed>
  <fix>3d</fix>
</trkpt>
<trkpt lat="-27.2744388" lon="151.2900642">
  <ele>364.01</ele>
  <time>2026-09-01T19:56:33Z</time>
  <course>185.44</course>
  <speed>0.05</speed>
  <fix>3d</fix>
</trkpt>
<trkpt lat="-27.274439" lon="151.2900642">
  <ele>364.19</ele>
  <time>2026-09-01T19:56:33Z</time>
  <course>10.72</course>
  <speed>0.05</speed>
  <fix>3d</fix>
</trkpt>
<trkpt lat="-27.2744388" lon="151.2900642">
  <ele>364.01</ele>
  <time>2026-09-01T19:56:33Z</time>
  <course>185.44</course>
  <speed>0.05</speed>
  <fix>3d</fix>
</trkpt>
<trkpt lat="-27.274439" lon="151.2900642">
  <ele>364.19</ele>
  <time>2026-09-01T19:56:33Z</time>
  <course>10.71</course>
  <speed>0.05</speed>
  <fix>3d</fix>
</trkpt>
<trkpt lat="-27.2744389" lon="151.2900642">
  <ele>364.02</ele>
  <time>2026-09-01T19:56:33Z</time>
  <course>189.13</course>
  <speed>0.05</speed>
  <fix>3d</fix>
</trkpt>
<trkpt lat="-27.2744391" lon="151.2900642">
  <ele>364.19</ele>
  <time>2026-09-01T19:56:33Z</time>
  <course>10.7</course>
  <speed>0.05</speed>
  <fix>3d</fix>
</trkpt>
<trkpt lat="-27.2744389" lon="151.2900642">
  <ele>364.02</ele>
  <time>2026-09-01T19:56:33Z</time>
  <course>189.13</course>
  <speed>0.05</speed>
  <fix>3d</fix>
</trkpt>
<trkpt lat="-27.2744391" lon="151.2900642">
  <ele>364.19</ele>
  <time>2026-09-01T19:56:33Z</time>
  <course>10.69</course>
  <speed>0.05</speed>
  <fix>3d</fix>
</trkpt>
<trkpt lat="-27.274439" lon="151.2900642">
  <ele>364.02</ele>
  <time>2026-09-01T19:56:33Z</time>
  <course>193.12</course>
  <speed>0.05</speed>
  <fix>3d</fix>
</trkpt>
<trkpt lat="-27.2744391" lon="151.2900642">
  <ele>364.19</ele>
  <time>2026-09-01T19:56:33Z</time>
  <course>10.68</course>
  <speed>0.05</speed>
  <fix>3d</fix>
</trkpt>
<trkpt lat="-27.274439" lon="151.2900642">
  <ele>364.02</ele>
  <time>2026-09-01T19:56:33Z</time>
  <course>193.12</course>
  <speed>0.05</speed>
  <fix>3d</fix>
</trkpt>
<trkpt lat="-27.2744392" lon="151.2900642">
  <ele>364.19</ele>
  <time>2026-09-01T19:56:33Z</time>
  <course>10.68</course>
  <speed>0.04</speed>
  <fix>3d</fix>
</trkpt>
<trkpt lat="-27.2744391" lon="151.2900642">
  <ele>364.02</ele>
  <time>2026-09-01T19:56:33Z</time>
  <course>197.89</course>
  <speed>0.04</speed>
  <fix>3d</fix>
</trkpt>
<trkpt lat="-27.2744392" lon="151.2900642">
  <ele>364.19</ele>
  <time>2026-09-01T19:56:33Z</time>
  <course>10.67</course>
  <speed>0.04</speed>
  <fix>3d</fix>
</trkpt>
<trkpt lat="-27.2744391" lon="151.2900642">
  <ele>364.02</ele>
  <time>2026-09-01T19:56:33Z</time>
  <course>197.89</course>
  <speed>0.04</speed>
  <fix>3d</fix>
</trkpt>
<trkpt lat="-27.2744393" lon="151.2900642">
  <ele>364.19</ele>
  <time>2026-09-01T19:56:33Z</time>
  <course>10.67</course>
  <speed>0.0412310562561766</speed>
  <fix>3d</fix>
</trkpt>
<trkpt lat="-27.2744392" lon="151.2900642">
  <ele>364.02</ele>
  <time>2026-09-01T19:56:33Z</time>
  <course>203.65</course>
  <speed>0.04</speed>
  <fix>3d</fix>
</trkpt>
<trkpt lat="-27.2744393" lon="151.2900642">
  <ele>364.19</ele>
  <time>2026-09-01T19:56:33Z</time>
  <course>10.66</course>
  <speed>0.0412310562561766</speed>
  <fix>3d</fix>
</trkpt>
<trkpt lat="-27.2744392" lon="151.2900642">
  <ele>364.02</ele>
  <time>2026-09-01T19:56:33Z</time>
  <course>203.65</course>
  <speed>0.04</speed>
  <fix>3d</fix>
</trkpt>
<trkpt lat="-27.2744393" lon="151.2900642">
  <ele>364.19</ele>
  <time>2026-09-01T19:56:33Z</time>
  <course>10.66</course>
  <speed>0.0316227766016838</speed>
  <fix>3d</fix>
</trkpt>
<trkpt lat="-27.2744392" lon="151.2900642">
  <ele>364.01</ele>
  <time>2026-09-01T19:56:33Z</time>
  <course>210.42</course>
  <speed>0.04</speed>
  <fix>3d</fix>
</trkpt>
<trkpt lat="-27.2744393" lon="151.2900642">
  <ele>364.19</ele>
  <time>2026-09-01T19:56:33Z</time>
  <course>10.67</course>
  <speed>0.0316227766016838</speed>
  <fix>3d</fix>
</trkpt>
<trkpt lat="-27.2744392" lon="151.2900642">
  <ele>364.01</ele>
  <time>2026-09-01T19:56:33Z</time>
  <course>210.42</course>
  <speed>0.04</speed>
  <fix>3d</fix>
</trkpt>
<trkpt lat="-27.2744394" lon="151.2900641">
  <ele>364.19</ele>
  <time>2026-09-01T19:56:33Z</time>
  <course>10.68</course>
  <speed>0.022360679774997897</speed>
  <fix>3d</fix>
</trkpt>
<trkpt lat="-27.2744393" lon="151.2900641">
  <ele>364.01</ele>
  <time>2026-09-01T19:56:33Z</time>
  <course>219.0</course>
  <speed>0.03</speed>
  <fix>3d</fix>
</trkpt>
<trkpt lat="-27.2744394" lon="151.2900641">
  <ele>364.19</ele>
  <time>2026-09-01T19:56:33Z</time>
  <course>10.68</course>
  <speed>0.022360679774997897</speed>
  <fix>3d</fix>
</trkpt>
<trkpt lat="-27.2744393" lon="151.2900641">
  <ele>364.01</ele>
  <time>2026-09-01T19:56:33Z</time>
  <course>219.0</course>
  <speed>0.03</speed>
  <fix>3d</fix>
</trkpt>
<trkpt lat="-27.2744394" lon="151.2900641">
  <ele>364.19</ele>
  <time>2026-09-01T19:56:33Z</time>
  <course>10.69</course>
  <speed>0.022360679774997897</speed>
  <fix>3d</fix>
</trkpt>
<trkpt lat="-27.2744394" lon="151.2900641">
  <ele>364.01</ele>
  <time>2026-09-01T19:56:33Z</time>
  <course>230.7</course>
  <speed>0.03</speed>
  <fix>3d</fix>
</trkpt>
<trkpt lat="-27.2744394" lon="151.2900641">
  <ele>364.19</ele>
  <time>2026-09-01T19:56:33Z</time>
  <course>10.69</course>
  <speed>0.01414213562373095</speed>
  <fix>3d</fix>
</trkpt>
<trkpt lat="-27.2744394" lon="151.2900641">
  <ele>364.01</ele>
  <time>2026-09-01T19:56:33Z</time>
  <course>230.7</course>
  <speed>0.03</speed>
  <fix>3d</fix>
</trkpt>
<trkpt lat="-27.2744394" lon="151.2900641">
  <ele>364.19</ele>
  <time>2026-09-01T19:56:33Z</time>
  <course>10.7</course>
  <speed>0.01414213562373095</speed>
  <fix>3d</fix>
</trkpt>
<trkpt lat="-27.2744394" lon="151.290064">
  <ele>364.0</ele>
  <time>2026-09-01T19:56:33Z</time>
  <course>247.23</course>
  <speed>0.02</speed>
  <fix>3d</fix>
</trkpt>
<trkpt lat="-27.2744394" lon="151.2900641">
  <ele>364.19</ele>
  <time>2026-09-01T19:56:33Z</time>
  <course>10.7</course>
  <speed>0.01</speed>
  <fix>3d</fix>
</trkpt>
<trkpt lat="-27.2744394" lon="151.290064">
  <ele>364.0</ele>
  <time>2026-09-01T19:56:33Z</time>
  <course>247.23</course>
  <speed>0.02</speed>
  <fix>3d</fix>
</trkpt>
<trkpt lat="-27.2744394" lon="151.290064">
  <ele>364.19</ele>
  <time>2026-09-01T19:56:33Z</time>
  <course>10.7</course>
  <speed>0.01</speed>
  <fix>3d</fix>
</trkpt>
<trkpt lat="-27.2744394" lon="151.290064">
  <ele>364.0</ele>
  <time>2026-09-01T19:56:33Z</time>
  <course>266.23</course>
  <speed>0.02</speed>
  <fix>3d</fix>
</trkpt>
<trkpt lat="-27.2744394" lon="151.290064">
  <ele>364.19</ele>
  <time>2026-09-01T19:56:33Z</time>
  <course>10.7</course>
  <speed>0.01</speed>
  <fix>3d</fix>
</trkpt>
<trkpt lat="-27.2744394" lon="151.290064">
  <ele>364.0</ele>
  <time>2026-09-01T19:56:33Z</time>
  <course>266.23</course>
  <speed>0.02</speed>
  <fix>3d</fix>
</trkpt>
<trkpt lat="-27.2744394" lon="151.290064">
  <ele>364.19</ele>
  <time>2026-09-01T19:56:33Z</time>
  <course>10.7</course>
  <speed>0.01</speed>
  <fix>3d</fix>
</trkpt>
<trkpt lat="-27.2744394" lon="151.2900639">
  <ele>364.0</ele>
  <time>2026-09-01T19:56:33Z</time>
  <course>279.78</course>
  <speed>0.03</speed>
  <fix>3d</fix>
</trkpt>
<trkpt lat="-27.2744394" lon="151.290064">
  <ele>364.2</ele>
  <time>2026-09-01T19:56:33Z</time>
  <course>10.7</course>
  <speed>0.01</speed>
  <fix>3d</fix>
</trkpt>
<trkpt lat="-27.2744394" lon="151.2900639">
  <ele>364.0</ele>
  <time>2026-09-01T19:56:33Z</time>
  <course>279.78</course>
  <speed>0.03</speed>
  <fix>3d</fix>
</trkpt>
<trkpt lat="-27.2744394" lon="151.2900639">
  <ele>364.2</ele>
  <time>2026-09-01T19:56:33Z</time>
  <course>10.7</course>
  <speed>0.01</speed>
  <fix>3d</fix>
</trkpt>
<trkpt lat="-27.2744394" lon="151.2900638">
  <ele>364.0</ele>
  <time>2026-09-01T19:56:33Z</time>
  <course>287.81</course>
  <speed>0.03</speed>
  <fix>3d</fix>
</trkpt>
<trkpt lat="-27.2744394" lon="151.2900639">
  <ele>364.2</ele>
  <time>2026-09-01T19:56:33Z</time>
  <course>10.7</course>
  <speed>0.01</speed>
  <fix>3d</fix>
</trkpt>
<trkpt lat="-27.2744394" lon="151.2900638">
  <ele>364.0</ele>
  <time>2026-09-01T19:56:33Z</time>
  <course>287.81</course>
  <speed>0.03</speed>
  <fix>3d</fix>
</trkpt>
<trkpt lat="-27.2744394" lon="151.2900639">
  <ele>364.19</ele>
  <time>2026-09-01T19:56:33Z</time>
  <course>10.69</course>
  <speed>0.01</speed>
  <fix>3d</fix>
</trkpt>
<trkpt lat="-27.2744394" lon="151.2900637">
  <ele>363.99</ele>
  <time>2026-09-01T19:56:33Z</time>
  <course>293.52</course>
  <speed>0.03</speed>
  <fix>3d</fix>
</trkpt>
<trkpt lat="-27.2744394" lon="151.2900639">
  <ele>364.19</ele>
  <time>2026-09-01T19:56:33Z</time>
  <course>10.69</course>
  <speed>0.01</speed>
  <fix>3d</fix>
</trkpt>
<trkpt lat="-27.2744394" lon="151.2900637">
  <ele>363.99</ele>
  <time>2026-09-01T19:56:33Z</time>
  <course>293.52</course>
  <speed>0.03</speed>
  <fix>3d</fix>
</trkpt>
<trkpt lat="-27.2744394" lon="151.2900638">
  <ele>364.19</ele>
  <time>2026-09-01T19:56:33Z</time>
  <course>10.69</course>
  <speed>0.01</speed>
  <fix>3d</fix>
</trkpt>
<trkpt lat="-27.2744394" lon="151.2900637">
  <ele>363.99</ele>
  <time>2026-09-01T19:56:33Z</time>
  <course>297.94</course>
  <speed>0.03</speed>
  <fix>3d</fix>
</trkpt>
<trkpt lat="-27.2744394" lon="151.2900638">
  <ele>364.19</ele>
  <time>2026-09-01T19:56:33Z</time>
  <course>10.69</course>
  <speed>0.01</speed>
  <fix>3d</fix>
</trkpt>
<trkpt lat="-27.2744394" lon="151.2900637">
  <ele>363.99</ele>
  <time>2026-09-01T19:56:33Z</time>
  <course>297.94</course>
  <speed>0.03</speed>
  <fix>3d</fix>
</trkpt>
<trkpt lat="-27.2744394" lon="151.2900638">
  <ele>364.19</ele>
  <time>2026-09-01T19:56:33Z</time>
  <course>10.68</course>
  <speed>0.01</speed>
  <fix>3d</fix>
</trkpt>
<trkpt lat="-27.2744394" lon="151.2900636">
  <ele>363.99</ele>
  <time>2026-09-01T19:56:33Z</time>
  <course>302.73</course>
  <speed>0.03</speed>
  <fix>3d</fix>
</trkpt>
<trkpt lat="-27.2744394" lon="151.2900637">
  <ele>364.18</ele>
  <time>2026-09-01T19:56:33Z</time>
  <course>10.68</course>
  <speed>0.01414213562373095</speed>
  <fix>3d</fix>
</trkpt>
<trkpt lat="-27.2744394" lon="151.2900636">
  <ele>363.99</ele>
  <time>2026-09-01T19:56:33Z</time>
  <course>302.73</course>
  <speed>0.03</speed>
  <fix>3d</fix>
</trkpt>
<trkpt lat="-27.2744394" lon="151.2900637">
  <ele>364.18</ele>
  <time>2026-09-01T19:56:33Z</time>
  <course>10.68</course>
  <speed>0.01414213562373095</speed>
  <fix>3d</fix>
</trkpt>
<trkpt lat="-27.2744394" lon="151.2900636">
  <ele>363.98</ele>
  <time>2026-09-01T19:56:33Z</time>
  <course>309.03</course>
  <speed>0.03</speed>
  <fix>3d</fix>
</trkpt>
<trkpt lat="-27.2744394" lon="151.2900637">
  <ele>364.18</ele>
  <time>2026-09-01T19:56:33Z</time>
  <course>10.67</course>
  <speed>0.01</speed>
  <fix>3d</fix>
</trkpt>
<trkpt lat="-27.2744394" lon="151.2900636">
  <ele>363.98</ele>
  <time>2026-09-01T19:56:33Z</time>
  <course>309.03</course>
  <speed>0.03</speed>
  <fix>3d</fix>
</trkpt>
<trkpt lat="-27.2744394" lon="151.2900637">
  <ele>364.18</ele>
  <time>2026-09-01T19:56:33Z</time>
  <course>10.67</course>
  <speed>0.01</speed>
  <fix>3d</fix>
</trkpt>
<trkpt lat="-27.2744393" lon="151.2900635">
  <ele>363.98</ele>
  <time>2026-09-01T19:56:33Z</time>
  <course>316.7</course>
  <speed>0.04</speed>
  <fix>3d</fix>
</trkpt>
<trkpt lat="-27.2744393" lon="151.2900636">
  <ele>364.18</ele>
  <time>2026-09-01T19:56:33Z</time>
  <course>10.67</course>
  <speed>0.01</speed>
  <fix>3d</fix>
</trkpt>
<trkpt lat="-27.2744393" lon="151.2900635">
  <ele>363.98</ele>
  <time>2026-09-01T19:56:33Z</time>
  <course>316.7</course>
  <speed>0.04</speed>
  <fix>3d</fix>
</trkpt>
<trkpt lat="-27.2744393" lon="151.2900636">
  <ele>364.18</ele>
  <time>2026-09-01T19:56:33Z</time>
  <course>10.67</course>
  <speed>0.02</speed>
  <fix>3d</fix>
</trkpt>
<trkpt lat="-27.2744392" lon="151.2900635">
  <ele>363.98</ele>
  <time>2026-09-01T19:56:33Z</time>
  <course>324.3</course>
  <speed>0.04</speed>
  <fix>3d</fix>
</trkpt>
<trkpt lat="-27.2744393" lon="151.2900636">
  <ele>364.18</ele>
  <time>2026-09-01T19:56:33Z</time>
  <course>10.67</course>
  <speed>0.02</speed>
  <fix>3d</fix>
</trkpt>
<trkpt lat="-27.2744392" lon="151.2900635">
  <ele>363.98</ele>
  <time>2026-09-01T19:56:33Z</time>
  <course>324.3</course>
  <speed>0.04</speed>
  <fix>3d</fix>
</trkpt>
<trkpt lat="-27.2744392" lon="151.2900636">
  <ele>364.18</ele>
  <time>2026-09-01T19:56:33Z</time>
  <course>10.68</course>
  <speed>0.02</speed>
  <fix>3d</fix>
</trkpt>
<trkpt lat="-27.2744392" lon="151.2900634">
  <ele>363.98</ele>
  <time>2026-09-01T19:56:33Z</time>
  <course>330.73</course>
  <speed>0.04</speed>
  <fix>3d</fix>
</trkpt>
<trkpt lat="-27.2744392" lon="151.2900636">
  <ele>364.18</ele>
  <time>2026-09-01T19:56:33Z</time>
  <course>10.68</course>
  <speed>0.02</speed>
  <fix>3d</fix>
</trkpt>
<trkpt lat="-27.2744392" lon="151.2900634">
  <ele>363.98</ele>
  <time>2026-09-01T19:56:33Z</time>
  <course>330.73</course>
  <speed>0.04</speed>
  <fix>3d</fix>
</trkpt>
<trkpt lat="-27.2744392" lon="151.2900635">
  <ele>364.18</ele>
  <time>2026-09-01T19:56:33Z</time>
  <course>10.68</course>
  <speed>0.02</speed>
  <fix>3d</fix>
</trkpt>
<trkpt lat="-27.2744391" lon="151.2900633">
  <ele>363.98</ele>
  <time>2026-09-01T19:56:33Z</time>
  <course>336.27</course>
  <speed>0.04</speed>
  <fix>3d</fix>
</trkpt>
<trkpt lat="-27.2744391" lon="151.2900635">
  <ele>364.17</ele>
  <time>2026-09-01T19:56:33Z</time>
  <course>10.68</course>
  <speed>0.02</speed>
  <fix>3d</fix>
</trkpt>
<trkpt lat="-27.2744391" lon="151.2900633">
  <ele>363.98</ele>
  <time>2026-09-01T19:56:33Z</time>
  <course>336.27</course>
  <speed>0.04</speed>
  <fix>3d</fix>
</trkpt>
<trkpt lat="-27.2744391" lon="151.2900635">
  <ele>364.17</ele>
  <time>2026-09-01T19:56:33Z</time>
  <course>10.68</course>
  <speed>0.02</speed>
  <fix>3d</fix>
</trkpt>
<trkpt lat="-27.274439" lon="151.2900633">
  <ele>363.98</ele>
  <time>2026-09-01T19:56:33Z</time>
  <course>341.37</course>
  <speed>0.04</speed>
  <fix>3d</fix>
</trkpt>
<trkpt lat="-27.2744391" lon="151.2900635">
  <ele>364.17</ele>
  <time>2026-09-01T19:56:33Z</time>
  <course>10.68</course>
  <speed>0.02</speed>
  <fix>3d</fix>
</trkpt>
<trkpt lat="-27.274439" lon="151.2900633">
  <ele>363.98</ele>
  <time>2026-09-01T19:56:33Z</time>
  <course>341.37</course>
  <speed>0.04</speed>
  <fix>3d</fix>
</trkpt>
<trkpt lat="-27.274439" lon="151.2900635">
  <ele>364.17</ele>
  <time>2026-09-01T19:56:33Z</time>
  <course>10.68</course>
  <speed>0.02</speed>
  <fix>3d</fix>
</trkpt>
<trkpt lat="-27.2744389" lon="151.2900633">
  <ele>363.98</ele>
  <time>2026-09-01T19:56:33Z</time>
  <course>346.25</course>
  <speed>0.04</speed>
  <fix>3d</fix>
</trkpt>
<trkpt lat="-27.274439" lon="151.2900635">
  <ele>364.18</ele>
  <time>2026-09-01T19:56:33Z</time>
  <course>10.68</course>
  <speed>0.022360679774997897</speed>
  <fix>3d</fix>
</trkpt>
<trkpt lat="-27.2744389" lon="151.2900633">
  <ele>363.98</ele>
  <time>2026-09-01T19:56:33Z</time>
  <course>346.25</course>
  <speed>0.04</speed>
  <fix>3d</fix>
</trkpt>
<trkpt lat="-27.2744389" lon="151.2900635">
  <ele>364.18</ele>
  <time>2026-09-01T19:56:33Z</time>
  <course>10.68</course>
  <speed>0.022360679774997897</speed>
  <fix>3d</fix>
</trkpt>
<trkpt lat="-27.2744388" lon="151.2900632">
  <ele>363.98</ele>
  <time>2026-09-01T19:56:33Z</time>
  <course>351.16</course>
  <speed>0.04</speed>
  <fix>3d</fix>
</trkpt>
<trkpt lat="-27.2744389" lon="151.2900635">
  <ele>364.18</ele>
  <time>2026-09-01T19:56:33Z</time>
  <course>10.68</course>
  <speed>0.022360679774997897</speed>
  <fix>3d</fix>
</trkpt>
<trkpt lat="-27.2744388" lon="151.2900632">
  <ele>363.98</ele>
  <time>2026-09-01T19:56:33Z</time>
  <course>351.16</course>
  <speed>0.04</speed>
  <fix>3d</fix>
</trkpt>
<trkpt lat="-27.2744389" lon="151.2900635">
  <ele>364.18</ele>
  <time>2026-09-01T19:56:33Z</time>
  <course>10.68</course>
  <speed>0.022360679774997897</speed>
  <fix>3d</fix>
</trkpt>
<trkpt lat="-27.2744387" lon="151.2900632">
  <ele>363.98</ele>
  <time>2026-09-01T19:56:33Z</time>
  <course>356.31</course>
  <speed>0.04</speed>
  <fix>3d</fix>
</trkpt>
<trkpt lat="-27.2744388" lon="151.2900634">
  <ele>364.18</ele>
  <time>2026-09-01T19:56:33Z</time>
  <course>10.68</course>
  <speed>0.022360679774997897</speed>
  <fix>3d</fix>
</trkpt>
<trkpt lat="-27.2744387" lon="151.2900632">
  <ele>363.98</ele>
  <time>2026-09-01T19:56:33Z</time>
  <course>356.31</course>
  <speed>0.04</speed>
  <fix>3d</fix>
</trkpt>
<trkpt lat="-27.2744388" lon="151.2900634">
  <ele>364.18</ele>
  <time>2026-09-01T19:56:33Z</time>
  <course>10.68</course>
  <speed>0.022360679774997897</speed>
  <fix>3d</fix>
</trkpt>
<trkpt lat="-27.2744387" lon="151.2900632">
  <ele>363.98</ele>
  <time>2026-09-01T19:56:33Z</time>
  <course>1.52</course>
  <speed>0.04</speed>
  <fix>3d</fix>
</trkpt>
<trkpt lat="-27.2744388" lon="151.2900634">
  <ele>364.18</ele>
  <time>2026-09-01T19:56:33Z</time>
  <course>10.68</course>
  <speed>0.022360679774997897</speed>
  <fix>3d</fix>
</trkpt>
<trkpt lat="-27.2744387" lon="151.2900632">
  <ele>363.98</ele>
  <time>2026-09-01T19:56:33Z</time>
  <course>1.52</course>
  <speed>0.04</speed>
  <fix>3d</fix>
</trkpt>
<trkpt lat="-27.2744387" lon="151.2900634">
  <ele>364.18</ele>
  <time>2026-09-01T19:56:33Z</time>
  <course>10.68</course>
  <speed>0.022360679774997897</speed>
  <fix>3d</fix>
</trkpt>
<trkpt lat="-27.2744386" lon="151.2900632">
  <ele>363.98</ele>
  <time>2026-09-01T19:56:33Z</time>
  <course>6.88</course>
  <speed>0.04</speed>
  <fix>3d</fix>
</trkpt>
<trkpt lat="-27.2744387" lon="151.2900634">
  <ele>364.18</ele>
  <time>2026-09-01T19:56:33Z</time>
  <course>10.68</course>
  <speed>0.022360679774997897</speed>
  <fix>3d</fix>
</trkpt>
<trkpt lat="-27.2744386" lon="151.2900632">
  <ele>363.98</ele>
  <time>2026-09-01T19:56:33Z</time>
  <course>6.88</course>
  <speed>0.04</speed>
  <fix>3d</fix>
</trkpt>
<trkpt lat="-27.2744387" lon="151.2900634">
  <ele>364.18</ele>
  <time>2026-09-01T19:56:33Z</time>
  <course>10.68</course>
  <speed>0.02</speed>
  <fix>3d</fix>
</trkpt>
<trkpt lat="-27.2744385" lon="151.2900632">
  <ele>363.98</ele>
  <time>2026-09-01T19:56:33Z</time>
  <course>12.96</course>
  <speed>0.03</speed>
  <fix>3d</fix>
</trkpt>
<trkpt lat="-27.2744386" lon="151.2900634">
  <ele>364.18</ele>
  <time>2026-09-01T19:56:33Z</time>
  <course>10.68</course>
  <speed>0.02</speed>
  <fix>3d</fix>
</trkpt>
<trkpt lat="-27.2744385" lon="151.2900632">
  <ele>363.98</ele>
  <time>2026-09-01T19:56:33Z</time>
  <course>12.96</course>
  <speed>0.03</speed>
  <fix>3d</fix>
</trkpt>
<trkpt lat="-27.2744386" lon="151.2900634">
  <ele>364.18</ele>
  <time>2026-09-01T19:56:33Z</time>
  <course>10.68</course>
  <speed>0.02</speed>
  <fix>3d</fix>
</trkpt>
<trkpt lat="-27.2744385" lon="151.2900632">
  <ele>363.98</ele>
  <time>2026-09-01T19:56:33Z</time>
  <course>20.72</course>
  <speed>0.03</speed>
  <fix>3d</fix>
</trkpt>
<trkpt lat="-27.2744386" lon="151.2900634">
  <ele>364.18</ele>
  <time>2026-09-01T19:56:33Z</time>
  <course>10.68</course>
  <speed>0.02</speed>
  <fix>3d</fix>
</trkpt>
<trkpt lat="-27.2744385" lon="151.2900632">
  <ele>363.98</ele>
  <time>2026-09-01T19:56:33Z</time>
  <course>20.72</course>
  <speed>0.03</speed>
  <fix>3d</fix>
</trkpt>
<trkpt lat="-27.2744386" lon="151.2900634">
  <ele>364.17</ele>
  <time>2026-09-01T19:56:33Z</time>
  <course>10.68</course>
  <speed>0.02</speed>
  <fix>3d</fix>
</trkpt>
<trkpt lat="-27.2744384" lon="151.2900632">
  <ele>363.98</ele>
  <time>2026-09-01T19:56:33Z</time>
  <course>30.56</course>
  <speed>0.02</speed>
  <fix>3d</fix>
</trkpt>
<trkpt lat="-27.2744386" lon="151.2900634">
  <ele>364.17</ele>
  <time>2026-09-01T19:56:33Z</time>
  <course>10.68</course>
  <speed>0.03</speed>
  <fix>3d</fix>
</trkpt>
<trkpt lat="-27.2744384" lon="151.2900632">
  <ele>363.98</ele>
  <time>2026-09-01T19:56:33Z</time>
  <course>30.56</course>
  <speed>0.02</speed>
  <fix>3d</fix>
</trkpt>
<trkpt lat="-27.2744386" lon="151.2900634">
  <ele>364.17</ele>
  <time>2026-09-01T19:56:33Z</time>
  <course>10.68</course>
  <speed>0.03</speed>
  <fix>3d</fix>
</trkpt>
<trkpt lat="-27.2744384" lon="151.2900632">
  <ele>363.98</ele>
  <time>2026-09-01T19:56:33Z</time>
  <course>39.91</course>
  <speed>0.02</speed>
  <fix>3d</fix>
</trkpt>
<trkpt lat="-27.2744385" lon="151.2900634">
  <ele>364.17</ele>
  <time>2026-09-01T19:56:33Z</time>
  <course>10.68</course>
  <speed>0.03</speed>
  <fix>3d</fix>
</trkpt>
<trkpt lat="-27.2744384" lon="151.2900632">
  <ele>363.98</ele>
  <time>2026-09-01T19:56:33Z</time>
  <course>39.91</course>
  <speed>0.02</speed>
  <fix>3d</fix>
</trkpt>
<trkpt lat="-27.2744385" lon="151.2900634">
  <ele>364.17</ele>
  <time>2026-09-01T19:56:33Z</time>
  <course>10.68</course>
  <speed>0.03</speed>
  <fix>3d</fix>
</trkpt>
<trkpt lat="-27.2744383" lon="151.2900633">
  <ele>363.98</ele>
  <time>2026-09-01T19:56:33Z</time>
  <course>47.26</course>
  <speed>0.02</speed>
  <fix>3d</fix>
</trkpt>
<trkpt lat="-27.2744385" lon="151.2900635">
  <ele>364.16</ele>
  <time>2026-09-01T19:56:33Z</time>
  <course>10.68</course>
  <speed>0.03</speed>
  <fix>3d</fix>
</trkpt>
<trkpt lat="-27.2744383" lon="151.2900633">
  <ele>363.98</ele>
  <time>2026-09-01T19:56:33Z</time>
  <course>47.26</course>
  <speed>0.02</speed>
  <fix>3d</fix>
</trkpt>
<trkpt lat="-27.2744385" lon="151.2900635">
  <ele>364.17</ele>
  <time>2026-09-01T19:56:33Z</time>
  <course>10.68</course>
  <speed>0.03</speed>
  <fix>3d</fix>
</trkpt>
<trkpt lat="-27.2744383" lon="151.2900633">
  <ele>363.98</ele>
  <time>2026-09-01T19:56:33Z</time>
  <course>53.93</course>
  <speed>0.03</speed>
  <fix>3d</fix>
</trkpt>
<trkpt lat="-27.2744385" lon="151.2900635">
  <ele>364.17</ele>
  <time>2026-09-01T19:56:33Z</time>
  <course>10.68</course>
  <speed>0.03</speed>
  <fix>3d</fix>
</trkpt>
<trkpt lat="-27.2744383" lon="151.2900633">
  <ele>363.98</ele>
  <time>2026-09-01T19:56:33Z</time>
  <course>53.93</course>
  <speed>0.03</speed>
  <fix>3d</fix>
</trkpt>
<trkpt lat="-27.2744385" lon="151.2900635">
  <ele>364.17</ele>
  <time>2026-09-01T19:56:33Z</time>
  <course>10.68</course>
  <speed>0.03</speed>
  <fix>3d</fix>
</trkpt>
<trkpt lat="-27.2744383" lon="151.2900634">
  <ele>363.98</ele>
  <time>2026-09-01T19:56:33Z</time>
  <course>60.76</course>
  <speed>0.03</speed>
  <fix>3d</fix>
</trkpt>
<trkpt lat="-27.2744385" lon="151.2900635">
  <ele>364.17</ele>
  <time>2026-09-01T19:56:33Z</time>
  <course>10.68</course>
  <speed>0.0316227766016838</speed>
  <fix>3d</fix>
</trkpt>
<trkpt lat="-27.2744383" lon="151.2900634">
  <ele>363.98</ele>
  <time>2026-09-01T19:56:33Z</time>
  <course>60.76</course>
  <speed>0.03</speed>
  <fix>3d</fix>
</trkpt>
<trkpt lat="-27.2744385" lon="151.2900636">
  <ele>364.17</ele>
  <time>2026-09-01T19:56:33Z</time>
  <course>10.68</course>
  <speed>0.0316227766016838</speed>
  <fix>3d</fix>
</trkpt>
<trkpt lat="-27.2744383" lon="151.2900635">
  <ele>363.98</ele>
  <time>2026-09-01T19:56:33Z</time>
  <course>67.84</course>
  <speed>0.03</speed>
  <fix>3d</fix>
</trkpt>
<trkpt lat="-27.2744384" lon="151.2900636">
  <ele>364.17</ele>
  <time>2026-09-01T19:56:33Z</time>
  <course>10.68</course>
  <speed>0.0316227766016838</speed>
  <fix>3d</fix>
</trkpt>
<trkpt lat="-27.2744383" lon="151.2900635">
  <ele>363.98</ele>
  <time>2026-09-01T19:56:33Z</time>
  <course>67.84</course>
  <speed>0.03</speed>
  <fix>3d</fix>
</trkpt>
<trkpt lat="-27.2744384" lon="151.2900636">
  <ele>364.18</ele>
  <time>2026-09-01T19:56:33Z</time>
  <course>10.68</course>
  <speed>0.0316227766016838</speed>
  <fix>3d</fix>
</trkpt>
<trkpt lat="-27.2744383" lon="151.2900636">
  <ele>363.98</ele>
  <time>2026-09-01T19:56:33Z</time>
  <course>74.9</course>
  <speed>0.03</speed>
  <fix>3d</fix>
</trkpt>
<trkpt lat="-27.2744384" lon="151.2900637">
  <ele>364.18</ele>
  <time>2026-09-01T19:56:33Z</time>
  <course>10.68</course>
  <speed>0.0316227766016838</speed>
  <fix>3d</fix>
</trkpt>
<trkpt lat="-27.2744383" lon="151.2900636">
  <ele>363.98</ele>
  <time>2026-09-01T19:56:33Z</time>
  <course>74.9</course>
  <speed>0.03</speed>
  <fix>3d</fix>
</trkpt>
<trkpt lat="-27.2744384" lon="151.2900637">
  <ele>364.18</ele>
  <time>2026-09-01T19:56:33Z</time>
  <course>10.68</course>
  <speed>0.03605551275463989</speed>
  <fix>3d</fix>
</trkpt>
<trkpt lat="-27.2744382" lon="151.2900636">
  <ele>363.99</ele>
  <time>2026-09-01T19:56:33Z</time>
  <course>82.21</course>
  <speed>0.02</speed>
  <fix>3d</fix>
</trkpt>
<trkpt lat="-27.2744384" lon="151.2900637">
  <ele>364.18</ele>
  <time>2026-09-01T19:56:33Z</time>
  <course>10.68</course>
  <speed>0.03605551275463989</speed>
  <fix>3d</fix>
</trkpt>
<trkpt lat="-27.2744382" lon="151.2900636">
  <ele>363.99</ele>
  <time>2026-09-01T19:56:33Z</time>
  <course>82.21</course>
  <speed>0.02</speed>
  <fix>3d</fix>
</trkpt>
<trkpt lat="-27.2744384" lon="151.2900637">
  <ele>364.18</ele>
  <time>2026-09-01T19:56:33Z</time>
  <course>10.68</course>
  <speed>0.03605551275463989</speed>
  <fix>3d</fix>
</trkpt>
<trkpt lat="-27.2744382" lon="151.2900637">
  <ele>363.99</ele>
  <time>2026-09-01T19:56:33Z</time>
  <course>89.48</course>
  <speed>0.02</speed>
  <fix>3d</fix>
</trkpt>
<trkpt lat="-27.2744384" lon="151.2900638">
  <ele>364.18</ele>
  <time>2026-09-01T19:56:33Z</time>
  <course>10.68</course>
  <speed>0.03605551275463989</speed>
  <fix>3d</fix>
</trkpt>
<trkpt lat="-27.2744382" lon="151.2900637">
  <ele>363.99</ele>
  <time>2026-09-01T19:56:33Z</time>
  <course>89.48</course>
  <speed>0.02</speed>
  <fix>3d</fix>
</trkpt>
<trkpt lat="-27.2744384" lon="151.2900638">
  <ele>364.18</ele>
  <time>2026-09-01T19:56:33Z</time>
  <course>10.68</course>
  <speed>0.03605551275463989</speed>
  <fix>3d</fix>
</trkpt>
<trkpt lat="-27.2744382" lon="151.2900637">
  <ele>363.99</ele>
  <time>2026-09-01T19:56:33Z</time>
  <course>96.44</course>
  <speed>0.02</speed>
  <fix>3d</fix>
</trkpt>
<trkpt lat="-27.2744384" lon="151.2900638">
  <ele>364.18</ele>
  <time>2026-09-01T19:56:33Z</time>
  <course>10.68</course>
  <speed>0.03605551275463989</speed>
  <fix>3d</fix>
</trkpt>
<trkpt lat="-27.2744382" lon="151.2900637">
  <ele>363.99</ele>
  <time>2026-09-01T19:56:33Z</time>
  <course>96.44</course>
  <speed>0.02</speed>
  <fix>3d</fix>
</trkpt>
<trkpt lat="-27.2744384" lon="151.2900639">
  <ele>364.18</ele>
  <time>2026-09-01T19:56:33Z</time>
  <course>10.69</course>
  <speed>0.03605551275463989</speed>
  <fix>3d</fix>
</trkpt>
<trkpt lat="-27.2744382" lon="151.2900637">
  <ele>363.99</ele>
  <time>2026-09-01T19:56:33Z</time>
  <course>103.55</course>
  <speed>0.02</speed>
  <fix>3d</fix>
</trkpt>
<trkpt lat="-27.2744384" lon="151.2900639">
  <ele>364.18</ele>
  <time>2026-09-01T19:56:33Z</time>
  <course>10.69</course>
  <speed>0.04242640687119285</speed>
  <fix>3d</fix>
</trkpt>
<trkpt lat="-27.2744382" lon="151.2900637">
  <ele>363.99</ele>
  <time>2026-09-01T19:56:33Z</time>
  <course>103.55</course>
  <speed>0.02</speed>
  <fix>3d</fix>
</trkpt>
<trkpt lat="-27.2744384" lon="151.2900639">
  <ele>364.18</ele>
  <time>2026-09-01T19:56:33Z</time>
  <course>10.69</course>
  <speed>0.04242640687119285</speed>
  <fix>3d</fix>
</trkpt>
<trkpt lat="-27.2744382" lon="151.2900638">
  <ele>363.99</ele>
  <time>2026-09-01T19:56:33Z</time>
  <course>111.27</course>
  <speed>0.02</speed>
  <fix>3d</fix>
</trkpt>
<trkpt lat="-27.2744384" lon="151.2900639">
  <ele>364.18</ele>
  <time>2026-09-01T19:56:33Z</time>
  <course>10.69</course>
  <speed>0.04242640687119285</speed>
  <fix>3d</fix>
</trkpt>
<trkpt lat="-27.2744382" lon="151.2900638">
  <ele>363.99</ele>
  <time>2026-09-01T19:56:33Z</time>
  <course>111.27</course>
  <speed>0.02</speed>
  <fix>3d</fix>
</trkpt>
<trkpt lat="-27.2744384" lon="151.2900639">
  <ele>364.18</ele>
  <time>2026-09-01T19:56:33Z</time>
  <course>10.69</course>
  <speed>0.03605551275463989</speed>
  <fix>3d</fix>
</trkpt>
<trkpt lat="-27.2744382" lon="151.2900639">
  <ele>363.99</ele>
  <time>2026-09-01T19:56:33Z</time>
  <course>119.29</course>
  <speed>0.02</speed>
  <fix>3d</fix>
</trkpt>
<trkpt lat="-27.2744384" lon="151.290064">
  <ele>364.18</ele>
  <time>2026-09-01T19:56:33Z</time>
  <course>10.69</course>
  <speed>0.03605551275463989</speed>
  <fix>3d</fix>
</trkpt>
<trkpt lat="-27.2744382" lon="151.2900639">
  <ele>363.99</ele>
  <time>2026-09-01T19:56:33Z</time>
  <course>119.29</course>
  <speed>0.02</speed>
  <fix>3d</fix>
</trkpt>
<trkpt lat="-27.2744384" lon="151.290064">
  <ele>364.19</ele>
  <time>2026-09-01T19:56:33Z</time>
  <course>10.69</course>
  <speed>0.03605551275463989</speed>
  <fix>3d</fix>
</trkpt>
<trkpt lat="-27.2744382" lon="151.2900639">
  <ele>363.99</ele>
  <time>2026-09-01T19:56:33Z</time>
  <course>127.05</course>
  <speed>0.02</speed>
  <fix>3d</fix>
</trkpt>
<trkpt lat="-27.2744384" lon="151.290064">
  <ele>364.19</ele>
  <time>2026-09-01T19:56:33Z</time>
  <course>10.69</course>
  <speed>0.03605551275463989</speed>
  <fix>3d</fix>
</trkpt>
<trkpt lat="-27.2744382" lon="151.2900639">
  <ele>363.99</ele>
  <time>2026-09-01T19:56:33Z</time>
  <course>127.05</course>
  <speed>0.02</speed>
  <fix>3d</fix>
</trkpt>
<trkpt lat="-27.2744384" lon="151.290064">
  <ele>364.19</ele>
  <time>2026-09-01T19:56:33Z</time>
  <course>10.7</course>
  <speed>0.03605551275463989</speed>
  <fix>3d</fix>
</trkpt>
<trkpt lat="-27.2744382" lon="151.290064">
  <ele>363.99</ele>
  <time>2026-09-01T19:56:33Z</time>
  <course>135.05</course>
  <speed>0.02</speed>
  <fix>3d</fix>
</trkpt>
<trkpt lat="-27.2744385" lon="151.290064">
  <ele>364.19</ele>
  <time>2026-09-01T19:56:33Z</time>
  <course>10.7</course>
  <speed>0.03605551275463989</speed>
  <fix>3d</fix>
</trkpt>
<trkpt lat="-27.2744382" lon="151.290064">
  <ele>363.99</ele>
  <time>2026-09-01T19:56:33Z</time>
  <course>135.05</course>
  <speed>0.02</speed>
  <fix>3d</fix>
</trkpt>
<trkpt lat="-27.2744385" lon="151.290064">
  <ele>364.19</ele>
  <time>2026-09-01T19:56:33Z</time>
  <course>10.7</course>
  <speed>0.03605551275463989</speed>
  <fix>3d</fix>
</trkpt>
<trkpt lat="-27.2744383" lon="151.290064">
  <ele>363.99</ele>
  <time>2026-09-01T19:56:33Z</time>
  <course>143.73</course>
  <speed>0.02</speed>
  <fix>3d</fix>
</trkpt>
<trkpt lat="-27.2744385" lon="151.2900641">
  <ele>364.18</ele>
  <time>2026-09-01T19:56:33Z</time>
  <course>10.7</course>
  <speed>0.0316227766016838</speed>
  <fix>3d</fix>
</trkpt>
<trkpt lat="-27.2744383" lon="151.290064">
  <ele>363.99</ele>
  <time>2026-09-01T19:56:33Z</time>
  <course>143.73</course>
  <speed>0.02</speed>
  <fix>3d</fix>
</trkpt>
<trkpt lat="-27.2744385" lon="151.2900641">
  <ele>364.18</ele>
  <time>2026-09-01T19:56:33Z</time>
  <course>10.7</course>
  <speed>0.0316227766016838</speed>
  <fix>3d</fix>
</trkpt>
<trkpt lat="-27.2744383" lon="151.2900641">
  <ele>363.99</ele>
  <time>2026-09-01T19:56:33Z</time>
  <course>152.55</course>
  <speed>0.02</speed>
  <fix>3d</fix>
</trkpt>
<trkpt lat="-27.2744385" lon="151.2900641">
  <ele>364.18</ele>
  <time>2026-09-01T19:56:33Z</time>
  <course>10.7</course>
  <speed>0.0316227766016838</speed>
  <fix>3d</fix>
</trkpt>
<trkpt lat="-27.2744383" lon="151.2900641">
  <ele>363.99</ele>
  <time>2026-09-01T19:56:33Z</time>
  <course>152.55</course>
  <speed>0.02</speed>
  <fix>3d</fix>
</trkpt>
<trkpt lat="-27.2744385" lon="151.2900641">
  <ele>364.18</ele>
  <time>2026-09-01T19:56:33Z</time>
  <course>10.7</course>
  <speed>0.0316227766016838</speed>
  <fix>3d</fix>
</trkpt>
<trkpt lat="-27.2744383" lon="151.2900641">
  <ele>363.98</ele>
  <time>2026-09-01T19:56:33Z</time>
  <course>161.5</course>
  <speed>0.02</speed>
  <fix>3d</fix>
</trkpt>
<trkpt lat="-27.2744385" lon="151.2900641">
  <ele>364.18</ele>
  <time>2026-09-01T19:56:33Z</time>
  <course>10.7</course>
  <speed>0.0412310562561766</speed>
  <fix>3d</fix>
</trkpt>
<trkpt lat="-27.2744383" lon="151.2900641">
  <ele>363.98</ele>
  <time>2026-09-01T19:56:33Z</time>
  <course>161.5</course>
  <speed>0.02</speed>
  <fix>3d</fix>
</trkpt>
<trkpt lat="-27.2744385" lon="151.2900641">
  <ele>364.18</ele>
  <time>2026-09-01T19:56:33Z</time>
  <course>10.7</course>
  <speed>0.0412310562561766</speed>
  <fix>3d</fix>
</trkpt>
<trkpt lat="-27.2744384" lon="151.2900641">
  <ele>363.98</ele>
  <time>2026-09-01T19:56:33Z</time>
  <course>170.24</course>
  <speed>0.02</speed>
  <fix>3d</fix>
</trkpt>
<trkpt lat="-27.2744386" lon="151.2900641">
  <ele>364.17</ele>
  <time>2026-09-01T19:56:33Z</time>
  <course>10.7</course>
  <speed>0.04</speed>
  <fix>3d</fix>
</trkpt>
<trkpt lat="-27.2744384" lon="151.2900641">
  <ele>363.98</ele>
  <time>2026-09-01T19:56:33Z</time>
  <course>170.24</course>
  <speed>0.02</speed>
  <fix>3d</fix>
</trkpt>
<trkpt lat="-27.2744386" lon="151.2900641">
  <ele>364.17</ele>
  <time>2026-09-01T19:56:33Z</time>
  <course>10.7</course>
  <speed>0.04</speed>
  <fix>3d</fix>
</trkpt>
<trkpt lat="-27.2744384" lon="151.2900641">
  <ele>363.98</ele>
  <time>2026-09-01T19:56:33Z</time>
  <course>178.92</course>
  <speed>0.02</speed>
  <fix>3d</fix>
</trkpt>
<trkpt lat="-27.2744386" lon="151.2900641">
  <ele>364.17</ele>
  <time>2026-09-01T19:56:33Z</time>
  <course>10.69</course>
  <speed>0.04</speed>
  <fix>3d</fix>
</trkpt>
<trkpt lat="-27.2744384" lon="151.2900641">
  <ele>363.98</ele>
  <time>2026-09-01T19:56:33Z</time>
  <course>178.92</course>
  <speed>0.02</speed>
  <fix>3d</fix>
</trkpt>
<trkpt lat="-27.2744386" lon="151.2900641">
  <ele>364.17</ele>
  <time>2026-09-01T19:56:33Z</time>
  <course>10.69</course>
  <speed>0.03</speed>
  <fix>3d</fix>
</trkpt>
<trkpt lat="-27.2744385" lon="151.2900641">
  <ele>363.98</ele>
  <time>2026-09-01T19:56:33Z</time>
  <course>187.72</course>
  <speed>0.02</speed>
  <fix>3d</fix>
</trkpt>
<trkpt lat="-27.2744386" lon="151.2900641">
  <ele>364.17</ele>
  <time>2026-09-01T19:56:33Z</time>
  <course>10.7</course>
  <speed>0.03</speed>
  <fix>3d</fix>
</trkpt>
<trkpt lat="-27.2744385" lon="151.2900641">
  <ele>363.98</ele>
  <time>2026-09-01T19:56:33Z</time>
  <course>187.72</course>
  <speed>0.02</speed>
  <fix>3d</fix>
</trkpt>
<trkpt lat="-27.2744387" lon="151.2900641">
  <ele>364.17</ele>
  <time>2026-09-01T19:56:33Z</time>
  <course>10.7</course>
  <speed>0.03</speed>
  <fix>3d</fix>
</trkpt>
<trkpt lat="-27.2744385" lon="151.2900641">
  <ele>363.98</ele>
  <time>2026-09-01T19:56:33Z</time>
  <course>195.95</course>
  <speed>0.02</speed>
  <fix>3d</fix>
</trkpt>
<trkpt lat="-27.2744387" lon="151.2900641">
  <ele>364.17</ele>
  <time>2026-09-01T19:56:33Z</time>
  <course>10.7</course>
  <speed>0.03</speed>
  <fix>3d</fix>
</trkpt>
<trkpt lat="-27.2744385" lon="151.2900641">
  <ele>363.98</ele>
  <time>2026-09-01T19:56:33Z</time>
  <course>195.95</course>
  <speed>0.02</speed>
  <fix>3d</fix>
</trkpt>
<trkpt lat="-27.2744387" lon="151.2900641">
  <ele>364.17</ele>
  <time>2026-09-01T19:56:33Z</time>
  <course>10.7</course>
  <speed>0.03</speed>
  <fix>3d</fix>
</trkpt>
<trkpt lat="-27.2744386" lon="151.2900641">
  <ele>363.98</ele>
  <time>2026-09-01T19:56:33Z</time>
  <course>203.78</course>
  <speed>0.02</speed>
  <fix>3d</fix>
</trkpt>
<trkpt lat="-27.2744387" lon="151.2900641">
  <ele>364.17</ele>
  <time>2026-09-01T19:56:33Z</time>
  <course>10.69</course>
  <speed>0.03</speed>
  <fix>3d</fix>
</trkpt>
<trkpt lat="-27.2744386" lon="151.2900641">
  <ele>363.98</ele>
  <time>2026-09-01T19:56:33Z</time>
  <course>203.78</course>
  <speed>0.02</speed>
  <fix>3d</fix>
</trkpt>
<trkpt lat="-27.2744387" lon="151.2900641">
  <ele>364.17</ele>
  <time>2026-09-01T19:56:33Z</time>
  <course>10.69</course>
  <speed>0.03</speed>
  <fix>3d</fix>
</trkpt>
<trkpt lat="-27.2744386" lon="151.2900641">
  <ele>363.98</ele>
  <time>2026-09-01T19:56:33Z</time>
  <course>210.78</course>
  <speed>0.02</speed>
  <fix>3d</fix>
</trkpt>
<trkpt lat="-27.2744388" lon="151.2900641">
  <ele>364.17</ele>
  <time>2026-09-01T19:56:33Z</time>
  <course>10.69</course>
  <speed>0.03</speed>
  <fix>3d</fix>
</trkpt>
<trkpt lat="-27.2744386" lon="151.2900641">
  <ele>363.98</ele>
  <time>2026-09-01T19:56:33Z</time>
  <course>210.78</course>
  <speed>0.02</speed>
  <fix>3d</fix>
</trkpt>
<trkpt lat="-27.2744388" lon="151.2900641">
  <ele>364.17</ele>
  <time>2026-09-01T19:56:33Z</time>
  <course>10.69</course>
  <speed>0.03</speed>
  <fix>3d</fix>
</trkpt>
<trkpt lat="-27.2744387" lon="151.2900641">
  <ele>363.98</ele>
  <time>2026-09-01T19:56:33Z</time>
  <course>216.23</course>
  <speed>0.02</speed>
  <fix>3d</fix>
</trkpt>
<trkpt lat="-27.2744388" lon="151.2900641">
  <ele>364.17</ele>
  <time>2026-09-01T19:56:33Z</time>
  <course>10.68</course>
  <speed>0.03</speed>
  <fix>3d</fix>
</trkpt>
<trkpt lat="-27.2744387" lon="151.2900641">
  <ele>363.98</ele>
  <time>2026-09-01T19:56:33Z</time>
  <course>216.23</course>
  <speed>0.02</speed>
  <fix>3d</fix>
</trkpt>
<trkpt lat="-27.2744388" lon="151.2900641">
  <ele>364.17</ele>
  <time>2026-09-01T19:56:33Z</time>
  <course>10.68</course>
  <speed>0.03</speed>
  <fix>3d</fix>
</trkpt>
<trkpt lat="-27.2744387" lon="151.2900641">
  <ele>363.99</ele>
  <time>2026-09-01T19:56:33Z</time>
  <course>220.66</course>
  <speed>0.02</speed>
  <fix>3d</fix>
</trkpt>
<trkpt lat="-27.2744388" lon="151.2900641">
  <ele>364.17</ele>
  <time>2026-09-01T19:56:33Z</time>
  <course>10.68</course>
  <speed>0.03</speed>
  <fix>3d</fix>
</trkpt>
<trkpt lat="-27.2744387" lon="151.2900641">
  <ele>363.99</ele>
  <time>2026-09-01T19:56:33Z</time>
  <course>220.66</course>
  <speed>0.02</speed>
  <fix>3d</fix>
</trkpt>
<trkpt lat="-27.2744388" lon="151.2900641">
  <ele>364.17</ele>
  <time>2026-09-01T19:56:33Z</time>
  <course>10.68</course>
  <speed>0.03</speed>
  <fix>3d</fix>
</trkpt>
<trkpt lat="-27.2744387" lon="151.290064">
  <ele>363.99</ele>
  <time>2026-09-01T19:56:33Z</time>
  <course>225.95</course>
  <speed>0.02</speed>
  <fix>3d</fix>
</trkpt>
<trkpt lat="-27.2744389" lon="151.2900641">
  <ele>364.17</ele>
  <time>2026-09-01T19:56:33Z</time>
  <course>10.68</course>
  <speed>0.02</speed>
  <fix>3d</fix>
</trkpt>
<trkpt lat="-27.2744387" lon="151.290064">
  <ele>363.99</ele>
  <time>2026-09-01T19:56:33Z</time>
  <course>225.95</course>
  <speed>0.02</speed>
  <fix>3d</fix>
</trkpt>
<trkpt lat="-27.2744389" lon="151.2900641">
  <ele>364.17</ele>
  <time>2026-09-01T19:56:33Z</time>
  <course>10.67</course>
  <speed>0.02</speed>
  <fix>3d</fix>
</trkpt>
<trkpt lat="-27.2744388" lon="151.290064">
  <ele>363.99</ele>
  <time>2026-09-01T19:56:33Z</time>
  <course>233.42</course>
  <speed>0.02</speed>
  <fix>3d</fix>
</trkpt>
<trkpt lat="-27.2744389" lon="151.290064">
  <ele>364.17</ele>
  <time>2026-09-01T19:56:33Z</time>
  <course>10.67</course>
  <speed>0.022360679774997897</speed>
  <fix>3d</fix>
</trkpt>
<trkpt lat="-27.2744388" lon="151.290064">
  <ele>363.99</ele>
  <time>2026-09-01T19:56:33Z</time>
  <course>233.42</course>
  <speed>0.02</speed>
  <fix>3d</fix>
</trkpt>
<trkpt lat="-27.2744389" lon="151.290064">
  <ele>364.17</ele>
  <time>2026-09-01T19:56:33Z</time>
  <course>10.67</course>
  <speed>0.022360679774997897</speed>
  <fix>3d</fix>
</trkpt>
<trkpt lat="-27.2744388" lon="151.2900639">
  <ele>364.0</ele>
  <time>2026-09-01T19:56:33Z</time>
  <course>242.94</course>
  <speed>0.03</speed>
  <fix>3d</fix>
</trkpt>
<trkpt lat="-27.2744389" lon="151.290064">
  <ele>364.17</ele>
  <time>2026-09-01T19:56:33Z</time>
  <course>10.67</course>
  <speed>0.022360679774997897</speed>
  <fix>3d</fix>
</trkpt>
<trkpt lat="-27.2744388" lon="151.2900639">
  <ele>364.0</ele>
  <time>2026-09-01T19:56:33Z</time>
  <course>242.94</course>
  <speed>0.03</speed>
  <fix>3d</fix>
</trkpt>
<trkpt lat="-27.2744389" lon="151.290064">
  <ele>364.16</ele>
  <time>2026-09-01T19:56:33Z</time>
  <course>10.67</course>
  <speed>0.022360679774997897</speed>
  <fix>3d</fix>
</trkpt>
<trkpt lat="-27.2744388" lon="151.2900638">
  <ele>364.0</ele>
  <time>2026-09-01T19:56:33Z</time>
  <course>252.5</course>
  <speed>0.03</speed>
  <fix>3d</fix>
</trkpt>
<trkpt lat="-27.2744389" lon="151.2900639">
  <ele>364.16</ele>
  <time>2026-09-01T19:56:33Z</time>
  <course>10.68</course>
  <speed>0.01414213562373095</speed>
  <fix>3d</fix>
</trkpt>
<trkpt lat="-27.2744388" lon="151.2900638">
  <ele>364.0</ele>
  <time>2026-09-01T19:56:33Z</time>
  <course>252.5</course>
  <speed>0.03</speed>
  <fix>3d</fix>
</trkpt>
<trkpt lat="-27.2744389" lon="151.2900639">
  <ele>364.16</ele>
  <time>2026-09-01T19:56:33Z</time>
  <course>10.68</course>
  <speed>0.01414213562373095</speed>
  <fix>3d</fix>
</trkpt>
<trkpt lat="-27.2744389" lon="151.2900637">
  <ele>364.0</ele>
  <time>2026-09-01T19:56:33Z</time>
  <course>259.21</course>
  <speed>0.03</speed>
  <fix>3d</fix>
</trkpt>
<trkpt lat="-27.2744389" lon="151.2900639">
  <ele>364.16</ele>
  <time>2026-09-01T19:56:33Z</time>
  <course>10.68</course>
  <speed>0.01414213562373095</speed>
  <fix>3d</fix>
</trkpt>
<trkpt lat="-27.2744389" lon="151.2900637">
  <ele>364.0</ele>
  <time>2026-09-01T19:56:33Z</time>
  <course>259.21</course>
  <speed>0.03</speed>
  <fix>3d</fix>
</trkpt>
<trkpt lat="-27.2744389" lon="151.2900638">
  <ele>364.16</ele>
  <time>2026-09-01T19:56:33Z</time>
  <course>10.68</course>
  <speed>0.01414213562373095</speed>
  <fix>3d</fix>
</trkpt>
<trkpt lat="-27.2744389" lon="151.2900637">
  <ele>364.0</ele>
  <time>2026-09-01T19:56:33Z</time>
  <course>263.1</course>
  <speed>0.03</speed>
  <fix>3d</fix>
</trkpt>
<trkpt lat="-27.2744389" lon="151.2900638">
  <ele>364.16</ele>
  <time>2026-09-01T19:56:33Z</time>
  <course>10.68</course>
  <speed>0.01</speed>
  <fix>3d</fix>
</trkpt>
<trkpt lat="-27.2744389" lon="151.2900637">
  <ele>364.0</ele>
  <time>2026-09-01T19:56:33Z</time>
  <course>263.1</course>
  <speed>0.03</speed>
  <fix>3d</fix>
</trkpt>
<trkpt lat="-27.2744389" lon="151.2900638">
  <ele>364.17</ele>
  <time>2026-09-01T19:56:33Z</time>
  <course>10.68</course>
  <speed>0.01</speed>
  <fix>3d</fix>
</trkpt>
<trkpt lat="-27.2744389" lon="151.2900637">
  <ele>364.0</ele>
  <time>2026-09-01T19:56:33Z</time>
  <course>266.32</course>
  <speed>0.02</speed>
  <fix>3d</fix>
</trkpt>
<trkpt lat="-27.2744389" lon="151.2900638">
  <ele>364.17</ele>
  <time>2026-09-01T19:56:33Z</time>
  <course>10.69</course>
  <speed>0.01</speed>
  <fix>3d</fix>
</trkpt>
<trkpt lat="-27.2744389" lon="151.2900637">
  <ele>364.0</ele>
  <time>2026-09-01T19:56:33Z</time>
  <course>266.32</course>
  <speed>0.02</speed>
  <fix>3d</fix>
</trkpt>
<trkpt lat="-27.2744389" lon="151.2900637">
  <ele>364.18</ele>
  <time>2026-09-01T19:56:33Z</time>
  <course>10.69</course>
  <speed>0.01</speed>
  <fix>3d</fix>
</trkpt>
<trkpt lat="-27.2744389" lon="151.2900636">
  <ele>364.01</ele>
  <time>2026-09-01T19:56:33Z</time>
  <course>271.37</course>
  <speed>0.02</speed>
  <fix>3d</fix>
</trkpt>
<trkpt lat="-27.2744389" lon="151.2900637">
  <ele>364.18</ele>
  <time>2026-09-01T19:56:33Z</time>
  <course>10.69</course>
  <speed>0.01</speed>
  <fix>3d</fix>
</trkpt>
<trkpt lat="-27.2744389" lon="151.2900636">
  <ele>364.01</ele>
  <time>2026-09-01T19:56:33Z</time>
  <course>271.37</course>
  <speed>0.02</speed>
  <fix>3d</fix>
</trkpt>
<trkpt lat="-27.2744389" lon="151.2900637">
  <ele>364.19</ele>
  <time>2026-09-01T19:56:33Z</time>
  <course>10.69</course>
  <speed>0.01</speed>
  <fix>3d</fix>
</trkpt>
<trkpt lat="-27.2744389" lon="151.2900636">
  <ele>364.01</ele>
  <time>2026-09-01T19:56:33Z</time>
  <course>278.77</course>
  <speed>0.02</speed>
  <fix>3d</fix>
</trkpt>
<trkpt lat="-27.2744389" lon="151.2900637">
  <ele>364.19</ele>
  <time>2026-09-01T19:56:33Z</time>
  <course>10.69</course>
  <speed>0.01</speed>
  <fix>3d</fix>
</trkpt>
<trkpt lat="-27.2744389" lon="151.2900636">
  <ele>364.01</ele>
  <time>2026-09-01T19:56:33Z</time>
  <course>278.77</course>
  <speed>0.02</speed>
  <fix>3d</fix>
</trkpt>
<trkpt lat="-27.2744389" lon="151.2900637">
  <ele>364.19</ele>
  <time>2026-09-01T19:56:33Z</time>
  <course>10.69</course>
  <speed>0.0</speed>
  <fix>3d</fix>
</trkpt>
<trkpt lat="-27.2744389" lon="151.2900635">
  <ele>364.01</ele>
  <time>2026-09-01T19:56:33Z</time>
  <course>286.68</course>
  <speed>0.02</speed>
  <fix>3d</fix>
</trkpt>
<trkpt lat="-27.2744389" lon="151.2900637">
  <ele>364.2</ele>
  <time>2026-09-01T19:56:33Z</time>
  <course>10.69</course>
  <speed>0.0</speed>
  <fix>3d</fix>
</trkpt>
<trkpt lat="-27.2744389" lon="151.2900635">
  <ele>364.01</ele>
  <time>2026-09-01T19:56:33Z</time>
  <course>286.68</course>
  <speed>0.02</speed>
  <fix>3d</fix>
</trkpt>
<trkpt lat="-27.2744389" lon="151.2900636">
  <ele>364.2</ele>
  <time>2026-09-01T19:56:33Z</time>
  <course>10.69</course>
  <speed>0.0</speed>
  <fix>3d</fix>
</trkpt>
<trkpt lat="-27.2744389" lon="151.2900635">
  <ele>364.02</ele>
  <time>2026-09-01T19:56:33Z</time>
  <course>294.52</course>
  <speed>0.02</speed>
  <fix>3d</fix>
</trkpt>
<trkpt lat="-27.2744389" lon="151.2900636">
  <ele>364.2</ele>
  <time>2026-09-01T19:56:33Z</time>
  <course>10.69</course>
  <speed>0.0</speed>
  <fix>3d</fix>
</trkpt>
<trkpt lat="-27.2744389" lon="151.2900635">
  <ele>364.02</ele>
  <time>2026-09-01T19:56:33Z</time>
  <course>294.52</course>
  <speed>0.02</speed>
  <fix>3d</fix>
</trkpt>
<trkpt lat="-27.2744389" lon="151.2900636">
  <ele>364.2</ele>
  <time>2026-09-01T19:56:33Z</time>
  <course>10.68</course>
  <speed>0.0</speed>
  <fix>3d</fix>
</trkpt>
<trkpt lat="-27.2744389" lon="151.2900634">
  <ele>364.02</ele>
  <time>2026-09-01T19:56:33Z</time>
  <course>302.92</course>
  <speed>0.02</speed>
  <fix>3d</fix>
</trkpt>
<trkpt lat="-27.2744389" lon="151.2900636">
  <ele>364.2</ele>
  <time>2026-09-01T19:56:33Z</time>
  <course>10.68</course>
  <speed>0.0</speed>
  <fix>3d</fix>
</trkpt>
<trkpt lat="-27.2744389" lon="151.2900634">
  <ele>364.02</ele>
  <time>2026-09-01T19:56:33Z</time>
  <course>302.92</course>
  <speed>0.02</speed>
  <fix>3d</fix>
</trkpt>
<trkpt lat="-27.2744389" lon="151.2900636">
  <ele>364.2</ele>
  <time>2026-09-01T19:56:33Z</time>
  <course>10.68</course>
  <speed>0.0</speed>
  <fix>3d</fix>
</trkpt>
<trkpt lat="-27.2744389" lon="151.2900633">
  <ele>364.01</ele>
  <time>2026-09-01T19:56:33Z</time>
  <course>311.09</course>
  <speed>0.02</speed>
  <fix>3d</fix>
</trkpt>
<trkpt lat="-27.2744389" lon="151.2900636">
  <ele>364.2</ele>
  <time>2026-09-01T19:56:33Z</time>
  <course>10.68</course>
  <speed>0.0</speed>
  <fix>3d</fix>
</trkpt>
<trkpt lat="-27.2744389" lon="151.2900633">
  <ele>364.01</ele>
  <time>2026-09-01T19:56:33Z</time>
  <course>311.09</course>
  <speed>0.02</speed>
  <fix>3d</fix>
</trkpt>
<trkpt lat="-27.2744389" lon="151.2900635">
  <ele>364.19</ele>
  <time>2026-09-01T19:56:33Z</time>
  <course>10.68</course>
  <speed>0.0</speed>
  <fix>3d</fix>
</trkpt>
<trkpt lat="-27.2744389" lon="151.2900633">
  <ele>364.01</ele>
  <time>2026-09-01T19:56:33Z</time>
  <course>318.08</course>
  <speed>0.02</speed>
  <fix>3d</fix>
</trkpt>
<trkpt lat="-27.2744389" lon="151.2900635">
  <ele>364.19</ele>
  <time>2026-09-01T19:56:33Z</time>
  <course>10.68</course>
  <speed>0.0</speed>
  <fix>3d</fix>
</trkpt>
<trkpt lat="-27.2744389" lon="151.2900633">
  <ele>364.01</ele>
  <time>2026-09-01T19:56:33Z</time>
  <course>318.08</course>
  <speed>0.02</speed>
  <fix>3d</fix>
</trkpt>
<trkpt lat="-27.2744389" lon="151.2900635">
  <ele>364.19</ele>
  <time>2026-09-01T19:56:33Z</time>
  <course>10.68</course>
  <speed>0.0</speed>
  <fix>3d</fix>
</trkpt>
<trkpt lat="-27.2744388" lon="151.2900633">
  <ele>364.0</ele>
  <time>2026-09-01T19:56:33Z</time>
  <course>325.95</course>
  <speed>0.02</speed>
  <fix>3d</fix>
</trkpt>
<trkpt lat="-27.2744389" lon="151.2900635">
  <ele>364.19</ele>
  <time>2026-09-01T19:56:33Z</time>
  <course>10.68</course>
  <speed>0.01</speed>
  <fix>3d</fix>
</trkpt>
<trkpt lat="-27.2744388" lon="151.2900633">
  <ele>364.0</ele>
  <time>2026-09-01T19:56:33Z</time>
  <course>325.95</course>
  <speed>0.02</speed>
  <fix>3d</fix>
</trkpt>
<trkpt lat="-27.2744389" lon="151.2900634">
  <ele>364.18</ele>
  <time>2026-09-01T19:56:33Z</time>
  <course>10.68</course>
  <speed>0.01</speed>
  <fix>3d</fix>
</trkpt>
<trkpt lat="-27.2744388" lon="151.2900632">
  <ele>364.0</ele>
  <time>2026-09-01T19:56:33Z</time>
  <course>336.6</course>
  <speed>0.02</speed>
  <fix>3d</fix>
</trkpt>
<trkpt lat="-27.2744389" lon="151.2900634">
  <ele>364.18</ele>
  <time>2026-09-01T19:56:33Z</time>
  <course>10.68</course>
  <speed>0.01</speed>
  <fix>3d</fix>
</trkpt>
<trkpt lat="-27.2744388" lon="151.2900632">
  <ele>364.0</ele>
  <time>2026-09-01T19:56:33Z</time>
  <course>336.6</course>
  <speed>0.02</speed>
  <fix>3d</fix>
</trkpt>
<trkpt lat="-27.2744389" lon="151.2900634">
  <ele>364.18</ele>
  <time>2026-09-01T19:56:33Z</time>
  <course>10.68</course>
  <speed>0.01</speed>
  <fix>3d</fix>
</trkpt>
<trkpt lat="-27.2744388" lon="151.2900632">
  <ele>363.99</ele>
  <time>2026-09-01T19:56:33Z</time>
  <course>349.07</course>
  <speed>0.02</speed>
  <fix>3d</fix>
</trkpt>
<trkpt lat="-27.2744389" lon="151.2900634">
  <ele>364.18</ele>
  <time>2026-09-01T19:56:33Z</time>
  <course>10.68</course>
  <speed>0.01</speed>
  <fix>3d</fix>
</trkpt>
<trkpt lat="-27.2744388" lon="151.2900632">
  <ele>363.99</ele>
  <time>2026-09-01T19:56:33Z</time>
  <course>349.07</course>
  <speed>0.02</speed>
  <fix>3d</fix>
</trkpt>
<trkpt lat="-27.2744389" lon="151.2900634">
  <ele>364.17</ele>
  <time>2026-09-01T19:56:33Z</time>
  <course>10.68</course>
  <speed>0.01</speed>
  <fix>3d</fix>
</trkpt>
<trkpt lat="-27.2744387" lon="151.2900632">
  <ele>363.99</ele>
  <time>2026-09-01T19:56:33Z</time>
  <course>0.48</course>
  <speed>0.02</speed>
  <fix>3d</fix>
</trkpt>
<trkpt lat="-27.2744389" lon="151.2900634">
  <ele>364.17</ele>
  <time>2026-09-01T19:56:33Z</time>
  <course>10.68</course>
  <speed>0.01</speed>
  <fix>3d</fix>
</trkpt>
<trkpt lat="-27.2744387" lon="151.2900632">
  <ele>363.99</ele>
  <time>2026-09-01T19:56:33Z</time>
  <course>0.48</course>
  <speed>0.02</speed>
  <fix>3d</fix>
</trkpt>
<trkpt lat="-27.2744389" lon="151.2900634">
  <ele>364.17</ele>
  <time>2026-09-01T19:56:33Z</time>
  <course>10.67</course>
  <speed>0.02</speed>
  <fix>3d</fix>
</trkpt>
<trkpt lat="-27.2744387" lon="151.2900632">
  <ele>363.99</ele>
  <time>2026-09-01T19:56:33Z</time>
  <course>8.74</course>
  <speed>0.02</speed>
  <fix>3d</fix>
</trkpt>
<trkpt lat="-27.2744388" lon="151.2900634">
  <ele>364.17</ele>
  <time>2026-09-01T19:56:34Z</time>
  <course>10.67</course>
  <speed>0.02</speed>
  <fix>3d</fix>
</trkpt>
<trkpt lat="-27.2744387" lon="151.2900632">
  <ele>363.99</ele>
  <time>2026-09-01T19:56:34Z</time>
  <course>8.74</course>
  <speed>0.02</speed>
  <fix>3d</fix>
</trkpt>
<trkpt lat="-27.2744388" lon="151.2900634">
  <ele>364.17</ele>
  <time>2026-09-01T19:56:34Z</time>
  <course>10.67</course>
  <speed>0.02</speed>
  <fix>3d</fix>
</trkpt>
<trkpt lat="-27.2744386" lon="151.2900632">
  <ele>363.99</ele>
  <time>2026-09-01T19:56:34Z</time>
  <course>13.91</course>
  <speed>0.02</speed>
  <fix>3d</fix>
</trkpt>
<trkpt lat="-27.2744388" lon="151.2900634">
  <ele>364.17</ele>
  <time>2026-09-01T19:56:34Z</time>
  <course>10.67</course>
  <speed>0.02</speed>
  <fix>3d</fix>
</trkpt>
<trkpt lat="-27.2744386" lon="151.2900632">
  <ele>363.99</ele>
  <time>2026-09-01T19:56:34Z</time>
  <course>13.91</course>
  <speed>0.02</speed>
  <fix>3d</fix>
</trkpt>
<trkpt lat="-27.2744388" lon="151.2900634">
  <ele>364.17</ele>
  <time>2026-09-01T19:56:34Z</time>
  <course>10.68</course>
  <speed>0.02</speed>
  <fix>3d</fix>
</trkpt>
<trkpt lat="-27.2744386" lon="151.2900632">
  <ele>363.99</ele>
  <time>2026-09-01T19:56:34Z</time>
  <course>17.3</course>
  <speed>0.02</speed>
  <fix>3d</fix>
</trkpt>
<trkpt lat="-27.2744388" lon="151.2900634">
  <ele>364.18</ele>
  <time>2026-09-01T19:56:34Z</time>
  <course>10.68</course>
  <speed>0.02</speed>
  <fix>3d</fix>
</trkpt>
<trkpt lat="-27.2744386" lon="151.2900632">
  <ele>363.99</ele>
  <time>2026-09-01T19:56:34Z</time>
  <course>17.3</course>
  <speed>0.02</speed>
  <fix>3d</fix>
</trkpt>
<trkpt lat="-27.2744387" lon="151.2900634">
  <ele>364.18</ele>
  <time>2026-09-01T19:56:34Z</time>
  <course>10.68</course>
  <speed>0.02</speed>
  <fix>3d</fix>
</trkpt>
<trkpt lat="-27.2744385" lon="151.2900632">
  <ele>363.99</ele>
  <time>2026-09-01T19:56:34Z</time>
  <course>22.62</course>
  <speed>0.02</speed>
  <fix>3d</fix>
</trkpt>
<trkpt lat="-27.2744387" lon="151.2900634">
  <ele>364.18</ele>
  <time>2026-09-01T19:56:34Z</time>
  <course>10.68</course>
  <speed>0.02</speed>
  <fix>3d</fix>
</trkpt>
<trkpt lat="-27.2744385" lon="151.2900632">
  <ele>363.99</ele>
  <time>2026-09-01T19:56:34Z</time>
  <course>22.62</course>
  <speed>0.02</speed>
  <fix>3d</fix>
</trkpt>
<trkpt lat="-27.2744387" lon="151.2900634">
  <ele>364.18</ele>
  <time>2026-09-01T19:56:34Z</time>
  <course>10.68</course>
  <speed>0.02</speed>
  <fix>3d</fix>
</trkpt>
<trkpt lat="-27.2744385" lon="151.2900632">
  <ele>363.99</ele>
  <time>2026-09-01T19:56:34Z</time>
  <course>30.55</course>
  <speed>0.02</speed>
  <fix>3d</fix>
</trkpt>
<trkpt lat="-27.2744387" lon="151.2900634">
  <ele>364.18</ele>
  <time>2026-09-01T19:56:34Z</time>
  <course>10.69</course>
  <speed>0.03</speed>
  <fix>3d</fix>
</trkpt>
<trkpt lat="-27.2744385" lon="151.2900632">
  <ele>363.99</ele>
  <time>2026-09-01T19:56:34Z</time>
  <course>30.55</course>
  <speed>0.02</speed>
  <fix>3d</fix>
</trkpt>
<trkpt lat="-27.2744387" lon="151.2900634">
  <ele>364.18</ele>
  <time>2026-09-01T19:56:34Z</time>
  <course>10.69</course>
  <speed>0.03</speed>
  <fix>3d</fix>
</trkpt>
<trkpt lat="-27.2744384" lon="151.2900632">
  <ele>363.99</ele>
  <time>2026-09-01T19:56:34Z</time>
  <course>37.68</course>
  <speed>0.02</speed>
  <fix>3d</fix>
</trkpt>
<trkpt lat="-27.2744386" lon="151.2900634">
  <ele>364.18</ele>
  <time>2026-09-01T19:56:34Z</time>
  <course>10.69</course>
  <speed>0.03</speed>
  <fix>3d</fix>
</trkpt>
<trkpt lat="-27.2744384" lon="151.2900632">
  <ele>363.99</ele>
  <time>2026-09-01T19:56:34Z</time>
  <course>37.68</course>
  <speed>0.02</speed>
  <fix>3d</fix>
</trkpt>
<trkpt lat="-27.2744386" lon="151.2900634">
  <ele>364.18</ele>
  <time>2026-09-01T19:56:34Z</time>
  <course>10.69</course>
  <speed>0.03</speed>
  <fix>3d</fix>
</trkpt>
<trkpt lat="-27.2744384" lon="151.2900633">
  <ele>364.0</ele>
  <time>2026-09-01T19:56:34Z</time>
  <course>43.67</course>
  <speed>0.02</speed>
  <fix>3d</fix>
</trkpt>
<trkpt lat="-27.2744386" lon="151.2900635">
  <ele>364.18</ele>
  <time>2026-09-01T19:56:34Z</time>
  <course>10.69</course>
  <speed>0.03</speed>
  <fix>3d</fix>
</trkpt>
<trkpt lat="-27.2744384" lon="151.2900633">
  <ele>364.0</ele>
  <time>2026-09-01T19:56:34Z</time>
  <course>43.67</course>
  <speed>0.02</speed>
  <fix>3d</fix>
</trkpt>
<trkpt lat="-27.2744386" lon="151.2900635">
  <ele>364.18</ele>
  <time>2026-09-01T19:56:34Z</time>
  <course>10.69</course>
  <speed>0.03</speed>
  <fix>3d</fix>
</trkpt>
<trkpt lat="-27.2744384" lon="151.2900633">
  <ele>364.0</ele>
  <time>2026-09-01T19:56:34Z</time>
  <course>49.88</course>
  <speed>0.02</speed>
  <fix>3d</fix>
</trkpt>
<trkpt lat="-27.2744386" lon="151.2900635">
  <ele>364.18</ele>
  <time>2026-09-01T19:56:34Z</time>
  <course>10.69</course>
  <speed>0.03</speed>
  <fix>3d</fix>
</trkpt>
<trkpt lat="-27.2744384" lon="151.2900633">
  <ele>364.0</ele>
  <time>2026-09-01T19:56:34Z</time>
  <course>49.88</course>
  <speed>0.02</speed>
  <fix>3d</fix>
</trkpt>
<trkpt lat="-27.2744386" lon="151.2900635">
  <ele>364.18</ele>
  <time>2026-09-01T19:56:34Z</time>
  <course>10.69</course>
  <speed>0.0316227766016838</speed>
  <fix>3d</fix>
</trkpt>
<trkpt lat="-27.2744383" lon="151.2900634">
  <ele>364.0</ele>
  <time>2026-09-01T19:56:34Z</time>
  <course>56.53</course>
  <speed>0.02</speed>
  <fix>3d</fix>
</trkpt>
<trkpt lat="-27.2744386" lon="151.2900635">
  <ele>364.17</ele>
  <time>2026-09-01T19:56:34Z</time>
  <course>10.69</course>
  <speed>0.0316227766016838</speed>
  <fix>3d</fix>
</trkpt>
<trkpt lat="-27.2744383" lon="151.2900634">
  <ele>364.0</ele>
  <time>2026-09-01T19:56:34Z</time>
  <course>56.53</course>
  <speed>0.02</speed>
  <fix>3d</fix>
</trkpt>
<trkpt lat="-27.2744385" lon="151.2900636">
  <ele>364.17</ele>
  <time>2026-09-01T19:56:34Z</time>
  <course>10.69</course>
  <speed>0.0316227766016838</speed>
  <fix>3d</fix>
</trkpt>
<trkpt lat="-27.2744383" lon="151.2900635">
  <ele>364.0</ele>
  <time>2026-09-01T19:56:34Z</time>
  <course>63.08</course>
  <speed>0.03</speed>
  <fix>3d</fix>
</trkpt>
<trkpt lat="-27.2744385" lon="151.2900636">
  <ele>364.17</ele>
  <time>2026-09-01T19:56:34Z</time>
  <course>10.69</course>
  <speed>0.0316227766016838</speed>
  <fix>3d</fix>
</trkpt>
<trkpt lat="-27.2744383" lon="151.2900635">
  <ele>364.0</ele>
  <time>2026-09-01T19:56:34Z</time>
  <course>63.08</course>
  <speed>0.03</speed>
  <fix>3d</fix>
</trkpt>
<trkpt lat="-27.2744385" lon="151.2900636">
  <ele>364.17</ele>
  <time>2026-09-01T19:56:34Z</time>
  <course>10.69</course>
  <speed>0.0316227766016838</speed>
  <fix>3d</fix>
</trkpt>
<trkpt lat="-27.2744383" lon="151.2900635">
  <ele>364.0</ele>
  <time>2026-09-01T19:56:34Z</time>
  <course>69.07</course>
  <speed>0.03</speed>
  <fix>3d</fix>
</trkpt>
<trkpt lat="-27.2744385" lon="151.2900636">
  <ele>364.16</ele>
  <time>2026-09-01T19:56:34Z</time>
  <course>10.69</course>
  <speed>0.0316227766016838</speed>
  <fix>3d</fix>
</trkpt>
<trkpt lat="-27.2744383" lon="151.2900635">
  <ele>364.0</ele>
  <time>2026-09-01T19:56:34Z</time>
  <course>69.07</course>
  <speed>0.03</speed>
  <fix>3d</fix>
</trkpt>
<trkpt lat="-27.2744385" lon="151.2900637">
  <ele>364.16</ele>
  <time>2026-09-01T19:56:34Z</time>
  <course>10.69</course>
  <speed>0.0316227766016838</speed>
  <fix>3d</fix>
</trkpt>
<trkpt lat="-27.2744383" lon="151.2900636">
  <ele>364.0</ele>
  <time>2026-09-01T19:56:34Z</time>
  <course>74.45</course>
  <speed>0.03</speed>
  <fix>3d</fix>
</trkpt>
<trkpt lat="-27.2744385" lon="151.2900637">
  <ele>364.17</ele>
  <time>2026-09-01T19:56:34Z</time>
  <course>10.69</course>
  <speed>0.0316227766016838</speed>
  <fix>3d</fix>
</trkpt>
<trkpt lat="-27.2744383" lon="151.2900636">
  <ele>364.0</ele>
  <time>2026-09-01T19:56:34Z</time>
  <course>74.45</course>
  <speed>0.03</speed>
  <fix>3d</fix>
</trkpt>
<trkpt lat="-27.2744385" lon="151.2900637">
  <ele>364.17</ele>
  <time>2026-09-01T19:56:34Z</time>
  <course>10.69</course>
  <speed>0.03605551275463989</speed>
  <fix>3d</fix>
</trkpt>
<trkpt lat="-27.2744383" lon="151.2900636">
  <ele>364.0</ele>
  <time>2026-09-01T19:56:34Z</time>
  <course>79.6</course>
  <speed>0.02</speed>
  <fix>3d</fix>
</trkpt>
<trkpt lat="-27.2744385" lon="151.2900638">
  <ele>364.17</ele>
  <time>2026-09-01T19:56:34Z</time>
  <course>10.69</course>
  <speed>0.03605551275463989</speed>
  <fix>3d</fix>
</trkpt>
<trkpt lat="-27.2744383" lon="151.2900636">
  <ele>364.0</ele>
  <time>2026-09-01T19:56:34Z</time>
  <course>79.6</course>
  <speed>0.02</speed>
  <fix>3d</fix>
</trkpt>
<trkpt lat="-27.2744385" lon="151.2900638">
  <ele>364.18</ele>
  <time>2026-09-01T19:56:34Z</time>
  <course>10.69</course>
  <speed>0.03605551275463989</speed>
  <fix>3d</fix>
</trkpt>
<trkpt lat="-27.2744383" lon="151.2900637">
  <ele>364.0</ele>
  <time>2026-09-01T19:56:34Z</time>
  <course>84.82</course>
  <speed>0.02</speed>
  <fix>3d</fix>
</trkpt>
<trkpt lat="-27.2744385" lon="151.2900638">
  <ele>364.18</ele>
  <time>2026-09-01T19:56:34Z</time>
  <course>10.69</course>
  <speed>0.03605551275463989</speed>
  <fix>3d</fix>
</trkpt>
<trkpt lat="-27.2744383" lon="151.2900637">
  <ele>364.0</ele>
  <time>2026-09-01T19:56:34Z</time>
  <course>84.82</course>
  <speed>0.02</speed>
  <fix>3d</fix>
</trkpt>
<trkpt lat="-27.2744385" lon="151.2900638">
  <ele>364.18</ele>
  <time>2026-09-01T19:56:34Z</time>
  <course>10.69</course>
  <speed>0.03605551275463989</speed>
  <fix>3d</fix>
</trkpt>
<trkpt lat="-27.2744383" lon="151.2900637">
  <ele>364.0</ele>
  <time>2026-09-01T19:56:34Z</time>
  <course>90.1</course>
  <speed>0.02</speed>
  <fix>3d</fix>
</trkpt>
<trkpt lat="-27.2744385" lon="151.2900639">
  <ele>364.18</ele>
  <time>2026-09-01T19:56:34Z</time>
  <course>10.69</course>
  <speed>0.03605551275463989</speed>
  <fix>3d</fix>
</trkpt>
<trkpt lat="-27.2744383" lon="151.2900637">
  <ele>364.0</ele>
  <time>2026-09-01T19:56:34Z</time>
  <course>90.1</course>
  <speed>0.02</speed>
  <fix>3d</fix>
</trkpt>
<trkpt lat="-27.2744385" lon="151.2900639">
  <ele>364.18</ele>
  <time>2026-09-01T19:56:34Z</time>
  <course>10.69</course>
  <speed>0.03605551275463989</speed>
  <fix>3d</fix>
</trkpt>
<trkpt lat="-27.2744383" lon="151.2900638">
  <ele>364.0</ele>
  <time>2026-09-01T19:56:34Z</time>
  <course>96.2</course>
  <speed>0.02</speed>
  <fix>3d</fix>
</trkpt>
<trkpt lat="-27.2744385" lon="151.2900639">
  <ele>364.19</ele>
  <time>2026-09-01T19:56:34Z</time>
  <course>10.69</course>
  <speed>0.0282842712474619</speed>
  <fix>3d</fix>
</trkpt>
<trkpt lat="-27.2744383" lon="151.2900638">
  <ele>364.0</ele>
  <time>2026-09-01T19:56:34Z</time>
  <course>96.2</course>
  <speed>0.02</speed>
  <fix>3d</fix>
</trkpt>
<trkpt lat="-27.2744385" lon="151.2900639">
  <ele>364.19</ele>
  <time>2026-09-01T19:56:34Z</time>
  <course>10.69</course>
  <speed>0.0282842712474619</speed>
  <fix>3d</fix>
</trkpt>
<trkpt lat="-27.2744383" lon="151.2900639">
  <ele>364.01</ele>
  <time>2026-09-01T19:56:34Z</time>
  <course>103.2</course>
  <speed>0.02</speed>
  <fix>3d</fix>
</trkpt>
<trkpt lat="-27.2744385" lon="151.2900639">
  <ele>364.19</ele>
  <time>2026-09-01T19:56:34Z</time>
  <course>10.69</course>
  <speed>0.03605551275463989</speed>
  <fix>3d</fix>
</trkpt>
<trkpt lat="-27.2744383" lon="151.2900639">
  <ele>364.01</ele>
  <time>2026-09-01T19:56:34Z</time>
  <course>103.2</course>
  <speed>0.02</speed>
  <fix>3d</fix>
</trkpt>
<trkpt lat="-27.2744385" lon="151.290064">
  <ele>364.19</ele>
  <time>2026-09-01T19:56:34Z</time>
  <course>10.69</course>
  <speed>0.03605551275463989</speed>
  <fix>3d</fix>
</trkpt>
<trkpt lat="-27.2744383" lon="151.2900639">
  <ele>364.01</ele>
  <time>2026-09-01T19:56:34Z</time>
  <course>110.85</course>
  <speed>0.01</speed>
  <fix>3d</fix>
</trkpt>
<trkpt lat="-27.2744385" lon="151.290064">
  <ele>364.18</ele>
  <time>2026-09-01T19:56:34Z</time>
  <course>10.69</course>
  <speed>0.03605551275463989</speed>
  <fix>3d</fix>
</trkpt>
<trkpt lat="-27.2744383" lon="151.2900639">
  <ele>364.01</ele>
  <time>2026-09-01T19:56:34Z</time>
  <course>110.85</course>
  <speed>0.01</speed>
  <fix>3d</fix>
</trkpt>
<trkpt lat="-27.2744385" lon="151.290064">
  <ele>364.18</ele>
  <time>2026-09-01T19:56:34Z</time>
  <course>10.69</course>
  <speed>0.03605551275463989</speed>
  <fix>3d</fix>
</trkpt>
<trkpt lat="-27.2744383" lon="151.290064">
  <ele>364.01</ele>
  <time>2026-09-01T19:56:34Z</time>
  <course>120.93</course>
  <speed>0.01</speed>
  <fix>3d</fix>
</trkpt>
<trkpt lat="-27.2744385" lon="151.290064">
  <ele>364.18</ele>
  <time>2026-09-01T19:56:34Z</time>
  <course>10.7</course>
  <speed>0.0316227766016838</speed>
  <fix>3d</fix>
</trkpt>
<trkpt lat="-27.2744383" lon="151.290064">
  <ele>364.01</ele>
  <time>2026-09-01T19:56:34Z</time>
  <course>120.93</course>
  <speed>0.01</speed>
  <fix>3d</fix>
</trkpt>
<trkpt lat="-27.2744385" lon="151.290064">
  <ele>364.18</ele>
  <time>2026-09-01T19:56:34Z</time>
  <course>10.7</course>
  <speed>0.0316227766016838</speed>
  <fix>3d</fix>
</trkpt>
<trkpt lat="-27.2744383" lon="151.290064">
  <ele>364.0</ele>
  <time>2026-09-01T19:56:34Z</time>
  <course>134.02</course>
  <speed>0.01</speed>
  <fix>3d</fix>
</trkpt>
<trkpt lat="-27.2744385" lon="151.290064">
  <ele>364.18</ele>
  <time>2026-09-01T19:56:34Z</time>
  <course>10.7</course>
  <speed>0.0316227766016838</speed>
  <fix>3d</fix>
</trkpt>
<trkpt lat="-27.2744383" lon="151.290064">
  <ele>364.0</ele>
  <time>2026-09-01T19:56:34Z</time>
  <course>134.02</course>
  <speed>0.01</speed>
  <fix>3d</fix>
</trkpt>
<trkpt lat="-27.2744385" lon="151.290064">
  <ele>364.18</ele>
  <time>2026-09-01T19:56:34Z</time>
  <course>10.7</course>
  <speed>0.0316227766016838</speed>
  <fix>3d</fix>
</trkpt>
<trkpt lat="-27.2744383" lon="151.290064">
  <ele>364.0</ele>
  <time>2026-09-01T19:56:34Z</time>
  <course>148.52</course>
  <speed>0.01</speed>
  <fix>3d</fix>
</trkpt>
<trkpt lat="-27.2744385" lon="151.290064">
  <ele>364.18</ele>
  <time>2026-09-01T19:56:34Z</time>
  <course>10.7</course>
  <speed>0.0316227766016838</speed>
  <fix>3d</fix>
</trkpt>
<trkpt lat="-27.2744383" lon="151.290064">
  <ele>364.0</ele>
  <time>2026-09-01T19:56:34Z</time>
  <course>148.52</course>
  <speed>0.01</speed>
  <fix>3d</fix>
</trkpt>
<trkpt lat="-27.2744385" lon="151.290064">
  <ele>364.18</ele>
  <time>2026-09-01T19:56:34Z</time>
  <course>10.7</course>
  <speed>0.0316227766016838</speed>
  <fix>3d</fix>
</trkpt>
<trkpt lat="-27.2744383" lon="151.290064">
  <ele>364.0</ele>
  <time>2026-09-01T19:56:34Z</time>
  <course>163.22</course>
  <speed>0.01</speed>
  <fix>3d</fix>
</trkpt>
<trkpt lat="-27.2744385" lon="151.290064">
  <ele>364.18</ele>
  <time>2026-09-01T19:56:34Z</time>
  <course>10.71</course>
  <speed>0.0316227766016838</speed>
  <fix>3d</fix>
</trkpt>
<trkpt lat="-27.2744383" lon="151.290064">
  <ele>364.0</ele>
  <time>2026-09-01T19:56:34Z</time>
  <course>163.22</course>
  <speed>0.01</speed>
  <fix>3d</fix>
</trkpt>
<trkpt lat="-27.2744385" lon="151.290064">
  <ele>364.17</ele>
  <time>2026-09-01T19:56:34Z</time>
  <course>10.71</course>
  <speed>0.0316227766016838</speed>
  <fix>3d</fix>
</trkpt>
<trkpt lat="-27.2744383" lon="151.290064">
  <ele>364.0</ele>
  <time>2026-09-01T19:56:34Z</time>
  <course>176.41</course>
  <speed>0.01</speed>
  <fix>3d</fix>
</trkpt>
<trkpt lat="-27.2744386" lon="151.290064">
  <ele>364.17</ele>
  <time>2026-09-01T19:56:34Z</time>
  <course>10.71</course>
  <speed>0.04</speed>
  <fix>3d</fix>
</trkpt>
<trkpt lat="-27.2744383" lon="151.290064">
  <ele>364.0</ele>
  <time>2026-09-01T19:56:34Z</time>
  <course>176.41</course>
  <speed>0.01</speed>
  <fix>3d</fix>
</trkpt>
<trkpt lat="-27.2744386" lon="151.290064">
  <ele>364.17</ele>
  <time>2026-09-01T19:56:34Z</time>
  <course>10.71</course>
  <speed>0.04</speed>
  <fix>3d</fix>
</trkpt>
<trkpt lat="-27.2744383" lon="151.290064">
  <ele>364.0</ele>
  <time>2026-09-01T19:56:34Z</time>
  <course>186.51</course>
  <speed>0.01</speed>
  <fix>3d</fix>
</trkpt>
<trkpt lat="-27.2744386" lon="151.290064">
  <ele>364.17</ele>
  <time>2026-09-01T19:56:34Z</time>
  <course>10.72</course>
  <speed>0.04</speed>
  <fix>3d</fix>
</trkpt>
<trkpt lat="-27.2744383" lon="151.290064">
  <ele>364.0</ele>
  <time>2026-09-01T19:56:34Z</time>
  <course>186.51</course>
  <speed>0.01</speed>
  <fix>3d</fix>
</trkpt>
<trkpt lat="-27.2744386" lon="151.290064">
  <ele>364.17</ele>
  <time>2026-09-01T19:56:34Z</time>
  <course>10.72</course>
  <speed>0.03</speed>
  <fix>3d</fix>
</trkpt>
<trkpt lat="-27.2744383" lon="151.290064">
  <ele>364.0</ele>
  <time>2026-09-01T19:56:34Z</time>
  <course>194.34</course>
  <speed>0.02</speed>
  <fix>3d</fix>
</trkpt>
<trkpt lat="-27.2744386" lon="151.290064">
  <ele>364.17</ele>
  <time>2026-09-01T19:56:34Z</time>
  <course>10.71</course>
  <speed>0.03</speed>
  <fix>3d</fix>
</trkpt>
<trkpt lat="-27.2744383" lon="151.290064">
  <ele>364.0</ele>
  <time>2026-09-01T19:56:34Z</time>
  <course>194.34</course>
  <speed>0.02</speed>
  <fix>3d</fix>
</trkpt>
<trkpt lat="-27.2744386" lon="151.290064">
  <ele>364.17</ele>
  <time>2026-09-01T19:56:34Z</time>
  <course>10.71</course>
  <speed>0.03</speed>
  <fix>3d</fix>
</trkpt>
<trkpt lat="-27.2744384" lon="151.290064">
  <ele>364.0</ele>
  <time>2026-09-01T19:56:34Z</time>
  <course>202.22</course>
  <speed>0.02</speed>
  <fix>3d</fix>
</trkpt>
<trkpt lat="-27.2744386" lon="151.290064">
  <ele>364.17</ele>
  <time>2026-09-01T19:56:34Z</time>
  <course>10.71</course>
  <speed>0.03</speed>
  <fix>3d</fix>
</trkpt>
<trkpt lat="-27.2744384" lon="151.290064">
  <ele>364.0</ele>
  <time>2026-09-01T19:56:34Z</time>
  <course>202.22</course>
  <speed>0.02</speed>
  <fix>3d</fix>
</trkpt>
<trkpt lat="-27.2744386" lon="151.290064">
  <ele>364.17</ele>
  <time>2026-09-01T19:56:34Z</time>
  <course>10.7</course>
  <speed>0.03</speed>
  <fix>3d</fix>
</trkpt>
<trkpt lat="-27.2744384" lon="151.290064">
  <ele>364.0</ele>
  <time>2026-09-01T19:56:34Z</time>
  <course>210.67</course>
  <speed>0.02</speed>
  <fix>3d</fix>
</trkpt>
<trkpt lat="-27.2744386" lon="151.290064">
  <ele>364.18</ele>
  <time>2026-09-01T19:56:34Z</time>
  <course>10.7</course>
  <speed>0.03</speed>
  <fix>3d</fix>
</trkpt>
<trkpt lat="-27.2744384" lon="151.290064">
  <ele>364.0</ele>
  <time>2026-09-01T19:56:34Z</time>
  <course>210.67</course>
  <speed>0.02</speed>
  <fix>3d</fix>
</trkpt>
<trkpt lat="-27.2744386" lon="151.290064">
  <ele>364.18</ele>
  <time>2026-09-01T19:56:34Z</time>
  <course>10.69</course>
  <speed>0.03</speed>
  <fix>3d</fix>
</trkpt>
<trkpt lat="-27.2744384" lon="151.290064">
  <ele>364.0</ele>
  <time>2026-09-01T19:56:34Z</time>
  <course>217.95</course>
  <speed>0.02</speed>
  <fix>3d</fix>
</trkpt>
<trkpt lat="-27.2744386" lon="151.290064">
  <ele>364.18</ele>
  <time>2026-09-01T19:56:34Z</time>
  <course>10.69</course>
  <speed>0.03</speed>
  <fix>3d</fix>
</trkpt>
<trkpt lat="-27.2744384" lon="151.290064">
  <ele>364.0</ele>
  <time>2026-09-01T19:56:34Z</time>
  <course>217.95</course>
  <speed>0.02</speed>
  <fix>3d</fix>
</trkpt>
<trkpt lat="-27.2744386" lon="151.290064">
  <ele>364.18</ele>
  <time>2026-09-01T19:56:34Z</time>
  <course>10.69</course>
  <speed>0.02</speed>
  <fix>3d</fix>
</trkpt>
<trkpt lat="-27.2744385" lon="151.290064">
  <ele>364.0</ele>
  <time>2026-09-01T19:56:34Z</time>
  <course>223.93</course>
  <speed>0.02</speed>
  <fix>3d</fix>
</trkpt>
<trkpt lat="-27.2744386" lon="151.290064">
  <ele>364.18</ele>
  <time>2026-09-01T19:56:34Z</time>
  <course>10.69</course>
  <speed>0.02</speed>
  <fix>3d</fix>
</trkpt>
<trkpt lat="-27.2744385" lon="151.290064">
  <ele>364.0</ele>
  <time>2026-09-01T19:56:34Z</time>
  <course>223.93</course>
  <speed>0.02</speed>
  <fix>3d</fix>
</trkpt>
<trkpt lat="-27.2744386" lon="151.290064">
  <ele>364.18</ele>
  <time>2026-09-01T19:56:34Z</time>
  <course>10.68</course>
  <speed>0.02</speed>
  <fix>3d</fix>
</trkpt>
<trkpt lat="-27.2744385" lon="151.290064">
  <ele>364.0</ele>
  <time>2026-09-01T19:56:34Z</time>
  <course>229.78</course>
  <speed>0.02</speed>
  <fix>3d</fix>
</trkpt>
<trkpt lat="-27.2744387" lon="151.290064">
  <ele>364.18</ele>
  <time>2026-09-01T19:56:34Z</time>
  <course>10.68</course>
  <speed>0.02</speed>
  <fix>3d</fix>
</trkpt>
<trkpt lat="-27.2744385" lon="151.290064">
  <ele>364.0</ele>
  <time>2026-09-01T19:56:34Z</time>
  <course>229.78</course>
  <speed>0.02</speed>
  <fix>3d</fix>
</trkpt>
<trkpt lat="-27.2744387" lon="151.290064">
  <ele>364.18</ele>
  <time>2026-09-01T19:56:34Z</time>
  <course>10.68</course>
  <speed>0.02</speed>
  <fix>3d</fix>
</trkpt>
<trkpt lat="-27.2744385" lon="151.2900639">
  <ele>364.01</ele>
  <time>2026-09-01T19:56:34Z</time>
  <course>235.53</course>
  <speed>0.02</speed>
  <fix>3d</fix>
</trkpt>
<trkpt lat="-27.2744387" lon="151.290064">
  <ele>364.18</ele>
  <time>2026-09-01T19:56:34Z</time>
  <course>10.68</course>
  <speed>0.02</speed>
  <fix>3d</fix>
</trkpt>
<trkpt lat="-27.2744385" lon="151.2900639">
  <ele>364.01</ele>
  <time>2026-09-01T19:56:34Z</time>
  <course>235.53</course>
  <speed>0.02</speed>
  <fix>3d</fix>
</trkpt>
<trkpt lat="-27.2744387" lon="151.290064">
  <ele>364.18</ele>
  <time>2026-09-01T19:56:34Z</time>
  <course>10.68</course>
  <speed>0.02</speed>
  <fix>3d</fix>
</trkpt>
<trkpt lat="-27.2744386" lon="151.2900639">
  <ele>364.01</ele>
  <time>2026-09-01T19:56:34Z</time>
  <course>241.04</course>
  <speed>0.02</speed>
  <fix>3d</fix>
</trkpt>
<trkpt lat="-27.2744387" lon="151.290064">
  <ele>364.18</ele>
  <time>2026-09-01T19:56:34Z</time>
  <course>10.68</course>
  <speed>0.02</speed>
  <fix>3d</fix>
</trkpt>
<trkpt lat="-27.2744386" lon="151.2900639">
  <ele>364.01</ele>
  <time>2026-09-01T19:56:34Z</time>
  <course>241.04</course>
  <speed>0.02</speed>
  <fix>3d</fix>
</trkpt>
<trkpt lat="-27.2744387" lon="151.290064">
  <ele>364.18</ele>
  <time>2026-09-01T19:56:34Z</time>
  <course>10.68</course>
  <speed>0.02</speed>
  <fix>3d</fix>
</trkpt>
<trkpt lat="-27.2744386" lon="151.2900639">
  <ele>364.0</ele>
  <time>2026-09-01T19:56:34Z</time>
  <course>245.82</course>
  <speed>0.02</speed>
  <fix>3d</fix>
</trkpt>
<trkpt lat="-27.2744387" lon="151.2900639">
  <ele>364.18</ele>
  <time>2026-09-01T19:56:34Z</time>
  <course>10.68</course>
  <speed>0.02</speed>
  <fix>3d</fix>
</trkpt>
<trkpt lat="-27.2744386" lon="151.2900639">
  <ele>364.0</ele>
  <time>2026-09-01T19:56:34Z</time>
  <course>245.82</course>
  <speed>0.02</speed>
  <fix>3d</fix>
</trkpt>
<trkpt lat="-27.2744387" lon="151.2900639">
  <ele>364.18</ele>
  <time>2026-09-01T19:56:34Z</time>
  <course>10.68</course>
  <speed>0.02</speed>
  <fix>3d</fix>
</trkpt>
<trkpt lat="-27.2744386" lon="151.2900638">
  <ele>364.0</ele>
  <time>2026-09-01T19:56:34Z</time>
  <course>249.67</course>
  <speed>0.02</speed>
  <fix>3d</fix>
</trkpt>
<trkpt lat="-27.2744387" lon="151.2900639">
  <ele>364.18</ele>
  <time>2026-09-01T19:56:34Z</time>
  <course>10.68</course>
  <speed>0.02</speed>
  <fix>3d</fix>
</trkpt>
<trkpt lat="-27.2744386" lon="151.2900638">
  <ele>364.0</ele>
  <time>2026-09-01T19:56:34Z</time>
  <course>249.67</course>
  <speed>0.02</speed>
  <fix>3d</fix>
</trkpt>
<trkpt lat="-27.2744387" lon="151.2900639">
  <ele>364.18</ele>
  <time>2026-09-01T19:56:34Z</time>
  <course>10.69</course>
  <speed>0.02</speed>
  <fix>3d</fix>
</trkpt>
<trkpt lat="-27.2744386" lon="151.2900637">
  <ele>364.0</ele>
  <time>2026-09-01T19:56:34Z</time>
  <course>253.39</course>
  <speed>0.02</speed>
  <fix>3d</fix>
</trkpt>
<trkpt lat="-27.2744387" lon="151.2900639">
  <ele>364.18</ele>
  <time>2026-09-01T19:56:34Z</time>
  <course>10.69</course>
  <speed>0.02</speed>
  <fix>3d</fix>
</trkpt>
<trkpt lat="-27.2744386" lon="151.2900637">
  <ele>364.0</ele>
  <time>2026-09-01T19:56:34Z</time>
  <course>253.39</course>
  <speed>0.02</speed>
  <fix>3d</fix>
</trkpt>
<trkpt lat="-27.2744387" lon="151.2900639">
  <ele>364.18</ele>
  <time>2026-09-01T19:56:34Z</time>
  <course>10.69</course>
  <speed>0.02</speed>
  <fix>3d</fix>
</trkpt>
<trkpt lat="-27.2744386" lon="151.2900637">
  <ele>364.0</ele>
  <time>2026-09-01T19:56:34Z</time>
  <course>257.29</course>
  <speed>0.02</speed>
  <fix>3d</fix>
</trkpt>
<trkpt lat="-27.2744387" lon="151.2900638">
  <ele>364.18</ele>
  <time>2026-09-01T19:56:34Z</time>
  <course>10.69</course>
  <speed>0.01</speed>
  <fix>3d</fix>
</trkpt>
<trkpt lat="-27.2744386" lon="151.2900637">
  <ele>364.0</ele>
  <time>2026-09-01T19:56:34Z</time>
  <course>257.29</course>
  <speed>0.02</speed>
  <fix>3d</fix>
</trkpt>
<trkpt lat="-27.2744387" lon="151.2900638">
  <ele>364.18</ele>
  <time>2026-09-01T19:56:34Z</time>
  <course>10.69</course>
  <speed>0.01</speed>
  <fix>3d</fix>
</trkpt>
<trkpt lat="-27.2744386" lon="151.2900637">
  <ele>364.0</ele>
  <time>2026-09-01T19:56:34Z</time>
  <course>260.73</course>
  <speed>0.02</speed>
  <fix>3d</fix>
</trkpt>
<trkpt lat="-27.2744387" lon="151.2900638">
  <ele>364.19</ele>
  <time>2026-09-01T19:56:34Z</time>
  <course>10.69</course>
  <speed>0.01</speed>
  <fix>3d</fix>
</trkpt>
<trkpt lat="-27.2744386" lon="151.2900637">
  <ele>364.0</ele>
  <time>2026-09-01T19:56:34Z</time>
  <course>260.73</course>
  <speed>0.02</speed>
  <fix>3d</fix>
</trkpt>
<trkpt lat="-27.2744387" lon="151.2900638">
  <ele>364.19</ele>
  <time>2026-09-01T19:56:34Z</time>
  <course>10.69</course>
  <speed>0.01</speed>
  <fix>3d</fix>
</trkpt>
<trkpt lat="-27.2744386" lon="151.2900636">
  <ele>364.0</ele>
  <time>2026-09-01T19:56:34Z</time>
  <course>263.94</course>
  <speed>0.02</speed>
  <fix>3d</fix>
</trkpt>
<trkpt lat="-27.2744387" lon="151.2900638">
  <ele>364.19</ele>
  <time>2026-09-01T19:56:34Z</time>
  <course>10.69</course>
  <speed>0.01</speed>
  <fix>3d</fix>
</trkpt>
<trkpt lat="-27.2744386" lon="151.2900636">
  <ele>364.0</ele>
  <time>2026-09-01T19:56:34Z</time>
  <course>263.94</course>
  <speed>0.02</speed>
  <fix>3d</fix>
</trkpt>
<trkpt lat="-27.2744387" lon="151.2900637">
  <ele>364.19</ele>
  <time>2026-09-01T19:56:34Z</time>
  <course>10.69</course>
  <speed>0.01</speed>
  <fix>3d</fix>
</trkpt>
<trkpt lat="-27.2744386" lon="151.2900636">
  <ele>364.0</ele>
  <time>2026-09-01T19:56:34Z</time>
  <course>267.4</course>
  <speed>0.02</speed>
  <fix>3d</fix>
</trkpt>
<trkpt lat="-27.2744387" lon="151.2900637">
  <ele>364.19</ele>
  <time>2026-09-01T19:56:34Z</time>
  <course>10.69</course>
  <speed>0.01</speed>
  <fix>3d</fix>
</trkpt>
<trkpt lat="-27.2744386" lon="151.2900636">
  <ele>364.0</ele>
  <time>2026-09-01T19:56:34Z</time>
  <course>267.4</course>
  <speed>0.02</speed>
  <fix>3d</fix>
</trkpt>
<trkpt lat="-27.2744387" lon="151.2900637">
  <ele>364.19</ele>
  <time>2026-09-01T19:56:34Z</time>
  <course>10.69</course>
  <speed>0.01</speed>
  <fix>3d</fix>
</trkpt>
<trkpt lat="-27.2744386" lon="151.2900635">
  <ele>364.0</ele>
  <time>2026-09-01T19:56:34Z</time>
  <course>270.92</course>
  <speed>0.02</speed>
  <fix>3d</fix>
</trkpt>
<trkpt lat="-27.2744387" lon="151.2900637">
  <ele>364.19</ele>
  <time>2026-09-01T19:56:34Z</time>
  <course>10.69</course>
  <speed>0.01</speed>
  <fix>3d</fix>
</trkpt>
<trkpt lat="-27.2744386" lon="151.2900635">
  <ele>364.0</ele>
  <time>2026-09-01T19:56:34Z</time>
  <course>270.92</course>
  <speed>0.02</speed>
  <fix>3d</fix>
</trkpt>
<trkpt lat="-27.2744387" lon="151.2900637">
  <ele>364.19</ele>
  <time>2026-09-01T19:56:34Z</time>
  <course>10.69</course>
  <speed>0.01</speed>
  <fix>3d</fix>
</trkpt>
<trkpt lat="-27.2744386" lon="151.2900635">
  <ele>363.99</ele>
  <time>2026-09-01T19:56:34Z</time>
  <course>274.47</course>
  <speed>0.01</speed>
  <fix>3d</fix>
</trkpt>
<trkpt lat="-27.2744387" lon="151.2900637">
  <ele>364.19</ele>
  <time>2026-09-01T19:56:34Z</time>
  <course>10.68</course>
  <speed>0.01</speed>
  <fix>3d</fix>
</trkpt>
<trkpt lat="-27.2744386" lon="151.2900635">
  <ele>363.99</ele>
  <time>2026-09-01T19:56:34Z</time>
  <course>274.47</course>
  <speed>0.01</speed>
  <fix>3d</fix>
</trkpt>
<trkpt lat="-27.2744387" lon="151.2900636">
  <ele>364.19</ele>
  <time>2026-09-01T19:56:34Z</time>
  <course>10.68</course>
  <speed>0.01</speed>
  <fix>3d</fix>
</trkpt>
<trkpt lat="-27.2744386" lon="151.2900635">
  <ele>363.99</ele>
  <time>2026-09-01T19:56:34Z</time>
  <course>278.53</course>
  <speed>0.01</speed>
  <fix>3d</fix>
</trkpt>
<trkpt lat="-27.2744387" lon="151.2900636">
  <ele>364.19</ele>
  <time>2026-09-01T19:56:34Z</time>
  <course>10.68</course>
  <speed>0.01</speed>
  <fix>3d</fix>
</trkpt>
<trkpt lat="-27.2744386" lon="151.2900635">
  <ele>363.99</ele>
  <time>2026-09-01T19:56:34Z</time>
  <course>278.53</course>
  <speed>0.01</speed>
  <fix>3d</fix>
</trkpt>
<trkpt lat="-27.2744387" lon="151.2900636">
  <ele>364.19</ele>
  <time>2026-09-01T19:56:34Z</time>
  <course>10.68</course>
  <speed>0.01</speed>
  <fix>3d</fix>
</trkpt>
<trkpt lat="-27.2744386" lon="151.2900634">
  <ele>363.99</ele>
  <time>2026-09-01T19:56:34Z</time>
  <course>283.41</course>
  <speed>0.01</speed>
  <fix>3d</fix>
</trkpt>
<trkpt lat="-27.2744387" lon="151.2900636">
  <ele>364.19</ele>
  <time>2026-09-01T19:56:34Z</time>
  <course>10.68</course>
  <speed>0.01</speed>
  <fix>3d</fix>
</trkpt>
<trkpt lat="-27.2744386" lon="151.2900634">
  <ele>363.99</ele>
  <time>2026-09-01T19:56:34Z</time>
  <course>283.41</course>
  <speed>0.01</speed>
  <fix>3d</fix>
</trkpt>
<trkpt lat="-27.2744387" lon="151.2900636">
  <ele>364.19</ele>
  <time>2026-09-01T19:56:34Z</time>
  <course>10.68</course>
  <speed>0.01</speed>
  <fix>3d</fix>
</trkpt>
<trkpt lat="-27.2744386" lon="151.2900633">
  <ele>363.99</ele>
  <time>2026-09-01T19:56:34Z</time>
  <course>288.92</course>
  <speed>0.01</speed>
  <fix>3d</fix>
</trkpt>
<trkpt lat="-27.2744387" lon="151.2900636">
  <ele>364.19</ele>
  <time>2026-09-01T19:56:34Z</time>
  <course>10.68</course>
  <speed>0.01</speed>
  <fix>3d</fix>
</trkpt>
<trkpt lat="-27.2744386" lon="151.2900633">
  <ele>363.99</ele>
  <time>2026-09-01T19:56:34Z</time>
  <course>288.92</course>
  <speed>0.01</speed>
  <fix>3d</fix>
</trkpt>
<trkpt lat="-27.2744387" lon="151.2900636">
  <ele>364.19</ele>
  <time>2026-09-01T19:56:34Z</time>
  <course>10.68</course>
  <speed>0.01</speed>
  <fix>3d</fix>
</trkpt>
<trkpt lat="-27.2744386" lon="151.2900633">
  <ele>363.99</ele>
  <time>2026-09-01T19:56:34Z</time>
  <course>295.7</course>
  <speed>0.01</speed>
  <fix>3d</fix>
</trkpt>
<trkpt lat="-27.2744387" lon="151.2900635">
  <ele>364.18</ele>
  <time>2026-09-01T19:56:34Z</time>
  <course>10.68</course>
  <speed>0.01414213562373095</speed>
  <fix>3d</fix>
</trkpt>
<trkpt lat="-27.2744386" lon="151.2900633">
  <ele>363.99</ele>
  <time>2026-09-01T19:56:34Z</time>
  <course>295.7</course>
  <speed>0.01</speed>
  <fix>3d</fix>
</trkpt>
<trkpt lat="-27.2744387" lon="151.2900635">
  <ele>364.18</ele>
  <time>2026-09-01T19:56:34Z</time>
  <course>10.68</course>
  <speed>0.01414213562373095</speed>
  <fix>3d</fix>
</trkpt>
<trkpt lat="-27.2744386" lon="151.2900633">
  <ele>363.98</ele>
  <time>2026-09-01T19:56:34Z</time>
  <course>304.32</course>
  <speed>0.01</speed>
  <fix>3d</fix>
</trkpt>
<trkpt lat="-27.2744387" lon="151.2900635">
  <ele>364.17</ele>
  <time>2026-09-01T19:56:34Z</time>
  <course>10.68</course>
  <speed>0.01414213562373095</speed>
  <fix>3d</fix>
</trkpt>
<trkpt lat="-27.2744386" lon="151.2900633">
  <ele>363.98</ele>
  <time>2026-09-01T19:56:34Z</time>
  <course>304.32</course>
  <speed>0.01</speed>
  <fix>3d</fix>
</trkpt>
<trkpt lat="-27.2744387" lon="151.2900635">
  <ele>364.17</ele>
  <time>2026-09-01T19:56:34Z</time>
  <course>10.68</course>
  <speed>0.01414213562373095</speed>
  <fix>3d</fix>
</trkpt>
<trkpt lat="-27.2744386" lon="151.2900633">
  <ele>363.98</ele>
  <time>2026-09-01T19:56:34Z</time>
  <course>316.54</course>
  <speed>0.0</speed>
  <fix>3d</fix>
</trkpt>
<trkpt lat="-27.2744387" lon="151.2900635">
  <ele>364.17</ele>
  <time>2026-09-01T19:56:34Z</time>
  <course>10.68</course>
  <speed>0.01414213562373095</speed>
  <fix>3d</fix>
</trkpt>
<trkpt lat="-27.2744386" lon="151.2900633">
  <ele>363.98</ele>
  <time>2026-09-01T19:56:34Z</time>
  <course>316.54</course>
  <speed>0.0</speed>
  <fix>3d</fix>
</trkpt>
<trkpt lat="-27.2744387" lon="151.2900635">
  <ele>364.17</ele>
  <time>2026-09-01T19:56:34Z</time>
  <course>10.69</course>
  <speed>0.01414213562373095</speed>
  <fix>3d</fix>
</trkpt>
<trkpt lat="-27.2744386" lon="151.2900633">
  <ele>363.98</ele>
  <time>2026-09-01T19:56:34Z</time>
  <course>335.46</course>
  <speed>0.0</speed>
  <fix>3d</fix>
</trkpt>
<trkpt lat="-27.2744387" lon="151.2900635">
  <ele>364.17</ele>
  <time>2026-09-01T19:56:34Z</time>
  <course>10.69</course>
  <speed>0.01414213562373095</speed>
  <fix>3d</fix>
</trkpt>
<trkpt lat="-27.2744386" lon="151.2900633">
  <ele>363.98</ele>
  <time>2026-09-01T19:56:34Z</time>
  <course>335.46</course>
  <speed>0.0</speed>
  <fix>3d</fix>
</trkpt>
<trkpt lat="-27.2744387" lon="151.2900635">
  <ele>364.17</ele>
  <time>2026-09-01T19:56:34Z</time>
  <course>10.69</course>
  <speed>0.01414213562373095</speed>
  <fix>3d</fix>
</trkpt>
<trkpt lat="-27.2744386" lon="151.2900633">
  <ele>363.98</ele>
  <time>2026-09-01T19:56:34Z</time>
  <course>359.47</course>
  <speed>0.0</speed>
  <fix>3d</fix>
</trkpt>
<trkpt lat="-27.2744387" lon="151.2900635">
  <ele>364.17</ele>
  <time>2026-09-01T19:56:34Z</time>
  <course>10.69</course>
  <speed>0.01414213562373095</speed>
  <fix>3d</fix>
</trkpt>
<trkpt lat="-27.2744386" lon="151.2900633">
  <ele>363.98</ele>
  <time>2026-09-01T19:56:34Z</time>
  <course>359.47</course>
  <speed>0.0</speed>
  <fix>3d</fix>
</trkpt>
<trkpt lat="-27.2744387" lon="151.2900635">
  <ele>364.17</ele>
  <time>2026-09-01T19:56:34Z</time>
  <course>10.68</course>
  <speed>0.022360679774997897</speed>
  <fix>3d</fix>
</trkpt>
<trkpt lat="-27.2744386" lon="151.2900633">
  <ele>363.98</ele>
  <time>2026-09-01T19:56:34Z</time>
  <course>21.08</course>
  <speed>0.0</speed>
  <fix>3d</fix>
</trkpt>
<trkpt lat="-27.2744387" lon="151.2900635">
  <ele>364.18</ele>
  <time>2026-09-01T19:56:34Z</time>
  <course>10.68</course>
  <speed>0.022360679774997897</speed>
  <fix>3d</fix>
</trkpt>
<trkpt lat="-27.2744386" lon="151.2900633">
  <ele>363.98</ele>
  <time>2026-09-01T19:56:34Z</time>
  <course>21.08</course>
  <speed>0.0</speed>
  <fix>3d</fix>
</trkpt>
<trkpt lat="-27.2744387" lon="151.2900635">
  <ele>364.18</ele>
  <time>2026-09-01T19:56:34Z</time>
  <course>10.68</course>
  <speed>0.022360679774997897</speed>
  <fix>3d</fix>
</trkpt>
<trkpt lat="-27.2744386" lon="151.2900633">
  <ele>363.98</ele>
  <time>2026-09-01T19:56:34Z</time>
  <course>36.23</course>
  <speed>0.0</speed>
  <fix>3d</fix>
</trkpt>
<trkpt lat="-27.2744387" lon="151.2900635">
  <ele>364.18</ele>
  <time>2026-09-01T19:56:34Z</time>
  <course>10.68</course>
  <speed>0.022360679774997897</speed>
  <fix>3d</fix>
</trkpt>
<trkpt lat="-27.2744386" lon="151.2900633">
  <ele>363.98</ele>
  <time>2026-09-01T19:56:34Z</time>
  <course>36.23</course>
  <speed>0.0</speed>
  <fix>3d</fix>
</trkpt>
<trkpt lat="-27.2744387" lon="151.2900635">
  <ele>364.18</ele>
  <time>2026-09-01T19:56:34Z</time>
  <course>10.67</course>
  <speed>0.022360679774997897</speed>
  <fix>3d</fix>
</trkpt>
<trkpt lat="-27.2744386" lon="151.2900633">
  <ele>363.98</ele>
  <time>2026-09-01T19:56:34Z</time>
  <course>45.74</course>
  <speed>0.01</speed>
  <fix>3d</fix>
</trkpt>
<trkpt lat="-27.2744387" lon="151.2900635">
  <ele>364.18</ele>
  <time>2026-09-01T19:56:34Z</time>
  <course>10.67</course>
  <speed>0.022360679774997897</speed>
  <fix>3d</fix>
</trkpt>
<trkpt lat="-27.2744386" lon="151.2900633">
  <ele>363.98</ele>
  <time>2026-09-01T19:56:34Z</time>
  <course>45.74</course>
  <speed>0.01</speed>
  <fix>3d</fix>
</trkpt>
<trkpt lat="-27.2744387" lon="151.2900635">
  <ele>364.18</ele>
  <time>2026-09-01T19:56:34Z</time>
  <course>10.67</course>
  <speed>0.022360679774997897</speed>
  <fix>3d</fix>
</trkpt>
<trkpt lat="-27.2744386" lon="151.2900633">
  <ele>363.98</ele>
  <time>2026-09-01T19:56:34Z</time>
  <course>51.61</course>
  <speed>0.01</speed>
  <fix>3d</fix>
</trkpt>
<trkpt lat="-27.2744387" lon="151.2900635">
  <ele>364.18</ele>
  <time>2026-09-01T19:56:34Z</time>
  <course>10.68</course>
  <speed>0.022360679774997897</speed>
  <fix>3d</fix>
</trkpt>
<trkpt lat="-27.2744386" lon="151.2900633">
  <ele>363.98</ele>
  <time>2026-09-01T19:56:34Z</time>
  <course>51.61</course>
  <speed>0.01</speed>
  <fix>3d</fix>
</trkpt>
<trkpt lat="-27.2744387" lon="151.2900635">
  <ele>364.18</ele>
  <time>2026-09-01T19:56:34Z</time>
  <course>10.68</course>
  <speed>0.022360679774997897</speed>
  <fix>3d</fix>
</trkpt>
<trkpt lat="-27.2744386" lon="151.2900633">
  <ele>363.98</ele>
  <time>2026-09-01T19:56:34Z</time>
  <course>55.63</course>
  <speed>0.01</speed>
  <fix>3d</fix>
</trkpt>
<trkpt lat="-27.2744387" lon="151.2900635">
  <ele>364.18</ele>
  <time>2026-09-01T19:56:34Z</time>
  <course>10.68</course>
  <speed>0.022360679774997897</speed>
  <fix>3d</fix>
</trkpt>
<trkpt lat="-27.2744386" lon="151.2900633">
  <ele>363.98</ele>
  <time>2026-09-01T19:56:34Z</time>
  <course>55.63</course>
  <speed>0.01</speed>
  <fix>3d</fix>
</trkpt>
<trkpt lat="-27.2744387" lon="151.2900635">
  <ele>364.17</ele>
  <time>2026-09-01T19:56:34Z</time>
  <course>10.68</course>
  <speed>0.022360679774997897</speed>
  <fix>3d</fix>
</trkpt>
<trkpt lat="-27.2744386" lon="151.2900633">
  <ele>363.98</ele>
  <time>2026-09-01T19:56:34Z</time>
  <course>58.8</course>
  <speed>0.01</speed>
  <fix>3d</fix>
</trkpt>
<trkpt lat="-27.2744387" lon="151.2900635">
  <ele>364.17</ele>
  <time>2026-09-01T19:56:34Z</time>
  <course>10.69</course>
  <speed>0.022360679774997897</speed>
  <fix>3d</fix>
</trkpt>
<trkpt lat="-27.2744386" lon="151.2900633">
  <ele>363.98</ele>
  <time>2026-09-01T19:56:34Z</time>
  <course>58.8</course>
  <speed>0.01</speed>
  <fix>3d</fix>
</trkpt>
<trkpt lat="-27.2744387" lon="151.2900635">
  <ele>364.17</ele>
  <time>2026-09-01T19:56:34Z</time>
  <course>10.69</course>
  <speed>0.022360679774997897</speed>
  <fix>3d</fix>
</trkpt>
<trkpt lat="-27.2744386" lon="151.2900633">
  <ele>363.98</ele>
  <time>2026-09-01T19:56:34Z</time>
  <course>62.54</course>
  <speed>0.01</speed>
  <fix>3d</fix>
</trkpt>
<trkpt lat="-27.2744387" lon="151.2900635">
  <ele>364.17</ele>
  <time>2026-09-01T19:56:34Z</time>
  <course>10.69</course>
  <speed>0.0316227766016838</speed>
  <fix>3d</fix>
</trkpt>
<trkpt lat="-27.2744386" lon="151.2900633">
  <ele>363.98</ele>
  <time>2026-09-01T19:56:34Z</time>
  <course>62.54</course>
  <speed>0.01</speed>
  <fix>3d</fix>
</trkpt>
<trkpt lat="-27.2744387" lon="151.2900635">
  <ele>364.16</ele>
  <time>2026-09-01T19:56:34Z</time>
  <course>10.69</course>
  <speed>0.022360679774997897</speed>
  <fix>3d</fix>
</trkpt>
<trkpt lat="-27.2744386" lon="151.2900633">
  <ele>363.98</ele>
  <time>2026-09-01T19:56:34Z</time>
  <course>65.38</course>
  <speed>0.01</speed>
  <fix>3d</fix>
</trkpt>
<trkpt lat="-27.2744387" lon="151.2900635">
  <ele>364.16</ele>
  <time>2026-09-01T19:56:34Z</time>
  <course>10.69</course>
  <speed>0.022360679774997897</speed>
  <fix>3d</fix>
</trkpt>
<trkpt lat="-27.2744386" lon="151.2900633">
  <ele>363.98</ele>
  <time>2026-09-01T19:56:34Z</time>
  <course>65.38</course>
  <speed>0.01</speed>
  <fix>3d</fix>
</trkpt>
<trkpt lat="-27.2744387" lon="151.2900635">
  <ele>364.16</ele>
  <time>2026-09-01T19:56:34Z</time>
  <course>10.69</course>
  <speed>0.0316227766016838</speed>
  <fix>3d</fix>
</trkpt>
<trkpt lat="-27.2744385" lon="151.2900634">
  <ele>363.98</ele>
  <time>2026-09-01T19:56:34Z</time>
  <course>65.19</course>
  <speed>0.02</speed>
  <fix>3d</fix>
</trkpt>
<trkpt lat="-27.2744387" lon="151.2900636">
  <ele>364.16</ele>
  <time>2026-09-01T19:56:34Z</time>
  <course>10.69</course>
  <speed>0.0316227766016838</speed>
  <fix>3d</fix>
</trkpt>
<trkpt lat="-27.2744385" lon="151.2900634">
  <ele>363.98</ele>
  <time>2026-09-01T19:56:34Z</time>
  <course>65.19</course>
  <speed>0.02</speed>
  <fix>3d</fix>
</trkpt>
<trkpt lat="-27.2744387" lon="151.2900636">
  <ele>364.17</ele>
  <time>2026-09-01T19:56:34Z</time>
  <course>10.69</course>
  <speed>0.0316227766016838</speed>
  <fix>3d</fix>
</trkpt>
<trkpt lat="-27.2744385" lon="151.2900635">
  <ele>363.99</ele>
  <time>2026-09-01T19:56:34Z</time>
  <course>63.66</course>
  <speed>0.02</speed>
  <fix>3d</fix>
</trkpt>
<trkpt lat="-27.2744387" lon="151.2900636">
  <ele>364.17</ele>
  <time>2026-09-01T19:56:34Z</time>
  <course>10.69</course>
  <speed>0.0316227766016838</speed>
  <fix>3d</fix>
</trkpt>
<trkpt lat="-27.2744385" lon="151.2900635">
  <ele>363.99</ele>
  <time>2026-09-01T19:56:34Z</time>
  <course>63.66</course>
  <speed>0.02</speed>
  <fix>3d</fix>
</trkpt>
<trkpt lat="-27.2744387" lon="151.2900636">
  <ele>364.17</ele>
  <time>2026-09-01T19:56:34Z</time>
  <course>10.68</course>
  <speed>0.0316227766016838</speed>
  <fix>3d</fix>
</trkpt>
<trkpt lat="-27.2744385" lon="151.2900635">
  <ele>363.99</ele>
  <time>2026-09-01T19:56:34Z</time>
  <course>62.42</course>
  <speed>0.02</speed>
  <fix>3d</fix>
</trkpt>
<trkpt lat="-27.2744387" lon="151.2900636">
  <ele>364.18</ele>
  <time>2026-09-01T19:56:34Z</time>
  <course>10.68</course>
  <speed>0.0316227766016838</speed>
  <fix>3d</fix>
</trkpt>
<trkpt lat="-27.2744385" lon="151.2900635">
  <ele>363.99</ele>
  <time>2026-09-01T19:56:34Z</time>
  <course>62.42</course>
  <speed>0.02</speed>
  <fix>3d</fix>
</trkpt>
<trkpt lat="-27.2744387" lon="151.2900636">
  <ele>364.18</ele>
  <time>2026-09-01T19:56:34Z</time>
  <course>10.68</course>
  <speed>0.0316227766016838</speed>
  <fix>3d</fix>
</trkpt>
<trkpt lat="-27.2744385" lon="151.2900635">
  <ele>363.99</ele>
  <time>2026-09-01T19:56:34Z</time>
  <course>61.91</course>
  <speed>0.02</speed>
  <fix>3d</fix>
</trkpt>
<trkpt lat="-27.2744387" lon="151.2900637">
  <ele>364.18</ele>
  <time>2026-09-01T19:56:34Z</time>
  <course>10.68</course>
  <speed>0.0316227766016838</speed>
  <fix>3d</fix>
</trkpt>
<trkpt lat="-27.2744385" lon="151.2900635">
  <ele>363.99</ele>
  <time>2026-09-01T19:56:34Z</time>
  <course>61.91</course>
  <speed>0.02</speed>
  <fix>3d</fix>
</trkpt>
<trkpt lat="-27.2744387" lon="151.2900637">
  <ele>364.18</ele>
  <time>2026-09-01T19:56:34Z</time>
  <course>10.67</course>
  <speed>0.0316227766016838</speed>
  <fix>3d</fix>
</trkpt>
<trkpt lat="-27.2744385" lon="151.2900636">
  <ele>363.99</ele>
  <time>2026-09-01T19:56:34Z</time>
  <course>61.82</course>
  <speed>0.02</speed>
  <fix>3d</fix>
</trkpt>
<trkpt lat="-27.2744387" lon="151.2900637">
  <ele>364.18</ele>
  <time>2026-09-01T19:56:34Z</time>
  <course>10.67</course>
  <speed>0.0316227766016838</speed>
  <fix>3d</fix>
</trkpt>
<trkpt lat="-27.2744385" lon="151.2900636">
  <ele>363.99</ele>
  <time>2026-09-01T19:56:34Z</time>
  <course>61.82</course>
  <speed>0.02</speed>
  <fix>3d</fix>
</trkpt>
<trkpt lat="-27.2744387" lon="151.2900637">
  <ele>364.18</ele>
  <time>2026-09-01T19:56:34Z</time>
  <course>10.67</course>
  <speed>0.022360679774997897</speed>
  <fix>3d</fix>
</trkpt>
<trkpt lat="-27.2744384" lon="151.2900636">
  <ele>364.0</ele>
  <time>2026-09-01T19:56:34Z</time>
  <course>61.71</course>
  <speed>0.02</speed>
  <fix>3d</fix>
</trkpt>
<trkpt lat="-27.2744387" lon="151.2900637">
  <ele>364.18</ele>
  <time>2026-09-01T19:56:34Z</time>
  <course>10.67</course>
  <speed>0.022360679774997897</speed>
  <fix>3d</fix>
</trkpt>
<trkpt lat="-27.2744384" lon="151.2900636">
  <ele>364.0</ele>
  <time>2026-09-01T19:56:34Z</time>
  <course>61.71</course>
  <speed>0.02</speed>
  <fix>3d</fix>
</trkpt>
<trkpt lat="-27.2744387" lon="151.2900638">
  <ele>364.18</ele>
  <time>2026-09-01T19:56:34Z</time>
  <course>10.67</course>
  <speed>0.022360679774997897</speed>
  <fix>3d</fix>
</trkpt>
<trkpt lat="-27.2744384" lon="151.2900637">
  <ele>364.0</ele>
  <time>2026-09-01T19:56:34Z</time>
  <course>61.51</course>
  <speed>0.02</speed>
  <fix>3d</fix>
</trkpt>
<trkpt lat="-27.2744387" lon="151.2900638">
  <ele>364.18</ele>
  <time>2026-09-01T19:56:34Z</time>
  <course>10.67</course>
  <speed>0.022360679774997897</speed>
  <fix>3d</fix>
</trkpt>
<trkpt lat="-27.2744384" lon="151.2900637">
  <ele>364.0</ele>
  <time>2026-09-01T19:56:34Z</time>
  <course>61.51</course>
  <speed>0.02</speed>
  <fix>3d</fix>
</trkpt>
<trkpt lat="-27.2744387" lon="151.2900638">
  <ele>364.18</ele>
  <time>2026-09-01T19:56:34Z</time>
  <course>10.67</course>
  <speed>0.022360679774997897</speed>
  <fix>3d</fix>
</trkpt>
<trkpt lat="-27.2744384" lon="151.2900637">
  <ele>364.0</ele>
  <time>2026-09-01T19:56:34Z</time>
  <course>60.91</course>
  <speed>0.01</speed>
  <fix>3d</fix>
</trkpt>
<trkpt lat="-27.2744387" lon="151.2900638">
  <ele>364.18</ele>
  <time>2026-09-01T19:56:34Z</time>
  <course>10.68</course>
  <speed>0.022360679774997897</speed>
  <fix>3d</fix>
</trkpt>
<trkpt lat="-27.2744384" lon="151.2900637">
  <ele>364.0</ele>
  <time>2026-09-01T19:56:34Z</time>
  <course>60.91</course>
  <speed>0.01</speed>
  <fix>3d</fix>
</trkpt>
<trkpt lat="-27.2744386" lon="151.2900638">
  <ele>364.18</ele>
  <time>2026-09-01T19:56:34Z</time>
  <course>10.68</course>
  <speed>0.022360679774997897</speed>
  <fix>3d</fix>
</trkpt>
<trkpt lat="-27.2744384" lon="151.2900637">
  <ele>364.0</ele>
  <time>2026-09-01T19:56:34Z</time>
  <course>59.39</course>
  <speed>0.01</speed>
  <fix>3d</fix>
</trkpt>
<trkpt lat="-27.2744386" lon="151.2900638">
  <ele>364.18</ele>
  <time>2026-09-01T19:56:34Z</time>
  <course>10.69</course>
  <speed>0.022360679774997897</speed>
  <fix>3d</fix>
</trkpt>
<trkpt lat="-27.2744384" lon="151.2900637">
  <ele>364.0</ele>
  <time>2026-09-01T19:56:34Z</time>
  <course>59.39</course>
  <speed>0.01</speed>
  <fix>3d</fix>
</trkpt>
<trkpt lat="-27.2744386" lon="151.2900638">
  <ele>364.18</ele>
  <time>2026-09-01T19:56:34Z</time>
  <course>10.69</course>
  <speed>0.022360679774997897</speed>
  <fix>3d</fix>
</trkpt>
<trkpt lat="-27.2744384" lon="151.2900637">
  <ele>363.99</ele>
  <time>2026-09-01T19:56:34Z</time>
  <course>57.34</course>
  <speed>0.01</speed>
  <fix>3d</fix>
</trkpt>
<trkpt lat="-27.2744386" lon="151.2900638">
  <ele>364.17</ele>
  <time>2026-09-01T19:56:34Z</time>
  <course>10.7</course>
  <speed>0.022360679774997897</speed>
  <fix>3d</fix>
</trkpt>
<trkpt lat="-27.2744384" lon="151.2900637">
  <ele>363.99</ele>
  <time>2026-09-01T19:56:34Z</time>
  <course>57.34</course>
  <speed>0.01</speed>
  <fix>3d</fix>
</trkpt>
<trkpt lat="-27.2744386" lon="151.2900638">
  <ele>364.17</ele>
  <time>2026-09-01T19:56:34Z</time>
  <course>10.7</course>
  <speed>0.022360679774997897</speed>
  <fix>3d</fix>
</trkpt>
<trkpt lat="-27.2744384" lon="151.2900637">
  <ele>363.99</ele>
  <time>2026-09-01T19:56:34Z</time>
  <course>55.08</course>
  <speed>0.01</speed>
  <fix>3d</fix>
</trkpt>
<trkpt lat="-27.2744386" lon="151.2900639">
  <ele>364.18</ele>
  <time>2026-09-01T19:56:34Z</time>
  <course>10.71</course>
  <speed>0.022360679774997897</speed>
  <fix>3d</fix>
</trkpt>
<trkpt lat="-27.2744384" lon="151.2900637">
  <ele>363.99</ele>
  <time>2026-09-01T19:56:34Z</time>
  <course>55.08</course>
  <speed>0.01</speed>
  <fix>3d</fix>
</trkpt>
<trkpt lat="-27.2744386" lon="151.2900639">
  <ele>364.18</ele>
  <time>2026-09-01T19:56:34Z</time>
  <course>10.71</course>
  <speed>0.01414213562373095</speed>
  <fix>3d</fix>
</trkpt>
<trkpt lat="-27.2744384" lon="151.2900637">
  <ele>363.99</ele>
  <time>2026-09-01T19:56:34Z</time>
  <course>52.57</course>
  <speed>0.01</speed>
  <fix>3d</fix>
</trkpt>
<trkpt lat="-27.2744386" lon="151.2900639">
  <ele>364.18</ele>
  <time>2026-09-01T19:56:34Z</time>
  <course>10.71</course>
  <speed>0.01414213562373095</speed>
  <fix>3d</fix>
</trkpt>
<trkpt lat="-27.2744384" lon="151.2900637">
  <ele>363.99</ele>
  <time>2026-09-01T19:56:34Z</time>
  <course>52.57</course>
  <speed>0.01</speed>
  <fix>3d</fix>
</trkpt>
<trkpt lat="-27.2744386" lon="151.2900639">
  <ele>364.18</ele>
  <time>2026-09-01T19:56:34Z</time>
  <course>10.71</course>
  <speed>0.01414213562373095</speed>
  <fix>3d</fix>
</trkpt>
<trkpt lat="-27.2744383" lon="151.2900637">
  <ele>363.99</ele>
  <time>2026-09-01T19:56:34Z</time>
  <course>51.06</course>
  <speed>0.01</speed>
  <fix>3d</fix>
</trkpt>
<trkpt lat="-27.2744386" lon="151.2900639">
  <ele>364.18</ele>
  <time>2026-09-01T19:56:34Z</time>
  <course>10.71</course>
  <speed>0.022360679774997897</speed>
  <fix>3d</fix>
</trkpt>
<trkpt lat="-27.2744383" lon="151.2900637">
  <ele>363.99</ele>
  <time>2026-09-01T19:56:34Z</time>
  <course>51.06</course>
  <speed>0.01</speed>
  <fix>3d</fix>
</trkpt>
<trkpt lat="-27.2744386" lon="151.2900639">
  <ele>364.18</ele>
  <time>2026-09-01T19:56:34Z</time>
  <course>10.7</course>
  <speed>0.022360679774997897</speed>
  <fix>3d</fix>
</trkpt>
<trkpt lat="-27.2744383" lon="151.2900638">
  <ele>363.99</ele>
  <time>2026-09-01T19:56:34Z</time>
  <course>50.24</course>
  <speed>0.0</speed>
  <fix>3d</fix>
</trkpt>
<trkpt lat="-27.2744386" lon="151.2900639">
  <ele>364.18</ele>
  <time>2026-09-01T19:56:34Z</time>
  <course>10.7</course>
  <speed>0.022360679774997897</speed>
  <fix>3d</fix>
</trkpt>
<trkpt lat="-27.2744383" lon="151.2900638">
  <ele>363.99</ele>
  <time>2026-09-01T19:56:34Z</time>
  <course>50.24</course>
  <speed>0.0</speed>
  <fix>3d</fix>
</trkpt>
<trkpt lat="-27.2744386" lon="151.2900639">
  <ele>364.18</ele>
  <time>2026-09-01T19:56:34Z</time>
  <course>10.7</course>
  <speed>0.022360679774997897</speed>
  <fix>3d</fix>
</trkpt>
<trkpt lat="-27.2744383" lon="151.2900639">
  <ele>363.99</ele>
  <time>2026-09-01T19:56:34Z</time>
  <course>49.93</course>
  <speed>0.0</speed>
  <fix>3d</fix>
</trkpt>
<trkpt lat="-27.2744386" lon="151.2900639">
  <ele>364.18</ele>
  <time>2026-09-01T19:56:34Z</time>
  <course>10.69</course>
  <speed>0.022360679774997897</speed>
  <fix>3d</fix>
</trkpt>
<trkpt lat="-27.2744383" lon="151.2900639">
  <ele>363.99</ele>
  <time>2026-09-01T19:56:34Z</time>
  <course>49.93</course>
  <speed>0.0</speed>
  <fix>3d</fix>
</trkpt>
<trkpt lat="-27.2744386" lon="151.2900639">
  <ele>364.18</ele>
  <time>2026-09-01T19:56:34Z</time>
  <course>10.69</course>
  <speed>0.022360679774997897</speed>
  <fix>3d</fix>
</trkpt>
<trkpt lat="-27.2744383" lon="151.2900639">
  <ele>363.99</ele>
  <time>2026-09-01T19:56:34Z</time>
  <course>54.53</course>
  <speed>0.0</speed>
  <fix>3d</fix>
</trkpt>
<trkpt lat="-27.2744385" lon="151.2900639">
  <ele>364.18</ele>
  <time>2026-09-01T19:56:34Z</time>
  <course>10.68</course>
  <speed>0.022360679774997897</speed>
  <fix>3d</fix>
</trkpt>
<trkpt lat="-27.2744383" lon="151.2900639">
  <ele>363.99</ele>
  <time>2026-09-01T19:56:34Z</time>
  <course>54.53</course>
  <speed>0.0</speed>
  <fix>3d</fix>
</trkpt>
<trkpt lat="-27.2744385" lon="151.2900639">
  <ele>364.17</ele>
  <time>2026-09-01T19:56:34Z</time>
  <course>10.68</course>
  <speed>0.022360679774997897</speed>
  <fix>3d</fix>
</trkpt>
<trkpt lat="-27.2744383" lon="151.2900639">
  <ele>363.99</ele>
  <time>2026-09-01T19:56:34Z</time>
  <course>87.77</course>
  <speed>0.0</speed>
  <fix>3d</fix>
</trkpt>
<trkpt lat="-27.2744385" lon="151.2900639">
  <ele>364.17</ele>
  <time>2026-09-01T19:56:34Z</time>
  <course>10.68</course>
  <speed>0.022360679774997897</speed>
  <fix>3d</fix>
</trkpt>
<trkpt lat="-27.2744383" lon="151.2900639">
  <ele>363.99</ele>
  <time>2026-09-01T19:56:34Z</time>
  <course>87.77</course>
  <speed>0.0</speed>
  <fix>3d</fix>
</trkpt>
<trkpt lat="-27.2744385" lon="151.2900639">
  <ele>364.18</ele>
  <time>2026-09-01T19:56:34Z</time>
  <course>10.68</course>
  <speed>0.022360679774997897</speed>
  <fix>3d</fix>
</trkpt>
<trkpt lat="-27.2744383" lon="151.2900639">
  <ele>363.99</ele>
  <time>2026-09-01T19:56:34Z</time>
  <course>164.55</course>
  <speed>0.0</speed>
  <fix>3d</fix>
</trkpt>
<trkpt lat="-27.2744385" lon="151.2900639">
  <ele>364.18</ele>
  <time>2026-09-01T19:56:34Z</time>
  <course>10.68</course>
  <speed>0.022360679774997897</speed>
  <fix>3d</fix>
</trkpt>
<trkpt lat="-27.2744383" lon="151.2900639">
  <ele>363.99</ele>
  <time>2026-09-01T19:56:34Z</time>
  <course>164.55</course>
  <speed>0.0</speed>
  <fix>3d</fix>
</trkpt>
<trkpt lat="-27.2744385" lon="151.2900639">
  <ele>364.18</ele>
  <time>2026-09-01T19:56:34Z</time>
  <course>10.68</course>
  <speed>0.02</speed>
  <fix>3d</fix>
</trkpt>
<trkpt lat="-27.2744383" lon="151.2900639">
  <ele>363.99</ele>
  <time>2026-09-01T19:56:34Z</time>
  <course>204.33</course>
  <speed>0.0</speed>
  <fix>3d</fix>
</trkpt>
<trkpt lat="-27.2744385" lon="151.2900639">
  <ele>364.18</ele>
  <time>2026-09-01T19:56:34Z</time>
  <course>10.69</course>
  <speed>0.02</speed>
  <fix>3d</fix>
</trkpt>
<trkpt lat="-27.2744383" lon="151.2900639">
  <ele>363.99</ele>
  <time>2026-09-01T19:56:34Z</time>
  <course>204.33</course>
  <speed>0.0</speed>
  <fix>3d</fix>
</trkpt>
<trkpt lat="-27.2744385" lon="151.2900639">
  <ele>364.18</ele>
  <time>2026-09-01T19:56:34Z</time>
  <course>10.69</course>
  <speed>0.02</speed>
  <fix>3d</fix>
</trkpt>
<trkpt lat="-27.2744383" lon="151.2900639">
  <ele>364.0</ele>
  <time>2026-09-01T19:56:34Z</time>
  <course>220.65</course>
  <speed>0.0</speed>
  <fix>3d</fix>
</trkpt>
<trkpt lat="-27.2744385" lon="151.2900639">
  <ele>364.18</ele>
  <time>2026-09-01T19:56:34Z</time>
  <course>10.69</course>
  <speed>0.02</speed>
  <fix>3d</fix>
</trkpt>
<trkpt lat="-27.2744383" lon="151.2900639">
  <ele>364.0</ele>
  <time>2026-09-01T19:56:34Z</time>
  <course>220.65</course>
  <speed>0.0</speed>
  <fix>3d</fix>
</trkpt>
<trkpt lat="-27.2744385" lon="151.2900639">
  <ele>364.18</ele>
  <time>2026-09-01T19:56:34Z</time>
  <course>10.69</course>
  <speed>0.02</speed>
  <fix>3d</fix>
</trkpt>
<trkpt lat="-27.2744383" lon="151.2900639">
  <ele>364.0</ele>
  <time>2026-09-01T19:56:34Z</time>
  <course>229.72</course>
  <speed>0.0</speed>
  <fix>3d</fix>
</trkpt>
<trkpt lat="-27.2744385" lon="151.2900639">
  <ele>364.18</ele>
  <time>2026-09-01T19:56:34Z</time>
  <course>10.7</course>
  <speed>0.02</speed>
  <fix>3d</fix>
</trkpt>
<trkpt lat="-27.2744383" lon="151.2900639">
  <ele>364.0</ele>
  <time>2026-09-01T19:56:34Z</time>
  <course>229.72</course>
  <speed>0.0</speed>
  <fix>3d</fix>
</trkpt>
<trkpt lat="-27.2744385" lon="151.2900639">
  <ele>364.18</ele>
  <time>2026-09-01T19:56:34Z</time>
  <course>10.7</course>
  <speed>0.02</speed>
  <fix>3d</fix>
</trkpt>
<trkpt lat="-27.2744383" lon="151.2900639">
  <ele>364.0</ele>
  <time>2026-09-01T19:56:34Z</time>
  <course>236.12</course>
  <speed>0.01</speed>
  <fix>3d</fix>
</trkpt>
<trkpt lat="-27.2744385" lon="151.2900639">
  <ele>364.18</ele>
  <time>2026-09-01T19:56:34Z</time>
  <course>10.7</course>
  <speed>0.02</speed>
  <fix>3d</fix>
</trkpt>
<trkpt lat="-27.2744383" lon="151.2900639">
  <ele>364.0</ele>
  <time>2026-09-01T19:56:34Z</time>
  <course>236.12</course>
  <speed>0.01</speed>
  <fix>3d</fix>
</trkpt>
<trkpt lat="-27.2744385" lon="151.2900639">
  <ele>364.18</ele>
  <time>2026-09-01T19:56:34Z</time>
  <course>10.7</course>
  <speed>0.02</speed>
  <fix>3d</fix>
</trkpt>
<trkpt lat="-27.2744383" lon="151.2900639">
  <ele>364.0</ele>
  <time>2026-09-01T19:56:34Z</time>
  <course>238.91</course>
  <speed>0.01</speed>
  <fix>3d</fix>
</trkpt>
<trkpt lat="-27.2744385" lon="151.2900639">
  <ele>364.18</ele>
  <time>2026-09-01T19:56:34Z</time>
  <course>10.69</course>
  <speed>0.02</speed>
  <fix>3d</fix>
</trkpt>
<trkpt lat="-27.2744383" lon="151.2900639">
  <ele>364.0</ele>
  <time>2026-09-01T19:56:34Z</time>
  <course>238.91</course>
  <speed>0.01</speed>
  <fix>3d</fix>
</trkpt>
<trkpt lat="-27.2744385" lon="151.2900639">
  <ele>364.19</ele>
  <time>2026-09-01T19:56:34Z</time>
  <course>10.69</course>
  <speed>0.02</speed>
  <fix>3d</fix>
</trkpt>
<trkpt lat="-27.2744383" lon="151.2900639">
  <ele>363.99</ele>
  <time>2026-09-01T19:56:34Z</time>
  <course>237.64</course>
  <speed>0.01</speed>
  <fix>3d</fix>
</trkpt>
<trkpt lat="-27.2744385" lon="151.2900639">
  <ele>364.19</ele>
  <time>2026-09-01T19:56:34Z</time>
  <course>10.69</course>
  <speed>0.03</speed>
  <fix>3d</fix>
</trkpt>
<trkpt lat="-27.2744383" lon="151.2900639">
  <ele>363.99</ele>
  <time>2026-09-01T19:56:34Z</time>
  <course>237.64</course>
  <speed>0.01</speed>
  <fix>3d</fix>
</trkpt>
<trkpt lat="-27.2744385" lon="151.2900639">
  <ele>364.19</ele>
  <time>2026-09-01T19:56:34Z</time>
  <course>10.69</course>
  <speed>0.03</speed>
  <fix>3d</fix>
</trkpt>
<trkpt lat="-27.2744383" lon="151.2900639">
  <ele>363.99</ele>
  <time>2026-09-01T19:56:34Z</time>
  <course>233.02</course>
  <speed>0.01</speed>
  <fix>3d</fix>
</trkpt>
<trkpt lat="-27.2744385" lon="151.2900639">
  <ele>364.19</ele>
  <time>2026-09-01T19:56:34Z</time>
  <course>10.69</course>
  <speed>0.03</speed>
  <fix>3d</fix>
</trkpt>
<trkpt lat="-27.2744383" lon="151.2900639">
  <ele>363.99</ele>
  <time>2026-09-01T19:56:34Z</time>
  <course>233.02</course>
  <speed>0.01</speed>
  <fix>3d</fix>
</trkpt>
<trkpt lat="-27.2744385" lon="151.2900639">
  <ele>364.19</ele>
  <time>2026-09-01T19:56:34Z</time>
  <course>10.69</course>
  <speed>0.03</speed>
  <fix>3d</fix>
</trkpt>
<trkpt lat="-27.2744383" lon="151.2900638">
  <ele>363.99</ele>
  <time>2026-09-01T19:56:34Z</time>
  <course>227.85</course>
  <speed>0.01</speed>
  <fix>3d</fix>
</trkpt>
<trkpt lat="-27.2744385" lon="151.2900639">
  <ele>364.19</ele>
  <time>2026-09-01T19:56:34Z</time>
  <course>10.68</course>
  <speed>0.03</speed>
  <fix>3d</fix>
</trkpt>
<trkpt lat="-27.2744383" lon="151.2900638">
  <ele>363.99</ele>
  <time>2026-09-01T19:56:34Z</time>
  <course>227.85</course>
  <speed>0.01</speed>
  <fix>3d</fix>
</trkpt>
<trkpt lat="-27.2744385" lon="151.2900639">
  <ele>364.19</ele>
  <time>2026-09-01T19:56:34Z</time>
  <course>10.68</course>
  <speed>0.02</speed>
  <fix>3d</fix>
</trkpt>
<trkpt lat="-27.2744383" lon="151.2900637">
  <ele>363.99</ele>
  <time>2026-09-01T19:56:34Z</time>
  <course>225.61</course>
  <speed>0.01</speed>
  <fix>3d</fix>
</trkpt>
<trkpt lat="-27.2744385" lon="151.2900639">
  <ele>364.19</ele>
  <time>2026-09-01T19:56:34Z</time>
  <course>10.68</course>
  <speed>0.02</speed>
  <fix>3d</fix>
</trkpt>
<trkpt lat="-27.2744383" lon="151.2900637">
  <ele>363.99</ele>
  <time>2026-09-01T19:56:34Z</time>
  <course>225.61</course>
  <speed>0.01</speed>
  <fix>3d</fix>
</trkpt>
<trkpt lat="-27.2744385" lon="151.2900639">
  <ele>364.19</ele>
  <time>2026-09-01T19:56:34Z</time>
  <course>10.68</course>
  <speed>0.02</speed>
  <fix>3d</fix>
</trkpt>
<trkpt lat="-27.2744383" lon="151.2900637">
  <ele>363.99</ele>
  <time>2026-09-01T19:56:34Z</time>
  <course>227.42</course>
  <speed>0.01</speed>
  <fix>3d</fix>
</trkpt>
<trkpt lat="-27.2744385" lon="151.2900639">
  <ele>364.19</ele>
  <time>2026-09-01T19:56:34Z</time>
  <course>10.68</course>
  <speed>0.02</speed>
  <fix>3d</fix>
</trkpt>
<trkpt lat="-27.2744383" lon="151.2900637">
  <ele>363.99</ele>
  <time>2026-09-01T19:56:34Z</time>
  <course>227.42</course>
  <speed>0.01</speed>
  <fix>3d</fix>
</trkpt>
<trkpt lat="-27.2744385" lon="151.2900639">
  <ele>364.18</ele>
  <time>2026-09-01T19:56:34Z</time>
  <course>10.68</course>
  <speed>0.02</speed>
  <fix>3d</fix>
</trkpt>
<trkpt lat="-27.2744384" lon="151.2900637">
  <ele>363.98</ele>
  <time>2026-09-01T19:56:34Z</time>
  <course>231.58</course>
  <speed>0.01</speed>
  <fix>3d</fix>
</trkpt>
<trkpt lat="-27.2744385" lon="151.2900639">
  <ele>364.18</ele>
  <time>2026-09-01T19:56:34Z</time>
  <course>10.68</course>
  <speed>0.02</speed>
  <fix>3d</fix>
</trkpt>
<trkpt lat="-27.2744384" lon="151.2900637">
  <ele>363.98</ele>
  <time>2026-09-01T19:56:34Z</time>
  <course>231.58</course>
  <speed>0.01</speed>
  <fix>3d</fix>
</trkpt>
<trkpt lat="-27.2744385" lon="151.2900639">
  <ele>364.18</ele>
  <time>2026-09-01T19:56:34Z</time>
  <course>10.68</course>
  <speed>0.02</speed>
  <fix>3d</fix>
</trkpt>
<trkpt lat="-27.2744384" lon="151.2900637">
  <ele>363.98</ele>
  <time>2026-09-01T19:56:34Z</time>
  <course>234.71</course>
  <speed>0.01</speed>
  <fix>3d</fix>
</trkpt>
<trkpt lat="-27.2744386" lon="151.2900638">
  <ele>364.18</ele>
  <time>2026-09-01T19:56:34Z</time>
  <course>10.68</course>
  <speed>0.03</speed>
  <fix>3d</fix>
</trkpt>
<trkpt lat="-27.2744384" lon="151.2900637">
  <ele>363.98</ele>
  <time>2026-09-01T19:56:34Z</time>
  <course>234.71</course>
  <speed>0.01</speed>
  <fix>3d</fix>
</trkpt>
<trkpt lat="-27.2744386" lon="151.2900638">
  <ele>364.18</ele>
  <time>2026-09-01T19:56:34Z</time>
  <course>10.68</course>
  <speed>0.03</speed>
  <fix>3d</fix>
</trkpt>
<trkpt lat="-27.2744384" lon="151.2900637">
  <ele>363.98</ele>
  <time>2026-09-01T19:56:34Z</time>
  <course>234.89</course>
  <speed>0.01</speed>
  <fix>3d</fix>
</trkpt>
<trkpt lat="-27.2744386" lon="151.2900638">
  <ele>364.18</ele>
  <time>2026-09-01T19:56:34Z</time>
  <course>10.68</course>
  <speed>0.03</speed>
  <fix>3d</fix>
</trkpt>
<trkpt lat="-27.2744384" lon="151.2900637">
  <ele>363.98</ele>
  <time>2026-09-01T19:56:34Z</time>
  <course>234.89</course>
  <speed>0.01</speed>
  <fix>3d</fix>
</trkpt>
<trkpt lat="-27.2744386" lon="151.2900638">
  <ele>364.18</ele>
  <time>2026-09-01T19:56:34Z</time>
  <course>10.69</course>
  <speed>0.03</speed>
  <fix>3d</fix>
</trkpt>
<trkpt lat="-27.2744384" lon="151.2900637">
  <ele>363.98</ele>
  <time>2026-09-01T19:56:34Z</time>
  <course>232.24</course>
  <speed>0.02</speed>
  <fix>3d</fix>
</trkpt>
<trkpt lat="-27.2744386" lon="151.2900638">
  <ele>364.18</ele>
  <time>2026-09-01T19:56:34Z</time>
  <course>10.69</course>
  <speed>0.03</speed>
  <fix>3d</fix>
</trkpt>
<trkpt lat="-27.2744384" lon="151.2900637">
  <ele>363.98</ele>
  <time>2026-09-01T19:56:34Z</time>
  <course>232.24</course>
  <speed>0.02</speed>
  <fix>3d</fix>
</trkpt>
<trkpt lat="-27.2744386" lon="151.2900638">
  <ele>364.18</ele>
  <time>2026-09-01T19:56:34Z</time>
  <course>10.69</course>
  <speed>0.03</speed>
  <fix>3d</fix>
</trkpt>
<trkpt lat="-27.2744384" lon="151.2900636">
  <ele>363.98</ele>
  <time>2026-09-01T19:56:34Z</time>
  <course>229.05</course>
  <speed>0.02</speed>
  <fix>3d</fix>
</trkpt>
<trkpt lat="-27.2744386" lon="151.2900638">
  <ele>364.17</ele>
  <time>2026-09-01T19:56:34Z</time>
  <course>10.69</course>
  <speed>0.03</speed>
  <fix>3d</fix>
</trkpt>
<trkpt lat="-27.2744384" lon="151.2900636">
  <ele>363.98</ele>
  <time>2026-09-01T19:56:34Z</time>
  <course>229.05</course>
  <speed>0.02</speed>
  <fix>3d</fix>
</trkpt>
<trkpt lat="-27.2744386" lon="151.2900638">
  <ele>364.17</ele>
  <time>2026-09-01T19:56:34Z</time>
  <course>10.69</course>
  <speed>0.02</speed>
  <fix>3d</fix>
</trkpt>
<trkpt lat="-27.2744385" lon="151.2900636">
  <ele>363.98</ele>
  <time>2026-09-01T19:56:34Z</time>
  <course>228.07</course>
  <speed>0.01</speed>
  <fix>3d</fix>
</trkpt>
<trkpt lat="-27.2744386" lon="151.2900637">
  <ele>364.17</ele>
  <time>2026-09-01T19:56:35Z</time>
  <course>10.69</course>
  <speed>0.02</speed>
  <fix>3d</fix>
</trkpt>
<trkpt lat="-27.2744385" lon="151.2900636">
  <ele>363.98</ele>
  <time>2026-09-01T19:56:35Z</time>
  <course>228.07</course>
  <speed>0.01</speed>
  <fix>3d</fix>
</trkpt>
<trkpt lat="-27.2744386" lon="151.2900637">
  <ele>364.17</ele>
  <time>2026-09-01T19:56:35Z</time>
  <course>10.69</course>
  <speed>0.02</speed>
  <fix>3d</fix>
</trkpt>
<trkpt lat="-27.2744385" lon="151.2900636">
  <ele>363.98</ele>
  <time>2026-09-01T19:56:35Z</time>
  <course>230.11</course>
  <speed>0.01</speed>
  <fix>3d</fix>
</trkpt>
<trkpt lat="-27.2744386" lon="151.2900637">
  <ele>364.17</ele>
  <time>2026-09-01T19:56:35Z</time>
  <course>10.69</course>
  <speed>0.02</speed>
  <fix>3d</fix>
</trkpt>
<trkpt lat="-27.2744385" lon="151.2900636">
  <ele>363.98</ele>
  <time>2026-09-01T19:56:35Z</time>
  <course>230.11</course>
  <speed>0.01</speed>
  <fix>3d</fix>
</trkpt>
<trkpt lat="-27.2744386" lon="151.2900637">
  <ele>364.17</ele>
  <time>2026-09-01T19:56:35Z</time>
  <course>10.69</course>
  <speed>0.02</speed>
  <fix>3d</fix>
</trkpt>
<trkpt lat="-27.2744385" lon="151.2900635">
  <ele>363.98</ele>
  <time>2026-09-01T19:56:35Z</time>
  <course>232.93</course>
  <speed>0.01</speed>
  <fix>3d</fix>
</trkpt>
<trkpt lat="-27.2744387" lon="151.2900637">
  <ele>364.17</ele>
  <time>2026-09-01T19:56:35Z</time>
  <course>10.69</course>
  <speed>0.02</speed>
  <fix>3d</fix>
</trkpt>
<trkpt lat="-27.2744385" lon="151.2900635">
  <ele>363.98</ele>
  <time>2026-09-01T19:56:35Z</time>
  <course>232.93</course>
  <speed>0.01</speed>
  <fix>3d</fix>
</trkpt>
<trkpt lat="-27.2744387" lon="151.2900637">
  <ele>364.17</ele>
  <time>2026-09-01T19:56:35Z</time>
  <course>10.69</course>
  <speed>0.02</speed>
  <fix>3d</fix>
</trkpt>
<trkpt lat="-27.2744385" lon="151.2900635">
  <ele>363.98</ele>
  <time>2026-09-01T19:56:35Z</time>
  <course>234.02</course>
  <speed>0.01</speed>
  <fix>3d</fix>
</trkpt>
<trkpt lat="-27.2744387" lon="151.2900637">
  <ele>364.17</ele>
  <time>2026-09-01T19:56:35Z</time>
  <course>10.68</course>
  <speed>0.02</speed>
  <fix>3d</fix>
</trkpt>
<trkpt lat="-27.2744385" lon="151.2900635">
  <ele>363.98</ele>
  <time>2026-09-01T19:56:35Z</time>
  <course>234.02</course>
  <speed>0.01</speed>
  <fix>3d</fix>
</trkpt>
<trkpt lat="-27.2744387" lon="151.2900637">
  <ele>364.17</ele>
  <time>2026-09-01T19:56:35Z</time>
  <course>10.68</course>
  <speed>0.02</speed>
  <fix>3d</fix>
</trkpt>
<trkpt lat="-27.2744385" lon="151.2900635">
  <ele>363.98</ele>
  <time>2026-09-01T19:56:35Z</time>
  <course>234.51</course>
  <speed>0.01</speed>
  <fix>3d</fix>
</trkpt>
<trkpt lat="-27.2744387" lon="151.2900637">
  <ele>364.17</ele>
  <time>2026-09-01T19:56:35Z</time>
  <course>10.68</course>
  <speed>0.02</speed>
  <fix>3d</fix>
</trkpt>
<trkpt lat="-27.2744385" lon="151.2900635">
  <ele>363.98</ele>
  <time>2026-09-01T19:56:35Z</time>
  <course>234.51</course>
  <speed>0.01</speed>
  <fix>3d</fix>
</trkpt>
<trkpt lat="-27.2744387" lon="151.2900636">
  <ele>364.17</ele>
  <time>2026-09-01T19:56:35Z</time>
  <course>10.68</course>
  <speed>0.02</speed>
  <fix>3d</fix>
</trkpt>
<trkpt lat="-27.2744386" lon="151.2900635">
  <ele>363.98</ele>
  <time>2026-09-01T19:56:35Z</time>
  <course>237.47</course>
  <speed>0.01</speed>
  <fix>3d</fix>
</trkpt>
<trkpt lat="-27.2744387" lon="151.2900636">
  <ele>364.17</ele>
  <time>2026-09-01T19:56:35Z</time>
  <course>10.68</course>
  <speed>0.02</speed>
  <fix>3d</fix>
</trkpt>
<trkpt lat="-27.2744386" lon="151.2900635">
  <ele>363.98</ele>
  <time>2026-09-01T19:56:35Z</time>
  <course>237.47</course>
  <speed>0.01</speed>
  <fix>3d</fix>
</trkpt>
<trkpt lat="-27.2744387" lon="151.2900636">
  <ele>364.17</ele>
  <time>2026-09-01T19:56:35Z</time>
  <course>10.68</course>
  <speed>0.02</speed>
  <fix>3d</fix>
</trkpt>
<trkpt lat="-27.2744386" lon="151.2900634">
  <ele>363.98</ele>
  <time>2026-09-01T19:56:35Z</time>
  <course>243.46</course>
  <speed>0.01</speed>
  <fix>3d</fix>
</trkpt>
<trkpt lat="-27.2744387" lon="151.2900636">
  <ele>364.18</ele>
  <time>2026-09-01T19:56:35Z</time>
  <course>10.68</course>
  <speed>0.02</speed>
  <fix>3d</fix>
</trkpt>
<trkpt lat="-27.2744386" lon="151.2900634">
  <ele>363.98</ele>
  <time>2026-09-01T19:56:35Z</time>
  <course>243.46</course>
  <speed>0.01</speed>
  <fix>3d</fix>
</trkpt>
<trkpt lat="-27.2744387" lon="151.2900636">
  <ele>364.18</ele>
  <time>2026-09-01T19:56:35Z</time>
  <course>10.68</course>
  <speed>0.022360679774997897</speed>
  <fix>3d</fix>
</trkpt>
<trkpt lat="-27.2744386" lon="151.2900633">
  <ele>363.98</ele>
  <time>2026-09-01T19:56:35Z</time>
  <course>250.43</course>
  <speed>0.0</speed>
  <fix>3d</fix>
</trkpt>
<trkpt lat="-27.2744387" lon="151.2900636">
  <ele>364.18</ele>
  <time>2026-09-01T19:56:35Z</time>
  <course>10.68</course>
  <speed>0.022360679774997897</speed>
  <fix>3d</fix>
</trkpt>
<trkpt lat="-27.2744386" lon="151.2900633">
  <ele>363.98</ele>
  <time>2026-09-01T19:56:35Z</time>
  <course>250.43</course>
  <speed>0.0</speed>
  <fix>3d</fix>
</trkpt>
<trkpt lat="-27.2744387" lon="151.2900636">
  <ele>364.18</ele>
  <time>2026-09-01T19:56:35Z</time>
  <course>10.68</course>
  <speed>0.022360679774997897</speed>
  <fix>3d</fix>
</trkpt>
<trkpt lat="-27.2744386" lon="151.2900633">
  <ele>363.99</ele>
  <time>2026-09-01T19:56:35Z</time>
  <course>259.39</course>
  <speed>0.0</speed>
  <fix>3d</fix>
</trkpt>
<trkpt lat="-27.2744387" lon="151.2900636">
  <ele>364.18</ele>
  <time>2026-09-01T19:56:35Z</time>
  <course>10.68</course>
  <speed>0.01414213562373095</speed>
  <fix>3d</fix>
</trkpt>
<trkpt lat="-27.2744386" lon="151.2900633">
  <ele>363.99</ele>
  <time>2026-09-01T19:56:35Z</time>
  <course>259.39</course>
  <speed>0.0</speed>
  <fix>3d</fix>
</trkpt>
<trkpt lat="-27.2744387" lon="151.2900636">
  <ele>364.18</ele>
  <time>2026-09-01T19:56:35Z</time>
  <course>10.68</course>
  <speed>0.01414213562373095</speed>
  <fix>3d</fix>
</trkpt>
<trkpt lat="-27.2744386" lon="151.2900633">
  <ele>363.99</ele>
  <time>2026-09-01T19:56:35Z</time>
  <course>278.04</course>
  <speed>0.0</speed>
  <fix>3d</fix>
</trkpt>
<trkpt lat="-27.2744387" lon="151.2900636">
  <ele>364.18</ele>
  <time>2026-09-01T19:56:35Z</time>
  <course>10.68</course>
  <speed>0.01414213562373095</speed>
  <fix>3d</fix>
</trkpt>
<trkpt lat="-27.2744386" lon="151.2900633">
  <ele>363.99</ele>
  <time>2026-09-01T19:56:35Z</time>
  <course>278.04</course>
  <speed>0.0</speed>
  <fix>3d</fix>
</trkpt>
<trkpt lat="-27.2744387" lon="151.2900636">
  <ele>364.19</ele>
  <time>2026-09-01T19:56:35Z</time>
  <course>10.69</course>
  <speed>0.01414213562373095</speed>
  <fix>3d</fix>
</trkpt>
<trkpt lat="-27.2744386" lon="151.2900633">
  <ele>363.99</ele>
  <time>2026-09-01T19:56:35Z</time>
  <course>322.77</course>
  <speed>0.0</speed>
  <fix>3d</fix>
</trkpt>
<trkpt lat="-27.2744387" lon="151.2900635">
  <ele>364.18</ele>
  <time>2026-09-01T19:56:35Z</time>
  <course>10.69</course>
  <speed>0.01414213562373095</speed>
  <fix>3d</fix>
</trkpt>
<trkpt lat="-27.2744386" lon="151.2900633">
  <ele>363.99</ele>
  <time>2026-09-01T19:56:35Z</time>
  <course>322.77</course>
  <speed>0.0</speed>
  <fix>3d</fix>
</trkpt>
<trkpt lat="-27.2744387" lon="151.2900635">
  <ele>364.18</ele>
  <time>2026-09-01T19:56:35Z</time>
  <course>10.69</course>
  <speed>0.01414213562373095</speed>
  <fix>3d</fix>
</trkpt>
<trkpt lat="-27.2744386" lon="151.2900633">
  <ele>363.99</ele>
  <time>2026-09-01T19:56:35Z</time>
  <course>3.01</course>
  <speed>0.0</speed>
  <fix>3d</fix>
</trkpt>
<trkpt lat="-27.2744387" lon="151.2900635">
  <ele>364.19</ele>
  <time>2026-09-01T19:56:35Z</time>
  <course>10.69</course>
  <speed>0.01414213562373095</speed>
  <fix>3d</fix>
</trkpt>
<trkpt lat="-27.2744386" lon="151.2900633">
  <ele>363.99</ele>
  <time>2026-09-01T19:56:35Z</time>
  <course>3.01</course>
  <speed>0.0</speed>
  <fix>3d</fix>
</trkpt>
<trkpt lat="-27.2744387" lon="151.2900635">
  <ele>364.19</ele>
  <time>2026-09-01T19:56:35Z</time>
  <course>10.69</course>
  <speed>0.01414213562373095</speed>
  <fix>3d</fix>
</trkpt>
<trkpt lat="-27.2744386" lon="151.2900633">
  <ele>363.99</ele>
  <time>2026-09-01T19:56:35Z</time>
  <course>20.84</course>
  <speed>0.0</speed>
  <fix>3d</fix>
</trkpt>
<trkpt lat="-27.2744387" lon="151.2900635">
  <ele>364.19</ele>
  <time>2026-09-01T19:56:35Z</time>
  <course>10.69</course>
  <speed>0.01414213562373095</speed>
  <fix>3d</fix>
</trkpt>
<trkpt lat="-27.2744386" lon="151.2900633">
  <ele>363.99</ele>
  <time>2026-09-01T19:56:35Z</time>
  <course>20.84</course>
  <speed>0.0</speed>
  <fix>3d</fix>
</trkpt>
<trkpt lat="-27.2744387" lon="151.2900635">
  <ele>364.19</ele>
  <time>2026-09-01T19:56:35Z</time>
  <course>10.69</course>
  <speed>0.01414213562373095</speed>
  <fix>3d</fix>
</trkpt>
<trkpt lat="-27.2744386" lon="151.2900633">
  <ele>363.98</ele>
  <time>2026-09-01T19:56:35Z</time>
  <course>29.08</course>
  <speed>0.0</speed>
  <fix>3d</fix>
</trkpt>
<trkpt lat="-27.2744387" lon="151.2900635">
  <ele>364.19</ele>
  <time>2026-09-01T19:56:35Z</time>
  <course>10.69</course>
  <speed>0.01414213562373095</speed>
  <fix>3d</fix>
</trkpt>
<trkpt lat="-27.2744386" lon="151.2900633">
  <ele>363.98</ele>
  <time>2026-09-01T19:56:35Z</time>
  <course>29.08</course>
  <speed>0.0</speed>
  <fix>3d</fix>
</trkpt>
<trkpt lat="-27.2744387" lon="151.2900635">
  <ele>364.19</ele>
  <time>2026-09-01T19:56:35Z</time>
  <course>10.69</course>
  <speed>0.022360679774997897</speed>
  <fix>3d</fix>
</trkpt>
<trkpt lat="-27.2744386" lon="151.2900633">
  <ele>363.98</ele>
  <time>2026-09-01T19:56:35Z</time>
  <course>33.2</course>
  <speed>0.0</speed>
  <fix>3d</fix>
</trkpt>
<trkpt lat="-27.2744387" lon="151.2900635">
  <ele>364.18</ele>
  <time>2026-09-01T19:56:35Z</time>
  <course>10.69</course>
  <speed>0.022360679774997897</speed>
  <fix>3d</fix>
</trkpt>
<trkpt lat="-27.2744386" lon="151.2900633">
  <ele>363.98</ele>
  <time>2026-09-01T19:56:35Z</time>
  <course>33.2</course>
  <speed>0.0</speed>
  <fix>3d</fix>
</trkpt>
<trkpt lat="-27.2744387" lon="151.2900635">
  <ele>364.18</ele>
  <time>2026-09-01T19:56:35Z</time>
  <course>10.69</course>
  <speed>0.022360679774997897</speed>
  <fix>3d</fix>
</trkpt>
<trkpt lat="-27.2744386" lon="151.2900633">
  <ele>363.98</ele>
  <time>2026-09-01T19:56:35Z</time>
  <course>36.82</course>
  <speed>0.01</speed>
  <fix>3d</fix>
</trkpt>
<trkpt lat="-27.2744387" lon="151.2900635">
  <ele>364.18</ele>
  <time>2026-09-01T19:56:35Z</time>
  <course>10.68</course>
  <speed>0.022360679774997897</speed>
  <fix>3d</fix>
</trkpt>
<trkpt lat="-27.2744386" lon="151.2900633">
  <ele>363.98</ele>
  <time>2026-09-01T19:56:35Z</time>
  <course>36.82</course>
  <speed>0.01</speed>
  <fix>3d</fix>
</trkpt>
<trkpt lat="-27.2744387" lon="151.2900635">
  <ele>364.17</ele>
  <time>2026-09-01T19:56:35Z</time>
  <course>10.68</course>
  <speed>0.022360679774997897</speed>
  <fix>3d</fix>
</trkpt>
<trkpt lat="-27.2744386" lon="151.2900633">
  <ele>363.98</ele>
  <time>2026-09-01T19:56:35Z</time>
  <course>40.92</course>
  <speed>0.01</speed>
  <fix>3d</fix>
</trkpt>
<trkpt lat="-27.2744387" lon="151.2900635">
  <ele>364.17</ele>
  <time>2026-09-01T19:56:35Z</time>
  <course>10.68</course>
  <speed>0.022360679774997897</speed>
  <fix>3d</fix>
</trkpt>
<trkpt lat="-27.2744386" lon="151.2900633">
  <ele>363.98</ele>
  <time>2026-09-01T19:56:35Z</time>
  <course>40.92</course>
  <speed>0.01</speed>
  <fix>3d</fix>
</trkpt>
<trkpt lat="-27.2744387" lon="151.2900635">
  <ele>364.17</ele>
  <time>2026-09-01T19:56:35Z</time>
  <course>10.68</course>
  <speed>0.022360679774997897</speed>
  <fix>3d</fix>
</trkpt>
<trkpt lat="-27.2744386" lon="151.2900633">
  <ele>363.98</ele>
  <time>2026-09-01T19:56:35Z</time>
  <course>45.83</course>
  <speed>0.01</speed>
  <fix>3d</fix>
</trkpt>
<trkpt lat="-27.2744387" lon="151.2900635">
  <ele>364.17</ele>
  <time>2026-09-01T19:56:35Z</time>
  <course>10.68</course>
  <speed>0.022360679774997897</speed>
  <fix>3d</fix>
</trkpt>
<trkpt lat="-27.2744386" lon="151.2900633">
  <ele>363.98</ele>
  <time>2026-09-01T19:56:35Z</time>
  <course>45.83</course>
  <speed>0.01</speed>
  <fix>3d</fix>
</trkpt>
<trkpt lat="-27.2744387" lon="151.2900635">
  <ele>364.17</ele>
  <time>2026-09-01T19:56:35Z</time>
  <course>10.68</course>
  <speed>0.022360679774997897</speed>
  <fix>3d</fix>
</trkpt>
<trkpt lat="-27.2744386" lon="151.2900633">
  <ele>363.98</ele>
  <time>2026-09-01T19:56:35Z</time>
  <course>50.57</course>
  <speed>0.01</speed>
  <fix>3d</fix>
</trkpt>
<trkpt lat="-27.2744387" lon="151.2900635">
  <ele>364.17</ele>
  <time>2026-09-01T19:56:35Z</time>
  <course>10.68</course>
  <speed>0.022360679774997897</speed>
  <fix>3d</fix>
</trkpt>
<trkpt lat="-27.2744386" lon="151.2900633">
  <ele>363.98</ele>
  <time>2026-09-01T19:56:35Z</time>
  <course>50.57</course>
  <speed>0.01</speed>
  <fix>3d</fix>
</trkpt>
<trkpt lat="-27.2744387" lon="151.2900635">
  <ele>364.18</ele>
  <time>2026-09-01T19:56:35Z</time>
  <course>10.68</course>
  <speed>0.022360679774997897</speed>
  <fix>3d</fix>
</trkpt>
<trkpt lat="-27.2744386" lon="151.2900633">
  <ele>363.98</ele>
  <time>2026-09-01T19:56:35Z</time>
  <course>53.24</course>
  <speed>0.01</speed>
  <fix>3d</fix>
</trkpt>
<trkpt lat="-27.2744387" lon="151.2900635">
  <ele>364.18</ele>
  <time>2026-09-01T19:56:35Z</time>
  <course>10.68</course>
  <speed>0.022360679774997897</speed>
  <fix>3d</fix>
</trkpt>
<trkpt lat="-27.2744386" lon="151.2900633">
  <ele>363.98</ele>
  <time>2026-09-01T19:56:35Z</time>
  <course>53.24</course>
  <speed>0.01</speed>
  <fix>3d</fix>
</trkpt>
<trkpt lat="-27.2744387" lon="151.2900635">
  <ele>364.18</ele>
  <time>2026-09-01T19:56:35Z</time>
  <course>10.68</course>
  <speed>0.0316227766016838</speed>
  <fix>3d</fix>
</trkpt>
<trkpt lat="-27.2744385" lon="151.2900634">
  <ele>363.98</ele>
  <time>2026-09-01T19:56:35Z</time>
  <course>54.95</course>
  <speed>0.02</speed>
  <fix>3d</fix>
</trkpt>
<trkpt lat="-27.2744387" lon="151.2900635">
  <ele>364.18</ele>
  <time>2026-09-01T19:56:35Z</time>
  <course>10.68</course>
  <speed>0.0316227766016838</speed>
  <fix>3d</fix>
</trkpt>
<trkpt lat="-27.2744385" lon="151.2900634">
  <ele>363.98</ele>
  <time>2026-09-01T19:56:35Z</time>
  <course>54.95</course>
  <speed>0.02</speed>
  <fix>3d</fix>
</trkpt>
<trkpt lat="-27.2744387" lon="151.2900636">
  <ele>364.18</ele>
  <time>2026-09-01T19:56:35Z</time>
  <course>10.68</course>
  <speed>0.0316227766016838</speed>
  <fix>3d</fix>
</trkpt>
<trkpt lat="-27.2744385" lon="151.2900635">
  <ele>363.98</ele>
  <time>2026-09-01T19:56:35Z</time>
  <course>56.18</course>
  <speed>0.02</speed>
  <fix>3d</fix>
</trkpt>
<trkpt lat="-27.2744387" lon="151.2900636">
  <ele>364.18</ele>
  <time>2026-09-01T19:56:35Z</time>
  <course>10.69</course>
  <speed>0.0316227766016838</speed>
  <fix>3d</fix>
</trkpt>
<trkpt lat="-27.2744385" lon="151.2900635">
  <ele>363.98</ele>
  <time>2026-09-01T19:56:35Z</time>
  <course>56.18</course>
  <speed>0.02</speed>
  <fix>3d</fix>
</trkpt>
<trkpt lat="-27.2744387" lon="151.2900636">
  <ele>364.18</ele>
  <time>2026-09-01T19:56:35Z</time>
  <course>10.69</course>
  <speed>0.0316227766016838</speed>
  <fix>3d</fix>
</trkpt>
<trkpt lat="-27.2744385" lon="151.2900635">
  <ele>363.98</ele>
  <time>2026-09-01T19:56:35Z</time>
  <course>55.55</course>
  <speed>0.02</speed>
  <fix>3d</fix>
</trkpt>
<trkpt lat="-27.2744387" lon="151.2900636">
  <ele>364.18</ele>
  <time>2026-09-01T19:56:35Z</time>
  <course>10.69</course>
  <speed>0.0316227766016838</speed>
  <fix>3d</fix>
</trkpt>
<trkpt lat="-27.2744385" lon="151.2900635">
  <ele>363.98</ele>
  <time>2026-09-01T19:56:35Z</time>
  <course>55.55</course>
  <speed>0.02</speed>
  <fix>3d</fix>
</trkpt>
<trkpt lat="-27.2744387" lon="151.2900636">
  <ele>364.18</ele>
  <time>2026-09-01T19:56:35Z</time>
  <course>10.69</course>
  <speed>0.0316227766016838</speed>
  <fix>3d</fix>
</trkpt>
<trkpt lat="-27.2744385" lon="151.2900635">
  <ele>363.98</ele>
  <time>2026-09-01T19:56:35Z</time>
  <course>53.73</course>
  <speed>0.02</speed>
  <fix>3d</fix>
</trkpt>
<trkpt lat="-27.2744387" lon="151.2900636">
  <ele>364.18</ele>
  <time>2026-09-01T19:56:35Z</time>
  <course>10.69</course>
  <speed>0.0316227766016838</speed>
  <fix>3d</fix>
</trkpt>
<trkpt lat="-27.2744385" lon="151.2900635">
  <ele>363.98</ele>
  <time>2026-09-01T19:56:35Z</time>
  <course>53.73</course>
  <speed>0.02</speed>
  <fix>3d</fix>
</trkpt>
<trkpt lat="-27.2744387" lon="151.2900637">
  <ele>364.18</ele>
  <time>2026-09-01T19:56:35Z</time>
  <course>10.69</course>
  <speed>0.0316227766016838</speed>
  <fix>3d</fix>
</trkpt>
<trkpt lat="-27.2744384" lon="151.2900636">
  <ele>363.98</ele>
  <time>2026-09-01T19:56:35Z</time>
  <course>52.96</course>
  <speed>0.02</speed>
  <fix>3d</fix>
</trkpt>
<trkpt lat="-27.2744387" lon="151.2900637">
  <ele>364.18</ele>
  <time>2026-09-01T19:56:35Z</time>
  <course>10.69</course>
  <speed>0.0316227766016838</speed>
  <fix>3d</fix>
</trkpt>
<trkpt lat="-27.2744384" lon="151.2900636">
  <ele>363.98</ele>
  <time>2026-09-01T19:56:35Z</time>
  <course>52.96</course>
  <speed>0.02</speed>
  <fix>3d</fix>
</trkpt>
<trkpt lat="-27.2744387" lon="151.2900637">
  <ele>364.18</ele>
  <time>2026-09-01T19:56:35Z</time>
  <course>10.69</course>
  <speed>0.0316227766016838</speed>
  <fix>3d</fix>
</trkpt>
<trkpt lat="-27.2744384" lon="151.2900636">
  <ele>363.98</ele>
  <time>2026-09-01T19:56:35Z</time>
  <course>53.7</course>
  <speed>0.02</speed>
  <fix>3d</fix>
</trkpt>
<trkpt lat="-27.2744386" lon="151.2900637">
  <ele>364.18</ele>
  <time>2026-09-01T19:56:35Z</time>
  <course>10.68</course>
  <speed>0.0316227766016838</speed>
  <fix>3d</fix>
</trkpt>
<trkpt lat="-27.2744384" lon="151.2900636">
  <ele>363.98</ele>
  <time>2026-09-01T19:56:35Z</time>
  <course>53.7</course>
  <speed>0.02</speed>
  <fix>3d</fix>
</trkpt>
<trkpt lat="-27.2744386" lon="151.2900637">
  <ele>364.18</ele>
  <time>2026-09-01T19:56:35Z</time>
  <course>10.68</course>
  <speed>0.0316227766016838</speed>
  <fix>3d</fix>
</trkpt>
<trkpt lat="-27.2744384" lon="151.2900637">
  <ele>363.98</ele>
  <time>2026-09-01T19:56:35Z</time>
  <course>55.52</course>
  <speed>0.02</speed>
  <fix>3d</fix>
</trkpt>
<trkpt lat="-27.2744386" lon="151.2900638">
  <ele>364.18</ele>
  <time>2026-09-01T19:56:35Z</time>
  <course>10.68</course>
  <speed>0.0316227766016838</speed>
  <fix>3d</fix>
</trkpt>
<trkpt lat="-27.2744384" lon="151.2900637">
  <ele>363.98</ele>
  <time>2026-09-01T19:56:35Z</time>
  <course>55.52</course>
  <speed>0.02</speed>
  <fix>3d</fix>
</trkpt>
<trkpt lat="-27.2744386" lon="151.2900638">
  <ele>364.18</ele>
  <time>2026-09-01T19:56:35Z</time>
  <course>10.68</course>
  <speed>0.022360679774997897</speed>
  <fix>3d</fix>
</trkpt>
<trkpt lat="-27.2744384" lon="151.2900637">
  <ele>363.98</ele>
  <time>2026-09-01T19:56:35Z</time>
  <course>57.27</course>
  <speed>0.02</speed>
  <fix>3d</fix>
</trkpt>
<trkpt lat="-27.2744386" lon="151.2900638">
  <ele>364.18</ele>
  <time>2026-09-01T19:56:35Z</time>
  <course>10.68</course>
  <speed>0.022360679774997897</speed>
  <fix>3d</fix>
</trkpt>
<trkpt lat="-27.2744384" lon="151.2900637">
  <ele>363.98</ele>
  <time>2026-09-01T19:56:35Z</time>
  <course>57.27</course>
  <speed>0.02</speed>
  <fix>3d</fix>
</trkpt>
<trkpt lat="-27.2744386" lon="151.2900638">
  <ele>364.18</ele>
  <time>2026-09-01T19:56:35Z</time>
  <course>10.68</course>
  <speed>0.022360679774997897</speed>
  <fix>3d</fix>
</trkpt>
<trkpt lat="-27.2744384" lon="151.2900637">
  <ele>363.98</ele>
  <time>2026-09-01T19:56:35Z</time>
  <course>58.0</course>
  <speed>0.02</speed>
  <fix>3d</fix>
</trkpt>
<trkpt lat="-27.2744386" lon="151.2900638">
  <ele>364.18</ele>
  <time>2026-09-01T19:56:35Z</time>
  <course>10.68</course>
  <speed>0.022360679774997897</speed>
  <fix>3d</fix>
</trkpt>
<trkpt lat="-27.2744384" lon="151.2900637">
  <ele>363.98</ele>
  <time>2026-09-01T19:56:35Z</time>
  <course>58.0</course>
  <speed>0.02</speed>
  <fix>3d</fix>
</trkpt>
<trkpt lat="-27.2744386" lon="151.2900638">
  <ele>364.18</ele>
  <time>2026-09-01T19:56:35Z</time>
  <course>10.68</course>
  <speed>0.022360679774997897</speed>
  <fix>3d</fix>
</trkpt>
<trkpt lat="-27.2744383" lon="151.2900637">
  <ele>363.98</ele>
  <time>2026-09-01T19:56:35Z</time>
  <course>58.16</course>
  <speed>0.01</speed>
  <fix>3d</fix>
</trkpt>
<trkpt lat="-27.2744386" lon="151.2900639">
  <ele>364.18</ele>
  <time>2026-09-01T19:56:35Z</time>
  <course>10.69</course>
  <speed>0.022360679774997897</speed>
  <fix>3d</fix>
</trkpt>
<trkpt lat="-27.2744383" lon="151.2900637">
  <ele>363.98</ele>
  <time>2026-09-01T19:56:35Z</time>
  <course>58.16</course>
  <speed>0.01</speed>
  <fix>3d</fix>
</trkpt>
<trkpt lat="-27.2744386" lon="151.2900639">
  <ele>364.18</ele>
  <time>2026-09-01T19:56:35Z</time>
  <course>10.69</course>
  <speed>0.022360679774997897</speed>
  <fix>3d</fix>
</trkpt>
<trkpt lat="-27.2744383" lon="151.2900637">
  <ele>363.98</ele>
  <time>2026-09-01T19:56:35Z</time>
  <course>57.6</course>
  <speed>0.01</speed>
  <fix>3d</fix>
</trkpt>
<trkpt lat="-27.2744386" lon="151.2900639">
  <ele>364.18</ele>
  <time>2026-09-01T19:56:35Z</time>
  <course>10.69</course>
  <speed>0.022360679774997897</speed>
  <fix>3d</fix>
</trkpt>
<trkpt lat="-27.2744383" lon="151.2900637">
  <ele>363.98</ele>
  <time>2026-09-01T19:56:35Z</time>
  <course>57.6</course>
  <speed>0.01</speed>
  <fix>3d</fix>
</trkpt>
<trkpt lat="-27.2744386" lon="151.2900639">
  <ele>364.17</ele>
  <time>2026-09-01T19:56:35Z</time>
  <course>10.7</course>
  <speed>0.01414213562373095</speed>
  <fix>3d</fix>
</trkpt>
<trkpt lat="-27.2744383" lon="151.2900637">
  <ele>363.98</ele>
  <time>2026-09-01T19:56:35Z</time>
  <course>55.44</course>
  <speed>0.01</speed>
  <fix>3d</fix>
</trkpt>
<trkpt lat="-27.2744386" lon="151.2900639">
  <ele>364.17</ele>
  <time>2026-09-01T19:56:35Z</time>
  <course>10.7</course>
  <speed>0.022360679774997897</speed>
  <fix>3d</fix>
</trkpt>
<trkpt lat="-27.2744383" lon="151.2900637">
  <ele>363.98</ele>
  <time>2026-09-01T19:56:35Z</time>
  <course>55.44</course>
  <speed>0.01</speed>
  <fix>3d</fix>
</trkpt>
<trkpt lat="-27.2744386" lon="151.2900639">
  <ele>364.18</ele>
  <time>2026-09-01T19:56:35Z</time>
  <course>10.7</course>
  <speed>0.022360679774997897</speed>
  <fix>3d</fix>
</trkpt>
<trkpt lat="-27.2744383" lon="151.2900638">
  <ele>363.98</ele>
  <time>2026-09-01T19:56:35Z</time>
  <course>52.04</course>
  <speed>0.01</speed>
  <fix>3d</fix>
</trkpt>
<trkpt lat="-27.2744385" lon="151.2900639">
  <ele>364.18</ele>
  <time>2026-09-01T19:56:35Z</time>
  <course>10.7</course>
  <speed>0.022360679774997897</speed>
  <fix>3d</fix>
</trkpt>
<trkpt lat="-27.2744383" lon="151.2900638">
  <ele>363.98</ele>
  <time>2026-09-01T19:56:35Z</time>
  <course>52.04</course>
  <speed>0.01</speed>
  <fix>3d</fix>
</trkpt>
<trkpt lat="-27.2744385" lon="151.2900639">
  <ele>364.18</ele>
  <time>2026-09-01T19:56:35Z</time>
  <course>10.7</course>
  <speed>0.022360679774997897</speed>
  <fix>3d</fix>
</trkpt>
<trkpt lat="-27.2744383" lon="151.2900639">
  <ele>363.98</ele>
  <time>2026-09-01T19:56:35Z</time>
  <course>47.2</course>
  <speed>0.0</speed>
  <fix>3d</fix>
</trkpt>
<trkpt lat="-27.2744385" lon="151.2900639">
  <ele>364.18</ele>
  <time>2026-09-01T19:56:35Z</time>
  <course>10.7</course>
  <speed>0.022360679774997897</speed>
  <fix>3d</fix>
</trkpt>
<trkpt lat="-27.2744383" lon="151.2900639">
  <ele>363.98</ele>
  <time>2026-09-01T19:56:35Z</time>
  <course>47.2</course>
  <speed>0.0</speed>
  <fix>3d</fix>
</trkpt>
<trkpt lat="-27.2744385" lon="151.2900639">
  <ele>364.18</ele>
  <time>2026-09-01T19:56:35Z</time>
  <course>10.7</course>
  <speed>0.022360679774997897</speed>
  <fix>3d</fix>
</trkpt>
<trkpt lat="-27.2744383" lon="151.2900639">
  <ele>363.98</ele>
  <time>2026-09-01T19:56:35Z</time>
  <course>40.83</course>
  <speed>0.0</speed>
  <fix>3d</fix>
</trkpt>
<trkpt lat="-27.2744385" lon="151.2900639">
  <ele>364.18</ele>
  <time>2026-09-01T19:56:35Z</time>
  <course>10.7</course>
  <speed>0.022360679774997897</speed>
  <fix>3d</fix>
</trkpt>
<trkpt lat="-27.2744383" lon="151.2900639">
  <ele>363.98</ele>
  <time>2026-09-01T19:56:35Z</time>
  <course>40.83</course>
  <speed>0.0</speed>
  <fix>3d</fix>
</trkpt>
<trkpt lat="-27.2744385" lon="151.2900639">
  <ele>364.18</ele>
  <time>2026-09-01T19:56:35Z</time>
  <course>10.69</course>
  <speed>0.022360679774997897</speed>
  <fix>3d</fix>
</trkpt>
<trkpt lat="-27.2744383" lon="151.2900639">
  <ele>363.98</ele>
  <time>2026-09-01T19:56:35Z</time>
  <course>33.35</course>
  <speed>0.0</speed>
  <fix>3d</fix>
</trkpt>
<trkpt lat="-27.2744385" lon="151.2900639">
  <ele>364.18</ele>
  <time>2026-09-01T19:56:35Z</time>
  <course>10.69</course>
  <speed>0.022360679774997897</speed>
  <fix>3d</fix>
</trkpt>
<trkpt lat="-27.2744383" lon="151.2900639">
  <ele>363.98</ele>
  <time>2026-09-01T19:56:35Z</time>
  <course>33.35</course>
  <speed>0.0</speed>
  <fix>3d</fix>
</trkpt>
<trkpt lat="-27.2744385" lon="151.2900639">
  <ele>364.18</ele>
  <time>2026-09-01T19:56:35Z</time>
  <course>10.69</course>
  <speed>0.022360679774997897</speed>
  <fix>3d</fix>
</trkpt>
<trkpt lat="-27.2744383" lon="151.2900639">
  <ele>363.98</ele>
  <time>2026-09-01T19:56:35Z</time>
  <course>313.44</course>
  <speed>0.0</speed>
  <fix>3d</fix>
</trkpt>
<trkpt lat="-27.2744385" lon="151.2900639">
  <ele>364.18</ele>
  <time>2026-09-01T19:56:35Z</time>
  <course>10.69</course>
  <speed>0.02</speed>
  <fix>3d</fix>
</trkpt>
<trkpt lat="-27.2744383" lon="151.2900639">
  <ele>363.98</ele>
  <time>2026-09-01T19:56:35Z</time>
  <course>313.44</course>
  <speed>0.0</speed>
  <fix>3d</fix>
</trkpt>
<trkpt lat="-27.2744385" lon="151.2900639">
  <ele>364.18</ele>
  <time>2026-09-01T19:56:35Z</time>
  <course>10.69</course>
  <speed>0.02</speed>
  <fix>3d</fix>
</trkpt>
<trkpt lat="-27.2744383" lon="151.2900639">
  <ele>363.98</ele>
  <time>2026-09-01T19:56:35Z</time>
  <course>244.65</course>
  <speed>0.0</speed>
  <fix>3d</fix>
</trkpt>
<trkpt lat="-27.2744385" lon="151.2900639">
  <ele>364.17</ele>
  <time>2026-09-01T19:56:35Z</time>
  <course>10.68</course>
  <speed>0.02</speed>
  <fix>3d</fix>
</trkpt>
<trkpt lat="-27.2744383" lon="151.2900639">
  <ele>363.98</ele>
  <time>2026-09-01T19:56:35Z</time>
  <course>244.65</course>
  <speed>0.0</speed>
  <fix>3d</fix>
</trkpt>
<trkpt lat="-27.2744385" lon="151.2900639">
  <ele>364.17</ele>
  <time>2026-09-01T19:56:35Z</time>
  <course>10.68</course>
  <speed>0.02</speed>
  <fix>3d</fix>
</trkpt>
<trkpt lat="-27.2744383" lon="151.2900639">
  <ele>363.98</ele>
  <time>2026-09-01T19:56:35Z</time>
  <course>241.15</course>
  <speed>0.0</speed>
  <fix>3d</fix>
</trkpt>
<trkpt lat="-27.2744385" lon="151.2900639">
  <ele>364.17</ele>
  <time>2026-09-01T19:56:35Z</time>
  <course>10.68</course>
  <speed>0.02</speed>
  <fix>3d</fix>
</trkpt>
<trkpt lat="-27.2744383" lon="151.2900639">
  <ele>363.98</ele>
  <time>2026-09-01T19:56:35Z</time>
  <course>241.15</course>
  <speed>0.0</speed>
  <fix>3d</fix>
</trkpt>
<trkpt lat="-27.2744385" lon="151.2900639">
  <ele>364.17</ele>
  <time>2026-09-01T19:56:35Z</time>
  <course>10.69</course>
  <speed>0.03</speed>
  <fix>3d</fix>
</trkpt>
<trkpt lat="-27.2744383" lon="151.2900639">
  <ele>363.98</ele>
  <time>2026-09-01T19:56:35Z</time>
  <course>239.0</course>
  <speed>0.0</speed>
  <fix>3d</fix>
</trkpt>
<trkpt lat="-27.2744385" lon="151.2900639">
  <ele>364.17</ele>
  <time>2026-09-01T19:56:35Z</time>
  <course>10.69</course>
  <speed>0.03</speed>
  <fix>3d</fix>
</trkpt>
<trkpt lat="-27.2744383" lon="151.2900639">
  <ele>363.98</ele>
  <time>2026-09-01T19:56:35Z</time>
  <course>239.0</course>
  <speed>0.0</speed>
  <fix>3d</fix>
</trkpt>
<trkpt lat="-27.2744385" lon="151.2900639">
  <ele>364.18</ele>
  <time>2026-09-01T19:56:35Z</time>
  <course>10.69</course>
  <speed>0.03</speed>
  <fix>3d</fix>
</trkpt>
<trkpt lat="-27.2744383" lon="151.2900639">
  <ele>363.98</ele>
  <time>2026-09-01T19:56:35Z</time>
  <course>236.94</course>
  <speed>0.01</speed>
  <fix>3d</fix>
</trkpt>
<trkpt lat="-27.2744385" lon="151.2900639">
  <ele>364.18</ele>
  <time>2026-09-01T19:56:35Z</time>
  <course>10.69</course>
  <speed>0.03</speed>
  <fix>3d</fix>
</trkpt>
<trkpt lat="-27.2744383" lon="151.2900639">
  <ele>363.98</ele>
  <time>2026-09-01T19:56:35Z</time>
  <course>236.94</course>
  <speed>0.01</speed>
  <fix>3d</fix>
</trkpt>
<trkpt lat="-27.2744385" lon="151.2900639">
  <ele>364.18</ele>
  <time>2026-09-01T19:56:35Z</time>
  <course>10.69</course>
  <speed>0.03</speed>
  <fix>3d</fix>
</trkpt>
<trkpt lat="-27.2744383" lon="151.2900639">
  <ele>363.98</ele>
  <time>2026-09-01T19:56:35Z</time>
  <course>236.11</course>
  <speed>0.01</speed>
  <fix>3d</fix>
</trkpt>
<trkpt lat="-27.2744385" lon="151.2900639">
  <ele>364.18</ele>
  <time>2026-09-01T19:56:35Z</time>
  <course>10.69</course>
  <speed>0.03</speed>
  <fix>3d</fix>
</trkpt>
<trkpt lat="-27.2744383" lon="151.2900639">
  <ele>363.98</ele>
  <time>2026-09-01T19:56:35Z</time>
  <course>236.11</course>
  <speed>0.01</speed>
  <fix>3d</fix>
</trkpt>
<trkpt lat="-27.2744385" lon="151.2900639">
  <ele>364.18</ele>
  <time>2026-09-01T19:56:35Z</time>
  <course>10.7</course>
  <speed>0.03</speed>
  <fix>3d</fix>
</trkpt>
<trkpt lat="-27.2744383" lon="151.2900639">
  <ele>363.98</ele>
  <time>2026-09-01T19:56:35Z</time>
  <course>236.63</course>
  <speed>0.01</speed>
  <fix>3d</fix>
</trkpt>
<trkpt lat="-27.2744385" lon="151.2900639">
  <ele>364.18</ele>
  <time>2026-09-01T19:56:35Z</time>
  <course>10.7</course>
  <speed>0.03</speed>
  <fix>3d</fix>
</trkpt>
<trkpt lat="-27.2744383" lon="151.2900639">
  <ele>363.98</ele>
  <time>2026-09-01T19:56:35Z</time>
  <course>236.63</course>
  <speed>0.01</speed>
  <fix>3d</fix>
</trkpt>
<trkpt lat="-27.2744385" lon="151.2900639">
  <ele>364.18</ele>
  <time>2026-09-01T19:56:35Z</time>
  <course>10.7</course>
  <speed>0.03</speed>
  <fix>3d</fix>
</trkpt>
<trkpt lat="-27.2744383" lon="151.2900639">
  <ele>363.98</ele>
  <time>2026-09-01T19:56:35Z</time>
  <course>237.79</course>
  <speed>0.01</speed>
  <fix>3d</fix>
</trkpt>
<trkpt lat="-27.2744385" lon="151.2900639">
  <ele>364.18</ele>
  <time>2026-09-01T19:56:35Z</time>
  <course>10.7</course>
  <speed>0.03</speed>
  <fix>3d</fix>
</trkpt>
<trkpt lat="-27.2744383" lon="151.2900639">
  <ele>363.98</ele>
  <time>2026-09-01T19:56:35Z</time>
  <course>237.79</course>
  <speed>0.01</speed>
  <fix>3d</fix>
</trkpt>
<trkpt lat="-27.2744385" lon="151.2900639">
  <ele>364.18</ele>
  <time>2026-09-01T19:56:35Z</time>
  <course>10.7</course>
  <speed>0.03</speed>
  <fix>3d</fix>
</trkpt>
<trkpt lat="-27.2744383" lon="151.2900638">
  <ele>363.98</ele>
  <time>2026-09-01T19:56:35Z</time>
  <course>240.35</course>
  <speed>0.01</speed>
  <fix>3d</fix>
</trkpt>
<trkpt lat="-27.2744385" lon="151.2900639">
  <ele>364.18</ele>
  <time>2026-09-01T19:56:35Z</time>
  <course>10.7</course>
  <speed>0.02</speed>
  <fix>3d</fix>
</trkpt>
<trkpt lat="-27.2744383" lon="151.2900638">
  <ele>363.98</ele>
  <time>2026-09-01T19:56:35Z</time>
  <course>240.35</course>
  <speed>0.01</speed>
  <fix>3d</fix>
</trkpt>
<trkpt lat="-27.2744385" lon="151.2900639">
  <ele>364.19</ele>
  <time>2026-09-01T19:56:35Z</time>
  <course>10.7</course>
  <speed>0.02</speed>
  <fix>3d</fix>
</trkpt>
<trkpt lat="-27.2744383" lon="151.2900637">
  <ele>363.98</ele>
  <time>2026-09-01T19:56:35Z</time>
  <course>244.87</course>
  <speed>0.01</speed>
  <fix>3d</fix>
</trkpt>
<trkpt lat="-27.2744385" lon="151.2900639">
  <ele>364.19</ele>
  <time>2026-09-01T19:56:35Z</time>
  <course>10.7</course>
  <speed>0.02</speed>
  <fix>3d</fix>
</trkpt>
<trkpt lat="-27.2744383" lon="151.2900637">
  <ele>363.98</ele>
  <time>2026-09-01T19:56:35Z</time>
  <course>244.87</course>
  <speed>0.01</speed>
  <fix>3d</fix>
</trkpt>
<trkpt lat="-27.2744385" lon="151.2900639">
  <ele>364.19</ele>
  <time>2026-09-01T19:56:35Z</time>
  <course>10.7</course>
  <speed>0.02</speed>
  <fix>3d</fix>
</trkpt>
<trkpt lat="-27.2744383" lon="151.2900637">
  <ele>363.98</ele>
  <time>2026-09-01T19:56:35Z</time>
  <course>250.91</course>
  <speed>0.01</speed>
  <fix>3d</fix>
</trkpt>
<trkpt lat="-27.2744385" lon="151.2900639">
  <ele>364.19</ele>
  <time>2026-09-01T19:56:35Z</time>
  <course>10.7</course>
  <speed>0.02</speed>
  <fix>3d</fix>
</trkpt>
<trkpt lat="-27.2744383" lon="151.2900637">
  <ele>363.98</ele>
  <time>2026-09-01T19:56:35Z</time>
  <course>250.91</course>
  <speed>0.01</speed>
  <fix>3d</fix>
</trkpt>
<trkpt lat="-27.2744385" lon="151.2900638">
  <ele>364.19</ele>
  <time>2026-09-01T19:56:35Z</time>
  <course>10.7</course>
  <speed>0.02</speed>
  <fix>3d</fix>
</trkpt>
<trkpt lat="-27.2744383" lon="151.2900637">
  <ele>363.98</ele>
  <time>2026-09-01T19:56:35Z</time>
  <course>255.68</course>
  <speed>0.01</speed>
  <fix>3d</fix>
</trkpt>
<trkpt lat="-27.2744385" lon="151.2900638">
  <ele>364.19</ele>
  <time>2026-09-01T19:56:35Z</time>
  <course>10.7</course>
  <speed>0.02</speed>
  <fix>3d</fix>
</trkpt>
<trkpt lat="-27.2744383" lon="151.2900637">
  <ele>363.98</ele>
  <time>2026-09-01T19:56:35Z</time>
  <course>255.68</course>
  <speed>0.01</speed>
  <fix>3d</fix>
</trkpt>
<trkpt lat="-27.2744385" lon="151.2900638">
  <ele>364.18</ele>
  <time>2026-09-01T19:56:35Z</time>
  <course>10.7</course>
  <speed>0.02</speed>
  <fix>3d</fix>
</trkpt>
<trkpt lat="-27.2744383" lon="151.2900637">
  <ele>363.98</ele>
  <time>2026-09-01T19:56:35Z</time>
  <course>256.08</course>
  <speed>0.01</speed>
  <fix>3d</fix>
</trkpt>
<trkpt lat="-27.2744385" lon="151.2900638">
  <ele>364.18</ele>
  <time>2026-09-01T19:56:35Z</time>
  <course>10.7</course>
  <speed>0.02</speed>
  <fix>3d</fix>
</trkpt>
<trkpt lat="-27.2744383" lon="151.2900637">
  <ele>363.98</ele>
  <time>2026-09-01T19:56:35Z</time>
  <course>256.08</course>
  <speed>0.01</speed>
  <fix>3d</fix>
</trkpt>
<trkpt lat="-27.2744385" lon="151.2900638">
  <ele>364.18</ele>
  <time>2026-09-01T19:56:35Z</time>
  <course>10.7</course>
  <speed>0.02</speed>
  <fix>3d</fix>
</trkpt>
<trkpt lat="-27.2744383" lon="151.2900636">
  <ele>363.98</ele>
  <time>2026-09-01T19:56:35Z</time>
  <course>251.13</course>
  <speed>0.01</speed>
  <fix>3d</fix>
</trkpt>
<trkpt lat="-27.2744385" lon="151.2900638">
  <ele>364.18</ele>
  <time>2026-09-01T19:56:35Z</time>
  <course>10.69</course>
  <speed>0.03</speed>
  <fix>3d</fix>
</trkpt>
<trkpt lat="-27.2744383" lon="151.2900636">
  <ele>363.98</ele>
  <time>2026-09-01T19:56:35Z</time>
  <course>251.13</course>
  <speed>0.01</speed>
  <fix>3d</fix>
</trkpt>
<trkpt lat="-27.2744385" lon="151.2900638">
  <ele>364.18</ele>
  <time>2026-09-01T19:56:35Z</time>
  <course>10.69</course>
  <speed>0.03</speed>
  <fix>3d</fix>
</trkpt>
<trkpt lat="-27.2744383" lon="151.2900636">
  <ele>363.98</ele>
  <time>2026-09-01T19:56:35Z</time>
  <course>241.98</course>
  <speed>0.01</speed>
  <fix>3d</fix>
</trkpt>
<trkpt lat="-27.2744385" lon="151.2900637">
  <ele>364.18</ele>
  <time>2026-09-01T19:56:35Z</time>
  <course>10.69</course>
  <speed>0.03</speed>
  <fix>3d</fix>
</trkpt>
<trkpt lat="-27.2744383" lon="151.2900636">
  <ele>363.98</ele>
  <time>2026-09-01T19:56:35Z</time>
  <course>241.98</course>
  <speed>0.01</speed>
  <fix>3d</fix>
</trkpt>
<trkpt lat="-27.2744385" lon="151.2900637">
  <ele>364.18</ele>
  <time>2026-09-01T19:56:35Z</time>
  <course>10.69</course>
  <speed>0.03</speed>
  <fix>3d</fix>
</trkpt>
<trkpt lat="-27.2744383" lon="151.2900636">
  <ele>363.98</ele>
  <time>2026-09-01T19:56:35Z</time>
  <course>233.73</course>
  <speed>0.01</speed>
  <fix>3d</fix>
</trkpt>
<trkpt lat="-27.2744385" lon="151.2900637">
  <ele>364.18</ele>
  <time>2026-09-01T19:56:35Z</time>
  <course>10.69</course>
  <speed>0.03</speed>
  <fix>3d</fix>
</trkpt>
<trkpt lat="-27.2744383" lon="151.2900636">
  <ele>363.98</ele>
  <time>2026-09-01T19:56:35Z</time>
  <course>233.73</course>
  <speed>0.01</speed>
  <fix>3d</fix>
</trkpt>
<trkpt lat="-27.2744385" lon="151.2900637">
  <ele>364.18</ele>
  <time>2026-09-01T19:56:35Z</time>
  <course>10.68</course>
  <speed>0.03</speed>
  <fix>3d</fix>
</trkpt>
<trkpt lat="-27.2744383" lon="151.2900636">
  <ele>363.97</ele>
  <time>2026-09-01T19:56:35Z</time>
  <course>229.02</course>
  <speed>0.01</speed>
  <fix>3d</fix>
</trkpt>
<trkpt lat="-27.2744385" lon="151.2900637">
  <ele>364.18</ele>
  <time>2026-09-01T19:56:35Z</time>
  <course>10.68</course>
  <speed>0.03</speed>
  <fix>3d</fix>
</trkpt>
<trkpt lat="-27.2744383" lon="151.2900636">
  <ele>363.97</ele>
  <time>2026-09-01T19:56:35Z</time>
  <course>229.02</course>
  <speed>0.01</speed>
  <fix>3d</fix>
</trkpt>
<trkpt lat="-27.2744385" lon="151.2900637">
  <ele>364.17</ele>
  <time>2026-09-01T19:56:35Z</time>
  <course>10.68</course>
  <speed>0.03</speed>
  <fix>3d</fix>
</trkpt>
<trkpt lat="-27.2744384" lon="151.2900635">
  <ele>363.97</ele>
  <time>2026-09-01T19:56:35Z</time>
  <course>224.93</course>
  <speed>0.01</speed>
  <fix>3d</fix>
</trkpt>
<trkpt lat="-27.2744385" lon="151.2900637">
  <ele>364.17</ele>
  <time>2026-09-01T19:56:35Z</time>
  <course>10.68</course>
  <speed>0.03</speed>
  <fix>3d</fix>
</trkpt>
<trkpt lat="-27.2744384" lon="151.2900635">
  <ele>363.97</ele>
  <time>2026-09-01T19:56:35Z</time>
  <course>224.93</course>
  <speed>0.01</speed>
  <fix>3d</fix>
</trkpt>
<trkpt lat="-27.2744386" lon="151.2900637">
  <ele>364.17</ele>
  <time>2026-09-01T19:56:35Z</time>
  <course>10.68</course>
  <speed>0.0316227766016838</speed>
  <fix>3d</fix>
</trkpt>
<trkpt lat="-27.2744384" lon="151.2900635">
  <ele>363.97</ele>
  <time>2026-09-01T19:56:35Z</time>
  <course>218.41</course>
  <speed>0.01</speed>
  <fix>3d</fix>
</trkpt>
<trkpt lat="-27.2744386" lon="151.2900637">
  <ele>364.16</ele>
  <time>2026-09-01T19:56:35Z</time>
  <course>10.67</course>
  <speed>0.0316227766016838</speed>
  <fix>3d</fix>
</trkpt>
<trkpt lat="-27.2744384" lon="151.2900635">
  <ele>363.97</ele>
  <time>2026-09-01T19:56:35Z</time>
  <course>218.41</course>
  <speed>0.01</speed>
  <fix>3d</fix>
</trkpt>
<trkpt lat="-27.2744386" lon="151.2900637">
  <ele>364.16</ele>
  <time>2026-09-01T19:56:35Z</time>
  <course>10.67</course>
  <speed>0.0316227766016838</speed>
  <fix>3d</fix>
</trkpt>
<trkpt lat="-27.2744384" lon="151.2900635">
  <ele>363.97</ele>
  <time>2026-09-01T19:56:35Z</time>
  <course>211.23</course>
  <speed>0.01</speed>
  <fix>3d</fix>
</trkpt>
<trkpt lat="-27.2744386" lon="151.2900637">
  <ele>364.16</ele>
  <time>2026-09-01T19:56:35Z</time>
  <course>10.67</course>
  <speed>0.0316227766016838</speed>
  <fix>3d</fix>
</trkpt>
<trkpt lat="-27.2744384" lon="151.2900635">
  <ele>363.97</ele>
  <time>2026-09-01T19:56:35Z</time>
  <course>211.23</course>
  <speed>0.01</speed>
  <fix>3d</fix>
</trkpt>
<trkpt lat="-27.2744386" lon="151.2900637">
  <ele>364.17</ele>
  <time>2026-09-01T19:56:35Z</time>
  <course>10.67</course>
  <speed>0.0316227766016838</speed>
  <fix>3d</fix>
</trkpt>
<trkpt lat="-27.2744384" lon="151.2900635">
  <ele>363.97</ele>
  <time>2026-09-01T19:56:35Z</time>
  <course>207.5</course>
  <speed>0.01</speed>
  <fix>3d</fix>
</trkpt>
<trkpt lat="-27.2744386" lon="151.2900637">
  <ele>364.17</ele>
  <time>2026-09-01T19:56:35Z</time>
  <course>10.67</course>
  <speed>0.0316227766016838</speed>
  <fix>3d</fix>
</trkpt>
<trkpt lat="-27.2744384" lon="151.2900635">
  <ele>363.97</ele>
  <time>2026-09-01T19:56:35Z</time>
  <course>207.5</course>
  <speed>0.01</speed>
  <fix>3d</fix>
</trkpt>
<trkpt lat="-27.2744386" lon="151.2900637">
  <ele>364.17</ele>
  <time>2026-09-01T19:56:35Z</time>
  <course>10.67</course>
  <speed>0.0316227766016838</speed>
  <fix>3d</fix>
</trkpt>
<trkpt lat="-27.2744385" lon="151.2900635">
  <ele>363.97</ele>
  <time>2026-09-01T19:56:35Z</time>
  <course>206.63</course>
  <speed>0.01</speed>
  <fix>3d</fix>
</trkpt>
<trkpt lat="-27.2744386" lon="151.2900637">
  <ele>364.18</ele>
  <time>2026-09-01T19:56:35Z</time>
  <course>10.68</course>
  <speed>0.0316227766016838</speed>
  <fix>3d</fix>
</trkpt>
<trkpt lat="-27.2744385" lon="151.2900635">
  <ele>363.97</ele>
  <time>2026-09-01T19:56:35Z</time>
  <course>206.63</course>
  <speed>0.01</speed>
  <fix>3d</fix>
</trkpt>
<trkpt lat="-27.2744386" lon="151.2900636">
  <ele>364.18</ele>
  <time>2026-09-01T19:56:35Z</time>
  <course>10.68</course>
  <speed>0.022360679774997897</speed>
  <fix>3d</fix>
</trkpt>
<trkpt lat="-27.2744385" lon="151.2900635">
  <ele>363.98</ele>
  <time>2026-09-01T19:56:35Z</time>
  <course>204.58</course>
  <speed>0.01</speed>
  <fix>3d</fix>
</trkpt>
<trkpt lat="-27.2744386" lon="151.2900636">
  <ele>364.18</ele>
  <time>2026-09-01T19:56:35Z</time>
  <course>10.68</course>
  <speed>0.022360679774997897</speed>
  <fix>3d</fix>
</trkpt>
<trkpt lat="-27.2744385" lon="151.2900635">
  <ele>363.98</ele>
  <time>2026-09-01T19:56:35Z</time>
  <course>204.58</course>
  <speed>0.01</speed>
  <fix>3d</fix>
</trkpt>
<trkpt lat="-27.2744386" lon="151.2900636">
  <ele>364.18</ele>
  <time>2026-09-01T19:56:35Z</time>
  <course>10.68</course>
  <speed>0.022360679774997897</speed>
  <fix>3d</fix>
</trkpt>
<trkpt lat="-27.2744385" lon="151.2900635">
  <ele>363.98</ele>
  <time>2026-09-01T19:56:35Z</time>
  <course>199.38</course>
  <speed>0.01</speed>
  <fix>3d</fix>
</trkpt>
<trkpt lat="-27.2744386" lon="151.2900636">
  <ele>364.18</ele>
  <time>2026-09-01T19:56:35Z</time>
  <course>10.68</course>
  <speed>0.022360679774997897</speed>
  <fix>3d</fix>
</trkpt>
<trkpt lat="-27.2744385" lon="151.2900635">
  <ele>363.98</ele>
  <time>2026-09-01T19:56:35Z</time>
  <course>199.38</course>
  <speed>0.01</speed>
  <fix>3d</fix>
</trkpt>
<trkpt lat="-27.2744386" lon="151.2900636">
  <ele>364.18</ele>
  <time>2026-09-01T19:56:35Z</time>
  <course>10.68</course>
  <speed>0.022360679774997897</speed>
  <fix>3d</fix>
</trkpt>
<trkpt lat="-27.2744385" lon="151.2900635">
  <ele>363.98</ele>
  <time>2026-09-01T19:56:35Z</time>
  <course>192.85</course>
  <speed>0.0</speed>
  <fix>3d</fix>
</trkpt>
<trkpt lat="-27.2744387" lon="151.2900636">
  <ele>364.18</ele>
  <time>2026-09-01T19:56:35Z</time>
  <course>10.68</course>
  <speed>0.022360679774997897</speed>
  <fix>3d</fix>
</trkpt>
<trkpt lat="-27.2744385" lon="151.2900635">
  <ele>363.98</ele>
  <time>2026-09-01T19:56:35Z</time>
  <course>192.85</course>
  <speed>0.0</speed>
  <fix>3d</fix>
</trkpt>
<trkpt lat="-27.2744387" lon="151.2900636">
  <ele>364.18</ele>
  <time>2026-09-01T19:56:35Z</time>
  <course>10.68</course>
  <speed>0.022360679774997897</speed>
  <fix>3d</fix>
</trkpt>
<trkpt lat="-27.2744385" lon="151.2900635">
  <ele>363.99</ele>
  <time>2026-09-01T19:56:35Z</time>
  <course>187.42</course>
  <speed>0.0</speed>
  <fix>3d</fix>
</trkpt>
<trkpt lat="-27.2744387" lon="151.2900636">
  <ele>364.18</ele>
  <time>2026-09-01T19:56:35Z</time>
  <course>10.68</course>
  <speed>0.022360679774997897</speed>
  <fix>3d</fix>
</trkpt>
<trkpt lat="-27.2744385" lon="151.2900635">
  <ele>363.99</ele>
  <time>2026-09-01T19:56:35Z</time>
  <course>187.42</course>
  <speed>0.0</speed>
  <fix>3d</fix>
</trkpt>
<trkpt lat="-27.2744387" lon="151.2900636">
  <ele>364.18</ele>
  <time>2026-09-01T19:56:35Z</time>
  <course>10.68</course>
  <speed>0.022360679774997897</speed>
  <fix>3d</fix>
</trkpt>
<trkpt lat="-27.2744385" lon="151.2900635">
  <ele>363.99</ele>
  <time>2026-09-01T19:56:35Z</time>
  <course>184.81</course>
  <speed>0.0</speed>
  <fix>3d</fix>
</trkpt>
<trkpt lat="-27.2744387" lon="151.2900636">
  <ele>364.18</ele>
  <time>2026-09-01T19:56:35Z</time>
  <course>10.68</course>
  <speed>0.022360679774997897</speed>
  <fix>3d</fix>
</trkpt>
<trkpt lat="-27.2744385" lon="151.2900635">
  <ele>363.99</ele>
  <time>2026-09-01T19:56:35Z</time>
  <course>184.81</course>
  <speed>0.0</speed>
  <fix>3d</fix>
</trkpt>
<trkpt lat="-27.2744387" lon="151.2900636">
  <ele>364.18</ele>
  <time>2026-09-01T19:56:35Z</time>
  <course>10.68</course>
  <speed>0.022360679774997897</speed>
  <fix>3d</fix>
</trkpt>
<trkpt lat="-27.2744385" lon="151.2900635">
  <ele>363.99</ele>
  <time>2026-09-01T19:56:35Z</time>
  <course>171.56</course>
  <speed>0.0</speed>
  <fix>3d</fix>
</trkpt>
<trkpt lat="-27.2744387" lon="151.2900636">
  <ele>364.18</ele>
  <time>2026-09-01T19:56:35Z</time>
  <course>10.68</course>
  <speed>0.022360679774997897</speed>
  <fix>3d</fix>
</trkpt>
<trkpt lat="-27.2744385" lon="151.2900635">
  <ele>363.99</ele>
  <time>2026-09-01T19:56:35Z</time>
  <course>171.56</course>
  <speed>0.0</speed>
  <fix>3d</fix>
</trkpt>
<trkpt lat="-27.2744387" lon="151.2900636">
  <ele>364.18</ele>
  <time>2026-09-01T19:56:35Z</time>
  <course>10.68</course>
  <speed>0.0282842712474619</speed>
  <fix>3d</fix>
</trkpt>
<trkpt lat="-27.2744385" lon="151.2900635">
  <ele>363.99</ele>
  <time>2026-09-01T19:56:35Z</time>
  <course>116.21</course>
  <speed>0.0</speed>
  <fix>3d</fix>
</trkpt>
<trkpt lat="-27.2744387" lon="151.2900636">
  <ele>364.18</ele>
  <time>2026-09-01T19:56:35Z</time>
  <course>10.68</course>
  <speed>0.0282842712474619</speed>
  <fix>3d</fix>
</trkpt>
<trkpt lat="-27.2744385" lon="151.2900635">
  <ele>363.99</ele>
  <time>2026-09-01T19:56:35Z</time>
  <course>116.21</course>
  <speed>0.0</speed>
  <fix>3d</fix>
</trkpt>
<trkpt lat="-27.2744386" lon="151.2900636">
  <ele>364.18</ele>
  <time>2026-09-01T19:56:35Z</time>
  <course>10.68</course>
  <speed>0.0282842712474619</speed>
  <fix>3d</fix>
</trkpt>
<trkpt lat="-27.2744385" lon="151.2900635">
  <ele>363.98</ele>
  <time>2026-09-01T19:56:35Z</time>
  <course>87.76</course>
  <speed>0.0</speed>
  <fix>3d</fix>
</trkpt>
<trkpt lat="-27.2744386" lon="151.2900636">
  <ele>364.19</ele>
  <time>2026-09-01T19:56:35Z</time>
  <course>10.68</course>
  <speed>0.022360679774997897</speed>
  <fix>3d</fix>
</trkpt>
<trkpt lat="-27.2744385" lon="151.2900635">
  <ele>363.98</ele>
  <time>2026-09-01T19:56:35Z</time>
  <course>87.76</course>
  <speed>0.0</speed>
  <fix>3d</fix>
</trkpt>
<trkpt lat="-27.2744386" lon="151.2900636">
  <ele>364.19</ele>
  <time>2026-09-01T19:56:35Z</time>
  <course>10.68</course>
  <speed>0.022360679774997897</speed>
  <fix>3d</fix>
</trkpt>
<trkpt lat="-27.2744385" lon="151.2900635">
  <ele>363.98</ele>
  <time>2026-09-01T19:56:35Z</time>
  <course>76.79</course>
  <speed>0.0</speed>
  <fix>3d</fix>
</trkpt>
<trkpt lat="-27.2744386" lon="151.2900636">
  <ele>364.19</ele>
  <time>2026-09-01T19:56:35Z</time>
  <course>10.68</course>
  <speed>0.022360679774997897</speed>
  <fix>3d</fix>
</trkpt>
<trkpt lat="-27.2744385" lon="151.2900635">
  <ele>363.98</ele>
  <time>2026-09-01T19:56:35Z</time>
  <course>76.79</course>
  <speed>0.0</speed>
  <fix>3d</fix>
</trkpt>
<trkpt lat="-27.2744386" lon="151.2900636">
  <ele>364.19</ele>
  <time>2026-09-01T19:56:35Z</time>
  <course>10.68</course>
  <speed>0.022360679774997897</speed>
  <fix>3d</fix>
</trkpt>
<trkpt lat="-27.2744385" lon="151.2900635">
  <ele>363.98</ele>
  <time>2026-09-01T19:56:35Z</time>
  <course>69.92</course>
  <speed>0.0</speed>
  <fix>3d</fix>
</trkpt>
<trkpt lat="-27.2744386" lon="151.2900636">
  <ele>364.19</ele>
  <time>2026-09-01T19:56:35Z</time>
  <course>10.68</course>
  <speed>0.022360679774997897</speed>
  <fix>3d</fix>
</trkpt>
<trkpt lat="-27.2744385" lon="151.2900635">
  <ele>363.98</ele>
  <time>2026-09-01T19:56:35Z</time>
  <course>69.92</course>
  <speed>0.0</speed>
  <fix>3d</fix>
</trkpt>
<trkpt lat="-27.2744386" lon="151.2900636">
  <ele>364.19</ele>
  <time>2026-09-01T19:56:35Z</time>
  <course>10.68</course>
  <speed>0.022360679774997897</speed>
  <fix>3d</fix>
</trkpt>
<trkpt lat="-27.2744385" lon="151.2900635">
  <ele>363.98</ele>
  <time>2026-09-01T19:56:35Z</time>
  <course>60.8</course>
  <speed>0.0</speed>
  <fix>3d</fix>
</trkpt>
<trkpt lat="-27.2744386" lon="151.2900636">
  <ele>364.19</ele>
  <time>2026-09-01T19:56:35Z</time>
  <course>10.68</course>
  <speed>0.022360679774997897</speed>
  <fix>3d</fix>
</trkpt>
<trkpt lat="-27.2744385" lon="151.2900635">
  <ele>363.98</ele>
  <time>2026-09-01T19:56:35Z</time>
  <course>60.8</course>
  <speed>0.0</speed>
  <fix>3d</fix>
</trkpt>
<trkpt lat="-27.2744386" lon="151.2900636">
  <ele>364.18</ele>
  <time>2026-09-01T19:56:35Z</time>
  <course>10.68</course>
  <speed>0.01414213562373095</speed>
  <fix>3d</fix>
</trkpt>
<trkpt lat="-27.2744385" lon="151.2900635">
  <ele>363.98</ele>
  <time>2026-09-01T19:56:35Z</time>
  <course>46.29</course>
  <speed>0.0</speed>
  <fix>3d</fix>
</trkpt>
<trkpt lat="-27.2744386" lon="151.2900636">
  <ele>364.18</ele>
  <time>2026-09-01T19:56:35Z</time>
  <course>10.68</course>
  <speed>0.01414213562373095</speed>
  <fix>3d</fix>
</trkpt>
<trkpt lat="-27.2744385" lon="151.2900635">
  <ele>363.98</ele>
  <time>2026-09-01T19:56:35Z</time>
  <course>46.29</course>
  <speed>0.0</speed>
  <fix>3d</fix>
</trkpt>
<trkpt lat="-27.2744386" lon="151.2900636">
  <ele>364.18</ele>
  <time>2026-09-01T19:56:35Z</time>
  <course>10.68</course>
  <speed>0.01414213562373095</speed>
  <fix>3d</fix>
</trkpt>
<trkpt lat="-27.2744385" lon="151.2900635">
  <ele>363.98</ele>
  <time>2026-09-01T19:56:35Z</time>
  <course>33.88</course>
  <speed>0.0</speed>
  <fix>3d</fix>
</trkpt>
<trkpt lat="-27.2744386" lon="151.2900636">
  <ele>364.18</ele>
  <time>2026-09-01T19:56:35Z</time>
  <course>10.68</course>
  <speed>0.01414213562373095</speed>
  <fix>3d</fix>
</trkpt>
<trkpt lat="-27.2744385" lon="151.2900635">
  <ele>363.98</ele>
  <time>2026-09-01T19:56:35Z</time>
  <course>33.88</course>
  <speed>0.0</speed>
  <fix>3d</fix>
</trkpt>
<trkpt lat="-27.2744386" lon="151.2900636">
  <ele>364.17</ele>
  <time>2026-09-01T19:56:35Z</time>
  <course>10.68</course>
  <speed>0.022360679774997897</speed>
  <fix>3d</fix>
</trkpt>
<trkpt lat="-27.2744385" lon="151.2900635">
  <ele>363.97</ele>
  <time>2026-09-01T19:56:35Z</time>
  <course>30.82</course>
  <speed>0.0</speed>
  <fix>3d</fix>
</trkpt>
<trkpt lat="-27.2744386" lon="151.2900636">
  <ele>364.17</ele>
  <time>2026-09-01T19:56:35Z</time>
  <course>10.68</course>
  <speed>0.022360679774997897</speed>
  <fix>3d</fix>
</trkpt>
<trkpt lat="-27.2744385" lon="151.2900635">
  <ele>363.97</ele>
  <time>2026-09-01T19:56:35Z</time>
  <course>30.82</course>
  <speed>0.0</speed>
  <fix>3d</fix>
</trkpt>
<trkpt lat="-27.2744386" lon="151.2900636">
  <ele>364.17</ele>
  <time>2026-09-01T19:56:35Z</time>
  <course>10.69</course>
  <speed>0.022360679774997897</speed>
  <fix>3d</fix>
</trkpt>
<trkpt lat="-27.2744385" lon="151.2900635">
  <ele>363.97</ele>
  <time>2026-09-01T19:56:35Z</time>
  <course>33.76</course>
  <speed>0.0</speed>
  <fix>3d</fix>
</trkpt>
<trkpt lat="-27.2744386" lon="151.2900636">
  <ele>364.17</ele>
  <time>2026-09-01T19:56:35Z</time>
  <course>10.69</course>
  <speed>0.022360679774997897</speed>
  <fix>3d</fix>
</trkpt>
<trkpt lat="-27.2744385" lon="151.2900635">
  <ele>363.97</ele>
  <time>2026-09-01T19:56:35Z</time>
  <course>33.76</course>
  <speed>0.0</speed>
  <fix>3d</fix>
</trkpt>
<trkpt lat="-27.2744386" lon="151.2900636">
  <ele>364.16</ele>
  <time>2026-09-01T19:56:35Z</time>
  <course>10.69</course>
  <speed>0.022360679774997897</speed>
  <fix>3d</fix>
</trkpt>
<trkpt lat="-27.2744385" lon="151.2900635">
  <ele>363.97</ele>
  <time>2026-09-01T19:56:35Z</time>
  <course>38.62</course>
  <speed>0.0</speed>
  <fix>3d</fix>
</trkpt>
<trkpt lat="-27.2744386" lon="151.2900636">
  <ele>364.16</ele>
  <time>2026-09-01T19:56:35Z</time>
  <course>10.69</course>
  <speed>0.022360679774997897</speed>
  <fix>3d</fix>
</trkpt>
<trkpt lat="-27.2744385" lon="151.2900635">
  <ele>363.97</ele>
  <time>2026-09-01T19:56:35Z</time>
  <course>38.62</course>
  <speed>0.0</speed>
  <fix>3d</fix>
</trkpt>
<trkpt lat="-27.2744386" lon="151.2900636">
  <ele>364.16</ele>
  <time>2026-09-01T19:56:35Z</time>
  <course>10.69</course>
  <speed>0.022360679774997897</speed>
  <fix>3d</fix>
</trkpt>
<trkpt lat="-27.2744385" lon="151.2900635">
  <ele>363.97</ele>
  <time>2026-09-01T19:56:35Z</time>
  <course>47.38</course>
  <speed>0.0</speed>
  <fix>3d</fix>
</trkpt>
<trkpt lat="-27.2744386" lon="151.2900637">
  <ele>364.16</ele>
  <time>2026-09-01T19:56:35Z</time>
  <course>10.69</course>
  <speed>0.0282842712474619</speed>
  <fix>3d</fix>
</trkpt>
<trkpt lat="-27.2744385" lon="151.2900635">
  <ele>363.97</ele>
  <time>2026-09-01T19:56:35Z</time>
  <course>47.38</course>
  <speed>0.0</speed>
  <fix>3d</fix>
</trkpt>
<trkpt lat="-27.2744386" lon="151.2900637">
  <ele>364.16</ele>
  <time>2026-09-01T19:56:35Z</time>
  <course>10.69</course>
  <speed>0.0282842712474619</speed>
  <fix>3d</fix>
</trkpt>
<trkpt lat="-27.2744385" lon="151.2900635">
  <ele>363.98</ele>
  <time>2026-09-01T19:56:35Z</time>
  <course>59.23</course>
  <speed>0.0</speed>
  <fix>3d</fix>
</trkpt>
<trkpt lat="-27.2744386" lon="151.2900637">
  <ele>364.16</ele>
  <time>2026-09-01T19:56:35Z</time>
  <course>10.69</course>
  <speed>0.0282842712474619</speed>
  <fix>3d</fix>
</trkpt>
<trkpt lat="-27.2744385" lon="151.2900635">
  <ele>363.98</ele>
  <time>2026-09-01T19:56:35Z</time>
  <course>59.23</course>
  <speed>0.0</speed>
  <fix>3d</fix>
</trkpt>
<trkpt lat="-27.2744386" lon="151.2900637">
  <ele>364.17</ele>
  <time>2026-09-01T19:56:35Z</time>
  <course>10.69</course>
  <speed>0.0282842712474619</speed>
  <fix>3d</fix>
</trkpt>
<trkpt lat="-27.2744385" lon="151.2900635">
  <ele>363.98</ele>
  <time>2026-09-01T19:56:35Z</time>
  <course>67.1</course>
  <speed>0.0</speed>
  <fix>3d</fix>
</trkpt>
<trkpt lat="-27.2744386" lon="151.2900637">
  <ele>364.17</ele>
  <time>2026-09-01T19:56:35Z</time>
  <course>10.69</course>
  <speed>0.022360679774997897</speed>
  <fix>3d</fix>
</trkpt>
<trkpt lat="-27.2744385" lon="151.2900635">
  <ele>363.98</ele>
  <time>2026-09-01T19:56:35Z</time>
  <course>67.1</course>
  <speed>0.0</speed>
  <fix>3d</fix>
</trkpt>
<trkpt lat="-27.2744386" lon="151.2900637">
  <ele>364.17</ele>
  <time>2026-09-01T19:56:35Z</time>
  <course>10.69</course>
  <speed>0.022360679774997897</speed>
  <fix>3d</fix>
</trkpt>
<trkpt lat="-27.2744385" lon="151.2900635">
  <ele>363.98</ele>
  <time>2026-09-01T19:56:35Z</time>
  <course>68.07</course>
  <speed>0.0</speed>
  <fix>3d</fix>
</trkpt>
<trkpt lat="-27.2744386" lon="151.2900637">
  <ele>364.17</ele>
  <time>2026-09-01T19:56:35Z</time>
  <course>10.69</course>
  <speed>0.022360679774997897</speed>
  <fix>3d</fix>
</trkpt>
<trkpt lat="-27.2744385" lon="151.2900635">
  <ele>363.98</ele>
  <time>2026-09-01T19:56:35Z</time>
  <course>68.07</course>
  <speed>0.0</speed>
  <fix>3d</fix>
</trkpt>
<trkpt lat="-27.2744386" lon="151.2900637">
  <ele>364.17</ele>
  <time>2026-09-01T19:56:35Z</time>
  <course>10.68</course>
  <speed>0.022360679774997897</speed>
  <fix>3d</fix>
</trkpt>
<trkpt lat="-27.2744385" lon="151.2900635">
  <ele>363.99</ele>
  <time>2026-09-01T19:56:35Z</time>
  <course>65.1</course>
  <speed>0.0</speed>
  <fix>3d</fix>
</trkpt>
<trkpt lat="-27.2744386" lon="151.2900637">
  <ele>364.17</ele>
  <time>2026-09-01T19:56:35Z</time>
  <course>10.68</course>
  <speed>0.022360679774997897</speed>
  <fix>3d</fix>
</trkpt>
<trkpt lat="-27.2744385" lon="151.2900635">
  <ele>363.99</ele>
  <time>2026-09-01T19:56:35Z</time>
  <course>65.1</course>
  <speed>0.0</speed>
  <fix>3d</fix>
</trkpt>
<trkpt lat="-27.2744386" lon="151.2900637">
  <ele>364.17</ele>
  <time>2026-09-01T19:56:35Z</time>
  <course>10.68</course>
  <speed>0.022360679774997897</speed>
  <fix>3d</fix>
</trkpt>
<trkpt lat="-27.2744385" lon="151.2900635">
  <ele>363.99</ele>
  <time>2026-09-01T19:56:35Z</time>
  <course>60.85</course>
  <speed>0.0</speed>
  <fix>3d</fix>
</trkpt>
<trkpt lat="-27.2744386" lon="151.2900637">
  <ele>364.17</ele>
  <time>2026-09-01T19:56:35Z</time>
  <course>10.68</course>
  <speed>0.022360679774997897</speed>
  <fix>3d</fix>
</trkpt>
<trkpt lat="-27.2744385" lon="151.2900635">
  <ele>363.99</ele>
  <time>2026-09-01T19:56:35Z</time>
  <course>60.85</course>
  <speed>0.0</speed>
  <fix>3d</fix>
</trkpt>
<trkpt lat="-27.2744386" lon="151.2900637">
  <ele>364.18</ele>
  <time>2026-09-01T19:56:35Z</time>
  <course>10.67</course>
  <speed>0.022360679774997897</speed>
  <fix>3d</fix>
</trkpt>
<trkpt lat="-27.2744385" lon="151.2900635">
  <ele>364.0</ele>
  <time>2026-09-01T19:56:35Z</time>
  <course>57.22</course>
  <speed>0.0</speed>
  <fix>3d</fix>
</trkpt>
<trkpt lat="-27.2744386" lon="151.2900637">
  <ele>364.18</ele>
  <time>2026-09-01T19:56:35Z</time>
  <course>10.67</course>
  <speed>0.022360679774997897</speed>
  <fix>3d</fix>
</trkpt>
<trkpt lat="-27.2744385" lon="151.2900635">
  <ele>364.0</ele>
  <time>2026-09-01T19:56:35Z</time>
  <course>57.22</course>
  <speed>0.0</speed>
  <fix>3d</fix>
</trkpt>
<trkpt lat="-27.2744386" lon="151.2900636">
  <ele>364.18</ele>
  <time>2026-09-01T19:56:35Z</time>
  <course>10.67</course>
  <speed>0.022360679774997897</speed>
  <fix>3d</fix>
</trkpt>
<trkpt lat="-27.2744385" lon="151.2900635">
  <ele>364.0</ele>
  <time>2026-09-01T19:56:35Z</time>
  <course>54.6</course>
  <speed>0.0</speed>
  <fix>3d</fix>
</trkpt>
<trkpt lat="-27.2744386" lon="151.2900636">
  <ele>364.18</ele>
  <time>2026-09-01T19:56:35Z</time>
  <course>10.67</course>
  <speed>0.022360679774997897</speed>
  <fix>3d</fix>
</trkpt>
<trkpt lat="-27.2744385" lon="151.2900635">
  <ele>364.0</ele>
  <time>2026-09-01T19:56:35Z</time>
  <course>54.6</course>
  <speed>0.0</speed>
  <fix>3d</fix>
</trkpt>
<trkpt lat="-27.2744386" lon="151.2900636">
  <ele>364.18</ele>
  <time>2026-09-01T19:56:35Z</time>
  <course>10.68</course>
  <speed>0.022360679774997897</speed>
  <fix>3d</fix>
</trkpt>
<trkpt lat="-27.2744385" lon="151.2900635">
  <ele>364.0</ele>
  <time>2026-09-01T19:56:35Z</time>
  <course>52.32</course>
  <speed>0.0</speed>
  <fix>3d</fix>
</trkpt>
<trkpt lat="-27.2744386" lon="151.2900636">
  <ele>364.18</ele>
  <time>2026-09-01T19:56:35Z</time>
  <course>10.68</course>
  <speed>0.022360679774997897</speed>
  <fix>3d</fix>
</trkpt>
<trkpt lat="-27.2744385" lon="151.2900635">
  <ele>364.0</ele>
  <time>2026-09-01T19:56:35Z</time>
  <course>52.32</course>
  <speed>0.0</speed>
  <fix>3d</fix>
</trkpt>
<trkpt lat="-27.2744386" lon="151.2900636">
  <ele>364.18</ele>
  <time>2026-09-01T19:56:35Z</time>
  <course>10.68</course>
  <speed>0.022360679774997897</speed>
  <fix>3d</fix>
</trkpt>
<trkpt lat="-27.2744385" lon="151.2900636">
  <ele>364.0</ele>
  <time>2026-09-01T19:56:35Z</time>
  <course>50.5</course>
  <speed>0.0</speed>
  <fix>3d</fix>
</trkpt>
<trkpt lat="-27.2744386" lon="151.2900637">
  <ele>364.18</ele>
  <time>2026-09-01T19:56:35Z</time>
  <course>10.68</course>
  <speed>0.022360679774997897</speed>
  <fix>3d</fix>
</trkpt>
<trkpt lat="-27.2744385" lon="151.2900636">
  <ele>364.0</ele>
  <time>2026-09-01T19:56:35Z</time>
  <course>50.5</course>
  <speed>0.0</speed>
  <fix>3d</fix>
</trkpt>
<trkpt lat="-27.2744386" lon="151.2900637">
  <ele>364.18</ele>
  <time>2026-09-01T19:56:35Z</time>
  <course>10.68</course>
  <speed>0.022360679774997897</speed>
  <fix>3d</fix>
</trkpt>
<trkpt lat="-27.2744385" lon="151.2900636">
  <ele>364.0</ele>
  <time>2026-09-01T19:56:35Z</time>
  <course>48.97</course>
  <speed>0.01</speed>
  <fix>3d</fix>
</trkpt>
<trkpt lat="-27.2744386" lon="151.2900637">
  <ele>364.18</ele>
  <time>2026-09-01T19:56:35Z</time>
  <course>10.68</course>
  <speed>0.022360679774997897</speed>
  <fix>3d</fix>
</trkpt>
<trkpt lat="-27.2744385" lon="151.2900636">
  <ele>364.0</ele>
  <time>2026-09-01T19:56:35Z</time>
  <course>48.97</course>
  <speed>0.01</speed>
  <fix>3d</fix>
</trkpt>
<trkpt lat="-27.2744386" lon="151.2900637">
  <ele>364.18</ele>
  <time>2026-09-01T19:56:35Z</time>
  <course>10.69</course>
  <speed>0.022360679774997897</speed>
  <fix>3d</fix>
</trkpt>
<trkpt lat="-27.2744385" lon="151.2900636">
  <ele>364.0</ele>
  <time>2026-09-01T19:56:35Z</time>
  <course>48.14</course>
  <speed>0.01</speed>
  <fix>3d</fix>
</trkpt>
<trkpt lat="-27.2744386" lon="151.2900637">
  <ele>364.18</ele>
  <time>2026-09-01T19:56:35Z</time>
  <course>10.69</course>
  <speed>0.022360679774997897</speed>
  <fix>3d</fix>
</trkpt>
<trkpt lat="-27.2744385" lon="151.2900636">
  <ele>364.0</ele>
  <time>2026-09-01T19:56:35Z</time>
  <course>48.14</course>
  <speed>0.01</speed>
  <fix>3d</fix>
</trkpt>
<trkpt lat="-27.2744386" lon="151.2900637">
  <ele>364.18</ele>
  <time>2026-09-01T19:56:35Z</time>
  <course>10.69</course>
  <speed>0.022360679774997897</speed>
  <fix>3d</fix>
</trkpt>
<trkpt lat="-27.2744385" lon="151.2900636">
  <ele>364.0</ele>
  <time>2026-09-01T19:56:35Z</time>
  <course>47.93</course>
  <speed>0.01</speed>
  <fix>3d</fix>
</trkpt>
<trkpt lat="-27.2744386" lon="151.2900637">
  <ele>364.18</ele>
  <time>2026-09-01T19:56:35Z</time>
  <course>10.7</course>
  <speed>0.022360679774997897</speed>
  <fix>3d</fix>
</trkpt>
<trkpt lat="-27.2744385" lon="151.2900636">
  <ele>364.0</ele>
  <time>2026-09-01T19:56:35Z</time>
  <course>47.93</course>
  <speed>0.01</speed>
  <fix>3d</fix>
</trkpt>
<trkpt lat="-27.2744386" lon="151.2900637">
  <ele>364.18</ele>
  <time>2026-09-01T19:56:35Z</time>
  <course>10.7</course>
  <speed>0.01414213562373095</speed>
  <fix>3d</fix>
</trkpt>
<trkpt lat="-27.2744385" lon="151.2900636">
  <ele>364.0</ele>
  <time>2026-09-01T19:56:35Z</time>
  <course>45.28</course>
  <speed>0.01</speed>
  <fix>3d</fix>
</trkpt>
<trkpt lat="-27.2744386" lon="151.2900637">
  <ele>364.18</ele>
  <time>2026-09-01T19:56:35Z</time>
  <course>10.7</course>
  <speed>0.01414213562373095</speed>
  <fix>3d</fix>
</trkpt>
<trkpt lat="-27.2744385" lon="151.2900636">
  <ele>364.0</ele>
  <time>2026-09-01T19:56:35Z</time>
  <course>45.28</course>
  <speed>0.01</speed>
  <fix>3d</fix>
</trkpt>
<trkpt lat="-27.2744386" lon="151.2900637">
  <ele>364.18</ele>
  <time>2026-09-01T19:56:35Z</time>
  <course>10.7</course>
  <speed>0.01414213562373095</speed>
  <fix>3d</fix>
</trkpt>
<trkpt lat="-27.2744384" lon="151.2900636">
  <ele>364.0</ele>
  <time>2026-09-01T19:56:35Z</time>
  <course>37.28</course>
  <speed>0.01</speed>
  <fix>3d</fix>
</trkpt>
<trkpt lat="-27.2744386" lon="151.2900637">
  <ele>364.18</ele>
  <time>2026-09-01T19:56:35Z</time>
  <course>10.7</course>
  <speed>0.01414213562373095</speed>
  <fix>3d</fix>
</trkpt>
<trkpt lat="-27.2744384" lon="151.2900636">
  <ele>364.0</ele>
  <time>2026-09-01T19:56:35Z</time>
  <course>37.28</course>
  <speed>0.01</speed>
  <fix>3d</fix>
</trkpt>
<trkpt lat="-27.2744386" lon="151.2900637">
  <ele>364.18</ele>
  <time>2026-09-01T19:56:35Z</time>
  <course>10.7</course>
  <speed>0.01414213562373095</speed>
  <fix>3d</fix>
</trkpt>
<trkpt lat="-27.2744384" lon="151.2900637">
  <ele>364.0</ele>
  <time>2026-09-01T19:56:35Z</time>
  <course>26.42</course>
  <speed>0.01</speed>
  <fix>3d</fix>
</trkpt>
<trkpt lat="-27.2744386" lon="151.2900637">
  <ele>364.18</ele>
  <time>2026-09-01T19:56:35Z</time>
  <course>10.7</course>
  <speed>0.01414213562373095</speed>
  <fix>3d</fix>
</trkpt>
<trkpt lat="-27.2744384" lon="151.2900637">
  <ele>364.0</ele>
  <time>2026-09-01T19:56:35Z</time>
  <course>26.42</course>
  <speed>0.01</speed>
  <fix>3d</fix>
</trkpt>
<trkpt lat="-27.2744386" lon="151.2900637">
  <ele>364.18</ele>
  <time>2026-09-01T19:56:35Z</time>
  <course>10.7</course>
  <speed>0.01414213562373095</speed>
  <fix>3d</fix>
</trkpt>
<trkpt lat="-27.2744384" lon="151.2900637">
  <ele>364.0</ele>
  <time>2026-09-01T19:56:35Z</time>
  <course>21.33</course>
  <speed>0.01</speed>
  <fix>3d</fix>
</trkpt>
<trkpt lat="-27.2744386" lon="151.2900637">
  <ele>364.18</ele>
  <time>2026-09-01T19:56:35Z</time>
  <course>10.7</course>
  <speed>0.01414213562373095</speed>
  <fix>3d</fix>
</trkpt>
<trkpt lat="-27.2744384" lon="151.2900637">
  <ele>364.0</ele>
  <time>2026-09-01T19:56:35Z</time>
  <course>21.33</course>
  <speed>0.01</speed>
  <fix>3d</fix>
</trkpt>
<trkpt lat="-27.2744386" lon="151.2900637">
  <ele>364.19</ele>
  <time>2026-09-01T19:56:36Z</time>
  <course>10.7</course>
  <speed>0.01414213562373095</speed>
  <fix>3d</fix>
</trkpt>
<trkpt lat="-27.2744384" lon="151.2900637">
  <ele>364.0</ele>
  <time>2026-09-01T19:56:36Z</time>
  <course>25.73</course>
  <speed>0.01</speed>
  <fix>3d</fix>
</trkpt>
<trkpt lat="-27.2744386" lon="151.2900637">
  <ele>364.19</ele>
  <time>2026-09-01T19:56:36Z</time>
  <course>10.7</course>
  <speed>0.022360679774997897</speed>
  <fix>3d</fix>
</trkpt>
<trkpt lat="-27.2744384" lon="151.2900637">
  <ele>364.0</ele>
  <time>2026-09-01T19:56:36Z</time>
  <course>25.73</course>
  <speed>0.01</speed>
  <fix>3d</fix>
</trkpt>
<trkpt lat="-27.2744386" lon="151.2900637">
  <ele>364.19</ele>
  <time>2026-09-01T19:56:36Z</time>
  <course>10.69</course>
  <speed>0.022360679774997897</speed>
  <fix>3d</fix>
</trkpt>
<trkpt lat="-27.2744384" lon="151.2900637">
  <ele>364.0</ele>
  <time>2026-09-01T19:56:36Z</time>
  <course>35.05</course>
  <speed>0.0</speed>
  <fix>3d</fix>
</trkpt>
<trkpt lat="-27.2744386" lon="151.2900637">
  <ele>364.19</ele>
  <time>2026-09-01T19:56:36Z</time>
  <course>10.68</course>
  <speed>0.022360679774997897</speed>
  <fix>3d</fix>
</trkpt>
<trkpt lat="-27.2744384" lon="151.2900637">
  <ele>364.0</ele>
  <time>2026-09-01T19:56:36Z</time>
  <course>35.05</course>
  <speed>0.0</speed>
  <fix>3d</fix>
</trkpt>
<trkpt lat="-27.2744386" lon="151.2900638">
  <ele>364.19</ele>
  <time>2026-09-01T19:56:36Z</time>
  <course>10.68</course>
  <speed>0.022360679774997897</speed>
  <fix>3d</fix>
</trkpt>
<trkpt lat="-27.2744384" lon="151.2900637">
  <ele>364.0</ele>
  <time>2026-09-01T19:56:36Z</time>
  <course>41.9</course>
  <speed>0.0</speed>
  <fix>3d</fix>
</trkpt>
<trkpt lat="-27.2744386" lon="151.2900638">
  <ele>364.19</ele>
  <time>2026-09-01T19:56:36Z</time>
  <course>10.68</course>
  <speed>0.022360679774997897</speed>
  <fix>3d</fix>
</trkpt>
<trkpt lat="-27.2744384" lon="151.2900637">
  <ele>364.0</ele>
  <time>2026-09-01T19:56:36Z</time>
  <course>41.9</course>
  <speed>0.0</speed>
  <fix>3d</fix>
</trkpt>
<trkpt lat="-27.2744386" lon="151.2900638">
  <ele>364.19</ele>
  <time>2026-09-01T19:56:36Z</time>
  <course>10.68</course>
  <speed>0.022360679774997897</speed>
  <fix>3d</fix>
</trkpt>
<trkpt lat="-27.2744383" lon="151.2900637">
  <ele>364.0</ele>
  <time>2026-09-01T19:56:36Z</time>
  <course>44.51</course>
  <speed>0.0</speed>
  <fix>3d</fix>
</trkpt>
<trkpt lat="-27.2744386" lon="151.2900638">
  <ele>364.19</ele>
  <time>2026-09-01T19:56:36Z</time>
  <course>10.68</course>
  <speed>0.022360679774997897</speed>
  <fix>3d</fix>
</trkpt>
<trkpt lat="-27.2744383" lon="151.2900637">
  <ele>364.0</ele>
  <time>2026-09-01T19:56:36Z</time>
  <course>44.51</course>
  <speed>0.0</speed>
  <fix>3d</fix>
</trkpt>
<trkpt lat="-27.2744386" lon="151.2900638">
  <ele>364.19</ele>
  <time>2026-09-01T19:56:36Z</time>
  <course>10.69</course>
  <speed>0.022360679774997897</speed>
  <fix>3d</fix>
</trkpt>
<trkpt lat="-27.2744383" lon="151.2900637">
  <ele>364.0</ele>
  <time>2026-09-01T19:56:36Z</time>
  <course>45.51</course>
  <speed>0.0</speed>
  <fix>3d</fix>
</trkpt>
<trkpt lat="-27.2744386" lon="151.2900638">
  <ele>364.19</ele>
  <time>2026-09-01T19:56:36Z</time>
  <course>10.69</course>
  <speed>0.022360679774997897</speed>
  <fix>3d</fix>
</trkpt>
<trkpt lat="-27.2744383" lon="151.2900637">
  <ele>364.0</ele>
  <time>2026-09-01T19:56:36Z</time>
  <course>45.51</course>
  <speed>0.0</speed>
  <fix>3d</fix>
</trkpt>
<trkpt lat="-27.2744386" lon="151.2900638">
  <ele>364.18</ele>
  <time>2026-09-01T19:56:36Z</time>
  <course>10.69</course>
  <speed>0.022360679774997897</speed>
  <fix>3d</fix>
</trkpt>
<trkpt lat="-27.2744383" lon="151.2900637">
  <ele>363.99</ele>
  <time>2026-09-01T19:56:36Z</time>
  <course>43.46</course>
  <speed>0.0</speed>
  <fix>3d</fix>
</trkpt>
<trkpt lat="-27.2744386" lon="151.2900638">
  <ele>364.18</ele>
  <time>2026-09-01T19:56:36Z</time>
  <course>10.69</course>
  <speed>0.022360679774997897</speed>
  <fix>3d</fix>
</trkpt>
<trkpt lat="-27.2744383" lon="151.2900637">
  <ele>363.99</ele>
  <time>2026-09-01T19:56:36Z</time>
  <course>43.46</course>
  <speed>0.0</speed>
  <fix>3d</fix>
</trkpt>
<trkpt lat="-27.2744386" lon="151.2900638">
  <ele>364.18</ele>
  <time>2026-09-01T19:56:36Z</time>
  <course>10.69</course>
  <speed>0.022360679774997897</speed>
  <fix>3d</fix>
</trkpt>
<trkpt lat="-27.2744383" lon="151.2900637">
  <ele>363.99</ele>
  <time>2026-09-01T19:56:36Z</time>
  <course>39.63</course>
  <speed>0.0</speed>
  <fix>3d</fix>
</trkpt>
<trkpt lat="-27.2744386" lon="151.2900638">
  <ele>364.18</ele>
  <time>2026-09-01T19:56:36Z</time>
  <course>10.69</course>
  <speed>0.022360679774997897</speed>
  <fix>3d</fix>
</trkpt>
<trkpt lat="-27.2744383" lon="151.2900637">
  <ele>363.99</ele>
  <time>2026-09-01T19:56:36Z</time>
  <course>39.63</course>
  <speed>0.0</speed>
  <fix>3d</fix>
</trkpt>
<trkpt lat="-27.2744385" lon="151.2900638">
  <ele>364.18</ele>
  <time>2026-09-01T19:56:36Z</time>
  <course>10.69</course>
  <speed>0.022360679774997897</speed>
  <fix>3d</fix>
</trkpt>
<trkpt lat="-27.2744383" lon="151.2900637">
  <ele>363.99</ele>
  <time>2026-09-01T19:56:36Z</time>
  <course>44.98</course>
  <speed>0.0</speed>
  <fix>3d</fix>
</trkpt>
<trkpt lat="-27.2744385" lon="151.2900638">
  <ele>364.18</ele>
  <time>2026-09-01T19:56:36Z</time>
  <course>10.68</course>
  <speed>0.022360679774997897</speed>
  <fix>3d</fix>
</trkpt>
<trkpt lat="-27.2744383" lon="151.2900637">
  <ele>363.99</ele>
  <time>2026-09-01T19:56:36Z</time>
  <course>44.98</course>
  <speed>0.0</speed>
  <fix>3d</fix>
</trkpt>
<trkpt lat="-27.2744385" lon="151.2900638">
  <ele>364.18</ele>
  <time>2026-09-01T19:56:36Z</time>
  <course>10.67</course>
  <speed>0.022360679774997897</speed>
  <fix>3d</fix>
</trkpt>
<trkpt lat="-27.2744383" lon="151.2900637">
  <ele>363.99</ele>
  <time>2026-09-01T19:56:36Z</time>
  <course>64.77</course>
  <speed>0.0</speed>
  <fix>3d</fix>
</trkpt>
<trkpt lat="-27.2744385" lon="151.2900638">
  <ele>364.18</ele>
  <time>2026-09-01T19:56:36Z</time>
  <course>10.66</course>
  <speed>0.022360679774997897</speed>
  <fix>3d</fix>
</trkpt>
<trkpt lat="-27.2744383" lon="151.2900637">
  <ele>363.99</ele>
  <time>2026-09-01T19:56:36Z</time>
  <course>64.77</course>
  <speed>0.0</speed>
  <fix>3d</fix>
</trkpt>
<trkpt lat="-27.2744385" lon="151.2900638">
  <ele>364.19</ele>
  <time>2026-09-01T19:56:36Z</time>
  <course>10.65</course>
  <speed>0.022360679774997897</speed>
  <fix>3d</fix>
</trkpt>
<trkpt lat="-27.2744383" lon="151.2900637">
  <ele>363.99</ele>
  <time>2026-09-01T19:56:36Z</time>
  <course>93.5</course>
  <speed>0.0</speed>
  <fix>3d</fix>
</trkpt>
<trkpt lat="-27.2744385" lon="151.2900638">
  <ele>364.19</ele>
  <time>2026-09-01T19:56:36Z</time>
  <course>10.64</course>
  <speed>0.022360679774997897</speed>
  <fix>3d</fix>
</trkpt>
<trkpt lat="-27.2744383" lon="151.2900637">
  <ele>363.99</ele>
  <time>2026-09-01T19:56:36Z</time>
  <course>93.5</course>
  <speed>0.0</speed>
  <fix>3d</fix>
</trkpt>
<trkpt lat="-27.2744385" lon="151.2900638">
  <ele>364.19</ele>
  <time>2026-09-01T19:56:36Z</time>
  <course>10.64</course>
  <speed>0.022360679774997897</speed>
  <fix>3d</fix>
</trkpt>
<trkpt lat="-27.2744383" lon="151.2900637">
  <ele>363.99</ele>
  <time>2026-09-01T19:56:36Z</time>
  <course>138.92</course>
  <speed>0.0</speed>
  <fix>3d</fix>
</trkpt>
<trkpt lat="-27.2744385" lon="151.2900638">
  <ele>364.19</ele>
  <time>2026-09-01T19:56:36Z</time>
  <course>10.65</course>
  <speed>0.022360679774997897</speed>
  <fix>3d</fix>
</trkpt>
<trkpt lat="-27.2744383" lon="151.2900637">
  <ele>363.99</ele>
  <time>2026-09-01T19:56:36Z</time>
  <course>138.92</course>
  <speed>0.0</speed>
  <fix>3d</fix>
</trkpt>
<trkpt lat="-27.2744385" lon="151.2900638">
  <ele>364.19</ele>
  <time>2026-09-01T19:56:36Z</time>
  <course>10.65</course>
  <speed>0.022360679774997897</speed>
  <fix>3d</fix>
</trkpt>
<trkpt lat="-27.2744383" lon="151.2900637">
  <ele>363.99</ele>
  <time>2026-09-01T19:56:36Z</time>
  <course>183.32</course>
  <speed>0.0</speed>
  <fix>3d</fix>
</trkpt>
<trkpt lat="-27.2744385" lon="151.2900638">
  <ele>364.19</ele>
  <time>2026-09-01T19:56:36Z</time>
  <course>10.66</course>
  <speed>0.022360679774997897</speed>
  <fix>3d</fix>
</trkpt>
<trkpt lat="-27.2744383" lon="151.2900637">
  <ele>363.99</ele>
  <time>2026-09-01T19:56:36Z</time>
  <course>183.32</course>
  <speed>0.0</speed>
  <fix>3d</fix>
</trkpt>
<trkpt lat="-27.2744385" lon="151.2900638">
  <ele>364.19</ele>
  <time>2026-09-01T19:56:36Z</time>
  <course>10.66</course>
  <speed>0.02</speed>
  <fix>3d</fix>
</trkpt>
<trkpt lat="-27.2744383" lon="151.2900637">
  <ele>363.98</ele>
  <time>2026-09-01T19:56:36Z</time>
  <course>244.07</course>
  <speed>0.0</speed>
  <fix>3d</fix>
</trkpt>
<trkpt lat="-27.2744385" lon="151.2900638">
  <ele>364.19</ele>
  <time>2026-09-01T19:56:36Z</time>
  <course>10.67</course>
  <speed>0.02</speed>
  <fix>3d</fix>
</trkpt>
<trkpt lat="-27.2744383" lon="151.2900637">
  <ele>363.98</ele>
  <time>2026-09-01T19:56:36Z</time>
  <course>244.07</course>
  <speed>0.0</speed>
  <fix>3d</fix>
</trkpt>
<trkpt lat="-27.2744385" lon="151.2900638">
  <ele>364.18</ele>
  <time>2026-09-01T19:56:36Z</time>
  <course>10.67</course>
  <speed>0.01</speed>
  <fix>3d</fix>
</trkpt>
<trkpt lat="-27.2744383" lon="151.2900637">
  <ele>363.98</ele>
  <time>2026-09-01T19:56:36Z</time>
  <course>310.57</course>
  <speed>0.0</speed>
  <fix>3d</fix>
</trkpt>
<trkpt lat="-27.2744385" lon="151.2900638">
  <ele>364.18</ele>
  <time>2026-09-01T19:56:36Z</time>
  <course>10.68</course>
  <speed>0.01414213562373095</speed>
  <fix>3d</fix>
</trkpt>
<trkpt lat="-27.2744383" lon="151.2900637">
  <ele>363.98</ele>
  <time>2026-09-01T19:56:36Z</time>
  <course>310.57</course>
  <speed>0.0</speed>
  <fix>3d</fix>
</trkpt>
<trkpt lat="-27.2744385" lon="151.2900638">
  <ele>364.18</ele>
  <time>2026-09-01T19:56:36Z</time>
  <course>10.69</course>
  <speed>0.01414213562373095</speed>
  <fix>3d</fix>
</trkpt>
<trkpt lat="-27.2744383" lon="151.2900637">
  <ele>363.98</ele>
  <time>2026-09-01T19:56:36Z</time>
  <course>333.86</course>
  <speed>0.0</speed>
  <fix>3d</fix>
</trkpt>
<trkpt lat="-27.2744385" lon="151.2900638">
  <ele>364.18</ele>
  <time>2026-09-01T19:56:36Z</time>
  <course>10.69</course>
  <speed>0.01414213562373095</speed>
  <fix>3d</fix>
</trkpt>
<trkpt lat="-27.2744383" lon="151.2900637">
  <ele>363.98</ele>
  <time>2026-09-01T19:56:36Z</time>
  <course>333.86</course>
  <speed>0.0</speed>
  <fix>3d</fix>
</trkpt>
<trkpt lat="-27.2744385" lon="151.2900638">
  <ele>364.18</ele>
  <time>2026-09-01T19:56:36Z</time>
  <course>10.7</course>
  <speed>0.022360679774997897</speed>
  <fix>3d</fix>
</trkpt>
<trkpt lat="-27.2744383" lon="151.2900637">
  <ele>363.98</ele>
  <time>2026-09-01T19:56:36Z</time>
  <course>336.51</course>
  <speed>0.0</speed>
  <fix>3d</fix>
</trkpt>
<trkpt lat="-27.2744385" lon="151.2900638">
  <ele>364.18</ele>
  <time>2026-09-01T19:56:36Z</time>
  <course>10.7</course>
  <speed>0.022360679774997897</speed>
  <fix>3d</fix>
</trkpt>
<trkpt lat="-27.2744383" lon="151.2900637">
  <ele>363.98</ele>
  <time>2026-09-01T19:56:36Z</time>
  <course>336.51</course>
  <speed>0.0</speed>
  <fix>3d</fix>
</trkpt>
<trkpt lat="-27.2744385" lon="151.2900638">
  <ele>364.18</ele>
  <time>2026-09-01T19:56:36Z</time>
  <course>10.71</course>
  <speed>0.022360679774997897</speed>
  <fix>3d</fix>
</trkpt>
<trkpt lat="-27.2744383" lon="151.2900637">
  <ele>363.98</ele>
  <time>2026-09-01T19:56:36Z</time>
  <course>312.85</course>
  <speed>0.0</speed>
  <fix>3d</fix>
</trkpt>
<trkpt lat="-27.2744385" lon="151.2900638">
  <ele>364.18</ele>
  <time>2026-09-01T19:56:36Z</time>
  <course>10.71</course>
  <speed>0.022360679774997897</speed>
  <fix>3d</fix>
</trkpt>
<trkpt lat="-27.2744383" lon="151.2900637">
  <ele>363.98</ele>
  <time>2026-09-01T19:56:36Z</time>
  <course>312.85</course>
  <speed>0.0</speed>
  <fix>3d</fix>
</trkpt>
<trkpt lat="-27.2744385" lon="151.2900638">
  <ele>364.18</ele>
  <time>2026-09-01T19:56:36Z</time>
  <course>10.71</course>
  <speed>0.022360679774997897</speed>
  <fix>3d</fix>
</trkpt>
<trkpt lat="-27.2744383" lon="151.2900637">
  <ele>363.98</ele>
  <time>2026-09-01T19:56:36Z</time>
  <course>217.97</course>
  <speed>0.0</speed>
  <fix>3d</fix>
</trkpt>
<trkpt lat="-27.2744385" lon="151.2900638">
  <ele>364.18</ele>
  <time>2026-09-01T19:56:36Z</time>
  <course>10.71</course>
  <speed>0.0316227766016838</speed>
  <fix>3d</fix>
</trkpt>
<trkpt lat="-27.2744383" lon="151.2900637">
  <ele>363.98</ele>
  <time>2026-09-01T19:56:36Z</time>
  <course>217.97</course>
  <speed>0.0</speed>
  <fix>3d</fix>
</trkpt>
<trkpt lat="-27.2744385" lon="151.2900638">
  <ele>364.18</ele>
  <time>2026-09-01T19:56:36Z</time>
  <course>10.71</course>
  <speed>0.03</speed>
  <fix>3d</fix>
</trkpt>
<trkpt lat="-27.2744383" lon="151.2900637">
  <ele>363.98</ele>
  <time>2026-09-01T19:56:36Z</time>
  <course>198.76</course>
  <speed>0.0</speed>
  <fix>3d</fix>
</trkpt>
<trkpt lat="-27.2744385" lon="151.2900638">
  <ele>364.18</ele>
  <time>2026-09-01T19:56:36Z</time>
  <course>10.7</course>
  <speed>0.03</speed>
  <fix>3d</fix>
</trkpt>
<trkpt lat="-27.2744383" lon="151.2900637">
  <ele>363.98</ele>
  <time>2026-09-01T19:56:36Z</time>
  <course>198.76</course>
  <speed>0.0</speed>
  <fix>3d</fix>
</trkpt>
<trkpt lat="-27.2744385" lon="151.2900638">
  <ele>364.18</ele>
  <time>2026-09-01T19:56:36Z</time>
  <course>10.7</course>
  <speed>0.03</speed>
  <fix>3d</fix>
</trkpt>
<trkpt lat="-27.2744383" lon="151.2900637">
  <ele>363.98</ele>
  <time>2026-09-01T19:56:36Z</time>
  <course>197.07</course>
  <speed>0.0</speed>
  <fix>3d</fix>
</trkpt>
<trkpt lat="-27.2744385" lon="151.2900638">
  <ele>364.18</ele>
  <time>2026-09-01T19:56:36Z</time>
  <course>10.7</course>
  <speed>0.03</speed>
  <fix>3d</fix>
</trkpt>
<trkpt lat="-27.2744383" lon="151.2900637">
  <ele>363.98</ele>
  <time>2026-09-01T19:56:36Z</time>
  <course>197.07</course>
  <speed>0.0</speed>
  <fix>3d</fix>
</trkpt>
<trkpt lat="-27.2744385" lon="151.2900638">
  <ele>364.18</ele>
  <time>2026-09-01T19:56:36Z</time>
  <course>10.69</course>
  <speed>0.03</speed>
  <fix>3d</fix>
</trkpt>
<trkpt lat="-27.2744383" lon="151.2900637">
  <ele>363.98</ele>
  <time>2026-09-01T19:56:36Z</time>
  <course>197.83</course>
  <speed>0.01</speed>
  <fix>3d</fix>
</trkpt>
<trkpt lat="-27.2744385" lon="151.2900638">
  <ele>364.18</ele>
  <time>2026-09-01T19:56:36Z</time>
  <course>10.69</course>
  <speed>0.03</speed>
  <fix>3d</fix>
</trkpt>
<trkpt lat="-27.2744383" lon="151.2900637">
  <ele>363.98</ele>
  <time>2026-09-01T19:56:36Z</time>
  <course>197.83</course>
  <speed>0.01</speed>
  <fix>3d</fix>
</trkpt>
<trkpt lat="-27.2744385" lon="151.2900638">
  <ele>364.18</ele>
  <time>2026-09-01T19:56:36Z</time>
  <course>10.68</course>
  <speed>0.03</speed>
  <fix>3d</fix>
</trkpt>
<trkpt lat="-27.2744383" lon="151.2900637">
  <ele>363.98</ele>
  <time>2026-09-01T19:56:36Z</time>
  <course>199.02</course>
  <speed>0.01</speed>
  <fix>3d</fix>
</trkpt>
<trkpt lat="-27.2744385" lon="151.2900638">
  <ele>364.18</ele>
  <time>2026-09-01T19:56:36Z</time>
  <course>10.68</course>
  <speed>0.03</speed>
  <fix>3d</fix>
</trkpt>
<trkpt lat="-27.2744383" lon="151.2900637">
  <ele>363.98</ele>
  <time>2026-09-01T19:56:36Z</time>
  <course>199.02</course>
  <speed>0.01</speed>
  <fix>3d</fix>
</trkpt>
<trkpt lat="-27.2744385" lon="151.2900638">
  <ele>364.18</ele>
  <time>2026-09-01T19:56:36Z</time>
  <course>10.67</course>
  <speed>0.03</speed>
  <fix>3d</fix>
</trkpt>
<trkpt lat="-27.2744383" lon="151.2900637">
  <ele>363.98</ele>
  <time>2026-09-01T19:56:36Z</time>
  <course>200.38</course>
  <speed>0.01</speed>
  <fix>3d</fix>
</trkpt>
<trkpt lat="-27.2744385" lon="151.2900638">
  <ele>364.18</ele>
  <time>2026-09-01T19:56:36Z</time>
  <course>10.67</course>
  <speed>0.03</speed>
  <fix>3d</fix>
</trkpt>
<trkpt lat="-27.2744383" lon="151.2900637">
  <ele>363.98</ele>
  <time>2026-09-01T19:56:36Z</time>
  <course>200.38</course>
  <speed>0.01</speed>
  <fix>3d</fix>
</trkpt>
<trkpt lat="-27.2744385" lon="151.2900638">
  <ele>364.18</ele>
  <time>2026-09-01T19:56:36Z</time>
  <course>10.67</course>
  <speed>0.03</speed>
  <fix>3d</fix>
</trkpt>
<trkpt lat="-27.2744383" lon="151.2900637">
  <ele>363.98</ele>
  <time>2026-09-01T19:56:36Z</time>
  <course>201.71</course>
  <speed>0.01</speed>
  <fix>3d</fix>
</trkpt>
<trkpt lat="-27.2744385" lon="151.2900638">
  <ele>364.18</ele>
  <time>2026-09-01T19:56:36Z</time>
  <course>10.67</course>
  <speed>0.03</speed>
  <fix>3d</fix>
</trkpt>
<trkpt lat="-27.2744383" lon="151.2900637">
  <ele>363.98</ele>
  <time>2026-09-01T19:56:36Z</time>
  <course>201.71</course>
  <speed>0.01</speed>
  <fix>3d</fix>
</trkpt>
<trkpt lat="-27.2744385" lon="151.2900638">
  <ele>364.18</ele>
  <time>2026-09-01T19:56:36Z</time>
  <course>10.68</course>
  <speed>0.03</speed>
  <fix>3d</fix>
</trkpt>
<trkpt lat="-27.2744383" lon="151.2900637">
  <ele>363.98</ele>
  <time>2026-09-01T19:56:36Z</time>
  <course>203.06</course>
  <speed>0.01</speed>
  <fix>3d</fix>
</trkpt>
<trkpt lat="-27.2744385" lon="151.2900638">
  <ele>364.18</ele>
  <time>2026-09-01T19:56:36Z</time>
  <course>10.68</course>
  <speed>0.03</speed>
  <fix>3d</fix>
</trkpt>
<trkpt lat="-27.2744383" lon="151.2900637">
  <ele>363.98</ele>
  <time>2026-09-01T19:56:36Z</time>
  <course>203.06</course>
  <speed>0.01</speed>
  <fix>3d</fix>
</trkpt>
<trkpt lat="-27.2744385" lon="151.2900638">
  <ele>364.18</ele>
  <time>2026-09-01T19:56:36Z</time>
  <course>10.68</course>
  <speed>0.0316227766016838</speed>
  <fix>3d</fix>
</trkpt>
<trkpt lat="-27.2744383" lon="151.2900637">
  <ele>363.98</ele>
  <time>2026-09-01T19:56:36Z</time>
  <course>204.34</course>
  <speed>0.01</speed>
  <fix>3d</fix>
</trkpt>
<trkpt lat="-27.2744386" lon="151.2900638">
  <ele>364.18</ele>
  <time>2026-09-01T19:56:36Z</time>
  <course>10.68</course>
  <speed>0.0316227766016838</speed>
  <fix>3d</fix>
</trkpt>
<trkpt lat="-27.2744383" lon="151.2900637">
  <ele>363.98</ele>
  <time>2026-09-01T19:56:36Z</time>
  <course>204.34</course>
  <speed>0.01</speed>
  <fix>3d</fix>
</trkpt>
<trkpt lat="-27.2744385" lon="151.2900638">
  <ele>364.18</ele>
  <time>2026-09-01T19:56:36Z</time>
  <course>10.68</course>
  <speed>0.0316227766016838</speed>
  <fix>3d</fix>
</trkpt>
<trkpt lat="-27.2744383" lon="151.2900637">
  <ele>363.98</ele>
  <time>2026-09-01T19:56:36Z</time>
  <course>204.9</course>
  <speed>0.01</speed>
  <fix>3d</fix>
</trkpt>
<trkpt lat="-27.2744386" lon="151.2900638">
  <ele>364.18</ele>
  <time>2026-09-01T19:56:36Z</time>
  <course>10.68</course>
  <speed>0.0316227766016838</speed>
  <fix>3d</fix>
</trkpt>
<trkpt lat="-27.2744383" lon="151.2900637">
  <ele>363.98</ele>
  <time>2026-09-01T19:56:36Z</time>
  <course>204.9</course>
  <speed>0.01</speed>
  <fix>3d</fix>
</trkpt>
<trkpt lat="-27.2744386" lon="151.2900638">
  <ele>364.18</ele>
  <time>2026-09-01T19:56:36Z</time>
  <course>10.68</course>
  <speed>0.0316227766016838</speed>
  <fix>3d</fix>
</trkpt>
<trkpt lat="-27.2744384" lon="151.2900637">
  <ele>363.98</ele>
  <time>2026-09-01T19:56:36Z</time>
  <course>204.85</course>
  <speed>0.01</speed>
  <fix>3d</fix>
</trkpt>
<trkpt lat="-27.2744386" lon="151.2900638">
  <ele>364.18</ele>
  <time>2026-09-01T19:56:36Z</time>
  <course>10.68</course>
  <speed>0.0316227766016838</speed>
  <fix>3d</fix>
</trkpt>
<trkpt lat="-27.2744384" lon="151.2900637">
  <ele>363.98</ele>
  <time>2026-09-01T19:56:36Z</time>
  <course>204.85</course>
  <speed>0.01</speed>
  <fix>3d</fix>
</trkpt>
<trkpt lat="-27.2744386" lon="151.2900638">
  <ele>364.18</ele>
  <time>2026-09-01T19:56:36Z</time>
  <course>10.68</course>
  <speed>0.022360679774997897</speed>
  <fix>3d</fix>
</trkpt>
<trkpt lat="-27.2744384" lon="151.2900637">
  <ele>363.98</ele>
  <time>2026-09-01T19:56:36Z</time>
  <course>205.78</course>
  <speed>0.01</speed>
  <fix>3d</fix>
</trkpt>
<trkpt lat="-27.2744386" lon="151.2900638">
  <ele>364.18</ele>
  <time>2026-09-01T19:56:36Z</time>
  <course>10.68</course>
  <speed>0.022360679774997897</speed>
  <fix>3d</fix>
</trkpt>
<trkpt lat="-27.2744384" lon="151.2900637">
  <ele>363.98</ele>
  <time>2026-09-01T19:56:36Z</time>
  <course>205.78</course>
  <speed>0.01</speed>
  <fix>3d</fix>
</trkpt>
<trkpt lat="-27.2744386" lon="151.2900638">
  <ele>364.18</ele>
  <time>2026-09-01T19:56:36Z</time>
  <course>10.68</course>
  <speed>0.022360679774997897</speed>
  <fix>3d</fix>
</trkpt>
<trkpt lat="-27.2744384" lon="151.2900637">
  <ele>363.98</ele>
  <time>2026-09-01T19:56:36Z</time>
  <course>208.5</course>
  <speed>0.01</speed>
  <fix>3d</fix>
</trkpt>
<trkpt lat="-27.2744386" lon="151.2900638">
  <ele>364.18</ele>
  <time>2026-09-01T19:56:36Z</time>
  <course>10.68</course>
  <speed>0.022360679774997897</speed>
  <fix>3d</fix>
</trkpt>
<trkpt lat="-27.2744384" lon="151.2900637">
  <ele>363.98</ele>
  <time>2026-09-01T19:56:36Z</time>
  <course>208.5</course>
  <speed>0.01</speed>
  <fix>3d</fix>
</trkpt>
<trkpt lat="-27.2744386" lon="151.2900638">
  <ele>364.18</ele>
  <time>2026-09-01T19:56:36Z</time>
  <course>10.68</course>
  <speed>0.022360679774997897</speed>
  <fix>3d</fix>
</trkpt>
<trkpt lat="-27.2744384" lon="151.2900637">
  <ele>363.98</ele>
  <time>2026-09-01T19:56:36Z</time>
  <course>211.92</course>
  <speed>0.01</speed>
  <fix>3d</fix>
</trkpt>
<trkpt lat="-27.2744386" lon="151.2900638">
  <ele>364.18</ele>
  <time>2026-09-01T19:56:36Z</time>
  <course>10.69</course>
  <speed>0.022360679774997897</speed>
  <fix>3d</fix>
</trkpt>
<trkpt lat="-27.2744384" lon="151.2900637">
  <ele>363.98</ele>
  <time>2026-09-01T19:56:36Z</time>
  <course>211.92</course>
  <speed>0.01</speed>
  <fix>3d</fix>
</trkpt>
<trkpt lat="-27.2744386" lon="151.2900638">
  <ele>364.18</ele>
  <time>2026-09-01T19:56:36Z</time>
  <course>10.69</course>
  <speed>0.022360679774997897</speed>
  <fix>3d</fix>
</trkpt>
<trkpt lat="-27.2744384" lon="151.2900637">
  <ele>363.98</ele>
  <time>2026-09-01T19:56:36Z</time>
  <course>214.17</course>
  <speed>0.01</speed>
  <fix>3d</fix>
</trkpt>
<trkpt lat="-27.2744386" lon="151.2900638">
  <ele>364.18</ele>
  <time>2026-09-01T19:56:36Z</time>
  <course>10.7</course>
  <speed>0.022360679774997897</speed>
  <fix>3d</fix>
</trkpt>
<trkpt lat="-27.2744384" lon="151.2900637">
  <ele>363.98</ele>
  <time>2026-09-01T19:56:36Z</time>
  <course>214.17</course>
  <speed>0.01</speed>
  <fix>3d</fix>
</trkpt>
<trkpt lat="-27.2744386" lon="151.2900638">
  <ele>364.18</ele>
  <time>2026-09-01T19:56:36Z</time>
  <course>10.7</course>
  <speed>0.022360679774997897</speed>
  <fix>3d</fix>
</trkpt>
<trkpt lat="-27.2744385" lon="151.2900637">
  <ele>363.98</ele>
  <time>2026-09-01T19:56:36Z</time>
  <course>213.68</course>
  <speed>0.01</speed>
  <fix>3d</fix>
</trkpt>
<trkpt lat="-27.2744386" lon="151.2900638">
  <ele>364.18</ele>
  <time>2026-09-01T19:56:36Z</time>
  <course>10.7</course>
  <speed>0.022360679774997897</speed>
  <fix>3d</fix>
</trkpt>
<trkpt lat="-27.2744385" lon="151.2900637">
  <ele>363.98</ele>
  <time>2026-09-01T19:56:36Z</time>
  <course>213.68</course>
  <speed>0.01</speed>
  <fix>3d</fix>
</trkpt>
<trkpt lat="-27.2744386" lon="151.2900638">
  <ele>364.18</ele>
  <time>2026-09-01T19:56:36Z</time>
  <course>10.7</course>
  <speed>0.022360679774997897</speed>
  <fix>3d</fix>
</trkpt>
<trkpt lat="-27.2744385" lon="151.2900637">
  <ele>363.97</ele>
  <time>2026-09-01T19:56:36Z</time>
  <course>213.3</course>
  <speed>0.01</speed>
  <fix>3d</fix>
</trkpt>
<trkpt lat="-27.2744386" lon="151.2900638">
  <ele>364.18</ele>
  <time>2026-09-01T19:56:36Z</time>
  <course>10.69</course>
  <speed>0.022360679774997897</speed>
  <fix>3d</fix>
</trkpt>
<trkpt lat="-27.2744385" lon="151.2900637">
  <ele>363.97</ele>
  <time>2026-09-01T19:56:36Z</time>
  <course>213.3</course>
  <speed>0.01</speed>
  <fix>3d</fix>
</trkpt>
<trkpt lat="-27.2744386" lon="151.2900638">
  <ele>364.18</ele>
  <time>2026-09-01T19:56:36Z</time>
  <course>10.69</course>
  <speed>0.022360679774997897</speed>
  <fix>3d</fix>
</trkpt>
<trkpt lat="-27.2744385" lon="151.2900637">
  <ele>363.97</ele>
  <time>2026-09-01T19:56:36Z</time>
  <course>216.69</course>
  <speed>0.01</speed>
  <fix>3d</fix>
</trkpt>
<trkpt lat="-27.2744386" lon="151.2900638">
  <ele>364.18</ele>
  <time>2026-09-01T19:56:36Z</time>
  <course>10.69</course>
  <speed>0.022360679774997897</speed>
  <fix>3d</fix>
</trkpt>
<trkpt lat="-27.2744385" lon="151.2900637">
  <ele>363.97</ele>
  <time>2026-09-01T19:56:36Z</time>
  <course>216.69</course>
  <speed>0.01</speed>
  <fix>3d</fix>
</trkpt>
<trkpt lat="-27.2744386" lon="151.2900638">
  <ele>364.18</ele>
  <time>2026-09-01T19:56:36Z</time>
  <course>10.69</course>
  <speed>0.022360679774997897</speed>
  <fix>3d</fix>
</trkpt>
<trkpt lat="-27.2744385" lon="151.2900637">
  <ele>363.97</ele>
  <time>2026-09-01T19:56:36Z</time>
  <course>223.44</course>
  <speed>0.0</speed>
  <fix>3d</fix>
</trkpt>
<trkpt lat="-27.2744386" lon="151.2900638">
  <ele>364.18</ele>
  <time>2026-09-01T19:56:36Z</time>
  <course>10.68</course>
  <speed>0.022360679774997897</speed>
  <fix>3d</fix>
</trkpt>
<trkpt lat="-27.2744385" lon="151.2900637">
  <ele>363.97</ele>
  <time>2026-09-01T19:56:36Z</time>
  <course>223.44</course>
  <speed>0.0</speed>
  <fix>3d</fix>
</trkpt>
<trkpt lat="-27.2744386" lon="151.2900638">
  <ele>364.19</ele>
  <time>2026-09-01T19:56:36Z</time>
  <course>10.68</course>
  <speed>0.022360679774997897</speed>
  <fix>3d</fix>
</trkpt>
<trkpt lat="-27.2744385" lon="151.2900636">
  <ele>363.97</ele>
  <time>2026-09-01T19:56:36Z</time>
  <course>232.2</course>
  <speed>0.0</speed>
  <fix>3d</fix>
</trkpt>
<trkpt lat="-27.2744387" lon="151.2900638">
  <ele>364.19</ele>
  <time>2026-09-01T19:56:36Z</time>
  <course>10.68</course>
  <speed>0.022360679774997897</speed>
  <fix>3d</fix>
</trkpt>
<trkpt lat="-27.2744385" lon="151.2900636">
  <ele>363.97</ele>
  <time>2026-09-01T19:56:36Z</time>
  <course>232.2</course>
  <speed>0.0</speed>
  <fix>3d</fix>
</trkpt>
<trkpt lat="-27.2744386" lon="151.2900638">
  <ele>364.19</ele>
  <time>2026-09-01T19:56:36Z</time>
  <course>10.68</course>
  <speed>0.022360679774997897</speed>
  <fix>3d</fix>
</trkpt>
<trkpt lat="-27.2744385" lon="151.2900636">
  <ele>363.97</ele>
  <time>2026-09-01T19:56:36Z</time>
  <course>241.82</course>
  <speed>0.0</speed>
  <fix>3d</fix>
</trkpt>
<trkpt lat="-27.2744387" lon="151.2900638">
  <ele>364.18</ele>
  <time>2026-09-01T19:56:36Z</time>
  <course>10.67</course>
  <speed>0.022360679774997897</speed>
  <fix>3d</fix>
</trkpt>
<trkpt lat="-27.2744385" lon="151.2900636">
  <ele>363.97</ele>
  <time>2026-09-01T19:56:36Z</time>
  <course>241.82</course>
  <speed>0.0</speed>
  <fix>3d</fix>
</trkpt>
<trkpt lat="-27.2744386" lon="151.2900638">
  <ele>364.18</ele>
  <time>2026-09-01T19:56:36Z</time>
  <course>10.67</course>
  <speed>0.022360679774997897</speed>
  <fix>3d</fix>
</trkpt>
<trkpt lat="-27.2744385" lon="151.2900636">
  <ele>363.97</ele>
  <time>2026-09-01T19:56:36Z</time>
  <course>250.29</course>
  <speed>0.0</speed>
  <fix>3d</fix>
</trkpt>
<trkpt lat="-27.2744387" lon="151.2900638">
  <ele>364.18</ele>
  <time>2026-09-01T19:56:36Z</time>
  <course>10.68</course>
  <speed>0.022360679774997897</speed>
  <fix>3d</fix>
</trkpt>
<trkpt lat="-27.2744385" lon="151.2900636">
  <ele>363.97</ele>
  <time>2026-09-01T19:56:36Z</time>
  <course>250.29</course>
  <speed>0.0</speed>
  <fix>3d</fix>
</trkpt>
<trkpt lat="-27.2744386" lon="151.2900638">
  <ele>364.18</ele>
  <time>2026-09-01T19:56:36Z</time>
  <course>10.68</course>
  <speed>0.022360679774997897</speed>
  <fix>3d</fix>
</trkpt>
<trkpt lat="-27.2744385" lon="151.2900636">
  <ele>363.97</ele>
  <time>2026-09-01T19:56:36Z</time>
  <course>258.14</course>
  <speed>0.0</speed>
  <fix>3d</fix>
</trkpt>
<trkpt lat="-27.2744386" lon="151.2900638">
  <ele>364.18</ele>
  <time>2026-09-01T19:56:36Z</time>
  <course>10.69</course>
  <speed>0.022360679774997897</speed>
  <fix>3d</fix>
</trkpt>
<trkpt lat="-27.2744385" lon="151.2900636">
  <ele>363.97</ele>
  <time>2026-09-01T19:56:36Z</time>
  <course>258.14</course>
  <speed>0.0</speed>
  <fix>3d</fix>
</trkpt>
<trkpt lat="-27.2744386" lon="151.2900638">
  <ele>364.18</ele>
  <time>2026-09-01T19:56:36Z</time>
  <course>10.7</course>
  <speed>0.01414213562373095</speed>
  <fix>3d</fix>
</trkpt>
<trkpt lat="-27.2744385" lon="151.2900636">
  <ele>363.96</ele>
  <time>2026-09-01T19:56:36Z</time>
  <course>267.55</course>
  <speed>0.0</speed>
  <fix>3d</fix>
</trkpt>
<trkpt lat="-27.2744386" lon="151.2900638">
  <ele>364.18</ele>
  <time>2026-09-01T19:56:36Z</time>
  <course>10.7</course>
  <speed>0.01414213562373095</speed>
  <fix>3d</fix>
</trkpt>
<trkpt lat="-27.2744385" lon="151.2900636">
  <ele>363.96</ele>
  <time>2026-09-01T19:56:36Z</time>
  <course>267.55</course>
  <speed>0.0</speed>
  <fix>3d</fix>
</trkpt>
<trkpt lat="-27.2744386" lon="151.2900638">
  <ele>364.18</ele>
  <time>2026-09-01T19:56:36Z</time>
  <course>10.71</course>
  <speed>0.01414213562373095</speed>
  <fix>3d</fix>
</trkpt>
<trkpt lat="-27.2744385" lon="151.2900636">
  <ele>363.96</ele>
  <time>2026-09-01T19:56:36Z</time>
  <course>277.28</course>
  <speed>0.0</speed>
  <fix>3d</fix>
</trkpt>
<trkpt lat="-27.2744386" lon="151.2900638">
  <ele>364.18</ele>
  <time>2026-09-01T19:56:36Z</time>
  <course>10.71</course>
  <speed>0.01414213562373095</speed>
  <fix>3d</fix>
</trkpt>
<trkpt lat="-27.2744385" lon="151.2900636">
  <ele>363.96</ele>
  <time>2026-09-01T19:56:36Z</time>
  <course>277.28</course>
  <speed>0.0</speed>
  <fix>3d</fix>
</trkpt>
<trkpt lat="-27.2744386" lon="151.2900638">
  <ele>364.17</ele>
  <time>2026-09-01T19:56:36Z</time>
  <course>10.71</course>
  <speed>0.01414213562373095</speed>
  <fix>3d</fix>
</trkpt>
<trkpt lat="-27.2744385" lon="151.2900636">
  <ele>363.96</ele>
  <time>2026-09-01T19:56:36Z</time>
  <course>284.73</course>
  <speed>0.0</speed>
  <fix>3d</fix>
</trkpt>
<trkpt lat="-27.2744386" lon="151.2900638">
  <ele>364.17</ele>
  <time>2026-09-01T19:56:36Z</time>
  <course>10.71</course>
  <speed>0.01414213562373095</speed>
  <fix>3d</fix>
</trkpt>
<trkpt lat="-27.2744385" lon="151.2900636">
  <ele>363.96</ele>
  <time>2026-09-01T19:56:36Z</time>
  <course>284.73</course>
  <speed>0.0</speed>
  <fix>3d</fix>
</trkpt>
<trkpt lat="-27.2744386" lon="151.2900638">
  <ele>364.17</ele>
  <time>2026-09-01T19:56:36Z</time>
  <course>10.7</course>
  <speed>0.01414213562373095</speed>
  <fix>3d</fix>
</trkpt>
<trkpt lat="-27.2744385" lon="151.2900635">
  <ele>363.96</ele>
  <time>2026-09-01T19:56:36Z</time>
  <course>291.53</course>
  <speed>0.0</speed>
  <fix>3d</fix>
</trkpt>
<trkpt lat="-27.2744386" lon="151.2900637">
  <ele>364.17</ele>
  <time>2026-09-01T19:56:36Z</time>
  <course>10.68</course>
  <speed>0.01414213562373095</speed>
  <fix>3d</fix>
</trkpt>
<trkpt lat="-27.2744385" lon="151.2900635">
  <ele>363.96</ele>
  <time>2026-09-01T19:56:36Z</time>
  <course>291.53</course>
  <speed>0.0</speed>
  <fix>3d</fix>
</trkpt>
<trkpt lat="-27.2744386" lon="151.2900637">
  <ele>364.17</ele>
  <time>2026-09-01T19:56:36Z</time>
  <course>10.66</course>
  <speed>0.01414213562373095</speed>
  <fix>3d</fix>
</trkpt>
<trkpt lat="-27.2744385" lon="151.2900635">
  <ele>363.96</ele>
  <time>2026-09-01T19:56:36Z</time>
  <course>298.12</course>
  <speed>0.0</speed>
  <fix>3d</fix>
</trkpt>
<trkpt lat="-27.2744386" lon="151.2900637">
  <ele>364.17</ele>
  <time>2026-09-01T19:56:36Z</time>
  <course>10.65</course>
  <speed>0.01414213562373095</speed>
  <fix>3d</fix>
</trkpt>
<trkpt lat="-27.2744385" lon="151.2900635">
  <ele>363.96</ele>
  <time>2026-09-01T19:56:36Z</time>
  <course>298.12</course>
  <speed>0.0</speed>
  <fix>3d</fix>
</trkpt>
<trkpt lat="-27.2744386" lon="151.2900637">
  <ele>364.17</ele>
  <time>2026-09-01T19:56:36Z</time>
  <course>10.65</course>
  <speed>0.01414213562373095</speed>
  <fix>3d</fix>
</trkpt>
<trkpt lat="-27.2744385" lon="151.2900635">
  <ele>363.96</ele>
  <time>2026-09-01T19:56:36Z</time>
  <course>303.48</course>
  <speed>0.0</speed>
  <fix>3d</fix>
</trkpt>
<trkpt lat="-27.2744386" lon="151.2900637">
  <ele>364.17</ele>
  <time>2026-09-01T19:56:36Z</time>
  <course>10.65</course>
  <speed>0.01414213562373095</speed>
  <fix>3d</fix>
</trkpt>
<trkpt lat="-27.2744385" lon="151.2900635">
  <ele>363.96</ele>
  <time>2026-09-01T19:56:36Z</time>
  <course>303.48</course>
  <speed>0.0</speed>
  <fix>3d</fix>
</trkpt>
<trkpt lat="-27.2744386" lon="151.2900637">
  <ele>364.17</ele>
  <time>2026-09-01T19:56:36Z</time>
  <course>10.64</course>
  <speed>0.01414213562373095</speed>
  <fix>3d</fix>
</trkpt>
<trkpt lat="-27.2744385" lon="151.2900635">
  <ele>363.96</ele>
  <time>2026-09-01T19:56:36Z</time>
  <course>309.39</course>
  <speed>0.0</speed>
  <fix>3d</fix>
</trkpt>
<trkpt lat="-27.2744386" lon="151.2900637">
  <ele>364.17</ele>
  <time>2026-09-01T19:56:36Z</time>
  <course>10.64</course>
  <speed>0.01414213562373095</speed>
  <fix>3d</fix>
</trkpt>
<trkpt lat="-27.2744385" lon="151.2900635">
  <ele>363.96</ele>
  <time>2026-09-01T19:56:36Z</time>
  <course>309.39</course>
  <speed>0.0</speed>
  <fix>3d</fix>
</trkpt>
<trkpt lat="-27.2744386" lon="151.2900637">
  <ele>364.17</ele>
  <time>2026-09-01T19:56:36Z</time>
  <course>10.64</course>
  <speed>0.01414213562373095</speed>
  <fix>3d</fix>
</trkpt>
<trkpt lat="-27.2744385" lon="151.2900635">
  <ele>363.96</ele>
  <time>2026-09-01T19:56:36Z</time>
  <course>313.29</course>
  <speed>0.0</speed>
  <fix>3d</fix>
</trkpt>
<trkpt lat="-27.2744386" lon="151.2900637">
  <ele>364.17</ele>
  <time>2026-09-01T19:56:36Z</time>
  <course>10.64</course>
  <speed>0.01414213562373095</speed>
  <fix>3d</fix>
</trkpt>
<trkpt lat="-27.2744385" lon="151.2900635">
  <ele>363.96</ele>
  <time>2026-09-01T19:56:36Z</time>
  <course>313.29</course>
  <speed>0.0</speed>
  <fix>3d</fix>
</trkpt>
<trkpt lat="-27.2744386" lon="151.2900637">
  <ele>364.17</ele>
  <time>2026-09-01T19:56:36Z</time>
  <course>10.65</course>
  <speed>0.01414213562373095</speed>
  <fix>3d</fix>
</trkpt>
<trkpt lat="-27.2744385" lon="151.2900635">
  <ele>363.97</ele>
  <time>2026-09-01T19:56:36Z</time>
  <course>315.17</course>
  <speed>0.0</speed>
  <fix>3d</fix>
</trkpt>
<trkpt lat="-27.2744386" lon="151.2900637">
  <ele>364.17</ele>
  <time>2026-09-01T19:56:36Z</time>
  <course>10.67</course>
  <speed>0.01414213562373095</speed>
  <fix>3d</fix>
</trkpt>
<trkpt lat="-27.2744385" lon="151.2900635">
  <ele>363.97</ele>
  <time>2026-09-01T19:56:36Z</time>
  <course>315.17</course>
  <speed>0.0</speed>
  <fix>3d</fix>
</trkpt>
<trkpt lat="-27.2744386" lon="151.2900637">
  <ele>364.17</ele>
  <time>2026-09-01T19:56:36Z</time>
  <course>10.68</course>
  <speed>0.01414213562373095</speed>
  <fix>3d</fix>
</trkpt>
<trkpt lat="-27.2744385" lon="151.2900635">
  <ele>363.97</ele>
  <time>2026-09-01T19:56:36Z</time>
  <course>320.05</course>
  <speed>0.0</speed>
  <fix>3d</fix>
</trkpt>
<trkpt lat="-27.2744386" lon="151.2900637">
  <ele>364.17</ele>
  <time>2026-09-01T19:56:36Z</time>
  <course>10.69</course>
  <speed>0.01414213562373095</speed>
  <fix>3d</fix>
</trkpt>
<trkpt lat="-27.2744385" lon="151.2900635">
  <ele>363.97</ele>
  <time>2026-09-01T19:56:36Z</time>
  <course>320.05</course>
  <speed>0.0</speed>
  <fix>3d</fix>
</trkpt>
<trkpt lat="-27.2744386" lon="151.2900637">
  <ele>364.17</ele>
  <time>2026-09-01T19:56:36Z</time>
  <course>10.7</course>
  <speed>0.01414213562373095</speed>
  <fix>3d</fix>
</trkpt>
<trkpt lat="-27.2744385" lon="151.2900635">
  <ele>363.97</ele>
  <time>2026-09-01T19:56:36Z</time>
  <course>332.96</course>
  <speed>0.0</speed>
  <fix>3d</fix>
</trkpt>
<trkpt lat="-27.2744386" lon="151.2900637">
  <ele>364.17</ele>
  <time>2026-09-01T19:56:36Z</time>
  <course>10.7</course>
  <speed>0.01414213562373095</speed>
  <fix>3d</fix>
</trkpt>
<trkpt lat="-27.2744385" lon="151.2900635">
  <ele>363.97</ele>
  <time>2026-09-01T19:56:36Z</time>
  <course>332.96</course>
  <speed>0.0</speed>
  <fix>3d</fix>
</trkpt>
<trkpt lat="-27.2744386" lon="151.2900637">
  <ele>364.17</ele>
  <time>2026-09-01T19:56:36Z</time>
  <course>10.71</course>
  <speed>0.01414213562373095</speed>
  <fix>3d</fix>
</trkpt>
<trkpt lat="-27.2744385" lon="151.2900635">
  <ele>363.97</ele>
  <time>2026-09-01T19:56:36Z</time>
  <course>353.18</course>
  <speed>0.0</speed>
  <fix>3d</fix>
</trkpt>
<trkpt lat="-27.2744386" lon="151.2900637">
  <ele>364.18</ele>
  <time>2026-09-01T19:56:36Z</time>
  <course>10.71</course>
  <speed>0.01414213562373095</speed>
  <fix>3d</fix>
</trkpt>
<trkpt lat="-27.2744385" lon="151.2900635">
  <ele>363.97</ele>
  <time>2026-09-01T19:56:36Z</time>
  <course>353.18</course>
  <speed>0.0</speed>
  <fix>3d</fix>
</trkpt>
<trkpt lat="-27.2744386" lon="151.2900637">
  <ele>364.18</ele>
  <time>2026-09-01T19:56:36Z</time>
  <course>10.71</course>
  <speed>0.01414213562373095</speed>
  <fix>3d</fix>
</trkpt>
<trkpt lat="-27.2744385" lon="151.2900635">
  <ele>363.98</ele>
  <time>2026-09-01T19:56:36Z</time>
  <course>11.22</course>
  <speed>0.0</speed>
  <fix>3d</fix>
</trkpt>
<trkpt lat="-27.2744386" lon="151.2900637">
  <ele>364.18</ele>
  <time>2026-09-01T19:56:36Z</time>
  <course>10.71</course>
  <speed>0.01414213562373095</speed>
  <fix>3d</fix>
</trkpt>
<trkpt lat="-27.2744385" lon="151.2900635">
  <ele>363.98</ele>
  <time>2026-09-01T19:56:36Z</time>
  <course>11.22</course>
  <speed>0.0</speed>
  <fix>3d</fix>
</trkpt>
<trkpt lat="-27.2744386" lon="151.2900637">
  <ele>364.19</ele>
  <time>2026-09-01T19:56:36Z</time>
  <course>10.7</course>
  <speed>0.01414213562373095</speed>
  <fix>3d</fix>
</trkpt>
<trkpt lat="-27.2744385" lon="151.2900635">
  <ele>363.98</ele>
  <time>2026-09-01T19:56:36Z</time>
  <course>22.61</course>
  <speed>0.0</speed>
  <fix>3d</fix>
</trkpt>
<trkpt lat="-27.2744386" lon="151.2900637">
  <ele>364.19</ele>
  <time>2026-09-01T19:56:36Z</time>
  <course>10.7</course>
  <speed>0.01414213562373095</speed>
  <fix>3d</fix>
</trkpt>
<trkpt lat="-27.2744385" lon="151.2900635">
  <ele>363.98</ele>
  <time>2026-09-01T19:56:36Z</time>
  <course>22.61</course>
  <speed>0.0</speed>
  <fix>3d</fix>
</trkpt>
<trkpt lat="-27.2744386" lon="151.2900637">
  <ele>364.19</ele>
  <time>2026-09-01T19:56:36Z</time>
  <course>10.69</course>
  <speed>0.01414213562373095</speed>
  <fix>3d</fix>
</trkpt>
<trkpt lat="-27.2744385" lon="151.2900635">
  <ele>363.98</ele>
  <time>2026-09-01T19:56:36Z</time>
  <course>31.21</course>
  <speed>0.0</speed>
  <fix>3d</fix>
</trkpt>
<trkpt lat="-27.2744386" lon="151.2900637">
  <ele>364.19</ele>
  <time>2026-09-01T19:56:36Z</time>
  <course>10.68</course>
  <speed>0.022360679774997897</speed>
  <fix>3d</fix>
</trkpt>
<trkpt lat="-27.2744385" lon="151.2900635">
  <ele>363.98</ele>
  <time>2026-09-01T19:56:36Z</time>
  <course>31.21</course>
  <speed>0.0</speed>
  <fix>3d</fix>
</trkpt>
<trkpt lat="-27.2744386" lon="151.2900637">
  <ele>364.19</ele>
  <time>2026-09-01T19:56:36Z</time>
  <course>10.68</course>
  <speed>0.022360679774997897</speed>
  <fix>3d</fix>
</trkpt>
<trkpt lat="-27.2744385" lon="151.2900635">
  <ele>363.98</ele>
  <time>2026-09-01T19:56:36Z</time>
  <course>37.21</course>
  <speed>0.0</speed>
  <fix>3d</fix>
</trkpt>
<trkpt lat="-27.2744386" lon="151.2900637">
  <ele>364.19</ele>
  <time>2026-09-01T19:56:36Z</time>
  <course>10.67</course>
  <speed>0.022360679774997897</speed>
  <fix>3d</fix>
</trkpt>
<trkpt lat="-27.2744385" lon="151.2900635">
  <ele>363.98</ele>
  <time>2026-09-01T19:56:36Z</time>
  <course>37.21</course>
  <speed>0.0</speed>
  <fix>3d</fix>
</trkpt>
<trkpt lat="-27.2744386" lon="151.2900637">
  <ele>364.19</ele>
  <time>2026-09-01T19:56:36Z</time>
  <course>10.66</course>
  <speed>0.022360679774997897</speed>
  <fix>3d</fix>
</trkpt>
<trkpt lat="-27.2744385" lon="151.2900635">
  <ele>363.98</ele>
  <time>2026-09-01T19:56:36Z</time>
  <course>38.79</course>
  <speed>0.0</speed>
  <fix>3d</fix>
</trkpt>
<trkpt lat="-27.2744386" lon="151.2900637">
  <ele>364.19</ele>
  <time>2026-09-01T19:56:36Z</time>
  <course>10.66</course>
  <speed>0.022360679774997897</speed>
  <fix>3d</fix>
</trkpt>
<trkpt lat="-27.2744385" lon="151.2900635">
  <ele>363.98</ele>
  <time>2026-09-01T19:56:36Z</time>
  <course>38.79</course>
  <speed>0.0</speed>
  <fix>3d</fix>
</trkpt>
<trkpt lat="-27.2744386" lon="151.2900637">
  <ele>364.19</ele>
  <time>2026-09-01T19:56:36Z</time>
  <course>10.66</course>
  <speed>0.022360679774997897</speed>
  <fix>3d</fix>
</trkpt>
<trkpt lat="-27.2744385" lon="151.2900635">
  <ele>363.98</ele>
  <time>2026-09-01T19:56:36Z</time>
  <course>39.72</course>
  <speed>0.01</speed>
  <fix>3d</fix>
</trkpt>
<trkpt lat="-27.2744386" lon="151.2900637">
  <ele>364.19</ele>
  <time>2026-09-01T19:56:36Z</time>
  <course>10.66</course>
  <speed>0.022360679774997897</speed>
  <fix>3d</fix>
</trkpt>
<trkpt lat="-27.2744385" lon="151.2900635">
  <ele>363.98</ele>
  <time>2026-09-01T19:56:36Z</time>
  <course>39.72</course>
  <speed>0.01</speed>
  <fix>3d</fix>
</trkpt>
<trkpt lat="-27.2744386" lon="151.2900637">
  <ele>364.19</ele>
  <time>2026-09-01T19:56:36Z</time>
  <course>10.67</course>
  <speed>0.022360679774997897</speed>
  <fix>3d</fix>
</trkpt>
<trkpt lat="-27.2744385" lon="151.2900635">
  <ele>363.97</ele>
  <time>2026-09-01T19:56:36Z</time>
  <course>42.34</course>
  <speed>0.01</speed>
  <fix>3d</fix>
</trkpt>
<trkpt lat="-27.2744386" lon="151.2900637">
  <ele>364.18</ele>
  <time>2026-09-01T19:56:36Z</time>
  <course>10.67</course>
  <speed>0.0282842712474619</speed>
  <fix>3d</fix>
</trkpt>
<trkpt lat="-27.2744385" lon="151.2900635">
  <ele>363.97</ele>
  <time>2026-09-01T19:56:36Z</time>
  <course>42.34</course>
  <speed>0.01</speed>
  <fix>3d</fix>
</trkpt>
<trkpt lat="-27.2744386" lon="151.2900637">
  <ele>364.18</ele>
  <time>2026-09-01T19:56:36Z</time>
  <course>10.68</course>
  <speed>0.0282842712474619</speed>
  <fix>3d</fix>
</trkpt>
<trkpt lat="-27.2744385" lon="151.2900635">
  <ele>363.97</ele>
  <time>2026-09-01T19:56:36Z</time>
  <course>44.9</course>
  <speed>0.01</speed>
  <fix>3d</fix>
</trkpt>
<trkpt lat="-27.2744386" lon="151.2900637">
  <ele>364.17</ele>
  <time>2026-09-01T19:56:36Z</time>
  <course>10.68</course>
  <speed>0.0282842712474619</speed>
  <fix>3d</fix>
</trkpt>
<trkpt lat="-27.2744385" lon="151.2900635">
  <ele>363.97</ele>
  <time>2026-09-01T19:56:36Z</time>
  <course>44.9</course>
  <speed>0.01</speed>
  <fix>3d</fix>
</trkpt>
<trkpt lat="-27.2744386" lon="151.2900637">
  <ele>364.17</ele>
  <time>2026-09-01T19:56:36Z</time>
  <course>10.69</course>
  <speed>0.0282842712474619</speed>
  <fix>3d</fix>
</trkpt>
<trkpt lat="-27.2744384" lon="151.2900635">
  <ele>363.96</ele>
  <time>2026-09-01T19:56:36Z</time>
  <course>47.16</course>
  <speed>0.01</speed>
  <fix>3d</fix>
</trkpt>
<trkpt lat="-27.2744386" lon="151.2900637">
  <ele>364.17</ele>
  <time>2026-09-01T19:56:36Z</time>
  <course>10.69</course>
  <speed>0.0282842712474619</speed>
  <fix>3d</fix>
</trkpt>
<trkpt lat="-27.2744384" lon="151.2900635">
  <ele>363.96</ele>
  <time>2026-09-01T19:56:36Z</time>
  <course>47.16</course>
  <speed>0.01</speed>
  <fix>3d</fix>
</trkpt>
<trkpt lat="-27.2744386" lon="151.2900637">
  <ele>364.17</ele>
  <time>2026-09-01T19:56:36Z</time>
  <course>10.69</course>
  <speed>0.0282842712474619</speed>
  <fix>3d</fix>
</trkpt>
<trkpt lat="-27.2744384" lon="151.2900635">
  <ele>363.96</ele>
  <time>2026-09-01T19:56:36Z</time>
  <course>48.77</course>
  <speed>0.01</speed>
  <fix>3d</fix>
</trkpt>
<trkpt lat="-27.2744386" lon="151.2900637">
  <ele>364.17</ele>
  <time>2026-09-01T19:56:36Z</time>
  <course>10.68</course>
  <speed>0.0282842712474619</speed>
  <fix>3d</fix>
</trkpt>
<trkpt lat="-27.2744384" lon="151.2900635">
  <ele>363.96</ele>
  <time>2026-09-01T19:56:36Z</time>
  <course>48.77</course>
  <speed>0.01</speed>
  <fix>3d</fix>
</trkpt>
<trkpt lat="-27.2744386" lon="151.2900637">
  <ele>364.17</ele>
  <time>2026-09-01T19:56:36Z</time>
  <course>10.67</course>
  <speed>0.0282842712474619</speed>
  <fix>3d</fix>
</trkpt>
<trkpt lat="-27.2744384" lon="151.2900635">
  <ele>363.96</ele>
  <time>2026-09-01T19:56:36Z</time>
  <course>49.04</course>
  <speed>0.01</speed>
  <fix>3d</fix>
</trkpt>
<trkpt lat="-27.2744386" lon="151.2900637">
  <ele>364.17</ele>
  <time>2026-09-01T19:56:36Z</time>
  <course>10.67</course>
  <speed>0.022360679774997897</speed>
  <fix>3d</fix>
</trkpt>
<trkpt lat="-27.2744384" lon="151.2900635">
  <ele>363.96</ele>
  <time>2026-09-01T19:56:36Z</time>
  <course>49.04</course>
  <speed>0.01</speed>
  <fix>3d</fix>
</trkpt>
<trkpt lat="-27.2744386" lon="151.2900637">
  <ele>364.17</ele>
  <time>2026-09-01T19:56:36Z</time>
  <course>10.67</course>
  <speed>0.022360679774997897</speed>
  <fix>3d</fix>
</trkpt>
<trkpt lat="-27.2744384" lon="151.2900635">
  <ele>363.96</ele>
  <time>2026-09-01T19:56:36Z</time>
  <course>48.51</course>
  <speed>0.01</speed>
  <fix>3d</fix>
</trkpt>
<trkpt lat="-27.2744386" lon="151.2900637">
  <ele>364.16</ele>
  <time>2026-09-01T19:56:36Z</time>
  <course>10.67</course>
  <speed>0.022360679774997897</speed>
  <fix>3d</fix>
</trkpt>
<trkpt lat="-27.2744384" lon="151.2900635">
  <ele>363.96</ele>
  <time>2026-09-01T19:56:36Z</time>
  <course>48.51</course>
  <speed>0.01</speed>
  <fix>3d</fix>
</trkpt>
<trkpt lat="-27.2744386" lon="151.2900637">
  <ele>364.16</ele>
  <time>2026-09-01T19:56:36Z</time>
  <course>10.67</course>
  <speed>0.022360679774997897</speed>
  <fix>3d</fix>
</trkpt>
<trkpt lat="-27.2744384" lon="151.2900635">
  <ele>363.96</ele>
  <time>2026-09-01T19:56:36Z</time>
  <course>47.93</course>
  <speed>0.01</speed>
  <fix>3d</fix>
</trkpt>
<trkpt lat="-27.2744386" lon="151.2900637">
  <ele>364.16</ele>
  <time>2026-09-01T19:56:36Z</time>
  <course>10.67</course>
  <speed>0.022360679774997897</speed>
  <fix>3d</fix>
</trkpt>
<trkpt lat="-27.2744384" lon="151.2900635">
  <ele>363.96</ele>
  <time>2026-09-01T19:56:36Z</time>
  <course>47.93</course>
  <speed>0.01</speed>
  <fix>3d</fix>
</trkpt>
<trkpt lat="-27.2744386" lon="151.2900637">
  <ele>364.17</ele>
  <time>2026-09-01T19:56:36Z</time>
  <course>10.68</course>
  <speed>0.022360679774997897</speed>
  <fix>3d</fix>
</trkpt>
<trkpt lat="-27.2744384" lon="151.2900635">
  <ele>363.97</ele>
  <time>2026-09-01T19:56:36Z</time>
  <course>49.08</course>
  <speed>0.01</speed>
  <fix>3d</fix>
</trkpt>
<trkpt lat="-27.2744386" lon="151.2900637">
  <ele>364.17</ele>
  <time>2026-09-01T19:56:36Z</time>
  <course>10.68</course>
  <speed>0.022360679774997897</speed>
  <fix>3d</fix>
</trkpt>
<trkpt lat="-27.2744384" lon="151.2900635">
  <ele>363.97</ele>
  <time>2026-09-01T19:56:36Z</time>
  <course>49.08</course>
  <speed>0.01</speed>
  <fix>3d</fix>
</trkpt>
<trkpt lat="-27.2744386" lon="151.2900637">
  <ele>364.17</ele>
  <time>2026-09-01T19:56:36Z</time>
  <course>10.69</course>
  <speed>0.022360679774997897</speed>
  <fix>3d</fix>
</trkpt>
<trkpt lat="-27.2744384" lon="151.2900636">
  <ele>363.97</ele>
  <time>2026-09-01T19:56:36Z</time>
  <course>52.15</course>
  <speed>0.01</speed>
  <fix>3d</fix>
</trkpt>
<trkpt lat="-27.2744386" lon="151.2900637">
  <ele>364.17</ele>
  <time>2026-09-01T19:56:36Z</time>
  <course>10.69</course>
  <speed>0.022360679774997897</speed>
  <fix>3d</fix>
</trkpt>
<trkpt lat="-27.2744384" lon="151.2900636">
  <ele>363.97</ele>
  <time>2026-09-01T19:56:36Z</time>
  <course>52.15</course>
  <speed>0.01</speed>
  <fix>3d</fix>
</trkpt>
<trkpt lat="-27.2744386" lon="151.2900637">
  <ele>364.17</ele>
  <time>2026-09-01T19:56:36Z</time>
  <course>10.7</course>
  <speed>0.022360679774997897</speed>
  <fix>3d</fix>
</trkpt>
<trkpt lat="-27.2744384" lon="151.2900636">
  <ele>363.97</ele>
  <time>2026-09-01T19:56:36Z</time>
  <course>56.04</course>
  <speed>0.01</speed>
  <fix>3d</fix>
</trkpt>
<trkpt lat="-27.2744386" lon="151.2900637">
  <ele>364.18</ele>
  <time>2026-09-01T19:56:36Z</time>
  <course>10.7</course>
  <speed>0.022360679774997897</speed>
  <fix>3d</fix>
</trkpt>
<trkpt lat="-27.2744384" lon="151.2900636">
  <ele>363.97</ele>
  <time>2026-09-01T19:56:36Z</time>
  <course>56.04</course>
  <speed>0.01</speed>
  <fix>3d</fix>
</trkpt>
<trkpt lat="-27.2744386" lon="151.2900637">
  <ele>364.18</ele>
  <time>2026-09-01T19:56:36Z</time>
  <course>10.7</course>
  <speed>0.022360679774997897</speed>
  <fix>3d</fix>
</trkpt>
<trkpt lat="-27.2744383" lon="151.2900636">
  <ele>363.98</ele>
  <time>2026-09-01T19:56:36Z</time>
  <course>60.28</course>
  <speed>0.01</speed>
  <fix>3d</fix>
</trkpt>
<trkpt lat="-27.2744386" lon="151.2900637">
  <ele>364.18</ele>
  <time>2026-09-01T19:56:36Z</time>
  <course>10.7</course>
  <speed>0.022360679774997897</speed>
  <fix>3d</fix>
</trkpt>
<trkpt lat="-27.2744383" lon="151.2900636">
  <ele>363.98</ele>
  <time>2026-09-01T19:56:36Z</time>
  <course>60.28</course>
  <speed>0.01</speed>
  <fix>3d</fix>
</trkpt>
<trkpt lat="-27.2744386" lon="151.2900637">
  <ele>364.18</ele>
  <time>2026-09-01T19:56:36Z</time>
  <course>10.7</course>
  <speed>0.022360679774997897</speed>
  <fix>3d</fix>
</trkpt>
<trkpt lat="-27.2744383" lon="151.2900636">
  <ele>363.98</ele>
  <time>2026-09-01T19:56:36Z</time>
  <course>64.49</course>
  <speed>0.01</speed>
  <fix>3d</fix>
</trkpt>
<trkpt lat="-27.2744386" lon="151.2900637">
  <ele>364.18</ele>
  <time>2026-09-01T19:56:36Z</time>
  <course>10.71</course>
  <speed>0.022360679774997897</speed>
  <fix>3d</fix>
</trkpt>
<trkpt lat="-27.2744383" lon="151.2900636">
  <ele>363.98</ele>
  <time>2026-09-01T19:56:36Z</time>
  <course>64.49</course>
  <speed>0.01</speed>
  <fix>3d</fix>
</trkpt>
<trkpt lat="-27.2744386" lon="151.2900637">
  <ele>364.18</ele>
  <time>2026-09-01T19:56:36Z</time>
  <course>10.71</course>
  <speed>0.022360679774997897</speed>
  <fix>3d</fix>
</trkpt>
<trkpt lat="-27.2744383" lon="151.2900636">
  <ele>363.98</ele>
  <time>2026-09-01T19:56:36Z</time>
  <course>69.06</course>
  <speed>0.01</speed>
  <fix>3d</fix>
</trkpt>
<trkpt lat="-27.2744386" lon="151.2900637">
  <ele>364.18</ele>
  <time>2026-09-01T19:56:36Z</time>
  <course>10.7</course>
  <speed>0.022360679774997897</speed>
  <fix>3d</fix>
</trkpt>
<trkpt lat="-27.2744383" lon="151.2900636">
  <ele>363.98</ele>
  <time>2026-09-01T19:56:36Z</time>
  <course>69.06</course>
  <speed>0.01</speed>
  <fix>3d</fix>
</trkpt>
<trkpt lat="-27.2744386" lon="151.2900637">
  <ele>364.18</ele>
  <time>2026-09-01T19:56:36Z</time>
  <course>10.7</course>
  <speed>0.022360679774997897</speed>
  <fix>3d</fix>
</trkpt>
<trkpt lat="-27.2744383" lon="151.2900637">
  <ele>363.98</ele>
  <time>2026-09-01T19:56:36Z</time>
  <course>72.29</course>
  <speed>0.01</speed>
  <fix>3d</fix>
</trkpt>
<trkpt lat="-27.2744386" lon="151.2900637">
  <ele>364.18</ele>
  <time>2026-09-01T19:56:36Z</time>
  <course>10.7</course>
  <speed>0.022360679774997897</speed>
  <fix>3d</fix>
</trkpt>
<trkpt lat="-27.2744383" lon="151.2900637">
  <ele>363.98</ele>
  <time>2026-09-01T19:56:36Z</time>
  <course>72.29</course>
  <speed>0.01</speed>
  <fix>3d</fix>
</trkpt>
<trkpt lat="-27.2744386" lon="151.2900637">
  <ele>364.18</ele>
  <time>2026-09-01T19:56:36Z</time>
  <course>10.7</course>
  <speed>0.022360679774997897</speed>
  <fix>3d</fix>
</trkpt>
<trkpt lat="-27.2744383" lon="151.2900637">
  <ele>363.98</ele>
  <time>2026-09-01T19:56:36Z</time>
  <course>74.46</course>
  <speed>0.01</speed>
  <fix>3d</fix>
</trkpt>
<trkpt lat="-27.2744386" lon="151.2900637">
  <ele>364.18</ele>
  <time>2026-09-01T19:56:36Z</time>
  <course>10.69</course>
  <speed>0.022360679774997897</speed>
  <fix>3d</fix>
</trkpt>
<trkpt lat="-27.2744383" lon="151.2900637">
  <ele>363.98</ele>
  <time>2026-09-01T19:56:36Z</time>
  <course>74.46</course>
  <speed>0.01</speed>
  <fix>3d</fix>
</trkpt>
<trkpt lat="-27.2744386" lon="151.2900638">
  <ele>364.18</ele>
  <time>2026-09-01T19:56:36Z</time>
  <course>10.69</course>
  <speed>0.022360679774997897</speed>
  <fix>3d</fix>
</trkpt>
<trkpt lat="-27.2744383" lon="151.2900637">
  <ele>363.98</ele>
  <time>2026-09-01T19:56:36Z</time>
  <course>79.32</course>
  <speed>0.0</speed>
  <fix>3d</fix>
</trkpt>
<trkpt lat="-27.2744386" lon="151.2900638">
  <ele>364.17</ele>
  <time>2026-09-01T19:56:36Z</time>
  <course>10.68</course>
  <speed>0.022360679774997897</speed>
  <fix>3d</fix>
</trkpt>
<trkpt lat="-27.2744383" lon="151.2900637">
  <ele>363.98</ele>
  <time>2026-09-01T19:56:36Z</time>
  <course>79.32</course>
  <speed>0.0</speed>
  <fix>3d</fix>
</trkpt>
<trkpt lat="-27.2744386" lon="151.2900638">
  <ele>364.17</ele>
  <time>2026-09-01T19:56:36Z</time>
  <course>10.68</course>
  <speed>0.022360679774997897</speed>
  <fix>3d</fix>
</trkpt>
<trkpt lat="-27.2744383" lon="151.2900637">
  <ele>363.98</ele>
  <time>2026-09-01T19:56:36Z</time>
  <course>86.8</course>
  <speed>0.0</speed>
  <fix>3d</fix>
</trkpt>
<trkpt lat="-27.2744386" lon="151.2900638">
  <ele>364.17</ele>
  <time>2026-09-01T19:56:36Z</time>
  <course>10.68</course>
  <speed>0.022360679774997897</speed>
  <fix>3d</fix>
</trkpt>
<trkpt lat="-27.2744383" lon="151.2900637">
  <ele>363.98</ele>
  <time>2026-09-01T19:56:36Z</time>
  <course>86.8</course>
  <speed>0.0</speed>
  <fix>3d</fix>
</trkpt>
<trkpt lat="-27.2744386" lon="151.2900638">
  <ele>364.17</ele>
  <time>2026-09-01T19:56:36Z</time>
  <course>10.68</course>
  <speed>0.022360679774997897</speed>
  <fix>3d</fix>
</trkpt>
<trkpt lat="-27.2744383" lon="151.2900637">
  <ele>363.98</ele>
  <time>2026-09-01T19:56:36Z</time>
  <course>94.35</course>
  <speed>0.0</speed>
  <fix>3d</fix>
</trkpt>
<trkpt lat="-27.2744386" lon="151.2900638">
  <ele>364.17</ele>
  <time>2026-09-01T19:56:36Z</time>
  <course>10.67</course>
  <speed>0.022360679774997897</speed>
  <fix>3d</fix>
</trkpt>
<trkpt lat="-27.2744383" lon="151.2900637">
  <ele>363.98</ele>
  <time>2026-09-01T19:56:36Z</time>
  <course>94.35</course>
  <speed>0.0</speed>
  <fix>3d</fix>
</trkpt>
<trkpt lat="-27.2744386" lon="151.2900638">
  <ele>364.17</ele>
  <time>2026-09-01T19:56:36Z</time>
  <course>10.67</course>
  <speed>0.022360679774997897</speed>
  <fix>3d</fix>
</trkpt>
<trkpt lat="-27.2744383" lon="151.2900637">
  <ele>363.98</ele>
  <time>2026-09-01T19:56:36Z</time>
  <course>98.97</course>
  <speed>0.0</speed>
  <fix>3d</fix>
</trkpt>
<trkpt lat="-27.2744386" lon="151.2900638">
  <ele>364.17</ele>
  <time>2026-09-01T19:56:36Z</time>
  <course>10.67</course>
  <speed>0.022360679774997897</speed>
  <fix>3d</fix>
</trkpt>
<trkpt lat="-27.2744383" lon="151.2900637">
  <ele>363.98</ele>
  <time>2026-09-01T19:56:36Z</time>
  <course>98.97</course>
  <speed>0.0</speed>
  <fix>3d</fix>
</trkpt>
<trkpt lat="-27.2744386" lon="151.2900638">
  <ele>364.17</ele>
  <time>2026-09-01T19:56:36Z</time>
  <course>10.67</course>
  <speed>0.022360679774997897</speed>
  <fix>3d</fix>
</trkpt>
<trkpt lat="-27.2744383" lon="151.2900637">
  <ele>363.99</ele>
  <time>2026-09-01T19:56:36Z</time>
  <course>99.29</course>
  <speed>0.0</speed>
  <fix>3d</fix>
</trkpt>
<trkpt lat="-27.2744386" lon="151.2900638">
  <ele>364.17</ele>
  <time>2026-09-01T19:56:36Z</time>
  <course>10.67</course>
  <speed>0.022360679774997897</speed>
  <fix>3d</fix>
</trkpt>
<trkpt lat="-27.2744383" lon="151.2900637">
  <ele>363.99</ele>
  <time>2026-09-01T19:56:36Z</time>
  <course>99.29</course>
  <speed>0.0</speed>
  <fix>3d</fix>
</trkpt>
<trkpt lat="-27.2744386" lon="151.2900638">
  <ele>364.18</ele>
  <time>2026-09-01T19:56:36Z</time>
  <course>10.67</course>
  <speed>0.022360679774997897</speed>
  <fix>3d</fix>
</trkpt>
<trkpt lat="-27.2744383" lon="151.2900637">
  <ele>363.99</ele>
  <time>2026-09-01T19:56:36Z</time>
  <course>98.15</course>
  <speed>0.0</speed>
  <fix>3d</fix>
</trkpt>
<trkpt lat="-27.2744386" lon="151.2900638">
  <ele>364.18</ele>
  <time>2026-09-01T19:56:36Z</time>
  <course>10.68</course>
  <speed>0.022360679774997897</speed>
  <fix>3d</fix>
</trkpt>
<trkpt lat="-27.2744383" lon="151.2900637">
  <ele>363.99</ele>
  <time>2026-09-01T19:56:36Z</time>
  <course>98.15</course>
  <speed>0.0</speed>
  <fix>3d</fix>
</trkpt>
<trkpt lat="-27.2744386" lon="151.2900638">
  <ele>364.18</ele>
  <time>2026-09-01T19:56:36Z</time>
  <course>10.68</course>
  <speed>0.022360679774997897</speed>
  <fix>3d</fix>
</trkpt>
<trkpt lat="-27.2744383" lon="151.2900637">
  <ele>363.99</ele>
  <time>2026-09-01T19:56:36Z</time>
  <course>104.42</course>
  <speed>0.0</speed>
  <fix>3d</fix>
</trkpt>
<trkpt lat="-27.2744386" lon="151.2900638">
  <ele>364.18</ele>
  <time>2026-09-01T19:56:36Z</time>
  <course>10.68</course>
  <speed>0.022360679774997897</speed>
  <fix>3d</fix>
</trkpt>
<trkpt lat="-27.2744383" lon="151.2900637">
  <ele>363.99</ele>
  <time>2026-09-01T19:56:36Z</time>
  <course>104.42</course>
  <speed>0.0</speed>
  <fix>3d</fix>
</trkpt>
<trkpt lat="-27.2744386" lon="151.2900638">
  <ele>364.19</ele>
  <time>2026-09-01T19:56:36Z</time>
  <course>10.68</course>
  <speed>0.022360679774997897</speed>
  <fix>3d</fix>
</trkpt>
<trkpt lat="-27.2744383" lon="151.2900637">
  <ele>363.99</ele>
  <time>2026-09-01T19:56:36Z</time>
  <course>123.72</course>
  <speed>0.0</speed>
  <fix>3d</fix>
</trkpt>
<trkpt lat="-27.2744386" lon="151.2900638">
  <ele>364.18</ele>
  <time>2026-09-01T19:56:36Z</time>
  <course>10.68</course>
  <speed>0.022360679774997897</speed>
  <fix>3d</fix>
</trkpt>
<trkpt lat="-27.2744383" lon="151.2900637">
  <ele>363.99</ele>
  <time>2026-09-01T19:56:36Z</time>
  <course>123.72</course>
  <speed>0.0</speed>
  <fix>3d</fix>
</trkpt>
<trkpt lat="-27.2744386" lon="151.2900638">
  <ele>364.18</ele>
  <time>2026-09-01T19:56:36Z</time>
  <course>10.67</course>
  <speed>0.022360679774997897</speed>
  <fix>3d</fix>
</trkpt>
<trkpt lat="-27.2744383" lon="151.2900637">
  <ele>363.99</ele>
  <time>2026-09-01T19:56:36Z</time>
  <course>144.16</course>
  <speed>0.0</speed>
  <fix>3d</fix>
</trkpt>
<trkpt lat="-27.2744386" lon="151.2900638">
  <ele>364.18</ele>
  <time>2026-09-01T19:56:36Z</time>
  <course>10.67</course>
  <speed>0.0316227766016838</speed>
  <fix>3d</fix>
</trkpt>
<trkpt lat="-27.2744383" lon="151.2900637">
  <ele>363.99</ele>
  <time>2026-09-01T19:56:36Z</time>
  <course>144.16</course>
  <speed>0.0</speed>
  <fix>3d</fix>
</trkpt>
<trkpt lat="-27.2744386" lon="151.2900638">
  <ele>364.18</ele>
  <time>2026-09-01T19:56:36Z</time>
  <course>10.67</course>
  <speed>0.03</speed>
  <fix>3d</fix>
</trkpt>
<trkpt lat="-27.2744383" lon="151.2900637">
  <ele>363.99</ele>
  <time>2026-09-01T19:56:36Z</time>
  <course>159.04</course>
  <speed>0.0</speed>
  <fix>3d</fix>
</trkpt>
<trkpt lat="-27.2744386" lon="151.2900638">
  <ele>364.17</ele>
  <time>2026-09-01T19:56:36Z</time>
  <course>10.67</course>
  <speed>0.03</speed>
  <fix>3d</fix>
</trkpt>
<trkpt lat="-27.2744383" lon="151.2900637">
  <ele>363.99</ele>
  <time>2026-09-01T19:56:36Z</time>
  <course>159.04</course>
  <speed>0.0</speed>
  <fix>3d</fix>
</trkpt>
<trkpt lat="-27.2744386" lon="151.2900638">
  <ele>364.17</ele>
  <time>2026-09-01T19:56:36Z</time>
  <course>10.68</course>
  <speed>0.03</speed>
  <fix>3d</fix>
</trkpt>
<trkpt lat="-27.2744383" lon="151.2900637">
  <ele>363.99</ele>
  <time>2026-09-01T19:56:36Z</time>
  <course>170.86</course>
  <speed>0.0</speed>
  <fix>3d</fix>
</trkpt>
<trkpt lat="-27.2744386" lon="151.2900638">
  <ele>364.17</ele>
  <time>2026-09-01T19:56:36Z</time>
  <course>10.68</course>
  <speed>0.03</speed>
  <fix>3d</fix>
</trkpt>
<trkpt lat="-27.2744383" lon="151.2900637">
  <ele>363.99</ele>
  <time>2026-09-01T19:56:36Z</time>
  <course>170.86</course>
  <speed>0.0</speed>
  <fix>3d</fix>
</trkpt>
<trkpt lat="-27.2744386" lon="151.2900638">
  <ele>364.17</ele>
  <time>2026-09-01T19:56:36Z</time>
  <course>10.68</course>
  <speed>0.03</speed>
  <fix>3d</fix>
</trkpt>
<trkpt lat="-27.2744383" lon="151.2900637">
  <ele>363.99</ele>
  <time>2026-09-01T19:56:36Z</time>
  <course>177.44</course>
  <speed>0.0</speed>
  <fix>3d</fix>
</trkpt>
<trkpt lat="-27.2744386" lon="151.2900638">
  <ele>364.17</ele>
  <time>2026-09-01T19:56:36Z</time>
  <course>10.69</course>
  <speed>0.03</speed>
  <fix>3d</fix>
</trkpt>
<trkpt lat="-27.2744383" lon="151.2900637">
  <ele>363.99</ele>
  <time>2026-09-01T19:56:36Z</time>
  <course>177.44</course>
  <speed>0.0</speed>
  <fix>3d</fix>
</trkpt>
<trkpt lat="-27.2744386" lon="151.2900638">
  <ele>364.17</ele>
  <time>2026-09-01T19:56:36Z</time>
  <course>10.7</course>
  <speed>0.03</speed>
  <fix>3d</fix>
</trkpt>
<trkpt lat="-27.2744383" lon="151.2900637">
  <ele>363.99</ele>
  <time>2026-09-01T19:56:36Z</time>
  <course>176.91</course>
  <speed>0.0</speed>
  <fix>3d</fix>
</trkpt>
<trkpt lat="-27.2744386" lon="151.2900638">
  <ele>364.17</ele>
  <time>2026-09-01T19:56:36Z</time>
  <course>10.7</course>
  <speed>0.03</speed>
  <fix>3d</fix>
</trkpt>
<trkpt lat="-27.2744383" lon="151.2900637">
  <ele>363.99</ele>
  <time>2026-09-01T19:56:36Z</time>
  <course>176.91</course>
  <speed>0.0</speed>
  <fix>3d</fix>
</trkpt>
<trkpt lat="-27.2744386" lon="151.2900638">
  <ele>364.17</ele>
  <time>2026-09-01T19:56:36Z</time>
  <course>10.7</course>
  <speed>0.03</speed>
  <fix>3d</fix>
</trkpt>
<trkpt lat="-27.2744383" lon="151.2900637">
  <ele>363.99</ele>
  <time>2026-09-01T19:56:36Z</time>
  <course>176.62</course>
  <speed>0.0</speed>
  <fix>3d</fix>
</trkpt>
<trkpt lat="-27.2744386" lon="151.2900638">
  <ele>364.18</ele>
  <time>2026-09-01T19:56:36Z</time>
  <course>10.71</course>
  <speed>0.03</speed>
  <fix>3d</fix>
</trkpt>
<trkpt lat="-27.2744383" lon="151.2900637">
  <ele>363.99</ele>
  <time>2026-09-01T19:56:36Z</time>
  <course>176.62</course>
  <speed>0.0</speed>
  <fix>3d</fix>
</trkpt>
<trkpt lat="-27.2744386" lon="151.2900638">
  <ele>364.18</ele>
  <time>2026-09-01T19:56:37Z</time>
  <course>10.71</course>
  <speed>0.03</speed>
  <fix>3d</fix>
</trkpt>
<trkpt lat="-27.2744383" lon="151.2900637">
  <ele>363.99</ele>
  <time>2026-09-01T19:56:37Z</time>
  <course>178.33</course>
  <speed>0.0</speed>
  <fix>3d</fix>
</trkpt>
<trkpt lat="-27.2744386" lon="151.2900638">
  <ele>364.18</ele>
  <time>2026-09-01T19:56:37Z</time>
  <course>10.71</course>
  <speed>0.03</speed>
  <fix>3d</fix>
</trkpt>
<trkpt lat="-27.2744383" lon="151.2900637">
  <ele>363.99</ele>
  <time>2026-09-01T19:56:37Z</time>
  <course>178.33</course>
  <speed>0.0</speed>
  <fix>3d</fix>
</trkpt>
<trkpt lat="-27.2744386" lon="151.2900638">
  <ele>364.18</ele>
  <time>2026-09-01T19:56:37Z</time>
  <course>10.7</course>
  <speed>0.02</speed>
  <fix>3d</fix>
</trkpt>
<trkpt lat="-27.2744383" lon="151.2900637">
  <ele>363.99</ele>
  <time>2026-09-01T19:56:37Z</time>
  <course>179.57</course>
  <speed>0.0</speed>
  <fix>3d</fix>
</trkpt>
<trkpt lat="-27.2744386" lon="151.2900638">
  <ele>364.18</ele>
  <time>2026-09-01T19:56:37Z</time>
  <course>10.7</course>
  <speed>0.02</speed>
  <fix>3d</fix>
</trkpt>
<trkpt lat="-27.2744383" lon="151.2900637">
  <ele>363.99</ele>
  <time>2026-09-01T19:56:37Z</time>
  <course>179.57</course>
  <speed>0.0</speed>
  <fix>3d</fix>
</trkpt>
<trkpt lat="-27.2744386" lon="151.2900638">
  <ele>364.19</ele>
  <time>2026-09-01T19:56:37Z</time>
  <course>10.7</course>
  <speed>0.02</speed>
  <fix>3d</fix>
</trkpt>
<trkpt lat="-27.2744383" lon="151.2900637">
  <ele>364.0</ele>
  <time>2026-09-01T19:56:37Z</time>
  <course>181.75</course>
  <speed>0.0</speed>
  <fix>3d</fix>
</trkpt>
<trkpt lat="-27.2744386" lon="151.2900638">
  <ele>364.19</ele>
  <time>2026-09-01T19:56:37Z</time>
  <course>10.69</course>
  <speed>0.02</speed>
  <fix>3d</fix>
</trkpt>
<trkpt lat="-27.2744383" lon="151.2900637">
  <ele>364.0</ele>
  <time>2026-09-01T19:56:37Z</time>
  <course>181.75</course>
  <speed>0.0</speed>
  <fix>3d</fix>
</trkpt>
<trkpt lat="-27.2744386" lon="151.2900638">
  <ele>364.19</ele>
  <time>2026-09-01T19:56:37Z</time>
  <course>10.69</course>
  <speed>0.02</speed>
  <fix>3d</fix>
</trkpt>
<trkpt lat="-27.2744384" lon="151.2900637">
  <ele>364.0</ele>
  <time>2026-09-01T19:56:37Z</time>
  <course>185.05</course>
  <speed>0.0</speed>
  <fix>3d</fix>
</trkpt>
<trkpt lat="-27.2744386" lon="151.2900638">
  <ele>364.19</ele>
  <time>2026-09-01T19:56:37Z</time>
  <course>10.69</course>
  <speed>0.02</speed>
  <fix>3d</fix>
</trkpt>
<trkpt lat="-27.2744384" lon="151.2900637">
  <ele>364.0</ele>
  <time>2026-09-01T19:56:37Z</time>
  <course>185.05</course>
  <speed>0.0</speed>
  <fix>3d</fix>
</trkpt>
<trkpt lat="-27.2744386" lon="151.2900638">
  <ele>364.18</ele>
  <time>2026-09-01T19:56:37Z</time>
  <course>10.69</course>
  <speed>0.02</speed>
  <fix>3d</fix>
</trkpt>
<trkpt lat="-27.2744384" lon="151.2900637">
  <ele>364.0</ele>
  <time>2026-09-01T19:56:37Z</time>
  <course>187.64</course>
  <speed>0.0</speed>
  <fix>3d</fix>
</trkpt>
<trkpt lat="-27.2744386" lon="151.2900638">
  <ele>364.18</ele>
  <time>2026-09-01T19:56:37Z</time>
  <course>10.69</course>
  <speed>0.02</speed>
  <fix>3d</fix>
</trkpt>
<trkpt lat="-27.2744384" lon="151.2900637">
  <ele>364.0</ele>
  <time>2026-09-01T19:56:37Z</time>
  <course>187.64</course>
  <speed>0.0</speed>
  <fix>3d</fix>
</trkpt>
<trkpt lat="-27.2744386" lon="151.2900638">
  <ele>364.18</ele>
  <time>2026-09-01T19:56:37Z</time>
  <course>10.69</course>
  <speed>0.02</speed>
  <fix>3d</fix>
</trkpt>
<trkpt lat="-27.2744384" lon="151.2900637">
  <ele>364.0</ele>
  <time>2026-09-01T19:56:37Z</time>
  <course>188.28</course>
  <speed>0.01</speed>
  <fix>3d</fix>
</trkpt>
<trkpt lat="-27.2744386" lon="151.2900638">
  <ele>364.18</ele>
  <time>2026-09-01T19:56:37Z</time>
  <course>10.68</course>
  <speed>0.02</speed>
  <fix>3d</fix>
</trkpt>
<trkpt lat="-27.2744384" lon="151.2900637">
  <ele>364.0</ele>
  <time>2026-09-01T19:56:37Z</time>
  <course>188.28</course>
  <speed>0.01</speed>
  <fix>3d</fix>
</trkpt>
<trkpt lat="-27.2744386" lon="151.2900638">
  <ele>364.17</ele>
  <time>2026-09-01T19:56:37Z</time>
  <course>10.68</course>
  <speed>0.02</speed>
  <fix>3d</fix>
</trkpt>
<trkpt lat="-27.2744384" lon="151.2900637">
  <ele>364.0</ele>
  <time>2026-09-01T19:56:37Z</time>
  <course>188.79</course>
  <speed>0.01</speed>
  <fix>3d</fix>
</trkpt>
<trkpt lat="-27.2744386" lon="151.2900638">
  <ele>364.17</ele>
  <time>2026-09-01T19:56:37Z</time>
  <course>10.68</course>
  <speed>0.02</speed>
  <fix>3d</fix>
</trkpt>
<trkpt lat="-27.2744384" lon="151.2900637">
  <ele>364.0</ele>
  <time>2026-09-01T19:56:37Z</time>
  <course>188.79</course>
  <speed>0.01</speed>
  <fix>3d</fix>
</trkpt>
<trkpt lat="-27.2744386" lon="151.2900638">
  <ele>364.17</ele>
  <time>2026-09-01T19:56:37Z</time>
  <course>10.68</course>
  <speed>0.02</speed>
  <fix>3d</fix>
</trkpt>
<trkpt lat="-27.2744384" lon="151.2900637">
  <ele>364.0</ele>
  <time>2026-09-01T19:56:37Z</time>
  <course>189.77</course>
  <speed>0.0</speed>
  <fix>3d</fix>
</trkpt>
<trkpt lat="-27.2744386" lon="151.2900638">
  <ele>364.17</ele>
  <time>2026-09-01T19:56:37Z</time>
  <course>10.68</course>
  <speed>0.02</speed>
  <fix>3d</fix>
</trkpt>
<trkpt lat="-27.2744384" lon="151.2900637">
  <ele>364.0</ele>
  <time>2026-09-01T19:56:37Z</time>
  <course>189.77</course>
  <speed>0.0</speed>
  <fix>3d</fix>
</trkpt>
<trkpt lat="-27.2744386" lon="151.2900638">
  <ele>364.17</ele>
  <time>2026-09-01T19:56:37Z</time>
  <course>10.68</course>
  <speed>0.022360679774997897</speed>
  <fix>3d</fix>
</trkpt>
<trkpt lat="-27.2744385" lon="151.2900637">
  <ele>364.0</ele>
  <time>2026-09-01T19:56:37Z</time>
  <course>189.86</course>
  <speed>0.0</speed>
  <fix>3d</fix>
</trkpt>
<trkpt lat="-27.2744386" lon="151.2900638">
  <ele>364.17</ele>
  <time>2026-09-01T19:56:37Z</time>
  <course>10.68</course>
  <speed>0.022360679774997897</speed>
  <fix>3d</fix>
</trkpt>
<trkpt lat="-27.2744385" lon="151.2900637">
  <ele>364.0</ele>
  <time>2026-09-01T19:56:37Z</time>
  <course>189.86</course>
  <speed>0.0</speed>
  <fix>3d</fix>
</trkpt>
<trkpt lat="-27.2744386" lon="151.2900638">
  <ele>364.17</ele>
  <time>2026-09-01T19:56:37Z</time>
  <course>10.68</course>
  <speed>0.022360679774997897</speed>
  <fix>3d</fix>
</trkpt>
<trkpt lat="-27.2744385" lon="151.2900637">
  <ele>364.0</ele>
  <time>2026-09-01T19:56:37Z</time>
  <course>189.13</course>
  <speed>0.0</speed>
  <fix>3d</fix>
</trkpt>
<trkpt lat="-27.2744386" lon="151.2900638">
  <ele>364.18</ele>
  <time>2026-09-01T19:56:37Z</time>
  <course>10.69</course>
  <speed>0.022360679774997897</speed>
  <fix>3d</fix>
</trkpt>
<trkpt lat="-27.2744385" lon="151.2900637">
  <ele>364.0</ele>
  <time>2026-09-01T19:56:37Z</time>
  <course>189.13</course>
  <speed>0.0</speed>
  <fix>3d</fix>
</trkpt>
<trkpt lat="-27.2744386" lon="151.2900638">
  <ele>364.18</ele>
  <time>2026-09-01T19:56:37Z</time>
  <course>10.69</course>
  <speed>0.022360679774997897</speed>
  <fix>3d</fix>
</trkpt>
<trkpt lat="-27.2744385" lon="151.2900637">
  <ele>364.0</ele>
  <time>2026-09-01T19:56:37Z</time>
  <course>188.24</course>
  <speed>0.0</speed>
  <fix>3d</fix>
</trkpt>
<trkpt lat="-27.2744386" lon="151.2900638">
  <ele>364.18</ele>
  <time>2026-09-01T19:56:37Z</time>
  <course>10.69</course>
  <speed>0.022360679774997897</speed>
  <fix>3d</fix>
</trkpt>
<trkpt lat="-27.2744385" lon="151.2900637">
  <ele>364.0</ele>
  <time>2026-09-01T19:56:37Z</time>
  <course>188.24</course>
  <speed>0.0</speed>
  <fix>3d</fix>
</trkpt>
<trkpt lat="-27.2744386" lon="151.2900638">
  <ele>364.18</ele>
  <time>2026-09-01T19:56:37Z</time>
  <course>10.69</course>
  <speed>0.022360679774997897</speed>
  <fix>3d</fix>
</trkpt>
<trkpt lat="-27.2744385" lon="151.2900637">
  <ele>364.0</ele>
  <time>2026-09-01T19:56:37Z</time>
  <course>187.14</course>
  <speed>0.0</speed>
  <fix>3d</fix>
</trkpt>
<trkpt lat="-27.2744386" lon="151.2900638">
  <ele>364.18</ele>
  <time>2026-09-01T19:56:37Z</time>
  <course>10.69</course>
  <speed>0.022360679774997897</speed>
  <fix>3d</fix>
</trkpt>
<trkpt lat="-27.2744385" lon="151.2900637">
  <ele>364.0</ele>
  <time>2026-09-01T19:56:37Z</time>
  <course>187.14</course>
  <speed>0.0</speed>
  <fix>3d</fix>
</trkpt>
<trkpt lat="-27.2744386" lon="151.2900638">
  <ele>364.18</ele>
  <time>2026-09-01T19:56:37Z</time>
  <course>10.69</course>
  <speed>0.022360679774997897</speed>
  <fix>3d</fix>
</trkpt>
<trkpt lat="-27.2744385" lon="151.2900637">
  <ele>364.0</ele>
  <time>2026-09-01T19:56:37Z</time>
  <course>187.65</course>
  <speed>0.0</speed>
  <fix>3d</fix>
</trkpt>
<trkpt lat="-27.2744386" lon="151.2900638">
  <ele>364.18</ele>
  <time>2026-09-01T19:56:37Z</time>
  <course>10.69</course>
  <speed>0.022360679774997897</speed>
  <fix>3d</fix>
</trkpt>
<trkpt lat="-27.2744385" lon="151.2900637">
  <ele>364.0</ele>
  <time>2026-09-01T19:56:37Z</time>
  <course>187.65</course>
  <speed>0.0</speed>
  <fix>3d</fix>
</trkpt>
<trkpt lat="-27.2744386" lon="151.2900638">
  <ele>364.18</ele>
  <time>2026-09-01T19:56:37Z</time>
  <course>10.69</course>
  <speed>0.022360679774997897</speed>
  <fix>3d</fix>
</trkpt>
<trkpt lat="-27.2744385" lon="151.2900637">
  <ele>364.01</ele>
  <time>2026-09-01T19:56:37Z</time>
  <course>192.99</course>
  <speed>0.0</speed>
  <fix>3d</fix>
</trkpt>
<trkpt lat="-27.2744387" lon="151.2900638">
  <ele>364.19</ele>
  <time>2026-09-01T19:56:37Z</time>
  <course>10.69</course>
  <speed>0.022360679774997897</speed>
  <fix>3d</fix>
</trkpt>
<trkpt lat="-27.2744385" lon="151.2900637">
  <ele>364.01</ele>
  <time>2026-09-01T19:56:37Z</time>
  <course>192.99</course>
  <speed>0.0</speed>
  <fix>3d</fix>
</trkpt>
<trkpt lat="-27.2744386" lon="151.2900638">
  <ele>364.19</ele>
  <time>2026-09-01T19:56:37Z</time>
  <course>10.69</course>
  <speed>0.022360679774997897</speed>
  <fix>3d</fix>
</trkpt>
<trkpt lat="-27.2744385" lon="151.2900637">
  <ele>364.01</ele>
  <time>2026-09-01T19:56:37Z</time>
  <course>205.14</course>
  <speed>0.0</speed>
  <fix>3d</fix>
</trkpt>
<trkpt lat="-27.2744387" lon="151.2900638">
  <ele>364.19</ele>
  <time>2026-09-01T19:56:37Z</time>
  <course>10.69</course>
  <speed>0.022360679774997897</speed>
  <fix>3d</fix>
</trkpt>
<trkpt lat="-27.2744385" lon="151.2900637">
  <ele>364.01</ele>
  <time>2026-09-01T19:56:37Z</time>
  <course>205.14</course>
  <speed>0.0</speed>
  <fix>3d</fix>
</trkpt>
<trkpt lat="-27.2744386" lon="151.2900638">
  <ele>364.19</ele>
  <time>2026-09-01T19:56:37Z</time>
  <course>10.69</course>
  <speed>0.022360679774997897</speed>
  <fix>3d</fix>
</trkpt>
<trkpt lat="-27.2744385" lon="151.2900637">
  <ele>364.01</ele>
  <time>2026-09-01T19:56:37Z</time>
  <course>223.71</course>
  <speed>0.0</speed>
  <fix>3d</fix>
</trkpt>
<trkpt lat="-27.2744387" lon="151.2900638">
  <ele>364.19</ele>
  <time>2026-09-01T19:56:37Z</time>
  <course>10.68</course>
  <speed>0.022360679774997897</speed>
  <fix>3d</fix>
</trkpt>
<trkpt lat="-27.2744385" lon="151.2900637">
  <ele>364.01</ele>
  <time>2026-09-01T19:56:37Z</time>
  <course>223.71</course>
  <speed>0.0</speed>
  <fix>3d</fix>
</trkpt>
<trkpt lat="-27.2744386" lon="151.2900638">
  <ele>364.18</ele>
  <time>2026-09-01T19:56:37Z</time>
  <course>10.68</course>
  <speed>0.022360679774997897</speed>
  <fix>3d</fix>
</trkpt>
<trkpt lat="-27.2744385" lon="151.2900637">
  <ele>364.01</ele>
  <time>2026-09-01T19:56:37Z</time>
  <course>245.52</course>
  <speed>0.0</speed>
  <fix>3d</fix>
</trkpt>
<trkpt lat="-27.2744387" lon="151.2900638">
  <ele>364.18</ele>
  <time>2026-09-01T19:56:37Z</time>
  <course>10.68</course>
  <speed>0.022360679774997897</speed>
  <fix>3d</fix>
</trkpt>
<trkpt lat="-27.2744385" lon="151.2900637">
  <ele>364.01</ele>
  <time>2026-09-01T19:56:37Z</time>
  <course>245.52</course>
  <speed>0.0</speed>
  <fix>3d</fix>
</trkpt>
<trkpt lat="-27.2744386" lon="151.2900638">
  <ele>364.18</ele>
  <time>2026-09-01T19:56:37Z</time>
  <course>10.68</course>
  <speed>0.022360679774997897</speed>
  <fix>3d</fix>
</trkpt>
<trkpt lat="-27.2744385" lon="151.2900637">
  <ele>364.01</ele>
  <time>2026-09-01T19:56:37Z</time>
  <course>266.04</course>
  <speed>0.0</speed>
  <fix>3d</fix>
</trkpt>
<trkpt lat="-27.2744386" lon="151.2900638">
  <ele>364.18</ele>
  <time>2026-09-01T19:56:37Z</time>
  <course>10.68</course>
  <speed>0.01414213562373095</speed>
  <fix>3d</fix>
</trkpt>
<trkpt lat="-27.2744385" lon="151.2900637">
  <ele>364.01</ele>
  <time>2026-09-01T19:56:37Z</time>
  <course>266.04</course>
  <speed>0.0</speed>
  <fix>3d</fix>
</trkpt>
<trkpt lat="-27.2744386" lon="151.2900638">
  <ele>364.18</ele>
  <time>2026-09-01T19:56:37Z</time>
  <course>10.68</course>
  <speed>0.01414213562373095</speed>
  <fix>3d</fix>
</trkpt>
<trkpt lat="-27.2744385" lon="151.2900637">
  <ele>364.0</ele>
  <time>2026-09-01T19:56:37Z</time>
  <course>279.91</course>
  <speed>0.0</speed>
  <fix>3d</fix>
</trkpt>
<trkpt lat="-27.2744386" lon="151.2900638">
  <ele>364.18</ele>
  <time>2026-09-01T19:56:37Z</time>
  <course>10.68</course>
  <speed>0.01414213562373095</speed>
  <fix>3d</fix>
</trkpt>
<trkpt lat="-27.2744385" lon="151.2900637">
  <ele>364.0</ele>
  <time>2026-09-01T19:56:37Z</time>
  <course>279.91</course>
  <speed>0.0</speed>
  <fix>3d</fix>
</trkpt>
<trkpt lat="-27.2744386" lon="151.2900638">
  <ele>364.18</ele>
  <time>2026-09-01T19:56:37Z</time>
  <course>10.68</course>
  <speed>0.01414213562373095</speed>
  <fix>3d</fix>
</trkpt>
<trkpt lat="-27.2744385" lon="151.2900637">
  <ele>364.0</ele>
  <time>2026-09-01T19:56:37Z</time>
  <course>287.47</course>
  <speed>0.0</speed>
  <fix>3d</fix>
</trkpt>
<trkpt lat="-27.2744386" lon="151.2900638">
  <ele>364.18</ele>
  <time>2026-09-01T19:56:37Z</time>
  <course>10.68</course>
  <speed>0.022360679774997897</speed>
  <fix>3d</fix>
</trkpt>
<trkpt lat="-27.2744385" lon="151.2900637">
  <ele>364.0</ele>
  <time>2026-09-01T19:56:37Z</time>
  <course>287.47</course>
  <speed>0.0</speed>
  <fix>3d</fix>
</trkpt>
<trkpt lat="-27.2744386" lon="151.2900638">
  <ele>364.18</ele>
  <time>2026-09-01T19:56:37Z</time>
  <course>10.68</course>
  <speed>0.022360679774997897</speed>
  <fix>3d</fix>
</trkpt>
<trkpt lat="-27.2744385" lon="151.2900637">
  <ele>364.0</ele>
  <time>2026-09-01T19:56:37Z</time>
  <course>288.86</course>
  <speed>0.0</speed>
  <fix>3d</fix>
</trkpt>
<trkpt lat="-27.2744386" lon="151.2900638">
  <ele>364.18</ele>
  <time>2026-09-01T19:56:37Z</time>
  <course>10.68</course>
  <speed>0.022360679774997897</speed>
  <fix>3d</fix>
</trkpt>
<trkpt lat="-27.2744385" lon="151.2900637">
  <ele>364.0</ele>
  <time>2026-09-01T19:56:37Z</time>
  <course>288.86</course>
  <speed>0.0</speed>
  <fix>3d</fix>
</trkpt>
<trkpt lat="-27.2744386" lon="151.2900638">
  <ele>364.18</ele>
  <time>2026-09-01T19:56:37Z</time>
  <course>10.69</course>
  <speed>0.022360679774997897</speed>
  <fix>3d</fix>
</trkpt>
<trkpt lat="-27.2744385" lon="151.2900637">
  <ele>364.0</ele>
  <time>2026-09-01T19:56:37Z</time>
  <course>286.55</course>
  <speed>0.0</speed>
  <fix>3d</fix>
</trkpt>
<trkpt lat="-27.2744386" lon="151.2900638">
  <ele>364.18</ele>
  <time>2026-09-01T19:56:37Z</time>
  <course>10.69</course>
  <speed>0.01414213562373095</speed>
  <fix>3d</fix>
</trkpt>
<trkpt lat="-27.2744385" lon="151.2900637">
  <ele>364.0</ele>
  <time>2026-09-01T19:56:37Z</time>
  <course>286.55</course>
  <speed>0.0</speed>
  <fix>3d</fix>
</trkpt>
<trkpt lat="-27.2744386" lon="151.2900638">
  <ele>364.18</ele>
  <time>2026-09-01T19:56:37Z</time>
  <course>10.69</course>
  <speed>0.01414213562373095</speed>
  <fix>3d</fix>
</trkpt>
<trkpt lat="-27.2744385" lon="151.2900637">
  <ele>364.0</ele>
  <time>2026-09-01T19:56:37Z</time>
  <course>289.9</course>
  <speed>0.0</speed>
  <fix>3d</fix>
</trkpt>
<trkpt lat="-27.2744386" lon="151.2900638">
  <ele>364.18</ele>
  <time>2026-09-01T19:56:37Z</time>
  <course>10.69</course>
  <speed>0.01414213562373095</speed>
  <fix>3d</fix>
</trkpt>
<trkpt lat="-27.2744385" lon="151.2900637">
  <ele>364.0</ele>
  <time>2026-09-01T19:56:37Z</time>
  <course>289.9</course>
  <speed>0.0</speed>
  <fix>3d</fix>
</trkpt>
<trkpt lat="-27.2744386" lon="151.2900638">
  <ele>364.18</ele>
  <time>2026-09-01T19:56:37Z</time>
  <course>10.69</course>
  <speed>0.01414213562373095</speed>
  <fix>3d</fix>
</trkpt>
<trkpt lat="-27.2744385" lon="151.2900637">
  <ele>364.0</ele>
  <time>2026-09-01T19:56:37Z</time>
  <course>299.38</course>
  <speed>0.0</speed>
  <fix>3d</fix>
</trkpt>
<trkpt lat="-27.2744386" lon="151.2900638">
  <ele>364.18</ele>
  <time>2026-09-01T19:56:37Z</time>
  <course>10.69</course>
  <speed>0.01414213562373095</speed>
  <fix>3d</fix>
</trkpt>
<trkpt lat="-27.2744385" lon="151.2900637">
  <ele>364.0</ele>
  <time>2026-09-01T19:56:37Z</time>
  <course>299.38</course>
  <speed>0.0</speed>
  <fix>3d</fix>
</trkpt>
<trkpt lat="-27.2744386" lon="151.2900638">
  <ele>364.18</ele>
  <time>2026-09-01T19:56:37Z</time>
  <course>10.69</course>
  <speed>0.01414213562373095</speed>
  <fix>3d</fix>
</trkpt>
<trkpt lat="-27.2744385" lon="151.2900637">
  <ele>364.0</ele>
  <time>2026-09-01T19:56:37Z</time>
  <course>307.41</course>
  <speed>0.0</speed>
  <fix>3d</fix>
</trkpt>
<trkpt lat="-27.2744386" lon="151.2900638">
  <ele>364.18</ele>
  <time>2026-09-01T19:56:37Z</time>
  <course>10.69</course>
  <speed>0.01414213562373095</speed>
  <fix>3d</fix>
</trkpt>
<trkpt lat="-27.2744385" lon="151.2900637">
  <ele>364.0</ele>
  <time>2026-09-01T19:56:37Z</time>
  <course>307.41</course>
  <speed>0.0</speed>
  <fix>3d</fix>
</trkpt>
<trkpt lat="-27.2744386" lon="151.2900638">
  <ele>364.18</ele>
  <time>2026-09-01T19:56:37Z</time>
  <course>10.69</course>
  <speed>0.01414213562373095</speed>
  <fix>3d</fix>
</trkpt>
<trkpt lat="-27.2744385" lon="151.2900637">
  <ele>364.0</ele>
  <time>2026-09-01T19:56:37Z</time>
  <course>311.75</course>
  <speed>0.0</speed>
  <fix>3d</fix>
</trkpt>
<trkpt lat="-27.2744386" lon="151.2900638">
  <ele>364.18</ele>
  <time>2026-09-01T19:56:37Z</time>
  <course>10.69</course>
  <speed>0.01414213562373095</speed>
  <fix>3d</fix>
</trkpt>
<trkpt lat="-27.2744385" lon="151.2900637">
  <ele>364.0</ele>
  <time>2026-09-01T19:56:37Z</time>
  <course>311.75</course>
  <speed>0.0</speed>
  <fix>3d</fix>
</trkpt>
<trkpt lat="-27.2744386" lon="151.2900638">
  <ele>364.18</ele>
  <time>2026-09-01T19:56:37Z</time>
  <course>10.69</course>
  <speed>0.01414213562373095</speed>
  <fix>3d</fix>
</trkpt>
<trkpt lat="-27.2744385" lon="151.2900637">
  <ele>364.0</ele>
  <time>2026-09-01T19:56:37Z</time>
  <course>313.89</course>
  <speed>0.0</speed>
  <fix>3d</fix>
</trkpt>
<trkpt lat="-27.2744386" lon="151.2900638">
  <ele>364.18</ele>
  <time>2026-09-01T19:56:37Z</time>
  <course>10.69</course>
  <speed>0.01414213562373095</speed>
  <fix>3d</fix>
</trkpt>
<trkpt lat="-27.2744385" lon="151.2900637">
  <ele>364.0</ele>
  <time>2026-09-01T19:56:37Z</time>
  <course>313.89</course>
  <speed>0.0</speed>
  <fix>3d</fix>
</trkpt>
<trkpt lat="-27.2744386" lon="151.2900638">
  <ele>364.18</ele>
  <time>2026-09-01T19:56:37Z</time>
  <course>10.69</course>
  <speed>0.01414213562373095</speed>
  <fix>3d</fix>
</trkpt>
<trkpt lat="-27.2744385" lon="151.2900637">
  <ele>364.0</ele>
  <time>2026-09-01T19:56:37Z</time>
  <course>315.56</course>
  <speed>0.0</speed>
  <fix>3d</fix>
</trkpt>
<trkpt lat="-27.2744386" lon="151.2900638">
  <ele>364.18</ele>
  <time>2026-09-01T19:56:37Z</time>
  <course>10.69</course>
  <speed>0.01414213562373095</speed>
  <fix>3d</fix>
</trkpt>
<trkpt lat="-27.2744385" lon="151.2900637">
  <ele>364.0</ele>
  <time>2026-09-01T19:56:37Z</time>
  <course>315.56</course>
  <speed>0.0</speed>
  <fix>3d</fix>
</trkpt>
<trkpt lat="-27.2744386" lon="151.2900638">
  <ele>364.18</ele>
  <time>2026-09-01T19:56:37Z</time>
  <course>10.68</course>
  <speed>0.01414213562373095</speed>
  <fix>3d</fix>
</trkpt>
<trkpt lat="-27.2744385" lon="151.2900637">
  <ele>364.0</ele>
  <time>2026-09-01T19:56:37Z</time>
  <course>317.12</course>
  <speed>0.0</speed>
  <fix>3d</fix>
</trkpt>
<trkpt lat="-27.2744386" lon="151.2900638">
  <ele>364.18</ele>
  <time>2026-09-01T19:56:37Z</time>
  <course>10.68</course>
  <speed>0.01414213562373095</speed>
  <fix>3d</fix>
</trkpt>
<trkpt lat="-27.2744385" lon="151.2900637">
  <ele>364.0</ele>
  <time>2026-09-01T19:56:37Z</time>
  <course>317.12</course>
  <speed>0.0</speed>
  <fix>3d</fix>
</trkpt>
<trkpt lat="-27.2744386" lon="151.2900638">
  <ele>364.18</ele>
  <time>2026-09-01T19:56:37Z</time>
  <course>10.69</course>
  <speed>0.01414213562373095</speed>
  <fix>3d</fix>
</trkpt>
<trkpt lat="-27.2744385" lon="151.2900637">
  <ele>364.0</ele>
  <time>2026-09-01T19:56:37Z</time>
  <course>317.82</course>
  <speed>0.0</speed>
  <fix>3d</fix>
</trkpt>
<trkpt lat="-27.2744386" lon="151.2900638">
  <ele>364.18</ele>
  <time>2026-09-01T19:56:37Z</time>
  <course>10.69</course>
  <speed>0.01414213562373095</speed>
  <fix>3d</fix>
</trkpt>
<trkpt lat="-27.2744385" lon="151.2900637">
  <ele>364.0</ele>
  <time>2026-09-01T19:56:37Z</time>
  <course>317.82</course>
  <speed>0.0</speed>
  <fix>3d</fix>
</trkpt>
<trkpt lat="-27.2744386" lon="151.2900638">
  <ele>364.17</ele>
  <time>2026-09-01T19:56:37Z</time>
  <course>10.7</course>
  <speed>0.01414213562373095</speed>
  <fix>3d</fix>
</trkpt>
<trkpt lat="-27.2744385" lon="151.2900637">
  <ele>364.0</ele>
  <time>2026-09-01T19:56:37Z</time>
  <course>317.5</course>
  <speed>0.0</speed>
  <fix>3d</fix>
</trkpt>
<trkpt lat="-27.2744386" lon="151.2900638">
  <ele>364.17</ele>
  <time>2026-09-01T19:56:37Z</time>
  <course>10.7</course>
  <speed>0.01414213562373095</speed>
  <fix>3d</fix>
</trkpt>
<trkpt lat="-27.2744385" lon="151.2900637">
  <ele>364.0</ele>
  <time>2026-09-01T19:56:37Z</time>
  <course>317.5</course>
  <speed>0.0</speed>
  <fix>3d</fix>
</trkpt>
<trkpt lat="-27.2744386" lon="151.2900638">
  <ele>364.17</ele>
  <time>2026-09-01T19:56:37Z</time>
  <course>10.7</course>
  <speed>0.01414213562373095</speed>
  <fix>3d</fix>
</trkpt>
<trkpt lat="-27.2744385" lon="151.2900637">
  <ele>364.0</ele>
  <time>2026-09-01T19:56:37Z</time>
  <course>316.77</course>
  <speed>0.0</speed>
  <fix>3d</fix>
</trkpt>
<trkpt lat="-27.2744386" lon="151.2900638">
  <ele>364.17</ele>
  <time>2026-09-01T19:56:37Z</time>
  <course>10.7</course>
  <speed>0.01414213562373095</speed>
  <fix>3d</fix>
</trkpt>
<trkpt lat="-27.2744385" lon="151.2900637">
  <ele>364.0</ele>
  <time>2026-09-01T19:56:37Z</time>
  <course>316.77</course>
  <speed>0.0</speed>
  <fix>3d</fix>
</trkpt>
<trkpt lat="-27.2744386" lon="151.2900638">
  <ele>364.17</ele>
  <time>2026-09-01T19:56:37Z</time>
  <course>10.71</course>
  <speed>0.01414213562373095</speed>
  <fix>3d</fix>
</trkpt>
<trkpt lat="-27.2744385" lon="151.2900637">
  <ele>364.01</ele>
  <time>2026-09-01T19:56:37Z</time>
  <course>315.98</course>
  <speed>0.0</speed>
  <fix>3d</fix>
</trkpt>
<trkpt lat="-27.2744386" lon="151.2900638">
  <ele>364.17</ele>
  <time>2026-09-01T19:56:37Z</time>
  <course>10.71</course>
  <speed>0.022360679774997897</speed>
  <fix>3d</fix>
</trkpt>
<trkpt lat="-27.2744385" lon="151.2900637">
  <ele>364.01</ele>
  <time>2026-09-01T19:56:37Z</time>
  <course>315.98</course>
  <speed>0.0</speed>
  <fix>3d</fix>
</trkpt>
<trkpt lat="-27.2744386" lon="151.2900638">
  <ele>364.18</ele>
  <time>2026-09-01T19:56:37Z</time>
  <course>10.71</course>
  <speed>0.022360679774997897</speed>
  <fix>3d</fix>
</trkpt>
<trkpt lat="-27.2744385" lon="151.2900637">
  <ele>364.01</ele>
  <time>2026-09-01T19:56:37Z</time>
  <course>314.57</course>
  <speed>0.0</speed>
  <fix>3d</fix>
</trkpt>
<trkpt lat="-27.2744386" lon="151.2900638">
  <ele>364.18</ele>
  <time>2026-09-01T19:56:37Z</time>
  <course>10.71</course>
  <speed>0.022360679774997897</speed>
  <fix>3d</fix>
</trkpt>
<trkpt lat="-27.2744385" lon="151.2900637">
  <ele>364.01</ele>
  <time>2026-09-01T19:56:37Z</time>
  <course>314.57</course>
  <speed>0.0</speed>
  <fix>3d</fix>
</trkpt>
<trkpt lat="-27.2744386" lon="151.2900638">
  <ele>364.18</ele>
  <time>2026-09-01T19:56:37Z</time>
  <course>10.71</course>
  <speed>0.022360679774997897</speed>
  <fix>3d</fix>
</trkpt>
<trkpt lat="-27.2744385" lon="151.2900637">
  <ele>364.01</ele>
  <time>2026-09-01T19:56:37Z</time>
  <course>312.58</course>
  <speed>0.0</speed>
  <fix>3d</fix>
</trkpt>
<trkpt lat="-27.2744386" lon="151.2900638">
  <ele>364.18</ele>
  <time>2026-09-01T19:56:37Z</time>
  <course>10.7</course>
  <speed>0.022360679774997897</speed>
  <fix>3d</fix>
</trkpt>
<trkpt lat="-27.2744385" lon="151.2900637">
  <ele>364.01</ele>
  <time>2026-09-01T19:56:37Z</time>
  <course>312.58</course>
  <speed>0.0</speed>
  <fix>3d</fix>
</trkpt>
<trkpt lat="-27.2744386" lon="151.2900638">
  <ele>364.18</ele>
  <time>2026-09-01T19:56:37Z</time>
  <course>10.7</course>
  <speed>0.022360679774997897</speed>
  <fix>3d</fix>
</trkpt>
<trkpt lat="-27.2744385" lon="151.2900637">
  <ele>364.01</ele>
  <time>2026-09-01T19:56:37Z</time>
  <course>311.82</course>
  <speed>0.0</speed>
  <fix>3d</fix>
</trkpt>
<trkpt lat="-27.2744386" lon="151.2900638">
  <ele>364.18</ele>
  <time>2026-09-01T19:56:37Z</time>
  <course>10.69</course>
  <speed>0.022360679774997897</speed>
  <fix>3d</fix>
</trkpt>
<trkpt lat="-27.2744385" lon="151.2900637">
  <ele>364.01</ele>
  <time>2026-09-01T19:56:37Z</time>
  <course>311.82</course>
  <speed>0.0</speed>
  <fix>3d</fix>
</trkpt>
<trkpt lat="-27.2744386" lon="151.2900638">
  <ele>364.18</ele>
  <time>2026-09-01T19:56:37Z</time>
  <course>10.69</course>
  <speed>0.022360679774997897</speed>
  <fix>3d</fix>
</trkpt>
<trkpt lat="-27.2744385" lon="151.2900637">
  <ele>364.01</ele>
  <time>2026-09-01T19:56:37Z</time>
  <course>311.84</course>
  <speed>0.0</speed>
  <fix>3d</fix>
</trkpt>
<trkpt lat="-27.2744386" lon="151.2900638">
  <ele>364.19</ele>
  <time>2026-09-01T19:56:37Z</time>
  <course>10.68</course>
  <speed>0.022360679774997897</speed>
  <fix>3d</fix>
</trkpt>
<trkpt lat="-27.2744385" lon="151.2900637">
  <ele>364.01</ele>
  <time>2026-09-01T19:56:37Z</time>
  <course>311.84</course>
  <speed>0.0</speed>
  <fix>3d</fix>
</trkpt>
<trkpt lat="-27.2744386" lon="151.2900638">
  <ele>364.19</ele>
  <time>2026-09-01T19:56:37Z</time>
  <course>10.68</course>
  <speed>0.022360679774997897</speed>
  <fix>3d</fix>
</trkpt>
<trkpt lat="-27.2744385" lon="151.2900637">
  <ele>364.01</ele>
  <time>2026-09-01T19:56:37Z</time>
  <course>311.65</course>
  <speed>0.0</speed>
  <fix>3d</fix>
</trkpt>
<trkpt lat="-27.2744386" lon="151.2900638">
  <ele>364.19</ele>
  <time>2026-09-01T19:56:37Z</time>
  <course>10.68</course>
  <speed>0.022360679774997897</speed>
  <fix>3d</fix>
</trkpt>
<trkpt lat="-27.2744385" lon="151.2900637">
  <ele>364.01</ele>
  <time>2026-09-01T19:56:37Z</time>
  <course>311.65</course>
  <speed>0.0</speed>
  <fix>3d</fix>
</trkpt>
<trkpt lat="-27.2744386" lon="151.2900638">
  <ele>364.19</ele>
  <time>2026-09-01T19:56:37Z</time>
  <course>10.68</course>
  <speed>0.022360679774997897</speed>
  <fix>3d</fix>
</trkpt>
<trkpt lat="-27.2744385" lon="151.2900637">
  <ele>364.01</ele>
  <time>2026-09-01T19:56:37Z</time>
  <course>312.47</course>
  <speed>0.01</speed>
  <fix>3d</fix>
</trkpt>
<trkpt lat="-27.2744386" lon="151.2900638">
  <ele>364.19</ele>
  <time>2026-09-01T19:56:37Z</time>
  <course>10.68</course>
  <speed>0.022360679774997897</speed>
  <fix>3d</fix>
</trkpt>
<trkpt lat="-27.2744385" lon="151.2900637">
  <ele>364.01</ele>
  <time>2026-09-01T19:56:37Z</time>
  <course>312.47</course>
  <speed>0.01</speed>
  <fix>3d</fix>
</trkpt>
<trkpt lat="-27.2744386" lon="151.2900638">
  <ele>364.19</ele>
  <time>2026-09-01T19:56:37Z</time>
  <course>10.68</course>
  <speed>0.022360679774997897</speed>
  <fix>3d</fix>
</trkpt>
<trkpt lat="-27.2744385" lon="151.2900636">
  <ele>364.01</ele>
  <time>2026-09-01T19:56:37Z</time>
  <course>314.27</course>
  <speed>0.01</speed>
  <fix>3d</fix>
</trkpt>
<trkpt lat="-27.2744386" lon="151.2900638">
  <ele>364.19</ele>
  <time>2026-09-01T19:56:37Z</time>
  <course>10.68</course>
  <speed>0.022360679774997897</speed>
  <fix>3d</fix>
</trkpt>
<trkpt lat="-27.2744385" lon="151.2900636">
  <ele>364.01</ele>
  <time>2026-09-01T19:56:37Z</time>
  <course>314.27</course>
  <speed>0.01</speed>
  <fix>3d</fix>
</trkpt>
<trkpt lat="-27.2744386" lon="151.2900638">
  <ele>364.19</ele>
  <time>2026-09-01T19:56:37Z</time>
  <course>10.68</course>
  <speed>0.01414213562373095</speed>
  <fix>3d</fix>
</trkpt>
<trkpt lat="-27.2744384" lon="151.2900636">
  <ele>364.01</ele>
  <time>2026-09-01T19:56:37Z</time>
  <course>316.15</course>
  <speed>0.01</speed>
  <fix>3d</fix>
</trkpt>
<trkpt lat="-27.2744386" lon="151.2900638">
  <ele>364.19</ele>
  <time>2026-09-01T19:56:37Z</time>
  <course>10.68</course>
  <speed>0.01414213562373095</speed>
  <fix>3d</fix>
</trkpt>
<trkpt lat="-27.2744384" lon="151.2900636">
  <ele>364.01</ele>
  <time>2026-09-01T19:56:37Z</time>
  <course>316.15</course>
  <speed>0.01</speed>
  <fix>3d</fix>
</trkpt>
<trkpt lat="-27.2744386" lon="151.2900638">
  <ele>364.18</ele>
  <time>2026-09-01T19:56:37Z</time>
  <course>10.68</course>
  <speed>0.01414213562373095</speed>
  <fix>3d</fix>
</trkpt>
<trkpt lat="-27.2744384" lon="151.2900636">
  <ele>364.01</ele>
  <time>2026-09-01T19:56:37Z</time>
  <course>318.81</course>
  <speed>0.01</speed>
  <fix>3d</fix>
</trkpt>
<trkpt lat="-27.2744386" lon="151.2900638">
  <ele>364.18</ele>
  <time>2026-09-01T19:56:37Z</time>
  <course>10.68</course>
  <speed>0.01414213562373095</speed>
  <fix>3d</fix>
</trkpt>
<trkpt lat="-27.2744384" lon="151.2900636">
  <ele>364.01</ele>
  <time>2026-09-01T19:56:37Z</time>
  <course>318.81</course>
  <speed>0.01</speed>
  <fix>3d</fix>
</trkpt>
<trkpt lat="-27.2744386" lon="151.2900638">
  <ele>364.18</ele>
  <time>2026-09-01T19:56:37Z</time>
  <course>10.69</course>
  <speed>0.01414213562373095</speed>
  <fix>3d</fix>
</trkpt>
<trkpt lat="-27.2744384" lon="151.2900636">
  <ele>364.01</ele>
  <time>2026-09-01T19:56:37Z</time>
  <course>321.55</course>
  <speed>0.01</speed>
  <fix>3d</fix>
</trkpt>
<trkpt lat="-27.2744386" lon="151.2900638">
  <ele>364.18</ele>
  <time>2026-09-01T19:56:37Z</time>
  <course>10.69</course>
  <speed>0.01414213562373095</speed>
  <fix>3d</fix>
</trkpt>
<trkpt lat="-27.2744384" lon="151.2900636">
  <ele>364.01</ele>
  <time>2026-09-01T19:56:37Z</time>
  <course>321.55</course>
  <speed>0.01</speed>
  <fix>3d</fix>
</trkpt>
<trkpt lat="-27.2744386" lon="151.2900638">
  <ele>364.18</ele>
  <time>2026-09-01T19:56:37Z</time>
  <course>10.69</course>
  <speed>0.01414213562373095</speed>
  <fix>3d</fix>
</trkpt>
<trkpt lat="-27.2744384" lon="151.2900636">
  <ele>364.01</ele>
  <time>2026-09-01T19:56:37Z</time>
  <course>323.88</course>
  <speed>0.01</speed>
  <fix>3d</fix>
</trkpt>
<trkpt lat="-27.2744386" lon="151.2900638">
  <ele>364.18</ele>
  <time>2026-09-01T19:56:37Z</time>
  <course>10.7</course>
  <speed>0.01414213562373095</speed>
  <fix>3d</fix>
</trkpt>
<trkpt lat="-27.2744384" lon="151.2900636">
  <ele>364.01</ele>
  <time>2026-09-01T19:56:37Z</time>
  <course>323.88</course>
  <speed>0.01</speed>
  <fix>3d</fix>
</trkpt>
<trkpt lat="-27.2744386" lon="151.2900638">
  <ele>364.18</ele>
  <time>2026-09-01T19:56:37Z</time>
  <course>10.7</course>
  <speed>0.01414213562373095</speed>
  <fix>3d</fix>
</trkpt>
<trkpt lat="-27.2744384" lon="151.2900636">
  <ele>364.0</ele>
  <time>2026-09-01T19:56:37Z</time>
  <course>327.82</course>
  <speed>0.01</speed>
  <fix>3d</fix>
</trkpt>
<trkpt lat="-27.2744386" lon="151.2900638">
  <ele>364.18</ele>
  <time>2026-09-01T19:56:37Z</time>
  <course>10.7</course>
  <speed>0.01414213562373095</speed>
  <fix>3d</fix>
</trkpt>
<trkpt lat="-27.2744384" lon="151.2900636">
  <ele>364.0</ele>
  <time>2026-09-01T19:56:37Z</time>
  <course>327.82</course>
  <speed>0.01</speed>
  <fix>3d</fix>
</trkpt>
<trkpt lat="-27.2744386" lon="151.2900638">
  <ele>364.18</ele>
  <time>2026-09-01T19:56:37Z</time>
  <course>10.71</course>
  <speed>0.01414213562373095</speed>
  <fix>3d</fix>
</trkpt>
<trkpt lat="-27.2744383" lon="151.2900635">
  <ele>364.0</ele>
  <time>2026-09-01T19:56:37Z</time>
  <course>334.96</course>
  <speed>0.01</speed>
  <fix>3d</fix>
</trkpt>
<trkpt lat="-27.2744386" lon="151.2900638">
  <ele>364.19</ele>
  <time>2026-09-01T19:56:37Z</time>
  <course>10.71</course>
  <speed>0.022360679774997897</speed>
  <fix>3d</fix>
</trkpt>
<trkpt lat="-27.2744383" lon="151.2900635">
  <ele>364.0</ele>
  <time>2026-09-01T19:56:37Z</time>
  <course>334.96</course>
  <speed>0.01</speed>
  <fix>3d</fix>
</trkpt>
<trkpt lat="-27.2744386" lon="151.2900637">
  <ele>364.19</ele>
  <time>2026-09-01T19:56:37Z</time>
  <course>10.7</course>
  <speed>0.022360679774997897</speed>
  <fix>3d</fix>
</trkpt>
<trkpt lat="-27.2744383" lon="151.2900635">
  <ele>364.0</ele>
  <time>2026-09-01T19:56:37Z</time>
  <course>343.12</course>
  <speed>0.0</speed>
  <fix>3d</fix>
</trkpt>
<trkpt lat="-27.2744386" lon="151.2900637">
  <ele>364.19</ele>
  <time>2026-09-01T19:56:37Z</time>
  <course>10.7</course>
  <speed>0.022360679774997897</speed>
  <fix>3d</fix>
</trkpt>
<trkpt lat="-27.2744383" lon="151.2900635">
  <ele>364.0</ele>
  <time>2026-09-01T19:56:37Z</time>
  <course>343.12</course>
  <speed>0.0</speed>
  <fix>3d</fix>
</trkpt>
<trkpt lat="-27.2744386" lon="151.2900637">
  <ele>364.19</ele>
  <time>2026-09-01T19:56:37Z</time>
  <course>10.69</course>
  <speed>0.022360679774997897</speed>
  <fix>3d</fix>
</trkpt>
<trkpt lat="-27.2744383" lon="151.2900635">
  <ele>364.0</ele>
  <time>2026-09-01T19:56:37Z</time>
  <course>348.01</course>
  <speed>0.0</speed>
  <fix>3d</fix>
</trkpt>
<trkpt lat="-27.2744386" lon="151.2900637">
  <ele>364.19</ele>
  <time>2026-09-01T19:56:37Z</time>
  <course>10.69</course>
  <speed>0.022360679774997897</speed>
  <fix>3d</fix>
</trkpt>
<trkpt lat="-27.2744383" lon="151.2900635">
  <ele>364.0</ele>
  <time>2026-09-01T19:56:37Z</time>
  <course>348.01</course>
  <speed>0.0</speed>
  <fix>3d</fix>
</trkpt>
<trkpt lat="-27.2744386" lon="151.2900637">
  <ele>364.19</ele>
  <time>2026-09-01T19:56:37Z</time>
  <course>10.68</course>
  <speed>0.022360679774997897</speed>
  <fix>3d</fix>
</trkpt>
<trkpt lat="-27.2744383" lon="151.2900635">
  <ele>364.0</ele>
  <time>2026-09-01T19:56:37Z</time>
  <course>350.13</course>
  <speed>0.0</speed>
  <fix>3d</fix>
</trkpt>
<trkpt lat="-27.2744386" lon="151.2900637">
  <ele>364.19</ele>
  <time>2026-09-01T19:56:37Z</time>
  <course>10.68</course>
  <speed>0.022360679774997897</speed>
  <fix>3d</fix>
</trkpt>
<trkpt lat="-27.2744383" lon="151.2900635">
  <ele>364.0</ele>
  <time>2026-09-01T19:56:37Z</time>
  <course>350.13</course>
  <speed>0.0</speed>
  <fix>3d</fix>
</trkpt>
<trkpt lat="-27.2744386" lon="151.2900637">
  <ele>364.19</ele>
  <time>2026-09-01T19:56:37Z</time>
  <course>10.68</course>
  <speed>0.022360679774997897</speed>
  <fix>3d</fix>
</trkpt>
<trkpt lat="-27.2744383" lon="151.2900635">
  <ele>364.0</ele>
  <time>2026-09-01T19:56:37Z</time>
  <course>350.32</course>
  <speed>0.0</speed>
  <fix>3d</fix>
</trkpt>
<trkpt lat="-27.2744386" lon="151.2900637">
  <ele>364.19</ele>
  <time>2026-09-01T19:56:37Z</time>
  <course>10.67</course>
  <speed>0.022360679774997897</speed>
  <fix>3d</fix>
</trkpt>
<trkpt lat="-27.2744383" lon="151.2900635">
  <ele>364.0</ele>
  <time>2026-09-01T19:56:37Z</time>
  <course>350.32</course>
  <speed>0.0</speed>
  <fix>3d</fix>
</trkpt>
<trkpt lat="-27.2744386" lon="151.2900637">
  <ele>364.18</ele>
  <time>2026-09-01T19:56:37Z</time>
  <course>10.67</course>
  <speed>0.022360679774997897</speed>
  <fix>3d</fix>
</trkpt>
<trkpt lat="-27.2744383" lon="151.2900635">
  <ele>364.0</ele>
  <time>2026-09-01T19:56:37Z</time>
  <course>349.68</course>
  <speed>0.0</speed>
  <fix>3d</fix>
</trkpt>
<trkpt lat="-27.2744386" lon="151.2900637">
  <ele>364.18</ele>
  <time>2026-09-01T19:56:37Z</time>
  <course>10.67</course>
  <speed>0.022360679774997897</speed>
  <fix>3d</fix>
</trkpt>
<trkpt lat="-27.2744383" lon="151.2900635">
  <ele>364.0</ele>
  <time>2026-09-01T19:56:37Z</time>
  <course>349.68</course>
  <speed>0.0</speed>
  <fix>3d</fix>
</trkpt>
<trkpt lat="-27.2744385" lon="151.2900637">
  <ele>364.18</ele>
  <time>2026-09-01T19:56:37Z</time>
  <course>10.67</course>
  <speed>0.022360679774997897</speed>
  <fix>3d</fix>
</trkpt>
<trkpt lat="-27.2744383" lon="151.2900635">
  <ele>364.0</ele>
  <time>2026-09-01T19:56:37Z</time>
  <course>354.26</course>
  <speed>0.0</speed>
  <fix>3d</fix>
</trkpt>
<trkpt lat="-27.2744385" lon="151.2900637">
  <ele>364.18</ele>
  <time>2026-09-01T19:56:37Z</time>
  <course>10.67</course>
  <speed>0.022360679774997897</speed>
  <fix>3d</fix>
</trkpt>
<trkpt lat="-27.2744383" lon="151.2900635">
  <ele>364.0</ele>
  <time>2026-09-01T19:56:37Z</time>
  <course>354.26</course>
  <speed>0.0</speed>
  <fix>3d</fix>
</trkpt>
<trkpt lat="-27.2744385" lon="151.2900637">
  <ele>364.18</ele>
  <time>2026-09-01T19:56:37Z</time>
  <course>10.68</course>
  <speed>0.022360679774997897</speed>
  <fix>3d</fix>
</trkpt>
<trkpt lat="-27.2744383" lon="151.2900635">
  <ele>363.99</ele>
  <time>2026-09-01T19:56:37Z</time>
  <course>8.8</course>
  <speed>0.0</speed>
  <fix>3d</fix>
</trkpt>
<trkpt lat="-27.2744385" lon="151.2900637">
  <ele>364.18</ele>
  <time>2026-09-01T19:56:37Z</time>
  <course>10.68</course>
  <speed>0.022360679774997897</speed>
  <fix>3d</fix>
</trkpt>
<trkpt lat="-27.2744383" lon="151.2900635">
  <ele>363.99</ele>
  <time>2026-09-01T19:56:37Z</time>
  <course>8.8</course>
  <speed>0.0</speed>
  <fix>3d</fix>
</trkpt>
<trkpt lat="-27.2744385" lon="151.2900637">
  <ele>364.18</ele>
  <time>2026-09-01T19:56:37Z</time>
  <course>10.68</course>
  <speed>0.022360679774997897</speed>
  <fix>3d</fix>
</trkpt>
<trkpt lat="-27.2744383" lon="151.2900635">
  <ele>363.99</ele>
  <time>2026-09-01T19:56:37Z</time>
  <course>43.45</course>
  <speed>0.0</speed>
  <fix>3d</fix>
</trkpt>
<trkpt lat="-27.2744385" lon="151.2900637">
  <ele>364.18</ele>
  <time>2026-09-01T19:56:37Z</time>
  <course>10.69</course>
  <speed>0.022360679774997897</speed>
  <fix>3d</fix>
</trkpt>
<trkpt lat="-27.2744383" lon="151.2900635">
  <ele>363.99</ele>
  <time>2026-09-01T19:56:37Z</time>
  <course>43.45</course>
  <speed>0.0</speed>
  <fix>3d</fix>
</trkpt>
<trkpt lat="-27.2744385" lon="151.2900637">
  <ele>364.18</ele>
  <time>2026-09-01T19:56:37Z</time>
  <course>10.69</course>
  <speed>0.022360679774997897</speed>
  <fix>3d</fix>
</trkpt>
<trkpt lat="-27.2744383" lon="151.2900635">
  <ele>363.99</ele>
  <time>2026-09-01T19:56:37Z</time>
  <course>86.75</course>
  <speed>0.0</speed>
  <fix>3d</fix>
</trkpt>
<trkpt lat="-27.2744385" lon="151.2900637">
  <ele>364.18</ele>
  <time>2026-09-01T19:56:37Z</time>
  <course>10.69</course>
  <speed>0.022360679774997897</speed>
  <fix>3d</fix>
</trkpt>
<trkpt lat="-27.2744383" lon="151.2900635">
  <ele>363.99</ele>
  <time>2026-09-01T19:56:37Z</time>
  <course>86.75</course>
  <speed>0.0</speed>
  <fix>3d</fix>
</trkpt>
<trkpt lat="-27.2744385" lon="151.2900637">
  <ele>364.17</ele>
  <time>2026-09-01T19:56:37Z</time>
  <course>10.69</course>
  <speed>0.022360679774997897</speed>
  <fix>3d</fix>
</trkpt>
<trkpt lat="-27.2744383" lon="151.2900635">
  <ele>363.99</ele>
  <time>2026-09-01T19:56:37Z</time>
  <course>107.58</course>
  <speed>0.0</speed>
  <fix>3d</fix>
</trkpt>
<trkpt lat="-27.2744385" lon="151.2900637">
  <ele>364.17</ele>
  <time>2026-09-01T19:56:37Z</time>
  <course>10.69</course>
  <speed>0.022360679774997897</speed>
  <fix>3d</fix>
</trkpt>
<trkpt lat="-27.2744383" lon="151.2900635">
  <ele>363.99</ele>
  <time>2026-09-01T19:56:37Z</time>
  <course>107.58</course>
  <speed>0.0</speed>
  <fix>3d</fix>
</trkpt>
<trkpt lat="-27.2744385" lon="151.2900637">
  <ele>364.17</ele>
  <time>2026-09-01T19:56:37Z</time>
  <course>10.68</course>
  <speed>0.022360679774997897</speed>
  <fix>3d</fix>
</trkpt>
<trkpt lat="-27.2744383" lon="151.2900635">
  <ele>363.99</ele>
  <time>2026-09-01T19:56:37Z</time>
  <course>115.33</course>
  <speed>0.0</speed>
  <fix>3d</fix>
</trkpt>
<trkpt lat="-27.2744385" lon="151.2900637">
  <ele>364.17</ele>
  <time>2026-09-01T19:56:37Z</time>
  <course>10.66</course>
  <speed>0.022360679774997897</speed>
  <fix>3d</fix>
</trkpt>
<trkpt lat="-27.2744383" lon="151.2900635">
  <ele>363.99</ele>
  <time>2026-09-01T19:56:37Z</time>
  <course>115.33</course>
  <speed>0.0</speed>
  <fix>3d</fix>
</trkpt>
<trkpt lat="-27.2744385" lon="151.2900637">
  <ele>364.17</ele>
  <time>2026-09-01T19:56:37Z</time>
  <course>10.65</course>
  <speed>0.022360679774997897</speed>
  <fix>3d</fix>
</trkpt>
<trkpt lat="-27.2744383" lon="151.2900635">
  <ele>363.99</ele>
  <time>2026-09-01T19:56:37Z</time>
  <course>117.25</course>
  <speed>0.0</speed>
  <fix>3d</fix>
</trkpt>
<trkpt lat="-27.2744385" lon="151.2900637">
  <ele>364.17</ele>
  <time>2026-09-01T19:56:37Z</time>
  <course>10.63</course>
  <speed>0.022360679774997897</speed>
  <fix>3d</fix>
</trkpt>
<trkpt lat="-27.2744383" lon="151.2900635">
  <ele>363.99</ele>
  <time>2026-09-01T19:56:37Z</time>
  <course>117.25</course>
  <speed>0.0</speed>
  <fix>3d</fix>
</trkpt>
<trkpt lat="-27.2744385" lon="151.2900637">
  <ele>364.17</ele>
  <time>2026-09-01T19:56:37Z</time>
  <course>10.62</course>
  <speed>0.022360679774997897</speed>
  <fix>3d</fix>
</trkpt>
<trkpt lat="-27.2744383" lon="151.2900635">
  <ele>363.99</ele>
  <time>2026-09-01T19:56:37Z</time>
  <course>115.01</course>
  <speed>0.0</speed>
  <fix>3d</fix>
</trkpt>
<trkpt lat="-27.2744385" lon="151.2900637">
  <ele>364.18</ele>
  <time>2026-09-01T19:56:37Z</time>
  <course>10.61</course>
  <speed>0.022360679774997897</speed>
  <fix>3d</fix>
</trkpt>
<trkpt lat="-27.2744383" lon="151.2900635">
  <ele>363.99</ele>
  <time>2026-09-01T19:56:37Z</time>
  <course>115.01</course>
  <speed>0.0</speed>
  <fix>3d</fix>
</trkpt>
<trkpt lat="-27.2744385" lon="151.2900637">
  <ele>364.18</ele>
  <time>2026-09-01T19:56:37Z</time>
  <course>10.61</course>
  <speed>0.022360679774997897</speed>
  <fix>3d</fix>
</trkpt>
<trkpt lat="-27.2744383" lon="151.2900635">
  <ele>363.99</ele>
  <time>2026-09-01T19:56:37Z</time>
  <course>110.16</course>
  <speed>0.0</speed>
  <fix>3d</fix>
</trkpt>
<trkpt lat="-27.2744385" lon="151.2900637">
  <ele>364.18</ele>
  <time>2026-09-01T19:56:37Z</time>
  <course>10.62</course>
  <speed>0.022360679774997897</speed>
  <fix>3d</fix>
</trkpt>
<trkpt lat="-27.2744383" lon="151.2900635">
  <ele>363.99</ele>
  <time>2026-09-01T19:56:37Z</time>
  <course>110.16</course>
  <speed>0.0</speed>
  <fix>3d</fix>
</trkpt>
<trkpt lat="-27.2744385" lon="151.2900637">
  <ele>364.18</ele>
  <time>2026-09-01T19:56:37Z</time>
  <course>10.63</course>
  <speed>0.022360679774997897</speed>
  <fix>3d</fix>
</trkpt>
<trkpt lat="-27.2744383" lon="151.2900635">
  <ele>364.0</ele>
  <time>2026-09-01T19:56:37Z</time>
  <course>108.59</course>
  <speed>0.0</speed>
  <fix>3d</fix>
</trkpt>
<trkpt lat="-27.2744385" lon="151.2900637">
  <ele>364.18</ele>
  <time>2026-09-01T19:56:37Z</time>
  <course>10.64</course>
  <speed>0.022360679774997897</speed>
  <fix>3d</fix>
</trkpt>
<trkpt lat="-27.2744383" lon="151.2900635">
  <ele>364.0</ele>
  <time>2026-09-01T19:56:37Z</time>
  <course>108.59</course>
  <speed>0.0</speed>
  <fix>3d</fix>
</trkpt>
<trkpt lat="-27.2744385" lon="151.2900637">
  <ele>364.18</ele>
  <time>2026-09-01T19:56:37Z</time>
  <course>10.65</course>
  <speed>0.0316227766016838</speed>
  <fix>3d</fix>
</trkpt>
<trkpt lat="-27.2744383" lon="151.2900635">
  <ele>364.0</ele>
  <time>2026-09-01T19:56:37Z</time>
  <course>113.61</course>
  <speed>0.0</speed>
  <fix>3d</fix>
</trkpt>
<trkpt lat="-27.2744385" lon="151.2900637">
  <ele>364.18</ele>
  <time>2026-09-01T19:56:37Z</time>
  <course>10.66</course>
  <speed>0.0316227766016838</speed>
  <fix>3d</fix>
</trkpt>
<trkpt lat="-27.2744383" lon="151.2900635">
  <ele>364.0</ele>
  <time>2026-09-01T19:56:37Z</time>
  <course>113.61</course>
  <speed>0.0</speed>
  <fix>3d</fix>
</trkpt>
<trkpt lat="-27.2744385" lon="151.2900637">
  <ele>364.18</ele>
  <time>2026-09-01T19:56:37Z</time>
  <course>10.67</course>
  <speed>0.0316227766016838</speed>
  <fix>3d</fix>
</trkpt>
<trkpt lat="-27.2744383" lon="151.2900635">
  <ele>364.0</ele>
  <time>2026-09-01T19:56:37Z</time>
  <course>120.99</course>
  <speed>0.01</speed>
  <fix>3d</fix>
</trkpt>
<trkpt lat="-27.2744385" lon="151.2900637">
  <ele>364.18</ele>
  <time>2026-09-01T19:56:37Z</time>
  <course>10.68</course>
  <speed>0.0316227766016838</speed>
  <fix>3d</fix>
</trkpt>
<trkpt lat="-27.2744383" lon="151.2900635">
  <ele>364.0</ele>
  <time>2026-09-01T19:56:37Z</time>
  <course>120.99</course>
  <speed>0.01</speed>
  <fix>3d</fix>
</trkpt>
<trkpt lat="-27.2744385" lon="151.2900637">
  <ele>364.19</ele>
  <time>2026-09-01T19:56:37Z</time>
  <course>10.69</course>
  <speed>0.0316227766016838</speed>
  <fix>3d</fix>
</trkpt>
<trkpt lat="-27.2744383" lon="151.2900635">
  <ele>364.0</ele>
  <time>2026-09-01T19:56:37Z</time>
  <course>125.54</course>
  <speed>0.01</speed>
  <fix>3d</fix>
</trkpt>
<trkpt lat="-27.2744385" lon="151.2900637">
  <ele>364.19</ele>
  <time>2026-09-01T19:56:37Z</time>
  <course>10.7</course>
  <speed>0.0316227766016838</speed>
  <fix>3d</fix>
</trkpt>
<trkpt lat="-27.2744383" lon="151.2900635">
  <ele>364.0</ele>
  <time>2026-09-01T19:56:37Z</time>
  <course>125.54</course>
  <speed>0.01</speed>
  <fix>3d</fix>
</trkpt>
<trkpt lat="-27.2744385" lon="151.2900637">
  <ele>364.19</ele>
  <time>2026-09-01T19:56:37Z</time>
  <course>10.71</course>
  <speed>0.0316227766016838</speed>
  <fix>3d</fix>
</trkpt>
<trkpt lat="-27.2744383" lon="151.2900636">
  <ele>364.0</ele>
  <time>2026-09-01T19:56:37Z</time>
  <course>125.76</course>
  <speed>0.01</speed>
  <fix>3d</fix>
</trkpt>
<trkpt lat="-27.2744385" lon="151.2900637">
  <ele>364.19</ele>
  <time>2026-09-01T19:56:37Z</time>
  <course>10.71</course>
  <speed>0.0316227766016838</speed>
  <fix>3d</fix>
</trkpt>
<trkpt lat="-27.2744383" lon="151.2900636">
  <ele>364.0</ele>
  <time>2026-09-01T19:56:37Z</time>
  <course>125.76</course>
  <speed>0.01</speed>
  <fix>3d</fix>
</trkpt>
<trkpt lat="-27.2744385" lon="151.2900637">
  <ele>364.19</ele>
  <time>2026-09-01T19:56:37Z</time>
  <course>10.72</course>
  <speed>0.022360679774997897</speed>
  <fix>3d</fix>
</trkpt>
<trkpt lat="-27.2744383" lon="151.2900636">
  <ele>364.0</ele>
  <time>2026-09-01T19:56:37Z</time>
  <course>124.19</course>
  <speed>0.01</speed>
  <fix>3d</fix>
</trkpt>
<trkpt lat="-27.2744385" lon="151.2900637">
  <ele>364.19</ele>
  <time>2026-09-01T19:56:37Z</time>
  <course>10.72</course>
  <speed>0.022360679774997897</speed>
  <fix>3d</fix>
</trkpt>
<trkpt lat="-27.2744383" lon="151.2900636">
  <ele>364.0</ele>
  <time>2026-09-01T19:56:37Z</time>
  <course>124.19</course>
  <speed>0.01</speed>
  <fix>3d</fix>
</trkpt>
<trkpt lat="-27.2744385" lon="151.2900637">
  <ele>364.19</ele>
  <time>2026-09-01T19:56:37Z</time>
  <course>10.72</course>
  <speed>0.022360679774997897</speed>
  <fix>3d</fix>
</trkpt>
<trkpt lat="-27.2744383" lon="151.2900636">
  <ele>364.0</ele>
  <time>2026-09-01T19:56:37Z</time>
  <course>122.12</course>
  <speed>0.01</speed>
  <fix>3d</fix>
</trkpt>
<trkpt lat="-27.2744385" lon="151.2900637">
  <ele>364.19</ele>
  <time>2026-09-01T19:56:37Z</time>
  <course>10.72</course>
  <speed>0.022360679774997897</speed>
  <fix>3d</fix>
</trkpt>
<trkpt lat="-27.2744383" lon="151.2900636">
  <ele>364.0</ele>
  <time>2026-09-01T19:56:37Z</time>
  <course>122.12</course>
  <speed>0.01</speed>
  <fix>3d</fix>
</trkpt>
<trkpt lat="-27.2744385" lon="151.2900637">
  <ele>364.19</ele>
  <time>2026-09-01T19:56:37Z</time>
  <course>10.72</course>
  <speed>0.022360679774997897</speed>
  <fix>3d</fix>
</trkpt>
<trkpt lat="-27.2744383" lon="151.2900636">
  <ele>364.0</ele>
  <time>2026-09-01T19:56:37Z</time>
  <course>118.26</course>
  <speed>0.01</speed>
  <fix>3d</fix>
</trkpt>
<trkpt lat="-27.2744385" lon="151.2900637">
  <ele>364.19</ele>
  <time>2026-09-01T19:56:37Z</time>
  <course>10.71</course>
  <speed>0.0282842712474619</speed>
  <fix>3d</fix>
</trkpt>
<trkpt lat="-27.2744383" lon="151.2900636">
  <ele>364.0</ele>
  <time>2026-09-01T19:56:37Z</time>
  <course>118.26</course>
  <speed>0.01</speed>
  <fix>3d</fix>
</trkpt>
<trkpt lat="-27.2744385" lon="151.2900637">
  <ele>364.19</ele>
  <time>2026-09-01T19:56:37Z</time>
  <course>10.71</course>
  <speed>0.0282842712474619</speed>
  <fix>3d</fix>
</trkpt>
<trkpt lat="-27.2744383" lon="151.2900636">
  <ele>363.99</ele>
  <time>2026-09-01T19:56:37Z</time>
  <course>114.31</course>
  <speed>0.01</speed>
  <fix>3d</fix>
</trkpt>
<trkpt lat="-27.2744385" lon="151.2900637">
  <ele>364.19</ele>
  <time>2026-09-01T19:56:37Z</time>
  <course>10.7</course>
  <speed>0.0282842712474619</speed>
  <fix>3d</fix>
</trkpt>
<trkpt lat="-27.2744383" lon="151.2900636">
  <ele>363.99</ele>
  <time>2026-09-01T19:56:37Z</time>
  <course>114.31</course>
  <speed>0.01</speed>
  <fix>3d</fix>
</trkpt>
<trkpt lat="-27.2744385" lon="151.2900637">
  <ele>364.19</ele>
  <time>2026-09-01T19:56:37Z</time>
  <course>10.69</course>
  <speed>0.0282842712474619</speed>
  <fix>3d</fix>
</trkpt>
<trkpt lat="-27.2744383" lon="151.2900637">
  <ele>363.99</ele>
  <time>2026-09-01T19:56:37Z</time>
  <course>114.45</course>
  <speed>0.01</speed>
  <fix>3d</fix>
</trkpt>
<trkpt lat="-27.2744385" lon="151.2900637">
  <ele>364.2</ele>
  <time>2026-09-01T19:56:37Z</time>
  <course>10.68</course>
  <speed>0.0282842712474619</speed>
  <fix>3d</fix>
</trkpt>
<trkpt lat="-27.2744383" lon="151.2900637">
  <ele>363.99</ele>
  <time>2026-09-01T19:56:37Z</time>
  <course>114.45</course>
  <speed>0.01</speed>
  <fix>3d</fix>
</trkpt>
<trkpt lat="-27.2744385" lon="151.2900637">
  <ele>364.2</ele>
  <time>2026-09-01T19:56:37Z</time>
  <course>10.68</course>
  <speed>0.022360679774997897</speed>
  <fix>3d</fix>
</trkpt>
<trkpt lat="-27.2744383" lon="151.2900637">
  <ele>363.99</ele>
  <time>2026-09-01T19:56:37Z</time>
  <course>118.25</course>
  <speed>0.01</speed>
  <fix>3d</fix>
</trkpt>
<trkpt lat="-27.2744385" lon="151.2900638">
  <ele>364.2</ele>
  <time>2026-09-01T19:56:37Z</time>
  <course>10.67</course>
  <speed>0.022360679774997897</speed>
  <fix>3d</fix>
</trkpt>
<trkpt lat="-27.2744383" lon="151.2900637">
  <ele>363.99</ele>
  <time>2026-09-01T19:56:37Z</time>
  <course>118.25</course>
  <speed>0.01</speed>
  <fix>3d</fix>
</trkpt>
<trkpt lat="-27.2744385" lon="151.2900638">
  <ele>364.2</ele>
  <time>2026-09-01T19:56:37Z</time>
  <course>10.67</course>
  <speed>0.022360679774997897</speed>
  <fix>3d</fix>
</trkpt>
<trkpt lat="-27.2744383" lon="151.2900637">
  <ele>363.98</ele>
  <time>2026-09-01T19:56:37Z</time>
  <course>124.17</course>
  <speed>0.01</speed>
  <fix>3d</fix>
</trkpt>
<trkpt lat="-27.2744385" lon="151.2900638">
  <ele>364.2</ele>
  <time>2026-09-01T19:56:37Z</time>
  <course>10.67</course>
  <speed>0.022360679774997897</speed>
  <fix>3d</fix>
</trkpt>
<trkpt lat="-27.2744383" lon="151.2900637">
  <ele>363.98</ele>
  <time>2026-09-01T19:56:37Z</time>
  <course>124.17</course>
  <speed>0.01</speed>
  <fix>3d</fix>
</trkpt>
<trkpt lat="-27.2744385" lon="151.2900638">
  <ele>364.2</ele>
  <time>2026-09-01T19:56:37Z</time>
  <course>10.66</course>
  <speed>0.022360679774997897</speed>
  <fix>3d</fix>
</trkpt>
<trkpt lat="-27.2744383" lon="151.2900637">
  <ele>363.98</ele>
  <time>2026-09-01T19:56:37Z</time>
  <course>130.28</course>
  <speed>0.01</speed>
  <fix>3d</fix>
</trkpt>
<trkpt lat="-27.2744385" lon="151.2900638">
  <ele>364.2</ele>
  <time>2026-09-01T19:56:37Z</time>
  <course>10.67</course>
  <speed>0.022360679774997897</speed>
  <fix>3d</fix>
</trkpt>
<trkpt lat="-27.2744383" lon="151.2900637">
  <ele>363.98</ele>
  <time>2026-09-01T19:56:37Z</time>
  <course>130.28</course>
  <speed>0.01</speed>
  <fix>3d</fix>
</trkpt>
<trkpt lat="-27.2744385" lon="151.2900638">
  <ele>364.2</ele>
  <time>2026-09-01T19:56:37Z</time>
  <course>10.67</course>
  <speed>0.022360679774997897</speed>
  <fix>3d</fix>
</trkpt>
<trkpt lat="-27.2744383" lon="151.2900637">
  <ele>363.98</ele>
  <time>2026-09-01T19:56:37Z</time>
  <course>135.63</course>
  <speed>0.01</speed>
  <fix>3d</fix>
</trkpt>
<trkpt lat="-27.2744385" lon="151.2900638">
  <ele>364.2</ele>
  <time>2026-09-01T19:56:37Z</time>
  <course>10.68</course>
  <speed>0.022360679774997897</speed>
  <fix>3d</fix>
</trkpt>
<trkpt lat="-27.2744383" lon="151.2900637">
  <ele>363.98</ele>
  <time>2026-09-01T19:56:37Z</time>
  <course>135.63</course>
  <speed>0.01</speed>
  <fix>3d</fix>
</trkpt>
<trkpt lat="-27.2744385" lon="151.2900638">
  <ele>364.19</ele>
  <time>2026-09-01T19:56:37Z</time>
  <course>10.69</course>
  <speed>0.022360679774997897</speed>
  <fix>3d</fix>
</trkpt>
<trkpt lat="-27.2744383" lon="151.2900637">
  <ele>363.97</ele>
  <time>2026-09-01T19:56:37Z</time>
  <course>140.23</course>
  <speed>0.01</speed>
  <fix>3d</fix>
</trkpt>
<trkpt lat="-27.2744385" lon="151.2900638">
  <ele>364.19</ele>
  <time>2026-09-01T19:56:37Z</time>
  <course>10.69</course>
  <speed>0.022360679774997897</speed>
  <fix>3d</fix>
</trkpt>
<trkpt lat="-27.2744383" lon="151.2900637">
  <ele>363.97</ele>
  <time>2026-09-01T19:56:37Z</time>
  <course>140.23</course>
  <speed>0.01</speed>
  <fix>3d</fix>
</trkpt>
<trkpt lat="-27.2744385" lon="151.2900638">
  <ele>364.18</ele>
  <time>2026-09-01T19:56:37Z</time>
  <course>10.7</course>
  <speed>0.022360679774997897</speed>
  <fix>3d</fix>
</trkpt>
<trkpt lat="-27.2744384" lon="151.2900637">
  <ele>363.97</ele>
  <time>2026-09-01T19:56:37Z</time>
  <course>143.65</course>
  <speed>0.01</speed>
  <fix>3d</fix>
</trkpt>
<trkpt lat="-27.2744385" lon="151.2900638">
  <ele>364.18</ele>
  <time>2026-09-01T19:56:37Z</time>
  <course>10.7</course>
  <speed>0.022360679774997897</speed>
  <fix>3d</fix>
</trkpt>
<trkpt lat="-27.2744384" lon="151.2900637">
  <ele>363.97</ele>
  <time>2026-09-01T19:56:37Z</time>
  <course>143.65</course>
  <speed>0.01</speed>
  <fix>3d</fix>
</trkpt>
<trkpt lat="-27.2744385" lon="151.2900638">
  <ele>364.18</ele>
  <time>2026-09-01T19:56:37Z</time>
  <course>10.7</course>
  <speed>0.022360679774997897</speed>
  <fix>3d</fix>
</trkpt>
<trkpt lat="-27.2744384" lon="151.2900637">
  <ele>363.96</ele>
  <time>2026-09-01T19:56:37Z</time>
  <course>148.62</course>
  <speed>0.01</speed>
  <fix>3d</fix>
</trkpt>
<trkpt lat="-27.2744385" lon="151.2900638">
  <ele>364.17</ele>
  <time>2026-09-01T19:56:37Z</time>
  <course>10.7</course>
  <speed>0.022360679774997897</speed>
  <fix>3d</fix>
</trkpt>
<trkpt lat="-27.2744384" lon="151.2900637">
  <ele>363.96</ele>
  <time>2026-09-01T19:56:37Z</time>
  <course>148.62</course>
  <speed>0.01</speed>
  <fix>3d</fix>
</trkpt>
<trkpt lat="-27.2744385" lon="151.2900638">
  <ele>364.17</ele>
  <time>2026-09-01T19:56:37Z</time>
  <course>10.7</course>
  <speed>0.022360679774997897</speed>
  <fix>3d</fix>
</trkpt>
<trkpt lat="-27.2744384" lon="151.2900637">
  <ele>363.96</ele>
  <time>2026-09-01T19:56:37Z</time>
  <course>155.65</course>
  <speed>0.01</speed>
  <fix>3d</fix>
</trkpt>
<trkpt lat="-27.2744385" lon="151.2900638">
  <ele>364.17</ele>
  <time>2026-09-01T19:56:37Z</time>
  <course>10.71</course>
  <speed>0.022360679774997897</speed>
  <fix>3d</fix>
</trkpt>
<trkpt lat="-27.2744384" lon="151.2900637">
  <ele>363.96</ele>
  <time>2026-09-01T19:56:37Z</time>
  <course>155.65</course>
  <speed>0.01</speed>
  <fix>3d</fix>
</trkpt>
<trkpt lat="-27.2744386" lon="151.2900638">
  <ele>364.17</ele>
  <time>2026-09-01T19:56:37Z</time>
  <course>10.71</course>
  <speed>0.022360679774997897</speed>
  <fix>3d</fix>
</trkpt>
<trkpt lat="-27.2744384" lon="151.2900637">
  <ele>363.95</ele>
  <time>2026-09-01T19:56:37Z</time>
  <course>161.02</course>
  <speed>0.0</speed>
  <fix>3d</fix>
</trkpt>
<trkpt lat="-27.2744386" lon="151.2900638">
  <ele>364.17</ele>
  <time>2026-09-01T19:56:37Z</time>
  <course>10.7</course>
  <speed>0.022360679774997897</speed>
  <fix>3d</fix>
</trkpt>
<trkpt lat="-27.2744384" lon="151.2900637">
  <ele>363.95</ele>
  <time>2026-09-01T19:56:37Z</time>
  <course>161.02</course>
  <speed>0.0</speed>
  <fix>3d</fix>
</trkpt>
<trkpt lat="-27.2744386" lon="151.2900638">
  <ele>364.17</ele>
  <time>2026-09-01T19:56:37Z</time>
  <course>10.7</course>
  <speed>0.022360679774997897</speed>
  <fix>3d</fix>
</trkpt>
<trkpt lat="-27.2744384" lon="151.2900637">
  <ele>363.95</ele>
  <time>2026-09-01T19:56:37Z</time>
  <course>164.71</course>
  <speed>0.0</speed>
  <fix>3d</fix>
</trkpt>
<trkpt lat="-27.2744386" lon="151.2900638">
  <ele>364.17</ele>
  <time>2026-09-01T19:56:37Z</time>
  <course>10.7</course>
  <speed>0.022360679774997897</speed>
  <fix>3d</fix>
</trkpt>
<trkpt lat="-27.2744384" lon="151.2900637">
  <ele>363.95</ele>
  <time>2026-09-01T19:56:37Z</time>
  <course>164.71</course>
  <speed>0.0</speed>
  <fix>3d</fix>
</trkpt>
<trkpt lat="-27.2744386" lon="151.2900638">
  <ele>364.17</ele>
  <time>2026-09-01T19:56:37Z</time>
  <course>10.69</course>
  <speed>0.022360679774997897</speed>
  <fix>3d</fix>
</trkpt>
<trkpt lat="-27.2744384" lon="151.2900637">
  <ele>363.95</ele>
  <time>2026-09-01T19:56:37Z</time>
  <course>167.42</course>
  <speed>0.0</speed>
  <fix>3d</fix>
</trkpt>
<trkpt lat="-27.2744386" lon="151.2900638">
  <ele>364.17</ele>
  <time>2026-09-01T19:56:37Z</time>
  <course>10.69</course>
  <speed>0.02</speed>
  <fix>3d</fix>
</trkpt>
<trkpt lat="-27.2744384" lon="151.2900637">
  <ele>363.95</ele>
  <time>2026-09-01T19:56:37Z</time>
  <course>167.42</course>
  <speed>0.0</speed>
  <fix>3d</fix>
</trkpt>
<trkpt lat="-27.2744386" lon="151.2900638">
  <ele>364.17</ele>
  <time>2026-09-01T19:56:37Z</time>
  <course>10.68</course>
  <speed>0.02</speed>
  <fix>3d</fix>
</trkpt>
<trkpt lat="-27.2744385" lon="151.2900637">
  <ele>363.96</ele>
  <time>2026-09-01T19:56:37Z</time>
  <course>171.41</course>
  <speed>0.0</speed>
  <fix>3d</fix>
</trkpt>
<trkpt lat="-27.2744386" lon="151.2900638">
  <ele>364.17</ele>
  <time>2026-09-01T19:56:37Z</time>
  <course>10.68</course>
  <speed>0.02</speed>
  <fix>3d</fix>
</trkpt>
<trkpt lat="-27.2744385" lon="151.2900637">
  <ele>363.96</ele>
  <time>2026-09-01T19:56:37Z</time>
  <course>171.41</course>
  <speed>0.0</speed>
  <fix>3d</fix>
</trkpt>
<trkpt lat="-27.2744386" lon="151.2900638">
  <ele>364.17</ele>
  <time>2026-09-01T19:56:37Z</time>
  <course>10.67</course>
  <speed>0.02</speed>
  <fix>3d</fix>
</trkpt>
<trkpt lat="-27.2744385" lon="151.2900637">
  <ele>363.96</ele>
  <time>2026-09-01T19:56:37Z</time>
  <course>177.93</course>
  <speed>0.0</speed>
  <fix>3d</fix>
</trkpt>
<trkpt lat="-27.2744386" lon="151.2900638">
  <ele>364.17</ele>
  <time>2026-09-01T19:56:37Z</time>
  <course>10.68</course>
  <speed>0.02</speed>
  <fix>3d</fix>
</trkpt>
<trkpt lat="-27.2744385" lon="151.2900637">
  <ele>363.96</ele>
  <time>2026-09-01T19:56:37Z</time>
  <course>177.93</course>
  <speed>0.0</speed>
  <fix>3d</fix>
</trkpt>
<trkpt lat="-27.2744386" lon="151.2900638">
  <ele>364.17</ele>
  <time>2026-09-01T19:56:37Z</time>
  <course>10.68</course>
  <speed>0.02</speed>
  <fix>3d</fix>
</trkpt>
<trkpt lat="-27.2744385" lon="151.2900637">
  <ele>363.96</ele>
  <time>2026-09-01T19:56:37Z</time>
  <course>183.12</course>
  <speed>0.0</speed>
  <fix>3d</fix>
</trkpt>
<trkpt lat="-27.2744386" lon="151.2900638">
  <ele>364.17</ele>
  <time>2026-09-01T19:56:37Z</time>
  <course>10.68</course>
  <speed>0.02</speed>
  <fix>3d</fix>
</trkpt>
<trkpt lat="-27.2744385" lon="151.2900637">
  <ele>363.96</ele>
  <time>2026-09-01T19:56:37Z</time>
  <course>183.12</course>
  <speed>0.0</speed>
  <fix>3d</fix>
</trkpt>
<trkpt lat="-27.2744386" lon="151.2900638">
  <ele>364.17</ele>
  <time>2026-09-01T19:56:37Z</time>
  <course>10.68</course>
  <speed>0.02</speed>
  <fix>3d</fix>
</trkpt>
<trkpt lat="-27.2744385" lon="151.2900637">
  <ele>363.96</ele>
  <time>2026-09-01T19:56:37Z</time>
  <course>186.08</course>
  <speed>0.0</speed>
  <fix>3d</fix>
</trkpt>
<trkpt lat="-27.2744386" lon="151.2900638">
  <ele>364.17</ele>
  <time>2026-09-01T19:56:37Z</time>
  <course>10.68</course>
  <speed>0.02</speed>
  <fix>3d</fix>
</trkpt>
<trkpt lat="-27.2744385" lon="151.2900637">
  <ele>363.96</ele>
  <time>2026-09-01T19:56:37Z</time>
  <course>186.08</course>
  <speed>0.0</speed>
  <fix>3d</fix>
</trkpt>
<trkpt lat="-27.2744386" lon="151.2900638">
  <ele>364.17</ele>
  <time>2026-09-01T19:56:37Z</time>
  <course>10.68</course>
  <speed>0.02</speed>
  <fix>3d</fix>
</trkpt>
<trkpt lat="-27.2744385" lon="151.2900637">
  <ele>363.96</ele>
  <time>2026-09-01T19:56:37Z</time>
  <course>187.88</course>
  <speed>0.0</speed>
  <fix>3d</fix>
</trkpt>
<trkpt lat="-27.2744386" lon="151.2900638">
  <ele>364.17</ele>
  <time>2026-09-01T19:56:37Z</time>
  <course>10.68</course>
  <speed>0.02</speed>
  <fix>3d</fix>
</trkpt>
<trkpt lat="-27.2744385" lon="151.2900637">
  <ele>363.96</ele>
  <time>2026-09-01T19:56:37Z</time>
  <course>187.88</course>
  <speed>0.0</speed>
  <fix>3d</fix>
</trkpt>
<trkpt lat="-27.2744386" lon="151.2900638">
  <ele>364.17</ele>
  <time>2026-09-01T19:56:37Z</time>
  <course>10.68</course>
  <speed>0.02</speed>
  <fix>3d</fix>
</trkpt>
<trkpt lat="-27.2744385" lon="151.2900637">
  <ele>363.97</ele>
  <time>2026-09-01T19:56:37Z</time>
  <course>190.61</course>
  <speed>0.0</speed>
  <fix>3d</fix>
</trkpt>
<trkpt lat="-27.2744386" lon="151.2900638">
  <ele>364.17</ele>
  <time>2026-09-01T19:56:37Z</time>
  <course>10.68</course>
  <speed>0.02</speed>
  <fix>3d</fix>
</trkpt>
<trkpt lat="-27.2744385" lon="151.2900637">
  <ele>363.97</ele>
  <time>2026-09-01T19:56:37Z</time>
  <course>190.61</course>
  <speed>0.0</speed>
  <fix>3d</fix>
</trkpt>
<trkpt lat="-27.2744386" lon="151.2900638">
  <ele>364.17</ele>
  <time>2026-09-01T19:56:37Z</time>
  <course>10.68</course>
  <speed>0.02</speed>
  <fix>3d</fix>
</trkpt>
<trkpt lat="-27.2744385" lon="151.2900637">
  <ele>363.97</ele>
  <time>2026-09-01T19:56:37Z</time>
  <course>194.92</course>
  <speed>0.0</speed>
  <fix>3d</fix>
</trkpt>
<trkpt lat="-27.2744386" lon="151.2900638">
  <ele>364.17</ele>
  <time>2026-09-01T19:56:37Z</time>
  <course>10.68</course>
  <speed>0.02</speed>
  <fix>3d</fix>
</trkpt>
<trkpt lat="-27.2744385" lon="151.2900637">
  <ele>363.97</ele>
  <time>2026-09-01T19:56:37Z</time>
  <course>194.92</course>
  <speed>0.0</speed>
  <fix>3d</fix>
</trkpt>
<trkpt lat="-27.2744386" lon="151.2900638">
  <ele>364.17</ele>
  <time>2026-09-01T19:56:37Z</time>
  <course>10.68</course>
  <speed>0.02</speed>
  <fix>3d</fix>
</trkpt>
<trkpt lat="-27.2744385" lon="151.2900637">
  <ele>363.97</ele>
  <time>2026-09-01T19:56:37Z</time>
  <course>196.43</course>
  <speed>0.0</speed>
  <fix>3d</fix>
</trkpt>
<trkpt lat="-27.2744386" lon="151.2900638">
  <ele>364.17</ele>
  <time>2026-09-01T19:56:37Z</time>
  <course>10.68</course>
  <speed>0.02</speed>
  <fix>3d</fix>
</trkpt>
<trkpt lat="-27.2744385" lon="151.2900637">
  <ele>363.97</ele>
  <time>2026-09-01T19:56:37Z</time>
  <course>196.43</course>
  <speed>0.0</speed>
  <fix>3d</fix>
</trkpt>
<trkpt lat="-27.2744386" lon="151.2900638">
  <ele>364.17</ele>
  <time>2026-09-01T19:56:38Z</time>
  <course>10.68</course>
  <speed>0.02</speed>
  <fix>3d</fix>
</trkpt>
<trkpt lat="-27.2744385" lon="151.2900637">
  <ele>363.97</ele>
  <time>2026-09-01T19:56:38Z</time>
  <course>199.07</course>
  <speed>0.0</speed>
  <fix>3d</fix>
</trkpt>
<trkpt lat="-27.2744386" lon="151.2900638">
  <ele>364.17</ele>
  <time>2026-09-01T19:56:38Z</time>
  <course>10.68</course>
  <speed>0.022360679774997897</speed>
  <fix>3d</fix>
</trkpt>
<trkpt lat="-27.2744385" lon="151.2900637">
  <ele>363.97</ele>
  <time>2026-09-01T19:56:38Z</time>
  <course>199.07</course>
  <speed>0.0</speed>
  <fix>3d</fix>
</trkpt>
<trkpt lat="-27.2744386" lon="151.2900638">
  <ele>364.17</ele>
  <time>2026-09-01T19:56:38Z</time>
  <course>10.68</course>
  <speed>0.022360679774997897</speed>
  <fix>3d</fix>
</trkpt>
<trkpt lat="-27.2744385" lon="151.2900637">
  <ele>363.97</ele>
  <time>2026-09-01T19:56:38Z</time>
  <course>206.74</course>
  <speed>0.0</speed>
  <fix>3d</fix>
</trkpt>
<trkpt lat="-27.2744386" lon="151.2900638">
  <ele>364.16</ele>
  <time>2026-09-01T19:56:38Z</time>
  <course>10.68</course>
  <speed>0.022360679774997897</speed>
  <fix>3d</fix>
</trkpt>
<trkpt lat="-27.2744385" lon="151.2900637">
  <ele>363.97</ele>
  <time>2026-09-01T19:56:38Z</time>
  <course>206.74</course>
  <speed>0.0</speed>
  <fix>3d</fix>
</trkpt>
<trkpt lat="-27.2744386" lon="151.2900638">
  <ele>364.17</ele>
  <time>2026-09-01T19:56:38Z</time>
  <course>10.68</course>
  <speed>0.02</speed>
  <fix>3d</fix>
</trkpt>
<trkpt lat="-27.2744385" lon="151.2900637">
  <ele>363.97</ele>
  <time>2026-09-01T19:56:38Z</time>
  <course>231.82</course>
  <speed>0.0</speed>
  <fix>3d</fix>
</trkpt>
<trkpt lat="-27.2744386" lon="151.2900638">
  <ele>364.17</ele>
  <time>2026-09-01T19:56:38Z</time>
  <course>10.68</course>
  <speed>0.02</speed>
  <fix>3d</fix>
</trkpt>
<trkpt lat="-27.2744385" lon="151.2900637">
  <ele>363.97</ele>
  <time>2026-09-01T19:56:38Z</time>
  <course>231.82</course>
  <speed>0.0</speed>
  <fix>3d</fix>
</trkpt>
<trkpt lat="-27.2744386" lon="151.2900638">
  <ele>364.17</ele>
  <time>2026-09-01T19:56:38Z</time>
  <course>10.69</course>
  <speed>0.02</speed>
  <fix>3d</fix>
</trkpt>
<trkpt lat="-27.2744385" lon="151.2900637">
  <ele>363.98</ele>
  <time>2026-09-01T19:56:38Z</time>
  <course>281.53</course>
  <speed>0.0</speed>
  <fix>3d</fix>
</trkpt>
<trkpt lat="-27.2744386" lon="151.2900638">
  <ele>364.17</ele>
  <time>2026-09-01T19:56:38Z</time>
  <course>10.69</course>
  <speed>0.02</speed>
  <fix>3d</fix>
</trkpt>
<trkpt lat="-27.2744385" lon="151.2900637">
  <ele>363.98</ele>
  <time>2026-09-01T19:56:38Z</time>
  <course>281.53</course>
  <speed>0.0</speed>
  <fix>3d</fix>
</trkpt>
<trkpt lat="-27.2744386" lon="151.2900638">
  <ele>364.17</ele>
  <time>2026-09-01T19:56:38Z</time>
  <course>10.7</course>
  <speed>0.01</speed>
  <fix>3d</fix>
</trkpt>
<trkpt lat="-27.2744385" lon="151.2900637">
  <ele>363.98</ele>
  <time>2026-09-01T19:56:38Z</time>
  <course>301.41</course>
  <speed>0.0</speed>
  <fix>3d</fix>
</trkpt>
<trkpt lat="-27.2744386" lon="151.2900638">
  <ele>364.17</ele>
  <time>2026-09-01T19:56:38Z</time>
  <course>10.7</course>
  <speed>0.02</speed>
  <fix>3d</fix>
</trkpt>
<trkpt lat="-27.2744385" lon="151.2900637">
  <ele>363.98</ele>
  <time>2026-09-01T19:56:38Z</time>
  <course>301.41</course>
  <speed>0.0</speed>
  <fix>3d</fix>
</trkpt>
<trkpt lat="-27.2744386" lon="151.2900638">
  <ele>364.17</ele>
  <time>2026-09-01T19:56:38Z</time>
  <course>10.7</course>
  <speed>0.02</speed>
  <fix>3d</fix>
</trkpt>
<trkpt lat="-27.2744385" lon="151.2900637">
  <ele>363.98</ele>
  <time>2026-09-01T19:56:38Z</time>
  <course>307.56</course>
  <speed>0.0</speed>
  <fix>3d</fix>
</trkpt>
<trkpt lat="-27.2744386" lon="151.2900638">
  <ele>364.17</ele>
  <time>2026-09-01T19:56:38Z</time>
  <course>10.7</course>
  <speed>0.022360679774997897</speed>
  <fix>3d</fix>
</trkpt>
<trkpt lat="-27.2744385" lon="151.2900637">
  <ele>363.98</ele>
  <time>2026-09-01T19:56:38Z</time>
  <course>307.56</course>
  <speed>0.0</speed>
  <fix>3d</fix>
</trkpt>
<trkpt lat="-27.2744386" lon="151.2900638">
  <ele>364.17</ele>
  <time>2026-09-01T19:56:38Z</time>
  <course>10.7</course>
  <speed>0.022360679774997897</speed>
  <fix>3d</fix>
</trkpt>
<trkpt lat="-27.2744385" lon="151.2900637">
  <ele>363.98</ele>
  <time>2026-09-01T19:56:38Z</time>
  <course>312.54</course>
  <speed>0.0</speed>
  <fix>3d</fix>
</trkpt>
<trkpt lat="-27.2744386" lon="151.2900638">
  <ele>364.17</ele>
  <time>2026-09-01T19:56:38Z</time>
  <course>10.7</course>
  <speed>0.022360679774997897</speed>
  <fix>3d</fix>
</trkpt>
<trkpt lat="-27.2744385" lon="151.2900637">
  <ele>363.98</ele>
  <time>2026-09-01T19:56:38Z</time>
  <course>312.54</course>
  <speed>0.0</speed>
  <fix>3d</fix>
</trkpt>
<trkpt lat="-27.2744386" lon="151.2900638">
  <ele>364.17</ele>
  <time>2026-09-01T19:56:38Z</time>
  <course>10.69</course>
  <speed>0.022360679774997897</speed>
  <fix>3d</fix>
</trkpt>
<trkpt lat="-27.2744385" lon="151.2900637">
  <ele>363.99</ele>
  <time>2026-09-01T19:56:38Z</time>
  <course>318.41</course>
  <speed>0.0</speed>
  <fix>3d</fix>
</trkpt>
<trkpt lat="-27.2744386" lon="151.2900638">
  <ele>364.17</ele>
  <time>2026-09-01T19:56:38Z</time>
  <course>10.69</course>
  <speed>0.022360679774997897</speed>
  <fix>3d</fix>
</trkpt>
<trkpt lat="-27.2744385" lon="151.2900637">
  <ele>363.99</ele>
  <time>2026-09-01T19:56:38Z</time>
  <course>318.41</course>
  <speed>0.0</speed>
  <fix>3d</fix>
</trkpt>
<trkpt lat="-27.2744386" lon="151.2900638">
  <ele>364.18</ele>
  <time>2026-09-01T19:56:38Z</time>
  <course>10.68</course>
  <speed>0.022360679774997897</speed>
  <fix>3d</fix>
</trkpt>
<trkpt lat="-27.2744385" lon="151.2900637">
  <ele>363.99</ele>
  <time>2026-09-01T19:56:38Z</time>
  <course>323.0</course>
  <speed>0.0</speed>
  <fix>3d</fix>
</trkpt>
<trkpt lat="-27.2744386" lon="151.2900638">
  <ele>364.18</ele>
  <time>2026-09-01T19:56:38Z</time>
  <course>10.68</course>
  <speed>0.022360679774997897</speed>
  <fix>3d</fix>
</trkpt>
<trkpt lat="-27.2744385" lon="151.2900637">
  <ele>363.99</ele>
  <time>2026-09-01T19:56:38Z</time>
  <course>323.0</course>
  <speed>0.0</speed>
  <fix>3d</fix>
</trkpt>
<trkpt lat="-27.2744386" lon="151.2900638">
  <ele>364.18</ele>
  <time>2026-09-01T19:56:38Z</time>
  <course>10.67</course>
  <speed>0.022360679774997897</speed>
  <fix>3d</fix>
</trkpt>
<trkpt lat="-27.2744385" lon="151.2900637">
  <ele>363.99</ele>
  <time>2026-09-01T19:56:38Z</time>
  <course>324.94</course>
  <speed>0.0</speed>
  <fix>3d</fix>
</trkpt>
<trkpt lat="-27.2744386" lon="151.2900638">
  <ele>364.18</ele>
  <time>2026-09-01T19:56:38Z</time>
  <course>10.67</course>
  <speed>0.022360679774997897</speed>
  <fix>3d</fix>
</trkpt>
<trkpt lat="-27.2744385" lon="151.2900637">
  <ele>363.99</ele>
  <time>2026-09-01T19:56:38Z</time>
  <course>324.94</course>
  <speed>0.0</speed>
  <fix>3d</fix>
</trkpt>
<trkpt lat="-27.2744386" lon="151.2900638">
  <ele>364.18</ele>
  <time>2026-09-01T19:56:38Z</time>
  <course>10.67</course>
  <speed>0.01414213562373095</speed>
  <fix>3d</fix>
</trkpt>
<trkpt lat="-27.2744385" lon="151.2900637">
  <ele>364.0</ele>
  <time>2026-09-01T19:56:38Z</time>
  <course>327.18</course>
  <speed>0.0</speed>
  <fix>3d</fix>
</trkpt>
<trkpt lat="-27.2744386" lon="151.2900638">
  <ele>364.18</ele>
  <time>2026-09-01T19:56:38Z</time>
  <course>10.67</course>
  <speed>0.01414213562373095</speed>
  <fix>3d</fix>
</trkpt>
<trkpt lat="-27.2744385" lon="151.2900637">
  <ele>364.0</ele>
  <time>2026-09-01T19:56:38Z</time>
  <course>327.18</course>
  <speed>0.0</speed>
  <fix>3d</fix>
</trkpt>
<trkpt lat="-27.2744386" lon="151.2900638">
  <ele>364.18</ele>
  <time>2026-09-01T19:56:38Z</time>
  <course>10.67</course>
  <speed>0.01414213562373095</speed>
  <fix>3d</fix>
</trkpt>
<trkpt lat="-27.2744385" lon="151.2900637">
  <ele>364.0</ele>
  <time>2026-09-01T19:56:38Z</time>
  <course>330.41</course>
  <speed>0.0</speed>
  <fix>3d</fix>
</trkpt>
<trkpt lat="-27.2744386" lon="151.2900638">
  <ele>364.18</ele>
  <time>2026-09-01T19:56:38Z</time>
  <course>10.67</course>
  <speed>0.01414213562373095</speed>
  <fix>3d</fix>
</trkpt>
<trkpt lat="-27.2744385" lon="151.2900637">
  <ele>364.0</ele>
  <time>2026-09-01T19:56:38Z</time>
  <course>332.72</course>
  <speed>0.0</speed>
  <fix>3d</fix>
</trkpt>
<trkpt lat="-27.2744386" lon="151.2900638">
  <ele>364.18</ele>
  <time>2026-09-01T19:56:38Z</time>
  <course>10.68</course>
  <speed>0.01414213562373095</speed>
  <fix>3d</fix>
</trkpt>
<trkpt lat="-27.2744385" lon="151.2900637">
  <ele>364.0</ele>
  <time>2026-09-01T19:56:38Z</time>
  <course>332.72</course>
  <speed>0.0</speed>
  <fix>3d</fix>
</trkpt>
<trkpt lat="-27.2744386" lon="151.2900638">
  <ele>364.18</ele>
  <time>2026-09-01T19:56:38Z</time>
  <course>10.68</course>
  <speed>0.01414213562373095</speed>
  <fix>3d</fix>
</trkpt>
<trkpt lat="-27.2744385" lon="151.2900637">
  <ele>364.0</ele>
  <time>2026-09-01T19:56:38Z</time>
  <course>331.07</course>
  <speed>0.0</speed>
  <fix>3d</fix>
</trkpt>
<trkpt lat="-27.2744386" lon="151.2900638">
  <ele>364.18</ele>
  <time>2026-09-01T19:56:38Z</time>
  <course>10.69</course>
  <speed>0.01414213562373095</speed>
  <fix>3d</fix>
</trkpt>
<trkpt lat="-27.2744385" lon="151.2900637">
  <ele>364.0</ele>
  <time>2026-09-01T19:56:38Z</time>
  <course>331.07</course>
  <speed>0.0</speed>
  <fix>3d</fix>
</trkpt>
<trkpt lat="-27.2744386" lon="151.2900638">
  <ele>364.18</ele>
  <time>2026-09-01T19:56:38Z</time>
  <course>10.69</course>
  <speed>0.01414213562373095</speed>
  <fix>3d</fix>
</trkpt>
<trkpt lat="-27.2744385" lon="151.2900637">
  <ele>364.0</ele>
  <time>2026-09-01T19:56:38Z</time>
  <course>327.29</course>
  <speed>0.0</speed>
  <fix>3d</fix>
</trkpt>
<trkpt lat="-27.2744386" lon="151.2900638">
  <ele>364.18</ele>
  <time>2026-09-01T19:56:38Z</time>
  <course>10.69</course>
  <speed>0.01414213562373095</speed>
  <fix>3d</fix>
</trkpt>
<trkpt lat="-27.2744385" lon="151.2900637">
  <ele>364.0</ele>
  <time>2026-09-01T19:56:38Z</time>
  <course>327.29</course>
  <speed>0.0</speed>
  <fix>3d</fix>
</trkpt>
<trkpt lat="-27.2744386" lon="151.2900638">
  <ele>364.18</ele>
  <time>2026-09-01T19:56:38Z</time>
  <course>10.7</course>
  <speed>0.01414213562373095</speed>
  <fix>3d</fix>
</trkpt>
<trkpt lat="-27.2744385" lon="151.2900637">
  <ele>364.0</ele>
  <time>2026-09-01T19:56:38Z</time>
  <course>327.29</course>
  <speed>0.0</speed>
  <fix>3d</fix>
</trkpt>
<trkpt lat="-27.2744386" lon="151.2900638">
  <ele>364.18</ele>
  <time>2026-09-01T19:56:38Z</time>
  <course>10.7</course>
  <speed>0.01414213562373095</speed>
  <fix>3d</fix>
</trkpt>
<trkpt lat="-27.2744385" lon="151.2900637">
  <ele>364.0</ele>
  <time>2026-09-01T19:56:38Z</time>
  <course>327.06</course>
  <speed>0.0</speed>
  <fix>3d</fix>
</trkpt>
<trkpt lat="-27.2744386" lon="151.2900638">
  <ele>364.18</ele>
  <time>2026-09-01T19:56:38Z</time>
  <course>10.7</course>
  <speed>0.01414213562373095</speed>
  <fix>3d</fix>
</trkpt>
<trkpt lat="-27.2744385" lon="151.2900637">
  <ele>364.0</ele>
  <time>2026-09-01T19:56:38Z</time>
  <course>327.06</course>
  <speed>0.0</speed>
  <fix>3d</fix>
</trkpt>
<trkpt lat="-27.2744386" lon="151.2900638">
  <ele>364.18</ele>
  <time>2026-09-01T19:56:38Z</time>
  <course>10.7</course>
  <speed>0.01414213562373095</speed>
  <fix>3d</fix>
</trkpt>
<trkpt lat="-27.2744385" lon="151.2900637">
  <ele>364.0</ele>
  <time>2026-09-01T19:56:38Z</time>
  <course>329.86</course>
  <speed>0.0</speed>
  <fix>3d</fix>
</trkpt>
<trkpt lat="-27.2744386" lon="151.2900638">
  <ele>364.19</ele>
  <time>2026-09-01T19:56:38Z</time>
  <course>10.7</course>
  <speed>0.01414213562373095</speed>
  <fix>3d</fix>
</trkpt>
<trkpt lat="-27.2744385" lon="151.2900637">
  <ele>364.0</ele>
  <time>2026-09-01T19:56:38Z</time>
  <course>329.86</course>
  <speed>0.0</speed>
  <fix>3d</fix>
</trkpt>
<trkpt lat="-27.2744386" lon="151.2900638">
  <ele>364.19</ele>
  <time>2026-09-01T19:56:38Z</time>
  <course>10.7</course>
  <speed>0.01414213562373095</speed>
  <fix>3d</fix>
</trkpt>
<trkpt lat="-27.2744385" lon="151.2900637">
  <ele>364.0</ele>
  <time>2026-09-01T19:56:38Z</time>
  <course>332.83</course>
  <speed>0.0</speed>
  <fix>3d</fix>
</trkpt>
<trkpt lat="-27.2744386" lon="151.2900638">
  <ele>364.19</ele>
  <time>2026-09-01T19:56:38Z</time>
  <course>10.7</course>
  <speed>0.01414213562373095</speed>
  <fix>3d</fix>
</trkpt>
<trkpt lat="-27.2744385" lon="151.2900637">
  <ele>364.0</ele>
  <time>2026-09-01T19:56:38Z</time>
  <course>332.83</course>
  <speed>0.0</speed>
  <fix>3d</fix>
</trkpt>
<trkpt lat="-27.2744386" lon="151.2900638">
  <ele>364.19</ele>
  <time>2026-09-01T19:56:38Z</time>
  <course>10.7</course>
  <speed>0.01414213562373095</speed>
  <fix>3d</fix>
</trkpt>
<trkpt lat="-27.2744385" lon="151.2900637">
  <ele>364.0</ele>
  <time>2026-09-01T19:56:38Z</time>
  <course>334.46</course>
  <speed>0.0</speed>
  <fix>3d</fix>
</trkpt>
<trkpt lat="-27.2744386" lon="151.2900638">
  <ele>364.19</ele>
  <time>2026-09-01T19:56:38Z</time>
  <course>10.7</course>
  <speed>0.01414213562373095</speed>
  <fix>3d</fix>
</trkpt>
<trkpt lat="-27.2744385" lon="151.2900637">
  <ele>364.0</ele>
  <time>2026-09-01T19:56:38Z</time>
  <course>334.46</course>
  <speed>0.0</speed>
  <fix>3d</fix>
</trkpt>
<trkpt lat="-27.2744386" lon="151.2900638">
  <ele>364.19</ele>
  <time>2026-09-01T19:56:38Z</time>
  <course>10.7</course>
  <speed>0.01414213562373095</speed>
  <fix>3d</fix>
</trkpt>
<trkpt lat="-27.2744385" lon="151.2900637">
  <ele>364.0</ele>
  <time>2026-09-01T19:56:38Z</time>
  <course>334.88</course>
  <speed>0.0</speed>
  <fix>3d</fix>
</trkpt>
<trkpt lat="-27.2744386" lon="151.2900638">
  <ele>364.19</ele>
  <time>2026-09-01T19:56:38Z</time>
  <course>10.69</course>
  <speed>0.01414213562373095</speed>
  <fix>3d</fix>
</trkpt>
<trkpt lat="-27.2744385" lon="151.2900637">
  <ele>364.0</ele>
  <time>2026-09-01T19:56:38Z</time>
  <course>334.88</course>
  <speed>0.0</speed>
  <fix>3d</fix>
</trkpt>
<trkpt lat="-27.2744386" lon="151.2900638">
  <ele>364.19</ele>
  <time>2026-09-01T19:56:38Z</time>
  <course>10.69</course>
  <speed>0.01414213562373095</speed>
  <fix>3d</fix>
</trkpt>
<trkpt lat="-27.2744385" lon="151.2900637">
  <ele>363.99</ele>
  <time>2026-09-01T19:56:38Z</time>
  <course>335.11</course>
  <speed>0.0</speed>
  <fix>3d</fix>
</trkpt>
<trkpt lat="-27.2744386" lon="151.2900638">
  <ele>364.18</ele>
  <time>2026-09-01T19:56:38Z</time>
  <course>10.68</course>
  <speed>0.01414213562373095</speed>
  <fix>3d</fix>
</trkpt>
<trkpt lat="-27.2744385" lon="151.2900637">
  <ele>363.99</ele>
  <time>2026-09-01T19:56:38Z</time>
  <course>335.11</course>
  <speed>0.0</speed>
  <fix>3d</fix>
</trkpt>
<trkpt lat="-27.2744386" lon="151.2900638">
  <ele>364.18</ele>
  <time>2026-09-01T19:56:38Z</time>
  <course>10.68</course>
  <speed>0.01414213562373095</speed>
  <fix>3d</fix>
</trkpt>
<trkpt lat="-27.2744385" lon="151.2900637">
  <ele>363.99</ele>
  <time>2026-09-01T19:56:38Z</time>
  <course>333.45</course>
  <speed>0.0</speed>
  <fix>3d</fix>
</trkpt>
<trkpt lat="-27.2744386" lon="151.2900638">
  <ele>364.18</ele>
  <time>2026-09-01T19:56:38Z</time>
  <course>10.68</course>
  <speed>0.01414213562373095</speed>
  <fix>3d</fix>
</trkpt>
<trkpt lat="-27.2744385" lon="151.2900637">
  <ele>363.99</ele>
  <time>2026-09-01T19:56:38Z</time>
  <course>333.45</course>
  <speed>0.0</speed>
  <fix>3d</fix>
</trkpt>
<trkpt lat="-27.2744386" lon="151.2900638">
  <ele>364.18</ele>
  <time>2026-09-01T19:56:38Z</time>
  <course>10.67</course>
  <speed>0.01414213562373095</speed>
  <fix>3d</fix>
</trkpt>
<trkpt lat="-27.2744385" lon="151.2900637">
  <ele>363.99</ele>
  <time>2026-09-01T19:56:38Z</time>
  <course>330.01</course>
  <speed>0.0</speed>
  <fix>3d</fix>
</trkpt>
<trkpt lat="-27.2744386" lon="151.2900638">
  <ele>364.18</ele>
  <time>2026-09-01T19:56:38Z</time>
  <course>10.67</course>
  <speed>0.022360679774997897</speed>
  <fix>3d</fix>
</trkpt>
<trkpt lat="-27.2744385" lon="151.2900637">
  <ele>363.99</ele>
  <time>2026-09-01T19:56:38Z</time>
  <course>326.59</course>
  <speed>0.0</speed>
  <fix>3d</fix>
</trkpt>
<trkpt lat="-27.2744386" lon="151.2900638">
  <ele>364.18</ele>
  <time>2026-09-01T19:56:38Z</time>
  <course>10.67</course>
  <speed>0.022360679774997897</speed>
  <fix>3d</fix>
</trkpt>
<trkpt lat="-27.2744385" lon="151.2900637">
  <ele>363.99</ele>
  <time>2026-09-01T19:56:38Z</time>
  <course>326.59</course>
  <speed>0.0</speed>
  <fix>3d</fix>
</trkpt>
<trkpt lat="-27.2744386" lon="151.2900638">
  <ele>364.18</ele>
  <time>2026-09-01T19:56:38Z</time>
  <course>10.67</course>
  <speed>0.022360679774997897</speed>
  <fix>3d</fix>
</trkpt>
<trkpt lat="-27.2744384" lon="151.2900637">
  <ele>363.99</ele>
  <time>2026-09-01T19:56:38Z</time>
  <course>324.39</course>
  <speed>0.0</speed>
  <fix>3d</fix>
</trkpt>
<trkpt lat="-27.2744386" lon="151.2900638">
  <ele>364.18</ele>
  <time>2026-09-01T19:56:38Z</time>
  <course>10.67</course>
  <speed>0.022360679774997897</speed>
  <fix>3d</fix>
</trkpt>
<trkpt lat="-27.2744384" lon="151.2900637">
  <ele>363.99</ele>
  <time>2026-09-01T19:56:38Z</time>
  <course>324.39</course>
  <speed>0.0</speed>
  <fix>3d</fix>
</trkpt>
<trkpt lat="-27.2744386" lon="151.2900638">
  <ele>364.18</ele>
  <time>2026-09-01T19:56:38Z</time>
  <course>10.67</course>
  <speed>0.022360679774997897</speed>
  <fix>3d</fix>
</trkpt>
<trkpt lat="-27.2744384" lon="151.2900637">
  <ele>363.99</ele>
  <time>2026-09-01T19:56:38Z</time>
  <course>325.34</course>
  <speed>0.0</speed>
  <fix>3d</fix>
</trkpt>
<trkpt lat="-27.2744386" lon="151.2900638">
  <ele>364.18</ele>
  <time>2026-09-01T19:56:38Z</time>
  <course>10.67</course>
  <speed>0.01414213562373095</speed>
  <fix>3d</fix>
</trkpt>
<trkpt lat="-27.2744384" lon="151.2900637">
  <ele>363.99</ele>
  <time>2026-09-01T19:56:38Z</time>
  <course>325.34</course>
  <speed>0.0</speed>
  <fix>3d</fix>
</trkpt>
<trkpt lat="-27.2744386" lon="151.2900638">
  <ele>364.18</ele>
  <time>2026-09-01T19:56:38Z</time>
  <course>10.68</course>
  <speed>0.01414213562373095</speed>
  <fix>3d</fix>
</trkpt>
<trkpt lat="-27.2744384" lon="151.2900637">
  <ele>363.99</ele>
  <time>2026-09-01T19:56:38Z</time>
  <course>326.96</course>
  <speed>0.01</speed>
  <fix>3d</fix>
</trkpt>
<trkpt lat="-27.2744386" lon="151.2900638">
  <ele>364.19</ele>
  <time>2026-09-01T19:56:38Z</time>
  <course>10.68</course>
  <speed>0.01414213562373095</speed>
  <fix>3d</fix>
</trkpt>
<trkpt lat="-27.2744384" lon="151.2900637">
  <ele>363.99</ele>
  <time>2026-09-01T19:56:38Z</time>
  <course>326.96</course>
  <speed>0.01</speed>
  <fix>3d</fix>
</trkpt>
<trkpt lat="-27.2744386" lon="151.2900638">
  <ele>364.19</ele>
  <time>2026-09-01T19:56:38Z</time>
  <course>10.69</course>
  <speed>0.01414213562373095</speed>
  <fix>3d</fix>
</trkpt>
<trkpt lat="-27.2744384" lon="151.2900637">
  <ele>363.99</ele>
  <time>2026-09-01T19:56:38Z</time>
  <course>327.25</course>
  <speed>0.01</speed>
  <fix>3d</fix>
</trkpt>
<trkpt lat="-27.2744386" lon="151.2900638">
  <ele>364.19</ele>
  <time>2026-09-01T19:56:38Z</time>
  <course>10.69</course>
  <speed>0.01414213562373095</speed>
  <fix>3d</fix>
</trkpt>
<trkpt lat="-27.2744384" lon="151.2900637">
  <ele>363.99</ele>
  <time>2026-09-01T19:56:38Z</time>
  <course>327.25</course>
  <speed>0.01</speed>
  <fix>3d</fix>
</trkpt>
<trkpt lat="-27.2744386" lon="151.2900638">
  <ele>364.19</ele>
  <time>2026-09-01T19:56:38Z</time>
  <course>10.7</course>
  <speed>0.01414213562373095</speed>
  <fix>3d</fix>
</trkpt>
<trkpt lat="-27.2744384" lon="151.2900637">
  <ele>363.99</ele>
  <time>2026-09-01T19:56:38Z</time>
  <course>326.77</course>
  <speed>0.01</speed>
  <fix>3d</fix>
</trkpt>
<trkpt lat="-27.2744386" lon="151.2900638">
  <ele>364.2</ele>
  <time>2026-09-01T19:56:38Z</time>
  <course>10.7</course>
  <speed>0.01414213562373095</speed>
  <fix>3d</fix>
</trkpt>
<trkpt lat="-27.2744384" lon="151.2900637">
  <ele>363.99</ele>
  <time>2026-09-01T19:56:38Z</time>
  <course>326.77</course>
  <speed>0.01</speed>
  <fix>3d</fix>
</trkpt>
<trkpt lat="-27.2744386" lon="151.2900638">
  <ele>364.2</ele>
  <time>2026-09-01T19:56:38Z</time>
  <course>10.7</course>
  <speed>0.01414213562373095</speed>
  <fix>3d</fix>
</trkpt>
<trkpt lat="-27.2744384" lon="151.2900637">
  <ele>363.99</ele>
  <time>2026-09-01T19:56:38Z</time>
  <course>326.77</course>
  <speed>0.01</speed>
  <fix>3d</fix>
</trkpt>
<trkpt lat="-27.2744386" lon="151.2900638">
  <ele>364.2</ele>
  <time>2026-09-01T19:56:38Z</time>
  <course>10.7</course>
  <speed>0.01414213562373095</speed>
  <fix>3d</fix>
</trkpt>
<trkpt lat="-27.2744384" lon="151.2900637">
  <ele>363.99</ele>
  <time>2026-09-01T19:56:38Z</time>
  <course>325.91</course>
  <speed>0.01</speed>
  <fix>3d</fix>
</trkpt>
<trkpt lat="-27.2744386" lon="151.2900638">
  <ele>364.2</ele>
  <time>2026-09-01T19:56:38Z</time>
  <course>10.7</course>
  <speed>0.01414213562373095</speed>
  <fix>3d</fix>
</trkpt>
<trkpt lat="-27.2744384" lon="151.2900637">
  <ele>363.99</ele>
  <time>2026-09-01T19:56:38Z</time>
  <course>325.91</course>
  <speed>0.01</speed>
  <fix>3d</fix>
</trkpt>
<trkpt lat="-27.2744386" lon="151.2900638">
  <ele>364.2</ele>
  <time>2026-09-01T19:56:38Z</time>
  <course>10.7</course>
  <speed>0.01414213562373095</speed>
  <fix>3d</fix>
</trkpt>
<trkpt lat="-27.2744383" lon="151.2900637">
  <ele>363.99</ele>
  <time>2026-09-01T19:56:38Z</time>
  <course>324.26</course>
  <speed>0.01</speed>
  <fix>3d</fix>
</trkpt>
<trkpt lat="-27.2744386" lon="151.2900638">
  <ele>364.2</ele>
  <time>2026-09-01T19:56:38Z</time>
  <course>10.7</course>
  <speed>0.022360679774997897</speed>
  <fix>3d</fix>
</trkpt>
<trkpt lat="-27.2744383" lon="151.2900637">
  <ele>363.99</ele>
  <time>2026-09-01T19:56:38Z</time>
  <course>324.26</course>
  <speed>0.01</speed>
  <fix>3d</fix>
</trkpt>
<trkpt lat="-27.2744386" lon="151.2900638">
  <ele>364.2</ele>
  <time>2026-09-01T19:56:38Z</time>
  <course>10.69</course>
  <speed>0.01414213562373095</speed>
  <fix>3d</fix>
</trkpt>
<trkpt lat="-27.2744383" lon="151.2900637">
  <ele>363.98</ele>
  <time>2026-09-01T19:56:38Z</time>
  <course>322.61</course>
  <speed>0.01</speed>
  <fix>3d</fix>
</trkpt>
<trkpt lat="-27.2744386" lon="151.2900638">
  <ele>364.2</ele>
  <time>2026-09-01T19:56:38Z</time>
  <course>10.69</course>
  <speed>0.022360679774997897</speed>
  <fix>3d</fix>
</trkpt>
<trkpt lat="-27.2744383" lon="151.2900637">
  <ele>363.98</ele>
  <time>2026-09-01T19:56:38Z</time>
  <course>322.61</course>
  <speed>0.01</speed>
  <fix>3d</fix>
</trkpt>
<trkpt lat="-27.2744386" lon="151.2900638">
  <ele>364.2</ele>
  <time>2026-09-01T19:56:38Z</time>
  <course>10.68</course>
  <speed>0.022360679774997897</speed>
  <fix>3d</fix>
</trkpt>
<trkpt lat="-27.2744383" lon="151.2900637">
  <ele>363.98</ele>
  <time>2026-09-01T19:56:38Z</time>
  <course>322.16</course>
  <speed>0.0</speed>
  <fix>3d</fix>
</trkpt>
<trkpt lat="-27.2744386" lon="151.2900638">
  <ele>364.19</ele>
  <time>2026-09-01T19:56:38Z</time>
  <course>10.68</course>
  <speed>0.022360679774997897</speed>
  <fix>3d</fix>
</trkpt>
<trkpt lat="-27.2744383" lon="151.2900637">
  <ele>363.97</ele>
  <time>2026-09-01T19:56:38Z</time>
  <course>321.45</course>
  <speed>0.0</speed>
  <fix>3d</fix>
</trkpt>
<trkpt lat="-27.2744386" lon="151.2900638">
  <ele>364.19</ele>
  <time>2026-09-01T19:56:38Z</time>
  <course>10.68</course>
  <speed>0.022360679774997897</speed>
  <fix>3d</fix>
</trkpt>
<trkpt lat="-27.2744383" lon="151.2900637">
  <ele>363.97</ele>
  <time>2026-09-01T19:56:38Z</time>
  <course>321.45</course>
  <speed>0.0</speed>
  <fix>3d</fix>
</trkpt>
<trkpt lat="-27.2744386" lon="151.2900638">
  <ele>364.19</ele>
  <time>2026-09-01T19:56:38Z</time>
  <course>10.67</course>
  <speed>0.022360679774997897</speed>
  <fix>3d</fix>
</trkpt>
<trkpt lat="-27.2744383" lon="151.2900637">
  <ele>363.97</ele>
  <time>2026-09-01T19:56:38Z</time>
  <course>318.82</course>
  <speed>0.0</speed>
  <fix>3d</fix>
</trkpt>
<trkpt lat="-27.2744386" lon="151.2900638">
  <ele>364.19</ele>
  <time>2026-09-01T19:56:38Z</time>
  <course>10.67</course>
  <speed>0.022360679774997897</speed>
  <fix>3d</fix>
</trkpt>
<trkpt lat="-27.2744383" lon="151.2900637">
  <ele>363.97</ele>
  <time>2026-09-01T19:56:38Z</time>
  <course>318.82</course>
  <speed>0.0</speed>
  <fix>3d</fix>
</trkpt>
<trkpt lat="-27.2744386" lon="151.2900638">
  <ele>364.19</ele>
  <time>2026-09-01T19:56:38Z</time>
  <course>10.67</course>
  <speed>0.022360679774997897</speed>
  <fix>3d</fix>
</trkpt>
<trkpt lat="-27.2744383" lon="151.2900637">
  <ele>363.96</ele>
  <time>2026-09-01T19:56:38Z</time>
  <course>315.83</course>
  <speed>0.0</speed>
  <fix>3d</fix>
</trkpt>
<trkpt lat="-27.2744385" lon="151.2900638">
  <ele>364.19</ele>
  <time>2026-09-01T19:56:38Z</time>
  <course>10.66</course>
  <speed>0.022360679774997897</speed>
  <fix>3d</fix>
</trkpt>
<trkpt lat="-27.2744383" lon="151.2900637">
  <ele>363.96</ele>
  <time>2026-09-01T19:56:38Z</time>
  <course>315.83</course>
  <speed>0.0</speed>
  <fix>3d</fix>
</trkpt>
<trkpt lat="-27.2744386" lon="151.2900638">
  <ele>364.19</ele>
  <time>2026-09-01T19:56:38Z</time>
  <course>10.66</course>
  <speed>0.022360679774997897</speed>
  <fix>3d</fix>
</trkpt>
<trkpt lat="-27.2744383" lon="151.2900636">
  <ele>363.96</ele>
  <time>2026-09-01T19:56:38Z</time>
  <course>314.63</course>
  <speed>0.0</speed>
  <fix>3d</fix>
</trkpt>
<trkpt lat="-27.2744385" lon="151.2900638">
  <ele>364.19</ele>
  <time>2026-09-01T19:56:38Z</time>
  <course>10.66</course>
  <speed>0.022360679774997897</speed>
  <fix>3d</fix>
</trkpt>
<trkpt lat="-27.2744383" lon="151.2900636">
  <ele>363.96</ele>
  <time>2026-09-01T19:56:38Z</time>
  <course>314.63</course>
  <speed>0.0</speed>
  <fix>3d</fix>
</trkpt>
<trkpt lat="-27.2744385" lon="151.2900638">
  <ele>364.18</ele>
  <time>2026-09-01T19:56:38Z</time>
  <course>10.65</course>
  <speed>0.022360679774997897</speed>
  <fix>3d</fix>
</trkpt>
<trkpt lat="-27.2744383" lon="151.2900636">
  <ele>363.95</ele>
  <time>2026-09-01T19:56:38Z</time>
  <course>310.14</course>
  <speed>0.0</speed>
  <fix>3d</fix>
</trkpt>
<trkpt lat="-27.2744385" lon="151.2900638">
  <ele>364.18</ele>
  <time>2026-09-01T19:56:38Z</time>
  <course>10.65</course>
  <speed>0.022360679774997897</speed>
  <fix>3d</fix>
</trkpt>
<trkpt lat="-27.2744383" lon="151.2900636">
  <ele>363.95</ele>
  <time>2026-09-01T19:56:38Z</time>
  <course>310.14</course>
  <speed>0.0</speed>
  <fix>3d</fix>
</trkpt>
<trkpt lat="-27.2744385" lon="151.2900638">
  <ele>364.18</ele>
  <time>2026-09-01T19:56:38Z</time>
  <course>10.65</course>
  <speed>0.022360679774997897</speed>
  <fix>3d</fix>
</trkpt>
<trkpt lat="-27.2744383" lon="151.2900636">
  <ele>363.95</ele>
  <time>2026-09-01T19:56:38Z</time>
  <course>293.6</course>
  <speed>0.0</speed>
  <fix>3d</fix>
</trkpt>
<trkpt lat="-27.2744385" lon="151.2900638">
  <ele>364.18</ele>
  <time>2026-09-01T19:56:38Z</time>
  <course>10.66</course>
  <speed>0.022360679774997897</speed>
  <fix>3d</fix>
</trkpt>
<trkpt lat="-27.2744383" lon="151.2900636">
  <ele>363.95</ele>
  <time>2026-09-01T19:56:38Z</time>
  <course>293.6</course>
  <speed>0.0</speed>
  <fix>3d</fix>
</trkpt>
<trkpt lat="-27.2744385" lon="151.2900638">
  <ele>364.17</ele>
  <time>2026-09-01T19:56:38Z</time>
  <course>10.66</course>
  <speed>0.022360679774997897</speed>
  <fix>3d</fix>
</trkpt>
<trkpt lat="-27.2744383" lon="151.2900636">
  <ele>363.95</ele>
  <time>2026-09-01T19:56:38Z</time>
  <course>267.51</course>
  <speed>0.0</speed>
  <fix>3d</fix>
</trkpt>
<trkpt lat="-27.2744385" lon="151.2900638">
  <ele>364.17</ele>
  <time>2026-09-01T19:56:38Z</time>
  <course>10.67</course>
  <speed>0.022360679774997897</speed>
  <fix>3d</fix>
</trkpt>
<trkpt lat="-27.2744383" lon="151.2900636">
  <ele>363.95</ele>
  <time>2026-09-01T19:56:38Z</time>
  <course>267.51</course>
  <speed>0.0</speed>
  <fix>3d</fix>
</trkpt>
<trkpt lat="-27.2744385" lon="151.2900638">
  <ele>364.17</ele>
  <time>2026-09-01T19:56:38Z</time>
  <course>10.68</course>
  <speed>0.022360679774997897</speed>
  <fix>3d</fix>
</trkpt>
<trkpt lat="-27.2744383" lon="151.2900636">
  <ele>363.95</ele>
  <time>2026-09-01T19:56:38Z</time>
  <course>247.74</course>
  <speed>0.0</speed>
  <fix>3d</fix>
</trkpt>
<trkpt lat="-27.2744385" lon="151.2900638">
  <ele>364.17</ele>
  <time>2026-09-01T19:56:38Z</time>
  <course>10.69</course>
  <speed>0.022360679774997897</speed>
  <fix>3d</fix>
</trkpt>
<trkpt lat="-27.2744383" lon="151.2900636">
  <ele>363.95</ele>
  <time>2026-09-01T19:56:38Z</time>
  <course>247.74</course>
  <speed>0.0</speed>
  <fix>3d</fix>
</trkpt>
<trkpt lat="-27.2744385" lon="151.2900638">
  <ele>364.17</ele>
  <time>2026-09-01T19:56:38Z</time>
  <course>10.69</course>
  <speed>0.022360679774997897</speed>
  <fix>3d</fix>
</trkpt>
<trkpt lat="-27.2744383" lon="151.2900636">
  <ele>363.95</ele>
  <time>2026-09-01T19:56:38Z</time>
  <course>232.84</course>
  <speed>0.0</speed>
  <fix>3d</fix>
</trkpt>
<trkpt lat="-27.2744385" lon="151.2900638">
  <ele>364.17</ele>
  <time>2026-09-01T19:56:38Z</time>
  <course>10.7</course>
  <speed>0.022360679774997897</speed>
  <fix>3d</fix>
</trkpt>
<trkpt lat="-27.2744383" lon="151.2900636">
  <ele>363.95</ele>
  <time>2026-09-01T19:56:38Z</time>
  <course>232.84</course>
  <speed>0.0</speed>
  <fix>3d</fix>
</trkpt>
<trkpt lat="-27.2744385" lon="151.2900638">
  <ele>364.17</ele>
  <time>2026-09-01T19:56:38Z</time>
  <course>10.7</course>
  <speed>0.0316227766016838</speed>
  <fix>3d</fix>
</trkpt>
<trkpt lat="-27.2744383" lon="151.2900636">
  <ele>363.95</ele>
  <time>2026-09-01T19:56:38Z</time>
  <course>219.01</course>
  <speed>0.0</speed>
  <fix>3d</fix>
</trkpt>
<trkpt lat="-27.2744385" lon="151.2900638">
  <ele>364.18</ele>
  <time>2026-09-01T19:56:38Z</time>
  <course>10.7</course>
  <speed>0.0316227766016838</speed>
  <fix>3d</fix>
</trkpt>
<trkpt lat="-27.2744383" lon="151.2900636">
  <ele>363.95</ele>
  <time>2026-09-01T19:56:38Z</time>
  <course>219.01</course>
  <speed>0.0</speed>
  <fix>3d</fix>
</trkpt>
<trkpt lat="-27.2744385" lon="151.2900638">
  <ele>364.18</ele>
  <time>2026-09-01T19:56:38Z</time>
  <course>10.7</course>
  <speed>0.0316227766016838</speed>
  <fix>3d</fix>
</trkpt>
<trkpt lat="-27.2744383" lon="151.2900636">
  <ele>363.95</ele>
  <time>2026-09-01T19:56:38Z</time>
  <course>207.55</course>
  <speed>0.0</speed>
  <fix>3d</fix>
</trkpt>
<trkpt lat="-27.2744385" lon="151.2900638">
  <ele>364.18</ele>
  <time>2026-09-01T19:56:38Z</time>
  <course>10.7</course>
  <speed>0.0316227766016838</speed>
  <fix>3d</fix>
</trkpt>
<trkpt lat="-27.2744383" lon="151.2900636">
  <ele>363.95</ele>
  <time>2026-09-01T19:56:38Z</time>
  <course>207.55</course>
  <speed>0.0</speed>
  <fix>3d</fix>
</trkpt>
<trkpt lat="-27.2744385" lon="151.2900638">
  <ele>364.18</ele>
  <time>2026-09-01T19:56:38Z</time>
  <course>10.7</course>
  <speed>0.0316227766016838</speed>
  <fix>3d</fix>
</trkpt>
<trkpt lat="-27.2744383" lon="151.2900636">
  <ele>363.95</ele>
  <time>2026-09-01T19:56:38Z</time>
  <course>202.45</course>
  <speed>0.0</speed>
  <fix>3d</fix>
</trkpt>
<trkpt lat="-27.2744385" lon="151.2900638">
  <ele>364.18</ele>
  <time>2026-09-01T19:56:38Z</time>
  <course>10.7</course>
  <speed>0.0316227766016838</speed>
  <fix>3d</fix>
</trkpt>
<trkpt lat="-27.2744383" lon="151.2900636">
  <ele>363.95</ele>
  <time>2026-09-01T19:56:38Z</time>
  <course>202.45</course>
  <speed>0.0</speed>
  <fix>3d</fix>
</trkpt>
<trkpt lat="-27.2744385" lon="151.2900638">
  <ele>364.18</ele>
  <time>2026-09-01T19:56:38Z</time>
  <course>10.69</course>
  <speed>0.0316227766016838</speed>
  <fix>3d</fix>
</trkpt>
<trkpt lat="-27.2744383" lon="151.2900636">
  <ele>363.95</ele>
  <time>2026-09-01T19:56:38Z</time>
  <course>202.37</course>
  <speed>0.0</speed>
  <fix>3d</fix>
</trkpt>
<trkpt lat="-27.2744385" lon="151.2900638">
  <ele>364.18</ele>
  <time>2026-09-01T19:56:38Z</time>
  <course>10.68</course>
  <speed>0.0316227766016838</speed>
  <fix>3d</fix>
</trkpt>
<trkpt lat="-27.2744383" lon="151.2900636">
  <ele>363.95</ele>
  <time>2026-09-01T19:56:38Z</time>
  <course>202.37</course>
  <speed>0.0</speed>
  <fix>3d</fix>
</trkpt>
<trkpt lat="-27.2744385" lon="151.2900638">
  <ele>364.18</ele>
  <time>2026-09-01T19:56:38Z</time>
  <course>10.68</course>
  <speed>0.0316227766016838</speed>
  <fix>3d</fix>
</trkpt>
<trkpt lat="-27.2744383" lon="151.2900636">
  <ele>363.95</ele>
  <time>2026-09-01T19:56:38Z</time>
  <course>201.95</course>
  <speed>0.0</speed>
  <fix>3d</fix>
</trkpt>
<trkpt lat="-27.2744385" lon="151.2900638">
  <ele>364.18</ele>
  <time>2026-09-01T19:56:38Z</time>
  <course>10.67</course>
  <speed>0.0316227766016838</speed>
  <fix>3d</fix>
</trkpt>
<trkpt lat="-27.2744383" lon="151.2900636">
  <ele>363.95</ele>
  <time>2026-09-01T19:56:38Z</time>
  <course>201.95</course>
  <speed>0.0</speed>
  <fix>3d</fix>
</trkpt>
<trkpt lat="-27.2744385" lon="151.2900638">
  <ele>364.18</ele>
  <time>2026-09-01T19:56:38Z</time>
  <course>10.67</course>
  <speed>0.0316227766016838</speed>
  <fix>3d</fix>
</trkpt>
<trkpt lat="-27.2744383" lon="151.2900636">
  <ele>363.95</ele>
  <time>2026-09-01T19:56:38Z</time>
  <course>199.09</course>
  <speed>0.0</speed>
  <fix>3d</fix>
</trkpt>
<trkpt lat="-27.2744385" lon="151.2900638">
  <ele>364.18</ele>
  <time>2026-09-01T19:56:38Z</time>
  <course>10.66</course>
  <speed>0.0316227766016838</speed>
  <fix>3d</fix>
</trkpt>
<trkpt lat="-27.2744383" lon="151.2900636">
  <ele>363.95</ele>
  <time>2026-09-01T19:56:38Z</time>
  <course>199.09</course>
  <speed>0.0</speed>
  <fix>3d</fix>
</trkpt>
<trkpt lat="-27.2744385" lon="151.2900638">
  <ele>364.18</ele>
  <time>2026-09-01T19:56:38Z</time>
  <course>10.66</course>
  <speed>0.0316227766016838</speed>
  <fix>3d</fix>
</trkpt>
<trkpt lat="-27.2744383" lon="151.2900636">
  <ele>363.95</ele>
  <time>2026-09-01T19:56:38Z</time>
  <course>193.82</course>
  <speed>0.0</speed>
  <fix>3d</fix>
</trkpt>
<trkpt lat="-27.2744385" lon="151.2900638">
  <ele>364.18</ele>
  <time>2026-09-01T19:56:38Z</time>
  <course>10.66</course>
  <speed>0.0316227766016838</speed>
  <fix>3d</fix>
</trkpt>
<trkpt lat="-27.2744383" lon="151.2900636">
  <ele>363.95</ele>
  <time>2026-09-01T19:56:38Z</time>
  <course>193.82</course>
  <speed>0.0</speed>
  <fix>3d</fix>
</trkpt>
<trkpt lat="-27.2744385" lon="151.2900638">
  <ele>364.18</ele>
  <time>2026-09-01T19:56:38Z</time>
  <course>10.67</course>
  <speed>0.0316227766016838</speed>
  <fix>3d</fix>
</trkpt>
<trkpt lat="-27.2744383" lon="151.2900636">
  <ele>363.95</ele>
  <time>2026-09-01T19:56:38Z</time>
  <course>188.0</course>
  <speed>0.0</speed>
  <fix>3d</fix>
</trkpt>
<trkpt lat="-27.2744385" lon="151.2900638">
  <ele>364.18</ele>
  <time>2026-09-01T19:56:38Z</time>
  <course>10.68</course>
  <speed>0.0316227766016838</speed>
  <fix>3d</fix>
</trkpt>
<trkpt lat="-27.2744383" lon="151.2900636">
  <ele>363.95</ele>
  <time>2026-09-01T19:56:38Z</time>
  <course>188.0</course>
  <speed>0.0</speed>
  <fix>3d</fix>
</trkpt>
<trkpt lat="-27.2744385" lon="151.2900638">
  <ele>364.18</ele>
  <time>2026-09-01T19:56:38Z</time>
  <course>10.68</course>
  <speed>0.0316227766016838</speed>
  <fix>3d</fix>
</trkpt>
<trkpt lat="-27.2744383" lon="151.2900636">
  <ele>363.95</ele>
  <time>2026-09-01T19:56:38Z</time>
  <course>183.71</course>
  <speed>0.0</speed>
  <fix>3d</fix>
</trkpt>
<trkpt lat="-27.2744385" lon="151.2900638">
  <ele>364.17</ele>
  <time>2026-09-01T19:56:38Z</time>
  <course>10.69</course>
  <speed>0.022360679774997897</speed>
  <fix>3d</fix>
</trkpt>
<trkpt lat="-27.2744383" lon="151.2900636">
  <ele>363.95</ele>
  <time>2026-09-01T19:56:38Z</time>
  <course>183.71</course>
  <speed>0.0</speed>
  <fix>3d</fix>
</trkpt>
<trkpt lat="-27.2744385" lon="151.2900638">
  <ele>364.17</ele>
  <time>2026-09-01T19:56:38Z</time>
  <course>10.7</course>
  <speed>0.022360679774997897</speed>
  <fix>3d</fix>
</trkpt>
<trkpt lat="-27.2744383" lon="151.2900636">
  <ele>363.95</ele>
  <time>2026-09-01T19:56:38Z</time>
  <course>182.42</course>
  <speed>0.0</speed>
  <fix>3d</fix>
</trkpt>
<trkpt lat="-27.2744385" lon="151.2900638">
  <ele>364.17</ele>
  <time>2026-09-01T19:56:38Z</time>
  <course>10.7</course>
  <speed>0.022360679774997897</speed>
  <fix>3d</fix>
</trkpt>
<trkpt lat="-27.2744383" lon="151.2900636">
  <ele>363.95</ele>
  <time>2026-09-01T19:56:38Z</time>
  <course>182.42</course>
  <speed>0.0</speed>
  <fix>3d</fix>
</trkpt>
<trkpt lat="-27.2744385" lon="151.2900638">
  <ele>364.17</ele>
  <time>2026-09-01T19:56:38Z</time>
  <course>10.71</course>
  <speed>0.022360679774997897</speed>
  <fix>3d</fix>
</trkpt>
<trkpt lat="-27.2744383" lon="151.2900636">
  <ele>363.95</ele>
  <time>2026-09-01T19:56:38Z</time>
  <course>182.31</course>
  <speed>0.0</speed>
  <fix>3d</fix>
</trkpt>
<trkpt lat="-27.2744385" lon="151.2900638">
  <ele>364.17</ele>
  <time>2026-09-01T19:56:38Z</time>
  <course>10.7</course>
  <speed>0.022360679774997897</speed>
  <fix>3d</fix>
</trkpt>
<trkpt lat="-27.2744383" lon="151.2900636">
  <ele>363.95</ele>
  <time>2026-09-01T19:56:38Z</time>
  <course>182.31</course>
  <speed>0.0</speed>
  <fix>3d</fix>
</trkpt>
<trkpt lat="-27.2744385" lon="151.2900638">
  <ele>364.17</ele>
  <time>2026-09-01T19:56:38Z</time>
  <course>10.7</course>
  <speed>0.022360679774997897</speed>
  <fix>3d</fix>
</trkpt>
<trkpt lat="-27.2744383" lon="151.2900636">
  <ele>363.95</ele>
  <time>2026-09-01T19:56:38Z</time>
  <course>181.1</course>
  <speed>0.0</speed>
  <fix>3d</fix>
</trkpt>
<trkpt lat="-27.2744385" lon="151.2900638">
  <ele>364.17</ele>
  <time>2026-09-01T19:56:38Z</time>
  <course>10.7</course>
  <speed>0.022360679774997897</speed>
  <fix>3d</fix>
</trkpt>
<trkpt lat="-27.2744383" lon="151.2900636">
  <ele>363.95</ele>
  <time>2026-09-01T19:56:38Z</time>
  <course>181.1</course>
  <speed>0.0</speed>
  <fix>3d</fix>
</trkpt>
<trkpt lat="-27.2744385" lon="151.2900638">
  <ele>364.17</ele>
  <time>2026-09-01T19:56:38Z</time>
  <course>10.69</course>
  <speed>0.022360679774997897</speed>
  <fix>3d</fix>
</trkpt>
<trkpt lat="-27.2744383" lon="151.2900636">
  <ele>363.95</ele>
  <time>2026-09-01T19:56:38Z</time>
  <course>178.3</course>
  <speed>0.0</speed>
  <fix>3d</fix>
</trkpt>
<trkpt lat="-27.2744385" lon="151.2900638">
  <ele>364.17</ele>
  <time>2026-09-01T19:56:38Z</time>
  <course>10.69</course>
  <speed>0.022360679774997897</speed>
  <fix>3d</fix>
</trkpt>
<trkpt lat="-27.2744383" lon="151.2900636">
  <ele>363.95</ele>
  <time>2026-09-01T19:56:38Z</time>
  <course>178.3</course>
  <speed>0.0</speed>
  <fix>3d</fix>
</trkpt>
<trkpt lat="-27.2744385" lon="151.2900638">
  <ele>364.17</ele>
  <time>2026-09-01T19:56:38Z</time>
  <course>10.68</course>
  <speed>0.022360679774997897</speed>
  <fix>3d</fix>
</trkpt>
<trkpt lat="-27.2744383" lon="151.2900636">
  <ele>363.95</ele>
  <time>2026-09-01T19:56:38Z</time>
  <course>173.91</course>
  <speed>0.0</speed>
  <fix>3d</fix>
</trkpt>
<trkpt lat="-27.2744385" lon="151.2900638">
  <ele>364.17</ele>
  <time>2026-09-01T19:56:38Z</time>
  <course>10.68</course>
  <speed>0.022360679774997897</speed>
  <fix>3d</fix>
</trkpt>
<trkpt lat="-27.2744383" lon="151.2900636">
  <ele>363.95</ele>
  <time>2026-09-01T19:56:38Z</time>
  <course>173.91</course>
  <speed>0.0</speed>
  <fix>3d</fix>
</trkpt>
<trkpt lat="-27.2744385" lon="151.2900638">
  <ele>364.17</ele>
  <time>2026-09-01T19:56:38Z</time>
  <course>10.68</course>
  <speed>0.022360679774997897</speed>
  <fix>3d</fix>
</trkpt>
<trkpt lat="-27.2744383" lon="151.2900636">
  <ele>363.95</ele>
  <time>2026-09-01T19:56:38Z</time>
  <course>169.09</course>
  <speed>0.0</speed>
  <fix>3d</fix>
</trkpt>
<trkpt lat="-27.2744385" lon="151.2900638">
  <ele>364.17</ele>
  <time>2026-09-01T19:56:38Z</time>
  <course>10.68</course>
  <speed>0.022360679774997897</speed>
  <fix>3d</fix>
</trkpt>
<trkpt lat="-27.2744383" lon="151.2900636">
  <ele>363.95</ele>
  <time>2026-09-01T19:56:38Z</time>
  <course>169.09</course>
  <speed>0.0</speed>
  <fix>3d</fix>
</trkpt>
<trkpt lat="-27.2744385" lon="151.2900638">
  <ele>364.17</ele>
  <time>2026-09-01T19:56:38Z</time>
  <course>10.67</course>
  <speed>0.022360679774997897</speed>
  <fix>3d</fix>
</trkpt>
<trkpt lat="-27.2744383" lon="151.2900636">
  <ele>363.95</ele>
  <time>2026-09-01T19:56:38Z</time>
  <course>162.13</course>
  <speed>0.0</speed>
  <fix>3d</fix>
</trkpt>
<trkpt lat="-27.2744385" lon="151.2900638">
  <ele>364.17</ele>
  <time>2026-09-01T19:56:38Z</time>
  <course>10.67</course>
  <speed>0.022360679774997897</speed>
  <fix>3d</fix>
</trkpt>
<trkpt lat="-27.2744383" lon="151.2900636">
  <ele>363.95</ele>
  <time>2026-09-01T19:56:38Z</time>
  <course>162.13</course>
  <speed>0.0</speed>
  <fix>3d</fix>
</trkpt>
<trkpt lat="-27.2744385" lon="151.2900638">
  <ele>364.17</ele>
  <time>2026-09-01T19:56:38Z</time>
  <course>10.67</course>
  <speed>0.022360679774997897</speed>
  <fix>3d</fix>
</trkpt>
<trkpt lat="-27.2744383" lon="151.2900636">
  <ele>363.96</ele>
  <time>2026-09-01T19:56:38Z</time>
  <course>153.0</course>
  <speed>0.0</speed>
  <fix>3d</fix>
</trkpt>
<trkpt lat="-27.2744385" lon="151.2900638">
  <ele>364.17</ele>
  <time>2026-09-01T19:56:38Z</time>
  <course>10.67</course>
  <speed>0.022360679774997897</speed>
  <fix>3d</fix>
</trkpt>
<trkpt lat="-27.2744383" lon="151.2900636">
  <ele>363.96</ele>
  <time>2026-09-01T19:56:38Z</time>
  <course>153.0</course>
  <speed>0.0</speed>
  <fix>3d</fix>
</trkpt>
<trkpt lat="-27.2744385" lon="151.2900638">
  <ele>364.17</ele>
  <time>2026-09-01T19:56:38Z</time>
  <course>10.67</course>
  <speed>0.022360679774997897</speed>
  <fix>3d</fix>
</trkpt>
<trkpt lat="-27.2744384" lon="151.2900636">
  <ele>363.96</ele>
  <time>2026-09-01T19:56:38Z</time>
  <course>143.27</course>
  <speed>0.0</speed>
  <fix>3d</fix>
</trkpt>
<trkpt lat="-27.2744385" lon="151.2900638">
  <ele>364.17</ele>
  <time>2026-09-01T19:56:38Z</time>
  <course>10.67</course>
  <speed>0.022360679774997897</speed>
  <fix>3d</fix>
</trkpt>
<trkpt lat="-27.2744384" lon="151.2900636">
  <ele>363.96</ele>
  <time>2026-09-01T19:56:38Z</time>
  <course>143.27</course>
  <speed>0.0</speed>
  <fix>3d</fix>
</trkpt>
<trkpt lat="-27.2744385" lon="151.2900638">
  <ele>364.17</ele>
  <time>2026-09-01T19:56:38Z</time>
  <course>10.67</course>
  <speed>0.022360679774997897</speed>
  <fix>3d</fix>
</trkpt>
<trkpt lat="-27.2744384" lon="151.2900636">
  <ele>363.96</ele>
  <time>2026-09-01T19:56:38Z</time>
  <course>133.81</course>
  <speed>0.0</speed>
  <fix>3d</fix>
</trkpt>
<trkpt lat="-27.2744385" lon="151.2900638">
  <ele>364.17</ele>
  <time>2026-09-01T19:56:38Z</time>
  <course>10.67</course>
  <speed>0.022360679774997897</speed>
  <fix>3d</fix>
</trkpt>
<trkpt lat="-27.2744384" lon="151.2900636">
  <ele>363.96</ele>
  <time>2026-09-01T19:56:38Z</time>
  <course>133.81</course>
  <speed>0.0</speed>
  <fix>3d</fix>
</trkpt>
<trkpt lat="-27.2744385" lon="151.2900638">
  <ele>364.17</ele>
  <time>2026-09-01T19:56:38Z</time>
  <course>10.67</course>
  <speed>0.022360679774997897</speed>
  <fix>3d</fix>
</trkpt>
<trkpt lat="-27.2744384" lon="151.2900636">
  <ele>363.96</ele>
  <time>2026-09-01T19:56:38Z</time>
  <course>131.13</course>
  <speed>0.0</speed>
  <fix>3d</fix>
</trkpt>
<trkpt lat="-27.2744385" lon="151.2900638">
  <ele>364.17</ele>
  <time>2026-09-01T19:56:38Z</time>
  <course>10.67</course>
  <speed>0.022360679774997897</speed>
  <fix>3d</fix>
</trkpt>
<trkpt lat="-27.2744384" lon="151.2900636">
  <ele>363.96</ele>
  <time>2026-09-01T19:56:38Z</time>
  <course>131.13</course>
  <speed>0.0</speed>
  <fix>3d</fix>
</trkpt>
<trkpt lat="-27.2744385" lon="151.2900638">
  <ele>364.16</ele>
  <time>2026-09-01T19:56:38Z</time>
  <course>10.67</course>
  <speed>0.022360679774997897</speed>
  <fix>3d</fix>
</trkpt>
<trkpt lat="-27.2744384" lon="151.2900636">
  <ele>363.96</ele>
  <time>2026-09-01T19:56:38Z</time>
  <course>137.54</course>
  <speed>0.0</speed>
  <fix>3d</fix>
</trkpt>
<trkpt lat="-27.2744385" lon="151.2900638">
  <ele>364.16</ele>
  <time>2026-09-01T19:56:38Z</time>
  <course>10.68</course>
  <speed>0.022360679774997897</speed>
  <fix>3d</fix>
</trkpt>
<trkpt lat="-27.2744384" lon="151.2900636">
  <ele>363.96</ele>
  <time>2026-09-01T19:56:38Z</time>
  <course>137.54</course>
  <speed>0.0</speed>
  <fix>3d</fix>
</trkpt>
<trkpt lat="-27.2744385" lon="151.2900638">
  <ele>364.16</ele>
  <time>2026-09-01T19:56:38Z</time>
  <course>10.68</course>
  <speed>0.022360679774997897</speed>
  <fix>3d</fix>
</trkpt>
<trkpt lat="-27.2744384" lon="151.2900636">
  <ele>363.96</ele>
  <time>2026-09-01T19:56:38Z</time>
  <course>146.79</course>
  <speed>0.0</speed>
  <fix>3d</fix>
</trkpt>
<trkpt lat="-27.2744385" lon="151.2900638">
  <ele>364.16</ele>
  <time>2026-09-01T19:56:38Z</time>
  <course>10.68</course>
  <speed>0.022360679774997897</speed>
  <fix>3d</fix>
</trkpt>
<trkpt lat="-27.2744384" lon="151.2900636">
  <ele>363.96</ele>
  <time>2026-09-01T19:56:38Z</time>
  <course>146.79</course>
  <speed>0.0</speed>
  <fix>3d</fix>
</trkpt>
<trkpt lat="-27.2744385" lon="151.2900638">
  <ele>364.16</ele>
  <time>2026-09-01T19:56:38Z</time>
  <course>10.69</course>
  <speed>0.022360679774997897</speed>
  <fix>3d</fix>
</trkpt>
<trkpt lat="-27.2744384" lon="151.2900636">
  <ele>363.97</ele>
  <time>2026-09-01T19:56:38Z</time>
  <course>153.95</course>
  <speed>0.0</speed>
  <fix>3d</fix>
</trkpt>
<trkpt lat="-27.2744386" lon="151.2900638">
  <ele>364.16</ele>
  <time>2026-09-01T19:56:38Z</time>
  <course>10.69</course>
  <speed>0.022360679774997897</speed>
  <fix>3d</fix>
</trkpt>
<trkpt lat="-27.2744384" lon="151.2900636">
  <ele>363.97</ele>
  <time>2026-09-01T19:56:38Z</time>
  <course>153.95</course>
  <speed>0.0</speed>
  <fix>3d</fix>
</trkpt>
<trkpt lat="-27.2744386" lon="151.2900638">
  <ele>364.16</ele>
  <time>2026-09-01T19:56:38Z</time>
  <course>10.69</course>
  <speed>0.022360679774997897</speed>
  <fix>3d</fix>
</trkpt>
<trkpt lat="-27.2744384" lon="151.2900636">
  <ele>363.97</ele>
  <time>2026-09-01T19:56:38Z</time>
  <course>157.88</course>
  <speed>0.0</speed>
  <fix>3d</fix>
</trkpt>
<trkpt lat="-27.2744386" lon="151.2900638">
  <ele>364.16</ele>
  <time>2026-09-01T19:56:38Z</time>
  <course>10.69</course>
  <speed>0.022360679774997897</speed>
  <fix>3d</fix>
</trkpt>
<trkpt lat="-27.2744384" lon="151.2900636">
  <ele>363.97</ele>
  <time>2026-09-01T19:56:38Z</time>
  <course>157.88</course>
  <speed>0.0</speed>
  <fix>3d</fix>
</trkpt>
<trkpt lat="-27.2744386" lon="151.2900638">
  <ele>364.17</ele>
  <time>2026-09-01T19:56:38Z</time>
  <course>10.69</course>
  <speed>0.022360679774997897</speed>
  <fix>3d</fix>
</trkpt>
<trkpt lat="-27.2744384" lon="151.2900636">
  <ele>363.97</ele>
  <time>2026-09-01T19:56:38Z</time>
  <course>158.45</course>
  <speed>0.0</speed>
  <fix>3d</fix>
</trkpt>
<trkpt lat="-27.2744386" lon="151.2900638">
  <ele>364.17</ele>
  <time>2026-09-01T19:56:38Z</time>
  <course>10.69</course>
  <speed>0.022360679774997897</speed>
  <fix>3d</fix>
</trkpt>
<trkpt lat="-27.2744384" lon="151.2900636">
  <ele>363.97</ele>
  <time>2026-09-01T19:56:38Z</time>
  <course>158.45</course>
  <speed>0.0</speed>
  <fix>3d</fix>
</trkpt>
<trkpt lat="-27.2744386" lon="151.2900638">
  <ele>364.17</ele>
  <time>2026-09-01T19:56:38Z</time>
  <course>10.69</course>
  <speed>0.022360679774997897</speed>
  <fix>3d</fix>
</trkpt>
<trkpt lat="-27.2744385" lon="151.2900636">
  <ele>363.98</ele>
  <time>2026-09-01T19:56:38Z</time>
  <course>155.97</course>
  <speed>0.01</speed>
  <fix>3d</fix>
</trkpt>
<trkpt lat="-27.2744386" lon="151.2900638">
  <ele>364.18</ele>
  <time>2026-09-01T19:56:38Z</time>
  <course>10.69</course>
  <speed>0.022360679774997897</speed>
  <fix>3d</fix>
</trkpt>
<trkpt lat="-27.2744385" lon="151.2900636">
  <ele>363.98</ele>
  <time>2026-09-01T19:56:38Z</time>
  <course>155.97</course>
  <speed>0.01</speed>
  <fix>3d</fix>
</trkpt>
<trkpt lat="-27.2744386" lon="151.2900638">
  <ele>364.18</ele>
  <time>2026-09-01T19:56:38Z</time>
  <course>10.69</course>
  <speed>0.022360679774997897</speed>
  <fix>3d</fix>
</trkpt>
<trkpt lat="-27.2744385" lon="151.2900636">
  <ele>363.98</ele>
  <time>2026-09-01T19:56:38Z</time>
  <course>152.59</course>
  <speed>0.01</speed>
  <fix>3d</fix>
</trkpt>
<trkpt lat="-27.2744386" lon="151.2900638">
  <ele>364.18</ele>
  <time>2026-09-01T19:56:38Z</time>
  <course>10.69</course>
  <speed>0.022360679774997897</speed>
  <fix>3d</fix>
</trkpt>
<trkpt lat="-27.2744385" lon="151.2900636">
  <ele>363.98</ele>
  <time>2026-09-01T19:56:38Z</time>
  <course>152.59</course>
  <speed>0.01</speed>
  <fix>3d</fix>
</trkpt>
<trkpt lat="-27.2744386" lon="151.2900638">
  <ele>364.18</ele>
  <time>2026-09-01T19:56:38Z</time>
  <course>10.69</course>
  <speed>0.022360679774997897</speed>
  <fix>3d</fix>
</trkpt>
<trkpt lat="-27.2744385" lon="151.2900636">
  <ele>363.99</ele>
  <time>2026-09-01T19:56:38Z</time>
  <course>151.81</course>
  <speed>0.0</speed>
  <fix>3d</fix>
</trkpt>
<trkpt lat="-27.2744386" lon="151.2900638">
  <ele>364.18</ele>
  <time>2026-09-01T19:56:38Z</time>
  <course>10.69</course>
  <speed>0.022360679774997897</speed>
  <fix>3d</fix>
</trkpt>
<trkpt lat="-27.2744385" lon="151.2900636">
  <ele>363.99</ele>
  <time>2026-09-01T19:56:38Z</time>
  <course>151.81</course>
  <speed>0.0</speed>
  <fix>3d</fix>
</trkpt>
<trkpt lat="-27.2744386" lon="151.2900638">
  <ele>364.18</ele>
  <time>2026-09-01T19:56:38Z</time>
  <course>10.68</course>
  <speed>0.022360679774997897</speed>
  <fix>3d</fix>
</trkpt>
<trkpt lat="-27.2744385" lon="151.2900636">
  <ele>363.99</ele>
  <time>2026-09-01T19:56:38Z</time>
  <course>154.81</course>
  <speed>0.0</speed>
  <fix>3d</fix>
</trkpt>
<trkpt lat="-27.2744386" lon="151.2900638">
  <ele>364.18</ele>
  <time>2026-09-01T19:56:38Z</time>
  <course>10.68</course>
  <speed>0.022360679774997897</speed>
  <fix>3d</fix>
</trkpt>
<trkpt lat="-27.2744385" lon="151.2900636">
  <ele>363.99</ele>
  <time>2026-09-01T19:56:38Z</time>
  <course>154.81</course>
  <speed>0.0</speed>
  <fix>3d</fix>
</trkpt>
<trkpt lat="-27.2744386" lon="151.2900638">
  <ele>364.18</ele>
  <time>2026-09-01T19:56:38Z</time>
  <course>10.68</course>
  <speed>0.022360679774997897</speed>
  <fix>3d</fix>
</trkpt>
<trkpt lat="-27.2744385" lon="151.2900636">
  <ele>363.99</ele>
  <time>2026-09-01T19:56:38Z</time>
  <course>157.05</course>
  <speed>0.0</speed>
  <fix>3d</fix>
</trkpt>
<trkpt lat="-27.2744386" lon="151.2900638">
  <ele>364.17</ele>
  <time>2026-09-01T19:56:38Z</time>
  <course>10.68</course>
  <speed>0.022360679774997897</speed>
  <fix>3d</fix>
</trkpt>
<trkpt lat="-27.2744385" lon="151.2900636">
  <ele>363.99</ele>
  <time>2026-09-01T19:56:38Z</time>
  <course>157.05</course>
  <speed>0.0</speed>
  <fix>3d</fix>
</trkpt>
<trkpt lat="-27.2744387" lon="151.2900638">
  <ele>364.17</ele>
  <time>2026-09-01T19:56:38Z</time>
  <course>10.68</course>
  <speed>0.022360679774997897</speed>
  <fix>3d</fix>
</trkpt>
<trkpt lat="-27.2744385" lon="151.2900636">
  <ele>363.99</ele>
  <time>2026-09-01T19:56:38Z</time>
  <course>153.6</course>
  <speed>0.0</speed>
  <fix>3d</fix>
</trkpt>
<trkpt lat="-27.2744387" lon="151.2900638">
  <ele>364.17</ele>
  <time>2026-09-01T19:56:38Z</time>
  <course>10.68</course>
  <speed>0.022360679774997897</speed>
  <fix>3d</fix>
</trkpt>
<trkpt lat="-27.2744385" lon="151.2900636">
  <ele>363.99</ele>
  <time>2026-09-01T19:56:38Z</time>
  <course>153.6</course>
  <speed>0.0</speed>
  <fix>3d</fix>
</trkpt>
<trkpt lat="-27.2744387" lon="151.2900638">
  <ele>364.17</ele>
  <time>2026-09-01T19:56:38Z</time>
  <course>10.68</course>
  <speed>0.022360679774997897</speed>
  <fix>3d</fix>
</trkpt>
<trkpt lat="-27.2744385" lon="151.2900636">
  <ele>363.99</ele>
  <time>2026-09-01T19:56:38Z</time>
  <course>138.66</course>
  <speed>0.0</speed>
  <fix>3d</fix>
</trkpt>
<trkpt lat="-27.2744387" lon="151.2900638">
  <ele>364.17</ele>
  <time>2026-09-01T19:56:38Z</time>
  <course>10.68</course>
  <speed>0.022360679774997897</speed>
  <fix>3d</fix>
</trkpt>
<trkpt lat="-27.2744385" lon="151.2900636">
  <ele>363.99</ele>
  <time>2026-09-01T19:56:38Z</time>
  <course>138.66</course>
  <speed>0.0</speed>
  <fix>3d</fix>
</trkpt>
<trkpt lat="-27.2744387" lon="151.2900638">
  <ele>364.17</ele>
  <time>2026-09-01T19:56:38Z</time>
  <course>10.68</course>
  <speed>0.022360679774997897</speed>
  <fix>3d</fix>
</trkpt>
<trkpt lat="-27.2744385" lon="151.2900636">
  <ele>363.99</ele>
  <time>2026-09-01T19:56:38Z</time>
  <course>101.27</course>
  <speed>0.0</speed>
  <fix>3d</fix>
</trkpt>
<trkpt lat="-27.2744387" lon="151.2900638">
  <ele>364.18</ele>
  <time>2026-09-01T19:56:38Z</time>
  <course>10.68</course>
  <speed>0.01414213562373095</speed>
  <fix>3d</fix>
</trkpt>
<trkpt lat="-27.2744385" lon="151.2900636">
  <ele>363.99</ele>
  <time>2026-09-01T19:56:38Z</time>
  <course>101.27</course>
  <speed>0.0</speed>
  <fix>3d</fix>
</trkpt>
<trkpt lat="-27.2744387" lon="151.2900638">
  <ele>364.17</ele>
  <time>2026-09-01T19:56:38Z</time>
  <course>10.68</course>
  <speed>0.01414213562373095</speed>
  <fix>3d</fix>
</trkpt>
<trkpt lat="-27.2744385" lon="151.2900636">
  <ele>363.99</ele>
  <time>2026-09-01T19:56:38Z</time>
  <course>63.99</course>
  <speed>0.0</speed>
  <fix>3d</fix>
</trkpt>
<trkpt lat="-27.2744386" lon="151.2900638">
  <ele>364.17</ele>
  <time>2026-09-01T19:56:38Z</time>
  <course>10.68</course>
  <speed>0.01414213562373095</speed>
  <fix>3d</fix>
</trkpt>
<trkpt lat="-27.2744385" lon="151.2900636">
  <ele>363.99</ele>
  <time>2026-09-01T19:56:38Z</time>
  <course>63.99</course>
  <speed>0.0</speed>
  <fix>3d</fix>
</trkpt>
<trkpt lat="-27.2744386" lon="151.2900638">
  <ele>364.18</ele>
  <time>2026-09-01T19:56:38Z</time>
  <course>10.68</course>
  <speed>0.01414213562373095</speed>
  <fix>3d</fix>
</trkpt>
<trkpt lat="-27.2744385" lon="151.2900636">
  <ele>363.99</ele>
  <time>2026-09-01T19:56:38Z</time>
  <course>52.2</course>
  <speed>0.0</speed>
  <fix>3d</fix>
</trkpt>
<trkpt lat="-27.2744386" lon="151.2900638">
  <ele>364.18</ele>
  <time>2026-09-01T19:56:38Z</time>
  <course>10.69</course>
  <speed>0.01414213562373095</speed>
  <fix>3d</fix>
</trkpt>
<trkpt lat="-27.2744385" lon="151.2900636">
  <ele>363.99</ele>
  <time>2026-09-01T19:56:38Z</time>
  <course>52.2</course>
  <speed>0.0</speed>
  <fix>3d</fix>
</trkpt>
<trkpt lat="-27.2744386" lon="151.2900638">
  <ele>364.18</ele>
  <time>2026-09-01T19:56:38Z</time>
  <course>10.68</course>
  <speed>0.01414213562373095</speed>
  <fix>3d</fix>
</trkpt>
<trkpt lat="-27.2744385" lon="151.2900636">
  <ele>363.99</ele>
  <time>2026-09-01T19:56:38Z</time>
  <course>52.65</course>
  <speed>0.0</speed>
  <fix>3d</fix>
</trkpt>
<trkpt lat="-27.2744386" lon="151.2900638">
  <ele>364.18</ele>
  <time>2026-09-01T19:56:38Z</time>
  <course>10.68</course>
  <speed>0.01414213562373095</speed>
  <fix>3d</fix>
</trkpt>
<trkpt lat="-27.2744385" lon="151.2900636">
  <ele>363.99</ele>
  <time>2026-09-01T19:56:38Z</time>
  <course>52.65</course>
  <speed>0.0</speed>
  <fix>3d</fix>
</trkpt>
<trkpt lat="-27.2744386" lon="151.2900638">
  <ele>364.18</ele>
  <time>2026-09-01T19:56:38Z</time>
  <course>10.68</course>
  <speed>0.01414213562373095</speed>
  <fix>3d</fix>
</trkpt>
<trkpt lat="-27.2744385" lon="151.2900637">
  <ele>364.0</ele>
  <time>2026-09-01T19:56:38Z</time>
  <course>54.3</course>
  <speed>0.0</speed>
  <fix>3d</fix>
</trkpt>
<trkpt lat="-27.2744386" lon="151.2900638">
  <ele>364.19</ele>
  <time>2026-09-01T19:56:38Z</time>
  <course>10.68</course>
  <speed>0.01414213562373095</speed>
  <fix>3d</fix>
</trkpt>
<trkpt lat="-27.2744385" lon="151.2900637">
  <ele>364.0</ele>
  <time>2026-09-01T19:56:38Z</time>
  <course>54.3</course>
  <speed>0.0</speed>
  <fix>3d</fix>
</trkpt>
<trkpt lat="-27.2744386" lon="151.2900638">
  <ele>364.19</ele>
  <time>2026-09-01T19:56:38Z</time>
  <course>10.68</course>
  <speed>0.01414213562373095</speed>
  <fix>3d</fix>
</trkpt>
<trkpt lat="-27.2744385" lon="151.2900637">
  <ele>364.0</ele>
  <time>2026-09-01T19:56:38Z</time>
  <course>54.16</course>
  <speed>0.0</speed>
  <fix>3d</fix>
</trkpt>
<trkpt lat="-27.2744386" lon="151.2900638">
  <ele>364.19</ele>
  <time>2026-09-01T19:56:38Z</time>
  <course>10.68</course>
  <speed>0.01414213562373095</speed>
  <fix>3d</fix>
</trkpt>
<trkpt lat="-27.2744385" lon="151.2900637">
  <ele>364.0</ele>
  <time>2026-09-01T19:56:38Z</time>
  <course>54.16</course>
  <speed>0.0</speed>
  <fix>3d</fix>
</trkpt>
<trkpt lat="-27.2744386" lon="151.2900638">
  <ele>364.19</ele>
  <time>2026-09-01T19:56:38Z</time>
  <course>10.68</course>
  <speed>0.01414213562373095</speed>
  <fix>3d</fix>
</trkpt>
<trkpt lat="-27.2744385" lon="151.2900637">
  <ele>364.0</ele>
  <time>2026-09-01T19:56:38Z</time>
  <course>55.78</course>
  <speed>0.0</speed>
  <fix>3d</fix>
</trkpt>
<trkpt lat="-27.2744386" lon="151.2900638">
  <ele>364.19</ele>
  <time>2026-09-01T19:56:38Z</time>
  <course>10.68</course>
  <speed>0.01414213562373095</speed>
  <fix>3d</fix>
</trkpt>
<trkpt lat="-27.2744385" lon="151.2900637">
  <ele>364.0</ele>
  <time>2026-09-01T19:56:38Z</time>
  <course>55.78</course>
  <speed>0.0</speed>
  <fix>3d</fix>
</trkpt>
<trkpt lat="-27.2744386" lon="151.2900638">
  <ele>364.19</ele>
  <time>2026-09-01T19:56:38Z</time>
  <course>10.68</course>
  <speed>0.01414213562373095</speed>
  <fix>3d</fix>
</trkpt>
<trkpt lat="-27.2744385" lon="151.2900637">
  <ele>364.0</ele>
  <time>2026-09-01T19:56:38Z</time>
  <course>59.12</course>
  <speed>0.0</speed>
  <fix>3d</fix>
</trkpt>
<trkpt lat="-27.2744386" lon="151.2900638">
  <ele>364.19</ele>
  <time>2026-09-01T19:56:38Z</time>
  <course>10.68</course>
  <speed>0.01414213562373095</speed>
  <fix>3d</fix>
</trkpt>
<trkpt lat="-27.2744385" lon="151.2900637">
  <ele>364.0</ele>
  <time>2026-09-01T19:56:38Z</time>
  <course>59.12</course>
  <speed>0.0</speed>
  <fix>3d</fix>
</trkpt>
<trkpt lat="-27.2744386" lon="151.2900638">
  <ele>364.19</ele>
  <time>2026-09-01T19:56:38Z</time>
  <course>10.69</course>
  <speed>0.022360679774997897</speed>
  <fix>3d</fix>
</trkpt>
<trkpt lat="-27.2744385" lon="151.2900637">
  <ele>364.0</ele>
  <time>2026-09-01T19:56:38Z</time>
  <course>60.79</course>
  <speed>0.0</speed>
  <fix>3d</fix>
</trkpt>
<trkpt lat="-27.2744386" lon="151.2900638">
  <ele>364.19</ele>
  <time>2026-09-01T19:56:38Z</time>
  <course>10.69</course>
  <speed>0.01414213562373095</speed>
  <fix>3d</fix>
</trkpt>
<trkpt lat="-27.2744385" lon="151.2900637">
  <ele>364.0</ele>
  <time>2026-09-01T19:56:38Z</time>
  <course>60.79</course>
  <speed>0.0</speed>
  <fix>3d</fix>
</trkpt>
<trkpt lat="-27.2744386" lon="151.2900638">
  <ele>364.18</ele>
  <time>2026-09-01T19:56:38Z</time>
  <course>10.69</course>
  <speed>0.022360679774997897</speed>
  <fix>3d</fix>
</trkpt>
<trkpt lat="-27.2744385" lon="151.2900637">
  <ele>363.99</ele>
  <time>2026-09-01T19:56:38Z</time>
  <course>58.82</course>
  <speed>0.0</speed>
  <fix>3d</fix>
</trkpt>
<trkpt lat="-27.2744386" lon="151.2900638">
  <ele>364.18</ele>
  <time>2026-09-01T19:56:38Z</time>
  <course>10.69</course>
  <speed>0.01414213562373095</speed>
  <fix>3d</fix>
</trkpt>
<trkpt lat="-27.2744385" lon="151.2900637">
  <ele>363.99</ele>
  <time>2026-09-01T19:56:38Z</time>
  <course>58.82</course>
  <speed>0.0</speed>
  <fix>3d</fix>
</trkpt>
<trkpt lat="-27.2744386" lon="151.2900638">
  <ele>364.18</ele>
  <time>2026-09-01T19:56:38Z</time>
  <course>10.69</course>
  <speed>0.022360679774997897</speed>
  <fix>3d</fix>
</trkpt>
<trkpt lat="-27.2744385" lon="151.2900637">
  <ele>363.99</ele>
  <time>2026-09-01T19:56:38Z</time>
  <course>54.09</course>
  <speed>0.0</speed>
  <fix>3d</fix>
</trkpt>
<trkpt lat="-27.2744386" lon="151.2900638">
  <ele>364.18</ele>
  <time>2026-09-01T19:56:38Z</time>
  <course>10.69</course>
  <speed>0.022360679774997897</speed>
  <fix>3d</fix>
</trkpt>
<trkpt lat="-27.2744385" lon="151.2900637">
  <ele>363.99</ele>
  <time>2026-09-01T19:56:38Z</time>
  <course>54.09</course>
  <speed>0.0</speed>
  <fix>3d</fix>
</trkpt>
<trkpt lat="-27.2744386" lon="151.2900638">
  <ele>364.18</ele>
  <time>2026-09-01T19:56:38Z</time>
  <course>10.68</course>
  <speed>0.022360679774997897</speed>
  <fix>3d</fix>
</trkpt>
<trkpt lat="-27.2744385" lon="151.2900637">
  <ele>363.99</ele>
  <time>2026-09-01T19:56:38Z</time>
  <course>51.28</course>
  <speed>0.0</speed>
  <fix>3d</fix>
</trkpt>
<trkpt lat="-27.2744386" lon="151.2900638">
  <ele>364.17</ele>
  <time>2026-09-01T19:56:38Z</time>
  <course>10.68</course>
  <speed>0.022360679774997897</speed>
  <fix>3d</fix>
</trkpt>
<trkpt lat="-27.2744385" lon="151.2900637">
  <ele>363.99</ele>
  <time>2026-09-01T19:56:38Z</time>
  <course>51.28</course>
  <speed>0.0</speed>
  <fix>3d</fix>
</trkpt>
<trkpt lat="-27.2744386" lon="151.2900638">
  <ele>364.17</ele>
  <time>2026-09-01T19:56:38Z</time>
  <course>10.68</course>
  <speed>0.022360679774997897</speed>
  <fix>3d</fix>
</trkpt>
<trkpt lat="-27.2744385" lon="151.2900637">
  <ele>363.99</ele>
  <time>2026-09-01T19:56:38Z</time>
  <course>49.9</course>
  <speed>0.0</speed>
  <fix>3d</fix>
</trkpt>
<trkpt lat="-27.2744386" lon="151.2900638">
  <ele>364.17</ele>
  <time>2026-09-01T19:56:38Z</time>
  <course>10.68</course>
  <speed>0.022360679774997897</speed>
  <fix>3d</fix>
</trkpt>
<trkpt lat="-27.2744385" lon="151.2900637">
  <ele>363.99</ele>
  <time>2026-09-01T19:56:38Z</time>
  <course>49.9</course>
  <speed>0.0</speed>
  <fix>3d</fix>
</trkpt>
<trkpt lat="-27.2744386" lon="151.2900638">
  <ele>364.17</ele>
  <time>2026-09-01T19:56:38Z</time>
  <course>10.69</course>
  <speed>0.022360679774997897</speed>
  <fix>3d</fix>
</trkpt>
<trkpt lat="-27.2744385" lon="151.2900637">
  <ele>363.99</ele>
  <time>2026-09-01T19:56:38Z</time>
  <course>45.52</course>
  <speed>0.0</speed>
  <fix>3d</fix>
</trkpt>
<trkpt lat="-27.2744386" lon="151.2900638">
  <ele>364.17</ele>
  <time>2026-09-01T19:56:38Z</time>
  <course>10.69</course>
  <speed>0.022360679774997897</speed>
  <fix>3d</fix>
</trkpt>
<trkpt lat="-27.2744385" lon="151.2900637">
  <ele>363.99</ele>
  <time>2026-09-01T19:56:38Z</time>
  <course>45.52</course>
  <speed>0.0</speed>
  <fix>3d</fix>
</trkpt>
<trkpt lat="-27.2744386" lon="151.2900638">
  <ele>364.17</ele>
  <time>2026-09-01T19:56:38Z</time>
  <course>10.69</course>
  <speed>0.022360679774997897</speed>
  <fix>3d</fix>
</trkpt>
<trkpt lat="-27.2744385" lon="151.2900637">
  <ele>363.99</ele>
  <time>2026-09-01T19:56:38Z</time>
  <course>37.38</course>
  <speed>0.0</speed>
  <fix>3d</fix>
</trkpt>
<trkpt lat="-27.2744386" lon="151.2900638">
  <ele>364.17</ele>
  <time>2026-09-01T19:56:38Z</time>
  <course>10.69</course>
  <speed>0.022360679774997897</speed>
  <fix>3d</fix>
</trkpt>
<trkpt lat="-27.2744385" lon="151.2900637">
  <ele>363.99</ele>
  <time>2026-09-01T19:56:38Z</time>
  <course>37.38</course>
  <speed>0.0</speed>
  <fix>3d</fix>
</trkpt>
<trkpt lat="-27.2744386" lon="151.2900638">
  <ele>364.17</ele>
  <time>2026-09-01T19:56:38Z</time>
  <course>10.69</course>
  <speed>0.022360679774997897</speed>
  <fix>3d</fix>
</trkpt>
<trkpt lat="-27.2744385" lon="151.2900637">
  <ele>363.99</ele>
  <time>2026-09-01T19:56:38Z</time>
  <course>27.99</course>
  <speed>0.0</speed>
  <fix>3d</fix>
</trkpt>
<trkpt lat="-27.2744386" lon="151.2900638">
  <ele>364.17</ele>
  <time>2026-09-01T19:56:38Z</time>
  <course>10.69</course>
  <speed>0.022360679774997897</speed>
  <fix>3d</fix>
</trkpt>
<trkpt lat="-27.2744385" lon="151.2900637">
  <ele>363.99</ele>
  <time>2026-09-01T19:56:38Z</time>
  <course>27.99</course>
  <speed>0.0</speed>
  <fix>3d</fix>
</trkpt>
<trkpt lat="-27.2744386" lon="151.2900638">
  <ele>364.17</ele>
  <time>2026-09-01T19:56:38Z</time>
  <course>10.69</course>
  <speed>0.022360679774997897</speed>
  <fix>3d</fix>
</trkpt>
<trkpt lat="-27.2744385" lon="151.2900637">
  <ele>364.0</ele>
  <time>2026-09-01T19:56:38Z</time>
  <course>20.14</course>
  <speed>0.0</speed>
  <fix>3d</fix>
</trkpt>
<trkpt lat="-27.2744386" lon="151.2900638">
  <ele>364.17</ele>
  <time>2026-09-01T19:56:38Z</time>
  <course>10.69</course>
  <speed>0.022360679774997897</speed>
  <fix>3d</fix>
</trkpt>
<trkpt lat="-27.2744385" lon="151.2900637">
  <ele>364.0</ele>
  <time>2026-09-01T19:56:38Z</time>
  <course>20.14</course>
  <speed>0.0</speed>
  <fix>3d</fix>
</trkpt>
<trkpt lat="-27.2744386" lon="151.2900638">
  <ele>364.17</ele>
  <time>2026-09-01T19:56:38Z</time>
  <course>10.69</course>
  <speed>0.022360679774997897</speed>
  <fix>3d</fix>
</trkpt>
<trkpt lat="-27.2744385" lon="151.2900637">
  <ele>364.0</ele>
  <time>2026-09-01T19:56:38Z</time>
  <course>14.4</course>
  <speed>0.0</speed>
  <fix>3d</fix>
</trkpt>
<trkpt lat="-27.2744386" lon="151.2900638">
  <ele>364.18</ele>
  <time>2026-09-01T19:56:38Z</time>
  <course>10.7</course>
  <speed>0.022360679774997897</speed>
  <fix>3d</fix>
</trkpt>
<trkpt lat="-27.2744385" lon="151.2900637">
  <ele>364.0</ele>
  <time>2026-09-01T19:56:38Z</time>
  <course>14.4</course>
  <speed>0.0</speed>
  <fix>3d</fix>
</trkpt>
<trkpt lat="-27.2744386" lon="151.2900638">
  <ele>364.18</ele>
  <time>2026-09-01T19:56:38Z</time>
  <course>10.7</course>
  <speed>0.01414213562373095</speed>
  <fix>3d</fix>
</trkpt>
<trkpt lat="-27.2744385" lon="151.2900637">
  <ele>364.0</ele>
  <time>2026-09-01T19:56:38Z</time>
  <course>10.53</course>
  <speed>0.0</speed>
  <fix>3d</fix>
</trkpt>
<trkpt lat="-27.2744386" lon="151.2900638">
  <ele>364.18</ele>
  <time>2026-09-01T19:56:38Z</time>
  <course>10.69</course>
  <speed>0.01414213562373095</speed>
  <fix>3d</fix>
</trkpt>
<trkpt lat="-27.2744385" lon="151.2900637">
  <ele>364.0</ele>
  <time>2026-09-01T19:56:38Z</time>
  <course>10.53</course>
  <speed>0.0</speed>
  <fix>3d</fix>
</trkpt>
<trkpt lat="-27.2744386" lon="151.2900638">
  <ele>364.18</ele>
  <time>2026-09-01T19:56:39Z</time>
  <course>10.69</course>
  <speed>0.01414213562373095</speed>
  <fix>3d</fix>
</trkpt>
<trkpt lat="-27.2744385" lon="151.2900637">
  <ele>364.0</ele>
  <time>2026-09-01T19:56:39Z</time>
  <course>7.73</course>
  <speed>0.0</speed>
  <fix>3d</fix>
</trkpt>
<trkpt lat="-27.2744386" lon="151.2900638">
  <ele>364.18</ele>
  <time>2026-09-01T19:56:39Z</time>
  <course>10.69</course>
  <speed>0.01414213562373095</speed>
  <fix>3d</fix>
</trkpt>
<trkpt lat="-27.2744385" lon="151.2900637">
  <ele>364.0</ele>
  <time>2026-09-01T19:56:39Z</time>
  <course>7.73</course>
  <speed>0.0</speed>
  <fix>3d</fix>
</trkpt>
<trkpt lat="-27.2744386" lon="151.2900638">
  <ele>364.18</ele>
  <time>2026-09-01T19:56:39Z</time>
  <course>10.69</course>
  <speed>0.01414213562373095</speed>
  <fix>3d</fix>
</trkpt>
<trkpt lat="-27.2744385" lon="151.2900637">
  <ele>364.01</ele>
  <time>2026-09-01T19:56:39Z</time>
  <course>4.97</course>
  <speed>0.0</speed>
  <fix>3d</fix>
</trkpt>
<trkpt lat="-27.2744386" lon="151.2900638">
  <ele>364.18</ele>
  <time>2026-09-01T19:56:39Z</time>
  <course>10.69</course>
  <speed>0.01414213562373095</speed>
  <fix>3d</fix>
</trkpt>
<trkpt lat="-27.2744385" lon="151.2900637">
  <ele>364.01</ele>
  <time>2026-09-01T19:56:39Z</time>
  <course>4.97</course>
  <speed>0.0</speed>
  <fix>3d</fix>
</trkpt>
<trkpt lat="-27.2744386" lon="151.2900638">
  <ele>364.18</ele>
  <time>2026-09-01T19:56:39Z</time>
  <course>10.69</course>
  <speed>0.01414213562373095</speed>
  <fix>3d</fix>
</trkpt>
<trkpt lat="-27.2744385" lon="151.2900637">
  <ele>364.01</ele>
  <time>2026-09-01T19:56:39Z</time>
  <course>2.96</course>
  <speed>0.0</speed>
  <fix>3d</fix>
</trkpt>
<trkpt lat="-27.2744386" lon="151.2900638">
  <ele>364.18</ele>
  <time>2026-09-01T19:56:39Z</time>
  <course>10.68</course>
  <speed>0.01414213562373095</speed>
  <fix>3d</fix>
</trkpt>
<trkpt lat="-27.2744385" lon="151.2900637">
  <ele>364.01</ele>
  <time>2026-09-01T19:56:39Z</time>
  <course>2.96</course>
  <speed>0.0</speed>
  <fix>3d</fix>
</trkpt>
<trkpt lat="-27.2744386" lon="151.2900638">
  <ele>364.18</ele>
  <time>2026-09-01T19:56:39Z</time>
  <course>10.68</course>
  <speed>0.022360679774997897</speed>
  <fix>3d</fix>
</trkpt>
<trkpt lat="-27.2744385" lon="151.2900637">
  <ele>364.01</ele>
  <time>2026-09-01T19:56:39Z</time>
  <course>6.41</course>
  <speed>0.0</speed>
  <fix>3d</fix>
</trkpt>
<trkpt lat="-27.2744386" lon="151.2900638">
  <ele>364.19</ele>
  <time>2026-09-01T19:56:39Z</time>
  <course>10.68</course>
  <speed>0.022360679774997897</speed>
  <fix>3d</fix>
</trkpt>
<trkpt lat="-27.2744385" lon="151.2900637">
  <ele>364.01</ele>
  <time>2026-09-01T19:56:39Z</time>
  <course>6.41</course>
  <speed>0.0</speed>
  <fix>3d</fix>
</trkpt>
<trkpt lat="-27.2744386" lon="151.2900638">
  <ele>364.19</ele>
  <time>2026-09-01T19:56:39Z</time>
  <course>10.68</course>
  <speed>0.022360679774997897</speed>
  <fix>3d</fix>
</trkpt>
<trkpt lat="-27.2744384" lon="151.2900637">
  <ele>364.01</ele>
  <time>2026-09-01T19:56:39Z</time>
  <course>15.91</course>
  <speed>0.0</speed>
  <fix>3d</fix>
</trkpt>
<trkpt lat="-27.2744386" lon="151.2900638">
  <ele>364.19</ele>
  <time>2026-09-01T19:56:39Z</time>
  <course>10.68</course>
  <speed>0.022360679774997897</speed>
  <fix>3d</fix>
</trkpt>
<trkpt lat="-27.2744384" lon="151.2900637">
  <ele>364.01</ele>
  <time>2026-09-01T19:56:39Z</time>
  <course>15.91</course>
  <speed>0.0</speed>
  <fix>3d</fix>
</trkpt>
<trkpt lat="-27.2744386" lon="151.2900638">
  <ele>364.19</ele>
  <time>2026-09-01T19:56:39Z</time>
  <course>10.67</course>
  <speed>0.022360679774997897</speed>
  <fix>3d</fix>
</trkpt>
<trkpt lat="-27.2744384" lon="151.2900637">
  <ele>364.01</ele>
  <time>2026-09-01T19:56:39Z</time>
  <course>21.24</course>
  <speed>0.0</speed>
  <fix>3d</fix>
</trkpt>
<trkpt lat="-27.2744386" lon="151.2900638">
  <ele>364.19</ele>
  <time>2026-09-01T19:56:39Z</time>
  <course>10.67</course>
  <speed>0.022360679774997897</speed>
  <fix>3d</fix>
</trkpt>
<trkpt lat="-27.2744384" lon="151.2900637">
  <ele>364.01</ele>
  <time>2026-09-01T19:56:39Z</time>
  <course>21.24</course>
  <speed>0.0</speed>
  <fix>3d</fix>
</trkpt>
<trkpt lat="-27.2744386" lon="151.2900638">
  <ele>364.19</ele>
  <time>2026-09-01T19:56:39Z</time>
  <course>10.67</course>
  <speed>0.022360679774997897</speed>
  <fix>3d</fix>
</trkpt>
<trkpt lat="-27.2744384" lon="151.2900637">
  <ele>364.01</ele>
  <time>2026-09-01T19:56:39Z</time>
  <course>17.27</course>
  <speed>0.0</speed>
  <fix>3d</fix>
</trkpt>
<trkpt lat="-27.2744386" lon="151.2900638">
  <ele>364.19</ele>
  <time>2026-09-01T19:56:39Z</time>
  <course>10.68</course>
  <speed>0.01414213562373095</speed>
  <fix>3d</fix>
</trkpt>
<trkpt lat="-27.2744384" lon="151.2900637">
  <ele>364.01</ele>
  <time>2026-09-01T19:56:39Z</time>
  <course>17.27</course>
  <speed>0.0</speed>
  <fix>3d</fix>
</trkpt>
<trkpt lat="-27.2744386" lon="151.2900638">
  <ele>364.19</ele>
  <time>2026-09-01T19:56:39Z</time>
  <course>10.68</course>
  <speed>0.022360679774997897</speed>
  <fix>3d</fix>
</trkpt>
<trkpt lat="-27.2744384" lon="151.2900637">
  <ele>364.01</ele>
  <time>2026-09-01T19:56:39Z</time>
  <course>7.34</course>
  <speed>0.0</speed>
  <fix>3d</fix>
</trkpt>
<trkpt lat="-27.2744386" lon="151.2900638">
  <ele>364.19</ele>
  <time>2026-09-01T19:56:39Z</time>
  <course>10.68</course>
  <speed>0.01</speed>
  <fix>3d</fix>
</trkpt>
<trkpt lat="-27.2744384" lon="151.2900637">
  <ele>364.01</ele>
  <time>2026-09-01T19:56:39Z</time>
  <course>7.34</course>
  <speed>0.0</speed>
  <fix>3d</fix>
</trkpt>
<trkpt lat="-27.2744386" lon="151.2900638">
  <ele>364.19</ele>
  <time>2026-09-01T19:56:39Z</time>
  <course>10.68</course>
  <speed>0.01</speed>
  <fix>3d</fix>
</trkpt>
<trkpt lat="-27.2744384" lon="151.2900637">
  <ele>364.0</ele>
  <time>2026-09-01T19:56:39Z</time>
  <course>356.65</course>
  <speed>0.0</speed>
  <fix>3d</fix>
</trkpt>
<trkpt lat="-27.2744386" lon="151.2900638">
  <ele>364.19</ele>
  <time>2026-09-01T19:56:39Z</time>
  <course>10.68</course>
  <speed>0.01</speed>
  <fix>3d</fix>
</trkpt>
<trkpt lat="-27.2744384" lon="151.2900637">
  <ele>364.0</ele>
  <time>2026-09-01T19:56:39Z</time>
  <course>356.65</course>
  <speed>0.0</speed>
  <fix>3d</fix>
</trkpt>
<trkpt lat="-27.2744386" lon="151.2900638">
  <ele>364.19</ele>
  <time>2026-09-01T19:56:39Z</time>
  <course>10.68</course>
  <speed>0.01</speed>
  <fix>3d</fix>
</trkpt>
<trkpt lat="-27.2744384" lon="151.2900637">
  <ele>364.0</ele>
  <time>2026-09-01T19:56:39Z</time>
  <course>349.52</course>
  <speed>0.0</speed>
  <fix>3d</fix>
</trkpt>
<trkpt lat="-27.2744386" lon="151.2900638">
  <ele>364.19</ele>
  <time>2026-09-01T19:56:39Z</time>
  <course>10.69</course>
  <speed>0.01</speed>
  <fix>3d</fix>
</trkpt>
<trkpt lat="-27.2744384" lon="151.2900637">
  <ele>364.0</ele>
  <time>2026-09-01T19:56:39Z</time>
  <course>349.52</course>
  <speed>0.0</speed>
  <fix>3d</fix>
</trkpt>
<trkpt lat="-27.2744386" lon="151.2900638">
  <ele>364.19</ele>
  <time>2026-09-01T19:56:39Z</time>
  <course>10.69</course>
  <speed>0.02</speed>
  <fix>3d</fix>
</trkpt>
<trkpt lat="-27.2744383" lon="151.2900637">
  <ele>364.0</ele>
  <time>2026-09-01T19:56:39Z</time>
  <course>345.24</course>
  <speed>0.0</speed>
  <fix>3d</fix>
</trkpt>
<trkpt lat="-27.2744386" lon="151.2900638">
  <ele>364.19</ele>
  <time>2026-09-01T19:56:39Z</time>
  <course>10.69</course>
  <speed>0.01</speed>
  <fix>3d</fix>
</trkpt>
<trkpt lat="-27.2744383" lon="151.2900637">
  <ele>364.0</ele>
  <time>2026-09-01T19:56:39Z</time>
  <course>345.24</course>
  <speed>0.0</speed>
  <fix>3d</fix>
</trkpt>
<trkpt lat="-27.2744386" lon="151.2900638">
  <ele>364.19</ele>
  <time>2026-09-01T19:56:39Z</time>
  <course>10.69</course>
  <speed>0.02</speed>
  <fix>3d</fix>
</trkpt>
<trkpt lat="-27.2744383" lon="151.2900637">
  <ele>364.0</ele>
  <time>2026-09-01T19:56:39Z</time>
  <course>342.36</course>
  <speed>0.0</speed>
  <fix>3d</fix>
</trkpt>
<trkpt lat="-27.2744386" lon="151.2900638">
  <ele>364.19</ele>
  <time>2026-09-01T19:56:39Z</time>
  <course>10.69</course>
  <speed>0.01</speed>
  <fix>3d</fix>
</trkpt>
<trkpt lat="-27.2744383" lon="151.2900637">
  <ele>364.0</ele>
  <time>2026-09-01T19:56:39Z</time>
  <course>342.36</course>
  <speed>0.0</speed>
  <fix>3d</fix>
</trkpt>
<trkpt lat="-27.2744386" lon="151.2900638">
  <ele>364.19</ele>
  <time>2026-09-01T19:56:39Z</time>
  <course>10.68</course>
  <speed>0.01</speed>
  <fix>3d</fix>
</trkpt>
<trkpt lat="-27.2744383" lon="151.2900637">
  <ele>364.0</ele>
  <time>2026-09-01T19:56:39Z</time>
  <course>340.05</course>
  <speed>0.0</speed>
  <fix>3d</fix>
</trkpt>
<trkpt lat="-27.2744386" lon="151.2900638">
  <ele>364.19</ele>
  <time>2026-09-01T19:56:39Z</time>
  <course>10.68</course>
  <speed>0.01</speed>
  <fix>3d</fix>
</trkpt>
<trkpt lat="-27.2744383" lon="151.2900637">
  <ele>364.0</ele>
  <time>2026-09-01T19:56:39Z</time>
  <course>340.05</course>
  <speed>0.0</speed>
  <fix>3d</fix>
</trkpt>
<trkpt lat="-27.2744386" lon="151.2900638">
  <ele>364.19</ele>
  <time>2026-09-01T19:56:39Z</time>
  <course>10.68</course>
  <speed>0.02</speed>
  <fix>3d</fix>
</trkpt>
<trkpt lat="-27.2744383" lon="151.2900637">
  <ele>363.99</ele>
  <time>2026-09-01T19:56:39Z</time>
  <course>336.29</course>
  <speed>0.0</speed>
  <fix>3d</fix>
</trkpt>
<trkpt lat="-27.2744386" lon="151.2900638">
  <ele>364.19</ele>
  <time>2026-09-01T19:56:39Z</time>
  <course>10.68</course>
  <speed>0.02</speed>
  <fix>3d</fix>
</trkpt>
<trkpt lat="-27.2744383" lon="151.2900637">
  <ele>363.99</ele>
  <time>2026-09-01T19:56:39Z</time>
  <course>336.29</course>
  <speed>0.0</speed>
  <fix>3d</fix>
</trkpt>
<trkpt lat="-27.2744386" lon="151.2900638">
  <ele>364.19</ele>
  <time>2026-09-01T19:56:39Z</time>
  <course>10.68</course>
  <speed>0.02</speed>
  <fix>3d</fix>
</trkpt>
<trkpt lat="-27.2744383" lon="151.2900637">
  <ele>363.99</ele>
  <time>2026-09-01T19:56:39Z</time>
  <course>329.4</course>
  <speed>0.0</speed>
  <fix>3d</fix>
</trkpt>
<trkpt lat="-27.2744386" lon="151.2900638">
  <ele>364.19</ele>
  <time>2026-09-01T19:56:39Z</time>
  <course>10.68</course>
  <speed>0.02</speed>
  <fix>3d</fix>
</trkpt>
<trkpt lat="-27.2744383" lon="151.2900637">
  <ele>363.99</ele>
  <time>2026-09-01T19:56:39Z</time>
  <course>329.4</course>
  <speed>0.0</speed>
  <fix>3d</fix>
</trkpt>
<trkpt lat="-27.2744386" lon="151.2900638">
  <ele>364.18</ele>
  <time>2026-09-01T19:56:39Z</time>
  <course>10.68</course>
  <speed>0.02</speed>
  <fix>3d</fix>
</trkpt>
<trkpt lat="-27.2744383" lon="151.2900637">
  <ele>363.99</ele>
  <time>2026-09-01T19:56:39Z</time>
  <course>319.99</course>
  <speed>0.0</speed>
  <fix>3d</fix>
</trkpt>
<trkpt lat="-27.2744385" lon="151.2900638">
  <ele>364.18</ele>
  <time>2026-09-01T19:56:39Z</time>
  <course>10.68</course>
  <speed>0.02</speed>
  <fix>3d</fix>
</trkpt>
<trkpt lat="-27.2744383" lon="151.2900637">
  <ele>363.99</ele>
  <time>2026-09-01T19:56:39Z</time>
  <course>319.99</course>
  <speed>0.0</speed>
  <fix>3d</fix>
</trkpt>
<trkpt lat="-27.2744385" lon="151.2900638">
  <ele>364.18</ele>
  <time>2026-09-01T19:56:39Z</time>
  <course>10.68</course>
  <speed>0.02</speed>
  <fix>3d</fix>
</trkpt>
<trkpt lat="-27.2744383" lon="151.2900637">
  <ele>363.99</ele>
  <time>2026-09-01T19:56:39Z</time>
  <course>312.34</course>
  <speed>0.0</speed>
  <fix>3d</fix>
</trkpt>
<trkpt lat="-27.2744385" lon="151.2900638">
  <ele>364.18</ele>
  <time>2026-09-01T19:56:39Z</time>
  <course>10.68</course>
  <speed>0.02</speed>
  <fix>3d</fix>
</trkpt>
<trkpt lat="-27.2744383" lon="151.2900637">
  <ele>363.99</ele>
  <time>2026-09-01T19:56:39Z</time>
  <course>312.34</course>
  <speed>0.0</speed>
  <fix>3d</fix>
</trkpt>
<trkpt lat="-27.2744385" lon="151.2900638">
  <ele>364.18</ele>
  <time>2026-09-01T19:56:39Z</time>
  <course>10.68</course>
  <speed>0.022360679774997897</speed>
  <fix>3d</fix>
</trkpt>
<trkpt lat="-27.2744383" lon="151.2900637">
  <ele>363.98</ele>
  <time>2026-09-01T19:56:39Z</time>
  <course>308.56</course>
  <speed>0.0</speed>
  <fix>3d</fix>
</trkpt>
<trkpt lat="-27.2744385" lon="151.2900638">
  <ele>364.18</ele>
  <time>2026-09-01T19:56:39Z</time>
  <course>10.69</course>
  <speed>0.022360679774997897</speed>
  <fix>3d</fix>
</trkpt>
<trkpt lat="-27.2744383" lon="151.2900637">
  <ele>363.98</ele>
  <time>2026-09-01T19:56:39Z</time>
  <course>308.56</course>
  <speed>0.0</speed>
  <fix>3d</fix>
</trkpt>
<trkpt lat="-27.2744385" lon="151.2900638">
  <ele>364.18</ele>
  <time>2026-09-01T19:56:39Z</time>
  <course>10.69</course>
  <speed>0.022360679774997897</speed>
  <fix>3d</fix>
</trkpt>
<trkpt lat="-27.2744383" lon="151.2900637">
  <ele>363.98</ele>
  <time>2026-09-01T19:56:39Z</time>
  <course>298.42</course>
  <speed>0.0</speed>
  <fix>3d</fix>
</trkpt>
<trkpt lat="-27.2744385" lon="151.2900638">
  <ele>364.18</ele>
  <time>2026-09-01T19:56:39Z</time>
  <course>10.69</course>
  <speed>0.022360679774997897</speed>
  <fix>3d</fix>
</trkpt>
<trkpt lat="-27.2744383" lon="151.2900637">
  <ele>363.98</ele>
  <time>2026-09-01T19:56:39Z</time>
  <course>298.42</course>
  <speed>0.0</speed>
  <fix>3d</fix>
</trkpt>
<trkpt lat="-27.2744385" lon="151.2900638">
  <ele>364.18</ele>
  <time>2026-09-01T19:56:39Z</time>
  <course>10.69</course>
  <speed>0.022360679774997897</speed>
  <fix>3d</fix>
</trkpt>
<trkpt lat="-27.2744383" lon="151.2900637">
  <ele>363.98</ele>
  <time>2026-09-01T19:56:39Z</time>
  <course>231.63</course>
  <speed>0.0</speed>
  <fix>3d</fix>
</trkpt>
<trkpt lat="-27.2744385" lon="151.2900638">
  <ele>364.18</ele>
  <time>2026-09-01T19:56:39Z</time>
  <course>10.69</course>
  <speed>0.022360679774997897</speed>
  <fix>3d</fix>
</trkpt>
<trkpt lat="-27.2744383" lon="151.2900637">
  <ele>363.98</ele>
  <time>2026-09-01T19:56:39Z</time>
  <course>231.63</course>
  <speed>0.0</speed>
  <fix>3d</fix>
</trkpt>
<trkpt lat="-27.2744385" lon="151.2900638">
  <ele>364.18</ele>
  <time>2026-09-01T19:56:39Z</time>
  <course>10.69</course>
  <speed>0.022360679774997897</speed>
  <fix>3d</fix>
</trkpt>
<trkpt lat="-27.2744383" lon="151.2900637">
  <ele>363.98</ele>
  <time>2026-09-01T19:56:39Z</time>
  <course>188.83</course>
  <speed>0.0</speed>
  <fix>3d</fix>
</trkpt>
<trkpt lat="-27.2744385" lon="151.2900638">
  <ele>364.18</ele>
  <time>2026-09-01T19:56:39Z</time>
  <course>10.69</course>
  <speed>0.022360679774997897</speed>
  <fix>3d</fix>
</trkpt>
<trkpt lat="-27.2744383" lon="151.2900637">
  <ele>363.98</ele>
  <time>2026-09-01T19:56:39Z</time>
  <course>188.83</course>
  <speed>0.0</speed>
  <fix>3d</fix>
</trkpt>
<trkpt lat="-27.2744385" lon="151.2900638">
  <ele>364.18</ele>
  <time>2026-09-01T19:56:39Z</time>
  <course>10.69</course>
  <speed>0.022360679774997897</speed>
  <fix>3d</fix>
</trkpt>
<trkpt lat="-27.2744383" lon="151.2900637">
  <ele>363.98</ele>
  <time>2026-09-01T19:56:39Z</time>
  <course>186.34</course>
  <speed>0.0</speed>
  <fix>3d</fix>
</trkpt>
<trkpt lat="-27.2744385" lon="151.2900638">
  <ele>364.18</ele>
  <time>2026-09-01T19:56:39Z</time>
  <course>10.69</course>
  <speed>0.022360679774997897</speed>
  <fix>3d</fix>
</trkpt>
<trkpt lat="-27.2744383" lon="151.2900637">
  <ele>363.98</ele>
  <time>2026-09-01T19:56:39Z</time>
  <course>186.34</course>
  <speed>0.0</speed>
  <fix>3d</fix>
</trkpt>
<trkpt lat="-27.2744385" lon="151.2900638">
  <ele>364.18</ele>
  <time>2026-09-01T19:56:39Z</time>
  <course>10.69</course>
  <speed>0.022360679774997897</speed>
  <fix>3d</fix>
</trkpt>
<trkpt lat="-27.2744383" lon="151.2900637">
  <ele>363.98</ele>
  <time>2026-09-01T19:56:39Z</time>
  <course>191.2</course>
  <speed>0.0</speed>
  <fix>3d</fix>
</trkpt>
<trkpt lat="-27.2744385" lon="151.2900638">
  <ele>364.18</ele>
  <time>2026-09-01T19:56:39Z</time>
  <course>10.68</course>
  <speed>0.022360679774997897</speed>
  <fix>3d</fix>
</trkpt>
<trkpt lat="-27.2744383" lon="151.2900637">
  <ele>363.98</ele>
  <time>2026-09-01T19:56:39Z</time>
  <course>191.2</course>
  <speed>0.0</speed>
  <fix>3d</fix>
</trkpt>
<trkpt lat="-27.2744385" lon="151.2900638">
  <ele>364.19</ele>
  <time>2026-09-01T19:56:39Z</time>
  <course>10.68</course>
  <speed>0.022360679774997897</speed>
  <fix>3d</fix>
</trkpt>
<trkpt lat="-27.2744383" lon="151.2900637">
  <ele>363.98</ele>
  <time>2026-09-01T19:56:39Z</time>
  <course>198.99</course>
  <speed>0.0</speed>
  <fix>3d</fix>
</trkpt>
<trkpt lat="-27.2744385" lon="151.2900638">
  <ele>364.19</ele>
  <time>2026-09-01T19:56:39Z</time>
  <course>10.67</course>
  <speed>0.022360679774997897</speed>
  <fix>3d</fix>
</trkpt>
<trkpt lat="-27.2744383" lon="151.2900637">
  <ele>363.98</ele>
  <time>2026-09-01T19:56:39Z</time>
  <course>198.99</course>
  <speed>0.0</speed>
  <fix>3d</fix>
</trkpt>
<trkpt lat="-27.2744385" lon="151.2900638">
  <ele>364.19</ele>
  <time>2026-09-01T19:56:39Z</time>
  <course>10.66</course>
  <speed>0.022360679774997897</speed>
  <fix>3d</fix>
</trkpt>
<trkpt lat="-27.2744383" lon="151.2900637">
  <ele>363.98</ele>
  <time>2026-09-01T19:56:39Z</time>
  <course>209.86</course>
  <speed>0.0</speed>
  <fix>3d</fix>
</trkpt>
<trkpt lat="-27.2744385" lon="151.2900638">
  <ele>364.19</ele>
  <time>2026-09-01T19:56:39Z</time>
  <course>10.66</course>
  <speed>0.022360679774997897</speed>
  <fix>3d</fix>
</trkpt>
<trkpt lat="-27.2744383" lon="151.2900637">
  <ele>363.98</ele>
  <time>2026-09-01T19:56:39Z</time>
  <course>209.86</course>
  <speed>0.0</speed>
  <fix>3d</fix>
</trkpt>
<trkpt lat="-27.2744385" lon="151.2900638">
  <ele>364.19</ele>
  <time>2026-09-01T19:56:39Z</time>
  <course>10.66</course>
  <speed>0.022360679774997897</speed>
  <fix>3d</fix>
</trkpt>
<trkpt lat="-27.2744383" lon="151.2900637">
  <ele>363.98</ele>
  <time>2026-09-01T19:56:39Z</time>
  <course>219.32</course>
  <speed>0.0</speed>
  <fix>3d</fix>
</trkpt>
<trkpt lat="-27.2744385" lon="151.2900638">
  <ele>364.18</ele>
  <time>2026-09-01T19:56:39Z</time>
  <course>10.67</course>
  <speed>0.02</speed>
  <fix>3d</fix>
</trkpt>
<trkpt lat="-27.2744383" lon="151.2900637">
  <ele>363.98</ele>
  <time>2026-09-01T19:56:39Z</time>
  <course>219.32</course>
  <speed>0.0</speed>
  <fix>3d</fix>
</trkpt>
<trkpt lat="-27.2744385" lon="151.2900638">
  <ele>364.18</ele>
  <time>2026-09-01T19:56:39Z</time>
  <course>10.67</course>
  <speed>0.03</speed>
  <fix>3d</fix>
</trkpt>
<trkpt lat="-27.2744383" lon="151.2900637">
  <ele>363.98</ele>
  <time>2026-09-01T19:56:39Z</time>
  <course>222.99</course>
  <speed>0.0</speed>
  <fix>3d</fix>
</trkpt>
<trkpt lat="-27.2744385" lon="151.2900638">
  <ele>364.18</ele>
  <time>2026-09-01T19:56:39Z</time>
  <course>10.68</course>
  <speed>0.03</speed>
  <fix>3d</fix>
</trkpt>
<trkpt lat="-27.2744383" lon="151.2900637">
  <ele>363.98</ele>
  <time>2026-09-01T19:56:39Z</time>
  <course>222.99</course>
  <speed>0.0</speed>
  <fix>3d</fix>
</trkpt>
<trkpt lat="-27.2744385" lon="151.2900638">
  <ele>364.18</ele>
  <time>2026-09-01T19:56:39Z</time>
  <course>10.69</course>
  <speed>0.03</speed>
  <fix>3d</fix>
</trkpt>
<trkpt lat="-27.2744383" lon="151.2900637">
  <ele>363.98</ele>
  <time>2026-09-01T19:56:39Z</time>
  <course>224.01</course>
  <speed>0.0</speed>
  <fix>3d</fix>
</trkpt>
<trkpt lat="-27.2744385" lon="151.2900638">
  <ele>364.18</ele>
  <time>2026-09-01T19:56:39Z</time>
  <course>10.69</course>
  <speed>0.02</speed>
  <fix>3d</fix>
</trkpt>
<trkpt lat="-27.2744383" lon="151.2900637">
  <ele>363.98</ele>
  <time>2026-09-01T19:56:39Z</time>
  <course>224.01</course>
  <speed>0.0</speed>
  <fix>3d</fix>
</trkpt>
<trkpt lat="-27.2744385" lon="151.2900638">
  <ele>364.18</ele>
  <time>2026-09-01T19:56:39Z</time>
  <course>10.69</course>
  <speed>0.02</speed>
  <fix>3d</fix>
</trkpt>
<trkpt lat="-27.2744383" lon="151.2900637">
  <ele>363.97</ele>
  <time>2026-09-01T19:56:39Z</time>
  <course>222.05</course>
  <speed>0.0</speed>
  <fix>3d</fix>
</trkpt>
<trkpt lat="-27.2744385" lon="151.2900638">
  <ele>364.18</ele>
  <time>2026-09-01T19:56:39Z</time>
  <course>10.68</course>
  <speed>0.022360679774997897</speed>
  <fix>3d</fix>
</trkpt>
<trkpt lat="-27.2744383" lon="151.2900637">
  <ele>363.97</ele>
  <time>2026-09-01T19:56:39Z</time>
  <course>222.05</course>
  <speed>0.0</speed>
  <fix>3d</fix>
</trkpt>
<trkpt lat="-27.2744385" lon="151.2900638">
  <ele>364.18</ele>
  <time>2026-09-01T19:56:39Z</time>
  <course>10.67</course>
  <speed>0.022360679774997897</speed>
  <fix>3d</fix>
</trkpt>
<trkpt lat="-27.2744383" lon="151.2900637">
  <ele>363.97</ele>
  <time>2026-09-01T19:56:39Z</time>
  <course>216.07</course>
  <speed>0.0</speed>
  <fix>3d</fix>
</trkpt>
<trkpt lat="-27.2744385" lon="151.2900638">
  <ele>364.18</ele>
  <time>2026-09-01T19:56:39Z</time>
  <course>10.67</course>
  <speed>0.022360679774997897</speed>
  <fix>3d</fix>
</trkpt>
<trkpt lat="-27.2744383" lon="151.2900637">
  <ele>363.97</ele>
  <time>2026-09-01T19:56:39Z</time>
  <course>216.07</course>
  <speed>0.0</speed>
  <fix>3d</fix>
</trkpt>
<trkpt lat="-27.2744385" lon="151.2900638">
  <ele>364.18</ele>
  <time>2026-09-01T19:56:39Z</time>
  <course>10.67</course>
  <speed>0.022360679774997897</speed>
  <fix>3d</fix>
</trkpt>
<trkpt lat="-27.2744383" lon="151.2900637">
  <ele>363.97</ele>
  <time>2026-09-01T19:56:39Z</time>
  <course>210.92</course>
  <speed>0.0</speed>
  <fix>3d</fix>
</trkpt>
<trkpt lat="-27.2744385" lon="151.2900638">
  <ele>364.18</ele>
  <time>2026-09-01T19:56:39Z</time>
  <course>10.68</course>
  <speed>0.022360679774997897</speed>
  <fix>3d</fix>
</trkpt>
<trkpt lat="-27.2744383" lon="151.2900637">
  <ele>363.97</ele>
  <time>2026-09-01T19:56:39Z</time>
  <course>210.92</course>
  <speed>0.0</speed>
  <fix>3d</fix>
</trkpt>
<trkpt lat="-27.2744385" lon="151.2900638">
  <ele>364.18</ele>
  <time>2026-09-01T19:56:39Z</time>
  <course>10.69</course>
  <speed>0.022360679774997897</speed>
  <fix>3d</fix>
</trkpt>
<trkpt lat="-27.2744383" lon="151.2900637">
  <ele>363.97</ele>
  <time>2026-09-01T19:56:39Z</time>
  <course>209.61</course>
  <speed>0.0</speed>
  <fix>3d</fix>
</trkpt>
<trkpt lat="-27.2744385" lon="151.2900638">
  <ele>364.17</ele>
  <time>2026-09-01T19:56:39Z</time>
  <course>10.69</course>
  <speed>0.022360679774997897</speed>
  <fix>3d</fix>
</trkpt>
<trkpt lat="-27.2744383" lon="151.2900637">
  <ele>363.97</ele>
  <time>2026-09-01T19:56:39Z</time>
  <course>209.61</course>
  <speed>0.0</speed>
  <fix>3d</fix>
</trkpt>
<trkpt lat="-27.2744385" lon="151.2900638">
  <ele>364.17</ele>
  <time>2026-09-01T19:56:39Z</time>
  <course>10.7</course>
  <speed>0.022360679774997897</speed>
  <fix>3d</fix>
</trkpt>
<trkpt lat="-27.2744383" lon="151.2900637">
  <ele>363.97</ele>
  <time>2026-09-01T19:56:39Z</time>
  <course>210.88</course>
  <speed>0.0</speed>
  <fix>3d</fix>
</trkpt>
<trkpt lat="-27.2744385" lon="151.2900638">
  <ele>364.17</ele>
  <time>2026-09-01T19:56:39Z</time>
  <course>10.7</course>
  <speed>0.022360679774997897</speed>
  <fix>3d</fix>
</trkpt>
<trkpt lat="-27.2744383" lon="151.2900637">
  <ele>363.97</ele>
  <time>2026-09-01T19:56:39Z</time>
  <course>210.88</course>
  <speed>0.0</speed>
  <fix>3d</fix>
</trkpt>
<trkpt lat="-27.2744385" lon="151.2900638">
  <ele>364.17</ele>
  <time>2026-09-01T19:56:39Z</time>
  <course>10.7</course>
  <speed>0.022360679774997897</speed>
  <fix>3d</fix>
</trkpt>
<trkpt lat="-27.2744383" lon="151.2900637">
  <ele>363.97</ele>
  <time>2026-09-01T19:56:39Z</time>
  <course>213.27</course>
  <speed>0.0</speed>
  <fix>3d</fix>
</trkpt>
<trkpt lat="-27.2744385" lon="151.2900638">
  <ele>364.17</ele>
  <time>2026-09-01T19:56:39Z</time>
  <course>10.7</course>
  <speed>0.022360679774997897</speed>
  <fix>3d</fix>
</trkpt>
<trkpt lat="-27.2744383" lon="151.2900637">
  <ele>363.97</ele>
  <time>2026-09-01T19:56:39Z</time>
  <course>213.27</course>
  <speed>0.0</speed>
  <fix>3d</fix>
</trkpt>
<trkpt lat="-27.2744385" lon="151.2900638">
  <ele>364.17</ele>
  <time>2026-09-01T19:56:39Z</time>
  <course>10.69</course>
  <speed>0.022360679774997897</speed>
  <fix>3d</fix>
</trkpt>
<trkpt lat="-27.2744383" lon="151.2900637">
  <ele>363.97</ele>
  <time>2026-09-01T19:56:39Z</time>
  <course>212.84</course>
  <speed>0.0</speed>
  <fix>3d</fix>
</trkpt>
<trkpt lat="-27.2744385" lon="151.2900638">
  <ele>364.17</ele>
  <time>2026-09-01T19:56:39Z</time>
  <course>10.68</course>
  <speed>0.022360679774997897</speed>
  <fix>3d</fix>
</trkpt>
<trkpt lat="-27.2744383" lon="151.2900637">
  <ele>363.97</ele>
  <time>2026-09-01T19:56:39Z</time>
  <course>212.84</course>
  <speed>0.0</speed>
  <fix>3d</fix>
</trkpt>
<trkpt lat="-27.2744385" lon="151.2900638">
  <ele>364.17</ele>
  <time>2026-09-01T19:56:39Z</time>
  <course>10.67</course>
  <speed>0.022360679774997897</speed>
  <fix>3d</fix>
</trkpt>
<trkpt lat="-27.2744383" lon="151.2900637">
  <ele>363.97</ele>
  <time>2026-09-01T19:56:39Z</time>
  <course>210.48</course>
  <speed>0.0</speed>
  <fix>3d</fix>
</trkpt>
<trkpt lat="-27.2744385" lon="151.2900638">
  <ele>364.17</ele>
  <time>2026-09-01T19:56:39Z</time>
  <course>10.66</course>
  <speed>0.022360679774997897</speed>
  <fix>3d</fix>
</trkpt>
<trkpt lat="-27.2744383" lon="151.2900637">
  <ele>363.97</ele>
  <time>2026-09-01T19:56:39Z</time>
  <course>210.48</course>
  <speed>0.0</speed>
  <fix>3d</fix>
</trkpt>
<trkpt lat="-27.2744385" lon="151.2900638">
  <ele>364.17</ele>
  <time>2026-09-01T19:56:39Z</time>
  <course>10.66</course>
  <speed>0.022360679774997897</speed>
  <fix>3d</fix>
</trkpt>
<trkpt lat="-27.2744383" lon="151.2900637">
  <ele>363.97</ele>
  <time>2026-09-01T19:56:39Z</time>
  <course>210.86</course>
  <speed>0.0</speed>
  <fix>3d</fix>
</trkpt>
<trkpt lat="-27.2744385" lon="151.2900638">
  <ele>364.17</ele>
  <time>2026-09-01T19:56:39Z</time>
  <course>10.67</course>
  <speed>0.022360679774997897</speed>
  <fix>3d</fix>
</trkpt>
<trkpt lat="-27.2744383" lon="151.2900637">
  <ele>363.97</ele>
  <time>2026-09-01T19:56:39Z</time>
  <course>210.86</course>
  <speed>0.0</speed>
  <fix>3d</fix>
</trkpt>
<trkpt lat="-27.2744385" lon="151.2900638">
  <ele>364.17</ele>
  <time>2026-09-01T19:56:39Z</time>
  <course>10.68</course>
  <speed>0.022360679774997897</speed>
  <fix>3d</fix>
</trkpt>
<trkpt lat="-27.2744384" lon="151.2900637">
  <ele>363.98</ele>
  <time>2026-09-01T19:56:39Z</time>
  <course>212.26</course>
  <speed>0.0</speed>
  <fix>3d</fix>
</trkpt>
<trkpt lat="-27.2744385" lon="151.2900638">
  <ele>364.17</ele>
  <time>2026-09-01T19:56:39Z</time>
  <course>10.69</course>
  <speed>0.022360679774997897</speed>
  <fix>3d</fix>
</trkpt>
<trkpt lat="-27.2744384" lon="151.2900637">
  <ele>363.98</ele>
  <time>2026-09-01T19:56:39Z</time>
  <course>212.26</course>
  <speed>0.0</speed>
  <fix>3d</fix>
</trkpt>
<trkpt lat="-27.2744385" lon="151.2900638">
  <ele>364.17</ele>
  <time>2026-09-01T19:56:39Z</time>
  <course>10.7</course>
  <speed>0.022360679774997897</speed>
  <fix>3d</fix>
</trkpt>
<trkpt lat="-27.2744384" lon="151.2900637">
  <ele>363.98</ele>
  <time>2026-09-01T19:56:39Z</time>
  <course>212.22</course>
  <speed>0.01</speed>
  <fix>3d</fix>
</trkpt>
<trkpt lat="-27.2744385" lon="151.2900638">
  <ele>364.18</ele>
  <time>2026-09-01T19:56:39Z</time>
  <course>10.7</course>
  <speed>0.022360679774997897</speed>
  <fix>3d</fix>
</trkpt>
<trkpt lat="-27.2744384" lon="151.2900637">
  <ele>363.98</ele>
  <time>2026-09-01T19:56:39Z</time>
  <course>212.22</course>
  <speed>0.01</speed>
  <fix>3d</fix>
</trkpt>
<trkpt lat="-27.2744385" lon="151.2900638">
  <ele>364.18</ele>
  <time>2026-09-01T19:56:39Z</time>
  <course>10.7</course>
  <speed>0.022360679774997897</speed>
  <fix>3d</fix>
</trkpt>
<trkpt lat="-27.2744384" lon="151.2900637">
  <ele>363.98</ele>
  <time>2026-09-01T19:56:39Z</time>
  <course>211.72</course>
  <speed>0.01</speed>
  <fix>3d</fix>
</trkpt>
<trkpt lat="-27.2744385" lon="151.2900638">
  <ele>364.18</ele>
  <time>2026-09-01T19:56:39Z</time>
  <course>10.69</course>
  <speed>0.022360679774997897</speed>
  <fix>3d</fix>
</trkpt>
<trkpt lat="-27.2744384" lon="151.2900637">
  <ele>363.98</ele>
  <time>2026-09-01T19:56:39Z</time>
  <course>211.72</course>
  <speed>0.01</speed>
  <fix>3d</fix>
</trkpt>
<trkpt lat="-27.2744385" lon="151.2900638">
  <ele>364.18</ele>
  <time>2026-09-01T19:56:39Z</time>
  <course>10.69</course>
  <speed>0.022360679774997897</speed>
  <fix>3d</fix>
</trkpt>
<trkpt lat="-27.2744384" lon="151.2900637">
  <ele>363.98</ele>
  <time>2026-09-01T19:56:39Z</time>
  <course>212.27</course>
  <speed>0.01</speed>
  <fix>3d</fix>
</trkpt>
<trkpt lat="-27.2744386" lon="151.2900638">
  <ele>364.18</ele>
  <time>2026-09-01T19:56:39Z</time>
  <course>10.68</course>
  <speed>0.022360679774997897</speed>
  <fix>3d</fix>
</trkpt>
<trkpt lat="-27.2744384" lon="151.2900637">
  <ele>363.98</ele>
  <time>2026-09-01T19:56:39Z</time>
  <course>212.27</course>
  <speed>0.01</speed>
  <fix>3d</fix>
</trkpt>
<trkpt lat="-27.2744386" lon="151.2900638">
  <ele>364.18</ele>
  <time>2026-09-01T19:56:39Z</time>
  <course>10.68</course>
  <speed>0.022360679774997897</speed>
  <fix>3d</fix>
</trkpt>
<trkpt lat="-27.2744384" lon="151.2900637">
  <ele>363.99</ele>
  <time>2026-09-01T19:56:39Z</time>
  <course>213.15</course>
  <speed>0.01</speed>
  <fix>3d</fix>
</trkpt>
<trkpt lat="-27.2744386" lon="151.2900638">
  <ele>364.18</ele>
  <time>2026-09-01T19:56:39Z</time>
  <course>10.68</course>
  <speed>0.022360679774997897</speed>
  <fix>3d</fix>
</trkpt>
<trkpt lat="-27.2744384" lon="151.2900637">
  <ele>363.99</ele>
  <time>2026-09-01T19:56:39Z</time>
  <course>213.15</course>
  <speed>0.01</speed>
  <fix>3d</fix>
</trkpt>
<trkpt lat="-27.2744386" lon="151.2900638">
  <ele>364.18</ele>
  <time>2026-09-01T19:56:39Z</time>
  <course>10.68</course>
  <speed>0.022360679774997897</speed>
  <fix>3d</fix>
</trkpt>
<trkpt lat="-27.2744384" lon="151.2900636">
  <ele>363.99</ele>
  <time>2026-09-01T19:56:39Z</time>
  <course>213.74</course>
  <speed>0.01</speed>
  <fix>3d</fix>
</trkpt>
<trkpt lat="-27.2744386" lon="151.2900638">
  <ele>364.18</ele>
  <time>2026-09-01T19:56:39Z</time>
  <course>10.68</course>
  <speed>0.022360679774997897</speed>
  <fix>3d</fix>
</trkpt>
<trkpt lat="-27.2744384" lon="151.2900636">
  <ele>363.99</ele>
  <time>2026-09-01T19:56:39Z</time>
  <course>213.74</course>
  <speed>0.01</speed>
  <fix>3d</fix>
</trkpt>
<trkpt lat="-27.2744386" lon="151.2900638">
  <ele>364.18</ele>
  <time>2026-09-01T19:56:39Z</time>
  <course>10.68</course>
  <speed>0.022360679774997897</speed>
  <fix>3d</fix>
</trkpt>
<trkpt lat="-27.2744385" lon="151.2900636">
  <ele>363.99</ele>
  <time>2026-09-01T19:56:39Z</time>
  <course>213.79</course>
  <speed>0.0</speed>
  <fix>3d</fix>
</trkpt>
<trkpt lat="-27.2744386" lon="151.2900638">
  <ele>364.18</ele>
  <time>2026-09-01T19:56:39Z</time>
  <course>10.68</course>
  <speed>0.022360679774997897</speed>
  <fix>3d</fix>
</trkpt>
<trkpt lat="-27.2744385" lon="151.2900636">
  <ele>363.99</ele>
  <time>2026-09-01T19:56:39Z</time>
  <course>213.79</course>
  <speed>0.0</speed>
  <fix>3d</fix>
</trkpt>
<trkpt lat="-27.2744386" lon="151.2900638">
  <ele>364.18</ele>
  <time>2026-09-01T19:56:39Z</time>
  <course>10.68</course>
  <speed>0.022360679774997897</speed>
  <fix>3d</fix>
</trkpt>
<trkpt lat="-27.2744385" lon="151.2900636">
  <ele>363.98</ele>
  <time>2026-09-01T19:56:39Z</time>
  <course>213.5</course>
  <speed>0.0</speed>
  <fix>3d</fix>
</trkpt>
<trkpt lat="-27.2744386" lon="151.2900638">
  <ele>364.18</ele>
  <time>2026-09-01T19:56:39Z</time>
  <course>10.68</course>
  <speed>0.022360679774997897</speed>
  <fix>3d</fix>
</trkpt>
<trkpt lat="-27.2744385" lon="151.2900636">
  <ele>363.98</ele>
  <time>2026-09-01T19:56:39Z</time>
  <course>213.5</course>
  <speed>0.0</speed>
  <fix>3d</fix>
</trkpt>
<trkpt lat="-27.2744386" lon="151.2900638">
  <ele>364.18</ele>
  <time>2026-09-01T19:56:39Z</time>
  <course>10.68</course>
  <speed>0.022360679774997897</speed>
  <fix>3d</fix>
</trkpt>
<trkpt lat="-27.2744385" lon="151.2900636">
  <ele>363.98</ele>
  <time>2026-09-01T19:56:39Z</time>
  <course>214.36</course>
  <speed>0.0</speed>
  <fix>3d</fix>
</trkpt>
<trkpt lat="-27.2744386" lon="151.2900638">
  <ele>364.17</ele>
  <time>2026-09-01T19:56:39Z</time>
  <course>10.68</course>
  <speed>0.022360679774997897</speed>
  <fix>3d</fix>
</trkpt>
<trkpt lat="-27.2744385" lon="151.2900636">
  <ele>363.98</ele>
  <time>2026-09-01T19:56:39Z</time>
  <course>214.36</course>
  <speed>0.0</speed>
  <fix>3d</fix>
</trkpt>
<trkpt lat="-27.2744386" lon="151.2900638">
  <ele>364.17</ele>
  <time>2026-09-01T19:56:39Z</time>
  <course>10.68</course>
  <speed>0.022360679774997897</speed>
  <fix>3d</fix>
</trkpt>
<trkpt lat="-27.2744385" lon="151.2900636">
  <ele>363.98</ele>
  <time>2026-09-01T19:56:39Z</time>
  <course>218.69</course>
  <speed>0.0</speed>
  <fix>3d</fix>
</trkpt>
<trkpt lat="-27.2744386" lon="151.2900638">
  <ele>364.17</ele>
  <time>2026-09-01T19:56:39Z</time>
  <course>10.68</course>
  <speed>0.022360679774997897</speed>
  <fix>3d</fix>
</trkpt>
<trkpt lat="-27.2744385" lon="151.2900636">
  <ele>363.98</ele>
  <time>2026-09-01T19:56:39Z</time>
  <course>218.69</course>
  <speed>0.0</speed>
  <fix>3d</fix>
</trkpt>
<trkpt lat="-27.2744386" lon="151.2900638">
  <ele>364.17</ele>
  <time>2026-09-01T19:56:39Z</time>
  <course>10.68</course>
  <speed>0.022360679774997897</speed>
  <fix>3d</fix>
</trkpt>
<trkpt lat="-27.2744385" lon="151.2900636">
  <ele>363.98</ele>
  <time>2026-09-01T19:56:39Z</time>
  <course>227.34</course>
  <speed>0.0</speed>
  <fix>3d</fix>
</trkpt>
<trkpt lat="-27.2744386" lon="151.2900638">
  <ele>364.18</ele>
  <time>2026-09-01T19:56:39Z</time>
  <course>10.68</course>
  <speed>0.022360679774997897</speed>
  <fix>3d</fix>
</trkpt>
<trkpt lat="-27.2744385" lon="151.2900636">
  <ele>363.98</ele>
  <time>2026-09-01T19:56:39Z</time>
  <course>227.34</course>
  <speed>0.0</speed>
  <fix>3d</fix>
</trkpt>
<trkpt lat="-27.2744386" lon="151.2900638">
  <ele>364.18</ele>
  <time>2026-09-01T19:56:39Z</time>
  <course>10.68</course>
  <speed>0.022360679774997897</speed>
  <fix>3d</fix>
</trkpt>
<trkpt lat="-27.2744385" lon="151.2900636">
  <ele>363.98</ele>
  <time>2026-09-01T19:56:39Z</time>
  <course>235.24</course>
  <speed>0.0</speed>
  <fix>3d</fix>
</trkpt>
<trkpt lat="-27.2744386" lon="151.2900638">
  <ele>364.18</ele>
  <time>2026-09-01T19:56:39Z</time>
  <course>10.68</course>
  <speed>0.022360679774997897</speed>
  <fix>3d</fix>
</trkpt>
<trkpt lat="-27.2744385" lon="151.2900636">
  <ele>363.98</ele>
  <time>2026-09-01T19:56:39Z</time>
  <course>235.24</course>
  <speed>0.0</speed>
  <fix>3d</fix>
</trkpt>
<trkpt lat="-27.2744386" lon="151.2900638">
  <ele>364.18</ele>
  <time>2026-09-01T19:56:39Z</time>
  <course>10.68</course>
  <speed>0.022360679774997897</speed>
  <fix>3d</fix>
</trkpt>
<trkpt lat="-27.2744385" lon="151.2900636">
  <ele>363.98</ele>
  <time>2026-09-01T19:56:39Z</time>
  <course>237.48</course>
  <speed>0.0</speed>
  <fix>3d</fix>
</trkpt>
<trkpt lat="-27.2744386" lon="151.2900638">
  <ele>364.19</ele>
  <time>2026-09-01T19:56:39Z</time>
  <course>10.68</course>
  <speed>0.022360679774997897</speed>
  <fix>3d</fix>
</trkpt>
<trkpt lat="-27.2744385" lon="151.2900636">
  <ele>363.98</ele>
  <time>2026-09-01T19:56:39Z</time>
  <course>237.48</course>
  <speed>0.0</speed>
  <fix>3d</fix>
</trkpt>
<trkpt lat="-27.2744386" lon="151.2900638">
  <ele>364.19</ele>
  <time>2026-09-01T19:56:39Z</time>
  <course>10.68</course>
  <speed>0.022360679774997897</speed>
  <fix>3d</fix>
</trkpt>
<trkpt lat="-27.2744385" lon="151.2900636">
  <ele>363.99</ele>
  <time>2026-09-01T19:56:39Z</time>
  <course>236.84</course>
  <speed>0.0</speed>
  <fix>3d</fix>
</trkpt>
<trkpt lat="-27.2744386" lon="151.2900638">
  <ele>364.19</ele>
  <time>2026-09-01T19:56:39Z</time>
  <course>10.68</course>
  <speed>0.022360679774997897</speed>
  <fix>3d</fix>
</trkpt>
<trkpt lat="-27.2744385" lon="151.2900636">
  <ele>363.99</ele>
  <time>2026-09-01T19:56:39Z</time>
  <course>236.84</course>
  <speed>0.0</speed>
  <fix>3d</fix>
</trkpt>
<trkpt lat="-27.2744386" lon="151.2900638">
  <ele>364.19</ele>
  <time>2026-09-01T19:56:39Z</time>
  <course>10.68</course>
  <speed>0.022360679774997897</speed>
  <fix>3d</fix>
</trkpt>
<trkpt lat="-27.2744385" lon="151.2900636">
  <ele>363.99</ele>
  <time>2026-09-01T19:56:39Z</time>
  <course>239.99</course>
  <speed>0.0</speed>
  <fix>3d</fix>
</trkpt>
<trkpt lat="-27.2744386" lon="151.2900638">
  <ele>364.19</ele>
  <time>2026-09-01T19:56:39Z</time>
  <course>10.68</course>
  <speed>0.022360679774997897</speed>
  <fix>3d</fix>
</trkpt>
<trkpt lat="-27.2744385" lon="151.2900636">
  <ele>363.99</ele>
  <time>2026-09-01T19:56:39Z</time>
  <course>239.99</course>
  <speed>0.0</speed>
  <fix>3d</fix>
</trkpt>
<trkpt lat="-27.2744386" lon="151.2900638">
  <ele>364.19</ele>
  <time>2026-09-01T19:56:39Z</time>
  <course>10.68</course>
  <speed>0.022360679774997897</speed>
  <fix>3d</fix>
</trkpt>
<trkpt lat="-27.2744385" lon="151.2900636">
  <ele>363.99</ele>
  <time>2026-09-01T19:56:39Z</time>
  <course>255.95</course>
  <speed>0.0</speed>
  <fix>3d</fix>
</trkpt>
<trkpt lat="-27.2744386" lon="151.2900638">
  <ele>364.19</ele>
  <time>2026-09-01T19:56:39Z</time>
  <course>10.68</course>
  <speed>0.022360679774997897</speed>
  <fix>3d</fix>
</trkpt>
<trkpt lat="-27.2744385" lon="151.2900636">
  <ele>363.99</ele>
  <time>2026-09-01T19:56:39Z</time>
  <course>255.95</course>
  <speed>0.0</speed>
  <fix>3d</fix>
</trkpt>
<trkpt lat="-27.2744386" lon="151.2900638">
  <ele>364.19</ele>
  <time>2026-09-01T19:56:39Z</time>
  <course>10.68</course>
  <speed>0.022360679774997897</speed>
  <fix>3d</fix>
</trkpt>
<trkpt lat="-27.2744385" lon="151.2900636">
  <ele>363.98</ele>
  <time>2026-09-01T19:56:39Z</time>
  <course>278.65</course>
  <speed>0.0</speed>
  <fix>3d</fix>
</trkpt>
<trkpt lat="-27.2744386" lon="151.2900638">
  <ele>364.19</ele>
  <time>2026-09-01T19:56:39Z</time>
  <course>10.68</course>
  <speed>0.01414213562373095</speed>
  <fix>3d</fix>
</trkpt>
<trkpt lat="-27.2744385" lon="151.2900636">
  <ele>363.98</ele>
  <time>2026-09-01T19:56:39Z</time>
  <course>278.65</course>
  <speed>0.0</speed>
  <fix>3d</fix>
</trkpt>
<trkpt lat="-27.2744386" lon="151.2900638">
  <ele>364.19</ele>
  <time>2026-09-01T19:56:39Z</time>
  <course>10.68</course>
  <speed>0.01414213562373095</speed>
  <fix>3d</fix>
</trkpt>
<trkpt lat="-27.2744385" lon="151.2900635">
  <ele>363.98</ele>
  <time>2026-09-01T19:56:39Z</time>
  <course>301.67</course>
  <speed>0.0</speed>
  <fix>3d</fix>
</trkpt>
<trkpt lat="-27.2744386" lon="151.2900637">
  <ele>364.18</ele>
  <time>2026-09-01T19:56:39Z</time>
  <course>10.68</course>
  <speed>0.01414213562373095</speed>
  <fix>3d</fix>
</trkpt>
<trkpt lat="-27.2744385" lon="151.2900635">
  <ele>363.98</ele>
  <time>2026-09-01T19:56:39Z</time>
  <course>301.67</course>
  <speed>0.0</speed>
  <fix>3d</fix>
</trkpt>
<trkpt lat="-27.2744386" lon="151.2900638">
  <ele>364.18</ele>
  <time>2026-09-01T19:56:39Z</time>
  <course>10.68</course>
  <speed>0.01414213562373095</speed>
  <fix>3d</fix>
</trkpt>
<trkpt lat="-27.2744385" lon="151.2900635">
  <ele>363.98</ele>
  <time>2026-09-01T19:56:39Z</time>
  <course>328.84</course>
  <speed>0.0</speed>
  <fix>3d</fix>
</trkpt>
<trkpt lat="-27.2744386" lon="151.2900637">
  <ele>364.18</ele>
  <time>2026-09-01T19:56:39Z</time>
  <course>10.68</course>
  <speed>0.01414213562373095</speed>
  <fix>3d</fix>
</trkpt>
<trkpt lat="-27.2744385" lon="151.2900635">
  <ele>363.98</ele>
  <time>2026-09-01T19:56:39Z</time>
  <course>328.84</course>
  <speed>0.0</speed>
  <fix>3d</fix>
</trkpt>
<trkpt lat="-27.2744386" lon="151.2900637">
  <ele>364.17</ele>
  <time>2026-09-01T19:56:39Z</time>
  <course>10.68</course>
  <speed>0.01414213562373095</speed>
  <fix>3d</fix>
</trkpt>
<trkpt lat="-27.2744385" lon="151.2900635">
  <ele>363.97</ele>
  <time>2026-09-01T19:56:39Z</time>
  <course>349.49</course>
  <speed>0.0</speed>
  <fix>3d</fix>
</trkpt>
<trkpt lat="-27.2744386" lon="151.2900637">
  <ele>364.17</ele>
  <time>2026-09-01T19:56:39Z</time>
  <course>10.68</course>
  <speed>0.01414213562373095</speed>
  <fix>3d</fix>
</trkpt>
<trkpt lat="-27.2744385" lon="151.2900635">
  <ele>363.97</ele>
  <time>2026-09-01T19:56:39Z</time>
  <course>349.49</course>
  <speed>0.0</speed>
  <fix>3d</fix>
</trkpt>
<trkpt lat="-27.2744386" lon="151.2900637">
  <ele>364.16</ele>
  <time>2026-09-01T19:56:39Z</time>
  <course>10.68</course>
  <speed>0.01414213562373095</speed>
  <fix>3d</fix>
</trkpt>
<trkpt lat="-27.2744385" lon="151.2900635">
  <ele>363.97</ele>
  <time>2026-09-01T19:56:39Z</time>
  <course>0.66</course>
  <speed>0.0</speed>
  <fix>3d</fix>
</trkpt>
<trkpt lat="-27.2744386" lon="151.2900637">
  <ele>364.16</ele>
  <time>2026-09-01T19:56:39Z</time>
  <course>10.68</course>
  <speed>0.01414213562373095</speed>
  <fix>3d</fix>
</trkpt>
<trkpt lat="-27.2744385" lon="151.2900635">
  <ele>363.97</ele>
  <time>2026-09-01T19:56:39Z</time>
  <course>0.66</course>
  <speed>0.0</speed>
  <fix>3d</fix>
</trkpt>
<trkpt lat="-27.2744386" lon="151.2900637">
  <ele>364.16</ele>
  <time>2026-09-01T19:56:39Z</time>
  <course>10.68</course>
  <speed>0.01414213562373095</speed>
  <fix>3d</fix>
</trkpt>
<trkpt lat="-27.2744385" lon="151.2900635">
  <ele>363.97</ele>
  <time>2026-09-01T19:56:39Z</time>
  <course>10.6</course>
  <speed>0.0</speed>
  <fix>3d</fix>
</trkpt>
<trkpt lat="-27.2744386" lon="151.2900637">
  <ele>364.16</ele>
  <time>2026-09-01T19:56:39Z</time>
  <course>10.68</course>
  <speed>0.01414213562373095</speed>
  <fix>3d</fix>
</trkpt>
<trkpt lat="-27.2744385" lon="151.2900635">
  <ele>363.97</ele>
  <time>2026-09-01T19:56:39Z</time>
  <course>10.6</course>
  <speed>0.0</speed>
  <fix>3d</fix>
</trkpt>
<trkpt lat="-27.2744386" lon="151.2900637">
  <ele>364.17</ele>
  <time>2026-09-01T19:56:39Z</time>
  <course>10.68</course>
  <speed>0.01414213562373095</speed>
  <fix>3d</fix>
</trkpt>
<trkpt lat="-27.2744385" lon="151.2900635">
  <ele>363.97</ele>
  <time>2026-09-01T19:56:39Z</time>
  <course>19.41</course>
  <speed>0.0</speed>
  <fix>3d</fix>
</trkpt>
<trkpt lat="-27.2744386" lon="151.2900637">
  <ele>364.17</ele>
  <time>2026-09-01T19:56:39Z</time>
  <course>10.68</course>
  <speed>0.01414213562373095</speed>
  <fix>3d</fix>
</trkpt>
<trkpt lat="-27.2744385" lon="151.2900635">
  <ele>363.97</ele>
  <time>2026-09-01T19:56:39Z</time>
  <course>19.41</course>
  <speed>0.0</speed>
  <fix>3d</fix>
</trkpt>
<trkpt lat="-27.2744386" lon="151.2900637">
  <ele>364.17</ele>
  <time>2026-09-01T19:56:39Z</time>
  <course>10.68</course>
  <speed>0.01414213562373095</speed>
  <fix>3d</fix>
</trkpt>
<trkpt lat="-27.2744385" lon="151.2900635">
  <ele>363.97</ele>
  <time>2026-09-01T19:56:39Z</time>
  <course>26.87</course>
  <speed>0.0</speed>
  <fix>3d</fix>
</trkpt>
<trkpt lat="-27.2744386" lon="151.2900637">
  <ele>364.18</ele>
  <time>2026-09-01T19:56:39Z</time>
  <course>10.68</course>
  <speed>0.01414213562373095</speed>
  <fix>3d</fix>
</trkpt>
<trkpt lat="-27.2744385" lon="151.2900635">
  <ele>363.97</ele>
  <time>2026-09-01T19:56:39Z</time>
  <course>26.87</course>
  <speed>0.0</speed>
  <fix>3d</fix>
</trkpt>
<trkpt lat="-27.2744386" lon="151.2900637">
  <ele>364.18</ele>
  <time>2026-09-01T19:56:39Z</time>
  <course>10.68</course>
  <speed>0.01414213562373095</speed>
  <fix>3d</fix>
</trkpt>
<trkpt lat="-27.2744385" lon="151.2900635">
  <ele>363.98</ele>
  <time>2026-09-01T19:56:39Z</time>
  <course>32.25</course>
  <speed>0.0</speed>
  <fix>3d</fix>
</trkpt>
<trkpt lat="-27.2744386" lon="151.2900637">
  <ele>364.18</ele>
  <time>2026-09-01T19:56:39Z</time>
  <course>10.68</course>
  <speed>0.01414213562373095</speed>
  <fix>3d</fix>
</trkpt>
<trkpt lat="-27.2744385" lon="151.2900635">
  <ele>363.98</ele>
  <time>2026-09-01T19:56:39Z</time>
  <course>32.25</course>
  <speed>0.0</speed>
  <fix>3d</fix>
</trkpt>
<trkpt lat="-27.2744386" lon="151.2900637">
  <ele>364.18</ele>
  <time>2026-09-01T19:56:39Z</time>
  <course>10.69</course>
  <speed>0.01414213562373095</speed>
  <fix>3d</fix>
</trkpt>
<trkpt lat="-27.2744385" lon="151.2900635">
  <ele>363.98</ele>
  <time>2026-09-01T19:56:39Z</time>
  <course>37.4</course>
  <speed>0.0</speed>
  <fix>3d</fix>
</trkpt>
<trkpt lat="-27.2744386" lon="151.2900637">
  <ele>364.18</ele>
  <time>2026-09-01T19:56:39Z</time>
  <course>10.69</course>
  <speed>0.01414213562373095</speed>
  <fix>3d</fix>
</trkpt>
<trkpt lat="-27.2744385" lon="151.2900635">
  <ele>363.98</ele>
  <time>2026-09-01T19:56:39Z</time>
  <course>37.4</course>
  <speed>0.0</speed>
  <fix>3d</fix>
</trkpt>
<trkpt lat="-27.2744386" lon="151.2900637">
  <ele>364.18</ele>
  <time>2026-09-01T19:56:39Z</time>
  <course>10.69</course>
  <speed>0.022360679774997897</speed>
  <fix>3d</fix>
</trkpt>
<trkpt lat="-27.2744385" lon="151.2900635">
  <ele>363.98</ele>
  <time>2026-09-01T19:56:39Z</time>
  <course>47.78</course>
  <speed>0.0</speed>
  <fix>3d</fix>
</trkpt>
<trkpt lat="-27.2744386" lon="151.2900637">
  <ele>364.18</ele>
  <time>2026-09-01T19:56:39Z</time>
  <course>10.69</course>
  <speed>0.022360679774997897</speed>
  <fix>3d</fix>
</trkpt>
<trkpt lat="-27.2744385" lon="151.2900635">
  <ele>363.98</ele>
  <time>2026-09-01T19:56:39Z</time>
  <course>47.78</course>
  <speed>0.0</speed>
  <fix>3d</fix>
</trkpt>
<trkpt lat="-27.2744386" lon="151.2900637">
  <ele>364.18</ele>
  <time>2026-09-01T19:56:39Z</time>
  <course>10.69</course>
  <speed>0.022360679774997897</speed>
  <fix>3d</fix>
</trkpt>
<trkpt lat="-27.2744385" lon="151.2900635">
  <ele>363.99</ele>
  <time>2026-09-01T19:56:39Z</time>
  <course>58.31</course>
  <speed>0.0</speed>
  <fix>3d</fix>
</trkpt>
<trkpt lat="-27.2744386" lon="151.2900637">
  <ele>364.18</ele>
  <time>2026-09-01T19:56:39Z</time>
  <course>10.69</course>
  <speed>0.0282842712474619</speed>
  <fix>3d</fix>
</trkpt>
<trkpt lat="-27.2744385" lon="151.2900635">
  <ele>363.99</ele>
  <time>2026-09-01T19:56:39Z</time>
  <course>58.31</course>
  <speed>0.0</speed>
  <fix>3d</fix>
</trkpt>
<trkpt lat="-27.2744386" lon="151.2900637">
  <ele>364.18</ele>
  <time>2026-09-01T19:56:39Z</time>
  <course>10.68</course>
  <speed>0.0282842712474619</speed>
  <fix>3d</fix>
</trkpt>
<trkpt lat="-27.2744385" lon="151.2900635">
  <ele>363.99</ele>
  <time>2026-09-01T19:56:39Z</time>
  <course>61.92</course>
  <speed>0.01</speed>
  <fix>3d</fix>
</trkpt>
<trkpt lat="-27.2744386" lon="151.2900637">
  <ele>364.18</ele>
  <time>2026-09-01T19:56:39Z</time>
  <course>10.68</course>
  <speed>0.0282842712474619</speed>
  <fix>3d</fix>
</trkpt>
<trkpt lat="-27.2744385" lon="151.2900635">
  <ele>363.99</ele>
  <time>2026-09-01T19:56:39Z</time>
  <course>61.92</course>
  <speed>0.01</speed>
  <fix>3d</fix>
</trkpt>
<trkpt lat="-27.2744386" lon="151.2900637">
  <ele>364.18</ele>
  <time>2026-09-01T19:56:39Z</time>
  <course>10.68</course>
  <speed>0.0282842712474619</speed>
  <fix>3d</fix>
</trkpt>
<trkpt lat="-27.2744385" lon="151.2900635">
  <ele>363.99</ele>
  <time>2026-09-01T19:56:39Z</time>
  <course>61.01</course>
  <speed>0.01</speed>
  <fix>3d</fix>
</trkpt>
<trkpt lat="-27.2744386" lon="151.2900637">
  <ele>364.18</ele>
  <time>2026-09-01T19:56:39Z</time>
  <course>10.69</course>
  <speed>0.022360679774997897</speed>
  <fix>3d</fix>
</trkpt>
<trkpt lat="-27.2744385" lon="151.2900635">
  <ele>363.99</ele>
  <time>2026-09-01T19:56:39Z</time>
  <course>61.01</course>
  <speed>0.01</speed>
  <fix>3d</fix>
</trkpt>
<trkpt lat="-27.2744386" lon="151.2900637">
  <ele>364.18</ele>
  <time>2026-09-01T19:56:39Z</time>
  <course>10.69</course>
  <speed>0.022360679774997897</speed>
  <fix>3d</fix>
</trkpt>
<trkpt lat="-27.2744385" lon="151.2900635">
  <ele>363.99</ele>
  <time>2026-09-01T19:56:39Z</time>
  <course>58.25</course>
  <speed>0.01</speed>
  <fix>3d</fix>
</trkpt>
<trkpt lat="-27.2744386" lon="151.2900637">
  <ele>364.18</ele>
  <time>2026-09-01T19:56:39Z</time>
  <course>10.69</course>
  <speed>0.01414213562373095</speed>
  <fix>3d</fix>
</trkpt>
<trkpt lat="-27.2744385" lon="151.2900635">
  <ele>363.99</ele>
  <time>2026-09-01T19:56:39Z</time>
  <course>58.25</course>
  <speed>0.01</speed>
  <fix>3d</fix>
</trkpt>
<trkpt lat="-27.2744386" lon="151.2900637">
  <ele>364.18</ele>
  <time>2026-09-01T19:56:39Z</time>
  <course>10.68</course>
  <speed>0.01414213562373095</speed>
  <fix>3d</fix>
</trkpt>
<trkpt lat="-27.2744385" lon="151.2900636">
  <ele>363.99</ele>
  <time>2026-09-01T19:56:39Z</time>
  <course>54.96</course>
  <speed>0.01</speed>
  <fix>3d</fix>
</trkpt>
<trkpt lat="-27.2744386" lon="151.2900637">
  <ele>364.18</ele>
  <time>2026-09-01T19:56:39Z</time>
  <course>10.68</course>
  <speed>0.01414213562373095</speed>
  <fix>3d</fix>
</trkpt>
<trkpt lat="-27.2744385" lon="151.2900636">
  <ele>363.99</ele>
  <time>2026-09-01T19:56:39Z</time>
  <course>54.96</course>
  <speed>0.01</speed>
  <fix>3d</fix>
</trkpt>
<trkpt lat="-27.2744386" lon="151.2900637">
  <ele>364.18</ele>
  <time>2026-09-01T19:56:39Z</time>
  <course>10.68</course>
  <speed>0.01414213562373095</speed>
  <fix>3d</fix>
</trkpt>
<trkpt lat="-27.2744385" lon="151.2900636">
  <ele>363.98</ele>
  <time>2026-09-01T19:56:39Z</time>
  <course>52.38</course>
  <speed>0.01</speed>
  <fix>3d</fix>
</trkpt>
<trkpt lat="-27.2744386" lon="151.2900637">
  <ele>364.18</ele>
  <time>2026-09-01T19:56:39Z</time>
  <course>10.68</course>
  <speed>0.01414213562373095</speed>
  <fix>3d</fix>
</trkpt>
<trkpt lat="-27.2744385" lon="151.2900636">
  <ele>363.98</ele>
  <time>2026-09-01T19:56:39Z</time>
  <course>52.38</course>
  <speed>0.01</speed>
  <fix>3d</fix>
</trkpt>
<trkpt lat="-27.2744386" lon="151.2900637">
  <ele>364.18</ele>
  <time>2026-09-01T19:56:39Z</time>
  <course>10.68</course>
  <speed>0.01414213562373095</speed>
  <fix>3d</fix>
</trkpt>
<trkpt lat="-27.2744385" lon="151.2900636">
  <ele>363.98</ele>
  <time>2026-09-01T19:56:39Z</time>
  <course>50.31</course>
  <speed>0.01</speed>
  <fix>3d</fix>
</trkpt>
<trkpt lat="-27.2744386" lon="151.2900637">
  <ele>364.18</ele>
  <time>2026-09-01T19:56:39Z</time>
  <course>10.68</course>
  <speed>0.01414213562373095</speed>
  <fix>3d</fix>
</trkpt>
<trkpt lat="-27.2744385" lon="151.2900636">
  <ele>363.98</ele>
  <time>2026-09-01T19:56:39Z</time>
  <course>50.31</course>
  <speed>0.01</speed>
  <fix>3d</fix>
</trkpt>
<trkpt lat="-27.2744386" lon="151.2900637">
  <ele>364.18</ele>
  <time>2026-09-01T19:56:39Z</time>
  <course>10.68</course>
  <speed>0.01414213562373095</speed>
  <fix>3d</fix>
</trkpt>
<trkpt lat="-27.2744385" lon="151.2900636">
  <ele>363.98</ele>
  <time>2026-09-01T19:56:39Z</time>
  <course>48.61</course>
  <speed>0.01</speed>
  <fix>3d</fix>
</trkpt>
<trkpt lat="-27.2744386" lon="151.2900637">
  <ele>364.18</ele>
  <time>2026-09-01T19:56:39Z</time>
  <course>10.68</course>
  <speed>0.01414213562373095</speed>
  <fix>3d</fix>
</trkpt>
<trkpt lat="-27.2744385" lon="151.2900636">
  <ele>363.98</ele>
  <time>2026-09-01T19:56:39Z</time>
  <course>48.61</course>
  <speed>0.01</speed>
  <fix>3d</fix>
</trkpt>
<trkpt lat="-27.2744386" lon="151.2900637">
  <ele>364.18</ele>
  <time>2026-09-01T19:56:39Z</time>
  <course>10.68</course>
  <speed>0.01414213562373095</speed>
  <fix>3d</fix>
</trkpt>
<trkpt lat="-27.2744384" lon="151.2900636">
  <ele>363.98</ele>
  <time>2026-09-01T19:56:39Z</time>
  <course>46.79</course>
  <speed>0.01</speed>
  <fix>3d</fix>
</trkpt>
<trkpt lat="-27.2744386" lon="151.2900637">
  <ele>364.18</ele>
  <time>2026-09-01T19:56:39Z</time>
  <course>10.68</course>
  <speed>0.01414213562373095</speed>
  <fix>3d</fix>
</trkpt>
<trkpt lat="-27.2744384" lon="151.2900636">
  <ele>363.98</ele>
  <time>2026-09-01T19:56:39Z</time>
  <course>46.79</course>
  <speed>0.01</speed>
  <fix>3d</fix>
</trkpt>
<trkpt lat="-27.2744386" lon="151.2900637">
  <ele>364.18</ele>
  <time>2026-09-01T19:56:39Z</time>
  <course>10.68</course>
  <speed>0.01414213562373095</speed>
  <fix>3d</fix>
</trkpt>
<trkpt lat="-27.2744384" lon="151.2900636">
  <ele>363.98</ele>
  <time>2026-09-01T19:56:39Z</time>
  <course>42.75</course>
  <speed>0.01</speed>
  <fix>3d</fix>
</trkpt>
<trkpt lat="-27.2744386" lon="151.2900637">
  <ele>364.18</ele>
  <time>2026-09-01T19:56:39Z</time>
  <course>10.68</course>
  <speed>0.01414213562373095</speed>
  <fix>3d</fix>
</trkpt>
<trkpt lat="-27.2744384" lon="151.2900636">
  <ele>363.98</ele>
  <time>2026-09-01T19:56:39Z</time>
  <course>42.75</course>
  <speed>0.01</speed>
  <fix>3d</fix>
</trkpt>
<trkpt lat="-27.2744386" lon="151.2900637">
  <ele>364.18</ele>
  <time>2026-09-01T19:56:39Z</time>
  <course>10.69</course>
  <speed>0.01414213562373095</speed>
  <fix>3d</fix>
</trkpt>
<trkpt lat="-27.2744384" lon="151.2900637">
  <ele>363.98</ele>
  <time>2026-09-01T19:56:39Z</time>
  <course>37.65</course>
  <speed>0.01</speed>
  <fix>3d</fix>
</trkpt>
<trkpt lat="-27.2744386" lon="151.2900637">
  <ele>364.18</ele>
  <time>2026-09-01T19:56:39Z</time>
  <course>10.69</course>
  <speed>0.01414213562373095</speed>
  <fix>3d</fix>
</trkpt>
<trkpt lat="-27.2744384" lon="151.2900637">
  <ele>363.98</ele>
  <time>2026-09-01T19:56:39Z</time>
  <course>37.65</course>
  <speed>0.01</speed>
  <fix>3d</fix>
</trkpt>
<trkpt lat="-27.2744386" lon="151.2900637">
  <ele>364.18</ele>
  <time>2026-09-01T19:56:39Z</time>
  <course>10.68</course>
  <speed>0.01414213562373095</speed>
  <fix>3d</fix>
</trkpt>
<trkpt lat="-27.2744384" lon="151.2900637">
  <ele>363.98</ele>
  <time>2026-09-01T19:56:39Z</time>
  <course>36.23</course>
  <speed>0.01</speed>
  <fix>3d</fix>
</trkpt>
<trkpt lat="-27.2744386" lon="151.2900637">
  <ele>364.18</ele>
  <time>2026-09-01T19:56:39Z</time>
  <course>10.68</course>
  <speed>0.01414213562373095</speed>
  <fix>3d</fix>
</trkpt>
<trkpt lat="-27.2744384" lon="151.2900637">
  <ele>363.98</ele>
  <time>2026-09-01T19:56:39Z</time>
  <course>36.23</course>
  <speed>0.01</speed>
  <fix>3d</fix>
</trkpt>
<trkpt lat="-27.2744386" lon="151.2900637">
  <ele>364.18</ele>
  <time>2026-09-01T19:56:39Z</time>
  <course>10.68</course>
  <speed>0.01414213562373095</speed>
  <fix>3d</fix>
</trkpt>
<trkpt lat="-27.2744384" lon="151.2900637">
  <ele>363.98</ele>
  <time>2026-09-01T19:56:39Z</time>
  <course>38.34</course>
  <speed>0.01</speed>
  <fix>3d</fix>
</trkpt>
<trkpt lat="-27.2744386" lon="151.2900637">
  <ele>364.17</ele>
  <time>2026-09-01T19:56:39Z</time>
  <course>10.68</course>
  <speed>0.01414213562373095</speed>
  <fix>3d</fix>
</trkpt>
<trkpt lat="-27.2744384" lon="151.2900637">
  <ele>363.98</ele>
  <time>2026-09-01T19:56:39Z</time>
  <course>38.34</course>
  <speed>0.01</speed>
  <fix>3d</fix>
</trkpt>
<trkpt lat="-27.2744386" lon="151.2900637">
  <ele>364.17</ele>
  <time>2026-09-01T19:56:39Z</time>
  <course>10.68</course>
  <speed>0.01414213562373095</speed>
  <fix>3d</fix>
</trkpt>
<trkpt lat="-27.2744384" lon="151.2900637">
  <ele>363.98</ele>
  <time>2026-09-01T19:56:39Z</time>
  <course>41.36</course>
  <speed>0.01</speed>
  <fix>3d</fix>
</trkpt>
<trkpt lat="-27.2744386" lon="151.2900637">
  <ele>364.17</ele>
  <time>2026-09-01T19:56:39Z</time>
  <course>10.69</course>
  <speed>0.01414213562373095</speed>
  <fix>3d</fix>
</trkpt>
<trkpt lat="-27.2744384" lon="151.2900637">
  <ele>363.98</ele>
  <time>2026-09-01T19:56:39Z</time>
  <course>41.36</course>
  <speed>0.01</speed>
  <fix>3d</fix>
</trkpt>
<trkpt lat="-27.2744386" lon="151.2900638">
  <ele>364.17</ele>
  <time>2026-09-01T19:56:39Z</time>
  <course>10.69</course>
  <speed>0.022360679774997897</speed>
  <fix>3d</fix>
</trkpt>
<trkpt lat="-27.2744384" lon="151.2900637">
  <ele>363.99</ele>
  <time>2026-09-01T19:56:39Z</time>
  <course>44.02</course>
  <speed>0.01</speed>
  <fix>3d</fix>
</trkpt>
<trkpt lat="-27.2744386" lon="151.2900638">
  <ele>364.17</ele>
  <time>2026-09-01T19:56:39Z</time>
  <course>10.69</course>
  <speed>0.022360679774997897</speed>
  <fix>3d</fix>
</trkpt>
<trkpt lat="-27.2744384" lon="151.2900637">
  <ele>363.99</ele>
  <time>2026-09-01T19:56:39Z</time>
  <course>44.02</course>
  <speed>0.01</speed>
  <fix>3d</fix>
</trkpt>
<trkpt lat="-27.2744386" lon="151.2900638">
  <ele>364.17</ele>
  <time>2026-09-01T19:56:39Z</time>
  <course>10.69</course>
  <speed>0.022360679774997897</speed>
  <fix>3d</fix>
</trkpt>
<trkpt lat="-27.2744383" lon="151.2900637">
  <ele>363.99</ele>
  <time>2026-09-01T19:56:39Z</time>
  <course>44.86</course>
  <speed>0.0</speed>
  <fix>3d</fix>
</trkpt>
<trkpt lat="-27.2744386" lon="151.2900638">
  <ele>364.17</ele>
  <time>2026-09-01T19:56:39Z</time>
  <course>10.68</course>
  <speed>0.022360679774997897</speed>
  <fix>3d</fix>
</trkpt>
<trkpt lat="-27.2744383" lon="151.2900637">
  <ele>363.99</ele>
  <time>2026-09-01T19:56:39Z</time>
  <course>44.86</course>
  <speed>0.0</speed>
  <fix>3d</fix>
</trkpt>
<trkpt lat="-27.2744386" lon="151.2900638">
  <ele>364.17</ele>
  <time>2026-09-01T19:56:39Z</time>
  <course>10.68</course>
  <speed>0.022360679774997897</speed>
  <fix>3d</fix>
</trkpt>
<trkpt lat="-27.2744383" lon="151.2900637">
  <ele>363.99</ele>
  <time>2026-09-01T19:56:39Z</time>
  <course>44.6</course>
  <speed>0.0</speed>
  <fix>3d</fix>
</trkpt>
<trkpt lat="-27.2744386" lon="151.2900638">
  <ele>364.17</ele>
  <time>2026-09-01T19:56:39Z</time>
  <course>10.68</course>
  <speed>0.022360679774997897</speed>
  <fix>3d</fix>
</trkpt>
<trkpt lat="-27.2744383" lon="151.2900637">
  <ele>363.99</ele>
  <time>2026-09-01T19:56:39Z</time>
  <course>44.6</course>
  <speed>0.0</speed>
  <fix>3d</fix>
</trkpt>
<trkpt lat="-27.2744386" lon="151.2900638">
  <ele>364.17</ele>
  <time>2026-09-01T19:56:39Z</time>
  <course>10.68</course>
  <speed>0.022360679774997897</speed>
  <fix>3d</fix>
</trkpt>
<trkpt lat="-27.2744383" lon="151.2900637">
  <ele>363.99</ele>
  <time>2026-09-01T19:56:39Z</time>
  <course>45.39</course>
  <speed>0.0</speed>
  <fix>3d</fix>
</trkpt>
<trkpt lat="-27.2744386" lon="151.2900638">
  <ele>364.18</ele>
  <time>2026-09-01T19:56:39Z</time>
  <course>10.69</course>
  <speed>0.022360679774997897</speed>
  <fix>3d</fix>
</trkpt>
<trkpt lat="-27.2744383" lon="151.2900637">
  <ele>363.99</ele>
  <time>2026-09-01T19:56:39Z</time>
  <course>45.39</course>
  <speed>0.0</speed>
  <fix>3d</fix>
</trkpt>
<trkpt lat="-27.2744386" lon="151.2900638">
  <ele>364.18</ele>
  <time>2026-09-01T19:56:39Z</time>
  <course>10.69</course>
  <speed>0.022360679774997897</speed>
  <fix>3d</fix>
</trkpt>
<trkpt lat="-27.2744383" lon="151.2900637">
  <ele>363.99</ele>
  <time>2026-09-01T19:56:39Z</time>
  <course>47.18</course>
  <speed>0.0</speed>
  <fix>3d</fix>
</trkpt>
<trkpt lat="-27.2744386" lon="151.2900638">
  <ele>364.18</ele>
  <time>2026-09-01T19:56:39Z</time>
  <course>10.69</course>
  <speed>0.022360679774997897</speed>
  <fix>3d</fix>
</trkpt>
<trkpt lat="-27.2744383" lon="151.2900637">
  <ele>363.99</ele>
  <time>2026-09-01T19:56:39Z</time>
  <course>47.18</course>
  <speed>0.0</speed>
  <fix>3d</fix>
</trkpt>
<trkpt lat="-27.2744386" lon="151.2900638">
  <ele>364.18</ele>
  <time>2026-09-01T19:56:39Z</time>
  <course>10.68</course>
  <speed>0.022360679774997897</speed>
  <fix>3d</fix>
</trkpt>
<trkpt lat="-27.2744383" lon="151.2900637">
  <ele>363.99</ele>
  <time>2026-09-01T19:56:39Z</time>
  <course>50.49</course>
  <speed>0.0</speed>
  <fix>3d</fix>
</trkpt>
<trkpt lat="-27.2744386" lon="151.2900638">
  <ele>364.18</ele>
  <time>2026-09-01T19:56:39Z</time>
  <course>10.68</course>
  <speed>0.022360679774997897</speed>
  <fix>3d</fix>
</trkpt>
<trkpt lat="-27.2744383" lon="151.2900637">
  <ele>363.99</ele>
  <time>2026-09-01T19:56:39Z</time>
  <course>50.49</course>
  <speed>0.0</speed>
  <fix>3d</fix>
</trkpt>
<trkpt lat="-27.2744386" lon="151.2900638">
  <ele>364.18</ele>
  <time>2026-09-01T19:56:39Z</time>
  <course>10.68</course>
  <speed>0.022360679774997897</speed>
  <fix>3d</fix>
</trkpt>
<trkpt lat="-27.2744383" lon="151.2900637">
  <ele>363.99</ele>
  <time>2026-09-01T19:56:39Z</time>
  <course>53.89</course>
  <speed>0.0</speed>
  <fix>3d</fix>
</trkpt>
<trkpt lat="-27.2744386" lon="151.2900638">
  <ele>364.18</ele>
  <time>2026-09-01T19:56:39Z</time>
  <course>10.69</course>
  <speed>0.022360679774997897</speed>
  <fix>3d</fix>
</trkpt>
<trkpt lat="-27.2744383" lon="151.2900637">
  <ele>363.99</ele>
  <time>2026-09-01T19:56:39Z</time>
  <course>53.89</course>
  <speed>0.0</speed>
  <fix>3d</fix>
</trkpt>
<trkpt lat="-27.2744386" lon="151.2900638">
  <ele>364.18</ele>
  <time>2026-09-01T19:56:39Z</time>
  <course>10.69</course>
  <speed>0.022360679774997897</speed>
  <fix>3d</fix>
</trkpt>
<trkpt lat="-27.2744383" lon="151.2900637">
  <ele>364.0</ele>
  <time>2026-09-01T19:56:39Z</time>
  <course>57.41</course>
  <speed>0.0</speed>
  <fix>3d</fix>
</trkpt>
<trkpt lat="-27.2744386" lon="151.2900638">
  <ele>364.18</ele>
  <time>2026-09-01T19:56:39Z</time>
  <course>10.69</course>
  <speed>0.022360679774997897</speed>
  <fix>3d</fix>
</trkpt>
<trkpt lat="-27.2744383" lon="151.2900637">
  <ele>364.0</ele>
  <time>2026-09-01T19:56:39Z</time>
  <course>57.41</course>
  <speed>0.0</speed>
  <fix>3d</fix>
</trkpt>
<trkpt lat="-27.2744386" lon="151.2900638">
  <ele>364.18</ele>
  <time>2026-09-01T19:56:39Z</time>
  <course>10.7</course>
  <speed>0.022360679774997897</speed>
  <fix>3d</fix>
</trkpt>
<trkpt lat="-27.2744383" lon="151.2900637">
  <ele>364.0</ele>
  <time>2026-09-01T19:56:39Z</time>
  <course>64.65</course>
  <speed>0.0</speed>
  <fix>3d</fix>
</trkpt>
<trkpt lat="-27.2744385" lon="151.2900638">
  <ele>364.18</ele>
  <time>2026-09-01T19:56:39Z</time>
  <course>10.7</course>
  <speed>0.022360679774997897</speed>
  <fix>3d</fix>
</trkpt>
<trkpt lat="-27.2744383" lon="151.2900637">
  <ele>364.0</ele>
  <time>2026-09-01T19:56:39Z</time>
  <course>64.65</course>
  <speed>0.0</speed>
  <fix>3d</fix>
</trkpt>
<trkpt lat="-27.2744385" lon="151.2900638">
  <ele>364.19</ele>
  <time>2026-09-01T19:56:39Z</time>
  <course>10.71</course>
  <speed>0.022360679774997897</speed>
  <fix>3d</fix>
</trkpt>
<trkpt lat="-27.2744383" lon="151.2900637">
  <ele>364.0</ele>
  <time>2026-09-01T19:56:39Z</time>
  <course>79.34</course>
  <speed>0.0</speed>
  <fix>3d</fix>
</trkpt>
<trkpt lat="-27.2744385" lon="151.2900638">
  <ele>364.19</ele>
  <time>2026-09-01T19:56:39Z</time>
  <course>10.71</course>
  <speed>0.022360679774997897</speed>
  <fix>3d</fix>
</trkpt>
<trkpt lat="-27.2744383" lon="151.2900637">
  <ele>364.0</ele>
  <time>2026-09-01T19:56:39Z</time>
  <course>79.34</course>
  <speed>0.0</speed>
  <fix>3d</fix>
</trkpt>
<trkpt lat="-27.2744385" lon="151.2900638">
  <ele>364.19</ele>
  <time>2026-09-01T19:56:40Z</time>
  <course>10.71</course>
  <speed>0.022360679774997897</speed>
  <fix>3d</fix>
</trkpt>
<trkpt lat="-27.2744383" lon="151.2900637">
  <ele>364.0</ele>
  <time>2026-09-01T19:56:40Z</time>
  <course>109.42</course>
  <speed>0.0</speed>
  <fix>3d</fix>
</trkpt>
<trkpt lat="-27.2744385" lon="151.2900638">
  <ele>364.19</ele>
  <time>2026-09-01T19:56:40Z</time>
  <course>10.7</course>
  <speed>0.022360679774997897</speed>
  <fix>3d</fix>
</trkpt>
<trkpt lat="-27.2744383" lon="151.2900637">
  <ele>364.0</ele>
  <time>2026-09-01T19:56:40Z</time>
  <course>109.42</course>
  <speed>0.0</speed>
  <fix>3d</fix>
</trkpt>
<trkpt lat="-27.2744385" lon="151.2900638">
  <ele>364.19</ele>
  <time>2026-09-01T19:56:40Z</time>
  <course>10.69</course>
  <speed>0.022360679774997897</speed>
  <fix>3d</fix>
</trkpt>
<trkpt lat="-27.2744383" lon="151.2900637">
  <ele>363.99</ele>
  <time>2026-09-01T19:56:40Z</time>
  <course>144.41</course>
  <speed>0.0</speed>
  <fix>3d</fix>
</trkpt>
<trkpt lat="-27.2744385" lon="151.2900638">
  <ele>364.18</ele>
  <time>2026-09-01T19:56:40Z</time>
  <course>10.68</course>
  <speed>0.02</speed>
  <fix>3d</fix>
</trkpt>
<trkpt lat="-27.2744383" lon="151.2900637">
  <ele>363.99</ele>
  <time>2026-09-01T19:56:40Z</time>
  <course>144.41</course>
  <speed>0.0</speed>
  <fix>3d</fix>
</trkpt>
<trkpt lat="-27.2744385" lon="151.2900638">
  <ele>364.18</ele>
  <time>2026-09-01T19:56:40Z</time>
  <course>10.68</course>
  <speed>0.03</speed>
  <fix>3d</fix>
</trkpt>
<trkpt lat="-27.2744383" lon="151.2900637">
  <ele>363.99</ele>
  <time>2026-09-01T19:56:40Z</time>
  <course>164.04</course>
  <speed>0.0</speed>
  <fix>3d</fix>
</trkpt>
<trkpt lat="-27.2744385" lon="151.2900638">
  <ele>364.18</ele>
  <time>2026-09-01T19:56:40Z</time>
  <course>10.68</course>
  <speed>0.03</speed>
  <fix>3d</fix>
</trkpt>
<trkpt lat="-27.2744383" lon="151.2900637">
  <ele>363.99</ele>
  <time>2026-09-01T19:56:40Z</time>
  <course>164.04</course>
  <speed>0.0</speed>
  <fix>3d</fix>
</trkpt>
<trkpt lat="-27.2744385" lon="151.2900638">
  <ele>364.18</ele>
  <time>2026-09-01T19:56:40Z</time>
  <course>10.69</course>
  <speed>0.03</speed>
  <fix>3d</fix>
</trkpt>
<trkpt lat="-27.2744383" lon="151.2900637">
  <ele>363.99</ele>
  <time>2026-09-01T19:56:40Z</time>
  <course>172.61</course>
  <speed>0.0</speed>
  <fix>3d</fix>
</trkpt>
<trkpt lat="-27.2744385" lon="151.2900638">
  <ele>364.18</ele>
  <time>2026-09-01T19:56:40Z</time>
  <course>10.69</course>
  <speed>0.03</speed>
  <fix>3d</fix>
</trkpt>
<trkpt lat="-27.2744383" lon="151.2900637">
  <ele>363.99</ele>
  <time>2026-09-01T19:56:40Z</time>
  <course>172.61</course>
  <speed>0.0</speed>
  <fix>3d</fix>
</trkpt>
<trkpt lat="-27.2744385" lon="151.2900638">
  <ele>364.18</ele>
  <time>2026-09-01T19:56:40Z</time>
  <course>10.7</course>
  <speed>0.03</speed>
  <fix>3d</fix>
</trkpt>
<trkpt lat="-27.2744383" lon="151.2900637">
  <ele>363.99</ele>
  <time>2026-09-01T19:56:40Z</time>
  <course>176.83</course>
  <speed>0.0</speed>
  <fix>3d</fix>
</trkpt>
<trkpt lat="-27.2744385" lon="151.2900638">
  <ele>364.18</ele>
  <time>2026-09-01T19:56:40Z</time>
  <course>10.71</course>
  <speed>0.03</speed>
  <fix>3d</fix>
</trkpt>
<trkpt lat="-27.2744383" lon="151.2900637">
  <ele>363.99</ele>
  <time>2026-09-01T19:56:40Z</time>
  <course>176.83</course>
  <speed>0.0</speed>
  <fix>3d</fix>
</trkpt>
<trkpt lat="-27.2744385" lon="151.2900638">
  <ele>364.18</ele>
  <time>2026-09-01T19:56:40Z</time>
  <course>10.71</course>
  <speed>0.03</speed>
  <fix>3d</fix>
</trkpt>
<trkpt lat="-27.2744383" lon="151.2900637">
  <ele>363.99</ele>
  <time>2026-09-01T19:56:40Z</time>
  <course>180.19</course>
  <speed>0.0</speed>
  <fix>3d</fix>
</trkpt>
<trkpt lat="-27.2744385" lon="151.2900638">
  <ele>364.17</ele>
  <time>2026-09-01T19:56:40Z</time>
  <course>10.7</course>
  <speed>0.03</speed>
  <fix>3d</fix>
</trkpt>
<trkpt lat="-27.2744383" lon="151.2900637">
  <ele>363.99</ele>
  <time>2026-09-01T19:56:40Z</time>
  <course>180.19</course>
  <speed>0.0</speed>
  <fix>3d</fix>
</trkpt>
<trkpt lat="-27.2744385" lon="151.2900638">
  <ele>364.17</ele>
  <time>2026-09-01T19:56:40Z</time>
  <course>10.7</course>
  <speed>0.03</speed>
  <fix>3d</fix>
</trkpt>
<trkpt lat="-27.2744383" lon="151.2900637">
  <ele>363.99</ele>
  <time>2026-09-01T19:56:40Z</time>
  <course>183.73</course>
  <speed>0.0</speed>
  <fix>3d</fix>
</trkpt>
<trkpt lat="-27.2744385" lon="151.2900638">
  <ele>364.18</ele>
  <time>2026-09-01T19:56:40Z</time>
  <course>10.69</course>
  <speed>0.03</speed>
  <fix>3d</fix>
</trkpt>
<trkpt lat="-27.2744383" lon="151.2900637">
  <ele>363.99</ele>
  <time>2026-09-01T19:56:40Z</time>
  <course>183.73</course>
  <speed>0.0</speed>
  <fix>3d</fix>
</trkpt>
<trkpt lat="-27.2744385" lon="151.2900638">
  <ele>364.18</ele>
  <time>2026-09-01T19:56:40Z</time>
  <course>10.69</course>
  <speed>0.03</speed>
  <fix>3d</fix>
</trkpt>
<trkpt lat="-27.2744383" lon="151.2900637">
  <ele>363.99</ele>
  <time>2026-09-01T19:56:40Z</time>
  <course>188.32</course>
  <speed>0.0</speed>
  <fix>3d</fix>
</trkpt>
<trkpt lat="-27.2744385" lon="151.2900638">
  <ele>364.18</ele>
  <time>2026-09-01T19:56:40Z</time>
  <course>10.68</course>
  <speed>0.03</speed>
  <fix>3d</fix>
</trkpt>
<trkpt lat="-27.2744383" lon="151.2900637">
  <ele>363.99</ele>
  <time>2026-09-01T19:56:40Z</time>
  <course>188.32</course>
  <speed>0.0</speed>
  <fix>3d</fix>
</trkpt>
<trkpt lat="-27.2744385" lon="151.2900638">
  <ele>364.18</ele>
  <time>2026-09-01T19:56:40Z</time>
  <course>10.68</course>
  <speed>0.02</speed>
  <fix>3d</fix>
</trkpt>
<trkpt lat="-27.2744383" lon="151.2900637">
  <ele>363.99</ele>
  <time>2026-09-01T19:56:40Z</time>
  <course>192.26</course>
  <speed>0.0</speed>
  <fix>3d</fix>
</trkpt>
<trkpt lat="-27.2744385" lon="151.2900638">
  <ele>364.18</ele>
  <time>2026-09-01T19:56:40Z</time>
  <course>10.69</course>
  <speed>0.02</speed>
  <fix>3d</fix>
</trkpt>
<trkpt lat="-27.2744383" lon="151.2900637">
  <ele>363.99</ele>
  <time>2026-09-01T19:56:40Z</time>
  <course>192.26</course>
  <speed>0.0</speed>
  <fix>3d</fix>
</trkpt>
<trkpt lat="-27.2744385" lon="151.2900638">
  <ele>364.18</ele>
  <time>2026-09-01T19:56:40Z</time>
  <course>10.69</course>
  <speed>0.02</speed>
  <fix>3d</fix>
</trkpt>
<trkpt lat="-27.2744383" lon="151.2900637">
  <ele>363.99</ele>
  <time>2026-09-01T19:56:40Z</time>
  <course>191.63</course>
  <speed>0.0</speed>
  <fix>3d</fix>
</trkpt>
<trkpt lat="-27.2744385" lon="151.2900638">
  <ele>364.18</ele>
  <time>2026-09-01T19:56:40Z</time>
  <course>10.69</course>
  <speed>0.02</speed>
  <fix>3d</fix>
</trkpt>
<trkpt lat="-27.2744383" lon="151.2900637">
  <ele>363.99</ele>
  <time>2026-09-01T19:56:40Z</time>
  <course>191.63</course>
  <speed>0.0</speed>
  <fix>3d</fix>
</trkpt>
<trkpt lat="-27.2744385" lon="151.2900638">
  <ele>364.18</ele>
  <time>2026-09-01T19:56:40Z</time>
  <course>10.69</course>
  <speed>0.022360679774997897</speed>
  <fix>3d</fix>
</trkpt>
<trkpt lat="-27.2744383" lon="151.2900637">
  <ele>363.99</ele>
  <time>2026-09-01T19:56:40Z</time>
  <course>183.6</course>
  <speed>0.0</speed>
  <fix>3d</fix>
</trkpt>
<trkpt lat="-27.2744385" lon="151.2900638">
  <ele>364.18</ele>
  <time>2026-09-01T19:56:40Z</time>
  <course>10.69</course>
  <speed>0.022360679774997897</speed>
  <fix>3d</fix>
</trkpt>
<trkpt lat="-27.2744383" lon="151.2900637">
  <ele>363.99</ele>
  <time>2026-09-01T19:56:40Z</time>
  <course>183.6</course>
  <speed>0.0</speed>
  <fix>3d</fix>
</trkpt>
<trkpt lat="-27.2744385" lon="151.2900638">
  <ele>364.18</ele>
  <time>2026-09-01T19:56:40Z</time>
  <course>10.69</course>
  <speed>0.022360679774997897</speed>
  <fix>3d</fix>
</trkpt>
<trkpt lat="-27.2744383" lon="151.2900637">
  <ele>364.0</ele>
  <time>2026-09-01T19:56:40Z</time>
  <course>170.79</course>
  <speed>0.0</speed>
  <fix>3d</fix>
</trkpt>
<trkpt lat="-27.2744385" lon="151.2900638">
  <ele>364.18</ele>
  <time>2026-09-01T19:56:40Z</time>
  <course>10.69</course>
  <speed>0.022360679774997897</speed>
  <fix>3d</fix>
</trkpt>
<trkpt lat="-27.2744383" lon="151.2900637">
  <ele>364.0</ele>
  <time>2026-09-01T19:56:40Z</time>
  <course>170.79</course>
  <speed>0.0</speed>
  <fix>3d</fix>
</trkpt>
<trkpt lat="-27.2744385" lon="151.2900638">
  <ele>364.18</ele>
  <time>2026-09-01T19:56:40Z</time>
  <course>10.69</course>
  <speed>0.022360679774997897</speed>
  <fix>3d</fix>
</trkpt>
<trkpt lat="-27.2744383" lon="151.2900637">
  <ele>364.0</ele>
  <time>2026-09-01T19:56:40Z</time>
  <course>162.22</course>
  <speed>0.0</speed>
  <fix>3d</fix>
</trkpt>
<trkpt lat="-27.2744385" lon="151.2900638">
  <ele>364.18</ele>
  <time>2026-09-01T19:56:40Z</time>
  <course>10.69</course>
  <speed>0.022360679774997897</speed>
  <fix>3d</fix>
</trkpt>
<trkpt lat="-27.2744383" lon="151.2900637">
  <ele>364.0</ele>
  <time>2026-09-01T19:56:40Z</time>
  <course>162.22</course>
  <speed>0.0</speed>
  <fix>3d</fix>
</trkpt>
<trkpt lat="-27.2744385" lon="151.2900638">
  <ele>364.18</ele>
  <time>2026-09-01T19:56:40Z</time>
  <course>10.69</course>
  <speed>0.022360679774997897</speed>
  <fix>3d</fix>
</trkpt>
<trkpt lat="-27.2744383" lon="151.2900637">
  <ele>364.0</ele>
  <time>2026-09-01T19:56:40Z</time>
  <course>160.35</course>
  <speed>0.0</speed>
  <fix>3d</fix>
</trkpt>
<trkpt lat="-27.2744385" lon="151.2900638">
  <ele>364.18</ele>
  <time>2026-09-01T19:56:40Z</time>
  <course>10.69</course>
  <speed>0.022360679774997897</speed>
  <fix>3d</fix>
</trkpt>
<trkpt lat="-27.2744383" lon="151.2900637">
  <ele>364.0</ele>
  <time>2026-09-01T19:56:40Z</time>
  <course>160.35</course>
  <speed>0.0</speed>
  <fix>3d</fix>
</trkpt>
<trkpt lat="-27.2744385" lon="151.2900638">
  <ele>364.19</ele>
  <time>2026-09-01T19:56:40Z</time>
  <course>10.69</course>
  <speed>0.022360679774997897</speed>
  <fix>3d</fix>
</trkpt>
<trkpt lat="-27.2744383" lon="151.2900637">
  <ele>363.99</ele>
  <time>2026-09-01T19:56:40Z</time>
  <course>164.14</course>
  <speed>0.0</speed>
  <fix>3d</fix>
</trkpt>
<trkpt lat="-27.2744385" lon="151.2900638">
  <ele>364.19</ele>
  <time>2026-09-01T19:56:40Z</time>
  <course>10.69</course>
  <speed>0.022360679774997897</speed>
  <fix>3d</fix>
</trkpt>
<trkpt lat="-27.2744383" lon="151.2900637">
  <ele>363.99</ele>
  <time>2026-09-01T19:56:40Z</time>
  <course>164.14</course>
  <speed>0.0</speed>
  <fix>3d</fix>
</trkpt>
<trkpt lat="-27.2744385" lon="151.2900638">
  <ele>364.19</ele>
  <time>2026-09-01T19:56:40Z</time>
  <course>10.68</course>
  <speed>0.022360679774997897</speed>
  <fix>3d</fix>
</trkpt>
<trkpt lat="-27.2744384" lon="151.2900638">
  <ele>363.99</ele>
  <time>2026-09-01T19:56:40Z</time>
  <course>173.06</course>
  <speed>0.0</speed>
  <fix>3d</fix>
</trkpt>
<trkpt lat="-27.2744385" lon="151.2900638">
  <ele>364.19</ele>
  <time>2026-09-01T19:56:40Z</time>
  <course>10.68</course>
  <speed>0.022360679774997897</speed>
  <fix>3d</fix>
</trkpt>
<trkpt lat="-27.2744384" lon="151.2900638">
  <ele>363.99</ele>
  <time>2026-09-01T19:56:40Z</time>
  <course>173.06</course>
  <speed>0.0</speed>
  <fix>3d</fix>
</trkpt>
<trkpt lat="-27.2744385" lon="151.2900638">
  <ele>364.19</ele>
  <time>2026-09-01T19:56:40Z</time>
  <course>10.67</course>
  <speed>0.022360679774997897</speed>
  <fix>3d</fix>
</trkpt>
<trkpt lat="-27.2744384" lon="151.2900638">
  <ele>363.99</ele>
  <time>2026-09-01T19:56:40Z</time>
  <course>183.41</course>
  <speed>0.0</speed>
  <fix>3d</fix>
</trkpt>
<trkpt lat="-27.2744385" lon="151.2900638">
  <ele>364.19</ele>
  <time>2026-09-01T19:56:40Z</time>
  <course>10.68</course>
  <speed>0.022360679774997897</speed>
  <fix>3d</fix>
</trkpt>
<trkpt lat="-27.2744384" lon="151.2900638">
  <ele>363.99</ele>
  <time>2026-09-01T19:56:40Z</time>
  <course>183.41</course>
  <speed>0.0</speed>
  <fix>3d</fix>
</trkpt>
<trkpt lat="-27.2744385" lon="151.2900638">
  <ele>364.19</ele>
  <time>2026-09-01T19:56:40Z</time>
  <course>10.68</course>
  <speed>0.022360679774997897</speed>
  <fix>3d</fix>
</trkpt>
<trkpt lat="-27.2744384" lon="151.2900637">
  <ele>363.99</ele>
  <time>2026-09-01T19:56:40Z</time>
  <course>190.03</course>
  <speed>0.0</speed>
  <fix>3d</fix>
</trkpt>
<trkpt lat="-27.2744385" lon="151.2900638">
  <ele>364.19</ele>
  <time>2026-09-01T19:56:40Z</time>
  <course>10.69</course>
  <speed>0.022360679774997897</speed>
  <fix>3d</fix>
</trkpt>
<trkpt lat="-27.2744384" lon="151.2900637">
  <ele>363.99</ele>
  <time>2026-09-01T19:56:40Z</time>
  <course>190.03</course>
  <speed>0.0</speed>
  <fix>3d</fix>
</trkpt>
<trkpt lat="-27.2744386" lon="151.2900638">
  <ele>364.19</ele>
  <time>2026-09-01T19:56:40Z</time>
  <course>10.69</course>
  <speed>0.022360679774997897</speed>
  <fix>3d</fix>
</trkpt>
<trkpt lat="-27.2744384" lon="151.2900637">
  <ele>363.99</ele>
  <time>2026-09-01T19:56:40Z</time>
  <course>192.65</course>
  <speed>0.0</speed>
  <fix>3d</fix>
</trkpt>
<trkpt lat="-27.2744386" lon="151.2900638">
  <ele>364.19</ele>
  <time>2026-09-01T19:56:40Z</time>
  <course>10.69</course>
  <speed>0.022360679774997897</speed>
  <fix>3d</fix>
</trkpt>
<trkpt lat="-27.2744384" lon="151.2900637">
  <ele>363.99</ele>
  <time>2026-09-01T19:56:40Z</time>
  <course>192.65</course>
  <speed>0.0</speed>
  <fix>3d</fix>
</trkpt>
<trkpt lat="-27.2744386" lon="151.2900638">
  <ele>364.19</ele>
  <time>2026-09-01T19:56:40Z</time>
  <course>10.69</course>
  <speed>0.022360679774997897</speed>
  <fix>3d</fix>
</trkpt>
<trkpt lat="-27.2744384" lon="151.2900637">
  <ele>363.99</ele>
  <time>2026-09-01T19:56:40Z</time>
  <course>194.16</course>
  <speed>0.0</speed>
  <fix>3d</fix>
</trkpt>
<trkpt lat="-27.2744386" lon="151.2900638">
  <ele>364.19</ele>
  <time>2026-09-01T19:56:40Z</time>
  <course>10.68</course>
  <speed>0.022360679774997897</speed>
  <fix>3d</fix>
</trkpt>
<trkpt lat="-27.2744384" lon="151.2900637">
  <ele>363.99</ele>
  <time>2026-09-01T19:56:40Z</time>
  <course>194.16</course>
  <speed>0.0</speed>
  <fix>3d</fix>
</trkpt>
<trkpt lat="-27.2744386" lon="151.2900638">
  <ele>364.19</ele>
  <time>2026-09-01T19:56:40Z</time>
  <course>10.68</course>
  <speed>0.022360679774997897</speed>
  <fix>3d</fix>
</trkpt>
<trkpt lat="-27.2744384" lon="151.2900637">
  <ele>363.98</ele>
  <time>2026-09-01T19:56:40Z</time>
  <course>195.39</course>
  <speed>0.0</speed>
  <fix>3d</fix>
</trkpt>
<trkpt lat="-27.2744386" lon="151.2900638">
  <ele>364.19</ele>
  <time>2026-09-01T19:56:40Z</time>
  <course>10.68</course>
  <speed>0.022360679774997897</speed>
  <fix>3d</fix>
</trkpt>
<trkpt lat="-27.2744384" lon="151.2900637">
  <ele>363.98</ele>
  <time>2026-09-01T19:56:40Z</time>
  <course>195.39</course>
  <speed>0.0</speed>
  <fix>3d</fix>
</trkpt>
<trkpt lat="-27.2744386" lon="151.2900638">
  <ele>364.19</ele>
  <time>2026-09-01T19:56:40Z</time>
  <course>10.67</course>
  <speed>0.022360679774997897</speed>
  <fix>3d</fix>
</trkpt>
<trkpt lat="-27.2744384" lon="151.2900637">
  <ele>363.98</ele>
  <time>2026-09-01T19:56:40Z</time>
  <course>196.99</course>
  <speed>0.0</speed>
  <fix>3d</fix>
</trkpt>
<trkpt lat="-27.2744386" lon="151.2900638">
  <ele>364.19</ele>
  <time>2026-09-01T19:56:40Z</time>
  <course>10.67</course>
  <speed>0.022360679774997897</speed>
  <fix>3d</fix>
</trkpt>
<trkpt lat="-27.2744384" lon="151.2900637">
  <ele>363.98</ele>
  <time>2026-09-01T19:56:40Z</time>
  <course>196.99</course>
  <speed>0.0</speed>
  <fix>3d</fix>
</trkpt>
<trkpt lat="-27.2744386" lon="151.2900638">
  <ele>364.19</ele>
  <time>2026-09-01T19:56:40Z</time>
  <course>10.68</course>
  <speed>0.022360679774997897</speed>
  <fix>3d</fix>
</trkpt>
<trkpt lat="-27.2744385" lon="151.2900637">
  <ele>363.98</ele>
  <time>2026-09-01T19:56:40Z</time>
  <course>201.7</course>
  <speed>0.0</speed>
  <fix>3d</fix>
</trkpt>
<trkpt lat="-27.2744386" lon="151.2900638">
  <ele>364.19</ele>
  <time>2026-09-01T19:56:40Z</time>
  <course>10.68</course>
  <speed>0.022360679774997897</speed>
  <fix>3d</fix>
</trkpt>
<trkpt lat="-27.2744385" lon="151.2900637">
  <ele>363.98</ele>
  <time>2026-09-01T19:56:40Z</time>
  <course>201.7</course>
  <speed>0.0</speed>
  <fix>3d</fix>
</trkpt>
<trkpt lat="-27.2744386" lon="151.2900638">
  <ele>364.19</ele>
  <time>2026-09-01T19:56:40Z</time>
  <course>10.68</course>
  <speed>0.022360679774997897</speed>
  <fix>3d</fix>
</trkpt>
<trkpt lat="-27.2744385" lon="151.2900637">
  <ele>363.97</ele>
  <time>2026-09-01T19:56:40Z</time>
  <course>210.63</course>
  <speed>0.0</speed>
  <fix>3d</fix>
</trkpt>
<trkpt lat="-27.2744386" lon="151.2900638">
  <ele>364.19</ele>
  <time>2026-09-01T19:56:40Z</time>
  <course>10.69</course>
  <speed>0.02</speed>
  <fix>3d</fix>
</trkpt>
<trkpt lat="-27.2744385" lon="151.2900637">
  <ele>363.97</ele>
  <time>2026-09-01T19:56:40Z</time>
  <course>210.63</course>
  <speed>0.0</speed>
  <fix>3d</fix>
</trkpt>
<trkpt lat="-27.2744386" lon="151.2900638">
  <ele>364.18</ele>
  <time>2026-09-01T19:56:40Z</time>
  <course>10.68</course>
  <speed>0.02</speed>
  <fix>3d</fix>
</trkpt>
<trkpt lat="-27.2744385" lon="151.2900637">
  <ele>363.96</ele>
  <time>2026-09-01T19:56:40Z</time>
  <course>223.96</course>
  <speed>0.0</speed>
  <fix>3d</fix>
</trkpt>
<trkpt lat="-27.2744386" lon="151.2900638">
  <ele>364.17</ele>
  <time>2026-09-01T19:56:40Z</time>
  <course>10.68</course>
  <speed>0.02</speed>
  <fix>3d</fix>
</trkpt>
<trkpt lat="-27.2744385" lon="151.2900637">
  <ele>363.96</ele>
  <time>2026-09-01T19:56:40Z</time>
  <course>223.96</course>
  <speed>0.0</speed>
  <fix>3d</fix>
</trkpt>
<trkpt lat="-27.2744386" lon="151.2900638">
  <ele>364.14</ele>
  <time>2026-09-01T19:56:40Z</time>
  <course>10.67</course>
  <speed>0.02</speed>
  <fix>3d</fix>
</trkpt>
<trkpt lat="-27.2744385" lon="151.2900637">
  <ele>363.94</ele>
  <time>2026-09-01T19:56:40Z</time>
  <course>241.35</course>
  <speed>0.0</speed>
  <fix>3d</fix>
</trkpt>
<trkpt lat="-27.2744386" lon="151.2900638">
  <ele>364.1</ele>
  <time>2026-09-01T19:56:40Z</time>
  <course>10.66</course>
  <speed>0.02</speed>
  <fix>3d</fix>
</trkpt>
<trkpt lat="-27.2744385" lon="151.2900637">
  <ele>363.94</ele>
  <time>2026-09-01T19:56:40Z</time>
  <course>241.35</course>
  <speed>0.0</speed>
  <fix>3d</fix>
</trkpt>
<trkpt lat="-27.2744386" lon="151.2900638">
  <ele>364.04</ele>
  <time>2026-09-01T19:56:40Z</time>
  <course>10.62</course>
  <speed>0.022360679774997897</speed>
  <fix>3d</fix>
</trkpt>
<trkpt lat="-27.2744385" lon="151.2900637">
  <ele>363.88</ele>
  <time>2026-09-01T19:56:40Z</time>
  <course>263.59</course>
  <speed>0.0</speed>
  <fix>3d</fix>
</trkpt>
<trkpt lat="-27.2744386" lon="151.2900638">
  <ele>363.97</ele>
  <time>2026-09-01T19:56:40Z</time>
  <course>10.58</course>
  <speed>0.01414213562373095</speed>
  <fix>3d</fix>
</trkpt>
<trkpt lat="-27.2744385" lon="151.2900637">
  <ele>363.88</ele>
  <time>2026-09-01T19:56:40Z</time>
  <course>263.59</course>
  <speed>0.0</speed>
  <fix>3d</fix>
</trkpt>
<trkpt lat="-27.2744386" lon="151.2900638">
  <ele>363.88</ele>
  <time>2026-09-01T19:56:40Z</time>
  <course>10.56</course>
  <speed>0.01414213562373095</speed>
  <fix>3d</fix>
</trkpt>
<trkpt lat="-27.2744385" lon="151.2900637">
  <ele>363.75</ele>
  <time>2026-09-01T19:56:40Z</time>
  <course>336.6</course>
  <speed>0.0</speed>
  <fix>3d</fix>
</trkpt>
<trkpt lat="-27.2744386" lon="151.2900638">
  <ele>363.77</ele>
  <time>2026-09-01T19:56:40Z</time>
  <course>10.57</course>
  <speed>0.01414213562373095</speed>
  <fix>3d</fix>
</trkpt>
<trkpt lat="-27.2744385" lon="151.2900637">
  <ele>363.75</ele>
  <time>2026-09-01T19:56:40Z</time>
  <course>336.6</course>
  <speed>0.0</speed>
  <fix>3d</fix>
</trkpt>
<trkpt lat="-27.2744386" lon="151.2900638">
  <ele>363.65</ele>
  <time>2026-09-01T19:56:40Z</time>
  <course>10.59</course>
  <speed>0.01</speed>
  <fix>3d</fix>
</trkpt>
<trkpt lat="-27.2744385" lon="151.2900637">
  <ele>363.56</ele>
  <time>2026-09-01T19:56:40Z</time>
  <course>3.95</course>
  <speed>0.01</speed>
  <fix>3d</fix>
</trkpt>
<trkpt lat="-27.2744386" lon="151.2900638">
  <ele>363.51</ele>
  <time>2026-09-01T19:56:40Z</time>
  <course>10.62</course>
  <speed>0.01</speed>
  <fix>3d</fix>
</trkpt>
<trkpt lat="-27.2744385" lon="151.2900637">
  <ele>363.56</ele>
  <time>2026-09-01T19:56:40Z</time>
  <course>3.95</course>
  <speed>0.01</speed>
  <fix>3d</fix>
</trkpt>
<trkpt lat="-27.2744386" lon="151.2900638">
  <ele>363.36</ele>
  <time>2026-09-01T19:56:40Z</time>
  <course>10.63</course>
  <speed>0.02</speed>
  <fix>3d</fix>
</trkpt>
<trkpt lat="-27.2744385" lon="151.2900637">
  <ele>363.31</ele>
  <time>2026-09-01T19:56:40Z</time>
  <course>6.18</course>
  <speed>0.02</speed>
  <fix>3d</fix>
</trkpt>
<trkpt lat="-27.2744386" lon="151.2900638">
  <ele>363.21</ele>
  <time>2026-09-01T19:56:40Z</time>
  <course>10.63</course>
  <speed>0.02</speed>
  <fix>3d</fix>
</trkpt>
<trkpt lat="-27.2744385" lon="151.2900637">
  <ele>363.31</ele>
  <time>2026-09-01T19:56:40Z</time>
  <course>6.18</course>
  <speed>0.02</speed>
  <fix>3d</fix>
</trkpt>
<trkpt lat="-27.2744386" lon="151.2900638">
  <ele>363.05</ele>
  <time>2026-09-01T19:56:40Z</time>
  <course>10.63</course>
  <speed>0.022360679774997897</speed>
  <fix>3d</fix>
</trkpt>
<trkpt lat="-27.2744385" lon="151.2900637">
  <ele>363.01</ele>
  <time>2026-09-01T19:56:40Z</time>
  <course>6.41</course>
  <speed>0.03</speed>
  <fix>3d</fix>
</trkpt>
<trkpt lat="-27.2744386" lon="151.2900638">
  <ele>362.89</ele>
  <time>2026-09-01T19:56:40Z</time>
  <course>10.63</course>
  <speed>0.0282842712474619</speed>
  <fix>3d</fix>
</trkpt>
<trkpt lat="-27.2744385" lon="151.2900637">
  <ele>363.01</ele>
  <time>2026-09-01T19:56:40Z</time>
  <course>6.41</course>
  <speed>0.03</speed>
  <fix>3d</fix>
</trkpt>
<trkpt lat="-27.2744386" lon="151.2900638">
  <ele>362.72</ele>
  <time>2026-09-01T19:56:40Z</time>
  <course>10.62</course>
  <speed>0.0282842712474619</speed>
  <fix>3d</fix>
</trkpt>
<trkpt lat="-27.2744384" lon="151.2900637">
  <ele>362.69</ele>
  <time>2026-09-01T19:56:40Z</time>
  <course>6.25</course>
  <speed>0.04</speed>
  <fix>3d</fix>
</trkpt>
<trkpt lat="-27.2744385" lon="151.2900638">
  <ele>362.55</ele>
  <time>2026-09-01T19:56:40Z</time>
  <course>10.62</course>
  <speed>0.0282842712474619</speed>
  <fix>3d</fix>
</trkpt>
<trkpt lat="-27.2744384" lon="151.2900637">
  <ele>362.69</ele>
  <time>2026-09-01T19:56:40Z</time>
  <course>6.25</course>
  <speed>0.04</speed>
  <fix>3d</fix>
</trkpt>
<trkpt lat="-27.2744385" lon="151.2900638">
  <ele>362.39</ele>
  <time>2026-09-01T19:56:40Z</time>
  <course>10.62</course>
  <speed>0.03605551275463989</speed>
  <fix>3d</fix>
</trkpt>
<trkpt lat="-27.2744383" lon="151.2900637">
  <ele>362.37</ele>
  <time>2026-09-01T19:56:40Z</time>
  <course>5.91</course>
  <speed>0.05</speed>
  <fix>3d</fix>
</trkpt>
<trkpt lat="-27.2744384" lon="151.2900638">
  <ele>362.23</ele>
  <time>2026-09-01T19:56:40Z</time>
  <course>10.62</course>
  <speed>0.03605551275463989</speed>
  <fix>3d</fix>
</trkpt>
<trkpt lat="-27.2744383" lon="151.2900637">
  <ele>362.37</ele>
  <time>2026-09-01T19:56:40Z</time>
  <course>5.91</course>
  <speed>0.05</speed>
  <fix>3d</fix>
</trkpt>
<trkpt lat="-27.2744384" lon="151.2900638">
  <ele>362.07</ele>
  <time>2026-09-01T19:56:40Z</time>
  <course>10.63</course>
  <speed>0.03605551275463989</speed>
  <fix>3d</fix>
</trkpt>
<trkpt lat="-27.2744382" lon="151.2900637">
  <ele>362.05</ele>
  <time>2026-09-01T19:56:40Z</time>
  <course>5.48</course>
  <speed>0.06</speed>
  <fix>3d</fix>
</trkpt>
<trkpt lat="-27.2744383" lon="151.2900638">
  <ele>361.91</ele>
  <time>2026-09-01T19:56:40Z</time>
  <course>10.63</course>
  <speed>0.03605551275463989</speed>
  <fix>3d</fix>
</trkpt>
<trkpt lat="-27.2744382" lon="151.2900637">
  <ele>362.05</ele>
  <time>2026-09-01T19:56:40Z</time>
  <course>5.48</course>
  <speed>0.06</speed>
  <fix>3d</fix>
</trkpt>
<trkpt lat="-27.2744383" lon="151.2900638">
  <ele>361.75</ele>
  <time>2026-09-01T19:56:40Z</time>
  <course>10.63</course>
  <speed>0.03605551275463989</speed>
  <fix>3d</fix>
</trkpt>
<trkpt lat="-27.2744381" lon="151.2900637">
  <ele>361.73</ele>
  <time>2026-09-01T19:56:40Z</time>
  <course>4.98</course>
  <speed>0.06</speed>
  <fix>3d</fix>
</trkpt>
<trkpt lat="-27.2744382" lon="151.2900638">
  <ele>361.6</ele>
  <time>2026-09-01T19:56:40Z</time>
  <course>10.62</course>
  <speed>0.03605551275463989</speed>
  <fix>3d</fix>
</trkpt>
<trkpt lat="-27.2744381" lon="151.2900637">
  <ele>361.73</ele>
  <time>2026-09-01T19:56:40Z</time>
  <course>4.98</course>
  <speed>0.06</speed>
  <fix>3d</fix>
</trkpt>
<trkpt lat="-27.2744382" lon="151.2900639">
  <ele>361.45</ele>
  <time>2026-09-01T19:56:40Z</time>
  <course>10.62</course>
  <speed>0.03605551275463989</speed>
  <fix>3d</fix>
</trkpt>
<trkpt lat="-27.274438" lon="151.2900638">
  <ele>361.43</ele>
  <time>2026-09-01T19:56:40Z</time>
  <course>4.4</course>
  <speed>0.06</speed>
  <fix>3d</fix>
</trkpt>
<trkpt lat="-27.2744381" lon="151.2900639">
  <ele>361.3</ele>
  <time>2026-09-01T19:56:40Z</time>
  <course>10.62</course>
  <speed>0.03605551275463989</speed>
  <fix>3d</fix>
</trkpt>
<trkpt lat="-27.274438" lon="151.2900638">
  <ele>361.43</ele>
  <time>2026-09-01T19:56:40Z</time>
  <course>4.4</course>
  <speed>0.06</speed>
  <fix>3d</fix>
</trkpt>
<trkpt lat="-27.2744381" lon="151.2900639">
  <ele>361.16</ele>
  <time>2026-09-01T19:56:40Z</time>
  <course>10.62</course>
  <speed>0.0282842712474619</speed>
  <fix>3d</fix>
</trkpt>
<trkpt lat="-27.2744379" lon="151.2900639">
  <ele>361.13</ele>
  <time>2026-09-01T19:56:40Z</time>
  <course>3.95</course>
  <speed>0.05</speed>
  <fix>3d</fix>
</trkpt>
<trkpt lat="-27.274438" lon="151.2900639">
  <ele>361.01</ele>
  <time>2026-09-01T19:56:40Z</time>
  <course>10.62</course>
  <speed>0.0282842712474619</speed>
  <fix>3d</fix>
</trkpt>
<trkpt lat="-27.2744379" lon="151.2900639">
  <ele>361.13</ele>
  <time>2026-09-01T19:56:40Z</time>
  <course>3.95</course>
  <speed>0.05</speed>
  <fix>3d</fix>
</trkpt>
<trkpt lat="-27.274438" lon="151.2900639">
  <ele>360.87</ele>
  <time>2026-09-01T19:56:40Z</time>
  <course>10.62</course>
  <speed>0.022360679774997897</speed>
  <fix>3d</fix>
</trkpt>
<trkpt lat="-27.2744378" lon="151.2900639">
  <ele>360.84</ele>
  <time>2026-09-01T19:56:40Z</time>
  <course>3.68</course>
  <speed>0.05</speed>
  <fix>3d</fix>
</trkpt>
<trkpt lat="-27.2744379" lon="151.2900639">
  <ele>360.72</ele>
  <time>2026-09-01T19:56:40Z</time>
  <course>10.62</course>
  <speed>0.01414213562373095</speed>
  <fix>3d</fix>
</trkpt>
<trkpt lat="-27.2744378" lon="151.2900639">
  <ele>360.84</ele>
  <time>2026-09-01T19:56:40Z</time>
  <course>3.68</course>
  <speed>0.05</speed>
  <fix>3d</fix>
</trkpt>
<trkpt lat="-27.2744379" lon="151.2900639">
  <ele>360.58</ele>
  <time>2026-09-01T19:56:40Z</time>
  <course>10.62</course>
  <speed>0.01414213562373095</speed>
  <fix>3d</fix>
</trkpt>
<trkpt lat="-27.2744377" lon="151.2900639">
  <ele>360.56</ele>
  <time>2026-09-01T19:56:40Z</time>
  <course>3.47</course>
  <speed>0.04</speed>
  <fix>3d</fix>
</trkpt>
<trkpt lat="-27.2744379" lon="151.2900639">
  <ele>360.43</ele>
  <time>2026-09-01T19:56:40Z</time>
  <course>10.61</course>
  <speed>0.01414213562373095</speed>
  <fix>3d</fix>
</trkpt>
<trkpt lat="-27.2744377" lon="151.2900639">
  <ele>360.56</ele>
  <time>2026-09-01T19:56:40Z</time>
  <course>3.47</course>
  <speed>0.04</speed>
  <fix>3d</fix>
</trkpt>
<trkpt lat="-27.2744379" lon="151.2900639">
  <ele>360.29</ele>
  <time>2026-09-01T19:56:40Z</time>
  <course>10.6</course>
  <speed>0.01</speed>
  <fix>3d</fix>
</trkpt>
<trkpt lat="-27.2744376" lon="151.2900639">
  <ele>360.28</ele>
  <time>2026-09-01T19:56:40Z</time>
  <course>3.51</course>
  <speed>0.04</speed>
  <fix>3d</fix>
</trkpt>
<trkpt lat="-27.2744378" lon="151.2900639">
  <ele>360.15</ele>
  <time>2026-09-01T19:56:40Z</time>
  <course>10.6</course>
  <speed>0.01</speed>
  <fix>3d</fix>
</trkpt>
<trkpt lat="-27.2744376" lon="151.2900639">
  <ele>360.28</ele>
  <time>2026-09-01T19:56:40Z</time>
  <course>3.51</course>
  <speed>0.04</speed>
  <fix>3d</fix>
</trkpt>
<trkpt lat="-27.2744378" lon="151.2900639">
  <ele>360.0</ele>
  <time>2026-09-01T19:56:40Z</time>
  <course>10.59</course>
  <speed>0.01</speed>
  <fix>3d</fix>
</trkpt>
<trkpt lat="-27.2744375" lon="151.2900639">
  <ele>360.0</ele>
  <time>2026-09-01T19:56:40Z</time>
  <course>4.21</course>
  <speed>0.03</speed>
  <fix>3d</fix>
</trkpt>
<trkpt lat="-27.2744378" lon="151.2900639">
  <ele>359.86</ele>
  <time>2026-09-01T19:56:40Z</time>
  <course>10.59</course>
  <speed>0.01</speed>
  <fix>3d</fix>
</trkpt>
<trkpt lat="-27.2744375" lon="151.2900639">
  <ele>360.0</ele>
  <time>2026-09-01T19:56:40Z</time>
  <course>4.21</course>
  <speed>0.03</speed>
  <fix>3d</fix>
</trkpt>
<trkpt lat="-27.2744377" lon="151.290064">
  <ele>359.72</ele>
  <time>2026-09-01T19:56:40Z</time>
  <course>10.59</course>
  <speed>0.01</speed>
  <fix>3d</fix>
</trkpt>
<trkpt lat="-27.2744375" lon="151.2900639">
  <ele>359.71</ele>
  <time>2026-09-01T19:56:40Z</time>
  <course>5.95</course>
  <speed>0.02</speed>
  <fix>3d</fix>
</trkpt>
<trkpt lat="-27.2744377" lon="151.290064">
  <ele>359.57</ele>
  <time>2026-09-01T19:56:40Z</time>
  <course>10.59</course>
  <speed>0.01</speed>
  <fix>3d</fix>
</trkpt>
<trkpt lat="-27.2744375" lon="151.2900639">
  <ele>359.71</ele>
  <time>2026-09-01T19:56:40Z</time>
  <course>5.95</course>
  <speed>0.02</speed>
  <fix>3d</fix>
</trkpt>
<trkpt lat="-27.2744377" lon="151.290064">
  <ele>359.42</ele>
  <time>2026-09-01T19:56:40Z</time>
  <course>10.59</course>
  <speed>0.01</speed>
  <fix>3d</fix>
</trkpt>
<trkpt lat="-27.2744374" lon="151.2900639">
  <ele>359.43</ele>
  <time>2026-09-01T19:56:40Z</time>
  <course>9.24</course>
  <speed>0.02</speed>
  <fix>3d</fix>
</trkpt>
<trkpt lat="-27.2744377" lon="151.290064">
  <ele>359.27</ele>
  <time>2026-09-01T19:56:40Z</time>
  <course>10.58</course>
  <speed>0.02</speed>
  <fix>3d</fix>
</trkpt>
<trkpt lat="-27.2744374" lon="151.2900639">
  <ele>359.43</ele>
  <time>2026-09-01T19:56:40Z</time>
  <course>9.24</course>
  <speed>0.02</speed>
  <fix>3d</fix>
</trkpt>
<trkpt lat="-27.2744377" lon="151.290064">
  <ele>359.13</ele>
  <time>2026-09-01T19:56:40Z</time>
  <course>10.57</course>
  <speed>0.022360679774997897</speed>
  <fix>3d</fix>
</trkpt>
<trkpt lat="-27.2744374" lon="151.2900639">
  <ele>359.14</ele>
  <time>2026-09-01T19:56:40Z</time>
  <course>14.65</course>
  <speed>0.01</speed>
  <fix>3d</fix>
</trkpt>
<trkpt lat="-27.2744376" lon="151.290064">
  <ele>358.98</ele>
  <time>2026-09-01T19:56:40Z</time>
  <course>10.56</course>
  <speed>0.022360679774997897</speed>
  <fix>3d</fix>
</trkpt>
<trkpt lat="-27.2744374" lon="151.2900639">
  <ele>359.14</ele>
  <time>2026-09-01T19:56:40Z</time>
  <course>14.65</course>
  <speed>0.01</speed>
  <fix>3d</fix>
</trkpt>
<trkpt lat="-27.2744376" lon="151.290064">
  <ele>358.83</ele>
  <time>2026-09-01T19:56:40Z</time>
  <course>10.56</course>
  <speed>0.022360679774997897</speed>
  <fix>3d</fix>
</trkpt>
<trkpt lat="-27.2744374" lon="151.2900639">
  <ele>358.84</ele>
  <time>2026-09-01T19:56:40Z</time>
  <course>22.36</course>
  <speed>0.01</speed>
  <fix>3d</fix>
</trkpt>
<trkpt lat="-27.2744376" lon="151.290064">
  <ele>358.68</ele>
  <time>2026-09-01T19:56:40Z</time>
  <course>10.57</course>
  <speed>0.022360679774997897</speed>
  <fix>3d</fix>
</trkpt>
<trkpt lat="-27.2744374" lon="151.2900639">
  <ele>358.84</ele>
  <time>2026-09-01T19:56:40Z</time>
  <course>22.36</course>
  <speed>0.01</speed>
  <fix>3d</fix>
</trkpt>
<trkpt lat="-27.2744376" lon="151.290064">
  <ele>358.53</ele>
  <time>2026-09-01T19:56:40Z</time>
  <course>10.58</course>
  <speed>0.0282842712474619</speed>
  <fix>3d</fix>
</trkpt>
<trkpt lat="-27.2744374" lon="151.2900639">
  <ele>358.55</ele>
  <time>2026-09-01T19:56:40Z</time>
  <course>33.32</course>
  <speed>0.0</speed>
  <fix>3d</fix>
</trkpt>
<trkpt lat="-27.2744376" lon="151.290064">
  <ele>358.38</ele>
  <time>2026-09-01T19:56:40Z</time>
  <course>10.58</course>
  <speed>0.022360679774997897</speed>
  <fix>3d</fix>
</trkpt>
<trkpt lat="-27.2744374" lon="151.2900639">
  <ele>358.55</ele>
  <time>2026-09-01T19:56:40Z</time>
  <course>33.32</course>
  <speed>0.0</speed>
  <fix>3d</fix>
</trkpt>
<trkpt lat="-27.2744376" lon="151.290064">
  <ele>358.23</ele>
  <time>2026-09-01T19:56:40Z</time>
  <course>10.58</course>
  <speed>0.022360679774997897</speed>
  <fix>3d</fix>
</trkpt>
<trkpt lat="-27.2744374" lon="151.2900639">
  <ele>358.25</ele>
  <time>2026-09-01T19:56:40Z</time>
  <course>53.16</course>
  <speed>0.0</speed>
  <fix>3d</fix>
</trkpt>
<trkpt lat="-27.2744376" lon="151.290064">
  <ele>358.07</ele>
  <time>2026-09-01T19:56:40Z</time>
  <course>10.59</course>
  <speed>0.022360679774997897</speed>
  <fix>3d</fix>
</trkpt>
<trkpt lat="-27.2744374" lon="151.2900639">
  <ele>358.25</ele>
  <time>2026-09-01T19:56:40Z</time>
  <course>53.16</course>
  <speed>0.0</speed>
  <fix>3d</fix>
</trkpt>
<trkpt lat="-27.2744376" lon="151.290064">
  <ele>357.92</ele>
  <time>2026-09-01T19:56:40Z</time>
  <course>10.59</course>
  <speed>0.022360679774997897</speed>
  <fix>3d</fix>
</trkpt>
<trkpt lat="-27.2744374" lon="151.2900639">
  <ele>357.95</ele>
  <time>2026-09-01T19:56:40Z</time>
  <course>94.18</course>
  <speed>0.0</speed>
  <fix>3d</fix>
</trkpt>
<trkpt lat="-27.2744376" lon="151.290064">
  <ele>357.77</ele>
  <time>2026-09-01T19:56:40Z</time>
  <course>10.6</course>
  <speed>0.0316227766016838</speed>
  <fix>3d</fix>
</trkpt>
<trkpt lat="-27.2744374" lon="151.2900639">
  <ele>357.95</ele>
  <time>2026-09-01T19:56:40Z</time>
  <course>94.18</course>
  <speed>0.0</speed>
  <fix>3d</fix>
</trkpt>
<trkpt lat="-27.2744376" lon="151.290064">
  <ele>357.62</ele>
  <time>2026-09-01T19:56:40Z</time>
  <course>10.61</course>
  <speed>0.03</speed>
  <fix>3d</fix>
</trkpt>
<trkpt lat="-27.2744374" lon="151.290064">
  <ele>357.66</ele>
  <time>2026-09-01T19:56:40Z</time>
  <course>139.03</course>
  <speed>0.0</speed>
  <fix>3d</fix>
</trkpt>
<trkpt lat="-27.2744376" lon="151.290064">
  <ele>357.47</ele>
  <time>2026-09-01T19:56:40Z</time>
  <course>10.62</course>
  <speed>0.0316227766016838</speed>
  <fix>3d</fix>
</trkpt>
<trkpt lat="-27.2744374" lon="151.290064">
  <ele>357.66</ele>
  <time>2026-09-01T19:56:40Z</time>
  <course>139.03</course>
  <speed>0.0</speed>
  <fix>3d</fix>
</trkpt>
<trkpt lat="-27.2744376" lon="151.290064">
  <ele>357.32</ele>
  <time>2026-09-01T19:56:40Z</time>
  <course>10.62</course>
  <speed>0.03</speed>
  <fix>3d</fix>
</trkpt>
<trkpt lat="-27.2744374" lon="151.290064">
  <ele>357.36</ele>
  <time>2026-09-01T19:56:40Z</time>
  <course>160.64</course>
  <speed>0.0</speed>
  <fix>3d</fix>
</trkpt>
<trkpt lat="-27.2744376" lon="151.290064">
  <ele>357.17</ele>
  <time>2026-09-01T19:56:40Z</time>
  <course>10.62</course>
  <speed>0.03</speed>
  <fix>3d</fix>
</trkpt>
<trkpt lat="-27.2744374" lon="151.290064">
  <ele>357.36</ele>
  <time>2026-09-01T19:56:40Z</time>
  <course>160.64</course>
  <speed>0.0</speed>
  <fix>3d</fix>
</trkpt>
<trkpt lat="-27.2744376" lon="151.290064">
  <ele>357.01</ele>
  <time>2026-09-01T19:56:40Z</time>
  <course>10.61</course>
  <speed>0.03</speed>
  <fix>3d</fix>
</trkpt>
<trkpt lat="-27.2744374" lon="151.290064">
  <ele>357.06</ele>
  <time>2026-09-01T19:56:40Z</time>
  <course>167.57</course>
  <speed>0.01</speed>
  <fix>3d</fix>
</trkpt>
<trkpt lat="-27.2744376" lon="151.290064">
  <ele>356.86</ele>
  <time>2026-09-01T19:56:40Z</time>
  <course>10.59</course>
  <speed>0.03</speed>
  <fix>3d</fix>
</trkpt>
<trkpt lat="-27.2744374" lon="151.290064">
  <ele>357.06</ele>
  <time>2026-09-01T19:56:40Z</time>
  <course>167.57</course>
  <speed>0.01</speed>
  <fix>3d</fix>
</trkpt>
<trkpt lat="-27.2744376" lon="151.290064">
  <ele>356.71</ele>
  <time>2026-09-01T19:56:40Z</time>
  <course>10.59</course>
  <speed>0.04</speed>
  <fix>3d</fix>
</trkpt>
<trkpt lat="-27.2744374" lon="151.290064">
  <ele>356.76</ele>
  <time>2026-09-01T19:56:40Z</time>
  <course>171.0</course>
  <speed>0.01</speed>
  <fix>3d</fix>
</trkpt>
<trkpt lat="-27.2744376" lon="151.290064">
  <ele>356.56</ele>
  <time>2026-09-01T19:56:40Z</time>
  <course>10.59</course>
  <speed>0.04</speed>
  <fix>3d</fix>
</trkpt>
<trkpt lat="-27.2744374" lon="151.290064">
  <ele>356.76</ele>
  <time>2026-09-01T19:56:40Z</time>
  <course>171.0</course>
  <speed>0.01</speed>
  <fix>3d</fix>
</trkpt>
<trkpt lat="-27.2744376" lon="151.290064">
  <ele>356.41</ele>
  <time>2026-09-01T19:56:40Z</time>
  <course>10.6</course>
  <speed>0.04</speed>
  <fix>3d</fix>
</trkpt>
<trkpt lat="-27.2744374" lon="151.290064">
  <ele>356.47</ele>
  <time>2026-09-01T19:56:40Z</time>
  <course>174.17</course>
  <speed>0.01</speed>
  <fix>3d</fix>
</trkpt>
<trkpt lat="-27.2744376" lon="151.290064">
  <ele>356.26</ele>
  <time>2026-09-01T19:56:40Z</time>
  <course>10.6</course>
  <speed>0.0412310562561766</speed>
  <fix>3d</fix>
</trkpt>
<trkpt lat="-27.2744374" lon="151.290064">
  <ele>356.47</ele>
  <time>2026-09-01T19:56:40Z</time>
  <course>174.17</course>
  <speed>0.01</speed>
  <fix>3d</fix>
</trkpt>
<trkpt lat="-27.2744377" lon="151.290064">
  <ele>356.11</ele>
  <time>2026-09-01T19:56:40Z</time>
  <course>10.6</course>
  <speed>0.04</speed>
  <fix>3d</fix>
</trkpt>
<trkpt lat="-27.2744374" lon="151.290064">
  <ele>356.17</ele>
  <time>2026-09-01T19:56:40Z</time>
  <course>175.18</course>
  <speed>0.02</speed>
  <fix>3d</fix>
</trkpt>
<trkpt lat="-27.2744377" lon="151.290064">
  <ele>355.97</ele>
  <time>2026-09-01T19:56:40Z</time>
  <course>10.58</course>
  <speed>0.0412310562561766</speed>
  <fix>3d</fix>
</trkpt>
<trkpt lat="-27.2744374" lon="151.290064">
  <ele>356.17</ele>
  <time>2026-09-01T19:56:40Z</time>
  <course>175.18</course>
  <speed>0.02</speed>
  <fix>3d</fix>
</trkpt>
<trkpt lat="-27.2744377" lon="151.290064">
  <ele>355.82</ele>
  <time>2026-09-01T19:56:40Z</time>
  <course>10.57</course>
  <speed>0.04</speed>
  <fix>3d</fix>
</trkpt>
<trkpt lat="-27.2744374" lon="151.290064">
  <ele>355.88</ele>
  <time>2026-09-01T19:56:40Z</time>
  <course>174.61</course>
  <speed>0.02</speed>
  <fix>3d</fix>
</trkpt>
<trkpt lat="-27.2744377" lon="151.290064">
  <ele>355.67</ele>
  <time>2026-09-01T19:56:40Z</time>
  <course>10.56</course>
  <speed>0.0412310562561766</speed>
  <fix>3d</fix>
</trkpt>
<trkpt lat="-27.2744374" lon="151.290064">
  <ele>355.88</ele>
  <time>2026-09-01T19:56:40Z</time>
  <course>174.61</course>
  <speed>0.02</speed>
  <fix>3d</fix>
</trkpt>
<trkpt lat="-27.2744377" lon="151.290064">
  <ele>355.51</ele>
  <time>2026-09-01T19:56:40Z</time>
  <course>10.56</course>
  <speed>0.04</speed>
  <fix>3d</fix>
</trkpt>
<trkpt lat="-27.2744374" lon="151.290064">
  <ele>355.59</ele>
  <time>2026-09-01T19:56:40Z</time>
  <course>174.84</course>
  <speed>0.02</speed>
  <fix>3d</fix>
</trkpt>
<trkpt lat="-27.2744377" lon="151.290064">
  <ele>355.37</ele>
  <time>2026-09-01T19:56:40Z</time>
  <course>10.56</course>
  <speed>0.04</speed>
  <fix>3d</fix>
</trkpt>
<trkpt lat="-27.2744374" lon="151.290064">
  <ele>355.59</ele>
  <time>2026-09-01T19:56:40Z</time>
  <course>174.84</course>
  <speed>0.02</speed>
  <fix>3d</fix>
</trkpt>
<trkpt lat="-27.2744377" lon="151.290064">
  <ele>355.22</ele>
  <time>2026-09-01T19:56:40Z</time>
  <course>10.56</course>
  <speed>0.04</speed>
  <fix>3d</fix>
</trkpt>
<trkpt lat="-27.2744375" lon="151.290064">
  <ele>355.3</ele>
  <time>2026-09-01T19:56:40Z</time>
  <course>176.12</course>
  <speed>0.02</speed>
  <fix>3d</fix>
</trkpt>
<trkpt lat="-27.2744378" lon="151.290064">
  <ele>355.07</ele>
  <time>2026-09-01T19:56:40Z</time>
  <course>10.55</course>
  <speed>0.05</speed>
  <fix>3d</fix>
</trkpt>
<trkpt lat="-27.2744375" lon="151.290064">
  <ele>355.3</ele>
  <time>2026-09-01T19:56:40Z</time>
  <course>176.12</course>
  <speed>0.02</speed>
  <fix>3d</fix>
</trkpt>
<trkpt lat="-27.2744378" lon="151.290064">
  <ele>354.92</ele>
  <time>2026-09-01T19:56:40Z</time>
  <course>10.55</course>
  <speed>0.05</speed>
  <fix>3d</fix>
</trkpt>
<trkpt lat="-27.2744375" lon="151.290064">
  <ele>355.0</ele>
  <time>2026-09-01T19:56:40Z</time>
  <course>176.93</course>
  <speed>0.02</speed>
  <fix>3d</fix>
</trkpt>
<trkpt lat="-27.2744378" lon="151.290064">
  <ele>354.78</ele>
  <time>2026-09-01T19:56:40Z</time>
  <course>10.56</course>
  <speed>0.05</speed>
  <fix>3d</fix>
</trkpt>
<trkpt lat="-27.2744375" lon="151.290064">
  <ele>355.0</ele>
  <time>2026-09-01T19:56:40Z</time>
  <course>176.93</course>
  <speed>0.02</speed>
  <fix>3d</fix>
</trkpt>
<trkpt lat="-27.2744378" lon="151.290064">
  <ele>354.63</ele>
  <time>2026-09-01T19:56:40Z</time>
  <course>10.56</course>
  <speed>0.05</speed>
  <fix>3d</fix>
</trkpt>
<trkpt lat="-27.2744376" lon="151.290064">
  <ele>354.71</ele>
  <time>2026-09-01T19:56:40Z</time>
  <course>177.0</course>
  <speed>0.03</speed>
  <fix>3d</fix>
</trkpt>
<trkpt lat="-27.2744378" lon="151.290064">
  <ele>354.48</ele>
  <time>2026-09-01T19:56:40Z</time>
  <course>10.56</course>
  <speed>0.05</speed>
  <fix>3d</fix>
</trkpt>
<trkpt lat="-27.2744376" lon="151.290064">
  <ele>354.71</ele>
  <time>2026-09-01T19:56:40Z</time>
  <course>177.0</course>
  <speed>0.03</speed>
  <fix>3d</fix>
</trkpt>
<trkpt lat="-27.2744379" lon="151.290064">
  <ele>354.34</ele>
  <time>2026-09-01T19:56:40Z</time>
  <course>10.56</course>
  <speed>0.05</speed>
  <fix>3d</fix>
</trkpt>
<trkpt lat="-27.2744376" lon="151.290064">
  <ele>354.41</ele>
  <time>2026-09-01T19:56:40Z</time>
  <course>176.84</course>
  <speed>0.03</speed>
  <fix>3d</fix>
</trkpt>
<trkpt lat="-27.2744379" lon="151.290064">
  <ele>354.19</ele>
  <time>2026-09-01T19:56:40Z</time>
  <course>10.55</course>
  <speed>0.05</speed>
  <fix>3d</fix>
</trkpt>
<trkpt lat="-27.2744376" lon="151.290064">
  <ele>354.41</ele>
  <time>2026-09-01T19:56:40Z</time>
  <course>176.84</course>
  <speed>0.03</speed>
  <fix>3d</fix>
</trkpt>
<trkpt lat="-27.2744379" lon="151.290064">
  <ele>354.05</ele>
  <time>2026-09-01T19:56:40Z</time>
  <course>10.55</course>
  <speed>0.05</speed>
  <fix>3d</fix>
</trkpt>
<trkpt lat="-27.2744377" lon="151.290064">
  <ele>354.13</ele>
  <time>2026-09-01T19:56:40Z</time>
  <course>176.81</course>
  <speed>0.03</speed>
  <fix>3d</fix>
</trkpt>
<trkpt lat="-27.2744379" lon="151.290064">
  <ele>353.91</ele>
  <time>2026-09-01T19:56:40Z</time>
  <course>10.54</course>
  <speed>0.05</speed>
  <fix>3d</fix>
</trkpt>
<trkpt lat="-27.2744377" lon="151.290064">
  <ele>354.13</ele>
  <time>2026-09-01T19:56:40Z</time>
  <course>176.81</course>
  <speed>0.03</speed>
  <fix>3d</fix>
</trkpt>
<trkpt lat="-27.2744379" lon="151.290064">
  <ele>353.77</ele>
  <time>2026-09-01T19:56:40Z</time>
  <course>10.54</course>
  <speed>0.05</speed>
  <fix>3d</fix>
</trkpt>
<trkpt lat="-27.2744378" lon="151.290064">
  <ele>353.84</ele>
  <time>2026-09-01T19:56:40Z</time>
  <course>177.04</course>
  <speed>0.03</speed>
  <fix>3d</fix>
</trkpt>
<trkpt lat="-27.274438" lon="151.290064">
  <ele>353.63</ele>
  <time>2026-09-01T19:56:40Z</time>
  <course>10.54</course>
  <speed>0.05</speed>
  <fix>3d</fix>
</trkpt>
<trkpt lat="-27.2744378" lon="151.290064">
  <ele>353.84</ele>
  <time>2026-09-01T19:56:40Z</time>
  <course>177.04</course>
  <speed>0.03</speed>
  <fix>3d</fix>
</trkpt>
<trkpt lat="-27.274438" lon="151.290064">
  <ele>353.49</ele>
  <time>2026-09-01T19:56:40Z</time>
  <course>10.54</course>
  <speed>0.05</speed>
  <fix>3d</fix>
</trkpt>
<trkpt lat="-27.2744378" lon="151.290064">
  <ele>353.56</ele>
  <time>2026-09-01T19:56:40Z</time>
  <course>177.14</course>
  <speed>0.03</speed>
  <fix>3d</fix>
</trkpt>
<trkpt lat="-27.274438" lon="151.290064">
  <ele>353.36</ele>
  <time>2026-09-01T19:56:40Z</time>
  <course>10.54</course>
  <speed>0.05</speed>
  <fix>3d</fix>
</trkpt>
<trkpt lat="-27.2744378" lon="151.290064">
  <ele>353.56</ele>
  <time>2026-09-01T19:56:40Z</time>
  <course>177.14</course>
  <speed>0.03</speed>
  <fix>3d</fix>
</trkpt>
<trkpt lat="-27.2744381" lon="151.290064">
  <ele>353.23</ele>
  <time>2026-09-01T19:56:40Z</time>
  <course>10.54</course>
  <speed>0.05</speed>
  <fix>3d</fix>
</trkpt>
<trkpt lat="-27.2744379" lon="151.290064">
  <ele>353.28</ele>
  <time>2026-09-01T19:56:40Z</time>
  <course>177.69</course>
  <speed>0.03</speed>
  <fix>3d</fix>
</trkpt>
<trkpt lat="-27.2744381" lon="151.290064">
  <ele>353.1</ele>
  <time>2026-09-01T19:56:40Z</time>
  <course>10.54</course>
  <speed>0.05</speed>
  <fix>3d</fix>
</trkpt>
<trkpt lat="-27.2744379" lon="151.290064">
  <ele>353.28</ele>
  <time>2026-09-01T19:56:40Z</time>
  <course>177.69</course>
  <speed>0.03</speed>
  <fix>3d</fix>
</trkpt>
<trkpt lat="-27.2744381" lon="151.290064">
  <ele>352.97</ele>
  <time>2026-09-01T19:56:40Z</time>
  <course>10.55</course>
  <speed>0.05</speed>
  <fix>3d</fix>
</trkpt>
<trkpt lat="-27.274438" lon="151.290064">
  <ele>353.02</ele>
  <time>2026-09-01T19:56:40Z</time>
  <course>178.89</course>
  <speed>0.04</speed>
  <fix>3d</fix>
</trkpt>
<trkpt lat="-27.2744382" lon="151.290064">
  <ele>352.84</ele>
  <time>2026-09-01T19:56:40Z</time>
  <course>10.55</course>
  <speed>0.05</speed>
  <fix>3d</fix>
</trkpt>
<trkpt lat="-27.274438" lon="151.290064">
  <ele>353.02</ele>
  <time>2026-09-01T19:56:40Z</time>
  <course>178.89</course>
  <speed>0.04</speed>
  <fix>3d</fix>
</trkpt>
<trkpt lat="-27.2744382" lon="151.290064">
  <ele>352.72</ele>
  <time>2026-09-01T19:56:40Z</time>
  <course>10.54</course>
  <speed>0.06</speed>
  <fix>3d</fix>
</trkpt>
<trkpt lat="-27.274438" lon="151.290064">
  <ele>352.76</ele>
  <time>2026-09-01T19:56:40Z</time>
  <course>179.43</course>
  <speed>0.04</speed>
  <fix>3d</fix>
</trkpt>
<trkpt lat="-27.2744382" lon="151.290064">
  <ele>352.6</ele>
  <time>2026-09-01T19:56:40Z</time>
  <course>10.54</course>
  <speed>0.06</speed>
  <fix>3d</fix>
</trkpt>
<trkpt lat="-27.274438" lon="151.290064">
  <ele>352.76</ele>
  <time>2026-09-01T19:56:40Z</time>
  <course>179.43</course>
  <speed>0.04</speed>
  <fix>3d</fix>
</trkpt>
<trkpt lat="-27.2744383" lon="151.290064">
  <ele>352.48</ele>
  <time>2026-09-01T19:56:40Z</time>
  <course>10.53</course>
  <speed>0.06</speed>
  <fix>3d</fix>
</trkpt>
<trkpt lat="-27.2744381" lon="151.290064">
  <ele>352.52</ele>
  <time>2026-09-01T19:56:40Z</time>
  <course>179.56</course>
  <speed>0.04</speed>
  <fix>3d</fix>
</trkpt>
<trkpt lat="-27.2744383" lon="151.290064">
  <ele>352.36</ele>
  <time>2026-09-01T19:56:40Z</time>
  <course>10.52</course>
  <speed>0.06</speed>
  <fix>3d</fix>
</trkpt>
<trkpt lat="-27.2744381" lon="151.290064">
  <ele>352.52</ele>
  <time>2026-09-01T19:56:40Z</time>
  <course>179.56</course>
  <speed>0.04</speed>
  <fix>3d</fix>
</trkpt>
<trkpt lat="-27.2744384" lon="151.290064">
  <ele>352.25</ele>
  <time>2026-09-01T19:56:40Z</time>
  <course>10.51</course>
  <speed>0.06</speed>
  <fix>3d</fix>
</trkpt>
<trkpt lat="-27.2744382" lon="151.290064">
  <ele>352.28</ele>
  <time>2026-09-01T19:56:40Z</time>
  <course>179.74</course>
  <speed>0.04</speed>
  <fix>3d</fix>
</trkpt>
<trkpt lat="-27.2744384" lon="151.290064">
  <ele>352.14</ele>
  <time>2026-09-01T19:56:40Z</time>
  <course>10.51</course>
  <speed>0.06082762530298219</speed>
  <fix>3d</fix>
</trkpt>
<trkpt lat="-27.2744382" lon="151.290064">
  <ele>352.28</ele>
  <time>2026-09-01T19:56:40Z</time>
  <course>179.74</course>
  <speed>0.04</speed>
  <fix>3d</fix>
</trkpt>
<trkpt lat="-27.2744384" lon="151.290064">
  <ele>352.02</ele>
  <time>2026-09-01T19:56:40Z</time>
  <course>10.5</course>
  <speed>0.06082762530298219</speed>
  <fix>3d</fix>
</trkpt>
<trkpt lat="-27.2744383" lon="151.290064">
  <ele>352.06</ele>
  <time>2026-09-01T19:56:40Z</time>
  <course>179.77</course>
  <speed>0.04</speed>
  <fix>3d</fix>
</trkpt>
<trkpt lat="-27.2744385" lon="151.290064">
  <ele>351.92</ele>
  <time>2026-09-01T19:56:40Z</time>
  <course>10.5</course>
  <speed>0.06082762530298219</speed>
  <fix>3d</fix>
</trkpt>
<trkpt lat="-27.2744383" lon="151.290064">
  <ele>352.06</ele>
  <time>2026-09-01T19:56:40Z</time>
  <course>179.77</course>
  <speed>0.04</speed>
  <fix>3d</fix>
</trkpt>
<trkpt lat="-27.2744385" lon="151.290064">
  <ele>351.81</ele>
  <time>2026-09-01T19:56:40Z</time>
  <course>10.49</course>
  <speed>0.06082762530298219</speed>
  <fix>3d</fix>
</trkpt>
<trkpt lat="-27.2744384" lon="151.290064">
  <ele>351.84</ele>
  <time>2026-09-01T19:56:40Z</time>
  <course>179.81</course>
  <speed>0.04</speed>
  <fix>3d</fix>
</trkpt>
<trkpt lat="-27.2744386" lon="151.290064">
  <ele>351.71</ele>
  <time>2026-09-01T19:56:40Z</time>
  <course>10.48</course>
  <speed>0.06082762530298219</speed>
  <fix>3d</fix>
</trkpt>
<trkpt lat="-27.2744384" lon="151.290064">
  <ele>351.84</ele>
  <time>2026-09-01T19:56:40Z</time>
  <course>179.81</course>
  <speed>0.04</speed>
  <fix>3d</fix>
</trkpt>
<trkpt lat="-27.2744386" lon="151.290064">
  <ele>351.6</ele>
  <time>2026-09-01T19:56:40Z</time>
  <course>10.47</course>
  <speed>0.06082762530298219</speed>
  <fix>3d</fix>
</trkpt>
<trkpt lat="-27.2744384" lon="151.290064">
  <ele>351.63</ele>
  <time>2026-09-01T19:56:40Z</time>
  <course>179.63</course>
  <speed>0.05</speed>
  <fix>3d</fix>
</trkpt>
<trkpt lat="-27.2744387" lon="151.290064">
  <ele>351.5</ele>
  <time>2026-09-01T19:56:40Z</time>
  <course>10.46</course>
  <speed>0.06082762530298219</speed>
  <fix>3d</fix>
</trkpt>
<trkpt lat="-27.2744384" lon="151.290064">
  <ele>351.63</ele>
  <time>2026-09-01T19:56:40Z</time>
  <course>179.63</course>
  <speed>0.05</speed>
  <fix>3d</fix>
</trkpt>
<trkpt lat="-27.2744387" lon="151.2900641">
  <ele>351.41</ele>
  <time>2026-09-01T19:56:40Z</time>
  <course>10.46</course>
  <speed>0.06082762530298219</speed>
  <fix>3d</fix>
</trkpt>
<trkpt lat="-27.2744385" lon="151.290064">
  <ele>351.43</ele>
  <time>2026-09-01T19:56:40Z</time>
  <course>179.36</course>
  <speed>0.04</speed>
  <fix>3d</fix>
</trkpt>
<trkpt lat="-27.2744387" lon="151.2900641">
  <ele>351.31</ele>
  <time>2026-09-01T19:56:40Z</time>
  <course>10.45</course>
  <speed>0.06082762530298219</speed>
  <fix>3d</fix>
</trkpt>
<trkpt lat="-27.2744385" lon="151.290064">
  <ele>351.43</ele>
  <time>2026-09-01T19:56:40Z</time>
  <course>179.36</course>
  <speed>0.04</speed>
  <fix>3d</fix>
</trkpt>
<trkpt lat="-27.2744388" lon="151.2900641">
  <ele>351.22</ele>
  <time>2026-09-01T19:56:40Z</time>
  <course>10.45</course>
  <speed>0.06082762530298219</speed>
  <fix>3d</fix>
</trkpt>
<trkpt lat="-27.2744386" lon="151.290064">
  <ele>351.24</ele>
  <time>2026-09-01T19:56:40Z</time>
  <course>179.31</course>
  <speed>0.04</speed>
  <fix>3d</fix>
</trkpt>
<trkpt lat="-27.2744388" lon="151.2900641">
  <ele>351.13</ele>
  <time>2026-09-01T19:56:40Z</time>
  <course>10.45</course>
  <speed>0.06082762530298219</speed>
  <fix>3d</fix>
</trkpt>
<trkpt lat="-27.2744386" lon="151.290064">
  <ele>351.24</ele>
  <time>2026-09-01T19:56:40Z</time>
  <course>179.31</course>
  <speed>0.04</speed>
  <fix>3d</fix>
</trkpt>
<trkpt lat="-27.2744389" lon="151.2900641">
  <ele>351.04</ele>
  <time>2026-09-01T19:56:40Z</time>
  <course>10.45</course>
  <speed>0.06082762530298219</speed>
  <fix>3d</fix>
</trkpt>
<trkpt lat="-27.2744387" lon="151.290064">
  <ele>351.06</ele>
  <time>2026-09-01T19:56:40Z</time>
  <course>178.97</course>
  <speed>0.04</speed>
  <fix>3d</fix>
</trkpt>
<trkpt lat="-27.2744389" lon="151.2900641">
  <ele>350.96</ele>
  <time>2026-09-01T19:56:40Z</time>
  <course>10.44</course>
  <speed>0.06082762530298219</speed>
  <fix>3d</fix>
</trkpt>
<trkpt lat="-27.2744387" lon="151.290064">
  <ele>351.06</ele>
  <time>2026-09-01T19:56:40Z</time>
  <course>178.97</course>
  <speed>0.04</speed>
  <fix>3d</fix>
</trkpt>
<trkpt lat="-27.2744389" lon="151.2900641">
  <ele>350.87</ele>
  <time>2026-09-01T19:56:40Z</time>
  <course>10.44</course>
  <speed>0.06082762530298219</speed>
  <fix>3d</fix>
</trkpt>
<trkpt lat="-27.2744388" lon="151.290064">
  <ele>350.88</ele>
  <time>2026-09-01T19:56:40Z</time>
  <course>178.24</course>
  <speed>0.04</speed>
  <fix>3d</fix>
</trkpt>
<trkpt lat="-27.274439" lon="151.2900641">
  <ele>350.79</ele>
  <time>2026-09-01T19:56:40Z</time>
  <course>10.43</course>
  <speed>0.06082762530298219</speed>
  <fix>3d</fix>
</trkpt>
<trkpt lat="-27.2744388" lon="151.290064">
  <ele>350.88</ele>
  <time>2026-09-01T19:56:40Z</time>
  <course>178.24</course>
  <speed>0.04</speed>
  <fix>3d</fix>
</trkpt>
<trkpt lat="-27.274439" lon="151.2900641">
  <ele>350.7</ele>
  <time>2026-09-01T19:56:40Z</time>
  <course>10.42</course>
  <speed>0.06082762530298219</speed>
  <fix>3d</fix>
</trkpt>
<trkpt lat="-27.2744389" lon="151.290064">
  <ele>350.7</ele>
  <time>2026-09-01T19:56:40Z</time>
  <course>177.51</course>
  <speed>0.04</speed>
  <fix>3d</fix>
</trkpt>
<trkpt lat="-27.2744391" lon="151.2900641">
  <ele>350.62</ele>
  <time>2026-09-01T19:56:40Z</time>
  <course>10.41</course>
  <speed>0.05099019513592785</speed>
  <fix>3d</fix>
</trkpt>
<trkpt lat="-27.2744389" lon="151.290064">
  <ele>350.7</ele>
  <time>2026-09-01T19:56:40Z</time>
  <course>177.51</course>
  <speed>0.04</speed>
  <fix>3d</fix>
</trkpt>
<trkpt lat="-27.2744391" lon="151.2900641">
  <ele>350.54</ele>
  <time>2026-09-01T19:56:40Z</time>
  <course>10.41</course>
  <speed>0.05099019513592785</speed>
  <fix>3d</fix>
</trkpt>
<trkpt lat="-27.274439" lon="151.290064">
  <ele>350.53</ele>
  <time>2026-09-01T19:56:40Z</time>
  <course>176.6</course>
  <speed>0.03</speed>
  <fix>3d</fix>
</trkpt>
<trkpt lat="-27.2744391" lon="151.2900641">
  <ele>350.46</ele>
  <time>2026-09-01T19:56:40Z</time>
  <course>10.4</course>
  <speed>0.053851648071345036</speed>
  <fix>3d</fix>
</trkpt>
<trkpt lat="-27.274439" lon="151.290064">
  <ele>350.53</ele>
  <time>2026-09-01T19:56:40Z</time>
  <course>176.6</course>
  <speed>0.03</speed>
  <fix>3d</fix>
</trkpt>
<trkpt lat="-27.2744392" lon="151.2900641">
  <ele>350.38</ele>
  <time>2026-09-01T19:56:40Z</time>
  <course>10.39</course>
  <speed>0.053851648071345036</speed>
  <fix>3d</fix>
</trkpt>
<trkpt lat="-27.274439" lon="151.290064">
  <ele>350.37</ele>
  <time>2026-09-01T19:56:40Z</time>
  <course>174.99</course>
  <speed>0.03</speed>
  <fix>3d</fix>
</trkpt>
<trkpt lat="-27.2744392" lon="151.2900641">
  <ele>350.3</ele>
  <time>2026-09-01T19:56:40Z</time>
  <course>10.38</course>
  <speed>0.053851648071345036</speed>
  <fix>3d</fix>
</trkpt>
<trkpt lat="-27.274439" lon="151.290064">
  <ele>350.37</ele>
  <time>2026-09-01T19:56:40Z</time>
  <course>174.99</course>
  <speed>0.03</speed>
  <fix>3d</fix>
</trkpt>
<trkpt lat="-27.2744392" lon="151.2900641">
  <ele>350.22</ele>
  <time>2026-09-01T19:56:40Z</time>
  <course>10.38</course>
  <speed>0.044721359549995794</speed>
  <fix>3d</fix>
</trkpt>
<trkpt lat="-27.2744391" lon="151.290064">
  <ele>350.21</ele>
  <time>2026-09-01T19:56:40Z</time>
  <course>172.88</course>
  <speed>0.03</speed>
  <fix>3d</fix>
</trkpt>
<trkpt lat="-27.2744392" lon="151.2900641">
  <ele>350.15</ele>
  <time>2026-09-01T19:56:40Z</time>
  <course>10.38</course>
  <speed>0.044721359549995794</speed>
  <fix>3d</fix>
</trkpt>
<trkpt lat="-27.2744391" lon="151.290064">
  <ele>350.21</ele>
  <time>2026-09-01T19:56:40Z</time>
  <course>172.88</course>
  <speed>0.03</speed>
  <fix>3d</fix>
</trkpt>
<trkpt lat="-27.2744393" lon="151.2900641">
  <ele>350.08</ele>
  <time>2026-09-01T19:56:40Z</time>
  <course>10.38</course>
  <speed>0.044721359549995794</speed>
  <fix>3d</fix>
</trkpt>
<trkpt lat="-27.2744391" lon="151.2900641">
  <ele>350.06</ele>
  <time>2026-09-01T19:56:40Z</time>
  <course>171.2</course>
  <speed>0.02</speed>
  <fix>3d</fix>
</trkpt>
<trkpt lat="-27.2744393" lon="151.2900641">
  <ele>350.01</ele>
  <time>2026-09-01T19:56:41Z</time>
  <course>10.4</course>
  <speed>0.044721359549995794</speed>
  <fix>3d</fix>
</trkpt>
<trkpt lat="-27.2744391" lon="151.2900641">
  <ele>350.06</ele>
  <time>2026-09-01T19:56:41Z</time>
  <course>171.2</course>
  <speed>0.02</speed>
  <fix>3d</fix>
</trkpt>
<trkpt lat="-27.2744393" lon="151.2900641">
  <ele>349.94</ele>
  <time>2026-09-01T19:56:41Z</time>
  <course>10.42</course>
  <speed>0.0412310562561766</speed>
  <fix>3d</fix>
</trkpt>
<trkpt lat="-27.2744392" lon="151.2900641">
  <ele>349.91</ele>
  <time>2026-09-01T19:56:41Z</time>
  <course>173.67</course>
  <speed>0.02</speed>
  <fix>3d</fix>
</trkpt>
<trkpt lat="-27.2744393" lon="151.2900641">
  <ele>349.87</ele>
  <time>2026-09-01T19:56:41Z</time>
  <course>10.45</course>
  <speed>0.0316227766016838</speed>
  <fix>3d</fix>
</trkpt>
<trkpt lat="-27.2744392" lon="151.2900641">
  <ele>349.91</ele>
  <time>2026-09-01T19:56:41Z</time>
  <course>173.67</course>
  <speed>0.02</speed>
  <fix>3d</fix>
</trkpt>
<trkpt lat="-27.2744393" lon="151.2900641">
  <ele>349.8</ele>
  <time>2026-09-01T19:56:41Z</time>
  <course>10.49</course>
  <speed>0.0316227766016838</speed>
  <fix>3d</fix>
</trkpt>
<trkpt lat="-27.2744392" lon="151.2900641">
  <ele>349.77</ele>
  <time>2026-09-01T19:56:41Z</time>
  <course>189.54</course>
  <speed>0.01</speed>
  <fix>3d</fix>
</trkpt>
<trkpt lat="-27.2744393" lon="151.2900641">
  <ele>349.74</ele>
  <time>2026-09-01T19:56:41Z</time>
  <course>10.53</course>
  <speed>0.03</speed>
  <fix>3d</fix>
</trkpt>
<trkpt lat="-27.2744392" lon="151.2900641">
  <ele>349.77</ele>
  <time>2026-09-01T19:56:41Z</time>
  <course>189.54</course>
  <speed>0.01</speed>
  <fix>3d</fix>
</trkpt>
<trkpt lat="-27.2744394" lon="151.2900641">
  <ele>349.67</ele>
  <time>2026-09-01T19:56:41Z</time>
  <course>10.57</course>
  <speed>0.02</speed>
  <fix>3d</fix>
</trkpt>
<trkpt lat="-27.2744392" lon="151.2900641">
  <ele>349.63</ele>
  <time>2026-09-01T19:56:41Z</time>
  <course>230.99</course>
  <speed>0.01</speed>
  <fix>3d</fix>
</trkpt>
<trkpt lat="-27.2744394" lon="151.2900641">
  <ele>349.61</ele>
  <time>2026-09-01T19:56:41Z</time>
  <course>10.61</course>
  <speed>0.02</speed>
  <fix>3d</fix>
</trkpt>
<trkpt lat="-27.2744392" lon="151.2900641">
  <ele>349.63</ele>
  <time>2026-09-01T19:56:41Z</time>
  <course>230.99</course>
  <speed>0.01</speed>
  <fix>3d</fix>
</trkpt>
<trkpt lat="-27.2744394" lon="151.2900641">
  <ele>349.54</ele>
  <time>2026-09-01T19:56:41Z</time>
  <course>10.64</course>
  <speed>0.02</speed>
  <fix>3d</fix>
</trkpt>
<trkpt lat="-27.2744393" lon="151.2900641">
  <ele>349.49</ele>
  <time>2026-09-01T19:56:41Z</time>
  <course>264.74</course>
  <speed>0.02</speed>
  <fix>3d</fix>
</trkpt>
<trkpt lat="-27.2744394" lon="151.2900641">
  <ele>349.48</ele>
  <time>2026-09-01T19:56:41Z</time>
  <course>10.66</course>
  <speed>0.01414213562373095</speed>
  <fix>3d</fix>
</trkpt>
<trkpt lat="-27.2744393" lon="151.2900641">
  <ele>349.49</ele>
  <time>2026-09-01T19:56:41Z</time>
  <course>264.74</course>
  <speed>0.02</speed>
  <fix>3d</fix>
</trkpt>
<trkpt lat="-27.2744394" lon="151.2900641">
  <ele>349.42</ele>
  <time>2026-09-01T19:56:41Z</time>
  <course>10.68</course>
  <speed>0.01414213562373095</speed>
  <fix>3d</fix>
</trkpt>
<trkpt lat="-27.2744393" lon="151.290064">
  <ele>349.36</ele>
  <time>2026-09-01T19:56:41Z</time>
  <course>278.0</course>
  <speed>0.03</speed>
  <fix>3d</fix>
</trkpt>
<trkpt lat="-27.2744394" lon="151.2900641">
  <ele>349.36</ele>
  <time>2026-09-01T19:56:41Z</time>
  <course>10.69</course>
  <speed>0.022360679774997897</speed>
  <fix>3d</fix>
</trkpt>
<trkpt lat="-27.2744393" lon="151.290064">
  <ele>349.36</ele>
  <time>2026-09-01T19:56:41Z</time>
  <course>278.0</course>
  <speed>0.03</speed>
  <fix>3d</fix>
</trkpt>
<trkpt lat="-27.2744394" lon="151.2900641">
  <ele>349.3</ele>
  <time>2026-09-01T19:56:41Z</time>
  <course>10.69</course>
  <speed>0.02</speed>
  <fix>3d</fix>
</trkpt>
<trkpt lat="-27.2744392" lon="151.2900639">
  <ele>349.23</ele>
  <time>2026-09-01T19:56:41Z</time>
  <course>284.08</course>
  <speed>0.04</speed>
  <fix>3d</fix>
</trkpt>
<trkpt lat="-27.2744394" lon="151.290064">
  <ele>349.24</ele>
  <time>2026-09-01T19:56:41Z</time>
  <course>10.7</course>
  <speed>0.03</speed>
  <fix>3d</fix>
</trkpt>
<trkpt lat="-27.2744392" lon="151.2900639">
  <ele>349.23</ele>
  <time>2026-09-01T19:56:41Z</time>
  <course>284.08</course>
  <speed>0.04</speed>
  <fix>3d</fix>
</trkpt>
<trkpt lat="-27.2744394" lon="151.290064">
  <ele>349.18</ele>
  <time>2026-09-01T19:56:41Z</time>
  <course>10.7</course>
  <speed>0.03</speed>
  <fix>3d</fix>
</trkpt>
<trkpt lat="-27.2744392" lon="151.2900638">
  <ele>349.11</ele>
  <time>2026-09-01T19:56:41Z</time>
  <course>287.63</course>
  <speed>0.05</speed>
  <fix>3d</fix>
</trkpt>
<trkpt lat="-27.2744394" lon="151.2900639">
  <ele>349.12</ele>
  <time>2026-09-01T19:56:41Z</time>
  <course>10.71</course>
  <speed>0.04</speed>
  <fix>3d</fix>
</trkpt>
<trkpt lat="-27.2744392" lon="151.2900638">
  <ele>349.11</ele>
  <time>2026-09-01T19:56:41Z</time>
  <course>287.63</course>
  <speed>0.05</speed>
  <fix>3d</fix>
</trkpt>
<trkpt lat="-27.2744394" lon="151.2900638">
  <ele>349.07</ele>
  <time>2026-09-01T19:56:41Z</time>
  <course>10.72</course>
  <speed>0.04</speed>
  <fix>3d</fix>
</trkpt>
<trkpt lat="-27.2744392" lon="151.2900637">
  <ele>348.99</ele>
  <time>2026-09-01T19:56:41Z</time>
  <course>290.16</course>
  <speed>0.06</speed>
  <fix>3d</fix>
</trkpt>
<trkpt lat="-27.2744394" lon="151.2900638">
  <ele>349.01</ele>
  <time>2026-09-01T19:56:41Z</time>
  <course>10.72</course>
  <speed>0.04</speed>
  <fix>3d</fix>
</trkpt>
<trkpt lat="-27.2744392" lon="151.2900637">
  <ele>348.99</ele>
  <time>2026-09-01T19:56:41Z</time>
  <course>290.16</course>
  <speed>0.06</speed>
  <fix>3d</fix>
</trkpt>
<trkpt lat="-27.2744393" lon="151.2900637">
  <ele>348.96</ele>
  <time>2026-09-01T19:56:41Z</time>
  <course>10.73</course>
  <speed>0.05</speed>
  <fix>3d</fix>
</trkpt>
<trkpt lat="-27.2744392" lon="151.2900636">
  <ele>348.87</ele>
  <time>2026-09-01T19:56:41Z</time>
  <course>292.26</course>
  <speed>0.07</speed>
  <fix>3d</fix>
</trkpt>
<trkpt lat="-27.2744393" lon="151.2900636">
  <ele>348.91</ele>
  <time>2026-09-01T19:56:41Z</time>
  <course>10.73</course>
  <speed>0.05</speed>
  <fix>3d</fix>
</trkpt>
<trkpt lat="-27.2744392" lon="151.2900636">
  <ele>348.87</ele>
  <time>2026-09-01T19:56:41Z</time>
  <course>292.26</course>
  <speed>0.07</speed>
  <fix>3d</fix>
</trkpt>
<trkpt lat="-27.2744393" lon="151.2900636">
  <ele>348.85</ele>
  <time>2026-09-01T19:56:41Z</time>
  <course>10.74</course>
  <speed>0.05099019513592785</speed>
  <fix>3d</fix>
</trkpt>
<trkpt lat="-27.2744392" lon="151.2900634">
  <ele>348.76</ele>
  <time>2026-09-01T19:56:41Z</time>
  <course>294.06</course>
  <speed>0.07</speed>
  <fix>3d</fix>
</trkpt>
<trkpt lat="-27.2744393" lon="151.2900635">
  <ele>348.8</ele>
  <time>2026-09-01T19:56:41Z</time>
  <course>10.74</course>
  <speed>0.05099019513592785</speed>
  <fix>3d</fix>
</trkpt>
<trkpt lat="-27.2744392" lon="151.2900634">
  <ele>348.76</ele>
  <time>2026-09-01T19:56:41Z</time>
  <course>294.06</course>
  <speed>0.07</speed>
  <fix>3d</fix>
</trkpt>
<trkpt lat="-27.2744392" lon="151.2900634">
  <ele>348.75</ele>
  <time>2026-09-01T19:56:41Z</time>
  <course>10.74</course>
  <speed>0.05099019513592785</speed>
  <fix>3d</fix>
</trkpt>
<trkpt lat="-27.2744391" lon="151.2900633">
  <ele>348.65</ele>
  <time>2026-09-01T19:56:41Z</time>
  <course>295.65</course>
  <speed>0.08</speed>
  <fix>3d</fix>
</trkpt>
<trkpt lat="-27.2744392" lon="151.2900633">
  <ele>348.7</ele>
  <time>2026-09-01T19:56:41Z</time>
  <course>10.74</course>
  <speed>0.05099019513592785</speed>
  <fix>3d</fix>
</trkpt>
<trkpt lat="-27.2744391" lon="151.2900633">
  <ele>348.65</ele>
  <time>2026-09-01T19:56:41Z</time>
  <course>295.65</course>
  <speed>0.08</speed>
  <fix>3d</fix>
</trkpt>
<trkpt lat="-27.2744392" lon="151.2900633">
  <ele>348.65</ele>
  <time>2026-09-01T19:56:41Z</time>
  <course>10.74</course>
  <speed>0.05099019513592785</speed>
  <fix>3d</fix>
</trkpt>
<trkpt lat="-27.274439" lon="151.2900632">
  <ele>348.55</ele>
  <time>2026-09-01T19:56:41Z</time>
  <course>297.26</course>
  <speed>0.08</speed>
  <fix>3d</fix>
</trkpt>
<trkpt lat="-27.2744391" lon="151.2900632">
  <ele>348.6</ele>
  <time>2026-09-01T19:56:41Z</time>
  <course>10.75</course>
  <speed>0.05099019513592785</speed>
  <fix>3d</fix>
</trkpt>
<trkpt lat="-27.274439" lon="151.2900632">
  <ele>348.55</ele>
  <time>2026-09-01T19:56:41Z</time>
  <course>297.26</course>
  <speed>0.08</speed>
  <fix>3d</fix>
</trkpt>
<trkpt lat="-27.2744391" lon="151.2900631">
  <ele>348.55</ele>
  <time>2026-09-01T19:56:41Z</time>
  <course>10.75</course>
  <speed>0.05099019513592785</speed>
  <fix>3d</fix>
</trkpt>
<trkpt lat="-27.2744389" lon="151.290063">
  <ele>348.45</ele>
  <time>2026-09-01T19:56:41Z</time>
  <course>299.15</course>
  <speed>0.08</speed>
  <fix>3d</fix>
</trkpt>
<trkpt lat="-27.2744391" lon="151.2900631">
  <ele>348.49</ele>
  <time>2026-09-01T19:56:41Z</time>
  <course>10.75</course>
  <speed>0.05099019513592785</speed>
  <fix>3d</fix>
</trkpt>
<trkpt lat="-27.2744389" lon="151.290063">
  <ele>348.45</ele>
  <time>2026-09-01T19:56:41Z</time>
  <course>299.15</course>
  <speed>0.08</speed>
  <fix>3d</fix>
</trkpt>
<trkpt lat="-27.2744391" lon="151.290063">
  <ele>348.44</ele>
  <time>2026-09-01T19:56:41Z</time>
  <course>10.75</course>
  <speed>0.0412310562561766</speed>
  <fix>3d</fix>
</trkpt>
<trkpt lat="-27.2744389" lon="151.2900629">
  <ele>348.34</ele>
  <time>2026-09-01T19:56:41Z</time>
  <course>301.41</course>
  <speed>0.08</speed>
  <fix>3d</fix>
</trkpt>
<trkpt lat="-27.274439" lon="151.2900629">
  <ele>348.39</ele>
  <time>2026-09-01T19:56:41Z</time>
  <course>10.75</course>
  <speed>0.0412310562561766</speed>
  <fix>3d</fix>
</trkpt>
<trkpt lat="-27.2744389" lon="151.2900629">
  <ele>348.34</ele>
  <time>2026-09-01T19:56:41Z</time>
  <course>301.41</course>
  <speed>0.08</speed>
  <fix>3d</fix>
</trkpt>
<trkpt lat="-27.274439" lon="151.2900629">
  <ele>348.34</ele>
  <time>2026-09-01T19:56:41Z</time>
  <course>10.75</course>
  <speed>0.0412310562561766</speed>
  <fix>3d</fix>
</trkpt>
<trkpt lat="-27.2744388" lon="151.2900627">
  <ele>348.24</ele>
  <time>2026-09-01T19:56:41Z</time>
  <course>304.06</course>
  <speed>0.08</speed>
  <fix>3d</fix>
</trkpt>
<trkpt lat="-27.2744389" lon="151.2900628">
  <ele>348.29</ele>
  <time>2026-09-01T19:56:41Z</time>
  <course>10.75</course>
  <speed>0.0412310562561766</speed>
  <fix>3d</fix>
</trkpt>
<trkpt lat="-27.2744388" lon="151.2900627">
  <ele>348.24</ele>
  <time>2026-09-01T19:56:41Z</time>
  <course>304.06</course>
  <speed>0.08</speed>
  <fix>3d</fix>
</trkpt>
<trkpt lat="-27.2744389" lon="151.2900627">
  <ele>348.24</ele>
  <time>2026-09-01T19:56:41Z</time>
  <course>10.75</course>
  <speed>0.0316227766016838</speed>
  <fix>3d</fix>
</trkpt>
<trkpt lat="-27.2744387" lon="151.2900626">
  <ele>348.14</ele>
  <time>2026-09-01T19:56:41Z</time>
  <course>307.17</course>
  <speed>0.07</speed>
  <fix>3d</fix>
</trkpt>
<trkpt lat="-27.2744389" lon="151.2900627">
  <ele>348.19</ele>
  <time>2026-09-01T19:56:41Z</time>
  <course>10.76</course>
  <speed>0.0316227766016838</speed>
  <fix>3d</fix>
</trkpt>
<trkpt lat="-27.2744387" lon="151.2900626">
  <ele>348.14</ele>
  <time>2026-09-01T19:56:41Z</time>
  <course>307.17</course>
  <speed>0.07</speed>
  <fix>3d</fix>
</trkpt>
<trkpt lat="-27.2744388" lon="151.2900626">
  <ele>348.14</ele>
  <time>2026-09-01T19:56:41Z</time>
  <course>10.76</course>
  <speed>0.0316227766016838</speed>
  <fix>3d</fix>
</trkpt>
<trkpt lat="-27.2744386" lon="151.2900624">
  <ele>348.03</ele>
  <time>2026-09-01T19:56:41Z</time>
  <course>310.91</course>
  <speed>0.07</speed>
  <fix>3d</fix>
</trkpt>
<trkpt lat="-27.2744388" lon="151.2900626">
  <ele>348.08</ele>
  <time>2026-09-01T19:56:41Z</time>
  <course>10.75</course>
  <speed>0.022360679774997897</speed>
  <fix>3d</fix>
</trkpt>
<trkpt lat="-27.2744386" lon="151.2900624">
  <ele>348.03</ele>
  <time>2026-09-01T19:56:41Z</time>
  <course>310.91</course>
  <speed>0.07</speed>
  <fix>3d</fix>
</trkpt>
<trkpt lat="-27.2744388" lon="151.2900625">
  <ele>348.03</ele>
  <time>2026-09-01T19:56:41Z</time>
  <course>10.75</course>
  <speed>0.022360679774997897</speed>
  <fix>3d</fix>
</trkpt>
<trkpt lat="-27.2744385" lon="151.2900623">
  <ele>347.93</ele>
  <time>2026-09-01T19:56:41Z</time>
  <course>315.54</course>
  <speed>0.06</speed>
  <fix>3d</fix>
</trkpt>
<trkpt lat="-27.2744387" lon="151.2900625">
  <ele>347.98</ele>
  <time>2026-09-01T19:56:41Z</time>
  <course>10.76</course>
  <speed>0.022360679774997897</speed>
  <fix>3d</fix>
</trkpt>
<trkpt lat="-27.2744385" lon="151.2900623">
  <ele>347.93</ele>
  <time>2026-09-01T19:56:41Z</time>
  <course>315.54</course>
  <speed>0.06</speed>
  <fix>3d</fix>
</trkpt>
<trkpt lat="-27.2744387" lon="151.2900625">
  <ele>347.93</ele>
  <time>2026-09-01T19:56:41Z</time>
  <course>10.76</course>
  <speed>0.01414213562373095</speed>
  <fix>3d</fix>
</trkpt>
<trkpt lat="-27.2744385" lon="151.2900623">
  <ele>347.83</ele>
  <time>2026-09-01T19:56:41Z</time>
  <course>321.3</course>
  <speed>0.05</speed>
  <fix>3d</fix>
</trkpt>
<trkpt lat="-27.2744386" lon="151.2900624">
  <ele>347.88</ele>
  <time>2026-09-01T19:56:41Z</time>
  <course>10.77</course>
  <speed>0.01414213562373095</speed>
  <fix>3d</fix>
</trkpt>
<trkpt lat="-27.2744385" lon="151.2900623">
  <ele>347.83</ele>
  <time>2026-09-01T19:56:41Z</time>
  <course>321.3</course>
  <speed>0.05</speed>
  <fix>3d</fix>
</trkpt>
<trkpt lat="-27.2744386" lon="151.2900624">
  <ele>347.83</ele>
  <time>2026-09-01T19:56:41Z</time>
  <course>10.77</course>
  <speed>0.01</speed>
  <fix>3d</fix>
</trkpt>
<trkpt lat="-27.2744384" lon="151.2900622">
  <ele>347.72</ele>
  <time>2026-09-01T19:56:41Z</time>
  <course>328.39</course>
  <speed>0.05</speed>
  <fix>3d</fix>
</trkpt>
<trkpt lat="-27.2744386" lon="151.2900624">
  <ele>347.78</ele>
  <time>2026-09-01T19:56:41Z</time>
  <course>10.78</course>
  <speed>0.01</speed>
  <fix>3d</fix>
</trkpt>
<trkpt lat="-27.2744384" lon="151.2900622">
  <ele>347.72</ele>
  <time>2026-09-01T19:56:41Z</time>
  <course>328.39</course>
  <speed>0.05</speed>
  <fix>3d</fix>
</trkpt>
<trkpt lat="-27.2744385" lon="151.2900624">
  <ele>347.73</ele>
  <time>2026-09-01T19:56:41Z</time>
  <course>10.78</course>
  <speed>0.01</speed>
  <fix>3d</fix>
</trkpt>
<trkpt lat="-27.2744383" lon="151.2900622">
  <ele>347.63</ele>
  <time>2026-09-01T19:56:41Z</time>
  <course>337.13</course>
  <speed>0.04</speed>
  <fix>3d</fix>
</trkpt>
<trkpt lat="-27.2744385" lon="151.2900623">
  <ele>347.68</ele>
  <time>2026-09-01T19:56:41Z</time>
  <course>10.78</course>
  <speed>0.0</speed>
  <fix>3d</fix>
</trkpt>
<trkpt lat="-27.2744383" lon="151.2900622">
  <ele>347.63</ele>
  <time>2026-09-01T19:56:41Z</time>
  <course>337.13</course>
  <speed>0.04</speed>
  <fix>3d</fix>
</trkpt>
<trkpt lat="-27.2744385" lon="151.2900623">
  <ele>347.63</ele>
  <time>2026-09-01T19:56:41Z</time>
  <course>10.79</course>
  <speed>0.01</speed>
  <fix>3d</fix>
</trkpt>
<trkpt lat="-27.2744382" lon="151.2900622">
  <ele>347.52</ele>
  <time>2026-09-01T19:56:41Z</time>
  <course>347.85</course>
  <speed>0.04</speed>
  <fix>3d</fix>
</trkpt>
<trkpt lat="-27.2744384" lon="151.2900623">
  <ele>347.58</ele>
  <time>2026-09-01T19:56:41Z</time>
  <course>10.79</course>
  <speed>0.01</speed>
  <fix>3d</fix>
</trkpt>
<trkpt lat="-27.2744382" lon="151.2900622">
  <ele>347.52</ele>
  <time>2026-09-01T19:56:41Z</time>
  <course>347.85</course>
  <speed>0.04</speed>
  <fix>3d</fix>
</trkpt>
<trkpt lat="-27.2744384" lon="151.2900623">
  <ele>347.53</ele>
  <time>2026-09-01T19:56:41Z</time>
  <course>10.79</course>
  <speed>0.02</speed>
  <fix>3d</fix>
</trkpt>
<trkpt lat="-27.2744381" lon="151.2900622">
  <ele>347.41</ele>
  <time>2026-09-01T19:56:41Z</time>
  <course>0.76</course>
  <speed>0.03</speed>
  <fix>3d</fix>
</trkpt>
<trkpt lat="-27.2744384" lon="151.2900623">
  <ele>347.48</ele>
  <time>2026-09-01T19:56:41Z</time>
  <course>10.8</course>
  <speed>0.02</speed>
  <fix>3d</fix>
</trkpt>
<trkpt lat="-27.2744381" lon="151.2900622">
  <ele>347.41</ele>
  <time>2026-09-01T19:56:41Z</time>
  <course>0.76</course>
  <speed>0.03</speed>
  <fix>3d</fix>
</trkpt>
<trkpt lat="-27.2744384" lon="151.2900624">
  <ele>347.43</ele>
  <time>2026-09-01T19:56:41Z</time>
  <course>10.8</course>
  <speed>0.02</speed>
  <fix>3d</fix>
</trkpt>
<trkpt lat="-27.2744381" lon="151.2900622">
  <ele>347.32</ele>
  <time>2026-09-01T19:56:41Z</time>
  <course>14.62</course>
  <speed>0.03</speed>
  <fix>3d</fix>
</trkpt>
<trkpt lat="-27.2744383" lon="151.2900624">
  <ele>347.37</ele>
  <time>2026-09-01T19:56:41Z</time>
  <course>10.81</course>
  <speed>0.03</speed>
  <fix>3d</fix>
</trkpt>
<trkpt lat="-27.2744381" lon="151.2900622">
  <ele>347.32</ele>
  <time>2026-09-01T19:56:41Z</time>
  <course>14.62</course>
  <speed>0.03</speed>
  <fix>3d</fix>
</trkpt>
<trkpt lat="-27.2744383" lon="151.2900624">
  <ele>347.32</ele>
  <time>2026-09-01T19:56:41Z</time>
  <course>10.82</course>
  <speed>0.03</speed>
  <fix>3d</fix>
</trkpt>
<trkpt lat="-27.274438" lon="151.2900622">
  <ele>347.22</ele>
  <time>2026-09-01T19:56:41Z</time>
  <course>26.86</course>
  <speed>0.03</speed>
  <fix>3d</fix>
</trkpt>
<trkpt lat="-27.2744383" lon="151.2900624">
  <ele>347.28</ele>
  <time>2026-09-01T19:56:41Z</time>
  <course>10.83</course>
  <speed>0.03</speed>
  <fix>3d</fix>
</trkpt>
<trkpt lat="-27.274438" lon="151.2900622">
  <ele>347.22</ele>
  <time>2026-09-01T19:56:41Z</time>
  <course>26.86</course>
  <speed>0.03</speed>
  <fix>3d</fix>
</trkpt>
<trkpt lat="-27.2744382" lon="151.2900624">
  <ele>347.23</ele>
  <time>2026-09-01T19:56:41Z</time>
  <course>10.83</course>
  <speed>0.04</speed>
  <fix>3d</fix>
</trkpt>
<trkpt lat="-27.274438" lon="151.2900622">
  <ele>347.12</ele>
  <time>2026-09-01T19:56:41Z</time>
  <course>37.7</course>
  <speed>0.03</speed>
  <fix>3d</fix>
</trkpt>
<trkpt lat="-27.2744382" lon="151.2900624">
  <ele>347.18</ele>
  <time>2026-09-01T19:56:41Z</time>
  <course>10.83</course>
  <speed>0.04</speed>
  <fix>3d</fix>
</trkpt>
<trkpt lat="-27.274438" lon="151.2900622">
  <ele>347.12</ele>
  <time>2026-09-01T19:56:41Z</time>
  <course>37.7</course>
  <speed>0.03</speed>
  <fix>3d</fix>
</trkpt>
<trkpt lat="-27.2744382" lon="151.2900624">
  <ele>347.12</ele>
  <time>2026-09-01T19:56:41Z</time>
  <course>10.83</course>
  <speed>0.04</speed>
  <fix>3d</fix>
</trkpt>
<trkpt lat="-27.2744379" lon="151.2900622">
  <ele>347.02</ele>
  <time>2026-09-01T19:56:41Z</time>
  <course>47.9</course>
  <speed>0.03</speed>
  <fix>3d</fix>
</trkpt>
<trkpt lat="-27.2744382" lon="151.2900624">
  <ele>347.07</ele>
  <time>2026-09-01T19:56:41Z</time>
  <course>10.83</course>
  <speed>0.04</speed>
  <fix>3d</fix>
</trkpt>
<trkpt lat="-27.2744379" lon="151.2900622">
  <ele>347.02</ele>
  <time>2026-09-01T19:56:41Z</time>
  <course>47.9</course>
  <speed>0.03</speed>
  <fix>3d</fix>
</trkpt>
<trkpt lat="-27.2744382" lon="151.2900625">
  <ele>347.02</ele>
  <time>2026-09-01T19:56:41Z</time>
  <course>10.84</course>
  <speed>0.0412310562561766</speed>
  <fix>3d</fix>
</trkpt>
<trkpt lat="-27.2744379" lon="151.2900622">
  <ele>346.91</ele>
  <time>2026-09-01T19:56:41Z</time>
  <course>56.78</course>
  <speed>0.04</speed>
  <fix>3d</fix>
</trkpt>
<trkpt lat="-27.2744381" lon="151.2900625">
  <ele>346.97</ele>
  <time>2026-09-01T19:56:41Z</time>
  <course>10.85</course>
  <speed>0.05099019513592785</speed>
  <fix>3d</fix>
</trkpt>
<trkpt lat="-27.2744379" lon="151.2900622">
  <ele>346.91</ele>
  <time>2026-09-01T19:56:41Z</time>
  <course>56.78</course>
  <speed>0.04</speed>
  <fix>3d</fix>
</trkpt>
<trkpt lat="-27.2744381" lon="151.2900625">
  <ele>346.92</ele>
  <time>2026-09-01T19:56:41Z</time>
  <course>10.85</course>
  <speed>0.05099019513592785</speed>
  <fix>3d</fix>
</trkpt>
<trkpt lat="-27.2744379" lon="151.2900623">
  <ele>346.82</ele>
  <time>2026-09-01T19:56:41Z</time>
  <course>64.47</course>
  <speed>0.04</speed>
  <fix>3d</fix>
</trkpt>
<trkpt lat="-27.2744381" lon="151.2900625">
  <ele>346.87</ele>
  <time>2026-09-01T19:56:41Z</time>
  <course>10.86</course>
  <speed>0.05099019513592785</speed>
  <fix>3d</fix>
</trkpt>
<trkpt lat="-27.2744379" lon="151.2900623">
  <ele>346.82</ele>
  <time>2026-09-01T19:56:41Z</time>
  <course>64.47</course>
  <speed>0.04</speed>
  <fix>3d</fix>
</trkpt>
<trkpt lat="-27.2744381" lon="151.2900626">
  <ele>346.82</ele>
  <time>2026-09-01T19:56:41Z</time>
  <course>10.86</course>
  <speed>0.05099019513592785</speed>
  <fix>3d</fix>
</trkpt>
<trkpt lat="-27.2744378" lon="151.2900624">
  <ele>346.72</ele>
  <time>2026-09-01T19:56:41Z</time>
  <course>71.52</course>
  <speed>0.04</speed>
  <fix>3d</fix>
</trkpt>
<trkpt lat="-27.2744381" lon="151.2900626">
  <ele>346.77</ele>
  <time>2026-09-01T19:56:41Z</time>
  <course>10.86</course>
  <speed>0.053851648071345036</speed>
  <fix>3d</fix>
</trkpt>
<trkpt lat="-27.2744378" lon="151.2900624">
  <ele>346.72</ele>
  <time>2026-09-01T19:56:41Z</time>
  <course>71.52</course>
  <speed>0.04</speed>
  <fix>3d</fix>
</trkpt>
<trkpt lat="-27.2744381" lon="151.2900627">
  <ele>346.72</ele>
  <time>2026-09-01T19:56:41Z</time>
  <course>10.85</course>
  <speed>0.053851648071345036</speed>
  <fix>3d</fix>
</trkpt>
<trkpt lat="-27.2744378" lon="151.2900625">
  <ele>346.63</ele>
  <time>2026-09-01T19:56:41Z</time>
  <course>78.04</course>
  <speed>0.04</speed>
  <fix>3d</fix>
</trkpt>
<trkpt lat="-27.2744381" lon="151.2900627">
  <ele>346.67</ele>
  <time>2026-09-01T19:56:41Z</time>
  <course>10.85</course>
  <speed>0.053851648071345036</speed>
  <fix>3d</fix>
</trkpt>
<trkpt lat="-27.2744378" lon="151.2900625">
  <ele>346.63</ele>
  <time>2026-09-01T19:56:41Z</time>
  <course>78.04</course>
  <speed>0.04</speed>
  <fix>3d</fix>
</trkpt>
<trkpt lat="-27.2744381" lon="151.2900627">
  <ele>346.62</ele>
  <time>2026-09-01T19:56:41Z</time>
  <course>10.85</course>
  <speed>0.053851648071345036</speed>
  <fix>3d</fix>
</trkpt>
<trkpt lat="-27.2744378" lon="151.2900625">
  <ele>346.53</ele>
  <time>2026-09-01T19:56:41Z</time>
  <course>83.87</course>
  <speed>0.04</speed>
  <fix>3d</fix>
</trkpt>
<trkpt lat="-27.2744381" lon="151.2900628">
  <ele>346.57</ele>
  <time>2026-09-01T19:56:41Z</time>
  <course>10.85</course>
  <speed>0.053851648071345036</speed>
  <fix>3d</fix>
</trkpt>
<trkpt lat="-27.2744378" lon="151.2900625">
  <ele>346.53</ele>
  <time>2026-09-01T19:56:41Z</time>
  <course>83.87</course>
  <speed>0.04</speed>
  <fix>3d</fix>
</trkpt>
<trkpt lat="-27.2744381" lon="151.2900628">
  <ele>346.52</ele>
  <time>2026-09-01T19:56:41Z</time>
  <course>10.86</course>
  <speed>0.05830951894845301</speed>
  <fix>3d</fix>
</trkpt>
<trkpt lat="-27.2744378" lon="151.2900626">
  <ele>346.43</ele>
  <time>2026-09-01T19:56:41Z</time>
  <course>88.9</course>
  <speed>0.04</speed>
  <fix>3d</fix>
</trkpt>
<trkpt lat="-27.2744381" lon="151.2900628">
  <ele>346.47</ele>
  <time>2026-09-01T19:56:41Z</time>
  <course>10.86</course>
  <speed>0.05830951894845301</speed>
  <fix>3d</fix>
</trkpt>
<trkpt lat="-27.2744378" lon="151.2900626">
  <ele>346.43</ele>
  <time>2026-09-01T19:56:41Z</time>
  <course>88.9</course>
  <speed>0.04</speed>
  <fix>3d</fix>
</trkpt>
<trkpt lat="-27.2744381" lon="151.2900629">
  <ele>346.42</ele>
  <time>2026-09-01T19:56:41Z</time>
  <course>10.86</course>
  <speed>0.05830951894845301</speed>
  <fix>3d</fix>
</trkpt>
<trkpt lat="-27.2744378" lon="151.2900627">
  <ele>346.33</ele>
  <time>2026-09-01T19:56:41Z</time>
  <course>93.38</course>
  <speed>0.04</speed>
  <fix>3d</fix>
</trkpt>
<trkpt lat="-27.2744381" lon="151.2900629">
  <ele>346.38</ele>
  <time>2026-09-01T19:56:41Z</time>
  <course>10.86</course>
  <speed>0.05830951894845301</speed>
  <fix>3d</fix>
</trkpt>
<trkpt lat="-27.2744378" lon="151.2900627">
  <ele>346.33</ele>
  <time>2026-09-01T19:56:41Z</time>
  <course>93.38</course>
  <speed>0.04</speed>
  <fix>3d</fix>
</trkpt>
<trkpt lat="-27.2744381" lon="151.2900629">
  <ele>346.33</ele>
  <time>2026-09-01T19:56:41Z</time>
  <course>10.86</course>
  <speed>0.05830951894845301</speed>
  <fix>3d</fix>
</trkpt>
<trkpt lat="-27.2744378" lon="151.2900628">
  <ele>346.22</ele>
  <time>2026-09-01T19:56:41Z</time>
  <course>97.32</course>
  <speed>0.04</speed>
  <fix>3d</fix>
</trkpt>
<trkpt lat="-27.2744381" lon="151.290063">
  <ele>346.28</ele>
  <time>2026-09-01T19:56:41Z</time>
  <course>10.86</course>
  <speed>0.05830951894845301</speed>
  <fix>3d</fix>
</trkpt>
<trkpt lat="-27.2744378" lon="151.2900628">
  <ele>346.22</ele>
  <time>2026-09-01T19:56:41Z</time>
  <course>97.32</course>
  <speed>0.04</speed>
  <fix>3d</fix>
</trkpt>
<trkpt lat="-27.2744381" lon="151.290063">
  <ele>346.23</ele>
  <time>2026-09-01T19:56:41Z</time>
  <course>10.86</course>
  <speed>0.05830951894845301</speed>
  <fix>3d</fix>
</trkpt>
<trkpt lat="-27.2744378" lon="151.2900629">
  <ele>346.13</ele>
  <time>2026-09-01T19:56:41Z</time>
  <course>100.31</course>
  <speed>0.04</speed>
  <fix>3d</fix>
</trkpt>
<trkpt lat="-27.2744381" lon="151.2900631">
  <ele>346.18</ele>
  <time>2026-09-01T19:56:41Z</time>
  <course>10.86</course>
  <speed>0.05830951894845301</speed>
  <fix>3d</fix>
</trkpt>
<trkpt lat="-27.2744378" lon="151.2900629">
  <ele>346.13</ele>
  <time>2026-09-01T19:56:41Z</time>
  <course>100.31</course>
  <speed>0.04</speed>
  <fix>3d</fix>
</trkpt>
<trkpt lat="-27.2744381" lon="151.2900631">
  <ele>346.13</ele>
  <time>2026-09-01T19:56:41Z</time>
  <course>10.86</course>
  <speed>0.05</speed>
  <fix>3d</fix>
</trkpt>
<trkpt lat="-27.2744378" lon="151.290063">
  <ele>346.03</ele>
  <time>2026-09-01T19:56:41Z</time>
  <course>102.79</course>
  <speed>0.04</speed>
  <fix>3d</fix>
</trkpt>
<trkpt lat="-27.2744381" lon="151.2900631">
  <ele>346.08</ele>
  <time>2026-09-01T19:56:41Z</time>
  <course>10.86</course>
  <speed>0.05</speed>
  <fix>3d</fix>
</trkpt>
<trkpt lat="-27.2744378" lon="151.290063">
  <ele>346.03</ele>
  <time>2026-09-01T19:56:41Z</time>
  <course>102.79</course>
  <speed>0.04</speed>
  <fix>3d</fix>
</trkpt>
<trkpt lat="-27.2744381" lon="151.2900632">
  <ele>346.03</ele>
  <time>2026-09-01T19:56:41Z</time>
  <course>10.86</course>
  <speed>0.05</speed>
  <fix>3d</fix>
</trkpt>
<trkpt lat="-27.2744378" lon="151.2900631">
  <ele>345.93</ele>
  <time>2026-09-01T19:56:41Z</time>
  <course>105.63</course>
  <speed>0.04</speed>
  <fix>3d</fix>
</trkpt>
<trkpt lat="-27.2744381" lon="151.2900632">
  <ele>345.98</ele>
  <time>2026-09-01T19:56:41Z</time>
  <course>10.86</course>
  <speed>0.05</speed>
  <fix>3d</fix>
</trkpt>
<trkpt lat="-27.2744378" lon="151.2900631">
  <ele>345.93</ele>
  <time>2026-09-01T19:56:41Z</time>
  <course>105.63</course>
  <speed>0.04</speed>
  <fix>3d</fix>
</trkpt>
<trkpt lat="-27.2744381" lon="151.2900632">
  <ele>345.93</ele>
  <time>2026-09-01T19:56:41Z</time>
  <course>10.86</course>
  <speed>0.05</speed>
  <fix>3d</fix>
</trkpt>
<trkpt lat="-27.2744378" lon="151.2900632">
  <ele>345.83</ele>
  <time>2026-09-01T19:56:41Z</time>
  <course>109.04</course>
  <speed>0.04</speed>
  <fix>3d</fix>
</trkpt>
<trkpt lat="-27.2744381" lon="151.2900633">
  <ele>345.88</ele>
  <time>2026-09-01T19:56:41Z</time>
  <course>10.86</course>
  <speed>0.0565685424949238</speed>
  <fix>3d</fix>
</trkpt>
<trkpt lat="-27.2744378" lon="151.2900632">
  <ele>345.83</ele>
  <time>2026-09-01T19:56:41Z</time>
  <course>109.04</course>
  <speed>0.04</speed>
  <fix>3d</fix>
</trkpt>
<trkpt lat="-27.2744381" lon="151.2900633">
  <ele>345.83</ele>
  <time>2026-09-01T19:56:41Z</time>
  <course>10.87</course>
  <speed>0.0565685424949238</speed>
  <fix>3d</fix>
</trkpt>
<trkpt lat="-27.2744378" lon="151.2900632">
  <ele>345.72</ele>
  <time>2026-09-01T19:56:41Z</time>
  <course>113.18</course>
  <speed>0.03</speed>
  <fix>3d</fix>
</trkpt>
<trkpt lat="-27.2744381" lon="151.2900633">
  <ele>345.78</ele>
  <time>2026-09-01T19:56:41Z</time>
  <course>10.87</course>
  <speed>0.05</speed>
  <fix>3d</fix>
</trkpt>
<trkpt lat="-27.2744378" lon="151.2900632">
  <ele>345.72</ele>
  <time>2026-09-01T19:56:41Z</time>
  <course>113.18</course>
  <speed>0.03</speed>
  <fix>3d</fix>
</trkpt>
<trkpt lat="-27.2744381" lon="151.2900634">
  <ele>345.73</ele>
  <time>2026-09-01T19:56:41Z</time>
  <course>10.87</course>
  <speed>0.05</speed>
  <fix>3d</fix>
</trkpt>
<trkpt lat="-27.2744378" lon="151.2900633">
  <ele>345.63</ele>
  <time>2026-09-01T19:56:41Z</time>
  <course>117.92</course>
  <speed>0.03</speed>
  <fix>3d</fix>
</trkpt>
<trkpt lat="-27.2744381" lon="151.2900634">
  <ele>345.68</ele>
  <time>2026-09-01T19:56:41Z</time>
  <course>10.87</course>
  <speed>0.05</speed>
  <fix>3d</fix>
</trkpt>
<trkpt lat="-27.2744378" lon="151.2900633">
  <ele>345.63</ele>
  <time>2026-09-01T19:56:41Z</time>
  <course>117.92</course>
  <speed>0.03</speed>
  <fix>3d</fix>
</trkpt>
<trkpt lat="-27.2744381" lon="151.2900634">
  <ele>345.63</ele>
  <time>2026-09-01T19:56:41Z</time>
  <course>10.87</course>
  <speed>0.05</speed>
  <fix>3d</fix>
</trkpt>
<trkpt lat="-27.2744379" lon="151.2900634">
  <ele>345.53</ele>
  <time>2026-09-01T19:56:41Z</time>
  <course>122.92</course>
  <speed>0.03</speed>
  <fix>3d</fix>
</trkpt>
<trkpt lat="-27.2744381" lon="151.2900634">
  <ele>345.58</ele>
  <time>2026-09-01T19:56:41Z</time>
  <course>10.87</course>
  <speed>0.05</speed>
  <fix>3d</fix>
</trkpt>
<trkpt lat="-27.2744379" lon="151.2900634">
  <ele>345.53</ele>
  <time>2026-09-01T19:56:41Z</time>
  <course>122.92</course>
  <speed>0.03</speed>
  <fix>3d</fix>
</trkpt>
<trkpt lat="-27.2744381" lon="151.2900635">
  <ele>345.53</ele>
  <time>2026-09-01T19:56:41Z</time>
  <course>10.87</course>
  <speed>0.05</speed>
  <fix>3d</fix>
</trkpt>
<trkpt lat="-27.2744379" lon="151.2900635">
  <ele>345.43</ele>
  <time>2026-09-01T19:56:41Z</time>
  <course>128.22</course>
  <speed>0.03</speed>
  <fix>3d</fix>
</trkpt>
<trkpt lat="-27.2744381" lon="151.2900635">
  <ele>345.48</ele>
  <time>2026-09-01T19:56:41Z</time>
  <course>10.87</course>
  <speed>0.044721359549995794</speed>
  <fix>3d</fix>
</trkpt>
<trkpt lat="-27.2744379" lon="151.2900635">
  <ele>345.43</ele>
  <time>2026-09-01T19:56:41Z</time>
  <course>128.22</course>
  <speed>0.03</speed>
  <fix>3d</fix>
</trkpt>
<trkpt lat="-27.2744382" lon="151.2900635">
  <ele>345.43</ele>
  <time>2026-09-01T19:56:41Z</time>
  <course>10.87</course>
  <speed>0.044721359549995794</speed>
  <fix>3d</fix>
</trkpt>
<trkpt lat="-27.2744379" lon="151.2900635">
  <ele>345.33</ele>
  <time>2026-09-01T19:56:41Z</time>
  <course>134.18</course>
  <speed>0.03</speed>
  <fix>3d</fix>
</trkpt>
<trkpt lat="-27.2744382" lon="151.2900635">
  <ele>345.38</ele>
  <time>2026-09-01T19:56:41Z</time>
  <course>10.87</course>
  <speed>0.044721359549995794</speed>
  <fix>3d</fix>
</trkpt>
<trkpt lat="-27.2744379" lon="151.2900635">
  <ele>345.33</ele>
  <time>2026-09-01T19:56:41Z</time>
  <course>134.18</course>
  <speed>0.03</speed>
  <fix>3d</fix>
</trkpt>
<trkpt lat="-27.2744382" lon="151.2900636">
  <ele>345.33</ele>
  <time>2026-09-01T19:56:41Z</time>
  <course>10.87</course>
  <speed>0.044721359549995794</speed>
  <fix>3d</fix>
</trkpt>
<trkpt lat="-27.274438" lon="151.2900635">
  <ele>345.22</ele>
  <time>2026-09-01T19:56:41Z</time>
  <course>141.18</course>
  <speed>0.02</speed>
  <fix>3d</fix>
</trkpt>
<trkpt lat="-27.2744382" lon="151.2900636">
  <ele>345.28</ele>
  <time>2026-09-01T19:56:41Z</time>
  <course>10.87</course>
  <speed>0.044721359549995794</speed>
  <fix>3d</fix>
</trkpt>
<trkpt lat="-27.274438" lon="151.2900635">
  <ele>345.22</ele>
  <time>2026-09-01T19:56:41Z</time>
  <course>141.18</course>
  <speed>0.02</speed>
  <fix>3d</fix>
</trkpt>
<trkpt lat="-27.2744382" lon="151.2900636">
  <ele>345.23</ele>
  <time>2026-09-01T19:56:41Z</time>
  <course>10.87</course>
  <speed>0.0412310562561766</speed>
  <fix>3d</fix>
</trkpt>
<trkpt lat="-27.274438" lon="151.2900636">
  <ele>345.13</ele>
  <time>2026-09-01T19:56:41Z</time>
  <course>149.72</course>
  <speed>0.02</speed>
  <fix>3d</fix>
</trkpt>
<trkpt lat="-27.2744382" lon="151.2900636">
  <ele>345.18</ele>
  <time>2026-09-01T19:56:41Z</time>
  <course>10.88</course>
  <speed>0.0412310562561766</speed>
  <fix>3d</fix>
</trkpt>
<trkpt lat="-27.274438" lon="151.2900636">
  <ele>345.13</ele>
  <time>2026-09-01T19:56:41Z</time>
  <course>149.72</course>
  <speed>0.02</speed>
  <fix>3d</fix>
</trkpt>
<trkpt lat="-27.2744382" lon="151.2900636">
  <ele>345.13</ele>
  <time>2026-09-01T19:56:41Z</time>
  <course>10.88</course>
  <speed>0.0412310562561766</speed>
  <fix>3d</fix>
</trkpt>
<trkpt lat="-27.274438" lon="151.2900636">
  <ele>345.03</ele>
  <time>2026-09-01T19:56:41Z</time>
  <course>160.54</course>
  <speed>0.02</speed>
  <fix>3d</fix>
</trkpt>
<trkpt lat="-27.2744382" lon="151.2900636">
  <ele>345.08</ele>
  <time>2026-09-01T19:56:41Z</time>
  <course>10.89</course>
  <speed>0.0412310562561766</speed>
  <fix>3d</fix>
</trkpt>
<trkpt lat="-27.274438" lon="151.2900636">
  <ele>345.03</ele>
  <time>2026-09-01T19:56:41Z</time>
  <course>160.54</course>
  <speed>0.02</speed>
  <fix>3d</fix>
</trkpt>
<trkpt lat="-27.2744383" lon="151.2900636">
  <ele>345.03</ele>
  <time>2026-09-01T19:56:41Z</time>
  <course>10.9</course>
  <speed>0.03</speed>
  <fix>3d</fix>
</trkpt>
<trkpt lat="-27.2744381" lon="151.2900636">
  <ele>344.93</ele>
  <time>2026-09-01T19:56:41Z</time>
  <course>174.59</course>
  <speed>0.02</speed>
  <fix>3d</fix>
</trkpt>
<trkpt lat="-27.2744383" lon="151.2900636">
  <ele>344.98</ele>
  <time>2026-09-01T19:56:41Z</time>
  <course>10.91</course>
  <speed>0.03</speed>
  <fix>3d</fix>
</trkpt>
<trkpt lat="-27.2744381" lon="151.2900636">
  <ele>344.93</ele>
  <time>2026-09-01T19:56:41Z</time>
  <course>174.59</course>
  <speed>0.02</speed>
  <fix>3d</fix>
</trkpt>
<trkpt lat="-27.2744383" lon="151.2900636">
  <ele>344.93</ele>
  <time>2026-09-01T19:56:41Z</time>
  <course>10.88</course>
  <speed>0.03</speed>
  <fix>3d</fix>
</trkpt>
<trkpt lat="-27.2744381" lon="151.2900636">
  <ele>344.84</ele>
  <time>2026-09-01T19:56:41Z</time>
  <course>186.64</course>
  <speed>0.02</speed>
  <fix>3d</fix>
</trkpt>
<trkpt lat="-27.2744383" lon="151.2900636">
  <ele>344.88</ele>
  <time>2026-09-01T19:56:41Z</time>
  <course>10.84</course>
  <speed>0.03</speed>
  <fix>3d</fix>
</trkpt>
<trkpt lat="-27.2744381" lon="151.2900636">
  <ele>344.84</ele>
  <time>2026-09-01T19:56:41Z</time>
  <course>186.64</course>
  <speed>0.02</speed>
  <fix>3d</fix>
</trkpt>
<trkpt lat="-27.2744383" lon="151.2900636">
  <ele>344.83</ele>
  <time>2026-09-01T19:56:41Z</time>
  <course>10.8</course>
  <speed>0.03</speed>
  <fix>3d</fix>
</trkpt>
<trkpt lat="-27.2744382" lon="151.2900636">
  <ele>344.74</ele>
  <time>2026-09-01T19:56:41Z</time>
  <course>190.63</course>
  <speed>0.02</speed>
  <fix>3d</fix>
</trkpt>
<trkpt lat="-27.2744383" lon="151.2900636">
  <ele>344.78</ele>
  <time>2026-09-01T19:56:41Z</time>
  <course>10.77</course>
  <speed>0.03</speed>
  <fix>3d</fix>
</trkpt>
<trkpt lat="-27.2744382" lon="151.2900636">
  <ele>344.74</ele>
  <time>2026-09-01T19:56:41Z</time>
  <course>190.63</course>
  <speed>0.02</speed>
  <fix>3d</fix>
</trkpt>
<trkpt lat="-27.2744383" lon="151.2900636">
  <ele>344.73</ele>
  <time>2026-09-01T19:56:41Z</time>
  <course>10.77</course>
  <speed>0.03</speed>
  <fix>3d</fix>
</trkpt>
<trkpt lat="-27.2744382" lon="151.2900636">
  <ele>344.64</ele>
  <time>2026-09-01T19:56:41Z</time>
  <course>190.52</course>
  <speed>0.02</speed>
  <fix>3d</fix>
</trkpt>
<trkpt lat="-27.2744384" lon="151.2900636">
  <ele>344.68</ele>
  <time>2026-09-01T19:56:41Z</time>
  <course>10.78</course>
  <speed>0.03</speed>
  <fix>3d</fix>
</trkpt>
<trkpt lat="-27.2744382" lon="151.2900636">
  <ele>344.64</ele>
  <time>2026-09-01T19:56:41Z</time>
  <course>190.52</course>
  <speed>0.02</speed>
  <fix>3d</fix>
</trkpt>
<trkpt lat="-27.2744384" lon="151.2900636">
  <ele>344.63</ele>
  <time>2026-09-01T19:56:41Z</time>
  <course>10.78</course>
  <speed>0.03</speed>
  <fix>3d</fix>
</trkpt>
<trkpt lat="-27.2744382" lon="151.2900636">
  <ele>344.53</ele>
  <time>2026-09-01T19:56:41Z</time>
  <course>190.52</course>
  <speed>0.01</speed>
  <fix>3d</fix>
</trkpt>
<trkpt lat="-27.2744384" lon="151.2900636">
  <ele>344.58</ele>
  <time>2026-09-01T19:56:41Z</time>
  <course>10.79</course>
  <speed>0.03</speed>
  <fix>3d</fix>
</trkpt>
<trkpt lat="-27.2744382" lon="151.2900636">
  <ele>344.53</ele>
  <time>2026-09-01T19:56:41Z</time>
  <course>190.52</course>
  <speed>0.01</speed>
  <fix>3d</fix>
</trkpt>
<trkpt lat="-27.2744384" lon="151.2900636">
  <ele>344.54</ele>
  <time>2026-09-01T19:56:41Z</time>
  <course>10.8</course>
  <speed>0.03</speed>
  <fix>3d</fix>
</trkpt>
<trkpt lat="-27.2744383" lon="151.2900636">
  <ele>344.43</ele>
  <time>2026-09-01T19:56:41Z</time>
  <course>190.94</course>
  <speed>0.01</speed>
  <fix>3d</fix>
</trkpt>
<trkpt lat="-27.2744384" lon="151.2900636">
  <ele>344.48</ele>
  <time>2026-09-01T19:56:41Z</time>
  <course>10.8</course>
  <speed>0.03</speed>
  <fix>3d</fix>
</trkpt>
<trkpt lat="-27.2744383" lon="151.2900636">
  <ele>344.43</ele>
  <time>2026-09-01T19:56:41Z</time>
  <course>190.94</course>
  <speed>0.01</speed>
  <fix>3d</fix>
</trkpt>
<trkpt lat="-27.2744384" lon="151.2900636">
  <ele>344.43</ele>
  <time>2026-09-01T19:56:41Z</time>
  <course>10.79</course>
  <speed>0.03</speed>
  <fix>3d</fix>
</trkpt>
<trkpt lat="-27.2744383" lon="151.2900636">
  <ele>344.33</ele>
  <time>2026-09-01T19:56:41Z</time>
  <course>191.16</course>
  <speed>0.01</speed>
  <fix>3d</fix>
</trkpt>
<trkpt lat="-27.2744384" lon="151.2900636">
  <ele>344.38</ele>
  <time>2026-09-01T19:56:41Z</time>
  <course>10.78</course>
  <speed>0.03</speed>
  <fix>3d</fix>
</trkpt>
<trkpt lat="-27.2744383" lon="151.2900636">
  <ele>344.33</ele>
  <time>2026-09-01T19:56:41Z</time>
  <course>191.16</course>
  <speed>0.01</speed>
  <fix>3d</fix>
</trkpt>
<trkpt lat="-27.2744385" lon="151.2900636">
  <ele>344.33</ele>
  <time>2026-09-01T19:56:41Z</time>
  <course>10.78</course>
  <speed>0.03</speed>
  <fix>3d</fix>
</trkpt>
<trkpt lat="-27.2744383" lon="151.2900636">
  <ele>344.22</ele>
  <time>2026-09-01T19:56:41Z</time>
  <course>191.43</course>
  <speed>0.01</speed>
  <fix>3d</fix>
</trkpt>
<trkpt lat="-27.2744385" lon="151.2900636">
  <ele>344.28</ele>
  <time>2026-09-01T19:56:41Z</time>
  <course>10.78</course>
  <speed>0.03</speed>
  <fix>3d</fix>
</trkpt>
<trkpt lat="-27.2744383" lon="151.2900636">
  <ele>344.22</ele>
  <time>2026-09-01T19:56:41Z</time>
  <course>191.43</course>
  <speed>0.01</speed>
  <fix>3d</fix>
</trkpt>
<trkpt lat="-27.2744385" lon="151.2900636">
  <ele>344.23</ele>
  <time>2026-09-01T19:56:41Z</time>
  <course>10.77</course>
  <speed>0.03</speed>
  <fix>3d</fix>
</trkpt>
<trkpt lat="-27.2744384" lon="151.2900636">
  <ele>344.13</ele>
  <time>2026-09-01T19:56:41Z</time>
  <course>191.42</course>
  <speed>0.01</speed>
  <fix>3d</fix>
</trkpt>
<trkpt lat="-27.2744385" lon="151.2900636">
  <ele>344.18</ele>
  <time>2026-09-01T19:56:41Z</time>
  <course>10.76</course>
  <speed>0.0316227766016838</speed>
  <fix>3d</fix>
</trkpt>
<trkpt lat="-27.2744384" lon="151.2900636">
  <ele>344.13</ele>
  <time>2026-09-01T19:56:41Z</time>
  <course>191.42</course>
  <speed>0.01</speed>
  <fix>3d</fix>
</trkpt>
<trkpt lat="-27.2744385" lon="151.2900636">
  <ele>344.13</ele>
  <time>2026-09-01T19:56:41Z</time>
  <course>10.76</course>
  <speed>0.022360679774997897</speed>
  <fix>3d</fix>
</trkpt>
<trkpt lat="-27.2744384" lon="151.2900636">
  <ele>344.03</ele>
  <time>2026-09-01T19:56:41Z</time>
  <course>191.54</course>
  <speed>0.01</speed>
  <fix>3d</fix>
</trkpt>
<trkpt lat="-27.2744385" lon="151.2900636">
  <ele>344.08</ele>
  <time>2026-09-01T19:56:41Z</time>
  <course>10.76</course>
  <speed>0.022360679774997897</speed>
  <fix>3d</fix>
</trkpt>
<trkpt lat="-27.2744384" lon="151.2900636">
  <ele>344.03</ele>
  <time>2026-09-01T19:56:41Z</time>
  <course>191.54</course>
  <speed>0.01</speed>
  <fix>3d</fix>
</trkpt>
<trkpt lat="-27.2744385" lon="151.2900636">
  <ele>344.03</ele>
  <time>2026-09-01T19:56:41Z</time>
  <course>10.76</course>
  <speed>0.022360679774997897</speed>
  <fix>3d</fix>
</trkpt>
<trkpt lat="-27.2744384" lon="151.2900636">
  <ele>343.93</ele>
  <time>2026-09-01T19:56:41Z</time>
  <course>192.63</course>
  <speed>0.0</speed>
  <fix>3d</fix>
</trkpt>
<trkpt lat="-27.2744385" lon="151.2900636">
  <ele>343.98</ele>
  <time>2026-09-01T19:56:41Z</time>
  <course>10.77</course>
  <speed>0.022360679774997897</speed>
  <fix>3d</fix>
</trkpt>
<trkpt lat="-27.2744384" lon="151.2900636">
  <ele>343.93</ele>
  <time>2026-09-01T19:56:41Z</time>
  <course>192.63</course>
  <speed>0.0</speed>
  <fix>3d</fix>
</trkpt>
<trkpt lat="-27.2744385" lon="151.2900636">
  <ele>343.93</ele>
  <time>2026-09-01T19:56:41Z</time>
  <course>10.77</course>
  <speed>0.022360679774997897</speed>
  <fix>3d</fix>
</trkpt>
<trkpt lat="-27.2744384" lon="151.2900636">
  <ele>343.83</ele>
  <time>2026-09-01T19:56:41Z</time>
  <course>193.87</course>
  <speed>0.0</speed>
  <fix>3d</fix>
</trkpt>
<trkpt lat="-27.2744385" lon="151.2900636">
  <ele>343.88</ele>
  <time>2026-09-01T19:56:41Z</time>
  <course>10.77</course>
  <speed>0.022360679774997897</speed>
  <fix>3d</fix>
</trkpt>
<trkpt lat="-27.2744384" lon="151.2900636">
  <ele>343.83</ele>
  <time>2026-09-01T19:56:41Z</time>
  <course>193.87</course>
  <speed>0.0</speed>
  <fix>3d</fix>
</trkpt>
<trkpt lat="-27.2744385" lon="151.2900636">
  <ele>343.83</ele>
  <time>2026-09-01T19:56:41Z</time>
  <course>10.75</course>
  <speed>0.022360679774997897</speed>
  <fix>3d</fix>
</trkpt>
<trkpt lat="-27.2744384" lon="151.2900636">
  <ele>343.72</ele>
  <time>2026-09-01T19:56:41Z</time>
  <course>194.11</course>
  <speed>0.0</speed>
  <fix>3d</fix>
</trkpt>
<trkpt lat="-27.2744385" lon="151.2900636">
  <ele>343.78</ele>
  <time>2026-09-01T19:56:41Z</time>
  <course>10.74</course>
  <speed>0.022360679774997897</speed>
  <fix>3d</fix>
</trkpt>
<trkpt lat="-27.2744384" lon="151.2900636">
  <ele>343.72</ele>
  <time>2026-09-01T19:56:41Z</time>
  <course>194.11</course>
  <speed>0.0</speed>
  <fix>3d</fix>
</trkpt>
<trkpt lat="-27.2744385" lon="151.2900636">
  <ele>343.73</ele>
  <time>2026-09-01T19:56:41Z</time>
  <course>10.73</course>
  <speed>0.022360679774997897</speed>
  <fix>3d</fix>
</trkpt>
<trkpt lat="-27.2744384" lon="151.2900636">
  <ele>343.63</ele>
  <time>2026-09-01T19:56:41Z</time>
  <course>194.37</course>
  <speed>0.0</speed>
  <fix>3d</fix>
</trkpt>
<trkpt lat="-27.2744385" lon="151.2900636">
  <ele>343.68</ele>
  <time>2026-09-01T19:56:41Z</time>
  <course>10.73</course>
  <speed>0.022360679774997897</speed>
  <fix>3d</fix>
</trkpt>
<trkpt lat="-27.2744384" lon="151.2900636">
  <ele>343.63</ele>
  <time>2026-09-01T19:56:41Z</time>
  <course>194.37</course>
  <speed>0.0</speed>
  <fix>3d</fix>
</trkpt>
<trkpt lat="-27.2744386" lon="151.2900637">
  <ele>343.63</ele>
  <time>2026-09-01T19:56:41Z</time>
  <course>10.74</course>
  <speed>0.022360679774997897</speed>
  <fix>3d</fix>
</trkpt>
<trkpt lat="-27.2744384" lon="151.2900636">
  <ele>343.53</ele>
  <time>2026-09-01T19:56:41Z</time>
  <course>198.1</course>
  <speed>0.0</speed>
  <fix>3d</fix>
</trkpt>
<trkpt lat="-27.2744385" lon="151.2900637">
  <ele>343.58</ele>
  <time>2026-09-01T19:56:41Z</time>
  <course>10.74</course>
  <speed>0.022360679774997897</speed>
  <fix>3d</fix>
</trkpt>
<trkpt lat="-27.2744384" lon="151.2900636">
  <ele>343.53</ele>
  <time>2026-09-01T19:56:41Z</time>
  <course>198.1</course>
  <speed>0.0</speed>
  <fix>3d</fix>
</trkpt>
<trkpt lat="-27.2744386" lon="151.2900637">
  <ele>343.53</ele>
  <time>2026-09-01T19:56:41Z</time>
  <course>10.74</course>
  <speed>0.022360679774997897</speed>
  <fix>3d</fix>
</trkpt>
<trkpt lat="-27.2744385" lon="151.2900636">
  <ele>343.43</ele>
  <time>2026-09-01T19:56:41Z</time>
  <course>209.16</course>
  <speed>0.0</speed>
  <fix>3d</fix>
</trkpt>
<trkpt lat="-27.2744385" lon="151.2900637">
  <ele>343.48</ele>
  <time>2026-09-01T19:56:41Z</time>
  <course>10.73</course>
  <speed>0.022360679774997897</speed>
  <fix>3d</fix>
</trkpt>
<trkpt lat="-27.2744385" lon="151.2900636">
  <ele>343.43</ele>
  <time>2026-09-01T19:56:41Z</time>
  <course>209.16</course>
  <speed>0.0</speed>
  <fix>3d</fix>
</trkpt>
<trkpt lat="-27.2744386" lon="151.2900637">
  <ele>343.43</ele>
  <time>2026-09-01T19:56:41Z</time>
  <course>10.72</course>
  <speed>0.022360679774997897</speed>
  <fix>3d</fix>
</trkpt>
<trkpt lat="-27.2744385" lon="151.2900636">
  <ele>343.33</ele>
  <time>2026-09-01T19:56:41Z</time>
  <course>316.96</course>
  <speed>0.0</speed>
  <fix>3d</fix>
</trkpt>
<trkpt lat="-27.2744386" lon="151.2900637">
  <ele>343.38</ele>
  <time>2026-09-01T19:56:41Z</time>
  <course>10.72</course>
  <speed>0.022360679774997897</speed>
  <fix>3d</fix>
</trkpt>
<trkpt lat="-27.2744385" lon="151.2900636">
  <ele>343.33</ele>
  <time>2026-09-01T19:56:41Z</time>
  <course>316.96</course>
  <speed>0.0</speed>
  <fix>3d</fix>
</trkpt>
<trkpt lat="-27.2744386" lon="151.2900637">
  <ele>343.33</ele>
  <time>2026-09-01T19:56:41Z</time>
  <course>10.72</course>
  <speed>0.01414213562373095</speed>
  <fix>3d</fix>
</trkpt>
<trkpt lat="-27.2744385" lon="151.2900636">
  <ele>343.22</ele>
  <time>2026-09-01T19:56:41Z</time>
  <course>18.04</course>
  <speed>0.0</speed>
  <fix>3d</fix>
</trkpt>
<trkpt lat="-27.2744386" lon="151.2900637">
  <ele>343.28</ele>
  <time>2026-09-01T19:56:41Z</time>
  <course>10.72</course>
  <speed>0.01414213562373095</speed>
  <fix>3d</fix>
</trkpt>
<trkpt lat="-27.2744385" lon="151.2900636">
  <ele>343.22</ele>
  <time>2026-09-01T19:56:41Z</time>
  <course>18.04</course>
  <speed>0.0</speed>
  <fix>3d</fix>
</trkpt>
<trkpt lat="-27.2744386" lon="151.2900637">
  <ele>343.24</ele>
  <time>2026-09-01T19:56:41Z</time>
  <course>10.72</course>
  <speed>0.022360679774997897</speed>
  <fix>3d</fix>
</trkpt>
<trkpt lat="-27.2744385" lon="151.2900636">
  <ele>343.13</ele>
  <time>2026-09-01T19:56:41Z</time>
  <course>23.09</course>
  <speed>0.0</speed>
  <fix>3d</fix>
</trkpt>
<trkpt lat="-27.2744386" lon="151.2900637">
  <ele>343.23</ele>
  <time>2026-09-01T19:56:41Z</time>
  <course>10.71</course>
  <speed>0.022360679774997897</speed>
  <fix>3d</fix>
</trkpt>
<trkpt lat="-27.2744385" lon="151.2900636">
  <ele>343.13</ele>
  <time>2026-09-01T19:56:41Z</time>
  <course>23.09</course>
  <speed>0.0</speed>
  <fix>3d</fix>
</trkpt>
<trkpt lat="-27.2744386" lon="151.2900637">
  <ele>343.24</ele>
  <time>2026-09-01T19:56:41Z</time>
  <course>10.71</course>
  <speed>0.022360679774997897</speed>
  <fix>3d</fix>
</trkpt>
<trkpt lat="-27.2744385" lon="151.2900636">
  <ele>343.08</ele>
  <time>2026-09-01T19:56:41Z</time>
  <course>23.65</course>
  <speed>0.0</speed>
  <fix>3d</fix>
</trkpt>
<trkpt lat="-27.2744386" lon="151.2900637">
  <ele>343.25</ele>
  <time>2026-09-01T19:56:41Z</time>
  <course>10.71</course>
  <speed>0.022360679774997897</speed>
  <fix>3d</fix>
</trkpt>
<trkpt lat="-27.2744385" lon="151.2900636">
  <ele>343.08</ele>
  <time>2026-09-01T19:56:41Z</time>
  <course>23.65</course>
  <speed>0.0</speed>
  <fix>3d</fix>
</trkpt>
<trkpt lat="-27.2744386" lon="151.2900637">
  <ele>343.25</ele>
  <time>2026-09-01T19:56:41Z</time>
  <course>10.71</course>
  <speed>0.022360679774997897</speed>
  <fix>3d</fix>
</trkpt>
<trkpt lat="-27.2744385" lon="151.2900636">
  <ele>343.09</ele>
  <time>2026-09-01T19:56:41Z</time>
  <course>203.67</course>
  <speed>0.0</speed>
  <fix>3d</fix>
</trkpt>
<trkpt lat="-27.2744386" lon="151.2900637">
  <ele>343.25</ele>
  <time>2026-09-01T19:56:41Z</time>
  <course>10.71</course>
  <speed>0.022360679774997897</speed>
  <fix>3d</fix>
</trkpt>
<trkpt lat="-27.2744385" lon="151.2900636">
  <ele>343.09</ele>
  <time>2026-09-01T19:56:41Z</time>
  <course>203.67</course>
  <speed>0.0</speed>
  <fix>3d</fix>
</trkpt>
<trkpt lat="-27.2744386" lon="151.2900637">
  <ele>343.25</ele>
  <time>2026-09-01T19:56:41Z</time>
  <course>10.71</course>
  <speed>0.022360679774997897</speed>
  <fix>3d</fix>
</trkpt>
<trkpt lat="-27.2744385" lon="151.2900636">
  <ele>343.1</ele>
  <time>2026-09-01T19:56:41Z</time>
  <course>203.35</course>
  <speed>0.0</speed>
  <fix>3d</fix>
</trkpt>
<trkpt lat="-27.2744386" lon="151.2900637">
  <ele>343.24</ele>
  <time>2026-09-01T19:56:41Z</time>
  <course>10.71</course>
  <speed>0.022360679774997897</speed>
  <fix>3d</fix>
</trkpt>
<trkpt lat="-27.2744385" lon="151.2900636">
  <ele>343.1</ele>
  <time>2026-09-01T19:56:41Z</time>
  <course>203.35</course>
  <speed>0.0</speed>
  <fix>3d</fix>
</trkpt>
<trkpt lat="-27.2744386" lon="151.2900637">
  <ele>343.24</ele>
  <time>2026-09-01T19:56:41Z</time>
  <course>10.71</course>
  <speed>0.022360679774997897</speed>
  <fix>3d</fix>
</trkpt>
<trkpt lat="-27.2744385" lon="151.2900636">
  <ele>343.09</ele>
  <time>2026-09-01T19:56:41Z</time>
  <course>23.67</course>
  <speed>0.0</speed>
  <fix>3d</fix>
</trkpt>
<trkpt lat="-27.2744386" lon="151.2900637">
  <ele>343.24</ele>
  <time>2026-09-01T19:56:41Z</time>
  <course>10.71</course>
  <speed>0.022360679774997897</speed>
  <fix>3d</fix>
</trkpt>
<trkpt lat="-27.2744385" lon="151.2900636">
  <ele>343.09</ele>
  <time>2026-09-01T19:56:41Z</time>
  <course>23.67</course>
  <speed>0.0</speed>
  <fix>3d</fix>
</trkpt>
<trkpt lat="-27.2744386" lon="151.2900637">
  <ele>343.25</ele>
  <time>2026-09-01T19:56:41Z</time>
  <course>10.71</course>
  <speed>0.022360679774997897</speed>
  <fix>3d</fix>
</trkpt>
<trkpt lat="-27.2744385" lon="151.2900636">
  <ele>343.09</ele>
  <time>2026-09-01T19:56:41Z</time>
  <course>203.63</course>
  <speed>0.0</speed>
  <fix>3d</fix>
</trkpt>
<trkpt lat="-27.2744386" lon="151.2900637">
  <ele>343.25</ele>
  <time>2026-09-01T19:56:41Z</time>
  <course>10.71</course>
  <speed>0.022360679774997897</speed>
  <fix>3d</fix>
</trkpt>
<trkpt lat="-27.2744385" lon="151.2900636">
  <ele>343.09</ele>
  <time>2026-09-01T19:56:41Z</time>
  <course>203.63</course>
  <speed>0.0</speed>
  <fix>3d</fix>
</trkpt>
<trkpt lat="-27.2744386" lon="151.2900637">
  <ele>343.25</ele>
  <time>2026-09-01T19:56:41Z</time>
  <course>10.71</course>
  <speed>0.022360679774997897</speed>
  <fix>3d</fix>
</trkpt>
<trkpt lat="-27.2744385" lon="151.2900636">
  <ele>343.09</ele>
  <time>2026-09-01T19:56:41Z</time>
  <course>203.53</course>
  <speed>0.0</speed>
  <fix>3d</fix>
</trkpt>
<trkpt lat="-27.2744386" lon="151.2900637">
  <ele>343.25</ele>
  <time>2026-09-01T19:56:41Z</time>
  <course>10.71</course>
  <speed>0.022360679774997897</speed>
  <fix>3d</fix>
</trkpt>
<trkpt lat="-27.2744385" lon="151.2900636">
  <ele>343.09</ele>
  <time>2026-09-01T19:56:41Z</time>
  <course>203.53</course>
  <speed>0.0</speed>
  <fix>3d</fix>
</trkpt>
<trkpt lat="-27.2744386" lon="151.2900637">
  <ele>343.25</ele>
  <time>2026-09-01T19:56:41Z</time>
  <course>10.71</course>
  <speed>0.022360679774997897</speed>
  <fix>3d</fix>
</trkpt>
<trkpt lat="-27.2744385" lon="151.2900636">
  <ele>343.09</ele>
  <time>2026-09-01T19:56:41Z</time>
  <course>203.53</course>
  <speed>0.0</speed>
  <fix>3d</fix>
</trkpt>
<trkpt lat="-27.2744386" lon="151.2900637">
  <ele>343.25</ele>
  <time>2026-09-01T19:56:41Z</time>
  <course>10.71</course>
  <speed>0.022360679774997897</speed>
  <fix>3d</fix>
</trkpt>
<trkpt lat="-27.2744385" lon="151.2900636">
  <ele>343.09</ele>
  <time>2026-09-01T19:56:41Z</time>
  <course>24.16</course>
  <speed>0.0</speed>
  <fix>3d</fix>
</trkpt>
<trkpt lat="-27.2744386" lon="151.2900637">
  <ele>343.25</ele>
  <time>2026-09-01T19:56:41Z</time>
  <course>10.71</course>
  <speed>0.022360679774997897</speed>
  <fix>3d</fix>
</trkpt>
<trkpt lat="-27.2744385" lon="151.2900636">
  <ele>343.09</ele>
  <time>2026-09-01T19:56:41Z</time>
  <course>23.97</course>
  <speed>0.0</speed>
  <fix>3d</fix>
</trkpt>
<trkpt lat="-27.2744386" lon="151.2900637">
  <ele>343.25</ele>
  <time>2026-09-01T19:56:41Z</time>
  <course>10.71</course>
  <speed>0.022360679774997897</speed>
  <fix>3d</fix>
</trkpt>
<trkpt lat="-27.2744385" lon="151.2900636">
  <ele>343.09</ele>
  <time>2026-09-01T19:56:41Z</time>
  <course>23.97</course>
  <speed>0.0</speed>
  <fix>3d</fix>
</trkpt>
<trkpt lat="-27.2744386" lon="151.2900637">
  <ele>343.25</ele>
  <time>2026-09-01T19:56:41Z</time>
  <course>10.7</course>
  <speed>0.022360679774997897</speed>
  <fix>3d</fix>
</trkpt>
<trkpt lat="-27.2744385" lon="151.2900636">
  <ele>343.09</ele>
  <time>2026-09-01T19:56:41Z</time>
  <course>200.59</course>
  <speed>0.0</speed>
  <fix>3d</fix>
</trkpt>
<trkpt lat="-27.2744386" lon="151.2900637">
  <ele>343.25</ele>
  <time>2026-09-01T19:56:41Z</time>
  <course>10.7</course>
  <speed>0.022360679774997897</speed>
  <fix>3d</fix>
</trkpt>
<trkpt lat="-27.2744385" lon="151.2900636">
  <ele>343.09</ele>
  <time>2026-09-01T19:56:41Z</time>
  <course>200.59</course>
  <speed>0.0</speed>
  <fix>3d</fix>
</trkpt>
<trkpt lat="-27.2744386" lon="151.2900637">
  <ele>343.25</ele>
  <time>2026-09-01T19:56:41Z</time>
  <course>10.7</course>
  <speed>0.022360679774997897</speed>
  <fix>3d</fix>
</trkpt>
<trkpt lat="-27.2744385" lon="151.2900636">
  <ele>343.09</ele>
  <time>2026-09-01T19:56:41Z</time>
  <course>188.22</course>
  <speed>0.0</speed>
  <fix>3d</fix>
</trkpt>
<trkpt lat="-27.2744386" lon="151.2900637">
  <ele>343.25</ele>
  <time>2026-09-01T19:56:41Z</time>
  <course>10.7</course>
  <speed>0.022360679774997897</speed>
  <fix>3d</fix>
</trkpt>
<trkpt lat="-27.2744385" lon="151.2900636">
  <ele>343.09</ele>
  <time>2026-09-01T19:56:41Z</time>
  <course>188.22</course>
  <speed>0.0</speed>
  <fix>3d</fix>
</trkpt>
<trkpt lat="-27.2744387" lon="151.2900637">
  <ele>343.25</ele>
  <time>2026-09-01T19:56:41Z</time>
  <course>10.7</course>
  <speed>0.022360679774997897</speed>
  <fix>3d</fix>
</trkpt>
<trkpt lat="-27.2744385" lon="151.2900636">
  <ele>343.09</ele>
  <time>2026-09-01T19:56:41Z</time>
  <course>48.32</course>
  <speed>0.0</speed>
  <fix>3d</fix>
</trkpt>
<trkpt lat="-27.2744387" lon="151.2900637">
  <ele>343.25</ele>
  <time>2026-09-01T19:56:41Z</time>
  <course>10.7</course>
  <speed>0.022360679774997897</speed>
  <fix>3d</fix>
</trkpt>
<trkpt lat="-27.2744385" lon="151.2900636">
  <ele>343.09</ele>
  <time>2026-09-01T19:56:41Z</time>
  <course>48.32</course>
  <speed>0.0</speed>
  <fix>3d</fix>
</trkpt>
<trkpt lat="-27.2744387" lon="151.2900637">
  <ele>343.25</ele>
  <time>2026-09-01T19:56:41Z</time>
  <course>10.7</course>
  <speed>0.022360679774997897</speed>
  <fix>3d</fix>
</trkpt>
<trkpt lat="-27.2744385" lon="151.2900636">
  <ele>343.09</ele>
  <time>2026-09-01T19:56:41Z</time>
  <course>163.13</course>
  <speed>0.0</speed>
  <fix>3d</fix>
</trkpt>
<trkpt lat="-27.2744387" lon="151.2900637">
  <ele>343.25</ele>
  <time>2026-09-01T19:56:41Z</time>
  <course>10.7</course>
  <speed>0.022360679774997897</speed>
  <fix>3d</fix>
</trkpt>
<trkpt lat="-27.2744385" lon="151.2900636">
  <ele>343.09</ele>
  <time>2026-09-01T19:56:41Z</time>
  <course>163.13</course>
  <speed>0.0</speed>
  <fix>3d</fix>
</trkpt>
<trkpt lat="-27.2744387" lon="151.2900637">
  <ele>343.25</ele>
  <time>2026-09-01T19:56:41Z</time>
  <course>10.7</course>
  <speed>0.022360679774997897</speed>
  <fix>3d</fix>
</trkpt>
<trkpt lat="-27.2744385" lon="151.2900636">
  <ele>343.09</ele>
  <time>2026-09-01T19:56:41Z</time>
  <course>160.48</course>
  <speed>0.0</speed>
  <fix>3d</fix>
</trkpt>
<trkpt lat="-27.2744387" lon="151.2900637">
  <ele>343.25</ele>
  <time>2026-09-01T19:56:41Z</time>
  <course>10.7</course>
  <speed>0.022360679774997897</speed>
  <fix>3d</fix>
</trkpt>
<trkpt lat="-27.2744385" lon="151.2900636">
  <ele>343.09</ele>
  <time>2026-09-01T19:56:41Z</time>
  <course>160.48</course>
  <speed>0.0</speed>
  <fix>3d</fix>
</trkpt>
<trkpt lat="-27.2744387" lon="151.2900637">
  <ele>343.26</ele>
  <time>2026-09-01T19:56:41Z</time>
  <course>10.7</course>
  <speed>0.022360679774997897</speed>
  <fix>3d</fix>
</trkpt>
<trkpt lat="-27.2744385" lon="151.2900636">
  <ele>343.09</ele>
  <time>2026-09-01T19:56:41Z</time>
  <course>158.84</course>
  <speed>0.0</speed>
  <fix>3d</fix>
</trkpt>
<trkpt lat="-27.2744387" lon="151.2900637">
  <ele>343.26</ele>
  <time>2026-09-01T19:56:41Z</time>
  <course>10.7</course>
  <speed>0.022360679774997897</speed>
  <fix>3d</fix>
</trkpt>
<trkpt lat="-27.2744385" lon="151.2900636">
  <ele>343.09</ele>
  <time>2026-09-01T19:56:41Z</time>
  <course>158.84</course>
  <speed>0.0</speed>
  <fix>3d</fix>
</trkpt>
<trkpt lat="-27.2744387" lon="151.2900637">
  <ele>343.26</ele>
  <time>2026-09-01T19:56:41Z</time>
  <course>10.7</course>
  <speed>0.022360679774997897</speed>
  <fix>3d</fix>
</trkpt>
<trkpt lat="-27.2744385" lon="151.2900636">
  <ele>343.09</ele>
  <time>2026-09-01T19:56:41Z</time>
  <course>163.89</course>
  <speed>0.0</speed>
  <fix>3d</fix>
</trkpt>
<trkpt lat="-27.2744387" lon="151.2900637">
  <ele>343.26</ele>
  <time>2026-09-01T19:56:41Z</time>
  <course>10.7</course>
  <speed>0.022360679774997897</speed>
  <fix>3d</fix>
</trkpt>
<trkpt lat="-27.2744385" lon="151.2900636">
  <ele>343.09</ele>
  <time>2026-09-01T19:56:41Z</time>
  <course>163.89</course>
  <speed>0.0</speed>
  <fix>3d</fix>
</trkpt>
<trkpt lat="-27.2744387" lon="151.2900637">
  <ele>343.26</ele>
  <time>2026-09-01T19:56:41Z</time>
  <course>10.7</course>
  <speed>0.022360679774997897</speed>
  <fix>3d</fix>
</trkpt>
<trkpt lat="-27.2744385" lon="151.2900636">
  <ele>343.09</ele>
  <time>2026-09-01T19:56:41Z</time>
  <course>168.76</course>
  <speed>0.0</speed>
  <fix>3d</fix>
</trkpt>
<trkpt lat="-27.2744387" lon="151.2900637">
  <ele>343.26</ele>
  <time>2026-09-01T19:56:41Z</time>
  <course>10.7</course>
  <speed>0.022360679774997897</speed>
  <fix>3d</fix>
</trkpt>
<trkpt lat="-27.2744385" lon="151.2900636">
  <ele>343.09</ele>
  <time>2026-09-01T19:56:41Z</time>
  <course>168.76</course>
  <speed>0.0</speed>
  <fix>3d</fix>
</trkpt>
<trkpt lat="-27.2744387" lon="151.2900637">
  <ele>343.26</ele>
  <time>2026-09-01T19:56:41Z</time>
  <course>10.7</course>
  <speed>0.022360679774997897</speed>
  <fix>3d</fix>
</trkpt>
<trkpt lat="-27.2744385" lon="151.2900636">
  <ele>343.09</ele>
  <time>2026-09-01T19:56:41Z</time>
  <course>168.76</course>
  <speed>0.0</speed>
  <fix>3d</fix>
</trkpt>
<trkpt lat="-27.2744387" lon="151.2900637">
  <ele>343.26</ele>
  <time>2026-09-01T19:56:41Z</time>
  <course>10.69</course>
  <speed>0.022360679774997897</speed>
  <fix>3d</fix>
</trkpt>
<trkpt lat="-27.2744385" lon="151.2900636">
  <ele>343.09</ele>
  <time>2026-09-01T19:56:41Z</time>
  <course>156.14</course>
  <speed>0.0</speed>
  <fix>3d</fix>
</trkpt>
<trkpt lat="-27.2744387" lon="151.2900637">
  <ele>343.26</ele>
  <time>2026-09-01T19:56:41Z</time>
  <course>10.69</course>
  <speed>0.022360679774997897</speed>
  <fix>3d</fix>
</trkpt>
<trkpt lat="-27.2744385" lon="151.2900636">
  <ele>343.09</ele>
  <time>2026-09-01T19:56:41Z</time>
  <course>156.14</course>
  <speed>0.0</speed>
  <fix>3d</fix>
</trkpt>
<trkpt lat="-27.2744387" lon="151.2900637">
  <ele>343.26</ele>
  <time>2026-09-01T19:56:41Z</time>
  <course>10.69</course>
  <speed>0.022360679774997897</speed>
  <fix>3d</fix>
</trkpt>
<trkpt lat="-27.2744385" lon="151.2900636">
  <ele>343.09</ele>
  <time>2026-09-01T19:56:41Z</time>
  <course>163.11</course>
  <speed>0.0</speed>
  <fix>3d</fix>
</trkpt>
<trkpt lat="-27.2744387" lon="151.2900637">
  <ele>343.26</ele>
  <time>2026-09-01T19:56:41Z</time>
  <course>10.69</course>
  <speed>0.022360679774997897</speed>
  <fix>3d</fix>
</trkpt>
<trkpt lat="-27.2744385" lon="151.2900636">
  <ele>343.09</ele>
  <time>2026-09-01T19:56:41Z</time>
  <course>163.11</course>
  <speed>0.0</speed>
  <fix>3d</fix>
</trkpt>
<trkpt lat="-27.2744387" lon="151.2900637">
  <ele>343.26</ele>
  <time>2026-09-01T19:56:42Z</time>
  <course>10.69</course>
  <speed>0.022360679774997897</speed>
  <fix>3d</fix>
</trkpt>
<trkpt lat="-27.2744385" lon="151.2900636">
  <ele>343.09</ele>
  <time>2026-09-01T19:56:42Z</time>
  <course>171.07</course>
  <speed>0.0</speed>
  <fix>3d</fix>
</trkpt>
<trkpt lat="-27.2744387" lon="151.2900637">
  <ele>343.26</ele>
  <time>2026-09-01T19:56:42Z</time>
  <course>10.69</course>
  <speed>0.022360679774997897</speed>
  <fix>3d</fix>
</trkpt>
<trkpt lat="-27.2744385" lon="151.2900636">
  <ele>343.09</ele>
  <time>2026-09-01T19:56:42Z</time>
  <course>171.07</course>
  <speed>0.0</speed>
  <fix>3d</fix>
</trkpt>
<trkpt lat="-27.2744387" lon="151.2900637">
  <ele>343.26</ele>
  <time>2026-09-01T19:56:42Z</time>
  <course>10.69</course>
  <speed>0.022360679774997897</speed>
  <fix>3d</fix>
</trkpt>
<trkpt lat="-27.2744385" lon="151.2900636">
  <ele>343.09</ele>
  <time>2026-09-01T19:56:42Z</time>
  <course>151.43</course>
  <speed>0.0</speed>
  <fix>3d</fix>
</trkpt>
<trkpt lat="-27.2744387" lon="151.2900637">
  <ele>343.26</ele>
  <time>2026-09-01T19:56:42Z</time>
  <course>10.69</course>
  <speed>0.022360679774997897</speed>
  <fix>3d</fix>
</trkpt>
<trkpt lat="-27.2744385" lon="151.2900636">
  <ele>343.09</ele>
  <time>2026-09-01T19:56:42Z</time>
  <course>151.43</course>
  <speed>0.0</speed>
  <fix>3d</fix>
</trkpt>
<trkpt lat="-27.2744387" lon="151.2900637">
  <ele>343.26</ele>
  <time>2026-09-01T19:56:42Z</time>
  <course>10.69</course>
  <speed>0.022360679774997897</speed>
  <fix>3d</fix>
</trkpt>
<trkpt lat="-27.2744385" lon="151.2900636">
  <ele>343.09</ele>
  <time>2026-09-01T19:56:42Z</time>
  <course>142.76</course>
  <speed>0.0</speed>
  <fix>3d</fix>
</trkpt>
<trkpt lat="-27.2744387" lon="151.2900637">
  <ele>343.26</ele>
  <time>2026-09-01T19:56:42Z</time>
  <course>10.69</course>
  <speed>0.022360679774997897</speed>
  <fix>3d</fix>
</trkpt>
<trkpt lat="-27.2744385" lon="151.2900636">
  <ele>343.09</ele>
  <time>2026-09-01T19:56:42Z</time>
  <course>162.67</course>
  <speed>0.0</speed>
  <fix>3d</fix>
</trkpt>
<trkpt lat="-27.2744387" lon="151.2900637">
  <ele>343.26</ele>
  <time>2026-09-01T19:56:42Z</time>
  <course>10.69</course>
  <speed>0.022360679774997897</speed>
  <fix>3d</fix>
</trkpt>
<trkpt lat="-27.2744385" lon="151.2900636">
  <ele>343.09</ele>
  <time>2026-09-01T19:56:42Z</time>
  <course>162.67</course>
  <speed>0.0</speed>
  <fix>3d</fix>
</trkpt>
<trkpt lat="-27.2744387" lon="151.2900637">
  <ele>343.26</ele>
  <time>2026-09-01T19:56:42Z</time>
  <course>10.69</course>
  <speed>0.022360679774997897</speed>
  <fix>3d</fix>
</trkpt>
<trkpt lat="-27.2744385" lon="151.2900636">
  <ele>343.09</ele>
  <time>2026-09-01T19:56:42Z</time>
  <course>160.94</course>
  <speed>0.0</speed>
  <fix>3d</fix>
</trkpt>
<trkpt lat="-27.2744387" lon="151.2900637">
  <ele>343.26</ele>
  <time>2026-09-01T19:56:42Z</time>
  <course>10.69</course>
  <speed>0.022360679774997897</speed>
  <fix>3d</fix>
</trkpt>
<trkpt lat="-27.2744385" lon="151.2900636">
  <ele>343.09</ele>
  <time>2026-09-01T19:56:42Z</time>
  <course>160.94</course>
  <speed>0.0</speed>
  <fix>3d</fix>
</trkpt>
<trkpt lat="-27.2744387" lon="151.2900637">
  <ele>343.26</ele>
  <time>2026-09-01T19:56:42Z</time>
  <course>10.69</course>
  <speed>0.022360679774997897</speed>
  <fix>3d</fix>
</trkpt>
<trkpt lat="-27.2744385" lon="151.2900636">
  <ele>343.09</ele>
  <time>2026-09-01T19:56:42Z</time>
  <course>137.6</course>
  <speed>0.0</speed>
  <fix>3d</fix>
</trkpt>
<trkpt lat="-27.2744387" lon="151.2900637">
  <ele>343.26</ele>
  <time>2026-09-01T19:56:42Z</time>
  <course>10.69</course>
  <speed>0.022360679774997897</speed>
  <fix>3d</fix>
</trkpt>
<trkpt lat="-27.2744385" lon="151.2900636">
  <ele>343.09</ele>
  <time>2026-09-01T19:56:42Z</time>
  <course>137.6</course>
  <speed>0.0</speed>
  <fix>3d</fix>
</trkpt>
<trkpt lat="-27.2744387" lon="151.2900637">
  <ele>343.26</ele>
  <time>2026-09-01T19:56:42Z</time>
  <course>10.69</course>
  <speed>0.022360679774997897</speed>
  <fix>3d</fix>
</trkpt>
<trkpt lat="-27.2744385" lon="151.2900636">
  <ele>343.09</ele>
  <time>2026-09-01T19:56:42Z</time>
  <course>157.33</course>
  <speed>0.0</speed>
  <fix>3d</fix>
</trkpt>
<trkpt lat="-27.2744387" lon="151.2900637">
  <ele>343.26</ele>
  <time>2026-09-01T19:56:42Z</time>
  <course>10.69</course>
  <speed>0.022360679774997897</speed>
  <fix>3d</fix>
</trkpt>
<trkpt lat="-27.2744385" lon="151.2900636">
  <ele>343.09</ele>
  <time>2026-09-01T19:56:42Z</time>
  <course>157.33</course>
  <speed>0.0</speed>
  <fix>3d</fix>
</trkpt>
<trkpt lat="-27.2744387" lon="151.2900637">
  <ele>343.26</ele>
  <time>2026-09-01T19:56:42Z</time>
  <course>10.69</course>
  <speed>0.022360679774997897</speed>
  <fix>3d</fix>
</trkpt>
<trkpt lat="-27.2744385" lon="151.2900636">
  <ele>343.09</ele>
  <time>2026-09-01T19:56:42Z</time>
  <course>152.36</course>
  <speed>0.0</speed>
  <fix>3d</fix>
</trkpt>
<trkpt lat="-27.2744387" lon="151.2900637">
  <ele>343.27</ele>
  <time>2026-09-01T19:56:42Z</time>
  <course>10.69</course>
  <speed>0.022360679774997897</speed>
  <fix>3d</fix>
</trkpt>
<trkpt lat="-27.2744385" lon="151.2900636">
  <ele>343.09</ele>
  <time>2026-09-01T19:56:42Z</time>
  <course>152.36</course>
  <speed>0.0</speed>
  <fix>3d</fix>
</trkpt>
<trkpt lat="-27.2744387" lon="151.2900637">
  <ele>343.27</ele>
  <time>2026-09-01T19:56:42Z</time>
  <course>10.69</course>
  <speed>0.022360679774997897</speed>
  <fix>3d</fix>
</trkpt>
<trkpt lat="-27.2744385" lon="151.2900636">
  <ele>343.09</ele>
  <time>2026-09-01T19:56:42Z</time>
  <course>162.3</course>
  <speed>0.0</speed>
  <fix>3d</fix>
</trkpt>
<trkpt lat="-27.2744387" lon="151.2900637">
  <ele>343.27</ele>
  <time>2026-09-01T19:56:42Z</time>
  <course>10.69</course>
  <speed>0.022360679774997897</speed>
  <fix>3d</fix>
</trkpt>
<trkpt lat="-27.2744385" lon="151.2900636">
  <ele>343.09</ele>
  <time>2026-09-01T19:56:42Z</time>
  <course>162.3</course>
  <speed>0.0</speed>
  <fix>3d</fix>
</trkpt>
<trkpt lat="-27.2744387" lon="151.2900637">
  <ele>343.27</ele>
  <time>2026-09-01T19:56:42Z</time>
  <course>10.69</course>
  <speed>0.022360679774997897</speed>
  <fix>3d</fix>
</trkpt>
<trkpt lat="-27.2744385" lon="151.2900636">
  <ele>343.09</ele>
  <time>2026-09-01T19:56:42Z</time>
  <course>162.3</course>
  <speed>0.0</speed>
  <fix>3d</fix>
</trkpt>
<trkpt lat="-27.2744387" lon="151.2900637">
  <ele>343.27</ele>
  <time>2026-09-01T19:56:42Z</time>
  <course>10.69</course>
  <speed>0.022360679774997897</speed>
  <fix>3d</fix>
</trkpt>
<trkpt lat="-27.2744385" lon="151.2900636">
  <ele>343.09</ele>
  <time>2026-09-01T19:56:42Z</time>
  <course>168.56</course>
  <speed>0.0</speed>
  <fix>3d</fix>
</trkpt>
<trkpt lat="-27.2744387" lon="151.2900637">
  <ele>343.27</ele>
  <time>2026-09-01T19:56:42Z</time>
  <course>10.69</course>
  <speed>0.022360679774997897</speed>
  <fix>3d</fix>
</trkpt>
<trkpt lat="-27.2744385" lon="151.2900636">
  <ele>343.09</ele>
  <time>2026-09-01T19:56:42Z</time>
  <course>168.56</course>
  <speed>0.0</speed>
  <fix>3d</fix>
</trkpt>
<trkpt lat="-27.2744387" lon="151.2900637">
  <ele>343.27</ele>
  <time>2026-09-01T19:56:42Z</time>
  <course>10.69</course>
  <speed>0.022360679774997897</speed>
  <fix>3d</fix>
</trkpt>
<trkpt lat="-27.2744385" lon="151.2900636">
  <ele>343.09</ele>
  <time>2026-09-01T19:56:42Z</time>
  <course>154.72</course>
  <speed>0.0</speed>
  <fix>3d</fix>
</trkpt>
<trkpt lat="-27.2744387" lon="151.2900637">
  <ele>343.27</ele>
  <time>2026-09-01T19:56:42Z</time>
  <course>10.69</course>
  <speed>0.022360679774997897</speed>
  <fix>3d</fix>
</trkpt>
<trkpt lat="-27.2744385" lon="151.2900636">
  <ele>343.09</ele>
  <time>2026-09-01T19:56:42Z</time>
  <course>154.72</course>
  <speed>0.0</speed>
  <fix>3d</fix>
</trkpt>
<trkpt lat="-27.2744387" lon="151.2900637">
  <ele>343.27</ele>
  <time>2026-09-01T19:56:42Z</time>
  <course>10.69</course>
  <speed>0.022360679774997897</speed>
  <fix>3d</fix>
</trkpt>
<trkpt lat="-27.2744385" lon="151.2900636">
  <ele>343.09</ele>
  <time>2026-09-01T19:56:42Z</time>
  <course>144.78</course>
  <speed>0.0</speed>
  <fix>3d</fix>
</trkpt>
<trkpt lat="-27.2744387" lon="151.2900637">
  <ele>343.27</ele>
  <time>2026-09-01T19:56:42Z</time>
  <course>10.69</course>
  <speed>0.022360679774997897</speed>
  <fix>3d</fix>
</trkpt>
<trkpt lat="-27.2744385" lon="151.2900636">
  <ele>343.09</ele>
  <time>2026-09-01T19:56:42Z</time>
  <course>144.78</course>
  <speed>0.0</speed>
  <fix>3d</fix>
</trkpt>
<trkpt lat="-27.2744387" lon="151.2900637">
  <ele>343.27</ele>
  <time>2026-09-01T19:56:42Z</time>
  <course>10.71</course>
  <speed>0.022360679774997897</speed>
  <fix>3d</fix>
</trkpt>
<trkpt lat="-27.2744385" lon="151.2900636">
  <ele>343.09</ele>
  <time>2026-09-01T19:56:42Z</time>
  <course>344.8</course>
  <speed>0.0</speed>
  <fix>3d</fix>
</trkpt>
<trkpt lat="-27.2744387" lon="151.2900637">
  <ele>343.27</ele>
  <time>2026-09-01T19:56:42Z</time>
  <course>10.73</course>
  <speed>0.022360679774997897</speed>
  <fix>3d</fix>
</trkpt>
<trkpt lat="-27.2744385" lon="151.2900636">
  <ele>343.09</ele>
  <time>2026-09-01T19:56:42Z</time>
  <course>344.8</course>
  <speed>0.0</speed>
  <fix>3d</fix>
</trkpt>
<trkpt lat="-27.2744387" lon="151.2900637">
  <ele>343.27</ele>
  <time>2026-09-01T19:56:42Z</time>
  <course>10.75</course>
  <speed>0.022360679774997897</speed>
  <fix>3d</fix>
</trkpt>
<trkpt lat="-27.2744385" lon="151.2900636">
  <ele>343.09</ele>
  <time>2026-09-01T19:56:42Z</time>
  <course>343.48</course>
  <speed>0.0</speed>
  <fix>3d</fix>
</trkpt>
<trkpt lat="-27.2744387" lon="151.2900637">
  <ele>343.27</ele>
  <time>2026-09-01T19:56:42Z</time>
  <course>10.77</course>
  <speed>0.022360679774997897</speed>
  <fix>3d</fix>
</trkpt>
<trkpt lat="-27.2744385" lon="151.2900636">
  <ele>343.09</ele>
  <time>2026-09-01T19:56:42Z</time>
  <course>343.48</course>
  <speed>0.0</speed>
  <fix>3d</fix>
</trkpt>
<trkpt lat="-27.2744387" lon="151.2900637">
  <ele>343.27</ele>
  <time>2026-09-01T19:56:42Z</time>
  <course>10.79</course>
  <speed>0.022360679774997897</speed>
  <fix>3d</fix>
</trkpt>
<trkpt lat="-27.2744385" lon="151.2900636">
  <ele>343.09</ele>
  <time>2026-09-01T19:56:42Z</time>
  <course>341.26</course>
  <speed>0.0</speed>
  <fix>3d</fix>
</trkpt>
<trkpt lat="-27.2744387" lon="151.2900637">
  <ele>343.27</ele>
  <time>2026-09-01T19:56:42Z</time>
  <course>10.81</course>
  <speed>0.022360679774997897</speed>
  <fix>3d</fix>
</trkpt>
<trkpt lat="-27.2744385" lon="151.2900636">
  <ele>343.09</ele>
  <time>2026-09-01T19:56:42Z</time>
  <course>341.26</course>
  <speed>0.0</speed>
  <fix>3d</fix>
</trkpt>
<trkpt lat="-27.2744387" lon="151.2900637">
  <ele>343.09</ele>
  <time>2026-09-01T19:56:42Z</time>
  <course>10.82</course>
  <speed>0.022360679774997897</speed>
  <fix>3d</fix>
</trkpt>
<trkpt lat="-27.2744385" lon="151.2900636">
  <ele>343.09</ele>
  <time>2026-09-01T19:56:42Z</time>
  <course>163.32</course>
  <speed>0.0</speed>
  <fix>3d</fix>
</trkpt>
<trkpt lat="-27.2744387" lon="151.2900637">
  <ele>343.09</ele>
  <time>2026-09-01T19:56:42Z</time>
  <course>10.83</course>
  <speed>0.022360679774997897</speed>
  <fix>3d</fix>
</trkpt>
<trkpt lat="-27.2744385" lon="151.2900636">
  <ele>343.09</ele>
  <time>2026-09-01T19:56:42Z</time>
  <course>163.32</course>
  <speed>0.0</speed>
  <fix>3d</fix>
</trkpt>
<trkpt lat="-27.2744387" lon="151.2900637">
  <ele>343.09</ele>
  <time>2026-09-01T19:56:42Z</time>
  <course>10.85</course>
  <speed>0.022360679774997897</speed>
  <fix>3d</fix>
</trkpt>
<trkpt lat="-27.2744385" lon="151.2900636">
  <ele>343.09</ele>
  <time>2026-09-01T19:56:42Z</time>
  <course>348.4</course>
  <speed>0.0</speed>
  <fix>3d</fix>
</trkpt>
<trkpt lat="-27.2744387" lon="151.2900637">
  <ele>343.09</ele>
  <time>2026-09-01T19:56:42Z</time>
  <course>10.86</course>
  <speed>0.022360679774997897</speed>
  <fix>3d</fix>
</trkpt>
<trkpt lat="-27.2744385" lon="151.2900636">
  <ele>343.09</ele>
  <time>2026-09-01T19:56:42Z</time>
  <course>343.16</course>
  <speed>0.0</speed>
  <fix>3d</fix>
</trkpt>
<trkpt lat="-27.2744387" lon="151.2900637">
  <ele>343.09</ele>
  <time>2026-09-01T19:56:42Z</time>
  <course>10.87</course>
  <speed>0.022360679774997897</speed>
  <fix>3d</fix>
</trkpt>
<trkpt lat="-27.2744385" lon="151.2900636">
  <ele>343.09</ele>
  <time>2026-09-01T19:56:42Z</time>
  <course>343.16</course>
  <speed>0.0</speed>
  <fix>3d</fix>
</trkpt>
<trkpt lat="-27.2744387" lon="151.2900637">
  <ele>343.09</ele>
  <time>2026-09-01T19:56:42Z</time>
  <course>10.88</course>
  <speed>0.022360679774997897</speed>
  <fix>3d</fix>
</trkpt>
<trkpt lat="-27.2744385" lon="151.2900636">
  <ele>343.09</ele>
  <time>2026-09-01T19:56:42Z</time>
  <course>164.36</course>
  <speed>0.0</speed>
  <fix>3d</fix>
</trkpt>
<trkpt lat="-27.2744386" lon="151.2900637">
  <ele>343.09</ele>
  <time>2026-09-01T19:56:42Z</time>
  <course>10.89</course>
  <speed>0.022360679774997897</speed>
  <fix>3d</fix>
</trkpt>
<trkpt lat="-27.2744385" lon="151.2900636">
  <ele>343.09</ele>
  <time>2026-09-01T19:56:42Z</time>
  <course>164.36</course>
  <speed>0.0</speed>
  <fix>3d</fix>
</trkpt>
<trkpt lat="-26.9720619" lon="149.6127921">
  <ele>339.29</ele>
  <time>2026-09-01T19:56:43Z</time>
  <course>310.27</course>
  <speed>0.0</speed>
  <fix>3d</fix>
</trkpt>
<trkpt lat="-26.9720619" lon="149.6127921">
  <ele>339.29</ele>
  <time>2026-09-01T19:56:43Z</time>
  <course>310.27</course>
  <speed>0.0</speed>
  <fix>3d</fix>
</trkpt>
<trkpt lat="-27.274439" lon="151.290064">
  <ele>-0.01</ele>
  <time>2026-09-01T19:56:43Z</time>
  <course>0.22</course>
  <speed>0.0</speed>
  <fix>3d</fix>
</trkpt>
<trkpt lat="-27.274439" lon="151.290064">
  <ele>343.1</ele>
  <time>2026-09-01T19:56:43Z</time>
  <course>294.58</course>
  <speed>0.0</speed>
  <fix>3d</fix>
</trkpt>
<trkpt lat="-27.274439" lon="151.290064">
  <ele>0.02</ele>
  <time>2026-09-01T19:56:43Z</time>
  <course>1.2</course>
  <speed>0.0</speed>
  <fix>3d</fix>
</trkpt>
<trkpt lat="-27.274439" lon="151.290064">
  <ele>343.1</ele>
  <time>2026-09-01T19:56:43Z</time>
  <course>294.58</course>
  <speed>0.0</speed>
  <fix>3d</fix>
</trkpt>
<trkpt lat="-27.274439" lon="151.290064">
  <ele>-0.08</ele>
  <time>2026-09-01T19:56:43Z</time>
  <course>2.1</course>
  <speed>0.0</speed>
  <fix>3d</fix>
</trkpt>
<trkpt lat="-27.274439" lon="151.290064">
  <ele>343.1</ele>
  <time>2026-09-01T19:56:43Z</time>
  <course>273.33</course>
  <speed>0.0</speed>
  <fix>3d</fix>
</trkpt>
<trkpt lat="-27.274439" lon="151.290064">
  <ele>0.22</ele>
  <time>2026-09-01T19:56:43Z</time>
  <course>2.92</course>
  <speed>0.0</speed>
  <fix>3d</fix>
</trkpt>
<trkpt lat="-27.274439" lon="151.290064">
  <ele>343.1</ele>
  <time>2026-09-01T19:56:43Z</time>
  <course>273.33</course>
  <speed>0.0</speed>
  <fix>3d</fix>
</trkpt>
<trkpt lat="-27.274439" lon="151.290064">
  <ele>0.09</ele>
  <time>2026-09-01T19:56:43Z</time>
  <course>3.66</course>
  <speed>0.0</speed>
  <fix>3d</fix>
</trkpt>
<trkpt lat="-27.274439" lon="151.290064">
  <ele>343.1</ele>
  <time>2026-09-01T19:56:43Z</time>
  <course>270.44</course>
  <speed>0.0</speed>
  <fix>3d</fix>
</trkpt>
<trkpt lat="-27.274439" lon="151.290064">
  <ele>0.08</ele>
  <time>2026-09-01T19:56:43Z</time>
  <course>4.34</course>
  <speed>0.0</speed>
  <fix>3d</fix>
</trkpt>
<trkpt lat="-27.274439" lon="151.290064">
  <ele>343.1</ele>
  <time>2026-09-01T19:56:43Z</time>
  <course>270.44</course>
  <speed>0.0</speed>
  <fix>3d</fix>
</trkpt>
<trkpt lat="-27.274439" lon="151.290064">
  <ele>0.09</ele>
  <time>2026-09-01T19:56:43Z</time>
  <course>4.95</course>
  <speed>0.0</speed>
  <fix>3d</fix>
</trkpt>
<trkpt lat="-27.274439" lon="151.290064">
  <ele>343.1</ele>
  <time>2026-09-01T19:56:43Z</time>
  <course>270.05</course>
  <speed>0.0</speed>
  <fix>3d</fix>
</trkpt>
<trkpt lat="-27.274439" lon="151.290064">
  <ele>-0.05</ele>
  <time>2026-09-01T19:56:43Z</time>
  <course>5.5</course>
  <speed>0.0</speed>
  <fix>3d</fix>
</trkpt>
<trkpt lat="-27.274439" lon="151.290064">
  <ele>343.1</ele>
  <time>2026-09-01T19:56:43Z</time>
  <course>270.05</course>
  <speed>0.0</speed>
  <fix>3d</fix>
</trkpt>
<trkpt lat="-27.274439" lon="151.290064">
  <ele>343.06</ele>
  <time>2026-09-01T19:56:43Z</time>
  <course>5.98</course>
  <speed>0.0</speed>
  <fix>3d</fix>
</trkpt>
<trkpt lat="-27.274439" lon="151.290064">
  <ele>343.1</ele>
  <time>2026-09-01T19:56:43Z</time>
  <course>270.0</course>
  <speed>0.0</speed>
  <fix>3d</fix>
</trkpt>
<trkpt lat="-27.274439" lon="151.290064">
  <ele>343.18</ele>
  <time>2026-09-01T19:56:43Z</time>
  <course>6.44</course>
  <speed>0.0</speed>
  <fix>3d</fix>
</trkpt>
<trkpt lat="-27.274439" lon="151.290064">
  <ele>343.1</ele>
  <time>2026-09-01T19:56:43Z</time>
  <course>270.0</course>
  <speed>0.0</speed>
  <fix>3d</fix>
</trkpt>
<trkpt lat="-27.274439" lon="151.290064">
  <ele>342.91</ele>
  <time>2026-09-01T19:56:43Z</time>
  <course>6.85</course>
  <speed>0.0</speed>
  <fix>3d</fix>
</trkpt>
<trkpt lat="-27.274439" lon="151.290064">
  <ele>343.1</ele>
  <time>2026-09-01T19:56:43Z</time>
  <course>270.0</course>
  <speed>0.0</speed>
  <fix>3d</fix>
</trkpt>
<trkpt lat="-27.274439" lon="151.290064">
  <ele>343.06</ele>
  <time>2026-09-01T19:56:43Z</time>
  <course>7.22</course>
  <speed>0.0</speed>
  <fix>3d</fix>
</trkpt>
<trkpt lat="-27.274439" lon="151.290064">
  <ele>343.1</ele>
  <time>2026-09-01T19:56:43Z</time>
  <course>270.0</course>
  <speed>0.0</speed>
  <fix>3d</fix>
</trkpt>
<trkpt lat="-27.274439" lon="151.290064">
  <ele>343.13</ele>
  <time>2026-09-01T19:56:43Z</time>
  <course>7.56</course>
  <speed>0.0</speed>
  <fix>3d</fix>
</trkpt>
<trkpt lat="-27.274439" lon="151.290064">
  <ele>343.1</ele>
  <time>2026-09-01T19:56:43Z</time>
  <course>270.0</course>
  <speed>0.0</speed>
  <fix>3d</fix>
</trkpt>
<trkpt lat="-27.274439" lon="151.290064">
  <ele>343.04</ele>
  <time>2026-09-01T19:56:43Z</time>
  <course>7.87</course>
  <speed>0.0</speed>
  <fix>3d</fix>
</trkpt>
<trkpt lat="-27.274439" lon="151.290064">
  <ele>343.1</ele>
  <time>2026-09-01T19:56:43Z</time>
  <course>270.0</course>
  <speed>0.0</speed>
  <fix>3d</fix>
</trkpt>
<trkpt lat="-27.274439" lon="151.290064">
  <ele>342.88</ele>
  <time>2026-09-01T19:56:43Z</time>
  <course>8.14</course>
  <speed>0.0</speed>
  <fix>3d</fix>
</trkpt>
<trkpt lat="-27.274439" lon="151.290064">
  <ele>343.1</ele>
  <time>2026-09-01T19:56:43Z</time>
  <course>270.0</course>
  <speed>0.0</speed>
  <fix>3d</fix>
</trkpt>
<trkpt lat="-27.274439" lon="151.290064">
  <ele>343.02</ele>
  <time>2026-09-01T19:56:43Z</time>
  <course>8.39</course>
  <speed>0.0</speed>
  <fix>3d</fix>
</trkpt>
<trkpt lat="-27.274439" lon="151.290064">
  <ele>343.1</ele>
  <time>2026-09-01T19:56:43Z</time>
  <course>270.0</course>
  <speed>0.0</speed>
  <fix>3d</fix>
</trkpt>
<trkpt lat="-27.274439" lon="151.290064">
  <ele>343.23</ele>
  <time>2026-09-01T19:56:43Z</time>
  <course>8.63</course>
  <speed>0.0</speed>
  <fix>3d</fix>
</trkpt>
<trkpt lat="-27.274439" lon="151.290064">
  <ele>343.1</ele>
  <time>2026-09-01T19:56:43Z</time>
  <course>270.0</course>
  <speed>0.0</speed>
  <fix>3d</fix>
</trkpt>
<trkpt lat="-27.274439" lon="151.290064">
  <ele>343.17</ele>
  <time>2026-09-01T19:56:43Z</time>
  <course>8.83</course>
  <speed>0.0</speed>
  <fix>3d</fix>
</trkpt>
<trkpt lat="-27.274439" lon="151.290064">
  <ele>343.1</ele>
  <time>2026-09-01T19:56:43Z</time>
  <course>270.0</course>
  <speed>0.0</speed>
  <fix>3d</fix>
</trkpt>
<trkpt lat="-27.274439" lon="151.290064">
  <ele>343.04</ele>
  <time>2026-09-01T19:56:43Z</time>
  <course>9.01</course>
  <speed>0.0</speed>
  <fix>3d</fix>
</trkpt>
<trkpt lat="-27.274439" lon="151.290064">
  <ele>343.1</ele>
  <time>2026-09-01T19:56:43Z</time>
  <course>270.0</course>
  <speed>0.0</speed>
  <fix>3d</fix>
</trkpt>
<trkpt lat="-27.274439" lon="151.290064">
  <ele>342.89</ele>
  <time>2026-09-01T19:56:43Z</time>
  <course>9.18</course>
  <speed>0.0</speed>
  <fix>3d</fix>
</trkpt>
<trkpt lat="-27.274439" lon="151.290064">
  <ele>343.1</ele>
  <time>2026-09-01T19:56:43Z</time>
  <course>270.0</course>
  <speed>0.0</speed>
  <fix>3d</fix>
</trkpt>
<trkpt lat="-27.274439" lon="151.290064">
  <ele>343.08</ele>
  <time>2026-09-01T19:56:43Z</time>
  <course>9.33</course>
  <speed>0.0</speed>
  <fix>3d</fix>
</trkpt>
<trkpt lat="-27.274439" lon="151.290064">
  <ele>343.1</ele>
  <time>2026-09-01T19:56:43Z</time>
  <course>270.0</course>
  <speed>0.0</speed>
  <fix>3d</fix>
</trkpt>
<trkpt lat="-27.274439" lon="151.290064">
  <ele>343.19</ele>
  <time>2026-09-01T19:56:43Z</time>
  <course>9.47</course>
  <speed>0.0</speed>
  <fix>3d</fix>
</trkpt>
<trkpt lat="-27.274439" lon="151.290064">
  <ele>343.1</ele>
  <time>2026-09-01T19:56:43Z</time>
  <course>270.0</course>
  <speed>0.0</speed>
  <fix>3d</fix>
</trkpt>
<trkpt lat="-27.274439" lon="151.290064">
  <ele>342.88</ele>
  <time>2026-09-01T19:56:43Z</time>
  <course>9.59</course>
  <speed>0.0</speed>
  <fix>3d</fix>
</trkpt>
<trkpt lat="-27.274439" lon="151.290064">
  <ele>343.1</ele>
  <time>2026-09-01T19:56:43Z</time>
  <course>270.0</course>
  <speed>0.0</speed>
  <fix>3d</fix>
</trkpt>
<trkpt lat="-27.274439" lon="151.290064">
  <ele>343.17</ele>
  <time>2026-09-01T19:56:43Z</time>
  <course>9.7</course>
  <speed>0.0</speed>
  <fix>3d</fix>
</trkpt>
<trkpt lat="-27.274439" lon="151.290064">
  <ele>343.1</ele>
  <time>2026-09-01T19:56:43Z</time>
  <course>270.0</course>
  <speed>0.0</speed>
  <fix>3d</fix>
</trkpt>
<trkpt lat="-27.274439" lon="151.290064">
  <ele>342.89</ele>
  <time>2026-09-01T19:56:43Z</time>
  <course>9.8</course>
  <speed>0.0</speed>
  <fix>3d</fix>
</trkpt>
<trkpt lat="-27.274439" lon="151.290064">
  <ele>343.1</ele>
  <time>2026-09-01T19:56:43Z</time>
  <course>270.0</course>
  <speed>0.0</speed>
  <fix>3d</fix>
</trkpt>
<trkpt lat="-27.274439" lon="151.290064">
  <ele>342.99</ele>
  <time>2026-09-01T19:56:43Z</time>
  <course>9.9</course>
  <speed>0.0</speed>
  <fix>3d</fix>
</trkpt>
<trkpt lat="-27.274439" lon="151.290064">
  <ele>343.1</ele>
  <time>2026-09-01T19:56:43Z</time>
  <course>270.0</course>
  <speed>0.0</speed>
  <fix>3d</fix>
</trkpt>
<trkpt lat="-27.274439" lon="151.290064">
  <ele>342.87</ele>
  <time>2026-09-01T19:56:43Z</time>
  <course>9.98</course>
  <speed>0.0</speed>
  <fix>3d</fix>
</trkpt>
<trkpt lat="-27.274439" lon="151.290064">
  <ele>343.1</ele>
  <time>2026-09-01T19:56:43Z</time>
  <course>270.0</course>
  <speed>0.0</speed>
  <fix>3d</fix>
</trkpt>
<trkpt lat="-27.274439" lon="151.290064">
  <ele>343.09</ele>
  <time>2026-09-01T19:56:43Z</time>
  <course>10.06</course>
  <speed>0.0</speed>
  <fix>3d</fix>
</trkpt>
<trkpt lat="-27.274439" lon="151.290064">
  <ele>343.1</ele>
  <time>2026-09-01T19:56:43Z</time>
  <course>270.0</course>
  <speed>0.0</speed>
  <fix>3d</fix>
</trkpt>
<trkpt lat="-27.274439" lon="151.290064">
  <ele>343.18</ele>
  <time>2026-09-01T19:56:43Z</time>
  <course>10.13</course>
  <speed>0.0</speed>
  <fix>3d</fix>
</trkpt>
<trkpt lat="-27.274439" lon="151.290064">
  <ele>343.1</ele>
  <time>2026-09-01T19:56:43Z</time>
  <course>270.0</course>
  <speed>0.0</speed>
  <fix>3d</fix>
</trkpt>
<trkpt lat="-27.274439" lon="151.290064">
  <ele>343.05</ele>
  <time>2026-09-01T19:56:43Z</time>
  <course>10.2</course>
  <speed>0.0</speed>
  <fix>3d</fix>
</trkpt>
<trkpt lat="-27.274439" lon="151.290064">
  <ele>343.1</ele>
  <time>2026-09-01T19:56:43Z</time>
  <course>270.0</course>
  <speed>0.0</speed>
  <fix>3d</fix>
</trkpt>
<trkpt lat="-27.274439" lon="151.290064">
  <ele>342.96</ele>
  <time>2026-09-01T19:56:43Z</time>
  <course>10.25</course>
  <speed>0.0</speed>
  <fix>3d</fix>
</trkpt>
<trkpt lat="-27.274439" lon="151.290064">
  <ele>343.1</ele>
  <time>2026-09-01T19:56:43Z</time>
  <course>270.0</course>
  <speed>0.0</speed>
  <fix>3d</fix>
</trkpt>
<trkpt lat="-27.274439" lon="151.290064">
  <ele>343.1</ele>
  <time>2026-09-01T19:56:43Z</time>
  <course>10.31</course>
  <speed>0.0</speed>
  <fix>3d</fix>
</trkpt>
<trkpt lat="-27.274439" lon="151.290064">
  <ele>343.1</ele>
  <time>2026-09-01T19:56:43Z</time>
  <course>270.0</course>
  <speed>0.0</speed>
  <fix>3d</fix>
</trkpt>
<trkpt lat="-27.274439" lon="151.290064">
  <ele>343.22</ele>
  <time>2026-09-01T19:56:43Z</time>
  <course>10.35</course>
  <speed>0.0</speed>
  <fix>3d</fix>
</trkpt>
<trkpt lat="-27.274439" lon="151.290064">
  <ele>343.1</ele>
  <time>2026-09-01T19:56:43Z</time>
  <course>270.0</course>
  <speed>0.0</speed>
  <fix>3d</fix>
</trkpt>
<trkpt lat="-27.274439" lon="151.290064">
  <ele>343.17</ele>
  <time>2026-09-01T19:56:43Z</time>
  <course>10.4</course>
  <speed>0.0</speed>
  <fix>3d</fix>
</trkpt>
<trkpt lat="-27.274439" lon="151.290064">
  <ele>343.1</ele>
  <time>2026-09-01T19:56:43Z</time>
  <course>270.0</course>
  <speed>0.0</speed>
  <fix>3d</fix>
</trkpt>
<trkpt lat="-27.274439" lon="151.290064">
  <ele>343.08</ele>
  <time>2026-09-01T19:56:44Z</time>
  <course>10.44</course>
  <speed>0.0</speed>
  <fix>3d</fix>
</trkpt>
<trkpt lat="-27.274439" lon="151.290064">
  <ele>343.1</ele>
  <time>2026-09-01T19:56:44Z</time>
  <course>270.0</course>
  <speed>0.0</speed>
  <fix>3d</fix>
</trkpt>
<trkpt lat="-27.274439" lon="151.290064">
  <ele>343.04</ele>
  <time>2026-09-01T19:56:44Z</time>
  <course>10.47</course>
  <speed>0.0</speed>
  <fix>3d</fix>
</trkpt>
<trkpt lat="-27.274439" lon="151.290064">
  <ele>343.1</ele>
  <time>2026-09-01T19:56:44Z</time>
  <course>270.0</course>
  <speed>0.0</speed>
  <fix>3d</fix>
</trkpt>
<trkpt lat="-27.274439" lon="151.290064">
  <ele>343.18</ele>
  <time>2026-09-01T19:56:44Z</time>
  <course>10.5</course>
  <speed>0.0</speed>
  <fix>3d</fix>
</trkpt>
<trkpt lat="-27.274439" lon="151.290064">
  <ele>343.1</ele>
  <time>2026-09-01T19:56:44Z</time>
  <course>270.0</course>
  <speed>0.0</speed>
  <fix>3d</fix>
</trkpt>
<trkpt lat="-27.274439" lon="151.290064">
  <ele>343.12</ele>
  <time>2026-09-01T19:56:44Z</time>
  <course>10.53</course>
  <speed>0.0</speed>
  <fix>3d</fix>
</trkpt>
<trkpt lat="-27.274439" lon="151.290064">
  <ele>343.1</ele>
  <time>2026-09-01T19:56:44Z</time>
  <course>270.0</course>
  <speed>0.0</speed>
  <fix>3d</fix>
</trkpt>
<trkpt lat="-27.274439" lon="151.290064">
  <ele>343.04</ele>
  <time>2026-09-01T19:56:44Z</time>
  <course>10.56</course>
  <speed>0.0</speed>
  <fix>3d</fix>
</trkpt>
<trkpt lat="-27.274439" lon="151.290064">
  <ele>343.1</ele>
  <time>2026-09-01T19:56:44Z</time>
  <course>270.0</course>
  <speed>0.0</speed>
  <fix>3d</fix>
</trkpt>
<trkpt lat="-27.274439" lon="151.290064">
  <ele>343.07</ele>
  <time>2026-09-01T19:56:44Z</time>
  <course>10.58</course>
  <speed>0.0</speed>
  <fix>3d</fix>
</trkpt>
<trkpt lat="-27.274439" lon="151.290064">
  <ele>343.1</ele>
  <time>2026-09-01T19:56:44Z</time>
  <course>270.0</course>
  <speed>0.0</speed>
  <fix>3d</fix>
</trkpt>
<trkpt lat="-27.274439" lon="151.290064">
  <ele>343.04</ele>
  <time>2026-09-01T19:56:44Z</time>
  <course>10.6</course>
  <speed>0.0</speed>
  <fix>3d</fix>
</trkpt>
<trkpt lat="-27.274439" lon="151.290064">
  <ele>343.1</ele>
  <time>2026-09-01T19:56:44Z</time>
  <course>270.0</course>
  <speed>0.0</speed>
  <fix>3d</fix>
</trkpt>
<trkpt lat="-27.274439" lon="151.290064">
  <ele>343.01</ele>
  <time>2026-09-01T19:56:44Z</time>
  <course>10.62</course>
  <speed>0.0</speed>
  <fix>3d</fix>
</trkpt>
<trkpt lat="-27.274439" lon="151.290064">
  <ele>343.1</ele>
  <time>2026-09-01T19:56:44Z</time>
  <course>270.0</course>
  <speed>0.0</speed>
  <fix>3d</fix>
</trkpt>
<trkpt lat="-27.274439" lon="151.290064">
  <ele>343.2</ele>
  <time>2026-09-01T19:56:44Z</time>
  <course>10.64</course>
  <speed>0.0</speed>
  <fix>3d</fix>
</trkpt>
<trkpt lat="-27.274439" lon="151.290064">
  <ele>343.1</ele>
  <time>2026-09-01T19:56:44Z</time>
  <course>270.0</course>
  <speed>0.0</speed>
  <fix>3d</fix>
</trkpt>
<trkpt lat="-27.274439" lon="151.290064">
  <ele>343.24</ele>
  <time>2026-09-01T19:56:44Z</time>
  <course>10.65</course>
  <speed>0.0</speed>
  <fix>3d</fix>
</trkpt>
<trkpt lat="-27.274439" lon="151.290064">
  <ele>343.1</ele>
  <time>2026-09-01T19:56:44Z</time>
  <course>270.0</course>
  <speed>0.0</speed>
  <fix>3d</fix>
</trkpt>
<trkpt lat="-27.274439" lon="151.290064">
  <ele>342.88</ele>
  <time>2026-09-01T19:56:44Z</time>
  <course>10.67</course>
  <speed>0.0</speed>
  <fix>3d</fix>
</trkpt>
<trkpt lat="-27.274439" lon="151.290064">
  <ele>343.1</ele>
  <time>2026-09-01T19:56:44Z</time>
  <course>270.0</course>
  <speed>0.0</speed>
  <fix>3d</fix>
</trkpt>
<trkpt lat="-27.274439" lon="151.290064">
  <ele>343.21</ele>
  <time>2026-09-01T19:56:44Z</time>
  <course>10.68</course>
  <speed>0.0</speed>
  <fix>3d</fix>
</trkpt>
<trkpt lat="-27.274439" lon="151.290064">
  <ele>343.1</ele>
  <time>2026-09-01T19:56:44Z</time>
  <course>270.0</course>
  <speed>0.0</speed>
  <fix>3d</fix>
</trkpt>
<trkpt lat="-27.274439" lon="151.290064">
  <ele>343.02</ele>
  <time>2026-09-01T19:56:44Z</time>
  <course>10.69</course>
  <speed>0.0</speed>
  <fix>3d</fix>
</trkpt>
<trkpt lat="-27.274439" lon="151.290064">
  <ele>343.1</ele>
  <time>2026-09-01T19:56:44Z</time>
  <course>270.0</course>
  <speed>0.0</speed>
  <fix>3d</fix>
</trkpt>
<trkpt lat="-27.274439" lon="151.290064">
  <ele>342.93</ele>
  <time>2026-09-01T19:56:44Z</time>
  <course>10.7</course>
  <speed>0.0</speed>
  <fix>3d</fix>
</trkpt>
<trkpt lat="-27.274439" lon="151.290064">
  <ele>343.1</ele>
  <time>2026-09-01T19:56:44Z</time>
  <course>270.0</course>
  <speed>0.0</speed>
  <fix>3d</fix>
</trkpt>
<trkpt lat="-27.274439" lon="151.290064">
  <ele>343.07</ele>
  <time>2026-09-01T19:56:44Z</time>
  <course>10.71</course>
  <speed>0.0</speed>
  <fix>3d</fix>
</trkpt>
<trkpt lat="-27.274439" lon="151.290064">
  <ele>343.1</ele>
  <time>2026-09-01T19:56:44Z</time>
  <course>270.0</course>
  <speed>0.0</speed>
  <fix>3d</fix>
</trkpt>
<trkpt lat="-27.274439" lon="151.290064">
  <ele>342.94</ele>
  <time>2026-09-01T19:56:44Z</time>
  <course>10.72</course>
  <speed>0.0</speed>
  <fix>3d</fix>
</trkpt>
<trkpt lat="-27.274439" lon="151.290064">
  <ele>343.1</ele>
  <time>2026-09-01T19:56:44Z</time>
  <course>270.0</course>
  <speed>0.0</speed>
  <fix>3d</fix>
</trkpt>
<trkpt lat="-27.274439" lon="151.290064">
  <ele>343.11</ele>
  <time>2026-09-01T19:56:44Z</time>
  <course>10.73</course>
  <speed>0.0</speed>
  <fix>3d</fix>
</trkpt>
<trkpt lat="-27.274439" lon="151.290064">
  <ele>343.1</ele>
  <time>2026-09-01T19:56:44Z</time>
  <course>270.0</course>
  <speed>0.0</speed>
  <fix>3d</fix>
</trkpt>
<trkpt lat="-27.274439" lon="151.290064">
  <ele>343.24</ele>
  <time>2026-09-01T19:56:44Z</time>
  <course>10.73</course>
  <speed>0.0</speed>
  <fix>3d</fix>
</trkpt>
<trkpt lat="-27.274439" lon="151.290064">
  <ele>343.1</ele>
  <time>2026-09-01T19:56:44Z</time>
  <course>270.0</course>
  <speed>0.0</speed>
  <fix>3d</fix>
</trkpt>
<trkpt lat="-27.274439" lon="151.290064">
  <ele>343.18</ele>
  <time>2026-09-01T19:56:44Z</time>
  <course>10.74</course>
  <speed>0.0</speed>
  <fix>3d</fix>
</trkpt>
<trkpt lat="-27.274439" lon="151.290064">
  <ele>343.1</ele>
  <time>2026-09-01T19:56:44Z</time>
  <course>270.0</course>
  <speed>0.0</speed>
  <fix>3d</fix>
</trkpt>
<trkpt lat="-27.274439" lon="151.290064">
  <ele>342.89</ele>
  <time>2026-09-01T19:56:44Z</time>
  <course>10.75</course>
  <speed>0.0</speed>
  <fix>3d</fix>
</trkpt>
<trkpt lat="-27.274439" lon="151.290064">
  <ele>343.1</ele>
  <time>2026-09-01T19:56:44Z</time>
  <course>270.0</course>
  <speed>0.0</speed>
  <fix>3d</fix>
</trkpt>
<trkpt lat="-27.274439" lon="151.290064">
  <ele>343.23</ele>
  <time>2026-09-01T19:56:44Z</time>
  <course>10.75</course>
  <speed>0.0</speed>
  <fix>3d</fix>
</trkpt>
<trkpt lat="-27.274439" lon="151.290064">
  <ele>343.1</ele>
  <time>2026-09-01T19:56:44Z</time>
  <course>270.0</course>
  <speed>0.0</speed>
  <fix>3d</fix>
</trkpt>
<trkpt lat="-27.274439" lon="151.290064">
  <ele>343.23</ele>
  <time>2026-09-01T19:56:44Z</time>
  <course>10.76</course>
  <speed>0.0</speed>
  <fix>3d</fix>
</trkpt>
<trkpt lat="-27.274439" lon="151.290064">
  <ele>343.1</ele>
  <time>2026-09-01T19:56:44Z</time>
  <course>270.0</course>
  <speed>0.0</speed>
  <fix>3d</fix>
</trkpt>
<trkpt lat="-27.274439" lon="151.290064">
  <ele>342.99</ele>
  <time>2026-09-01T19:56:44Z</time>
  <course>10.76</course>
  <speed>0.0</speed>
  <fix>3d</fix>
</trkpt>
<trkpt lat="-27.274439" lon="151.290064">
  <ele>343.1</ele>
  <time>2026-09-01T19:56:44Z</time>
  <course>270.0</course>
  <speed>0.0</speed>
  <fix>3d</fix>
</trkpt>
<trkpt lat="-27.274439" lon="151.290064">
  <ele>343.13</ele>
  <time>2026-09-01T19:56:44Z</time>
  <course>10.76</course>
  <speed>0.0</speed>
  <fix>3d</fix>
</trkpt>
<trkpt lat="-27.274439" lon="151.290064">
  <ele>343.1</ele>
  <time>2026-09-01T19:56:44Z</time>
  <course>270.0</course>
  <speed>0.0</speed>
  <fix>3d</fix>
</trkpt>
<trkpt lat="-27.274439" lon="151.290064">
  <ele>343.07</ele>
  <time>2026-09-01T19:56:44Z</time>
  <course>10.77</course>
  <speed>0.0</speed>
  <fix>3d</fix>
</trkpt>
<trkpt lat="-27.274439" lon="151.290064">
  <ele>343.1</ele>
  <time>2026-09-01T19:56:44Z</time>
  <course>270.0</course>
  <speed>0.0</speed>
  <fix>3d</fix>
</trkpt>
<trkpt lat="-27.274439" lon="151.290064">
  <ele>343.19</ele>
  <time>2026-09-01T19:56:44Z</time>
  <course>10.77</course>
  <speed>0.0</speed>
  <fix>3d</fix>
</trkpt>
<trkpt lat="-27.274439" lon="151.290064">
  <ele>343.1</ele>
  <time>2026-09-01T19:56:44Z</time>
  <course>270.0</course>
  <speed>0.0</speed>
  <fix>3d</fix>
</trkpt>
<trkpt lat="-27.274439" lon="151.290064">
  <ele>342.93</ele>
  <time>2026-09-01T19:56:44Z</time>
  <course>10.77</course>
  <speed>0.0</speed>
  <fix>3d</fix>
</trkpt>
<trkpt lat="-27.274439" lon="151.290064">
  <ele>343.1</ele>
  <time>2026-09-01T19:56:44Z</time>
  <course>270.0</course>
  <speed>0.0</speed>
  <fix>3d</fix>
</trkpt>
<trkpt lat="-27.274439" lon="151.290064">
  <ele>343.19</ele>
  <time>2026-09-01T19:56:44Z</time>
  <course>10.78</course>
  <speed>0.0</speed>
  <fix>3d</fix>
</trkpt>
<trkpt lat="-27.274439" lon="151.290064">
  <ele>343.1</ele>
  <time>2026-09-01T19:56:44Z</time>
  <course>270.0</course>
  <speed>0.0</speed>
  <fix>3d</fix>
</trkpt>
<trkpt lat="-27.274439" lon="151.290064">
  <ele>343.1</ele>
  <time>2026-09-01T19:56:44Z</time>
  <course>10.78</course>
  <speed>0.0</speed>
  <fix>3d</fix>
</trkpt>
<trkpt lat="-27.274439" lon="151.290064">
  <ele>343.1</ele>
  <time>2026-09-01T19:56:44Z</time>
  <course>270.0</course>
  <speed>0.0</speed>
  <fix>3d</fix>
</trkpt>
<trkpt lat="-27.274439" lon="151.290064">
  <ele>343.01</ele>
  <time>2026-09-01T19:56:44Z</time>
  <course>10.78</course>
  <speed>0.0</speed>
  <fix>3d</fix>
</trkpt>
<trkpt lat="-27.274439" lon="151.290064">
  <ele>343.1</ele>
  <time>2026-09-01T19:56:44Z</time>
  <course>270.0</course>
  <speed>0.0</speed>
  <fix>3d</fix>
</trkpt>
<trkpt lat="-27.274439" lon="151.290064">
  <ele>343.11</ele>
  <time>2026-09-01T19:56:44Z</time>
  <course>10.78</course>
  <speed>0.0</speed>
  <fix>3d</fix>
</trkpt>
<trkpt lat="-27.274439" lon="151.290064">
  <ele>343.1</ele>
  <time>2026-09-01T19:56:44Z</time>
  <course>270.0</course>
  <speed>0.0</speed>
  <fix>3d</fix>
</trkpt>
<trkpt lat="-27.274439" lon="151.290064">
  <ele>342.96</ele>
  <time>2026-09-01T19:56:44Z</time>
  <course>10.78</course>
  <speed>0.0</speed>
  <fix>3d</fix>
</trkpt>
<trkpt lat="-27.274439" lon="151.290064">
  <ele>343.1</ele>
  <time>2026-09-01T19:56:44Z</time>
  <course>270.0</course>
  <speed>0.0</speed>
  <fix>3d</fix>
</trkpt>
<trkpt lat="-27.274439" lon="151.290064">
  <ele>343.19</ele>
  <time>2026-09-01T19:56:44Z</time>
  <course>10.79</course>
  <speed>0.0</speed>
  <fix>3d</fix>
</trkpt>
<trkpt lat="-27.274439" lon="151.290064">
  <ele>343.1</ele>
  <time>2026-09-01T19:56:44Z</time>
  <course>270.0</course>
  <speed>0.0</speed>
  <fix>3d</fix>
</trkpt>
<trkpt lat="-27.274439" lon="151.290064">
  <ele>343.0</ele>
  <time>2026-09-01T19:56:44Z</time>
  <course>10.79</course>
  <speed>0.0</speed>
  <fix>3d</fix>
</trkpt>
<trkpt lat="-27.274439" lon="151.290064">
  <ele>343.1</ele>
  <time>2026-09-01T19:56:44Z</time>
  <course>270.0</course>
  <speed>0.0</speed>
  <fix>3d</fix>
</trkpt>
<trkpt lat="-27.274439" lon="151.290064">
  <ele>343.2</ele>
  <time>2026-09-01T19:56:44Z</time>
  <course>10.79</course>
  <speed>0.0</speed>
  <fix>3d</fix>
</trkpt>
<trkpt lat="-27.274439" lon="151.290064">
  <ele>343.1</ele>
  <time>2026-09-01T19:56:44Z</time>
  <course>270.0</course>
  <speed>0.0</speed>
  <fix>3d</fix>
</trkpt>
<trkpt lat="-27.274439" lon="151.290064">
  <ele>343.2</ele>
  <time>2026-09-01T19:56:44Z</time>
  <course>10.79</course>
  <speed>0.0</speed>
  <fix>3d</fix>
</trkpt>
<trkpt lat="-27.274439" lon="151.290064">
  <ele>343.1</ele>
  <time>2026-09-01T19:56:44Z</time>
  <course>270.0</course>
  <speed>0.0</speed>
  <fix>3d</fix>
</trkpt>
<trkpt lat="-27.274439" lon="151.290064">
  <ele>343.13</ele>
  <time>2026-09-01T19:56:44Z</time>
  <course>10.79</course>
  <speed>0.0</speed>
  <fix>3d</fix>
</trkpt>
<trkpt lat="-27.274439" lon="151.290064">
  <ele>343.1</ele>
  <time>2026-09-01T19:56:44Z</time>
  <course>270.0</course>
  <speed>0.0</speed>
  <fix>3d</fix>
</trkpt>
<trkpt lat="-27.274439" lon="151.290064">
  <ele>343.1</ele>
  <time>2026-09-01T19:56:44Z</time>
  <course>10.79</course>
  <speed>0.0</speed>
  <fix>3d</fix>
</trkpt>
<trkpt lat="-27.274439" lon="151.290064">
  <ele>343.1</ele>
  <time>2026-09-01T19:56:44Z</time>
  <course>270.0</course>
  <speed>0.0</speed>
  <fix>3d</fix>
</trkpt>
<trkpt lat="-27.274439" lon="151.290064">
  <ele>343.12</ele>
  <time>2026-09-01T19:56:44Z</time>
  <course>10.79</course>
  <speed>0.0</speed>
  <fix>3d</fix>
</trkpt>
<trkpt lat="-27.274439" lon="151.290064">
  <ele>343.1</ele>
  <time>2026-09-01T19:56:44Z</time>
  <course>270.0</course>
  <speed>0.0</speed>
  <fix>3d</fix>
</trkpt>
<trkpt lat="-27.274439" lon="151.290064">
  <ele>342.94</ele>
  <time>2026-09-01T19:56:44Z</time>
  <course>10.79</course>
  <speed>0.0</speed>
  <fix>3d</fix>
</trkpt>
<trkpt lat="-27.274439" lon="151.290064">
  <ele>343.1</ele>
  <time>2026-09-01T19:56:44Z</time>
  <course>270.0</course>
  <speed>0.0</speed>
  <fix>3d</fix>
</trkpt>
<trkpt lat="-27.274439" lon="151.290064">
  <ele>343.25</ele>
  <time>2026-09-01T19:56:44Z</time>
  <course>10.79</course>
  <speed>0.0</speed>
  <fix>3d</fix>
</trkpt>
<trkpt lat="-27.274439" lon="151.290064">
  <ele>343.1</ele>
  <time>2026-09-01T19:56:44Z</time>
  <course>270.0</course>
  <speed>0.0</speed>
  <fix>3d</fix>
</trkpt>
<trkpt lat="-27.274439" lon="151.290064">
  <ele>342.93</ele>
  <time>2026-09-01T19:56:44Z</time>
  <course>10.79</course>
  <speed>0.0</speed>
  <fix>3d</fix>
</trkpt>
<trkpt lat="-27.274439" lon="151.290064">
  <ele>343.1</ele>
  <time>2026-09-01T19:56:44Z</time>
  <course>270.0</course>
  <speed>0.0</speed>
  <fix>3d</fix>
</trkpt>
<trkpt lat="-27.274439" lon="151.290064">
  <ele>343.08</ele>
  <time>2026-09-01T19:56:44Z</time>
  <course>10.79</course>
  <speed>0.0</speed>
  <fix>3d</fix>
</trkpt>
<trkpt lat="-27.274439" lon="151.290064">
  <ele>343.1</ele>
  <time>2026-09-01T19:56:44Z</time>
  <course>270.0</course>
  <speed>0.0</speed>
  <fix>3d</fix>
</trkpt>
<trkpt lat="-27.274439" lon="151.290064">
  <ele>343.23</ele>
  <time>2026-09-01T19:56:44Z</time>
  <course>10.8</course>
  <speed>0.0</speed>
  <fix>3d</fix>
</trkpt>
<trkpt lat="-27.274439" lon="151.290064">
  <ele>343.1</ele>
  <time>2026-09-01T19:56:44Z</time>
  <course>270.0</course>
  <speed>0.0</speed>
  <fix>3d</fix>
</trkpt>
<trkpt lat="-27.274439" lon="151.290064">
  <ele>343.01</ele>
  <time>2026-09-01T19:56:44Z</time>
  <course>10.8</course>
  <speed>0.0</speed>
  <fix>3d</fix>
</trkpt>
<trkpt lat="-27.274439" lon="151.290064">
  <ele>343.1</ele>
  <time>2026-09-01T19:56:44Z</time>
  <course>270.0</course>
  <speed>0.0</speed>
  <fix>3d</fix>
</trkpt>
<trkpt lat="-27.274439" lon="151.290064">
  <ele>343.1</ele>
  <time>2026-09-01T19:56:44Z</time>
  <course>10.8</course>
  <speed>0.0</speed>
  <fix>3d</fix>
</trkpt>
<trkpt lat="-27.274439" lon="151.290064">
  <ele>343.1</ele>
  <time>2026-09-01T19:56:44Z</time>
  <course>270.0</course>
  <speed>0.0</speed>
  <fix>3d</fix>
</trkpt>
<trkpt lat="-27.274439" lon="151.290064">
  <ele>342.99</ele>
  <time>2026-09-01T19:56:44Z</time>
  <course>10.8</course>
  <speed>0.0</speed>
  <fix>3d</fix>
</trkpt>
<trkpt lat="-27.274439" lon="151.290064">
  <ele>343.1</ele>
  <time>2026-09-01T19:56:44Z</time>
  <course>270.0</course>
  <speed>0.0</speed>
  <fix>3d</fix>
</trkpt>
<trkpt lat="-27.274439" lon="151.290064">
  <ele>342.87</ele>
  <time>2026-09-01T19:56:44Z</time>
  <course>10.8</course>
  <speed>0.0</speed>
  <fix>3d</fix>
</trkpt>
<trkpt lat="-27.274439" lon="151.290064">
  <ele>343.1</ele>
  <time>2026-09-01T19:56:44Z</time>
  <course>270.0</course>
  <speed>0.0</speed>
  <fix>3d</fix>
</trkpt>
<trkpt lat="-27.274439" lon="151.290064">
  <ele>343.1</ele>
  <time>2026-09-01T19:56:44Z</time>
  <course>10.8</course>
  <speed>0.0</speed>
  <fix>3d</fix>
</trkpt>
<trkpt lat="-27.274439" lon="151.290064">
  <ele>343.1</ele>
  <time>2026-09-01T19:56:44Z</time>
  <course>270.0</course>
  <speed>0.0</speed>
  <fix>3d</fix>
</trkpt>
<trkpt lat="-27.274439" lon="151.290064">
  <ele>342.99</ele>
  <time>2026-09-01T19:56:44Z</time>
  <course>10.8</course>
  <speed>0.0</speed>
  <fix>3d</fix>
</trkpt>
<trkpt lat="-27.274439" lon="151.290064">
  <ele>343.1</ele>
  <time>2026-09-01T19:56:44Z</time>
  <course>270.0</course>
  <speed>0.0</speed>
  <fix>3d</fix>
</trkpt>
<trkpt lat="-27.274439" lon="151.290064">
  <ele>342.91</ele>
  <time>2026-09-01T19:56:44Z</time>
  <course>10.8</course>
  <speed>0.0</speed>
  <fix>3d</fix>
</trkpt>
<trkpt lat="-27.274439" lon="151.290064">
  <ele>343.1</ele>
  <time>2026-09-01T19:56:44Z</time>
  <course>270.0</course>
  <speed>0.0</speed>
  <fix>3d</fix>
</trkpt>
<trkpt lat="-27.274439" lon="151.290064">
  <ele>342.9</ele>
  <time>2026-09-01T19:56:44Z</time>
  <course>10.8</course>
  <speed>0.0</speed>
  <fix>3d</fix>
</trkpt>
<trkpt lat="-27.274439" lon="151.290064">
  <ele>343.1</ele>
  <time>2026-09-01T19:56:44Z</time>
  <course>270.0</course>
  <speed>0.0</speed>
  <fix>3d</fix>
</trkpt>
<trkpt lat="-27.274439" lon="151.290064">
  <ele>342.87</ele>
  <time>2026-09-01T19:56:44Z</time>
  <course>10.8</course>
  <speed>0.0</speed>
  <fix>3d</fix>
</trkpt>
<trkpt lat="-27.274439" lon="151.290064">
  <ele>343.1</ele>
  <time>2026-09-01T19:56:44Z</time>
  <course>270.0</course>
  <speed>0.0</speed>
  <fix>3d</fix>
</trkpt>
<trkpt lat="-27.274439" lon="151.290064">
  <ele>343.12</ele>
  <time>2026-09-01T19:56:44Z</time>
  <course>10.8</course>
  <speed>0.0</speed>
  <fix>3d</fix>
</trkpt>
<trkpt lat="-27.274439" lon="151.290064">
  <ele>343.1</ele>
  <time>2026-09-01T19:56:44Z</time>
  <course>270.0</course>
  <speed>0.0</speed>
  <fix>3d</fix>
</trkpt>
<trkpt lat="-27.274439" lon="151.290064">
  <ele>342.99</ele>
  <time>2026-09-01T19:56:44Z</time>
  <course>10.8</course>
  <speed>0.0</speed>
  <fix>3d</fix>
</trkpt>
<trkpt lat="-27.274439" lon="151.290064">
  <ele>343.1</ele>
  <time>2026-09-01T19:56:44Z</time>
  <course>270.0</course>
  <speed>0.0</speed>
  <fix>3d</fix>
</trkpt>
<trkpt lat="-27.274439" lon="151.290064">
  <ele>343.13</ele>
  <time>2026-09-01T19:56:44Z</time>
  <course>10.8</course>
  <speed>0.0</speed>
  <fix>3d</fix>
</trkpt>
<trkpt lat="-27.274439" lon="151.290064">
  <ele>343.1</ele>
  <time>2026-09-01T19:56:44Z</time>
  <course>270.0</course>
  <speed>0.0</speed>
  <fix>3d</fix>
</trkpt>
<trkpt lat="-27.274439" lon="151.290064">
  <ele>343.0</ele>
  <time>2026-09-01T19:56:44Z</time>
  <course>10.8</course>
  <speed>0.0</speed>
  <fix>3d</fix>
</trkpt>
<trkpt lat="-27.274439" lon="151.290064">
  <ele>343.1</ele>
  <time>2026-09-01T19:56:44Z</time>
  <course>270.0</course>
  <speed>0.0</speed>
  <fix>3d</fix>
</trkpt>
<trkpt lat="-27.274439" lon="151.290064">
  <ele>343.17</ele>
  <time>2026-09-01T19:56:44Z</time>
  <course>10.8</course>
  <speed>0.0</speed>
  <fix>3d</fix>
</trkpt>
<trkpt lat="-27.274439" lon="151.290064">
  <ele>343.1</ele>
  <time>2026-09-01T19:56:44Z</time>
  <course>270.0</course>
  <speed>0.0</speed>
  <fix>3d</fix>
</trkpt>
<trkpt lat="-27.274439" lon="151.290064">
  <ele>343.0</ele>
  <time>2026-09-01T19:56:44Z</time>
  <course>10.8</course>
  <speed>0.0</speed>
  <fix>3d</fix>
</trkpt>
<trkpt lat="-27.274439" lon="151.290064">
  <ele>343.1</ele>
  <time>2026-09-01T19:56:44Z</time>
  <course>270.0</course>
  <speed>0.0</speed>
  <fix>3d</fix>
</trkpt>
<trkpt lat="-27.274439" lon="151.290064">
  <ele>342.99</ele>
  <time>2026-09-01T19:56:44Z</time>
  <course>10.8</course>
  <speed>0.0</speed>
  <fix>3d</fix>
</trkpt>
<trkpt lat="-27.274439" lon="151.290064">
  <ele>343.1</ele>
  <time>2026-09-01T19:56:44Z</time>
  <course>270.0</course>
  <speed>0.0</speed>
  <fix>3d</fix>
</trkpt>
<trkpt lat="-27.274439" lon="151.290064">
  <ele>343.17</ele>
  <time>2026-09-01T19:56:44Z</time>
  <course>10.8</course>
  <speed>0.0</speed>
  <fix>3d</fix>
</trkpt>
<trkpt lat="-27.274439" lon="151.290064">
  <ele>343.1</ele>
  <time>2026-09-01T19:56:44Z</time>
  <course>270.0</course>
  <speed>0.0</speed>
  <fix>3d</fix>
</trkpt>
<trkpt lat="-27.274439" lon="151.290064">
  <ele>343.16</ele>
  <time>2026-09-01T19:56:44Z</time>
  <course>10.8</course>
  <speed>0.0</speed>
  <fix>3d</fix>
</trkpt>
<trkpt lat="-27.274439" lon="151.290064">
  <ele>343.1</ele>
  <time>2026-09-01T19:56:44Z</time>
  <course>270.0</course>
  <speed>0.0</speed>
  <fix>3d</fix>
</trkpt>
<trkpt lat="-27.274439" lon="151.290064">
  <ele>342.87</ele>
  <time>2026-09-01T19:56:44Z</time>
  <course>10.8</course>
  <speed>0.0</speed>
  <fix>3d</fix>
</trkpt>
<trkpt lat="-27.274439" lon="151.290064">
  <ele>343.1</ele>
  <time>2026-09-01T19:56:44Z</time>
  <course>270.0</course>
  <speed>0.0</speed>
  <fix>3d</fix>
</trkpt>
<trkpt lat="-27.274439" lon="151.290064">
  <ele>343.19</ele>
  <time>2026-09-01T19:56:44Z</time>
  <course>10.8</course>
  <speed>0.0</speed>
  <fix>3d</fix>
</trkpt>
<trkpt lat="-27.274439" lon="151.290064">
  <ele>343.1</ele>
  <time>2026-09-01T19:56:44Z</time>
  <course>270.0</course>
  <speed>0.0</speed>
  <fix>3d</fix>
</trkpt>
<trkpt lat="-27.274439" lon="151.290064">
  <ele>343.16</ele>
  <time>2026-09-01T19:56:44Z</time>
  <course>10.8</course>
  <speed>0.0</speed>
  <fix>3d</fix>
</trkpt>
<trkpt lat="-27.274439" lon="151.290064">
  <ele>343.1</ele>
  <time>2026-09-01T19:56:44Z</time>
  <course>270.0</course>
  <speed>0.0</speed>
  <fix>3d</fix>
</trkpt>
<trkpt lat="-27.274439" lon="151.290064">
  <ele>343.21</ele>
  <time>2026-09-01T19:56:44Z</time>
  <course>10.8</course>
  <speed>0.0</speed>
  <fix>3d</fix>
</trkpt>
<trkpt lat="-27.274439" lon="151.290064">
  <ele>343.1</ele>
  <time>2026-09-01T19:56:44Z</time>
  <course>270.0</course>
  <speed>0.0</speed>
  <fix>3d</fix>
</trkpt>
<trkpt lat="-27.274439" lon="151.290064">
  <ele>343.22</ele>
  <time>2026-09-01T19:56:44Z</time>
  <course>10.8</course>
  <speed>0.0</speed>
  <fix>3d</fix>
</trkpt>
<trkpt lat="-27.274439" lon="151.290064">
  <ele>343.1</ele>
  <time>2026-09-01T19:56:44Z</time>
  <course>270.0</course>
  <speed>0.0</speed>
  <fix>3d</fix>
</trkpt>
<trkpt lat="-27.274439" lon="151.290064">
  <ele>343.24</ele>
  <time>2026-09-01T19:56:44Z</time>
  <course>10.8</course>
  <speed>0.0</speed>
  <fix>3d</fix>
</trkpt>
<trkpt lat="-27.274439" lon="151.290064">
  <ele>343.1</ele>
  <time>2026-09-01T19:56:44Z</time>
  <course>270.0</course>
  <speed>0.0</speed>
  <fix>3d</fix>
</trkpt>
<trkpt lat="-27.274439" lon="151.290064">
  <ele>343.0</ele>
  <time>2026-09-01T19:56:44Z</time>
  <course>10.8</course>
  <speed>0.0</speed>
  <fix>3d</fix>
</trkpt>
<trkpt lat="-27.274439" lon="151.290064">
  <ele>343.1</ele>
  <time>2026-09-01T19:56:44Z</time>
  <course>270.0</course>
  <speed>0.0</speed>
  <fix>3d</fix>
</trkpt>
<trkpt lat="-27.274439" lon="151.290064">
  <ele>343.1</ele>
  <time>2026-09-01T19:56:44Z</time>
  <course>10.8</course>
  <speed>0.0</speed>
  <fix>3d</fix>
</trkpt>
<trkpt lat="-27.274439" lon="151.290064">
  <ele>343.1</ele>
  <time>2026-09-01T19:56:44Z</time>
  <course>270.0</course>
  <speed>0.0</speed>
  <fix>3d</fix>
</trkpt>
<trkpt lat="-27.274439" lon="151.290064">
  <ele>343.05</ele>
  <time>2026-09-01T19:56:44Z</time>
  <course>10.8</course>
  <speed>0.0</speed>
  <fix>3d</fix>
</trkpt>
<trkpt lat="-27.274439" lon="151.290064">
  <ele>343.1</ele>
  <time>2026-09-01T19:56:44Z</time>
  <course>270.0</course>
  <speed>0.0</speed>
  <fix>3d</fix>
</trkpt>
<trkpt lat="-27.274439" lon="151.290064">
  <ele>342.87</ele>
  <time>2026-09-01T19:56:44Z</time>
  <course>10.8</course>
  <speed>0.0</speed>
  <fix>3d</fix>
</trkpt>
<trkpt lat="-27.274439" lon="151.290064">
  <ele>343.1</ele>
  <time>2026-09-01T19:56:44Z</time>
  <course>270.0</course>
  <speed>0.0</speed>
  <fix>3d</fix>
</trkpt>
<trkpt lat="-27.274439" lon="151.290064">
  <ele>342.92</ele>
  <time>2026-09-01T19:56:44Z</time>
  <course>10.8</course>
  <speed>0.0</speed>
  <fix>3d</fix>
</trkpt>
<trkpt lat="-27.274439" lon="151.290064">
  <ele>343.1</ele>
  <time>2026-09-01T19:56:44Z</time>
  <course>270.0</course>
  <speed>0.0</speed>
  <fix>3d</fix>
</trkpt>
<trkpt lat="-27.274439" lon="151.290064">
  <ele>342.96</ele>
  <time>2026-09-01T19:56:44Z</time>
  <course>10.8</course>
  <speed>0.0</speed>
  <fix>3d</fix>
</trkpt>
<trkpt lat="-27.274439" lon="151.290064">
  <ele>343.1</ele>
  <time>2026-09-01T19:56:44Z</time>
  <course>270.0</course>
  <speed>0.0</speed>
  <fix>3d</fix>
</trkpt>
<trkpt lat="-27.274439" lon="151.290064">
  <ele>343.15</ele>
  <time>2026-09-01T19:56:44Z</time>
  <course>10.8</course>
  <speed>0.0</speed>
  <fix>3d</fix>
</trkpt>
<trkpt lat="-27.274439" lon="151.290064">
  <ele>343.1</ele>
  <time>2026-09-01T19:56:44Z</time>
  <course>270.0</course>
  <speed>0.0</speed>
  <fix>3d</fix>
</trkpt>
<trkpt lat="-27.274439" lon="151.290064">
  <ele>343.16</ele>
  <time>2026-09-01T19:56:44Z</time>
  <course>10.8</course>
  <speed>0.0</speed>
  <fix>3d</fix>
</trkpt>
<trkpt lat="-27.274439" lon="151.290064">
  <ele>343.1</ele>
  <time>2026-09-01T19:56:44Z</time>
  <course>270.0</course>
  <speed>0.0</speed>
  <fix>3d</fix>
</trkpt>
<trkpt lat="-27.274439" lon="151.290064">
  <ele>343.2</ele>
  <time>2026-09-01T19:56:44Z</time>
  <course>10.81</course>
  <speed>0.0</speed>
  <fix>3d</fix>
</trkpt>
<trkpt lat="-27.274439" lon="151.290064">
  <ele>343.1</ele>
  <time>2026-09-01T19:56:44Z</time>
  <course>270.0</course>
  <speed>0.0</speed>
  <fix>3d</fix>
</trkpt>
<trkpt lat="-27.274439" lon="151.290064">
  <ele>343.13</ele>
  <time>2026-09-01T19:56:44Z</time>
  <course>10.82</course>
  <speed>0.0</speed>
  <fix>3d</fix>
</trkpt>
<trkpt lat="-27.274439" lon="151.290064">
  <ele>343.1</ele>
  <time>2026-09-01T19:56:44Z</time>
  <course>270.0</course>
  <speed>0.0</speed>
  <fix>3d</fix>
</trkpt>
<trkpt lat="-27.274439" lon="151.290064">
  <ele>343.09</ele>
  <time>2026-09-01T19:56:44Z</time>
  <course>10.71</course>
  <speed>0.0</speed>
  <fix>3d</fix>
</trkpt>
<trkpt lat="-27.274439" lon="151.290064">
  <ele>343.1</ele>
  <time>2026-09-01T19:56:44Z</time>
  <course>270.0</course>
  <speed>0.0</speed>
  <fix>3d</fix>
</trkpt>
<trkpt lat="-27.274439" lon="151.290064">
  <ele>343.09</ele>
  <time>2026-09-01T19:56:44Z</time>
  <course>10.71</course>
  <speed>0.0</speed>
  <fix>3d</fix>
</trkpt>
<trkpt lat="-27.274439" lon="151.290064">
  <ele>343.1</ele>
  <time>2026-09-01T19:56:44Z</time>
  <course>270.0</course>
  <speed>0.0</speed>
  <fix>3d</fix>
</trkpt>
<trkpt lat="-27.274439" lon="151.290064">
  <ele>343.1</ele>
  <time>2026-09-01T19:56:44Z</time>
  <course>10.71</course>
  <speed>0.0</speed>
  <fix>3d</fix>
</trkpt>
<trkpt lat="-27.274439" lon="151.290064">
  <ele>343.1</ele>
  <time>2026-09-01T19:56:44Z</time>
  <course>270.0</course>
  <speed>0.0</speed>
  <fix>3d</fix>
</trkpt>
<trkpt lat="-27.274439" lon="151.290064">
  <ele>343.1</ele>
  <time>2026-09-01T19:56:44Z</time>
  <course>10.71</course>
  <speed>0.0</speed>
  <fix>3d</fix>
</trkpt>
<trkpt lat="-27.274439" lon="151.290064">
  <ele>343.1</ele>
  <time>2026-09-01T19:56:44Z</time>
  <course>270.0</course>
  <speed>0.0</speed>
  <fix>3d</fix>
</trkpt>
<trkpt lat="-27.274439" lon="151.290064">
  <ele>343.1</ele>
  <time>2026-09-01T19:56:44Z</time>
  <course>10.71</course>
  <speed>0.0</speed>
  <fix>3d</fix>
</trkpt>
<trkpt lat="-27.274439" lon="151.290064">
  <ele>343.1</ele>
  <time>2026-09-01T19:56:44Z</time>
  <course>270.0</course>
  <speed>0.0</speed>
  <fix>3d</fix>
</trkpt>
<trkpt lat="-27.274439" lon="151.290064">
  <ele>343.1</ele>
  <time>2026-09-01T19:56:44Z</time>
  <course>10.71</course>
  <speed>0.0</speed>
  <fix>3d</fix>
</trkpt>
<trkpt lat="-27.274439" lon="151.290064">
  <ele>343.1</ele>
  <time>2026-09-01T19:56:44Z</time>
  <course>270.0</course>
  <speed>0.0</speed>
  <fix>3d</fix>
</trkpt>
<trkpt lat="-27.274439" lon="151.290064">
  <ele>343.1</ele>
  <time>2026-09-01T19:56:44Z</time>
  <course>10.71</course>
  <speed>0.0</speed>
  <fix>3d</fix>
</trkpt>
<trkpt lat="-27.274439" lon="151.290064">
  <ele>343.1</ele>
  <time>2026-09-01T19:56:44Z</time>
  <course>270.0</course>
  <speed>0.0</speed>
  <fix>3d</fix>
</trkpt>
<trkpt lat="-27.274439" lon="151.290064">
  <ele>343.11</ele>
  <time>2026-09-01T19:56:44Z</time>
  <course>10.71</course>
  <speed>0.0</speed>
  <fix>3d</fix>
</trkpt>
<trkpt lat="-27.274439" lon="151.290064">
  <ele>343.1</ele>
  <time>2026-09-01T19:56:44Z</time>
  <course>270.0</course>
  <speed>0.0</speed>
  <fix>3d</fix>
</trkpt>
<trkpt lat="-27.274439" lon="151.290064">
  <ele>343.11</ele>
  <time>2026-09-01T19:56:44Z</time>
  <course>10.71</course>
  <speed>0.0</speed>
  <fix>3d</fix>
</trkpt>
<trkpt lat="-27.274439" lon="151.290064">
  <ele>343.1</ele>
  <time>2026-09-01T19:56:44Z</time>
  <course>270.0</course>
  <speed>0.0</speed>
  <fix>3d</fix>
</trkpt>
<trkpt lat="-27.274439" lon="151.290064">
  <ele>343.11</ele>
  <time>2026-09-01T19:56:44Z</time>
  <course>10.71</course>
  <speed>0.0</speed>
  <fix>3d</fix>
</trkpt>
<trkpt lat="-27.274439" lon="151.290064">
  <ele>343.1</ele>
  <time>2026-09-01T19:56:44Z</time>
  <course>270.0</course>
  <speed>0.0</speed>
  <fix>3d</fix>
</trkpt>
<trkpt lat="-27.274439" lon="151.290064">
  <ele>343.12</ele>
  <time>2026-09-01T19:56:44Z</time>
  <course>10.71</course>
  <speed>0.0</speed>
  <fix>3d</fix>
</trkpt>
<trkpt lat="-27.274439" lon="151.290064">
  <ele>343.1</ele>
  <time>2026-09-01T19:56:44Z</time>
  <course>270.0</course>
  <speed>0.0</speed>
  <fix>3d</fix>
</trkpt>
<trkpt lat="-27.274439" lon="151.290064">
  <ele>343.12</ele>
  <time>2026-09-01T19:56:44Z</time>
  <course>10.71</course>
  <speed>0.0</speed>
  <fix>3d</fix>
</trkpt>
<trkpt lat="-27.274439" lon="151.290064">
  <ele>343.1</ele>
  <time>2026-09-01T19:56:44Z</time>
  <course>270.0</course>
  <speed>0.0</speed>
  <fix>3d</fix>
</trkpt>
<trkpt lat="-27.274439" lon="151.290064">
  <ele>343.1</ele>
  <time>2026-09-01T19:56:44Z</time>
  <course>10.71</course>
  <speed>0.0</speed>
  <fix>3d</fix>
</trkpt>
<trkpt lat="-27.274439" lon="151.290064">
  <ele>343.1</ele>
  <time>2026-09-01T19:56:44Z</time>
  <course>270.0</course>
  <speed>0.0</speed>
  <fix>3d</fix>
</trkpt>
<trkpt lat="-27.274439" lon="151.290064">
  <ele>343.1</ele>
  <time>2026-09-01T19:56:44Z</time>
  <course>10.71</course>
  <speed>0.0</speed>
  <fix>3d</fix>
</trkpt>
<trkpt lat="-27.274439" lon="151.290064">
  <ele>343.1</ele>
  <time>2026-09-01T19:56:44Z</time>
  <course>270.0</course>
  <speed>0.0</speed>
  <fix>3d</fix>
</trkpt>
<trkpt lat="-27.274439" lon="151.290064">
  <ele>343.1</ele>
  <time>2026-09-01T19:56:44Z</time>
  <course>10.71</course>
  <speed>0.0</speed>
  <fix>3d</fix>
</trkpt>
<trkpt lat="-27.274439" lon="151.290064">
  <ele>343.1</ele>
  <time>2026-09-01T19:56:44Z</time>
  <course>270.0</course>
  <speed>0.0</speed>
  <fix>3d</fix>
</trkpt>
<trkpt lat="-27.274439" lon="151.290064">
  <ele>343.09</ele>
  <time>2026-09-01T19:56:44Z</time>
  <course>10.71</course>
  <speed>0.0</speed>
  <fix>3d</fix>
</trkpt>
<trkpt lat="-27.274439" lon="151.290064">
  <ele>343.1</ele>
  <time>2026-09-01T19:56:44Z</time>
  <course>270.0</course>
  <speed>0.0</speed>
  <fix>3d</fix>
</trkpt>
<trkpt lat="-27.274439" lon="151.290064">
  <ele>343.09</ele>
  <time>2026-09-01T19:56:44Z</time>
  <course>10.71</course>
  <speed>0.0</speed>
  <fix>3d</fix>
</trkpt>
<trkpt lat="-27.274439" lon="151.290064">
  <ele>343.1</ele>
  <time>2026-09-01T19:56:44Z</time>
  <course>270.0</course>
  <speed>0.0</speed>
  <fix>3d</fix>
</trkpt>
<trkpt lat="-27.274439" lon="151.290064">
  <ele>343.1</ele>
  <time>2026-09-01T19:56:44Z</time>
  <course>10.71</course>
  <speed>0.0</speed>
  <fix>3d</fix>
</trkpt>
<trkpt lat="-27.274439" lon="151.290064">
  <ele>343.1</ele>
  <time>2026-09-01T19:56:44Z</time>
  <course>270.0</course>
  <speed>0.0</speed>
  <fix>3d</fix>
</trkpt>
<trkpt lat="-27.274439" lon="151.290064">
  <ele>343.1</ele>
  <time>2026-09-01T19:56:44Z</time>
  <course>10.71</course>
  <speed>0.0</speed>
  <fix>3d</fix>
</trkpt>
<trkpt lat="-27.274439" lon="151.290064">
  <ele>343.1</ele>
  <time>2026-09-01T19:56:44Z</time>
  <course>270.0</course>
  <speed>0.0</speed>
  <fix>3d</fix>
</trkpt>
<trkpt lat="-27.274439" lon="151.290064">
  <ele>343.1</ele>
  <time>2026-09-01T19:56:44Z</time>
  <course>10.71</course>
  <speed>0.0</speed>
  <fix>3d</fix>
</trkpt>
<trkpt lat="-27.274439" lon="151.290064">
  <ele>343.1</ele>
  <time>2026-09-01T19:56:44Z</time>
  <course>270.0</course>
  <speed>0.0</speed>
  <fix>3d</fix>
</trkpt>
<trkpt lat="-27.274439" lon="151.290064">
  <ele>343.1</ele>
  <time>2026-09-01T19:56:44Z</time>
  <course>10.71</course>
  <speed>0.0</speed>
  <fix>3d</fix>
</trkpt>
<trkpt lat="-27.274439" lon="151.290064">
  <ele>343.1</ele>
  <time>2026-09-01T19:56:44Z</time>
  <course>270.0</course>
  <speed>0.0</speed>
  <fix>3d</fix>
</trkpt>
<trkpt lat="-27.274439" lon="151.290064">
  <ele>343.1</ele>
  <time>2026-09-01T19:56:44Z</time>
  <course>10.71</course>
  <speed>0.0</speed>
  <fix>3d</fix>
</trkpt>
<trkpt lat="-27.274439" lon="151.290064">
  <ele>343.1</ele>
  <time>2026-09-01T19:56:44Z</time>
  <course>270.0</course>
  <speed>0.0</speed>
  <fix>3d</fix>
</trkpt>
<trkpt lat="-27.274439" lon="151.290064">
  <ele>343.1</ele>
  <time>2026-09-01T19:56:44Z</time>
  <course>10.71</course>
  <speed>0.0</speed>
  <fix>3d</fix>
</trkpt>
<trkpt lat="-27.274439" lon="151.290064">
  <ele>343.1</ele>
  <time>2026-09-01T19:56:44Z</time>
  <course>270.0</course>
  <speed>0.0</speed>
  <fix>3d</fix>
</trkpt>
<trkpt lat="-27.274439" lon="151.290064">
  <ele>343.11</ele>
  <time>2026-09-01T19:56:45Z</time>
  <course>10.71</course>
  <speed>0.0</speed>
  <fix>3d</fix>
</trkpt>
<trkpt lat="-27.274439" lon="151.290064">
  <ele>343.1</ele>
  <time>2026-09-01T19:56:45Z</time>
  <course>270.0</course>
  <speed>0.0</speed>
  <fix>3d</fix>
</trkpt>
<trkpt lat="-27.274439" lon="151.290064">
  <ele>343.11</ele>
  <time>2026-09-01T19:56:45Z</time>
  <course>10.71</course>
  <speed>0.0</speed>
  <fix>3d</fix>
</trkpt>
<trkpt lat="-27.274439" lon="151.290064">
  <ele>343.1</ele>
  <time>2026-09-01T19:56:45Z</time>
  <course>270.0</course>
  <speed>0.0</speed>
  <fix>3d</fix>
</trkpt>
<trkpt lat="-27.274439" lon="151.290064">
  <ele>343.11</ele>
  <time>2026-09-01T19:56:45Z</time>
  <course>10.71</course>
  <speed>0.0</speed>
  <fix>3d</fix>
</trkpt>
<trkpt lat="-27.274439" lon="151.290064">
  <ele>343.1</ele>
  <time>2026-09-01T19:56:45Z</time>
  <course>270.0</course>
  <speed>0.0</speed>
  <fix>3d</fix>
</trkpt>
<trkpt lat="-27.274439" lon="151.290064">
  <ele>343.11</ele>
  <time>2026-09-01T19:56:45Z</time>
  <course>10.71</course>
  <speed>0.0</speed>
  <fix>3d</fix>
</trkpt>
<trkpt lat="-27.274439" lon="151.290064">
  <ele>343.1</ele>
  <time>2026-09-01T19:56:45Z</time>
  <course>270.0</course>
  <speed>0.0</speed>
  <fix>3d</fix>
</trkpt>
<trkpt lat="-27.274439" lon="151.290064">
  <ele>343.12</ele>
  <time>2026-09-01T19:56:45Z</time>
  <course>10.71</course>
  <speed>0.0</speed>
  <fix>3d</fix>
</trkpt>
<trkpt lat="-27.274439" lon="151.290064">
  <ele>343.1</ele>
  <time>2026-09-01T19:56:45Z</time>
  <course>270.0</course>
  <speed>0.0</speed>
  <fix>3d</fix>
</trkpt>
<trkpt lat="-27.274439" lon="151.290064">
  <ele>343.12</ele>
  <time>2026-09-01T19:56:45Z</time>
  <course>10.71</course>
  <speed>0.0</speed>
  <fix>3d</fix>
</trkpt>
<trkpt lat="-27.274439" lon="151.290064">
  <ele>343.1</ele>
  <time>2026-09-01T19:56:45Z</time>
  <course>270.0</course>
  <speed>0.0</speed>
  <fix>3d</fix>
</trkpt>
<trkpt lat="-27.274439" lon="151.290064">
  <ele>343.13</ele>
  <time>2026-09-01T19:56:45Z</time>
  <course>10.71</course>
  <speed>0.0</speed>
  <fix>3d</fix>
</trkpt>
<trkpt lat="-27.274439" lon="151.290064">
  <ele>343.1</ele>
  <time>2026-09-01T19:56:45Z</time>
  <course>270.0</course>
  <speed>0.0</speed>
  <fix>3d</fix>
</trkpt>
<trkpt lat="-27.274439" lon="151.290064">
  <ele>343.13</ele>
  <time>2026-09-01T19:56:45Z</time>
  <course>10.71</course>
  <speed>0.0</speed>
  <fix>3d</fix>
</trkpt>
<trkpt lat="-27.274439" lon="151.290064">
  <ele>343.1</ele>
  <time>2026-09-01T19:56:45Z</time>
  <course>270.0</course>
  <speed>0.0</speed>
  <fix>3d</fix>
</trkpt>
<trkpt lat="-27.274439" lon="151.290064">
  <ele>343.14</ele>
  <time>2026-09-01T19:56:45Z</time>
  <course>10.71</course>
  <speed>0.0</speed>
  <fix>3d</fix>
</trkpt>
<trkpt lat="-27.274439" lon="151.290064">
  <ele>343.1</ele>
  <time>2026-09-01T19:56:45Z</time>
  <course>270.0</course>
  <speed>0.0</speed>
  <fix>3d</fix>
</trkpt>
<trkpt lat="-27.274439" lon="151.290064">
  <ele>343.14</ele>
  <time>2026-09-01T19:56:45Z</time>
  <course>10.71</course>
  <speed>0.0</speed>
  <fix>3d</fix>
</trkpt>
<trkpt lat="-27.274439" lon="151.290064">
  <ele>343.1</ele>
  <time>2026-09-01T19:56:45Z</time>
  <course>270.0</course>
  <speed>0.0</speed>
  <fix>3d</fix>
</trkpt>
<trkpt lat="-27.274439" lon="151.290064">
  <ele>343.15</ele>
  <time>2026-09-01T19:56:45Z</time>
  <course>10.71</course>
  <speed>0.0</speed>
  <fix>3d</fix>
</trkpt>
<trkpt lat="-27.274439" lon="151.290064">
  <ele>343.1</ele>
  <time>2026-09-01T19:56:45Z</time>
  <course>270.0</course>
  <speed>0.0</speed>
  <fix>3d</fix>
</trkpt>
<trkpt lat="-27.274439" lon="151.290064">
  <ele>343.15</ele>
  <time>2026-09-01T19:56:45Z</time>
  <course>10.71</course>
  <speed>0.0</speed>
  <fix>3d</fix>
</trkpt>
<trkpt lat="-27.274439" lon="151.290064">
  <ele>343.1</ele>
  <time>2026-09-01T19:56:45Z</time>
  <course>270.0</course>
  <speed>0.0</speed>
  <fix>3d</fix>
</trkpt>
<trkpt lat="-27.274439" lon="151.290064">
  <ele>343.15</ele>
  <time>2026-09-01T19:56:45Z</time>
  <course>10.71</course>
  <speed>0.0</speed>
  <fix>3d</fix>
</trkpt>
<trkpt lat="-27.274439" lon="151.290064">
  <ele>343.1</ele>
  <time>2026-09-01T19:56:45Z</time>
  <course>270.0</course>
  <speed>0.0</speed>
  <fix>3d</fix>
</trkpt>
<trkpt lat="-27.274439" lon="151.290064">
  <ele>343.16</ele>
  <time>2026-09-01T19:56:45Z</time>
  <course>10.71</course>
  <speed>0.0</speed>
  <fix>3d</fix>
</trkpt>
<trkpt lat="-27.274439" lon="151.290064">
  <ele>343.1</ele>
  <time>2026-09-01T19:56:45Z</time>
  <course>270.0</course>
  <speed>0.0</speed>
  <fix>3d</fix>
</trkpt>
<trkpt lat="-27.274439" lon="151.290064">
  <ele>343.16</ele>
  <time>2026-09-01T19:56:45Z</time>
  <course>10.71</course>
  <speed>0.0</speed>
  <fix>3d</fix>
</trkpt>
<trkpt lat="-27.274439" lon="151.290064">
  <ele>343.1</ele>
  <time>2026-09-01T19:56:45Z</time>
  <course>270.0</course>
  <speed>0.0</speed>
  <fix>3d</fix>
</trkpt>
<trkpt lat="-27.274439" lon="151.290064">
  <ele>343.16</ele>
  <time>2026-09-01T19:56:45Z</time>
  <course>10.71</course>
  <speed>0.0</speed>
  <fix>3d</fix>
</trkpt>
<trkpt lat="-27.274439" lon="151.290064">
  <ele>343.1</ele>
  <time>2026-09-01T19:56:45Z</time>
  <course>270.0</course>
  <speed>0.0</speed>
  <fix>3d</fix>
</trkpt>
<trkpt lat="-27.274439" lon="151.290064">
  <ele>343.17</ele>
  <time>2026-09-01T19:56:45Z</time>
  <course>10.71</course>
  <speed>0.0</speed>
  <fix>3d</fix>
</trkpt>
<trkpt lat="-27.274439" lon="151.290064">
  <ele>343.1</ele>
  <time>2026-09-01T19:56:45Z</time>
  <course>270.0</course>
  <speed>0.0</speed>
  <fix>3d</fix>
</trkpt>
<trkpt lat="-27.274439" lon="151.290064">
  <ele>343.17</ele>
  <time>2026-09-01T19:56:45Z</time>
  <course>10.71</course>
  <speed>0.0</speed>
  <fix>3d</fix>
</trkpt>
<trkpt lat="-27.274439" lon="151.290064">
  <ele>343.1</ele>
  <time>2026-09-01T19:56:45Z</time>
  <course>270.0</course>
  <speed>0.0</speed>
  <fix>3d</fix>
</trkpt>
<trkpt lat="-27.274439" lon="151.290064">
  <ele>343.18</ele>
  <time>2026-09-01T19:56:45Z</time>
  <course>10.71</course>
  <speed>0.0</speed>
  <fix>3d</fix>
</trkpt>
<trkpt lat="-27.274439" lon="151.290064">
  <ele>343.1</ele>
  <time>2026-09-01T19:56:45Z</time>
  <course>270.0</course>
  <speed>0.0</speed>
  <fix>3d</fix>
</trkpt>
<trkpt lat="-27.274439" lon="151.290064">
  <ele>343.18</ele>
  <time>2026-09-01T19:56:45Z</time>
  <course>10.71</course>
  <speed>0.0</speed>
  <fix>3d</fix>
</trkpt>
<trkpt lat="-27.274439" lon="151.290064">
  <ele>343.1</ele>
  <time>2026-09-01T19:56:45Z</time>
  <course>270.0</course>
  <speed>0.0</speed>
  <fix>3d</fix>
</trkpt>
<trkpt lat="-27.274439" lon="151.290064">
  <ele>343.18</ele>
  <time>2026-09-01T19:56:45Z</time>
  <course>10.71</course>
  <speed>0.0</speed>
  <fix>3d</fix>
</trkpt>
<trkpt lat="-27.274439" lon="151.290064">
  <ele>343.1</ele>
  <time>2026-09-01T19:56:45Z</time>
  <course>270.0</course>
  <speed>0.0</speed>
  <fix>3d</fix>
</trkpt>
<trkpt lat="-27.274439" lon="151.290064">
  <ele>343.18</ele>
  <time>2026-09-01T19:56:45Z</time>
  <course>10.71</course>
  <speed>0.0</speed>
  <fix>3d</fix>
</trkpt>
<trkpt lat="-27.274439" lon="151.290064">
  <ele>343.1</ele>
  <time>2026-09-01T19:56:45Z</time>
  <course>270.0</course>
  <speed>0.0</speed>
  <fix>3d</fix>
</trkpt>
<trkpt lat="-27.274439" lon="151.290064">
  <ele>343.19</ele>
  <time>2026-09-01T19:56:45Z</time>
  <course>10.71</course>
  <speed>0.0</speed>
  <fix>3d</fix>
</trkpt>
<trkpt lat="-27.274439" lon="151.290064">
  <ele>343.1</ele>
  <time>2026-09-01T19:56:45Z</time>
  <course>270.0</course>
  <speed>0.0</speed>
  <fix>3d</fix>
</trkpt>
<trkpt lat="-27.274439" lon="151.290064">
  <ele>343.19</ele>
  <time>2026-09-01T19:56:45Z</time>
  <course>10.71</course>
  <speed>0.0</speed>
  <fix>3d</fix>
</trkpt>
<trkpt lat="-27.274439" lon="151.290064">
  <ele>343.1</ele>
  <time>2026-09-01T19:56:45Z</time>
  <course>270.0</course>
  <speed>0.0</speed>
  <fix>3d</fix>
</trkpt>
<trkpt lat="-27.274439" lon="151.290064">
  <ele>343.19</ele>
  <time>2026-09-01T19:56:45Z</time>
  <course>10.71</course>
  <speed>0.0</speed>
  <fix>3d</fix>
</trkpt>
<trkpt lat="-27.274439" lon="151.290064">
  <ele>343.1</ele>
  <time>2026-09-01T19:56:45Z</time>
  <course>270.0</course>
  <speed>0.0</speed>
  <fix>3d</fix>
</trkpt>
<trkpt lat="-27.274439" lon="151.290064">
  <ele>343.19</ele>
  <time>2026-09-01T19:56:45Z</time>
  <course>10.71</course>
  <speed>0.0</speed>
  <fix>3d</fix>
</trkpt>
<trkpt lat="-27.274439" lon="151.290064">
  <ele>343.1</ele>
  <time>2026-09-01T19:56:45Z</time>
  <course>270.0</course>
  <speed>0.0</speed>
  <fix>3d</fix>
</trkpt>
<trkpt lat="-27.274439" lon="151.290064">
  <ele>343.19</ele>
  <time>2026-09-01T19:56:45Z</time>
  <course>10.71</course>
  <speed>0.0</speed>
  <fix>3d</fix>
</trkpt>
<trkpt lat="-27.274439" lon="151.290064">
  <ele>343.1</ele>
  <time>2026-09-01T19:56:45Z</time>
  <course>270.0</course>
  <speed>0.0</speed>
  <fix>3d</fix>
</trkpt>
<trkpt lat="-27.274439" lon="151.290064">
  <ele>343.19</ele>
  <time>2026-09-01T19:56:45Z</time>
  <course>10.71</course>
  <speed>0.0</speed>
  <fix>3d</fix>
</trkpt>
<trkpt lat="-27.274439" lon="151.290064">
  <ele>343.1</ele>
  <time>2026-09-01T19:56:45Z</time>
  <course>270.0</course>
  <speed>0.0</speed>
  <fix>3d</fix>
</trkpt>
<trkpt lat="-27.274439" lon="151.290064">
  <ele>343.19</ele>
  <time>2026-09-01T19:56:45Z</time>
  <course>10.71</course>
  <speed>0.0</speed>
  <fix>3d</fix>
</trkpt>
<trkpt lat="-27.274439" lon="151.290064">
  <ele>343.1</ele>
  <time>2026-09-01T19:56:45Z</time>
  <course>270.0</course>
  <speed>0.0</speed>
  <fix>3d</fix>
</trkpt>
<trkpt lat="-27.274439" lon="151.290064">
  <ele>343.19</ele>
  <time>2026-09-01T19:56:45Z</time>
  <course>10.71</course>
  <speed>0.0</speed>
  <fix>3d</fix>
</trkpt>
<trkpt lat="-27.274439" lon="151.290064">
  <ele>343.19</ele>
  <time>2026-09-01T19:56:45Z</time>
  <course>10.71</course>
  <speed>0.0</speed>
  <fix>3d</fix>
</trkpt>
<trkpt lat="-27.274439" lon="151.290064">
  <ele>343.1</ele>
  <time>2026-09-01T19:56:45Z</time>
  <course>270.0</course>
  <speed>0.0</speed>
  <fix>3d</fix>
</trkpt>
<trkpt lat="-27.274439" lon="151.290064">
  <ele>343.19</ele>
  <time>2026-09-01T19:56:45Z</time>
  <course>10.71</course>
  <speed>0.0</speed>
  <fix>3d</fix>
</trkpt>
<trkpt lat="-27.274439" lon="151.290064">
  <ele>343.19</ele>
  <time>2026-09-01T19:56:45Z</time>
  <course>10.71</course>
  <speed>0.0</speed>
  <fix>3d</fix>
</trkpt>
<trkpt lat="-27.274439" lon="151.290064">
  <ele>343.1</ele>
  <time>2026-09-01T19:56:45Z</time>
  <course>270.0</course>
  <speed>0.0</speed>
  <fix>3d</fix>
</trkpt>
<trkpt lat="-27.274439" lon="151.290064">
  <ele>343.19</ele>
  <time>2026-09-01T19:56:45Z</time>
  <course>10.71</course>
  <speed>0.0</speed>
  <fix>3d</fix>
</trkpt>
<trkpt lat="-27.274439" lon="151.290064">
  <ele>343.19</ele>
  <time>2026-09-01T19:56:45Z</time>
  <course>10.71</course>
  <speed>0.0</speed>
  <fix>3d</fix>
</trkpt>
<trkpt lat="-27.274439" lon="151.290064">
  <ele>343.1</ele>
  <time>2026-09-01T19:56:45Z</time>
  <course>143.0</course>
  <speed>0.0</speed>
  <fix>3d</fix>
</trkpt>
<trkpt lat="-27.274439" lon="151.290064">
  <ele>343.19</ele>
  <time>2026-09-01T19:56:45Z</time>
  <course>10.71</course>
  <speed>0.0</speed>
  <fix>3d</fix>
</trkpt>
<trkpt lat="-27.274439" lon="151.290064">
  <ele>343.19</ele>
  <time>2026-09-01T19:56:45Z</time>
  <course>10.71</course>
  <speed>0.0</speed>
  <fix>3d</fix>
</trkpt>
<trkpt lat="-27.274439" lon="151.290064">
  <ele>343.1</ele>
  <time>2026-09-01T19:56:45Z</time>
  <course>143.0</course>
  <speed>0.0</speed>
  <fix>3d</fix>
</trkpt>
<trkpt lat="-27.274439" lon="151.290064">
  <ele>343.19</ele>
  <time>2026-09-01T19:56:45Z</time>
  <course>10.71</course>
  <speed>0.0</speed>
  <fix>3d</fix>
</trkpt>
<trkpt lat="-27.274439" lon="151.290064">
  <ele>343.2</ele>
  <time>2026-09-01T19:56:45Z</time>
  <course>10.71</course>
  <speed>0.0</speed>
  <fix>3d</fix>
</trkpt>
<trkpt lat="-27.274439" lon="151.290064">
  <ele>343.1</ele>
  <time>2026-09-01T19:56:45Z</time>
  <course>131.88</course>
  <speed>0.0</speed>
  <fix>3d</fix>
</trkpt>
<trkpt lat="-27.274439" lon="151.290064">
  <ele>343.2</ele>
  <time>2026-09-01T19:56:45Z</time>
  <course>10.71</course>
  <speed>0.0</speed>
  <fix>3d</fix>
</trkpt>
<trkpt lat="-27.274439" lon="151.290064">
  <ele>343.2</ele>
  <time>2026-09-01T19:56:45Z</time>
  <course>10.71</course>
  <speed>0.0</speed>
  <fix>3d</fix>
</trkpt>
<trkpt lat="-27.274439" lon="151.290064">
  <ele>343.1</ele>
  <time>2026-09-01T19:56:45Z</time>
  <course>131.88</course>
  <speed>0.0</speed>
  <fix>3d</fix>
</trkpt>
<trkpt lat="-27.274439" lon="151.290064">
  <ele>343.2</ele>
  <time>2026-09-01T19:56:45Z</time>
  <course>10.71</course>
  <speed>0.0</speed>
  <fix>3d</fix>
</trkpt>
<trkpt lat="-27.274439" lon="151.290064">
  <ele>343.2</ele>
  <time>2026-09-01T19:56:45Z</time>
  <course>10.71</course>
  <speed>0.0</speed>
  <fix>3d</fix>
</trkpt>
<trkpt lat="-27.274439" lon="151.290064">
  <ele>343.1</ele>
  <time>2026-09-01T19:56:45Z</time>
  <course>58.03</course>
  <speed>0.0</speed>
  <fix>3d</fix>
</trkpt>
<trkpt lat="-27.274439" lon="151.290064">
  <ele>343.2</ele>
  <time>2026-09-01T19:56:45Z</time>
  <course>10.71</course>
  <speed>0.0</speed>
  <fix>3d</fix>
</trkpt>
<trkpt lat="-27.274439" lon="151.290064">
  <ele>343.2</ele>
  <time>2026-09-01T19:56:45Z</time>
  <course>10.71</course>
  <speed>0.0</speed>
  <fix>3d</fix>
</trkpt>
<trkpt lat="-27.274439" lon="151.290064">
  <ele>343.1</ele>
  <time>2026-09-01T19:56:45Z</time>
  <course>58.03</course>
  <speed>0.0</speed>
  <fix>3d</fix>
</trkpt>
<trkpt lat="-27.274439" lon="151.290064">
  <ele>343.2</ele>
  <time>2026-09-01T19:56:45Z</time>
  <course>10.71</course>
  <speed>0.0</speed>
  <fix>3d</fix>
</trkpt>
<trkpt lat="-27.274439" lon="151.290064">
  <ele>343.2</ele>
  <time>2026-09-01T19:56:45Z</time>
  <course>10.71</course>
  <speed>0.0</speed>
  <fix>3d</fix>
</trkpt>
<trkpt lat="-27.274439" lon="151.290064">
  <ele>343.1</ele>
  <time>2026-09-01T19:56:45Z</time>
  <course>309.89</course>
  <speed>0.0</speed>
  <fix>3d</fix>
</trkpt>
<trkpt lat="-27.274439" lon="151.290064">
  <ele>343.2</ele>
  <time>2026-09-01T19:56:45Z</time>
  <course>10.71</course>
  <speed>0.0</speed>
  <fix>3d</fix>
</trkpt>
<trkpt lat="-27.274439" lon="151.290064">
  <ele>343.2</ele>
  <time>2026-09-01T19:56:45Z</time>
  <course>10.71</course>
  <speed>0.0</speed>
  <fix>3d</fix>
</trkpt>
<trkpt lat="-27.274439" lon="151.290064">
  <ele>343.1</ele>
  <time>2026-09-01T19:56:45Z</time>
  <course>309.89</course>
  <speed>0.0</speed>
  <fix>3d</fix>
</trkpt>
<trkpt lat="-27.274439" lon="151.290064">
  <ele>343.21</ele>
  <time>2026-09-01T19:56:45Z</time>
  <course>10.71</course>
  <speed>0.0</speed>
  <fix>3d</fix>
</trkpt>
<trkpt lat="-27.274439" lon="151.290064">
  <ele>343.23</ele>
  <time>2026-09-01T19:56:45Z</time>
  <course>10.71</course>
  <speed>0.0</speed>
  <fix>3d</fix>
</trkpt>
<trkpt lat="-27.274439" lon="151.290064">
  <ele>343.1</ele>
  <time>2026-09-01T19:56:45Z</time>
  <course>7.19</course>
  <speed>0.0</speed>
  <fix>3d</fix>
</trkpt>
<trkpt lat="-27.274439" lon="151.290064">
  <ele>343.24</ele>
  <time>2026-09-01T19:56:45Z</time>
  <course>10.71</course>
  <speed>0.0</speed>
  <fix>3d</fix>
</trkpt>
<trkpt lat="-27.274439" lon="151.290064">
  <ele>343.27</ele>
  <time>2026-09-01T19:56:45Z</time>
  <course>10.71</course>
  <speed>0.0</speed>
  <fix>3d</fix>
</trkpt>
<trkpt lat="-27.274439" lon="151.290064">
  <ele>343.1</ele>
  <time>2026-09-01T19:56:45Z</time>
  <course>7.19</course>
  <speed>0.0</speed>
  <fix>3d</fix>
</trkpt>
<trkpt lat="-27.274439" lon="151.290064">
  <ele>343.27</ele>
  <time>2026-09-01T19:56:45Z</time>
  <course>10.71</course>
  <speed>0.0</speed>
  <fix>3d</fix>
</trkpt>
<trkpt lat="-27.274439" lon="151.290064">
  <ele>343.33</ele>
  <time>2026-09-01T19:56:45Z</time>
  <course>10.71</course>
  <speed>0.0</speed>
  <fix>3d</fix>
</trkpt>
<trkpt lat="-27.274439" lon="151.290064">
  <ele>343.12</ele>
  <time>2026-09-01T19:56:45Z</time>
  <course>7.91</course>
  <speed>0.0</speed>
  <fix>3d</fix>
</trkpt>
<trkpt lat="-27.274439" lon="151.290064">
  <ele>343.33</ele>
  <time>2026-09-01T19:56:45Z</time>
  <course>10.71</course>
  <speed>0.0</speed>
  <fix>3d</fix>
</trkpt>
<trkpt lat="-27.274439" lon="151.290064">
  <ele>343.41</ele>
  <time>2026-09-01T19:56:45Z</time>
  <course>10.71</course>
  <speed>0.01</speed>
  <fix>3d</fix>
</trkpt>
<trkpt lat="-27.274439" lon="151.290064">
  <ele>343.12</ele>
  <time>2026-09-01T19:56:45Z</time>
  <course>7.91</course>
  <speed>0.0</speed>
  <fix>3d</fix>
</trkpt>
<trkpt lat="-27.274439" lon="151.290064">
  <ele>343.44</ele>
  <time>2026-09-01T19:56:45Z</time>
  <course>10.71</course>
  <speed>0.02</speed>
  <fix>3d</fix>
</trkpt>
<trkpt lat="-27.274439" lon="151.290064">
  <ele>343.57</ele>
  <time>2026-09-01T19:56:45Z</time>
  <course>10.71</course>
  <speed>0.0412310562561766</speed>
  <fix>3d</fix>
</trkpt>
<trkpt lat="-27.274439" lon="151.290064">
  <ele>343.22</ele>
  <time>2026-09-01T19:56:45Z</time>
  <course>6.43</course>
  <speed>0.01</speed>
  <fix>3d</fix>
</trkpt>
<trkpt lat="-27.274439" lon="151.290064">
  <ele>343.58</ele>
  <time>2026-09-01T19:56:45Z</time>
  <course>10.71</course>
  <speed>0.0412310562561766</speed>
  <fix>3d</fix>
</trkpt>
<trkpt lat="-27.274439" lon="151.290064">
  <ele>343.8</ele>
  <time>2026-09-01T19:56:45Z</time>
  <course>10.71</course>
  <speed>0.08062257748298549</speed>
  <fix>3d</fix>
</trkpt>
<trkpt lat="-27.274439" lon="151.290064">
  <ele>343.22</ele>
  <time>2026-09-01T19:56:45Z</time>
  <course>6.43</course>
  <speed>0.01</speed>
  <fix>3d</fix>
</trkpt>
<trkpt lat="-27.274439" lon="151.290064">
  <ele>343.8</ele>
  <time>2026-09-01T19:56:45Z</time>
  <course>10.71</course>
  <speed>0.08062257748298549</speed>
  <fix>3d</fix>
</trkpt>
<trkpt lat="-27.2744389" lon="151.290064">
  <ele>344.04</ele>
  <time>2026-09-01T19:56:45Z</time>
  <course>10.71</course>
  <speed>0.12165525060596438</speed>
  <fix>3d</fix>
</trkpt>
<trkpt lat="-27.274439" lon="151.290064">
  <ele>343.47</ele>
  <time>2026-09-01T19:56:45Z</time>
  <course>6.39</course>
  <speed>0.05</speed>
  <fix>3d</fix>
</trkpt>
<trkpt lat="-27.2744388" lon="151.290064">
  <ele>344.11</ele>
  <time>2026-09-01T19:56:45Z</time>
  <course>10.71</course>
  <speed>0.13152946437965907</speed>
  <fix>3d</fix>
</trkpt>
<trkpt lat="-27.2744387" lon="151.290064">
  <ele>344.3</ele>
  <time>2026-09-01T19:56:45Z</time>
  <course>10.67</course>
  <speed>0.16278820596099705</speed>
  <fix>3d</fix>
</trkpt>
<trkpt lat="-27.274439" lon="151.290064">
  <ele>343.47</ele>
  <time>2026-09-01T19:56:45Z</time>
  <course>6.39</course>
  <speed>0.05</speed>
  <fix>3d</fix>
</trkpt>
<trkpt lat="-27.2744387" lon="151.290064">
  <ele>344.36</ele>
  <time>2026-09-01T19:56:45Z</time>
  <course>10.67</course>
  <speed>0.17262676501632068</speed>
  <fix>3d</fix>
</trkpt>
<trkpt lat="-27.2744386" lon="151.2900641">
  <ele>344.57</ele>
  <time>2026-09-01T19:56:45Z</time>
  <course>10.67</course>
  <speed>0.20223748416156684</speed>
  <fix>3d</fix>
</trkpt>
<trkpt lat="-27.2744389" lon="151.290064">
  <ele>343.9</ele>
  <time>2026-09-01T19:56:45Z</time>
  <course>6.57</course>
  <speed>0.13</speed>
  <fix>3d</fix>
</trkpt>
<trkpt lat="-27.2744385" lon="151.2900641">
  <ele>344.64</ele>
  <time>2026-09-01T19:56:45Z</time>
  <course>10.66</course>
  <speed>0.21213203435596426</speed>
  <fix>3d</fix>
</trkpt>
<trkpt lat="-27.2744384" lon="151.2900641">
  <ele>344.85</ele>
  <time>2026-09-01T19:56:45Z</time>
  <course>10.66</course>
  <speed>0.23345235059857505</speed>
  <fix>3d</fix>
</trkpt>
<trkpt lat="-27.2744389" lon="151.290064">
  <ele>343.9</ele>
  <time>2026-09-01T19:56:45Z</time>
  <course>6.57</course>
  <speed>0.13</speed>
  <fix>3d</fix>
</trkpt>
<trkpt lat="-27.2744383" lon="151.2900641">
  <ele>344.92</ele>
  <time>2026-09-01T19:56:45Z</time>
  <course>10.66</course>
  <speed>0.24331050121192876</speed>
  <fix>3d</fix>
</trkpt>
<trkpt lat="-27.2744382" lon="151.2900641">
  <ele>345.15</ele>
  <time>2026-09-01T19:56:45Z</time>
  <course>10.65</course>
  <speed>0.2745906043549196</speed>
  <fix>3d</fix>
</trkpt>
<trkpt lat="-27.2744385" lon="151.290064">
  <ele>344.44</ele>
  <time>2026-09-01T19:56:45Z</time>
  <course>6.79</course>
  <speed>0.2</speed>
  <fix>3d</fix>
</trkpt>
<trkpt lat="-27.2744381" lon="151.2900641">
  <ele>345.23</ele>
  <time>2026-09-01T19:56:45Z</time>
  <course>10.64</course>
  <speed>0.28442925306655786</speed>
  <fix>3d</fix>
</trkpt>
<trkpt lat="-27.2744379" lon="151.2900642">
  <ele>345.46</ele>
  <time>2026-09-01T19:56:45Z</time>
  <course>10.64</course>
  <speed>0.304138126514911</speed>
  <fix>3d</fix>
</trkpt>
<trkpt lat="-27.2744385" lon="151.290064">
  <ele>344.44</ele>
  <time>2026-09-01T19:56:45Z</time>
  <course>6.79</course>
  <speed>0.2</speed>
  <fix>3d</fix>
</trkpt>
<trkpt lat="-27.2744378" lon="151.2900642">
  <ele>345.53</ele>
  <time>2026-09-01T19:56:45Z</time>
  <course>10.63</course>
  <speed>0.31400636936215165</speed>
  <fix>3d</fix>
</trkpt>
<trkpt lat="-27.2744376" lon="151.2900642">
  <ele>345.78</ele>
  <time>2026-09-01T19:56:45Z</time>
  <course>10.62</course>
  <speed>0.33541019662496846</speed>
  <fix>3d</fix>
</trkpt>
<trkpt lat="-27.2744381" lon="151.290064">
  <ele>345.02</ele>
  <time>2026-09-01T19:56:45Z</time>
  <course>6.99</course>
  <speed>0.28</speed>
  <fix>3d</fix>
</trkpt>
<trkpt lat="-27.2744376" lon="151.2900642">
  <ele>345.79</ele>
  <time>2026-09-01T19:56:45Z</time>
  <course>10.62</course>
  <speed>0.33541019662496846</speed>
  <fix>3d</fix>
</trkpt>
<trkpt lat="-27.2744373" lon="151.2900643">
  <ele>346.1</ele>
  <time>2026-09-01T19:56:45Z</time>
  <course>10.62</course>
  <speed>0.3649657518178932</speed>
  <fix>3d</fix>
</trkpt>
<trkpt lat="-27.2744381" lon="151.290064">
  <ele>345.02</ele>
  <time>2026-09-01T19:56:45Z</time>
  <course>6.99</course>
  <speed>0.28</speed>
  <fix>3d</fix>
</trkpt>
<trkpt lat="-27.2744373" lon="151.2900643">
  <ele>346.11</ele>
  <time>2026-09-01T19:56:45Z</time>
  <course>10.62</course>
  <speed>0.3649657518178932</speed>
  <fix>3d</fix>
</trkpt>
<trkpt lat="-27.274437" lon="151.2900643">
  <ele>346.42</ele>
  <time>2026-09-01T19:56:45Z</time>
  <course>10.61</course>
  <speed>0.38470768123342686</speed>
  <fix>3d</fix>
</trkpt>
<trkpt lat="-27.2744376" lon="151.2900641">
  <ele>345.63</ele>
  <time>2026-09-01T19:56:45Z</time>
  <course>7.17</course>
  <speed>0.34</speed>
  <fix>3d</fix>
</trkpt>
<trkpt lat="-27.2744369" lon="151.2900643">
  <ele>346.51</ele>
  <time>2026-09-01T19:56:45Z</time>
  <course>10.61</course>
  <speed>0.38470768123342686</speed>
  <fix>3d</fix>
</trkpt>
<trkpt lat="-27.2744366" lon="151.2900643">
  <ele>346.74</ele>
  <time>2026-09-01T19:56:45Z</time>
  <course>10.61</course>
  <speed>0.3945883931389772</speed>
  <fix>3d</fix>
</trkpt>
<trkpt lat="-27.2744376" lon="151.2900641">
  <ele>345.63</ele>
  <time>2026-09-01T19:56:45Z</time>
  <course>7.17</course>
  <speed>0.34</speed>
  <fix>3d</fix>
</trkpt>
<trkpt lat="-27.2744365" lon="151.2900644">
  <ele>346.82</ele>
  <time>2026-09-01T19:56:45Z</time>
  <course>10.61</course>
  <speed>0.4044749683231337</speed>
  <fix>3d</fix>
</trkpt>
<trkpt lat="-27.2744363" lon="151.2900644">
  <ele>347.05</ele>
  <time>2026-09-01T19:56:45Z</time>
  <course>10.61</course>
  <speed>0.40607881008493907</speed>
  <fix>3d</fix>
</trkpt>
<trkpt lat="-27.2744369" lon="151.2900642">
  <ele>346.25</ele>
  <time>2026-09-01T19:56:45Z</time>
  <course>7.35</course>
  <speed>0.39</speed>
  <fix>3d</fix>
</trkpt>
<trkpt lat="-27.2744362" lon="151.2900644">
  <ele>347.11</ele>
  <time>2026-09-01T19:56:45Z</time>
  <course>10.61</course>
  <speed>0.40607881008493907</speed>
  <fix>3d</fix>
</trkpt>
<trkpt lat="-27.2744359" lon="151.2900645">
  <ele>347.36</ele>
  <time>2026-09-01T19:56:45Z</time>
  <course>10.61</course>
  <speed>0.4159326868617084</speed>
  <fix>3d</fix>
</trkpt>
<trkpt lat="-27.2744369" lon="151.2900642">
  <ele>346.25</ele>
  <time>2026-09-01T19:56:45Z</time>
  <course>7.35</course>
  <speed>0.39</speed>
  <fix>3d</fix>
</trkpt>
<trkpt lat="-27.2744359" lon="151.2900645">
  <ele>347.37</ele>
  <time>2026-09-01T19:56:45Z</time>
  <course>10.61</course>
  <speed>0.4159326868617084</speed>
  <fix>3d</fix>
</trkpt>
<trkpt lat="-27.2744355" lon="151.2900645">
  <ele>347.65</ele>
  <time>2026-09-01T19:56:45Z</time>
  <course>10.61</course>
  <speed>0.4143669871020132</speed>
  <fix>3d</fix>
</trkpt>
<trkpt lat="-27.2744361" lon="151.2900643">
  <ele>346.87</ele>
  <time>2026-09-01T19:56:45Z</time>
  <course>7.57</course>
  <speed>0.42</speed>
  <fix>3d</fix>
</trkpt>
<trkpt lat="-27.2744354" lon="151.2900645">
  <ele>347.74</ele>
  <time>2026-09-01T19:56:45Z</time>
  <course>10.61</course>
  <speed>0.4044749683231337</speed>
  <fix>3d</fix>
</trkpt>
<trkpt lat="-27.2744352" lon="151.2900645">
  <ele>347.95</ele>
  <time>2026-09-01T19:56:45Z</time>
  <course>10.62</course>
  <speed>0.4044749683231337</speed>
  <fix>3d</fix>
</trkpt>
<trkpt lat="-27.2744361" lon="151.2900643">
  <ele>346.87</ele>
  <time>2026-09-01T19:56:45Z</time>
  <course>7.57</course>
  <speed>0.42</speed>
  <fix>3d</fix>
</trkpt>
<trkpt lat="-27.2744351" lon="151.2900646">
  <ele>348.0</ele>
  <time>2026-09-01T19:56:45Z</time>
  <course>10.62</course>
  <speed>0.4044749683231337</speed>
  <fix>3d</fix>
</trkpt>
<trkpt lat="-27.2744348" lon="151.2900646">
  <ele>348.24</ele>
  <time>2026-09-01T19:56:45Z</time>
  <course>10.63</course>
  <speed>0.3945883931389772</speed>
  <fix>3d</fix>
</trkpt>
<trkpt lat="-27.2744354" lon="151.2900644">
  <ele>347.47</ele>
  <time>2026-09-01T19:56:45Z</time>
  <course>7.83</course>
  <speed>0.42</speed>
  <fix>3d</fix>
</trkpt>
<trkpt lat="-27.2744348" lon="151.2900646">
  <ele>348.27</ele>
  <time>2026-09-01T19:56:45Z</time>
  <course>10.63</course>
  <speed>0.3945883931389772</speed>
  <fix>3d</fix>
</trkpt>
<trkpt lat="-27.2744344" lon="151.2900646">
  <ele>348.52</ele>
  <time>2026-09-01T19:56:45Z</time>
  <course>10.64</course>
  <speed>0.37483329627982626</speed>
  <fix>3d</fix>
</trkpt>
<trkpt lat="-27.2744354" lon="151.2900644">
  <ele>347.47</ele>
  <time>2026-09-01T19:56:45Z</time>
  <course>7.83</course>
  <speed>0.42</speed>
  <fix>3d</fix>
</trkpt>
<trkpt lat="-27.2744343" lon="151.2900647">
  <ele>348.6</ele>
  <time>2026-09-01T19:56:45Z</time>
  <course>10.64</course>
  <speed>0.37483329627982626</speed>
  <fix>3d</fix>
</trkpt>
<trkpt lat="-27.2744341" lon="151.2900647">
  <ele>348.8</ele>
  <time>2026-09-01T19:56:45Z</time>
  <course>10.65</course>
  <speed>0.3634556369077249</speed>
  <fix>3d</fix>
</trkpt>
<trkpt lat="-27.2744346" lon="151.2900645">
  <ele>348.05</ele>
  <time>2026-09-01T19:56:45Z</time>
  <course>8.23</course>
  <speed>0.41</speed>
  <fix>3d</fix>
</trkpt>
<trkpt lat="-27.274434" lon="151.2900647">
  <ele>348.89</ele>
  <time>2026-09-01T19:56:45Z</time>
  <course>10.65</course>
  <speed>0.3535533905932738</speed>
  <fix>3d</fix>
</trkpt>
<trkpt lat="-27.2744338" lon="151.2900647">
  <ele>349.06</ele>
  <time>2026-09-01T19:56:45Z</time>
  <course>10.66</course>
  <speed>0.33376638536557274</speed>
  <fix>3d</fix>
</trkpt>
<trkpt lat="-27.2744346" lon="151.2900645">
  <ele>348.05</ele>
  <time>2026-09-01T19:56:45Z</time>
  <course>8.23</course>
  <speed>0.41</speed>
  <fix>3d</fix>
</trkpt>
<trkpt lat="-27.2744338" lon="151.2900647">
  <ele>349.07</ele>
  <time>2026-09-01T19:56:45Z</time>
  <course>10.66</course>
  <speed>0.33376638536557274</speed>
  <fix>3d</fix>
</trkpt>
<trkpt lat="-27.2744335" lon="151.2900648">
  <ele>349.32</ele>
  <time>2026-09-01T19:56:45Z</time>
  <course>10.67</course>
  <speed>0.3125699921617557</speed>
  <fix>3d</fix>
</trkpt>
<trkpt lat="-27.2744339" lon="151.2900646">
  <ele>348.59</ele>
  <time>2026-09-01T19:56:45Z</time>
  <course>8.81</course>
  <speed>0.37</speed>
  <fix>3d</fix>
</trkpt>
<trkpt lat="-27.2744335" lon="151.2900648">
  <ele>349.33</ele>
  <time>2026-09-01T19:56:45Z</time>
  <course>10.67</course>
  <speed>0.3125699921617557</speed>
  <fix>3d</fix>
</trkpt>
<trkpt lat="-27.2744332" lon="151.2900648">
  <ele>349.58</ele>
  <time>2026-09-01T19:56:45Z</time>
  <course>10.68</course>
  <speed>0.282842712474619</speed>
  <fix>3d</fix>
</trkpt>
<trkpt lat="-27.2744339" lon="151.2900646">
  <ele>348.59</ele>
  <time>2026-09-01T19:56:45Z</time>
  <course>8.81</course>
  <speed>0.37</speed>
  <fix>3d</fix>
</trkpt>
<trkpt lat="-27.2744331" lon="151.2900648">
  <ele>349.64</ele>
  <time>2026-09-01T19:56:45Z</time>
  <course>10.69</course>
  <speed>0.27294688127912364</speed>
  <fix>3d</fix>
</trkpt>
<trkpt lat="-27.2744329" lon="151.2900648">
  <ele>349.82</ele>
  <time>2026-09-01T19:56:45Z</time>
  <course>10.69</course>
  <speed>0.25179356624028343</speed>
  <fix>3d</fix>
</trkpt>
<trkpt lat="-27.2744333" lon="151.2900648">
  <ele>349.11</ele>
  <time>2026-09-01T19:56:45Z</time>
  <course>9.67</course>
  <speed>0.32</speed>
  <fix>3d</fix>
</trkpt>
<trkpt lat="-27.2744329" lon="151.2900648">
  <ele>349.87</ele>
  <time>2026-09-01T19:56:45Z</time>
  <course>10.7</course>
  <speed>0.24186773244895649</speed>
  <fix>3d</fix>
</trkpt>
<trkpt lat="-27.2744327" lon="151.2900649">
  <ele>350.07</ele>
  <time>2026-09-01T19:56:45Z</time>
  <course>10.71</course>
  <speed>0.2220360331117452</speed>
  <fix>3d</fix>
</trkpt>
<trkpt lat="-27.2744333" lon="151.2900648">
  <ele>349.11</ele>
  <time>2026-09-01T19:56:45Z</time>
  <course>9.67</course>
  <speed>0.32</speed>
  <fix>3d</fix>
</trkpt>
<trkpt lat="-27.2744327" lon="151.2900649">
  <ele>350.09</ele>
  <time>2026-09-01T19:56:45Z</time>
  <course>10.71</course>
  <speed>0.21213203435596426</speed>
  <fix>3d</fix>
</trkpt>
<trkpt lat="-27.2744325" lon="151.2900649">
  <ele>350.31</ele>
  <time>2026-09-01T19:56:45Z</time>
  <course>10.72</course>
  <speed>0.1824828759089466</speed>
  <fix>3d</fix>
</trkpt>
<trkpt lat="-27.2744328" lon="151.2900649">
  <ele>349.61</ele>
  <time>2026-09-01T19:56:45Z</time>
  <course>11.02</course>
  <speed>0.26</speed>
  <fix>3d</fix>
</trkpt>
<trkpt lat="-27.2744324" lon="151.2900649">
  <ele>350.38</ele>
  <time>2026-09-01T19:56:45Z</time>
  <course>10.72</course>
  <speed>0.1711724276862369</speed>
  <fix>3d</fix>
</trkpt>
<trkpt lat="-27.2744323" lon="151.2900649">
  <ele>350.55</ele>
  <time>2026-09-01T19:56:45Z</time>
  <course>10.73</course>
  <speed>0.15132745950421556</speed>
  <fix>3d</fix>
</trkpt>
<trkpt lat="-27.2744328" lon="151.2900649">
  <ele>349.61</ele>
  <time>2026-09-01T19:56:45Z</time>
  <course>11.02</course>
  <speed>0.26</speed>
  <fix>3d</fix>
</trkpt>
<trkpt lat="-27.2744323" lon="151.2900649">
  <ele>350.61</ele>
  <time>2026-09-01T19:56:45Z</time>
  <course>10.74</course>
  <speed>0.1414213562373095</speed>
  <fix>3d</fix>
</trkpt>
<trkpt lat="-27.2744322" lon="151.290065">
  <ele>350.79</ele>
  <time>2026-09-01T19:56:45Z</time>
  <course>10.75</course>
  <speed>0.12165525060596438</speed>
  <fix>3d</fix>
</trkpt>
<trkpt lat="-27.2744324" lon="151.290065">
  <ele>350.09</ele>
  <time>2026-09-01T19:56:45Z</time>
  <course>13.29</course>
  <speed>0.19</speed>
  <fix>3d</fix>
</trkpt>
<trkpt lat="-27.2744322" lon="151.290065">
  <ele>350.85</ele>
  <time>2026-09-01T19:56:45Z</time>
  <course>10.75</course>
  <speed>0.1118033988749895</speed>
  <fix>3d</fix>
</trkpt>
<trkpt lat="-27.2744321" lon="151.290065">
  <ele>351.02</ele>
  <time>2026-09-01T19:56:45Z</time>
  <course>10.77</course>
  <speed>0.08062257748298549</speed>
  <fix>3d</fix>
</trkpt>
<trkpt lat="-27.2744324" lon="151.290065">
  <ele>350.09</ele>
  <time>2026-09-01T19:56:45Z</time>
  <course>13.29</course>
  <speed>0.19</speed>
  <fix>3d</fix>
</trkpt>
<trkpt lat="-27.2744321" lon="151.290065">
  <ele>351.08</ele>
  <time>2026-09-01T19:56:45Z</time>
  <course>10.77</course>
  <speed>0.08062257748298549</speed>
  <fix>3d</fix>
</trkpt>
<trkpt lat="-27.274432" lon="151.290065">
  <ele>351.26</ele>
  <time>2026-09-01T19:56:45Z</time>
  <course>10.79</course>
  <speed>0.05099019513592785</speed>
  <fix>3d</fix>
</trkpt>
<trkpt lat="-27.2744321" lon="151.2900651">
  <ele>350.58</ele>
  <time>2026-09-01T19:56:45Z</time>
  <course>17.68</course>
  <speed>0.13</speed>
  <fix>3d</fix>
</trkpt>
<trkpt lat="-27.274432" lon="151.290065">
  <ele>351.34</ele>
  <time>2026-09-01T19:56:45Z</time>
  <course>10.79</course>
  <speed>0.0412310562561766</speed>
  <fix>3d</fix>
</trkpt>
<trkpt lat="-27.274432" lon="151.290065">
  <ele>351.51</ele>
  <time>2026-09-01T19:56:45Z</time>
  <course>10.81</course>
  <speed>0.02</speed>
  <fix>3d</fix>
</trkpt>
<trkpt lat="-27.2744321" lon="151.2900651">
  <ele>350.58</ele>
  <time>2026-09-01T19:56:45Z</time>
  <course>17.68</course>
  <speed>0.13</speed>
  <fix>3d</fix>
</trkpt>
<trkpt lat="-27.274432" lon="151.290065">
  <ele>351.51</ele>
  <time>2026-09-01T19:56:45Z</time>
  <course>10.81</course>
  <speed>0.02</speed>
  <fix>3d</fix>
</trkpt>
<trkpt lat="-27.274432" lon="151.2900651">
  <ele>351.75</ele>
  <time>2026-09-01T19:56:45Z</time>
  <course>10.84</course>
  <speed>0.0</speed>
  <fix>3d</fix>
</trkpt>
<trkpt lat="-27.2744319" lon="151.2900651">
  <ele>351.05</ele>
  <time>2026-09-01T19:56:45Z</time>
  <course>29.5</course>
  <speed>0.06</speed>
  <fix>3d</fix>
</trkpt>
<trkpt lat="-27.274432" lon="151.2900651">
  <ele>351.76</ele>
  <time>2026-09-01T19:56:45Z</time>
  <course>10.84</course>
  <speed>0.0</speed>
  <fix>3d</fix>
</trkpt>
<trkpt lat="-27.274432" lon="151.2900651">
  <ele>351.99</ele>
  <time>2026-09-01T19:56:45Z</time>
  <course>10.88</course>
  <speed>0.02</speed>
  <fix>3d</fix>
</trkpt>
<trkpt lat="-27.2744319" lon="151.2900651">
  <ele>351.05</ele>
  <time>2026-09-01T19:56:45Z</time>
  <course>29.5</course>
  <speed>0.06</speed>
  <fix>3d</fix>
</trkpt>
<trkpt lat="-27.274432" lon="151.2900651">
  <ele>352.0</ele>
  <time>2026-09-01T19:56:45Z</time>
  <course>10.88</course>
  <speed>0.02</speed>
  <fix>3d</fix>
</trkpt>
<trkpt lat="-27.274432" lon="151.2900651">
  <ele>352.24</ele>
  <time>2026-09-01T19:56:45Z</time>
  <course>10.92</course>
  <speed>0.05</speed>
  <fix>3d</fix>
</trkpt>
<trkpt lat="-27.2744319" lon="151.2900652">
  <ele>351.53</ele>
  <time>2026-09-01T19:56:45Z</time>
  <course>99.61</course>
  <speed>0.02</speed>
  <fix>3d</fix>
</trkpt>
<trkpt lat="-27.274432" lon="151.2900651">
  <ele>352.26</ele>
  <time>2026-09-01T19:56:45Z</time>
  <course>10.92</course>
  <speed>0.05</speed>
  <fix>3d</fix>
</trkpt>
<trkpt lat="-27.274432" lon="151.2900651">
  <ele>352.48</ele>
  <time>2026-09-01T19:56:45Z</time>
  <course>10.96</course>
  <speed>0.07</speed>
  <fix>3d</fix>
</trkpt>
<trkpt lat="-27.2744319" lon="151.2900652">
  <ele>351.53</ele>
  <time>2026-09-01T19:56:45Z</time>
  <course>99.61</course>
  <speed>0.02</speed>
  <fix>3d</fix>
</trkpt>
<trkpt lat="-27.274432" lon="151.2900651">
  <ele>352.54</ele>
  <time>2026-09-01T19:56:45Z</time>
  <course>10.98</course>
  <speed>0.08062257748298549</speed>
  <fix>3d</fix>
</trkpt>
<trkpt lat="-27.274432" lon="151.2900651">
  <ele>352.73</ele>
  <time>2026-09-01T19:56:45Z</time>
  <course>11.01</course>
  <speed>0.09055385138137417</speed>
  <fix>3d</fix>
</trkpt>
<trkpt lat="-27.2744319" lon="151.2900652">
  <ele>352.01</ele>
  <time>2026-09-01T19:56:45Z</time>
  <course>165.41</course>
  <speed>0.05</speed>
  <fix>3d</fix>
</trkpt>
<trkpt lat="-27.274432" lon="151.2900651">
  <ele>352.79</ele>
  <time>2026-09-01T19:56:45Z</time>
  <course>11.02</course>
  <speed>0.09055385138137417</speed>
  <fix>3d</fix>
</trkpt>
<trkpt lat="-27.2744321" lon="151.2900651">
  <ele>352.97</ele>
  <time>2026-09-01T19:56:45Z</time>
  <course>11.06</course>
  <speed>0.11045361017187261</speed>
  <fix>3d</fix>
</trkpt>
<trkpt lat="-27.2744319" lon="151.2900652">
  <ele>352.01</ele>
  <time>2026-09-01T19:56:45Z</time>
  <course>165.41</course>
  <speed>0.05</speed>
  <fix>3d</fix>
</trkpt>
<trkpt lat="-27.2744321" lon="151.2900651">
  <ele>353.03</ele>
  <time>2026-09-01T19:56:45Z</time>
  <course>11.07</course>
  <speed>0.1118033988749895</speed>
  <fix>3d</fix>
</trkpt>
<trkpt lat="-27.2744322" lon="151.2900651">
  <ele>353.21</ele>
  <time>2026-09-01T19:56:45Z</time>
  <course>11.1</course>
  <speed>0.12165525060596438</speed>
  <fix>3d</fix>
</trkpt>
<trkpt lat="-27.274432" lon="151.2900652">
  <ele>352.49</ele>
  <time>2026-09-01T19:56:45Z</time>
  <course>177.3</course>
  <speed>0.1</speed>
  <fix>3d</fix>
</trkpt>
<trkpt lat="-27.2744322" lon="151.2900651">
  <ele>353.23</ele>
  <time>2026-09-01T19:56:45Z</time>
  <course>11.11</course>
  <speed>0.12165525060596438</speed>
  <fix>3d</fix>
</trkpt>
<trkpt lat="-27.2744323" lon="151.2900651">
  <ele>353.46</ele>
  <time>2026-09-01T19:56:45Z</time>
  <course>11.14</course>
  <speed>0.1414213562373095</speed>
  <fix>3d</fix>
</trkpt>
<trkpt lat="-27.274432" lon="151.2900652">
  <ele>352.49</ele>
  <time>2026-09-01T19:56:45Z</time>
  <course>177.3</course>
  <speed>0.1</speed>
  <fix>3d</fix>
</trkpt>
<trkpt lat="-27.2744323" lon="151.2900651">
  <ele>353.47</ele>
  <time>2026-09-01T19:56:45Z</time>
  <course>11.14</course>
  <speed>0.1414213562373095</speed>
  <fix>3d</fix>
</trkpt>
<trkpt lat="-27.2744325" lon="151.2900651">
  <ele>353.71</ele>
  <time>2026-09-01T19:56:45Z</time>
  <course>11.17</course>
  <speed>0.15132745950421556</speed>
  <fix>3d</fix>
</trkpt>
<trkpt lat="-27.2744322" lon="151.2900652">
  <ele>352.97</ele>
  <time>2026-09-01T19:56:45Z</time>
  <course>182.23</course>
  <speed>0.13</speed>
  <fix>3d</fix>
</trkpt>
<trkpt lat="-27.2744325" lon="151.2900651">
  <ele>353.73</ele>
  <time>2026-09-01T19:56:45Z</time>
  <course>11.17</course>
  <speed>0.15132745950421556</speed>
  <fix>3d</fix>
</trkpt>
<trkpt lat="-27.2744326" lon="151.2900651">
  <ele>353.96</ele>
  <time>2026-09-01T19:56:45Z</time>
  <course>11.17</course>
  <speed>0.16278820596099705</speed>
  <fix>3d</fix>
</trkpt>
<trkpt lat="-27.2744322" lon="151.2900652">
  <ele>352.97</ele>
  <time>2026-09-01T19:56:45Z</time>
  <course>182.23</course>
  <speed>0.13</speed>
  <fix>3d</fix>
</trkpt>
<trkpt lat="-27.2744326" lon="151.2900651">
  <ele>354.03</ele>
  <time>2026-09-01T19:56:45Z</time>
  <course>11.17</course>
  <speed>0.16124515496597097</speed>
  <fix>3d</fix>
</trkpt>
<trkpt lat="-27.2744327" lon="151.2900651">
  <ele>354.21</ele>
  <time>2026-09-01T19:56:45Z</time>
  <course>11.14</course>
  <speed>0.17262676501632068</speed>
  <fix>3d</fix>
</trkpt>
<trkpt lat="-27.2744324" lon="151.2900652">
  <ele>353.47</ele>
  <time>2026-09-01T19:56:45Z</time>
  <course>184.77</course>
  <speed>0.16</speed>
  <fix>3d</fix>
</trkpt>
<trkpt lat="-27.2744328" lon="151.2900651">
  <ele>354.27</ele>
  <time>2026-09-01T19:56:45Z</time>
  <course>11.13</course>
  <speed>0.17262676501632068</speed>
  <fix>3d</fix>
</trkpt>
<trkpt lat="-27.2744329" lon="151.2900651">
  <ele>354.46</ele>
  <time>2026-09-01T19:56:45Z</time>
  <course>11.09</course>
  <speed>0.1824828759089466</speed>
  <fix>3d</fix>
</trkpt>
<trkpt lat="-27.2744324" lon="151.2900652">
  <ele>353.47</ele>
  <time>2026-09-01T19:56:45Z</time>
  <course>184.77</course>
  <speed>0.16</speed>
  <fix>3d</fix>
</trkpt>
<trkpt lat="-27.2744329" lon="151.2900651">
  <ele>354.47</ele>
  <time>2026-09-01T19:56:45Z</time>
  <course>11.09</course>
  <speed>0.1824828759089466</speed>
  <fix>3d</fix>
</trkpt>
<trkpt lat="-27.2744331" lon="151.2900651">
  <ele>354.71</ele>
  <time>2026-09-01T19:56:45Z</time>
  <course>11.04</course>
  <speed>0.1824828759089466</speed>
  <fix>3d</fix>
</trkpt>
<trkpt lat="-27.2744328" lon="151.2900652">
  <ele>353.96</ele>
  <time>2026-09-01T19:56:45Z</time>
  <course>185.57</course>
  <speed>0.18</speed>
  <fix>3d</fix>
</trkpt>
<trkpt lat="-27.2744331" lon="151.2900651">
  <ele>354.72</ele>
  <time>2026-09-01T19:56:45Z</time>
  <course>11.04</course>
  <speed>0.1824828759089466</speed>
  <fix>3d</fix>
</trkpt>
<trkpt lat="-27.2744332" lon="151.2900651">
  <ele>354.96</ele>
  <time>2026-09-01T19:56:45Z</time>
  <course>11.01</course>
  <speed>0.19235384061671343</speed>
  <fix>3d</fix>
</trkpt>
<trkpt lat="-27.2744328" lon="151.2900652">
  <ele>353.96</ele>
  <time>2026-09-01T19:56:45Z</time>
  <course>185.57</course>
  <speed>0.18</speed>
  <fix>3d</fix>
</trkpt>
<trkpt lat="-27.2744332" lon="151.2900651">
  <ele>354.97</ele>
  <time>2026-09-01T19:56:45Z</time>
  <course>11.01</course>
  <speed>0.19235384061671343</speed>
  <fix>3d</fix>
</trkpt>
<trkpt lat="-27.2744334" lon="151.2900651">
  <ele>355.21</ele>
  <time>2026-09-01T19:56:45Z</time>
  <course>10.98</course>
  <speed>0.19235384061671343</speed>
  <fix>3d</fix>
</trkpt>
<trkpt lat="-27.2744331" lon="151.2900652">
  <ele>354.46</ele>
  <time>2026-09-01T19:56:45Z</time>
  <course>186.14</course>
  <speed>0.2</speed>
  <fix>3d</fix>
</trkpt>
<trkpt lat="-27.2744334" lon="151.2900651">
  <ele>355.27</ele>
  <time>2026-09-01T19:56:45Z</time>
  <course>10.97</course>
  <speed>0.19235384061671343</speed>
  <fix>3d</fix>
</trkpt>
<trkpt lat="-27.2744336" lon="151.290065">
  <ele>355.47</ele>
  <time>2026-09-01T19:56:45Z</time>
  <course>10.94</course>
  <speed>0.2009975124224178</speed>
  <fix>3d</fix>
</trkpt>
<trkpt lat="-27.2744331" lon="151.2900652">
  <ele>354.46</ele>
  <time>2026-09-01T19:56:45Z</time>
  <course>186.14</course>
  <speed>0.2</speed>
  <fix>3d</fix>
</trkpt>
<trkpt lat="-27.2744336" lon="151.290065">
  <ele>355.5</ele>
  <time>2026-09-01T19:56:45Z</time>
  <course>10.94</course>
  <speed>0.2009975124224178</speed>
  <fix>3d</fix>
</trkpt>
<trkpt lat="-27.2744338" lon="151.290065">
  <ele>355.72</ele>
  <time>2026-09-01T19:56:45Z</time>
  <course>10.9</course>
  <speed>0.20223748416156684</speed>
  <fix>3d</fix>
</trkpt>
<trkpt lat="-27.2744335" lon="151.2900652">
  <ele>354.97</ele>
  <time>2026-09-01T19:56:45Z</time>
  <course>186.82</course>
  <speed>0.21</speed>
  <fix>3d</fix>
</trkpt>
<trkpt lat="-27.2744338" lon="151.290065">
  <ele>355.74</ele>
  <time>2026-09-01T19:56:45Z</time>
  <course>10.9</course>
  <speed>0.20223748416156684</speed>
  <fix>3d</fix>
</trkpt>
<trkpt lat="-27.274434" lon="151.290065">
  <ele>355.97</ele>
  <time>2026-09-01T19:56:45Z</time>
  <course>10.87</course>
  <speed>0.2039607805437114</speed>
  <fix>3d</fix>
</trkpt>
<trkpt lat="-27.2744335" lon="151.2900652">
  <ele>354.97</ele>
  <time>2026-09-01T19:56:45Z</time>
  <course>186.82</course>
  <speed>0.21</speed>
  <fix>3d</fix>
</trkpt>
<trkpt lat="-27.274434" lon="151.290065">
  <ele>356.03</ele>
  <time>2026-09-01T19:56:45Z</time>
  <course>10.87</course>
  <speed>0.20223748416156684</speed>
  <fix>3d</fix>
</trkpt>
<trkpt lat="-27.2744341" lon="151.290065">
  <ele>356.22</ele>
  <time>2026-09-01T19:56:45Z</time>
  <course>10.84</course>
  <speed>0.20223748416156684</speed>
  <fix>3d</fix>
</trkpt>
<trkpt lat="-27.2744339" lon="151.2900651">
  <ele>355.47</ele>
  <time>2026-09-01T19:56:45Z</time>
  <course>187.09</course>
  <speed>0.21</speed>
  <fix>3d</fix>
</trkpt>
<trkpt lat="-27.2744342" lon="151.290065">
  <ele>356.29</ele>
  <time>2026-09-01T19:56:45Z</time>
  <course>10.83</course>
  <speed>0.2009975124224178</speed>
  <fix>3d</fix>
</trkpt>
<trkpt lat="-27.2744343" lon="151.290065">
  <ele>356.48</ele>
  <time>2026-09-01T19:56:45Z</time>
  <course>10.82</course>
  <speed>0.2109502310972899</speed>
  <fix>3d</fix>
</trkpt>
<trkpt lat="-27.2744339" lon="151.2900651">
  <ele>355.47</ele>
  <time>2026-09-01T19:56:45Z</time>
  <course>187.09</course>
  <speed>0.21</speed>
  <fix>3d</fix>
</trkpt>
<trkpt lat="-27.2744344" lon="151.290065">
  <ele>356.54</ele>
  <time>2026-09-01T19:56:45Z</time>
  <course>10.81</course>
  <speed>0.20223748416156684</speed>
  <fix>3d</fix>
</trkpt>
<trkpt lat="-27.2744345" lon="151.290065">
  <ele>356.73</ele>
  <time>2026-09-01T19:56:45Z</time>
  <course>10.8</course>
  <speed>0.2102379604162864</speed>
  <fix>3d</fix>
</trkpt>
<trkpt lat="-27.2744342" lon="151.2900651">
  <ele>355.97</ele>
  <time>2026-09-01T19:56:45Z</time>
  <course>187.23</course>
  <speed>0.22</speed>
  <fix>3d</fix>
</trkpt>
<trkpt lat="-27.2744346" lon="151.290065">
  <ele>356.8</ele>
  <time>2026-09-01T19:56:45Z</time>
  <course>10.79</course>
  <speed>0.2102379604162864</speed>
  <fix>3d</fix>
</trkpt>
<trkpt lat="-27.2744347" lon="151.2900649">
  <ele>356.98</ele>
  <time>2026-09-01T19:56:45Z</time>
  <course>10.78</course>
  <speed>0.20223748416156684</speed>
  <fix>3d</fix>
</trkpt>
<trkpt lat="-27.2744342" lon="151.2900651">
  <ele>355.97</ele>
  <time>2026-09-01T19:56:45Z</time>
  <course>187.23</course>
  <speed>0.22</speed>
  <fix>3d</fix>
</trkpt>
<trkpt lat="-27.2744348" lon="151.2900649">
  <ele>357.04</ele>
  <time>2026-09-01T19:56:45Z</time>
  <course>10.78</course>
  <speed>0.2039607805437114</speed>
  <fix>3d</fix>
</trkpt>
<trkpt lat="-27.2744349" lon="151.2900649">
  <ele>357.23</ele>
  <time>2026-09-01T19:56:45Z</time>
  <course>10.76</course>
  <speed>0.2002498439450079</speed>
  <fix>3d</fix>
</trkpt>
<trkpt lat="-27.2744347" lon="151.2900651">
  <ele>356.47</ele>
  <time>2026-09-01T19:56:45Z</time>
  <course>187.29</course>
  <speed>0.22</speed>
  <fix>3d</fix>
</trkpt>
<trkpt lat="-27.2744349" lon="151.2900649">
  <ele>357.24</ele>
  <time>2026-09-01T19:56:45Z</time>
  <course>10.76</course>
  <speed>0.2002498439450079</speed>
  <fix>3d</fix>
</trkpt>
<trkpt lat="-27.2744351" lon="151.2900649">
  <ele>357.48</ele>
  <time>2026-09-01T19:56:45Z</time>
  <course>10.75</course>
  <speed>0.21</speed>
  <fix>3d</fix>
</trkpt>
<trkpt lat="-27.2744347" lon="151.2900651">
  <ele>356.47</ele>
  <time>2026-09-01T19:56:45Z</time>
  <course>187.29</course>
  <speed>0.22</speed>
  <fix>3d</fix>
</trkpt>
<trkpt lat="-27.2744351" lon="151.2900649">
  <ele>357.49</ele>
  <time>2026-09-01T19:56:45Z</time>
  <course>10.75</course>
  <speed>0.21</speed>
  <fix>3d</fix>
</trkpt>
<trkpt lat="-27.2744353" lon="151.2900649">
  <ele>357.73</ele>
  <time>2026-09-01T19:56:45Z</time>
  <course>10.77</course>
  <speed>0.2</speed>
  <fix>3d</fix>
</trkpt>
<trkpt lat="-27.2744351" lon="151.290065">
  <ele>356.97</ele>
  <time>2026-09-01T19:56:45Z</time>
  <course>187.45</course>
  <speed>0.21</speed>
  <fix>3d</fix>
</trkpt>
<trkpt lat="-27.2744353" lon="151.2900649">
  <ele>357.75</ele>
  <time>2026-09-01T19:56:45Z</time>
  <course>10.78</course>
  <speed>0.2</speed>
  <fix>3d</fix>
</trkpt>
<trkpt lat="-27.2744355" lon="151.2900649">
  <ele>357.98</ele>
  <time>2026-09-01T19:56:45Z</time>
  <course>10.81</course>
  <speed>0.2</speed>
  <fix>3d</fix>
</trkpt>
<trkpt lat="-27.2744351" lon="151.290065">
  <ele>356.97</ele>
  <time>2026-09-01T19:56:45Z</time>
  <course>187.45</course>
  <speed>0.21</speed>
  <fix>3d</fix>
</trkpt>
<trkpt lat="-27.2744356" lon="151.2900649">
  <ele>358.04</ele>
  <time>2026-09-01T19:56:45Z</time>
  <course>10.81</course>
  <speed>0.2102379604162864</speed>
  <fix>3d</fix>
</trkpt>
<trkpt lat="-27.2744357" lon="151.2900649">
  <ele>358.23</ele>
  <time>2026-09-01T19:56:45Z</time>
  <course>10.82</course>
  <speed>0.2</speed>
  <fix>3d</fix>
</trkpt>
<trkpt lat="-27.2744354" lon="151.2900649">
  <ele>357.47</ele>
  <time>2026-09-01T19:56:46Z</time>
  <course>188.19</course>
  <speed>0.21</speed>
  <fix>3d</fix>
</trkpt>
<trkpt lat="-27.2744358" lon="151.2900649">
  <ele>358.3</ele>
  <time>2026-09-01T19:56:46Z</time>
  <course>10.82</course>
  <speed>0.2002498439450079</speed>
  <fix>3d</fix>
</trkpt>
<trkpt lat="-27.2744359" lon="151.2900649">
  <ele>358.48</ele>
  <time>2026-09-01T19:56:46Z</time>
  <course>10.8</course>
  <speed>0.19026297590440447</speed>
  <fix>3d</fix>
</trkpt>
<trkpt lat="-27.2744354" lon="151.2900649">
  <ele>357.47</ele>
  <time>2026-09-01T19:56:46Z</time>
  <course>188.19</course>
  <speed>0.21</speed>
  <fix>3d</fix>
</trkpt>
<trkpt lat="-27.2744359" lon="151.2900649">
  <ele>358.55</ele>
  <time>2026-09-01T19:56:46Z</time>
  <course>10.78</course>
  <speed>0.191049731745428</speed>
  <fix>3d</fix>
</trkpt>
<trkpt lat="-27.2744361" lon="151.2900649">
  <ele>358.73</ele>
  <time>2026-09-01T19:56:46Z</time>
  <course>10.7</course>
  <speed>0.191049731745428</speed>
  <fix>3d</fix>
</trkpt>
<trkpt lat="-27.2744358" lon="151.2900649">
  <ele>357.97</ele>
  <time>2026-09-01T19:56:46Z</time>
  <course>189.28</course>
  <speed>0.2</speed>
  <fix>3d</fix>
</trkpt>
<trkpt lat="-27.2744361" lon="151.2900649">
  <ele>358.8</ele>
  <time>2026-09-01T19:56:46Z</time>
  <course>10.67</course>
  <speed>0.19235384061671343</speed>
  <fix>3d</fix>
</trkpt>
<trkpt lat="-27.2744362" lon="151.2900649">
  <ele>358.98</ele>
  <time>2026-09-01T19:56:46Z</time>
  <course>10.57</course>
  <speed>0.191049731745428</speed>
  <fix>3d</fix>
</trkpt>
<trkpt lat="-27.2744358" lon="151.2900649">
  <ele>357.97</ele>
  <time>2026-09-01T19:56:46Z</time>
  <course>189.28</course>
  <speed>0.2</speed>
  <fix>3d</fix>
</trkpt>
<trkpt lat="-27.2744363" lon="151.2900649">
  <ele>359.04</ele>
  <time>2026-09-01T19:56:46Z</time>
  <course>10.54</course>
  <speed>0.191049731745428</speed>
  <fix>3d</fix>
</trkpt>
<trkpt lat="-27.2744364" lon="151.2900648">
  <ele>359.23</ele>
  <time>2026-09-01T19:56:46Z</time>
  <course>10.47</course>
  <speed>0.19</speed>
  <fix>3d</fix>
</trkpt>
<trkpt lat="-27.2744361" lon="151.2900648">
  <ele>358.47</ele>
  <time>2026-09-01T19:56:46Z</time>
  <course>189.21</course>
  <speed>0.2</speed>
  <fix>3d</fix>
</trkpt>
<trkpt lat="-27.2744365" lon="151.2900648">
  <ele>359.3</ele>
  <time>2026-09-01T19:56:46Z</time>
  <course>10.46</course>
  <speed>0.19</speed>
  <fix>3d</fix>
</trkpt>
<trkpt lat="-27.2744366" lon="151.2900648">
  <ele>359.48</ele>
  <time>2026-09-01T19:56:46Z</time>
  <course>10.45</course>
  <speed>0.18</speed>
  <fix>3d</fix>
</trkpt>
<trkpt lat="-27.2744361" lon="151.2900648">
  <ele>358.47</ele>
  <time>2026-09-01T19:56:46Z</time>
  <course>189.21</course>
  <speed>0.2</speed>
  <fix>3d</fix>
</trkpt>
<trkpt lat="-27.2744366" lon="151.2900648">
  <ele>359.54</ele>
  <time>2026-09-01T19:56:46Z</time>
  <course>10.46</course>
  <speed>0.18</speed>
  <fix>3d</fix>
</trkpt>
<trkpt lat="-27.2744368" lon="151.2900648">
  <ele>359.73</ele>
  <time>2026-09-01T19:56:46Z</time>
  <course>10.48</course>
  <speed>0.18</speed>
  <fix>3d</fix>
</trkpt>
<trkpt lat="-27.2744365" lon="151.2900647">
  <ele>358.97</ele>
  <time>2026-09-01T19:56:46Z</time>
  <course>189.34</course>
  <speed>0.19</speed>
  <fix>3d</fix>
</trkpt>
<trkpt lat="-27.2744368" lon="151.2900648">
  <ele>359.74</ele>
  <time>2026-09-01T19:56:46Z</time>
  <course>10.48</course>
  <speed>0.18</speed>
  <fix>3d</fix>
</trkpt>
<trkpt lat="-27.2744369" lon="151.2900648">
  <ele>359.98</ele>
  <time>2026-09-01T19:56:46Z</time>
  <course>10.49</course>
  <speed>0.17</speed>
  <fix>3d</fix>
</trkpt>
<trkpt lat="-27.2744365" lon="151.2900647">
  <ele>358.97</ele>
  <time>2026-09-01T19:56:46Z</time>
  <course>189.34</course>
  <speed>0.19</speed>
  <fix>3d</fix>
</trkpt>
<trkpt lat="-27.2744369" lon="151.2900648">
  <ele>359.99</ele>
  <time>2026-09-01T19:56:46Z</time>
  <course>10.49</course>
  <speed>0.17</speed>
  <fix>3d</fix>
</trkpt>
<trkpt lat="-27.2744371" lon="151.2900648">
  <ele>360.23</ele>
  <time>2026-09-01T19:56:46Z</time>
  <course>10.46</course>
  <speed>0.17</speed>
  <fix>3d</fix>
</trkpt>
<trkpt lat="-27.2744368" lon="151.2900647">
  <ele>359.47</ele>
  <time>2026-09-01T19:56:46Z</time>
  <course>190.65</course>
  <speed>0.18</speed>
  <fix>3d</fix>
</trkpt>
<trkpt lat="-27.2744371" lon="151.2900648">
  <ele>360.3</ele>
  <time>2026-09-01T19:56:46Z</time>
  <course>10.45</course>
  <speed>0.17</speed>
  <fix>3d</fix>
</trkpt>
<trkpt lat="-27.2744372" lon="151.2900648">
  <ele>360.48</ele>
  <time>2026-09-01T19:56:46Z</time>
  <course>10.41</course>
  <speed>0.16</speed>
  <fix>3d</fix>
</trkpt>
<trkpt lat="-27.2744368" lon="151.2900647">
  <ele>359.47</ele>
  <time>2026-09-01T19:56:46Z</time>
  <course>190.65</course>
  <speed>0.18</speed>
  <fix>3d</fix>
</trkpt>
<trkpt lat="-27.2744373" lon="151.2900648">
  <ele>360.53</ele>
  <time>2026-09-01T19:56:46Z</time>
  <course>10.4</course>
  <speed>0.16</speed>
  <fix>3d</fix>
</trkpt>
<trkpt lat="-27.2744374" lon="151.2900648">
  <ele>360.73</ele>
  <time>2026-09-01T19:56:46Z</time>
  <course>10.36</course>
  <speed>0.16</speed>
  <fix>3d</fix>
</trkpt>
<trkpt lat="-27.2744371" lon="151.2900646">
  <ele>359.97</ele>
  <time>2026-09-01T19:56:46Z</time>
  <course>191.38</course>
  <speed>0.17</speed>
  <fix>3d</fix>
</trkpt>
<trkpt lat="-27.2744374" lon="151.2900648">
  <ele>360.79</ele>
  <time>2026-09-01T19:56:46Z</time>
  <course>10.35</course>
  <speed>0.16</speed>
  <fix>3d</fix>
</trkpt>
<trkpt lat="-27.2744375" lon="151.2900648">
  <ele>360.98</ele>
  <time>2026-09-01T19:56:46Z</time>
  <course>10.31</course>
  <speed>0.15</speed>
  <fix>3d</fix>
</trkpt>
<trkpt lat="-27.2744371" lon="151.2900646">
  <ele>359.97</ele>
  <time>2026-09-01T19:56:46Z</time>
  <course>191.38</course>
  <speed>0.17</speed>
  <fix>3d</fix>
</trkpt>
<trkpt lat="-27.2744375" lon="151.2900648">
  <ele>361.04</ele>
  <time>2026-09-01T19:56:46Z</time>
  <course>10.3</course>
  <speed>0.15033296378372907</speed>
  <fix>3d</fix>
</trkpt>
<trkpt lat="-27.2744376" lon="151.2900647">
  <ele>361.23</ele>
  <time>2026-09-01T19:56:46Z</time>
  <course>10.26</course>
  <speed>0.15033296378372907</speed>
  <fix>3d</fix>
</trkpt>
<trkpt lat="-27.2744374" lon="151.2900645">
  <ele>360.47</ele>
  <time>2026-09-01T19:56:46Z</time>
  <course>191.73</course>
  <speed>0.16</speed>
  <fix>3d</fix>
</trkpt>
<trkpt lat="-27.2744377" lon="151.2900647">
  <ele>361.3</ele>
  <time>2026-09-01T19:56:46Z</time>
  <course>10.25</course>
  <speed>0.15033296378372907</speed>
  <fix>3d</fix>
</trkpt>
<trkpt lat="-27.2744378" lon="151.2900647">
  <ele>361.48</ele>
  <time>2026-09-01T19:56:46Z</time>
  <course>10.23</course>
  <speed>0.140356688476182</speed>
  <fix>3d</fix>
</trkpt>
<trkpt lat="-27.2744374" lon="151.2900645">
  <ele>360.47</ele>
  <time>2026-09-01T19:56:46Z</time>
  <course>191.73</course>
  <speed>0.16</speed>
  <fix>3d</fix>
</trkpt>
<trkpt lat="-27.2744378" lon="151.2900647">
  <ele>361.54</ele>
  <time>2026-09-01T19:56:46Z</time>
  <course>10.22</course>
  <speed>0.14</speed>
  <fix>3d</fix>
</trkpt>
<trkpt lat="-27.2744379" lon="151.2900647">
  <ele>361.73</ele>
  <time>2026-09-01T19:56:46Z</time>
  <course>10.2</course>
  <speed>0.14</speed>
  <fix>3d</fix>
</trkpt>
<trkpt lat="-27.2744377" lon="151.2900645">
  <ele>360.97</ele>
  <time>2026-09-01T19:56:46Z</time>
  <course>192.48</course>
  <speed>0.15</speed>
  <fix>3d</fix>
</trkpt>
<trkpt lat="-27.2744379" lon="151.2900647">
  <ele>361.8</ele>
  <time>2026-09-01T19:56:46Z</time>
  <course>10.19</course>
  <speed>0.14</speed>
  <fix>3d</fix>
</trkpt>
<trkpt lat="-27.274438" lon="151.2900647">
  <ele>361.98</ele>
  <time>2026-09-01T19:56:46Z</time>
  <course>10.17</course>
  <speed>0.13</speed>
  <fix>3d</fix>
</trkpt>
<trkpt lat="-27.2744377" lon="151.2900645">
  <ele>360.97</ele>
  <time>2026-09-01T19:56:46Z</time>
  <course>192.48</course>
  <speed>0.15</speed>
  <fix>3d</fix>
</trkpt>
<trkpt lat="-27.274438" lon="151.2900647">
  <ele>361.99</ele>
  <time>2026-09-01T19:56:46Z</time>
  <course>10.17</course>
  <speed>0.13</speed>
  <fix>3d</fix>
</trkpt>
<trkpt lat="-27.2744381" lon="151.2900646">
  <ele>362.23</ele>
  <time>2026-09-01T19:56:46Z</time>
  <course>10.14</course>
  <speed>0.13</speed>
  <fix>3d</fix>
</trkpt>
<trkpt lat="-27.2744379" lon="151.2900644">
  <ele>361.47</ele>
  <time>2026-09-01T19:56:46Z</time>
  <course>193.35</course>
  <speed>0.13</speed>
  <fix>3d</fix>
</trkpt>
<trkpt lat="-27.2744382" lon="151.2900646">
  <ele>362.3</ele>
  <time>2026-09-01T19:56:46Z</time>
  <course>10.14</course>
  <speed>0.13</speed>
  <fix>3d</fix>
</trkpt>
<trkpt lat="-27.2744383" lon="151.2900646">
  <ele>362.48</ele>
  <time>2026-09-01T19:56:46Z</time>
  <course>10.13</course>
  <speed>0.12</speed>
  <fix>3d</fix>
</trkpt>
<trkpt lat="-27.2744379" lon="151.2900644">
  <ele>361.47</ele>
  <time>2026-09-01T19:56:46Z</time>
  <course>193.35</course>
  <speed>0.13</speed>
  <fix>3d</fix>
</trkpt>
<trkpt lat="-27.2744383" lon="151.2900646">
  <ele>362.49</ele>
  <time>2026-09-01T19:56:46Z</time>
  <course>10.13</course>
  <speed>0.12</speed>
  <fix>3d</fix>
</trkpt>
<trkpt lat="-27.2744384" lon="151.2900646">
  <ele>362.73</ele>
  <time>2026-09-01T19:56:46Z</time>
  <course>10.14</course>
  <speed>0.11</speed>
  <fix>3d</fix>
</trkpt>
<trkpt lat="-27.2744382" lon="151.2900644">
  <ele>361.97</ele>
  <time>2026-09-01T19:56:46Z</time>
  <course>193.81</course>
  <speed>0.12</speed>
  <fix>3d</fix>
</trkpt>
<trkpt lat="-27.2744384" lon="151.2900646">
  <ele>362.74</ele>
  <time>2026-09-01T19:56:46Z</time>
  <course>10.14</course>
  <speed>0.11</speed>
  <fix>3d</fix>
</trkpt>
<trkpt lat="-27.2744385" lon="151.2900646">
  <ele>362.98</ele>
  <time>2026-09-01T19:56:46Z</time>
  <course>10.17</course>
  <speed>0.11</speed>
  <fix>3d</fix>
</trkpt>
<trkpt lat="-27.2744382" lon="151.2900644">
  <ele>361.97</ele>
  <time>2026-09-01T19:56:46Z</time>
  <course>193.81</course>
  <speed>0.12</speed>
  <fix>3d</fix>
</trkpt>
<trkpt lat="-27.2744385" lon="151.2900646">
  <ele>363.04</ele>
  <time>2026-09-01T19:56:46Z</time>
  <course>10.17</course>
  <speed>0.11</speed>
  <fix>3d</fix>
</trkpt>
<trkpt lat="-27.2744386" lon="151.2900645">
  <ele>363.23</ele>
  <time>2026-09-01T19:56:46Z</time>
  <course>10.2</course>
  <speed>0.1</speed>
  <fix>3d</fix>
</trkpt>
<trkpt lat="-27.2744384" lon="151.2900643">
  <ele>362.47</ele>
  <time>2026-09-01T19:56:46Z</time>
  <course>194.29</course>
  <speed>0.11</speed>
  <fix>3d</fix>
</trkpt>
<trkpt lat="-27.2744386" lon="151.2900645">
  <ele>363.3</ele>
  <time>2026-09-01T19:56:46Z</time>
  <course>10.21</course>
  <speed>0.1</speed>
  <fix>3d</fix>
</trkpt>
<trkpt lat="-27.2744386" lon="151.2900645">
  <ele>363.48</ele>
  <time>2026-09-01T19:56:46Z</time>
  <course>10.25</course>
  <speed>0.1</speed>
  <fix>3d</fix>
</trkpt>
<trkpt lat="-27.2744384" lon="151.2900643">
  <ele>362.47</ele>
  <time>2026-09-01T19:56:46Z</time>
  <course>194.29</course>
  <speed>0.11</speed>
  <fix>3d</fix>
</trkpt>
<trkpt lat="-27.2744387" lon="151.2900645">
  <ele>363.54</ele>
  <time>2026-09-01T19:56:46Z</time>
  <course>10.25</course>
  <speed>0.1</speed>
  <fix>3d</fix>
</trkpt>
<trkpt lat="-27.2744387" lon="151.2900645">
  <ele>363.73</ele>
  <time>2026-09-01T19:56:46Z</time>
  <course>10.27</course>
  <speed>0.09</speed>
  <fix>3d</fix>
</trkpt>
<trkpt lat="-27.2744385" lon="151.2900642">
  <ele>362.97</ele>
  <time>2026-09-01T19:56:46Z</time>
  <course>195.37</course>
  <speed>0.1</speed>
  <fix>3d</fix>
</trkpt>
<trkpt lat="-27.2744387" lon="151.2900645">
  <ele>363.79</ele>
  <time>2026-09-01T19:56:46Z</time>
  <course>10.28</course>
  <speed>0.09</speed>
  <fix>3d</fix>
</trkpt>
<trkpt lat="-27.2744388" lon="151.2900644">
  <ele>363.98</ele>
  <time>2026-09-01T19:56:46Z</time>
  <course>10.3</course>
  <speed>0.09</speed>
  <fix>3d</fix>
</trkpt>
<trkpt lat="-27.2744385" lon="151.2900642">
  <ele>362.97</ele>
  <time>2026-09-01T19:56:46Z</time>
  <course>195.37</course>
  <speed>0.1</speed>
  <fix>3d</fix>
</trkpt>
<trkpt lat="-27.2744388" lon="151.2900644">
  <ele>364.02</ele>
  <time>2026-09-01T19:56:46Z</time>
  <course>10.3</course>
  <speed>0.09</speed>
  <fix>3d</fix>
</trkpt>
<trkpt lat="-27.2744389" lon="151.2900644">
  <ele>364.23</ele>
  <time>2026-09-01T19:56:46Z</time>
  <course>10.32</course>
  <speed>0.08</speed>
  <fix>3d</fix>
</trkpt>
<trkpt lat="-27.2744388" lon="151.2900642">
  <ele>363.47</ele>
  <time>2026-09-01T19:56:46Z</time>
  <course>196.36</course>
  <speed>0.09</speed>
  <fix>3d</fix>
</trkpt>
<trkpt lat="-27.2744389" lon="151.2900644">
  <ele>364.25</ele>
  <time>2026-09-01T19:56:46Z</time>
  <course>10.32</course>
  <speed>0.08</speed>
  <fix>3d</fix>
</trkpt>
<trkpt lat="-27.2744389" lon="151.2900644">
  <ele>364.48</ele>
  <time>2026-09-01T19:56:46Z</time>
  <course>10.35</course>
  <speed>0.08</speed>
  <fix>3d</fix>
</trkpt>
<trkpt lat="-27.2744388" lon="151.2900642">
  <ele>363.47</ele>
  <time>2026-09-01T19:56:46Z</time>
  <course>196.36</course>
  <speed>0.09</speed>
  <fix>3d</fix>
</trkpt>
<trkpt lat="-27.274439" lon="151.2900644">
  <ele>364.54</ele>
  <time>2026-09-01T19:56:46Z</time>
  <course>10.35</course>
  <speed>0.08</speed>
  <fix>3d</fix>
</trkpt>
<trkpt lat="-27.274439" lon="151.2900643">
  <ele>364.73</ele>
  <time>2026-09-01T19:56:46Z</time>
  <course>10.37</course>
  <speed>0.07</speed>
  <fix>3d</fix>
</trkpt>
<trkpt lat="-27.2744389" lon="151.2900641">
  <ele>363.97</ele>
  <time>2026-09-01T19:56:46Z</time>
  <course>197.73</course>
  <speed>0.08</speed>
  <fix>3d</fix>
</trkpt>
<trkpt lat="-27.274439" lon="151.2900643">
  <ele>364.79</ele>
  <time>2026-09-01T19:56:46Z</time>
  <course>10.38</course>
  <speed>0.07</speed>
  <fix>3d</fix>
</trkpt>
<trkpt lat="-27.2744391" lon="151.2900643">
  <ele>364.98</ele>
  <time>2026-09-01T19:56:46Z</time>
  <course>10.39</course>
  <speed>0.07</speed>
  <fix>3d</fix>
</trkpt>
<trkpt lat="-27.2744389" lon="151.2900641">
  <ele>363.97</ele>
  <time>2026-09-01T19:56:46Z</time>
  <course>197.73</course>
  <speed>0.08</speed>
  <fix>3d</fix>
</trkpt>
<trkpt lat="-27.2744391" lon="151.2900643">
  <ele>364.98</ele>
  <time>2026-09-01T19:56:46Z</time>
  <course>10.39</course>
  <speed>0.07</speed>
  <fix>3d</fix>
</trkpt>
<trkpt lat="-27.2744391" lon="151.2900643">
  <ele>365.23</ele>
  <time>2026-09-01T19:56:46Z</time>
  <course>10.39</course>
  <speed>0.06</speed>
  <fix>3d</fix>
</trkpt>
<trkpt lat="-27.274439" lon="151.2900641">
  <ele>364.47</ele>
  <time>2026-09-01T19:56:46Z</time>
  <course>200.17</course>
  <speed>0.07</speed>
  <fix>3d</fix>
</trkpt>
<trkpt lat="-27.2744391" lon="151.2900643">
  <ele>365.24</ele>
  <time>2026-09-01T19:56:46Z</time>
  <course>10.39</course>
  <speed>0.06</speed>
  <fix>3d</fix>
</trkpt>
<trkpt lat="-27.2744392" lon="151.2900642">
  <ele>365.48</ele>
  <time>2026-09-01T19:56:46Z</time>
  <course>10.38</course>
  <speed>0.06082762530298219</speed>
  <fix>3d</fix>
</trkpt>
<trkpt lat="-27.274439" lon="151.2900641">
  <ele>364.47</ele>
  <time>2026-09-01T19:56:46Z</time>
  <course>200.17</course>
  <speed>0.07</speed>
  <fix>3d</fix>
</trkpt>
<trkpt lat="-27.2744392" lon="151.2900642">
  <ele>365.48</ele>
  <time>2026-09-01T19:56:46Z</time>
  <course>10.38</course>
  <speed>0.06</speed>
  <fix>3d</fix>
</trkpt>
<trkpt lat="-27.2744392" lon="151.2900642">
  <ele>365.73</ele>
  <time>2026-09-01T19:56:46Z</time>
  <course>10.37</course>
  <speed>0.05099019513592785</speed>
  <fix>3d</fix>
</trkpt>
<trkpt lat="-27.2744391" lon="151.290064">
  <ele>364.97</ele>
  <time>2026-09-01T19:56:46Z</time>
  <course>202.62</course>
  <speed>0.06</speed>
  <fix>3d</fix>
</trkpt>
<trkpt lat="-27.2744392" lon="151.2900642">
  <ele>365.78</ele>
  <time>2026-09-01T19:56:46Z</time>
  <course>10.37</course>
  <speed>0.05099019513592785</speed>
  <fix>3d</fix>
</trkpt>
<trkpt lat="-27.2744393" lon="151.2900642">
  <ele>365.98</ele>
  <time>2026-09-01T19:56:46Z</time>
  <course>10.36</course>
  <speed>0.05099019513592785</speed>
  <fix>3d</fix>
</trkpt>
<trkpt lat="-27.2744391" lon="151.290064">
  <ele>364.97</ele>
  <time>2026-09-01T19:56:46Z</time>
  <course>202.62</course>
  <speed>0.06</speed>
  <fix>3d</fix>
</trkpt>
<trkpt lat="-27.2744393" lon="151.2900642">
  <ele>366.01</ele>
  <time>2026-09-01T19:56:46Z</time>
  <course>10.36</course>
  <speed>0.05099019513592785</speed>
  <fix>3d</fix>
</trkpt>
<trkpt lat="-27.2744393" lon="151.2900641">
  <ele>366.23</ele>
  <time>2026-09-01T19:56:46Z</time>
  <course>10.36</course>
  <speed>0.0412310562561766</speed>
  <fix>3d</fix>
</trkpt>
<trkpt lat="-27.2744392" lon="151.290064">
  <ele>365.48</ele>
  <time>2026-09-01T19:56:46Z</time>
  <course>204.47</course>
  <speed>0.05</speed>
  <fix>3d</fix>
</trkpt>
<trkpt lat="-27.2744393" lon="151.2900641">
  <ele>366.24</ele>
  <time>2026-09-01T19:56:46Z</time>
  <course>10.36</course>
  <speed>0.0412310562561766</speed>
  <fix>3d</fix>
</trkpt>
<trkpt lat="-27.2744393" lon="151.2900641">
  <ele>366.49</ele>
  <time>2026-09-01T19:56:46Z</time>
  <course>10.37</course>
  <speed>0.04</speed>
  <fix>3d</fix>
</trkpt>
<trkpt lat="-27.2744392" lon="151.290064">
  <ele>365.48</ele>
  <time>2026-09-01T19:56:46Z</time>
  <course>204.47</course>
  <speed>0.05</speed>
  <fix>3d</fix>
</trkpt>
<trkpt lat="-27.2744393" lon="151.2900641">
  <ele>366.55</ele>
  <time>2026-09-01T19:56:46Z</time>
  <course>10.37</course>
  <speed>0.04</speed>
  <fix>3d</fix>
</trkpt>
<trkpt lat="-27.2744394" lon="151.2900641">
  <ele>366.74</ele>
  <time>2026-09-01T19:56:46Z</time>
  <course>10.39</course>
  <speed>0.03</speed>
  <fix>3d</fix>
</trkpt>
<trkpt lat="-27.2744393" lon="151.290064">
  <ele>365.98</ele>
  <time>2026-09-01T19:56:46Z</time>
  <course>205.92</course>
  <speed>0.04</speed>
  <fix>3d</fix>
</trkpt>
<trkpt lat="-27.2744394" lon="151.2900641">
  <ele>366.81</ele>
  <time>2026-09-01T19:56:46Z</time>
  <course>10.39</course>
  <speed>0.03</speed>
  <fix>3d</fix>
</trkpt>
<trkpt lat="-27.2744394" lon="151.2900641">
  <ele>366.99</ele>
  <time>2026-09-01T19:56:46Z</time>
  <course>10.41</course>
  <speed>0.03</speed>
  <fix>3d</fix>
</trkpt>
<trkpt lat="-27.2744393" lon="151.290064">
  <ele>365.98</ele>
  <time>2026-09-01T19:56:46Z</time>
  <course>205.92</course>
  <speed>0.04</speed>
  <fix>3d</fix>
</trkpt>
<trkpt lat="-27.2744394" lon="151.2900641">
  <ele>367.05</ele>
  <time>2026-09-01T19:56:46Z</time>
  <course>10.42</course>
  <speed>0.03</speed>
  <fix>3d</fix>
</trkpt>
<trkpt lat="-27.2744394" lon="151.2900641">
  <ele>367.24</ele>
  <time>2026-09-01T19:56:46Z</time>
  <course>10.44</course>
  <speed>0.03</speed>
  <fix>3d</fix>
</trkpt>
<trkpt lat="-27.2744394" lon="151.2900639">
  <ele>366.48</ele>
  <time>2026-09-01T19:56:46Z</time>
  <course>207.14</course>
  <speed>0.03</speed>
  <fix>3d</fix>
</trkpt>
<trkpt lat="-27.2744394" lon="151.290064">
  <ele>367.32</ele>
  <time>2026-09-01T19:56:46Z</time>
  <course>10.45</course>
  <speed>0.02</speed>
  <fix>3d</fix>
</trkpt>
<trkpt lat="-27.2744394" lon="151.290064">
  <ele>367.49</ele>
  <time>2026-09-01T19:56:46Z</time>
  <course>10.48</course>
  <speed>0.02</speed>
  <fix>3d</fix>
</trkpt>
<trkpt lat="-27.2744394" lon="151.2900639">
  <ele>366.48</ele>
  <time>2026-09-01T19:56:46Z</time>
  <course>207.14</course>
  <speed>0.03</speed>
  <fix>3d</fix>
</trkpt>
<trkpt lat="-27.2744394" lon="151.290064">
  <ele>367.56</ele>
  <time>2026-09-01T19:56:46Z</time>
  <course>10.49</course>
  <speed>0.02</speed>
  <fix>3d</fix>
</trkpt>
<trkpt lat="-27.2744394" lon="151.290064">
  <ele>367.75</ele>
  <time>2026-09-01T19:56:46Z</time>
  <course>10.52</course>
  <speed>0.02</speed>
  <fix>3d</fix>
</trkpt>
<trkpt lat="-27.2744394" lon="151.2900639">
  <ele>366.98</ele>
  <time>2026-09-01T19:56:46Z</time>
  <course>210.26</course>
  <speed>0.02</speed>
  <fix>3d</fix>
</trkpt>
<trkpt lat="-27.2744394" lon="151.290064">
  <ele>367.75</ele>
  <time>2026-09-01T19:56:46Z</time>
  <course>10.52</course>
  <speed>0.02</speed>
  <fix>3d</fix>
</trkpt>
<trkpt lat="-27.2744395" lon="151.290064">
  <ele>368.0</ele>
  <time>2026-09-01T19:56:46Z</time>
  <course>10.56</course>
  <speed>0.02</speed>
  <fix>3d</fix>
</trkpt>
<trkpt lat="-27.2744394" lon="151.2900639">
  <ele>366.98</ele>
  <time>2026-09-01T19:56:46Z</time>
  <course>210.26</course>
  <speed>0.02</speed>
  <fix>3d</fix>
</trkpt>
<trkpt lat="-27.2744395" lon="151.290064">
  <ele>368.0</ele>
  <time>2026-09-01T19:56:46Z</time>
  <course>10.56</course>
  <speed>0.02</speed>
  <fix>3d</fix>
</trkpt>
<trkpt lat="-27.2744395" lon="151.290064">
  <ele>368.25</ele>
  <time>2026-09-01T19:56:46Z</time>
  <course>10.58</course>
  <speed>0.01</speed>
  <fix>3d</fix>
</trkpt>
<trkpt lat="-27.2744395" lon="151.2900639">
  <ele>367.48</ele>
  <time>2026-09-01T19:56:46Z</time>
  <course>218.42</course>
  <speed>0.01</speed>
  <fix>3d</fix>
</trkpt>
<trkpt lat="-27.2744395" lon="151.290064">
  <ele>368.31</ele>
  <time>2026-09-01T19:56:46Z</time>
  <course>10.59</course>
  <speed>0.01</speed>
  <fix>3d</fix>
</trkpt>
<trkpt lat="-27.2744395" lon="151.290064">
  <ele>368.49</ele>
  <time>2026-09-01T19:56:46Z</time>
  <course>10.59</course>
  <speed>0.01</speed>
  <fix>3d</fix>
</trkpt>
<trkpt lat="-27.2744395" lon="151.2900639">
  <ele>367.48</ele>
  <time>2026-09-01T19:56:46Z</time>
  <course>218.42</course>
  <speed>0.01</speed>
  <fix>3d</fix>
</trkpt>
<trkpt lat="-27.2744395" lon="151.290064">
  <ele>368.56</ele>
  <time>2026-09-01T19:56:46Z</time>
  <course>10.6</course>
  <speed>0.01</speed>
  <fix>3d</fix>
</trkpt>
<trkpt lat="-27.2744395" lon="151.2900639">
  <ele>368.74</ele>
  <time>2026-09-01T19:56:46Z</time>
  <course>10.6</course>
  <speed>0.01</speed>
  <fix>3d</fix>
</trkpt>
<trkpt lat="-27.2744395" lon="151.2900639">
  <ele>367.98</ele>
  <time>2026-09-01T19:56:46Z</time>
  <course>232.66</course>
  <speed>0.0</speed>
  <fix>3d</fix>
</trkpt>
<trkpt lat="-27.2744395" lon="151.2900639">
  <ele>368.81</ele>
  <time>2026-09-01T19:56:46Z</time>
  <course>10.6</course>
  <speed>0.01</speed>
  <fix>3d</fix>
</trkpt>
<trkpt lat="-27.2744395" lon="151.2900639">
  <ele>368.99</ele>
  <time>2026-09-01T19:56:46Z</time>
  <course>10.6</course>
  <speed>0.01</speed>
  <fix>3d</fix>
</trkpt>
<trkpt lat="-27.2744395" lon="151.2900639">
  <ele>367.98</ele>
  <time>2026-09-01T19:56:46Z</time>
  <course>232.66</course>
  <speed>0.0</speed>
  <fix>3d</fix>
</trkpt>
<trkpt lat="-27.2744395" lon="151.2900639">
  <ele>369.0</ele>
  <time>2026-09-01T19:56:46Z</time>
  <course>10.6</course>
  <speed>0.01</speed>
  <fix>3d</fix>
</trkpt>
<trkpt lat="-27.2744395" lon="151.2900639">
  <ele>369.24</ele>
  <time>2026-09-01T19:56:46Z</time>
  <course>10.61</course>
  <speed>0.0</speed>
  <fix>3d</fix>
</trkpt>
<trkpt lat="-27.2744395" lon="151.2900639">
  <ele>368.48</ele>
  <time>2026-09-01T19:56:46Z</time>
  <course>276.3</course>
  <speed>0.0</speed>
  <fix>3d</fix>
</trkpt>
<trkpt lat="-27.2744395" lon="151.2900639">
  <ele>369.3</ele>
  <time>2026-09-01T19:56:46Z</time>
  <course>10.61</course>
  <speed>0.0</speed>
  <fix>3d</fix>
</trkpt>
<trkpt lat="-27.2744395" lon="151.2900639">
  <ele>369.48</ele>
  <time>2026-09-01T19:56:46Z</time>
  <course>10.63</course>
  <speed>0.0</speed>
  <fix>3d</fix>
</trkpt>
<trkpt lat="-27.2744395" lon="151.2900639">
  <ele>368.48</ele>
  <time>2026-09-01T19:56:46Z</time>
  <course>276.3</course>
  <speed>0.0</speed>
  <fix>3d</fix>
</trkpt>
<trkpt lat="-27.2744395" lon="151.2900639">
  <ele>369.55</ele>
  <time>2026-09-01T19:56:46Z</time>
  <course>10.63</course>
  <speed>0.0</speed>
  <fix>3d</fix>
</trkpt>
<trkpt lat="-27.2744395" lon="151.2900639">
  <ele>369.73</ele>
  <time>2026-09-01T19:56:46Z</time>
  <course>10.65</course>
  <speed>0.0</speed>
  <fix>3d</fix>
</trkpt>
<trkpt lat="-27.2744395" lon="151.2900639">
  <ele>368.98</ele>
  <time>2026-09-01T19:56:46Z</time>
  <course>343.91</course>
  <speed>0.0</speed>
  <fix>3d</fix>
</trkpt>
<trkpt lat="-27.2744395" lon="151.2900639">
  <ele>369.77</ele>
  <time>2026-09-01T19:56:46Z</time>
  <course>10.65</course>
  <speed>0.0</speed>
  <fix>3d</fix>
</trkpt>
<trkpt lat="-27.2744395" lon="151.2900639">
  <ele>369.97</ele>
  <time>2026-09-01T19:56:46Z</time>
  <course>10.66</course>
  <speed>0.0</speed>
  <fix>3d</fix>
</trkpt>
<trkpt lat="-27.2744395" lon="151.2900639">
  <ele>368.98</ele>
  <time>2026-09-01T19:56:46Z</time>
  <course>343.91</course>
  <speed>0.0</speed>
  <fix>3d</fix>
</trkpt>
<trkpt lat="-27.2744395" lon="151.2900639">
  <ele>370.05</ele>
  <time>2026-09-01T19:56:46Z</time>
  <course>10.67</course>
  <speed>0.0</speed>
  <fix>3d</fix>
</trkpt>
<trkpt lat="-27.2744395" lon="151.2900639">
  <ele>370.22</ele>
  <time>2026-09-01T19:56:46Z</time>
  <course>10.68</course>
  <speed>0.0</speed>
  <fix>3d</fix>
</trkpt>
<trkpt lat="-27.2744395" lon="151.2900639">
  <ele>369.48</ele>
  <time>2026-09-01T19:56:46Z</time>
  <course>3.5</course>
  <speed>0.0</speed>
  <fix>3d</fix>
</trkpt>
<trkpt lat="-27.2744395" lon="151.2900639">
  <ele>370.29</ele>
  <time>2026-09-01T19:56:46Z</time>
  <course>10.69</course>
  <speed>0.0</speed>
  <fix>3d</fix>
</trkpt>
<trkpt lat="-27.2744395" lon="151.2900639">
  <ele>370.47</ele>
  <time>2026-09-01T19:56:46Z</time>
  <course>10.7</course>
  <speed>0.0</speed>
  <fix>3d</fix>
</trkpt>
<trkpt lat="-27.2744395" lon="151.2900639">
  <ele>369.48</ele>
  <time>2026-09-01T19:56:46Z</time>
  <course>3.5</course>
  <speed>0.0</speed>
  <fix>3d</fix>
</trkpt>
<trkpt lat="-27.2744395" lon="151.2900639">
  <ele>370.48</ele>
  <time>2026-09-01T19:56:46Z</time>
  <course>10.7</course>
  <speed>0.0</speed>
  <fix>3d</fix>
</trkpt>
<trkpt lat="-27.2744395" lon="151.2900639">
  <ele>370.72</ele>
  <time>2026-09-01T19:56:46Z</time>
  <course>10.71</course>
  <speed>0.0</speed>
  <fix>3d</fix>
</trkpt>
<trkpt lat="-27.2744395" lon="151.2900639">
  <ele>369.98</ele>
  <time>2026-09-01T19:56:46Z</time>
  <course>10.47</course>
  <speed>0.01</speed>
  <fix>3d</fix>
</trkpt>
<trkpt lat="-27.2744395" lon="151.2900639">
  <ele>370.73</ele>
  <time>2026-09-01T19:56:46Z</time>
  <course>10.71</course>
  <speed>0.0</speed>
  <fix>3d</fix>
</trkpt>
<trkpt lat="-27.2744395" lon="151.2900639">
  <ele>370.97</ele>
  <time>2026-09-01T19:56:46Z</time>
  <course>10.72</course>
  <speed>0.0</speed>
  <fix>3d</fix>
</trkpt>
<trkpt lat="-27.2744395" lon="151.2900639">
  <ele>369.98</ele>
  <time>2026-09-01T19:56:46Z</time>
  <course>10.47</course>
  <speed>0.01</speed>
  <fix>3d</fix>
</trkpt>
<trkpt lat="-27.2744395" lon="151.2900639">
  <ele>371.03</ele>
  <time>2026-09-01T19:56:46Z</time>
  <course>10.73</course>
  <speed>0.0</speed>
  <fix>3d</fix>
</trkpt>
<trkpt lat="-27.2744395" lon="151.2900639">
  <ele>371.22</ele>
  <time>2026-09-01T19:56:46Z</time>
  <course>10.73</course>
  <speed>0.0</speed>
  <fix>3d</fix>
</trkpt>
<trkpt lat="-27.2744395" lon="151.2900639">
  <ele>370.48</ele>
  <time>2026-09-01T19:56:46Z</time>
  <course>13.84</course>
  <speed>0.01</speed>
  <fix>3d</fix>
</trkpt>
<trkpt lat="-27.2744395" lon="151.2900639">
  <ele>371.29</ele>
  <time>2026-09-01T19:56:46Z</time>
  <course>10.74</course>
  <speed>0.0</speed>
  <fix>3d</fix>
</trkpt>
<trkpt lat="-27.2744395" lon="151.2900639">
  <ele>371.47</ele>
  <time>2026-09-01T19:56:46Z</time>
  <course>10.74</course>
  <speed>0.0</speed>
  <fix>3d</fix>
</trkpt>
<trkpt lat="-27.2744395" lon="151.2900639">
  <ele>370.48</ele>
  <time>2026-09-01T19:56:46Z</time>
  <course>13.84</course>
  <speed>0.01</speed>
  <fix>3d</fix>
</trkpt>
<trkpt lat="-27.2744395" lon="151.2900639">
  <ele>371.54</ele>
  <time>2026-09-01T19:56:46Z</time>
  <course>10.75</course>
  <speed>0.0</speed>
  <fix>3d</fix>
</trkpt>
<trkpt lat="-27.2744395" lon="151.2900639">
  <ele>371.72</ele>
  <time>2026-09-01T19:56:46Z</time>
  <course>10.75</course>
  <speed>0.0</speed>
  <fix>3d</fix>
</trkpt>
<trkpt lat="-27.2744395" lon="151.2900639">
  <ele>370.99</ele>
  <time>2026-09-01T19:56:46Z</time>
  <course>15.81</course>
  <speed>0.01</speed>
  <fix>3d</fix>
</trkpt>
<trkpt lat="-27.2744395" lon="151.2900639">
  <ele>371.8</ele>
  <time>2026-09-01T19:56:46Z</time>
  <course>10.75</course>
  <speed>0.0</speed>
  <fix>3d</fix>
</trkpt>
<trkpt lat="-27.2744395" lon="151.2900639">
  <ele>371.97</ele>
  <time>2026-09-01T19:56:46Z</time>
  <course>10.75</course>
  <speed>0.0</speed>
  <fix>3d</fix>
</trkpt>
<trkpt lat="-27.2744395" lon="151.2900639">
  <ele>370.99</ele>
  <time>2026-09-01T19:56:46Z</time>
  <course>15.81</course>
  <speed>0.01</speed>
  <fix>3d</fix>
</trkpt>
<trkpt lat="-27.2744395" lon="151.2900639">
  <ele>372.03</ele>
  <time>2026-09-01T19:56:46Z</time>
  <course>10.75</course>
  <speed>0.0</speed>
  <fix>3d</fix>
</trkpt>
<trkpt lat="-27.2744395" lon="151.2900639">
  <ele>372.23</ele>
  <time>2026-09-01T19:56:46Z</time>
  <course>10.75</course>
  <speed>0.0</speed>
  <fix>3d</fix>
</trkpt>
<trkpt lat="-27.2744395" lon="151.2900639">
  <ele>371.49</ele>
  <time>2026-09-01T19:56:46Z</time>
  <course>18.58</course>
  <speed>0.01</speed>
  <fix>3d</fix>
</trkpt>
<trkpt lat="-27.2744395" lon="151.2900639">
  <ele>372.3</ele>
  <time>2026-09-01T19:56:46Z</time>
  <course>10.75</course>
  <speed>0.0</speed>
  <fix>3d</fix>
</trkpt>
<trkpt lat="-27.2744395" lon="151.2900639">
  <ele>372.48</ele>
  <time>2026-09-01T19:56:46Z</time>
  <course>10.74</course>
  <speed>0.0</speed>
  <fix>3d</fix>
</trkpt>
<trkpt lat="-27.2744395" lon="151.2900639">
  <ele>371.49</ele>
  <time>2026-09-01T19:56:46Z</time>
  <course>18.58</course>
  <speed>0.01</speed>
  <fix>3d</fix>
</trkpt>
<trkpt lat="-27.2744395" lon="151.2900639">
  <ele>372.52</ele>
  <time>2026-09-01T19:56:46Z</time>
  <course>10.74</course>
  <speed>0.0</speed>
  <fix>3d</fix>
</trkpt>
<trkpt lat="-27.2744395" lon="151.2900639">
  <ele>372.73</ele>
  <time>2026-09-01T19:56:46Z</time>
  <course>10.75</course>
  <speed>0.0</speed>
  <fix>3d</fix>
</trkpt>
<trkpt lat="-27.2744394" lon="151.2900639">
  <ele>371.99</ele>
  <time>2026-09-01T19:56:46Z</time>
  <course>20.11</course>
  <speed>0.02</speed>
  <fix>3d</fix>
</trkpt>
<trkpt lat="-27.2744395" lon="151.2900639">
  <ele>372.8</ele>
  <time>2026-09-01T19:56:46Z</time>
  <course>10.75</course>
  <speed>0.0</speed>
  <fix>3d</fix>
</trkpt>
<trkpt lat="-27.2744395" lon="151.2900639">
  <ele>372.98</ele>
  <time>2026-09-01T19:56:46Z</time>
  <course>10.76</course>
  <speed>0.0</speed>
  <fix>3d</fix>
</trkpt>
<trkpt lat="-27.2744394" lon="151.2900639">
  <ele>371.99</ele>
  <time>2026-09-01T19:56:46Z</time>
  <course>20.11</course>
  <speed>0.02</speed>
  <fix>3d</fix>
</trkpt>
<trkpt lat="-27.2744395" lon="151.2900639">
  <ele>373.04</ele>
  <time>2026-09-01T19:56:46Z</time>
  <course>10.76</course>
  <speed>0.0</speed>
  <fix>3d</fix>
</trkpt>
<trkpt lat="-27.2744395" lon="151.2900639">
  <ele>373.24</ele>
  <time>2026-09-01T19:56:46Z</time>
  <course>10.76</course>
  <speed>0.0</speed>
  <fix>3d</fix>
</trkpt>
<trkpt lat="-27.2744394" lon="151.2900639">
  <ele>372.5</ele>
  <time>2026-09-01T19:56:46Z</time>
  <course>18.58</course>
  <speed>0.02</speed>
  <fix>3d</fix>
</trkpt>
<trkpt lat="-27.2744395" lon="151.2900639">
  <ele>373.24</ele>
  <time>2026-09-01T19:56:46Z</time>
  <course>10.76</course>
  <speed>0.0</speed>
  <fix>3d</fix>
</trkpt>
<trkpt lat="-27.2744394" lon="151.2900639">
  <ele>373.49</ele>
  <time>2026-09-01T19:56:46Z</time>
  <course>10.76</course>
  <speed>0.01</speed>
  <fix>3d</fix>
</trkpt>
<trkpt lat="-27.2744394" lon="151.2900639">
  <ele>372.5</ele>
  <time>2026-09-01T19:56:46Z</time>
  <course>18.58</course>
  <speed>0.02</speed>
  <fix>3d</fix>
</trkpt>
<trkpt lat="-27.2744394" lon="151.2900639">
  <ele>373.5</ele>
  <time>2026-09-01T19:56:46Z</time>
  <course>10.76</course>
  <speed>0.01</speed>
  <fix>3d</fix>
</trkpt>
<trkpt lat="-27.2744394" lon="151.2900639">
  <ele>373.74</ele>
  <time>2026-09-01T19:56:46Z</time>
  <course>10.76</course>
  <speed>0.01</speed>
  <fix>3d</fix>
</trkpt>
<trkpt lat="-27.2744393" lon="151.2900639">
  <ele>373.0</ele>
  <time>2026-09-01T19:56:46Z</time>
  <course>17.37</course>
  <speed>0.02</speed>
  <fix>3d</fix>
</trkpt>
<trkpt lat="-27.2744394" lon="151.2900639">
  <ele>373.81</ele>
  <time>2026-09-01T19:56:46Z</time>
  <course>10.77</course>
  <speed>0.01</speed>
  <fix>3d</fix>
</trkpt>
<trkpt lat="-27.2744394" lon="151.2900639">
  <ele>373.99</ele>
  <time>2026-09-01T19:56:46Z</time>
  <course>10.77</course>
  <speed>0.01</speed>
  <fix>3d</fix>
</trkpt>
<trkpt lat="-27.2744393" lon="151.2900639">
  <ele>373.0</ele>
  <time>2026-09-01T19:56:46Z</time>
  <course>17.37</course>
  <speed>0.02</speed>
  <fix>3d</fix>
</trkpt>
<trkpt lat="-27.2744394" lon="151.2900639">
  <ele>374.06</ele>
  <time>2026-09-01T19:56:46Z</time>
  <course>10.77</course>
  <speed>0.01</speed>
  <fix>3d</fix>
</trkpt>
<trkpt lat="-27.2744394" lon="151.2900639">
  <ele>374.24</ele>
  <time>2026-09-01T19:56:46Z</time>
  <course>10.76</course>
  <speed>0.01</speed>
  <fix>3d</fix>
</trkpt>
<trkpt lat="-27.2744393" lon="151.2900639">
  <ele>373.51</ele>
  <time>2026-09-01T19:56:46Z</time>
  <course>16.75</course>
  <speed>0.02</speed>
  <fix>3d</fix>
</trkpt>
<trkpt lat="-27.2744394" lon="151.2900639">
  <ele>374.31</ele>
  <time>2026-09-01T19:56:46Z</time>
  <course>10.76</course>
  <speed>0.01</speed>
  <fix>3d</fix>
</trkpt>
<trkpt lat="-27.2744394" lon="151.2900639">
  <ele>374.5</ele>
  <time>2026-09-01T19:56:46Z</time>
  <course>10.75</course>
  <speed>0.01</speed>
  <fix>3d</fix>
</trkpt>
<trkpt lat="-27.2744393" lon="151.2900639">
  <ele>373.51</ele>
  <time>2026-09-01T19:56:46Z</time>
  <course>16.75</course>
  <speed>0.02</speed>
  <fix>3d</fix>
</trkpt>
<trkpt lat="-27.2744393" lon="151.2900639">
  <ele>374.56</ele>
  <time>2026-09-01T19:56:46Z</time>
  <course>10.74</course>
  <speed>0.01</speed>
  <fix>3d</fix>
</trkpt>
<trkpt lat="-27.2744393" lon="151.2900639">
  <ele>374.74</ele>
  <time>2026-09-01T19:56:46Z</time>
  <course>10.73</course>
  <speed>0.01</speed>
  <fix>3d</fix>
</trkpt>
<trkpt lat="-27.2744392" lon="151.2900639">
  <ele>374.01</ele>
  <time>2026-09-01T19:56:46Z</time>
  <course>16.83</course>
  <speed>0.02</speed>
  <fix>3d</fix>
</trkpt>
<trkpt lat="-27.2744393" lon="151.2900639">
  <ele>374.81</ele>
  <time>2026-09-01T19:56:46Z</time>
  <course>10.73</course>
  <speed>0.01</speed>
  <fix>3d</fix>
</trkpt>
<trkpt lat="-27.2744393" lon="151.2900639">
  <ele>374.99</ele>
  <time>2026-09-01T19:56:46Z</time>
  <course>10.73</course>
  <speed>0.01</speed>
  <fix>3d</fix>
</trkpt>
<trkpt lat="-27.2744392" lon="151.2900639">
  <ele>374.01</ele>
  <time>2026-09-01T19:56:46Z</time>
  <course>16.83</course>
  <speed>0.02</speed>
  <fix>3d</fix>
</trkpt>
<trkpt lat="-27.2744393" lon="151.2900639">
  <ele>375.06</ele>
  <time>2026-09-01T19:56:46Z</time>
  <course>10.73</course>
  <speed>0.01</speed>
  <fix>3d</fix>
</trkpt>
<trkpt lat="-27.2744393" lon="151.2900639">
  <ele>375.24</ele>
  <time>2026-09-01T19:56:46Z</time>
  <course>10.73</course>
  <speed>0.01</speed>
  <fix>3d</fix>
</trkpt>
<trkpt lat="-27.2744392" lon="151.2900639">
  <ele>374.51</ele>
  <time>2026-09-01T19:56:46Z</time>
  <course>17.19</course>
  <speed>0.02</speed>
  <fix>3d</fix>
</trkpt>
<trkpt lat="-27.2744393" lon="151.2900639">
  <ele>375.31</ele>
  <time>2026-09-01T19:56:46Z</time>
  <course>10.73</course>
  <speed>0.01</speed>
  <fix>3d</fix>
</trkpt>
<trkpt lat="-27.2744393" lon="151.2900639">
  <ele>375.49</ele>
  <time>2026-09-01T19:56:46Z</time>
  <course>10.72</course>
  <speed>0.01</speed>
  <fix>3d</fix>
</trkpt>
<trkpt lat="-27.2744392" lon="151.2900639">
  <ele>374.51</ele>
  <time>2026-09-01T19:56:46Z</time>
  <course>17.19</course>
  <speed>0.02</speed>
  <fix>3d</fix>
</trkpt>
<trkpt lat="-27.2744393" lon="151.2900639">
  <ele>375.55</ele>
  <time>2026-09-01T19:56:46Z</time>
  <course>10.72</course>
  <speed>0.01</speed>
  <fix>3d</fix>
</trkpt>
<trkpt lat="-27.2744392" lon="151.2900639">
  <ele>375.75</ele>
  <time>2026-09-01T19:56:46Z</time>
  <course>10.72</course>
  <speed>0.01</speed>
  <fix>3d</fix>
</trkpt>
<trkpt lat="-27.2744391" lon="151.2900639">
  <ele>375.01</ele>
  <time>2026-09-01T19:56:46Z</time>
  <course>16.97</course>
  <speed>0.02</speed>
  <fix>3d</fix>
</trkpt>
<trkpt lat="-27.2744392" lon="151.2900639">
  <ele>375.78</ele>
  <time>2026-09-01T19:56:46Z</time>
  <course>10.72</course>
  <speed>0.01</speed>
  <fix>3d</fix>
</trkpt>
<trkpt lat="-27.2744392" lon="151.2900639">
  <ele>376.0</ele>
  <time>2026-09-01T19:56:46Z</time>
  <course>10.71</course>
  <speed>0.01</speed>
  <fix>3d</fix>
</trkpt>
<trkpt lat="-27.2744391" lon="151.2900639">
  <ele>375.01</ele>
  <time>2026-09-01T19:56:46Z</time>
  <course>16.97</course>
  <speed>0.02</speed>
  <fix>3d</fix>
</trkpt>
<trkpt lat="-27.2744392" lon="151.2900639">
  <ele>376.01</ele>
  <time>2026-09-01T19:56:46Z</time>
  <course>10.71</course>
  <speed>0.01</speed>
  <fix>3d</fix>
</trkpt>
<trkpt lat="-27.2744392" lon="151.2900639">
  <ele>376.25</ele>
  <time>2026-09-01T19:56:46Z</time>
  <course>10.71</course>
  <speed>0.01</speed>
  <fix>3d</fix>
</trkpt>
<trkpt lat="-27.2744391" lon="151.2900639">
  <ele>375.52</ele>
  <time>2026-09-01T19:56:46Z</time>
  <course>18.0</course>
  <speed>0.02</speed>
  <fix>3d</fix>
</trkpt>
<trkpt lat="-27.2744392" lon="151.2900639">
  <ele>376.26</ele>
  <time>2026-09-01T19:56:46Z</time>
  <course>10.71</course>
  <speed>0.01</speed>
  <fix>3d</fix>
</trkpt>
<trkpt lat="-27.2744392" lon="151.2900639">
  <ele>376.51</ele>
  <time>2026-09-01T19:56:46Z</time>
  <course>10.71</course>
  <speed>0.01</speed>
  <fix>3d</fix>
</trkpt>
<trkpt lat="-27.2744391" lon="151.2900639">
  <ele>375.52</ele>
  <time>2026-09-01T19:56:46Z</time>
  <course>18.0</course>
  <speed>0.02</speed>
  <fix>3d</fix>
</trkpt>
<trkpt lat="-27.2744392" lon="151.2900639">
  <ele>376.52</ele>
  <time>2026-09-01T19:56:46Z</time>
  <course>10.71</course>
  <speed>0.01</speed>
  <fix>3d</fix>
</trkpt>
<trkpt lat="-27.2744391" lon="151.2900639">
  <ele>376.76</ele>
  <time>2026-09-01T19:56:46Z</time>
  <course>10.72</course>
  <speed>0.0</speed>
  <fix>3d</fix>
</trkpt>
<trkpt lat="-27.2744391" lon="151.2900639">
  <ele>376.02</ele>
  <time>2026-09-01T19:56:46Z</time>
  <course>20.05</course>
  <speed>0.02</speed>
  <fix>3d</fix>
</trkpt>
<trkpt lat="-27.2744391" lon="151.2900639">
  <ele>376.77</ele>
  <time>2026-09-01T19:56:46Z</time>
  <course>10.72</course>
  <speed>0.0</speed>
  <fix>3d</fix>
</trkpt>
<trkpt lat="-27.2744391" lon="151.2900639">
  <ele>377.01</ele>
  <time>2026-09-01T19:56:46Z</time>
  <course>10.72</course>
  <speed>0.0</speed>
  <fix>3d</fix>
</trkpt>
<trkpt lat="-27.2744391" lon="151.2900639">
  <ele>376.02</ele>
  <time>2026-09-01T19:56:46Z</time>
  <course>20.05</course>
  <speed>0.02</speed>
  <fix>3d</fix>
</trkpt>
<trkpt lat="-27.2744391" lon="151.2900639">
  <ele>377.08</ele>
  <time>2026-09-01T19:56:46Z</time>
  <course>10.72</course>
  <speed>0.0</speed>
  <fix>3d</fix>
</trkpt>
<trkpt lat="-27.2744391" lon="151.290064">
  <ele>377.26</ele>
  <time>2026-09-01T19:56:46Z</time>
  <course>10.72</course>
  <speed>0.0</speed>
  <fix>3d</fix>
</trkpt>
<trkpt lat="-27.274439" lon="151.290064">
  <ele>376.52</ele>
  <time>2026-09-01T19:56:46Z</time>
  <course>22.23</course>
  <speed>0.02</speed>
  <fix>3d</fix>
</trkpt>
<trkpt lat="-27.2744391" lon="151.290064">
  <ele>377.33</ele>
  <time>2026-09-01T19:56:46Z</time>
  <course>10.72</course>
  <speed>0.0</speed>
  <fix>3d</fix>
</trkpt>
<trkpt lat="-27.2744391" lon="151.290064">
  <ele>377.51</ele>
  <time>2026-09-01T19:56:46Z</time>
  <course>10.72</course>
  <speed>0.0</speed>
  <fix>3d</fix>
</trkpt>
<trkpt lat="-27.274439" lon="151.290064">
  <ele>376.52</ele>
  <time>2026-09-01T19:56:46Z</time>
  <course>22.23</course>
  <speed>0.02</speed>
  <fix>3d</fix>
</trkpt>
<trkpt lat="-27.2744391" lon="151.290064">
  <ele>377.58</ele>
  <time>2026-09-01T19:56:46Z</time>
  <course>10.72</course>
  <speed>0.0</speed>
  <fix>3d</fix>
</trkpt>
<trkpt lat="-27.2744391" lon="151.290064">
  <ele>377.76</ele>
  <time>2026-09-01T19:56:46Z</time>
  <course>10.72</course>
  <speed>0.0</speed>
  <fix>3d</fix>
</trkpt>
<trkpt lat="-27.274439" lon="151.290064">
  <ele>377.01</ele>
  <time>2026-09-01T19:56:46Z</time>
  <course>24.31</course>
  <speed>0.02</speed>
  <fix>3d</fix>
</trkpt>
<trkpt lat="-27.2744391" lon="151.290064">
  <ele>377.81</ele>
  <time>2026-09-01T19:56:46Z</time>
  <course>10.72</course>
  <speed>0.0</speed>
  <fix>3d</fix>
</trkpt>
<trkpt lat="-27.2744391" lon="151.290064">
  <ele>378.01</ele>
  <time>2026-09-01T19:56:46Z</time>
  <course>10.72</course>
  <speed>0.0</speed>
  <fix>3d</fix>
</trkpt>
<trkpt lat="-27.274439" lon="151.290064">
  <ele>377.01</ele>
  <time>2026-09-01T19:56:46Z</time>
  <course>24.31</course>
  <speed>0.02</speed>
  <fix>3d</fix>
</trkpt>
<trkpt lat="-27.2744391" lon="151.290064">
  <ele>378.07</ele>
  <time>2026-09-01T19:56:46Z</time>
  <course>10.73</course>
  <speed>0.0</speed>
  <fix>3d</fix>
</trkpt>
<trkpt lat="-27.2744391" lon="151.290064">
  <ele>378.26</ele>
  <time>2026-09-01T19:56:46Z</time>
  <course>10.73</course>
  <speed>0.0</speed>
  <fix>3d</fix>
</trkpt>
<trkpt lat="-27.2744389" lon="151.290064">
  <ele>377.51</ele>
  <time>2026-09-01T19:56:46Z</time>
  <course>25.84</course>
  <speed>0.01</speed>
  <fix>3d</fix>
</trkpt>
<trkpt lat="-27.2744391" lon="151.290064">
  <ele>378.3</ele>
  <time>2026-09-01T19:56:46Z</time>
  <course>10.74</course>
  <speed>0.0</speed>
  <fix>3d</fix>
</trkpt>
<trkpt lat="-27.274439" lon="151.290064">
  <ele>378.51</ele>
  <time>2026-09-01T19:56:46Z</time>
  <course>10.75</course>
  <speed>0.0</speed>
  <fix>3d</fix>
</trkpt>
<trkpt lat="-27.2744389" lon="151.290064">
  <ele>377.51</ele>
  <time>2026-09-01T19:56:46Z</time>
  <course>25.84</course>
  <speed>0.01</speed>
  <fix>3d</fix>
</trkpt>
<trkpt lat="-27.274439" lon="151.290064">
  <ele>378.53</ele>
  <time>2026-09-01T19:56:46Z</time>
  <course>10.75</course>
  <speed>0.0</speed>
  <fix>3d</fix>
</trkpt>
<trkpt lat="-27.274439" lon="151.290064">
  <ele>378.75</ele>
  <time>2026-09-01T19:56:46Z</time>
  <course>10.75</course>
  <speed>0.0</speed>
  <fix>3d</fix>
</trkpt>
<trkpt lat="-27.2744389" lon="151.290064">
  <ele>378.01</ele>
  <time>2026-09-01T19:56:46Z</time>
  <course>26.39</course>
  <speed>0.01</speed>
  <fix>3d</fix>
</trkpt>
<trkpt lat="-27.274439" lon="151.290064">
  <ele>378.76</ele>
  <time>2026-09-01T19:56:46Z</time>
  <course>10.75</course>
  <speed>0.0</speed>
  <fix>3d</fix>
</trkpt>
<trkpt lat="-27.274439" lon="151.290064">
  <ele>379.0</ele>
  <time>2026-09-01T19:56:46Z</time>
  <course>10.75</course>
  <speed>0.0</speed>
  <fix>3d</fix>
</trkpt>
<trkpt lat="-27.2744389" lon="151.290064">
  <ele>378.01</ele>
  <time>2026-09-01T19:56:46Z</time>
  <course>26.39</course>
  <speed>0.01</speed>
  <fix>3d</fix>
</trkpt>
<trkpt lat="-27.274439" lon="151.290064">
  <ele>379.05</ele>
  <time>2026-09-01T19:56:46Z</time>
  <course>10.75</course>
  <speed>0.0</speed>
  <fix>3d</fix>
</trkpt>
<trkpt lat="-27.274439" lon="151.290064">
  <ele>379.25</ele>
  <time>2026-09-01T19:56:46Z</time>
  <course>10.74</course>
  <speed>0.0</speed>
  <fix>3d</fix>
</trkpt>
<trkpt lat="-27.2744389" lon="151.290064">
  <ele>378.51</ele>
  <time>2026-09-01T19:56:46Z</time>
  <course>28.83</course>
  <speed>0.01</speed>
  <fix>3d</fix>
</trkpt>
<trkpt lat="-27.274439" lon="151.290064">
  <ele>379.35</ele>
  <time>2026-09-01T19:56:46Z</time>
  <course>10.74</course>
  <speed>0.0</speed>
  <fix>3d</fix>
</trkpt>
<trkpt lat="-27.274439" lon="151.290064">
  <ele>379.5</ele>
  <time>2026-09-01T19:56:46Z</time>
  <course>10.73</course>
  <speed>0.0</speed>
  <fix>3d</fix>
</trkpt>
<trkpt lat="-27.2744389" lon="151.290064">
  <ele>378.51</ele>
  <time>2026-09-01T19:56:46Z</time>
  <course>28.83</course>
  <speed>0.01</speed>
  <fix>3d</fix>
</trkpt>
<trkpt lat="-27.274439" lon="151.290064">
  <ele>379.54</ele>
  <time>2026-09-01T19:56:46Z</time>
  <course>10.73</course>
  <speed>0.0</speed>
  <fix>3d</fix>
</trkpt>
<trkpt lat="-27.274439" lon="151.290064">
  <ele>379.75</ele>
  <time>2026-09-01T19:56:46Z</time>
  <course>10.72</course>
  <speed>0.0</speed>
  <fix>3d</fix>
</trkpt>
<trkpt lat="-27.2744389" lon="151.290064">
  <ele>379.01</ele>
  <time>2026-09-01T19:56:46Z</time>
  <course>39.87</course>
  <speed>0.01</speed>
  <fix>3d</fix>
</trkpt>
<trkpt lat="-27.274439" lon="151.290064">
  <ele>379.86</ele>
  <time>2026-09-01T19:56:46Z</time>
  <course>10.71</course>
  <speed>0.0</speed>
  <fix>3d</fix>
</trkpt>
<trkpt lat="-27.274439" lon="151.290064">
  <ele>380.0</ele>
  <time>2026-09-01T19:56:46Z</time>
  <course>10.72</course>
  <speed>0.0</speed>
  <fix>3d</fix>
</trkpt>
<trkpt lat="-27.2744389" lon="151.290064">
  <ele>379.01</ele>
  <time>2026-09-01T19:56:46Z</time>
  <course>39.87</course>
  <speed>0.01</speed>
  <fix>3d</fix>
</trkpt>
<trkpt lat="-27.274439" lon="151.290064">
  <ele>380.08</ele>
  <time>2026-09-01T19:56:46Z</time>
  <course>10.72</course>
  <speed>0.0</speed>
  <fix>3d</fix>
</trkpt>
<trkpt lat="-27.274439" lon="151.290064">
  <ele>380.25</ele>
  <time>2026-09-01T19:56:46Z</time>
  <course>10.73</course>
  <speed>0.0</speed>
  <fix>3d</fix>
</trkpt>
<trkpt lat="-27.2744389" lon="151.2900641">
  <ele>379.5</ele>
  <time>2026-09-01T19:56:46Z</time>
  <course>56.72</course>
  <speed>0.0</speed>
  <fix>3d</fix>
</trkpt>
<trkpt lat="-27.274439" lon="151.290064">
  <ele>380.34</ele>
  <time>2026-09-01T19:56:46Z</time>
  <course>10.74</course>
  <speed>0.0</speed>
  <fix>3d</fix>
</trkpt>
<trkpt lat="-27.274439" lon="151.290064">
  <ele>380.5</ele>
  <time>2026-09-01T19:56:46Z</time>
  <course>10.75</course>
  <speed>0.0</speed>
  <fix>3d</fix>
</trkpt>
<trkpt lat="-27.2744389" lon="151.2900641">
  <ele>379.5</ele>
  <time>2026-09-01T19:56:46Z</time>
  <course>56.72</course>
  <speed>0.0</speed>
  <fix>3d</fix>
</trkpt>
<trkpt lat="-27.274439" lon="151.290064">
  <ele>380.58</ele>
  <time>2026-09-01T19:56:46Z</time>
  <course>10.76</course>
  <speed>0.0</speed>
  <fix>3d</fix>
</trkpt>
<trkpt lat="-27.274439" lon="151.290064">
  <ele>380.75</ele>
  <time>2026-09-01T19:56:46Z</time>
  <course>10.78</course>
  <speed>0.0</speed>
  <fix>3d</fix>
</trkpt>
<trkpt lat="-27.2744389" lon="151.2900641">
  <ele>380.0</ele>
  <time>2026-09-01T19:56:46Z</time>
  <course>67.08</course>
  <speed>0.0</speed>
  <fix>3d</fix>
</trkpt>
<trkpt lat="-27.274439" lon="151.290064">
  <ele>380.82</ele>
  <time>2026-09-01T19:56:46Z</time>
  <course>10.78</course>
  <speed>0.0</speed>
  <fix>3d</fix>
</trkpt>
<trkpt lat="-27.274439" lon="151.290064">
  <ele>381.0</ele>
  <time>2026-09-01T19:56:46Z</time>
  <course>10.79</course>
  <speed>0.0</speed>
  <fix>3d</fix>
</trkpt>
<trkpt lat="-27.2744389" lon="151.2900641">
  <ele>380.0</ele>
  <time>2026-09-01T19:56:46Z</time>
  <course>67.08</course>
  <speed>0.0</speed>
  <fix>3d</fix>
</trkpt>
<trkpt lat="-27.274439" lon="151.290064">
  <ele>381.05</ele>
  <time>2026-09-01T19:56:46Z</time>
  <course>10.79</course>
  <speed>0.0</speed>
  <fix>3d</fix>
</trkpt>
<trkpt lat="-27.274439" lon="151.290064">
  <ele>381.25</ele>
  <time>2026-09-01T19:56:46Z</time>
  <course>10.8</course>
  <speed>0.0</speed>
  <fix>3d</fix>
</trkpt>
<trkpt lat="-27.2744389" lon="151.2900641">
  <ele>380.5</ele>
  <time>2026-09-01T19:56:46Z</time>
  <course>69.92</course>
  <speed>0.0</speed>
  <fix>3d</fix>
</trkpt>
<trkpt lat="-27.274439" lon="151.290064">
  <ele>381.32</ele>
  <time>2026-09-01T19:56:46Z</time>
  <course>10.79</course>
  <speed>0.0</speed>
  <fix>3d</fix>
</trkpt>
<trkpt lat="-27.274439" lon="151.290064">
  <ele>381.5</ele>
  <time>2026-09-01T19:56:46Z</time>
  <course>10.79</course>
  <speed>0.0</speed>
  <fix>3d</fix>
</trkpt>
<trkpt lat="-27.2744389" lon="151.2900641">
  <ele>380.5</ele>
  <time>2026-09-01T19:56:46Z</time>
  <course>69.92</course>
  <speed>0.0</speed>
  <fix>3d</fix>
</trkpt>
<trkpt lat="-27.274439" lon="151.290064">
  <ele>381.51</ele>
  <time>2026-09-01T19:56:46Z</time>
  <course>10.79</course>
  <speed>0.0</speed>
  <fix>3d</fix>
</trkpt>
<trkpt lat="-27.274439" lon="151.290064">
  <ele>381.76</ele>
  <time>2026-09-01T19:56:46Z</time>
  <course>10.78</course>
  <speed>0.0</speed>
  <fix>3d</fix>
</trkpt>
<trkpt lat="-27.2744389" lon="151.2900641">
  <ele>381.0</ele>
  <time>2026-09-01T19:56:46Z</time>
  <course>68.05</course>
  <speed>0.0</speed>
  <fix>3d</fix>
</trkpt>
<trkpt lat="-27.274439" lon="151.290064">
  <ele>381.8</ele>
  <time>2026-09-01T19:56:46Z</time>
  <course>10.78</course>
  <speed>0.0</speed>
  <fix>3d</fix>
</trkpt>
<trkpt lat="-27.274439" lon="151.290064">
  <ele>382.0</ele>
  <time>2026-09-01T19:56:46Z</time>
  <course>10.77</course>
  <speed>0.0</speed>
  <fix>3d</fix>
</trkpt>
<trkpt lat="-27.2744389" lon="151.2900641">
  <ele>381.0</ele>
  <time>2026-09-01T19:56:46Z</time>
  <course>68.05</course>
  <speed>0.0</speed>
  <fix>3d</fix>
</trkpt>
<trkpt lat="-27.274439" lon="151.290064">
  <ele>382.1</ele>
  <time>2026-09-01T19:56:46Z</time>
  <course>10.77</course>
  <speed>0.0</speed>
  <fix>3d</fix>
</trkpt>
<trkpt lat="-27.274439" lon="151.290064">
  <ele>382.25</ele>
  <time>2026-09-01T19:56:46Z</time>
  <course>10.77</course>
  <speed>0.0</speed>
  <fix>3d</fix>
</trkpt>
<trkpt lat="-27.2744389" lon="151.2900641">
  <ele>381.5</ele>
  <time>2026-09-01T19:56:46Z</time>
  <course>60.55</course>
  <speed>0.0</speed>
  <fix>3d</fix>
</trkpt>
<trkpt lat="-27.274439" lon="151.290064">
  <ele>382.36</ele>
  <time>2026-09-01T19:56:46Z</time>
  <course>10.76</course>
  <speed>0.0</speed>
  <fix>3d</fix>
</trkpt>
<trkpt lat="-27.274439" lon="151.290064">
  <ele>382.5</ele>
  <time>2026-09-01T19:56:46Z</time>
  <course>10.76</course>
  <speed>0.0</speed>
  <fix>3d</fix>
</trkpt>
<trkpt lat="-27.2744389" lon="151.2900641">
  <ele>381.5</ele>
  <time>2026-09-01T19:56:46Z</time>
  <course>60.55</course>
  <speed>0.0</speed>
  <fix>3d</fix>
</trkpt>
<trkpt lat="-27.274439" lon="151.290064">
  <ele>382.6</ele>
  <time>2026-09-01T19:56:46Z</time>
  <course>10.75</course>
  <speed>0.0</speed>
  <fix>3d</fix>
</trkpt>
<trkpt lat="-27.274439" lon="151.290064">
  <ele>382.75</ele>
  <time>2026-09-01T19:56:46Z</time>
  <course>10.74</course>
  <speed>0.0</speed>
  <fix>3d</fix>
</trkpt>
<trkpt lat="-27.2744389" lon="151.2900641">
  <ele>382.0</ele>
  <time>2026-09-01T19:56:46Z</time>
  <course>48.9</course>
  <speed>0.0</speed>
  <fix>3d</fix>
</trkpt>
<trkpt lat="-27.274439" lon="151.290064">
  <ele>382.83</ele>
  <time>2026-09-01T19:56:46Z</time>
  <course>10.74</course>
  <speed>0.01</speed>
  <fix>3d</fix>
</trkpt>
<trkpt lat="-27.274439" lon="151.290064">
  <ele>383.01</ele>
  <time>2026-09-01T19:56:46Z</time>
  <course>10.72</course>
  <speed>0.01</speed>
  <fix>3d</fix>
</trkpt>
<trkpt lat="-27.2744389" lon="151.2900641">
  <ele>382.0</ele>
  <time>2026-09-01T19:56:46Z</time>
  <course>48.9</course>
  <speed>0.0</speed>
  <fix>3d</fix>
</trkpt>
<trkpt lat="-27.274439" lon="151.290064">
  <ele>383.01</ele>
  <time>2026-09-01T19:56:46Z</time>
  <course>10.72</course>
  <speed>0.01</speed>
  <fix>3d</fix>
</trkpt>
<trkpt lat="-27.274439" lon="151.290064">
  <ele>383.26</ele>
  <time>2026-09-01T19:56:46Z</time>
  <course>10.71</course>
  <speed>0.01</speed>
  <fix>3d</fix>
</trkpt>
<trkpt lat="-27.2744389" lon="151.2900641">
  <ele>382.5</ele>
  <time>2026-09-01T19:56:46Z</time>
  <course>51.9</course>
  <speed>0.0</speed>
  <fix>3d</fix>
</trkpt>
<trkpt lat="-27.274439" lon="151.290064">
  <ele>383.33</ele>
  <time>2026-09-01T19:56:46Z</time>
  <course>10.71</course>
  <speed>0.01</speed>
  <fix>3d</fix>
</trkpt>
<trkpt lat="-27.274439" lon="151.290064">
  <ele>383.51</ele>
  <time>2026-09-01T19:56:47Z</time>
  <course>10.7</course>
  <speed>0.01</speed>
  <fix>3d</fix>
</trkpt>
<trkpt lat="-27.2744389" lon="151.2900641">
  <ele>382.5</ele>
  <time>2026-09-01T19:56:47Z</time>
  <course>51.9</course>
  <speed>0.0</speed>
  <fix>3d</fix>
</trkpt>
<trkpt lat="-27.274439" lon="151.290064">
  <ele>383.57</ele>
  <time>2026-09-01T19:56:47Z</time>
  <course>10.7</course>
  <speed>0.01</speed>
  <fix>3d</fix>
</trkpt>
<trkpt lat="-27.274439" lon="151.290064">
  <ele>383.76</ele>
  <time>2026-09-01T19:56:47Z</time>
  <course>10.69</course>
  <speed>0.0</speed>
  <fix>3d</fix>
</trkpt>
<trkpt lat="-27.2744389" lon="151.2900641">
  <ele>383.0</ele>
  <time>2026-09-01T19:56:47Z</time>
  <course>62.86</course>
  <speed>0.0</speed>
  <fix>3d</fix>
</trkpt>
<trkpt lat="-27.274439" lon="151.290064">
  <ele>383.83</ele>
  <time>2026-09-01T19:56:47Z</time>
  <course>10.69</course>
  <speed>0.0</speed>
  <fix>3d</fix>
</trkpt>
<trkpt lat="-27.274439" lon="151.290064">
  <ele>384.01</ele>
  <time>2026-09-01T19:56:47Z</time>
  <course>10.69</course>
  <speed>0.0</speed>
  <fix>3d</fix>
</trkpt>
<trkpt lat="-27.2744389" lon="151.2900641">
  <ele>383.0</ele>
  <time>2026-09-01T19:56:47Z</time>
  <course>62.86</course>
  <speed>0.0</speed>
  <fix>3d</fix>
</trkpt>
<trkpt lat="-27.274439" lon="151.290064">
  <ele>384.02</ele>
  <time>2026-09-01T19:56:47Z</time>
  <course>10.69</course>
  <speed>0.0</speed>
  <fix>3d</fix>
</trkpt>
<trkpt lat="-27.274439" lon="151.290064">
  <ele>384.26</ele>
  <time>2026-09-01T19:56:47Z</time>
  <course>10.69</course>
  <speed>0.0</speed>
  <fix>3d</fix>
</trkpt>
<trkpt lat="-27.2744388" lon="151.2900641">
  <ele>383.49</ele>
  <time>2026-09-01T19:56:47Z</time>
  <course>32.8</course>
  <speed>0.0</speed>
  <fix>3d</fix>
</trkpt>
<trkpt lat="-27.274439" lon="151.290064">
  <ele>384.27</ele>
  <time>2026-09-01T19:56:47Z</time>
  <course>10.69</course>
  <speed>0.0</speed>
  <fix>3d</fix>
</trkpt>
<trkpt lat="-27.274439" lon="151.290064">
  <ele>384.51</ele>
  <time>2026-09-01T19:56:47Z</time>
  <course>10.69</course>
  <speed>0.0</speed>
  <fix>3d</fix>
</trkpt>
<trkpt lat="-27.2744388" lon="151.2900641">
  <ele>383.49</ele>
  <time>2026-09-01T19:56:47Z</time>
  <course>32.8</course>
  <speed>0.0</speed>
  <fix>3d</fix>
</trkpt>
<trkpt lat="-27.274439" lon="151.290064">
  <ele>384.58</ele>
  <time>2026-09-01T19:56:47Z</time>
  <course>10.69</course>
  <speed>0.0</speed>
  <fix>3d</fix>
</trkpt>
<trkpt lat="-27.274439" lon="151.290064">
  <ele>384.76</ele>
  <time>2026-09-01T19:56:47Z</time>
  <course>10.69</course>
  <speed>0.0</speed>
  <fix>3d</fix>
</trkpt>
<trkpt lat="-27.2744388" lon="151.2900641">
  <ele>383.99</ele>
  <time>2026-09-01T19:56:47Z</time>
  <course>352.25</course>
  <speed>0.0</speed>
  <fix>3d</fix>
</trkpt>
<trkpt lat="-27.274439" lon="151.290064">
  <ele>384.82</ele>
  <time>2026-09-01T19:56:47Z</time>
  <course>10.68</course>
  <speed>0.0</speed>
  <fix>3d</fix>
</trkpt>
<trkpt lat="-27.274439" lon="151.290064">
  <ele>385.0</ele>
  <time>2026-09-01T19:56:47Z</time>
  <course>10.68</course>
  <speed>0.0</speed>
  <fix>3d</fix>
</trkpt>
<trkpt lat="-27.2744388" lon="151.2900641">
  <ele>383.99</ele>
  <time>2026-09-01T19:56:47Z</time>
  <course>352.25</course>
  <speed>0.0</speed>
  <fix>3d</fix>
</trkpt>
<trkpt lat="-27.274439" lon="151.290064">
  <ele>385.07</ele>
  <time>2026-09-01T19:56:47Z</time>
  <course>10.67</course>
  <speed>0.0</speed>
  <fix>3d</fix>
</trkpt>
<trkpt lat="-27.274439" lon="151.290064">
  <ele>385.25</ele>
  <time>2026-09-01T19:56:47Z</time>
  <course>10.67</course>
  <speed>0.0</speed>
  <fix>3d</fix>
</trkpt>
<trkpt lat="-27.2744388" lon="151.2900641">
  <ele>384.49</ele>
  <time>2026-09-01T19:56:47Z</time>
  <course>333.77</course>
  <speed>0.0</speed>
  <fix>3d</fix>
</trkpt>
<trkpt lat="-27.274439" lon="151.290064">
  <ele>385.32</ele>
  <time>2026-09-01T19:56:47Z</time>
  <course>10.67</course>
  <speed>0.0</speed>
  <fix>3d</fix>
</trkpt>
<trkpt lat="-27.274439" lon="151.290064">
  <ele>385.5</ele>
  <time>2026-09-01T19:56:47Z</time>
  <course>10.66</course>
  <speed>0.0</speed>
  <fix>3d</fix>
</trkpt>
<trkpt lat="-27.2744388" lon="151.2900641">
  <ele>384.49</ele>
  <time>2026-09-01T19:56:47Z</time>
  <course>333.77</course>
  <speed>0.0</speed>
  <fix>3d</fix>
</trkpt>
<trkpt lat="-27.274439" lon="151.290064">
  <ele>385.57</ele>
  <time>2026-09-01T19:56:47Z</time>
  <course>10.66</course>
  <speed>0.0</speed>
  <fix>3d</fix>
</trkpt>
<trkpt lat="-27.274439" lon="151.290064">
  <ele>385.74</ele>
  <time>2026-09-01T19:56:47Z</time>
  <course>10.66</course>
  <speed>0.0</speed>
  <fix>3d</fix>
</trkpt>
<trkpt lat="-27.2744388" lon="151.2900641">
  <ele>384.99</ele>
  <time>2026-09-01T19:56:47Z</time>
  <course>326.3</course>
  <speed>0.0</speed>
  <fix>3d</fix>
</trkpt>
<trkpt lat="-27.274439" lon="151.290064">
  <ele>385.8</ele>
  <time>2026-09-01T19:56:47Z</time>
  <course>10.66</course>
  <speed>0.0</speed>
  <fix>3d</fix>
</trkpt>
<trkpt lat="-27.274439" lon="151.290064">
  <ele>385.99</ele>
  <time>2026-09-01T19:56:47Z</time>
  <course>10.66</course>
  <speed>0.0</speed>
  <fix>3d</fix>
</trkpt>
<trkpt lat="-27.2744388" lon="151.2900641">
  <ele>384.99</ele>
  <time>2026-09-01T19:56:47Z</time>
  <course>326.3</course>
  <speed>0.0</speed>
  <fix>3d</fix>
</trkpt>
<trkpt lat="-27.274439" lon="151.290064">
  <ele>386.01</ele>
  <time>2026-09-01T19:56:47Z</time>
  <course>10.66</course>
  <speed>0.0</speed>
  <fix>3d</fix>
</trkpt>
<trkpt lat="-27.274439" lon="151.290064">
  <ele>386.24</ele>
  <time>2026-09-01T19:56:47Z</time>
  <course>10.65</course>
  <speed>0.0</speed>
  <fix>3d</fix>
</trkpt>
<trkpt lat="-27.2744388" lon="151.2900641">
  <ele>385.49</ele>
  <time>2026-09-01T19:56:47Z</time>
  <course>315.55</course>
  <speed>0.0</speed>
  <fix>3d</fix>
</trkpt>
<trkpt lat="-27.274439" lon="151.290064">
  <ele>386.29</ele>
  <time>2026-09-01T19:56:47Z</time>
  <course>10.65</course>
  <speed>0.0</speed>
  <fix>3d</fix>
</trkpt>
<trkpt lat="-27.2744389" lon="151.290064">
  <ele>386.48</ele>
  <time>2026-09-01T19:56:47Z</time>
  <course>10.65</course>
  <speed>0.0</speed>
  <fix>3d</fix>
</trkpt>
<trkpt lat="-27.2744388" lon="151.2900641">
  <ele>385.49</ele>
  <time>2026-09-01T19:56:47Z</time>
  <course>315.55</course>
  <speed>0.0</speed>
  <fix>3d</fix>
</trkpt>
<trkpt lat="-27.2744389" lon="151.290064">
  <ele>386.49</ele>
  <time>2026-09-01T19:56:47Z</time>
  <course>10.65</course>
  <speed>0.0</speed>
  <fix>3d</fix>
</trkpt>
<trkpt lat="-27.2744389" lon="151.290064">
  <ele>386.73</ele>
  <time>2026-09-01T19:56:47Z</time>
  <course>10.64</course>
  <speed>0.0</speed>
  <fix>3d</fix>
</trkpt>
<trkpt lat="-27.2744388" lon="151.2900641">
  <ele>385.99</ele>
  <time>2026-09-01T19:56:47Z</time>
  <course>299.06</course>
  <speed>0.0</speed>
  <fix>3d</fix>
</trkpt>
<trkpt lat="-27.2744389" lon="151.290064">
  <ele>386.74</ele>
  <time>2026-09-01T19:56:47Z</time>
  <course>10.64</course>
  <speed>0.0</speed>
  <fix>3d</fix>
</trkpt>
<trkpt lat="-27.2744389" lon="151.290064">
  <ele>386.99</ele>
  <time>2026-09-01T19:56:47Z</time>
  <course>10.62</course>
  <speed>0.0</speed>
  <fix>3d</fix>
</trkpt>
<trkpt lat="-27.2744388" lon="151.2900641">
  <ele>385.99</ele>
  <time>2026-09-01T19:56:47Z</time>
  <course>299.06</course>
  <speed>0.0</speed>
  <fix>3d</fix>
</trkpt>
<trkpt lat="-27.2744389" lon="151.290064">
  <ele>387.0</ele>
  <time>2026-09-01T19:56:47Z</time>
  <course>10.62</course>
  <speed>0.0</speed>
  <fix>3d</fix>
</trkpt>
<trkpt lat="-27.2744389" lon="151.290064">
  <ele>387.24</ele>
  <time>2026-09-01T19:56:47Z</time>
  <course>10.61</course>
  <speed>0.0</speed>
  <fix>3d</fix>
</trkpt>
<trkpt lat="-27.2744388" lon="151.2900641">
  <ele>386.49</ele>
  <time>2026-09-01T19:56:47Z</time>
  <course>284.79</course>
  <speed>0.0</speed>
  <fix>3d</fix>
</trkpt>
<trkpt lat="-27.2744389" lon="151.290064">
  <ele>387.31</ele>
  <time>2026-09-01T19:56:47Z</time>
  <course>10.6</course>
  <speed>0.0</speed>
  <fix>3d</fix>
</trkpt>
<trkpt lat="-27.2744389" lon="151.290064">
  <ele>387.49</ele>
  <time>2026-09-01T19:56:47Z</time>
  <course>10.59</course>
  <speed>0.0</speed>
  <fix>3d</fix>
</trkpt>
<trkpt lat="-27.2744388" lon="151.2900641">
  <ele>386.49</ele>
  <time>2026-09-01T19:56:47Z</time>
  <course>284.79</course>
  <speed>0.0</speed>
  <fix>3d</fix>
</trkpt>
<trkpt lat="-27.2744389" lon="151.290064">
  <ele>387.56</ele>
  <time>2026-09-01T19:56:47Z</time>
  <course>10.59</course>
  <speed>0.0</speed>
  <fix>3d</fix>
</trkpt>
<trkpt lat="-27.2744389" lon="151.290064">
  <ele>387.74</ele>
  <time>2026-09-01T19:56:47Z</time>
  <course>10.58</course>
  <speed>0.0</speed>
  <fix>3d</fix>
</trkpt>
<trkpt lat="-27.2744388" lon="151.2900641">
  <ele>386.99</ele>
  <time>2026-09-01T19:56:47Z</time>
  <course>281.31</course>
  <speed>0.0</speed>
  <fix>3d</fix>
</trkpt>
<trkpt lat="-27.2744389" lon="151.290064">
  <ele>387.81</ele>
  <time>2026-09-01T19:56:47Z</time>
  <course>10.58</course>
  <speed>0.0</speed>
  <fix>3d</fix>
</trkpt>
<trkpt lat="-27.2744389" lon="151.290064">
  <ele>387.99</ele>
  <time>2026-09-01T19:56:47Z</time>
  <course>10.58</course>
  <speed>0.0</speed>
  <fix>3d</fix>
</trkpt>
<trkpt lat="-27.2744388" lon="151.2900641">
  <ele>386.99</ele>
  <time>2026-09-01T19:56:47Z</time>
  <course>281.31</course>
  <speed>0.0</speed>
  <fix>3d</fix>
</trkpt>
<trkpt lat="-27.2744389" lon="151.290064">
  <ele>388.04</ele>
  <time>2026-09-01T19:56:47Z</time>
  <course>10.58</course>
  <speed>0.0</speed>
  <fix>3d</fix>
</trkpt>
<trkpt lat="-27.2744389" lon="151.290064">
  <ele>388.25</ele>
  <time>2026-09-01T19:56:47Z</time>
  <course>10.59</course>
  <speed>0.0</speed>
  <fix>3d</fix>
</trkpt>
<trkpt lat="-27.2744388" lon="151.2900641">
  <ele>387.49</ele>
  <time>2026-09-01T19:56:47Z</time>
  <course>288.35</course>
  <speed>0.0</speed>
  <fix>3d</fix>
</trkpt>
<trkpt lat="-27.2744389" lon="151.290064">
  <ele>388.28</ele>
  <time>2026-09-01T19:56:47Z</time>
  <course>10.59</course>
  <speed>0.0</speed>
  <fix>3d</fix>
</trkpt>
<trkpt lat="-27.2744389" lon="151.290064">
  <ele>388.5</ele>
  <time>2026-09-01T19:56:47Z</time>
  <course>10.6</course>
  <speed>0.0</speed>
  <fix>3d</fix>
</trkpt>
<trkpt lat="-27.2744388" lon="151.2900641">
  <ele>387.49</ele>
  <time>2026-09-01T19:56:47Z</time>
  <course>288.35</course>
  <speed>0.0</speed>
  <fix>3d</fix>
</trkpt>
<trkpt lat="-27.2744389" lon="151.290064">
  <ele>388.51</ele>
  <time>2026-09-01T19:56:47Z</time>
  <course>10.6</course>
  <speed>0.0</speed>
  <fix>3d</fix>
</trkpt>
<trkpt lat="-27.2744389" lon="151.290064">
  <ele>388.75</ele>
  <time>2026-09-01T19:56:47Z</time>
  <course>10.62</course>
  <speed>0.0</speed>
  <fix>3d</fix>
</trkpt>
<trkpt lat="-27.2744388" lon="151.2900641">
  <ele>387.99</ele>
  <time>2026-09-01T19:56:47Z</time>
  <course>292.88</course>
  <speed>0.0</speed>
  <fix>3d</fix>
</trkpt>
<trkpt lat="-27.2744389" lon="151.290064">
  <ele>388.82</ele>
  <time>2026-09-01T19:56:47Z</time>
  <course>10.62</course>
  <speed>0.0</speed>
  <fix>3d</fix>
</trkpt>
<trkpt lat="-27.2744389" lon="151.290064">
  <ele>389.0</ele>
  <time>2026-09-01T19:56:47Z</time>
  <course>10.63</course>
  <speed>0.0</speed>
  <fix>3d</fix>
</trkpt>
<trkpt lat="-27.2744388" lon="151.2900641">
  <ele>387.99</ele>
  <time>2026-09-01T19:56:47Z</time>
  <course>292.88</course>
  <speed>0.0</speed>
  <fix>3d</fix>
</trkpt>
<trkpt lat="-27.2744389" lon="151.290064">
  <ele>389.06</ele>
  <time>2026-09-01T19:56:47Z</time>
  <course>10.63</course>
  <speed>0.0</speed>
  <fix>3d</fix>
</trkpt>
<trkpt lat="-27.2744389" lon="151.290064">
  <ele>389.25</ele>
  <time>2026-09-01T19:56:47Z</time>
  <course>10.63</course>
  <speed>0.0</speed>
  <fix>3d</fix>
</trkpt>
<trkpt lat="-27.2744388" lon="151.2900641">
  <ele>388.5</ele>
  <time>2026-09-01T19:56:47Z</time>
  <course>288.73</course>
  <speed>0.0</speed>
  <fix>3d</fix>
</trkpt>
<trkpt lat="-27.2744389" lon="151.290064">
  <ele>389.25</ele>
  <time>2026-09-01T19:56:47Z</time>
  <course>10.63</course>
  <speed>0.0</speed>
  <fix>3d</fix>
</trkpt>
<trkpt lat="-27.2744389" lon="151.290064">
  <ele>389.5</ele>
  <time>2026-09-01T19:56:47Z</time>
  <course>10.62</course>
  <speed>0.0</speed>
  <fix>3d</fix>
</trkpt>
<trkpt lat="-27.2744388" lon="151.2900641">
  <ele>388.5</ele>
  <time>2026-09-01T19:56:47Z</time>
  <course>288.73</course>
  <speed>0.0</speed>
  <fix>3d</fix>
</trkpt>
<trkpt lat="-27.2744389" lon="151.290064">
  <ele>389.5</ele>
  <time>2026-09-01T19:56:47Z</time>
  <course>10.62</course>
  <speed>0.0</speed>
  <fix>3d</fix>
</trkpt>
<trkpt lat="-27.2744389" lon="151.290064">
  <ele>389.75</ele>
  <time>2026-09-01T19:56:47Z</time>
  <course>10.62</course>
  <speed>0.0</speed>
  <fix>3d</fix>
</trkpt>
<trkpt lat="-27.2744388" lon="151.2900641">
  <ele>389.0</ele>
  <time>2026-09-01T19:56:47Z</time>
  <course>283.05</course>
  <speed>0.0</speed>
  <fix>3d</fix>
</trkpt>
<trkpt lat="-27.2744389" lon="151.290064">
  <ele>389.82</ele>
  <time>2026-09-01T19:56:47Z</time>
  <course>10.62</course>
  <speed>0.0</speed>
  <fix>3d</fix>
</trkpt>
<trkpt lat="-27.2744389" lon="151.290064">
  <ele>390.0</ele>
  <time>2026-09-01T19:56:47Z</time>
  <course>10.62</course>
  <speed>0.0</speed>
  <fix>3d</fix>
</trkpt>
<trkpt lat="-27.2744388" lon="151.2900641">
  <ele>389.0</ele>
  <time>2026-09-01T19:56:47Z</time>
  <course>283.05</course>
  <speed>0.0</speed>
  <fix>3d</fix>
</trkpt>
<trkpt lat="-27.2744389" lon="151.290064">
  <ele>390.05</ele>
  <time>2026-09-01T19:56:47Z</time>
  <course>10.62</course>
  <speed>0.0</speed>
  <fix>3d</fix>
</trkpt>
<trkpt lat="-27.2744389" lon="151.290064">
  <ele>390.25</ele>
  <time>2026-09-01T19:56:47Z</time>
  <course>10.63</course>
  <speed>0.0</speed>
  <fix>3d</fix>
</trkpt>
<trkpt lat="-27.2744388" lon="151.2900641">
  <ele>389.5</ele>
  <time>2026-09-01T19:56:47Z</time>
  <course>277.83</course>
  <speed>0.0</speed>
  <fix>3d</fix>
</trkpt>
<trkpt lat="-27.2744389" lon="151.290064">
  <ele>390.3</ele>
  <time>2026-09-01T19:56:47Z</time>
  <course>10.63</course>
  <speed>0.0</speed>
  <fix>3d</fix>
</trkpt>
<trkpt lat="-27.2744389" lon="151.290064">
  <ele>390.5</ele>
  <time>2026-09-01T19:56:47Z</time>
  <course>10.63</course>
  <speed>0.0</speed>
  <fix>3d</fix>
</trkpt>
<trkpt lat="-27.2744388" lon="151.2900641">
  <ele>389.5</ele>
  <time>2026-09-01T19:56:47Z</time>
  <course>277.83</course>
  <speed>0.0</speed>
  <fix>3d</fix>
</trkpt>
<trkpt lat="-27.2744389" lon="151.290064">
  <ele>390.53</ele>
  <time>2026-09-01T19:56:47Z</time>
  <course>10.63</course>
  <speed>0.0</speed>
  <fix>3d</fix>
</trkpt>
<trkpt lat="-27.2744389" lon="151.290064">
  <ele>390.76</ele>
  <time>2026-09-01T19:56:47Z</time>
  <course>10.63</course>
  <speed>0.0</speed>
  <fix>3d</fix>
</trkpt>
<trkpt lat="-27.2744388" lon="151.2900641">
  <ele>390.0</ele>
  <time>2026-09-01T19:56:47Z</time>
  <course>274.23</course>
  <speed>0.0</speed>
  <fix>3d</fix>
</trkpt>
<trkpt lat="-27.2744389" lon="151.290064">
  <ele>390.77</ele>
  <time>2026-09-01T19:56:47Z</time>
  <course>10.63</course>
  <speed>0.0</speed>
  <fix>3d</fix>
</trkpt>
<trkpt lat="-27.2744389" lon="151.290064">
  <ele>391.01</ele>
  <time>2026-09-01T19:56:47Z</time>
  <course>10.63</course>
  <speed>0.0</speed>
  <fix>3d</fix>
</trkpt>
<trkpt lat="-27.2744388" lon="151.2900641">
  <ele>390.0</ele>
  <time>2026-09-01T19:56:47Z</time>
  <course>274.23</course>
  <speed>0.0</speed>
  <fix>3d</fix>
</trkpt>
<trkpt lat="-27.2744389" lon="151.290064">
  <ele>391.07</ele>
  <time>2026-09-01T19:56:47Z</time>
  <course>10.63</course>
  <speed>0.0</speed>
  <fix>3d</fix>
</trkpt>
<trkpt lat="-27.2744389" lon="151.290064">
  <ele>391.26</ele>
  <time>2026-09-01T19:56:47Z</time>
  <course>10.63</course>
  <speed>0.0</speed>
  <fix>3d</fix>
</trkpt>
<trkpt lat="-27.2744388" lon="151.2900641">
  <ele>390.51</ele>
  <time>2026-09-01T19:56:47Z</time>
  <course>275.27</course>
  <speed>0.0</speed>
  <fix>3d</fix>
</trkpt>
<trkpt lat="-27.2744389" lon="151.290064">
  <ele>391.33</ele>
  <time>2026-09-01T19:56:47Z</time>
  <course>10.63</course>
  <speed>0.0</speed>
  <fix>3d</fix>
</trkpt>
<trkpt lat="-27.2744389" lon="151.290064">
  <ele>391.52</ele>
  <time>2026-09-01T19:56:47Z</time>
  <course>10.62</course>
  <speed>0.0</speed>
  <fix>3d</fix>
</trkpt>
<trkpt lat="-27.2744388" lon="151.2900641">
  <ele>390.51</ele>
  <time>2026-09-01T19:56:47Z</time>
  <course>275.27</course>
  <speed>0.0</speed>
  <fix>3d</fix>
</trkpt>
<trkpt lat="-27.2744389" lon="151.290064">
  <ele>391.57</ele>
  <time>2026-09-01T19:56:47Z</time>
  <course>10.62</course>
  <speed>0.0</speed>
  <fix>3d</fix>
</trkpt>
<trkpt lat="-27.2744389" lon="151.290064">
  <ele>391.77</ele>
  <time>2026-09-01T19:56:47Z</time>
  <course>10.61</course>
  <speed>0.0</speed>
  <fix>3d</fix>
</trkpt>
<trkpt lat="-27.2744388" lon="151.2900641">
  <ele>391.01</ele>
  <time>2026-09-01T19:56:47Z</time>
  <course>275.77</course>
  <speed>0.0</speed>
  <fix>3d</fix>
</trkpt>
<trkpt lat="-27.2744389" lon="151.290064">
  <ele>391.84</ele>
  <time>2026-09-01T19:56:47Z</time>
  <course>10.61</course>
  <speed>0.0</speed>
  <fix>3d</fix>
</trkpt>
<trkpt lat="-27.2744389" lon="151.290064">
  <ele>392.01</ele>
  <time>2026-09-01T19:56:47Z</time>
  <course>10.6</course>
  <speed>0.0</speed>
  <fix>3d</fix>
</trkpt>
<trkpt lat="-27.2744388" lon="151.2900641">
  <ele>391.01</ele>
  <time>2026-09-01T19:56:47Z</time>
  <course>275.77</course>
  <speed>0.0</speed>
  <fix>3d</fix>
</trkpt>
<trkpt lat="-27.2744389" lon="151.290064">
  <ele>392.02</ele>
  <time>2026-09-01T19:56:47Z</time>
  <course>10.6</course>
  <speed>0.0</speed>
  <fix>3d</fix>
</trkpt>
<trkpt lat="-27.2744389" lon="151.290064">
  <ele>392.27</ele>
  <time>2026-09-01T19:56:47Z</time>
  <course>10.58</course>
  <speed>0.01</speed>
  <fix>3d</fix>
</trkpt>
<trkpt lat="-27.2744388" lon="151.2900641">
  <ele>391.51</ele>
  <time>2026-09-01T19:56:47Z</time>
  <course>272.86</course>
  <speed>0.01</speed>
  <fix>3d</fix>
</trkpt>
<trkpt lat="-27.2744389" lon="151.290064">
  <ele>392.27</ele>
  <time>2026-09-01T19:56:47Z</time>
  <course>10.58</course>
  <speed>0.01</speed>
  <fix>3d</fix>
</trkpt>
<trkpt lat="-27.2744389" lon="151.290064">
  <ele>392.51</ele>
  <time>2026-09-01T19:56:47Z</time>
  <course>10.56</course>
  <speed>0.01</speed>
  <fix>3d</fix>
</trkpt>
<trkpt lat="-27.2744388" lon="151.2900641">
  <ele>391.51</ele>
  <time>2026-09-01T19:56:47Z</time>
  <course>272.86</course>
  <speed>0.01</speed>
  <fix>3d</fix>
</trkpt>
<trkpt lat="-27.2744389" lon="151.290064">
  <ele>392.56</ele>
  <time>2026-09-01T19:56:47Z</time>
  <course>10.55</course>
  <speed>0.01</speed>
  <fix>3d</fix>
</trkpt>
<trkpt lat="-27.2744389" lon="151.290064">
  <ele>392.76</ele>
  <time>2026-09-01T19:56:47Z</time>
  <course>10.54</course>
  <speed>0.01</speed>
  <fix>3d</fix>
</trkpt>
<trkpt lat="-27.2744388" lon="151.290064">
  <ele>392.01</ele>
  <time>2026-09-01T19:56:47Z</time>
  <course>266.56</course>
  <speed>0.01</speed>
  <fix>3d</fix>
</trkpt>
<trkpt lat="-27.2744389" lon="151.290064">
  <ele>392.8</ele>
  <time>2026-09-01T19:56:47Z</time>
  <course>10.54</course>
  <speed>0.01</speed>
  <fix>3d</fix>
</trkpt>
<trkpt lat="-27.2744389" lon="151.290064">
  <ele>393.01</ele>
  <time>2026-09-01T19:56:47Z</time>
  <course>10.53</course>
  <speed>0.01</speed>
  <fix>3d</fix>
</trkpt>
<trkpt lat="-27.2744388" lon="151.290064">
  <ele>392.01</ele>
  <time>2026-09-01T19:56:47Z</time>
  <course>266.56</course>
  <speed>0.01</speed>
  <fix>3d</fix>
</trkpt>
<trkpt lat="-27.2744389" lon="151.290064">
  <ele>393.05</ele>
  <time>2026-09-01T19:56:47Z</time>
  <course>10.53</course>
  <speed>0.01</speed>
  <fix>3d</fix>
</trkpt>
<trkpt lat="-27.2744389" lon="151.290064">
  <ele>393.26</ele>
  <time>2026-09-01T19:56:47Z</time>
  <course>10.53</course>
  <speed>0.01</speed>
  <fix>3d</fix>
</trkpt>
<trkpt lat="-27.2744388" lon="151.290064">
  <ele>392.51</ele>
  <time>2026-09-01T19:56:47Z</time>
  <course>260.9</course>
  <speed>0.01</speed>
  <fix>3d</fix>
</trkpt>
<trkpt lat="-27.2744389" lon="151.290064">
  <ele>393.28</ele>
  <time>2026-09-01T19:56:47Z</time>
  <course>10.52</course>
  <speed>0.01</speed>
  <fix>3d</fix>
</trkpt>
<trkpt lat="-27.2744389" lon="151.290064">
  <ele>393.51</ele>
  <time>2026-09-01T19:56:47Z</time>
  <course>10.52</course>
  <speed>0.01</speed>
  <fix>3d</fix>
</trkpt>
<trkpt lat="-27.2744388" lon="151.290064">
  <ele>392.51</ele>
  <time>2026-09-01T19:56:47Z</time>
  <course>260.9</course>
  <speed>0.01</speed>
  <fix>3d</fix>
</trkpt>
<trkpt lat="-27.2744389" lon="151.290064">
  <ele>393.52</ele>
  <time>2026-09-01T19:56:47Z</time>
  <course>10.52</course>
  <speed>0.01</speed>
  <fix>3d</fix>
</trkpt>
<trkpt lat="-27.2744389" lon="151.290064">
  <ele>393.76</ele>
  <time>2026-09-01T19:56:47Z</time>
  <course>10.52</course>
  <speed>0.01</speed>
  <fix>3d</fix>
</trkpt>
<trkpt lat="-27.2744388" lon="151.290064">
  <ele>393.0</ele>
  <time>2026-09-01T19:56:47Z</time>
  <course>260.35</course>
  <speed>0.01</speed>
  <fix>3d</fix>
</trkpt>
<trkpt lat="-27.2744389" lon="151.290064">
  <ele>393.82</ele>
  <time>2026-09-01T19:56:47Z</time>
  <course>10.52</course>
  <speed>0.01</speed>
  <fix>3d</fix>
</trkpt>
<trkpt lat="-27.2744389" lon="151.290064">
  <ele>394.0</ele>
  <time>2026-09-01T19:56:47Z</time>
  <course>10.53</course>
  <speed>0.01</speed>
  <fix>3d</fix>
</trkpt>
<trkpt lat="-27.2744388" lon="151.290064">
  <ele>393.0</ele>
  <time>2026-09-01T19:56:47Z</time>
  <course>260.35</course>
  <speed>0.01</speed>
  <fix>3d</fix>
</trkpt>
<trkpt lat="-27.2744389" lon="151.290064">
  <ele>394.06</ele>
  <time>2026-09-01T19:56:47Z</time>
  <course>10.53</course>
  <speed>0.01</speed>
  <fix>3d</fix>
</trkpt>
<trkpt lat="-27.2744389" lon="151.290064">
  <ele>394.25</ele>
  <time>2026-09-01T19:56:47Z</time>
  <course>10.54</course>
  <speed>0.01</speed>
  <fix>3d</fix>
</trkpt>
<trkpt lat="-27.2744388" lon="151.290064">
  <ele>393.5</ele>
  <time>2026-09-01T19:56:47Z</time>
  <course>259.85</course>
  <speed>0.01</speed>
  <fix>3d</fix>
</trkpt>
<trkpt lat="-27.2744389" lon="151.290064">
  <ele>394.31</ele>
  <time>2026-09-01T19:56:47Z</time>
  <course>10.54</course>
  <speed>0.01</speed>
  <fix>3d</fix>
</trkpt>
<trkpt lat="-27.2744389" lon="151.290064">
  <ele>394.5</ele>
  <time>2026-09-01T19:56:47Z</time>
  <course>10.54</course>
  <speed>0.01</speed>
  <fix>3d</fix>
</trkpt>
<trkpt lat="-27.2744388" lon="151.290064">
  <ele>393.5</ele>
  <time>2026-09-01T19:56:47Z</time>
  <course>259.85</course>
  <speed>0.01</speed>
  <fix>3d</fix>
</trkpt>
<trkpt lat="-27.2744389" lon="151.290064">
  <ele>394.55</ele>
  <time>2026-09-01T19:56:47Z</time>
  <course>10.54</course>
  <speed>0.01</speed>
  <fix>3d</fix>
</trkpt>
<trkpt lat="-27.2744389" lon="151.290064">
  <ele>394.75</ele>
  <time>2026-09-01T19:56:47Z</time>
  <course>10.55</course>
  <speed>0.01</speed>
  <fix>3d</fix>
</trkpt>
<trkpt lat="-27.2744388" lon="151.290064">
  <ele>394.0</ele>
  <time>2026-09-01T19:56:47Z</time>
  <course>259.88</course>
  <speed>0.01</speed>
  <fix>3d</fix>
</trkpt>
<trkpt lat="-27.2744389" lon="151.290064">
  <ele>394.75</ele>
  <time>2026-09-01T19:56:47Z</time>
  <course>10.55</course>
  <speed>0.01</speed>
  <fix>3d</fix>
</trkpt>
<trkpt lat="-27.2744389" lon="151.290064">
  <ele>394.99</ele>
  <time>2026-09-01T19:56:47Z</time>
  <course>10.56</course>
  <speed>0.01</speed>
  <fix>3d</fix>
</trkpt>
<trkpt lat="-27.2744388" lon="151.290064">
  <ele>394.0</ele>
  <time>2026-09-01T19:56:47Z</time>
  <course>259.88</course>
  <speed>0.01</speed>
  <fix>3d</fix>
</trkpt>
<trkpt lat="-27.2744389" lon="151.290064">
  <ele>395.01</ele>
  <time>2026-09-01T19:56:47Z</time>
  <course>10.56</course>
  <speed>0.01</speed>
  <fix>3d</fix>
</trkpt>
<trkpt lat="-27.2744389" lon="151.290064">
  <ele>395.24</ele>
  <time>2026-09-01T19:56:47Z</time>
  <course>10.57</course>
  <speed>0.01</speed>
  <fix>3d</fix>
</trkpt>
<trkpt lat="-27.2744388" lon="151.2900639">
  <ele>394.5</ele>
  <time>2026-09-01T19:56:47Z</time>
  <course>263.84</course>
  <speed>0.01</speed>
  <fix>3d</fix>
</trkpt>
<trkpt lat="-27.2744389" lon="151.290064">
  <ele>395.28</ele>
  <time>2026-09-01T19:56:47Z</time>
  <course>10.57</course>
  <speed>0.01</speed>
  <fix>3d</fix>
</trkpt>
<trkpt lat="-27.2744389" lon="151.290064">
  <ele>395.49</ele>
  <time>2026-09-01T19:56:47Z</time>
  <course>10.56</course>
  <speed>0.01</speed>
  <fix>3d</fix>
</trkpt>
<trkpt lat="-27.2744388" lon="151.2900639">
  <ele>394.5</ele>
  <time>2026-09-01T19:56:47Z</time>
  <course>263.84</course>
  <speed>0.01</speed>
  <fix>3d</fix>
</trkpt>
<trkpt lat="-27.2744389" lon="151.290064">
  <ele>395.52</ele>
  <time>2026-09-01T19:56:47Z</time>
  <course>10.56</course>
  <speed>0.01</speed>
  <fix>3d</fix>
</trkpt>
<trkpt lat="-27.2744389" lon="151.290064">
  <ele>395.74</ele>
  <time>2026-09-01T19:56:47Z</time>
  <course>10.55</course>
  <speed>0.01</speed>
  <fix>3d</fix>
</trkpt>
<trkpt lat="-27.2744388" lon="151.2900639">
  <ele>395.0</ele>
  <time>2026-09-01T19:56:47Z</time>
  <course>269.67</course>
  <speed>0.01</speed>
  <fix>3d</fix>
</trkpt>
<trkpt lat="-27.2744389" lon="151.290064">
  <ele>395.77</ele>
  <time>2026-09-01T19:56:47Z</time>
  <course>10.55</course>
  <speed>0.01</speed>
  <fix>3d</fix>
</trkpt>
<trkpt lat="-27.2744389" lon="151.290064">
  <ele>395.99</ele>
  <time>2026-09-01T19:56:47Z</time>
  <course>10.54</course>
  <speed>0.01</speed>
  <fix>3d</fix>
</trkpt>
<trkpt lat="-27.2744388" lon="151.2900639">
  <ele>395.0</ele>
  <time>2026-09-01T19:56:47Z</time>
  <course>269.67</course>
  <speed>0.01</speed>
  <fix>3d</fix>
</trkpt>
<trkpt lat="-27.2744389" lon="151.290064">
  <ele>396.06</ele>
  <time>2026-09-01T19:56:47Z</time>
  <course>10.54</course>
  <speed>0.0</speed>
  <fix>3d</fix>
</trkpt>
<trkpt lat="-27.2744389" lon="151.290064">
  <ele>396.24</ele>
  <time>2026-09-01T19:56:47Z</time>
  <course>10.53</course>
  <speed>0.0</speed>
  <fix>3d</fix>
</trkpt>
<trkpt lat="-27.2744388" lon="151.2900639">
  <ele>395.5</ele>
  <time>2026-09-01T19:56:47Z</time>
  <course>274.41</course>
  <speed>0.01</speed>
  <fix>3d</fix>
</trkpt>
<trkpt lat="-27.2744389" lon="151.290064">
  <ele>396.31</ele>
  <time>2026-09-01T19:56:47Z</time>
  <course>10.53</course>
  <speed>0.0</speed>
  <fix>3d</fix>
</trkpt>
<trkpt lat="-27.2744389" lon="151.290064">
  <ele>396.5</ele>
  <time>2026-09-01T19:56:47Z</time>
  <course>10.52</course>
  <speed>0.0</speed>
  <fix>3d</fix>
</trkpt>
<trkpt lat="-27.2744388" lon="151.2900639">
  <ele>395.5</ele>
  <time>2026-09-01T19:56:47Z</time>
  <course>274.41</course>
  <speed>0.01</speed>
  <fix>3d</fix>
</trkpt>
<trkpt lat="-27.2744389" lon="151.290064">
  <ele>396.55</ele>
  <time>2026-09-01T19:56:47Z</time>
  <course>10.51</course>
  <speed>0.0</speed>
  <fix>3d</fix>
</trkpt>
<trkpt lat="-27.2744389" lon="151.290064">
  <ele>396.75</ele>
  <time>2026-09-01T19:56:47Z</time>
  <course>10.51</course>
  <speed>0.0</speed>
  <fix>3d</fix>
</trkpt>
<trkpt lat="-27.2744388" lon="151.2900639">
  <ele>396.0</ele>
  <time>2026-09-01T19:56:47Z</time>
  <course>277.89</course>
  <speed>0.01</speed>
  <fix>3d</fix>
</trkpt>
<trkpt lat="-27.2744389" lon="151.290064">
  <ele>396.82</ele>
  <time>2026-09-01T19:56:47Z</time>
  <course>10.51</course>
  <speed>0.0</speed>
  <fix>3d</fix>
</trkpt>
<trkpt lat="-27.2744389" lon="151.290064">
  <ele>397.0</ele>
  <time>2026-09-01T19:56:47Z</time>
  <course>10.51</course>
  <speed>0.0</speed>
  <fix>3d</fix>
</trkpt>
<trkpt lat="-27.2744388" lon="151.2900639">
  <ele>396.0</ele>
  <time>2026-09-01T19:56:47Z</time>
  <course>277.89</course>
  <speed>0.01</speed>
  <fix>3d</fix>
</trkpt>
<trkpt lat="-27.2744389" lon="151.290064">
  <ele>397.06</ele>
  <time>2026-09-01T19:56:47Z</time>
  <course>10.51</course>
  <speed>0.0</speed>
  <fix>3d</fix>
</trkpt>
<trkpt lat="-27.2744389" lon="151.290064">
  <ele>397.25</ele>
  <time>2026-09-01T19:56:47Z</time>
  <course>10.52</course>
  <speed>0.0</speed>
  <fix>3d</fix>
</trkpt>
<trkpt lat="-27.2744388" lon="151.2900638">
  <ele>396.51</ele>
  <time>2026-09-01T19:56:47Z</time>
  <course>281.04</course>
  <speed>0.01</speed>
  <fix>3d</fix>
</trkpt>
<trkpt lat="-27.2744389" lon="151.290064">
  <ele>397.26</ele>
  <time>2026-09-01T19:56:47Z</time>
  <course>10.52</course>
  <speed>0.0</speed>
  <fix>3d</fix>
</trkpt>
<trkpt lat="-27.2744389" lon="151.290064">
  <ele>397.5</ele>
  <time>2026-09-01T19:56:47Z</time>
  <course>10.52</course>
  <speed>0.0</speed>
  <fix>3d</fix>
</trkpt>
<trkpt lat="-27.2744388" lon="151.2900638">
  <ele>396.51</ele>
  <time>2026-09-01T19:56:47Z</time>
  <course>281.04</course>
  <speed>0.01</speed>
  <fix>3d</fix>
</trkpt>
<trkpt lat="-27.2744389" lon="151.290064">
  <ele>397.51</ele>
  <time>2026-09-01T19:56:47Z</time>
  <course>10.52</course>
  <speed>0.0</speed>
  <fix>3d</fix>
</trkpt>
<trkpt lat="-27.2744389" lon="151.2900639">
  <ele>397.75</ele>
  <time>2026-09-01T19:56:47Z</time>
  <course>10.52</course>
  <speed>0.0</speed>
  <fix>3d</fix>
</trkpt>
<trkpt lat="-27.2744388" lon="151.2900637">
  <ele>397.01</ele>
  <time>2026-09-01T19:56:47Z</time>
  <course>284.45</course>
  <speed>0.01</speed>
  <fix>3d</fix>
</trkpt>
<trkpt lat="-27.2744389" lon="151.2900639">
  <ele>397.76</ele>
  <time>2026-09-01T19:56:47Z</time>
  <course>10.53</course>
  <speed>0.0</speed>
  <fix>3d</fix>
</trkpt>
<trkpt lat="-27.2744389" lon="151.2900639">
  <ele>398.0</ele>
  <time>2026-09-01T19:56:47Z</time>
  <course>10.53</course>
  <speed>0.0</speed>
  <fix>3d</fix>
</trkpt>
<trkpt lat="-27.2744388" lon="151.2900637">
  <ele>397.01</ele>
  <time>2026-09-01T19:56:47Z</time>
  <course>284.45</course>
  <speed>0.01</speed>
  <fix>3d</fix>
</trkpt>
<trkpt lat="-27.2744389" lon="151.2900639">
  <ele>398.05</ele>
  <time>2026-09-01T19:56:47Z</time>
  <course>10.53</course>
  <speed>0.0</speed>
  <fix>3d</fix>
</trkpt>
<trkpt lat="-27.2744389" lon="151.2900639">
  <ele>398.24</ele>
  <time>2026-09-01T19:56:47Z</time>
  <course>10.53</course>
  <speed>0.0</speed>
  <fix>3d</fix>
</trkpt>
<trkpt lat="-27.2744388" lon="151.2900637">
  <ele>397.51</ele>
  <time>2026-09-01T19:56:47Z</time>
  <course>290.22</course>
  <speed>0.01</speed>
  <fix>3d</fix>
</trkpt>
<trkpt lat="-27.2744389" lon="151.2900639">
  <ele>398.3</ele>
  <time>2026-09-01T19:56:47Z</time>
  <course>10.53</course>
  <speed>0.0</speed>
  <fix>3d</fix>
</trkpt>
<trkpt lat="-27.2744389" lon="151.2900639">
  <ele>398.49</ele>
  <time>2026-09-01T19:56:47Z</time>
  <course>10.54</course>
  <speed>0.0</speed>
  <fix>3d</fix>
</trkpt>
<trkpt lat="-27.2744388" lon="151.2900637">
  <ele>397.51</ele>
  <time>2026-09-01T19:56:47Z</time>
  <course>290.22</course>
  <speed>0.01</speed>
  <fix>3d</fix>
</trkpt>
<trkpt lat="-27.2744389" lon="151.2900639">
  <ele>398.54</ele>
  <time>2026-09-01T19:56:47Z</time>
  <course>10.54</course>
  <speed>0.0</speed>
  <fix>3d</fix>
</trkpt>
<trkpt lat="-27.2744389" lon="151.2900639">
  <ele>398.74</ele>
  <time>2026-09-01T19:56:47Z</time>
  <course>10.55</course>
  <speed>0.0</speed>
  <fix>3d</fix>
</trkpt>
<trkpt lat="-27.2744388" lon="151.2900637">
  <ele>398.01</ele>
  <time>2026-09-01T19:56:47Z</time>
  <course>296.21</course>
  <speed>0.01</speed>
  <fix>3d</fix>
</trkpt>
<trkpt lat="-27.2744389" lon="151.2900639">
  <ele>398.78</ele>
  <time>2026-09-01T19:56:47Z</time>
  <course>10.55</course>
  <speed>0.0</speed>
  <fix>3d</fix>
</trkpt>
<trkpt lat="-27.2744389" lon="151.2900639">
  <ele>398.99</ele>
  <time>2026-09-01T19:56:47Z</time>
  <course>10.56</course>
  <speed>0.0</speed>
  <fix>3d</fix>
</trkpt>
<trkpt lat="-27.2744388" lon="151.2900637">
  <ele>398.01</ele>
  <time>2026-09-01T19:56:47Z</time>
  <course>296.21</course>
  <speed>0.01</speed>
  <fix>3d</fix>
</trkpt>
<trkpt lat="-27.2744389" lon="151.2900639">
  <ele>399.02</ele>
  <time>2026-09-01T19:56:47Z</time>
  <course>10.56</course>
  <speed>0.0</speed>
  <fix>3d</fix>
</trkpt>
<trkpt lat="-27.2744389" lon="151.2900639">
  <ele>399.25</ele>
  <time>2026-09-01T19:56:47Z</time>
  <course>10.59</course>
  <speed>0.0</speed>
  <fix>3d</fix>
</trkpt>
<trkpt lat="-27.2744388" lon="151.2900637">
  <ele>398.52</ele>
  <time>2026-09-01T19:56:47Z</time>
  <course>299.8</course>
  <speed>0.0</speed>
  <fix>3d</fix>
</trkpt>
<trkpt lat="-27.2744389" lon="151.2900639">
  <ele>399.3</ele>
  <time>2026-09-01T19:56:47Z</time>
  <course>10.59</course>
  <speed>0.0</speed>
  <fix>3d</fix>
</trkpt>
<trkpt lat="-27.2744389" lon="151.2900639">
  <ele>399.5</ele>
  <time>2026-09-01T19:56:47Z</time>
  <course>10.61</course>
  <speed>0.0</speed>
  <fix>3d</fix>
</trkpt>
<trkpt lat="-27.2744388" lon="151.2900637">
  <ele>398.52</ele>
  <time>2026-09-01T19:56:47Z</time>
  <course>299.8</course>
  <speed>0.0</speed>
  <fix>3d</fix>
</trkpt>
<trkpt lat="-27.2744389" lon="151.2900639">
  <ele>399.55</ele>
  <time>2026-09-01T19:56:47Z</time>
  <course>10.61</course>
  <speed>0.0</speed>
  <fix>3d</fix>
</trkpt>
<trkpt lat="-27.2744389" lon="151.2900639">
  <ele>399.75</ele>
  <time>2026-09-01T19:56:47Z</time>
  <course>10.63</course>
  <speed>0.0</speed>
  <fix>3d</fix>
</trkpt>
<trkpt lat="-27.2744388" lon="151.2900637">
  <ele>399.02</ele>
  <time>2026-09-01T19:56:47Z</time>
  <course>301.97</course>
  <speed>0.0</speed>
  <fix>3d</fix>
</trkpt>
<trkpt lat="-27.2744389" lon="151.2900639">
  <ele>399.8</ele>
  <time>2026-09-01T19:56:47Z</time>
  <course>10.63</course>
  <speed>0.0</speed>
  <fix>3d</fix>
</trkpt>
<trkpt lat="-27.2744389" lon="151.2900639">
  <ele>400.0</ele>
  <time>2026-09-01T19:56:47Z</time>
  <course>10.63</course>
  <speed>0.0</speed>
  <fix>3d</fix>
</trkpt>
<trkpt lat="-27.2744388" lon="151.2900637">
  <ele>399.02</ele>
  <time>2026-09-01T19:56:47Z</time>
  <course>301.97</course>
  <speed>0.0</speed>
  <fix>3d</fix>
</trkpt>
<trkpt lat="-27.2744389" lon="151.2900638">
  <ele>400.04</ele>
  <time>2026-09-01T19:56:47Z</time>
  <course>10.63</course>
  <speed>0.0</speed>
  <fix>3d</fix>
</trkpt>
<trkpt lat="-27.2744389" lon="151.2900638">
  <ele>400.25</ele>
  <time>2026-09-01T19:56:47Z</time>
  <course>10.64</course>
  <speed>0.0</speed>
  <fix>3d</fix>
</trkpt>
<trkpt lat="-27.2744388" lon="151.2900637">
  <ele>399.52</ele>
  <time>2026-09-01T19:56:47Z</time>
  <course>305.72</course>
  <speed>0.0</speed>
  <fix>3d</fix>
</trkpt>
<trkpt lat="-27.2744389" lon="151.2900638">
  <ele>400.27</ele>
  <time>2026-09-01T19:56:47Z</time>
  <course>10.64</course>
  <speed>0.0</speed>
  <fix>3d</fix>
</trkpt>
<trkpt lat="-27.2744389" lon="151.2900638">
  <ele>400.5</ele>
  <time>2026-09-01T19:56:47Z</time>
  <course>10.64</course>
  <speed>0.0</speed>
  <fix>3d</fix>
</trkpt>
<trkpt lat="-27.2744388" lon="151.2900637">
  <ele>399.52</ele>
  <time>2026-09-01T19:56:47Z</time>
  <course>305.72</course>
  <speed>0.0</speed>
  <fix>3d</fix>
</trkpt>
<trkpt lat="-27.2744389" lon="151.2900638">
  <ele>400.52</ele>
  <time>2026-09-01T19:56:47Z</time>
  <course>10.64</course>
  <speed>0.0</speed>
  <fix>3d</fix>
</trkpt>
<trkpt lat="-27.2744389" lon="151.2900638">
  <ele>400.76</ele>
  <time>2026-09-01T19:56:47Z</time>
  <course>10.64</course>
  <speed>0.0</speed>
  <fix>3d</fix>
</trkpt>
<trkpt lat="-27.2744387" lon="151.2900637">
  <ele>400.02</ele>
  <time>2026-09-01T19:56:47Z</time>
  <course>306.81</course>
  <speed>0.0</speed>
  <fix>3d</fix>
</trkpt>
<trkpt lat="-27.2744389" lon="151.2900638">
  <ele>400.81</ele>
  <time>2026-09-01T19:56:47Z</time>
  <course>10.64</course>
  <speed>0.0</speed>
  <fix>3d</fix>
</trkpt>
<trkpt lat="-27.2744389" lon="151.2900638">
  <ele>401.01</ele>
  <time>2026-09-01T19:56:47Z</time>
  <course>10.64</course>
  <speed>0.0</speed>
  <fix>3d</fix>
</trkpt>
<trkpt lat="-27.2744387" lon="151.2900637">
  <ele>400.02</ele>
  <time>2026-09-01T19:56:47Z</time>
  <course>306.81</course>
  <speed>0.0</speed>
  <fix>3d</fix>
</trkpt>
<trkpt lat="-27.2744389" lon="151.2900638">
  <ele>401.07</ele>
  <time>2026-09-01T19:56:47Z</time>
  <course>10.64</course>
  <speed>0.0</speed>
  <fix>3d</fix>
</trkpt>
<trkpt lat="-27.2744389" lon="151.2900638">
  <ele>401.26</ele>
  <time>2026-09-01T19:56:47Z</time>
  <course>10.63</course>
  <speed>0.0</speed>
  <fix>3d</fix>
</trkpt>
<trkpt lat="-27.2744387" lon="151.2900637">
  <ele>400.53</ele>
  <time>2026-09-01T19:56:47Z</time>
  <course>307.37</course>
  <speed>0.0</speed>
  <fix>3d</fix>
</trkpt>
<trkpt lat="-27.2744389" lon="151.2900638">
  <ele>401.31</ele>
  <time>2026-09-01T19:56:47Z</time>
  <course>10.63</course>
  <speed>0.0</speed>
  <fix>3d</fix>
</trkpt>
<trkpt lat="-27.2744389" lon="151.2900638">
  <ele>401.5</ele>
  <time>2026-09-01T19:56:47Z</time>
  <course>10.63</course>
  <speed>0.0</speed>
  <fix>3d</fix>
</trkpt>
<trkpt lat="-27.2744387" lon="151.2900637">
  <ele>400.53</ele>
  <time>2026-09-01T19:56:47Z</time>
  <course>307.37</course>
  <speed>0.0</speed>
  <fix>3d</fix>
</trkpt>
<trkpt lat="-27.2744389" lon="151.2900638">
  <ele>401.51</ele>
  <time>2026-09-01T19:56:47Z</time>
  <course>10.63</course>
  <speed>0.0</speed>
  <fix>3d</fix>
</trkpt>
<trkpt lat="-27.2744389" lon="151.2900638">
  <ele>401.74</ele>
  <time>2026-09-01T19:56:47Z</time>
  <course>10.63</course>
  <speed>0.0</speed>
  <fix>3d</fix>
</trkpt>
<trkpt lat="-27.2744387" lon="151.2900637">
  <ele>401.02</ele>
  <time>2026-09-01T19:56:47Z</time>
  <course>315.52</course>
  <speed>0.0</speed>
  <fix>3d</fix>
</trkpt>
<trkpt lat="-27.2744389" lon="151.2900638">
  <ele>401.75</ele>
  <time>2026-09-01T19:56:47Z</time>
  <course>10.63</course>
  <speed>0.0</speed>
  <fix>3d</fix>
</trkpt>
<trkpt lat="-27.2744389" lon="151.2900638">
  <ele>401.97</ele>
  <time>2026-09-01T19:56:47Z</time>
  <course>10.63</course>
  <speed>0.01</speed>
  <fix>3d</fix>
</trkpt>
<trkpt lat="-27.2744387" lon="151.2900637">
  <ele>401.02</ele>
  <time>2026-09-01T19:56:47Z</time>
  <course>315.52</course>
  <speed>0.0</speed>
  <fix>3d</fix>
</trkpt>
<trkpt lat="-27.2744389" lon="151.2900638">
  <ele>402.04</ele>
  <time>2026-09-01T19:56:47Z</time>
  <course>10.63</course>
  <speed>0.01</speed>
  <fix>3d</fix>
</trkpt>
<trkpt lat="-27.2744389" lon="151.2900638">
  <ele>402.18</ele>
  <time>2026-09-01T19:56:47Z</time>
  <course>10.64</course>
  <speed>0.01</speed>
  <fix>3d</fix>
</trkpt>
<trkpt lat="-27.2744387" lon="151.2900637">
  <ele>401.5</ele>
  <time>2026-09-01T19:56:47Z</time>
  <course>312.31</course>
  <speed>0.0</speed>
  <fix>3d</fix>
</trkpt>
<trkpt lat="-27.2744389" lon="151.2900638">
  <ele>402.24</ele>
  <time>2026-09-01T19:56:47Z</time>
  <course>10.64</course>
  <speed>0.01</speed>
  <fix>3d</fix>
</trkpt>
<trkpt lat="-27.2744389" lon="151.2900638">
  <ele>402.39</ele>
  <time>2026-09-01T19:56:47Z</time>
  <course>10.64</course>
  <speed>0.02</speed>
  <fix>3d</fix>
</trkpt>
<trkpt lat="-27.2744387" lon="151.2900637">
  <ele>401.5</ele>
  <time>2026-09-01T19:56:47Z</time>
  <course>312.31</course>
  <speed>0.0</speed>
  <fix>3d</fix>
</trkpt>
<trkpt lat="-27.2744389" lon="151.2900638">
  <ele>402.57</ele>
  <time>2026-09-01T19:56:47Z</time>
  <course>10.65</course>
  <speed>0.03</speed>
  <fix>3d</fix>
</trkpt>
<trkpt lat="-27.2744387" lon="151.2900637">
  <ele>401.95</ele>
  <time>2026-09-01T19:56:47Z</time>
  <course>238.89</course>
  <speed>0.0</speed>
  <fix>3d</fix>
</trkpt>
<trkpt lat="-27.2744389" lon="151.2900638">
  <ele>402.58</ele>
  <time>2026-09-01T19:56:47Z</time>
  <course>10.65</course>
  <speed>0.03</speed>
  <fix>3d</fix>
</trkpt>
<trkpt lat="-27.2744389" lon="151.2900638">
  <ele>402.73</ele>
  <time>2026-09-01T19:56:47Z</time>
  <course>10.65</course>
  <speed>0.04</speed>
  <fix>3d</fix>
</trkpt>
<trkpt lat="-27.2744387" lon="151.2900637">
  <ele>401.95</ele>
  <time>2026-09-01T19:56:47Z</time>
  <course>238.89</course>
  <speed>0.0</speed>
  <fix>3d</fix>
</trkpt>
<trkpt lat="-27.2744389" lon="151.2900638">
  <ele>402.88</ele>
  <time>2026-09-01T19:56:47Z</time>
  <course>10.65</course>
  <speed>0.06</speed>
  <fix>3d</fix>
</trkpt>
<trkpt lat="-27.2744387" lon="151.2900636">
  <ele>402.34</ele>
  <time>2026-09-01T19:56:47Z</time>
  <course>199.85</course>
  <speed>0.02</speed>
  <fix>3d</fix>
</trkpt>
<trkpt lat="-27.2744389" lon="151.2900638">
  <ele>403.0</ele>
  <time>2026-09-01T19:56:47Z</time>
  <course>10.62</course>
  <speed>0.08</speed>
  <fix>3d</fix>
</trkpt>
<trkpt lat="-27.2744387" lon="151.2900636">
  <ele>402.34</ele>
  <time>2026-09-01T19:56:47Z</time>
  <course>199.85</course>
  <speed>0.02</speed>
  <fix>3d</fix>
</trkpt>
<trkpt lat="-27.274439" lon="151.2900638">
  <ele>403.09</ele>
  <time>2026-09-01T19:56:47Z</time>
  <course>10.58</course>
  <speed>0.1</speed>
  <fix>3d</fix>
</trkpt>
<trkpt lat="-27.2744387" lon="151.2900636">
  <ele>402.65</ele>
  <time>2026-09-01T19:56:47Z</time>
  <course>191.62</course>
  <speed>0.05</speed>
  <fix>3d</fix>
</trkpt>
<trkpt lat="-27.2744391" lon="151.2900637">
  <ele>403.15</ele>
  <time>2026-09-01T19:56:47Z</time>
  <course>10.55</course>
  <speed>0.13</speed>
  <fix>3d</fix>
</trkpt>
<trkpt lat="-27.2744387" lon="151.2900636">
  <ele>402.65</ele>
  <time>2026-09-01T19:56:47Z</time>
  <course>191.62</course>
  <speed>0.05</speed>
  <fix>3d</fix>
</trkpt>
<trkpt lat="-27.2744392" lon="151.2900637">
  <ele>403.19</ele>
  <time>2026-09-01T19:56:47Z</time>
  <course>10.53</course>
  <speed>0.15033296378372907</speed>
  <fix>3d</fix>
</trkpt>
<trkpt lat="-27.2744388" lon="151.2900636">
  <ele>402.87</ele>
  <time>2026-09-01T19:56:47Z</time>
  <course>189.2</course>
  <speed>0.09</speed>
  <fix>3d</fix>
</trkpt>
<trkpt lat="-27.2744393" lon="151.2900637">
  <ele>403.19</ele>
  <time>2026-09-01T19:56:47Z</time>
  <course>10.51</course>
  <speed>0.17029386365926402</speed>
  <fix>3d</fix>
</trkpt>
<trkpt lat="-27.2744388" lon="151.2900636">
  <ele>402.87</ele>
  <time>2026-09-01T19:56:47Z</time>
  <course>189.2</course>
  <speed>0.09</speed>
  <fix>3d</fix>
</trkpt>
<trkpt lat="-27.2744394" lon="151.2900637">
  <ele>403.15</ele>
  <time>2026-09-01T19:56:47Z</time>
  <course>10.51</course>
  <speed>0.19026297590440447</speed>
  <fix>3d</fix>
</trkpt>
<trkpt lat="-27.274439" lon="151.2900636">
  <ele>402.97</ele>
  <time>2026-09-01T19:56:47Z</time>
  <course>188.78</course>
  <speed>0.13</speed>
  <fix>3d</fix>
</trkpt>
<trkpt lat="-27.2744396" lon="151.2900636">
  <ele>403.09</ele>
  <time>2026-09-01T19:56:47Z</time>
  <course>10.5</course>
  <speed>0.2002498439450079</speed>
  <fix>3d</fix>
</trkpt>
<trkpt lat="-27.274439" lon="151.2900636">
  <ele>402.97</ele>
  <time>2026-09-01T19:56:47Z</time>
  <course>188.78</course>
  <speed>0.13</speed>
  <fix>3d</fix>
</trkpt>
<trkpt lat="-27.2744398" lon="151.2900636">
  <ele>403.0</ele>
  <time>2026-09-01T19:56:47Z</time>
  <course>10.5</course>
  <speed>0.2109502310972899</speed>
  <fix>3d</fix>
</trkpt>
<trkpt lat="-27.2744393" lon="151.2900635">
  <ele>402.94</ele>
  <time>2026-09-01T19:56:47Z</time>
  <course>188.37</course>
  <speed>0.17</speed>
  <fix>3d</fix>
</trkpt>
<trkpt lat="-27.27444" lon="151.2900636">
  <ele>402.88</ele>
  <time>2026-09-01T19:56:47Z</time>
  <course>10.5</course>
  <speed>0.22090722034374521</speed>
  <fix>3d</fix>
</trkpt>
<trkpt lat="-27.2744393" lon="151.2900635">
  <ele>402.94</ele>
  <time>2026-09-01T19:56:47Z</time>
  <course>188.37</course>
  <speed>0.17</speed>
  <fix>3d</fix>
</trkpt>
<trkpt lat="-27.2744401" lon="151.2900635">
  <ele>402.75</ele>
  <time>2026-09-01T19:56:47Z</time>
  <course>10.5</course>
  <speed>0.22090722034374521</speed>
  <fix>3d</fix>
</trkpt>
<trkpt lat="-27.2744397" lon="151.2900634">
  <ele>402.79</ele>
  <time>2026-09-01T19:56:47Z</time>
  <course>187.92</course>
  <speed>0.2</speed>
  <fix>3d</fix>
</trkpt>
<trkpt lat="-27.2744403" lon="151.2900635">
  <ele>402.6</ele>
  <time>2026-09-01T19:56:47Z</time>
  <course>10.49</course>
  <speed>0.22022715545545238</speed>
  <fix>3d</fix>
</trkpt>
<trkpt lat="-27.2744397" lon="151.2900634">
  <ele>402.79</ele>
  <time>2026-09-01T19:56:47Z</time>
  <course>187.92</course>
  <speed>0.2</speed>
  <fix>3d</fix>
</trkpt>
<trkpt lat="-27.2744405" lon="151.2900635">
  <ele>402.44</ele>
  <time>2026-09-01T19:56:47Z</time>
  <course>10.49</course>
  <speed>0.2102379604162864</speed>
  <fix>3d</fix>
</trkpt>
<trkpt lat="-27.27444" lon="151.2900633">
  <ele>402.55</ele>
  <time>2026-09-01T19:56:47Z</time>
  <course>187.6</course>
  <speed>0.2</speed>
  <fix>3d</fix>
</trkpt>
<trkpt lat="-27.2744407" lon="151.2900635">
  <ele>402.27</ele>
  <time>2026-09-01T19:56:47Z</time>
  <course>10.48</course>
  <speed>0.2102379604162864</speed>
  <fix>3d</fix>
</trkpt>
<trkpt lat="-27.27444" lon="151.2900633">
  <ele>402.55</ele>
  <time>2026-09-01T19:56:47Z</time>
  <course>187.6</course>
  <speed>0.2</speed>
  <fix>3d</fix>
</trkpt>
<trkpt lat="-27.2744408" lon="151.2900634">
  <ele>402.1</ele>
  <time>2026-09-01T19:56:47Z</time>
  <course>10.47</course>
  <speed>0.2002498439450079</speed>
  <fix>3d</fix>
</trkpt>
<trkpt lat="-27.2744403" lon="151.2900633">
  <ele>402.24</ele>
  <time>2026-09-01T19:56:47Z</time>
  <course>187.34</course>
  <speed>0.2</speed>
  <fix>3d</fix>
</trkpt>
<trkpt lat="-27.274441" lon="151.2900634">
  <ele>401.93</ele>
  <time>2026-09-01T19:56:47Z</time>
  <course>10.46</course>
  <speed>0.19026297590440447</speed>
  <fix>3d</fix>
</trkpt>
<trkpt lat="-27.2744403" lon="151.2900633">
  <ele>402.24</ele>
  <time>2026-09-01T19:56:47Z</time>
  <course>187.34</course>
  <speed>0.2</speed>
  <fix>3d</fix>
</trkpt>
<trkpt lat="-27.2744412" lon="151.2900634">
  <ele>401.76</ele>
  <time>2026-09-01T19:56:47Z</time>
  <course>10.45</course>
  <speed>0.19026297590440447</speed>
  <fix>3d</fix>
</trkpt>
<trkpt lat="-27.2744407" lon="151.2900632">
  <ele>401.9</ele>
  <time>2026-09-01T19:56:47Z</time>
  <course>187.08</course>
  <speed>0.19</speed>
  <fix>3d</fix>
</trkpt>
<trkpt lat="-27.2744413" lon="151.2900633">
  <ele>401.59</ele>
  <time>2026-09-01T19:56:47Z</time>
  <course>10.44</course>
  <speed>0.18027756377319945</speed>
  <fix>3d</fix>
</trkpt>
<trkpt lat="-27.2744407" lon="151.2900632">
  <ele>401.9</ele>
  <time>2026-09-01T19:56:47Z</time>
  <course>187.08</course>
  <speed>0.19</speed>
  <fix>3d</fix>
</trkpt>
<trkpt lat="-27.2744415" lon="151.2900633">
  <ele>401.42</ele>
  <time>2026-09-01T19:56:47Z</time>
  <course>10.43</course>
  <speed>0.18027756377319945</speed>
  <fix>3d</fix>
</trkpt>
<trkpt lat="-27.2744411" lon="151.2900632">
  <ele>401.57</ele>
  <time>2026-09-01T19:56:47Z</time>
  <course>186.84</course>
  <speed>0.18</speed>
  <fix>3d</fix>
</trkpt>
<trkpt lat="-27.2744416" lon="151.2900633">
  <ele>401.25</ele>
  <time>2026-09-01T19:56:47Z</time>
  <course>10.43</course>
  <speed>0.17029386365926402</speed>
  <fix>3d</fix>
</trkpt>
<trkpt lat="-27.2744411" lon="151.2900632">
  <ele>401.57</ele>
  <time>2026-09-01T19:56:47Z</time>
  <course>186.84</course>
  <speed>0.18</speed>
  <fix>3d</fix>
</trkpt>
<trkpt lat="-27.2744417" lon="151.2900633">
  <ele>401.09</ele>
  <time>2026-09-01T19:56:47Z</time>
  <course>10.42</course>
  <speed>0.17</speed>
  <fix>3d</fix>
</trkpt>
<trkpt lat="-27.2744414" lon="151.2900632">
  <ele>401.24</ele>
  <time>2026-09-01T19:56:47Z</time>
  <course>186.75</course>
  <speed>0.17</speed>
  <fix>3d</fix>
</trkpt>
<trkpt lat="-27.2744419" lon="151.2900633">
  <ele>400.94</ele>
  <time>2026-09-01T19:56:48Z</time>
  <course>10.42</course>
  <speed>0.16</speed>
  <fix>3d</fix>
</trkpt>
<trkpt lat="-27.2744414" lon="151.2900632">
  <ele>401.24</ele>
  <time>2026-09-01T19:56:48Z</time>
  <course>186.75</course>
  <speed>0.17</speed>
  <fix>3d</fix>
</trkpt>
<trkpt lat="-27.274442" lon="151.2900632">
  <ele>400.79</ele>
  <time>2026-09-01T19:56:48Z</time>
  <course>10.42</course>
  <speed>0.16</speed>
  <fix>3d</fix>
</trkpt>
<trkpt lat="-27.2744417" lon="151.2900632">
  <ele>400.92</ele>
  <time>2026-09-01T19:56:48Z</time>
  <course>186.7</course>
  <speed>0.16</speed>
  <fix>3d</fix>
</trkpt>
<trkpt lat="-27.2744422" lon="151.2900632">
  <ele>400.64</ele>
  <time>2026-09-01T19:56:48Z</time>
  <course>10.4</course>
  <speed>0.15</speed>
  <fix>3d</fix>
</trkpt>
<trkpt lat="-27.2744417" lon="151.2900632">
  <ele>400.92</ele>
  <time>2026-09-01T19:56:48Z</time>
  <course>186.7</course>
  <speed>0.16</speed>
  <fix>3d</fix>
</trkpt>
<trkpt lat="-27.2744423" lon="151.2900632">
  <ele>400.5</ele>
  <time>2026-09-01T19:56:48Z</time>
  <course>10.39</course>
  <speed>0.15</speed>
  <fix>3d</fix>
</trkpt>
<trkpt lat="-27.274442" lon="151.2900631">
  <ele>400.62</ele>
  <time>2026-09-01T19:56:48Z</time>
  <course>186.44</course>
  <speed>0.15</speed>
  <fix>3d</fix>
</trkpt>
<trkpt lat="-27.2744424" lon="151.2900632">
  <ele>400.36</ele>
  <time>2026-09-01T19:56:48Z</time>
  <course>10.37</course>
  <speed>0.14</speed>
  <fix>3d</fix>
</trkpt>
<trkpt lat="-27.274442" lon="151.2900631">
  <ele>400.62</ele>
  <time>2026-09-01T19:56:48Z</time>
  <course>186.44</course>
  <speed>0.15</speed>
  <fix>3d</fix>
</trkpt>
<trkpt lat="-27.2744425" lon="151.2900632">
  <ele>400.22</ele>
  <time>2026-09-01T19:56:48Z</time>
  <course>10.35</course>
  <speed>0.14</speed>
  <fix>3d</fix>
</trkpt>
<trkpt lat="-27.2744422" lon="151.2900631">
  <ele>400.34</ele>
  <time>2026-09-01T19:56:48Z</time>
  <course>186.18</course>
  <speed>0.14</speed>
  <fix>3d</fix>
</trkpt>
<trkpt lat="-27.2744426" lon="151.2900632">
  <ele>400.08</ele>
  <time>2026-09-01T19:56:48Z</time>
  <course>10.33</course>
  <speed>0.13</speed>
  <fix>3d</fix>
</trkpt>
<trkpt lat="-27.2744422" lon="151.2900631">
  <ele>400.34</ele>
  <time>2026-09-01T19:56:48Z</time>
  <course>186.18</course>
  <speed>0.14</speed>
  <fix>3d</fix>
</trkpt>
<trkpt lat="-27.2744427" lon="151.2900632">
  <ele>399.94</ele>
  <time>2026-09-01T19:56:48Z</time>
  <course>10.3</course>
  <speed>0.12</speed>
  <fix>3d</fix>
</trkpt>
<trkpt lat="-27.2744425" lon="151.2900631">
  <ele>400.06</ele>
  <time>2026-09-01T19:56:48Z</time>
  <course>185.87</course>
  <speed>0.13</speed>
  <fix>3d</fix>
</trkpt>
<trkpt lat="-27.2744428" lon="151.2900632">
  <ele>399.81</ele>
  <time>2026-09-01T19:56:48Z</time>
  <course>10.28</course>
  <speed>0.12</speed>
  <fix>3d</fix>
</trkpt>
<trkpt lat="-27.2744425" lon="151.2900631">
  <ele>400.06</ele>
  <time>2026-09-01T19:56:48Z</time>
  <course>185.87</course>
  <speed>0.13</speed>
  <fix>3d</fix>
</trkpt>
<trkpt lat="-27.2744429" lon="151.2900632">
  <ele>399.67</ele>
  <time>2026-09-01T19:56:48Z</time>
  <course>10.26</course>
  <speed>0.11045361017187261</speed>
  <fix>3d</fix>
</trkpt>
<trkpt lat="-27.2744427" lon="151.290063">
  <ele>399.79</ele>
  <time>2026-09-01T19:56:48Z</time>
  <course>185.21</course>
  <speed>0.11</speed>
  <fix>3d</fix>
</trkpt>
<trkpt lat="-27.274443" lon="151.2900632">
  <ele>399.53</ele>
  <time>2026-09-01T19:56:48Z</time>
  <course>10.24</course>
  <speed>0.1004987562112089</speed>
  <fix>3d</fix>
</trkpt>
<trkpt lat="-27.2744427" lon="151.290063">
  <ele>399.79</ele>
  <time>2026-09-01T19:56:48Z</time>
  <course>185.21</course>
  <speed>0.11</speed>
  <fix>3d</fix>
</trkpt>
<trkpt lat="-27.2744431" lon="151.2900632">
  <ele>399.39</ele>
  <time>2026-09-01T19:56:48Z</time>
  <course>10.23</course>
  <speed>0.09055385138137417</speed>
  <fix>3d</fix>
</trkpt>
<trkpt lat="-27.2744428" lon="151.290063">
  <ele>399.52</ele>
  <time>2026-09-01T19:56:48Z</time>
  <course>184.38</course>
  <speed>0.1</speed>
  <fix>3d</fix>
</trkpt>
<trkpt lat="-27.2744432" lon="151.2900632">
  <ele>399.25</ele>
  <time>2026-09-01T19:56:48Z</time>
  <course>10.21</course>
  <speed>0.08062257748298549</speed>
  <fix>3d</fix>
</trkpt>
<trkpt lat="-27.2744428" lon="151.290063">
  <ele>399.52</ele>
  <time>2026-09-01T19:56:48Z</time>
  <course>184.38</course>
  <speed>0.1</speed>
  <fix>3d</fix>
</trkpt>
<trkpt lat="-27.2744432" lon="151.2900632">
  <ele>399.11</ele>
  <time>2026-09-01T19:56:48Z</time>
  <course>10.2</course>
  <speed>0.07280109889280519</speed>
  <fix>3d</fix>
</trkpt>
<trkpt lat="-27.2744431" lon="151.290063">
  <ele>399.25</ele>
  <time>2026-09-01T19:56:48Z</time>
  <course>183.19</course>
  <speed>0.08</speed>
  <fix>3d</fix>
</trkpt>
<trkpt lat="-27.2744433" lon="151.2900632">
  <ele>398.97</ele>
  <time>2026-09-01T19:56:48Z</time>
  <course>10.19</course>
  <speed>0.0632455532033676</speed>
  <fix>3d</fix>
</trkpt>
<trkpt lat="-27.2744431" lon="151.290063">
  <ele>399.25</ele>
  <time>2026-09-01T19:56:48Z</time>
  <course>183.19</course>
  <speed>0.08</speed>
  <fix>3d</fix>
</trkpt>
<trkpt lat="-27.2744433" lon="151.2900632">
  <ele>398.82</ele>
  <time>2026-09-01T19:56:48Z</time>
  <course>10.17</course>
  <speed>0.053851648071345036</speed>
  <fix>3d</fix>
</trkpt>
<trkpt lat="-27.2744432" lon="151.290063">
  <ele>398.96</ele>
  <time>2026-09-01T19:56:48Z</time>
  <course>181.15</course>
  <speed>0.06</speed>
  <fix>3d</fix>
</trkpt>
<trkpt lat="-27.2744434" lon="151.2900632">
  <ele>398.68</ele>
  <time>2026-09-01T19:56:48Z</time>
  <course>10.15</course>
  <speed>0.044721359549995794</speed>
  <fix>3d</fix>
</trkpt>
<trkpt lat="-27.2744432" lon="151.290063">
  <ele>398.96</ele>
  <time>2026-09-01T19:56:48Z</time>
  <course>181.15</course>
  <speed>0.06</speed>
  <fix>3d</fix>
</trkpt>
<trkpt lat="-27.2744434" lon="151.2900632">
  <ele>398.52</ele>
  <time>2026-09-01T19:56:48Z</time>
  <course>10.13</course>
  <speed>0.03605551275463989</speed>
  <fix>3d</fix>
</trkpt>
<trkpt lat="-27.2744433" lon="151.290063">
  <ele>398.68</ele>
  <time>2026-09-01T19:56:48Z</time>
  <course>176.76</course>
  <speed>0.04</speed>
  <fix>3d</fix>
</trkpt>
<trkpt lat="-27.2744434" lon="151.2900632">
  <ele>398.37</ele>
  <time>2026-09-01T19:56:48Z</time>
  <course>10.12</course>
  <speed>0.03605551275463989</speed>
  <fix>3d</fix>
</trkpt>
<trkpt lat="-27.2744433" lon="151.290063">
  <ele>398.68</ele>
  <time>2026-09-01T19:56:48Z</time>
  <course>176.76</course>
  <speed>0.04</speed>
  <fix>3d</fix>
</trkpt>
<trkpt lat="-27.2744434" lon="151.2900632">
  <ele>398.22</ele>
  <time>2026-09-01T19:56:48Z</time>
  <course>10.11</course>
  <speed>0.0316227766016838</speed>
  <fix>3d</fix>
</trkpt>
<trkpt lat="-27.2744433" lon="151.290063">
  <ele>398.39</ele>
  <time>2026-09-01T19:56:48Z</time>
  <course>164.32</course>
  <speed>0.02</speed>
  <fix>3d</fix>
</trkpt>
<trkpt lat="-27.2744434" lon="151.2900632">
  <ele>398.07</ele>
  <time>2026-09-01T19:56:48Z</time>
  <course>10.15</course>
  <speed>0.02</speed>
  <fix>3d</fix>
</trkpt>
<trkpt lat="-27.2744433" lon="151.290063">
  <ele>398.39</ele>
  <time>2026-09-01T19:56:48Z</time>
  <course>164.32</course>
  <speed>0.02</speed>
  <fix>3d</fix>
</trkpt>
<trkpt lat="-27.2744434" lon="151.2900632">
  <ele>397.92</ele>
  <time>2026-09-01T19:56:48Z</time>
  <course>10.22</course>
  <speed>0.02</speed>
  <fix>3d</fix>
</trkpt>
<trkpt lat="-27.2744434" lon="151.290063">
  <ele>398.1</ele>
  <time>2026-09-01T19:56:48Z</time>
  <course>90.09</course>
  <speed>0.0</speed>
  <fix>3d</fix>
</trkpt>
<trkpt lat="-27.2744434" lon="151.2900632">
  <ele>397.77</ele>
  <time>2026-09-01T19:56:48Z</time>
  <course>10.3</course>
  <speed>0.022360679774997897</speed>
  <fix>3d</fix>
</trkpt>
<trkpt lat="-27.2744434" lon="151.290063">
  <ele>398.1</ele>
  <time>2026-09-01T19:56:48Z</time>
  <course>90.09</course>
  <speed>0.0</speed>
  <fix>3d</fix>
</trkpt>
<trkpt lat="-27.2744434" lon="151.2900632">
  <ele>397.61</ele>
  <time>2026-09-01T19:56:48Z</time>
  <course>10.37</course>
  <speed>0.0282842712474619</speed>
  <fix>3d</fix>
</trkpt>
<trkpt lat="-27.2744433" lon="151.290063">
  <ele>397.8</ele>
  <time>2026-09-01T19:56:48Z</time>
  <course>12.14</course>
  <speed>0.02</speed>
  <fix>3d</fix>
</trkpt>
<trkpt lat="-27.2744434" lon="151.2900632">
  <ele>397.46</ele>
  <time>2026-09-01T19:56:48Z</time>
  <course>10.43</course>
  <speed>0.03605551275463989</speed>
  <fix>3d</fix>
</trkpt>
<trkpt lat="-27.2744433" lon="151.290063">
  <ele>397.8</ele>
  <time>2026-09-01T19:56:48Z</time>
  <course>12.14</course>
  <speed>0.02</speed>
  <fix>3d</fix>
</trkpt>
<trkpt lat="-27.2744433" lon="151.2900632">
  <ele>397.31</ele>
  <time>2026-09-01T19:56:48Z</time>
  <course>10.48</course>
  <speed>0.044721359549995794</speed>
  <fix>3d</fix>
</trkpt>
<trkpt lat="-27.2744433" lon="151.290063">
  <ele>397.51</ele>
  <time>2026-09-01T19:56:48Z</time>
  <course>2.17</course>
  <speed>0.04</speed>
  <fix>3d</fix>
</trkpt>
<trkpt lat="-27.2744433" lon="151.2900632">
  <ele>397.16</ele>
  <time>2026-09-01T19:56:48Z</time>
  <course>10.51</course>
  <speed>0.05099019513592785</speed>
  <fix>3d</fix>
</trkpt>
<trkpt lat="-27.2744433" lon="151.290063">
  <ele>397.51</ele>
  <time>2026-09-01T19:56:48Z</time>
  <course>2.17</course>
  <speed>0.04</speed>
  <fix>3d</fix>
</trkpt>
<trkpt lat="-27.2744432" lon="151.2900632">
  <ele>397.01</ele>
  <time>2026-09-01T19:56:48Z</time>
  <course>10.52</course>
  <speed>0.06082762530298219</speed>
  <fix>3d</fix>
</trkpt>
<trkpt lat="-27.2744433" lon="151.290063">
  <ele>397.21</ele>
  <time>2026-09-01T19:56:48Z</time>
  <course>358.89</course>
  <speed>0.05</speed>
  <fix>3d</fix>
</trkpt>
<trkpt lat="-27.2744432" lon="151.2900632">
  <ele>396.86</ele>
  <time>2026-09-01T19:56:48Z</time>
  <course>10.51</course>
  <speed>0.06082762530298219</speed>
  <fix>3d</fix>
</trkpt>
<trkpt lat="-27.2744433" lon="151.290063">
  <ele>397.21</ele>
  <time>2026-09-01T19:56:48Z</time>
  <course>358.89</course>
  <speed>0.05</speed>
  <fix>3d</fix>
</trkpt>
<trkpt lat="-27.2744431" lon="151.2900632">
  <ele>396.71</ele>
  <time>2026-09-01T19:56:48Z</time>
  <course>10.5</course>
  <speed>0.07071067811865475</speed>
  <fix>3d</fix>
</trkpt>
<trkpt lat="-27.2744432" lon="151.290063">
  <ele>396.91</ele>
  <time>2026-09-01T19:56:48Z</time>
  <course>357.4</course>
  <speed>0.07</speed>
  <fix>3d</fix>
</trkpt>
<trkpt lat="-27.274443" lon="151.2900632">
  <ele>396.56</ele>
  <time>2026-09-01T19:56:48Z</time>
  <course>10.49</course>
  <speed>0.08062257748298549</speed>
  <fix>3d</fix>
</trkpt>
<trkpt lat="-27.2744432" lon="151.290063">
  <ele>396.91</ele>
  <time>2026-09-01T19:56:48Z</time>
  <course>357.4</course>
  <speed>0.07</speed>
  <fix>3d</fix>
</trkpt>
<trkpt lat="-27.2744429" lon="151.2900632">
  <ele>396.41</ele>
  <time>2026-09-01T19:56:48Z</time>
  <course>10.48</course>
  <speed>0.08062257748298549</speed>
  <fix>3d</fix>
</trkpt>
<trkpt lat="-27.274443" lon="151.290063">
  <ele>396.62</ele>
  <time>2026-09-01T19:56:48Z</time>
  <course>356.86</course>
  <speed>0.09</speed>
  <fix>3d</fix>
</trkpt>
<trkpt lat="-27.2744429" lon="151.2900632">
  <ele>396.26</ele>
  <time>2026-09-01T19:56:48Z</time>
  <course>10.49</course>
  <speed>0.09055385138137417</speed>
  <fix>3d</fix>
</trkpt>
<trkpt lat="-27.274443" lon="151.290063">
  <ele>396.62</ele>
  <time>2026-09-01T19:56:48Z</time>
  <course>356.86</course>
  <speed>0.09</speed>
  <fix>3d</fix>
</trkpt>
<trkpt lat="-27.2744428" lon="151.2900632">
  <ele>396.11</ele>
  <time>2026-09-01T19:56:48Z</time>
  <course>10.49</course>
  <speed>0.09055385138137417</speed>
  <fix>3d</fix>
</trkpt>
<trkpt lat="-27.2744428" lon="151.290063">
  <ele>396.32</ele>
  <time>2026-09-01T19:56:48Z</time>
  <course>356.77</course>
  <speed>0.1</speed>
  <fix>3d</fix>
</trkpt>
<trkpt lat="-27.2744427" lon="151.2900632">
  <ele>395.96</ele>
  <time>2026-09-01T19:56:48Z</time>
  <course>10.5</course>
  <speed>0.1004987562112089</speed>
  <fix>3d</fix>
</trkpt>
<trkpt lat="-27.2744428" lon="151.290063">
  <ele>396.32</ele>
  <time>2026-09-01T19:56:48Z</time>
  <course>356.77</course>
  <speed>0.1</speed>
  <fix>3d</fix>
</trkpt>
<trkpt lat="-27.2744426" lon="151.2900632">
  <ele>395.81</ele>
  <time>2026-09-01T19:56:48Z</time>
  <course>10.51</course>
  <speed>0.1004987562112089</speed>
  <fix>3d</fix>
</trkpt>
<trkpt lat="-27.2744427" lon="151.290063">
  <ele>396.03</ele>
  <time>2026-09-01T19:56:48Z</time>
  <course>356.93</course>
  <speed>0.11</speed>
  <fix>3d</fix>
</trkpt>
<trkpt lat="-27.2744424" lon="151.2900632">
  <ele>395.67</ele>
  <time>2026-09-01T19:56:48Z</time>
  <course>10.53</course>
  <speed>0.11</speed>
  <fix>3d</fix>
</trkpt>
<trkpt lat="-27.2744427" lon="151.290063">
  <ele>396.03</ele>
  <time>2026-09-01T19:56:48Z</time>
  <course>356.93</course>
  <speed>0.11</speed>
  <fix>3d</fix>
</trkpt>
<trkpt lat="-27.2744423" lon="151.2900632">
  <ele>395.52</ele>
  <time>2026-09-01T19:56:48Z</time>
  <course>10.54</course>
  <speed>0.11</speed>
  <fix>3d</fix>
</trkpt>
<trkpt lat="-27.2744424" lon="151.290063">
  <ele>395.73</ele>
  <time>2026-09-01T19:56:48Z</time>
  <course>357.17</course>
  <speed>0.12</speed>
  <fix>3d</fix>
</trkpt>
<trkpt lat="-27.2744422" lon="151.2900632">
  <ele>395.37</ele>
  <time>2026-09-01T19:56:48Z</time>
  <course>10.56</course>
  <speed>0.11</speed>
  <fix>3d</fix>
</trkpt>
<trkpt lat="-27.2744424" lon="151.290063">
  <ele>395.73</ele>
  <time>2026-09-01T19:56:48Z</time>
  <course>357.17</course>
  <speed>0.12</speed>
  <fix>3d</fix>
</trkpt>
<trkpt lat="-27.2744421" lon="151.2900632">
  <ele>395.22</ele>
  <time>2026-09-01T19:56:48Z</time>
  <course>10.57</course>
  <speed>0.12</speed>
  <fix>3d</fix>
</trkpt>
<trkpt lat="-27.2744422" lon="151.290063">
  <ele>395.44</ele>
  <time>2026-09-01T19:56:48Z</time>
  <course>357.31</course>
  <speed>0.13</speed>
  <fix>3d</fix>
</trkpt>
<trkpt lat="-27.274442" lon="151.2900632">
  <ele>395.08</ele>
  <time>2026-09-01T19:56:48Z</time>
  <course>10.57</course>
  <speed>0.12</speed>
  <fix>3d</fix>
</trkpt>
<trkpt lat="-27.2744422" lon="151.290063">
  <ele>395.44</ele>
  <time>2026-09-01T19:56:48Z</time>
  <course>357.31</course>
  <speed>0.13</speed>
  <fix>3d</fix>
</trkpt>
<trkpt lat="-27.2744419" lon="151.2900632">
  <ele>394.93</ele>
  <time>2026-09-01T19:56:48Z</time>
  <course>10.57</course>
  <speed>0.12</speed>
  <fix>3d</fix>
</trkpt>
<trkpt lat="-27.2744419" lon="151.290063">
  <ele>395.15</ele>
  <time>2026-09-01T19:56:48Z</time>
  <course>357.51</course>
  <speed>0.13</speed>
  <fix>3d</fix>
</trkpt>
<trkpt lat="-27.2744417" lon="151.2900631">
  <ele>394.78</ele>
  <time>2026-09-01T19:56:48Z</time>
  <course>10.57</course>
  <speed>0.12</speed>
  <fix>3d</fix>
</trkpt>
<trkpt lat="-27.2744419" lon="151.290063">
  <ele>395.15</ele>
  <time>2026-09-01T19:56:48Z</time>
  <course>357.51</course>
  <speed>0.13</speed>
  <fix>3d</fix>
</trkpt>
<trkpt lat="-27.2744416" lon="151.2900631">
  <ele>394.63</ele>
  <time>2026-09-01T19:56:48Z</time>
  <course>10.57</course>
  <speed>0.12</speed>
  <fix>3d</fix>
</trkpt>
<trkpt lat="-27.2744416" lon="151.290063">
  <ele>394.86</ele>
  <time>2026-09-01T19:56:48Z</time>
  <course>357.86</course>
  <speed>0.14</speed>
  <fix>3d</fix>
</trkpt>
<trkpt lat="-27.2744415" lon="151.2900631">
  <ele>394.48</ele>
  <time>2026-09-01T19:56:48Z</time>
  <course>10.58</course>
  <speed>0.12</speed>
  <fix>3d</fix>
</trkpt>
<trkpt lat="-27.2744416" lon="151.290063">
  <ele>394.86</ele>
  <time>2026-09-01T19:56:48Z</time>
  <course>357.86</course>
  <speed>0.14</speed>
  <fix>3d</fix>
</trkpt>
<trkpt lat="-27.2744413" lon="151.2900631">
  <ele>394.33</ele>
  <time>2026-09-01T19:56:48Z</time>
  <course>10.58</course>
  <speed>0.12</speed>
  <fix>3d</fix>
</trkpt>
<trkpt lat="-27.2744414" lon="151.290063">
  <ele>394.56</ele>
  <time>2026-09-01T19:56:48Z</time>
  <course>358.24</course>
  <speed>0.14</speed>
  <fix>3d</fix>
</trkpt>
<trkpt lat="-27.2744412" lon="151.2900631">
  <ele>394.18</ele>
  <time>2026-09-01T19:56:48Z</time>
  <course>10.59</course>
  <speed>0.12</speed>
  <fix>3d</fix>
</trkpt>
<trkpt lat="-27.2744414" lon="151.290063">
  <ele>394.56</ele>
  <time>2026-09-01T19:56:48Z</time>
  <course>358.24</course>
  <speed>0.14</speed>
  <fix>3d</fix>
</trkpt>
<trkpt lat="-27.2744411" lon="151.2900631">
  <ele>394.03</ele>
  <time>2026-09-01T19:56:48Z</time>
  <course>10.6</course>
  <speed>0.12</speed>
  <fix>3d</fix>
</trkpt>
<trkpt lat="-27.2744412" lon="151.290063">
  <ele>394.27</ele>
  <time>2026-09-01T19:56:48Z</time>
  <course>358.65</course>
  <speed>0.14</speed>
  <fix>3d</fix>
</trkpt>
<trkpt lat="-27.274441" lon="151.2900631">
  <ele>393.88</ele>
  <time>2026-09-01T19:56:48Z</time>
  <course>10.61</course>
  <speed>0.12</speed>
  <fix>3d</fix>
</trkpt>
<trkpt lat="-27.2744412" lon="151.290063">
  <ele>394.27</ele>
  <time>2026-09-01T19:56:48Z</time>
  <course>358.65</course>
  <speed>0.14</speed>
  <fix>3d</fix>
</trkpt>
<trkpt lat="-27.2744408" lon="151.2900631">
  <ele>393.73</ele>
  <time>2026-09-01T19:56:48Z</time>
  <course>10.61</course>
  <speed>0.12041594578792296</speed>
  <fix>3d</fix>
</trkpt>
<trkpt lat="-27.2744409" lon="151.290063">
  <ele>393.97</ele>
  <time>2026-09-01T19:56:48Z</time>
  <course>359.14</course>
  <speed>0.14</speed>
  <fix>3d</fix>
</trkpt>
<trkpt lat="-27.2744407" lon="151.2900631">
  <ele>393.58</ele>
  <time>2026-09-01T19:56:48Z</time>
  <course>10.61</course>
  <speed>0.12041594578792296</speed>
  <fix>3d</fix>
</trkpt>
<trkpt lat="-27.2744409" lon="151.290063">
  <ele>393.97</ele>
  <time>2026-09-01T19:56:48Z</time>
  <course>359.14</course>
  <speed>0.14</speed>
  <fix>3d</fix>
</trkpt>
<trkpt lat="-27.2744406" lon="151.2900631">
  <ele>393.42</ele>
  <time>2026-09-01T19:56:48Z</time>
  <course>10.62</course>
  <speed>0.12041594578792296</speed>
  <fix>3d</fix>
</trkpt>
<trkpt lat="-27.2744406" lon="151.290063">
  <ele>393.68</ele>
  <time>2026-09-01T19:56:48Z</time>
  <course>359.94</course>
  <speed>0.14</speed>
  <fix>3d</fix>
</trkpt>
<trkpt lat="-27.2744405" lon="151.2900631">
  <ele>393.27</ele>
  <time>2026-09-01T19:56:48Z</time>
  <course>10.64</course>
  <speed>0.11045361017187261</speed>
  <fix>3d</fix>
</trkpt>
<trkpt lat="-27.2744406" lon="151.290063">
  <ele>393.68</ele>
  <time>2026-09-01T19:56:48Z</time>
  <course>359.94</course>
  <speed>0.14</speed>
  <fix>3d</fix>
</trkpt>
<trkpt lat="-27.2744403" lon="151.2900631">
  <ele>393.12</ele>
  <time>2026-09-01T19:56:48Z</time>
  <course>10.67</course>
  <speed>0.11045361017187261</speed>
  <fix>3d</fix>
</trkpt>
<trkpt lat="-27.2744403" lon="151.290063">
  <ele>393.38</ele>
  <time>2026-09-01T19:56:48Z</time>
  <course>1.1</course>
  <speed>0.13</speed>
  <fix>3d</fix>
</trkpt>
<trkpt lat="-27.2744402" lon="151.2900631">
  <ele>392.98</ele>
  <time>2026-09-01T19:56:48Z</time>
  <course>10.69</course>
  <speed>0.11045361017187261</speed>
  <fix>3d</fix>
</trkpt>
<trkpt lat="-27.2744403" lon="151.290063">
  <ele>393.38</ele>
  <time>2026-09-01T19:56:48Z</time>
  <course>1.1</course>
  <speed>0.13</speed>
  <fix>3d</fix>
</trkpt>
<trkpt lat="-27.2744401" lon="151.2900631">
  <ele>392.83</ele>
  <time>2026-09-01T19:56:48Z</time>
  <course>10.7</course>
  <speed>0.11045361017187261</speed>
  <fix>3d</fix>
</trkpt>
<trkpt lat="-27.2744402" lon="151.290063">
  <ele>393.08</ele>
  <time>2026-09-01T19:56:48Z</time>
  <course>2.25</course>
  <speed>0.13</speed>
  <fix>3d</fix>
</trkpt>
<trkpt lat="-27.27444" lon="151.2900631">
  <ele>392.68</ele>
  <time>2026-09-01T19:56:48Z</time>
  <course>10.72</course>
  <speed>0.11045361017187261</speed>
  <fix>3d</fix>
</trkpt>
<trkpt lat="-27.2744402" lon="151.290063">
  <ele>393.08</ele>
  <time>2026-09-01T19:56:48Z</time>
  <course>2.25</course>
  <speed>0.13</speed>
  <fix>3d</fix>
</trkpt>
<trkpt lat="-27.2744399" lon="151.2900631">
  <ele>392.53</ele>
  <time>2026-09-01T19:56:48Z</time>
  <course>10.74</course>
  <speed>0.1004987562112089</speed>
  <fix>3d</fix>
</trkpt>
<trkpt lat="-27.2744399" lon="151.290063">
  <ele>392.79</ele>
  <time>2026-09-01T19:56:48Z</time>
  <course>3.25</course>
  <speed>0.13</speed>
  <fix>3d</fix>
</trkpt>
<trkpt lat="-27.2744398" lon="151.2900631">
  <ele>392.39</ele>
  <time>2026-09-01T19:56:48Z</time>
  <course>10.75</course>
  <speed>0.1004987562112089</speed>
  <fix>3d</fix>
</trkpt>
<trkpt lat="-27.2744399" lon="151.290063">
  <ele>392.79</ele>
  <time>2026-09-01T19:56:48Z</time>
  <course>3.25</course>
  <speed>0.13</speed>
  <fix>3d</fix>
</trkpt>
<trkpt lat="-27.2744396" lon="151.2900631">
  <ele>392.24</ele>
  <time>2026-09-01T19:56:48Z</time>
  <course>10.77</course>
  <speed>0.09055385138137417</speed>
  <fix>3d</fix>
</trkpt>
<trkpt lat="-27.2744397" lon="151.290063">
  <ele>392.49</ele>
  <time>2026-09-01T19:56:48Z</time>
  <course>4.31</course>
  <speed>0.12</speed>
  <fix>3d</fix>
</trkpt>
<trkpt lat="-27.2744396" lon="151.2900631">
  <ele>392.09</ele>
  <time>2026-09-01T19:56:48Z</time>
  <course>10.78</course>
  <speed>0.09055385138137417</speed>
  <fix>3d</fix>
</trkpt>
<trkpt lat="-27.2744397" lon="151.290063">
  <ele>392.49</ele>
  <time>2026-09-01T19:56:48Z</time>
  <course>4.31</course>
  <speed>0.12</speed>
  <fix>3d</fix>
</trkpt>
<trkpt lat="-27.2744395" lon="151.2900631">
  <ele>391.94</ele>
  <time>2026-09-01T19:56:48Z</time>
  <course>10.79</course>
  <speed>0.09055385138137417</speed>
  <fix>3d</fix>
</trkpt>
<trkpt lat="-27.2744395" lon="151.290063">
  <ele>392.2</ele>
  <time>2026-09-01T19:56:48Z</time>
  <course>5.56</course>
  <speed>0.11</speed>
  <fix>3d</fix>
</trkpt>
<trkpt lat="-27.2744394" lon="151.2900631">
  <ele>391.79</ele>
  <time>2026-09-01T19:56:48Z</time>
  <course>10.81</course>
  <speed>0.08062257748298549</speed>
  <fix>3d</fix>
</trkpt>
<trkpt lat="-27.2744395" lon="151.290063">
  <ele>392.2</ele>
  <time>2026-09-01T19:56:48Z</time>
  <course>5.56</course>
  <speed>0.11</speed>
  <fix>3d</fix>
</trkpt>
<trkpt lat="-27.2744393" lon="151.2900631">
  <ele>391.64</ele>
  <time>2026-09-01T19:56:48Z</time>
  <course>10.83</course>
  <speed>0.08062257748298549</speed>
  <fix>3d</fix>
</trkpt>
<trkpt lat="-27.2744393" lon="151.290063">
  <ele>391.9</ele>
  <time>2026-09-01T19:56:48Z</time>
  <course>6.82</course>
  <speed>0.1</speed>
  <fix>3d</fix>
</trkpt>
<trkpt lat="-27.2744392" lon="151.2900631">
  <ele>391.49</ele>
  <time>2026-09-01T19:56:48Z</time>
  <course>10.86</course>
  <speed>0.07280109889280519</speed>
  <fix>3d</fix>
</trkpt>
<trkpt lat="-27.2744393" lon="151.290063">
  <ele>391.9</ele>
  <time>2026-09-01T19:56:48Z</time>
  <course>6.82</course>
  <speed>0.1</speed>
  <fix>3d</fix>
</trkpt>
<trkpt lat="-27.2744391" lon="151.2900631">
  <ele>391.34</ele>
  <time>2026-09-01T19:56:48Z</time>
  <course>10.88</course>
  <speed>0.07280109889280519</speed>
  <fix>3d</fix>
</trkpt>
<trkpt lat="-27.2744391" lon="151.290063">
  <ele>391.61</ele>
  <time>2026-09-01T19:56:48Z</time>
  <course>8.06</course>
  <speed>0.1</speed>
  <fix>3d</fix>
</trkpt>
<trkpt lat="-27.274439" lon="151.2900631">
  <ele>391.19</ele>
  <time>2026-09-01T19:56:48Z</time>
  <course>10.91</course>
  <speed>0.07280109889280519</speed>
  <fix>3d</fix>
</trkpt>
<trkpt lat="-27.2744391" lon="151.290063">
  <ele>391.61</ele>
  <time>2026-09-01T19:56:48Z</time>
  <course>8.06</course>
  <speed>0.1</speed>
  <fix>3d</fix>
</trkpt>
<trkpt lat="-27.274439" lon="151.2900631">
  <ele>391.04</ele>
  <time>2026-09-01T19:56:48Z</time>
  <course>10.93</course>
  <speed>0.0632455532033676</speed>
  <fix>3d</fix>
</trkpt>
<trkpt lat="-27.2744389" lon="151.290063">
  <ele>391.31</ele>
  <time>2026-09-01T19:56:48Z</time>
  <course>9.5</course>
  <speed>0.09</speed>
  <fix>3d</fix>
</trkpt>
<trkpt lat="-27.2744389" lon="151.2900631">
  <ele>390.9</ele>
  <time>2026-09-01T19:56:48Z</time>
  <course>10.95</course>
  <speed>0.06082762530298219</speed>
  <fix>3d</fix>
</trkpt>
<trkpt lat="-27.2744389" lon="151.290063">
  <ele>391.31</ele>
  <time>2026-09-01T19:56:48Z</time>
  <course>9.5</course>
  <speed>0.09</speed>
  <fix>3d</fix>
</trkpt>
<trkpt lat="-27.2744388" lon="151.2900632">
  <ele>390.75</ele>
  <time>2026-09-01T19:56:48Z</time>
  <course>10.95</course>
  <speed>0.05099019513592785</speed>
  <fix>3d</fix>
</trkpt>
<trkpt lat="-27.2744387" lon="151.290063">
  <ele>391.01</ele>
  <time>2026-09-01T19:56:48Z</time>
  <course>10.84</course>
  <speed>0.08</speed>
  <fix>3d</fix>
</trkpt>
<trkpt lat="-27.2744387" lon="151.2900632">
  <ele>390.6</ele>
  <time>2026-09-01T19:56:48Z</time>
  <course>10.96</course>
  <speed>0.05099019513592785</speed>
  <fix>3d</fix>
</trkpt>
<trkpt lat="-27.2744387" lon="151.290063">
  <ele>391.01</ele>
  <time>2026-09-01T19:56:48Z</time>
  <course>10.84</course>
  <speed>0.08</speed>
  <fix>3d</fix>
</trkpt>
<trkpt lat="-27.2744387" lon="151.2900632">
  <ele>390.45</ele>
  <time>2026-09-01T19:56:48Z</time>
  <course>10.98</course>
  <speed>0.0412310562561766</speed>
  <fix>3d</fix>
</trkpt>
<trkpt lat="-27.2744385" lon="151.290063">
  <ele>390.72</ele>
  <time>2026-09-01T19:56:48Z</time>
  <course>11.9</course>
  <speed>0.07</speed>
  <fix>3d</fix>
</trkpt>
<trkpt lat="-27.2744386" lon="151.2900632">
  <ele>390.3</ele>
  <time>2026-09-01T19:56:48Z</time>
  <course>10.99</course>
  <speed>0.0412310562561766</speed>
  <fix>3d</fix>
</trkpt>
<trkpt lat="-27.2744385" lon="151.290063">
  <ele>390.72</ele>
  <time>2026-09-01T19:56:48Z</time>
  <course>11.9</course>
  <speed>0.07</speed>
  <fix>3d</fix>
</trkpt>
<trkpt lat="-27.2744385" lon="151.2900632">
  <ele>390.16</ele>
  <time>2026-09-01T19:56:48Z</time>
  <course>11.01</course>
  <speed>0.0412310562561766</speed>
  <fix>3d</fix>
</trkpt>
<trkpt lat="-27.2744384" lon="151.2900631">
  <ele>390.41</ele>
  <time>2026-09-01T19:56:48Z</time>
  <course>12.87</course>
  <speed>0.06</speed>
  <fix>3d</fix>
</trkpt>
<trkpt lat="-27.2744385" lon="151.2900632">
  <ele>390.01</ele>
  <time>2026-09-01T19:56:48Z</time>
  <course>11.03</course>
  <speed>0.0316227766016838</speed>
  <fix>3d</fix>
</trkpt>
<trkpt lat="-27.2744384" lon="151.2900631">
  <ele>390.41</ele>
  <time>2026-09-01T19:56:48Z</time>
  <course>12.87</course>
  <speed>0.06</speed>
  <fix>3d</fix>
</trkpt>
<trkpt lat="-27.2744384" lon="151.2900632">
  <ele>389.86</ele>
  <time>2026-09-01T19:56:48Z</time>
  <course>11.06</course>
  <speed>0.0316227766016838</speed>
  <fix>3d</fix>
</trkpt>
<trkpt lat="-27.2744383" lon="151.2900631">
  <ele>390.12</ele>
  <time>2026-09-01T19:56:48Z</time>
  <course>13.85</course>
  <speed>0.06</speed>
  <fix>3d</fix>
</trkpt>
<trkpt lat="-27.2744384" lon="151.2900632">
  <ele>389.71</ele>
  <time>2026-09-01T19:56:48Z</time>
  <course>11.09</course>
  <speed>0.0316227766016838</speed>
  <fix>3d</fix>
</trkpt>
<trkpt lat="-27.2744383" lon="151.2900631">
  <ele>390.12</ele>
  <time>2026-09-01T19:56:48Z</time>
  <course>13.85</course>
  <speed>0.06</speed>
  <fix>3d</fix>
</trkpt>
<trkpt lat="-27.2744383" lon="151.2900632">
  <ele>389.56</ele>
  <time>2026-09-01T19:56:48Z</time>
  <course>11.13</course>
  <speed>0.022360679774997897</speed>
  <fix>3d</fix>
</trkpt>
<trkpt lat="-27.2744382" lon="151.2900631">
  <ele>389.82</ele>
  <time>2026-09-01T19:56:48Z</time>
  <course>14.49</course>
  <speed>0.05</speed>
  <fix>3d</fix>
</trkpt>
<trkpt lat="-27.2744383" lon="151.2900632">
  <ele>389.4</ele>
  <time>2026-09-01T19:56:48Z</time>
  <course>11.16</course>
  <speed>0.02</speed>
  <fix>3d</fix>
</trkpt>
<trkpt lat="-27.2744382" lon="151.2900631">
  <ele>389.82</ele>
  <time>2026-09-01T19:56:48Z</time>
  <course>14.49</course>
  <speed>0.05</speed>
  <fix>3d</fix>
</trkpt>
<trkpt lat="-27.2744383" lon="151.2900632">
  <ele>389.25</ele>
  <time>2026-09-01T19:56:48Z</time>
  <course>11.2</course>
  <speed>0.02</speed>
  <fix>3d</fix>
</trkpt>
<trkpt lat="-27.2744381" lon="151.2900632">
  <ele>389.52</ele>
  <time>2026-09-01T19:56:48Z</time>
  <course>14.49</course>
  <speed>0.04</speed>
  <fix>3d</fix>
</trkpt>
<trkpt lat="-27.2744382" lon="151.2900632">
  <ele>389.1</ele>
  <time>2026-09-01T19:56:48Z</time>
  <course>11.24</course>
  <speed>0.01</speed>
  <fix>3d</fix>
</trkpt>
<trkpt lat="-27.2744381" lon="151.2900632">
  <ele>389.52</ele>
  <time>2026-09-01T19:56:48Z</time>
  <course>14.49</course>
  <speed>0.04</speed>
  <fix>3d</fix>
</trkpt>
<trkpt lat="-27.2744382" lon="151.2900632">
  <ele>388.95</ele>
  <time>2026-09-01T19:56:48Z</time>
  <course>11.29</course>
  <speed>0.01</speed>
  <fix>3d</fix>
</trkpt>
<trkpt lat="-27.2744381" lon="151.2900632">
  <ele>389.22</ele>
  <time>2026-09-01T19:56:48Z</time>
  <course>13.54</course>
  <speed>0.03</speed>
  <fix>3d</fix>
</trkpt>
<trkpt lat="-27.2744382" lon="151.2900632">
  <ele>388.8</ele>
  <time>2026-09-01T19:56:48Z</time>
  <course>11.33</course>
  <speed>0.01</speed>
  <fix>3d</fix>
</trkpt>
<trkpt lat="-27.2744381" lon="151.2900632">
  <ele>389.22</ele>
  <time>2026-09-01T19:56:48Z</time>
  <course>13.54</course>
  <speed>0.03</speed>
  <fix>3d</fix>
</trkpt>
<trkpt lat="-27.2744381" lon="151.2900632">
  <ele>388.65</ele>
  <time>2026-09-01T19:56:48Z</time>
  <course>11.38</course>
  <speed>0.0</speed>
  <fix>3d</fix>
</trkpt>
<trkpt lat="-27.274438" lon="151.2900632">
  <ele>388.91</ele>
  <time>2026-09-01T19:56:48Z</time>
  <course>10.54</course>
  <speed>0.03</speed>
  <fix>3d</fix>
</trkpt>
<trkpt lat="-27.2744381" lon="151.2900632">
  <ele>388.49</ele>
  <time>2026-09-01T19:56:48Z</time>
  <course>11.41</course>
  <speed>0.0</speed>
  <fix>3d</fix>
</trkpt>
<trkpt lat="-27.274438" lon="151.2900632">
  <ele>388.91</ele>
  <time>2026-09-01T19:56:48Z</time>
  <course>10.54</course>
  <speed>0.03</speed>
  <fix>3d</fix>
</trkpt>
<trkpt lat="-27.2744381" lon="151.2900632">
  <ele>388.34</ele>
  <time>2026-09-01T19:56:48Z</time>
  <course>11.41</course>
  <speed>0.0</speed>
  <fix>3d</fix>
</trkpt>
<trkpt lat="-27.274438" lon="151.2900632">
  <ele>388.62</ele>
  <time>2026-09-01T19:56:48Z</time>
  <course>3.39</course>
  <speed>0.02</speed>
  <fix>3d</fix>
</trkpt>
<trkpt lat="-27.2744381" lon="151.2900632">
  <ele>388.2</ele>
  <time>2026-09-01T19:56:48Z</time>
  <course>11.35</course>
  <speed>0.01</speed>
  <fix>3d</fix>
</trkpt>
<trkpt lat="-27.274438" lon="151.2900632">
  <ele>388.62</ele>
  <time>2026-09-01T19:56:48Z</time>
  <course>3.39</course>
  <speed>0.02</speed>
  <fix>3d</fix>
</trkpt>
<trkpt lat="-27.2744381" lon="151.2900632">
  <ele>388.06</ele>
  <time>2026-09-01T19:56:48Z</time>
  <course>11.21</course>
  <speed>0.03</speed>
  <fix>3d</fix>
</trkpt>
<trkpt lat="-27.2744379" lon="151.2900632">
  <ele>388.32</ele>
  <time>2026-09-01T19:56:48Z</time>
  <course>2.65</course>
  <speed>0.02</speed>
  <fix>3d</fix>
</trkpt>
<trkpt lat="-27.274438" lon="151.2900632">
  <ele>387.93</ele>
  <time>2026-09-01T19:56:48Z</time>
  <course>11.04</course>
  <speed>0.07071067811865475</speed>
  <fix>3d</fix>
</trkpt>
<trkpt lat="-27.2744379" lon="151.2900632">
  <ele>388.32</ele>
  <time>2026-09-01T19:56:48Z</time>
  <course>2.65</course>
  <speed>0.02</speed>
  <fix>3d</fix>
</trkpt>
<trkpt lat="-27.2744379" lon="151.2900632">
  <ele>387.82</ele>
  <time>2026-09-01T19:56:48Z</time>
  <course>10.87</course>
  <speed>0.1414213562373095</speed>
  <fix>3d</fix>
</trkpt>
<trkpt lat="-27.2744379" lon="151.2900632">
  <ele>388.04</ele>
  <time>2026-09-01T19:56:48Z</time>
  <course>6.95</course>
  <speed>0.05</speed>
  <fix>3d</fix>
</trkpt>
<trkpt lat="-27.2744377" lon="151.2900632">
  <ele>387.72</ele>
  <time>2026-09-01T19:56:48Z</time>
  <course>10.72</course>
  <speed>0.2308679276123039</speed>
  <fix>3d</fix>
</trkpt>
<trkpt lat="-27.2744379" lon="151.2900632">
  <ele>388.04</ele>
  <time>2026-09-01T19:56:48Z</time>
  <course>6.95</course>
  <speed>0.05</speed>
  <fix>3d</fix>
</trkpt>
<trkpt lat="-27.2744374" lon="151.2900633">
  <ele>387.64</ele>
  <time>2026-09-01T19:56:48Z</time>
  <course>10.62</course>
  <speed>0.35128336140500593</speed>
  <fix>3d</fix>
</trkpt>
<trkpt lat="-27.2744377" lon="151.2900632">
  <ele>387.8</ele>
  <time>2026-09-01T19:56:48Z</time>
  <course>5.05</course>
  <speed>0.16</speed>
  <fix>3d</fix>
</trkpt>
<trkpt lat="-27.274437" lon="151.2900633">
  <ele>387.57</ele>
  <time>2026-09-01T19:56:48Z</time>
  <course>10.57</course>
  <speed>0.4916299421312742</speed>
  <fix>3d</fix>
</trkpt>
<trkpt lat="-27.2744377" lon="151.2900632">
  <ele>387.8</ele>
  <time>2026-09-01T19:56:48Z</time>
  <course>5.05</course>
  <speed>0.16</speed>
  <fix>3d</fix>
</trkpt>
<trkpt lat="-27.2744365" lon="151.2900633">
  <ele>387.53</ele>
  <time>2026-09-01T19:56:48Z</time>
  <course>10.56</course>
  <speed>0.671863081289633</speed>
  <fix>3d</fix>
</trkpt>
<trkpt lat="-27.2744372" lon="151.2900632">
  <ele>387.62</ele>
  <time>2026-09-01T19:56:48Z</time>
  <course>3.38</course>
  <speed>0.37</speed>
  <fix>3d</fix>
</trkpt>
<trkpt lat="-27.2744358" lon="151.2900634">
  <ele>387.5</ele>
  <time>2026-09-01T19:56:48Z</time>
  <course>10.59</course>
  <speed>0.8820430828479978</speed>
  <fix>3d</fix>
</trkpt>
<trkpt lat="-27.2744372" lon="151.2900632">
  <ele>387.62</ele>
  <time>2026-09-01T19:56:48Z</time>
  <course>3.38</course>
  <speed>0.37</speed>
  <fix>3d</fix>
</trkpt>
<trkpt lat="-27.2744349" lon="151.2900634">
  <ele>387.48</ele>
  <time>2026-09-01T19:56:48Z</time>
  <course>10.61</course>
  <speed>1.102905254316979</speed>
  <fix>3d</fix>
</trkpt>
<trkpt lat="-27.2744363" lon="151.2900633">
  <ele>387.51</ele>
  <time>2026-09-01T19:56:48Z</time>
  <course>2.55</course>
  <speed>0.69</speed>
  <fix>3d</fix>
</trkpt>
<trkpt lat="-27.2744338" lon="151.2900635">
  <ele>387.48</ele>
  <time>2026-09-01T19:56:48Z</time>
  <course>10.63</course>
  <speed>1.3529966740535615</speed>
  <fix>3d</fix>
</trkpt>
<trkpt lat="-27.2744363" lon="151.2900633">
  <ele>387.51</ele>
  <time>2026-09-01T19:56:48Z</time>
  <course>2.55</course>
  <speed>0.69</speed>
  <fix>3d</fix>
</trkpt>
<trkpt lat="-27.2744324" lon="151.2900636">
  <ele>387.49</ele>
  <time>2026-09-01T19:56:48Z</time>
  <course>10.57</course>
  <speed>1.6031219541881399</speed>
  <fix>3d</fix>
</trkpt>
<trkpt lat="-27.2744347" lon="151.2900634">
  <ele>387.47</ele>
  <time>2026-09-01T19:56:48Z</time>
  <course>2.15</course>
  <speed>1.11</speed>
  <fix>3d</fix>
</trkpt>
<trkpt lat="-27.2744309" lon="151.2900637">
  <ele>387.51</ele>
  <time>2026-09-01T19:56:48Z</time>
  <course>10.5</course>
  <speed>1.863866948041088</speed>
  <fix>3d</fix>
</trkpt>
<trkpt lat="-27.2744347" lon="151.2900634">
  <ele>387.47</ele>
  <time>2026-09-01T19:56:48Z</time>
  <course>2.15</course>
  <speed>1.11</speed>
  <fix>3d</fix>
</trkpt>
<trkpt lat="-27.2744291" lon="151.2900638">
  <ele>387.53</ele>
  <time>2026-09-01T19:56:48Z</time>
  <course>10.35</course>
  <speed>2.114000946073582</speed>
  <fix>3d</fix>
</trkpt>
<trkpt lat="-27.2744322" lon="151.2900635">
  <ele>387.47</ele>
  <time>2026-09-01T19:56:48Z</time>
  <course>1.99</course>
  <speed>1.61</speed>
  <fix>3d</fix>
</trkpt>
<trkpt lat="-27.2744271" lon="151.2900639">
  <ele>387.55</ele>
  <time>2026-09-01T19:56:49Z</time>
  <course>10.22</course>
  <speed>2.3547823678633235</speed>
  <fix>3d</fix>
</trkpt>
<trkpt lat="-27.2744322" lon="151.2900635">
  <ele>387.47</ele>
  <time>2026-09-01T19:56:49Z</time>
  <course>1.99</course>
  <speed>1.61</speed>
  <fix>3d</fix>
</trkpt>
<trkpt lat="-27.2744249" lon="151.290064">
  <ele>387.57</ele>
  <time>2026-09-01T19:56:49Z</time>
  <course>10.05</course>
  <speed>2.574975728040946</speed>
  <fix>3d</fix>
</trkpt>
<trkpt lat="-27.2744288" lon="151.2900636">
  <ele>387.51</ele>
  <time>2026-09-01T19:56:49Z</time>
  <course>1.98</course>
  <speed>2.11</speed>
  <fix>3d</fix>
</trkpt>
<trkpt lat="-27.2744225" lon="151.2900642">
  <ele>387.58</ele>
  <time>2026-09-01T19:56:49Z</time>
  <course>9.93</course>
  <speed>2.7752117036363186</speed>
  <fix>3d</fix>
</trkpt>
<trkpt lat="-27.2744288" lon="151.2900636">
  <ele>387.51</ele>
  <time>2026-09-01T19:56:49Z</time>
  <course>1.98</course>
  <speed>2.11</speed>
  <fix>3d</fix>
</trkpt>
<trkpt lat="-27.2744199" lon="151.2900643">
  <ele>387.6</ele>
  <time>2026-09-01T19:56:49Z</time>
  <course>9.81</course>
  <speed>2.9654679226051326</speed>
  <fix>3d</fix>
</trkpt>
<trkpt lat="-27.2744246" lon="151.2900637">
  <ele>387.55</ele>
  <time>2026-09-01T19:56:49Z</time>
  <course>2.08</course>
  <speed>2.57</speed>
  <fix>3d</fix>
</trkpt>
<trkpt lat="-27.2744172" lon="151.2900644">
  <ele>387.61</ele>
  <time>2026-09-01T19:56:49Z</time>
  <course>9.75</course>
  <speed>3.1357614705203583</speed>
  <fix>3d</fix>
</trkpt>
<trkpt lat="-27.2744246" lon="151.2900637">
  <ele>387.55</ele>
  <time>2026-09-01T19:56:49Z</time>
  <course>2.08</course>
  <speed>2.57</speed>
  <fix>3d</fix>
</trkpt>
<trkpt lat="-27.2744143" lon="151.2900645">
  <ele>387.62</ele>
  <time>2026-09-01T19:56:49Z</time>
  <course>9.69</course>
  <speed>3.29548175537356</speed>
  <fix>3d</fix>
</trkpt>
<trkpt lat="-27.2744196" lon="151.290064">
  <ele>387.58</ele>
  <time>2026-09-01T19:56:49Z</time>
  <course>2.27</course>
  <speed>2.97</speed>
  <fix>3d</fix>
</trkpt>
<trkpt lat="-27.2744112" lon="151.2900647">
  <ele>387.62</ele>
  <time>2026-09-01T19:56:49Z</time>
  <course>9.69</course>
  <speed>3.4464039229318435</speed>
  <fix>3d</fix>
</trkpt>
<trkpt lat="-27.2744196" lon="151.290064">
  <ele>387.58</ele>
  <time>2026-09-01T19:56:49Z</time>
  <course>2.27</course>
  <speed>2.97</speed>
  <fix>3d</fix>
</trkpt>
<trkpt lat="-27.2744081" lon="151.2900648">
  <ele>387.62</ele>
  <time>2026-09-01T19:56:49Z</time>
  <course>9.68</course>
  <speed>3.576171136844544</speed>
  <fix>3d</fix>
</trkpt>
<trkpt lat="-27.274414" lon="151.2900642">
  <ele>387.59</ele>
  <time>2026-09-01T19:56:49Z</time>
  <course>2.52</course>
  <speed>3.31</speed>
  <fix>3d</fix>
</trkpt>
<trkpt lat="-27.2744048" lon="151.290065">
  <ele>387.63</ele>
  <time>2026-09-01T19:56:49Z</time>
  <course>9.69</course>
  <speed>3.697161073039691</speed>
  <fix>3d</fix>
</trkpt>
<trkpt lat="-27.274414" lon="151.2900642">
  <ele>387.59</ele>
  <time>2026-09-01T19:56:49Z</time>
  <course>2.52</course>
  <speed>3.31</speed>
  <fix>3d</fix>
</trkpt>
<trkpt lat="-27.2744015" lon="151.2900652">
  <ele>387.63</ele>
  <time>2026-09-01T19:56:49Z</time>
  <course>9.69</course>
  <speed>3.8069541631073</speed>
  <fix>3d</fix>
</trkpt>
<trkpt lat="-27.2744078" lon="151.2900646">
  <ele>387.61</ele>
  <time>2026-09-01T19:56:49Z</time>
  <course>2.79</course>
  <speed>3.59</speed>
  <fix>3d</fix>
</trkpt>
<trkpt lat="-27.274398" lon="151.2900654">
  <ele>387.63</ele>
  <time>2026-09-01T19:56:49Z</time>
  <course>9.71</course>
  <speed>3.9179841755678395</speed>
  <fix>3d</fix>
</trkpt>
<trkpt lat="-27.2744078" lon="151.2900646">
  <ele>387.61</ele>
  <time>2026-09-01T19:56:49Z</time>
  <course>2.79</course>
  <speed>3.59</speed>
  <fix>3d</fix>
</trkpt>
<trkpt lat="-27.2743945" lon="151.2900656">
  <ele>387.63</ele>
  <time>2026-09-01T19:56:49Z</time>
  <course>9.7</course>
  <speed>4.007804885470349</speed>
  <fix>3d</fix>
</trkpt>
<trkpt lat="-27.2744011" lon="151.2900649">
  <ele>387.61</ele>
  <time>2026-09-01T19:56:49Z</time>
  <course>3.06</course>
  <speed>3.83</speed>
  <fix>3d</fix>
</trkpt>
<trkpt lat="-27.2743908" lon="151.2900658">
  <ele>387.63</ele>
  <time>2026-09-01T19:56:49Z</time>
  <course>9.7</course>
  <speed>4.088275920238261</speed>
  <fix>3d</fix>
</trkpt>
<trkpt lat="-27.2744011" lon="151.2900649">
  <ele>387.61</ele>
  <time>2026-09-01T19:56:49Z</time>
  <course>3.06</course>
  <speed>3.83</speed>
  <fix>3d</fix>
</trkpt>
<trkpt lat="-27.2743871" lon="151.290066">
  <ele>387.63</ele>
  <time>2026-09-01T19:56:49Z</time>
  <course>9.69</course>
  <speed>4.168752811093505</speed>
  <fix>3d</fix>
</trkpt>
<trkpt lat="-27.274394" lon="151.2900654">
  <ele>387.6</ele>
  <time>2026-09-01T19:56:49Z</time>
  <course>3.3</course>
  <speed>4.03</speed>
  <fix>3d</fix>
</trkpt>
<trkpt lat="-27.2743834" lon="151.2900663">
  <ele>387.63</ele>
  <time>2026-09-01T19:56:49Z</time>
  <course>9.69</course>
  <speed>4.239257010373398</speed>
  <fix>3d</fix>
</trkpt>
<trkpt lat="-27.274394" lon="151.2900654">
  <ele>387.6</ele>
  <time>2026-09-01T19:56:49Z</time>
  <course>3.3</course>
  <speed>4.03</speed>
  <fix>3d</fix>
</trkpt>
<trkpt lat="-27.2743795" lon="151.2900665">
  <ele>387.64</ele>
  <time>2026-09-01T19:56:49Z</time>
  <course>9.68</course>
  <speed>4.299790692580279</speed>
  <fix>3d</fix>
</trkpt>
<trkpt lat="-27.2743866" lon="151.2900659">
  <ele>387.6</ele>
  <time>2026-09-01T19:56:49Z</time>
  <course>3.52</course>
  <speed>4.2</speed>
  <fix>3d</fix>
</trkpt>
<trkpt lat="-27.2743756" lon="151.2900668">
  <ele>387.64</ele>
  <time>2026-09-01T19:56:49Z</time>
  <course>9.67</course>
  <speed>4.3603325561245905</speed>
  <fix>3d</fix>
</trkpt>
<trkpt lat="-27.2743866" lon="151.2900659">
  <ele>387.6</ele>
  <time>2026-09-01T19:56:49Z</time>
  <course>3.52</course>
  <speed>4.2</speed>
  <fix>3d</fix>
</trkpt>
<trkpt lat="-27.2743716" lon="151.2900671">
  <ele>387.64</ele>
  <time>2026-09-01T19:56:49Z</time>
  <course>9.66</course>
  <speed>4.400931719533944</speed>
  <fix>3d</fix>
</trkpt>
<trkpt lat="-27.274379" lon="151.2900665">
  <ele>387.59</ele>
  <time>2026-09-01T19:56:49Z</time>
  <course>3.7</course>
  <speed>4.33</speed>
  <fix>3d</fix>
</trkpt>
<trkpt lat="-27.2743677" lon="151.2900674">
  <ele>387.64</ele>
  <time>2026-09-01T19:56:49Z</time>
  <course>9.66</course>
  <speed>4.450808915242262</speed>
  <fix>3d</fix>
</trkpt>
<trkpt lat="-27.274379" lon="151.2900665">
  <ele>387.59</ele>
  <time>2026-09-01T19:56:49Z</time>
  <course>3.7</course>
  <speed>4.33</speed>
  <fix>3d</fix>
</trkpt>
<trkpt lat="-27.2743636" lon="151.2900677">
  <ele>387.65</ele>
  <time>2026-09-01T19:56:49Z</time>
  <course>9.65</course>
  <speed>4.481439500874691</speed>
  <fix>3d</fix>
</trkpt>
<trkpt lat="-27.2743711" lon="151.290067">
  <ele>387.59</ele>
  <time>2026-09-01T19:56:49Z</time>
  <course>3.85</course>
  <speed>4.44</speed>
  <fix>3d</fix>
</trkpt>
<trkpt lat="-27.2743596" lon="151.290068">
  <ele>387.65</ele>
  <time>2026-09-01T19:56:49Z</time>
  <course>9.64</course>
  <speed>4.511363430272493</speed>
  <fix>3d</fix>
</trkpt>
<trkpt lat="-27.2743711" lon="151.290067">
  <ele>387.59</ele>
  <time>2026-09-01T19:56:49Z</time>
  <course>3.85</course>
  <speed>4.44</speed>
  <fix>3d</fix>
</trkpt>
<trkpt lat="-27.2743555" lon="151.2900683">
  <ele>387.65</ele>
  <time>2026-09-01T19:56:49Z</time>
  <course>9.63</course>
  <speed>4.531313275420273</speed>
  <fix>3d</fix>
</trkpt>
<trkpt lat="-27.274363" lon="151.2900677">
  <ele>387.59</ele>
  <time>2026-09-01T19:56:49Z</time>
  <course>3.95</course>
  <speed>4.52</speed>
  <fix>3d</fix>
</trkpt>
<trkpt lat="-27.2743514" lon="151.2900686">
  <ele>387.65</ele>
  <time>2026-09-01T19:56:49Z</time>
  <course>9.63</course>
  <speed>4.52133829745132</speed>
  <fix>3d</fix>
</trkpt>
<trkpt lat="-27.274363" lon="151.2900677">
  <ele>387.59</ele>
  <time>2026-09-01T19:56:49Z</time>
  <course>3.95</course>
  <speed>4.52</speed>
  <fix>3d</fix>
</trkpt>
<trkpt lat="-27.2743474" lon="151.2900689">
  <ele>387.65</ele>
  <time>2026-09-01T19:56:49Z</time>
  <course>9.63</course>
  <speed>4.501388674620311</speed>
  <fix>3d</fix>
</trkpt>
<trkpt lat="-27.2743549" lon="151.2900683">
  <ele>387.58</ele>
  <time>2026-09-01T19:56:49Z</time>
  <course>4.02</course>
  <speed>4.56</speed>
  <fix>3d</fix>
</trkpt>
<trkpt lat="-27.2743433" lon="151.2900692">
  <ele>387.66</ele>
  <time>2026-09-01T19:56:49Z</time>
  <course>9.64</course>
  <speed>4.4614907822386005</speed>
  <fix>3d</fix>
</trkpt>
<trkpt lat="-27.2743549" lon="151.2900683">
  <ele>387.58</ele>
  <time>2026-09-01T19:56:49Z</time>
  <course>4.02</course>
  <speed>4.56</speed>
  <fix>3d</fix>
</trkpt>
<trkpt lat="-27.2743393" lon="151.2900696">
  <ele>387.66</ele>
  <time>2026-09-01T19:56:49Z</time>
  <course>9.65</course>
  <speed>4.3909566155907305</speed>
  <fix>3d</fix>
</trkpt>
<trkpt lat="-27.2743467" lon="151.290069">
  <ele>387.58</ele>
  <time>2026-09-01T19:56:49Z</time>
  <course>4.05</course>
  <speed>4.54</speed>
  <fix>3d</fix>
</trkpt>
<trkpt lat="-27.2743354" lon="151.2900699">
  <ele>387.67</ele>
  <time>2026-09-01T19:56:49Z</time>
  <course>9.68</course>
  <speed>4.311159936722366</speed>
  <fix>3d</fix>
</trkpt>
<trkpt lat="-27.2743467" lon="151.290069">
  <ele>387.58</ele>
  <time>2026-09-01T19:56:49Z</time>
  <course>4.05</course>
  <speed>4.54</speed>
  <fix>3d</fix>
</trkpt>
<trkpt lat="-27.2743316" lon="151.2900702">
  <ele>387.68</ele>
  <time>2026-09-01T19:56:49Z</time>
  <course>9.7</course>
  <speed>4.200726127706971</speed>
  <fix>3d</fix>
</trkpt>
<trkpt lat="-27.2743387" lon="151.2900695">
  <ele>387.59</ele>
  <time>2026-09-01T19:56:49Z</time>
  <course>4.04</course>
  <speed>4.43</speed>
  <fix>3d</fix>
</trkpt>
<trkpt lat="-27.2743278" lon="151.2900705">
  <ele>387.68</ele>
  <time>2026-09-01T19:56:49Z</time>
  <course>9.73</course>
  <speed>4.070343965809277</speed>
  <fix>3d</fix>
</trkpt>
<trkpt lat="-27.2743387" lon="151.2900695">
  <ele>387.59</ele>
  <time>2026-09-01T19:56:49Z</time>
  <course>4.04</course>
  <speed>4.43</speed>
  <fix>3d</fix>
</trkpt>
<trkpt lat="-27.2743242" lon="151.2900707">
  <ele>387.69</ele>
  <time>2026-09-01T19:56:49Z</time>
  <course>9.77</course>
  <speed>3.929287467213362</speed>
  <fix>3d</fix>
</trkpt>
<trkpt lat="-27.2743308" lon="151.2900702">
  <ele>387.59</ele>
  <time>2026-09-01T19:56:49Z</time>
  <course>4.01</course>
  <speed>4.24</speed>
  <fix>3d</fix>
</trkpt>
<trkpt lat="-27.2743207" lon="151.290071">
  <ele>387.69</ele>
  <time>2026-09-01T19:56:49Z</time>
  <course>9.83</course>
  <speed>3.7689786414889643</speed>
  <fix>3d</fix>
</trkpt>
<trkpt lat="-27.2743308" lon="151.2900702">
  <ele>387.59</ele>
  <time>2026-09-01T19:56:49Z</time>
  <course>4.01</course>
  <speed>4.24</speed>
  <fix>3d</fix>
</trkpt>
<trkpt lat="-27.2743173" lon="151.2900713">
  <ele>387.69</ele>
  <time>2026-09-01T19:56:49Z</time>
  <course>9.89</course>
  <speed>3.598694207625871</speed>
  <fix>3d</fix>
</trkpt>
<trkpt lat="-27.2743235" lon="151.2900708">
  <ele>387.6</ele>
  <time>2026-09-01T19:56:49Z</time>
  <course>3.94</course>
  <speed>3.97</speed>
  <fix>3d</fix>
</trkpt>
<trkpt lat="-27.2743142" lon="151.2900715">
  <ele>387.69</ele>
  <time>2026-09-01T19:56:49Z</time>
  <course>9.95</course>
  <speed>3.427725193185708</speed>
  <fix>3d</fix>
</trkpt>
<trkpt lat="-27.2743235" lon="151.2900708">
  <ele>387.6</ele>
  <time>2026-09-01T19:56:49Z</time>
  <course>3.94</course>
  <speed>3.97</speed>
  <fix>3d</fix>
</trkpt>
<trkpt lat="-27.2743111" lon="151.2900717">
  <ele>387.69</ele>
  <time>2026-09-01T19:56:49Z</time>
  <course>10.02</course>
  <speed>3.246798423062325</speed>
  <fix>3d</fix>
</trkpt>
<trkpt lat="-27.2743167" lon="151.2900713">
  <ele>387.61</ele>
  <time>2026-09-01T19:56:49Z</time>
  <course>3.84</course>
  <speed>3.65</speed>
  <fix>3d</fix>
</trkpt>
<trkpt lat="-27.2743083" lon="151.2900719">
  <ele>387.68</ele>
  <time>2026-09-01T19:56:49Z</time>
  <course>10.1</course>
  <speed>3.066528982416439</speed>
  <fix>3d</fix>
</trkpt>
<trkpt lat="-27.2743167" lon="151.2900713">
  <ele>387.61</ele>
  <time>2026-09-01T19:56:49Z</time>
  <course>3.84</course>
  <speed>3.65</speed>
  <fix>3d</fix>
</trkpt>
<trkpt lat="-27.2743056" lon="151.2900721">
  <ele>387.67</ele>
  <time>2026-09-01T19:56:49Z</time>
  <course>10.18</course>
  <speed>2.8956001105124995</speed>
  <fix>3d</fix>
</trkpt>
<trkpt lat="-27.2743104" lon="151.2900718">
  <ele>387.61</ele>
  <time>2026-09-01T19:56:49Z</time>
  <course>3.69</course>
  <speed>3.3</speed>
  <fix>3d</fix>
</trkpt>
<trkpt lat="-27.274303" lon="151.2900723">
  <ele>387.66</ele>
  <time>2026-09-01T19:56:49Z</time>
  <course>10.26</course>
  <speed>2.7247018185482244</speed>
  <fix>3d</fix>
</trkpt>
<trkpt lat="-27.2743104" lon="151.2900718">
  <ele>387.61</ele>
  <time>2026-09-01T19:56:49Z</time>
  <course>3.69</course>
  <speed>3.3</speed>
  <fix>3d</fix>
</trkpt>
<trkpt lat="-27.2743006" lon="151.2900725">
  <ele>387.64</ele>
  <time>2026-09-01T19:56:49Z</time>
  <course>10.35</course>
  <speed>2.55440795488896</speed>
  <fix>3d</fix>
</trkpt>
<trkpt lat="-27.2743048" lon="151.2900722">
  <ele>387.59</ele>
  <time>2026-09-01T19:56:49Z</time>
  <course>3.47</course>
  <speed>2.94</speed>
  <fix>3d</fix>
</trkpt>
<trkpt lat="-27.2742983" lon="151.2900726">
  <ele>387.62</ele>
  <time>2026-09-01T19:56:49Z</time>
  <course>10.42</course>
  <speed>2.4035182545593448</speed>
  <fix>3d</fix>
</trkpt>
<trkpt lat="-27.2743048" lon="151.2900722">
  <ele>387.59</ele>
  <time>2026-09-01T19:56:49Z</time>
  <course>3.47</course>
  <speed>2.94</speed>
  <fix>3d</fix>
</trkpt>
<trkpt lat="-27.2742962" lon="151.2900727">
  <ele>387.6</ele>
  <time>2026-09-01T19:56:49Z</time>
  <course>10.5</course>
  <speed>2.2426992665089984</speed>
  <fix>3d</fix>
</trkpt>
<trkpt lat="-27.2742998" lon="151.2900725">
  <ele>387.56</ele>
  <time>2026-09-01T19:56:49Z</time>
  <course>3.17</course>
  <speed>2.6</speed>
  <fix>3d</fix>
</trkpt>
<trkpt lat="-27.2742942" lon="151.2900729">
  <ele>387.58</ele>
  <time>2026-09-01T19:56:49Z</time>
  <course>10.57</course>
  <speed>2.1023796041628637</speed>
  <fix>3d</fix>
</trkpt>
<trkpt lat="-27.2742998" lon="151.2900725">
  <ele>387.56</ele>
  <time>2026-09-01T19:56:49Z</time>
  <course>3.17</course>
  <speed>2.6</speed>
  <fix>3d</fix>
</trkpt>
<trkpt lat="-27.2742923" lon="151.2900729">
  <ele>387.56</ele>
  <time>2026-09-01T19:56:49Z</time>
  <course>10.63</course>
  <speed>1.951640335717624</speed>
  <fix>3d</fix>
</trkpt>
<trkpt lat="-27.2742954" lon="151.2900728">
  <ele>387.52</ele>
  <time>2026-09-01T19:56:49Z</time>
  <course>2.75</course>
  <speed>2.29</speed>
  <fix>3d</fix>
</trkpt>
<trkpt lat="-27.2742906" lon="151.290073">
  <ele>387.54</ele>
  <time>2026-09-01T19:56:49Z</time>
  <course>10.68</course>
  <speed>1.820988742414406</speed>
  <fix>3d</fix>
</trkpt>
<trkpt lat="-27.2742954" lon="151.2900728">
  <ele>387.52</ele>
  <time>2026-09-01T19:56:49Z</time>
  <course>2.75</course>
  <speed>2.29</speed>
  <fix>3d</fix>
</trkpt>
<trkpt lat="-27.2742889" lon="151.2900731">
  <ele>387.52</ele>
  <time>2026-09-01T19:56:49Z</time>
  <course>10.73</course>
  <speed>1.6907394831847986</speed>
  <fix>3d</fix>
</trkpt>
<trkpt lat="-27.2742916" lon="151.290073">
  <ele>387.47</ele>
  <time>2026-09-01T19:56:49Z</time>
  <course>2.21</course>
  <speed>1.99</speed>
  <fix>3d</fix>
</trkpt>
<trkpt lat="-27.2742874" lon="151.2900731">
  <ele>387.51</ele>
  <time>2026-09-01T19:56:49Z</time>
  <course>10.76</course>
  <speed>1.560288434873501</speed>
  <fix>3d</fix>
</trkpt>
<trkpt lat="-27.2742916" lon="151.290073">
  <ele>387.47</ele>
  <time>2026-09-01T19:56:49Z</time>
  <course>2.21</course>
  <speed>1.99</speed>
  <fix>3d</fix>
</trkpt>
<trkpt lat="-27.274286" lon="151.2900731">
  <ele>387.49</ele>
  <time>2026-09-01T19:56:49Z</time>
  <course>10.8</course>
  <speed>1.4401388821915753</speed>
  <fix>3d</fix>
</trkpt>
<trkpt lat="-27.2742882" lon="151.2900731">
  <ele>387.44</ele>
  <time>2026-09-01T19:56:49Z</time>
  <course>1.5</course>
  <speed>1.72</speed>
  <fix>3d</fix>
</trkpt>
<trkpt lat="-27.2742847" lon="151.2900732">
  <ele>387.48</ele>
  <time>2026-09-01T19:56:49Z</time>
  <course>10.82</course>
  <speed>1.33</speed>
  <fix>3d</fix>
</trkpt>
<trkpt lat="-27.2742882" lon="151.2900731">
  <ele>387.44</ele>
  <time>2026-09-01T19:56:49Z</time>
  <course>1.5</course>
  <speed>1.72</speed>
  <fix>3d</fix>
</trkpt>
<trkpt lat="-27.2742835" lon="151.2900731">
  <ele>387.47</ele>
  <time>2026-09-01T19:56:49Z</time>
  <course>10.85</course>
  <speed>1.22</speed>
  <fix>3d</fix>
</trkpt>
<trkpt lat="-27.2742853" lon="151.2900731">
  <ele>387.41</ele>
  <time>2026-09-01T19:56:49Z</time>
  <course>0.59</course>
  <speed>1.47</speed>
  <fix>3d</fix>
</trkpt>
<trkpt lat="-27.2742824" lon="151.2900731">
  <ele>387.47</ele>
  <time>2026-09-01T19:56:49Z</time>
  <course>10.87</course>
  <speed>1.120044641967453</speed>
  <fix>3d</fix>
</trkpt>
<trkpt lat="-27.2742853" lon="151.2900731">
  <ele>387.41</ele>
  <time>2026-09-01T19:56:49Z</time>
  <course>0.59</course>
  <speed>1.47</speed>
  <fix>3d</fix>
</trkpt>
<trkpt lat="-27.2742814" lon="151.2900731">
  <ele>387.47</ele>
  <time>2026-09-01T19:56:49Z</time>
  <course>10.89</course>
  <speed>1.0304368005850721</speed>
  <fix>3d</fix>
</trkpt>
<trkpt lat="-27.2742829" lon="151.2900731">
  <ele>387.39</ele>
  <time>2026-09-01T19:56:49Z</time>
  <course>359.46</course>
  <speed>1.25</speed>
  <fix>3d</fix>
</trkpt>
<trkpt lat="-27.2742805" lon="151.2900731">
  <ele>387.47</ele>
  <time>2026-09-01T19:56:49Z</time>
  <course>10.89</course>
  <speed>0.940850678907126</speed>
  <fix>3d</fix>
</trkpt>
<trkpt lat="-27.2742829" lon="151.2900731">
  <ele>387.39</ele>
  <time>2026-09-01T19:56:49Z</time>
  <course>359.46</course>
  <speed>1.25</speed>
  <fix>3d</fix>
</trkpt>
<trkpt lat="-27.2742797" lon="151.2900731">
  <ele>387.47</ele>
  <time>2026-09-01T19:56:49Z</time>
  <course>10.9</course>
  <speed>0.8614522621712709</speed>
  <fix>3d</fix>
</trkpt>
<trkpt lat="-27.2742808" lon="151.2900731">
  <ele>387.38</ele>
  <time>2026-09-01T19:56:49Z</time>
  <course>358.09</course>
  <speed>1.05</speed>
  <fix>3d</fix>
</trkpt>
<trkpt lat="-27.2742789" lon="151.290073">
  <ele>387.47</ele>
  <time>2026-09-01T19:56:49Z</time>
  <course>10.91</course>
  <speed>0.7816009211867653</speed>
  <fix>3d</fix>
</trkpt>
<trkpt lat="-27.2742808" lon="151.2900731">
  <ele>387.38</ele>
  <time>2026-09-01T19:56:49Z</time>
  <course>358.09</course>
  <speed>1.05</speed>
  <fix>3d</fix>
</trkpt>
<trkpt lat="-27.2742782" lon="151.290073">
  <ele>387.48</ele>
  <time>2026-09-01T19:56:49Z</time>
  <course>10.92</course>
  <speed>0.7125307010929425</speed>
  <fix>3d</fix>
</trkpt>
<trkpt lat="-27.2742791" lon="151.290073">
  <ele>387.38</ele>
  <time>2026-09-01T19:56:49Z</time>
  <course>356.47</course>
  <speed>0.88</speed>
  <fix>3d</fix>
</trkpt>
<trkpt lat="-27.2742775" lon="151.2900729">
  <ele>387.49</ele>
  <time>2026-09-01T19:56:49Z</time>
  <course>10.93</course>
  <speed>0.6537583651472461</speed>
  <fix>3d</fix>
</trkpt>
<trkpt lat="-27.2742791" lon="151.290073">
  <ele>387.38</ele>
  <time>2026-09-01T19:56:49Z</time>
  <course>356.47</course>
  <speed>0.88</speed>
  <fix>3d</fix>
</trkpt>
<trkpt lat="-27.2742769" lon="151.2900728">
  <ele>387.49</ele>
  <time>2026-09-01T19:56:49Z</time>
  <course>10.94</course>
  <speed>0.594138031100518</speed>
  <fix>3d</fix>
</trkpt>
<trkpt lat="-27.2742777" lon="151.2900729">
  <ele>387.4</ele>
  <time>2026-09-01T19:56:49Z</time>
  <course>354.58</course>
  <speed>0.73</speed>
  <fix>3d</fix>
</trkpt>
<trkpt lat="-27.2742764" lon="151.2900727">
  <ele>387.5</ele>
  <time>2026-09-01T19:56:49Z</time>
  <course>10.94</course>
  <speed>0.5458937625582473</speed>
  <fix>3d</fix>
</trkpt>
<trkpt lat="-27.2742777" lon="151.2900729">
  <ele>387.4</ele>
  <time>2026-09-01T19:56:49Z</time>
  <course>354.58</course>
  <speed>0.73</speed>
  <fix>3d</fix>
</trkpt>
<trkpt lat="-27.2742759" lon="151.2900726">
  <ele>387.51</ele>
  <time>2026-09-01T19:56:49Z</time>
  <course>10.95</course>
  <speed>0.49648766349225637</speed>
  <fix>3d</fix>
</trkpt>
<trkpt lat="-27.2742765" lon="151.2900728">
  <ele>387.41</ele>
  <time>2026-09-01T19:56:49Z</time>
  <course>352.46</course>
  <speed>0.61</speed>
  <fix>3d</fix>
</trkpt>
<trkpt lat="-27.2742754" lon="151.2900726">
  <ele>387.52</ele>
  <time>2026-09-01T19:56:49Z</time>
  <course>10.95</course>
  <speed>0.4570557952810576</speed>
  <fix>3d</fix>
</trkpt>
<trkpt lat="-27.2742765" lon="151.2900728">
  <ele>387.41</ele>
  <time>2026-09-01T19:56:49Z</time>
  <course>352.46</course>
  <speed>0.61</speed>
  <fix>3d</fix>
</trkpt>
<trkpt lat="-27.274275" lon="151.2900725">
  <ele>387.54</ele>
  <time>2026-09-01T19:56:49Z</time>
  <course>10.95</course>
  <speed>0.42755116652863895</speed>
  <fix>3d</fix>
</trkpt>
<trkpt lat="-27.2742755" lon="151.2900727">
  <ele>387.44</ele>
  <time>2026-09-01T19:56:49Z</time>
  <course>350.2</course>
  <speed>0.51</speed>
  <fix>3d</fix>
</trkpt>
<trkpt lat="-27.2742746" lon="151.2900724">
  <ele>387.55</ele>
  <time>2026-09-01T19:56:49Z</time>
  <course>10.95</course>
  <speed>0.388329756778952</speed>
  <fix>3d</fix>
</trkpt>
<trkpt lat="-27.2742755" lon="151.2900727">
  <ele>387.44</ele>
  <time>2026-09-01T19:56:49Z</time>
  <course>350.2</course>
  <speed>0.51</speed>
  <fix>3d</fix>
</trkpt>
<trkpt lat="-27.2742742" lon="151.2900723">
  <ele>387.55</ele>
  <time>2026-09-01T19:56:49Z</time>
  <course>10.95</course>
  <speed>0.3687817782917155</speed>
  <fix>3d</fix>
</trkpt>
<trkpt lat="-27.2742747" lon="151.2900725">
  <ele>387.46</ele>
  <time>2026-09-01T19:56:49Z</time>
  <course>347.95</course>
  <speed>0.43</speed>
  <fix>3d</fix>
</trkpt>
<trkpt lat="-27.2742739" lon="151.2900722">
  <ele>387.56</ele>
  <time>2026-09-01T19:56:49Z</time>
  <course>10.95</course>
  <speed>0.33955853692699295</speed>
  <fix>3d</fix>
</trkpt>
<trkpt lat="-27.2742747" lon="151.2900725">
  <ele>387.46</ele>
  <time>2026-09-01T19:56:49Z</time>
  <course>347.95</course>
  <speed>0.43</speed>
  <fix>3d</fix>
</trkpt>
<trkpt lat="-27.2742736" lon="151.2900721">
  <ele>387.55</ele>
  <time>2026-09-01T19:56:49Z</time>
  <course>10.95</course>
  <speed>0.3298484500494128</speed>
  <fix>3d</fix>
</trkpt>
<trkpt lat="-27.2742739" lon="151.2900723">
  <ele>387.47</ele>
  <time>2026-09-01T19:56:49Z</time>
  <course>345.95</course>
  <speed>0.37</speed>
  <fix>3d</fix>
</trkpt>
<trkpt lat="-27.2742733" lon="151.2900721">
  <ele>387.54</ele>
  <time>2026-09-01T19:56:49Z</time>
  <course>10.95</course>
  <speed>0.3080584360149873</speed>
  <fix>3d</fix>
</trkpt>
<trkpt lat="-27.2742739" lon="151.2900723">
  <ele>387.47</ele>
  <time>2026-09-01T19:56:49Z</time>
  <course>345.95</course>
  <speed>0.37</speed>
  <fix>3d</fix>
</trkpt>
<trkpt lat="-27.274273" lon="151.290072">
  <ele>387.51</ele>
  <time>2026-09-01T19:56:49Z</time>
  <course>10.95</course>
  <speed>0.29832867780352595</speed>
  <fix>3d</fix>
</trkpt>
<trkpt lat="-27.2742733" lon="151.290072">
  <ele>387.46</ele>
  <time>2026-09-01T19:56:49Z</time>
  <course>344.57</course>
  <speed>0.33</speed>
  <fix>3d</fix>
</trkpt>
<trkpt lat="-27.2742727" lon="151.2900719">
  <ele>387.46</ele>
  <time>2026-09-01T19:56:49Z</time>
  <course>10.95</course>
  <speed>0.28861739379323625</speed>
  <fix>3d</fix>
</trkpt>
<trkpt lat="-27.2742733" lon="151.290072">
  <ele>387.46</ele>
  <time>2026-09-01T19:56:49Z</time>
  <course>344.57</course>
  <speed>0.33</speed>
  <fix>3d</fix>
</trkpt>
<trkpt lat="-27.2742725" lon="151.2900718">
  <ele>387.39</ele>
  <time>2026-09-01T19:56:49Z</time>
  <course>10.93</course>
  <speed>0.2765863337187866</speed>
  <fix>3d</fix>
</trkpt>
<trkpt lat="-27.2742727" lon="151.2900719">
  <ele>387.41</ele>
  <time>2026-09-01T19:56:49Z</time>
  <course>344.05</course>
  <speed>0.31</speed>
  <fix>3d</fix>
</trkpt>
<trkpt lat="-27.2742722" lon="151.2900718">
  <ele>387.3</ele>
  <time>2026-09-01T19:56:49Z</time>
  <course>10.89</course>
  <speed>0.2765863337187866</speed>
  <fix>3d</fix>
</trkpt>
<trkpt lat="-27.2742727" lon="151.2900719">
  <ele>387.41</ele>
  <time>2026-09-01T19:56:49Z</time>
  <course>344.05</course>
  <speed>0.31</speed>
  <fix>3d</fix>
</trkpt>
<trkpt lat="-27.2742719" lon="151.2900717">
  <ele>387.19</ele>
  <time>2026-09-01T19:56:49Z</time>
  <course>10.83</course>
  <speed>0.26476404589747454</speed>
  <fix>3d</fix>
</trkpt>
<trkpt lat="-27.2742722" lon="151.2900718">
  <ele>387.28</ele>
  <time>2026-09-01T19:56:49Z</time>
  <course>344.5</course>
  <speed>0.29</speed>
  <fix>3d</fix>
</trkpt>
<trkpt lat="-27.2742717" lon="151.2900716">
  <ele>387.07</ele>
  <time>2026-09-01T19:56:49Z</time>
  <course>10.75</course>
  <speed>0.26305892875931813</speed>
  <fix>3d</fix>
</trkpt>
<trkpt lat="-27.2742722" lon="151.2900718">
  <ele>387.28</ele>
  <time>2026-09-01T19:56:49Z</time>
  <course>344.5</course>
  <speed>0.29</speed>
  <fix>3d</fix>
</trkpt>
<trkpt lat="-27.2742714" lon="151.2900716">
  <ele>386.93</ele>
  <time>2026-09-01T19:56:49Z</time>
  <course>10.66</course>
  <speed>0.261725046566048</speed>
  <fix>3d</fix>
</trkpt>
<trkpt lat="-27.2742717" lon="151.2900716">
  <ele>387.09</ele>
  <time>2026-09-01T19:56:49Z</time>
  <course>346.18</course>
  <speed>0.27</speed>
  <fix>3d</fix>
</trkpt>
<trkpt lat="-27.2742712" lon="151.2900716">
  <ele>386.78</ele>
  <time>2026-09-01T19:56:49Z</time>
  <course>10.58</course>
  <speed>0.260768096208106</speed>
  <fix>3d</fix>
</trkpt>
<trkpt lat="-27.2742717" lon="151.2900716">
  <ele>387.09</ele>
  <time>2026-09-01T19:56:49Z</time>
  <course>346.18</course>
  <speed>0.27</speed>
  <fix>3d</fix>
</trkpt>
<trkpt lat="-27.2742709" lon="151.2900715">
  <ele>386.63</ele>
  <time>2026-09-01T19:56:49Z</time>
  <course>10.51</course>
  <speed>0.2601922366251538</speed>
  <fix>3d</fix>
</trkpt>
<trkpt lat="-27.2742712" lon="151.2900715">
  <ele>386.83</ele>
  <time>2026-09-01T19:56:49Z</time>
  <course>349.15</course>
  <speed>0.27</speed>
  <fix>3d</fix>
</trkpt>
<trkpt lat="-27.2742707" lon="151.2900715">
  <ele>386.47</ele>
  <time>2026-09-01T19:56:49Z</time>
  <course>10.47</course>
  <speed>0.27</speed>
  <fix>3d</fix>
</trkpt>
<trkpt lat="-27.2742712" lon="151.2900715">
  <ele>386.83</ele>
  <time>2026-09-01T19:56:49Z</time>
  <course>349.15</course>
  <speed>0.27</speed>
  <fix>3d</fix>
</trkpt>
<trkpt lat="-27.2742704" lon="151.2900715">
  <ele>386.3</ele>
  <time>2026-09-01T19:56:49Z</time>
  <course>10.45</course>
  <speed>0.28</speed>
  <fix>3d</fix>
</trkpt>
<trkpt lat="-27.2742707" lon="151.2900714">
  <ele>386.53</ele>
  <time>2026-09-01T19:56:49Z</time>
  <course>352.86</course>
  <speed>0.27</speed>
  <fix>3d</fix>
</trkpt>
<trkpt lat="-27.2742701" lon="151.2900715">
  <ele>386.14</ele>
  <time>2026-09-01T19:56:49Z</time>
  <course>10.47</course>
  <speed>0.29</speed>
  <fix>3d</fix>
</trkpt>
<trkpt lat="-27.2742707" lon="151.2900714">
  <ele>386.53</ele>
  <time>2026-09-01T19:56:49Z</time>
  <course>352.86</course>
  <speed>0.27</speed>
  <fix>3d</fix>
</trkpt>
<trkpt lat="-27.2742699" lon="151.2900715">
  <ele>385.97</ele>
  <time>2026-09-01T19:56:49Z</time>
  <course>10.52</course>
  <speed>0.30016662039607267</speed>
  <fix>3d</fix>
</trkpt>
<trkpt lat="-27.2742702" lon="151.2900713">
  <ele>386.21</ele>
  <time>2026-09-01T19:56:49Z</time>
  <course>356.51</course>
  <speed>0.28</speed>
  <fix>3d</fix>
</trkpt>
<trkpt lat="-27.2742696" lon="151.2900715">
  <ele>385.81</ele>
  <time>2026-09-01T19:56:49Z</time>
  <course>10.58</course>
  <speed>0.30066592756745814</speed>
  <fix>3d</fix>
</trkpt>
<trkpt lat="-27.2742702" lon="151.2900713">
  <ele>386.21</ele>
  <time>2026-09-01T19:56:49Z</time>
  <course>356.51</course>
  <speed>0.28</speed>
  <fix>3d</fix>
</trkpt>
<trkpt lat="-27.2742693" lon="151.2900714">
  <ele>385.64</ele>
  <time>2026-09-01T19:56:49Z</time>
  <course>10.65</course>
  <speed>0.31144823004794875</speed>
  <fix>3d</fix>
</trkpt>
<trkpt lat="-27.2742697" lon="151.2900713">
  <ele>385.88</ele>
  <time>2026-09-01T19:56:49Z</time>
  <course>359.59</course>
  <speed>0.3</speed>
  <fix>3d</fix>
</trkpt>
<trkpt lat="-27.274269" lon="151.2900714">
  <ele>385.48</ele>
  <time>2026-09-01T19:56:49Z</time>
  <course>10.72</course>
  <speed>0.32140317359976395</speed>
  <fix>3d</fix>
</trkpt>
<trkpt lat="-27.2742697" lon="151.2900713">
  <ele>385.88</ele>
  <time>2026-09-01T19:56:49Z</time>
  <course>359.59</course>
  <speed>0.3</speed>
  <fix>3d</fix>
</trkpt>
<trkpt lat="-27.2742687" lon="151.2900714">
  <ele>385.31</ele>
  <time>2026-09-01T19:56:49Z</time>
  <course>10.78</course>
  <speed>0.33241540277189324</speed>
  <fix>3d</fix>
</trkpt>
<trkpt lat="-27.2742692" lon="151.2900713">
  <ele>385.55</ele>
  <time>2026-09-01T19:56:49Z</time>
  <course>1.98</course>
  <speed>0.32</speed>
  <fix>3d</fix>
</trkpt>
<trkpt lat="-27.2742684" lon="151.2900715">
  <ele>385.16</ele>
  <time>2026-09-01T19:56:49Z</time>
  <course>10.83</course>
  <speed>0.3423448553724738</speed>
  <fix>3d</fix>
</trkpt>
<trkpt lat="-27.2742692" lon="151.2900713">
  <ele>385.55</ele>
  <time>2026-09-01T19:56:49Z</time>
  <course>1.98</course>
  <speed>0.32</speed>
  <fix>3d</fix>
</trkpt>
<trkpt lat="-27.2742681" lon="151.2900715">
  <ele>385.0</ele>
  <time>2026-09-01T19:56:49Z</time>
  <course>10.87</course>
  <speed>0.3535533905932738</speed>
  <fix>3d</fix>
</trkpt>
<trkpt lat="-27.2742686" lon="151.2900713">
  <ele>385.23</ele>
  <time>2026-09-01T19:56:49Z</time>
  <course>3.76</course>
  <speed>0.34</speed>
  <fix>3d</fix>
</trkpt>
<trkpt lat="-27.2742677" lon="151.2900715">
  <ele>384.85</ele>
  <time>2026-09-01T19:56:49Z</time>
  <course>10.9</course>
  <speed>0.3634556369077249</speed>
  <fix>3d</fix>
</trkpt>
<trkpt lat="-27.2742686" lon="151.2900713">
  <ele>385.23</ele>
  <time>2026-09-01T19:56:49Z</time>
  <course>3.76</course>
  <speed>0.34</speed>
  <fix>3d</fix>
</trkpt>
<trkpt lat="-27.2742674" lon="151.2900716">
  <ele>384.7</ele>
  <time>2026-09-01T19:56:49Z</time>
  <course>10.91</course>
  <speed>0.37336309405188944</speed>
  <fix>3d</fix>
</trkpt>
<trkpt lat="-27.2742679" lon="151.2900713">
  <ele>384.93</ele>
  <time>2026-09-01T19:56:49Z</time>
  <course>5.04</course>
  <speed>0.36</speed>
  <fix>3d</fix>
</trkpt>
<trkpt lat="-27.2742671" lon="151.2900716">
  <ele>384.56</ele>
  <time>2026-09-01T19:56:49Z</time>
  <course>10.92</course>
  <speed>0.37483329627982626</speed>
  <fix>3d</fix>
</trkpt>
<trkpt lat="-27.2742679" lon="151.2900713">
  <ele>384.93</ele>
  <time>2026-09-01T19:56:49Z</time>
  <course>5.04</course>
  <speed>0.36</speed>
  <fix>3d</fix>
</trkpt>
<trkpt lat="-27.2742667" lon="151.2900717">
  <ele>384.42</ele>
  <time>2026-09-01T19:56:49Z</time>
  <course>10.91</course>
  <speed>0.38470768123342686</speed>
  <fix>3d</fix>
</trkpt>
<trkpt lat="-27.2742672" lon="151.2900714">
  <ele>384.63</ele>
  <time>2026-09-01T19:56:49Z</time>
  <course>5.98</course>
  <speed>0.38</speed>
  <fix>3d</fix>
</trkpt>
<trkpt lat="-27.2742664" lon="151.2900717">
  <ele>384.27</ele>
  <time>2026-09-01T19:56:49Z</time>
  <course>10.9</course>
  <speed>0.3945883931389772</speed>
  <fix>3d</fix>
</trkpt>
<trkpt lat="-27.2742672" lon="151.2900714">
  <ele>384.63</ele>
  <time>2026-09-01T19:56:49Z</time>
  <course>5.98</course>
  <speed>0.38</speed>
  <fix>3d</fix>
</trkpt>
<trkpt lat="-27.274266" lon="151.2900718">
  <ele>384.13</ele>
  <time>2026-09-01T19:56:49Z</time>
  <course>10.89</course>
  <speed>0.396232255123179</speed>
  <fix>3d</fix>
</trkpt>
<trkpt lat="-27.2742665" lon="151.2900715">
  <ele>384.34</ele>
  <time>2026-09-01T19:56:49Z</time>
  <course>6.7</course>
  <speed>0.39</speed>
  <fix>3d</fix>
</trkpt>
<trkpt lat="-27.2742656" lon="151.2900718">
  <ele>383.99</ele>
  <time>2026-09-01T19:56:49Z</time>
  <course>10.88</course>
  <speed>0.396232255123179</speed>
  <fix>3d</fix>
</trkpt>
<trkpt lat="-27.2742665" lon="151.2900715">
  <ele>384.34</ele>
  <time>2026-09-01T19:56:49Z</time>
  <course>6.7</course>
  <speed>0.39</speed>
  <fix>3d</fix>
</trkpt>
<trkpt lat="-27.2742653" lon="151.2900719">
  <ele>383.85</ele>
  <time>2026-09-01T19:56:49Z</time>
  <course>10.88</course>
  <speed>0.40607881008493907</speed>
  <fix>3d</fix>
</trkpt>
<trkpt lat="-27.2742658" lon="151.2900716">
  <ele>384.07</ele>
  <time>2026-09-01T19:56:49Z</time>
  <course>7.31</course>
  <speed>0.4</speed>
  <fix>3d</fix>
</trkpt>
<trkpt lat="-27.2742649" lon="151.2900719">
  <ele>383.71</ele>
  <time>2026-09-01T19:56:49Z</time>
  <course>10.88</course>
  <speed>0.40607881008493907</speed>
  <fix>3d</fix>
</trkpt>
<trkpt lat="-27.2742658" lon="151.2900716">
  <ele>384.07</ele>
  <time>2026-09-01T19:56:49Z</time>
  <course>7.31</course>
  <speed>0.4</speed>
  <fix>3d</fix>
</trkpt>
<trkpt lat="-27.2742645" lon="151.290072">
  <ele>383.57</ele>
  <time>2026-09-01T19:56:49Z</time>
  <course>10.88</course>
  <speed>0.40607881008493907</speed>
  <fix>3d</fix>
</trkpt>
<trkpt lat="-27.2742651" lon="151.2900717">
  <ele>383.78</ele>
  <time>2026-09-01T19:56:49Z</time>
  <course>7.81</course>
  <speed>0.41</speed>
  <fix>3d</fix>
</trkpt>
<trkpt lat="-27.2742641" lon="151.290072">
  <ele>383.42</ele>
  <time>2026-09-01T19:56:49Z</time>
  <course>10.89</course>
  <speed>0.4079215610874228</speed>
  <fix>3d</fix>
</trkpt>
<trkpt lat="-27.2742651" lon="151.2900717">
  <ele>383.78</ele>
  <time>2026-09-01T19:56:49Z</time>
  <course>7.81</course>
  <speed>0.41</speed>
  <fix>3d</fix>
</trkpt>
<trkpt lat="-27.2742638" lon="151.2900721">
  <ele>383.28</ele>
  <time>2026-09-01T19:56:49Z</time>
  <course>10.89</course>
  <speed>0.4079215610874228</speed>
  <fix>3d</fix>
</trkpt>
<trkpt lat="-27.2742644" lon="151.2900718">
  <ele>383.5</ele>
  <time>2026-09-01T19:56:49Z</time>
  <course>8.23</course>
  <speed>0.42</speed>
  <fix>3d</fix>
</trkpt>
<trkpt lat="-27.2742634" lon="151.2900722">
  <ele>383.14</ele>
  <time>2026-09-01T19:56:49Z</time>
  <course>10.9</course>
  <speed>0.39812058474788764</speed>
  <fix>3d</fix>
</trkpt>
<trkpt lat="-27.2742644" lon="151.2900718">
  <ele>383.5</ele>
  <time>2026-09-01T19:56:49Z</time>
  <course>8.23</course>
  <speed>0.42</speed>
  <fix>3d</fix>
</trkpt>
<trkpt lat="-27.2742631" lon="151.2900722">
  <ele>382.99</ele>
  <time>2026-09-01T19:56:49Z</time>
  <course>10.9</course>
  <speed>0.39812058474788764</speed>
  <fix>3d</fix>
</trkpt>
<trkpt lat="-27.2742636" lon="151.2900719">
  <ele>383.21</ele>
  <time>2026-09-01T19:56:49Z</time>
  <course>8.6</course>
  <speed>0.41</speed>
  <fix>3d</fix>
</trkpt>
<trkpt lat="-27.2742627" lon="151.2900723">
  <ele>382.84</ele>
  <time>2026-09-01T19:56:49Z</time>
  <course>10.9</course>
  <speed>0.388329756778952</speed>
  <fix>3d</fix>
</trkpt>
<trkpt lat="-27.2742636" lon="151.2900719">
  <ele>383.21</ele>
  <time>2026-09-01T19:56:49Z</time>
  <course>8.6</course>
  <speed>0.41</speed>
  <fix>3d</fix>
</trkpt>
<trkpt lat="-27.2742623" lon="151.2900723">
  <ele>382.7</ele>
  <time>2026-09-01T19:56:49Z</time>
  <course>10.9</course>
  <speed>0.388329756778952</speed>
  <fix>3d</fix>
</trkpt>
<trkpt lat="-27.2742628" lon="151.290072">
  <ele>382.92</ele>
  <time>2026-09-01T19:56:49Z</time>
  <course>8.92</course>
  <speed>0.41</speed>
  <fix>3d</fix>
</trkpt>
<trkpt lat="-27.274262" lon="151.2900724">
  <ele>382.55</ele>
  <time>2026-09-01T19:56:49Z</time>
  <course>10.9</course>
  <speed>0.378549864614954</speed>
  <fix>3d</fix>
</trkpt>
<trkpt lat="-27.2742628" lon="151.290072">
  <ele>382.92</ele>
  <time>2026-09-01T19:56:49Z</time>
  <course>8.92</course>
  <speed>0.41</speed>
  <fix>3d</fix>
</trkpt>
<trkpt lat="-27.2742616" lon="151.2900725">
  <ele>382.4</ele>
  <time>2026-09-01T19:56:50Z</time>
  <course>10.89</course>
  <speed>0.3687817782917155</speed>
  <fix>3d</fix>
</trkpt>
<trkpt lat="-27.2742621" lon="151.2900722">
  <ele>382.63</ele>
  <time>2026-09-01T19:56:50Z</time>
  <course>9.25</course>
  <speed>0.4</speed>
  <fix>3d</fix>
</trkpt>
<trkpt lat="-27.2742613" lon="151.2900725">
  <ele>382.25</ele>
  <time>2026-09-01T19:56:50Z</time>
  <course>10.9</course>
  <speed>0.3590264614203248</speed>
  <fix>3d</fix>
</trkpt>
<trkpt lat="-27.2742621" lon="151.2900722">
  <ele>382.63</ele>
  <time>2026-09-01T19:56:50Z</time>
  <course>9.25</course>
  <speed>0.4</speed>
  <fix>3d</fix>
</trkpt>
<trkpt lat="-27.274261" lon="151.2900726">
  <ele>382.1</ele>
  <time>2026-09-01T19:56:50Z</time>
  <course>10.9</course>
  <speed>0.34928498393145957</speed>
  <fix>3d</fix>
</trkpt>
<trkpt lat="-27.2742614" lon="151.2900723">
  <ele>382.34</ele>
  <time>2026-09-01T19:56:50Z</time>
  <course>9.58</course>
  <speed>0.38</speed>
  <fix>3d</fix>
</trkpt>
<trkpt lat="-27.2742607" lon="151.2900726">
  <ele>381.95</ele>
  <time>2026-09-01T19:56:50Z</time>
  <course>10.91</course>
  <speed>0.33734255586865997</speed>
  <fix>3d</fix>
</trkpt>
<trkpt lat="-27.2742614" lon="151.2900723">
  <ele>382.34</ele>
  <time>2026-09-01T19:56:50Z</time>
  <course>9.58</course>
  <speed>0.38</speed>
  <fix>3d</fix>
</trkpt>
<trkpt lat="-27.2742603" lon="151.2900727">
  <ele>381.79</ele>
  <time>2026-09-01T19:56:50Z</time>
  <course>10.91</course>
  <speed>0.327566787083184</speed>
  <fix>3d</fix>
</trkpt>
<trkpt lat="-27.2742608" lon="151.2900725">
  <ele>382.04</ele>
  <time>2026-09-01T19:56:50Z</time>
  <course>9.84</course>
  <speed>0.37</speed>
  <fix>3d</fix>
</trkpt>
<trkpt lat="-27.27426" lon="151.2900728">
  <ele>381.65</ele>
  <time>2026-09-01T19:56:50Z</time>
  <course>10.91</course>
  <speed>0.3178049716414141</speed>
  <fix>3d</fix>
</trkpt>
<trkpt lat="-27.2742608" lon="151.2900725">
  <ele>382.04</ele>
  <time>2026-09-01T19:56:50Z</time>
  <course>9.84</course>
  <speed>0.37</speed>
  <fix>3d</fix>
</trkpt>
<trkpt lat="-27.2742597" lon="151.2900728">
  <ele>381.5</ele>
  <time>2026-09-01T19:56:50Z</time>
  <course>10.9</course>
  <speed>0.3080584360149873</speed>
  <fix>3d</fix>
</trkpt>
<trkpt lat="-27.2742601" lon="151.2900726">
  <ele>381.74</ele>
  <time>2026-09-01T19:56:50Z</time>
  <course>10.04</course>
  <speed>0.35</speed>
  <fix>3d</fix>
</trkpt>
<trkpt lat="-27.2742595" lon="151.2900729">
  <ele>381.35</ele>
  <time>2026-09-01T19:56:50Z</time>
  <course>10.9</course>
  <speed>0.28861739379323625</speed>
  <fix>3d</fix>
</trkpt>
<trkpt lat="-27.2742601" lon="151.2900726">
  <ele>381.74</ele>
  <time>2026-09-01T19:56:50Z</time>
  <course>10.04</course>
  <speed>0.35</speed>
  <fix>3d</fix>
</trkpt>
<trkpt lat="-27.2742592" lon="151.2900729">
  <ele>381.2</ele>
  <time>2026-09-01T19:56:50Z</time>
  <course>10.9</course>
  <speed>0.27892651361962706</speed>
  <fix>3d</fix>
</trkpt>
<trkpt lat="-27.2742595" lon="151.2900727">
  <ele>381.44</ele>
  <time>2026-09-01T19:56:50Z</time>
  <course>10.26</course>
  <speed>0.32</speed>
  <fix>3d</fix>
</trkpt>
<trkpt lat="-27.2742589" lon="151.290073">
  <ele>381.05</ele>
  <time>2026-09-01T19:56:50Z</time>
  <course>10.9</course>
  <speed>0.2668332812825267</speed>
  <fix>3d</fix>
</trkpt>
<trkpt lat="-27.2742595" lon="151.2900727">
  <ele>381.44</ele>
  <time>2026-09-01T19:56:50Z</time>
  <course>10.26</course>
  <speed>0.32</speed>
  <fix>3d</fix>
</trkpt>
<trkpt lat="-27.2742587" lon="151.290073">
  <ele>380.9</ele>
  <time>2026-09-01T19:56:50Z</time>
  <course>10.9</course>
  <speed>0.24738633753705963</speed>
  <fix>3d</fix>
</trkpt>
<trkpt lat="-27.274259" lon="151.2900728">
  <ele>381.14</ele>
  <time>2026-09-01T19:56:50Z</time>
  <course>10.51</course>
  <speed>0.3</speed>
  <fix>3d</fix>
</trkpt>
<trkpt lat="-27.2742585" lon="151.2900731">
  <ele>380.75</ele>
  <time>2026-09-01T19:56:50Z</time>
  <course>10.9</course>
  <speed>0.23769728648009425</speed>
  <fix>3d</fix>
</trkpt>
<trkpt lat="-27.274259" lon="151.2900728">
  <ele>381.14</ele>
  <time>2026-09-01T19:56:50Z</time>
  <course>10.51</course>
  <speed>0.3</speed>
  <fix>3d</fix>
</trkpt>
<trkpt lat="-27.2742582" lon="151.2900731">
  <ele>380.6</ele>
  <time>2026-09-01T19:56:50Z</time>
  <course>10.9</course>
  <speed>0.21840329667841554</speed>
  <fix>3d</fix>
</trkpt>
<trkpt lat="-27.2742584" lon="151.2900729">
  <ele>380.84</ele>
  <time>2026-09-01T19:56:50Z</time>
  <course>10.74</course>
  <speed>0.27</speed>
  <fix>3d</fix>
</trkpt>
<trkpt lat="-27.274258" lon="151.2900732">
  <ele>380.45</ele>
  <time>2026-09-01T19:56:50Z</time>
  <course>10.9</course>
  <speed>0.20615528128088303</speed>
  <fix>3d</fix>
</trkpt>
<trkpt lat="-27.2742584" lon="151.2900729">
  <ele>380.84</ele>
  <time>2026-09-01T19:56:50Z</time>
  <course>10.74</course>
  <speed>0.27</speed>
  <fix>3d</fix>
</trkpt>
<trkpt lat="-27.2742578" lon="151.2900732">
  <ele>380.3</ele>
  <time>2026-09-01T19:56:50Z</time>
  <course>10.91</course>
  <speed>0.196468827043885</speed>
  <fix>3d</fix>
</trkpt>
<trkpt lat="-27.2742579" lon="151.290073">
  <ele>380.54</ele>
  <time>2026-09-01T19:56:50Z</time>
  <course>10.96</course>
  <speed>0.24</speed>
  <fix>3d</fix>
</trkpt>
<trkpt lat="-27.2742576" lon="151.2900732">
  <ele>380.15</ele>
  <time>2026-09-01T19:56:50Z</time>
  <course>10.91</course>
  <speed>0.1772004514666935</speed>
  <fix>3d</fix>
</trkpt>
<trkpt lat="-27.2742579" lon="151.290073">
  <ele>380.54</ele>
  <time>2026-09-01T19:56:50Z</time>
  <course>10.96</course>
  <speed>0.24</speed>
  <fix>3d</fix>
</trkpt>
<trkpt lat="-27.2742575" lon="151.2900733">
  <ele>380.0</ele>
  <time>2026-09-01T19:56:50Z</time>
  <course>10.91</course>
  <speed>0.1676305461424021</speed>
  <fix>3d</fix>
</trkpt>
<trkpt lat="-27.2742576" lon="151.2900731">
  <ele>380.24</ele>
  <time>2026-09-01T19:56:50Z</time>
  <course>11.29</course>
  <speed>0.21</speed>
  <fix>3d</fix>
</trkpt>
<trkpt lat="-27.2742573" lon="151.2900733">
  <ele>379.86</ele>
  <time>2026-09-01T19:56:50Z</time>
  <course>10.92</course>
  <speed>0.14866068747318506</speed>
  <fix>3d</fix>
</trkpt>
<trkpt lat="-27.2742576" lon="151.2900731">
  <ele>380.24</ele>
  <time>2026-09-01T19:56:50Z</time>
  <course>11.29</course>
  <speed>0.21</speed>
  <fix>3d</fix>
</trkpt>
<trkpt lat="-27.2742572" lon="151.2900733">
  <ele>379.71</ele>
  <time>2026-09-01T19:56:50Z</time>
  <course>10.92</course>
  <speed>0.13601470508735444</speed>
  <fix>3d</fix>
</trkpt>
<trkpt lat="-27.2742572" lon="151.2900732">
  <ele>379.94</ele>
  <time>2026-09-01T19:56:50Z</time>
  <course>11.74</course>
  <speed>0.18</speed>
  <fix>3d</fix>
</trkpt>
<trkpt lat="-27.274257" lon="151.2900734">
  <ele>379.56</ele>
  <time>2026-09-01T19:56:50Z</time>
  <course>10.92</course>
  <speed>0.1264911064067352</speed>
  <fix>3d</fix>
</trkpt>
<trkpt lat="-27.2742572" lon="151.2900732">
  <ele>379.94</ele>
  <time>2026-09-01T19:56:50Z</time>
  <course>11.74</course>
  <speed>0.18</speed>
  <fix>3d</fix>
</trkpt>
<trkpt lat="-27.2742569" lon="151.2900734">
  <ele>379.41</ele>
  <time>2026-09-01T19:56:50Z</time>
  <course>10.93</course>
  <speed>0.10770329614269007</speed>
  <fix>3d</fix>
</trkpt>
<trkpt lat="-27.2742569" lon="151.2900733">
  <ele>379.64</ele>
  <time>2026-09-01T19:56:50Z</time>
  <course>12.19</course>
  <speed>0.16</speed>
  <fix>3d</fix>
</trkpt>
<trkpt lat="-27.2742568" lon="151.2900734">
  <ele>379.26</ele>
  <time>2026-09-01T19:56:50Z</time>
  <course>10.93</course>
  <speed>0.09848857801796104</speed>
  <fix>3d</fix>
</trkpt>
<trkpt lat="-27.2742569" lon="151.2900733">
  <ele>379.64</ele>
  <time>2026-09-01T19:56:50Z</time>
  <course>12.19</course>
  <speed>0.16</speed>
  <fix>3d</fix>
</trkpt>
<trkpt lat="-27.2742567" lon="151.2900735">
  <ele>379.11</ele>
  <time>2026-09-01T19:56:50Z</time>
  <course>10.94</course>
  <speed>0.0854400374531753</speed>
  <fix>3d</fix>
</trkpt>
<trkpt lat="-27.2742567" lon="151.2900733">
  <ele>379.34</ele>
  <time>2026-09-01T19:56:50Z</time>
  <course>12.63</course>
  <speed>0.13</speed>
  <fix>3d</fix>
</trkpt>
<trkpt lat="-27.2742566" lon="151.2900735">
  <ele>378.96</ele>
  <time>2026-09-01T19:56:50Z</time>
  <course>10.95</course>
  <speed>0.0670820393249937</speed>
  <fix>3d</fix>
</trkpt>
<trkpt lat="-27.2742567" lon="151.2900733">
  <ele>379.34</ele>
  <time>2026-09-01T19:56:50Z</time>
  <course>12.63</course>
  <speed>0.13</speed>
  <fix>3d</fix>
</trkpt>
<trkpt lat="-27.2742565" lon="151.2900735">
  <ele>378.8</ele>
  <time>2026-09-01T19:56:50Z</time>
  <course>10.95</course>
  <speed>0.05830951894845301</speed>
  <fix>3d</fix>
</trkpt>
<trkpt lat="-27.2742565" lon="151.2900733">
  <ele>379.04</ele>
  <time>2026-09-01T19:56:50Z</time>
  <course>13.06</course>
  <speed>0.1</speed>
  <fix>3d</fix>
</trkpt>
<trkpt lat="-27.2742565" lon="151.2900735">
  <ele>378.65</ele>
  <time>2026-09-01T19:56:50Z</time>
  <course>10.96</course>
  <speed>0.044721359549995794</speed>
  <fix>3d</fix>
</trkpt>
<trkpt lat="-27.2742565" lon="151.2900733">
  <ele>379.04</ele>
  <time>2026-09-01T19:56:50Z</time>
  <course>13.06</course>
  <speed>0.1</speed>
  <fix>3d</fix>
</trkpt>
<trkpt lat="-27.2742564" lon="151.2900735">
  <ele>378.49</ele>
  <time>2026-09-01T19:56:50Z</time>
  <course>10.98</course>
  <speed>0.03605551275463989</speed>
  <fix>3d</fix>
</trkpt>
<trkpt lat="-27.2742563" lon="151.2900734">
  <ele>378.74</ele>
  <time>2026-09-01T19:56:50Z</time>
  <course>13.44</course>
  <speed>0.08</speed>
  <fix>3d</fix>
</trkpt>
<trkpt lat="-27.2742564" lon="151.2900735">
  <ele>378.34</ele>
  <time>2026-09-01T19:56:50Z</time>
  <course>10.99</course>
  <speed>0.0282842712474619</speed>
  <fix>3d</fix>
</trkpt>
<trkpt lat="-27.2742563" lon="151.2900734">
  <ele>378.74</ele>
  <time>2026-09-01T19:56:50Z</time>
  <course>13.44</course>
  <speed>0.08</speed>
  <fix>3d</fix>
</trkpt>
<trkpt lat="-27.2742563" lon="151.2900735">
  <ele>378.19</ele>
  <time>2026-09-01T19:56:50Z</time>
  <course>11.01</course>
  <speed>0.022360679774997897</speed>
  <fix>3d</fix>
</trkpt>
<trkpt lat="-27.2742562" lon="151.2900735">
  <ele>378.44</ele>
  <time>2026-09-01T19:56:50Z</time>
  <course>13.41</course>
  <speed>0.05</speed>
  <fix>3d</fix>
</trkpt>
<trkpt lat="-27.2742563" lon="151.2900736">
  <ele>378.04</ele>
  <time>2026-09-01T19:56:50Z</time>
  <course>11.04</course>
  <speed>0.01</speed>
  <fix>3d</fix>
</trkpt>
<trkpt lat="-27.2742562" lon="151.2900735">
  <ele>378.44</ele>
  <time>2026-09-01T19:56:50Z</time>
  <course>13.41</course>
  <speed>0.05</speed>
  <fix>3d</fix>
</trkpt>
<trkpt lat="-27.2742563" lon="151.2900736">
  <ele>377.89</ele>
  <time>2026-09-01T19:56:50Z</time>
  <course>11.06</course>
  <speed>0.01</speed>
  <fix>3d</fix>
</trkpt>
<trkpt lat="-27.2742561" lon="151.2900735">
  <ele>378.14</ele>
  <time>2026-09-01T19:56:50Z</time>
  <course>10.99</course>
  <speed>0.03</speed>
  <fix>3d</fix>
</trkpt>
<trkpt lat="-27.2742563" lon="151.2900736">
  <ele>377.74</ele>
  <time>2026-09-01T19:56:50Z</time>
  <course>11.06</course>
  <speed>0.01414213562373095</speed>
  <fix>3d</fix>
</trkpt>
<trkpt lat="-27.2742561" lon="151.2900735">
  <ele>378.14</ele>
  <time>2026-09-01T19:56:50Z</time>
  <course>10.99</course>
  <speed>0.03</speed>
  <fix>3d</fix>
</trkpt>
<trkpt lat="-27.2742563" lon="151.2900736">
  <ele>377.59</ele>
  <time>2026-09-01T19:56:50Z</time>
  <course>11.05</course>
  <speed>0.022360679774997897</speed>
  <fix>3d</fix>
</trkpt>
<trkpt lat="-27.2742561" lon="151.2900735">
  <ele>377.85</ele>
  <time>2026-09-01T19:56:50Z</time>
  <course>4.5</course>
  <speed>0.01</speed>
  <fix>3d</fix>
</trkpt>
<trkpt lat="-27.2742563" lon="151.2900736">
  <ele>377.45</ele>
  <time>2026-09-01T19:56:50Z</time>
  <course>11.04</course>
  <speed>0.0316227766016838</speed>
  <fix>3d</fix>
</trkpt>
<trkpt lat="-27.2742561" lon="151.2900735">
  <ele>377.85</ele>
  <time>2026-09-01T19:56:50Z</time>
  <course>4.5</course>
  <speed>0.01</speed>
  <fix>3d</fix>
</trkpt>
<trkpt lat="-27.2742563" lon="151.2900736">
  <ele>377.3</ele>
  <time>2026-09-01T19:56:50Z</time>
  <course>11.03</course>
  <speed>0.0412310562561766</speed>
  <fix>3d</fix>
</trkpt>
<trkpt lat="-27.2742561" lon="151.2900735">
  <ele>377.55</ele>
  <time>2026-09-01T19:56:50Z</time>
  <course>221.04</course>
  <speed>0.0</speed>
  <fix>3d</fix>
</trkpt>
<trkpt lat="-27.2742564" lon="151.2900736">
  <ele>377.15</ele>
  <time>2026-09-01T19:56:50Z</time>
  <course>11.01</course>
  <speed>0.05099019513592785</speed>
  <fix>3d</fix>
</trkpt>
<trkpt lat="-27.2742561" lon="151.2900735">
  <ele>377.55</ele>
  <time>2026-09-01T19:56:50Z</time>
  <course>221.04</course>
  <speed>0.0</speed>
  <fix>3d</fix>
</trkpt>
<trkpt lat="-27.2742564" lon="151.2900736">
  <ele>377.0</ele>
  <time>2026-09-01T19:56:50Z</time>
  <course>10.99</course>
  <speed>0.06082762530298219</speed>
  <fix>3d</fix>
</trkpt>
<trkpt lat="-27.2742561" lon="151.2900735">
  <ele>377.25</ele>
  <time>2026-09-01T19:56:50Z</time>
  <course>197.14</course>
  <speed>0.02</speed>
  <fix>3d</fix>
</trkpt>
<trkpt lat="-27.2742564" lon="151.2900736">
  <ele>376.85</ele>
  <time>2026-09-01T19:56:50Z</time>
  <course>10.96</course>
  <speed>0.06082762530298219</speed>
  <fix>3d</fix>
</trkpt>
<trkpt lat="-27.2742561" lon="151.2900735">
  <ele>377.25</ele>
  <time>2026-09-01T19:56:50Z</time>
  <course>197.14</course>
  <speed>0.02</speed>
  <fix>3d</fix>
</trkpt>
<trkpt lat="-27.2742564" lon="151.2900736">
  <ele>376.7</ele>
  <time>2026-09-01T19:56:50Z</time>
  <course>10.94</course>
  <speed>0.07071067811865475</speed>
  <fix>3d</fix>
</trkpt>
<trkpt lat="-27.2742561" lon="151.2900735">
  <ele>376.95</ele>
  <time>2026-09-01T19:56:50Z</time>
  <course>193.68</course>
  <speed>0.03</speed>
  <fix>3d</fix>
</trkpt>
<trkpt lat="-27.2742564" lon="151.2900736">
  <ele>376.55</ele>
  <time>2026-09-01T19:56:50Z</time>
  <course>10.92</course>
  <speed>0.07071067811865475</speed>
  <fix>3d</fix>
</trkpt>
<trkpt lat="-27.2742561" lon="151.2900735">
  <ele>376.95</ele>
  <time>2026-09-01T19:56:50Z</time>
  <course>193.68</course>
  <speed>0.03</speed>
  <fix>3d</fix>
</trkpt>
<trkpt lat="-27.2742564" lon="151.2900736">
  <ele>376.4</ele>
  <time>2026-09-01T19:56:50Z</time>
  <course>10.91</course>
  <speed>0.08</speed>
  <fix>3d</fix>
</trkpt>
<trkpt lat="-27.2742561" lon="151.2900735">
  <ele>376.65</ele>
  <time>2026-09-01T19:56:50Z</time>
  <course>192.36</course>
  <speed>0.04</speed>
  <fix>3d</fix>
</trkpt>
<trkpt lat="-27.2742565" lon="151.2900735">
  <ele>376.25</ele>
  <time>2026-09-01T19:56:50Z</time>
  <course>10.92</course>
  <speed>0.08</speed>
  <fix>3d</fix>
</trkpt>
<trkpt lat="-27.2742561" lon="151.2900735">
  <ele>376.65</ele>
  <time>2026-09-01T19:56:50Z</time>
  <course>192.36</course>
  <speed>0.04</speed>
  <fix>3d</fix>
</trkpt>
<trkpt lat="-27.2742565" lon="151.2900735">
  <ele>376.1</ele>
  <time>2026-09-01T19:56:50Z</time>
  <course>10.93</course>
  <speed>0.08</speed>
  <fix>3d</fix>
</trkpt>
<trkpt lat="-27.2742561" lon="151.2900735">
  <ele>376.36</ele>
  <time>2026-09-01T19:56:50Z</time>
  <course>192.45</course>
  <speed>0.05</speed>
  <fix>3d</fix>
</trkpt>
<trkpt lat="-27.2742566" lon="151.2900735">
  <ele>375.95</ele>
  <time>2026-09-01T19:56:50Z</time>
  <course>10.94</course>
  <speed>0.09</speed>
  <fix>3d</fix>
</trkpt>
<trkpt lat="-27.2742561" lon="151.2900735">
  <ele>376.36</ele>
  <time>2026-09-01T19:56:50Z</time>
  <course>192.45</course>
  <speed>0.05</speed>
  <fix>3d</fix>
</trkpt>
<trkpt lat="-27.2742566" lon="151.2900735">
  <ele>375.8</ele>
  <time>2026-09-01T19:56:50Z</time>
  <course>10.95</course>
  <speed>0.09055385138137417</speed>
  <fix>3d</fix>
</trkpt>
<trkpt lat="-27.2742563" lon="151.2900735">
  <ele>376.06</ele>
  <time>2026-09-01T19:56:50Z</time>
  <course>192.26</course>
  <speed>0.06</speed>
  <fix>3d</fix>
</trkpt>
<trkpt lat="-27.2742567" lon="151.2900735">
  <ele>375.64</ele>
  <time>2026-09-01T19:56:50Z</time>
  <course>10.96</course>
  <speed>0.1004987562112089</speed>
  <fix>3d</fix>
</trkpt>
<trkpt lat="-27.2742563" lon="151.2900735">
  <ele>376.06</ele>
  <time>2026-09-01T19:56:50Z</time>
  <course>192.26</course>
  <speed>0.06</speed>
  <fix>3d</fix>
</trkpt>
<trkpt lat="-27.2742568" lon="151.2900735">
  <ele>375.49</ele>
  <time>2026-09-01T19:56:50Z</time>
  <course>10.96</course>
  <speed>0.1004987562112089</speed>
  <fix>3d</fix>
</trkpt>
<trkpt lat="-27.2742564" lon="151.2900735">
  <ele>375.76</ele>
  <time>2026-09-01T19:56:50Z</time>
  <course>191.99</course>
  <speed>0.07</speed>
  <fix>3d</fix>
</trkpt>
<trkpt lat="-27.2742568" lon="151.2900735">
  <ele>375.34</ele>
  <time>2026-09-01T19:56:50Z</time>
  <course>10.95</course>
  <speed>0.1004987562112089</speed>
  <fix>3d</fix>
</trkpt>
<trkpt lat="-27.2742564" lon="151.2900735">
  <ele>375.76</ele>
  <time>2026-09-01T19:56:50Z</time>
  <course>191.99</course>
  <speed>0.07</speed>
  <fix>3d</fix>
</trkpt>
<trkpt lat="-27.2742569" lon="151.2900735">
  <ele>375.19</ele>
  <time>2026-09-01T19:56:50Z</time>
  <course>10.94</course>
  <speed>0.1004987562112089</speed>
  <fix>3d</fix>
</trkpt>
<trkpt lat="-27.2742565" lon="151.2900734">
  <ele>375.46</ele>
  <time>2026-09-01T19:56:50Z</time>
  <course>191.81</course>
  <speed>0.08</speed>
  <fix>3d</fix>
</trkpt>
<trkpt lat="-27.274257" lon="151.2900735">
  <ele>375.04</ele>
  <time>2026-09-01T19:56:50Z</time>
  <course>10.91</course>
  <speed>0.1004987562112089</speed>
  <fix>3d</fix>
</trkpt>
<trkpt lat="-27.2742565" lon="151.2900734">
  <ele>375.46</ele>
  <time>2026-09-01T19:56:50Z</time>
  <course>191.81</course>
  <speed>0.08</speed>
  <fix>3d</fix>
</trkpt>
<trkpt lat="-27.274257" lon="151.2900735">
  <ele>374.89</ele>
  <time>2026-09-01T19:56:50Z</time>
  <course>10.88</course>
  <speed>0.1118033988749895</speed>
  <fix>3d</fix>
</trkpt>
<trkpt lat="-27.2742567" lon="151.2900733">
  <ele>375.16</ele>
  <time>2026-09-01T19:56:50Z</time>
  <course>191.6</course>
  <speed>0.08</speed>
  <fix>3d</fix>
</trkpt>
<trkpt lat="-27.2742571" lon="151.2900735">
  <ele>374.74</ele>
  <time>2026-09-01T19:56:50Z</time>
  <course>10.84</course>
  <speed>0.11045361017187261</speed>
  <fix>3d</fix>
</trkpt>
<trkpt lat="-27.2742567" lon="151.2900733">
  <ele>375.16</ele>
  <time>2026-09-01T19:56:50Z</time>
  <course>191.6</course>
  <speed>0.08</speed>
  <fix>3d</fix>
</trkpt>
<trkpt lat="-27.2742572" lon="151.2900735">
  <ele>374.59</ele>
  <time>2026-09-01T19:56:50Z</time>
  <course>10.79</course>
  <speed>0.1118033988749895</speed>
  <fix>3d</fix>
</trkpt>
<trkpt lat="-27.2742569" lon="151.2900733">
  <ele>374.86</ele>
  <time>2026-09-01T19:56:50Z</time>
  <course>190.97</course>
  <speed>0.09</speed>
  <fix>3d</fix>
</trkpt>
<trkpt lat="-27.2742573" lon="151.2900735">
  <ele>374.45</ele>
  <time>2026-09-01T19:56:50Z</time>
  <course>10.74</course>
  <speed>0.1118033988749895</speed>
  <fix>3d</fix>
</trkpt>
<trkpt lat="-27.2742569" lon="151.2900733">
  <ele>374.86</ele>
  <time>2026-09-01T19:56:50Z</time>
  <course>190.97</course>
  <speed>0.09</speed>
  <fix>3d</fix>
</trkpt>
<trkpt lat="-27.2742574" lon="151.2900735">
  <ele>374.3</ele>
  <time>2026-09-01T19:56:50Z</time>
  <course>10.7</course>
  <speed>0.1118033988749895</speed>
  <fix>3d</fix>
</trkpt>
<trkpt lat="-27.274257" lon="151.2900733">
  <ele>374.57</ele>
  <time>2026-09-01T19:56:50Z</time>
  <course>190.35</course>
  <speed>0.09</speed>
  <fix>3d</fix>
</trkpt>
<trkpt lat="-27.2742574" lon="151.2900735">
  <ele>374.15</ele>
  <time>2026-09-01T19:56:50Z</time>
  <course>10.67</course>
  <speed>0.11045361017187261</speed>
  <fix>3d</fix>
</trkpt>
<trkpt lat="-27.274257" lon="151.2900733">
  <ele>374.57</ele>
  <time>2026-09-01T19:56:50Z</time>
  <course>190.35</course>
  <speed>0.09</speed>
  <fix>3d</fix>
</trkpt>
<trkpt lat="-27.2742575" lon="151.2900735">
  <ele>374.0</ele>
  <time>2026-09-01T19:56:50Z</time>
  <course>10.68</course>
  <speed>0.11</speed>
  <fix>3d</fix>
</trkpt>
<trkpt lat="-27.2742572" lon="151.2900733">
  <ele>374.27</ele>
  <time>2026-09-01T19:56:50Z</time>
  <course>190.32</course>
  <speed>0.09</speed>
  <fix>3d</fix>
</trkpt>
<trkpt lat="-27.2742576" lon="151.2900735">
  <ele>373.85</ele>
  <time>2026-09-01T19:56:50Z</time>
  <course>10.71</course>
  <speed>0.11</speed>
  <fix>3d</fix>
</trkpt>
<trkpt lat="-27.2742572" lon="151.2900733">
  <ele>374.27</ele>
  <time>2026-09-01T19:56:50Z</time>
  <course>190.32</course>
  <speed>0.09</speed>
  <fix>3d</fix>
</trkpt>
<trkpt lat="-27.2742577" lon="151.2900735">
  <ele>373.7</ele>
  <time>2026-09-01T19:56:50Z</time>
  <course>10.76</course>
  <speed>0.11</speed>
  <fix>3d</fix>
</trkpt>
<trkpt lat="-27.2742573" lon="151.2900733">
  <ele>373.97</ele>
  <time>2026-09-01T19:56:50Z</time>
  <course>190.8</course>
  <speed>0.09</speed>
  <fix>3d</fix>
</trkpt>
<trkpt lat="-27.2742578" lon="151.2900735">
  <ele>373.55</ele>
  <time>2026-09-01T19:56:50Z</time>
  <course>10.82</course>
  <speed>0.11</speed>
  <fix>3d</fix>
</trkpt>
<trkpt lat="-27.2742573" lon="151.2900733">
  <ele>373.97</ele>
  <time>2026-09-01T19:56:50Z</time>
  <course>190.8</course>
  <speed>0.09</speed>
  <fix>3d</fix>
</trkpt>
<trkpt lat="-27.2742578" lon="151.2900735">
  <ele>373.4</ele>
  <time>2026-09-01T19:56:50Z</time>
  <course>10.88</course>
  <speed>0.1</speed>
  <fix>3d</fix>
</trkpt>
<trkpt lat="-27.2742575" lon="151.2900732">
  <ele>373.66</ele>
  <time>2026-09-01T19:56:50Z</time>
  <course>191.29</course>
  <speed>0.09</speed>
  <fix>3d</fix>
</trkpt>
<trkpt lat="-27.2742579" lon="151.2900734">
  <ele>373.25</ele>
  <time>2026-09-01T19:56:50Z</time>
  <course>10.92</course>
  <speed>0.1</speed>
  <fix>3d</fix>
</trkpt>
<trkpt lat="-27.2742575" lon="151.2900732">
  <ele>373.66</ele>
  <time>2026-09-01T19:56:50Z</time>
  <course>191.29</course>
  <speed>0.09</speed>
  <fix>3d</fix>
</trkpt>
<trkpt lat="-27.274258" lon="151.2900734">
  <ele>373.1</ele>
  <time>2026-09-01T19:56:50Z</time>
  <course>10.95</course>
  <speed>0.1</speed>
  <fix>3d</fix>
</trkpt>
<trkpt lat="-27.2742577" lon="151.2900732">
  <ele>373.37</ele>
  <time>2026-09-01T19:56:50Z</time>
  <course>191.46</course>
  <speed>0.09</speed>
  <fix>3d</fix>
</trkpt>
<trkpt lat="-27.2742581" lon="151.2900734">
  <ele>372.95</ele>
  <time>2026-09-01T19:56:50Z</time>
  <course>10.96</course>
  <speed>0.1</speed>
  <fix>3d</fix>
</trkpt>
<trkpt lat="-27.2742577" lon="151.2900732">
  <ele>373.37</ele>
  <time>2026-09-01T19:56:50Z</time>
  <course>191.46</course>
  <speed>0.09</speed>
  <fix>3d</fix>
</trkpt>
<trkpt lat="-27.2742581" lon="151.2900734">
  <ele>372.8</ele>
  <time>2026-09-01T19:56:50Z</time>
  <course>10.95</course>
  <speed>0.1</speed>
  <fix>3d</fix>
</trkpt>
<trkpt lat="-27.2742578" lon="151.2900732">
  <ele>373.07</ele>
  <time>2026-09-01T19:56:50Z</time>
  <course>191.74</course>
  <speed>0.08</speed>
  <fix>3d</fix>
</trkpt>
<trkpt lat="-27.2742582" lon="151.2900734">
  <ele>372.65</ele>
  <time>2026-09-01T19:56:50Z</time>
  <course>10.94</course>
  <speed>0.09</speed>
  <fix>3d</fix>
</trkpt>
<trkpt lat="-27.2742578" lon="151.2900732">
  <ele>373.07</ele>
  <time>2026-09-01T19:56:50Z</time>
  <course>191.74</course>
  <speed>0.08</speed>
  <fix>3d</fix>
</trkpt>
<trkpt lat="-27.2742582" lon="151.2900733">
  <ele>372.5</ele>
  <time>2026-09-01T19:56:50Z</time>
  <course>10.92</course>
  <speed>0.09</speed>
  <fix>3d</fix>
</trkpt>
<trkpt lat="-27.2742579" lon="151.2900731">
  <ele>372.77</ele>
  <time>2026-09-01T19:56:50Z</time>
  <course>192.08</course>
  <speed>0.08</speed>
  <fix>3d</fix>
</trkpt>
<trkpt lat="-27.2742583" lon="151.2900733">
  <ele>372.34</ele>
  <time>2026-09-01T19:56:50Z</time>
  <course>10.93</course>
  <speed>0.09</speed>
  <fix>3d</fix>
</trkpt>
<trkpt lat="-27.2742579" lon="151.2900731">
  <ele>372.77</ele>
  <time>2026-09-01T19:56:50Z</time>
  <course>192.08</course>
  <speed>0.08</speed>
  <fix>3d</fix>
</trkpt>
<trkpt lat="-27.2742584" lon="151.2900733">
  <ele>372.19</ele>
  <time>2026-09-01T19:56:50Z</time>
  <course>10.94</course>
  <speed>0.09</speed>
  <fix>3d</fix>
</trkpt>
<trkpt lat="-27.2742581" lon="151.2900731">
  <ele>372.47</ele>
  <time>2026-09-01T19:56:50Z</time>
  <course>192.61</course>
  <speed>0.07</speed>
  <fix>3d</fix>
</trkpt>
<trkpt lat="-27.2742584" lon="151.2900733">
  <ele>372.05</ele>
  <time>2026-09-01T19:56:50Z</time>
  <course>10.96</course>
  <speed>0.08</speed>
  <fix>3d</fix>
</trkpt>
<trkpt lat="-27.2742581" lon="151.2900731">
  <ele>372.47</ele>
  <time>2026-09-01T19:56:50Z</time>
  <course>192.61</course>
  <speed>0.07</speed>
  <fix>3d</fix>
</trkpt>
<trkpt lat="-27.2742585" lon="151.2900733">
  <ele>371.9</ele>
  <time>2026-09-01T19:56:50Z</time>
  <course>10.97</course>
  <speed>0.08</speed>
  <fix>3d</fix>
</trkpt>
<trkpt lat="-27.2742583" lon="151.2900731">
  <ele>372.16</ele>
  <time>2026-09-01T19:56:50Z</time>
  <course>192.9</course>
  <speed>0.07</speed>
  <fix>3d</fix>
</trkpt>
<trkpt lat="-27.2742586" lon="151.2900732">
  <ele>371.75</ele>
  <time>2026-09-01T19:56:50Z</time>
  <course>10.98</course>
  <speed>0.08</speed>
  <fix>3d</fix>
</trkpt>
<trkpt lat="-27.2742583" lon="151.2900731">
  <ele>372.16</ele>
  <time>2026-09-01T19:56:50Z</time>
  <course>192.9</course>
  <speed>0.07</speed>
  <fix>3d</fix>
</trkpt>
<trkpt lat="-27.2742586" lon="151.2900732">
  <ele>371.6</ele>
  <time>2026-09-01T19:56:50Z</time>
  <course>10.98</course>
  <speed>0.08</speed>
  <fix>3d</fix>
</trkpt>
<trkpt lat="-27.2742584" lon="151.290073">
  <ele>371.87</ele>
  <time>2026-09-01T19:56:50Z</time>
  <course>193.09</course>
  <speed>0.07</speed>
  <fix>3d</fix>
</trkpt>
<trkpt lat="-27.2742587" lon="151.2900732">
  <ele>371.44</ele>
  <time>2026-09-01T19:56:50Z</time>
  <course>10.98</course>
  <speed>0.07</speed>
  <fix>3d</fix>
</trkpt>
<trkpt lat="-27.2742584" lon="151.290073">
  <ele>371.87</ele>
  <time>2026-09-01T19:56:50Z</time>
  <course>193.09</course>
  <speed>0.07</speed>
  <fix>3d</fix>
</trkpt>
<trkpt lat="-27.2742587" lon="151.2900732">
  <ele>371.29</ele>
  <time>2026-09-01T19:56:50Z</time>
  <course>10.98</course>
  <speed>0.07</speed>
  <fix>3d</fix>
</trkpt>
<trkpt lat="-27.2742585" lon="151.290073">
  <ele>371.57</ele>
  <time>2026-09-01T19:56:50Z</time>
  <course>193.5</course>
  <speed>0.06</speed>
  <fix>3d</fix>
</trkpt>
<trkpt lat="-27.2742588" lon="151.2900732">
  <ele>371.15</ele>
  <time>2026-09-01T19:56:50Z</time>
  <course>10.99</course>
  <speed>0.07</speed>
  <fix>3d</fix>
</trkpt>
<trkpt lat="-27.2742585" lon="151.290073">
  <ele>371.57</ele>
  <time>2026-09-01T19:56:50Z</time>
  <course>193.5</course>
  <speed>0.06</speed>
  <fix>3d</fix>
</trkpt>
<trkpt lat="-27.2742588" lon="151.2900731">
  <ele>371.0</ele>
  <time>2026-09-01T19:56:50Z</time>
  <course>11.01</course>
  <speed>0.07</speed>
  <fix>3d</fix>
</trkpt>
<trkpt lat="-27.2742586" lon="151.290073">
  <ele>371.27</ele>
  <time>2026-09-01T19:56:50Z</time>
  <course>194.15</course>
  <speed>0.06</speed>
  <fix>3d</fix>
</trkpt>
<trkpt lat="-27.2742589" lon="151.2900731">
  <ele>370.84</ele>
  <time>2026-09-01T19:56:50Z</time>
  <course>11.04</course>
  <speed>0.07</speed>
  <fix>3d</fix>
</trkpt>
<trkpt lat="-27.2742586" lon="151.290073">
  <ele>371.27</ele>
  <time>2026-09-01T19:56:50Z</time>
  <course>194.15</course>
  <speed>0.06</speed>
  <fix>3d</fix>
</trkpt>
<trkpt lat="-27.2742589" lon="151.2900731">
  <ele>370.69</ele>
  <time>2026-09-01T19:56:50Z</time>
  <course>11.05</course>
  <speed>0.06</speed>
  <fix>3d</fix>
</trkpt>
<trkpt lat="-27.2742587" lon="151.2900729">
  <ele>370.97</ele>
  <time>2026-09-01T19:56:50Z</time>
  <course>195.1</course>
  <speed>0.05</speed>
  <fix>3d</fix>
</trkpt>
<trkpt lat="-27.274259" lon="151.2900731">
  <ele>370.54</ele>
  <time>2026-09-01T19:56:50Z</time>
  <course>11.07</course>
  <speed>0.06</speed>
  <fix>3d</fix>
</trkpt>
<trkpt lat="-27.2742587" lon="151.2900729">
  <ele>370.97</ele>
  <time>2026-09-01T19:56:50Z</time>
  <course>195.1</course>
  <speed>0.05</speed>
  <fix>3d</fix>
</trkpt>
<trkpt lat="-27.274259" lon="151.2900731">
  <ele>370.39</ele>
  <time>2026-09-01T19:56:50Z</time>
  <course>11.09</course>
  <speed>0.06</speed>
  <fix>3d</fix>
</trkpt>
<trkpt lat="-27.2742588" lon="151.2900728">
  <ele>370.67</ele>
  <time>2026-09-01T19:56:50Z</time>
  <course>196.18</course>
  <speed>0.05</speed>
  <fix>3d</fix>
</trkpt>
<trkpt lat="-27.274259" lon="151.2900731">
  <ele>370.24</ele>
  <time>2026-09-01T19:56:50Z</time>
  <course>11.1</course>
  <speed>0.05</speed>
  <fix>3d</fix>
</trkpt>
<trkpt lat="-27.2742588" lon="151.2900728">
  <ele>370.67</ele>
  <time>2026-09-01T19:56:50Z</time>
  <course>196.18</course>
  <speed>0.05</speed>
  <fix>3d</fix>
</trkpt>
<trkpt lat="-27.2742591" lon="151.290073">
  <ele>370.09</ele>
  <time>2026-09-01T19:56:50Z</time>
  <course>11.1</course>
  <speed>0.05</speed>
  <fix>3d</fix>
</trkpt>
<trkpt lat="-27.2742589" lon="151.2900728">
  <ele>370.38</ele>
  <time>2026-09-01T19:56:50Z</time>
  <course>197.74</course>
  <speed>0.04</speed>
  <fix>3d</fix>
</trkpt>
<trkpt lat="-27.2742591" lon="151.290073">
  <ele>369.95</ele>
  <time>2026-09-01T19:56:50Z</time>
  <course>11.1</course>
  <speed>0.05</speed>
  <fix>3d</fix>
</trkpt>
<trkpt lat="-27.2742589" lon="151.2900728">
  <ele>370.38</ele>
  <time>2026-09-01T19:56:50Z</time>
  <course>197.74</course>
  <speed>0.04</speed>
  <fix>3d</fix>
</trkpt>
<trkpt lat="-27.2742591" lon="151.290073">
  <ele>369.8</ele>
  <time>2026-09-01T19:56:50Z</time>
  <course>11.1</course>
  <speed>0.05</speed>
  <fix>3d</fix>
</trkpt>
<trkpt lat="-27.274259" lon="151.2900728">
  <ele>370.08</ele>
  <time>2026-09-01T19:56:50Z</time>
  <course>199.31</course>
  <speed>0.03</speed>
  <fix>3d</fix>
</trkpt>
<trkpt lat="-27.2742592" lon="151.290073">
  <ele>369.65</ele>
  <time>2026-09-01T19:56:50Z</time>
  <course>11.11</course>
  <speed>0.05</speed>
  <fix>3d</fix>
</trkpt>
<trkpt lat="-27.274259" lon="151.2900728">
  <ele>370.08</ele>
  <time>2026-09-01T19:56:50Z</time>
  <course>199.31</course>
  <speed>0.03</speed>
  <fix>3d</fix>
</trkpt>
<trkpt lat="-27.2742592" lon="151.290073">
  <ele>369.5</ele>
  <time>2026-09-01T19:56:50Z</time>
  <course>11.13</course>
  <speed>0.04</speed>
  <fix>3d</fix>
</trkpt>
<trkpt lat="-27.274259" lon="151.2900728">
  <ele>369.78</ele>
  <time>2026-09-01T19:56:50Z</time>
  <course>201.49</course>
  <speed>0.03</speed>
  <fix>3d</fix>
</trkpt>
<trkpt lat="-27.2742592" lon="151.2900729">
  <ele>369.35</ele>
  <time>2026-09-01T19:56:50Z</time>
  <course>11.15</course>
  <speed>0.04</speed>
  <fix>3d</fix>
</trkpt>
<trkpt lat="-27.274259" lon="151.2900728">
  <ele>369.78</ele>
  <time>2026-09-01T19:56:50Z</time>
  <course>201.49</course>
  <speed>0.03</speed>
  <fix>3d</fix>
</trkpt>
<trkpt lat="-27.2742592" lon="151.2900729">
  <ele>369.2</ele>
  <time>2026-09-01T19:56:50Z</time>
  <course>11.17</course>
  <speed>0.04</speed>
  <fix>3d</fix>
</trkpt>
<trkpt lat="-27.2742591" lon="151.2900728">
  <ele>369.47</ele>
  <time>2026-09-01T19:56:50Z</time>
  <course>204.42</course>
  <speed>0.02</speed>
  <fix>3d</fix>
</trkpt>
<trkpt lat="-27.2742593" lon="151.2900729">
  <ele>369.05</ele>
  <time>2026-09-01T19:56:50Z</time>
  <course>11.19</course>
  <speed>0.04</speed>
  <fix>3d</fix>
</trkpt>
<trkpt lat="-27.2742591" lon="151.2900728">
  <ele>369.47</ele>
  <time>2026-09-01T19:56:50Z</time>
  <course>204.42</course>
  <speed>0.02</speed>
  <fix>3d</fix>
</trkpt>
<trkpt lat="-27.2742593" lon="151.2900729">
  <ele>368.9</ele>
  <time>2026-09-01T19:56:50Z</time>
  <course>11.19</course>
  <speed>0.03</speed>
  <fix>3d</fix>
</trkpt>
<trkpt lat="-27.2742591" lon="151.2900728">
  <ele>369.18</ele>
  <time>2026-09-01T19:56:50Z</time>
  <course>207.79</course>
  <speed>0.02</speed>
  <fix>3d</fix>
</trkpt>
<trkpt lat="-27.2742593" lon="151.2900729">
  <ele>368.75</ele>
  <time>2026-09-01T19:56:50Z</time>
  <course>11.2</course>
  <speed>0.03</speed>
  <fix>3d</fix>
</trkpt>
<trkpt lat="-27.2742591" lon="151.2900728">
  <ele>369.18</ele>
  <time>2026-09-01T19:56:50Z</time>
  <course>207.79</course>
  <speed>0.02</speed>
  <fix>3d</fix>
</trkpt>
<trkpt lat="-27.2742593" lon="151.2900729">
  <ele>368.6</ele>
  <time>2026-09-01T19:56:50Z</time>
  <course>11.21</course>
  <speed>0.03</speed>
  <fix>3d</fix>
</trkpt>
<trkpt lat="-27.2742592" lon="151.2900728">
  <ele>368.88</ele>
  <time>2026-09-01T19:56:50Z</time>
  <course>212.56</course>
  <speed>0.02</speed>
  <fix>3d</fix>
</trkpt>
<trkpt lat="-27.2742593" lon="151.2900729">
  <ele>368.45</ele>
  <time>2026-09-01T19:56:50Z</time>
  <course>11.23</course>
  <speed>0.03</speed>
  <fix>3d</fix>
</trkpt>
<trkpt lat="-27.2742592" lon="151.2900728">
  <ele>368.88</ele>
  <time>2026-09-01T19:56:50Z</time>
  <course>212.56</course>
  <speed>0.02</speed>
  <fix>3d</fix>
</trkpt>
<trkpt lat="-27.2742593" lon="151.2900729">
  <ele>368.3</ele>
  <time>2026-09-01T19:56:50Z</time>
  <course>11.24</course>
  <speed>0.02</speed>
  <fix>3d</fix>
</trkpt>
<trkpt lat="-27.2742592" lon="151.2900727">
  <ele>368.58</ele>
  <time>2026-09-01T19:56:50Z</time>
  <course>221.2</course>
  <speed>0.01</speed>
  <fix>3d</fix>
</trkpt>
<trkpt lat="-27.2742593" lon="151.2900729">
  <ele>368.15</ele>
  <time>2026-09-01T19:56:50Z</time>
  <course>11.24</course>
  <speed>0.02</speed>
  <fix>3d</fix>
</trkpt>
<trkpt lat="-27.2742592" lon="151.2900727">
  <ele>368.58</ele>
  <time>2026-09-01T19:56:50Z</time>
  <course>221.2</course>
  <speed>0.01</speed>
  <fix>3d</fix>
</trkpt>
<trkpt lat="-27.2742593" lon="151.2900728">
  <ele>368.01</ele>
  <time>2026-09-01T19:56:50Z</time>
  <course>11.24</course>
  <speed>0.02</speed>
  <fix>3d</fix>
</trkpt>
<trkpt lat="-27.2742592" lon="151.2900727">
  <ele>368.28</ele>
  <time>2026-09-01T19:56:50Z</time>
  <course>234.69</course>
  <speed>0.01</speed>
  <fix>3d</fix>
</trkpt>
<trkpt lat="-27.2742593" lon="151.2900728">
  <ele>367.86</ele>
  <time>2026-09-01T19:56:50Z</time>
  <course>11.24</course>
  <speed>0.02</speed>
  <fix>3d</fix>
</trkpt>
<trkpt lat="-27.2742592" lon="151.2900727">
  <ele>368.28</ele>
  <time>2026-09-01T19:56:50Z</time>
  <course>234.69</course>
  <speed>0.01</speed>
  <fix>3d</fix>
</trkpt>
<trkpt lat="-27.2742593" lon="151.2900728">
  <ele>367.71</ele>
  <time>2026-09-01T19:56:50Z</time>
  <course>11.24</course>
  <speed>0.02</speed>
  <fix>3d</fix>
</trkpt>
<trkpt lat="-27.2742592" lon="151.2900727">
  <ele>367.97</ele>
  <time>2026-09-01T19:56:50Z</time>
  <course>255.29</course>
  <speed>0.0</speed>
  <fix>3d</fix>
</trkpt>
<trkpt lat="-27.2742593" lon="151.2900728">
  <ele>367.56</ele>
  <time>2026-09-01T19:56:50Z</time>
  <course>11.25</course>
  <speed>0.01</speed>
  <fix>3d</fix>
</trkpt>
<trkpt lat="-27.2742592" lon="151.2900727">
  <ele>367.97</ele>
  <time>2026-09-01T19:56:50Z</time>
  <course>255.29</course>
  <speed>0.0</speed>
  <fix>3d</fix>
</trkpt>
<trkpt lat="-27.2742593" lon="151.2900728">
  <ele>367.41</ele>
  <time>2026-09-01T19:56:51Z</time>
  <course>11.26</course>
  <speed>0.01</speed>
  <fix>3d</fix>
</trkpt>
<trkpt lat="-27.2742592" lon="151.2900727">
  <ele>367.68</ele>
  <time>2026-09-01T19:56:51Z</time>
  <course>281.24</course>
  <speed>0.0</speed>
  <fix>3d</fix>
</trkpt>
<trkpt lat="-27.2742593" lon="151.2900728">
  <ele>367.26</ele>
  <time>2026-09-01T19:56:51Z</time>
  <course>11.28</course>
  <speed>0.01</speed>
  <fix>3d</fix>
</trkpt>
<trkpt lat="-27.2742592" lon="151.2900727">
  <ele>367.68</ele>
  <time>2026-09-01T19:56:51Z</time>
  <course>281.24</course>
  <speed>0.0</speed>
  <fix>3d</fix>
</trkpt>
<trkpt lat="-27.2742593" lon="151.2900728">
  <ele>367.11</ele>
  <time>2026-09-01T19:56:51Z</time>
  <course>11.3</course>
  <speed>0.01</speed>
  <fix>3d</fix>
</trkpt>
<trkpt lat="-27.2742592" lon="151.2900727">
  <ele>367.37</ele>
  <time>2026-09-01T19:56:51Z</time>
  <course>302.23</course>
  <speed>0.01</speed>
  <fix>3d</fix>
</trkpt>
<trkpt lat="-27.2742593" lon="151.2900728">
  <ele>366.96</ele>
  <time>2026-09-01T19:56:51Z</time>
  <course>11.34</course>
  <speed>0.01</speed>
  <fix>3d</fix>
</trkpt>
<trkpt lat="-27.2742592" lon="151.2900727">
  <ele>367.37</ele>
  <time>2026-09-01T19:56:51Z</time>
  <course>302.23</course>
  <speed>0.01</speed>
  <fix>3d</fix>
</trkpt>
<trkpt lat="-27.2742593" lon="151.2900728">
  <ele>366.8</ele>
  <time>2026-09-01T19:56:51Z</time>
  <course>11.37</course>
  <speed>0.01</speed>
  <fix>3d</fix>
</trkpt>
<trkpt lat="-27.2742592" lon="151.2900726">
  <ele>367.07</ele>
  <time>2026-09-01T19:56:51Z</time>
  <course>314.68</course>
  <speed>0.01</speed>
  <fix>3d</fix>
</trkpt>
<trkpt lat="-27.2742593" lon="151.2900728">
  <ele>366.65</ele>
  <time>2026-09-01T19:56:51Z</time>
  <course>11.4</course>
  <speed>0.01</speed>
  <fix>3d</fix>
</trkpt>
<trkpt lat="-27.2742592" lon="151.2900726">
  <ele>367.07</ele>
  <time>2026-09-01T19:56:51Z</time>
  <course>314.68</course>
  <speed>0.01</speed>
  <fix>3d</fix>
</trkpt>
<trkpt lat="-27.2742593" lon="151.2900728">
  <ele>366.5</ele>
  <time>2026-09-01T19:56:51Z</time>
  <course>11.41</course>
  <speed>0.0</speed>
  <fix>3d</fix>
</trkpt>
<trkpt lat="-27.2742592" lon="151.2900726">
  <ele>366.77</ele>
  <time>2026-09-01T19:56:51Z</time>
  <course>320.96</course>
  <speed>0.01</speed>
  <fix>3d</fix>
</trkpt>
<trkpt lat="-27.2742593" lon="151.2900727">
  <ele>366.35</ele>
  <time>2026-09-01T19:56:51Z</time>
  <course>11.42</course>
  <speed>0.0</speed>
  <fix>3d</fix>
</trkpt>
<trkpt lat="-27.2742592" lon="151.2900726">
  <ele>366.77</ele>
  <time>2026-09-01T19:56:51Z</time>
  <course>320.96</course>
  <speed>0.01</speed>
  <fix>3d</fix>
</trkpt>
<trkpt lat="-27.2742593" lon="151.2900727">
  <ele>366.2</ele>
  <time>2026-09-01T19:56:51Z</time>
  <course>11.42</course>
  <speed>0.0</speed>
  <fix>3d</fix>
</trkpt>
<trkpt lat="-27.2742592" lon="151.2900726">
  <ele>366.47</ele>
  <time>2026-09-01T19:56:51Z</time>
  <course>327.34</course>
  <speed>0.01</speed>
  <fix>3d</fix>
</trkpt>
<trkpt lat="-27.2742593" lon="151.2900727">
  <ele>366.05</ele>
  <time>2026-09-01T19:56:51Z</time>
  <course>11.42</course>
  <speed>0.0</speed>
  <fix>3d</fix>
</trkpt>
<trkpt lat="-27.2742592" lon="151.2900726">
  <ele>366.47</ele>
  <time>2026-09-01T19:56:51Z</time>
  <course>327.34</course>
  <speed>0.01</speed>
  <fix>3d</fix>
</trkpt>
<trkpt lat="-27.2742593" lon="151.2900727">
  <ele>365.9</ele>
  <time>2026-09-01T19:56:51Z</time>
  <course>11.41</course>
  <speed>0.0</speed>
  <fix>3d</fix>
</trkpt>
<trkpt lat="-27.2742592" lon="151.2900726">
  <ele>366.16</ele>
  <time>2026-09-01T19:56:51Z</time>
  <course>334.93</course>
  <speed>0.01</speed>
  <fix>3d</fix>
</trkpt>
<trkpt lat="-27.2742593" lon="151.2900727">
  <ele>365.75</ele>
  <time>2026-09-01T19:56:51Z</time>
  <course>11.4</course>
  <speed>0.0</speed>
  <fix>3d</fix>
</trkpt>
<trkpt lat="-27.2742592" lon="151.2900726">
  <ele>366.16</ele>
  <time>2026-09-01T19:56:51Z</time>
  <course>334.93</course>
  <speed>0.01</speed>
  <fix>3d</fix>
</trkpt>
<trkpt lat="-27.2742593" lon="151.2900727">
  <ele>365.6</ele>
  <time>2026-09-01T19:56:51Z</time>
  <course>11.39</course>
  <speed>0.0</speed>
  <fix>3d</fix>
</trkpt>
<trkpt lat="-27.2742592" lon="151.2900726">
  <ele>365.87</ele>
  <time>2026-09-01T19:56:51Z</time>
  <course>343.35</course>
  <speed>0.01</speed>
  <fix>3d</fix>
</trkpt>
<trkpt lat="-27.2742593" lon="151.2900727">
  <ele>365.44</ele>
  <time>2026-09-01T19:56:51Z</time>
  <course>11.39</course>
  <speed>0.0</speed>
  <fix>3d</fix>
</trkpt>
<trkpt lat="-27.2742592" lon="151.2900726">
  <ele>365.87</ele>
  <time>2026-09-01T19:56:51Z</time>
  <course>343.35</course>
  <speed>0.01</speed>
  <fix>3d</fix>
</trkpt>
<trkpt lat="-27.2742593" lon="151.2900727">
  <ele>365.29</ele>
  <time>2026-09-01T19:56:51Z</time>
  <course>11.39</course>
  <speed>0.0</speed>
  <fix>3d</fix>
</trkpt>
<trkpt lat="-27.2742592" lon="151.2900726">
  <ele>365.57</ele>
  <time>2026-09-01T19:56:51Z</time>
  <course>350.18</course>
  <speed>0.01</speed>
  <fix>3d</fix>
</trkpt>
<trkpt lat="-27.2742593" lon="151.2900727">
  <ele>365.14</ele>
  <time>2026-09-01T19:56:51Z</time>
  <course>11.39</course>
  <speed>0.0</speed>
  <fix>3d</fix>
</trkpt>
<trkpt lat="-27.2742592" lon="151.2900726">
  <ele>365.57</ele>
  <time>2026-09-01T19:56:51Z</time>
  <course>350.18</course>
  <speed>0.01</speed>
  <fix>3d</fix>
</trkpt>
<trkpt lat="-27.2742593" lon="151.2900727">
  <ele>364.99</ele>
  <time>2026-09-01T19:56:51Z</time>
  <course>11.4</course>
  <speed>0.0</speed>
  <fix>3d</fix>
</trkpt>
<trkpt lat="-27.2742592" lon="151.2900726">
  <ele>365.27</ele>
  <time>2026-09-01T19:56:51Z</time>
  <course>355.14</course>
  <speed>0.01</speed>
  <fix>3d</fix>
</trkpt>
<trkpt lat="-27.2742593" lon="151.2900727">
  <ele>364.84</ele>
  <time>2026-09-01T19:56:51Z</time>
  <course>11.42</course>
  <speed>0.0</speed>
  <fix>3d</fix>
</trkpt>
<trkpt lat="-27.2742592" lon="151.2900726">
  <ele>365.27</ele>
  <time>2026-09-01T19:56:51Z</time>
  <course>355.14</course>
  <speed>0.01</speed>
  <fix>3d</fix>
</trkpt>
<trkpt lat="-27.2742593" lon="151.2900727">
  <ele>364.69</ele>
  <time>2026-09-01T19:56:51Z</time>
  <course>11.44</course>
  <speed>0.01</speed>
  <fix>3d</fix>
</trkpt>
<trkpt lat="-27.2742591" lon="151.2900726">
  <ele>364.97</ele>
  <time>2026-09-01T19:56:51Z</time>
  <course>359.74</course>
  <speed>0.02</speed>
  <fix>3d</fix>
</trkpt>
<trkpt lat="-27.2742593" lon="151.2900727">
  <ele>364.54</ele>
  <time>2026-09-01T19:56:51Z</time>
  <course>11.44</course>
  <speed>0.01</speed>
  <fix>3d</fix>
</trkpt>
<trkpt lat="-27.2742591" lon="151.2900726">
  <ele>364.97</ele>
  <time>2026-09-01T19:56:51Z</time>
  <course>359.74</course>
  <speed>0.02</speed>
  <fix>3d</fix>
</trkpt>
<trkpt lat="-27.2742592" lon="151.2900727">
  <ele>364.39</ele>
  <time>2026-09-01T19:56:51Z</time>
  <course>11.45</course>
  <speed>0.01</speed>
  <fix>3d</fix>
</trkpt>
<trkpt lat="-27.2742591" lon="151.2900726">
  <ele>364.66</ele>
  <time>2026-09-01T19:56:51Z</time>
  <course>3.77</course>
  <speed>0.02</speed>
  <fix>3d</fix>
</trkpt>
<trkpt lat="-27.2742592" lon="151.2900727">
  <ele>364.24</ele>
  <time>2026-09-01T19:56:51Z</time>
  <course>11.45</course>
  <speed>0.01</speed>
  <fix>3d</fix>
</trkpt>
<trkpt lat="-27.2742591" lon="151.2900726">
  <ele>364.66</ele>
  <time>2026-09-01T19:56:51Z</time>
  <course>3.77</course>
  <speed>0.02</speed>
  <fix>3d</fix>
</trkpt>
<trkpt lat="-27.2742592" lon="151.2900727">
  <ele>364.09</ele>
  <time>2026-09-01T19:56:51Z</time>
  <course>11.46</course>
  <speed>0.01</speed>
  <fix>3d</fix>
</trkpt>
<trkpt lat="-27.274259" lon="151.2900726">
  <ele>364.37</ele>
  <time>2026-09-01T19:56:51Z</time>
  <course>6.09</course>
  <speed>0.02</speed>
  <fix>3d</fix>
</trkpt>
<trkpt lat="-27.2742592" lon="151.2900727">
  <ele>363.94</ele>
  <time>2026-09-01T19:56:51Z</time>
  <course>11.47</course>
  <speed>0.01</speed>
  <fix>3d</fix>
</trkpt>
<trkpt lat="-27.274259" lon="151.2900726">
  <ele>364.37</ele>
  <time>2026-09-01T19:56:51Z</time>
  <course>6.09</course>
  <speed>0.02</speed>
  <fix>3d</fix>
</trkpt>
<trkpt lat="-27.2742592" lon="151.2900727">
  <ele>363.79</ele>
  <time>2026-09-01T19:56:51Z</time>
  <course>11.48</course>
  <speed>0.01</speed>
  <fix>3d</fix>
</trkpt>
<trkpt lat="-27.274259" lon="151.2900726">
  <ele>364.07</ele>
  <time>2026-09-01T19:56:51Z</time>
  <course>6.78</course>
  <speed>0.02</speed>
  <fix>3d</fix>
</trkpt>
<trkpt lat="-27.2742592" lon="151.2900727">
  <ele>363.64</ele>
  <time>2026-09-01T19:56:51Z</time>
  <course>11.49</course>
  <speed>0.01</speed>
  <fix>3d</fix>
</trkpt>
<trkpt lat="-27.274259" lon="151.2900726">
  <ele>364.07</ele>
  <time>2026-09-01T19:56:51Z</time>
  <course>6.78</course>
  <speed>0.02</speed>
  <fix>3d</fix>
</trkpt>
<trkpt lat="-27.2742592" lon="151.2900727">
  <ele>363.49</ele>
  <time>2026-09-01T19:56:51Z</time>
  <course>11.5</course>
  <speed>0.01</speed>
  <fix>3d</fix>
</trkpt>
<trkpt lat="-27.274259" lon="151.2900726">
  <ele>363.77</ele>
  <time>2026-09-01T19:56:51Z</time>
  <course>7.46</course>
  <speed>0.02</speed>
  <fix>3d</fix>
</trkpt>
<trkpt lat="-27.2742591" lon="151.2900727">
  <ele>363.35</ele>
  <time>2026-09-01T19:56:51Z</time>
  <course>11.51</course>
  <speed>0.01</speed>
  <fix>3d</fix>
</trkpt>
<trkpt lat="-27.274259" lon="151.2900726">
  <ele>363.77</ele>
  <time>2026-09-01T19:56:51Z</time>
  <course>7.46</course>
  <speed>0.02</speed>
  <fix>3d</fix>
</trkpt>
<trkpt lat="-27.2742591" lon="151.2900727">
  <ele>363.2</ele>
  <time>2026-09-01T19:56:51Z</time>
  <course>11.52</course>
  <speed>0.01</speed>
  <fix>3d</fix>
</trkpt>
<trkpt lat="-27.2742589" lon="151.2900726">
  <ele>363.47</ele>
  <time>2026-09-01T19:56:51Z</time>
  <course>7.84</course>
  <speed>0.02</speed>
  <fix>3d</fix>
</trkpt>
<trkpt lat="-27.2742591" lon="151.2900727">
  <ele>363.05</ele>
  <time>2026-09-01T19:56:51Z</time>
  <course>11.54</course>
  <speed>0.01</speed>
  <fix>3d</fix>
</trkpt>
<trkpt lat="-27.2742589" lon="151.2900726">
  <ele>363.47</ele>
  <time>2026-09-01T19:56:51Z</time>
  <course>7.84</course>
  <speed>0.02</speed>
  <fix>3d</fix>
</trkpt>
<trkpt lat="-27.2742591" lon="151.2900727">
  <ele>362.9</ele>
  <time>2026-09-01T19:56:51Z</time>
  <course>11.54</course>
  <speed>0.01</speed>
  <fix>3d</fix>
</trkpt>
<trkpt lat="-27.2742589" lon="151.2900726">
  <ele>363.18</ele>
  <time>2026-09-01T19:56:51Z</time>
  <course>7.4</course>
  <speed>0.02</speed>
  <fix>3d</fix>
</trkpt>
<trkpt lat="-27.2742591" lon="151.2900727">
  <ele>362.76</ele>
  <time>2026-09-01T19:56:51Z</time>
  <course>11.54</course>
  <speed>0.01</speed>
  <fix>3d</fix>
</trkpt>
<trkpt lat="-27.2742589" lon="151.2900726">
  <ele>363.18</ele>
  <time>2026-09-01T19:56:51Z</time>
  <course>7.4</course>
  <speed>0.02</speed>
  <fix>3d</fix>
</trkpt>
<trkpt lat="-27.2742591" lon="151.2900727">
  <ele>362.61</ele>
  <time>2026-09-01T19:56:51Z</time>
  <course>11.54</course>
  <speed>0.01</speed>
  <fix>3d</fix>
</trkpt>
<trkpt lat="-27.2742588" lon="151.2900726">
  <ele>362.88</ele>
  <time>2026-09-01T19:56:51Z</time>
  <course>7.46</course>
  <speed>0.02</speed>
  <fix>3d</fix>
</trkpt>
<trkpt lat="-27.274259" lon="151.2900727">
  <ele>362.46</ele>
  <time>2026-09-01T19:56:51Z</time>
  <course>11.53</course>
  <speed>0.01</speed>
  <fix>3d</fix>
</trkpt>
<trkpt lat="-27.2742588" lon="151.2900726">
  <ele>362.88</ele>
  <time>2026-09-01T19:56:51Z</time>
  <course>7.46</course>
  <speed>0.02</speed>
  <fix>3d</fix>
</trkpt>
<trkpt lat="-27.274259" lon="151.2900727">
  <ele>362.31</ele>
  <time>2026-09-01T19:56:51Z</time>
  <course>11.54</course>
  <speed>0.01</speed>
  <fix>3d</fix>
</trkpt>
<trkpt lat="-27.2742588" lon="151.2900726">
  <ele>362.58</ele>
  <time>2026-09-01T19:56:51Z</time>
  <course>7.43</course>
  <speed>0.02</speed>
  <fix>3d</fix>
</trkpt>
<trkpt lat="-27.274259" lon="151.2900727">
  <ele>362.16</ele>
  <time>2026-09-01T19:56:51Z</time>
  <course>11.57</course>
  <speed>0.01</speed>
  <fix>3d</fix>
</trkpt>
<trkpt lat="-27.2742588" lon="151.2900726">
  <ele>362.58</ele>
  <time>2026-09-01T19:56:51Z</time>
  <course>7.43</course>
  <speed>0.02</speed>
  <fix>3d</fix>
</trkpt>
<trkpt lat="-27.274259" lon="151.2900727">
  <ele>362.01</ele>
  <time>2026-09-01T19:56:51Z</time>
  <course>11.6</course>
  <speed>0.01</speed>
  <fix>3d</fix>
</trkpt>
<trkpt lat="-27.2742588" lon="151.2900726">
  <ele>362.28</ele>
  <time>2026-09-01T19:56:51Z</time>
  <course>4.64</course>
  <speed>0.02</speed>
  <fix>3d</fix>
</trkpt>
<trkpt lat="-27.274259" lon="151.2900727">
  <ele>361.86</ele>
  <time>2026-09-01T19:56:51Z</time>
  <course>11.62</course>
  <speed>0.01</speed>
  <fix>3d</fix>
</trkpt>
<trkpt lat="-27.2742588" lon="151.2900726">
  <ele>362.28</ele>
  <time>2026-09-01T19:56:51Z</time>
  <course>4.64</course>
  <speed>0.02</speed>
  <fix>3d</fix>
</trkpt>
<trkpt lat="-27.274259" lon="151.2900727">
  <ele>361.71</ele>
  <time>2026-09-01T19:56:51Z</time>
  <course>11.65</course>
  <speed>0.0</speed>
  <fix>3d</fix>
</trkpt>
<trkpt lat="-27.2742587" lon="151.2900726">
  <ele>361.97</ele>
  <time>2026-09-01T19:56:51Z</time>
  <course>0.36</course>
  <speed>0.02</speed>
  <fix>3d</fix>
</trkpt>
<trkpt lat="-27.2742589" lon="151.2900727">
  <ele>361.56</ele>
  <time>2026-09-01T19:56:51Z</time>
  <course>11.67</course>
  <speed>0.0</speed>
  <fix>3d</fix>
</trkpt>
<trkpt lat="-27.2742587" lon="151.2900726">
  <ele>361.97</ele>
  <time>2026-09-01T19:56:51Z</time>
  <course>0.36</course>
  <speed>0.02</speed>
  <fix>3d</fix>
</trkpt>
<trkpt lat="-27.2742589" lon="151.2900727">
  <ele>361.41</ele>
  <time>2026-09-01T19:56:51Z</time>
  <course>11.7</course>
  <speed>0.0</speed>
  <fix>3d</fix>
</trkpt>
<trkpt lat="-27.2742587" lon="151.2900726">
  <ele>361.68</ele>
  <time>2026-09-01T19:56:51Z</time>
  <course>355.6</course>
  <speed>0.02</speed>
  <fix>3d</fix>
</trkpt>
<trkpt lat="-27.2742589" lon="151.2900727">
  <ele>361.26</ele>
  <time>2026-09-01T19:56:51Z</time>
  <course>11.72</course>
  <speed>0.0</speed>
  <fix>3d</fix>
</trkpt>
<trkpt lat="-27.2742587" lon="151.2900726">
  <ele>361.68</ele>
  <time>2026-09-01T19:56:51Z</time>
  <course>355.6</course>
  <speed>0.02</speed>
  <fix>3d</fix>
</trkpt>
<trkpt lat="-27.2742589" lon="151.2900727">
  <ele>361.11</ele>
  <time>2026-09-01T19:56:51Z</time>
  <course>11.73</course>
  <speed>0.0</speed>
  <fix>3d</fix>
</trkpt>
<trkpt lat="-27.2742586" lon="151.2900726">
  <ele>361.38</ele>
  <time>2026-09-01T19:56:51Z</time>
  <course>350.0</course>
  <speed>0.01</speed>
  <fix>3d</fix>
</trkpt>
<trkpt lat="-27.2742589" lon="151.2900727">
  <ele>360.96</ele>
  <time>2026-09-01T19:56:51Z</time>
  <course>11.74</course>
  <speed>0.0</speed>
  <fix>3d</fix>
</trkpt>
<trkpt lat="-27.2742586" lon="151.2900726">
  <ele>361.38</ele>
  <time>2026-09-01T19:56:51Z</time>
  <course>350.0</course>
  <speed>0.01</speed>
  <fix>3d</fix>
</trkpt>
<trkpt lat="-27.2742589" lon="151.2900727">
  <ele>360.8</ele>
  <time>2026-09-01T19:56:51Z</time>
  <course>11.74</course>
  <speed>0.0</speed>
  <fix>3d</fix>
</trkpt>
<trkpt lat="-27.2742586" lon="151.2900726">
  <ele>361.08</ele>
  <time>2026-09-01T19:56:51Z</time>
  <course>346.37</course>
  <speed>0.01</speed>
  <fix>3d</fix>
</trkpt>
<trkpt lat="-27.2742588" lon="151.2900727">
  <ele>360.65</ele>
  <time>2026-09-01T19:56:51Z</time>
  <course>11.76</course>
  <speed>0.0</speed>
  <fix>3d</fix>
</trkpt>
<trkpt lat="-27.2742586" lon="151.2900726">
  <ele>361.08</ele>
  <time>2026-09-01T19:56:51Z</time>
  <course>346.37</course>
  <speed>0.01</speed>
  <fix>3d</fix>
</trkpt>
<trkpt lat="-27.2742588" lon="151.2900727">
  <ele>360.5</ele>
  <time>2026-09-01T19:56:51Z</time>
  <course>11.79</course>
  <speed>0.0</speed>
  <fix>3d</fix>
</trkpt>
<trkpt lat="-27.2742586" lon="151.2900726">
  <ele>360.77</ele>
  <time>2026-09-01T19:56:51Z</time>
  <course>342.5</course>
  <speed>0.01</speed>
  <fix>3d</fix>
</trkpt>
<trkpt lat="-27.2742588" lon="151.2900727">
  <ele>360.35</ele>
  <time>2026-09-01T19:56:51Z</time>
  <course>11.82</course>
  <speed>0.0</speed>
  <fix>3d</fix>
</trkpt>
<trkpt lat="-27.2742586" lon="151.2900726">
  <ele>360.77</ele>
  <time>2026-09-01T19:56:51Z</time>
  <course>342.5</course>
  <speed>0.01</speed>
  <fix>3d</fix>
</trkpt>
<trkpt lat="-27.2742588" lon="151.2900727">
  <ele>360.2</ele>
  <time>2026-09-01T19:56:51Z</time>
  <course>11.87</course>
  <speed>0.01</speed>
  <fix>3d</fix>
</trkpt>
<trkpt lat="-27.2742585" lon="151.2900726">
  <ele>360.47</ele>
  <time>2026-09-01T19:56:51Z</time>
  <course>334.07</course>
  <speed>0.01</speed>
  <fix>3d</fix>
</trkpt>
<trkpt lat="-27.2742588" lon="151.2900727">
  <ele>360.05</ele>
  <time>2026-09-01T19:56:51Z</time>
  <course>11.93</course>
  <speed>0.01</speed>
  <fix>3d</fix>
</trkpt>
<trkpt lat="-27.2742585" lon="151.2900726">
  <ele>360.47</ele>
  <time>2026-09-01T19:56:51Z</time>
  <course>334.07</course>
  <speed>0.01</speed>
  <fix>3d</fix>
</trkpt>
<trkpt lat="-27.2742588" lon="151.2900727">
  <ele>359.9</ele>
  <time>2026-09-01T19:56:51Z</time>
  <course>12.0</course>
  <speed>0.01</speed>
  <fix>3d</fix>
</trkpt>
<trkpt lat="-27.2742585" lon="151.2900725">
  <ele>360.16</ele>
  <time>2026-09-01T19:56:51Z</time>
  <course>321.58</course>
  <speed>0.02</speed>
  <fix>3d</fix>
</trkpt>
<trkpt lat="-27.2742587" lon="151.2900727">
  <ele>359.75</ele>
  <time>2026-09-01T19:56:51Z</time>
  <course>12.08</course>
  <speed>0.01414213562373095</speed>
  <fix>3d</fix>
</trkpt>
<trkpt lat="-27.2742585" lon="151.2900725">
  <ele>360.16</ele>
  <time>2026-09-01T19:56:51Z</time>
  <course>321.58</course>
  <speed>0.02</speed>
  <fix>3d</fix>
</trkpt>
<trkpt lat="-27.2742587" lon="151.2900726">
  <ele>359.6</ele>
  <time>2026-09-01T19:56:51Z</time>
  <course>12.12</course>
  <speed>0.01414213562373095</speed>
  <fix>3d</fix>
</trkpt>
<trkpt lat="-27.2742585" lon="151.2900724">
  <ele>359.87</ele>
  <time>2026-09-01T19:56:51Z</time>
  <course>310.06</course>
  <speed>0.02</speed>
  <fix>3d</fix>
</trkpt>
<trkpt lat="-27.2742587" lon="151.2900726">
  <ele>359.45</ele>
  <time>2026-09-01T19:56:51Z</time>
  <course>12.13</course>
  <speed>0.01414213562373095</speed>
  <fix>3d</fix>
</trkpt>
<trkpt lat="-27.2742585" lon="151.2900724">
  <ele>359.87</ele>
  <time>2026-09-01T19:56:51Z</time>
  <course>310.06</course>
  <speed>0.02</speed>
  <fix>3d</fix>
</trkpt>
<trkpt lat="-27.2742587" lon="151.2900726">
  <ele>359.3</ele>
  <time>2026-09-01T19:56:51Z</time>
  <course>12.13</course>
  <speed>0.01414213562373095</speed>
  <fix>3d</fix>
</trkpt>
<trkpt lat="-27.2742585" lon="151.2900724">
  <ele>359.57</ele>
  <time>2026-09-01T19:56:51Z</time>
  <course>304.03</course>
  <speed>0.02</speed>
  <fix>3d</fix>
</trkpt>
<trkpt lat="-27.2742587" lon="151.2900725">
  <ele>359.15</ele>
  <time>2026-09-01T19:56:51Z</time>
  <course>12.11</course>
  <speed>0.01414213562373095</speed>
  <fix>3d</fix>
</trkpt>
<trkpt lat="-27.2742585" lon="151.2900724">
  <ele>359.57</ele>
  <time>2026-09-01T19:56:51Z</time>
  <course>304.03</course>
  <speed>0.02</speed>
  <fix>3d</fix>
</trkpt>
<trkpt lat="-27.2742587" lon="151.2900725">
  <ele>359.0</ele>
  <time>2026-09-01T19:56:51Z</time>
  <course>12.11</course>
  <speed>0.022360679774997897</speed>
  <fix>3d</fix>
</trkpt>
<trkpt lat="-27.2742584" lon="151.2900724">
  <ele>359.27</ele>
  <time>2026-09-01T19:56:51Z</time>
  <course>300.59</course>
  <speed>0.02</speed>
  <fix>3d</fix>
</trkpt>
<trkpt lat="-27.2742587" lon="151.2900725">
  <ele>358.85</ele>
  <time>2026-09-01T19:56:51Z</time>
  <course>12.11</course>
  <speed>0.01414213562373095</speed>
  <fix>3d</fix>
</trkpt>
<trkpt lat="-27.2742584" lon="151.2900724">
  <ele>359.27</ele>
  <time>2026-09-01T19:56:51Z</time>
  <course>300.59</course>
  <speed>0.02</speed>
  <fix>3d</fix>
</trkpt>
<trkpt lat="-27.2742587" lon="151.2900724">
  <ele>358.7</ele>
  <time>2026-09-01T19:56:51Z</time>
  <course>12.12</course>
  <speed>0.01414213562373095</speed>
  <fix>3d</fix>
</trkpt>
<trkpt lat="-27.2742584" lon="151.2900723">
  <ele>358.97</ele>
  <time>2026-09-01T19:56:51Z</time>
  <course>296.58</course>
  <speed>0.02</speed>
  <fix>3d</fix>
</trkpt>
<trkpt lat="-27.2742586" lon="151.2900724">
  <ele>358.55</ele>
  <time>2026-09-01T19:56:51Z</time>
  <course>12.15</course>
  <speed>0.01414213562373095</speed>
  <fix>3d</fix>
</trkpt>
<trkpt lat="-27.2742584" lon="151.2900723">
  <ele>358.97</ele>
  <time>2026-09-01T19:56:51Z</time>
  <course>296.58</course>
  <speed>0.02</speed>
  <fix>3d</fix>
</trkpt>
<trkpt lat="-27.2742586" lon="151.2900724">
  <ele>358.4</ele>
  <time>2026-09-01T19:56:51Z</time>
  <course>12.17</course>
  <speed>0.01414213562373095</speed>
  <fix>3d</fix>
</trkpt>
<trkpt lat="-27.2742584" lon="151.2900723">
  <ele>358.66</ele>
  <time>2026-09-01T19:56:51Z</time>
  <course>292.49</course>
  <speed>0.02</speed>
  <fix>3d</fix>
</trkpt>
<trkpt lat="-27.2742586" lon="151.2900724">
  <ele>358.25</ele>
  <time>2026-09-01T19:56:51Z</time>
  <course>12.2</course>
  <speed>0.01414213562373095</speed>
  <fix>3d</fix>
</trkpt>
<trkpt lat="-27.2742584" lon="151.2900723">
  <ele>358.66</ele>
  <time>2026-09-01T19:56:51Z</time>
  <course>292.49</course>
  <speed>0.02</speed>
  <fix>3d</fix>
</trkpt>
<trkpt lat="-27.2742586" lon="151.2900723">
  <ele>358.1</ele>
  <time>2026-09-01T19:56:51Z</time>
  <course>12.23</course>
  <speed>0.01414213562373095</speed>
  <fix>3d</fix>
</trkpt>
<trkpt lat="-27.2742584" lon="151.2900722">
  <ele>358.37</ele>
  <time>2026-09-01T19:56:51Z</time>
  <course>288.66</course>
  <speed>0.03</speed>
  <fix>3d</fix>
</trkpt>
<trkpt lat="-27.2742586" lon="151.2900723">
  <ele>357.95</ele>
  <time>2026-09-01T19:56:51Z</time>
  <course>12.25</course>
  <speed>0.01414213562373095</speed>
  <fix>3d</fix>
</trkpt>
<trkpt lat="-27.2742584" lon="151.2900722">
  <ele>358.37</ele>
  <time>2026-09-01T19:56:51Z</time>
  <course>288.66</course>
  <speed>0.03</speed>
  <fix>3d</fix>
</trkpt>
<trkpt lat="-27.2742586" lon="151.2900723">
  <ele>357.8</ele>
  <time>2026-09-01T19:56:51Z</time>
  <course>12.28</course>
  <speed>0.01414213562373095</speed>
  <fix>3d</fix>
</trkpt>
<trkpt lat="-27.2742584" lon="151.2900722">
  <ele>358.07</ele>
  <time>2026-09-01T19:56:51Z</time>
  <course>285.89</course>
  <speed>0.03</speed>
  <fix>3d</fix>
</trkpt>
<trkpt lat="-27.2742586" lon="151.2900722">
  <ele>357.65</ele>
  <time>2026-09-01T19:56:51Z</time>
  <course>12.31</course>
  <speed>0.022360679774997897</speed>
  <fix>3d</fix>
</trkpt>
<trkpt lat="-27.2742584" lon="151.2900722">
  <ele>358.07</ele>
  <time>2026-09-01T19:56:51Z</time>
  <course>285.89</course>
  <speed>0.03</speed>
  <fix>3d</fix>
</trkpt>
<trkpt lat="-27.2742586" lon="151.2900722">
  <ele>357.5</ele>
  <time>2026-09-01T19:56:51Z</time>
  <course>12.35</course>
  <speed>0.022360679774997897</speed>
  <fix>3d</fix>
</trkpt>
<trkpt lat="-27.2742583" lon="151.2900721">
  <ele>357.77</ele>
  <time>2026-09-01T19:56:51Z</time>
  <course>283.7</course>
  <speed>0.03</speed>
  <fix>3d</fix>
</trkpt>
<trkpt lat="-27.2742586" lon="151.2900722">
  <ele>357.35</ele>
  <time>2026-09-01T19:56:51Z</time>
  <course>12.4</course>
  <speed>0.022360679774997897</speed>
  <fix>3d</fix>
</trkpt>
<trkpt lat="-27.2742583" lon="151.2900721">
  <ele>357.77</ele>
  <time>2026-09-01T19:56:51Z</time>
  <course>283.7</course>
  <speed>0.03</speed>
  <fix>3d</fix>
</trkpt>
<trkpt lat="-27.2742586" lon="151.2900721">
  <ele>357.2</ele>
  <time>2026-09-01T19:56:51Z</time>
  <course>12.45</course>
  <speed>0.022360679774997897</speed>
  <fix>3d</fix>
</trkpt>
<trkpt lat="-27.2742583" lon="151.2900721">
  <ele>357.47</ele>
  <time>2026-09-01T19:56:51Z</time>
  <course>281.79</course>
  <speed>0.03</speed>
  <fix>3d</fix>
</trkpt>
<trkpt lat="-27.2742586" lon="151.2900721">
  <ele>357.05</ele>
  <time>2026-09-01T19:56:51Z</time>
  <course>12.5</course>
  <speed>0.022360679774997897</speed>
  <fix>3d</fix>
</trkpt>
<trkpt lat="-27.2742583" lon="151.2900721">
  <ele>357.47</ele>
  <time>2026-09-01T19:56:51Z</time>
  <course>281.79</course>
  <speed>0.03</speed>
  <fix>3d</fix>
</trkpt>
<trkpt lat="-27.2742586" lon="151.2900721">
  <ele>356.91</ele>
  <time>2026-09-01T19:56:51Z</time>
  <course>12.56</course>
  <speed>0.022360679774997897</speed>
  <fix>3d</fix>
</trkpt>
<trkpt lat="-27.2742583" lon="151.290072">
  <ele>357.16</ele>
  <time>2026-09-01T19:56:51Z</time>
  <course>280.67</course>
  <speed>0.03</speed>
  <fix>3d</fix>
</trkpt>
<trkpt lat="-27.2742586" lon="151.290072">
  <ele>356.76</ele>
  <time>2026-09-01T19:56:51Z</time>
  <course>12.61</course>
  <speed>0.022360679774997897</speed>
  <fix>3d</fix>
</trkpt>
<trkpt lat="-27.2742583" lon="151.290072">
  <ele>357.16</ele>
  <time>2026-09-01T19:56:51Z</time>
  <course>280.67</course>
  <speed>0.03</speed>
  <fix>3d</fix>
</trkpt>
<trkpt lat="-27.2742585" lon="151.290072">
  <ele>356.61</ele>
  <time>2026-09-01T19:56:51Z</time>
  <course>12.67</course>
  <speed>0.022360679774997897</speed>
  <fix>3d</fix>
</trkpt>
<trkpt lat="-27.2742583" lon="151.2900719">
  <ele>356.87</ele>
  <time>2026-09-01T19:56:51Z</time>
  <course>279.73</course>
  <speed>0.03</speed>
  <fix>3d</fix>
</trkpt>
<trkpt lat="-27.2742585" lon="151.2900719">
  <ele>356.46</ele>
  <time>2026-09-01T19:56:51Z</time>
  <course>12.73</course>
  <speed>0.022360679774997897</speed>
  <fix>3d</fix>
</trkpt>
<trkpt lat="-27.2742583" lon="151.2900719">
  <ele>356.87</ele>
  <time>2026-09-01T19:56:51Z</time>
  <course>279.73</course>
  <speed>0.03</speed>
  <fix>3d</fix>
</trkpt>
<trkpt lat="-27.2742585" lon="151.2900719">
  <ele>356.3</ele>
  <time>2026-09-01T19:56:51Z</time>
  <course>12.78</course>
  <speed>0.0316227766016838</speed>
  <fix>3d</fix>
</trkpt>
<trkpt lat="-27.2742583" lon="151.2900718">
  <ele>356.57</ele>
  <time>2026-09-01T19:56:51Z</time>
  <course>279.13</course>
  <speed>0.03</speed>
  <fix>3d</fix>
</trkpt>
<trkpt lat="-27.2742585" lon="151.2900719">
  <ele>356.15</ele>
  <time>2026-09-01T19:56:51Z</time>
  <course>12.84</course>
  <speed>0.0316227766016838</speed>
  <fix>3d</fix>
</trkpt>
<trkpt lat="-27.2742583" lon="151.2900718">
  <ele>356.57</ele>
  <time>2026-09-01T19:56:51Z</time>
  <course>279.13</course>
  <speed>0.03</speed>
  <fix>3d</fix>
</trkpt>
<trkpt lat="-27.2742585" lon="151.2900718">
  <ele>356.0</ele>
  <time>2026-09-01T19:56:51Z</time>
  <course>12.9</course>
  <speed>0.0316227766016838</speed>
  <fix>3d</fix>
</trkpt>
<trkpt lat="-27.2742583" lon="151.2900717">
  <ele>356.27</ele>
  <time>2026-09-01T19:56:51Z</time>
  <course>278.97</course>
  <speed>0.04</speed>
  <fix>3d</fix>
</trkpt>
<trkpt lat="-27.2742585" lon="151.2900718">
  <ele>355.85</ele>
  <time>2026-09-01T19:56:51Z</time>
  <course>12.95</course>
  <speed>0.0316227766016838</speed>
  <fix>3d</fix>
</trkpt>
<trkpt lat="-27.2742583" lon="151.2900717">
  <ele>356.27</ele>
  <time>2026-09-01T19:56:51Z</time>
  <course>278.97</course>
  <speed>0.04</speed>
  <fix>3d</fix>
</trkpt>
<trkpt lat="-27.2742585" lon="151.2900717">
  <ele>355.7</ele>
  <time>2026-09-01T19:56:51Z</time>
  <course>13.0</course>
  <speed>0.0316227766016838</speed>
  <fix>3d</fix>
</trkpt>
<trkpt lat="-27.2742583" lon="151.2900717">
  <ele>355.97</ele>
  <time>2026-09-01T19:56:51Z</time>
  <course>279.07</course>
  <speed>0.04</speed>
  <fix>3d</fix>
</trkpt>
<trkpt lat="-27.2742585" lon="151.2900717">
  <ele>355.55</ele>
  <time>2026-09-01T19:56:51Z</time>
  <course>13.05</course>
  <speed>0.0316227766016838</speed>
  <fix>3d</fix>
</trkpt>
<trkpt lat="-27.2742583" lon="151.2900717">
  <ele>355.97</ele>
  <time>2026-09-01T19:56:51Z</time>
  <course>279.07</course>
  <speed>0.04</speed>
  <fix>3d</fix>
</trkpt>
<trkpt lat="-27.2742585" lon="151.2900716">
  <ele>355.4</ele>
  <time>2026-09-01T19:56:51Z</time>
  <course>13.11</course>
  <speed>0.0412310562561766</speed>
  <fix>3d</fix>
</trkpt>
<trkpt lat="-27.2742583" lon="151.2900716">
  <ele>355.66</ele>
  <time>2026-09-01T19:56:51Z</time>
  <course>279.37</course>
  <speed>0.04</speed>
  <fix>3d</fix>
</trkpt>
<trkpt lat="-27.2742585" lon="151.2900716">
  <ele>355.25</ele>
  <time>2026-09-01T19:56:51Z</time>
  <course>13.17</course>
  <speed>0.0412310562561766</speed>
  <fix>3d</fix>
</trkpt>
<trkpt lat="-27.2742583" lon="151.2900716">
  <ele>355.66</ele>
  <time>2026-09-01T19:56:51Z</time>
  <course>279.37</course>
  <speed>0.04</speed>
  <fix>3d</fix>
</trkpt>
<trkpt lat="-27.2742585" lon="151.2900715">
  <ele>355.1</ele>
  <time>2026-09-01T19:56:51Z</time>
  <course>13.23</course>
  <speed>0.0412310562561766</speed>
  <fix>3d</fix>
</trkpt>
<trkpt lat="-27.2742582" lon="151.2900715">
  <ele>355.37</ele>
  <time>2026-09-01T19:56:51Z</time>
  <course>279.79</course>
  <speed>0.04</speed>
  <fix>3d</fix>
</trkpt>
<trkpt lat="-27.2742585" lon="151.2900715">
  <ele>354.95</ele>
  <time>2026-09-01T19:56:51Z</time>
  <course>13.3</course>
  <speed>0.0412310562561766</speed>
  <fix>3d</fix>
</trkpt>
<trkpt lat="-27.2742582" lon="151.2900715">
  <ele>355.37</ele>
  <time>2026-09-01T19:56:51Z</time>
  <course>279.79</course>
  <speed>0.04</speed>
  <fix>3d</fix>
</trkpt>
<trkpt lat="-27.2742585" lon="151.2900714">
  <ele>354.8</ele>
  <time>2026-09-01T19:56:51Z</time>
  <course>13.36</course>
  <speed>0.0412310562561766</speed>
  <fix>3d</fix>
</trkpt>
<trkpt lat="-27.2742582" lon="151.2900714">
  <ele>355.07</ele>
  <time>2026-09-01T19:56:51Z</time>
  <course>280.41</course>
  <speed>0.05</speed>
  <fix>3d</fix>
</trkpt>
<trkpt lat="-27.2742584" lon="151.2900714">
  <ele>354.65</ele>
  <time>2026-09-01T19:56:51Z</time>
  <course>13.43</course>
  <speed>0.0412310562561766</speed>
  <fix>3d</fix>
</trkpt>
<trkpt lat="-27.2742582" lon="151.2900714">
  <ele>355.07</ele>
  <time>2026-09-01T19:56:51Z</time>
  <course>280.41</course>
  <speed>0.05</speed>
  <fix>3d</fix>
</trkpt>
<trkpt lat="-27.2742584" lon="151.2900713">
  <ele>354.5</ele>
  <time>2026-09-01T19:56:51Z</time>
  <course>13.49</course>
  <speed>0.0412310562561766</speed>
  <fix>3d</fix>
</trkpt>
<trkpt lat="-27.2742582" lon="151.2900713">
  <ele>354.77</ele>
  <time>2026-09-01T19:56:51Z</time>
  <course>281.1</course>
  <speed>0.05</speed>
  <fix>3d</fix>
</trkpt>
<trkpt lat="-27.2742584" lon="151.2900713">
  <ele>354.35</ele>
  <time>2026-09-01T19:56:51Z</time>
  <course>13.57</course>
  <speed>0.04</speed>
  <fix>3d</fix>
</trkpt>
<trkpt lat="-27.2742582" lon="151.2900713">
  <ele>354.77</ele>
  <time>2026-09-01T19:56:51Z</time>
  <course>281.1</course>
  <speed>0.05</speed>
  <fix>3d</fix>
</trkpt>
<trkpt lat="-27.2742584" lon="151.2900712">
  <ele>354.2</ele>
  <time>2026-09-01T19:56:51Z</time>
  <course>13.63</course>
  <speed>0.04</speed>
  <fix>3d</fix>
</trkpt>
<trkpt lat="-27.2742582" lon="151.2900712">
  <ele>354.47</ele>
  <time>2026-09-01T19:56:51Z</time>
  <course>281.87</course>
  <speed>0.05</speed>
  <fix>3d</fix>
</trkpt>
<trkpt lat="-27.2742584" lon="151.2900711">
  <ele>354.05</ele>
  <time>2026-09-01T19:56:51Z</time>
  <course>13.67</course>
  <speed>0.04</speed>
  <fix>3d</fix>
</trkpt>
<trkpt lat="-27.2742582" lon="151.2900712">
  <ele>354.47</ele>
  <time>2026-09-01T19:56:51Z</time>
  <course>281.87</course>
  <speed>0.05</speed>
  <fix>3d</fix>
</trkpt>
<trkpt lat="-27.2742584" lon="151.2900711">
  <ele>353.9</ele>
  <time>2026-09-01T19:56:51Z</time>
  <course>13.59</course>
  <speed>0.0316227766016838</speed>
  <fix>3d</fix>
</trkpt>
<trkpt lat="-27.2742582" lon="151.290071">
  <ele>354.16</ele>
  <time>2026-09-01T19:56:51Z</time>
  <course>282.84</course>
  <speed>0.05</speed>
  <fix>3d</fix>
</trkpt>
<trkpt lat="-27.2742584" lon="151.2900711">
  <ele>353.75</ele>
  <time>2026-09-01T19:56:51Z</time>
  <course>13.33</course>
  <speed>0.01414213562373095</speed>
  <fix>3d</fix>
</trkpt>
<trkpt lat="-27.2742582" lon="151.290071">
  <ele>354.16</ele>
  <time>2026-09-01T19:56:51Z</time>
  <course>282.84</course>
  <speed>0.05</speed>
  <fix>3d</fix>
</trkpt>
<trkpt lat="-27.2742584" lon="151.290071">
  <ele>353.6</ele>
  <time>2026-09-01T19:56:51Z</time>
  <course>12.93</course>
  <speed>0.02</speed>
  <fix>3d</fix>
</trkpt>
<trkpt lat="-27.2742582" lon="151.2900709">
  <ele>353.87</ele>
  <time>2026-09-01T19:56:51Z</time>
  <course>284.14</course>
  <speed>0.03</speed>
  <fix>3d</fix>
</trkpt>
<trkpt lat="-27.2742584" lon="151.2900711">
  <ele>353.45</ele>
  <time>2026-09-01T19:56:51Z</time>
  <course>12.45</course>
  <speed>0.0282842712474619</speed>
  <fix>3d</fix>
</trkpt>
<trkpt lat="-27.2742582" lon="151.2900709">
  <ele>353.87</ele>
  <time>2026-09-01T19:56:51Z</time>
  <course>284.14</course>
  <speed>0.03</speed>
  <fix>3d</fix>
</trkpt>
<trkpt lat="-27.2742584" lon="151.2900711">
  <ele>353.3</ele>
  <time>2026-09-01T19:56:51Z</time>
  <course>11.98</course>
  <speed>0.05</speed>
  <fix>3d</fix>
</trkpt>
<trkpt lat="-27.2742581" lon="151.2900709">
  <ele>353.57</ele>
  <time>2026-09-01T19:56:51Z</time>
  <course>291.78</course>
  <speed>0.0</speed>
  <fix>3d</fix>
</trkpt>
<trkpt lat="-27.2742584" lon="151.2900711">
  <ele>353.16</ele>
  <time>2026-09-01T19:56:51Z</time>
  <course>11.59</course>
  <speed>0.05830951894845301</speed>
  <fix>3d</fix>
</trkpt>
<trkpt lat="-27.2742581" lon="151.2900709">
  <ele>353.57</ele>
  <time>2026-09-01T19:56:51Z</time>
  <course>291.78</course>
  <speed>0.0</speed>
  <fix>3d</fix>
</trkpt>
<trkpt lat="-27.2742584" lon="151.2900712">
  <ele>353.01</ele>
  <time>2026-09-01T19:56:51Z</time>
  <course>11.29</course>
  <speed>0.08062257748298549</speed>
  <fix>3d</fix>
</trkpt>
<trkpt lat="-27.2742581" lon="151.2900709">
  <ele>353.28</ele>
  <time>2026-09-01T19:56:51Z</time>
  <course>102.8</course>
  <speed>0.02</speed>
  <fix>3d</fix>
</trkpt>
<trkpt lat="-27.2742584" lon="151.2900712">
  <ele>352.87</ele>
  <time>2026-09-01T19:56:51Z</time>
  <course>11.1</course>
  <speed>0.09848857801796104</speed>
  <fix>3d</fix>
</trkpt>
<trkpt lat="-27.2742581" lon="151.2900709">
  <ele>353.28</ele>
  <time>2026-09-01T19:56:51Z</time>
  <course>102.8</course>
  <speed>0.02</speed>
  <fix>3d</fix>
</trkpt>
<trkpt lat="-27.2742584" lon="151.2900712">
  <ele>352.72</ele>
  <time>2026-09-01T19:56:51Z</time>
  <course>11.02</course>
  <speed>0.1118033988749895</speed>
  <fix>3d</fix>
</trkpt>
<trkpt lat="-27.2742582" lon="151.2900709">
  <ele>352.98</ele>
  <time>2026-09-01T19:56:51Z</time>
  <course>105.23</course>
  <speed>0.06</speed>
  <fix>3d</fix>
</trkpt>
<trkpt lat="-27.2742584" lon="151.2900713">
  <ele>352.58</ele>
  <time>2026-09-01T19:56:51Z</time>
  <course>11.02</course>
  <speed>0.12083045973594572</speed>
  <fix>3d</fix>
</trkpt>
<trkpt lat="-27.2742582" lon="151.2900709">
  <ele>352.98</ele>
  <time>2026-09-01T19:56:51Z</time>
  <course>105.23</course>
  <speed>0.06</speed>
  <fix>3d</fix>
</trkpt>
<trkpt lat="-27.2742584" lon="151.2900714">
  <ele>352.45</ele>
  <time>2026-09-01T19:56:52Z</time>
  <course>11.06</course>
  <speed>0.14317821063276354</speed>
  <fix>3d</fix>
</trkpt>
<trkpt lat="-27.2742582" lon="151.290071">
  <ele>352.7</ele>
  <time>2026-09-01T19:56:52Z</time>
  <course>106.85</course>
  <speed>0.09</speed>
  <fix>3d</fix>
</trkpt>
<trkpt lat="-27.2742585" lon="151.2900715">
  <ele>352.31</ele>
  <time>2026-09-01T19:56:52Z</time>
  <course>11.12</course>
  <speed>0.15231546211727817</speed>
  <fix>3d</fix>
</trkpt>
<trkpt lat="-27.2742582" lon="151.290071">
  <ele>352.7</ele>
  <time>2026-09-01T19:56:52Z</time>
  <course>106.85</course>
  <speed>0.09</speed>
  <fix>3d</fix>
</trkpt>
<trkpt lat="-27.2742585" lon="151.2900717">
  <ele>352.18</ele>
  <time>2026-09-01T19:56:52Z</time>
  <course>11.17</course>
  <speed>0.16552945357246848</speed>
  <fix>3d</fix>
</trkpt>
<trkpt lat="-27.2742582" lon="151.2900713">
  <ele>352.41</ele>
  <time>2026-09-01T19:56:52Z</time>
  <course>108.13</course>
  <speed>0.12</speed>
  <fix>3d</fix>
</trkpt>
<trkpt lat="-27.2742585" lon="151.2900718">
  <ele>352.05</ele>
  <time>2026-09-01T19:56:52Z</time>
  <course>11.2</course>
  <speed>0.17464249196572978</speed>
  <fix>3d</fix>
</trkpt>
<trkpt lat="-27.2742582" lon="151.2900713">
  <ele>352.41</ele>
  <time>2026-09-01T19:56:52Z</time>
  <course>108.13</course>
  <speed>0.12</speed>
  <fix>3d</fix>
</trkpt>
<trkpt lat="-27.2742586" lon="151.290072">
  <ele>351.93</ele>
  <time>2026-09-01T19:56:52Z</time>
  <course>11.19</course>
  <speed>0.18788294228055935</speed>
  <fix>3d</fix>
</trkpt>
<trkpt lat="-27.2742582" lon="151.2900715">
  <ele>352.15</ele>
  <time>2026-09-01T19:56:52Z</time>
  <course>109.15</course>
  <speed>0.15</speed>
  <fix>3d</fix>
</trkpt>
<trkpt lat="-27.2742586" lon="151.2900721">
  <ele>351.8</ele>
  <time>2026-09-01T19:56:52Z</time>
  <course>11.15</course>
  <speed>0.19697715603592209</speed>
  <fix>3d</fix>
</trkpt>
<trkpt lat="-27.2742582" lon="151.2900715">
  <ele>352.15</ele>
  <time>2026-09-01T19:56:52Z</time>
  <course>109.15</course>
  <speed>0.15</speed>
  <fix>3d</fix>
</trkpt>
<trkpt lat="-27.2742587" lon="151.2900723">
  <ele>351.68</ele>
  <time>2026-09-01T19:56:52Z</time>
  <course>11.08</course>
  <speed>0.2102379604162864</speed>
  <fix>3d</fix>
</trkpt>
<trkpt lat="-27.2742583" lon="151.2900718">
  <ele>351.89</ele>
  <time>2026-09-01T19:56:52Z</time>
  <course>109.92</course>
  <speed>0.17</speed>
  <fix>3d</fix>
</trkpt>
<trkpt lat="-27.2742587" lon="151.2900725">
  <ele>351.56</ele>
  <time>2026-09-01T19:56:52Z</time>
  <course>10.99</course>
  <speed>0.2193171219946131</speed>
  <fix>3d</fix>
</trkpt>
<trkpt lat="-27.2742583" lon="151.2900718">
  <ele>351.89</ele>
  <time>2026-09-01T19:56:52Z</time>
  <course>109.92</course>
  <speed>0.17</speed>
  <fix>3d</fix>
</trkpt>
<trkpt lat="-27.2742588" lon="151.2900727">
  <ele>351.44</ele>
  <time>2026-09-01T19:56:52Z</time>
  <course>10.89</course>
  <speed>0.2193171219946131</speed>
  <fix>3d</fix>
</trkpt>
<trkpt lat="-27.2742584" lon="151.2900723">
  <ele>351.64</ele>
  <time>2026-09-01T19:56:52Z</time>
  <course>110.51</course>
  <speed>0.19</speed>
  <fix>3d</fix>
</trkpt>
<trkpt lat="-27.2742589" lon="151.2900729">
  <ele>351.32</ele>
  <time>2026-09-01T19:56:52Z</time>
  <course>10.8</course>
  <speed>0.23259406699226015</speed>
  <fix>3d</fix>
</trkpt>
<trkpt lat="-27.2742584" lon="151.2900723">
  <ele>351.64</ele>
  <time>2026-09-01T19:56:52Z</time>
  <course>110.51</course>
  <speed>0.19</speed>
  <fix>3d</fix>
</trkpt>
<trkpt lat="-27.2742589" lon="151.2900731">
  <ele>351.21</ele>
  <time>2026-09-01T19:56:52Z</time>
  <course>10.71</course>
  <speed>0.23259406699226015</speed>
  <fix>3d</fix>
</trkpt>
<trkpt lat="-27.2742585" lon="151.2900727">
  <ele>351.4</ele>
  <time>2026-09-01T19:56:52Z</time>
  <course>111.07</course>
  <speed>0.21</speed>
  <fix>3d</fix>
</trkpt>
<trkpt lat="-27.274259" lon="151.2900733">
  <ele>351.1</ele>
  <time>2026-09-01T19:56:52Z</time>
  <course>10.63</course>
  <speed>0.24166091947189144</speed>
  <fix>3d</fix>
</trkpt>
<trkpt lat="-27.2742585" lon="151.2900727">
  <ele>351.4</ele>
  <time>2026-09-01T19:56:52Z</time>
  <course>111.07</course>
  <speed>0.21</speed>
  <fix>3d</fix>
</trkpt>
<trkpt lat="-27.274259" lon="151.2900735">
  <ele>350.99</ele>
  <time>2026-09-01T19:56:52Z</time>
  <course>10.56</course>
  <speed>0.24166091947189144</speed>
  <fix>3d</fix>
</trkpt>
<trkpt lat="-27.2742587" lon="151.290073">
  <ele>351.16</ele>
  <time>2026-09-01T19:56:52Z</time>
  <course>111.75</course>
  <speed>0.22</speed>
  <fix>3d</fix>
</trkpt>
<trkpt lat="-27.2742591" lon="151.2900737">
  <ele>350.88</ele>
  <time>2026-09-01T19:56:52Z</time>
  <course>10.51</course>
  <speed>0.24166091947189144</speed>
  <fix>3d</fix>
</trkpt>
<trkpt lat="-27.2742587" lon="151.290073">
  <ele>351.16</ele>
  <time>2026-09-01T19:56:52Z</time>
  <course>111.75</course>
  <speed>0.22</speed>
  <fix>3d</fix>
</trkpt>
<trkpt lat="-27.2742592" lon="151.2900739">
  <ele>350.78</ele>
  <time>2026-09-01T19:56:52Z</time>
  <course>10.47</course>
  <speed>0.24596747752497689</speed>
  <fix>3d</fix>
</trkpt>
<trkpt lat="-27.2742589" lon="151.2900735">
  <ele>350.95</ele>
  <time>2026-09-01T19:56:52Z</time>
  <course>112.63</course>
  <speed>0.22</speed>
  <fix>3d</fix>
</trkpt>
<trkpt lat="-27.2742593" lon="151.2900741">
  <ele>350.68</ele>
  <time>2026-09-01T19:56:52Z</time>
  <course>10.43</course>
  <speed>0.24596747752497689</speed>
  <fix>3d</fix>
</trkpt>
<trkpt lat="-27.2742589" lon="151.2900735">
  <ele>350.95</ele>
  <time>2026-09-01T19:56:52Z</time>
  <course>112.63</course>
  <speed>0.22</speed>
  <fix>3d</fix>
</trkpt>
<trkpt lat="-27.2742593" lon="151.2900744">
  <ele>350.57</ele>
  <time>2026-09-01T19:56:52Z</time>
  <course>10.41</course>
  <speed>0.23706539182259395</speed>
  <fix>3d</fix>
</trkpt>
<trkpt lat="-27.274259" lon="151.2900738">
  <ele>350.73</ele>
  <time>2026-09-01T19:56:52Z</time>
  <course>113.62</course>
  <speed>0.22</speed>
  <fix>3d</fix>
</trkpt>
<trkpt lat="-27.2742594" lon="151.2900746">
  <ele>350.47</ele>
  <time>2026-09-01T19:56:52Z</time>
  <course>10.39</course>
  <speed>0.23706539182259395</speed>
  <fix>3d</fix>
</trkpt>
<trkpt lat="-27.274259" lon="151.2900738">
  <ele>350.73</ele>
  <time>2026-09-01T19:56:52Z</time>
  <course>113.62</course>
  <speed>0.22</speed>
  <fix>3d</fix>
</trkpt>
<trkpt lat="-27.2742595" lon="151.2900747">
  <ele>350.37</ele>
  <time>2026-09-01T19:56:52Z</time>
  <course>10.36</course>
  <speed>0.223606797749979</speed>
  <fix>3d</fix>
</trkpt>
<trkpt lat="-27.2742591" lon="151.2900743">
  <ele>350.53</ele>
  <time>2026-09-01T19:56:52Z</time>
  <course>114.53</course>
  <speed>0.22</speed>
  <fix>3d</fix>
</trkpt>
<trkpt lat="-27.2742596" lon="151.2900749">
  <ele>350.28</ele>
  <time>2026-09-01T19:56:52Z</time>
  <course>10.33</course>
  <speed>0.223606797749979</speed>
  <fix>3d</fix>
</trkpt>
<trkpt lat="-27.2742591" lon="151.2900743">
  <ele>350.53</ele>
  <time>2026-09-01T19:56:52Z</time>
  <course>114.53</course>
  <speed>0.22</speed>
  <fix>3d</fix>
</trkpt>
<trkpt lat="-27.2742596" lon="151.2900751">
  <ele>350.18</ele>
  <time>2026-09-01T19:56:52Z</time>
  <course>10.31</course>
  <speed>0.21470910553583888</speed>
  <fix>3d</fix>
</trkpt>
<trkpt lat="-27.2742594" lon="151.2900747">
  <ele>350.33</ele>
  <time>2026-09-01T19:56:52Z</time>
  <course>115.4</course>
  <speed>0.21</speed>
  <fix>3d</fix>
</trkpt>
<trkpt lat="-27.2742597" lon="151.2900753">
  <ele>350.08</ele>
  <time>2026-09-01T19:56:52Z</time>
  <course>10.28</course>
  <speed>0.20591260281974003</speed>
  <fix>3d</fix>
</trkpt>
<trkpt lat="-27.2742594" lon="151.2900747">
  <ele>350.33</ele>
  <time>2026-09-01T19:56:52Z</time>
  <course>115.4</course>
  <speed>0.21</speed>
  <fix>3d</fix>
</trkpt>
<trkpt lat="-27.2742598" lon="151.2900755">
  <ele>349.99</ele>
  <time>2026-09-01T19:56:52Z</time>
  <course>10.25</course>
  <speed>0.1972308292331602</speed>
  <fix>3d</fix>
</trkpt>
<trkpt lat="-27.2742595" lon="151.290075">
  <ele>350.14</ele>
  <time>2026-09-01T19:56:52Z</time>
  <course>116.4</course>
  <speed>0.19</speed>
  <fix>3d</fix>
</trkpt>
<trkpt lat="-27.2742599" lon="151.2900756">
  <ele>349.9</ele>
  <time>2026-09-01T19:56:52Z</time>
  <course>10.21</course>
  <speed>0.1835755975068582</speed>
  <fix>3d</fix>
</trkpt>
<trkpt lat="-27.2742595" lon="151.290075">
  <ele>350.14</ele>
  <time>2026-09-01T19:56:52Z</time>
  <course>116.4</course>
  <speed>0.19</speed>
  <fix>3d</fix>
</trkpt>
<trkpt lat="-27.2742599" lon="151.2900758">
  <ele>349.81</ele>
  <time>2026-09-01T19:56:52Z</time>
  <course>10.18</course>
  <speed>0.17492855684535902</speed>
  <fix>3d</fix>
</trkpt>
<trkpt lat="-27.2742597" lon="151.2900754">
  <ele>349.96</ele>
  <time>2026-09-01T19:56:52Z</time>
  <course>117.62</course>
  <speed>0.18</speed>
  <fix>3d</fix>
</trkpt>
<trkpt lat="-27.27426" lon="151.2900759">
  <ele>349.72</ele>
  <time>2026-09-01T19:56:52Z</time>
  <course>10.15</course>
  <speed>0.1664331697709324</speed>
  <fix>3d</fix>
</trkpt>
<trkpt lat="-27.2742597" lon="151.2900754">
  <ele>349.96</ele>
  <time>2026-09-01T19:56:52Z</time>
  <course>117.62</course>
  <speed>0.18</speed>
  <fix>3d</fix>
</trkpt>
<trkpt lat="-27.2742601" lon="151.290076">
  <ele>349.64</ele>
  <time>2026-09-01T19:56:52Z</time>
  <course>10.12</course>
  <speed>0.15264337522473748</speed>
  <fix>3d</fix>
</trkpt>
<trkpt lat="-27.2742598" lon="151.2900757">
  <ele>349.78</ele>
  <time>2026-09-01T19:56:52Z</time>
  <course>119.18</course>
  <speed>0.15</speed>
  <fix>3d</fix>
</trkpt>
<trkpt lat="-27.2742601" lon="151.2900761">
  <ele>349.56</ele>
  <time>2026-09-01T19:56:52Z</time>
  <course>10.09</course>
  <speed>0.13601470508735444</speed>
  <fix>3d</fix>
</trkpt>
<trkpt lat="-27.2742598" lon="151.2900757">
  <ele>349.78</ele>
  <time>2026-09-01T19:56:52Z</time>
  <course>119.18</course>
  <speed>0.15</speed>
  <fix>3d</fix>
</trkpt>
<trkpt lat="-27.2742602" lon="151.2900762">
  <ele>349.48</ele>
  <time>2026-09-01T19:56:52Z</time>
  <course>10.06</course>
  <speed>0.12206555615733702</speed>
  <fix>3d</fix>
</trkpt>
<trkpt lat="-27.2742599" lon="151.290076">
  <ele>349.6</ele>
  <time>2026-09-01T19:56:52Z</time>
  <course>121.32</course>
  <speed>0.13</speed>
  <fix>3d</fix>
</trkpt>
<trkpt lat="-27.2742602" lon="151.2900763">
  <ele>349.4</ele>
  <time>2026-09-01T19:56:52Z</time>
  <course>10.03</course>
  <speed>0.11401754250991379</speed>
  <fix>3d</fix>
</trkpt>
<trkpt lat="-27.2742599" lon="151.290076">
  <ele>349.6</ele>
  <time>2026-09-01T19:56:52Z</time>
  <course>121.32</course>
  <speed>0.13</speed>
  <fix>3d</fix>
</trkpt>
<trkpt lat="-27.2742603" lon="151.2900764">
  <ele>349.32</ele>
  <time>2026-09-01T19:56:52Z</time>
  <course>10.02</course>
  <speed>0.1</speed>
  <fix>3d</fix>
</trkpt>
<trkpt lat="-27.2742601" lon="151.2900761">
  <ele>349.44</ele>
  <time>2026-09-01T19:56:52Z</time>
  <course>124.4</course>
  <speed>0.11</speed>
  <fix>3d</fix>
</trkpt>
<trkpt lat="-27.2742603" lon="151.2900765">
  <ele>349.25</ele>
  <time>2026-09-01T19:56:52Z</time>
  <course>10.01</course>
  <speed>0.0848528137423857</speed>
  <fix>3d</fix>
</trkpt>
<trkpt lat="-27.2742601" lon="151.2900761">
  <ele>349.44</ele>
  <time>2026-09-01T19:56:52Z</time>
  <course>124.4</course>
  <speed>0.11</speed>
  <fix>3d</fix>
</trkpt>
<trkpt lat="-27.2742604" lon="151.2900765">
  <ele>349.17</ele>
  <time>2026-09-01T19:56:52Z</time>
  <course>10.01</course>
  <speed>0.07810249675906654</speed>
  <fix>3d</fix>
</trkpt>
<trkpt lat="-27.2742602" lon="151.2900763">
  <ele>349.28</ele>
  <time>2026-09-01T19:56:52Z</time>
  <course>129.67</course>
  <speed>0.08</speed>
  <fix>3d</fix>
</trkpt>
<trkpt lat="-27.2742604" lon="151.2900765">
  <ele>349.1</ele>
  <time>2026-09-01T19:56:52Z</time>
  <course>10.02</course>
  <speed>0.05830951894845301</speed>
  <fix>3d</fix>
</trkpt>
<trkpt lat="-27.2742602" lon="151.2900763">
  <ele>349.28</ele>
  <time>2026-09-01T19:56:52Z</time>
  <course>129.67</course>
  <speed>0.08</speed>
  <fix>3d</fix>
</trkpt>
<trkpt lat="-27.2742604" lon="151.2900765">
  <ele>349.03</ele>
  <time>2026-09-01T19:56:52Z</time>
  <course>10.05</course>
  <speed>0.044721359549995794</speed>
  <fix>3d</fix>
</trkpt>
<trkpt lat="-27.2742603" lon="151.2900764">
  <ele>349.13</ele>
  <time>2026-09-01T19:56:52Z</time>
  <course>140.22</course>
  <speed>0.05</speed>
  <fix>3d</fix>
</trkpt>
<trkpt lat="-27.2742605" lon="151.2900765">
  <ele>348.95</ele>
  <time>2026-09-01T19:56:52Z</time>
  <course>10.06</course>
  <speed>0.0412310562561766</speed>
  <fix>3d</fix>
</trkpt>
<trkpt lat="-27.2742603" lon="151.2900764">
  <ele>349.13</ele>
  <time>2026-09-01T19:56:52Z</time>
  <course>140.22</course>
  <speed>0.05</speed>
  <fix>3d</fix>
</trkpt>
<trkpt lat="-27.2742605" lon="151.2900766">
  <ele>348.88</ele>
  <time>2026-09-01T19:56:52Z</time>
  <course>9.88</course>
  <speed>0.0412310562561766</speed>
  <fix>3d</fix>
</trkpt>
<trkpt lat="-27.2742603" lon="151.2900765">
  <ele>348.98</ele>
  <time>2026-09-01T19:56:52Z</time>
  <course>161.82</course>
  <speed>0.03</speed>
  <fix>3d</fix>
</trkpt>
<trkpt lat="-27.2742605" lon="151.2900766">
  <ele>348.81</ele>
  <time>2026-09-01T19:56:52Z</time>
  <course>9.54</course>
  <speed>0.0412310562561766</speed>
  <fix>3d</fix>
</trkpt>
<trkpt lat="-27.2742603" lon="151.2900765">
  <ele>348.98</ele>
  <time>2026-09-01T19:56:52Z</time>
  <course>161.82</course>
  <speed>0.03</speed>
  <fix>3d</fix>
</trkpt>
<trkpt lat="-27.2742605" lon="151.2900766">
  <ele>348.75</ele>
  <time>2026-09-01T19:56:52Z</time>
  <course>9.12</course>
  <speed>0.03605551275463989</speed>
  <fix>3d</fix>
</trkpt>
<trkpt lat="-27.2742604" lon="151.2900765">
  <ele>348.84</ele>
  <time>2026-09-01T19:56:52Z</time>
  <course>178.44</course>
  <speed>0.02</speed>
  <fix>3d</fix>
</trkpt>
<trkpt lat="-27.2742605" lon="151.2900766">
  <ele>348.68</ele>
  <time>2026-09-01T19:56:52Z</time>
  <course>8.7</course>
  <speed>0.03605551275463989</speed>
  <fix>3d</fix>
</trkpt>
<trkpt lat="-27.2742604" lon="151.2900765">
  <ele>348.84</ele>
  <time>2026-09-01T19:56:52Z</time>
  <course>178.44</course>
  <speed>0.02</speed>
  <fix>3d</fix>
</trkpt>
<trkpt lat="-27.2742605" lon="151.2900766">
  <ele>348.62</ele>
  <time>2026-09-01T19:56:52Z</time>
  <course>8.37</course>
  <speed>0.03605551275463989</speed>
  <fix>3d</fix>
</trkpt>
<trkpt lat="-27.2742604" lon="151.2900765">
  <ele>348.7</ele>
  <time>2026-09-01T19:56:52Z</time>
  <course>174.28</course>
  <speed>0.01</speed>
  <fix>3d</fix>
</trkpt>
<trkpt lat="-27.2742606" lon="151.2900766">
  <ele>348.55</ele>
  <time>2026-09-01T19:56:52Z</time>
  <course>8.16</course>
  <speed>0.022360679774997897</speed>
  <fix>3d</fix>
</trkpt>
<trkpt lat="-27.2742604" lon="151.2900765">
  <ele>348.7</ele>
  <time>2026-09-01T19:56:52Z</time>
  <course>174.28</course>
  <speed>0.01</speed>
  <fix>3d</fix>
</trkpt>
<trkpt lat="-27.2742606" lon="151.2900766">
  <ele>348.49</ele>
  <time>2026-09-01T19:56:52Z</time>
  <course>8.12</course>
  <speed>0.022360679774997897</speed>
  <fix>3d</fix>
</trkpt>
<trkpt lat="-27.2742605" lon="151.2900765">
  <ele>348.56</ele>
  <time>2026-09-01T19:56:52Z</time>
  <course>179.45</course>
  <speed>0.01</speed>
  <fix>3d</fix>
</trkpt>
<trkpt lat="-27.2742606" lon="151.2900766">
  <ele>348.43</ele>
  <time>2026-09-01T19:56:52Z</time>
  <course>8.22</course>
  <speed>0.01</speed>
  <fix>3d</fix>
</trkpt>
<trkpt lat="-27.2742605" lon="151.2900765">
  <ele>348.56</ele>
  <time>2026-09-01T19:56:52Z</time>
  <course>179.45</course>
  <speed>0.01</speed>
  <fix>3d</fix>
</trkpt>
<trkpt lat="-27.2742606" lon="151.2900766">
  <ele>348.37</ele>
  <time>2026-09-01T19:56:52Z</time>
  <course>8.43</course>
  <speed>0.01</speed>
  <fix>3d</fix>
</trkpt>
<trkpt lat="-27.2742605" lon="151.2900765">
  <ele>348.43</ele>
  <time>2026-09-01T19:56:52Z</time>
  <course>239.27</course>
  <speed>0.0</speed>
  <fix>3d</fix>
</trkpt>
<trkpt lat="-27.2742606" lon="151.2900765">
  <ele>348.31</ele>
  <time>2026-09-01T19:56:52Z</time>
  <course>8.71</course>
  <speed>0.01</speed>
  <fix>3d</fix>
</trkpt>
<trkpt lat="-27.2742605" lon="151.2900765">
  <ele>348.43</ele>
  <time>2026-09-01T19:56:52Z</time>
  <course>239.27</course>
  <speed>0.0</speed>
  <fix>3d</fix>
</trkpt>
<trkpt lat="-27.2742606" lon="151.2900765">
  <ele>348.25</ele>
  <time>2026-09-01T19:56:52Z</time>
  <course>8.99</course>
  <speed>0.01</speed>
  <fix>3d</fix>
</trkpt>
<trkpt lat="-27.2742605" lon="151.2900765">
  <ele>348.31</ele>
  <time>2026-09-01T19:56:52Z</time>
  <course>280.4</course>
  <speed>0.02</speed>
  <fix>3d</fix>
</trkpt>
<trkpt lat="-27.2742606" lon="151.2900765">
  <ele>348.2</ele>
  <time>2026-09-01T19:56:52Z</time>
  <course>9.23</course>
  <speed>0.02</speed>
  <fix>3d</fix>
</trkpt>
<trkpt lat="-27.2742605" lon="151.2900765">
  <ele>348.31</ele>
  <time>2026-09-01T19:56:52Z</time>
  <course>280.4</course>
  <speed>0.02</speed>
  <fix>3d</fix>
</trkpt>
<trkpt lat="-27.2742605" lon="151.2900765">
  <ele>348.14</ele>
  <time>2026-09-01T19:56:52Z</time>
  <course>9.41</course>
  <speed>0.03</speed>
  <fix>3d</fix>
</trkpt>
<trkpt lat="-27.2742605" lon="151.2900765">
  <ele>348.19</ele>
  <time>2026-09-01T19:56:52Z</time>
  <course>288.79</course>
  <speed>0.04</speed>
  <fix>3d</fix>
</trkpt>
<trkpt lat="-27.2742605" lon="151.2900765">
  <ele>348.08</ele>
  <time>2026-09-01T19:56:52Z</time>
  <course>9.52</course>
  <speed>0.04</speed>
  <fix>3d</fix>
</trkpt>
<trkpt lat="-27.2742605" lon="151.2900765">
  <ele>348.19</ele>
  <time>2026-09-01T19:56:52Z</time>
  <course>288.79</course>
  <speed>0.04</speed>
  <fix>3d</fix>
</trkpt>
<trkpt lat="-27.2742605" lon="151.2900764">
  <ele>348.03</ele>
  <time>2026-09-01T19:56:52Z</time>
  <course>9.55</course>
  <speed>0.05099019513592785</speed>
  <fix>3d</fix>
</trkpt>
<trkpt lat="-27.2742605" lon="151.2900764">
  <ele>348.07</ele>
  <time>2026-09-01T19:56:52Z</time>
  <course>291.9</course>
  <speed>0.06</speed>
  <fix>3d</fix>
</trkpt>
<trkpt lat="-27.2742605" lon="151.2900763">
  <ele>347.97</ele>
  <time>2026-09-01T19:56:52Z</time>
  <course>9.54</course>
  <speed>0.06082762530298219</speed>
  <fix>3d</fix>
</trkpt>
<trkpt lat="-27.2742605" lon="151.2900764">
  <ele>348.07</ele>
  <time>2026-09-01T19:56:52Z</time>
  <course>291.9</course>
  <speed>0.06</speed>
  <fix>3d</fix>
</trkpt>
<trkpt lat="-27.2742605" lon="151.2900763">
  <ele>347.92</ele>
  <time>2026-09-01T19:56:52Z</time>
  <course>9.49</course>
  <speed>0.07280109889280519</speed>
  <fix>3d</fix>
</trkpt>
<trkpt lat="-27.2742605" lon="151.2900763">
  <ele>347.96</ele>
  <time>2026-09-01T19:56:52Z</time>
  <course>293.6</course>
  <speed>0.08</speed>
  <fix>3d</fix>
</trkpt>
<trkpt lat="-27.2742605" lon="151.2900762">
  <ele>347.87</ele>
  <time>2026-09-01T19:56:52Z</time>
  <course>9.43</course>
  <speed>0.0824621125123532</speed>
  <fix>3d</fix>
</trkpt>
<trkpt lat="-27.2742605" lon="151.2900763">
  <ele>347.96</ele>
  <time>2026-09-01T19:56:52Z</time>
  <course>293.6</course>
  <speed>0.08</speed>
  <fix>3d</fix>
</trkpt>
<trkpt lat="-27.2742605" lon="151.2900761">
  <ele>347.81</ele>
  <time>2026-09-01T19:56:52Z</time>
  <course>9.37</course>
  <speed>0.09486832980505139</speed>
  <fix>3d</fix>
</trkpt>
<trkpt lat="-27.2742604" lon="151.2900761">
  <ele>347.84</ele>
  <time>2026-09-01T19:56:52Z</time>
  <course>295.0</course>
  <speed>0.1</speed>
  <fix>3d</fix>
</trkpt>
<trkpt lat="-27.2742604" lon="151.2900759">
  <ele>347.76</ele>
  <time>2026-09-01T19:56:52Z</time>
  <course>9.33</course>
  <speed>0.10770329614269007</speed>
  <fix>3d</fix>
</trkpt>
<trkpt lat="-27.2742604" lon="151.2900761">
  <ele>347.84</ele>
  <time>2026-09-01T19:56:52Z</time>
  <course>295.0</course>
  <speed>0.1</speed>
  <fix>3d</fix>
</trkpt>
<trkpt lat="-27.2742604" lon="151.2900758">
  <ele>347.71</ele>
  <time>2026-09-01T19:56:52Z</time>
  <course>9.3</course>
  <speed>0.11704699910719625</speed>
  <fix>3d</fix>
</trkpt>
<trkpt lat="-27.2742603" lon="151.2900758">
  <ele>347.74</ele>
  <time>2026-09-01T19:56:52Z</time>
  <course>296.46</course>
  <speed>0.13</speed>
  <fix>3d</fix>
</trkpt>
<trkpt lat="-27.2742603" lon="151.2900757">
  <ele>347.65</ele>
  <time>2026-09-01T19:56:52Z</time>
  <course>9.3</course>
  <speed>0.12083045973594572</speed>
  <fix>3d</fix>
</trkpt>
<trkpt lat="-27.2742603" lon="151.2900758">
  <ele>347.74</ele>
  <time>2026-09-01T19:56:52Z</time>
  <course>296.46</course>
  <speed>0.13</speed>
  <fix>3d</fix>
</trkpt>
<trkpt lat="-27.2742602" lon="151.2900755">
  <ele>347.6</ele>
  <time>2026-09-01T19:56:52Z</time>
  <course>9.32</course>
  <speed>0.13</speed>
  <fix>3d</fix>
</trkpt>
<trkpt lat="-27.2742602" lon="151.2900756">
  <ele>347.63</ele>
  <time>2026-09-01T19:56:52Z</time>
  <course>297.57</course>
  <speed>0.15</speed>
  <fix>3d</fix>
</trkpt>
<trkpt lat="-27.2742602" lon="151.2900754">
  <ele>347.55</ele>
  <time>2026-09-01T19:56:52Z</time>
  <course>9.36</course>
  <speed>0.13</speed>
  <fix>3d</fix>
</trkpt>
<trkpt lat="-27.2742602" lon="151.2900756">
  <ele>347.63</ele>
  <time>2026-09-01T19:56:52Z</time>
  <course>297.57</course>
  <speed>0.15</speed>
  <fix>3d</fix>
</trkpt>
<trkpt lat="-27.2742601" lon="151.2900752">
  <ele>347.5</ele>
  <time>2026-09-01T19:56:52Z</time>
  <course>9.41</course>
  <speed>0.13</speed>
  <fix>3d</fix>
</trkpt>
<trkpt lat="-27.2742601" lon="151.2900753">
  <ele>347.53</ele>
  <time>2026-09-01T19:56:52Z</time>
  <course>298.02</course>
  <speed>0.16</speed>
  <fix>3d</fix>
</trkpt>
<trkpt lat="-27.2742601" lon="151.2900751">
  <ele>347.45</ele>
  <time>2026-09-01T19:56:52Z</time>
  <course>9.46</course>
  <speed>0.13</speed>
  <fix>3d</fix>
</trkpt>
<trkpt lat="-27.2742601" lon="151.2900753">
  <ele>347.53</ele>
  <time>2026-09-01T19:56:52Z</time>
  <course>298.02</course>
  <speed>0.16</speed>
  <fix>3d</fix>
</trkpt>
<trkpt lat="-27.27426" lon="151.290075">
  <ele>347.4</ele>
  <time>2026-09-01T19:56:52Z</time>
  <course>9.5</course>
  <speed>0.12083045973594572</speed>
  <fix>3d</fix>
</trkpt>
<trkpt lat="-27.2742599" lon="151.290075">
  <ele>347.43</ele>
  <time>2026-09-01T19:56:52Z</time>
  <course>298.31</course>
  <speed>0.16</speed>
  <fix>3d</fix>
</trkpt>
<trkpt lat="-27.2742599" lon="151.2900748">
  <ele>347.35</ele>
  <time>2026-09-01T19:56:52Z</time>
  <course>9.54</course>
  <speed>0.11704699910719625</speed>
  <fix>3d</fix>
</trkpt>
<trkpt lat="-27.2742599" lon="151.290075">
  <ele>347.43</ele>
  <time>2026-09-01T19:56:52Z</time>
  <course>298.31</course>
  <speed>0.16</speed>
  <fix>3d</fix>
</trkpt>
<trkpt lat="-27.2742599" lon="151.2900747">
  <ele>347.3</ele>
  <time>2026-09-01T19:56:52Z</time>
  <course>9.56</course>
  <speed>0.10770329614269007</speed>
  <fix>3d</fix>
</trkpt>
<trkpt lat="-27.2742597" lon="151.2900747">
  <ele>347.33</ele>
  <time>2026-09-01T19:56:52Z</time>
  <course>298.78</course>
  <speed>0.16</speed>
  <fix>3d</fix>
</trkpt>
<trkpt lat="-27.2742598" lon="151.2900746">
  <ele>347.25</ele>
  <time>2026-09-01T19:56:52Z</time>
  <course>9.57</course>
  <speed>0.10770329614269007</speed>
  <fix>3d</fix>
</trkpt>
<trkpt lat="-27.2742597" lon="151.2900747">
  <ele>347.33</ele>
  <time>2026-09-01T19:56:52Z</time>
  <course>298.78</course>
  <speed>0.16</speed>
  <fix>3d</fix>
</trkpt>
<trkpt lat="-27.2742597" lon="151.2900744">
  <ele>347.2</ele>
  <time>2026-09-01T19:56:52Z</time>
  <course>9.56</course>
  <speed>0.10770329614269007</speed>
  <fix>3d</fix>
</trkpt>
<trkpt lat="-27.2742596" lon="151.2900745">
  <ele>347.22</ele>
  <time>2026-09-01T19:56:52Z</time>
  <course>299.0</course>
  <speed>0.15</speed>
  <fix>3d</fix>
</trkpt>
<trkpt lat="-27.2742597" lon="151.2900743">
  <ele>347.15</ele>
  <time>2026-09-01T19:56:52Z</time>
  <course>9.55</course>
  <speed>0.09486832980505139</speed>
  <fix>3d</fix>
</trkpt>
<trkpt lat="-27.2742596" lon="151.2900745">
  <ele>347.22</ele>
  <time>2026-09-01T19:56:52Z</time>
  <course>299.0</course>
  <speed>0.15</speed>
  <fix>3d</fix>
</trkpt>
<trkpt lat="-27.2742596" lon="151.2900742">
  <ele>347.1</ele>
  <time>2026-09-01T19:56:52Z</time>
  <course>9.54</course>
  <speed>0.09486832980505139</speed>
  <fix>3d</fix>
</trkpt>
<trkpt lat="-27.2742595" lon="151.2900742">
  <ele>347.13</ele>
  <time>2026-09-01T19:56:52Z</time>
  <course>298.72</course>
  <speed>0.14</speed>
  <fix>3d</fix>
</trkpt>
<trkpt lat="-27.2742596" lon="151.2900741">
  <ele>347.05</ele>
  <time>2026-09-01T19:56:52Z</time>
  <course>9.54</course>
  <speed>0.09486832980505139</speed>
  <fix>3d</fix>
</trkpt>
<trkpt lat="-27.2742595" lon="151.2900742">
  <ele>347.13</ele>
  <time>2026-09-01T19:56:52Z</time>
  <course>298.72</course>
  <speed>0.14</speed>
  <fix>3d</fix>
</trkpt>
<trkpt lat="-27.2742595" lon="151.290074">
  <ele>347.0</ele>
  <time>2026-09-01T19:56:52Z</time>
  <course>9.55</course>
  <speed>0.0854400374531753</speed>
  <fix>3d</fix>
</trkpt>
<trkpt lat="-27.2742594" lon="151.290074">
  <ele>347.03</ele>
  <time>2026-09-01T19:56:52Z</time>
  <course>298.17</course>
  <speed>0.13</speed>
  <fix>3d</fix>
</trkpt>
<trkpt lat="-27.2742595" lon="151.2900739">
  <ele>346.95</ele>
  <time>2026-09-01T19:56:52Z</time>
  <course>9.55</course>
  <speed>0.0824621125123532</speed>
  <fix>3d</fix>
</trkpt>
<trkpt lat="-27.2742594" lon="151.290074">
  <ele>347.03</ele>
  <time>2026-09-01T19:56:52Z</time>
  <course>298.17</course>
  <speed>0.13</speed>
  <fix>3d</fix>
</trkpt>
<trkpt lat="-27.2742594" lon="151.2900738">
  <ele>346.9</ele>
  <time>2026-09-01T19:56:52Z</time>
  <course>9.57</course>
  <speed>0.0824621125123532</speed>
  <fix>3d</fix>
</trkpt>
<trkpt lat="-27.2742593" lon="151.2900737">
  <ele>346.93</ele>
  <time>2026-09-01T19:56:52Z</time>
  <course>298.09</course>
  <speed>0.12</speed>
  <fix>3d</fix>
</trkpt>
<trkpt lat="-27.2742594" lon="151.2900737">
  <ele>346.85</ele>
  <time>2026-09-01T19:56:52Z</time>
  <course>9.58</course>
  <speed>0.07280109889280519</speed>
  <fix>3d</fix>
</trkpt>
<trkpt lat="-27.2742593" lon="151.2900737">
  <ele>346.93</ele>
  <time>2026-09-01T19:56:52Z</time>
  <course>298.09</course>
  <speed>0.12</speed>
  <fix>3d</fix>
</trkpt>
<trkpt lat="-27.2742593" lon="151.2900736">
  <ele>346.8</ele>
  <time>2026-09-01T19:56:52Z</time>
  <course>9.61</course>
  <speed>0.07280109889280519</speed>
  <fix>3d</fix>
</trkpt>
<trkpt lat="-27.2742592" lon="151.2900736">
  <ele>346.83</ele>
  <time>2026-09-01T19:56:52Z</time>
  <course>298.7</course>
  <speed>0.11</speed>
  <fix>3d</fix>
</trkpt>
<trkpt lat="-27.2742593" lon="151.2900735">
  <ele>346.75</ele>
  <time>2026-09-01T19:56:52Z</time>
  <course>9.63</course>
  <speed>0.07280109889280519</speed>
  <fix>3d</fix>
</trkpt>
<trkpt lat="-27.2742592" lon="151.2900736">
  <ele>346.83</ele>
  <time>2026-09-01T19:56:52Z</time>
  <course>298.7</course>
  <speed>0.11</speed>
  <fix>3d</fix>
</trkpt>
<trkpt lat="-27.2742593" lon="151.2900734">
  <ele>346.7</ele>
  <time>2026-09-01T19:56:52Z</time>
  <course>9.65</course>
  <speed>0.0632455532033676</speed>
  <fix>3d</fix>
</trkpt>
<trkpt lat="-27.2742591" lon="151.2900733">
  <ele>346.72</ele>
  <time>2026-09-01T19:56:52Z</time>
  <course>299.55</course>
  <speed>0.11</speed>
  <fix>3d</fix>
</trkpt>
<trkpt lat="-27.2742592" lon="151.2900733">
  <ele>346.65</ele>
  <time>2026-09-01T19:56:52Z</time>
  <course>9.66</course>
  <speed>0.0632455532033676</speed>
  <fix>3d</fix>
</trkpt>
<trkpt lat="-27.2742591" lon="151.2900733">
  <ele>346.72</ele>
  <time>2026-09-01T19:56:52Z</time>
  <course>299.55</course>
  <speed>0.11</speed>
  <fix>3d</fix>
</trkpt>
<trkpt lat="-27.2742592" lon="151.2900732">
  <ele>346.6</ele>
  <time>2026-09-01T19:56:52Z</time>
  <course>9.66</course>
  <speed>0.0632455532033676</speed>
  <fix>3d</fix>
</trkpt>
<trkpt lat="-27.274259" lon="151.2900732">
  <ele>346.63</ele>
  <time>2026-09-01T19:56:52Z</time>
  <course>300.42</course>
  <speed>0.1</speed>
  <fix>3d</fix>
</trkpt>
<trkpt lat="-27.2742591" lon="151.2900731">
  <ele>346.55</ele>
  <time>2026-09-01T19:56:52Z</time>
  <course>9.67</course>
  <speed>0.05099019513592785</speed>
  <fix>3d</fix>
</trkpt>
<trkpt lat="-27.274259" lon="151.2900732">
  <ele>346.63</ele>
  <time>2026-09-01T19:56:52Z</time>
  <course>300.42</course>
  <speed>0.1</speed>
  <fix>3d</fix>
</trkpt>
<trkpt lat="-27.2742591" lon="151.2900731">
  <ele>346.5</ele>
  <time>2026-09-01T19:56:52Z</time>
  <course>9.68</course>
  <speed>0.05099019513592785</speed>
  <fix>3d</fix>
</trkpt>
<trkpt lat="-27.2742589" lon="151.290073">
  <ele>346.53</ele>
  <time>2026-09-01T19:56:52Z</time>
  <course>301.44</course>
  <speed>0.09</speed>
  <fix>3d</fix>
</trkpt>
<trkpt lat="-27.2742591" lon="151.290073">
  <ele>346.45</ele>
  <time>2026-09-01T19:56:52Z</time>
  <course>9.69</course>
  <speed>0.0412310562561766</speed>
  <fix>3d</fix>
</trkpt>
<trkpt lat="-27.2742589" lon="151.290073">
  <ele>346.53</ele>
  <time>2026-09-01T19:56:52Z</time>
  <course>301.44</course>
  <speed>0.09</speed>
  <fix>3d</fix>
</trkpt>
<trkpt lat="-27.274259" lon="151.2900729">
  <ele>346.4</ele>
  <time>2026-09-01T19:56:52Z</time>
  <course>9.7</course>
  <speed>0.0412310562561766</speed>
  <fix>3d</fix>
</trkpt>
<trkpt lat="-27.2742588" lon="151.2900728">
  <ele>346.42</ele>
  <time>2026-09-01T19:56:52Z</time>
  <course>302.78</course>
  <speed>0.08</speed>
  <fix>3d</fix>
</trkpt>
<trkpt lat="-27.274259" lon="151.2900729">
  <ele>346.35</ele>
  <time>2026-09-01T19:56:52Z</time>
  <course>9.71</course>
  <speed>0.0316227766016838</speed>
  <fix>3d</fix>
</trkpt>
<trkpt lat="-27.2742588" lon="151.2900728">
  <ele>346.42</ele>
  <time>2026-09-01T19:56:52Z</time>
  <course>302.78</course>
  <speed>0.08</speed>
  <fix>3d</fix>
</trkpt>
<trkpt lat="-27.2742589" lon="151.2900728">
  <ele>346.3</ele>
  <time>2026-09-01T19:56:52Z</time>
  <course>9.72</course>
  <speed>0.0316227766016838</speed>
  <fix>3d</fix>
</trkpt>
<trkpt lat="-27.2742587" lon="151.2900727">
  <ele>346.32</ele>
  <time>2026-09-01T19:56:52Z</time>
  <course>304.58</course>
  <speed>0.07</speed>
  <fix>3d</fix>
</trkpt>
<trkpt lat="-27.2742589" lon="151.2900728">
  <ele>346.25</ele>
  <time>2026-09-01T19:56:52Z</time>
  <course>9.73</course>
  <speed>0.02</speed>
  <fix>3d</fix>
</trkpt>
<trkpt lat="-27.2742587" lon="151.2900727">
  <ele>346.32</ele>
  <time>2026-09-01T19:56:52Z</time>
  <course>304.58</course>
  <speed>0.07</speed>
  <fix>3d</fix>
</trkpt>
<trkpt lat="-27.2742589" lon="151.2900727">
  <ele>346.19</ele>
  <time>2026-09-01T19:56:52Z</time>
  <course>9.74</course>
  <speed>0.02</speed>
  <fix>3d</fix>
</trkpt>
<trkpt lat="-27.2742587" lon="151.2900725">
  <ele>346.22</ele>
  <time>2026-09-01T19:56:52Z</time>
  <course>307.04</course>
  <speed>0.06</speed>
  <fix>3d</fix>
</trkpt>
<trkpt lat="-27.2742588" lon="151.2900727">
  <ele>346.14</ele>
  <time>2026-09-01T19:56:52Z</time>
  <course>9.75</course>
  <speed>0.01</speed>
  <fix>3d</fix>
</trkpt>
<trkpt lat="-27.2742587" lon="151.2900725">
  <ele>346.22</ele>
  <time>2026-09-01T19:56:52Z</time>
  <course>307.04</course>
  <speed>0.06</speed>
  <fix>3d</fix>
</trkpt>
<trkpt lat="-27.2742588" lon="151.2900726">
  <ele>346.09</ele>
  <time>2026-09-01T19:56:52Z</time>
  <course>9.77</course>
  <speed>0.01</speed>
  <fix>3d</fix>
</trkpt>
<trkpt lat="-27.2742586" lon="151.2900724">
  <ele>346.12</ele>
  <time>2026-09-01T19:56:52Z</time>
  <course>310.61</course>
  <speed>0.05</speed>
  <fix>3d</fix>
</trkpt>
<trkpt lat="-27.2742588" lon="151.2900726">
  <ele>346.04</ele>
  <time>2026-09-01T19:56:52Z</time>
  <course>9.78</course>
  <speed>0.0</speed>
  <fix>3d</fix>
</trkpt>
<trkpt lat="-27.2742586" lon="151.2900724">
  <ele>346.12</ele>
  <time>2026-09-01T19:56:52Z</time>
  <course>310.61</course>
  <speed>0.05</speed>
  <fix>3d</fix>
</trkpt>
<trkpt lat="-27.2742588" lon="151.2900726">
  <ele>346.0</ele>
  <time>2026-09-01T19:56:52Z</time>
  <course>9.79</course>
  <speed>0.0</speed>
  <fix>3d</fix>
</trkpt>
<trkpt lat="-27.2742585" lon="151.2900724">
  <ele>346.02</ele>
  <time>2026-09-01T19:56:52Z</time>
  <course>316.14</course>
  <speed>0.04</speed>
  <fix>3d</fix>
</trkpt>
<trkpt lat="-27.2742587" lon="151.2900726">
  <ele>345.95</ele>
  <time>2026-09-01T19:56:52Z</time>
  <course>9.8</course>
  <speed>0.0</speed>
  <fix>3d</fix>
</trkpt>
<trkpt lat="-27.2742585" lon="151.2900724">
  <ele>346.02</ele>
  <time>2026-09-01T19:56:52Z</time>
  <course>316.14</course>
  <speed>0.04</speed>
  <fix>3d</fix>
</trkpt>
<trkpt lat="-27.2742587" lon="151.2900725">
  <ele>345.9</ele>
  <time>2026-09-01T19:56:52Z</time>
  <course>9.82</course>
  <speed>0.01</speed>
  <fix>3d</fix>
</trkpt>
<trkpt lat="-27.2742585" lon="151.2900723">
  <ele>345.91</ele>
  <time>2026-09-01T19:56:52Z</time>
  <course>325.45</course>
  <speed>0.03</speed>
  <fix>3d</fix>
</trkpt>
<trkpt lat="-27.2742587" lon="151.2900725">
  <ele>345.85</ele>
  <time>2026-09-01T19:56:52Z</time>
  <course>9.85</course>
  <speed>0.01</speed>
  <fix>3d</fix>
</trkpt>
<trkpt lat="-27.2742585" lon="151.2900723">
  <ele>345.91</ele>
  <time>2026-09-01T19:56:52Z</time>
  <course>325.45</course>
  <speed>0.03</speed>
  <fix>3d</fix>
</trkpt>
<trkpt lat="-27.2742587" lon="151.2900725">
  <ele>345.8</ele>
  <time>2026-09-01T19:56:52Z</time>
  <course>9.9</course>
  <speed>0.022360679774997897</speed>
  <fix>3d</fix>
</trkpt>
<trkpt lat="-27.2742584" lon="151.2900723">
  <ele>345.82</ele>
  <time>2026-09-01T19:56:52Z</time>
  <course>343.02</course>
  <speed>0.02</speed>
  <fix>3d</fix>
</trkpt>
<trkpt lat="-27.2742587" lon="151.2900725">
  <ele>345.75</ele>
  <time>2026-09-01T19:56:52Z</time>
  <course>9.95</course>
  <speed>0.022360679774997897</speed>
  <fix>3d</fix>
</trkpt>
<trkpt lat="-27.2742584" lon="151.2900723">
  <ele>345.82</ele>
  <time>2026-09-01T19:56:52Z</time>
  <course>343.02</course>
  <speed>0.02</speed>
  <fix>3d</fix>
</trkpt>
<trkpt lat="-27.2742587" lon="151.2900725">
  <ele>345.7</ele>
  <time>2026-09-01T19:56:52Z</time>
  <course>10.0</course>
  <speed>0.022360679774997897</speed>
  <fix>3d</fix>
</trkpt>
<trkpt lat="-27.2742584" lon="151.2900723">
  <ele>345.72</ele>
  <time>2026-09-01T19:56:52Z</time>
  <course>11.15</course>
  <speed>0.01</speed>
  <fix>3d</fix>
</trkpt>
<trkpt lat="-27.2742586" lon="151.2900726">
  <ele>345.65</ele>
  <time>2026-09-01T19:56:52Z</time>
  <course>10.07</course>
  <speed>0.0316227766016838</speed>
  <fix>3d</fix>
</trkpt>
<trkpt lat="-27.2742584" lon="151.2900723">
  <ele>345.72</ele>
  <time>2026-09-01T19:56:52Z</time>
  <course>11.15</course>
  <speed>0.01</speed>
  <fix>3d</fix>
</trkpt>
<trkpt lat="-27.2742586" lon="151.2900726">
  <ele>345.6</ele>
  <time>2026-09-01T19:56:52Z</time>
  <course>10.13</course>
  <speed>0.0316227766016838</speed>
  <fix>3d</fix>
</trkpt>
<trkpt lat="-27.2742584" lon="151.2900723">
  <ele>345.62</ele>
  <time>2026-09-01T19:56:52Z</time>
  <course>39.79</course>
  <speed>0.01</speed>
  <fix>3d</fix>
</trkpt>
<trkpt lat="-27.2742586" lon="151.2900726">
  <ele>345.55</ele>
  <time>2026-09-01T19:56:52Z</time>
  <course>10.18</course>
  <speed>0.03605551275463989</speed>
  <fix>3d</fix>
</trkpt>
<trkpt lat="-27.2742584" lon="151.2900723">
  <ele>345.62</ele>
  <time>2026-09-01T19:56:52Z</time>
  <course>39.79</course>
  <speed>0.01</speed>
  <fix>3d</fix>
</trkpt>
<trkpt lat="-27.2742586" lon="151.2900725">
  <ele>345.5</ele>
  <time>2026-09-01T19:56:53Z</time>
  <course>10.22</course>
  <speed>0.03605551275463989</speed>
  <fix>3d</fix>
</trkpt>
<trkpt lat="-27.2742584" lon="151.2900723">
  <ele>345.52</ele>
  <time>2026-09-01T19:56:53Z</time>
  <course>61.07</course>
  <speed>0.01</speed>
  <fix>3d</fix>
</trkpt>
<trkpt lat="-27.2742586" lon="151.2900725">
  <ele>345.45</ele>
  <time>2026-09-01T19:56:53Z</time>
  <course>10.25</course>
  <speed>0.03605551275463989</speed>
  <fix>3d</fix>
</trkpt>
<trkpt lat="-27.2742584" lon="151.2900723">
  <ele>345.52</ele>
  <time>2026-09-01T19:56:53Z</time>
  <course>61.07</course>
  <speed>0.01</speed>
  <fix>3d</fix>
</trkpt>
<trkpt lat="-27.2742586" lon="151.2900725">
  <ele>345.4</ele>
  <time>2026-09-01T19:56:53Z</time>
  <course>10.28</course>
  <speed>0.03605551275463989</speed>
  <fix>3d</fix>
</trkpt>
<trkpt lat="-27.2742584" lon="151.2900723">
  <ele>345.41</ele>
  <time>2026-09-01T19:56:53Z</time>
  <course>74.71</course>
  <speed>0.02</speed>
  <fix>3d</fix>
</trkpt>
<trkpt lat="-27.2742586" lon="151.2900725">
  <ele>345.35</ele>
  <time>2026-09-01T19:56:53Z</time>
  <course>10.29</course>
  <speed>0.044721359549995794</speed>
  <fix>3d</fix>
</trkpt>
<trkpt lat="-27.2742584" lon="151.2900723">
  <ele>345.41</ele>
  <time>2026-09-01T19:56:53Z</time>
  <course>74.71</course>
  <speed>0.02</speed>
  <fix>3d</fix>
</trkpt>
<trkpt lat="-27.2742586" lon="151.2900726">
  <ele>345.3</ele>
  <time>2026-09-01T19:56:53Z</time>
  <course>10.3</course>
  <speed>0.044721359549995794</speed>
  <fix>3d</fix>
</trkpt>
<trkpt lat="-27.2742584" lon="151.2900723">
  <ele>345.32</ele>
  <time>2026-09-01T19:56:53Z</time>
  <course>83.37</course>
  <speed>0.02</speed>
  <fix>3d</fix>
</trkpt>
<trkpt lat="-27.2742586" lon="151.2900726">
  <ele>345.25</ele>
  <time>2026-09-01T19:56:53Z</time>
  <course>10.31</course>
  <speed>0.044721359549995794</speed>
  <fix>3d</fix>
</trkpt>
<trkpt lat="-27.2742584" lon="151.2900723">
  <ele>345.32</ele>
  <time>2026-09-01T19:56:53Z</time>
  <course>83.37</course>
  <speed>0.02</speed>
  <fix>3d</fix>
</trkpt>
<trkpt lat="-27.2742586" lon="151.2900726">
  <ele>345.2</ele>
  <time>2026-09-01T19:56:53Z</time>
  <course>10.31</course>
  <speed>0.05</speed>
  <fix>3d</fix>
</trkpt>
<trkpt lat="-27.2742584" lon="151.2900724">
  <ele>345.22</ele>
  <time>2026-09-01T19:56:53Z</time>
  <course>90.77</course>
  <speed>0.02</speed>
  <fix>3d</fix>
</trkpt>
<trkpt lat="-27.2742586" lon="151.2900726">
  <ele>345.15</ele>
  <time>2026-09-01T19:56:53Z</time>
  <course>10.31</course>
  <speed>0.05</speed>
  <fix>3d</fix>
</trkpt>
<trkpt lat="-27.2742584" lon="151.2900724">
  <ele>345.22</ele>
  <time>2026-09-01T19:56:53Z</time>
  <course>90.77</course>
  <speed>0.02</speed>
  <fix>3d</fix>
</trkpt>
<trkpt lat="-27.2742586" lon="151.2900727">
  <ele>345.1</ele>
  <time>2026-09-01T19:56:53Z</time>
  <course>10.31</course>
  <speed>0.05</speed>
  <fix>3d</fix>
</trkpt>
<trkpt lat="-27.2742584" lon="151.2900724">
  <ele>345.12</ele>
  <time>2026-09-01T19:56:53Z</time>
  <course>96.76</course>
  <speed>0.03</speed>
  <fix>3d</fix>
</trkpt>
<trkpt lat="-27.2742586" lon="151.2900727">
  <ele>345.05</ele>
  <time>2026-09-01T19:56:53Z</time>
  <course>10.31</course>
  <speed>0.05</speed>
  <fix>3d</fix>
</trkpt>
<trkpt lat="-27.2742584" lon="151.2900724">
  <ele>345.12</ele>
  <time>2026-09-01T19:56:53Z</time>
  <course>96.76</course>
  <speed>0.03</speed>
  <fix>3d</fix>
</trkpt>
<trkpt lat="-27.2742586" lon="151.2900727">
  <ele>345.0</ele>
  <time>2026-09-01T19:56:53Z</time>
  <course>10.31</course>
  <speed>0.05</speed>
  <fix>3d</fix>
</trkpt>
<trkpt lat="-27.2742584" lon="151.2900725">
  <ele>345.01</ele>
  <time>2026-09-01T19:56:53Z</time>
  <course>100.35</course>
  <speed>0.03</speed>
  <fix>3d</fix>
</trkpt>
<trkpt lat="-27.2742586" lon="151.2900727">
  <ele>344.95</ele>
  <time>2026-09-01T19:56:53Z</time>
  <course>10.3</course>
  <speed>0.05</speed>
  <fix>3d</fix>
</trkpt>
<trkpt lat="-27.2742584" lon="151.2900725">
  <ele>345.01</ele>
  <time>2026-09-01T19:56:53Z</time>
  <course>100.35</course>
  <speed>0.03</speed>
  <fix>3d</fix>
</trkpt>
<trkpt lat="-27.2742586" lon="151.2900728">
  <ele>344.9</ele>
  <time>2026-09-01T19:56:53Z</time>
  <course>10.3</course>
  <speed>0.05</speed>
  <fix>3d</fix>
</trkpt>
<trkpt lat="-27.2742584" lon="151.2900726">
  <ele>344.9</ele>
  <time>2026-09-01T19:56:53Z</time>
  <course>102.77</course>
  <speed>0.03</speed>
  <fix>3d</fix>
</trkpt>
<trkpt lat="-27.2742586" lon="151.2900728">
  <ele>344.85</ele>
  <time>2026-09-01T19:56:53Z</time>
  <course>10.3</course>
  <speed>0.05830951894845301</speed>
  <fix>3d</fix>
</trkpt>
<trkpt lat="-27.2742584" lon="151.2900726">
  <ele>344.9</ele>
  <time>2026-09-01T19:56:53Z</time>
  <course>102.77</course>
  <speed>0.03</speed>
  <fix>3d</fix>
</trkpt>
<trkpt lat="-27.2742586" lon="151.2900728">
  <ele>344.8</ele>
  <time>2026-09-01T19:56:53Z</time>
  <course>10.3</course>
  <speed>0.05830951894845301</speed>
  <fix>3d</fix>
</trkpt>
<trkpt lat="-27.2742584" lon="151.2900727">
  <ele>344.81</ele>
  <time>2026-09-01T19:56:53Z</time>
  <course>105.1</course>
  <speed>0.04</speed>
  <fix>3d</fix>
</trkpt>
<trkpt lat="-27.2742586" lon="151.2900729">
  <ele>344.75</ele>
  <time>2026-09-01T19:56:53Z</time>
  <course>10.31</course>
  <speed>0.06403124237432849</speed>
  <fix>3d</fix>
</trkpt>
<trkpt lat="-27.2742584" lon="151.2900727">
  <ele>344.81</ele>
  <time>2026-09-01T19:56:53Z</time>
  <course>105.1</course>
  <speed>0.04</speed>
  <fix>3d</fix>
</trkpt>
<trkpt lat="-27.2742586" lon="151.2900729">
  <ele>344.7</ele>
  <time>2026-09-01T19:56:53Z</time>
  <course>10.33</course>
  <speed>0.05830951894845301</speed>
  <fix>3d</fix>
</trkpt>
<trkpt lat="-27.2742584" lon="151.2900728">
  <ele>344.71</ele>
  <time>2026-09-01T19:56:53Z</time>
  <course>107.0</course>
  <speed>0.04</speed>
  <fix>3d</fix>
</trkpt>
<trkpt lat="-27.2742586" lon="151.290073">
  <ele>344.65</ele>
  <time>2026-09-01T19:56:53Z</time>
  <course>10.35</course>
  <speed>0.06403124237432849</speed>
  <fix>3d</fix>
</trkpt>
<trkpt lat="-27.2742584" lon="151.2900728">
  <ele>344.71</ele>
  <time>2026-09-01T19:56:53Z</time>
  <course>107.0</course>
  <speed>0.04</speed>
  <fix>3d</fix>
</trkpt>
<trkpt lat="-27.2742587" lon="151.290073">
  <ele>344.6</ele>
  <time>2026-09-01T19:56:53Z</time>
  <course>10.38</course>
  <speed>0.0565685424949238</speed>
  <fix>3d</fix>
</trkpt>
<trkpt lat="-27.2742584" lon="151.2900728">
  <ele>344.61</ele>
  <time>2026-09-01T19:56:53Z</time>
  <course>108.23</course>
  <speed>0.04</speed>
  <fix>3d</fix>
</trkpt>
<trkpt lat="-27.2742587" lon="151.290073">
  <ele>344.55</ele>
  <time>2026-09-01T19:56:53Z</time>
  <course>10.39</course>
  <speed>0.0565685424949238</speed>
  <fix>3d</fix>
</trkpt>
<trkpt lat="-27.2742584" lon="151.2900728">
  <ele>344.61</ele>
  <time>2026-09-01T19:56:53Z</time>
  <course>108.23</course>
  <speed>0.04</speed>
  <fix>3d</fix>
</trkpt>
<trkpt lat="-27.2742587" lon="151.2900731">
  <ele>344.5</ele>
  <time>2026-09-01T19:56:53Z</time>
  <course>10.4</course>
  <speed>0.0565685424949238</speed>
  <fix>3d</fix>
</trkpt>
<trkpt lat="-27.2742584" lon="151.2900729">
  <ele>344.51</ele>
  <time>2026-09-01T19:56:53Z</time>
  <course>109.8</course>
  <speed>0.04</speed>
  <fix>3d</fix>
</trkpt>
<trkpt lat="-27.2742587" lon="151.2900731">
  <ele>344.45</ele>
  <time>2026-09-01T19:56:53Z</time>
  <course>10.4</course>
  <speed>0.0565685424949238</speed>
  <fix>3d</fix>
</trkpt>
<trkpt lat="-27.2742584" lon="151.2900729">
  <ele>344.51</ele>
  <time>2026-09-01T19:56:53Z</time>
  <course>109.8</course>
  <speed>0.04</speed>
  <fix>3d</fix>
</trkpt>
<trkpt lat="-27.2742587" lon="151.2900731">
  <ele>344.4</ele>
  <time>2026-09-01T19:56:53Z</time>
  <course>10.4</course>
  <speed>0.0565685424949238</speed>
  <fix>3d</fix>
</trkpt>
<trkpt lat="-27.2742584" lon="151.290073">
  <ele>344.4</ele>
  <time>2026-09-01T19:56:53Z</time>
  <course>112.21</course>
  <speed>0.04</speed>
  <fix>3d</fix>
</trkpt>
<trkpt lat="-27.2742587" lon="151.2900732">
  <ele>344.35</ele>
  <time>2026-09-01T19:56:53Z</time>
  <course>10.4</course>
  <speed>0.0565685424949238</speed>
  <fix>3d</fix>
</trkpt>
<trkpt lat="-27.2742584" lon="151.290073">
  <ele>344.4</ele>
  <time>2026-09-01T19:56:53Z</time>
  <course>112.21</course>
  <speed>0.04</speed>
  <fix>3d</fix>
</trkpt>
<trkpt lat="-27.2742587" lon="151.2900732">
  <ele>344.3</ele>
  <time>2026-09-01T19:56:53Z</time>
  <course>10.4</course>
  <speed>0.0565685424949238</speed>
  <fix>3d</fix>
</trkpt>
<trkpt lat="-27.2742584" lon="151.2900731">
  <ele>344.31</ele>
  <time>2026-09-01T19:56:53Z</time>
  <course>114.95</course>
  <speed>0.03</speed>
  <fix>3d</fix>
</trkpt>
<trkpt lat="-27.2742587" lon="151.2900732">
  <ele>344.25</ele>
  <time>2026-09-01T19:56:53Z</time>
  <course>10.4</course>
  <speed>0.04242640687119285</speed>
  <fix>3d</fix>
</trkpt>
<trkpt lat="-27.2742584" lon="151.2900731">
  <ele>344.31</ele>
  <time>2026-09-01T19:56:53Z</time>
  <course>114.95</course>
  <speed>0.03</speed>
  <fix>3d</fix>
</trkpt>
<trkpt lat="-27.2742587" lon="151.2900732">
  <ele>344.2</ele>
  <time>2026-09-01T19:56:53Z</time>
  <course>10.41</course>
  <speed>0.04242640687119285</speed>
  <fix>3d</fix>
</trkpt>
<trkpt lat="-27.2742584" lon="151.2900732">
  <ele>344.21</ele>
  <time>2026-09-01T19:56:53Z</time>
  <course>117.87</course>
  <speed>0.03</speed>
  <fix>3d</fix>
</trkpt>
<trkpt lat="-27.2742587" lon="151.2900733">
  <ele>344.15</ele>
  <time>2026-09-01T19:56:53Z</time>
  <course>10.41</course>
  <speed>0.04242640687119285</speed>
  <fix>3d</fix>
</trkpt>
<trkpt lat="-27.2742584" lon="151.2900732">
  <ele>344.21</ele>
  <time>2026-09-01T19:56:53Z</time>
  <course>117.87</course>
  <speed>0.03</speed>
  <fix>3d</fix>
</trkpt>
<trkpt lat="-27.2742587" lon="151.2900733">
  <ele>344.1</ele>
  <time>2026-09-01T19:56:53Z</time>
  <course>10.41</course>
  <speed>0.04242640687119285</speed>
  <fix>3d</fix>
</trkpt>
<trkpt lat="-27.2742585" lon="151.2900732">
  <ele>344.11</ele>
  <time>2026-09-01T19:56:53Z</time>
  <course>121.26</course>
  <speed>0.03</speed>
  <fix>3d</fix>
</trkpt>
<trkpt lat="-27.2742587" lon="151.2900733">
  <ele>344.05</ele>
  <time>2026-09-01T19:56:53Z</time>
  <course>10.42</course>
  <speed>0.04242640687119285</speed>
  <fix>3d</fix>
</trkpt>
<trkpt lat="-27.2742585" lon="151.2900732">
  <ele>344.11</ele>
  <time>2026-09-01T19:56:53Z</time>
  <course>121.26</course>
  <speed>0.03</speed>
  <fix>3d</fix>
</trkpt>
<trkpt lat="-27.2742587" lon="151.2900733">
  <ele>344.0</ele>
  <time>2026-09-01T19:56:53Z</time>
  <course>10.43</course>
  <speed>0.03605551275463989</speed>
  <fix>3d</fix>
</trkpt>
<trkpt lat="-27.2742585" lon="151.2900733">
  <ele>344.0</ele>
  <time>2026-09-01T19:56:53Z</time>
  <course>125.55</course>
  <speed>0.03</speed>
  <fix>3d</fix>
</trkpt>
<trkpt lat="-27.2742587" lon="151.2900734">
  <ele>343.95</ele>
  <time>2026-09-01T19:56:53Z</time>
  <course>10.43</course>
  <speed>0.03605551275463989</speed>
  <fix>3d</fix>
</trkpt>
<trkpt lat="-27.2742585" lon="151.2900733">
  <ele>344.0</ele>
  <time>2026-09-01T19:56:53Z</time>
  <course>125.55</course>
  <speed>0.03</speed>
  <fix>3d</fix>
</trkpt>
<trkpt lat="-27.2742587" lon="151.2900734">
  <ele>343.9</ele>
  <time>2026-09-01T19:56:53Z</time>
  <course>10.44</course>
  <speed>0.03605551275463989</speed>
  <fix>3d</fix>
</trkpt>
<trkpt lat="-27.2742585" lon="151.2900733">
  <ele>343.9</ele>
  <time>2026-09-01T19:56:53Z</time>
  <course>131.15</course>
  <speed>0.02</speed>
  <fix>3d</fix>
</trkpt>
<trkpt lat="-27.2742588" lon="151.2900734">
  <ele>343.85</ele>
  <time>2026-09-01T19:56:53Z</time>
  <course>10.44</course>
  <speed>0.03605551275463989</speed>
  <fix>3d</fix>
</trkpt>
<trkpt lat="-27.2742585" lon="151.2900733">
  <ele>343.9</ele>
  <time>2026-09-01T19:56:53Z</time>
  <course>131.15</course>
  <speed>0.02</speed>
  <fix>3d</fix>
</trkpt>
<trkpt lat="-27.2742588" lon="151.2900734">
  <ele>343.8</ele>
  <time>2026-09-01T19:56:53Z</time>
  <course>10.45</course>
  <speed>0.03605551275463989</speed>
  <fix>3d</fix>
</trkpt>
<trkpt lat="-27.2742586" lon="151.2900733">
  <ele>343.8</ele>
  <time>2026-09-01T19:56:53Z</time>
  <course>138.76</course>
  <speed>0.02</speed>
  <fix>3d</fix>
</trkpt>
<trkpt lat="-27.2742588" lon="151.2900734">
  <ele>343.75</ele>
  <time>2026-09-01T19:56:53Z</time>
  <course>10.46</course>
  <speed>0.0316227766016838</speed>
  <fix>3d</fix>
</trkpt>
<trkpt lat="-27.2742586" lon="151.2900733">
  <ele>343.8</ele>
  <time>2026-09-01T19:56:53Z</time>
  <course>138.76</course>
  <speed>0.02</speed>
  <fix>3d</fix>
</trkpt>
<trkpt lat="-27.2742588" lon="151.2900734">
  <ele>343.7</ele>
  <time>2026-09-01T19:56:53Z</time>
  <course>10.47</course>
  <speed>0.0316227766016838</speed>
  <fix>3d</fix>
</trkpt>
<trkpt lat="-27.2742586" lon="151.2900733">
  <ele>343.7</ele>
  <time>2026-09-01T19:56:53Z</time>
  <course>149.37</course>
  <speed>0.02</speed>
  <fix>3d</fix>
</trkpt>
<trkpt lat="-27.2742588" lon="151.2900734">
  <ele>343.65</ele>
  <time>2026-09-01T19:56:53Z</time>
  <course>10.49</course>
  <speed>0.0316227766016838</speed>
  <fix>3d</fix>
</trkpt>
<trkpt lat="-27.2742586" lon="151.2900733">
  <ele>343.7</ele>
  <time>2026-09-01T19:56:53Z</time>
  <course>149.37</course>
  <speed>0.02</speed>
  <fix>3d</fix>
</trkpt>
<trkpt lat="-27.2742588" lon="151.2900734">
  <ele>343.59</ele>
  <time>2026-09-01T19:56:53Z</time>
  <course>10.51</course>
  <speed>0.03</speed>
  <fix>3d</fix>
</trkpt>
<trkpt lat="-27.2742586" lon="151.2900733">
  <ele>343.59</ele>
  <time>2026-09-01T19:56:53Z</time>
  <course>164.11</course>
  <speed>0.01</speed>
  <fix>3d</fix>
</trkpt>
<trkpt lat="-27.2742588" lon="151.2900734">
  <ele>343.54</ele>
  <time>2026-09-01T19:56:53Z</time>
  <course>10.53</course>
  <speed>0.03</speed>
  <fix>3d</fix>
</trkpt>
<trkpt lat="-27.2742586" lon="151.2900733">
  <ele>343.59</ele>
  <time>2026-09-01T19:56:53Z</time>
  <course>164.11</course>
  <speed>0.01</speed>
  <fix>3d</fix>
</trkpt>
<trkpt lat="-27.2742588" lon="151.2900734">
  <ele>343.49</ele>
  <time>2026-09-01T19:56:53Z</time>
  <course>10.53</course>
  <speed>0.03</speed>
  <fix>3d</fix>
</trkpt>
<trkpt lat="-27.2742587" lon="151.2900733">
  <ele>343.5</ele>
  <time>2026-09-01T19:56:53Z</time>
  <course>182.48</course>
  <speed>0.01</speed>
  <fix>3d</fix>
</trkpt>
<trkpt lat="-27.2742588" lon="151.2900734">
  <ele>343.44</ele>
  <time>2026-09-01T19:56:53Z</time>
  <course>10.5</course>
  <speed>0.03</speed>
  <fix>3d</fix>
</trkpt>
<trkpt lat="-27.2742587" lon="151.2900733">
  <ele>343.5</ele>
  <time>2026-09-01T19:56:53Z</time>
  <course>182.48</course>
  <speed>0.01</speed>
  <fix>3d</fix>
</trkpt>
<trkpt lat="-27.2742588" lon="151.2900734">
  <ele>343.39</ele>
  <time>2026-09-01T19:56:53Z</time>
  <course>10.45</course>
  <speed>0.03</speed>
  <fix>3d</fix>
</trkpt>
<trkpt lat="-27.2742587" lon="151.2900733">
  <ele>343.4</ele>
  <time>2026-09-01T19:56:53Z</time>
  <course>193.27</course>
  <speed>0.01</speed>
  <fix>3d</fix>
</trkpt>
<trkpt lat="-27.2742589" lon="151.2900734">
  <ele>343.34</ele>
  <time>2026-09-01T19:56:53Z</time>
  <course>10.39</course>
  <speed>0.03</speed>
  <fix>3d</fix>
</trkpt>
<trkpt lat="-27.2742587" lon="151.2900733">
  <ele>343.4</ele>
  <time>2026-09-01T19:56:53Z</time>
  <course>193.27</course>
  <speed>0.01</speed>
  <fix>3d</fix>
</trkpt>
<trkpt lat="-27.2742589" lon="151.2900734">
  <ele>343.3</ele>
  <time>2026-09-01T19:56:53Z</time>
  <course>10.34</course>
  <speed>0.03</speed>
  <fix>3d</fix>
</trkpt>
<trkpt lat="-27.2742587" lon="151.2900733">
  <ele>343.3</ele>
  <time>2026-09-01T19:56:53Z</time>
  <course>194.04</course>
  <speed>0.01</speed>
  <fix>3d</fix>
</trkpt>
<trkpt lat="-27.2742589" lon="151.2900734">
  <ele>343.25</ele>
  <time>2026-09-01T19:56:53Z</time>
  <course>10.3</course>
  <speed>0.03</speed>
  <fix>3d</fix>
</trkpt>
<trkpt lat="-27.2742587" lon="151.2900733">
  <ele>343.3</ele>
  <time>2026-09-01T19:56:53Z</time>
  <course>194.04</course>
  <speed>0.01</speed>
  <fix>3d</fix>
</trkpt>
<trkpt lat="-27.2742589" lon="151.2900734">
  <ele>343.2</ele>
  <time>2026-09-01T19:56:53Z</time>
  <course>10.28</course>
  <speed>0.03</speed>
  <fix>3d</fix>
</trkpt>
<trkpt lat="-27.2742587" lon="151.2900733">
  <ele>343.2</ele>
  <time>2026-09-01T19:56:53Z</time>
  <course>194.37</course>
  <speed>0.01</speed>
  <fix>3d</fix>
</trkpt>
<trkpt lat="-27.2742589" lon="151.2900734">
  <ele>343.16</ele>
  <time>2026-09-01T19:56:53Z</time>
  <course>10.28</course>
  <speed>0.02</speed>
  <fix>3d</fix>
</trkpt>
<trkpt lat="-27.2742587" lon="151.2900733">
  <ele>343.2</ele>
  <time>2026-09-01T19:56:53Z</time>
  <course>194.37</course>
  <speed>0.01</speed>
  <fix>3d</fix>
</trkpt>
<trkpt lat="-27.2742589" lon="151.2900734">
  <ele>343.16</ele>
  <time>2026-09-01T19:56:53Z</time>
  <course>10.28</course>
  <speed>0.01</speed>
  <fix>3d</fix>
</trkpt>
<trkpt lat="-27.2742588" lon="151.2900733">
  <ele>343.1</ele>
  <time>2026-09-01T19:56:53Z</time>
  <course>194.42</course>
  <speed>0.0</speed>
  <fix>3d</fix>
</trkpt>
<trkpt lat="-27.2742589" lon="151.2900734">
  <ele>343.18</ele>
  <time>2026-09-01T19:56:53Z</time>
  <course>10.28</course>
  <speed>0.01</speed>
  <fix>3d</fix>
</trkpt>
<trkpt lat="-27.2742588" lon="151.2900733">
  <ele>343.1</ele>
  <time>2026-09-01T19:56:53Z</time>
  <course>194.42</course>
  <speed>0.0</speed>
  <fix>3d</fix>
</trkpt>
<trkpt lat="-27.2742589" lon="151.2900734">
  <ele>343.19</ele>
  <time>2026-09-01T19:56:53Z</time>
  <course>10.28</course>
  <speed>0.01</speed>
  <fix>3d</fix>
</trkpt>
<trkpt lat="-27.2742588" lon="151.2900733">
  <ele>343.06</ele>
  <time>2026-09-01T19:56:53Z</time>
  <course>194.64</course>
  <speed>0.0</speed>
  <fix>3d</fix>
</trkpt>
<trkpt lat="-27.2742589" lon="151.2900734">
  <ele>343.19</ele>
  <time>2026-09-01T19:56:53Z</time>
  <course>10.28</course>
  <speed>0.01</speed>
  <fix>3d</fix>
</trkpt>
<trkpt lat="-27.2742588" lon="151.2900733">
  <ele>343.06</ele>
  <time>2026-09-01T19:56:53Z</time>
  <course>194.64</course>
  <speed>0.0</speed>
  <fix>3d</fix>
</trkpt>
<trkpt lat="-27.2742589" lon="151.2900734">
  <ele>343.19</ele>
  <time>2026-09-01T19:56:53Z</time>
  <course>10.28</course>
  <speed>0.01</speed>
  <fix>3d</fix>
</trkpt>
<trkpt lat="-27.2742588" lon="151.2900733">
  <ele>343.08</ele>
  <time>2026-09-01T19:56:53Z</time>
  <course>14.61</course>
  <speed>0.0</speed>
  <fix>3d</fix>
</trkpt>
<trkpt lat="-27.2742589" lon="151.2900734">
  <ele>343.19</ele>
  <time>2026-09-01T19:56:53Z</time>
  <course>10.28</course>
  <speed>0.01</speed>
  <fix>3d</fix>
</trkpt>
<trkpt lat="-27.2742588" lon="151.2900733">
  <ele>343.08</ele>
  <time>2026-09-01T19:56:53Z</time>
  <course>14.61</course>
  <speed>0.0</speed>
  <fix>3d</fix>
</trkpt>
<trkpt lat="-27.2742589" lon="151.2900734">
  <ele>343.19</ele>
  <time>2026-09-01T19:56:53Z</time>
  <course>10.28</course>
  <speed>0.01</speed>
  <fix>3d</fix>
</trkpt>
<trkpt lat="-27.2742588" lon="151.2900733">
  <ele>343.09</ele>
  <time>2026-09-01T19:56:53Z</time>
  <course>194.62</course>
  <speed>0.0</speed>
  <fix>3d</fix>
</trkpt>
<trkpt lat="-27.2742589" lon="151.2900734">
  <ele>343.19</ele>
  <time>2026-09-01T19:56:53Z</time>
  <course>10.28</course>
  <speed>0.01414213562373095</speed>
  <fix>3d</fix>
</trkpt>
<trkpt lat="-27.2742588" lon="151.2900733">
  <ele>343.09</ele>
  <time>2026-09-01T19:56:53Z</time>
  <course>194.62</course>
  <speed>0.0</speed>
  <fix>3d</fix>
</trkpt>
<trkpt lat="-27.2742589" lon="151.2900734">
  <ele>343.19</ele>
  <time>2026-09-01T19:56:53Z</time>
  <course>10.28</course>
  <speed>0.01414213562373095</speed>
  <fix>3d</fix>
</trkpt>
<trkpt lat="-27.2742588" lon="151.2900733">
  <ele>343.08</ele>
  <time>2026-09-01T19:56:53Z</time>
  <course>194.63</course>
  <speed>0.0</speed>
  <fix>3d</fix>
</trkpt>
<trkpt lat="-27.2742589" lon="151.2900734">
  <ele>343.19</ele>
  <time>2026-09-01T19:56:53Z</time>
  <course>10.28</course>
  <speed>0.022360679774997897</speed>
  <fix>3d</fix>
</trkpt>
<trkpt lat="-27.2742588" lon="151.2900733">
  <ele>343.08</ele>
  <time>2026-09-01T19:56:53Z</time>
  <course>194.63</course>
  <speed>0.0</speed>
  <fix>3d</fix>
</trkpt>
<trkpt lat="-27.2742589" lon="151.2900734">
  <ele>343.19</ele>
  <time>2026-09-01T19:56:53Z</time>
  <course>10.28</course>
  <speed>0.022360679774997897</speed>
  <fix>3d</fix>
</trkpt>
<trkpt lat="-27.2742588" lon="151.2900733">
  <ele>343.08</ele>
  <time>2026-09-01T19:56:53Z</time>
  <course>14.5</course>
  <speed>0.0</speed>
  <fix>3d</fix>
</trkpt>
<trkpt lat="-27.2742589" lon="151.2900734">
  <ele>343.19</ele>
  <time>2026-09-01T19:56:53Z</time>
  <course>10.28</course>
  <speed>0.022360679774997897</speed>
  <fix>3d</fix>
</trkpt>
<trkpt lat="-27.2742588" lon="151.2900733">
  <ele>343.08</ele>
  <time>2026-09-01T19:56:53Z</time>
  <course>14.5</course>
  <speed>0.0</speed>
  <fix>3d</fix>
</trkpt>
<trkpt lat="-27.2742589" lon="151.2900734">
  <ele>343.19</ele>
  <time>2026-09-01T19:56:53Z</time>
  <course>10.28</course>
  <speed>0.022360679774997897</speed>
  <fix>3d</fix>
</trkpt>
<trkpt lat="-27.2742588" lon="151.2900733">
  <ele>343.09</ele>
  <time>2026-09-01T19:56:53Z</time>
  <course>14.44</course>
  <speed>0.0</speed>
  <fix>3d</fix>
</trkpt>
<trkpt lat="-27.2742589" lon="151.2900734">
  <ele>343.19</ele>
  <time>2026-09-01T19:56:53Z</time>
  <course>10.29</course>
  <speed>0.022360679774997897</speed>
  <fix>3d</fix>
</trkpt>
<trkpt lat="-27.2742588" lon="151.2900733">
  <ele>343.09</ele>
  <time>2026-09-01T19:56:53Z</time>
  <course>14.44</course>
  <speed>0.0</speed>
  <fix>3d</fix>
</trkpt>
<trkpt lat="-27.2742589" lon="151.2900734">
  <ele>343.19</ele>
  <time>2026-09-01T19:56:53Z</time>
  <course>10.29</course>
  <speed>0.022360679774997897</speed>
  <fix>3d</fix>
</trkpt>
<trkpt lat="-27.2742588" lon="151.2900733">
  <ele>343.09</ele>
  <time>2026-09-01T19:56:53Z</time>
  <course>194.82</course>
  <speed>0.0</speed>
  <fix>3d</fix>
</trkpt>
<trkpt lat="-27.2742589" lon="151.2900734">
  <ele>343.19</ele>
  <time>2026-09-01T19:56:53Z</time>
  <course>10.29</course>
  <speed>0.022360679774997897</speed>
  <fix>3d</fix>
</trkpt>
<trkpt lat="-27.2742588" lon="151.2900733">
  <ele>343.09</ele>
  <time>2026-09-01T19:56:53Z</time>
  <course>194.82</course>
  <speed>0.0</speed>
  <fix>3d</fix>
</trkpt>
<trkpt lat="-27.2742589" lon="151.2900734">
  <ele>343.2</ele>
  <time>2026-09-01T19:56:53Z</time>
  <course>10.29</course>
  <speed>0.022360679774997897</speed>
  <fix>3d</fix>
</trkpt>
<trkpt lat="-27.2742588" lon="151.2900733">
  <ele>343.09</ele>
  <time>2026-09-01T19:56:53Z</time>
  <course>195.23</course>
  <speed>0.0</speed>
  <fix>3d</fix>
</trkpt>
<trkpt lat="-27.2742589" lon="151.2900734">
  <ele>343.2</ele>
  <time>2026-09-01T19:56:53Z</time>
  <course>10.29</course>
  <speed>0.022360679774997897</speed>
  <fix>3d</fix>
</trkpt>
<trkpt lat="-27.2742588" lon="151.2900733">
  <ele>343.09</ele>
  <time>2026-09-01T19:56:53Z</time>
  <course>195.23</course>
  <speed>0.0</speed>
  <fix>3d</fix>
</trkpt>
<trkpt lat="-27.2742589" lon="151.2900734">
  <ele>343.2</ele>
  <time>2026-09-01T19:56:53Z</time>
  <course>10.29</course>
  <speed>0.022360679774997897</speed>
  <fix>3d</fix>
</trkpt>
<trkpt lat="-27.2742588" lon="151.2900733">
  <ele>343.09</ele>
  <time>2026-09-01T19:56:53Z</time>
  <course>13.44</course>
  <speed>0.0</speed>
  <fix>3d</fix>
</trkpt>
<trkpt lat="-27.2742589" lon="151.2900734">
  <ele>343.2</ele>
  <time>2026-09-01T19:56:53Z</time>
  <course>10.29</course>
  <speed>0.022360679774997897</speed>
  <fix>3d</fix>
</trkpt>
<trkpt lat="-27.2742588" lon="151.2900733">
  <ele>343.09</ele>
  <time>2026-09-01T19:56:53Z</time>
  <course>13.44</course>
  <speed>0.0</speed>
  <fix>3d</fix>
</trkpt>
<trkpt lat="-27.2742589" lon="151.2900734">
  <ele>343.2</ele>
  <time>2026-09-01T19:56:53Z</time>
  <course>10.29</course>
  <speed>0.022360679774997897</speed>
  <fix>3d</fix>
</trkpt>
<trkpt lat="-27.2742588" lon="151.2900733">
  <ele>343.09</ele>
  <time>2026-09-01T19:56:53Z</time>
  <course>359.34</course>
  <speed>0.0</speed>
  <fix>3d</fix>
</trkpt>
<trkpt lat="-27.2742589" lon="151.2900734">
  <ele>343.2</ele>
  <time>2026-09-01T19:56:53Z</time>
  <course>10.29</course>
  <speed>0.022360679774997897</speed>
  <fix>3d</fix>
</trkpt>
<trkpt lat="-27.2742588" lon="151.2900733">
  <ele>343.09</ele>
  <time>2026-09-01T19:56:53Z</time>
  <course>359.34</course>
  <speed>0.0</speed>
  <fix>3d</fix>
</trkpt>
<trkpt lat="-27.2742589" lon="151.2900734">
  <ele>343.2</ele>
  <time>2026-09-01T19:56:53Z</time>
  <course>10.29</course>
  <speed>0.022360679774997897</speed>
  <fix>3d</fix>
</trkpt>
<trkpt lat="-27.2742588" lon="151.2900733">
  <ele>343.09</ele>
  <time>2026-09-01T19:56:53Z</time>
  <course>200.33</course>
  <speed>0.0</speed>
  <fix>3d</fix>
</trkpt>
<trkpt lat="-27.2742589" lon="151.2900734">
  <ele>343.2</ele>
  <time>2026-09-01T19:56:53Z</time>
  <course>10.29</course>
  <speed>0.022360679774997897</speed>
  <fix>3d</fix>
</trkpt>
<trkpt lat="-27.2742588" lon="151.2900733">
  <ele>343.09</ele>
  <time>2026-09-01T19:56:53Z</time>
  <course>200.33</course>
  <speed>0.0</speed>
  <fix>3d</fix>
</trkpt>
<trkpt lat="-27.2742589" lon="151.2900734">
  <ele>343.2</ele>
  <time>2026-09-01T19:56:53Z</time>
  <course>10.29</course>
  <speed>0.022360679774997897</speed>
  <fix>3d</fix>
</trkpt>
<trkpt lat="-27.2742588" lon="151.2900733">
  <ele>343.09</ele>
  <time>2026-09-01T19:56:53Z</time>
  <course>25.53</course>
  <speed>0.0</speed>
  <fix>3d</fix>
</trkpt>
<trkpt lat="-27.2742589" lon="151.2900734">
  <ele>343.2</ele>
  <time>2026-09-01T19:56:53Z</time>
  <course>10.29</course>
  <speed>0.022360679774997897</speed>
  <fix>3d</fix>
</trkpt>
<trkpt lat="-27.2742588" lon="151.2900733">
  <ele>343.09</ele>
  <time>2026-09-01T19:56:53Z</time>
  <course>25.53</course>
  <speed>0.0</speed>
  <fix>3d</fix>
</trkpt>
<trkpt lat="-27.2742589" lon="151.2900734">
  <ele>343.21</ele>
  <time>2026-09-01T19:56:53Z</time>
  <course>10.29</course>
  <speed>0.022360679774997897</speed>
  <fix>3d</fix>
</trkpt>
<trkpt lat="-27.2742588" lon="151.2900733">
  <ele>343.09</ele>
  <time>2026-09-01T19:56:53Z</time>
  <course>28.38</course>
  <speed>0.0</speed>
  <fix>3d</fix>
</trkpt>
<trkpt lat="-27.2742589" lon="151.2900734">
  <ele>343.21</ele>
  <time>2026-09-01T19:56:53Z</time>
  <course>10.29</course>
  <speed>0.022360679774997897</speed>
  <fix>3d</fix>
</trkpt>
<trkpt lat="-27.2742588" lon="151.2900733">
  <ele>343.09</ele>
  <time>2026-09-01T19:56:53Z</time>
  <course>28.38</course>
  <speed>0.0</speed>
  <fix>3d</fix>
</trkpt>
<trkpt lat="-27.2742589" lon="151.2900734">
  <ele>343.21</ele>
  <time>2026-09-01T19:56:53Z</time>
  <course>10.29</course>
  <speed>0.022360679774997897</speed>
  <fix>3d</fix>
</trkpt>
<trkpt lat="-27.2742588" lon="151.2900733">
  <ele>343.09</ele>
  <time>2026-09-01T19:56:53Z</time>
  <course>306.26</course>
  <speed>0.0</speed>
  <fix>3d</fix>
</trkpt>
<trkpt lat="-27.2742589" lon="151.2900734">
  <ele>343.2</ele>
  <time>2026-09-01T19:56:53Z</time>
  <course>10.29</course>
  <speed>0.022360679774997897</speed>
  <fix>3d</fix>
</trkpt>
<trkpt lat="-27.2742588" lon="151.2900733">
  <ele>343.09</ele>
  <time>2026-09-01T19:56:53Z</time>
  <course>306.26</course>
  <speed>0.0</speed>
  <fix>3d</fix>
</trkpt>
<trkpt lat="-27.2742589" lon="151.2900734">
  <ele>343.2</ele>
  <time>2026-09-01T19:56:53Z</time>
  <course>10.29</course>
  <speed>0.022360679774997897</speed>
  <fix>3d</fix>
</trkpt>
<trkpt lat="-27.2742588" lon="151.2900733">
  <ele>343.09</ele>
  <time>2026-09-01T19:56:53Z</time>
  <course>354.61</course>
  <speed>0.0</speed>
  <fix>3d</fix>
</trkpt>
<trkpt lat="-27.2742589" lon="151.2900734">
  <ele>343.21</ele>
  <time>2026-09-01T19:56:53Z</time>
  <course>10.29</course>
  <speed>0.022360679774997897</speed>
  <fix>3d</fix>
</trkpt>
<trkpt lat="-27.2742588" lon="151.2900733">
  <ele>343.09</ele>
  <time>2026-09-01T19:56:53Z</time>
  <course>354.61</course>
  <speed>0.0</speed>
  <fix>3d</fix>
</trkpt>
<trkpt lat="-27.2742589" lon="151.2900734">
  <ele>343.2</ele>
  <time>2026-09-01T19:56:53Z</time>
  <course>10.29</course>
  <speed>0.022360679774997897</speed>
  <fix>3d</fix>
</trkpt>
<trkpt lat="-27.2742588" lon="151.2900733">
  <ele>343.09</ele>
  <time>2026-09-01T19:56:53Z</time>
  <course>342.6</course>
  <speed>0.0</speed>
  <fix>3d</fix>
</trkpt>
<trkpt lat="-27.2742589" lon="151.2900734">
  <ele>343.21</ele>
  <time>2026-09-01T19:56:53Z</time>
  <course>10.29</course>
  <speed>0.022360679774997897</speed>
  <fix>3d</fix>
</trkpt>
<trkpt lat="-27.2742588" lon="151.2900733">
  <ele>343.09</ele>
  <time>2026-09-01T19:56:53Z</time>
  <course>342.6</course>
  <speed>0.0</speed>
  <fix>3d</fix>
</trkpt>
<trkpt lat="-27.2742589" lon="151.2900734">
  <ele>343.21</ele>
  <time>2026-09-01T19:56:53Z</time>
  <course>10.29</course>
  <speed>0.022360679774997897</speed>
  <fix>3d</fix>
</trkpt>
<trkpt lat="-27.2742588" lon="151.2900733">
  <ele>343.09</ele>
  <time>2026-09-01T19:56:53Z</time>
  <course>335.22</course>
  <speed>0.0</speed>
  <fix>3d</fix>
</trkpt>
<trkpt lat="-27.2742589" lon="151.2900734">
  <ele>343.2</ele>
  <time>2026-09-01T19:56:53Z</time>
  <course>10.29</course>
  <speed>0.022360679774997897</speed>
  <fix>3d</fix>
</trkpt>
<trkpt lat="-27.2742588" lon="151.2900733">
  <ele>343.09</ele>
  <time>2026-09-01T19:56:53Z</time>
  <course>335.22</course>
  <speed>0.0</speed>
  <fix>3d</fix>
</trkpt>
<trkpt lat="-27.2742589" lon="151.2900734">
  <ele>343.2</ele>
  <time>2026-09-01T19:56:53Z</time>
  <course>10.29</course>
  <speed>0.022360679774997897</speed>
  <fix>3d</fix>
</trkpt>
<trkpt lat="-27.2742588" lon="151.2900733">
  <ele>343.09</ele>
  <time>2026-09-01T19:56:53Z</time>
  <course>330.22</course>
  <speed>0.0</speed>
  <fix>3d</fix>
</trkpt>
<trkpt lat="-27.2742589" lon="151.2900734">
  <ele>343.2</ele>
  <time>2026-09-01T19:56:53Z</time>
  <course>10.29</course>
  <speed>0.022360679774997897</speed>
  <fix>3d</fix>
</trkpt>
<trkpt lat="-27.2742588" lon="151.2900733">
  <ele>343.09</ele>
  <time>2026-09-01T19:56:53Z</time>
  <course>330.22</course>
  <speed>0.0</speed>
  <fix>3d</fix>
</trkpt>
<trkpt lat="-27.2742589" lon="151.2900734">
  <ele>343.2</ele>
  <time>2026-09-01T19:56:53Z</time>
  <course>10.29</course>
  <speed>0.022360679774997897</speed>
  <fix>3d</fix>
</trkpt>
<trkpt lat="-27.2742588" lon="151.2900733">
  <ele>343.09</ele>
  <time>2026-09-01T19:56:53Z</time>
  <course>327.26</course>
  <speed>0.0</speed>
  <fix>3d</fix>
</trkpt>
<trkpt lat="-27.2742589" lon="151.2900734">
  <ele>343.2</ele>
  <time>2026-09-01T19:56:53Z</time>
  <course>10.29</course>
  <speed>0.022360679774997897</speed>
  <fix>3d</fix>
</trkpt>
<trkpt lat="-27.2742588" lon="151.2900733">
  <ele>343.09</ele>
  <time>2026-09-01T19:56:53Z</time>
  <course>327.26</course>
  <speed>0.0</speed>
  <fix>3d</fix>
</trkpt>
<trkpt lat="-27.2742589" lon="151.2900734">
  <ele>343.2</ele>
  <time>2026-09-01T19:56:53Z</time>
  <course>10.29</course>
  <speed>0.022360679774997897</speed>
  <fix>3d</fix>
</trkpt>
<trkpt lat="-27.2742588" lon="151.2900733">
  <ele>343.09</ele>
  <time>2026-09-01T19:56:53Z</time>
  <course>319.56</course>
  <speed>0.0</speed>
  <fix>3d</fix>
</trkpt>
<trkpt lat="-27.274259" lon="151.2900734">
  <ele>343.2</ele>
  <time>2026-09-01T19:56:53Z</time>
  <course>10.29</course>
  <speed>0.022360679774997897</speed>
  <fix>3d</fix>
</trkpt>
<trkpt lat="-27.2742588" lon="151.2900733">
  <ele>343.09</ele>
  <time>2026-09-01T19:56:53Z</time>
  <course>319.56</course>
  <speed>0.0</speed>
  <fix>3d</fix>
</trkpt>
<trkpt lat="-27.2742589" lon="151.2900734">
  <ele>343.2</ele>
  <time>2026-09-01T19:56:53Z</time>
  <course>10.29</course>
  <speed>0.022360679774997897</speed>
  <fix>3d</fix>
</trkpt>
<trkpt lat="-27.2742588" lon="151.2900733">
  <ele>343.09</ele>
  <time>2026-09-01T19:56:53Z</time>
  <course>300.9</course>
  <speed>0.0</speed>
  <fix>3d</fix>
</trkpt>
<trkpt lat="-27.274259" lon="151.2900734">
  <ele>343.2</ele>
  <time>2026-09-01T19:56:53Z</time>
  <course>10.3</course>
  <speed>0.022360679774997897</speed>
  <fix>3d</fix>
</trkpt>
<trkpt lat="-27.2742588" lon="151.2900733">
  <ele>343.09</ele>
  <time>2026-09-01T19:56:53Z</time>
  <course>300.9</course>
  <speed>0.0</speed>
  <fix>3d</fix>
</trkpt>
<trkpt lat="-27.274259" lon="151.2900734">
  <ele>343.2</ele>
  <time>2026-09-01T19:56:53Z</time>
  <course>10.3</course>
  <speed>0.022360679774997897</speed>
  <fix>3d</fix>
</trkpt>
<trkpt lat="-27.2742588" lon="151.2900733">
  <ele>343.09</ele>
  <time>2026-09-01T19:56:53Z</time>
  <course>342.34</course>
  <speed>0.0</speed>
  <fix>3d</fix>
</trkpt>
<trkpt lat="-27.274259" lon="151.2900734">
  <ele>343.2</ele>
  <time>2026-09-01T19:56:53Z</time>
  <course>10.3</course>
  <speed>0.022360679774997897</speed>
  <fix>3d</fix>
</trkpt>
<trkpt lat="-27.2742588" lon="151.2900733">
  <ele>343.09</ele>
  <time>2026-09-01T19:56:53Z</time>
  <course>342.34</course>
  <speed>0.0</speed>
  <fix>3d</fix>
</trkpt>
<trkpt lat="-27.274259" lon="151.2900734">
  <ele>343.2</ele>
  <time>2026-09-01T19:56:53Z</time>
  <course>10.3</course>
  <speed>0.022360679774997897</speed>
  <fix>3d</fix>
</trkpt>
<trkpt lat="-27.2742588" lon="151.2900733">
  <ele>343.09</ele>
  <time>2026-09-01T19:56:53Z</time>
  <course>319.27</course>
  <speed>0.0</speed>
  <fix>3d</fix>
</trkpt>
<trkpt lat="-27.274259" lon="151.2900734">
  <ele>343.2</ele>
  <time>2026-09-01T19:56:53Z</time>
  <course>10.3</course>
  <speed>0.022360679774997897</speed>
  <fix>3d</fix>
</trkpt>
<trkpt lat="-27.2742588" lon="151.2900733">
  <ele>343.09</ele>
  <time>2026-09-01T19:56:53Z</time>
  <course>319.27</course>
  <speed>0.0</speed>
  <fix>3d</fix>
</trkpt>
<trkpt lat="-27.274259" lon="151.2900734">
  <ele>343.2</ele>
  <time>2026-09-01T19:56:53Z</time>
  <course>10.3</course>
  <speed>0.022360679774997897</speed>
  <fix>3d</fix>
</trkpt>
<trkpt lat="-27.2742588" lon="151.2900733">
  <ele>343.09</ele>
  <time>2026-09-01T19:56:53Z</time>
  <course>7.53</course>
  <speed>0.0</speed>
  <fix>3d</fix>
</trkpt>
<trkpt lat="-27.274259" lon="151.2900734">
  <ele>343.2</ele>
  <time>2026-09-01T19:56:53Z</time>
  <course>10.3</course>
  <speed>0.022360679774997897</speed>
  <fix>3d</fix>
</trkpt>
<trkpt lat="-27.2742588" lon="151.2900733">
  <ele>343.09</ele>
  <time>2026-09-01T19:56:53Z</time>
  <course>7.53</course>
  <speed>0.0</speed>
  <fix>3d</fix>
</trkpt>
<trkpt lat="-27.274259" lon="151.2900734">
  <ele>343.2</ele>
  <time>2026-09-01T19:56:53Z</time>
  <course>10.3</course>
  <speed>0.022360679774997897</speed>
  <fix>3d</fix>
</trkpt>
<trkpt lat="-27.2742588" lon="151.2900733">
  <ele>343.09</ele>
  <time>2026-09-01T19:56:53Z</time>
  <course>348.21</course>
  <speed>0.0</speed>
  <fix>3d</fix>
</trkpt>
<trkpt lat="-27.274259" lon="151.2900734">
  <ele>343.2</ele>
  <time>2026-09-01T19:56:53Z</time>
  <course>10.3</course>
  <speed>0.022360679774997897</speed>
  <fix>3d</fix>
</trkpt>
<trkpt lat="-27.2742588" lon="151.2900733">
  <ele>343.09</ele>
  <time>2026-09-01T19:56:53Z</time>
  <course>348.21</course>
  <speed>0.0</speed>
  <fix>3d</fix>
</trkpt>
<trkpt lat="-27.274259" lon="151.2900734">
  <ele>343.2</ele>
  <time>2026-09-01T19:56:53Z</time>
  <course>10.3</course>
  <speed>0.022360679774997897</speed>
  <fix>3d</fix>
</trkpt>
<trkpt lat="-27.2742588" lon="151.2900733">
  <ele>343.09</ele>
  <time>2026-09-01T19:56:53Z</time>
  <course>349.08</course>
  <speed>0.0</speed>
  <fix>3d</fix>
</trkpt>
<trkpt lat="-27.274259" lon="151.2900734">
  <ele>343.21</ele>
  <time>2026-09-01T19:56:54Z</time>
  <course>10.3</course>
  <speed>0.022360679774997897</speed>
  <fix>3d</fix>
</trkpt>
<trkpt lat="-27.2742588" lon="151.2900733">
  <ele>343.09</ele>
  <time>2026-09-01T19:56:54Z</time>
  <course>349.08</course>
  <speed>0.0</speed>
  <fix>3d</fix>
</trkpt>
<trkpt lat="-27.274259" lon="151.2900734">
  <ele>343.21</ele>
  <time>2026-09-01T19:56:54Z</time>
  <course>10.3</course>
  <speed>0.022360679774997897</speed>
  <fix>3d</fix>
</trkpt>
<trkpt lat="-27.2742588" lon="151.2900733">
  <ele>343.09</ele>
  <time>2026-09-01T19:56:54Z</time>
  <course>338.19</course>
  <speed>0.0</speed>
  <fix>3d</fix>
</trkpt>
<trkpt lat="-27.274259" lon="151.2900734">
  <ele>343.21</ele>
  <time>2026-09-01T19:56:54Z</time>
  <course>10.3</course>
  <speed>0.022360679774997897</speed>
  <fix>3d</fix>
</trkpt>
<trkpt lat="-27.2742588" lon="151.2900733">
  <ele>343.09</ele>
  <time>2026-09-01T19:56:54Z</time>
  <course>338.19</course>
  <speed>0.0</speed>
  <fix>3d</fix>
</trkpt>
<trkpt lat="-27.274259" lon="151.2900734">
  <ele>343.21</ele>
  <time>2026-09-01T19:56:54Z</time>
  <course>10.3</course>
  <speed>0.022360679774997897</speed>
  <fix>3d</fix>
</trkpt>
<trkpt lat="-27.2742588" lon="151.2900733">
  <ele>343.09</ele>
  <time>2026-09-01T19:56:54Z</time>
  <course>329.54</course>
  <speed>0.0</speed>
  <fix>3d</fix>
</trkpt>
<trkpt lat="-27.274259" lon="151.2900734">
  <ele>343.21</ele>
  <time>2026-09-01T19:56:54Z</time>
  <course>10.3</course>
  <speed>0.022360679774997897</speed>
  <fix>3d</fix>
</trkpt>
<trkpt lat="-27.2742588" lon="151.2900733">
  <ele>343.09</ele>
  <time>2026-09-01T19:56:54Z</time>
  <course>329.54</course>
  <speed>0.0</speed>
  <fix>3d</fix>
</trkpt>
<trkpt lat="-27.274259" lon="151.2900734">
  <ele>343.21</ele>
  <time>2026-09-01T19:56:54Z</time>
  <course>10.3</course>
  <speed>0.022360679774997897</speed>
  <fix>3d</fix>
</trkpt>
<trkpt lat="-27.2742588" lon="151.2900733">
  <ele>343.09</ele>
  <time>2026-09-01T19:56:54Z</time>
  <course>321.6</course>
  <speed>0.0</speed>
  <fix>3d</fix>
</trkpt>
<trkpt lat="-27.274259" lon="151.2900734">
  <ele>343.21</ele>
  <time>2026-09-01T19:56:54Z</time>
  <course>10.3</course>
  <speed>0.022360679774997897</speed>
  <fix>3d</fix>
</trkpt>
<trkpt lat="-27.2742588" lon="151.2900733">
  <ele>343.09</ele>
  <time>2026-09-01T19:56:54Z</time>
  <course>321.6</course>
  <speed>0.0</speed>
  <fix>3d</fix>
</trkpt>
<trkpt lat="-27.274259" lon="151.2900734">
  <ele>343.09</ele>
  <time>2026-09-01T19:56:54Z</time>
  <course>10.3</course>
  <speed>0.022360679774997897</speed>
  <fix>3d</fix>
</trkpt>
<trkpt lat="-27.2742588" lon="151.2900733">
  <ele>343.09</ele>
  <time>2026-09-01T19:56:54Z</time>
  <course>307.03</course>
  <speed>0.0</speed>
  <fix>3d</fix>
</trkpt>
<trkpt lat="-27.274259" lon="151.2900734">
  <ele>343.09</ele>
  <time>2026-09-01T19:56:54Z</time>
  <course>10.31</course>
  <speed>0.022360679774997897</speed>
  <fix>3d</fix>
</trkpt>
<trkpt lat="-27.2742588" lon="151.2900733">
  <ele>343.09</ele>
  <time>2026-09-01T19:56:54Z</time>
  <course>307.03</course>
  <speed>0.0</speed>
  <fix>3d</fix>
</trkpt>
<trkpt lat="-27.274259" lon="151.2900734">
  <ele>343.09</ele>
  <time>2026-09-01T19:56:54Z</time>
  <course>10.31</course>
  <speed>0.022360679774997897</speed>
  <fix>3d</fix>
</trkpt>
<trkpt lat="-27.2742588" lon="151.2900733">
  <ele>343.09</ele>
  <time>2026-09-01T19:56:54Z</time>
  <course>145.78</course>
  <speed>0.0</speed>
  <fix>3d</fix>
</trkpt>
<trkpt lat="-27.274259" lon="151.2900734">
  <ele>343.09</ele>
  <time>2026-09-01T19:56:54Z</time>
  <course>10.33</course>
  <speed>0.022360679774997897</speed>
  <fix>3d</fix>
</trkpt>
<trkpt lat="-27.2742588" lon="151.2900733">
  <ele>343.09</ele>
  <time>2026-09-01T19:56:54Z</time>
  <course>145.78</course>
  <speed>0.0</speed>
  <fix>3d</fix>
</trkpt>
<trkpt lat="-27.274259" lon="151.2900734">
  <ele>343.09</ele>
  <time>2026-09-01T19:56:54Z</time>
  <course>10.34</course>
  <speed>0.022360679774997897</speed>
  <fix>3d</fix>
</trkpt>
<trkpt lat="-27.2742588" lon="151.2900733">
  <ele>343.09</ele>
  <time>2026-09-01T19:56:54Z</time>
  <course>147.13</course>
  <speed>0.0</speed>
  <fix>3d</fix>
</trkpt>
<trkpt lat="-27.274259" lon="151.2900734">
  <ele>343.09</ele>
  <time>2026-09-01T19:56:54Z</time>
  <course>10.35</course>
  <speed>0.022360679774997897</speed>
  <fix>3d</fix>
</trkpt>
<trkpt lat="-27.2742588" lon="151.2900733">
  <ele>343.09</ele>
  <time>2026-09-01T19:56:54Z</time>
  <course>147.13</course>
  <speed>0.0</speed>
  <fix>3d</fix>
</trkpt>
<trkpt lat="-27.274259" lon="151.2900734">
  <ele>343.08</ele>
  <time>2026-09-01T19:56:54Z</time>
  <course>10.37</course>
  <speed>0.022360679774997897</speed>
  <fix>3d</fix>
</trkpt>
<trkpt lat="-27.2742588" lon="151.2900733">
  <ele>343.09</ele>
  <time>2026-09-01T19:56:54Z</time>
  <course>323.95</course>
  <speed>0.0</speed>
  <fix>3d</fix>
</trkpt>
<trkpt lat="-27.274259" lon="151.2900734">
  <ele>343.08</ele>
  <time>2026-09-01T19:56:54Z</time>
  <course>10.38</course>
  <speed>0.022360679774997897</speed>
  <fix>3d</fix>
</trkpt>
<trkpt lat="-27.2742588" lon="151.2900733">
  <ele>343.09</ele>
  <time>2026-09-01T19:56:54Z</time>
  <course>323.95</course>
  <speed>0.0</speed>
  <fix>3d</fix>
</trkpt>
<trkpt lat="-27.274259" lon="151.2900734">
  <ele>343.08</ele>
  <time>2026-09-01T19:56:54Z</time>
  <course>10.39</course>
  <speed>0.022360679774997897</speed>
  <fix>3d</fix>
</trkpt>
<trkpt lat="-27.2742588" lon="151.2900733">
  <ele>343.09</ele>
  <time>2026-09-01T19:56:54Z</time>
  <course>327.27</course>
  <speed>0.0</speed>
  <fix>3d</fix>
</trkpt>
<trkpt lat="-27.274259" lon="151.2900734">
  <ele>343.08</ele>
  <time>2026-09-01T19:56:54Z</time>
  <course>10.4</course>
  <speed>0.022360679774997897</speed>
  <fix>3d</fix>
</trkpt>
<trkpt lat="-27.2742588" lon="151.2900733">
  <ele>343.09</ele>
  <time>2026-09-01T19:56:54Z</time>
  <course>327.27</course>
  <speed>0.0</speed>
  <fix>3d</fix>
</trkpt>
<trkpt lat="-27.274259" lon="151.2900734">
  <ele>343.08</ele>
  <time>2026-09-01T19:56:54Z</time>
  <course>10.42</course>
  <speed>0.022360679774997897</speed>
  <fix>3d</fix>
</trkpt>
<trkpt lat="-27.2742588" lon="151.2900733">
  <ele>343.09</ele>
  <time>2026-09-01T19:56:54Z</time>
  <course>146.27</course>
  <speed>0.0</speed>
  <fix>3d</fix>
</trkpt>
<trkpt lat="-27.274259" lon="151.2900734">
  <ele>343.08</ele>
  <time>2026-09-01T19:56:54Z</time>
  <course>10.43</course>
  <speed>0.022360679774997897</speed>
  <fix>3d</fix>
</trkpt>
<trkpt lat="-27.2742588" lon="151.2900733">
  <ele>343.09</ele>
  <time>2026-09-01T19:56:54Z</time>
  <course>146.27</course>
  <speed>0.0</speed>
  <fix>3d</fix>
</trkpt>
<trkpt lat="-27.274259" lon="151.2900734">
  <ele>343.08</ele>
  <time>2026-09-01T19:56:54Z</time>
  <course>10.44</course>
  <speed>0.022360679774997897</speed>
  <fix>3d</fix>
</trkpt>
<trkpt lat="-27.2742588" lon="151.2900733">
  <ele>343.09</ele>
  <time>2026-09-01T19:56:54Z</time>
  <course>147.46</course>
  <speed>0.0</speed>
  <fix>3d</fix>
</trkpt>
<trkpt lat="-27.274259" lon="151.2900734">
  <ele>343.07</ele>
  <time>2026-09-01T19:56:54Z</time>
  <course>10.45</course>
  <speed>0.022360679774997897</speed>
  <fix>3d</fix>
</trkpt>
<trkpt lat="-27.2742588" lon="151.2900733">
  <ele>343.09</ele>
  <time>2026-09-01T19:56:54Z</time>
  <course>147.46</course>
  <speed>0.0</speed>
  <fix>3d</fix>
</trkpt>
<trkpt lat="-27.274259" lon="151.2900734">
  <ele>343.07</ele>
  <time>2026-09-01T19:56:54Z</time>
  <course>10.47</course>
  <speed>0.022360679774997897</speed>
  <fix>3d</fix>
</trkpt>
<trkpt lat="-27.2742588" lon="151.2900733">
  <ele>343.09</ele>
  <time>2026-09-01T19:56:54Z</time>
  <course>326.72</course>
  <speed>0.0</speed>
  <fix>3d</fix>
</trkpt>
<trkpt lat="-27.274259" lon="151.2900734">
  <ele>343.06</ele>
  <time>2026-09-01T19:56:54Z</time>
  <course>10.48</course>
  <speed>0.022360679774997897</speed>
  <fix>3d</fix>
</trkpt>
<trkpt lat="-27.2742588" lon="151.2900733">
  <ele>343.09</ele>
  <time>2026-09-01T19:56:54Z</time>
  <course>326.72</course>
  <speed>0.0</speed>
  <fix>3d</fix>
</trkpt>
<trkpt lat="-27.2742589" lon="151.2900734">
  <ele>343.06</ele>
  <time>2026-09-01T19:56:54Z</time>
  <course>10.49</course>
  <speed>0.022360679774997897</speed>
  <fix>3d</fix>
</trkpt>
<trkpt lat="-27.2742588" lon="151.2900733">
  <ele>343.09</ele>
  <time>2026-09-01T19:56:54Z</time>
  <course>327.75</course>
  <speed>0.0</speed>
  <fix>3d</fix>
</trkpt>
<trkpt lat="-27.2742589" lon="151.2900734">
  <ele>343.06</ele>
  <time>2026-09-01T19:56:54Z</time>
  <course>10.5</course>
  <speed>0.022360679774997897</speed>
  <fix>3d</fix>
</trkpt>
<trkpt lat="-27.2742588" lon="151.2900733">
  <ele>343.09</ele>
  <time>2026-09-01T19:56:54Z</time>
  <course>327.75</course>
  <speed>0.0</speed>
  <fix>3d</fix>
</trkpt>
<trkpt lat="-27.2742589" lon="151.2900734">
  <ele>343.06</ele>
  <time>2026-09-01T19:56:54Z</time>
  <course>10.52</course>
  <speed>0.022360679774997897</speed>
  <fix>3d</fix>
</trkpt>
<trkpt lat="-27.2742588" lon="151.2900733">
  <ele>343.09</ele>
  <time>2026-09-01T19:56:54Z</time>
  <course>146.93</course>
  <speed>0.0</speed>
  <fix>3d</fix>
</trkpt>
<trkpt lat="-27.2742589" lon="151.2900734">
  <ele>343.06</ele>
  <time>2026-09-01T19:56:54Z</time>
  <course>10.53</course>
  <speed>0.022360679774997897</speed>
  <fix>3d</fix>
</trkpt>
<trkpt lat="-27.2742588" lon="151.2900733">
  <ele>343.09</ele>
  <time>2026-09-01T19:56:54Z</time>
  <course>146.93</course>
  <speed>0.0</speed>
  <fix>3d</fix>
</trkpt>
<trkpt lat="-27.2742589" lon="151.2900734">
  <ele>343.06</ele>
  <time>2026-09-01T19:56:54Z</time>
  <course>10.54</course>
  <speed>0.01414213562373095</speed>
  <fix>3d</fix>
</trkpt>
<trkpt lat="-27.2742588" lon="151.2900733">
  <ele>343.09</ele>
  <time>2026-09-01T19:56:54Z</time>
  <course>148.6</course>
  <speed>0.0</speed>
  <fix>3d</fix>
</trkpt>
<trkpt lat="-27.2742589" lon="151.2900734">
  <ele>343.06</ele>
  <time>2026-09-01T19:56:54Z</time>
  <course>10.55</course>
  <speed>0.01414213562373095</speed>
  <fix>3d</fix>
</trkpt>
<trkpt lat="-27.2742588" lon="151.2900733">
  <ele>343.09</ele>
  <time>2026-09-01T19:56:54Z</time>
  <course>148.6</course>
  <speed>0.0</speed>
  <fix>3d</fix>
</trkpt>
<trkpt lat="-27.2742589" lon="151.2900734">
  <ele>343.06</ele>
  <time>2026-09-01T19:56:54Z</time>
  <course>10.56</course>
  <speed>0.01414213562373095</speed>
  <fix>3d</fix>
</trkpt>
<trkpt lat="-27.2742588" lon="151.2900733">
  <ele>343.09</ele>
  <time>2026-09-01T19:56:54Z</time>
  <course>327.09</course>
  <speed>0.0</speed>
  <fix>3d</fix>
</trkpt>
<trkpt lat="-27.2742589" lon="151.2900734">
  <ele>343.06</ele>
  <time>2026-09-01T19:56:54Z</time>
  <course>10.57</course>
  <speed>0.01</speed>
  <fix>3d</fix>
</trkpt>
<trkpt lat="-27.2742588" lon="151.2900733">
  <ele>343.09</ele>
  <time>2026-09-01T19:56:54Z</time>
  <course>327.09</course>
  <speed>0.0</speed>
  <fix>3d</fix>
</trkpt>
<trkpt lat="-27.2742589" lon="151.2900734">
  <ele>343.06</ele>
  <time>2026-09-01T19:56:54Z</time>
  <course>10.59</course>
  <speed>0.01</speed>
  <fix>3d</fix>
</trkpt>
<trkpt lat="-27.2742588" lon="151.2900733">
  <ele>343.09</ele>
  <time>2026-09-01T19:56:54Z</time>
  <course>135.78</course>
  <speed>0.0</speed>
  <fix>3d</fix>
</trkpt>
<trkpt lat="-27.2742589" lon="151.2900734">
  <ele>343.06</ele>
  <time>2026-09-01T19:56:54Z</time>
  <course>10.6</course>
  <speed>0.01</speed>
  <fix>3d</fix>
</trkpt>
<trkpt lat="-27.2742588" lon="151.2900733">
  <ele>343.09</ele>
  <time>2026-09-01T19:56:54Z</time>
  <course>135.78</course>
  <speed>0.0</speed>
  <fix>3d</fix>
</trkpt>
<trkpt lat="-27.2742589" lon="151.2900734">
  <ele>343.06</ele>
  <time>2026-09-01T19:56:54Z</time>
  <course>10.61</course>
  <speed>0.01</speed>
  <fix>3d</fix>
</trkpt>
<trkpt lat="-27.2742588" lon="151.2900733">
  <ele>343.09</ele>
  <time>2026-09-01T19:56:54Z</time>
  <course>147.23</course>
  <speed>0.0</speed>
  <fix>3d</fix>
</trkpt>
<trkpt lat="-27.2744385" lon="151.290064">
  <ele>342.017</ele>
  <time>2026-09-01T19:56:54Z</time>
  <course>0.0</course>
  <speed>0.59</speed>
  <fix>3d</fix>
</trkpt>
<trkpt lat="-27.2744369" lon="151.290064">
  <ele>343.0</ele>
  <time>2026-09-01T19:56:54Z</time>
  <course>0.02</course>
  <speed>1.19</speed>
  <fix>3d</fix>
</trkpt>
<trkpt lat="-27.2744342" lon="151.290064">
  <ele>343.0</ele>
  <time>2026-09-01T19:56:54Z</time>
  <course>0.06</course>
  <speed>1.79</speed>
  <fix>3d</fix>
</trkpt>
<trkpt lat="-27.2744304" lon="151.290064">
  <ele>343.0</ele>
  <time>2026-09-01T19:56:54Z</time>
  <course>0.11</course>
  <speed>2.4</speed>
  <fix>3d</fix>
</trkpt>
<trkpt lat="-27.2744256" lon="151.290064">
  <ele>343.0</ele>
  <time>2026-09-01T19:56:54Z</time>
  <course>0.17</course>
  <speed>3.0</speed>
  <fix>3d</fix>
</trkpt>
<trkpt lat="-27.2744196" lon="151.290064">
  <ele>343.0</ele>
  <time>2026-09-01T19:56:54Z</time>
  <course>0.24</course>
  <speed>3.6000138888620974</speed>
  <fix>3d</fix>
</trkpt>
<trkpt lat="-27.2744126" lon="151.290064">
  <ele>343.0</ele>
  <time>2026-09-01T19:56:54Z</time>
  <course>0.33</course>
  <speed>4.200047618777673</speed>
  <fix>3d</fix>
</trkpt>
<trkpt lat="-27.2744045" lon="151.2900641">
  <ele>343.0</ele>
  <time>2026-09-01T19:56:54Z</time>
  <course>0.44</course>
  <speed>4.800093749084491</speed>
  <fix>3d</fix>
</trkpt>
<trkpt lat="-27.2743956" lon="151.2900642">
  <ele>343.0</ele>
  <time>2026-09-01T19:56:54Z</time>
  <course>0.55</course>
  <speed>4.990160318065944</speed>
  <fix>3d</fix>
</trkpt>
<trkpt lat="-27.2743866" lon="151.2900643">
  <ele>343.0</ele>
  <time>2026-09-01T19:56:54Z</time>
  <course>0.66</course>
  <speed>4.990250494714669</speed>
  <fix>3d</fix>
</trkpt>
<trkpt lat="-27.2744385" lon="151.290064">
  <ele>343.0</ele>
  <time>2026-09-01T19:56:54Z</time>
  <course>0.0</course>
  <speed>0.59</speed>
  <fix>3d</fix>
</trkpt>
<trkpt lat="-27.2744369" lon="151.290064">
  <ele>343.0</ele>
  <time>2026-09-01T19:56:54Z</time>
  <course>0.02</course>
  <speed>1.19</speed>
  <fix>3d</fix>
</trkpt>
<trkpt lat="-27.2744342" lon="151.290064">
  <ele>343.0</ele>
  <time>2026-09-01T19:56:54Z</time>
  <course>0.06</course>
  <speed>1.79</speed>
  <fix>3d</fix>
</trkpt>
<trkpt lat="-27.2744304" lon="151.290064">
  <ele>343.0</ele>
  <time>2026-09-01T19:56:54Z</time>
  <course>0.11</course>
  <speed>2.39</speed>
  <fix>3d</fix>
</trkpt>
<trkpt lat="-27.2744256" lon="151.290064">
  <ele>343.0</ele>
  <time>2026-09-01T19:56:54Z</time>
  <course>0.17</course>
  <speed>2.99</speed>
  <fix>3d</fix>
</trkpt>
<trkpt lat="-27.2744196" lon="151.290064">
  <ele>343.0</ele>
  <time>2026-09-01T19:56:54Z</time>
  <course>0.24</course>
  <speed>3.5900139275495855</speed>
  <fix>3d</fix>
</trkpt>
<trkpt lat="-27.2744126" lon="151.290064">
  <ele>343.0</ele>
  <time>2026-09-01T19:56:54Z</time>
  <course>0.33</course>
  <speed>4.190047732425014</speed>
  <fix>3d</fix>
</trkpt>
<trkpt lat="-27.2744046" lon="151.2900641">
  <ele>343.0</ele>
  <time>2026-09-01T19:56:54Z</time>
  <course>0.43</course>
  <speed>4.790093944798995</speed>
  <fix>3d</fix>
</trkpt>
<trkpt lat="-27.2743956" lon="151.2900642">
  <ele>343.0</ele>
  <time>2026-09-01T19:56:54Z</time>
  <course>0.55</course>
  <speed>4.990160318065944</speed>
  <fix>3d</fix>
</trkpt>
<trkpt lat="-27.2743867" lon="151.2900643">
  <ele>343.0</ele>
  <time>2026-09-01T19:56:54Z</time>
  <course>0.66</course>
  <speed>4.990250494714669</speed>
  <fix>3d</fix>
</trkpt>
<trkpt lat="-27.2743776" lon="151.2900644">
  <ele>343.0</ele>
  <time>2026-09-01T19:56:54Z</time>
  <course>0.78</course>
  <speed>4.990360708405756</speed>
  <fix>3d</fix>
</trkpt>
<trkpt lat="-27.2743687" lon="151.2900646">
  <ele>343.0</ele>
  <time>2026-09-01T19:56:54Z</time>
  <course>0.89</course>
  <speed>4.990490957811666</speed>
  <fix>3d</fix>
</trkpt>
<trkpt lat="-27.2743597" lon="151.2900647">
  <ele>343.0</ele>
  <time>2026-09-01T19:56:54Z</time>
  <course>1.01</course>
  <speed>4.9906412413636785</speed>
  <fix>3d</fix>
</trkpt>
<trkpt lat="-27.2743507" lon="151.2900649">
  <ele>343.0</ele>
  <time>2026-09-01T19:56:54Z</time>
  <course>1.12</course>
  <speed>4.990811557251987</speed>
  <fix>3d</fix>
</trkpt>
<trkpt lat="-27.2743417" lon="151.2900651">
  <ele>343.0</ele>
  <time>2026-09-01T19:56:54Z</time>
  <course>1.24</course>
  <speed>4.991001903425804</speed>
  <fix>3d</fix>
</trkpt>
<trkpt lat="-27.2743328" lon="151.2900654">
  <ele>343.0</ele>
  <time>2026-09-01T19:56:54Z</time>
  <course>1.35</course>
  <speed>4.99121227759349</speed>
  <fix>3d</fix>
</trkpt>
<trkpt lat="-27.2743238" lon="151.2900656">
  <ele>343.0</ele>
  <time>2026-09-01T19:56:54Z</time>
  <course>1.47</course>
  <speed>4.991442677222689</speed>
  <fix>3d</fix>
</trkpt>
<trkpt lat="-27.2743148" lon="151.2900659">
  <ele>343.0</ele>
  <time>2026-09-01T19:56:54Z</time>
  <course>1.58</course>
  <speed>4.991693099540475</speed>
  <fix>3d</fix>
</trkpt>
<trkpt lat="-27.2743058" lon="151.2900662">
  <ele>343.0</ele>
  <time>2026-09-01T19:56:54Z</time>
  <course>1.69</course>
  <speed>4.991963541533532</speed>
  <fix>3d</fix>
</trkpt>
<trkpt lat="-27.2742969" lon="151.2900665">
  <ele>343.0</ele>
  <time>2026-09-01T19:56:54Z</time>
  <course>1.81</course>
  <speed>4.99225399994832</speed>
  <fix>3d</fix>
</trkpt>
<trkpt lat="-27.2742878" lon="151.2900668">
  <ele>343.0</ele>
  <time>2026-09-01T19:56:55Z</time>
  <course>1.92</course>
  <speed>4.992564471291282</speed>
  <fix>3d</fix>
</trkpt>
<trkpt lat="-27.2742789" lon="151.2900672">
  <ele>343.0</ele>
  <time>2026-09-01T19:56:55Z</time>
  <course>2.04</course>
  <speed>4.992894951829049</speed>
  <fix>3d</fix>
</trkpt>
<trkpt lat="-27.2742699" lon="151.2900675">
  <ele>343.0</ele>
  <time>2026-09-01T19:56:55Z</time>
  <course>2.15</course>
  <speed>4.993245437588663</speed>
  <fix>3d</fix>
</trkpt>
<trkpt lat="-27.2742609" lon="151.2900679">
  <ele>343.0</ele>
  <time>2026-09-01T19:56:55Z</time>
  <course>2.27</course>
  <speed>4.99361592435782</speed>
  <fix>3d</fix>
</trkpt>
<trkpt lat="-27.274252" lon="151.2900683">
  <ele>343.0</ele>
  <time>2026-09-01T19:56:55Z</time>
  <course>2.38</course>
  <speed>4.9940064076851165</speed>
  <fix>3d</fix>
</trkpt>
<trkpt lat="-27.274243" lon="151.2900688">
  <ele>343.0</ele>
  <time>2026-09-01T19:56:55Z</time>
  <course>2.5</course>
  <speed>4.994416882880323</speed>
  <fix>3d</fix>
</trkpt>
<trkpt lat="-27.274234" lon="151.2900692">
  <ele>343.0</ele>
  <time>2026-09-01T19:56:55Z</time>
  <course>2.61</course>
  <speed>4.9948473450146595</speed>
  <fix>3d</fix>
</trkpt>
<trkpt lat="-27.274225" lon="151.2900697">
  <ele>343.0</ele>
  <time>2026-09-01T19:56:55Z</time>
  <course>2.73</course>
  <speed>4.995297788921096</speed>
  <fix>3d</fix>
</trkpt>
<trkpt lat="-27.2742161" lon="151.2900702">
  <ele>343.0</ele>
  <time>2026-09-01T19:56:55Z</time>
  <course>2.84</course>
  <speed>4.995768209194658</speed>
  <fix>3d</fix>
</trkpt>
<trkpt lat="-27.2742071" lon="151.2900707">
  <ele>343.0</ele>
  <time>2026-09-01T19:56:55Z</time>
  <course>2.96</course>
  <speed>4.996258600192748</speed>
  <fix>3d</fix>
</trkpt>
<trkpt lat="-27.2741981" lon="151.2900712">
  <ele>343.0</ele>
  <time>2026-09-01T19:56:55Z</time>
  <course>3.07</course>
  <speed>4.99676895603549</speed>
  <fix>3d</fix>
</trkpt>
<trkpt lat="-27.2741891" lon="151.2900718">
  <ele>343.0</ele>
  <time>2026-09-01T19:56:55Z</time>
  <course>3.18</course>
  <speed>4.997299270606074</speed>
  <fix>3d</fix>
</trkpt>
<trkpt lat="-27.2741802" lon="151.2900724">
  <ele>343.0</ele>
  <time>2026-09-01T19:56:55Z</time>
  <course>3.3</course>
  <speed>4.997849537551126</speed>
  <fix>3d</fix>
</trkpt>
<trkpt lat="-27.2741712" lon="151.2900729">
  <ele>343.0</ele>
  <time>2026-09-01T19:56:55Z</time>
  <course>3.41</course>
  <speed>4.998419750281083</speed>
  <fix>3d</fix>
</trkpt>
<trkpt lat="-27.2741622" lon="151.2900736">
  <ele>343.0</ele>
  <time>2026-09-01T19:56:55Z</time>
  <course>3.53</course>
  <speed>4.99900990197059</speed>
  <fix>3d</fix>
</trkpt>
<trkpt lat="-27.2741533" lon="151.2900742">
  <ele>343.0</ele>
  <time>2026-09-01T19:56:55Z</time>
  <course>3.64</course>
  <speed>4.989639265518099</speed>
  <fix>3d</fix>
</trkpt>
<trkpt lat="-27.2741443" lon="151.2900748">
  <ele>343.0</ele>
  <time>2026-09-01T19:56:55Z</time>
  <course>3.76</course>
  <speed>4.990270533748646</speed>
  <fix>3d</fix>
</trkpt>
<trkpt lat="-27.2741354" lon="151.2900755">
  <ele>343.0</ele>
  <time>2026-09-01T19:56:55Z</time>
  <course>3.87</course>
  <speed>4.990921758553224</speed>
  <fix>3d</fix>
</trkpt>
<trkpt lat="-27.2741264" lon="151.2900762">
  <ele>343.0</ele>
  <time>2026-09-01T19:56:55Z</time>
  <course>3.99</course>
  <speed>4.991592932120968</speed>
  <fix>3d</fix>
</trkpt>
<trkpt lat="-27.2741174" lon="151.2900769">
  <ele>343.0</ele>
  <time>2026-09-01T19:56:55Z</time>
  <course>4.1</course>
  <speed>4.992284046406014</speed>
  <fix>3d</fix>
</trkpt>
<trkpt lat="-27.2741085" lon="151.2900777">
  <ele>343.0</ele>
  <time>2026-09-01T19:56:55Z</time>
  <course>4.22</course>
  <speed>4.992995093127972</speed>
  <fix>3d</fix>
</trkpt>
<trkpt lat="-27.2740995" lon="151.2900784">
  <ele>343.0</ele>
  <time>2026-09-01T19:56:55Z</time>
  <course>4.33</course>
  <speed>4.993726063772421</speed>
  <fix>3d</fix>
</trkpt>
<trkpt lat="-27.2740905" lon="151.2900792">
  <ele>343.0</ele>
  <time>2026-09-01T19:56:55Z</time>
  <course>4.45</course>
  <speed>4.9944769495914185</speed>
  <fix>3d</fix>
</trkpt>
<trkpt lat="-27.2740816" lon="151.29008">
  <ele>343.0</ele>
  <time>2026-09-01T19:56:55Z</time>
  <course>4.56</course>
  <speed>4.995247741604014</speed>
  <fix>3d</fix>
</trkpt>
<trkpt lat="-27.2740726" lon="151.2900808">
  <ele>343.0</ele>
  <time>2026-09-01T19:56:55Z</time>
  <course>4.67</course>
  <speed>4.996038430596786</speed>
  <fix>3d</fix>
</trkpt>
<trkpt lat="-26.971699" lon="149.6128087">
  <ele>339.29</ele>
  <time>2026-09-01T19:56:55Z</time>
  <course>4.68</course>
  <speed>4.94</speed>
  <fix>3d</fix>
</trkpt>
<trkpt lat="-27.2740637" lon="151.2900816">
  <ele>343.0</ele>
  <time>2026-09-01T19:56:55Z</time>
  <course>4.79</course>
  <speed>4.99684900712439</speed>
  <fix>3d</fix>
</trkpt>
<trkpt lat="-26.971699" lon="149.6128087">
  <ele>339.29</ele>
  <time>2026-09-01T19:56:55Z</time>
  <course>4.68</course>
  <speed>4.94</speed>
  <fix>3d</fix>
</trkpt>
<trkpt lat="-27.2740585" lon="151.2900819">
  <ele>-0.01</ele>
  <time>2026-09-01T19:56:55Z</time>
  <course>4.93</course>
  <speed>4.99684900712439</speed>
  <fix>3d</fix>
</trkpt>
<trkpt lat="-27.2740676" lon="151.2900811">
  <ele>343.1</ele>
  <time>2026-09-01T19:56:55Z</time>
  <course>4.74</course>
  <speed>4.99</speed>
  <fix>3d</fix>
</trkpt>
<trkpt lat="-27.2740547" lon="151.2900825">
  <ele>343.0</ele>
  <time>2026-09-01T19:56:55Z</time>
  <course>4.9</course>
  <speed>4.997679461510112</speed>
  <fix>3d</fix>
</trkpt>
<trkpt lat="-27.274054" lon="151.2900823">
  <ele>0.02</ele>
  <time>2026-09-01T19:56:55Z</time>
  <course>6.0</course>
  <speed>4.99684900712439</speed>
  <fix>3d</fix>
</trkpt>
<trkpt lat="-27.2740676" lon="151.2900811">
  <ele>343.1</ele>
  <time>2026-09-01T19:56:55Z</time>
  <course>4.74</course>
  <speed>4.99</speed>
  <fix>3d</fix>
</trkpt>
<trkpt lat="-27.2740496" lon="151.2900828">
  <ele>-0.08</ele>
  <time>2026-09-01T19:56:55Z</time>
  <course>6.98</course>
  <speed>4.997679461510112</speed>
  <fix>3d</fix>
</trkpt>
<trkpt lat="-27.2740587" lon="151.290082">
  <ele>343.1</ele>
  <time>2026-09-01T19:56:55Z</time>
  <course>4.85</course>
  <speed>4.99</speed>
  <fix>3d</fix>
</trkpt>
<trkpt lat="-27.2740458" lon="151.2900834">
  <ele>343.0</ele>
  <time>2026-09-01T19:56:55Z</time>
  <course>5.02</course>
  <speed>4.998529783846447</speed>
  <fix>3d</fix>
</trkpt>
<trkpt lat="-27.2740452" lon="151.2900832">
  <ele>0.22</ele>
  <time>2026-09-01T19:56:55Z</time>
  <course>7.86</course>
  <speed>4.997679461510112</speed>
  <fix>3d</fix>
</trkpt>
<trkpt lat="-27.2740587" lon="151.290082">
  <ele>343.1</ele>
  <time>2026-09-01T19:56:55Z</time>
  <course>4.85</course>
  <speed>4.99</speed>
  <fix>3d</fix>
</trkpt>
<trkpt lat="-27.2740407" lon="151.2900837">
  <ele>0.09</ele>
  <time>2026-09-01T19:56:55Z</time>
  <course>8.67</course>
  <speed>4.988566928487579</speed>
  <fix>3d</fix>
</trkpt>
<trkpt lat="-27.2740497" lon="151.2900829">
  <ele>343.1</ele>
  <time>2026-09-01T19:56:55Z</time>
  <course>4.97</course>
  <speed>4.99</speed>
  <fix>3d</fix>
</trkpt>
<trkpt lat="-27.2740369" lon="151.2900843">
  <ele>343.0</ele>
  <time>2026-09-01T19:56:55Z</time>
  <course>5.13</course>
  <speed>4.989438846203047</speed>
  <fix>3d</fix>
</trkpt>
<trkpt lat="-27.2740362" lon="151.2900842">
  <ele>0.08</ele>
  <time>2026-09-01T19:56:55Z</time>
  <course>9.4</course>
  <speed>4.988566928487579</speed>
  <fix>3d</fix>
</trkpt>
<trkpt lat="-27.2740497" lon="151.2900829">
  <ele>343.1</ele>
  <time>2026-09-01T19:56:55Z</time>
  <course>4.97</course>
  <speed>4.99</speed>
  <fix>3d</fix>
</trkpt>
<trkpt lat="-27.2740318" lon="151.2900847">
  <ele>0.09</ele>
  <time>2026-09-01T19:56:55Z</time>
  <course>10.06</course>
  <speed>4.989438846203047</speed>
  <fix>3d</fix>
</trkpt>
<trkpt lat="-27.2740408" lon="151.2900838">
  <ele>343.1</ele>
  <time>2026-09-01T19:56:55Z</time>
  <course>5.08</course>
  <speed>4.99</speed>
  <fix>3d</fix>
</trkpt>
<trkpt lat="-27.2740279" lon="151.2900852">
  <ele>343.0</ele>
  <time>2026-09-01T19:56:55Z</time>
  <course>5.25</course>
  <speed>4.99033065036777</speed>
  <fix>3d</fix>
</trkpt>
<trkpt lat="-27.2740273" lon="151.2900851">
  <ele>-0.05</ele>
  <time>2026-09-01T19:56:55Z</time>
  <course>10.66</course>
  <speed>4.989438846203047</speed>
  <fix>3d</fix>
</trkpt>
<trkpt lat="-27.2740408" lon="151.2900838">
  <ele>343.1</ele>
  <time>2026-09-01T19:56:55Z</time>
  <course>5.08</course>
  <speed>4.99</speed>
  <fix>3d</fix>
</trkpt>
<trkpt lat="-27.2740229" lon="151.2900856">
  <ele>343.06</ele>
  <time>2026-09-01T19:56:55Z</time>
  <course>11.19</course>
  <speed>4.99033065036777</speed>
  <fix>3d</fix>
</trkpt>
<trkpt lat="-27.2740318" lon="151.2900847">
  <ele>343.1</ele>
  <time>2026-09-01T19:56:55Z</time>
  <course>5.2</course>
  <speed>4.99</speed>
  <fix>3d</fix>
</trkpt>
<trkpt lat="-27.274019" lon="151.2900861">
  <ele>343.0</ele>
  <time>2026-09-01T19:56:55Z</time>
  <course>5.36</course>
  <speed>4.991242330322181</speed>
  <fix>3d</fix>
</trkpt>
<trkpt lat="-27.2740176" lon="151.2900861">
  <ele>343.18</ele>
  <time>2026-09-01T19:56:55Z</time>
  <course>11.69</course>
  <speed>4.991242330322181</speed>
  <fix>3d</fix>
</trkpt>
<trkpt lat="-27.2740229" lon="151.2900856">
  <ele>343.1</ele>
  <time>2026-09-01T19:56:55Z</time>
  <course>5.31</course>
  <speed>4.99</speed>
  <fix>3d</fix>
</trkpt>
<trkpt lat="-27.2740131" lon="151.2900866">
  <ele>342.91</ele>
  <time>2026-09-01T19:56:55Z</time>
  <course>12.15</course>
  <speed>4.991242330322181</speed>
  <fix>3d</fix>
</trkpt>
<trkpt lat="-27.2740229" lon="151.2900856">
  <ele>343.1</ele>
  <time>2026-09-01T19:56:55Z</time>
  <course>5.31</course>
  <speed>4.99</speed>
  <fix>3d</fix>
</trkpt>
<trkpt lat="-27.27401" lon="151.2900871">
  <ele>343.0</ele>
  <time>2026-09-01T19:56:55Z</time>
  <course>5.48</course>
  <speed>4.992173875177025</speed>
  <fix>3d</fix>
</trkpt>
<trkpt lat="-27.2740086" lon="151.290087">
  <ele>343.06</ele>
  <time>2026-09-01T19:56:55Z</time>
  <course>12.57</course>
  <speed>4.991242330322181</speed>
  <fix>3d</fix>
</trkpt>
<trkpt lat="-27.2740229" lon="151.2900856">
  <ele>343.1</ele>
  <time>2026-09-01T19:56:55Z</time>
  <course>5.31</course>
  <speed>4.99</speed>
  <fix>3d</fix>
</trkpt>
<trkpt lat="-27.2740051" lon="151.2900875">
  <ele>343.13</ele>
  <time>2026-09-01T19:56:55Z</time>
  <course>12.95</course>
  <speed>4.992173875177025</speed>
  <fix>3d</fix>
</trkpt>
<trkpt lat="-27.274014" lon="151.2900866">
  <ele>343.1</ele>
  <time>2026-09-01T19:56:55Z</time>
  <course>5.42</course>
  <speed>4.99</speed>
  <fix>3d</fix>
</trkpt>
<trkpt lat="-27.2740011" lon="151.290088">
  <ele>343.0</ele>
  <time>2026-09-01T19:56:55Z</time>
  <course>5.59</course>
  <speed>4.993125273813987</speed>
  <fix>3d</fix>
</trkpt>
<trkpt lat="-27.2740006" lon="151.290088">
  <ele>343.04</ele>
  <time>2026-09-01T19:56:55Z</time>
  <course>13.31</course>
  <speed>4.992173875177025</speed>
  <fix>3d</fix>
</trkpt>
<trkpt lat="-27.274014" lon="151.2900866">
  <ele>343.1</ele>
  <time>2026-09-01T19:56:55Z</time>
  <course>5.42</course>
  <speed>4.99</speed>
  <fix>3d</fix>
</trkpt>
<trkpt lat="-27.2739961" lon="151.2900885">
  <ele>342.88</ele>
  <time>2026-09-01T19:56:55Z</time>
  <course>13.63</course>
  <speed>4.993125273813987</speed>
  <fix>3d</fix>
</trkpt>
<trkpt lat="-27.274005" lon="151.2900876">
  <ele>343.1</ele>
  <time>2026-09-01T19:56:55Z</time>
  <course>5.54</course>
  <speed>4.99</speed>
  <fix>3d</fix>
</trkpt>
<trkpt lat="-27.2739921" lon="151.290089">
  <ele>343.0</ele>
  <time>2026-09-01T19:56:55Z</time>
  <course>5.71</course>
  <speed>4.994096514886351</speed>
  <fix>3d</fix>
</trkpt>
<trkpt lat="-27.2739916" lon="151.290089">
  <ele>343.02</ele>
  <time>2026-09-01T19:56:55Z</time>
  <course>13.93</course>
  <speed>4.993125273813987</speed>
  <fix>3d</fix>
</trkpt>
<trkpt lat="-27.274005" lon="151.2900876">
  <ele>343.1</ele>
  <time>2026-09-01T19:56:55Z</time>
  <course>5.54</course>
  <speed>4.99</speed>
  <fix>3d</fix>
</trkpt>
<trkpt lat="-27.2739869" lon="151.2900896">
  <ele>343.23</ele>
  <time>2026-09-01T19:56:55Z</time>
  <course>14.22</course>
  <speed>4.994096514886351</speed>
  <fix>3d</fix>
</trkpt>
<trkpt lat="-27.273996" lon="151.2900886">
  <ele>343.1</ele>
  <time>2026-09-01T19:56:55Z</time>
  <course>5.65</course>
  <speed>4.99</speed>
  <fix>3d</fix>
</trkpt>
<trkpt lat="-27.2739832" lon="151.29009">
  <ele>343.0</ele>
  <time>2026-09-01T19:56:55Z</time>
  <course>5.82</course>
  <speed>4.9950875868196745</speed>
  <fix>3d</fix>
</trkpt>
<trkpt lat="-27.2739825" lon="151.2900901">
  <ele>343.17</ele>
  <time>2026-09-01T19:56:55Z</time>
  <course>14.47</course>
  <speed>4.994096514886351</speed>
  <fix>3d</fix>
</trkpt>
<trkpt lat="-27.273996" lon="151.2900886">
  <ele>343.1</ele>
  <time>2026-09-01T19:56:55Z</time>
  <course>5.65</course>
  <speed>4.99</speed>
  <fix>3d</fix>
</trkpt>
<trkpt lat="-27.273978" lon="151.2900905">
  <ele>343.04</ele>
  <time>2026-09-01T19:56:55Z</time>
  <course>14.71</course>
  <speed>4.9950875868196745</speed>
  <fix>3d</fix>
</trkpt>
<trkpt lat="-27.2739871" lon="151.2900895">
  <ele>343.1</ele>
  <time>2026-09-01T19:56:55Z</time>
  <course>5.77</course>
  <speed>4.99</speed>
  <fix>3d</fix>
</trkpt>
<trkpt lat="-27.2739743" lon="151.2900911">
  <ele>343.0</ele>
  <time>2026-09-01T19:56:55Z</time>
  <course>5.94</course>
  <speed>4.9960984778124615</speed>
  <fix>3d</fix>
</trkpt>
<trkpt lat="-27.2739736" lon="151.290091">
  <ele>342.89</ele>
  <time>2026-09-01T19:56:55Z</time>
  <course>14.93</course>
  <speed>4.9950875868196745</speed>
  <fix>3d</fix>
</trkpt>
<trkpt lat="-27.2739871" lon="151.2900895">
  <ele>343.1</ele>
  <time>2026-09-01T19:56:55Z</time>
  <course>5.77</course>
  <speed>4.99</speed>
  <fix>3d</fix>
</trkpt>
<trkpt lat="-27.2739691" lon="151.2900915">
  <ele>343.08</ele>
  <time>2026-09-01T19:56:55Z</time>
  <course>15.13</course>
  <speed>4.9960984778124615</speed>
  <fix>3d</fix>
</trkpt>
<trkpt lat="-27.2739782" lon="151.2900905">
  <ele>343.1</ele>
  <time>2026-09-01T19:56:55Z</time>
  <course>5.88</course>
  <speed>4.99</speed>
  <fix>3d</fix>
</trkpt>
<trkpt lat="-27.2739653" lon="151.2900921">
  <ele>343.0</ele>
  <time>2026-09-01T19:56:55Z</time>
  <course>6.05</course>
  <speed>4.997129175836863</speed>
  <fix>3d</fix>
</trkpt>
<trkpt lat="-27.2739647" lon="151.290092">
  <ele>343.19</ele>
  <time>2026-09-01T19:56:55Z</time>
  <course>15.33</course>
  <speed>4.9960984778124615</speed>
  <fix>3d</fix>
</trkpt>
<trkpt lat="-27.2739782" lon="151.2900905">
  <ele>343.1</ele>
  <time>2026-09-01T19:56:55Z</time>
  <course>5.88</course>
  <speed>4.99</speed>
  <fix>3d</fix>
</trkpt>
<trkpt lat="-27.2739602" lon="151.2900926">
  <ele>342.88</ele>
  <time>2026-09-01T19:56:55Z</time>
  <course>15.51</course>
  <speed>4.997129175836863</speed>
  <fix>3d</fix>
</trkpt>
<trkpt lat="-27.2739693" lon="151.2900916">
  <ele>343.1</ele>
  <time>2026-09-01T19:56:55Z</time>
  <course>6.0</course>
  <speed>4.99</speed>
  <fix>3d</fix>
</trkpt>
<trkpt lat="-27.2739564" lon="151.2900932">
  <ele>343.0</ele>
  <time>2026-09-01T19:56:55Z</time>
  <course>6.16</course>
  <speed>4.998179668639374</speed>
  <fix>3d</fix>
</trkpt>
<trkpt lat="-27.2739558" lon="151.2900932">
  <ele>343.17</ele>
  <time>2026-09-01T19:56:55Z</time>
  <course>15.67</course>
  <speed>4.997129175836863</speed>
  <fix>3d</fix>
</trkpt>
<trkpt lat="-27.2739693" lon="151.2900916">
  <ele>343.1</ele>
  <time>2026-09-01T19:56:55Z</time>
  <course>6.0</course>
  <speed>4.99</speed>
  <fix>3d</fix>
</trkpt>
<trkpt lat="-27.2739513" lon="151.2900937">
  <ele>342.89</ele>
  <time>2026-09-01T19:56:55Z</time>
  <course>15.83</course>
  <speed>4.998179668639374</speed>
  <fix>3d</fix>
</trkpt>
<trkpt lat="-27.2739603" lon="151.2900927">
  <ele>343.1</ele>
  <time>2026-09-01T19:56:55Z</time>
  <course>6.11</course>
  <speed>4.99</speed>
  <fix>3d</fix>
</trkpt>
<trkpt lat="-27.2739475" lon="151.2900943">
  <ele>343.0</ele>
  <time>2026-09-01T19:56:55Z</time>
  <course>6.28</course>
  <speed>4.989308569331025</speed>
  <fix>3d</fix>
</trkpt>
<trkpt lat="-27.2739468" lon="151.2900943">
  <ele>342.99</ele>
  <time>2026-09-01T19:56:55Z</time>
  <course>15.98</course>
  <speed>4.998179668639374</speed>
  <fix>3d</fix>
</trkpt>
<trkpt lat="-27.2739603" lon="151.2900927">
  <ele>343.1</ele>
  <time>2026-09-01T19:56:55Z</time>
  <course>6.11</course>
  <speed>4.99</speed>
  <fix>3d</fix>
</trkpt>
<trkpt lat="-27.2739424" lon="151.2900948">
  <ele>342.87</ele>
  <time>2026-09-01T19:56:55Z</time>
  <course>16.12</course>
  <speed>4.989308569331025</speed>
  <fix>3d</fix>
</trkpt>
<trkpt lat="-27.2739514" lon="151.2900937">
  <ele>343.1</ele>
  <time>2026-09-01T19:56:55Z</time>
  <course>6.23</course>
  <speed>4.99</speed>
  <fix>3d</fix>
</trkpt>
<trkpt lat="-27.2739385" lon="151.2900954">
  <ele>343.0</ele>
  <time>2026-09-01T19:56:55Z</time>
  <course>6.39</course>
  <speed>4.990400785508114</speed>
  <fix>3d</fix>
</trkpt>
<trkpt lat="-27.2739379" lon="151.2900953">
  <ele>343.09</ele>
  <time>2026-09-01T19:56:55Z</time>
  <course>16.25</course>
  <speed>4.989308569331025</speed>
  <fix>3d</fix>
</trkpt>
<trkpt lat="-27.2739514" lon="151.2900937">
  <ele>343.1</ele>
  <time>2026-09-01T19:56:55Z</time>
  <course>6.23</course>
  <speed>4.99</speed>
  <fix>3d</fix>
</trkpt>
<trkpt lat="-27.2739335" lon="151.2900959">
  <ele>343.18</ele>
  <time>2026-09-01T19:56:55Z</time>
  <course>16.38</course>
  <speed>4.990400785508114</speed>
  <fix>3d</fix>
</trkpt>
<trkpt lat="-27.2739425" lon="151.2900948">
  <ele>343.1</ele>
  <time>2026-09-01T19:56:55Z</time>
  <course>6.34</course>
  <speed>4.99</speed>
  <fix>3d</fix>
</trkpt>
<trkpt lat="-27.2739296" lon="151.2900966">
  <ele>343.0</ele>
  <time>2026-09-01T19:56:55Z</time>
  <course>6.51</course>
  <speed>4.991512796738079</speed>
  <fix>3d</fix>
</trkpt>
<trkpt lat="-27.273929" lon="151.2900964">
  <ele>343.05</ele>
  <time>2026-09-01T19:56:55Z</time>
  <course>16.5</course>
  <speed>4.990400785508114</speed>
  <fix>3d</fix>
</trkpt>
<trkpt lat="-27.2739425" lon="151.2900948">
  <ele>343.1</ele>
  <time>2026-09-01T19:56:55Z</time>
  <course>6.34</course>
  <speed>4.99</speed>
  <fix>3d</fix>
</trkpt>
<trkpt lat="-27.2739246" lon="151.2900971">
  <ele>342.96</ele>
  <time>2026-09-01T19:56:55Z</time>
  <course>16.62</course>
  <speed>4.991512796738079</speed>
  <fix>3d</fix>
</trkpt>
<trkpt lat="-27.2739336" lon="151.290096">
  <ele>343.1</ele>
  <time>2026-09-01T19:56:55Z</time>
  <course>6.46</course>
  <speed>4.99</speed>
  <fix>3d</fix>
</trkpt>
<trkpt lat="-27.2739207" lon="151.2900977">
  <ele>343.0</ele>
  <time>2026-09-01T19:56:55Z</time>
  <course>6.62</course>
  <speed>4.992644589794071</speed>
  <fix>3d</fix>
</trkpt>
<trkpt lat="-27.2739201" lon="151.2900977">
  <ele>343.1</ele>
  <time>2026-09-01T19:56:55Z</time>
  <course>16.72</course>
  <speed>4.991512796738079</speed>
  <fix>3d</fix>
</trkpt>
<trkpt lat="-27.2739336" lon="151.290096">
  <ele>343.1</ele>
  <time>2026-09-01T19:56:55Z</time>
  <course>6.46</course>
  <speed>4.99</speed>
  <fix>3d</fix>
</trkpt>
<trkpt lat="-27.2739156" lon="151.2900982">
  <ele>343.22</ele>
  <time>2026-09-01T19:56:55Z</time>
  <course>16.83</course>
  <speed>4.992644589794071</speed>
  <fix>3d</fix>
</trkpt>
<trkpt lat="-27.2739246" lon="151.2900971">
  <ele>343.1</ele>
  <time>2026-09-01T19:56:55Z</time>
  <course>6.57</course>
  <speed>4.99</speed>
  <fix>3d</fix>
</trkpt>
<trkpt lat="-27.2739117" lon="151.2900989">
  <ele>343.0</ele>
  <time>2026-09-01T19:56:55Z</time>
  <course>6.74</course>
  <speed>4.993796151226039</speed>
  <fix>3d</fix>
</trkpt>
<trkpt lat="-27.2739111" lon="151.2900988">
  <ele>343.17</ele>
  <time>2026-09-01T19:56:55Z</time>
  <course>16.93</course>
  <speed>4.992644589794071</speed>
  <fix>3d</fix>
</trkpt>
<trkpt lat="-27.2739246" lon="151.2900971">
  <ele>343.1</ele>
  <time>2026-09-01T19:56:55Z</time>
  <course>6.57</course>
  <speed>4.99</speed>
  <fix>3d</fix>
</trkpt>
<trkpt lat="-27.2739067" lon="151.2900994">
  <ele>343.08</ele>
  <time>2026-09-01T19:56:55Z</time>
  <course>17.02</course>
  <speed>4.993796151226039</speed>
  <fix>3d</fix>
</trkpt>
<trkpt lat="-27.2739157" lon="151.2900983">
  <ele>343.1</ele>
  <time>2026-09-01T19:56:55Z</time>
  <course>6.68</course>
  <speed>4.99</speed>
  <fix>3d</fix>
</trkpt>
<trkpt lat="-27.2739028" lon="151.2901001">
  <ele>343.0</ele>
  <time>2026-09-01T19:56:55Z</time>
  <course>6.85</course>
  <speed>4.9949674673615245</speed>
  <fix>3d</fix>
</trkpt>
<trkpt lat="-27.2739022" lon="151.2901">
  <ele>343.04</ele>
  <time>2026-09-01T19:56:55Z</time>
  <course>17.11</course>
  <speed>4.993796151226039</speed>
  <fix>3d</fix>
</trkpt>
<trkpt lat="-27.2739157" lon="151.2900983">
  <ele>343.1</ele>
  <time>2026-09-01T19:56:55Z</time>
  <course>6.68</course>
  <speed>4.99</speed>
  <fix>3d</fix>
</trkpt>
<trkpt lat="-27.2738978" lon="151.2901007">
  <ele>343.18</ele>
  <time>2026-09-01T19:56:55Z</time>
  <course>17.2</course>
  <speed>4.9949674673615245</speed>
  <fix>3d</fix>
</trkpt>
<trkpt lat="-27.2739068" lon="151.2900995">
  <ele>343.1</ele>
  <time>2026-09-01T19:56:55Z</time>
  <course>6.8</course>
  <speed>4.99</speed>
  <fix>3d</fix>
</trkpt>
<trkpt lat="-27.2738939" lon="151.2901013">
  <ele>343.0</ele>
  <time>2026-09-01T19:56:55Z</time>
  <course>6.97</course>
  <speed>4.996158524306449</speed>
  <fix>3d</fix>
</trkpt>
<trkpt lat="-27.2738933" lon="151.2901013">
  <ele>343.12</ele>
  <time>2026-09-01T19:56:55Z</time>
  <course>17.28</course>
  <speed>4.9949674673615245</speed>
  <fix>3d</fix>
</trkpt>
<trkpt lat="-27.2739068" lon="151.2900995">
  <ele>343.1</ele>
  <time>2026-09-01T19:56:55Z</time>
  <course>6.8</course>
  <speed>4.99</speed>
  <fix>3d</fix>
</trkpt>
<trkpt lat="-27.2738888" lon="151.2901018">
  <ele>343.04</ele>
  <time>2026-09-01T19:56:55Z</time>
  <course>17.36</course>
  <speed>4.996158524306449</speed>
  <fix>3d</fix>
</trkpt>
<trkpt lat="-27.2738978" lon="151.2901006">
  <ele>343.1</ele>
  <time>2026-09-01T19:56:55Z</time>
  <course>6.91</course>
  <speed>4.99</speed>
  <fix>3d</fix>
</trkpt>
<trkpt lat="-27.273885" lon="151.2901025">
  <ele>343.0</ele>
  <time>2026-09-01T19:56:55Z</time>
  <course>7.08</course>
  <speed>4.997369307945932</speed>
  <fix>3d</fix>
</trkpt>
<trkpt lat="-27.2738843" lon="151.2901024">
  <ele>343.07</ele>
  <time>2026-09-01T19:56:55Z</time>
  <course>17.44</course>
  <speed>4.996158524306449</speed>
  <fix>3d</fix>
</trkpt>
<trkpt lat="-27.2738978" lon="151.2901006">
  <ele>343.1</ele>
  <time>2026-09-01T19:56:55Z</time>
  <course>6.91</course>
  <speed>4.99</speed>
  <fix>3d</fix>
</trkpt>
<trkpt lat="-27.2738799" lon="151.2901031">
  <ele>343.04</ele>
  <time>2026-09-01T19:56:55Z</time>
  <course>17.52</course>
  <speed>4.997369307945932</speed>
  <fix>3d</fix>
</trkpt>
<trkpt lat="-27.2738889" lon="151.2901019">
  <ele>343.1</ele>
  <time>2026-09-01T19:56:55Z</time>
  <course>7.03</course>
  <speed>4.99</speed>
  <fix>3d</fix>
</trkpt>
<trkpt lat="-27.2738761" lon="151.2901038">
  <ele>343.0</ele>
  <time>2026-09-01T19:56:55Z</time>
  <course>7.2</course>
  <speed>4.998599803945101</speed>
  <fix>3d</fix>
</trkpt>
<trkpt lat="-27.2738754" lon="151.2901037">
  <ele>343.01</ele>
  <time>2026-09-01T19:56:55Z</time>
  <course>17.6</course>
  <speed>4.997369307945932</speed>
  <fix>3d</fix>
</trkpt>
<trkpt lat="-27.2738889" lon="151.2901019">
  <ele>343.1</ele>
  <time>2026-09-01T19:56:55Z</time>
  <course>7.03</course>
  <speed>4.99</speed>
  <fix>3d</fix>
</trkpt>
<trkpt lat="-27.273871" lon="151.2901043">
  <ele>343.2</ele>
  <time>2026-09-01T19:56:55Z</time>
  <course>17.67</course>
  <speed>4.988677179373306</speed>
  <fix>3d</fix>
</trkpt>
<trkpt lat="-27.27388" lon="151.2901031">
  <ele>343.1</ele>
  <time>2026-09-01T19:56:55Z</time>
  <course>7.14</course>
  <speed>4.99</speed>
  <fix>3d</fix>
</trkpt>
<trkpt lat="-27.2738672" lon="151.2901051">
  <ele>343.0</ele>
  <time>2026-09-01T19:56:55Z</time>
  <course>7.31</course>
  <speed>4.98992985922648</speed>
  <fix>3d</fix>
</trkpt>
<trkpt lat="-27.2738665" lon="151.290105">
  <ele>343.24</ele>
  <time>2026-09-01T19:56:55Z</time>
  <course>17.74</course>
  <speed>4.988677179373306</speed>
  <fix>3d</fix>
</trkpt>
<trkpt lat="-27.27388" lon="151.2901031">
  <ele>343.1</ele>
  <time>2026-09-01T19:56:55Z</time>
  <course>7.14</course>
  <speed>4.99</speed>
  <fix>3d</fix>
</trkpt>
<trkpt lat="-27.2738621" lon="151.2901057">
  <ele>342.88</ele>
  <time>2026-09-01T19:56:55Z</time>
  <course>17.81</course>
  <speed>4.98992985922648</speed>
  <fix>3d</fix>
</trkpt>
<trkpt lat="-27.2738711" lon="151.2901044">
  <ele>343.1</ele>
  <time>2026-09-01T19:56:55Z</time>
  <course>7.26</course>
  <speed>4.99</speed>
  <fix>3d</fix>
</trkpt>
<trkpt lat="-27.2738583" lon="151.2901064">
  <ele>343.0</ele>
  <time>2026-09-01T19:56:55Z</time>
  <course>7.42</course>
  <speed>4.991202259977049</speed>
  <fix>3d</fix>
</trkpt>
<trkpt lat="-27.2738577" lon="151.2901063">
  <ele>343.21</ele>
  <time>2026-09-01T19:56:55Z</time>
  <course>17.88</course>
  <speed>4.98992985922648</speed>
  <fix>3d</fix>
</trkpt>
<trkpt lat="-27.2738711" lon="151.2901044">
  <ele>343.1</ele>
  <time>2026-09-01T19:56:55Z</time>
  <course>7.26</course>
  <speed>4.99</speed>
  <fix>3d</fix>
</trkpt>
<trkpt lat="-27.2738532" lon="151.290107">
  <ele>343.02</ele>
  <time>2026-09-01T19:56:55Z</time>
  <course>17.95</course>
  <speed>4.991202259977049</speed>
  <fix>3d</fix>
</trkpt>
<trkpt lat="-27.2738622" lon="151.2901057">
  <ele>343.1</ele>
  <time>2026-09-01T19:56:55Z</time>
  <course>7.37</course>
  <speed>4.99</speed>
  <fix>3d</fix>
</trkpt>
<trkpt lat="-27.2738494" lon="151.2901077">
  <ele>343.0</ele>
  <time>2026-09-01T19:56:55Z</time>
  <course>7.54</course>
  <speed>4.992494366546646</speed>
  <fix>3d</fix>
</trkpt>
<trkpt lat="-27.2738488" lon="151.2901076">
  <ele>342.93</ele>
  <time>2026-09-01T19:56:55Z</time>
  <course>18.02</course>
  <speed>4.991202259977049</speed>
  <fix>3d</fix>
</trkpt>
<trkpt lat="-27.2738622" lon="151.2901057">
  <ele>343.1</ele>
  <time>2026-09-01T19:56:55Z</time>
  <course>7.37</course>
  <speed>4.99</speed>
  <fix>3d</fix>
</trkpt>
<trkpt lat="-27.2738443" lon="151.2901083">
  <ele>343.07</ele>
  <time>2026-09-01T19:56:56Z</time>
  <course>18.08</course>
  <speed>4.992494366546646</speed>
  <fix>3d</fix>
</trkpt>
<trkpt lat="-27.2738533" lon="151.290107">
  <ele>343.1</ele>
  <time>2026-09-01T19:56:56Z</time>
  <course>7.49</course>
  <speed>4.99</speed>
  <fix>3d</fix>
</trkpt>
<trkpt lat="-27.2738405" lon="151.290109">
  <ele>343.0</ele>
  <time>2026-09-01T19:56:56Z</time>
  <course>7.65</course>
  <speed>4.993806163639114</speed>
  <fix>3d</fix>
</trkpt>
<trkpt lat="-27.2738399" lon="151.2901089">
  <ele>342.94</ele>
  <time>2026-09-01T19:56:56Z</time>
  <course>18.15</course>
  <speed>4.992494366546646</speed>
  <fix>3d</fix>
</trkpt>
<trkpt lat="-27.2738533" lon="151.290107">
  <ele>343.1</ele>
  <time>2026-09-01T19:56:56Z</time>
  <course>7.49</course>
  <speed>4.99</speed>
  <fix>3d</fix>
</trkpt>
<trkpt lat="-27.2738354" lon="151.2901097">
  <ele>343.11</ele>
  <time>2026-09-01T19:56:56Z</time>
  <course>18.21</course>
  <speed>4.993806163639114</speed>
  <fix>3d</fix>
</trkpt>
<trkpt lat="-27.2738444" lon="151.2901084">
  <ele>343.1</ele>
  <time>2026-09-01T19:56:56Z</time>
  <course>7.6</course>
  <speed>4.99</speed>
  <fix>3d</fix>
</trkpt>
<trkpt lat="-27.2738316" lon="151.2901104">
  <ele>343.0</ele>
  <time>2026-09-01T19:56:56Z</time>
  <course>7.77</course>
  <speed>4.995137635741382</speed>
  <fix>3d</fix>
</trkpt>
<trkpt lat="-27.273831" lon="151.2901104">
  <ele>343.24</ele>
  <time>2026-09-01T19:56:56Z</time>
  <course>18.28</course>
  <speed>4.993806163639114</speed>
  <fix>3d</fix>
</trkpt>
<trkpt lat="-27.2738444" lon="151.2901084">
  <ele>343.1</ele>
  <time>2026-09-01T19:56:56Z</time>
  <course>7.6</course>
  <speed>4.99</speed>
  <fix>3d</fix>
</trkpt>
<trkpt lat="-27.2738265" lon="151.290111">
  <ele>343.18</ele>
  <time>2026-09-01T19:56:56Z</time>
  <course>18.34</course>
  <speed>4.995137635741382</speed>
  <fix>3d</fix>
</trkpt>
<trkpt lat="-27.2738355" lon="151.2901097">
  <ele>343.1</ele>
  <time>2026-09-01T19:56:56Z</time>
  <course>7.72</course>
  <speed>4.99</speed>
  <fix>3d</fix>
</trkpt>
<trkpt lat="-27.2738227" lon="151.2901118">
  <ele>343.0</ele>
  <time>2026-09-01T19:56:56Z</time>
  <course>7.88</course>
  <speed>4.99648876712437</speed>
  <fix>3d</fix>
</trkpt>
<trkpt lat="-27.2738221" lon="151.2901117">
  <ele>342.89</ele>
  <time>2026-09-01T19:56:56Z</time>
  <course>18.4</course>
  <speed>4.995137635741382</speed>
  <fix>3d</fix>
</trkpt>
<trkpt lat="-27.2738355" lon="151.2901097">
  <ele>343.1</ele>
  <time>2026-09-01T19:56:56Z</time>
  <course>7.72</course>
  <speed>4.99</speed>
  <fix>3d</fix>
</trkpt>
<trkpt lat="-27.2738176" lon="151.2901124">
  <ele>343.23</ele>
  <time>2026-09-01T19:56:56Z</time>
  <course>18.46</course>
  <speed>4.99648876712437</speed>
  <fix>3d</fix>
</trkpt>
<trkpt lat="-27.2738266" lon="151.2901111">
  <ele>343.1</ele>
  <time>2026-09-01T19:56:56Z</time>
  <course>7.83</course>
  <speed>4.99</speed>
  <fix>3d</fix>
</trkpt>
<trkpt lat="-27.2738138" lon="151.2901132">
  <ele>343.0</ele>
  <time>2026-09-01T19:56:56Z</time>
  <course>8.0</course>
  <speed>4.997859541843888</speed>
  <fix>3d</fix>
</trkpt>
<trkpt lat="-27.2738132" lon="151.2901131">
  <ele>343.23</ele>
  <time>2026-09-01T19:56:56Z</time>
  <course>18.52</course>
  <speed>4.99648876712437</speed>
  <fix>3d</fix>
</trkpt>
<trkpt lat="-27.2738266" lon="151.2901111">
  <ele>343.1</ele>
  <time>2026-09-01T19:56:56Z</time>
  <course>7.83</course>
  <speed>4.99</speed>
  <fix>3d</fix>
</trkpt>
<trkpt lat="-27.2738087" lon="151.2901139">
  <ele>342.99</ele>
  <time>2026-09-01T19:56:56Z</time>
  <course>18.58</course>
  <speed>4.997859541843888</speed>
  <fix>3d</fix>
</trkpt>
<trkpt lat="-27.2738177" lon="151.2901125">
  <ele>343.1</ele>
  <time>2026-09-01T19:56:56Z</time>
  <course>7.95</course>
  <speed>4.99</speed>
  <fix>3d</fix>
</trkpt>
<trkpt lat="-27.2738049" lon="151.2901146">
  <ele>343.0</ele>
  <time>2026-09-01T19:56:56Z</time>
  <course>8.11</course>
  <speed>4.989348654884723</speed>
  <fix>3d</fix>
</trkpt>
<trkpt lat="-27.2738043" lon="151.2901146">
  <ele>343.13</ele>
  <time>2026-09-01T19:56:56Z</time>
  <course>18.64</course>
  <speed>4.997859541843888</speed>
  <fix>3d</fix>
</trkpt>
<trkpt lat="-27.2738177" lon="151.2901125">
  <ele>343.1</ele>
  <time>2026-09-01T19:56:56Z</time>
  <course>7.95</course>
  <speed>4.99</speed>
  <fix>3d</fix>
</trkpt>
<trkpt lat="-27.2737998" lon="151.2901153">
  <ele>343.07</ele>
  <time>2026-09-01T19:56:56Z</time>
  <course>18.7</course>
  <speed>4.989348654884723</speed>
  <fix>3d</fix>
</trkpt>
<trkpt lat="-27.2738088" lon="151.2901139">
  <ele>343.1</ele>
  <time>2026-09-01T19:56:56Z</time>
  <course>8.06</course>
  <speed>4.99</speed>
  <fix>3d</fix>
</trkpt>
<trkpt lat="-27.273796" lon="151.290116">
  <ele>343.0</ele>
  <time>2026-09-01T19:56:56Z</time>
  <course>8.23</course>
  <speed>4.990761464947008</speed>
  <fix>3d</fix>
</trkpt>
<trkpt lat="-27.2737954" lon="151.290116">
  <ele>343.19</ele>
  <time>2026-09-01T19:56:56Z</time>
  <course>18.75</course>
  <speed>4.989348654884723</speed>
  <fix>3d</fix>
</trkpt>
<trkpt lat="-27.2738088" lon="151.2901139">
  <ele>343.1</ele>
  <time>2026-09-01T19:56:56Z</time>
  <course>8.06</course>
  <speed>4.99</speed>
  <fix>3d</fix>
</trkpt>
<trkpt lat="-27.2737909" lon="151.2901167">
  <ele>342.93</ele>
  <time>2026-09-01T19:56:56Z</time>
  <course>18.81</course>
  <speed>4.990761464947008</speed>
  <fix>3d</fix>
</trkpt>
<trkpt lat="-27.2737999" lon="151.2901153">
  <ele>343.1</ele>
  <time>2026-09-01T19:56:56Z</time>
  <course>8.17</course>
  <speed>4.99</speed>
  <fix>3d</fix>
</trkpt>
<trkpt lat="-27.2737871" lon="151.2901175">
  <ele>343.0</ele>
  <time>2026-09-01T19:56:56Z</time>
  <course>8.34</course>
  <speed>4.992193906490412</speed>
  <fix>3d</fix>
</trkpt>
<trkpt lat="-27.2737865" lon="151.2901174">
  <ele>343.19</ele>
  <time>2026-09-01T19:56:56Z</time>
  <course>18.87</course>
  <speed>4.990761464947008</speed>
  <fix>3d</fix>
</trkpt>
<trkpt lat="-27.2737999" lon="151.2901153">
  <ele>343.1</ele>
  <time>2026-09-01T19:56:56Z</time>
  <course>8.17</course>
  <speed>4.99</speed>
  <fix>3d</fix>
</trkpt>
<trkpt lat="-27.273782" lon="151.2901182">
  <ele>343.1</ele>
  <time>2026-09-01T19:56:56Z</time>
  <course>18.93</course>
  <speed>4.992193906490412</speed>
  <fix>3d</fix>
</trkpt>
<trkpt lat="-27.273791" lon="151.2901168">
  <ele>343.1</ele>
  <time>2026-09-01T19:56:56Z</time>
  <course>8.29</course>
  <speed>4.99</speed>
  <fix>3d</fix>
</trkpt>
<trkpt lat="-27.2737782" lon="151.290119">
  <ele>343.0</ele>
  <time>2026-09-01T19:56:56Z</time>
  <course>8.46</course>
  <speed>4.993645962620898</speed>
  <fix>3d</fix>
</trkpt>
<trkpt lat="-27.2737775" lon="151.290119">
  <ele>343.01</ele>
  <time>2026-09-01T19:56:56Z</time>
  <course>18.99</course>
  <speed>4.992193906490412</speed>
  <fix>3d</fix>
</trkpt>
<trkpt lat="-27.273791" lon="151.2901168">
  <ele>343.1</ele>
  <time>2026-09-01T19:56:56Z</time>
  <course>8.29</course>
  <speed>4.99</speed>
  <fix>3d</fix>
</trkpt>
<trkpt lat="-27.2737732" lon="151.2901197">
  <ele>343.11</ele>
  <time>2026-09-01T19:56:56Z</time>
  <course>19.04</course>
  <speed>4.993645962620898</speed>
  <fix>3d</fix>
</trkpt>
<trkpt lat="-27.2737822" lon="151.2901182">
  <ele>343.1</ele>
  <time>2026-09-01T19:56:56Z</time>
  <course>8.4</course>
  <speed>4.99</speed>
  <fix>3d</fix>
</trkpt>
<trkpt lat="-27.2737693" lon="151.2901204">
  <ele>343.0</ele>
  <time>2026-09-01T19:56:56Z</time>
  <course>8.57</course>
  <speed>4.995117616232875</speed>
  <fix>3d</fix>
</trkpt>
<trkpt lat="-27.2737687" lon="151.2901204">
  <ele>342.96</ele>
  <time>2026-09-01T19:56:56Z</time>
  <course>19.1</course>
  <speed>4.993645962620898</speed>
  <fix>3d</fix>
</trkpt>
<trkpt lat="-27.2737822" lon="151.2901182">
  <ele>343.1</ele>
  <time>2026-09-01T19:56:56Z</time>
  <course>8.4</course>
  <speed>4.99</speed>
  <fix>3d</fix>
</trkpt>
<trkpt lat="-27.2737643" lon="151.2901212">
  <ele>343.19</ele>
  <time>2026-09-01T19:56:56Z</time>
  <course>19.16</course>
  <speed>4.995117616232875</speed>
  <fix>3d</fix>
</trkpt>
<trkpt lat="-27.2737733" lon="151.2901197">
  <ele>343.1</ele>
  <time>2026-09-01T19:56:56Z</time>
  <course>8.52</course>
  <speed>4.99</speed>
  <fix>3d</fix>
</trkpt>
<trkpt lat="-27.2737604" lon="151.290122">
  <ele>343.0</ele>
  <time>2026-09-01T19:56:56Z</time>
  <course>8.68</course>
  <speed>4.996608850010174</speed>
  <fix>3d</fix>
</trkpt>
<trkpt lat="-27.2737599" lon="151.2901219">
  <ele>343.0</ele>
  <time>2026-09-01T19:56:56Z</time>
  <course>19.21</course>
  <speed>4.995117616232875</speed>
  <fix>3d</fix>
</trkpt>
<trkpt lat="-27.2737733" lon="151.2901197">
  <ele>343.1</ele>
  <time>2026-09-01T19:56:56Z</time>
  <course>8.52</course>
  <speed>4.99</speed>
  <fix>3d</fix>
</trkpt>
<trkpt lat="-27.2737554" lon="151.2901227">
  <ele>343.2</ele>
  <time>2026-09-01T19:56:56Z</time>
  <course>19.27</course>
  <speed>4.996608850010174</speed>
  <fix>3d</fix>
</trkpt>
<trkpt lat="-27.2737644" lon="151.2901212">
  <ele>343.1</ele>
  <time>2026-09-01T19:56:56Z</time>
  <course>8.63</course>
  <speed>4.99</speed>
  <fix>3d</fix>
</trkpt>
<trkpt lat="-27.2737516" lon="151.2901235">
  <ele>343.0</ele>
  <time>2026-09-01T19:56:56Z</time>
  <course>8.8</course>
  <speed>4.998119646427044</speed>
  <fix>3d</fix>
</trkpt>
<trkpt lat="-27.273751" lon="151.2901234">
  <ele>343.2</ele>
  <time>2026-09-01T19:56:56Z</time>
  <course>19.33</course>
  <speed>4.996608850010174</speed>
  <fix>3d</fix>
</trkpt>
<trkpt lat="-27.2737644" lon="151.2901212">
  <ele>343.1</ele>
  <time>2026-09-01T19:56:56Z</time>
  <course>8.63</course>
  <speed>4.99</speed>
  <fix>3d</fix>
</trkpt>
<trkpt lat="-27.2737465" lon="151.2901242">
  <ele>343.13</ele>
  <time>2026-09-01T19:56:56Z</time>
  <course>19.39</course>
  <speed>4.998119646427044</speed>
  <fix>3d</fix>
</trkpt>
<trkpt lat="-27.2737555" lon="151.2901227">
  <ele>343.1</ele>
  <time>2026-09-01T19:56:56Z</time>
  <course>8.75</course>
  <speed>4.99</speed>
  <fix>3d</fix>
</trkpt>
<trkpt lat="-27.2737427" lon="151.2901251">
  <ele>343.0</ele>
  <time>2026-09-01T19:56:56Z</time>
  <course>8.91</course>
  <speed>4.989769533756043</speed>
  <fix>3d</fix>
</trkpt>
<trkpt lat="-27.2737421" lon="151.290125">
  <ele>343.1</ele>
  <time>2026-09-01T19:56:56Z</time>
  <course>19.44</course>
  <speed>4.998119646427044</speed>
  <fix>3d</fix>
</trkpt>
<trkpt lat="-27.2737555" lon="151.2901227">
  <ele>343.1</ele>
  <time>2026-09-01T19:56:56Z</time>
  <course>8.75</course>
  <speed>4.99</speed>
  <fix>3d</fix>
</trkpt>
<trkpt lat="-27.2737376" lon="151.2901258">
  <ele>343.12</ele>
  <time>2026-09-01T19:56:56Z</time>
  <course>19.5</course>
  <speed>4.989769533756043</speed>
  <fix>3d</fix>
</trkpt>
<trkpt lat="-27.2737466" lon="151.2901243">
  <ele>343.1</ele>
  <time>2026-09-01T19:56:56Z</time>
  <course>8.86</course>
  <speed>4.99</speed>
  <fix>3d</fix>
</trkpt>
<trkpt lat="-27.2737338" lon="151.2901266">
  <ele>343.0</ele>
  <time>2026-09-01T19:56:56Z</time>
  <course>9.03</course>
  <speed>4.991322470047392</speed>
  <fix>3d</fix>
</trkpt>
<trkpt lat="-27.2737332" lon="151.2901266">
  <ele>342.94</ele>
  <time>2026-09-01T19:56:56Z</time>
  <course>19.56</course>
  <speed>4.989769533756043</speed>
  <fix>3d</fix>
</trkpt>
<trkpt lat="-27.2737466" lon="151.2901243">
  <ele>343.1</ele>
  <time>2026-09-01T19:56:56Z</time>
  <course>8.86</course>
  <speed>4.99</speed>
  <fix>3d</fix>
</trkpt>
<trkpt lat="-27.2737288" lon="151.2901275">
  <ele>343.25</ele>
  <time>2026-09-01T19:56:56Z</time>
  <course>19.61</course>
  <speed>4.991322470047392</speed>
  <fix>3d</fix>
</trkpt>
<trkpt lat="-27.2737378" lon="151.2901259">
  <ele>343.1</ele>
  <time>2026-09-01T19:56:56Z</time>
  <course>8.98</course>
  <speed>4.99</speed>
  <fix>3d</fix>
</trkpt>
<trkpt lat="-27.2737249" lon="151.2901282">
  <ele>343.0</ele>
  <time>2026-09-01T19:56:56Z</time>
  <course>9.14</course>
  <speed>4.992894951829049</speed>
  <fix>3d</fix>
</trkpt>
<trkpt lat="-27.2737244" lon="151.2901282">
  <ele>342.93</ele>
  <time>2026-09-01T19:56:56Z</time>
  <course>19.67</course>
  <speed>4.991322470047392</speed>
  <fix>3d</fix>
</trkpt>
<trkpt lat="-27.2737378" lon="151.2901259">
  <ele>343.1</ele>
  <time>2026-09-01T19:56:56Z</time>
  <course>8.98</course>
  <speed>4.99</speed>
  <fix>3d</fix>
</trkpt>
<trkpt lat="-27.27372" lon="151.290129">
  <ele>343.08</ele>
  <time>2026-09-01T19:56:56Z</time>
  <course>19.72</course>
  <speed>4.992894951829049</speed>
  <fix>3d</fix>
</trkpt>
<trkpt lat="-27.2737289" lon="151.2901274">
  <ele>343.1</ele>
  <time>2026-09-01T19:56:56Z</time>
  <course>9.09</course>
  <speed>4.99</speed>
  <fix>3d</fix>
</trkpt>
<trkpt lat="-27.2737161" lon="151.2901299">
  <ele>343.0</ele>
  <time>2026-09-01T19:56:56Z</time>
  <course>9.26</course>
  <speed>4.994486960639701</speed>
  <fix>3d</fix>
</trkpt>
<trkpt lat="-27.2737155" lon="151.2901298">
  <ele>343.23</ele>
  <time>2026-09-01T19:56:56Z</time>
  <course>19.78</course>
  <speed>4.992894951829049</speed>
  <fix>3d</fix>
</trkpt>
<trkpt lat="-27.2737289" lon="151.2901274">
  <ele>343.1</ele>
  <time>2026-09-01T19:56:56Z</time>
  <course>9.09</course>
  <speed>4.99</speed>
  <fix>3d</fix>
</trkpt>
<trkpt lat="-27.2737111" lon="151.2901307">
  <ele>343.01</ele>
  <time>2026-09-01T19:56:56Z</time>
  <course>19.83</course>
  <speed>4.992894951829049</speed>
  <fix>3d</fix>
</trkpt>
<trkpt lat="-27.27372" lon="151.2901291">
  <ele>343.1</ele>
  <time>2026-09-01T19:56:56Z</time>
  <course>9.2</course>
  <speed>4.99</speed>
  <fix>3d</fix>
</trkpt>
<trkpt lat="-27.2737072" lon="151.2901315">
  <ele>343.0</ele>
  <time>2026-09-01T19:56:56Z</time>
  <course>9.37</course>
  <speed>4.9960984778124615</speed>
  <fix>3d</fix>
</trkpt>
<trkpt lat="-27.2737066" lon="151.2901315">
  <ele>343.1</ele>
  <time>2026-09-01T19:56:56Z</time>
  <course>19.89</course>
  <speed>4.992894951829049</speed>
  <fix>3d</fix>
</trkpt>
<trkpt lat="-27.27372" lon="151.2901291">
  <ele>343.1</ele>
  <time>2026-09-01T19:56:56Z</time>
  <course>9.2</course>
  <speed>4.99</speed>
  <fix>3d</fix>
</trkpt>
<trkpt lat="-27.2737023" lon="151.2901323">
  <ele>342.99</ele>
  <time>2026-09-01T19:56:56Z</time>
  <course>19.95</course>
  <speed>4.994486960639701</speed>
  <fix>3d</fix>
</trkpt>
<trkpt lat="-27.2737112" lon="151.2901307">
  <ele>343.1</ele>
  <time>2026-09-01T19:56:56Z</time>
  <course>9.32</course>
  <speed>4.99</speed>
  <fix>3d</fix>
</trkpt>
<trkpt lat="-27.2736983" lon="151.2901331">
  <ele>343.0</ele>
  <time>2026-09-01T19:56:56Z</time>
  <course>9.49</course>
  <speed>4.997729484475926</speed>
  <fix>3d</fix>
</trkpt>
<trkpt lat="-27.2736978" lon="151.2901331">
  <ele>342.87</ele>
  <time>2026-09-01T19:56:56Z</time>
  <course>20.0</course>
  <speed>4.994486960639701</speed>
  <fix>3d</fix>
</trkpt>
<trkpt lat="-27.2737112" lon="151.2901307">
  <ele>343.1</ele>
  <time>2026-09-01T19:56:56Z</time>
  <course>9.32</course>
  <speed>4.99</speed>
  <fix>3d</fix>
</trkpt>
<trkpt lat="-27.2736934" lon="151.2901339">
  <ele>343.1</ele>
  <time>2026-09-01T19:56:56Z</time>
  <course>20.06</course>
  <speed>4.9960984778124615</speed>
  <fix>3d</fix>
</trkpt>
<trkpt lat="-27.2737023" lon="151.2901323">
  <ele>343.1</ele>
  <time>2026-09-01T19:56:56Z</time>
  <course>9.43</course>
  <speed>4.99</speed>
  <fix>3d</fix>
</trkpt>
<trkpt lat="-27.2736895" lon="151.2901348">
  <ele>343.0</ele>
  <time>2026-09-01T19:56:56Z</time>
  <course>9.6</course>
  <speed>4.989519014895123</speed>
  <fix>3d</fix>
</trkpt>
<trkpt lat="-27.2736889" lon="151.2901348">
  <ele>342.99</ele>
  <time>2026-09-01T19:56:56Z</time>
  <course>20.12</course>
  <speed>4.9960984778124615</speed>
  <fix>3d</fix>
</trkpt>
<trkpt lat="-27.2737023" lon="151.2901323">
  <ele>343.1</ele>
  <time>2026-09-01T19:56:56Z</time>
  <course>9.43</course>
  <speed>4.99</speed>
  <fix>3d</fix>
</trkpt>
<trkpt lat="-27.2736845" lon="151.2901357">
  <ele>342.91</ele>
  <time>2026-09-01T19:56:56Z</time>
  <course>20.17</course>
  <speed>4.98786527484454</speed>
  <fix>3d</fix>
</trkpt>
<trkpt lat="-27.2736935" lon="151.290134">
  <ele>343.1</ele>
  <time>2026-09-01T19:56:56Z</time>
  <course>9.55</course>
  <speed>4.99</speed>
  <fix>3d</fix>
</trkpt>
<trkpt lat="-27.2736806" lon="151.2901365">
  <ele>343.0</ele>
  <time>2026-09-01T19:56:56Z</time>
  <course>9.72</course>
  <speed>4.991192242340501</speed>
  <fix>3d</fix>
</trkpt>
<trkpt lat="-27.2736801" lon="151.2901365">
  <ele>342.9</ele>
  <time>2026-09-01T19:56:56Z</time>
  <course>20.23</course>
  <speed>4.98786527484454</speed>
  <fix>3d</fix>
</trkpt>
<trkpt lat="-27.2736935" lon="151.290134">
  <ele>343.1</ele>
  <time>2026-09-01T19:56:56Z</time>
  <course>9.55</course>
  <speed>4.99</speed>
  <fix>3d</fix>
</trkpt>
<trkpt lat="-27.2736756" lon="151.2901374">
  <ele>342.87</ele>
  <time>2026-09-01T19:56:56Z</time>
  <course>20.28</course>
  <speed>4.989519014895123</speed>
  <fix>3d</fix>
</trkpt>
<trkpt lat="-27.2736846" lon="151.2901357">
  <ele>343.1</ele>
  <time>2026-09-01T19:56:56Z</time>
  <course>9.66</course>
  <speed>4.99</speed>
  <fix>3d</fix>
</trkpt>
<trkpt lat="-27.2736718" lon="151.2901382">
  <ele>343.0</ele>
  <time>2026-09-01T19:56:56Z</time>
  <course>9.83</course>
  <speed>4.992884937588688</speed>
  <fix>3d</fix>
</trkpt>
<trkpt lat="-27.2736712" lon="151.2901382">
  <ele>343.12</ele>
  <time>2026-09-01T19:56:56Z</time>
  <course>20.34</course>
  <speed>4.989519014895123</speed>
  <fix>3d</fix>
</trkpt>
<trkpt lat="-27.2736846" lon="151.2901357">
  <ele>343.1</ele>
  <time>2026-09-01T19:56:56Z</time>
  <course>9.66</course>
  <speed>4.99</speed>
  <fix>3d</fix>
</trkpt>
<trkpt lat="-27.2736668" lon="151.2901391">
  <ele>342.99</ele>
  <time>2026-09-01T19:56:56Z</time>
  <course>20.39</course>
  <speed>4.991192242340501</speed>
  <fix>3d</fix>
</trkpt>
<trkpt lat="-27.2736758" lon="151.2901374">
  <ele>343.1</ele>
  <time>2026-09-01T19:56:56Z</time>
  <course>9.78</course>
  <speed>4.99</speed>
  <fix>3d</fix>
</trkpt>
<trkpt lat="-27.2736629" lon="151.29014">
  <ele>343.0</ele>
  <time>2026-09-01T19:56:56Z</time>
  <course>9.94</course>
  <speed>4.994597080846462</speed>
  <fix>3d</fix>
</trkpt>
<trkpt lat="-27.2736624" lon="151.29014">
  <ele>343.13</ele>
  <time>2026-09-01T19:56:56Z</time>
  <course>20.45</course>
  <speed>4.991192242340501</speed>
  <fix>3d</fix>
</trkpt>
<trkpt lat="-27.2736758" lon="151.2901374">
  <ele>343.1</ele>
  <time>2026-09-01T19:56:56Z</time>
  <course>9.78</course>
  <speed>4.99</speed>
  <fix>3d</fix>
</trkpt>
<trkpt lat="-27.2736579" lon="151.2901408">
  <ele>343.0</ele>
  <time>2026-09-01T19:56:56Z</time>
  <course>20.5</course>
  <speed>4.992884937588688</speed>
  <fix>3d</fix>
</trkpt>
<trkpt lat="-27.2736669" lon="151.2901391">
  <ele>343.1</ele>
  <time>2026-09-01T19:56:56Z</time>
  <course>9.89</course>
  <speed>4.99</speed>
  <fix>3d</fix>
</trkpt>
<trkpt lat="-27.2736541" lon="151.2901417">
  <ele>343.0</ele>
  <time>2026-09-01T19:56:56Z</time>
  <course>10.06</course>
  <speed>4.996328652120475</speed>
  <fix>3d</fix>
</trkpt>
<trkpt lat="-27.2736535" lon="151.2901417">
  <ele>343.17</ele>
  <time>2026-09-01T19:56:56Z</time>
  <course>20.56</course>
  <speed>4.992884937588688</speed>
  <fix>3d</fix>
</trkpt>
<trkpt lat="-27.2736669" lon="151.2901391">
  <ele>343.1</ele>
  <time>2026-09-01T19:56:56Z</time>
  <course>9.89</course>
  <speed>4.99</speed>
  <fix>3d</fix>
</trkpt>
<trkpt lat="-27.2736492" lon="151.2901425">
  <ele>343.0</ele>
  <time>2026-09-01T19:56:56Z</time>
  <course>20.62</course>
  <speed>4.994597080846462</speed>
  <fix>3d</fix>
</trkpt>
<trkpt lat="-27.2736581" lon="151.2901408">
  <ele>343.1</ele>
  <time>2026-09-01T19:56:56Z</time>
  <course>10.01</course>
  <speed>4.99</speed>
  <fix>3d</fix>
</trkpt>
<trkpt lat="-27.2736453" lon="151.2901435">
  <ele>343.0</ele>
  <time>2026-09-01T19:56:56Z</time>
  <course>10.17</course>
  <speed>4.998079631218374</speed>
  <fix>3d</fix>
</trkpt>
<trkpt lat="-27.2736448" lon="151.2901434">
  <ele>342.99</ele>
  <time>2026-09-01T19:56:56Z</time>
  <course>20.67</course>
  <speed>4.994597080846462</speed>
  <fix>3d</fix>
</trkpt>
<trkpt lat="-27.2736581" lon="151.2901408">
  <ele>343.1</ele>
  <time>2026-09-01T19:56:56Z</time>
  <course>10.01</course>
  <speed>4.99</speed>
  <fix>3d</fix>
</trkpt>
<trkpt lat="-27.2736403" lon="151.2901444">
  <ele>343.17</ele>
  <time>2026-09-01T19:56:56Z</time>
  <course>20.73</course>
  <speed>4.996328652120475</speed>
  <fix>3d</fix>
</trkpt>
<trkpt lat="-27.2736492" lon="151.2901426">
  <ele>343.1</ele>
  <time>2026-09-01T19:56:56Z</time>
  <course>10.12</course>
  <speed>4.99</speed>
  <fix>3d</fix>
</trkpt>
<trkpt lat="-27.2736364" lon="151.2901453">
  <ele>343.0</ele>
  <time>2026-09-01T19:56:56Z</time>
  <course>10.29</course>
  <speed>4.99001002003002</speed>
  <fix>3d</fix>
</trkpt>
<trkpt lat="-27.2736359" lon="151.2901452">
  <ele>343.16</ele>
  <time>2026-09-01T19:56:56Z</time>
  <course>20.78</course>
  <speed>4.996328652120475</speed>
  <fix>3d</fix>
</trkpt>
<trkpt lat="-27.2736492" lon="151.2901426">
  <ele>343.1</ele>
  <time>2026-09-01T19:56:56Z</time>
  <course>10.12</course>
  <speed>4.99</speed>
  <fix>3d</fix>
</trkpt>
<trkpt lat="-27.2736315" lon="151.2901462">
  <ele>342.87</ele>
  <time>2026-09-01T19:56:56Z</time>
  <course>20.84</course>
  <speed>4.9882361612096915</speed>
  <fix>3d</fix>
</trkpt>
<trkpt lat="-27.2736404" lon="151.2901444">
  <ele>343.1</ele>
  <time>2026-09-01T19:56:56Z</time>
  <course>10.23</course>
  <speed>4.99</speed>
  <fix>3d</fix>
</trkpt>
<trkpt lat="-27.2736276" lon="151.2901471">
  <ele>343.0</ele>
  <time>2026-09-01T19:56:56Z</time>
  <course>10.4</course>
  <speed>4.991803281380387</speed>
  <fix>3d</fix>
</trkpt>
<trkpt lat="-27.2736271" lon="151.2901471">
  <ele>343.19</ele>
  <time>2026-09-01T19:56:56Z</time>
  <course>20.89</course>
  <speed>4.9882361612096915</speed>
  <fix>3d</fix>
</trkpt>
<trkpt lat="-27.2736404" lon="151.2901444">
  <ele>343.1</ele>
  <time>2026-09-01T19:56:56Z</time>
  <course>10.23</course>
  <speed>4.99</speed>
  <fix>3d</fix>
</trkpt>
<trkpt lat="-27.2736226" lon="151.290148">
  <ele>343.16</ele>
  <time>2026-09-01T19:56:56Z</time>
  <course>20.95</course>
  <speed>4.99001002003002</speed>
  <fix>3d</fix>
</trkpt>
<trkpt lat="-27.2736315" lon="151.2901462">
  <ele>343.1</ele>
  <time>2026-09-01T19:56:56Z</time>
  <course>10.35</course>
  <speed>4.99</speed>
  <fix>3d</fix>
</trkpt>
<trkpt lat="-27.2736187" lon="151.290149">
  <ele>343.0</ele>
  <time>2026-09-01T19:56:56Z</time>
  <course>10.52</course>
  <speed>4.99361592435782</speed>
  <fix>3d</fix>
</trkpt>
<trkpt lat="-27.2736182" lon="151.2901489">
  <ele>343.21</ele>
  <time>2026-09-01T19:56:56Z</time>
  <course>21.0</course>
  <speed>4.99001002003002</speed>
  <fix>3d</fix>
</trkpt>
<trkpt lat="-27.2736315" lon="151.2901462">
  <ele>343.1</ele>
  <time>2026-09-01T19:56:56Z</time>
  <course>10.35</course>
  <speed>4.99</speed>
  <fix>3d</fix>
</trkpt>
<trkpt lat="-27.2736138" lon="151.2901499">
  <ele>343.22</ele>
  <time>2026-09-01T19:56:56Z</time>
  <course>21.06</course>
  <speed>4.991803281380387</speed>
  <fix>3d</fix>
</trkpt>
<trkpt lat="-27.2736227" lon="151.2901481">
  <ele>343.1</ele>
  <time>2026-09-01T19:56:56Z</time>
  <course>10.46</course>
  <speed>4.99</speed>
  <fix>3d</fix>
</trkpt>
<trkpt lat="-27.2736099" lon="151.2901508">
  <ele>343.0</ele>
  <time>2026-09-01T19:56:56Z</time>
  <course>10.63</course>
  <speed>4.9954479278639266</speed>
  <fix>3d</fix>
</trkpt>
<trkpt lat="-27.2736094" lon="151.2901508">
  <ele>343.24</ele>
  <time>2026-09-01T19:56:56Z</time>
  <course>21.11</course>
  <speed>4.991803281380387</speed>
  <fix>3d</fix>
</trkpt>
<trkpt lat="-27.2736227" lon="151.2901481">
  <ele>343.1</ele>
  <time>2026-09-01T19:56:56Z</time>
  <course>10.46</course>
  <speed>4.99</speed>
  <fix>3d</fix>
</trkpt>
<trkpt lat="-27.273605" lon="151.2901517">
  <ele>343.0</ele>
  <time>2026-09-01T19:56:56Z</time>
  <course>21.17</course>
  <speed>4.99361592435782</speed>
  <fix>3d</fix>
</trkpt>
<trkpt lat="-27.2736139" lon="151.2901499">
  <ele>343.1</ele>
  <time>2026-09-01T19:56:56Z</time>
  <course>10.58</course>
  <speed>4.99</speed>
  <fix>3d</fix>
</trkpt>
<trkpt lat="-27.2736011" lon="151.2901527">
  <ele>343.0</ele>
  <time>2026-09-01T19:56:56Z</time>
  <course>10.75</course>
  <speed>4.997299270606074</speed>
  <fix>3d</fix>
</trkpt>
<trkpt lat="-27.2736006" lon="151.2901527">
  <ele>343.1</ele>
  <time>2026-09-01T19:56:56Z</time>
  <course>21.22</course>
  <speed>4.99361592435782</speed>
  <fix>3d</fix>
</trkpt>
<trkpt lat="-27.2736139" lon="151.2901499">
  <ele>343.1</ele>
  <time>2026-09-01T19:56:56Z</time>
  <course>10.58</course>
  <speed>4.99</speed>
  <fix>3d</fix>
</trkpt>
<trkpt lat="-27.2735962" lon="151.2901536">
  <ele>343.05</ele>
  <time>2026-09-01T19:56:56Z</time>
  <course>21.28</course>
  <speed>4.9954479278639266</speed>
  <fix>3d</fix>
</trkpt>
<trkpt lat="-27.2736051" lon="151.2901517">
  <ele>343.1</ele>
  <time>2026-09-01T19:56:56Z</time>
  <course>10.69</course>
  <speed>4.99</speed>
  <fix>3d</fix>
</trkpt>
<trkpt lat="-27.2735923" lon="151.2901546">
  <ele>343.0</ele>
  <time>2026-09-01T19:56:56Z</time>
  <course>10.86</course>
  <speed>4.999169931098562</speed>
  <fix>3d</fix>
</trkpt>
<trkpt lat="-27.2735917" lon="151.2901545">
  <ele>342.87</ele>
  <time>2026-09-01T19:56:56Z</time>
  <course>21.33</course>
  <speed>4.9954479278639266</speed>
  <fix>3d</fix>
</trkpt>
<trkpt lat="-27.2736051" lon="151.2901517">
  <ele>343.1</ele>
  <time>2026-09-01T19:56:56Z</time>
  <course>10.69</course>
  <speed>4.99</speed>
  <fix>3d</fix>
</trkpt>
<trkpt lat="-27.2735874" lon="151.2901555">
  <ele>342.92</ele>
  <time>2026-09-01T19:56:56Z</time>
  <course>21.39</course>
  <speed>4.987474310710783</speed>
  <fix>3d</fix>
</trkpt>
<trkpt lat="-27.2735963" lon="151.2901536">
  <ele>343.1</ele>
  <time>2026-09-01T19:56:56Z</time>
  <course>10.81</course>
  <speed>4.99</speed>
  <fix>3d</fix>
</trkpt>
<trkpt lat="-27.2735834" lon="151.2901565">
  <ele>343.0</ele>
  <time>2026-09-01T19:56:56Z</time>
  <course>10.97</course>
  <speed>4.991242330322181</speed>
  <fix>3d</fix>
</trkpt>
<trkpt lat="-27.2735829" lon="151.2901564">
  <ele>342.96</ele>
  <time>2026-09-01T19:56:56Z</time>
  <course>21.44</course>
  <speed>4.987474310710783</speed>
  <fix>3d</fix>
</trkpt>
<trkpt lat="-27.2735963" lon="151.2901536">
  <ele>343.1</ele>
  <time>2026-09-01T19:56:56Z</time>
  <course>10.81</course>
  <speed>4.99</speed>
  <fix>3d</fix>
</trkpt>
<trkpt lat="-27.2735785" lon="151.2901574">
  <ele>343.15</ele>
  <time>2026-09-01T19:56:56Z</time>
  <course>21.5</course>
  <speed>4.989348654884723</speed>
  <fix>3d</fix>
</trkpt>
<trkpt lat="-27.2735874" lon="151.2901555">
  <ele>343.1</ele>
  <time>2026-09-01T19:56:56Z</time>
  <course>10.92</course>
  <speed>4.99</speed>
  <fix>3d</fix>
</trkpt>
<trkpt lat="-27.2735746" lon="151.2901584">
  <ele>343.0</ele>
  <time>2026-09-01T19:56:56Z</time>
  <course>11.09</course>
  <speed>4.993155315028765</speed>
  <fix>3d</fix>
</trkpt>
<trkpt lat="-27.273574" lon="151.2901584">
  <ele>343.16</ele>
  <time>2026-09-01T19:56:56Z</time>
  <course>21.56</course>
  <speed>4.989348654884723</speed>
  <fix>3d</fix>
</trkpt>
<trkpt lat="-27.2735874" lon="151.2901555">
  <ele>343.1</ele>
  <time>2026-09-01T19:56:56Z</time>
  <course>10.92</course>
  <speed>4.99</speed>
  <fix>3d</fix>
</trkpt>
<trkpt lat="-27.2735697" lon="151.2901594">
  <ele>343.2</ele>
  <time>2026-09-01T19:56:56Z</time>
  <course>21.62</course>
  <speed>4.991242330322181</speed>
  <fix>3d</fix>
</trkpt>
<trkpt lat="-27.2735786" lon="151.2901575">
  <ele>343.1</ele>
  <time>2026-09-01T19:56:56Z</time>
  <course>11.04</course>
  <speed>4.99</speed>
  <fix>3d</fix>
</trkpt>
<trkpt lat="-27.2735658" lon="151.2901604">
  <ele>343.0</ele>
  <time>2026-09-01T19:56:56Z</time>
  <course>11.2</course>
  <speed>4.9950875868196745</speed>
  <fix>3d</fix>
</trkpt>
<trkpt lat="-27.2735653" lon="151.2901604">
  <ele>343.13</ele>
  <time>2026-09-01T19:56:56Z</time>
  <course>21.69</course>
  <speed>4.991242330322181</speed>
  <fix>3d</fix>
</trkpt>
<trkpt lat="-27.2735786" lon="151.2901575">
  <ele>343.1</ele>
  <time>2026-09-01T19:56:56Z</time>
  <course>11.04</course>
  <speed>4.99</speed>
  <fix>3d</fix>
</trkpt>
<trkpt lat="-27.2735657" lon="151.2901603">
  <ele>343.09</ele>
  <time>2026-09-01T19:56:56Z</time>
  <course>22.08</course>
  <speed>4.993155315028765</speed>
  <fix>3d</fix>
</trkpt>
<trkpt lat="-27.2735698" lon="151.2901594">
  <ele>343.1</ele>
  <time>2026-09-01T19:56:56Z</time>
  <course>11.15</course>
  <speed>4.99</speed>
  <fix>3d</fix>
</trkpt>
<trkpt lat="-27.273557" lon="151.2901624">
  <ele>343.0</ele>
  <time>2026-09-01T19:56:56Z</time>
  <course>11.32</course>
  <speed>4.997039123320929</speed>
  <fix>3d</fix>
</trkpt>
<trkpt lat="-27.27356" lon="151.2901615">
  <ele>343.09</ele>
  <time>2026-09-01T19:56:56Z</time>
  <course>22.14</course>
  <speed>4.993155315028765</speed>
  <fix>3d</fix>
</trkpt>
<trkpt lat="-27.2735698" lon="151.2901594">
  <ele>343.1</ele>
  <time>2026-09-01T19:56:56Z</time>
  <course>11.15</course>
  <speed>4.99</speed>
  <fix>3d</fix>
</trkpt>
<trkpt lat="-27.2735545" lon="151.2901628">
  <ele>343.1</ele>
  <time>2026-09-01T19:56:56Z</time>
  <course>22.2</course>
  <speed>4.993155315028765</speed>
  <fix>3d</fix>
</trkpt>
<trkpt lat="-27.273561" lon="151.2901614">
  <ele>343.1</ele>
  <time>2026-09-01T19:56:56Z</time>
  <course>11.26</course>
  <speed>4.99</speed>
  <fix>3d</fix>
</trkpt>
<trkpt lat="-27.2735482" lon="151.2901643">
  <ele>343.0</ele>
  <time>2026-09-01T19:56:56Z</time>
  <course>11.43</course>
  <speed>4.99900990197059</speed>
  <fix>3d</fix>
</trkpt>
<trkpt lat="-27.2735495" lon="151.2901639">
  <ele>343.1</ele>
  <time>2026-09-01T19:56:56Z</time>
  <course>22.25</course>
  <speed>4.993155315028765</speed>
  <fix>3d</fix>
</trkpt>
<trkpt lat="-27.273561" lon="151.2901614">
  <ele>343.1</ele>
  <time>2026-09-01T19:56:56Z</time>
  <course>11.26</course>
  <speed>4.99</speed>
  <fix>3d</fix>
</trkpt>
<trkpt lat="-27.2735446" lon="151.290165">
  <ele>343.1</ele>
  <time>2026-09-01T19:56:56Z</time>
  <course>22.31</course>
  <speed>4.9950875868196745</speed>
  <fix>3d</fix>
</trkpt>
<trkpt lat="-27.2735522" lon="151.2901633">
  <ele>343.1</ele>
  <time>2026-09-01T19:56:56Z</time>
  <course>11.38</course>
  <speed>4.99</speed>
  <fix>3d</fix>
</trkpt>
<trkpt lat="-27.2735394" lon="151.2901664">
  <ele>343.0</ele>
  <time>2026-09-01T19:56:56Z</time>
  <course>11.55</course>
  <speed>4.991202259977049</speed>
  <fix>3d</fix>
</trkpt>
<trkpt lat="-27.2735399" lon="151.290166">
  <ele>343.1</ele>
  <time>2026-09-01T19:56:56Z</time>
  <course>22.36</course>
  <speed>4.9950875868196745</speed>
  <fix>3d</fix>
</trkpt>
<trkpt lat="-27.2735522" lon="151.2901633">
  <ele>343.1</ele>
  <time>2026-09-01T19:56:56Z</time>
  <course>11.38</course>
  <speed>4.99</speed>
  <fix>3d</fix>
</trkpt>
<trkpt lat="-27.2735352" lon="151.2901671">
  <ele>343.1</ele>
  <time>2026-09-01T19:56:56Z</time>
  <course>22.42</course>
  <speed>4.9950875868196745</speed>
  <fix>3d</fix>
</trkpt>
<trkpt lat="-27.2735434" lon="151.2901653">
  <ele>343.1</ele>
  <time>2026-09-01T19:56:56Z</time>
  <course>11.49</course>
  <speed>4.99</speed>
  <fix>3d</fix>
</trkpt>
<trkpt lat="-27.2735306" lon="151.2901684">
  <ele>343.0</ele>
  <time>2026-09-01T19:56:56Z</time>
  <course>11.66</course>
  <speed>4.993215396916099</speed>
  <fix>3d</fix>
</trkpt>
<trkpt lat="-27.2735307" lon="151.2901681">
  <ele>343.11</ele>
  <time>2026-09-01T19:56:56Z</time>
  <course>22.47</course>
  <speed>4.9950875868196745</speed>
  <fix>3d</fix>
</trkpt>
<trkpt lat="-27.2735434" lon="151.2901653">
  <ele>343.1</ele>
  <time>2026-09-01T19:56:56Z</time>
  <course>11.49</course>
  <speed>4.99</speed>
  <fix>3d</fix>
</trkpt>
<trkpt lat="-27.2735262" lon="151.2901692">
  <ele>343.11</ele>
  <time>2026-09-01T19:56:56Z</time>
  <course>22.52</course>
  <speed>4.987233702163956</speed>
  <fix>3d</fix>
</trkpt>
<trkpt lat="-27.2735346" lon="151.2901674">
  <ele>343.1</ele>
  <time>2026-09-01T19:56:56Z</time>
  <course>11.61</course>
  <speed>4.99</speed>
  <fix>3d</fix>
</trkpt>
<trkpt lat="-27.2735218" lon="151.2901705">
  <ele>343.0</ele>
  <time>2026-09-01T19:56:56Z</time>
  <course>11.78</course>
  <speed>4.995247741604014</speed>
  <fix>3d</fix>
</trkpt>
<trkpt lat="-27.2735217" lon="151.2901702">
  <ele>343.11</ele>
  <time>2026-09-01T19:56:56Z</time>
  <course>22.58</course>
  <speed>4.987233702163956</speed>
  <fix>3d</fix>
</trkpt>
<trkpt lat="-27.2735346" lon="151.2901674">
  <ele>343.1</ele>
  <time>2026-09-01T19:56:56Z</time>
  <course>11.61</course>
  <speed>4.99</speed>
  <fix>3d</fix>
</trkpt>
<trkpt lat="-27.2735173" lon="151.2901712">
  <ele>343.12</ele>
  <time>2026-09-01T19:56:56Z</time>
  <course>22.63</course>
  <speed>4.989208354037743</speed>
  <fix>3d</fix>
</trkpt>
<trkpt lat="-27.2735258" lon="151.2901694">
  <ele>343.1</ele>
  <time>2026-09-01T19:56:56Z</time>
  <course>11.72</course>
  <speed>4.99</speed>
  <fix>3d</fix>
</trkpt>
<trkpt lat="-27.273513" lon="151.2901725">
  <ele>343.0</ele>
  <time>2026-09-01T19:56:56Z</time>
  <course>11.89</course>
  <speed>4.997299270606074</speed>
  <fix>3d</fix>
</trkpt>
<trkpt lat="-27.2735129" lon="151.2901723">
  <ele>343.12</ele>
  <time>2026-09-01T19:56:56Z</time>
  <course>22.68</course>
  <speed>4.989208354037743</speed>
  <fix>3d</fix>
</trkpt>
<trkpt lat="-27.2735258" lon="151.2901694">
  <ele>343.1</ele>
  <time>2026-09-01T19:56:56Z</time>
  <course>11.72</course>
  <speed>4.99</speed>
  <fix>3d</fix>
</trkpt>
<trkpt lat="-27.2735085" lon="151.2901733">
  <ele>343.1</ele>
  <time>2026-09-01T19:56:56Z</time>
  <course>22.74</course>
  <speed>4.989208354037743</speed>
  <fix>3d</fix>
</trkpt>
<trkpt lat="-27.273517" lon="151.2901715">
  <ele>343.1</ele>
  <time>2026-09-01T19:56:56Z</time>
  <course>11.84</course>
  <speed>4.99</speed>
  <fix>3d</fix>
</trkpt>
<trkpt lat="-27.2735042" lon="151.2901746">
  <ele>343.0</ele>
  <time>2026-09-01T19:56:56Z</time>
  <course>12.0</course>
  <speed>4.999369960304998</speed>
  <fix>3d</fix>
</trkpt>
<trkpt lat="-27.2735041" lon="151.2901743">
  <ele>343.1</ele>
  <time>2026-09-01T19:56:56Z</time>
  <course>22.79</course>
  <speed>4.991202259977049</speed>
  <fix>3d</fix>
</trkpt>
<trkpt lat="-27.273517" lon="151.2901715">
  <ele>343.1</ele>
  <time>2026-09-01T19:56:56Z</time>
  <course>11.84</course>
  <speed>4.99</speed>
  <fix>3d</fix>
</trkpt>
<trkpt lat="-27.2734997" lon="151.2901754">
  <ele>343.1</ele>
  <time>2026-09-01T19:56:56Z</time>
  <course>22.84</course>
  <speed>4.993215396916099</speed>
  <fix>3d</fix>
</trkpt>
<trkpt lat="-27.2735082" lon="151.2901736">
  <ele>343.1</ele>
  <time>2026-09-01T19:56:56Z</time>
  <course>11.95</course>
  <speed>4.99</speed>
  <fix>3d</fix>
</trkpt>
<trkpt lat="-27.2734954" lon="151.2901767">
  <ele>343.0</ele>
  <time>2026-09-01T19:56:56Z</time>
  <course>12.12</course>
  <speed>4.991683082888977</speed>
  <fix>3d</fix>
</trkpt>
<trkpt lat="-27.2734954" lon="151.2901764">
  <ele>343.09</ele>
  <time>2026-09-01T19:56:56Z</time>
  <course>22.89</course>
  <speed>4.993215396916099</speed>
  <fix>3d</fix>
</trkpt>
<trkpt lat="-27.2735082" lon="151.2901736">
  <ele>343.1</ele>
  <time>2026-09-01T19:56:56Z</time>
  <course>11.95</course>
  <speed>4.99</speed>
  <fix>3d</fix>
</trkpt>
<trkpt lat="-27.273491" lon="151.2901775">
  <ele>343.09</ele>
  <time>2026-09-01T19:56:56Z</time>
  <course>22.94</course>
  <speed>4.995247741604014</speed>
  <fix>3d</fix>
</trkpt>
<trkpt lat="-27.2734994" lon="151.2901757">
  <ele>343.1</ele>
  <time>2026-09-01T19:56:56Z</time>
  <course>12.07</course>
  <speed>4.99</speed>
  <fix>3d</fix>
</trkpt>
<trkpt lat="-27.2734866" lon="151.2901789">
  <ele>343.0</ele>
  <time>2026-09-01T19:56:56Z</time>
  <course>12.23</course>
  <speed>4.991683082888977</speed>
  <fix>3d</fix>
</trkpt>
<trkpt lat="-27.2734866" lon="151.2901786">
  <ele>343.1</ele>
  <time>2026-09-01T19:56:56Z</time>
  <course>22.99</course>
  <speed>4.985458855511697</speed>
  <fix>3d</fix>
</trkpt>
<trkpt lat="-27.2734994" lon="151.2901757">
  <ele>343.1</ele>
  <time>2026-09-01T19:56:56Z</time>
  <course>12.07</course>
  <speed>4.99</speed>
  <fix>3d</fix>
</trkpt>
<trkpt lat="-27.2734822" lon="151.2901797">
  <ele>343.1</ele>
  <time>2026-09-01T19:56:56Z</time>
  <course>23.03</course>
  <speed>4.9875144110067495</speed>
  <fix>3d</fix>
</trkpt>
<trkpt lat="-27.2734906" lon="151.2901778">
  <ele>343.1</ele>
  <time>2026-09-01T19:56:56Z</time>
  <course>12.18</course>
  <speed>4.99</speed>
  <fix>3d</fix>
</trkpt>
<trkpt lat="-27.2734779" lon="151.290181">
  <ele>343.0</ele>
  <time>2026-09-01T19:56:56Z</time>
  <course>12.35</course>
  <speed>4.993796151226039</speed>
  <fix>3d</fix>
</trkpt>
<trkpt lat="-27.2734778" lon="151.2901807">
  <ele>343.1</ele>
  <time>2026-09-01T19:56:56Z</time>
  <course>23.08</course>
  <speed>4.989589161444056</speed>
  <fix>3d</fix>
</trkpt>
<trkpt lat="-27.2734906" lon="151.2901778">
  <ele>343.1</ele>
  <time>2026-09-01T19:56:56Z</time>
  <course>12.18</course>
  <speed>4.99</speed>
  <fix>3d</fix>
</trkpt>
<trkpt lat="-27.2734734" lon="151.2901818">
  <ele>343.1</ele>
  <time>2026-09-01T19:56:56Z</time>
  <course>23.13</course>
  <speed>4.991683082888977</speed>
  <fix>3d</fix>
</trkpt>
<trkpt lat="-27.2734819" lon="151.29018">
  <ele>343.1</ele>
  <time>2026-09-01T19:56:56Z</time>
  <course>12.29</course>
  <speed>4.99</speed>
  <fix>3d</fix>
</trkpt>
<trkpt lat="-27.2734691" lon="151.2901832">
  <ele>343.0</ele>
  <time>2026-09-01T19:56:56Z</time>
  <course>12.46</course>
  <speed>4.995928342160243</speed>
  <fix>3d</fix>
</trkpt>
<trkpt lat="-27.2734691" lon="151.2901829">
  <ele>343.1</ele>
  <time>2026-09-01T19:56:56Z</time>
  <course>23.17</course>
  <speed>4.991683082888977</speed>
  <fix>3d</fix>
</trkpt>
<trkpt lat="-27.2734819" lon="151.29018">
  <ele>343.1</ele>
  <time>2026-09-01T19:56:56Z</time>
  <course>12.29</course>
  <speed>4.99</speed>
  <fix>3d</fix>
</trkpt>
<trkpt lat="-27.2734647" lon="151.290184">
  <ele>343.1</ele>
  <time>2026-09-01T19:56:56Z</time>
  <course>23.22</course>
  <speed>4.993796151226039</speed>
  <fix>3d</fix>
</trkpt>
<trkpt lat="-27.273473" lon="151.2901821">
  <ele>343.1</ele>
  <time>2026-09-01T19:56:56Z</time>
  <course>12.41</course>
  <speed>4.99</speed>
  <fix>3d</fix>
</trkpt>
<trkpt lat="-27.2734603" lon="151.2901854">
  <ele>343.0</ele>
  <time>2026-09-01T19:56:56Z</time>
  <course>12.58</course>
  <speed>4.98831634923047</speed>
  <fix>3d</fix>
</trkpt>
<trkpt lat="-27.2734603" lon="151.2901851">
  <ele>343.1</ele>
  <time>2026-09-01T19:56:56Z</time>
  <course>23.26</course>
  <speed>4.995928342160243</speed>
  <fix>3d</fix>
</trkpt>
<trkpt lat="-27.273473" lon="151.2901821">
  <ele>343.1</ele>
  <time>2026-09-01T19:56:56Z</time>
  <course>12.41</course>
  <speed>4.99</speed>
  <fix>3d</fix>
</trkpt>
<trkpt lat="-27.273456" lon="151.2901862">
  <ele>343.1</ele>
  <time>2026-09-01T19:56:56Z</time>
  <course>23.31</course>
  <speed>4.98831634923047</speed>
  <fix>3d</fix>
</trkpt>
<trkpt lat="-27.2734643" lon="151.2901843">
  <ele>343.1</ele>
  <time>2026-09-01T19:56:56Z</time>
  <course>12.52</course>
  <speed>4.99</speed>
  <fix>3d</fix>
</trkpt>
<trkpt lat="-27.2734515" lon="151.2901876">
  <ele>343.0</ele>
  <time>2026-09-01T19:56:56Z</time>
  <course>12.69</course>
  <speed>4.990490957811666</speed>
  <fix>3d</fix>
</trkpt>
<trkpt lat="-27.2734516" lon="151.2901874">
  <ele>343.1</ele>
  <time>2026-09-01T19:56:56Z</time>
  <course>23.35</course>
  <speed>4.98831634923047</speed>
  <fix>3d</fix>
</trkpt>
<trkpt lat="-27.2734643" lon="151.2901843">
  <ele>343.1</ele>
  <time>2026-09-01T19:56:56Z</time>
  <course>12.52</course>
  <speed>4.99</speed>
  <fix>3d</fix>
</trkpt>
<trkpt lat="-27.2734472" lon="151.2901885">
  <ele>343.1</ele>
  <time>2026-09-01T19:56:56Z</time>
  <course>23.4</course>
  <speed>4.990490957811666</speed>
  <fix>3d</fix>
</trkpt>
<trkpt lat="-27.2734556" lon="151.2901865">
  <ele>343.1</ele>
  <time>2026-09-01T19:56:56Z</time>
  <course>12.64</course>
  <speed>4.99</speed>
  <fix>3d</fix>
</trkpt>
<trkpt lat="-27.2734428" lon="151.2901898">
  <ele>343.0</ele>
  <time>2026-09-01T19:56:56Z</time>
  <course>12.81</course>
  <speed>4.992684648563336</speed>
  <fix>3d</fix>
</trkpt>
<trkpt lat="-27.2734428" lon="151.2901896">
  <ele>343.1</ele>
  <time>2026-09-01T19:56:56Z</time>
  <course>23.44</course>
  <speed>4.992684648563336</speed>
  <fix>3d</fix>
</trkpt>
<trkpt lat="-27.2734556" lon="151.2901865">
  <ele>343.1</ele>
  <time>2026-09-01T19:56:56Z</time>
  <course>12.64</course>
  <speed>4.99</speed>
  <fix>3d</fix>
</trkpt>
<trkpt lat="-27.2734427" lon="151.2901896">
  <ele>343.1</ele>
  <time>2026-09-01T19:56:56Z</time>
  <course>23.44</course>
  <speed>4.992684648563336</speed>
  <fix>3d</fix>
</trkpt>
<trkpt lat="-27.2734385" lon="151.2901907">
  <ele>343.11</ele>
  <time>2026-09-01T19:56:56Z</time>
  <course>23.49</course>
  <speed>4.992684648563336</speed>
  <fix>3d</fix>
</trkpt>
<trkpt lat="-27.2734468" lon="151.2901887">
  <ele>343.1</ele>
  <time>2026-09-01T19:56:56Z</time>
  <course>12.75</course>
  <speed>4.99</speed>
  <fix>3d</fix>
</trkpt>
<trkpt lat="-27.2734383" lon="151.2901908">
  <ele>343.11</ele>
  <time>2026-09-01T19:56:56Z</time>
  <course>23.49</course>
  <speed>4.992684648563336</speed>
  <fix>3d</fix>
</trkpt>
<trkpt lat="-27.273434" lon="151.2901921">
  <ele>343.0</ele>
  <time>2026-09-01T19:56:56Z</time>
  <course>12.92</course>
  <speed>4.9948973963435925</speed>
  <fix>3d</fix>
</trkpt>
<trkpt lat="-27.2734341" lon="151.2901919">
  <ele>343.13</ele>
  <time>2026-09-01T19:56:56Z</time>
  <course>23.53</course>
  <speed>4.9948973963435925</speed>
  <fix>3d</fix>
</trkpt>
<trkpt lat="-27.2734468" lon="151.2901887">
  <ele>343.1</ele>
  <time>2026-09-01T19:56:56Z</time>
  <course>12.75</course>
  <speed>4.99</speed>
  <fix>3d</fix>
</trkpt>
<trkpt lat="-27.2734338" lon="151.290192">
  <ele>343.13</ele>
  <time>2026-09-01T19:56:56Z</time>
  <course>23.53</course>
  <speed>4.9948973963435925</speed>
  <fix>3d</fix>
</trkpt>
<trkpt lat="-27.2734297" lon="151.290193">
  <ele>343.17</ele>
  <time>2026-09-01T19:56:56Z</time>
  <course>23.57</course>
  <speed>4.997129175836863</speed>
  <fix>3d</fix>
</trkpt>
<trkpt lat="-27.273438" lon="151.290191">
  <ele>343.11</ele>
  <time>2026-09-01T19:56:56Z</time>
  <course>12.87</course>
  <speed>4.99</speed>
  <fix>3d</fix>
</trkpt>
<trkpt lat="-27.2734296" lon="151.2901931">
  <ele>343.17</ele>
  <time>2026-09-01T19:56:56Z</time>
  <course>23.58</course>
  <speed>4.997129175836863</speed>
  <fix>3d</fix>
</trkpt>
<trkpt lat="-27.2734253" lon="151.2901943">
  <ele>343.0</ele>
  <time>2026-09-01T19:56:56Z</time>
  <course>13.04</course>
  <speed>4.997129175836863</speed>
  <fix>3d</fix>
</trkpt>
<trkpt lat="-27.2734254" lon="151.2901942">
  <ele>343.22</ele>
  <time>2026-09-01T19:56:56Z</time>
  <course>23.62</course>
  <speed>4.999379961555232</speed>
  <fix>3d</fix>
</trkpt>
<trkpt lat="-27.273438" lon="151.290191">
  <ele>343.11</ele>
  <time>2026-09-01T19:56:56Z</time>
  <course>12.87</course>
  <speed>4.99</speed>
  <fix>3d</fix>
</trkpt>
<trkpt lat="-27.2734252" lon="151.2901942">
  <ele>343.22</ele>
  <time>2026-09-01T19:56:56Z</time>
  <course>23.62</course>
  <speed>5.0091216794963165</speed>
  <fix>3d</fix>
</trkpt>
<trkpt lat="-27.2734209" lon="151.2901954">
  <ele>343.28</ele>
  <time>2026-09-01T19:56:56Z</time>
  <course>23.46</course>
  <speed>5.098431131240276</speed>
  <fix>3d</fix>
</trkpt>
<trkpt lat="-27.2734292" lon="151.2901932">
  <ele>343.16</ele>
  <time>2026-09-01T19:56:56Z</time>
  <course>12.99</course>
  <speed>5.0</speed>
  <fix>3d</fix>
</trkpt>
<trkpt lat="-27.2734208" lon="151.2901954">
  <ele>343.28</ele>
  <time>2026-09-01T19:56:56Z</time>
  <course>23.45</course>
  <speed>5.098431131240276</speed>
  <fix>3d</fix>
</trkpt>
<trkpt lat="-27.2734165" lon="151.2901966">
  <ele>343.0</ele>
  <time>2026-09-01T19:56:56Z</time>
  <course>13.15</course>
  <speed>4.989639265518099</speed>
  <fix>3d</fix>
</trkpt>
<trkpt lat="-27.2734165" lon="151.2901966">
  <ele>343.39</ele>
  <time>2026-09-01T19:56:56Z</time>
  <course>23.01</course>
  <speed>5.112817227321939</speed>
  <fix>3d</fix>
</trkpt>
<trkpt lat="-27.2734292" lon="151.2901932">
  <ele>343.16</ele>
  <time>2026-09-01T19:56:56Z</time>
  <course>12.99</course>
  <speed>5.0</speed>
  <fix>3d</fix>
</trkpt>
<trkpt lat="-27.2734163" lon="151.2901966">
  <ele>343.4</ele>
  <time>2026-09-01T19:56:56Z</time>
  <course>22.99</course>
  <speed>5.112817227321939</speed>
  <fix>3d</fix>
</trkpt>
<trkpt lat="-27.273412" lon="151.2901978">
  <ele>343.57</ele>
  <time>2026-09-01T19:56:56Z</time>
  <course>22.49</course>
  <speed>5.098127107085503</speed>
  <fix>3d</fix>
</trkpt>
<trkpt lat="-27.2734204" lon="151.2901956">
  <ele>343.28</ele>
  <time>2026-09-01T19:56:56Z</time>
  <course>13.29</course>
  <speed>5.06</speed>
  <fix>3d</fix>
</trkpt>
<trkpt lat="-27.2734119" lon="151.2901978">
  <ele>343.57</ele>
  <time>2026-09-01T19:56:56Z</time>
  <course>22.47</course>
  <speed>5.098127107085503</speed>
  <fix>3d</fix>
</trkpt>
<trkpt lat="-27.2734078" lon="151.2901989">
  <ele>343.0</ele>
  <time>2026-09-01T19:56:56Z</time>
  <course>13.26</course>
  <speed>4.991913460788358</speed>
  <fix>3d</fix>
</trkpt>
<trkpt lat="-27.2734076" lon="151.290199">
  <ele>343.78</ele>
  <time>2026-09-01T19:56:56Z</time>
  <course>22.06</course>
  <speed>5.110234828263766</speed>
  <fix>3d</fix>
</trkpt>
<trkpt lat="-27.2734204" lon="151.2901956">
  <ele>343.28</ele>
  <time>2026-09-01T19:56:56Z</time>
  <course>13.29</course>
  <speed>5.06</speed>
  <fix>3d</fix>
</trkpt>
<trkpt lat="-27.2734074" lon="151.2901991">
  <ele>343.79</ele>
  <time>2026-09-01T19:56:56Z</time>
  <course>22.05</course>
  <speed>5.110234828263766</speed>
  <fix>3d</fix>
</trkpt>
<trkpt lat="-27.2734031" lon="151.2902003">
  <ele>343.99</ele>
  <time>2026-09-01T19:56:56Z</time>
  <course>21.79</course>
  <speed>5.134481473333018</speed>
  <fix>3d</fix>
</trkpt>
<trkpt lat="-27.2734115" lon="151.2901979">
  <ele>343.56</ele>
  <time>2026-09-01T19:56:56Z</time>
  <course>13.65</course>
  <speed>5.11</speed>
  <fix>3d</fix>
</trkpt>
<trkpt lat="-27.273403" lon="151.2902003">
  <ele>344.0</ele>
  <time>2026-09-01T19:56:56Z</time>
  <course>21.78</course>
  <speed>5.144181178768881</speed>
  <fix>3d</fix>
</trkpt>
<trkpt lat="-27.2733991" lon="151.2902013">
  <ele>343.0</ele>
  <time>2026-09-01T19:56:57Z</time>
  <course>13.38</course>
  <speed>4.994206643702281</speed>
  <fix>3d</fix>
</trkpt>
<trkpt lat="-27.2733986" lon="151.2902015">
  <ele>344.22</ele>
  <time>2026-09-01T19:56:57Z</time>
  <course>21.66</course>
  <speed>5.185412230478885</speed>
  <fix>3d</fix>
</trkpt>
<trkpt lat="-27.2734115" lon="151.2901979">
  <ele>343.56</ele>
  <time>2026-09-01T19:56:57Z</time>
  <course>13.65</course>
  <speed>5.11</speed>
  <fix>3d</fix>
</trkpt>
<trkpt lat="-27.2733985" lon="151.2902016">
  <ele>344.23</ele>
  <time>2026-09-01T19:56:57Z</time>
  <course>21.66</course>
  <speed>5.187851192931424</speed>
  <fix>3d</fix>
</trkpt>
<trkpt lat="-27.2733941" lon="151.2902028">
  <ele>344.47</ele>
  <time>2026-09-01T19:56:57Z</time>
  <course>21.65</course>
  <speed>5.229082137431004</speed>
  <fix>3d</fix>
</trkpt>
<trkpt lat="-27.2734026" lon="151.2902004">
  <ele>343.97</ele>
  <time>2026-09-01T19:56:57Z</time>
  <course>13.88</course>
  <speed>5.15</speed>
  <fix>3d</fix>
</trkpt>
<trkpt lat="-27.2733939" lon="151.2902029">
  <ele>344.48</ele>
  <time>2026-09-01T19:56:57Z</time>
  <course>21.65</course>
  <speed>5.229082137431004</speed>
  <fix>3d</fix>
</trkpt>
<trkpt lat="-27.2733903" lon="151.2902036">
  <ele>343.0</ele>
  <time>2026-09-01T19:56:57Z</time>
  <course>13.49</course>
  <speed>4.996518788116382</speed>
  <fix>3d</fix>
</trkpt>
<trkpt lat="-27.2733895" lon="151.2902041">
  <ele>344.73</ele>
  <time>2026-09-01T19:56:57Z</time>
  <course>21.69</course>
  <speed>5.272769670675935</speed>
  <fix>3d</fix>
</trkpt>
<trkpt lat="-27.2734026" lon="151.2902004">
  <ele>343.97</ele>
  <time>2026-09-01T19:56:57Z</time>
  <course>13.88</course>
  <speed>5.15</speed>
  <fix>3d</fix>
</trkpt>
<trkpt lat="-27.2733893" lon="151.2902042">
  <ele>344.74</ele>
  <time>2026-09-01T19:56:57Z</time>
  <course>21.69</course>
  <speed>5.272769670675935</speed>
  <fix>3d</fix>
</trkpt>
<trkpt lat="-27.2733849" lon="151.2902054">
  <ele>345.01</ele>
  <time>2026-09-01T19:56:57Z</time>
  <course>21.74</course>
  <speed>5.316474395687428</speed>
  <fix>3d</fix>
</trkpt>
<trkpt lat="-27.2733935" lon="151.290203">
  <ele>344.45</ele>
  <time>2026-09-01T19:56:57Z</time>
  <course>14.02</course>
  <speed>5.24</speed>
  <fix>3d</fix>
</trkpt>
<trkpt lat="-27.2733847" lon="151.2902055">
  <ele>345.02</ele>
  <time>2026-09-01T19:56:57Z</time>
  <course>21.74</course>
  <speed>5.316474395687428</speed>
  <fix>3d</fix>
</trkpt>
<trkpt lat="-27.2733816" lon="151.290206">
  <ele>343.0</ele>
  <time>2026-09-01T19:56:57Z</time>
  <course>13.61</course>
  <speed>4.989128180353758</speed>
  <fix>3d</fix>
</trkpt>
<trkpt lat="-27.2733803" lon="151.2902068">
  <ele>345.3</ele>
  <time>2026-09-01T19:56:57Z</time>
  <course>21.48</course>
  <speed>5.350513994000949</speed>
  <fix>3d</fix>
</trkpt>
<trkpt lat="-27.2733935" lon="151.290203">
  <ele>344.45</ele>
  <time>2026-09-01T19:56:57Z</time>
  <course>14.02</course>
  <speed>5.24</speed>
  <fix>3d</fix>
</trkpt>
<trkpt lat="-27.2733799" lon="151.2902068">
  <ele>345.32</ele>
  <time>2026-09-01T19:56:57Z</time>
  <course>21.49</course>
  <speed>5.350513994000949</speed>
  <fix>3d</fix>
</trkpt>
<trkpt lat="-27.2733756" lon="151.2902081">
  <ele>345.59</ele>
  <time>2026-09-01T19:56:57Z</time>
  <course>21.58</course>
  <speed>5.372383083883725</speed>
  <fix>3d</fix>
</trkpt>
<trkpt lat="-27.2733843" lon="151.2902055">
  <ele>344.99</ele>
  <time>2026-09-01T19:56:57Z</time>
  <course>14.15</course>
  <speed>5.32</speed>
  <fix>3d</fix>
</trkpt>
<trkpt lat="-27.2733755" lon="151.2902081">
  <ele>345.6</ele>
  <time>2026-09-01T19:56:57Z</time>
  <course>21.58</course>
  <speed>5.382062801565958</speed>
  <fix>3d</fix>
</trkpt>
<trkpt lat="-27.2733729" lon="151.2902084">
  <ele>343.0</ele>
  <time>2026-09-01T19:56:57Z</time>
  <course>13.72</course>
  <speed>4.991482745637813</speed>
  <fix>3d</fix>
</trkpt>
<trkpt lat="-27.2733709" lon="151.2902095">
  <ele>345.89</ele>
  <time>2026-09-01T19:56:57Z</time>
  <course>21.58</course>
  <speed>5.406459100002515</speed>
  <fix>3d</fix>
</trkpt>
<trkpt lat="-27.2733843" lon="151.2902055">
  <ele>344.99</ele>
  <time>2026-09-01T19:56:57Z</time>
  <course>14.15</course>
  <speed>5.32</speed>
  <fix>3d</fix>
</trkpt>
<trkpt lat="-27.2733708" lon="151.2902095">
  <ele>345.9</ele>
  <time>2026-09-01T19:56:57Z</time>
  <course>21.58</course>
  <speed>5.406459100002515</speed>
  <fix>3d</fix>
</trkpt>
<trkpt lat="-27.2733662" lon="151.2902108">
  <ele>346.2</ele>
  <time>2026-09-01T19:56:57Z</time>
  <course>21.53</course>
  <speed>5.438014343489726</speed>
  <fix>3d</fix>
</trkpt>
<trkpt lat="-27.273375" lon="151.2902082">
  <ele>345.58</ele>
  <time>2026-09-01T19:56:57Z</time>
  <course>14.29</course>
  <speed>5.39</speed>
  <fix>3d</fix>
</trkpt>
<trkpt lat="-27.2733661" lon="151.2902109">
  <ele>346.2</ele>
  <time>2026-09-01T19:56:57Z</time>
  <course>21.53</course>
  <speed>5.438014343489726</speed>
  <fix>3d</fix>
</trkpt>
<trkpt lat="-27.2733641" lon="151.2902108">
  <ele>343.0</ele>
  <time>2026-09-01T19:56:57Z</time>
  <course>13.84</course>
  <speed>4.993856225403371</speed>
  <fix>3d</fix>
</trkpt>
<trkpt lat="-27.2733614" lon="151.2902122">
  <ele>346.5</ele>
  <time>2026-09-01T19:56:57Z</time>
  <course>21.48</course>
  <speed>5.459899266470033</speed>
  <fix>3d</fix>
</trkpt>
<trkpt lat="-27.273375" lon="151.2902082">
  <ele>345.58</ele>
  <time>2026-09-01T19:56:57Z</time>
  <course>14.29</course>
  <speed>5.39</speed>
  <fix>3d</fix>
</trkpt>
<trkpt lat="-27.2733613" lon="151.2902122">
  <ele>346.51</ele>
  <time>2026-09-01T19:56:57Z</time>
  <course>21.48</course>
  <speed>5.459899266470033</speed>
  <fix>3d</fix>
</trkpt>
<trkpt lat="-27.2733567" lon="151.2902136">
  <ele>346.8</ele>
  <time>2026-09-01T19:56:57Z</time>
  <course>21.44</course>
  <speed>5.481788029466299</speed>
  <fix>3d</fix>
</trkpt>
<trkpt lat="-27.2733655" lon="151.2902109">
  <ele>346.18</ele>
  <time>2026-09-01T19:56:57Z</time>
  <course>14.42</course>
  <speed>5.44</speed>
  <fix>3d</fix>
</trkpt>
<trkpt lat="-27.2733565" lon="151.2902136">
  <ele>346.81</ele>
  <time>2026-09-01T19:56:57Z</time>
  <course>21.44</course>
  <speed>5.481788029466299</speed>
  <fix>3d</fix>
</trkpt>
<trkpt lat="-27.2733554" lon="151.2902132">
  <ele>343.0</ele>
  <time>2026-09-01T19:56:57Z</time>
  <course>13.95</course>
  <speed>4.9962485926943225</speed>
  <fix>3d</fix>
</trkpt>
<trkpt lat="-27.2733519" lon="151.290215">
  <ele>347.1</ele>
  <time>2026-09-01T19:56:57Z</time>
  <course>21.43</course>
  <speed>5.503680586661984</speed>
  <fix>3d</fix>
</trkpt>
<trkpt lat="-27.2733655" lon="151.2902109">
  <ele>346.18</ele>
  <time>2026-09-01T19:56:57Z</time>
  <course>14.42</course>
  <speed>5.44</speed>
  <fix>3d</fix>
</trkpt>
<trkpt lat="-27.2733517" lon="151.290215">
  <ele>347.11</ele>
  <time>2026-09-01T19:56:57Z</time>
  <course>21.43</course>
  <speed>5.503680586661984</speed>
  <fix>3d</fix>
</trkpt>
<trkpt lat="-27.2733471" lon="151.2902164">
  <ele>347.4</ele>
  <time>2026-09-01T19:56:57Z</time>
  <course>21.43</course>
  <speed>5.513347440530117</speed>
  <fix>3d</fix>
</trkpt>
<trkpt lat="-27.273356" lon="151.2902136">
  <ele>346.78</ele>
  <time>2026-09-01T19:56:57Z</time>
  <course>14.53</course>
  <speed>5.49</speed>
  <fix>3d</fix>
</trkpt>
<trkpt lat="-27.2733469" lon="151.2902164">
  <ele>347.41</ele>
  <time>2026-09-01T19:56:57Z</time>
  <course>21.43</course>
  <speed>5.513347440530117</speed>
  <fix>3d</fix>
</trkpt>
<trkpt lat="-27.2733467" lon="151.2902157">
  <ele>343.0</ele>
  <time>2026-09-01T19:56:57Z</time>
  <course>14.07</course>
  <speed>4.9889578069973695</speed>
  <fix>3d</fix>
</trkpt>
<trkpt lat="-27.2733423" lon="151.2902178">
  <ele>347.69</ele>
  <time>2026-09-01T19:56:57Z</time>
  <course>21.45</course>
  <speed>5.525576892958779</speed>
  <fix>3d</fix>
</trkpt>
<trkpt lat="-27.273356" lon="151.2902136">
  <ele>346.78</ele>
  <time>2026-09-01T19:56:57Z</time>
  <course>14.53</course>
  <speed>5.49</speed>
  <fix>3d</fix>
</trkpt>
<trkpt lat="-27.2733412" lon="151.2902181">
  <ele>347.76</ele>
  <time>2026-09-01T19:56:57Z</time>
  <course>21.46</course>
  <speed>5.525576892958779</speed>
  <fix>3d</fix>
</trkpt>
<trkpt lat="-27.2733375" lon="151.2902192">
  <ele>347.97</ele>
  <time>2026-09-01T19:56:57Z</time>
  <course>21.47</course>
  <speed>5.525576892958779</speed>
  <fix>3d</fix>
</trkpt>
<trkpt lat="-27.2733465" lon="151.2902164">
  <ele>347.38</ele>
  <time>2026-09-01T19:56:57Z</time>
  <course>14.62</course>
  <speed>5.52</speed>
  <fix>3d</fix>
</trkpt>
<trkpt lat="-27.2733373" lon="151.2902193">
  <ele>347.98</ele>
  <time>2026-09-01T19:56:57Z</time>
  <course>21.47</course>
  <speed>5.525576892958779</speed>
  <fix>3d</fix>
</trkpt>
<trkpt lat="-27.273338" lon="151.2902181">
  <ele>343.0</ele>
  <time>2026-09-01T19:56:57Z</time>
  <course>14.18</course>
  <speed>4.991392591251463</speed>
  <fix>3d</fix>
</trkpt>
<trkpt lat="-27.2733327" lon="151.2902206">
  <ele>348.25</ele>
  <time>2026-09-01T19:56:57Z</time>
  <course>21.5</course>
  <speed>5.525576892958779</speed>
  <fix>3d</fix>
</trkpt>
<trkpt lat="-27.2733465" lon="151.2902164">
  <ele>347.38</ele>
  <time>2026-09-01T19:56:57Z</time>
  <course>14.62</course>
  <speed>5.52</speed>
  <fix>3d</fix>
</trkpt>
<trkpt lat="-27.2733325" lon="151.2902207">
  <ele>348.26</ele>
  <time>2026-09-01T19:56:57Z</time>
  <course>21.5</course>
  <speed>5.525576892958779</speed>
  <fix>3d</fix>
</trkpt>
<trkpt lat="-27.2733279" lon="151.290222">
  <ele>348.53</ele>
  <time>2026-09-01T19:56:57Z</time>
  <course>21.52</course>
  <speed>5.525576892958779</speed>
  <fix>3d</fix>
</trkpt>
<trkpt lat="-27.2733368" lon="151.2902193">
  <ele>347.95</ele>
  <time>2026-09-01T19:56:57Z</time>
  <course>14.7</course>
  <speed>5.54</speed>
  <fix>3d</fix>
</trkpt>
<trkpt lat="-27.2733277" lon="151.2902221">
  <ele>348.54</ele>
  <time>2026-09-01T19:56:57Z</time>
  <course>21.53</course>
  <speed>5.525576892958779</speed>
  <fix>3d</fix>
</trkpt>
<trkpt lat="-27.2733293" lon="151.2902206">
  <ele>343.0</ele>
  <time>2026-09-01T19:56:57Z</time>
  <course>14.29</course>
  <speed>4.993846213090667</speed>
  <fix>3d</fix>
</trkpt>
<trkpt lat="-27.2733231" lon="151.2902235">
  <ele>348.8</ele>
  <time>2026-09-01T19:56:57Z</time>
  <course>21.55</course>
  <speed>5.515913342321469</speed>
  <fix>3d</fix>
</trkpt>
<trkpt lat="-27.2733368" lon="151.2902193">
  <ele>347.95</ele>
  <time>2026-09-01T19:56:57Z</time>
  <course>14.7</course>
  <speed>5.54</speed>
  <fix>3d</fix>
</trkpt>
<trkpt lat="-27.2733228" lon="151.2902235">
  <ele>348.81</ele>
  <time>2026-09-01T19:56:57Z</time>
  <course>21.55</course>
  <speed>5.515913342321469</speed>
  <fix>3d</fix>
</trkpt>
<trkpt lat="-27.2733183" lon="151.2902249">
  <ele>349.06</ele>
  <time>2026-09-01T19:56:57Z</time>
  <course>21.58</course>
  <speed>5.515913342321469</speed>
  <fix>3d</fix>
</trkpt>
<trkpt lat="-27.2733272" lon="151.2902222">
  <ele>348.49</ele>
  <time>2026-09-01T19:56:57Z</time>
  <course>14.78</course>
  <speed>5.54</speed>
  <fix>3d</fix>
</trkpt>
<trkpt lat="-27.2733181" lon="151.2902249">
  <ele>349.07</ele>
  <time>2026-09-01T19:56:57Z</time>
  <course>21.58</course>
  <speed>5.515913342321469</speed>
  <fix>3d</fix>
</trkpt>
<trkpt lat="-27.2733206" lon="151.2902231">
  <ele>343.0</ele>
  <time>2026-09-01T19:56:57Z</time>
  <course>14.41</course>
  <speed>4.996318644762361</speed>
  <fix>3d</fix>
</trkpt>
<trkpt lat="-27.2733135" lon="151.2902263">
  <ele>349.32</ele>
  <time>2026-09-01T19:56:57Z</time>
  <course>21.6</course>
  <speed>5.506250993189468</speed>
  <fix>3d</fix>
</trkpt>
<trkpt lat="-27.2733272" lon="151.2902222">
  <ele>348.49</ele>
  <time>2026-09-01T19:56:57Z</time>
  <course>14.78</course>
  <speed>5.54</speed>
  <fix>3d</fix>
</trkpt>
<trkpt lat="-27.2733133" lon="151.2902263">
  <ele>349.33</ele>
  <time>2026-09-01T19:56:57Z</time>
  <course>21.6</course>
  <speed>5.506250993189468</speed>
  <fix>3d</fix>
</trkpt>
<trkpt lat="-27.2733087" lon="151.2902277">
  <ele>349.57</ele>
  <time>2026-09-01T19:56:57Z</time>
  <course>21.63</course>
  <speed>5.496589851899085</speed>
  <fix>3d</fix>
</trkpt>
<trkpt lat="-27.2733176" lon="151.290225">
  <ele>349.02</ele>
  <time>2026-09-01T19:56:57Z</time>
  <course>14.86</course>
  <speed>5.52</speed>
  <fix>3d</fix>
</trkpt>
<trkpt lat="-27.2733085" lon="151.2902278">
  <ele>349.58</ele>
  <time>2026-09-01T19:56:57Z</time>
  <course>21.63</course>
  <speed>5.496589851899085</speed>
  <fix>3d</fix>
</trkpt>
<trkpt lat="-27.2733119" lon="151.2902256">
  <ele>343.0</ele>
  <time>2026-09-01T19:56:57Z</time>
  <course>14.52</course>
  <speed>4.998809858356287</speed>
  <fix>3d</fix>
</trkpt>
<trkpt lat="-27.2733039" lon="151.2902291">
  <ele>349.83</ele>
  <time>2026-09-01T19:56:57Z</time>
  <course>21.65</course>
  <speed>5.47727121840794</speed>
  <fix>3d</fix>
</trkpt>
<trkpt lat="-27.2733176" lon="151.290225">
  <ele>349.02</ele>
  <time>2026-09-01T19:56:57Z</time>
  <course>14.86</course>
  <speed>5.52</speed>
  <fix>3d</fix>
</trkpt>
<trkpt lat="-27.2733038" lon="151.2902292">
  <ele>349.84</ele>
  <time>2026-09-01T19:56:57Z</time>
  <course>21.65</course>
  <speed>5.47727121840794</speed>
  <fix>3d</fix>
</trkpt>
<trkpt lat="-27.2732992" lon="151.2902306">
  <ele>350.08</ele>
  <time>2026-09-01T19:56:57Z</time>
  <course>21.68</course>
  <speed>5.46761373910045</speed>
  <fix>3d</fix>
</trkpt>
<trkpt lat="-27.273308" lon="151.2902279">
  <ele>349.52</ele>
  <time>2026-09-01T19:56:57Z</time>
  <course>14.95</course>
  <speed>5.5</speed>
  <fix>3d</fix>
</trkpt>
<trkpt lat="-27.273299" lon="151.2902306">
  <ele>350.09</ele>
  <time>2026-09-01T19:56:57Z</time>
  <course>21.68</course>
  <speed>5.46761373910045</speed>
  <fix>3d</fix>
</trkpt>
<trkpt lat="-27.2733032" lon="151.2902282">
  <ele>343.0</ele>
  <time>2026-09-01T19:56:57Z</time>
  <course>14.64</course>
  <speed>4.991643016081979</speed>
  <fix>3d</fix>
</trkpt>
<trkpt lat="-27.2732945" lon="151.290232">
  <ele>350.33</ele>
  <time>2026-09-01T19:56:57Z</time>
  <course>21.7</course>
  <speed>5.448302487931447</speed>
  <fix>3d</fix>
</trkpt>
<trkpt lat="-27.273308" lon="151.2902279">
  <ele>349.52</ele>
  <time>2026-09-01T19:56:57Z</time>
  <course>14.95</course>
  <speed>5.5</speed>
  <fix>3d</fix>
</trkpt>
<trkpt lat="-27.2732941" lon="151.2902321">
  <ele>350.35</ele>
  <time>2026-09-01T19:56:57Z</time>
  <course>21.71</course>
  <speed>5.448302487931447</speed>
  <fix>3d</fix>
</trkpt>
<trkpt lat="-27.2732897" lon="151.2902334">
  <ele>350.58</ele>
  <time>2026-09-01T19:56:57Z</time>
  <course>21.73</course>
  <speed>5.438648729234128</speed>
  <fix>3d</fix>
</trkpt>
<trkpt lat="-27.2732984" lon="151.2902308">
  <ele>350.01</ele>
  <time>2026-09-01T19:56:57Z</time>
  <course>15.05</course>
  <speed>5.47</speed>
  <fix>3d</fix>
</trkpt>
<trkpt lat="-27.2732895" lon="151.2902335">
  <ele>350.59</ele>
  <time>2026-09-01T19:56:57Z</time>
  <course>21.73</course>
  <speed>5.438648729234128</speed>
  <fix>3d</fix>
</trkpt>
<trkpt lat="-27.2732945" lon="151.2902308">
  <ele>343.0</ele>
  <time>2026-09-01T19:56:57Z</time>
  <course>14.75</course>
  <speed>4.9941766088115065</speed>
  <fix>3d</fix>
</trkpt>
<trkpt lat="-27.273285" lon="151.2902349">
  <ele>350.83</ele>
  <time>2026-09-01T19:56:57Z</time>
  <course>21.76</course>
  <speed>5.419344978869678</speed>
  <fix>3d</fix>
</trkpt>
<trkpt lat="-27.2732984" lon="151.2902308">
  <ele>350.01</ele>
  <time>2026-09-01T19:56:57Z</time>
  <course>15.05</course>
  <speed>5.47</speed>
  <fix>3d</fix>
</trkpt>
<trkpt lat="-27.2732846" lon="151.290235">
  <ele>350.85</ele>
  <time>2026-09-01T19:56:57Z</time>
  <course>21.76</course>
  <speed>5.419344978869678</speed>
  <fix>3d</fix>
</trkpt>
<trkpt lat="-27.2732802" lon="151.2902363">
  <ele>351.09</ele>
  <time>2026-09-01T19:56:57Z</time>
  <course>21.79</course>
  <speed>5.40004629609784</speed>
  <fix>3d</fix>
</trkpt>
<trkpt lat="-27.273289" lon="151.2902336">
  <ele>350.5</ele>
  <time>2026-09-01T19:56:57Z</time>
  <course>15.16</course>
  <speed>5.44</speed>
  <fix>3d</fix>
</trkpt>
<trkpt lat="-27.2732801" lon="151.2902364">
  <ele>351.1</ele>
  <time>2026-09-01T19:56:57Z</time>
  <course>21.79</course>
  <speed>5.40004629609784</speed>
  <fix>3d</fix>
</trkpt>
<trkpt lat="-27.2732858" lon="151.2902333">
  <ele>343.0</ele>
  <time>2026-09-01T19:56:57Z</time>
  <course>14.87</course>
  <speed>4.9967289300101125</speed>
  <fix>3d</fix>
</trkpt>
<trkpt lat="-27.2732755" lon="151.2902377">
  <ele>351.34</ele>
  <time>2026-09-01T19:56:57Z</time>
  <course>21.81</course>
  <speed>5.380752735445107</speed>
  <fix>3d</fix>
</trkpt>
<trkpt lat="-27.273289" lon="151.2902336">
  <ele>350.5</ele>
  <time>2026-09-01T19:56:57Z</time>
  <course>15.16</course>
  <speed>5.44</speed>
  <fix>3d</fix>
</trkpt>
<trkpt lat="-27.2732752" lon="151.2902378">
  <ele>351.36</ele>
  <time>2026-09-01T19:56:57Z</time>
  <course>21.82</course>
  <speed>5.380752735445107</speed>
  <fix>3d</fix>
</trkpt>
<trkpt lat="-27.2732709" lon="151.2902392">
  <ele>351.59</ele>
  <time>2026-09-01T19:56:57Z</time>
  <course>21.84</course>
  <speed>5.371107893163197</speed>
  <fix>3d</fix>
</trkpt>
<trkpt lat="-27.2732796" lon="151.2902365">
  <ele>350.99</ele>
  <time>2026-09-01T19:56:57Z</time>
  <course>15.27</course>
  <speed>5.41</speed>
  <fix>3d</fix>
</trkpt>
<trkpt lat="-27.2732707" lon="151.2902392">
  <ele>351.6</ele>
  <time>2026-09-01T19:56:57Z</time>
  <course>21.84</course>
  <speed>5.371107893163197</speed>
  <fix>3d</fix>
</trkpt>
<trkpt lat="-27.2732771" lon="151.2902359">
  <ele>343.0</ele>
  <time>2026-09-01T19:56:57Z</time>
  <course>14.98</course>
  <speed>4.989639265518099</speed>
  <fix>3d</fix>
</trkpt>
<trkpt lat="-27.2732662" lon="151.2902406">
  <ele>351.84</ele>
  <time>2026-09-01T19:56:57Z</time>
  <course>21.87</course>
  <speed>5.351822119614964</speed>
  <fix>3d</fix>
</trkpt>
<trkpt lat="-27.2732796" lon="151.2902365">
  <ele>350.99</ele>
  <time>2026-09-01T19:56:57Z</time>
  <course>15.27</course>
  <speed>5.41</speed>
  <fix>3d</fix>
</trkpt>
<trkpt lat="-27.2732653" lon="151.2902409">
  <ele>351.89</ele>
  <time>2026-09-01T19:56:57Z</time>
  <course>21.87</course>
  <speed>5.342181202467771</speed>
  <fix>3d</fix>
</trkpt>
<trkpt lat="-27.2732616" lon="151.2902421">
  <ele>352.09</ele>
  <time>2026-09-01T19:56:57Z</time>
  <course>21.89</course>
  <speed>5.332541607901432</speed>
  <fix>3d</fix>
</trkpt>
<trkpt lat="-27.2732702" lon="151.2902394">
  <ele>351.47</ele>
  <time>2026-09-01T19:56:57Z</time>
  <course>15.39</course>
  <speed>5.37</speed>
  <fix>3d</fix>
</trkpt>
<trkpt lat="-27.2732615" lon="151.2902421">
  <ele>352.09</ele>
  <time>2026-09-01T19:56:57Z</time>
  <course>21.89</course>
  <speed>5.332541607901432</speed>
  <fix>3d</fix>
</trkpt>
<trkpt lat="-27.2732684" lon="151.2902386">
  <ele>343.0</ele>
  <time>2026-09-01T19:56:57Z</time>
  <course>15.1</course>
  <speed>4.992233968876058</speed>
  <fix>3d</fix>
</trkpt>
<trkpt lat="-27.2732569" lon="151.2902435">
  <ele>352.34</ele>
  <time>2026-09-01T19:56:57Z</time>
  <course>21.91</course>
  <speed>5.313266415304242</speed>
  <fix>3d</fix>
</trkpt>
<trkpt lat="-27.2732702" lon="151.2902394">
  <ele>351.47</ele>
  <time>2026-09-01T19:56:57Z</time>
  <course>15.39</course>
  <speed>5.37</speed>
  <fix>3d</fix>
</trkpt>
<trkpt lat="-27.2732568" lon="151.2902435">
  <ele>352.35</ele>
  <time>2026-09-01T19:56:57Z</time>
  <course>21.91</course>
  <speed>5.313266415304242</speed>
  <fix>3d</fix>
</trkpt>
<trkpt lat="-27.2732524" lon="151.2902449">
  <ele>352.59</ele>
  <time>2026-09-01T19:56:57Z</time>
  <course>21.93</course>
  <speed>5.29399659992335</speed>
  <fix>3d</fix>
</trkpt>
<trkpt lat="-27.273261" lon="151.2902423">
  <ele>351.95</ele>
  <time>2026-09-01T19:56:57Z</time>
  <course>15.51</course>
  <speed>5.33</speed>
  <fix>3d</fix>
</trkpt>
<trkpt lat="-27.2732522" lon="151.290245">
  <ele>352.6</ele>
  <time>2026-09-01T19:56:57Z</time>
  <course>21.93</course>
  <speed>5.29399659992335</speed>
  <fix>3d</fix>
</trkpt>
<trkpt lat="-27.2732597" lon="151.2902412">
  <ele>343.0</ele>
  <time>2026-09-01T19:56:57Z</time>
  <course>15.21</course>
  <speed>4.9948473450146595</speed>
  <fix>3d</fix>
</trkpt>
<trkpt lat="-27.2732478" lon="151.2902464">
  <ele>352.84</ele>
  <time>2026-09-01T19:56:57Z</time>
  <course>21.95</course>
  <speed>5.272048937557389</speed>
  <fix>3d</fix>
</trkpt>
<trkpt lat="-27.273261" lon="151.2902423">
  <ele>351.95</ele>
  <time>2026-09-01T19:56:57Z</time>
  <course>15.51</course>
  <speed>5.33</speed>
  <fix>3d</fix>
</trkpt>
<trkpt lat="-27.2732469" lon="151.2902466">
  <ele>352.89</ele>
  <time>2026-09-01T19:56:57Z</time>
  <course>21.95</course>
  <speed>5.262413894782508</speed>
  <fix>3d</fix>
</trkpt>
<trkpt lat="-27.2732433" lon="151.2902478">
  <ele>353.09</ele>
  <time>2026-09-01T19:56:57Z</time>
  <course>21.96</course>
  <speed>5.252780216228355</speed>
  <fix>3d</fix>
</trkpt>
<trkpt lat="-27.2732518" lon="151.2902452">
  <ele>352.44</ele>
  <time>2026-09-01T19:56:57Z</time>
  <course>15.61</course>
  <speed>5.29</speed>
  <fix>3d</fix>
</trkpt>
<trkpt lat="-27.2732431" lon="151.2902478">
  <ele>353.1</ele>
  <time>2026-09-01T19:56:57Z</time>
  <course>21.96</course>
  <speed>5.252780216228355</speed>
  <fix>3d</fix>
</trkpt>
<trkpt lat="-27.2732511" lon="151.2902439">
  <ele>343.0</ele>
  <time>2026-09-01T19:56:57Z</time>
  <course>15.33</course>
  <speed>4.997479364639738</speed>
  <fix>3d</fix>
</trkpt>
<trkpt lat="-27.2732388" lon="151.2902492">
  <ele>353.34</ele>
  <time>2026-09-01T19:56:57Z</time>
  <course>21.98</course>
  <speed>5.233516981915699</speed>
  <fix>3d</fix>
</trkpt>
<trkpt lat="-27.2732518" lon="151.2902452">
  <ele>352.44</ele>
  <time>2026-09-01T19:56:57Z</time>
  <course>15.61</course>
  <speed>5.29</speed>
  <fix>3d</fix>
</trkpt>
<trkpt lat="-27.2732386" lon="151.2902493">
  <ele>353.35</ele>
  <time>2026-09-01T19:56:57Z</time>
  <course>21.98</course>
  <speed>5.233516981915699</speed>
  <fix>3d</fix>
</trkpt>
<trkpt lat="-27.2732343" lon="151.2902506">
  <ele>353.59</ele>
  <time>2026-09-01T19:56:57Z</time>
  <course>22.0</course>
  <speed>5.214259295432095</speed>
  <fix>3d</fix>
</trkpt>
<trkpt lat="-27.2732426" lon="151.2902481">
  <ele>352.93</ele>
  <time>2026-09-01T19:56:57Z</time>
  <course>15.68</course>
  <speed>5.25</speed>
  <fix>3d</fix>
</trkpt>
<trkpt lat="-27.2732341" lon="151.2902507">
  <ele>353.6</ele>
  <time>2026-09-01T19:56:57Z</time>
  <course>22.0</course>
  <speed>5.214259295432095</speed>
  <fix>3d</fix>
</trkpt>
<trkpt lat="-27.2732424" lon="151.2902466">
  <ele>343.0</ele>
  <time>2026-09-01T19:56:57Z</time>
  <course>15.44</course>
  <speed>4.990490957811666</speed>
  <fix>3d</fix>
</trkpt>
<trkpt lat="-27.2732298" lon="151.2902521">
  <ele>353.85</ele>
  <time>2026-09-01T19:56:57Z</time>
  <course>22.02</course>
  <speed>5.1950072184742915</speed>
  <fix>3d</fix>
</trkpt>
<trkpt lat="-27.2732426" lon="151.2902481">
  <ele>352.93</ele>
  <time>2026-09-01T19:56:57Z</time>
  <course>15.68</course>
  <speed>5.25</speed>
  <fix>3d</fix>
</trkpt>
<trkpt lat="-27.2732296" lon="151.2902521">
  <ele>353.85</ele>
  <time>2026-09-01T19:56:57Z</time>
  <course>22.02</course>
  <speed>5.192301994298868</speed>
  <fix>3d</fix>
</trkpt>
<trkpt lat="-27.2732253" lon="151.2902535">
  <ele>354.1</ele>
  <time>2026-09-01T19:56:57Z</time>
  <course>22.04</course>
  <speed>5.173045524640199</speed>
  <fix>3d</fix>
</trkpt>
<trkpt lat="-27.2732336" lon="151.2902509">
  <ele>353.42</ele>
  <time>2026-09-01T19:56:57Z</time>
  <course>15.73</course>
  <speed>5.22</speed>
  <fix>3d</fix>
</trkpt>
<trkpt lat="-27.2732252" lon="151.2902535">
  <ele>354.11</ele>
  <time>2026-09-01T19:56:57Z</time>
  <course>22.04</course>
  <speed>5.173045524640199</speed>
  <fix>3d</fix>
</trkpt>
<trkpt lat="-27.2732338" lon="151.2902493">
  <ele>343.0</ele>
  <time>2026-09-01T19:56:57Z</time>
  <course>15.55</course>
  <speed>4.9931653287268585</speed>
  <fix>3d</fix>
</trkpt>
<trkpt lat="-27.2732209" lon="151.2902549">
  <ele>354.35</ele>
  <time>2026-09-01T19:56:57Z</time>
  <course>22.05</course>
  <speed>5.153794718457459</speed>
  <fix>3d</fix>
</trkpt>
<trkpt lat="-27.2732336" lon="151.2902509">
  <ele>353.42</ele>
  <time>2026-09-01T19:56:57Z</time>
  <course>15.73</course>
  <speed>5.22</speed>
  <fix>3d</fix>
</trkpt>
<trkpt lat="-27.2732207" lon="151.290255">
  <ele>354.36</ele>
  <time>2026-09-01T19:56:57Z</time>
  <course>22.05</course>
  <speed>5.153794718457459</speed>
  <fix>3d</fix>
</trkpt>
<trkpt lat="-27.2732164" lon="151.2902563">
  <ele>354.6</ele>
  <time>2026-09-01T19:56:57Z</time>
  <course>22.07</course>
  <speed>5.134549639452326</speed>
  <fix>3d</fix>
</trkpt>
<trkpt lat="-27.2732246" lon="151.2902538">
  <ele>353.91</ele>
  <time>2026-09-01T19:56:57Z</time>
  <course>15.78</course>
  <speed>5.18</speed>
  <fix>3d</fix>
</trkpt>
<trkpt lat="-27.2732163" lon="151.2902564">
  <ele>354.61</ele>
  <time>2026-09-01T19:56:57Z</time>
  <course>22.07</course>
  <speed>5.134549639452326</speed>
  <fix>3d</fix>
</trkpt>
<trkpt lat="-27.2732251" lon="151.290252">
  <ele>343.0</ele>
  <time>2026-09-01T19:56:57Z</time>
  <course>15.67</course>
  <speed>4.995858284619371</speed>
  <fix>3d</fix>
</trkpt>
<trkpt lat="-27.273212" lon="151.2902577">
  <ele>354.85</ele>
  <time>2026-09-01T19:56:57Z</time>
  <course>22.08</course>
  <speed>5.112582517671475</speed>
  <fix>3d</fix>
</trkpt>
<trkpt lat="-27.2732246" lon="151.2902538">
  <ele>353.91</ele>
  <time>2026-09-01T19:56:57Z</time>
  <course>15.78</course>
  <speed>5.18</speed>
  <fix>3d</fix>
</trkpt>
<trkpt lat="-27.2732117" lon="151.2902578">
  <ele>354.87</ele>
  <time>2026-09-01T19:56:57Z</time>
  <course>22.08</course>
  <speed>5.112582517671475</speed>
  <fix>3d</fix>
</trkpt>
<trkpt lat="-27.2732076" lon="151.2902591">
  <ele>355.1</ele>
  <time>2026-09-01T19:56:57Z</time>
  <course>22.09</course>
  <speed>5.093338787082595</speed>
  <fix>3d</fix>
</trkpt>
<trkpt lat="-27.2732156" lon="151.2902566">
  <ele>354.4</ele>
  <time>2026-09-01T19:56:57Z</time>
  <course>15.81</course>
  <speed>5.14</speed>
  <fix>3d</fix>
</trkpt>
<trkpt lat="-27.2732075" lon="151.2902592">
  <ele>355.11</ele>
  <time>2026-09-01T19:56:57Z</time>
  <course>22.09</course>
  <speed>5.093338787082595</speed>
  <fix>3d</fix>
</trkpt>
<trkpt lat="-27.2732165" lon="151.2902547">
  <ele>343.0</ele>
  <time>2026-09-01T19:56:57Z</time>
  <course>15.78</course>
  <speed>4.998569795451495</speed>
  <fix>3d</fix>
</trkpt>
<trkpt lat="-27.2732032" lon="151.2902605">
  <ele>355.35</ele>
  <time>2026-09-01T19:56:57Z</time>
  <course>22.1</course>
  <speed>5.074100905579233</speed>
  <fix>3d</fix>
</trkpt>
<trkpt lat="-27.2732156" lon="151.2902566">
  <ele>354.4</ele>
  <time>2026-09-01T19:56:57Z</time>
  <course>15.81</course>
  <speed>5.14</speed>
  <fix>3d</fix>
</trkpt>
<trkpt lat="-27.2732031" lon="151.2902606">
  <ele>355.36</ele>
  <time>2026-09-01T19:56:57Z</time>
  <course>22.1</course>
  <speed>5.074100905579233</speed>
  <fix>3d</fix>
</trkpt>
<trkpt lat="-27.2731989" lon="151.2902619">
  <ele>355.59</ele>
  <time>2026-09-01T19:56:57Z</time>
  <course>22.11</course>
  <speed>5.061748709685221</speed>
  <fix>3d</fix>
</trkpt>
<trkpt lat="-27.2732067" lon="151.2902595">
  <ele>354.89</ele>
  <time>2026-09-01T19:56:57Z</time>
  <course>15.85</course>
  <speed>5.11</speed>
  <fix>3d</fix>
</trkpt>
<trkpt lat="-27.2731987" lon="151.290262">
  <ele>355.6</ele>
  <time>2026-09-01T19:56:57Z</time>
  <course>22.11</course>
  <speed>5.052128264405012</speed>
  <fix>3d</fix>
</trkpt>
<trkpt lat="-27.2732078" lon="151.2902575">
  <ele>343.0</ele>
  <time>2026-09-01T19:56:57Z</time>
  <course>15.9</course>
  <speed>4.9889477848540364</speed>
  <fix>3d</fix>
</trkpt>
<trkpt lat="-27.2731945" lon="151.2902633">
  <ele>355.84</ele>
  <time>2026-09-01T19:56:57Z</time>
  <course>22.13</course>
  <speed>5.042509295975566</speed>
  <fix>3d</fix>
</trkpt>
<trkpt lat="-27.2732067" lon="151.2902595">
  <ele>354.89</ele>
  <time>2026-09-01T19:56:57Z</time>
  <course>15.85</course>
  <speed>5.11</speed>
  <fix>3d</fix>
</trkpt>
<trkpt lat="-27.2731943" lon="151.2902634">
  <ele>355.85</ele>
  <time>2026-09-01T19:56:57Z</time>
  <course>22.13</course>
  <speed>5.042509295975566</speed>
  <fix>3d</fix>
</trkpt>
<trkpt lat="-27.2731902" lon="151.2902647">
  <ele>356.09</ele>
  <time>2026-09-01T19:56:57Z</time>
  <course>22.14</course>
  <speed>5.020537819795804</speed>
  <fix>3d</fix>
</trkpt>
<trkpt lat="-27.273198" lon="151.2902623">
  <ele>355.38</ele>
  <time>2026-09-01T19:56:57Z</time>
  <course>15.87</course>
  <speed>5.07</speed>
  <fix>3d</fix>
</trkpt>
<trkpt lat="-27.27319" lon="151.2902648">
  <ele>356.1</ele>
  <time>2026-09-01T19:56:57Z</time>
  <course>22.14</course>
  <speed>5.020537819795804</speed>
  <fix>3d</fix>
</trkpt>
<trkpt lat="-27.2731992" lon="151.2902603">
  <ele>343.0</ele>
  <time>2026-09-01T19:56:57Z</time>
  <course>16.01</course>
  <speed>4.991683082888977</speed>
  <fix>3d</fix>
</trkpt>
<trkpt lat="-27.2731858" lon="151.2902661">
  <ele>356.34</ele>
  <time>2026-09-01T19:56:57Z</time>
  <course>22.15</course>
  <speed>5.001299831043926</speed>
  <fix>3d</fix>
</trkpt>
<trkpt lat="-27.273198" lon="151.2902623">
  <ele>355.38</ele>
  <time>2026-09-01T19:56:57Z</time>
  <course>15.87</course>
  <speed>5.07</speed>
  <fix>3d</fix>
</trkpt>
<trkpt lat="-27.2731857" lon="151.2902662">
  <ele>356.35</ele>
  <time>2026-09-01T19:56:57Z</time>
  <course>22.15</course>
  <speed>5.001299831043926</speed>
  <fix>3d</fix>
</trkpt>
<trkpt lat="-27.2731815" lon="151.2902675">
  <ele>356.58</ele>
  <time>2026-09-01T19:56:57Z</time>
  <course>22.17</course>
  <speed>4.982067843777321</speed>
  <fix>3d</fix>
</trkpt>
<trkpt lat="-27.2731892" lon="151.2902651">
  <ele>355.86</ele>
  <time>2026-09-01T19:56:57Z</time>
  <course>15.88</course>
  <speed>5.03</speed>
  <fix>3d</fix>
</trkpt>
<trkpt lat="-27.2731813" lon="151.2902676">
  <ele>356.59</ele>
  <time>2026-09-01T19:56:57Z</time>
  <course>22.17</course>
  <speed>4.982067843777321</speed>
  <fix>3d</fix>
</trkpt>
<trkpt lat="-27.2731906" lon="151.2902631">
  <ele>343.0</ele>
  <time>2026-09-01T19:56:57Z</time>
  <course>16.13</course>
  <speed>4.994436905197622</speed>
  <fix>3d</fix>
</trkpt>
<trkpt lat="-27.2731772" lon="151.2902689">
  <ele>356.83</ele>
  <time>2026-09-01T19:56:57Z</time>
  <course>22.18</course>
  <speed>4.960090724976712</speed>
  <fix>3d</fix>
</trkpt>
<trkpt lat="-27.2731892" lon="151.2902651">
  <ele>355.86</ele>
  <time>2026-09-01T19:56:57Z</time>
  <course>15.88</course>
  <speed>5.03</speed>
  <fix>3d</fix>
</trkpt>
<trkpt lat="-27.273177" lon="151.290269">
  <ele>356.84</ele>
  <time>2026-09-01T19:56:57Z</time>
  <course>22.18</course>
  <speed>4.960090724976712</speed>
  <fix>3d</fix>
</trkpt>
<trkpt lat="-27.2731729" lon="151.2902703">
  <ele>357.07</ele>
  <time>2026-09-01T19:56:57Z</time>
  <course>22.19</course>
  <speed>4.950474724710753</speed>
  <fix>3d</fix>
</trkpt>
<trkpt lat="-27.2731806" lon="151.2902679">
  <ele>356.35</ele>
  <time>2026-09-01T19:56:57Z</time>
  <course>15.88</course>
  <speed>4.99</speed>
  <fix>3d</fix>
</trkpt>
<trkpt lat="-27.2731727" lon="151.2902703">
  <ele>357.08</ele>
  <time>2026-09-01T19:56:57Z</time>
  <course>22.19</course>
  <speed>4.950474724710753</speed>
  <fix>3d</fix>
</trkpt>
<trkpt lat="-27.2731819" lon="151.2902659">
  <ele>343.0</ele>
  <time>2026-09-01T19:56:57Z</time>
  <course>16.24</course>
  <speed>4.997209221155344</speed>
  <fix>3d</fix>
</trkpt>
<trkpt lat="-27.2731686" lon="151.2902717">
  <ele>357.32</ele>
  <time>2026-09-01T19:56:57Z</time>
  <course>22.2</course>
  <speed>4.928498757228209</speed>
  <fix>3d</fix>
</trkpt>
<trkpt lat="-27.2731806" lon="151.2902679">
  <ele>356.35</ele>
  <time>2026-09-01T19:56:57Z</time>
  <course>15.88</course>
  <speed>4.99</speed>
  <fix>3d</fix>
</trkpt>
<trkpt lat="-27.2731685" lon="151.2902717">
  <ele>357.33</ele>
  <time>2026-09-01T19:56:57Z</time>
  <course>22.2</course>
  <speed>4.928498757228209</speed>
  <fix>3d</fix>
</trkpt>
<trkpt lat="-27.2731644" lon="151.290273">
  <ele>357.56</ele>
  <time>2026-09-01T19:56:57Z</time>
  <course>22.21</course>
  <speed>4.9092667476925715</speed>
  <fix>3d</fix>
</trkpt>
<trkpt lat="-27.273172" lon="151.2902706">
  <ele>356.84</ele>
  <time>2026-09-01T19:56:57Z</time>
  <course>15.86</course>
  <speed>4.95</speed>
  <fix>3d</fix>
</trkpt>
<trkpt lat="-27.2731643" lon="151.2902731">
  <ele>357.57</ele>
  <time>2026-09-01T19:56:57Z</time>
  <course>22.21</course>
  <speed>4.9092667476925715</speed>
  <fix>3d</fix>
</trkpt>
<trkpt lat="-27.2731733" lon="151.2902687">
  <ele>343.0</ele>
  <time>2026-09-01T19:56:57Z</time>
  <course>16.36</course>
  <speed>4.990400785508114</speed>
  <fix>3d</fix>
</trkpt>
<trkpt lat="-27.2731601" lon="151.2902744">
  <ele>357.81</ele>
  <time>2026-09-01T19:56:57Z</time>
  <course>22.22</course>
  <speed>4.899653048941323</speed>
  <fix>3d</fix>
</trkpt>
<trkpt lat="-27.273172" lon="151.2902706">
  <ele>356.84</ele>
  <time>2026-09-01T19:56:57Z</time>
  <course>15.86</course>
  <speed>4.95</speed>
  <fix>3d</fix>
</trkpt>
<trkpt lat="-27.2731598" lon="151.2902745">
  <ele>357.82</ele>
  <time>2026-09-01T19:56:57Z</time>
  <course>22.22</course>
  <speed>4.896907187194791</speed>
  <fix>3d</fix>
</trkpt>
<trkpt lat="-27.2731559" lon="151.2902758">
  <ele>358.05</ele>
  <time>2026-09-01T19:56:57Z</time>
  <course>22.23</course>
  <speed>4.877673625817947</speed>
  <fix>3d</fix>
</trkpt>
<trkpt lat="-27.2731634" lon="151.2902733">
  <ele>357.33</ele>
  <time>2026-09-01T19:56:57Z</time>
  <course>15.84</course>
  <speed>4.92</speed>
  <fix>3d</fix>
</trkpt>
<trkpt lat="-27.2731557" lon="151.2902758">
  <ele>358.06</ele>
  <time>2026-09-01T19:56:57Z</time>
  <course>22.23</course>
  <speed>4.877673625817947</speed>
  <fix>3d</fix>
</trkpt>
<trkpt lat="-27.2731647" lon="151.2902716">
  <ele>343.0</ele>
  <time>2026-09-01T19:56:57Z</time>
  <course>16.47</course>
  <speed>4.993215396916099</speed>
  <fix>3d</fix>
</trkpt>
<trkpt lat="-27.2731516" lon="151.2902771">
  <ele>358.3</ele>
  <time>2026-09-01T19:56:57Z</time>
  <course>22.24</course>
  <speed>4.86805916151396</speed>
  <fix>3d</fix>
</trkpt>
<trkpt lat="-27.2731634" lon="151.2902733">
  <ele>357.33</ele>
  <time>2026-09-01T19:56:57Z</time>
  <course>15.84</course>
  <speed>4.92</speed>
  <fix>3d</fix>
</trkpt>
<trkpt lat="-27.2731515" lon="151.2902772">
  <ele>358.31</ele>
  <time>2026-09-01T19:56:57Z</time>
  <course>22.24</course>
  <speed>4.86805916151396</speed>
  <fix>3d</fix>
</trkpt>
<trkpt lat="-27.2731474" lon="151.2902785">
  <ele>358.54</ele>
  <time>2026-09-01T19:56:57Z</time>
  <course>22.25</course>
  <speed>4.858446253690577</speed>
  <fix>3d</fix>
</trkpt>
<trkpt lat="-27.273155" lon="151.290276">
  <ele>357.82</ele>
  <time>2026-09-01T19:56:57Z</time>
  <course>15.83</course>
  <speed>4.88</speed>
  <fix>3d</fix>
</trkpt>
<trkpt lat="-27.2731473" lon="151.2902785">
  <ele>358.55</ele>
  <time>2026-09-01T19:56:57Z</time>
  <course>22.25</course>
  <speed>4.858446253690577</speed>
  <fix>3d</fix>
</trkpt>
<trkpt lat="-27.2731561" lon="151.2902744">
  <ele>343.0</ele>
  <time>2026-09-01T19:56:57Z</time>
  <course>16.58</course>
  <speed>4.996048438516184</speed>
  <fix>3d</fix>
</trkpt>
<trkpt lat="-27.2731432" lon="151.2902798">
  <ele>358.79</ele>
  <time>2026-09-01T19:56:57Z</time>
  <course>22.25</course>
  <speed>4.846080890781746</speed>
  <fix>3d</fix>
</trkpt>
<trkpt lat="-27.273155" lon="151.290276">
  <ele>357.82</ele>
  <time>2026-09-01T19:56:57Z</time>
  <course>15.83</course>
  <speed>4.88</speed>
  <fix>3d</fix>
</trkpt>
<trkpt lat="-27.2731431" lon="151.2902799">
  <ele>358.8</ele>
  <time>2026-09-01T19:56:57Z</time>
  <course>22.25</course>
  <speed>4.836465651692359</speed>
  <fix>3d</fix>
</trkpt>
<trkpt lat="-27.2731391" lon="151.2902811">
  <ele>359.04</ele>
  <time>2026-09-01T19:56:57Z</time>
  <course>22.26</course>
  <speed>4.8268519761848925</speed>
  <fix>3d</fix>
</trkpt>
<trkpt lat="-27.2731465" lon="151.2902787">
  <ele>358.32</ele>
  <time>2026-09-01T19:56:57Z</time>
  <course>15.82</course>
  <speed>4.86</speed>
  <fix>3d</fix>
</trkpt>
<trkpt lat="-27.2731389" lon="151.2902812">
  <ele>359.05</ele>
  <time>2026-09-01T19:56:57Z</time>
  <course>22.26</course>
  <speed>4.8268519761848925</speed>
  <fix>3d</fix>
</trkpt>
<trkpt lat="-27.2731475" lon="151.2902773">
  <ele>343.0</ele>
  <time>2026-09-01T19:56:57Z</time>
  <course>16.7</course>
  <speed>4.989318590749643</speed>
  <fix>3d</fix>
</trkpt>
<trkpt lat="-27.2731349" lon="151.2902825">
  <ele>359.29</ele>
  <time>2026-09-01T19:56:57Z</time>
  <course>22.26</course>
  <speed>4.8172398736205775</speed>
  <fix>3d</fix>
</trkpt>
<trkpt lat="-27.2731465" lon="151.2902787">
  <ele>358.32</ele>
  <time>2026-09-01T19:56:57Z</time>
  <course>15.82</course>
  <speed>4.86</speed>
  <fix>3d</fix>
</trkpt>
<trkpt lat="-27.2731347" lon="151.2902825">
  <ele>359.3</ele>
  <time>2026-09-01T19:56:57Z</time>
  <course>22.26</course>
  <speed>4.8172398736205775</speed>
  <fix>3d</fix>
</trkpt>
<trkpt lat="-27.2731307" lon="151.2902838">
  <ele>359.54</ele>
  <time>2026-09-01T19:56:57Z</time>
  <course>22.27</course>
  <speed>4.807629353433978</speed>
  <fix>3d</fix>
</trkpt>
<trkpt lat="-27.2731382" lon="151.2902814">
  <ele>358.81</ele>
  <time>2026-09-01T19:56:57Z</time>
  <course>15.83</course>
  <speed>4.83</speed>
  <fix>3d</fix>
</trkpt>
<trkpt lat="-27.2731306" lon="151.2902839">
  <ele>359.55</ele>
  <time>2026-09-01T19:56:57Z</time>
  <course>22.27</course>
  <speed>4.807629353433978</speed>
  <fix>3d</fix>
</trkpt>
<trkpt lat="-27.2731389" lon="151.2902803">
  <ele>343.0</ele>
  <time>2026-09-01T19:56:57Z</time>
  <course>16.81</course>
  <speed>4.992193906490412</speed>
  <fix>3d</fix>
</trkpt>
<trkpt lat="-27.2731266" lon="151.2902852">
  <ele>359.8</ele>
  <time>2026-09-01T19:56:57Z</time>
  <course>22.28</course>
  <speed>4.807629353433978</speed>
  <fix>3d</fix>
</trkpt>
<trkpt lat="-27.2731382" lon="151.2902814">
  <ele>358.81</ele>
  <time>2026-09-01T19:56:57Z</time>
  <course>15.83</course>
  <speed>4.83</speed>
  <fix>3d</fix>
</trkpt>
<trkpt lat="-27.2731264" lon="151.2902852">
  <ele>359.81</ele>
  <time>2026-09-01T19:56:57Z</time>
  <course>22.28</course>
  <speed>4.798020425133682</speed>
  <fix>3d</fix>
</trkpt>
<trkpt lat="-27.2731224" lon="151.2902865">
  <ele>360.05</ele>
  <time>2026-09-01T19:56:57Z</time>
  <course>22.28</course>
  <speed>4.798020425133682</speed>
  <fix>3d</fix>
</trkpt>
<trkpt lat="-27.2731298" lon="151.2902841">
  <ele>359.31</ele>
  <time>2026-09-01T19:56:57Z</time>
  <course>15.85</course>
  <speed>4.81</speed>
  <fix>3d</fix>
</trkpt>
<trkpt lat="-27.2731223" lon="151.2902865">
  <ele>360.06</ele>
  <time>2026-09-01T19:56:57Z</time>
  <course>22.29</course>
  <speed>4.798020425133682</speed>
  <fix>3d</fix>
</trkpt>
<trkpt lat="-27.2731303" lon="151.2902832">
  <ele>343.0</ele>
  <time>2026-09-01T19:56:57Z</time>
  <course>16.93</course>
  <speed>4.9950875868196745</speed>
  <fix>3d</fix>
</trkpt>
<trkpt lat="-27.2731183" lon="151.2902878">
  <ele>360.3</ele>
  <time>2026-09-01T19:56:57Z</time>
  <course>22.29</course>
  <speed>4.788413098303027</speed>
  <fix>3d</fix>
</trkpt>
<trkpt lat="-27.2731298" lon="151.2902841">
  <ele>359.31</ele>
  <time>2026-09-01T19:56:57Z</time>
  <course>15.85</course>
  <speed>4.81</speed>
  <fix>3d</fix>
</trkpt>
<trkpt lat="-27.2731181" lon="151.2902879">
  <ele>360.31</ele>
  <time>2026-09-01T19:56:57Z</time>
  <course>22.29</course>
  <speed>4.788413098303027</speed>
  <fix>3d</fix>
</trkpt>
<trkpt lat="-27.2731141" lon="151.2902892">
  <ele>360.55</ele>
  <time>2026-09-01T19:56:57Z</time>
  <course>22.3</course>
  <speed>4.778807382600809</speed>
  <fix>3d</fix>
</trkpt>
<trkpt lat="-27.2731215" lon="151.2902867">
  <ele>359.81</ele>
  <time>2026-09-01T19:56:57Z</time>
  <course>15.87</course>
  <speed>4.8</speed>
  <fix>3d</fix>
</trkpt>
<trkpt lat="-27.273114" lon="151.2902892">
  <ele>360.56</ele>
  <time>2026-09-01T19:56:57Z</time>
  <course>22.3</course>
  <speed>4.778807382600809</speed>
  <fix>3d</fix>
</trkpt>
<trkpt lat="-27.2731217" lon="151.2902861">
  <ele>343.0</ele>
  <time>2026-09-01T19:56:57Z</time>
  <course>17.04</course>
  <speed>4.99799959983992</speed>
  <fix>3d</fix>
</trkpt>
<trkpt lat="-27.27311" lon="151.2902905">
  <ele>360.8</ele>
  <time>2026-09-01T19:56:57Z</time>
  <course>22.31</course>
  <speed>4.769203287762013</speed>
  <fix>3d</fix>
</trkpt>
<trkpt lat="-27.2731215" lon="151.2902867">
  <ele>359.81</ele>
  <time>2026-09-01T19:56:57Z</time>
  <course>15.87</course>
  <speed>4.8</speed>
  <fix>3d</fix>
</trkpt>
<trkpt lat="-27.2731097" lon="151.2902906">
  <ele>360.82</ele>
  <time>2026-09-01T19:56:57Z</time>
  <course>22.31</course>
  <speed>4.77200167644564</speed>
  <fix>3d</fix>
</trkpt>
<trkpt lat="-27.2731059" lon="151.2902918">
  <ele>361.05</ele>
  <time>2026-09-01T19:56:57Z</time>
  <course>22.32</course>
  <speed>4.77200167644564</speed>
  <fix>3d</fix>
</trkpt>
<trkpt lat="-27.2731132" lon="151.2902894">
  <ele>360.31</ele>
  <time>2026-09-01T19:56:57Z</time>
  <course>15.91</course>
  <speed>4.78</speed>
  <fix>3d</fix>
</trkpt>
<trkpt lat="-27.2731057" lon="151.2902919">
  <ele>361.06</ele>
  <time>2026-09-01T19:56:57Z</time>
  <course>22.32</course>
  <speed>4.77200167644564</speed>
  <fix>3d</fix>
</trkpt>
<trkpt lat="-27.2731131" lon="151.2902891">
  <ele>343.0</ele>
  <time>2026-09-01T19:56:57Z</time>
  <course>17.16</course>
  <speed>4.991372556722249</speed>
  <fix>3d</fix>
</trkpt>
<trkpt lat="-27.2731018" lon="151.2902932">
  <ele>361.3</ele>
  <time>2026-09-01T19:56:57Z</time>
  <course>22.32</course>
  <speed>4.762404854692637</speed>
  <fix>3d</fix>
</trkpt>
<trkpt lat="-27.2731132" lon="151.2902894">
  <ele>360.31</ele>
  <time>2026-09-01T19:56:57Z</time>
  <course>15.91</course>
  <speed>4.78</speed>
  <fix>3d</fix>
</trkpt>
<trkpt lat="-27.2731016" lon="151.2902932">
  <ele>361.31</ele>
  <time>2026-09-01T19:56:57Z</time>
  <course>22.32</course>
  <speed>4.762404854692637</speed>
  <fix>3d</fix>
</trkpt>
<trkpt lat="-27.2730977" lon="151.2902945">
  <ele>361.55</ele>
  <time>2026-09-01T19:56:57Z</time>
  <course>22.33</course>
  <speed>4.762404854692637</speed>
  <fix>3d</fix>
</trkpt>
<trkpt lat="-27.273105" lon="151.290292">
  <ele>360.8</ele>
  <time>2026-09-01T19:56:57Z</time>
  <course>15.97</course>
  <speed>4.77</speed>
  <fix>3d</fix>
</trkpt>
<trkpt lat="-27.2730975" lon="151.2902946">
  <ele>361.56</ele>
  <time>2026-09-01T19:56:57Z</time>
  <course>22.33</course>
  <speed>4.762404854692637</speed>
  <fix>3d</fix>
</trkpt>
<trkpt lat="-27.2731045" lon="151.2902921">
  <ele>343.0</ele>
  <time>2026-09-01T19:56:57Z</time>
  <course>17.27</course>
  <speed>4.994326781459139</speed>
  <fix>3d</fix>
</trkpt>
<trkpt lat="-27.2730935" lon="151.2902959">
  <ele>361.8</ele>
  <time>2026-09-01T19:56:57Z</time>
  <course>22.34</course>
  <speed>4.7528096953275965</speed>
  <fix>3d</fix>
</trkpt>
<trkpt lat="-27.273105" lon="151.290292">
  <ele>360.8</ele>
  <time>2026-09-01T19:56:57Z</time>
  <course>15.97</course>
  <speed>4.77</speed>
  <fix>3d</fix>
</trkpt>
<trkpt lat="-27.2730934" lon="151.2902959">
  <ele>361.81</ele>
  <time>2026-09-01T19:56:57Z</time>
  <course>22.34</course>
  <speed>4.755638758358334</speed>
  <fix>3d</fix>
</trkpt>
<trkpt lat="-27.2730894" lon="151.2902972">
  <ele>362.04</ele>
  <time>2026-09-01T19:56:57Z</time>
  <course>22.35</course>
  <speed>4.755638758358334</speed>
  <fix>3d</fix>
</trkpt>
<trkpt lat="-27.2730967" lon="151.2902947">
  <ele>361.3</ele>
  <time>2026-09-01T19:56:57Z</time>
  <course>16.04</course>
  <speed>4.76</speed>
  <fix>3d</fix>
</trkpt>
<trkpt lat="-27.2730893" lon="151.2902973">
  <ele>362.05</ele>
  <time>2026-09-01T19:56:57Z</time>
  <course>22.35</course>
  <speed>4.755638758358334</speed>
  <fix>3d</fix>
</trkpt>
<trkpt lat="-27.273096" lon="151.2902951">
  <ele>343.0</ele>
  <time>2026-09-01T19:56:57Z</time>
  <course>17.39</course>
  <speed>4.997299270606074</speed>
  <fix>3d</fix>
</trkpt>
<trkpt lat="-27.2730853" lon="151.2902986">
  <ele>362.29</ele>
  <time>2026-09-01T19:56:57Z</time>
  <course>22.35</course>
  <speed>4.755638758358334</speed>
  <fix>3d</fix>
</trkpt>
<trkpt lat="-27.2730967" lon="151.2902947">
  <ele>361.3</ele>
  <time>2026-09-01T19:56:57Z</time>
  <course>16.04</course>
  <speed>4.76</speed>
  <fix>3d</fix>
</trkpt>
<trkpt lat="-27.2730852" lon="151.2902986">
  <ele>362.3</ele>
  <time>2026-09-01T19:56:57Z</time>
  <course>22.35</course>
  <speed>4.755638758358334</speed>
  <fix>3d</fix>
</trkpt>
<trkpt lat="-27.2730812" lon="151.2902999">
  <ele>362.54</ele>
  <time>2026-09-01T19:56:57Z</time>
  <course>22.36</course>
  <speed>4.746050990033714</speed>
  <fix>3d</fix>
</trkpt>
<trkpt lat="-27.2730885" lon="151.2902973">
  <ele>361.79</ele>
  <time>2026-09-01T19:56:57Z</time>
  <course>16.1</course>
  <speed>4.75</speed>
  <fix>3d</fix>
</trkpt>
<trkpt lat="-27.2730811" lon="151.2902999">
  <ele>362.55</ele>
  <time>2026-09-01T19:56:57Z</time>
  <course>22.36</course>
  <speed>4.746050990033714</speed>
  <fix>3d</fix>
</trkpt>
<trkpt lat="-27.2730874" lon="151.2902982">
  <ele>343.0</ele>
  <time>2026-09-01T19:56:57Z</time>
  <course>17.5</course>
  <speed>4.990751446425678</speed>
  <fix>3d</fix>
</trkpt>
<trkpt lat="-27.2730771" lon="151.2903013">
  <ele>362.79</ele>
  <time>2026-09-01T19:56:57Z</time>
  <course>22.37</course>
  <speed>4.748905136976312</speed>
  <fix>3d</fix>
</trkpt>
<trkpt lat="-27.2730885" lon="151.2902973">
  <ele>361.79</ele>
  <time>2026-09-01T19:56:57Z</time>
  <course>16.1</course>
  <speed>4.75</speed>
  <fix>3d</fix>
</trkpt>
<trkpt lat="-27.273077" lon="151.2903013">
  <ele>362.8</ele>
  <time>2026-09-01T19:56:57Z</time>
  <course>22.37</course>
  <speed>4.748905136976312</speed>
  <fix>3d</fix>
</trkpt>
<trkpt lat="-27.273073" lon="151.2903026">
  <ele>363.04</ele>
  <time>2026-09-01T19:56:57Z</time>
  <course>22.39</course>
  <speed>4.748905136976312</speed>
  <fix>3d</fix>
</trkpt>
<trkpt lat="-27.2730802" lon="151.2903">
  <ele>362.29</ele>
  <time>2026-09-01T19:56:57Z</time>
  <course>16.17</course>
  <speed>4.75</speed>
  <fix>3d</fix>
</trkpt>
<trkpt lat="-27.2730729" lon="151.2903026">
  <ele>363.05</ele>
  <time>2026-09-01T19:56:57Z</time>
  <course>22.39</course>
  <speed>4.748905136976312</speed>
  <fix>3d</fix>
</trkpt>
<trkpt lat="-27.2730788" lon="151.2903012">
  <ele>343.0</ele>
  <time>2026-09-01T19:56:57Z</time>
  <course>17.61</course>
  <speed>4.993766113866368</speed>
  <fix>3d</fix>
</trkpt>
<trkpt lat="-27.2730689" lon="151.290304">
  <ele>363.29</ele>
  <time>2026-09-01T19:56:57Z</time>
  <course>22.4</course>
  <speed>4.751778614371676</speed>
  <fix>3d</fix>
</trkpt>
<trkpt lat="-27.2730802" lon="151.2903">
  <ele>362.29</ele>
  <time>2026-09-01T19:56:57Z</time>
  <course>16.17</course>
  <speed>4.75</speed>
  <fix>3d</fix>
</trkpt>
<trkpt lat="-27.2730688" lon="151.290304">
  <ele>363.3</ele>
  <time>2026-09-01T19:56:57Z</time>
  <course>22.4</course>
  <speed>4.751778614371676</speed>
  <fix>3d</fix>
</trkpt>
<trkpt lat="-27.2730648" lon="151.2903053">
  <ele>363.54</ele>
  <time>2026-09-01T19:56:57Z</time>
  <course>22.41</course>
  <speed>4.751778614371676</speed>
  <fix>3d</fix>
</trkpt>
<trkpt lat="-27.2730721" lon="151.2903027">
  <ele>362.78</ele>
  <time>2026-09-01T19:56:57Z</time>
  <course>16.25</course>
  <speed>4.75</speed>
  <fix>3d</fix>
</trkpt>
<trkpt lat="-27.2730647" lon="151.2903054">
  <ele>363.54</ele>
  <time>2026-09-01T19:56:57Z</time>
  <course>22.41</course>
  <speed>4.751778614371676</speed>
  <fix>3d</fix>
</trkpt>
<trkpt lat="-27.2730703" lon="151.2903043">
  <ele>343.0</ele>
  <time>2026-09-01T19:56:57Z</time>
  <course>17.73</course>
  <speed>4.996798975344115</speed>
  <fix>3d</fix>
</trkpt>
<trkpt lat="-27.2730607" lon="151.2903067">
  <ele>363.79</ele>
  <time>2026-09-01T19:56:57Z</time>
  <course>22.42</course>
  <speed>4.75467138717283</speed>
  <fix>3d</fix>
</trkpt>
<trkpt lat="-27.2730721" lon="151.2903027">
  <ele>362.78</ele>
  <time>2026-09-01T19:56:57Z</time>
  <course>16.25</course>
  <speed>4.75</speed>
  <fix>3d</fix>
</trkpt>
<trkpt lat="-27.2730604" lon="151.2903068">
  <ele>363.8</ele>
  <time>2026-09-01T19:56:57Z</time>
  <course>22.42</course>
  <speed>4.75467138717283</speed>
  <fix>3d</fix>
</trkpt>
<trkpt lat="-27.2730566" lon="151.2903081">
  <ele>364.04</ele>
  <time>2026-09-01T19:56:57Z</time>
  <course>22.42</course>
  <speed>4.75467138717283</speed>
  <fix>3d</fix>
</trkpt>
<trkpt lat="-27.2730638" lon="151.2903054">
  <ele>363.28</ele>
  <time>2026-09-01T19:56:57Z</time>
  <course>16.35</course>
  <speed>4.75</speed>
  <fix>3d</fix>
</trkpt>
<trkpt lat="-27.2730564" lon="151.2903081">
  <ele>364.04</ele>
  <time>2026-09-01T19:56:57Z</time>
  <course>22.42</course>
  <speed>4.75467138717283</speed>
  <fix>3d</fix>
</trkpt>
<trkpt lat="-27.2730617" lon="151.2903074">
  <ele>343.0</ele>
  <time>2026-09-01T19:56:57Z</time>
  <course>17.84</course>
  <speed>4.99033065036777</speed>
  <fix>3d</fix>
</trkpt>
<trkpt lat="-27.2730524" lon="151.2903094">
  <ele>364.29</ele>
  <time>2026-09-01T19:56:57Z</time>
  <course>22.43</course>
  <speed>4.757583420182982</speed>
  <fix>3d</fix>
</trkpt>
<trkpt lat="-27.2730638" lon="151.2903054">
  <ele>363.28</ele>
  <time>2026-09-01T19:56:57Z</time>
  <course>16.35</course>
  <speed>4.75</speed>
  <fix>3d</fix>
</trkpt>
<trkpt lat="-27.2730522" lon="151.2903095">
  <ele>364.3</ele>
  <time>2026-09-01T19:56:57Z</time>
  <course>22.43</course>
  <speed>4.757583420182982</speed>
  <fix>3d</fix>
</trkpt>
<trkpt lat="-27.2730483" lon="151.2903108">
  <ele>364.54</ele>
  <time>2026-09-01T19:56:57Z</time>
  <course>22.43</course>
  <speed>4.7605146780574055</speed>
  <fix>3d</fix>
</trkpt>
<trkpt lat="-27.2730557" lon="151.2903081">
  <ele>363.77</ele>
  <time>2026-09-01T19:56:57Z</time>
  <course>16.47</course>
  <speed>4.75</speed>
  <fix>3d</fix>
</trkpt>
<trkpt lat="-27.2730482" lon="151.2903109">
  <ele>364.54</ele>
  <time>2026-09-01T19:56:57Z</time>
  <course>22.43</course>
  <speed>4.7605146780574055</speed>
  <fix>3d</fix>
</trkpt>
<trkpt lat="-27.2730532" lon="151.2903105">
  <ele>343.0</ele>
  <time>2026-09-01T19:56:57Z</time>
  <course>17.96</course>
  <speed>4.993405651456729</speed>
  <fix>3d</fix>
</trkpt>
<trkpt lat="-27.2730442" lon="151.2903122">
  <ele>364.78</ele>
  <time>2026-09-01T19:56:57Z</time>
  <course>22.44</course>
  <speed>4.7605146780574055</speed>
  <fix>3d</fix>
</trkpt>
<trkpt lat="-27.2730557" lon="151.2903081">
  <ele>363.77</ele>
  <time>2026-09-01T19:56:57Z</time>
  <course>16.47</course>
  <speed>4.75</speed>
  <fix>3d</fix>
</trkpt>
<trkpt lat="-27.2730441" lon="151.2903122">
  <ele>364.79</ele>
  <time>2026-09-01T19:56:57Z</time>
  <course>22.44</course>
  <speed>4.7605146780574055</speed>
  <fix>3d</fix>
</trkpt>
<trkpt lat="-27.2730401" lon="151.2903136">
  <ele>365.03</ele>
  <time>2026-09-01T19:56:57Z</time>
  <course>22.45</course>
  <speed>4.763465125305317</speed>
  <fix>3d</fix>
</trkpt>
<trkpt lat="-27.2730474" lon="151.2903109">
  <ele>364.27</ele>
  <time>2026-09-01T19:56:57Z</time>
  <course>16.59</course>
  <speed>4.75</speed>
  <fix>3d</fix>
</trkpt>
<trkpt lat="-27.27304" lon="151.2903136">
  <ele>365.04</ele>
  <time>2026-09-01T19:56:57Z</time>
  <course>22.46</course>
  <speed>4.763465125305317</speed>
  <fix>3d</fix>
</trkpt>
<trkpt lat="-27.2730446" lon="151.2903136">
  <ele>343.0</ele>
  <time>2026-09-01T19:56:57Z</time>
  <course>18.07</course>
  <speed>4.996498774141749</speed>
  <fix>3d</fix>
</trkpt>
<trkpt lat="-27.273036" lon="151.290315">
  <ele>365.28</ele>
  <time>2026-09-01T19:56:57Z</time>
  <course>22.46</course>
  <speed>4.763465125305317</speed>
  <fix>3d</fix>
</trkpt>
<trkpt lat="-27.2730474" lon="151.2903109">
  <ele>364.27</ele>
  <time>2026-09-01T19:56:57Z</time>
  <course>16.59</course>
  <speed>4.75</speed>
  <fix>3d</fix>
</trkpt>
<trkpt lat="-27.2730354" lon="151.2903152">
  <ele>365.31</ele>
  <time>2026-09-01T19:56:57Z</time>
  <course>22.47</course>
  <speed>4.763465125305317</speed>
  <fix>3d</fix>
</trkpt>
<trkpt lat="-27.2730319" lon="151.2903164">
  <ele>365.53</ele>
  <time>2026-09-01T19:56:57Z</time>
  <course>22.47</course>
  <speed>4.7664347262917595</speed>
  <fix>3d</fix>
</trkpt>
<trkpt lat="-27.2730393" lon="151.2903136">
  <ele>364.76</ele>
  <time>2026-09-01T19:56:57Z</time>
  <course>16.71</course>
  <speed>4.76</speed>
  <fix>3d</fix>
</trkpt>
<trkpt lat="-27.2730317" lon="151.2903164">
  <ele>365.54</ele>
  <time>2026-09-01T19:56:57Z</time>
  <course>22.47</course>
  <speed>4.7664347262917595</speed>
  <fix>3d</fix>
</trkpt>
<trkpt lat="-27.2730361" lon="151.2903167">
  <ele>343.0</ele>
  <time>2026-09-01T19:56:57Z</time>
  <course>18.19</course>
  <speed>4.999609984788814</speed>
  <fix>3d</fix>
</trkpt>
<trkpt lat="-27.2730278" lon="151.2903178">
  <ele>365.77</ele>
  <time>2026-09-01T19:56:57Z</time>
  <course>22.47</course>
  <speed>4.769423445239477</speed>
  <fix>3d</fix>
</trkpt>
<trkpt lat="-27.2730393" lon="151.2903136">
  <ele>364.76</ele>
  <time>2026-09-01T19:56:57Z</time>
  <course>16.71</course>
  <speed>4.76</speed>
  <fix>3d</fix>
</trkpt>
<trkpt lat="-27.2730276" lon="151.2903179">
  <ele>365.78</ele>
  <time>2026-09-01T19:56:57Z</time>
  <course>22.47</course>
  <speed>4.769423445239477</speed>
  <fix>3d</fix>
</trkpt>
<trkpt lat="-27.2730237" lon="151.2903192">
  <ele>366.02</ele>
  <time>2026-09-01T19:56:57Z</time>
  <course>22.48</course>
  <speed>4.769423445239477</speed>
  <fix>3d</fix>
</trkpt>
<trkpt lat="-27.2730311" lon="151.2903164">
  <ele>365.26</ele>
  <time>2026-09-01T19:56:57Z</time>
  <course>16.85</course>
  <speed>4.76</speed>
  <fix>3d</fix>
</trkpt>
<trkpt lat="-27.2730235" lon="151.2903193">
  <ele>366.03</ele>
  <time>2026-09-01T19:56:57Z</time>
  <course>22.48</course>
  <speed>4.769423445239477</speed>
  <fix>3d</fix>
</trkpt>
<trkpt lat="-27.2730276" lon="151.2903199">
  <ele>343.0</ele>
  <time>2026-09-01T19:56:57Z</time>
  <course>18.3</course>
  <speed>4.993245437588663</speed>
  <fix>3d</fix>
</trkpt>
<trkpt lat="-27.2730196" lon="151.2903206">
  <ele>366.27</ele>
  <time>2026-09-01T19:56:57Z</time>
  <course>22.49</course>
  <speed>4.772431246230793</speed>
  <fix>3d</fix>
</trkpt>
<trkpt lat="-27.2730311" lon="151.2903164">
  <ele>365.26</ele>
  <time>2026-09-01T19:56:57Z</time>
  <course>16.85</course>
  <speed>4.76</speed>
  <fix>3d</fix>
</trkpt>
<trkpt lat="-27.2730194" lon="151.2903207">
  <ele>366.28</ele>
  <time>2026-09-01T19:56:57Z</time>
  <course>22.49</course>
  <speed>4.772431246230793</speed>
  <fix>3d</fix>
</trkpt>
<trkpt lat="-27.2730155" lon="151.2903221">
  <ele>366.52</ele>
  <time>2026-09-01T19:56:57Z</time>
  <course>22.5</course>
  <speed>4.78498693833118</speed>
  <fix>3d</fix>
</trkpt>
<trkpt lat="-27.2730229" lon="151.2903192">
  <ele>365.76</ele>
  <time>2026-09-01T19:56:57Z</time>
  <course>16.99</course>
  <speed>4.77</speed>
  <fix>3d</fix>
</trkpt>
<trkpt lat="-27.2730153" lon="151.2903221">
  <ele>366.53</ele>
  <time>2026-09-01T19:56:57Z</time>
  <course>22.5</course>
  <speed>4.78498693833118</speed>
  <fix>3d</fix>
</trkpt>
<trkpt lat="-27.273019" lon="151.2903231">
  <ele>343.0</ele>
  <time>2026-09-01T19:56:57Z</time>
  <course>18.42</course>
  <speed>4.993245437588663</speed>
  <fix>3d</fix>
</trkpt>
<trkpt lat="-27.2730114" lon="151.2903235">
  <ele>366.77</ele>
  <time>2026-09-01T19:56:57Z</time>
  <course>22.51</course>
  <speed>4.78498693833118</speed>
  <fix>3d</fix>
</trkpt>
<trkpt lat="-27.2730229" lon="151.2903192">
  <ele>365.76</ele>
  <time>2026-09-01T19:56:57Z</time>
  <course>16.99</course>
  <speed>4.77</speed>
  <fix>3d</fix>
</trkpt>
<trkpt lat="-27.2730102" lon="151.2903239">
  <ele>366.84</ele>
  <time>2026-09-01T19:56:57Z</time>
  <course>22.51</course>
  <speed>4.788026733425785</speed>
  <fix>3d</fix>
</trkpt>
<trkpt lat="-27.2730072" lon="151.2903249">
  <ele>367.02</ele>
  <time>2026-09-01T19:56:57Z</time>
  <course>22.52</course>
  <speed>4.788026733425785</speed>
  <fix>3d</fix>
</trkpt>
<trkpt lat="-27.2730147" lon="151.2903221">
  <ele>366.25</ele>
  <time>2026-09-01T19:56:57Z</time>
  <course>17.13</course>
  <speed>4.78</speed>
  <fix>3d</fix>
</trkpt>
<trkpt lat="-27.2730071" lon="151.290325">
  <ele>367.03</ele>
  <time>2026-09-01T19:56:57Z</time>
  <course>22.52</course>
  <speed>4.788026733425785</speed>
  <fix>3d</fix>
</trkpt>
<trkpt lat="-27.2730105" lon="151.2903263">
  <ele>343.0</ele>
  <time>2026-09-01T19:56:57Z</time>
  <course>18.53</course>
  <speed>4.996398703066039</speed>
  <fix>3d</fix>
</trkpt>
<trkpt lat="-27.2730031" lon="151.2903264">
  <ele>367.27</ele>
  <time>2026-09-01T19:56:57Z</time>
  <course>22.53</course>
  <speed>4.791085471999012</speed>
  <fix>3d</fix>
</trkpt>
<trkpt lat="-27.2730147" lon="151.2903221">
  <ele>366.25</ele>
  <time>2026-09-01T19:56:57Z</time>
  <course>17.13</course>
  <speed>4.78</speed>
  <fix>3d</fix>
</trkpt>
<trkpt lat="-27.273003" lon="151.2903264">
  <ele>367.28</ele>
  <time>2026-09-01T19:56:57Z</time>
  <course>22.53</course>
  <speed>4.791085471999012</speed>
  <fix>3d</fix>
</trkpt>
<trkpt lat="-27.272999" lon="151.2903278">
  <ele>367.52</ele>
  <time>2026-09-01T19:56:57Z</time>
  <course>22.53</course>
  <speed>4.800604128648811</speed>
  <fix>3d</fix>
</trkpt>
<trkpt lat="-27.2730065" lon="151.2903249">
  <ele>366.75</ele>
  <time>2026-09-01T19:56:57Z</time>
  <course>17.27</course>
  <speed>4.78</speed>
  <fix>3d</fix>
</trkpt>
<trkpt lat="-27.2729988" lon="151.2903279">
  <ele>367.53</ele>
  <time>2026-09-01T19:56:57Z</time>
  <course>22.53</course>
  <speed>4.800604128648811</speed>
  <fix>3d</fix>
</trkpt>
<trkpt lat="-27.273002" lon="151.2903295">
  <ele>343.0</ele>
  <time>2026-09-01T19:56:57Z</time>
  <course>18.65</course>
  <speed>4.990090179545857</speed>
  <fix>3d</fix>
</trkpt>
<trkpt lat="-27.2729949" lon="151.2903293">
  <ele>367.77</ele>
  <time>2026-09-01T19:56:57Z</time>
  <course>22.54</course>
  <speed>4.803675675979801</speed>
  <fix>3d</fix>
</trkpt>
<trkpt lat="-27.2730065" lon="151.2903249">
  <ele>366.75</ele>
  <time>2026-09-01T19:56:57Z</time>
  <course>17.27</course>
  <speed>4.78</speed>
  <fix>3d</fix>
</trkpt>
<trkpt lat="-27.2729947" lon="151.2903294">
  <ele>367.78</ele>
  <time>2026-09-01T19:56:57Z</time>
  <course>22.54</course>
  <speed>4.803675675979801</speed>
  <fix>3d</fix>
</trkpt>
<trkpt lat="-27.2729907" lon="151.2903308">
  <ele>368.02</ele>
  <time>2026-09-01T19:56:57Z</time>
  <course>22.54</course>
  <speed>4.806766064621827</speed>
  <fix>3d</fix>
</trkpt>
<trkpt lat="-27.2729983" lon="151.2903278">
  <ele>367.25</ele>
  <time>2026-09-01T19:56:57Z</time>
  <course>17.41</course>
  <speed>4.79</speed>
  <fix>3d</fix>
</trkpt>
<trkpt lat="-27.2729906" lon="151.2903308">
  <ele>368.02</ele>
  <time>2026-09-01T19:56:57Z</time>
  <course>22.54</course>
  <speed>4.806766064621827</speed>
  <fix>3d</fix>
</trkpt>
<trkpt lat="-27.2729935" lon="151.2903328">
  <ele>343.0</ele>
  <time>2026-09-01T19:56:57Z</time>
  <course>18.76</course>
  <speed>4.993285491537611</speed>
  <fix>3d</fix>
</trkpt>
<trkpt lat="-27.2729866" lon="151.2903322">
  <ele>368.27</ele>
  <time>2026-09-01T19:56:57Z</time>
  <course>22.56</course>
  <speed>4.806766064621827</speed>
  <fix>3d</fix>
</trkpt>
<trkpt lat="-27.2729983" lon="151.2903278">
  <ele>367.25</ele>
  <time>2026-09-01T19:56:57Z</time>
  <course>17.41</course>
  <speed>4.79</speed>
  <fix>3d</fix>
</trkpt>
<trkpt lat="-27.2729865" lon="151.2903323">
  <ele>368.27</ele>
  <time>2026-09-01T19:56:57Z</time>
  <course>22.56</course>
  <speed>4.809875258257744</speed>
  <fix>3d</fix>
</trkpt>
<trkpt lat="-27.2729825" lon="151.2903337">
  <ele>368.52</ele>
  <time>2026-09-01T19:56:57Z</time>
  <course>22.57</course>
  <speed>4.819377553170119</speed>
  <fix>3d</fix>
</trkpt>
<trkpt lat="-27.2729901" lon="151.2903307">
  <ele>367.75</ele>
  <time>2026-09-01T19:56:57Z</time>
  <course>17.56</course>
  <speed>4.8</speed>
  <fix>3d</fix>
</trkpt>
<trkpt lat="-27.2729824" lon="151.2903337">
  <ele>368.52</ele>
  <time>2026-09-01T19:56:57Z</time>
  <course>22.57</course>
  <speed>4.819377553170119</speed>
  <fix>3d</fix>
</trkpt>
<trkpt lat="-27.272985" lon="151.290336">
  <ele>343.0</ele>
  <time>2026-09-01T19:56:57Z</time>
  <course>18.87</course>
  <speed>4.996498774141749</speed>
  <fix>3d</fix>
</trkpt>
<trkpt lat="-27.2729784" lon="151.2903352">
  <ele>368.77</ele>
  <time>2026-09-01T19:56:57Z</time>
  <course>22.59</course>
  <speed>4.822499351995809</speed>
  <fix>3d</fix>
</trkpt>
<trkpt lat="-27.2729901" lon="151.2903307">
  <ele>367.75</ele>
  <time>2026-09-01T19:56:57Z</time>
  <course>17.56</course>
  <speed>4.8</speed>
  <fix>3d</fix>
</trkpt>
<trkpt lat="-27.2729783" lon="151.2903352">
  <ele>368.77</ele>
  <time>2026-09-01T19:56:57Z</time>
  <course>22.59</course>
  <speed>4.822499351995809</speed>
  <fix>3d</fix>
</trkpt>
<trkpt lat="-27.2729742" lon="151.2903367">
  <ele>369.02</ele>
  <time>2026-09-01T19:56:57Z</time>
  <course>22.6</course>
  <speed>4.825639853946832</speed>
  <fix>3d</fix>
</trkpt>
<trkpt lat="-27.2729818" lon="151.2903337">
  <ele>368.25</ele>
  <time>2026-09-01T19:56:57Z</time>
  <course>17.71</course>
  <speed>4.81</speed>
  <fix>3d</fix>
</trkpt>
<trkpt lat="-27.2729741" lon="151.2903367">
  <ele>369.03</ele>
  <time>2026-09-01T19:56:57Z</time>
  <course>22.6</course>
  <speed>4.825639853946832</speed>
  <fix>3d</fix>
</trkpt>
<trkpt lat="-27.2729765" lon="151.2903393">
  <ele>343.0</ele>
  <time>2026-09-01T19:56:57Z</time>
  <course>18.99</course>
  <speed>4.990270533748646</speed>
  <fix>3d</fix>
</trkpt>
<trkpt lat="-27.2729701" lon="151.2903382">
  <ele>369.27</ele>
  <time>2026-09-01T19:56:57Z</time>
  <course>22.61</course>
  <speed>4.825639853946832</speed>
  <fix>3d</fix>
</trkpt>
<trkpt lat="-27.2729818" lon="151.2903337">
  <ele>368.25</ele>
  <time>2026-09-01T19:56:57Z</time>
  <course>17.71</course>
  <speed>4.81</speed>
  <fix>3d</fix>
</trkpt>
<trkpt lat="-27.27297" lon="151.2903382">
  <ele>369.28</ele>
  <time>2026-09-01T19:56:57Z</time>
  <course>22.61</course>
  <speed>4.825639853946832</speed>
  <fix>3d</fix>
</trkpt>
<trkpt lat="-27.272966" lon="151.2903397">
  <ele>369.52</ele>
  <time>2026-09-01T19:56:57Z</time>
  <course>22.62</course>
  <speed>4.838284820057621</speed>
  <fix>3d</fix>
</trkpt>
<trkpt lat="-27.2729736" lon="151.2903366">
  <ele>368.75</ele>
  <time>2026-09-01T19:56:57Z</time>
  <course>17.87</course>
  <speed>4.82</speed>
  <fix>3d</fix>
</trkpt>
<trkpt lat="-27.2729658" lon="151.2903397">
  <ele>369.53</ele>
  <time>2026-09-01T19:56:57Z</time>
  <course>22.62</course>
  <speed>4.838284820057621</speed>
  <fix>3d</fix>
</trkpt>
<trkpt lat="-27.272968" lon="151.2903426">
  <ele>343.0</ele>
  <time>2026-09-01T19:56:58Z</time>
  <course>19.1</course>
  <speed>4.993525808484422</speed>
  <fix>3d</fix>
</trkpt>
<trkpt lat="-27.2729618" lon="151.2903412">
  <ele>369.77</ele>
  <time>2026-09-01T19:56:58Z</time>
  <course>22.63</course>
  <speed>4.841456392450519</speed>
  <fix>3d</fix>
</trkpt>
<trkpt lat="-27.2729736" lon="151.2903366">
  <ele>368.75</ele>
  <time>2026-09-01T19:56:58Z</time>
  <course>17.87</course>
  <speed>4.82</speed>
  <fix>3d</fix>
</trkpt>
<trkpt lat="-27.2729616" lon="151.2903413">
  <ele>369.79</ele>
  <time>2026-09-01T19:56:58Z</time>
  <course>22.63</course>
  <speed>4.841456392450519</speed>
  <fix>3d</fix>
</trkpt>
<trkpt lat="-27.2729577" lon="151.2903427">
  <ele>370.02</ele>
  <time>2026-09-01T19:56:58Z</time>
  <course>22.63</course>
  <speed>4.844646529933841</speed>
  <fix>3d</fix>
</trkpt>
<trkpt lat="-27.2729653" lon="151.2903397">
  <ele>369.25</ele>
  <time>2026-09-01T19:56:58Z</time>
  <course>18.04</course>
  <speed>4.83</speed>
  <fix>3d</fix>
</trkpt>
<trkpt lat="-27.2729576" lon="151.2903428">
  <ele>370.03</ele>
  <time>2026-09-01T19:56:58Z</time>
  <course>22.63</course>
  <speed>4.844646529933841</speed>
  <fix>3d</fix>
</trkpt>
<trkpt lat="-27.2729595" lon="151.2903459">
  <ele>343.0</ele>
  <time>2026-09-01T19:56:58Z</time>
  <course>19.22</course>
  <speed>4.996798975344115</speed>
  <fix>3d</fix>
</trkpt>
<trkpt lat="-27.2729536" lon="151.2903443">
  <ele>370.27</ele>
  <time>2026-09-01T19:56:58Z</time>
  <course>22.64</course>
  <speed>4.844646529933841</speed>
  <fix>3d</fix>
</trkpt>
<trkpt lat="-27.2729653" lon="151.2903397">
  <ele>369.25</ele>
  <time>2026-09-01T19:56:58Z</time>
  <course>18.04</course>
  <speed>4.83</speed>
  <fix>3d</fix>
</trkpt>
<trkpt lat="-27.2729534" lon="151.2903443">
  <ele>370.28</ele>
  <time>2026-09-01T19:56:58Z</time>
  <course>22.64</course>
  <speed>4.844646529933841</speed>
  <fix>3d</fix>
</trkpt>
<trkpt lat="-27.2729494" lon="151.2903458">
  <ele>370.52</ele>
  <time>2026-09-01T19:56:58Z</time>
  <course>22.65</course>
  <speed>4.8573243663564405</speed>
  <fix>3d</fix>
</trkpt>
<trkpt lat="-27.272957" lon="151.2903427">
  <ele>369.75</ele>
  <time>2026-09-01T19:56:58Z</time>
  <course>18.21</course>
  <speed>4.84</speed>
  <fix>3d</fix>
</trkpt>
<trkpt lat="-27.2729493" lon="151.2903459">
  <ele>370.53</ele>
  <time>2026-09-01T19:56:58Z</time>
  <course>22.65</course>
  <speed>4.8573243663564405</speed>
  <fix>3d</fix>
</trkpt>
<trkpt lat="-27.272951" lon="151.2903492">
  <ele>343.0</ele>
  <time>2026-09-01T19:56:58Z</time>
  <course>19.33</course>
  <speed>4.99065126010624</speed>
  <fix>3d</fix>
</trkpt>
<trkpt lat="-27.2729453" lon="151.2903474">
  <ele>370.77</ele>
  <time>2026-09-01T19:56:58Z</time>
  <course>22.67</course>
  <speed>4.860545236905012</speed>
  <fix>3d</fix>
</trkpt>
<trkpt lat="-27.272957" lon="151.2903427">
  <ele>369.75</ele>
  <time>2026-09-01T19:56:58Z</time>
  <course>18.21</course>
  <speed>4.84</speed>
  <fix>3d</fix>
</trkpt>
<trkpt lat="-27.2729451" lon="151.2903474">
  <ele>370.78</ele>
  <time>2026-09-01T19:56:58Z</time>
  <course>22.67</course>
  <speed>4.860545236905012</speed>
  <fix>3d</fix>
</trkpt>
<trkpt lat="-27.2729411" lon="151.2903489">
  <ele>371.02</ele>
  <time>2026-09-01T19:56:58Z</time>
  <course>22.68</course>
  <speed>4.863784534701347</speed>
  <fix>3d</fix>
</trkpt>
<trkpt lat="-27.2729488" lon="151.2903458">
  <ele>370.25</ele>
  <time>2026-09-01T19:56:58Z</time>
  <course>18.4</course>
  <speed>4.85</speed>
  <fix>3d</fix>
</trkpt>
<trkpt lat="-27.272941" lon="151.290349">
  <ele>371.03</ele>
  <time>2026-09-01T19:56:58Z</time>
  <course>22.68</course>
  <speed>4.863784534701347</speed>
  <fix>3d</fix>
</trkpt>
<trkpt lat="-27.2729426" lon="151.2903526">
  <ele>343.0</ele>
  <time>2026-09-01T19:56:58Z</time>
  <course>19.45</course>
  <speed>4.993966359518254</speed>
  <fix>3d</fix>
</trkpt>
<trkpt lat="-27.272937" lon="151.2903505">
  <ele>371.27</ele>
  <time>2026-09-01T19:56:58Z</time>
  <course>22.7</course>
  <speed>4.867042222952253</speed>
  <fix>3d</fix>
</trkpt>
<trkpt lat="-27.2729488" lon="151.2903458">
  <ele>370.25</ele>
  <time>2026-09-01T19:56:58Z</time>
  <course>18.4</course>
  <speed>4.85</speed>
  <fix>3d</fix>
</trkpt>
<trkpt lat="-27.2729368" lon="151.2903506">
  <ele>371.28</ele>
  <time>2026-09-01T19:56:58Z</time>
  <course>22.7</course>
  <speed>4.867042222952253</speed>
  <fix>3d</fix>
</trkpt>
<trkpt lat="-27.2729328" lon="151.2903521">
  <ele>371.52</ele>
  <time>2026-09-01T19:56:58Z</time>
  <course>22.72</course>
  <speed>4.879764338572099</speed>
  <fix>3d</fix>
</trkpt>
<trkpt lat="-27.2729405" lon="151.2903489">
  <ele>370.75</ele>
  <time>2026-09-01T19:56:58Z</time>
  <course>18.59</course>
  <speed>4.86</speed>
  <fix>3d</fix>
</trkpt>
<trkpt lat="-27.2729327" lon="151.2903521">
  <ele>371.53</ele>
  <time>2026-09-01T19:56:58Z</time>
  <course>22.73</course>
  <speed>4.879764338572099</speed>
  <fix>3d</fix>
</trkpt>
<trkpt lat="-27.2729341" lon="151.290356">
  <ele>343.0</ele>
  <time>2026-09-01T19:56:58Z</time>
  <course>19.56</course>
  <speed>4.997299270606074</speed>
  <fix>3d</fix>
</trkpt>
<trkpt lat="-27.2729286" lon="151.2903537">
  <ele>371.77</ele>
  <time>2026-09-01T19:56:58Z</time>
  <course>22.75</course>
  <speed>4.883052324110402</speed>
  <fix>3d</fix>
</trkpt>
<trkpt lat="-27.2729405" lon="151.2903489">
  <ele>370.75</ele>
  <time>2026-09-01T19:56:58Z</time>
  <course>18.59</course>
  <speed>4.86</speed>
  <fix>3d</fix>
</trkpt>
<trkpt lat="-27.2729285" lon="151.2903537">
  <ele>371.77</ele>
  <time>2026-09-01T19:56:58Z</time>
  <course>22.75</course>
  <speed>4.883052324110402</speed>
  <fix>3d</fix>
</trkpt>
<trkpt lat="-27.2729244" lon="151.2903553">
  <ele>372.02</ele>
  <time>2026-09-01T19:56:58Z</time>
  <course>22.77</course>
  <speed>4.883052324110402</speed>
  <fix>3d</fix>
</trkpt>
<trkpt lat="-27.2729322" lon="151.2903521">
  <ele>371.25</ele>
  <time>2026-09-01T19:56:58Z</time>
  <course>18.77</course>
  <speed>4.87</speed>
  <fix>3d</fix>
</trkpt>
<trkpt lat="-27.2729243" lon="151.2903553">
  <ele>372.02</ele>
  <time>2026-09-01T19:56:58Z</time>
  <course>22.77</course>
  <speed>4.883052324110402</speed>
  <fix>3d</fix>
</trkpt>
<trkpt lat="-27.2729256" lon="151.2903594">
  <ele>343.0</ele>
  <time>2026-09-01T19:56:58Z</time>
  <course>19.68</course>
  <speed>4.991232312766057</speed>
  <fix>3d</fix>
</trkpt>
<trkpt lat="-27.2729203" lon="151.2903569">
  <ele>372.26</ele>
  <time>2026-09-01T19:56:58Z</time>
  <course>22.78</course>
  <speed>4.88635856236523</speed>
  <fix>3d</fix>
</trkpt>
<trkpt lat="-27.2729322" lon="151.2903521">
  <ele>371.25</ele>
  <time>2026-09-01T19:56:58Z</time>
  <course>18.77</course>
  <speed>4.87</speed>
  <fix>3d</fix>
</trkpt>
<trkpt lat="-27.2729202" lon="151.290357">
  <ele>372.27</ele>
  <time>2026-09-01T19:56:58Z</time>
  <course>22.79</course>
  <speed>4.88635856236523</speed>
  <fix>3d</fix>
</trkpt>
<trkpt lat="-27.2729161" lon="151.2903585">
  <ele>372.51</ele>
  <time>2026-09-01T19:56:58Z</time>
  <course>22.8</course>
  <speed>4.8896830163109755</speed>
  <fix>3d</fix>
</trkpt>
<trkpt lat="-27.2729239" lon="151.2903552">
  <ele>371.75</ele>
  <time>2026-09-01T19:56:58Z</time>
  <course>18.95</course>
  <speed>4.88</speed>
  <fix>3d</fix>
</trkpt>
<trkpt lat="-27.272916" lon="151.2903586">
  <ele>372.52</ele>
  <time>2026-09-01T19:56:58Z</time>
  <course>22.8</course>
  <speed>4.8896830163109755</speed>
  <fix>3d</fix>
</trkpt>
<trkpt lat="-27.2729172" lon="151.2903628">
  <ele>343.0</ele>
  <time>2026-09-01T19:56:58Z</time>
  <course>19.79</course>
  <speed>4.9946070916539576</speed>
  <fix>3d</fix>
</trkpt>
<trkpt lat="-27.272912" lon="151.2903601">
  <ele>372.76</ele>
  <time>2026-09-01T19:56:58Z</time>
  <course>22.82</course>
  <speed>4.893025648818939</speed>
  <fix>3d</fix>
</trkpt>
<trkpt lat="-27.2729239" lon="151.2903552">
  <ele>371.75</ele>
  <time>2026-09-01T19:56:58Z</time>
  <course>18.95</course>
  <speed>4.88</speed>
  <fix>3d</fix>
</trkpt>
<trkpt lat="-27.2729117" lon="151.2903602">
  <ele>372.78</ele>
  <time>2026-09-01T19:56:58Z</time>
  <course>22.82</course>
  <speed>4.893025648818939</speed>
  <fix>3d</fix>
</trkpt>
<trkpt lat="-27.2729079" lon="151.2903617">
  <ele>373.01</ele>
  <time>2026-09-01T19:56:58Z</time>
  <course>22.84</course>
  <speed>4.893025648818939</speed>
  <fix>3d</fix>
</trkpt>
<trkpt lat="-27.2729156" lon="151.2903585">
  <ele>372.25</ele>
  <time>2026-09-01T19:56:58Z</time>
  <course>19.13</course>
  <speed>4.89</speed>
  <fix>3d</fix>
</trkpt>
<trkpt lat="-27.2729078" lon="151.2903618">
  <ele>373.02</ele>
  <time>2026-09-01T19:56:58Z</time>
  <course>22.84</course>
  <speed>4.893025648818939</speed>
  <fix>3d</fix>
</trkpt>
<trkpt lat="-27.2729087" lon="151.2903662">
  <ele>343.0</ele>
  <time>2026-09-01T19:56:58Z</time>
  <course>19.9</course>
  <speed>4.99799959983992</speed>
  <fix>3d</fix>
</trkpt>
<trkpt lat="-27.2729037" lon="151.2903634">
  <ele>373.26</ele>
  <time>2026-09-01T19:56:58Z</time>
  <course>22.85</course>
  <speed>4.896386422659061</speed>
  <fix>3d</fix>
</trkpt>
<trkpt lat="-27.2729156" lon="151.2903585">
  <ele>372.25</ele>
  <time>2026-09-01T19:56:58Z</time>
  <course>19.13</course>
  <speed>4.89</speed>
  <fix>3d</fix>
</trkpt>
<trkpt lat="-27.2729036" lon="151.2903634">
  <ele>373.27</ele>
  <time>2026-09-01T19:56:58Z</time>
  <course>22.86</course>
  <speed>4.896386422659061</speed>
  <fix>3d</fix>
</trkpt>
<trkpt lat="-27.2728996" lon="151.290365">
  <ele>373.51</ele>
  <time>2026-09-01T19:56:58Z</time>
  <course>22.87</course>
  <speed>4.909175083453431</speed>
  <fix>3d</fix>
</trkpt>
<trkpt lat="-27.2729073" lon="151.2903617">
  <ele>372.75</ele>
  <time>2026-09-01T19:56:58Z</time>
  <course>19.31</course>
  <speed>4.9</speed>
  <fix>3d</fix>
</trkpt>
<trkpt lat="-27.2728995" lon="151.290365">
  <ele>373.52</ele>
  <time>2026-09-01T19:56:58Z</time>
  <course>22.87</course>
  <speed>4.909175083453431</speed>
  <fix>3d</fix>
</trkpt>
<trkpt lat="-27.2729003" lon="151.2903697">
  <ele>343.0</ele>
  <time>2026-09-01T19:56:58Z</time>
  <course>20.02</course>
  <speed>4.9920136217762865</speed>
  <fix>3d</fix>
</trkpt>
<trkpt lat="-27.2728954" lon="151.2903667">
  <ele>373.76</ele>
  <time>2026-09-01T19:56:58Z</time>
  <course>22.88</course>
  <speed>4.912565521191549</speed>
  <fix>3d</fix>
</trkpt>
<trkpt lat="-27.2729073" lon="151.2903617">
  <ele>372.75</ele>
  <time>2026-09-01T19:56:58Z</time>
  <course>19.31</course>
  <speed>4.9</speed>
  <fix>3d</fix>
</trkpt>
<trkpt lat="-27.2728953" lon="151.2903667">
  <ele>373.77</ele>
  <time>2026-09-01T19:56:58Z</time>
  <course>22.88</course>
  <speed>4.912565521191549</speed>
  <fix>3d</fix>
</trkpt>
<trkpt lat="-27.2728913" lon="151.2903683">
  <ele>374.02</ele>
  <time>2026-09-01T19:56:58Z</time>
  <course>22.9</course>
  <speed>4.912565521191549</speed>
  <fix>3d</fix>
</trkpt>
<trkpt lat="-27.272899" lon="151.290365">
  <ele>373.26</ele>
  <time>2026-09-01T19:56:58Z</time>
  <course>19.49</course>
  <speed>4.91</speed>
  <fix>3d</fix>
</trkpt>
<trkpt lat="-27.2728912" lon="151.2903683">
  <ele>374.02</ele>
  <time>2026-09-01T19:56:58Z</time>
  <course>22.9</course>
  <speed>4.912565521191549</speed>
  <fix>3d</fix>
</trkpt>
<trkpt lat="-27.2728918" lon="151.2903731">
  <ele>343.0</ele>
  <time>2026-09-01T19:56:58Z</time>
  <course>20.13</course>
  <speed>4.9954479278639266</speed>
  <fix>3d</fix>
</trkpt>
<trkpt lat="-27.2728872" lon="151.29037">
  <ele>374.27</ele>
  <time>2026-09-01T19:56:58Z</time>
  <course>22.91</course>
  <speed>4.9159739625022425</speed>
  <fix>3d</fix>
</trkpt>
<trkpt lat="-27.272899" lon="151.290365">
  <ele>373.26</ele>
  <time>2026-09-01T19:56:58Z</time>
  <course>19.49</course>
  <speed>4.91</speed>
  <fix>3d</fix>
</trkpt>
<trkpt lat="-27.2728867" lon="151.2903701">
  <ele>374.3</ele>
  <time>2026-09-01T19:56:58Z</time>
  <course>22.91</course>
  <speed>4.9159739625022425</speed>
  <fix>3d</fix>
</trkpt>
<trkpt lat="-27.272883" lon="151.2903716">
  <ele>374.52</ele>
  <time>2026-09-01T19:56:58Z</time>
  <course>22.93</course>
  <speed>4.919400369963803</speed>
  <fix>3d</fix>
</trkpt>
<trkpt lat="-27.2728906" lon="151.2903683">
  <ele>373.76</ele>
  <time>2026-09-01T19:56:58Z</time>
  <course>19.66</course>
  <speed>4.92</speed>
  <fix>3d</fix>
</trkpt>
<trkpt lat="-27.2728829" lon="151.2903717">
  <ele>374.53</ele>
  <time>2026-09-01T19:56:58Z</time>
  <course>22.93</course>
  <speed>4.919400369963803</speed>
  <fix>3d</fix>
</trkpt>
<trkpt lat="-27.2728834" lon="151.2903766">
  <ele>343.0</ele>
  <time>2026-09-01T19:56:58Z</time>
  <course>20.25</course>
  <speed>4.998899878973373</speed>
  <fix>3d</fix>
</trkpt>
<trkpt lat="-27.2728788" lon="151.2903733">
  <ele>374.78</ele>
  <time>2026-09-01T19:56:58Z</time>
  <course>22.94</course>
  <speed>4.928792955683978</speed>
  <fix>3d</fix>
</trkpt>
<trkpt lat="-27.2728906" lon="151.2903683">
  <ele>373.76</ele>
  <time>2026-09-01T19:56:58Z</time>
  <course>19.66</course>
  <speed>4.92</speed>
  <fix>3d</fix>
</trkpt>
<trkpt lat="-27.2728787" lon="151.2903734">
  <ele>374.78</ele>
  <time>2026-09-01T19:56:58Z</time>
  <course>22.94</course>
  <speed>4.928792955683978</speed>
  <fix>3d</fix>
</trkpt>
<trkpt lat="-27.2728747" lon="151.290375">
  <ele>375.03</ele>
  <time>2026-09-01T19:56:58Z</time>
  <course>22.96</course>
  <speed>4.932230732640151</speed>
  <fix>3d</fix>
</trkpt>
<trkpt lat="-27.2728823" lon="151.2903717">
  <ele>374.26</ele>
  <time>2026-09-01T19:56:58Z</time>
  <course>19.82</course>
  <speed>4.93</speed>
  <fix>3d</fix>
</trkpt>
<trkpt lat="-27.2728745" lon="151.2903751">
  <ele>375.03</ele>
  <time>2026-09-01T19:56:58Z</time>
  <course>22.96</course>
  <speed>4.932230732640151</speed>
  <fix>3d</fix>
</trkpt>
<trkpt lat="-27.272875" lon="151.2903801">
  <ele>343.0</ele>
  <time>2026-09-01T19:56:58Z</time>
  <course>20.36</course>
  <speed>4.992995093127972</speed>
  <fix>3d</fix>
</trkpt>
<trkpt lat="-27.2728705" lon="151.2903767">
  <ele>375.28</ele>
  <time>2026-09-01T19:56:58Z</time>
  <course>22.97</course>
  <speed>4.935686375773891</speed>
  <fix>3d</fix>
</trkpt>
<trkpt lat="-27.2728823" lon="151.2903717">
  <ele>374.26</ele>
  <time>2026-09-01T19:56:58Z</time>
  <course>19.82</course>
  <speed>4.93</speed>
  <fix>3d</fix>
</trkpt>
<trkpt lat="-27.2728704" lon="151.2903768">
  <ele>375.29</ele>
  <time>2026-09-01T19:56:58Z</time>
  <course>22.97</course>
  <speed>4.935686375773891</speed>
  <fix>3d</fix>
</trkpt>
<trkpt lat="-27.2728664" lon="151.2903784">
  <ele>375.53</ele>
  <time>2026-09-01T19:56:58Z</time>
  <course>22.99</course>
  <speed>4.935686375773891</speed>
  <fix>3d</fix>
</trkpt>
<trkpt lat="-27.272874" lon="151.2903751">
  <ele>374.76</ele>
  <time>2026-09-01T19:56:58Z</time>
  <course>19.97</course>
  <speed>4.94</speed>
  <fix>3d</fix>
</trkpt>
<trkpt lat="-27.2728662" lon="151.2903785">
  <ele>375.54</ele>
  <time>2026-09-01T19:56:58Z</time>
  <course>22.99</course>
  <speed>4.935686375773891</speed>
  <fix>3d</fix>
</trkpt>
<trkpt lat="-27.2728666" lon="151.2903837">
  <ele>343.0</ele>
  <time>2026-09-01T19:56:58Z</time>
  <course>20.48</course>
  <speed>4.992995093127972</speed>
  <fix>3d</fix>
</trkpt>
<trkpt lat="-27.2728622" lon="151.2903801">
  <ele>375.78</ele>
  <time>2026-09-01T19:56:58Z</time>
  <course>23.01</course>
  <speed>4.939159847585417</speed>
  <fix>3d</fix>
</trkpt>
<trkpt lat="-27.272874" lon="151.2903751">
  <ele>374.76</ele>
  <time>2026-09-01T19:56:58Z</time>
  <course>19.97</course>
  <speed>4.94</speed>
  <fix>3d</fix>
</trkpt>
<trkpt lat="-27.2728621" lon="151.2903802">
  <ele>375.79</ele>
  <time>2026-09-01T19:56:58Z</time>
  <course>23.01</course>
  <speed>4.939159847585417</speed>
  <fix>3d</fix>
</trkpt>
<trkpt lat="-27.272858" lon="151.2903818">
  <ele>376.03</ele>
  <time>2026-09-01T19:56:58Z</time>
  <course>23.02</course>
  <speed>4.942651110487165</speed>
  <fix>3d</fix>
</trkpt>
<trkpt lat="-27.2728656" lon="151.2903786">
  <ele>375.26</ele>
  <time>2026-09-01T19:56:58Z</time>
  <course>20.12</course>
  <speed>4.95</speed>
  <fix>3d</fix>
</trkpt>
<trkpt lat="-27.2728579" lon="151.2903819">
  <ele>376.04</ele>
  <time>2026-09-01T19:56:58Z</time>
  <course>23.02</course>
  <speed>4.942651110487165</speed>
  <fix>3d</fix>
</trkpt>
<trkpt lat="-27.2728581" lon="151.2903872">
  <ele>343.0</ele>
  <time>2026-09-01T19:56:58Z</time>
  <course>20.59</course>
  <speed>4.99648876712437</speed>
  <fix>3d</fix>
</trkpt>
<trkpt lat="-27.2728539" lon="151.2903836">
  <ele>376.28</ele>
  <time>2026-09-01T19:56:58Z</time>
  <course>23.03</course>
  <speed>4.942651110487165</speed>
  <fix>3d</fix>
</trkpt>
<trkpt lat="-27.2728656" lon="151.2903786">
  <ele>375.26</ele>
  <time>2026-09-01T19:56:58Z</time>
  <course>20.12</course>
  <speed>4.95</speed>
  <fix>3d</fix>
</trkpt>
<trkpt lat="-27.2728537" lon="151.2903836">
  <ele>376.29</ele>
  <time>2026-09-01T19:56:58Z</time>
  <course>23.03</course>
  <speed>4.942651110487165</speed>
  <fix>3d</fix>
</trkpt>
<trkpt lat="-27.2728497" lon="151.2903853">
  <ele>376.53</ele>
  <time>2026-09-01T19:56:58Z</time>
  <course>23.05</course>
  <speed>4.946160126805439</speed>
  <fix>3d</fix>
</trkpt>
<trkpt lat="-27.2728573" lon="151.290382">
  <ele>375.76</ele>
  <time>2026-09-01T19:56:58Z</time>
  <course>20.26</course>
  <speed>4.96</speed>
  <fix>3d</fix>
</trkpt>
<trkpt lat="-27.2728495" lon="151.2903854">
  <ele>376.53</ele>
  <time>2026-09-01T19:56:58Z</time>
  <course>23.05</course>
  <speed>4.946160126805439</speed>
  <fix>3d</fix>
</trkpt>
<trkpt lat="-27.2728498" lon="151.2903908">
  <ele>343.0</ele>
  <time>2026-09-01T19:56:58Z</time>
  <course>20.71</course>
  <speed>4.9906412413636785</speed>
  <fix>3d</fix>
</trkpt>
<trkpt lat="-27.2728455" lon="151.2903871">
  <ele>376.77</ele>
  <time>2026-09-01T19:56:58Z</time>
  <course>23.06</course>
  <speed>4.946160126805439</speed>
  <fix>3d</fix>
</trkpt>
<trkpt lat="-27.2728573" lon="151.290382">
  <ele>375.76</ele>
  <time>2026-09-01T19:56:58Z</time>
  <course>20.26</course>
  <speed>4.96</speed>
  <fix>3d</fix>
</trkpt>
<trkpt lat="-27.2728454" lon="151.2903871">
  <ele>376.78</ele>
  <time>2026-09-01T19:56:58Z</time>
  <course>23.06</course>
  <speed>4.946160126805439</speed>
  <fix>3d</fix>
</trkpt>
<trkpt lat="-27.2728413" lon="151.2903888">
  <ele>377.02</ele>
  <time>2026-09-01T19:56:58Z</time>
  <course>23.07</course>
  <speed>4.949686858782078</speed>
  <fix>3d</fix>
</trkpt>
<trkpt lat="-27.2728489" lon="151.2903855">
  <ele>376.26</ele>
  <time>2026-09-01T19:56:58Z</time>
  <course>20.4</course>
  <speed>4.96</speed>
  <fix>3d</fix>
</trkpt>
<trkpt lat="-27.2728412" lon="151.2903889">
  <ele>377.03</ele>
  <time>2026-09-01T19:56:58Z</time>
  <course>23.07</course>
  <speed>4.949686858782078</speed>
  <fix>3d</fix>
</trkpt>
<trkpt lat="-27.2728414" lon="151.2903944">
  <ele>343.0</ele>
  <time>2026-09-01T19:56:58Z</time>
  <course>20.82</course>
  <speed>4.9941766088115065</speed>
  <fix>3d</fix>
</trkpt>
<trkpt lat="-27.2728372" lon="151.2903906">
  <ele>377.26</ele>
  <time>2026-09-01T19:56:58Z</time>
  <course>23.08</course>
  <speed>4.949686858782078</speed>
  <fix>3d</fix>
</trkpt>
<trkpt lat="-27.2728489" lon="151.2903855">
  <ele>376.26</ele>
  <time>2026-09-01T19:56:58Z</time>
  <course>20.4</course>
  <speed>4.96</speed>
  <fix>3d</fix>
</trkpt>
<trkpt lat="-27.272837" lon="151.2903906">
  <ele>377.27</ele>
  <time>2026-09-01T19:56:58Z</time>
  <course>23.08</course>
  <speed>4.949686858782078</speed>
  <fix>3d</fix>
</trkpt>
<trkpt lat="-27.272833" lon="151.2903923">
  <ele>377.51</ele>
  <time>2026-09-01T19:56:58Z</time>
  <course>23.09</course>
  <speed>4.9532312685761</speed>
  <fix>3d</fix>
</trkpt>
<trkpt lat="-27.2728405" lon="151.290389">
  <ele>376.76</ele>
  <time>2026-09-01T19:56:58Z</time>
  <course>20.53</course>
  <speed>4.97</speed>
  <fix>3d</fix>
</trkpt>
<trkpt lat="-27.2728329" lon="151.2903924">
  <ele>377.52</ele>
  <time>2026-09-01T19:56:58Z</time>
  <course>23.09</course>
  <speed>4.9532312685761</speed>
  <fix>3d</fix>
</trkpt>
<trkpt lat="-27.272833" lon="151.290398">
  <ele>343.0</ele>
  <time>2026-09-01T19:56:58Z</time>
  <course>20.93</course>
  <speed>4.988386512691253</speed>
  <fix>3d</fix>
</trkpt>
<trkpt lat="-27.2728289" lon="151.2903941">
  <ele>377.76</ele>
  <time>2026-09-01T19:56:58Z</time>
  <course>23.1</course>
  <speed>4.9532312685761</speed>
  <fix>3d</fix>
</trkpt>
<trkpt lat="-27.2728405" lon="151.290389">
  <ele>376.76</ele>
  <time>2026-09-01T19:56:58Z</time>
  <course>20.53</course>
  <speed>4.97</speed>
  <fix>3d</fix>
</trkpt>
<trkpt lat="-27.2728287" lon="151.2903942">
  <ele>377.77</ele>
  <time>2026-09-01T19:56:58Z</time>
  <course>23.1</course>
  <speed>4.9532312685761</speed>
  <fix>3d</fix>
</trkpt>
<trkpt lat="-27.2728247" lon="151.2903959">
  <ele>378.0</ele>
  <time>2026-09-01T19:56:58Z</time>
  <course>23.11</course>
  <speed>4.956793318265348</speed>
  <fix>3d</fix>
</trkpt>
<trkpt lat="-27.2728322" lon="151.2903925">
  <ele>377.26</ele>
  <time>2026-09-01T19:56:58Z</time>
  <course>20.65</course>
  <speed>4.97</speed>
  <fix>3d</fix>
</trkpt>
<trkpt lat="-27.2728245" lon="151.2903959">
  <ele>378.01</ele>
  <time>2026-09-01T19:56:58Z</time>
  <course>23.11</course>
  <speed>4.956793318265348</speed>
  <fix>3d</fix>
</trkpt>
<trkpt lat="-27.2728246" lon="151.2904016">
  <ele>343.0</ele>
  <time>2026-09-01T19:56:58Z</time>
  <course>21.05</course>
  <speed>4.991963541533532</speed>
  <fix>3d</fix>
</trkpt>
<trkpt lat="-27.2728205" lon="151.2903976">
  <ele>378.25</ele>
  <time>2026-09-01T19:56:58Z</time>
  <course>23.12</course>
  <speed>4.956793318265348</speed>
  <fix>3d</fix>
</trkpt>
<trkpt lat="-27.2728322" lon="151.2903925">
  <ele>377.26</ele>
  <time>2026-09-01T19:56:58Z</time>
  <course>20.65</course>
  <speed>4.97</speed>
  <fix>3d</fix>
</trkpt>
<trkpt lat="-27.2728203" lon="151.2903977">
  <ele>378.26</ele>
  <time>2026-09-01T19:56:58Z</time>
  <course>23.12</course>
  <speed>4.956793318265348</speed>
  <fix>3d</fix>
</trkpt>
<trkpt lat="-27.2728163" lon="151.2903994">
  <ele>378.5</ele>
  <time>2026-09-01T19:56:58Z</time>
  <course>23.14</course>
  <speed>4.960372969848135</speed>
  <fix>3d</fix>
</trkpt>
<trkpt lat="-27.2728238" lon="151.2903961">
  <ele>377.76</ele>
  <time>2026-09-01T19:56:58Z</time>
  <course>20.78</course>
  <speed>4.97</speed>
  <fix>3d</fix>
</trkpt>
<trkpt lat="-27.2728162" lon="151.2903995">
  <ele>378.51</ele>
  <time>2026-09-01T19:56:58Z</time>
  <course>23.14</course>
  <speed>4.960372969848135</speed>
  <fix>3d</fix>
</trkpt>
<trkpt lat="-27.2728162" lon="151.2904052">
  <ele>343.0</ele>
  <time>2026-09-01T19:56:58Z</time>
  <course>21.16</course>
  <speed>4.995558026887487</speed>
  <fix>3d</fix>
</trkpt>
<trkpt lat="-27.2728121" lon="151.2904012">
  <ele>378.76</ele>
  <time>2026-09-01T19:56:58Z</time>
  <course>23.15</course>
  <speed>4.9510402947259475</speed>
  <fix>3d</fix>
</trkpt>
<trkpt lat="-27.2728238" lon="151.2903961">
  <ele>377.76</ele>
  <time>2026-09-01T19:56:58Z</time>
  <course>20.78</course>
  <speed>4.97</speed>
  <fix>3d</fix>
</trkpt>
<trkpt lat="-27.272812" lon="151.2904013">
  <ele>378.76</ele>
  <time>2026-09-01T19:56:58Z</time>
  <course>23.15</course>
  <speed>4.9510402947259475</speed>
  <fix>3d</fix>
</trkpt>
<trkpt lat="-27.2728079" lon="151.290403">
  <ele>379.01</ele>
  <time>2026-09-01T19:56:58Z</time>
  <course>23.16</course>
  <speed>4.954644285920029</speed>
  <fix>3d</fix>
</trkpt>
<trkpt lat="-27.2728154" lon="151.2903997">
  <ele>378.27</ele>
  <time>2026-09-01T19:56:58Z</time>
  <course>20.91</course>
  <speed>4.98</speed>
  <fix>3d</fix>
</trkpt>
<trkpt lat="-27.2728078" lon="151.2904031">
  <ele>379.01</ele>
  <time>2026-09-01T19:56:58Z</time>
  <course>23.16</course>
  <speed>4.954644285920029</speed>
  <fix>3d</fix>
</trkpt>
<trkpt lat="-27.2728078" lon="151.2904089">
  <ele>343.0</ele>
  <time>2026-09-01T19:56:58Z</time>
  <course>21.28</course>
  <speed>4.989849697135175</speed>
  <fix>3d</fix>
</trkpt>
<trkpt lat="-27.2728037" lon="151.2904048">
  <ele>379.26</ele>
  <time>2026-09-01T19:56:58Z</time>
  <course>23.17</course>
  <speed>4.958265825870977</speed>
  <fix>3d</fix>
</trkpt>
<trkpt lat="-27.2728154" lon="151.2903997">
  <ele>378.27</ele>
  <time>2026-09-01T19:56:58Z</time>
  <course>20.91</course>
  <speed>4.98</speed>
  <fix>3d</fix>
</trkpt>
<trkpt lat="-27.2728036" lon="151.2904049">
  <ele>379.27</ele>
  <time>2026-09-01T19:56:58Z</time>
  <course>23.17</course>
  <speed>4.958265825870977</speed>
  <fix>3d</fix>
</trkpt>
<trkpt lat="-27.2727996" lon="151.2904066">
  <ele>379.51</ele>
  <time>2026-09-01T19:56:58Z</time>
  <course>23.18</course>
  <speed>4.958265825870977</speed>
  <fix>3d</fix>
</trkpt>
<trkpt lat="-27.2728071" lon="151.2904032">
  <ele>378.77</ele>
  <time>2026-09-01T19:56:58Z</time>
  <course>21.05</course>
  <speed>4.98</speed>
  <fix>3d</fix>
</trkpt>
<trkpt lat="-27.2727994" lon="151.2904067">
  <ele>379.52</ele>
  <time>2026-09-01T19:56:58Z</time>
  <course>23.18</course>
  <speed>4.958265825870977</speed>
  <fix>3d</fix>
</trkpt>
<trkpt lat="-27.2727994" lon="151.2904126">
  <ele>343.0</ele>
  <time>2026-09-01T19:56:58Z</time>
  <course>21.39</course>
  <speed>4.993485756463114</speed>
  <fix>3d</fix>
</trkpt>
<trkpt lat="-27.2727954" lon="151.2904085">
  <ele>379.76</ele>
  <time>2026-09-01T19:56:58Z</time>
  <course>23.19</course>
  <speed>4.958265825870977</speed>
  <fix>3d</fix>
</trkpt>
<trkpt lat="-27.2728071" lon="151.2904032">
  <ele>378.77</ele>
  <time>2026-09-01T19:56:58Z</time>
  <course>21.05</course>
  <speed>4.98</speed>
  <fix>3d</fix>
</trkpt>
<trkpt lat="-27.2727953" lon="151.2904085">
  <ele>379.77</ele>
  <time>2026-09-01T19:56:58Z</time>
  <course>23.19</course>
  <speed>4.958265825870977</speed>
  <fix>3d</fix>
</trkpt>
<trkpt lat="-27.2727912" lon="151.2904103">
  <ele>380.01</ele>
  <time>2026-09-01T19:56:58Z</time>
  <course>23.2</course>
  <speed>4.961904876153915</speed>
  <fix>3d</fix>
</trkpt>
<trkpt lat="-27.2727987" lon="151.2904069">
  <ele>379.27</ele>
  <time>2026-09-01T19:56:58Z</time>
  <course>21.17</course>
  <speed>4.98</speed>
  <fix>3d</fix>
</trkpt>
<trkpt lat="-27.2727911" lon="151.2904103">
  <ele>380.02</ele>
  <time>2026-09-01T19:56:58Z</time>
  <course>23.2</course>
  <speed>4.961904876153915</speed>
  <fix>3d</fix>
</trkpt>
<trkpt lat="-27.2727911" lon="151.2904163">
  <ele>343.0</ele>
  <time>2026-09-01T19:56:58Z</time>
  <course>21.51</course>
  <speed>4.997139181571792</speed>
  <fix>3d</fix>
</trkpt>
<trkpt lat="-27.2727871" lon="151.2904121">
  <ele>380.27</ele>
  <time>2026-09-01T19:56:58Z</time>
  <course>23.21</course>
  <speed>4.961904876153915</speed>
  <fix>3d</fix>
</trkpt>
<trkpt lat="-27.2727987" lon="151.2904069">
  <ele>379.27</ele>
  <time>2026-09-01T19:56:58Z</time>
  <course>21.17</course>
  <speed>4.98</speed>
  <fix>3d</fix>
</trkpt>
<trkpt lat="-27.2727869" lon="151.2904122">
  <ele>380.27</ele>
  <time>2026-09-01T19:56:58Z</time>
  <course>23.21</course>
  <speed>4.961904876153915</speed>
  <fix>3d</fix>
</trkpt>
<trkpt lat="-27.2727829" lon="151.2904139">
  <ele>380.52</ele>
  <time>2026-09-01T19:56:58Z</time>
  <course>23.23</course>
  <speed>4.965561398271095</speed>
  <fix>3d</fix>
</trkpt>
<trkpt lat="-27.2727904" lon="151.2904105">
  <ele>379.78</ele>
  <time>2026-09-01T19:56:58Z</time>
  <course>21.29</course>
  <speed>4.98</speed>
  <fix>3d</fix>
</trkpt>
<trkpt lat="-27.2727828" lon="151.290414">
  <ele>380.53</ele>
  <time>2026-09-01T19:56:58Z</time>
  <course>23.23</course>
  <speed>4.965561398271095</speed>
  <fix>3d</fix>
</trkpt>
<trkpt lat="-27.2727827" lon="151.29042">
  <ele>343.0</ele>
  <time>2026-09-01T19:56:58Z</time>
  <course>21.62</course>
  <speed>4.991512796738079</speed>
  <fix>3d</fix>
</trkpt>
<trkpt lat="-27.2727787" lon="151.2904158">
  <ele>380.77</ele>
  <time>2026-09-01T19:56:58Z</time>
  <course>23.24</course>
  <speed>4.965561398271095</speed>
  <fix>3d</fix>
</trkpt>
<trkpt lat="-27.2727904" lon="151.2904105">
  <ele>379.78</ele>
  <time>2026-09-01T19:56:58Z</time>
  <course>21.29</course>
  <speed>4.98</speed>
  <fix>3d</fix>
</trkpt>
<trkpt lat="-27.2727786" lon="151.2904158">
  <ele>380.78</ele>
  <time>2026-09-01T19:56:58Z</time>
  <course>23.24</course>
  <speed>4.965561398271095</speed>
  <fix>3d</fix>
</trkpt>
<trkpt lat="-27.2727746" lon="151.2904176">
  <ele>381.03</ele>
  <time>2026-09-01T19:56:58Z</time>
  <course>23.25</course>
  <speed>4.969235353653517</speed>
  <fix>3d</fix>
</trkpt>
<trkpt lat="-27.272782" lon="151.2904142">
  <ele>380.29</ele>
  <time>2026-09-01T19:56:58Z</time>
  <course>21.4</course>
  <speed>4.98</speed>
  <fix>3d</fix>
</trkpt>
<trkpt lat="-27.2727744" lon="151.2904177">
  <ele>381.03</ele>
  <time>2026-09-01T19:56:58Z</time>
  <course>23.25</course>
  <speed>4.969235353653517</speed>
  <fix>3d</fix>
</trkpt>
<trkpt lat="-27.2727744" lon="151.2904237">
  <ele>343.0</ele>
  <time>2026-09-01T19:56:58Z</time>
  <course>21.74</course>
  <speed>4.995207703389319</speed>
  <fix>3d</fix>
</trkpt>
<trkpt lat="-27.2727704" lon="151.2904194">
  <ele>381.28</ele>
  <time>2026-09-01T19:56:58Z</time>
  <course>23.26</course>
  <speed>4.969235353653517</speed>
  <fix>3d</fix>
</trkpt>
<trkpt lat="-27.272782" lon="151.2904142">
  <ele>380.29</ele>
  <time>2026-09-01T19:56:58Z</time>
  <course>21.4</course>
  <speed>4.98</speed>
  <fix>3d</fix>
</trkpt>
<trkpt lat="-27.2727703" lon="151.2904195">
  <ele>381.29</ele>
  <time>2026-09-01T19:56:58Z</time>
  <course>23.26</course>
  <speed>4.969235353653517</speed>
  <fix>3d</fix>
</trkpt>
<trkpt lat="-27.2727662" lon="151.2904213">
  <ele>381.53</ele>
  <time>2026-09-01T19:56:58Z</time>
  <course>23.27</course>
  <speed>4.972926703662543</speed>
  <fix>3d</fix>
</trkpt>
<trkpt lat="-27.2727737" lon="151.2904179">
  <ele>380.79</ele>
  <time>2026-09-01T19:56:58Z</time>
  <course>21.51</course>
  <speed>4.99</speed>
  <fix>3d</fix>
</trkpt>
<trkpt lat="-27.2727661" lon="151.2904214">
  <ele>381.54</ele>
  <time>2026-09-01T19:56:58Z</time>
  <course>23.27</course>
  <speed>4.972926703662543</speed>
  <fix>3d</fix>
</trkpt>
<trkpt lat="-27.2727661" lon="151.2904275">
  <ele>343.0</ele>
  <time>2026-09-01T19:56:58Z</time>
  <course>21.85</course>
  <speed>4.998919883334799</speed>
  <fix>3d</fix>
</trkpt>
<trkpt lat="-27.2727621" lon="151.2904232">
  <ele>381.78</ele>
  <time>2026-09-01T19:56:58Z</time>
  <course>23.28</course>
  <speed>4.972926703662543</speed>
  <fix>3d</fix>
</trkpt>
<trkpt lat="-27.2727737" lon="151.2904179">
  <ele>380.79</ele>
  <time>2026-09-01T19:56:58Z</time>
  <course>21.51</course>
  <speed>4.99</speed>
  <fix>3d</fix>
</trkpt>
<trkpt lat="-27.2727619" lon="151.2904232">
  <ele>381.79</ele>
  <time>2026-09-01T19:56:58Z</time>
  <course>23.28</course>
  <speed>4.972926703662543</speed>
  <fix>3d</fix>
</trkpt>
<trkpt lat="-27.2727579" lon="151.290425">
  <ele>382.03</ele>
  <time>2026-09-01T19:56:58Z</time>
  <course>23.28</course>
  <speed>4.976635409591505</speed>
  <fix>3d</fix>
</trkpt>
<trkpt lat="-27.2727653" lon="151.2904216">
  <ele>381.3</ele>
  <time>2026-09-01T19:56:58Z</time>
  <course>21.63</course>
  <speed>4.99</speed>
  <fix>3d</fix>
</trkpt>
<trkpt lat="-27.2727577" lon="151.2904251">
  <ele>382.04</ele>
  <time>2026-09-01T19:56:58Z</time>
  <course>23.28</course>
  <speed>4.976635409591505</speed>
  <fix>3d</fix>
</trkpt>
<trkpt lat="-27.2727577" lon="151.2904312">
  <ele>343.0</ele>
  <time>2026-09-01T19:56:58Z</time>
  <course>21.97</course>
  <speed>4.993375611748029</speed>
  <fix>3d</fix>
</trkpt>
<trkpt lat="-27.2727537" lon="151.2904269">
  <ele>382.29</ele>
  <time>2026-09-01T19:56:58Z</time>
  <course>23.29</course>
  <speed>4.976635409591505</speed>
  <fix>3d</fix>
</trkpt>
<trkpt lat="-27.2727653" lon="151.2904216">
  <ele>381.3</ele>
  <time>2026-09-01T19:56:58Z</time>
  <course>21.63</course>
  <speed>4.99</speed>
  <fix>3d</fix>
</trkpt>
<trkpt lat="-27.2727536" lon="151.2904269">
  <ele>382.29</ele>
  <time>2026-09-01T19:56:58Z</time>
  <course>23.29</course>
  <speed>4.967353420081966</speed>
  <fix>3d</fix>
</trkpt>
<trkpt lat="-27.2727496" lon="151.2904287">
  <ele>382.53</ele>
  <time>2026-09-01T19:56:58Z</time>
  <course>23.3</course>
  <speed>4.967353420081966</speed>
  <fix>3d</fix>
</trkpt>
<trkpt lat="-27.272757" lon="151.2904254">
  <ele>381.8</ele>
  <time>2026-09-01T19:56:58Z</time>
  <course>21.75</course>
  <speed>4.99</speed>
  <fix>3d</fix>
</trkpt>
<trkpt lat="-27.2727494" lon="151.2904288">
  <ele>382.54</ele>
  <time>2026-09-01T19:56:58Z</time>
  <course>23.3</course>
  <speed>4.967353420081966</speed>
  <fix>3d</fix>
</trkpt>
<trkpt lat="-27.2727494" lon="151.290435">
  <ele>343.0</ele>
  <time>2026-09-01T19:56:58Z</time>
  <course>22.08</course>
  <speed>4.993375611748029</speed>
  <fix>3d</fix>
</trkpt>
<trkpt lat="-27.2727454" lon="151.2904306">
  <ele>382.78</ele>
  <time>2026-09-01T19:56:58Z</time>
  <course>23.31</course>
  <speed>4.971086400375676</speed>
  <fix>3d</fix>
</trkpt>
<trkpt lat="-27.272757" lon="151.2904254">
  <ele>381.8</ele>
  <time>2026-09-01T19:56:58Z</time>
  <course>21.75</course>
  <speed>4.99</speed>
  <fix>3d</fix>
</trkpt>
<trkpt lat="-27.2727453" lon="151.2904307">
  <ele>382.79</ele>
  <time>2026-09-01T19:56:58Z</time>
  <course>23.31</course>
  <speed>4.971086400375676</speed>
  <fix>3d</fix>
</trkpt>
<trkpt lat="-27.2727413" lon="151.2904325">
  <ele>383.03</ele>
  <time>2026-09-01T19:56:58Z</time>
  <course>23.31</course>
  <speed>4.971086400375676</speed>
  <fix>3d</fix>
</trkpt>
<trkpt lat="-27.2727487" lon="151.2904291">
  <ele>382.3</ele>
  <time>2026-09-01T19:56:58Z</time>
  <course>21.86</course>
  <speed>4.99</speed>
  <fix>3d</fix>
</trkpt>
<trkpt lat="-27.2727411" lon="151.2904326">
  <ele>383.04</ele>
  <time>2026-09-01T19:56:58Z</time>
  <course>23.31</course>
  <speed>4.971086400375676</speed>
  <fix>3d</fix>
</trkpt>
<trkpt lat="-27.272741" lon="151.2904388">
  <ele>343.0</ele>
  <time>2026-09-01T19:56:58Z</time>
  <course>22.19</course>
  <speed>4.98786527484454</speed>
  <fix>3d</fix>
</trkpt>
<trkpt lat="-27.2727371" lon="151.2904344">
  <ele>383.28</ele>
  <time>2026-09-01T19:56:58Z</time>
  <course>23.32</course>
  <speed>4.974836680736363</speed>
  <fix>3d</fix>
</trkpt>
<trkpt lat="-27.2727487" lon="151.2904291">
  <ele>382.3</ele>
  <time>2026-09-01T19:56:58Z</time>
  <course>21.86</course>
  <speed>4.99</speed>
  <fix>3d</fix>
</trkpt>
<trkpt lat="-27.2727368" lon="151.2904345">
  <ele>383.3</ele>
  <time>2026-09-01T19:56:58Z</time>
  <course>23.32</course>
  <speed>4.974836680736363</speed>
  <fix>3d</fix>
</trkpt>
<trkpt lat="-27.2727329" lon="151.2904363">
  <ele>383.53</ele>
  <time>2026-09-01T19:56:58Z</time>
  <course>23.33</course>
  <speed>4.965571467615787</speed>
  <fix>3d</fix>
</trkpt>
<trkpt lat="-27.2727403" lon="151.2904328">
  <ele>382.8</ele>
  <time>2026-09-01T19:56:58Z</time>
  <course>21.97</course>
  <speed>4.99</speed>
  <fix>3d</fix>
</trkpt>
<trkpt lat="-27.2727328" lon="151.2904364">
  <ele>383.54</ele>
  <time>2026-09-01T19:56:58Z</time>
  <course>23.33</course>
  <speed>4.965571467615787</speed>
  <fix>3d</fix>
</trkpt>
<trkpt lat="-27.2727327" lon="151.2904427">
  <ele>343.0</ele>
  <time>2026-09-01T19:56:58Z</time>
  <course>22.31</course>
  <speed>4.991643016081979</speed>
  <fix>3d</fix>
</trkpt>
<trkpt lat="-27.2727288" lon="151.2904382">
  <ele>383.79</ele>
  <time>2026-09-01T19:56:58Z</time>
  <course>23.34</course>
  <speed>4.965571467615787</speed>
  <fix>3d</fix>
</trkpt>
<trkpt lat="-27.2727403" lon="151.2904328">
  <ele>382.8</ele>
  <time>2026-09-01T19:56:58Z</time>
  <course>21.97</course>
  <speed>4.99</speed>
  <fix>3d</fix>
</trkpt>
<trkpt lat="-27.2727286" lon="151.2904382">
  <ele>383.79</ele>
  <time>2026-09-01T19:56:58Z</time>
  <course>23.35</course>
  <speed>4.965571467615787</speed>
  <fix>3d</fix>
</trkpt>
<trkpt lat="-27.2727246" lon="151.2904401">
  <ele>384.04</ele>
  <time>2026-09-01T19:56:58Z</time>
  <course>23.36</course>
  <speed>4.965571467615787</speed>
  <fix>3d</fix>
</trkpt>
<trkpt lat="-27.272732" lon="151.2904366">
  <ele>383.3</ele>
  <time>2026-09-01T19:56:58Z</time>
  <course>22.07</course>
  <speed>4.98</speed>
  <fix>3d</fix>
</trkpt>
<trkpt lat="-27.2727245" lon="151.2904401">
  <ele>384.05</ele>
  <time>2026-09-01T19:56:58Z</time>
  <course>23.36</course>
  <speed>4.965571467615787</speed>
  <fix>3d</fix>
</trkpt>
<trkpt lat="-27.2727244" lon="151.2904465">
  <ele>343.0</ele>
  <time>2026-09-01T19:56:58Z</time>
  <course>22.42</course>
  <speed>4.995437918741459</speed>
  <fix>3d</fix>
</trkpt>
<trkpt lat="-27.2727203" lon="151.290442">
  <ele>384.3</ele>
  <time>2026-09-01T19:56:58Z</time>
  <course>23.36</course>
  <speed>4.960090724976712</speed>
  <fix>3d</fix>
</trkpt>
<trkpt lat="-27.272732" lon="151.2904366">
  <ele>383.3</ele>
  <time>2026-09-01T19:56:58Z</time>
  <course>22.07</course>
  <speed>4.98</speed>
  <fix>3d</fix>
</trkpt>
<trkpt lat="-27.2727202" lon="151.2904421">
  <ele>384.31</ele>
  <time>2026-09-01T19:56:58Z</time>
  <course>23.36</course>
  <speed>4.960090724976712</speed>
  <fix>3d</fix>
</trkpt>
<trkpt lat="-27.2727162" lon="151.2904439">
  <ele>384.55</ele>
  <time>2026-09-01T19:56:58Z</time>
  <course>23.36</course>
  <speed>4.960090724976712</speed>
  <fix>3d</fix>
</trkpt>
<trkpt lat="-27.2727237" lon="151.2904405">
  <ele>383.8</ele>
  <time>2026-09-01T19:56:58Z</time>
  <course>22.15</course>
  <speed>4.98</speed>
  <fix>3d</fix>
</trkpt>
<trkpt lat="-27.272716" lon="151.290444">
  <ele>384.56</ele>
  <time>2026-09-01T19:56:58Z</time>
  <course>23.36</course>
  <speed>4.960090724976712</speed>
  <fix>3d</fix>
</trkpt>
<trkpt lat="-27.2727161" lon="151.2904504">
  <ele>343.0</ele>
  <time>2026-09-01T19:56:58Z</time>
  <course>22.54</course>
  <speed>4.99001002003002</speed>
  <fix>3d</fix>
</trkpt>
<trkpt lat="-27.2727121" lon="151.2904458">
  <ele>384.8</ele>
  <time>2026-09-01T19:56:58Z</time>
  <course>23.37</course>
  <speed>4.960090724976712</speed>
  <fix>3d</fix>
</trkpt>
<trkpt lat="-27.2727237" lon="151.2904405">
  <ele>383.8</ele>
  <time>2026-09-01T19:56:58Z</time>
  <course>22.15</course>
  <speed>4.98</speed>
  <fix>3d</fix>
</trkpt>
<trkpt lat="-27.2727118" lon="151.290446">
  <ele>384.82</ele>
  <time>2026-09-01T19:56:58Z</time>
  <course>23.37</course>
  <speed>4.960090724976712</speed>
  <fix>3d</fix>
</trkpt>
<trkpt lat="-27.2727079" lon="151.2904477">
  <ele>385.05</ele>
  <time>2026-09-01T19:56:58Z</time>
  <course>23.37</course>
  <speed>4.960090724976712</speed>
  <fix>3d</fix>
</trkpt>
<trkpt lat="-27.2727154" lon="151.2904443">
  <ele>384.3</ele>
  <time>2026-09-01T19:56:58Z</time>
  <course>22.23</course>
  <speed>4.98</speed>
  <fix>3d</fix>
</trkpt>
<trkpt lat="-27.2727076" lon="151.2904479">
  <ele>385.07</ele>
  <time>2026-09-01T19:56:58Z</time>
  <course>23.38</course>
  <speed>4.960090724976712</speed>
  <fix>3d</fix>
</trkpt>
<trkpt lat="-27.2727079" lon="151.2904543">
  <ele>343.0</ele>
  <time>2026-09-01T19:56:58Z</time>
  <course>22.65</course>
  <speed>4.993846213090667</speed>
  <fix>3d</fix>
</trkpt>
<trkpt lat="-27.2727038" lon="151.2904496">
  <ele>385.3</ele>
  <time>2026-09-01T19:56:58Z</time>
  <course>23.38</course>
  <speed>4.954644285920029</speed>
  <fix>3d</fix>
</trkpt>
<trkpt lat="-27.2727154" lon="151.2904443">
  <ele>384.3</ele>
  <time>2026-09-01T19:56:58Z</time>
  <course>22.23</course>
  <speed>4.98</speed>
  <fix>3d</fix>
</trkpt>
<trkpt lat="-27.2727035" lon="151.2904498">
  <ele>385.32</ele>
  <time>2026-09-01T19:56:58Z</time>
  <course>23.38</course>
  <speed>4.954644285920029</speed>
  <fix>3d</fix>
</trkpt>
<trkpt lat="-27.2726996" lon="151.2904516">
  <ele>385.55</ele>
  <time>2026-09-01T19:56:58Z</time>
  <course>23.38</course>
  <speed>4.954644285920029</speed>
  <fix>3d</fix>
</trkpt>
<trkpt lat="-27.2727072" lon="151.2904481">
  <ele>384.8</ele>
  <time>2026-09-01T19:56:58Z</time>
  <course>22.32</course>
  <speed>4.97</speed>
  <fix>3d</fix>
</trkpt>
<trkpt lat="-27.2726995" lon="151.2904516">
  <ele>385.56</ele>
  <time>2026-09-01T19:56:58Z</time>
  <course>23.38</course>
  <speed>4.954644285920029</speed>
  <fix>3d</fix>
</trkpt>
<trkpt lat="-27.2726996" lon="151.2904582">
  <ele>343.0</ele>
  <time>2026-09-01T19:56:58Z</time>
  <course>22.77</course>
  <speed>4.99769947075652</speed>
  <fix>3d</fix>
</trkpt>
<trkpt lat="-27.2726956" lon="151.2904535">
  <ele>385.8</ele>
  <time>2026-09-01T19:56:58Z</time>
  <course>23.38</course>
  <speed>4.954644285920029</speed>
  <fix>3d</fix>
</trkpt>
<trkpt lat="-27.2727072" lon="151.2904481">
  <ele>384.8</ele>
  <time>2026-09-01T19:56:58Z</time>
  <course>22.32</course>
  <speed>4.97</speed>
  <fix>3d</fix>
</trkpt>
<trkpt lat="-27.2726954" lon="151.2904536">
  <ele>385.81</ele>
  <time>2026-09-01T19:56:58Z</time>
  <course>23.38</course>
  <speed>4.954644285920029</speed>
  <fix>3d</fix>
</trkpt>
<trkpt lat="-27.2726915" lon="151.2904554">
  <ele>386.05</ele>
  <time>2026-09-01T19:56:58Z</time>
  <course>23.39</course>
  <speed>4.958467505187465</speed>
  <fix>3d</fix>
</trkpt>
<trkpt lat="-27.2726989" lon="151.2904519">
  <ele>385.3</ele>
  <time>2026-09-01T19:56:58Z</time>
  <course>22.4</course>
  <speed>4.97</speed>
  <fix>3d</fix>
</trkpt>
<trkpt lat="-27.2726913" lon="151.2904554">
  <ele>386.06</ele>
  <time>2026-09-01T19:56:58Z</time>
  <course>23.39</course>
  <speed>4.958467505187465</speed>
  <fix>3d</fix>
</trkpt>
<trkpt lat="-27.2726913" lon="151.2904621">
  <ele>343.0</ele>
  <time>2026-09-01T19:56:58Z</time>
  <course>22.88</course>
  <speed>4.992354154104054</speed>
  <fix>3d</fix>
</trkpt>
<trkpt lat="-27.2726873" lon="151.2904573">
  <ele>386.3</ele>
  <time>2026-09-01T19:56:58Z</time>
  <course>23.39</course>
  <speed>4.958467505187465</speed>
  <fix>3d</fix>
</trkpt>
<trkpt lat="-27.2726989" lon="151.2904519">
  <ele>385.3</ele>
  <time>2026-09-01T19:56:58Z</time>
  <course>22.4</course>
  <speed>4.97</speed>
  <fix>3d</fix>
</trkpt>
<trkpt lat="-27.2726871" lon="151.2904574">
  <ele>386.31</ele>
  <time>2026-09-01T19:56:58Z</time>
  <course>23.39</course>
  <speed>4.958467505187465</speed>
  <fix>3d</fix>
</trkpt>
<trkpt lat="-27.2726832" lon="151.2904592">
  <ele>386.55</ele>
  <time>2026-09-01T19:56:58Z</time>
  <course>23.4</course>
  <speed>4.953079849951947</speed>
  <fix>3d</fix>
</trkpt>
<trkpt lat="-27.2726906" lon="151.2904558">
  <ele>385.8</ele>
  <time>2026-09-01T19:56:58Z</time>
  <course>22.5</course>
  <speed>4.97</speed>
  <fix>3d</fix>
</trkpt>
<trkpt lat="-27.2726831" lon="151.2904593">
  <ele>386.56</ele>
  <time>2026-09-01T19:56:58Z</time>
  <course>23.4</course>
  <speed>4.953079849951947</speed>
  <fix>3d</fix>
</trkpt>
<trkpt lat="-27.272683" lon="151.290466">
  <ele>343.0</ele>
  <time>2026-09-01T19:56:58Z</time>
  <course>23.0</course>
  <speed>4.9962485926943225</speed>
  <fix>3d</fix>
</trkpt>
<trkpt lat="-27.2726791" lon="151.2904612">
  <ele>386.8</ele>
  <time>2026-09-01T19:56:58Z</time>
  <course>23.4</course>
  <speed>4.953079849951947</speed>
  <fix>3d</fix>
</trkpt>
<trkpt lat="-27.2726906" lon="151.2904558">
  <ele>385.8</ele>
  <time>2026-09-01T19:56:58Z</time>
  <course>22.5</course>
  <speed>4.97</speed>
  <fix>3d</fix>
</trkpt>
<trkpt lat="-27.2726789" lon="151.2904612">
  <ele>386.81</ele>
  <time>2026-09-01T19:56:58Z</time>
  <course>23.4</course>
  <speed>4.953079849951947</speed>
  <fix>3d</fix>
</trkpt>
<trkpt lat="-27.272675" lon="151.2904631">
  <ele>387.05</ele>
  <time>2026-09-01T19:56:58Z</time>
  <course>23.41</course>
  <speed>4.953079849951947</speed>
  <fix>3d</fix>
</trkpt>
<trkpt lat="-27.2726824" lon="151.2904596">
  <ele>386.3</ele>
  <time>2026-09-01T19:56:58Z</time>
  <course>22.61</course>
  <speed>4.97</speed>
  <fix>3d</fix>
</trkpt>
<trkpt lat="-27.2726748" lon="151.2904632">
  <ele>387.06</ele>
  <time>2026-09-01T19:56:58Z</time>
  <course>23.41</course>
  <speed>4.956944623455057</speed>
  <fix>3d</fix>
</trkpt>
<trkpt lat="-27.2726748" lon="151.29047">
  <ele>343.0</ele>
  <time>2026-09-01T19:56:58Z</time>
  <course>23.11</course>
  <speed>4.9909618311503845</speed>
  <fix>3d</fix>
</trkpt>
<trkpt lat="-27.2726708" lon="151.2904651">
  <ele>387.3</ele>
  <time>2026-09-01T19:56:58Z</time>
  <course>23.41</course>
  <speed>4.947726750741193</speed>
  <fix>3d</fix>
</trkpt>
<trkpt lat="-27.2726824" lon="151.2904596">
  <ele>386.3</ele>
  <time>2026-09-01T19:56:58Z</time>
  <course>22.61</course>
  <speed>4.97</speed>
  <fix>3d</fix>
</trkpt>
<trkpt lat="-27.2726707" lon="151.2904651">
  <ele>387.3</ele>
  <time>2026-09-01T19:56:58Z</time>
  <course>23.41</course>
  <speed>4.947726750741193</speed>
  <fix>3d</fix>
</trkpt>
<trkpt lat="-27.2726667" lon="151.290467">
  <ele>387.55</ele>
  <time>2026-09-01T19:56:58Z</time>
  <course>23.41</course>
  <speed>4.947726750741193</speed>
  <fix>3d</fix>
</trkpt>
<trkpt lat="-27.2726742" lon="151.2904635">
  <ele>386.8</ele>
  <time>2026-09-01T19:56:58Z</time>
  <course>22.72</course>
  <speed>4.96</speed>
  <fix>3d</fix>
</trkpt>
<trkpt lat="-27.2726666" lon="151.2904671">
  <ele>387.55</ele>
  <time>2026-09-01T19:56:58Z</time>
  <course>23.41</course>
  <speed>4.947726750741193</speed>
  <fix>3d</fix>
</trkpt>
<trkpt lat="-27.2726665" lon="151.2904739">
  <ele>343.0</ele>
  <time>2026-09-01T19:56:58Z</time>
  <course>23.22</course>
  <speed>4.9948973963435925</speed>
  <fix>3d</fix>
</trkpt>
<trkpt lat="-27.2726626" lon="151.290469">
  <ele>387.79</ele>
  <time>2026-09-01T19:56:58Z</time>
  <course>23.41</course>
  <speed>4.95161589786607</speed>
  <fix>3d</fix>
</trkpt>
<trkpt lat="-27.2726742" lon="151.2904635">
  <ele>386.8</ele>
  <time>2026-09-01T19:56:58Z</time>
  <course>22.72</course>
  <speed>4.96</speed>
  <fix>3d</fix>
</trkpt>
<trkpt lat="-27.2726625" lon="151.290469">
  <ele>387.8</ele>
  <time>2026-09-01T19:56:58Z</time>
  <course>23.41</course>
  <speed>4.95161589786607</speed>
  <fix>3d</fix>
</trkpt>
<trkpt lat="-27.2726585" lon="151.2904709">
  <ele>388.04</ele>
  <time>2026-09-01T19:56:58Z</time>
  <course>23.42</course>
  <speed>4.942408319837607</speed>
  <fix>3d</fix>
</trkpt>
<trkpt lat="-27.272666" lon="151.2904673">
  <ele>387.3</ele>
  <time>2026-09-01T19:56:58Z</time>
  <course>22.83</course>
  <speed>4.96</speed>
  <fix>3d</fix>
</trkpt>
<trkpt lat="-27.2726582" lon="151.2904711">
  <ele>388.06</ele>
  <time>2026-09-01T19:56:58Z</time>
  <course>23.42</course>
  <speed>4.942408319837607</speed>
  <fix>3d</fix>
</trkpt>
<trkpt lat="-27.2726582" lon="151.2904779">
  <ele>343.0</ele>
  <time>2026-09-01T19:56:58Z</time>
  <course>23.34</course>
  <speed>4.998849867719573</speed>
  <fix>3d</fix>
</trkpt>
<trkpt lat="-27.2726544" lon="151.2904729">
  <ele>388.29</ele>
  <time>2026-09-01T19:56:58Z</time>
  <course>23.43</course>
  <speed>4.942408319837607</speed>
  <fix>3d</fix>
</trkpt>
<trkpt lat="-27.272666" lon="151.2904673">
  <ele>387.3</ele>
  <time>2026-09-01T19:56:58Z</time>
  <course>22.83</course>
  <speed>4.96</speed>
  <fix>3d</fix>
</trkpt>
<trkpt lat="-27.2726543" lon="151.2904729">
  <ele>388.3</ele>
  <time>2026-09-01T19:56:58Z</time>
  <course>23.43</course>
  <speed>4.942408319837607</speed>
  <fix>3d</fix>
</trkpt>
<trkpt lat="-27.2726503" lon="151.2904748">
  <ele>388.54</ele>
  <time>2026-09-01T19:56:58Z</time>
  <course>23.44</course>
  <speed>4.9463218657907815</speed>
  <fix>3d</fix>
</trkpt>
<trkpt lat="-27.2726578" lon="151.2904712">
  <ele>387.8</ele>
  <time>2026-09-01T19:56:58Z</time>
  <course>22.94</course>
  <speed>4.95</speed>
  <fix>3d</fix>
</trkpt>
<trkpt lat="-27.2726501" lon="151.2904749">
  <ele>388.55</ele>
  <time>2026-09-01T19:56:58Z</time>
  <course>23.44</course>
  <speed>4.9463218657907815</speed>
  <fix>3d</fix>
</trkpt>
<trkpt lat="-27.27265" lon="151.290482">
  <ele>343.0</ele>
  <time>2026-09-01T19:56:58Z</time>
  <course>23.45</course>
  <speed>4.993645962620898</speed>
  <fix>3d</fix>
</trkpt>
<trkpt lat="-27.2726462" lon="151.2904768">
  <ele>388.8</ele>
  <time>2026-09-01T19:56:58Z</time>
  <course>23.44</course>
  <speed>4.937124669278669</speed>
  <fix>3d</fix>
</trkpt>
<trkpt lat="-27.2726578" lon="151.2904712">
  <ele>387.8</ele>
  <time>2026-09-01T19:56:58Z</time>
  <course>22.94</course>
  <speed>4.95</speed>
  <fix>3d</fix>
</trkpt>
<trkpt lat="-27.2726461" lon="151.2904769">
  <ele>388.8</ele>
  <time>2026-09-01T19:56:58Z</time>
  <course>23.44</course>
  <speed>4.937124669278669</speed>
  <fix>3d</fix>
</trkpt>
<trkpt lat="-27.2726421" lon="151.2904788">
  <ele>389.05</ele>
  <time>2026-09-01T19:56:58Z</time>
  <course>23.45</course>
  <speed>4.941062638744827</speed>
  <fix>3d</fix>
</trkpt>
<trkpt lat="-27.2726495" lon="151.2904752">
  <ele>388.3</ele>
  <time>2026-09-01T19:56:58Z</time>
  <course>23.05</course>
  <speed>4.95</speed>
  <fix>3d</fix>
</trkpt>
<trkpt lat="-27.272642" lon="151.2904788">
  <ele>389.05</ele>
  <time>2026-09-01T19:56:58Z</time>
  <course>23.45</course>
  <speed>4.941062638744827</speed>
  <fix>3d</fix>
</trkpt>
<trkpt lat="-27.2726417" lon="151.290486">
  <ele>343.0</ele>
  <time>2026-09-01T19:56:58Z</time>
  <course>23.57</course>
  <speed>4.993645962620898</speed>
  <fix>3d</fix>
</trkpt>
<trkpt lat="-27.272638" lon="151.2904807">
  <ele>389.3</ele>
  <time>2026-09-01T19:56:58Z</time>
  <course>23.47</course>
  <speed>4.941062638744827</speed>
  <fix>3d</fix>
</trkpt>
<trkpt lat="-27.2726495" lon="151.2904752">
  <ele>388.3</ele>
  <time>2026-09-01T19:56:58Z</time>
  <course>23.05</course>
  <speed>4.95</speed>
  <fix>3d</fix>
</trkpt>
<trkpt lat="-27.2726379" lon="151.2904808">
  <ele>389.3</ele>
  <time>2026-09-01T19:56:58Z</time>
  <course>23.47</course>
  <speed>4.941062638744827</speed>
  <fix>3d</fix>
</trkpt>
<trkpt lat="-27.2726338" lon="151.2904828">
  <ele>389.55</ele>
  <time>2026-09-01T19:56:58Z</time>
  <course>23.48</course>
  <speed>4.941062638744827</speed>
  <fix>3d</fix>
</trkpt>
<trkpt lat="-27.2726413" lon="151.2904791">
  <ele>388.79</ele>
  <time>2026-09-01T19:56:58Z</time>
  <course>23.16</course>
  <speed>4.95</speed>
  <fix>3d</fix>
</trkpt>
<trkpt lat="-27.2726336" lon="151.2904829">
  <ele>389.56</ele>
  <time>2026-09-01T19:56:58Z</time>
  <course>23.48</course>
  <speed>4.941062638744827</speed>
  <fix>3d</fix>
</trkpt>
<trkpt lat="-27.2726335" lon="151.2904901">
  <ele>343.0</ele>
  <time>2026-09-01T19:56:58Z</time>
  <course>23.68</course>
  <speed>4.988476721405043</speed>
  <fix>3d</fix>
</trkpt>
<trkpt lat="-27.2726297" lon="151.2904847">
  <ele>389.8</ele>
  <time>2026-09-01T19:56:58Z</time>
  <course>23.49</course>
  <speed>4.945017694609393</speed>
  <fix>3d</fix>
</trkpt>
<trkpt lat="-27.2726413" lon="151.2904791">
  <ele>388.79</ele>
  <time>2026-09-01T19:56:58Z</time>
  <course>23.16</course>
  <speed>4.95</speed>
  <fix>3d</fix>
</trkpt>
<trkpt lat="-27.2726295" lon="151.2904848">
  <ele>389.81</ele>
  <time>2026-09-01T19:56:58Z</time>
  <course>23.49</course>
  <speed>4.945017694609393</speed>
  <fix>3d</fix>
</trkpt>
<trkpt lat="-27.2726256" lon="151.2904867">
  <ele>390.05</ele>
  <time>2026-09-01T19:56:58Z</time>
  <course>23.5</course>
  <speed>4.935838327984416</speed>
  <fix>3d</fix>
</trkpt>
<trkpt lat="-27.2726332" lon="151.2904831">
  <ele>389.29</ele>
  <time>2026-09-01T19:56:58Z</time>
  <course>23.26</course>
  <speed>4.95</speed>
  <fix>3d</fix>
</trkpt>
<trkpt lat="-27.2726254" lon="151.2904868">
  <ele>390.06</ele>
  <time>2026-09-01T19:56:58Z</time>
  <course>23.5</course>
  <speed>4.935838327984416</speed>
  <fix>3d</fix>
</trkpt>
<trkpt lat="-27.2726253" lon="151.2904941">
  <ele>343.0</ele>
  <time>2026-09-01T19:56:58Z</time>
  <course>23.8</course>
  <speed>4.992494366546646</speed>
  <fix>3d</fix>
</trkpt>
<trkpt lat="-27.2726215" lon="151.2904887">
  <ele>390.3</ele>
  <time>2026-09-01T19:56:58Z</time>
  <course>23.5</course>
  <speed>4.939817810405562</speed>
  <fix>3d</fix>
</trkpt>
<trkpt lat="-27.2726332" lon="151.2904831">
  <ele>389.29</ele>
  <time>2026-09-01T19:56:58Z</time>
  <course>23.26</course>
  <speed>4.95</speed>
  <fix>3d</fix>
</trkpt>
<trkpt lat="-27.2726214" lon="151.2904888">
  <ele>390.31</ele>
  <time>2026-09-01T19:56:58Z</time>
  <course>23.5</course>
  <speed>4.939817810405562</speed>
  <fix>3d</fix>
</trkpt>
<trkpt lat="-27.2726174" lon="151.2904907">
  <ele>390.55</ele>
  <time>2026-09-01T19:56:58Z</time>
  <course>23.51</course>
  <speed>4.939817810405562</speed>
  <fix>3d</fix>
</trkpt>
<trkpt lat="-27.272625" lon="151.290487">
  <ele>389.79</ele>
  <time>2026-09-01T19:56:58Z</time>
  <course>23.35</course>
  <speed>4.95</speed>
  <fix>3d</fix>
</trkpt>
<trkpt lat="-27.2726173" lon="151.2904908">
  <ele>390.56</ele>
  <time>2026-09-01T19:56:58Z</time>
  <course>23.51</course>
  <speed>4.939817810405562</speed>
  <fix>3d</fix>
</trkpt>
<trkpt lat="-27.2726171" lon="151.2904982">
  <ele>343.0</ele>
  <time>2026-09-01T19:56:58Z</time>
  <course>23.91</course>
  <speed>4.996528795073636</speed>
  <fix>3d</fix>
</trkpt>
<trkpt lat="-27.2726133" lon="151.2904927">
  <ele>390.8</ele>
  <time>2026-09-01T19:56:58Z</time>
  <course>23.51</course>
  <speed>4.939817810405562</speed>
  <fix>3d</fix>
</trkpt>
<trkpt lat="-27.272625" lon="151.290487">
  <ele>389.79</ele>
  <time>2026-09-01T19:56:58Z</time>
  <course>23.35</course>
  <speed>4.95</speed>
  <fix>3d</fix>
</trkpt>
<trkpt lat="-27.2726132" lon="151.2904928">
  <ele>390.81</ele>
  <time>2026-09-01T19:56:58Z</time>
  <course>23.51</course>
  <speed>4.939817810405562</speed>
  <fix>3d</fix>
</trkpt>
<trkpt lat="-27.2726092" lon="151.2904947">
  <ele>391.05</ele>
  <time>2026-09-01T19:56:58Z</time>
  <course>23.51</course>
  <speed>4.943814316901475</speed>
  <fix>3d</fix>
</trkpt>
<trkpt lat="-27.2726168" lon="151.2904909">
  <ele>390.29</ele>
  <time>2026-09-01T19:56:58Z</time>
  <course>23.44</course>
  <speed>4.95</speed>
  <fix>3d</fix>
</trkpt>
<trkpt lat="-27.272609" lon="151.2904949">
  <ele>391.07</ele>
  <time>2026-09-01T19:56:58Z</time>
  <course>23.51</course>
  <speed>4.943814316901475</speed>
  <fix>3d</fix>
</trkpt>
<trkpt lat="-27.2726089" lon="151.2905023">
  <ele>343.0</ele>
  <time>2026-09-01T19:56:58Z</time>
  <course>24.03</course>
  <speed>4.991442677222689</speed>
  <fix>3d</fix>
</trkpt>
<trkpt lat="-27.2726051" lon="151.2904967">
  <ele>391.3</ele>
  <time>2026-09-01T19:56:58Z</time>
  <course>23.51</course>
  <speed>4.943814316901475</speed>
  <fix>3d</fix>
</trkpt>
<trkpt lat="-27.2726168" lon="151.2904909">
  <ele>390.29</ele>
  <time>2026-09-01T19:56:58Z</time>
  <course>23.44</course>
  <speed>4.95</speed>
  <fix>3d</fix>
</trkpt>
<trkpt lat="-27.272605" lon="151.2904968">
  <ele>391.31</ele>
  <time>2026-09-01T19:56:58Z</time>
  <course>23.51</course>
  <speed>4.943814316901475</speed>
  <fix>3d</fix>
</trkpt>
<trkpt lat="-27.2726011" lon="151.2904987">
  <ele>391.55</ele>
  <time>2026-09-01T19:56:58Z</time>
  <course>23.51</course>
  <speed>4.943814316901475</speed>
  <fix>3d</fix>
</trkpt>
<trkpt lat="-27.2726087" lon="151.290495">
  <ele>390.79</ele>
  <time>2026-09-01T19:56:58Z</time>
  <course>23.52</course>
  <speed>4.95</speed>
  <fix>3d</fix>
</trkpt>
<trkpt lat="-27.2726009" lon="151.2904988">
  <ele>391.56</ele>
  <time>2026-09-01T19:56:58Z</time>
  <course>23.51</course>
  <speed>4.943814316901475</speed>
  <fix>3d</fix>
</trkpt>
<trkpt lat="-27.2726007" lon="151.2905064">
  <ele>343.0</ele>
  <time>2026-09-01T19:56:58Z</time>
  <course>24.14</course>
  <speed>4.995517991159676</speed>
  <fix>3d</fix>
</trkpt>
<trkpt lat="-27.272597" lon="151.2905007">
  <ele>391.8</ele>
  <time>2026-09-01T19:56:58Z</time>
  <course>23.51</course>
  <speed>4.947827806219614</speed>
  <fix>3d</fix>
</trkpt>
<trkpt lat="-27.2726087" lon="151.290495">
  <ele>390.79</ele>
  <time>2026-09-01T19:56:58Z</time>
  <course>23.52</course>
  <speed>4.95</speed>
  <fix>3d</fix>
</trkpt>
<trkpt lat="-27.2725969" lon="151.2905008">
  <ele>391.81</ele>
  <time>2026-09-01T19:56:58Z</time>
  <course>23.51</course>
  <speed>4.947827806219614</speed>
  <fix>3d</fix>
</trkpt>
<trkpt lat="-27.2725929" lon="151.2905028">
  <ele>392.05</ele>
  <time>2026-09-01T19:56:58Z</time>
  <course>23.51</course>
  <speed>4.947827806219614</speed>
  <fix>3d</fix>
</trkpt>
<trkpt lat="-27.2726005" lon="151.290499">
  <ele>391.29</ele>
  <time>2026-09-01T19:56:58Z</time>
  <course>23.6</course>
  <speed>4.95</speed>
  <fix>3d</fix>
</trkpt>
<trkpt lat="-27.2725928" lon="151.2905028">
  <ele>392.06</ele>
  <time>2026-09-01T19:56:58Z</time>
  <course>23.51</course>
  <speed>4.947827806219614</speed>
  <fix>3d</fix>
</trkpt>
<trkpt lat="-27.2725925" lon="151.2905106">
  <ele>343.0</ele>
  <time>2026-09-01T19:56:58Z</time>
  <course>24.25</course>
  <speed>4.990490957811666</speed>
  <fix>3d</fix>
</trkpt>
<trkpt lat="-27.2725888" lon="151.2905048">
  <ele>392.3</ele>
  <time>2026-09-01T19:56:58Z</time>
  <course>23.52</course>
  <speed>4.951858237066163</speed>
  <fix>3d</fix>
</trkpt>
<trkpt lat="-27.2726005" lon="151.290499">
  <ele>391.29</ele>
  <time>2026-09-01T19:56:58Z</time>
  <course>23.6</course>
  <speed>4.95</speed>
  <fix>3d</fix>
</trkpt>
<trkpt lat="-27.2725881" lon="151.2905051">
  <ele>392.34</ele>
  <time>2026-09-01T19:56:58Z</time>
  <course>23.52</course>
  <speed>4.951858237066163</speed>
  <fix>3d</fix>
</trkpt>
<trkpt lat="-27.2725847" lon="151.2905068">
  <ele>392.55</ele>
  <time>2026-09-01T19:56:58Z</time>
  <course>23.52</course>
  <speed>4.9427118062861</speed>
  <fix>3d</fix>
</trkpt>
<trkpt lat="-27.2725924" lon="151.290503">
  <ele>391.79</ele>
  <time>2026-09-01T19:56:58Z</time>
  <course>23.7</course>
  <speed>4.95</speed>
  <fix>3d</fix>
</trkpt>
<trkpt lat="-27.2725846" lon="151.2905069">
  <ele>392.56</ele>
  <time>2026-09-01T19:56:58Z</time>
  <course>23.52</course>
  <speed>4.9427118062861</speed>
  <fix>3d</fix>
</trkpt>
<trkpt lat="-27.2725843" lon="151.2905147">
  <ele>343.0</ele>
  <time>2026-09-01T19:56:58Z</time>
  <course>24.37</course>
  <speed>4.9946070916539576</speed>
  <fix>3d</fix>
</trkpt>
<trkpt lat="-27.2725808" lon="151.2905088">
  <ele>392.79</ele>
  <time>2026-09-01T19:56:58Z</time>
  <course>23.52</course>
  <speed>4.946766620733183</speed>
  <fix>3d</fix>
</trkpt>
<trkpt lat="-27.2725924" lon="151.290503">
  <ele>391.79</ele>
  <time>2026-09-01T19:56:58Z</time>
  <course>23.7</course>
  <speed>4.95</speed>
  <fix>3d</fix>
</trkpt>
<trkpt lat="-27.2725805" lon="151.2905089">
  <ele>392.81</ele>
  <time>2026-09-01T19:56:58Z</time>
  <course>23.52</course>
  <speed>4.946766620733183</speed>
  <fix>3d</fix>
</trkpt>
<trkpt lat="-27.2725767" lon="151.2905108">
  <ele>393.04</ele>
  <time>2026-09-01T19:56:58Z</time>
  <course>23.53</course>
  <speed>4.946766620733183</speed>
  <fix>3d</fix>
</trkpt>
<trkpt lat="-27.2725842" lon="151.290507">
  <ele>392.28</ele>
  <time>2026-09-01T19:56:58Z</time>
  <course>23.81</course>
  <speed>4.95</speed>
  <fix>3d</fix>
</trkpt>
<trkpt lat="-27.2725766" lon="151.2905109">
  <ele>393.05</ele>
  <time>2026-09-01T19:56:58Z</time>
  <course>23.53</course>
  <speed>4.946766620733183</speed>
  <fix>3d</fix>
</trkpt>
<trkpt lat="-27.2725761" lon="151.2905189">
  <ele>343.0</ele>
  <time>2026-09-01T19:56:58Z</time>
  <course>24.48</course>
  <speed>4.99873984119998</speed>
  <fix>3d</fix>
</trkpt>
<trkpt lat="-27.2725727" lon="151.2905128">
  <ele>393.29</ele>
  <time>2026-09-01T19:56:58Z</time>
  <course>23.53</course>
  <speed>4.9508383128516735</speed>
  <fix>3d</fix>
</trkpt>
<trkpt lat="-27.2725842" lon="151.290507">
  <ele>392.28</ele>
  <time>2026-09-01T19:56:58Z</time>
  <course>23.81</course>
  <speed>4.95</speed>
  <fix>3d</fix>
</trkpt>
<trkpt lat="-27.2725725" lon="151.2905129">
  <ele>393.3</ele>
  <time>2026-09-01T19:56:58Z</time>
  <course>23.53</course>
  <speed>4.9508383128516735</speed>
  <fix>3d</fix>
</trkpt>
<trkpt lat="-27.2725686" lon="151.2905149">
  <ele>393.53</ele>
  <time>2026-09-01T19:56:58Z</time>
  <course>23.54</course>
  <speed>4.941710230274535</speed>
  <fix>3d</fix>
</trkpt>
<trkpt lat="-27.2725761" lon="151.2905111">
  <ele>392.78</ele>
  <time>2026-09-01T19:56:58Z</time>
  <course>23.93</course>
  <speed>4.95</speed>
  <fix>3d</fix>
</trkpt>
<trkpt lat="-27.2725684" lon="151.290515">
  <ele>393.54</ele>
  <time>2026-09-01T19:56:58Z</time>
  <course>23.54</course>
  <speed>4.941710230274535</speed>
  <fix>3d</fix>
</trkpt>
<trkpt lat="-27.2725679" lon="151.2905231">
  <ele>343.0</ele>
  <time>2026-09-01T19:56:58Z</time>
  <course>24.6</course>
  <speed>4.993796151226039</speed>
  <fix>3d</fix>
</trkpt>
<trkpt lat="-27.2725645" lon="151.2905169">
  <ele>393.78</ele>
  <time>2026-09-01T19:56:58Z</time>
  <course>23.54</course>
  <speed>4.945806304335017</speed>
  <fix>3d</fix>
</trkpt>
<trkpt lat="-27.2725761" lon="151.2905111">
  <ele>392.78</ele>
  <time>2026-09-01T19:56:58Z</time>
  <course>23.93</course>
  <speed>4.95</speed>
  <fix>3d</fix>
</trkpt>
<trkpt lat="-27.2725644" lon="151.290517">
  <ele>393.79</ele>
  <time>2026-09-01T19:56:58Z</time>
  <course>23.54</course>
  <speed>4.945806304335017</speed>
  <fix>3d</fix>
</trkpt>
<trkpt lat="-27.2725604" lon="151.290519">
  <ele>394.03</ele>
  <time>2026-09-01T19:56:58Z</time>
  <course>23.56</course>
  <speed>4.945806304335017</speed>
  <fix>3d</fix>
</trkpt>
<trkpt lat="-27.2725679" lon="151.2905152">
  <ele>393.28</ele>
  <time>2026-09-01T19:56:58Z</time>
  <course>24.06</course>
  <speed>4.95</speed>
  <fix>3d</fix>
</trkpt>
<trkpt lat="-27.2725601" lon="151.2905191">
  <ele>394.04</ele>
  <time>2026-09-01T19:56:58Z</time>
  <course>23.56</course>
  <speed>4.945806304335017</speed>
  <fix>3d</fix>
</trkpt>
<trkpt lat="-27.2725598" lon="151.2905273">
  <ele>343.0</ele>
  <time>2026-09-01T19:56:58Z</time>
  <course>24.71</course>
  <speed>4.997969587742606</speed>
  <fix>3d</fix>
</trkpt>
<trkpt lat="-27.2725564" lon="151.2905211">
  <ele>394.28</ele>
  <time>2026-09-01T19:56:58Z</time>
  <course>23.56</course>
  <speed>4.949919191259591</speed>
  <fix>3d</fix>
</trkpt>
<trkpt lat="-27.2725679" lon="151.2905152">
  <ele>393.28</ele>
  <time>2026-09-01T19:56:58Z</time>
  <course>24.06</course>
  <speed>4.95</speed>
  <fix>3d</fix>
</trkpt>
<trkpt lat="-27.2725562" lon="151.2905211">
  <ele>394.28</ele>
  <time>2026-09-01T19:56:58Z</time>
  <course>23.56</course>
  <speed>4.949919191259591</speed>
  <fix>3d</fix>
</trkpt>
<trkpt lat="-27.2725523" lon="151.2905231">
  <ele>394.52</ele>
  <time>2026-09-01T19:56:58Z</time>
  <course>23.57</course>
  <speed>4.949919191259591</speed>
  <fix>3d</fix>
</trkpt>
<trkpt lat="-27.2725598" lon="151.2905193">
  <ele>393.78</ele>
  <time>2026-09-01T19:56:58Z</time>
  <course>24.17</course>
  <speed>4.95</speed>
  <fix>3d</fix>
</trkpt>
<trkpt lat="-27.2725522" lon="151.2905232">
  <ele>394.53</ele>
  <time>2026-09-01T19:56:58Z</time>
  <course>23.57</course>
  <speed>4.949919191259591</speed>
  <fix>3d</fix>
</trkpt>
<trkpt lat="-27.2725516" lon="151.2905316">
  <ele>343.0</ele>
  <time>2026-09-01T19:56:59Z</time>
  <course>24.83</course>
  <speed>4.98888765157124</speed>
  <fix>3d</fix>
</trkpt>
<trkpt lat="-27.2725481" lon="151.2905252">
  <ele>394.78</ele>
  <time>2026-09-01T19:56:59Z</time>
  <course>23.57</course>
  <speed>4.954048849173774</speed>
  <fix>3d</fix>
</trkpt>
<trkpt lat="-27.2725598" lon="151.2905193">
  <ele>393.78</ele>
  <time>2026-09-01T19:56:59Z</time>
  <course>24.17</course>
  <speed>4.95</speed>
  <fix>3d</fix>
</trkpt>
<trkpt lat="-27.272548" lon="151.2905253">
  <ele>394.79</ele>
  <time>2026-09-01T19:56:59Z</time>
  <course>23.57</course>
  <speed>4.954048849173774</speed>
  <fix>3d</fix>
</trkpt>
<trkpt lat="-27.2725441" lon="151.2905273">
  <ele>395.03</ele>
  <time>2026-09-01T19:56:59Z</time>
  <course>23.57</course>
  <speed>4.954048849173774</speed>
  <fix>3d</fix>
</trkpt>
<trkpt lat="-27.2725517" lon="151.2905234">
  <ele>394.28</ele>
  <time>2026-09-01T19:56:59Z</time>
  <course>24.29</course>
  <speed>4.95</speed>
  <fix>3d</fix>
</trkpt>
<trkpt lat="-27.2725439" lon="151.2905274">
  <ele>395.04</ele>
  <time>2026-09-01T19:56:59Z</time>
  <course>23.57</course>
  <speed>4.954048849173774</speed>
  <fix>3d</fix>
</trkpt>
<trkpt lat="-27.2725435" lon="151.2905358">
  <ele>343.0</ele>
  <time>2026-09-01T19:56:59Z</time>
  <course>24.94</course>
  <speed>4.9930852185797905</speed>
  <fix>3d</fix>
</trkpt>
<trkpt lat="-27.2725401" lon="151.2905294">
  <ele>395.28</ele>
  <time>2026-09-01T19:56:59Z</time>
  <course>23.57</course>
  <speed>4.949100928451551</speed>
  <fix>3d</fix>
</trkpt>
<trkpt lat="-27.2725517" lon="151.2905234">
  <ele>394.28</ele>
  <time>2026-09-01T19:56:59Z</time>
  <course>24.29</course>
  <speed>4.95</speed>
  <fix>3d</fix>
</trkpt>
<trkpt lat="-27.2725399" lon="151.2905295">
  <ele>395.29</ele>
  <time>2026-09-01T19:56:59Z</time>
  <course>23.57</course>
  <speed>4.949100928451551</speed>
  <fix>3d</fix>
</trkpt>
<trkpt lat="-27.272536" lon="151.2905314">
  <ele>395.53</ele>
  <time>2026-09-01T19:56:59Z</time>
  <course>23.57</course>
  <speed>4.949100928451551</speed>
  <fix>3d</fix>
</trkpt>
<trkpt lat="-27.2725435" lon="151.2905275">
  <ele>394.78</ele>
  <time>2026-09-01T19:56:59Z</time>
  <course>24.4</course>
  <speed>4.96</speed>
  <fix>3d</fix>
</trkpt>
<trkpt lat="-27.2725359" lon="151.2905315">
  <ele>395.54</ele>
  <time>2026-09-01T19:56:59Z</time>
  <course>23.57</course>
  <speed>4.949100928451551</speed>
  <fix>3d</fix>
</trkpt>
<trkpt lat="-27.2725353" lon="151.2905401">
  <ele>343.0</ele>
  <time>2026-09-01T19:56:59Z</time>
  <course>25.06</course>
  <speed>4.9882361612096915</speed>
  <fix>3d</fix>
</trkpt>
<trkpt lat="-27.272532" lon="151.2905335">
  <ele>395.79</ele>
  <time>2026-09-01T19:56:59Z</time>
  <course>23.59</course>
  <speed>4.953271646094125</speed>
  <fix>3d</fix>
</trkpt>
<trkpt lat="-27.2725435" lon="151.2905275">
  <ele>394.78</ele>
  <time>2026-09-01T19:56:59Z</time>
  <course>24.4</course>
  <speed>4.96</speed>
  <fix>3d</fix>
</trkpt>
<trkpt lat="-27.2725318" lon="151.2905336">
  <ele>395.8</ele>
  <time>2026-09-01T19:56:59Z</time>
  <course>23.59</course>
  <speed>4.953271646094125</speed>
  <fix>3d</fix>
</trkpt>
<trkpt lat="-27.2725279" lon="151.2905356">
  <ele>396.04</ele>
  <time>2026-09-01T19:56:59Z</time>
  <course>23.6</course>
  <speed>4.953271646094125</speed>
  <fix>3d</fix>
</trkpt>
<trkpt lat="-27.2725354" lon="151.2905316">
  <ele>395.28</ele>
  <time>2026-09-01T19:56:59Z</time>
  <course>24.51</course>
  <speed>4.96</speed>
  <fix>3d</fix>
</trkpt>
<trkpt lat="-27.2725278" lon="151.2905357">
  <ele>396.05</ele>
  <time>2026-09-01T19:56:59Z</time>
  <course>23.6</course>
  <speed>4.953271646094125</speed>
  <fix>3d</fix>
</trkpt>
<trkpt lat="-27.2725272" lon="151.2905444">
  <ele>343.0</ele>
  <time>2026-09-01T19:56:59Z</time>
  <course>25.17</course>
  <speed>4.9924743364387965</speed>
  <fix>3d</fix>
</trkpt>
<trkpt lat="-27.2725239" lon="151.2905377">
  <ele>396.29</ele>
  <time>2026-09-01T19:56:59Z</time>
  <course>23.61</course>
  <speed>4.957459026557859</speed>
  <fix>3d</fix>
</trkpt>
<trkpt lat="-27.2725354" lon="151.2905316">
  <ele>395.28</ele>
  <time>2026-09-01T19:56:59Z</time>
  <course>24.51</course>
  <speed>4.96</speed>
  <fix>3d</fix>
</trkpt>
<trkpt lat="-27.2725237" lon="151.2905378">
  <ele>396.3</ele>
  <time>2026-09-01T19:56:59Z</time>
  <course>23.61</course>
  <speed>4.957459026557859</speed>
  <fix>3d</fix>
</trkpt>
<trkpt lat="-27.2725198" lon="151.2905398">
  <ele>396.54</ele>
  <time>2026-09-01T19:56:59Z</time>
  <course>23.61</course>
  <speed>4.957459026557859</speed>
  <fix>3d</fix>
</trkpt>
<trkpt lat="-27.2725273" lon="151.2905359">
  <ele>395.79</ele>
  <time>2026-09-01T19:56:59Z</time>
  <course>24.61</course>
  <speed>4.96</speed>
  <fix>3d</fix>
</trkpt>
<trkpt lat="-27.2725197" lon="151.2905398">
  <ele>396.55</ele>
  <time>2026-09-01T19:56:59Z</time>
  <course>23.61</course>
  <speed>4.957459026557859</speed>
  <fix>3d</fix>
</trkpt>
<trkpt lat="-27.2725191" lon="151.2905487">
  <ele>343.0</ele>
  <time>2026-09-01T19:56:59Z</time>
  <course>25.29</course>
  <speed>4.9967289300101125</speed>
  <fix>3d</fix>
</trkpt>
<trkpt lat="-27.2725158" lon="151.2905419">
  <ele>396.79</ele>
  <time>2026-09-01T19:56:59Z</time>
  <course>23.61</course>
  <speed>4.957459026557859</speed>
  <fix>3d</fix>
</trkpt>
<trkpt lat="-27.2725273" lon="151.2905359">
  <ele>395.79</ele>
  <time>2026-09-01T19:56:59Z</time>
  <course>24.61</course>
  <speed>4.96</speed>
  <fix>3d</fix>
</trkpt>
<trkpt lat="-27.2725157" lon="151.2905419">
  <ele>396.8</ele>
  <time>2026-09-01T19:56:59Z</time>
  <course>23.61</course>
  <speed>4.957459026557859</speed>
  <fix>3d</fix>
</trkpt>
<trkpt lat="-27.2725118" lon="151.290544">
  <ele>397.04</ele>
  <time>2026-09-01T19:56:59Z</time>
  <course>23.61</course>
  <speed>4.961663027655143</speed>
  <fix>3d</fix>
</trkpt>
<trkpt lat="-27.2725192" lon="151.29054">
  <ele>396.29</ele>
  <time>2026-09-01T19:56:59Z</time>
  <course>24.71</course>
  <speed>4.97</speed>
  <fix>3d</fix>
</trkpt>
<trkpt lat="-27.2725115" lon="151.2905441">
  <ele>397.05</ele>
  <time>2026-09-01T19:56:59Z</time>
  <course>23.61</course>
  <speed>4.961663027655143</speed>
  <fix>3d</fix>
</trkpt>
<trkpt lat="-27.272511" lon="151.290553">
  <ele>343.0</ele>
  <time>2026-09-01T19:56:59Z</time>
  <course>25.4</course>
  <speed>4.991963541533532</speed>
  <fix>3d</fix>
</trkpt>
<trkpt lat="-27.2725077" lon="151.2905461">
  <ele>397.29</ele>
  <time>2026-09-01T19:56:59Z</time>
  <course>23.62</course>
  <speed>4.961663027655143</speed>
  <fix>3d</fix>
</trkpt>
<trkpt lat="-27.2725192" lon="151.29054">
  <ele>396.29</ele>
  <time>2026-09-01T19:56:59Z</time>
  <course>24.71</course>
  <speed>4.97</speed>
  <fix>3d</fix>
</trkpt>
<trkpt lat="-27.2725075" lon="151.2905462">
  <ele>397.3</ele>
  <time>2026-09-01T19:56:59Z</time>
  <course>23.62</course>
  <speed>4.965883607174055</speed>
  <fix>3d</fix>
</trkpt>
<trkpt lat="-27.2725037" lon="151.2905482">
  <ele>397.54</ele>
  <time>2026-09-01T19:56:59Z</time>
  <course>23.62</course>
  <speed>4.965883607174055</speed>
  <fix>3d</fix>
</trkpt>
<trkpt lat="-27.2725111" lon="151.2905443">
  <ele>396.79</ele>
  <time>2026-09-01T19:56:59Z</time>
  <course>24.81</course>
  <speed>4.97</speed>
  <fix>3d</fix>
</trkpt>
<trkpt lat="-27.2725036" lon="151.2905482">
  <ele>397.54</ele>
  <time>2026-09-01T19:56:59Z</time>
  <course>23.62</course>
  <speed>4.965883607174055</speed>
  <fix>3d</fix>
</trkpt>
<trkpt lat="-27.2725029" lon="151.2905574">
  <ele>343.0</ele>
  <time>2026-09-01T19:56:59Z</time>
  <course>25.51</course>
  <speed>4.996258600192748</speed>
  <fix>3d</fix>
</trkpt>
<trkpt lat="-27.2724996" lon="151.2905503">
  <ele>397.79</ele>
  <time>2026-09-01T19:56:59Z</time>
  <course>23.63</course>
  <speed>4.970120722879878</speed>
  <fix>3d</fix>
</trkpt>
<trkpt lat="-27.2725111" lon="151.2905443">
  <ele>396.79</ele>
  <time>2026-09-01T19:56:59Z</time>
  <course>24.81</course>
  <speed>4.97</speed>
  <fix>3d</fix>
</trkpt>
<trkpt lat="-27.2724995" lon="151.2905504">
  <ele>397.8</ele>
  <time>2026-09-01T19:56:59Z</time>
  <course>23.63</course>
  <speed>4.970120722879878</speed>
  <fix>3d</fix>
</trkpt>
<trkpt lat="-27.2724956" lon="151.2905524">
  <ele>398.04</ele>
  <time>2026-09-01T19:56:59Z</time>
  <course>23.63</course>
  <speed>4.970120722879878</speed>
  <fix>3d</fix>
</trkpt>
<trkpt lat="-27.272503" lon="151.2905485">
  <ele>397.29</ele>
  <time>2026-09-01T19:56:59Z</time>
  <course>24.92</course>
  <speed>4.98</speed>
  <fix>3d</fix>
</trkpt>
<trkpt lat="-27.2724955" lon="151.2905525">
  <ele>398.05</ele>
  <time>2026-09-01T19:56:59Z</time>
  <course>23.63</course>
  <speed>4.970120722879878</speed>
  <fix>3d</fix>
</trkpt>
<trkpt lat="-27.2724948" lon="151.2905617">
  <ele>343.0</ele>
  <time>2026-09-01T19:56:59Z</time>
  <course>25.63</course>
  <speed>4.9915528645903375</speed>
  <fix>3d</fix>
</trkpt>
<trkpt lat="-27.2724916" lon="151.2905546">
  <ele>398.3</ele>
  <time>2026-09-01T19:56:59Z</time>
  <course>23.63</course>
  <speed>4.965329797707298</speed>
  <fix>3d</fix>
</trkpt>
<trkpt lat="-27.272503" lon="151.2905485">
  <ele>397.29</ele>
  <time>2026-09-01T19:56:59Z</time>
  <course>24.92</course>
  <speed>4.98</speed>
  <fix>3d</fix>
</trkpt>
<trkpt lat="-27.2724914" lon="151.2905546">
  <ele>398.3</ele>
  <time>2026-09-01T19:56:59Z</time>
  <course>23.63</course>
  <speed>4.965329797707298</speed>
  <fix>3d</fix>
</trkpt>
<trkpt lat="-27.2724875" lon="151.2905567">
  <ele>398.55</ele>
  <time>2026-09-01T19:56:59Z</time>
  <course>23.64</course>
  <speed>4.965329797707298</speed>
  <fix>3d</fix>
</trkpt>
<trkpt lat="-27.2724949" lon="151.2905527">
  <ele>397.8</ele>
  <time>2026-09-01T19:56:59Z</time>
  <course>25.03</course>
  <speed>4.98</speed>
  <fix>3d</fix>
</trkpt>
<trkpt lat="-27.2724874" lon="151.2905568">
  <ele>398.56</ele>
  <time>2026-09-01T19:56:59Z</time>
  <course>23.64</course>
  <speed>4.965329797707298</speed>
  <fix>3d</fix>
</trkpt>
<trkpt lat="-27.2724867" lon="151.2905661">
  <ele>343.0</ele>
  <time>2026-09-01T19:56:59Z</time>
  <course>25.74</course>
  <speed>4.9958883094000415</speed>
  <fix>3d</fix>
</trkpt>
<trkpt lat="-27.2724835" lon="151.2905588">
  <ele>398.8</ele>
  <time>2026-09-01T19:56:59Z</time>
  <course>23.65</course>
  <speed>4.96960763038693</speed>
  <fix>3d</fix>
</trkpt>
<trkpt lat="-27.2724949" lon="151.2905527">
  <ele>397.8</ele>
  <time>2026-09-01T19:56:59Z</time>
  <course>25.03</course>
  <speed>4.98</speed>
  <fix>3d</fix>
</trkpt>
<trkpt lat="-27.2724833" lon="151.2905589">
  <ele>398.81</ele>
  <time>2026-09-01T19:56:59Z</time>
  <course>23.65</course>
  <speed>4.96960763038693</speed>
  <fix>3d</fix>
</trkpt>
<trkpt lat="-27.2724794" lon="151.290561">
  <ele>399.05</ele>
  <time>2026-09-01T19:56:59Z</time>
  <course>23.66</course>
  <speed>4.96960763038693</speed>
  <fix>3d</fix>
</trkpt>
<trkpt lat="-27.2724867" lon="151.290557">
  <ele>398.3</ele>
  <time>2026-09-01T19:56:59Z</time>
  <course>25.15</course>
  <speed>4.99</speed>
  <fix>3d</fix>
</trkpt>
<trkpt lat="-27.2724793" lon="151.2905611">
  <ele>399.06</ele>
  <time>2026-09-01T19:56:59Z</time>
  <course>23.66</course>
  <speed>4.96960763038693</speed>
  <fix>3d</fix>
</trkpt>
<trkpt lat="-27.2724785" lon="151.2905705">
  <ele>343.0</ele>
  <time>2026-09-01T19:56:59Z</time>
  <course>25.86</course>
  <speed>4.991242330322181</speed>
  <fix>3d</fix>
</trkpt>
<trkpt lat="-27.2724754" lon="151.2905631">
  <ele>399.31</ele>
  <time>2026-09-01T19:56:59Z</time>
  <course>23.67</course>
  <speed>4.97390188885949</speed>
  <fix>3d</fix>
</trkpt>
<trkpt lat="-27.2724867" lon="151.290557">
  <ele>398.3</ele>
  <time>2026-09-01T19:56:59Z</time>
  <course>25.15</course>
  <speed>4.99</speed>
  <fix>3d</fix>
</trkpt>
<trkpt lat="-27.2724752" lon="151.2905632">
  <ele>399.31</ele>
  <time>2026-09-01T19:56:59Z</time>
  <course>23.67</course>
  <speed>4.97390188885949</speed>
  <fix>3d</fix>
</trkpt>
<trkpt lat="-27.2724713" lon="151.2905653">
  <ele>399.56</ele>
  <time>2026-09-01T19:56:59Z</time>
  <course>23.68</course>
  <speed>4.97390188885949</speed>
  <fix>3d</fix>
</trkpt>
<trkpt lat="-27.2724786" lon="151.2905613">
  <ele>398.8</ele>
  <time>2026-09-01T19:56:59Z</time>
  <course>25.27</course>
  <speed>4.99</speed>
  <fix>3d</fix>
</trkpt>
<trkpt lat="-27.2724712" lon="151.2905654">
  <ele>399.56</ele>
  <time>2026-09-01T19:56:59Z</time>
  <course>23.68</course>
  <speed>4.97390188885949</speed>
  <fix>3d</fix>
</trkpt>
<trkpt lat="-27.2724705" lon="151.2905749">
  <ele>343.0</ele>
  <time>2026-09-01T19:56:59Z</time>
  <course>25.97</course>
  <speed>4.995618079877604</speed>
  <fix>3d</fix>
</trkpt>
<trkpt lat="-27.2724674" lon="151.2905674">
  <ele>399.8</ele>
  <time>2026-09-01T19:56:59Z</time>
  <course>23.68</course>
  <speed>4.9782125306177925</speed>
  <fix>3d</fix>
</trkpt>
<trkpt lat="-27.2724786" lon="151.2905613">
  <ele>398.8</ele>
  <time>2026-09-01T19:56:59Z</time>
  <course>25.27</course>
  <speed>4.99</speed>
  <fix>3d</fix>
</trkpt>
<trkpt lat="-27.2724672" lon="151.2905675">
  <ele>399.81</ele>
  <time>2026-09-01T19:56:59Z</time>
  <course>23.68</course>
  <speed>4.9782125306177925</speed>
  <fix>3d</fix>
</trkpt>
<trkpt lat="-27.2724632" lon="151.2905696">
  <ele>400.05</ele>
  <time>2026-09-01T19:56:59Z</time>
  <course>23.68</course>
  <speed>4.9782125306177925</speed>
  <fix>3d</fix>
</trkpt>
<trkpt lat="-27.2724705" lon="151.2905656">
  <ele>399.3</ele>
  <time>2026-09-01T19:56:59Z</time>
  <course>25.39</course>
  <speed>4.99</speed>
  <fix>3d</fix>
</trkpt>
<trkpt lat="-27.2724629" lon="151.2905698">
  <ele>400.07</ele>
  <time>2026-09-01T19:56:59Z</time>
  <course>23.67</course>
  <speed>4.9782125306177925</speed>
  <fix>3d</fix>
</trkpt>
<trkpt lat="-27.2724624" lon="151.2905794">
  <ele>343.0</ele>
  <time>2026-09-01T19:56:59Z</time>
  <course>26.09</course>
  <speed>4.995618079877604</speed>
  <fix>3d</fix>
</trkpt>
<trkpt lat="-27.2724592" lon="151.2905718">
  <ele>400.3</ele>
  <time>2026-09-01T19:56:59Z</time>
  <course>23.68</course>
  <speed>4.98253951313986</speed>
  <fix>3d</fix>
</trkpt>
<trkpt lat="-27.2724705" lon="151.2905656">
  <ele>399.3</ele>
  <time>2026-09-01T19:56:59Z</time>
  <course>25.39</course>
  <speed>4.99</speed>
  <fix>3d</fix>
</trkpt>
<trkpt lat="-27.272459" lon="151.2905719">
  <ele>400.31</ele>
  <time>2026-09-01T19:56:59Z</time>
  <course>23.68</course>
  <speed>4.98253951313986</speed>
  <fix>3d</fix>
</trkpt>
<trkpt lat="-27.2724551" lon="151.290574">
  <ele>400.55</ele>
  <time>2026-09-01T19:56:59Z</time>
  <course>23.68</course>
  <speed>4.973529933558257</speed>
  <fix>3d</fix>
</trkpt>
<trkpt lat="-27.2724624" lon="151.29057">
  <ele>399.8</ele>
  <time>2026-09-01T19:56:59Z</time>
  <course>25.51</course>
  <speed>4.99</speed>
  <fix>3d</fix>
</trkpt>
<trkpt lat="-27.272455" lon="151.2905741">
  <ele>400.56</ele>
  <time>2026-09-01T19:56:59Z</time>
  <course>23.68</course>
  <speed>4.973529933558257</speed>
  <fix>3d</fix>
</trkpt>
<trkpt lat="-27.2724543" lon="151.2905838">
  <ele>343.0</ele>
  <time>2026-09-01T19:56:59Z</time>
  <course>26.2</course>
  <speed>4.991031957421231</speed>
  <fix>3d</fix>
</trkpt>
<trkpt lat="-27.2724511" lon="151.2905762">
  <ele>400.8</ele>
  <time>2026-09-01T19:56:59Z</time>
  <course>23.69</course>
  <speed>4.977881075317087</speed>
  <fix>3d</fix>
</trkpt>
<trkpt lat="-27.2724624" lon="151.29057">
  <ele>399.8</ele>
  <time>2026-09-01T19:56:59Z</time>
  <course>25.51</course>
  <speed>4.99</speed>
  <fix>3d</fix>
</trkpt>
<trkpt lat="-27.2724509" lon="151.2905763">
  <ele>400.81</ele>
  <time>2026-09-01T19:56:59Z</time>
  <course>23.69</course>
  <speed>4.977881075317087</speed>
  <fix>3d</fix>
</trkpt>
<trkpt lat="-27.272447" lon="151.2905784">
  <ele>401.05</ele>
  <time>2026-09-01T19:56:59Z</time>
  <course>23.69</course>
  <speed>4.977881075317087</speed>
  <fix>3d</fix>
</trkpt>
<trkpt lat="-27.2724543" lon="151.2905743">
  <ele>400.3</ele>
  <time>2026-09-01T19:56:59Z</time>
  <course>25.63</course>
  <speed>5.0</speed>
  <fix>3d</fix>
</trkpt>
<trkpt lat="-27.2724469" lon="151.2905785">
  <ele>401.06</ele>
  <time>2026-09-01T19:56:59Z</time>
  <course>23.69</course>
  <speed>4.982248488383533</speed>
  <fix>3d</fix>
</trkpt>
<trkpt lat="-27.2724463" lon="151.2905883">
  <ele>343.0</ele>
  <time>2026-09-01T19:56:59Z</time>
  <course>26.32</course>
  <speed>4.9954479278639266</speed>
  <fix>3d</fix>
</trkpt>
<trkpt lat="-27.272443" lon="151.2905806">
  <ele>401.3</ele>
  <time>2026-09-01T19:56:59Z</time>
  <course>23.7</course>
  <speed>4.982248488383533</speed>
  <fix>3d</fix>
</trkpt>
<trkpt lat="-27.2724543" lon="151.2905743">
  <ele>400.3</ele>
  <time>2026-09-01T19:56:59Z</time>
  <course>25.63</course>
  <speed>5.0</speed>
  <fix>3d</fix>
</trkpt>
<trkpt lat="-27.2724428" lon="151.2905807">
  <ele>401.3</ele>
  <time>2026-09-01T19:56:59Z</time>
  <course>23.7</course>
  <speed>4.982248488383533</speed>
  <fix>3d</fix>
</trkpt>
<trkpt lat="-27.2724389" lon="151.2905828">
  <ele>401.54</ele>
  <time>2026-09-01T19:56:59Z</time>
  <course>23.71</course>
  <speed>4.982248488383533</speed>
  <fix>3d</fix>
</trkpt>
<trkpt lat="-27.2724462" lon="151.2905788">
  <ele>400.79</ele>
  <time>2026-09-01T19:56:59Z</time>
  <course>25.75</course>
  <speed>5.0</speed>
  <fix>3d</fix>
</trkpt>
<trkpt lat="-27.2724388" lon="151.2905829">
  <ele>401.55</ele>
  <time>2026-09-01T19:56:59Z</time>
  <course>23.71</course>
  <speed>4.982248488383533</speed>
  <fix>3d</fix>
</trkpt>
<trkpt lat="-27.2724382" lon="151.2905928">
  <ele>343.0</ele>
  <time>2026-09-01T19:56:59Z</time>
  <course>26.43</course>
  <speed>4.990921758553224</speed>
  <fix>3d</fix>
</trkpt>
<trkpt lat="-27.2724349" lon="151.290585">
  <ele>401.79</ele>
  <time>2026-09-01T19:56:59Z</time>
  <course>23.72</course>
  <speed>4.98663213000518</speed>
  <fix>3d</fix>
</trkpt>
<trkpt lat="-27.2724462" lon="151.2905788">
  <ele>400.79</ele>
  <time>2026-09-01T19:56:59Z</time>
  <course>25.75</course>
  <speed>5.0</speed>
  <fix>3d</fix>
</trkpt>
<trkpt lat="-27.2724347" lon="151.2905851">
  <ele>401.8</ele>
  <time>2026-09-01T19:56:59Z</time>
  <course>23.72</course>
  <speed>4.98663213000518</speed>
  <fix>3d</fix>
</trkpt>
<trkpt lat="-27.2724308" lon="151.2905872">
  <ele>402.04</ele>
  <time>2026-09-01T19:56:59Z</time>
  <course>23.73</course>
  <speed>4.98663213000518</speed>
  <fix>3d</fix>
</trkpt>
<trkpt lat="-27.2724381" lon="151.2905832">
  <ele>401.29</ele>
  <time>2026-09-01T19:56:59Z</time>
  <course>25.85</course>
  <speed>5.0</speed>
  <fix>3d</fix>
</trkpt>
<trkpt lat="-27.2724307" lon="151.2905873">
  <ele>402.05</ele>
  <time>2026-09-01T19:56:59Z</time>
  <course>23.73</course>
  <speed>4.98663213000518</speed>
  <fix>3d</fix>
</trkpt>
<trkpt lat="-27.2724302" lon="151.2905973">
  <ele>343.0</ele>
  <time>2026-09-01T19:56:59Z</time>
  <course>26.54</course>
  <speed>4.995377863585497</speed>
  <fix>3d</fix>
</trkpt>
<trkpt lat="-27.2724267" lon="151.2905895">
  <ele>402.29</ele>
  <time>2026-09-01T19:56:59Z</time>
  <course>23.73</course>
  <speed>4.991031957421231</speed>
  <fix>3d</fix>
</trkpt>
<trkpt lat="-27.2724381" lon="151.2905832">
  <ele>401.29</ele>
  <time>2026-09-01T19:56:59Z</time>
  <course>25.85</course>
  <speed>5.0</speed>
  <fix>3d</fix>
</trkpt>
<trkpt lat="-27.2724266" lon="151.2905895">
  <ele>402.29</ele>
  <time>2026-09-01T19:56:59Z</time>
  <course>23.73</course>
  <speed>4.991031957421231</speed>
  <fix>3d</fix>
</trkpt>
<trkpt lat="-27.2724227" lon="151.2905917">
  <ele>402.54</ele>
  <time>2026-09-01T19:56:59Z</time>
  <course>23.73</course>
  <speed>4.991031957421231</speed>
  <fix>3d</fix>
</trkpt>
<trkpt lat="-27.27243" lon="151.2905875">
  <ele>401.79</ele>
  <time>2026-09-01T19:56:59Z</time>
  <course>25.95</course>
  <speed>5.0</speed>
  <fix>3d</fix>
</trkpt>
<trkpt lat="-27.2724226" lon="151.2905917">
  <ele>402.54</ele>
  <time>2026-09-01T19:56:59Z</time>
  <course>23.73</course>
  <speed>4.991031957421231</speed>
  <fix>3d</fix>
</trkpt>
<trkpt lat="-27.2724222" lon="151.2906018">
  <ele>343.0</ele>
  <time>2026-09-01T19:56:59Z</time>
  <course>26.66</course>
  <speed>4.99091174035366</speed>
  <fix>3d</fix>
</trkpt>
<trkpt lat="-27.2724186" lon="151.2905939">
  <ele>402.79</ele>
  <time>2026-09-01T19:56:59Z</time>
  <course>23.73</course>
  <speed>4.9954479278639266</speed>
  <fix>3d</fix>
</trkpt>
<trkpt lat="-27.27243" lon="151.2905875">
  <ele>401.79</ele>
  <time>2026-09-01T19:56:59Z</time>
  <course>25.95</course>
  <speed>5.0</speed>
  <fix>3d</fix>
</trkpt>
<trkpt lat="-27.2724185" lon="151.290594">
  <ele>402.79</ele>
  <time>2026-09-01T19:56:59Z</time>
  <course>23.73</course>
  <speed>4.9954479278639266</speed>
  <fix>3d</fix>
</trkpt>
<trkpt lat="-27.2724146" lon="151.2905962">
  <ele>403.03</ele>
  <time>2026-09-01T19:56:59Z</time>
  <course>23.73</course>
  <speed>4.9954479278639266</speed>
  <fix>3d</fix>
</trkpt>
<trkpt lat="-27.2724219" lon="151.290592">
  <ele>402.29</ele>
  <time>2026-09-01T19:56:59Z</time>
  <course>26.06</course>
  <speed>5.01</speed>
  <fix>3d</fix>
</trkpt>
<trkpt lat="-27.2724143" lon="151.2905963">
  <ele>403.05</ele>
  <time>2026-09-01T19:56:59Z</time>
  <course>23.73</course>
  <speed>4.9954479278639266</speed>
  <fix>3d</fix>
</trkpt>
<trkpt lat="-27.2724142" lon="151.2906064">
  <ele>343.0</ele>
  <time>2026-09-01T19:56:59Z</time>
  <course>26.77</course>
  <speed>4.995407891253726</speed>
  <fix>3d</fix>
</trkpt>
<trkpt lat="-27.2724105" lon="151.2905984">
  <ele>403.28</ele>
  <time>2026-09-01T19:56:59Z</time>
  <course>23.73</course>
  <speed>4.990921758553224</speed>
  <fix>3d</fix>
</trkpt>
<trkpt lat="-27.2724219" lon="151.290592">
  <ele>402.29</ele>
  <time>2026-09-01T19:56:59Z</time>
  <course>26.06</course>
  <speed>5.01</speed>
  <fix>3d</fix>
</trkpt>
<trkpt lat="-27.2724104" lon="151.2905985">
  <ele>403.29</ele>
  <time>2026-09-01T19:56:59Z</time>
  <course>23.73</course>
  <speed>4.990921758553224</speed>
  <fix>3d</fix>
</trkpt>
<trkpt lat="-27.2724065" lon="151.2906007">
  <ele>403.53</ele>
  <time>2026-09-01T19:56:59Z</time>
  <course>23.72</course>
  <speed>4.990921758553224</speed>
  <fix>3d</fix>
</trkpt>
<trkpt lat="-27.2724138" lon="151.2905965">
  <ele>402.79</ele>
  <time>2026-09-01T19:56:59Z</time>
  <course>26.19</course>
  <speed>5.01</speed>
  <fix>3d</fix>
</trkpt>
<trkpt lat="-27.2724063" lon="151.2906007">
  <ele>403.54</ele>
  <time>2026-09-01T19:56:59Z</time>
  <course>23.72</course>
  <speed>4.990921758553224</speed>
  <fix>3d</fix>
</trkpt>
<trkpt lat="-27.2724061" lon="151.2906109">
  <ele>343.0</ele>
  <time>2026-09-01T19:56:59Z</time>
  <course>26.89</course>
  <speed>4.991001903425804</speed>
  <fix>3d</fix>
</trkpt>
<trkpt lat="-27.2724024" lon="151.2906029">
  <ele>403.78</ele>
  <time>2026-09-01T19:56:59Z</time>
  <course>23.72</course>
  <speed>4.995377863585497</speed>
  <fix>3d</fix>
</trkpt>
<trkpt lat="-27.2724138" lon="151.2905965">
  <ele>402.79</ele>
  <time>2026-09-01T19:56:59Z</time>
  <course>26.19</course>
  <speed>5.01</speed>
  <fix>3d</fix>
</trkpt>
<trkpt lat="-27.2724023" lon="151.290603">
  <ele>403.79</ele>
  <time>2026-09-01T19:56:59Z</time>
  <course>23.72</course>
  <speed>4.995377863585497</speed>
  <fix>3d</fix>
</trkpt>
<trkpt lat="-27.2723984" lon="151.2906052">
  <ele>404.04</ele>
  <time>2026-09-01T19:56:59Z</time>
  <course>23.73</course>
  <speed>4.99091174035366</speed>
  <fix>3d</fix>
</trkpt>
<trkpt lat="-27.2724058" lon="151.2906009">
  <ele>403.29</ele>
  <time>2026-09-01T19:56:59Z</time>
  <course>26.32</course>
  <speed>5.01</speed>
  <fix>3d</fix>
</trkpt>
<trkpt lat="-27.2723983" lon="151.2906052">
  <ele>404.04</ele>
  <time>2026-09-01T19:56:59Z</time>
  <course>23.73</course>
  <speed>4.99091174035366</speed>
  <fix>3d</fix>
</trkpt>
<trkpt lat="-27.2723981" lon="151.2906155">
  <ele>343.0</ele>
  <time>2026-09-01T19:56:59Z</time>
  <course>27.0</course>
  <speed>4.995538009063688</speed>
  <fix>3d</fix>
</trkpt>
<trkpt lat="-27.2723944" lon="151.2906074">
  <ele>404.29</ele>
  <time>2026-09-01T19:56:59Z</time>
  <course>23.74</course>
  <speed>4.99091174035366</speed>
  <fix>3d</fix>
</trkpt>
<trkpt lat="-27.2724058" lon="151.2906009">
  <ele>403.29</ele>
  <time>2026-09-01T19:56:59Z</time>
  <course>26.32</course>
  <speed>5.01</speed>
  <fix>3d</fix>
</trkpt>
<trkpt lat="-27.2723942" lon="151.2906075">
  <ele>404.3</ele>
  <time>2026-09-01T19:56:59Z</time>
  <course>23.74</course>
  <speed>4.99091174035366</speed>
  <fix>3d</fix>
</trkpt>
<trkpt lat="-27.2723903" lon="151.2906097">
  <ele>404.54</ele>
  <time>2026-09-01T19:56:59Z</time>
  <course>23.75</course>
  <speed>4.995407891253726</speed>
  <fix>3d</fix>
</trkpt>
<trkpt lat="-27.2723977" lon="151.2906054">
  <ele>403.8</ele>
  <time>2026-09-01T19:56:59Z</time>
  <course>26.47</course>
  <speed>5.0</speed>
  <fix>3d</fix>
</trkpt>
<trkpt lat="-27.2723902" lon="151.2906098">
  <ele>404.55</ele>
  <time>2026-09-01T19:56:59Z</time>
  <course>23.75</course>
  <speed>4.995407891253726</speed>
  <fix>3d</fix>
</trkpt>
<trkpt lat="-27.2723901" lon="151.2906201">
  <ele>343.0</ele>
  <time>2026-09-01T19:56:59Z</time>
  <course>27.12</course>
  <speed>4.995538009063688</speed>
  <fix>3d</fix>
</trkpt>
<trkpt lat="-27.2723863" lon="151.290612">
  <ele>404.79</ele>
  <time>2026-09-01T19:56:59Z</time>
  <course>23.77</course>
  <speed>4.9864817256257945</speed>
  <fix>3d</fix>
</trkpt>
<trkpt lat="-27.2723977" lon="151.2906054">
  <ele>403.8</ele>
  <time>2026-09-01T19:56:59Z</time>
  <course>26.47</course>
  <speed>5.0</speed>
  <fix>3d</fix>
</trkpt>
<trkpt lat="-27.2723862" lon="151.290612">
  <ele>404.8</ele>
  <time>2026-09-01T19:56:59Z</time>
  <course>23.77</course>
  <speed>4.9864817256257945</speed>
  <fix>3d</fix>
</trkpt>
<trkpt lat="-27.2723823" lon="151.2906142">
  <ele>405.04</ele>
  <time>2026-09-01T19:56:59Z</time>
  <course>23.78</course>
  <speed>4.9864817256257945</speed>
  <fix>3d</fix>
</trkpt>
<trkpt lat="-27.2723896" lon="151.2906099">
  <ele>404.3</ele>
  <time>2026-09-01T19:56:59Z</time>
  <course>26.61</course>
  <speed>5.0</speed>
  <fix>3d</fix>
</trkpt>
<trkpt lat="-27.2723821" lon="151.2906143">
  <ele>405.05</ele>
  <time>2026-09-01T19:56:59Z</time>
  <course>23.78</course>
  <speed>4.9864817256257945</speed>
  <fix>3d</fix>
</trkpt>
<trkpt lat="-27.2723821" lon="151.2906247">
  <ele>343.0</ele>
  <time>2026-09-01T19:56:59Z</time>
  <course>27.23</course>
  <speed>4.991192242340501</speed>
  <fix>3d</fix>
</trkpt>
<trkpt lat="-27.2723783" lon="151.2906165">
  <ele>405.29</ele>
  <time>2026-09-01T19:56:59Z</time>
  <course>23.78</course>
  <speed>4.991001903425804</speed>
  <fix>3d</fix>
</trkpt>
<trkpt lat="-27.2723896" lon="151.2906099">
  <ele>404.3</ele>
  <time>2026-09-01T19:56:59Z</time>
  <course>26.61</course>
  <speed>5.0</speed>
  <fix>3d</fix>
</trkpt>
<trkpt lat="-27.2723781" lon="151.2906166">
  <ele>405.3</ele>
  <time>2026-09-01T19:56:59Z</time>
  <course>23.78</course>
  <speed>4.991001903425804</speed>
  <fix>3d</fix>
</trkpt>
<trkpt lat="-27.2723742" lon="151.2906188">
  <ele>405.54</ele>
  <time>2026-09-01T19:56:59Z</time>
  <course>23.79</course>
  <speed>4.982087915723688</speed>
  <fix>3d</fix>
</trkpt>
<trkpt lat="-27.2723816" lon="151.2906145">
  <ele>404.81</ele>
  <time>2026-09-01T19:56:59Z</time>
  <course>26.74</course>
  <speed>5.0</speed>
  <fix>3d</fix>
</trkpt>
<trkpt lat="-27.2723741" lon="151.2906189">
  <ele>405.55</ele>
  <time>2026-09-01T19:56:59Z</time>
  <course>23.79</course>
  <speed>4.982087915723688</speed>
  <fix>3d</fix>
</trkpt>
<trkpt lat="-27.2723741" lon="151.2906294">
  <ele>343.0</ele>
  <time>2026-09-01T19:56:59Z</time>
  <course>27.35</course>
  <speed>4.995768209194658</speed>
  <fix>3d</fix>
</trkpt>
<trkpt lat="-27.2723702" lon="151.2906211">
  <ele>405.79</ele>
  <time>2026-09-01T19:56:59Z</time>
  <course>23.8</course>
  <speed>4.98663213000518</speed>
  <fix>3d</fix>
</trkpt>
<trkpt lat="-27.2723816" lon="151.2906145">
  <ele>404.81</ele>
  <time>2026-09-01T19:56:59Z</time>
  <course>26.74</course>
  <speed>5.0</speed>
  <fix>3d</fix>
</trkpt>
<trkpt lat="-27.2723701" lon="151.2906212">
  <ele>405.8</ele>
  <time>2026-09-01T19:56:59Z</time>
  <course>23.8</course>
  <speed>4.98663213000518</speed>
  <fix>3d</fix>
</trkpt>
<trkpt lat="-27.2723662" lon="151.2906234">
  <ele>406.04</ele>
  <time>2026-09-01T19:56:59Z</time>
  <course>23.8</course>
  <speed>4.98663213000518</speed>
  <fix>3d</fix>
</trkpt>
<trkpt lat="-27.2723736" lon="151.290619">
  <ele>405.31</ele>
  <time>2026-09-01T19:56:59Z</time>
  <course>26.86</course>
  <speed>4.99</speed>
  <fix>3d</fix>
</trkpt>
<trkpt lat="-27.272366" lon="151.2906235">
  <ele>406.06</ele>
  <time>2026-09-01T19:56:59Z</time>
  <course>23.8</course>
  <speed>4.98663213000518</speed>
  <fix>3d</fix>
</trkpt>
<trkpt lat="-27.2723662" lon="151.290634">
  <ele>343.0</ele>
  <time>2026-09-01T19:56:59Z</time>
  <course>27.46</course>
  <speed>4.991482745637813</speed>
  <fix>3d</fix>
</trkpt>
<trkpt lat="-27.2723622" lon="151.2906257">
  <ele>406.29</ele>
  <time>2026-09-01T19:56:59Z</time>
  <course>23.81</course>
  <speed>4.977730406520626</speed>
  <fix>3d</fix>
</trkpt>
<trkpt lat="-27.2723736" lon="151.290619">
  <ele>405.31</ele>
  <time>2026-09-01T19:56:59Z</time>
  <course>26.86</course>
  <speed>4.99</speed>
  <fix>3d</fix>
</trkpt>
<trkpt lat="-27.2723621" lon="151.2906258">
  <ele>406.29</ele>
  <time>2026-09-01T19:56:59Z</time>
  <course>23.81</course>
  <speed>4.977730406520626</speed>
  <fix>3d</fix>
</trkpt>
<trkpt lat="-27.2723582" lon="151.290628">
  <ele>406.54</ele>
  <time>2026-09-01T19:56:59Z</time>
  <course>23.82</course>
  <speed>4.982298666278448</speed>
  <fix>3d</fix>
</trkpt>
<trkpt lat="-27.2723656" lon="151.2906237">
  <ele>405.81</ele>
  <time>2026-09-01T19:56:59Z</time>
  <course>26.97</course>
  <speed>4.99</speed>
  <fix>3d</fix>
</trkpt>
<trkpt lat="-27.272358" lon="151.2906281">
  <ele>406.55</ele>
  <time>2026-09-01T19:56:59Z</time>
  <course>23.82</course>
  <speed>4.982298666278448</speed>
  <fix>3d</fix>
</trkpt>
<trkpt lat="-27.2723582" lon="151.2906387">
  <ele>343.0</ele>
  <time>2026-09-01T19:56:59Z</time>
  <course>27.58</course>
  <speed>4.9960984778124615</speed>
  <fix>3d</fix>
</trkpt>
<trkpt lat="-27.2723542" lon="151.2906303">
  <ele>406.79</ele>
  <time>2026-09-01T19:56:59Z</time>
  <course>23.82</course>
  <speed>4.982298666278448</speed>
  <fix>3d</fix>
</trkpt>
<trkpt lat="-27.2723656" lon="151.2906237">
  <ele>405.81</ele>
  <time>2026-09-01T19:56:59Z</time>
  <course>26.97</course>
  <speed>4.99</speed>
  <fix>3d</fix>
</trkpt>
<trkpt lat="-27.272354" lon="151.2906304">
  <ele>406.8</ele>
  <time>2026-09-01T19:56:59Z</time>
  <course>23.82</course>
  <speed>4.982298666278448</speed>
  <fix>3d</fix>
</trkpt>
<trkpt lat="-27.2723502" lon="151.2906326">
  <ele>407.04</ele>
  <time>2026-09-01T19:56:59Z</time>
  <course>23.82</course>
  <speed>4.986882793890388</speed>
  <fix>3d</fix>
</trkpt>
<trkpt lat="-27.2723576" lon="151.2906282">
  <ele>406.31</ele>
  <time>2026-09-01T19:56:59Z</time>
  <course>27.07</course>
  <speed>4.99</speed>
  <fix>3d</fix>
</trkpt>
<trkpt lat="-27.27235" lon="151.2906327">
  <ele>407.05</ele>
  <time>2026-09-01T19:56:59Z</time>
  <course>23.82</course>
  <speed>4.986882793890388</speed>
  <fix>3d</fix>
</trkpt>
<trkpt lat="-27.2723503" lon="151.2906434">
  <ele>343.0</ele>
  <time>2026-09-01T19:56:59Z</time>
  <course>27.69</course>
  <speed>4.991873395830467</speed>
  <fix>3d</fix>
</trkpt>
<trkpt lat="-27.2723462" lon="151.2906349">
  <ele>407.29</ele>
  <time>2026-09-01T19:56:59Z</time>
  <course>23.81</course>
  <speed>4.986882793890388</speed>
  <fix>3d</fix>
</trkpt>
<trkpt lat="-27.2723576" lon="151.2906282">
  <ele>406.31</ele>
  <time>2026-09-01T19:56:59Z</time>
  <course>27.07</course>
  <speed>4.99</speed>
  <fix>3d</fix>
</trkpt>
<trkpt lat="-27.272346" lon="151.290635">
  <ele>407.3</ele>
  <time>2026-09-01T19:56:59Z</time>
  <course>23.81</course>
  <speed>4.986882793890388</speed>
  <fix>3d</fix>
</trkpt>
<trkpt lat="-27.2723422" lon="151.2906372">
  <ele>407.54</ele>
  <time>2026-09-01T19:56:59Z</time>
  <course>23.81</course>
  <speed>4.978001607070854</speed>
  <fix>3d</fix>
</trkpt>
<trkpt lat="-27.2723496" lon="151.2906329">
  <ele>406.82</ele>
  <time>2026-09-01T19:56:59Z</time>
  <course>27.18</course>
  <speed>4.99</speed>
  <fix>3d</fix>
</trkpt>
<trkpt lat="-27.2723421" lon="151.2906373">
  <ele>407.55</ele>
  <time>2026-09-01T19:56:59Z</time>
  <course>23.81</course>
  <speed>4.978001607070854</speed>
  <fix>3d</fix>
</trkpt>
<trkpt lat="-27.2723423" lon="151.2906481">
  <ele>343.0</ele>
  <time>2026-09-01T19:56:59Z</time>
  <course>27.8</course>
  <speed>4.996528795073636</speed>
  <fix>3d</fix>
</trkpt>
<trkpt lat="-27.2723382" lon="151.2906396">
  <ele>407.8</ele>
  <time>2026-09-01T19:56:59Z</time>
  <course>23.81</course>
  <speed>4.982609757948137</speed>
  <fix>3d</fix>
</trkpt>
<trkpt lat="-27.2723496" lon="151.2906329">
  <ele>406.82</ele>
  <time>2026-09-01T19:56:59Z</time>
  <course>27.18</course>
  <speed>4.99</speed>
  <fix>3d</fix>
</trkpt>
<trkpt lat="-27.2723381" lon="151.2906396">
  <ele>407.8</ele>
  <time>2026-09-01T19:56:59Z</time>
  <course>23.81</course>
  <speed>4.982609757948137</speed>
  <fix>3d</fix>
</trkpt>
<trkpt lat="-27.2723342" lon="151.2906419">
  <ele>408.05</ele>
  <time>2026-09-01T19:56:59Z</time>
  <course>23.81</course>
  <speed>4.982609757948137</speed>
  <fix>3d</fix>
</trkpt>
<trkpt lat="-27.2723416" lon="151.2906375">
  <ele>407.32</ele>
  <time>2026-09-01T19:56:59Z</time>
  <course>27.3</course>
  <speed>4.99</speed>
  <fix>3d</fix>
</trkpt>
<trkpt lat="-27.2723341" lon="151.290642">
  <ele>408.05</ele>
  <time>2026-09-01T19:56:59Z</time>
  <course>23.81</course>
  <speed>4.982609757948137</speed>
  <fix>3d</fix>
</trkpt>
<trkpt lat="-27.2723344" lon="151.2906528">
  <ele>343.0</ele>
  <time>2026-09-01T19:56:59Z</time>
  <course>27.92</course>
  <speed>4.992364169409118</speed>
  <fix>3d</fix>
</trkpt>
<trkpt lat="-27.2723302" lon="151.2906442">
  <ele>408.3</ele>
  <time>2026-09-01T19:56:59Z</time>
  <course>23.81</course>
  <speed>4.9783732282744735</speed>
  <fix>3d</fix>
</trkpt>
<trkpt lat="-27.2723416" lon="151.2906375">
  <ele>407.32</ele>
  <time>2026-09-01T19:56:59Z</time>
  <course>27.3</course>
  <speed>4.99</speed>
  <fix>3d</fix>
</trkpt>
<trkpt lat="-27.2723301" lon="151.2906443">
  <ele>408.3</ele>
  <time>2026-09-01T19:56:59Z</time>
  <course>23.81</course>
  <speed>4.9783732282744735</speed>
  <fix>3d</fix>
</trkpt>
<trkpt lat="-27.2723262" lon="151.2906466">
  <ele>408.55</ele>
  <time>2026-09-01T19:56:59Z</time>
  <course>23.82</course>
  <speed>4.9783732282744735</speed>
  <fix>3d</fix>
</trkpt>
<trkpt lat="-27.2723337" lon="151.2906421">
  <ele>407.82</ele>
  <time>2026-09-01T19:56:59Z</time>
  <course>27.43</course>
  <speed>4.99</speed>
  <fix>3d</fix>
</trkpt>
<trkpt lat="-27.2723261" lon="151.2906466">
  <ele>408.56</ele>
  <time>2026-09-01T19:56:59Z</time>
  <course>23.82</course>
  <speed>4.9783732282744735</speed>
  <fix>3d</fix>
</trkpt>
<trkpt lat="-27.2723264" lon="151.2906575">
  <ele>343.0</ele>
  <time>2026-09-01T19:56:59Z</time>
  <course>28.03</course>
  <speed>4.997059135131383</speed>
  <fix>3d</fix>
</trkpt>
<trkpt lat="-27.2723222" lon="151.2906489">
  <ele>408.8</ele>
  <time>2026-09-01T19:56:59Z</time>
  <course>23.83</course>
  <speed>4.97417329814714</speed>
  <fix>3d</fix>
</trkpt>
<trkpt lat="-27.2723337" lon="151.2906421">
  <ele>407.82</ele>
  <time>2026-09-01T19:56:59Z</time>
  <course>27.43</course>
  <speed>4.99</speed>
  <fix>3d</fix>
</trkpt>
<trkpt lat="-27.2723221" lon="151.290649">
  <ele>408.81</ele>
  <time>2026-09-01T19:56:59Z</time>
  <course>23.83</course>
  <speed>4.97417329814714</speed>
  <fix>3d</fix>
</trkpt>
<trkpt lat="-27.2723183" lon="151.2906513">
  <ele>409.05</ele>
  <time>2026-09-01T19:56:59Z</time>
  <course>23.84</course>
  <speed>4.97417329814714</speed>
  <fix>3d</fix>
</trkpt>
<trkpt lat="-27.2723257" lon="151.2906468">
  <ele>408.32</ele>
  <time>2026-09-01T19:56:59Z</time>
  <course>27.57</course>
  <speed>4.98</speed>
  <fix>3d</fix>
</trkpt>
<trkpt lat="-27.272318" lon="151.2906514">
  <ele>409.07</ele>
  <time>2026-09-01T19:56:59Z</time>
  <course>23.84</course>
  <speed>4.97417329814714</speed>
  <fix>3d</fix>
</trkpt>
<trkpt lat="-27.2723185" lon="151.2906623">
  <ele>343.0</ele>
  <time>2026-09-01T19:56:59Z</time>
  <course>28.15</course>
  <speed>4.9882361612096915</speed>
  <fix>3d</fix>
</trkpt>
<trkpt lat="-27.2723143" lon="151.2906536">
  <ele>409.3</ele>
  <time>2026-09-01T19:56:59Z</time>
  <course>23.84</course>
  <speed>4.970010060351991</speed>
  <fix>3d</fix>
</trkpt>
<trkpt lat="-27.2723257" lon="151.2906468">
  <ele>408.32</ele>
  <time>2026-09-01T19:56:59Z</time>
  <course>27.57</course>
  <speed>4.98</speed>
  <fix>3d</fix>
</trkpt>
<trkpt lat="-27.2723142" lon="151.2906537">
  <ele>409.31</ele>
  <time>2026-09-01T19:56:59Z</time>
  <course>23.84</course>
  <speed>4.970010060351991</speed>
  <fix>3d</fix>
</trkpt>
<trkpt lat="-27.2723104" lon="151.2906559">
  <ele>409.55</ele>
  <time>2026-09-01T19:56:59Z</time>
  <course>23.84</course>
  <speed>4.970010060351991</speed>
  <fix>3d</fix>
</trkpt>
<trkpt lat="-27.2723178" lon="151.2906514">
  <ele>408.83</ele>
  <time>2026-09-01T19:56:59Z</time>
  <course>27.72</course>
  <speed>4.98</speed>
  <fix>3d</fix>
</trkpt>
<trkpt lat="-27.2723103" lon="151.290656">
  <ele>409.56</ele>
  <time>2026-09-01T19:56:59Z</time>
  <course>23.84</course>
  <speed>4.970010060351991</speed>
  <fix>3d</fix>
</trkpt>
<trkpt lat="-27.2723106" lon="151.2906671">
  <ele>343.0</ele>
  <time>2026-09-01T19:56:59Z</time>
  <course>28.26</course>
  <speed>4.992955036849421</speed>
  <fix>3d</fix>
</trkpt>
<trkpt lat="-27.2723065" lon="151.2906583">
  <ele>409.8</ele>
  <time>2026-09-01T19:56:59Z</time>
  <course>23.84</course>
  <speed>4.965883607174055</speed>
  <fix>3d</fix>
</trkpt>
<trkpt lat="-27.2723178" lon="151.2906514">
  <ele>408.83</ele>
  <time>2026-09-01T19:56:59Z</time>
  <course>27.72</course>
  <speed>4.98</speed>
  <fix>3d</fix>
</trkpt>
<trkpt lat="-27.2723063" lon="151.2906584">
  <ele>409.81</ele>
  <time>2026-09-01T19:56:59Z</time>
  <course>23.84</course>
  <speed>4.965883607174055</speed>
  <fix>3d</fix>
</trkpt>
<trkpt lat="-27.2723025" lon="151.2906606">
  <ele>410.05</ele>
  <time>2026-09-01T19:56:59Z</time>
  <course>23.85</course>
  <speed>4.965883607174055</speed>
  <fix>3d</fix>
</trkpt>
<trkpt lat="-27.2723098" lon="151.2906561">
  <ele>409.33</ele>
  <time>2026-09-01T19:56:59Z</time>
  <course>27.87</course>
  <speed>4.98</speed>
  <fix>3d</fix>
</trkpt>
<trkpt lat="-27.2723024" lon="151.2906607">
  <ele>410.06</ele>
  <time>2026-09-01T19:56:59Z</time>
  <course>23.85</course>
  <speed>4.965883607174055</speed>
  <fix>3d</fix>
</trkpt>
<trkpt lat="-27.2723027" lon="151.2906719">
  <ele>343.0</ele>
  <time>2026-09-01T19:56:59Z</time>
  <course>28.38</course>
  <speed>4.98888765157124</speed>
  <fix>3d</fix>
</trkpt>
<trkpt lat="-27.2722986" lon="151.290663">
  <ele>410.3</ele>
  <time>2026-09-01T19:56:59Z</time>
  <course>23.86</course>
  <speed>4.970603585078979</speed>
  <fix>3d</fix>
</trkpt>
<trkpt lat="-27.2723098" lon="151.2906561">
  <ele>409.33</ele>
  <time>2026-09-01T19:56:59Z</time>
  <course>27.87</course>
  <speed>4.98</speed>
  <fix>3d</fix>
</trkpt>
<trkpt lat="-27.2722985" lon="151.2906631">
  <ele>410.31</ele>
  <time>2026-09-01T19:56:59Z</time>
  <course>23.86</course>
  <speed>4.970603585078979</speed>
  <fix>3d</fix>
</trkpt>
<trkpt lat="-27.2722947" lon="151.2906653">
  <ele>410.55</ele>
  <time>2026-09-01T19:56:59Z</time>
  <course>23.87</course>
  <speed>4.961794030388606</speed>
  <fix>3d</fix>
</trkpt>
<trkpt lat="-27.2723019" lon="151.2906609">
  <ele>409.83</ele>
  <time>2026-09-01T19:56:59Z</time>
  <course>28.0</course>
  <speed>4.98</speed>
  <fix>3d</fix>
</trkpt>
<trkpt lat="-27.2722945" lon="151.2906654">
  <ele>410.56</ele>
  <time>2026-09-01T19:56:59Z</time>
  <course>23.87</course>
  <speed>4.961794030388606</speed>
  <fix>3d</fix>
</trkpt>
<trkpt lat="-27.2722948" lon="151.2906767">
  <ele>343.0</ele>
  <time>2026-09-01T19:56:59Z</time>
  <course>28.49</course>
  <speed>4.993645962620898</speed>
  <fix>3d</fix>
</trkpt>
<trkpt lat="-27.2722907" lon="151.2906677">
  <ele>410.8</ele>
  <time>2026-09-01T19:56:59Z</time>
  <course>23.87</course>
  <speed>4.961794030388606</speed>
  <fix>3d</fix>
</trkpt>
<trkpt lat="-27.2723019" lon="151.2906609">
  <ele>409.83</ele>
  <time>2026-09-01T19:56:59Z</time>
  <course>28.0</course>
  <speed>4.98</speed>
  <fix>3d</fix>
</trkpt>
<trkpt lat="-27.2722906" lon="151.2906678">
  <ele>410.8</ele>
  <time>2026-09-01T19:56:59Z</time>
  <course>23.87</course>
  <speed>4.961794030388606</speed>
  <fix>3d</fix>
</trkpt>
<trkpt lat="-27.2722868" lon="151.2906701">
  <ele>411.04</ele>
  <time>2026-09-01T19:56:59Z</time>
  <course>23.87</course>
  <speed>4.966538029654057</speed>
  <fix>3d</fix>
</trkpt>
<trkpt lat="-27.272294" lon="151.2906656">
  <ele>410.33</ele>
  <time>2026-09-01T19:56:59Z</time>
  <course>28.11</course>
  <speed>4.98</speed>
  <fix>3d</fix>
</trkpt>
<trkpt lat="-27.2722867" lon="151.2906702">
  <ele>411.05</ele>
  <time>2026-09-01T19:56:59Z</time>
  <course>23.87</course>
  <speed>4.966538029654057</speed>
  <fix>3d</fix>
</trkpt>
<trkpt lat="-27.2722869" lon="151.2906815">
  <ele>343.0</ele>
  <time>2026-09-01T19:56:59Z</time>
  <course>28.61</course>
  <speed>4.989639265518099</speed>
  <fix>3d</fix>
</trkpt>
<trkpt lat="-27.2722829" lon="151.2906724">
  <ele>411.29</ele>
  <time>2026-09-01T19:56:59Z</time>
  <course>23.87</course>
  <speed>4.966538029654057</speed>
  <fix>3d</fix>
</trkpt>
<trkpt lat="-27.272294" lon="151.2906656">
  <ele>410.33</ele>
  <time>2026-09-01T19:56:59Z</time>
  <course>28.11</course>
  <speed>4.98</speed>
  <fix>3d</fix>
</trkpt>
<trkpt lat="-27.2722827" lon="151.2906725">
  <ele>411.3</ele>
  <time>2026-09-01T19:56:59Z</time>
  <course>23.87</course>
  <speed>4.966538029654057</speed>
  <fix>3d</fix>
</trkpt>
<trkpt lat="-27.2722789" lon="151.2906748">
  <ele>411.54</ele>
  <time>2026-09-01T19:56:59Z</time>
  <course>23.87</course>
  <speed>4.957741421252222</speed>
  <fix>3d</fix>
</trkpt>
<trkpt lat="-27.2722861" lon="151.2906703">
  <ele>410.83</ele>
  <time>2026-09-01T19:56:59Z</time>
  <course>28.21</course>
  <speed>4.98</speed>
  <fix>3d</fix>
</trkpt>
<trkpt lat="-27.2722788" lon="151.2906749">
  <ele>411.55</ele>
  <time>2026-09-01T19:56:59Z</time>
  <course>23.87</course>
  <speed>4.957741421252222</speed>
  <fix>3d</fix>
</trkpt>
<trkpt lat="-27.272279" lon="151.2906864">
  <ele>343.0</ele>
  <time>2026-09-01T19:56:59Z</time>
  <course>28.72</course>
  <speed>4.994436905197622</speed>
  <fix>3d</fix>
</trkpt>
<trkpt lat="-27.272275" lon="151.2906772">
  <ele>411.78</ele>
  <time>2026-09-01T19:56:59Z</time>
  <course>23.88</course>
  <speed>4.962509445834839</speed>
  <fix>3d</fix>
</trkpt>
<trkpt lat="-27.2722861" lon="151.2906703">
  <ele>410.83</ele>
  <time>2026-09-01T19:56:59Z</time>
  <course>28.21</course>
  <speed>4.98</speed>
  <fix>3d</fix>
</trkpt>
<trkpt lat="-27.2722749" lon="151.2906773">
  <ele>411.8</ele>
  <time>2026-09-01T19:56:59Z</time>
  <course>23.88</course>
  <speed>4.962509445834839</speed>
  <fix>3d</fix>
</trkpt>
<trkpt lat="-27.2722711" lon="151.2906796">
  <ele>412.03</ele>
  <time>2026-09-01T19:56:59Z</time>
  <course>23.89</course>
  <speed>4.962509445834839</speed>
  <fix>3d</fix>
</trkpt>
<trkpt lat="-27.2722782" lon="151.2906751">
  <ele>411.33</ele>
  <time>2026-09-01T19:56:59Z</time>
  <course>28.32</course>
  <speed>4.98</speed>
  <fix>3d</fix>
</trkpt>
<trkpt lat="-27.2722708" lon="151.2906797">
  <ele>412.05</ele>
  <time>2026-09-01T19:56:59Z</time>
  <course>23.89</course>
  <speed>4.962509445834839</speed>
  <fix>3d</fix>
</trkpt>
<trkpt lat="-27.2722711" lon="151.2906912">
  <ele>343.0</ele>
  <time>2026-09-01T19:56:59Z</time>
  <course>28.83</course>
  <speed>4.990490957811666</speed>
  <fix>3d</fix>
</trkpt>
<trkpt lat="-27.2722672" lon="151.290682">
  <ele>412.28</ele>
  <time>2026-09-01T19:56:59Z</time>
  <course>23.89</course>
  <speed>4.967293025381128</speed>
  <fix>3d</fix>
</trkpt>
<trkpt lat="-27.2722782" lon="151.2906751">
  <ele>411.33</ele>
  <time>2026-09-01T19:56:59Z</time>
  <course>28.32</course>
  <speed>4.98</speed>
  <fix>3d</fix>
</trkpt>
<trkpt lat="-27.272267" lon="151.2906821">
  <ele>412.29</ele>
  <time>2026-09-01T19:56:59Z</time>
  <course>23.89</course>
  <speed>4.967293025381128</speed>
  <fix>3d</fix>
</trkpt>
<trkpt lat="-27.2722633" lon="151.2906843">
  <ele>412.53</ele>
  <time>2026-09-01T19:56:59Z</time>
  <course>23.9</course>
  <speed>4.967293025381128</speed>
  <fix>3d</fix>
</trkpt>
<trkpt lat="-27.2722704" lon="151.2906798">
  <ele>411.83</ele>
  <time>2026-09-01T19:56:59Z</time>
  <course>28.42</course>
  <speed>4.98</speed>
  <fix>3d</fix>
</trkpt>
<trkpt lat="-27.2722631" lon="151.2906844">
  <ele>412.54</ele>
  <time>2026-09-01T19:56:59Z</time>
  <course>23.9</course>
  <speed>4.967293025381128</speed>
  <fix>3d</fix>
</trkpt>
<trkpt lat="-27.2722633" lon="151.2906961">
  <ele>343.0</ele>
  <time>2026-09-01T19:56:59Z</time>
  <course>28.95</course>
  <speed>4.995327817070668</speed>
  <fix>3d</fix>
</trkpt>
<trkpt lat="-27.2722593" lon="151.2906868">
  <ele>412.79</ele>
  <time>2026-09-01T19:56:59Z</time>
  <course>23.9</course>
  <speed>4.972092114995458</speed>
  <fix>3d</fix>
</trkpt>
<trkpt lat="-27.2722704" lon="151.2906798">
  <ele>411.83</ele>
  <time>2026-09-01T19:56:59Z</time>
  <course>28.42</course>
  <speed>4.98</speed>
  <fix>3d</fix>
</trkpt>
<trkpt lat="-27.2722592" lon="151.2906868">
  <ele>412.79</ele>
  <time>2026-09-01T19:56:59Z</time>
  <course>23.9</course>
  <speed>4.972092114995458</speed>
  <fix>3d</fix>
</trkpt>
<trkpt lat="-27.2722554" lon="151.2906892">
  <ele>413.04</ele>
  <time>2026-09-01T19:56:59Z</time>
  <course>23.9</course>
  <speed>4.972092114995458</speed>
  <fix>3d</fix>
</trkpt>
<trkpt lat="-27.2722625" lon="151.2906846">
  <ele>412.33</ele>
  <time>2026-09-01T19:56:59Z</time>
  <course>28.54</course>
  <speed>4.98</speed>
  <fix>3d</fix>
</trkpt>
<trkpt lat="-27.2722553" lon="151.2906892">
  <ele>413.05</ele>
  <time>2026-09-01T19:56:59Z</time>
  <course>23.9</course>
  <speed>4.972092114995458</speed>
  <fix>3d</fix>
</trkpt>
<trkpt lat="-27.2722554" lon="151.290701">
  <ele>343.0</ele>
  <time>2026-09-01T19:56:59Z</time>
  <course>29.06</course>
  <speed>4.995327817070668</speed>
  <fix>3d</fix>
</trkpt>
<trkpt lat="-27.2722515" lon="151.2906916">
  <ele>413.29</ele>
  <time>2026-09-01T19:56:59Z</time>
  <course>23.9</course>
  <speed>4.968148548503758</speed>
  <fix>3d</fix>
</trkpt>
<trkpt lat="-27.2722625" lon="151.2906846">
  <ele>412.33</ele>
  <time>2026-09-01T19:56:59Z</time>
  <course>28.54</course>
  <speed>4.98</speed>
  <fix>3d</fix>
</trkpt>
<trkpt lat="-27.2722513" lon="151.2906916">
  <ele>413.3</ele>
  <time>2026-09-01T19:56:59Z</time>
  <course>23.9</course>
  <speed>4.968148548503758</speed>
  <fix>3d</fix>
</trkpt>
<trkpt lat="-27.2722475" lon="151.290694">
  <ele>413.55</ele>
  <time>2026-09-01T19:56:59Z</time>
  <course>23.91</course>
  <speed>4.968148548503758</speed>
  <fix>3d</fix>
</trkpt>
<trkpt lat="-27.2722547" lon="151.2906895">
  <ele>412.84</ele>
  <time>2026-09-01T19:56:59Z</time>
  <course>28.65</course>
  <speed>4.99</speed>
  <fix>3d</fix>
</trkpt>
<trkpt lat="-27.2722474" lon="151.2906941">
  <ele>413.55</ele>
  <time>2026-09-01T19:56:59Z</time>
  <course>23.91</course>
  <speed>4.968148548503758</speed>
  <fix>3d</fix>
</trkpt>
<trkpt lat="-27.2722476" lon="151.2907059">
  <ele>343.0</ele>
  <time>2026-09-01T19:56:59Z</time>
  <course>29.18</course>
  <speed>4.991442677222689</speed>
  <fix>3d</fix>
</trkpt>
<trkpt lat="-27.2722436" lon="151.2906964">
  <ele>413.8</ele>
  <time>2026-09-01T19:56:59Z</time>
  <course>23.91</course>
  <speed>4.97298702994488</speed>
  <fix>3d</fix>
</trkpt>
<trkpt lat="-27.2722547" lon="151.2906895">
  <ele>412.84</ele>
  <time>2026-09-01T19:56:59Z</time>
  <course>28.65</course>
  <speed>4.99</speed>
  <fix>3d</fix>
</trkpt>
<trkpt lat="-27.2722435" lon="151.2906965">
  <ele>413.81</ele>
  <time>2026-09-01T19:56:59Z</time>
  <course>23.91</course>
  <speed>4.97298702994488</speed>
  <fix>3d</fix>
</trkpt>
<trkpt lat="-27.2722397" lon="151.2906989">
  <ele>414.06</ele>
  <time>2026-09-01T19:56:59Z</time>
  <course>23.91</course>
  <speed>4.97298702994488</speed>
  <fix>3d</fix>
</trkpt>
<trkpt lat="-27.2722468" lon="151.2906944">
  <ele>413.34</ele>
  <time>2026-09-01T19:56:59Z</time>
  <course>28.75</course>
  <speed>4.99</speed>
  <fix>3d</fix>
</trkpt>
<trkpt lat="-27.2722396" lon="151.2906989">
  <ele>414.06</ele>
  <time>2026-09-01T19:56:59Z</time>
  <course>23.91</course>
  <speed>4.97298702994488</speed>
  <fix>3d</fix>
</trkpt>
<trkpt lat="-27.2722397" lon="151.2907109">
  <ele>343.0</ele>
  <time>2026-09-01T19:56:59Z</time>
  <course>29.29</course>
  <speed>4.996318644762361</speed>
  <fix>3d</fix>
</trkpt>
<trkpt lat="-27.2722358" lon="151.2907013">
  <ele>414.31</ele>
  <time>2026-09-01T19:56:59Z</time>
  <course>23.91</course>
  <speed>4.9778408974172725</speed>
  <fix>3d</fix>
</trkpt>
<trkpt lat="-27.2722468" lon="151.2906944">
  <ele>413.34</ele>
  <time>2026-09-01T19:56:59Z</time>
  <course>28.75</course>
  <speed>4.99</speed>
  <fix>3d</fix>
</trkpt>
<trkpt lat="-27.2722356" lon="151.2907014">
  <ele>414.32</ele>
  <time>2026-09-01T19:56:59Z</time>
  <course>23.91</course>
  <speed>4.9778408974172725</speed>
  <fix>3d</fix>
</trkpt>
<trkpt lat="-27.2722318" lon="151.2907037">
  <ele>414.56</ele>
  <time>2026-09-01T19:56:59Z</time>
  <course>23.91</course>
  <speed>4.9778408974172725</speed>
  <fix>3d</fix>
</trkpt>
<trkpt lat="-27.2722389" lon="151.2906992">
  <ele>413.84</ele>
  <time>2026-09-01T19:56:59Z</time>
  <course>28.86</course>
  <speed>4.99</speed>
  <fix>3d</fix>
</trkpt>
<trkpt lat="-27.2722317" lon="151.2907038">
  <ele>414.57</ele>
  <time>2026-09-01T19:56:59Z</time>
  <course>23.91</course>
  <speed>4.9778408974172725</speed>
  <fix>3d</fix>
</trkpt>
<trkpt lat="-27.2722319" lon="151.2907158">
  <ele>343.0</ele>
  <time>2026-09-01T19:56:59Z</time>
  <course>29.41</course>
  <speed>4.992494366546646</speed>
  <fix>3d</fix>
</trkpt>
<trkpt lat="-27.2722279" lon="151.2907062">
  <ele>414.81</ele>
  <time>2026-09-01T19:56:59Z</time>
  <course>23.91</course>
  <speed>4.9827101059563965</speed>
  <fix>3d</fix>
</trkpt>
<trkpt lat="-27.2722389" lon="151.2906992">
  <ele>413.84</ele>
  <time>2026-09-01T19:56:59Z</time>
  <course>28.86</course>
  <speed>4.99</speed>
  <fix>3d</fix>
</trkpt>
<trkpt lat="-27.2722275" lon="151.2907064">
  <ele>414.84</ele>
  <time>2026-09-01T19:56:59Z</time>
  <course>23.91</course>
  <speed>4.9827101059563965</speed>
  <fix>3d</fix>
</trkpt>
<trkpt lat="-27.272224" lon="151.2907086">
  <ele>415.06</ele>
  <time>2026-09-01T19:56:59Z</time>
  <course>23.92</course>
  <speed>4.9827101059563965</speed>
  <fix>3d</fix>
</trkpt>
<trkpt lat="-27.272231" lon="151.2907041">
  <ele>414.34</ele>
  <time>2026-09-01T19:56:59Z</time>
  <course>28.97</course>
  <speed>5.0</speed>
  <fix>3d</fix>
</trkpt>
<trkpt lat="-27.2722232" lon="151.2907091">
  <ele>415.11</ele>
  <time>2026-09-01T19:56:59Z</time>
  <course>23.92</course>
  <speed>4.9827101059563965</speed>
  <fix>3d</fix>
</trkpt>
<trkpt lat="-27.2722241" lon="151.2907208">
  <ele>343.0</ele>
  <time>2026-09-01T19:56:59Z</time>
  <course>29.52</course>
  <speed>4.997409328842296</speed>
  <fix>3d</fix>
</trkpt>
<trkpt lat="-27.2722201" lon="151.2907111">
  <ele>415.31</ele>
  <time>2026-09-01T19:56:59Z</time>
  <course>23.92</course>
  <speed>4.9827101059563965</speed>
  <fix>3d</fix>
</trkpt>
<trkpt lat="-27.272231" lon="151.2907041">
  <ele>414.34</ele>
  <time>2026-09-01T19:56:59Z</time>
  <course>28.97</course>
  <speed>5.0</speed>
  <fix>3d</fix>
</trkpt>
<trkpt lat="-27.2722199" lon="151.2907112">
  <ele>415.32</ele>
  <time>2026-09-01T19:56:59Z</time>
  <course>23.92</course>
  <speed>4.9827101059563965</speed>
  <fix>3d</fix>
</trkpt>
<trkpt lat="-27.2722161" lon="151.2907136">
  <ele>415.56</ele>
  <time>2026-09-01T19:56:59Z</time>
  <course>23.92</course>
  <speed>4.9875946106314615</speed>
  <fix>3d</fix>
</trkpt>
<trkpt lat="-27.2722232" lon="151.290709">
  <ele>414.85</ele>
  <time>2026-09-01T19:56:59Z</time>
  <course>29.06</course>
  <speed>5.0</speed>
  <fix>3d</fix>
</trkpt>
<trkpt lat="-27.272216" lon="151.2907136">
  <ele>415.57</ele>
  <time>2026-09-01T19:56:59Z</time>
  <course>23.92</course>
  <speed>4.9875946106314615</speed>
  <fix>3d</fix>
</trkpt>
<trkpt lat="-27.2722163" lon="151.2907258">
  <ele>343.0</ele>
  <time>2026-09-01T19:56:59Z</time>
  <course>29.64</course>
  <speed>4.993645962620898</speed>
  <fix>3d</fix>
</trkpt>
<trkpt lat="-27.2722122" lon="151.290716">
  <ele>415.81</ele>
  <time>2026-09-01T19:56:59Z</time>
  <course>23.92</course>
  <speed>4.978875375021953</speed>
  <fix>3d</fix>
</trkpt>
<trkpt lat="-27.2722232" lon="151.290709">
  <ele>414.85</ele>
  <time>2026-09-01T19:56:59Z</time>
  <course>29.06</course>
  <speed>5.0</speed>
  <fix>3d</fix>
</trkpt>
<trkpt lat="-27.2722121" lon="151.2907161">
  <ele>415.82</ele>
  <time>2026-09-01T19:56:59Z</time>
  <course>23.92</course>
  <speed>4.978875375021953</speed>
  <fix>3d</fix>
</trkpt>
<trkpt lat="-27.2722083" lon="151.2907185">
  <ele>416.06</ele>
  <time>2026-09-01T19:56:59Z</time>
  <course>23.92</course>
  <speed>4.983783703171717</speed>
  <fix>3d</fix>
</trkpt>
<trkpt lat="-27.2722153" lon="151.2907139">
  <ele>415.35</ele>
  <time>2026-09-01T19:56:59Z</time>
  <course>29.16</course>
  <speed>5.0</speed>
  <fix>3d</fix>
</trkpt>
<trkpt lat="-27.2722081" lon="151.2907186">
  <ele>416.07</ele>
  <time>2026-09-01T19:56:59Z</time>
  <course>23.92</course>
  <speed>4.983783703171717</speed>
  <fix>3d</fix>
</trkpt>
<trkpt lat="-27.2722085" lon="151.2907308">
  <ele>343.0</ele>
  <time>2026-09-01T19:56:59Z</time>
  <course>29.75</course>
  <speed>4.998599803945101</speed>
  <fix>3d</fix>
</trkpt>
<trkpt lat="-27.2722044" lon="151.290721">
  <ele>416.31</ele>
  <time>2026-09-01T19:56:59Z</time>
  <course>23.92</course>
  <speed>4.983783703171717</speed>
  <fix>3d</fix>
</trkpt>
<trkpt lat="-27.2722153" lon="151.2907139">
  <ele>415.35</ele>
  <time>2026-09-01T19:56:59Z</time>
  <course>29.16</course>
  <speed>5.0</speed>
  <fix>3d</fix>
</trkpt>
<trkpt lat="-27.2722042" lon="151.2907211">
  <ele>416.32</ele>
  <time>2026-09-01T19:56:59Z</time>
  <course>23.92</course>
  <speed>4.983783703171717</speed>
  <fix>3d</fix>
</trkpt>
<trkpt lat="-27.2722004" lon="151.2907235">
  <ele>416.56</ele>
  <time>2026-09-01T19:56:59Z</time>
  <course>23.91</course>
  <speed>4.988707247373813</speed>
  <fix>3d</fix>
</trkpt>
<trkpt lat="-27.2722075" lon="151.2907189">
  <ele>415.84</ele>
  <time>2026-09-01T19:56:59Z</time>
  <course>29.28</course>
  <speed>5.0</speed>
  <fix>3d</fix>
</trkpt>
<trkpt lat="-27.2722003" lon="151.2907235">
  <ele>416.57</ele>
  <time>2026-09-01T19:56:59Z</time>
  <course>23.91</course>
  <speed>4.988707247373813</speed>
  <fix>3d</fix>
</trkpt>
<trkpt lat="-27.2722007" lon="151.2907358">
  <ele>343.0</ele>
  <time>2026-09-01T19:56:59Z</time>
  <course>29.86</course>
  <speed>4.9948973963435925</speed>
  <fix>3d</fix>
</trkpt>
<trkpt lat="-27.2721965" lon="151.2907259">
  <ele>416.8</ele>
  <time>2026-09-01T19:56:59Z</time>
  <course>23.91</course>
  <speed>4.980010040150521</speed>
  <fix>3d</fix>
</trkpt>
<trkpt lat="-27.2722075" lon="151.2907189">
  <ele>415.84</ele>
  <time>2026-09-01T19:56:59Z</time>
  <course>29.28</course>
  <speed>5.0</speed>
  <fix>3d</fix>
</trkpt>
<trkpt lat="-27.2721964" lon="151.290726">
  <ele>416.82</ele>
  <time>2026-09-01T19:56:59Z</time>
  <course>23.91</course>
  <speed>4.980010040150521</speed>
  <fix>3d</fix>
</trkpt>
<trkpt lat="-27.2721926" lon="151.2907284">
  <ele>417.06</ele>
  <time>2026-09-01T19:56:59Z</time>
  <course>23.91</course>
  <speed>4.984957371934088</speed>
  <fix>3d</fix>
</trkpt>
<trkpt lat="-27.2721996" lon="151.2907239">
  <ele>416.34</ele>
  <time>2026-09-01T19:56:59Z</time>
  <course>29.41</course>
  <speed>5.0</speed>
  <fix>3d</fix>
</trkpt>
<trkpt lat="-27.2721925" lon="151.2907285">
  <ele>417.07</ele>
  <time>2026-09-01T19:56:59Z</time>
  <course>23.91</course>
  <speed>4.984957371934088</speed>
  <fix>3d</fix>
</trkpt>
<trkpt lat="-27.2721929" lon="151.2907409">
  <ele>343.0</ele>
  <time>2026-09-01T19:56:59Z</time>
  <course>29.98</course>
  <speed>4.9948973963435925</speed>
  <fix>3d</fix>
</trkpt>
<trkpt lat="-27.2721887" lon="151.2907309">
  <ele>417.31</ele>
  <time>2026-09-01T19:56:59Z</time>
  <course>23.93</course>
  <speed>4.989919839035493</speed>
  <fix>3d</fix>
</trkpt>
<trkpt lat="-27.2721996" lon="151.2907239">
  <ele>416.34</ele>
  <time>2026-09-01T19:56:59Z</time>
  <course>29.41</course>
  <speed>5.0</speed>
  <fix>3d</fix>
</trkpt>
<trkpt lat="-27.2721886" lon="151.290731">
  <ele>417.32</ele>
  <time>2026-09-01T19:56:59Z</time>
  <course>23.93</course>
  <speed>4.989919839035493</speed>
  <fix>3d</fix>
</trkpt>
<trkpt lat="-27.2721848" lon="151.2907334">
  <ele>417.56</ele>
  <time>2026-09-01T19:56:59Z</time>
  <course>23.94</course>
  <speed>4.981244824338591</speed>
  <fix>3d</fix>
</trkpt>
<trkpt lat="-27.2721918" lon="151.2907288">
  <ele>416.84</ele>
  <time>2026-09-01T19:56:59Z</time>
  <course>29.55</course>
  <speed>5.0</speed>
  <fix>3d</fix>
</trkpt>
<trkpt lat="-27.2721846" lon="151.2907335">
  <ele>417.57</ele>
  <time>2026-09-01T19:56:59Z</time>
  <course>23.94</course>
  <speed>4.981244824338591</speed>
  <fix>3d</fix>
</trkpt>
<trkpt lat="-27.2721851" lon="151.2907459">
  <ele>343.0</ele>
  <time>2026-09-01T19:56:59Z</time>
  <course>30.09</course>
  <speed>4.991232312766057</speed>
  <fix>3d</fix>
</trkpt>
<trkpt lat="-27.2721809" lon="151.2907359">
  <ele>417.81</ele>
  <time>2026-09-01T19:56:59Z</time>
  <course>23.94</course>
  <speed>4.986231041578399</speed>
  <fix>3d</fix>
</trkpt>
<trkpt lat="-27.2721918" lon="151.2907288">
  <ele>416.84</ele>
  <time>2026-09-01T19:56:59Z</time>
  <course>29.55</course>
  <speed>5.0</speed>
  <fix>3d</fix>
</trkpt>
<trkpt lat="-27.2721807" lon="151.2907361">
  <ele>417.82</ele>
  <time>2026-09-01T19:56:59Z</time>
  <course>23.94</course>
  <speed>4.986231041578399</speed>
  <fix>3d</fix>
</trkpt>
<trkpt lat="-27.272177" lon="151.2907385">
  <ele>418.06</ele>
  <time>2026-09-01T19:56:59Z</time>
  <course>23.94</course>
  <speed>4.986231041578399</speed>
  <fix>3d</fix>
</trkpt>
<trkpt lat="-27.272184" lon="151.2907339">
  <ele>417.34</ele>
  <time>2026-09-01T19:56:59Z</time>
  <course>29.69</course>
  <speed>5.0</speed>
  <fix>3d</fix>
</trkpt>
<trkpt lat="-27.2721768" lon="151.2907386">
  <ele>418.07</ele>
  <time>2026-09-01T19:56:59Z</time>
  <course>23.94</course>
  <speed>4.986231041578399</speed>
  <fix>3d</fix>
</trkpt>
<trkpt lat="-27.2721773" lon="151.290751">
  <ele>343.0</ele>
  <time>2026-09-01T19:56:59Z</time>
  <course>30.21</course>
  <speed>4.9962485926943225</speed>
  <fix>3d</fix>
</trkpt>
<trkpt lat="-27.2721731" lon="151.290741">
  <ele>418.31</ele>
  <time>2026-09-01T19:56:59Z</time>
  <course>23.94</course>
  <speed>4.991232312766057</speed>
  <fix>3d</fix>
</trkpt>
<trkpt lat="-27.272184" lon="151.2907339">
  <ele>417.34</ele>
  <time>2026-09-01T19:56:59Z</time>
  <course>29.69</course>
  <speed>5.0</speed>
  <fix>3d</fix>
</trkpt>
<trkpt lat="-27.2721729" lon="151.2907411">
  <ele>418.32</ele>
  <time>2026-09-01T19:56:59Z</time>
  <course>23.94</course>
  <speed>4.991232312766057</speed>
  <fix>3d</fix>
</trkpt>
<trkpt lat="-27.2721691" lon="151.2907435">
  <ele>418.57</ele>
  <time>2026-09-01T19:56:59Z</time>
  <course>23.96</course>
  <speed>4.982579653151568</speed>
  <fix>3d</fix>
</trkpt>
<trkpt lat="-27.2721761" lon="151.2907389">
  <ele>417.84</ele>
  <time>2026-09-01T19:56:59Z</time>
  <course>29.82</course>
  <speed>5.0</speed>
  <fix>3d</fix>
</trkpt>
<trkpt lat="-27.272169" lon="151.2907436">
  <ele>418.57</ele>
  <time>2026-09-01T19:56:59Z</time>
  <course>23.96</course>
  <speed>4.982579653151568</speed>
  <fix>3d</fix>
</trkpt>
<trkpt lat="-27.2721696" lon="151.2907561">
  <ele>343.0</ele>
  <time>2026-09-01T19:56:59Z</time>
  <course>30.32</course>
  <speed>4.992644589794071</speed>
  <fix>3d</fix>
</trkpt>
<trkpt lat="-27.2721653" lon="151.2907461">
  <ele>418.82</ele>
  <time>2026-09-01T19:56:59Z</time>
  <course>23.97</course>
  <speed>4.982579653151568</speed>
  <fix>3d</fix>
</trkpt>
<trkpt lat="-27.2721761" lon="151.2907389">
  <ele>417.84</ele>
  <time>2026-09-01T19:56:59Z</time>
  <course>29.82</course>
  <speed>5.0</speed>
  <fix>3d</fix>
</trkpt>
<trkpt lat="-27.2721651" lon="151.2907462">
  <ele>418.82</ele>
  <time>2026-09-01T19:56:59Z</time>
  <course>23.97</course>
  <speed>4.982579653151568</speed>
  <fix>3d</fix>
</trkpt>
<trkpt lat="-27.2721614" lon="151.2907486">
  <ele>419.07</ele>
  <time>2026-09-01T19:56:59Z</time>
  <course>23.97</course>
  <speed>4.987604635493876</speed>
  <fix>3d</fix>
</trkpt>
<trkpt lat="-27.2721684" lon="151.2907439">
  <ele>418.33</ele>
  <time>2026-09-01T19:56:59Z</time>
  <course>29.94</course>
  <speed>5.0</speed>
  <fix>3d</fix>
</trkpt>
<trkpt lat="-27.2721613" lon="151.2907487">
  <ele>419.07</ele>
  <time>2026-09-01T19:56:59Z</time>
  <course>23.97</course>
  <speed>4.987604635493876</speed>
  <fix>3d</fix>
</trkpt>
<trkpt lat="-27.2721618" lon="151.2907612">
  <ele>343.0</ele>
  <time>2026-09-01T19:56:59Z</time>
  <course>30.44</course>
  <speed>4.99769947075652</speed>
  <fix>3d</fix>
</trkpt>
<trkpt lat="-27.2721575" lon="151.2907511">
  <ele>419.32</ele>
  <time>2026-09-01T19:56:59Z</time>
  <course>23.97</course>
  <speed>4.987604635493876</speed>
  <fix>3d</fix>
</trkpt>
<trkpt lat="-27.2721684" lon="151.2907439">
  <ele>418.33</ele>
  <time>2026-09-01T19:56:59Z</time>
  <course>29.94</course>
  <speed>5.0</speed>
  <fix>3d</fix>
</trkpt>
<trkpt lat="-27.2721574" lon="151.2907512">
  <ele>419.33</ele>
  <time>2026-09-01T19:56:59Z</time>
  <course>23.97</course>
  <speed>4.987604635493876</speed>
  <fix>3d</fix>
</trkpt>
<trkpt lat="-27.2721536" lon="151.2907537">
  <ele>419.57</ele>
  <time>2026-09-01T19:56:59Z</time>
  <course>23.97</course>
  <speed>4.97896575605818</speed>
  <fix>3d</fix>
</trkpt>
<trkpt lat="-27.2721606" lon="151.290749">
  <ele>418.83</ele>
  <time>2026-09-01T19:56:59Z</time>
  <course>30.03</course>
  <speed>5.0</speed>
  <fix>3d</fix>
</trkpt>
<trkpt lat="-27.2721535" lon="151.2907537">
  <ele>419.58</ele>
  <time>2026-09-01T19:56:59Z</time>
  <course>23.97</course>
  <speed>4.97896575605818</speed>
  <fix>3d</fix>
</trkpt>
<trkpt lat="-27.2721541" lon="151.2907663">
  <ele>343.0</ele>
  <time>2026-09-01T19:56:59Z</time>
  <course>30.55</course>
  <speed>4.99415658545064</speed>
  <fix>3d</fix>
</trkpt>
<trkpt lat="-27.2721497" lon="151.2907562">
  <ele>419.82</ele>
  <time>2026-09-01T19:57:00Z</time>
  <course>23.97</course>
  <speed>4.984014446206993</speed>
  <fix>3d</fix>
</trkpt>
<trkpt lat="-27.2721606" lon="151.290749">
  <ele>418.83</ele>
  <time>2026-09-01T19:57:00Z</time>
  <course>30.03</course>
  <speed>5.0</speed>
  <fix>3d</fix>
</trkpt>
<trkpt lat="-27.2721496" lon="151.2907563">
  <ele>419.83</ele>
  <time>2026-09-01T19:57:00Z</time>
  <course>23.97</course>
  <speed>4.984014446206993</speed>
  <fix>3d</fix>
</trkpt>
<trkpt lat="-27.2721458" lon="151.2907588">
  <ele>420.07</ele>
  <time>2026-09-01T19:57:00Z</time>
  <course>23.97</course>
  <speed>4.984014446206993</speed>
  <fix>3d</fix>
</trkpt>
<trkpt lat="-27.2721528" lon="151.290754">
  <ele>419.33</ele>
  <time>2026-09-01T19:57:00Z</time>
  <course>30.13</course>
  <speed>5.0</speed>
  <fix>3d</fix>
</trkpt>
<trkpt lat="-27.2721457" lon="151.2907589">
  <ele>420.08</ele>
  <time>2026-09-01T19:57:00Z</time>
  <course>23.97</course>
  <speed>4.984014446206993</speed>
  <fix>3d</fix>
</trkpt>
<trkpt lat="-27.2721463" lon="151.2907715">
  <ele>343.0</ele>
  <time>2026-09-01T19:57:00Z</time>
  <course>30.67</course>
  <speed>4.999249943741561</speed>
  <fix>3d</fix>
</trkpt>
<trkpt lat="-27.2721419" lon="151.2907613">
  <ele>420.32</ele>
  <time>2026-09-01T19:57:00Z</time>
  <course>23.98</course>
  <speed>4.975389431994244</speed>
  <fix>3d</fix>
</trkpt>
<trkpt lat="-27.2721528" lon="151.290754">
  <ele>419.33</ele>
  <time>2026-09-01T19:57:00Z</time>
  <course>30.13</course>
  <speed>5.0</speed>
  <fix>3d</fix>
</trkpt>
<trkpt lat="-27.2721418" lon="151.2907614">
  <ele>420.32</ele>
  <time>2026-09-01T19:57:00Z</time>
  <course>23.98</course>
  <speed>4.975389431994244</speed>
  <fix>3d</fix>
</trkpt>
<trkpt lat="-27.272138" lon="151.2907639">
  <ele>420.57</ele>
  <time>2026-09-01T19:57:00Z</time>
  <course>23.99</course>
  <speed>4.980461825975579</speed>
  <fix>3d</fix>
</trkpt>
<trkpt lat="-27.272145" lon="151.2907591">
  <ele>419.82</ele>
  <time>2026-09-01T19:57:00Z</time>
  <course>30.23</course>
  <speed>5.0</speed>
  <fix>3d</fix>
</trkpt>
<trkpt lat="-27.2721379" lon="151.290764">
  <ele>420.57</ele>
  <time>2026-09-01T19:57:00Z</time>
  <course>23.99</course>
  <speed>4.980461825975579</speed>
  <fix>3d</fix>
</trkpt>
<trkpt lat="-27.2721386" lon="151.2907767">
  <ele>343.0</ele>
  <time>2026-09-01T19:57:00Z</time>
  <course>30.78</course>
  <speed>4.99065126010624</speed>
  <fix>3d</fix>
</trkpt>
<trkpt lat="-27.2721341" lon="151.2907665">
  <ele>420.81</ele>
  <time>2026-09-01T19:57:00Z</time>
  <course>23.98</course>
  <speed>4.980461825975579</speed>
  <fix>3d</fix>
</trkpt>
<trkpt lat="-27.272145" lon="151.2907591">
  <ele>419.82</ele>
  <time>2026-09-01T19:57:00Z</time>
  <course>30.23</course>
  <speed>5.0</speed>
  <fix>3d</fix>
</trkpt>
<trkpt lat="-27.272134" lon="151.2907665">
  <ele>420.82</ele>
  <time>2026-09-01T19:57:00Z</time>
  <course>23.98</course>
  <speed>4.980461825975579</speed>
  <fix>3d</fix>
</trkpt>
<trkpt lat="-27.2721302" lon="151.290769">
  <ele>421.06</ele>
  <time>2026-09-01T19:57:00Z</time>
  <course>23.98</course>
  <speed>4.985549117198627</speed>
  <fix>3d</fix>
</trkpt>
<trkpt lat="-27.2721373" lon="151.2907642">
  <ele>420.32</ele>
  <time>2026-09-01T19:57:00Z</time>
  <course>30.35</course>
  <speed>4.99</speed>
  <fix>3d</fix>
</trkpt>
<trkpt lat="-27.2721301" lon="151.2907691">
  <ele>421.07</ele>
  <time>2026-09-01T19:57:00Z</time>
  <course>23.98</course>
  <speed>4.985549117198627</speed>
  <fix>3d</fix>
</trkpt>
<trkpt lat="-27.2721309" lon="151.2907818">
  <ele>343.0</ele>
  <time>2026-09-01T19:57:00Z</time>
  <course>30.9</course>
  <speed>4.995768209194658</speed>
  <fix>3d</fix>
</trkpt>
<trkpt lat="-27.2721264" lon="151.2907716">
  <ele>421.31</ele>
  <time>2026-09-01T19:57:00Z</time>
  <course>23.97</course>
  <speed>4.976946855251722</speed>
  <fix>3d</fix>
</trkpt>
<trkpt lat="-27.2721373" lon="151.2907642">
  <ele>420.32</ele>
  <time>2026-09-01T19:57:00Z</time>
  <course>30.35</course>
  <speed>4.99</speed>
  <fix>3d</fix>
</trkpt>
<trkpt lat="-27.2721263" lon="151.2907717">
  <ele>421.32</ele>
  <time>2026-09-01T19:57:00Z</time>
  <course>23.97</course>
  <speed>4.976946855251722</speed>
  <fix>3d</fix>
</trkpt>
<trkpt lat="-27.2721225" lon="151.2907741">
  <ele>421.56</ele>
  <time>2026-09-01T19:57:00Z</time>
  <course>23.96</course>
  <speed>4.982057807773812</speed>
  <fix>3d</fix>
</trkpt>
<trkpt lat="-27.2721295" lon="151.2907693">
  <ele>420.82</ele>
  <time>2026-09-01T19:57:00Z</time>
  <course>30.48</course>
  <speed>4.99</speed>
  <fix>3d</fix>
</trkpt>
<trkpt lat="-27.2721224" lon="151.2907742">
  <ele>421.56</ele>
  <time>2026-09-01T19:57:00Z</time>
  <course>23.96</course>
  <speed>4.982057807773812</speed>
  <fix>3d</fix>
</trkpt>
<trkpt lat="-27.2721232" lon="151.290787">
  <ele>343.0</ele>
  <time>2026-09-01T19:57:00Z</time>
  <course>31.01</course>
  <speed>4.992324108068305</speed>
  <fix>3d</fix>
</trkpt>
<trkpt lat="-27.2721186" lon="151.2907767">
  <ele>421.8</ele>
  <time>2026-09-01T19:57:00Z</time>
  <course>23.96</course>
  <speed>4.982057807773812</speed>
  <fix>3d</fix>
</trkpt>
<trkpt lat="-27.2721295" lon="151.2907693">
  <ele>420.82</ele>
  <time>2026-09-01T19:57:00Z</time>
  <course>30.48</course>
  <speed>4.99</speed>
  <fix>3d</fix>
</trkpt>
<trkpt lat="-27.2721185" lon="151.2907768">
  <ele>421.81</ele>
  <time>2026-09-01T19:57:00Z</time>
  <course>23.96</course>
  <speed>4.982057807773812</speed>
  <fix>3d</fix>
</trkpt>
<trkpt lat="-27.2721148" lon="151.2907793">
  <ele>422.05</ele>
  <time>2026-09-01T19:57:00Z</time>
  <course>23.97</course>
  <speed>4.987183573922259</speed>
  <fix>3d</fix>
</trkpt>
<trkpt lat="-27.2721218" lon="151.2907745">
  <ele>421.31</ele>
  <time>2026-09-01T19:57:00Z</time>
  <course>30.61</course>
  <speed>4.99</speed>
  <fix>3d</fix>
</trkpt>
<trkpt lat="-27.2721147" lon="151.2907794">
  <ele>422.06</ele>
  <time>2026-09-01T19:57:00Z</time>
  <course>23.97</course>
  <speed>4.987183573922259</speed>
  <fix>3d</fix>
</trkpt>
<trkpt lat="-27.2721155" lon="151.2907922">
  <ele>343.0</ele>
  <time>2026-09-01T19:57:00Z</time>
  <course>31.12</course>
  <speed>4.997479364639738</speed>
  <fix>3d</fix>
</trkpt>
<trkpt lat="-27.272111" lon="151.2907819">
  <ele>422.3</ele>
  <time>2026-09-01T19:57:00Z</time>
  <course>23.98</course>
  <speed>4.978604222068672</speed>
  <fix>3d</fix>
</trkpt>
<trkpt lat="-27.2721218" lon="151.2907745">
  <ele>421.31</ele>
  <time>2026-09-01T19:57:00Z</time>
  <course>30.61</course>
  <speed>4.99</speed>
  <fix>3d</fix>
</trkpt>
<trkpt lat="-27.2721108" lon="151.290782">
  <ele>422.31</ele>
  <time>2026-09-01T19:57:00Z</time>
  <course>23.98</course>
  <speed>4.978604222068672</speed>
  <fix>3d</fix>
</trkpt>
<trkpt lat="-27.2721071" lon="151.2907844">
  <ele>422.55</ele>
  <time>2026-09-01T19:57:00Z</time>
  <course>23.99</course>
  <speed>4.983753605466466</speed>
  <fix>3d</fix>
</trkpt>
<trkpt lat="-27.2721141" lon="151.2907796">
  <ele>421.81</ele>
  <time>2026-09-01T19:57:00Z</time>
  <course>30.73</course>
  <speed>5.0</speed>
  <fix>3d</fix>
</trkpt>
<trkpt lat="-27.2721069" lon="151.2907846">
  <ele>422.56</ele>
  <time>2026-09-01T19:57:00Z</time>
  <course>23.99</course>
  <speed>4.983753605466466</speed>
  <fix>3d</fix>
</trkpt>
<trkpt lat="-27.2721078" lon="151.2907975">
  <ele>343.0</ele>
  <time>2026-09-01T19:57:00Z</time>
  <course>31.24</course>
  <speed>4.994096514886351</speed>
  <fix>3d</fix>
</trkpt>
<trkpt lat="-27.2721032" lon="151.290787">
  <ele>422.8</ele>
  <time>2026-09-01T19:57:00Z</time>
  <course>24.0</course>
  <speed>4.983753605466466</speed>
  <fix>3d</fix>
</trkpt>
<trkpt lat="-27.2721141" lon="151.2907796">
  <ele>421.81</ele>
  <time>2026-09-01T19:57:00Z</time>
  <course>30.73</course>
  <speed>5.0</speed>
  <fix>3d</fix>
</trkpt>
<trkpt lat="-27.2721031" lon="151.2907872">
  <ele>422.81</ele>
  <time>2026-09-01T19:57:00Z</time>
  <course>24.0</course>
  <speed>4.983753605466466</speed>
  <fix>3d</fix>
</trkpt>
<trkpt lat="-27.2720994" lon="151.2907897">
  <ele>423.05</ele>
  <time>2026-09-01T19:57:00Z</time>
  <course>24.0</course>
  <speed>4.983753605466466</speed>
  <fix>3d</fix>
</trkpt>
<trkpt lat="-27.2721063" lon="151.2907848">
  <ele>422.31</ele>
  <time>2026-09-01T19:57:00Z</time>
  <course>30.84</course>
  <speed>5.0</speed>
  <fix>3d</fix>
</trkpt>
<trkpt lat="-27.2720992" lon="151.2907897">
  <ele>423.06</ele>
  <time>2026-09-01T19:57:00Z</time>
  <course>24.0</course>
  <speed>4.983753605466466</speed>
  <fix>3d</fix>
</trkpt>
<trkpt lat="-27.2721001" lon="151.2908027">
  <ele>343.0</ele>
  <time>2026-09-01T19:57:00Z</time>
  <course>31.35</course>
  <speed>4.990751446425678</speed>
  <fix>3d</fix>
</trkpt>
<trkpt lat="-27.2720955" lon="151.2907923">
  <ele>423.3</ele>
  <time>2026-09-01T19:57:00Z</time>
  <course>24.0</course>
  <speed>4.980361432667312</speed>
  <fix>3d</fix>
</trkpt>
<trkpt lat="-27.2721063" lon="151.2907848">
  <ele>422.31</ele>
  <time>2026-09-01T19:57:00Z</time>
  <course>30.84</course>
  <speed>5.0</speed>
  <fix>3d</fix>
</trkpt>
<trkpt lat="-27.2720954" lon="151.2907923">
  <ele>423.31</ele>
  <time>2026-09-01T19:57:00Z</time>
  <course>24.0</course>
  <speed>4.980361432667312</speed>
  <fix>3d</fix>
</trkpt>
<trkpt lat="-27.2720917" lon="151.2907949">
  <ele>423.55</ele>
  <time>2026-09-01T19:57:00Z</time>
  <course>23.99</course>
  <speed>4.980361432667312</speed>
  <fix>3d</fix>
</trkpt>
<trkpt lat="-27.2720986" lon="151.29079">
  <ele>422.81</ele>
  <time>2026-09-01T19:57:00Z</time>
  <course>30.95</course>
  <speed>5.0</speed>
  <fix>3d</fix>
</trkpt>
<trkpt lat="-27.2720915" lon="151.290795">
  <ele>423.56</ele>
  <time>2026-09-01T19:57:00Z</time>
  <course>23.99</course>
  <speed>4.980361432667312</speed>
  <fix>3d</fix>
</trkpt>
<trkpt lat="-27.2720925" lon="151.290808">
  <ele>343.0</ele>
  <time>2026-09-01T19:57:00Z</time>
  <course>31.47</course>
  <speed>4.995968374599663</speed>
  <fix>3d</fix>
</trkpt>
<trkpt lat="-27.2720878" lon="151.2907975">
  <ele>423.8</ele>
  <time>2026-09-01T19:57:00Z</time>
  <course>23.98</course>
  <speed>4.985549117198627</speed>
  <fix>3d</fix>
</trkpt>
<trkpt lat="-27.2720986" lon="151.29079">
  <ele>422.81</ele>
  <time>2026-09-01T19:57:00Z</time>
  <course>30.95</course>
  <speed>5.0</speed>
  <fix>3d</fix>
</trkpt>
<trkpt lat="-27.2720877" lon="151.2907976">
  <ele>423.8</ele>
  <time>2026-09-01T19:57:00Z</time>
  <course>23.98</course>
  <speed>4.985549117198627</speed>
  <fix>3d</fix>
</trkpt>
<trkpt lat="-27.272084" lon="151.2908001">
  <ele>424.05</ele>
  <time>2026-09-01T19:57:00Z</time>
  <course>23.97</course>
  <speed>4.977007132805819</speed>
  <fix>3d</fix>
</trkpt>
<trkpt lat="-27.2720909" lon="151.2907952">
  <ele>423.31</ele>
  <time>2026-09-01T19:57:00Z</time>
  <course>31.06</course>
  <speed>4.99</speed>
  <fix>3d</fix>
</trkpt>
<trkpt lat="-27.2720838" lon="151.2908002">
  <ele>424.05</ele>
  <time>2026-09-01T19:57:00Z</time>
  <course>23.97</course>
  <speed>4.977007132805819</speed>
  <fix>3d</fix>
</trkpt>
<trkpt lat="-27.2720848" lon="151.2908133">
  <ele>343.0</ele>
  <time>2026-09-01T19:57:00Z</time>
  <course>31.58</course>
  <speed>4.987444235277223</speed>
  <fix>3d</fix>
</trkpt>
<trkpt lat="-27.2720801" lon="151.2908027">
  <ele>424.29</ele>
  <time>2026-09-01T19:57:00Z</time>
  <course>23.97</course>
  <speed>4.977007132805819</speed>
  <fix>3d</fix>
</trkpt>
<trkpt lat="-27.2720909" lon="151.2907952">
  <ele>423.31</ele>
  <time>2026-09-01T19:57:00Z</time>
  <course>31.06</course>
  <speed>4.99</speed>
  <fix>3d</fix>
</trkpt>
<trkpt lat="-27.27208" lon="151.2908028">
  <ele>424.3</ele>
  <time>2026-09-01T19:57:00Z</time>
  <course>23.97</course>
  <speed>4.977007132805819</speed>
  <fix>3d</fix>
</trkpt>
<trkpt lat="-27.2720763" lon="151.2908053">
  <ele>424.55</ele>
  <time>2026-09-01T19:57:00Z</time>
  <course>23.97</course>
  <speed>4.982218381404011</speed>
  <fix>3d</fix>
</trkpt>
<trkpt lat="-27.2720833" lon="151.2908004">
  <ele>423.81</ele>
  <time>2026-09-01T19:57:00Z</time>
  <course>31.17</course>
  <speed>4.99</speed>
  <fix>3d</fix>
</trkpt>
<trkpt lat="-27.2720762" lon="151.2908054">
  <ele>424.55</ele>
  <time>2026-09-01T19:57:00Z</time>
  <course>23.97</course>
  <speed>4.982218381404011</speed>
  <fix>3d</fix>
</trkpt>
<trkpt lat="-27.2720772" lon="151.2908186">
  <ele>343.0</ele>
  <time>2026-09-01T19:57:00Z</time>
  <course>31.7</course>
  <speed>4.992684648563336</speed>
  <fix>3d</fix>
</trkpt>
<trkpt lat="-27.2720725" lon="151.2908079">
  <ele>424.8</ele>
  <time>2026-09-01T19:57:00Z</time>
  <course>23.97</course>
  <speed>4.973690782507493</speed>
  <fix>3d</fix>
</trkpt>
<trkpt lat="-27.2720833" lon="151.2908004">
  <ele>423.81</ele>
  <time>2026-09-01T19:57:00Z</time>
  <course>31.17</course>
  <speed>4.99</speed>
  <fix>3d</fix>
</trkpt>
<trkpt lat="-27.2720724" lon="151.290808">
  <ele>424.8</ele>
  <time>2026-09-01T19:57:00Z</time>
  <course>23.97</course>
  <speed>4.973690782507493</speed>
  <fix>3d</fix>
</trkpt>
<trkpt lat="-27.2720686" lon="151.2908106">
  <ele>425.05</ele>
  <time>2026-09-01T19:57:00Z</time>
  <course>23.98</course>
  <speed>4.978925586911297</speed>
  <fix>3d</fix>
</trkpt>
<trkpt lat="-27.2720756" lon="151.2908057">
  <ele>424.31</ele>
  <time>2026-09-01T19:57:00Z</time>
  <course>31.29</course>
  <speed>4.99</speed>
  <fix>3d</fix>
</trkpt>
<trkpt lat="-27.2720685" lon="151.2908106">
  <ele>425.05</ele>
  <time>2026-09-01T19:57:00Z</time>
  <course>23.98</course>
  <speed>4.978925586911297</speed>
  <fix>3d</fix>
</trkpt>
<trkpt lat="-27.2720695" lon="151.2908239">
  <ele>343.0</ele>
  <time>2026-09-01T19:57:00Z</time>
  <course>31.81</course>
  <speed>4.989438846203047</speed>
  <fix>3d</fix>
</trkpt>
<trkpt lat="-27.2720648" lon="151.2908132">
  <ele>425.3</ele>
  <time>2026-09-01T19:57:00Z</time>
  <course>23.99</course>
  <speed>4.978925586911297</speed>
  <fix>3d</fix>
</trkpt>
<trkpt lat="-27.2720756" lon="151.2908057">
  <ele>424.31</ele>
  <time>2026-09-01T19:57:00Z</time>
  <course>31.29</course>
  <speed>4.99</speed>
  <fix>3d</fix>
</trkpt>
<trkpt lat="-27.2720647" lon="151.2908133">
  <ele>425.31</ele>
  <time>2026-09-01T19:57:00Z</time>
  <course>23.99</course>
  <speed>4.978925586911297</speed>
  <fix>3d</fix>
</trkpt>
<trkpt lat="-27.272061" lon="151.2908159">
  <ele>425.55</ele>
  <time>2026-09-01T19:57:00Z</time>
  <course>24.0</course>
  <speed>4.975670809046756</speed>
  <fix>3d</fix>
</trkpt>
<trkpt lat="-27.2720679" lon="151.2908109">
  <ele>424.81</ele>
  <time>2026-09-01T19:57:00Z</time>
  <course>31.41</course>
  <speed>4.99</speed>
  <fix>3d</fix>
</trkpt>
<trkpt lat="-27.2720608" lon="151.2908159">
  <ele>425.56</ele>
  <time>2026-09-01T19:57:00Z</time>
  <course>24.0</course>
  <speed>4.975670809046756</speed>
  <fix>3d</fix>
</trkpt>
<trkpt lat="-27.2720619" lon="151.2908292">
  <ele>343.0</ele>
  <time>2026-09-01T19:57:00Z</time>
  <course>31.93</course>
  <speed>4.9947172092121495</speed>
  <fix>3d</fix>
</trkpt>
<trkpt lat="-27.2720571" lon="151.2908185">
  <ele>425.8</ele>
  <time>2026-09-01T19:57:00Z</time>
  <course>24.01</course>
  <speed>4.975670809046756</speed>
  <fix>3d</fix>
</trkpt>
<trkpt lat="-27.2720679" lon="151.2908109">
  <ele>424.81</ele>
  <time>2026-09-01T19:57:00Z</time>
  <course>31.41</course>
  <speed>4.99</speed>
  <fix>3d</fix>
</trkpt>
<trkpt lat="-27.272057" lon="151.2908186">
  <ele>425.81</ele>
  <time>2026-09-01T19:57:00Z</time>
  <course>24.01</course>
  <speed>4.975670809046756</speed>
  <fix>3d</fix>
</trkpt>
<trkpt lat="-27.2720533" lon="151.2908211">
  <ele>426.05</ele>
  <time>2026-09-01T19:57:00Z</time>
  <course>24.02</course>
  <speed>4.975670809046756</speed>
  <fix>3d</fix>
</trkpt>
<trkpt lat="-27.2720603" lon="151.2908162">
  <ele>425.31</ele>
  <time>2026-09-01T19:57:00Z</time>
  <course>31.54</course>
  <speed>4.99</speed>
  <fix>3d</fix>
</trkpt>
<trkpt lat="-27.2720532" lon="151.2908212">
  <ele>426.06</ele>
  <time>2026-09-01T19:57:00Z</time>
  <course>24.02</course>
  <speed>4.975670809046756</speed>
  <fix>3d</fix>
</trkpt>
<trkpt lat="-27.2720543" lon="151.2908346">
  <ele>343.0</ele>
  <time>2026-09-01T19:57:00Z</time>
  <course>32.04</course>
  <speed>4.991532830704412</speed>
  <fix>3d</fix>
</trkpt>
<trkpt lat="-27.2720495" lon="151.2908238">
  <ele>426.3</ele>
  <time>2026-09-01T19:57:00Z</time>
  <course>24.03</course>
  <speed>4.972454122463072</speed>
  <fix>3d</fix>
</trkpt>
<trkpt lat="-27.2720603" lon="151.2908162">
  <ele>425.31</ele>
  <time>2026-09-01T19:57:00Z</time>
  <course>31.54</course>
  <speed>4.99</speed>
  <fix>3d</fix>
</trkpt>
<trkpt lat="-27.2720494" lon="151.2908239">
  <ele>426.31</ele>
  <time>2026-09-01T19:57:00Z</time>
  <course>24.03</course>
  <speed>4.972454122463072</speed>
  <fix>3d</fix>
</trkpt>
<trkpt lat="-27.2720457" lon="151.2908265">
  <ele>426.55</ele>
  <time>2026-09-01T19:57:00Z</time>
  <course>24.04</course>
  <speed>4.972454122463072</speed>
  <fix>3d</fix>
</trkpt>
<trkpt lat="-27.2720526" lon="151.2908215">
  <ele>425.81</ele>
  <time>2026-09-01T19:57:00Z</time>
  <course>31.65</course>
  <speed>4.99</speed>
  <fix>3d</fix>
</trkpt>
<trkpt lat="-27.2720456" lon="151.2908265">
  <ele>426.56</ele>
  <time>2026-09-01T19:57:00Z</time>
  <course>24.04</course>
  <speed>4.972454122463072</speed>
  <fix>3d</fix>
</trkpt>
<trkpt lat="-27.2720467" lon="151.29084">
  <ele>343.0</ele>
  <time>2026-09-01T19:57:00Z</time>
  <course>32.15</course>
  <speed>4.99684900712439</speed>
  <fix>3d</fix>
</trkpt>
<trkpt lat="-27.2720419" lon="151.2908291">
  <ele>426.8</ele>
  <time>2026-09-01T19:57:00Z</time>
  <course>24.04</course>
  <speed>4.977750495956984</speed>
  <fix>3d</fix>
</trkpt>
<trkpt lat="-27.2720526" lon="151.2908215">
  <ele>425.81</ele>
  <time>2026-09-01T19:57:00Z</time>
  <course>31.65</course>
  <speed>4.99</speed>
  <fix>3d</fix>
</trkpt>
<trkpt lat="-27.2720418" lon="151.2908292">
  <ele>426.81</ele>
  <time>2026-09-01T19:57:00Z</time>
  <course>24.03</course>
  <speed>4.977750495956984</speed>
  <fix>3d</fix>
</trkpt>
<trkpt lat="-27.2720381" lon="151.2908318">
  <ele>427.05</ele>
  <time>2026-09-01T19:57:00Z</time>
  <course>24.02</course>
  <speed>4.977750495956984</speed>
  <fix>3d</fix>
</trkpt>
<trkpt lat="-27.272045" lon="151.2908268">
  <ele>426.31</ele>
  <time>2026-09-01T19:57:00Z</time>
  <course>31.77</course>
  <speed>4.99</speed>
  <fix>3d</fix>
</trkpt>
<trkpt lat="-27.272038" lon="151.2908319">
  <ele>427.06</ele>
  <time>2026-09-01T19:57:00Z</time>
  <course>24.02</course>
  <speed>4.977750495956984</speed>
  <fix>3d</fix>
</trkpt>
<trkpt lat="-27.2720391" lon="151.2908454">
  <ele>343.0</ele>
  <time>2026-09-01T19:57:00Z</time>
  <course>32.27</course>
  <speed>4.988386512691253</speed>
  <fix>3d</fix>
</trkpt>
<trkpt lat="-27.2720343" lon="151.2908344">
  <ele>427.3</ele>
  <time>2026-09-01T19:57:00Z</time>
  <course>24.01</course>
  <speed>4.974595460939512</speed>
  <fix>3d</fix>
</trkpt>
<trkpt lat="-27.272045" lon="151.2908268">
  <ele>426.31</ele>
  <time>2026-09-01T19:57:00Z</time>
  <course>31.77</course>
  <speed>4.99</speed>
  <fix>3d</fix>
</trkpt>
<trkpt lat="-27.2720342" lon="151.2908345">
  <ele>427.31</ele>
  <time>2026-09-01T19:57:00Z</time>
  <course>24.01</course>
  <speed>4.974595460939512</speed>
  <fix>3d</fix>
</trkpt>
<trkpt lat="-27.2720305" lon="151.2908371">
  <ele>427.55</ele>
  <time>2026-09-01T19:57:00Z</time>
  <course>24.0</course>
  <speed>4.974595460939512</speed>
  <fix>3d</fix>
</trkpt>
<trkpt lat="-27.2720374" lon="151.2908321">
  <ele>426.81</ele>
  <time>2026-09-01T19:57:00Z</time>
  <course>31.89</course>
  <speed>4.99</speed>
  <fix>3d</fix>
</trkpt>
<trkpt lat="-27.2720303" lon="151.2908372">
  <ele>427.56</ele>
  <time>2026-09-01T19:57:00Z</time>
  <course>24.0</course>
  <speed>4.974595460939512</speed>
  <fix>3d</fix>
</trkpt>
<trkpt lat="-27.2720315" lon="151.2908508">
  <ele>343.0</ele>
  <time>2026-09-01T19:57:00Z</time>
  <course>32.38</course>
  <speed>4.993726063772421</speed>
  <fix>3d</fix>
</trkpt>
<trkpt lat="-27.2720267" lon="151.2908398">
  <ele>427.8</ele>
  <time>2026-09-01T19:57:00Z</time>
  <course>24.0</course>
  <speed>4.979929718379568</speed>
  <fix>3d</fix>
</trkpt>
<trkpt lat="-27.2720374" lon="151.2908321">
  <ele>426.81</ele>
  <time>2026-09-01T19:57:00Z</time>
  <course>31.89</course>
  <speed>4.99</speed>
  <fix>3d</fix>
</trkpt>
<trkpt lat="-27.2720265" lon="151.2908399">
  <ele>427.81</ele>
  <time>2026-09-01T19:57:00Z</time>
  <course>24.0</course>
  <speed>4.979929718379568</speed>
  <fix>3d</fix>
</trkpt>
<trkpt lat="-27.2720229" lon="151.2908425">
  <ele>428.05</ele>
  <time>2026-09-01T19:57:00Z</time>
  <course>23.99</course>
  <speed>4.979929718379568</speed>
  <fix>3d</fix>
</trkpt>
<trkpt lat="-27.2720298" lon="151.2908375">
  <ele>427.31</ele>
  <time>2026-09-01T19:57:00Z</time>
  <course>32.01</course>
  <speed>4.99</speed>
  <fix>3d</fix>
</trkpt>
<trkpt lat="-27.2720227" lon="151.2908426">
  <ele>428.06</ele>
  <time>2026-09-01T19:57:00Z</time>
  <course>23.99</course>
  <speed>4.979929718379568</speed>
  <fix>3d</fix>
</trkpt>
<trkpt lat="-27.2720239" lon="151.2908562">
  <ele>343.0</ele>
  <time>2026-09-01T19:57:00Z</time>
  <course>32.5</course>
  <speed>4.9906412413636785</speed>
  <fix>3d</fix>
</trkpt>
<trkpt lat="-27.2720191" lon="151.2908452">
  <ele>428.3</ele>
  <time>2026-09-01T19:57:00Z</time>
  <course>24.0</course>
  <speed>4.976836344506418</speed>
  <fix>3d</fix>
</trkpt>
<trkpt lat="-27.2720298" lon="151.2908375">
  <ele>427.31</ele>
  <time>2026-09-01T19:57:00Z</time>
  <course>32.01</course>
  <speed>4.99</speed>
  <fix>3d</fix>
</trkpt>
<trkpt lat="-27.2720189" lon="151.2908453">
  <ele>428.31</ele>
  <time>2026-09-01T19:57:00Z</time>
  <course>24.0</course>
  <speed>4.976836344506418</speed>
  <fix>3d</fix>
</trkpt>
<trkpt lat="-27.2720153" lon="151.2908479">
  <ele>428.55</ele>
  <time>2026-09-01T19:57:00Z</time>
  <course>24.01</course>
  <speed>4.976836344506418</speed>
  <fix>3d</fix>
</trkpt>
<trkpt lat="-27.2720222" lon="151.2908428">
  <ele>427.81</ele>
  <time>2026-09-01T19:57:00Z</time>
  <course>32.13</course>
  <speed>4.99</speed>
  <fix>3d</fix>
</trkpt>
<trkpt lat="-27.2720151" lon="151.290848">
  <ele>428.55</ele>
  <time>2026-09-01T19:57:00Z</time>
  <course>24.01</course>
  <speed>4.976836344506418</speed>
  <fix>3d</fix>
</trkpt>
<trkpt lat="-27.2720164" lon="151.2908616">
  <ele>343.0</ele>
  <time>2026-09-01T19:57:00Z</time>
  <course>32.61</course>
  <speed>4.996018414697848</speed>
  <fix>3d</fix>
</trkpt>
<trkpt lat="-27.2720115" lon="151.2908506">
  <ele>428.79</ele>
  <time>2026-09-01T19:57:00Z</time>
  <course>24.03</course>
  <speed>4.976836344506418</speed>
  <fix>3d</fix>
</trkpt>
<trkpt lat="-27.2720222" lon="151.2908428">
  <ele>427.81</ele>
  <time>2026-09-01T19:57:00Z</time>
  <course>32.13</course>
  <speed>4.99</speed>
  <fix>3d</fix>
</trkpt>
<trkpt lat="-27.2720113" lon="151.2908507">
  <ele>428.8</ele>
  <time>2026-09-01T19:57:00Z</time>
  <course>24.03</course>
  <speed>4.976836344506418</speed>
  <fix>3d</fix>
</trkpt>
<trkpt lat="-27.2720077" lon="151.2908533">
  <ele>429.04</ele>
  <time>2026-09-01T19:57:00Z</time>
  <course>24.04</course>
  <speed>4.98220834570374</speed>
  <fix>3d</fix>
</trkpt>
<trkpt lat="-27.2720146" lon="151.2908481">
  <ele>428.31</ele>
  <time>2026-09-01T19:57:00Z</time>
  <course>32.24</course>
  <speed>4.99</speed>
  <fix>3d</fix>
</trkpt>
<trkpt lat="-27.2720076" lon="151.2908534">
  <ele>429.05</ele>
  <time>2026-09-01T19:57:00Z</time>
  <course>24.04</course>
  <speed>4.98220834570374</speed>
  <fix>3d</fix>
</trkpt>
<trkpt lat="-27.2720088" lon="151.2908671">
  <ele>343.0</ele>
  <time>2026-09-01T19:57:00Z</time>
  <course>32.73</course>
  <speed>4.992995093127972</speed>
  <fix>3d</fix>
</trkpt>
<trkpt lat="-27.2720039" lon="151.290856">
  <ele>429.29</ele>
  <time>2026-09-01T19:57:00Z</time>
  <course>24.04</course>
  <speed>4.973781257755512</speed>
  <fix>3d</fix>
</trkpt>
<trkpt lat="-27.2720146" lon="151.2908481">
  <ele>428.31</ele>
  <time>2026-09-01T19:57:00Z</time>
  <course>32.24</course>
  <speed>4.99</speed>
  <fix>3d</fix>
</trkpt>
<trkpt lat="-27.2720038" lon="151.290856">
  <ele>429.3</ele>
  <time>2026-09-01T19:57:00Z</time>
  <course>24.04</course>
  <speed>4.973781257755512</speed>
  <fix>3d</fix>
</trkpt>
<trkpt lat="-27.2720001" lon="151.2908587">
  <ele>429.54</ele>
  <time>2026-09-01T19:57:00Z</time>
  <course>24.04</course>
  <speed>4.979176638762678</speed>
  <fix>3d</fix>
</trkpt>
<trkpt lat="-27.272007" lon="151.2908536">
  <ele>428.81</ele>
  <time>2026-09-01T19:57:00Z</time>
  <course>32.35</course>
  <speed>4.99</speed>
  <fix>3d</fix>
</trkpt>
<trkpt lat="-27.272" lon="151.2908587">
  <ele>429.55</ele>
  <time>2026-09-01T19:57:00Z</time>
  <course>24.04</course>
  <speed>4.979176638762678</speed>
  <fix>3d</fix>
</trkpt>
<trkpt lat="-27.2720012" lon="151.2908725">
  <ele>343.0</ele>
  <time>2026-09-01T19:57:00Z</time>
  <course>32.84</course>
  <speed>4.998409747109574</speed>
  <fix>3d</fix>
</trkpt>
<trkpt lat="-27.2719963" lon="151.2908614">
  <ele>429.79</ele>
  <time>2026-09-01T19:57:00Z</time>
  <course>24.05</course>
  <speed>4.979176638762678</speed>
  <fix>3d</fix>
</trkpt>
<trkpt lat="-27.272007" lon="151.2908536">
  <ele>428.81</ele>
  <time>2026-09-01T19:57:00Z</time>
  <course>32.35</course>
  <speed>4.99</speed>
  <fix>3d</fix>
</trkpt>
<trkpt lat="-27.2719962" lon="151.2908615">
  <ele>429.8</ele>
  <time>2026-09-01T19:57:00Z</time>
  <course>24.05</course>
  <speed>4.979176638762678</speed>
  <fix>3d</fix>
</trkpt>
<trkpt lat="-27.2719926" lon="151.2908641">
  <ele>430.04</ele>
  <time>2026-09-01T19:57:00Z</time>
  <course>24.04</course>
  <speed>4.979176638762678</speed>
  <fix>3d</fix>
</trkpt>
<trkpt lat="-27.2719994" lon="151.290859">
  <ele>429.31</ele>
  <time>2026-09-01T19:57:00Z</time>
  <course>32.45</course>
  <speed>4.99</speed>
  <fix>3d</fix>
</trkpt>
<trkpt lat="-27.2719925" lon="151.2908642">
  <ele>430.05</ele>
  <time>2026-09-01T19:57:00Z</time>
  <course>24.04</course>
  <speed>4.979176638762678</speed>
  <fix>3d</fix>
</trkpt>
<trkpt lat="-27.2719936" lon="151.2908781">
  <ele>343.0</ele>
  <time>2026-09-01T19:57:00Z</time>
  <course>32.96</course>
  <speed>4.9954479278639266</speed>
  <fix>3d</fix>
</trkpt>
<trkpt lat="-27.2719888" lon="151.2908668">
  <ele>430.29</ele>
  <time>2026-09-01T19:57:00Z</time>
  <course>24.04</course>
  <speed>4.976183276367541</speed>
  <fix>3d</fix>
</trkpt>
<trkpt lat="-27.2719994" lon="151.290859">
  <ele>429.31</ele>
  <time>2026-09-01T19:57:00Z</time>
  <course>32.45</course>
  <speed>4.99</speed>
  <fix>3d</fix>
</trkpt>
<trkpt lat="-27.2719887" lon="151.2908669">
  <ele>430.3</ele>
  <time>2026-09-01T19:57:00Z</time>
  <course>24.04</course>
  <speed>4.976183276367541</speed>
  <fix>3d</fix>
</trkpt>
<trkpt lat="-27.271985" lon="151.2908695">
  <ele>430.54</ele>
  <time>2026-09-01T19:57:00Z</time>
  <course>24.05</course>
  <speed>4.976183276367541</speed>
  <fix>3d</fix>
</trkpt>
<trkpt lat="-27.2719918" lon="151.2908644">
  <ele>429.81</ele>
  <time>2026-09-01T19:57:00Z</time>
  <course>32.55</course>
  <speed>4.99</speed>
  <fix>3d</fix>
</trkpt>
<trkpt lat="-27.2719849" lon="151.2908696">
  <ele>430.55</ele>
  <time>2026-09-01T19:57:00Z</time>
  <course>24.05</course>
  <speed>4.976183276367541</speed>
  <fix>3d</fix>
</trkpt>
<trkpt lat="-27.2719861" lon="151.2908836">
  <ele>343.0</ele>
  <time>2026-09-01T19:57:00Z</time>
  <course>33.07</course>
  <speed>4.98706326408639</speed>
  <fix>3d</fix>
</trkpt>
<trkpt lat="-27.2719812" lon="151.2908723">
  <ele>430.8</ele>
  <time>2026-09-01T19:57:00Z</time>
  <course>24.04</course>
  <speed>4.981616203603004</speed>
  <fix>3d</fix>
</trkpt>
<trkpt lat="-27.2719918" lon="151.2908644">
  <ele>429.81</ele>
  <time>2026-09-01T19:57:00Z</time>
  <course>32.55</course>
  <speed>4.99</speed>
  <fix>3d</fix>
</trkpt>
<trkpt lat="-27.2719811" lon="151.2908724">
  <ele>430.81</ele>
  <time>2026-09-01T19:57:00Z</time>
  <course>24.04</course>
  <speed>4.981616203603004</speed>
  <fix>3d</fix>
</trkpt>
<trkpt lat="-27.2719774" lon="151.290875">
  <ele>431.05</ele>
  <time>2026-09-01T19:57:00Z</time>
  <course>24.04</course>
  <speed>4.981616203603004</speed>
  <fix>3d</fix>
</trkpt>
<trkpt lat="-27.2719843" lon="151.2908699">
  <ele>430.32</ele>
  <time>2026-09-01T19:57:00Z</time>
  <course>32.67</course>
  <speed>4.99</speed>
  <fix>3d</fix>
</trkpt>
<trkpt lat="-27.2719773" lon="151.2908751">
  <ele>431.06</ele>
  <time>2026-09-01T19:57:00Z</time>
  <course>24.04</course>
  <speed>4.981616203603004</speed>
  <fix>3d</fix>
</trkpt>
<trkpt lat="-27.2719786" lon="151.2908891">
  <ele>343.0</ele>
  <time>2026-09-01T19:57:00Z</time>
  <course>33.19</course>
  <speed>4.992524411557744</speed>
  <fix>3d</fix>
</trkpt>
<trkpt lat="-27.2719737" lon="151.2908777">
  <ele>431.3</ele>
  <time>2026-09-01T19:57:00Z</time>
  <course>24.03</course>
  <speed>4.98706326408639</speed>
  <fix>3d</fix>
</trkpt>
<trkpt lat="-27.2719843" lon="151.2908699">
  <ele>430.32</ele>
  <time>2026-09-01T19:57:00Z</time>
  <course>32.67</course>
  <speed>4.99</speed>
  <fix>3d</fix>
</trkpt>
<trkpt lat="-27.2719734" lon="151.2908779">
  <ele>431.31</ele>
  <time>2026-09-01T19:57:00Z</time>
  <course>24.03</course>
  <speed>4.98706326408639</speed>
  <fix>3d</fix>
</trkpt>
<trkpt lat="-27.2719699" lon="151.2908805">
  <ele>431.55</ele>
  <time>2026-09-01T19:57:00Z</time>
  <course>24.02</course>
  <speed>4.98706326408639</speed>
  <fix>3d</fix>
</trkpt>
<trkpt lat="-27.2719767" lon="151.2908753">
  <ele>430.82</ele>
  <time>2026-09-01T19:57:00Z</time>
  <course>32.78</course>
  <speed>4.99</speed>
  <fix>3d</fix>
</trkpt>
<trkpt lat="-27.2719698" lon="151.2908806">
  <ele>431.56</ele>
  <time>2026-09-01T19:57:00Z</time>
  <course>24.02</course>
  <speed>4.98706326408639</speed>
  <fix>3d</fix>
</trkpt>
<trkpt lat="-27.2719711" lon="151.2908946">
  <ele>343.0</ele>
  <time>2026-09-01T19:57:00Z</time>
  <course>33.3</course>
  <speed>4.989639265518099</speed>
  <fix>3d</fix>
</trkpt>
<trkpt lat="-27.2719661" lon="151.2908832">
  <ele>431.8</ele>
  <time>2026-09-01T19:57:00Z</time>
  <course>24.02</course>
  <speed>4.984154893259237</speed>
  <fix>3d</fix>
</trkpt>
<trkpt lat="-27.2719767" lon="151.2908753">
  <ele>430.82</ele>
  <time>2026-09-01T19:57:00Z</time>
  <course>32.78</course>
  <speed>4.99</speed>
  <fix>3d</fix>
</trkpt>
<trkpt lat="-27.271966" lon="151.2908833">
  <ele>431.81</ele>
  <time>2026-09-01T19:57:00Z</time>
  <course>24.02</course>
  <speed>4.984154893259237</speed>
  <fix>3d</fix>
</trkpt>
<trkpt lat="-27.2719623" lon="151.290886">
  <ele>432.05</ele>
  <time>2026-09-01T19:57:00Z</time>
  <course>24.03</course>
  <speed>4.984154893259237</speed>
  <fix>3d</fix>
</trkpt>
<trkpt lat="-27.2719692" lon="151.2908808">
  <ele>431.32</ele>
  <time>2026-09-01T19:57:00Z</time>
  <course>32.88</course>
  <speed>5.0</speed>
  <fix>3d</fix>
</trkpt>
<trkpt lat="-27.2719622" lon="151.2908861">
  <ele>432.06</ele>
  <time>2026-09-01T19:57:00Z</time>
  <course>24.03</course>
  <speed>4.984154893259237</speed>
  <fix>3d</fix>
</trkpt>
<trkpt lat="-27.2719636" lon="151.2909002">
  <ele>343.0</ele>
  <time>2026-09-01T19:57:00Z</time>
  <course>33.41</course>
  <speed>4.995137635741382</speed>
  <fix>3d</fix>
</trkpt>
<trkpt lat="-27.2719586" lon="151.2908887">
  <ele>432.3</ele>
  <time>2026-09-01T19:57:00Z</time>
  <course>24.03</course>
  <speed>4.984154893259237</speed>
  <fix>3d</fix>
</trkpt>
<trkpt lat="-27.2719692" lon="151.2908808">
  <ele>431.32</ele>
  <time>2026-09-01T19:57:00Z</time>
  <course>32.88</course>
  <speed>5.0</speed>
  <fix>3d</fix>
</trkpt>
<trkpt lat="-27.2719585" lon="151.2908888">
  <ele>432.31</ele>
  <time>2026-09-01T19:57:00Z</time>
  <course>24.03</course>
  <speed>4.984154893259237</speed>
  <fix>3d</fix>
</trkpt>
<trkpt lat="-27.2719548" lon="151.2908915">
  <ele>432.55</ele>
  <time>2026-09-01T19:57:00Z</time>
  <course>24.04</course>
  <speed>4.989639265518099</speed>
  <fix>3d</fix>
</trkpt>
<trkpt lat="-27.2719616" lon="151.2908863">
  <ele>431.82</ele>
  <time>2026-09-01T19:57:00Z</time>
  <course>32.98</course>
  <speed>5.0</speed>
  <fix>3d</fix>
</trkpt>
<trkpt lat="-27.2719547" lon="151.2908916">
  <ele>432.55</ele>
  <time>2026-09-01T19:57:00Z</time>
  <course>24.04</course>
  <speed>4.989639265518099</speed>
  <fix>3d</fix>
</trkpt>
<trkpt lat="-27.2719561" lon="151.2909057">
  <ele>343.0</ele>
  <time>2026-09-01T19:57:00Z</time>
  <course>33.53</course>
  <speed>4.9923140926828715</speed>
  <fix>3d</fix>
</trkpt>
<trkpt lat="-27.271951" lon="151.2908943">
  <ele>432.8</ele>
  <time>2026-09-01T19:57:00Z</time>
  <course>24.04</course>
  <speed>4.989639265518099</speed>
  <fix>3d</fix>
</trkpt>
<trkpt lat="-27.2719616" lon="151.2908863">
  <ele>431.82</ele>
  <time>2026-09-01T19:57:00Z</time>
  <course>32.98</course>
  <speed>5.0</speed>
  <fix>3d</fix>
</trkpt>
<trkpt lat="-27.2719509" lon="151.2908943">
  <ele>432.8</ele>
  <time>2026-09-01T19:57:00Z</time>
  <course>24.04</course>
  <speed>4.989639265518099</speed>
  <fix>3d</fix>
</trkpt>
<trkpt lat="-27.2719473" lon="151.290897">
  <ele>433.05</ele>
  <time>2026-09-01T19:57:00Z</time>
  <course>24.04</course>
  <speed>4.986792556343205</speed>
  <fix>3d</fix>
</trkpt>
<trkpt lat="-27.2719541" lon="151.2908918">
  <ele>432.32</ele>
  <time>2026-09-01T19:57:00Z</time>
  <course>33.09</course>
  <speed>5.0</speed>
  <fix>3d</fix>
</trkpt>
<trkpt lat="-27.2719472" lon="151.2908971">
  <ele>433.05</ele>
  <time>2026-09-01T19:57:00Z</time>
  <course>24.04</course>
  <speed>4.986792556343205</speed>
  <fix>3d</fix>
</trkpt>
<trkpt lat="-27.2719486" lon="151.2909113">
  <ele>343.0</ele>
  <time>2026-09-01T19:57:00Z</time>
  <course>33.64</course>
  <speed>4.997849537551126</speed>
  <fix>3d</fix>
</trkpt>
<trkpt lat="-27.2719435" lon="151.2908998">
  <ele>433.3</ele>
  <time>2026-09-01T19:57:00Z</time>
  <course>24.04</course>
  <speed>4.986792556343205</speed>
  <fix>3d</fix>
</trkpt>
<trkpt lat="-27.2719541" lon="151.2908918">
  <ele>432.32</ele>
  <time>2026-09-01T19:57:00Z</time>
  <course>33.09</course>
  <speed>5.0</speed>
  <fix>3d</fix>
</trkpt>
<trkpt lat="-27.2719434" lon="151.2908999">
  <ele>433.31</ele>
  <time>2026-09-01T19:57:00Z</time>
  <course>24.04</course>
  <speed>4.986792556343205</speed>
  <fix>3d</fix>
</trkpt>
<trkpt lat="-27.2719398" lon="151.2909026">
  <ele>433.55</ele>
  <time>2026-09-01T19:57:00Z</time>
  <course>24.04</course>
  <speed>4.9923140926828715</speed>
  <fix>3d</fix>
</trkpt>
<trkpt lat="-27.2719465" lon="151.2908974">
  <ele>432.82</ele>
  <time>2026-09-01T19:57:00Z</time>
  <course>33.21</course>
  <speed>5.0</speed>
  <fix>3d</fix>
</trkpt>
<trkpt lat="-27.2719396" lon="151.2909027">
  <ele>433.56</ele>
  <time>2026-09-01T19:57:00Z</time>
  <course>24.04</course>
  <speed>4.9923140926828715</speed>
  <fix>3d</fix>
</trkpt>
<trkpt lat="-27.2719411" lon="151.2909169">
  <ele>343.0</ele>
  <time>2026-09-01T19:57:00Z</time>
  <course>33.76</course>
  <speed>4.989529035891064</speed>
  <fix>3d</fix>
</trkpt>
<trkpt lat="-27.271936" lon="151.2909053">
  <ele>433.8</ele>
  <time>2026-09-01T19:57:00Z</time>
  <course>24.03</course>
  <speed>4.983984349895172</speed>
  <fix>3d</fix>
</trkpt>
<trkpt lat="-27.2719465" lon="151.2908974">
  <ele>432.82</ele>
  <time>2026-09-01T19:57:00Z</time>
  <course>33.21</course>
  <speed>5.0</speed>
  <fix>3d</fix>
</trkpt>
<trkpt lat="-27.2719359" lon="151.2909055">
  <ele>433.81</ele>
  <time>2026-09-01T19:57:00Z</time>
  <course>24.03</course>
  <speed>4.983984349895172</speed>
  <fix>3d</fix>
</trkpt>
<trkpt lat="-27.2719323" lon="151.2909081">
  <ele>434.05</ele>
  <time>2026-09-01T19:57:00Z</time>
  <course>24.02</course>
  <speed>4.989529035891064</speed>
  <fix>3d</fix>
</trkpt>
<trkpt lat="-27.271939" lon="151.2909029">
  <ele>433.32</ele>
  <time>2026-09-01T19:57:00Z</time>
  <course>33.34</course>
  <speed>5.0</speed>
  <fix>3d</fix>
</trkpt>
<trkpt lat="-27.271932" lon="151.2909083">
  <ele>434.07</ele>
  <time>2026-09-01T19:57:00Z</time>
  <course>24.02</course>
  <speed>4.989529035891064</speed>
  <fix>3d</fix>
</trkpt>
<trkpt lat="-27.2719337" lon="151.2909226">
  <ele>343.0</ele>
  <time>2026-09-01T19:57:00Z</time>
  <course>33.87</course>
  <speed>4.9950875868196745</speed>
  <fix>3d</fix>
</trkpt>
<trkpt lat="-27.2719285" lon="151.2909109">
  <ele>434.3</ele>
  <time>2026-09-01T19:57:00Z</time>
  <course>24.02</course>
  <speed>4.989529035891064</speed>
  <fix>3d</fix>
</trkpt>
<trkpt lat="-27.271939" lon="151.2909029">
  <ele>433.32</ele>
  <time>2026-09-01T19:57:00Z</time>
  <course>33.34</course>
  <speed>5.0</speed>
  <fix>3d</fix>
</trkpt>
<trkpt lat="-27.2719284" lon="151.290911">
  <ele>434.31</ele>
  <time>2026-09-01T19:57:00Z</time>
  <course>24.02</course>
  <speed>4.989529035891064</speed>
  <fix>3d</fix>
</trkpt>
<trkpt lat="-27.2719247" lon="151.2909138">
  <ele>434.56</ele>
  <time>2026-09-01T19:57:00Z</time>
  <course>24.03</course>
  <speed>4.981214711292819</speed>
  <fix>3d</fix>
</trkpt>
<trkpt lat="-27.2719315" lon="151.2909085">
  <ele>433.82</ele>
  <time>2026-09-01T19:57:00Z</time>
  <course>33.47</course>
  <speed>5.0</speed>
  <fix>3d</fix>
</trkpt>
<trkpt lat="-27.2719246" lon="151.2909138">
  <ele>434.57</ele>
  <time>2026-09-01T19:57:00Z</time>
  <course>24.03</course>
  <speed>4.981214711292819</speed>
  <fix>3d</fix>
</trkpt>
<trkpt lat="-27.2719263" lon="151.2909282">
  <ele>343.0</ele>
  <time>2026-09-01T19:57:00Z</time>
  <course>33.99</course>
  <speed>4.992364169409118</speed>
  <fix>3d</fix>
</trkpt>
<trkpt lat="-27.271921" lon="151.2909166">
  <ele>434.81</ele>
  <time>2026-09-01T19:57:00Z</time>
  <course>24.04</course>
  <speed>4.986782529848279</speed>
  <fix>3d</fix>
</trkpt>
<trkpt lat="-27.2719315" lon="151.2909085">
  <ele>433.82</ele>
  <time>2026-09-01T19:57:00Z</time>
  <course>33.47</course>
  <speed>5.0</speed>
  <fix>3d</fix>
</trkpt>
<trkpt lat="-27.2719209" lon="151.2909166">
  <ele>434.82</ele>
  <time>2026-09-01T19:57:00Z</time>
  <course>24.04</course>
  <speed>4.986782529848279</speed>
  <fix>3d</fix>
</trkpt>
<trkpt lat="-27.2719172" lon="151.2909194">
  <ele>435.06</ele>
  <time>2026-09-01T19:57:00Z</time>
  <course>24.05</course>
  <speed>4.986782529848279</speed>
  <fix>3d</fix>
</trkpt>
<trkpt lat="-27.271924" lon="151.2909141">
  <ele>434.32</ele>
  <time>2026-09-01T19:57:00Z</time>
  <course>33.58</course>
  <speed>5.0</speed>
  <fix>3d</fix>
</trkpt>
<trkpt lat="-27.2719171" lon="151.2909194">
  <ele>435.07</ele>
  <time>2026-09-01T19:57:00Z</time>
  <course>24.05</course>
  <speed>4.986782529848279</speed>
  <fix>3d</fix>
</trkpt>
<trkpt lat="-27.2719188" lon="151.2909339">
  <ele>343.0</ele>
  <time>2026-09-01T19:57:00Z</time>
  <course>34.1</course>
  <speed>4.99795958367012</speed>
  <fix>3d</fix>
</trkpt>
<trkpt lat="-27.2719135" lon="151.2909222">
  <ele>435.31</ele>
  <time>2026-09-01T19:57:00Z</time>
  <course>24.05</course>
  <speed>4.978483704904536</speed>
  <fix>3d</fix>
</trkpt>
<trkpt lat="-27.271924" lon="151.2909141">
  <ele>434.32</ele>
  <time>2026-09-01T19:57:00Z</time>
  <course>33.58</course>
  <speed>5.0</speed>
  <fix>3d</fix>
</trkpt>
<trkpt lat="-27.2719134" lon="151.2909222">
  <ele>435.32</ele>
  <time>2026-09-01T19:57:00Z</time>
  <course>24.05</course>
  <speed>4.978483704904536</speed>
  <fix>3d</fix>
</trkpt>
<trkpt lat="-27.2719098" lon="151.290925">
  <ele>435.56</ele>
  <time>2026-09-01T19:57:00Z</time>
  <course>24.06</course>
  <speed>4.984074638285426</speed>
  <fix>3d</fix>
</trkpt>
<trkpt lat="-27.2719165" lon="151.2909197">
  <ele>434.82</ele>
  <time>2026-09-01T19:57:00Z</time>
  <course>33.7</course>
  <speed>5.0</speed>
  <fix>3d</fix>
</trkpt>
<trkpt lat="-27.2719096" lon="151.2909251">
  <ele>435.57</ele>
  <time>2026-09-01T19:57:00Z</time>
  <course>24.06</course>
  <speed>4.984074638285426</speed>
  <fix>3d</fix>
</trkpt>
<trkpt lat="-27.2719114" lon="151.2909396">
  <ele>343.0</ele>
  <time>2026-09-01T19:57:00Z</time>
  <course>34.22</course>
  <speed>4.995297788921096</speed>
  <fix>3d</fix>
</trkpt>
<trkpt lat="-27.271906" lon="151.2909278">
  <ele>435.81</ele>
  <time>2026-09-01T19:57:00Z</time>
  <course>24.05</course>
  <speed>4.984074638285426</speed>
  <fix>3d</fix>
</trkpt>
<trkpt lat="-27.2719165" lon="151.2909197">
  <ele>434.82</ele>
  <time>2026-09-01T19:57:00Z</time>
  <course>33.7</course>
  <speed>5.0</speed>
  <fix>3d</fix>
</trkpt>
<trkpt lat="-27.2719059" lon="151.2909279">
  <ele>435.82</ele>
  <time>2026-09-01T19:57:00Z</time>
  <course>24.05</course>
  <speed>4.975791394341206</speed>
  <fix>3d</fix>
</trkpt>
<trkpt lat="-27.2719023" lon="151.2909306">
  <ele>436.06</ele>
  <time>2026-09-01T19:57:00Z</time>
  <course>24.04</course>
  <speed>4.981405424174989</speed>
  <fix>3d</fix>
</trkpt>
<trkpt lat="-27.271909" lon="151.2909253">
  <ele>435.32</ele>
  <time>2026-09-01T19:57:00Z</time>
  <course>33.81</course>
  <speed>5.0</speed>
  <fix>3d</fix>
</trkpt>
<trkpt lat="-27.2719022" lon="151.2909307">
  <ele>436.06</ele>
  <time>2026-09-01T19:57:00Z</time>
  <course>24.04</course>
  <speed>4.981405424174989</speed>
  <fix>3d</fix>
</trkpt>
<trkpt lat="-27.2719039" lon="151.2909452">
  <ele>343.0</ele>
  <time>2026-09-01T19:57:00Z</time>
  <course>34.33</course>
  <speed>4.992674633901151</speed>
  <fix>3d</fix>
</trkpt>
<trkpt lat="-27.2718986" lon="151.2909334">
  <ele>436.3</ele>
  <time>2026-09-01T19:57:00Z</time>
  <course>24.03</course>
  <speed>4.981405424174989</speed>
  <fix>3d</fix>
</trkpt>
<trkpt lat="-27.271909" lon="151.2909253">
  <ele>435.32</ele>
  <time>2026-09-01T19:57:00Z</time>
  <course>33.81</course>
  <speed>5.0</speed>
  <fix>3d</fix>
</trkpt>
<trkpt lat="-27.2718985" lon="151.2909335">
  <ele>436.31</ele>
  <time>2026-09-01T19:57:00Z</time>
  <course>24.03</course>
  <speed>4.981405424174989</speed>
  <fix>3d</fix>
</trkpt>
<trkpt lat="-27.2718949" lon="151.2909363">
  <ele>436.55</ele>
  <time>2026-09-01T19:57:00Z</time>
  <course>24.03</course>
  <speed>4.9787749497240785</speed>
  <fix>3d</fix>
</trkpt>
<trkpt lat="-27.2719016" lon="151.290931">
  <ele>435.82</ele>
  <time>2026-09-01T19:57:00Z</time>
  <course>33.95</course>
  <speed>4.99</speed>
  <fix>3d</fix>
</trkpt>
<trkpt lat="-27.2718947" lon="151.2909364">
  <ele>436.56</ele>
  <time>2026-09-01T19:57:00Z</time>
  <course>24.03</course>
  <speed>4.9787749497240785</speed>
  <fix>3d</fix>
</trkpt>
<trkpt lat="-27.2718965" lon="151.290951">
  <ele>343.0</ele>
  <time>2026-09-01T19:57:00Z</time>
  <course>34.44</course>
  <speed>4.992674633901151</speed>
  <fix>3d</fix>
</trkpt>
<trkpt lat="-27.2718911" lon="151.2909391">
  <ele>436.8</ele>
  <time>2026-09-01T19:57:00Z</time>
  <course>24.04</course>
  <speed>4.9787749497240785</speed>
  <fix>3d</fix>
</trkpt>
<trkpt lat="-27.2719016" lon="151.290931">
  <ele>435.82</ele>
  <time>2026-09-01T19:57:00Z</time>
  <course>33.95</course>
  <speed>4.99</speed>
  <fix>3d</fix>
</trkpt>
<trkpt lat="-27.271891" lon="151.2909392">
  <ele>436.81</ele>
  <time>2026-09-01T19:57:00Z</time>
  <course>24.04</course>
  <speed>4.9787749497240785</speed>
  <fix>3d</fix>
</trkpt>
<trkpt lat="-27.2718874" lon="151.2909419">
  <ele>437.05</ele>
  <time>2026-09-01T19:57:00Z</time>
  <course>24.04</course>
  <speed>4.9787749497240785</speed>
  <fix>3d</fix>
</trkpt>
<trkpt lat="-27.2718942" lon="151.2909366">
  <ele>436.32</ele>
  <time>2026-09-01T19:57:00Z</time>
  <course>34.08</course>
  <speed>4.99</speed>
  <fix>3d</fix>
</trkpt>
<trkpt lat="-27.2718873" lon="151.290942">
  <ele>437.06</ele>
  <time>2026-09-01T19:57:00Z</time>
  <course>24.04</course>
  <speed>4.9787749497240785</speed>
  <fix>3d</fix>
</trkpt>
<trkpt lat="-27.2718891" lon="151.2909567">
  <ele>343.0</ele>
  <time>2026-09-01T19:57:00Z</time>
  <course>34.56</course>
  <speed>4.990090179545857</speed>
  <fix>3d</fix>
</trkpt>
<trkpt lat="-27.2718837" lon="151.2909448">
  <ele>437.3</ele>
  <time>2026-09-01T19:57:00Z</time>
  <course>24.04</course>
  <speed>4.976183276367541</speed>
  <fix>3d</fix>
</trkpt>
<trkpt lat="-27.2718942" lon="151.2909366">
  <ele>436.32</ele>
  <time>2026-09-01T19:57:00Z</time>
  <course>34.08</course>
  <speed>4.99</speed>
  <fix>3d</fix>
</trkpt>
<trkpt lat="-27.2718836" lon="151.2909449">
  <ele>437.31</ele>
  <time>2026-09-01T19:57:00Z</time>
  <course>24.04</course>
  <speed>4.976183276367541</speed>
  <fix>3d</fix>
</trkpt>
<trkpt lat="-27.27188" lon="151.2909476">
  <ele>437.54</ele>
  <time>2026-09-01T19:57:00Z</time>
  <course>24.04</course>
  <speed>4.976183276367541</speed>
  <fix>3d</fix>
</trkpt>
<trkpt lat="-27.2718867" lon="151.2909422">
  <ele>436.82</ele>
  <time>2026-09-01T19:57:00Z</time>
  <course>34.21</course>
  <speed>4.99</speed>
  <fix>3d</fix>
</trkpt>
<trkpt lat="-27.2718799" lon="151.2909477">
  <ele>437.55</ele>
  <time>2026-09-01T19:57:00Z</time>
  <course>24.04</course>
  <speed>4.976183276367541</speed>
  <fix>3d</fix>
</trkpt>
<trkpt lat="-27.2718817" lon="151.2909624">
  <ele>343.0</ele>
  <time>2026-09-01T19:57:00Z</time>
  <course>34.67</course>
  <speed>4.995768209194658</speed>
  <fix>3d</fix>
</trkpt>
<trkpt lat="-27.2718763" lon="151.2909505">
  <ele>437.79</ele>
  <time>2026-09-01T19:57:00Z</time>
  <course>24.04</course>
  <speed>4.981857083457935</speed>
  <fix>3d</fix>
</trkpt>
<trkpt lat="-27.2718867" lon="151.2909422">
  <ele>436.82</ele>
  <time>2026-09-01T19:57:00Z</time>
  <course>34.21</course>
  <speed>4.99</speed>
  <fix>3d</fix>
</trkpt>
<trkpt lat="-27.2718762" lon="151.2909506">
  <ele>437.8</ele>
  <time>2026-09-01T19:57:00Z</time>
  <course>24.04</course>
  <speed>4.981857083457935</speed>
  <fix>3d</fix>
</trkpt>
<trkpt lat="-27.2718726" lon="151.2909533">
  <ele>438.04</ele>
  <time>2026-09-01T19:57:00Z</time>
  <course>24.05</course>
  <speed>4.981857083457935</speed>
  <fix>3d</fix>
</trkpt>
<trkpt lat="-27.2718793" lon="151.2909479">
  <ele>437.32</ele>
  <time>2026-09-01T19:57:00Z</time>
  <course>34.32</course>
  <speed>4.99</speed>
  <fix>3d</fix>
</trkpt>
<trkpt lat="-27.2718725" lon="151.2909534">
  <ele>438.05</ele>
  <time>2026-09-01T19:57:00Z</time>
  <course>24.05</course>
  <speed>4.981857083457935</speed>
  <fix>3d</fix>
</trkpt>
<trkpt lat="-27.2718744" lon="151.2909682">
  <ele>343.0</ele>
  <time>2026-09-01T19:57:00Z</time>
  <course>34.79</course>
  <speed>4.993245437588663</speed>
  <fix>3d</fix>
</trkpt>
<trkpt lat="-27.2718689" lon="151.2909562">
  <ele>438.29</ele>
  <time>2026-09-01T19:57:00Z</time>
  <course>24.06</course>
  <speed>4.973630464761128</speed>
  <fix>3d</fix>
</trkpt>
<trkpt lat="-27.2718793" lon="151.2909479">
  <ele>437.32</ele>
  <time>2026-09-01T19:57:00Z</time>
  <course>34.32</course>
  <speed>4.99</speed>
  <fix>3d</fix>
</trkpt>
<trkpt lat="-27.2718652" lon="151.290959">
  <ele>438.54</ele>
  <time>2026-09-01T19:57:00Z</time>
  <course>24.05</course>
  <speed>4.979327263797791</speed>
  <fix>3d</fix>
</trkpt>
<trkpt lat="-27.2718719" lon="151.2909536">
  <ele>437.82</ele>
  <time>2026-09-01T19:57:00Z</time>
  <course>34.43</course>
  <speed>4.99</speed>
  <fix>3d</fix>
</trkpt>
<trkpt lat="-27.271867" lon="151.2909739">
  <ele>343.0</ele>
  <time>2026-09-01T19:57:00Z</time>
  <course>34.9</course>
  <speed>4.998959891817497</speed>
  <fix>3d</fix>
</trkpt>
<trkpt lat="-27.2718616" lon="151.2909619">
  <ele>438.79</ele>
  <time>2026-09-01T19:57:00Z</time>
  <course>24.05</course>
  <speed>4.979327263797791</speed>
  <fix>3d</fix>
</trkpt>
<trkpt lat="-27.2718719" lon="151.2909536">
  <ele>437.82</ele>
  <time>2026-09-01T19:57:00Z</time>
  <course>34.43</course>
  <speed>4.99</speed>
  <fix>3d</fix>
</trkpt>
<trkpt lat="-27.2718579" lon="151.2909647">
  <ele>439.04</ele>
  <time>2026-09-01T19:57:00Z</time>
  <course>24.05</course>
  <speed>4.979327263797791</speed>
  <fix>3d</fix>
</trkpt>
<trkpt lat="-27.2718645" lon="151.2909594">
  <ele>438.32</ele>
  <time>2026-09-01T19:57:00Z</time>
  <course>34.54</course>
  <speed>4.99</speed>
  <fix>3d</fix>
</trkpt>
<trkpt lat="-27.2718596" lon="151.2909797">
  <ele>343.0</ele>
  <time>2026-09-01T19:57:00Z</time>
  <course>35.02</course>
  <speed>4.990761464947008</speed>
  <fix>3d</fix>
</trkpt>
<trkpt lat="-27.2718542" lon="151.2909676">
  <ele>439.29</ele>
  <time>2026-09-01T19:57:00Z</time>
  <course>24.04</course>
  <speed>4.976836344506418</speed>
  <fix>3d</fix>
</trkpt>
<trkpt lat="-27.2718645" lon="151.2909594">
  <ele>438.32</ele>
  <time>2026-09-01T19:57:00Z</time>
  <course>34.54</course>
  <speed>4.99</speed>
  <fix>3d</fix>
</trkpt>
<trkpt lat="-27.2718505" lon="151.2909705">
  <ele>439.54</ele>
  <time>2026-09-01T19:57:00Z</time>
  <course>24.04</course>
  <speed>4.976836344506418</speed>
  <fix>3d</fix>
</trkpt>
<trkpt lat="-27.2718571" lon="151.2909651">
  <ele>438.82</ele>
  <time>2026-09-01T19:57:00Z</time>
  <course>34.65</course>
  <speed>4.99</speed>
  <fix>3d</fix>
</trkpt>
<trkpt lat="-27.2718523" lon="151.2909855">
  <ele>343.0</ele>
  <time>2026-09-01T19:57:00Z</time>
  <course>35.13</course>
  <speed>4.98831634923047</speed>
  <fix>3d</fix>
</trkpt>
<trkpt lat="-27.2718468" lon="151.2909734">
  <ele>439.79</ele>
  <time>2026-09-01T19:57:00Z</time>
  <course>24.04</course>
  <speed>4.982569618178958</speed>
  <fix>3d</fix>
</trkpt>
<trkpt lat="-27.2718571" lon="151.2909651">
  <ele>438.82</ele>
  <time>2026-09-01T19:57:00Z</time>
  <course>34.65</course>
  <speed>4.99</speed>
  <fix>3d</fix>
</trkpt>
<trkpt lat="-27.2718431" lon="151.2909763">
  <ele>440.04</ele>
  <time>2026-09-01T19:57:00Z</time>
  <course>24.05</course>
  <speed>4.974384384021806</speed>
  <fix>3d</fix>
</trkpt>
<trkpt lat="-27.2718498" lon="151.2909709">
  <ele>439.32</ele>
  <time>2026-09-01T19:57:00Z</time>
  <course>34.77</course>
  <speed>4.99</speed>
  <fix>3d</fix>
</trkpt>
<trkpt lat="-27.2718449" lon="151.2909914">
  <ele>343.0</ele>
  <time>2026-09-01T19:57:00Z</time>
  <course>35.25</course>
  <speed>4.994076491204354</speed>
  <fix>3d</fix>
</trkpt>
<trkpt lat="-27.2718394" lon="151.2909792">
  <ele>440.29</ele>
  <time>2026-09-01T19:57:00Z</time>
  <course>24.05</course>
  <speed>4.980140560265343</speed>
  <fix>3d</fix>
</trkpt>
<trkpt lat="-27.2718498" lon="151.2909709">
  <ele>439.32</ele>
  <time>2026-09-01T19:57:00Z</time>
  <course>34.77</course>
  <speed>4.99</speed>
  <fix>3d</fix>
</trkpt>
<trkpt lat="-27.2718357" lon="151.290982">
  <ele>440.54</ele>
  <time>2026-09-01T19:57:00Z</time>
  <course>24.05</course>
  <speed>4.980140560265343</speed>
  <fix>3d</fix>
</trkpt>
<trkpt lat="-27.2718424" lon="151.2909766">
  <ele>439.82</ele>
  <time>2026-09-01T19:57:00Z</time>
  <course>34.89</course>
  <speed>4.99</speed>
  <fix>3d</fix>
</trkpt>
<trkpt lat="-27.2718376" lon="151.2909972">
  <ele>343.0</ele>
  <time>2026-09-01T19:57:00Z</time>
  <course>35.36</course>
  <speed>4.991693099540475</speed>
  <fix>3d</fix>
</trkpt>
<trkpt lat="-27.2718321" lon="151.2909849">
  <ele>440.79</ele>
  <time>2026-09-01T19:57:00Z</time>
  <course>24.05</course>
  <speed>4.980140560265343</speed>
  <fix>3d</fix>
</trkpt>
<trkpt lat="-27.2718424" lon="151.2909766">
  <ele>439.82</ele>
  <time>2026-09-01T19:57:00Z</time>
  <course>34.89</course>
  <speed>4.99</speed>
  <fix>3d</fix>
</trkpt>
<trkpt lat="-27.2718284" lon="151.2909878">
  <ele>441.04</ele>
  <time>2026-09-01T19:57:00Z</time>
  <course>24.06</course>
  <speed>4.977750495956984</speed>
  <fix>3d</fix>
</trkpt>
<trkpt lat="-27.271835" lon="151.2909824">
  <ele>440.33</ele>
  <time>2026-09-01T19:57:00Z</time>
  <course>35.0</course>
  <speed>4.99</speed>
  <fix>3d</fix>
</trkpt>
<trkpt lat="-27.2718303" lon="151.2910031">
  <ele>343.0</ele>
  <time>2026-09-01T19:57:00Z</time>
  <course>35.47</course>
  <speed>4.997489369673536</speed>
  <fix>3d</fix>
</trkpt>
<trkpt lat="-27.2718247" lon="151.2909908">
  <ele>441.3</ele>
  <time>2026-09-01T19:57:00Z</time>
  <course>24.07</course>
  <speed>4.977750495956984</speed>
  <fix>3d</fix>
</trkpt>
<trkpt lat="-27.271835" lon="151.2909824">
  <ele>440.33</ele>
  <time>2026-09-01T19:57:00Z</time>
  <course>35.0</course>
  <speed>4.99</speed>
  <fix>3d</fix>
</trkpt>
<trkpt lat="-27.271821" lon="151.2909937">
  <ele>441.54</ele>
  <time>2026-09-01T19:57:00Z</time>
  <course>24.07</course>
  <speed>4.9835429164400695</speed>
  <fix>3d</fix>
</trkpt>
<trkpt lat="-27.2718277" lon="151.2909882">
  <ele>440.83</ele>
  <time>2026-09-01T19:57:00Z</time>
  <course>35.11</course>
  <speed>4.99</speed>
  <fix>3d</fix>
</trkpt>
<trkpt lat="-27.271823" lon="151.291009">
  <ele>343.0</ele>
  <time>2026-09-01T19:57:00Z</time>
  <course>35.59</course>
  <speed>4.995167664853703</speed>
  <fix>3d</fix>
</trkpt>
<trkpt lat="-27.2718174" lon="151.2909966">
  <ele>441.79</ele>
  <time>2026-09-01T19:57:00Z</time>
  <course>24.07</course>
  <speed>4.975399481448701</speed>
  <fix>3d</fix>
</trkpt>
<trkpt lat="-27.2718277" lon="151.2909882">
  <ele>440.83</ele>
  <time>2026-09-01T19:57:00Z</time>
  <course>35.11</course>
  <speed>4.99</speed>
  <fix>3d</fix>
</trkpt>
<trkpt lat="-27.2718137" lon="151.2909995">
  <ele>442.04</ele>
  <time>2026-09-01T19:57:00Z</time>
  <course>24.06</course>
  <speed>4.981214711292819</speed>
  <fix>3d</fix>
</trkpt>
<trkpt lat="-27.2718203" lon="151.290994">
  <ele>441.33</ele>
  <time>2026-09-01T19:57:00Z</time>
  <course>35.22</course>
  <speed>4.99</speed>
  <fix>3d</fix>
</trkpt>
<trkpt lat="-27.2718157" lon="151.2910148">
  <ele>343.0</ele>
  <time>2026-09-01T19:57:00Z</time>
  <course>35.7</course>
  <speed>4.9870432121649</speed>
  <fix>3d</fix>
</trkpt>
<trkpt lat="-27.27181" lon="151.2910025">
  <ele>442.29</ele>
  <time>2026-09-01T19:57:00Z</time>
  <course>24.06</course>
  <speed>4.981214711292819</speed>
  <fix>3d</fix>
</trkpt>
<trkpt lat="-27.2718203" lon="151.290994">
  <ele>441.33</ele>
  <time>2026-09-01T19:57:00Z</time>
  <course>35.22</course>
  <speed>4.99</speed>
  <fix>3d</fix>
</trkpt>
<trkpt lat="-27.2718064" lon="151.2910054">
  <ele>442.54</ele>
  <time>2026-09-01T19:57:00Z</time>
  <course>24.07</course>
  <speed>4.9870432121649</speed>
  <fix>3d</fix>
</trkpt>
<trkpt lat="-27.271813" lon="151.2909999">
  <ele>441.84</ele>
  <time>2026-09-01T19:57:00Z</time>
  <course>35.35</course>
  <speed>5.0</speed>
  <fix>3d</fix>
</trkpt>
<trkpt lat="-27.2718084" lon="151.2910207">
  <ele>343.0</ele>
  <time>2026-09-01T19:57:00Z</time>
  <course>35.82</course>
  <speed>4.992884937588688</speed>
  <fix>3d</fix>
</trkpt>
<trkpt lat="-27.2718027" lon="151.2910083">
  <ele>442.79</ele>
  <time>2026-09-01T19:57:00Z</time>
  <course>24.07</course>
  <speed>4.9870432121649</speed>
  <fix>3d</fix>
</trkpt>
<trkpt lat="-27.271813" lon="151.2909999">
  <ele>441.84</ele>
  <time>2026-09-01T19:57:00Z</time>
  <course>35.35</course>
  <speed>5.0</speed>
  <fix>3d</fix>
</trkpt>
<trkpt lat="-27.271799" lon="151.2910113">
  <ele>443.03</ele>
  <time>2026-09-01T19:57:00Z</time>
  <course>24.07</course>
  <speed>4.984776825495802</speed>
  <fix>3d</fix>
</trkpt>
<trkpt lat="-27.2718057" lon="151.2910057">
  <ele>442.34</ele>
  <time>2026-09-01T19:57:00Z</time>
  <course>35.47</course>
  <speed>5.0</speed>
  <fix>3d</fix>
</trkpt>
<trkpt lat="-27.2718011" lon="151.2910267">
  <ele>343.0</ele>
  <time>2026-09-01T19:57:00Z</time>
  <course>35.93</course>
  <speed>4.9906412413636785</speed>
  <fix>3d</fix>
</trkpt>
<trkpt lat="-27.2717954" lon="151.2910142">
  <ele>443.28</ele>
  <time>2026-09-01T19:57:00Z</time>
  <course>24.07</course>
  <speed>4.984776825495802</speed>
  <fix>3d</fix>
</trkpt>
<trkpt lat="-27.2718057" lon="151.2910057">
  <ele>442.34</ele>
  <time>2026-09-01T19:57:00Z</time>
  <course>35.47</course>
  <speed>5.0</speed>
  <fix>3d</fix>
</trkpt>
<trkpt lat="-27.2717917" lon="151.2910172">
  <ele>443.53</ele>
  <time>2026-09-01T19:57:00Z</time>
  <course>24.13</course>
  <speed>4.99873984119998</speed>
  <fix>3d</fix>
</trkpt>
<trkpt lat="-27.2717983" lon="151.2910116">
  <ele>442.84</ele>
  <time>2026-09-01T19:57:00Z</time>
  <course>35.59</course>
  <speed>5.0</speed>
  <fix>3d</fix>
</trkpt>
<trkpt lat="-27.2717938" lon="151.2910326">
  <ele>343.0</ele>
  <time>2026-09-01T19:57:00Z</time>
  <course>36.05</course>
  <speed>4.996518788116382</speed>
  <fix>3d</fix>
</trkpt>
<trkpt lat="-27.271788" lon="151.2910202">
  <ele>443.78</ele>
  <time>2026-09-01T19:57:00Z</time>
  <course>24.47</course>
  <speed>5.0649481734762105</speed>
  <fix>3d</fix>
</trkpt>
<trkpt lat="-27.2717983" lon="151.2910116">
  <ele>442.84</ele>
  <time>2026-09-01T19:57:00Z</time>
  <course>35.59</course>
  <speed>5.0</speed>
  <fix>3d</fix>
</trkpt>
<trkpt lat="-27.2717843" lon="151.2910232">
  <ele>444.03</ele>
  <time>2026-09-01T19:57:00Z</time>
  <course>25.19</course>
  <speed>5.195122712698902</speed>
  <fix>3d</fix>
</trkpt>
<trkpt lat="-27.271791" lon="151.2910175">
  <ele>443.34</ele>
  <time>2026-09-01T19:57:00Z</time>
  <course>35.61</course>
  <speed>5.03</speed>
  <fix>3d</fix>
</trkpt>
<trkpt lat="-27.2717866" lon="151.2910386">
  <ele>343.0</ele>
  <time>2026-09-01T19:57:00Z</time>
  <course>36.16</course>
  <speed>4.994336792808431</speed>
  <fix>3d</fix>
</trkpt>
<trkpt lat="-27.2717804" lon="151.2910263">
  <ele>444.27</ele>
  <time>2026-09-01T19:57:00Z</time>
  <course>26.18</course>
  <speed>5.397378993548627</speed>
  <fix>3d</fix>
</trkpt>
<trkpt lat="-27.271791" lon="151.2910175">
  <ele>443.34</ele>
  <time>2026-09-01T19:57:00Z</time>
  <course>35.61</course>
  <speed>5.03</speed>
  <fix>3d</fix>
</trkpt>
<trkpt lat="-27.2717763" lon="151.2910295">
  <ele>444.5</ele>
  <time>2026-09-01T19:57:00Z</time>
  <course>27.18</course>
  <speed>5.677534676248133</speed>
  <fix>3d</fix>
</trkpt>
<trkpt lat="-27.2717836" lon="151.2910235">
  <ele>443.83</ele>
  <time>2026-09-01T19:57:00Z</time>
  <course>35.35</course>
  <speed>5.23</speed>
  <fix>3d</fix>
</trkpt>
<trkpt lat="-27.2717794" lon="151.2910445">
  <ele>343.0</ele>
  <time>2026-09-01T19:57:00Z</time>
  <course>36.28</course>
  <speed>4.994336792808431</speed>
  <fix>3d</fix>
</trkpt>
<trkpt lat="-27.271772" lon="151.291033">
  <ele>444.7</ele>
  <time>2026-09-01T19:57:01Z</time>
  <course>28.21</course>
  <speed>6.027445561761632</speed>
  <fix>3d</fix>
</trkpt>
<trkpt lat="-27.2717836" lon="151.2910235">
  <ele>443.83</ele>
  <time>2026-09-01T19:57:01Z</time>
  <course>35.35</course>
  <speed>5.23</speed>
  <fix>3d</fix>
</trkpt>
<trkpt lat="-27.2717674" lon="151.2910366">
  <ele>444.89</ele>
  <time>2026-09-01T19:57:01Z</time>
  <course>29.22</course>
  <speed>6.425083657042918</speed>
  <fix>3d</fix>
</trkpt>
<trkpt lat="-27.2717756" lon="151.2910298">
  <ele>444.29</ele>
  <time>2026-09-01T19:57:01Z</time>
  <course>35.03</course>
  <speed>5.71</speed>
  <fix>3d</fix>
</trkpt>
<trkpt lat="-27.2717721" lon="151.2910505">
  <ele>343.0</ele>
  <time>2026-09-01T19:57:01Z</time>
  <course>36.39</course>
  <speed>4.992193906490412</speed>
  <fix>3d</fix>
</trkpt>
<trkpt lat="-27.2717626" lon="151.2910406">
  <ele>445.05</ele>
  <time>2026-09-01T19:57:01Z</time>
  <course>30.18</course>
  <speed>6.876488929679157</speed>
  <fix>3d</fix>
</trkpt>
<trkpt lat="-27.2717756" lon="151.2910298">
  <ele>444.29</ele>
  <time>2026-09-01T19:57:01Z</time>
  <course>35.03</course>
  <speed>5.71</speed>
  <fix>3d</fix>
</trkpt>
<trkpt lat="-27.2717574" lon="151.2910448">
  <ele>445.19</ele>
  <time>2026-09-01T19:57:01Z</time>
  <course>30.99</course>
  <speed>7.384097778334195</speed>
  <fix>3d</fix>
</trkpt>
<trkpt lat="-27.2717666" lon="151.2910369">
  <ele>444.68</ele>
  <time>2026-09-01T19:57:01Z</time>
  <course>35.07</course>
  <speed>6.44</speed>
  <fix>3d</fix>
</trkpt>
<trkpt lat="-27.2717649" lon="151.2910565">
  <ele>343.0</ele>
  <time>2026-09-01T19:57:01Z</time>
  <course>36.51</course>
  <speed>4.990090179545857</speed>
  <fix>3d</fix>
</trkpt>
<trkpt lat="-27.2717518" lon="151.2910494">
  <ele>445.3</ele>
  <time>2026-09-01T19:57:01Z</time>
  <course>31.97</course>
  <speed>7.9400251888769215</speed>
  <fix>3d</fix>
</trkpt>
<trkpt lat="-27.2717666" lon="151.2910369">
  <ele>444.68</ele>
  <time>2026-09-01T19:57:01Z</time>
  <course>35.07</course>
  <speed>6.44</speed>
  <fix>3d</fix>
</trkpt>
<trkpt lat="-27.2717459" lon="151.2910544">
  <ele>445.38</ele>
  <time>2026-09-01T19:57:01Z</time>
  <course>32.83</course>
  <speed>8.534734910938944</speed>
  <fix>3d</fix>
</trkpt>
<trkpt lat="-27.2717565" lon="151.291045">
  <ele>444.97</ele>
  <time>2026-09-01T19:57:01Z</time>
  <course>35.6</course>
  <speed>7.39</speed>
  <fix>3d</fix>
</trkpt>
<trkpt lat="-27.2717576" lon="151.2910626">
  <ele>343.0</ele>
  <time>2026-09-01T19:57:01Z</time>
  <course>36.62</course>
  <speed>4.996048438516184</speed>
  <fix>3d</fix>
</trkpt>
<trkpt lat="-27.2717396" lon="151.2910598">
  <ele>445.44</ele>
  <time>2026-09-01T19:57:01Z</time>
  <course>33.75</course>
  <speed>9.134796111572497</speed>
  <fix>3d</fix>
</trkpt>
<trkpt lat="-27.2717565" lon="151.291045">
  <ele>444.97</ele>
  <time>2026-09-01T19:57:01Z</time>
  <course>35.6</course>
  <speed>7.39</speed>
  <fix>3d</fix>
</trkpt>
<trkpt lat="-27.2717329" lon="151.2910657">
  <ele>445.48</ele>
  <time>2026-09-01T19:57:01Z</time>
  <course>34.56</course>
  <speed>9.734438864156475</speed>
  <fix>3d</fix>
</trkpt>
<trkpt lat="-27.2717449" lon="151.2910544">
  <ele>445.16</ele>
  <time>2026-09-01T19:57:01Z</time>
  <course>36.61</course>
  <speed>8.52</speed>
  <fix>3d</fix>
</trkpt>
<trkpt lat="-27.2717504" lon="151.2910686">
  <ele>343.0</ele>
  <time>2026-09-01T19:57:01Z</time>
  <course>36.73</course>
  <speed>4.9940064076851165</speed>
  <fix>3d</fix>
</trkpt>
<trkpt lat="-27.2717259" lon="151.291072">
  <ele>445.49</ele>
  <time>2026-09-01T19:57:01Z</time>
  <course>35.63</course>
  <speed>10.324901936580318</speed>
  <fix>3d</fix>
</trkpt>
<trkpt lat="-27.2717449" lon="151.2910544">
  <ele>445.16</ele>
  <time>2026-09-01T19:57:01Z</time>
  <course>36.61</course>
  <speed>8.52</speed>
  <fix>3d</fix>
</trkpt>
<trkpt lat="-27.2717185" lon="151.2910788">
  <ele>445.5</ele>
  <time>2026-09-01T19:57:01Z</time>
  <course>36.85</course>
  <speed>10.906190902418679</speed>
  <fix>3d</fix>
</trkpt>
<trkpt lat="-27.2717319" lon="151.2910656">
  <ele>445.26</ele>
  <time>2026-09-01T19:57:01Z</time>
  <course>38.08</course>
  <speed>9.72</speed>
  <fix>3d</fix>
</trkpt>
<trkpt lat="-27.2717433" lon="151.2910747">
  <ele>343.0</ele>
  <time>2026-09-01T19:57:01Z</time>
  <course>36.85</course>
  <speed>4.9940064076851165</speed>
  <fix>3d</fix>
</trkpt>
<trkpt lat="-27.2717109" lon="151.2910861">
  <ele>445.49</ele>
  <time>2026-09-01T19:57:01Z</time>
  <course>38.19</course>
  <speed>11.473587058980291</speed>
  <fix>3d</fix>
</trkpt>
<trkpt lat="-27.2717319" lon="151.2910656">
  <ele>445.26</ele>
  <time>2026-09-01T19:57:01Z</time>
  <course>38.08</course>
  <speed>9.72</speed>
  <fix>3d</fix>
</trkpt>
<trkpt lat="-27.271703" lon="151.2910939">
  <ele>445.47</ele>
  <time>2026-09-01T19:57:01Z</time>
  <course>39.64</course>
  <speed>12.029330820955918</speed>
  <fix>3d</fix>
</trkpt>
<trkpt lat="-27.2717175" lon="151.2910787">
  <ele>445.28</ele>
  <time>2026-09-01T19:57:01Z</time>
  <course>40.06</course>
  <speed>10.89</speed>
  <fix>3d</fix>
</trkpt>
<trkpt lat="-27.2717361" lon="151.2910807">
  <ele>343.0</ele>
  <time>2026-09-01T19:57:01Z</time>
  <course>36.96</course>
  <speed>4.992003605767929</speed>
  <fix>3d</fix>
</trkpt>
<trkpt lat="-27.2716949" lon="151.2911023">
  <ele>445.44</ele>
  <time>2026-09-01T19:57:01Z</time>
  <course>41.14</course>
  <speed>12.573917448432688</speed>
  <fix>3d</fix>
</trkpt>
<trkpt lat="-27.2717175" lon="151.2910787">
  <ele>445.28</ele>
  <time>2026-09-01T19:57:01Z</time>
  <course>40.06</course>
  <speed>10.89</speed>
  <fix>3d</fix>
</trkpt>
<trkpt lat="-27.2716867" lon="151.2911113">
  <ele>445.42</ele>
  <time>2026-09-01T19:57:01Z</time>
  <course>42.61</course>
  <speed>13.102919521999668</speed>
  <fix>3d</fix>
</trkpt>
<trkpt lat="-27.271702" lon="151.2910941">
  <ele>445.26</ele>
  <time>2026-09-01T19:57:01Z</time>
  <course>42.46</course>
  <speed>12.02</speed>
  <fix>3d</fix>
</trkpt>
<trkpt lat="-27.2717289" lon="151.2910868">
  <ele>343.0</ele>
  <time>2026-09-01T19:57:01Z</time>
  <course>37.08</course>
  <speed>4.990040079999358</speed>
  <fix>3d</fix>
</trkpt>
<trkpt lat="-27.2716782" lon="151.291121">
  <ele>445.39</ele>
  <time>2026-09-01T19:57:01Z</time>
  <course>44.14</course>
  <speed>13.624632105124896</speed>
  <fix>3d</fix>
</trkpt>
<trkpt lat="-27.271702" lon="151.2910941">
  <ele>445.26</ele>
  <time>2026-09-01T19:57:01Z</time>
  <course>42.46</course>
  <speed>12.02</speed>
  <fix>3d</fix>
</trkpt>
<trkpt lat="-27.2716697" lon="151.2911312">
  <ele>445.36</ele>
  <time>2026-09-01T19:57:01Z</time>
  <course>45.66</course>
  <speed>14.132268041613136</speed>
  <fix>3d</fix>
</trkpt>
<trkpt lat="-27.2716857" lon="151.2911116">
  <ele>445.21</ele>
  <time>2026-09-01T19:57:01Z</time>
  <course>45.09</course>
  <speed>13.1</speed>
  <fix>3d</fix>
</trkpt>
<trkpt lat="-27.2717217" lon="151.2910929">
  <ele>343.0</ele>
  <time>2026-09-01T19:57:01Z</time>
  <course>37.19</course>
  <speed>4.996078462154092</speed>
  <fix>3d</fix>
</trkpt>
<trkpt lat="-27.2716611" lon="151.291142">
  <ele>445.33</ele>
  <time>2026-09-01T19:57:01Z</time>
  <course>47.29</course>
  <speed>14.62114906565144</speed>
  <fix>3d</fix>
</trkpt>
<trkpt lat="-27.2716857" lon="151.2911116">
  <ele>445.21</ele>
  <time>2026-09-01T19:57:01Z</time>
  <course>45.09</course>
  <speed>13.1</speed>
  <fix>3d</fix>
</trkpt>
<trkpt lat="-27.2716525" lon="151.2911534">
  <ele>445.31</ele>
  <time>2026-09-01T19:57:01Z</time>
  <course>48.97</course>
  <speed>15.098519794999772</speed>
  <fix>3d</fix>
</trkpt>
<trkpt lat="-27.2716689" lon="151.2911316">
  <ele>445.16</ele>
  <time>2026-09-01T19:57:01Z</time>
  <course>47.8</course>
  <speed>14.13</speed>
  <fix>3d</fix>
</trkpt>
<trkpt lat="-27.2717146" lon="151.291099">
  <ele>343.0</ele>
  <time>2026-09-01T19:57:01Z</time>
  <course>37.31</course>
  <speed>4.9941766088115065</speed>
  <fix>3d</fix>
</trkpt>
<trkpt lat="-27.2716439" lon="151.2911653">
  <ele>445.28</ele>
  <time>2026-09-01T19:57:01Z</time>
  <course>50.48</course>
  <speed>15.563498963921964</speed>
  <fix>3d</fix>
</trkpt>
<trkpt lat="-27.2716689" lon="151.2911316">
  <ele>445.16</ele>
  <time>2026-09-01T19:57:01Z</time>
  <course>47.8</course>
  <speed>14.13</speed>
  <fix>3d</fix>
</trkpt>
<trkpt lat="-27.2716352" lon="151.2911779">
  <ele>445.25</ele>
  <time>2026-09-01T19:57:01Z</time>
  <course>51.87</course>
  <speed>16.012036097885865</speed>
  <fix>3d</fix>
</trkpt>
<trkpt lat="-27.2716517" lon="151.291154">
  <ele>445.11</ele>
  <time>2026-09-01T19:57:01Z</time>
  <course>50.51</course>
  <speed>15.1</speed>
  <fix>3d</fix>
</trkpt>
<trkpt lat="-27.2717075" lon="151.2911051">
  <ele>343.0</ele>
  <time>2026-09-01T19:57:01Z</time>
  <course>37.42</course>
  <speed>4.9941766088115065</speed>
  <fix>3d</fix>
</trkpt>
<trkpt lat="-27.2716266" lon="151.2911911">
  <ele>445.23</ele>
  <time>2026-09-01T19:57:01Z</time>
  <course>53.19</course>
  <speed>16.459565607876776</speed>
  <fix>3d</fix>
</trkpt>
<trkpt lat="-27.2716517" lon="151.291154">
  <ele>445.11</ele>
  <time>2026-09-01T19:57:01Z</time>
  <course>50.51</course>
  <speed>15.1</speed>
  <fix>3d</fix>
</trkpt>
<trkpt lat="-27.2716181" lon="151.2912049">
  <ele>445.22</ele>
  <time>2026-09-01T19:57:01Z</time>
  <course>54.51</course>
  <speed>16.89359937964672</speed>
  <fix>3d</fix>
</trkpt>
<trkpt lat="-27.2716344" lon="151.2911787">
  <ele>445.07</ele>
  <time>2026-09-01T19:57:01Z</time>
  <course>53.25</course>
  <speed>16.03</speed>
  <fix>3d</fix>
</trkpt>
<trkpt lat="-27.2717003" lon="151.2911113">
  <ele>343.0</ele>
  <time>2026-09-01T19:57:01Z</time>
  <course>37.54</course>
  <speed>4.9923140926828715</speed>
  <fix>3d</fix>
</trkpt>
<trkpt lat="-27.2716095" lon="151.2912195">
  <ele>445.21</ele>
  <time>2026-09-01T19:57:01Z</time>
  <course>55.85</course>
  <speed>17.304300043630775</speed>
  <fix>3d</fix>
</trkpt>
<trkpt lat="-27.2716344" lon="151.2911787">
  <ele>445.07</ele>
  <time>2026-09-01T19:57:01Z</time>
  <course>53.25</course>
  <speed>16.03</speed>
  <fix>3d</fix>
</trkpt>
<trkpt lat="-27.2716013" lon="151.2912343">
  <ele>445.22</ele>
  <time>2026-09-01T19:57:01Z</time>
  <course>57.03</course>
  <speed>17.644035819505696</speed>
  <fix>3d</fix>
</trkpt>
<trkpt lat="-27.2716173" lon="151.2912059">
  <ele>445.04</ele>
  <time>2026-09-01T19:57:01Z</time>
  <course>56.03</course>
  <speed>16.9</speed>
  <fix>3d</fix>
</trkpt>
<trkpt lat="-27.2716932" lon="151.2911175">
  <ele>343.0</ele>
  <time>2026-09-01T19:57:01Z</time>
  <course>37.65</course>
  <speed>4.990490957811666</speed>
  <fix>3d</fix>
</trkpt>
<trkpt lat="-27.2715931" lon="151.2912497">
  <ele>445.23</ele>
  <time>2026-09-01T19:57:01Z</time>
  <course>58.17</course>
  <speed>17.92571616421503</speed>
  <fix>3d</fix>
</trkpt>
<trkpt lat="-27.2716173" lon="151.2912059">
  <ele>445.04</ele>
  <time>2026-09-01T19:57:01Z</time>
  <course>56.03</course>
  <speed>16.9</speed>
  <fix>3d</fix>
</trkpt>
<trkpt lat="-27.2715852" lon="151.2912654">
  <ele>445.25</ele>
  <time>2026-09-01T19:57:01Z</time>
  <course>59.21</course>
  <speed>18.13504066717249</speed>
  <fix>3d</fix>
</trkpt>
<trkpt lat="-27.2716006" lon="151.2912353">
  <ele>445.05</ele>
  <time>2026-09-01T19:57:01Z</time>
  <course>58.73</course>
  <speed>17.65</speed>
  <fix>3d</fix>
</trkpt>
<trkpt lat="-27.2716861" lon="151.2911237">
  <ele>343.0</ele>
  <time>2026-09-01T19:57:01Z</time>
  <course>37.76</course>
  <speed>4.996608850010174</speed>
  <fix>3d</fix>
</trkpt>
<trkpt lat="-27.2715775" lon="151.2912815">
  <ele>445.26</ele>
  <time>2026-09-01T19:57:01Z</time>
  <course>60.19</course>
  <speed>18.285680189700354</speed>
  <fix>3d</fix>
</trkpt>
<trkpt lat="-27.2716006" lon="151.2912353">
  <ele>445.05</ele>
  <time>2026-09-01T19:57:01Z</time>
  <course>58.73</course>
  <speed>17.65</speed>
  <fix>3d</fix>
</trkpt>
<trkpt lat="-27.27157" lon="151.2912979">
  <ele>445.27</ele>
  <time>2026-09-01T19:57:01Z</time>
  <course>61.27</course>
  <speed>18.37601153678349</speed>
  <fix>3d</fix>
</trkpt>
<trkpt lat="-27.2715845" lon="151.2912668">
  <ele>445.08</ele>
  <time>2026-09-01T19:57:01Z</time>
  <course>61.2</course>
  <speed>18.15</speed>
  <fix>3d</fix>
</trkpt>
<trkpt lat="-27.271679" lon="151.2911299">
  <ele>343.0</ele>
  <time>2026-09-01T19:57:01Z</time>
  <course>37.88</course>
  <speed>4.9948473450146595</speed>
  <fix>3d</fix>
</trkpt>
<trkpt lat="-27.2715627" lon="151.2913145">
  <ele>445.27</ele>
  <time>2026-09-01T19:57:01Z</time>
  <course>62.41</course>
  <speed>18.44158615737811</speed>
  <fix>3d</fix>
</trkpt>
<trkpt lat="-27.2715845" lon="151.2912668">
  <ele>445.08</ele>
  <time>2026-09-01T19:57:01Z</time>
  <course>61.2</course>
  <speed>18.15</speed>
  <fix>3d</fix>
</trkpt>
<trkpt lat="-27.2715557" lon="151.2913313">
  <ele>445.25</ele>
  <time>2026-09-01T19:57:01Z</time>
  <course>63.65</course>
  <speed>18.505269519788143</speed>
  <fix>3d</fix>
</trkpt>
<trkpt lat="-27.2715692" lon="151.2912996">
  <ele>445.1</ele>
  <time>2026-09-01T19:57:01Z</time>
  <course>63.45</course>
  <speed>18.43</speed>
  <fix>3d</fix>
</trkpt>
<trkpt lat="-27.2716719" lon="151.2911361">
  <ele>343.0</ele>
  <time>2026-09-01T19:57:01Z</time>
  <course>37.99</course>
  <speed>4.9948473450146595</speed>
  <fix>3d</fix>
</trkpt>
<trkpt lat="-27.271549" lon="151.2913483">
  <ele>445.23</ele>
  <time>2026-09-01T19:57:01Z</time>
  <course>64.95</course>
  <speed>18.568050516949807</speed>
  <fix>3d</fix>
</trkpt>
<trkpt lat="-27.2715692" lon="151.2912996">
  <ele>445.1</ele>
  <time>2026-09-01T19:57:01Z</time>
  <course>63.45</course>
  <speed>18.43</speed>
  <fix>3d</fix>
</trkpt>
<trkpt lat="-27.2715426" lon="151.2913656">
  <ele>445.19</ele>
  <time>2026-09-01T19:57:01Z</time>
  <course>66.34</course>
  <speed>18.645763593910548</speed>
  <fix>3d</fix>
</trkpt>
<trkpt lat="-27.2715549" lon="151.2913333">
  <ele>445.09</ele>
  <time>2026-09-01T19:57:01Z</time>
  <course>65.67</course>
  <speed>18.59</speed>
  <fix>3d</fix>
</trkpt>
<trkpt lat="-27.2716648" lon="151.2911423">
  <ele>343.0</ele>
  <time>2026-09-01T19:57:01Z</time>
  <course>38.11</course>
  <speed>4.993125273813987</speed>
  <fix>3d</fix>
</trkpt>
<trkpt lat="-27.2715365" lon="151.2913832">
  <ele>445.15</ele>
  <time>2026-09-01T19:57:01Z</time>
  <course>67.83</course>
  <speed>18.727760143701115</speed>
  <fix>3d</fix>
</trkpt>
<trkpt lat="-27.2715549" lon="151.2913333">
  <ele>445.09</ele>
  <time>2026-09-01T19:57:01Z</time>
  <course>65.67</course>
  <speed>18.59</speed>
  <fix>3d</fix>
</trkpt>
<trkpt lat="-27.2715308" lon="151.291401">
  <ele>445.09</ele>
  <time>2026-09-01T19:57:01Z</time>
  <course>69.42</course>
  <speed>18.804132524527688</speed>
  <fix>3d</fix>
</trkpt>
<trkpt lat="-27.2715417" lon="151.2913681">
  <ele>445.03</ele>
  <time>2026-09-01T19:57:01Z</time>
  <course>68.13</course>
  <speed>18.74</speed>
  <fix>3d</fix>
</trkpt>
<trkpt lat="-27.2716578" lon="151.2911485">
  <ele>343.0</ele>
  <time>2026-09-01T19:57:01Z</time>
  <course>38.22</course>
  <speed>4.991442677222689</speed>
  <fix>3d</fix>
</trkpt>
<trkpt lat="-27.2715255" lon="151.291419">
  <ele>445.02</ele>
  <time>2026-09-01T19:57:01Z</time>
  <course>71.15</course>
  <speed>18.884991395285304</speed>
  <fix>3d</fix>
</trkpt>
<trkpt lat="-27.2715417" lon="151.2913681">
  <ele>445.03</ele>
  <time>2026-09-01T19:57:01Z</time>
  <course>68.13</course>
  <speed>18.74</speed>
  <fix>3d</fix>
</trkpt>
<trkpt lat="-27.2715206" lon="151.2914373">
  <ele>444.95</ele>
  <time>2026-09-01T19:57:01Z</time>
  <course>73.01</course>
  <speed>18.968471208824393</speed>
  <fix>3d</fix>
</trkpt>
<trkpt lat="-27.2715299" lon="151.2914037">
  <ele>444.94</ele>
  <time>2026-09-01T19:57:01Z</time>
  <course>71.02</course>
  <speed>18.9</speed>
  <fix>3d</fix>
</trkpt>
<trkpt lat="-27.2716508" lon="151.2911548">
  <ele>343.0</ele>
  <time>2026-09-01T19:57:01Z</time>
  <course>38.34</course>
  <speed>4.9976394427769595</speed>
  <fix>3d</fix>
</trkpt>
<trkpt lat="-27.2715163" lon="151.2914559">
  <ele>444.87</ele>
  <time>2026-09-01T19:57:01Z</time>
  <course>75.03</course>
  <speed>19.04678975575674</speed>
  <fix>3d</fix>
</trkpt>
<trkpt lat="-27.2715299" lon="151.2914037">
  <ele>444.94</ele>
  <time>2026-09-01T19:57:01Z</time>
  <course>71.02</course>
  <speed>18.9</speed>
  <fix>3d</fix>
</trkpt>
<trkpt lat="-27.2715125" lon="151.2914748">
  <ele>444.78</ele>
  <time>2026-09-01T19:57:01Z</time>
  <course>77.17</course>
  <speed>19.137173249986528</speed>
  <fix>3d</fix>
</trkpt>
<trkpt lat="-27.2715198" lon="151.2914404">
  <ele>444.8</ele>
  <time>2026-09-01T19:57:01Z</time>
  <course>74.47</course>
  <speed>19.07</speed>
  <fix>3d</fix>
</trkpt>
<trkpt lat="-27.2716437" lon="151.2911611">
  <ele>343.0</ele>
  <time>2026-09-01T19:57:01Z</time>
  <course>38.45</course>
  <speed>4.989799595174139</speed>
  <fix>3d</fix>
</trkpt>
<trkpt lat="-27.2715093" lon="151.2914938">
  <ele>444.69</ele>
  <time>2026-09-01T19:57:01Z</time>
  <course>79.44</course>
  <speed>19.22162584174398</speed>
  <fix>3d</fix>
</trkpt>
<trkpt lat="-27.2715198" lon="151.2914404">
  <ele>444.8</ele>
  <time>2026-09-01T19:57:01Z</time>
  <course>74.47</course>
  <speed>19.07</speed>
  <fix>3d</fix>
</trkpt>
<trkpt lat="-27.2715069" lon="151.2915131">
  <ele>444.6</ele>
  <time>2026-09-01T19:57:01Z</time>
  <course>81.78</course>
  <speed>19.29874866409737</speed>
  <fix>3d</fix>
</trkpt>
<trkpt lat="-27.2715117" lon="151.2914779">
  <ele>444.65</ele>
  <time>2026-09-01T19:57:01Z</time>
  <course>78.51</course>
  <speed>19.23</speed>
  <fix>3d</fix>
</trkpt>
<trkpt lat="-27.2716367" lon="151.2911674">
  <ele>343.0</ele>
  <time>2026-09-01T19:57:01Z</time>
  <course>38.57</course>
  <speed>4.988196066715902</speed>
  <fix>3d</fix>
</trkpt>
<trkpt lat="-27.2715051" lon="151.2915326">
  <ele>444.5</ele>
  <time>2026-09-01T19:57:01Z</time>
  <course>84.26</course>
  <speed>19.376604449696547</speed>
  <fix>3d</fix>
</trkpt>
<trkpt lat="-27.2715117" lon="151.2914779">
  <ele>444.65</ele>
  <time>2026-09-01T19:57:01Z</time>
  <course>78.51</course>
  <speed>19.23</speed>
  <fix>3d</fix>
</trkpt>
<trkpt lat="-27.2715041" lon="151.2915522">
  <ele>444.41</ele>
  <time>2026-09-01T19:57:01Z</time>
  <course>86.77</course>
  <speed>19.459563201675415</speed>
  <fix>3d</fix>
</trkpt>
<trkpt lat="-27.2715062" lon="151.2915165">
  <ele>444.48</ele>
  <time>2026-09-01T19:57:01Z</time>
  <course>83.12</course>
  <speed>19.38</speed>
  <fix>3d</fix>
</trkpt>
<trkpt lat="-27.2716296" lon="151.2911737">
  <ele>343.0</ele>
  <time>2026-09-01T19:57:01Z</time>
  <course>38.68</course>
  <speed>4.994436905197622</speed>
  <fix>3d</fix>
</trkpt>
<trkpt lat="-27.2715039" lon="151.2915719">
  <ele>444.31</ele>
  <time>2026-09-01T19:57:01Z</time>
  <course>89.32</course>
  <speed>19.541865315266094</speed>
  <fix>3d</fix>
</trkpt>
<trkpt lat="-27.2715062" lon="151.2915165">
  <ele>444.48</ele>
  <time>2026-09-01T19:57:01Z</time>
  <course>83.12</course>
  <speed>19.38</speed>
  <fix>3d</fix>
</trkpt>
<trkpt lat="-27.2715045" lon="151.2915919">
  <ele>444.21</ele>
  <time>2026-09-01T19:57:01Z</time>
  <course>91.92</course>
  <speed>19.626110159682685</speed>
  <fix>3d</fix>
</trkpt>
<trkpt lat="-27.2715035" lon="151.2915557">
  <ele>444.3</ele>
  <time>2026-09-01T19:57:01Z</time>
  <course>88.15</course>
  <speed>19.53</speed>
  <fix>3d</fix>
</trkpt>
<trkpt lat="-27.2716226" lon="151.29118">
  <ele>343.0</ele>
  <time>2026-09-01T19:57:01Z</time>
  <course>38.79</course>
  <speed>4.992894951829049</speed>
  <fix>3d</fix>
</trkpt>
<trkpt lat="-27.2715059" lon="151.2916118">
  <ele>444.11</ele>
  <time>2026-09-01T19:57:01Z</time>
  <course>94.52</course>
  <speed>19.71431966870782</speed>
  <fix>3d</fix>
</trkpt>
<trkpt lat="-27.2715035" lon="151.2915557">
  <ele>444.3</ele>
  <time>2026-09-01T19:57:01Z</time>
  <course>88.15</course>
  <speed>19.53</speed>
  <fix>3d</fix>
</trkpt>
<trkpt lat="-27.271508" lon="151.2916316">
  <ele>444.01</ele>
  <time>2026-09-01T19:57:01Z</time>
  <course>97.15</course>
  <speed>19.796365828100875</speed>
  <fix>3d</fix>
</trkpt>
<trkpt lat="-27.271504" lon="151.2915952">
  <ele>444.11</ele>
  <time>2026-09-01T19:57:01Z</time>
  <course>93.42</course>
  <speed>19.69</speed>
  <fix>3d</fix>
</trkpt>
<trkpt lat="-27.2716156" lon="151.2911864">
  <ele>343.0</ele>
  <time>2026-09-01T19:57:01Z</time>
  <course>38.91</course>
  <speed>4.999169931098562</speed>
  <fix>3d</fix>
</trkpt>
<trkpt lat="-27.2715111" lon="151.2916513">
  <ele>443.9</ele>
  <time>2026-09-01T19:57:01Z</time>
  <course>99.84</course>
  <speed>19.884428581178792</speed>
  <fix>3d</fix>
</trkpt>
<trkpt lat="-27.271504" lon="151.2915952">
  <ele>444.11</ele>
  <time>2026-09-01T19:57:01Z</time>
  <course>93.42</course>
  <speed>19.69</speed>
  <fix>3d</fix>
</trkpt>
<trkpt lat="-27.271515" lon="151.291671">
  <ele>443.8</ele>
  <time>2026-09-01T19:57:01Z</time>
  <course>102.58</course>
  <speed>19.980320317752668</speed>
  <fix>3d</fix>
</trkpt>
<trkpt lat="-27.2715077" lon="151.2916351">
  <ele>443.91</ele>
  <time>2026-09-01T19:57:01Z</time>
  <course>98.82</course>
  <speed>19.85</speed>
  <fix>3d</fix>
</trkpt>
<trkpt lat="-27.2716087" lon="151.2911927">
  <ele>343.0</ele>
  <time>2026-09-01T19:57:01Z</time>
  <course>39.02</course>
  <speed>4.991392591251463</speed>
  <fix>3d</fix>
</trkpt>
<trkpt lat="-27.2715197" lon="151.2916905">
  <ele>443.68</ele>
  <time>2026-09-01T19:57:01Z</time>
  <course>105.33</course>
  <speed>20.07650617014823</speed>
  <fix>3d</fix>
</trkpt>
<trkpt lat="-27.2715077" lon="151.2916351">
  <ele>443.91</ele>
  <time>2026-09-01T19:57:01Z</time>
  <course>98.82</course>
  <speed>19.85</speed>
  <fix>3d</fix>
</trkpt>
<trkpt lat="-27.2715253" lon="151.2917098">
  <ele>443.56</ele>
  <time>2026-09-01T19:57:01Z</time>
  <course>108.07</course>
  <speed>20.15946675882078</speed>
  <fix>3d</fix>
</trkpt>
<trkpt lat="-27.2715148" lon="151.2916746">
  <ele>443.71</ele>
  <time>2026-09-01T19:57:01Z</time>
  <course>104.31</course>
  <speed>20.02</speed>
  <fix>3d</fix>
</trkpt>
<trkpt lat="-27.2716017" lon="151.2911991">
  <ele>343.0</ele>
  <time>2026-09-01T19:57:01Z</time>
  <course>39.14</course>
  <speed>4.98992985922648</speed>
  <fix>3d</fix>
</trkpt>
<trkpt lat="-27.2715318" lon="151.2917289">
  <ele>443.44</ele>
  <time>2026-09-01T19:57:01Z</time>
  <course>110.83</course>
  <speed>20.265391681386276</speed>
  <fix>3d</fix>
</trkpt>
<trkpt lat="-27.2715148" lon="151.2916746">
  <ele>443.71</ele>
  <time>2026-09-01T19:57:01Z</time>
  <course>104.31</course>
  <speed>20.02</speed>
  <fix>3d</fix>
</trkpt>
<trkpt lat="-27.2715391" lon="151.2917477">
  <ele>443.31</ele>
  <time>2026-09-01T19:57:01Z</time>
  <course>113.63</course>
  <speed>20.35649527792051</speed>
  <fix>3d</fix>
</trkpt>
<trkpt lat="-27.2715254" lon="151.2917134">
  <ele>443.48</ele>
  <time>2026-09-01T19:57:01Z</time>
  <course>109.88</course>
  <speed>20.2</speed>
  <fix>3d</fix>
</trkpt>
<trkpt lat="-27.2715947" lon="151.2912055">
  <ele>343.0</ele>
  <time>2026-09-01T19:57:01Z</time>
  <course>39.25</course>
  <speed>4.9962485926943225</speed>
  <fix>3d</fix>
</trkpt>
<trkpt lat="-27.2715473" lon="151.2917661">
  <ele>443.18</ele>
  <time>2026-09-01T19:57:01Z</time>
  <course>116.46</course>
  <speed>20.46011974549514</speed>
  <fix>3d</fix>
</trkpt>
<trkpt lat="-27.2715254" lon="151.2917134">
  <ele>443.48</ele>
  <time>2026-09-01T19:57:01Z</time>
  <course>109.88</course>
  <speed>20.2</speed>
  <fix>3d</fix>
</trkpt>
<trkpt lat="-27.2715563" lon="151.2917842">
  <ele>443.05</ele>
  <time>2026-09-01T19:57:01Z</time>
  <course>119.27</course>
  <speed>20.555884802167967</speed>
  <fix>3d</fix>
</trkpt>
<trkpt lat="-27.2715395" lon="151.2917512">
  <ele>443.24</ele>
  <time>2026-09-01T19:57:01Z</time>
  <course>115.51</course>
  <speed>20.38</speed>
  <fix>3d</fix>
</trkpt>
<trkpt lat="-27.2715877" lon="151.2912119">
  <ele>343.0</ele>
  <time>2026-09-01T19:57:01Z</time>
  <course>39.37</course>
  <speed>4.9948473450146595</speed>
  <fix>3d</fix>
</trkpt>
<trkpt lat="-27.2715661" lon="151.2918018">
  <ele>442.91</ele>
  <time>2026-09-01T19:57:01Z</time>
  <course>122.12</course>
  <speed>20.66279748727166</speed>
  <fix>3d</fix>
</trkpt>
<trkpt lat="-27.2715395" lon="151.2917512">
  <ele>443.24</ele>
  <time>2026-09-01T19:57:01Z</time>
  <course>115.51</course>
  <speed>20.38</speed>
  <fix>3d</fix>
</trkpt>
<trkpt lat="-27.2715768" lon="151.2918189">
  <ele>442.77</ele>
  <time>2026-09-01T19:57:01Z</time>
  <course>124.98</course>
  <speed>20.76000963390913</speed>
  <fix>3d</fix>
</trkpt>
<trkpt lat="-27.271557" lon="151.2917876">
  <ele>442.98</ele>
  <time>2026-09-01T19:57:01Z</time>
  <course>121.18</course>
  <speed>20.58</speed>
  <fix>3d</fix>
</trkpt>
<trkpt lat="-27.2715808" lon="151.2912183">
  <ele>343.0</ele>
  <time>2026-09-01T19:57:01Z</time>
  <course>39.48</course>
  <speed>4.98712341936712</speed>
  <fix>3d</fix>
</trkpt>
<trkpt lat="-27.2715882" lon="151.2918355">
  <ele>442.62</ele>
  <time>2026-09-01T19:57:01Z</time>
  <course>127.86</course>
  <speed>20.858564188361573</speed>
  <fix>3d</fix>
</trkpt>
<trkpt lat="-27.271557" lon="151.2917876">
  <ele>442.98</ele>
  <time>2026-09-01T19:57:01Z</time>
  <course>121.18</course>
  <speed>20.58</speed>
  <fix>3d</fix>
</trkpt>
<trkpt lat="-27.2716005" lon="151.2918515">
  <ele>442.47</ele>
  <time>2026-09-01T19:57:01Z</time>
  <course>130.79</course>
  <speed>20.96405018120306</speed>
  <fix>3d</fix>
</trkpt>
<trkpt lat="-27.2715778" lon="151.2918222">
  <ele>442.7</ele>
  <time>2026-09-01T19:57:01Z</time>
  <course>126.91</course>
  <speed>20.78</speed>
  <fix>3d</fix>
</trkpt>
<trkpt lat="-27.2715739" lon="151.2912247">
  <ele>343.0</ele>
  <time>2026-09-01T19:57:01Z</time>
  <course>39.6</course>
  <speed>4.993485756463114</speed>
  <fix>3d</fix>
</trkpt>
<trkpt lat="-27.2716135" lon="151.2918668">
  <ele>442.32</ele>
  <time>2026-09-01T19:57:01Z</time>
  <course>133.7</course>
  <speed>21.065338829461062</speed>
  <fix>3d</fix>
</trkpt>
<trkpt lat="-27.2715778" lon="151.2918222">
  <ele>442.7</ele>
  <time>2026-09-01T19:57:01Z</time>
  <course>126.91</course>
  <speed>20.78</speed>
  <fix>3d</fix>
</trkpt>
<trkpt lat="-27.2716272" lon="151.2918815">
  <ele>442.16</ele>
  <time>2026-09-01T19:57:01Z</time>
  <course>136.62</course>
  <speed>21.178262440530858</speed>
  <fix>3d</fix>
</trkpt>
<trkpt lat="-27.2716018" lon="151.2918546">
  <ele>442.41</ele>
  <time>2026-09-01T19:57:01Z</time>
  <course>132.68</course>
  <speed>20.98</speed>
  <fix>3d</fix>
</trkpt>
<trkpt lat="-27.271567" lon="151.2912312">
  <ele>343.0</ele>
  <time>2026-09-01T19:57:01Z</time>
  <course>39.71</course>
  <speed>4.992163859490192</speed>
  <fix>3d</fix>
</trkpt>
<trkpt lat="-27.2716417" lon="151.2918954">
  <ele>442.0</ele>
  <time>2026-09-01T19:57:01Z</time>
  <course>139.54</course>
  <speed>21.277126215727534</speed>
  <fix>3d</fix>
</trkpt>
<trkpt lat="-27.2716018" lon="151.2918546">
  <ele>442.41</ele>
  <time>2026-09-01T19:57:01Z</time>
  <course>132.68</course>
  <speed>20.98</speed>
  <fix>3d</fix>
</trkpt>
<trkpt lat="-27.2716568" lon="151.2919085">
  <ele>441.84</ele>
  <time>2026-09-01T19:57:01Z</time>
  <course>142.46</course>
  <speed>21.381667381193637</speed>
  <fix>3d</fix>
</trkpt>
<trkpt lat="-27.2716289" lon="151.2918844">
  <ele>442.1</ele>
  <time>2026-09-01T19:57:01Z</time>
  <course>138.51</course>
  <speed>21.19</speed>
  <fix>3d</fix>
</trkpt>
<trkpt lat="-27.2715601" lon="151.2912376">
  <ele>343.0</ele>
  <time>2026-09-01T19:57:01Z</time>
  <course>39.83</course>
  <speed>4.990881685634313</speed>
  <fix>3d</fix>
</trkpt>
<trkpt lat="-27.2716727" lon="151.2919208">
  <ele>441.68</ele>
  <time>2026-09-01T19:57:01Z</time>
  <course>145.37</course>
  <speed>21.488557420171322</speed>
  <fix>3d</fix>
</trkpt>
<trkpt lat="-27.2716289" lon="151.2918844">
  <ele>442.1</ele>
  <time>2026-09-01T19:57:01Z</time>
  <course>138.51</course>
  <speed>21.19</speed>
  <fix>3d</fix>
</trkpt>
<trkpt lat="-27.2716889" lon="151.2919322">
  <ele>441.51</ele>
  <time>2026-09-01T19:57:01Z</time>
  <course>148.25</course>
  <speed>21.58967577338761</speed>
  <fix>3d</fix>
</trkpt>
<trkpt lat="-27.2716588" lon="151.2919112">
  <ele>441.77</ele>
  <time>2026-09-01T19:57:01Z</time>
  <course>144.38</course>
  <speed>21.4</speed>
  <fix>3d</fix>
</trkpt>
<trkpt lat="-27.2715532" lon="151.2912441">
  <ele>343.0</ele>
  <time>2026-09-01T19:57:01Z</time>
  <course>39.94</course>
  <speed>4.997299270606074</speed>
  <fix>3d</fix>
</trkpt>
<trkpt lat="-27.271706" lon="151.2919427">
  <ele>441.35</ele>
  <time>2026-09-01T19:57:01Z</time>
  <course>151.22</course>
  <speed>21.704050313247986</speed>
  <fix>3d</fix>
</trkpt>
<trkpt lat="-27.2716588" lon="151.2919112">
  <ele>441.77</ele>
  <time>2026-09-01T19:57:01Z</time>
  <course>144.38</course>
  <speed>21.4</speed>
  <fix>3d</fix>
</trkpt>
<trkpt lat="-27.2717235" lon="151.2919522">
  <ele>441.17</ele>
  <time>2026-09-01T19:57:01Z</time>
  <course>154.2</course>
  <speed>21.80362584525794</speed>
  <fix>3d</fix>
</trkpt>
<trkpt lat="-27.2716913" lon="151.2919347">
  <ele>441.44</ele>
  <time>2026-09-01T19:57:01Z</time>
  <course>150.27</course>
  <speed>21.62</speed>
  <fix>3d</fix>
</trkpt>
<trkpt lat="-27.2715463" lon="151.2912506">
  <ele>343.0</ele>
  <time>2026-09-01T19:57:01Z</time>
  <course>40.05</course>
  <speed>4.989639265518099</speed>
  <fix>3d</fix>
</trkpt>
<trkpt lat="-27.2717416" lon="151.2919608">
  <ele>441.0</ele>
  <time>2026-09-01T19:57:01Z</time>
  <course>157.14</course>
  <speed>21.907829650606654</speed>
  <fix>3d</fix>
</trkpt>
<trkpt lat="-27.2716913" lon="151.2919347">
  <ele>441.44</ele>
  <time>2026-09-01T19:57:01Z</time>
  <course>150.27</course>
  <speed>21.62</speed>
  <fix>3d</fix>
</trkpt>
<trkpt lat="-27.2717601" lon="151.2919684">
  <ele>440.82</ele>
  <time>2026-09-01T19:57:01Z</time>
  <course>160.03</course>
  <speed>22.015907884981715</speed>
  <fix>3d</fix>
</trkpt>
<trkpt lat="-27.2717262" lon="151.2919545">
  <ele>441.09</ele>
  <time>2026-09-01T19:57:01Z</time>
  <course>156.18</course>
  <speed>21.83</speed>
  <fix>3d</fix>
</trkpt>
<trkpt lat="-27.2715394" lon="151.2912571">
  <ele>343.0</ele>
  <time>2026-09-01T19:57:01Z</time>
  <course>40.17</course>
  <speed>4.996078462154092</speed>
  <fix>3d</fix>
</trkpt>
<trkpt lat="-27.2717792" lon="151.291975">
  <ele>440.65</ele>
  <time>2026-09-01T19:57:01Z</time>
  <course>162.99</course>
  <speed>22.122036524696362</speed>
  <fix>3d</fix>
</trkpt>
<trkpt lat="-27.2717262" lon="151.2919545">
  <ele>441.09</ele>
  <time>2026-09-01T19:57:01Z</time>
  <course>156.18</course>
  <speed>21.83</speed>
  <fix>3d</fix>
</trkpt>
<trkpt lat="-27.2717985" lon="151.2919804">
  <ele>440.47</ele>
  <time>2026-09-01T19:57:01Z</time>
  <course>165.88</course>
  <speed>22.225699089117533</speed>
  <fix>3d</fix>
</trkpt>
<trkpt lat="-27.2717631" lon="151.2919703">
  <ele>440.74</ele>
  <time>2026-09-01T19:57:01Z</time>
  <course>162.08</course>
  <speed>22.05</speed>
  <fix>3d</fix>
</trkpt>
<trkpt lat="-27.2715326" lon="151.2912637">
  <ele>343.0</ele>
  <time>2026-09-01T19:57:01Z</time>
  <course>40.28</course>
  <speed>4.9948973963435925</speed>
  <fix>3d</fix>
</trkpt>
<trkpt lat="-27.2718183" lon="151.2919848">
  <ele>440.29</ele>
  <time>2026-09-01T19:57:01Z</time>
  <course>168.77</course>
  <speed>22.33360248594033</speed>
  <fix>3d</fix>
</trkpt>
<trkpt lat="-27.2717631" lon="151.2919703">
  <ele>440.74</ele>
  <time>2026-09-01T19:57:01Z</time>
  <course>162.08</course>
  <speed>22.05</speed>
  <fix>3d</fix>
</trkpt>
<trkpt lat="-27.2718381" lon="151.291988">
  <ele>440.12</ele>
  <time>2026-09-01T19:57:01Z</time>
  <course>171.6</course>
  <speed>22.44875052202238</speed>
  <fix>3d</fix>
</trkpt>
<trkpt lat="-27.2718015" lon="151.2919819">
  <ele>440.39</ele>
  <time>2026-09-01T19:57:01Z</time>
  <course>167.93</course>
  <speed>22.27</speed>
  <fix>3d</fix>
</trkpt>
<trkpt lat="-27.2715258" lon="151.2912702">
  <ele>343.0</ele>
  <time>2026-09-01T19:57:01Z</time>
  <course>40.4</course>
  <speed>4.993756101372994</speed>
  <fix>3d</fix>
</trkpt>
<trkpt lat="-27.2718582" lon="151.2919901">
  <ele>439.94</ele>
  <time>2026-09-01T19:57:01Z</time>
  <course>174.41</course>
  <speed>22.54862301782528</speed>
  <fix>3d</fix>
</trkpt>
<trkpt lat="-27.2718015" lon="151.2919819">
  <ele>440.39</ele>
  <time>2026-09-01T19:57:01Z</time>
  <course>167.93</course>
  <speed>22.27</speed>
  <fix>3d</fix>
</trkpt>
<trkpt lat="-27.2718785" lon="151.2919912">
  <ele>439.76</ele>
  <time>2026-09-01T19:57:01Z</time>
  <course>177.1</course>
  <speed>22.653187413695232</speed>
  <fix>3d</fix>
</trkpt>
<trkpt lat="-27.2718412" lon="151.2919891">
  <ele>440.03</ele>
  <time>2026-09-01T19:57:01Z</time>
  <course>173.69</course>
  <speed>22.49</speed>
  <fix>3d</fix>
</trkpt>
<trkpt lat="-27.2715189" lon="151.2912768">
  <ele>343.0</ele>
  <time>2026-09-01T19:57:01Z</time>
  <course>40.51</course>
  <speed>4.993756101372994</speed>
  <fix>3d</fix>
</trkpt>
<trkpt lat="-27.2718989" lon="151.2919911">
  <ele>439.58</ele>
  <time>2026-09-01T19:57:01Z</time>
  <course>179.75</course>
  <speed>22.750771415492704</speed>
  <fix>3d</fix>
</trkpt>
<trkpt lat="-27.2718412" lon="151.2919891">
  <ele>440.03</ele>
  <time>2026-09-01T19:57:01Z</time>
  <course>173.69</course>
  <speed>22.49</speed>
  <fix>3d</fix>
</trkpt>
<trkpt lat="-27.2719193" lon="151.29199">
  <ele>439.41</ele>
  <time>2026-09-01T19:57:01Z</time>
  <course>182.42</course>
  <speed>22.85863075514367</speed>
  <fix>3d</fix>
</trkpt>
<trkpt lat="-27.2718817" lon="151.2919918">
  <ele>439.66</ele>
  <time>2026-09-01T19:57:01Z</time>
  <course>179.32</course>
  <speed>22.71</speed>
  <fix>3d</fix>
</trkpt>
<trkpt lat="-27.2715121" lon="151.2912833">
  <ele>343.0</ele>
  <time>2026-09-01T19:57:01Z</time>
  <course>40.63</course>
  <speed>4.992654604516519</speed>
  <fix>3d</fix>
</trkpt>
<trkpt lat="-27.2719398" lon="151.2919877">
  <ele>439.23</ele>
  <time>2026-09-01T19:57:01Z</time>
  <course>184.99</course>
  <speed>22.9538842028969</speed>
  <fix>3d</fix>
</trkpt>
<trkpt lat="-27.2718817" lon="151.2919918">
  <ele>439.66</ele>
  <time>2026-09-01T19:57:01Z</time>
  <course>179.32</course>
  <speed>22.71</speed>
  <fix>3d</fix>
</trkpt>
<trkpt lat="-27.2719602" lon="151.2919844">
  <ele>439.05</ele>
  <time>2026-09-01T19:57:01Z</time>
  <course>187.48</course>
  <speed>23.053750237217372</speed>
  <fix>3d</fix>
</trkpt>
<trkpt lat="-27.2719227" lon="151.2919901">
  <ele>439.3</ele>
  <time>2026-09-01T19:57:01Z</time>
  <course>184.75</course>
  <speed>22.92</speed>
  <fix>3d</fix>
</trkpt>
<trkpt lat="-27.2715053" lon="151.2912899">
  <ele>343.0</ele>
  <time>2026-09-01T19:57:01Z</time>
  <course>40.74</course>
  <speed>4.991592932120968</speed>
  <fix>3d</fix>
</trkpt>
<trkpt lat="-27.2719806" lon="151.2919801">
  <ele>438.87</ele>
  <time>2026-09-01T19:57:01Z</time>
  <course>189.94</course>
  <speed>23.148084153985614</speed>
  <fix>3d</fix>
</trkpt>
<trkpt lat="-27.2719227" lon="151.2919901">
  <ele>439.3</ele>
  <time>2026-09-01T19:57:01Z</time>
  <course>184.75</course>
  <speed>22.92</speed>
  <fix>3d</fix>
</trkpt>
<trkpt lat="-27.2720009" lon="151.2919747">
  <ele>438.68</ele>
  <time>2026-09-01T19:57:01Z</time>
  <course>192.29</course>
  <speed>23.248064435561083</speed>
  <fix>3d</fix>
</trkpt>
<trkpt lat="-27.2719637" lon="151.2919842">
  <ele>438.93</ele>
  <time>2026-09-01T19:57:01Z</time>
  <course>189.95</course>
  <speed>23.13</speed>
  <fix>3d</fix>
</trkpt>
<trkpt lat="-27.2714985" lon="151.2912965">
  <ele>343.0</ele>
  <time>2026-09-01T19:57:01Z</time>
  <course>40.86</course>
  <speed>4.998129650179155</speed>
  <fix>3d</fix>
</trkpt>
<trkpt lat="-27.2720211" lon="151.2919684">
  <ele>438.5</ele>
  <time>2026-09-01T19:57:01Z</time>
  <course>194.54</course>
  <speed>23.339515847592043</speed>
  <fix>3d</fix>
</trkpt>
<trkpt lat="-27.2719637" lon="151.2919842">
  <ele>438.93</ele>
  <time>2026-09-01T19:57:01Z</time>
  <course>189.95</course>
  <speed>23.13</speed>
  <fix>3d</fix>
</trkpt>
<trkpt lat="-27.2720411" lon="151.2919611">
  <ele>438.32</ele>
  <time>2026-09-01T19:57:01Z</time>
  <course>196.71</course>
  <speed>23.434611155297624</speed>
  <fix>3d</fix>
</trkpt>
<trkpt lat="-27.2720044" lon="151.2919741">
  <ele>438.57</ele>
  <time>2026-09-01T19:57:01Z</time>
  <course>194.88</course>
  <speed>23.32</speed>
  <fix>3d</fix>
</trkpt>
<trkpt lat="-27.2714917" lon="151.2913031">
  <ele>343.0</ele>
  <time>2026-09-01T19:57:01Z</time>
  <course>40.97</course>
  <speed>4.9905711096025875</speed>
  <fix>3d</fix>
</trkpt>
<trkpt lat="-27.2720609" lon="151.2919529">
  <ele>438.14</ele>
  <time>2026-09-01T19:57:01Z</time>
  <course>198.81</course>
  <speed>23.52076529367189</speed>
  <fix>3d</fix>
</trkpt>
<trkpt lat="-27.2720044" lon="151.2919741">
  <ele>438.57</ele>
  <time>2026-09-01T19:57:01Z</time>
  <course>194.88</course>
  <speed>23.32</speed>
  <fix>3d</fix>
</trkpt>
<trkpt lat="-27.2720805" lon="151.2919438">
  <ele>437.96</ele>
  <time>2026-09-01T19:57:01Z</time>
  <course>200.88</course>
  <speed>23.619737509125713</speed>
  <fix>3d</fix>
</trkpt>
<trkpt lat="-27.2720446" lon="151.2919601">
  <ele>438.2</ele>
  <time>2026-09-01T19:57:01Z</time>
  <course>199.5</course>
  <speed>23.52</speed>
  <fix>3d</fix>
</trkpt>
<trkpt lat="-27.2714849" lon="151.2913098">
  <ele>343.0</ele>
  <time>2026-09-01T19:57:01Z</time>
  <course>41.08</course>
  <speed>4.989589161444056</speed>
  <fix>3d</fix>
</trkpt>
<trkpt lat="-27.2720997" lon="151.291934">
  <ele>437.77</ele>
  <time>2026-09-01T19:57:01Z</time>
  <course>202.84</course>
  <speed>23.710843510933977</speed>
  <fix>3d</fix>
</trkpt>
<trkpt lat="-27.2720446" lon="151.2919601">
  <ele>438.2</ele>
  <time>2026-09-01T19:57:01Z</time>
  <course>199.5</course>
  <speed>23.52</speed>
  <fix>3d</fix>
</trkpt>
<trkpt lat="-27.2721189" lon="151.2919233">
  <ele>437.59</ele>
  <time>2026-09-01T19:57:01Z</time>
  <course>204.72</course>
  <speed>23.799060905842484</speed>
  <fix>3d</fix>
</trkpt>
<trkpt lat="-27.272084" lon="151.2919425">
  <ele>437.83</ele>
  <time>2026-09-01T19:57:01Z</time>
  <course>203.8</course>
  <speed>23.71</speed>
  <fix>3d</fix>
</trkpt>
<trkpt lat="-27.2714782" lon="151.2913164">
  <ele>343.0</ele>
  <time>2026-09-01T19:57:01Z</time>
  <course>41.2</course>
  <speed>4.996168531985285</speed>
  <fix>3d</fix>
</trkpt>
<trkpt lat="-27.2721378" lon="151.2919119">
  <ele>437.4</ele>
  <time>2026-09-01T19:57:01Z</time>
  <course>206.55</course>
  <speed>23.89097946924738</speed>
  <fix>3d</fix>
</trkpt>
<trkpt lat="-27.272084" lon="151.2919425">
  <ele>437.83</ele>
  <time>2026-09-01T19:57:01Z</time>
  <course>203.8</course>
  <speed>23.71</speed>
  <fix>3d</fix>
</trkpt>
<trkpt lat="-27.2721564" lon="151.2918997">
  <ele>437.21</ele>
  <time>2026-09-01T19:57:01Z</time>
  <course>208.29</course>
  <speed>23.973846166187016</speed>
  <fix>3d</fix>
</trkpt>
<trkpt lat="-27.2721225" lon="151.2919215">
  <ele>437.46</ele>
  <time>2026-09-01T19:57:01Z</time>
  <course>207.76</course>
  <speed>23.9</speed>
  <fix>3d</fix>
</trkpt>
<trkpt lat="-27.2714713" lon="151.2913231">
  <ele>343.0</ele>
  <time>2026-09-01T19:57:01Z</time>
  <course>41.31</course>
  <speed>4.995247741604014</speed>
  <fix>3d</fix>
</trkpt>
<trkpt lat="-27.2721749" lon="151.2918868">
  <ele>437.03</ele>
  <time>2026-09-01T19:57:01Z</time>
  <course>210.15</course>
  <speed>24.057152782488618</speed>
  <fix>3d</fix>
</trkpt>
<trkpt lat="-27.2721225" lon="151.2919215">
  <ele>437.46</ele>
  <time>2026-09-01T19:57:01Z</time>
  <course>207.76</course>
  <speed>23.9</speed>
  <fix>3d</fix>
</trkpt>
<trkpt lat="-27.272193" lon="151.2918732">
  <ele>436.85</ele>
  <time>2026-09-01T19:57:01Z</time>
  <course>211.82</course>
  <speed>24.14908900973285</speed>
  <fix>3d</fix>
</trkpt>
<trkpt lat="-27.27216" lon="151.2918975">
  <ele>437.09</ele>
  <time>2026-09-01T19:57:01Z</time>
  <course>211.43</course>
  <speed>24.07</speed>
  <fix>3d</fix>
</trkpt>
<trkpt lat="-27.2714646" lon="151.2913298">
  <ele>343.0</ele>
  <time>2026-09-01T19:57:01Z</time>
  <course>41.43</course>
  <speed>4.987744981452039</speed>
  <fix>3d</fix>
</trkpt>
<trkpt lat="-27.2722107" lon="151.2918591">
  <ele>436.67</ele>
  <time>2026-09-01T19:57:01Z</time>
  <course>213.31</course>
  <speed>24.223907612109155</speed>
  <fix>3d</fix>
</trkpt>
<trkpt lat="-27.27216" lon="151.2918975">
  <ele>437.09</ele>
  <time>2026-09-01T19:57:01Z</time>
  <course>211.43</course>
  <speed>24.07</speed>
  <fix>3d</fix>
</trkpt>
<trkpt lat="-27.2722288" lon="151.2918438">
  <ele>436.5</ele>
  <time>2026-09-01T19:57:01Z</time>
  <course>214.7</course>
  <speed>24.311612451665972</speed>
  <fix>3d</fix>
</trkpt>
<trkpt lat="-27.2721964" lon="151.2918708">
  <ele>436.72</ele>
  <time>2026-09-01T19:57:01Z</time>
  <course>214.83</course>
  <speed>24.25</speed>
  <fix>3d</fix>
</trkpt>
<trkpt lat="-27.2714579" lon="151.2913365">
  <ele>343.0</ele>
  <time>2026-09-01T19:57:01Z</time>
  <course>41.54</course>
  <speed>4.994366826735898</speed>
  <fix>3d</fix>
</trkpt>
<trkpt lat="-27.2722461" lon="151.2918286">
  <ele>436.33</ele>
  <time>2026-09-01T19:57:01Z</time>
  <course>215.91</course>
  <speed>24.38809545659521</speed>
  <fix>3d</fix>
</trkpt>
<trkpt lat="-27.2721964" lon="151.2918708">
  <ele>436.72</ele>
  <time>2026-09-01T19:57:01Z</time>
  <course>214.83</course>
  <speed>24.25</speed>
  <fix>3d</fix>
</trkpt>
<trkpt lat="-27.272263" lon="151.2918131">
  <ele>436.15</ele>
  <time>2026-09-01T19:57:01Z</time>
  <course>216.96</course>
  <speed>24.47173471578997</speed>
  <fix>3d</fix>
</trkpt>
<trkpt lat="-27.2722316" lon="151.2918416">
  <ele>436.38</ele>
  <time>2026-09-01T19:57:01Z</time>
  <course>217.72</course>
  <speed>24.41</speed>
  <fix>3d</fix>
</trkpt>
<trkpt lat="-27.2714512" lon="151.2913432">
  <ele>343.0</ele>
  <time>2026-09-01T19:57:01Z</time>
  <course>41.66</course>
  <speed>4.993525808484422</speed>
  <fix>3d</fix>
</trkpt>
<trkpt lat="-27.2722799" lon="151.2917971">
  <ele>435.95</ele>
  <time>2026-09-01T19:57:01Z</time>
  <course>217.93</course>
  <speed>24.551109954541772</speed>
  <fix>3d</fix>
</trkpt>
<trkpt lat="-27.2722316" lon="151.2918416">
  <ele>436.38</ele>
  <time>2026-09-01T19:57:01Z</time>
  <course>217.72</course>
  <speed>24.41</speed>
  <fix>3d</fix>
</trkpt>
<trkpt lat="-27.2722966" lon="151.2917807">
  <ele>435.74</ele>
  <time>2026-09-01T19:57:01Z</time>
  <course>218.8</course>
  <speed>24.638818965202045</speed>
  <fix>3d</fix>
</trkpt>
<trkpt lat="-27.2722658" lon="151.2918105">
  <ele>436.02</ele>
  <time>2026-09-01T19:57:01Z</time>
  <course>219.95</course>
  <speed>24.58</speed>
  <fix>3d</fix>
</trkpt>
<trkpt lat="-27.2714445" lon="151.2913499">
  <ele>343.0</ele>
  <time>2026-09-01T19:57:01Z</time>
  <course>41.77</course>
  <speed>4.992724707011193</speed>
  <fix>3d</fix>
</trkpt>
<trkpt lat="-27.2723131" lon="151.291764">
  <ele>435.51</ele>
  <time>2026-09-01T19:57:01Z</time>
  <course>219.66</course>
  <speed>24.740244542041214</speed>
  <fix>3d</fix>
</trkpt>
<trkpt lat="-27.2722658" lon="151.2918105">
  <ele>436.02</ele>
  <time>2026-09-01T19:57:01Z</time>
  <course>219.95</course>
  <speed>24.58</speed>
  <fix>3d</fix>
</trkpt>
<trkpt lat="-27.2723292" lon="151.2917472">
  <ele>435.27</ele>
  <time>2026-09-01T19:57:01Z</time>
  <course>220.51</course>
  <speed>24.840299917674102</speed>
  <fix>3d</fix>
</trkpt>
<trkpt lat="-27.2722993" lon="151.2917779">
  <ele>435.62</ele>
  <time>2026-09-01T19:57:01Z</time>
  <course>221.77</course>
  <speed>24.75</speed>
  <fix>3d</fix>
</trkpt>
<trkpt lat="-27.2714378" lon="151.2913566">
  <ele>343.0</ele>
  <time>2026-09-01T19:57:01Z</time>
  <course>41.89</course>
  <speed>4.992724707011193</speed>
  <fix>3d</fix>
</trkpt>
<trkpt lat="-27.2723455" lon="151.2917299">
  <ele>435.0</ele>
  <time>2026-09-01T19:57:01Z</time>
  <course>221.29</course>
  <speed>24.944708857791866</speed>
  <fix>3d</fix>
</trkpt>
<trkpt lat="-27.2722993" lon="151.2917779">
  <ele>435.62</ele>
  <time>2026-09-01T19:57:01Z</time>
  <course>221.77</course>
  <speed>24.75</speed>
  <fix>3d</fix>
</trkpt>
<trkpt lat="-27.2723616" lon="151.2917122">
  <ele>434.72</ele>
  <time>2026-09-01T19:57:01Z</time>
  <course>222.05</course>
  <speed>25.060538701312865</speed>
  <fix>3d</fix>
</trkpt>
<trkpt lat="-27.2723322" lon="151.2917439">
  <ele>435.16</ele>
  <time>2026-09-01T19:57:01Z</time>
  <course>223.37</course>
  <speed>24.95</speed>
  <fix>3d</fix>
</trkpt>
<trkpt lat="-27.2714311" lon="151.2913634">
  <ele>343.0</ele>
  <time>2026-09-01T19:57:01Z</time>
  <course>42.0</course>
  <speed>4.991963541533532</speed>
  <fix>3d</fix>
</trkpt>
<trkpt lat="-27.2723777" lon="151.2916942">
  <ele>434.43</ele>
  <time>2026-09-01T19:57:01Z</time>
  <course>222.75</course>
  <speed>25.17325564959765</speed>
  <fix>3d</fix>
</trkpt>
<trkpt lat="-27.2723322" lon="151.2917439">
  <ele>435.16</ele>
  <time>2026-09-01T19:57:01Z</time>
  <course>223.37</course>
  <speed>24.95</speed>
  <fix>3d</fix>
</trkpt>
<trkpt lat="-27.2723935" lon="151.2916759">
  <ele>434.12</ele>
  <time>2026-09-01T19:57:02Z</time>
  <course>223.46</course>
  <speed>25.246817621236936</speed>
  <fix>3d</fix>
</trkpt>
<trkpt lat="-27.2723645" lon="151.2917087">
  <ele>434.63</ele>
  <time>2026-09-01T19:57:02Z</time>
  <course>224.82</course>
  <speed>25.17</speed>
  <fix>3d</fix>
</trkpt>
<trkpt lat="-27.2714245" lon="151.2913702">
  <ele>343.0</ele>
  <time>2026-09-01T19:57:02Z</time>
  <course>42.11</course>
  <speed>4.991242330322181</speed>
  <fix>3d</fix>
</trkpt>
<trkpt lat="-27.2724093" lon="151.2916574">
  <ele>433.81</ele>
  <time>2026-09-01T19:57:02Z</time>
  <course>224.09</course>
  <speed>25.28111152619679</speed>
  <fix>3d</fix>
</trkpt>
<trkpt lat="-27.2723645" lon="151.2917087">
  <ele>434.63</ele>
  <time>2026-09-01T19:57:02Z</time>
  <course>224.82</course>
  <speed>25.17</speed>
  <fix>3d</fix>
</trkpt>
<trkpt lat="-27.2724249" lon="151.2916387">
  <ele>433.49</ele>
  <time>2026-09-01T19:57:02Z</time>
  <course>224.69</course>
  <speed>25.27457615866189</speed>
  <fix>3d</fix>
</trkpt>
<trkpt lat="-27.2723962" lon="151.2916723">
  <ele>434.04</ele>
  <time>2026-09-01T19:57:02Z</time>
  <course>226.14</course>
  <speed>25.33</speed>
  <fix>3d</fix>
</trkpt>
<trkpt lat="-27.2714178" lon="151.2913769">
  <ele>343.0</ele>
  <time>2026-09-01T19:57:02Z</time>
  <course>42.23</course>
  <speed>4.99795958367012</speed>
  <fix>3d</fix>
</trkpt>
<trkpt lat="-27.2724403" lon="151.2916198">
  <ele>433.16</ele>
  <time>2026-09-01T19:57:02Z</time>
  <course>225.17</course>
  <speed>25.25492427230777</speed>
  <fix>3d</fix>
</trkpt>
<trkpt lat="-27.2723962" lon="151.2916723">
  <ele>434.04</ele>
  <time>2026-09-01T19:57:02Z</time>
  <course>226.14</course>
  <speed>25.33</speed>
  <fix>3d</fix>
</trkpt>
<trkpt lat="-27.2724554" lon="151.2916009">
  <ele>432.83</ele>
  <time>2026-09-01T19:57:02Z</time>
  <course>225.56</course>
  <speed>25.240826056212978</speed>
  <fix>3d</fix>
</trkpt>
<trkpt lat="-27.2724275" lon="151.2916349">
  <ele>433.41</ele>
  <time>2026-09-01T19:57:02Z</time>
  <course>227.27</course>
  <speed>25.38</speed>
  <fix>3d</fix>
</trkpt>
<trkpt lat="-27.2714112" lon="151.2913838">
  <ele>343.0</ele>
  <time>2026-09-01T19:57:02Z</time>
  <course>42.34</course>
  <speed>4.990561090699121</speed>
  <fix>3d</fix>
</trkpt>
<trkpt lat="-27.2724706" lon="151.2915819">
  <ele>432.49</ele>
  <time>2026-09-01T19:57:02Z</time>
  <course>225.89</course>
  <speed>25.21779728683693</speed>
  <fix>3d</fix>
</trkpt>
<trkpt lat="-27.2724275" lon="151.2916349">
  <ele>433.41</ele>
  <time>2026-09-01T19:57:02Z</time>
  <course>227.27</course>
  <speed>25.38</speed>
  <fix>3d</fix>
</trkpt>
<trkpt lat="-27.2724858" lon="151.2915628">
  <ele>432.13</ele>
  <time>2026-09-01T19:57:02Z</time>
  <course>226.22</course>
  <speed>25.213492419734322</speed>
  <fix>3d</fix>
</trkpt>
<trkpt lat="-27.2724582" lon="151.291597">
  <ele>432.75</ele>
  <time>2026-09-01T19:57:02Z</time>
  <course>228.06</course>
  <speed>25.34</speed>
  <fix>3d</fix>
</trkpt>
<trkpt lat="-27.2714045" lon="151.2913906">
  <ele>343.0</ele>
  <time>2026-09-01T19:57:02Z</time>
  <course>42.46</course>
  <speed>4.989919839035493</speed>
  <fix>3d</fix>
</trkpt>
<trkpt lat="-27.2725009" lon="151.2915437">
  <ele>431.75</ele>
  <time>2026-09-01T19:57:02Z</time>
  <course>226.52</course>
  <speed>25.213492419734322</speed>
  <fix>3d</fix>
</trkpt>
<trkpt lat="-27.2724582" lon="151.291597">
  <ele>432.75</ele>
  <time>2026-09-01T19:57:02Z</time>
  <course>228.06</course>
  <speed>25.34</speed>
  <fix>3d</fix>
</trkpt>
<trkpt lat="-27.2725162" lon="151.2915243">
  <ele>431.35</ele>
  <time>2026-09-01T19:57:02Z</time>
  <course>226.79</course>
  <speed>25.219359627080145</speed>
  <fix>3d</fix>
</trkpt>
<trkpt lat="-27.2724885" lon="151.2915588">
  <ele>432.06</ele>
  <time>2026-09-01T19:57:02Z</time>
  <course>228.39</course>
  <speed>25.32</speed>
  <fix>3d</fix>
</trkpt>
<trkpt lat="-27.2713979" lon="151.2913974">
  <ele>343.0</ele>
  <time>2026-09-01T19:57:02Z</time>
  <course>42.57</course>
  <speed>4.996678897027505</speed>
  <fix>3d</fix>
</trkpt>
<trkpt lat="-27.2725313" lon="151.2915053">
  <ele>430.94</ele>
  <time>2026-09-01T19:57:02Z</time>
  <course>226.88</course>
  <speed>25.244510294319433</speed>
  <fix>3d</fix>
</trkpt>
<trkpt lat="-27.2724885" lon="151.2915588">
  <ele>432.06</ele>
  <time>2026-09-01T19:57:02Z</time>
  <course>228.39</course>
  <speed>25.32</speed>
  <fix>3d</fix>
</trkpt>
<trkpt lat="-27.2725466" lon="151.2914861">
  <ele>430.5</ele>
  <time>2026-09-01T19:57:02Z</time>
  <course>226.95</course>
  <speed>25.295906783509462</speed>
  <fix>3d</fix>
</trkpt>
<trkpt lat="-27.2725188" lon="151.2915204">
  <ele>431.3</ele>
  <time>2026-09-01T19:57:02Z</time>
  <course>228.34</course>
  <speed>25.33</speed>
  <fix>3d</fix>
</trkpt>
<trkpt lat="-27.2713913" lon="151.2914043">
  <ele>343.0</ele>
  <time>2026-09-01T19:57:02Z</time>
  <course>42.69</course>
  <speed>4.9960984778124615</speed>
  <fix>3d</fix>
</trkpt>
<trkpt lat="-27.2725625" lon="151.2914665">
  <ele>430.05</ele>
  <time>2026-09-01T19:57:02Z</time>
  <course>226.92</course>
  <speed>25.345818195513043</speed>
  <fix>3d</fix>
</trkpt>
<trkpt lat="-27.2725188" lon="151.2915204">
  <ele>431.3</ele>
  <time>2026-09-01T19:57:02Z</time>
  <course>228.34</course>
  <speed>25.33</speed>
  <fix>3d</fix>
</trkpt>
<trkpt lat="-27.2725778" lon="151.2914476">
  <ele>429.6</ele>
  <time>2026-09-01T19:57:02Z</time>
  <course>226.76</course>
  <speed>25.416943167894914</speed>
  <fix>3d</fix>
</trkpt>
<trkpt lat="-27.2725491" lon="151.2914822">
  <ele>430.47</ele>
  <time>2026-09-01T19:57:02Z</time>
  <course>227.95</course>
  <speed>25.39</speed>
  <fix>3d</fix>
</trkpt>
<trkpt lat="-27.2713847" lon="151.2914111">
  <ele>343.0</ele>
  <time>2026-09-01T19:57:02Z</time>
  <course>42.8</course>
  <speed>4.988757360305269</speed>
  <fix>3d</fix>
</trkpt>
<trkpt lat="-27.2725935" lon="151.2914287">
  <ele>429.14</ele>
  <time>2026-09-01T19:57:02Z</time>
  <course>226.42</course>
  <speed>25.501201932458006</speed>
  <fix>3d</fix>
</trkpt>
<trkpt lat="-27.2725491" lon="151.2914822">
  <ele>430.47</ele>
  <time>2026-09-01T19:57:02Z</time>
  <course>227.95</course>
  <speed>25.39</speed>
  <fix>3d</fix>
</trkpt>
<trkpt lat="-27.2726094" lon="151.2914099">
  <ele>428.69</ele>
  <time>2026-09-01T19:57:02Z</time>
  <course>225.95</course>
  <speed>25.60101951094917</speed>
  <fix>3d</fix>
</trkpt>
<trkpt lat="-27.27258" lon="151.2914442">
  <ele>429.6</ele>
  <time>2026-09-01T19:57:02Z</time>
  <course>227.21</course>
  <speed>25.52</speed>
  <fix>3d</fix>
</trkpt>
<trkpt lat="-27.2713781" lon="151.291418">
  <ele>343.0</ele>
  <time>2026-09-01T19:57:02Z</time>
  <course>42.92</course>
  <speed>4.995558026887487</speed>
  <fix>3d</fix>
</trkpt>
<trkpt lat="-27.2726256" lon="151.2913913">
  <ele>428.24</ele>
  <time>2026-09-01T19:57:02Z</time>
  <course>225.41</course>
  <speed>25.703550338426012</speed>
  <fix>3d</fix>
</trkpt>
<trkpt lat="-27.27258" lon="151.2914442">
  <ele>429.6</ele>
  <time>2026-09-01T19:57:02Z</time>
  <course>227.21</course>
  <speed>25.52</speed>
  <fix>3d</fix>
</trkpt>
<trkpt lat="-27.272642" lon="151.2913728">
  <ele>427.79</ele>
  <time>2026-09-01T19:57:02Z</time>
  <course>224.71</course>
  <speed>25.817794251252373</speed>
  <fix>3d</fix>
</trkpt>
<trkpt lat="-27.2726116" lon="151.2914065">
  <ele>428.71</ele>
  <time>2026-09-01T19:57:02Z</time>
  <course>226.07</course>
  <speed>25.7</speed>
  <fix>3d</fix>
</trkpt>
<trkpt lat="-27.2713715" lon="151.2914249">
  <ele>343.0</ele>
  <time>2026-09-01T19:57:02Z</time>
  <course>43.03</course>
  <speed>4.995057557225943</speed>
  <fix>3d</fix>
</trkpt>
<trkpt lat="-27.2726589" lon="151.2913544">
  <ele>427.34</ele>
  <time>2026-09-01T19:57:02Z</time>
  <course>223.78</course>
  <speed>25.932176923659917</speed>
  <fix>3d</fix>
</trkpt>
<trkpt lat="-27.2726116" lon="151.2914065">
  <ele>428.71</ele>
  <time>2026-09-01T19:57:02Z</time>
  <course>226.07</course>
  <speed>25.7</speed>
  <fix>3d</fix>
</trkpt>
<trkpt lat="-27.2726761" lon="151.2913363">
  <ele>426.91</ele>
  <time>2026-09-01T19:57:02Z</time>
  <course>222.83</course>
  <speed>26.0566709308768</speed>
  <fix>3d</fix>
</trkpt>
<trkpt lat="-27.2726441" lon="151.2913695">
  <ele>427.82</ele>
  <time>2026-09-01T19:57:02Z</time>
  <course>224.48</course>
  <speed>25.91</speed>
  <fix>3d</fix>
</trkpt>
<trkpt lat="-27.271365" lon="151.2914318">
  <ele>343.0</ele>
  <time>2026-09-01T19:57:02Z</time>
  <course>43.15</course>
  <speed>4.987755006012224</speed>
  <fix>3d</fix>
</trkpt>
<trkpt lat="-27.2726936" lon="151.2913186">
  <ele>426.49</ele>
  <time>2026-09-01T19:57:02Z</time>
  <course>221.81</course>
  <speed>26.186853571973856</speed>
  <fix>3d</fix>
</trkpt>
<trkpt lat="-27.2726441" lon="151.2913695">
  <ele>427.82</ele>
  <time>2026-09-01T19:57:02Z</time>
  <course>224.48</course>
  <speed>25.91</speed>
  <fix>3d</fix>
</trkpt>
<trkpt lat="-27.2727115" lon="151.2913013">
  <ele>426.08</ele>
  <time>2026-09-01T19:57:02Z</time>
  <course>220.71</course>
  <speed>26.30264815565155</speed>
  <fix>3d</fix>
</trkpt>
<trkpt lat="-27.272678" lon="151.2913333">
  <ele>426.96</ele>
  <time>2026-09-01T19:57:02Z</time>
  <course>222.43</course>
  <speed>26.15</speed>
  <fix>3d</fix>
</trkpt>
<trkpt lat="-27.2713584" lon="151.2914387">
  <ele>343.0</ele>
  <time>2026-09-01T19:57:02Z</time>
  <course>43.26</course>
  <speed>4.994597080846462</speed>
  <fix>3d</fix>
</trkpt>
<trkpt lat="-27.2727299" lon="151.2912843">
  <ele>425.68</ele>
  <time>2026-09-01T19:57:02Z</time>
  <course>219.4</course>
  <speed>26.423105419310577</speed>
  <fix>3d</fix>
</trkpt>
<trkpt lat="-27.272678" lon="151.2913333">
  <ele>426.96</ele>
  <time>2026-09-01T19:57:02Z</time>
  <course>222.43</course>
  <speed>26.15</speed>
  <fix>3d</fix>
</trkpt>
<trkpt lat="-27.2727487" lon="151.2912677">
  <ele>425.3</ele>
  <time>2026-09-01T19:57:02Z</time>
  <course>218.0</course>
  <speed>26.544159432914803</speed>
  <fix>3d</fix>
</trkpt>
<trkpt lat="-27.2727135" lon="151.2912983">
  <ele>426.14</ele>
  <time>2026-09-01T19:57:02Z</time>
  <course>219.97</course>
  <speed>26.4</speed>
  <fix>3d</fix>
</trkpt>
<trkpt lat="-27.2713519" lon="151.2914456">
  <ele>343.0</ele>
  <time>2026-09-01T19:57:02Z</time>
  <course>43.37</course>
  <speed>4.9941766088115065</speed>
  <fix>3d</fix>
</trkpt>
<trkpt lat="-27.272768" lon="151.2912517">
  <ele>424.93</ele>
  <time>2026-09-01T19:57:02Z</time>
  <course>216.58</course>
  <speed>26.659071626746496</speed>
  <fix>3d</fix>
</trkpt>
<trkpt lat="-27.2727135" lon="151.2912983">
  <ele>426.14</ele>
  <time>2026-09-01T19:57:02Z</time>
  <course>219.97</course>
  <speed>26.4</speed>
  <fix>3d</fix>
</trkpt>
<trkpt lat="-27.2727872" lon="151.2912365">
  <ele>424.58</ele>
  <time>2026-09-01T19:57:02Z</time>
  <course>215.17</course>
  <speed>26.7786519451596</speed>
  <fix>3d</fix>
</trkpt>
<trkpt lat="-27.2727508" lon="151.2912648">
  <ele>425.37</ele>
  <time>2026-09-01T19:57:02Z</time>
  <course>217.16</course>
  <speed>26.65</speed>
  <fix>3d</fix>
</trkpt>
<trkpt lat="-27.2713454" lon="151.2914526">
  <ele>343.0</ele>
  <time>2026-09-01T19:57:02Z</time>
  <course>43.49</course>
  <speed>4.993796151226039</speed>
  <fix>3d</fix>
</trkpt>
<trkpt lat="-27.2728072" lon="151.2912217">
  <ele>424.24</ele>
  <time>2026-09-01T19:57:02Z</time>
  <course>213.64</course>
  <speed>26.87370648049874</speed>
  <fix>3d</fix>
</trkpt>
<trkpt lat="-27.2727508" lon="151.2912648">
  <ele>425.37</ele>
  <time>2026-09-01T19:57:02Z</time>
  <course>217.16</course>
  <speed>26.65</speed>
  <fix>3d</fix>
</trkpt>
<trkpt lat="-27.2728279" lon="151.2912073">
  <ele>423.91</ele>
  <time>2026-09-01T19:57:02Z</time>
  <course>212.08</course>
  <speed>26.985479428759458</speed>
  <fix>3d</fix>
</trkpt>
<trkpt lat="-27.2727899" lon="151.2912334">
  <ele>424.65</ele>
  <time>2026-09-01T19:57:02Z</time>
  <course>214.05</course>
  <speed>26.89</speed>
  <fix>3d</fix>
</trkpt>
<trkpt lat="-27.2713389" lon="151.2914595">
  <ele>343.0</ele>
  <time>2026-09-01T19:57:02Z</time>
  <course>43.6</course>
  <speed>4.993796151226039</speed>
  <fix>3d</fix>
</trkpt>
<trkpt lat="-27.272849" lon="151.2911935">
  <ele>423.6</ele>
  <time>2026-09-01T19:57:02Z</time>
  <course>210.54</course>
  <speed>27.082365110898273</speed>
  <fix>3d</fix>
</trkpt>
<trkpt lat="-27.2727899" lon="151.2912334">
  <ele>424.65</ele>
  <time>2026-09-01T19:57:02Z</time>
  <course>214.05</course>
  <speed>26.89</speed>
  <fix>3d</fix>
</trkpt>
<trkpt lat="-27.2728705" lon="151.2911804">
  <ele>423.3</ele>
  <time>2026-09-01T19:57:02Z</time>
  <course>208.96</course>
  <speed>27.17581277533388</speed>
  <fix>3d</fix>
</trkpt>
<trkpt lat="-27.2728308" lon="151.2912041">
  <ele>423.99</ele>
  <time>2026-09-01T19:57:02Z</time>
  <course>210.77</course>
  <speed>27.12</speed>
  <fix>3d</fix>
</trkpt>
<trkpt lat="-27.2713323" lon="151.2914665">
  <ele>343.0</ele>
  <time>2026-09-01T19:57:02Z</time>
  <course>43.72</course>
  <speed>4.993455717236311</speed>
  <fix>3d</fix>
</trkpt>
<trkpt lat="-27.2728926" lon="151.2911678">
  <ele>423.01</ele>
  <time>2026-09-01T19:57:02Z</time>
  <course>207.43</course>
  <speed>27.255371947562924</speed>
  <fix>3d</fix>
</trkpt>
<trkpt lat="-27.2728308" lon="151.2912041">
  <ele>423.99</ele>
  <time>2026-09-01T19:57:02Z</time>
  <course>210.77</course>
  <speed>27.12</speed>
  <fix>3d</fix>
</trkpt>
<trkpt lat="-27.2729149" lon="151.2911559">
  <ele>422.74</ele>
  <time>2026-09-01T19:57:02Z</time>
  <course>206.01</course>
  <speed>27.319363096529173</speed>
  <fix>3d</fix>
</trkpt>
<trkpt lat="-27.2728736" lon="151.2911773">
  <ele>423.38</ele>
  <time>2026-09-01T19:57:02Z</time>
  <course>207.46</course>
  <speed>27.31</speed>
  <fix>3d</fix>
</trkpt>
<trkpt lat="-27.2713258" lon="151.2914735">
  <ele>343.0</ele>
  <time>2026-09-01T19:57:02Z</time>
  <course>43.83</course>
  <speed>4.993155315028765</speed>
  <fix>3d</fix>
</trkpt>
<trkpt lat="-27.2729375" lon="151.2911447">
  <ele>422.47</ele>
  <time>2026-09-01T19:57:02Z</time>
  <course>204.66</course>
  <speed>27.38324305118004</speed>
  <fix>3d</fix>
</trkpt>
<trkpt lat="-27.2728736" lon="151.2911773">
  <ele>423.38</ele>
  <time>2026-09-01T19:57:02Z</time>
  <course>207.46</course>
  <speed>27.31</speed>
  <fix>3d</fix>
</trkpt>
<trkpt lat="-27.2729613" lon="151.2911337">
  <ele>422.21</ele>
  <time>2026-09-01T19:57:02Z</time>
  <course>203.44</course>
  <speed>27.440892842617203</speed>
  <fix>3d</fix>
</trkpt>
<trkpt lat="-27.272918" lon="151.2911532">
  <ele>422.82</ele>
  <time>2026-09-01T19:57:02Z</time>
  <course>204.3</course>
  <speed>27.46</speed>
  <fix>3d</fix>
</trkpt>
<trkpt lat="-27.2713194" lon="151.2914805">
  <ele>343.0</ele>
  <time>2026-09-01T19:57:02Z</time>
  <course>43.95</course>
  <speed>4.992894951829049</speed>
  <fix>3d</fix>
</trkpt>
<trkpt lat="-27.2729843" lon="151.2911238">
  <ele>421.97</ele>
  <time>2026-09-01T19:57:02Z</time>
  <course>202.48</course>
  <speed>27.474686531423796</speed>
  <fix>3d</fix>
</trkpt>
<trkpt lat="-27.272918" lon="151.2911532">
  <ele>422.82</ele>
  <time>2026-09-01T19:57:02Z</time>
  <course>204.3</course>
  <speed>27.46</speed>
  <fix>3d</fix>
</trkpt>
<trkpt lat="-27.2730077" lon="151.2911142">
  <ele>421.73</ele>
  <time>2026-09-01T19:57:02Z</time>
  <course>201.73</course>
  <speed>27.502145370861527</speed>
  <fix>3d</fix>
</trkpt>
<trkpt lat="-27.2729635" lon="151.2911315">
  <ele>422.31</ele>
  <time>2026-09-01T19:57:02Z</time>
  <course>201.48</course>
  <speed>27.57</speed>
  <fix>3d</fix>
</trkpt>
<trkpt lat="-27.271313" lon="151.2914876">
  <ele>343.0</ele>
  <time>2026-09-01T19:57:02Z</time>
  <course>44.06</course>
  <speed>4.992894951829049</speed>
  <fix>3d</fix>
</trkpt>
<trkpt lat="-27.2730312" lon="151.2911051">
  <ele>421.49</ele>
  <time>2026-09-01T19:57:02Z</time>
  <course>201.13</course>
  <speed>27.51188833940702</speed>
  <fix>3d</fix>
</trkpt>
<trkpt lat="-27.2729635" lon="151.2911315">
  <ele>422.31</ele>
  <time>2026-09-01T19:57:02Z</time>
  <course>201.48</course>
  <speed>27.57</speed>
  <fix>3d</fix>
</trkpt>
<trkpt lat="-27.2730548" lon="151.2910961">
  <ele>421.25</ele>
  <time>2026-09-01T19:57:02Z</time>
  <course>200.69</course>
  <speed>27.505875735922313</speed>
  <fix>3d</fix>
</trkpt>
<trkpt lat="-27.27301" lon="151.2911121">
  <ele>421.82</ele>
  <time>2026-09-01T19:57:02Z</time>
  <course>199.31</course>
  <speed>27.63</speed>
  <fix>3d</fix>
</trkpt>
<trkpt lat="-27.2713065" lon="151.2914946">
  <ele>343.0</ele>
  <time>2026-09-01T19:57:02Z</time>
  <course>44.18</course>
  <speed>4.992674633901151</speed>
  <fix>3d</fix>
</trkpt>
<trkpt lat="-27.2730786" lon="151.2910873">
  <ele>421.01</ele>
  <time>2026-09-01T19:57:02Z</time>
  <course>200.29</course>
  <speed>27.487513528873432</speed>
  <fix>3d</fix>
</trkpt>
<trkpt lat="-27.27301" lon="151.2911121">
  <ele>421.82</ele>
  <time>2026-09-01T19:57:02Z</time>
  <course>199.31</course>
  <speed>27.63</speed>
  <fix>3d</fix>
</trkpt>
<trkpt lat="-27.2731023" lon="151.2910786">
  <ele>420.76</ele>
  <time>2026-09-01T19:57:02Z</time>
  <course>199.92</course>
  <speed>27.458734493781755</speed>
  <fix>3d</fix>
</trkpt>
<trkpt lat="-27.2730571" lon="151.2910944">
  <ele>421.34</ele>
  <time>2026-09-01T19:57:02Z</time>
  <course>198.1</course>
  <speed>27.62</speed>
  <fix>3d</fix>
</trkpt>
<trkpt lat="-27.2713001" lon="151.2915016">
  <ele>343.0</ele>
  <time>2026-09-01T19:57:02Z</time>
  <course>44.29</course>
  <speed>4.992494366546646</speed>
  <fix>3d</fix>
</trkpt>
<trkpt lat="-27.2731258" lon="151.2910698">
  <ele>420.49</ele>
  <time>2026-09-01T19:57:02Z</time>
  <course>199.54</course>
  <speed>27.42016228981878</speed>
  <fix>3d</fix>
</trkpt>
<trkpt lat="-27.2730571" lon="151.2910944">
  <ele>421.34</ele>
  <time>2026-09-01T19:57:02Z</time>
  <course>198.1</course>
  <speed>27.62</speed>
  <fix>3d</fix>
</trkpt>
<trkpt lat="-27.2731493" lon="151.2910609">
  <ele>420.2</ele>
  <time>2026-09-01T19:57:02Z</time>
  <course>199.21</course>
  <speed>27.37953250148731</speed>
  <fix>3d</fix>
</trkpt>
<trkpt lat="-27.2731042" lon="151.2910772">
  <ele>420.84</ele>
  <time>2026-09-01T19:57:02Z</time>
  <course>197.89</course>
  <speed>27.55</speed>
  <fix>3d</fix>
</trkpt>
<trkpt lat="-27.2712936" lon="151.2915087">
  <ele>343.0</ele>
  <time>2026-09-01T19:57:02Z</time>
  <course>44.4</course>
  <speed>4.992494366546646</speed>
  <fix>3d</fix>
</trkpt>
<trkpt lat="-27.2731726" lon="151.2910518">
  <ele>419.9</ele>
  <time>2026-09-01T19:57:02Z</time>
  <course>199.1</course>
  <speed>27.35171292625016</speed>
  <fix>3d</fix>
</trkpt>
<trkpt lat="-27.2731042" lon="151.2910772">
  <ele>420.84</ele>
  <time>2026-09-01T19:57:02Z</time>
  <course>197.89</course>
  <speed>27.55</speed>
  <fix>3d</fix>
</trkpt>
<trkpt lat="-27.2731959" lon="151.2910423">
  <ele>419.57</ele>
  <time>2026-09-01T19:57:02Z</time>
  <course>199.27</course>
  <speed>27.336422589651338</speed>
  <fix>3d</fix>
</trkpt>
<trkpt lat="-27.2731512" lon="151.2910599">
  <ele>420.28</ele>
  <time>2026-09-01T19:57:02Z</time>
  <course>198.57</course>
  <speed>27.46</speed>
  <fix>3d</fix>
</trkpt>
<trkpt lat="-27.2712872" lon="151.2915158">
  <ele>343.0</ele>
  <time>2026-09-01T19:57:02Z</time>
  <course>44.52</course>
  <speed>4.992354154104054</speed>
  <fix>3d</fix>
</trkpt>
<trkpt lat="-27.273219" lon="151.2910325">
  <ele>419.23</ele>
  <time>2026-09-01T19:57:02Z</time>
  <course>199.83</course>
  <speed>27.33885879110538</speed>
  <fix>3d</fix>
</trkpt>
<trkpt lat="-27.2731512" lon="151.2910599">
  <ele>420.28</ele>
  <time>2026-09-01T19:57:02Z</time>
  <course>198.57</course>
  <speed>27.46</speed>
  <fix>3d</fix>
</trkpt>
<trkpt lat="-27.2732419" lon="151.2910221">
  <ele>418.89</ele>
  <time>2026-09-01T19:57:02Z</time>
  <course>200.78</course>
  <speed>27.352316172492596</speed>
  <fix>3d</fix>
</trkpt>
<trkpt lat="-27.2731977" lon="151.2910416">
  <ele>419.64</ele>
  <time>2026-09-01T19:57:02Z</time>
  <course>200.03</course>
  <speed>27.39</speed>
  <fix>3d</fix>
</trkpt>
<trkpt lat="-27.2712808" lon="151.2915229">
  <ele>343.0</ele>
  <time>2026-09-01T19:57:02Z</time>
  <course>44.63</course>
  <speed>4.99225399994832</speed>
  <fix>3d</fix>
</trkpt>
<trkpt lat="-27.2732646" lon="151.2910111">
  <ele>418.55</ele>
  <time>2026-09-01T19:57:02Z</time>
  <course>202.0</course>
  <speed>27.384097575052568</speed>
  <fix>3d</fix>
</trkpt>
<trkpt lat="-27.2731977" lon="151.2910416">
  <ele>419.64</ele>
  <time>2026-09-01T19:57:02Z</time>
  <course>200.03</course>
  <speed>27.39</speed>
  <fix>3d</fix>
</trkpt>
<trkpt lat="-27.273287" lon="151.2909994">
  <ele>418.21</ele>
  <time>2026-09-01T19:57:02Z</time>
  <course>203.55</course>
  <speed>27.425243845770996</speed>
  <fix>3d</fix>
</trkpt>
<trkpt lat="-27.2732435" lon="151.2910216">
  <ele>418.96</ele>
  <time>2026-09-01T19:57:02Z</time>
  <course>202.35</course>
  <speed>27.38</speed>
  <fix>3d</fix>
</trkpt>
<trkpt lat="-27.2712745" lon="151.29153">
  <ele>343.0</ele>
  <time>2026-09-01T19:57:02Z</time>
  <course>44.75</course>
  <speed>4.999289949582841</speed>
  <fix>3d</fix>
</trkpt>
<trkpt lat="-27.2733091" lon="151.2909869">
  <ele>417.87</ele>
  <time>2026-09-01T19:57:02Z</time>
  <course>205.33</course>
  <speed>27.477660016820938</speed>
  <fix>3d</fix>
</trkpt>
<trkpt lat="-27.2732435" lon="151.2910216">
  <ele>418.96</ele>
  <time>2026-09-01T19:57:02Z</time>
  <course>202.35</course>
  <speed>27.38</speed>
  <fix>3d</fix>
</trkpt>
<trkpt lat="-27.2733309" lon="151.2909736">
  <ele>417.55</ele>
  <time>2026-09-01T19:57:02Z</time>
  <course>207.32</course>
  <speed>27.53077005824574</speed>
  <fix>3d</fix>
</trkpt>
<trkpt lat="-27.2732885" lon="151.2909993">
  <ele>418.28</ele>
  <time>2026-09-01T19:57:02Z</time>
  <course>205.48</course>
  <speed>27.42</speed>
  <fix>3d</fix>
</trkpt>
<trkpt lat="-27.2712681" lon="151.2915371">
  <ele>343.0</ele>
  <time>2026-09-01T19:57:02Z</time>
  <course>44.86</course>
  <speed>4.992193906490412</speed>
  <fix>3d</fix>
</trkpt>
<trkpt lat="-27.2733522" lon="151.2909594">
  <ele>417.23</ele>
  <time>2026-09-01T19:57:02Z</time>
  <course>209.48</course>
  <speed>27.58869514855677</speed>
  <fix>3d</fix>
</trkpt>
<trkpt lat="-27.2732885" lon="151.2909993">
  <ele>418.28</ele>
  <time>2026-09-01T19:57:02Z</time>
  <course>205.48</course>
  <speed>27.42</speed>
  <fix>3d</fix>
</trkpt>
<trkpt lat="-27.2733732" lon="151.2909444">
  <ele>416.93</ele>
  <time>2026-09-01T19:57:02Z</time>
  <course>211.7</course>
  <speed>27.64128072286087</speed>
  <fix>3d</fix>
</trkpt>
<trkpt lat="-27.2733324" lon="151.2909737">
  <ele>417.63</ele>
  <time>2026-09-01T19:57:02Z</time>
  <course>209.29</course>
  <speed>27.49</speed>
  <fix>3d</fix>
</trkpt>
<trkpt lat="-27.2712617" lon="151.2915443">
  <ele>343.0</ele>
  <time>2026-09-01T19:57:02Z</time>
  <course>44.98</course>
  <speed>4.992173875177025</speed>
  <fix>3d</fix>
</trkpt>
<trkpt lat="-27.2733935" lon="151.2909283">
  <ele>416.64</ele>
  <time>2026-09-01T19:57:02Z</time>
  <course>214.1</course>
  <speed>27.696889717078342</speed>
  <fix>3d</fix>
</trkpt>
<trkpt lat="-27.2733324" lon="151.2909737">
  <ele>417.63</ele>
  <time>2026-09-01T19:57:02Z</time>
  <course>209.29</course>
  <speed>27.49</speed>
  <fix>3d</fix>
</trkpt>
<trkpt lat="-27.2734129" lon="151.2909118">
  <ele>416.37</ele>
  <time>2026-09-01T19:57:02Z</time>
  <course>216.51</course>
  <speed>27.753720471316992</speed>
  <fix>3d</fix>
</trkpt>
<trkpt lat="-27.2733747" lon="151.2909446">
  <ele>417.02</ele>
  <time>2026-09-01T19:57:02Z</time>
  <course>213.66</course>
  <speed>27.57</speed>
  <fix>3d</fix>
</trkpt>
<trkpt lat="-27.2712553" lon="151.2915514">
  <ele>343.0</ele>
  <time>2026-09-01T19:57:02Z</time>
  <course>45.09</course>
  <speed>4.992193906490412</speed>
  <fix>3d</fix>
</trkpt>
<trkpt lat="-27.2734326" lon="151.2908932">
  <ele>416.09</ele>
  <time>2026-09-01T19:57:02Z</time>
  <course>219.22</course>
  <speed>27.807080033689264</speed>
  <fix>3d</fix>
</trkpt>
<trkpt lat="-27.2733747" lon="151.2909446">
  <ele>417.02</ele>
  <time>2026-09-01T19:57:02Z</time>
  <course>213.66</course>
  <speed>27.57</speed>
  <fix>3d</fix>
</trkpt>
<trkpt lat="-27.2734508" lon="151.2908745">
  <ele>415.84</ele>
  <time>2026-09-01T19:57:02Z</time>
  <course>221.88</course>
  <speed>27.84931597005571</speed>
  <fix>3d</fix>
</trkpt>
<trkpt lat="-27.2734148" lon="151.2909118">
  <ele>416.45</ele>
  <time>2026-09-01T19:57:02Z</time>
  <course>218.47</course>
  <speed>27.66</speed>
  <fix>3d</fix>
</trkpt>
<trkpt lat="-27.271249" lon="151.2915586">
  <ele>343.0</ele>
  <time>2026-09-01T19:57:02Z</time>
  <course>45.21</course>
  <speed>4.992193906490412</speed>
  <fix>3d</fix>
</trkpt>
<trkpt lat="-27.2734684" lon="151.2908546">
  <ele>415.59</ele>
  <time>2026-09-01T19:57:02Z</time>
  <course>224.51</course>
  <speed>27.902071607678167</speed>
  <fix>3d</fix>
</trkpt>
<trkpt lat="-27.2734148" lon="151.2909118">
  <ele>416.45</ele>
  <time>2026-09-01T19:57:02Z</time>
  <course>218.47</course>
  <speed>27.66</speed>
  <fix>3d</fix>
</trkpt>
<trkpt lat="-27.2734851" lon="151.290834">
  <ele>415.36</ele>
  <time>2026-09-01T19:57:02Z</time>
  <course>227.27</course>
  <speed>27.925517005061874</speed>
  <fix>3d</fix>
</trkpt>
<trkpt lat="-27.2734523" lon="151.2908751">
  <ele>415.93</ele>
  <time>2026-09-01T19:57:02Z</time>
  <course>223.69</course>
  <speed>27.74</speed>
  <fix>3d</fix>
</trkpt>
<trkpt lat="-27.2712427" lon="151.2915658">
  <ele>343.0</ele>
  <time>2026-09-01T19:57:02Z</time>
  <course>45.32</course>
  <speed>4.99225399994832</speed>
  <fix>3d</fix>
</trkpt>
<trkpt lat="-27.2735009" lon="151.2908123">
  <ele>415.14</ele>
  <time>2026-09-01T19:57:02Z</time>
  <course>230.08</course>
  <speed>27.95897709144596</speed>
  <fix>3d</fix>
</trkpt>
<trkpt lat="-27.2734523" lon="151.2908751">
  <ele>415.93</ele>
  <time>2026-09-01T19:57:02Z</time>
  <course>223.69</course>
  <speed>27.74</speed>
  <fix>3d</fix>
</trkpt>
<trkpt lat="-27.2735159" lon="151.2907898">
  <ele>414.92</ele>
  <time>2026-09-01T19:57:02Z</time>
  <course>232.95</course>
  <speed>27.976820762910144</speed>
  <fix>3d</fix>
</trkpt>
<trkpt lat="-27.2734866" lon="151.2908344">
  <ele>415.46</ele>
  <time>2026-09-01T19:57:02Z</time>
  <course>229.15</course>
  <speed>27.81</speed>
  <fix>3d</fix>
</trkpt>
<trkpt lat="-27.2712364" lon="151.2915729">
  <ele>343.0</ele>
  <time>2026-09-01T19:57:02Z</time>
  <course>45.44</course>
  <speed>4.992354154104054</speed>
  <fix>3d</fix>
</trkpt>
<trkpt lat="-27.2735298" lon="151.2907665">
  <ele>414.71</ele>
  <time>2026-09-01T19:57:02Z</time>
  <course>235.75</course>
  <speed>27.990319755229667</speed>
  <fix>3d</fix>
</trkpt>
<trkpt lat="-27.2734866" lon="151.2908344">
  <ele>415.46</ele>
  <time>2026-09-01T19:57:02Z</time>
  <course>229.15</course>
  <speed>27.81</speed>
  <fix>3d</fix>
</trkpt>
<trkpt lat="-27.2735426" lon="151.2907425">
  <ele>414.52</ele>
  <time>2026-09-01T19:57:02Z</time>
  <course>238.59</course>
  <speed>27.98580533055999</speed>
  <fix>3d</fix>
</trkpt>
<trkpt lat="-27.2735174" lon="151.2907901">
  <ele>415.03</ele>
  <time>2026-09-01T19:57:02Z</time>
  <course>234.75</course>
  <speed>27.86</speed>
  <fix>3d</fix>
</trkpt>
<trkpt lat="-27.2712301" lon="151.2915801">
  <ele>343.0</ele>
  <time>2026-09-01T19:57:02Z</time>
  <course>45.55</course>
  <speed>4.992354154104054</speed>
  <fix>3d</fix>
</trkpt>
<trkpt lat="-27.2735544" lon="151.2907178">
  <ele>414.32</ele>
  <time>2026-09-01T19:57:02Z</time>
  <course>241.39</course>
  <speed>27.986696839748703</speed>
  <fix>3d</fix>
</trkpt>
<trkpt lat="-27.2735174" lon="151.2907901">
  <ele>415.03</ele>
  <time>2026-09-01T19:57:02Z</time>
  <course>234.75</course>
  <speed>27.86</speed>
  <fix>3d</fix>
</trkpt>
<trkpt lat="-27.2735651" lon="151.2906925">
  <ele>414.14</ele>
  <time>2026-09-01T19:57:02Z</time>
  <course>244.1</course>
  <speed>27.97716926352629</speed>
  <fix>3d</fix>
</trkpt>
<trkpt lat="-27.2735443" lon="151.2907425">
  <ele>414.62</ele>
  <time>2026-09-01T19:57:02Z</time>
  <course>240.41</course>
  <speed>27.89</speed>
  <fix>3d</fix>
</trkpt>
<trkpt lat="-27.2712238" lon="151.2915874">
  <ele>343.0</ele>
  <time>2026-09-01T19:57:02Z</time>
  <course>45.66</course>
  <speed>4.992494366546646</speed>
  <fix>3d</fix>
</trkpt>
<trkpt lat="-27.2735747" lon="151.2906666">
  <ele>413.95</ele>
  <time>2026-09-01T19:57:02Z</time>
  <course>246.76</course>
  <speed>27.9537135279018</speed>
  <fix>3d</fix>
</trkpt>
<trkpt lat="-27.2735443" lon="151.2907425">
  <ele>414.62</ele>
  <time>2026-09-01T19:57:02Z</time>
  <course>240.41</course>
  <speed>27.89</speed>
  <fix>3d</fix>
</trkpt>
<trkpt lat="-27.2735833" lon="151.2906403">
  <ele>413.76</ele>
  <time>2026-09-01T19:57:02Z</time>
  <course>249.53</course>
  <speed>27.929339412166556</speed>
  <fix>3d</fix>
</trkpt>
<trkpt lat="-27.2735668" lon="151.2906923">
  <ele>414.24</ele>
  <time>2026-09-01T19:57:02Z</time>
  <course>246.0</course>
  <speed>27.89</speed>
  <fix>3d</fix>
</trkpt>
<trkpt lat="-27.2712176" lon="151.2915946">
  <ele>343.0</ele>
  <time>2026-09-01T19:57:02Z</time>
  <course>45.78</course>
  <speed>4.992674633901151</speed>
  <fix>3d</fix>
</trkpt>
<trkpt lat="-27.2735906" lon="151.2906135">
  <ele>413.58</ele>
  <time>2026-09-01T19:57:02Z</time>
  <course>252.19</course>
  <speed>27.904023007444643</speed>
  <fix>3d</fix>
</trkpt>
<trkpt lat="-27.2735668" lon="151.2906923">
  <ele>414.24</ele>
  <time>2026-09-01T19:57:02Z</time>
  <course>246.0</course>
  <speed>27.89</speed>
  <fix>3d</fix>
</trkpt>
<trkpt lat="-27.2735969" lon="151.2905865">
  <ele>413.39</ele>
  <time>2026-09-01T19:57:02Z</time>
  <course>254.75</course>
  <speed>27.850351882875735</speed>
  <fix>3d</fix>
</trkpt>
<trkpt lat="-27.2735849" lon="151.2906398">
  <ele>413.87</ele>
  <time>2026-09-01T19:57:02Z</time>
  <course>251.49</course>
  <speed>27.86</speed>
  <fix>3d</fix>
</trkpt>
<trkpt lat="-27.2712113" lon="151.2916018">
  <ele>343.0</ele>
  <time>2026-09-01T19:57:02Z</time>
  <course>45.89</course>
  <speed>4.992894951829049</speed>
  <fix>3d</fix>
</trkpt>
<trkpt lat="-27.2736021" lon="151.2905591">
  <ele>413.21</ele>
  <time>2026-09-01T19:57:02Z</time>
  <course>257.33</course>
  <speed>27.805082269254303</speed>
  <fix>3d</fix>
</trkpt>
<trkpt lat="-27.2735849" lon="151.2906398">
  <ele>413.87</ele>
  <time>2026-09-01T19:57:02Z</time>
  <course>251.49</course>
  <speed>27.86</speed>
  <fix>3d</fix>
</trkpt>
<trkpt lat="-27.2736062" lon="151.2905316">
  <ele>413.02</ele>
  <time>2026-09-01T19:57:02Z</time>
  <course>259.85</course>
  <speed>27.748666634633096</speed>
  <fix>3d</fix>
</trkpt>
<trkpt lat="-27.2735986" lon="151.2905857">
  <ele>413.5</ele>
  <time>2026-09-01T19:57:02Z</time>
  <course>256.83</course>
  <speed>27.8</speed>
  <fix>3d</fix>
</trkpt>
<trkpt lat="-27.2712051" lon="151.2916091">
  <ele>343.0</ele>
  <time>2026-09-01T19:57:02Z</time>
  <course>46.01</course>
  <speed>4.992894951829049</speed>
  <fix>3d</fix>
</trkpt>
<trkpt lat="-27.2736092" lon="151.290504">
  <ele>412.82</ele>
  <time>2026-09-01T19:57:02Z</time>
  <course>262.3</course>
  <speed>27.690455034181</speed>
  <fix>3d</fix>
</trkpt>
<trkpt lat="-27.2735986" lon="151.2905857">
  <ele>413.5</ele>
  <time>2026-09-01T19:57:02Z</time>
  <course>256.83</course>
  <speed>27.8</speed>
  <fix>3d</fix>
</trkpt>
<trkpt lat="-27.2736111" lon="151.2904763">
  <ele>412.62</ele>
  <time>2026-09-01T19:57:02Z</time>
  <course>264.72</course>
  <speed>27.626005864040497</speed>
  <fix>3d</fix>
</trkpt>
<trkpt lat="-27.2736077" lon="151.2905304">
  <ele>413.11</ele>
  <time>2026-09-01T19:57:02Z</time>
  <course>261.99</course>
  <speed>27.72</speed>
  <fix>3d</fix>
</trkpt>
<trkpt lat="-27.2711988" lon="151.2916164">
  <ele>343.0</ele>
  <time>2026-09-01T19:57:02Z</time>
  <course>46.12</course>
  <speed>4.993155315028765</speed>
  <fix>3d</fix>
</trkpt>
<trkpt lat="-27.273612" lon="151.2904486">
  <ele>412.4</ele>
  <time>2026-09-01T19:57:02Z</time>
  <course>267.14</course>
  <speed>27.55113427792039</speed>
  <fix>3d</fix>
</trkpt>
<trkpt lat="-27.2736077" lon="151.2905304">
  <ele>413.11</ele>
  <time>2026-09-01T19:57:02Z</time>
  <course>261.99</course>
  <speed>27.72</speed>
  <fix>3d</fix>
</trkpt>
<trkpt lat="-27.2736118" lon="151.2904209">
  <ele>412.18</ele>
  <time>2026-09-01T19:57:02Z</time>
  <course>269.53</course>
  <speed>27.464102024278894</speed>
  <fix>3d</fix>
</trkpt>
<trkpt lat="-27.2736125" lon="151.2904747">
  <ele>412.69</ele>
  <time>2026-09-01T19:57:02Z</time>
  <course>266.98</course>
  <speed>27.61</speed>
  <fix>3d</fix>
</trkpt>
<trkpt lat="-27.2711926" lon="151.2916237">
  <ele>343.0</ele>
  <time>2026-09-01T19:57:02Z</time>
  <course>46.24</course>
  <speed>4.993455717236311</speed>
  <fix>3d</fix>
</trkpt>
<trkpt lat="-27.2736106" lon="151.2903933">
  <ele>411.94</ele>
  <time>2026-09-01T19:57:02Z</time>
  <course>271.87</course>
  <speed>27.383867513556226</speed>
  <fix>3d</fix>
</trkpt>
<trkpt lat="-27.2736125" lon="151.2904747">
  <ele>412.69</ele>
  <time>2026-09-01T19:57:02Z</time>
  <course>266.98</course>
  <speed>27.61</speed>
  <fix>3d</fix>
</trkpt>
<trkpt lat="-27.2736085" lon="151.2903659">
  <ele>411.69</ele>
  <time>2026-09-01T19:57:02Z</time>
  <course>274.17</course>
  <speed>27.296600520943993</speed>
  <fix>3d</fix>
</trkpt>
<trkpt lat="-27.273613" lon="151.290419">
  <ele>412.24</ele>
  <time>2026-09-01T19:57:02Z</time>
  <course>271.8</course>
  <speed>27.47</speed>
  <fix>3d</fix>
</trkpt>
<trkpt lat="-27.2711864" lon="151.291631">
  <ele>343.0</ele>
  <time>2026-09-01T19:57:02Z</time>
  <course>46.35</course>
  <speed>4.993455717236311</speed>
  <fix>3d</fix>
</trkpt>
<trkpt lat="-27.2736054" lon="151.2903387">
  <ele>411.42</ele>
  <time>2026-09-01T19:57:02Z</time>
  <course>276.46</course>
  <speed>27.214485113630204</speed>
  <fix>3d</fix>
</trkpt>
<trkpt lat="-27.273613" lon="151.290419">
  <ele>412.24</ele>
  <time>2026-09-01T19:57:02Z</time>
  <course>271.8</course>
  <speed>27.47</speed>
  <fix>3d</fix>
</trkpt>
<trkpt lat="-27.2736013" lon="151.2903117">
  <ele>411.14</ele>
  <time>2026-09-01T19:57:02Z</time>
  <course>278.76</course>
  <speed>27.121019523609355</speed>
  <fix>3d</fix>
</trkpt>
<trkpt lat="-27.2736094" lon="151.2903638">
  <ele>411.74</ele>
  <time>2026-09-01T19:57:02Z</time>
  <course>276.53</course>
  <speed>27.31</speed>
  <fix>3d</fix>
</trkpt>
<trkpt lat="-27.2711802" lon="151.2916383">
  <ele>343.0</ele>
  <time>2026-09-01T19:57:02Z</time>
  <course>46.47</course>
  <speed>4.993796151226039</speed>
  <fix>3d</fix>
</trkpt>
<trkpt lat="-27.2735962" lon="151.290285">
  <ele>410.85</ele>
  <time>2026-09-01T19:57:02Z</time>
  <course>281.02</course>
  <speed>27.037065299325665</speed>
  <fix>3d</fix>
</trkpt>
<trkpt lat="-27.2736094" lon="151.2903638">
  <ele>411.74</ele>
  <time>2026-09-01T19:57:02Z</time>
  <course>276.53</course>
  <speed>27.31</speed>
  <fix>3d</fix>
</trkpt>
<trkpt lat="-27.2735903" lon="151.2902586">
  <ele>410.54</ele>
  <time>2026-09-01T19:57:02Z</time>
  <course>283.31</course>
  <speed>26.951825541139137</speed>
  <fix>3d</fix>
</trkpt>
<trkpt lat="-27.2736018" lon="151.2903094">
  <ele>411.18</ele>
  <time>2026-09-01T19:57:02Z</time>
  <course>281.16</course>
  <speed>27.15</speed>
  <fix>3d</fix>
</trkpt>
<trkpt lat="-27.271174" lon="151.2916457">
  <ele>343.0</ele>
  <time>2026-09-01T19:57:02Z</time>
  <course>46.58</course>
  <speed>4.9941766088115065</speed>
  <fix>3d</fix>
</trkpt>
<trkpt lat="-27.2735834" lon="151.2902328">
  <ele>410.22</ele>
  <time>2026-09-01T19:57:02Z</time>
  <course>285.58</course>
  <speed>26.86767574614522</speed>
  <fix>3d</fix>
</trkpt>
<trkpt lat="-27.2736018" lon="151.2903094">
  <ele>411.18</ele>
  <time>2026-09-01T19:57:02Z</time>
  <course>281.16</course>
  <speed>27.15</speed>
  <fix>3d</fix>
</trkpt>
<trkpt lat="-27.2735755" lon="151.2902068">
  <ele>409.88</ele>
  <time>2026-09-01T19:57:02Z</time>
  <course>287.83</course>
  <speed>26.781794189336907</speed>
  <fix>3d</fix>
</trkpt>
<trkpt lat="-27.2735906" lon="151.2902562">
  <ele>410.57</ele>
  <time>2026-09-01T19:57:02Z</time>
  <course>285.74</course>
  <speed>26.99</speed>
  <fix>3d</fix>
</trkpt>
<trkpt lat="-27.2711678" lon="151.291653">
  <ele>343.0</ele>
  <time>2026-09-01T19:57:02Z</time>
  <course>46.69</course>
  <speed>4.987313906302671</speed>
  <fix>3d</fix>
</trkpt>
<trkpt lat="-27.2735669" lon="151.2901816">
  <ele>409.53</ele>
  <time>2026-09-01T19:57:02Z</time>
  <course>290.03</course>
  <speed>26.68784929513804</speed>
  <fix>3d</fix>
</trkpt>
<trkpt lat="-27.2735906" lon="151.2902562">
  <ele>410.57</ele>
  <time>2026-09-01T19:57:02Z</time>
  <course>285.74</course>
  <speed>26.99</speed>
  <fix>3d</fix>
</trkpt>
<trkpt lat="-27.2735574" lon="151.2901569">
  <ele>409.16</ele>
  <time>2026-09-01T19:57:02Z</time>
  <course>292.25</course>
  <speed>26.60188903066848</speed>
  <fix>3d</fix>
</trkpt>
<trkpt lat="-27.2735757" lon="151.2902045">
  <ele>409.9</ele>
  <time>2026-09-01T19:57:02Z</time>
  <course>290.26</course>
  <speed>26.83</speed>
  <fix>3d</fix>
</trkpt>
<trkpt lat="-27.2711617" lon="151.2916604">
  <ele>343.0</ele>
  <time>2026-09-01T19:57:02Z</time>
  <course>46.81</course>
  <speed>4.994597080846462</speed>
  <fix>3d</fix>
</trkpt>
<trkpt lat="-27.2735472" lon="151.2901328">
  <ele>408.78</ele>
  <time>2026-09-01T19:57:02Z</time>
  <course>294.48</course>
  <speed>26.50666708584842</speed>
  <fix>3d</fix>
</trkpt>
<trkpt lat="-27.2735757" lon="151.2902045">
  <ele>409.9</ele>
  <time>2026-09-01T19:57:02Z</time>
  <course>290.26</course>
  <speed>26.83</speed>
  <fix>3d</fix>
</trkpt>
<trkpt lat="-27.2735361" lon="151.2901091">
  <ele>408.39</ele>
  <time>2026-09-01T19:57:02Z</time>
  <course>296.67</course>
  <speed>26.418978027168272</speed>
  <fix>3d</fix>
</trkpt>
<trkpt lat="-27.2735573" lon="151.2901546">
  <ele>409.17</ele>
  <time>2026-09-01T19:57:02Z</time>
  <course>294.71</course>
  <speed>26.66</speed>
  <fix>3d</fix>
</trkpt>
<trkpt lat="-27.2711556" lon="151.2916677">
  <ele>343.0</ele>
  <time>2026-09-01T19:57:02Z</time>
  <course>46.92</course>
  <speed>4.995057557225943</speed>
  <fix>3d</fix>
</trkpt>
<trkpt lat="-27.2735243" lon="151.290086">
  <ele>407.97</ele>
  <time>2026-09-01T19:57:02Z</time>
  <course>298.88</course>
  <speed>26.33387362314933</speed>
  <fix>3d</fix>
</trkpt>
<trkpt lat="-27.2735573" lon="151.2901546">
  <ele>409.17</ele>
  <time>2026-09-01T19:57:02Z</time>
  <course>294.71</course>
  <speed>26.66</speed>
  <fix>3d</fix>
</trkpt>
<trkpt lat="-27.2735117" lon="151.2900636">
  <ele>407.55</ele>
  <time>2026-09-01T19:57:02Z</time>
  <course>301.09</course>
  <speed>26.245963499174493</speed>
  <fix>3d</fix>
</trkpt>
<trkpt lat="-27.2735356" lon="151.2901068">
  <ele>408.39</ele>
  <time>2026-09-01T19:57:02Z</time>
  <course>299.12</course>
  <speed>26.49</speed>
  <fix>3d</fix>
</trkpt>
<trkpt lat="-27.2711494" lon="151.2916751">
  <ele>343.0</ele>
  <time>2026-09-01T19:57:02Z</time>
  <course>47.04</course>
  <speed>4.9882361612096915</speed>
  <fix>3d</fix>
</trkpt>
<trkpt lat="-27.2734984" lon="151.2900417">
  <ele>407.1</ele>
  <time>2026-09-01T19:57:02Z</time>
  <course>303.32</course>
  <speed>26.158080969367766</speed>
  <fix>3d</fix>
</trkpt>
<trkpt lat="-27.2735356" lon="151.2901068">
  <ele>408.39</ele>
  <time>2026-09-01T19:57:02Z</time>
  <course>299.12</course>
  <speed>26.49</speed>
  <fix>3d</fix>
</trkpt>
<trkpt lat="-27.2734845" lon="151.2900205">
  <ele>406.65</ele>
  <time>2026-09-01T19:57:02Z</time>
  <course>305.55</course>
  <speed>26.075814464748746</speed>
  <fix>3d</fix>
</trkpt>
<trkpt lat="-27.273511" lon="151.2900612">
  <ele>407.54</ele>
  <time>2026-09-01T19:57:02Z</time>
  <course>303.52</course>
  <speed>26.32</speed>
  <fix>3d</fix>
</trkpt>
<trkpt lat="-27.2711433" lon="151.2916825">
  <ele>343.0</ele>
  <time>2026-09-01T19:57:02Z</time>
  <course>47.15</course>
  <speed>4.988757360305269</speed>
  <fix>3d</fix>
</trkpt>
<trkpt lat="-27.2734698" lon="151.29">
  <ele>406.18</ele>
  <time>2026-09-01T19:57:02Z</time>
  <course>307.85</course>
  <speed>26.00335747552612</speed>
  <fix>3d</fix>
</trkpt>
<trkpt lat="-27.273511" lon="151.2900612">
  <ele>407.54</ele>
  <time>2026-09-01T19:57:02Z</time>
  <course>303.52</course>
  <speed>26.32</speed>
  <fix>3d</fix>
</trkpt>
<trkpt lat="-27.2734545" lon="151.2899802">
  <ele>405.7</ele>
  <time>2026-09-01T19:57:02Z</time>
  <course>310.13</course>
  <speed>25.93561258193066</speed>
  <fix>3d</fix>
</trkpt>
<trkpt lat="-27.2734835" lon="151.2900182">
  <ele>406.63</ele>
  <time>2026-09-01T19:57:02Z</time>
  <course>307.97</course>
  <speed>26.16</speed>
  <fix>3d</fix>
</trkpt>
<trkpt lat="-27.2711372" lon="151.29169">
  <ele>343.0</ele>
  <time>2026-09-01T19:57:02Z</time>
  <course>47.27</course>
  <speed>4.9960984778124615</speed>
  <fix>3d</fix>
</trkpt>
<trkpt lat="-27.2734385" lon="151.2899612">
  <ele>405.21</ele>
  <time>2026-09-01T19:57:02Z</time>
  <course>312.45</course>
  <speed>25.866352661324328</speed>
  <fix>3d</fix>
</trkpt>
<trkpt lat="-27.2734835" lon="151.2900182">
  <ele>406.63</ele>
  <time>2026-09-01T19:57:02Z</time>
  <course>307.97</course>
  <speed>26.16</speed>
  <fix>3d</fix>
</trkpt>
<trkpt lat="-27.2734219" lon="151.289943">
  <ele>404.72</ele>
  <time>2026-09-01T19:57:02Z</time>
  <course>314.74</course>
  <speed>25.803327304826407</speed>
  <fix>3d</fix>
</trkpt>
<trkpt lat="-27.2734532" lon="151.2899779">
  <ele>405.68</ele>
  <time>2026-09-01T19:57:02Z</time>
  <course>312.5</course>
  <speed>26.02</speed>
  <fix>3d</fix>
</trkpt>
<trkpt lat="-27.2711311" lon="151.2916974">
  <ele>343.0</ele>
  <time>2026-09-01T19:57:02Z</time>
  <course>47.38</course>
  <speed>4.989318590749643</speed>
  <fix>3d</fix>
</trkpt>
<trkpt lat="-27.2734046" lon="151.2899255">
  <ele>404.21</ele>
  <time>2026-09-01T19:57:02Z</time>
  <course>317.0</course>
  <speed>25.746458008821328</speed>
  <fix>3d</fix>
</trkpt>
<trkpt lat="-27.2734532" lon="151.2899779">
  <ele>405.68</ele>
  <time>2026-09-01T19:57:02Z</time>
  <course>312.5</course>
  <speed>26.02</speed>
  <fix>3d</fix>
</trkpt>
<trkpt lat="-27.2733869" lon="151.2899089">
  <ele>403.7</ele>
  <time>2026-09-01T19:57:02Z</time>
  <course>319.26</course>
  <speed>25.68443302858757</speed>
  <fix>3d</fix>
</trkpt>
<trkpt lat="-27.2734202" lon="151.2899406">
  <ele>404.7</ele>
  <time>2026-09-01T19:57:02Z</time>
  <course>317.09</course>
  <speed>25.89</speed>
  <fix>3d</fix>
</trkpt>
<trkpt lat="-27.271125" lon="151.2917048">
  <ele>343.0</ele>
  <time>2026-09-01T19:57:02Z</time>
  <course>47.5</course>
  <speed>4.989919839035493</speed>
  <fix>3d</fix>
</trkpt>
<trkpt lat="-27.2733685" lon="151.2898931">
  <ele>403.18</ele>
  <time>2026-09-01T19:57:02Z</time>
  <course>321.56</course>
  <speed>25.621641243292746</speed>
  <fix>3d</fix>
</trkpt>
<trkpt lat="-27.2734202" lon="151.2899406">
  <ele>404.7</ele>
  <time>2026-09-01T19:57:02Z</time>
  <course>317.09</course>
  <speed>25.89</speed>
  <fix>3d</fix>
</trkpt>
<trkpt lat="-27.2733497" lon="151.2898781">
  <ele>402.65</ele>
  <time>2026-09-01T19:57:02Z</time>
  <course>323.83</course>
  <speed>25.569170889960432</speed>
  <fix>3d</fix>
</trkpt>
<trkpt lat="-27.273385" lon="151.2899066">
  <ele>403.68</ele>
  <time>2026-09-01T19:57:02Z</time>
  <course>321.63</course>
  <speed>25.77</speed>
  <fix>3d</fix>
</trkpt>
<trkpt lat="-27.271119" lon="151.2917123">
  <ele>343.0</ele>
  <time>2026-09-01T19:57:02Z</time>
  <course>47.61</course>
  <speed>4.997299270606074</speed>
  <fix>3d</fix>
</trkpt>
<trkpt lat="-27.2733304" lon="151.2898641">
  <ele>402.12</ele>
  <time>2026-09-01T19:57:02Z</time>
  <course>326.07</course>
  <speed>25.52619243052124</speed>
  <fix>3d</fix>
</trkpt>
<trkpt lat="-27.273385" lon="151.2899066">
  <ele>403.68</ele>
  <time>2026-09-01T19:57:02Z</time>
  <course>321.63</course>
  <speed>25.77</speed>
  <fix>3d</fix>
</trkpt>
<trkpt lat="-27.2733107" lon="151.2898509">
  <ele>401.58</ele>
  <time>2026-09-01T19:57:02Z</time>
  <course>328.29</course>
  <speed>25.483269021065567</speed>
  <fix>3d</fix>
</trkpt>
<trkpt lat="-27.2733477" lon="151.289876">
  <ele>402.64</ele>
  <time>2026-09-01T19:57:02Z</time>
  <course>326.16</course>
  <speed>25.67</speed>
  <fix>3d</fix>
</trkpt>
<trkpt lat="-27.2711129" lon="151.2917198">
  <ele>343.0</ele>
  <time>2026-09-01T19:57:02Z</time>
  <course>47.72</course>
  <speed>4.990561090699121</speed>
  <fix>3d</fix>
</trkpt>
<trkpt lat="-27.2732906" lon="151.2898386">
  <ele>401.03</ele>
  <time>2026-09-01T19:57:02Z</time>
  <course>330.46</course>
  <speed>25.434909081811167</speed>
  <fix>3d</fix>
</trkpt>
<trkpt lat="-27.2733477" lon="151.289876">
  <ele>402.64</ele>
  <time>2026-09-01T19:57:02Z</time>
  <course>326.16</course>
  <speed>25.67</speed>
  <fix>3d</fix>
</trkpt>
<trkpt lat="-27.2732702" lon="151.2898272">
  <ele>400.49</ele>
  <time>2026-09-01T19:57:03Z</time>
  <course>332.62</course>
  <speed>25.396710416902422</speed>
  <fix>3d</fix>
</trkpt>
<trkpt lat="-27.2733085" lon="151.2898489">
  <ele>401.57</ele>
  <time>2026-09-01T19:57:03Z</time>
  <course>330.64</course>
  <speed>25.57</speed>
  <fix>3d</fix>
</trkpt>
<trkpt lat="-27.2711069" lon="151.2917272">
  <ele>343.0</ele>
  <time>2026-09-01T19:57:03Z</time>
  <course>47.84</course>
  <speed>4.991242330322181</speed>
  <fix>3d</fix>
</trkpt>
<trkpt lat="-27.2732494" lon="151.2898167">
  <ele>399.94</ele>
  <time>2026-09-01T19:57:03Z</time>
  <course>334.77</course>
  <speed>25.363438252729065</speed>
  <fix>3d</fix>
</trkpt>
<trkpt lat="-27.2733085" lon="151.2898489">
  <ele>401.57</ele>
  <time>2026-09-01T19:57:03Z</time>
  <course>330.64</course>
  <speed>25.57</speed>
  <fix>3d</fix>
</trkpt>
<trkpt lat="-27.2732282" lon="151.2898071">
  <ele>399.38</ele>
  <time>2026-09-01T19:57:03Z</time>
  <course>336.84</course>
  <speed>25.32328770124448</speed>
  <fix>3d</fix>
</trkpt>
<trkpt lat="-27.2732677" lon="151.2898253">
  <ele>400.49</ele>
  <time>2026-09-01T19:57:03Z</time>
  <course>335.03</course>
  <speed>25.49</speed>
  <fix>3d</fix>
</trkpt>
<trkpt lat="-27.2711009" lon="151.2917347">
  <ele>343.0</ele>
  <time>2026-09-01T19:57:03Z</time>
  <course>47.95</course>
  <speed>4.991963541533532</speed>
  <fix>3d</fix>
</trkpt>
<trkpt lat="-27.2732068" lon="151.2897984">
  <ele>398.83</ele>
  <time>2026-09-01T19:57:03Z</time>
  <course>338.9</course>
  <speed>25.29227945441059</speed>
  <fix>3d</fix>
</trkpt>
<trkpt lat="-27.2732677" lon="151.2898253">
  <ele>400.49</ele>
  <time>2026-09-01T19:57:03Z</time>
  <course>335.03</course>
  <speed>25.49</speed>
  <fix>3d</fix>
</trkpt>
<trkpt lat="-27.2731849" lon="151.2897904">
  <ele>398.27</ele>
  <time>2026-09-01T19:57:03Z</time>
  <course>340.95</course>
  <speed>25.265541751563532</speed>
  <fix>3d</fix>
</trkpt>
<trkpt lat="-27.2732256" lon="151.2898054">
  <ele>399.4</ele>
  <time>2026-09-01T19:57:03Z</time>
  <course>339.29</course>
  <speed>25.42</speed>
  <fix>3d</fix>
</trkpt>
<trkpt lat="-27.2710949" lon="151.2917423">
  <ele>343.0</ele>
  <time>2026-09-01T19:57:03Z</time>
  <course>48.07</course>
  <speed>4.991963541533532</speed>
  <fix>3d</fix>
</trkpt>
<trkpt lat="-27.273163" lon="151.2897835">
  <ele>397.71</ele>
  <time>2026-09-01T19:57:03Z</time>
  <course>342.91</course>
  <speed>25.23505696446909</speed>
  <fix>3d</fix>
</trkpt>
<trkpt lat="-27.2732256" lon="151.2898054">
  <ele>399.4</ele>
  <time>2026-09-01T19:57:03Z</time>
  <course>339.29</course>
  <speed>25.42</speed>
  <fix>3d</fix>
</trkpt>
<trkpt lat="-27.273141" lon="151.2897773">
  <ele>397.14</ele>
  <time>2026-09-01T19:57:03Z</time>
  <course>344.84</course>
  <speed>25.20320019362621</speed>
  <fix>3d</fix>
</trkpt>
<trkpt lat="-27.2731824" lon="151.2897891">
  <ele>398.29</ele>
  <time>2026-09-01T19:57:03Z</time>
  <course>343.4</course>
  <speed>25.35</speed>
  <fix>3d</fix>
</trkpt>
<trkpt lat="-27.2710889" lon="151.2917498">
  <ele>343.0</ele>
  <time>2026-09-01T19:57:03Z</time>
  <course>48.18</course>
  <speed>4.992724707011193</speed>
  <fix>3d</fix>
</trkpt>
<trkpt lat="-27.2731186" lon="151.289772">
  <ele>396.57</ele>
  <time>2026-09-01T19:57:03Z</time>
  <course>346.77</course>
  <speed>25.180160841424346</speed>
  <fix>3d</fix>
</trkpt>
<trkpt lat="-27.2731824" lon="151.2897891">
  <ele>398.29</ele>
  <time>2026-09-01T19:57:03Z</time>
  <course>343.4</course>
  <speed>25.35</speed>
  <fix>3d</fix>
</trkpt>
<trkpt lat="-27.2730963" lon="151.2897676">
  <ele>396.0</ele>
  <time>2026-09-01T19:57:03Z</time>
  <course>348.65</course>
  <speed>25.1572832396505</speed>
  <fix>3d</fix>
</trkpt>
<trkpt lat="-27.2731384" lon="151.2897762">
  <ele>397.18</ele>
  <time>2026-09-01T19:57:03Z</time>
  <course>347.34</course>
  <speed>25.29</speed>
  <fix>3d</fix>
</trkpt>
<trkpt lat="-27.2710829" lon="151.2917573">
  <ele>343.0</ele>
  <time>2026-09-01T19:57:03Z</time>
  <course>48.3</course>
  <speed>4.993525808484422</speed>
  <fix>3d</fix>
</trkpt>
<trkpt lat="-27.2730738" lon="151.2897639">
  <ele>395.43</ele>
  <time>2026-09-01T19:57:03Z</time>
  <course>350.52</course>
  <speed>25.143082547690923</speed>
  <fix>3d</fix>
</trkpt>
<trkpt lat="-27.2731384" lon="151.2897762">
  <ele>397.18</ele>
  <time>2026-09-01T19:57:03Z</time>
  <course>347.34</course>
  <speed>25.29</speed>
  <fix>3d</fix>
</trkpt>
<trkpt lat="-27.2730513" lon="151.2897611">
  <ele>394.87</ele>
  <time>2026-09-01T19:57:03Z</time>
  <course>352.36</course>
  <speed>25.137289034420554</speed>
  <fix>3d</fix>
</trkpt>
<trkpt lat="-27.2730938" lon="151.2897666">
  <ele>396.06</ele>
  <time>2026-09-01T19:57:03Z</time>
  <course>351.13</course>
  <speed>25.25</speed>
  <fix>3d</fix>
</trkpt>
<trkpt lat="-27.2710769" lon="151.2917649">
  <ele>343.0</ele>
  <time>2026-09-01T19:57:03Z</time>
  <course>48.41</course>
  <speed>4.986882793890388</speed>
  <fix>3d</fix>
</trkpt>
<trkpt lat="-27.2730287" lon="151.2897591">
  <ele>394.3</ele>
  <time>2026-09-01T19:57:03Z</time>
  <course>354.15</course>
  <speed>25.12723621889204</speed>
  <fix>3d</fix>
</trkpt>
<trkpt lat="-27.2730938" lon="151.2897666">
  <ele>396.06</ele>
  <time>2026-09-01T19:57:03Z</time>
  <course>351.13</course>
  <speed>25.25</speed>
  <fix>3d</fix>
</trkpt>
<trkpt lat="-27.2730061" lon="151.2897579">
  <ele>393.74</ele>
  <time>2026-09-01T19:57:03Z</time>
  <course>355.9</course>
  <speed>25.12180327922341</speed>
  <fix>3d</fix>
</trkpt>
<trkpt lat="-27.2730487" lon="151.2897603">
  <ele>394.93</ele>
  <time>2026-09-01T19:57:03Z</time>
  <course>354.81</course>
  <speed>25.21</speed>
  <fix>3d</fix>
</trkpt>
<trkpt lat="-27.2710709" lon="151.2917724">
  <ele>343.0</ele>
  <time>2026-09-01T19:57:03Z</time>
  <course>48.53</course>
  <speed>4.994366826735898</speed>
  <fix>3d</fix>
</trkpt>
<trkpt lat="-27.2729835" lon="151.2897574">
  <ele>393.18</ele>
  <time>2026-09-01T19:57:03Z</time>
  <course>357.62</course>
  <speed>25.120007961782175</speed>
  <fix>3d</fix>
</trkpt>
<trkpt lat="-27.2730487" lon="151.2897603">
  <ele>394.93</ele>
  <time>2026-09-01T19:57:03Z</time>
  <course>354.81</course>
  <speed>25.21</speed>
  <fix>3d</fix>
</trkpt>
<trkpt lat="-27.2729608" lon="151.2897577">
  <ele>392.62</ele>
  <time>2026-09-01T19:57:03Z</time>
  <course>359.32</course>
  <speed>25.130031834440636</speed>
  <fix>3d</fix>
</trkpt>
<trkpt lat="-27.2730035" lon="151.2897573">
  <ele>393.81</ele>
  <time>2026-09-01T19:57:03Z</time>
  <course>358.35</course>
  <speed>25.19</speed>
  <fix>3d</fix>
</trkpt>
<trkpt lat="-27.271065" lon="151.29178">
  <ele>343.0</ele>
  <time>2026-09-01T19:57:03Z</time>
  <course>48.64</course>
  <speed>4.995247741604014</speed>
  <fix>3d</fix>
</trkpt>
<trkpt lat="-27.2729381" lon="151.2897587">
  <ele>392.06</ele>
  <time>2026-09-01T19:57:03Z</time>
  <course>0.99</course>
  <speed>25.13071825475746</speed>
  <fix>3d</fix>
</trkpt>
<trkpt lat="-27.2730035" lon="151.2897573">
  <ele>393.81</ele>
  <time>2026-09-01T19:57:03Z</time>
  <course>358.35</course>
  <speed>25.19</speed>
  <fix>3d</fix>
</trkpt>
<trkpt lat="-27.2729155" lon="151.2897605">
  <ele>391.51</ele>
  <time>2026-09-01T19:57:03Z</time>
  <course>2.58</course>
  <speed>25.140393791665236</speed>
  <fix>3d</fix>
</trkpt>
<trkpt lat="-27.2729582" lon="151.2897575">
  <ele>392.69</ele>
  <time>2026-09-01T19:57:03Z</time>
  <course>1.75</course>
  <speed>25.19</speed>
  <fix>3d</fix>
</trkpt>
<trkpt lat="-27.2710591" lon="151.2917876">
  <ele>343.0</ele>
  <time>2026-09-01T19:57:03Z</time>
  <course>48.76</course>
  <speed>4.988647111191571</speed>
  <fix>3d</fix>
</trkpt>
<trkpt lat="-27.2728929" lon="151.289763">
  <ele>390.97</ele>
  <time>2026-09-01T19:57:03Z</time>
  <course>4.12</course>
  <speed>25.147488940250078</speed>
  <fix>3d</fix>
</trkpt>
<trkpt lat="-27.2729582" lon="151.2897575">
  <ele>392.69</ele>
  <time>2026-09-01T19:57:03Z</time>
  <course>1.75</course>
  <speed>25.19</speed>
  <fix>3d</fix>
</trkpt>
<trkpt lat="-27.2728704" lon="151.2897661">
  <ele>390.42</ele>
  <time>2026-09-01T19:57:03Z</time>
  <course>5.59</course>
  <speed>25.159054036270916</speed>
  <fix>3d</fix>
</trkpt>
<trkpt lat="-27.272913" lon="151.2897604">
  <ele>391.59</ele>
  <time>2026-09-01T19:57:03Z</time>
  <course>5.0</course>
  <speed>25.2</speed>
  <fix>3d</fix>
</trkpt>
<trkpt lat="-27.2710532" lon="151.2917952">
  <ele>343.0</ele>
  <time>2026-09-01T19:57:03Z</time>
  <course>48.87</course>
  <speed>4.989589161444056</speed>
  <fix>3d</fix>
</trkpt>
<trkpt lat="-27.272848" lon="151.2897699">
  <ele>389.88</ele>
  <time>2026-09-01T19:57:03Z</time>
  <course>7.01</course>
  <speed>25.172842509339308</speed>
  <fix>3d</fix>
</trkpt>
<trkpt lat="-27.272913" lon="151.2897604">
  <ele>391.59</ele>
  <time>2026-09-01T19:57:03Z</time>
  <course>5.0</course>
  <speed>25.2</speed>
  <fix>3d</fix>
</trkpt>
<trkpt lat="-27.2728256" lon="151.2897743">
  <ele>389.35</ele>
  <time>2026-09-01T19:57:03Z</time>
  <course>8.44</course>
  <speed>25.17690409879658</speed>
  <fix>3d</fix>
</trkpt>
<trkpt lat="-27.272868" lon="151.2897661">
  <ele>390.51</ele>
  <time>2026-09-01T19:57:03Z</time>
  <course>8.03</course>
  <speed>25.21</speed>
  <fix>3d</fix>
</trkpt>
<trkpt lat="-27.2710472" lon="151.2918028">
  <ele>343.0</ele>
  <time>2026-09-01T19:57:03Z</time>
  <course>48.98</course>
  <speed>4.997129175836863</speed>
  <fix>3d</fix>
</trkpt>
<trkpt lat="-27.2728036" lon="151.2897793">
  <ele>388.82</ele>
  <time>2026-09-01T19:57:03Z</time>
  <course>9.82</course>
  <speed>25.193096276559576</speed>
  <fix>3d</fix>
</trkpt>
<trkpt lat="-27.272868" lon="151.2897661">
  <ele>390.51</ele>
  <time>2026-09-01T19:57:03Z</time>
  <course>8.03</course>
  <speed>25.21</speed>
  <fix>3d</fix>
</trkpt>
<trkpt lat="-27.2727814" lon="151.2897849">
  <ele>388.29</ele>
  <time>2026-09-01T19:57:03Z</time>
  <course>11.2</course>
  <speed>25.210975784368205</speed>
  <fix>3d</fix>
</trkpt>
<trkpt lat="-27.2728234" lon="151.2897745">
  <ele>389.45</ele>
  <time>2026-09-01T19:57:03Z</time>
  <course>10.85</course>
  <speed>25.22</speed>
  <fix>3d</fix>
</trkpt>
<trkpt lat="-27.2710414" lon="151.2918105">
  <ele>343.0</ele>
  <time>2026-09-01T19:57:03Z</time>
  <course>49.1</course>
  <speed>4.9905711096025875</speed>
  <fix>3d</fix>
</trkpt>
<trkpt lat="-27.2727594" lon="151.289791">
  <ele>387.77</ele>
  <time>2026-09-01T19:57:03Z</time>
  <course>12.52</course>
  <speed>25.227465191731017</speed>
  <fix>3d</fix>
</trkpt>
<trkpt lat="-27.2728234" lon="151.2897745">
  <ele>389.45</ele>
  <time>2026-09-01T19:57:03Z</time>
  <course>10.85</course>
  <speed>25.22</speed>
  <fix>3d</fix>
</trkpt>
<trkpt lat="-27.2727374" lon="151.2897977">
  <ele>387.26</ele>
  <time>2026-09-01T19:57:03Z</time>
  <course>13.78</course>
  <speed>25.238670725693932</speed>
  <fix>3d</fix>
</trkpt>
<trkpt lat="-27.2727791" lon="151.2897853">
  <ele>388.4</ele>
  <time>2026-09-01T19:57:03Z</time>
  <course>13.5</course>
  <speed>25.24</speed>
  <fix>3d</fix>
</trkpt>
<trkpt lat="-27.2710355" lon="151.2918181">
  <ele>343.0</ele>
  <time>2026-09-01T19:57:03Z</time>
  <course>49.21</course>
  <speed>4.991592932120968</speed>
  <fix>3d</fix>
</trkpt>
<trkpt lat="-27.2727155" lon="151.289805">
  <ele>386.74</ele>
  <time>2026-09-01T19:57:03Z</time>
  <course>15.04</course>
  <speed>25.251687072352215</speed>
  <fix>3d</fix>
</trkpt>
<trkpt lat="-27.2727791" lon="151.2897853">
  <ele>388.4</ele>
  <time>2026-09-01T19:57:03Z</time>
  <course>13.5</course>
  <speed>25.24</speed>
  <fix>3d</fix>
</trkpt>
<trkpt lat="-27.2726938" lon="151.2898128">
  <ele>386.24</ele>
  <time>2026-09-01T19:57:03Z</time>
  <course>16.22</course>
  <speed>25.269905025543725</speed>
  <fix>3d</fix>
</trkpt>
<trkpt lat="-27.2727353" lon="151.2897983">
  <ele>387.37</ele>
  <time>2026-09-01T19:57:03Z</time>
  <course>16.01</course>
  <speed>25.26</speed>
  <fix>3d</fix>
</trkpt>
<trkpt lat="-27.2710297" lon="151.2918258">
  <ele>343.0</ele>
  <time>2026-09-01T19:57:03Z</time>
  <course>49.33</course>
  <speed>4.992654604516519</speed>
  <fix>3d</fix>
</trkpt>
<trkpt lat="-27.2726723" lon="151.289821">
  <ele>385.74</ele>
  <time>2026-09-01T19:57:03Z</time>
  <course>17.38</course>
  <speed>25.292127233587927</speed>
  <fix>3d</fix>
</trkpt>
<trkpt lat="-27.2727353" lon="151.2897983">
  <ele>387.37</ele>
  <time>2026-09-01T19:57:03Z</time>
  <course>16.01</course>
  <speed>25.26</speed>
  <fix>3d</fix>
</trkpt>
<trkpt lat="-27.2726508" lon="151.2898297">
  <ele>385.24</ele>
  <time>2026-09-01T19:57:03Z</time>
  <course>18.53</course>
  <speed>25.298468333082933</speed>
  <fix>3d</fix>
</trkpt>
<trkpt lat="-27.2726919" lon="151.2898134">
  <ele>386.36</ele>
  <time>2026-09-01T19:57:03Z</time>
  <course>18.38</course>
  <speed>25.29</speed>
  <fix>3d</fix>
</trkpt>
<trkpt lat="-27.2710238" lon="151.2918334">
  <ele>343.0</ele>
  <time>2026-09-01T19:57:03Z</time>
  <course>49.44</course>
  <speed>4.992654604516519</speed>
  <fix>3d</fix>
</trkpt>
<trkpt lat="-27.2726296" lon="151.2898389">
  <ele>384.75</ele>
  <time>2026-09-01T19:57:03Z</time>
  <course>19.67</course>
  <speed>25.323479223834944</speed>
  <fix>3d</fix>
</trkpt>
<trkpt lat="-27.2726919" lon="151.2898134">
  <ele>386.36</ele>
  <time>2026-09-01T19:57:03Z</time>
  <course>18.38</course>
  <speed>25.29</speed>
  <fix>3d</fix>
</trkpt>
<trkpt lat="-27.2726085" lon="151.2898486">
  <ele>384.26</ele>
  <time>2026-09-01T19:57:03Z</time>
  <course>20.76</course>
  <speed>25.340769522648674</speed>
  <fix>3d</fix>
</trkpt>
<trkpt lat="-27.2726491" lon="151.2898305">
  <ele>385.37</ele>
  <time>2026-09-01T19:57:03Z</time>
  <course>20.64</course>
  <speed>25.32</speed>
  <fix>3d</fix>
</trkpt>
<trkpt lat="-27.2710179" lon="151.2918411">
  <ele>343.0</ele>
  <time>2026-09-01T19:57:03Z</time>
  <course>49.56</course>
  <speed>4.993756101372994</speed>
  <fix>3d</fix>
</trkpt>
<trkpt lat="-27.2725875" lon="151.2898587">
  <ele>383.78</ele>
  <time>2026-09-01T19:57:03Z</time>
  <course>21.83</course>
  <speed>25.353516521382197</speed>
  <fix>3d</fix>
</trkpt>
<trkpt lat="-27.2726491" lon="151.2898305">
  <ele>385.37</ele>
  <time>2026-09-01T19:57:03Z</time>
  <course>20.64</course>
  <speed>25.32</speed>
  <fix>3d</fix>
</trkpt>
<trkpt lat="-27.2725667" lon="151.2898692">
  <ele>383.31</ele>
  <time>2026-09-01T19:57:03Z</time>
  <course>22.89</course>
  <speed>25.379590225218372</speed>
  <fix>3d</fix>
</trkpt>
<trkpt lat="-27.2726068" lon="151.2898495">
  <ele>384.4</ele>
  <time>2026-09-01T19:57:03Z</time>
  <course>22.79</course>
  <speed>25.35</speed>
  <fix>3d</fix>
</trkpt>
<trkpt lat="-27.2710121" lon="151.2918489">
  <ele>343.0</ele>
  <time>2026-09-01T19:57:03Z</time>
  <course>49.67</course>
  <speed>4.9948973963435925</speed>
  <fix>3d</fix>
</trkpt>
<trkpt lat="-27.2725461" lon="151.2898802">
  <ele>382.84</ele>
  <time>2026-09-01T19:57:03Z</time>
  <course>23.93</course>
  <speed>25.395566542213622</speed>
  <fix>3d</fix>
</trkpt>
<trkpt lat="-27.2726068" lon="151.2898495">
  <ele>384.4</ele>
  <time>2026-09-01T19:57:03Z</time>
  <course>22.79</course>
  <speed>25.35</speed>
  <fix>3d</fix>
</trkpt>
<trkpt lat="-27.2725256" lon="151.2898915">
  <ele>382.38</ele>
  <time>2026-09-01T19:57:03Z</time>
  <course>24.97</course>
  <speed>25.424181402751202</speed>
  <fix>3d</fix>
</trkpt>
<trkpt lat="-27.272565" lon="151.2898703">
  <ele>383.46</ele>
  <time>2026-09-01T19:57:03Z</time>
  <course>24.87</course>
  <speed>25.39</speed>
  <fix>3d</fix>
</trkpt>
<trkpt lat="-27.2710063" lon="151.2918566">
  <ele>343.0</ele>
  <time>2026-09-01T19:57:03Z</time>
  <course>49.79</course>
  <speed>4.988436628844752</speed>
  <fix>3d</fix>
</trkpt>
<trkpt lat="-27.2725051" lon="151.2899034">
  <ele>381.92</ele>
  <time>2026-09-01T19:57:03Z</time>
  <course>25.99</course>
  <speed>25.438146551979766</speed>
  <fix>3d</fix>
</trkpt>
<trkpt lat="-27.272565" lon="151.2898703">
  <ele>383.46</ele>
  <time>2026-09-01T19:57:03Z</time>
  <course>24.87</course>
  <speed>25.39</speed>
  <fix>3d</fix>
</trkpt>
<trkpt lat="-27.2724849" lon="151.2899156">
  <ele>381.47</ele>
  <time>2026-09-01T19:57:03Z</time>
  <course>27.01</course>
  <speed>25.459807540513733</speed>
  <fix>3d</fix>
</trkpt>
<trkpt lat="-27.2725239" lon="151.2898928">
  <ele>382.53</ele>
  <time>2026-09-01T19:57:03Z</time>
  <course>26.89</course>
  <speed>25.43</speed>
  <fix>3d</fix>
</trkpt>
<trkpt lat="-27.2710005" lon="151.2918643">
  <ele>343.0</ele>
  <time>2026-09-01T19:57:03Z</time>
  <course>49.9</course>
  <speed>4.996078462154092</speed>
  <fix>3d</fix>
</trkpt>
<trkpt lat="-27.2724649" lon="151.2899282">
  <ele>381.03</ele>
  <time>2026-09-01T19:57:03Z</time>
  <course>28.04</course>
  <speed>25.475503920433056</speed>
  <fix>3d</fix>
</trkpt>
<trkpt lat="-27.2725239" lon="151.2898928">
  <ele>382.53</ele>
  <time>2026-09-01T19:57:03Z</time>
  <course>26.89</course>
  <speed>25.43</speed>
  <fix>3d</fix>
</trkpt>
<trkpt lat="-27.2724451" lon="151.2899412">
  <ele>380.59</ele>
  <time>2026-09-01T19:57:03Z</time>
  <course>29.0</course>
  <speed>25.498725458343994</speed>
  <fix>3d</fix>
</trkpt>
<trkpt lat="-27.2724835" lon="151.2899168">
  <ele>381.63</ele>
  <time>2026-09-01T19:57:03Z</time>
  <course>28.87</course>
  <speed>25.46</speed>
  <fix>3d</fix>
</trkpt>
<trkpt lat="-27.2709948" lon="151.291872">
  <ele>343.0</ele>
  <time>2026-09-01T19:57:03Z</time>
  <course>50.01</course>
  <speed>4.997299270606074</speed>
  <fix>3d</fix>
</trkpt>
<trkpt lat="-27.2724255" lon="151.2899546">
  <ele>380.15</ele>
  <time>2026-09-01T19:57:03Z</time>
  <course>29.96</course>
  <speed>25.515691250679453</speed>
  <fix>3d</fix>
</trkpt>
<trkpt lat="-27.2724835" lon="151.2899168">
  <ele>381.63</ele>
  <time>2026-09-01T19:57:03Z</time>
  <course>28.87</course>
  <speed>25.46</speed>
  <fix>3d</fix>
</trkpt>
<trkpt lat="-27.272406" lon="151.2899684">
  <ele>379.72</ele>
  <time>2026-09-01T19:57:03Z</time>
  <course>30.99</course>
  <speed>25.537000606962437</speed>
  <fix>3d</fix>
</trkpt>
<trkpt lat="-27.2724438" lon="151.2899425">
  <ele>380.75</ele>
  <time>2026-09-01T19:57:03Z</time>
  <course>30.83</course>
  <speed>25.5</speed>
  <fix>3d</fix>
</trkpt>
<trkpt lat="-27.270989" lon="151.2918798">
  <ele>343.0</ele>
  <time>2026-09-01T19:57:03Z</time>
  <course>50.13</course>
  <speed>4.990881685634313</speed>
  <fix>3d</fix>
</trkpt>
<trkpt lat="-27.272387" lon="151.2899825">
  <ele>379.3</ele>
  <time>2026-09-01T19:57:03Z</time>
  <course>32.0</course>
  <speed>25.557812895472885</speed>
  <fix>3d</fix>
</trkpt>
<trkpt lat="-27.2724438" lon="151.2899425">
  <ele>380.75</ele>
  <time>2026-09-01T19:57:03Z</time>
  <course>30.83</course>
  <speed>25.5</speed>
  <fix>3d</fix>
</trkpt>
<trkpt lat="-27.2723679" lon="151.2899971">
  <ele>378.88</ele>
  <time>2026-09-01T19:57:03Z</time>
  <course>33.0</course>
  <speed>25.572708108450307</speed>
  <fix>3d</fix>
</trkpt>
<trkpt lat="-27.2724049" lon="151.2899696">
  <ele>379.89</ele>
  <time>2026-09-01T19:57:03Z</time>
  <course>32.8</course>
  <speed>25.53</speed>
  <fix>3d</fix>
</trkpt>
<trkpt lat="-27.2709832" lon="151.2918875">
  <ele>343.0</ele>
  <time>2026-09-01T19:57:03Z</time>
  <course>50.24</course>
  <speed>4.992163859490192</speed>
  <fix>3d</fix>
</trkpt>
<trkpt lat="-27.2723491" lon="151.290012">
  <ele>378.46</ele>
  <time>2026-09-01T19:57:03Z</time>
  <course>34.02</course>
  <speed>25.595487883609486</speed>
  <fix>3d</fix>
</trkpt>
<trkpt lat="-27.2724049" lon="151.2899696">
  <ele>379.89</ele>
  <time>2026-09-01T19:57:03Z</time>
  <course>32.8</course>
  <speed>25.53</speed>
  <fix>3d</fix>
</trkpt>
<trkpt lat="-27.2723305" lon="151.2900274">
  <ele>378.05</ele>
  <time>2026-09-01T19:57:03Z</time>
  <course>35.04</course>
  <speed>25.616075031120594</speed>
  <fix>3d</fix>
</trkpt>
<trkpt lat="-27.2723667" lon="151.2899983">
  <ele>379.05</ele>
  <time>2026-09-01T19:57:03Z</time>
  <course>34.81</course>
  <speed>25.56</speed>
  <fix>3d</fix>
</trkpt>
<trkpt lat="-27.2709775" lon="151.2918953">
  <ele>343.0</ele>
  <time>2026-09-01T19:57:03Z</time>
  <course>50.36</course>
  <speed>4.993485756463114</speed>
  <fix>3d</fix>
</trkpt>
<trkpt lat="-27.2723122" lon="151.2900431">
  <ele>377.64</ele>
  <time>2026-09-01T19:57:03Z</time>
  <course>36.1</course>
  <speed>25.637310701397677</speed>
  <fix>3d</fix>
</trkpt>
<trkpt lat="-27.2723667" lon="151.2899983">
  <ele>379.05</ele>
  <time>2026-09-01T19:57:03Z</time>
  <course>34.81</course>
  <speed>25.56</speed>
  <fix>3d</fix>
</trkpt>
<trkpt lat="-27.272294" lon="151.2900593">
  <ele>377.23</ele>
  <time>2026-09-01T19:57:03Z</time>
  <course>37.16</course>
  <speed>25.651723139001792</speed>
  <fix>3d</fix>
</trkpt>
<trkpt lat="-27.2723295" lon="151.2900286">
  <ele>378.22</ele>
  <time>2026-09-01T19:57:03Z</time>
  <course>36.86</course>
  <speed>25.59</speed>
  <fix>3d</fix>
</trkpt>
<trkpt lat="-27.2709718" lon="151.2919031">
  <ele>343.0</ele>
  <time>2026-09-01T19:57:03Z</time>
  <course>50.47</course>
  <speed>4.993485756463114</speed>
  <fix>3d</fix>
</trkpt>
<trkpt lat="-27.2722762" lon="151.2900759">
  <ele>376.83</ele>
  <time>2026-09-01T19:57:03Z</time>
  <course>38.24</course>
  <speed>25.667664482768977</speed>
  <fix>3d</fix>
</trkpt>
<trkpt lat="-27.2723295" lon="151.2900286">
  <ele>378.22</ele>
  <time>2026-09-01T19:57:03Z</time>
  <course>36.86</course>
  <speed>25.59</speed>
  <fix>3d</fix>
</trkpt>
<trkpt lat="-27.2722587" lon="151.2900927">
  <ele>376.44</ele>
  <time>2026-09-01T19:57:03Z</time>
  <course>39.32</course>
  <speed>25.677945790113355</speed>
  <fix>3d</fix>
</trkpt>
<trkpt lat="-27.2722932" lon="151.2900604">
  <ele>377.41</ele>
  <time>2026-09-01T19:57:03Z</time>
  <course>38.99</course>
  <speed>25.62</speed>
  <fix>3d</fix>
</trkpt>
<trkpt lat="-27.2709661" lon="151.2919109">
  <ele>343.0</ele>
  <time>2026-09-01T19:57:03Z</time>
  <course>50.59</course>
  <speed>4.9948473450146595</speed>
  <fix>3d</fix>
</trkpt>
<trkpt lat="-27.2722416" lon="151.2901099">
  <ele>376.04</ele>
  <time>2026-09-01T19:57:03Z</time>
  <course>40.48</course>
  <speed>25.683321436294023</speed>
  <fix>3d</fix>
</trkpt>
<trkpt lat="-27.2722932" lon="151.2900604">
  <ele>377.41</ele>
  <time>2026-09-01T19:57:03Z</time>
  <course>38.99</course>
  <speed>25.62</speed>
  <fix>3d</fix>
</trkpt>
<trkpt lat="-27.2722247" lon="151.2901275">
  <ele>375.65</ele>
  <time>2026-09-01T19:57:03Z</time>
  <course>41.63</course>
  <speed>25.684588764471197</speed>
  <fix>3d</fix>
</trkpt>
<trkpt lat="-27.272258" lon="151.2900938">
  <ele>376.61</ele>
  <time>2026-09-01T19:57:03Z</time>
  <course>41.2</course>
  <speed>25.65</speed>
  <fix>3d</fix>
</trkpt>
<trkpt lat="-27.2709604" lon="151.2919187">
  <ele>343.0</ele>
  <time>2026-09-01T19:57:03Z</time>
  <course>50.7</course>
  <speed>4.9885067906138</speed>
  <fix>3d</fix>
</trkpt>
<trkpt lat="-27.2722082" lon="151.2901455">
  <ele>375.26</ele>
  <time>2026-09-01T19:57:03Z</time>
  <course>42.8</course>
  <speed>25.696731309643255</speed>
  <fix>3d</fix>
</trkpt>
<trkpt lat="-27.272258" lon="151.2900938">
  <ele>376.61</ele>
  <time>2026-09-01T19:57:03Z</time>
  <course>41.2</course>
  <speed>25.65</speed>
  <fix>3d</fix>
</trkpt>
<trkpt lat="-27.2721921" lon="151.2901638">
  <ele>374.88</ele>
  <time>2026-09-01T19:57:03Z</time>
  <course>44.04</course>
  <speed>25.699311274818243</speed>
  <fix>3d</fix>
</trkpt>
<trkpt lat="-27.2722239" lon="151.2901288">
  <ele>375.83</ele>
  <time>2026-09-01T19:57:03Z</time>
  <course>43.53</course>
  <speed>25.68</speed>
  <fix>3d</fix>
</trkpt>
<trkpt lat="-27.2709547" lon="151.2919265">
  <ele>343.0</ele>
  <time>2026-09-01T19:57:03Z</time>
  <course>50.82</course>
  <speed>4.98992985922648</speed>
  <fix>3d</fix>
</trkpt>
<trkpt lat="-27.2721763" lon="151.2901826">
  <ele>374.5</ele>
  <time>2026-09-01T19:57:03Z</time>
  <course>45.34</course>
  <speed>25.71478174124758</speed>
  <fix>3d</fix>
</trkpt>
<trkpt lat="-27.2722239" lon="151.2901288">
  <ele>375.83</ele>
  <time>2026-09-01T19:57:03Z</time>
  <course>43.53</course>
  <speed>25.68</speed>
  <fix>3d</fix>
</trkpt>
<trkpt lat="-27.2721609" lon="151.2902018">
  <ele>374.12</ele>
  <time>2026-09-01T19:57:03Z</time>
  <course>46.6</course>
  <speed>25.71507340063411</speed>
  <fix>3d</fix>
</trkpt>
<trkpt lat="-27.2721911" lon="151.2901654">
  <ele>375.05</ele>
  <time>2026-09-01T19:57:03Z</time>
  <course>45.98</course>
  <speed>25.7</speed>
  <fix>3d</fix>
</trkpt>
<trkpt lat="-27.270949" lon="151.2919344">
  <ele>343.0</ele>
  <time>2026-09-01T19:57:03Z</time>
  <course>50.93</course>
  <speed>4.9976894661433295</speed>
  <fix>3d</fix>
</trkpt>
<trkpt lat="-27.2721458" lon="151.2902214">
  <ele>373.75</ele>
  <time>2026-09-01T19:57:03Z</time>
  <course>47.89</course>
  <speed>25.72318992660125</speed>
  <fix>3d</fix>
</trkpt>
<trkpt lat="-27.2721911" lon="151.2901654">
  <ele>375.05</ele>
  <time>2026-09-01T19:57:03Z</time>
  <course>45.98</course>
  <speed>25.7</speed>
  <fix>3d</fix>
</trkpt>
<trkpt lat="-27.2721312" lon="151.2902413">
  <ele>373.37</ele>
  <time>2026-09-01T19:57:03Z</time>
  <course>49.26</course>
  <speed>25.725055879433967</speed>
  <fix>3d</fix>
</trkpt>
<trkpt lat="-27.2721596" lon="151.2902037">
  <ele>374.28</ele>
  <time>2026-09-01T19:57:03Z</time>
  <course>48.56</course>
  <speed>25.73</speed>
  <fix>3d</fix>
</trkpt>
<trkpt lat="-27.2709434" lon="151.2919422">
  <ele>343.0</ele>
  <time>2026-09-01T19:57:03Z</time>
  <course>51.05</course>
  <speed>4.991392591251463</speed>
  <fix>3d</fix>
</trkpt>
<trkpt lat="-27.272117" lon="151.2902617">
  <ele>373.0</ele>
  <time>2026-09-01T19:57:03Z</time>
  <course>50.66</course>
  <speed>25.737194874344794</speed>
  <fix>3d</fix>
</trkpt>
<trkpt lat="-27.2721596" lon="151.2902037">
  <ele>374.28</ele>
  <time>2026-09-01T19:57:03Z</time>
  <course>48.56</course>
  <speed>25.73</speed>
  <fix>3d</fix>
</trkpt>
<trkpt lat="-27.2721032" lon="151.2902825">
  <ele>372.63</ele>
  <time>2026-09-01T19:57:03Z</time>
  <course>52.02</course>
  <speed>25.742804819988052</speed>
  <fix>3d</fix>
</trkpt>
<trkpt lat="-27.2721299" lon="151.2902434">
  <ele>373.52</ele>
  <time>2026-09-01T19:57:03Z</time>
  <course>51.25</course>
  <speed>25.75</speed>
  <fix>3d</fix>
</trkpt>
<trkpt lat="-27.2709377" lon="151.2919501">
  <ele>343.0</ele>
  <time>2026-09-01T19:57:03Z</time>
  <course>51.16</course>
  <speed>4.992894951829049</speed>
  <fix>3d</fix>
</trkpt>
<trkpt lat="-27.2720899" lon="151.2903037">
  <ele>372.26</ele>
  <time>2026-09-01T19:57:03Z</time>
  <course>53.44</course>
  <speed>25.74413525446135</speed>
  <fix>3d</fix>
</trkpt>
<trkpt lat="-27.2721299" lon="151.2902434">
  <ele>373.52</ele>
  <time>2026-09-01T19:57:03Z</time>
  <course>51.25</course>
  <speed>25.75</speed>
  <fix>3d</fix>
</trkpt>
<trkpt lat="-27.272077" lon="151.2903252">
  <ele>371.89</ele>
  <time>2026-09-01T19:57:03Z</time>
  <course>54.89</course>
  <speed>25.750339803583174</speed>
  <fix>3d</fix>
</trkpt>
<trkpt lat="-27.2721019" lon="151.2902848">
  <ele>372.78</ele>
  <time>2026-09-01T19:57:03Z</time>
  <course>54.05</course>
  <speed>25.77</speed>
  <fix>3d</fix>
</trkpt>
<trkpt lat="-27.2709321" lon="151.291958">
  <ele>343.0</ele>
  <time>2026-09-01T19:57:03Z</time>
  <course>51.27</course>
  <speed>4.994436905197622</speed>
  <fix>3d</fix>
</trkpt>
<trkpt lat="-27.2720647" lon="151.2903472">
  <ele>371.52</ele>
  <time>2026-09-01T19:57:03Z</time>
  <course>56.4</course>
  <speed>25.762672609805062</speed>
  <fix>3d</fix>
</trkpt>
<trkpt lat="-27.2721019" lon="151.2902848">
  <ele>372.78</ele>
  <time>2026-09-01T19:57:03Z</time>
  <course>54.05</course>
  <speed>25.77</speed>
  <fix>3d</fix>
</trkpt>
<trkpt lat="-27.2720528" lon="151.2903694">
  <ele>371.15</ele>
  <time>2026-09-01T19:57:03Z</time>
  <course>57.88</course>
  <speed>25.76513147647417</speed>
  <fix>3d</fix>
</trkpt>
<trkpt lat="-27.2720756" lon="151.2903277">
  <ele>372.04</ele>
  <time>2026-09-01T19:57:03Z</time>
  <course>56.93</course>
  <speed>25.79</speed>
  <fix>3d</fix>
</trkpt>
<trkpt lat="-27.2709265" lon="151.2919659">
  <ele>343.0</ele>
  <time>2026-09-01T19:57:03Z</time>
  <course>51.39</course>
  <speed>4.988196066715902</speed>
  <fix>3d</fix>
</trkpt>
<trkpt lat="-27.2720415" lon="151.2903921">
  <ele>370.79</ele>
  <time>2026-09-01T19:57:03Z</time>
  <course>59.38</course>
  <speed>25.767033201360224</speed>
  <fix>3d</fix>
</trkpt>
<trkpt lat="-27.2720756" lon="151.2903277">
  <ele>372.04</ele>
  <time>2026-09-01T19:57:03Z</time>
  <course>56.93</course>
  <speed>25.79</speed>
  <fix>3d</fix>
</trkpt>
<trkpt lat="-27.2720306" lon="151.2904151">
  <ele>370.42</ele>
  <time>2026-09-01T19:57:03Z</time>
  <course>60.88</course>
  <speed>25.773928687726283</speed>
  <fix>3d</fix>
</trkpt>
<trkpt lat="-27.2720514" lon="151.2903721">
  <ele>371.3</ele>
  <time>2026-09-01T19:57:03Z</time>
  <course>59.91</course>
  <speed>25.8</speed>
  <fix>3d</fix>
</trkpt>
<trkpt lat="-27.2709209" lon="151.2919738">
  <ele>343.0</ele>
  <time>2026-09-01T19:57:03Z</time>
  <course>51.5</course>
  <speed>4.996018414697848</speed>
  <fix>3d</fix>
</trkpt>
<trkpt lat="-27.2720204" lon="151.2904384">
  <ele>370.05</ele>
  <time>2026-09-01T19:57:03Z</time>
  <course>62.42</course>
  <speed>25.7818327509896</speed>
  <fix>3d</fix>
</trkpt>
<trkpt lat="-27.2720514" lon="151.2903721">
  <ele>371.3</ele>
  <time>2026-09-01T19:57:03Z</time>
  <course>59.91</course>
  <speed>25.8</speed>
  <fix>3d</fix>
</trkpt>
<trkpt lat="-27.2720106" lon="151.2904622">
  <ele>369.68</ele>
  <time>2026-09-01T19:57:03Z</time>
  <course>64.03</course>
  <speed>25.77864426225708</speed>
  <fix>3d</fix>
</trkpt>
<trkpt lat="-27.2720292" lon="151.2904179">
  <ele>370.56</ele>
  <time>2026-09-01T19:57:03Z</time>
  <course>62.99</course>
  <speed>25.82</speed>
  <fix>3d</fix>
</trkpt>
<trkpt lat="-27.2709153" lon="151.2919817">
  <ele>343.0</ele>
  <time>2026-09-01T19:57:03Z</time>
  <course>51.62</course>
  <speed>4.989799595174139</speed>
  <fix>3d</fix>
</trkpt>
<trkpt lat="-27.2720015" lon="151.2904862">
  <ele>369.31</ele>
  <time>2026-09-01T19:57:03Z</time>
  <course>65.66</course>
  <speed>25.78279465069681</speed>
  <fix>3d</fix>
</trkpt>
<trkpt lat="-27.2720292" lon="151.2904179">
  <ele>370.56</ele>
  <time>2026-09-01T19:57:03Z</time>
  <course>62.99</course>
  <speed>25.82</speed>
  <fix>3d</fix>
</trkpt>
<trkpt lat="-27.271993" lon="151.2905104">
  <ele>368.94</ele>
  <time>2026-09-01T19:57:03Z</time>
  <course>67.3</course>
  <speed>25.79472232841439</speed>
  <fix>3d</fix>
</trkpt>
<trkpt lat="-27.2720093" lon="151.2904651">
  <ele>369.82</ele>
  <time>2026-09-01T19:57:03Z</time>
  <course>66.15</course>
  <speed>25.83</speed>
  <fix>3d</fix>
</trkpt>
<trkpt lat="-27.2709097" lon="151.2919896">
  <ele>343.0</ele>
  <time>2026-09-01T19:57:03Z</time>
  <course>51.73</course>
  <speed>4.991442677222689</speed>
  <fix>3d</fix>
</trkpt>
<trkpt lat="-27.2719852" lon="151.2905349">
  <ele>368.57</ele>
  <time>2026-09-01T19:57:03Z</time>
  <course>68.95</course>
  <speed>25.798922458118287</speed>
  <fix>3d</fix>
</trkpt>
<trkpt lat="-27.2720093" lon="151.2904651">
  <ele>369.82</ele>
  <time>2026-09-01T19:57:03Z</time>
  <course>66.15</course>
  <speed>25.83</speed>
  <fix>3d</fix>
</trkpt>
<trkpt lat="-27.2719779" lon="151.2905596">
  <ele>368.2</ele>
  <time>2026-09-01T19:57:03Z</time>
  <course>70.65</course>
  <speed>25.80978496617126</speed>
  <fix>3d</fix>
</trkpt>
<trkpt lat="-27.2719917" lon="151.2905134">
  <ele>369.08</ele>
  <time>2026-09-01T19:57:03Z</time>
  <course>69.41</course>
  <speed>25.84</speed>
  <fix>3d</fix>
</trkpt>
<trkpt lat="-27.2709042" lon="151.2919975">
  <ele>343.0</ele>
  <time>2026-09-01T19:57:03Z</time>
  <course>51.85</course>
  <speed>4.993125273813987</speed>
  <fix>3d</fix>
</trkpt>
<trkpt lat="-27.2719714" lon="151.2905847">
  <ele>367.83</ele>
  <time>2026-09-01T19:57:03Z</time>
  <course>72.49</course>
  <speed>25.816399826466895</speed>
  <fix>3d</fix>
</trkpt>
<trkpt lat="-27.2719917" lon="151.2905134">
  <ele>369.08</ele>
  <time>2026-09-01T19:57:03Z</time>
  <course>69.41</course>
  <speed>25.84</speed>
  <fix>3d</fix>
</trkpt>
<trkpt lat="-27.2719655" lon="151.2906099">
  <ele>367.46</ele>
  <time>2026-09-01T19:57:03Z</time>
  <course>74.39</course>
  <speed>25.835605276439722</speed>
  <fix>3d</fix>
</trkpt>
<trkpt lat="-27.2719767" lon="151.2905628">
  <ele>368.34</ele>
  <time>2026-09-01T19:57:03Z</time>
  <course>72.81</course>
  <speed>25.86</speed>
  <fix>3d</fix>
</trkpt>
<trkpt lat="-27.2708987" lon="151.2920055">
  <ele>343.0</ele>
  <time>2026-09-01T19:57:03Z</time>
  <course>51.96</course>
  <speed>4.993125273813987</speed>
  <fix>3d</fix>
</trkpt>
<trkpt lat="-27.2719604" lon="151.2906354">
  <ele>367.1</ele>
  <time>2026-09-01T19:57:03Z</time>
  <course>76.33</course>
  <speed>25.846734803452446</speed>
  <fix>3d</fix>
</trkpt>
<trkpt lat="-27.2719767" lon="151.2905628">
  <ele>368.34</ele>
  <time>2026-09-01T19:57:03Z</time>
  <course>72.81</course>
  <speed>25.86</speed>
  <fix>3d</fix>
</trkpt>
<trkpt lat="-27.271956" lon="151.290661">
  <ele>366.75</ele>
  <time>2026-09-01T19:57:03Z</time>
  <course>78.37</course>
  <speed>25.86357477225451</speed>
  <fix>3d</fix>
</trkpt>
<trkpt lat="-27.2719644" lon="151.2906132">
  <ele>367.6</ele>
  <time>2026-09-01T19:57:03Z</time>
  <course>76.43</course>
  <speed>25.88</speed>
  <fix>3d</fix>
</trkpt>
<trkpt lat="-27.2708931" lon="151.2920135">
  <ele>343.0</ele>
  <time>2026-09-01T19:57:03Z</time>
  <course>52.08</course>
  <speed>4.9948473450146595</speed>
  <fix>3d</fix>
</trkpt>
<trkpt lat="-27.2719524" lon="151.2906869">
  <ele>366.4</ele>
  <time>2026-09-01T19:57:03Z</time>
  <course>80.48</course>
  <speed>25.88365121075464</speed>
  <fix>3d</fix>
</trkpt>
<trkpt lat="-27.2719644" lon="151.2906132">
  <ele>367.6</ele>
  <time>2026-09-01T19:57:03Z</time>
  <course>76.43</course>
  <speed>25.88</speed>
  <fix>3d</fix>
</trkpt>
<trkpt lat="-27.2719497" lon="151.2907129">
  <ele>366.06</ele>
  <time>2026-09-01T19:57:03Z</time>
  <course>82.59</course>
  <speed>25.902872427589955</speed>
  <fix>3d</fix>
</trkpt>
<trkpt lat="-27.271955" lon="151.2906646">
  <ele>366.88</ele>
  <time>2026-09-01T19:57:03Z</time>
  <course>80.32</course>
  <speed>25.92</speed>
  <fix>3d</fix>
</trkpt>
<trkpt lat="-27.2708876" lon="151.2920215">
  <ele>343.0</ele>
  <time>2026-09-01T19:57:03Z</time>
  <course>52.19</course>
  <speed>4.996608850010174</speed>
  <fix>3d</fix>
</trkpt>
<trkpt lat="-27.2719478" lon="151.290739">
  <ele>365.74</ele>
  <time>2026-09-01T19:57:03Z</time>
  <course>84.79</course>
  <speed>25.925778676830518</speed>
  <fix>3d</fix>
</trkpt>
<trkpt lat="-27.271955" lon="151.2906646">
  <ele>366.88</ele>
  <time>2026-09-01T19:57:03Z</time>
  <course>80.32</course>
  <speed>25.92</speed>
  <fix>3d</fix>
</trkpt>
<trkpt lat="-27.2719468" lon="151.2907652">
  <ele>365.43</ele>
  <time>2026-09-01T19:57:03Z</time>
  <course>87.03</course>
  <speed>25.94562005425964</speed>
  <fix>3d</fix>
</trkpt>
<trkpt lat="-27.2719488" lon="151.2907167">
  <ele>366.2</ele>
  <time>2026-09-01T19:57:03Z</time>
  <course>84.47</course>
  <speed>25.96</speed>
  <fix>3d</fix>
</trkpt>
<trkpt lat="-27.2708821" lon="151.2920295">
  <ele>343.0</ele>
  <time>2026-09-01T19:57:03Z</time>
  <course>52.3</course>
  <speed>4.990490957811666</speed>
  <fix>3d</fix>
</trkpt>
<trkpt lat="-27.2719467" lon="151.2907915">
  <ele>365.13</ele>
  <time>2026-09-01T19:57:03Z</time>
  <course>89.29</course>
  <speed>25.95407675106167</speed>
  <fix>3d</fix>
</trkpt>
<trkpt lat="-27.2719488" lon="151.2907167">
  <ele>366.2</ele>
  <time>2026-09-01T19:57:03Z</time>
  <course>84.47</course>
  <speed>25.96</speed>
  <fix>3d</fix>
</trkpt>
<trkpt lat="-27.2719475" lon="151.2908177">
  <ele>364.84</ele>
  <time>2026-09-01T19:57:03Z</time>
  <course>91.65</course>
  <speed>25.973929236832845</speed>
  <fix>3d</fix>
</trkpt>
<trkpt lat="-27.2719461" lon="151.290769">
  <ele>365.56</ele>
  <time>2026-09-01T19:57:03Z</time>
  <course>88.84</course>
  <speed>25.99</speed>
  <fix>3d</fix>
</trkpt>
<trkpt lat="-27.2708766" lon="151.2920375">
  <ele>343.0</ele>
  <time>2026-09-01T19:57:03Z</time>
  <course>52.42</course>
  <speed>4.9923140926828715</speed>
  <fix>3d</fix>
</trkpt>
<trkpt lat="-27.2719493" lon="151.2908439">
  <ele>364.57</ele>
  <time>2026-09-01T19:57:03Z</time>
  <course>93.96</course>
  <speed>25.98739117341331</speed>
  <fix>3d</fix>
</trkpt>
<trkpt lat="-27.2719461" lon="151.290769">
  <ele>365.56</ele>
  <time>2026-09-01T19:57:03Z</time>
  <course>88.84</course>
  <speed>25.99</speed>
  <fix>3d</fix>
</trkpt>
<trkpt lat="-27.271952" lon="151.2908701">
  <ele>364.32</ele>
  <time>2026-09-01T19:57:03Z</time>
  <course>96.24</course>
  <speed>25.99330683079781</speed>
  <fix>3d</fix>
</trkpt>
<trkpt lat="-27.2719469" lon="151.2908215">
  <ele>364.97</ele>
  <time>2026-09-01T19:57:03Z</time>
  <course>93.4</course>
  <speed>26.02</speed>
  <fix>3d</fix>
</trkpt>
<trkpt lat="-27.2708712" lon="151.2920455">
  <ele>343.0</ele>
  <time>2026-09-01T19:57:03Z</time>
  <course>52.53</course>
  <speed>4.9923140926828715</speed>
  <fix>3d</fix>
</trkpt>
<trkpt lat="-27.2719556" lon="151.290896">
  <ele>364.08</ele>
  <time>2026-09-01T19:57:03Z</time>
  <course>98.57</course>
  <speed>25.992956738316636</speed>
  <fix>3d</fix>
</trkpt>
<trkpt lat="-27.2719469" lon="151.2908215">
  <ele>364.97</ele>
  <time>2026-09-01T19:57:03Z</time>
  <course>93.4</course>
  <speed>26.02</speed>
  <fix>3d</fix>
</trkpt>
<trkpt lat="-27.2719601" lon="151.2909218">
  <ele>363.85</ele>
  <time>2026-09-01T19:57:03Z</time>
  <course>100.98</course>
  <speed>25.997076758743475</speed>
  <fix>3d</fix>
</trkpt>
<trkpt lat="-27.2719516" lon="151.2908739">
  <ele>364.44</ele>
  <time>2026-09-01T19:57:03Z</time>
  <course>98.07</course>
  <speed>26.04</speed>
  <fix>3d</fix>
</trkpt>
<trkpt lat="-27.2708657" lon="151.2920535">
  <ele>343.0</ele>
  <time>2026-09-01T19:57:03Z</time>
  <course>52.65</course>
  <speed>4.9941766088115065</speed>
  <fix>3d</fix>
</trkpt>
<trkpt lat="-27.2719657" lon="151.2909473">
  <ele>363.64</ele>
  <time>2026-09-01T19:57:03Z</time>
  <course>103.34</course>
  <speed>25.98732383297672</speed>
  <fix>3d</fix>
</trkpt>
<trkpt lat="-27.2719516" lon="151.2908739">
  <ele>364.44</ele>
  <time>2026-09-01T19:57:03Z</time>
  <course>98.07</course>
  <speed>26.04</speed>
  <fix>3d</fix>
</trkpt>
<trkpt lat="-27.2719721" lon="151.2909726">
  <ele>363.44</ele>
  <time>2026-09-01T19:57:03Z</time>
  <course>105.73</course>
  <speed>25.978614281751057</speed>
  <fix>3d</fix>
</trkpt>
<trkpt lat="-27.2719601" lon="151.2909257">
  <ele>363.96</ele>
  <time>2026-09-01T19:57:03Z</time>
  <course>102.79</course>
  <speed>26.05</speed>
  <fix>3d</fix>
</trkpt>
<trkpt lat="-27.2708602" lon="151.2920615">
  <ele>343.0</ele>
  <time>2026-09-01T19:57:03Z</time>
  <course>52.76</course>
  <speed>4.996078462154092</speed>
  <fix>3d</fix>
</trkpt>
<trkpt lat="-27.2719794" lon="151.2909973">
  <ele>363.25</ele>
  <time>2026-09-01T19:57:03Z</time>
  <course>108.08</course>
  <speed>25.96059513955718</speed>
  <fix>3d</fix>
</trkpt>
<trkpt lat="-27.2719601" lon="151.2909257">
  <ele>363.96</ele>
  <time>2026-09-01T19:57:03Z</time>
  <course>102.79</course>
  <speed>26.05</speed>
  <fix>3d</fix>
</trkpt>
<trkpt lat="-27.2719877" lon="151.2910219">
  <ele>363.08</ele>
  <time>2026-09-01T19:57:03Z</time>
  <course>110.42</course>
  <speed>25.942251251577996</speed>
  <fix>3d</fix>
</trkpt>
<trkpt lat="-27.2719723" lon="151.2909765">
  <ele>363.54</ele>
  <time>2026-09-01T19:57:03Z</time>
  <course>107.56</course>
  <speed>26.04</speed>
  <fix>3d</fix>
</trkpt>
<trkpt lat="-27.2708548" lon="151.2920696">
  <ele>343.0</ele>
  <time>2026-09-01T19:57:03Z</time>
  <course>52.88</course>
  <speed>4.990040079999358</speed>
  <fix>3d</fix>
</trkpt>
<trkpt lat="-27.2719969" lon="151.291046">
  <ele>362.92</ele>
  <time>2026-09-01T19:57:03Z</time>
  <course>112.8</course>
  <speed>25.92314217065516</speed>
  <fix>3d</fix>
</trkpt>
<trkpt lat="-27.2719723" lon="151.2909765">
  <ele>363.54</ele>
  <time>2026-09-01T19:57:03Z</time>
  <course>107.56</course>
  <speed>26.04</speed>
  <fix>3d</fix>
</trkpt>
<trkpt lat="-27.2720069" lon="151.2910696">
  <ele>362.77</ele>
  <time>2026-09-01T19:57:03Z</time>
  <course>115.13</course>
  <speed>25.894140263773966</speed>
  <fix>3d</fix>
</trkpt>
<trkpt lat="-27.2719882" lon="151.2910259">
  <ele>363.17</ele>
  <time>2026-09-01T19:57:03Z</time>
  <course>112.31</course>
  <speed>26.01</speed>
  <fix>3d</fix>
</trkpt>
<trkpt lat="-27.2708494" lon="151.2920777">
  <ele>343.0</ele>
  <time>2026-09-01T19:57:03Z</time>
  <course>52.99</course>
  <speed>4.992003605767929</speed>
  <fix>3d</fix>
</trkpt>
<trkpt lat="-27.272018" lon="151.2910932">
  <ele>362.62</ele>
  <time>2026-09-01T19:57:03Z</time>
  <course>117.51</course>
  <speed>25.87435989546408</speed>
  <fix>3d</fix>
</trkpt>
<trkpt lat="-27.2719882" lon="151.2910259">
  <ele>363.17</ele>
  <time>2026-09-01T19:57:03Z</time>
  <course>112.31</course>
  <speed>26.01</speed>
  <fix>3d</fix>
</trkpt>
<trkpt lat="-27.2720297" lon="151.2911158">
  <ele>362.48</ele>
  <time>2026-09-01T19:57:03Z</time>
  <course>119.82</course>
  <speed>25.84325056953943</speed>
  <fix>3d</fix>
</trkpt>
<trkpt lat="-27.2720078" lon="151.2910736">
  <ele>362.84</ele>
  <time>2026-09-01T19:57:03Z</time>
  <course>117.05</course>
  <speed>25.96</speed>
  <fix>3d</fix>
</trkpt>
<trkpt lat="-27.270844" lon="151.2920857">
  <ele>343.0</ele>
  <time>2026-09-01T19:57:03Z</time>
  <course>53.11</course>
  <speed>4.992003605767929</speed>
  <fix>3d</fix>
</trkpt>
<trkpt lat="-27.2720422" lon="151.2911378">
  <ele>362.35</ele>
  <time>2026-09-01T19:57:03Z</time>
  <course>122.1</course>
  <speed>25.813262095287378</speed>
  <fix>3d</fix>
</trkpt>
<trkpt lat="-27.2720078" lon="151.2910736">
  <ele>362.84</ele>
  <time>2026-09-01T19:57:03Z</time>
  <course>117.05</course>
  <speed>25.96</speed>
  <fix>3d</fix>
</trkpt>
<trkpt lat="-27.2720555" lon="151.2911592">
  <ele>362.23</ele>
  <time>2026-09-01T19:57:03Z</time>
  <course>124.37</course>
  <speed>25.783455935929148</speed>
  <fix>3d</fix>
</trkpt>
<trkpt lat="-27.2720306" lon="151.2911192">
  <ele>362.55</ele>
  <time>2026-09-01T19:57:03Z</time>
  <course>121.75</course>
  <speed>25.91</speed>
  <fix>3d</fix>
</trkpt>
<trkpt lat="-27.2708386" lon="151.2920938">
  <ele>343.0</ele>
  <time>2026-09-01T19:57:03Z</time>
  <course>53.22</course>
  <speed>4.9940064076851165</speed>
  <fix>3d</fix>
</trkpt>
<trkpt lat="-27.2720695" lon="151.29118">
  <ele>362.11</ele>
  <time>2026-09-01T19:57:03Z</time>
  <course>126.69</course>
  <speed>25.759332289482973</speed>
  <fix>3d</fix>
</trkpt>
<trkpt lat="-27.2720306" lon="151.2911192">
  <ele>362.55</ele>
  <time>2026-09-01T19:57:03Z</time>
  <course>121.75</course>
  <speed>25.91</speed>
  <fix>3d</fix>
</trkpt>
<trkpt lat="-27.2720843" lon="151.2912001">
  <ele>361.99</ele>
  <time>2026-09-01T19:57:03Z</time>
  <course>129.02</course>
  <speed>25.74129173137976</speed>
  <fix>3d</fix>
</trkpt>
<trkpt lat="-27.2720567" lon="151.2911626">
  <ele>362.29</ele>
  <time>2026-09-01T19:57:03Z</time>
  <course>126.39</course>
  <speed>25.86</speed>
  <fix>3d</fix>
</trkpt>
<trkpt lat="-27.2708332" lon="151.2921019">
  <ele>343.0</ele>
  <time>2026-09-01T19:57:03Z</time>
  <course>53.33</course>
  <speed>4.996048438516184</speed>
  <fix>3d</fix>
</trkpt>
<trkpt lat="-27.2720997" lon="151.2912195">
  <ele>361.88</ele>
  <time>2026-09-01T19:57:03Z</time>
  <course>131.34</course>
  <speed>25.708461642035296</speed>
  <fix>3d</fix>
</trkpt>
<trkpt lat="-27.2720567" lon="151.2911626">
  <ele>362.29</ele>
  <time>2026-09-01T19:57:03Z</time>
  <course>126.39</course>
  <speed>25.86</speed>
  <fix>3d</fix>
</trkpt>
<trkpt lat="-27.2721159" lon="151.2912383">
  <ele>361.77</ele>
  <time>2026-09-01T19:57:03Z</time>
  <course>133.66</course>
  <speed>25.683379839888676</speed>
  <fix>3d</fix>
</trkpt>
<trkpt lat="-27.2720858" lon="151.2912034">
  <ele>362.04</ele>
  <time>2026-09-01T19:57:03Z</time>
  <course>131.05</course>
  <speed>25.8</speed>
  <fix>3d</fix>
</trkpt>
<trkpt lat="-27.2708279" lon="151.29211">
  <ele>343.0</ele>
  <time>2026-09-01T19:57:03Z</time>
  <course>53.45</course>
  <speed>4.990090179545857</speed>
  <fix>3d</fix>
</trkpt>
<trkpt lat="-27.2721327" lon="151.2912562">
  <ele>361.66</ele>
  <time>2026-09-01T19:57:03Z</time>
  <course>136.01</course>
  <speed>25.658558026514275</speed>
  <fix>3d</fix>
</trkpt>
<trkpt lat="-27.2720858" lon="151.2912034">
  <ele>362.04</ele>
  <time>2026-09-01T19:57:03Z</time>
  <course>131.05</course>
  <speed>25.8</speed>
  <fix>3d</fix>
</trkpt>
<trkpt lat="-27.2721501" lon="151.2912733">
  <ele>361.56</ele>
  <time>2026-09-01T19:57:04Z</time>
  <course>138.35</course>
  <speed>25.640672768084695</speed>
  <fix>3d</fix>
</trkpt>
<trkpt lat="-27.2721176" lon="151.2912412">
  <ele>361.8</ele>
  <time>2026-09-01T19:57:04Z</time>
  <course>135.72</course>
  <speed>25.75</speed>
  <fix>3d</fix>
</trkpt>
<trkpt lat="-27.2708226" lon="151.2921182">
  <ele>343.0</ele>
  <time>2026-09-01T19:57:04Z</time>
  <course>53.56</course>
  <speed>4.992193906490412</speed>
  <fix>3d</fix>
</trkpt>
<trkpt lat="-27.2721682" lon="151.2912896">
  <ele>361.45</ele>
  <time>2026-09-01T19:57:04Z</time>
  <course>140.67</course>
  <speed>25.62318091104225</speed>
  <fix>3d</fix>
</trkpt>
<trkpt lat="-27.2721176" lon="151.2912412">
  <ele>361.8</ele>
  <time>2026-09-01T19:57:04Z</time>
  <course>135.72</course>
  <speed>25.75</speed>
  <fix>3d</fix>
</trkpt>
<trkpt lat="-27.2721868" lon="151.2913051">
  <ele>361.35</ele>
  <time>2026-09-01T19:57:04Z</time>
  <course>143.08</course>
  <speed>25.601007792663165</speed>
  <fix>3d</fix>
</trkpt>
<trkpt lat="-27.272152" lon="151.2912759">
  <ele>361.58</ele>
  <time>2026-09-01T19:57:04Z</time>
  <course>140.4</course>
  <speed>25.7</speed>
  <fix>3d</fix>
</trkpt>
<trkpt lat="-27.2708172" lon="151.2921263">
  <ele>343.0</ele>
  <time>2026-09-01T19:57:04Z</time>
  <course>53.68</course>
  <speed>4.992193906490412</speed>
  <fix>3d</fix>
</trkpt>
<trkpt lat="-27.2722059" lon="151.2913196">
  <ele>361.25</ele>
  <time>2026-09-01T19:57:04Z</time>
  <course>145.44</course>
  <speed>25.586865771328853</speed>
  <fix>3d</fix>
</trkpt>
<trkpt lat="-27.272152" lon="151.2912759">
  <ele>361.58</ele>
  <time>2026-09-01T19:57:04Z</time>
  <course>140.4</course>
  <speed>25.7</speed>
  <fix>3d</fix>
</trkpt>
<trkpt lat="-27.2722256" lon="151.2913332">
  <ele>361.15</ele>
  <time>2026-09-01T19:57:04Z</time>
  <course>147.84</course>
  <speed>25.57577369308698</speed>
  <fix>3d</fix>
</trkpt>
<trkpt lat="-27.2721887" lon="151.2913074">
  <ele>361.37</ele>
  <time>2026-09-01T19:57:04Z</time>
  <course>145.13</course>
  <speed>25.65</speed>
  <fix>3d</fix>
</trkpt>
<trkpt lat="-27.2708119" lon="151.2921345">
  <ele>343.0</ele>
  <time>2026-09-01T19:57:04Z</time>
  <course>53.79</course>
  <speed>4.994336792808431</speed>
  <fix>3d</fix>
</trkpt>
<trkpt lat="-27.2722457" lon="151.2913459">
  <ele>361.05</ele>
  <time>2026-09-01T19:57:04Z</time>
  <course>150.26</course>
  <speed>25.551354171550283</speed>
  <fix>3d</fix>
</trkpt>
<trkpt lat="-27.2721887" lon="151.2913074">
  <ele>361.37</ele>
  <time>2026-09-01T19:57:04Z</time>
  <course>145.13</course>
  <speed>25.65</speed>
  <fix>3d</fix>
</trkpt>
<trkpt lat="-27.2722663" lon="151.2913576">
  <ele>360.95</ele>
  <time>2026-09-01T19:57:04Z</time>
  <course>152.74</course>
  <speed>25.545367486102055</speed>
  <fix>3d</fix>
</trkpt>
<trkpt lat="-27.2722275" lon="151.2913351">
  <ele>361.16</ele>
  <time>2026-09-01T19:57:04Z</time>
  <course>149.93</course>
  <speed>25.61</speed>
  <fix>3d</fix>
</trkpt>
<trkpt lat="-27.2708066" lon="151.2921426">
  <ele>343.0</ele>
  <time>2026-09-01T19:57:04Z</time>
  <course>53.91</course>
  <speed>4.996518788116382</speed>
  <fix>3d</fix>
</trkpt>
<trkpt lat="-27.2722873" lon="151.2913682">
  <ele>360.86</ele>
  <time>2026-09-01T19:57:04Z</time>
  <course>155.2</course>
  <speed>25.53275739124155</speed>
  <fix>3d</fix>
</trkpt>
<trkpt lat="-27.2722275" lon="151.2913351">
  <ele>361.16</ele>
  <time>2026-09-01T19:57:04Z</time>
  <course>149.93</course>
  <speed>25.61</speed>
  <fix>3d</fix>
</trkpt>
<trkpt lat="-27.2723085" lon="151.2913778">
  <ele>360.76</ele>
  <time>2026-09-01T19:57:04Z</time>
  <course>157.68</course>
  <speed>25.526686036381612</speed>
  <fix>3d</fix>
</trkpt>
<trkpt lat="-27.2722683" lon="151.2913591">
  <ele>360.97</ele>
  <time>2026-09-01T19:57:04Z</time>
  <course>154.78</course>
  <speed>25.58</speed>
  <fix>3d</fix>
</trkpt>
<trkpt lat="-27.2708013" lon="151.2921508">
  <ele>343.0</ele>
  <time>2026-09-01T19:57:04Z</time>
  <course>54.02</course>
  <speed>4.9906412413636785</speed>
  <fix>3d</fix>
</trkpt>
<trkpt lat="-27.2723302" lon="151.2913863">
  <ele>360.67</ele>
  <time>2026-09-01T19:57:04Z</time>
  <course>160.21</course>
  <speed>25.517196162588085</speed>
  <fix>3d</fix>
</trkpt>
<trkpt lat="-27.2722683" lon="151.2913591">
  <ele>360.97</ele>
  <time>2026-09-01T19:57:04Z</time>
  <course>154.78</course>
  <speed>25.58</speed>
  <fix>3d</fix>
</trkpt>
<trkpt lat="-27.2723522" lon="151.2913938">
  <ele>360.58</ele>
  <time>2026-09-01T19:57:04Z</time>
  <course>162.77</course>
  <speed>25.510237160794883</speed>
  <fix>3d</fix>
</trkpt>
<trkpt lat="-27.2723106" lon="151.2913791">
  <ele>360.78</ele>
  <time>2026-09-01T19:57:04Z</time>
  <course>159.72</course>
  <speed>25.56</speed>
  <fix>3d</fix>
</trkpt>
<trkpt lat="-27.2707961" lon="151.292159">
  <ele>343.0</ele>
  <time>2026-09-01T19:57:04Z</time>
  <course>54.14</course>
  <speed>4.992884937588688</speed>
  <fix>3d</fix>
</trkpt>
<trkpt lat="-27.2723744" lon="151.2914002">
  <ele>360.49</ele>
  <time>2026-09-01T19:57:04Z</time>
  <course>165.29</course>
  <speed>25.51260472785952</speed>
  <fix>3d</fix>
</trkpt>
<trkpt lat="-27.2723106" lon="151.2913791">
  <ele>360.78</ele>
  <time>2026-09-01T19:57:04Z</time>
  <course>159.72</course>
  <speed>25.56</speed>
  <fix>3d</fix>
</trkpt>
<trkpt lat="-27.2723971" lon="151.2914055">
  <ele>360.4</ele>
  <time>2026-09-01T19:57:04Z</time>
  <course>167.88</course>
  <speed>25.512641964328196</speed>
  <fix>3d</fix>
</trkpt>
<trkpt lat="-27.2723543" lon="151.2913948">
  <ele>360.6</ele>
  <time>2026-09-01T19:57:04Z</time>
  <course>164.76</course>
  <speed>25.55</speed>
  <fix>3d</fix>
</trkpt>
<trkpt lat="-27.2707908" lon="151.2921671">
  <ele>343.0</ele>
  <time>2026-09-01T19:57:04Z</time>
  <course>54.25</course>
  <speed>4.992884937588688</speed>
  <fix>3d</fix>
</trkpt>
<trkpt lat="-27.2724198" lon="151.2914095">
  <ele>360.32</ele>
  <time>2026-09-01T19:57:04Z</time>
  <course>170.47</course>
  <speed>25.511630680926693</speed>
  <fix>3d</fix>
</trkpt>
<trkpt lat="-27.2723543" lon="151.2913948">
  <ele>360.6</ele>
  <time>2026-09-01T19:57:04Z</time>
  <course>164.76</course>
  <speed>25.55</speed>
  <fix>3d</fix>
</trkpt>
<trkpt lat="-27.2724426" lon="151.2914125">
  <ele>360.24</ele>
  <time>2026-09-01T19:57:04Z</time>
  <course>173.12</course>
  <speed>25.512085371447</speed>
  <fix>3d</fix>
</trkpt>
<trkpt lat="-27.272399" lon="151.2914061">
  <ele>360.41</ele>
  <time>2026-09-01T19:57:04Z</time>
  <course>169.87</course>
  <speed>25.54</speed>
  <fix>3d</fix>
</trkpt>
<trkpt lat="-27.2707855" lon="151.2921754">
  <ele>343.0</ele>
  <time>2026-09-01T19:57:04Z</time>
  <course>54.37</course>
  <speed>4.995167664853703</speed>
  <fix>3d</fix>
</trkpt>
<trkpt lat="-27.2724655" lon="151.2914142">
  <ele>360.16</ele>
  <time>2026-09-01T19:57:04Z</time>
  <course>175.78</course>
  <speed>25.503733060083576</speed>
  <fix>3d</fix>
</trkpt>
<trkpt lat="-27.272399" lon="151.2914061">
  <ele>360.41</ele>
  <time>2026-09-01T19:57:04Z</time>
  <course>169.87</course>
  <speed>25.54</speed>
  <fix>3d</fix>
</trkpt>
<trkpt lat="-27.2724884" lon="151.2914147">
  <ele>360.08</ele>
  <time>2026-09-01T19:57:04Z</time>
  <course>178.45</course>
  <speed>25.51012544069511</speed>
  <fix>3d</fix>
</trkpt>
<trkpt lat="-27.2724446" lon="151.2914129">
  <ele>360.25</ele>
  <time>2026-09-01T19:57:04Z</time>
  <course>175.08</course>
  <speed>25.53</speed>
  <fix>3d</fix>
</trkpt>
<trkpt lat="-27.2707803" lon="151.2921836">
  <ele>343.0</ele>
  <time>2026-09-01T19:57:04Z</time>
  <course>54.48</course>
  <speed>4.989348654884723</speed>
  <fix>3d</fix>
</trkpt>
<trkpt lat="-27.2725114" lon="151.2914141">
  <ele>360.01</ele>
  <time>2026-09-01T19:57:04Z</time>
  <course>181.19</course>
  <speed>25.512634125076147</speed>
  <fix>3d</fix>
</trkpt>
<trkpt lat="-27.2724446" lon="151.2914129">
  <ele>360.25</ele>
  <time>2026-09-01T19:57:04Z</time>
  <course>175.08</course>
  <speed>25.53</speed>
  <fix>3d</fix>
</trkpt>
<trkpt lat="-27.2725345" lon="151.2914122">
  <ele>359.94</ele>
  <time>2026-09-01T19:57:04Z</time>
  <course>183.85</course>
  <speed>25.522734963165686</speed>
  <fix>3d</fix>
</trkpt>
<trkpt lat="-27.2724905" lon="151.291415">
  <ele>360.09</ele>
  <time>2026-09-01T19:57:04Z</time>
  <course>180.4</course>
  <speed>25.54</speed>
  <fix>3d</fix>
</trkpt>
<trkpt lat="-27.2707751" lon="151.2921918">
  <ele>343.0</ele>
  <time>2026-09-01T19:57:04Z</time>
  <course>54.59</course>
  <speed>4.991693099540475</speed>
  <fix>3d</fix>
</trkpt>
<trkpt lat="-27.2725573" lon="151.2914091">
  <ele>359.87</ele>
  <time>2026-09-01T19:57:04Z</time>
  <course>186.54</course>
  <speed>25.5266527378738</speed>
  <fix>3d</fix>
</trkpt>
<trkpt lat="-27.2724905" lon="151.291415">
  <ele>360.09</ele>
  <time>2026-09-01T19:57:04Z</time>
  <course>180.4</course>
  <speed>25.54</speed>
  <fix>3d</fix>
</trkpt>
<trkpt lat="-27.2725799" lon="151.2914048">
  <ele>359.81</ele>
  <time>2026-09-01T19:57:04Z</time>
  <course>189.3</course>
  <speed>25.520911033895324</speed>
  <fix>3d</fix>
</trkpt>
<trkpt lat="-27.2725363" lon="151.2914123">
  <ele>359.94</ele>
  <time>2026-09-01T19:57:04Z</time>
  <course>185.78</course>
  <speed>25.54</speed>
  <fix>3d</fix>
</trkpt>
<trkpt lat="-27.2707699" lon="151.2922001">
  <ele>343.0</ele>
  <time>2026-09-01T19:57:04Z</time>
  <course>54.71</course>
  <speed>4.994076491204354</speed>
  <fix>3d</fix>
</trkpt>
<trkpt lat="-27.2726024" lon="151.2913993">
  <ele>359.74</ele>
  <time>2026-09-01T19:57:04Z</time>
  <course>192.1</course>
  <speed>25.524703720121806</speed>
  <fix>3d</fix>
</trkpt>
<trkpt lat="-27.2725363" lon="151.2914123">
  <ele>359.94</ele>
  <time>2026-09-01T19:57:04Z</time>
  <course>185.78</course>
  <speed>25.54</speed>
  <fix>3d</fix>
</trkpt>
<trkpt lat="-27.2726246" lon="151.2913925">
  <ele>359.68</ele>
  <time>2026-09-01T19:57:04Z</time>
  <course>194.85</course>
  <speed>25.53955363744637</speed>
  <fix>3d</fix>
</trkpt>
<trkpt lat="-27.2725816" lon="151.2914046">
  <ele>359.8</ele>
  <time>2026-09-01T19:57:04Z</time>
  <course>191.2</course>
  <speed>25.55</speed>
  <fix>3d</fix>
</trkpt>
<trkpt lat="-27.2707647" lon="151.2922083">
  <ele>343.0</ele>
  <time>2026-09-01T19:57:04Z</time>
  <course>54.82</course>
  <speed>4.994076491204354</speed>
  <fix>3d</fix>
</trkpt>
<trkpt lat="-27.2726465" lon="151.2913846">
  <ele>359.62</ele>
  <time>2026-09-01T19:57:04Z</time>
  <course>197.57</course>
  <speed>25.53845140175888</speed>
  <fix>3d</fix>
</trkpt>
<trkpt lat="-27.2725816" lon="151.2914046">
  <ele>359.8</ele>
  <time>2026-09-01T19:57:04Z</time>
  <course>191.2</course>
  <speed>25.55</speed>
  <fix>3d</fix>
</trkpt>
<trkpt lat="-27.272668" lon="151.2913754">
  <ele>359.57</ele>
  <time>2026-09-01T19:57:04Z</time>
  <course>200.34</course>
  <speed>25.546447893983228</speed>
  <fix>3d</fix>
</trkpt>
<trkpt lat="-27.2726262" lon="151.2913922">
  <ele>359.66</ele>
  <time>2026-09-01T19:57:04Z</time>
  <course>196.71</course>
  <speed>25.56</speed>
  <fix>3d</fix>
</trkpt>
<trkpt lat="-27.2707596" lon="151.2922166">
  <ele>343.0</ele>
  <time>2026-09-01T19:57:04Z</time>
  <course>54.94</course>
  <speed>4.996498774141749</speed>
  <fix>3d</fix>
</trkpt>
<trkpt lat="-27.2726891" lon="151.2913651">
  <ele>359.52</ele>
  <time>2026-09-01T19:57:04Z</time>
  <course>203.06</course>
  <speed>25.560489040704994</speed>
  <fix>3d</fix>
</trkpt>
<trkpt lat="-27.2726262" lon="151.2913922">
  <ele>359.66</ele>
  <time>2026-09-01T19:57:04Z</time>
  <course>196.71</course>
  <speed>25.56</speed>
  <fix>3d</fix>
</trkpt>
<trkpt lat="-27.2727098" lon="151.2913537">
  <ele>359.47</ele>
  <time>2026-09-01T19:57:04Z</time>
  <course>205.75</course>
  <speed>25.566798782796408</speed>
  <fix>3d</fix>
</trkpt>
<trkpt lat="-27.2726694" lon="151.291375">
  <ele>359.55</ele>
  <time>2026-09-01T19:57:04Z</time>
  <course>202.25</course>
  <speed>25.57</speed>
  <fix>3d</fix>
</trkpt>
<trkpt lat="-27.2707544" lon="151.2922249">
  <ele>343.0</ele>
  <time>2026-09-01T19:57:04Z</time>
  <course>55.05</course>
  <speed>4.990761464947008</speed>
  <fix>3d</fix>
</trkpt>
<trkpt lat="-27.2727299" lon="151.2913412">
  <ele>359.42</ele>
  <time>2026-09-01T19:57:04Z</time>
  <course>208.53</course>
  <speed>25.568594016879377</speed>
  <fix>3d</fix>
</trkpt>
<trkpt lat="-27.2726694" lon="151.291375">
  <ele>359.55</ele>
  <time>2026-09-01T19:57:04Z</time>
  <course>202.25</course>
  <speed>25.57</speed>
  <fix>3d</fix>
</trkpt>
<trkpt lat="-27.2727495" lon="151.2913276">
  <ele>359.38</ele>
  <time>2026-09-01T19:57:04Z</time>
  <course>211.32</course>
  <speed>25.57589685621992</speed>
  <fix>3d</fix>
</trkpt>
<trkpt lat="-27.272711" lon="151.2913531">
  <ele>359.45</ele>
  <time>2026-09-01T19:57:04Z</time>
  <course>207.74</course>
  <speed>25.58</speed>
  <fix>3d</fix>
</trkpt>
<trkpt lat="-27.2707493" lon="151.2922332">
  <ele>343.0</ele>
  <time>2026-09-01T19:57:04Z</time>
  <course>55.17</course>
  <speed>4.993245437588663</speed>
  <fix>3d</fix>
</trkpt>
<trkpt lat="-27.2727683" lon="151.2913131">
  <ele>359.33</ele>
  <time>2026-09-01T19:57:04Z</time>
  <course>214.05</course>
  <speed>25.584135709458707</speed>
  <fix>3d</fix>
</trkpt>
<trkpt lat="-27.272711" lon="151.2913531">
  <ele>359.45</ele>
  <time>2026-09-01T19:57:04Z</time>
  <course>207.74</course>
  <speed>25.58</speed>
  <fix>3d</fix>
</trkpt>
<trkpt lat="-27.2727867" lon="151.2912974">
  <ele>359.29</ele>
  <time>2026-09-01T19:57:04Z</time>
  <course>216.91</course>
  <speed>25.592196076147903</speed>
  <fix>3d</fix>
</trkpt>
<trkpt lat="-27.2727506" lon="151.2913269">
  <ele>359.34</ele>
  <time>2026-09-01T19:57:04Z</time>
  <course>213.22</course>
  <speed>25.6</speed>
  <fix>3d</fix>
</trkpt>
<trkpt lat="-27.2707442" lon="151.2922415">
  <ele>343.0</ele>
  <time>2026-09-01T19:57:04Z</time>
  <course>55.28</course>
  <speed>4.995768209194658</speed>
  <fix>3d</fix>
</trkpt>
<trkpt lat="-27.2728043" lon="151.2912807">
  <ele>359.25</ele>
  <time>2026-09-01T19:57:04Z</time>
  <course>219.68</course>
  <speed>25.603007635822788</speed>
  <fix>3d</fix>
</trkpt>
<trkpt lat="-27.2727506" lon="151.2913269">
  <ele>359.34</ele>
  <time>2026-09-01T19:57:04Z</time>
  <course>213.22</course>
  <speed>25.6</speed>
  <fix>3d</fix>
</trkpt>
<trkpt lat="-27.2728212" lon="151.2912631">
  <ele>359.22</ele>
  <time>2026-09-01T19:57:04Z</time>
  <course>222.42</course>
  <speed>25.606493317125636</speed>
  <fix>3d</fix>
</trkpt>
<trkpt lat="-27.2727878" lon="151.2912964">
  <ele>359.26</ele>
  <time>2026-09-01T19:57:04Z</time>
  <course>218.81</course>
  <speed>25.61</speed>
  <fix>3d</fix>
</trkpt>
<trkpt lat="-27.270739" lon="151.2922498">
  <ele>343.0</ele>
  <time>2026-09-01T19:57:04Z</time>
  <course>55.4</course>
  <speed>4.990090179545857</speed>
  <fix>3d</fix>
</trkpt>
<trkpt lat="-27.2728374" lon="151.2912444">
  <ele>359.18</ele>
  <time>2026-09-01T19:57:04Z</time>
  <course>225.22</course>
  <speed>25.61376583011565</speed>
  <fix>3d</fix>
</trkpt>
<trkpt lat="-27.2727878" lon="151.2912964">
  <ele>359.26</ele>
  <time>2026-09-01T19:57:04Z</time>
  <course>218.81</course>
  <speed>25.61</speed>
  <fix>3d</fix>
</trkpt>
<trkpt lat="-27.2728527" lon="151.291225">
  <ele>359.14</ele>
  <time>2026-09-01T19:57:04Z</time>
  <course>228.06</course>
  <speed>25.618095167283613</speed>
  <fix>3d</fix>
</trkpt>
<trkpt lat="-27.2728222" lon="151.291262">
  <ele>359.17</ele>
  <time>2026-09-01T19:57:04Z</time>
  <course>224.39</course>
  <speed>25.62</speed>
  <fix>3d</fix>
</trkpt>
<trkpt lat="-27.270734" lon="151.2922581">
  <ele>343.0</ele>
  <time>2026-09-01T19:57:04Z</time>
  <course>55.51</course>
  <speed>4.9983297210168125</speed>
  <fix>3d</fix>
</trkpt>
<trkpt lat="-27.2728671" lon="151.2912048">
  <ele>359.11</ele>
  <time>2026-09-01T19:57:04Z</time>
  <course>230.83</course>
  <speed>25.626927244599575</speed>
  <fix>3d</fix>
</trkpt>
<trkpt lat="-27.2728222" lon="151.291262">
  <ele>359.17</ele>
  <time>2026-09-01T19:57:04Z</time>
  <course>224.39</course>
  <speed>25.62</speed>
  <fix>3d</fix>
</trkpt>
<trkpt lat="-27.2728807" lon="151.2911838">
  <ele>359.07</ele>
  <time>2026-09-01T19:57:04Z</time>
  <course>233.65</course>
  <speed>25.646771726671563</speed>
  <fix>3d</fix>
</trkpt>
<trkpt lat="-27.2728534" lon="151.2912241">
  <ele>359.09</ele>
  <time>2026-09-01T19:57:04Z</time>
  <course>229.94</course>
  <speed>25.64</speed>
  <fix>3d</fix>
</trkpt>
<trkpt lat="-27.2707289" lon="151.2922665">
  <ele>343.0</ele>
  <time>2026-09-01T19:57:04Z</time>
  <course>55.62</course>
  <speed>4.992674633901151</speed>
  <fix>3d</fix>
</trkpt>
<trkpt lat="-27.2728933" lon="151.2911621">
  <ele>359.03</ele>
  <time>2026-09-01T19:57:04Z</time>
  <course>236.54</course>
  <speed>25.648056456581656</speed>
  <fix>3d</fix>
</trkpt>
<trkpt lat="-27.2728534" lon="151.2912241">
  <ele>359.09</ele>
  <time>2026-09-01T19:57:04Z</time>
  <course>229.94</course>
  <speed>25.64</speed>
  <fix>3d</fix>
</trkpt>
<trkpt lat="-27.2729049" lon="151.2911397">
  <ele>359.0</ele>
  <time>2026-09-01T19:57:04Z</time>
  <course>239.39</course>
  <speed>25.65473250688847</speed>
  <fix>3d</fix>
</trkpt>
<trkpt lat="-27.2728814" lon="151.2911828">
  <ele>359.02</ele>
  <time>2026-09-01T19:57:04Z</time>
  <course>235.56</course>
  <speed>25.65</speed>
  <fix>3d</fix>
</trkpt>
<trkpt lat="-27.2707238" lon="151.2922748">
  <ele>343.0</ele>
  <time>2026-09-01T19:57:04Z</time>
  <course>55.74</course>
  <speed>4.995297788921096</speed>
  <fix>3d</fix>
</trkpt>
<trkpt lat="-27.2729156" lon="151.2911167">
  <ele>358.96</ele>
  <time>2026-09-01T19:57:04Z</time>
  <course>242.17</course>
  <speed>25.6578662402001</speed>
  <fix>3d</fix>
</trkpt>
<trkpt lat="-27.2728814" lon="151.2911828">
  <ele>359.02</ele>
  <time>2026-09-01T19:57:04Z</time>
  <course>235.56</course>
  <speed>25.65</speed>
  <fix>3d</fix>
</trkpt>
<trkpt lat="-27.2729252" lon="151.291093">
  <ele>358.93</ele>
  <time>2026-09-01T19:57:04Z</time>
  <course>244.98</course>
  <speed>25.66909620535947</speed>
  <fix>3d</fix>
</trkpt>
<trkpt lat="-27.2729056" lon="151.2911385">
  <ele>358.94</ele>
  <time>2026-09-01T19:57:04Z</time>
  <course>241.24</course>
  <speed>25.67</speed>
  <fix>3d</fix>
</trkpt>
<trkpt lat="-27.2707188" lon="151.2922832">
  <ele>343.0</ele>
  <time>2026-09-01T19:57:04Z</time>
  <course>55.85</course>
  <speed>4.989679348415086</speed>
  <fix>3d</fix>
</trkpt>
<trkpt lat="-27.2729338" lon="151.2910689">
  <ele>358.89</ele>
  <time>2026-09-01T19:57:04Z</time>
  <course>247.8</course>
  <speed>25.680097351840395</speed>
  <fix>3d</fix>
</trkpt>
<trkpt lat="-27.2729056" lon="151.2911385">
  <ele>358.94</ele>
  <time>2026-09-01T19:57:04Z</time>
  <course>241.24</course>
  <speed>25.67</speed>
  <fix>3d</fix>
</trkpt>
<trkpt lat="-27.2729413" lon="151.2910443">
  <ele>358.86</ele>
  <time>2026-09-01T19:57:04Z</time>
  <course>250.63</course>
  <speed>25.68701228247458</speed>
  <fix>3d</fix>
</trkpt>
<trkpt lat="-27.2729257" lon="151.2910919">
  <ele>358.87</ele>
  <time>2026-09-01T19:57:04Z</time>
  <course>246.89</course>
  <speed>25.68</speed>
  <fix>3d</fix>
</trkpt>
<trkpt lat="-27.2707137" lon="151.2922915">
  <ele>343.0</ele>
  <time>2026-09-01T19:57:04Z</time>
  <course>55.97</course>
  <speed>4.992364169409118</speed>
  <fix>3d</fix>
</trkpt>
<trkpt lat="-27.2729477" lon="151.2910194">
  <ele>358.83</ele>
  <time>2026-09-01T19:57:04Z</time>
  <course>253.41</course>
  <speed>25.689065767364912</speed>
  <fix>3d</fix>
</trkpt>
<trkpt lat="-27.2729257" lon="151.2910919">
  <ele>358.87</ele>
  <time>2026-09-01T19:57:04Z</time>
  <course>246.89</course>
  <speed>25.68</speed>
  <fix>3d</fix>
</trkpt>
<trkpt lat="-27.2729531" lon="151.2909941">
  <ele>358.79</ele>
  <time>2026-09-01T19:57:04Z</time>
  <course>256.17</course>
  <speed>25.698803474091942</speed>
  <fix>3d</fix>
</trkpt>
<trkpt lat="-27.2729417" lon="151.2910432">
  <ele>358.8</ele>
  <time>2026-09-01T19:57:04Z</time>
  <course>252.51</course>
  <speed>25.69</speed>
  <fix>3d</fix>
</trkpt>
<trkpt lat="-27.2707087" lon="151.2922999">
  <ele>343.0</ele>
  <time>2026-09-01T19:57:04Z</time>
  <course>56.08</course>
  <speed>4.986782529848279</speed>
  <fix>3d</fix>
</trkpt>
<trkpt lat="-27.2729573" lon="151.2909685">
  <ele>358.76</ele>
  <time>2026-09-01T19:57:04Z</time>
  <course>258.93</course>
  <speed>25.699161464919435</speed>
  <fix>3d</fix>
</trkpt>
<trkpt lat="-27.2729417" lon="151.2910432">
  <ele>358.8</ele>
  <time>2026-09-01T19:57:04Z</time>
  <course>252.51</course>
  <speed>25.69</speed>
  <fix>3d</fix>
</trkpt>
<trkpt lat="-27.2729605" lon="151.2909426">
  <ele>358.73</ele>
  <time>2026-09-01T19:57:04Z</time>
  <course>261.74</course>
  <speed>25.698523303878765</speed>
  <fix>3d</fix>
</trkpt>
<trkpt lat="-27.2729534" lon="151.290993">
  <ele>358.74</ele>
  <time>2026-09-01T19:57:04Z</time>
  <course>258.11</course>
  <speed>25.7</speed>
  <fix>3d</fix>
</trkpt>
<trkpt lat="-27.2707037" lon="151.2923083">
  <ele>343.0</ele>
  <time>2026-09-01T19:57:04Z</time>
  <course>56.2</course>
  <speed>4.9950875868196745</speed>
  <fix>3d</fix>
</trkpt>
<trkpt lat="-27.2729625" lon="151.2909167">
  <ele>358.71</ele>
  <time>2026-09-01T19:57:04Z</time>
  <course>264.42</course>
  <speed>25.70110698005049</speed>
  <fix>3d</fix>
</trkpt>
<trkpt lat="-27.2729534" lon="151.290993">
  <ele>358.74</ele>
  <time>2026-09-01T19:57:04Z</time>
  <course>258.11</course>
  <speed>25.7</speed>
  <fix>3d</fix>
</trkpt>
<trkpt lat="-27.2729635" lon="151.2908907">
  <ele>358.68</ele>
  <time>2026-09-01T19:57:04Z</time>
  <course>267.09</course>
  <speed>25.70343167750174</speed>
  <fix>3d</fix>
</trkpt>
<trkpt lat="-27.2729607" lon="151.2909417">
  <ele>358.68</ele>
  <time>2026-09-01T19:57:04Z</time>
  <course>263.66</course>
  <speed>25.7</speed>
  <fix>3d</fix>
</trkpt>
<trkpt lat="-27.2706987" lon="151.2923167">
  <ele>343.0</ele>
  <time>2026-09-01T19:57:04Z</time>
  <course>56.31</course>
  <speed>4.997849537551126</speed>
  <fix>3d</fix>
</trkpt>
<trkpt lat="-27.2729633" lon="151.2908648">
  <ele>358.65</ele>
  <time>2026-09-01T19:57:04Z</time>
  <course>269.84</course>
  <speed>25.701838455643596</speed>
  <fix>3d</fix>
</trkpt>
<trkpt lat="-27.2729607" lon="151.2909417">
  <ele>358.68</ele>
  <time>2026-09-01T19:57:04Z</time>
  <course>263.66</course>
  <speed>25.7</speed>
  <fix>3d</fix>
</trkpt>
<trkpt lat="-27.2729621" lon="151.2908391">
  <ele>358.62</ele>
  <time>2026-09-01T19:57:04Z</time>
  <course>272.45</course>
  <speed>25.695628032799664</speed>
  <fix>3d</fix>
</trkpt>
<trkpt lat="-27.2729636" lon="151.2908899">
  <ele>358.63</ele>
  <time>2026-09-01T19:57:04Z</time>
  <course>269.12</course>
  <speed>25.7</speed>
  <fix>3d</fix>
</trkpt>
<trkpt lat="-27.2706937" lon="151.2923251">
  <ele>343.0</ele>
  <time>2026-09-01T19:57:04Z</time>
  <course>56.43</course>
  <speed>4.9923140926828715</speed>
  <fix>3d</fix>
</trkpt>
<trkpt lat="-27.2729598" lon="151.2908132">
  <ele>358.6</ele>
  <time>2026-09-01T19:57:04Z</time>
  <course>275.06</course>
  <speed>25.692598155889176</speed>
  <fix>3d</fix>
</trkpt>
<trkpt lat="-27.2729636" lon="151.2908899">
  <ele>358.63</ele>
  <time>2026-09-01T19:57:04Z</time>
  <course>269.12</course>
  <speed>25.7</speed>
  <fix>3d</fix>
</trkpt>
<trkpt lat="-27.2729565" lon="151.2907876">
  <ele>358.57</ele>
  <time>2026-09-01T19:57:04Z</time>
  <course>277.66</course>
  <speed>25.682531027918568</speed>
  <fix>3d</fix>
</trkpt>
<trkpt lat="-27.2729622" lon="151.2908381">
  <ele>358.57</ele>
  <time>2026-09-01T19:57:04Z</time>
  <course>274.46</course>
  <speed>25.69</speed>
  <fix>3d</fix>
</trkpt>
<trkpt lat="-27.2706888" lon="151.2923335">
  <ele>343.0</ele>
  <time>2026-09-01T19:57:04Z</time>
  <course>56.54</course>
  <speed>4.995137635741382</speed>
  <fix>3d</fix>
</trkpt>
<trkpt lat="-27.2729522" lon="151.2907621">
  <ele>358.54</ele>
  <time>2026-09-01T19:57:04Z</time>
  <course>280.23</course>
  <speed>25.670858964982063</speed>
  <fix>3d</fix>
</trkpt>
<trkpt lat="-27.2729622" lon="151.2908381">
  <ele>358.57</ele>
  <time>2026-09-01T19:57:04Z</time>
  <course>274.46</course>
  <speed>25.69</speed>
  <fix>3d</fix>
</trkpt>
<trkpt lat="-27.2729468" lon="151.2907367">
  <ele>358.51</ele>
  <time>2026-09-01T19:57:04Z</time>
  <course>282.77</course>
  <speed>25.662612883336724</speed>
  <fix>3d</fix>
</trkpt>
<trkpt lat="-27.2729565" lon="151.2907866">
  <ele>358.51</ele>
  <time>2026-09-01T19:57:04Z</time>
  <course>279.71</course>
  <speed>25.68</speed>
  <fix>3d</fix>
</trkpt>
<trkpt lat="-27.2706839" lon="151.292342">
  <ele>343.0</ele>
  <time>2026-09-01T19:57:04Z</time>
  <course>56.65</course>
  <speed>4.989639265518099</speed>
  <fix>3d</fix>
</trkpt>
<trkpt lat="-27.2729404" lon="151.2907118">
  <ele>358.48</ele>
  <time>2026-09-01T19:57:04Z</time>
  <course>285.22</course>
  <speed>25.654038668404628</speed>
  <fix>3d</fix>
</trkpt>
<trkpt lat="-27.2729565" lon="151.2907866">
  <ele>358.51</ele>
  <time>2026-09-01T19:57:04Z</time>
  <course>279.71</course>
  <speed>25.68</speed>
  <fix>3d</fix>
</trkpt>
<trkpt lat="-27.2729331" lon="151.2906872">
  <ele>358.44</ele>
  <time>2026-09-01T19:57:04Z</time>
  <course>287.71</course>
  <speed>25.647085604411274</speed>
  <fix>3d</fix>
</trkpt>
<trkpt lat="-27.2729467" lon="151.2907359">
  <ele>358.45</ele>
  <time>2026-09-01T19:57:04Z</time>
  <course>284.86</course>
  <speed>25.66</speed>
  <fix>3d</fix>
</trkpt>
<trkpt lat="-27.2706789" lon="151.2923504">
  <ele>343.0</ele>
  <time>2026-09-01T19:57:04Z</time>
  <course>56.77</course>
  <speed>4.992524411557744</speed>
  <fix>3d</fix>
</trkpt>
<trkpt lat="-27.2729248" lon="151.290663">
  <ele>358.4</ele>
  <time>2026-09-01T19:57:04Z</time>
  <course>290.15</course>
  <speed>25.643543046934838</speed>
  <fix>3d</fix>
</trkpt>
<trkpt lat="-27.2729467" lon="151.2907359">
  <ele>358.45</ele>
  <time>2026-09-01T19:57:04Z</time>
  <course>284.86</course>
  <speed>25.66</speed>
  <fix>3d</fix>
</trkpt>
<trkpt lat="-27.2729157" lon="151.2906393">
  <ele>358.36</ele>
  <time>2026-09-01T19:57:04Z</time>
  <course>292.47</course>
  <speed>25.62616241265945</speed>
  <fix>3d</fix>
</trkpt>
<trkpt lat="-27.2729329" lon="151.2906864">
  <ele>358.38</ele>
  <time>2026-09-01T19:57:04Z</time>
  <course>289.89</course>
  <speed>25.65</speed>
  <fix>3d</fix>
</trkpt>
<trkpt lat="-27.270674" lon="151.2923589">
  <ele>343.0</ele>
  <time>2026-09-01T19:57:04Z</time>
  <course>56.88</course>
  <speed>4.992524411557744</speed>
  <fix>3d</fix>
</trkpt>
<trkpt lat="-27.2729056" lon="151.290616">
  <ele>358.32</ele>
  <time>2026-09-01T19:57:04Z</time>
  <course>294.88</course>
  <speed>25.617220770411453</speed>
  <fix>3d</fix>
</trkpt>
<trkpt lat="-27.2729329" lon="151.2906864">
  <ele>358.38</ele>
  <time>2026-09-01T19:57:04Z</time>
  <course>289.89</course>
  <speed>25.65</speed>
  <fix>3d</fix>
</trkpt>
<trkpt lat="-27.2728948" lon="151.2905932">
  <ele>358.28</ele>
  <time>2026-09-01T19:57:04Z</time>
  <course>297.22</course>
  <speed>25.602533077803063</speed>
  <fix>3d</fix>
</trkpt>
<trkpt lat="-27.2729153" lon="151.2906383">
  <ele>358.3</ele>
  <time>2026-09-01T19:57:04Z</time>
  <course>294.74</course>
  <speed>25.64</speed>
  <fix>3d</fix>
</trkpt>
<trkpt lat="-27.2706691" lon="151.2923674">
  <ele>343.0</ele>
  <time>2026-09-01T19:57:04Z</time>
  <course>57.0</course>
  <speed>4.9954479278639266</speed>
  <fix>3d</fix>
</trkpt>
<trkpt lat="-27.2728831" lon="151.2905709">
  <ele>358.23</ele>
  <time>2026-09-01T19:57:04Z</time>
  <course>299.45</course>
  <speed>25.601517533146353</speed>
  <fix>3d</fix>
</trkpt>
<trkpt lat="-27.2729153" lon="151.2906383">
  <ele>358.3</ele>
  <time>2026-09-01T19:57:04Z</time>
  <course>294.74</course>
  <speed>25.64</speed>
  <fix>3d</fix>
</trkpt>
<trkpt lat="-27.2728706" lon="151.2905491">
  <ele>358.18</ele>
  <time>2026-09-01T19:57:04Z</time>
  <course>301.67</course>
  <speed>25.58848373780674</speed>
  <fix>3d</fix>
</trkpt>
<trkpt lat="-27.2728944" lon="151.2905922">
  <ele>358.21</ele>
  <time>2026-09-01T19:57:04Z</time>
  <course>299.44</course>
  <speed>25.62</speed>
  <fix>3d</fix>
</trkpt>
<trkpt lat="-27.2706642" lon="151.2923759">
  <ele>343.0</ele>
  <time>2026-09-01T19:57:04Z</time>
  <course>57.11</course>
  <speed>4.99001002003002</speed>
  <fix>3d</fix>
</trkpt>
<trkpt lat="-27.2728574" lon="151.2905279">
  <ele>358.12</ele>
  <time>2026-09-01T19:57:04Z</time>
  <course>303.9</course>
  <speed>25.58405167286839</speed>
  <fix>3d</fix>
</trkpt>
<trkpt lat="-27.2728944" lon="151.2905922">
  <ele>358.21</ele>
  <time>2026-09-01T19:57:04Z</time>
  <course>299.44</course>
  <speed>25.62</speed>
  <fix>3d</fix>
</trkpt>
<trkpt lat="-27.2728435" lon="151.2905073">
  <ele>358.06</ele>
  <time>2026-09-01T19:57:04Z</time>
  <course>306.1</course>
  <speed>25.570674609794715</speed>
  <fix>3d</fix>
</trkpt>
<trkpt lat="-27.2728702" lon="151.2905482">
  <ele>358.1</ele>
  <time>2026-09-01T19:57:04Z</time>
  <course>304.01</course>
  <speed>25.6</speed>
  <fix>3d</fix>
</trkpt>
<trkpt lat="-27.2706594" lon="151.2923843">
  <ele>343.0</ele>
  <time>2026-09-01T19:57:04Z</time>
  <course>57.23</course>
  <speed>4.992995093127972</speed>
  <fix>3d</fix>
</trkpt>
<trkpt lat="-27.2728289" lon="151.2904873">
  <ele>358.0</ele>
  <time>2026-09-01T19:57:04Z</time>
  <course>308.25</course>
  <speed>25.563129698845565</speed>
  <fix>3d</fix>
</trkpt>
<trkpt lat="-27.2728702" lon="151.2905482">
  <ele>358.1</ele>
  <time>2026-09-01T19:57:04Z</time>
  <course>304.01</course>
  <speed>25.6</speed>
  <fix>3d</fix>
</trkpt>
<trkpt lat="-27.2728137" lon="151.290468">
  <ele>357.93</ele>
  <time>2026-09-01T19:57:04Z</time>
  <course>310.46</course>
  <speed>25.555353646545377</speed>
  <fix>3d</fix>
</trkpt>
<trkpt lat="-27.272843" lon="151.2905065">
  <ele>357.99</ele>
  <time>2026-09-01T19:57:04Z</time>
  <course>308.43</course>
  <speed>25.58</speed>
  <fix>3d</fix>
</trkpt>
<trkpt lat="-27.2706545" lon="151.2923928">
  <ele>343.0</ele>
  <time>2026-09-01T19:57:04Z</time>
  <course>57.34</course>
  <speed>4.9875946106314615</speed>
  <fix>3d</fix>
</trkpt>
<trkpt lat="-27.2727978" lon="151.2904493">
  <ele>357.87</ele>
  <time>2026-09-01T19:57:04Z</time>
  <course>312.64</course>
  <speed>25.55497994520833</speed>
  <fix>3d</fix>
</trkpt>
<trkpt lat="-27.272843" lon="151.2905065">
  <ele>357.99</ele>
  <time>2026-09-01T19:57:04Z</time>
  <course>308.43</course>
  <speed>25.58</speed>
  <fix>3d</fix>
</trkpt>
<trkpt lat="-27.2727814" lon="151.2904314">
  <ele>357.79</ele>
  <time>2026-09-01T19:57:04Z</time>
  <course>314.7</course>
  <speed>25.548434394302912</speed>
  <fix>3d</fix>
</trkpt>
<trkpt lat="-27.2728131" lon="151.2904673">
  <ele>357.86</ele>
  <time>2026-09-01T19:57:04Z</time>
  <course>312.77</course>
  <speed>25.57</speed>
  <fix>3d</fix>
</trkpt>
<trkpt lat="-27.2706496" lon="151.2924014">
  <ele>343.0</ele>
  <time>2026-09-01T19:57:04Z</time>
  <course>57.46</course>
  <speed>4.9906412413636785</speed>
  <fix>3d</fix>
</trkpt>
<trkpt lat="-27.2727643" lon="151.2904141">
  <ele>357.72</ele>
  <time>2026-09-01T19:57:04Z</time>
  <course>316.7</course>
  <speed>25.53880380910586</speed>
  <fix>3d</fix>
</trkpt>
<trkpt lat="-27.2728131" lon="151.2904673">
  <ele>357.86</ele>
  <time>2026-09-01T19:57:04Z</time>
  <course>312.77</course>
  <speed>25.57</speed>
  <fix>3d</fix>
</trkpt>
<trkpt lat="-27.2727467" lon="151.2903975">
  <ele>357.64</ele>
  <time>2026-09-01T19:57:04Z</time>
  <course>318.69</course>
  <speed>25.531754737972868</speed>
  <fix>3d</fix>
</trkpt>
<trkpt lat="-27.2727807" lon="151.2904308">
  <ele>357.71</ele>
  <time>2026-09-01T19:57:04Z</time>
  <course>317.02</course>
  <speed>25.55</speed>
  <fix>3d</fix>
</trkpt>
<trkpt lat="-27.2706448" lon="151.2924099">
  <ele>343.0</ele>
  <time>2026-09-01T19:57:04Z</time>
  <course>57.57</course>
  <speed>4.9990799153444225</speed>
  <fix>3d</fix>
</trkpt>
<trkpt lat="-27.2727287" lon="151.2903816">
  <ele>357.55</ele>
  <time>2026-09-01T19:57:04Z</time>
  <course>320.69</course>
  <speed>25.534075272075157</speed>
  <fix>3d</fix>
</trkpt>
<trkpt lat="-27.2727807" lon="151.2904308">
  <ele>357.71</ele>
  <time>2026-09-01T19:57:04Z</time>
  <course>317.02</course>
  <speed>25.55</speed>
  <fix>3d</fix>
</trkpt>
<trkpt lat="-27.2727101" lon="151.2903664">
  <ele>357.47</ele>
  <time>2026-09-01T19:57:04Z</time>
  <course>322.71</course>
  <speed>25.53710437774808</speed>
  <fix>3d</fix>
</trkpt>
<trkpt lat="-27.272746" lon="151.2903969">
  <ele>357.56</ele>
  <time>2026-09-01T19:57:04Z</time>
  <course>321.11</course>
  <speed>25.55</speed>
  <fix>3d</fix>
</trkpt>
<trkpt lat="-27.27064" lon="151.2924184">
  <ele>343.0</ele>
  <time>2026-09-01T19:57:04Z</time>
  <course>57.68</course>
  <speed>4.993726063772421</speed>
  <fix>3d</fix>
</trkpt>
<trkpt lat="-27.2726911" lon="151.290352">
  <ele>357.38</ele>
  <time>2026-09-01T19:57:04Z</time>
  <course>324.67</course>
  <speed>25.526006346469476</speed>
  <fix>3d</fix>
</trkpt>
<trkpt lat="-27.272746" lon="151.2903969">
  <ele>357.56</ele>
  <time>2026-09-01T19:57:04Z</time>
  <course>321.11</course>
  <speed>25.55</speed>
  <fix>3d</fix>
</trkpt>
<trkpt lat="-27.2726716" lon="151.2903383">
  <ele>357.29</ele>
  <time>2026-09-01T19:57:04Z</time>
  <course>326.63</course>
  <speed>25.527681054102818</speed>
  <fix>3d</fix>
</trkpt>
<trkpt lat="-27.2727093" lon="151.290366">
  <ele>357.39</ele>
  <time>2026-09-01T19:57:04Z</time>
  <course>325.08</course>
  <speed>25.54</speed>
  <fix>3d</fix>
</trkpt>
<trkpt lat="-27.2706352" lon="151.292427">
  <ele>343.0</ele>
  <time>2026-09-01T19:57:04Z</time>
  <course>57.8</course>
  <speed>4.99684900712439</speed>
  <fix>3d</fix>
</trkpt>
<trkpt lat="-27.2726516" lon="151.2903252">
  <ele>357.2</ele>
  <time>2026-09-01T19:57:04Z</time>
  <course>328.51</course>
  <speed>25.53231873528137</speed>
  <fix>3d</fix>
</trkpt>
<trkpt lat="-27.2727093" lon="151.290366">
  <ele>357.39</ele>
  <time>2026-09-01T19:57:04Z</time>
  <course>325.08</course>
  <speed>25.54</speed>
  <fix>3d</fix>
</trkpt>
<trkpt lat="-27.2726314" lon="151.290313">
  <ele>357.11</ele>
  <time>2026-09-01T19:57:04Z</time>
  <course>330.43</course>
  <speed>25.533807001698747</speed>
  <fix>3d</fix>
</trkpt>
<trkpt lat="-27.2726708" lon="151.2903379">
  <ele>357.21</ele>
  <time>2026-09-01T19:57:04Z</time>
  <course>328.96</course>
  <speed>25.55</speed>
  <fix>3d</fix>
</trkpt>
<trkpt lat="-27.2706304" lon="151.2924355">
  <ele>343.0</ele>
  <time>2026-09-01T19:57:04Z</time>
  <course>57.91</course>
  <speed>4.991532830704412</speed>
  <fix>3d</fix>
</trkpt>
<trkpt lat="-27.2726109" lon="151.2903015">
  <ele>357.02</ele>
  <time>2026-09-01T19:57:04Z</time>
  <course>332.39</course>
  <speed>25.545367486102055</speed>
  <fix>3d</fix>
</trkpt>
<trkpt lat="-27.2726708" lon="151.2903379">
  <ele>357.21</ele>
  <time>2026-09-01T19:57:04Z</time>
  <course>328.96</course>
  <speed>25.55</speed>
  <fix>3d</fix>
</trkpt>
<trkpt lat="-27.27259" lon="151.2902908">
  <ele>356.93</ele>
  <time>2026-09-01T19:57:04Z</time>
  <course>334.26</course>
  <speed>25.53962020077824</speed>
  <fix>3d</fix>
</trkpt>
<trkpt lat="-27.2726308" lon="151.2903127">
  <ele>357.03</ele>
  <time>2026-09-01T19:57:04Z</time>
  <course>332.77</course>
  <speed>25.55</speed>
  <fix>3d</fix>
</trkpt>
<trkpt lat="-27.2706257" lon="151.2924441">
  <ele>343.0</ele>
  <time>2026-09-01T19:57:04Z</time>
  <course>58.03</course>
  <speed>4.9947172092121495</speed>
  <fix>3d</fix>
</trkpt>
<trkpt lat="-27.2725688" lon="151.2902809">
  <ele>356.84</ele>
  <time>2026-09-01T19:57:04Z</time>
  <course>336.07</course>
  <speed>25.54612495076308</speed>
  <fix>3d</fix>
</trkpt>
<trkpt lat="-27.2726308" lon="151.2903127">
  <ele>357.03</ele>
  <time>2026-09-01T19:57:04Z</time>
  <course>332.77</course>
  <speed>25.55</speed>
  <fix>3d</fix>
</trkpt>
<trkpt lat="-27.2725474" lon="151.2902717">
  <ele>356.75</ele>
  <time>2026-09-01T19:57:04Z</time>
  <course>337.81</course>
  <speed>25.553841198536084</speed>
  <fix>3d</fix>
</trkpt>
<trkpt lat="-27.2725892" lon="151.2902906">
  <ele>356.85</ele>
  <time>2026-09-01T19:57:04Z</time>
  <course>336.52</course>
  <speed>25.56</speed>
  <fix>3d</fix>
</trkpt>
<trkpt lat="-27.2706209" lon="151.2924527">
  <ele>343.0</ele>
  <time>2026-09-01T19:57:04Z</time>
  <course>58.14</course>
  <speed>4.989438846203047</speed>
  <fix>3d</fix>
</trkpt>
<trkpt lat="-27.2725257" lon="151.2902633">
  <ele>356.66</ele>
  <time>2026-09-01T19:57:04Z</time>
  <course>339.55</course>
  <speed>25.557754204937492</speed>
  <fix>3d</fix>
</trkpt>
<trkpt lat="-27.2725892" lon="151.2902906">
  <ele>356.85</ele>
  <time>2026-09-01T19:57:04Z</time>
  <course>336.52</course>
  <speed>25.56</speed>
  <fix>3d</fix>
</trkpt>
<trkpt lat="-27.2725037" lon="151.2902556">
  <ele>356.58</ele>
  <time>2026-09-01T19:57:04Z</time>
  <course>341.34</course>
  <speed>25.566540634196095</speed>
  <fix>3d</fix>
</trkpt>
<trkpt lat="-27.2725464" lon="151.2902715">
  <ele>356.66</ele>
  <time>2026-09-01T19:57:04Z</time>
  <course>340.14</course>
  <speed>25.58</speed>
  <fix>3d</fix>
</trkpt>
<trkpt lat="-27.2706162" lon="151.2924613">
  <ele>343.0</ele>
  <time>2026-09-01T19:57:04Z</time>
  <course>58.26</course>
  <speed>4.9979395754650735</speed>
  <fix>3d</fix>
</trkpt>
<trkpt lat="-27.2724816" lon="151.2902487">
  <ele>356.49</ele>
  <time>2026-09-01T19:57:04Z</time>
  <course>343.09</course>
  <speed>25.569960891640015</speed>
  <fix>3d</fix>
</trkpt>
<trkpt lat="-27.2725464" lon="151.2902715">
  <ele>356.66</ele>
  <time>2026-09-01T19:57:04Z</time>
  <course>340.14</course>
  <speed>25.58</speed>
  <fix>3d</fix>
</trkpt>
<trkpt lat="-27.2724593" lon="151.2902425">
  <ele>356.41</ele>
  <time>2026-09-01T19:57:04Z</time>
  <course>344.8</course>
  <speed>25.579274813801895</speed>
  <fix>3d</fix>
</trkpt>
<trkpt lat="-27.2725027" lon="151.2902555">
  <ele>356.48</ele>
  <time>2026-09-01T19:57:04Z</time>
  <course>343.65</course>
  <speed>25.59</speed>
  <fix>3d</fix>
</trkpt>
<trkpt lat="-27.2706115" lon="151.2924699">
  <ele>343.0</ele>
  <time>2026-09-01T19:57:04Z</time>
  <course>58.37</course>
  <speed>4.992684648563336</speed>
  <fix>3d</fix>
</trkpt>
<trkpt lat="-27.2724368" lon="151.290237">
  <ele>356.33</ele>
  <time>2026-09-01T19:57:04Z</time>
  <course>346.44</course>
  <speed>25.5833715526316</speed>
  <fix>3d</fix>
</trkpt>
<trkpt lat="-27.2725027" lon="151.2902555">
  <ele>356.48</ele>
  <time>2026-09-01T19:57:04Z</time>
  <course>343.65</course>
  <speed>25.59</speed>
  <fix>3d</fix>
</trkpt>
<trkpt lat="-27.2724142" lon="151.2902323">
  <ele>356.25</ele>
  <time>2026-09-01T19:57:04Z</time>
  <course>348.08</course>
  <speed>25.6005566345734</speed>
  <fix>3d</fix>
</trkpt>
<trkpt lat="-27.2724582" lon="151.2902423">
  <ele>356.31</ele>
  <time>2026-09-01T19:57:04Z</time>
  <course>347.06</course>
  <speed>25.6</speed>
  <fix>3d</fix>
</trkpt>
<trkpt lat="-27.2706068" lon="151.2924785">
  <ele>343.0</ele>
  <time>2026-09-01T19:57:04Z</time>
  <course>58.49</course>
  <speed>4.995968374599663</speed>
  <fix>3d</fix>
</trkpt>
<trkpt lat="-27.2723914" lon="151.2902283">
  <ele>356.17</ele>
  <time>2026-09-01T19:57:04Z</time>
  <course>349.67</course>
  <speed>25.608580593230855</speed>
  <fix>3d</fix>
</trkpt>
<trkpt lat="-27.2724582" lon="151.2902423">
  <ele>356.31</ele>
  <time>2026-09-01T19:57:04Z</time>
  <course>347.06</course>
  <speed>25.6</speed>
  <fix>3d</fix>
</trkpt>
<trkpt lat="-27.2723686" lon="151.290225">
  <ele>356.09</ele>
  <time>2026-09-01T19:57:04Z</time>
  <course>351.31</course>
  <speed>25.61696508175783</speed>
  <fix>3d</fix>
</trkpt>
<trkpt lat="-27.2724132" lon="151.2902322">
  <ele>356.15</ele>
  <time>2026-09-01T19:57:04Z</time>
  <course>350.35</course>
  <speed>25.62</speed>
  <fix>3d</fix>
</trkpt>
<trkpt lat="-27.2706021" lon="151.2924871">
  <ele>343.0</ele>
  <time>2026-09-01T19:57:04Z</time>
  <course>58.6</course>
  <speed>4.990751446425678</speed>
  <fix>3d</fix>
</trkpt>
<trkpt lat="-27.2723457" lon="151.2902224">
  <ele>356.02</ele>
  <time>2026-09-01T19:57:04Z</time>
  <course>352.94</course>
  <speed>25.626339964965734</speed>
  <fix>3d</fix>
</trkpt>
<trkpt lat="-27.2724132" lon="151.2902322">
  <ele>356.15</ele>
  <time>2026-09-01T19:57:04Z</time>
  <course>350.35</course>
  <speed>25.62</speed>
  <fix>3d</fix>
</trkpt>
<trkpt lat="-27.2723227" lon="151.2902205">
  <ele>355.95</ele>
  <time>2026-09-01T19:57:04Z</time>
  <course>354.5</course>
  <speed>25.6351028864719</speed>
  <fix>3d</fix>
</trkpt>
<trkpt lat="-27.2723676" lon="151.290225">
  <ele>355.99</ele>
  <time>2026-09-01T19:57:04Z</time>
  <course>353.55</course>
  <speed>25.64</speed>
  <fix>3d</fix>
</trkpt>
<trkpt lat="-27.2705974" lon="151.2924957">
  <ele>343.0</ele>
  <time>2026-09-01T19:57:04Z</time>
  <course>58.72</course>
  <speed>4.994096514886351</speed>
  <fix>3d</fix>
</trkpt>
<trkpt lat="-27.2722997" lon="151.2902193">
  <ele>355.88</ele>
  <time>2026-09-01T19:57:04Z</time>
  <course>356.07</course>
  <speed>25.643761424564847</speed>
  <fix>3d</fix>
</trkpt>
<trkpt lat="-27.2723676" lon="151.290225">
  <ele>355.99</ele>
  <time>2026-09-01T19:57:04Z</time>
  <course>353.55</course>
  <speed>25.64</speed>
  <fix>3d</fix>
</trkpt>
<trkpt lat="-27.2722766" lon="151.2902189">
  <ele>355.82</ele>
  <time>2026-09-01T19:57:04Z</time>
  <course>357.54</course>
  <speed>25.660498826016614</speed>
  <fix>3d</fix>
</trkpt>
<trkpt lat="-27.2723217" lon="151.2902207">
  <ele>355.85</ele>
  <time>2026-09-01T19:57:04Z</time>
  <course>356.68</course>
  <speed>25.65</speed>
  <fix>3d</fix>
</trkpt>
<trkpt lat="-27.2705928" lon="151.2925044">
  <ele>343.0</ele>
  <time>2026-09-01T19:57:04Z</time>
  <course>58.83</course>
  <speed>4.988917718303239</speed>
  <fix>3d</fix>
</trkpt>
<trkpt lat="-27.2722535" lon="151.290219">
  <ele>355.76</ele>
  <time>2026-09-01T19:57:04Z</time>
  <course>358.95</course>
  <speed>25.664489085115257</speed>
  <fix>3d</fix>
</trkpt>
<trkpt lat="-27.2723217" lon="151.2902207">
  <ele>355.85</ele>
  <time>2026-09-01T19:57:04Z</time>
  <course>356.68</course>
  <speed>25.65</speed>
  <fix>3d</fix>
</trkpt>
<trkpt lat="-27.2722305" lon="151.2902199">
  <ele>355.7</ele>
  <time>2026-09-01T19:57:04Z</time>
  <course>0.4</course>
  <speed>25.674878772839417</speed>
  <fix>3d</fix>
</trkpt>
<trkpt lat="-27.2722756" lon="151.2902191">
  <ele>355.72</ele>
  <time>2026-09-01T19:57:04Z</time>
  <course>359.72</course>
  <speed>25.67</speed>
  <fix>3d</fix>
</trkpt>
<trkpt lat="-27.2705881" lon="151.292513">
  <ele>343.0</ele>
  <time>2026-09-01T19:57:04Z</time>
  <course>58.94</course>
  <speed>4.992324108068305</speed>
  <fix>3d</fix>
</trkpt>
<trkpt lat="-27.2722074" lon="151.2902214">
  <ele>355.65</ele>
  <time>2026-09-01T19:57:04Z</time>
  <course>1.88</course>
  <speed>25.68106890298766</speed>
  <fix>3d</fix>
</trkpt>
<trkpt lat="-27.2722756" lon="151.2902191">
  <ele>355.72</ele>
  <time>2026-09-01T19:57:04Z</time>
  <course>359.72</course>
  <speed>25.67</speed>
  <fix>3d</fix>
</trkpt>
<trkpt lat="-27.2721846" lon="151.2902234">
  <ele>355.6</ele>
  <time>2026-09-01T19:57:04Z</time>
  <course>3.32</course>
  <speed>25.692341271281602</speed>
  <fix>3d</fix>
</trkpt>
<trkpt lat="-27.2722295" lon="151.2902202">
  <ele>355.6</ele>
  <time>2026-09-01T19:57:04Z</time>
  <course>2.63</course>
  <speed>25.69</speed>
  <fix>3d</fix>
</trkpt>
<trkpt lat="-27.2705835" lon="151.2925217">
  <ele>343.0</ele>
  <time>2026-09-01T19:57:04Z</time>
  <course>59.06</course>
  <speed>4.992324108068305</speed>
  <fix>3d</fix>
</trkpt>
<trkpt lat="-27.2721616" lon="151.2902262">
  <ele>355.56</ele>
  <time>2026-09-01T19:57:04Z</time>
  <course>4.7</course>
  <speed>25.70682788676969</speed>
  <fix>3d</fix>
</trkpt>
<trkpt lat="-27.2722295" lon="151.2902202">
  <ele>355.6</ele>
  <time>2026-09-01T19:57:04Z</time>
  <course>2.63</course>
  <speed>25.69</speed>
  <fix>3d</fix>
</trkpt>
<trkpt lat="-27.2721387" lon="151.2902295">
  <ele>355.52</ele>
  <time>2026-09-01T19:57:04Z</time>
  <course>6.03</course>
  <speed>25.716065017805505</speed>
  <fix>3d</fix>
</trkpt>
<trkpt lat="-27.2721835" lon="151.2902238">
  <ele>355.5</ele>
  <time>2026-09-01T19:57:04Z</time>
  <course>5.46</course>
  <speed>25.71</speed>
  <fix>3d</fix>
</trkpt>
<trkpt lat="-27.2705789" lon="151.2925304">
  <ele>343.0</ele>
  <time>2026-09-01T19:57:04Z</time>
  <course>59.17</course>
  <speed>4.995768209194658</speed>
  <fix>3d</fix>
</trkpt>
<trkpt lat="-27.2721159" lon="151.2902335">
  <ele>355.48</ele>
  <time>2026-09-01T19:57:04Z</time>
  <course>7.37</course>
  <speed>25.726805087301454</speed>
  <fix>3d</fix>
</trkpt>
<trkpt lat="-27.2721835" lon="151.2902238">
  <ele>355.5</ele>
  <time>2026-09-01T19:57:04Z</time>
  <course>5.46</course>
  <speed>25.71</speed>
  <fix>3d</fix>
</trkpt>
<trkpt lat="-27.2720929" lon="151.2902382">
  <ele>355.44</ele>
  <time>2026-09-01T19:57:05Z</time>
  <course>8.74</course>
  <speed>25.741485971093436</speed>
  <fix>3d</fix>
</trkpt>
<trkpt lat="-27.2721375" lon="151.2902299">
  <ele>355.41</ele>
  <time>2026-09-01T19:57:05Z</time>
  <course>8.21</course>
  <speed>25.73</speed>
  <fix>3d</fix>
</trkpt>
<trkpt lat="-27.2705743" lon="151.2925391">
  <ele>343.0</ele>
  <time>2026-09-01T19:57:05Z</time>
  <course>59.29</course>
  <speed>4.99065126010624</speed>
  <fix>3d</fix>
</trkpt>
<trkpt lat="-27.2720702" lon="151.2902433">
  <ele>355.41</ele>
  <time>2026-09-01T19:57:05Z</time>
  <course>10.12</course>
  <speed>25.748335868556634</speed>
  <fix>3d</fix>
</trkpt>
<trkpt lat="-27.2721375" lon="151.2902299">
  <ele>355.41</ele>
  <time>2026-09-01T19:57:05Z</time>
  <course>8.21</course>
  <speed>25.73</speed>
  <fix>3d</fix>
</trkpt>
<trkpt lat="-27.2720475" lon="151.2902491">
  <ele>355.38</ele>
  <time>2026-09-01T19:57:05Z</time>
  <course>11.53</course>
  <speed>25.751570825873905</speed>
  <fix>3d</fix>
</trkpt>
<trkpt lat="-27.2720918" lon="151.2902386">
  <ele>355.34</ele>
  <time>2026-09-01T19:57:05Z</time>
  <course>10.87</course>
  <speed>25.75</speed>
  <fix>3d</fix>
</trkpt>
<trkpt lat="-27.2705697" lon="151.2925478">
  <ele>343.0</ele>
  <time>2026-09-01T19:57:05Z</time>
  <course>59.4</course>
  <speed>4.99415658545064</speed>
  <fix>3d</fix>
</trkpt>
<trkpt lat="-27.272025" lon="151.2902555">
  <ele>355.35</ele>
  <time>2026-09-01T19:57:05Z</time>
  <course>12.8</course>
  <speed>25.7542171304041</speed>
  <fix>3d</fix>
</trkpt>
<trkpt lat="-27.2720918" lon="151.2902386">
  <ele>355.34</ele>
  <time>2026-09-01T19:57:05Z</time>
  <course>10.87</course>
  <speed>25.75</speed>
  <fix>3d</fix>
</trkpt>
<trkpt lat="-27.2720027" lon="151.2902624">
  <ele>355.33</ele>
  <time>2026-09-01T19:57:05Z</time>
  <course>14.11</course>
  <speed>25.770234768041988</speed>
  <fix>3d</fix>
</trkpt>
<trkpt lat="-27.2720466" lon="151.2902495">
  <ele>355.28</ele>
  <time>2026-09-01T19:57:05Z</time>
  <course>13.49</course>
  <speed>25.77</speed>
  <fix>3d</fix>
</trkpt>
<trkpt lat="-27.2705652" lon="151.2925565">
  <ele>343.0</ele>
  <time>2026-09-01T19:57:05Z</time>
  <course>59.52</course>
  <speed>4.989078071147013</speed>
  <fix>3d</fix>
</trkpt>
<trkpt lat="-27.2719805" lon="151.2902699">
  <ele>355.32</ele>
  <time>2026-09-01T19:57:05Z</time>
  <course>15.4</course>
  <speed>25.774555282293427</speed>
  <fix>3d</fix>
</trkpt>
<trkpt lat="-27.2720466" lon="151.2902495">
  <ele>355.28</ele>
  <time>2026-09-01T19:57:05Z</time>
  <course>13.49</course>
  <speed>25.77</speed>
  <fix>3d</fix>
</trkpt>
<trkpt lat="-27.2719584" lon="151.2902779">
  <ele>355.3</ele>
  <time>2026-09-01T19:57:05Z</time>
  <course>16.61</course>
  <speed>25.782119773207167</speed>
  <fix>3d</fix>
</trkpt>
<trkpt lat="-27.2720018" lon="151.2902628">
  <ele>355.22</ele>
  <time>2026-09-01T19:57:05Z</time>
  <course>16.11</course>
  <speed>25.78</speed>
  <fix>3d</fix>
</trkpt>
<trkpt lat="-27.2705606" lon="151.2925652">
  <ele>343.0</ele>
  <time>2026-09-01T19:57:05Z</time>
  <course>59.63</course>
  <speed>4.992644589794071</speed>
  <fix>3d</fix>
</trkpt>
<trkpt lat="-27.2719366" lon="151.2902865">
  <ele>355.29</ele>
  <time>2026-09-01T19:57:05Z</time>
  <course>17.84</course>
  <speed>25.792359333725173</speed>
  <fix>3d</fix>
</trkpt>
<trkpt lat="-27.2720018" lon="151.2902628">
  <ele>355.22</ele>
  <time>2026-09-01T19:57:05Z</time>
  <course>16.11</course>
  <speed>25.78</speed>
  <fix>3d</fix>
</trkpt>
<trkpt lat="-27.2719148" lon="151.2902956">
  <ele>355.28</ele>
  <time>2026-09-01T19:57:05Z</time>
  <course>19.07</course>
  <speed>25.789775105649916</speed>
  <fix>3d</fix>
</trkpt>
<trkpt lat="-27.2719576" lon="151.2902784">
  <ele>355.2</ele>
  <time>2026-09-01T19:57:05Z</time>
  <course>18.65</course>
  <speed>25.8</speed>
  <fix>3d</fix>
</trkpt>
<trkpt lat="-27.2705561" lon="151.2925739">
  <ele>343.0</ele>
  <time>2026-09-01T19:57:05Z</time>
  <course>59.75</course>
  <speed>4.987604635493876</speed>
  <fix>3d</fix>
</trkpt>
<trkpt lat="-27.2718933" lon="151.2903053">
  <ele>355.28</ele>
  <time>2026-09-01T19:57:05Z</time>
  <course>20.25</course>
  <speed>25.805092520663433</speed>
  <fix>3d</fix>
</trkpt>
<trkpt lat="-27.2719576" lon="151.2902784">
  <ele>355.2</ele>
  <time>2026-09-01T19:57:05Z</time>
  <course>18.65</course>
  <speed>25.8</speed>
  <fix>3d</fix>
</trkpt>
<trkpt lat="-27.2718719" lon="151.2903154">
  <ele>355.27</ele>
  <time>2026-09-01T19:57:05Z</time>
  <course>21.47</course>
  <speed>25.809939945687592</speed>
  <fix>3d</fix>
</trkpt>
<trkpt lat="-27.271914" lon="151.2902962">
  <ele>355.18</ele>
  <time>2026-09-01T19:57:05Z</time>
  <course>21.14</course>
  <speed>25.81</speed>
  <fix>3d</fix>
</trkpt>
<trkpt lat="-27.2705515" lon="151.2925826">
  <ele>343.0</ele>
  <time>2026-09-01T19:57:05Z</time>
  <course>59.86</course>
  <speed>4.9962485926943225</speed>
  <fix>3d</fix>
</trkpt>
<trkpt lat="-27.2718508" lon="151.2903261">
  <ele>355.27</ele>
  <time>2026-09-01T19:57:05Z</time>
  <course>22.78</course>
  <speed>25.813302772020474</speed>
  <fix>3d</fix>
</trkpt>
<trkpt lat="-27.271914" lon="151.2902962">
  <ele>355.18</ele>
  <time>2026-09-01T19:57:05Z</time>
  <course>21.14</course>
  <speed>25.81</speed>
  <fix>3d</fix>
</trkpt>
<trkpt lat="-27.2718298" lon="151.2903373">
  <ele>355.27</ele>
  <time>2026-09-01T19:57:05Z</time>
  <course>24.17</course>
  <speed>25.81898913590538</speed>
  <fix>3d</fix>
</trkpt>
<trkpt lat="-27.2718711" lon="151.2903161">
  <ele>355.17</ele>
  <time>2026-09-01T19:57:05Z</time>
  <course>23.59</course>
  <speed>25.82</speed>
  <fix>3d</fix>
</trkpt>
<trkpt lat="-27.2705471" lon="151.2925914">
  <ele>343.0</ele>
  <time>2026-09-01T19:57:05Z</time>
  <course>59.97</course>
  <speed>4.991232312766057</speed>
  <fix>3d</fix>
</trkpt>
<trkpt lat="-27.2718091" lon="151.290349">
  <ele>355.27</ele>
  <time>2026-09-01T19:57:05Z</time>
  <course>25.49</course>
  <speed>25.828482340238267</speed>
  <fix>3d</fix>
</trkpt>
<trkpt lat="-27.2718711" lon="151.2903161">
  <ele>355.17</ele>
  <time>2026-09-01T19:57:05Z</time>
  <course>23.59</course>
  <speed>25.82</speed>
  <fix>3d</fix>
</trkpt>
<trkpt lat="-27.2717885" lon="151.2903613">
  <ele>355.28</ele>
  <time>2026-09-01T19:57:05Z</time>
  <course>26.71</course>
  <speed>25.833284731137077</speed>
  <fix>3d</fix>
</trkpt>
<trkpt lat="-27.271829" lon="151.290338">
  <ele>355.17</ele>
  <time>2026-09-01T19:57:05Z</time>
  <course>26.09</course>
  <speed>25.84</speed>
  <fix>3d</fix>
</trkpt>
<trkpt lat="-27.2705426" lon="151.2926001">
  <ele>343.0</ele>
  <time>2026-09-01T19:57:05Z</time>
  <course>60.09</course>
  <speed>4.9948973963435925</speed>
  <fix>3d</fix>
</trkpt>
<trkpt lat="-27.2717683" lon="151.290374">
  <ele>355.29</ele>
  <time>2026-09-01T19:57:05Z</time>
  <course>27.92</course>
  <speed>25.832742788949066</speed>
  <fix>3d</fix>
</trkpt>
<trkpt lat="-27.271829" lon="151.290338">
  <ele>355.17</ele>
  <time>2026-09-01T19:57:05Z</time>
  <course>26.09</course>
  <speed>25.84</speed>
  <fix>3d</fix>
</trkpt>
<trkpt lat="-27.2717485" lon="151.2903872">
  <ele>355.3</ele>
  <time>2026-09-01T19:57:05Z</time>
  <course>29.21</course>
  <speed>25.836348426199862</speed>
  <fix>3d</fix>
</trkpt>
<trkpt lat="-27.2717878" lon="151.290362">
  <ele>355.18</ele>
  <time>2026-09-01T19:57:05Z</time>
  <course>28.65</course>
  <speed>25.85</speed>
  <fix>3d</fix>
</trkpt>
<trkpt lat="-27.2705381" lon="151.2926089">
  <ele>343.0</ele>
  <time>2026-09-01T19:57:05Z</time>
  <course>60.2</course>
  <speed>4.989919839035493</speed>
  <fix>3d</fix>
</trkpt>
<trkpt lat="-27.2717287" lon="151.290401">
  <ele>355.32</ele>
  <time>2026-09-01T19:57:05Z</time>
  <course>30.56</course>
  <speed>25.83599427155843</speed>
  <fix>3d</fix>
</trkpt>
<trkpt lat="-27.2717878" lon="151.290362">
  <ele>355.18</ele>
  <time>2026-09-01T19:57:05Z</time>
  <course>28.65</course>
  <speed>25.85</speed>
  <fix>3d</fix>
</trkpt>
<trkpt lat="-27.2717093" lon="151.2904152">
  <ele>355.34</ele>
  <time>2026-09-01T19:57:05Z</time>
  <course>31.92</course>
  <speed>25.85182778837891</speed>
  <fix>3d</fix>
</trkpt>
<trkpt lat="-27.2717476" lon="151.2903881">
  <ele>355.2</ele>
  <time>2026-09-01T19:57:05Z</time>
  <course>31.23</course>
  <speed>25.85</speed>
  <fix>3d</fix>
</trkpt>
<trkpt lat="-27.2705336" lon="151.2926176">
  <ele>343.0</ele>
  <time>2026-09-01T19:57:05Z</time>
  <course>60.32</course>
  <speed>4.993645962620898</speed>
  <fix>3d</fix>
</trkpt>
<trkpt lat="-27.2716901" lon="151.2904301">
  <ele>355.36</ele>
  <time>2026-09-01T19:57:05Z</time>
  <course>33.22</course>
  <speed>25.85994779577097</speed>
  <fix>3d</fix>
</trkpt>
<trkpt lat="-27.2717476" lon="151.2903881">
  <ele>355.2</ele>
  <time>2026-09-01T19:57:05Z</time>
  <course>31.23</course>
  <speed>25.85</speed>
  <fix>3d</fix>
</trkpt>
<trkpt lat="-27.2716713" lon="151.2904454">
  <ele>355.39</ele>
  <time>2026-09-01T19:57:05Z</time>
  <course>34.52</course>
  <speed>25.854612741249866</speed>
  <fix>3d</fix>
</trkpt>
<trkpt lat="-27.2717084" lon="151.2904163">
  <ele>355.24</ele>
  <time>2026-09-01T19:57:05Z</time>
  <course>33.88</course>
  <speed>25.86</speed>
  <fix>3d</fix>
</trkpt>
<trkpt lat="-27.2705292" lon="151.2926265">
  <ele>343.0</ele>
  <time>2026-09-01T19:57:05Z</time>
  <course>60.43</course>
  <speed>4.988707247373813</speed>
  <fix>3d</fix>
</trkpt>
<trkpt lat="-27.2716526" lon="151.2904613">
  <ele>355.42</ele>
  <time>2026-09-01T19:57:05Z</time>
  <course>35.87</course>
  <speed>25.86357477225451</speed>
  <fix>3d</fix>
</trkpt>
<trkpt lat="-27.2717084" lon="151.2904163">
  <ele>355.24</ele>
  <time>2026-09-01T19:57:05Z</time>
  <course>33.88</course>
  <speed>25.86</speed>
  <fix>3d</fix>
</trkpt>
<trkpt lat="-27.2716344" lon="151.2904776">
  <ele>355.46</ele>
  <time>2026-09-01T19:57:05Z</time>
  <course>37.2</course>
  <speed>25.866435780756497</speed>
  <fix>3d</fix>
</trkpt>
<trkpt lat="-27.2716704" lon="151.2904465">
  <ele>355.29</ele>
  <time>2026-09-01T19:57:05Z</time>
  <course>36.57</course>
  <speed>25.87</speed>
  <fix>3d</fix>
</trkpt>
<trkpt lat="-27.2705248" lon="151.2926353">
  <ele>343.0</ele>
  <time>2026-09-01T19:57:05Z</time>
  <course>60.55</course>
  <speed>4.992494366546646</speed>
  <fix>3d</fix>
</trkpt>
<trkpt lat="-27.2716166" lon="151.2904944">
  <ele>355.49</ele>
  <time>2026-09-01T19:57:05Z</time>
  <course>38.58</course>
  <speed>25.867912555906013</speed>
  <fix>3d</fix>
</trkpt>
<trkpt lat="-27.2716704" lon="151.2904465">
  <ele>355.29</ele>
  <time>2026-09-01T19:57:05Z</time>
  <course>36.57</course>
  <speed>25.87</speed>
  <fix>3d</fix>
</trkpt>
<trkpt lat="-27.2715985" lon="151.2905122">
  <ele>355.53</ele>
  <time>2026-09-01T19:57:05Z</time>
  <course>40.01</course>
  <speed>25.867386802690373</speed>
  <fix>3d</fix>
</trkpt>
<trkpt lat="-27.2716337" lon="151.2904786">
  <ele>355.35</ele>
  <time>2026-09-01T19:57:05Z</time>
  <course>39.24</course>
  <speed>25.88</speed>
  <fix>3d</fix>
</trkpt>
<trkpt lat="-27.2705204" lon="151.2926441">
  <ele>343.0</ele>
  <time>2026-09-01T19:57:05Z</time>
  <course>60.66</course>
  <speed>4.9875946106314615</speed>
  <fix>3d</fix>
</trkpt>
<trkpt lat="-27.2715816" lon="151.2905298">
  <ele>355.56</ele>
  <time>2026-09-01T19:57:05Z</time>
  <course>41.41</course>
  <speed>25.869551600288705</speed>
  <fix>3d</fix>
</trkpt>
<trkpt lat="-27.2716337" lon="151.2904786">
  <ele>355.35</ele>
  <time>2026-09-01T19:57:05Z</time>
  <course>39.24</course>
  <speed>25.88</speed>
  <fix>3d</fix>
</trkpt>
<trkpt lat="-27.2715649" lon="151.290548">
  <ele>355.6</ele>
  <time>2026-09-01T19:57:05Z</time>
  <course>42.76</course>
  <speed>25.88029752533769</speed>
  <fix>3d</fix>
</trkpt>
<trkpt lat="-27.2715984" lon="151.2905127">
  <ele>355.42</ele>
  <time>2026-09-01T19:57:05Z</time>
  <course>41.98</course>
  <speed>25.88</speed>
  <fix>3d</fix>
</trkpt>
<trkpt lat="-27.270516" lon="151.2926529">
  <ele>343.0</ele>
  <time>2026-09-01T19:57:05Z</time>
  <course>60.78</course>
  <speed>4.996318644762361</speed>
  <fix>3d</fix>
</trkpt>
<trkpt lat="-27.2715486" lon="151.2905667">
  <ele>355.65</ele>
  <time>2026-09-01T19:57:05Z</time>
  <course>44.17</course>
  <speed>25.878471747767485</speed>
  <fix>3d</fix>
</trkpt>
<trkpt lat="-27.2715984" lon="151.2905127">
  <ele>355.42</ele>
  <time>2026-09-01T19:57:05Z</time>
  <course>41.98</course>
  <speed>25.88</speed>
  <fix>3d</fix>
</trkpt>
<trkpt lat="-27.2715327" lon="151.2905859">
  <ele>355.69</ele>
  <time>2026-09-01T19:57:05Z</time>
  <course>45.59</course>
  <speed>25.88584362156273</speed>
  <fix>3d</fix>
</trkpt>
<trkpt lat="-27.2715646" lon="151.2905486">
  <ele>355.5</ele>
  <time>2026-09-01T19:57:05Z</time>
  <course>44.79</course>
  <speed>25.89</speed>
  <fix>3d</fix>
</trkpt>
<trkpt lat="-27.2705116" lon="151.2926617">
  <ele>343.0</ele>
  <time>2026-09-01T19:57:05Z</time>
  <course>60.89</course>
  <speed>4.991442677222689</speed>
  <fix>3d</fix>
</trkpt>
<trkpt lat="-27.2715171" lon="151.2906056">
  <ele>355.74</ele>
  <time>2026-09-01T19:57:05Z</time>
  <course>47.12</course>
  <speed>25.875803369170978</speed>
  <fix>3d</fix>
</trkpt>
<trkpt lat="-27.2715646" lon="151.2905486">
  <ele>355.5</ele>
  <time>2026-09-01T19:57:05Z</time>
  <course>44.79</course>
  <speed>25.89</speed>
  <fix>3d</fix>
</trkpt>
<trkpt lat="-27.2715025" lon="151.2906251">
  <ele>355.79</ele>
  <time>2026-09-01T19:57:05Z</time>
  <course>48.54</course>
  <speed>25.88191839875862</speed>
  <fix>3d</fix>
</trkpt>
<trkpt lat="-27.2715324" lon="151.2905864">
  <ele>355.59</ele>
  <time>2026-09-01T19:57:05Z</time>
  <course>47.65</course>
  <speed>25.89</speed>
  <fix>3d</fix>
</trkpt>
<trkpt lat="-27.2705072" lon="151.2926705">
  <ele>343.0</ele>
  <time>2026-09-01T19:57:05Z</time>
  <course>61.01</course>
  <speed>4.995327817070668</speed>
  <fix>3d</fix>
</trkpt>
<trkpt lat="-27.2714879" lon="151.2906456">
  <ele>355.85</ele>
  <time>2026-09-01T19:57:05Z</time>
  <course>49.93</course>
  <speed>25.88290748737475</speed>
  <fix>3d</fix>
</trkpt>
<trkpt lat="-27.2715324" lon="151.2905864">
  <ele>355.59</ele>
  <time>2026-09-01T19:57:05Z</time>
  <course>47.65</course>
  <speed>25.89</speed>
  <fix>3d</fix>
</trkpt>
<trkpt lat="-27.2714738" lon="151.2906664">
  <ele>355.9</ele>
  <time>2026-09-01T19:57:05Z</time>
  <course>51.47</course>
  <speed>25.886446260543376</speed>
  <fix>3d</fix>
</trkpt>
<trkpt lat="-27.271502" lon="151.2906259">
  <ele>355.69</ele>
  <time>2026-09-01T19:57:05Z</time>
  <course>50.57</course>
  <speed>25.89</speed>
  <fix>3d</fix>
</trkpt>
<trkpt lat="-27.2705029" lon="151.2926793">
  <ele>343.0</ele>
  <time>2026-09-01T19:57:05Z</time>
  <course>61.12</course>
  <speed>4.990490957811666</speed>
  <fix>3d</fix>
</trkpt>
<trkpt lat="-27.2714602" lon="151.2906876">
  <ele>355.95</ele>
  <time>2026-09-01T19:57:05Z</time>
  <course>52.94</course>
  <speed>25.875443957543993</speed>
  <fix>3d</fix>
</trkpt>
<trkpt lat="-27.271502" lon="151.2906259">
  <ele>355.69</ele>
  <time>2026-09-01T19:57:05Z</time>
  <course>50.57</course>
  <speed>25.89</speed>
  <fix>3d</fix>
</trkpt>
<trkpt lat="-27.2714472" lon="151.2907091">
  <ele>356.01</ele>
  <time>2026-09-01T19:57:05Z</time>
  <course>54.28</course>
  <speed>25.804805753967614</speed>
  <fix>3d</fix>
</trkpt>
<trkpt lat="-27.2714734" lon="151.2906672">
  <ele>355.8</ele>
  <time>2026-09-01T19:57:05Z</time>
  <course>53.51</course>
  <speed>25.88</speed>
  <fix>3d</fix>
</trkpt>
<trkpt lat="-27.2704986" lon="151.2926882">
  <ele>343.0</ele>
  <time>2026-09-01T19:57:05Z</time>
  <course>61.23</course>
  <speed>4.994436905197622</speed>
  <fix>3d</fix>
</trkpt>
<trkpt lat="-27.2714348" lon="151.2907309">
  <ele>356.06</ele>
  <time>2026-09-01T19:57:05Z</time>
  <course>55.53</course>
  <speed>25.679511288184596</speed>
  <fix>3d</fix>
</trkpt>
<trkpt lat="-27.2714734" lon="151.2906672">
  <ele>355.8</ele>
  <time>2026-09-01T19:57:05Z</time>
  <course>53.51</course>
  <speed>25.88</speed>
  <fix>3d</fix>
</trkpt>
<trkpt lat="-27.2714229" lon="151.2907528">
  <ele>356.13</ele>
  <time>2026-09-01T19:57:05Z</time>
  <course>56.71</course>
  <speed>25.507326398507548</speed>
  <fix>3d</fix>
</trkpt>
<trkpt lat="-27.2714468" lon="151.29071">
  <ele>355.9</ele>
  <time>2026-09-01T19:57:05Z</time>
  <course>56.5</course>
  <speed>25.79</speed>
  <fix>3d</fix>
</trkpt>
<trkpt lat="-27.2704942" lon="151.2926971">
  <ele>343.0</ele>
  <time>2026-09-01T19:57:05Z</time>
  <course>61.35</course>
  <speed>4.989639265518099</speed>
  <fix>3d</fix>
</trkpt>
<trkpt lat="-27.2714116" lon="151.2907747">
  <ele>356.21</ele>
  <time>2026-09-01T19:57:05Z</time>
  <course>57.78</course>
  <speed>25.34549269594103</speed>
  <fix>3d</fix>
</trkpt>
<trkpt lat="-27.2714468" lon="151.29071">
  <ele>355.9</ele>
  <time>2026-09-01T19:57:05Z</time>
  <course>56.5</course>
  <speed>25.79</speed>
  <fix>3d</fix>
</trkpt>
<trkpt lat="-27.2714007" lon="151.2907969">
  <ele>356.29</ele>
  <time>2026-09-01T19:57:05Z</time>
  <course>58.72</course>
  <speed>25.1741315639686</speed>
  <fix>3d</fix>
</trkpt>
<trkpt lat="-27.2714223" lon="151.290754">
  <ele>356.03</ele>
  <time>2026-09-01T19:57:05Z</time>
  <course>59.28</course>
  <speed>25.55</speed>
  <fix>3d</fix>
</trkpt>
<trkpt lat="-27.27049" lon="151.292706">
  <ele>343.0</ele>
  <time>2026-09-01T19:57:05Z</time>
  <course>61.46</course>
  <speed>4.993645962620898</speed>
  <fix>3d</fix>
</trkpt>
<trkpt lat="-27.2713901" lon="151.2908192">
  <ele>356.38</ele>
  <time>2026-09-01T19:57:05Z</time>
  <course>59.6</course>
  <speed>25.030229723276612</speed>
  <fix>3d</fix>
</trkpt>
<trkpt lat="-27.2714223" lon="151.290754">
  <ele>356.03</ele>
  <time>2026-09-01T19:57:05Z</time>
  <course>59.28</course>
  <speed>25.55</speed>
  <fix>3d</fix>
</trkpt>
<trkpt lat="-27.2713799" lon="151.2908415">
  <ele>356.46</ele>
  <time>2026-09-01T19:57:05Z</time>
  <course>60.37</course>
  <speed>24.883402098587727</speed>
  <fix>3d</fix>
</trkpt>
<trkpt lat="-27.2713998" lon="151.2907986">
  <ele>356.17</ele>
  <time>2026-09-01T19:57:05Z</time>
  <course>61.5</course>
  <speed>25.24</speed>
  <fix>3d</fix>
</trkpt>
<trkpt lat="-27.2704857" lon="151.2927149">
  <ele>343.0</ele>
  <time>2026-09-01T19:57:05Z</time>
  <course>61.58</course>
  <speed>4.98888765157124</speed>
  <fix>3d</fix>
</trkpt>
<trkpt lat="-27.2713699" lon="151.290864">
  <ele>356.55</ele>
  <time>2026-09-01T19:57:05Z</time>
  <course>61.13</course>
  <speed>24.744561018534963</speed>
  <fix>3d</fix>
</trkpt>
<trkpt lat="-27.2713998" lon="151.2907986">
  <ele>356.17</ele>
  <time>2026-09-01T19:57:05Z</time>
  <course>61.5</course>
  <speed>25.24</speed>
  <fix>3d</fix>
</trkpt>
<trkpt lat="-27.2713602" lon="151.2908863">
  <ele>356.63</ele>
  <time>2026-09-01T19:57:05Z</time>
  <course>61.87</course>
  <speed>24.60338594584087</speed>
  <fix>3d</fix>
</trkpt>
<trkpt lat="-27.2713788" lon="151.2908436">
  <ele>356.33</ele>
  <time>2026-09-01T19:57:05Z</time>
  <course>63.12</course>
  <speed>24.95</speed>
  <fix>3d</fix>
</trkpt>
<trkpt lat="-27.2704814" lon="151.2927238">
  <ele>343.0</ele>
  <time>2026-09-01T19:57:05Z</time>
  <course>61.69</course>
  <speed>4.9976894661433295</speed>
  <fix>3d</fix>
</trkpt>
<trkpt lat="-27.2713507" lon="151.2909086">
  <ele>356.72</ele>
  <time>2026-09-01T19:57:05Z</time>
  <course>62.54</course>
  <speed>24.41044448591627</speed>
  <fix>3d</fix>
</trkpt>
<trkpt lat="-27.2713788" lon="151.2908436">
  <ele>356.33</ele>
  <time>2026-09-01T19:57:05Z</time>
  <course>63.12</course>
  <speed>24.95</speed>
  <fix>3d</fix>
</trkpt>
<trkpt lat="-27.2713411" lon="151.2909315">
  <ele>356.81</ele>
  <time>2026-09-01T19:57:05Z</time>
  <course>63.05</course>
  <speed>24.155928878848773</speed>
  <fix>3d</fix>
</trkpt>
<trkpt lat="-27.2713591" lon="151.2908887">
  <ele>356.5</ele>
  <time>2026-09-01T19:57:05Z</time>
  <course>64.29</course>
  <speed>24.65</speed>
  <fix>3d</fix>
</trkpt>
<trkpt lat="-27.2704771" lon="151.2927326">
  <ele>343.0</ele>
  <time>2026-09-01T19:57:05Z</time>
  <course>61.81</course>
  <speed>4.992955036849421</speed>
  <fix>3d</fix>
</trkpt>
<trkpt lat="-27.2713321" lon="151.2909535">
  <ele>356.88</ele>
  <time>2026-09-01T19:57:05Z</time>
  <course>63.37</course>
  <speed>23.864873768784115</speed>
  <fix>3d</fix>
</trkpt>
<trkpt lat="-27.2713591" lon="151.2908887">
  <ele>356.5</ele>
  <time>2026-09-01T19:57:05Z</time>
  <course>64.29</course>
  <speed>24.65</speed>
  <fix>3d</fix>
</trkpt>
<trkpt lat="-27.2713234" lon="151.2909751">
  <ele>356.94</ele>
  <time>2026-09-01T19:57:05Z</time>
  <course>63.68</course>
  <speed>23.54628845487118</speed>
  <fix>3d</fix>
</trkpt>
<trkpt lat="-27.2713404" lon="151.2909334">
  <ele>356.65</ele>
  <time>2026-09-01T19:57:05Z</time>
  <course>65.18</course>
  <speed>24.22</speed>
  <fix>3d</fix>
</trkpt>
<trkpt lat="-27.2704729" lon="151.2927415">
  <ele>343.0</ele>
  <time>2026-09-01T19:57:05Z</time>
  <course>61.92</course>
  <speed>4.997059135131383</speed>
  <fix>3d</fix>
</trkpt>
<trkpt lat="-27.2713148" lon="151.2909967">
  <ele>356.96</ele>
  <time>2026-09-01T19:57:05Z</time>
  <course>64.0</course>
  <speed>23.232186724456223</speed>
  <fix>3d</fix>
</trkpt>
<trkpt lat="-27.2713404" lon="151.2909334">
  <ele>356.65</ele>
  <time>2026-09-01T19:57:05Z</time>
  <course>65.18</course>
  <speed>24.22</speed>
  <fix>3d</fix>
</trkpt>
<trkpt lat="-27.2713064" lon="151.291018">
  <ele>356.96</ele>
  <time>2026-09-01T19:57:05Z</time>
  <course>64.32</course>
  <speed>22.949912853865044</speed>
  <fix>3d</fix>
</trkpt>
<trkpt lat="-27.2713226" lon="151.2909774">
  <ele>356.78</ele>
  <time>2026-09-01T19:57:05Z</time>
  <course>65.8</course>
  <speed>23.64</speed>
  <fix>3d</fix>
</trkpt>
<trkpt lat="-27.2704687" lon="151.2927504">
  <ele>343.0</ele>
  <time>2026-09-01T19:57:05Z</time>
  <course>62.04</course>
  <speed>4.992364169409118</speed>
  <fix>3d</fix>
</trkpt>
<trkpt lat="-27.2712981" lon="151.2910391">
  <ele>356.93</ele>
  <time>2026-09-01T19:57:05Z</time>
  <course>64.66</course>
  <speed>22.699517616019946</speed>
  <fix>3d</fix>
</trkpt>
<trkpt lat="-27.2713226" lon="151.2909774">
  <ele>356.78</ele>
  <time>2026-09-01T19:57:05Z</time>
  <course>65.8</course>
  <speed>23.64</speed>
  <fix>3d</fix>
</trkpt>
<trkpt lat="-27.27129" lon="151.2910603">
  <ele>356.89</ele>
  <time>2026-09-01T19:57:05Z</time>
  <course>64.98</course>
  <speed>22.47187130614627</speed>
  <fix>3d</fix>
</trkpt>
<trkpt lat="-27.2713055" lon="151.2910205">
  <ele>356.81</ele>
  <time>2026-09-01T19:57:05Z</time>
  <course>66.27</course>
  <speed>23.05</speed>
  <fix>3d</fix>
</trkpt>
<trkpt lat="-27.2704645" lon="151.2927594">
  <ele>343.0</ele>
  <time>2026-09-01T19:57:05Z</time>
  <course>62.15</course>
  <speed>4.996528795073636</speed>
  <fix>3d</fix>
</trkpt>
<trkpt lat="-27.2712821" lon="151.2910811">
  <ele>356.84</ele>
  <time>2026-09-01T19:57:05Z</time>
  <course>65.3</course>
  <speed>22.28536739656764</speed>
  <fix>3d</fix>
</trkpt>
<trkpt lat="-27.2713055" lon="151.2910205">
  <ele>356.81</ele>
  <time>2026-09-01T19:57:05Z</time>
  <course>66.27</course>
  <speed>23.05</speed>
  <fix>3d</fix>
</trkpt>
<trkpt lat="-27.2712743" lon="151.2911018">
  <ele>356.78</ele>
  <time>2026-09-01T19:57:05Z</time>
  <course>65.6</course>
  <speed>22.138653978957258</speed>
  <fix>3d</fix>
</trkpt>
<trkpt lat="-27.2712892" lon="151.2910628">
  <ele>356.75</ele>
  <time>2026-09-01T19:57:05Z</time>
  <course>66.76</course>
  <speed>22.57</speed>
  <fix>3d</fix>
</trkpt>
<trkpt lat="-27.2704603" lon="151.2927683">
  <ele>343.0</ele>
  <time>2026-09-01T19:57:05Z</time>
  <course>62.26</course>
  <speed>4.991873395830467</speed>
  <fix>3d</fix>
</trkpt>
<trkpt lat="-27.2712666" lon="151.2911225">
  <ele>356.72</ele>
  <time>2026-09-01T19:57:05Z</time>
  <course>65.88</course>
  <speed>22.02769393286551</speed>
  <fix>3d</fix>
</trkpt>
<trkpt lat="-27.2712892" lon="151.2910628">
  <ele>356.75</ele>
  <time>2026-09-01T19:57:05Z</time>
  <course>66.76</course>
  <speed>22.57</speed>
  <fix>3d</fix>
</trkpt>
<trkpt lat="-27.271259" lon="151.2911431">
  <ele>356.64</ele>
  <time>2026-09-01T19:57:05Z</time>
  <course>66.13</course>
  <speed>21.943172058752126</speed>
  <fix>3d</fix>
</trkpt>
<trkpt lat="-27.2712735" lon="151.2911045">
  <ele>356.64</ele>
  <time>2026-09-01T19:57:05Z</time>
  <course>67.24</course>
  <speed>22.23</speed>
  <fix>3d</fix>
</trkpt>
<trkpt lat="-27.2704561" lon="151.2927773">
  <ele>343.0</ele>
  <time>2026-09-01T19:57:05Z</time>
  <course>62.38</course>
  <speed>4.9960984778124615</speed>
  <fix>3d</fix>
</trkpt>
<trkpt lat="-27.2712515" lon="151.2911636">
  <ele>356.56</ele>
  <time>2026-09-01T19:57:05Z</time>
  <course>66.35</course>
  <speed>21.87407826629502</speed>
  <fix>3d</fix>
</trkpt>
<trkpt lat="-27.2712735" lon="151.2911045">
  <ele>356.64</ele>
  <time>2026-09-01T19:57:05Z</time>
  <course>67.24</course>
  <speed>22.23</speed>
  <fix>3d</fix>
</trkpt>
<trkpt lat="-27.2712441" lon="151.2911841">
  <ele>356.44</ele>
  <time>2026-09-01T19:57:05Z</time>
  <course>66.52</course>
  <speed>21.814300355500745</speed>
  <fix>3d</fix>
</trkpt>
<trkpt lat="-27.2712583" lon="151.2911457">
  <ele>356.49</ele>
  <time>2026-09-01T19:57:05Z</time>
  <course>67.62</course>
  <speed>22.01</speed>
  <fix>3d</fix>
</trkpt>
<trkpt lat="-27.270452" lon="151.2927863">
  <ele>343.0</ele>
  <time>2026-09-01T19:57:05Z</time>
  <course>62.49</course>
  <speed>4.991482745637813</speed>
  <fix>3d</fix>
</trkpt>
<trkpt lat="-27.2712369" lon="151.291204">
  <ele>356.3</ele>
  <time>2026-09-01T19:57:05Z</time>
  <course>66.66</course>
  <speed>21.765922907150067</speed>
  <fix>3d</fix>
</trkpt>
<trkpt lat="-27.2712583" lon="151.2911457">
  <ele>356.49</ele>
  <time>2026-09-01T19:57:05Z</time>
  <course>67.62</course>
  <speed>22.01</speed>
  <fix>3d</fix>
</trkpt>
<trkpt lat="-27.2712295" lon="151.2912242">
  <ele>356.14</ele>
  <time>2026-09-01T19:57:05Z</time>
  <course>66.77</course>
  <speed>21.71755280873055</speed>
  <fix>3d</fix>
</trkpt>
<trkpt lat="-27.2712433" lon="151.2911867">
  <ele>356.29</ele>
  <time>2026-09-01T19:57:05Z</time>
  <course>67.83</course>
  <speed>21.87</speed>
  <fix>3d</fix>
</trkpt>
<trkpt lat="-27.2704478" lon="151.2927952">
  <ele>343.0</ele>
  <time>2026-09-01T19:57:05Z</time>
  <course>62.61</course>
  <speed>4.991482745637813</speed>
  <fix>3d</fix>
</trkpt>
<trkpt lat="-27.2712222" lon="151.2912446">
  <ele>355.93</ele>
  <time>2026-09-01T19:57:05Z</time>
  <course>66.86</course>
  <speed>21.685997786590313</speed>
  <fix>3d</fix>
</trkpt>
<trkpt lat="-27.2712433" lon="151.2911867">
  <ele>356.29</ele>
  <time>2026-09-01T19:57:05Z</time>
  <course>67.83</course>
  <speed>21.87</speed>
  <fix>3d</fix>
</trkpt>
<trkpt lat="-27.2712148" lon="151.291265">
  <ele>355.69</ele>
  <time>2026-09-01T19:57:05Z</time>
  <course>66.93</course>
  <speed>21.667480241135564</speed>
  <fix>3d</fix>
</trkpt>
<trkpt lat="-27.2712286" lon="151.2912276">
  <ele>355.98</ele>
  <time>2026-09-01T19:57:05Z</time>
  <course>67.89</course>
  <speed>21.77</speed>
  <fix>3d</fix>
</trkpt>
<trkpt lat="-27.2704437" lon="151.2928042">
  <ele>343.0</ele>
  <time>2026-09-01T19:57:05Z</time>
  <course>62.72</course>
  <speed>4.995768209194658</speed>
  <fix>3d</fix>
</trkpt>
<trkpt lat="-27.2712075" lon="151.2912853">
  <ele>355.41</ele>
  <time>2026-09-01T19:57:05Z</time>
  <course>66.99</course>
  <speed>21.652750402662477</speed>
  <fix>3d</fix>
</trkpt>
<trkpt lat="-27.2712286" lon="151.2912276">
  <ele>355.98</ele>
  <time>2026-09-01T19:57:05Z</time>
  <course>67.89</course>
  <speed>21.77</speed>
  <fix>3d</fix>
</trkpt>
<trkpt lat="-27.2712" lon="151.2913058">
  <ele>355.09</ele>
  <time>2026-09-01T19:57:05Z</time>
  <course>67.03</course>
  <speed>21.647286204048765</speed>
  <fix>3d</fix>
</trkpt>
<trkpt lat="-27.2712139" lon="151.2912683">
  <ele>355.54</ele>
  <time>2026-09-01T19:57:05Z</time>
  <course>67.86</course>
  <speed>21.71</speed>
  <fix>3d</fix>
</trkpt>
<trkpt lat="-27.2704396" lon="151.2928132">
  <ele>343.0</ele>
  <time>2026-09-01T19:57:05Z</time>
  <course>62.84</course>
  <speed>4.991192242340501</speed>
  <fix>3d</fix>
</trkpt>
<trkpt lat="-27.2711926" lon="151.2913262">
  <ele>354.72</ele>
  <time>2026-09-01T19:57:05Z</time>
  <course>67.06</course>
  <speed>21.645630043960374</speed>
  <fix>3d</fix>
</trkpt>
<trkpt lat="-27.2712139" lon="151.2912683">
  <ele>355.54</ele>
  <time>2026-09-01T19:57:05Z</time>
  <course>67.86</course>
  <speed>21.71</speed>
  <fix>3d</fix>
</trkpt>
<trkpt lat="-27.2711852" lon="151.2913465">
  <ele>354.31</ele>
  <time>2026-09-01T19:57:05Z</time>
  <course>67.08</course>
  <speed>21.653242251450475</speed>
  <fix>3d</fix>
</trkpt>
<trkpt lat="-27.2711991" lon="151.291309">
  <ele>354.95</ele>
  <time>2026-09-01T19:57:05Z</time>
  <course>67.78</course>
  <speed>21.68</speed>
  <fix>3d</fix>
</trkpt>
<trkpt lat="-27.2704355" lon="151.2928222">
  <ele>343.0</ele>
  <time>2026-09-01T19:57:05Z</time>
  <course>62.95</course>
  <speed>4.995538009063688</speed>
  <fix>3d</fix>
</trkpt>
<trkpt lat="-27.2711775" lon="151.2913675">
  <ele>353.84</ele>
  <time>2026-09-01T19:57:05Z</time>
  <course>67.09</course>
  <speed>21.683173199511184</speed>
  <fix>3d</fix>
</trkpt>
<trkpt lat="-27.2711991" lon="151.291309">
  <ele>354.95</ele>
  <time>2026-09-01T19:57:05Z</time>
  <course>67.78</course>
  <speed>21.68</speed>
  <fix>3d</fix>
</trkpt>
<trkpt lat="-27.2711701" lon="151.2913878">
  <ele>353.36</ele>
  <time>2026-09-01T19:57:05Z</time>
  <course>67.09</course>
  <speed>21.731601413609628</speed>
  <fix>3d</fix>
</trkpt>
<trkpt lat="-27.2711844" lon="151.2913496">
  <ele>354.18</ele>
  <time>2026-09-01T19:57:05Z</time>
  <course>67.67</course>
  <speed>21.68</speed>
  <fix>3d</fix>
</trkpt>
<trkpt lat="-27.2704314" lon="151.2928312">
  <ele>343.0</ele>
  <time>2026-09-01T19:57:05Z</time>
  <course>63.07</course>
  <speed>4.991001903425804</speed>
  <fix>3d</fix>
</trkpt>
<trkpt lat="-27.2711626" lon="151.2914082">
  <ele>352.85</ele>
  <time>2026-09-01T19:57:05Z</time>
  <course>67.09</course>
  <speed>21.815409691316823</speed>
  <fix>3d</fix>
</trkpt>
<trkpt lat="-27.2711844" lon="151.2913496">
  <ele>354.18</ele>
  <time>2026-09-01T19:57:05Z</time>
  <course>67.67</course>
  <speed>21.68</speed>
  <fix>3d</fix>
</trkpt>
<trkpt lat="-27.2711551" lon="151.2914287">
  <ele>352.35</ele>
  <time>2026-09-01T19:57:05Z</time>
  <course>67.07</course>
  <speed>21.921541916571474</speed>
  <fix>3d</fix>
</trkpt>
<trkpt lat="-27.2711695" lon="151.2913902">
  <ele>353.27</ele>
  <time>2026-09-01T19:57:05Z</time>
  <course>67.56</course>
  <speed>21.75</speed>
  <fix>3d</fix>
</trkpt>
<trkpt lat="-27.2704274" lon="151.2928402">
  <ele>343.0</ele>
  <time>2026-09-01T19:57:05Z</time>
  <course>63.18</course>
  <speed>4.995407891253726</speed>
  <fix>3d</fix>
</trkpt>
<trkpt lat="-27.2711475" lon="151.2914493">
  <ele>351.86</ele>
  <time>2026-09-01T19:57:05Z</time>
  <course>67.05</course>
  <speed>22.04077357989052</speed>
  <fix>3d</fix>
</trkpt>
<trkpt lat="-27.2711695" lon="151.2913902">
  <ele>353.27</ele>
  <time>2026-09-01T19:57:05Z</time>
  <course>67.56</course>
  <speed>21.75</speed>
  <fix>3d</fix>
</trkpt>
<trkpt lat="-27.2711398" lon="151.2914701">
  <ele>351.4</ele>
  <time>2026-09-01T19:57:05Z</time>
  <course>67.02</course>
  <speed>22.156175211439358</speed>
  <fix>3d</fix>
</trkpt>
<trkpt lat="-27.2711545" lon="151.2914309">
  <ele>352.28</ele>
  <time>2026-09-01T19:57:05Z</time>
  <course>67.44</course>
  <speed>21.92</speed>
  <fix>3d</fix>
</trkpt>
<trkpt lat="-27.2704233" lon="151.2928493">
  <ele>343.0</ele>
  <time>2026-09-01T19:57:05Z</time>
  <course>63.29</course>
  <speed>4.99091174035366</speed>
  <fix>3d</fix>
</trkpt>
<trkpt lat="-27.271132" lon="151.291491">
  <ele>350.98</ele>
  <time>2026-09-01T19:57:05Z</time>
  <course>66.99</course>
  <speed>22.266236772297198</speed>
  <fix>3d</fix>
</trkpt>
<trkpt lat="-27.2711545" lon="151.2914309">
  <ele>352.28</ele>
  <time>2026-09-01T19:57:05Z</time>
  <course>67.44</course>
  <speed>21.92</speed>
  <fix>3d</fix>
</trkpt>
<trkpt lat="-27.2711242" lon="151.2915119">
  <ele>350.61</ele>
  <time>2026-09-01T19:57:05Z</time>
  <course>66.94</course>
  <speed>22.340926569862763</speed>
  <fix>3d</fix>
</trkpt>
<trkpt lat="-27.2711393" lon="151.291472">
  <ele>351.36</ele>
  <time>2026-09-01T19:57:05Z</time>
  <course>67.31</course>
  <speed>22.14</speed>
  <fix>3d</fix>
</trkpt>
<trkpt lat="-27.2704193" lon="151.2928583">
  <ele>343.0</ele>
  <time>2026-09-01T19:57:05Z</time>
  <course>63.41</course>
  <speed>4.995377863585497</speed>
  <fix>3d</fix>
</trkpt>
<trkpt lat="-27.2711164" lon="151.2915328">
  <ele>350.29</ele>
  <time>2026-09-01T19:57:05Z</time>
  <course>66.89</course>
  <speed>22.384112669480555</speed>
  <fix>3d</fix>
</trkpt>
<trkpt lat="-27.2711393" lon="151.291472">
  <ele>351.36</ele>
  <time>2026-09-01T19:57:05Z</time>
  <course>67.31</course>
  <speed>22.14</speed>
  <fix>3d</fix>
</trkpt>
<trkpt lat="-27.2711086" lon="151.2915537">
  <ele>350.03</ele>
  <time>2026-09-01T19:57:05Z</time>
  <course>66.83</course>
  <speed>22.386596436260692</speed>
  <fix>3d</fix>
</trkpt>
<trkpt lat="-27.2711239" lon="151.2915134">
  <ele>350.59</ele>
  <time>2026-09-01T19:57:05Z</time>
  <course>67.16</course>
  <speed>22.3</speed>
  <fix>3d</fix>
</trkpt>
<trkpt lat="-27.2704153" lon="151.2928673">
  <ele>343.0</ele>
  <time>2026-09-01T19:57:05Z</time>
  <course>63.52</course>
  <speed>4.990921758553224</speed>
  <fix>3d</fix>
</trkpt>
<trkpt lat="-27.2711007" lon="151.2915745">
  <ele>349.82</ele>
  <time>2026-09-01T19:57:05Z</time>
  <course>66.77</course>
  <speed>22.366805762110957</speed>
  <fix>3d</fix>
</trkpt>
<trkpt lat="-27.2711239" lon="151.2915134">
  <ele>350.59</ele>
  <time>2026-09-01T19:57:05Z</time>
  <course>67.16</course>
  <speed>22.3</speed>
  <fix>3d</fix>
</trkpt>
<trkpt lat="-27.2710928" lon="151.2915953">
  <ele>349.66</ele>
  <time>2026-09-01T19:57:05Z</time>
  <course>66.69</course>
  <speed>22.306344388984943</speed>
  <fix>3d</fix>
</trkpt>
<trkpt lat="-27.2711082" lon="151.291555">
  <ele>350.01</ele>
  <time>2026-09-01T19:57:05Z</time>
  <course>67.0</course>
  <speed>22.35</speed>
  <fix>3d</fix>
</trkpt>
<trkpt lat="-27.2704113" lon="151.2928763">
  <ele>343.0</ele>
  <time>2026-09-01T19:57:05Z</time>
  <course>63.64</course>
  <speed>4.9954479278639266</speed>
  <fix>3d</fix>
</trkpt>
<trkpt lat="-27.271085" lon="151.291616">
  <ele>349.55</ele>
  <time>2026-09-01T19:57:05Z</time>
  <course>66.61</course>
  <speed>22.21048626212402</speed>
  <fix>3d</fix>
</trkpt>
<trkpt lat="-27.2711082" lon="151.291555">
  <ele>350.01</ele>
  <time>2026-09-01T19:57:05Z</time>
  <course>67.0</course>
  <speed>22.35</speed>
  <fix>3d</fix>
</trkpt>
<trkpt lat="-27.2710771" lon="151.2916366">
  <ele>349.5</ele>
  <time>2026-09-01T19:57:05Z</time>
  <course>66.53</course>
  <speed>22.083161005616926</speed>
  <fix>3d</fix>
</trkpt>
<trkpt lat="-27.2710925" lon="151.2915965">
  <ele>349.65</ele>
  <time>2026-09-01T19:57:05Z</time>
  <course>66.82</course>
  <speed>22.27</speed>
  <fix>3d</fix>
</trkpt>
<trkpt lat="-27.2704073" lon="151.2928854">
  <ele>343.0</ele>
  <time>2026-09-01T19:57:05Z</time>
  <course>63.75</course>
  <speed>4.9954479278639266</speed>
  <fix>3d</fix>
</trkpt>
<trkpt lat="-27.2710693" lon="151.2916571">
  <ele>349.48</ele>
  <time>2026-09-01T19:57:05Z</time>
  <course>66.46</course>
  <speed>21.946708181410713</speed>
  <fix>3d</fix>
</trkpt>
<trkpt lat="-27.2710925" lon="151.2915965">
  <ele>349.65</ele>
  <time>2026-09-01T19:57:05Z</time>
  <course>66.82</course>
  <speed>22.27</speed>
  <fix>3d</fix>
</trkpt>
<trkpt lat="-27.2710614" lon="151.2916774">
  <ele>349.51</ele>
  <time>2026-09-01T19:57:05Z</time>
  <course>66.38</course>
  <speed>21.787989810902705</speed>
  <fix>3d</fix>
</trkpt>
<trkpt lat="-27.2710768" lon="151.2916377">
  <ele>349.49</ele>
  <time>2026-09-01T19:57:05Z</time>
  <course>66.63</course>
  <speed>22.06</speed>
  <fix>3d</fix>
</trkpt>
<trkpt lat="-27.2704034" lon="151.2928944">
  <ele>343.0</ele>
  <time>2026-09-01T19:57:05Z</time>
  <course>63.87</course>
  <speed>4.991031957421231</speed>
  <fix>3d</fix>
</trkpt>
<trkpt lat="-27.2710536" lon="151.2916975">
  <ele>349.57</ele>
  <time>2026-09-01T19:57:05Z</time>
  <course>66.3</course>
  <speed>21.625330055284707</speed>
  <fix>3d</fix>
</trkpt>
<trkpt lat="-27.2710768" lon="151.2916377">
  <ele>349.49</ele>
  <time>2026-09-01T19:57:05Z</time>
  <course>66.63</course>
  <speed>22.06</speed>
  <fix>3d</fix>
</trkpt>
<trkpt lat="-27.2710459" lon="151.2917175">
  <ele>349.65</ele>
  <time>2026-09-01T19:57:05Z</time>
  <course>66.21</course>
  <speed>21.45756043915524</speed>
  <fix>3d</fix>
</trkpt>
<trkpt lat="-27.2710611" lon="151.2916783">
  <ele>349.5</ele>
  <time>2026-09-01T19:57:05Z</time>
  <course>66.44</course>
  <speed>21.77</speed>
  <fix>3d</fix>
</trkpt>
<trkpt lat="-27.2703994" lon="151.2929036">
  <ele>343.0</ele>
  <time>2026-09-01T19:57:05Z</time>
  <course>63.98</course>
  <speed>4.995618079877604</speed>
  <fix>3d</fix>
</trkpt>
<trkpt lat="-27.2710381" lon="151.2917373">
  <ele>349.76</ele>
  <time>2026-09-01T19:57:05Z</time>
  <course>66.13</course>
  <speed>21.285835666000995</speed>
  <fix>3d</fix>
</trkpt>
<trkpt lat="-27.2710611" lon="151.2916783">
  <ele>349.5</ele>
  <time>2026-09-01T19:57:05Z</time>
  <course>66.44</course>
  <speed>21.77</speed>
  <fix>3d</fix>
</trkpt>
<trkpt lat="-27.2710304" lon="151.2917569">
  <ele>349.88</ele>
  <time>2026-09-01T19:57:05Z</time>
  <course>66.05</course>
  <speed>21.118205416180608</speed>
  <fix>3d</fix>
</trkpt>
<trkpt lat="-27.2710455" lon="151.2917183">
  <ele>349.65</ele>
  <time>2026-09-01T19:57:05Z</time>
  <course>66.24</course>
  <speed>21.44</speed>
  <fix>3d</fix>
</trkpt>
<trkpt lat="-27.2703955" lon="151.2929127">
  <ele>343.0</ele>
  <time>2026-09-01T19:57:05Z</time>
  <course>64.1</course>
  <speed>4.991242330322181</speed>
  <fix>3d</fix>
</trkpt>
<trkpt lat="-27.271023" lon="151.2917758">
  <ele>350.01</ele>
  <time>2026-09-01T19:57:05Z</time>
  <course>65.96</course>
  <speed>20.959792460804568</speed>
  <fix>3d</fix>
</trkpt>
<trkpt lat="-27.2710455" lon="151.2917183">
  <ele>349.65</ele>
  <time>2026-09-01T19:57:05Z</time>
  <course>66.24</course>
  <speed>21.44</speed>
  <fix>3d</fix>
</trkpt>
<trkpt lat="-27.271015" lon="151.2917957">
  <ele>350.15</ele>
  <time>2026-09-01T19:57:05Z</time>
  <course>65.86</course>
  <speed>20.80144706504814</speed>
  <fix>3d</fix>
</trkpt>
<trkpt lat="-27.27103" lon="151.2917578">
  <ele>349.87</ele>
  <time>2026-09-01T19:57:05Z</time>
  <course>66.04</course>
  <speed>21.1</speed>
  <fix>3d</fix>
</trkpt>
<trkpt lat="-27.2703915" lon="151.2929218">
  <ele>343.0</ele>
  <time>2026-09-01T19:57:05Z</time>
  <course>64.21</course>
  <speed>4.9958883094000415</speed>
  <fix>3d</fix>
</trkpt>
<trkpt lat="-27.2710075" lon="151.2918147">
  <ele>350.28</ele>
  <time>2026-09-01T19:57:05Z</time>
  <course>65.75</course>
  <speed>20.656391262754493</speed>
  <fix>3d</fix>
</trkpt>
<trkpt lat="-27.27103" lon="151.2917578">
  <ele>349.87</ele>
  <time>2026-09-01T19:57:05Z</time>
  <course>66.04</course>
  <speed>21.1</speed>
  <fix>3d</fix>
</trkpt>
<trkpt lat="-27.2709999" lon="151.2918336">
  <ele>350.42</ele>
  <time>2026-09-01T19:57:05Z</time>
  <course>65.65</course>
  <speed>20.511426084014733</speed>
  <fix>3d</fix>
</trkpt>
<trkpt lat="-27.2710147" lon="151.2917964">
  <ele>350.12</ele>
  <time>2026-09-01T19:57:05Z</time>
  <course>65.82</course>
  <speed>20.78</speed>
  <fix>3d</fix>
</trkpt>
<trkpt lat="-27.2703877" lon="151.2929309">
  <ele>343.0</ele>
  <time>2026-09-01T19:57:05Z</time>
  <course>64.33</course>
  <speed>4.9915528645903375</speed>
  <fix>3d</fix>
</trkpt>
<trkpt lat="-27.2709923" lon="151.2918525">
  <ele>350.55</ele>
  <time>2026-09-01T19:57:05Z</time>
  <course>65.53</course>
  <speed>20.37565704462067</speed>
  <fix>3d</fix>
</trkpt>
<trkpt lat="-27.2710147" lon="151.2917964">
  <ele>350.12</ele>
  <time>2026-09-01T19:57:05Z</time>
  <course>65.82</course>
  <speed>20.78</speed>
  <fix>3d</fix>
</trkpt>
<trkpt lat="-27.2709847" lon="151.2918711">
  <ele>350.68</ele>
  <time>2026-09-01T19:57:05Z</time>
  <course>65.42</course>
  <speed>20.24412260385715</speed>
  <fix>3d</fix>
</trkpt>
<trkpt lat="-27.2709995" lon="151.2918344">
  <ele>350.39</ele>
  <time>2026-09-01T19:57:05Z</time>
  <course>65.58</course>
  <speed>20.49</speed>
  <fix>3d</fix>
</trkpt>
<trkpt lat="-27.2703838" lon="151.29294">
  <ele>343.0</ele>
  <time>2026-09-01T19:57:05Z</time>
  <course>64.44</course>
  <speed>4.996258600192748</speed>
  <fix>3d</fix>
</trkpt>
<trkpt lat="-27.2709771" lon="151.2918898">
  <ele>350.81</ele>
  <time>2026-09-01T19:57:05Z</time>
  <course>65.29</course>
  <speed>20.112707425903654</speed>
  <fix>3d</fix>
</trkpt>
<trkpt lat="-27.2709995" lon="151.2918344">
  <ele>350.39</ele>
  <time>2026-09-01T19:57:05Z</time>
  <course>65.58</course>
  <speed>20.49</speed>
  <fix>3d</fix>
</trkpt>
<trkpt lat="-27.2709695" lon="151.2919082">
  <ele>350.93</ele>
  <time>2026-09-01T19:57:05Z</time>
  <course>65.16</course>
  <speed>19.994691795574145</speed>
  <fix>3d</fix>
</trkpt>
<trkpt lat="-27.2709843" lon="151.2918718">
  <ele>350.64</ele>
  <time>2026-09-01T19:57:05Z</time>
  <course>65.32</course>
  <speed>20.23</speed>
  <fix>3d</fix>
</trkpt>
<trkpt lat="-27.2703799" lon="151.2929491">
  <ele>343.0</ele>
  <time>2026-09-01T19:57:05Z</time>
  <course>64.56</course>
  <speed>4.991963541533532</speed>
  <fix>3d</fix>
</trkpt>
<trkpt lat="-27.2709619" lon="151.2919264">
  <ele>351.05</ele>
  <time>2026-09-01T19:57:05Z</time>
  <course>65.02</course>
  <speed>19.88588695532588</speed>
  <fix>3d</fix>
</trkpt>
<trkpt lat="-27.2709843" lon="151.2918718">
  <ele>350.64</ele>
  <time>2026-09-01T19:57:05Z</time>
  <course>65.32</course>
  <speed>20.23</speed>
  <fix>3d</fix>
</trkpt>
<trkpt lat="-27.2709544" lon="151.2919446">
  <ele>351.16</ele>
  <time>2026-09-01T19:57:05Z</time>
  <course>64.87</course>
  <speed>19.76816127008276</speed>
  <fix>3d</fix>
</trkpt>
<trkpt lat="-27.2709691" lon="151.2919087">
  <ele>350.88</ele>
  <time>2026-09-01T19:57:05Z</time>
  <course>65.03</course>
  <speed>19.98</speed>
  <fix>3d</fix>
</trkpt>
<trkpt lat="-27.270376" lon="151.2929582">
  <ele>343.0</ele>
  <time>2026-09-01T19:57:05Z</time>
  <course>64.67</course>
  <speed>4.987684833667821</speed>
  <fix>3d</fix>
</trkpt>
<trkpt lat="-27.2709468" lon="151.2919626">
  <ele>351.27</ele>
  <time>2026-09-01T19:57:05Z</time>
  <course>64.73</course>
  <speed>19.66390856366048</speed>
  <fix>3d</fix>
</trkpt>
<trkpt lat="-27.2709691" lon="151.2919087">
  <ele>350.88</ele>
  <time>2026-09-01T19:57:05Z</time>
  <course>65.03</course>
  <speed>19.98</speed>
  <fix>3d</fix>
</trkpt>
<trkpt lat="-27.2709392" lon="151.2919804">
  <ele>351.38</ele>
  <time>2026-09-01T19:57:05Z</time>
  <course>64.58</course>
  <speed>19.555533743674705</speed>
  <fix>3d</fix>
</trkpt>
<trkpt lat="-27.2709539" lon="151.291945">
  <ele>351.11</ele>
  <time>2026-09-01T19:57:05Z</time>
  <course>64.72</course>
  <speed>19.75</speed>
  <fix>3d</fix>
</trkpt>
<trkpt lat="-27.2703722" lon="151.2929673">
  <ele>343.0</ele>
  <time>2026-09-01T19:57:05Z</time>
  <course>64.79</course>
  <speed>4.9924743364387965</speed>
  <fix>3d</fix>
</trkpt>
<trkpt lat="-27.2709316" lon="151.2919982">
  <ele>351.48</ele>
  <time>2026-09-01T19:57:05Z</time>
  <course>64.42</course>
  <speed>19.460639763378797</speed>
  <fix>3d</fix>
</trkpt>
<trkpt lat="-27.2709539" lon="151.291945">
  <ele>351.11</ele>
  <time>2026-09-01T19:57:05Z</time>
  <course>64.72</course>
  <speed>19.75</speed>
  <fix>3d</fix>
</trkpt>
<trkpt lat="-27.270924" lon="151.2920158">
  <ele>351.59</ele>
  <time>2026-09-01T19:57:05Z</time>
  <course>64.24</course>
  <speed>19.35227635189204</speed>
  <fix>3d</fix>
</trkpt>
<trkpt lat="-27.2709388" lon="151.2919809">
  <ele>351.32</ele>
  <time>2026-09-01T19:57:05Z</time>
  <course>64.39</course>
  <speed>19.54</speed>
  <fix>3d</fix>
</trkpt>
<trkpt lat="-27.2703684" lon="151.2929765">
  <ele>343.0</ele>
  <time>2026-09-01T19:57:05Z</time>
  <course>64.9</course>
  <speed>4.9924743364387965</speed>
  <fix>3d</fix>
</trkpt>
<trkpt lat="-27.2709164" lon="151.2920333">
  <ele>351.69</ele>
  <time>2026-09-01T19:57:05Z</time>
  <course>64.06</course>
  <speed>19.239802493788755</speed>
  <fix>3d</fix>
</trkpt>
<trkpt lat="-27.2709388" lon="151.2919809">
  <ele>351.32</ele>
  <time>2026-09-01T19:57:05Z</time>
  <course>64.39</course>
  <speed>19.54</speed>
  <fix>3d</fix>
</trkpt>
<trkpt lat="-27.2709088" lon="151.2920507">
  <ele>351.81</ele>
  <time>2026-09-01T19:57:06Z</time>
  <course>63.86</course>
  <speed>19.136420772965877</speed>
  <fix>3d</fix>
</trkpt>
<trkpt lat="-27.2709236" lon="151.2920163">
  <ele>351.52</ele>
  <time>2026-09-01T19:57:06Z</time>
  <course>64.01</course>
  <speed>19.34</speed>
  <fix>3d</fix>
</trkpt>
<trkpt lat="-27.2703646" lon="151.2929857">
  <ele>343.0</ele>
  <time>2026-09-01T19:57:06Z</time>
  <course>65.02</course>
  <speed>4.997299270606074</speed>
  <fix>3d</fix>
</trkpt>
<trkpt lat="-27.2709011" lon="151.292068">
  <ele>351.93</ele>
  <time>2026-09-01T19:57:06Z</time>
  <course>63.65</course>
  <speed>19.01999474237572</speed>
  <fix>3d</fix>
</trkpt>
<trkpt lat="-27.2709236" lon="151.2920163">
  <ele>351.52</ele>
  <time>2026-09-01T19:57:06Z</time>
  <course>64.01</course>
  <speed>19.34</speed>
  <fix>3d</fix>
</trkpt>
<trkpt lat="-27.2708934" lon="151.2920851">
  <ele>352.05</ele>
  <time>2026-09-01T19:57:06Z</time>
  <course>63.43</course>
  <speed>18.921759960426513</speed>
  <fix>3d</fix>
</trkpt>
<trkpt lat="-27.2709083" lon="151.2920512">
  <ele>351.74</ele>
  <time>2026-09-01T19:57:06Z</time>
  <course>63.57</course>
  <speed>19.12</speed>
  <fix>3d</fix>
</trkpt>
<trkpt lat="-27.2703608" lon="151.2929949">
  <ele>343.0</ele>
  <time>2026-09-01T19:57:06Z</time>
  <course>65.14</course>
  <speed>4.9930852185797905</speed>
  <fix>3d</fix>
</trkpt>
<trkpt lat="-27.2708858" lon="151.2921021">
  <ele>352.17</ele>
  <time>2026-09-01T19:57:06Z</time>
  <course>63.21</course>
  <speed>18.823798766455194</speed>
  <fix>3d</fix>
</trkpt>
<trkpt lat="-27.2709083" lon="151.2920512">
  <ele>351.74</ele>
  <time>2026-09-01T19:57:06Z</time>
  <course>63.57</course>
  <speed>19.12</speed>
  <fix>3d</fix>
</trkpt>
<trkpt lat="-27.270878" lon="151.2921189">
  <ele>352.29</ele>
  <time>2026-09-01T19:57:06Z</time>
  <course>62.99</course>
  <speed>18.726115454092447</speed>
  <fix>3d</fix>
</trkpt>
<trkpt lat="-27.270893" lon="151.2920856">
  <ele>351.97</ele>
  <time>2026-09-01T19:57:06Z</time>
  <course>63.1</course>
  <speed>18.91</speed>
  <fix>3d</fix>
</trkpt>
<trkpt lat="-27.270357" lon="151.293004">
  <ele>343.0</ele>
  <time>2026-09-01T19:57:06Z</time>
  <course>65.25</course>
  <speed>4.997969587742606</speed>
  <fix>3d</fix>
</trkpt>
<trkpt lat="-27.2708703" lon="151.2921357">
  <ele>352.41</ele>
  <time>2026-09-01T19:57:06Z</time>
  <course>62.79</course>
  <speed>18.637588363304946</speed>
  <fix>3d</fix>
</trkpt>
<trkpt lat="-27.270893" lon="151.2920856">
  <ele>351.97</ele>
  <time>2026-09-01T19:57:06Z</time>
  <course>63.1</course>
  <speed>18.91</speed>
  <fix>3d</fix>
</trkpt>
<trkpt lat="-27.2708626" lon="151.2921523">
  <ele>352.52</ele>
  <time>2026-09-01T19:57:06Z</time>
  <course>62.59</course>
  <speed>18.558170707265305</speed>
  <fix>3d</fix>
</trkpt>
<trkpt lat="-27.2708775" lon="151.2921194">
  <ele>352.21</ele>
  <time>2026-09-01T19:57:06Z</time>
  <course>62.66</course>
  <speed>18.72</speed>
  <fix>3d</fix>
</trkpt>
<trkpt lat="-27.2703533" lon="151.2930132">
  <ele>343.0</ele>
  <time>2026-09-01T19:57:06Z</time>
  <course>65.37</course>
  <speed>4.993796151226039</speed>
  <fix>3d</fix>
</trkpt>
<trkpt lat="-27.2708548" lon="151.2921689">
  <ele>352.63</ele>
  <time>2026-09-01T19:57:06Z</time>
  <course>62.4</course>
  <speed>18.47897453864797</speed>
  <fix>3d</fix>
</trkpt>
<trkpt lat="-27.2708775" lon="151.2921194">
  <ele>352.21</ele>
  <time>2026-09-01T19:57:06Z</time>
  <course>62.66</course>
  <speed>18.72</speed>
  <fix>3d</fix>
</trkpt>
<trkpt lat="-27.270847" lon="151.2921853">
  <ele>352.73</ele>
  <time>2026-09-01T19:57:06Z</time>
  <course>62.23</course>
  <speed>18.40882940330536</speed>
  <fix>3d</fix>
</trkpt>
<trkpt lat="-27.270862" lon="151.2921529">
  <ele>352.44</ele>
  <time>2026-09-01T19:57:06Z</time>
  <course>62.24</course>
  <speed>18.55</speed>
  <fix>3d</fix>
</trkpt>
<trkpt lat="-27.2703495" lon="151.2930224">
  <ele>343.0</ele>
  <time>2026-09-01T19:57:06Z</time>
  <course>65.48</course>
  <speed>4.989639265518099</speed>
  <fix>3d</fix>
</trkpt>
<trkpt lat="-27.2708392" lon="151.2922017">
  <ele>352.82</ele>
  <time>2026-09-01T19:57:06Z</time>
  <course>62.05</course>
  <speed>18.338879464133026</speed>
  <fix>3d</fix>
</trkpt>
<trkpt lat="-27.270862" lon="151.2921529">
  <ele>352.44</ele>
  <time>2026-09-01T19:57:06Z</time>
  <course>62.24</course>
  <speed>18.55</speed>
  <fix>3d</fix>
</trkpt>
<trkpt lat="-27.2708314" lon="151.292218">
  <ele>352.92</ele>
  <time>2026-09-01T19:57:06Z</time>
  <course>61.88</course>
  <speed>18.277923842712553</speed>
  <fix>3d</fix>
</trkpt>
<trkpt lat="-27.2708465" lon="151.2921859">
  <ele>352.65</ele>
  <time>2026-09-01T19:57:06Z</time>
  <course>61.86</course>
  <speed>18.4</speed>
  <fix>3d</fix>
</trkpt>
<trkpt lat="-27.2703458" lon="151.2930316">
  <ele>343.0</ele>
  <time>2026-09-01T19:57:06Z</time>
  <course>65.6</course>
  <speed>4.9946070916539576</speed>
  <fix>3d</fix>
</trkpt>
<trkpt lat="-27.2708235" lon="151.2922342">
  <ele>353.01</ele>
  <time>2026-09-01T19:57:06Z</time>
  <course>61.72</course>
  <speed>18.21235844145398</speed>
  <fix>3d</fix>
</trkpt>
<trkpt lat="-27.2708465" lon="151.2921859">
  <ele>352.65</ele>
  <time>2026-09-01T19:57:06Z</time>
  <course>61.86</course>
  <speed>18.4</speed>
  <fix>3d</fix>
</trkpt>
<trkpt lat="-27.2708158" lon="151.2922502">
  <ele>353.09</ele>
  <time>2026-09-01T19:57:06Z</time>
  <course>61.55</course>
  <speed>18.160487328262974</speed>
  <fix>3d</fix>
</trkpt>
<trkpt lat="-27.2708309" lon="151.2922185">
  <ele>352.85</ele>
  <time>2026-09-01T19:57:06Z</time>
  <course>61.51</course>
  <speed>18.27</speed>
  <fix>3d</fix>
</trkpt>
<trkpt lat="-27.2703421" lon="151.2930408">
  <ele>343.0</ele>
  <time>2026-09-01T19:57:06Z</time>
  <course>65.71</course>
  <speed>4.990490957811666</speed>
  <fix>3d</fix>
</trkpt>
<trkpt lat="-27.2708078" lon="151.2922665">
  <ele>353.18</ele>
  <time>2026-09-01T19:57:06Z</time>
  <course>61.38</course>
  <speed>18.095176152776187</speed>
  <fix>3d</fix>
</trkpt>
<trkpt lat="-27.2708309" lon="151.2922185">
  <ele>352.85</ele>
  <time>2026-09-01T19:57:06Z</time>
  <course>61.51</course>
  <speed>18.27</speed>
  <fix>3d</fix>
</trkpt>
<trkpt lat="-27.2707999" lon="151.2922825">
  <ele>353.26</ele>
  <time>2026-09-01T19:57:06Z</time>
  <course>61.22</course>
  <speed>18.047484589271715</speed>
  <fix>3d</fix>
</trkpt>
<trkpt lat="-27.2708152" lon="151.2922508">
  <ele>353.02</ele>
  <time>2026-09-01T19:57:06Z</time>
  <course>61.2</course>
  <speed>18.15</speed>
  <fix>3d</fix>
</trkpt>
<trkpt lat="-27.2703385" lon="151.29305">
  <ele>343.0</ele>
  <time>2026-09-01T19:57:06Z</time>
  <course>65.83</course>
  <speed>4.995517991159676</speed>
  <fix>3d</fix>
</trkpt>
<trkpt lat="-27.270792" lon="151.2922984">
  <ele>353.34</ele>
  <time>2026-09-01T19:57:06Z</time>
  <course>61.07</course>
  <speed>17.995999555456763</speed>
  <fix>3d</fix>
</trkpt>
<trkpt lat="-27.2708152" lon="151.2922508">
  <ele>353.02</ele>
  <time>2026-09-01T19:57:06Z</time>
  <course>61.2</course>
  <speed>18.15</speed>
  <fix>3d</fix>
</trkpt>
<trkpt lat="-27.2707841" lon="151.2923142">
  <ele>353.41</ele>
  <time>2026-09-01T19:57:06Z</time>
  <course>60.93</course>
  <speed>17.948495758697998</speed>
  <fix>3d</fix>
</trkpt>
<trkpt lat="-27.2707995" lon="151.2922828">
  <ele>353.18</ele>
  <time>2026-09-01T19:57:06Z</time>
  <course>60.91</course>
  <speed>18.05</speed>
  <fix>3d</fix>
</trkpt>
<trkpt lat="-27.2703348" lon="151.2930592">
  <ele>343.0</ele>
  <time>2026-09-01T19:57:06Z</time>
  <course>65.94</course>
  <speed>4.991442677222689</speed>
  <fix>3d</fix>
</trkpt>
<trkpt lat="-27.2707762" lon="151.29233">
  <ele>353.48</ele>
  <time>2026-09-01T19:57:06Z</time>
  <course>60.79</course>
  <speed>17.901072593562656</speed>
  <fix>3d</fix>
</trkpt>
<trkpt lat="-27.2707995" lon="151.2922828">
  <ele>353.18</ele>
  <time>2026-09-01T19:57:06Z</time>
  <course>60.91</course>
  <speed>18.05</speed>
  <fix>3d</fix>
</trkpt>
<trkpt lat="-27.2707683" lon="151.2923458">
  <ele>353.55</ele>
  <time>2026-09-01T19:57:06Z</time>
  <course>60.66</course>
  <speed>17.85373070257306</speed>
  <fix>3d</fix>
</trkpt>
<trkpt lat="-27.2707837" lon="151.2923146">
  <ele>353.33</ele>
  <time>2026-09-01T19:57:06Z</time>
  <course>60.64</course>
  <speed>17.95</speed>
  <fix>3d</fix>
</trkpt>
<trkpt lat="-27.2703311" lon="151.2930685">
  <ele>343.0</ele>
  <time>2026-09-01T19:57:06Z</time>
  <course>66.06</course>
  <speed>4.98738408386601</speed>
  <fix>3d</fix>
</trkpt>
<trkpt lat="-27.2707603" lon="151.2923615">
  <ele>353.62</ele>
  <time>2026-09-01T19:57:06Z</time>
  <course>60.53</course>
  <speed>17.815164888375296</speed>
  <fix>3d</fix>
</trkpt>
<trkpt lat="-27.2707837" lon="151.2923146">
  <ele>353.33</ele>
  <time>2026-09-01T19:57:06Z</time>
  <course>60.64</course>
  <speed>17.95</speed>
  <fix>3d</fix>
</trkpt>
<trkpt lat="-27.2707524" lon="151.2923771">
  <ele>353.69</ele>
  <time>2026-09-01T19:57:06Z</time>
  <course>60.41</course>
  <speed>17.776661666353444</speed>
  <fix>3d</fix>
</trkpt>
<trkpt lat="-27.2707678" lon="151.292346">
  <ele>353.47</ele>
  <time>2026-09-01T19:57:06Z</time>
  <course>60.39</course>
  <speed>17.86</speed>
  <fix>3d</fix>
</trkpt>
<trkpt lat="-27.2703275" lon="151.2930777">
  <ele>343.0</ele>
  <time>2026-09-01T19:57:06Z</time>
  <course>66.17</course>
  <speed>4.992494366546646</speed>
  <fix>3d</fix>
</trkpt>
<trkpt lat="-27.2707444" lon="151.2923927">
  <ele>353.75</ele>
  <time>2026-09-01T19:57:06Z</time>
  <course>60.3</course>
  <speed>17.738221444102</speed>
  <fix>3d</fix>
</trkpt>
<trkpt lat="-27.2707678" lon="151.292346">
  <ele>353.47</ele>
  <time>2026-09-01T19:57:06Z</time>
  <course>60.39</course>
  <speed>17.86</speed>
  <fix>3d</fix>
</trkpt>
<trkpt lat="-27.2707365" lon="151.2924082">
  <ele>353.81</ele>
  <time>2026-09-01T19:57:06Z</time>
  <course>60.19</course>
  <speed>17.699844632086464</speed>
  <fix>3d</fix>
</trkpt>
<trkpt lat="-27.270752" lon="151.2923774">
  <ele>353.6</ele>
  <time>2026-09-01T19:57:06Z</time>
  <course>60.16</course>
  <speed>17.78</speed>
  <fix>3d</fix>
</trkpt>
<trkpt lat="-27.2703239" lon="151.293087">
  <ele>343.0</ele>
  <time>2026-09-01T19:57:06Z</time>
  <course>66.29</course>
  <speed>4.992494366546646</speed>
  <fix>3d</fix>
</trkpt>
<trkpt lat="-27.2707285" lon="151.2924237">
  <ele>353.88</ele>
  <time>2026-09-01T19:57:06Z</time>
  <course>60.09</course>
  <speed>17.6615316436599</speed>
  <fix>3d</fix>
</trkpt>
<trkpt lat="-27.270752" lon="151.2923774">
  <ele>353.6</ele>
  <time>2026-09-01T19:57:06Z</time>
  <course>60.16</course>
  <speed>17.78</speed>
  <fix>3d</fix>
</trkpt>
<trkpt lat="-27.2707205" lon="151.2924392">
  <ele>353.94</ele>
  <time>2026-09-01T19:57:06Z</time>
  <course>60.0</course>
  <speed>17.631931261209022</speed>
  <fix>3d</fix>
</trkpt>
<trkpt lat="-27.2707361" lon="151.2924084">
  <ele>353.73</ele>
  <time>2026-09-01T19:57:06Z</time>
  <course>59.96</course>
  <speed>17.71</speed>
  <fix>3d</fix>
</trkpt>
<trkpt lat="-27.2703203" lon="151.2930963">
  <ele>343.0</ele>
  <time>2026-09-01T19:57:06Z</time>
  <course>66.41</course>
  <speed>4.9976394427769595</speed>
  <fix>3d</fix>
</trkpt>
<trkpt lat="-27.2707125" lon="151.2924545">
  <ele>354.0</ele>
  <time>2026-09-01T19:57:06Z</time>
  <course>59.9</course>
  <speed>17.59734639086246</speed>
  <fix>3d</fix>
</trkpt>
<trkpt lat="-27.2707361" lon="151.2924084">
  <ele>353.73</ele>
  <time>2026-09-01T19:57:06Z</time>
  <course>59.96</course>
  <speed>17.71</speed>
  <fix>3d</fix>
</trkpt>
<trkpt lat="-27.2707045" lon="151.2924699">
  <ele>354.06</ele>
  <time>2026-09-01T19:57:06Z</time>
  <course>59.82</course>
  <speed>17.567825704964175</speed>
  <fix>3d</fix>
</trkpt>
<trkpt lat="-27.2707201" lon="151.2924393">
  <ele>353.86</ele>
  <time>2026-09-01T19:57:06Z</time>
  <course>59.77</course>
  <speed>17.64</speed>
  <fix>3d</fix>
</trkpt>
<trkpt lat="-27.2703167" lon="151.2931055">
  <ele>343.0</ele>
  <time>2026-09-01T19:57:06Z</time>
  <course>66.52</course>
  <speed>4.993645962620898</speed>
  <fix>3d</fix>
</trkpt>
<trkpt lat="-27.2706965" lon="151.2924852">
  <ele>354.12</ele>
  <time>2026-09-01T19:57:06Z</time>
  <course>59.74</course>
  <speed>17.533296894765684</speed>
  <fix>3d</fix>
</trkpt>
<trkpt lat="-27.2707201" lon="151.2924393">
  <ele>353.86</ele>
  <time>2026-09-01T19:57:06Z</time>
  <course>59.77</course>
  <speed>17.64</speed>
  <fix>3d</fix>
</trkpt>
<trkpt lat="-27.2706885" lon="151.2925005">
  <ele>354.18</ele>
  <time>2026-09-01T19:57:06Z</time>
  <course>59.67</course>
  <speed>17.50385671787792</speed>
  <fix>3d</fix>
</trkpt>
<trkpt lat="-27.270704" lon="151.2924702">
  <ele>353.98</ele>
  <time>2026-09-01T19:57:06Z</time>
  <course>59.6</course>
  <speed>17.57</speed>
  <fix>3d</fix>
</trkpt>
<trkpt lat="-27.2703131" lon="151.2931148">
  <ele>343.0</ele>
  <time>2026-09-01T19:57:06Z</time>
  <course>66.64</course>
  <speed>4.998849867719573</speed>
  <fix>3d</fix>
</trkpt>
<trkpt lat="-27.2706805" lon="151.2925157">
  <ele>354.24</ele>
  <time>2026-09-01T19:57:06Z</time>
  <course>59.59</course>
  <speed>17.46938464857878</speed>
  <fix>3d</fix>
</trkpt>
<trkpt lat="-27.270704" lon="151.2924702">
  <ele>353.98</ele>
  <time>2026-09-01T19:57:06Z</time>
  <course>59.6</course>
  <speed>17.57</speed>
  <fix>3d</fix>
</trkpt>
<trkpt lat="-27.2706726" lon="151.2925308">
  <ele>354.3</ele>
  <time>2026-09-01T19:57:06Z</time>
  <course>59.53</course>
  <speed>17.43493619145192</speed>
  <fix>3d</fix>
</trkpt>
<trkpt lat="-27.2706881" lon="151.2925007">
  <ele>354.1</ele>
  <time>2026-09-01T19:57:06Z</time>
  <course>59.46</course>
  <speed>17.51</speed>
  <fix>3d</fix>
</trkpt>
<trkpt lat="-27.2703096" lon="151.293124">
  <ele>343.0</ele>
  <time>2026-09-01T19:57:06Z</time>
  <course>66.75</course>
  <speed>4.9948973963435925</speed>
  <fix>3d</fix>
</trkpt>
<trkpt lat="-27.2706646" lon="151.2925459">
  <ele>354.36</ele>
  <time>2026-09-01T19:57:06Z</time>
  <course>59.47</course>
  <speed>17.409115428418527</speed>
  <fix>3d</fix>
</trkpt>
<trkpt lat="-27.2706881" lon="151.2925007">
  <ele>354.1</ele>
  <time>2026-09-01T19:57:06Z</time>
  <course>59.46</course>
  <speed>17.51</speed>
  <fix>3d</fix>
</trkpt>
<trkpt lat="-27.2706567" lon="151.2925609">
  <ele>354.41</ele>
  <time>2026-09-01T19:57:06Z</time>
  <course>59.42</course>
  <speed>17.369605637434603</speed>
  <fix>3d</fix>
</trkpt>
<trkpt lat="-27.2706722" lon="151.2925311">
  <ele>354.21</ele>
  <time>2026-09-01T19:57:06Z</time>
  <course>59.33</course>
  <speed>17.45</speed>
  <fix>3d</fix>
</trkpt>
<trkpt lat="-27.270306" lon="151.2931333">
  <ele>343.0</ele>
  <time>2026-09-01T19:57:06Z</time>
  <course>66.87</course>
  <speed>4.9909618311503845</speed>
  <fix>3d</fix>
</trkpt>
<trkpt lat="-27.2706488" lon="151.2925758">
  <ele>354.47</ele>
  <time>2026-09-01T19:57:06Z</time>
  <course>59.37</course>
  <speed>17.34380869359438</speed>
  <fix>3d</fix>
</trkpt>
<trkpt lat="-27.2706722" lon="151.2925311">
  <ele>354.21</ele>
  <time>2026-09-01T19:57:06Z</time>
  <course>59.33</course>
  <speed>17.45</speed>
  <fix>3d</fix>
</trkpt>
<trkpt lat="-27.2706408" lon="151.2925908">
  <ele>354.53</ele>
  <time>2026-09-01T19:57:06Z</time>
  <course>59.33</course>
  <speed>17.30431738035338</speed>
  <fix>3d</fix>
</trkpt>
<trkpt lat="-27.2706562" lon="151.2925614">
  <ele>354.33</ele>
  <time>2026-09-01T19:57:06Z</time>
  <course>59.22</course>
  <speed>17.4</speed>
  <fix>3d</fix>
</trkpt>
<trkpt lat="-27.2703025" lon="151.2931426">
  <ele>343.0</ele>
  <time>2026-09-01T19:57:06Z</time>
  <course>66.98</course>
  <speed>4.9962485926943225</speed>
  <fix>3d</fix>
</trkpt>
<trkpt lat="-27.2706329" lon="151.2926057">
  <ele>354.59</ele>
  <time>2026-09-01T19:57:06Z</time>
  <course>59.29</course>
  <speed>17.278544498886472</speed>
  <fix>3d</fix>
</trkpt>
<trkpt lat="-27.2706562" lon="151.2925614">
  <ele>354.33</ele>
  <time>2026-09-01T19:57:06Z</time>
  <course>59.22</course>
  <speed>17.4</speed>
  <fix>3d</fix>
</trkpt>
<trkpt lat="-27.270625" lon="151.2926206">
  <ele>354.65</ele>
  <time>2026-09-01T19:57:06Z</time>
  <course>59.25</course>
  <speed>17.247657812004505</speed>
  <fix>3d</fix>
</trkpt>
<trkpt lat="-27.2706402" lon="151.2925915">
  <ele>354.45</ele>
  <time>2026-09-01T19:57:06Z</time>
  <course>59.13</course>
  <speed>17.35</speed>
  <fix>3d</fix>
</trkpt>
<trkpt lat="-27.270299" lon="151.2931519">
  <ele>343.0</ele>
  <time>2026-09-01T19:57:06Z</time>
  <course>67.1</course>
  <speed>4.992354154104054</speed>
  <fix>3d</fix>
</trkpt>
<trkpt lat="-27.270617" lon="151.2926357">
  <ele>354.7</ele>
  <time>2026-09-01T19:57:06Z</time>
  <course>59.22</course>
  <speed>17.221904656570363</speed>
  <fix>3d</fix>
</trkpt>
<trkpt lat="-27.2706402" lon="151.2925915">
  <ele>354.45</ele>
  <time>2026-09-01T19:57:06Z</time>
  <course>59.13</course>
  <speed>17.35</speed>
  <fix>3d</fix>
</trkpt>
<trkpt lat="-27.270609" lon="151.2926505">
  <ele>354.76</ele>
  <time>2026-09-01T19:57:06Z</time>
  <course>59.19</course>
  <speed>17.19960755366238</speed>
  <fix>3d</fix>
</trkpt>
<trkpt lat="-27.2706242" lon="151.2926216">
  <ele>354.56</ele>
  <time>2026-09-01T19:57:06Z</time>
  <course>59.06</course>
  <speed>17.3</speed>
  <fix>3d</fix>
</trkpt>
<trkpt lat="-27.2702955" lon="151.2931613">
  <ele>343.0</ele>
  <time>2026-09-01T19:57:06Z</time>
  <course>67.21</course>
  <speed>4.988476721405043</speed>
  <fix>3d</fix>
</trkpt>
<trkpt lat="-27.2706011" lon="151.2926654">
  <ele>354.82</ele>
  <time>2026-09-01T19:57:06Z</time>
  <course>59.17</course>
  <speed>17.16873029667599</speed>
  <fix>3d</fix>
</trkpt>
<trkpt lat="-27.2706242" lon="151.2926216">
  <ele>354.56</ele>
  <time>2026-09-01T19:57:06Z</time>
  <course>59.06</course>
  <speed>17.3</speed>
  <fix>3d</fix>
</trkpt>
<trkpt lat="-27.2705932" lon="151.2926802">
  <ele>354.88</ele>
  <time>2026-09-01T19:57:06Z</time>
  <course>59.15</course>
  <speed>17.14643403159969</speed>
  <fix>3d</fix>
</trkpt>
<trkpt lat="-27.2706082" lon="151.2926515">
  <ele>354.68</ele>
  <time>2026-09-01T19:57:06Z</time>
  <course>59.01</course>
  <speed>17.25</speed>
  <fix>3d</fix>
</trkpt>
<trkpt lat="-27.270292" lon="151.2931706">
  <ele>343.0</ele>
  <time>2026-09-01T19:57:06Z</time>
  <course>67.33</course>
  <speed>4.993846213090667</speed>
  <fix>3d</fix>
</trkpt>
<trkpt lat="-27.2705852" lon="151.2926952">
  <ele>354.94</ele>
  <time>2026-09-01T19:57:06Z</time>
  <course>59.13</course>
  <speed>17.12927902744304</speed>
  <fix>3d</fix>
</trkpt>
<trkpt lat="-27.2706082" lon="151.2926515">
  <ele>354.68</ele>
  <time>2026-09-01T19:57:06Z</time>
  <course>59.01</course>
  <speed>17.25</speed>
  <fix>3d</fix>
</trkpt>
<trkpt lat="-27.2705772" lon="151.29271">
  <ele>355.0</ele>
  <time>2026-09-01T19:57:06Z</time>
  <course>59.12</course>
  <speed>17.098409282737386</speed>
  <fix>3d</fix>
</trkpt>
<trkpt lat="-27.2705922" lon="151.2926814">
  <ele>354.79</ele>
  <time>2026-09-01T19:57:06Z</time>
  <course>58.97</course>
  <speed>17.21</speed>
  <fix>3d</fix>
</trkpt>
<trkpt lat="-27.2702886" lon="151.2931799">
  <ele>343.0</ele>
  <time>2026-09-01T19:57:06Z</time>
  <course>67.44</course>
  <speed>4.99001002003002</speed>
  <fix>3d</fix>
</trkpt>
<trkpt lat="-27.2705693" lon="151.2927248">
  <ele>355.06</ele>
  <time>2026-09-01T19:57:06Z</time>
  <course>59.11</course>
  <speed>17.07611489771605</speed>
  <fix>3d</fix>
</trkpt>
<trkpt lat="-27.2705922" lon="151.2926814">
  <ele>354.79</ele>
  <time>2026-09-01T19:57:06Z</time>
  <course>58.97</course>
  <speed>17.21</speed>
  <fix>3d</fix>
</trkpt>
<trkpt lat="-27.2705614" lon="151.2927395">
  <ele>355.11</ele>
  <time>2026-09-01T19:57:06Z</time>
  <course>59.11</course>
  <speed>17.05382068628611</speed>
  <fix>3d</fix>
</trkpt>
<trkpt lat="-27.2705763" lon="151.2927111">
  <ele>354.91</ele>
  <time>2026-09-01T19:57:06Z</time>
  <course>58.95</course>
  <speed>17.17</speed>
  <fix>3d</fix>
</trkpt>
<trkpt lat="-27.2702852" lon="151.2931893">
  <ele>343.0</ele>
  <time>2026-09-01T19:57:06Z</time>
  <course>67.56</course>
  <speed>4.995437918741459</speed>
  <fix>3d</fix>
</trkpt>
<trkpt lat="-27.2705535" lon="151.2927543">
  <ele>355.17</ele>
  <time>2026-09-01T19:57:06Z</time>
  <course>59.11</course>
  <speed>17.031526649129255</speed>
  <fix>3d</fix>
</trkpt>
<trkpt lat="-27.2705763" lon="151.2927111">
  <ele>354.91</ele>
  <time>2026-09-01T19:57:06Z</time>
  <course>58.95</course>
  <speed>17.17</speed>
  <fix>3d</fix>
</trkpt>
<trkpt lat="-27.2705456" lon="151.292769">
  <ele>355.23</ele>
  <time>2026-09-01T19:57:06Z</time>
  <course>59.11</course>
  <speed>17.017805381423305</speed>
  <fix>3d</fix>
</trkpt>
<trkpt lat="-27.2705604" lon="151.2927408">
  <ele>355.03</ele>
  <time>2026-09-01T19:57:06Z</time>
  <course>58.94</course>
  <speed>17.13</speed>
  <fix>3d</fix>
</trkpt>
<trkpt lat="-27.2702817" lon="151.2931986">
  <ele>343.0</ele>
  <time>2026-09-01T19:57:06Z</time>
  <course>67.67</course>
  <speed>4.991643016081979</speed>
  <fix>3d</fix>
</trkpt>
<trkpt lat="-27.2705377" lon="151.2927837">
  <ele>355.28</ele>
  <time>2026-09-01T19:57:06Z</time>
  <course>59.12</course>
  <speed>16.990364916622596</speed>
  <fix>3d</fix>
</trkpt>
<trkpt lat="-27.2705604" lon="151.2927408">
  <ele>355.03</ele>
  <time>2026-09-01T19:57:06Z</time>
  <course>58.94</course>
  <speed>17.13</speed>
  <fix>3d</fix>
</trkpt>
<trkpt lat="-27.2705298" lon="151.2927985">
  <ele>355.34</ele>
  <time>2026-09-01T19:57:06Z</time>
  <course>59.13</course>
  <speed>16.976645722874704</speed>
  <fix>3d</fix>
</trkpt>
<trkpt lat="-27.2705446" lon="151.2927705">
  <ele>355.15</ele>
  <time>2026-09-01T19:57:06Z</time>
  <course>58.95</course>
  <speed>17.09</speed>
  <fix>3d</fix>
</trkpt>
<trkpt lat="-27.2702783" lon="151.2932079">
  <ele>343.0</ele>
  <time>2026-09-01T19:57:06Z</time>
  <course>67.79</course>
  <speed>4.98786527484454</speed>
  <fix>3d</fix>
</trkpt>
<trkpt lat="-27.270522" lon="151.2928132">
  <ele>355.4</ele>
  <time>2026-09-01T19:57:06Z</time>
  <course>59.14</course>
  <speed>16.95435047414085</speed>
  <fix>3d</fix>
</trkpt>
<trkpt lat="-27.2705446" lon="151.2927705">
  <ele>355.15</ele>
  <time>2026-09-01T19:57:06Z</time>
  <course>58.95</course>
  <speed>17.09</speed>
  <fix>3d</fix>
</trkpt>
<trkpt lat="-27.2705141" lon="151.2928279">
  <ele>355.46</ele>
  <time>2026-09-01T19:57:06Z</time>
  <course>59.16</course>
  <speed>16.935492316434146</speed>
  <fix>3d</fix>
</trkpt>
<trkpt lat="-27.2705288" lon="151.2928001">
  <ele>355.26</ele>
  <time>2026-09-01T19:57:06Z</time>
  <course>58.97</course>
  <speed>17.05</speed>
  <fix>3d</fix>
</trkpt>
<trkpt lat="-27.2702749" lon="151.2932173">
  <ele>343.0</ele>
  <time>2026-09-01T19:57:06Z</time>
  <course>67.91</course>
  <speed>4.997129175836863</speed>
  <fix>3d</fix>
</trkpt>
<trkpt lat="-27.2705063" lon="151.2928426">
  <ele>355.52</ele>
  <time>2026-09-01T19:57:06Z</time>
  <course>59.19</course>
  <speed>16.921775911528908</speed>
  <fix>3d</fix>
</trkpt>
<trkpt lat="-27.2705288" lon="151.2928001">
  <ele>355.26</ele>
  <time>2026-09-01T19:57:06Z</time>
  <course>58.97</course>
  <speed>17.05</speed>
  <fix>3d</fix>
</trkpt>
<trkpt lat="-27.2704984" lon="151.2928573">
  <ele>355.58</ele>
  <time>2026-09-01T19:57:06Z</time>
  <course>59.21</course>
  <speed>16.902928740310063</speed>
  <fix>3d</fix>
</trkpt>
<trkpt lat="-27.270513" lon="151.2928296">
  <ele>355.38</ele>
  <time>2026-09-01T19:57:06Z</time>
  <course>59.01</course>
  <speed>17.02</speed>
  <fix>3d</fix>
</trkpt>
<trkpt lat="-27.2702716" lon="151.2932266">
  <ele>343.0</ele>
  <time>2026-09-01T19:57:06Z</time>
  <course>68.02</course>
  <speed>4.993375611748029</speed>
  <fix>3d</fix>
</trkpt>
<trkpt lat="-27.2704906" lon="151.292872">
  <ele>355.64</ele>
  <time>2026-09-01T19:57:06Z</time>
  <course>59.24</course>
  <speed>16.889215493918005</speed>
  <fix>3d</fix>
</trkpt>
<trkpt lat="-27.270513" lon="151.2928296">
  <ele>355.38</ele>
  <time>2026-09-01T19:57:06Z</time>
  <course>59.01</course>
  <speed>17.02</speed>
  <fix>3d</fix>
</trkpt>
<trkpt lat="-27.2704828" lon="151.2928866">
  <ele>355.71</ele>
  <time>2026-09-01T19:57:06Z</time>
  <course>59.27</course>
  <speed>16.87037936740013</speed>
  <fix>3d</fix>
</trkpt>
<trkpt lat="-27.2704973" lon="151.292859">
  <ele>355.5</ele>
  <time>2026-09-01T19:57:06Z</time>
  <course>59.05</course>
  <speed>16.98</speed>
  <fix>3d</fix>
</trkpt>
<trkpt lat="-27.2702682" lon="151.293236">
  <ele>343.0</ele>
  <time>2026-09-01T19:57:06Z</time>
  <course>68.14</course>
  <speed>4.998919883334799</speed>
  <fix>3d</fix>
</trkpt>
<trkpt lat="-27.270475" lon="151.2929013">
  <ele>355.77</ele>
  <time>2026-09-01T19:57:06Z</time>
  <course>59.31</course>
  <speed>16.85666930327578</speed>
  <fix>3d</fix>
</trkpt>
<trkpt lat="-27.2704973" lon="151.292859">
  <ele>355.5</ele>
  <time>2026-09-01T19:57:06Z</time>
  <course>59.05</course>
  <speed>16.98</speed>
  <fix>3d</fix>
</trkpt>
<trkpt lat="-27.2704672" lon="151.292916">
  <ele>355.83</ele>
  <time>2026-09-01T19:57:06Z</time>
  <course>59.34</course>
  <speed>16.829251320245948</speed>
  <fix>3d</fix>
</trkpt>
<trkpt lat="-27.2704816" lon="151.2928885">
  <ele>355.63</ele>
  <time>2026-09-01T19:57:06Z</time>
  <course>59.11</course>
  <speed>16.95</speed>
  <fix>3d</fix>
</trkpt>
<trkpt lat="-27.2702649" lon="151.2932454">
  <ele>343.0</ele>
  <time>2026-09-01T19:57:06Z</time>
  <course>68.25</course>
  <speed>4.995207703389319</speed>
  <fix>3d</fix>
</trkpt>
<trkpt lat="-27.2704595" lon="151.2929306">
  <ele>355.91</ele>
  <time>2026-09-01T19:57:06Z</time>
  <course>59.38</course>
  <speed>16.79161993376458</speed>
  <fix>3d</fix>
</trkpt>
<trkpt lat="-27.2704816" lon="151.2928885">
  <ele>355.63</ele>
  <time>2026-09-01T19:57:06Z</time>
  <course>59.11</course>
  <speed>16.95</speed>
  <fix>3d</fix>
</trkpt>
<trkpt lat="-27.2704516" lon="151.2929454">
  <ele>356.0</ele>
  <time>2026-09-01T19:57:06Z</time>
  <course>59.43</course>
  <speed>16.72820970695908</speed>
  <fix>3d</fix>
</trkpt>
<trkpt lat="-27.270466" lon="151.2929179">
  <ele>355.76</ele>
  <time>2026-09-01T19:57:06Z</time>
  <course>59.19</course>
  <speed>16.9</speed>
  <fix>3d</fix>
</trkpt>
<trkpt lat="-27.2702616" lon="151.2932548">
  <ele>343.0</ele>
  <time>2026-09-01T19:57:06Z</time>
  <course>68.37</course>
  <speed>4.991512796738079</speed>
  <fix>3d</fix>
</trkpt>
<trkpt lat="-27.2704439" lon="151.29296">
  <ele>356.11</ele>
  <time>2026-09-01T19:57:06Z</time>
  <course>59.48</course>
  <speed>16.651105068433147</speed>
  <fix>3d</fix>
</trkpt>
<trkpt lat="-27.270466" lon="151.2929179">
  <ele>355.76</ele>
  <time>2026-09-01T19:57:06Z</time>
  <course>59.19</course>
  <speed>16.9</speed>
  <fix>3d</fix>
</trkpt>
<trkpt lat="-27.2704363" lon="151.2929745">
  <ele>356.25</ele>
  <time>2026-09-01T19:57:06Z</time>
  <course>59.54</course>
  <speed>16.546618989993092</speed>
  <fix>3d</fix>
</trkpt>
<trkpt lat="-27.2704505" lon="151.2929472">
  <ele>355.93</ele>
  <time>2026-09-01T19:57:06Z</time>
  <course>59.28</course>
  <speed>16.8</speed>
  <fix>3d</fix>
</trkpt>
<trkpt lat="-27.2702583" lon="151.2932642">
  <ele>343.0</ele>
  <time>2026-09-01T19:57:06Z</time>
  <course>68.48</course>
  <speed>4.997139181571792</speed>
  <fix>3d</fix>
</trkpt>
<trkpt lat="-27.2704287" lon="151.2929889">
  <ele>356.41</ele>
  <time>2026-09-01T19:57:06Z</time>
  <course>59.6</course>
  <speed>16.41984774594454</speed>
  <fix>3d</fix>
</trkpt>
<trkpt lat="-27.2704505" lon="151.2929472">
  <ele>355.93</ele>
  <time>2026-09-01T19:57:06Z</time>
  <course>59.28</course>
  <speed>16.8</speed>
  <fix>3d</fix>
</trkpt>
<trkpt lat="-27.2704212" lon="151.2930032">
  <ele>356.58</ele>
  <time>2026-09-01T19:57:06Z</time>
  <course>59.66</course>
  <speed>16.270786705012146</speed>
  <fix>3d</fix>
</trkpt>
<trkpt lat="-27.2704353" lon="151.2929762">
  <ele>356.16</ele>
  <time>2026-09-01T19:57:06Z</time>
  <course>59.4</course>
  <speed>16.61</speed>
  <fix>3d</fix>
</trkpt>
<trkpt lat="-27.270255" lon="151.2932736">
  <ele>343.0</ele>
  <time>2026-09-01T19:57:06Z</time>
  <course>68.6</course>
  <speed>4.993485756463114</speed>
  <fix>3d</fix>
</trkpt>
<trkpt lat="-27.2704138" lon="151.2930174">
  <ele>356.77</ele>
  <time>2026-09-01T19:57:06Z</time>
  <course>59.72</course>
  <speed>16.108060094250952</speed>
  <fix>3d</fix>
</trkpt>
<trkpt lat="-27.2704353" lon="151.2929762">
  <ele>356.16</ele>
  <time>2026-09-01T19:57:06Z</time>
  <course>59.4</course>
  <speed>16.61</speed>
  <fix>3d</fix>
</trkpt>
<trkpt lat="-27.2704065" lon="151.2930314">
  <ele>356.98</ele>
  <time>2026-09-01T19:57:06Z</time>
  <course>59.79</course>
  <speed>15.928091536653096</speed>
  <fix>3d</fix>
</trkpt>
<trkpt lat="-27.2704202" lon="151.2930049">
  <ele>356.49</ele>
  <time>2026-09-01T19:57:06Z</time>
  <course>59.52</course>
  <speed>16.34</speed>
  <fix>3d</fix>
</trkpt>
<trkpt lat="-27.2702517" lon="151.2932831">
  <ele>343.0</ele>
  <time>2026-09-01T19:57:06Z</time>
  <course>68.71</course>
  <speed>4.989849697135175</speed>
  <fix>3d</fix>
</trkpt>
<trkpt lat="-27.2703993" lon="151.2930453">
  <ele>357.19</ele>
  <time>2026-09-01T19:57:06Z</time>
  <course>59.85</course>
  <speed>15.743090547919744</speed>
  <fix>3d</fix>
</trkpt>
<trkpt lat="-27.2704202" lon="151.2930049">
  <ele>356.49</ele>
  <time>2026-09-01T19:57:06Z</time>
  <course>59.52</course>
  <speed>16.34</speed>
  <fix>3d</fix>
</trkpt>
<trkpt lat="-27.2703921" lon="151.2930591">
  <ele>357.41</ele>
  <time>2026-09-01T19:57:06Z</time>
  <course>59.92</course>
  <speed>15.549469444325103</speed>
  <fix>3d</fix>
</trkpt>
<trkpt lat="-27.2704055" lon="151.2930332">
  <ele>356.88</ele>
  <time>2026-09-01T19:57:06Z</time>
  <course>59.65</course>
  <speed>16.0</speed>
  <fix>3d</fix>
</trkpt>
<trkpt lat="-27.2702485" lon="151.2932925">
  <ele>343.0</ele>
  <time>2026-09-01T19:57:06Z</time>
  <course>68.83</course>
  <speed>4.995558026887487</speed>
  <fix>3d</fix>
</trkpt>
<trkpt lat="-27.2703851" lon="151.2930726">
  <ele>357.62</ele>
  <time>2026-09-01T19:57:06Z</time>
  <course>59.98</course>
  <speed>15.347214731018784</speed>
  <fix>3d</fix>
</trkpt>
<trkpt lat="-27.2704055" lon="151.2930332">
  <ele>356.88</ele>
  <time>2026-09-01T19:57:06Z</time>
  <course>59.65</course>
  <speed>16.0</speed>
  <fix>3d</fix>
</trkpt>
<trkpt lat="-27.2703781" lon="151.2930862">
  <ele>357.82</ele>
  <time>2026-09-01T19:57:06Z</time>
  <course>60.05</course>
  <speed>15.148603896069103</speed>
  <fix>3d</fix>
</trkpt>
<trkpt lat="-27.2703911" lon="151.2930608">
  <ele>357.31</ele>
  <time>2026-09-01T19:57:06Z</time>
  <course>59.77</course>
  <speed>15.62</speed>
  <fix>3d</fix>
</trkpt>
<trkpt lat="-27.2702452" lon="151.2933019">
  <ele>343.0</ele>
  <time>2026-09-01T19:57:06Z</time>
  <course>68.94</course>
  <speed>4.991963541533532</speed>
  <fix>3d</fix>
</trkpt>
<trkpt lat="-27.2703713" lon="151.2930994">
  <ele>358.01</ele>
  <time>2026-09-01T19:57:06Z</time>
  <course>60.12</course>
  <speed>14.946370796952683</speed>
  <fix>3d</fix>
</trkpt>
<trkpt lat="-27.2703911" lon="151.2930608">
  <ele>357.31</ele>
  <time>2026-09-01T19:57:06Z</time>
  <course>59.77</course>
  <speed>15.62</speed>
  <fix>3d</fix>
</trkpt>
<trkpt lat="-27.2703646" lon="151.2931125">
  <ele>358.18</ele>
  <time>2026-09-01T19:57:06Z</time>
  <course>60.19</course>
  <speed>14.739148550713505</speed>
  <fix>3d</fix>
</trkpt>
<trkpt lat="-27.2703772" lon="151.2930878">
  <ele>357.72</ele>
  <time>2026-09-01T19:57:06Z</time>
  <course>59.89</course>
  <speed>15.21</speed>
  <fix>3d</fix>
</trkpt>
<trkpt lat="-27.270242" lon="151.2933113">
  <ele>343.0</ele>
  <time>2026-09-01T19:57:06Z</time>
  <course>69.06</course>
  <speed>4.988386512691253</speed>
  <fix>3d</fix>
</trkpt>
<trkpt lat="-27.270358" lon="151.2931254">
  <ele>358.34</ele>
  <time>2026-09-01T19:57:06Z</time>
  <course>60.26</course>
  <speed>14.536935715617648</speed>
  <fix>3d</fix>
</trkpt>
<trkpt lat="-27.2703772" lon="151.2930878">
  <ele>357.72</ele>
  <time>2026-09-01T19:57:06Z</time>
  <course>59.89</course>
  <speed>15.21</speed>
  <fix>3d</fix>
</trkpt>
<trkpt lat="-27.2703514" lon="151.2931381">
  <ele>358.48</ele>
  <time>2026-09-01T19:57:06Z</time>
  <course>60.34</course>
  <speed>14.343402664639934</speed>
  <fix>3d</fix>
</trkpt>
<trkpt lat="-27.2703637" lon="151.293114">
  <ele>358.08</ele>
  <time>2026-09-01T19:57:06Z</time>
  <course>60.02</course>
  <speed>14.8</speed>
  <fix>3d</fix>
</trkpt>
<trkpt lat="-27.2702388" lon="151.2933207">
  <ele>343.0</ele>
  <time>2026-09-01T19:57:06Z</time>
  <course>69.17</course>
  <speed>4.9941766088115065</speed>
  <fix>3d</fix>
</trkpt>
<trkpt lat="-27.270345" lon="151.2931507">
  <ele>358.6</ele>
  <time>2026-09-01T19:57:06Z</time>
  <course>60.42</course>
  <speed>14.149886925343255</speed>
  <fix>3d</fix>
</trkpt>
<trkpt lat="-27.2703637" lon="151.293114">
  <ele>358.08</ele>
  <time>2026-09-01T19:57:06Z</time>
  <course>60.02</course>
  <speed>14.8</speed>
  <fix>3d</fix>
</trkpt>
<trkpt lat="-27.2703387" lon="151.2931631">
  <ele>358.7</ele>
  <time>2026-09-01T19:57:06Z</time>
  <course>60.5</course>
  <speed>13.956389217845711</speed>
  <fix>3d</fix>
</trkpt>
<trkpt lat="-27.2703506" lon="151.2931396">
  <ele>358.38</ele>
  <time>2026-09-01T19:57:06Z</time>
  <course>60.15</course>
  <speed>14.4</speed>
  <fix>3d</fix>
</trkpt>
<trkpt lat="-27.2702356" lon="151.2933302">
  <ele>343.0</ele>
  <time>2026-09-01T19:57:06Z</time>
  <course>69.29</course>
  <speed>4.9906412413636785</speed>
  <fix>3d</fix>
</trkpt>
<trkpt lat="-27.2703325" lon="151.2931753">
  <ele>358.79</ele>
  <time>2026-09-01T19:57:06Z</time>
  <course>60.58</course>
  <speed>13.771601214092719</speed>
  <fix>3d</fix>
</trkpt>
<trkpt lat="-27.2703506" lon="151.2931396">
  <ele>358.38</ele>
  <time>2026-09-01T19:57:06Z</time>
  <course>60.15</course>
  <speed>14.4</speed>
  <fix>3d</fix>
</trkpt>
<trkpt lat="-27.2703264" lon="151.2931874">
  <ele>358.86</ele>
  <time>2026-09-01T19:57:06Z</time>
  <course>60.67</course>
  <speed>13.58684658042476</speed>
  <fix>3d</fix>
</trkpt>
<trkpt lat="-27.2703379" lon="151.2931645">
  <ele>358.6</ele>
  <time>2026-09-01T19:57:06Z</time>
  <course>60.29</course>
  <speed>14.0</speed>
  <fix>3d</fix>
</trkpt>
<trkpt lat="-27.2702325" lon="151.2933397">
  <ele>343.0</ele>
  <time>2026-09-01T19:57:06Z</time>
  <course>69.41</course>
  <speed>4.99648876712437</speed>
  <fix>3d</fix>
</trkpt>
<trkpt lat="-27.2703204" lon="151.2931993">
  <ele>358.93</ele>
  <time>2026-09-01T19:57:06Z</time>
  <course>60.76</course>
  <speed>13.388502530156238</speed>
  <fix>3d</fix>
</trkpt>
<trkpt lat="-27.2703379" lon="151.2931645">
  <ele>358.6</ele>
  <time>2026-09-01T19:57:06Z</time>
  <course>60.29</course>
  <speed>14.0</speed>
  <fix>3d</fix>
</trkpt>
<trkpt lat="-27.2703145" lon="151.2932111">
  <ele>359.01</ele>
  <time>2026-09-01T19:57:06Z</time>
  <course>60.87</course>
  <speed>13.190208489633513</speed>
  <fix>3d</fix>
</trkpt>
<trkpt lat="-27.2703257" lon="151.2931887">
  <ele>358.76</ele>
  <time>2026-09-01T19:57:06Z</time>
  <course>60.46</course>
  <speed>13.62</speed>
  <fix>3d</fix>
</trkpt>
<trkpt lat="-27.2702293" lon="151.2933492">
  <ele>343.0</ele>
  <time>2026-09-01T19:57:06Z</time>
  <course>69.52</course>
  <speed>4.992995093127972</speed>
  <fix>3d</fix>
</trkpt>
<trkpt lat="-27.2703087" lon="151.2932228">
  <ele>359.08</ele>
  <time>2026-09-01T19:57:06Z</time>
  <course>60.99</course>
  <speed>12.983239195208567</speed>
  <fix>3d</fix>
</trkpt>
<trkpt lat="-27.2703257" lon="151.2931887">
  <ele>358.76</ele>
  <time>2026-09-01T19:57:06Z</time>
  <course>60.46</course>
  <speed>13.62</speed>
  <fix>3d</fix>
</trkpt>
<trkpt lat="-27.270303" lon="151.2932343">
  <ele>359.16</ele>
  <time>2026-09-01T19:57:06Z</time>
  <course>61.12</course>
  <speed>12.785042041385706</speed>
  <fix>3d</fix>
</trkpt>
<trkpt lat="-27.2703138" lon="151.2932123">
  <ele>358.91</ele>
  <time>2026-09-01T19:57:06Z</time>
  <course>60.67</course>
  <speed>13.22</speed>
  <fix>3d</fix>
</trkpt>
<trkpt lat="-27.2702262" lon="151.2933586">
  <ele>343.0</ele>
  <time>2026-09-01T19:57:06Z</time>
  <course>69.64</course>
  <speed>4.989519014895123</speed>
  <fix>3d</fix>
</trkpt>
<trkpt lat="-27.2702974" lon="151.2932455">
  <ele>359.25</ele>
  <time>2026-09-01T19:57:06Z</time>
  <course>61.25</course>
  <speed>12.559717353507601</speed>
  <fix>3d</fix>
</trkpt>
<trkpt lat="-27.2703138" lon="151.2932123">
  <ele>358.91</ele>
  <time>2026-09-01T19:57:06Z</time>
  <course>60.67</course>
  <speed>13.22</speed>
  <fix>3d</fix>
</trkpt>
<trkpt lat="-27.270292" lon="151.2932566">
  <ele>359.34</ele>
  <time>2026-09-01T19:57:06Z</time>
  <course>61.39</course>
  <speed>12.339311163918348</speed>
  <fix>3d</fix>
</trkpt>
<trkpt lat="-27.2703024" lon="151.2932353">
  <ele>359.06</ele>
  <time>2026-09-01T19:57:06Z</time>
  <course>60.91</course>
  <speed>12.8</speed>
  <fix>3d</fix>
</trkpt>
<trkpt lat="-27.2702231" lon="151.2933681">
  <ele>343.0</ele>
  <time>2026-09-01T19:57:06Z</time>
  <course>69.75</course>
  <speed>4.998899878973373</speed>
  <fix>3d</fix>
</trkpt>
<trkpt lat="-27.2702867" lon="151.2932675">
  <ele>359.45</ele>
  <time>2026-09-01T19:57:06Z</time>
  <course>61.54</course>
  <speed>12.105391360877185</speed>
  <fix>3d</fix>
</trkpt>
<trkpt lat="-27.2703024" lon="151.2932353">
  <ele>359.06</ele>
  <time>2026-09-01T19:57:06Z</time>
  <course>60.91</course>
  <speed>12.8</speed>
  <fix>3d</fix>
</trkpt>
<trkpt lat="-27.2702814" lon="151.2932782">
  <ele>359.56</ele>
  <time>2026-09-01T19:57:06Z</time>
  <course>61.69</course>
  <speed>11.862769491143288</speed>
  <fix>3d</fix>
</trkpt>
<trkpt lat="-27.2702915" lon="151.2932576">
  <ele>359.24</ele>
  <time>2026-09-01T19:57:06Z</time>
  <course>61.18</course>
  <speed>12.36</speed>
  <fix>3d</fix>
</trkpt>
<trkpt lat="-27.27022" lon="151.2933776">
  <ele>343.0</ele>
  <time>2026-09-01T19:57:06Z</time>
  <course>69.87</course>
  <speed>4.9954479278639266</speed>
  <fix>3d</fix>
</trkpt>
<trkpt lat="-27.2702764" lon="151.2932887">
  <ele>359.67</ele>
  <time>2026-09-01T19:57:06Z</time>
  <course>61.85</course>
  <speed>11.615455221384998</speed>
  <fix>3d</fix>
</trkpt>
<trkpt lat="-27.2702915" lon="151.2932576">
  <ele>359.24</ele>
  <time>2026-09-01T19:57:06Z</time>
  <course>61.18</course>
  <speed>12.36</speed>
  <fix>3d</fix>
</trkpt>
<trkpt lat="-27.2702715" lon="151.293299">
  <ele>359.8</ele>
  <time>2026-09-01T19:57:06Z</time>
  <course>62.01</course>
  <speed>11.372985535909207</speed>
  <fix>3d</fix>
</trkpt>
<trkpt lat="-27.2702811" lon="151.293279">
  <ele>359.45</ele>
  <time>2026-09-01T19:57:06Z</time>
  <course>61.48</course>
  <speed>11.88</speed>
  <fix>3d</fix>
</trkpt>
<trkpt lat="-27.2702169" lon="151.2933871">
  <ele>343.0</ele>
  <time>2026-09-01T19:57:06Z</time>
  <course>69.98</course>
  <speed>4.9920136217762865</speed>
  <fix>3d</fix>
</trkpt>
<trkpt lat="-27.2702667" lon="151.2933091">
  <ele>359.92</ele>
  <time>2026-09-01T19:57:06Z</time>
  <course>62.19</course>
  <speed>11.117058963592845</speed>
  <fix>3d</fix>
</trkpt>
<trkpt lat="-27.2702811" lon="151.293279">
  <ele>359.45</ele>
  <time>2026-09-01T19:57:06Z</time>
  <course>61.48</course>
  <speed>11.88</speed>
  <fix>3d</fix>
</trkpt>
<trkpt lat="-27.270262" lon="151.293319">
  <ele>360.05</ele>
  <time>2026-09-01T19:57:06Z</time>
  <course>62.38</course>
  <speed>10.847718654168718</speed>
  <fix>3d</fix>
</trkpt>
<trkpt lat="-27.2702711" lon="151.2932998">
  <ele>359.68</ele>
  <time>2026-09-01T19:57:06Z</time>
  <course>61.8</course>
  <speed>11.38</speed>
  <fix>3d</fix>
</trkpt>
<trkpt lat="-27.2702138" lon="151.2933966">
  <ele>343.0</ele>
  <time>2026-09-01T19:57:06Z</time>
  <course>70.1</course>
  <speed>4.99799959983992</speed>
  <fix>3d</fix>
</trkpt>
<trkpt lat="-27.2702575" lon="151.2933286">
  <ele>360.19</ele>
  <time>2026-09-01T19:57:06Z</time>
  <course>62.57</course>
  <speed>10.578515963971507</speed>
  <fix>3d</fix>
</trkpt>
<trkpt lat="-27.2702711" lon="151.2932998">
  <ele>359.68</ele>
  <time>2026-09-01T19:57:06Z</time>
  <course>61.8</course>
  <speed>11.38</speed>
  <fix>3d</fix>
</trkpt>
<trkpt lat="-27.2702531" lon="151.293338">
  <ele>360.33</ele>
  <time>2026-09-01T19:57:06Z</time>
  <course>62.75</course>
  <speed>10.322945316139187</speed>
  <fix>3d</fix>
</trkpt>
<trkpt lat="-27.2702617" lon="151.2933196">
  <ele>359.94</ele>
  <time>2026-09-01T19:57:06Z</time>
  <course>62.17</course>
  <speed>10.86</speed>
  <fix>3d</fix>
</trkpt>
<trkpt lat="-27.2702108" lon="151.293406">
  <ele>343.0</ele>
  <time>2026-09-01T19:57:06Z</time>
  <course>70.21</course>
  <speed>4.9946070916539576</speed>
  <fix>3d</fix>
</trkpt>
<trkpt lat="-27.2702489" lon="151.2933472">
  <ele>360.46</ele>
  <time>2026-09-01T19:57:06Z</time>
  <course>62.92</course>
  <speed>10.072085186295835</speed>
  <fix>3d</fix>
</trkpt>
<trkpt lat="-27.2702617" lon="151.2933196">
  <ele>359.94</ele>
  <time>2026-09-01T19:57:06Z</time>
  <course>62.17</course>
  <speed>10.86</speed>
  <fix>3d</fix>
</trkpt>
<trkpt lat="-27.2702448" lon="151.2933562">
  <ele>360.59</ele>
  <time>2026-09-01T19:57:06Z</time>
  <course>63.08</course>
  <speed>9.839105650413558</speed>
  <fix>3d</fix>
</trkpt>
<trkpt lat="-27.2702529" lon="151.2933387">
  <ele>360.21</ele>
  <time>2026-09-01T19:57:06Z</time>
  <course>62.55</course>
  <speed>10.34</speed>
  <fix>3d</fix>
</trkpt>
<trkpt lat="-27.2702077" lon="151.2934155">
  <ele>343.0</ele>
  <time>2026-09-01T19:57:06Z</time>
  <course>70.33</course>
  <speed>4.991232312766057</speed>
  <fix>3d</fix>
</trkpt>
<trkpt lat="-27.2702408" lon="151.293365">
  <ele>360.7</ele>
  <time>2026-09-01T19:57:06Z</time>
  <course>63.24</course>
  <speed>9.624240229753203</speed>
  <fix>3d</fix>
</trkpt>
<trkpt lat="-27.2702529" lon="151.2933387">
  <ele>360.21</ele>
  <time>2026-09-01T19:57:06Z</time>
  <course>62.55</course>
  <speed>10.34</speed>
  <fix>3d</fix>
</trkpt>
<trkpt lat="-27.2702369" lon="151.2933737">
  <ele>360.8</ele>
  <time>2026-09-01T19:57:06Z</time>
  <course>63.38</course>
  <speed>9.431802584872099</speed>
  <fix>3d</fix>
</trkpt>
<trkpt lat="-27.2702445" lon="151.2933568">
  <ele>360.47</ele>
  <time>2026-09-01T19:57:06Z</time>
  <course>62.92</course>
  <speed>9.85</speed>
  <fix>3d</fix>
</trkpt>
<trkpt lat="-27.2702047" lon="151.2934251">
  <ele>343.0</ele>
  <time>2026-09-01T19:57:06Z</time>
  <course>70.44</course>
  <speed>4.997299270606074</speed>
  <fix>3d</fix>
</trkpt>
<trkpt lat="-27.2702331" lon="151.2933822">
  <ele>360.88</ele>
  <time>2026-09-01T19:57:06Z</time>
  <course>63.52</course>
  <speed>9.26179788162104</speed>
  <fix>3d</fix>
</trkpt>
<trkpt lat="-27.2702445" lon="151.2933568">
  <ele>360.47</ele>
  <time>2026-09-01T19:57:06Z</time>
  <course>62.92</course>
  <speed>9.85</speed>
  <fix>3d</fix>
</trkpt>
<trkpt lat="-27.2702294" lon="151.2933905">
  <ele>360.95</ele>
  <time>2026-09-01T19:57:06Z</time>
  <course>63.66</course>
  <speed>9.09632892984857</speed>
  <fix>3d</fix>
</trkpt>
<trkpt lat="-27.2702367" lon="151.2933742">
  <ele>360.68</ele>
  <time>2026-09-01T19:57:06Z</time>
  <course>63.25</course>
  <speed>9.44</speed>
  <fix>3d</fix>
</trkpt>
<trkpt lat="-27.2702017" lon="151.2934346">
  <ele>343.0</ele>
  <time>2026-09-01T19:57:06Z</time>
  <course>70.56</course>
  <speed>4.993966359518254</speed>
  <fix>3d</fix>
</trkpt>
<trkpt lat="-27.2702258" lon="151.2933987">
  <ele>360.99</ele>
  <time>2026-09-01T19:57:06Z</time>
  <course>63.79</course>
  <speed>8.957778742523171</speed>
  <fix>3d</fix>
</trkpt>
<trkpt lat="-27.2702367" lon="151.2933742">
  <ele>360.68</ele>
  <time>2026-09-01T19:57:06Z</time>
  <course>63.25</course>
  <speed>9.44</speed>
  <fix>3d</fix>
</trkpt>
<trkpt lat="-27.2702223" lon="151.2934068">
  <ele>361.01</ele>
  <time>2026-09-01T19:57:06Z</time>
  <course>63.91</course>
  <speed>8.828159491083065</speed>
  <fix>3d</fix>
</trkpt>
<trkpt lat="-27.2702292" lon="151.2933909">
  <ele>360.82</ele>
  <time>2026-09-01T19:57:06Z</time>
  <course>63.55</course>
  <speed>9.1</speed>
  <fix>3d</fix>
</trkpt>
<trkpt lat="-27.2701987" lon="151.2934442">
  <ele>343.0</ele>
  <time>2026-09-01T19:57:06Z</time>
  <course>70.68</course>
  <speed>4.99065126010624</speed>
  <fix>3d</fix>
</trkpt>
<trkpt lat="-27.2702188" lon="151.2934148">
  <ele>361.01</ele>
  <time>2026-09-01T19:57:06Z</time>
  <course>64.03</course>
  <speed>8.716524536763492</speed>
  <fix>3d</fix>
</trkpt>
<trkpt lat="-27.2702292" lon="151.2933909">
  <ele>360.82</ele>
  <time>2026-09-01T19:57:06Z</time>
  <course>63.55</course>
  <speed>9.1</speed>
  <fix>3d</fix>
</trkpt>
<trkpt lat="-27.2702153" lon="151.2934228">
  <ele>361.0</ele>
  <time>2026-09-01T19:57:06Z</time>
  <course>64.14</course>
  <speed>8.627311284519644</speed>
  <fix>3d</fix>
</trkpt>
<trkpt lat="-27.2702221" lon="151.2934072">
  <ele>360.89</ele>
  <time>2026-09-01T19:57:06Z</time>
  <course>63.84</course>
  <speed>8.83</speed>
  <fix>3d</fix>
</trkpt>
<trkpt lat="-27.2701958" lon="151.2934537">
  <ele>343.0</ele>
  <time>2026-09-01T19:57:07Z</time>
  <course>70.79</course>
  <speed>4.996798975344115</speed>
  <fix>3d</fix>
</trkpt>
<trkpt lat="-27.270212" lon="151.2934306">
  <ele>360.96</ele>
  <time>2026-09-01T19:57:07Z</time>
  <course>64.25</course>
  <speed>8.551514485750463</speed>
  <fix>3d</fix>
</trkpt>
<trkpt lat="-27.2702221" lon="151.2934072">
  <ele>360.89</ele>
  <time>2026-09-01T19:57:07Z</time>
  <course>63.84</course>
  <speed>8.83</speed>
  <fix>3d</fix>
</trkpt>
<trkpt lat="-27.2702086" lon="151.2934384">
  <ele>360.91</ele>
  <time>2026-09-01T19:57:07Z</time>
  <course>64.37</course>
  <speed>8.484774599245403</speed>
  <fix>3d</fix>
</trkpt>
<trkpt lat="-27.2702152" lon="151.293423">
  <ele>360.88</ele>
  <time>2026-09-01T19:57:07Z</time>
  <course>64.1</course>
  <speed>8.62</speed>
  <fix>3d</fix>
</trkpt>
<trkpt lat="-27.2701928" lon="151.2934633">
  <ele>343.0</ele>
  <time>2026-09-01T19:57:07Z</time>
  <course>70.91</course>
  <speed>4.993525808484422</speed>
  <fix>3d</fix>
</trkpt>
<trkpt lat="-27.2702053" lon="151.2934461">
  <ele>360.84</ele>
  <time>2026-09-01T19:57:07Z</time>
  <course>64.49</course>
  <speed>8.431429297574642</speed>
  <fix>3d</fix>
</trkpt>
<trkpt lat="-27.2702152" lon="151.293423">
  <ele>360.88</ele>
  <time>2026-09-01T19:57:07Z</time>
  <course>64.1</course>
  <speed>8.62</speed>
  <fix>3d</fix>
</trkpt>
<trkpt lat="-27.2702021" lon="151.2934538">
  <ele>360.77</ele>
  <time>2026-09-01T19:57:07Z</time>
  <course>64.62</course>
  <speed>8.378126282170733</speed>
  <fix>3d</fix>
</trkpt>
<trkpt lat="-27.2702085" lon="151.2934386">
  <ele>360.8</ele>
  <time>2026-09-01T19:57:07Z</time>
  <course>64.36</course>
  <speed>8.47</speed>
  <fix>3d</fix>
</trkpt>
<trkpt lat="-27.2701899" lon="151.2934728">
  <ele>343.0</ele>
  <time>2026-09-01T19:57:07Z</time>
  <course>71.02</course>
  <speed>4.990270533748646</speed>
  <fix>3d</fix>
</trkpt>
<trkpt lat="-27.2701989" lon="151.2934614">
  <ele>360.68</ele>
  <time>2026-09-01T19:57:07Z</time>
  <course>64.76</course>
  <speed>8.33391264653044</speed>
  <fix>3d</fix>
</trkpt>
<trkpt lat="-27.2702085" lon="151.2934386">
  <ele>360.8</ele>
  <time>2026-09-01T19:57:07Z</time>
  <course>64.36</course>
  <speed>8.47</speed>
  <fix>3d</fix>
</trkpt>
<trkpt lat="-27.2701957" lon="151.2934691">
  <ele>360.6</ele>
  <time>2026-09-01T19:57:07Z</time>
  <course>64.91</course>
  <speed>8.285535589206047</speed>
  <fix>3d</fix>
</trkpt>
<trkpt lat="-27.2702021" lon="151.2934539">
  <ele>360.65</ele>
  <time>2026-09-01T19:57:07Z</time>
  <course>64.64</course>
  <speed>8.36</speed>
  <fix>3d</fix>
</trkpt>
<trkpt lat="-27.270187" lon="151.2934824">
  <ele>343.0</ele>
  <time>2026-09-01T19:57:07Z</time>
  <course>71.14</course>
  <speed>4.996498774141749</speed>
  <fix>3d</fix>
</trkpt>
<trkpt lat="-27.2701926" lon="151.2934766">
  <ele>360.51</ele>
  <time>2026-09-01T19:57:07Z</time>
  <course>65.07</course>
  <speed>8.228207581241493</speed>
  <fix>3d</fix>
</trkpt>
<trkpt lat="-27.2702021" lon="151.2934539">
  <ele>360.65</ele>
  <time>2026-09-01T19:57:07Z</time>
  <course>64.64</course>
  <speed>8.36</speed>
  <fix>3d</fix>
</trkpt>
<trkpt lat="-27.2701895" lon="151.2934842">
  <ele>360.43</ele>
  <time>2026-09-01T19:57:07Z</time>
  <course>65.25</course>
  <speed>8.170979133494345</speed>
  <fix>3d</fix>
</trkpt>
<trkpt lat="-27.2701957" lon="151.2934692">
  <ele>360.49</ele>
  <time>2026-09-01T19:57:07Z</time>
  <course>64.97</course>
  <speed>8.27</speed>
  <fix>3d</fix>
</trkpt>
<trkpt lat="-27.2701841" lon="151.293492">
  <ele>343.0</ele>
  <time>2026-09-01T19:57:07Z</time>
  <course>71.25</course>
  <speed>4.993285491537611</speed>
  <fix>3d</fix>
</trkpt>
<trkpt lat="-27.2701865" lon="151.2934917">
  <ele>360.35</ele>
  <time>2026-09-01T19:57:07Z</time>
  <course>65.44</course>
  <speed>8.113852352612783</speed>
  <fix>3d</fix>
</trkpt>
<trkpt lat="-27.2701957" lon="151.2934692">
  <ele>360.49</ele>
  <time>2026-09-01T19:57:07Z</time>
  <course>64.97</course>
  <speed>8.27</speed>
  <fix>3d</fix>
</trkpt>
<trkpt lat="-27.2701835" lon="151.2934991">
  <ele>360.27</ele>
  <time>2026-09-01T19:57:07Z</time>
  <course>65.64</course>
  <speed>8.04361237255998</speed>
  <fix>3d</fix>
</trkpt>
<trkpt lat="-27.2701895" lon="151.2934843">
  <ele>360.33</ele>
  <time>2026-09-01T19:57:07Z</time>
  <course>65.35</course>
  <speed>8.16</speed>
  <fix>3d</fix>
</trkpt>
<trkpt lat="-27.2701812" lon="151.2935015">
  <ele>343.0</ele>
  <time>2026-09-01T19:57:07Z</time>
  <course>71.37</course>
  <speed>4.990090179545857</speed>
  <fix>3d</fix>
</trkpt>
<trkpt lat="-27.2701806" lon="151.2935065">
  <ele>360.2</ele>
  <time>2026-09-01T19:57:07Z</time>
  <course>65.84</course>
  <speed>7.964376937337911</speed>
  <fix>3d</fix>
</trkpt>
<trkpt lat="-27.2701895" lon="151.2934843">
  <ele>360.33</ele>
  <time>2026-09-01T19:57:07Z</time>
  <course>65.35</course>
  <speed>8.16</speed>
  <fix>3d</fix>
</trkpt>
<trkpt lat="-27.2701777" lon="151.2935138">
  <ele>360.13</ele>
  <time>2026-09-01T19:57:07Z</time>
  <course>66.05</course>
  <speed>7.8852583977952175</speed>
  <fix>3d</fix>
</trkpt>
<trkpt lat="-27.2701835" lon="151.2934991">
  <ele>360.18</ele>
  <time>2026-09-01T19:57:07Z</time>
  <course>65.76</course>
  <speed>8.03</speed>
  <fix>3d</fix>
</trkpt>
<trkpt lat="-27.2701783" lon="151.2935111">
  <ele>343.0</ele>
  <time>2026-09-01T19:57:07Z</time>
  <course>71.48</course>
  <speed>4.996398703066039</speed>
  <fix>3d</fix>
</trkpt>
<trkpt lat="-27.2701749" lon="151.2935211">
  <ele>360.06</ele>
  <time>2026-09-01T19:57:07Z</time>
  <course>66.25</course>
  <speed>7.79310592767736</speed>
  <fix>3d</fix>
</trkpt>
<trkpt lat="-27.2701835" lon="151.2934991">
  <ele>360.18</ele>
  <time>2026-09-01T19:57:07Z</time>
  <course>65.76</course>
  <speed>8.03</speed>
  <fix>3d</fix>
</trkpt>
<trkpt lat="-27.2701721" lon="151.2935283">
  <ele>360.0</ele>
  <time>2026-09-01T19:57:07Z</time>
  <course>66.45</course>
  <speed>7.70506327034373</speed>
  <fix>3d</fix>
</trkpt>
<trkpt lat="-27.2701776" lon="151.2935138">
  <ele>360.04</ele>
  <time>2026-09-01T19:57:07Z</time>
  <course>66.21</course>
  <speed>7.87</speed>
  <fix>3d</fix>
</trkpt>
<trkpt lat="-27.2701755" lon="151.2935206">
  <ele>343.0</ele>
  <time>2026-09-01T19:57:07Z</time>
  <course>71.6</course>
  <speed>4.993245437588663</speed>
  <fix>3d</fix>
</trkpt>
<trkpt lat="-27.2701694" lon="151.2935354">
  <ele>359.94</ele>
  <time>2026-09-01T19:57:07Z</time>
  <course>66.65</course>
  <speed>7.613212199853621</speed>
  <fix>3d</fix>
</trkpt>
<trkpt lat="-27.2701776" lon="151.2935138">
  <ele>360.04</ele>
  <time>2026-09-01T19:57:07Z</time>
  <course>66.21</course>
  <speed>7.87</speed>
  <fix>3d</fix>
</trkpt>
<trkpt lat="-27.2701668" lon="151.2935424">
  <ele>359.87</ele>
  <time>2026-09-01T19:57:07Z</time>
  <course>66.84</course>
  <speed>7.521542395014469</speed>
  <fix>3d</fix>
</trkpt>
<trkpt lat="-27.2701721" lon="151.2935282">
  <ele>359.91</ele>
  <time>2026-09-01T19:57:07Z</time>
  <course>66.68</course>
  <speed>7.7</speed>
  <fix>3d</fix>
</trkpt>
<trkpt lat="-27.2701727" lon="151.2935302">
  <ele>343.0</ele>
  <time>2026-09-01T19:57:07Z</time>
  <course>71.71</course>
  <speed>4.99011021922362</speed>
  <fix>3d</fix>
</trkpt>
<trkpt lat="-27.2701642" lon="151.2935494">
  <ele>359.81</ele>
  <time>2026-09-01T19:57:07Z</time>
  <course>67.03</course>
  <speed>7.4246346711471265</speed>
  <fix>3d</fix>
</trkpt>
<trkpt lat="-27.2701721" lon="151.2935282">
  <ele>359.91</ele>
  <time>2026-09-01T19:57:07Z</time>
  <course>66.68</course>
  <speed>7.7</speed>
  <fix>3d</fix>
</trkpt>
<trkpt lat="-27.2701617" lon="151.2935563">
  <ele>359.75</ele>
  <time>2026-09-01T19:57:07Z</time>
  <course>67.2</course>
  <speed>7.333280302838561</speed>
  <fix>3d</fix>
</trkpt>
<trkpt lat="-27.2701667" lon="151.2935423">
  <ele>359.8</ele>
  <time>2026-09-01T19:57:07Z</time>
  <course>67.17</course>
  <speed>7.52</speed>
  <fix>3d</fix>
</trkpt>
<trkpt lat="-27.2701698" lon="151.2935399">
  <ele>343.0</ele>
  <time>2026-09-01T19:57:07Z</time>
  <course>71.83</course>
  <speed>4.996498774141749</speed>
  <fix>3d</fix>
</trkpt>
<trkpt lat="-27.2701592" lon="151.2935631">
  <ele>359.69</ele>
  <time>2026-09-01T19:57:07Z</time>
  <course>67.38</course>
  <speed>7.242126759454021</speed>
  <fix>3d</fix>
</trkpt>
<trkpt lat="-27.2701667" lon="151.2935423">
  <ele>359.8</ele>
  <time>2026-09-01T19:57:07Z</time>
  <course>67.17</course>
  <speed>7.52</speed>
  <fix>3d</fix>
</trkpt>
<trkpt lat="-27.2701568" lon="151.2935698">
  <ele>359.62</ele>
  <time>2026-09-01T19:57:07Z</time>
  <course>67.55</course>
  <speed>7.15486547742164</speed>
  <fix>3d</fix>
</trkpt>
<trkpt lat="-27.2701616" lon="151.2935562">
  <ele>359.68</ele>
  <time>2026-09-01T19:57:07Z</time>
  <course>67.68</course>
  <speed>7.33</speed>
  <fix>3d</fix>
</trkpt>
<trkpt lat="-27.2701671" lon="151.2935495">
  <ele>343.0</ele>
  <time>2026-09-01T19:57:07Z</time>
  <course>71.94</course>
  <speed>4.993405651456729</speed>
  <fix>3d</fix>
</trkpt>
<trkpt lat="-27.2701545" lon="151.2935765">
  <ele>359.56</ele>
  <time>2026-09-01T19:57:07Z</time>
  <course>67.72</course>
  <speed>7.067729479825894</speed>
  <fix>3d</fix>
</trkpt>
<trkpt lat="-27.2701616" lon="151.2935562">
  <ele>359.68</ele>
  <time>2026-09-01T19:57:07Z</time>
  <course>67.68</course>
  <speed>7.33</speed>
  <fix>3d</fix>
</trkpt>
<trkpt lat="-27.2701522" lon="151.2935831">
  <ele>359.49</ele>
  <time>2026-09-01T19:57:07Z</time>
  <course>67.89</course>
  <speed>6.9807234582097575</speed>
  <fix>3d</fix>
</trkpt>
<trkpt lat="-27.2701567" lon="151.2935698">
  <ele>359.55</ele>
  <time>2026-09-01T19:57:07Z</time>
  <course>68.19</course>
  <speed>7.15</speed>
  <fix>3d</fix>
</trkpt>
<trkpt lat="-27.2701643" lon="151.2935591">
  <ele>343.0</ele>
  <time>2026-09-01T19:57:07Z</time>
  <course>72.06</course>
  <speed>4.99033065036777</speed>
  <fix>3d</fix>
</trkpt>
<trkpt lat="-27.2701499" lon="151.2935896">
  <ele>359.42</ele>
  <time>2026-09-01T19:57:07Z</time>
  <course>68.06</course>
  <speed>6.903194912502471</speed>
  <fix>3d</fix>
</trkpt>
<trkpt lat="-27.2701567" lon="151.2935698">
  <ele>359.55</ele>
  <time>2026-09-01T19:57:07Z</time>
  <course>68.19</course>
  <speed>7.15</speed>
  <fix>3d</fix>
</trkpt>
<trkpt lat="-27.2701477" lon="151.2935962">
  <ele>359.34</ele>
  <time>2026-09-01T19:57:07Z</time>
  <course>68.23</course>
  <speed>6.816480030044833</speed>
  <fix>3d</fix>
</trkpt>
<trkpt lat="-27.270152" lon="151.2935831">
  <ele>359.41</ele>
  <time>2026-09-01T19:57:07Z</time>
  <course>68.7</course>
  <speed>6.98</speed>
  <fix>3d</fix>
</trkpt>
<trkpt lat="-27.2701615" lon="151.2935687">
  <ele>343.0</ele>
  <time>2026-09-01T19:57:07Z</time>
  <course>72.18</course>
  <speed>4.999849997749933</speed>
  <fix>3d</fix>
</trkpt>
<trkpt lat="-27.2701455" lon="151.2936026">
  <ele>359.26</ele>
  <time>2026-09-01T19:57:07Z</time>
  <course>68.39</course>
  <speed>6.739287796199239</speed>
  <fix>3d</fix>
</trkpt>
<trkpt lat="-27.270152" lon="151.2935831">
  <ele>359.41</ele>
  <time>2026-09-01T19:57:07Z</time>
  <course>68.7</course>
  <speed>6.98</speed>
  <fix>3d</fix>
</trkpt>
<trkpt lat="-27.2701435" lon="151.2936089">
  <ele>359.18</ele>
  <time>2026-09-01T19:57:07Z</time>
  <course>68.56</course>
  <speed>6.662281891364249</speed>
  <fix>3d</fix>
</trkpt>
<trkpt lat="-27.2701476" lon="151.2935961">
  <ele>359.27</ele>
  <time>2026-09-01T19:57:07Z</time>
  <course>69.22</course>
  <speed>6.82</speed>
  <fix>3d</fix>
</trkpt>
<trkpt lat="-27.2701588" lon="151.2935784">
  <ele>343.0</ele>
  <time>2026-09-01T19:57:07Z</time>
  <course>72.29</course>
  <speed>4.996798975344115</speed>
  <fix>3d</fix>
</trkpt>
<trkpt lat="-27.2701414" lon="151.2936152">
  <ele>359.09</ele>
  <time>2026-09-01T19:57:07Z</time>
  <course>68.73</course>
  <speed>6.588846636551803</speed>
  <fix>3d</fix>
</trkpt>
<trkpt lat="-27.2701476" lon="151.2935961">
  <ele>359.27</ele>
  <time>2026-09-01T19:57:07Z</time>
  <course>69.22</course>
  <speed>6.82</speed>
  <fix>3d</fix>
</trkpt>
<trkpt lat="-27.2701394" lon="151.2936214">
  <ele>358.99</ele>
  <time>2026-09-01T19:57:07Z</time>
  <course>68.9</course>
  <speed>6.515519933205638</speed>
  <fix>3d</fix>
</trkpt>
<trkpt lat="-27.2701433" lon="151.2936089">
  <ele>359.11</ele>
  <time>2026-09-01T19:57:07Z</time>
  <course>69.74</course>
  <speed>6.67</speed>
  <fix>3d</fix>
</trkpt>
<trkpt lat="-27.2701561" lon="151.293588">
  <ele>343.0</ele>
  <time>2026-09-01T19:57:07Z</time>
  <course>72.41</course>
  <speed>4.993766113866368</speed>
  <fix>3d</fix>
</trkpt>
<trkpt lat="-27.2701375" lon="151.2936275">
  <ele>358.89</ele>
  <time>2026-09-01T19:57:07Z</time>
  <course>69.07</course>
  <speed>6.442305487944513</speed>
  <fix>3d</fix>
</trkpt>
<trkpt lat="-27.2701433" lon="151.2936089">
  <ele>359.11</ele>
  <time>2026-09-01T19:57:07Z</time>
  <course>69.74</course>
  <speed>6.67</speed>
  <fix>3d</fix>
</trkpt>
<trkpt lat="-27.2701356" lon="151.2936336">
  <ele>358.76</ele>
  <time>2026-09-01T19:57:07Z</time>
  <course>69.25</course>
  <speed>6.309239256835962</speed>
  <fix>3d</fix>
</trkpt>
<trkpt lat="-27.2701392" lon="151.2936215">
  <ele>358.93</ele>
  <time>2026-09-01T19:57:07Z</time>
  <course>70.24</course>
  <speed>6.53</speed>
  <fix>3d</fix>
</trkpt>
<trkpt lat="-27.2701534" lon="151.2935976">
  <ele>343.0</ele>
  <time>2026-09-01T19:57:07Z</time>
  <course>72.52</course>
  <speed>4.990751446425678</speed>
  <fix>3d</fix>
</trkpt>
<trkpt lat="-27.2701338" lon="151.2936395">
  <ele>358.57</ele>
  <time>2026-09-01T19:57:07Z</time>
  <course>69.44</course>
  <speed>6.075170779492541</speed>
  <fix>3d</fix>
</trkpt>
<trkpt lat="-27.2701392" lon="151.2936215">
  <ele>358.93</ele>
  <time>2026-09-01T19:57:07Z</time>
  <course>70.24</course>
  <speed>6.53</speed>
  <fix>3d</fix>
</trkpt>
<trkpt lat="-27.270132" lon="151.2936451">
  <ele>358.31</ele>
  <time>2026-09-01T19:57:07Z</time>
  <course>69.62</course>
  <speed>5.796766339951956</speed>
  <fix>3d</fix>
</trkpt>
<trkpt lat="-27.2701354" lon="151.2936338">
  <ele>358.67</ele>
  <time>2026-09-01T19:57:07Z</time>
  <course>70.58</course>
  <speed>6.28</speed>
  <fix>3d</fix>
</trkpt>
<trkpt lat="-27.2701507" lon="151.2936073">
  <ele>343.0</ele>
  <time>2026-09-01T19:57:07Z</time>
  <course>72.64</course>
  <speed>4.997299270606074</speed>
  <fix>3d</fix>
</trkpt>
<trkpt lat="-27.2701304" lon="151.2936505">
  <ele>358.0</ele>
  <time>2026-09-01T19:57:07Z</time>
  <course>69.74</course>
  <speed>5.483520766806668</speed>
  <fix>3d</fix>
</trkpt>
<trkpt lat="-27.2701354" lon="151.2936338">
  <ele>358.67</ele>
  <time>2026-09-01T19:57:07Z</time>
  <course>70.58</course>
  <speed>6.28</speed>
  <fix>3d</fix>
</trkpt>
<trkpt lat="-27.2701288" lon="151.2936556">
  <ele>357.65</ele>
  <time>2026-09-01T19:57:07Z</time>
  <course>69.71</course>
  <speed>5.138725522928813</speed>
  <fix>3d</fix>
</trkpt>
<trkpt lat="-27.2701318" lon="151.2936453">
  <ele>358.23</ele>
  <time>2026-09-01T19:57:07Z</time>
  <course>70.81</course>
  <speed>5.81</speed>
  <fix>3d</fix>
</trkpt>
<trkpt lat="-27.270148" lon="151.2936169">
  <ele>343.0</ele>
  <time>2026-09-01T19:57:07Z</time>
  <course>72.75</course>
  <speed>4.994326781459139</speed>
  <fix>3d</fix>
</trkpt>
<trkpt lat="-27.2701274" lon="151.2936603">
  <ele>357.27</ele>
  <time>2026-09-01T19:57:07Z</time>
  <course>69.5</course>
  <speed>4.7908767464838835</speed>
  <fix>3d</fix>
</trkpt>
<trkpt lat="-27.2701318" lon="151.2936453">
  <ele>358.23</ele>
  <time>2026-09-01T19:57:07Z</time>
  <course>70.81</course>
  <speed>5.81</speed>
  <fix>3d</fix>
</trkpt>
<trkpt lat="-27.2701261" lon="151.2936647">
  <ele>356.89</ele>
  <time>2026-09-01T19:57:07Z</time>
  <course>69.13</course>
  <speed>4.462297614458274</speed>
  <fix>3d</fix>
</trkpt>
<trkpt lat="-27.2701286" lon="151.2936558">
  <ele>357.59</ele>
  <time>2026-09-01T19:57:07Z</time>
  <course>71.24</course>
  <speed>5.17</speed>
  <fix>3d</fix>
</trkpt>
<trkpt lat="-27.2701454" lon="151.2936265">
  <ele>343.0</ele>
  <time>2026-09-01T19:57:07Z</time>
  <course>72.87</course>
  <speed>4.991372556722249</speed>
  <fix>3d</fix>
</trkpt>
<trkpt lat="-27.2701249" lon="151.2936689">
  <ele>356.51</ele>
  <time>2026-09-01T19:57:07Z</time>
  <course>68.63</course>
  <speed>4.159146547069483</speed>
  <fix>3d</fix>
</trkpt>
<trkpt lat="-27.2701286" lon="151.2936558">
  <ele>357.59</ele>
  <time>2026-09-01T19:57:07Z</time>
  <course>71.24</course>
  <speed>5.17</speed>
  <fix>3d</fix>
</trkpt>
<trkpt lat="-27.2701238" lon="151.2936728">
  <ele>356.13</ele>
  <time>2026-09-01T19:57:07Z</time>
  <course>68.03</course>
  <speed>3.897409395996269</speed>
  <fix>3d</fix>
</trkpt>
<trkpt lat="-27.2701258" lon="151.2936651">
  <ele>356.85</ele>
  <time>2026-09-01T19:57:07Z</time>
  <course>71.96</course>
  <speed>4.51</speed>
  <fix>3d</fix>
</trkpt>
<trkpt lat="-27.2701427" lon="151.2936361">
  <ele>343.0</ele>
  <time>2026-09-01T19:57:07Z</time>
  <course>72.98</course>
  <speed>4.99799959983992</speed>
  <fix>3d</fix>
</trkpt>
<trkpt lat="-27.2701228" lon="151.2936765">
  <ele>355.76</ele>
  <time>2026-09-01T19:57:07Z</time>
  <course>67.37</course>
  <speed>3.6800135869314397</speed>
  <fix>3d</fix>
</trkpt>
<trkpt lat="-27.2701258" lon="151.2936651">
  <ele>356.85</ele>
  <time>2026-09-01T19:57:07Z</time>
  <course>71.96</course>
  <speed>4.51</speed>
  <fix>3d</fix>
</trkpt>
<trkpt lat="-27.2701219" lon="151.29368">
  <ele>355.41</ele>
  <time>2026-09-01T19:57:07Z</time>
  <course>66.69</course>
  <speed>3.504069063246328</speed>
  <fix>3d</fix>
</trkpt>
<trkpt lat="-27.2701235" lon="151.2936733">
  <ele>356.09</ele>
  <time>2026-09-01T19:57:07Z</time>
  <course>72.84</course>
  <speed>3.95</speed>
  <fix>3d</fix>
</trkpt>
<trkpt lat="-27.2701401" lon="151.2936458">
  <ele>343.0</ele>
  <time>2026-09-01T19:57:07Z</time>
  <course>73.1</course>
  <speed>4.9950875868196745</speed>
  <fix>3d</fix>
</trkpt>
<trkpt lat="-27.270121" lon="151.2936833">
  <ele>355.08</ele>
  <time>2026-09-01T19:57:07Z</time>
  <course>66.04</course>
  <speed>3.362677504608493</speed>
  <fix>3d</fix>
</trkpt>
<trkpt lat="-27.2701235" lon="151.2936733">
  <ele>356.09</ele>
  <time>2026-09-01T19:57:07Z</time>
  <course>72.84</course>
  <speed>3.95</speed>
  <fix>3d</fix>
</trkpt>
<trkpt lat="-27.2701202" lon="151.2936866">
  <ele>354.78</ele>
  <time>2026-09-01T19:57:07Z</time>
  <course>65.44</course>
  <speed>3.253013987058771</speed>
  <fix>3d</fix>
</trkpt>
<trkpt lat="-27.2701216" lon="151.2936805">
  <ele>355.38</ele>
  <time>2026-09-01T19:57:07Z</time>
  <course>73.71</course>
  <speed>3.55</speed>
  <fix>3d</fix>
</trkpt>
<trkpt lat="-27.2701375" lon="151.2936555">
  <ele>343.0</ele>
  <time>2026-09-01T19:57:07Z</time>
  <course>73.21</course>
  <speed>4.992193906490412</speed>
  <fix>3d</fix>
</trkpt>
<trkpt lat="-27.2701195" lon="151.2936897">
  <ele>354.5</ele>
  <time>2026-09-01T19:57:07Z</time>
  <course>64.92</course>
  <speed>3.175059054568907</speed>
  <fix>3d</fix>
</trkpt>
<trkpt lat="-27.2701216" lon="151.2936805">
  <ele>355.38</ele>
  <time>2026-09-01T19:57:07Z</time>
  <course>73.71</course>
  <speed>3.55</speed>
  <fix>3d</fix>
</trkpt>
<trkpt lat="-27.2701187" lon="151.2936928">
  <ele>354.25</ele>
  <time>2026-09-01T19:57:07Z</time>
  <course>64.51</course>
  <speed>3.121618170116262</speed>
  <fix>3d</fix>
</trkpt>
<trkpt lat="-27.2701199" lon="151.2936871">
  <ele>354.76</ele>
  <time>2026-09-01T19:57:07Z</time>
  <course>74.43</course>
  <speed>3.29</speed>
  <fix>3d</fix>
</trkpt>
<trkpt lat="-27.2701349" lon="151.2936652">
  <ele>343.0</ele>
  <time>2026-09-01T19:57:07Z</time>
  <course>73.33</course>
  <speed>4.989318590749643</speed>
  <fix>3d</fix>
</trkpt>
<trkpt lat="-27.270118" lon="151.2936959">
  <ele>354.03</ele>
  <time>2026-09-01T19:57:07Z</time>
  <course>64.2</course>
  <speed>3.0972407074685044</speed>
  <fix>3d</fix>
</trkpt>
<trkpt lat="-27.2701199" lon="151.2936871">
  <ele>354.76</ele>
  <time>2026-09-01T19:57:07Z</time>
  <course>74.43</course>
  <speed>3.29</speed>
  <fix>3d</fix>
</trkpt>
<trkpt lat="-27.2701173" lon="151.293699">
  <ele>353.83</ele>
  <time>2026-09-01T19:57:07Z</time>
  <course>63.99</course>
  <speed>3.094769781421552</speed>
  <fix>3d</fix>
</trkpt>
<trkpt lat="-27.2701184" lon="151.2936934">
  <ele>354.23</ele>
  <time>2026-09-01T19:57:07Z</time>
  <course>74.98</course>
  <speed>3.16</speed>
  <fix>3d</fix>
</trkpt>
<trkpt lat="-27.2701324" lon="151.2936749">
  <ele>343.0</ele>
  <time>2026-09-01T19:57:07Z</time>
  <course>73.44</course>
  <speed>4.996048438516184</speed>
  <fix>3d</fix>
</trkpt>
<trkpt lat="-27.2701165" lon="151.2937021">
  <ele>353.67</ele>
  <time>2026-09-01T19:57:07Z</time>
  <course>63.84</course>
  <speed>3.1772314992773185</speed>
  <fix>3d</fix>
</trkpt>
<trkpt lat="-27.2701184" lon="151.2936934">
  <ele>354.23</ele>
  <time>2026-09-01T19:57:07Z</time>
  <course>74.98</course>
  <speed>3.16</speed>
  <fix>3d</fix>
</trkpt>
<trkpt lat="-27.2701158" lon="151.2937053">
  <ele>353.54</ele>
  <time>2026-09-01T19:57:07Z</time>
  <course>63.76</course>
  <speed>3.271849629796577</speed>
  <fix>3d</fix>
</trkpt>
<trkpt lat="-27.270117" lon="151.2936995">
  <ele>353.82</ele>
  <time>2026-09-01T19:57:07Z</time>
  <course>75.23</course>
  <speed>3.16</speed>
  <fix>3d</fix>
</trkpt>
<trkpt lat="-27.2701298" lon="151.2936847">
  <ele>343.0</ele>
  <time>2026-09-01T19:57:07Z</time>
  <course>73.56</course>
  <speed>4.993215396916099</speed>
  <fix>3d</fix>
</trkpt>
<trkpt lat="-27.270115" lon="151.2937086">
  <ele>353.43</ele>
  <time>2026-09-01T19:57:07Z</time>
  <course>63.74</course>
  <speed>3.334936281250363</speed>
  <fix>3d</fix>
</trkpt>
<trkpt lat="-27.270117" lon="151.2936995">
  <ele>353.82</ele>
  <time>2026-09-01T19:57:07Z</time>
  <course>75.23</course>
  <speed>3.16</speed>
  <fix>3d</fix>
</trkpt>
<trkpt lat="-27.2701142" lon="151.2937119">
  <ele>353.35</ele>
  <time>2026-09-01T19:57:07Z</time>
  <course>63.75</course>
  <speed>3.3980288403720182</speed>
  <fix>3d</fix>
</trkpt>
<trkpt lat="-27.2701154" lon="151.2937058">
  <ele>353.52</ele>
  <time>2026-09-01T19:57:07Z</time>
  <course>75.14</course>
  <speed>3.28</speed>
  <fix>3d</fix>
</trkpt>
<trkpt lat="-27.2701273" lon="151.2936944">
  <ele>343.0</ele>
  <time>2026-09-01T19:57:07Z</time>
  <course>73.68</course>
  <speed>4.990400785508114</speed>
  <fix>3d</fix>
</trkpt>
<trkpt lat="-27.2701135" lon="151.2937152">
  <ele>353.27</ele>
  <time>2026-09-01T19:57:07Z</time>
  <course>63.78</course>
  <speed>3.4392586410446073</speed>
  <fix>3d</fix>
</trkpt>
<trkpt lat="-27.2701154" lon="151.2937058">
  <ele>353.52</ele>
  <time>2026-09-01T19:57:07Z</time>
  <course>75.14</course>
  <speed>3.28</speed>
  <fix>3d</fix>
</trkpt>
<trkpt lat="-27.2701126" lon="151.2937187">
  <ele>353.2</ele>
  <time>2026-09-01T19:57:07Z</time>
  <course>63.83</course>
  <speed>3.480488471464889</speed>
  <fix>3d</fix>
</trkpt>
<trkpt lat="-27.2701139" lon="151.2937124">
  <ele>353.32</ele>
  <time>2026-09-01T19:57:07Z</time>
  <course>75.01</course>
  <speed>3.41</speed>
  <fix>3d</fix>
</trkpt>
<trkpt lat="-27.2701248" lon="151.2937041">
  <ele>343.0</ele>
  <time>2026-09-01T19:57:07Z</time>
  <course>73.79</course>
  <speed>4.997209221155344</speed>
  <fix>3d</fix>
</trkpt>
<trkpt lat="-27.2701118" lon="151.2937221">
  <ele>353.12</ele>
  <time>2026-09-01T19:57:07Z</time>
  <course>63.9</course>
  <speed>3.5217183305880666</speed>
  <fix>3d</fix>
</trkpt>
<trkpt lat="-27.2701139" lon="151.2937124">
  <ele>353.32</ele>
  <time>2026-09-01T19:57:07Z</time>
  <course>75.01</course>
  <speed>3.41</speed>
  <fix>3d</fix>
</trkpt>
<trkpt lat="-27.270111" lon="151.2937256">
  <ele>353.05</ele>
  <time>2026-09-01T19:57:07Z</time>
  <course>63.97</course>
  <speed>3.5629482174177047</speed>
  <fix>3d</fix>
</trkpt>
<trkpt lat="-27.2701123" lon="151.2937192">
  <ele>353.16</ele>
  <time>2026-09-01T19:57:07Z</time>
  <course>74.97</course>
  <speed>3.5</speed>
  <fix>3d</fix>
</trkpt>
<trkpt lat="-27.2701223" lon="151.2937138">
  <ele>343.0</ele>
  <time>2026-09-01T19:57:07Z</time>
  <course>73.91</course>
  <speed>4.994436905197622</speed>
  <fix>3d</fix>
</trkpt>
<trkpt lat="-27.2701102" lon="151.2937292">
  <ele>352.97</ele>
  <time>2026-09-01T19:57:07Z</time>
  <course>64.05</course>
  <speed>3.6163655788650573</speed>
  <fix>3d</fix>
</trkpt>
<trkpt lat="-27.2701123" lon="151.2937192">
  <ele>353.16</ele>
  <time>2026-09-01T19:57:07Z</time>
  <course>74.97</course>
  <speed>3.5</speed>
  <fix>3d</fix>
</trkpt>
<trkpt lat="-27.2701093" lon="151.2937328">
  <ele>352.89</ele>
  <time>2026-09-01T19:57:07Z</time>
  <course>64.12</course>
  <speed>3.6672741920941774</speed>
  <fix>3d</fix>
</trkpt>
<trkpt lat="-27.2701106" lon="151.2937261">
  <ele>353.02</ele>
  <time>2026-09-01T19:57:07Z</time>
  <course>74.92</course>
  <speed>3.59</speed>
  <fix>3d</fix>
</trkpt>
<trkpt lat="-27.2701198" lon="151.2937234">
  <ele>343.0</ele>
  <time>2026-09-01T19:57:07Z</time>
  <course>74.02</course>
  <speed>4.991683082888977</speed>
  <fix>3d</fix>
</trkpt>
<trkpt lat="-27.2701084" lon="151.2937364">
  <ele>352.8</ele>
  <time>2026-09-01T19:57:07Z</time>
  <course>64.2</course>
  <speed>3.720698859085481</speed>
  <fix>3d</fix>
</trkpt>
<trkpt lat="-27.2701106" lon="151.2937261">
  <ele>353.02</ele>
  <time>2026-09-01T19:57:07Z</time>
  <course>74.92</course>
  <speed>3.59</speed>
  <fix>3d</fix>
</trkpt>
<trkpt lat="-27.2701075" lon="151.2937401">
  <ele>352.7</ele>
  <time>2026-09-01T19:57:07Z</time>
  <course>64.28</course>
  <speed>3.7838076061026147</speed>
  <fix>3d</fix>
</trkpt>
<trkpt lat="-27.2701089" lon="151.2937332">
  <ele>352.86</ele>
  <time>2026-09-01T19:57:07Z</time>
  <course>74.86</course>
  <speed>3.69</speed>
  <fix>3d</fix>
</trkpt>
<trkpt lat="-27.2701173" lon="151.2937331">
  <ele>343.0</ele>
  <time>2026-09-01T19:57:07Z</time>
  <course>74.14</course>
  <speed>4.9889477848540364</speed>
  <fix>3d</fix>
</trkpt>
<trkpt lat="-27.2701066" lon="151.2937439">
  <ele>352.6</ele>
  <time>2026-09-01T19:57:07Z</time>
  <course>64.36</course>
  <speed>3.8469208465992644</speed>
  <fix>3d</fix>
</trkpt>
<trkpt lat="-27.2701089" lon="151.2937332">
  <ele>352.86</ele>
  <time>2026-09-01T19:57:07Z</time>
  <course>74.86</course>
  <speed>3.69</speed>
  <fix>3d</fix>
</trkpt>
<trkpt lat="-27.2701057" lon="151.2937477">
  <ele>352.49</ele>
  <time>2026-09-01T19:57:07Z</time>
  <course>64.43</course>
  <speed>3.9197066216746372</speed>
  <fix>3d</fix>
</trkpt>
<trkpt lat="-27.2701072" lon="151.2937405">
  <ele>352.68</ele>
  <time>2026-09-01T19:57:07Z</time>
  <course>74.77</course>
  <speed>3.81</speed>
  <fix>3d</fix>
</trkpt>
<trkpt lat="-27.2701149" lon="151.2937428">
  <ele>343.0</ele>
  <time>2026-09-01T19:57:07Z</time>
  <course>74.25</course>
  <speed>4.995858284619371</speed>
  <fix>3d</fix>
</trkpt>
<trkpt lat="-27.2701048" lon="151.2937516">
  <ele>352.38</ele>
  <time>2026-09-01T19:57:07Z</time>
  <course>64.51</course>
  <speed>3.9828256301274347</speed>
  <fix>3d</fix>
</trkpt>
<trkpt lat="-27.2701072" lon="151.2937405">
  <ele>352.68</ele>
  <time>2026-09-01T19:57:07Z</time>
  <course>74.77</course>
  <speed>3.81</speed>
  <fix>3d</fix>
</trkpt>
<trkpt lat="-27.2701038" lon="151.2937555">
  <ele>352.26</ele>
  <time>2026-09-01T19:57:07Z</time>
  <course>64.58</course>
  <speed>4.0556133938037044</speed>
  <fix>3d</fix>
</trkpt>
<trkpt lat="-27.2701053" lon="151.293748">
  <ele>352.46</ele>
  <time>2026-09-01T19:57:07Z</time>
  <course>74.69</course>
  <speed>3.94</speed>
  <fix>3d</fix>
</trkpt>
<trkpt lat="-27.2701124" lon="151.2937525">
  <ele>343.0</ele>
  <time>2026-09-01T19:57:07Z</time>
  <course>74.37</course>
  <speed>4.9931653287268585</speed>
  <fix>3d</fix>
</trkpt>
<trkpt lat="-27.2701028" lon="151.2937595">
  <ele>352.14</ele>
  <time>2026-09-01T19:57:07Z</time>
  <course>64.64</course>
  <speed>4.118737670694748</speed>
  <fix>3d</fix>
</trkpt>
<trkpt lat="-27.2701053" lon="151.293748">
  <ele>352.46</ele>
  <time>2026-09-01T19:57:07Z</time>
  <course>74.69</course>
  <speed>3.94</speed>
  <fix>3d</fix>
</trkpt>
<trkpt lat="-27.2701018" lon="151.2937636">
  <ele>352.02</ele>
  <time>2026-09-01T19:57:07Z</time>
  <course>64.7</course>
  <speed>4.191527167990206</speed>
  <fix>3d</fix>
</trkpt>
<trkpt lat="-27.2701034" lon="151.2937559">
  <ele>352.24</ele>
  <time>2026-09-01T19:57:07Z</time>
  <course>74.61</course>
  <speed>4.07</speed>
  <fix>3d</fix>
</trkpt>
<trkpt lat="-27.27011" lon="151.2937622">
  <ele>343.0</ele>
  <time>2026-09-01T19:57:07Z</time>
  <course>74.48</course>
  <speed>4.990490957811666</speed>
  <fix>3d</fix>
</trkpt>
<trkpt lat="-27.2701008" lon="151.2937677">
  <ele>351.9</ele>
  <time>2026-09-01T19:57:07Z</time>
  <course>64.75</course>
  <speed>4.25465627283803</speed>
  <fix>3d</fix>
</trkpt>
<trkpt lat="-27.2701034" lon="151.2937559">
  <ele>352.24</ele>
  <time>2026-09-01T19:57:07Z</time>
  <course>74.61</course>
  <speed>4.07</speed>
  <fix>3d</fix>
</trkpt>
<trkpt lat="-27.2700998" lon="151.293772">
  <ele>351.77</ele>
  <time>2026-09-01T19:57:07Z</time>
  <course>64.8</course>
  <speed>4.327447284485393</speed>
  <fix>3d</fix>
</trkpt>
<trkpt lat="-27.2701015" lon="151.293764">
  <ele>352.0</ele>
  <time>2026-09-01T19:57:07Z</time>
  <course>74.55</course>
  <speed>4.21</speed>
  <fix>3d</fix>
</trkpt>
<trkpt lat="-27.2701076" lon="151.293772">
  <ele>343.0</ele>
  <time>2026-09-01T19:57:07Z</time>
  <course>74.6</course>
  <speed>4.997479364639738</speed>
  <fix>3d</fix>
</trkpt>
<trkpt lat="-27.2700987" lon="151.2937762">
  <ele>351.65</ele>
  <time>2026-09-01T19:57:07Z</time>
  <course>64.85</course>
  <speed>4.378333016114695</speed>
  <fix>3d</fix>
</trkpt>
<trkpt lat="-27.2701015" lon="151.293764">
  <ele>352.0</ele>
  <time>2026-09-01T19:57:07Z</time>
  <course>74.55</course>
  <speed>4.21</speed>
  <fix>3d</fix>
</trkpt>
<trkpt lat="-27.2700977" lon="151.2937805">
  <ele>351.53</ele>
  <time>2026-09-01T19:57:07Z</time>
  <course>64.89</course>
  <speed>4.438884995131097</speed>
  <fix>3d</fix>
</trkpt>
<trkpt lat="-27.2700994" lon="151.2937723">
  <ele>351.76</ele>
  <time>2026-09-01T19:57:07Z</time>
  <course>74.53</course>
  <speed>4.34</speed>
  <fix>3d</fix>
</trkpt>
<trkpt lat="-27.2701053" lon="151.2937818">
  <ele>343.0</ele>
  <time>2026-09-01T19:57:07Z</time>
  <course>74.71</course>
  <speed>4.9948473450146595</speed>
  <fix>3d</fix>
</trkpt>
<trkpt lat="-27.2700966" lon="151.2937849">
  <ele>351.42</ele>
  <time>2026-09-01T19:57:07Z</time>
  <course>64.93</course>
  <speed>4.489777277326794</speed>
  <fix>3d</fix>
</trkpt>
<trkpt lat="-27.2700994" lon="151.2937723">
  <ele>351.76</ele>
  <time>2026-09-01T19:57:07Z</time>
  <course>74.53</course>
  <speed>4.34</speed>
  <fix>3d</fix>
</trkpt>
<trkpt lat="-27.2700955" lon="151.2937893">
  <ele>351.31</ele>
  <time>2026-09-01T19:57:07Z</time>
  <course>64.96</course>
  <speed>4.5406717564695205</speed>
  <fix>3d</fix>
</trkpt>
<trkpt lat="-27.2700972" lon="151.2937809">
  <ele>351.52</ele>
  <time>2026-09-01T19:57:07Z</time>
  <course>74.56</course>
  <speed>4.46</speed>
  <fix>3d</fix>
</trkpt>
<trkpt lat="-27.2701029" lon="151.2937916">
  <ele>343.0</ele>
  <time>2026-09-01T19:57:07Z</time>
  <course>74.83</course>
  <speed>4.992233968876058</speed>
  <fix>3d</fix>
</trkpt>
<trkpt lat="-27.2700944" lon="151.2937938">
  <ele>351.2</ele>
  <time>2026-09-01T19:57:07Z</time>
  <course>64.99</course>
  <speed>4.581899169558405</speed>
  <fix>3d</fix>
</trkpt>
<trkpt lat="-27.2700972" lon="151.2937809">
  <ele>351.52</ele>
  <time>2026-09-01T19:57:07Z</time>
  <course>74.56</course>
  <speed>4.46</speed>
  <fix>3d</fix>
</trkpt>
<trkpt lat="-27.2700933" lon="151.2937983">
  <ele>351.09</ele>
  <time>2026-09-01T19:57:07Z</time>
  <course>65.02</course>
  <speed>4.623126647627123</speed>
  <fix>3d</fix>
</trkpt>
<trkpt lat="-27.2700951" lon="151.2937897">
  <ele>351.28</ele>
  <time>2026-09-01T19:57:07Z</time>
  <course>74.64</course>
  <speed>4.56</speed>
  <fix>3d</fix>
</trkpt>
<trkpt lat="-27.2701005" lon="151.2938014">
  <ele>343.0</ele>
  <time>2026-09-01T19:57:07Z</time>
  <course>74.95</course>
  <speed>4.989639265518099</speed>
  <fix>3d</fix>
</trkpt>
<trkpt lat="-27.2700922" lon="151.2938029">
  <ele>350.99</ele>
  <time>2026-09-01T19:57:07Z</time>
  <course>65.05</course>
  <speed>4.65213929284152</speed>
  <fix>3d</fix>
</trkpt>
<trkpt lat="-27.2700951" lon="151.2937897">
  <ele>351.28</ele>
  <time>2026-09-01T19:57:07Z</time>
  <course>74.64</course>
  <speed>4.56</speed>
  <fix>3d</fix>
</trkpt>
<trkpt lat="-27.2700911" lon="151.2938075">
  <ele>350.89</ele>
  <time>2026-09-01T19:57:07Z</time>
  <course>65.08</course>
  <speed>4.690842141876019</speed>
  <fix>3d</fix>
</trkpt>
<trkpt lat="-27.2700929" lon="151.2937987">
  <ele>351.08</ele>
  <time>2026-09-01T19:57:07Z</time>
  <course>74.76</course>
  <speed>4.65</speed>
  <fix>3d</fix>
</trkpt>
<trkpt lat="-27.2700982" lon="151.2938111">
  <ele>343.0</ele>
  <time>2026-09-01T19:57:07Z</time>
  <course>75.06</course>
  <speed>4.9967289300101125</speed>
  <fix>3d</fix>
</trkpt>
<trkpt lat="-27.27009" lon="151.2938121">
  <ele>350.8</ele>
  <time>2026-09-01T19:57:07Z</time>
  <course>65.11</course>
  <speed>4.71988347313787</speed>
  <fix>3d</fix>
</trkpt>
<trkpt lat="-27.2700929" lon="151.2937987">
  <ele>351.08</ele>
  <time>2026-09-01T19:57:07Z</time>
  <course>74.76</course>
  <speed>4.65</speed>
  <fix>3d</fix>
</trkpt>
<trkpt lat="-27.2700889" lon="151.2938167">
  <ele>350.7</ele>
  <time>2026-09-01T19:57:07Z</time>
  <course>65.14</course>
  <speed>4.7392509956743165</speed>
  <fix>3d</fix>
</trkpt>
<trkpt lat="-27.2700908" lon="151.2938079">
  <ele>350.88</ele>
  <time>2026-09-01T19:57:07Z</time>
  <course>74.92</course>
  <speed>4.71</speed>
  <fix>3d</fix>
</trkpt>
<trkpt lat="-27.2700959" lon="151.2938209">
  <ele>343.0</ele>
  <time>2026-09-01T19:57:07Z</time>
  <course>75.18</course>
  <speed>4.9941766088115065</speed>
  <fix>3d</fix>
</trkpt>
<trkpt lat="-27.2700878" lon="151.2938214">
  <ele>350.61</ele>
  <time>2026-09-01T19:57:07Z</time>
  <course>65.17</course>
  <speed>4.7683120703242565</speed>
  <fix>3d</fix>
</trkpt>
<trkpt lat="-27.2700908" lon="151.2938079">
  <ele>350.88</ele>
  <time>2026-09-01T19:57:07Z</time>
  <course>74.92</course>
  <speed>4.71</speed>
  <fix>3d</fix>
</trkpt>
<trkpt lat="-27.2700867" lon="151.2938261">
  <ele>350.53</ele>
  <time>2026-09-01T19:57:07Z</time>
  <course>65.19</course>
  <speed>4.787692554874425</speed>
  <fix>3d</fix>
</trkpt>
<trkpt lat="-27.2700886" lon="151.2938171">
  <ele>350.68</ele>
  <time>2026-09-01T19:57:07Z</time>
  <course>75.1</course>
  <speed>4.77</speed>
  <fix>3d</fix>
</trkpt>
<trkpt lat="-27.2700936" lon="151.2938307">
  <ele>343.0</ele>
  <time>2026-09-01T19:57:07Z</time>
  <course>75.29</course>
  <speed>4.991643016081979</speed>
  <fix>3d</fix>
</trkpt>
<trkpt lat="-27.2700856" lon="151.2938309">
  <ele>350.44</ele>
  <time>2026-09-01T19:57:07Z</time>
  <course>65.22</course>
  <speed>4.807078114613907</speed>
  <fix>3d</fix>
</trkpt>
<trkpt lat="-27.2700886" lon="151.2938171">
  <ele>350.68</ele>
  <time>2026-09-01T19:57:07Z</time>
  <course>75.1</course>
  <speed>4.77</speed>
  <fix>3d</fix>
</trkpt>
<trkpt lat="-27.2700845" lon="151.2938356">
  <ele>350.36</ele>
  <time>2026-09-01T19:57:07Z</time>
  <course>65.24</course>
  <speed>4.824033581972663</speed>
  <fix>3d</fix>
</trkpt>
<trkpt lat="-27.2700863" lon="151.2938265">
  <ele>350.5</ele>
  <time>2026-09-01T19:57:07Z</time>
  <course>75.29</course>
  <speed>4.82</speed>
  <fix>3d</fix>
</trkpt>
<trkpt lat="-27.2700914" lon="151.2938405">
  <ele>343.0</ele>
  <time>2026-09-01T19:57:07Z</time>
  <course>75.41</course>
  <speed>4.989128180353758</speed>
  <fix>3d</fix>
</trkpt>
<trkpt lat="-27.2700834" lon="151.2938404">
  <ele>350.28</ele>
  <time>2026-09-01T19:57:07Z</time>
  <course>65.27</course>
  <speed>4.833735615442781</speed>
  <fix>3d</fix>
</trkpt>
<trkpt lat="-27.2700863" lon="151.2938265">
  <ele>350.5</ele>
  <time>2026-09-01T19:57:07Z</time>
  <course>75.29</course>
  <speed>4.82</speed>
  <fix>3d</fix>
</trkpt>
<trkpt lat="-27.2700823" lon="151.2938451">
  <ele>350.2</ele>
  <time>2026-09-01T19:57:07Z</time>
  <course>65.29</course>
  <speed>4.853143311298359</speed>
  <fix>3d</fix>
</trkpt>
<trkpt lat="-27.2700842" lon="151.2938359">
  <ele>350.33</ele>
  <time>2026-09-01T19:57:07Z</time>
  <course>75.47</course>
  <speed>4.85</speed>
  <fix>3d</fix>
</trkpt>
<trkpt lat="-27.2700891" lon="151.2938502">
  <ele>343.0</ele>
  <time>2026-09-01T19:57:07Z</time>
  <course>75.52</course>
  <speed>4.996318644762361</speed>
  <fix>3d</fix>
</trkpt>
<trkpt lat="-27.2700813" lon="151.2938499">
  <ele>350.12</ele>
  <time>2026-09-01T19:57:07Z</time>
  <course>65.31</course>
  <speed>4.860452653817338</speed>
  <fix>3d</fix>
</trkpt>
<trkpt lat="-27.2700842" lon="151.2938359">
  <ele>350.33</ele>
  <time>2026-09-01T19:57:07Z</time>
  <course>75.47</course>
  <speed>4.85</speed>
  <fix>3d</fix>
</trkpt>
<trkpt lat="-27.2700802" lon="151.2938547">
  <ele>350.04</ele>
  <time>2026-09-01T19:57:07Z</time>
  <course>65.33</course>
  <speed>4.87016426827679</speed>
  <fix>3d</fix>
</trkpt>
<trkpt lat="-27.270082" lon="151.2938455">
  <ele>350.16</ele>
  <time>2026-09-01T19:57:07Z</time>
  <course>75.64</course>
  <speed>4.88</speed>
  <fix>3d</fix>
</trkpt>
<trkpt lat="-27.2700869" lon="151.29386">
  <ele>343.0</ele>
  <time>2026-09-01T19:57:07Z</time>
  <course>75.64</course>
  <speed>4.993846213090667</speed>
  <fix>3d</fix>
</trkpt>
<trkpt lat="-27.2700791" lon="151.2938595">
  <ele>349.97</ele>
  <time>2026-09-01T19:57:07Z</time>
  <course>65.34</course>
  <speed>4.8798770476314255</speed>
  <fix>3d</fix>
</trkpt>
<trkpt lat="-27.270082" lon="151.2938455">
  <ele>350.16</ele>
  <time>2026-09-01T19:57:07Z</time>
  <course>75.64</course>
  <speed>4.88</speed>
  <fix>3d</fix>
</trkpt>
<trkpt lat="-27.270078" lon="151.2938643">
  <ele>349.89</ele>
  <time>2026-09-01T19:57:07Z</time>
  <course>65.36</course>
  <speed>4.8872282533149605</speed>
  <fix>3d</fix>
</trkpt>
<trkpt lat="-27.2700798" lon="151.2938551">
  <ele>350.01</ele>
  <time>2026-09-01T19:57:07Z</time>
  <course>75.81</course>
  <speed>4.9</speed>
  <fix>3d</fix>
</trkpt>
<trkpt lat="-27.2700846" lon="151.2938698">
  <ele>343.0</ele>
  <time>2026-09-01T19:57:07Z</time>
  <course>75.75</course>
  <speed>4.993846213090667</speed>
  <fix>3d</fix>
</trkpt>
<trkpt lat="-27.270077" lon="151.2938692">
  <ele>349.82</ele>
  <time>2026-09-01T19:57:07Z</time>
  <course>65.37</course>
  <speed>4.89694802912998</speed>
  <fix>3d</fix>
</trkpt>
<trkpt lat="-27.2700798" lon="151.2938551">
  <ele>350.01</ele>
  <time>2026-09-01T19:57:07Z</time>
  <course>75.81</course>
  <speed>4.9</speed>
  <fix>3d</fix>
</trkpt>
<trkpt lat="-27.2700759" lon="151.2938741">
  <ele>349.75</ele>
  <time>2026-09-01T19:57:07Z</time>
  <course>65.38</course>
  <speed>4.904334817281544</speed>
  <fix>3d</fix>
</trkpt>
<trkpt lat="-27.2700776" lon="151.2938647">
  <ele>349.86</ele>
  <time>2026-09-01T19:57:07Z</time>
  <course>75.98</course>
  <speed>4.92</speed>
  <fix>3d</fix>
</trkpt>
<trkpt lat="-27.2700825" lon="151.2938795">
  <ele>343.0</ele>
  <time>2026-09-01T19:57:07Z</time>
  <course>75.87</course>
  <speed>4.991392591251463</speed>
  <fix>3d</fix>
</trkpt>
<trkpt lat="-27.2700748" lon="151.2938789">
  <ele>349.68</ele>
  <time>2026-09-01T19:57:07Z</time>
  <course>65.39</course>
  <speed>4.914061456677155</speed>
  <fix>3d</fix>
</trkpt>
<trkpt lat="-27.2700776" lon="151.2938647">
  <ele>349.86</ele>
  <time>2026-09-01T19:57:07Z</time>
  <course>75.98</course>
  <speed>4.92</speed>
  <fix>3d</fix>
</trkpt>
<trkpt lat="-27.2700737" lon="151.2938838">
  <ele>349.62</ele>
  <time>2026-09-01T19:57:07Z</time>
  <course>65.4</course>
  <speed>4.911751215198098</speed>
  <fix>3d</fix>
</trkpt>
<trkpt lat="-27.2700755" lon="151.2938744">
  <ele>349.72</ele>
  <time>2026-09-01T19:57:07Z</time>
  <course>76.15</course>
  <speed>4.94</speed>
  <fix>3d</fix>
</trkpt>
<trkpt lat="-27.2700803" lon="151.2938894">
  <ele>343.0</ele>
  <time>2026-09-01T19:57:07Z</time>
  <course>75.98</course>
  <speed>4.998659820391862</speed>
  <fix>3d</fix>
</trkpt>
<trkpt lat="-27.2700727" lon="151.2938887">
  <ele>349.55</ele>
  <time>2026-09-01T19:57:07Z</time>
  <course>65.41</course>
  <speed>4.921483516176804</speed>
  <fix>3d</fix>
</trkpt>
<trkpt lat="-27.2700755" lon="151.2938744">
  <ele>349.72</ele>
  <time>2026-09-01T19:57:07Z</time>
  <course>76.15</course>
  <speed>4.94</speed>
  <fix>3d</fix>
</trkpt>
<trkpt lat="-27.2700716" lon="151.2938935">
  <ele>349.49</ele>
  <time>2026-09-01T19:57:07Z</time>
  <course>65.41</course>
  <speed>4.919197088956692</speed>
  <fix>3d</fix>
</trkpt>
<trkpt lat="-27.2700734" lon="151.2938841">
  <ele>349.58</ele>
  <time>2026-09-01T19:57:07Z</time>
  <course>76.31</course>
  <speed>4.95</speed>
  <fix>3d</fix>
</trkpt>
<trkpt lat="-27.2700781" lon="151.2938991">
  <ele>343.0</ele>
  <time>2026-09-01T19:57:07Z</time>
  <course>76.1</course>
  <speed>4.9962485926943225</speed>
  <fix>3d</fix>
</trkpt>
<trkpt lat="-27.2700706" lon="151.2938984">
  <ele>349.42</ele>
  <time>2026-09-01T19:57:07Z</time>
  <course>65.42</course>
  <speed>4.9289349762397965</speed>
  <fix>3d</fix>
</trkpt>
<trkpt lat="-27.2700734" lon="151.2938841">
  <ele>349.58</ele>
  <time>2026-09-01T19:57:07Z</time>
  <course>76.31</course>
  <speed>4.95</speed>
  <fix>3d</fix>
</trkpt>
<trkpt lat="-27.2700696" lon="151.2939033">
  <ele>349.36</ele>
  <time>2026-09-01T19:57:07Z</time>
  <course>65.42</course>
  <speed>4.926672304913327</speed>
  <fix>3d</fix>
</trkpt>
<trkpt lat="-27.2700713" lon="151.2938939">
  <ele>349.44</ele>
  <time>2026-09-01T19:57:07Z</time>
  <course>76.46</course>
  <speed>4.95</speed>
  <fix>3d</fix>
</trkpt>
<trkpt lat="-27.2700759" lon="151.2939089">
  <ele>343.0</ele>
  <time>2026-09-01T19:57:07Z</time>
  <course>76.21</course>
  <speed>4.993856225403371</speed>
  <fix>3d</fix>
</trkpt>
<trkpt lat="-27.2700685" lon="151.2939082">
  <ele>349.3</ele>
  <time>2026-09-01T19:57:07Z</time>
  <course>65.43</course>
  <speed>4.926672304913327</speed>
  <fix>3d</fix>
</trkpt>
<trkpt lat="-27.2700713" lon="151.2938939">
  <ele>349.44</ele>
  <time>2026-09-01T19:57:07Z</time>
  <course>76.46</course>
  <speed>4.95</speed>
  <fix>3d</fix>
</trkpt>
<trkpt lat="-27.2700675" lon="151.293913">
  <ele>349.24</ele>
  <time>2026-09-01T19:57:07Z</time>
  <course>65.43</course>
  <speed>4.924428900898053</speed>
  <fix>3d</fix>
</trkpt>
<trkpt lat="-27.2700692" lon="151.2939036">
  <ele>349.3</ele>
  <time>2026-09-01T19:57:07Z</time>
  <course>76.61</course>
  <speed>4.95</speed>
  <fix>3d</fix>
</trkpt>
<trkpt lat="-27.2700738" lon="151.2939188">
  <ele>343.0</ele>
  <time>2026-09-01T19:57:07Z</time>
  <course>76.33</course>
  <speed>4.991482745637813</speed>
  <fix>3d</fix>
</trkpt>
<trkpt lat="-27.2700665" lon="151.2939179">
  <ele>349.18</ele>
  <time>2026-09-01T19:57:07Z</time>
  <course>65.43</course>
  <speed>4.922204790538484</speed>
  <fix>3d</fix>
</trkpt>
<trkpt lat="-27.2700692" lon="151.2939036">
  <ele>349.3</ele>
  <time>2026-09-01T19:57:07Z</time>
  <course>76.61</course>
  <speed>4.95</speed>
  <fix>3d</fix>
</trkpt>
<trkpt lat="-27.2700655" lon="151.2939227">
  <ele>349.12</ele>
  <time>2026-09-01T19:57:07Z</time>
  <course>65.43</course>
  <speed>4.922204790538484</speed>
  <fix>3d</fix>
</trkpt>
<trkpt lat="-27.2700672" lon="151.2939134">
  <ele>349.18</ele>
  <time>2026-09-01T19:57:07Z</time>
  <course>76.75</course>
  <speed>4.95</speed>
  <fix>3d</fix>
</trkpt>
<trkpt lat="-27.2700717" lon="151.2939286">
  <ele>343.0</ele>
  <time>2026-09-01T19:57:07Z</time>
  <course>76.45</course>
  <speed>4.998849867719573</speed>
  <fix>3d</fix>
</trkpt>
<trkpt lat="-27.2700645" lon="151.2939276">
  <ele>349.07</ele>
  <time>2026-09-01T19:57:07Z</time>
  <course>65.43</course>
  <speed>4.92</speed>
  <fix>3d</fix>
</trkpt>
<trkpt lat="-27.2700672" lon="151.2939134">
  <ele>349.18</ele>
  <time>2026-09-01T19:57:07Z</time>
  <course>76.75</course>
  <speed>4.95</speed>
  <fix>3d</fix>
</trkpt>
<trkpt lat="-27.2700635" lon="151.2939324">
  <ele>349.01</ele>
  <time>2026-09-01T19:57:07Z</time>
  <course>65.43</course>
  <speed>4.92</speed>
  <fix>3d</fix>
</trkpt>
<trkpt lat="-27.2700652" lon="151.2939231">
  <ele>349.06</ele>
  <time>2026-09-01T19:57:07Z</time>
  <course>76.89</course>
  <speed>4.95</speed>
  <fix>3d</fix>
</trkpt>
<trkpt lat="-27.2700696" lon="151.2939385">
  <ele>343.0</ele>
  <time>2026-09-01T19:57:08Z</time>
  <course>76.56</course>
  <speed>4.996518788116382</speed>
  <fix>3d</fix>
</trkpt>
<trkpt lat="-27.2700625" lon="151.2939373">
  <ele>348.95</ele>
  <time>2026-09-01T19:57:08Z</time>
  <course>65.42</course>
  <speed>4.917814555267411</speed>
  <fix>3d</fix>
</trkpt>
<trkpt lat="-27.2700652" lon="151.2939231">
  <ele>349.06</ele>
  <time>2026-09-01T19:57:08Z</time>
  <course>76.89</course>
  <speed>4.95</speed>
  <fix>3d</fix>
</trkpt>
<trkpt lat="-27.2700615" lon="151.2939421">
  <ele>348.9</ele>
  <time>2026-09-01T19:57:08Z</time>
  <course>65.42</course>
  <speed>4.917814555267411</speed>
  <fix>3d</fix>
</trkpt>
<trkpt lat="-27.2700632" lon="151.2939328">
  <ele>348.94</ele>
  <time>2026-09-01T19:57:08Z</time>
  <course>77.02</course>
  <speed>4.95</speed>
  <fix>3d</fix>
</trkpt>
<trkpt lat="-27.2700675" lon="151.2939483">
  <ele>343.0</ele>
  <time>2026-09-01T19:57:08Z</time>
  <course>76.68</course>
  <speed>4.994206643702281</speed>
  <fix>3d</fix>
</trkpt>
<trkpt lat="-27.2700605" lon="151.293947">
  <ele>348.84</ele>
  <time>2026-09-01T19:57:08Z</time>
  <course>65.42</course>
  <speed>4.91350180624776</speed>
  <fix>3d</fix>
</trkpt>
<trkpt lat="-27.2700632" lon="151.2939328">
  <ele>348.94</ele>
  <time>2026-09-01T19:57:08Z</time>
  <course>77.02</course>
  <speed>4.95</speed>
  <fix>3d</fix>
</trkpt>
<trkpt lat="-27.2700596" lon="151.2939518">
  <ele>348.79</ele>
  <time>2026-09-01T19:57:08Z</time>
  <course>65.43</course>
  <speed>4.911374553014665</speed>
  <fix>3d</fix>
</trkpt>
<trkpt lat="-27.2700612" lon="151.2939427">
  <ele>348.82</ele>
  <time>2026-09-01T19:57:08Z</time>
  <course>77.19</course>
  <speed>4.95</speed>
  <fix>3d</fix>
</trkpt>
<trkpt lat="-27.2700655" lon="151.2939582">
  <ele>343.0</ele>
  <time>2026-09-01T19:57:08Z</time>
  <course>76.79</course>
  <speed>4.991913460788358</speed>
  <fix>3d</fix>
</trkpt>
<trkpt lat="-27.2700586" lon="151.2939567">
  <ele>348.73</ele>
  <time>2026-09-01T19:57:08Z</time>
  <course>65.45</course>
  <speed>4.914895726259103</speed>
  <fix>3d</fix>
</trkpt>
<trkpt lat="-27.2700612" lon="151.2939427">
  <ele>348.82</ele>
  <time>2026-09-01T19:57:08Z</time>
  <course>77.19</course>
  <speed>4.95</speed>
  <fix>3d</fix>
</trkpt>
<trkpt lat="-27.2700577" lon="151.2939616">
  <ele>348.68</ele>
  <time>2026-09-01T19:57:08Z</time>
  <course>65.47</course>
  <speed>4.90881859514079</speed>
  <fix>3d</fix>
</trkpt>
<trkpt lat="-27.2700592" lon="151.2939524">
  <ele>348.7</ele>
  <time>2026-09-01T19:57:08Z</time>
  <course>77.55</course>
  <speed>4.95</speed>
  <fix>3d</fix>
</trkpt>
<trkpt lat="-27.2700634" lon="151.293968">
  <ele>343.0</ele>
  <time>2026-09-01T19:57:08Z</time>
  <course>76.91</course>
  <speed>4.999379961555232</speed>
  <fix>3d</fix>
</trkpt>
<trkpt lat="-27.2700568" lon="151.2939664">
  <ele>348.62</ele>
  <time>2026-09-01T19:57:08Z</time>
  <course>65.5</course>
  <speed>4.902917498795998</speed>
  <fix>3d</fix>
</trkpt>
<trkpt lat="-27.2700592" lon="151.2939524">
  <ele>348.7</ele>
  <time>2026-09-01T19:57:08Z</time>
  <course>77.55</course>
  <speed>4.95</speed>
  <fix>3d</fix>
</trkpt>
<trkpt lat="-27.2700559" lon="151.2939714">
  <ele>348.57</ele>
  <time>2026-09-01T19:57:08Z</time>
  <course>65.54</course>
  <speed>4.907015386158882</speed>
  <fix>3d</fix>
</trkpt>
<trkpt lat="-27.2700573" lon="151.2939622">
  <ele>348.59</ele>
  <time>2026-09-01T19:57:08Z</time>
  <course>78.18</course>
  <speed>4.95</speed>
  <fix>3d</fix>
</trkpt>
<trkpt lat="-27.2700614" lon="151.2939779">
  <ele>343.0</ele>
  <time>2026-09-01T19:57:08Z</time>
  <course>77.02</course>
  <speed>4.997129175836863</speed>
  <fix>3d</fix>
</trkpt>
<trkpt lat="-27.2700551" lon="151.2939762">
  <ele>348.51</ele>
  <time>2026-09-01T19:57:08Z</time>
  <course>65.58</course>
  <speed>4.905150354474366</speed>
  <fix>3d</fix>
</trkpt>
<trkpt lat="-27.2700573" lon="151.2939622">
  <ele>348.59</ele>
  <time>2026-09-01T19:57:08Z</time>
  <course>78.18</course>
  <speed>4.95</speed>
  <fix>3d</fix>
</trkpt>
<trkpt lat="-27.2700542" lon="151.2939812">
  <ele>348.46</ele>
  <time>2026-09-01T19:57:08Z</time>
  <course>65.63</course>
  <speed>4.905150354474366</speed>
  <fix>3d</fix>
</trkpt>
<trkpt lat="-27.2700555" lon="151.293972">
  <ele>348.48</ele>
  <time>2026-09-01T19:57:08Z</time>
  <course>78.76</course>
  <speed>4.94</speed>
  <fix>3d</fix>
</trkpt>
<trkpt lat="-27.2700594" lon="151.2939878">
  <ele>343.0</ele>
  <time>2026-09-01T19:57:08Z</time>
  <course>77.14</course>
  <speed>4.9948973963435925</speed>
  <fix>3d</fix>
</trkpt>
<trkpt lat="-27.2700534" lon="151.2939861">
  <ele>348.41</ele>
  <time>2026-09-01T19:57:08Z</time>
  <course>65.66</course>
  <speed>4.914977110831748</speed>
  <fix>3d</fix>
</trkpt>
<trkpt lat="-27.2700555" lon="151.293972">
  <ele>348.48</ele>
  <time>2026-09-01T19:57:08Z</time>
  <course>78.76</course>
  <speed>4.94</speed>
  <fix>3d</fix>
</trkpt>
<trkpt lat="-27.2700525" lon="151.293991">
  <ele>348.36</ele>
  <time>2026-09-01T19:57:08Z</time>
  <course>65.68</course>
  <speed>4.914977110831748</speed>
  <fix>3d</fix>
</trkpt>
<trkpt lat="-27.2700538" lon="151.2939818">
  <ele>348.38</ele>
  <time>2026-09-01T19:57:08Z</time>
  <course>79.02</course>
  <speed>4.95</speed>
  <fix>3d</fix>
</trkpt>
<trkpt lat="-27.2700574" lon="151.2939976">
  <ele>343.0</ele>
  <time>2026-09-01T19:57:08Z</time>
  <course>77.25</course>
  <speed>4.992684648563336</speed>
  <fix>3d</fix>
</trkpt>
<trkpt lat="-27.2700517" lon="151.2939959">
  <ele>348.31</ele>
  <time>2026-09-01T19:57:08Z</time>
  <course>65.69</course>
  <speed>4.916838415079349</speed>
  <fix>3d</fix>
</trkpt>
<trkpt lat="-27.2700538" lon="151.2939818">
  <ele>348.38</ele>
  <time>2026-09-01T19:57:08Z</time>
  <course>79.02</course>
  <speed>4.95</speed>
  <fix>3d</fix>
</trkpt>
<trkpt lat="-27.2700508" lon="151.2940008">
  <ele>348.25</ele>
  <time>2026-09-01T19:57:08Z</time>
  <course>65.67</course>
  <speed>4.928539337369643</speed>
  <fix>3d</fix>
</trkpt>
<trkpt lat="-27.2700521" lon="151.2939917">
  <ele>348.28</ele>
  <time>2026-09-01T19:57:08Z</time>
  <course>78.99</course>
  <speed>4.95</speed>
  <fix>3d</fix>
</trkpt>
<trkpt lat="-27.2700554" lon="151.2940074">
  <ele>343.0</ele>
  <time>2026-09-01T19:57:08Z</time>
  <course>77.37</course>
  <speed>4.990490957811666</speed>
  <fix>3d</fix>
</trkpt>
<trkpt lat="-27.2700499" lon="151.2940058">
  <ele>348.2</ele>
  <time>2026-09-01T19:57:08Z</time>
  <course>65.64</course>
  <speed>4.9304360861895375</speed>
  <fix>3d</fix>
</trkpt>
<trkpt lat="-27.2700521" lon="151.2939917">
  <ele>348.28</ele>
  <time>2026-09-01T19:57:08Z</time>
  <course>78.99</course>
  <speed>4.95</speed>
  <fix>3d</fix>
</trkpt>
<trkpt lat="-27.270049" lon="151.2940107">
  <ele>348.15</ele>
  <time>2026-09-01T19:57:08Z</time>
  <course>65.61</course>
  <speed>4.932352379950159</speed>
  <fix>3d</fix>
</trkpt>
<trkpt lat="-27.2700504" lon="151.2940015">
  <ele>348.17</ele>
  <time>2026-09-01T19:57:08Z</time>
  <course>78.82</course>
  <speed>4.96</speed>
  <fix>3d</fix>
</trkpt>
<trkpt lat="-27.2700535" lon="151.2940173">
  <ele>343.0</ele>
  <time>2026-09-01T19:57:08Z</time>
  <course>77.48</course>
  <speed>4.998079631218374</speed>
  <fix>3d</fix>
</trkpt>
<trkpt lat="-27.2700481" lon="151.2940156">
  <ele>348.1</ele>
  <time>2026-09-01T19:57:08Z</time>
  <course>65.57</course>
  <speed>4.944097490948171</speed>
  <fix>3d</fix>
</trkpt>
<trkpt lat="-27.2700504" lon="151.2940015">
  <ele>348.17</ele>
  <time>2026-09-01T19:57:08Z</time>
  <course>78.82</course>
  <speed>4.96</speed>
  <fix>3d</fix>
</trkpt>
<trkpt lat="-27.2700472" lon="151.2940206">
  <ele>348.05</ele>
  <time>2026-09-01T19:57:08Z</time>
  <course>65.53</course>
  <speed>4.944097490948171</speed>
  <fix>3d</fix>
</trkpt>
<trkpt lat="-27.2700487" lon="151.2940113">
  <ele>348.07</ele>
  <time>2026-09-01T19:57:08Z</time>
  <course>78.65</course>
  <speed>4.97</speed>
  <fix>3d</fix>
</trkpt>
<trkpt lat="-27.2700515" lon="151.2940271">
  <ele>343.0</ele>
  <time>2026-09-01T19:57:08Z</time>
  <course>77.6</course>
  <speed>4.995928342160243</speed>
  <fix>3d</fix>
</trkpt>
<trkpt lat="-27.2700463" lon="151.2940255">
  <ele>348.0</ele>
  <time>2026-09-01T19:57:08Z</time>
  <course>65.5</course>
  <speed>4.944097490948171</speed>
  <fix>3d</fix>
</trkpt>
<trkpt lat="-27.2700487" lon="151.2940113">
  <ele>348.07</ele>
  <time>2026-09-01T19:57:08Z</time>
  <course>78.65</course>
  <speed>4.97</speed>
  <fix>3d</fix>
</trkpt>
<trkpt lat="-27.2700454" lon="151.2940305">
  <ele>347.95</ele>
  <time>2026-09-01T19:57:08Z</time>
  <course>65.48</course>
  <speed>4.955855122983318</speed>
  <fix>3d</fix>
</trkpt>
<trkpt lat="-27.2700469" lon="151.2940212">
  <ele>347.97</ele>
  <time>2026-09-01T19:57:08Z</time>
  <course>78.54</course>
  <speed>4.98</speed>
  <fix>3d</fix>
</trkpt>
<trkpt lat="-27.2700496" lon="151.294037">
  <ele>343.0</ele>
  <time>2026-09-01T19:57:08Z</time>
  <course>77.71</course>
  <speed>4.993796151226039</speed>
  <fix>3d</fix>
</trkpt>
<trkpt lat="-27.2700446" lon="151.2940354">
  <ele>347.9</ele>
  <time>2026-09-01T19:57:08Z</time>
  <course>65.46</course>
  <speed>4.955855122983318</speed>
  <fix>3d</fix>
</trkpt>
<trkpt lat="-27.2700469" lon="151.2940212">
  <ele>347.97</ele>
  <time>2026-09-01T19:57:08Z</time>
  <course>78.54</course>
  <speed>4.98</speed>
  <fix>3d</fix>
</trkpt>
<trkpt lat="-27.2700437" lon="151.2940404">
  <ele>347.86</ele>
  <time>2026-09-01T19:57:08Z</time>
  <course>65.44</course>
  <speed>4.955855122983318</speed>
  <fix>3d</fix>
</trkpt>
<trkpt lat="-27.2700452" lon="151.2940311">
  <ele>347.87</ele>
  <time>2026-09-01T19:57:08Z</time>
  <course>78.49</course>
  <speed>4.98</speed>
  <fix>3d</fix>
</trkpt>
<trkpt lat="-27.2700477" lon="151.2940468">
  <ele>343.0</ele>
  <time>2026-09-01T19:57:08Z</time>
  <course>77.83</course>
  <speed>4.991683082888977</speed>
  <fix>3d</fix>
</trkpt>
<trkpt lat="-27.2700428" lon="151.2940453">
  <ele>347.81</ele>
  <time>2026-09-01T19:57:08Z</time>
  <course>65.43</course>
  <speed>4.955855122983318</speed>
  <fix>3d</fix>
</trkpt>
<trkpt lat="-27.2700452" lon="151.2940311">
  <ele>347.87</ele>
  <time>2026-09-01T19:57:08Z</time>
  <course>78.49</course>
  <speed>4.98</speed>
  <fix>3d</fix>
</trkpt>
<trkpt lat="-27.2700419" lon="151.2940503">
  <ele>347.76</ele>
  <time>2026-09-01T19:57:08Z</time>
  <course>65.43</course>
  <speed>4.955855122983318</speed>
  <fix>3d</fix>
</trkpt>
<trkpt lat="-27.2700434" lon="151.294041">
  <ele>347.78</ele>
  <time>2026-09-01T19:57:08Z</time>
  <course>78.49</course>
  <speed>4.98</speed>
  <fix>3d</fix>
</trkpt>
<trkpt lat="-27.2700458" lon="151.2940567">
  <ele>343.0</ele>
  <time>2026-09-01T19:57:08Z</time>
  <course>77.95</course>
  <speed>4.989589161444056</speed>
  <fix>3d</fix>
</trkpt>
<trkpt lat="-27.270041" lon="151.2940552">
  <ele>347.71</ele>
  <time>2026-09-01T19:57:08Z</time>
  <course>65.42</course>
  <speed>4.953907548592323</speed>
  <fix>3d</fix>
</trkpt>
<trkpt lat="-27.2700434" lon="151.294041">
  <ele>347.78</ele>
  <time>2026-09-01T19:57:08Z</time>
  <course>78.49</course>
  <speed>4.98</speed>
  <fix>3d</fix>
</trkpt>
<trkpt lat="-27.2700401" lon="151.2940602">
  <ele>347.66</ele>
  <time>2026-09-01T19:57:08Z</time>
  <course>65.42</course>
  <speed>4.953907548592323</speed>
  <fix>3d</fix>
</trkpt>
<trkpt lat="-27.2700416" lon="151.2940508">
  <ele>347.68</ele>
  <time>2026-09-01T19:57:08Z</time>
  <course>78.52</course>
  <speed>4.98</speed>
  <fix>3d</fix>
</trkpt>
<trkpt lat="-27.270044" lon="151.2940665">
  <ele>343.0</ele>
  <time>2026-09-01T19:57:08Z</time>
  <course>78.06</course>
  <speed>4.997299270606074</speed>
  <fix>3d</fix>
</trkpt>
<trkpt lat="-27.2700392" lon="151.2940651">
  <ele>347.61</ele>
  <time>2026-09-01T19:57:08Z</time>
  <course>65.42</course>
  <speed>4.953907548592323</speed>
  <fix>3d</fix>
</trkpt>
<trkpt lat="-27.2700416" lon="151.2940508">
  <ele>347.68</ele>
  <time>2026-09-01T19:57:08Z</time>
  <course>78.52</course>
  <speed>4.98</speed>
  <fix>3d</fix>
</trkpt>
<trkpt lat="-27.2700383" lon="151.2940701">
  <ele>347.56</ele>
  <time>2026-09-01T19:57:08Z</time>
  <course>65.41</course>
  <speed>4.951979402218875</speed>
  <fix>3d</fix>
</trkpt>
<trkpt lat="-27.2700398" lon="151.2940607">
  <ele>347.58</ele>
  <time>2026-09-01T19:57:08Z</time>
  <course>78.57</course>
  <speed>4.98</speed>
  <fix>3d</fix>
</trkpt>
<trkpt lat="-27.2700421" lon="151.2940765">
  <ele>343.0</ele>
  <time>2026-09-01T19:57:08Z</time>
  <course>78.18</course>
  <speed>4.995247741604014</speed>
  <fix>3d</fix>
</trkpt>
<trkpt lat="-27.2700374" lon="151.294075">
  <ele>347.52</ele>
  <time>2026-09-01T19:57:08Z</time>
  <course>65.41</course>
  <speed>4.951979402218875</speed>
  <fix>3d</fix>
</trkpt>
<trkpt lat="-27.2700398" lon="151.2940607">
  <ele>347.58</ele>
  <time>2026-09-01T19:57:08Z</time>
  <course>78.57</course>
  <speed>4.98</speed>
  <fix>3d</fix>
</trkpt>
<trkpt lat="-27.2700366" lon="151.2940799">
  <ele>347.47</ele>
  <time>2026-09-01T19:57:08Z</time>
  <course>65.41</course>
  <speed>4.951979402218875</speed>
  <fix>3d</fix>
</trkpt>
<trkpt lat="-27.270038" lon="151.2940706">
  <ele>347.49</ele>
  <time>2026-09-01T19:57:08Z</time>
  <course>78.63</course>
  <speed>4.98</speed>
  <fix>3d</fix>
</trkpt>
<trkpt lat="-27.2700403" lon="151.2940864">
  <ele>343.0</ele>
  <time>2026-09-01T19:57:08Z</time>
  <course>78.29</course>
  <speed>4.993215396916099</speed>
  <fix>3d</fix>
</trkpt>
<trkpt lat="-27.2700357" lon="151.2940849">
  <ele>347.42</ele>
  <time>2026-09-01T19:57:08Z</time>
  <course>65.4</course>
  <speed>4.9500707065657155</speed>
  <fix>3d</fix>
</trkpt>
<trkpt lat="-27.270038" lon="151.2940706">
  <ele>347.49</ele>
  <time>2026-09-01T19:57:08Z</time>
  <course>78.63</course>
  <speed>4.98</speed>
  <fix>3d</fix>
</trkpt>
<trkpt lat="-27.2700348" lon="151.2940898">
  <ele>347.37</ele>
  <time>2026-09-01T19:57:08Z</time>
  <course>65.4</course>
  <speed>4.940253029957069</speed>
  <fix>3d</fix>
</trkpt>
<trkpt lat="-27.2700363" lon="151.2940805">
  <ele>347.39</ele>
  <time>2026-09-01T19:57:08Z</time>
  <course>78.71</course>
  <speed>4.97</speed>
  <fix>3d</fix>
</trkpt>
<trkpt lat="-27.2700385" lon="151.2940963">
  <ele>343.0</ele>
  <time>2026-09-01T19:57:08Z</time>
  <course>78.41</course>
  <speed>4.991202259977049</speed>
  <fix>3d</fix>
</trkpt>
<trkpt lat="-27.2700339" lon="151.2940948">
  <ele>347.32</ele>
  <time>2026-09-01T19:57:08Z</time>
  <course>65.4</course>
  <speed>4.9383600516770745</speed>
  <fix>3d</fix>
</trkpt>
<trkpt lat="-27.2700363" lon="151.2940805">
  <ele>347.39</ele>
  <time>2026-09-01T19:57:08Z</time>
  <course>78.71</course>
  <speed>4.97</speed>
  <fix>3d</fix>
</trkpt>
<trkpt lat="-27.2700331" lon="151.2940997">
  <ele>347.27</ele>
  <time>2026-09-01T19:57:08Z</time>
  <course>65.39</course>
  <speed>4.9383600516770745</speed>
  <fix>3d</fix>
</trkpt>
<trkpt lat="-27.2700345" lon="151.2940903">
  <ele>347.28</ele>
  <time>2026-09-01T19:57:08Z</time>
  <course>78.79</course>
  <speed>4.97</speed>
  <fix>3d</fix>
</trkpt>
<trkpt lat="-27.2700367" lon="151.2941063">
  <ele>343.0</ele>
  <time>2026-09-01T19:57:08Z</time>
  <course>78.52</course>
  <speed>4.99900990197059</speed>
  <fix>3d</fix>
</trkpt>
<trkpt lat="-27.2700322" lon="151.2941047">
  <ele>347.22</ele>
  <time>2026-09-01T19:57:08Z</time>
  <course>65.38</course>
  <speed>4.936486604863828</speed>
  <fix>3d</fix>
</trkpt>
<trkpt lat="-27.2700345" lon="151.2940903">
  <ele>347.28</ele>
  <time>2026-09-01T19:57:08Z</time>
  <course>78.79</course>
  <speed>4.97</speed>
  <fix>3d</fix>
</trkpt>
<trkpt lat="-27.2700314" lon="151.2941096">
  <ele>347.17</ele>
  <time>2026-09-01T19:57:08Z</time>
  <course>65.38</course>
  <speed>4.936486604863828</speed>
  <fix>3d</fix>
</trkpt>
<trkpt lat="-27.2700328" lon="151.2941002">
  <ele>347.19</ele>
  <time>2026-09-01T19:57:08Z</time>
  <course>78.9</course>
  <speed>4.97</speed>
  <fix>3d</fix>
</trkpt>
<trkpt lat="-27.2700349" lon="151.2941162">
  <ele>343.0</ele>
  <time>2026-09-01T19:57:08Z</time>
  <course>78.64</course>
  <speed>4.997039123320929</speed>
  <fix>3d</fix>
</trkpt>
<trkpt lat="-27.2700305" lon="151.2941145">
  <ele>347.12</ele>
  <time>2026-09-01T19:57:08Z</time>
  <course>65.38</course>
  <speed>4.9444615480353376</speed>
  <fix>3d</fix>
</trkpt>
<trkpt lat="-27.2700328" lon="151.2941002">
  <ele>347.19</ele>
  <time>2026-09-01T19:57:08Z</time>
  <course>78.9</course>
  <speed>4.97</speed>
  <fix>3d</fix>
</trkpt>
<trkpt lat="-27.2700297" lon="151.2941195">
  <ele>347.07</ele>
  <time>2026-09-01T19:57:08Z</time>
  <course>65.38</course>
  <speed>4.9444615480353376</speed>
  <fix>3d</fix>
</trkpt>
<trkpt lat="-27.2700311" lon="151.2941101">
  <ele>347.09</ele>
  <time>2026-09-01T19:57:08Z</time>
  <course>79.03</course>
  <speed>4.96</speed>
  <fix>3d</fix>
</trkpt>
<trkpt lat="-27.2700331" lon="151.2941261">
  <ele>343.0</ele>
  <time>2026-09-01T19:57:08Z</time>
  <course>78.75</course>
  <speed>4.9950875868196745</speed>
  <fix>3d</fix>
</trkpt>
<trkpt lat="-27.2700288" lon="151.2941244">
  <ele>347.02</ele>
  <time>2026-09-01T19:57:08Z</time>
  <course>65.39</course>
  <speed>4.942630878388553</speed>
  <fix>3d</fix>
</trkpt>
<trkpt lat="-27.2700311" lon="151.2941101">
  <ele>347.09</ele>
  <time>2026-09-01T19:57:08Z</time>
  <course>79.03</course>
  <speed>4.96</speed>
  <fix>3d</fix>
</trkpt>
<trkpt lat="-27.270028" lon="151.2941294">
  <ele>346.97</ele>
  <time>2026-09-01T19:57:08Z</time>
  <course>65.39</course>
  <speed>4.952464033185905</speed>
  <fix>3d</fix>
</trkpt>
<trkpt lat="-27.2700294" lon="151.2941199">
  <ele>347.0</ele>
  <time>2026-09-01T19:57:08Z</time>
  <course>79.16</course>
  <speed>4.97</speed>
  <fix>3d</fix>
</trkpt>
<trkpt lat="-27.2700314" lon="151.294136">
  <ele>343.0</ele>
  <time>2026-09-01T19:57:08Z</time>
  <course>78.87</course>
  <speed>4.993155315028765</speed>
  <fix>3d</fix>
</trkpt>
<trkpt lat="-27.2700272" lon="151.2941343">
  <ele>346.91</ele>
  <time>2026-09-01T19:57:08Z</time>
  <course>65.39</course>
  <speed>4.950656522119061</speed>
  <fix>3d</fix>
</trkpt>
<trkpt lat="-27.2700294" lon="151.2941199">
  <ele>347.0</ele>
  <time>2026-09-01T19:57:08Z</time>
  <course>79.16</course>
  <speed>4.97</speed>
  <fix>3d</fix>
</trkpt>
<trkpt lat="-27.2700264" lon="151.2941393">
  <ele>346.86</ele>
  <time>2026-09-01T19:57:08Z</time>
  <course>65.4</course>
  <speed>4.960493927019768</speed>
  <fix>3d</fix>
</trkpt>
<trkpt lat="-27.2700277" lon="151.2941298">
  <ele>346.89</ele>
  <time>2026-09-01T19:57:08Z</time>
  <course>79.3</course>
  <speed>4.97</speed>
  <fix>3d</fix>
</trkpt>
<trkpt lat="-27.2700297" lon="151.2941459">
  <ele>343.0</ele>
  <time>2026-09-01T19:57:08Z</time>
  <course>78.98</course>
  <speed>4.991242330322181</speed>
  <fix>3d</fix>
</trkpt>
<trkpt lat="-27.2700255" lon="151.2941442">
  <ele>346.81</ele>
  <time>2026-09-01T19:57:08Z</time>
  <course>65.41</course>
  <speed>4.968551096647794</speed>
  <fix>3d</fix>
</trkpt>
<trkpt lat="-27.2700277" lon="151.2941298">
  <ele>346.89</ele>
  <time>2026-09-01T19:57:08Z</time>
  <course>79.3</course>
  <speed>4.97</speed>
  <fix>3d</fix>
</trkpt>
<trkpt lat="-27.2700247" lon="151.2941492">
  <ele>346.76</ele>
  <time>2026-09-01T19:57:08Z</time>
  <course>65.42</course>
  <speed>4.968551096647794</speed>
  <fix>3d</fix>
</trkpt>
<trkpt lat="-27.2700261" lon="151.2941397">
  <ele>346.78</ele>
  <time>2026-09-01T19:57:08Z</time>
  <course>79.43</course>
  <speed>4.98</speed>
  <fix>3d</fix>
</trkpt>
<trkpt lat="-27.270028" lon="151.2941559">
  <ele>343.0</ele>
  <time>2026-09-01T19:57:08Z</time>
  <course>79.1</course>
  <speed>4.989348654884723</speed>
  <fix>3d</fix>
</trkpt>
<trkpt lat="-27.2700239" lon="151.2941542">
  <ele>346.71</ele>
  <time>2026-09-01T19:57:08Z</time>
  <course>65.42</course>
  <speed>4.978393315116836</speed>
  <fix>3d</fix>
</trkpt>
<trkpt lat="-27.2700261" lon="151.2941397">
  <ele>346.78</ele>
  <time>2026-09-01T19:57:08Z</time>
  <course>79.43</course>
  <speed>4.98</speed>
  <fix>3d</fix>
</trkpt>
<trkpt lat="-27.2700231" lon="151.2941591">
  <ele>346.66</ele>
  <time>2026-09-01T19:57:08Z</time>
  <course>65.44</course>
  <speed>4.9864817256257945</speed>
  <fix>3d</fix>
</trkpt>
<trkpt lat="-27.2700245" lon="151.2941496">
  <ele>346.69</ele>
  <time>2026-09-01T19:57:08Z</time>
  <course>79.55</course>
  <speed>4.99</speed>
  <fix>3d</fix>
</trkpt>
<trkpt lat="-27.2700263" lon="151.2941658">
  <ele>343.0</ele>
  <time>2026-09-01T19:57:08Z</time>
  <course>79.21</course>
  <speed>4.997299270606074</speed>
  <fix>3d</fix>
</trkpt>
<trkpt lat="-27.2700223" lon="151.2941641">
  <ele>346.61</ele>
  <time>2026-09-01T19:57:08Z</time>
  <course>65.45</course>
  <speed>4.9864817256257945</speed>
  <fix>3d</fix>
</trkpt>
<trkpt lat="-27.2700245" lon="151.2941496">
  <ele>346.69</ele>
  <time>2026-09-01T19:57:08Z</time>
  <course>79.55</course>
  <speed>4.99</speed>
  <fix>3d</fix>
</trkpt>
<trkpt lat="-27.2700215" lon="151.2941691">
  <ele>346.56</ele>
  <time>2026-09-01T19:57:08Z</time>
  <course>65.46</course>
  <speed>4.996328652120475</speed>
  <fix>3d</fix>
</trkpt>
<trkpt lat="-27.2700228" lon="151.2941596">
  <ele>346.59</ele>
  <time>2026-09-01T19:57:08Z</time>
  <course>79.65</course>
  <speed>5.01</speed>
  <fix>3d</fix>
</trkpt>
<trkpt lat="-27.2700246" lon="151.2941757">
  <ele>343.0</ele>
  <time>2026-09-01T19:57:08Z</time>
  <course>79.33</course>
  <speed>4.9954479278639266</speed>
  <fix>3d</fix>
</trkpt>
<trkpt lat="-27.2700207" lon="151.2941741">
  <ele>346.51</ele>
  <time>2026-09-01T19:57:08Z</time>
  <course>65.47</course>
  <speed>4.994597080846462</speed>
  <fix>3d</fix>
</trkpt>
<trkpt lat="-27.2700228" lon="151.2941596">
  <ele>346.59</ele>
  <time>2026-09-01T19:57:08Z</time>
  <course>79.65</course>
  <speed>5.01</speed>
  <fix>3d</fix>
</trkpt>
<trkpt lat="-27.2700199" lon="151.2941791">
  <ele>346.46</ele>
  <time>2026-09-01T19:57:08Z</time>
  <course>65.47</course>
  <speed>4.994597080846462</speed>
  <fix>3d</fix>
</trkpt>
<trkpt lat="-27.2700212" lon="151.2941695">
  <ele>346.49</ele>
  <time>2026-09-01T19:57:08Z</time>
  <course>79.73</course>
  <speed>5.01</speed>
  <fix>3d</fix>
</trkpt>
<trkpt lat="-27.270023" lon="151.2941856">
  <ele>343.0</ele>
  <time>2026-09-01T19:57:08Z</time>
  <course>79.45</course>
  <speed>4.99361592435782</speed>
  <fix>3d</fix>
</trkpt>
<trkpt lat="-27.2700191" lon="151.294184">
  <ele>346.42</ele>
  <time>2026-09-01T19:57:08Z</time>
  <course>65.47</course>
  <speed>4.994597080846462</speed>
  <fix>3d</fix>
</trkpt>
<trkpt lat="-27.2700212" lon="151.2941695">
  <ele>346.49</ele>
  <time>2026-09-01T19:57:08Z</time>
  <course>79.73</course>
  <speed>5.01</speed>
  <fix>3d</fix>
</trkpt>
<trkpt lat="-27.2700183" lon="151.294189">
  <ele>346.37</ele>
  <time>2026-09-01T19:57:08Z</time>
  <course>65.47</course>
  <speed>4.992884937588688</speed>
  <fix>3d</fix>
</trkpt>
<trkpt lat="-27.2700196" lon="151.2941795">
  <ele>346.39</ele>
  <time>2026-09-01T19:57:08Z</time>
  <course>79.82</course>
  <speed>5.01</speed>
  <fix>3d</fix>
</trkpt>
<trkpt lat="-27.2700213" lon="151.2941956">
  <ele>343.0</ele>
  <time>2026-09-01T19:57:08Z</time>
  <course>79.56</course>
  <speed>4.991803281380387</speed>
  <fix>3d</fix>
</trkpt>
<trkpt lat="-27.2700175" lon="151.294194">
  <ele>346.32</ele>
  <time>2026-09-01T19:57:08Z</time>
  <course>65.47</course>
  <speed>4.983031206003028</speed>
  <fix>3d</fix>
</trkpt>
<trkpt lat="-27.2700196" lon="151.2941795">
  <ele>346.39</ele>
  <time>2026-09-01T19:57:08Z</time>
  <course>79.82</course>
  <speed>5.01</speed>
  <fix>3d</fix>
</trkpt>
<trkpt lat="-27.2700167" lon="151.2941991">
  <ele>346.27</ele>
  <time>2026-09-01T19:57:08Z</time>
  <course>65.47</course>
  <speed>4.981335162383676</speed>
  <fix>3d</fix>
</trkpt>
<trkpt lat="-27.270018" lon="151.2941895">
  <ele>346.3</ele>
  <time>2026-09-01T19:57:08Z</time>
  <course>79.92</course>
  <speed>5.01</speed>
  <fix>3d</fix>
</trkpt>
<trkpt lat="-27.2700197" lon="151.2942055">
  <ele>343.0</ele>
  <time>2026-09-01T19:57:08Z</time>
  <course>79.68</course>
  <speed>4.99001002003002</speed>
  <fix>3d</fix>
</trkpt>
<trkpt lat="-27.2700159" lon="151.294204">
  <ele>346.22</ele>
  <time>2026-09-01T19:57:08Z</time>
  <course>65.47</course>
  <speed>4.981335162383676</speed>
  <fix>3d</fix>
</trkpt>
<trkpt lat="-27.270018" lon="151.2941895">
  <ele>346.3</ele>
  <time>2026-09-01T19:57:08Z</time>
  <course>79.92</course>
  <speed>5.01</speed>
  <fix>3d</fix>
</trkpt>
<trkpt lat="-27.2700152" lon="151.294209">
  <ele>346.17</ele>
  <time>2026-09-01T19:57:08Z</time>
  <course>65.47</course>
  <speed>4.979658622837514</speed>
  <fix>3d</fix>
</trkpt>
<trkpt lat="-27.2700164" lon="151.2941995">
  <ele>346.2</ele>
  <time>2026-09-01T19:57:08Z</time>
  <course>80.02</course>
  <speed>5.01</speed>
  <fix>3d</fix>
</trkpt>
<trkpt lat="-27.2700181" lon="151.2942154">
  <ele>343.0</ele>
  <time>2026-09-01T19:57:08Z</time>
  <course>79.79</course>
  <speed>4.998079631218374</speed>
  <fix>3d</fix>
</trkpt>
<trkpt lat="-27.2700144" lon="151.2942142">
  <ele>346.12</ele>
  <time>2026-09-01T19:57:08Z</time>
  <course>65.47</course>
  <speed>4.979658622837514</speed>
  <fix>3d</fix>
</trkpt>
<trkpt lat="-27.2700149" lon="151.2942095">
  <ele>346.09</ele>
  <time>2026-09-01T19:57:08Z</time>
  <course>80.13</course>
  <speed>5.0</speed>
  <fix>3d</fix>
</trkpt>
<trkpt lat="-27.2700136" lon="151.2942191">
  <ele>346.07</ele>
  <time>2026-09-01T19:57:08Z</time>
  <course>65.47</course>
  <speed>4.978001607070854</speed>
  <fix>3d</fix>
</trkpt>
<trkpt lat="-27.2700149" lon="151.2942095">
  <ele>346.09</ele>
  <time>2026-09-01T19:57:08Z</time>
  <course>80.13</course>
  <speed>5.0</speed>
  <fix>3d</fix>
</trkpt>
<trkpt lat="-27.2700165" lon="151.2942253">
  <ele>343.0</ele>
  <time>2026-09-01T19:57:08Z</time>
  <course>79.91</course>
  <speed>4.996328652120475</speed>
  <fix>3d</fix>
</trkpt>
<trkpt lat="-27.2700129" lon="151.2942241">
  <ele>346.02</ele>
  <time>2026-09-01T19:57:08Z</time>
  <course>65.46</course>
  <speed>4.978001607070854</speed>
  <fix>3d</fix>
</trkpt>
<trkpt lat="-27.2700133" lon="151.2942195">
  <ele>346.0</ele>
  <time>2026-09-01T19:57:08Z</time>
  <course>80.23</course>
  <speed>5.0</speed>
  <fix>3d</fix>
</trkpt>
<trkpt lat="-27.2700121" lon="151.2942291">
  <ele>345.97</ele>
  <time>2026-09-01T19:57:08Z</time>
  <course>65.46</course>
  <speed>4.978001607070854</speed>
  <fix>3d</fix>
</trkpt>
<trkpt lat="-27.2700133" lon="151.2942195">
  <ele>346.0</ele>
  <time>2026-09-01T19:57:08Z</time>
  <course>80.23</course>
  <speed>5.0</speed>
  <fix>3d</fix>
</trkpt>
<trkpt lat="-27.2700149" lon="151.2942353">
  <ele>343.0</ele>
  <time>2026-09-01T19:57:08Z</time>
  <course>80.02</course>
  <speed>4.994597080846462</speed>
  <fix>3d</fix>
</trkpt>
<trkpt lat="-27.2700113" lon="151.2942341">
  <ele>345.92</ele>
  <time>2026-09-01T19:57:08Z</time>
  <course>65.46</course>
  <speed>4.986231041578399</speed>
  <fix>3d</fix>
</trkpt>
<trkpt lat="-27.2700118" lon="151.2942294">
  <ele>345.9</ele>
  <time>2026-09-01T19:57:08Z</time>
  <course>80.31</course>
  <speed>5.0</speed>
  <fix>3d</fix>
</trkpt>
<trkpt lat="-27.2700106" lon="151.2942391">
  <ele>345.87</ele>
  <time>2026-09-01T19:57:08Z</time>
  <course>65.46</course>
  <speed>4.986231041578399</speed>
  <fix>3d</fix>
</trkpt>
<trkpt lat="-27.2700118" lon="151.2942294">
  <ele>345.9</ele>
  <time>2026-09-01T19:57:08Z</time>
  <course>80.31</course>
  <speed>5.0</speed>
  <fix>3d</fix>
</trkpt>
<trkpt lat="-27.2700134" lon="151.2942452">
  <ele>343.0</ele>
  <time>2026-09-01T19:57:08Z</time>
  <course>80.14</course>
  <speed>4.992884937588688</speed>
  <fix>3d</fix>
</trkpt>
<trkpt lat="-27.2700098" lon="151.294244">
  <ele>345.82</ele>
  <time>2026-09-01T19:57:08Z</time>
  <course>65.46</course>
  <speed>4.974746224683225</speed>
  <fix>3d</fix>
</trkpt>
<trkpt lat="-27.2700118" lon="151.2942294">
  <ele>345.9</ele>
  <time>2026-09-01T19:57:08Z</time>
  <course>80.31</course>
  <speed>5.0</speed>
  <fix>3d</fix>
</trkpt>
<trkpt lat="-27.2700091" lon="151.294249">
  <ele>345.77</ele>
  <time>2026-09-01T19:57:08Z</time>
  <course>65.46</course>
  <speed>4.974746224683225</speed>
  <fix>3d</fix>
</trkpt>
<trkpt lat="-27.2700103" lon="151.2942393">
  <ele>345.81</ele>
  <time>2026-09-01T19:57:08Z</time>
  <course>80.4</course>
  <speed>5.0</speed>
  <fix>3d</fix>
</trkpt>
<trkpt lat="-27.2700119" lon="151.2942551">
  <ele>343.0</ele>
  <time>2026-09-01T19:57:08Z</time>
  <course>80.25</course>
  <speed>4.991192242340501</speed>
  <fix>3d</fix>
</trkpt>
<trkpt lat="-27.2700083" lon="151.294254">
  <ele>345.73</ele>
  <time>2026-09-01T19:57:08Z</time>
  <course>65.46</course>
  <speed>4.973147896453513</speed>
  <fix>3d</fix>
</trkpt>
<trkpt lat="-27.2700103" lon="151.2942393">
  <ele>345.81</ele>
  <time>2026-09-01T19:57:08Z</time>
  <course>80.4</course>
  <speed>5.0</speed>
  <fix>3d</fix>
</trkpt>
<trkpt lat="-27.2700076" lon="151.294259">
  <ele>345.68</ele>
  <time>2026-09-01T19:57:08Z</time>
  <course>65.45</course>
  <speed>4.973147896453513</speed>
  <fix>3d</fix>
</trkpt>
<trkpt lat="-27.2700088" lon="151.2942494">
  <ele>345.7</ele>
  <time>2026-09-01T19:57:08Z</time>
  <course>80.5</course>
  <speed>5.0</speed>
  <fix>3d</fix>
</trkpt>
<trkpt lat="-27.2700104" lon="151.2942651">
  <ele>343.0</ele>
  <time>2026-09-01T19:57:08Z</time>
  <course>80.37</course>
  <speed>4.989519014895123</speed>
  <fix>3d</fix>
</trkpt>
<trkpt lat="-27.2700069" lon="151.2942639">
  <ele>345.63</ele>
  <time>2026-09-01T19:57:08Z</time>
  <course>65.45</course>
  <speed>4.971569168783635</speed>
  <fix>3d</fix>
</trkpt>
<trkpt lat="-27.2700088" lon="151.2942494">
  <ele>345.7</ele>
  <time>2026-09-01T19:57:08Z</time>
  <course>80.5</course>
  <speed>5.0</speed>
  <fix>3d</fix>
</trkpt>
<trkpt lat="-27.2700061" lon="151.2942689">
  <ele>345.58</ele>
  <time>2026-09-01T19:57:08Z</time>
  <course>65.44</course>
  <speed>4.971569168783635</speed>
  <fix>3d</fix>
</trkpt>
<trkpt lat="-27.2700074" lon="151.2942593">
  <ele>345.59</ele>
  <time>2026-09-01T19:57:08Z</time>
  <course>80.61</course>
  <speed>4.99</speed>
  <fix>3d</fix>
</trkpt>
<trkpt lat="-27.2700089" lon="151.2942751">
  <ele>343.0</ele>
  <time>2026-09-01T19:57:08Z</time>
  <course>80.48</course>
  <speed>4.997729484475926</speed>
  <fix>3d</fix>
</trkpt>
<trkpt lat="-27.2700054" lon="151.2942739">
  <ele>345.53</ele>
  <time>2026-09-01T19:57:08Z</time>
  <course>65.44</course>
  <speed>4.971569168783635</speed>
  <fix>3d</fix>
</trkpt>
<trkpt lat="-27.2700074" lon="151.2942593">
  <ele>345.59</ele>
  <time>2026-09-01T19:57:08Z</time>
  <course>80.61</course>
  <speed>4.99</speed>
  <fix>3d</fix>
</trkpt>
<trkpt lat="-27.2700047" lon="151.2942789">
  <ele>345.48</ele>
  <time>2026-09-01T19:57:08Z</time>
  <course>65.44</course>
  <speed>4.970010060351991</speed>
  <fix>3d</fix>
</trkpt>
<trkpt lat="-27.2700059" lon="151.2942693">
  <ele>345.5</ele>
  <time>2026-09-01T19:57:08Z</time>
  <course>80.71</course>
  <speed>4.99</speed>
  <fix>3d</fix>
</trkpt>
<trkpt lat="-27.2700074" lon="151.2942851">
  <ele>343.0</ele>
  <time>2026-09-01T19:57:08Z</time>
  <course>80.6</course>
  <speed>4.9960984778124615</speed>
  <fix>3d</fix>
</trkpt>
<trkpt lat="-27.270004" lon="151.2942838">
  <ele>345.43</ele>
  <time>2026-09-01T19:57:08Z</time>
  <course>65.43</course>
  <speed>4.960131046655925</speed>
  <fix>3d</fix>
</trkpt>
<trkpt lat="-27.2700059" lon="151.2942693">
  <ele>345.5</ele>
  <time>2026-09-01T19:57:08Z</time>
  <course>80.71</course>
  <speed>4.99</speed>
  <fix>3d</fix>
</trkpt>
<trkpt lat="-27.2700033" lon="151.2942888">
  <ele>345.38</ele>
  <time>2026-09-01T19:57:08Z</time>
  <course>65.42</course>
  <speed>4.95858850883999</speed>
  <fix>3d</fix>
</trkpt>
<trkpt lat="-27.2700045" lon="151.2942792">
  <ele>345.4</ele>
  <time>2026-09-01T19:57:08Z</time>
  <course>80.8</course>
  <speed>4.98</speed>
  <fix>3d</fix>
</trkpt>
<trkpt lat="-27.270006" lon="151.2942951">
  <ele>343.0</ele>
  <time>2026-09-01T19:57:08Z</time>
  <course>80.71</course>
  <speed>4.994486960639701</speed>
  <fix>3d</fix>
</trkpt>
<trkpt lat="-27.2700026" lon="151.2942938">
  <ele>345.33</ele>
  <time>2026-09-01T19:57:08Z</time>
  <course>65.42</course>
  <speed>4.95858850883999</speed>
  <fix>3d</fix>
</trkpt>
<trkpt lat="-27.2700045" lon="151.2942792">
  <ele>345.4</ele>
  <time>2026-09-01T19:57:08Z</time>
  <course>80.8</course>
  <speed>4.98</speed>
  <fix>3d</fix>
</trkpt>
<trkpt lat="-27.2700019" lon="151.2942988">
  <ele>345.28</ele>
  <time>2026-09-01T19:57:08Z</time>
  <course>65.41</course>
  <speed>4.957065664281642</speed>
  <fix>3d</fix>
</trkpt>
<trkpt lat="-27.270003" lon="151.2942891">
  <ele>345.3</ele>
  <time>2026-09-01T19:57:08Z</time>
  <course>80.9</course>
  <speed>4.98</speed>
  <fix>3d</fix>
</trkpt>
<trkpt lat="-27.2700045" lon="151.2943051">
  <ele>343.0</ele>
  <time>2026-09-01T19:57:08Z</time>
  <course>80.83</course>
  <speed>4.992894951829049</speed>
  <fix>3d</fix>
</trkpt>
<trkpt lat="-27.2700012" lon="151.2943038">
  <ele>345.22</ele>
  <time>2026-09-01T19:57:08Z</time>
  <course>65.41</course>
  <speed>4.957065664281642</speed>
  <fix>3d</fix>
</trkpt>
<trkpt lat="-27.270003" lon="151.2942891">
  <ele>345.3</ele>
  <time>2026-09-01T19:57:08Z</time>
  <course>80.9</course>
  <speed>4.98</speed>
  <fix>3d</fix>
</trkpt>
<trkpt lat="-27.2700005" lon="151.2943088">
  <ele>345.17</ele>
  <time>2026-09-01T19:57:08Z</time>
  <course>65.41</course>
  <speed>4.9555625311360965</speed>
  <fix>3d</fix>
</trkpt>
<trkpt lat="-27.2700017" lon="151.2942992">
  <ele>345.2</ele>
  <time>2026-09-01T19:57:08Z</time>
  <course>81.02</course>
  <speed>4.97</speed>
  <fix>3d</fix>
</trkpt>
<trkpt lat="-27.2700031" lon="151.2943151">
  <ele>343.0</ele>
  <time>2026-09-01T19:57:08Z</time>
  <course>80.95</course>
  <speed>4.991322470047392</speed>
  <fix>3d</fix>
</trkpt>
<trkpt lat="-27.2699998" lon="151.2943138">
  <ele>345.12</ele>
  <time>2026-09-01T19:57:08Z</time>
  <course>65.41</course>
  <speed>4.965450634131811</speed>
  <fix>3d</fix>
</trkpt>
<trkpt lat="-27.2700017" lon="151.2942992">
  <ele>345.2</ele>
  <time>2026-09-01T19:57:08Z</time>
  <course>81.02</course>
  <speed>4.97</speed>
  <fix>3d</fix>
</trkpt>
<trkpt lat="-27.2699991" lon="151.2943189">
  <ele>345.07</ele>
  <time>2026-09-01T19:57:08Z</time>
  <course>65.41</course>
  <speed>4.963970185244872</speed>
  <fix>3d</fix>
</trkpt>
<trkpt lat="-27.2700003" lon="151.2943091">
  <ele>345.09</ele>
  <time>2026-09-01T19:57:08Z</time>
  <course>81.13</course>
  <speed>4.97</speed>
  <fix>3d</fix>
</trkpt>
<trkpt lat="-27.2700017" lon="151.2943251">
  <ele>343.0</ele>
  <time>2026-09-01T19:57:08Z</time>
  <course>81.06</course>
  <speed>4.989769533756043</speed>
  <fix>3d</fix>
</trkpt>
<trkpt lat="-27.2699984" lon="151.2943239">
  <ele>345.02</ele>
  <time>2026-09-01T19:57:08Z</time>
  <course>65.41</course>
  <speed>4.963970185244872</speed>
  <fix>3d</fix>
</trkpt>
<trkpt lat="-27.2699989" lon="151.2943191">
  <ele>344.99</ele>
  <time>2026-09-01T19:57:08Z</time>
  <course>81.24</course>
  <speed>4.98</speed>
  <fix>3d</fix>
</trkpt>
<trkpt lat="-27.2699978" lon="151.2943289">
  <ele>344.96</ele>
  <time>2026-09-01T19:57:08Z</time>
  <course>65.41</course>
  <speed>4.972403845224159</speed>
  <fix>3d</fix>
</trkpt>
<trkpt lat="-27.2699989" lon="151.2943191">
  <ele>344.99</ele>
  <time>2026-09-01T19:57:08Z</time>
  <course>81.24</course>
  <speed>4.98</speed>
  <fix>3d</fix>
</trkpt>
<trkpt lat="-27.2700003" lon="151.2943351">
  <ele>343.0</ele>
  <time>2026-09-01T19:57:08Z</time>
  <course>81.18</course>
  <speed>4.998119646427044</speed>
  <fix>3d</fix>
</trkpt>
<trkpt lat="-27.2699971" lon="151.2943339">
  <ele>344.91</ele>
  <time>2026-09-01T19:57:08Z</time>
  <course>65.41</course>
  <speed>4.982298666278448</speed>
  <fix>3d</fix>
</trkpt>
<trkpt lat="-27.2699975" lon="151.294329">
  <ele>344.89</ele>
  <time>2026-09-01T19:57:08Z</time>
  <course>81.34</course>
  <speed>4.99</speed>
  <fix>3d</fix>
</trkpt>
<trkpt lat="-27.2699964" lon="151.2943389">
  <ele>344.86</ele>
  <time>2026-09-01T19:57:08Z</time>
  <course>65.42</course>
  <speed>4.982298666278448</speed>
  <fix>3d</fix>
</trkpt>
<trkpt lat="-27.2699975" lon="151.294329">
  <ele>344.89</ele>
  <time>2026-09-01T19:57:08Z</time>
  <course>81.34</course>
  <speed>4.99</speed>
  <fix>3d</fix>
</trkpt>
<trkpt lat="-27.2699989" lon="151.2943451">
  <ele>343.0</ele>
  <time>2026-09-01T19:57:08Z</time>
  <course>81.29</course>
  <speed>4.996608850010174</speed>
  <fix>3d</fix>
</trkpt>
<trkpt lat="-27.2699957" lon="151.2943439">
  <ele>344.81</ele>
  <time>2026-09-01T19:57:08Z</time>
  <course>65.42</course>
  <speed>4.990761464947008</speed>
  <fix>3d</fix>
</trkpt>
<trkpt lat="-27.2699962" lon="151.2943389">
  <ele>344.78</ele>
  <time>2026-09-01T19:57:08Z</time>
  <course>81.45</course>
  <speed>5.0</speed>
  <fix>3d</fix>
</trkpt>
<trkpt lat="-27.2699951" lon="151.2943489">
  <ele>344.76</ele>
  <time>2026-09-01T19:57:08Z</time>
  <course>65.43</course>
  <speed>4.990761464947008</speed>
  <fix>3d</fix>
</trkpt>
<trkpt lat="-27.2699962" lon="151.2943389">
  <ele>344.78</ele>
  <time>2026-09-01T19:57:08Z</time>
  <course>81.45</course>
  <speed>5.0</speed>
  <fix>3d</fix>
</trkpt>
<trkpt lat="-27.2699976" lon="151.2943551">
  <ele>343.0</ele>
  <time>2026-09-01T19:57:08Z</time>
  <course>81.41</course>
  <speed>4.995117616232875</speed>
  <fix>3d</fix>
</trkpt>
<trkpt lat="-27.2699944" lon="151.294354">
  <ele>344.71</ele>
  <time>2026-09-01T19:57:08Z</time>
  <course>65.43</course>
  <speed>5.000659956445749</speed>
  <fix>3d</fix>
</trkpt>
<trkpt lat="-27.2699949" lon="151.294349">
  <ele>344.69</ele>
  <time>2026-09-01T19:57:08Z</time>
  <course>81.54</course>
  <speed>5.01</speed>
  <fix>3d</fix>
</trkpt>
<trkpt lat="-27.2699938" lon="151.294359">
  <ele>344.66</ele>
  <time>2026-09-01T19:57:08Z</time>
  <course>65.44</course>
  <speed>4.999249943741561</speed>
  <fix>3d</fix>
</trkpt>
<trkpt lat="-27.2699949" lon="151.294349">
  <ele>344.69</ele>
  <time>2026-09-01T19:57:08Z</time>
  <course>81.54</course>
  <speed>5.01</speed>
  <fix>3d</fix>
</trkpt>
<trkpt lat="-27.2699962" lon="151.2943651">
  <ele>343.0</ele>
  <time>2026-09-01T19:57:08Z</time>
  <course>81.52</course>
  <speed>4.993645962620898</speed>
  <fix>3d</fix>
</trkpt>
<trkpt lat="-27.2699931" lon="151.294364">
  <ele>344.62</ele>
  <time>2026-09-01T19:57:08Z</time>
  <course>65.45</course>
  <speed>5.009151624776395</speed>
  <fix>3d</fix>
</trkpt>
<trkpt lat="-27.2699935" lon="151.294359">
  <ele>344.59</ele>
  <time>2026-09-01T19:57:08Z</time>
  <course>81.63</course>
  <speed>5.02</speed>
  <fix>3d</fix>
</trkpt>
<trkpt lat="-27.2699925" lon="151.294369">
  <ele>344.57</ele>
  <time>2026-09-01T19:57:08Z</time>
  <course>65.45</course>
  <speed>5.009151624776395</speed>
  <fix>3d</fix>
</trkpt>
<trkpt lat="-27.2699935" lon="151.294359">
  <ele>344.59</ele>
  <time>2026-09-01T19:57:08Z</time>
  <course>81.63</course>
  <speed>5.02</speed>
  <fix>3d</fix>
</trkpt>
<trkpt lat="-27.2699949" lon="151.2943751">
  <ele>343.0</ele>
  <time>2026-09-01T19:57:08Z</time>
  <course>81.64</course>
  <speed>4.992193906490412</speed>
  <fix>3d</fix>
</trkpt>
<trkpt lat="-27.2699918" lon="151.294374">
  <ele>344.52</ele>
  <time>2026-09-01T19:57:08Z</time>
  <course>65.46</course>
  <speed>5.0077639720737634</speed>
  <fix>3d</fix>
</trkpt>
<trkpt lat="-27.2699922" lon="151.294369">
  <ele>344.49</ele>
  <time>2026-09-01T19:57:08Z</time>
  <course>81.71</course>
  <speed>5.02</speed>
  <fix>3d</fix>
</trkpt>
<trkpt lat="-27.2699912" lon="151.294379">
  <ele>344.47</ele>
  <time>2026-09-01T19:57:08Z</time>
  <course>65.46</course>
  <speed>5.0077639720737634</speed>
  <fix>3d</fix>
</trkpt>
<trkpt lat="-27.2699922" lon="151.294369">
  <ele>344.49</ele>
  <time>2026-09-01T19:57:08Z</time>
  <course>81.71</course>
  <speed>5.02</speed>
  <fix>3d</fix>
</trkpt>
<trkpt lat="-27.2699936" lon="151.2943851">
  <ele>343.0</ele>
  <time>2026-09-01T19:57:08Z</time>
  <course>81.75</course>
  <speed>4.990761464947008</speed>
  <fix>3d</fix>
</trkpt>
<trkpt lat="-27.2699905" lon="151.2943839">
  <ele>344.43</ele>
  <time>2026-09-01T19:57:08Z</time>
  <course>65.47</course>
  <speed>5.0077639720737634</speed>
  <fix>3d</fix>
</trkpt>
<trkpt lat="-27.2699922" lon="151.294369">
  <ele>344.49</ele>
  <time>2026-09-01T19:57:08Z</time>
  <course>81.71</course>
  <speed>5.02</speed>
  <fix>3d</fix>
</trkpt>
<trkpt lat="-27.2699899" lon="151.294389">
  <ele>344.38</ele>
  <time>2026-09-01T19:57:08Z</time>
  <course>65.47</course>
  <speed>5.006395909234506</speed>
  <fix>3d</fix>
</trkpt>
<trkpt lat="-27.2699909" lon="151.2943791">
  <ele>344.39</ele>
  <time>2026-09-01T19:57:08Z</time>
  <course>81.79</course>
  <speed>5.02</speed>
  <fix>3d</fix>
</trkpt>
<trkpt lat="-27.2699924" lon="151.2943951">
  <ele>343.0</ele>
  <time>2026-09-01T19:57:08Z</time>
  <course>81.87</course>
  <speed>4.989348654884723</speed>
  <fix>3d</fix>
</trkpt>
<trkpt lat="-27.2699893" lon="151.294394">
  <ele>344.33</ele>
  <time>2026-09-01T19:57:08Z</time>
  <course>65.48</course>
  <speed>5.006395909234506</speed>
  <fix>3d</fix>
</trkpt>
<trkpt lat="-27.2699909" lon="151.2943791">
  <ele>344.39</ele>
  <time>2026-09-01T19:57:08Z</time>
  <course>81.79</course>
  <speed>5.02</speed>
  <fix>3d</fix>
</trkpt>
<trkpt lat="-27.2699886" lon="151.294399">
  <ele>344.28</ele>
  <time>2026-09-01T19:57:08Z</time>
  <course>65.48</course>
  <speed>4.995137635741382</speed>
  <fix>3d</fix>
</trkpt>
<trkpt lat="-27.2699897" lon="151.2943892">
  <ele>344.28</ele>
  <time>2026-09-01T19:57:08Z</time>
  <course>81.87</course>
  <speed>5.02</speed>
  <fix>3d</fix>
</trkpt>
<trkpt lat="-27.2699911" lon="151.2944051">
  <ele>343.0</ele>
  <time>2026-09-01T19:57:08Z</time>
  <course>81.98</course>
  <speed>4.997859541843888</speed>
  <fix>3d</fix>
</trkpt>
<trkpt lat="-27.269988" lon="151.2944041">
  <ele>344.23</ele>
  <time>2026-09-01T19:57:08Z</time>
  <course>65.48</course>
  <speed>4.995137635741382</speed>
  <fix>3d</fix>
</trkpt>
<trkpt lat="-27.2699897" lon="151.2943892">
  <ele>344.28</ele>
  <time>2026-09-01T19:57:08Z</time>
  <course>81.87</course>
  <speed>5.02</speed>
  <fix>3d</fix>
</trkpt>
<trkpt lat="-27.2699874" lon="151.2944091">
  <ele>344.18</ele>
  <time>2026-09-01T19:57:08Z</time>
  <course>65.47</course>
  <speed>4.993806163639114</speed>
  <fix>3d</fix>
</trkpt>
<trkpt lat="-27.2699884" lon="151.2943992">
  <ele>344.19</ele>
  <time>2026-09-01T19:57:08Z</time>
  <course>81.95</course>
  <speed>5.02</speed>
  <fix>3d</fix>
</trkpt>
<trkpt lat="-27.2699898" lon="151.2944151">
  <ele>343.0</ele>
  <time>2026-09-01T19:57:08Z</time>
  <course>82.1</course>
  <speed>4.99648876712437</speed>
  <fix>3d</fix>
</trkpt>
<trkpt lat="-27.2699868" lon="151.2944141">
  <ele>344.14</ele>
  <time>2026-09-01T19:57:08Z</time>
  <course>65.47</course>
  <speed>4.98389405986925</speed>
  <fix>3d</fix>
</trkpt>
<trkpt lat="-27.2699884" lon="151.2943992">
  <ele>344.19</ele>
  <time>2026-09-01T19:57:08Z</time>
  <course>81.95</course>
  <speed>5.02</speed>
  <fix>3d</fix>
</trkpt>
<trkpt lat="-27.2699861" lon="151.2944193">
  <ele>344.08</ele>
  <time>2026-09-01T19:57:08Z</time>
  <course>65.47</course>
  <speed>4.982579653151568</speed>
  <fix>3d</fix>
</trkpt>
<trkpt lat="-27.2699871" lon="151.2944093">
  <ele>344.09</ele>
  <time>2026-09-01T19:57:08Z</time>
  <course>82.06</course>
  <speed>5.01</speed>
  <fix>3d</fix>
</trkpt>
<trkpt lat="-27.2699886" lon="151.2944251">
  <ele>343.0</ele>
  <time>2026-09-01T19:57:08Z</time>
  <course>82.22</course>
  <speed>4.995137635741382</speed>
  <fix>3d</fix>
</trkpt>
<trkpt lat="-27.2699855" lon="151.2944243">
  <ele>344.04</ele>
  <time>2026-09-01T19:57:08Z</time>
  <course>65.46</course>
  <speed>4.972665281315444</speed>
  <fix>3d</fix>
</trkpt>
<trkpt lat="-27.2699859" lon="151.2944193">
  <ele>343.99</ele>
  <time>2026-09-01T19:57:08Z</time>
  <course>82.18</course>
  <speed>5.0</speed>
  <fix>3d</fix>
</trkpt>
<trkpt lat="-27.2699849" lon="151.2944292">
  <ele>343.99</ele>
  <time>2026-09-01T19:57:08Z</time>
  <course>65.46</course>
  <speed>4.971368020977726</speed>
  <fix>3d</fix>
</trkpt>
<trkpt lat="-27.2699859" lon="151.2944193">
  <ele>343.99</ele>
  <time>2026-09-01T19:57:08Z</time>
  <course>82.18</course>
  <speed>5.0</speed>
  <fix>3d</fix>
</trkpt>
<trkpt lat="-27.2699874" lon="151.2944351">
  <ele>343.0</ele>
  <time>2026-09-01T19:57:08Z</time>
  <course>82.33</course>
  <speed>4.993806163639114</speed>
  <fix>3d</fix>
</trkpt>
<trkpt lat="-27.2699843" lon="151.2944342">
  <ele>343.94</ele>
  <time>2026-09-01T19:57:09Z</time>
  <course>65.45</course>
  <speed>4.970090542434815</speed>
  <fix>3d</fix>
</trkpt>
<trkpt lat="-27.2699847" lon="151.2944294">
  <ele>343.89</ele>
  <time>2026-09-01T19:57:09Z</time>
  <course>82.31</course>
  <speed>4.99</speed>
  <fix>3d</fix>
</trkpt>
<trkpt lat="-27.2699837" lon="151.2944392">
  <ele>343.89</ele>
  <time>2026-09-01T19:57:09Z</time>
  <course>65.45</course>
  <speed>4.96017136800736</speed>
  <fix>3d</fix>
</trkpt>
<trkpt lat="-27.2699847" lon="151.2944294">
  <ele>343.89</ele>
  <time>2026-09-01T19:57:09Z</time>
  <course>82.31</course>
  <speed>4.99</speed>
  <fix>3d</fix>
</trkpt>
<trkpt lat="-27.2699862" lon="151.2944451">
  <ele>343.0</ele>
  <time>2026-09-01T19:57:09Z</time>
  <course>82.45</course>
  <speed>4.992494366546646</speed>
  <fix>3d</fix>
</trkpt>
<trkpt lat="-27.2699831" lon="151.2944442">
  <ele>343.84</ele>
  <time>2026-09-01T19:57:09Z</time>
  <course>65.44</course>
  <speed>4.958911170811593</speed>
  <fix>3d</fix>
</trkpt>
<trkpt lat="-27.2699835" lon="151.2944393">
  <ele>343.78</ele>
  <time>2026-09-01T19:57:09Z</time>
  <course>82.45</course>
  <speed>4.98</speed>
  <fix>3d</fix>
</trkpt>
<trkpt lat="-27.2699826" lon="151.2944493">
  <ele>343.79</ele>
  <time>2026-09-01T19:57:09Z</time>
  <course>65.44</course>
  <speed>4.95767082408665</speed>
  <fix>3d</fix>
</trkpt>
<trkpt lat="-27.2699835" lon="151.2944393">
  <ele>343.78</ele>
  <time>2026-09-01T19:57:09Z</time>
  <course>82.45</course>
  <speed>4.98</speed>
  <fix>3d</fix>
</trkpt>
<trkpt lat="-27.269985" lon="151.2944551">
  <ele>343.0</ele>
  <time>2026-09-01T19:57:09Z</time>
  <course>82.56</course>
  <speed>4.991202259977049</speed>
  <fix>3d</fix>
</trkpt>
<trkpt lat="-27.269982" lon="151.2944543">
  <ele>343.73</ele>
  <time>2026-09-01T19:57:09Z</time>
  <course>65.44</course>
  <speed>4.95767082408665</speed>
  <fix>3d</fix>
</trkpt>
<trkpt lat="-27.2699823" lon="151.2944493">
  <ele>343.69</ele>
  <time>2026-09-01T19:57:09Z</time>
  <course>82.58</course>
  <speed>4.98</speed>
  <fix>3d</fix>
</trkpt>
<trkpt lat="-27.2699814" lon="151.2944593">
  <ele>343.68</ele>
  <time>2026-09-01T19:57:09Z</time>
  <course>65.44</course>
  <speed>4.956450342735212</speed>
  <fix>3d</fix>
</trkpt>
<trkpt lat="-27.2699823" lon="151.2944493">
  <ele>343.69</ele>
  <time>2026-09-01T19:57:09Z</time>
  <course>82.58</course>
  <speed>4.98</speed>
  <fix>3d</fix>
</trkpt>
<trkpt lat="-27.2699839" lon="151.2944651">
  <ele>343.0</ele>
  <time>2026-09-01T19:57:09Z</time>
  <course>82.68</course>
  <speed>4.98992985922648</speed>
  <fix>3d</fix>
</trkpt>
<trkpt lat="-27.2699809" lon="151.2944642">
  <ele>343.63</ele>
  <time>2026-09-01T19:57:09Z</time>
  <course>65.44</course>
  <speed>4.966376949044444</speed>
  <fix>3d</fix>
</trkpt>
<trkpt lat="-27.2699812" lon="151.2944592">
  <ele>343.58</ele>
  <time>2026-09-01T19:57:09Z</time>
  <course>82.71</course>
  <speed>4.98</speed>
  <fix>3d</fix>
</trkpt>
<trkpt lat="-27.2699803" lon="151.2944692">
  <ele>343.57</ele>
  <time>2026-09-01T19:57:09Z</time>
  <course>65.44</course>
  <speed>4.965178748041202</speed>
  <fix>3d</fix>
</trkpt>
<trkpt lat="-27.2699812" lon="151.2944592">
  <ele>343.58</ele>
  <time>2026-09-01T19:57:09Z</time>
  <course>82.71</course>
  <speed>4.98</speed>
  <fix>3d</fix>
</trkpt>
<trkpt lat="-27.2699828" lon="151.294475">
  <ele>343.0</ele>
  <time>2026-09-01T19:57:09Z</time>
  <course>82.79</course>
  <speed>4.998599803945101</speed>
  <fix>3d</fix>
</trkpt>
<trkpt lat="-27.2699797" lon="151.2944742">
  <ele>343.52</ele>
  <time>2026-09-01T19:57:09Z</time>
  <course>65.44</course>
  <speed>4.965178748041202</speed>
  <fix>3d</fix>
</trkpt>
<trkpt lat="-27.2699801" lon="151.2944693">
  <ele>343.47</ele>
  <time>2026-09-01T19:57:09Z</time>
  <course>82.82</course>
  <speed>4.98</speed>
  <fix>3d</fix>
</trkpt>
<trkpt lat="-27.2699792" lon="151.2944792">
  <ele>343.47</ele>
  <time>2026-09-01T19:57:09Z</time>
  <course>65.44</course>
  <speed>4.973932046178355</speed>
  <fix>3d</fix>
</trkpt>
<trkpt lat="-27.2699801" lon="151.2944693">
  <ele>343.47</ele>
  <time>2026-09-01T19:57:09Z</time>
  <course>82.82</course>
  <speed>4.98</speed>
  <fix>3d</fix>
</trkpt>
<trkpt lat="-27.2699817" lon="151.294485">
  <ele>343.0</ele>
  <time>2026-09-01T19:57:09Z</time>
  <course>82.91</course>
  <speed>4.997369307945932</speed>
  <fix>3d</fix>
</trkpt>
<trkpt lat="-27.2699786" lon="151.2944843">
  <ele>343.41</ele>
  <time>2026-09-01T19:57:09Z</time>
  <course>65.44</course>
  <speed>4.973932046178355</speed>
  <fix>3d</fix>
</trkpt>
<trkpt lat="-27.2699789" lon="151.2944792">
  <ele>343.37</ele>
  <time>2026-09-01T19:57:09Z</time>
  <course>82.94</course>
  <speed>4.99</speed>
  <fix>3d</fix>
</trkpt>
<trkpt lat="-27.2699781" lon="151.2944893">
  <ele>343.36</ele>
  <time>2026-09-01T19:57:09Z</time>
  <course>65.44</course>
  <speed>4.973932046178355</speed>
  <fix>3d</fix>
</trkpt>
<trkpt lat="-27.2699789" lon="151.2944792">
  <ele>343.37</ele>
  <time>2026-09-01T19:57:09Z</time>
  <course>82.94</course>
  <speed>4.99</speed>
  <fix>3d</fix>
</trkpt>
<trkpt lat="-27.2699805" lon="151.294495">
  <ele>343.0</ele>
  <time>2026-09-01T19:57:09Z</time>
  <course>83.02</course>
  <speed>4.996158524306449</speed>
  <fix>3d</fix>
</trkpt>
<trkpt lat="-27.2699775" lon="151.2944943">
  <ele>343.31</ele>
  <time>2026-09-01T19:57:09Z</time>
  <course>65.45</course>
  <speed>4.9827101059563965</speed>
  <fix>3d</fix>
</trkpt>
<trkpt lat="-27.2699778" lon="151.2944893">
  <ele>343.27</ele>
  <time>2026-09-01T19:57:09Z</time>
  <course>83.03</course>
  <speed>5.0</speed>
  <fix>3d</fix>
</trkpt>
<trkpt lat="-27.269977" lon="151.2944993">
  <ele>343.26</ele>
  <time>2026-09-01T19:57:09Z</time>
  <course>65.45</course>
  <speed>4.9827101059563965</speed>
  <fix>3d</fix>
</trkpt>
<trkpt lat="-27.2699778" lon="151.2944893">
  <ele>343.27</ele>
  <time>2026-09-01T19:57:09Z</time>
  <course>83.03</course>
  <speed>5.0</speed>
  <fix>3d</fix>
</trkpt>
<trkpt lat="-27.2699795" lon="151.2945051">
  <ele>343.0</ele>
  <time>2026-09-01T19:57:09Z</time>
  <course>83.14</course>
  <speed>4.9949674673615245</speed>
  <fix>3d</fix>
</trkpt>
<trkpt lat="-27.2699765" lon="151.2945043">
  <ele>343.21</ele>
  <time>2026-09-01T19:57:09Z</time>
  <course>65.45</course>
  <speed>4.9827101059563965</speed>
  <fix>3d</fix>
</trkpt>
<trkpt lat="-27.2699768" lon="151.2944994">
  <ele>343.16</ele>
  <time>2026-09-01T19:57:09Z</time>
  <course>83.11</course>
  <speed>5.0</speed>
  <fix>3d</fix>
</trkpt>
<trkpt lat="-27.2699759" lon="151.2945093">
  <ele>343.17</ele>
  <time>2026-09-01T19:57:09Z</time>
  <course>65.46</course>
  <speed>4.9009590898108915</speed>
  <fix>3d</fix>
</trkpt>
<trkpt lat="-27.2699768" lon="151.2944994">
  <ele>343.16</ele>
  <time>2026-09-01T19:57:09Z</time>
  <course>83.11</course>
  <speed>5.0</speed>
  <fix>3d</fix>
</trkpt>
<trkpt lat="-27.2699784" lon="151.2945151">
  <ele>343.0</ele>
  <time>2026-09-01T19:57:09Z</time>
  <course>83.25</course>
  <speed>4.993796151226039</speed>
  <fix>3d</fix>
</trkpt>
<trkpt lat="-27.2699754" lon="151.2945142">
  <ele>343.17</ele>
  <time>2026-09-01T19:57:09Z</time>
  <course>65.5</course>
  <speed>4.891022388008462</speed>
  <fix>3d</fix>
</trkpt>
<trkpt lat="-27.2699757" lon="151.2945094">
  <ele>343.09</ele>
  <time>2026-09-01T19:57:09Z</time>
  <course>83.21</course>
  <speed>4.96</speed>
  <fix>3d</fix>
</trkpt>
<trkpt lat="-27.2699749" lon="151.2945191">
  <ele>343.18</ele>
  <time>2026-09-01T19:57:09Z</time>
  <course>65.54</course>
  <speed>4.940708451224379</speed>
  <fix>3d</fix>
</trkpt>
<trkpt lat="-27.2699757" lon="151.2945094">
  <ele>343.09</ele>
  <time>2026-09-01T19:57:09Z</time>
  <course>83.21</course>
  <speed>4.96</speed>
  <fix>3d</fix>
</trkpt>
<trkpt lat="-27.2699774" lon="151.2945252">
  <ele>343.0</ele>
  <time>2026-09-01T19:57:09Z</time>
  <course>83.37</course>
  <speed>4.992644589794071</speed>
  <fix>3d</fix>
</trkpt>
<trkpt lat="-27.2699744" lon="151.2945242">
  <ele>343.2</ele>
  <time>2026-09-01T19:57:09Z</time>
  <course>65.59</course>
  <speed>4.980461825975579</speed>
  <fix>3d</fix>
</trkpt>
<trkpt lat="-27.2699747" lon="151.2945193">
  <ele>343.08</ele>
  <time>2026-09-01T19:57:09Z</time>
  <course>83.31</course>
  <speed>4.96</speed>
  <fix>3d</fix>
</trkpt>
<trkpt lat="-27.2699738" lon="151.2945292">
  <ele>343.2</ele>
  <time>2026-09-01T19:57:09Z</time>
  <course>65.65</course>
  <speed>4.990400785508114</speed>
  <fix>3d</fix>
</trkpt>
<trkpt lat="-27.2699747" lon="151.2945193">
  <ele>343.08</ele>
  <time>2026-09-01T19:57:09Z</time>
  <course>83.31</course>
  <speed>4.96</speed>
  <fix>3d</fix>
</trkpt>
<trkpt lat="-27.2699763" lon="151.2945353">
  <ele>343.0</ele>
  <time>2026-09-01T19:57:09Z</time>
  <course>83.48</course>
  <speed>4.991512796738079</speed>
  <fix>3d</fix>
</trkpt>
<trkpt lat="-27.2699733" lon="151.2945342">
  <ele>343.2</ele>
  <time>2026-09-01T19:57:09Z</time>
  <course>65.71</course>
  <speed>4.989308569331025</speed>
  <fix>3d</fix>
</trkpt>
<trkpt lat="-27.2699736" lon="151.2945293">
  <ele>343.09</ele>
  <time>2026-09-01T19:57:09Z</time>
  <course>83.42</course>
  <speed>5.0</speed>
  <fix>3d</fix>
</trkpt>
<trkpt lat="-27.2699728" lon="151.2945392">
  <ele>343.2</ele>
  <time>2026-09-01T19:57:09Z</time>
  <course>65.77</course>
  <speed>4.9793674297043</speed>
  <fix>3d</fix>
</trkpt>
<trkpt lat="-27.2699736" lon="151.2945293">
  <ele>343.09</ele>
  <time>2026-09-01T19:57:09Z</time>
  <course>83.42</course>
  <speed>5.0</speed>
  <fix>3d</fix>
</trkpt>
<trkpt lat="-27.2699753" lon="151.2945453">
  <ele>343.0</ele>
  <time>2026-09-01T19:57:09Z</time>
  <course>83.6</course>
  <speed>4.990400785508114</speed>
  <fix>3d</fix>
</trkpt>
<trkpt lat="-27.2699723" lon="151.2945442">
  <ele>343.2</ele>
  <time>2026-09-01T19:57:09Z</time>
  <course>65.83</course>
  <speed>4.968349826652709</speed>
  <fix>3d</fix>
</trkpt>
<trkpt lat="-27.2699726" lon="151.2945394">
  <ele>343.09</ele>
  <time>2026-09-01T19:57:09Z</time>
  <course>83.54</course>
  <speed>5.0</speed>
  <fix>3d</fix>
</trkpt>
<trkpt lat="-27.2699718" lon="151.2945492">
  <ele>343.2</ele>
  <time>2026-09-01T19:57:09Z</time>
  <course>65.89</course>
  <speed>4.968349826652709</speed>
  <fix>3d</fix>
</trkpt>
<trkpt lat="-27.2699726" lon="151.2945394">
  <ele>343.09</ele>
  <time>2026-09-01T19:57:09Z</time>
  <course>83.54</course>
  <speed>5.0</speed>
  <fix>3d</fix>
</trkpt>
<trkpt lat="-27.2699743" lon="151.2945554">
  <ele>343.0</ele>
  <time>2026-09-01T19:57:09Z</time>
  <course>83.72</course>
  <speed>4.999249943741561</speed>
  <fix>3d</fix>
</trkpt>
<trkpt lat="-27.2699713" lon="151.2945542">
  <ele>343.2</ele>
  <time>2026-09-01T19:57:09Z</time>
  <course>65.95</course>
  <speed>4.967293025381128</speed>
  <fix>3d</fix>
</trkpt>
<trkpt lat="-27.2699716" lon="151.2945495">
  <ele>343.09</ele>
  <time>2026-09-01T19:57:09Z</time>
  <course>83.65</course>
  <speed>5.0</speed>
  <fix>3d</fix>
</trkpt>
<trkpt lat="-27.2699708" lon="151.2945592">
  <ele>343.2</ele>
  <time>2026-09-01T19:57:09Z</time>
  <course>66.02</course>
  <speed>4.967293025381128</speed>
  <fix>3d</fix>
</trkpt>
<trkpt lat="-27.2699716" lon="151.2945495">
  <ele>343.09</ele>
  <time>2026-09-01T19:57:09Z</time>
  <course>83.65</course>
  <speed>5.0</speed>
  <fix>3d</fix>
</trkpt>
<trkpt lat="-27.2699734" lon="151.2945655">
  <ele>343.0</ele>
  <time>2026-09-01T19:57:09Z</time>
  <course>83.83</course>
  <speed>4.998179668639374</speed>
  <fix>3d</fix>
</trkpt>
<trkpt lat="-27.2699704" lon="151.2945642">
  <ele>343.2</ele>
  <time>2026-09-01T19:57:09Z</time>
  <course>66.08</course>
  <speed>4.966256135158556</speed>
  <fix>3d</fix>
</trkpt>
<trkpt lat="-27.2699706" lon="151.2945595">
  <ele>343.09</ele>
  <time>2026-09-01T19:57:09Z</time>
  <course>83.77</course>
  <speed>5.0</speed>
  <fix>3d</fix>
</trkpt>
<trkpt lat="-27.2699699" lon="151.2945692">
  <ele>343.2</ele>
  <time>2026-09-01T19:57:09Z</time>
  <course>66.14</course>
  <speed>4.966256135158556</speed>
  <fix>3d</fix>
</trkpt>
<trkpt lat="-27.2699706" lon="151.2945595">
  <ele>343.09</ele>
  <time>2026-09-01T19:57:09Z</time>
  <course>83.77</course>
  <speed>5.0</speed>
  <fix>3d</fix>
</trkpt>
<trkpt lat="-27.2699724" lon="151.2945755">
  <ele>343.0</ele>
  <time>2026-09-01T19:57:09Z</time>
  <course>83.95</course>
  <speed>4.997129175836863</speed>
  <fix>3d</fix>
</trkpt>
<trkpt lat="-27.2699694" lon="151.2945742">
  <ele>343.2</ele>
  <time>2026-09-01T19:57:09Z</time>
  <course>66.21</course>
  <speed>4.965239168459059</speed>
  <fix>3d</fix>
</trkpt>
<trkpt lat="-27.2699697" lon="151.2945695">
  <ele>343.1</ele>
  <time>2026-09-01T19:57:09Z</time>
  <course>83.88</course>
  <speed>5.0</speed>
  <fix>3d</fix>
</trkpt>
<trkpt lat="-27.2699689" lon="151.2945792">
  <ele>343.2</ele>
  <time>2026-09-01T19:57:09Z</time>
  <course>66.27</course>
  <speed>4.964242137527138</speed>
  <fix>3d</fix>
</trkpt>
<trkpt lat="-27.2699697" lon="151.2945695">
  <ele>343.1</ele>
  <time>2026-09-01T19:57:09Z</time>
  <course>83.88</course>
  <speed>5.0</speed>
  <fix>3d</fix>
</trkpt>
<trkpt lat="-27.2699715" lon="151.2945856">
  <ele>343.0</ele>
  <time>2026-09-01T19:57:09Z</time>
  <course>84.06</course>
  <speed>4.9960984778124615</speed>
  <fix>3d</fix>
</trkpt>
<trkpt lat="-27.2699685" lon="151.2945842">
  <ele>343.2</ele>
  <time>2026-09-01T19:57:09Z</time>
  <course>66.33</course>
  <speed>4.964242137527138</speed>
  <fix>3d</fix>
</trkpt>
<trkpt lat="-27.2699687" lon="151.2945796">
  <ele>343.09</ele>
  <time>2026-09-01T19:57:09Z</time>
  <course>84.0</course>
  <speed>5.0</speed>
  <fix>3d</fix>
</trkpt>
<trkpt lat="-27.269968" lon="151.2945892">
  <ele>343.2</ele>
  <time>2026-09-01T19:57:09Z</time>
  <course>66.4</course>
  <speed>4.963265054377008</speed>
  <fix>3d</fix>
</trkpt>
<trkpt lat="-27.2699687" lon="151.2945796">
  <ele>343.09</ele>
  <time>2026-09-01T19:57:09Z</time>
  <course>84.0</course>
  <speed>5.0</speed>
  <fix>3d</fix>
</trkpt>
<trkpt lat="-27.2699706" lon="151.2945957">
  <ele>343.0</ele>
  <time>2026-09-01T19:57:09Z</time>
  <course>84.18</course>
  <speed>4.9950875868196745</speed>
  <fix>3d</fix>
</trkpt>
<trkpt lat="-27.2699676" lon="151.2945942">
  <ele>343.2</ele>
  <time>2026-09-01T19:57:09Z</time>
  <course>66.46</course>
  <speed>4.963265054377008</speed>
  <fix>3d</fix>
</trkpt>
<trkpt lat="-27.2699678" lon="151.2945896">
  <ele>343.09</ele>
  <time>2026-09-01T19:57:09Z</time>
  <course>84.11</course>
  <speed>5.0</speed>
  <fix>3d</fix>
</trkpt>
<trkpt lat="-27.2699671" lon="151.2945992">
  <ele>343.2</ele>
  <time>2026-09-01T19:57:09Z</time>
  <course>66.52</course>
  <speed>4.962307930791881</speed>
  <fix>3d</fix>
</trkpt>
<trkpt lat="-27.2699678" lon="151.2945896">
  <ele>343.09</ele>
  <time>2026-09-01T19:57:09Z</time>
  <course>84.11</course>
  <speed>5.0</speed>
  <fix>3d</fix>
</trkpt>
<trkpt lat="-27.2699696" lon="151.2946057">
  <ele>343.0</ele>
  <time>2026-09-01T19:57:09Z</time>
  <course>84.29</course>
  <speed>4.994096514886351</speed>
  <fix>3d</fix>
</trkpt>
<trkpt lat="-27.2699667" lon="151.2946042">
  <ele>343.2</ele>
  <time>2026-09-01T19:57:09Z</time>
  <course>66.58</course>
  <speed>4.962307930791881</speed>
  <fix>3d</fix>
</trkpt>
<trkpt lat="-27.2699669" lon="151.2945997">
  <ele>343.1</ele>
  <time>2026-09-01T19:57:09Z</time>
  <course>84.23</course>
  <speed>5.0</speed>
  <fix>3d</fix>
</trkpt>
<trkpt lat="-27.2699662" lon="151.2946092">
  <ele>343.2</ele>
  <time>2026-09-01T19:57:09Z</time>
  <course>66.65</course>
  <speed>4.961370778323265</speed>
  <fix>3d</fix>
</trkpt>
<trkpt lat="-27.2699669" lon="151.2945997">
  <ele>343.1</ele>
  <time>2026-09-01T19:57:09Z</time>
  <course>84.23</course>
  <speed>5.0</speed>
  <fix>3d</fix>
</trkpt>
<trkpt lat="-27.2699688" lon="151.2946159">
  <ele>343.0</ele>
  <time>2026-09-01T19:57:09Z</time>
  <course>84.41</course>
  <speed>4.993125273813987</speed>
  <fix>3d</fix>
</trkpt>
<trkpt lat="-27.2699658" lon="151.2946142">
  <ele>343.2</ele>
  <time>2026-09-01T19:57:09Z</time>
  <course>66.71</course>
  <speed>4.961370778323265</speed>
  <fix>3d</fix>
</trkpt>
<trkpt lat="-27.269966" lon="151.2946098">
  <ele>343.1</ele>
  <time>2026-09-01T19:57:09Z</time>
  <course>84.34</course>
  <speed>5.0</speed>
  <fix>3d</fix>
</trkpt>
<trkpt lat="-27.2699654" lon="151.2946193">
  <ele>343.2</ele>
  <time>2026-09-01T19:57:09Z</time>
  <course>66.77</course>
  <speed>4.960453608290274</speed>
  <fix>3d</fix>
</trkpt>
<trkpt lat="-27.269966" lon="151.2946098">
  <ele>343.1</ele>
  <time>2026-09-01T19:57:09Z</time>
  <course>84.34</course>
  <speed>5.0</speed>
  <fix>3d</fix>
</trkpt>
<trkpt lat="-27.2699679" lon="151.2946259">
  <ele>343.0</ele>
  <time>2026-09-01T19:57:09Z</time>
  <course>84.52</course>
  <speed>4.992173875177025</speed>
  <fix>3d</fix>
</trkpt>
<trkpt lat="-27.2699649" lon="151.2946243">
  <ele>343.2</ele>
  <time>2026-09-01T19:57:09Z</time>
  <course>66.83</course>
  <speed>4.960453608290274</speed>
  <fix>3d</fix>
</trkpt>
<trkpt lat="-27.2699651" lon="151.2946198">
  <ele>343.1</ele>
  <time>2026-09-01T19:57:09Z</time>
  <course>84.46</course>
  <speed>5.0</speed>
  <fix>3d</fix>
</trkpt>
<trkpt lat="-27.2699645" lon="151.2946293">
  <ele>343.2</ele>
  <time>2026-09-01T19:57:09Z</time>
  <course>66.9</course>
  <speed>4.959556431778955</speed>
  <fix>3d</fix>
</trkpt>
<trkpt lat="-27.2699651" lon="151.2946198">
  <ele>343.1</ele>
  <time>2026-09-01T19:57:09Z</time>
  <course>84.46</course>
  <speed>5.0</speed>
  <fix>3d</fix>
</trkpt>
<trkpt lat="-27.269967" lon="151.294636">
  <ele>343.0</ele>
  <time>2026-09-01T19:57:09Z</time>
  <course>84.64</course>
  <speed>4.991242330322181</speed>
  <fix>3d</fix>
</trkpt>
<trkpt lat="-27.2699641" lon="151.2946343">
  <ele>343.2</ele>
  <time>2026-09-01T19:57:09Z</time>
  <course>66.96</course>
  <speed>4.959556431778955</speed>
  <fix>3d</fix>
</trkpt>
<trkpt lat="-27.2699642" lon="151.2946299">
  <ele>343.1</ele>
  <time>2026-09-01T19:57:09Z</time>
  <course>84.57</course>
  <speed>5.0</speed>
  <fix>3d</fix>
</trkpt>
<trkpt lat="-27.2699637" lon="151.2946394">
  <ele>343.2</ele>
  <time>2026-09-01T19:57:09Z</time>
  <course>67.02</course>
  <speed>4.968641665485649</speed>
  <fix>3d</fix>
</trkpt>
<trkpt lat="-27.2699642" lon="151.2946299">
  <ele>343.1</ele>
  <time>2026-09-01T19:57:09Z</time>
  <course>84.57</course>
  <speed>5.0</speed>
  <fix>3d</fix>
</trkpt>
<trkpt lat="-27.2699662" lon="151.2946461">
  <ele>343.0</ele>
  <time>2026-09-01T19:57:09Z</time>
  <course>84.75</course>
  <speed>4.99033065036777</speed>
  <fix>3d</fix>
</trkpt>
<trkpt lat="-27.2699633" lon="151.2946444">
  <ele>343.2</ele>
  <time>2026-09-01T19:57:09Z</time>
  <course>67.08</course>
  <speed>4.968641665485649</speed>
  <fix>3d</fix>
</trkpt>
<trkpt lat="-27.2699634" lon="151.29464">
  <ele>343.1</ele>
  <time>2026-09-01T19:57:09Z</time>
  <course>84.69</course>
  <speed>5.0</speed>
  <fix>3d</fix>
</trkpt>
<trkpt lat="-27.2699628" lon="151.2946495">
  <ele>343.2</ele>
  <time>2026-09-01T19:57:09Z</time>
  <course>67.15</course>
  <speed>4.967786227284745</speed>
  <fix>3d</fix>
</trkpt>
<trkpt lat="-27.2699634" lon="151.29464">
  <ele>343.1</ele>
  <time>2026-09-01T19:57:09Z</time>
  <course>84.69</course>
  <speed>5.0</speed>
  <fix>3d</fix>
</trkpt>
<trkpt lat="-27.2699654" lon="151.2946561">
  <ele>343.0</ele>
  <time>2026-09-01T19:57:09Z</time>
  <course>84.87</course>
  <speed>4.999399963995679</speed>
  <fix>3d</fix>
</trkpt>
<trkpt lat="-27.2699624" lon="151.2946545">
  <ele>343.2</ele>
  <time>2026-09-01T19:57:09Z</time>
  <course>67.21</course>
  <speed>4.967786227284745</speed>
  <fix>3d</fix>
</trkpt>
<trkpt lat="-27.2699626" lon="151.29465">
  <ele>343.1</ele>
  <time>2026-09-01T19:57:09Z</time>
  <course>84.81</course>
  <speed>5.0</speed>
  <fix>3d</fix>
</trkpt>
<trkpt lat="-27.269962" lon="151.2946596">
  <ele>343.2</ele>
  <time>2026-09-01T19:57:09Z</time>
  <course>67.27</course>
  <speed>4.966950774871843</speed>
  <fix>3d</fix>
</trkpt>
<trkpt lat="-27.2699626" lon="151.29465">
  <ele>343.1</ele>
  <time>2026-09-01T19:57:09Z</time>
  <course>84.81</course>
  <speed>5.0</speed>
  <fix>3d</fix>
</trkpt>
<trkpt lat="-27.2699646" lon="151.2946662">
  <ele>343.0</ele>
  <time>2026-09-01T19:57:09Z</time>
  <course>84.99</course>
  <speed>4.998529783846447</speed>
  <fix>3d</fix>
</trkpt>
<trkpt lat="-27.2699616" lon="151.2946646">
  <ele>343.2</ele>
  <time>2026-09-01T19:57:09Z</time>
  <course>67.33</course>
  <speed>4.966950774871843</speed>
  <fix>3d</fix>
</trkpt>
<trkpt lat="-27.2699618" lon="151.2946601">
  <ele>343.1</ele>
  <time>2026-09-01T19:57:09Z</time>
  <course>84.92</course>
  <speed>5.0</speed>
  <fix>3d</fix>
</trkpt>
<trkpt lat="-27.2699613" lon="151.2946697">
  <ele>343.2</ele>
  <time>2026-09-01T19:57:09Z</time>
  <course>67.39</course>
  <speed>4.9661353183335635</speed>
  <fix>3d</fix>
</trkpt>
<trkpt lat="-27.2699618" lon="151.2946601">
  <ele>343.1</ele>
  <time>2026-09-01T19:57:09Z</time>
  <course>84.92</course>
  <speed>5.0</speed>
  <fix>3d</fix>
</trkpt>
<trkpt lat="-27.2699638" lon="151.2946763">
  <ele>343.0</ele>
  <time>2026-09-01T19:57:09Z</time>
  <course>85.1</course>
  <speed>4.997679461510112</speed>
  <fix>3d</fix>
</trkpt>
<trkpt lat="-27.2699609" lon="151.2946747">
  <ele>343.2</ele>
  <time>2026-09-01T19:57:09Z</time>
  <course>67.45</course>
  <speed>4.9661353183335635</speed>
  <fix>3d</fix>
</trkpt>
<trkpt lat="-27.269961" lon="151.2946701">
  <ele>343.1</ele>
  <time>2026-09-01T19:57:09Z</time>
  <course>85.04</course>
  <speed>5.0</speed>
  <fix>3d</fix>
</trkpt>
<trkpt lat="-27.2699605" lon="151.2946797">
  <ele>343.2</ele>
  <time>2026-09-01T19:57:09Z</time>
  <course>67.52</course>
  <speed>4.965339867521658</speed>
  <fix>3d</fix>
</trkpt>
<trkpt lat="-27.269961" lon="151.2946701">
  <ele>343.1</ele>
  <time>2026-09-01T19:57:09Z</time>
  <course>85.04</course>
  <speed>5.0</speed>
  <fix>3d</fix>
</trkpt>
<trkpt lat="-27.2699631" lon="151.2946863">
  <ele>343.0</ele>
  <time>2026-09-01T19:57:09Z</time>
  <course>85.22</course>
  <speed>4.99684900712439</speed>
  <fix>3d</fix>
</trkpt>
<trkpt lat="-27.2699601" lon="151.2946848">
  <ele>343.2</ele>
  <time>2026-09-01T19:57:09Z</time>
  <course>67.58</course>
  <speed>4.965339867521658</speed>
  <fix>3d</fix>
</trkpt>
<trkpt lat="-27.2699602" lon="151.2946802">
  <ele>343.1</ele>
  <time>2026-09-01T19:57:09Z</time>
  <course>85.15</course>
  <speed>5.0</speed>
  <fix>3d</fix>
</trkpt>
<trkpt lat="-27.2699597" lon="151.2946898">
  <ele>343.2</ele>
  <time>2026-09-01T19:57:09Z</time>
  <course>67.64</course>
  <speed>4.964564432052423</speed>
  <fix>3d</fix>
</trkpt>
<trkpt lat="-27.2699602" lon="151.2946802">
  <ele>343.1</ele>
  <time>2026-09-01T19:57:09Z</time>
  <course>85.15</course>
  <speed>5.0</speed>
  <fix>3d</fix>
</trkpt>
<trkpt lat="-27.2699623" lon="151.2946964">
  <ele>343.0</ele>
  <time>2026-09-01T19:57:09Z</time>
  <course>85.33</course>
  <speed>4.996038430596786</speed>
  <fix>3d</fix>
</trkpt>
<trkpt lat="-27.2699594" lon="151.2946948">
  <ele>343.2</ele>
  <time>2026-09-01T19:57:09Z</time>
  <course>67.7</course>
  <speed>4.974535154162648</speed>
  <fix>3d</fix>
</trkpt>
<trkpt lat="-27.2699595" lon="151.2946903">
  <ele>343.1</ele>
  <time>2026-09-01T19:57:09Z</time>
  <course>85.27</course>
  <speed>5.0</speed>
  <fix>3d</fix>
</trkpt>
<trkpt lat="-27.269959" lon="151.2946999">
  <ele>343.2</ele>
  <time>2026-09-01T19:57:09Z</time>
  <course>67.76</course>
  <speed>4.973781257755512</speed>
  <fix>3d</fix>
</trkpt>
<trkpt lat="-27.2699595" lon="151.2946903">
  <ele>343.1</ele>
  <time>2026-09-01T19:57:09Z</time>
  <course>85.27</course>
  <speed>5.0</speed>
  <fix>3d</fix>
</trkpt>
<trkpt lat="-27.2699616" lon="151.2947065">
  <ele>343.0</ele>
  <time>2026-09-01T19:57:09Z</time>
  <course>85.45</course>
  <speed>4.995247741604014</speed>
  <fix>3d</fix>
</trkpt>
<trkpt lat="-27.2699587" lon="151.2947049">
  <ele>343.2</ele>
  <time>2026-09-01T19:57:09Z</time>
  <course>67.83</course>
  <speed>4.973781257755512</speed>
  <fix>3d</fix>
</trkpt>
<trkpt lat="-27.2699587" lon="151.2947004">
  <ele>343.1</ele>
  <time>2026-09-01T19:57:09Z</time>
  <course>85.38</course>
  <speed>5.0</speed>
  <fix>3d</fix>
</trkpt>
<trkpt lat="-27.2699583" lon="151.29471">
  <ele>343.2</ele>
  <time>2026-09-01T19:57:09Z</time>
  <course>67.89</course>
  <speed>4.973047355495421</speed>
  <fix>3d</fix>
</trkpt>
<trkpt lat="-27.2699587" lon="151.2947004">
  <ele>343.1</ele>
  <time>2026-09-01T19:57:09Z</time>
  <course>85.38</course>
  <speed>5.0</speed>
  <fix>3d</fix>
</trkpt>
<trkpt lat="-27.2699609" lon="151.2947166">
  <ele>343.0</ele>
  <time>2026-09-01T19:57:09Z</time>
  <course>85.56</course>
  <speed>4.9944769495914185</speed>
  <fix>3d</fix>
</trkpt>
<trkpt lat="-27.269958" lon="151.294715">
  <ele>343.2</ele>
  <time>2026-09-01T19:57:09Z</time>
  <course>67.95</course>
  <speed>4.973047355495421</speed>
  <fix>3d</fix>
</trkpt>
<trkpt lat="-27.269958" lon="151.2947105">
  <ele>343.1</ele>
  <time>2026-09-01T19:57:09Z</time>
  <course>85.5</course>
  <speed>5.0</speed>
  <fix>3d</fix>
</trkpt>
<trkpt lat="-27.2699576" lon="151.2947201">
  <ele>343.2</ele>
  <time>2026-09-01T19:57:09Z</time>
  <course>68.01</course>
  <speed>4.972333456235614</speed>
  <fix>3d</fix>
</trkpt>
<trkpt lat="-27.269958" lon="151.2947105">
  <ele>343.1</ele>
  <time>2026-09-01T19:57:09Z</time>
  <course>85.5</course>
  <speed>5.0</speed>
  <fix>3d</fix>
</trkpt>
<trkpt lat="-27.2699602" lon="151.2947266">
  <ele>343.0</ele>
  <time>2026-09-01T19:57:09Z</time>
  <course>85.68</course>
  <speed>4.993726063772421</speed>
  <fix>3d</fix>
</trkpt>
<trkpt lat="-27.2699573" lon="151.2947251">
  <ele>343.2</ele>
  <time>2026-09-01T19:57:09Z</time>
  <course>68.07</course>
  <speed>4.972333456235614</speed>
  <fix>3d</fix>
</trkpt>
<trkpt lat="-27.2699573" lon="151.2947206">
  <ele>343.1</ele>
  <time>2026-09-01T19:57:09Z</time>
  <course>85.61</course>
  <speed>5.0</speed>
  <fix>3d</fix>
</trkpt>
<trkpt lat="-27.2699569" lon="151.2947301">
  <ele>343.2</ele>
  <time>2026-09-01T19:57:09Z</time>
  <course>68.13</course>
  <speed>4.971639568593041</speed>
  <fix>3d</fix>
</trkpt>
<trkpt lat="-27.2699573" lon="151.2947206">
  <ele>343.1</ele>
  <time>2026-09-01T19:57:09Z</time>
  <course>85.61</course>
  <speed>5.0</speed>
  <fix>3d</fix>
</trkpt>
<trkpt lat="-27.2699596" lon="151.2947367">
  <ele>343.0</ele>
  <time>2026-09-01T19:57:09Z</time>
  <course>85.79</course>
  <speed>4.992995093127972</speed>
  <fix>3d</fix>
</trkpt>
<trkpt lat="-27.2699566" lon="151.2947352">
  <ele>343.2</ele>
  <time>2026-09-01T19:57:09Z</time>
  <course>68.2</course>
  <speed>4.971639568593041</speed>
  <fix>3d</fix>
</trkpt>
<trkpt lat="-27.2699566" lon="151.2947307">
  <ele>343.1</ele>
  <time>2026-09-01T19:57:09Z</time>
  <course>85.73</course>
  <speed>5.0</speed>
  <fix>3d</fix>
</trkpt>
<trkpt lat="-27.2699563" lon="151.2947402">
  <ele>343.2</ele>
  <time>2026-09-01T19:57:09Z</time>
  <course>68.26</course>
  <speed>4.970965700947855</speed>
  <fix>3d</fix>
</trkpt>
<trkpt lat="-27.2699566" lon="151.2947307">
  <ele>343.1</ele>
  <time>2026-09-01T19:57:09Z</time>
  <course>85.73</course>
  <speed>5.0</speed>
  <fix>3d</fix>
</trkpt>
<trkpt lat="-27.2699589" lon="151.2947468">
  <ele>343.0</ele>
  <time>2026-09-01T19:57:09Z</time>
  <course>85.91</course>
  <speed>4.992284046406014</speed>
  <fix>3d</fix>
</trkpt>
<trkpt lat="-27.2699559" lon="151.2947453">
  <ele>343.2</ele>
  <time>2026-09-01T19:57:09Z</time>
  <course>68.32</course>
  <speed>4.970965700947855</speed>
  <fix>3d</fix>
</trkpt>
<trkpt lat="-27.269956" lon="151.2947407">
  <ele>343.1</ele>
  <time>2026-09-01T19:57:09Z</time>
  <course>85.84</course>
  <speed>5.0</speed>
  <fix>3d</fix>
</trkpt>
<trkpt lat="-27.2699556" lon="151.2947503">
  <ele>343.2</ele>
  <time>2026-09-01T19:57:09Z</time>
  <course>68.38</course>
  <speed>4.980291156147399</speed>
  <fix>3d</fix>
</trkpt>
<trkpt lat="-27.269956" lon="151.2947407">
  <ele>343.1</ele>
  <time>2026-09-01T19:57:09Z</time>
  <course>85.84</course>
  <speed>5.0</speed>
  <fix>3d</fix>
</trkpt>
<trkpt lat="-27.2699583" lon="151.2947568">
  <ele>343.0</ele>
  <time>2026-09-01T19:57:09Z</time>
  <course>86.02</course>
  <speed>4.991592932120968</speed>
  <fix>3d</fix>
</trkpt>
<trkpt lat="-27.2699553" lon="151.2947554">
  <ele>343.2</ele>
  <time>2026-09-01T19:57:09Z</time>
  <course>68.44</course>
  <speed>4.980291156147399</speed>
  <fix>3d</fix>
</trkpt>
<trkpt lat="-27.2699554" lon="151.2947508">
  <ele>343.1</ele>
  <time>2026-09-01T19:57:09Z</time>
  <course>85.96</course>
  <speed>5.0</speed>
  <fix>3d</fix>
</trkpt>
<trkpt lat="-27.269955" lon="151.2947604">
  <ele>343.2</ele>
  <time>2026-09-01T19:57:09Z</time>
  <course>68.5</course>
  <speed>4.979658622837514</speed>
  <fix>3d</fix>
</trkpt>
<trkpt lat="-27.2699554" lon="151.2947508">
  <ele>343.1</ele>
  <time>2026-09-01T19:57:09Z</time>
  <course>85.96</course>
  <speed>5.0</speed>
  <fix>3d</fix>
</trkpt>
<trkpt lat="-27.2699577" lon="151.2947669">
  <ele>343.0</ele>
  <time>2026-09-01T19:57:09Z</time>
  <course>86.14</course>
  <speed>4.990921758553224</speed>
  <fix>3d</fix>
</trkpt>
<trkpt lat="-27.2699547" lon="151.2947654">
  <ele>343.2</ele>
  <time>2026-09-01T19:57:09Z</time>
  <course>68.57</course>
  <speed>4.979658622837514</speed>
  <fix>3d</fix>
</trkpt>
<trkpt lat="-27.2699548" lon="151.2947609">
  <ele>343.1</ele>
  <time>2026-09-01T19:57:09Z</time>
  <course>86.07</course>
  <speed>5.0</speed>
  <fix>3d</fix>
</trkpt>
<trkpt lat="-27.2699544" lon="151.2947705">
  <ele>343.2</ele>
  <time>2026-09-01T19:57:09Z</time>
  <course>68.63</course>
  <speed>4.979046093379735</speed>
  <fix>3d</fix>
</trkpt>
<trkpt lat="-27.2699548" lon="151.2947609">
  <ele>343.1</ele>
  <time>2026-09-01T19:57:09Z</time>
  <course>86.07</course>
  <speed>5.0</speed>
  <fix>3d</fix>
</trkpt>
<trkpt lat="-27.2699571" lon="151.294777">
  <ele>343.0</ele>
  <time>2026-09-01T19:57:09Z</time>
  <course>86.25</course>
  <speed>4.990270533748646</speed>
  <fix>3d</fix>
</trkpt>
<trkpt lat="-27.2699541" lon="151.2947755">
  <ele>343.2</ele>
  <time>2026-09-01T19:57:09Z</time>
  <course>68.69</course>
  <speed>4.979046093379735</speed>
  <fix>3d</fix>
</trkpt>
<trkpt lat="-27.2699542" lon="151.294771">
  <ele>343.1</ele>
  <time>2026-09-01T19:57:09Z</time>
  <course>86.19</course>
  <speed>5.0</speed>
  <fix>3d</fix>
</trkpt>
<trkpt lat="-27.2699538" lon="151.2947806">
  <ele>343.2</ele>
  <time>2026-09-01T19:57:09Z</time>
  <course>68.75</course>
  <speed>4.978453575157651</speed>
  <fix>3d</fix>
</trkpt>
<trkpt lat="-27.2699542" lon="151.294771">
  <ele>343.1</ele>
  <time>2026-09-01T19:57:09Z</time>
  <course>86.19</course>
  <speed>5.0</speed>
  <fix>3d</fix>
</trkpt>
<trkpt lat="-27.2699565" lon="151.294787">
  <ele>343.0</ele>
  <time>2026-09-01T19:57:09Z</time>
  <course>86.37</course>
  <speed>4.989639265518099</speed>
  <fix>3d</fix>
</trkpt>
<trkpt lat="-27.2699535" lon="151.2947857">
  <ele>343.2</ele>
  <time>2026-09-01T19:57:09Z</time>
  <course>68.81</course>
  <speed>4.978453575157651</speed>
  <fix>3d</fix>
</trkpt>
<trkpt lat="-27.2699536" lon="151.2947811">
  <ele>343.1</ele>
  <time>2026-09-01T19:57:09Z</time>
  <course>86.3</course>
  <speed>5.0</speed>
  <fix>3d</fix>
</trkpt>
<trkpt lat="-27.2699533" lon="151.2947907">
  <ele>343.2</ele>
  <time>2026-09-01T19:57:09Z</time>
  <course>68.87</course>
  <speed>4.977881075317087</speed>
  <fix>3d</fix>
</trkpt>
<trkpt lat="-27.2699536" lon="151.2947811">
  <ele>343.1</ele>
  <time>2026-09-01T19:57:09Z</time>
  <course>86.3</course>
  <speed>5.0</speed>
  <fix>3d</fix>
</trkpt>
<trkpt lat="-27.2699559" lon="151.2947971">
  <ele>343.0</ele>
  <time>2026-09-01T19:57:09Z</time>
  <course>86.49</course>
  <speed>4.99900990197059</speed>
  <fix>3d</fix>
</trkpt>
<trkpt lat="-27.269953" lon="151.2947958">
  <ele>343.2</ele>
  <time>2026-09-01T19:57:09Z</time>
  <course>68.94</course>
  <speed>4.977328600765676</speed>
  <fix>3d</fix>
</trkpt>
<trkpt lat="-27.269953" lon="151.2947912">
  <ele>343.1</ele>
  <time>2026-09-01T19:57:09Z</time>
  <course>86.42</course>
  <speed>5.0</speed>
  <fix>3d</fix>
</trkpt>
<trkpt lat="-27.2699527" lon="151.2948009">
  <ele>343.2</ele>
  <time>2026-09-01T19:57:09Z</time>
  <course>69.0</course>
  <speed>4.977328600765676</speed>
  <fix>3d</fix>
</trkpt>
<trkpt lat="-27.269953" lon="151.2947912">
  <ele>343.1</ele>
  <time>2026-09-01T19:57:09Z</time>
  <course>86.42</course>
  <speed>5.0</speed>
  <fix>3d</fix>
</trkpt>
<trkpt lat="-27.2699554" lon="151.2948072">
  <ele>343.0</ele>
  <time>2026-09-01T19:57:09Z</time>
  <course>86.6</course>
  <speed>4.998419750281083</speed>
  <fix>3d</fix>
</trkpt>
<trkpt lat="-27.2699525" lon="151.2948059">
  <ele>343.2</ele>
  <time>2026-09-01T19:57:09Z</time>
  <course>69.06</course>
  <speed>4.976796158172444</speed>
  <fix>3d</fix>
</trkpt>
<trkpt lat="-27.2699524" lon="151.2948012">
  <ele>343.1</ele>
  <time>2026-09-01T19:57:09Z</time>
  <course>86.54</course>
  <speed>5.0</speed>
  <fix>3d</fix>
</trkpt>
<trkpt lat="-27.2699522" lon="151.294811">
  <ele>343.19</ele>
  <time>2026-09-01T19:57:09Z</time>
  <course>69.12</course>
  <speed>4.976796158172444</speed>
  <fix>3d</fix>
</trkpt>
<trkpt lat="-27.2699524" lon="151.2948012">
  <ele>343.1</ele>
  <time>2026-09-01T19:57:09Z</time>
  <course>86.54</course>
  <speed>5.0</speed>
  <fix>3d</fix>
</trkpt>
<trkpt lat="-27.2699549" lon="151.2948172">
  <ele>343.0</ele>
  <time>2026-09-01T19:57:09Z</time>
  <course>86.72</course>
  <speed>4.997849537551126</speed>
  <fix>3d</fix>
</trkpt>
<trkpt lat="-27.2699519" lon="151.294816">
  <ele>343.19</ele>
  <time>2026-09-01T19:57:09Z</time>
  <course>69.19</course>
  <speed>4.976283753967412</speed>
  <fix>3d</fix>
</trkpt>
<trkpt lat="-27.2699519" lon="151.2948113">
  <ele>343.1</ele>
  <time>2026-09-01T19:57:09Z</time>
  <course>86.65</course>
  <speed>5.0</speed>
  <fix>3d</fix>
</trkpt>
<trkpt lat="-27.2699517" lon="151.2948211">
  <ele>343.2</ele>
  <time>2026-09-01T19:57:09Z</time>
  <course>69.26</course>
  <speed>4.976283753967412</speed>
  <fix>3d</fix>
</trkpt>
<trkpt lat="-27.2699519" lon="151.2948113">
  <ele>343.1</ele>
  <time>2026-09-01T19:57:09Z</time>
  <course>86.65</course>
  <speed>5.0</speed>
  <fix>3d</fix>
</trkpt>
<trkpt lat="-27.2699544" lon="151.2948273">
  <ele>343.0</ele>
  <time>2026-09-01T19:57:09Z</time>
  <course>86.83</course>
  <speed>4.997299270606074</speed>
  <fix>3d</fix>
</trkpt>
<trkpt lat="-27.2699514" lon="151.2948261">
  <ele>343.2</ele>
  <time>2026-09-01T19:57:09Z</time>
  <course>69.33</course>
  <speed>4.975791394341206</speed>
  <fix>3d</fix>
</trkpt>
<trkpt lat="-27.2699514" lon="151.2948214">
  <ele>343.1</ele>
  <time>2026-09-01T19:57:09Z</time>
  <course>86.77</course>
  <speed>5.0</speed>
  <fix>3d</fix>
</trkpt>
<trkpt lat="-27.2699512" lon="151.2948312">
  <ele>343.2</ele>
  <time>2026-09-01T19:57:09Z</time>
  <course>69.39</course>
  <speed>4.9857797785301345</speed>
  <fix>3d</fix>
</trkpt>
<trkpt lat="-27.2699514" lon="151.2948214">
  <ele>343.1</ele>
  <time>2026-09-01T19:57:09Z</time>
  <course>86.77</course>
  <speed>5.0</speed>
  <fix>3d</fix>
</trkpt>
<trkpt lat="-27.2699539" lon="151.2948374">
  <ele>343.0</ele>
  <time>2026-09-01T19:57:09Z</time>
  <course>86.95</course>
  <speed>4.99676895603549</speed>
  <fix>3d</fix>
</trkpt>
<trkpt lat="-27.2699509" lon="151.2948362">
  <ele>343.2</ele>
  <time>2026-09-01T19:57:09Z</time>
  <course>69.46</course>
  <speed>4.985308415735179</speed>
  <fix>3d</fix>
</trkpt>
<trkpt lat="-27.2699509" lon="151.2948315">
  <ele>343.1</ele>
  <time>2026-09-01T19:57:09Z</time>
  <course>86.88</course>
  <speed>5.0</speed>
  <fix>3d</fix>
</trkpt>
<trkpt lat="-27.2699508" lon="151.2948399">
  <ele>343.2</ele>
  <time>2026-09-01T19:57:09Z</time>
  <course>69.52</course>
  <speed>1.5320900756809308</speed>
  <fix>3d</fix>
</trkpt>
<trkpt lat="-27.2699509" lon="151.2948315">
  <ele>343.1</ele>
  <time>2026-09-01T19:57:09Z</time>
  <course>86.88</course>
  <speed>5.0</speed>
  <fix>3d</fix>
</trkpt>
<trkpt lat="-27.2699507" lon="151.2948399">
  <ele>343.19</ele>
  <time>2026-09-01T19:57:09Z</time>
  <course>69.54</course>
  <speed>1.0304368005850721</speed>
  <fix>3d</fix>
</trkpt>
<trkpt lat="-27.2699506" lon="151.2948386">
  <ele>343.1</ele>
  <time>2026-09-01T19:57:09Z</time>
  <course>86.92</course>
  <speed>2.02</speed>
  <fix>3d</fix>
</trkpt>
<trkpt lat="-27.2699507" lon="151.2948386">
  <ele>343.09</ele>
  <time>2026-09-01T19:57:09Z</time>
  <course>69.55</course>
  <speed>1.3709121051329294</speed>
  <fix>3d</fix>
</trkpt>
<trkpt lat="-27.2699506" lon="151.2948386">
  <ele>343.1</ele>
  <time>2026-09-01T19:57:09Z</time>
  <course>86.92</course>
  <speed>2.02</speed>
  <fix>3d</fix>
</trkpt>
<trkpt lat="-27.2699508" lon="151.2948376">
  <ele>343.1</ele>
  <time>2026-09-01T19:57:09Z</time>
  <course>69.55</course>
  <speed>0.7002856560004639</speed>
  <fix>3d</fix>
</trkpt>
<trkpt lat="-27.2699505" lon="151.2948394">
  <ele>343.1</ele>
  <time>2026-09-01T19:57:09Z</time>
  <course>266.99</course>
  <speed>0.84</speed>
  <fix>3d</fix>
</trkpt>
<trkpt lat="-27.2699508" lon="151.2948374">
  <ele>343.09</ele>
  <time>2026-09-01T19:57:09Z</time>
  <course>69.54</course>
  <speed>0.03</speed>
  <fix>3d</fix>
</trkpt>
<trkpt lat="-27.2699505" lon="151.2948394">
  <ele>343.1</ele>
  <time>2026-09-01T19:57:09Z</time>
  <course>266.99</course>
  <speed>0.84</speed>
  <fix>3d</fix>
</trkpt>
<trkpt lat="-27.2699507" lon="151.2948377">
  <ele>343.09</ele>
  <time>2026-09-01T19:57:09Z</time>
  <course>69.53</course>
  <speed>0.24020824298928628</speed>
  <fix>3d</fix>
</trkpt>
<trkpt lat="-27.2699506" lon="151.2948381">
  <ele>343.1</ele>
  <time>2026-09-01T19:57:09Z</time>
  <course>266.93</course>
  <speed>0.26</speed>
  <fix>3d</fix>
</trkpt>
<trkpt lat="-27.2699507" lon="151.294838">
  <ele>343.08</ele>
  <time>2026-09-01T19:57:09Z</time>
  <course>69.54</course>
  <speed>0.2102379604162864</speed>
  <fix>3d</fix>
</trkpt>
<trkpt lat="-27.2699506" lon="151.2948381">
  <ele>343.1</ele>
  <time>2026-09-01T19:57:09Z</time>
  <course>266.93</course>
  <speed>0.26</speed>
  <fix>3d</fix>
</trkpt>
<trkpt lat="-27.2699507" lon="151.2948382">
  <ele>343.08</ele>
  <time>2026-09-01T19:57:09Z</time>
  <course>69.55</course>
  <speed>0.09</speed>
  <fix>3d</fix>
</trkpt>
<trkpt lat="-27.2699506" lon="151.2948381">
  <ele>343.1</ele>
  <time>2026-09-01T19:57:09Z</time>
  <course>86.98</course>
  <speed>0.14</speed>
  <fix>3d</fix>
</trkpt>
<trkpt lat="-27.2699507" lon="151.2948383">
  <ele>343.07</ele>
  <time>2026-09-01T19:57:09Z</time>
  <course>69.56</course>
  <speed>0.01</speed>
  <fix>3d</fix>
</trkpt>
<trkpt lat="-27.2699506" lon="151.2948381">
  <ele>343.1</ele>
  <time>2026-09-01T19:57:09Z</time>
  <course>86.98</course>
  <speed>0.14</speed>
  <fix>3d</fix>
</trkpt>
<trkpt lat="-26.9720619" lon="149.6127921">
  <ele>339.29</ele>
  <time>2026-09-01T19:57:10Z</time>
  <course>52.51</course>
  <speed>0.0</speed>
  <fix>3d</fix>
</trkpt>
<trkpt lat="-26.9720619" lon="149.6127921">
  <ele>339.29</ele>
  <time>2026-09-01T19:57:10Z</time>
  <course>52.51</course>
  <speed>0.0</speed>
  <fix>3d</fix>
</trkpt>
<trkpt lat="-27.274439" lon="151.290064">
  <ele>-0.01</ele>
  <time>2026-09-01T19:57:10Z</time>
  <course>0.01</course>
  <speed>0.0</speed>
  <fix>3d</fix>
</trkpt>
<trkpt lat="-27.274439" lon="151.290064">
  <ele>343.1</ele>
  <time>2026-09-01T19:57:10Z</time>
  <course>52.28</course>
  <speed>0.0</speed>
  <fix>3d</fix>
</trkpt>
<trkpt lat="-27.274439" lon="151.290064">
  <ele>0.02</ele>
  <time>2026-09-01T19:57:10Z</time>
  <course>0.14</course>
  <speed>0.0</speed>
  <fix>3d</fix>
</trkpt>
<trkpt lat="-27.274439" lon="151.290064">
  <ele>343.1</ele>
  <time>2026-09-01T19:57:10Z</time>
  <course>52.28</course>
  <speed>0.0</speed>
  <fix>3d</fix>
</trkpt>
<trkpt lat="-27.274439" lon="151.290064">
  <ele>-0.08</ele>
  <time>2026-09-01T19:57:10Z</time>
  <course>0.27</course>
  <speed>0.0</speed>
  <fix>3d</fix>
</trkpt>
<trkpt lat="-27.274439" lon="151.290064">
  <ele>343.1</ele>
  <time>2026-09-01T19:57:10Z</time>
  <course>49.24</course>
  <speed>0.0</speed>
  <fix>3d</fix>
</trkpt>
<trkpt lat="-27.274439" lon="151.290064">
  <ele>0.22</ele>
  <time>2026-09-01T19:57:10Z</time>
  <course>0.4</course>
  <speed>0.0</speed>
  <fix>3d</fix>
</trkpt>
<trkpt lat="-27.274439" lon="151.290064">
  <ele>343.1</ele>
  <time>2026-09-01T19:57:10Z</time>
  <course>49.24</course>
  <speed>0.0</speed>
  <fix>3d</fix>
</trkpt>
<trkpt lat="-27.274439" lon="151.290064">
  <ele>0.09</ele>
  <time>2026-09-01T19:57:10Z</time>
  <course>0.53</course>
  <speed>0.0</speed>
  <fix>3d</fix>
</trkpt>
<trkpt lat="-27.274439" lon="151.290064">
  <ele>343.1</ele>
  <time>2026-09-01T19:57:10Z</time>
  <course>50.45</course>
  <speed>0.0</speed>
  <fix>3d</fix>
</trkpt>
<trkpt lat="-27.274439" lon="151.290064">
  <ele>0.08</ele>
  <time>2026-09-01T19:57:10Z</time>
  <course>0.7</course>
  <speed>0.0</speed>
  <fix>3d</fix>
</trkpt>
<trkpt lat="-27.274439" lon="151.290064">
  <ele>343.1</ele>
  <time>2026-09-01T19:57:10Z</time>
  <course>50.45</course>
  <speed>0.0</speed>
  <fix>3d</fix>
</trkpt>
<trkpt lat="-27.274439" lon="151.290064">
  <ele>0.09</ele>
  <time>2026-09-01T19:57:10Z</time>
  <course>1.65</course>
  <speed>0.0</speed>
  <fix>3d</fix>
</trkpt>
<trkpt lat="-27.274439" lon="151.290064">
  <ele>343.1</ele>
  <time>2026-09-01T19:57:10Z</time>
  <course>52.99</course>
  <speed>0.0</speed>
  <fix>3d</fix>
</trkpt>
<trkpt lat="-27.274439" lon="151.290064">
  <ele>-0.05</ele>
  <time>2026-09-01T19:57:10Z</time>
  <course>2.52</course>
  <speed>0.0</speed>
  <fix>3d</fix>
</trkpt>
<trkpt lat="-27.274439" lon="151.290064">
  <ele>343.1</ele>
  <time>2026-09-01T19:57:10Z</time>
  <course>52.99</course>
  <speed>0.0</speed>
  <fix>3d</fix>
</trkpt>
<trkpt lat="-27.274439" lon="151.290064">
  <ele>343.06</ele>
  <time>2026-09-01T19:57:10Z</time>
  <course>3.27</course>
  <speed>0.0</speed>
  <fix>3d</fix>
</trkpt>
<trkpt lat="-27.274439" lon="151.290064">
  <ele>343.1</ele>
  <time>2026-09-01T19:57:10Z</time>
  <course>53.0</course>
  <speed>0.0</speed>
  <fix>3d</fix>
</trkpt>
<trkpt lat="-27.274439" lon="151.290064">
  <ele>343.18</ele>
  <time>2026-09-01T19:57:10Z</time>
  <course>3.99</course>
  <speed>0.0</speed>
  <fix>3d</fix>
</trkpt>
<trkpt lat="-27.274439" lon="151.290064">
  <ele>343.1</ele>
  <time>2026-09-01T19:57:10Z</time>
  <course>53.0</course>
  <speed>0.0</speed>
  <fix>3d</fix>
</trkpt>
<trkpt lat="-27.274439" lon="151.290064">
  <ele>342.91</ele>
  <time>2026-09-01T19:57:10Z</time>
  <course>4.64</course>
  <speed>0.0</speed>
  <fix>3d</fix>
</trkpt>
<trkpt lat="-27.274439" lon="151.290064">
  <ele>343.1</ele>
  <time>2026-09-01T19:57:10Z</time>
  <course>53.0</course>
  <speed>0.0</speed>
  <fix>3d</fix>
</trkpt>
<trkpt lat="-27.274439" lon="151.290064">
  <ele>343.06</ele>
  <time>2026-09-01T19:57:10Z</time>
  <course>5.23</course>
  <speed>0.0</speed>
  <fix>3d</fix>
</trkpt>
<trkpt lat="-27.274439" lon="151.290064">
  <ele>343.1</ele>
  <time>2026-09-01T19:57:10Z</time>
  <course>53.0</course>
  <speed>0.0</speed>
  <fix>3d</fix>
</trkpt>
<trkpt lat="-27.274439" lon="151.290064">
  <ele>343.13</ele>
  <time>2026-09-01T19:57:10Z</time>
  <course>5.76</course>
  <speed>0.0</speed>
  <fix>3d</fix>
</trkpt>
<trkpt lat="-27.274439" lon="151.290064">
  <ele>343.1</ele>
  <time>2026-09-01T19:57:10Z</time>
  <course>233.0</course>
  <speed>0.0</speed>
  <fix>3d</fix>
</trkpt>
<trkpt lat="-27.274439" lon="151.290064">
  <ele>343.04</ele>
  <time>2026-09-01T19:57:10Z</time>
  <course>6.24</course>
  <speed>0.0</speed>
  <fix>3d</fix>
</trkpt>
<trkpt lat="-27.274439" lon="151.290064">
  <ele>343.1</ele>
  <time>2026-09-01T19:57:10Z</time>
  <course>233.0</course>
  <speed>0.0</speed>
  <fix>3d</fix>
</trkpt>
<trkpt lat="-27.274439" lon="151.290064">
  <ele>342.88</ele>
  <time>2026-09-01T19:57:10Z</time>
  <course>6.68</course>
  <speed>0.0</speed>
  <fix>3d</fix>
</trkpt>
<trkpt lat="-27.274439" lon="151.290064">
  <ele>343.1</ele>
  <time>2026-09-01T19:57:10Z</time>
  <course>233.0</course>
  <speed>0.0</speed>
  <fix>3d</fix>
</trkpt>
<trkpt lat="-27.274439" lon="151.290064">
  <ele>343.02</ele>
  <time>2026-09-01T19:57:10Z</time>
  <course>7.07</course>
  <speed>0.0</speed>
  <fix>3d</fix>
</trkpt>
<trkpt lat="-27.274439" lon="151.290064">
  <ele>343.1</ele>
  <time>2026-09-01T19:57:10Z</time>
  <course>233.0</course>
  <speed>0.0</speed>
  <fix>3d</fix>
</trkpt>
<trkpt lat="-27.274439" lon="151.290064">
  <ele>343.23</ele>
  <time>2026-09-01T19:57:10Z</time>
  <course>7.44</course>
  <speed>0.0</speed>
  <fix>3d</fix>
</trkpt>
<trkpt lat="-27.274439" lon="151.290064">
  <ele>343.1</ele>
  <time>2026-09-01T19:57:10Z</time>
  <course>53.0</course>
  <speed>0.0</speed>
  <fix>3d</fix>
</trkpt>
<trkpt lat="-27.274439" lon="151.290064">
  <ele>343.17</ele>
  <time>2026-09-01T19:57:10Z</time>
  <course>7.75</course>
  <speed>0.0</speed>
  <fix>3d</fix>
</trkpt>
<trkpt lat="-27.274439" lon="151.290064">
  <ele>343.1</ele>
  <time>2026-09-01T19:57:10Z</time>
  <course>53.0</course>
  <speed>0.0</speed>
  <fix>3d</fix>
</trkpt>
<trkpt lat="-27.274439" lon="151.290064">
  <ele>343.04</ele>
  <time>2026-09-01T19:57:10Z</time>
  <course>8.04</course>
  <speed>0.0</speed>
  <fix>3d</fix>
</trkpt>
<trkpt lat="-27.274439" lon="151.290064">
  <ele>343.1</ele>
  <time>2026-09-01T19:57:10Z</time>
  <course>232.99</course>
  <speed>0.0</speed>
  <fix>3d</fix>
</trkpt>
<trkpt lat="-27.274439" lon="151.290064">
  <ele>342.89</ele>
  <time>2026-09-01T19:57:10Z</time>
  <course>8.3</course>
  <speed>0.0</speed>
  <fix>3d</fix>
</trkpt>
<trkpt lat="-27.274439" lon="151.290064">
  <ele>343.1</ele>
  <time>2026-09-01T19:57:10Z</time>
  <course>232.99</course>
  <speed>0.0</speed>
  <fix>3d</fix>
</trkpt>
<trkpt lat="-27.274439" lon="151.290064">
  <ele>343.08</ele>
  <time>2026-09-01T19:57:10Z</time>
  <course>8.53</course>
  <speed>0.0</speed>
  <fix>3d</fix>
</trkpt>
<trkpt lat="-27.274439" lon="151.290064">
  <ele>343.1</ele>
  <time>2026-09-01T19:57:10Z</time>
  <course>233.0</course>
  <speed>0.0</speed>
  <fix>3d</fix>
</trkpt>
<trkpt lat="-27.274439" lon="151.290064">
  <ele>343.19</ele>
  <time>2026-09-01T19:57:10Z</time>
  <course>8.75</course>
  <speed>0.0</speed>
  <fix>3d</fix>
</trkpt>
<trkpt lat="-27.274439" lon="151.290064">
  <ele>343.1</ele>
  <time>2026-09-01T19:57:10Z</time>
  <course>233.0</course>
  <speed>0.0</speed>
  <fix>3d</fix>
</trkpt>
<trkpt lat="-27.274439" lon="151.290064">
  <ele>342.88</ele>
  <time>2026-09-01T19:57:10Z</time>
  <course>8.94</course>
  <speed>0.0</speed>
  <fix>3d</fix>
</trkpt>
<trkpt lat="-27.274439" lon="151.290064">
  <ele>343.1</ele>
  <time>2026-09-01T19:57:10Z</time>
  <course>52.99</course>
  <speed>0.0</speed>
  <fix>3d</fix>
</trkpt>
<trkpt lat="-27.274439" lon="151.290064">
  <ele>343.17</ele>
  <time>2026-09-01T19:57:10Z</time>
  <course>9.11</course>
  <speed>0.0</speed>
  <fix>3d</fix>
</trkpt>
<trkpt lat="-27.274439" lon="151.290064">
  <ele>343.1</ele>
  <time>2026-09-01T19:57:10Z</time>
  <course>52.99</course>
  <speed>0.0</speed>
  <fix>3d</fix>
</trkpt>
<trkpt lat="-27.274439" lon="151.290064">
  <ele>342.89</ele>
  <time>2026-09-01T19:57:10Z</time>
  <course>9.27</course>
  <speed>0.0</speed>
  <fix>3d</fix>
</trkpt>
<trkpt lat="-27.274439" lon="151.290064">
  <ele>343.1</ele>
  <time>2026-09-01T19:57:10Z</time>
  <course>53.0</course>
  <speed>0.0</speed>
  <fix>3d</fix>
</trkpt>
<trkpt lat="-27.274439" lon="151.290064">
  <ele>342.99</ele>
  <time>2026-09-01T19:57:10Z</time>
  <course>9.41</course>
  <speed>0.0</speed>
  <fix>3d</fix>
</trkpt>
<trkpt lat="-27.274439" lon="151.290064">
  <ele>343.1</ele>
  <time>2026-09-01T19:57:10Z</time>
  <course>53.0</course>
  <speed>0.0</speed>
  <fix>3d</fix>
</trkpt>
<trkpt lat="-27.274439" lon="151.290064">
  <ele>342.87</ele>
  <time>2026-09-01T19:57:10Z</time>
  <course>9.55</course>
  <speed>0.0</speed>
  <fix>3d</fix>
</trkpt>
<trkpt lat="-27.274439" lon="151.290064">
  <ele>343.1</ele>
  <time>2026-09-01T19:57:10Z</time>
  <course>233.0</course>
  <speed>0.0</speed>
  <fix>3d</fix>
</trkpt>
<trkpt lat="-27.274439" lon="151.290064">
  <ele>343.09</ele>
  <time>2026-09-01T19:57:10Z</time>
  <course>9.67</course>
  <speed>0.0</speed>
  <fix>3d</fix>
</trkpt>
<trkpt lat="-27.274439" lon="151.290064">
  <ele>343.1</ele>
  <time>2026-09-01T19:57:10Z</time>
  <course>233.0</course>
  <speed>0.0</speed>
  <fix>3d</fix>
</trkpt>
<trkpt lat="-27.274439" lon="151.290064">
  <ele>343.18</ele>
  <time>2026-09-01T19:57:10Z</time>
  <course>9.77</course>
  <speed>0.0</speed>
  <fix>3d</fix>
</trkpt>
<trkpt lat="-27.274439" lon="151.290064">
  <ele>343.1</ele>
  <time>2026-09-01T19:57:10Z</time>
  <course>233.0</course>
  <speed>0.0</speed>
  <fix>3d</fix>
</trkpt>
<trkpt lat="-27.274439" lon="151.290064">
  <ele>343.05</ele>
  <time>2026-09-01T19:57:10Z</time>
  <course>9.87</course>
  <speed>0.0</speed>
  <fix>3d</fix>
</trkpt>
<trkpt lat="-27.274439" lon="151.290064">
  <ele>343.1</ele>
  <time>2026-09-01T19:57:10Z</time>
  <course>233.0</course>
  <speed>0.0</speed>
  <fix>3d</fix>
</trkpt>
<trkpt lat="-27.274439" lon="151.290064">
  <ele>342.96</ele>
  <time>2026-09-01T19:57:10Z</time>
  <course>9.96</course>
  <speed>0.0</speed>
  <fix>3d</fix>
</trkpt>
<trkpt lat="-27.274439" lon="151.290064">
  <ele>343.1</ele>
  <time>2026-09-01T19:57:10Z</time>
  <course>53.0</course>
  <speed>0.0</speed>
  <fix>3d</fix>
</trkpt>
<trkpt lat="-27.274439" lon="151.290064">
  <ele>343.1</ele>
  <time>2026-09-01T19:57:10Z</time>
  <course>10.04</course>
  <speed>0.0</speed>
  <fix>3d</fix>
</trkpt>
<trkpt lat="-27.274439" lon="151.290064">
  <ele>343.1</ele>
  <time>2026-09-01T19:57:10Z</time>
  <course>53.0</course>
  <speed>0.0</speed>
  <fix>3d</fix>
</trkpt>
<trkpt lat="-27.274439" lon="151.290064">
  <ele>343.22</ele>
  <time>2026-09-01T19:57:10Z</time>
  <course>10.12</course>
  <speed>0.0</speed>
  <fix>3d</fix>
</trkpt>
<trkpt lat="-27.274439" lon="151.290064">
  <ele>343.1</ele>
  <time>2026-09-01T19:57:10Z</time>
  <course>53.0</course>
  <speed>0.0</speed>
  <fix>3d</fix>
</trkpt>
<trkpt lat="-27.274439" lon="151.290064">
  <ele>343.17</ele>
  <time>2026-09-01T19:57:10Z</time>
  <course>10.18</course>
  <speed>0.0</speed>
  <fix>3d</fix>
</trkpt>
<trkpt lat="-27.274439" lon="151.290064">
  <ele>343.1</ele>
  <time>2026-09-01T19:57:10Z</time>
  <course>53.0</course>
  <speed>0.0</speed>
  <fix>3d</fix>
</trkpt>
<trkpt lat="-27.274439" lon="151.290064">
  <ele>343.08</ele>
  <time>2026-09-01T19:57:10Z</time>
  <course>10.24</course>
  <speed>0.0</speed>
  <fix>3d</fix>
</trkpt>
<trkpt lat="-27.274439" lon="151.290064">
  <ele>343.1</ele>
  <time>2026-09-01T19:57:10Z</time>
  <course>233.0</course>
  <speed>0.0</speed>
  <fix>3d</fix>
</trkpt>
<trkpt lat="-27.274439" lon="151.290064">
  <ele>343.04</ele>
  <time>2026-09-01T19:57:10Z</time>
  <course>10.3</course>
  <speed>0.0</speed>
  <fix>3d</fix>
</trkpt>
<trkpt lat="-27.274439" lon="151.290064">
  <ele>343.1</ele>
  <time>2026-09-01T19:57:10Z</time>
  <course>233.0</course>
  <speed>0.0</speed>
  <fix>3d</fix>
</trkpt>
<trkpt lat="-27.274439" lon="151.290064">
  <ele>343.18</ele>
  <time>2026-09-01T19:57:10Z</time>
  <course>10.35</course>
  <speed>0.0</speed>
  <fix>3d</fix>
</trkpt>
<trkpt lat="-27.274439" lon="151.290064">
  <ele>343.1</ele>
  <time>2026-09-01T19:57:10Z</time>
  <course>233.06</course>
  <speed>0.0</speed>
  <fix>3d</fix>
</trkpt>
<trkpt lat="-27.274439" lon="151.290064">
  <ele>343.12</ele>
  <time>2026-09-01T19:57:10Z</time>
  <course>10.39</course>
  <speed>0.0</speed>
  <fix>3d</fix>
</trkpt>
<trkpt lat="-27.274439" lon="151.290064">
  <ele>343.1</ele>
  <time>2026-09-01T19:57:10Z</time>
  <course>233.06</course>
  <speed>0.0</speed>
  <fix>3d</fix>
</trkpt>
<trkpt lat="-27.274439" lon="151.290064">
  <ele>343.04</ele>
  <time>2026-09-01T19:57:10Z</time>
  <course>10.43</course>
  <speed>0.0</speed>
  <fix>3d</fix>
</trkpt>
<trkpt lat="-27.274439" lon="151.290064">
  <ele>343.1</ele>
  <time>2026-09-01T19:57:10Z</time>
  <course>52.99</course>
  <speed>0.0</speed>
  <fix>3d</fix>
</trkpt>
<trkpt lat="-27.274439" lon="151.290064">
  <ele>343.07</ele>
  <time>2026-09-01T19:57:10Z</time>
  <course>10.47</course>
  <speed>0.0</speed>
  <fix>3d</fix>
</trkpt>
<trkpt lat="-27.274439" lon="151.290064">
  <ele>343.1</ele>
  <time>2026-09-01T19:57:10Z</time>
  <course>52.99</course>
  <speed>0.0</speed>
  <fix>3d</fix>
</trkpt>
<trkpt lat="-27.274439" lon="151.290064">
  <ele>343.04</ele>
  <time>2026-09-01T19:57:10Z</time>
  <course>10.5</course>
  <speed>0.0</speed>
  <fix>3d</fix>
</trkpt>
<trkpt lat="-27.274439" lon="151.290064">
  <ele>343.1</ele>
  <time>2026-09-01T19:57:10Z</time>
  <course>233.0</course>
  <speed>0.0</speed>
  <fix>3d</fix>
</trkpt>
<trkpt lat="-27.274439" lon="151.290064">
  <ele>343.01</ele>
  <time>2026-09-01T19:57:11Z</time>
  <course>10.53</course>
  <speed>0.0</speed>
  <fix>3d</fix>
</trkpt>
<trkpt lat="-27.274439" lon="151.290064">
  <ele>343.1</ele>
  <time>2026-09-01T19:57:11Z</time>
  <course>233.0</course>
  <speed>0.0</speed>
  <fix>3d</fix>
</trkpt>
<trkpt lat="-27.274439" lon="151.290064">
  <ele>343.2</ele>
  <time>2026-09-01T19:57:11Z</time>
  <course>10.55</course>
  <speed>0.0</speed>
  <fix>3d</fix>
</trkpt>
<trkpt lat="-27.274439" lon="151.290064">
  <ele>343.1</ele>
  <time>2026-09-01T19:57:11Z</time>
  <course>233.0</course>
  <speed>0.0</speed>
  <fix>3d</fix>
</trkpt>
<trkpt lat="-27.274439" lon="151.290064">
  <ele>343.24</ele>
  <time>2026-09-01T19:57:11Z</time>
  <course>10.58</course>
  <speed>0.0</speed>
  <fix>3d</fix>
</trkpt>
<trkpt lat="-27.274439" lon="151.290064">
  <ele>343.1</ele>
  <time>2026-09-01T19:57:11Z</time>
  <course>233.0</course>
  <speed>0.0</speed>
  <fix>3d</fix>
</trkpt>
<trkpt lat="-27.274439" lon="151.290064">
  <ele>342.88</ele>
  <time>2026-09-01T19:57:11Z</time>
  <course>10.6</course>
  <speed>0.0</speed>
  <fix>3d</fix>
</trkpt>
<trkpt lat="-27.274439" lon="151.290064">
  <ele>343.1</ele>
  <time>2026-09-01T19:57:11Z</time>
  <course>53.01</course>
  <speed>0.0</speed>
  <fix>3d</fix>
</trkpt>
<trkpt lat="-27.274439" lon="151.290064">
  <ele>343.21</ele>
  <time>2026-09-01T19:57:11Z</time>
  <course>10.62</course>
  <speed>0.0</speed>
  <fix>3d</fix>
</trkpt>
<trkpt lat="-27.274439" lon="151.290064">
  <ele>343.1</ele>
  <time>2026-09-01T19:57:11Z</time>
  <course>53.01</course>
  <speed>0.0</speed>
  <fix>3d</fix>
</trkpt>
<trkpt lat="-27.274439" lon="151.290064">
  <ele>343.02</ele>
  <time>2026-09-01T19:57:11Z</time>
  <course>10.64</course>
  <speed>0.0</speed>
  <fix>3d</fix>
</trkpt>
<trkpt lat="-27.274439" lon="151.290064">
  <ele>343.1</ele>
  <time>2026-09-01T19:57:11Z</time>
  <course>53.05</course>
  <speed>0.0</speed>
  <fix>3d</fix>
</trkpt>
<trkpt lat="-27.274439" lon="151.290064">
  <ele>342.93</ele>
  <time>2026-09-01T19:57:11Z</time>
  <course>10.65</course>
  <speed>0.0</speed>
  <fix>3d</fix>
</trkpt>
<trkpt lat="-27.274439" lon="151.290064">
  <ele>343.1</ele>
  <time>2026-09-01T19:57:11Z</time>
  <course>53.05</course>
  <speed>0.0</speed>
  <fix>3d</fix>
</trkpt>
<trkpt lat="-27.274439" lon="151.290064">
  <ele>343.07</ele>
  <time>2026-09-01T19:57:11Z</time>
  <course>10.67</course>
  <speed>0.0</speed>
  <fix>3d</fix>
</trkpt>
<trkpt lat="-27.274439" lon="151.290064">
  <ele>343.1</ele>
  <time>2026-09-01T19:57:11Z</time>
  <course>232.72</course>
  <speed>0.0</speed>
  <fix>3d</fix>
</trkpt>
<trkpt lat="-27.274439" lon="151.290064">
  <ele>342.94</ele>
  <time>2026-09-01T19:57:11Z</time>
  <course>10.68</course>
  <speed>0.0</speed>
  <fix>3d</fix>
</trkpt>
<trkpt lat="-27.274439" lon="151.290064">
  <ele>343.1</ele>
  <time>2026-09-01T19:57:11Z</time>
  <course>232.72</course>
  <speed>0.0</speed>
  <fix>3d</fix>
</trkpt>
<trkpt lat="-27.274439" lon="151.290064">
  <ele>343.11</ele>
  <time>2026-09-01T19:57:11Z</time>
  <course>10.69</course>
  <speed>0.0</speed>
  <fix>3d</fix>
</trkpt>
<trkpt lat="-27.274439" lon="151.290064">
  <ele>343.1</ele>
  <time>2026-09-01T19:57:11Z</time>
  <course>231.43</course>
  <speed>0.0</speed>
  <fix>3d</fix>
</trkpt>
<trkpt lat="-27.274439" lon="151.290064">
  <ele>343.24</ele>
  <time>2026-09-01T19:57:11Z</time>
  <course>10.7</course>
  <speed>0.0</speed>
  <fix>3d</fix>
</trkpt>
<trkpt lat="-27.274439" lon="151.290064">
  <ele>343.1</ele>
  <time>2026-09-01T19:57:11Z</time>
  <course>231.43</course>
  <speed>0.0</speed>
  <fix>3d</fix>
</trkpt>
<trkpt lat="-27.274439" lon="151.290064">
  <ele>343.18</ele>
  <time>2026-09-01T19:57:11Z</time>
  <course>10.71</course>
  <speed>0.0</speed>
  <fix>3d</fix>
</trkpt>
<trkpt lat="-27.274439" lon="151.290064">
  <ele>343.1</ele>
  <time>2026-09-01T19:57:11Z</time>
  <course>55.65</course>
  <speed>0.0</speed>
  <fix>3d</fix>
</trkpt>
<trkpt lat="-27.274439" lon="151.290064">
  <ele>342.89</ele>
  <time>2026-09-01T19:57:11Z</time>
  <course>10.72</course>
  <speed>0.0</speed>
  <fix>3d</fix>
</trkpt>
<trkpt lat="-27.274439" lon="151.290064">
  <ele>343.1</ele>
  <time>2026-09-01T19:57:11Z</time>
  <course>55.65</course>
  <speed>0.0</speed>
  <fix>3d</fix>
</trkpt>
<trkpt lat="-27.274439" lon="151.290064">
  <ele>343.23</ele>
  <time>2026-09-01T19:57:11Z</time>
  <course>10.73</course>
  <speed>0.0</speed>
  <fix>3d</fix>
</trkpt>
<trkpt lat="-27.274439" lon="151.290064">
  <ele>343.1</ele>
  <time>2026-09-01T19:57:11Z</time>
  <course>70.9</course>
  <speed>0.0</speed>
  <fix>3d</fix>
</trkpt>
<trkpt lat="-27.274439" lon="151.290064">
  <ele>343.23</ele>
  <time>2026-09-01T19:57:11Z</time>
  <course>10.74</course>
  <speed>0.0</speed>
  <fix>3d</fix>
</trkpt>
<trkpt lat="-27.274439" lon="151.290064">
  <ele>343.1</ele>
  <time>2026-09-01T19:57:11Z</time>
  <course>70.9</course>
  <speed>0.0</speed>
  <fix>3d</fix>
</trkpt>
<trkpt lat="-27.274439" lon="151.290064">
  <ele>342.99</ele>
  <time>2026-09-01T19:57:11Z</time>
  <course>10.74</course>
  <speed>0.0</speed>
  <fix>3d</fix>
</trkpt>
<trkpt lat="-27.274439" lon="151.290064">
  <ele>343.1</ele>
  <time>2026-09-01T19:57:11Z</time>
  <course>223.83</course>
  <speed>0.0</speed>
  <fix>3d</fix>
</trkpt>
<trkpt lat="-27.274439" lon="151.290064">
  <ele>343.13</ele>
  <time>2026-09-01T19:57:11Z</time>
  <course>10.75</course>
  <speed>0.0</speed>
  <fix>3d</fix>
</trkpt>
<trkpt lat="-27.274439" lon="151.290064">
  <ele>343.1</ele>
  <time>2026-09-01T19:57:11Z</time>
  <course>223.83</course>
  <speed>0.0</speed>
  <fix>3d</fix>
</trkpt>
<trkpt lat="-27.274439" lon="151.290064">
  <ele>343.07</ele>
  <time>2026-09-01T19:57:11Z</time>
  <course>10.75</course>
  <speed>0.0</speed>
  <fix>3d</fix>
</trkpt>
<trkpt lat="-27.274439" lon="151.290064">
  <ele>343.1</ele>
  <time>2026-09-01T19:57:11Z</time>
  <course>175.31</course>
  <speed>0.0</speed>
  <fix>3d</fix>
</trkpt>
<trkpt lat="-27.274439" lon="151.290064">
  <ele>343.19</ele>
  <time>2026-09-01T19:57:11Z</time>
  <course>10.76</course>
  <speed>0.0</speed>
  <fix>3d</fix>
</trkpt>
<trkpt lat="-27.274439" lon="151.290064">
  <ele>343.1</ele>
  <time>2026-09-01T19:57:11Z</time>
  <course>175.31</course>
  <speed>0.0</speed>
  <fix>3d</fix>
</trkpt>
<trkpt lat="-27.274439" lon="151.290064">
  <ele>342.93</ele>
  <time>2026-09-01T19:57:11Z</time>
  <course>10.76</course>
  <speed>0.0</speed>
  <fix>3d</fix>
</trkpt>
<trkpt lat="-27.274439" lon="151.290064">
  <ele>343.1</ele>
  <time>2026-09-01T19:57:11Z</time>
  <course>162.15</course>
  <speed>0.0</speed>
  <fix>3d</fix>
</trkpt>
<trkpt lat="-27.274439" lon="151.290064">
  <ele>343.19</ele>
  <time>2026-09-01T19:57:11Z</time>
  <course>10.77</course>
  <speed>0.0</speed>
  <fix>3d</fix>
</trkpt>
<trkpt lat="-27.274439" lon="151.290064">
  <ele>343.1</ele>
  <time>2026-09-01T19:57:11Z</time>
  <course>162.15</course>
  <speed>0.0</speed>
  <fix>3d</fix>
</trkpt>
<trkpt lat="-27.274439" lon="151.290064">
  <ele>343.1</ele>
  <time>2026-09-01T19:57:11Z</time>
  <course>10.77</course>
  <speed>0.0</speed>
  <fix>3d</fix>
</trkpt>
<trkpt lat="-27.274439" lon="151.290064">
  <ele>343.1</ele>
  <time>2026-09-01T19:57:11Z</time>
  <course>160.53</course>
  <speed>0.0</speed>
  <fix>3d</fix>
</trkpt>
<trkpt lat="-27.274439" lon="151.290064">
  <ele>343.01</ele>
  <time>2026-09-01T19:57:11Z</time>
  <course>10.77</course>
  <speed>0.0</speed>
  <fix>3d</fix>
</trkpt>
<trkpt lat="-27.274439" lon="151.290064">
  <ele>343.1</ele>
  <time>2026-09-01T19:57:11Z</time>
  <course>160.53</course>
  <speed>0.0</speed>
  <fix>3d</fix>
</trkpt>
<trkpt lat="-27.274439" lon="151.290064">
  <ele>343.11</ele>
  <time>2026-09-01T19:57:11Z</time>
  <course>10.78</course>
  <speed>0.0</speed>
  <fix>3d</fix>
</trkpt>
<trkpt lat="-27.274439" lon="151.290064">
  <ele>343.1</ele>
  <time>2026-09-01T19:57:11Z</time>
  <course>160.31</course>
  <speed>0.0</speed>
  <fix>3d</fix>
</trkpt>
<trkpt lat="-27.274439" lon="151.290064">
  <ele>342.96</ele>
  <time>2026-09-01T19:57:11Z</time>
  <course>10.78</course>
  <speed>0.0</speed>
  <fix>3d</fix>
</trkpt>
<trkpt lat="-27.274439" lon="151.290064">
  <ele>343.1</ele>
  <time>2026-09-01T19:57:11Z</time>
  <course>160.31</course>
  <speed>0.0</speed>
  <fix>3d</fix>
</trkpt>
<trkpt lat="-27.274439" lon="151.290064">
  <ele>343.19</ele>
  <time>2026-09-01T19:57:11Z</time>
  <course>10.78</course>
  <speed>0.0</speed>
  <fix>3d</fix>
</trkpt>
<trkpt lat="-27.274439" lon="151.290064">
  <ele>343.1</ele>
  <time>2026-09-01T19:57:11Z</time>
  <course>160.29</course>
  <speed>0.0</speed>
  <fix>3d</fix>
</trkpt>
<trkpt lat="-27.274439" lon="151.290064">
  <ele>343.0</ele>
  <time>2026-09-01T19:57:11Z</time>
  <course>10.78</course>
  <speed>0.0</speed>
  <fix>3d</fix>
</trkpt>
<trkpt lat="-27.274439" lon="151.290064">
  <ele>343.1</ele>
  <time>2026-09-01T19:57:11Z</time>
  <course>160.29</course>
  <speed>0.0</speed>
  <fix>3d</fix>
</trkpt>
<trkpt lat="-27.274439" lon="151.290064">
  <ele>343.2</ele>
  <time>2026-09-01T19:57:11Z</time>
  <course>10.79</course>
  <speed>0.0</speed>
  <fix>3d</fix>
</trkpt>
<trkpt lat="-27.274439" lon="151.290064">
  <ele>343.1</ele>
  <time>2026-09-01T19:57:11Z</time>
  <course>160.28</course>
  <speed>0.0</speed>
  <fix>3d</fix>
</trkpt>
<trkpt lat="-27.274439" lon="151.290064">
  <ele>343.2</ele>
  <time>2026-09-01T19:57:11Z</time>
  <course>10.79</course>
  <speed>0.0</speed>
  <fix>3d</fix>
</trkpt>
<trkpt lat="-27.274439" lon="151.290064">
  <ele>343.1</ele>
  <time>2026-09-01T19:57:11Z</time>
  <course>160.28</course>
  <speed>0.0</speed>
  <fix>3d</fix>
</trkpt>
<trkpt lat="-27.274439" lon="151.290064">
  <ele>343.13</ele>
  <time>2026-09-01T19:57:11Z</time>
  <course>10.79</course>
  <speed>0.0</speed>
  <fix>3d</fix>
</trkpt>
<trkpt lat="-27.274439" lon="151.290064">
  <ele>343.1</ele>
  <time>2026-09-01T19:57:11Z</time>
  <course>160.28</course>
  <speed>0.0</speed>
  <fix>3d</fix>
</trkpt>
<trkpt lat="-27.274439" lon="151.290064">
  <ele>343.1</ele>
  <time>2026-09-01T19:57:11Z</time>
  <course>10.79</course>
  <speed>0.0</speed>
  <fix>3d</fix>
</trkpt>
<trkpt lat="-27.274439" lon="151.290064">
  <ele>343.1</ele>
  <time>2026-09-01T19:57:11Z</time>
  <course>160.28</course>
  <speed>0.0</speed>
  <fix>3d</fix>
</trkpt>
<trkpt lat="-27.274439" lon="151.290064">
  <ele>343.12</ele>
  <time>2026-09-01T19:57:11Z</time>
  <course>10.79</course>
  <speed>0.0</speed>
  <fix>3d</fix>
</trkpt>
<trkpt lat="-27.274439" lon="151.290064">
  <ele>343.1</ele>
  <time>2026-09-01T19:57:11Z</time>
  <course>160.28</course>
  <speed>0.0</speed>
  <fix>3d</fix>
</trkpt>
<trkpt lat="-27.274439" lon="151.290064">
  <ele>342.94</ele>
  <time>2026-09-01T19:57:11Z</time>
  <course>10.79</course>
  <speed>0.0</speed>
  <fix>3d</fix>
</trkpt>
<trkpt lat="-27.274439" lon="151.290064">
  <ele>343.1</ele>
  <time>2026-09-01T19:57:11Z</time>
  <course>160.28</course>
  <speed>0.0</speed>
  <fix>3d</fix>
</trkpt>
<trkpt lat="-27.274439" lon="151.290064">
  <ele>343.25</ele>
  <time>2026-09-01T19:57:11Z</time>
  <course>10.79</course>
  <speed>0.0</speed>
  <fix>3d</fix>
</trkpt>
<trkpt lat="-27.274439" lon="151.290064">
  <ele>343.1</ele>
  <time>2026-09-01T19:57:11Z</time>
  <course>160.28</course>
  <speed>0.0</speed>
  <fix>3d</fix>
</trkpt>
<trkpt lat="-27.274439" lon="151.290064">
  <ele>342.93</ele>
  <time>2026-09-01T19:57:11Z</time>
  <course>10.79</course>
  <speed>0.0</speed>
  <fix>3d</fix>
</trkpt>
<trkpt lat="-27.274439" lon="151.290064">
  <ele>343.1</ele>
  <time>2026-09-01T19:57:11Z</time>
  <course>160.28</course>
  <speed>0.0</speed>
  <fix>3d</fix>
</trkpt>
<trkpt lat="-27.274439" lon="151.290064">
  <ele>343.08</ele>
  <time>2026-09-01T19:57:11Z</time>
  <course>10.8</course>
  <speed>0.0</speed>
  <fix>3d</fix>
</trkpt>
<trkpt lat="-27.274439" lon="151.290064">
  <ele>343.1</ele>
  <time>2026-09-01T19:57:11Z</time>
  <course>160.28</course>
  <speed>0.0</speed>
  <fix>3d</fix>
</trkpt>
<trkpt lat="-27.274439" lon="151.290064">
  <ele>343.23</ele>
  <time>2026-09-01T19:57:11Z</time>
  <course>10.8</course>
  <speed>0.0</speed>
  <fix>3d</fix>
</trkpt>
<trkpt lat="-27.274439" lon="151.290064">
  <ele>343.1</ele>
  <time>2026-09-01T19:57:11Z</time>
  <course>160.28</course>
  <speed>0.0</speed>
  <fix>3d</fix>
</trkpt>
<trkpt lat="-27.274439" lon="151.290064">
  <ele>343.01</ele>
  <time>2026-09-01T19:57:11Z</time>
  <course>10.8</course>
  <speed>0.0</speed>
  <fix>3d</fix>
</trkpt>
<trkpt lat="-27.274439" lon="151.290064">
  <ele>343.1</ele>
  <time>2026-09-01T19:57:11Z</time>
  <course>160.28</course>
  <speed>0.0</speed>
  <fix>3d</fix>
</trkpt>
<trkpt lat="-27.274439" lon="151.290064">
  <ele>343.1</ele>
  <time>2026-09-01T19:57:11Z</time>
  <course>10.8</course>
  <speed>0.0</speed>
  <fix>3d</fix>
</trkpt>
<trkpt lat="-27.274439" lon="151.290064">
  <ele>343.1</ele>
  <time>2026-09-01T19:57:11Z</time>
  <course>160.28</course>
  <speed>0.0</speed>
  <fix>3d</fix>
</trkpt>
<trkpt lat="-27.274439" lon="151.290064">
  <ele>342.99</ele>
  <time>2026-09-01T19:57:11Z</time>
  <course>10.8</course>
  <speed>0.0</speed>
  <fix>3d</fix>
</trkpt>
<trkpt lat="-27.274439" lon="151.290064">
  <ele>343.1</ele>
  <time>2026-09-01T19:57:11Z</time>
  <course>160.28</course>
  <speed>0.0</speed>
  <fix>3d</fix>
</trkpt>
<trkpt lat="-27.274439" lon="151.290064">
  <ele>342.87</ele>
  <time>2026-09-01T19:57:11Z</time>
  <course>10.8</course>
  <speed>0.0</speed>
  <fix>3d</fix>
</trkpt>
<trkpt lat="-27.274439" lon="151.290064">
  <ele>343.1</ele>
  <time>2026-09-01T19:57:11Z</time>
  <course>160.28</course>
  <speed>0.0</speed>
  <fix>3d</fix>
</trkpt>
<trkpt lat="-27.274439" lon="151.290064">
  <ele>343.1</ele>
  <time>2026-09-01T19:57:11Z</time>
  <course>10.8</course>
  <speed>0.0</speed>
  <fix>3d</fix>
</trkpt>
<trkpt lat="-27.274439" lon="151.290064">
  <ele>343.1</ele>
  <time>2026-09-01T19:57:11Z</time>
  <course>160.28</course>
  <speed>0.0</speed>
  <fix>3d</fix>
</trkpt>
<trkpt lat="-27.274439" lon="151.290064">
  <ele>342.99</ele>
  <time>2026-09-01T19:57:11Z</time>
  <course>10.8</course>
  <speed>0.0</speed>
  <fix>3d</fix>
</trkpt>
<trkpt lat="-27.274439" lon="151.290064">
  <ele>343.1</ele>
  <time>2026-09-01T19:57:11Z</time>
  <course>160.28</course>
  <speed>0.0</speed>
  <fix>3d</fix>
</trkpt>
<trkpt lat="-27.274439" lon="151.290064">
  <ele>342.91</ele>
  <time>2026-09-01T19:57:11Z</time>
  <course>10.8</course>
  <speed>0.0</speed>
  <fix>3d</fix>
</trkpt>
<trkpt lat="-27.274439" lon="151.290064">
  <ele>343.1</ele>
  <time>2026-09-01T19:57:11Z</time>
  <course>160.28</course>
  <speed>0.0</speed>
  <fix>3d</fix>
</trkpt>
<trkpt lat="-27.274439" lon="151.290064">
  <ele>342.9</ele>
  <time>2026-09-01T19:57:11Z</time>
  <course>10.8</course>
  <speed>0.0</speed>
  <fix>3d</fix>
</trkpt>
<trkpt lat="-27.274439" lon="151.290064">
  <ele>343.1</ele>
  <time>2026-09-01T19:57:11Z</time>
  <course>160.28</course>
  <speed>0.0</speed>
  <fix>3d</fix>
</trkpt>
<trkpt lat="-27.274439" lon="151.290064">
  <ele>342.87</ele>
  <time>2026-09-01T19:57:11Z</time>
  <course>10.8</course>
  <speed>0.0</speed>
  <fix>3d</fix>
</trkpt>
<trkpt lat="-27.274439" lon="151.290064">
  <ele>343.1</ele>
  <time>2026-09-01T19:57:11Z</time>
  <course>160.28</course>
  <speed>0.0</speed>
  <fix>3d</fix>
</trkpt>
<trkpt lat="-27.274439" lon="151.290064">
  <ele>343.12</ele>
  <time>2026-09-01T19:57:11Z</time>
  <course>10.81</course>
  <speed>0.0</speed>
  <fix>3d</fix>
</trkpt>
<trkpt lat="-27.274439" lon="151.290064">
  <ele>343.1</ele>
  <time>2026-09-01T19:57:11Z</time>
  <course>160.28</course>
  <speed>0.0</speed>
  <fix>3d</fix>
</trkpt>
<trkpt lat="-27.274439" lon="151.290064">
  <ele>342.99</ele>
  <time>2026-09-01T19:57:11Z</time>
  <course>10.81</course>
  <speed>0.0</speed>
  <fix>3d</fix>
</trkpt>
<trkpt lat="-27.274439" lon="151.290064">
  <ele>343.1</ele>
  <time>2026-09-01T19:57:11Z</time>
  <course>160.28</course>
  <speed>0.0</speed>
  <fix>3d</fix>
</trkpt>
<trkpt lat="-27.274439" lon="151.290064">
  <ele>343.13</ele>
  <time>2026-09-01T19:57:11Z</time>
  <course>10.81</course>
  <speed>0.0</speed>
  <fix>3d</fix>
</trkpt>
<trkpt lat="-27.274439" lon="151.290064">
  <ele>343.1</ele>
  <time>2026-09-01T19:57:11Z</time>
  <course>160.28</course>
  <speed>0.0</speed>
  <fix>3d</fix>
</trkpt>
<trkpt lat="-27.274439" lon="151.290064">
  <ele>343.0</ele>
  <time>2026-09-01T19:57:11Z</time>
  <course>10.81</course>
  <speed>0.0</speed>
  <fix>3d</fix>
</trkpt>
<trkpt lat="-27.274439" lon="151.290064">
  <ele>343.1</ele>
  <time>2026-09-01T19:57:11Z</time>
  <course>160.28</course>
  <speed>0.0</speed>
  <fix>3d</fix>
</trkpt>
<trkpt lat="-27.274439" lon="151.290064">
  <ele>343.17</ele>
  <time>2026-09-01T19:57:11Z</time>
  <course>10.81</course>
  <speed>0.0</speed>
  <fix>3d</fix>
</trkpt>
<trkpt lat="-27.274439" lon="151.290064">
  <ele>343.1</ele>
  <time>2026-09-01T19:57:11Z</time>
  <course>160.28</course>
  <speed>0.0</speed>
  <fix>3d</fix>
</trkpt>
<trkpt lat="-27.274439" lon="151.290064">
  <ele>343.0</ele>
  <time>2026-09-01T19:57:11Z</time>
  <course>10.81</course>
  <speed>0.0</speed>
  <fix>3d</fix>
</trkpt>
<trkpt lat="-27.274439" lon="151.290064">
  <ele>343.1</ele>
  <time>2026-09-01T19:57:11Z</time>
  <course>160.28</course>
  <speed>0.0</speed>
  <fix>3d</fix>
</trkpt>
<trkpt lat="-27.274439" lon="151.290064">
  <ele>342.99</ele>
  <time>2026-09-01T19:57:11Z</time>
  <course>10.81</course>
  <speed>0.0</speed>
  <fix>3d</fix>
</trkpt>
<trkpt lat="-27.274439" lon="151.290064">
  <ele>343.1</ele>
  <time>2026-09-01T19:57:11Z</time>
  <course>160.28</course>
  <speed>0.0</speed>
  <fix>3d</fix>
</trkpt>
<trkpt lat="-27.274439" lon="151.290064">
  <ele>343.17</ele>
  <time>2026-09-01T19:57:11Z</time>
  <course>10.81</course>
  <speed>0.0</speed>
  <fix>3d</fix>
</trkpt>
<trkpt lat="-27.274439" lon="151.290064">
  <ele>343.1</ele>
  <time>2026-09-01T19:57:11Z</time>
  <course>160.28</course>
  <speed>0.0</speed>
  <fix>3d</fix>
</trkpt>
<trkpt lat="-27.274439" lon="151.290064">
  <ele>343.16</ele>
  <time>2026-09-01T19:57:11Z</time>
  <course>10.8</course>
  <speed>0.0</speed>
  <fix>3d</fix>
</trkpt>
<trkpt lat="-27.274439" lon="151.290064">
  <ele>343.1</ele>
  <time>2026-09-01T19:57:11Z</time>
  <course>160.28</course>
  <speed>0.0</speed>
  <fix>3d</fix>
</trkpt>
<trkpt lat="-27.274439" lon="151.290064">
  <ele>342.87</ele>
  <time>2026-09-01T19:57:11Z</time>
  <course>10.78</course>
  <speed>0.0</speed>
  <fix>3d</fix>
</trkpt>
<trkpt lat="-27.274439" lon="151.290064">
  <ele>343.1</ele>
  <time>2026-09-01T19:57:11Z</time>
  <course>142.97</course>
  <speed>0.0</speed>
  <fix>3d</fix>
</trkpt>
<trkpt lat="-27.274439" lon="151.290064">
  <ele>343.19</ele>
  <time>2026-09-01T19:57:11Z</time>
  <course>10.77</course>
  <speed>0.0</speed>
  <fix>3d</fix>
</trkpt>
<trkpt lat="-27.274439" lon="151.290064">
  <ele>343.1</ele>
  <time>2026-09-01T19:57:11Z</time>
  <course>142.97</course>
  <speed>0.0</speed>
  <fix>3d</fix>
</trkpt>
<trkpt lat="-27.274439" lon="151.290064">
  <ele>343.16</ele>
  <time>2026-09-01T19:57:11Z</time>
  <course>10.75</course>
  <speed>0.0</speed>
  <fix>3d</fix>
</trkpt>
<trkpt lat="-27.274439" lon="151.290064">
  <ele>343.1</ele>
  <time>2026-09-01T19:57:11Z</time>
  <course>142.91</course>
  <speed>0.0</speed>
  <fix>3d</fix>
</trkpt>
<trkpt lat="-27.274439" lon="151.290064">
  <ele>343.21</ele>
  <time>2026-09-01T19:57:11Z</time>
  <course>10.73</course>
  <speed>0.0</speed>
  <fix>3d</fix>
</trkpt>
<trkpt lat="-27.274439" lon="151.290064">
  <ele>343.1</ele>
  <time>2026-09-01T19:57:11Z</time>
  <course>142.91</course>
  <speed>0.0</speed>
  <fix>3d</fix>
</trkpt>
<trkpt lat="-27.274439" lon="151.290064">
  <ele>343.22</ele>
  <time>2026-09-01T19:57:11Z</time>
  <course>10.71</course>
  <speed>0.0</speed>
  <fix>3d</fix>
</trkpt>
<trkpt lat="-27.274439" lon="151.290064">
  <ele>343.1</ele>
  <time>2026-09-01T19:57:11Z</time>
  <course>324.34</course>
  <speed>0.0</speed>
  <fix>3d</fix>
</trkpt>
<trkpt lat="-27.274439" lon="151.290064">
  <ele>343.24</ele>
  <time>2026-09-01T19:57:11Z</time>
  <course>10.69</course>
  <speed>0.0</speed>
  <fix>3d</fix>
</trkpt>
<trkpt lat="-27.274439" lon="151.290064">
  <ele>343.1</ele>
  <time>2026-09-01T19:57:11Z</time>
  <course>324.34</course>
  <speed>0.0</speed>
  <fix>3d</fix>
</trkpt>
<trkpt lat="-27.274439" lon="151.290064">
  <ele>343.0</ele>
  <time>2026-09-01T19:57:11Z</time>
  <course>10.67</course>
  <speed>0.0</speed>
  <fix>3d</fix>
</trkpt>
<trkpt lat="-27.274439" lon="151.290064">
  <ele>343.1</ele>
  <time>2026-09-01T19:57:11Z</time>
  <course>323.67</course>
  <speed>0.0</speed>
  <fix>3d</fix>
</trkpt>
<trkpt lat="-27.274439" lon="151.290064">
  <ele>343.1</ele>
  <time>2026-09-01T19:57:11Z</time>
  <course>10.65</course>
  <speed>0.0</speed>
  <fix>3d</fix>
</trkpt>
<trkpt lat="-27.274439" lon="151.290064">
  <ele>343.1</ele>
  <time>2026-09-01T19:57:11Z</time>
  <course>323.67</course>
  <speed>0.0</speed>
  <fix>3d</fix>
</trkpt>
<trkpt lat="-27.274439" lon="151.290064">
  <ele>343.05</ele>
  <time>2026-09-01T19:57:11Z</time>
  <course>10.63</course>
  <speed>0.0</speed>
  <fix>3d</fix>
</trkpt>
<trkpt lat="-27.274439" lon="151.290064">
  <ele>343.1</ele>
  <time>2026-09-01T19:57:11Z</time>
  <course>126.69</course>
  <speed>0.0</speed>
  <fix>3d</fix>
</trkpt>
<trkpt lat="-27.274439" lon="151.290064">
  <ele>342.87</ele>
  <time>2026-09-01T19:57:11Z</time>
  <course>10.6</course>
  <speed>0.0</speed>
  <fix>3d</fix>
</trkpt>
<trkpt lat="-27.274439" lon="151.290064">
  <ele>343.1</ele>
  <time>2026-09-01T19:57:11Z</time>
  <course>126.69</course>
  <speed>0.0</speed>
  <fix>3d</fix>
</trkpt>
<trkpt lat="-27.274439" lon="151.290064">
  <ele>342.92</ele>
  <time>2026-09-01T19:57:11Z</time>
  <course>10.58</course>
  <speed>0.0</speed>
  <fix>3d</fix>
</trkpt>
<trkpt lat="-27.274439" lon="151.290064">
  <ele>343.1</ele>
  <time>2026-09-01T19:57:11Z</time>
  <course>347.8</course>
  <speed>0.0</speed>
  <fix>3d</fix>
</trkpt>
<trkpt lat="-27.274439" lon="151.290064">
  <ele>342.96</ele>
  <time>2026-09-01T19:57:11Z</time>
  <course>10.56</course>
  <speed>0.0</speed>
  <fix>3d</fix>
</trkpt>
<trkpt lat="-27.274439" lon="151.290064">
  <ele>343.1</ele>
  <time>2026-09-01T19:57:11Z</time>
  <course>347.8</course>
  <speed>0.0</speed>
  <fix>3d</fix>
</trkpt>
<trkpt lat="-27.274439" lon="151.290064">
  <ele>343.15</ele>
  <time>2026-09-01T19:57:11Z</time>
  <course>10.54</course>
  <speed>0.0</speed>
  <fix>3d</fix>
</trkpt>
<trkpt lat="-27.274439" lon="151.290064">
  <ele>343.1</ele>
  <time>2026-09-01T19:57:11Z</time>
  <course>327.1</course>
  <speed>0.0</speed>
  <fix>3d</fix>
</trkpt>
<trkpt lat="-27.274439" lon="151.290064">
  <ele>343.16</ele>
  <time>2026-09-01T19:57:11Z</time>
  <course>10.52</course>
  <speed>0.0</speed>
  <fix>3d</fix>
</trkpt>
<trkpt lat="-27.274439" lon="151.290064">
  <ele>343.1</ele>
  <time>2026-09-01T19:57:11Z</time>
  <course>327.1</course>
  <speed>0.0</speed>
  <fix>3d</fix>
</trkpt>
<trkpt lat="-27.274439" lon="151.290064">
  <ele>343.2</ele>
  <time>2026-09-01T19:57:11Z</time>
  <course>10.5</course>
  <speed>0.0</speed>
  <fix>3d</fix>
</trkpt>
<trkpt lat="-27.274439" lon="151.290064">
  <ele>343.1</ele>
  <time>2026-09-01T19:57:11Z</time>
  <course>327.78</course>
  <speed>0.0</speed>
  <fix>3d</fix>
</trkpt>
<trkpt lat="-27.274439" lon="151.290064">
  <ele>343.13</ele>
  <time>2026-09-01T19:57:11Z</time>
  <course>10.48</course>
  <speed>0.0</speed>
  <fix>3d</fix>
</trkpt>
<trkpt lat="-27.274439" lon="151.290064">
  <ele>343.1</ele>
  <time>2026-09-01T19:57:11Z</time>
  <course>327.78</course>
  <speed>0.0</speed>
  <fix>3d</fix>
</trkpt>
<trkpt lat="-27.274439" lon="151.290064">
  <ele>343.09</ele>
  <time>2026-09-01T19:57:11Z</time>
  <course>10.19</course>
  <speed>0.0</speed>
  <fix>3d</fix>
</trkpt>
<trkpt lat="-27.274439" lon="151.290064">
  <ele>343.1</ele>
  <time>2026-09-01T19:57:11Z</time>
  <course>328.32</course>
  <speed>0.0</speed>
  <fix>3d</fix>
</trkpt>
<trkpt lat="-27.274439" lon="151.290064">
  <ele>343.1</ele>
  <time>2026-09-01T19:57:11Z</time>
  <course>10.16</course>
  <speed>0.0</speed>
  <fix>3d</fix>
</trkpt>
<trkpt lat="-27.274439" lon="151.290064">
  <ele>343.1</ele>
  <time>2026-09-01T19:57:11Z</time>
  <course>328.32</course>
  <speed>0.0</speed>
  <fix>3d</fix>
</trkpt>
<trkpt lat="-27.274439" lon="151.290064">
  <ele>343.1</ele>
  <time>2026-09-01T19:57:11Z</time>
  <course>10.13</course>
  <speed>0.0</speed>
  <fix>3d</fix>
</trkpt>
<trkpt lat="-27.274439" lon="151.290064">
  <ele>343.1</ele>
  <time>2026-09-01T19:57:11Z</time>
  <course>328.05</course>
  <speed>0.0</speed>
  <fix>3d</fix>
</trkpt>
<trkpt lat="-27.274439" lon="151.290064">
  <ele>343.1</ele>
  <time>2026-09-01T19:57:11Z</time>
  <course>10.12</course>
  <speed>0.0</speed>
  <fix>3d</fix>
</trkpt>
<trkpt lat="-27.274439" lon="151.290064">
  <ele>343.1</ele>
  <time>2026-09-01T19:57:11Z</time>
  <course>328.05</course>
  <speed>0.0</speed>
  <fix>3d</fix>
</trkpt>
<trkpt lat="-27.274439" lon="151.290064">
  <ele>343.1</ele>
  <time>2026-09-01T19:57:11Z</time>
  <course>10.11</course>
  <speed>0.0</speed>
  <fix>3d</fix>
</trkpt>
<trkpt lat="-27.274439" lon="151.290064">
  <ele>343.1</ele>
  <time>2026-09-01T19:57:11Z</time>
  <course>322.5</course>
  <speed>0.0</speed>
  <fix>3d</fix>
</trkpt>
<trkpt lat="-27.274439" lon="151.290064">
  <ele>343.1</ele>
  <time>2026-09-01T19:57:11Z</time>
  <course>10.11</course>
  <speed>0.0</speed>
  <fix>3d</fix>
</trkpt>
<trkpt lat="-27.274439" lon="151.290064">
  <ele>343.1</ele>
  <time>2026-09-01T19:57:11Z</time>
  <course>322.5</course>
  <speed>0.0</speed>
  <fix>3d</fix>
</trkpt>
<trkpt lat="-27.274439" lon="151.290064">
  <ele>343.1</ele>
  <time>2026-09-01T19:57:11Z</time>
  <course>10.11</course>
  <speed>0.0</speed>
  <fix>3d</fix>
</trkpt>
<trkpt lat="-27.274439" lon="151.290064">
  <ele>343.1</ele>
  <time>2026-09-01T19:57:11Z</time>
  <course>322.44</course>
  <speed>0.0</speed>
  <fix>3d</fix>
</trkpt>
<trkpt lat="-27.274439" lon="151.290064">
  <ele>343.1</ele>
  <time>2026-09-01T19:57:11Z</time>
  <course>10.11</course>
  <speed>0.0</speed>
  <fix>3d</fix>
</trkpt>
<trkpt lat="-27.274439" lon="151.290064">
  <ele>343.1</ele>
  <time>2026-09-01T19:57:11Z</time>
  <course>322.44</course>
  <speed>0.0</speed>
  <fix>3d</fix>
</trkpt>
<trkpt lat="-27.274439" lon="151.290064">
  <ele>343.1</ele>
  <time>2026-09-01T19:57:11Z</time>
  <course>10.11</course>
  <speed>0.0</speed>
  <fix>3d</fix>
</trkpt>
<trkpt lat="-27.274439" lon="151.290064">
  <ele>343.1</ele>
  <time>2026-09-01T19:57:11Z</time>
  <course>142.58</course>
  <speed>0.0</speed>
  <fix>3d</fix>
</trkpt>
<trkpt lat="-27.274439" lon="151.290064">
  <ele>343.1</ele>
  <time>2026-09-01T19:57:11Z</time>
  <course>10.11</course>
  <speed>0.0</speed>
  <fix>3d</fix>
</trkpt>
<trkpt lat="-27.274439" lon="151.290064">
  <ele>343.1</ele>
  <time>2026-09-01T19:57:11Z</time>
  <course>142.58</course>
  <speed>0.0</speed>
  <fix>3d</fix>
</trkpt>
<trkpt lat="-27.274439" lon="151.290064">
  <ele>343.09</ele>
  <time>2026-09-01T19:57:11Z</time>
  <course>10.11</course>
  <speed>0.0</speed>
  <fix>3d</fix>
</trkpt>
<trkpt lat="-27.274439" lon="151.290064">
  <ele>343.1</ele>
  <time>2026-09-01T19:57:11Z</time>
  <course>142.43</course>
  <speed>0.0</speed>
  <fix>3d</fix>
</trkpt>
<trkpt lat="-27.274439" lon="151.290064">
  <ele>343.09</ele>
  <time>2026-09-01T19:57:11Z</time>
  <course>10.11</course>
  <speed>0.0</speed>
  <fix>3d</fix>
</trkpt>
<trkpt lat="-27.274439" lon="151.290064">
  <ele>343.1</ele>
  <time>2026-09-01T19:57:11Z</time>
  <course>142.43</course>
  <speed>0.0</speed>
  <fix>3d</fix>
</trkpt>
<trkpt lat="-27.274439" lon="151.290064">
  <ele>343.09</ele>
  <time>2026-09-01T19:57:11Z</time>
  <course>10.11</course>
  <speed>0.0</speed>
  <fix>3d</fix>
</trkpt>
<trkpt lat="-27.274439" lon="151.290064">
  <ele>343.1</ele>
  <time>2026-09-01T19:57:11Z</time>
  <course>322.48</course>
  <speed>0.0</speed>
  <fix>3d</fix>
</trkpt>
<trkpt lat="-27.274439" lon="151.290064">
  <ele>343.09</ele>
  <time>2026-09-01T19:57:11Z</time>
  <course>10.13</course>
  <speed>0.0</speed>
  <fix>3d</fix>
</trkpt>
<trkpt lat="-27.274439" lon="151.290064">
  <ele>343.1</ele>
  <time>2026-09-01T19:57:11Z</time>
  <course>322.48</course>
  <speed>0.0</speed>
  <fix>3d</fix>
</trkpt>
<trkpt lat="-27.274439" lon="151.290064">
  <ele>343.09</ele>
  <time>2026-09-01T19:57:11Z</time>
  <course>10.15</course>
  <speed>0.0</speed>
  <fix>3d</fix>
</trkpt>
<trkpt lat="-27.274439" lon="151.290064">
  <ele>343.1</ele>
  <time>2026-09-01T19:57:11Z</time>
  <course>233.33</course>
  <speed>0.0</speed>
  <fix>3d</fix>
</trkpt>
<trkpt lat="-27.274439" lon="151.290064">
  <ele>343.08</ele>
  <time>2026-09-01T19:57:11Z</time>
  <course>10.18</course>
  <speed>0.0</speed>
  <fix>3d</fix>
</trkpt>
<trkpt lat="-27.274439" lon="151.290064">
  <ele>343.1</ele>
  <time>2026-09-01T19:57:11Z</time>
  <course>233.33</course>
  <speed>0.0</speed>
  <fix>3d</fix>
</trkpt>
<trkpt lat="-27.274439" lon="151.290064">
  <ele>343.08</ele>
  <time>2026-09-01T19:57:11Z</time>
  <course>10.21</course>
  <speed>0.0</speed>
  <fix>3d</fix>
</trkpt>
<trkpt lat="-27.274439" lon="151.290064">
  <ele>343.1</ele>
  <time>2026-09-01T19:57:11Z</time>
  <course>232.22</course>
  <speed>0.0</speed>
  <fix>3d</fix>
</trkpt>
<trkpt lat="-27.274439" lon="151.290064">
  <ele>343.08</ele>
  <time>2026-09-01T19:57:11Z</time>
  <course>10.24</course>
  <speed>0.0</speed>
  <fix>3d</fix>
</trkpt>
<trkpt lat="-27.274439" lon="151.290064">
  <ele>343.1</ele>
  <time>2026-09-01T19:57:11Z</time>
  <course>232.22</course>
  <speed>0.0</speed>
  <fix>3d</fix>
</trkpt>
<trkpt lat="-27.274439" lon="151.290064">
  <ele>343.09</ele>
  <time>2026-09-01T19:57:11Z</time>
  <course>10.27</course>
  <speed>0.0</speed>
  <fix>3d</fix>
</trkpt>
<trkpt lat="-27.274439" lon="151.290064">
  <ele>343.1</ele>
  <time>2026-09-01T19:57:11Z</time>
  <course>52.03</course>
  <speed>0.0</speed>
  <fix>3d</fix>
</trkpt>
<trkpt lat="-27.274439" lon="151.290064">
  <ele>343.09</ele>
  <time>2026-09-01T19:57:11Z</time>
  <course>10.3</course>
  <speed>0.0</speed>
  <fix>3d</fix>
</trkpt>
<trkpt lat="-27.274439" lon="151.290064">
  <ele>343.1</ele>
  <time>2026-09-01T19:57:11Z</time>
  <course>52.03</course>
  <speed>0.0</speed>
  <fix>3d</fix>
</trkpt>
<trkpt lat="-27.274439" lon="151.290064">
  <ele>343.09</ele>
  <time>2026-09-01T19:57:11Z</time>
  <course>10.33</course>
  <speed>0.0</speed>
  <fix>3d</fix>
</trkpt>
<trkpt lat="-27.274439" lon="151.290064">
  <ele>343.1</ele>
  <time>2026-09-01T19:57:11Z</time>
  <course>51.43</course>
  <speed>0.0</speed>
  <fix>3d</fix>
</trkpt>
<trkpt lat="-27.274439" lon="151.290064">
  <ele>343.09</ele>
  <time>2026-09-01T19:57:11Z</time>
  <course>10.36</course>
  <speed>0.0</speed>
  <fix>3d</fix>
</trkpt>
<trkpt lat="-27.274439" lon="151.290064">
  <ele>343.1</ele>
  <time>2026-09-01T19:57:11Z</time>
  <course>51.43</course>
  <speed>0.0</speed>
  <fix>3d</fix>
</trkpt>
<trkpt lat="-27.274439" lon="151.290064">
  <ele>343.09</ele>
  <time>2026-09-01T19:57:11Z</time>
  <course>10.39</course>
  <speed>0.0</speed>
  <fix>3d</fix>
</trkpt>
<trkpt lat="-27.274439" lon="151.290064">
  <ele>343.1</ele>
  <time>2026-09-01T19:57:11Z</time>
  <course>249.47</course>
  <speed>0.0</speed>
  <fix>3d</fix>
</trkpt>
<trkpt lat="-27.274439" lon="151.290064">
  <ele>343.09</ele>
  <time>2026-09-01T19:57:11Z</time>
  <course>10.42</course>
  <speed>0.0</speed>
  <fix>3d</fix>
</trkpt>
<trkpt lat="-27.274439" lon="151.290064">
  <ele>343.1</ele>
  <time>2026-09-01T19:57:11Z</time>
  <course>249.47</course>
  <speed>0.0</speed>
  <fix>3d</fix>
</trkpt>
<trkpt lat="-27.274439" lon="151.290064">
  <ele>343.09</ele>
  <time>2026-09-01T19:57:11Z</time>
  <course>10.45</course>
  <speed>0.0</speed>
  <fix>3d</fix>
</trkpt>
<trkpt lat="-27.274439" lon="151.290064">
  <ele>343.1</ele>
  <time>2026-09-01T19:57:11Z</time>
  <course>29.22</course>
  <speed>0.0</speed>
  <fix>3d</fix>
</trkpt>
<trkpt lat="-27.274439" lon="151.290064">
  <ele>343.09</ele>
  <time>2026-09-01T19:57:11Z</time>
  <course>10.48</course>
  <speed>0.0</speed>
  <fix>3d</fix>
</trkpt>
<trkpt lat="-27.274439" lon="151.290064">
  <ele>343.1</ele>
  <time>2026-09-01T19:57:11Z</time>
  <course>29.22</course>
  <speed>0.0</speed>
  <fix>3d</fix>
</trkpt>
<trkpt lat="-27.274439" lon="151.290064">
  <ele>343.09</ele>
  <time>2026-09-01T19:57:11Z</time>
  <course>10.51</course>
  <speed>0.0</speed>
  <fix>3d</fix>
</trkpt>
<trkpt lat="-27.274439" lon="151.290064">
  <ele>343.1</ele>
  <time>2026-09-01T19:57:11Z</time>
  <course>48.31</course>
  <speed>0.0</speed>
  <fix>3d</fix>
</trkpt>
<trkpt lat="-27.274439" lon="151.290064">
  <ele>343.09</ele>
  <time>2026-09-01T19:57:11Z</time>
  <course>10.54</course>
  <speed>0.0</speed>
  <fix>3d</fix>
</trkpt>
<trkpt lat="-27.274439" lon="151.290064">
  <ele>343.1</ele>
  <time>2026-09-01T19:57:11Z</time>
  <course>48.31</course>
  <speed>0.0</speed>
  <fix>3d</fix>
</trkpt>
<trkpt lat="-27.274439" lon="151.290064">
  <ele>343.09</ele>
  <time>2026-09-01T19:57:11Z</time>
  <course>10.57</course>
  <speed>0.0</speed>
  <fix>3d</fix>
</trkpt>
<trkpt lat="-27.274439" lon="151.290064">
  <ele>343.1</ele>
  <time>2026-09-01T19:57:11Z</time>
  <course>47.58</course>
  <speed>0.0</speed>
  <fix>3d</fix>
</trkpt>
<trkpt lat="-27.274439" lon="151.290064">
  <ele>343.09</ele>
  <time>2026-09-01T19:57:11Z</time>
  <course>10.6</course>
  <speed>0.0</speed>
  <fix>3d</fix>
</trkpt>
<trkpt lat="-27.274439" lon="151.290064">
  <ele>343.1</ele>
  <time>2026-09-01T19:57:11Z</time>
  <course>47.58</course>
  <speed>0.0</speed>
  <fix>3d</fix>
</trkpt>
<trkpt lat="-27.274439" lon="151.290064">
  <ele>343.1</ele>
  <time>2026-09-01T19:57:11Z</time>
  <course>10.63</course>
  <speed>0.0</speed>
  <fix>3d</fix>
</trkpt>
<trkpt lat="-27.274439" lon="151.290064">
  <ele>343.1</ele>
  <time>2026-09-01T19:57:11Z</time>
  <course>47.1</course>
  <speed>0.0</speed>
  <fix>3d</fix>
</trkpt>
<trkpt lat="-27.274439" lon="151.290064">
  <ele>343.1</ele>
  <time>2026-09-01T19:57:11Z</time>
  <course>10.66</course>
  <speed>0.0</speed>
  <fix>3d</fix>
</trkpt>
<trkpt lat="-27.274439" lon="151.290064">
  <ele>343.1</ele>
  <time>2026-09-01T19:57:11Z</time>
  <course>47.1</course>
  <speed>0.0</speed>
  <fix>3d</fix>
</trkpt>
<trkpt lat="-27.274439" lon="151.290064">
  <ele>343.09</ele>
  <time>2026-09-01T19:57:11Z</time>
  <course>10.69</course>
  <speed>0.0</speed>
  <fix>3d</fix>
</trkpt>
<trkpt lat="-27.274439" lon="151.290064">
  <ele>343.1</ele>
  <time>2026-09-01T19:57:11Z</time>
  <course>47.37</course>
  <speed>0.0</speed>
  <fix>3d</fix>
</trkpt>
<trkpt lat="-27.274439" lon="151.290064">
  <ele>343.1</ele>
  <time>2026-09-01T19:57:11Z</time>
  <course>10.7</course>
  <speed>0.0</speed>
  <fix>3d</fix>
</trkpt>
<trkpt lat="-27.274439" lon="151.290064">
  <ele>343.1</ele>
  <time>2026-09-01T19:57:11Z</time>
  <course>47.37</course>
  <speed>0.0</speed>
  <fix>3d</fix>
</trkpt>
<trkpt lat="-27.274439" lon="151.290064">
  <ele>343.1</ele>
  <time>2026-09-01T19:57:11Z</time>
  <course>10.7</course>
  <speed>0.0</speed>
  <fix>3d</fix>
</trkpt>
<trkpt lat="-27.274439" lon="151.290064">
  <ele>343.1</ele>
  <time>2026-09-01T19:57:11Z</time>
  <course>52.92</course>
  <speed>0.0</speed>
  <fix>3d</fix>
</trkpt>
<trkpt lat="-27.274439" lon="151.290064">
  <ele>343.1</ele>
  <time>2026-09-01T19:57:11Z</time>
  <course>10.71</course>
  <speed>0.0</speed>
  <fix>3d</fix>
</trkpt>
<trkpt lat="-27.274439" lon="151.290064">
  <ele>343.1</ele>
  <time>2026-09-01T19:57:11Z</time>
  <course>52.92</course>
  <speed>0.0</speed>
  <fix>3d</fix>
</trkpt>
<trkpt lat="-27.274439" lon="151.290064">
  <ele>343.1</ele>
  <time>2026-09-01T19:57:11Z</time>
  <course>10.71</course>
  <speed>0.0</speed>
  <fix>3d</fix>
</trkpt>
<trkpt lat="-27.274439" lon="151.290064">
  <ele>343.1</ele>
  <time>2026-09-01T19:57:11Z</time>
  <course>52.98</course>
  <speed>0.0</speed>
  <fix>3d</fix>
</trkpt>
<trkpt lat="-27.274439" lon="151.290064">
  <ele>343.1</ele>
  <time>2026-09-01T19:57:11Z</time>
  <course>10.71</course>
  <speed>0.0</speed>
  <fix>3d</fix>
</trkpt>
<trkpt lat="-27.274439" lon="151.290064">
  <ele>343.1</ele>
  <time>2026-09-01T19:57:11Z</time>
  <course>52.98</course>
  <speed>0.0</speed>
  <fix>3d</fix>
</trkpt>
<trkpt lat="-27.274439" lon="151.290064">
  <ele>343.09</ele>
  <time>2026-09-01T19:57:11Z</time>
  <course>10.71</course>
  <speed>0.0</speed>
  <fix>3d</fix>
</trkpt>
<trkpt lat="-27.274439" lon="151.290064">
  <ele>343.1</ele>
  <time>2026-09-01T19:57:11Z</time>
  <course>232.81</course>
  <speed>0.0</speed>
  <fix>3d</fix>
</trkpt>
<trkpt lat="-27.274439" lon="151.290064">
  <ele>343.09</ele>
  <time>2026-09-01T19:57:11Z</time>
  <course>10.71</course>
  <speed>0.0</speed>
  <fix>3d</fix>
</trkpt>
<trkpt lat="-27.274439" lon="151.290064">
  <ele>343.1</ele>
  <time>2026-09-01T19:57:11Z</time>
  <course>232.81</course>
  <speed>0.0</speed>
  <fix>3d</fix>
</trkpt>
<trkpt lat="-27.274439" lon="151.290064">
  <ele>343.1</ele>
  <time>2026-09-01T19:57:11Z</time>
  <course>10.71</course>
  <speed>0.0</speed>
  <fix>3d</fix>
</trkpt>
<trkpt lat="-27.274439" lon="151.290064">
  <ele>343.1</ele>
  <time>2026-09-01T19:57:11Z</time>
  <course>232.99</course>
  <speed>0.0</speed>
  <fix>3d</fix>
</trkpt>
<trkpt lat="-27.274439" lon="151.290064">
  <ele>343.1</ele>
  <time>2026-09-01T19:57:11Z</time>
  <course>10.71</course>
  <speed>0.0</speed>
  <fix>3d</fix>
</trkpt>
<trkpt lat="-27.274439" lon="151.290064">
  <ele>343.1</ele>
  <time>2026-09-01T19:57:11Z</time>
  <course>232.99</course>
  <speed>0.0</speed>
  <fix>3d</fix>
</trkpt>
<trkpt lat="-27.274439" lon="151.290064">
  <ele>343.1</ele>
  <time>2026-09-01T19:57:11Z</time>
  <course>10.71</course>
  <speed>0.0</speed>
  <fix>3d</fix>
</trkpt>
<trkpt lat="-27.274439" lon="151.290064">
  <ele>343.1</ele>
  <time>2026-09-01T19:57:11Z</time>
  <course>52.93</course>
  <speed>0.0</speed>
  <fix>3d</fix>
</trkpt>
<trkpt lat="-27.274439" lon="151.290064">
  <ele>343.1</ele>
  <time>2026-09-01T19:57:11Z</time>
  <course>10.71</course>
  <speed>0.0</speed>
  <fix>3d</fix>
</trkpt>
<trkpt lat="-27.274439" lon="151.290064">
  <ele>343.1</ele>
  <time>2026-09-01T19:57:11Z</time>
  <course>52.93</course>
  <speed>0.0</speed>
  <fix>3d</fix>
</trkpt>
<trkpt lat="-27.274439" lon="151.290064">
  <ele>343.1</ele>
  <time>2026-09-01T19:57:11Z</time>
  <course>10.71</course>
  <speed>0.0</speed>
  <fix>3d</fix>
</trkpt>
<trkpt lat="-27.274439" lon="151.290064">
  <ele>343.1</ele>
  <time>2026-09-01T19:57:11Z</time>
  <course>53.0</course>
  <speed>0.0</speed>
  <fix>3d</fix>
</trkpt>
<trkpt lat="-27.274439" lon="151.290064">
  <ele>343.1</ele>
  <time>2026-09-01T19:57:11Z</time>
  <course>10.71</course>
  <speed>0.0</speed>
  <fix>3d</fix>
</trkpt>
<trkpt lat="-27.274439" lon="151.290064">
  <ele>343.1</ele>
  <time>2026-09-01T19:57:11Z</time>
  <course>53.0</course>
  <speed>0.0</speed>
  <fix>3d</fix>
</trkpt>
<trkpt lat="-27.274439" lon="151.290064">
  <ele>343.1</ele>
  <time>2026-09-01T19:57:11Z</time>
  <course>10.71</course>
  <speed>0.0</speed>
  <fix>3d</fix>
</trkpt>
<trkpt lat="-27.274439" lon="151.290064">
  <ele>343.1</ele>
  <time>2026-09-01T19:57:11Z</time>
  <course>232.96</course>
  <speed>0.0</speed>
  <fix>3d</fix>
</trkpt>
<trkpt lat="-27.274439" lon="151.290064">
  <ele>343.1</ele>
  <time>2026-09-01T19:57:11Z</time>
  <course>10.71</course>
  <speed>0.0</speed>
  <fix>3d</fix>
</trkpt>
<trkpt lat="-27.274439" lon="151.290064">
  <ele>343.1</ele>
  <time>2026-09-01T19:57:11Z</time>
  <course>232.96</course>
  <speed>0.0</speed>
  <fix>3d</fix>
</trkpt>
<trkpt lat="-27.274439" lon="151.290064">
  <ele>343.09</ele>
  <time>2026-09-01T19:57:11Z</time>
  <course>10.71</course>
  <speed>0.0</speed>
  <fix>3d</fix>
</trkpt>
<trkpt lat="-27.274439" lon="151.290064">
  <ele>343.1</ele>
  <time>2026-09-01T19:57:11Z</time>
  <course>233.02</course>
  <speed>0.0</speed>
  <fix>3d</fix>
</trkpt>
<trkpt lat="-27.274439" lon="151.290064">
  <ele>343.09</ele>
  <time>2026-09-01T19:57:11Z</time>
  <course>10.71</course>
  <speed>0.0</speed>
  <fix>3d</fix>
</trkpt>
<trkpt lat="-27.274439" lon="151.290064">
  <ele>343.1</ele>
  <time>2026-09-01T19:57:11Z</time>
  <course>233.02</course>
  <speed>0.0</speed>
  <fix>3d</fix>
</trkpt>
<trkpt lat="-27.274439" lon="151.290064">
  <ele>343.09</ele>
  <time>2026-09-01T19:57:11Z</time>
  <course>10.71</course>
  <speed>0.0</speed>
  <fix>3d</fix>
</trkpt>
<trkpt lat="-27.274439" lon="151.290064">
  <ele>343.1</ele>
  <time>2026-09-01T19:57:11Z</time>
  <course>52.97</course>
  <speed>0.0</speed>
  <fix>3d</fix>
</trkpt>
<trkpt lat="-27.274439" lon="151.290064">
  <ele>343.09</ele>
  <time>2026-09-01T19:57:11Z</time>
  <course>10.71</course>
  <speed>0.0</speed>
  <fix>3d</fix>
</trkpt>
<trkpt lat="-27.274439" lon="151.290064">
  <ele>343.1</ele>
  <time>2026-09-01T19:57:11Z</time>
  <course>52.97</course>
  <speed>0.0</speed>
  <fix>3d</fix>
</trkpt>
<trkpt lat="-27.274439" lon="151.290064">
  <ele>343.09</ele>
  <time>2026-09-01T19:57:11Z</time>
  <course>10.71</course>
  <speed>0.0</speed>
  <fix>3d</fix>
</trkpt>
<trkpt lat="-27.274439" lon="151.290064">
  <ele>343.1</ele>
  <time>2026-09-01T19:57:11Z</time>
  <course>53.07</course>
  <speed>0.0</speed>
  <fix>3d</fix>
</trkpt>
<trkpt lat="-27.274439" lon="151.290064">
  <ele>343.08</ele>
  <time>2026-09-01T19:57:11Z</time>
  <course>10.71</course>
  <speed>0.0</speed>
  <fix>3d</fix>
</trkpt>
<trkpt lat="-27.274439" lon="151.290064">
  <ele>343.1</ele>
  <time>2026-09-01T19:57:11Z</time>
  <course>53.07</course>
  <speed>0.0</speed>
  <fix>3d</fix>
</trkpt>
<trkpt lat="-27.274439" lon="151.290064">
  <ele>343.08</ele>
  <time>2026-09-01T19:57:11Z</time>
  <course>10.71</course>
  <speed>0.0</speed>
  <fix>3d</fix>
</trkpt>
<trkpt lat="-27.274439" lon="151.290064">
  <ele>343.1</ele>
  <time>2026-09-01T19:57:11Z</time>
  <course>232.98</course>
  <speed>0.0</speed>
  <fix>3d</fix>
</trkpt>
<trkpt lat="-27.274439" lon="151.290064">
  <ele>343.08</ele>
  <time>2026-09-01T19:57:11Z</time>
  <course>10.71</course>
  <speed>0.0</speed>
  <fix>3d</fix>
</trkpt>
<trkpt lat="-27.274439" lon="151.290064">
  <ele>343.1</ele>
  <time>2026-09-01T19:57:11Z</time>
  <course>232.98</course>
  <speed>0.0</speed>
  <fix>3d</fix>
</trkpt>
<trkpt lat="-27.274439" lon="151.290064">
  <ele>343.08</ele>
  <time>2026-09-01T19:57:11Z</time>
  <course>10.71</course>
  <speed>0.0</speed>
  <fix>3d</fix>
</trkpt>
<trkpt lat="-27.274439" lon="151.290064">
  <ele>343.1</ele>
  <time>2026-09-01T19:57:11Z</time>
  <course>52.49</course>
  <speed>0.0</speed>
  <fix>3d</fix>
</trkpt>
<trkpt lat="-27.274439" lon="151.290064">
  <ele>343.08</ele>
  <time>2026-09-01T19:57:11Z</time>
  <course>10.71</course>
  <speed>0.0</speed>
  <fix>3d</fix>
</trkpt>
<trkpt lat="-27.274439" lon="151.290064">
  <ele>343.1</ele>
  <time>2026-09-01T19:57:11Z</time>
  <course>52.49</course>
  <speed>0.0</speed>
  <fix>3d</fix>
</trkpt>
<trkpt lat="-27.274439" lon="151.290064">
  <ele>343.08</ele>
  <time>2026-09-01T19:57:11Z</time>
  <course>10.71</course>
  <speed>0.0</speed>
  <fix>3d</fix>
</trkpt>
<trkpt lat="-27.274439" lon="151.290064">
  <ele>343.1</ele>
  <time>2026-09-01T19:57:11Z</time>
  <course>52.99</course>
  <speed>0.0</speed>
  <fix>3d</fix>
</trkpt>
<trkpt lat="-27.274439" lon="151.290064">
  <ele>343.08</ele>
  <time>2026-09-01T19:57:11Z</time>
  <course>10.71</course>
  <speed>0.0</speed>
  <fix>3d</fix>
</trkpt>
<trkpt lat="-27.274439" lon="151.290064">
  <ele>343.1</ele>
  <time>2026-09-01T19:57:11Z</time>
  <course>52.99</course>
  <speed>0.0</speed>
  <fix>3d</fix>
</trkpt>
<trkpt lat="-27.274439" lon="151.290064">
  <ele>343.08</ele>
  <time>2026-09-01T19:57:11Z</time>
  <course>10.71</course>
  <speed>0.0</speed>
  <fix>3d</fix>
</trkpt>
<trkpt lat="-27.274439" lon="151.290064">
  <ele>343.1</ele>
  <time>2026-09-01T19:57:11Z</time>
  <course>232.92</course>
  <speed>0.0</speed>
  <fix>3d</fix>
</trkpt>
<trkpt lat="-27.274439" lon="151.290064">
  <ele>343.08</ele>
  <time>2026-09-01T19:57:11Z</time>
  <course>10.71</course>
  <speed>0.0</speed>
  <fix>3d</fix>
</trkpt>
<trkpt lat="-27.274439" lon="151.290064">
  <ele>343.1</ele>
  <time>2026-09-01T19:57:11Z</time>
  <course>232.92</course>
  <speed>0.0</speed>
  <fix>3d</fix>
</trkpt>
<trkpt lat="-27.274439" lon="151.290064">
  <ele>343.08</ele>
  <time>2026-09-01T19:57:11Z</time>
  <course>10.71</course>
  <speed>0.0</speed>
  <fix>3d</fix>
</trkpt>
<trkpt lat="-27.274439" lon="151.290064">
  <ele>343.1</ele>
  <time>2026-09-01T19:57:11Z</time>
  <course>233.0</course>
  <speed>0.0</speed>
  <fix>3d</fix>
</trkpt>
<trkpt lat="-27.274439" lon="151.290064">
  <ele>343.08</ele>
  <time>2026-09-01T19:57:11Z</time>
  <course>10.71</course>
  <speed>0.0</speed>
  <fix>3d</fix>
</trkpt>
<trkpt lat="-27.274439" lon="151.290064">
  <ele>343.1</ele>
  <time>2026-09-01T19:57:11Z</time>
  <course>233.0</course>
  <speed>0.0</speed>
  <fix>3d</fix>
</trkpt>
<trkpt lat="-27.274439" lon="151.290064">
  <ele>343.08</ele>
  <time>2026-09-01T19:57:11Z</time>
  <course>10.71</course>
  <speed>0.0</speed>
  <fix>3d</fix>
</trkpt>
<trkpt lat="-27.274439" lon="151.290064">
  <ele>343.1</ele>
  <time>2026-09-01T19:57:11Z</time>
  <course>52.95</course>
  <speed>0.0</speed>
  <fix>3d</fix>
</trkpt>
<trkpt lat="-27.274439" lon="151.290064">
  <ele>343.08</ele>
  <time>2026-09-01T19:57:11Z</time>
  <course>10.71</course>
  <speed>0.0</speed>
  <fix>3d</fix>
</trkpt>
<trkpt lat="-27.274439" lon="151.290064">
  <ele>343.1</ele>
  <time>2026-09-01T19:57:11Z</time>
  <course>52.95</course>
  <speed>0.0</speed>
  <fix>3d</fix>
</trkpt>
<trkpt lat="-27.274439" lon="151.290064">
  <ele>343.08</ele>
  <time>2026-09-01T19:57:11Z</time>
  <course>10.71</course>
  <speed>0.0</speed>
  <fix>3d</fix>
</trkpt>
<trkpt lat="-27.274439" lon="151.290064">
  <ele>343.1</ele>
  <time>2026-09-01T19:57:11Z</time>
  <course>53.01</course>
  <speed>0.0</speed>
  <fix>3d</fix>
</trkpt>
<trkpt lat="-27.274439" lon="151.290064">
  <ele>343.08</ele>
  <time>2026-09-01T19:57:11Z</time>
  <course>10.71</course>
  <speed>0.0</speed>
  <fix>3d</fix>
</trkpt>
<trkpt lat="-27.274439" lon="151.290064">
  <ele>343.1</ele>
  <time>2026-09-01T19:57:11Z</time>
  <course>53.01</course>
  <speed>0.0</speed>
  <fix>3d</fix>
</trkpt>
<trkpt lat="-27.274439" lon="151.290064">
  <ele>343.08</ele>
  <time>2026-09-01T19:57:11Z</time>
  <course>10.71</course>
  <speed>0.0</speed>
  <fix>3d</fix>
</trkpt>
<trkpt lat="-27.274439" lon="151.290064">
  <ele>343.1</ele>
  <time>2026-09-01T19:57:11Z</time>
  <course>232.97</course>
  <speed>0.0</speed>
  <fix>3d</fix>
</trkpt>
<trkpt lat="-27.274439" lon="151.290064">
  <ele>343.08</ele>
  <time>2026-09-01T19:57:11Z</time>
  <course>10.71</course>
  <speed>0.0</speed>
  <fix>3d</fix>
</trkpt>
<trkpt lat="-27.274439" lon="151.290064">
  <ele>343.1</ele>
  <time>2026-09-01T19:57:11Z</time>
  <course>232.97</course>
  <speed>0.0</speed>
  <fix>3d</fix>
</trkpt>
<trkpt lat="-27.274439" lon="151.290064">
  <ele>343.08</ele>
  <time>2026-09-01T19:57:11Z</time>
  <course>10.71</course>
  <speed>0.0</speed>
  <fix>3d</fix>
</trkpt>
<trkpt lat="-27.274439" lon="151.290064">
  <ele>343.1</ele>
  <time>2026-09-01T19:57:11Z</time>
  <course>233.04</course>
  <speed>0.0</speed>
  <fix>3d</fix>
</trkpt>
<trkpt lat="-27.274439" lon="151.290064">
  <ele>343.08</ele>
  <time>2026-09-01T19:57:11Z</time>
  <course>10.71</course>
  <speed>0.0</speed>
  <fix>3d</fix>
</trkpt>
<trkpt lat="-27.274439" lon="151.290064">
  <ele>343.1</ele>
  <time>2026-09-01T19:57:11Z</time>
  <course>233.04</course>
  <speed>0.0</speed>
  <fix>3d</fix>
</trkpt>
<trkpt lat="-27.274439" lon="151.290064">
  <ele>343.1</ele>
  <time>2026-09-01T19:57:11Z</time>
  <course>10.71</course>
  <speed>0.0</speed>
  <fix>3d</fix>
</trkpt>
<trkpt lat="-27.274439" lon="151.290064">
  <ele>343.1</ele>
  <time>2026-09-01T19:57:11Z</time>
  <course>52.98</course>
  <speed>0.0</speed>
  <fix>3d</fix>
</trkpt>
<trkpt lat="-27.274439" lon="151.290064">
  <ele>343.1</ele>
  <time>2026-09-01T19:57:11Z</time>
  <course>10.71</course>
  <speed>0.0</speed>
  <fix>3d</fix>
</trkpt>
<trkpt lat="-27.274439" lon="151.290064">
  <ele>343.1</ele>
  <time>2026-09-01T19:57:11Z</time>
  <course>52.98</course>
  <speed>0.0</speed>
  <fix>3d</fix>
</trkpt>
<trkpt lat="-27.274439" lon="151.290064">
  <ele>343.1</ele>
  <time>2026-09-01T19:57:11Z</time>
  <course>10.71</course>
  <speed>0.0</speed>
  <fix>3d</fix>
</trkpt>
<trkpt lat="-27.274439" lon="151.290064">
  <ele>343.1</ele>
  <time>2026-09-01T19:57:11Z</time>
  <course>53.57</course>
  <speed>0.0</speed>
  <fix>3d</fix>
</trkpt>
<trkpt lat="-27.274439" lon="151.290064">
  <ele>343.09</ele>
  <time>2026-09-01T19:57:11Z</time>
  <course>10.71</course>
  <speed>0.0</speed>
  <fix>3d</fix>
</trkpt>
<trkpt lat="-27.274439" lon="151.290064">
  <ele>343.1</ele>
  <time>2026-09-01T19:57:11Z</time>
  <course>53.57</course>
  <speed>0.0</speed>
  <fix>3d</fix>
</trkpt>
<trkpt lat="-27.274439" lon="151.290064">
  <ele>343.09</ele>
  <time>2026-09-01T19:57:11Z</time>
  <course>10.71</course>
  <speed>0.0</speed>
  <fix>3d</fix>
</trkpt>
<trkpt lat="-27.274439" lon="151.290064">
  <ele>343.1</ele>
  <time>2026-09-01T19:57:11Z</time>
  <course>232.99</course>
  <speed>0.0</speed>
  <fix>3d</fix>
</trkpt>
<trkpt lat="-27.274439" lon="151.290064">
  <ele>343.09</ele>
  <time>2026-09-01T19:57:11Z</time>
  <course>10.71</course>
  <speed>0.0</speed>
  <fix>3d</fix>
</trkpt>
<trkpt lat="-27.274439" lon="151.290064">
  <ele>343.1</ele>
  <time>2026-09-01T19:57:11Z</time>
  <course>232.99</course>
  <speed>0.0</speed>
  <fix>3d</fix>
</trkpt>
<trkpt lat="-27.274439" lon="151.290064">
  <ele>343.08</ele>
  <time>2026-09-01T19:57:11Z</time>
  <course>10.71</course>
  <speed>0.0</speed>
  <fix>3d</fix>
</trkpt>
<trkpt lat="-27.274439" lon="151.290064">
  <ele>343.1</ele>
  <time>2026-09-01T19:57:11Z</time>
  <course>53.18</course>
  <speed>0.0</speed>
  <fix>3d</fix>
</trkpt>
<trkpt lat="-27.274439" lon="151.290064">
  <ele>343.07</ele>
  <time>2026-09-01T19:57:11Z</time>
  <course>10.71</course>
  <speed>0.0</speed>
  <fix>3d</fix>
</trkpt>
<trkpt lat="-27.274439" lon="151.290064">
  <ele>343.1</ele>
  <time>2026-09-01T19:57:11Z</time>
  <course>53.18</course>
  <speed>0.0</speed>
  <fix>3d</fix>
</trkpt>
<trkpt lat="-27.274439" lon="151.290064">
  <ele>343.07</ele>
  <time>2026-09-01T19:57:11Z</time>
  <course>10.71</course>
  <speed>0.0</speed>
  <fix>3d</fix>
</trkpt>
<trkpt lat="-27.274439" lon="151.290064">
  <ele>343.1</ele>
  <time>2026-09-01T19:57:11Z</time>
  <course>53.38</course>
  <speed>0.0</speed>
  <fix>3d</fix>
</trkpt>
<trkpt lat="-27.274439" lon="151.290064">
  <ele>343.06</ele>
  <time>2026-09-01T19:57:11Z</time>
  <course>10.71</course>
  <speed>0.0</speed>
  <fix>3d</fix>
</trkpt>
<trkpt lat="-27.274439" lon="151.290064">
  <ele>343.1</ele>
  <time>2026-09-01T19:57:11Z</time>
  <course>53.38</course>
  <speed>0.0</speed>
  <fix>3d</fix>
</trkpt>
<trkpt lat="-27.274439" lon="151.290064">
  <ele>343.06</ele>
  <time>2026-09-01T19:57:11Z</time>
  <course>10.71</course>
  <speed>0.0</speed>
  <fix>3d</fix>
</trkpt>
<trkpt lat="-27.274439" lon="151.290064">
  <ele>343.1</ele>
  <time>2026-09-01T19:57:11Z</time>
  <course>236.79</course>
  <speed>0.0</speed>
  <fix>3d</fix>
</trkpt>
<trkpt lat="-27.274439" lon="151.290064">
  <ele>343.06</ele>
  <time>2026-09-01T19:57:11Z</time>
  <course>10.71</course>
  <speed>0.0</speed>
  <fix>3d</fix>
</trkpt>
<trkpt lat="-27.274439" lon="151.290064">
  <ele>343.1</ele>
  <time>2026-09-01T19:57:11Z</time>
  <course>236.79</course>
  <speed>0.0</speed>
  <fix>3d</fix>
</trkpt>
<trkpt lat="-27.274439" lon="151.290064">
  <ele>343.05</ele>
  <time>2026-09-01T19:57:11Z</time>
  <course>10.71</course>
  <speed>0.0</speed>
  <fix>3d</fix>
</trkpt>
<trkpt lat="-27.274439" lon="151.290064">
  <ele>343.1</ele>
  <time>2026-09-01T19:57:11Z</time>
  <course>239.01</course>
  <speed>0.0</speed>
  <fix>3d</fix>
</trkpt>
<trkpt lat="-27.274439" lon="151.290064">
  <ele>343.04</ele>
  <time>2026-09-01T19:57:11Z</time>
  <course>10.71</course>
  <speed>0.0</speed>
  <fix>3d</fix>
</trkpt>
<trkpt lat="-27.274439" lon="151.290064">
  <ele>343.1</ele>
  <time>2026-09-01T19:57:11Z</time>
  <course>239.01</course>
  <speed>0.0</speed>
  <fix>3d</fix>
</trkpt>
<trkpt lat="-27.274439" lon="151.290064">
  <ele>343.04</ele>
  <time>2026-09-01T19:57:11Z</time>
  <course>10.71</course>
  <speed>0.0</speed>
  <fix>3d</fix>
</trkpt>
<trkpt lat="-27.274439" lon="151.290064">
  <ele>343.1</ele>
  <time>2026-09-01T19:57:11Z</time>
  <course>51.07</course>
  <speed>0.0</speed>
  <fix>3d</fix>
</trkpt>
<trkpt lat="-27.274439" lon="151.290064">
  <ele>343.03</ele>
  <time>2026-09-01T19:57:11Z</time>
  <course>10.71</course>
  <speed>0.0</speed>
  <fix>3d</fix>
</trkpt>
<trkpt lat="-27.274439" lon="151.290064">
  <ele>343.1</ele>
  <time>2026-09-01T19:57:11Z</time>
  <course>51.07</course>
  <speed>0.0</speed>
  <fix>3d</fix>
</trkpt>
<trkpt lat="-27.274439" lon="151.290064">
  <ele>343.03</ele>
  <time>2026-09-01T19:57:11Z</time>
  <course>10.71</course>
  <speed>0.0</speed>
  <fix>3d</fix>
</trkpt>
<trkpt lat="-27.274439" lon="151.290064">
  <ele>343.1</ele>
  <time>2026-09-01T19:57:11Z</time>
  <course>10.54</course>
  <speed>0.0</speed>
  <fix>3d</fix>
</trkpt>
<trkpt lat="-27.274439" lon="151.290064">
  <ele>343.02</ele>
  <time>2026-09-01T19:57:11Z</time>
  <course>10.71</course>
  <speed>0.0</speed>
  <fix>3d</fix>
</trkpt>
<trkpt lat="-27.274439" lon="151.290064">
  <ele>343.1</ele>
  <time>2026-09-01T19:57:11Z</time>
  <course>10.54</course>
  <speed>0.0</speed>
  <fix>3d</fix>
</trkpt>
<trkpt lat="-27.274439" lon="151.290064">
  <ele>343.01</ele>
  <time>2026-09-01T19:57:11Z</time>
  <course>10.71</course>
  <speed>0.0</speed>
  <fix>3d</fix>
</trkpt>
<trkpt lat="-27.274439" lon="151.290064">
  <ele>343.1</ele>
  <time>2026-09-01T19:57:11Z</time>
  <course>344.89</course>
  <speed>0.0</speed>
  <fix>3d</fix>
</trkpt>
<trkpt lat="-27.274439" lon="151.290064">
  <ele>343.01</ele>
  <time>2026-09-01T19:57:11Z</time>
  <course>10.71</course>
  <speed>0.0</speed>
  <fix>3d</fix>
</trkpt>
<trkpt lat="-27.274439" lon="151.290064">
  <ele>343.1</ele>
  <time>2026-09-01T19:57:11Z</time>
  <course>344.89</course>
  <speed>0.0</speed>
  <fix>3d</fix>
</trkpt>
<trkpt lat="-27.274439" lon="151.290064">
  <ele>343.0</ele>
  <time>2026-09-01T19:57:11Z</time>
  <course>10.71</course>
  <speed>0.0</speed>
  <fix>3d</fix>
</trkpt>
<trkpt lat="-27.274439" lon="151.290064">
  <ele>343.1</ele>
  <time>2026-09-01T19:57:11Z</time>
  <course>341.78</course>
  <speed>0.0</speed>
  <fix>3d</fix>
</trkpt>
<trkpt lat="-27.274439" lon="151.290064">
  <ele>342.99</ele>
  <time>2026-09-01T19:57:11Z</time>
  <course>10.71</course>
  <speed>0.0</speed>
  <fix>3d</fix>
</trkpt>
<trkpt lat="-27.274439" lon="151.290064">
  <ele>343.1</ele>
  <time>2026-09-01T19:57:11Z</time>
  <course>341.78</course>
  <speed>0.0</speed>
  <fix>3d</fix>
</trkpt>
<trkpt lat="-27.274439" lon="151.290064">
  <ele>342.99</ele>
  <time>2026-09-01T19:57:11Z</time>
  <course>10.71</course>
  <speed>0.0</speed>
  <fix>3d</fix>
</trkpt>
<trkpt lat="-27.274439" lon="151.290064">
  <ele>343.1</ele>
  <time>2026-09-01T19:57:11Z</time>
  <course>341.37</course>
  <speed>0.0</speed>
  <fix>3d</fix>
</trkpt>
<trkpt lat="-27.274439" lon="151.290064">
  <ele>342.99</ele>
  <time>2026-09-01T19:57:11Z</time>
  <course>10.71</course>
  <speed>0.0</speed>
  <fix>3d</fix>
</trkpt>
<trkpt lat="-27.274439" lon="151.290064">
  <ele>343.1</ele>
  <time>2026-09-01T19:57:11Z</time>
  <course>341.37</course>
  <speed>0.0</speed>
  <fix>3d</fix>
</trkpt>
<trkpt lat="-27.274439" lon="151.290064">
  <ele>342.99</ele>
  <time>2026-09-01T19:57:11Z</time>
  <course>10.71</course>
  <speed>0.0</speed>
  <fix>3d</fix>
</trkpt>
<trkpt lat="-27.274439" lon="151.290064">
  <ele>343.1</ele>
  <time>2026-09-01T19:57:11Z</time>
  <course>341.32</course>
  <speed>0.0</speed>
  <fix>3d</fix>
</trkpt>
<trkpt lat="-27.274439" lon="151.290064">
  <ele>342.98</ele>
  <time>2026-09-01T19:57:11Z</time>
  <course>10.71</course>
  <speed>0.0</speed>
  <fix>3d</fix>
</trkpt>
<trkpt lat="-27.274439" lon="151.290064">
  <ele>343.1</ele>
  <time>2026-09-01T19:57:11Z</time>
  <course>341.32</course>
  <speed>0.0</speed>
  <fix>3d</fix>
</trkpt>
<trkpt lat="-27.274439" lon="151.290064">
  <ele>342.98</ele>
  <time>2026-09-01T19:57:11Z</time>
  <course>10.71</course>
  <speed>0.0</speed>
  <fix>3d</fix>
</trkpt>
<trkpt lat="-27.274439" lon="151.290064">
  <ele>343.1</ele>
  <time>2026-09-01T19:57:11Z</time>
  <course>341.31</course>
  <speed>0.0</speed>
  <fix>3d</fix>
</trkpt>
<trkpt lat="-27.274439" lon="151.290064">
  <ele>342.98</ele>
  <time>2026-09-01T19:57:11Z</time>
  <course>10.71</course>
  <speed>0.0</speed>
  <fix>3d</fix>
</trkpt>
<trkpt lat="-27.274439" lon="151.290064">
  <ele>343.1</ele>
  <time>2026-09-01T19:57:11Z</time>
  <course>341.31</course>
  <speed>0.0</speed>
  <fix>3d</fix>
</trkpt>
<trkpt lat="-27.274439" lon="151.290064">
  <ele>342.98</ele>
  <time>2026-09-01T19:57:11Z</time>
  <course>10.71</course>
  <speed>0.0</speed>
  <fix>3d</fix>
</trkpt>
<trkpt lat="-27.274439" lon="151.290064">
  <ele>343.1</ele>
  <time>2026-09-01T19:57:11Z</time>
  <course>341.31</course>
  <speed>0.0</speed>
  <fix>3d</fix>
</trkpt>
<trkpt lat="-27.274439" lon="151.290064">
  <ele>342.97</ele>
  <time>2026-09-01T19:57:11Z</time>
  <course>10.71</course>
  <speed>0.0</speed>
  <fix>3d</fix>
</trkpt>
<trkpt lat="-27.274439" lon="151.290064">
  <ele>343.1</ele>
  <time>2026-09-01T19:57:11Z</time>
  <course>341.31</course>
  <speed>0.0</speed>
  <fix>3d</fix>
</trkpt>
<trkpt lat="-27.274439" lon="151.290064">
  <ele>342.97</ele>
  <time>2026-09-01T19:57:11Z</time>
  <course>10.71</course>
  <speed>0.0</speed>
  <fix>3d</fix>
</trkpt>
<trkpt lat="-27.274439" lon="151.290064">
  <ele>343.1</ele>
  <time>2026-09-01T19:57:11Z</time>
  <course>341.31</course>
  <speed>0.0</speed>
  <fix>3d</fix>
</trkpt>
<trkpt lat="-27.274439" lon="151.290064">
  <ele>342.97</ele>
  <time>2026-09-01T19:57:11Z</time>
  <course>10.71</course>
  <speed>0.0</speed>
  <fix>3d</fix>
</trkpt>
<trkpt lat="-27.274439" lon="151.290064">
  <ele>343.1</ele>
  <time>2026-09-01T19:57:11Z</time>
  <course>341.31</course>
  <speed>0.0</speed>
  <fix>3d</fix>
</trkpt>
<trkpt lat="-27.274439" lon="151.290064">
  <ele>342.97</ele>
  <time>2026-09-01T19:57:11Z</time>
  <course>10.71</course>
  <speed>0.0</speed>
  <fix>3d</fix>
</trkpt>
<trkpt lat="-27.274439" lon="151.290064">
  <ele>343.1</ele>
  <time>2026-09-01T19:57:11Z</time>
  <course>341.31</course>
  <speed>0.0</speed>
  <fix>3d</fix>
</trkpt>
<trkpt lat="-27.274439" lon="151.290064">
  <ele>342.96</ele>
  <time>2026-09-01T19:57:11Z</time>
  <course>10.71</course>
  <speed>0.0</speed>
  <fix>3d</fix>
</trkpt>
<trkpt lat="-27.274439" lon="151.290064">
  <ele>343.1</ele>
  <time>2026-09-01T19:57:11Z</time>
  <course>341.31</course>
  <speed>0.0</speed>
  <fix>3d</fix>
</trkpt>
<trkpt lat="-27.274439" lon="151.290064">
  <ele>342.96</ele>
  <time>2026-09-01T19:57:11Z</time>
  <course>10.71</course>
  <speed>0.0</speed>
  <fix>3d</fix>
</trkpt>
<trkpt lat="-27.274439" lon="151.290064">
  <ele>343.1</ele>
  <time>2026-09-01T19:57:11Z</time>
  <course>341.31</course>
  <speed>0.0</speed>
  <fix>3d</fix>
</trkpt>
<trkpt lat="-27.274439" lon="151.290064">
  <ele>342.96</ele>
  <time>2026-09-01T19:57:11Z</time>
  <course>10.71</course>
  <speed>0.0</speed>
  <fix>3d</fix>
</trkpt>
<trkpt lat="-27.274439" lon="151.290064">
  <ele>343.1</ele>
  <time>2026-09-01T19:57:11Z</time>
  <course>341.31</course>
  <speed>0.0</speed>
  <fix>3d</fix>
</trkpt>
<trkpt lat="-27.274439" lon="151.290064">
  <ele>342.95</ele>
  <time>2026-09-01T19:57:11Z</time>
  <course>10.71</course>
  <speed>0.0</speed>
  <fix>3d</fix>
</trkpt>
<trkpt lat="-27.274439" lon="151.290064">
  <ele>343.1</ele>
  <time>2026-09-01T19:57:11Z</time>
  <course>341.31</course>
  <speed>0.0</speed>
  <fix>3d</fix>
</trkpt>
<trkpt lat="-27.274439" lon="151.290064">
  <ele>342.95</ele>
  <time>2026-09-01T19:57:11Z</time>
  <course>10.71</course>
  <speed>0.0</speed>
  <fix>3d</fix>
</trkpt>
<trkpt lat="-27.274439" lon="151.290064">
  <ele>343.1</ele>
  <time>2026-09-01T19:57:11Z</time>
  <course>341.31</course>
  <speed>0.0</speed>
  <fix>3d</fix>
</trkpt>
<trkpt lat="-27.274439" lon="151.290064">
  <ele>342.95</ele>
  <time>2026-09-01T19:57:11Z</time>
  <course>10.71</course>
  <speed>0.0</speed>
  <fix>3d</fix>
</trkpt>
<trkpt lat="-27.274439" lon="151.290064">
  <ele>343.1</ele>
  <time>2026-09-01T19:57:11Z</time>
  <course>341.31</course>
  <speed>0.0</speed>
  <fix>3d</fix>
</trkpt>
<trkpt lat="-27.274439" lon="151.290064">
  <ele>342.95</ele>
  <time>2026-09-01T19:57:11Z</time>
  <course>10.71</course>
  <speed>0.0</speed>
  <fix>3d</fix>
</trkpt>
<trkpt lat="-27.274439" lon="151.290064">
  <ele>343.1</ele>
  <time>2026-09-01T19:57:11Z</time>
  <course>341.31</course>
  <speed>0.0</speed>
  <fix>3d</fix>
</trkpt>
<trkpt lat="-27.274439" lon="151.290064">
  <ele>342.95</ele>
  <time>2026-09-01T19:57:11Z</time>
  <course>10.71</course>
  <speed>0.0</speed>
  <fix>3d</fix>
</trkpt>
<trkpt lat="-27.274439" lon="151.290064">
  <ele>343.1</ele>
  <time>2026-09-01T19:57:11Z</time>
  <course>341.31</course>
  <speed>0.0</speed>
  <fix>3d</fix>
</trkpt>
<trkpt lat="-27.274439" lon="151.290064">
  <ele>342.95</ele>
  <time>2026-09-01T19:57:11Z</time>
  <course>10.71</course>
  <speed>0.0</speed>
  <fix>3d</fix>
</trkpt>
<trkpt lat="-27.274439" lon="151.290064">
  <ele>343.1</ele>
  <time>2026-09-01T19:57:11Z</time>
  <course>341.31</course>
  <speed>0.0</speed>
  <fix>3d</fix>
</trkpt>
<trkpt lat="-27.274439" lon="151.290064">
  <ele>342.95</ele>
  <time>2026-09-01T19:57:11Z</time>
  <course>10.71</course>
  <speed>0.0</speed>
  <fix>3d</fix>
</trkpt>
<trkpt lat="-27.274439" lon="151.290064">
  <ele>343.1</ele>
  <time>2026-09-01T19:57:11Z</time>
  <course>341.31</course>
  <speed>0.0</speed>
  <fix>3d</fix>
</trkpt>
<trkpt lat="-27.274439" lon="151.290064">
  <ele>342.95</ele>
  <time>2026-09-01T19:57:11Z</time>
  <course>10.71</course>
  <speed>0.0</speed>
  <fix>3d</fix>
</trkpt>
<trkpt lat="-27.274439" lon="151.290064">
  <ele>343.1</ele>
  <time>2026-09-01T19:57:11Z</time>
  <course>341.31</course>
  <speed>0.0</speed>
  <fix>3d</fix>
</trkpt>
<trkpt lat="-27.274439" lon="151.290064">
  <ele>342.94</ele>
  <time>2026-09-01T19:57:11Z</time>
  <course>10.71</course>
  <speed>0.0</speed>
  <fix>3d</fix>
</trkpt>
<trkpt lat="-27.274439" lon="151.290064">
  <ele>343.1</ele>
  <time>2026-09-01T19:57:11Z</time>
  <course>341.31</course>
  <speed>0.0</speed>
  <fix>3d</fix>
</trkpt>
<trkpt lat="-27.274439" lon="151.290064">
  <ele>342.94</ele>
  <time>2026-09-01T19:57:11Z</time>
  <course>10.71</course>
  <speed>0.0</speed>
  <fix>3d</fix>
</trkpt>
<trkpt lat="-27.274439" lon="151.290064">
  <ele>343.1</ele>
  <time>2026-09-01T19:57:11Z</time>
  <course>341.31</course>
  <speed>0.0</speed>
  <fix>3d</fix>
</trkpt>
<trkpt lat="-27.274439" lon="151.290064">
  <ele>342.94</ele>
  <time>2026-09-01T19:57:11Z</time>
  <course>10.71</course>
  <speed>0.0</speed>
  <fix>3d</fix>
</trkpt>
<trkpt lat="-27.274439" lon="151.290064">
  <ele>343.1</ele>
  <time>2026-09-01T19:57:11Z</time>
  <course>341.31</course>
  <speed>0.0</speed>
  <fix>3d</fix>
</trkpt>
<trkpt lat="-27.274439" lon="151.290064">
  <ele>342.94</ele>
  <time>2026-09-01T19:57:11Z</time>
  <course>10.71</course>
  <speed>0.0</speed>
  <fix>3d</fix>
</trkpt>
<trkpt lat="-27.274439" lon="151.290064">
  <ele>343.1</ele>
  <time>2026-09-01T19:57:11Z</time>
  <course>341.31</course>
  <speed>0.0</speed>
  <fix>3d</fix>
</trkpt>
<trkpt lat="-27.274439" lon="151.290064">
  <ele>342.93</ele>
  <time>2026-09-01T19:57:11Z</time>
  <course>10.71</course>
  <speed>0.0</speed>
  <fix>3d</fix>
</trkpt>
<trkpt lat="-27.274439" lon="151.290064">
  <ele>343.1</ele>
  <time>2026-09-01T19:57:11Z</time>
  <course>143.0</course>
  <speed>0.0</speed>
  <fix>3d</fix>
</trkpt>
<trkpt lat="-27.274439" lon="151.290064">
  <ele>342.93</ele>
  <time>2026-09-01T19:57:11Z</time>
  <course>10.71</course>
  <speed>0.0</speed>
  <fix>3d</fix>
</trkpt>
<trkpt lat="-27.274439" lon="151.290064">
  <ele>343.1</ele>
  <time>2026-09-01T19:57:11Z</time>
  <course>143.0</course>
  <speed>0.0</speed>
  <fix>3d</fix>
</trkpt>
<trkpt lat="-27.274439" lon="151.290064">
  <ele>342.93</ele>
  <time>2026-09-01T19:57:11Z</time>
  <course>10.71</course>
  <speed>0.0</speed>
  <fix>3d</fix>
</trkpt>
<trkpt lat="-27.274439" lon="151.290064">
  <ele>343.1</ele>
  <time>2026-09-01T19:57:11Z</time>
  <course>143.0</course>
  <speed>0.0</speed>
  <fix>3d</fix>
</trkpt>
<trkpt lat="-27.274439" lon="151.290064">
  <ele>342.93</ele>
  <time>2026-09-01T19:57:11Z</time>
  <course>10.7</course>
  <speed>0.0</speed>
  <fix>3d</fix>
</trkpt>
<trkpt lat="-27.274439" lon="151.290064">
  <ele>343.1</ele>
  <time>2026-09-01T19:57:11Z</time>
  <course>143.0</course>
  <speed>0.0</speed>
  <fix>3d</fix>
</trkpt>
<trkpt lat="-27.274439" lon="151.290064">
  <ele>342.93</ele>
  <time>2026-09-01T19:57:11Z</time>
  <course>10.7</course>
  <speed>0.0</speed>
  <fix>3d</fix>
</trkpt>
<trkpt lat="-27.274439" lon="151.290064">
  <ele>343.1</ele>
  <time>2026-09-01T19:57:11Z</time>
  <course>142.99</course>
  <speed>0.0</speed>
  <fix>3d</fix>
</trkpt>
<trkpt lat="-27.274439" lon="151.290064">
  <ele>342.93</ele>
  <time>2026-09-01T19:57:11Z</time>
  <course>10.7</course>
  <speed>0.0</speed>
  <fix>3d</fix>
</trkpt>
<trkpt lat="-27.274439" lon="151.290064">
  <ele>343.1</ele>
  <time>2026-09-01T19:57:11Z</time>
  <course>142.99</course>
  <speed>0.0</speed>
  <fix>3d</fix>
</trkpt>
<trkpt lat="-27.274439" lon="151.290064">
  <ele>342.92</ele>
  <time>2026-09-01T19:57:11Z</time>
  <course>10.7</course>
  <speed>0.0</speed>
  <fix>3d</fix>
</trkpt>
<trkpt lat="-27.274439" lon="151.290064">
  <ele>343.1</ele>
  <time>2026-09-01T19:57:11Z</time>
  <course>323.01</course>
  <speed>0.0</speed>
  <fix>3d</fix>
</trkpt>
<trkpt lat="-27.274439" lon="151.290064">
  <ele>342.92</ele>
  <time>2026-09-01T19:57:11Z</time>
  <course>10.7</course>
  <speed>0.0</speed>
  <fix>3d</fix>
</trkpt>
<trkpt lat="-27.274439" lon="151.290064">
  <ele>343.1</ele>
  <time>2026-09-01T19:57:11Z</time>
  <course>323.01</course>
  <speed>0.0</speed>
  <fix>3d</fix>
</trkpt>
<trkpt lat="-27.274439" lon="151.290064">
  <ele>342.92</ele>
  <time>2026-09-01T19:57:11Z</time>
  <course>10.7</course>
  <speed>0.0</speed>
  <fix>3d</fix>
</trkpt>
<trkpt lat="-27.274439" lon="151.290064">
  <ele>343.1</ele>
  <time>2026-09-01T19:57:11Z</time>
  <course>323.18</course>
  <speed>0.0</speed>
  <fix>3d</fix>
</trkpt>
<trkpt lat="-27.274439" lon="151.290064">
  <ele>342.92</ele>
  <time>2026-09-01T19:57:11Z</time>
  <course>10.7</course>
  <speed>0.0</speed>
  <fix>3d</fix>
</trkpt>
<trkpt lat="-27.274439" lon="151.290064">
  <ele>343.1</ele>
  <time>2026-09-01T19:57:11Z</time>
  <course>323.18</course>
  <speed>0.0</speed>
  <fix>3d</fix>
</trkpt>
<trkpt lat="-27.274439" lon="151.290064">
  <ele>342.92</ele>
  <time>2026-09-01T19:57:11Z</time>
  <course>10.7</course>
  <speed>0.0</speed>
  <fix>3d</fix>
</trkpt>
<trkpt lat="-27.274439" lon="151.290064">
  <ele>343.1</ele>
  <time>2026-09-01T19:57:11Z</time>
  <course>142.91</course>
  <speed>0.0</speed>
  <fix>3d</fix>
</trkpt>
<trkpt lat="-27.274439" lon="151.290064">
  <ele>342.92</ele>
  <time>2026-09-01T19:57:11Z</time>
  <course>10.7</course>
  <speed>0.0</speed>
  <fix>3d</fix>
</trkpt>
<trkpt lat="-27.274439" lon="151.290064">
  <ele>343.1</ele>
  <time>2026-09-01T19:57:11Z</time>
  <course>142.91</course>
  <speed>0.0</speed>
  <fix>3d</fix>
</trkpt>
<trkpt lat="-27.274439" lon="151.290064">
  <ele>342.92</ele>
  <time>2026-09-01T19:57:11Z</time>
  <course>10.7</course>
  <speed>0.0</speed>
  <fix>3d</fix>
</trkpt>
<trkpt lat="-27.274439" lon="151.290064">
  <ele>343.1</ele>
  <time>2026-09-01T19:57:11Z</time>
  <course>323.72</course>
  <speed>0.0</speed>
  <fix>3d</fix>
</trkpt>
<trkpt lat="-27.274439" lon="151.290064">
  <ele>342.92</ele>
  <time>2026-09-01T19:57:11Z</time>
  <course>10.7</course>
  <speed>0.0</speed>
  <fix>3d</fix>
</trkpt>
<trkpt lat="-27.274439" lon="151.290064">
  <ele>343.1</ele>
  <time>2026-09-01T19:57:11Z</time>
  <course>323.72</course>
  <speed>0.0</speed>
  <fix>3d</fix>
</trkpt>
<trkpt lat="-27.274439" lon="151.290064">
  <ele>342.92</ele>
  <time>2026-09-01T19:57:11Z</time>
  <course>10.7</course>
  <speed>0.0</speed>
  <fix>3d</fix>
</trkpt>
<trkpt lat="-27.274439" lon="151.290064">
  <ele>343.1</ele>
  <time>2026-09-01T19:57:11Z</time>
  <course>323.47</course>
  <speed>0.0</speed>
  <fix>3d</fix>
</trkpt>
<trkpt lat="-27.274439" lon="151.290064">
  <ele>342.92</ele>
  <time>2026-09-01T19:57:11Z</time>
  <course>10.7</course>
  <speed>0.0</speed>
  <fix>3d</fix>
</trkpt>
<trkpt lat="-27.274439" lon="151.290064">
  <ele>343.1</ele>
  <time>2026-09-01T19:57:11Z</time>
  <course>323.47</course>
  <speed>0.0</speed>
  <fix>3d</fix>
</trkpt>
<trkpt lat="-27.274439" lon="151.290064">
  <ele>342.92</ele>
  <time>2026-09-01T19:57:11Z</time>
  <course>10.69</course>
  <speed>0.0</speed>
  <fix>3d</fix>
</trkpt>
<trkpt lat="-27.274439" lon="151.290064">
  <ele>343.1</ele>
  <time>2026-09-01T19:57:11Z</time>
  <course>326.97</course>
  <speed>0.0</speed>
  <fix>3d</fix>
</trkpt>
<trkpt lat="-27.274439" lon="151.290064">
  <ele>342.92</ele>
  <time>2026-09-01T19:57:11Z</time>
  <course>10.69</course>
  <speed>0.0</speed>
  <fix>3d</fix>
</trkpt>
<trkpt lat="-27.274439" lon="151.290064">
  <ele>343.1</ele>
  <time>2026-09-01T19:57:11Z</time>
  <course>326.97</course>
  <speed>0.0</speed>
  <fix>3d</fix>
</trkpt>
<trkpt lat="-27.274439" lon="151.290064">
  <ele>342.92</ele>
  <time>2026-09-01T19:57:11Z</time>
  <course>10.69</course>
  <speed>0.0</speed>
  <fix>3d</fix>
</trkpt>
<trkpt lat="-27.274439" lon="151.290064">
  <ele>343.1</ele>
  <time>2026-09-01T19:57:11Z</time>
  <course>325.65</course>
  <speed>0.0</speed>
  <fix>3d</fix>
</trkpt>
<trkpt lat="-27.274439" lon="151.290064">
  <ele>342.92</ele>
  <time>2026-09-01T19:57:11Z</time>
  <course>10.69</course>
  <speed>0.0</speed>
  <fix>3d</fix>
</trkpt>
<trkpt lat="-27.274439" lon="151.290064">
  <ele>343.1</ele>
  <time>2026-09-01T19:57:11Z</time>
  <course>325.65</course>
  <speed>0.0</speed>
  <fix>3d</fix>
</trkpt>
<trkpt lat="-27.274439" lon="151.290064">
  <ele>342.92</ele>
  <time>2026-09-01T19:57:11Z</time>
  <course>10.69</course>
  <speed>0.0</speed>
  <fix>3d</fix>
</trkpt>
<trkpt lat="-27.274439" lon="151.290064">
  <ele>343.1</ele>
  <time>2026-09-01T19:57:11Z</time>
  <course>322.99</course>
  <speed>0.0</speed>
  <fix>3d</fix>
</trkpt>
<trkpt lat="-27.274439" lon="151.290064">
  <ele>342.92</ele>
  <time>2026-09-01T19:57:11Z</time>
  <course>10.69</course>
  <speed>0.0</speed>
  <fix>3d</fix>
</trkpt>
<trkpt lat="-27.274439" lon="151.290064">
  <ele>343.1</ele>
  <time>2026-09-01T19:57:11Z</time>
  <course>322.99</course>
  <speed>0.0</speed>
  <fix>3d</fix>
</trkpt>
<trkpt lat="-27.274439" lon="151.290064">
  <ele>342.92</ele>
  <time>2026-09-01T19:57:11Z</time>
  <course>10.69</course>
  <speed>0.0</speed>
  <fix>3d</fix>
</trkpt>
<trkpt lat="-27.274439" lon="151.290064">
  <ele>343.1</ele>
  <time>2026-09-01T19:57:11Z</time>
  <course>322.99</course>
  <speed>0.0</speed>
  <fix>3d</fix>
</trkpt>
<trkpt lat="-27.274439" lon="151.290064">
  <ele>342.92</ele>
  <time>2026-09-01T19:57:11Z</time>
  <course>10.69</course>
  <speed>0.0</speed>
  <fix>3d</fix>
</trkpt>
<trkpt lat="-27.274439" lon="151.290064">
  <ele>343.1</ele>
  <time>2026-09-01T19:57:11Z</time>
  <course>322.99</course>
  <speed>0.0</speed>
  <fix>3d</fix>
</trkpt>
<trkpt lat="-27.274439" lon="151.290064">
  <ele>342.92</ele>
  <time>2026-09-01T19:57:11Z</time>
  <course>10.69</course>
  <speed>0.0</speed>
  <fix>3d</fix>
</trkpt>
<trkpt lat="-27.274439" lon="151.290064">
  <ele>343.1</ele>
  <time>2026-09-01T19:57:11Z</time>
  <course>322.98</course>
  <speed>0.0</speed>
  <fix>3d</fix>
</trkpt>
<trkpt lat="-27.274439" lon="151.290064">
  <ele>342.92</ele>
  <time>2026-09-01T19:57:11Z</time>
  <course>10.69</course>
  <speed>0.0</speed>
  <fix>3d</fix>
</trkpt>
<trkpt lat="-27.274439" lon="151.290064">
  <ele>343.1</ele>
  <time>2026-09-01T19:57:11Z</time>
  <course>322.98</course>
  <speed>0.0</speed>
  <fix>3d</fix>
</trkpt>
<trkpt lat="-27.274439" lon="151.290064">
  <ele>342.92</ele>
  <time>2026-09-01T19:57:11Z</time>
  <course>10.69</course>
  <speed>0.0</speed>
  <fix>3d</fix>
</trkpt>
<trkpt lat="-27.274439" lon="151.290064">
  <ele>343.1</ele>
  <time>2026-09-01T19:57:11Z</time>
  <course>142.99</course>
  <speed>0.0</speed>
  <fix>3d</fix>
</trkpt>
<trkpt lat="-27.274439" lon="151.290064">
  <ele>342.92</ele>
  <time>2026-09-01T19:57:11Z</time>
  <course>10.69</course>
  <speed>0.0</speed>
  <fix>3d</fix>
</trkpt>
<trkpt lat="-27.274439" lon="151.290064">
  <ele>343.1</ele>
  <time>2026-09-01T19:57:11Z</time>
  <course>142.99</course>
  <speed>0.0</speed>
  <fix>3d</fix>
</trkpt>
<trkpt lat="-27.274439" lon="151.290064">
  <ele>342.92</ele>
  <time>2026-09-01T19:57:11Z</time>
  <course>10.69</course>
  <speed>0.0</speed>
  <fix>3d</fix>
</trkpt>
<trkpt lat="-27.274439" lon="151.290064">
  <ele>343.1</ele>
  <time>2026-09-01T19:57:11Z</time>
  <course>142.98</course>
  <speed>0.0</speed>
  <fix>3d</fix>
</trkpt>
<trkpt lat="-27.274439" lon="151.290064">
  <ele>342.92</ele>
  <time>2026-09-01T19:57:11Z</time>
  <course>10.69</course>
  <speed>0.0</speed>
  <fix>3d</fix>
</trkpt>
<trkpt lat="-27.274439" lon="151.290064">
  <ele>343.1</ele>
  <time>2026-09-01T19:57:11Z</time>
  <course>142.98</course>
  <speed>0.0</speed>
  <fix>3d</fix>
</trkpt>
<trkpt lat="-27.274439" lon="151.290064">
  <ele>342.92</ele>
  <time>2026-09-01T19:57:11Z</time>
  <course>10.69</course>
  <speed>0.0</speed>
  <fix>3d</fix>
</trkpt>
<trkpt lat="-27.274439" lon="151.290064">
  <ele>343.1</ele>
  <time>2026-09-01T19:57:11Z</time>
  <course>234.95</course>
  <speed>0.0</speed>
  <fix>3d</fix>
</trkpt>
<trkpt lat="-27.274439" lon="151.290064">
  <ele>342.92</ele>
  <time>2026-09-01T19:57:11Z</time>
  <course>10.69</course>
  <speed>0.0</speed>
  <fix>3d</fix>
</trkpt>
<trkpt lat="-27.274439" lon="151.290064">
  <ele>343.1</ele>
  <time>2026-09-01T19:57:11Z</time>
  <course>234.95</course>
  <speed>0.0</speed>
  <fix>3d</fix>
</trkpt>
<trkpt lat="-27.274439" lon="151.290064">
  <ele>342.92</ele>
  <time>2026-09-01T19:57:11Z</time>
  <course>10.69</course>
  <speed>0.0</speed>
  <fix>3d</fix>
</trkpt>
<trkpt lat="-27.274439" lon="151.290064">
  <ele>343.1</ele>
  <time>2026-09-01T19:57:11Z</time>
  <course>232.9</course>
  <speed>0.0</speed>
  <fix>3d</fix>
</trkpt>
<trkpt lat="-27.274439" lon="151.290064">
  <ele>342.92</ele>
  <time>2026-09-01T19:57:11Z</time>
  <course>10.69</course>
  <speed>0.0</speed>
  <fix>3d</fix>
</trkpt>
<trkpt lat="-27.274439" lon="151.290064">
  <ele>343.1</ele>
  <time>2026-09-01T19:57:11Z</time>
  <course>232.9</course>
  <speed>0.0</speed>
  <fix>3d</fix>
</trkpt>
<trkpt lat="-27.274439" lon="151.290064">
  <ele>342.92</ele>
  <time>2026-09-01T19:57:11Z</time>
  <course>10.69</course>
  <speed>0.0</speed>
  <fix>3d</fix>
</trkpt>
<trkpt lat="-27.274439" lon="151.290064">
  <ele>343.1</ele>
  <time>2026-09-01T19:57:11Z</time>
  <course>232.26</course>
  <speed>0.0</speed>
  <fix>3d</fix>
</trkpt>
<trkpt lat="-27.274439" lon="151.290064">
  <ele>342.93</ele>
  <time>2026-09-01T19:57:11Z</time>
  <course>10.69</course>
  <speed>0.0</speed>
  <fix>3d</fix>
</trkpt>
<trkpt lat="-27.274439" lon="151.290064">
  <ele>343.1</ele>
  <time>2026-09-01T19:57:11Z</time>
  <course>232.26</course>
  <speed>0.0</speed>
  <fix>3d</fix>
</trkpt>
<trkpt lat="-27.274439" lon="151.290064">
  <ele>342.93</ele>
  <time>2026-09-01T19:57:11Z</time>
  <course>10.69</course>
  <speed>0.0</speed>
  <fix>3d</fix>
</trkpt>
<trkpt lat="-27.274439" lon="151.290064">
  <ele>343.1</ele>
  <time>2026-09-01T19:57:11Z</time>
  <course>52.78</course>
  <speed>0.0</speed>
  <fix>3d</fix>
</trkpt>
<trkpt lat="-27.274439" lon="151.290064">
  <ele>342.93</ele>
  <time>2026-09-01T19:57:11Z</time>
  <course>10.69</course>
  <speed>0.0</speed>
  <fix>3d</fix>
</trkpt>
<trkpt lat="-27.274439" lon="151.290064">
  <ele>343.1</ele>
  <time>2026-09-01T19:57:11Z</time>
  <course>52.78</course>
  <speed>0.0</speed>
  <fix>3d</fix>
</trkpt>
<trkpt lat="-27.274439" lon="151.290064">
  <ele>342.93</ele>
  <time>2026-09-01T19:57:11Z</time>
  <course>10.69</course>
  <speed>0.0</speed>
  <fix>3d</fix>
</trkpt>
<trkpt lat="-27.274439" lon="151.290064">
  <ele>343.1</ele>
  <time>2026-09-01T19:57:11Z</time>
  <course>51.26</course>
  <speed>0.0</speed>
  <fix>3d</fix>
</trkpt>
<trkpt lat="-27.274439" lon="151.290064">
  <ele>342.93</ele>
  <time>2026-09-01T19:57:11Z</time>
  <course>10.69</course>
  <speed>0.0</speed>
  <fix>3d</fix>
</trkpt>
<trkpt lat="-27.274439" lon="151.290064">
  <ele>343.1</ele>
  <time>2026-09-01T19:57:11Z</time>
  <course>51.26</course>
  <speed>0.0</speed>
  <fix>3d</fix>
</trkpt>
<trkpt lat="-27.274439" lon="151.290064">
  <ele>342.93</ele>
  <time>2026-09-01T19:57:11Z</time>
  <course>10.69</course>
  <speed>0.0</speed>
  <fix>3d</fix>
</trkpt>
<trkpt lat="-27.274439" lon="151.290064">
  <ele>343.1</ele>
  <time>2026-09-01T19:57:11Z</time>
  <course>232.78</course>
  <speed>0.0</speed>
  <fix>3d</fix>
</trkpt>
<trkpt lat="-27.274439" lon="151.290064">
  <ele>342.93</ele>
  <time>2026-09-01T19:57:11Z</time>
  <course>10.69</course>
  <speed>0.0</speed>
  <fix>3d</fix>
</trkpt>
<trkpt lat="-27.274439" lon="151.290064">
  <ele>343.1</ele>
  <time>2026-09-01T19:57:11Z</time>
  <course>232.78</course>
  <speed>0.0</speed>
  <fix>3d</fix>
</trkpt>
<trkpt lat="-27.274439" lon="151.290064">
  <ele>342.93</ele>
  <time>2026-09-01T19:57:11Z</time>
  <course>10.69</course>
  <speed>0.0</speed>
  <fix>3d</fix>
</trkpt>
<trkpt lat="-27.274439" lon="151.290064">
  <ele>343.1</ele>
  <time>2026-09-01T19:57:11Z</time>
  <course>52.92</course>
  <speed>0.0</speed>
  <fix>3d</fix>
</trkpt>
<trkpt lat="-27.274439" lon="151.290064">
  <ele>342.93</ele>
  <time>2026-09-01T19:57:11Z</time>
  <course>10.69</course>
  <speed>0.0</speed>
  <fix>3d</fix>
</trkpt>
<trkpt lat="-27.274439" lon="151.290064">
  <ele>343.1</ele>
  <time>2026-09-01T19:57:11Z</time>
  <course>52.92</course>
  <speed>0.0</speed>
  <fix>3d</fix>
</trkpt>
<trkpt lat="-27.274439" lon="151.290064">
  <ele>342.93</ele>
  <time>2026-09-01T19:57:11Z</time>
  <course>10.69</course>
  <speed>0.0</speed>
  <fix>3d</fix>
</trkpt>
<trkpt lat="-27.274439" lon="151.290064">
  <ele>343.1</ele>
  <time>2026-09-01T19:57:11Z</time>
  <course>52.26</course>
  <speed>0.0</speed>
  <fix>3d</fix>
</trkpt>
<trkpt lat="-27.274439" lon="151.290064">
  <ele>342.93</ele>
  <time>2026-09-01T19:57:11Z</time>
  <course>10.69</course>
  <speed>0.0</speed>
  <fix>3d</fix>
</trkpt>
<trkpt lat="-27.274439" lon="151.290064">
  <ele>343.1</ele>
  <time>2026-09-01T19:57:11Z</time>
  <course>52.26</course>
  <speed>0.0</speed>
  <fix>3d</fix>
</trkpt>
<trkpt lat="-27.274439" lon="151.290064">
  <ele>342.93</ele>
  <time>2026-09-01T19:57:11Z</time>
  <course>10.69</course>
  <speed>0.0</speed>
  <fix>3d</fix>
</trkpt>
<trkpt lat="-27.274439" lon="151.290064">
  <ele>343.1</ele>
  <time>2026-09-01T19:57:11Z</time>
  <course>49.0</course>
  <speed>0.0</speed>
  <fix>3d</fix>
</trkpt>
<trkpt lat="-27.274439" lon="151.290064">
  <ele>342.93</ele>
  <time>2026-09-01T19:57:11Z</time>
  <course>10.69</course>
  <speed>0.0</speed>
  <fix>3d</fix>
</trkpt>
<trkpt lat="-27.274439" lon="151.290064">
  <ele>343.1</ele>
  <time>2026-09-01T19:57:11Z</time>
  <course>49.0</course>
  <speed>0.0</speed>
  <fix>3d</fix>
</trkpt>
<trkpt lat="-27.274439" lon="151.290064">
  <ele>342.92</ele>
  <time>2026-09-01T19:57:11Z</time>
  <course>10.69</course>
  <speed>0.0</speed>
  <fix>3d</fix>
</trkpt>
<trkpt lat="-27.274439" lon="151.290064">
  <ele>343.1</ele>
  <time>2026-09-01T19:57:11Z</time>
  <course>50.53</course>
  <speed>0.0</speed>
  <fix>3d</fix>
</trkpt>
<trkpt lat="-27.274439" lon="151.290064">
  <ele>342.92</ele>
  <time>2026-09-01T19:57:11Z</time>
  <course>10.69</course>
  <speed>0.0</speed>
  <fix>3d</fix>
</trkpt>
<trkpt lat="-27.274439" lon="151.290064">
  <ele>343.1</ele>
  <time>2026-09-01T19:57:11Z</time>
  <course>50.53</course>
  <speed>0.0</speed>
  <fix>3d</fix>
</trkpt>
<trkpt lat="-27.274439" lon="151.290064">
  <ele>342.92</ele>
  <time>2026-09-01T19:57:11Z</time>
  <course>10.69</course>
  <speed>0.0</speed>
  <fix>3d</fix>
</trkpt>
<trkpt lat="-27.274439" lon="151.290064">
  <ele>343.1</ele>
  <time>2026-09-01T19:57:11Z</time>
  <course>52.99</course>
  <speed>0.0</speed>
  <fix>3d</fix>
</trkpt>
<trkpt lat="-27.274439" lon="151.290064">
  <ele>342.92</ele>
  <time>2026-09-01T19:57:11Z</time>
  <course>10.69</course>
  <speed>0.0</speed>
  <fix>3d</fix>
</trkpt>
<trkpt lat="-27.274439" lon="151.290064">
  <ele>343.1</ele>
  <time>2026-09-01T19:57:11Z</time>
  <course>52.99</course>
  <speed>0.0</speed>
  <fix>3d</fix>
</trkpt>
<trkpt lat="-27.274439" lon="151.290064">
  <ele>342.92</ele>
  <time>2026-09-01T19:57:11Z</time>
  <course>10.69</course>
  <speed>0.0</speed>
  <fix>3d</fix>
</trkpt>
<trkpt lat="-27.274439" lon="151.290064">
  <ele>343.1</ele>
  <time>2026-09-01T19:57:11Z</time>
  <course>53.0</course>
  <speed>0.0</speed>
  <fix>3d</fix>
</trkpt>
<trkpt lat="-27.274439" lon="151.290064">
  <ele>342.92</ele>
  <time>2026-09-01T19:57:11Z</time>
  <course>10.69</course>
  <speed>0.0</speed>
  <fix>3d</fix>
</trkpt>
<trkpt lat="-27.274439" lon="151.290064">
  <ele>343.1</ele>
  <time>2026-09-01T19:57:11Z</time>
  <course>53.0</course>
  <speed>0.0</speed>
  <fix>3d</fix>
</trkpt>
<trkpt lat="-27.274439" lon="151.290064">
  <ele>342.92</ele>
  <time>2026-09-01T19:57:11Z</time>
  <course>10.69</course>
  <speed>0.0</speed>
  <fix>3d</fix>
</trkpt>
<trkpt lat="-27.274439" lon="151.290064">
  <ele>343.1</ele>
  <time>2026-09-01T19:57:11Z</time>
  <course>53.0</course>
  <speed>0.0</speed>
  <fix>3d</fix>
</trkpt>
<trkpt lat="-27.274439" lon="151.290064">
  <ele>342.92</ele>
  <time>2026-09-01T19:57:11Z</time>
  <course>10.69</course>
  <speed>0.0</speed>
  <fix>3d</fix>
</trkpt>
<trkpt lat="-27.274439" lon="151.290064">
  <ele>343.1</ele>
  <time>2026-09-01T19:57:11Z</time>
  <course>53.0</course>
  <speed>0.0</speed>
  <fix>3d</fix>
</trkpt>
<trkpt lat="-27.274439" lon="151.290064">
  <ele>342.91</ele>
  <time>2026-09-01T19:57:11Z</time>
  <course>10.69</course>
  <speed>0.0</speed>
  <fix>3d</fix>
</trkpt>
<trkpt lat="-27.274439" lon="151.290064">
  <ele>343.1</ele>
  <time>2026-09-01T19:57:11Z</time>
  <course>233.0</course>
  <speed>0.0</speed>
  <fix>3d</fix>
</trkpt>
<trkpt lat="-27.274439" lon="151.290064">
  <ele>342.91</ele>
  <time>2026-09-01T19:57:11Z</time>
  <course>10.69</course>
  <speed>0.0</speed>
  <fix>3d</fix>
</trkpt>
<trkpt lat="-27.274439" lon="151.290064">
  <ele>343.1</ele>
  <time>2026-09-01T19:57:11Z</time>
  <course>233.0</course>
  <speed>0.0</speed>
  <fix>3d</fix>
</trkpt>
<trkpt lat="-27.274439" lon="151.290064">
  <ele>342.91</ele>
  <time>2026-09-01T19:57:11Z</time>
  <course>10.69</course>
  <speed>0.0</speed>
  <fix>3d</fix>
</trkpt>
<trkpt lat="-27.274439" lon="151.290064">
  <ele>343.1</ele>
  <time>2026-09-01T19:57:11Z</time>
  <course>233.0</course>
  <speed>0.0</speed>
  <fix>3d</fix>
</trkpt>
<trkpt lat="-27.274439" lon="151.290064">
  <ele>342.91</ele>
  <time>2026-09-01T19:57:11Z</time>
  <course>10.68</course>
  <speed>0.0</speed>
  <fix>3d</fix>
</trkpt>
<trkpt lat="-27.274439" lon="151.290064">
  <ele>343.1</ele>
  <time>2026-09-01T19:57:11Z</time>
  <course>233.0</course>
  <speed>0.0</speed>
  <fix>3d</fix>
</trkpt>
<trkpt lat="-27.274439" lon="151.290064">
  <ele>342.92</ele>
  <time>2026-09-01T19:57:11Z</time>
  <course>10.68</course>
  <speed>0.01</speed>
  <fix>3d</fix>
</trkpt>
<trkpt lat="-27.274439" lon="151.290064">
  <ele>343.1</ele>
  <time>2026-09-01T19:57:11Z</time>
  <course>53.0</course>
  <speed>0.0</speed>
  <fix>3d</fix>
</trkpt>
<trkpt lat="-27.274439" lon="151.290064">
  <ele>342.92</ele>
  <time>2026-09-01T19:57:11Z</time>
  <course>10.68</course>
  <speed>0.01</speed>
  <fix>3d</fix>
</trkpt>
<trkpt lat="-27.274439" lon="151.290064">
  <ele>343.1</ele>
  <time>2026-09-01T19:57:11Z</time>
  <course>53.0</course>
  <speed>0.0</speed>
  <fix>3d</fix>
</trkpt>
<trkpt lat="-27.274439" lon="151.290064">
  <ele>342.92</ele>
  <time>2026-09-01T19:57:11Z</time>
  <course>10.68</course>
  <speed>0.01</speed>
  <fix>3d</fix>
</trkpt>
<trkpt lat="-27.274439" lon="151.290064">
  <ele>343.1</ele>
  <time>2026-09-01T19:57:11Z</time>
  <course>232.99</course>
  <speed>0.0</speed>
  <fix>3d</fix>
</trkpt>
<trkpt lat="-27.274439" lon="151.290064">
  <ele>342.92</ele>
  <time>2026-09-01T19:57:11Z</time>
  <course>10.68</course>
  <speed>0.01</speed>
  <fix>3d</fix>
</trkpt>
<trkpt lat="-27.274439" lon="151.290064">
  <ele>343.1</ele>
  <time>2026-09-01T19:57:11Z</time>
  <course>232.99</course>
  <speed>0.0</speed>
  <fix>3d</fix>
</trkpt>
<trkpt lat="-27.274439" lon="151.290064">
  <ele>342.92</ele>
  <time>2026-09-01T19:57:11Z</time>
  <course>10.68</course>
  <speed>0.01</speed>
  <fix>3d</fix>
</trkpt>
<trkpt lat="-27.274439" lon="151.290064">
  <ele>343.1</ele>
  <time>2026-09-01T19:57:11Z</time>
  <course>233.0</course>
  <speed>0.0</speed>
  <fix>3d</fix>
</trkpt>
<trkpt lat="-27.274439" lon="151.290064">
  <ele>342.92</ele>
  <time>2026-09-01T19:57:11Z</time>
  <course>10.68</course>
  <speed>0.01</speed>
  <fix>3d</fix>
</trkpt>
<trkpt lat="-27.274439" lon="151.290064">
  <ele>343.1</ele>
  <time>2026-09-01T19:57:11Z</time>
  <course>233.0</course>
  <speed>0.0</speed>
  <fix>3d</fix>
</trkpt>
<trkpt lat="-27.274439" lon="151.290064">
  <ele>342.92</ele>
  <time>2026-09-01T19:57:11Z</time>
  <course>10.68</course>
  <speed>0.01</speed>
  <fix>3d</fix>
</trkpt>
<trkpt lat="-27.274439" lon="151.290064">
  <ele>343.1</ele>
  <time>2026-09-01T19:57:11Z</time>
  <course>53.0</course>
  <speed>0.0</speed>
  <fix>3d</fix>
</trkpt>
<trkpt lat="-27.274439" lon="151.290064">
  <ele>342.93</ele>
  <time>2026-09-01T19:57:11Z</time>
  <course>10.68</course>
  <speed>0.01</speed>
  <fix>3d</fix>
</trkpt>
<trkpt lat="-27.274439" lon="151.290064">
  <ele>343.1</ele>
  <time>2026-09-01T19:57:11Z</time>
  <course>53.0</course>
  <speed>0.0</speed>
  <fix>3d</fix>
</trkpt>
<trkpt lat="-27.274439" lon="151.290064">
  <ele>342.93</ele>
  <time>2026-09-01T19:57:11Z</time>
  <course>10.68</course>
  <speed>0.01</speed>
  <fix>3d</fix>
</trkpt>
<trkpt lat="-27.274439" lon="151.290064">
  <ele>343.1</ele>
  <time>2026-09-01T19:57:11Z</time>
  <course>53.0</course>
  <speed>0.0</speed>
  <fix>3d</fix>
</trkpt>
<trkpt lat="-27.274439" lon="151.290064">
  <ele>342.93</ele>
  <time>2026-09-01T19:57:11Z</time>
  <course>10.68</course>
  <speed>0.01</speed>
  <fix>3d</fix>
</trkpt>
<trkpt lat="-27.274439" lon="151.290064">
  <ele>343.1</ele>
  <time>2026-09-01T19:57:11Z</time>
  <course>53.0</course>
  <speed>0.0</speed>
  <fix>3d</fix>
</trkpt>
<trkpt lat="-27.274439" lon="151.290064">
  <ele>342.93</ele>
  <time>2026-09-01T19:57:11Z</time>
  <course>10.68</course>
  <speed>0.01</speed>
  <fix>3d</fix>
</trkpt>
<trkpt lat="-27.274439" lon="151.290064">
  <ele>343.1</ele>
  <time>2026-09-01T19:57:11Z</time>
  <course>233.0</course>
  <speed>0.0</speed>
  <fix>3d</fix>
</trkpt>
<trkpt lat="-27.274439" lon="151.290064">
  <ele>342.93</ele>
  <time>2026-09-01T19:57:11Z</time>
  <course>10.68</course>
  <speed>0.01</speed>
  <fix>3d</fix>
</trkpt>
<trkpt lat="-27.274439" lon="151.290064">
  <ele>343.1</ele>
  <time>2026-09-01T19:57:11Z</time>
  <course>233.0</course>
  <speed>0.0</speed>
  <fix>3d</fix>
</trkpt>
<trkpt lat="-27.274439" lon="151.290064">
  <ele>343.1</ele>
  <time>2026-09-01T19:57:12Z</time>
  <course>10.68</course>
  <speed>0.01</speed>
  <fix>3d</fix>
</trkpt>
<trkpt lat="-27.274439" lon="151.290064">
  <ele>343.1</ele>
  <time>2026-09-01T19:57:12Z</time>
  <course>233.0</course>
  <speed>0.0</speed>
  <fix>3d</fix>
</trkpt>
<trkpt lat="-27.274439" lon="151.290064">
  <ele>343.09</ele>
  <time>2026-09-01T19:57:12Z</time>
  <course>10.67</course>
  <speed>0.01</speed>
  <fix>3d</fix>
</trkpt>
<trkpt lat="-27.274439" lon="151.290064">
  <ele>343.1</ele>
  <time>2026-09-01T19:57:12Z</time>
  <course>233.0</course>
  <speed>0.0</speed>
  <fix>3d</fix>
</trkpt>
<trkpt lat="-27.274439" lon="151.290064">
  <ele>343.09</ele>
  <time>2026-09-01T19:57:12Z</time>
  <course>10.67</course>
  <speed>0.01</speed>
  <fix>3d</fix>
</trkpt>
<trkpt lat="-27.274439" lon="151.290064">
  <ele>343.1</ele>
  <time>2026-09-01T19:57:12Z</time>
  <course>53.0</course>
  <speed>0.0</speed>
  <fix>3d</fix>
</trkpt>
<trkpt lat="-27.274439" lon="151.290064">
  <ele>343.09</ele>
  <time>2026-09-01T19:57:12Z</time>
  <course>10.67</course>
  <speed>0.01</speed>
  <fix>3d</fix>
</trkpt>
<trkpt lat="-27.274439" lon="151.290064">
  <ele>343.1</ele>
  <time>2026-09-01T19:57:12Z</time>
  <course>53.0</course>
  <speed>0.0</speed>
  <fix>3d</fix>
</trkpt>
<trkpt lat="-27.274439" lon="151.290064">
  <ele>343.09</ele>
  <time>2026-09-01T19:57:12Z</time>
  <course>10.67</course>
  <speed>0.01</speed>
  <fix>3d</fix>
</trkpt>
<trkpt lat="-27.274439" lon="151.290064">
  <ele>343.1</ele>
  <time>2026-09-01T19:57:12Z</time>
  <course>53.0</course>
  <speed>0.0</speed>
  <fix>3d</fix>
</trkpt>
<trkpt lat="-27.274439" lon="151.290064">
  <ele>343.09</ele>
  <time>2026-09-01T19:57:12Z</time>
  <course>10.67</course>
  <speed>0.01</speed>
  <fix>3d</fix>
</trkpt>
<trkpt lat="-27.274439" lon="151.290064">
  <ele>343.1</ele>
  <time>2026-09-01T19:57:12Z</time>
  <course>53.0</course>
  <speed>0.0</speed>
  <fix>3d</fix>
</trkpt>
<trkpt lat="-27.274439" lon="151.290064">
  <ele>343.09</ele>
  <time>2026-09-01T19:57:12Z</time>
  <course>10.67</course>
  <speed>0.01</speed>
  <fix>3d</fix>
</trkpt>
<trkpt lat="-27.274439" lon="151.290064">
  <ele>343.1</ele>
  <time>2026-09-01T19:57:12Z</time>
  <course>233.0</course>
  <speed>0.0</speed>
  <fix>3d</fix>
</trkpt>
<trkpt lat="-27.274439" lon="151.290064">
  <ele>343.09</ele>
  <time>2026-09-01T19:57:12Z</time>
  <course>10.67</course>
  <speed>0.01</speed>
  <fix>3d</fix>
</trkpt>
<trkpt lat="-27.274439" lon="151.290064">
  <ele>343.1</ele>
  <time>2026-09-01T19:57:12Z</time>
  <course>233.0</course>
  <speed>0.0</speed>
  <fix>3d</fix>
</trkpt>
<trkpt lat="-27.274439" lon="151.290064">
  <ele>343.09</ele>
  <time>2026-09-01T19:57:12Z</time>
  <course>10.67</course>
  <speed>0.01</speed>
  <fix>3d</fix>
</trkpt>
<trkpt lat="-27.274439" lon="151.290064">
  <ele>343.1</ele>
  <time>2026-09-01T19:57:12Z</time>
  <course>52.98</course>
  <speed>0.0</speed>
  <fix>3d</fix>
</trkpt>
<trkpt lat="-27.274439" lon="151.290064">
  <ele>343.09</ele>
  <time>2026-09-01T19:57:12Z</time>
  <course>10.67</course>
  <speed>0.01</speed>
  <fix>3d</fix>
</trkpt>
<trkpt lat="-27.274439" lon="151.290064">
  <ele>343.1</ele>
  <time>2026-09-01T19:57:12Z</time>
  <course>52.98</course>
  <speed>0.0</speed>
  <fix>3d</fix>
</trkpt>
<trkpt lat="-27.274439" lon="151.290064">
  <ele>343.09</ele>
  <time>2026-09-01T19:57:12Z</time>
  <course>10.67</course>
  <speed>0.01</speed>
  <fix>3d</fix>
</trkpt>
<trkpt lat="-27.274439" lon="151.290064">
  <ele>343.1</ele>
  <time>2026-09-01T19:57:12Z</time>
  <course>53.0</course>
  <speed>0.0</speed>
  <fix>3d</fix>
</trkpt>
<trkpt lat="-27.274439" lon="151.290064">
  <ele>343.08</ele>
  <time>2026-09-01T19:57:12Z</time>
  <course>10.67</course>
  <speed>0.01</speed>
  <fix>3d</fix>
</trkpt>
<trkpt lat="-27.274439" lon="151.290064">
  <ele>343.1</ele>
  <time>2026-09-01T19:57:12Z</time>
  <course>53.0</course>
  <speed>0.0</speed>
  <fix>3d</fix>
</trkpt>
<trkpt lat="-27.274439" lon="151.290064">
  <ele>343.08</ele>
  <time>2026-09-01T19:57:12Z</time>
  <course>10.67</course>
  <speed>0.01</speed>
  <fix>3d</fix>
</trkpt>
<trkpt lat="-27.274439" lon="151.290064">
  <ele>343.1</ele>
  <time>2026-09-01T19:57:12Z</time>
  <course>233.0</course>
  <speed>0.0</speed>
  <fix>3d</fix>
</trkpt>
<trkpt lat="-27.274439" lon="151.290064">
  <ele>343.08</ele>
  <time>2026-09-01T19:57:12Z</time>
  <course>10.67</course>
  <speed>0.01</speed>
  <fix>3d</fix>
</trkpt>
<trkpt lat="-27.274439" lon="151.290064">
  <ele>343.1</ele>
  <time>2026-09-01T19:57:12Z</time>
  <course>233.0</course>
  <speed>0.0</speed>
  <fix>3d</fix>
</trkpt>
<trkpt lat="-27.274439" lon="151.290064">
  <ele>343.08</ele>
  <time>2026-09-01T19:57:12Z</time>
  <course>10.67</course>
  <speed>0.01</speed>
  <fix>3d</fix>
</trkpt>
<trkpt lat="-27.274439" lon="151.290064">
  <ele>343.1</ele>
  <time>2026-09-01T19:57:12Z</time>
  <course>233.0</course>
  <speed>0.0</speed>
  <fix>3d</fix>
</trkpt>
<trkpt lat="-27.274439" lon="151.290064">
  <ele>343.08</ele>
  <time>2026-09-01T19:57:12Z</time>
  <course>10.67</course>
  <speed>0.01</speed>
  <fix>3d</fix>
</trkpt>
<trkpt lat="-27.274439" lon="151.290064">
  <ele>343.1</ele>
  <time>2026-09-01T19:57:12Z</time>
  <course>233.0</course>
  <speed>0.0</speed>
  <fix>3d</fix>
</trkpt>
<trkpt lat="-27.274439" lon="151.290064">
  <ele>343.07</ele>
  <time>2026-09-01T19:57:12Z</time>
  <course>10.67</course>
  <speed>0.01</speed>
  <fix>3d</fix>
</trkpt>
<trkpt lat="-27.274439" lon="151.290064">
  <ele>343.1</ele>
  <time>2026-09-01T19:57:12Z</time>
  <course>53.01</course>
  <speed>0.0</speed>
  <fix>3d</fix>
</trkpt>
<trkpt lat="-27.274439" lon="151.290064">
  <ele>343.07</ele>
  <time>2026-09-01T19:57:12Z</time>
  <course>10.67</course>
  <speed>0.01</speed>
  <fix>3d</fix>
</trkpt>
<trkpt lat="-27.274439" lon="151.290064">
  <ele>343.1</ele>
  <time>2026-09-01T19:57:12Z</time>
  <course>53.01</course>
  <speed>0.0</speed>
  <fix>3d</fix>
</trkpt>
<trkpt lat="-27.274439" lon="151.290064">
  <ele>343.07</ele>
  <time>2026-09-01T19:57:12Z</time>
  <course>10.67</course>
  <speed>0.01</speed>
  <fix>3d</fix>
</trkpt>
<trkpt lat="-27.274439" lon="151.290064">
  <ele>343.1</ele>
  <time>2026-09-01T19:57:12Z</time>
  <course>53.06</course>
  <speed>0.0</speed>
  <fix>3d</fix>
</trkpt>
<trkpt lat="-27.274439" lon="151.290064">
  <ele>343.07</ele>
  <time>2026-09-01T19:57:12Z</time>
  <course>10.67</course>
  <speed>0.01</speed>
  <fix>3d</fix>
</trkpt>
<trkpt lat="-27.274439" lon="151.290064">
  <ele>343.1</ele>
  <time>2026-09-01T19:57:12Z</time>
  <course>53.06</course>
  <speed>0.0</speed>
  <fix>3d</fix>
</trkpt>
<trkpt lat="-27.274439" lon="151.290064">
  <ele>343.07</ele>
  <time>2026-09-01T19:57:12Z</time>
  <course>10.67</course>
  <speed>0.01</speed>
  <fix>3d</fix>
</trkpt>
<trkpt lat="-27.274439" lon="151.290064">
  <ele>343.1</ele>
  <time>2026-09-01T19:57:12Z</time>
  <course>232.73</course>
  <speed>0.0</speed>
  <fix>3d</fix>
</trkpt>
<trkpt lat="-27.274439" lon="151.290064">
  <ele>343.07</ele>
  <time>2026-09-01T19:57:12Z</time>
  <course>10.67</course>
  <speed>0.01</speed>
  <fix>3d</fix>
</trkpt>
<trkpt lat="-27.274439" lon="151.290064">
  <ele>343.1</ele>
  <time>2026-09-01T19:57:12Z</time>
  <course>232.73</course>
  <speed>0.0</speed>
  <fix>3d</fix>
</trkpt>
<trkpt lat="-27.274439" lon="151.290064">
  <ele>343.07</ele>
  <time>2026-09-01T19:57:12Z</time>
  <course>10.67</course>
  <speed>0.01</speed>
  <fix>3d</fix>
</trkpt>
<trkpt lat="-27.274439" lon="151.290064">
  <ele>343.1</ele>
  <time>2026-09-01T19:57:12Z</time>
  <course>231.1</course>
  <speed>0.0</speed>
  <fix>3d</fix>
</trkpt>
<trkpt lat="-27.274439" lon="151.290064">
  <ele>343.07</ele>
  <time>2026-09-01T19:57:12Z</time>
  <course>10.67</course>
  <speed>0.01</speed>
  <fix>3d</fix>
</trkpt>
<trkpt lat="-27.274439" lon="151.290064">
  <ele>343.1</ele>
  <time>2026-09-01T19:57:12Z</time>
  <course>231.1</course>
  <speed>0.0</speed>
  <fix>3d</fix>
</trkpt>
<trkpt lat="-27.274439" lon="151.290064">
  <ele>343.07</ele>
  <time>2026-09-01T19:57:12Z</time>
  <course>10.67</course>
  <speed>0.01</speed>
  <fix>3d</fix>
</trkpt>
<trkpt lat="-27.274439" lon="151.290064">
  <ele>343.1</ele>
  <time>2026-09-01T19:57:12Z</time>
  <course>55.52</course>
  <speed>0.0</speed>
  <fix>3d</fix>
</trkpt>
<trkpt lat="-27.274439" lon="151.290064">
  <ele>343.07</ele>
  <time>2026-09-01T19:57:12Z</time>
  <course>10.67</course>
  <speed>0.01</speed>
  <fix>3d</fix>
</trkpt>
<trkpt lat="-27.274439" lon="151.290064">
  <ele>343.1</ele>
  <time>2026-09-01T19:57:12Z</time>
  <course>55.52</course>
  <speed>0.0</speed>
  <fix>3d</fix>
</trkpt>
<trkpt lat="-27.274439" lon="151.290064">
  <ele>343.06</ele>
  <time>2026-09-01T19:57:12Z</time>
  <course>10.67</course>
  <speed>0.01</speed>
  <fix>3d</fix>
</trkpt>
<trkpt lat="-27.274439" lon="151.290064">
  <ele>343.1</ele>
  <time>2026-09-01T19:57:12Z</time>
  <course>79.53</course>
  <speed>0.0</speed>
  <fix>3d</fix>
</trkpt>
<trkpt lat="-27.274439" lon="151.290064">
  <ele>343.06</ele>
  <time>2026-09-01T19:57:12Z</time>
  <course>10.67</course>
  <speed>0.01</speed>
  <fix>3d</fix>
</trkpt>
<trkpt lat="-27.274439" lon="151.290064">
  <ele>343.1</ele>
  <time>2026-09-01T19:57:12Z</time>
  <course>79.53</course>
  <speed>0.0</speed>
  <fix>3d</fix>
</trkpt>
<trkpt lat="-27.274439" lon="151.290064">
  <ele>343.06</ele>
  <time>2026-09-01T19:57:12Z</time>
  <course>10.67</course>
  <speed>0.01</speed>
  <fix>3d</fix>
</trkpt>
<trkpt lat="-27.274439" lon="151.290064">
  <ele>343.1</ele>
  <time>2026-09-01T19:57:12Z</time>
  <course>222.59</course>
  <speed>0.0</speed>
  <fix>3d</fix>
</trkpt>
<trkpt lat="-27.274439" lon="151.290064">
  <ele>343.07</ele>
  <time>2026-09-01T19:57:12Z</time>
  <course>10.67</course>
  <speed>0.01</speed>
  <fix>3d</fix>
</trkpt>
<trkpt lat="-27.274439" lon="151.290064">
  <ele>343.1</ele>
  <time>2026-09-01T19:57:12Z</time>
  <course>222.59</course>
  <speed>0.0</speed>
  <fix>3d</fix>
</trkpt>
<trkpt lat="-27.274439" lon="151.290064">
  <ele>343.07</ele>
  <time>2026-09-01T19:57:12Z</time>
  <course>10.67</course>
  <speed>0.01</speed>
  <fix>3d</fix>
</trkpt>
<trkpt lat="-27.274439" lon="151.290064">
  <ele>343.1</ele>
  <time>2026-09-01T19:57:12Z</time>
  <course>174.4</course>
  <speed>0.0</speed>
  <fix>3d</fix>
</trkpt>
<trkpt lat="-27.274439" lon="151.290064">
  <ele>343.07</ele>
  <time>2026-09-01T19:57:12Z</time>
  <course>10.67</course>
  <speed>0.01</speed>
  <fix>3d</fix>
</trkpt>
<trkpt lat="-27.274439" lon="151.290064">
  <ele>343.1</ele>
  <time>2026-09-01T19:57:12Z</time>
  <course>174.4</course>
  <speed>0.0</speed>
  <fix>3d</fix>
</trkpt>
<trkpt lat="-27.274439" lon="151.290064">
  <ele>343.07</ele>
  <time>2026-09-01T19:57:12Z</time>
  <course>10.67</course>
  <speed>0.01</speed>
  <fix>3d</fix>
</trkpt>
<trkpt lat="-27.274439" lon="151.290064">
  <ele>343.1</ele>
  <time>2026-09-01T19:57:12Z</time>
  <course>162.05</course>
  <speed>0.0</speed>
  <fix>3d</fix>
</trkpt>
<trkpt lat="-27.274439" lon="151.290064">
  <ele>343.07</ele>
  <time>2026-09-01T19:57:12Z</time>
  <course>10.67</course>
  <speed>0.01</speed>
  <fix>3d</fix>
</trkpt>
<trkpt lat="-27.274439" lon="151.290064">
  <ele>343.1</ele>
  <time>2026-09-01T19:57:12Z</time>
  <course>162.05</course>
  <speed>0.0</speed>
  <fix>3d</fix>
</trkpt>
<trkpt lat="-27.274439" lon="151.290064">
  <ele>343.07</ele>
  <time>2026-09-01T19:57:12Z</time>
  <course>10.67</course>
  <speed>0.01</speed>
  <fix>3d</fix>
</trkpt>
<trkpt lat="-27.274439" lon="151.290064">
  <ele>343.1</ele>
  <time>2026-09-01T19:57:12Z</time>
  <course>160.52</course>
  <speed>0.0</speed>
  <fix>3d</fix>
</trkpt>
<trkpt lat="-27.274439" lon="151.290064">
  <ele>343.07</ele>
  <time>2026-09-01T19:57:12Z</time>
  <course>10.67</course>
  <speed>0.01</speed>
  <fix>3d</fix>
</trkpt>
<trkpt lat="-27.274439" lon="151.290064">
  <ele>343.1</ele>
  <time>2026-09-01T19:57:12Z</time>
  <course>160.52</course>
  <speed>0.0</speed>
  <fix>3d</fix>
</trkpt>
<trkpt lat="-27.274439" lon="151.290064">
  <ele>343.07</ele>
  <time>2026-09-01T19:57:12Z</time>
  <course>10.67</course>
  <speed>0.01</speed>
  <fix>3d</fix>
</trkpt>
<trkpt lat="-27.274439" lon="151.290064">
  <ele>343.1</ele>
  <time>2026-09-01T19:57:12Z</time>
  <course>160.31</course>
  <speed>0.0</speed>
  <fix>3d</fix>
</trkpt>
<trkpt lat="-27.274439" lon="151.290064">
  <ele>343.07</ele>
  <time>2026-09-01T19:57:12Z</time>
  <course>10.66</course>
  <speed>0.01</speed>
  <fix>3d</fix>
</trkpt>
<trkpt lat="-27.274439" lon="151.290064">
  <ele>343.1</ele>
  <time>2026-09-01T19:57:12Z</time>
  <course>160.31</course>
  <speed>0.0</speed>
  <fix>3d</fix>
</trkpt>
<trkpt lat="-27.274439" lon="151.290064">
  <ele>343.06</ele>
  <time>2026-09-01T19:57:12Z</time>
  <course>10.66</course>
  <speed>0.01</speed>
  <fix>3d</fix>
</trkpt>
<trkpt lat="-27.274439" lon="151.290064">
  <ele>343.1</ele>
  <time>2026-09-01T19:57:12Z</time>
  <course>160.28</course>
  <speed>0.0</speed>
  <fix>3d</fix>
</trkpt>
<trkpt lat="-27.274439" lon="151.290064">
  <ele>343.06</ele>
  <time>2026-09-01T19:57:12Z</time>
  <course>10.66</course>
  <speed>0.01</speed>
  <fix>3d</fix>
</trkpt>
<trkpt lat="-27.274439" lon="151.290064">
  <ele>343.1</ele>
  <time>2026-09-01T19:57:12Z</time>
  <course>160.28</course>
  <speed>0.0</speed>
  <fix>3d</fix>
</trkpt>
<trkpt lat="-27.274439" lon="151.290064">
  <ele>343.06</ele>
  <time>2026-09-01T19:57:12Z</time>
  <course>10.66</course>
  <speed>0.01</speed>
  <fix>3d</fix>
</trkpt>
<trkpt lat="-27.274439" lon="151.290064">
  <ele>343.1</ele>
  <time>2026-09-01T19:57:12Z</time>
  <course>160.28</course>
  <speed>0.0</speed>
  <fix>3d</fix>
</trkpt>
<trkpt lat="-27.274439" lon="151.290064">
  <ele>343.05</ele>
  <time>2026-09-01T19:57:12Z</time>
  <course>10.66</course>
  <speed>0.01</speed>
  <fix>3d</fix>
</trkpt>
<trkpt lat="-27.274439" lon="151.290064">
  <ele>343.1</ele>
  <time>2026-09-01T19:57:12Z</time>
  <course>160.28</course>
  <speed>0.0</speed>
  <fix>3d</fix>
</trkpt>
<trkpt lat="-27.274439" lon="151.290064">
  <ele>343.05</ele>
  <time>2026-09-01T19:57:12Z</time>
  <course>10.66</course>
  <speed>0.01</speed>
  <fix>3d</fix>
</trkpt>
<trkpt lat="-27.274439" lon="151.290064">
  <ele>343.1</ele>
  <time>2026-09-01T19:57:12Z</time>
  <course>160.28</course>
  <speed>0.0</speed>
  <fix>3d</fix>
</trkpt>
<trkpt lat="-27.274439" lon="151.290064">
  <ele>343.05</ele>
  <time>2026-09-01T19:57:12Z</time>
  <course>10.66</course>
  <speed>0.01</speed>
  <fix>3d</fix>
</trkpt>
<trkpt lat="-27.274439" lon="151.290064">
  <ele>343.1</ele>
  <time>2026-09-01T19:57:12Z</time>
  <course>160.28</course>
  <speed>0.0</speed>
  <fix>3d</fix>
</trkpt>
<trkpt lat="-27.274439" lon="151.290064">
  <ele>343.04</ele>
  <time>2026-09-01T19:57:12Z</time>
  <course>10.66</course>
  <speed>0.01</speed>
  <fix>3d</fix>
</trkpt>
<trkpt lat="-27.274439" lon="151.290064">
  <ele>343.1</ele>
  <time>2026-09-01T19:57:12Z</time>
  <course>160.28</course>
  <speed>0.0</speed>
  <fix>3d</fix>
</trkpt>
<trkpt lat="-27.274439" lon="151.290064">
  <ele>343.04</ele>
  <time>2026-09-01T19:57:12Z</time>
  <course>10.66</course>
  <speed>0.01414213562373095</speed>
  <fix>3d</fix>
</trkpt>
<trkpt lat="-27.274439" lon="151.290064">
  <ele>343.1</ele>
  <time>2026-09-01T19:57:12Z</time>
  <course>160.28</course>
  <speed>0.0</speed>
  <fix>3d</fix>
</trkpt>
<trkpt lat="-27.274439" lon="151.290064">
  <ele>343.04</ele>
  <time>2026-09-01T19:57:12Z</time>
  <course>10.66</course>
  <speed>0.01414213562373095</speed>
  <fix>3d</fix>
</trkpt>
<trkpt lat="-27.274439" lon="151.290064">
  <ele>343.1</ele>
  <time>2026-09-01T19:57:12Z</time>
  <course>160.28</course>
  <speed>0.0</speed>
  <fix>3d</fix>
</trkpt>
<trkpt lat="-27.274439" lon="151.290064">
  <ele>343.04</ele>
  <time>2026-09-01T19:57:12Z</time>
  <course>10.66</course>
  <speed>0.01414213562373095</speed>
  <fix>3d</fix>
</trkpt>
<trkpt lat="-27.274439" lon="151.290064">
  <ele>343.1</ele>
  <time>2026-09-01T19:57:12Z</time>
  <course>160.28</course>
  <speed>0.0</speed>
  <fix>3d</fix>
</trkpt>
<trkpt lat="-27.274439" lon="151.290064">
  <ele>343.04</ele>
  <time>2026-09-01T19:57:12Z</time>
  <course>10.66</course>
  <speed>0.01414213562373095</speed>
  <fix>3d</fix>
</trkpt>
<trkpt lat="-27.274439" lon="151.290064">
  <ele>343.1</ele>
  <time>2026-09-01T19:57:12Z</time>
  <course>160.28</course>
  <speed>0.0</speed>
  <fix>3d</fix>
</trkpt>
<trkpt lat="-27.2744391" lon="151.290064">
  <ele>343.04</ele>
  <time>2026-09-01T19:57:12Z</time>
  <course>10.66</course>
  <speed>0.01414213562373095</speed>
  <fix>3d</fix>
</trkpt>
<trkpt lat="-27.274439" lon="151.290064">
  <ele>343.1</ele>
  <time>2026-09-01T19:57:12Z</time>
  <course>160.28</course>
  <speed>0.0</speed>
  <fix>3d</fix>
</trkpt>
<trkpt lat="-27.2744391" lon="151.290064">
  <ele>343.04</ele>
  <time>2026-09-01T19:57:12Z</time>
  <course>10.66</course>
  <speed>0.01414213562373095</speed>
  <fix>3d</fix>
</trkpt>
<trkpt lat="-27.274439" lon="151.290064">
  <ele>343.1</ele>
  <time>2026-09-01T19:57:12Z</time>
  <course>160.28</course>
  <speed>0.0</speed>
  <fix>3d</fix>
</trkpt>
<trkpt lat="-27.2744391" lon="151.290064">
  <ele>343.04</ele>
  <time>2026-09-01T19:57:12Z</time>
  <course>10.66</course>
  <speed>0.01414213562373095</speed>
  <fix>3d</fix>
</trkpt>
<trkpt lat="-27.274439" lon="151.290064">
  <ele>343.1</ele>
  <time>2026-09-01T19:57:12Z</time>
  <course>160.28</course>
  <speed>0.0</speed>
  <fix>3d</fix>
</trkpt>
<trkpt lat="-27.2744391" lon="151.290064">
  <ele>343.04</ele>
  <time>2026-09-01T19:57:12Z</time>
  <course>10.66</course>
  <speed>0.01414213562373095</speed>
  <fix>3d</fix>
</trkpt>
<trkpt lat="-27.274439" lon="151.290064">
  <ele>343.1</ele>
  <time>2026-09-01T19:57:12Z</time>
  <course>160.28</course>
  <speed>0.0</speed>
  <fix>3d</fix>
</trkpt>
<trkpt lat="-27.2744391" lon="151.290064">
  <ele>343.04</ele>
  <time>2026-09-01T19:57:12Z</time>
  <course>10.66</course>
  <speed>0.01414213562373095</speed>
  <fix>3d</fix>
</trkpt>
<trkpt lat="-27.274439" lon="151.290064">
  <ele>343.1</ele>
  <time>2026-09-01T19:57:12Z</time>
  <course>160.28</course>
  <speed>0.0</speed>
  <fix>3d</fix>
</trkpt>
<trkpt lat="-27.2744391" lon="151.290064">
  <ele>343.04</ele>
  <time>2026-09-01T19:57:12Z</time>
  <course>10.66</course>
  <speed>0.01414213562373095</speed>
  <fix>3d</fix>
</trkpt>
<trkpt lat="-27.274439" lon="151.290064">
  <ele>343.1</ele>
  <time>2026-09-01T19:57:12Z</time>
  <course>160.28</course>
  <speed>0.0</speed>
  <fix>3d</fix>
</trkpt>
<trkpt lat="-27.2744391" lon="151.290064">
  <ele>343.03</ele>
  <time>2026-09-01T19:57:12Z</time>
  <course>10.66</course>
  <speed>0.01414213562373095</speed>
  <fix>3d</fix>
</trkpt>
<trkpt lat="-27.274439" lon="151.290064">
  <ele>343.1</ele>
  <time>2026-09-01T19:57:12Z</time>
  <course>160.28</course>
  <speed>0.0</speed>
  <fix>3d</fix>
</trkpt>
<trkpt lat="-27.2744391" lon="151.290064">
  <ele>343.03</ele>
  <time>2026-09-01T19:57:12Z</time>
  <course>10.66</course>
  <speed>0.01414213562373095</speed>
  <fix>3d</fix>
</trkpt>
<trkpt lat="-27.274439" lon="151.290064">
  <ele>343.1</ele>
  <time>2026-09-01T19:57:12Z</time>
  <course>160.28</course>
  <speed>0.0</speed>
  <fix>3d</fix>
</trkpt>
<trkpt lat="-27.2744391" lon="151.290064">
  <ele>343.03</ele>
  <time>2026-09-01T19:57:12Z</time>
  <course>10.66</course>
  <speed>0.01414213562373095</speed>
  <fix>3d</fix>
</trkpt>
<trkpt lat="-27.274439" lon="151.290064">
  <ele>343.1</ele>
  <time>2026-09-01T19:57:12Z</time>
  <course>160.28</course>
  <speed>0.0</speed>
  <fix>3d</fix>
</trkpt>
<trkpt lat="-27.2744391" lon="151.290064">
  <ele>343.03</ele>
  <time>2026-09-01T19:57:12Z</time>
  <course>10.66</course>
  <speed>0.01414213562373095</speed>
  <fix>3d</fix>
</trkpt>
<trkpt lat="-27.274439" lon="151.290064">
  <ele>343.1</ele>
  <time>2026-09-01T19:57:12Z</time>
  <course>160.28</course>
  <speed>0.0</speed>
  <fix>3d</fix>
</trkpt>
<trkpt lat="-27.2744391" lon="151.290064">
  <ele>343.04</ele>
  <time>2026-09-01T19:57:12Z</time>
  <course>10.66</course>
  <speed>0.01414213562373095</speed>
  <fix>3d</fix>
</trkpt>
<trkpt lat="-27.274439" lon="151.290064">
  <ele>343.1</ele>
  <time>2026-09-01T19:57:12Z</time>
  <course>160.28</course>
  <speed>0.0</speed>
  <fix>3d</fix>
</trkpt>
<trkpt lat="-27.2744391" lon="151.290064">
  <ele>343.1</ele>
  <time>2026-09-01T19:57:12Z</time>
  <course>10.66</course>
  <speed>0.01414213562373095</speed>
  <fix>3d</fix>
</trkpt>
<trkpt lat="-27.274439" lon="151.290064">
  <ele>343.1</ele>
  <time>2026-09-01T19:57:12Z</time>
  <course>160.28</course>
  <speed>0.0</speed>
  <fix>3d</fix>
</trkpt>
<trkpt lat="-27.2744391" lon="151.2900641">
  <ele>343.09</ele>
  <time>2026-09-01T19:57:12Z</time>
  <course>10.66</course>
  <speed>0.01414213562373095</speed>
  <fix>3d</fix>
</trkpt>
<trkpt lat="-27.274439" lon="151.290064">
  <ele>343.1</ele>
  <time>2026-09-01T19:57:12Z</time>
  <course>160.28</course>
  <speed>0.0</speed>
  <fix>3d</fix>
</trkpt>
<trkpt lat="-27.2744391" lon="151.2900641">
  <ele>343.09</ele>
  <time>2026-09-01T19:57:12Z</time>
  <course>10.66</course>
  <speed>0.01414213562373095</speed>
  <fix>3d</fix>
</trkpt>
<trkpt lat="-27.274439" lon="151.290064">
  <ele>343.1</ele>
  <time>2026-09-01T19:57:12Z</time>
  <course>160.28</course>
  <speed>0.0</speed>
  <fix>3d</fix>
</trkpt>
<trkpt lat="-27.2744391" lon="151.2900641">
  <ele>343.09</ele>
  <time>2026-09-01T19:57:12Z</time>
  <course>10.66</course>
  <speed>0.01414213562373095</speed>
  <fix>3d</fix>
</trkpt>
<trkpt lat="-27.274439" lon="151.290064">
  <ele>343.1</ele>
  <time>2026-09-01T19:57:12Z</time>
  <course>160.28</course>
  <speed>0.0</speed>
  <fix>3d</fix>
</trkpt>
<trkpt lat="-27.2744391" lon="151.2900641">
  <ele>343.09</ele>
  <time>2026-09-01T19:57:12Z</time>
  <course>10.66</course>
  <speed>0.01414213562373095</speed>
  <fix>3d</fix>
</trkpt>
<trkpt lat="-27.274439" lon="151.290064">
  <ele>343.1</ele>
  <time>2026-09-01T19:57:12Z</time>
  <course>160.28</course>
  <speed>0.0</speed>
  <fix>3d</fix>
</trkpt>
<trkpt lat="-27.2744391" lon="151.2900641">
  <ele>343.09</ele>
  <time>2026-09-01T19:57:12Z</time>
  <course>10.66</course>
  <speed>0.01414213562373095</speed>
  <fix>3d</fix>
</trkpt>
<trkpt lat="-27.274439" lon="151.290064">
  <ele>343.1</ele>
  <time>2026-09-01T19:57:12Z</time>
  <course>160.28</course>
  <speed>0.0</speed>
  <fix>3d</fix>
</trkpt>
<trkpt lat="-27.2744391" lon="151.2900641">
  <ele>343.08</ele>
  <time>2026-09-01T19:57:12Z</time>
  <course>10.66</course>
  <speed>0.01414213562373095</speed>
  <fix>3d</fix>
</trkpt>
<trkpt lat="-27.274439" lon="151.290064">
  <ele>343.1</ele>
  <time>2026-09-01T19:57:12Z</time>
  <course>160.28</course>
  <speed>0.0</speed>
  <fix>3d</fix>
</trkpt>
<trkpt lat="-27.2744391" lon="151.2900641">
  <ele>343.08</ele>
  <time>2026-09-01T19:57:12Z</time>
  <course>10.66</course>
  <speed>0.01414213562373095</speed>
  <fix>3d</fix>
</trkpt>
<trkpt lat="-27.274439" lon="151.290064">
  <ele>343.1</ele>
  <time>2026-09-01T19:57:12Z</time>
  <course>160.28</course>
  <speed>0.0</speed>
  <fix>3d</fix>
</trkpt>
<trkpt lat="-27.2744391" lon="151.2900641">
  <ele>343.08</ele>
  <time>2026-09-01T19:57:12Z</time>
  <course>10.66</course>
  <speed>0.01414213562373095</speed>
  <fix>3d</fix>
</trkpt>
<trkpt lat="-27.274439" lon="151.290064">
  <ele>343.1</ele>
  <time>2026-09-01T19:57:12Z</time>
  <course>160.28</course>
  <speed>0.0</speed>
  <fix>3d</fix>
</trkpt>
<trkpt lat="-27.2744391" lon="151.2900641">
  <ele>343.07</ele>
  <time>2026-09-01T19:57:12Z</time>
  <course>10.66</course>
  <speed>0.01414213562373095</speed>
  <fix>3d</fix>
</trkpt>
<trkpt lat="-27.274439" lon="151.290064">
  <ele>343.1</ele>
  <time>2026-09-01T19:57:12Z</time>
  <course>160.28</course>
  <speed>0.0</speed>
  <fix>3d</fix>
</trkpt>
<trkpt lat="-27.2744391" lon="151.2900641">
  <ele>343.07</ele>
  <time>2026-09-01T19:57:12Z</time>
  <course>10.66</course>
  <speed>0.01414213562373095</speed>
  <fix>3d</fix>
</trkpt>
<trkpt lat="-27.274439" lon="151.290064">
  <ele>343.1</ele>
  <time>2026-09-01T19:57:12Z</time>
  <course>160.28</course>
  <speed>0.0</speed>
  <fix>3d</fix>
</trkpt>
<trkpt lat="-27.2744391" lon="151.2900641">
  <ele>343.06</ele>
  <time>2026-09-01T19:57:12Z</time>
  <course>10.64</course>
  <speed>0.01414213562373095</speed>
  <fix>3d</fix>
</trkpt>
<trkpt lat="-27.274439" lon="151.290064">
  <ele>343.1</ele>
  <time>2026-09-01T19:57:12Z</time>
  <course>160.28</course>
  <speed>0.0</speed>
  <fix>3d</fix>
</trkpt>
<trkpt lat="-27.2744391" lon="151.2900641">
  <ele>343.06</ele>
  <time>2026-09-01T19:57:12Z</time>
  <course>10.61</course>
  <speed>0.01414213562373095</speed>
  <fix>3d</fix>
</trkpt>
<trkpt lat="-27.274439" lon="151.290064">
  <ele>343.1</ele>
  <time>2026-09-01T19:57:12Z</time>
  <course>142.96</course>
  <speed>0.0</speed>
  <fix>3d</fix>
</trkpt>
<trkpt lat="-27.2744391" lon="151.2900641">
  <ele>343.06</ele>
  <time>2026-09-01T19:57:12Z</time>
  <course>10.58</course>
  <speed>0.022360679774997897</speed>
  <fix>3d</fix>
</trkpt>
<trkpt lat="-27.274439" lon="151.290064">
  <ele>343.1</ele>
  <time>2026-09-01T19:57:12Z</time>
  <course>142.96</course>
  <speed>0.0</speed>
  <fix>3d</fix>
</trkpt>
<trkpt lat="-27.2744391" lon="151.2900641">
  <ele>343.05</ele>
  <time>2026-09-01T19:57:12Z</time>
  <course>10.55</course>
  <speed>0.01414213562373095</speed>
  <fix>3d</fix>
</trkpt>
<trkpt lat="-27.274439" lon="151.290064">
  <ele>343.1</ele>
  <time>2026-09-01T19:57:12Z</time>
  <course>142.89</course>
  <speed>0.0</speed>
  <fix>3d</fix>
</trkpt>
<trkpt lat="-27.2744391" lon="151.2900641">
  <ele>343.05</ele>
  <time>2026-09-01T19:57:12Z</time>
  <course>10.52</course>
  <speed>0.022360679774997897</speed>
  <fix>3d</fix>
</trkpt>
<trkpt lat="-27.274439" lon="151.290064">
  <ele>343.1</ele>
  <time>2026-09-01T19:57:12Z</time>
  <course>142.89</course>
  <speed>0.0</speed>
  <fix>3d</fix>
</trkpt>
<trkpt lat="-27.2744391" lon="151.2900641">
  <ele>343.04</ele>
  <time>2026-09-01T19:57:12Z</time>
  <course>10.49</course>
  <speed>0.022360679774997897</speed>
  <fix>3d</fix>
</trkpt>
<trkpt lat="-27.274439" lon="151.290064">
  <ele>343.1</ele>
  <time>2026-09-01T19:57:12Z</time>
  <course>323.79</course>
  <speed>0.0</speed>
  <fix>3d</fix>
</trkpt>
<trkpt lat="-27.2744391" lon="151.2900641">
  <ele>343.04</ele>
  <time>2026-09-01T19:57:12Z</time>
  <course>10.47</course>
  <speed>0.022360679774997897</speed>
  <fix>3d</fix>
</trkpt>
<trkpt lat="-27.274439" lon="151.290064">
  <ele>343.1</ele>
  <time>2026-09-01T19:57:12Z</time>
  <course>323.79</course>
  <speed>0.0</speed>
  <fix>3d</fix>
</trkpt>
<trkpt lat="-27.2744391" lon="151.2900641">
  <ele>343.04</ele>
  <time>2026-09-01T19:57:12Z</time>
  <course>10.44</course>
  <speed>0.022360679774997897</speed>
  <fix>3d</fix>
</trkpt>
<trkpt lat="-27.274439" lon="151.290064">
  <ele>343.1</ele>
  <time>2026-09-01T19:57:12Z</time>
  <course>323.79</course>
  <speed>0.0</speed>
  <fix>3d</fix>
</trkpt>
<trkpt lat="-27.2744391" lon="151.2900641">
  <ele>343.03</ele>
  <time>2026-09-01T19:57:12Z</time>
  <course>10.41</course>
  <speed>0.022360679774997897</speed>
  <fix>3d</fix>
</trkpt>
<trkpt lat="-27.274439" lon="151.290064">
  <ele>343.1</ele>
  <time>2026-09-01T19:57:12Z</time>
  <course>323.79</course>
  <speed>0.0</speed>
  <fix>3d</fix>
</trkpt>
<trkpt lat="-27.2744391" lon="151.2900641">
  <ele>343.03</ele>
  <time>2026-09-01T19:57:12Z</time>
  <course>10.38</course>
  <speed>0.01414213562373095</speed>
  <fix>3d</fix>
</trkpt>
<trkpt lat="-27.274439" lon="151.290064">
  <ele>343.1</ele>
  <time>2026-09-01T19:57:12Z</time>
  <course>133.88</course>
  <speed>0.0</speed>
  <fix>3d</fix>
</trkpt>
<trkpt lat="-27.2744391" lon="151.2900641">
  <ele>343.02</ele>
  <time>2026-09-01T19:57:12Z</time>
  <course>10.35</course>
  <speed>0.022360679774997897</speed>
  <fix>3d</fix>
</trkpt>
<trkpt lat="-27.274439" lon="151.290064">
  <ele>343.1</ele>
  <time>2026-09-01T19:57:12Z</time>
  <course>133.88</course>
  <speed>0.0</speed>
  <fix>3d</fix>
</trkpt>
<trkpt lat="-27.2744391" lon="151.2900641">
  <ele>343.02</ele>
  <time>2026-09-01T19:57:12Z</time>
  <course>10.32</course>
  <speed>0.01414213562373095</speed>
  <fix>3d</fix>
</trkpt>
<trkpt lat="-27.274439" lon="151.290064">
  <ele>343.1</ele>
  <time>2026-09-01T19:57:12Z</time>
  <course>335.79</course>
  <speed>0.0</speed>
  <fix>3d</fix>
</trkpt>
<trkpt lat="-27.2744391" lon="151.2900641">
  <ele>343.02</ele>
  <time>2026-09-01T19:57:12Z</time>
  <course>10.29</course>
  <speed>0.01414213562373095</speed>
  <fix>3d</fix>
</trkpt>
<trkpt lat="-27.274439" lon="151.290064">
  <ele>343.1</ele>
  <time>2026-09-01T19:57:12Z</time>
  <course>335.79</course>
  <speed>0.0</speed>
  <fix>3d</fix>
</trkpt>
<trkpt lat="-27.2744391" lon="151.2900641">
  <ele>343.02</ele>
  <time>2026-09-01T19:57:12Z</time>
  <course>10.26</course>
  <speed>0.01414213562373095</speed>
  <fix>3d</fix>
</trkpt>
<trkpt lat="-27.274439" lon="151.290064">
  <ele>343.1</ele>
  <time>2026-09-01T19:57:12Z</time>
  <course>327.06</course>
  <speed>0.0</speed>
  <fix>3d</fix>
</trkpt>
<trkpt lat="-27.2744391" lon="151.2900641">
  <ele>343.02</ele>
  <time>2026-09-01T19:57:12Z</time>
  <course>10.23</course>
  <speed>0.01414213562373095</speed>
  <fix>3d</fix>
</trkpt>
<trkpt lat="-27.274439" lon="151.290064">
  <ele>343.1</ele>
  <time>2026-09-01T19:57:12Z</time>
  <course>327.06</course>
  <speed>0.0</speed>
  <fix>3d</fix>
</trkpt>
<trkpt lat="-27.2744391" lon="151.2900641">
  <ele>343.02</ele>
  <time>2026-09-01T19:57:12Z</time>
  <course>10.2</course>
  <speed>0.01414213562373095</speed>
  <fix>3d</fix>
</trkpt>
<trkpt lat="-27.274439" lon="151.290064">
  <ele>343.1</ele>
  <time>2026-09-01T19:57:12Z</time>
  <course>327.91</course>
  <speed>0.0</speed>
  <fix>3d</fix>
</trkpt>
<trkpt lat="-27.2744391" lon="151.2900641">
  <ele>343.01</ele>
  <time>2026-09-01T19:57:12Z</time>
  <course>10.17</course>
  <speed>0.01414213562373095</speed>
  <fix>3d</fix>
</trkpt>
<trkpt lat="-27.274439" lon="151.290064">
  <ele>343.1</ele>
  <time>2026-09-01T19:57:12Z</time>
  <course>327.91</course>
  <speed>0.0</speed>
  <fix>3d</fix>
</trkpt>
<trkpt lat="-27.2744391" lon="151.2900641">
  <ele>343.01</ele>
  <time>2026-09-01T19:57:12Z</time>
  <course>10.14</course>
  <speed>0.01414213562373095</speed>
  <fix>3d</fix>
</trkpt>
<trkpt lat="-27.274439" lon="151.290064">
  <ele>343.1</ele>
  <time>2026-09-01T19:57:12Z</time>
  <course>328.3</course>
  <speed>0.0</speed>
  <fix>3d</fix>
</trkpt>
<trkpt lat="-27.2744391" lon="151.2900641">
  <ele>343.0</ele>
  <time>2026-09-01T19:57:12Z</time>
  <course>10.12</course>
  <speed>0.01414213562373095</speed>
  <fix>3d</fix>
</trkpt>
<trkpt lat="-27.274439" lon="151.290064">
  <ele>343.1</ele>
  <time>2026-09-01T19:57:12Z</time>
  <course>328.3</course>
  <speed>0.0</speed>
  <fix>3d</fix>
</trkpt>
<trkpt lat="-27.2744391" lon="151.2900641">
  <ele>343.0</ele>
  <time>2026-09-01T19:57:12Z</time>
  <course>10.09</course>
  <speed>0.01414213562373095</speed>
  <fix>3d</fix>
</trkpt>
<trkpt lat="-27.274439" lon="151.290064">
  <ele>343.1</ele>
  <time>2026-09-01T19:57:12Z</time>
  <course>328.02</course>
  <speed>0.0</speed>
  <fix>3d</fix>
</trkpt>
<trkpt lat="-27.2744391" lon="151.2900641">
  <ele>342.99</ele>
  <time>2026-09-01T19:57:12Z</time>
  <course>10.08</course>
  <speed>0.01414213562373095</speed>
  <fix>3d</fix>
</trkpt>
<trkpt lat="-27.274439" lon="151.290064">
  <ele>343.1</ele>
  <time>2026-09-01T19:57:12Z</time>
  <course>328.02</course>
  <speed>0.0</speed>
  <fix>3d</fix>
</trkpt>
<trkpt lat="-27.2744391" lon="151.2900641">
  <ele>342.99</ele>
  <time>2026-09-01T19:57:12Z</time>
  <course>10.08</course>
  <speed>0.01414213562373095</speed>
  <fix>3d</fix>
</trkpt>
<trkpt lat="-27.274439" lon="151.290064">
  <ele>343.1</ele>
  <time>2026-09-01T19:57:12Z</time>
  <course>322.5</course>
  <speed>0.0</speed>
  <fix>3d</fix>
</trkpt>
<trkpt lat="-27.2744391" lon="151.2900641">
  <ele>342.99</ele>
  <time>2026-09-01T19:57:12Z</time>
  <course>10.08</course>
  <speed>0.01414213562373095</speed>
  <fix>3d</fix>
</trkpt>
<trkpt lat="-27.274439" lon="151.290064">
  <ele>343.1</ele>
  <time>2026-09-01T19:57:12Z</time>
  <course>322.5</course>
  <speed>0.0</speed>
  <fix>3d</fix>
</trkpt>
<trkpt lat="-27.2744391" lon="151.290064">
  <ele>342.99</ele>
  <time>2026-09-01T19:57:12Z</time>
  <course>10.08</course>
  <speed>0.01</speed>
  <fix>3d</fix>
</trkpt>
<trkpt lat="-27.274439" lon="151.290064">
  <ele>343.1</ele>
  <time>2026-09-01T19:57:12Z</time>
  <course>322.43</course>
  <speed>0.0</speed>
  <fix>3d</fix>
</trkpt>
<trkpt lat="-27.2744391" lon="151.290064">
  <ele>342.99</ele>
  <time>2026-09-01T19:57:12Z</time>
  <course>10.08</course>
  <speed>0.01</speed>
  <fix>3d</fix>
</trkpt>
<trkpt lat="-27.274439" lon="151.290064">
  <ele>343.1</ele>
  <time>2026-09-01T19:57:12Z</time>
  <course>322.43</course>
  <speed>0.0</speed>
  <fix>3d</fix>
</trkpt>
<trkpt lat="-27.2744391" lon="151.290064">
  <ele>342.99</ele>
  <time>2026-09-01T19:57:12Z</time>
  <course>10.08</course>
  <speed>0.01</speed>
  <fix>3d</fix>
</trkpt>
<trkpt lat="-27.274439" lon="151.290064">
  <ele>343.1</ele>
  <time>2026-09-01T19:57:12Z</time>
  <course>142.5</course>
  <speed>0.0</speed>
  <fix>3d</fix>
</trkpt>
<trkpt lat="-27.2744391" lon="151.290064">
  <ele>342.99</ele>
  <time>2026-09-01T19:57:12Z</time>
  <course>10.08</course>
  <speed>0.01</speed>
  <fix>3d</fix>
</trkpt>
<trkpt lat="-27.274439" lon="151.290064">
  <ele>343.1</ele>
  <time>2026-09-01T19:57:12Z</time>
  <course>142.5</course>
  <speed>0.0</speed>
  <fix>3d</fix>
</trkpt>
<trkpt lat="-27.2744391" lon="151.290064">
  <ele>342.99</ele>
  <time>2026-09-01T19:57:12Z</time>
  <course>10.08</course>
  <speed>0.01</speed>
  <fix>3d</fix>
</trkpt>
<trkpt lat="-27.274439" lon="151.290064">
  <ele>343.1</ele>
  <time>2026-09-01T19:57:12Z</time>
  <course>142.42</course>
  <speed>0.0</speed>
  <fix>3d</fix>
</trkpt>
<trkpt lat="-27.2744391" lon="151.290064">
  <ele>342.99</ele>
  <time>2026-09-01T19:57:12Z</time>
  <course>10.07</course>
  <speed>0.01</speed>
  <fix>3d</fix>
</trkpt>
<trkpt lat="-27.274439" lon="151.290064">
  <ele>343.1</ele>
  <time>2026-09-01T19:57:12Z</time>
  <course>142.42</course>
  <speed>0.0</speed>
  <fix>3d</fix>
</trkpt>
<trkpt lat="-27.2744391" lon="151.290064">
  <ele>342.99</ele>
  <time>2026-09-01T19:57:12Z</time>
  <course>10.08</course>
  <speed>0.01</speed>
  <fix>3d</fix>
</trkpt>
<trkpt lat="-27.274439" lon="151.290064">
  <ele>343.1</ele>
  <time>2026-09-01T19:57:12Z</time>
  <course>322.47</course>
  <speed>0.0</speed>
  <fix>3d</fix>
</trkpt>
<trkpt lat="-27.2744391" lon="151.290064">
  <ele>342.99</ele>
  <time>2026-09-01T19:57:12Z</time>
  <course>10.1</course>
  <speed>0.01</speed>
  <fix>3d</fix>
</trkpt>
<trkpt lat="-27.274439" lon="151.290064">
  <ele>343.1</ele>
  <time>2026-09-01T19:57:12Z</time>
  <course>322.47</course>
  <speed>0.0</speed>
  <fix>3d</fix>
</trkpt>
<trkpt lat="-27.2744391" lon="151.290064">
  <ele>342.99</ele>
  <time>2026-09-01T19:57:12Z</time>
  <course>10.12</course>
  <speed>0.01</speed>
  <fix>3d</fix>
</trkpt>
<trkpt lat="-27.274439" lon="151.290064">
  <ele>343.1</ele>
  <time>2026-09-01T19:57:12Z</time>
  <course>233.12</course>
  <speed>0.0</speed>
  <fix>3d</fix>
</trkpt>
<trkpt lat="-27.2744391" lon="151.290064">
  <ele>342.98</ele>
  <time>2026-09-01T19:57:12Z</time>
  <course>10.15</course>
  <speed>0.01</speed>
  <fix>3d</fix>
</trkpt>
<trkpt lat="-27.274439" lon="151.290064">
  <ele>343.1</ele>
  <time>2026-09-01T19:57:12Z</time>
  <course>233.12</course>
  <speed>0.0</speed>
  <fix>3d</fix>
</trkpt>
<trkpt lat="-27.2744391" lon="151.290064">
  <ele>342.98</ele>
  <time>2026-09-01T19:57:12Z</time>
  <course>10.18</course>
  <speed>0.01</speed>
  <fix>3d</fix>
</trkpt>
<trkpt lat="-27.274439" lon="151.290064">
  <ele>343.1</ele>
  <time>2026-09-01T19:57:12Z</time>
  <course>232.19</course>
  <speed>0.0</speed>
  <fix>3d</fix>
</trkpt>
<trkpt lat="-27.2744391" lon="151.290064">
  <ele>342.98</ele>
  <time>2026-09-01T19:57:12Z</time>
  <course>10.21</course>
  <speed>0.01</speed>
  <fix>3d</fix>
</trkpt>
<trkpt lat="-27.274439" lon="151.290064">
  <ele>343.1</ele>
  <time>2026-09-01T19:57:12Z</time>
  <course>232.19</course>
  <speed>0.0</speed>
  <fix>3d</fix>
</trkpt>
<trkpt lat="-27.2744391" lon="151.290064">
  <ele>342.98</ele>
  <time>2026-09-01T19:57:12Z</time>
  <course>10.24</course>
  <speed>0.01</speed>
  <fix>3d</fix>
</trkpt>
<trkpt lat="-27.274439" lon="151.290064">
  <ele>343.1</ele>
  <time>2026-09-01T19:57:12Z</time>
  <course>51.95</course>
  <speed>0.0</speed>
  <fix>3d</fix>
</trkpt>
<trkpt lat="-27.2744391" lon="151.290064">
  <ele>342.98</ele>
  <time>2026-09-01T19:57:12Z</time>
  <course>10.27</course>
  <speed>0.01</speed>
  <fix>3d</fix>
</trkpt>
<trkpt lat="-27.274439" lon="151.290064">
  <ele>343.1</ele>
  <time>2026-09-01T19:57:12Z</time>
  <course>51.95</course>
  <speed>0.0</speed>
  <fix>3d</fix>
</trkpt>
<trkpt lat="-27.2744391" lon="151.290064">
  <ele>342.97</ele>
  <time>2026-09-01T19:57:12Z</time>
  <course>10.29</course>
  <speed>0.01</speed>
  <fix>3d</fix>
</trkpt>
<trkpt lat="-27.274439" lon="151.290064">
  <ele>343.1</ele>
  <time>2026-09-01T19:57:12Z</time>
  <course>51.27</course>
  <speed>0.0</speed>
  <fix>3d</fix>
</trkpt>
<trkpt lat="-27.2744391" lon="151.290064">
  <ele>342.97</ele>
  <time>2026-09-01T19:57:12Z</time>
  <course>10.32</course>
  <speed>0.01</speed>
  <fix>3d</fix>
</trkpt>
<trkpt lat="-27.274439" lon="151.290064">
  <ele>343.1</ele>
  <time>2026-09-01T19:57:12Z</time>
  <course>51.27</course>
  <speed>0.0</speed>
  <fix>3d</fix>
</trkpt>
<trkpt lat="-27.2744391" lon="151.290064">
  <ele>342.97</ele>
  <time>2026-09-01T19:57:12Z</time>
  <course>10.35</course>
  <speed>0.01</speed>
  <fix>3d</fix>
</trkpt>
<trkpt lat="-27.274439" lon="151.290064">
  <ele>343.1</ele>
  <time>2026-09-01T19:57:12Z</time>
  <course>241.45</course>
  <speed>0.0</speed>
  <fix>3d</fix>
</trkpt>
<trkpt lat="-27.2744391" lon="151.290064">
  <ele>342.96</ele>
  <time>2026-09-01T19:57:12Z</time>
  <course>10.38</course>
  <speed>0.01</speed>
  <fix>3d</fix>
</trkpt>
<trkpt lat="-27.274439" lon="151.290064">
  <ele>343.1</ele>
  <time>2026-09-01T19:57:12Z</time>
  <course>241.45</course>
  <speed>0.0</speed>
  <fix>3d</fix>
</trkpt>
<trkpt lat="-27.2744391" lon="151.290064">
  <ele>342.96</ele>
  <time>2026-09-01T19:57:12Z</time>
  <course>10.41</course>
  <speed>0.01</speed>
  <fix>3d</fix>
</trkpt>
<trkpt lat="-27.274439" lon="151.290064">
  <ele>343.1</ele>
  <time>2026-09-01T19:57:12Z</time>
  <course>40.63</course>
  <speed>0.0</speed>
  <fix>3d</fix>
</trkpt>
<trkpt lat="-27.2744391" lon="151.290064">
  <ele>342.96</ele>
  <time>2026-09-01T19:57:12Z</time>
  <course>10.44</course>
  <speed>0.01</speed>
  <fix>3d</fix>
</trkpt>
<trkpt lat="-27.274439" lon="151.290064">
  <ele>343.1</ele>
  <time>2026-09-01T19:57:12Z</time>
  <course>40.63</course>
  <speed>0.0</speed>
  <fix>3d</fix>
</trkpt>
<trkpt lat="-27.2744391" lon="151.290064">
  <ele>342.96</ele>
  <time>2026-09-01T19:57:12Z</time>
  <course>10.47</course>
  <speed>0.01</speed>
  <fix>3d</fix>
</trkpt>
<trkpt lat="-27.274439" lon="151.290064">
  <ele>343.1</ele>
  <time>2026-09-01T19:57:12Z</time>
  <course>48.33</course>
  <speed>0.0</speed>
  <fix>3d</fix>
</trkpt>
<trkpt lat="-27.2744391" lon="151.290064">
  <ele>342.96</ele>
  <time>2026-09-01T19:57:12Z</time>
  <course>10.5</course>
  <speed>0.01</speed>
  <fix>3d</fix>
</trkpt>
<trkpt lat="-27.274439" lon="151.290064">
  <ele>343.1</ele>
  <time>2026-09-01T19:57:12Z</time>
  <course>48.33</course>
  <speed>0.0</speed>
  <fix>3d</fix>
</trkpt>
<trkpt lat="-27.2744391" lon="151.290064">
  <ele>342.96</ele>
  <time>2026-09-01T19:57:12Z</time>
  <course>10.52</course>
  <speed>0.01</speed>
  <fix>3d</fix>
</trkpt>
<trkpt lat="-27.274439" lon="151.290064">
  <ele>343.1</ele>
  <time>2026-09-01T19:57:12Z</time>
  <course>47.46</course>
  <speed>0.0</speed>
  <fix>3d</fix>
</trkpt>
<trkpt lat="-27.2744391" lon="151.290064">
  <ele>342.95</ele>
  <time>2026-09-01T19:57:12Z</time>
  <course>10.55</course>
  <speed>0.01</speed>
  <fix>3d</fix>
</trkpt>
<trkpt lat="-27.274439" lon="151.290064">
  <ele>343.1</ele>
  <time>2026-09-01T19:57:12Z</time>
  <course>47.46</course>
  <speed>0.0</speed>
  <fix>3d</fix>
</trkpt>
<trkpt lat="-27.2744391" lon="151.290064">
  <ele>342.96</ele>
  <time>2026-09-01T19:57:12Z</time>
  <course>10.58</course>
  <speed>0.01</speed>
  <fix>3d</fix>
</trkpt>
<trkpt lat="-27.274439" lon="151.290064">
  <ele>343.1</ele>
  <time>2026-09-01T19:57:12Z</time>
  <course>47.12</course>
  <speed>0.0</speed>
  <fix>3d</fix>
</trkpt>
<trkpt lat="-27.2744391" lon="151.290064">
  <ele>342.96</ele>
  <time>2026-09-01T19:57:12Z</time>
  <course>10.61</course>
  <speed>0.01</speed>
  <fix>3d</fix>
</trkpt>
<trkpt lat="-27.274439" lon="151.290064">
  <ele>343.1</ele>
  <time>2026-09-01T19:57:12Z</time>
  <course>47.12</course>
  <speed>0.0</speed>
  <fix>3d</fix>
</trkpt>
<trkpt lat="-27.2744391" lon="151.290064">
  <ele>343.1</ele>
  <time>2026-09-01T19:57:12Z</time>
  <course>10.63</course>
  <speed>0.01</speed>
  <fix>3d</fix>
</trkpt>
<trkpt lat="-27.274439" lon="151.290064">
  <ele>343.1</ele>
  <time>2026-09-01T19:57:12Z</time>
  <course>47.39</course>
  <speed>0.0</speed>
  <fix>3d</fix>
</trkpt>
<trkpt lat="-27.2744391" lon="151.290064">
  <ele>343.09</ele>
  <time>2026-09-01T19:57:12Z</time>
  <course>10.64</course>
  <speed>0.01</speed>
  <fix>3d</fix>
</trkpt>
<trkpt lat="-27.274439" lon="151.290064">
  <ele>343.1</ele>
  <time>2026-09-01T19:57:12Z</time>
  <course>47.39</course>
  <speed>0.0</speed>
  <fix>3d</fix>
</trkpt>
<trkpt lat="-27.2744391" lon="151.290064">
  <ele>343.09</ele>
  <time>2026-09-01T19:57:12Z</time>
  <course>10.65</course>
  <speed>0.01</speed>
  <fix>3d</fix>
</trkpt>
<trkpt lat="-27.274439" lon="151.290064">
  <ele>343.1</ele>
  <time>2026-09-01T19:57:12Z</time>
  <course>52.92</course>
  <speed>0.0</speed>
  <fix>3d</fix>
</trkpt>
<trkpt lat="-27.2744391" lon="151.290064">
  <ele>343.09</ele>
  <time>2026-09-01T19:57:12Z</time>
  <course>10.65</course>
  <speed>0.01</speed>
  <fix>3d</fix>
</trkpt>
<trkpt lat="-27.274439" lon="151.290064">
  <ele>343.1</ele>
  <time>2026-09-01T19:57:12Z</time>
  <course>52.92</course>
  <speed>0.0</speed>
  <fix>3d</fix>
</trkpt>
<trkpt lat="-27.2744391" lon="151.290064">
  <ele>343.09</ele>
  <time>2026-09-01T19:57:12Z</time>
  <course>10.65</course>
  <speed>0.01</speed>
  <fix>3d</fix>
</trkpt>
<trkpt lat="-27.274439" lon="151.290064">
  <ele>343.1</ele>
  <time>2026-09-01T19:57:12Z</time>
  <course>52.99</course>
  <speed>0.0</speed>
  <fix>3d</fix>
</trkpt>
<trkpt lat="-27.2744391" lon="151.290064">
  <ele>343.09</ele>
  <time>2026-09-01T19:57:12Z</time>
  <course>10.65</course>
  <speed>0.01</speed>
  <fix>3d</fix>
</trkpt>
<trkpt lat="-27.274439" lon="151.290064">
  <ele>343.1</ele>
  <time>2026-09-01T19:57:12Z</time>
  <course>52.99</course>
  <speed>0.0</speed>
  <fix>3d</fix>
</trkpt>
<trkpt lat="-27.2744391" lon="151.290064">
  <ele>343.09</ele>
  <time>2026-09-01T19:57:12Z</time>
  <course>10.65</course>
  <speed>0.01</speed>
  <fix>3d</fix>
</trkpt>
<trkpt lat="-27.274439" lon="151.290064">
  <ele>343.1</ele>
  <time>2026-09-01T19:57:12Z</time>
  <course>232.91</course>
  <speed>0.0</speed>
  <fix>3d</fix>
</trkpt>
<trkpt lat="-27.2744391" lon="151.290064">
  <ele>343.08</ele>
  <time>2026-09-01T19:57:12Z</time>
  <course>10.65</course>
  <speed>0.01414213562373095</speed>
  <fix>3d</fix>
</trkpt>
<trkpt lat="-27.274439" lon="151.290064">
  <ele>343.1</ele>
  <time>2026-09-01T19:57:12Z</time>
  <course>232.91</course>
  <speed>0.0</speed>
  <fix>3d</fix>
</trkpt>
<trkpt lat="-27.2744391" lon="151.290064">
  <ele>343.08</ele>
  <time>2026-09-01T19:57:12Z</time>
  <course>10.65</course>
  <speed>0.01414213562373095</speed>
  <fix>3d</fix>
</trkpt>
<trkpt lat="-27.274439" lon="151.290064">
  <ele>343.1</ele>
  <time>2026-09-01T19:57:12Z</time>
  <course>233.0</course>
  <speed>0.0</speed>
  <fix>3d</fix>
</trkpt>
<trkpt lat="-27.2744391" lon="151.290064">
  <ele>343.08</ele>
  <time>2026-09-01T19:57:12Z</time>
  <course>10.65</course>
  <speed>0.01414213562373095</speed>
  <fix>3d</fix>
</trkpt>
<trkpt lat="-27.274439" lon="151.290064">
  <ele>343.1</ele>
  <time>2026-09-01T19:57:12Z</time>
  <course>233.0</course>
  <speed>0.0</speed>
  <fix>3d</fix>
</trkpt>
<trkpt lat="-27.2744391" lon="151.290064">
  <ele>343.07</ele>
  <time>2026-09-01T19:57:12Z</time>
  <course>10.65</course>
  <speed>0.01414213562373095</speed>
  <fix>3d</fix>
</trkpt>
<trkpt lat="-27.274439" lon="151.290064">
  <ele>343.1</ele>
  <time>2026-09-01T19:57:12Z</time>
  <course>52.95</course>
  <speed>0.0</speed>
  <fix>3d</fix>
</trkpt>
<trkpt lat="-27.2744391" lon="151.290064">
  <ele>343.07</ele>
  <time>2026-09-01T19:57:12Z</time>
  <course>10.65</course>
  <speed>0.01414213562373095</speed>
  <fix>3d</fix>
</trkpt>
<trkpt lat="-27.274439" lon="151.290064">
  <ele>343.1</ele>
  <time>2026-09-01T19:57:12Z</time>
  <course>52.95</course>
  <speed>0.0</speed>
  <fix>3d</fix>
</trkpt>
<trkpt lat="-27.2744391" lon="151.290064">
  <ele>343.07</ele>
  <time>2026-09-01T19:57:12Z</time>
  <course>10.65</course>
  <speed>0.01414213562373095</speed>
  <fix>3d</fix>
</trkpt>
<trkpt lat="-27.274439" lon="151.290064">
  <ele>343.1</ele>
  <time>2026-09-01T19:57:12Z</time>
  <course>53.01</course>
  <speed>0.0</speed>
  <fix>3d</fix>
</trkpt>
<trkpt lat="-27.2744391" lon="151.290064">
  <ele>343.07</ele>
  <time>2026-09-01T19:57:12Z</time>
  <course>10.65</course>
  <speed>0.01414213562373095</speed>
  <fix>3d</fix>
</trkpt>
<trkpt lat="-27.274439" lon="151.290064">
  <ele>343.1</ele>
  <time>2026-09-01T19:57:12Z</time>
  <course>53.01</course>
  <speed>0.0</speed>
  <fix>3d</fix>
</trkpt>
<trkpt lat="-27.2744391" lon="151.290064">
  <ele>343.06</ele>
  <time>2026-09-01T19:57:12Z</time>
  <course>10.65</course>
  <speed>0.01414213562373095</speed>
  <fix>3d</fix>
</trkpt>
<trkpt lat="-27.274439" lon="151.290064">
  <ele>343.1</ele>
  <time>2026-09-01T19:57:12Z</time>
  <course>232.97</course>
  <speed>0.0</speed>
  <fix>3d</fix>
</trkpt>
<trkpt lat="-27.2744391" lon="151.290064">
  <ele>343.06</ele>
  <time>2026-09-01T19:57:12Z</time>
  <course>10.64</course>
  <speed>0.01414213562373095</speed>
  <fix>3d</fix>
</trkpt>
<trkpt lat="-27.274439" lon="151.290064">
  <ele>343.1</ele>
  <time>2026-09-01T19:57:12Z</time>
  <course>232.97</course>
  <speed>0.0</speed>
  <fix>3d</fix>
</trkpt>
<trkpt lat="-27.2744391" lon="151.290064">
  <ele>343.06</ele>
  <time>2026-09-01T19:57:12Z</time>
  <course>10.64</course>
  <speed>0.01414213562373095</speed>
  <fix>3d</fix>
</trkpt>
<trkpt lat="-27.274439" lon="151.290064">
  <ele>343.1</ele>
  <time>2026-09-01T19:57:12Z</time>
  <course>233.04</course>
  <speed>0.0</speed>
  <fix>3d</fix>
</trkpt>
<trkpt lat="-27.2744391" lon="151.2900641">
  <ele>343.06</ele>
  <time>2026-09-01T19:57:12Z</time>
  <course>10.64</course>
  <speed>0.01414213562373095</speed>
  <fix>3d</fix>
</trkpt>
<trkpt lat="-27.274439" lon="151.290064">
  <ele>343.1</ele>
  <time>2026-09-01T19:57:12Z</time>
  <course>233.04</course>
  <speed>0.0</speed>
  <fix>3d</fix>
</trkpt>
<trkpt lat="-27.2744391" lon="151.2900641">
  <ele>343.06</ele>
  <time>2026-09-01T19:57:12Z</time>
  <course>10.64</course>
  <speed>0.01414213562373095</speed>
  <fix>3d</fix>
</trkpt>
<trkpt lat="-27.274439" lon="151.290064">
  <ele>343.1</ele>
  <time>2026-09-01T19:57:12Z</time>
  <course>52.98</course>
  <speed>0.0</speed>
  <fix>3d</fix>
</trkpt>
<trkpt lat="-27.2744391" lon="151.2900641">
  <ele>343.06</ele>
  <time>2026-09-01T19:57:12Z</time>
  <course>10.64</course>
  <speed>0.01414213562373095</speed>
  <fix>3d</fix>
</trkpt>
<trkpt lat="-27.274439" lon="151.290064">
  <ele>343.1</ele>
  <time>2026-09-01T19:57:12Z</time>
  <course>52.98</course>
  <speed>0.0</speed>
  <fix>3d</fix>
</trkpt>
<trkpt lat="-27.2744391" lon="151.2900641">
  <ele>343.06</ele>
  <time>2026-09-01T19:57:12Z</time>
  <course>10.64</course>
  <speed>0.022360679774997897</speed>
  <fix>3d</fix>
</trkpt>
<trkpt lat="-27.274439" lon="151.290064">
  <ele>343.1</ele>
  <time>2026-09-01T19:57:12Z</time>
  <course>53.29</course>
  <speed>0.0</speed>
  <fix>3d</fix>
</trkpt>
<trkpt lat="-27.2744391" lon="151.2900641">
  <ele>343.06</ele>
  <time>2026-09-01T19:57:12Z</time>
  <course>10.64</course>
  <speed>0.022360679774997897</speed>
  <fix>3d</fix>
</trkpt>
<trkpt lat="-27.274439" lon="151.290064">
  <ele>343.1</ele>
  <time>2026-09-01T19:57:12Z</time>
  <course>53.29</course>
  <speed>0.0</speed>
  <fix>3d</fix>
</trkpt>
<trkpt lat="-27.2744391" lon="151.2900641">
  <ele>343.06</ele>
  <time>2026-09-01T19:57:12Z</time>
  <course>10.64</course>
  <speed>0.022360679774997897</speed>
  <fix>3d</fix>
</trkpt>
<trkpt lat="-27.274439" lon="151.290064">
  <ele>343.1</ele>
  <time>2026-09-01T19:57:12Z</time>
  <course>232.99</course>
  <speed>0.0</speed>
  <fix>3d</fix>
</trkpt>
<trkpt lat="-27.2744391" lon="151.2900641">
  <ele>343.06</ele>
  <time>2026-09-01T19:57:12Z</time>
  <course>10.64</course>
  <speed>0.022360679774997897</speed>
  <fix>3d</fix>
</trkpt>
<trkpt lat="-27.274439" lon="151.290064">
  <ele>343.1</ele>
  <time>2026-09-01T19:57:12Z</time>
  <course>232.99</course>
  <speed>0.0</speed>
  <fix>3d</fix>
</trkpt>
<trkpt lat="-27.2744391" lon="151.2900641">
  <ele>343.06</ele>
  <time>2026-09-01T19:57:12Z</time>
  <course>10.64</course>
  <speed>0.022360679774997897</speed>
  <fix>3d</fix>
</trkpt>
<trkpt lat="-27.274439" lon="151.290064">
  <ele>343.1</ele>
  <time>2026-09-01T19:57:12Z</time>
  <course>52.89</course>
  <speed>0.0</speed>
  <fix>3d</fix>
</trkpt>
<trkpt lat="-27.2744391" lon="151.2900641">
  <ele>343.06</ele>
  <time>2026-09-01T19:57:12Z</time>
  <course>10.64</course>
  <speed>0.022360679774997897</speed>
  <fix>3d</fix>
</trkpt>
<trkpt lat="-27.274439" lon="151.290064">
  <ele>343.1</ele>
  <time>2026-09-01T19:57:12Z</time>
  <course>52.89</course>
  <speed>0.0</speed>
  <fix>3d</fix>
</trkpt>
<trkpt lat="-27.2744391" lon="151.2900641">
  <ele>343.06</ele>
  <time>2026-09-01T19:57:12Z</time>
  <course>10.64</course>
  <speed>0.022360679774997897</speed>
  <fix>3d</fix>
</trkpt>
<trkpt lat="-27.274439" lon="151.290064">
  <ele>343.1</ele>
  <time>2026-09-01T19:57:12Z</time>
  <course>53.0</course>
  <speed>0.0</speed>
  <fix>3d</fix>
</trkpt>
<trkpt lat="-27.2744391" lon="151.2900641">
  <ele>343.06</ele>
  <time>2026-09-01T19:57:12Z</time>
  <course>10.64</course>
  <speed>0.022360679774997897</speed>
  <fix>3d</fix>
</trkpt>
<trkpt lat="-27.274439" lon="151.290064">
  <ele>343.1</ele>
  <time>2026-09-01T19:57:12Z</time>
  <course>53.0</course>
  <speed>0.0</speed>
  <fix>3d</fix>
</trkpt>
<trkpt lat="-27.2744391" lon="151.2900641">
  <ele>343.06</ele>
  <time>2026-09-01T19:57:12Z</time>
  <course>10.64</course>
  <speed>0.022360679774997897</speed>
  <fix>3d</fix>
</trkpt>
<trkpt lat="-27.274439" lon="151.290064">
  <ele>343.1</ele>
  <time>2026-09-01T19:57:12Z</time>
  <course>232.95</course>
  <speed>0.0</speed>
  <fix>3d</fix>
</trkpt>
<trkpt lat="-27.2744391" lon="151.2900641">
  <ele>343.05</ele>
  <time>2026-09-01T19:57:12Z</time>
  <course>10.64</course>
  <speed>0.022360679774997897</speed>
  <fix>3d</fix>
</trkpt>
<trkpt lat="-27.274439" lon="151.290064">
  <ele>343.1</ele>
  <time>2026-09-01T19:57:12Z</time>
  <course>232.95</course>
  <speed>0.0</speed>
  <fix>3d</fix>
</trkpt>
<trkpt lat="-27.2744391" lon="151.2900641">
  <ele>343.05</ele>
  <time>2026-09-01T19:57:12Z</time>
  <course>10.64</course>
  <speed>0.022360679774997897</speed>
  <fix>3d</fix>
</trkpt>
<trkpt lat="-27.274439" lon="151.290064">
  <ele>343.1</ele>
  <time>2026-09-01T19:57:12Z</time>
  <course>233.01</course>
  <speed>0.0</speed>
  <fix>3d</fix>
</trkpt>
<trkpt lat="-27.2744391" lon="151.2900641">
  <ele>343.05</ele>
  <time>2026-09-01T19:57:12Z</time>
  <course>10.64</course>
  <speed>0.022360679774997897</speed>
  <fix>3d</fix>
</trkpt>
<trkpt lat="-27.274439" lon="151.290064">
  <ele>343.1</ele>
  <time>2026-09-01T19:57:12Z</time>
  <course>233.01</course>
  <speed>0.0</speed>
  <fix>3d</fix>
</trkpt>
<trkpt lat="-27.2744391" lon="151.2900641">
  <ele>343.04</ele>
  <time>2026-09-01T19:57:12Z</time>
  <course>10.64</course>
  <speed>0.022360679774997897</speed>
  <fix>3d</fix>
</trkpt>
<trkpt lat="-27.274439" lon="151.290064">
  <ele>343.1</ele>
  <time>2026-09-01T19:57:12Z</time>
  <course>52.96</course>
  <speed>0.0</speed>
  <fix>3d</fix>
</trkpt>
<trkpt lat="-27.2744391" lon="151.2900641">
  <ele>343.04</ele>
  <time>2026-09-01T19:57:12Z</time>
  <course>10.64</course>
  <speed>0.022360679774997897</speed>
  <fix>3d</fix>
</trkpt>
<trkpt lat="-27.274439" lon="151.290064">
  <ele>343.1</ele>
  <time>2026-09-01T19:57:12Z</time>
  <course>52.96</course>
  <speed>0.0</speed>
  <fix>3d</fix>
</trkpt>
<trkpt lat="-27.2744391" lon="151.2900641">
  <ele>343.04</ele>
  <time>2026-09-01T19:57:12Z</time>
  <course>10.64</course>
  <speed>0.022360679774997897</speed>
  <fix>3d</fix>
</trkpt>
<trkpt lat="-27.274439" lon="151.290064">
  <ele>343.1</ele>
  <time>2026-09-01T19:57:12Z</time>
  <course>53.03</course>
  <speed>0.0</speed>
  <fix>3d</fix>
</trkpt>
<trkpt lat="-27.2744391" lon="151.2900641">
  <ele>343.04</ele>
  <time>2026-09-01T19:57:12Z</time>
  <course>10.64</course>
  <speed>0.022360679774997897</speed>
  <fix>3d</fix>
</trkpt>
<trkpt lat="-27.274439" lon="151.290064">
  <ele>343.1</ele>
  <time>2026-09-01T19:57:12Z</time>
  <course>53.03</course>
  <speed>0.0</speed>
  <fix>3d</fix>
</trkpt>
<trkpt lat="-27.2744391" lon="151.2900641">
  <ele>343.04</ele>
  <time>2026-09-01T19:57:12Z</time>
  <course>10.64</course>
  <speed>0.022360679774997897</speed>
  <fix>3d</fix>
</trkpt>
<trkpt lat="-27.274439" lon="151.290064">
  <ele>343.1</ele>
  <time>2026-09-01T19:57:12Z</time>
  <course>232.97</course>
  <speed>0.0</speed>
  <fix>3d</fix>
</trkpt>
<trkpt lat="-27.2744391" lon="151.2900641">
  <ele>343.04</ele>
  <time>2026-09-01T19:57:12Z</time>
  <course>10.64</course>
  <speed>0.022360679774997897</speed>
  <fix>3d</fix>
</trkpt>
<trkpt lat="-27.274439" lon="151.290064">
  <ele>343.1</ele>
  <time>2026-09-01T19:57:12Z</time>
  <course>232.97</course>
  <speed>0.0</speed>
  <fix>3d</fix>
</trkpt>
<trkpt lat="-27.2744391" lon="151.2900641">
  <ele>343.04</ele>
  <time>2026-09-01T19:57:12Z</time>
  <course>10.64</course>
  <speed>0.022360679774997897</speed>
  <fix>3d</fix>
</trkpt>
<trkpt lat="-27.274439" lon="151.290064">
  <ele>343.1</ele>
  <time>2026-09-01T19:57:12Z</time>
  <course>233.11</course>
  <speed>0.0</speed>
  <fix>3d</fix>
</trkpt>
<trkpt lat="-27.2744391" lon="151.2900641">
  <ele>343.03</ele>
  <time>2026-09-01T19:57:12Z</time>
  <course>10.64</course>
  <speed>0.022360679774997897</speed>
  <fix>3d</fix>
</trkpt>
<trkpt lat="-27.274439" lon="151.290064">
  <ele>343.1</ele>
  <time>2026-09-01T19:57:12Z</time>
  <course>233.11</course>
  <speed>0.0</speed>
  <fix>3d</fix>
</trkpt>
<trkpt lat="-27.2744391" lon="151.2900641">
  <ele>343.03</ele>
  <time>2026-09-01T19:57:12Z</time>
  <course>10.64</course>
  <speed>0.022360679774997897</speed>
  <fix>3d</fix>
</trkpt>
<trkpt lat="-27.274439" lon="151.290064">
  <ele>343.1</ele>
  <time>2026-09-01T19:57:12Z</time>
  <course>52.99</course>
  <speed>0.0</speed>
  <fix>3d</fix>
</trkpt>
<trkpt lat="-27.2744391" lon="151.2900641">
  <ele>343.03</ele>
  <time>2026-09-01T19:57:12Z</time>
  <course>10.64</course>
  <speed>0.022360679774997897</speed>
  <fix>3d</fix>
</trkpt>
<trkpt lat="-27.274439" lon="151.290064">
  <ele>343.1</ele>
  <time>2026-09-01T19:57:12Z</time>
  <course>52.99</course>
  <speed>0.0</speed>
  <fix>3d</fix>
</trkpt>
<trkpt lat="-27.2744391" lon="151.2900641">
  <ele>343.03</ele>
  <time>2026-09-01T19:57:12Z</time>
  <course>10.64</course>
  <speed>0.022360679774997897</speed>
  <fix>3d</fix>
</trkpt>
<trkpt lat="-27.274439" lon="151.290064">
  <ele>343.1</ele>
  <time>2026-09-01T19:57:12Z</time>
  <course>232.83</course>
  <speed>0.0</speed>
  <fix>3d</fix>
</trkpt>
<trkpt lat="-27.2744391" lon="151.2900641">
  <ele>343.02</ele>
  <time>2026-09-01T19:57:12Z</time>
  <course>10.64</course>
  <speed>0.022360679774997897</speed>
  <fix>3d</fix>
</trkpt>
<trkpt lat="-27.274439" lon="151.290064">
  <ele>343.1</ele>
  <time>2026-09-01T19:57:12Z</time>
  <course>232.83</course>
  <speed>0.0</speed>
  <fix>3d</fix>
</trkpt>
<trkpt lat="-27.2744391" lon="151.2900641">
  <ele>343.02</ele>
  <time>2026-09-01T19:57:12Z</time>
  <course>10.64</course>
  <speed>0.022360679774997897</speed>
  <fix>3d</fix>
</trkpt>
<trkpt lat="-27.274439" lon="151.290064">
  <ele>343.1</ele>
  <time>2026-09-01T19:57:12Z</time>
  <course>233.01</course>
  <speed>0.0</speed>
  <fix>3d</fix>
</trkpt>
<trkpt lat="-27.2744391" lon="151.2900641">
  <ele>343.02</ele>
  <time>2026-09-01T19:57:12Z</time>
  <course>10.64</course>
  <speed>0.022360679774997897</speed>
  <fix>3d</fix>
</trkpt>
<trkpt lat="-27.274439" lon="151.290064">
  <ele>343.1</ele>
  <time>2026-09-01T19:57:12Z</time>
  <course>233.01</course>
  <speed>0.0</speed>
  <fix>3d</fix>
</trkpt>
<trkpt lat="-27.2744391" lon="151.2900641">
  <ele>343.02</ele>
  <time>2026-09-01T19:57:12Z</time>
  <course>10.64</course>
  <speed>0.01414213562373095</speed>
  <fix>3d</fix>
</trkpt>
<trkpt lat="-27.274439" lon="151.290064">
  <ele>343.1</ele>
  <time>2026-09-01T19:57:12Z</time>
  <course>53.12</course>
  <speed>0.0</speed>
  <fix>3d</fix>
</trkpt>
<trkpt lat="-27.2744391" lon="151.2900641">
  <ele>343.02</ele>
  <time>2026-09-01T19:57:12Z</time>
  <course>10.64</course>
  <speed>0.022360679774997897</speed>
  <fix>3d</fix>
</trkpt>
<trkpt lat="-27.274439" lon="151.290064">
  <ele>343.1</ele>
  <time>2026-09-01T19:57:12Z</time>
  <course>53.12</course>
  <speed>0.0</speed>
  <fix>3d</fix>
</trkpt>
<trkpt lat="-27.2744391" lon="151.2900641">
  <ele>343.02</ele>
  <time>2026-09-01T19:57:12Z</time>
  <course>10.64</course>
  <speed>0.01414213562373095</speed>
  <fix>3d</fix>
</trkpt>
<trkpt lat="-27.274439" lon="151.290064">
  <ele>343.1</ele>
  <time>2026-09-01T19:57:12Z</time>
  <course>53.55</course>
  <speed>0.0</speed>
  <fix>3d</fix>
</trkpt>
<trkpt lat="-27.2744391" lon="151.2900641">
  <ele>343.02</ele>
  <time>2026-09-01T19:57:12Z</time>
  <course>10.64</course>
  <speed>0.022360679774997897</speed>
  <fix>3d</fix>
</trkpt>
<trkpt lat="-27.274439" lon="151.290064">
  <ele>343.1</ele>
  <time>2026-09-01T19:57:12Z</time>
  <course>53.55</course>
  <speed>0.0</speed>
  <fix>3d</fix>
</trkpt>
<trkpt lat="-27.2744391" lon="151.2900641">
  <ele>343.02</ele>
  <time>2026-09-01T19:57:12Z</time>
  <course>10.64</course>
  <speed>0.01414213562373095</speed>
  <fix>3d</fix>
</trkpt>
<trkpt lat="-27.274439" lon="151.290064">
  <ele>343.1</ele>
  <time>2026-09-01T19:57:12Z</time>
  <course>236.3</course>
  <speed>0.0</speed>
  <fix>3d</fix>
</trkpt>
<trkpt lat="-27.2744391" lon="151.2900641">
  <ele>343.02</ele>
  <time>2026-09-01T19:57:12Z</time>
  <course>10.64</course>
  <speed>0.022360679774997897</speed>
  <fix>3d</fix>
</trkpt>
<trkpt lat="-27.274439" lon="151.290064">
  <ele>343.1</ele>
  <time>2026-09-01T19:57:12Z</time>
  <course>236.3</course>
  <speed>0.0</speed>
  <fix>3d</fix>
</trkpt>
<trkpt lat="-27.2744391" lon="151.2900641">
  <ele>343.02</ele>
  <time>2026-09-01T19:57:12Z</time>
  <course>10.64</course>
  <speed>0.01414213562373095</speed>
  <fix>3d</fix>
</trkpt>
<trkpt lat="-27.274439" lon="151.290064">
  <ele>343.1</ele>
  <time>2026-09-01T19:57:12Z</time>
  <course>241.56</course>
  <speed>0.0</speed>
  <fix>3d</fix>
</trkpt>
<trkpt lat="-27.2744391" lon="151.2900641">
  <ele>343.02</ele>
  <time>2026-09-01T19:57:12Z</time>
  <course>10.64</course>
  <speed>0.022360679774997897</speed>
  <fix>3d</fix>
</trkpt>
<trkpt lat="-27.274439" lon="151.290064">
  <ele>343.1</ele>
  <time>2026-09-01T19:57:12Z</time>
  <course>241.56</course>
  <speed>0.0</speed>
  <fix>3d</fix>
</trkpt>
<trkpt lat="-27.2744391" lon="151.2900641">
  <ele>343.01</ele>
  <time>2026-09-01T19:57:12Z</time>
  <course>10.64</course>
  <speed>0.01414213562373095</speed>
  <fix>3d</fix>
</trkpt>
<trkpt lat="-27.274439" lon="151.290064">
  <ele>343.1</ele>
  <time>2026-09-01T19:57:12Z</time>
  <course>48.62</course>
  <speed>0.0</speed>
  <fix>3d</fix>
</trkpt>
<trkpt lat="-27.2744391" lon="151.2900641">
  <ele>343.01</ele>
  <time>2026-09-01T19:57:12Z</time>
  <course>10.64</course>
  <speed>0.022360679774997897</speed>
  <fix>3d</fix>
</trkpt>
<trkpt lat="-27.274439" lon="151.290064">
  <ele>343.1</ele>
  <time>2026-09-01T19:57:12Z</time>
  <course>48.62</course>
  <speed>0.0</speed>
  <fix>3d</fix>
</trkpt>
<trkpt lat="-27.2744391" lon="151.2900641">
  <ele>343.01</ele>
  <time>2026-09-01T19:57:12Z</time>
  <course>10.64</course>
  <speed>0.022360679774997897</speed>
  <fix>3d</fix>
</trkpt>
<trkpt lat="-27.274439" lon="151.290064">
  <ele>343.1</ele>
  <time>2026-09-01T19:57:12Z</time>
  <course>4.35</course>
  <speed>0.0</speed>
  <fix>3d</fix>
</trkpt>
<trkpt lat="-27.2744391" lon="151.2900641">
  <ele>343.01</ele>
  <time>2026-09-01T19:57:12Z</time>
  <course>10.64</course>
  <speed>0.022360679774997897</speed>
  <fix>3d</fix>
</trkpt>
<trkpt lat="-27.274439" lon="151.290064">
  <ele>343.1</ele>
  <time>2026-09-01T19:57:12Z</time>
  <course>4.35</course>
  <speed>0.0</speed>
  <fix>3d</fix>
</trkpt>
<trkpt lat="-27.2744391" lon="151.2900641">
  <ele>343.01</ele>
  <time>2026-09-01T19:57:12Z</time>
  <course>10.64</course>
  <speed>0.022360679774997897</speed>
  <fix>3d</fix>
</trkpt>
<trkpt lat="-27.274439" lon="151.290064">
  <ele>343.1</ele>
  <time>2026-09-01T19:57:12Z</time>
  <course>344.13</course>
  <speed>0.0</speed>
  <fix>3d</fix>
</trkpt>
<trkpt lat="-27.2744391" lon="151.2900641">
  <ele>343.0</ele>
  <time>2026-09-01T19:57:12Z</time>
  <course>10.64</course>
  <speed>0.022360679774997897</speed>
  <fix>3d</fix>
</trkpt>
<trkpt lat="-27.274439" lon="151.290064">
  <ele>343.1</ele>
  <time>2026-09-01T19:57:12Z</time>
  <course>344.13</course>
  <speed>0.0</speed>
  <fix>3d</fix>
</trkpt>
<trkpt lat="-27.2744391" lon="151.2900641">
  <ele>343.09</ele>
  <time>2026-09-01T19:57:12Z</time>
  <course>10.64</course>
  <speed>0.022360679774997897</speed>
  <fix>3d</fix>
</trkpt>
<trkpt lat="-27.274439" lon="151.290064">
  <ele>343.1</ele>
  <time>2026-09-01T19:57:12Z</time>
  <course>341.68</course>
  <speed>0.0</speed>
  <fix>3d</fix>
</trkpt>
<trkpt lat="-27.2744391" lon="151.2900641">
  <ele>343.09</ele>
  <time>2026-09-01T19:57:12Z</time>
  <course>10.64</course>
  <speed>0.022360679774997897</speed>
  <fix>3d</fix>
</trkpt>
<trkpt lat="-27.274439" lon="151.290064">
  <ele>343.1</ele>
  <time>2026-09-01T19:57:12Z</time>
  <course>341.68</course>
  <speed>0.0</speed>
  <fix>3d</fix>
</trkpt>
<trkpt lat="-27.2744391" lon="151.2900641">
  <ele>343.09</ele>
  <time>2026-09-01T19:57:12Z</time>
  <course>10.64</course>
  <speed>0.022360679774997897</speed>
  <fix>3d</fix>
</trkpt>
<trkpt lat="-27.274439" lon="151.290064">
  <ele>343.1</ele>
  <time>2026-09-01T19:57:12Z</time>
  <course>341.36</course>
  <speed>0.0</speed>
  <fix>3d</fix>
</trkpt>
<trkpt lat="-27.2744391" lon="151.2900641">
  <ele>343.09</ele>
  <time>2026-09-01T19:57:12Z</time>
  <course>10.64</course>
  <speed>0.022360679774997897</speed>
  <fix>3d</fix>
</trkpt>
<trkpt lat="-27.274439" lon="151.290064">
  <ele>343.1</ele>
  <time>2026-09-01T19:57:12Z</time>
  <course>341.36</course>
  <speed>0.0</speed>
  <fix>3d</fix>
</trkpt>
<trkpt lat="-27.2744391" lon="151.2900641">
  <ele>343.09</ele>
  <time>2026-09-01T19:57:12Z</time>
  <course>10.64</course>
  <speed>0.022360679774997897</speed>
  <fix>3d</fix>
</trkpt>
<trkpt lat="-27.274439" lon="151.290064">
  <ele>343.1</ele>
  <time>2026-09-01T19:57:12Z</time>
  <course>341.31</course>
  <speed>0.0</speed>
  <fix>3d</fix>
</trkpt>
<trkpt lat="-27.2744391" lon="151.2900641">
  <ele>343.1</ele>
  <time>2026-09-01T19:57:12Z</time>
  <course>10.64</course>
  <speed>0.022360679774997897</speed>
  <fix>3d</fix>
</trkpt>
<trkpt lat="-27.274439" lon="151.290064">
  <ele>343.1</ele>
  <time>2026-09-01T19:57:12Z</time>
  <course>341.31</course>
  <speed>0.0</speed>
  <fix>3d</fix>
</trkpt>
<trkpt lat="-27.2744391" lon="151.2900641">
  <ele>343.1</ele>
  <time>2026-09-01T19:57:12Z</time>
  <course>10.64</course>
  <speed>0.022360679774997897</speed>
  <fix>3d</fix>
</trkpt>
<trkpt lat="-27.274439" lon="151.290064">
  <ele>343.1</ele>
  <time>2026-09-01T19:57:12Z</time>
  <course>341.31</course>
  <speed>0.0</speed>
  <fix>3d</fix>
</trkpt>
<trkpt lat="-27.2744391" lon="151.2900641">
  <ele>343.1</ele>
  <time>2026-09-01T19:57:12Z</time>
  <course>10.64</course>
  <speed>0.022360679774997897</speed>
  <fix>3d</fix>
</trkpt>
<trkpt lat="-27.274439" lon="151.290064">
  <ele>343.1</ele>
  <time>2026-09-01T19:57:12Z</time>
  <course>341.31</course>
  <speed>0.0</speed>
  <fix>3d</fix>
</trkpt>
<trkpt lat="-27.2744391" lon="151.2900641">
  <ele>343.11</ele>
  <time>2026-09-01T19:57:12Z</time>
  <course>10.64</course>
  <speed>0.022360679774997897</speed>
  <fix>3d</fix>
</trkpt>
<trkpt lat="-27.274439" lon="151.290064">
  <ele>343.1</ele>
  <time>2026-09-01T19:57:12Z</time>
  <course>341.31</course>
  <speed>0.0</speed>
  <fix>3d</fix>
</trkpt>
<trkpt lat="-27.2744391" lon="151.2900641">
  <ele>343.11</ele>
  <time>2026-09-01T19:57:12Z</time>
  <course>10.64</course>
  <speed>0.022360679774997897</speed>
  <fix>3d</fix>
</trkpt>
<trkpt lat="-27.274439" lon="151.290064">
  <ele>343.1</ele>
  <time>2026-09-01T19:57:12Z</time>
  <course>341.31</course>
  <speed>0.0</speed>
  <fix>3d</fix>
</trkpt>
<trkpt lat="-27.2744391" lon="151.2900641">
  <ele>343.12</ele>
  <time>2026-09-01T19:57:12Z</time>
  <course>10.64</course>
  <speed>0.022360679774997897</speed>
  <fix>3d</fix>
</trkpt>
<trkpt lat="-27.274439" lon="151.290064">
  <ele>343.1</ele>
  <time>2026-09-01T19:57:12Z</time>
  <course>341.31</course>
  <speed>0.0</speed>
  <fix>3d</fix>
</trkpt>
<trkpt lat="-27.2744391" lon="151.2900641">
  <ele>343.12</ele>
  <time>2026-09-01T19:57:12Z</time>
  <course>10.64</course>
  <speed>0.022360679774997897</speed>
  <fix>3d</fix>
</trkpt>
<trkpt lat="-27.274439" lon="151.290064">
  <ele>343.1</ele>
  <time>2026-09-01T19:57:12Z</time>
  <course>341.31</course>
  <speed>0.0</speed>
  <fix>3d</fix>
</trkpt>
<trkpt lat="-27.2744391" lon="151.2900641">
  <ele>343.12</ele>
  <time>2026-09-01T19:57:12Z</time>
  <course>10.64</course>
  <speed>0.022360679774997897</speed>
  <fix>3d</fix>
</trkpt>
<trkpt lat="-27.274439" lon="151.290064">
  <ele>343.1</ele>
  <time>2026-09-01T19:57:12Z</time>
  <course>341.31</course>
  <speed>0.0</speed>
  <fix>3d</fix>
</trkpt>
<trkpt lat="-27.2744391" lon="151.2900641">
  <ele>343.13</ele>
  <time>2026-09-01T19:57:12Z</time>
  <course>10.64</course>
  <speed>0.022360679774997897</speed>
  <fix>3d</fix>
</trkpt>
<trkpt lat="-27.274439" lon="151.290064">
  <ele>343.1</ele>
  <time>2026-09-01T19:57:12Z</time>
  <course>341.31</course>
  <speed>0.0</speed>
  <fix>3d</fix>
</trkpt>
<trkpt lat="-27.2744391" lon="151.2900641">
  <ele>343.13</ele>
  <time>2026-09-01T19:57:12Z</time>
  <course>10.64</course>
  <speed>0.022360679774997897</speed>
  <fix>3d</fix>
</trkpt>
<trkpt lat="-27.274439" lon="151.290064">
  <ele>343.1</ele>
  <time>2026-09-01T19:57:12Z</time>
  <course>341.31</course>
  <speed>0.0</speed>
  <fix>3d</fix>
</trkpt>
<trkpt lat="-27.2744391" lon="151.2900641">
  <ele>343.13</ele>
  <time>2026-09-01T19:57:12Z</time>
  <course>10.64</course>
  <speed>0.022360679774997897</speed>
  <fix>3d</fix>
</trkpt>
<trkpt lat="-27.274439" lon="151.290064">
  <ele>343.1</ele>
  <time>2026-09-01T19:57:12Z</time>
  <course>341.31</course>
  <speed>0.0</speed>
  <fix>3d</fix>
</trkpt>
<trkpt lat="-27.2744391" lon="151.2900641">
  <ele>343.13</ele>
  <time>2026-09-01T19:57:12Z</time>
  <course>10.64</course>
  <speed>0.022360679774997897</speed>
  <fix>3d</fix>
</trkpt>
<trkpt lat="-27.274439" lon="151.290064">
  <ele>343.1</ele>
  <time>2026-09-01T19:57:12Z</time>
  <course>341.31</course>
  <speed>0.0</speed>
  <fix>3d</fix>
</trkpt>
<trkpt lat="-27.2744391" lon="151.2900641">
  <ele>343.14</ele>
  <time>2026-09-01T19:57:12Z</time>
  <course>10.64</course>
  <speed>0.022360679774997897</speed>
  <fix>3d</fix>
</trkpt>
<trkpt lat="-27.274439" lon="151.290064">
  <ele>343.1</ele>
  <time>2026-09-01T19:57:12Z</time>
  <course>341.31</course>
  <speed>0.0</speed>
  <fix>3d</fix>
</trkpt>
<trkpt lat="-27.2744391" lon="151.2900641">
  <ele>343.14</ele>
  <time>2026-09-01T19:57:12Z</time>
  <course>10.64</course>
  <speed>0.022360679774997897</speed>
  <fix>3d</fix>
</trkpt>
<trkpt lat="-27.274439" lon="151.290064">
  <ele>343.1</ele>
  <time>2026-09-01T19:57:12Z</time>
  <course>341.31</course>
  <speed>0.0</speed>
  <fix>3d</fix>
</trkpt>
<trkpt lat="-27.2744391" lon="151.2900641">
  <ele>343.14</ele>
  <time>2026-09-01T19:57:12Z</time>
  <course>10.64</course>
  <speed>0.022360679774997897</speed>
  <fix>3d</fix>
</trkpt>
<trkpt lat="-27.274439" lon="151.290064">
  <ele>343.1</ele>
  <time>2026-09-01T19:57:12Z</time>
  <course>341.31</course>
  <speed>0.0</speed>
  <fix>3d</fix>
</trkpt>
<trkpt lat="-27.2744391" lon="151.2900641">
  <ele>343.15</ele>
  <time>2026-09-01T19:57:12Z</time>
  <course>10.64</course>
  <speed>0.022360679774997897</speed>
  <fix>3d</fix>
</trkpt>
<trkpt lat="-27.274439" lon="151.290064">
  <ele>343.1</ele>
  <time>2026-09-01T19:57:12Z</time>
  <course>341.31</course>
  <speed>0.0</speed>
  <fix>3d</fix>
</trkpt>
<trkpt lat="-27.2744391" lon="151.2900641">
  <ele>343.16</ele>
  <time>2026-09-01T19:57:12Z</time>
  <course>10.64</course>
  <speed>0.022360679774997897</speed>
  <fix>3d</fix>
</trkpt>
<trkpt lat="-27.274439" lon="151.290064">
  <ele>343.1</ele>
  <time>2026-09-01T19:57:12Z</time>
  <course>341.31</course>
  <speed>0.0</speed>
  <fix>3d</fix>
</trkpt>
<trkpt lat="-27.2744391" lon="151.2900641">
  <ele>343.16</ele>
  <time>2026-09-01T19:57:12Z</time>
  <course>10.64</course>
  <speed>0.022360679774997897</speed>
  <fix>3d</fix>
</trkpt>
<trkpt lat="-27.274439" lon="151.290064">
  <ele>343.1</ele>
  <time>2026-09-01T19:57:12Z</time>
  <course>341.31</course>
  <speed>0.0</speed>
  <fix>3d</fix>
</trkpt>
<trkpt lat="-27.2744391" lon="151.2900641">
  <ele>343.16</ele>
  <time>2026-09-01T19:57:12Z</time>
  <course>10.64</course>
  <speed>0.022360679774997897</speed>
  <fix>3d</fix>
</trkpt>
<trkpt lat="-27.274439" lon="151.290064">
  <ele>343.1</ele>
  <time>2026-09-01T19:57:12Z</time>
  <course>341.31</course>
  <speed>0.0</speed>
  <fix>3d</fix>
</trkpt>
<trkpt lat="-27.2744391" lon="151.2900641">
  <ele>343.17</ele>
  <time>2026-09-01T19:57:12Z</time>
  <course>10.64</course>
  <speed>0.022360679774997897</speed>
  <fix>3d</fix>
</trkpt>
<trkpt lat="-27.274439" lon="151.290064">
  <ele>343.1</ele>
  <time>2026-09-01T19:57:12Z</time>
  <course>341.31</course>
  <speed>0.0</speed>
  <fix>3d</fix>
</trkpt>
<trkpt lat="-27.2744391" lon="151.2900641">
  <ele>343.17</ele>
  <time>2026-09-01T19:57:12Z</time>
  <course>10.64</course>
  <speed>0.022360679774997897</speed>
  <fix>3d</fix>
</trkpt>
<trkpt lat="-27.274439" lon="151.290064">
  <ele>343.1</ele>
  <time>2026-09-01T19:57:12Z</time>
  <course>341.31</course>
  <speed>0.0</speed>
  <fix>3d</fix>
</trkpt>
<trkpt lat="-27.2744391" lon="151.2900641">
  <ele>343.18</ele>
  <time>2026-09-01T19:57:12Z</time>
  <course>10.64</course>
  <speed>0.022360679774997897</speed>
  <fix>3d</fix>
</trkpt>
<trkpt lat="-27.274439" lon="151.290064">
  <ele>343.1</ele>
  <time>2026-09-01T19:57:12Z</time>
  <course>341.31</course>
  <speed>0.0</speed>
  <fix>3d</fix>
</trkpt>
<trkpt lat="-27.2744391" lon="151.2900641">
  <ele>343.18</ele>
  <time>2026-09-01T19:57:12Z</time>
  <course>10.64</course>
  <speed>0.022360679774997897</speed>
  <fix>3d</fix>
</trkpt>
<trkpt lat="-27.274439" lon="151.290064">
  <ele>343.1</ele>
  <time>2026-09-01T19:57:12Z</time>
  <course>341.31</course>
  <speed>0.0</speed>
  <fix>3d</fix>
</trkpt>
<trkpt lat="-27.2744391" lon="151.2900641">
  <ele>343.18</ele>
  <time>2026-09-01T19:57:12Z</time>
  <course>10.64</course>
  <speed>0.022360679774997897</speed>
  <fix>3d</fix>
</trkpt>
<trkpt lat="-27.274439" lon="151.290064">
  <ele>343.1</ele>
  <time>2026-09-01T19:57:12Z</time>
  <course>341.31</course>
  <speed>0.0</speed>
  <fix>3d</fix>
</trkpt>
<trkpt lat="-27.2744391" lon="151.2900641">
  <ele>343.18</ele>
  <time>2026-09-01T19:57:12Z</time>
  <course>10.64</course>
  <speed>0.022360679774997897</speed>
  <fix>3d</fix>
</trkpt>
<trkpt lat="-27.274439" lon="151.290064">
  <ele>343.1</ele>
  <time>2026-09-01T19:57:12Z</time>
  <course>341.31</course>
  <speed>0.0</speed>
  <fix>3d</fix>
</trkpt>
<trkpt lat="-27.2744391" lon="151.2900641">
  <ele>343.18</ele>
  <time>2026-09-01T19:57:12Z</time>
  <course>10.64</course>
  <speed>0.022360679774997897</speed>
  <fix>3d</fix>
</trkpt>
<trkpt lat="-27.274439" lon="151.290064">
  <ele>343.1</ele>
  <time>2026-09-01T19:57:12Z</time>
  <course>341.31</course>
  <speed>0.0</speed>
  <fix>3d</fix>
</trkpt>
<trkpt lat="-27.2744392" lon="151.2900641">
  <ele>343.19</ele>
  <time>2026-09-01T19:57:12Z</time>
  <course>10.64</course>
  <speed>0.022360679774997897</speed>
  <fix>3d</fix>
</trkpt>
<trkpt lat="-27.274439" lon="151.290064">
  <ele>343.1</ele>
  <time>2026-09-01T19:57:12Z</time>
  <course>341.31</course>
  <speed>0.0</speed>
  <fix>3d</fix>
</trkpt>
<trkpt lat="-27.2744392" lon="151.2900641">
  <ele>343.19</ele>
  <time>2026-09-01T19:57:12Z</time>
  <course>10.64</course>
  <speed>0.022360679774997897</speed>
  <fix>3d</fix>
</trkpt>
<trkpt lat="-27.274439" lon="151.290064">
  <ele>343.1</ele>
  <time>2026-09-01T19:57:12Z</time>
  <course>341.31</course>
  <speed>0.0</speed>
  <fix>3d</fix>
</trkpt>
<trkpt lat="-27.2744392" lon="151.2900641">
  <ele>343.19</ele>
  <time>2026-09-01T19:57:12Z</time>
  <course>10.64</course>
  <speed>0.022360679774997897</speed>
  <fix>3d</fix>
</trkpt>
<trkpt lat="-27.274439" lon="151.290064">
  <ele>343.1</ele>
  <time>2026-09-01T19:57:12Z</time>
  <course>341.31</course>
  <speed>0.0</speed>
  <fix>3d</fix>
</trkpt>
<trkpt lat="-27.2744392" lon="151.2900641">
  <ele>343.19</ele>
  <time>2026-09-01T19:57:12Z</time>
  <course>10.64</course>
  <speed>0.022360679774997897</speed>
  <fix>3d</fix>
</trkpt>
<trkpt lat="-27.274439" lon="151.290064">
  <ele>343.1</ele>
  <time>2026-09-01T19:57:12Z</time>
  <course>341.31</course>
  <speed>0.0</speed>
  <fix>3d</fix>
</trkpt>
<trkpt lat="-27.2744392" lon="151.2900641">
  <ele>343.19</ele>
  <time>2026-09-01T19:57:12Z</time>
  <course>10.64</course>
  <speed>0.022360679774997897</speed>
  <fix>3d</fix>
</trkpt>
<trkpt lat="-27.274439" lon="151.290064">
  <ele>343.1</ele>
  <time>2026-09-01T19:57:12Z</time>
  <course>341.31</course>
  <speed>0.0</speed>
  <fix>3d</fix>
</trkpt>
<trkpt lat="-27.2744392" lon="151.2900641">
  <ele>343.19</ele>
  <time>2026-09-01T19:57:12Z</time>
  <course>10.64</course>
  <speed>0.022360679774997897</speed>
  <fix>3d</fix>
</trkpt>
<trkpt lat="-27.274439" lon="151.290064">
  <ele>343.1</ele>
  <time>2026-09-01T19:57:12Z</time>
  <course>341.31</course>
  <speed>0.0</speed>
  <fix>3d</fix>
</trkpt>
<trkpt lat="-27.2744392" lon="151.2900641">
  <ele>343.19</ele>
  <time>2026-09-01T19:57:12Z</time>
  <course>10.64</course>
  <speed>0.022360679774997897</speed>
  <fix>3d</fix>
</trkpt>
<trkpt lat="-27.274439" lon="151.290064">
  <ele>343.1</ele>
  <time>2026-09-01T19:57:12Z</time>
  <course>341.31</course>
  <speed>0.0</speed>
  <fix>3d</fix>
</trkpt>
<trkpt lat="-27.2744392" lon="151.2900641">
  <ele>343.19</ele>
  <time>2026-09-01T19:57:12Z</time>
  <course>10.64</course>
  <speed>0.022360679774997897</speed>
  <fix>3d</fix>
</trkpt>
<trkpt lat="-27.274439" lon="151.290064">
  <ele>343.1</ele>
  <time>2026-09-01T19:57:12Z</time>
  <course>341.31</course>
  <speed>0.0</speed>
  <fix>3d</fix>
</trkpt>
<trkpt lat="-27.2744392" lon="151.2900641">
  <ele>343.19</ele>
  <time>2026-09-01T19:57:12Z</time>
  <course>10.64</course>
  <speed>0.022360679774997897</speed>
  <fix>3d</fix>
</trkpt>
<trkpt lat="-27.274439" lon="151.290064">
  <ele>343.1</ele>
  <time>2026-09-01T19:57:12Z</time>
  <course>341.31</course>
  <speed>0.0</speed>
  <fix>3d</fix>
</trkpt>
<trkpt lat="-27.2744392" lon="151.2900641">
  <ele>343.2</ele>
  <time>2026-09-01T19:57:12Z</time>
  <course>10.64</course>
  <speed>0.022360679774997897</speed>
  <fix>3d</fix>
</trkpt>
<trkpt lat="-27.274439" lon="151.290064">
  <ele>343.1</ele>
  <time>2026-09-01T19:57:12Z</time>
  <course>341.31</course>
  <speed>0.0</speed>
  <fix>3d</fix>
</trkpt>
<trkpt lat="-27.2744392" lon="151.2900641">
  <ele>343.2</ele>
  <time>2026-09-01T19:57:12Z</time>
  <course>10.64</course>
  <speed>0.022360679774997897</speed>
  <fix>3d</fix>
</trkpt>
<trkpt lat="-27.274439" lon="151.290064">
  <ele>343.1</ele>
  <time>2026-09-01T19:57:12Z</time>
  <course>341.31</course>
  <speed>0.0</speed>
  <fix>3d</fix>
</trkpt>
<trkpt lat="-27.2744392" lon="151.2900641">
  <ele>343.2</ele>
  <time>2026-09-01T19:57:12Z</time>
  <course>10.64</course>
  <speed>0.022360679774997897</speed>
  <fix>3d</fix>
</trkpt>
<trkpt lat="-27.274439" lon="151.290064">
  <ele>343.1</ele>
  <time>2026-09-01T19:57:12Z</time>
  <course>341.31</course>
  <speed>0.0</speed>
  <fix>3d</fix>
</trkpt>
<trkpt lat="-27.2744392" lon="151.2900641">
  <ele>343.2</ele>
  <time>2026-09-01T19:57:12Z</time>
  <course>10.64</course>
  <speed>0.022360679774997897</speed>
  <fix>3d</fix>
</trkpt>
<trkpt lat="-27.274439" lon="151.290064">
  <ele>343.1</ele>
  <time>2026-09-01T19:57:12Z</time>
  <course>341.31</course>
  <speed>0.0</speed>
  <fix>3d</fix>
</trkpt>
<trkpt lat="-27.2744392" lon="151.2900641">
  <ele>343.2</ele>
  <time>2026-09-01T19:57:12Z</time>
  <course>10.64</course>
  <speed>0.022360679774997897</speed>
  <fix>3d</fix>
</trkpt>
<trkpt lat="-27.274439" lon="151.290064">
  <ele>343.1</ele>
  <time>2026-09-01T19:57:12Z</time>
  <course>341.31</course>
  <speed>0.0</speed>
  <fix>3d</fix>
</trkpt>
<trkpt lat="-27.2744392" lon="151.2900641">
  <ele>343.2</ele>
  <time>2026-09-01T19:57:13Z</time>
  <course>10.64</course>
  <speed>0.022360679774997897</speed>
  <fix>3d</fix>
</trkpt>
<trkpt lat="-27.274439" lon="151.290064">
  <ele>343.1</ele>
  <time>2026-09-01T19:57:13Z</time>
  <course>341.31</course>
  <speed>0.0</speed>
  <fix>3d</fix>
</trkpt>
<trkpt lat="-27.2744392" lon="151.2900641">
  <ele>343.2</ele>
  <time>2026-09-01T19:57:13Z</time>
  <course>10.64</course>
  <speed>0.022360679774997897</speed>
  <fix>3d</fix>
</trkpt>
<trkpt lat="-27.274439" lon="151.290064">
  <ele>343.1</ele>
  <time>2026-09-01T19:57:13Z</time>
  <course>341.31</course>
  <speed>0.0</speed>
  <fix>3d</fix>
</trkpt>
<trkpt lat="-27.2744392" lon="151.2900641">
  <ele>343.2</ele>
  <time>2026-09-01T19:57:13Z</time>
  <course>10.64</course>
  <speed>0.022360679774997897</speed>
  <fix>3d</fix>
</trkpt>
<trkpt lat="-27.274439" lon="151.290064">
  <ele>343.1</ele>
  <time>2026-09-01T19:57:13Z</time>
  <course>341.31</course>
  <speed>0.0</speed>
  <fix>3d</fix>
</trkpt>
<trkpt lat="-27.2744392" lon="151.2900641">
  <ele>343.2</ele>
  <time>2026-09-01T19:57:13Z</time>
  <course>10.64</course>
  <speed>0.022360679774997897</speed>
  <fix>3d</fix>
</trkpt>
<trkpt lat="-27.274439" lon="151.290064">
  <ele>343.1</ele>
  <time>2026-09-01T19:57:13Z</time>
  <course>341.31</course>
  <speed>0.0</speed>
  <fix>3d</fix>
</trkpt>
<trkpt lat="-27.2744392" lon="151.2900641">
  <ele>343.2</ele>
  <time>2026-09-01T19:57:13Z</time>
  <course>10.64</course>
  <speed>0.022360679774997897</speed>
  <fix>3d</fix>
</trkpt>
<trkpt lat="-27.274439" lon="151.290064">
  <ele>343.1</ele>
  <time>2026-09-01T19:57:13Z</time>
  <course>341.31</course>
  <speed>0.0</speed>
  <fix>3d</fix>
</trkpt>
<trkpt lat="-27.2744392" lon="151.2900641">
  <ele>343.2</ele>
  <time>2026-09-01T19:57:13Z</time>
  <course>10.64</course>
  <speed>0.022360679774997897</speed>
  <fix>3d</fix>
</trkpt>
<trkpt lat="-27.274439" lon="151.290064">
  <ele>343.1</ele>
  <time>2026-09-01T19:57:13Z</time>
  <course>341.31</course>
  <speed>0.0</speed>
  <fix>3d</fix>
</trkpt>
<trkpt lat="-27.2744392" lon="151.2900641">
  <ele>343.19</ele>
  <time>2026-09-01T19:57:13Z</time>
  <course>10.64</course>
  <speed>0.022360679774997897</speed>
  <fix>3d</fix>
</trkpt>
<trkpt lat="-27.274439" lon="151.290064">
  <ele>343.1</ele>
  <time>2026-09-01T19:57:13Z</time>
  <course>341.31</course>
  <speed>0.0</speed>
  <fix>3d</fix>
</trkpt>
<trkpt lat="-27.2744392" lon="151.2900641">
  <ele>343.19</ele>
  <time>2026-09-01T19:57:13Z</time>
  <course>10.64</course>
  <speed>0.022360679774997897</speed>
  <fix>3d</fix>
</trkpt>
<trkpt lat="-27.274439" lon="151.290064">
  <ele>343.1</ele>
  <time>2026-09-01T19:57:13Z</time>
  <course>341.31</course>
  <speed>0.0</speed>
  <fix>3d</fix>
</trkpt>
<trkpt lat="-27.2744392" lon="151.2900641">
  <ele>343.19</ele>
  <time>2026-09-01T19:57:13Z</time>
  <course>10.64</course>
  <speed>0.022360679774997897</speed>
  <fix>3d</fix>
</trkpt>
<trkpt lat="-27.274439" lon="151.290064">
  <ele>343.1</ele>
  <time>2026-09-01T19:57:13Z</time>
  <course>341.31</course>
  <speed>0.0</speed>
  <fix>3d</fix>
</trkpt>
<trkpt lat="-27.2744392" lon="151.2900641">
  <ele>343.09</ele>
  <time>2026-09-01T19:57:13Z</time>
  <course>10.64</course>
  <speed>0.022360679774997897</speed>
  <fix>3d</fix>
</trkpt>
<trkpt lat="-27.274439" lon="151.290064">
  <ele>343.1</ele>
  <time>2026-09-01T19:57:13Z</time>
  <course>341.31</course>
  <speed>0.0</speed>
  <fix>3d</fix>
</trkpt>
<trkpt lat="-27.2744392" lon="151.2900641">
  <ele>343.1</ele>
  <time>2026-09-01T19:57:13Z</time>
  <course>10.64</course>
  <speed>0.022360679774997897</speed>
  <fix>3d</fix>
</trkpt>
<trkpt lat="-27.274439" lon="151.290064">
  <ele>343.1</ele>
  <time>2026-09-01T19:57:13Z</time>
  <course>341.31</course>
  <speed>0.0</speed>
  <fix>3d</fix>
</trkpt>
<trkpt lat="-27.2744392" lon="151.2900641">
  <ele>343.1</ele>
  <time>2026-09-01T19:57:13Z</time>
  <course>10.64</course>
  <speed>0.022360679774997897</speed>
  <fix>3d</fix>
</trkpt>
<trkpt lat="-27.274439" lon="151.290064">
  <ele>343.1</ele>
  <time>2026-09-01T19:57:13Z</time>
  <course>341.31</course>
  <speed>0.0</speed>
  <fix>3d</fix>
</trkpt>
<trkpt lat="-27.2744392" lon="151.2900641">
  <ele>343.1</ele>
  <time>2026-09-01T19:57:13Z</time>
  <course>10.64</course>
  <speed>0.022360679774997897</speed>
  <fix>3d</fix>
</trkpt>
<trkpt lat="-27.274439" lon="151.290064">
  <ele>343.1</ele>
  <time>2026-09-01T19:57:13Z</time>
  <course>341.31</course>
  <speed>0.0</speed>
  <fix>3d</fix>
</trkpt>
<trkpt lat="-27.2744392" lon="151.2900641">
  <ele>343.1</ele>
  <time>2026-09-01T19:57:13Z</time>
  <course>10.64</course>
  <speed>0.022360679774997897</speed>
  <fix>3d</fix>
</trkpt>
<trkpt lat="-27.274439" lon="151.290064">
  <ele>343.1</ele>
  <time>2026-09-01T19:57:13Z</time>
  <course>341.31</course>
  <speed>0.0</speed>
  <fix>3d</fix>
</trkpt>
<trkpt lat="-27.2744392" lon="151.2900641">
  <ele>343.1</ele>
  <time>2026-09-01T19:57:13Z</time>
  <course>10.64</course>
  <speed>0.022360679774997897</speed>
  <fix>3d</fix>
</trkpt>
<trkpt lat="-27.274439" lon="151.290064">
  <ele>343.1</ele>
  <time>2026-09-01T19:57:13Z</time>
  <course>341.31</course>
  <speed>0.0</speed>
  <fix>3d</fix>
</trkpt>
<trkpt lat="-27.2744392" lon="151.2900641">
  <ele>343.11</ele>
  <time>2026-09-01T19:57:13Z</time>
  <course>10.64</course>
  <speed>0.022360679774997897</speed>
  <fix>3d</fix>
</trkpt>
<trkpt lat="-27.274439" lon="151.290064">
  <ele>343.1</ele>
  <time>2026-09-01T19:57:13Z</time>
  <course>341.31</course>
  <speed>0.0</speed>
  <fix>3d</fix>
</trkpt>
<trkpt lat="-27.2744392" lon="151.2900641">
  <ele>343.11</ele>
  <time>2026-09-01T19:57:13Z</time>
  <course>10.65</course>
  <speed>0.022360679774997897</speed>
  <fix>3d</fix>
</trkpt>
<trkpt lat="-27.274439" lon="151.290064">
  <ele>343.1</ele>
  <time>2026-09-01T19:57:13Z</time>
  <course>341.31</course>
  <speed>0.0</speed>
  <fix>3d</fix>
</trkpt>
<trkpt lat="-27.2744392" lon="151.2900641">
  <ele>343.11</ele>
  <time>2026-09-01T19:57:13Z</time>
  <course>10.65</course>
  <speed>0.022360679774997897</speed>
  <fix>3d</fix>
</trkpt>
<trkpt lat="-27.274439" lon="151.290064">
  <ele>343.1</ele>
  <time>2026-09-01T19:57:13Z</time>
  <course>341.31</course>
  <speed>0.0</speed>
  <fix>3d</fix>
</trkpt>
<trkpt lat="-27.2744392" lon="151.2900641">
  <ele>343.11</ele>
  <time>2026-09-01T19:57:13Z</time>
  <course>10.65</course>
  <speed>0.022360679774997897</speed>
  <fix>3d</fix>
</trkpt>
<trkpt lat="-27.274439" lon="151.290064">
  <ele>343.1</ele>
  <time>2026-09-01T19:57:13Z</time>
  <course>341.31</course>
  <speed>0.0</speed>
  <fix>3d</fix>
</trkpt>
<trkpt lat="-27.2744392" lon="151.2900641">
  <ele>343.12</ele>
  <time>2026-09-01T19:57:13Z</time>
  <course>10.65</course>
  <speed>0.022360679774997897</speed>
  <fix>3d</fix>
</trkpt>
<trkpt lat="-27.274439" lon="151.290064">
  <ele>343.1</ele>
  <time>2026-09-01T19:57:13Z</time>
  <course>341.31</course>
  <speed>0.0</speed>
  <fix>3d</fix>
</trkpt>
<trkpt lat="-27.2744392" lon="151.2900641">
  <ele>343.11</ele>
  <time>2026-09-01T19:57:13Z</time>
  <course>10.65</course>
  <speed>0.022360679774997897</speed>
  <fix>3d</fix>
</trkpt>
<trkpt lat="-27.274439" lon="151.290064">
  <ele>343.1</ele>
  <time>2026-09-01T19:57:13Z</time>
  <course>341.31</course>
  <speed>0.0</speed>
  <fix>3d</fix>
</trkpt>
<trkpt lat="-27.2744392" lon="151.2900641">
  <ele>343.11</ele>
  <time>2026-09-01T19:57:13Z</time>
  <course>10.65</course>
  <speed>0.022360679774997897</speed>
  <fix>3d</fix>
</trkpt>
<trkpt lat="-27.274439" lon="151.290064">
  <ele>343.1</ele>
  <time>2026-09-01T19:57:13Z</time>
  <course>341.31</course>
  <speed>0.0</speed>
  <fix>3d</fix>
</trkpt>
<trkpt lat="-27.2744392" lon="151.2900641">
  <ele>343.12</ele>
  <time>2026-09-01T19:57:13Z</time>
  <course>10.65</course>
  <speed>0.022360679774997897</speed>
  <fix>3d</fix>
</trkpt>
<trkpt lat="-27.274439" lon="151.290064">
  <ele>343.1</ele>
  <time>2026-09-01T19:57:13Z</time>
  <course>341.31</course>
  <speed>0.0</speed>
  <fix>3d</fix>
</trkpt>
<trkpt lat="-27.2744392" lon="151.2900641">
  <ele>343.11</ele>
  <time>2026-09-01T19:57:13Z</time>
  <course>10.65</course>
  <speed>0.022360679774997897</speed>
  <fix>3d</fix>
</trkpt>
<trkpt lat="-27.274439" lon="151.290064">
  <ele>343.1</ele>
  <time>2026-09-01T19:57:13Z</time>
  <course>341.31</course>
  <speed>0.0</speed>
  <fix>3d</fix>
</trkpt>
<trkpt lat="-27.2744392" lon="151.2900641">
  <ele>343.12</ele>
  <time>2026-09-01T19:57:13Z</time>
  <course>10.65</course>
  <speed>0.022360679774997897</speed>
  <fix>3d</fix>
</trkpt>
<trkpt lat="-27.274439" lon="151.290064">
  <ele>343.1</ele>
  <time>2026-09-01T19:57:13Z</time>
  <course>341.31</course>
  <speed>0.0</speed>
  <fix>3d</fix>
</trkpt>
<trkpt lat="-27.2744392" lon="151.2900641">
  <ele>343.11</ele>
  <time>2026-09-01T19:57:13Z</time>
  <course>10.65</course>
  <speed>0.022360679774997897</speed>
  <fix>3d</fix>
</trkpt>
<trkpt lat="-27.274439" lon="151.290064">
  <ele>343.1</ele>
  <time>2026-09-01T19:57:13Z</time>
  <course>341.31</course>
  <speed>0.0</speed>
  <fix>3d</fix>
</trkpt>
<trkpt lat="-27.2744392" lon="151.2900641">
  <ele>343.11</ele>
  <time>2026-09-01T19:57:13Z</time>
  <course>10.65</course>
  <speed>0.022360679774997897</speed>
  <fix>3d</fix>
</trkpt>
<trkpt lat="-27.274439" lon="151.290064">
  <ele>343.1</ele>
  <time>2026-09-01T19:57:13Z</time>
  <course>341.31</course>
  <speed>0.0</speed>
  <fix>3d</fix>
</trkpt>
<trkpt lat="-27.2744392" lon="151.2900641">
  <ele>343.11</ele>
  <time>2026-09-01T19:57:13Z</time>
  <course>10.65</course>
  <speed>0.022360679774997897</speed>
  <fix>3d</fix>
</trkpt>
<trkpt lat="-27.274439" lon="151.290064">
  <ele>343.1</ele>
  <time>2026-09-01T19:57:13Z</time>
  <course>341.31</course>
  <speed>0.0</speed>
  <fix>3d</fix>
</trkpt>
<trkpt lat="-27.2744392" lon="151.2900641">
  <ele>343.11</ele>
  <time>2026-09-01T19:57:13Z</time>
  <course>10.65</course>
  <speed>0.022360679774997897</speed>
  <fix>3d</fix>
</trkpt>
<trkpt lat="-27.274439" lon="151.290064">
  <ele>343.1</ele>
  <time>2026-09-01T19:57:13Z</time>
  <course>341.31</course>
  <speed>0.0</speed>
  <fix>3d</fix>
</trkpt>
<trkpt lat="-27.2744392" lon="151.2900641">
  <ele>343.11</ele>
  <time>2026-09-01T19:57:13Z</time>
  <course>10.65</course>
  <speed>0.022360679774997897</speed>
  <fix>3d</fix>
</trkpt>
<trkpt lat="-27.274439" lon="151.290064">
  <ele>343.1</ele>
  <time>2026-09-01T19:57:13Z</time>
  <course>341.31</course>
  <speed>0.0</speed>
  <fix>3d</fix>
</trkpt>
<trkpt lat="-27.274439" lon="151.290064">
  <ele>343.1</ele>
  <time>2026-09-01T19:57:13Z</time>
  <course>10.65</course>
  <speed>0.0</speed>
  <fix>3d</fix>
</trkpt>
<trkpt lat="-27.274439" lon="151.290064">
  <ele>343.1</ele>
  <time>2026-09-01T19:57:13Z</time>
  <course>341.31</course>
  <speed>0.0</speed>
  <fix>3d</fix>
</trkpt>
<trkpt lat="-27.274439" lon="151.290064">
  <ele>343.1</ele>
  <time>2026-09-01T19:57:13Z</time>
  <course>10.65</course>
  <speed>0.0</speed>
  <fix>3d</fix>
</trkpt>
<trkpt lat="-27.274439" lon="151.290064">
  <ele>343.1</ele>
  <time>2026-09-01T19:57:13Z</time>
  <course>341.31</course>
  <speed>0.0</speed>
  <fix>3d</fix>
</trkpt>
<trkpt lat="-27.274439" lon="151.290064">
  <ele>343.1</ele>
  <time>2026-09-01T19:57:13Z</time>
  <course>10.65</course>
  <speed>0.0</speed>
  <fix>3d</fix>
</trkpt>
<trkpt lat="-27.274439" lon="151.290064">
  <ele>343.1</ele>
  <time>2026-09-01T19:57:13Z</time>
  <course>341.31</course>
  <speed>0.0</speed>
  <fix>3d</fix>
</trkpt>
<trkpt lat="-27.274439" lon="151.290064">
  <ele>343.1</ele>
  <time>2026-09-01T19:57:13Z</time>
  <course>10.65</course>
  <speed>0.0</speed>
  <fix>3d</fix>
</trkpt>
<trkpt lat="-27.274439" lon="151.290064">
  <ele>343.1</ele>
  <time>2026-09-01T19:57:13Z</time>
  <course>341.31</course>
  <speed>0.0</speed>
  <fix>3d</fix>
</trkpt>
<trkpt lat="-27.274439" lon="151.290064">
  <ele>343.1</ele>
  <time>2026-09-01T19:57:13Z</time>
  <course>10.65</course>
  <speed>0.0</speed>
  <fix>3d</fix>
</trkpt>
<trkpt lat="-27.274439" lon="151.290064">
  <ele>343.1</ele>
  <time>2026-09-01T19:57:13Z</time>
  <course>341.31</course>
  <speed>0.0</speed>
  <fix>3d</fix>
</trkpt>
<trkpt lat="-27.274439" lon="151.290064">
  <ele>343.1</ele>
  <time>2026-09-01T19:57:13Z</time>
  <course>10.65</course>
  <speed>0.0</speed>
  <fix>3d</fix>
</trkpt>
<trkpt lat="-27.274439" lon="151.290064">
  <ele>343.1</ele>
  <time>2026-09-01T19:57:13Z</time>
  <course>341.31</course>
  <speed>0.0</speed>
  <fix>3d</fix>
</trkpt>
<trkpt lat="-26.9686723" lon="149.5939904">
  <ele>339.25</ele>
  <time>2026-09-01T19:57:13Z</time>
  <course>291.73</course>
  <speed>0.0</speed>
  <fix>3d</fix>
</trkpt>
<trkpt lat="-26.9686723" lon="149.5939904">
  <ele>339.25</ele>
  <time>2026-09-01T19:57:13Z</time>
  <course>291.73</course>
  <speed>0.0</speed>
  <fix>3d</fix>
</trkpt>
<trkpt lat="-27.274439" lon="151.290064">
  <ele>0.08</ele>
  <time>2026-09-01T19:57:13Z</time>
  <course>359.75</course>
  <speed>0.0</speed>
  <fix>3d</fix>
</trkpt>
<trkpt lat="-27.274439" lon="151.290064">
  <ele>343.1</ele>
  <time>2026-09-01T19:57:13Z</time>
  <course>282.42</course>
  <speed>0.0</speed>
  <fix>3d</fix>
</trkpt>
<trkpt lat="-27.274439" lon="151.290064">
  <ele>0.11</ele>
  <time>2026-09-01T19:57:13Z</time>
  <course>359.76</course>
  <speed>0.0</speed>
  <fix>3d</fix>
</trkpt>
<trkpt lat="-27.274439" lon="151.290064">
  <ele>343.1</ele>
  <time>2026-09-01T19:57:13Z</time>
  <course>282.42</course>
  <speed>0.0</speed>
  <fix>3d</fix>
</trkpt>
<trkpt lat="-27.274439" lon="151.290064">
  <ele>0.14</ele>
  <time>2026-09-01T19:57:13Z</time>
  <course>359.76</course>
  <speed>0.0</speed>
  <fix>3d</fix>
</trkpt>
<trkpt lat="-27.274439" lon="151.290064">
  <ele>343.1</ele>
  <time>2026-09-01T19:57:13Z</time>
  <course>271.64</course>
  <speed>0.0</speed>
  <fix>3d</fix>
</trkpt>
<trkpt lat="-27.274439" lon="151.290064">
  <ele>0.18</ele>
  <time>2026-09-01T19:57:13Z</time>
  <course>359.76</course>
  <speed>0.0</speed>
  <fix>3d</fix>
</trkpt>
<trkpt lat="-27.274439" lon="151.290064">
  <ele>343.1</ele>
  <time>2026-09-01T19:57:13Z</time>
  <course>271.64</course>
  <speed>0.0</speed>
  <fix>3d</fix>
</trkpt>
<trkpt lat="-27.274439" lon="151.290064">
  <ele>0.14</ele>
  <time>2026-09-01T19:57:13Z</time>
  <course>359.76</course>
  <speed>0.0</speed>
  <fix>3d</fix>
</trkpt>
<trkpt lat="-27.274439" lon="151.290064">
  <ele>343.1</ele>
  <time>2026-09-01T19:57:13Z</time>
  <course>270.22</course>
  <speed>0.0</speed>
  <fix>3d</fix>
</trkpt>
<trkpt lat="-27.274439" lon="151.290064">
  <ele>-0.01</ele>
  <time>2026-09-01T19:57:13Z</time>
  <course>359.76</course>
  <speed>0.0</speed>
  <fix>3d</fix>
</trkpt>
<trkpt lat="-27.274439" lon="151.290064">
  <ele>343.1</ele>
  <time>2026-09-01T19:57:13Z</time>
  <course>270.22</course>
  <speed>0.0</speed>
  <fix>3d</fix>
</trkpt>
<trkpt lat="-27.274439" lon="151.290064">
  <ele>0.01</ele>
  <time>2026-09-01T19:57:13Z</time>
  <course>359.76</course>
  <speed>0.0</speed>
  <fix>3d</fix>
</trkpt>
<trkpt lat="-27.274439" lon="151.290064">
  <ele>343.1</ele>
  <time>2026-09-01T19:57:13Z</time>
  <course>270.02</course>
  <speed>0.0</speed>
  <fix>3d</fix>
</trkpt>
<trkpt lat="-27.274439" lon="151.290064">
  <ele>0.11</ele>
  <time>2026-09-01T19:57:13Z</time>
  <course>359.76</course>
  <speed>0.0</speed>
  <fix>3d</fix>
</trkpt>
<trkpt lat="-27.274439" lon="151.290064">
  <ele>343.1</ele>
  <time>2026-09-01T19:57:13Z</time>
  <course>270.02</course>
  <speed>0.0</speed>
  <fix>3d</fix>
</trkpt>
<trkpt lat="-27.274439" lon="151.290064">
  <ele>342.97</ele>
  <time>2026-09-01T19:57:13Z</time>
  <course>359.76</course>
  <speed>0.0</speed>
  <fix>3d</fix>
</trkpt>
<trkpt lat="-27.274439" lon="151.290064">
  <ele>343.1</ele>
  <time>2026-09-01T19:57:13Z</time>
  <course>270.0</course>
  <speed>0.0</speed>
  <fix>3d</fix>
</trkpt>
<trkpt lat="-27.274439" lon="151.290064">
  <ele>342.82</ele>
  <time>2026-09-01T19:57:13Z</time>
  <course>359.76</course>
  <speed>0.0</speed>
  <fix>3d</fix>
</trkpt>
<trkpt lat="-27.274439" lon="151.290064">
  <ele>343.1</ele>
  <time>2026-09-01T19:57:13Z</time>
  <course>270.0</course>
  <speed>0.0</speed>
  <fix>3d</fix>
</trkpt>
<trkpt lat="-27.274439" lon="151.290064">
  <ele>343.0</ele>
  <time>2026-09-01T19:57:13Z</time>
  <course>359.76</course>
  <speed>0.0</speed>
  <fix>3d</fix>
</trkpt>
<trkpt lat="-27.274439" lon="151.290064">
  <ele>343.1</ele>
  <time>2026-09-01T19:57:13Z</time>
  <course>270.0</course>
  <speed>0.0</speed>
  <fix>3d</fix>
</trkpt>
<trkpt lat="-27.274439" lon="151.290064">
  <ele>343.04</ele>
  <time>2026-09-01T19:57:13Z</time>
  <course>359.76</course>
  <speed>0.0</speed>
  <fix>3d</fix>
</trkpt>
<trkpt lat="-27.274439" lon="151.290064">
  <ele>343.1</ele>
  <time>2026-09-01T19:57:13Z</time>
  <course>270.0</course>
  <speed>0.0</speed>
  <fix>3d</fix>
</trkpt>
<trkpt lat="-27.274439" lon="151.290064">
  <ele>343.18</ele>
  <time>2026-09-01T19:57:13Z</time>
  <course>359.76</course>
  <speed>0.0</speed>
  <fix>3d</fix>
</trkpt>
<trkpt lat="-27.274439" lon="151.290064">
  <ele>343.1</ele>
  <time>2026-09-01T19:57:13Z</time>
  <course>270.0</course>
  <speed>0.0</speed>
  <fix>3d</fix>
</trkpt>
<trkpt lat="-27.274439" lon="151.290064">
  <ele>343.17</ele>
  <time>2026-09-01T19:57:13Z</time>
  <course>359.77</course>
  <speed>0.0</speed>
  <fix>3d</fix>
</trkpt>
<trkpt lat="-27.274439" lon="151.290064">
  <ele>343.1</ele>
  <time>2026-09-01T19:57:13Z</time>
  <course>270.0</course>
  <speed>0.0</speed>
  <fix>3d</fix>
</trkpt>
<trkpt lat="-27.274439" lon="151.290064">
  <ele>343.21</ele>
  <time>2026-09-01T19:57:13Z</time>
  <course>359.77</course>
  <speed>0.0</speed>
  <fix>3d</fix>
</trkpt>
<trkpt lat="-27.274439" lon="151.290064">
  <ele>343.1</ele>
  <time>2026-09-01T19:57:13Z</time>
  <course>270.0</course>
  <speed>0.0</speed>
  <fix>3d</fix>
</trkpt>
<trkpt lat="-27.274439" lon="151.290064">
  <ele>343.11</ele>
  <time>2026-09-01T19:57:13Z</time>
  <course>359.77</course>
  <speed>0.0</speed>
  <fix>3d</fix>
</trkpt>
<trkpt lat="-27.274439" lon="151.290064">
  <ele>343.1</ele>
  <time>2026-09-01T19:57:13Z</time>
  <course>270.0</course>
  <speed>0.0</speed>
  <fix>3d</fix>
</trkpt>
<trkpt lat="-27.274439" lon="151.290064">
  <ele>342.89</ele>
  <time>2026-09-01T19:57:13Z</time>
  <course>359.77</course>
  <speed>0.0</speed>
  <fix>3d</fix>
</trkpt>
<trkpt lat="-27.274439" lon="151.290064">
  <ele>343.1</ele>
  <time>2026-09-01T19:57:13Z</time>
  <course>270.0</course>
  <speed>0.0</speed>
  <fix>3d</fix>
</trkpt>
<trkpt lat="-27.274439" lon="151.290064">
  <ele>343.21</ele>
  <time>2026-09-01T19:57:13Z</time>
  <course>359.77</course>
  <speed>0.0</speed>
  <fix>3d</fix>
</trkpt>
<trkpt lat="-27.274439" lon="151.290064">
  <ele>343.1</ele>
  <time>2026-09-01T19:57:13Z</time>
  <course>270.0</course>
  <speed>0.0</speed>
  <fix>3d</fix>
</trkpt>
<trkpt lat="-27.274439" lon="151.290064">
  <ele>342.9</ele>
  <time>2026-09-01T19:57:13Z</time>
  <course>359.77</course>
  <speed>0.0</speed>
  <fix>3d</fix>
</trkpt>
<trkpt lat="-27.274439" lon="151.290064">
  <ele>343.1</ele>
  <time>2026-09-01T19:57:13Z</time>
  <course>270.0</course>
  <speed>0.0</speed>
  <fix>3d</fix>
</trkpt>
<trkpt lat="-27.274439" lon="151.290064">
  <ele>342.89</ele>
  <time>2026-09-01T19:57:13Z</time>
  <course>359.77</course>
  <speed>0.0</speed>
  <fix>3d</fix>
</trkpt>
<trkpt lat="-27.274439" lon="151.290064">
  <ele>343.1</ele>
  <time>2026-09-01T19:57:13Z</time>
  <course>270.0</course>
  <speed>0.0</speed>
  <fix>3d</fix>
</trkpt>
<trkpt lat="-27.274439" lon="151.290064">
  <ele>342.83</ele>
  <time>2026-09-01T19:57:13Z</time>
  <course>359.77</course>
  <speed>0.0</speed>
  <fix>3d</fix>
</trkpt>
<trkpt lat="-27.274439" lon="151.290064">
  <ele>343.1</ele>
  <time>2026-09-01T19:57:13Z</time>
  <course>270.0</course>
  <speed>0.0</speed>
  <fix>3d</fix>
</trkpt>
<trkpt lat="-27.274439" lon="151.290064">
  <ele>343.0</ele>
  <time>2026-09-01T19:57:13Z</time>
  <course>359.77</course>
  <speed>0.0</speed>
  <fix>3d</fix>
</trkpt>
<trkpt lat="-27.274439" lon="151.290064">
  <ele>343.1</ele>
  <time>2026-09-01T19:57:13Z</time>
  <course>270.0</course>
  <speed>0.0</speed>
  <fix>3d</fix>
</trkpt>
<trkpt lat="-27.274439" lon="151.290064">
  <ele>342.89</ele>
  <time>2026-09-01T19:57:13Z</time>
  <course>359.77</course>
  <speed>0.0</speed>
  <fix>3d</fix>
</trkpt>
<trkpt lat="-27.274439" lon="151.290064">
  <ele>343.1</ele>
  <time>2026-09-01T19:57:13Z</time>
  <course>270.0</course>
  <speed>0.0</speed>
  <fix>3d</fix>
</trkpt>
<trkpt lat="-27.274439" lon="151.290064">
  <ele>343.04</ele>
  <time>2026-09-01T19:57:13Z</time>
  <course>359.77</course>
  <speed>0.0</speed>
  <fix>3d</fix>
</trkpt>
<trkpt lat="-27.274439" lon="151.290064">
  <ele>343.1</ele>
  <time>2026-09-01T19:57:13Z</time>
  <course>270.0</course>
  <speed>0.0</speed>
  <fix>3d</fix>
</trkpt>
<trkpt lat="-27.274439" lon="151.290064">
  <ele>343.05</ele>
  <time>2026-09-01T19:57:13Z</time>
  <course>359.78</course>
  <speed>0.0</speed>
  <fix>3d</fix>
</trkpt>
<trkpt lat="-27.274439" lon="151.290064">
  <ele>343.1</ele>
  <time>2026-09-01T19:57:13Z</time>
  <course>270.0</course>
  <speed>0.0</speed>
  <fix>3d</fix>
</trkpt>
<trkpt lat="-27.274439" lon="151.290064">
  <ele>343.07</ele>
  <time>2026-09-01T19:57:13Z</time>
  <course>359.78</course>
  <speed>0.0</speed>
  <fix>3d</fix>
</trkpt>
<trkpt lat="-27.274439" lon="151.290064">
  <ele>343.1</ele>
  <time>2026-09-01T19:57:13Z</time>
  <course>270.0</course>
  <speed>0.0</speed>
  <fix>3d</fix>
</trkpt>
<trkpt lat="-27.274439" lon="151.290064">
  <ele>343.16</ele>
  <time>2026-09-01T19:57:13Z</time>
  <course>359.78</course>
  <speed>0.0</speed>
  <fix>3d</fix>
</trkpt>
<trkpt lat="-27.274439" lon="151.290064">
  <ele>343.1</ele>
  <time>2026-09-01T19:57:13Z</time>
  <course>270.0</course>
  <speed>0.0</speed>
  <fix>3d</fix>
</trkpt>
<trkpt lat="-27.274439" lon="151.290064">
  <ele>342.87</ele>
  <time>2026-09-01T19:57:13Z</time>
  <course>359.78</course>
  <speed>0.0</speed>
  <fix>3d</fix>
</trkpt>
<trkpt lat="-27.274439" lon="151.290064">
  <ele>343.1</ele>
  <time>2026-09-01T19:57:13Z</time>
  <course>270.0</course>
  <speed>0.0</speed>
  <fix>3d</fix>
</trkpt>
<trkpt lat="-27.274439" lon="151.290064">
  <ele>343.08</ele>
  <time>2026-09-01T19:57:13Z</time>
  <course>359.78</course>
  <speed>0.0</speed>
  <fix>3d</fix>
</trkpt>
<trkpt lat="-27.274439" lon="151.290064">
  <ele>343.1</ele>
  <time>2026-09-01T19:57:13Z</time>
  <course>270.0</course>
  <speed>0.0</speed>
  <fix>3d</fix>
</trkpt>
<trkpt lat="-27.274439" lon="151.290064">
  <ele>343.1</ele>
  <time>2026-09-01T19:57:13Z</time>
  <course>359.78</course>
  <speed>0.0</speed>
  <fix>3d</fix>
</trkpt>
<trkpt lat="-27.274439" lon="151.290064">
  <ele>343.1</ele>
  <time>2026-09-01T19:57:13Z</time>
  <course>270.0</course>
  <speed>0.0</speed>
  <fix>3d</fix>
</trkpt>
<trkpt lat="-27.274439" lon="151.290064">
  <ele>342.94</ele>
  <time>2026-09-01T19:57:13Z</time>
  <course>359.78</course>
  <speed>0.0</speed>
  <fix>3d</fix>
</trkpt>
<trkpt lat="-27.274439" lon="151.290064">
  <ele>343.1</ele>
  <time>2026-09-01T19:57:13Z</time>
  <course>270.0</course>
  <speed>0.0</speed>
  <fix>3d</fix>
</trkpt>
<trkpt lat="-27.274439" lon="151.290064">
  <ele>343.19</ele>
  <time>2026-09-01T19:57:13Z</time>
  <course>359.78</course>
  <speed>0.0</speed>
  <fix>3d</fix>
</trkpt>
<trkpt lat="-27.274439" lon="151.290064">
  <ele>343.1</ele>
  <time>2026-09-01T19:57:13Z</time>
  <course>270.0</course>
  <speed>0.0</speed>
  <fix>3d</fix>
</trkpt>
<trkpt lat="-27.274439" lon="151.290064">
  <ele>343.01</ele>
  <time>2026-09-01T19:57:13Z</time>
  <course>359.78</course>
  <speed>0.0</speed>
  <fix>3d</fix>
</trkpt>
<trkpt lat="-27.274439" lon="151.290064">
  <ele>343.1</ele>
  <time>2026-09-01T19:57:13Z</time>
  <course>270.0</course>
  <speed>0.0</speed>
  <fix>3d</fix>
</trkpt>
<trkpt lat="-27.274439" lon="151.290064">
  <ele>342.89</ele>
  <time>2026-09-01T19:57:13Z</time>
  <course>359.79</course>
  <speed>0.0</speed>
  <fix>3d</fix>
</trkpt>
<trkpt lat="-27.274439" lon="151.290064">
  <ele>343.1</ele>
  <time>2026-09-01T19:57:13Z</time>
  <course>270.0</course>
  <speed>0.0</speed>
  <fix>3d</fix>
</trkpt>
<trkpt lat="-27.274439" lon="151.290064">
  <ele>342.92</ele>
  <time>2026-09-01T19:57:13Z</time>
  <course>359.79</course>
  <speed>0.0</speed>
  <fix>3d</fix>
</trkpt>
<trkpt lat="-27.274439" lon="151.290064">
  <ele>343.1</ele>
  <time>2026-09-01T19:57:13Z</time>
  <course>270.0</course>
  <speed>0.0</speed>
  <fix>3d</fix>
</trkpt>
<trkpt lat="-27.274439" lon="151.290064">
  <ele>343.19</ele>
  <time>2026-09-01T19:57:13Z</time>
  <course>359.79</course>
  <speed>0.0</speed>
  <fix>3d</fix>
</trkpt>
<trkpt lat="-27.274439" lon="151.290064">
  <ele>343.1</ele>
  <time>2026-09-01T19:57:13Z</time>
  <course>270.0</course>
  <speed>0.0</speed>
  <fix>3d</fix>
</trkpt>
<trkpt lat="-27.274439" lon="151.290064">
  <ele>342.89</ele>
  <time>2026-09-01T19:57:13Z</time>
  <course>359.79</course>
  <speed>0.0</speed>
  <fix>3d</fix>
</trkpt>
<trkpt lat="-27.274439" lon="151.290064">
  <ele>343.1</ele>
  <time>2026-09-01T19:57:13Z</time>
  <course>270.0</course>
  <speed>0.0</speed>
  <fix>3d</fix>
</trkpt>
<trkpt lat="-27.274439" lon="151.290064">
  <ele>343.18</ele>
  <time>2026-09-01T19:57:13Z</time>
  <course>359.79</course>
  <speed>0.0</speed>
  <fix>3d</fix>
</trkpt>
<trkpt lat="-27.274439" lon="151.290064">
  <ele>343.1</ele>
  <time>2026-09-01T19:57:13Z</time>
  <course>270.0</course>
  <speed>0.0</speed>
  <fix>3d</fix>
</trkpt>
<trkpt lat="-27.274439" lon="151.290064">
  <ele>343.08</ele>
  <time>2026-09-01T19:57:13Z</time>
  <course>359.79</course>
  <speed>0.0</speed>
  <fix>3d</fix>
</trkpt>
<trkpt lat="-27.274439" lon="151.290064">
  <ele>343.1</ele>
  <time>2026-09-01T19:57:13Z</time>
  <course>270.0</course>
  <speed>0.0</speed>
  <fix>3d</fix>
</trkpt>
<trkpt lat="-27.274439" lon="151.290064">
  <ele>342.82</ele>
  <time>2026-09-01T19:57:13Z</time>
  <course>359.79</course>
  <speed>0.0</speed>
  <fix>3d</fix>
</trkpt>
<trkpt lat="-27.274439" lon="151.290064">
  <ele>343.1</ele>
  <time>2026-09-01T19:57:13Z</time>
  <course>270.0</course>
  <speed>0.0</speed>
  <fix>3d</fix>
</trkpt>
<trkpt lat="-27.274439" lon="151.290064">
  <ele>343.1</ele>
  <time>2026-09-01T19:57:13Z</time>
  <course>359.79</course>
  <speed>0.0</speed>
  <fix>3d</fix>
</trkpt>
<trkpt lat="-27.274439" lon="151.290064">
  <ele>343.1</ele>
  <time>2026-09-01T19:57:13Z</time>
  <course>270.0</course>
  <speed>0.0</speed>
  <fix>3d</fix>
</trkpt>
<trkpt lat="-27.274439" lon="151.290064">
  <ele>343.0</ele>
  <time>2026-09-01T19:57:13Z</time>
  <course>359.79</course>
  <speed>0.0</speed>
  <fix>3d</fix>
</trkpt>
<trkpt lat="-27.274439" lon="151.290064">
  <ele>343.1</ele>
  <time>2026-09-01T19:57:13Z</time>
  <course>270.0</course>
  <speed>0.0</speed>
  <fix>3d</fix>
</trkpt>
<trkpt lat="-27.274439" lon="151.290064">
  <ele>343.05</ele>
  <time>2026-09-01T19:57:13Z</time>
  <course>359.8</course>
  <speed>0.0</speed>
  <fix>3d</fix>
</trkpt>
<trkpt lat="-27.274439" lon="151.290064">
  <ele>343.1</ele>
  <time>2026-09-01T19:57:13Z</time>
  <course>270.0</course>
  <speed>0.0</speed>
  <fix>3d</fix>
</trkpt>
<trkpt lat="-27.274439" lon="151.290064">
  <ele>343.05</ele>
  <time>2026-09-01T19:57:13Z</time>
  <course>359.8</course>
  <speed>0.0</speed>
  <fix>3d</fix>
</trkpt>
<trkpt lat="-27.274439" lon="151.290064">
  <ele>343.1</ele>
  <time>2026-09-01T19:57:13Z</time>
  <course>270.0</course>
  <speed>0.0</speed>
  <fix>3d</fix>
</trkpt>
<trkpt lat="-27.274439" lon="151.290064">
  <ele>342.82</ele>
  <time>2026-09-01T19:57:13Z</time>
  <course>359.8</course>
  <speed>0.0</speed>
  <fix>3d</fix>
</trkpt>
<trkpt lat="-27.274439" lon="151.290064">
  <ele>343.1</ele>
  <time>2026-09-01T19:57:13Z</time>
  <course>270.0</course>
  <speed>0.0</speed>
  <fix>3d</fix>
</trkpt>
<trkpt lat="-27.274439" lon="151.290064">
  <ele>343.12</ele>
  <time>2026-09-01T19:57:13Z</time>
  <course>359.8</course>
  <speed>0.0</speed>
  <fix>3d</fix>
</trkpt>
<trkpt lat="-27.274439" lon="151.290064">
  <ele>343.1</ele>
  <time>2026-09-01T19:57:13Z</time>
  <course>270.0</course>
  <speed>0.0</speed>
  <fix>3d</fix>
</trkpt>
<trkpt lat="-27.274439" lon="151.290064">
  <ele>343.14</ele>
  <time>2026-09-01T19:57:13Z</time>
  <course>359.8</course>
  <speed>0.0</speed>
  <fix>3d</fix>
</trkpt>
<trkpt lat="-27.274439" lon="151.290064">
  <ele>343.1</ele>
  <time>2026-09-01T19:57:13Z</time>
  <course>270.0</course>
  <speed>0.0</speed>
  <fix>3d</fix>
</trkpt>
<trkpt lat="-27.274439" lon="151.290064">
  <ele>343.12</ele>
  <time>2026-09-01T19:57:13Z</time>
  <course>359.8</course>
  <speed>0.0</speed>
  <fix>3d</fix>
</trkpt>
<trkpt lat="-27.274439" lon="151.290064">
  <ele>343.1</ele>
  <time>2026-09-01T19:57:13Z</time>
  <course>270.0</course>
  <speed>0.0</speed>
  <fix>3d</fix>
</trkpt>
<trkpt lat="-27.274439" lon="151.290064">
  <ele>342.95</ele>
  <time>2026-09-01T19:57:13Z</time>
  <course>359.8</course>
  <speed>0.0</speed>
  <fix>3d</fix>
</trkpt>
<trkpt lat="-27.274439" lon="151.290064">
  <ele>343.1</ele>
  <time>2026-09-01T19:57:13Z</time>
  <course>270.0</course>
  <speed>0.0</speed>
  <fix>3d</fix>
</trkpt>
<trkpt lat="-27.274439" lon="151.290064">
  <ele>342.83</ele>
  <time>2026-09-01T19:57:13Z</time>
  <course>359.8</course>
  <speed>0.0</speed>
  <fix>3d</fix>
</trkpt>
<trkpt lat="-27.274439" lon="151.290064">
  <ele>343.1</ele>
  <time>2026-09-01T19:57:13Z</time>
  <course>270.0</course>
  <speed>0.0</speed>
  <fix>3d</fix>
</trkpt>
<trkpt lat="-27.274439" lon="151.290064">
  <ele>343.12</ele>
  <time>2026-09-01T19:57:13Z</time>
  <course>359.81</course>
  <speed>0.0</speed>
  <fix>3d</fix>
</trkpt>
<trkpt lat="-27.274439" lon="151.290064">
  <ele>343.1</ele>
  <time>2026-09-01T19:57:13Z</time>
  <course>270.0</course>
  <speed>0.0</speed>
  <fix>3d</fix>
</trkpt>
<trkpt lat="-27.274439" lon="151.290064">
  <ele>342.85</ele>
  <time>2026-09-01T19:57:13Z</time>
  <course>359.81</course>
  <speed>0.0</speed>
  <fix>3d</fix>
</trkpt>
<trkpt lat="-27.274439" lon="151.290064">
  <ele>343.1</ele>
  <time>2026-09-01T19:57:13Z</time>
  <course>270.0</course>
  <speed>0.0</speed>
  <fix>3d</fix>
</trkpt>
<trkpt lat="-27.274439" lon="151.290064">
  <ele>342.92</ele>
  <time>2026-09-01T19:57:13Z</time>
  <course>359.81</course>
  <speed>0.0</speed>
  <fix>3d</fix>
</trkpt>
<trkpt lat="-27.274439" lon="151.290064">
  <ele>343.1</ele>
  <time>2026-09-01T19:57:13Z</time>
  <course>270.0</course>
  <speed>0.0</speed>
  <fix>3d</fix>
</trkpt>
<trkpt lat="-27.274439" lon="151.290064">
  <ele>342.85</ele>
  <time>2026-09-01T19:57:13Z</time>
  <course>359.81</course>
  <speed>0.0</speed>
  <fix>3d</fix>
</trkpt>
<trkpt lat="-27.274439" lon="151.290064">
  <ele>343.1</ele>
  <time>2026-09-01T19:57:13Z</time>
  <course>270.0</course>
  <speed>0.0</speed>
  <fix>3d</fix>
</trkpt>
<trkpt lat="-27.274439" lon="151.290064">
  <ele>342.9</ele>
  <time>2026-09-01T19:57:13Z</time>
  <course>359.81</course>
  <speed>0.0</speed>
  <fix>3d</fix>
</trkpt>
<trkpt lat="-27.274439" lon="151.290064">
  <ele>343.1</ele>
  <time>2026-09-01T19:57:13Z</time>
  <course>270.0</course>
  <speed>0.0</speed>
  <fix>3d</fix>
</trkpt>
<trkpt lat="-27.274439" lon="151.290064">
  <ele>343.13</ele>
  <time>2026-09-01T19:57:13Z</time>
  <course>359.81</course>
  <speed>0.0</speed>
  <fix>3d</fix>
</trkpt>
<trkpt lat="-27.274439" lon="151.290064">
  <ele>343.1</ele>
  <time>2026-09-01T19:57:13Z</time>
  <course>270.0</course>
  <speed>0.0</speed>
  <fix>3d</fix>
</trkpt>
<trkpt lat="-27.274439" lon="151.290064">
  <ele>342.89</ele>
  <time>2026-09-01T19:57:13Z</time>
  <course>359.81</course>
  <speed>0.0</speed>
  <fix>3d</fix>
</trkpt>
<trkpt lat="-27.274439" lon="151.290064">
  <ele>343.1</ele>
  <time>2026-09-01T19:57:13Z</time>
  <course>270.0</course>
  <speed>0.0</speed>
  <fix>3d</fix>
</trkpt>
<trkpt lat="-27.274439" lon="151.290064">
  <ele>343.2</ele>
  <time>2026-09-01T19:57:13Z</time>
  <course>359.81</course>
  <speed>0.0</speed>
  <fix>3d</fix>
</trkpt>
<trkpt lat="-27.274439" lon="151.290064">
  <ele>343.1</ele>
  <time>2026-09-01T19:57:13Z</time>
  <course>270.0</course>
  <speed>0.0</speed>
  <fix>3d</fix>
</trkpt>
<trkpt lat="-27.274439" lon="151.290064">
  <ele>342.86</ele>
  <time>2026-09-01T19:57:13Z</time>
  <course>359.82</course>
  <speed>0.0</speed>
  <fix>3d</fix>
</trkpt>
<trkpt lat="-27.274439" lon="151.290064">
  <ele>343.1</ele>
  <time>2026-09-01T19:57:13Z</time>
  <course>270.0</course>
  <speed>0.0</speed>
  <fix>3d</fix>
</trkpt>
<trkpt lat="-27.274439" lon="151.290064">
  <ele>342.83</ele>
  <time>2026-09-01T19:57:13Z</time>
  <course>359.82</course>
  <speed>0.0</speed>
  <fix>3d</fix>
</trkpt>
<trkpt lat="-27.274439" lon="151.290064">
  <ele>343.1</ele>
  <time>2026-09-01T19:57:13Z</time>
  <course>270.0</course>
  <speed>0.0</speed>
  <fix>3d</fix>
</trkpt>
<trkpt lat="-27.274439" lon="151.290064">
  <ele>343.09</ele>
  <time>2026-09-01T19:57:13Z</time>
  <course>359.82</course>
  <speed>0.0</speed>
  <fix>3d</fix>
</trkpt>
<trkpt lat="-27.274439" lon="151.290064">
  <ele>343.1</ele>
  <time>2026-09-01T19:57:13Z</time>
  <course>270.0</course>
  <speed>0.0</speed>
  <fix>3d</fix>
</trkpt>
<trkpt lat="-27.274439" lon="151.290064">
  <ele>343.04</ele>
  <time>2026-09-01T19:57:13Z</time>
  <course>359.82</course>
  <speed>0.0</speed>
  <fix>3d</fix>
</trkpt>
<trkpt lat="-27.274439" lon="151.290064">
  <ele>343.1</ele>
  <time>2026-09-01T19:57:13Z</time>
  <course>270.0</course>
  <speed>0.0</speed>
  <fix>3d</fix>
</trkpt>
<trkpt lat="-27.274439" lon="151.290064">
  <ele>343.11</ele>
  <time>2026-09-01T19:57:13Z</time>
  <course>359.82</course>
  <speed>0.0</speed>
  <fix>3d</fix>
</trkpt>
<trkpt lat="-27.274439" lon="151.290064">
  <ele>343.1</ele>
  <time>2026-09-01T19:57:13Z</time>
  <course>270.0</course>
  <speed>0.0</speed>
  <fix>3d</fix>
</trkpt>
<trkpt lat="-27.274439" lon="151.290064">
  <ele>343.06</ele>
  <time>2026-09-01T19:57:13Z</time>
  <course>359.82</course>
  <speed>0.0</speed>
  <fix>3d</fix>
</trkpt>
<trkpt lat="-27.274439" lon="151.290064">
  <ele>343.1</ele>
  <time>2026-09-01T19:57:13Z</time>
  <course>270.0</course>
  <speed>0.0</speed>
  <fix>3d</fix>
</trkpt>
<trkpt lat="-27.274439" lon="151.290064">
  <ele>343.2</ele>
  <time>2026-09-01T19:57:13Z</time>
  <course>359.82</course>
  <speed>0.0</speed>
  <fix>3d</fix>
</trkpt>
<trkpt lat="-27.274439" lon="151.290064">
  <ele>343.1</ele>
  <time>2026-09-01T19:57:13Z</time>
  <course>270.0</course>
  <speed>0.0</speed>
  <fix>3d</fix>
</trkpt>
<trkpt lat="-27.274439" lon="151.290064">
  <ele>342.82</ele>
  <time>2026-09-01T19:57:13Z</time>
  <course>359.83</course>
  <speed>0.0</speed>
  <fix>3d</fix>
</trkpt>
<trkpt lat="-27.274439" lon="151.290064">
  <ele>343.1</ele>
  <time>2026-09-01T19:57:13Z</time>
  <course>270.0</course>
  <speed>0.0</speed>
  <fix>3d</fix>
</trkpt>
<trkpt lat="-27.274439" lon="151.290064">
  <ele>342.72</ele>
  <time>2026-09-01T19:57:13Z</time>
  <course>359.83</course>
  <speed>0.0</speed>
  <fix>3d</fix>
</trkpt>
<trkpt lat="-27.274439" lon="151.290064">
  <ele>343.1</ele>
  <time>2026-09-01T19:57:13Z</time>
  <course>270.0</course>
  <speed>0.0</speed>
  <fix>3d</fix>
</trkpt>
<trkpt lat="-27.274439" lon="151.290064">
  <ele>342.8</ele>
  <time>2026-09-01T19:57:13Z</time>
  <course>359.83</course>
  <speed>0.0</speed>
  <fix>3d</fix>
</trkpt>
<trkpt lat="-27.274439" lon="151.290064">
  <ele>343.1</ele>
  <time>2026-09-01T19:57:13Z</time>
  <course>270.0</course>
  <speed>0.0</speed>
  <fix>3d</fix>
</trkpt>
<trkpt lat="-27.274439" lon="151.290064">
  <ele>342.92</ele>
  <time>2026-09-01T19:57:13Z</time>
  <course>359.83</course>
  <speed>0.0</speed>
  <fix>3d</fix>
</trkpt>
<trkpt lat="-27.274439" lon="151.290064">
  <ele>343.1</ele>
  <time>2026-09-01T19:57:13Z</time>
  <course>270.0</course>
  <speed>0.0</speed>
  <fix>3d</fix>
</trkpt>
<trkpt lat="-27.274439" lon="151.290064">
  <ele>342.97</ele>
  <time>2026-09-01T19:57:13Z</time>
  <course>359.83</course>
  <speed>0.0</speed>
  <fix>3d</fix>
</trkpt>
<trkpt lat="-27.274439" lon="151.290064">
  <ele>343.1</ele>
  <time>2026-09-01T19:57:13Z</time>
  <course>270.0</course>
  <speed>0.0</speed>
  <fix>3d</fix>
</trkpt>
<trkpt lat="-27.274439" lon="151.290064">
  <ele>343.07</ele>
  <time>2026-09-01T19:57:13Z</time>
  <course>359.83</course>
  <speed>0.0</speed>
  <fix>3d</fix>
</trkpt>
<trkpt lat="-27.274439" lon="151.290064">
  <ele>343.1</ele>
  <time>2026-09-01T19:57:13Z</time>
  <course>270.0</course>
  <speed>0.0</speed>
  <fix>3d</fix>
</trkpt>
<trkpt lat="-27.274439" lon="151.290064">
  <ele>342.89</ele>
  <time>2026-09-01T19:57:13Z</time>
  <course>359.83</course>
  <speed>0.0</speed>
  <fix>3d</fix>
</trkpt>
<trkpt lat="-27.274439" lon="151.290064">
  <ele>343.1</ele>
  <time>2026-09-01T19:57:13Z</time>
  <course>270.0</course>
  <speed>0.0</speed>
  <fix>3d</fix>
</trkpt>
<trkpt lat="-27.274439" lon="151.290064">
  <ele>342.87</ele>
  <time>2026-09-01T19:57:13Z</time>
  <course>359.84</course>
  <speed>0.0</speed>
  <fix>3d</fix>
</trkpt>
<trkpt lat="-27.274439" lon="151.290064">
  <ele>343.1</ele>
  <time>2026-09-01T19:57:13Z</time>
  <course>270.0</course>
  <speed>0.0</speed>
  <fix>3d</fix>
</trkpt>
<trkpt lat="-27.274439" lon="151.290064">
  <ele>342.72</ele>
  <time>2026-09-01T19:57:13Z</time>
  <course>359.84</course>
  <speed>0.0</speed>
  <fix>3d</fix>
</trkpt>
<trkpt lat="-27.274439" lon="151.290064">
  <ele>343.1</ele>
  <time>2026-09-01T19:57:13Z</time>
  <course>270.0</course>
  <speed>0.0</speed>
  <fix>3d</fix>
</trkpt>
<trkpt lat="-27.274439" lon="151.290064">
  <ele>342.85</ele>
  <time>2026-09-01T19:57:13Z</time>
  <course>359.84</course>
  <speed>0.0</speed>
  <fix>3d</fix>
</trkpt>
<trkpt lat="-27.274439" lon="151.290064">
  <ele>343.1</ele>
  <time>2026-09-01T19:57:13Z</time>
  <course>270.0</course>
  <speed>0.0</speed>
  <fix>3d</fix>
</trkpt>
<trkpt lat="-27.274439" lon="151.290064">
  <ele>343.08</ele>
  <time>2026-09-01T19:57:13Z</time>
  <course>359.84</course>
  <speed>0.0</speed>
  <fix>3d</fix>
</trkpt>
<trkpt lat="-27.274439" lon="151.290064">
  <ele>343.1</ele>
  <time>2026-09-01T19:57:13Z</time>
  <course>270.0</course>
  <speed>0.0</speed>
  <fix>3d</fix>
</trkpt>
<trkpt lat="-27.274439" lon="151.290064">
  <ele>342.88</ele>
  <time>2026-09-01T19:57:13Z</time>
  <course>359.84</course>
  <speed>0.0</speed>
  <fix>3d</fix>
</trkpt>
<trkpt lat="-27.274439" lon="151.290064">
  <ele>343.1</ele>
  <time>2026-09-01T19:57:13Z</time>
  <course>270.0</course>
  <speed>0.0</speed>
  <fix>3d</fix>
</trkpt>
<trkpt lat="-27.274439" lon="151.290064">
  <ele>343.08</ele>
  <time>2026-09-01T19:57:13Z</time>
  <course>359.84</course>
  <speed>0.0</speed>
  <fix>3d</fix>
</trkpt>
<trkpt lat="-27.274439" lon="151.290064">
  <ele>343.1</ele>
  <time>2026-09-01T19:57:13Z</time>
  <course>270.0</course>
  <speed>0.0</speed>
  <fix>3d</fix>
</trkpt>
<trkpt lat="-27.274439" lon="151.290064">
  <ele>342.92</ele>
  <time>2026-09-01T19:57:13Z</time>
  <course>359.84</course>
  <speed>0.0</speed>
  <fix>3d</fix>
</trkpt>
<trkpt lat="-27.274439" lon="151.290064">
  <ele>343.1</ele>
  <time>2026-09-01T19:57:13Z</time>
  <course>270.0</course>
  <speed>0.0</speed>
  <fix>3d</fix>
</trkpt>
<trkpt lat="-27.274439" lon="151.290064">
  <ele>342.97</ele>
  <time>2026-09-01T19:57:13Z</time>
  <course>359.85</course>
  <speed>0.0</speed>
  <fix>3d</fix>
</trkpt>
<trkpt lat="-27.274439" lon="151.290064">
  <ele>343.1</ele>
  <time>2026-09-01T19:57:13Z</time>
  <course>270.0</course>
  <speed>0.0</speed>
  <fix>3d</fix>
</trkpt>
<trkpt lat="-27.274439" lon="151.290064">
  <ele>342.83</ele>
  <time>2026-09-01T19:57:13Z</time>
  <course>359.85</course>
  <speed>0.0</speed>
  <fix>3d</fix>
</trkpt>
<trkpt lat="-27.274439" lon="151.290064">
  <ele>343.1</ele>
  <time>2026-09-01T19:57:13Z</time>
  <course>270.0</course>
  <speed>0.0</speed>
  <fix>3d</fix>
</trkpt>
<trkpt lat="-27.274439" lon="151.290064">
  <ele>342.93</ele>
  <time>2026-09-01T19:57:13Z</time>
  <course>359.85</course>
  <speed>0.0</speed>
  <fix>3d</fix>
</trkpt>
<trkpt lat="-27.274439" lon="151.290064">
  <ele>343.1</ele>
  <time>2026-09-01T19:57:13Z</time>
  <course>270.0</course>
  <speed>0.0</speed>
  <fix>3d</fix>
</trkpt>
<trkpt lat="-27.274439" lon="151.290064">
  <ele>342.92</ele>
  <time>2026-09-01T19:57:13Z</time>
  <course>359.85</course>
  <speed>0.0</speed>
  <fix>3d</fix>
</trkpt>
<trkpt lat="-27.274439" lon="151.290064">
  <ele>343.1</ele>
  <time>2026-09-01T19:57:13Z</time>
  <course>270.0</course>
  <speed>0.0</speed>
  <fix>3d</fix>
</trkpt>
<trkpt lat="-27.274439" lon="151.290064">
  <ele>343.01</ele>
  <time>2026-09-01T19:57:13Z</time>
  <course>359.85</course>
  <speed>0.0</speed>
  <fix>3d</fix>
</trkpt>
<trkpt lat="-27.274439" lon="151.290064">
  <ele>343.1</ele>
  <time>2026-09-01T19:57:13Z</time>
  <course>270.0</course>
  <speed>0.0</speed>
  <fix>3d</fix>
</trkpt>
<trkpt lat="-27.274439" lon="151.290064">
  <ele>343.04</ele>
  <time>2026-09-01T19:57:13Z</time>
  <course>359.85</course>
  <speed>0.0</speed>
  <fix>3d</fix>
</trkpt>
<trkpt lat="-27.274439" lon="151.290064">
  <ele>343.1</ele>
  <time>2026-09-01T19:57:13Z</time>
  <course>270.0</course>
  <speed>0.0</speed>
  <fix>3d</fix>
</trkpt>
<trkpt lat="-27.274439" lon="151.290064">
  <ele>342.95</ele>
  <time>2026-09-01T19:57:13Z</time>
  <course>359.85</course>
  <speed>0.0</speed>
  <fix>3d</fix>
</trkpt>
<trkpt lat="-27.274439" lon="151.290064">
  <ele>343.1</ele>
  <time>2026-09-01T19:57:13Z</time>
  <course>270.0</course>
  <speed>0.0</speed>
  <fix>3d</fix>
</trkpt>
<trkpt lat="-27.274439" lon="151.290064">
  <ele>343.08</ele>
  <time>2026-09-01T19:57:13Z</time>
  <course>359.86</course>
  <speed>0.0</speed>
  <fix>3d</fix>
</trkpt>
<trkpt lat="-27.274439" lon="151.290064">
  <ele>343.1</ele>
  <time>2026-09-01T19:57:13Z</time>
  <course>270.0</course>
  <speed>0.0</speed>
  <fix>3d</fix>
</trkpt>
<trkpt lat="-27.274439" lon="151.290064">
  <ele>342.92</ele>
  <time>2026-09-01T19:57:13Z</time>
  <course>359.86</course>
  <speed>0.0</speed>
  <fix>3d</fix>
</trkpt>
<trkpt lat="-27.274439" lon="151.290064">
  <ele>343.1</ele>
  <time>2026-09-01T19:57:13Z</time>
  <course>270.0</course>
  <speed>0.0</speed>
  <fix>3d</fix>
</trkpt>
<trkpt lat="-27.274439" lon="151.290064">
  <ele>342.73</ele>
  <time>2026-09-01T19:57:13Z</time>
  <course>359.86</course>
  <speed>0.0</speed>
  <fix>3d</fix>
</trkpt>
<trkpt lat="-27.274439" lon="151.290064">
  <ele>343.1</ele>
  <time>2026-09-01T19:57:13Z</time>
  <course>270.0</course>
  <speed>0.0</speed>
  <fix>3d</fix>
</trkpt>
<trkpt lat="-27.274439" lon="151.290064">
  <ele>342.72</ele>
  <time>2026-09-01T19:57:13Z</time>
  <course>359.86</course>
  <speed>0.0</speed>
  <fix>3d</fix>
</trkpt>
<trkpt lat="-27.274439" lon="151.290064">
  <ele>343.1</ele>
  <time>2026-09-01T19:57:13Z</time>
  <course>270.0</course>
  <speed>0.0</speed>
  <fix>3d</fix>
</trkpt>
<trkpt lat="-27.274439" lon="151.290064">
  <ele>342.94</ele>
  <time>2026-09-01T19:57:13Z</time>
  <course>359.86</course>
  <speed>0.0</speed>
  <fix>3d</fix>
</trkpt>
<trkpt lat="-27.274439" lon="151.290064">
  <ele>343.1</ele>
  <time>2026-09-01T19:57:13Z</time>
  <course>270.0</course>
  <speed>0.0</speed>
  <fix>3d</fix>
</trkpt>
<trkpt lat="-27.274439" lon="151.290064">
  <ele>342.71</ele>
  <time>2026-09-01T19:57:13Z</time>
  <course>359.86</course>
  <speed>0.0</speed>
  <fix>3d</fix>
</trkpt>
<trkpt lat="-27.274439" lon="151.290064">
  <ele>343.1</ele>
  <time>2026-09-01T19:57:13Z</time>
  <course>270.0</course>
  <speed>0.0</speed>
  <fix>3d</fix>
</trkpt>
<trkpt lat="-27.274439" lon="151.290064">
  <ele>342.77</ele>
  <time>2026-09-01T19:57:13Z</time>
  <course>359.87</course>
  <speed>0.0</speed>
  <fix>3d</fix>
</trkpt>
<trkpt lat="-27.274439" lon="151.290064">
  <ele>343.1</ele>
  <time>2026-09-01T19:57:13Z</time>
  <course>270.0</course>
  <speed>0.0</speed>
  <fix>3d</fix>
</trkpt>
<trkpt lat="-27.274439" lon="151.290064">
  <ele>342.82</ele>
  <time>2026-09-01T19:57:13Z</time>
  <course>359.87</course>
  <speed>0.0</speed>
  <fix>3d</fix>
</trkpt>
<trkpt lat="-27.274439" lon="151.290064">
  <ele>343.1</ele>
  <time>2026-09-01T19:57:13Z</time>
  <course>270.0</course>
  <speed>0.0</speed>
  <fix>3d</fix>
</trkpt>
<trkpt lat="-27.274439" lon="151.290064">
  <ele>343.0</ele>
  <time>2026-09-01T19:57:13Z</time>
  <course>359.87</course>
  <speed>0.0</speed>
  <fix>3d</fix>
</trkpt>
<trkpt lat="-27.274439" lon="151.290064">
  <ele>343.1</ele>
  <time>2026-09-01T19:57:13Z</time>
  <course>270.0</course>
  <speed>0.0</speed>
  <fix>3d</fix>
</trkpt>
<trkpt lat="-27.274439" lon="151.290064">
  <ele>342.9</ele>
  <time>2026-09-01T19:57:13Z</time>
  <course>359.87</course>
  <speed>0.0</speed>
  <fix>3d</fix>
</trkpt>
<trkpt lat="-27.274439" lon="151.290064">
  <ele>343.1</ele>
  <time>2026-09-01T19:57:13Z</time>
  <course>270.0</course>
  <speed>0.0</speed>
  <fix>3d</fix>
</trkpt>
<trkpt lat="-27.274439" lon="151.290064">
  <ele>343.02</ele>
  <time>2026-09-01T19:57:13Z</time>
  <course>359.87</course>
  <speed>0.0</speed>
  <fix>3d</fix>
</trkpt>
<trkpt lat="-27.274439" lon="151.290064">
  <ele>343.1</ele>
  <time>2026-09-01T19:57:13Z</time>
  <course>270.0</course>
  <speed>0.0</speed>
  <fix>3d</fix>
</trkpt>
<trkpt lat="-27.274439" lon="151.290064">
  <ele>343.0</ele>
  <time>2026-09-01T19:57:14Z</time>
  <course>359.87</course>
  <speed>0.0</speed>
  <fix>3d</fix>
</trkpt>
<trkpt lat="-27.274439" lon="151.290064">
  <ele>343.1</ele>
  <time>2026-09-01T19:57:14Z</time>
  <course>270.0</course>
  <speed>0.0</speed>
  <fix>3d</fix>
</trkpt>
<trkpt lat="-27.274439" lon="151.290064">
  <ele>343.1</ele>
  <time>2026-09-01T19:57:14Z</time>
  <course>359.87</course>
  <speed>0.0</speed>
  <fix>3d</fix>
</trkpt>
<trkpt lat="-27.274439" lon="151.290064">
  <ele>343.1</ele>
  <time>2026-09-01T19:57:14Z</time>
  <course>270.0</course>
  <speed>0.0</speed>
  <fix>3d</fix>
</trkpt>
<trkpt lat="-27.274439" lon="151.290064">
  <ele>342.98</ele>
  <time>2026-09-01T19:57:14Z</time>
  <course>359.88</course>
  <speed>0.0</speed>
  <fix>3d</fix>
</trkpt>
<trkpt lat="-27.274439" lon="151.290064">
  <ele>343.1</ele>
  <time>2026-09-01T19:57:14Z</time>
  <course>270.0</course>
  <speed>0.0</speed>
  <fix>3d</fix>
</trkpt>
<trkpt lat="-27.274439" lon="151.290064">
  <ele>343.03</ele>
  <time>2026-09-01T19:57:14Z</time>
  <course>359.88</course>
  <speed>0.0</speed>
  <fix>3d</fix>
</trkpt>
<trkpt lat="-27.274439" lon="151.290064">
  <ele>343.1</ele>
  <time>2026-09-01T19:57:14Z</time>
  <course>270.0</course>
  <speed>0.0</speed>
  <fix>3d</fix>
</trkpt>
<trkpt lat="-27.274439" lon="151.290064">
  <ele>342.75</ele>
  <time>2026-09-01T19:57:14Z</time>
  <course>359.88</course>
  <speed>0.0</speed>
  <fix>3d</fix>
</trkpt>
<trkpt lat="-27.274439" lon="151.290064">
  <ele>343.1</ele>
  <time>2026-09-01T19:57:14Z</time>
  <course>270.0</course>
  <speed>0.0</speed>
  <fix>3d</fix>
</trkpt>
<trkpt lat="-27.274439" lon="151.290064">
  <ele>342.84</ele>
  <time>2026-09-01T19:57:14Z</time>
  <course>359.88</course>
  <speed>0.0</speed>
  <fix>3d</fix>
</trkpt>
<trkpt lat="-27.274439" lon="151.290064">
  <ele>343.1</ele>
  <time>2026-09-01T19:57:14Z</time>
  <course>270.0</course>
  <speed>0.0</speed>
  <fix>3d</fix>
</trkpt>
<trkpt lat="-27.274439" lon="151.290064">
  <ele>342.76</ele>
  <time>2026-09-01T19:57:14Z</time>
  <course>359.88</course>
  <speed>0.0</speed>
  <fix>3d</fix>
</trkpt>
<trkpt lat="-27.274439" lon="151.290064">
  <ele>343.1</ele>
  <time>2026-09-01T19:57:14Z</time>
  <course>270.0</course>
  <speed>0.0</speed>
  <fix>3d</fix>
</trkpt>
<trkpt lat="-27.274439" lon="151.290064">
  <ele>343.03</ele>
  <time>2026-09-01T19:57:14Z</time>
  <course>359.88</course>
  <speed>0.0</speed>
  <fix>3d</fix>
</trkpt>
<trkpt lat="-27.274439" lon="151.290064">
  <ele>343.1</ele>
  <time>2026-09-01T19:57:14Z</time>
  <course>270.0</course>
  <speed>0.0</speed>
  <fix>3d</fix>
</trkpt>
<trkpt lat="-27.274439" lon="151.290064">
  <ele>342.98</ele>
  <time>2026-09-01T19:57:14Z</time>
  <course>359.89</course>
  <speed>0.0</speed>
  <fix>3d</fix>
</trkpt>
<trkpt lat="-27.274439" lon="151.290064">
  <ele>343.1</ele>
  <time>2026-09-01T19:57:14Z</time>
  <course>270.0</course>
  <speed>0.0</speed>
  <fix>3d</fix>
</trkpt>
<trkpt lat="-27.274439" lon="151.290064">
  <ele>343.05</ele>
  <time>2026-09-01T19:57:14Z</time>
  <course>359.89</course>
  <speed>0.0</speed>
  <fix>3d</fix>
</trkpt>
<trkpt lat="-27.274439" lon="151.290064">
  <ele>343.1</ele>
  <time>2026-09-01T19:57:14Z</time>
  <course>270.0</course>
  <speed>0.0</speed>
  <fix>3d</fix>
</trkpt>
<trkpt lat="-27.274439" lon="151.290064">
  <ele>342.77</ele>
  <time>2026-09-01T19:57:14Z</time>
  <course>359.89</course>
  <speed>0.0</speed>
  <fix>3d</fix>
</trkpt>
<trkpt lat="-27.274439" lon="151.290064">
  <ele>343.1</ele>
  <time>2026-09-01T19:57:14Z</time>
  <course>270.0</course>
  <speed>0.0</speed>
  <fix>3d</fix>
</trkpt>
<trkpt lat="-27.274439" lon="151.290064">
  <ele>343.02</ele>
  <time>2026-09-01T19:57:14Z</time>
  <course>359.89</course>
  <speed>0.0</speed>
  <fix>3d</fix>
</trkpt>
<trkpt lat="-27.274439" lon="151.290064">
  <ele>343.1</ele>
  <time>2026-09-01T19:57:14Z</time>
  <course>270.0</course>
  <speed>0.0</speed>
  <fix>3d</fix>
</trkpt>
<trkpt lat="-27.274439" lon="151.290064">
  <ele>342.86</ele>
  <time>2026-09-01T19:57:14Z</time>
  <course>359.89</course>
  <speed>0.0</speed>
  <fix>3d</fix>
</trkpt>
<trkpt lat="-27.274439" lon="151.290064">
  <ele>343.1</ele>
  <time>2026-09-01T19:57:14Z</time>
  <course>270.0</course>
  <speed>0.0</speed>
  <fix>3d</fix>
</trkpt>
<trkpt lat="-27.274439" lon="151.290064">
  <ele>342.86</ele>
  <time>2026-09-01T19:57:14Z</time>
  <course>359.89</course>
  <speed>0.0</speed>
  <fix>3d</fix>
</trkpt>
<trkpt lat="-27.274439" lon="151.290064">
  <ele>343.1</ele>
  <time>2026-09-01T19:57:14Z</time>
  <course>270.0</course>
  <speed>0.0</speed>
  <fix>3d</fix>
</trkpt>
<trkpt lat="-27.274439" lon="151.290064">
  <ele>342.98</ele>
  <time>2026-09-01T19:57:14Z</time>
  <course>359.9</course>
  <speed>0.0</speed>
  <fix>3d</fix>
</trkpt>
<trkpt lat="-27.274439" lon="151.290064">
  <ele>343.1</ele>
  <time>2026-09-01T19:57:14Z</time>
  <course>270.0</course>
  <speed>0.0</speed>
  <fix>3d</fix>
</trkpt>
<trkpt lat="-27.274439" lon="151.290064">
  <ele>343.1</ele>
  <time>2026-09-01T19:57:14Z</time>
  <course>0.01</course>
  <speed>0.0</speed>
  <fix>3d</fix>
</trkpt>
<trkpt lat="-27.274439" lon="151.290064">
  <ele>343.1</ele>
  <time>2026-09-01T19:57:14Z</time>
  <course>270.0</course>
  <speed>0.0</speed>
  <fix>3d</fix>
</trkpt>
<trkpt lat="-27.274439" lon="151.290064">
  <ele>343.1</ele>
  <time>2026-09-01T19:57:14Z</time>
  <course>0.01</course>
  <speed>0.0</speed>
  <fix>3d</fix>
</trkpt>
<trkpt lat="-27.274439" lon="151.290064">
  <ele>343.1</ele>
  <time>2026-09-01T19:57:14Z</time>
  <course>270.0</course>
  <speed>0.0</speed>
  <fix>3d</fix>
</trkpt>
<trkpt lat="-27.274439" lon="151.290064">
  <ele>343.1</ele>
  <time>2026-09-01T19:57:14Z</time>
  <course>0.01</course>
  <speed>0.0</speed>
  <fix>3d</fix>
</trkpt>
<trkpt lat="-27.274439" lon="151.290064">
  <ele>343.1</ele>
  <time>2026-09-01T19:57:14Z</time>
  <course>270.0</course>
  <speed>0.0</speed>
  <fix>3d</fix>
</trkpt>
<trkpt lat="-27.274439" lon="151.290064">
  <ele>343.1</ele>
  <time>2026-09-01T19:57:14Z</time>
  <course>0.01</course>
  <speed>0.0</speed>
  <fix>3d</fix>
</trkpt>
<trkpt lat="-27.274439" lon="151.290064">
  <ele>343.1</ele>
  <time>2026-09-01T19:57:14Z</time>
  <course>270.0</course>
  <speed>0.0</speed>
  <fix>3d</fix>
</trkpt>
<trkpt lat="-27.274439" lon="151.290064">
  <ele>343.1</ele>
  <time>2026-09-01T19:57:14Z</time>
  <course>0.01</course>
  <speed>0.0</speed>
  <fix>3d</fix>
</trkpt>
<trkpt lat="-27.274439" lon="151.290064">
  <ele>343.1</ele>
  <time>2026-09-01T19:57:14Z</time>
  <course>270.0</course>
  <speed>0.0</speed>
  <fix>3d</fix>
</trkpt>
<trkpt lat="-27.274439" lon="151.290064">
  <ele>343.1</ele>
  <time>2026-09-01T19:57:14Z</time>
  <course>0.01</course>
  <speed>0.0</speed>
  <fix>3d</fix>
</trkpt>
<trkpt lat="-27.274439" lon="151.290064">
  <ele>343.1</ele>
  <time>2026-09-01T19:57:14Z</time>
  <course>270.0</course>
  <speed>0.0</speed>
  <fix>3d</fix>
</trkpt>
<trkpt lat="-27.274439" lon="151.290064">
  <ele>343.1</ele>
  <time>2026-09-01T19:57:14Z</time>
  <course>0.01</course>
  <speed>0.0</speed>
  <fix>3d</fix>
</trkpt>
<trkpt lat="-27.274439" lon="151.290064">
  <ele>343.1</ele>
  <time>2026-09-01T19:57:14Z</time>
  <course>270.0</course>
  <speed>0.0</speed>
  <fix>3d</fix>
</trkpt>
<trkpt lat="-27.274439" lon="151.290064">
  <ele>343.1</ele>
  <time>2026-09-01T19:57:14Z</time>
  <course>0.01</course>
  <speed>0.0</speed>
  <fix>3d</fix>
</trkpt>
<trkpt lat="-27.274439" lon="151.290064">
  <ele>343.1</ele>
  <time>2026-09-01T19:57:14Z</time>
  <course>270.0</course>
  <speed>0.0</speed>
  <fix>3d</fix>
</trkpt>
<trkpt lat="-27.274439" lon="151.290064">
  <ele>343.1</ele>
  <time>2026-09-01T19:57:14Z</time>
  <course>0.01</course>
  <speed>0.0</speed>
  <fix>3d</fix>
</trkpt>
<trkpt lat="-27.274439" lon="151.290064">
  <ele>343.1</ele>
  <time>2026-09-01T19:57:14Z</time>
  <course>270.0</course>
  <speed>0.0</speed>
  <fix>3d</fix>
</trkpt>
<trkpt lat="-27.274439" lon="151.290064">
  <ele>343.1</ele>
  <time>2026-09-01T19:57:14Z</time>
  <course>0.01</course>
  <speed>0.0</speed>
  <fix>3d</fix>
</trkpt>
<trkpt lat="-27.274439" lon="151.290064">
  <ele>343.1</ele>
  <time>2026-09-01T19:57:14Z</time>
  <course>270.0</course>
  <speed>0.0</speed>
  <fix>3d</fix>
</trkpt>
<trkpt lat="-27.274439" lon="151.290064">
  <ele>343.1</ele>
  <time>2026-09-01T19:57:14Z</time>
  <course>0.01</course>
  <speed>0.0</speed>
  <fix>3d</fix>
</trkpt>
<trkpt lat="-27.274439" lon="151.290064">
  <ele>343.1</ele>
  <time>2026-09-01T19:57:14Z</time>
  <course>270.0</course>
  <speed>0.0</speed>
  <fix>3d</fix>
</trkpt>
<trkpt lat="-27.274439" lon="151.290064">
  <ele>343.1</ele>
  <time>2026-09-01T19:57:14Z</time>
  <course>0.01</course>
  <speed>0.0</speed>
  <fix>3d</fix>
</trkpt>
<trkpt lat="-27.274439" lon="151.290064">
  <ele>343.1</ele>
  <time>2026-09-01T19:57:14Z</time>
  <course>270.0</course>
  <speed>0.0</speed>
  <fix>3d</fix>
</trkpt>
<trkpt lat="-27.274439" lon="151.290064">
  <ele>343.1</ele>
  <time>2026-09-01T19:57:14Z</time>
  <course>0.01</course>
  <speed>0.0</speed>
  <fix>3d</fix>
</trkpt>
<trkpt lat="-27.274439" lon="151.290064">
  <ele>343.1</ele>
  <time>2026-09-01T19:57:14Z</time>
  <course>270.0</course>
  <speed>0.0</speed>
  <fix>3d</fix>
</trkpt>
<trkpt lat="-27.274439" lon="151.290064">
  <ele>343.1</ele>
  <time>2026-09-01T19:57:14Z</time>
  <course>0.01</course>
  <speed>0.0</speed>
  <fix>3d</fix>
</trkpt>
<trkpt lat="-27.274439" lon="151.290064">
  <ele>343.1</ele>
  <time>2026-09-01T19:57:14Z</time>
  <course>270.0</course>
  <speed>0.0</speed>
  <fix>3d</fix>
</trkpt>
<trkpt lat="-27.274439" lon="151.290064">
  <ele>343.1</ele>
  <time>2026-09-01T19:57:14Z</time>
  <course>0.01</course>
  <speed>0.0</speed>
  <fix>3d</fix>
</trkpt>
<trkpt lat="-27.274439" lon="151.290064">
  <ele>343.1</ele>
  <time>2026-09-01T19:57:14Z</time>
  <course>270.0</course>
  <speed>0.0</speed>
  <fix>3d</fix>
</trkpt>
<trkpt lat="-27.274439" lon="151.290064">
  <ele>343.1</ele>
  <time>2026-09-01T19:57:14Z</time>
  <course>0.01</course>
  <speed>0.0</speed>
  <fix>3d</fix>
</trkpt>
<trkpt lat="-27.274439" lon="151.290064">
  <ele>343.1</ele>
  <time>2026-09-01T19:57:14Z</time>
  <course>270.0</course>
  <speed>0.0</speed>
  <fix>3d</fix>
</trkpt>
<trkpt lat="-27.274439" lon="151.290064">
  <ele>343.1</ele>
  <time>2026-09-01T19:57:14Z</time>
  <course>0.01</course>
  <speed>0.0</speed>
  <fix>3d</fix>
</trkpt>
<trkpt lat="-27.274439" lon="151.290064">
  <ele>343.1</ele>
  <time>2026-09-01T19:57:14Z</time>
  <course>270.0</course>
  <speed>0.0</speed>
  <fix>3d</fix>
</trkpt>
<trkpt lat="-27.274439" lon="151.290064">
  <ele>343.1</ele>
  <time>2026-09-01T19:57:14Z</time>
  <course>0.01</course>
  <speed>0.0</speed>
  <fix>3d</fix>
</trkpt>
<trkpt lat="-27.274439" lon="151.290064">
  <ele>343.1</ele>
  <time>2026-09-01T19:57:14Z</time>
  <course>270.0</course>
  <speed>0.0</speed>
  <fix>3d</fix>
</trkpt>
<trkpt lat="-27.274439" lon="151.290064">
  <ele>343.1</ele>
  <time>2026-09-01T19:57:14Z</time>
  <course>0.01</course>
  <speed>0.0</speed>
  <fix>3d</fix>
</trkpt>
<trkpt lat="-27.274439" lon="151.290064">
  <ele>343.1</ele>
  <time>2026-09-01T19:57:14Z</time>
  <course>270.0</course>
  <speed>0.0</speed>
  <fix>3d</fix>
</trkpt>
<trkpt lat="-27.274439" lon="151.290064">
  <ele>343.1</ele>
  <time>2026-09-01T19:57:14Z</time>
  <course>0.01</course>
  <speed>0.0</speed>
  <fix>3d</fix>
</trkpt>
<trkpt lat="-27.274439" lon="151.290064">
  <ele>343.1</ele>
  <time>2026-09-01T19:57:14Z</time>
  <course>270.0</course>
  <speed>0.0</speed>
  <fix>3d</fix>
</trkpt>
<trkpt lat="-27.274439" lon="151.290064">
  <ele>343.1</ele>
  <time>2026-09-01T19:57:14Z</time>
  <course>0.02</course>
  <speed>0.0</speed>
  <fix>3d</fix>
</trkpt>
<trkpt lat="-27.274439" lon="151.290064">
  <ele>343.1</ele>
  <time>2026-09-01T19:57:14Z</time>
  <course>133.33</course>
  <speed>0.0</speed>
  <fix>3d</fix>
</trkpt>
<trkpt lat="-27.274439" lon="151.290064">
  <ele>343.1</ele>
  <time>2026-09-01T19:57:14Z</time>
  <course>0.02</course>
  <speed>0.0</speed>
  <fix>3d</fix>
</trkpt>
<trkpt lat="-27.274439" lon="151.290064">
  <ele>343.1</ele>
  <time>2026-09-01T19:57:14Z</time>
  <course>0.02</course>
  <speed>0.0</speed>
  <fix>3d</fix>
</trkpt>
<trkpt lat="-27.274439" lon="151.290064">
  <ele>343.1</ele>
  <time>2026-09-01T19:57:14Z</time>
  <course>133.33</course>
  <speed>0.0</speed>
  <fix>3d</fix>
</trkpt>
<trkpt lat="-27.274439" lon="151.290064">
  <ele>343.1</ele>
  <time>2026-09-01T19:57:14Z</time>
  <course>0.02</course>
  <speed>0.0</speed>
  <fix>3d</fix>
</trkpt>
<trkpt lat="-27.274439" lon="151.290064">
  <ele>343.1</ele>
  <time>2026-09-01T19:57:14Z</time>
  <course>0.02</course>
  <speed>0.0</speed>
  <fix>3d</fix>
</trkpt>
<trkpt lat="-27.274439" lon="151.290064">
  <ele>343.1</ele>
  <time>2026-09-01T19:57:14Z</time>
  <course>134.25</course>
  <speed>0.0</speed>
  <fix>3d</fix>
</trkpt>
<trkpt lat="-27.274439" lon="151.290064">
  <ele>343.1</ele>
  <time>2026-09-01T19:57:14Z</time>
  <course>0.02</course>
  <speed>0.0</speed>
  <fix>3d</fix>
</trkpt>
<trkpt lat="-27.274439" lon="151.290064">
  <ele>343.1</ele>
  <time>2026-09-01T19:57:14Z</time>
  <course>0.02</course>
  <speed>0.0</speed>
  <fix>3d</fix>
</trkpt>
<trkpt lat="-27.274439" lon="151.290064">
  <ele>343.1</ele>
  <time>2026-09-01T19:57:14Z</time>
  <course>134.25</course>
  <speed>0.0</speed>
  <fix>3d</fix>
</trkpt>
<trkpt lat="-27.274439" lon="151.290064">
  <ele>343.1</ele>
  <time>2026-09-01T19:57:14Z</time>
  <course>0.02</course>
  <speed>0.0</speed>
  <fix>3d</fix>
</trkpt>
<trkpt lat="-27.274439" lon="151.290064">
  <ele>343.1</ele>
  <time>2026-09-01T19:57:14Z</time>
  <course>0.02</course>
  <speed>0.0</speed>
  <fix>3d</fix>
</trkpt>
<trkpt lat="-27.274439" lon="151.290064">
  <ele>343.1</ele>
  <time>2026-09-01T19:57:14Z</time>
  <course>144.05</course>
  <speed>0.0</speed>
  <fix>3d</fix>
</trkpt>
<trkpt lat="-27.274439" lon="151.290064">
  <ele>343.1</ele>
  <time>2026-09-01T19:57:14Z</time>
  <course>0.02</course>
  <speed>0.0</speed>
  <fix>3d</fix>
</trkpt>
<trkpt lat="-27.274439" lon="151.290064">
  <ele>343.1</ele>
  <time>2026-09-01T19:57:14Z</time>
  <course>0.02</course>
  <speed>0.0</speed>
  <fix>3d</fix>
</trkpt>
<trkpt lat="-27.274439" lon="151.290064">
  <ele>343.1</ele>
  <time>2026-09-01T19:57:14Z</time>
  <course>144.05</course>
  <speed>0.0</speed>
  <fix>3d</fix>
</trkpt>
<trkpt lat="-27.274439" lon="151.290064">
  <ele>343.1</ele>
  <time>2026-09-01T19:57:14Z</time>
  <course>0.02</course>
  <speed>0.0</speed>
  <fix>3d</fix>
</trkpt>
<trkpt lat="-27.274439" lon="151.290064">
  <ele>343.1</ele>
  <time>2026-09-01T19:57:14Z</time>
  <course>0.02</course>
  <speed>0.0</speed>
  <fix>3d</fix>
</trkpt>
<trkpt lat="-27.274439" lon="151.290064">
  <ele>343.1</ele>
  <time>2026-09-01T19:57:14Z</time>
  <course>310.18</course>
  <speed>0.0</speed>
  <fix>3d</fix>
</trkpt>
<trkpt lat="-27.274439" lon="151.290064">
  <ele>343.1</ele>
  <time>2026-09-01T19:57:14Z</time>
  <course>0.02</course>
  <speed>0.0</speed>
  <fix>3d</fix>
</trkpt>
<trkpt lat="-27.274439" lon="151.290064">
  <ele>343.1</ele>
  <time>2026-09-01T19:57:14Z</time>
  <course>0.02</course>
  <speed>0.0</speed>
  <fix>3d</fix>
</trkpt>
<trkpt lat="-27.274439" lon="151.290064">
  <ele>343.1</ele>
  <time>2026-09-01T19:57:14Z</time>
  <course>310.18</course>
  <speed>0.0</speed>
  <fix>3d</fix>
</trkpt>
<trkpt lat="-27.274439" lon="151.290064">
  <ele>343.1</ele>
  <time>2026-09-01T19:57:14Z</time>
  <course>0.02</course>
  <speed>0.0</speed>
  <fix>3d</fix>
</trkpt>
<trkpt lat="-27.274439" lon="151.290064">
  <ele>343.1</ele>
  <time>2026-09-01T19:57:14Z</time>
  <course>0.02</course>
  <speed>0.0</speed>
  <fix>3d</fix>
</trkpt>
<trkpt lat="-27.274439" lon="151.290064">
  <ele>343.1</ele>
  <time>2026-09-01T19:57:14Z</time>
  <course>7.31</course>
  <speed>0.0</speed>
  <fix>3d</fix>
</trkpt>
<trkpt lat="-27.274439" lon="151.290064">
  <ele>343.1</ele>
  <time>2026-09-01T19:57:14Z</time>
  <course>0.02</course>
  <speed>0.0</speed>
  <fix>3d</fix>
</trkpt>
<trkpt lat="-27.274439" lon="151.290064">
  <ele>343.1</ele>
  <time>2026-09-01T19:57:14Z</time>
  <course>0.02</course>
  <speed>0.0</speed>
  <fix>3d</fix>
</trkpt>
<trkpt lat="-27.274439" lon="151.290064">
  <ele>343.1</ele>
  <time>2026-09-01T19:57:14Z</time>
  <course>7.31</course>
  <speed>0.0</speed>
  <fix>3d</fix>
</trkpt>
<trkpt lat="-27.274439" lon="151.290064">
  <ele>343.13</ele>
  <time>2026-09-01T19:57:14Z</time>
  <course>0.02</course>
  <speed>0.0</speed>
  <fix>3d</fix>
</trkpt>
<trkpt lat="-27.274439" lon="151.290064">
  <ele>343.13</ele>
  <time>2026-09-01T19:57:14Z</time>
  <course>0.02</course>
  <speed>0.0</speed>
  <fix>3d</fix>
</trkpt>
<trkpt lat="-27.274439" lon="151.290064">
  <ele>343.13</ele>
  <time>2026-09-01T19:57:14Z</time>
  <course>7.89</course>
  <speed>0.0</speed>
  <fix>3d</fix>
</trkpt>
<trkpt lat="-27.274439" lon="151.290064">
  <ele>343.13</ele>
  <time>2026-09-01T19:57:14Z</time>
  <course>0.02</course>
  <speed>0.0</speed>
  <fix>3d</fix>
</trkpt>
<trkpt lat="-27.274439" lon="151.290064">
  <ele>343.13</ele>
  <time>2026-09-01T19:57:14Z</time>
  <course>0.02</course>
  <speed>0.02</speed>
  <fix>3d</fix>
</trkpt>
<trkpt lat="-27.274439" lon="151.290064">
  <ele>343.13</ele>
  <time>2026-09-01T19:57:14Z</time>
  <course>7.89</course>
  <speed>0.0</speed>
  <fix>3d</fix>
</trkpt>
<trkpt lat="-27.274439" lon="151.290064">
  <ele>343.25</ele>
  <time>2026-09-01T19:57:14Z</time>
  <course>0.02</course>
  <speed>0.02</speed>
  <fix>3d</fix>
</trkpt>
<trkpt lat="-27.274439" lon="151.290064">
  <ele>343.25</ele>
  <time>2026-09-01T19:57:14Z</time>
  <course>0.02</course>
  <speed>0.05</speed>
  <fix>3d</fix>
</trkpt>
<trkpt lat="-27.274439" lon="151.290064">
  <ele>343.25</ele>
  <time>2026-09-01T19:57:14Z</time>
  <course>5.59</course>
  <speed>0.01</speed>
  <fix>3d</fix>
</trkpt>
<trkpt lat="-27.274439" lon="151.290064">
  <ele>343.25</ele>
  <time>2026-09-01T19:57:14Z</time>
  <course>0.02</course>
  <speed>0.06</speed>
  <fix>3d</fix>
</trkpt>
<trkpt lat="-27.274439" lon="151.290064">
  <ele>343.25</ele>
  <time>2026-09-01T19:57:14Z</time>
  <course>0.02</course>
  <speed>0.09</speed>
  <fix>3d</fix>
</trkpt>
<trkpt lat="-27.274439" lon="151.290064">
  <ele>343.25</ele>
  <time>2026-09-01T19:57:14Z</time>
  <course>5.59</course>
  <speed>0.01</speed>
  <fix>3d</fix>
</trkpt>
<trkpt lat="-27.274439" lon="151.290064">
  <ele>343.25</ele>
  <time>2026-09-01T19:57:14Z</time>
  <course>0.02</course>
  <speed>0.09</speed>
  <fix>3d</fix>
</trkpt>
<trkpt lat="-27.274439" lon="151.290064">
  <ele>343.53</ele>
  <time>2026-09-01T19:57:14Z</time>
  <course>0.02</course>
  <speed>0.13</speed>
  <fix>3d</fix>
</trkpt>
<trkpt lat="-27.274439" lon="151.290064">
  <ele>343.53</ele>
  <time>2026-09-01T19:57:14Z</time>
  <course>5.71</course>
  <speed>0.06</speed>
  <fix>3d</fix>
</trkpt>
<trkpt lat="-27.274439" lon="151.290064">
  <ele>343.53</ele>
  <time>2026-09-01T19:57:14Z</time>
  <course>0.02</course>
  <speed>0.14</speed>
  <fix>3d</fix>
</trkpt>
<trkpt lat="-27.274439" lon="151.290064">
  <ele>343.53</ele>
  <time>2026-09-01T19:57:14Z</time>
  <course>0.01</course>
  <speed>0.17</speed>
  <fix>3d</fix>
</trkpt>
<trkpt lat="-27.274439" lon="151.290064">
  <ele>343.53</ele>
  <time>2026-09-01T19:57:14Z</time>
  <course>5.71</course>
  <speed>0.06</speed>
  <fix>3d</fix>
</trkpt>
<trkpt lat="-27.2744388" lon="151.290064">
  <ele>343.99</ele>
  <time>2026-09-01T19:57:14Z</time>
  <course>0.01</course>
  <speed>0.18</speed>
  <fix>3d</fix>
</trkpt>
<trkpt lat="-27.2744388" lon="151.290064">
  <ele>343.99</ele>
  <time>2026-09-01T19:57:14Z</time>
  <course>0.0</course>
  <speed>0.21</speed>
  <fix>3d</fix>
</trkpt>
<trkpt lat="-27.2744388" lon="151.290064">
  <ele>343.99</ele>
  <time>2026-09-01T19:57:14Z</time>
  <course>5.91</course>
  <speed>0.14</speed>
  <fix>3d</fix>
</trkpt>
<trkpt lat="-27.2744388" lon="151.290064">
  <ele>343.99</ele>
  <time>2026-09-01T19:57:14Z</time>
  <course>0.0</course>
  <speed>0.22</speed>
  <fix>3d</fix>
</trkpt>
<trkpt lat="-27.2744388" lon="151.290064">
  <ele>343.99</ele>
  <time>2026-09-01T19:57:14Z</time>
  <course>359.99</course>
  <speed>0.25</speed>
  <fix>3d</fix>
</trkpt>
<trkpt lat="-27.2744388" lon="151.290064">
  <ele>343.99</ele>
  <time>2026-09-01T19:57:14Z</time>
  <course>5.91</course>
  <speed>0.14</speed>
  <fix>3d</fix>
</trkpt>
<trkpt lat="-27.2744388" lon="151.290064">
  <ele>343.99</ele>
  <time>2026-09-01T19:57:14Z</time>
  <course>359.99</course>
  <speed>0.25</speed>
  <fix>3d</fix>
</trkpt>
<trkpt lat="-27.2744385" lon="151.290064">
  <ele>344.53</ele>
  <time>2026-09-01T19:57:14Z</time>
  <course>359.98</course>
  <speed>0.29</speed>
  <fix>3d</fix>
</trkpt>
<trkpt lat="-27.2744385" lon="151.290064">
  <ele>344.53</ele>
  <time>2026-09-01T19:57:14Z</time>
  <course>6.1</course>
  <speed>0.22</speed>
  <fix>3d</fix>
</trkpt>
<trkpt lat="-27.2744385" lon="151.290064">
  <ele>344.53</ele>
  <time>2026-09-01T19:57:14Z</time>
  <course>359.98</course>
  <speed>0.29</speed>
  <fix>3d</fix>
</trkpt>
<trkpt lat="-27.2744385" lon="151.290064">
  <ele>344.53</ele>
  <time>2026-09-01T19:57:14Z</time>
  <course>359.97</course>
  <speed>0.32</speed>
  <fix>3d</fix>
</trkpt>
<trkpt lat="-27.2744385" lon="151.290064">
  <ele>344.53</ele>
  <time>2026-09-01T19:57:14Z</time>
  <course>6.1</course>
  <speed>0.22</speed>
  <fix>3d</fix>
</trkpt>
<trkpt lat="-27.274438" lon="151.290064">
  <ele>345.11</ele>
  <time>2026-09-01T19:57:14Z</time>
  <course>359.97</course>
  <speed>0.33</speed>
  <fix>3d</fix>
</trkpt>
<trkpt lat="-27.274438" lon="151.290064">
  <ele>345.11</ele>
  <time>2026-09-01T19:57:14Z</time>
  <course>359.96</course>
  <speed>0.35</speed>
  <fix>3d</fix>
</trkpt>
<trkpt lat="-27.274438" lon="151.290064">
  <ele>345.11</ele>
  <time>2026-09-01T19:57:14Z</time>
  <course>6.3</course>
  <speed>0.3</speed>
  <fix>3d</fix>
</trkpt>
<trkpt lat="-27.274438" lon="151.290064">
  <ele>345.11</ele>
  <time>2026-09-01T19:57:14Z</time>
  <course>359.96</course>
  <speed>0.35</speed>
  <fix>3d</fix>
</trkpt>
<trkpt lat="-27.274438" lon="151.290064">
  <ele>345.11</ele>
  <time>2026-09-01T19:57:14Z</time>
  <course>359.96</course>
  <speed>0.37</speed>
  <fix>3d</fix>
</trkpt>
<trkpt lat="-27.274438" lon="151.290064">
  <ele>345.11</ele>
  <time>2026-09-01T19:57:14Z</time>
  <course>6.3</course>
  <speed>0.3</speed>
  <fix>3d</fix>
</trkpt>
<trkpt lat="-27.2744374" lon="151.2900641">
  <ele>345.71</ele>
  <time>2026-09-01T19:57:14Z</time>
  <course>359.96</course>
  <speed>0.38</speed>
  <fix>3d</fix>
</trkpt>
<trkpt lat="-27.2744374" lon="151.2900641">
  <ele>345.71</ele>
  <time>2026-09-01T19:57:14Z</time>
  <course>359.96</course>
  <speed>0.39</speed>
  <fix>3d</fix>
</trkpt>
<trkpt lat="-27.2744374" lon="151.2900641">
  <ele>345.71</ele>
  <time>2026-09-01T19:57:14Z</time>
  <course>6.41</course>
  <speed>0.36</speed>
  <fix>3d</fix>
</trkpt>
<trkpt lat="-27.2744374" lon="151.2900641">
  <ele>345.71</ele>
  <time>2026-09-01T19:57:14Z</time>
  <course>359.96</course>
  <speed>0.39</speed>
  <fix>3d</fix>
</trkpt>
<trkpt lat="-27.2744374" lon="151.2900641">
  <ele>345.71</ele>
  <time>2026-09-01T19:57:14Z</time>
  <course>359.96</course>
  <speed>0.4</speed>
  <fix>3d</fix>
</trkpt>
<trkpt lat="-27.2744374" lon="151.2900641">
  <ele>345.71</ele>
  <time>2026-09-01T19:57:14Z</time>
  <course>6.41</course>
  <speed>0.36</speed>
  <fix>3d</fix>
</trkpt>
<trkpt lat="-27.2744374" lon="151.2900641">
  <ele>345.71</ele>
  <time>2026-09-01T19:57:14Z</time>
  <course>359.96</course>
  <speed>0.4</speed>
  <fix>3d</fix>
</trkpt>
<trkpt lat="-27.2744367" lon="151.2900642">
  <ele>346.33</ele>
  <time>2026-09-01T19:57:14Z</time>
  <course>359.96</course>
  <speed>0.41</speed>
  <fix>3d</fix>
</trkpt>
<trkpt lat="-27.2744367" lon="151.2900642">
  <ele>346.33</ele>
  <time>2026-09-01T19:57:14Z</time>
  <course>6.42</course>
  <speed>0.4</speed>
  <fix>3d</fix>
</trkpt>
<trkpt lat="-27.2744367" lon="151.2900642">
  <ele>346.33</ele>
  <time>2026-09-01T19:57:14Z</time>
  <course>359.96</course>
  <speed>0.41</speed>
  <fix>3d</fix>
</trkpt>
<trkpt lat="-27.2744367" lon="151.2900642">
  <ele>346.33</ele>
  <time>2026-09-01T19:57:14Z</time>
  <course>359.96</course>
  <speed>0.41</speed>
  <fix>3d</fix>
</trkpt>
<trkpt lat="-27.2744367" lon="151.2900642">
  <ele>346.33</ele>
  <time>2026-09-01T19:57:14Z</time>
  <course>6.42</course>
  <speed>0.4</speed>
  <fix>3d</fix>
</trkpt>
<trkpt lat="-27.274436" lon="151.2900643">
  <ele>346.93</ele>
  <time>2026-09-01T19:57:14Z</time>
  <course>359.96</course>
  <speed>0.41</speed>
  <fix>3d</fix>
</trkpt>
<trkpt lat="-27.274436" lon="151.2900643">
  <ele>346.93</ele>
  <time>2026-09-01T19:57:14Z</time>
  <course>359.96</course>
  <speed>0.4</speed>
  <fix>3d</fix>
</trkpt>
<trkpt lat="-27.274436" lon="151.2900643">
  <ele>346.93</ele>
  <time>2026-09-01T19:57:14Z</time>
  <course>6.32</course>
  <speed>0.43</speed>
  <fix>3d</fix>
</trkpt>
<trkpt lat="-27.274436" lon="151.2900643">
  <ele>346.93</ele>
  <time>2026-09-01T19:57:14Z</time>
  <course>359.97</course>
  <speed>0.4</speed>
  <fix>3d</fix>
</trkpt>
<trkpt lat="-27.274436" lon="151.2900643">
  <ele>346.93</ele>
  <time>2026-09-01T19:57:14Z</time>
  <course>359.97</course>
  <speed>0.39</speed>
  <fix>3d</fix>
</trkpt>
<trkpt lat="-27.274436" lon="151.2900643">
  <ele>346.93</ele>
  <time>2026-09-01T19:57:14Z</time>
  <course>6.32</course>
  <speed>0.43</speed>
  <fix>3d</fix>
</trkpt>
<trkpt lat="-27.2744352" lon="151.2900644">
  <ele>347.51</ele>
  <time>2026-09-01T19:57:14Z</time>
  <course>359.97</course>
  <speed>0.39</speed>
  <fix>3d</fix>
</trkpt>
<trkpt lat="-27.2744352" lon="151.2900644">
  <ele>347.51</ele>
  <time>2026-09-01T19:57:14Z</time>
  <course>359.97</course>
  <speed>0.38</speed>
  <fix>3d</fix>
</trkpt>
<trkpt lat="-27.2744352" lon="151.2900644">
  <ele>347.51</ele>
  <time>2026-09-01T19:57:14Z</time>
  <course>6.06</course>
  <speed>0.43</speed>
  <fix>3d</fix>
</trkpt>
<trkpt lat="-27.2744352" lon="151.2900644">
  <ele>347.51</ele>
  <time>2026-09-01T19:57:14Z</time>
  <course>359.97</course>
  <speed>0.37</speed>
  <fix>3d</fix>
</trkpt>
<trkpt lat="-27.2744352" lon="151.2900644">
  <ele>347.51</ele>
  <time>2026-09-01T19:57:14Z</time>
  <course>359.97</course>
  <speed>0.36</speed>
  <fix>3d</fix>
</trkpt>
<trkpt lat="-27.2744352" lon="151.2900644">
  <ele>347.51</ele>
  <time>2026-09-01T19:57:14Z</time>
  <course>6.06</course>
  <speed>0.43</speed>
  <fix>3d</fix>
</trkpt>
<trkpt lat="-27.2744344" lon="151.2900645">
  <ele>348.07</ele>
  <time>2026-09-01T19:57:14Z</time>
  <course>359.97</course>
  <speed>0.35</speed>
  <fix>3d</fix>
</trkpt>
<trkpt lat="-27.2744344" lon="151.2900645">
  <ele>348.07</ele>
  <time>2026-09-01T19:57:14Z</time>
  <course>359.96</course>
  <speed>0.34</speed>
  <fix>3d</fix>
</trkpt>
<trkpt lat="-27.2744344" lon="151.2900645">
  <ele>348.07</ele>
  <time>2026-09-01T19:57:14Z</time>
  <course>5.65</course>
  <speed>0.41</speed>
  <fix>3d</fix>
</trkpt>
<trkpt lat="-27.2744344" lon="151.2900645">
  <ele>348.07</ele>
  <time>2026-09-01T19:57:14Z</time>
  <course>359.96</course>
  <speed>0.33</speed>
  <fix>3d</fix>
</trkpt>
<trkpt lat="-27.2744344" lon="151.2900645">
  <ele>348.07</ele>
  <time>2026-09-01T19:57:14Z</time>
  <course>359.96</course>
  <speed>0.31</speed>
  <fix>3d</fix>
</trkpt>
<trkpt lat="-27.2744344" lon="151.2900645">
  <ele>348.07</ele>
  <time>2026-09-01T19:57:14Z</time>
  <course>5.65</course>
  <speed>0.41</speed>
  <fix>3d</fix>
</trkpt>
<trkpt lat="-27.2744337" lon="151.2900645">
  <ele>348.59</ele>
  <time>2026-09-01T19:57:14Z</time>
  <course>359.95</course>
  <speed>0.3</speed>
  <fix>3d</fix>
</trkpt>
<trkpt lat="-27.2744337" lon="151.2900645">
  <ele>348.59</ele>
  <time>2026-09-01T19:57:14Z</time>
  <course>359.95</course>
  <speed>0.28</speed>
  <fix>3d</fix>
</trkpt>
<trkpt lat="-27.2744337" lon="151.2900645">
  <ele>348.59</ele>
  <time>2026-09-01T19:57:14Z</time>
  <course>5.04</course>
  <speed>0.38</speed>
  <fix>3d</fix>
</trkpt>
<trkpt lat="-27.2744337" lon="151.2900645">
  <ele>348.59</ele>
  <time>2026-09-01T19:57:14Z</time>
  <course>359.95</course>
  <speed>0.27</speed>
  <fix>3d</fix>
</trkpt>
<trkpt lat="-27.2744337" lon="151.2900645">
  <ele>348.59</ele>
  <time>2026-09-01T19:57:14Z</time>
  <course>359.94</course>
  <speed>0.24</speed>
  <fix>3d</fix>
</trkpt>
<trkpt lat="-27.2744337" lon="151.2900645">
  <ele>348.59</ele>
  <time>2026-09-01T19:57:14Z</time>
  <course>5.04</course>
  <speed>0.38</speed>
  <fix>3d</fix>
</trkpt>
<trkpt lat="-27.2744331" lon="151.2900646">
  <ele>349.11</ele>
  <time>2026-09-01T19:57:14Z</time>
  <course>359.94</course>
  <speed>0.23</speed>
  <fix>3d</fix>
</trkpt>
<trkpt lat="-27.2744331" lon="151.2900646">
  <ele>349.11</ele>
  <time>2026-09-01T19:57:14Z</time>
  <course>359.93</course>
  <speed>0.21</speed>
  <fix>3d</fix>
</trkpt>
<trkpt lat="-27.2744331" lon="151.2900646">
  <ele>349.11</ele>
  <time>2026-09-01T19:57:14Z</time>
  <course>4.17</course>
  <speed>0.33</speed>
  <fix>3d</fix>
</trkpt>
<trkpt lat="-27.2744331" lon="151.2900646">
  <ele>349.11</ele>
  <time>2026-09-01T19:57:14Z</time>
  <course>359.93</course>
  <speed>0.21</speed>
  <fix>3d</fix>
</trkpt>
<trkpt lat="-27.2744331" lon="151.2900646">
  <ele>349.11</ele>
  <time>2026-09-01T19:57:14Z</time>
  <course>359.92</course>
  <speed>0.17</speed>
  <fix>3d</fix>
</trkpt>
<trkpt lat="-27.2744331" lon="151.2900646">
  <ele>349.11</ele>
  <time>2026-09-01T19:57:14Z</time>
  <course>4.17</course>
  <speed>0.33</speed>
  <fix>3d</fix>
</trkpt>
<trkpt lat="-27.2744325" lon="151.2900646">
  <ele>349.59</ele>
  <time>2026-09-01T19:57:14Z</time>
  <course>359.92</course>
  <speed>0.16</speed>
  <fix>3d</fix>
</trkpt>
<trkpt lat="-27.2744325" lon="151.2900646">
  <ele>349.59</ele>
  <time>2026-09-01T19:57:14Z</time>
  <course>359.91</course>
  <speed>0.13</speed>
  <fix>3d</fix>
</trkpt>
<trkpt lat="-27.2744325" lon="151.2900646">
  <ele>349.59</ele>
  <time>2026-09-01T19:57:14Z</time>
  <course>2.87</course>
  <speed>0.28</speed>
  <fix>3d</fix>
</trkpt>
<trkpt lat="-27.2744325" lon="151.2900646">
  <ele>349.59</ele>
  <time>2026-09-01T19:57:14Z</time>
  <course>359.9</course>
  <speed>0.12</speed>
  <fix>3d</fix>
</trkpt>
<trkpt lat="-27.2744325" lon="151.2900646">
  <ele>349.59</ele>
  <time>2026-09-01T19:57:14Z</time>
  <course>359.89</course>
  <speed>0.09</speed>
  <fix>3d</fix>
</trkpt>
<trkpt lat="-27.2744325" lon="151.2900646">
  <ele>349.59</ele>
  <time>2026-09-01T19:57:14Z</time>
  <course>2.87</course>
  <speed>0.28</speed>
  <fix>3d</fix>
</trkpt>
<trkpt lat="-27.2744321" lon="151.2900646">
  <ele>350.07</ele>
  <time>2026-09-01T19:57:14Z</time>
  <course>359.89</course>
  <speed>0.08</speed>
  <fix>3d</fix>
</trkpt>
<trkpt lat="-27.2744321" lon="151.2900646">
  <ele>350.07</ele>
  <time>2026-09-01T19:57:14Z</time>
  <course>359.88</course>
  <speed>0.05</speed>
  <fix>3d</fix>
</trkpt>
<trkpt lat="-27.2744321" lon="151.2900646">
  <ele>350.07</ele>
  <time>2026-09-01T19:57:14Z</time>
  <course>0.83</course>
  <speed>0.22</speed>
  <fix>3d</fix>
</trkpt>
<trkpt lat="-27.2744321" lon="151.2900646">
  <ele>350.07</ele>
  <time>2026-09-01T19:57:14Z</time>
  <course>359.88</course>
  <speed>0.05</speed>
  <fix>3d</fix>
</trkpt>
<trkpt lat="-27.2744321" lon="151.2900646">
  <ele>350.07</ele>
  <time>2026-09-01T19:57:14Z</time>
  <course>359.86</course>
  <speed>0.02</speed>
  <fix>3d</fix>
</trkpt>
<trkpt lat="-27.2744321" lon="151.2900646">
  <ele>350.07</ele>
  <time>2026-09-01T19:57:14Z</time>
  <course>0.83</course>
  <speed>0.22</speed>
  <fix>3d</fix>
</trkpt>
<trkpt lat="-27.2744317" lon="151.2900646">
  <ele>350.55</ele>
  <time>2026-09-01T19:57:14Z</time>
  <course>359.86</course>
  <speed>0.01</speed>
  <fix>3d</fix>
</trkpt>
<trkpt lat="-27.2744317" lon="151.2900646">
  <ele>350.55</ele>
  <time>2026-09-01T19:57:14Z</time>
  <course>359.84</course>
  <speed>0.01</speed>
  <fix>3d</fix>
</trkpt>
<trkpt lat="-27.2744317" lon="151.2900646">
  <ele>350.55</ele>
  <time>2026-09-01T19:57:14Z</time>
  <course>357.5</course>
  <speed>0.16</speed>
  <fix>3d</fix>
</trkpt>
<trkpt lat="-27.2744317" lon="151.2900646">
  <ele>350.55</ele>
  <time>2026-09-01T19:57:14Z</time>
  <course>359.83</course>
  <speed>0.02</speed>
  <fix>3d</fix>
</trkpt>
<trkpt lat="-27.2744317" lon="151.2900646">
  <ele>350.55</ele>
  <time>2026-09-01T19:57:14Z</time>
  <course>359.81</course>
  <speed>0.04</speed>
  <fix>3d</fix>
</trkpt>
<trkpt lat="-27.2744317" lon="151.2900646">
  <ele>350.55</ele>
  <time>2026-09-01T19:57:14Z</time>
  <course>357.5</course>
  <speed>0.16</speed>
  <fix>3d</fix>
</trkpt>
<trkpt lat="-27.2744315" lon="151.2900646">
  <ele>351.02</ele>
  <time>2026-09-01T19:57:14Z</time>
  <course>359.81</course>
  <speed>0.05</speed>
  <fix>3d</fix>
</trkpt>
<trkpt lat="-27.2744315" lon="151.2900646">
  <ele>351.02</ele>
  <time>2026-09-01T19:57:14Z</time>
  <course>359.78</course>
  <speed>0.07</speed>
  <fix>3d</fix>
</trkpt>
<trkpt lat="-27.2744315" lon="151.2900646">
  <ele>351.02</ele>
  <time>2026-09-01T19:57:14Z</time>
  <course>351.72</course>
  <speed>0.11</speed>
  <fix>3d</fix>
</trkpt>
<trkpt lat="-27.2744315" lon="151.2900646">
  <ele>351.02</ele>
  <time>2026-09-01T19:57:14Z</time>
  <course>359.78</course>
  <speed>0.08</speed>
  <fix>3d</fix>
</trkpt>
<trkpt lat="-27.2744315" lon="151.2900646">
  <ele>351.02</ele>
  <time>2026-09-01T19:57:14Z</time>
  <course>359.75</course>
  <speed>0.1</speed>
  <fix>3d</fix>
</trkpt>
<trkpt lat="-27.2744315" lon="151.2900646">
  <ele>351.02</ele>
  <time>2026-09-01T19:57:14Z</time>
  <course>351.72</course>
  <speed>0.11</speed>
  <fix>3d</fix>
</trkpt>
<trkpt lat="-27.2744313" lon="151.2900646">
  <ele>351.5</ele>
  <time>2026-09-01T19:57:14Z</time>
  <course>359.75</course>
  <speed>0.11</speed>
  <fix>3d</fix>
</trkpt>
<trkpt lat="-27.2744313" lon="151.2900646">
  <ele>351.5</ele>
  <time>2026-09-01T19:57:14Z</time>
  <course>359.72</course>
  <speed>0.13</speed>
  <fix>3d</fix>
</trkpt>
<trkpt lat="-27.2744313" lon="151.2900646">
  <ele>351.5</ele>
  <time>2026-09-01T19:57:14Z</time>
  <course>339.99</course>
  <speed>0.06</speed>
  <fix>3d</fix>
</trkpt>
<trkpt lat="-27.2744313" lon="151.2900646">
  <ele>351.5</ele>
  <time>2026-09-01T19:57:14Z</time>
  <course>359.72</course>
  <speed>0.13</speed>
  <fix>3d</fix>
</trkpt>
<trkpt lat="-27.2744313" lon="151.2900646">
  <ele>351.5</ele>
  <time>2026-09-01T19:57:14Z</time>
  <course>359.69</course>
  <speed>0.16</speed>
  <fix>3d</fix>
</trkpt>
<trkpt lat="-27.2744313" lon="151.2900646">
  <ele>351.5</ele>
  <time>2026-09-01T19:57:14Z</time>
  <course>339.99</course>
  <speed>0.06</speed>
  <fix>3d</fix>
</trkpt>
<trkpt lat="-27.2744312" lon="151.2900646">
  <ele>351.97</ele>
  <time>2026-09-01T19:57:14Z</time>
  <course>359.69</course>
  <speed>0.16</speed>
  <fix>3d</fix>
</trkpt>
<trkpt lat="-27.2744312" lon="151.2900646">
  <ele>351.97</ele>
  <time>2026-09-01T19:57:14Z</time>
  <course>359.66</course>
  <speed>0.18</speed>
  <fix>3d</fix>
</trkpt>
<trkpt lat="-27.2744312" lon="151.2900646">
  <ele>351.97</ele>
  <time>2026-09-01T19:57:14Z</time>
  <course>310.91</course>
  <speed>0.03</speed>
  <fix>3d</fix>
</trkpt>
<trkpt lat="-27.2744312" lon="151.2900646">
  <ele>351.97</ele>
  <time>2026-09-01T19:57:14Z</time>
  <course>359.65</course>
  <speed>0.19</speed>
  <fix>3d</fix>
</trkpt>
<trkpt lat="-27.2744312" lon="151.2900646">
  <ele>351.97</ele>
  <time>2026-09-01T19:57:14Z</time>
  <course>359.63</course>
  <speed>0.2</speed>
  <fix>3d</fix>
</trkpt>
<trkpt lat="-27.2744312" lon="151.2900646">
  <ele>351.97</ele>
  <time>2026-09-01T19:57:14Z</time>
  <course>310.91</course>
  <speed>0.03</speed>
  <fix>3d</fix>
</trkpt>
<trkpt lat="-27.2744312" lon="151.2900646">
  <ele>352.46</ele>
  <time>2026-09-01T19:57:14Z</time>
  <course>359.62</course>
  <speed>0.21</speed>
  <fix>3d</fix>
</trkpt>
<trkpt lat="-27.2744312" lon="151.2900646">
  <ele>352.46</ele>
  <time>2026-09-01T19:57:14Z</time>
  <course>359.6</course>
  <speed>0.22</speed>
  <fix>3d</fix>
</trkpt>
<trkpt lat="-27.2744312" lon="151.2900646">
  <ele>352.46</ele>
  <time>2026-09-01T19:57:14Z</time>
  <course>257.69</course>
  <speed>0.03</speed>
  <fix>3d</fix>
</trkpt>
<trkpt lat="-27.2744312" lon="151.2900646">
  <ele>352.46</ele>
  <time>2026-09-01T19:57:14Z</time>
  <course>359.59</course>
  <speed>0.23</speed>
  <fix>3d</fix>
</trkpt>
<trkpt lat="-27.2744312" lon="151.2900646">
  <ele>352.46</ele>
  <time>2026-09-01T19:57:14Z</time>
  <course>359.58</course>
  <speed>0.24</speed>
  <fix>3d</fix>
</trkpt>
<trkpt lat="-27.2744312" lon="151.2900646">
  <ele>352.46</ele>
  <time>2026-09-01T19:57:14Z</time>
  <course>257.69</course>
  <speed>0.03</speed>
  <fix>3d</fix>
</trkpt>
<trkpt lat="-27.2744312" lon="151.2900645">
  <ele>352.95</ele>
  <time>2026-09-01T19:57:14Z</time>
  <course>359.55</course>
  <speed>0.25</speed>
  <fix>3d</fix>
</trkpt>
<trkpt lat="-27.2744312" lon="151.2900645">
  <ele>352.95</ele>
  <time>2026-09-01T19:57:14Z</time>
  <course>227.22</course>
  <speed>0.04</speed>
  <fix>3d</fix>
</trkpt>
<trkpt lat="-27.2744312" lon="151.2900645">
  <ele>352.95</ele>
  <time>2026-09-01T19:57:14Z</time>
  <course>359.5</course>
  <speed>0.22</speed>
  <fix>3d</fix>
</trkpt>
<trkpt lat="-27.2744312" lon="151.2900645">
  <ele>352.95</ele>
  <time>2026-09-01T19:57:14Z</time>
  <course>227.22</course>
  <speed>0.04</speed>
  <fix>3d</fix>
</trkpt>
<trkpt lat="-27.2744312" lon="151.2900644">
  <ele>353.45</ele>
  <time>2026-09-01T19:57:14Z</time>
  <course>359.42</course>
  <speed>0.14</speed>
  <fix>3d</fix>
</trkpt>
<trkpt lat="-27.2744312" lon="151.2900644">
  <ele>353.45</ele>
  <time>2026-09-01T19:57:14Z</time>
  <course>228.56</course>
  <speed>0.04</speed>
  <fix>3d</fix>
</trkpt>
<trkpt lat="-27.2744312" lon="151.2900644">
  <ele>353.45</ele>
  <time>2026-09-01T19:57:14Z</time>
  <course>359.35</course>
  <speed>0.0</speed>
  <fix>3d</fix>
</trkpt>
<trkpt lat="-27.2744312" lon="151.2900644">
  <ele>353.45</ele>
  <time>2026-09-01T19:57:14Z</time>
  <course>228.56</course>
  <speed>0.04</speed>
  <fix>3d</fix>
</trkpt>
<trkpt lat="-27.2744312" lon="151.2900644">
  <ele>353.94</ele>
  <time>2026-09-01T19:57:14Z</time>
  <course>359.3</course>
  <speed>0.2</speed>
  <fix>3d</fix>
</trkpt>
<trkpt lat="-27.2744312" lon="151.2900644">
  <ele>353.94</ele>
  <time>2026-09-01T19:57:14Z</time>
  <course>349.98</course>
  <speed>0.1</speed>
  <fix>3d</fix>
</trkpt>
<trkpt lat="-27.2744312" lon="151.2900644">
  <ele>353.94</ele>
  <time>2026-09-01T19:57:14Z</time>
  <course>359.26</course>
  <speed>0.47</speed>
  <fix>3d</fix>
</trkpt>
<trkpt lat="-27.2744312" lon="151.2900644">
  <ele>353.94</ele>
  <time>2026-09-01T19:57:14Z</time>
  <course>349.98</course>
  <speed>0.1</speed>
  <fix>3d</fix>
</trkpt>
<trkpt lat="-27.2744308" lon="151.2900644">
  <ele>354.41</ele>
  <time>2026-09-01T19:57:14Z</time>
  <course>359.24</course>
  <speed>0.8000624975587844</speed>
  <fix>3d</fix>
</trkpt>
<trkpt lat="-27.2744308" lon="151.2900644">
  <ele>354.41</ele>
  <time>2026-09-01T19:57:14Z</time>
  <course>2.88</course>
  <speed>0.45</speed>
  <fix>3d</fix>
</trkpt>
<trkpt lat="-27.2744308" lon="151.2900644">
  <ele>354.41</ele>
  <time>2026-09-01T19:57:14Z</time>
  <course>359.29</course>
  <speed>1.1901680553602503</speed>
  <fix>3d</fix>
</trkpt>
<trkpt lat="-27.2744308" lon="151.2900644">
  <ele>354.41</ele>
  <time>2026-09-01T19:57:14Z</time>
  <course>2.88</course>
  <speed>0.45</speed>
  <fix>3d</fix>
</trkpt>
<trkpt lat="-27.2744295" lon="151.2900644">
  <ele>354.84</ele>
  <time>2026-09-01T19:57:14Z</time>
  <course>359.24</course>
  <speed>1.6501212076693035</speed>
  <fix>3d</fix>
</trkpt>
<trkpt lat="-27.2744295" lon="151.2900644">
  <ele>354.84</ele>
  <time>2026-09-01T19:57:14Z</time>
  <course>5.08</course>
  <speed>1.05</speed>
  <fix>3d</fix>
</trkpt>
<trkpt lat="-27.2744295" lon="151.2900644">
  <ele>354.84</ele>
  <time>2026-09-01T19:57:14Z</time>
  <course>359.19</course>
  <speed>2.1702073633641557</speed>
  <fix>3d</fix>
</trkpt>
<trkpt lat="-27.2744295" lon="151.2900644">
  <ele>354.84</ele>
  <time>2026-09-01T19:57:14Z</time>
  <course>5.08</course>
  <speed>1.05</speed>
  <fix>3d</fix>
</trkpt>
<trkpt lat="-27.2744269" lon="151.2900647">
  <ele>355.18</ele>
  <time>2026-09-01T19:57:14Z</time>
  <course>359.15</course>
  <speed>2.750290893705609</speed>
  <fix>3d</fix>
</trkpt>
<trkpt lat="-27.2744269" lon="151.2900647">
  <ele>355.18</ele>
  <time>2026-09-01T19:57:14Z</time>
  <course>5.92</course>
  <speed>1.9</speed>
  <fix>3d</fix>
</trkpt>
<trkpt lat="-27.2744269" lon="151.2900647">
  <ele>355.18</ele>
  <time>2026-09-01T19:57:14Z</time>
  <course>359.2</course>
  <speed>3.350373113550191</speed>
  <fix>3d</fix>
</trkpt>
<trkpt lat="-27.2744269" lon="151.2900647">
  <ele>355.18</ele>
  <time>2026-09-01T19:57:14Z</time>
  <course>5.92</course>
  <speed>1.9</speed>
  <fix>3d</fix>
</trkpt>
<trkpt lat="-27.2744225" lon="151.2900652">
  <ele>355.4</ele>
  <time>2026-09-01T19:57:14Z</time>
  <course>359.28</course>
  <speed>3.950455669919611</speed>
  <fix>3d</fix>
</trkpt>
<trkpt lat="-27.2744225" lon="151.2900652">
  <ele>355.4</ele>
  <time>2026-09-01T19:57:14Z</time>
  <course>6.27</course>
  <speed>2.99</speed>
  <fix>3d</fix>
</trkpt>
<trkpt lat="-27.2744225" lon="151.2900652">
  <ele>355.4</ele>
  <time>2026-09-01T19:57:14Z</time>
  <course>359.27</course>
  <speed>4.540539615508271</speed>
  <fix>3d</fix>
</trkpt>
<trkpt lat="-27.2744225" lon="151.2900652">
  <ele>355.4</ele>
  <time>2026-09-01T19:57:14Z</time>
  <course>6.27</course>
  <speed>2.99</speed>
  <fix>3d</fix>
</trkpt>
<trkpt lat="-27.274416" lon="151.290066">
  <ele>355.52</ele>
  <time>2026-09-01T19:57:14Z</time>
  <course>359.34</course>
  <speed>5.110626184725312</speed>
  <fix>3d</fix>
</trkpt>
<trkpt lat="-27.274416" lon="151.290066">
  <ele>355.52</ele>
  <time>2026-09-01T19:57:14Z</time>
  <course>6.44</course>
  <speed>4.2</speed>
  <fix>3d</fix>
</trkpt>
<trkpt lat="-27.274416" lon="151.290066">
  <ele>355.52</ele>
  <time>2026-09-01T19:57:14Z</time>
  <course>359.36</course>
  <speed>5.6605653427904175</speed>
  <fix>3d</fix>
</trkpt>
<trkpt lat="-27.274416" lon="151.290066">
  <ele>355.52</ele>
  <time>2026-09-01T19:57:14Z</time>
  <course>6.44</course>
  <speed>4.2</speed>
  <fix>3d</fix>
</trkpt>
<trkpt lat="-27.2744075" lon="151.2900671">
  <ele>355.55</ele>
  <time>2026-09-01T19:57:14Z</time>
  <course>6.81</course>
  <speed>0.43289721643826723</speed>
  <fix>3d</fix>
</trkpt>
<trkpt lat="-27.2744075" lon="151.2900671">
  <ele>355.55</ele>
  <time>2026-09-01T19:57:14Z</time>
  <course>6.6</course>
  <speed>5.41</speed>
  <fix>3d</fix>
</trkpt>
<trkpt lat="-27.2744075" lon="151.2900671">
  <ele>355.55</ele>
  <time>2026-09-01T19:57:14Z</time>
  <course>6.95</course>
  <speed>1.1684177335182824</speed>
  <fix>3d</fix>
</trkpt>
<trkpt lat="-27.2744075" lon="151.2900671">
  <ele>355.55</ele>
  <time>2026-09-01T19:57:14Z</time>
  <course>6.6</course>
  <speed>5.41</speed>
  <fix>3d</fix>
</trkpt>
<trkpt lat="-27.2743915" lon="151.2900692">
  <ele>355.73</ele>
  <time>2026-09-01T19:57:14Z</time>
  <course>7.1</course>
  <speed>7.139586822779032</speed>
  <fix>3d</fix>
</trkpt>
<trkpt lat="-27.2743968" lon="151.2900685">
  <ele>355.53</ele>
  <time>2026-09-01T19:57:14Z</time>
  <course>6.71</course>
  <speed>6.61</speed>
  <fix>3d</fix>
</trkpt>
<trkpt lat="-27.2743829" lon="151.2900703">
  <ele>355.71</ele>
  <time>2026-09-01T19:57:14Z</time>
  <course>7.12</course>
  <speed>7.906079938882479</speed>
  <fix>3d</fix>
</trkpt>
<trkpt lat="-27.2743968" lon="151.2900685">
  <ele>355.53</ele>
  <time>2026-09-01T19:57:14Z</time>
  <course>6.71</course>
  <speed>6.61</speed>
  <fix>3d</fix>
</trkpt>
<trkpt lat="-27.2743741" lon="151.2900715">
  <ele>355.7</ele>
  <time>2026-09-01T19:57:14Z</time>
  <course>7.11</course>
  <speed>8.611817462069201</speed>
  <fix>3d</fix>
</trkpt>
<trkpt lat="-27.2743839" lon="151.2900702">
  <ele>355.51</ele>
  <time>2026-09-01T19:57:14Z</time>
  <course>6.82</course>
  <speed>7.81</speed>
  <fix>3d</fix>
</trkpt>
<trkpt lat="-27.274365" lon="151.2900728">
  <ele>355.68</ele>
  <time>2026-09-01T19:57:14Z</time>
  <course>7.01</course>
  <speed>9.266720023827201</speed>
  <fix>3d</fix>
</trkpt>
<trkpt lat="-27.2743839" lon="151.2900702">
  <ele>355.51</ele>
  <time>2026-09-01T19:57:14Z</time>
  <course>6.82</course>
  <speed>7.81</speed>
  <fix>3d</fix>
</trkpt>
<trkpt lat="-27.2743556" lon="151.2900741">
  <ele>355.68</ele>
  <time>2026-09-01T19:57:14Z</time>
  <course>6.86</course>
  <speed>9.893048064171124</speed>
  <fix>3d</fix>
</trkpt>
<trkpt lat="-27.2743688" lon="151.2900723">
  <ele>355.49</ele>
  <time>2026-09-01T19:57:14Z</time>
  <course>6.94</course>
  <speed>8.99</speed>
  <fix>3d</fix>
</trkpt>
<trkpt lat="-27.2743458" lon="151.2900754">
  <ele>355.67</ele>
  <time>2026-09-01T19:57:14Z</time>
  <course>6.82</course>
  <speed>10.507035738018596</speed>
  <fix>3d</fix>
</trkpt>
<trkpt lat="-27.2743688" lon="151.2900723">
  <ele>355.49</ele>
  <time>2026-09-01T19:57:14Z</time>
  <course>6.94</course>
  <speed>8.99</speed>
  <fix>3d</fix>
</trkpt>
<trkpt lat="-27.2743357" lon="151.2900768">
  <ele>355.67</ele>
  <time>2026-09-01T19:57:14Z</time>
  <course>6.92</course>
  <speed>11.092456896467978</speed>
  <fix>3d</fix>
</trkpt>
<trkpt lat="-27.2743518" lon="151.2900746">
  <ele>355.49</ele>
  <time>2026-09-01T19:57:14Z</time>
  <course>7.03</course>
  <speed>10.13</speed>
  <fix>3d</fix>
</trkpt>
<trkpt lat="-27.2743252" lon="151.2900783">
  <ele>355.67</ele>
  <time>2026-09-01T19:57:14Z</time>
  <course>6.89</course>
  <speed>11.646887996370532</speed>
  <fix>3d</fix>
</trkpt>
<trkpt lat="-27.2743518" lon="151.2900746">
  <ele>355.49</ele>
  <time>2026-09-01T19:57:14Z</time>
  <course>7.03</course>
  <speed>10.13</speed>
  <fix>3d</fix>
</trkpt>
<trkpt lat="-27.2743143" lon="151.2900798">
  <ele>355.68</ele>
  <time>2026-09-01T19:57:14Z</time>
  <course>6.71</course>
  <speed>12.211244817789872</speed>
  <fix>3d</fix>
</trkpt>
<trkpt lat="-27.2743327" lon="151.2900773">
  <ele>355.5</ele>
  <time>2026-09-01T19:57:14Z</time>
  <course>7.08</course>
  <speed>11.25</speed>
  <fix>3d</fix>
</trkpt>
<trkpt lat="-27.274303" lon="151.2900814">
  <ele>355.68</ele>
  <time>2026-09-01T19:57:14Z</time>
  <course>6.65</course>
  <speed>12.755751643866386</speed>
  <fix>3d</fix>
</trkpt>
<trkpt lat="-27.2743327" lon="151.2900773">
  <ele>355.5</ele>
  <time>2026-09-01T19:57:14Z</time>
  <course>7.08</course>
  <speed>11.25</speed>
  <fix>3d</fix>
</trkpt>
<trkpt lat="-27.2742911" lon="151.2900831">
  <ele>355.7</ele>
  <time>2026-09-01T19:57:14Z</time>
  <course>6.76</course>
  <speed>13.2804103852253</speed>
  <fix>3d</fix>
</trkpt>
<trkpt lat="-27.2743117" lon="151.2900803">
  <ele>355.52</ele>
  <time>2026-09-01T19:57:14Z</time>
  <course>7.11</course>
  <speed>12.34</speed>
  <fix>3d</fix>
</trkpt>
<trkpt lat="-27.274279" lon="151.2900848">
  <ele>355.72</ele>
  <time>2026-09-01T19:57:14Z</time>
  <course>6.87</course>
  <speed>13.793918950030118</speed>
  <fix>3d</fix>
</trkpt>
<trkpt lat="-27.2743117" lon="151.2900803">
  <ele>355.52</ele>
  <time>2026-09-01T19:57:14Z</time>
  <course>7.11</course>
  <speed>12.34</speed>
  <fix>3d</fix>
</trkpt>
<trkpt lat="-27.2742664" lon="151.2900865">
  <ele>355.74</ele>
  <time>2026-09-01T19:57:14Z</time>
  <course>6.9</course>
  <speed>14.297503278544825</speed>
  <fix>3d</fix>
</trkpt>
<trkpt lat="-27.2742887" lon="151.2900834">
  <ele>355.56</ele>
  <time>2026-09-01T19:57:14Z</time>
  <course>7.1</course>
  <speed>13.39</speed>
  <fix>3d</fix>
</trkpt>
<trkpt lat="-27.2742534" lon="151.2900883">
  <ele>355.76</ele>
  <time>2026-09-01T19:57:14Z</time>
  <course>6.86</course>
  <speed>14.792389935368794</speed>
  <fix>3d</fix>
</trkpt>
<trkpt lat="-27.2742887" lon="151.2900834">
  <ele>355.56</ele>
  <time>2026-09-01T19:57:14Z</time>
  <course>7.1</course>
  <speed>13.39</speed>
  <fix>3d</fix>
</trkpt>
<trkpt lat="-27.2742399" lon="151.2900902">
  <ele>355.79</ele>
  <time>2026-09-01T19:57:14Z</time>
  <course>6.81</course>
  <speed>15.277359064969312</speed>
  <fix>3d</fix>
</trkpt>
<trkpt lat="-27.2742639" lon="151.290087">
  <ele>355.6</ele>
  <time>2026-09-01T19:57:14Z</time>
  <course>7.1</course>
  <speed>14.4</speed>
  <fix>3d</fix>
</trkpt>
<trkpt lat="-27.2742261" lon="151.2900922">
  <ele>355.81</ele>
  <time>2026-09-01T19:57:14Z</time>
  <course>6.8</course>
  <speed>15.75117138501134</speed>
  <fix>3d</fix>
</trkpt>
<trkpt lat="-27.2742639" lon="151.290087">
  <ele>355.6</ele>
  <time>2026-09-01T19:57:14Z</time>
  <course>7.1</course>
  <speed>14.4</speed>
  <fix>3d</fix>
</trkpt>
<trkpt lat="-27.2742118" lon="151.2900942">
  <ele>355.83</ele>
  <time>2026-09-01T19:57:14Z</time>
  <course>6.77</course>
  <speed>16.213824348376296</speed>
  <fix>3d</fix>
</trkpt>
<trkpt lat="-27.2742373" lon="151.2900907">
  <ele>355.66</ele>
  <time>2026-09-01T19:57:14Z</time>
  <course>7.12</course>
  <speed>15.38</speed>
  <fix>3d</fix>
</trkpt>
<trkpt lat="-27.2741972" lon="151.2900963">
  <ele>355.85</ele>
  <time>2026-09-01T19:57:14Z</time>
  <course>6.76</course>
  <speed>16.667789295524468</speed>
  <fix>3d</fix>
</trkpt>
<trkpt lat="-27.2742373" lon="151.2900907">
  <ele>355.66</ele>
  <time>2026-09-01T19:57:14Z</time>
  <course>7.12</course>
  <speed>15.38</speed>
  <fix>3d</fix>
</trkpt>
<trkpt lat="-27.2741821" lon="151.2900984">
  <ele>355.87</ele>
  <time>2026-09-01T19:57:14Z</time>
  <course>6.77</course>
  <speed>17.110596132221694</speed>
  <fix>3d</fix>
</trkpt>
<trkpt lat="-27.2742091" lon="151.2900947">
  <ele>355.71</ele>
  <time>2026-09-01T19:57:14Z</time>
  <course>7.11</course>
  <speed>16.31</speed>
  <fix>3d</fix>
</trkpt>
<trkpt lat="-27.2741667" lon="151.2901006">
  <ele>355.89</ele>
  <time>2026-09-01T19:57:14Z</time>
  <course>6.82</course>
  <speed>17.553404228240176</speed>
  <fix>3d</fix>
</trkpt>
<trkpt lat="-27.2742091" lon="151.2900947">
  <ele>355.71</ele>
  <time>2026-09-01T19:57:14Z</time>
  <course>7.11</course>
  <speed>16.31</speed>
  <fix>3d</fix>
</trkpt>
<trkpt lat="-27.2741509" lon="151.2901028">
  <ele>355.91</ele>
  <time>2026-09-01T19:57:14Z</time>
  <course>6.83</course>
  <speed>17.98752067406734</speed>
  <fix>3d</fix>
</trkpt>
<trkpt lat="-27.2741792" lon="151.2900988">
  <ele>355.76</ele>
  <time>2026-09-01T19:57:14Z</time>
  <course>7.09</course>
  <speed>17.2</speed>
  <fix>3d</fix>
</trkpt>
<trkpt lat="-27.2741346" lon="151.2901051">
  <ele>355.93</ele>
  <time>2026-09-01T19:57:14Z</time>
  <course>6.89</course>
  <speed>18.40055705678499</speed>
  <fix>3d</fix>
</trkpt>
<trkpt lat="-27.2741792" lon="151.2900988">
  <ele>355.76</ele>
  <time>2026-09-01T19:57:14Z</time>
  <course>7.09</course>
  <speed>17.2</speed>
  <fix>3d</fix>
</trkpt>
<trkpt lat="-27.2741181" lon="151.2901074">
  <ele>355.95</ele>
  <time>2026-09-01T19:57:14Z</time>
  <course>6.86</course>
  <speed>18.80366985457892</speed>
  <fix>3d</fix>
</trkpt>
<trkpt lat="-27.2741477" lon="151.2901033">
  <ele>355.81</ele>
  <time>2026-09-01T19:57:14Z</time>
  <course>7.09</course>
  <speed>18.06</speed>
  <fix>3d</fix>
</trkpt>
<trkpt lat="-27.2741011" lon="151.2901098">
  <ele>355.97</ele>
  <time>2026-09-01T19:57:14Z</time>
  <course>6.77</course>
  <speed>19.196859118095336</speed>
  <fix>3d</fix>
</trkpt>
<trkpt lat="-27.2741477" lon="151.2901033">
  <ele>355.81</ele>
  <time>2026-09-01T19:57:14Z</time>
  <course>7.09</course>
  <speed>18.06</speed>
  <fix>3d</fix>
</trkpt>
<trkpt lat="-27.2740838" lon="151.2901122">
  <ele>355.99</ele>
  <time>2026-09-01T19:57:14Z</time>
  <course>6.8</course>
  <speed>19.58012512728149</speed>
  <fix>3d</fix>
</trkpt>
<trkpt lat="-27.2741147" lon="151.2901079">
  <ele>355.86</ele>
  <time>2026-09-01T19:57:14Z</time>
  <course>7.09</course>
  <speed>18.88</speed>
  <fix>3d</fix>
</trkpt>
<trkpt lat="-27.2740662" lon="151.2901147">
  <ele>356.01</ele>
  <time>2026-09-01T19:57:14Z</time>
  <course>6.77</course>
  <speed>19.95346837018567</speed>
  <fix>3d</fix>
</trkpt>
<trkpt lat="-27.2741147" lon="151.2901079">
  <ele>355.86</ele>
  <time>2026-09-01T19:57:14Z</time>
  <course>7.09</course>
  <speed>18.88</speed>
  <fix>3d</fix>
</trkpt>
<trkpt lat="-27.2740482" lon="151.2901172">
  <ele>356.03</ele>
  <time>2026-09-01T19:57:14Z</time>
  <course>6.81</course>
  <speed>20.324342547792288</speed>
  <fix>3d</fix>
</trkpt>
<trkpt lat="-27.2740803" lon="151.2901127">
  <ele>355.9</ele>
  <time>2026-09-01T19:57:14Z</time>
  <course>7.09</course>
  <speed>19.65</speed>
  <fix>3d</fix>
</trkpt>
<trkpt lat="-27.2740299" lon="151.2901197">
  <ele>356.06</ele>
  <time>2026-09-01T19:57:14Z</time>
  <course>6.86</course>
  <speed>20.676605137207606</speed>
  <fix>3d</fix>
</trkpt>
<trkpt lat="-27.2740803" lon="151.2901127">
  <ele>355.9</ele>
  <time>2026-09-01T19:57:14Z</time>
  <course>7.09</course>
  <speed>19.65</speed>
  <fix>3d</fix>
</trkpt>
<trkpt lat="-27.2740113" lon="151.2901223">
  <ele>356.09</ele>
  <time>2026-09-01T19:57:14Z</time>
  <course>6.84</course>
  <speed>21.03009747956485</speed>
  <fix>3d</fix>
</trkpt>
<trkpt lat="-27.2740447" lon="151.2901177">
  <ele>355.95</ele>
  <time>2026-09-01T19:57:14Z</time>
  <course>7.07</course>
  <speed>20.38</speed>
  <fix>3d</fix>
</trkpt>
<trkpt lat="-27.2739924" lon="151.290125">
  <ele>356.12</ele>
  <time>2026-09-01T19:57:14Z</time>
  <course>6.82</course>
  <speed>21.363744990052655</speed>
  <fix>3d</fix>
</trkpt>
<trkpt lat="-27.2740447" lon="151.2901177">
  <ele>355.95</ele>
  <time>2026-09-01T19:57:14Z</time>
  <course>7.07</course>
  <speed>20.38</speed>
  <fix>3d</fix>
</trkpt>
<trkpt lat="-27.2739732" lon="151.2901277">
  <ele>356.16</ele>
  <time>2026-09-01T19:57:14Z</time>
  <course>6.8</course>
  <speed>21.694925673991143</speed>
  <fix>3d</fix>
</trkpt>
<trkpt lat="-27.2740077" lon="151.2901228">
  <ele>356.02</ele>
  <time>2026-09-01T19:57:14Z</time>
  <course>7.07</course>
  <speed>21.07</speed>
  <fix>3d</fix>
</trkpt>
<trkpt lat="-27.2739535" lon="151.2901304">
  <ele>356.21</ele>
  <time>2026-09-01T19:57:14Z</time>
  <course>6.77</course>
  <speed>22.017415833834818</speed>
  <fix>3d</fix>
</trkpt>
<trkpt lat="-27.2740077" lon="151.2901228">
  <ele>356.02</ele>
  <time>2026-09-01T19:57:14Z</time>
  <course>7.07</course>
  <speed>21.07</speed>
  <fix>3d</fix>
</trkpt>
<trkpt lat="-27.2739337" lon="151.2901332">
  <ele>356.26</ele>
  <time>2026-09-01T19:57:14Z</time>
  <course>6.78</course>
  <speed>22.320058243651605</speed>
  <fix>3d</fix>
</trkpt>
<trkpt lat="-27.2739696" lon="151.2901281">
  <ele>356.1</ele>
  <time>2026-09-01T19:57:14Z</time>
  <course>7.06</course>
  <speed>21.73</speed>
  <fix>3d</fix>
</trkpt>
<trkpt lat="-27.2739137" lon="151.2901359">
  <ele>356.32</ele>
  <time>2026-09-01T19:57:14Z</time>
  <course>6.76</course>
  <speed>22.621469890349744</speed>
  <fix>3d</fix>
</trkpt>
<trkpt lat="-27.2739696" lon="151.2901281">
  <ele>356.1</ele>
  <time>2026-09-01T19:57:14Z</time>
  <course>7.06</course>
  <speed>21.73</speed>
  <fix>3d</fix>
</trkpt>
<trkpt lat="-27.2738935" lon="151.2901388">
  <ele>356.39</ele>
  <time>2026-09-01T19:57:14Z</time>
  <course>6.71</course>
  <speed>22.903034733414696</speed>
  <fix>3d</fix>
</trkpt>
<trkpt lat="-27.2739302" lon="151.2901336">
  <ele>356.21</ele>
  <time>2026-09-01T19:57:14Z</time>
  <course>7.05</course>
  <speed>22.34</speed>
  <fix>3d</fix>
</trkpt>
<trkpt lat="-27.273873" lon="151.2901416">
  <ele>356.46</ele>
  <time>2026-09-01T19:57:14Z</time>
  <course>6.69</course>
  <speed>23.18460049256834</speed>
  <fix>3d</fix>
</trkpt>
<trkpt lat="-27.2739302" lon="151.2901336">
  <ele>356.21</ele>
  <time>2026-09-01T19:57:14Z</time>
  <course>7.05</course>
  <speed>22.34</speed>
  <fix>3d</fix>
</trkpt>
<trkpt lat="-27.2738522" lon="151.2901445">
  <ele>356.53</ele>
  <time>2026-09-01T19:57:14Z</time>
  <course>6.75</course>
  <speed>23.44631740807072</speed>
  <fix>3d</fix>
</trkpt>
<trkpt lat="-27.2738899" lon="151.2901393">
  <ele>356.33</ele>
  <time>2026-09-01T19:57:14Z</time>
  <course>7.04</course>
  <speed>22.92</speed>
  <fix>3d</fix>
</trkpt>
<trkpt lat="-27.2738313" lon="151.2901474">
  <ele>356.61</ele>
  <time>2026-09-01T19:57:14Z</time>
  <course>6.74</course>
  <speed>23.69810962925102</speed>
  <fix>3d</fix>
</trkpt>
<trkpt lat="-27.2738899" lon="151.2901393">
  <ele>356.33</ele>
  <time>2026-09-01T19:57:14Z</time>
  <course>7.04</course>
  <speed>22.92</speed>
  <fix>3d</fix>
</trkpt>
<trkpt lat="-27.2738101" lon="151.2901503">
  <ele>356.69</ele>
  <time>2026-09-01T19:57:14Z</time>
  <course>6.75</course>
  <speed>23.94990187871341</speed>
  <fix>3d</fix>
</trkpt>
<trkpt lat="-27.2738486" lon="151.290145">
  <ele>356.47</ele>
  <time>2026-09-01T19:57:14Z</time>
  <course>7.02</course>
  <speed>23.46</speed>
  <fix>3d</fix>
</trkpt>
<trkpt lat="-27.2737887" lon="151.2901533">
  <ele>356.78</ele>
  <time>2026-09-01T19:57:14Z</time>
  <course>6.81</course>
  <speed>24.19176926146577</speed>
  <fix>3d</fix>
</trkpt>
<trkpt lat="-27.2738486" lon="151.290145">
  <ele>356.47</ele>
  <time>2026-09-01T19:57:14Z</time>
  <course>7.02</course>
  <speed>23.46</speed>
  <fix>3d</fix>
</trkpt>
<trkpt lat="-27.2737671" lon="151.2901563">
  <ele>356.87</ele>
  <time>2026-09-01T19:57:14Z</time>
  <course>6.87</course>
  <speed>24.43363665114139</speed>
  <fix>3d</fix>
</trkpt>
<trkpt lat="-27.2738062" lon="151.2901509">
  <ele>356.64</ele>
  <time>2026-09-01T19:57:14Z</time>
  <course>7.01</course>
  <speed>23.97</speed>
  <fix>3d</fix>
</trkpt>
<trkpt lat="-27.2737452" lon="151.2901593">
  <ele>356.97</ele>
  <time>2026-09-01T19:57:14Z</time>
  <course>6.79</course>
  <speed>24.656881392422683</speed>
  <fix>3d</fix>
</trkpt>
<trkpt lat="-27.2738062" lon="151.2901509">
  <ele>356.64</ele>
  <time>2026-09-01T19:57:14Z</time>
  <course>7.01</course>
  <speed>23.97</speed>
  <fix>3d</fix>
</trkpt>
<trkpt lat="-27.2737232" lon="151.2901624">
  <ele>357.08</ele>
  <time>2026-09-01T19:57:14Z</time>
  <course>6.74</course>
  <speed>24.877672720734953</speed>
  <fix>3d</fix>
</trkpt>
<trkpt lat="-27.273763" lon="151.2901569">
  <ele>356.83</ele>
  <time>2026-09-01T19:57:14Z</time>
  <course>7.01</course>
  <speed>24.45</speed>
  <fix>3d</fix>
</trkpt>
<trkpt lat="-27.273701" lon="151.2901655">
  <ele>357.18</ele>
  <time>2026-09-01T19:57:14Z</time>
  <course>6.72</course>
  <speed>25.088541209085875</speed>
  <fix>3d</fix>
</trkpt>
<trkpt lat="-27.273763" lon="151.2901569">
  <ele>356.83</ele>
  <time>2026-09-01T19:57:14Z</time>
  <course>7.01</course>
  <speed>24.45</speed>
  <fix>3d</fix>
</trkpt>
<trkpt lat="-27.2736786" lon="151.2901686">
  <ele>357.29</ele>
  <time>2026-09-01T19:57:14Z</time>
  <course>6.71</course>
  <speed>25.289485957606967</speed>
  <fix>3d</fix>
</trkpt>
<trkpt lat="-27.273719" lon="151.290163">
  <ele>357.03</ele>
  <time>2026-09-01T19:57:14Z</time>
  <course>7.01</course>
  <speed>24.9</speed>
  <fix>3d</fix>
</trkpt>
<trkpt lat="-27.273656" lon="151.2901717">
  <ele>357.41</ele>
  <time>2026-09-01T19:57:14Z</time>
  <course>6.7</course>
  <speed>25.49043153812819</speed>
  <fix>3d</fix>
</trkpt>
<trkpt lat="-27.273719" lon="151.290163">
  <ele>357.03</ele>
  <time>2026-09-01T19:57:14Z</time>
  <course>7.01</course>
  <speed>24.9</speed>
  <fix>3d</fix>
</trkpt>
<trkpt lat="-27.2736332" lon="151.2901748">
  <ele>357.52</ele>
  <time>2026-09-01T19:57:14Z</time>
  <course>6.67</course>
  <speed>25.69137793112701</speed>
  <fix>3d</fix>
</trkpt>
<trkpt lat="-27.2736742" lon="151.2901691">
  <ele>357.24</ele>
  <time>2026-09-01T19:57:14Z</time>
  <course>6.99</course>
  <speed>25.31</speed>
  <fix>3d</fix>
</trkpt>
<trkpt lat="-27.2736102" lon="151.290178">
  <ele>357.64</ele>
  <time>2026-09-01T19:57:14Z</time>
  <course>6.74</course>
  <speed>25.872473789724864</speed>
  <fix>3d</fix>
</trkpt>
<trkpt lat="-27.2736742" lon="151.2901691">
  <ele>357.24</ele>
  <time>2026-09-01T19:57:14Z</time>
  <course>6.99</course>
  <speed>25.31</speed>
  <fix>3d</fix>
</trkpt>
<trkpt lat="-27.2735871" lon="151.2901812">
  <ele>357.76</ele>
  <time>2026-09-01T19:57:14Z</time>
  <course>6.77</course>
  <speed>26.0535698129834</speed>
  <fix>3d</fix>
</trkpt>
<trkpt lat="-27.2736286" lon="151.2901754">
  <ele>357.47</ele>
  <time>2026-09-01T19:57:14Z</time>
  <course>6.97</course>
  <speed>25.71</speed>
  <fix>3d</fix>
</trkpt>
<trkpt lat="-27.2735638" lon="151.2901844">
  <ele>357.89</ele>
  <time>2026-09-01T19:57:14Z</time>
  <course>6.69</course>
  <speed>26.223525697358085</speed>
  <fix>3d</fix>
</trkpt>
<trkpt lat="-27.2736286" lon="151.2901754">
  <ele>357.47</ele>
  <time>2026-09-01T19:57:14Z</time>
  <course>6.97</course>
  <speed>25.71</speed>
  <fix>3d</fix>
</trkpt>
<trkpt lat="-27.2735403" lon="151.2901876">
  <ele>358.01</ele>
  <time>2026-09-01T19:57:14Z</time>
  <course>6.65</course>
  <speed>26.393485938769057</speed>
  <fix>3d</fix>
</trkpt>
<trkpt lat="-27.2735825" lon="151.2901817">
  <ele>357.71</ele>
  <time>2026-09-01T19:57:14Z</time>
  <course>6.95</course>
  <speed>26.08</speed>
  <fix>3d</fix>
</trkpt>
<trkpt lat="-27.2735167" lon="151.2901908">
  <ele>358.14</ele>
  <time>2026-09-01T19:57:14Z</time>
  <course>6.62</course>
  <speed>26.554730275414208</speed>
  <fix>3d</fix>
</trkpt>
<trkpt lat="-27.2735825" lon="151.2901817">
  <ele>357.71</ele>
  <time>2026-09-01T19:57:14Z</time>
  <course>6.95</course>
  <speed>26.08</speed>
  <fix>3d</fix>
</trkpt>
<trkpt lat="-27.2734931" lon="151.290194">
  <ele>358.26</ele>
  <time>2026-09-01T19:57:14Z</time>
  <course>6.69</course>
  <speed>26.714767451729763</speed>
  <fix>3d</fix>
</trkpt>
<trkpt lat="-27.2735357" lon="151.2901882">
  <ele>357.95</ele>
  <time>2026-09-01T19:57:14Z</time>
  <course>6.92</course>
  <speed>26.42</speed>
  <fix>3d</fix>
</trkpt>
<trkpt lat="-27.2734692" lon="151.2901973">
  <ele>358.39</ele>
  <time>2026-09-01T19:57:14Z</time>
  <course>6.76</course>
  <speed>26.866084567722183</speed>
  <fix>3d</fix>
</trkpt>
<trkpt lat="-27.2735357" lon="151.2901882">
  <ele>357.95</ele>
  <time>2026-09-01T19:57:14Z</time>
  <course>6.92</course>
  <speed>26.42</speed>
  <fix>3d</fix>
</trkpt>
<trkpt lat="-27.2734451" lon="151.2902006">
  <ele>358.53</ele>
  <time>2026-09-01T19:57:14Z</time>
  <course>6.76</course>
  <speed>27.017401799580952</speed>
  <fix>3d</fix>
</trkpt>
<trkpt lat="-27.2734883" lon="151.2901946">
  <ele>358.21</ele>
  <time>2026-09-01T19:57:14Z</time>
  <course>6.9</course>
  <speed>26.73</speed>
  <fix>3d</fix>
</trkpt>
<trkpt lat="-27.273421" lon="151.2902039">
  <ele>358.66</ele>
  <time>2026-09-01T19:57:14Z</time>
  <course>6.73</course>
  <speed>27.15879231482873</speed>
  <fix>3d</fix>
</trkpt>
<trkpt lat="-27.2734883" lon="151.2901946">
  <ele>358.21</ele>
  <time>2026-09-01T19:57:14Z</time>
  <course>6.9</course>
  <speed>26.73</speed>
  <fix>3d</fix>
</trkpt>
<trkpt lat="-27.2733966" lon="151.2902072">
  <ele>358.8</ele>
  <time>2026-09-01T19:57:14Z</time>
  <course>6.72</course>
  <speed>27.29897617127793</speed>
  <fix>3d</fix>
</trkpt>
<trkpt lat="-27.2734404" lon="151.2902011">
  <ele>358.48</ele>
  <time>2026-09-01T19:57:14Z</time>
  <course>6.89</course>
  <speed>27.03</speed>
  <fix>3d</fix>
</trkpt>
<trkpt lat="-27.2733722" lon="151.2902105">
  <ele>358.94</ele>
  <time>2026-09-01T19:57:14Z</time>
  <course>6.74</course>
  <speed>27.439161794777917</speed>
  <fix>3d</fix>
</trkpt>
<trkpt lat="-27.2734404" lon="151.2902011">
  <ele>358.48</ele>
  <time>2026-09-01T19:57:14Z</time>
  <course>6.89</course>
  <speed>27.03</speed>
  <fix>3d</fix>
</trkpt>
<trkpt lat="-27.2733472" lon="151.2902139">
  <ele>359.08</ele>
  <time>2026-09-01T19:57:14Z</time>
  <course>6.74</course>
  <speed>27.560696653023847</speed>
  <fix>3d</fix>
</trkpt>
<trkpt lat="-27.2733919" lon="151.2902078">
  <ele>358.76</ele>
  <time>2026-09-01T19:57:14Z</time>
  <course>6.88</course>
  <speed>27.31</speed>
  <fix>3d</fix>
</trkpt>
<trkpt lat="-27.2733226" lon="151.2902172">
  <ele>359.22</ele>
  <time>2026-09-01T19:57:14Z</time>
  <course>6.75</course>
  <speed>27.69095520201497</speed>
  <fix>3d</fix>
</trkpt>
<trkpt lat="-27.2733919" lon="151.2902078">
  <ele>358.76</ele>
  <time>2026-09-01T19:57:14Z</time>
  <course>6.88</course>
  <speed>27.31</speed>
  <fix>3d</fix>
</trkpt>
<trkpt lat="-27.2732979" lon="151.2902206">
  <ele>359.37</ele>
  <time>2026-09-01T19:57:14Z</time>
  <course>6.78</course>
  <speed>27.811287276931285</speed>
  <fix>3d</fix>
</trkpt>
<trkpt lat="-27.2733429" lon="151.2902144">
  <ele>359.03</ele>
  <time>2026-09-01T19:57:14Z</time>
  <course>6.87</course>
  <speed>27.57</speed>
  <fix>3d</fix>
</trkpt>
<trkpt lat="-27.2732732" lon="151.2902239">
  <ele>359.52</ele>
  <time>2026-09-01T19:57:14Z</time>
  <course>6.76</course>
  <speed>27.92169228395729</speed>
  <fix>3d</fix>
</trkpt>
<trkpt lat="-27.2733429" lon="151.2902144">
  <ele>359.03</ele>
  <time>2026-09-01T19:57:14Z</time>
  <course>6.87</course>
  <speed>27.57</speed>
  <fix>3d</fix>
</trkpt>
<trkpt lat="-27.2732484" lon="151.2902273">
  <ele>359.67</ele>
  <time>2026-09-01T19:57:14Z</time>
  <course>6.77</course>
  <speed>28.022169794646526</speed>
  <fix>3d</fix>
</trkpt>
<trkpt lat="-27.2732936" lon="151.2902211">
  <ele>359.32</ele>
  <time>2026-09-01T19:57:14Z</time>
  <course>6.87</course>
  <speed>27.81</speed>
  <fix>3d</fix>
</trkpt>
<trkpt lat="-27.2732235" lon="151.2902306">
  <ele>359.82</ele>
  <time>2026-09-01T19:57:14Z</time>
  <course>6.72</course>
  <speed>28.122647457165193</speed>
  <fix>3d</fix>
</trkpt>
<trkpt lat="-27.2732936" lon="151.2902211">
  <ele>359.32</ele>
  <time>2026-09-01T19:57:14Z</time>
  <course>6.87</course>
  <speed>27.81</speed>
  <fix>3d</fix>
</trkpt>
<trkpt lat="-27.2731985" lon="151.290234">
  <ele>359.97</ele>
  <time>2026-09-01T19:57:14Z</time>
  <course>6.79</course>
  <speed>28.22312526989171</speed>
  <fix>3d</fix>
</trkpt>
<trkpt lat="-27.2732437" lon="151.2902279">
  <ele>359.62</ele>
  <time>2026-09-01T19:57:14Z</time>
  <course>6.86</course>
  <speed>28.05</speed>
  <fix>3d</fix>
</trkpt>
<trkpt lat="-27.2731735" lon="151.2902374">
  <ele>360.13</ele>
  <time>2026-09-01T19:57:14Z</time>
  <course>6.79</course>
  <speed>28.313675141175157</speed>
  <fix>3d</fix>
</trkpt>
<trkpt lat="-27.2732437" lon="151.2902279">
  <ele>359.62</ele>
  <time>2026-09-01T19:57:14Z</time>
  <course>6.86</course>
  <speed>28.05</speed>
  <fix>3d</fix>
</trkpt>
<trkpt lat="-27.2731483" lon="151.2902408">
  <ele>360.28</ele>
  <time>2026-09-01T19:57:14Z</time>
  <course>6.7</course>
  <speed>28.403029767966654</speed>
  <fix>3d</fix>
</trkpt>
<trkpt lat="-27.2731933" lon="151.2902346">
  <ele>359.91</ele>
  <time>2026-09-01T19:57:14Z</time>
  <course>6.86</course>
  <speed>28.26</speed>
  <fix>3d</fix>
</trkpt>
<trkpt lat="-27.2731231" lon="151.2902442">
  <ele>360.44</ele>
  <time>2026-09-01T19:57:14Z</time>
  <course>6.68</course>
  <speed>28.492388457270476</speed>
  <fix>3d</fix>
</trkpt>
<trkpt lat="-27.2731933" lon="151.2902346">
  <ele>359.91</ele>
  <time>2026-09-01T19:57:14Z</time>
  <course>6.86</course>
  <speed>28.26</speed>
  <fix>3d</fix>
</trkpt>
<trkpt lat="-27.2730977" lon="151.2902476">
  <ele>360.6</ele>
  <time>2026-09-01T19:57:14Z</time>
  <course>6.74</course>
  <speed>28.581751170983207</speed>
  <fix>3d</fix>
</trkpt>
<trkpt lat="-27.2731428" lon="151.2902415">
  <ele>360.22</ele>
  <time>2026-09-01T19:57:14Z</time>
  <course>6.84</course>
  <speed>28.46</speed>
  <fix>3d</fix>
</trkpt>
<trkpt lat="-27.2730723" lon="151.290251">
  <ele>360.75</ele>
  <time>2026-09-01T19:57:14Z</time>
  <course>6.72</course>
  <speed>28.66237254659844</speed>
  <fix>3d</fix>
</trkpt>
<trkpt lat="-27.2731428" lon="151.2902415">
  <ele>360.22</ele>
  <time>2026-09-01T19:57:14Z</time>
  <course>6.84</course>
  <speed>28.46</speed>
  <fix>3d</fix>
</trkpt>
<trkpt lat="-27.2730467" lon="151.2902544">
  <ele>360.91</ele>
  <time>2026-09-01T19:57:14Z</time>
  <course>6.7</course>
  <speed>28.741809268033215</speed>
  <fix>3d</fix>
</trkpt>
<trkpt lat="-27.2730918" lon="151.2902484">
  <ele>360.53</ele>
  <time>2026-09-01T19:57:14Z</time>
  <course>6.82</course>
  <speed>28.65</speed>
  <fix>3d</fix>
</trkpt>
<trkpt lat="-27.2730211" lon="151.2902579">
  <ele>361.07</ele>
  <time>2026-09-01T19:57:14Z</time>
  <course>6.72</course>
  <speed>28.822430501260648</speed>
  <fix>3d</fix>
</trkpt>
<trkpt lat="-27.2730918" lon="151.2902484">
  <ele>360.53</ele>
  <time>2026-09-01T19:57:14Z</time>
  <course>6.82</course>
  <speed>28.65</speed>
  <fix>3d</fix>
</trkpt>
<trkpt lat="-27.2729953" lon="151.2902613">
  <ele>361.23</ele>
  <time>2026-09-01T19:57:14Z</time>
  <course>6.78</course>
  <speed>28.903051741987383</speed>
  <fix>3d</fix>
</trkpt>
<trkpt lat="-27.2730406" lon="151.2902552">
  <ele>360.83</ele>
  <time>2026-09-01T19:57:14Z</time>
  <course>6.8</course>
  <speed>28.83</speed>
  <fix>3d</fix>
</trkpt>
<trkpt lat="-27.2729697" lon="151.2902647">
  <ele>361.38</ele>
  <time>2026-09-01T19:57:14Z</time>
  <course>6.75</course>
  <speed>28.993602742674117</speed>
  <fix>3d</fix>
</trkpt>
<trkpt lat="-27.2730406" lon="151.2902552">
  <ele>360.83</ele>
  <time>2026-09-01T19:57:14Z</time>
  <course>6.8</course>
  <speed>28.83</speed>
  <fix>3d</fix>
</trkpt>
<trkpt lat="-27.2729438" lon="151.2902682">
  <ele>361.54</ele>
  <time>2026-09-01T19:57:14Z</time>
  <course>6.79</course>
  <speed>29.063112359140064</speed>
  <fix>3d</fix>
</trkpt>
<trkpt lat="-27.272989" lon="151.2902621">
  <ele>361.15</ele>
  <time>2026-09-01T19:57:14Z</time>
  <course>6.79</course>
  <speed>28.99</speed>
  <fix>3d</fix>
</trkpt>
<trkpt lat="-27.2729107" lon="151.2902725">
  <ele>361.5</ele>
  <time>2026-09-01T19:57:14Z</time>
  <course>6.82</course>
  <speed>28.992421423537568</speed>
  <fix>3d</fix>
</trkpt>
<trkpt lat="-27.272989" lon="151.2902621">
  <ele>361.15</ele>
  <time>2026-09-01T19:57:14Z</time>
  <course>6.79</course>
  <speed>28.99</speed>
  <fix>3d</fix>
</trkpt>
<trkpt lat="-27.2728846" lon="151.2902761">
  <ele>361.76</ele>
  <time>2026-09-01T19:57:14Z</time>
  <course>6.81</course>
  <speed>29.073042496443332</speed>
  <fix>3d</fix>
</trkpt>
<trkpt lat="-27.2729372" lon="151.2902691">
  <ele>361.46</ele>
  <time>2026-09-01T19:57:14Z</time>
  <course>6.78</course>
  <speed>29.07</speed>
  <fix>3d</fix>
</trkpt>
<trkpt lat="-27.2728587" lon="151.2902796">
  <ele>361.98</ele>
  <time>2026-09-01T19:57:14Z</time>
  <course>6.8</course>
  <speed>29.073042496443332</speed>
  <fix>3d</fix>
</trkpt>
<trkpt lat="-27.2729372" lon="151.2902691">
  <ele>361.46</ele>
  <time>2026-09-01T19:57:14Z</time>
  <course>6.78</course>
  <speed>29.07</speed>
  <fix>3d</fix>
</trkpt>
<trkpt lat="-27.2728338" lon="151.2902829">
  <ele>361.77</ele>
  <time>2026-09-01T19:57:14Z</time>
  <course>6.78</course>
  <speed>28.640146647669248</speed>
  <fix>3d</fix>
</trkpt>
<trkpt lat="-27.2728856" lon="151.290276">
  <ele>361.73</ele>
  <time>2026-09-01T19:57:14Z</time>
  <course>6.78</course>
  <speed>28.64</speed>
  <fix>3d</fix>
</trkpt>
<trkpt lat="-27.2728082" lon="151.2902863">
  <ele>362.15</ele>
  <time>2026-09-01T19:57:14Z</time>
  <course>6.77</course>
  <speed>28.640146647669248</speed>
  <fix>3d</fix>
</trkpt>
<trkpt lat="-27.2728856" lon="151.290276">
  <ele>361.73</ele>
  <time>2026-09-01T19:57:14Z</time>
  <course>6.78</course>
  <speed>28.64</speed>
  <fix>3d</fix>
</trkpt>
<trkpt lat="-27.272785" lon="151.2902895">
  <ele>362.02</ele>
  <time>2026-09-01T19:57:14Z</time>
  <course>6.77</course>
  <speed>27.733454526978786</speed>
  <fix>3d</fix>
</trkpt>
<trkpt lat="-27.2728354" lon="151.2902828">
  <ele>361.96</ele>
  <time>2026-09-01T19:57:14Z</time>
  <course>6.77</course>
  <speed>27.73</speed>
  <fix>3d</fix>
</trkpt>
<trkpt lat="-27.2727602" lon="151.2902928">
  <ele>362.09</ele>
  <time>2026-09-01T19:57:14Z</time>
  <course>6.77</course>
  <speed>27.733454526978786</speed>
  <fix>3d</fix>
</trkpt>
<trkpt lat="-27.2728354" lon="151.2902828">
  <ele>361.96</ele>
  <time>2026-09-01T19:57:14Z</time>
  <course>6.77</course>
  <speed>27.73</speed>
  <fix>3d</fix>
</trkpt>
<trkpt lat="-27.2727379" lon="151.2902957">
  <ele>362.19</ele>
  <time>2026-09-01T19:57:14Z</time>
  <course>6.77</course>
  <speed>26.825586666464538</speed>
  <fix>3d</fix>
</trkpt>
<trkpt lat="-27.2727867" lon="151.2902892">
  <ele>362.11</ele>
  <time>2026-09-01T19:57:14Z</time>
  <course>6.75</course>
  <speed>26.83</speed>
  <fix>3d</fix>
</trkpt>
<trkpt lat="-27.272714" lon="151.2902988">
  <ele>362.1</ele>
  <time>2026-09-01T19:57:14Z</time>
  <course>6.78</course>
  <speed>26.825586666464538</speed>
  <fix>3d</fix>
</trkpt>
<trkpt lat="-27.2727867" lon="151.2902892">
  <ele>362.11</ele>
  <time>2026-09-01T19:57:14Z</time>
  <course>6.75</course>
  <speed>26.83</speed>
  <fix>3d</fix>
</trkpt>
<trkpt lat="-27.2726922" lon="151.2903017">
  <ele>381.15</ele>
  <time>2026-09-01T19:57:14Z</time>
  <course>6.79</course>
  <speed>25.998346101242674</speed>
  <fix>3d</fix>
</trkpt>
<trkpt lat="-27.2727395" lon="151.2902955">
  <ele>362.18</ele>
  <time>2026-09-01T19:57:14Z</time>
  <course>6.71</course>
  <speed>26.0</speed>
  <fix>3d</fix>
</trkpt>
<trkpt lat="-27.272669" lon="151.2903048">
  <ele>362.32</ele>
  <time>2026-09-01T19:57:14Z</time>
  <course>6.79</course>
  <speed>25.998346101242674</speed>
  <fix>3d</fix>
</trkpt>
<trkpt lat="-27.2727395" lon="151.2902955">
  <ele>362.18</ele>
  <time>2026-09-01T19:57:14Z</time>
  <course>6.71</course>
  <speed>26.0</speed>
  <fix>3d</fix>
</trkpt>
<trkpt lat="-27.272648" lon="151.2903075">
  <ele>362.06</ele>
  <time>2026-09-01T19:57:14Z</time>
  <course>6.78</course>
  <speed>25.23947899620751</speed>
  <fix>3d</fix>
</trkpt>
<trkpt lat="-27.2726937" lon="151.2903015">
  <ele>362.15</ele>
  <time>2026-09-01T19:57:14Z</time>
  <course>6.66</course>
  <speed>25.24</speed>
  <fix>3d</fix>
</trkpt>
<trkpt lat="-27.2726255" lon="151.2903104">
  <ele>362.29</ele>
  <time>2026-09-01T19:57:14Z</time>
  <course>6.76</course>
  <speed>25.23947899620751</speed>
  <fix>3d</fix>
</trkpt>
<trkpt lat="-27.2726937" lon="151.2903015">
  <ele>362.15</ele>
  <time>2026-09-01T19:57:14Z</time>
  <course>6.66</course>
  <speed>25.24</speed>
  <fix>3d</fix>
</trkpt>
<trkpt lat="-27.2726049" lon="151.290313">
  <ele>362.11</ele>
  <time>2026-09-01T19:57:14Z</time>
  <course>6.74</course>
  <speed>24.552484599323137</speed>
  <fix>3d</fix>
</trkpt>
<trkpt lat="-27.2726493" lon="151.2903073">
  <ele>362.05</ele>
  <time>2026-09-01T19:57:14Z</time>
  <course>6.59</course>
  <speed>24.55</speed>
  <fix>3d</fix>
</trkpt>
<trkpt lat="-27.272583" lon="151.2903159">
  <ele>362.11</ele>
  <time>2026-09-01T19:57:14Z</time>
  <course>6.72</course>
  <speed>24.552484599323137</speed>
  <fix>3d</fix>
</trkpt>
<trkpt lat="-27.2726493" lon="151.2903073">
  <ele>362.05</ele>
  <time>2026-09-01T19:57:14Z</time>
  <course>6.59</course>
  <speed>24.55</speed>
  <fix>3d</fix>
</trkpt>
<trkpt lat="-27.2725628" lon="151.2903184">
  <ele>361.8</ele>
  <time>2026-09-01T19:57:14Z</time>
  <course>6.69</course>
  <speed>23.914048172570027</speed>
  <fix>3d</fix>
</trkpt>
<trkpt lat="-27.2726061" lon="151.2903129">
  <ele>361.89</ele>
  <time>2026-09-01T19:57:14Z</time>
  <course>6.52</course>
  <speed>23.92</speed>
  <fix>3d</fix>
</trkpt>
<trkpt lat="-27.2725415" lon="151.2903212">
  <ele>361.85</ele>
  <time>2026-09-01T19:57:14Z</time>
  <course>6.66</course>
  <speed>23.914048172570027</speed>
  <fix>3d</fix>
</trkpt>
<trkpt lat="-27.2726061" lon="151.2903129">
  <ele>361.89</ele>
  <time>2026-09-01T19:57:14Z</time>
  <course>6.52</course>
  <speed>23.92</speed>
  <fix>3d</fix>
</trkpt>
<trkpt lat="-26.9720619" lon="149.6127921">
  <ele>339.29</ele>
  <time>2026-09-01T19:57:15Z</time>
  <course>310.27</course>
  <speed>0.0</speed>
  <fix>3d</fix>
</trkpt>
<trkpt lat="-26.9720619" lon="149.6127921">
  <ele>339.29</ele>
  <time>2026-09-01T19:57:15Z</time>
  <course>310.27</course>
  <speed>0.0</speed>
  <fix>3d</fix>
</trkpt>
<trkpt lat="-27.274439" lon="151.290064">
  <ele>-0.01</ele>
  <time>2026-09-01T19:57:15Z</time>
  <course>0.22</course>
  <speed>0.0</speed>
  <fix>3d</fix>
</trkpt>
<trkpt lat="-27.274439" lon="151.290064">
  <ele>343.1</ele>
  <time>2026-09-01T19:57:15Z</time>
  <course>294.58</course>
  <speed>0.0</speed>
  <fix>3d</fix>
</trkpt>
<trkpt lat="-27.274439" lon="151.290064">
  <ele>0.02</ele>
  <time>2026-09-01T19:57:15Z</time>
  <course>1.2</course>
  <speed>0.0</speed>
  <fix>3d</fix>
</trkpt>
<trkpt lat="-27.274439" lon="151.290064">
  <ele>343.1</ele>
  <time>2026-09-01T19:57:15Z</time>
  <course>294.58</course>
  <speed>0.0</speed>
  <fix>3d</fix>
</trkpt>
<trkpt lat="-27.274439" lon="151.290064">
  <ele>-0.08</ele>
  <time>2026-09-01T19:57:15Z</time>
  <course>2.1</course>
  <speed>0.0</speed>
  <fix>3d</fix>
</trkpt>
<trkpt lat="-27.274439" lon="151.290064">
  <ele>343.1</ele>
  <time>2026-09-01T19:57:15Z</time>
  <course>273.33</course>
  <speed>0.0</speed>
  <fix>3d</fix>
</trkpt>
<trkpt lat="-27.274439" lon="151.290064">
  <ele>0.22</ele>
  <time>2026-09-01T19:57:15Z</time>
  <course>2.92</course>
  <speed>0.0</speed>
  <fix>3d</fix>
</trkpt>
<trkpt lat="-27.274439" lon="151.290064">
  <ele>343.1</ele>
  <time>2026-09-01T19:57:15Z</time>
  <course>273.33</course>
  <speed>0.0</speed>
  <fix>3d</fix>
</trkpt>
<trkpt lat="-27.274439" lon="151.290064">
  <ele>0.09</ele>
  <time>2026-09-01T19:57:15Z</time>
  <course>3.66</course>
  <speed>0.0</speed>
  <fix>3d</fix>
</trkpt>
<trkpt lat="-27.274439" lon="151.290064">
  <ele>343.1</ele>
  <time>2026-09-01T19:57:15Z</time>
  <course>270.44</course>
  <speed>0.0</speed>
  <fix>3d</fix>
</trkpt>
<trkpt lat="-27.274439" lon="151.290064">
  <ele>0.08</ele>
  <time>2026-09-01T19:57:15Z</time>
  <course>4.34</course>
  <speed>0.0</speed>
  <fix>3d</fix>
</trkpt>
<trkpt lat="-27.274439" lon="151.290064">
  <ele>343.1</ele>
  <time>2026-09-01T19:57:15Z</time>
  <course>270.44</course>
  <speed>0.0</speed>
  <fix>3d</fix>
</trkpt>
<trkpt lat="-27.274439" lon="151.290064">
  <ele>0.09</ele>
  <time>2026-09-01T19:57:15Z</time>
  <course>4.95</course>
  <speed>0.0</speed>
  <fix>3d</fix>
</trkpt>
<trkpt lat="-27.274439" lon="151.290064">
  <ele>343.1</ele>
  <time>2026-09-01T19:57:15Z</time>
  <course>270.05</course>
  <speed>0.0</speed>
  <fix>3d</fix>
</trkpt>
<trkpt lat="-27.274439" lon="151.290064">
  <ele>-0.05</ele>
  <time>2026-09-01T19:57:15Z</time>
  <course>5.5</course>
  <speed>0.0</speed>
  <fix>3d</fix>
</trkpt>
<trkpt lat="-27.274439" lon="151.290064">
  <ele>343.1</ele>
  <time>2026-09-01T19:57:15Z</time>
  <course>270.05</course>
  <speed>0.0</speed>
  <fix>3d</fix>
</trkpt>
<trkpt lat="-27.274439" lon="151.290064">
  <ele>343.06</ele>
  <time>2026-09-01T19:57:15Z</time>
  <course>5.98</course>
  <speed>0.0</speed>
  <fix>3d</fix>
</trkpt>
<trkpt lat="-27.274439" lon="151.290064">
  <ele>343.1</ele>
  <time>2026-09-01T19:57:15Z</time>
  <course>270.0</course>
  <speed>0.0</speed>
  <fix>3d</fix>
</trkpt>
<trkpt lat="-27.274439" lon="151.290064">
  <ele>343.18</ele>
  <time>2026-09-01T19:57:15Z</time>
  <course>6.44</course>
  <speed>0.0</speed>
  <fix>3d</fix>
</trkpt>
<trkpt lat="-27.274439" lon="151.290064">
  <ele>343.1</ele>
  <time>2026-09-01T19:57:15Z</time>
  <course>270.0</course>
  <speed>0.0</speed>
  <fix>3d</fix>
</trkpt>
<trkpt lat="-27.274439" lon="151.290064">
  <ele>342.91</ele>
  <time>2026-09-01T19:57:15Z</time>
  <course>6.85</course>
  <speed>0.0</speed>
  <fix>3d</fix>
</trkpt>
<trkpt lat="-27.274439" lon="151.290064">
  <ele>343.1</ele>
  <time>2026-09-01T19:57:15Z</time>
  <course>270.0</course>
  <speed>0.0</speed>
  <fix>3d</fix>
</trkpt>
<trkpt lat="-27.274439" lon="151.290064">
  <ele>343.06</ele>
  <time>2026-09-01T19:57:15Z</time>
  <course>7.3</course>
  <speed>0.0</speed>
  <fix>3d</fix>
</trkpt>
<trkpt lat="-27.274439" lon="151.290064">
  <ele>343.1</ele>
  <time>2026-09-01T19:57:15Z</time>
  <course>270.0</course>
  <speed>0.0</speed>
  <fix>3d</fix>
</trkpt>
<trkpt lat="-27.274439" lon="151.290064">
  <ele>343.13</ele>
  <time>2026-09-01T19:57:15Z</time>
  <course>7.56</course>
  <speed>0.0</speed>
  <fix>3d</fix>
</trkpt>
<trkpt lat="-27.274439" lon="151.290064">
  <ele>343.1</ele>
  <time>2026-09-01T19:57:15Z</time>
  <course>270.0</course>
  <speed>0.0</speed>
  <fix>3d</fix>
</trkpt>
<trkpt lat="-27.274439" lon="151.290064">
  <ele>343.04</ele>
  <time>2026-09-01T19:57:15Z</time>
  <course>7.87</course>
  <speed>0.0</speed>
  <fix>3d</fix>
</trkpt>
<trkpt lat="-27.274439" lon="151.290064">
  <ele>343.1</ele>
  <time>2026-09-01T19:57:15Z</time>
  <course>270.0</course>
  <speed>0.0</speed>
  <fix>3d</fix>
</trkpt>
<trkpt lat="-27.274439" lon="151.290064">
  <ele>342.88</ele>
  <time>2026-09-01T19:57:15Z</time>
  <course>8.14</course>
  <speed>0.0</speed>
  <fix>3d</fix>
</trkpt>
<trkpt lat="-27.274439" lon="151.290064">
  <ele>343.1</ele>
  <time>2026-09-01T19:57:15Z</time>
  <course>270.0</course>
  <speed>0.0</speed>
  <fix>3d</fix>
</trkpt>
<trkpt lat="-27.274439" lon="151.290064">
  <ele>343.02</ele>
  <time>2026-09-01T19:57:15Z</time>
  <course>8.39</course>
  <speed>0.0</speed>
  <fix>3d</fix>
</trkpt>
<trkpt lat="-27.274439" lon="151.290064">
  <ele>343.1</ele>
  <time>2026-09-01T19:57:15Z</time>
  <course>270.0</course>
  <speed>0.0</speed>
  <fix>3d</fix>
</trkpt>
<trkpt lat="-27.274439" lon="151.290064">
  <ele>343.23</ele>
  <time>2026-09-01T19:57:15Z</time>
  <course>8.63</course>
  <speed>0.0</speed>
  <fix>3d</fix>
</trkpt>
<trkpt lat="-27.274439" lon="151.290064">
  <ele>343.1</ele>
  <time>2026-09-01T19:57:15Z</time>
  <course>270.0</course>
  <speed>0.0</speed>
  <fix>3d</fix>
</trkpt>
<trkpt lat="-27.274439" lon="151.290064">
  <ele>343.17</ele>
  <time>2026-09-01T19:57:15Z</time>
  <course>8.83</course>
  <speed>0.0</speed>
  <fix>3d</fix>
</trkpt>
<trkpt lat="-27.274439" lon="151.290064">
  <ele>343.1</ele>
  <time>2026-09-01T19:57:15Z</time>
  <course>270.0</course>
  <speed>0.0</speed>
  <fix>3d</fix>
</trkpt>
<trkpt lat="-27.274439" lon="151.290064">
  <ele>343.04</ele>
  <time>2026-09-01T19:57:15Z</time>
  <course>9.01</course>
  <speed>0.0</speed>
  <fix>3d</fix>
</trkpt>
<trkpt lat="-27.274439" lon="151.290064">
  <ele>343.1</ele>
  <time>2026-09-01T19:57:15Z</time>
  <course>270.0</course>
  <speed>0.0</speed>
  <fix>3d</fix>
</trkpt>
<trkpt lat="-27.274439" lon="151.290064">
  <ele>342.89</ele>
  <time>2026-09-01T19:57:15Z</time>
  <course>9.18</course>
  <speed>0.0</speed>
  <fix>3d</fix>
</trkpt>
<trkpt lat="-27.274439" lon="151.290064">
  <ele>343.1</ele>
  <time>2026-09-01T19:57:15Z</time>
  <course>270.0</course>
  <speed>0.0</speed>
  <fix>3d</fix>
</trkpt>
<trkpt lat="-27.274439" lon="151.290064">
  <ele>343.08</ele>
  <time>2026-09-01T19:57:15Z</time>
  <course>9.33</course>
  <speed>0.0</speed>
  <fix>3d</fix>
</trkpt>
<trkpt lat="-27.274439" lon="151.290064">
  <ele>343.1</ele>
  <time>2026-09-01T19:57:15Z</time>
  <course>270.0</course>
  <speed>0.0</speed>
  <fix>3d</fix>
</trkpt>
<trkpt lat="-27.274439" lon="151.290064">
  <ele>343.19</ele>
  <time>2026-09-01T19:57:15Z</time>
  <course>9.47</course>
  <speed>0.0</speed>
  <fix>3d</fix>
</trkpt>
<trkpt lat="-27.274439" lon="151.290064">
  <ele>343.1</ele>
  <time>2026-09-01T19:57:15Z</time>
  <course>270.0</course>
  <speed>0.0</speed>
  <fix>3d</fix>
</trkpt>
<trkpt lat="-27.274439" lon="151.290064">
  <ele>342.88</ele>
  <time>2026-09-01T19:57:16Z</time>
  <course>9.59</course>
  <speed>0.0</speed>
  <fix>3d</fix>
</trkpt>
<trkpt lat="-27.274439" lon="151.290064">
  <ele>343.1</ele>
  <time>2026-09-01T19:57:16Z</time>
  <course>270.0</course>
  <speed>0.0</speed>
  <fix>3d</fix>
</trkpt>
<trkpt lat="-27.274439" lon="151.290064">
  <ele>343.17</ele>
  <time>2026-09-01T19:57:16Z</time>
  <course>9.7</course>
  <speed>0.0</speed>
  <fix>3d</fix>
</trkpt>
<trkpt lat="-27.274439" lon="151.290064">
  <ele>343.1</ele>
  <time>2026-09-01T19:57:16Z</time>
  <course>270.0</course>
  <speed>0.0</speed>
  <fix>3d</fix>
</trkpt>
<trkpt lat="-27.274439" lon="151.290064">
  <ele>342.89</ele>
  <time>2026-09-01T19:57:16Z</time>
  <course>9.8</course>
  <speed>0.0</speed>
  <fix>3d</fix>
</trkpt>
<trkpt lat="-27.274439" lon="151.290064">
  <ele>343.1</ele>
  <time>2026-09-01T19:57:16Z</time>
  <course>270.0</course>
  <speed>0.0</speed>
  <fix>3d</fix>
</trkpt>
<trkpt lat="-27.274439" lon="151.290064">
  <ele>342.99</ele>
  <time>2026-09-01T19:57:16Z</time>
  <course>9.9</course>
  <speed>0.0</speed>
  <fix>3d</fix>
</trkpt>
<trkpt lat="-27.274439" lon="151.290064">
  <ele>343.1</ele>
  <time>2026-09-01T19:57:16Z</time>
  <course>270.0</course>
  <speed>0.0</speed>
  <fix>3d</fix>
</trkpt>
<trkpt lat="-27.274439" lon="151.290064">
  <ele>342.87</ele>
  <time>2026-09-01T19:57:16Z</time>
  <course>9.98</course>
  <speed>0.0</speed>
  <fix>3d</fix>
</trkpt>
<trkpt lat="-27.274439" lon="151.290064">
  <ele>343.1</ele>
  <time>2026-09-01T19:57:16Z</time>
  <course>270.0</course>
  <speed>0.0</speed>
  <fix>3d</fix>
</trkpt>
<trkpt lat="-27.274439" lon="151.290064">
  <ele>343.09</ele>
  <time>2026-09-01T19:57:16Z</time>
  <course>10.06</course>
  <speed>0.0</speed>
  <fix>3d</fix>
</trkpt>
<trkpt lat="-27.274439" lon="151.290064">
  <ele>343.1</ele>
  <time>2026-09-01T19:57:16Z</time>
  <course>270.0</course>
  <speed>0.0</speed>
  <fix>3d</fix>
</trkpt>
<trkpt lat="-27.274439" lon="151.290064">
  <ele>343.18</ele>
  <time>2026-09-01T19:57:16Z</time>
  <course>10.13</course>
  <speed>0.0</speed>
  <fix>3d</fix>
</trkpt>
<trkpt lat="-27.274439" lon="151.290064">
  <ele>343.1</ele>
  <time>2026-09-01T19:57:16Z</time>
  <course>270.0</course>
  <speed>0.0</speed>
  <fix>3d</fix>
</trkpt>
<trkpt lat="-27.274439" lon="151.290064">
  <ele>343.05</ele>
  <time>2026-09-01T19:57:16Z</time>
  <course>10.2</course>
  <speed>0.0</speed>
  <fix>3d</fix>
</trkpt>
<trkpt lat="-27.274439" lon="151.290064">
  <ele>343.1</ele>
  <time>2026-09-01T19:57:16Z</time>
  <course>270.0</course>
  <speed>0.0</speed>
  <fix>3d</fix>
</trkpt>
<trkpt lat="-27.274439" lon="151.290064">
  <ele>342.96</ele>
  <time>2026-09-01T19:57:16Z</time>
  <course>10.25</course>
  <speed>0.0</speed>
  <fix>3d</fix>
</trkpt>
<trkpt lat="-27.274439" lon="151.290064">
  <ele>343.1</ele>
  <time>2026-09-01T19:57:16Z</time>
  <course>270.0</course>
  <speed>0.0</speed>
  <fix>3d</fix>
</trkpt>
<trkpt lat="-27.274439" lon="151.290064">
  <ele>343.1</ele>
  <time>2026-09-01T19:57:16Z</time>
  <course>10.31</course>
  <speed>0.0</speed>
  <fix>3d</fix>
</trkpt>
<trkpt lat="-27.274439" lon="151.290064">
  <ele>343.1</ele>
  <time>2026-09-01T19:57:16Z</time>
  <course>270.0</course>
  <speed>0.0</speed>
  <fix>3d</fix>
</trkpt>
<trkpt lat="-27.274439" lon="151.290064">
  <ele>343.22</ele>
  <time>2026-09-01T19:57:16Z</time>
  <course>10.35</course>
  <speed>0.0</speed>
  <fix>3d</fix>
</trkpt>
<trkpt lat="-27.274439" lon="151.290064">
  <ele>343.1</ele>
  <time>2026-09-01T19:57:16Z</time>
  <course>270.0</course>
  <speed>0.0</speed>
  <fix>3d</fix>
</trkpt>
<trkpt lat="-27.274439" lon="151.290064">
  <ele>343.17</ele>
  <time>2026-09-01T19:57:16Z</time>
  <course>10.4</course>
  <speed>0.0</speed>
  <fix>3d</fix>
</trkpt>
<trkpt lat="-27.274439" lon="151.290064">
  <ele>343.1</ele>
  <time>2026-09-01T19:57:16Z</time>
  <course>270.0</course>
  <speed>0.0</speed>
  <fix>3d</fix>
</trkpt>
<trkpt lat="-27.274439" lon="151.290064">
  <ele>343.08</ele>
  <time>2026-09-01T19:57:16Z</time>
  <course>10.44</course>
  <speed>0.0</speed>
  <fix>3d</fix>
</trkpt>
<trkpt lat="-27.274439" lon="151.290064">
  <ele>343.1</ele>
  <time>2026-09-01T19:57:16Z</time>
  <course>270.0</course>
  <speed>0.0</speed>
  <fix>3d</fix>
</trkpt>
<trkpt lat="-27.274439" lon="151.290064">
  <ele>343.04</ele>
  <time>2026-09-01T19:57:16Z</time>
  <course>10.47</course>
  <speed>0.0</speed>
  <fix>3d</fix>
</trkpt>
<trkpt lat="-27.274439" lon="151.290064">
  <ele>343.1</ele>
  <time>2026-09-01T19:57:16Z</time>
  <course>270.0</course>
  <speed>0.0</speed>
  <fix>3d</fix>
</trkpt>
<trkpt lat="-27.274439" lon="151.290064">
  <ele>343.18</ele>
  <time>2026-09-01T19:57:16Z</time>
  <course>10.5</course>
  <speed>0.0</speed>
  <fix>3d</fix>
</trkpt>
<trkpt lat="-27.274439" lon="151.290064">
  <ele>343.1</ele>
  <time>2026-09-01T19:57:16Z</time>
  <course>270.0</course>
  <speed>0.0</speed>
  <fix>3d</fix>
</trkpt>
<trkpt lat="-27.274439" lon="151.290064">
  <ele>343.12</ele>
  <time>2026-09-01T19:57:16Z</time>
  <course>10.53</course>
  <speed>0.0</speed>
  <fix>3d</fix>
</trkpt>
<trkpt lat="-27.274439" lon="151.290064">
  <ele>343.1</ele>
  <time>2026-09-01T19:57:16Z</time>
  <course>270.0</course>
  <speed>0.0</speed>
  <fix>3d</fix>
</trkpt>
<trkpt lat="-27.274439" lon="151.290064">
  <ele>343.04</ele>
  <time>2026-09-01T19:57:16Z</time>
  <course>10.56</course>
  <speed>0.0</speed>
  <fix>3d</fix>
</trkpt>
<trkpt lat="-27.274439" lon="151.290064">
  <ele>343.1</ele>
  <time>2026-09-01T19:57:16Z</time>
  <course>270.0</course>
  <speed>0.0</speed>
  <fix>3d</fix>
</trkpt>
<trkpt lat="-27.274439" lon="151.290064">
  <ele>343.07</ele>
  <time>2026-09-01T19:57:16Z</time>
  <course>10.58</course>
  <speed>0.0</speed>
  <fix>3d</fix>
</trkpt>
<trkpt lat="-27.274439" lon="151.290064">
  <ele>343.1</ele>
  <time>2026-09-01T19:57:16Z</time>
  <course>270.0</course>
  <speed>0.0</speed>
  <fix>3d</fix>
</trkpt>
<trkpt lat="-27.274439" lon="151.290064">
  <ele>343.04</ele>
  <time>2026-09-01T19:57:16Z</time>
  <course>10.6</course>
  <speed>0.0</speed>
  <fix>3d</fix>
</trkpt>
<trkpt lat="-27.274439" lon="151.290064">
  <ele>343.1</ele>
  <time>2026-09-01T19:57:16Z</time>
  <course>270.0</course>
  <speed>0.0</speed>
  <fix>3d</fix>
</trkpt>
<trkpt lat="-27.274439" lon="151.290064">
  <ele>343.01</ele>
  <time>2026-09-01T19:57:16Z</time>
  <course>10.62</course>
  <speed>0.0</speed>
  <fix>3d</fix>
</trkpt>
<trkpt lat="-27.274439" lon="151.290064">
  <ele>343.1</ele>
  <time>2026-09-01T19:57:16Z</time>
  <course>270.0</course>
  <speed>0.0</speed>
  <fix>3d</fix>
</trkpt>
<trkpt lat="-27.274439" lon="151.290064">
  <ele>343.2</ele>
  <time>2026-09-01T19:57:16Z</time>
  <course>10.64</course>
  <speed>0.0</speed>
  <fix>3d</fix>
</trkpt>
<trkpt lat="-27.274439" lon="151.290064">
  <ele>343.1</ele>
  <time>2026-09-01T19:57:16Z</time>
  <course>270.0</course>
  <speed>0.0</speed>
  <fix>3d</fix>
</trkpt>
<trkpt lat="-27.274439" lon="151.290064">
  <ele>343.24</ele>
  <time>2026-09-01T19:57:16Z</time>
  <course>10.65</course>
  <speed>0.0</speed>
  <fix>3d</fix>
</trkpt>
<trkpt lat="-27.274439" lon="151.290064">
  <ele>343.1</ele>
  <time>2026-09-01T19:57:16Z</time>
  <course>270.0</course>
  <speed>0.0</speed>
  <fix>3d</fix>
</trkpt>
<trkpt lat="-27.274439" lon="151.290064">
  <ele>342.88</ele>
  <time>2026-09-01T19:57:16Z</time>
  <course>10.67</course>
  <speed>0.0</speed>
  <fix>3d</fix>
</trkpt>
<trkpt lat="-27.274439" lon="151.290064">
  <ele>343.1</ele>
  <time>2026-09-01T19:57:16Z</time>
  <course>270.0</course>
  <speed>0.0</speed>
  <fix>3d</fix>
</trkpt>
<trkpt lat="-27.274439" lon="151.290064">
  <ele>343.21</ele>
  <time>2026-09-01T19:57:16Z</time>
  <course>10.68</course>
  <speed>0.0</speed>
  <fix>3d</fix>
</trkpt>
<trkpt lat="-27.274439" lon="151.290064">
  <ele>343.1</ele>
  <time>2026-09-01T19:57:16Z</time>
  <course>270.0</course>
  <speed>0.0</speed>
  <fix>3d</fix>
</trkpt>
<trkpt lat="-27.274439" lon="151.290064">
  <ele>343.02</ele>
  <time>2026-09-01T19:57:16Z</time>
  <course>10.69</course>
  <speed>0.0</speed>
  <fix>3d</fix>
</trkpt>
<trkpt lat="-27.274439" lon="151.290064">
  <ele>343.1</ele>
  <time>2026-09-01T19:57:16Z</time>
  <course>270.0</course>
  <speed>0.0</speed>
  <fix>3d</fix>
</trkpt>
<trkpt lat="-27.274439" lon="151.290064">
  <ele>342.93</ele>
  <time>2026-09-01T19:57:16Z</time>
  <course>10.7</course>
  <speed>0.0</speed>
  <fix>3d</fix>
</trkpt>
<trkpt lat="-27.274439" lon="151.290064">
  <ele>343.1</ele>
  <time>2026-09-01T19:57:16Z</time>
  <course>270.0</course>
  <speed>0.0</speed>
  <fix>3d</fix>
</trkpt>
<trkpt lat="-27.274439" lon="151.290064">
  <ele>343.07</ele>
  <time>2026-09-01T19:57:16Z</time>
  <course>10.71</course>
  <speed>0.0</speed>
  <fix>3d</fix>
</trkpt>
<trkpt lat="-27.274439" lon="151.290064">
  <ele>343.1</ele>
  <time>2026-09-01T19:57:16Z</time>
  <course>270.0</course>
  <speed>0.0</speed>
  <fix>3d</fix>
</trkpt>
<trkpt lat="-27.274439" lon="151.290064">
  <ele>342.94</ele>
  <time>2026-09-01T19:57:16Z</time>
  <course>10.72</course>
  <speed>0.0</speed>
  <fix>3d</fix>
</trkpt>
<trkpt lat="-27.274439" lon="151.290064">
  <ele>343.1</ele>
  <time>2026-09-01T19:57:16Z</time>
  <course>270.0</course>
  <speed>0.0</speed>
  <fix>3d</fix>
</trkpt>
<trkpt lat="-27.274439" lon="151.290064">
  <ele>343.11</ele>
  <time>2026-09-01T19:57:16Z</time>
  <course>10.73</course>
  <speed>0.0</speed>
  <fix>3d</fix>
</trkpt>
<trkpt lat="-27.274439" lon="151.290064">
  <ele>343.1</ele>
  <time>2026-09-01T19:57:16Z</time>
  <course>270.0</course>
  <speed>0.0</speed>
  <fix>3d</fix>
</trkpt>
<trkpt lat="-27.274439" lon="151.290064">
  <ele>343.24</ele>
  <time>2026-09-01T19:57:16Z</time>
  <course>10.73</course>
  <speed>0.0</speed>
  <fix>3d</fix>
</trkpt>
<trkpt lat="-27.274439" lon="151.290064">
  <ele>343.1</ele>
  <time>2026-09-01T19:57:16Z</time>
  <course>270.0</course>
  <speed>0.0</speed>
  <fix>3d</fix>
</trkpt>
<trkpt lat="-27.274439" lon="151.290064">
  <ele>343.18</ele>
  <time>2026-09-01T19:57:16Z</time>
  <course>10.74</course>
  <speed>0.0</speed>
  <fix>3d</fix>
</trkpt>
<trkpt lat="-27.274439" lon="151.290064">
  <ele>343.1</ele>
  <time>2026-09-01T19:57:16Z</time>
  <course>270.0</course>
  <speed>0.0</speed>
  <fix>3d</fix>
</trkpt>
<trkpt lat="-27.274439" lon="151.290064">
  <ele>342.89</ele>
  <time>2026-09-01T19:57:16Z</time>
  <course>10.75</course>
  <speed>0.0</speed>
  <fix>3d</fix>
</trkpt>
<trkpt lat="-27.274439" lon="151.290064">
  <ele>343.1</ele>
  <time>2026-09-01T19:57:16Z</time>
  <course>270.0</course>
  <speed>0.0</speed>
  <fix>3d</fix>
</trkpt>
<trkpt lat="-27.274439" lon="151.290064">
  <ele>343.23</ele>
  <time>2026-09-01T19:57:16Z</time>
  <course>10.75</course>
  <speed>0.0</speed>
  <fix>3d</fix>
</trkpt>
<trkpt lat="-27.274439" lon="151.290064">
  <ele>343.1</ele>
  <time>2026-09-01T19:57:16Z</time>
  <course>270.0</course>
  <speed>0.0</speed>
  <fix>3d</fix>
</trkpt>
<trkpt lat="-27.274439" lon="151.290064">
  <ele>343.23</ele>
  <time>2026-09-01T19:57:16Z</time>
  <course>10.76</course>
  <speed>0.0</speed>
  <fix>3d</fix>
</trkpt>
<trkpt lat="-27.274439" lon="151.290064">
  <ele>343.1</ele>
  <time>2026-09-01T19:57:16Z</time>
  <course>270.0</course>
  <speed>0.0</speed>
  <fix>3d</fix>
</trkpt>
<trkpt lat="-27.274439" lon="151.290064">
  <ele>342.99</ele>
  <time>2026-09-01T19:57:16Z</time>
  <course>10.76</course>
  <speed>0.0</speed>
  <fix>3d</fix>
</trkpt>
<trkpt lat="-27.274439" lon="151.290064">
  <ele>343.1</ele>
  <time>2026-09-01T19:57:16Z</time>
  <course>270.0</course>
  <speed>0.0</speed>
  <fix>3d</fix>
</trkpt>
<trkpt lat="-27.274439" lon="151.290064">
  <ele>343.13</ele>
  <time>2026-09-01T19:57:16Z</time>
  <course>10.76</course>
  <speed>0.0</speed>
  <fix>3d</fix>
</trkpt>
<trkpt lat="-27.274439" lon="151.290064">
  <ele>343.1</ele>
  <time>2026-09-01T19:57:16Z</time>
  <course>270.0</course>
  <speed>0.0</speed>
  <fix>3d</fix>
</trkpt>
<trkpt lat="-27.274439" lon="151.290064">
  <ele>343.07</ele>
  <time>2026-09-01T19:57:16Z</time>
  <course>10.77</course>
  <speed>0.0</speed>
  <fix>3d</fix>
</trkpt>
<trkpt lat="-27.274439" lon="151.290064">
  <ele>343.1</ele>
  <time>2026-09-01T19:57:16Z</time>
  <course>270.0</course>
  <speed>0.0</speed>
  <fix>3d</fix>
</trkpt>
<trkpt lat="-27.274439" lon="151.290064">
  <ele>343.19</ele>
  <time>2026-09-01T19:57:16Z</time>
  <course>10.77</course>
  <speed>0.0</speed>
  <fix>3d</fix>
</trkpt>
<trkpt lat="-27.274439" lon="151.290064">
  <ele>343.1</ele>
  <time>2026-09-01T19:57:16Z</time>
  <course>270.0</course>
  <speed>0.0</speed>
  <fix>3d</fix>
</trkpt>
<trkpt lat="-27.274439" lon="151.290064">
  <ele>342.93</ele>
  <time>2026-09-01T19:57:16Z</time>
  <course>10.77</course>
  <speed>0.0</speed>
  <fix>3d</fix>
</trkpt>
<trkpt lat="-27.274439" lon="151.290064">
  <ele>343.1</ele>
  <time>2026-09-01T19:57:16Z</time>
  <course>270.0</course>
  <speed>0.0</speed>
  <fix>3d</fix>
</trkpt>
<trkpt lat="-27.274439" lon="151.290064">
  <ele>343.19</ele>
  <time>2026-09-01T19:57:16Z</time>
  <course>10.78</course>
  <speed>0.0</speed>
  <fix>3d</fix>
</trkpt>
<trkpt lat="-27.274439" lon="151.290064">
  <ele>343.1</ele>
  <time>2026-09-01T19:57:16Z</time>
  <course>270.0</course>
  <speed>0.0</speed>
  <fix>3d</fix>
</trkpt>
<trkpt lat="-27.274439" lon="151.290064">
  <ele>343.1</ele>
  <time>2026-09-01T19:57:16Z</time>
  <course>10.78</course>
  <speed>0.0</speed>
  <fix>3d</fix>
</trkpt>
<trkpt lat="-27.274439" lon="151.290064">
  <ele>343.1</ele>
  <time>2026-09-01T19:57:16Z</time>
  <course>270.0</course>
  <speed>0.0</speed>
  <fix>3d</fix>
</trkpt>
<trkpt lat="-27.274439" lon="151.290064">
  <ele>343.01</ele>
  <time>2026-09-01T19:57:16Z</time>
  <course>10.78</course>
  <speed>0.0</speed>
  <fix>3d</fix>
</trkpt>
<trkpt lat="-27.274439" lon="151.290064">
  <ele>343.1</ele>
  <time>2026-09-01T19:57:16Z</time>
  <course>270.0</course>
  <speed>0.0</speed>
  <fix>3d</fix>
</trkpt>
<trkpt lat="-27.274439" lon="151.290064">
  <ele>343.11</ele>
  <time>2026-09-01T19:57:16Z</time>
  <course>10.78</course>
  <speed>0.0</speed>
  <fix>3d</fix>
</trkpt>
<trkpt lat="-27.274439" lon="151.290064">
  <ele>343.1</ele>
  <time>2026-09-01T19:57:16Z</time>
  <course>270.0</course>
  <speed>0.0</speed>
  <fix>3d</fix>
</trkpt>
<trkpt lat="-27.274439" lon="151.290064">
  <ele>342.96</ele>
  <time>2026-09-01T19:57:16Z</time>
  <course>10.78</course>
  <speed>0.0</speed>
  <fix>3d</fix>
</trkpt>
<trkpt lat="-27.274439" lon="151.290064">
  <ele>343.1</ele>
  <time>2026-09-01T19:57:16Z</time>
  <course>270.0</course>
  <speed>0.0</speed>
  <fix>3d</fix>
</trkpt>
<trkpt lat="-27.274439" lon="151.290064">
  <ele>343.19</ele>
  <time>2026-09-01T19:57:16Z</time>
  <course>10.79</course>
  <speed>0.0</speed>
  <fix>3d</fix>
</trkpt>
<trkpt lat="-27.274439" lon="151.290064">
  <ele>343.1</ele>
  <time>2026-09-01T19:57:16Z</time>
  <course>270.0</course>
  <speed>0.0</speed>
  <fix>3d</fix>
</trkpt>
<trkpt lat="-27.274439" lon="151.290064">
  <ele>343.0</ele>
  <time>2026-09-01T19:57:16Z</time>
  <course>10.79</course>
  <speed>0.0</speed>
  <fix>3d</fix>
</trkpt>
<trkpt lat="-27.274439" lon="151.290064">
  <ele>343.1</ele>
  <time>2026-09-01T19:57:16Z</time>
  <course>270.0</course>
  <speed>0.0</speed>
  <fix>3d</fix>
</trkpt>
<trkpt lat="-27.274439" lon="151.290064">
  <ele>343.2</ele>
  <time>2026-09-01T19:57:16Z</time>
  <course>10.79</course>
  <speed>0.0</speed>
  <fix>3d</fix>
</trkpt>
<trkpt lat="-27.274439" lon="151.290064">
  <ele>343.1</ele>
  <time>2026-09-01T19:57:16Z</time>
  <course>270.0</course>
  <speed>0.0</speed>
  <fix>3d</fix>
</trkpt>
<trkpt lat="-27.274439" lon="151.290064">
  <ele>343.2</ele>
  <time>2026-09-01T19:57:16Z</time>
  <course>10.79</course>
  <speed>0.0</speed>
  <fix>3d</fix>
</trkpt>
<trkpt lat="-27.274439" lon="151.290064">
  <ele>343.1</ele>
  <time>2026-09-01T19:57:16Z</time>
  <course>270.0</course>
  <speed>0.0</speed>
  <fix>3d</fix>
</trkpt>
<trkpt lat="-27.274439" lon="151.290064">
  <ele>343.13</ele>
  <time>2026-09-01T19:57:16Z</time>
  <course>10.79</course>
  <speed>0.0</speed>
  <fix>3d</fix>
</trkpt>
<trkpt lat="-27.274439" lon="151.290064">
  <ele>343.1</ele>
  <time>2026-09-01T19:57:16Z</time>
  <course>270.0</course>
  <speed>0.0</speed>
  <fix>3d</fix>
</trkpt>
<trkpt lat="-27.274439" lon="151.290064">
  <ele>343.1</ele>
  <time>2026-09-01T19:57:16Z</time>
  <course>10.79</course>
  <speed>0.0</speed>
  <fix>3d</fix>
</trkpt>
<trkpt lat="-27.274439" lon="151.290064">
  <ele>343.1</ele>
  <time>2026-09-01T19:57:16Z</time>
  <course>270.0</course>
  <speed>0.0</speed>
  <fix>3d</fix>
</trkpt>
<trkpt lat="-27.274439" lon="151.290064">
  <ele>343.12</ele>
  <time>2026-09-01T19:57:16Z</time>
  <course>10.79</course>
  <speed>0.0</speed>
  <fix>3d</fix>
</trkpt>
<trkpt lat="-27.274439" lon="151.290064">
  <ele>343.1</ele>
  <time>2026-09-01T19:57:16Z</time>
  <course>270.0</course>
  <speed>0.0</speed>
  <fix>3d</fix>
</trkpt>
<trkpt lat="-27.274439" lon="151.290064">
  <ele>342.94</ele>
  <time>2026-09-01T19:57:16Z</time>
  <course>10.79</course>
  <speed>0.0</speed>
  <fix>3d</fix>
</trkpt>
<trkpt lat="-27.274439" lon="151.290064">
  <ele>343.1</ele>
  <time>2026-09-01T19:57:16Z</time>
  <course>270.0</course>
  <speed>0.0</speed>
  <fix>3d</fix>
</trkpt>
<trkpt lat="-27.274439" lon="151.290064">
  <ele>343.25</ele>
  <time>2026-09-01T19:57:16Z</time>
  <course>10.79</course>
  <speed>0.0</speed>
  <fix>3d</fix>
</trkpt>
<trkpt lat="-27.274439" lon="151.290064">
  <ele>343.1</ele>
  <time>2026-09-01T19:57:16Z</time>
  <course>270.0</course>
  <speed>0.0</speed>
  <fix>3d</fix>
</trkpt>
<trkpt lat="-27.274439" lon="151.290064">
  <ele>342.93</ele>
  <time>2026-09-01T19:57:16Z</time>
  <course>10.79</course>
  <speed>0.0</speed>
  <fix>3d</fix>
</trkpt>
<trkpt lat="-27.274439" lon="151.290064">
  <ele>343.1</ele>
  <time>2026-09-01T19:57:16Z</time>
  <course>270.0</course>
  <speed>0.0</speed>
  <fix>3d</fix>
</trkpt>
<trkpt lat="-27.274439" lon="151.290064">
  <ele>343.08</ele>
  <time>2026-09-01T19:57:16Z</time>
  <course>10.79</course>
  <speed>0.0</speed>
  <fix>3d</fix>
</trkpt>
<trkpt lat="-27.274439" lon="151.290064">
  <ele>343.1</ele>
  <time>2026-09-01T19:57:16Z</time>
  <course>270.0</course>
  <speed>0.0</speed>
  <fix>3d</fix>
</trkpt>
<trkpt lat="-27.274439" lon="151.290064">
  <ele>343.23</ele>
  <time>2026-09-01T19:57:16Z</time>
  <course>10.8</course>
  <speed>0.0</speed>
  <fix>3d</fix>
</trkpt>
<trkpt lat="-27.274439" lon="151.290064">
  <ele>343.1</ele>
  <time>2026-09-01T19:57:16Z</time>
  <course>270.0</course>
  <speed>0.0</speed>
  <fix>3d</fix>
</trkpt>
<trkpt lat="-27.274439" lon="151.290064">
  <ele>343.01</ele>
  <time>2026-09-01T19:57:16Z</time>
  <course>10.8</course>
  <speed>0.0</speed>
  <fix>3d</fix>
</trkpt>
<trkpt lat="-27.274439" lon="151.290064">
  <ele>343.1</ele>
  <time>2026-09-01T19:57:16Z</time>
  <course>270.0</course>
  <speed>0.0</speed>
  <fix>3d</fix>
</trkpt>
<trkpt lat="-27.274439" lon="151.290064">
  <ele>343.1</ele>
  <time>2026-09-01T19:57:16Z</time>
  <course>10.8</course>
  <speed>0.0</speed>
  <fix>3d</fix>
</trkpt>
<trkpt lat="-27.274439" lon="151.290064">
  <ele>343.1</ele>
  <time>2026-09-01T19:57:16Z</time>
  <course>270.0</course>
  <speed>0.0</speed>
  <fix>3d</fix>
</trkpt>
<trkpt lat="-27.274439" lon="151.290064">
  <ele>342.99</ele>
  <time>2026-09-01T19:57:16Z</time>
  <course>10.8</course>
  <speed>0.0</speed>
  <fix>3d</fix>
</trkpt>
<trkpt lat="-27.274439" lon="151.290064">
  <ele>343.1</ele>
  <time>2026-09-01T19:57:16Z</time>
  <course>270.0</course>
  <speed>0.0</speed>
  <fix>3d</fix>
</trkpt>
<trkpt lat="-27.274439" lon="151.290064">
  <ele>342.87</ele>
  <time>2026-09-01T19:57:16Z</time>
  <course>10.8</course>
  <speed>0.0</speed>
  <fix>3d</fix>
</trkpt>
<trkpt lat="-27.274439" lon="151.290064">
  <ele>343.1</ele>
  <time>2026-09-01T19:57:16Z</time>
  <course>270.0</course>
  <speed>0.0</speed>
  <fix>3d</fix>
</trkpt>
<trkpt lat="-27.274439" lon="151.290064">
  <ele>343.1</ele>
  <time>2026-09-01T19:57:16Z</time>
  <course>10.8</course>
  <speed>0.0</speed>
  <fix>3d</fix>
</trkpt>
<trkpt lat="-27.274439" lon="151.290064">
  <ele>343.1</ele>
  <time>2026-09-01T19:57:16Z</time>
  <course>270.0</course>
  <speed>0.0</speed>
  <fix>3d</fix>
</trkpt>
<trkpt lat="-27.274439" lon="151.290064">
  <ele>342.99</ele>
  <time>2026-09-01T19:57:16Z</time>
  <course>10.8</course>
  <speed>0.0</speed>
  <fix>3d</fix>
</trkpt>
<trkpt lat="-27.274439" lon="151.290064">
  <ele>343.1</ele>
  <time>2026-09-01T19:57:16Z</time>
  <course>270.0</course>
  <speed>0.0</speed>
  <fix>3d</fix>
</trkpt>
<trkpt lat="-27.274439" lon="151.290064">
  <ele>342.91</ele>
  <time>2026-09-01T19:57:16Z</time>
  <course>10.8</course>
  <speed>0.0</speed>
  <fix>3d</fix>
</trkpt>
<trkpt lat="-27.274439" lon="151.290064">
  <ele>343.1</ele>
  <time>2026-09-01T19:57:16Z</time>
  <course>270.0</course>
  <speed>0.0</speed>
  <fix>3d</fix>
</trkpt>
<trkpt lat="-27.274439" lon="151.290064">
  <ele>342.9</ele>
  <time>2026-09-01T19:57:16Z</time>
  <course>10.8</course>
  <speed>0.0</speed>
  <fix>3d</fix>
</trkpt>
<trkpt lat="-27.274439" lon="151.290064">
  <ele>343.1</ele>
  <time>2026-09-01T19:57:16Z</time>
  <course>270.0</course>
  <speed>0.0</speed>
  <fix>3d</fix>
</trkpt>
<trkpt lat="-27.274439" lon="151.290064">
  <ele>342.87</ele>
  <time>2026-09-01T19:57:16Z</time>
  <course>10.8</course>
  <speed>0.0</speed>
  <fix>3d</fix>
</trkpt>
<trkpt lat="-27.274439" lon="151.290064">
  <ele>343.1</ele>
  <time>2026-09-01T19:57:16Z</time>
  <course>270.0</course>
  <speed>0.0</speed>
  <fix>3d</fix>
</trkpt>
<trkpt lat="-27.274439" lon="151.290064">
  <ele>343.12</ele>
  <time>2026-09-01T19:57:16Z</time>
  <course>10.8</course>
  <speed>0.0</speed>
  <fix>3d</fix>
</trkpt>
<trkpt lat="-27.274439" lon="151.290064">
  <ele>343.1</ele>
  <time>2026-09-01T19:57:16Z</time>
  <course>270.0</course>
  <speed>0.0</speed>
  <fix>3d</fix>
</trkpt>
<trkpt lat="-27.274439" lon="151.290064">
  <ele>342.99</ele>
  <time>2026-09-01T19:57:16Z</time>
  <course>10.8</course>
  <speed>0.0</speed>
  <fix>3d</fix>
</trkpt>
<trkpt lat="-27.274439" lon="151.290064">
  <ele>343.1</ele>
  <time>2026-09-01T19:57:16Z</time>
  <course>270.0</course>
  <speed>0.0</speed>
  <fix>3d</fix>
</trkpt>
<trkpt lat="-27.274439" lon="151.290064">
  <ele>343.13</ele>
  <time>2026-09-01T19:57:16Z</time>
  <course>10.8</course>
  <speed>0.0</speed>
  <fix>3d</fix>
</trkpt>
<trkpt lat="-27.274439" lon="151.290064">
  <ele>343.1</ele>
  <time>2026-09-01T19:57:16Z</time>
  <course>270.0</course>
  <speed>0.0</speed>
  <fix>3d</fix>
</trkpt>
<trkpt lat="-27.274439" lon="151.290064">
  <ele>343.0</ele>
  <time>2026-09-01T19:57:16Z</time>
  <course>10.8</course>
  <speed>0.0</speed>
  <fix>3d</fix>
</trkpt>
<trkpt lat="-27.274439" lon="151.290064">
  <ele>343.1</ele>
  <time>2026-09-01T19:57:16Z</time>
  <course>270.0</course>
  <speed>0.0</speed>
  <fix>3d</fix>
</trkpt>
<trkpt lat="-27.274439" lon="151.290064">
  <ele>343.17</ele>
  <time>2026-09-01T19:57:16Z</time>
  <course>10.8</course>
  <speed>0.0</speed>
  <fix>3d</fix>
</trkpt>
<trkpt lat="-27.274439" lon="151.290064">
  <ele>343.1</ele>
  <time>2026-09-01T19:57:16Z</time>
  <course>270.0</course>
  <speed>0.0</speed>
  <fix>3d</fix>
</trkpt>
<trkpt lat="-27.274439" lon="151.290064">
  <ele>343.0</ele>
  <time>2026-09-01T19:57:16Z</time>
  <course>10.8</course>
  <speed>0.0</speed>
  <fix>3d</fix>
</trkpt>
<trkpt lat="-27.274439" lon="151.290064">
  <ele>343.1</ele>
  <time>2026-09-01T19:57:16Z</time>
  <course>270.0</course>
  <speed>0.0</speed>
  <fix>3d</fix>
</trkpt>
<trkpt lat="-27.274439" lon="151.290064">
  <ele>342.99</ele>
  <time>2026-09-01T19:57:16Z</time>
  <course>10.8</course>
  <speed>0.0</speed>
  <fix>3d</fix>
</trkpt>
<trkpt lat="-27.274439" lon="151.290064">
  <ele>343.1</ele>
  <time>2026-09-01T19:57:16Z</time>
  <course>270.0</course>
  <speed>0.0</speed>
  <fix>3d</fix>
</trkpt>
<trkpt lat="-27.274439" lon="151.290064">
  <ele>343.17</ele>
  <time>2026-09-01T19:57:16Z</time>
  <course>10.8</course>
  <speed>0.0</speed>
  <fix>3d</fix>
</trkpt>
<trkpt lat="-27.274439" lon="151.290064">
  <ele>343.1</ele>
  <time>2026-09-01T19:57:16Z</time>
  <course>270.0</course>
  <speed>0.0</speed>
  <fix>3d</fix>
</trkpt>
<trkpt lat="-27.274439" lon="151.290064">
  <ele>343.16</ele>
  <time>2026-09-01T19:57:16Z</time>
  <course>10.8</course>
  <speed>0.0</speed>
  <fix>3d</fix>
</trkpt>
<trkpt lat="-27.274439" lon="151.290064">
  <ele>343.1</ele>
  <time>2026-09-01T19:57:16Z</time>
  <course>270.0</course>
  <speed>0.0</speed>
  <fix>3d</fix>
</trkpt>
<trkpt lat="-27.274439" lon="151.290064">
  <ele>342.87</ele>
  <time>2026-09-01T19:57:16Z</time>
  <course>10.8</course>
  <speed>0.0</speed>
  <fix>3d</fix>
</trkpt>
<trkpt lat="-27.274439" lon="151.290064">
  <ele>343.1</ele>
  <time>2026-09-01T19:57:16Z</time>
  <course>270.0</course>
  <speed>0.0</speed>
  <fix>3d</fix>
</trkpt>
<trkpt lat="-27.274439" lon="151.290064">
  <ele>343.19</ele>
  <time>2026-09-01T19:57:16Z</time>
  <course>10.8</course>
  <speed>0.0</speed>
  <fix>3d</fix>
</trkpt>
<trkpt lat="-27.274439" lon="151.290064">
  <ele>343.1</ele>
  <time>2026-09-01T19:57:16Z</time>
  <course>270.0</course>
  <speed>0.0</speed>
  <fix>3d</fix>
</trkpt>
<trkpt lat="-27.274439" lon="151.290064">
  <ele>343.16</ele>
  <time>2026-09-01T19:57:16Z</time>
  <course>10.8</course>
  <speed>0.0</speed>
  <fix>3d</fix>
</trkpt>
<trkpt lat="-27.274439" lon="151.290064">
  <ele>343.1</ele>
  <time>2026-09-01T19:57:16Z</time>
  <course>270.0</course>
  <speed>0.0</speed>
  <fix>3d</fix>
</trkpt>
<trkpt lat="-27.274439" lon="151.290064">
  <ele>343.21</ele>
  <time>2026-09-01T19:57:16Z</time>
  <course>10.8</course>
  <speed>0.0</speed>
  <fix>3d</fix>
</trkpt>
<trkpt lat="-27.274439" lon="151.290064">
  <ele>343.1</ele>
  <time>2026-09-01T19:57:16Z</time>
  <course>270.0</course>
  <speed>0.0</speed>
  <fix>3d</fix>
</trkpt>
<trkpt lat="-27.274439" lon="151.290064">
  <ele>343.22</ele>
  <time>2026-09-01T19:57:16Z</time>
  <course>10.8</course>
  <speed>0.0</speed>
  <fix>3d</fix>
</trkpt>
<trkpt lat="-27.274439" lon="151.290064">
  <ele>343.1</ele>
  <time>2026-09-01T19:57:16Z</time>
  <course>270.0</course>
  <speed>0.0</speed>
  <fix>3d</fix>
</trkpt>
<trkpt lat="-27.274439" lon="151.290064">
  <ele>343.24</ele>
  <time>2026-09-01T19:57:16Z</time>
  <course>10.8</course>
  <speed>0.0</speed>
  <fix>3d</fix>
</trkpt>
<trkpt lat="-27.274439" lon="151.290064">
  <ele>343.1</ele>
  <time>2026-09-01T19:57:16Z</time>
  <course>270.0</course>
  <speed>0.0</speed>
  <fix>3d</fix>
</trkpt>
<trkpt lat="-27.274439" lon="151.290064">
  <ele>343.0</ele>
  <time>2026-09-01T19:57:16Z</time>
  <course>10.8</course>
  <speed>0.0</speed>
  <fix>3d</fix>
</trkpt>
<trkpt lat="-27.274439" lon="151.290064">
  <ele>343.1</ele>
  <time>2026-09-01T19:57:16Z</time>
  <course>270.0</course>
  <speed>0.0</speed>
  <fix>3d</fix>
</trkpt>
<trkpt lat="-27.274439" lon="151.290064">
  <ele>343.1</ele>
  <time>2026-09-01T19:57:16Z</time>
  <course>10.8</course>
  <speed>0.0</speed>
  <fix>3d</fix>
</trkpt>
<trkpt lat="-27.274439" lon="151.290064">
  <ele>343.1</ele>
  <time>2026-09-01T19:57:16Z</time>
  <course>270.0</course>
  <speed>0.0</speed>
  <fix>3d</fix>
</trkpt>
<trkpt lat="-27.274439" lon="151.290064">
  <ele>343.05</ele>
  <time>2026-09-01T19:57:16Z</time>
  <course>10.8</course>
  <speed>0.0</speed>
  <fix>3d</fix>
</trkpt>
<trkpt lat="-27.274439" lon="151.290064">
  <ele>343.1</ele>
  <time>2026-09-01T19:57:16Z</time>
  <course>270.0</course>
  <speed>0.0</speed>
  <fix>3d</fix>
</trkpt>
<trkpt lat="-27.274439" lon="151.290064">
  <ele>342.87</ele>
  <time>2026-09-01T19:57:16Z</time>
  <course>10.8</course>
  <speed>0.0</speed>
  <fix>3d</fix>
</trkpt>
<trkpt lat="-27.274439" lon="151.290064">
  <ele>343.1</ele>
  <time>2026-09-01T19:57:16Z</time>
  <course>270.0</course>
  <speed>0.0</speed>
  <fix>3d</fix>
</trkpt>
<trkpt lat="-27.274439" lon="151.290064">
  <ele>342.92</ele>
  <time>2026-09-01T19:57:16Z</time>
  <course>10.8</course>
  <speed>0.0</speed>
  <fix>3d</fix>
</trkpt>
<trkpt lat="-27.274439" lon="151.290064">
  <ele>343.1</ele>
  <time>2026-09-01T19:57:16Z</time>
  <course>270.0</course>
  <speed>0.0</speed>
  <fix>3d</fix>
</trkpt>
<trkpt lat="-27.274439" lon="151.290064">
  <ele>342.96</ele>
  <time>2026-09-01T19:57:16Z</time>
  <course>10.8</course>
  <speed>0.0</speed>
  <fix>3d</fix>
</trkpt>
<trkpt lat="-27.274439" lon="151.290064">
  <ele>343.1</ele>
  <time>2026-09-01T19:57:16Z</time>
  <course>270.0</course>
  <speed>0.0</speed>
  <fix>3d</fix>
</trkpt>
<trkpt lat="-27.274439" lon="151.290064">
  <ele>343.15</ele>
  <time>2026-09-01T19:57:16Z</time>
  <course>10.8</course>
  <speed>0.0</speed>
  <fix>3d</fix>
</trkpt>
<trkpt lat="-27.274439" lon="151.290064">
  <ele>343.1</ele>
  <time>2026-09-01T19:57:16Z</time>
  <course>270.0</course>
  <speed>0.0</speed>
  <fix>3d</fix>
</trkpt>
<trkpt lat="-27.274439" lon="151.290064">
  <ele>343.16</ele>
  <time>2026-09-01T19:57:16Z</time>
  <course>10.8</course>
  <speed>0.0</speed>
  <fix>3d</fix>
</trkpt>
<trkpt lat="-27.274439" lon="151.290064">
  <ele>343.1</ele>
  <time>2026-09-01T19:57:16Z</time>
  <course>270.0</course>
  <speed>0.0</speed>
  <fix>3d</fix>
</trkpt>
<trkpt lat="-27.274439" lon="151.290064">
  <ele>343.2</ele>
  <time>2026-09-01T19:57:16Z</time>
  <course>10.81</course>
  <speed>0.0</speed>
  <fix>3d</fix>
</trkpt>
<trkpt lat="-27.274439" lon="151.290064">
  <ele>343.1</ele>
  <time>2026-09-01T19:57:16Z</time>
  <course>270.0</course>
  <speed>0.0</speed>
  <fix>3d</fix>
</trkpt>
<trkpt lat="-27.274439" lon="151.290064">
  <ele>343.13</ele>
  <time>2026-09-01T19:57:16Z</time>
  <course>10.82</course>
  <speed>0.0</speed>
  <fix>3d</fix>
</trkpt>
<trkpt lat="-27.274439" lon="151.290064">
  <ele>343.1</ele>
  <time>2026-09-01T19:57:16Z</time>
  <course>270.0</course>
  <speed>0.0</speed>
  <fix>3d</fix>
</trkpt>
<trkpt lat="-27.274439" lon="151.290064">
  <ele>343.0</ele>
  <time>2026-09-01T19:57:16Z</time>
  <course>10.83</course>
  <speed>0.0</speed>
  <fix>3d</fix>
</trkpt>
<trkpt lat="-27.274439" lon="151.290064">
  <ele>343.1</ele>
  <time>2026-09-01T19:57:16Z</time>
  <course>270.0</course>
  <speed>0.0</speed>
  <fix>3d</fix>
</trkpt>
<trkpt lat="-27.274439" lon="151.290064">
  <ele>343.34</ele>
  <time>2026-09-01T19:57:16Z</time>
  <course>10.84</course>
  <speed>0.0</speed>
  <fix>3d</fix>
</trkpt>
<trkpt lat="-27.274439" lon="151.290064">
  <ele>343.1</ele>
  <time>2026-09-01T19:57:16Z</time>
  <course>270.0</course>
  <speed>0.0</speed>
  <fix>3d</fix>
</trkpt>
<trkpt lat="-27.274439" lon="151.290064">
  <ele>343.09</ele>
  <time>2026-09-01T19:57:16Z</time>
  <course>10.85</course>
  <speed>0.0</speed>
  <fix>3d</fix>
</trkpt>
<trkpt lat="-27.274439" lon="151.290064">
  <ele>343.1</ele>
  <time>2026-09-01T19:57:16Z</time>
  <course>270.0</course>
  <speed>0.0</speed>
  <fix>3d</fix>
</trkpt>
<trkpt lat="-27.274439" lon="151.290064">
  <ele>343.23</ele>
  <time>2026-09-01T19:57:16Z</time>
  <course>10.85</course>
  <speed>0.0</speed>
  <fix>3d</fix>
</trkpt>
<trkpt lat="-27.274439" lon="151.290064">
  <ele>343.1</ele>
  <time>2026-09-01T19:57:16Z</time>
  <course>270.0</course>
  <speed>0.0</speed>
  <fix>3d</fix>
</trkpt>
<trkpt lat="-27.274439" lon="151.290064">
  <ele>343.05</ele>
  <time>2026-09-01T19:57:16Z</time>
  <course>10.86</course>
  <speed>0.0</speed>
  <fix>3d</fix>
</trkpt>
<trkpt lat="-27.274439" lon="151.290064">
  <ele>343.1</ele>
  <time>2026-09-01T19:57:16Z</time>
  <course>270.0</course>
  <speed>0.0</speed>
  <fix>3d</fix>
</trkpt>
<trkpt lat="-27.274439" lon="151.290064">
  <ele>343.12</ele>
  <time>2026-09-01T19:57:16Z</time>
  <course>10.87</course>
  <speed>0.0</speed>
  <fix>3d</fix>
</trkpt>
<trkpt lat="-27.274439" lon="151.290064">
  <ele>343.1</ele>
  <time>2026-09-01T19:57:16Z</time>
  <course>270.0</course>
  <speed>0.0</speed>
  <fix>3d</fix>
</trkpt>
<trkpt lat="-27.274439" lon="151.290064">
  <ele>343.25</ele>
  <time>2026-09-01T19:57:16Z</time>
  <course>10.88</course>
  <speed>0.0</speed>
  <fix>3d</fix>
</trkpt>
<trkpt lat="-27.274439" lon="151.290064">
  <ele>343.1</ele>
  <time>2026-09-01T19:57:16Z</time>
  <course>270.0</course>
  <speed>0.0</speed>
  <fix>3d</fix>
</trkpt>
<trkpt lat="-27.274439" lon="151.290064">
  <ele>343.31</ele>
  <time>2026-09-01T19:57:16Z</time>
  <course>10.89</course>
  <speed>0.0</speed>
  <fix>3d</fix>
</trkpt>
<trkpt lat="-27.274439" lon="151.290064">
  <ele>343.1</ele>
  <time>2026-09-01T19:57:16Z</time>
  <course>270.0</course>
  <speed>0.0</speed>
  <fix>3d</fix>
</trkpt>
<trkpt lat="-27.274439" lon="151.290064">
  <ele>342.97</ele>
  <time>2026-09-01T19:57:16Z</time>
  <course>10.89</course>
  <speed>0.0</speed>
  <fix>3d</fix>
</trkpt>
<trkpt lat="-27.274439" lon="151.290064">
  <ele>343.1</ele>
  <time>2026-09-01T19:57:16Z</time>
  <course>270.0</course>
  <speed>0.0</speed>
  <fix>3d</fix>
</trkpt>
<trkpt lat="-27.274439" lon="151.290064">
  <ele>343.16</ele>
  <time>2026-09-01T19:57:16Z</time>
  <course>10.9</course>
  <speed>0.0</speed>
  <fix>3d</fix>
</trkpt>
<trkpt lat="-27.274439" lon="151.290064">
  <ele>343.1</ele>
  <time>2026-09-01T19:57:16Z</time>
  <course>270.0</course>
  <speed>0.0</speed>
  <fix>3d</fix>
</trkpt>
<trkpt lat="-27.274439" lon="151.290064">
  <ele>343.05</ele>
  <time>2026-09-01T19:57:16Z</time>
  <course>10.91</course>
  <speed>0.0</speed>
  <fix>3d</fix>
</trkpt>
<trkpt lat="-27.274439" lon="151.290064">
  <ele>343.1</ele>
  <time>2026-09-01T19:57:16Z</time>
  <course>270.0</course>
  <speed>0.0</speed>
  <fix>3d</fix>
</trkpt>
<trkpt lat="-27.274439" lon="151.290064">
  <ele>343.27</ele>
  <time>2026-09-01T19:57:16Z</time>
  <course>10.92</course>
  <speed>0.0</speed>
  <fix>3d</fix>
</trkpt>
<trkpt lat="-27.274439" lon="151.290064">
  <ele>343.1</ele>
  <time>2026-09-01T19:57:16Z</time>
  <course>270.0</course>
  <speed>0.0</speed>
  <fix>3d</fix>
</trkpt>
<trkpt lat="-27.274439" lon="151.290064">
  <ele>343.09</ele>
  <time>2026-09-01T19:57:16Z</time>
  <course>10.92</course>
  <speed>0.0</speed>
  <fix>3d</fix>
</trkpt>
<trkpt lat="-27.274439" lon="151.290064">
  <ele>343.1</ele>
  <time>2026-09-01T19:57:16Z</time>
  <course>270.0</course>
  <speed>0.0</speed>
  <fix>3d</fix>
</trkpt>
<trkpt lat="-27.274439" lon="151.290064">
  <ele>343.12</ele>
  <time>2026-09-01T19:57:16Z</time>
  <course>10.93</course>
  <speed>0.0</speed>
  <fix>3d</fix>
</trkpt>
<trkpt lat="-27.274439" lon="151.290064">
  <ele>343.1</ele>
  <time>2026-09-01T19:57:16Z</time>
  <course>270.0</course>
  <speed>0.0</speed>
  <fix>3d</fix>
</trkpt>
<trkpt lat="-27.274439" lon="151.290064">
  <ele>342.95</ele>
  <time>2026-09-01T19:57:16Z</time>
  <course>10.94</course>
  <speed>0.0</speed>
  <fix>3d</fix>
</trkpt>
<trkpt lat="-27.274439" lon="151.290064">
  <ele>343.1</ele>
  <time>2026-09-01T19:57:16Z</time>
  <course>270.0</course>
  <speed>0.0</speed>
  <fix>3d</fix>
</trkpt>
<trkpt lat="-27.274439" lon="151.290064">
  <ele>343.19</ele>
  <time>2026-09-01T19:57:16Z</time>
  <course>10.95</course>
  <speed>0.0</speed>
  <fix>3d</fix>
</trkpt>
<trkpt lat="-27.274439" lon="151.290064">
  <ele>343.1</ele>
  <time>2026-09-01T19:57:16Z</time>
  <course>270.0</course>
  <speed>0.0</speed>
  <fix>3d</fix>
</trkpt>
<trkpt lat="-27.274439" lon="151.290064">
  <ele>343.02</ele>
  <time>2026-09-01T19:57:16Z</time>
  <course>10.95</course>
  <speed>0.0</speed>
  <fix>3d</fix>
</trkpt>
<trkpt lat="-27.274439" lon="151.290064">
  <ele>343.1</ele>
  <time>2026-09-01T19:57:16Z</time>
  <course>270.0</course>
  <speed>0.0</speed>
  <fix>3d</fix>
</trkpt>
<trkpt lat="-27.274439" lon="151.290064">
  <ele>343.25</ele>
  <time>2026-09-01T19:57:16Z</time>
  <course>10.96</course>
  <speed>0.0</speed>
  <fix>3d</fix>
</trkpt>
<trkpt lat="-27.274439" lon="151.290064">
  <ele>343.1</ele>
  <time>2026-09-01T19:57:16Z</time>
  <course>270.0</course>
  <speed>0.0</speed>
  <fix>3d</fix>
</trkpt>
<trkpt lat="-27.274439" lon="151.290064">
  <ele>342.94</ele>
  <time>2026-09-01T19:57:16Z</time>
  <course>10.97</course>
  <speed>0.0</speed>
  <fix>3d</fix>
</trkpt>
<trkpt lat="-27.274439" lon="151.290064">
  <ele>343.1</ele>
  <time>2026-09-01T19:57:16Z</time>
  <course>270.0</course>
  <speed>0.0</speed>
  <fix>3d</fix>
</trkpt>
<trkpt lat="-27.274439" lon="151.290064">
  <ele>343.12</ele>
  <time>2026-09-01T19:57:16Z</time>
  <course>10.97</course>
  <speed>0.0</speed>
  <fix>3d</fix>
</trkpt>
<trkpt lat="-27.274439" lon="151.290064">
  <ele>343.1</ele>
  <time>2026-09-01T19:57:16Z</time>
  <course>270.0</course>
  <speed>0.0</speed>
  <fix>3d</fix>
</trkpt>
<trkpt lat="-27.274439" lon="151.290064">
  <ele>343.01</ele>
  <time>2026-09-01T19:57:16Z</time>
  <course>10.98</course>
  <speed>0.0</speed>
  <fix>3d</fix>
</trkpt>
<trkpt lat="-27.274439" lon="151.290064">
  <ele>343.1</ele>
  <time>2026-09-01T19:57:16Z</time>
  <course>270.0</course>
  <speed>0.0</speed>
  <fix>3d</fix>
</trkpt>
<trkpt lat="-27.274439" lon="151.290064">
  <ele>343.13</ele>
  <time>2026-09-01T19:57:16Z</time>
  <course>10.98</course>
  <speed>0.0</speed>
  <fix>3d</fix>
</trkpt>
<trkpt lat="-27.274439" lon="151.290064">
  <ele>343.1</ele>
  <time>2026-09-01T19:57:16Z</time>
  <course>270.0</course>
  <speed>0.0</speed>
  <fix>3d</fix>
</trkpt>
<trkpt lat="-27.274439" lon="151.290064">
  <ele>343.18</ele>
  <time>2026-09-01T19:57:16Z</time>
  <course>10.99</course>
  <speed>0.0</speed>
  <fix>3d</fix>
</trkpt>
<trkpt lat="-27.274439" lon="151.290064">
  <ele>343.1</ele>
  <time>2026-09-01T19:57:16Z</time>
  <course>270.0</course>
  <speed>0.0</speed>
  <fix>3d</fix>
</trkpt>
<trkpt lat="-27.274439" lon="151.290064">
  <ele>342.97</ele>
  <time>2026-09-01T19:57:16Z</time>
  <course>11.0</course>
  <speed>0.0</speed>
  <fix>3d</fix>
</trkpt>
<trkpt lat="-27.274439" lon="151.290064">
  <ele>343.1</ele>
  <time>2026-09-01T19:57:16Z</time>
  <course>270.0</course>
  <speed>0.0</speed>
  <fix>3d</fix>
</trkpt>
<trkpt lat="-27.274439" lon="151.290064">
  <ele>343.14</ele>
  <time>2026-09-01T19:57:16Z</time>
  <course>11.0</course>
  <speed>0.0</speed>
  <fix>3d</fix>
</trkpt>
<trkpt lat="-27.274439" lon="151.290064">
  <ele>343.1</ele>
  <time>2026-09-01T19:57:16Z</time>
  <course>270.0</course>
  <speed>0.0</speed>
  <fix>3d</fix>
</trkpt>
<trkpt lat="-27.274439" lon="151.290064">
  <ele>342.96</ele>
  <time>2026-09-01T19:57:16Z</time>
  <course>11.01</course>
  <speed>0.0</speed>
  <fix>3d</fix>
</trkpt>
<trkpt lat="-27.274439" lon="151.290064">
  <ele>343.1</ele>
  <time>2026-09-01T19:57:16Z</time>
  <course>270.0</course>
  <speed>0.0</speed>
  <fix>3d</fix>
</trkpt>
<trkpt lat="-27.274439" lon="151.290064">
  <ele>343.3</ele>
  <time>2026-09-01T19:57:16Z</time>
  <course>11.01</course>
  <speed>0.0</speed>
  <fix>3d</fix>
</trkpt>
<trkpt lat="-27.274439" lon="151.290064">
  <ele>343.1</ele>
  <time>2026-09-01T19:57:16Z</time>
  <course>270.0</course>
  <speed>0.0</speed>
  <fix>3d</fix>
</trkpt>
<trkpt lat="-27.274439" lon="151.290064">
  <ele>343.22</ele>
  <time>2026-09-01T19:57:16Z</time>
  <course>11.02</course>
  <speed>0.0</speed>
  <fix>3d</fix>
</trkpt>
<trkpt lat="-27.274439" lon="151.290064">
  <ele>343.1</ele>
  <time>2026-09-01T19:57:16Z</time>
  <course>270.0</course>
  <speed>0.0</speed>
  <fix>3d</fix>
</trkpt>
<trkpt lat="-27.274439" lon="151.290064">
  <ele>343.08</ele>
  <time>2026-09-01T19:57:16Z</time>
  <course>11.02</course>
  <speed>0.0</speed>
  <fix>3d</fix>
</trkpt>
<trkpt lat="-27.274439" lon="151.290064">
  <ele>343.1</ele>
  <time>2026-09-01T19:57:16Z</time>
  <course>270.0</course>
  <speed>0.0</speed>
  <fix>3d</fix>
</trkpt>
<trkpt lat="-27.274439" lon="151.290064">
  <ele>343.23</ele>
  <time>2026-09-01T19:57:16Z</time>
  <course>11.03</course>
  <speed>0.0</speed>
  <fix>3d</fix>
</trkpt>
<trkpt lat="-27.274439" lon="151.290064">
  <ele>343.1</ele>
  <time>2026-09-01T19:57:16Z</time>
  <course>270.0</course>
  <speed>0.0</speed>
  <fix>3d</fix>
</trkpt>
<trkpt lat="-27.274439" lon="151.290064">
  <ele>343.33</ele>
  <time>2026-09-01T19:57:16Z</time>
  <course>11.04</course>
  <speed>0.0</speed>
  <fix>3d</fix>
</trkpt>
<trkpt lat="-27.274439" lon="151.290064">
  <ele>343.1</ele>
  <time>2026-09-01T19:57:16Z</time>
  <course>270.0</course>
  <speed>0.0</speed>
  <fix>3d</fix>
</trkpt>
<trkpt lat="-27.274439" lon="151.290064">
  <ele>343.05</ele>
  <time>2026-09-01T19:57:16Z</time>
  <course>11.04</course>
  <speed>0.0</speed>
  <fix>3d</fix>
</trkpt>
<trkpt lat="-27.274439" lon="151.290064">
  <ele>343.1</ele>
  <time>2026-09-01T19:57:16Z</time>
  <course>270.0</course>
  <speed>0.0</speed>
  <fix>3d</fix>
</trkpt>
<trkpt lat="-27.274439" lon="151.290064">
  <ele>343.16</ele>
  <time>2026-09-01T19:57:16Z</time>
  <course>11.05</course>
  <speed>0.0</speed>
  <fix>3d</fix>
</trkpt>
<trkpt lat="-27.274439" lon="151.290064">
  <ele>343.1</ele>
  <time>2026-09-01T19:57:16Z</time>
  <course>270.0</course>
  <speed>0.0</speed>
  <fix>3d</fix>
</trkpt>
<trkpt lat="-27.274439" lon="151.290064">
  <ele>343.16</ele>
  <time>2026-09-01T19:57:16Z</time>
  <course>11.05</course>
  <speed>0.0</speed>
  <fix>3d</fix>
</trkpt>
<trkpt lat="-27.274439" lon="151.290064">
  <ele>343.1</ele>
  <time>2026-09-01T19:57:16Z</time>
  <course>270.0</course>
  <speed>0.0</speed>
  <fix>3d</fix>
</trkpt>
<trkpt lat="-27.274439" lon="151.290064">
  <ele>343.08</ele>
  <time>2026-09-01T19:57:16Z</time>
  <course>11.06</course>
  <speed>0.0</speed>
  <fix>3d</fix>
</trkpt>
<trkpt lat="-27.274439" lon="151.290064">
  <ele>343.1</ele>
  <time>2026-09-01T19:57:16Z</time>
  <course>270.0</course>
  <speed>0.0</speed>
  <fix>3d</fix>
</trkpt>
<trkpt lat="-27.274439" lon="151.290064">
  <ele>343.17</ele>
  <time>2026-09-01T19:57:16Z</time>
  <course>11.06</course>
  <speed>0.0</speed>
  <fix>3d</fix>
</trkpt>
<trkpt lat="-27.274439" lon="151.290064">
  <ele>343.1</ele>
  <time>2026-09-01T19:57:16Z</time>
  <course>270.0</course>
  <speed>0.0</speed>
  <fix>3d</fix>
</trkpt>
<trkpt lat="-27.274439" lon="151.290064">
  <ele>343.22</ele>
  <time>2026-09-01T19:57:16Z</time>
  <course>11.07</course>
  <speed>0.0</speed>
  <fix>3d</fix>
</trkpt>
<trkpt lat="-27.274439" lon="151.290064">
  <ele>343.1</ele>
  <time>2026-09-01T19:57:16Z</time>
  <course>270.0</course>
  <speed>0.0</speed>
  <fix>3d</fix>
</trkpt>
<trkpt lat="-27.274439" lon="151.290064">
  <ele>343.01</ele>
  <time>2026-09-01T19:57:16Z</time>
  <course>11.07</course>
  <speed>0.0</speed>
  <fix>3d</fix>
</trkpt>
<trkpt lat="-27.274439" lon="151.290064">
  <ele>343.1</ele>
  <time>2026-09-01T19:57:16Z</time>
  <course>270.0</course>
  <speed>0.0</speed>
  <fix>3d</fix>
</trkpt>
<trkpt lat="-27.274439" lon="151.290064">
  <ele>343.26</ele>
  <time>2026-09-01T19:57:16Z</time>
  <course>11.08</course>
  <speed>0.0</speed>
  <fix>3d</fix>
</trkpt>
<trkpt lat="-27.274439" lon="151.290064">
  <ele>343.1</ele>
  <time>2026-09-01T19:57:16Z</time>
  <course>270.0</course>
  <speed>0.0</speed>
  <fix>3d</fix>
</trkpt>
<trkpt lat="-27.274439" lon="151.290064">
  <ele>343.28</ele>
  <time>2026-09-01T19:57:16Z</time>
  <course>11.08</course>
  <speed>0.0</speed>
  <fix>3d</fix>
</trkpt>
<trkpt lat="-27.274439" lon="151.290064">
  <ele>343.1</ele>
  <time>2026-09-01T19:57:16Z</time>
  <course>270.0</course>
  <speed>0.0</speed>
  <fix>3d</fix>
</trkpt>
<trkpt lat="-27.274439" lon="151.290064">
  <ele>343.34</ele>
  <time>2026-09-01T19:57:16Z</time>
  <course>11.09</course>
  <speed>0.0</speed>
  <fix>3d</fix>
</trkpt>
<trkpt lat="-27.274439" lon="151.290064">
  <ele>343.1</ele>
  <time>2026-09-01T19:57:16Z</time>
  <course>270.0</course>
  <speed>0.0</speed>
  <fix>3d</fix>
</trkpt>
<trkpt lat="-27.274439" lon="151.290064">
  <ele>343.1</ele>
  <time>2026-09-01T19:57:16Z</time>
  <course>11.09</course>
  <speed>0.0</speed>
  <fix>3d</fix>
</trkpt>
<trkpt lat="-27.274439" lon="151.290064">
  <ele>343.1</ele>
  <time>2026-09-01T19:57:16Z</time>
  <course>270.0</course>
  <speed>0.0</speed>
  <fix>3d</fix>
</trkpt>
<trkpt lat="-27.274439" lon="151.290064">
  <ele>342.96</ele>
  <time>2026-09-01T19:57:16Z</time>
  <course>11.09</course>
  <speed>0.0</speed>
  <fix>3d</fix>
</trkpt>
<trkpt lat="-27.274439" lon="151.290064">
  <ele>343.1</ele>
  <time>2026-09-01T19:57:16Z</time>
  <course>270.0</course>
  <speed>0.0</speed>
  <fix>3d</fix>
</trkpt>
<trkpt lat="-27.274439" lon="151.290064">
  <ele>343.03</ele>
  <time>2026-09-01T19:57:16Z</time>
  <course>11.1</course>
  <speed>0.0</speed>
  <fix>3d</fix>
</trkpt>
<trkpt lat="-27.274439" lon="151.290064">
  <ele>343.1</ele>
  <time>2026-09-01T19:57:16Z</time>
  <course>270.0</course>
  <speed>0.0</speed>
  <fix>3d</fix>
</trkpt>
<trkpt lat="-27.274439" lon="151.290064">
  <ele>343.23</ele>
  <time>2026-09-01T19:57:16Z</time>
  <course>11.1</course>
  <speed>0.0</speed>
  <fix>3d</fix>
</trkpt>
<trkpt lat="-27.274439" lon="151.290064">
  <ele>343.1</ele>
  <time>2026-09-01T19:57:16Z</time>
  <course>270.0</course>
  <speed>0.0</speed>
  <fix>3d</fix>
</trkpt>
<trkpt lat="-27.274439" lon="151.290064">
  <ele>343.14</ele>
  <time>2026-09-01T19:57:16Z</time>
  <course>11.11</course>
  <speed>0.0</speed>
  <fix>3d</fix>
</trkpt>
<trkpt lat="-27.274439" lon="151.290064">
  <ele>343.1</ele>
  <time>2026-09-01T19:57:16Z</time>
  <course>270.0</course>
  <speed>0.0</speed>
  <fix>3d</fix>
</trkpt>
<trkpt lat="-27.274439" lon="151.290064">
  <ele>343.13</ele>
  <time>2026-09-01T19:57:16Z</time>
  <course>11.11</course>
  <speed>0.0</speed>
  <fix>3d</fix>
</trkpt>
<trkpt lat="-27.274439" lon="151.290064">
  <ele>343.1</ele>
  <time>2026-09-01T19:57:16Z</time>
  <course>270.0</course>
  <speed>0.0</speed>
  <fix>3d</fix>
</trkpt>
<trkpt lat="-27.274439" lon="151.290064">
  <ele>343.03</ele>
  <time>2026-09-01T19:57:16Z</time>
  <course>11.12</course>
  <speed>0.0</speed>
  <fix>3d</fix>
</trkpt>
<trkpt lat="-27.274439" lon="151.290064">
  <ele>343.1</ele>
  <time>2026-09-01T19:57:16Z</time>
  <course>270.0</course>
  <speed>0.0</speed>
  <fix>3d</fix>
</trkpt>
<trkpt lat="-27.274439" lon="151.290064">
  <ele>343.15</ele>
  <time>2026-09-01T19:57:16Z</time>
  <course>11.12</course>
  <speed>0.0</speed>
  <fix>3d</fix>
</trkpt>
<trkpt lat="-27.274439" lon="151.290064">
  <ele>343.1</ele>
  <time>2026-09-01T19:57:16Z</time>
  <course>270.0</course>
  <speed>0.0</speed>
  <fix>3d</fix>
</trkpt>
<trkpt lat="-27.274439" lon="151.290064">
  <ele>343.14</ele>
  <time>2026-09-01T19:57:16Z</time>
  <course>11.13</course>
  <speed>0.0</speed>
  <fix>3d</fix>
</trkpt>
<trkpt lat="-27.274439" lon="151.290064">
  <ele>343.1</ele>
  <time>2026-09-01T19:57:16Z</time>
  <course>270.0</course>
  <speed>0.0</speed>
  <fix>3d</fix>
</trkpt>
<trkpt lat="-27.274439" lon="151.290064">
  <ele>343.17</ele>
  <time>2026-09-01T19:57:16Z</time>
  <course>11.13</course>
  <speed>0.0</speed>
  <fix>3d</fix>
</trkpt>
<trkpt lat="-27.274439" lon="151.290064">
  <ele>343.1</ele>
  <time>2026-09-01T19:57:16Z</time>
  <course>270.0</course>
  <speed>0.0</speed>
  <fix>3d</fix>
</trkpt>
<trkpt lat="-27.274439" lon="151.290064">
  <ele>342.95</ele>
  <time>2026-09-01T19:57:16Z</time>
  <course>11.13</course>
  <speed>0.0</speed>
  <fix>3d</fix>
</trkpt>
<trkpt lat="-27.274439" lon="151.290064">
  <ele>343.1</ele>
  <time>2026-09-01T19:57:16Z</time>
  <course>270.0</course>
  <speed>0.0</speed>
  <fix>3d</fix>
</trkpt>
<trkpt lat="-27.274439" lon="151.290064">
  <ele>343.06</ele>
  <time>2026-09-01T19:57:16Z</time>
  <course>11.14</course>
  <speed>0.0</speed>
  <fix>3d</fix>
</trkpt>
<trkpt lat="-27.274439" lon="151.290064">
  <ele>343.1</ele>
  <time>2026-09-01T19:57:16Z</time>
  <course>270.0</course>
  <speed>0.0</speed>
  <fix>3d</fix>
</trkpt>
<trkpt lat="-27.274439" lon="151.290064">
  <ele>343.11</ele>
  <time>2026-09-01T19:57:16Z</time>
  <course>11.14</course>
  <speed>0.0</speed>
  <fix>3d</fix>
</trkpt>
<trkpt lat="-27.274439" lon="151.290064">
  <ele>343.1</ele>
  <time>2026-09-01T19:57:16Z</time>
  <course>270.0</course>
  <speed>0.0</speed>
  <fix>3d</fix>
</trkpt>
<trkpt lat="-27.274439" lon="151.290064">
  <ele>343.3</ele>
  <time>2026-09-01T19:57:16Z</time>
  <course>11.15</course>
  <speed>0.0</speed>
  <fix>3d</fix>
</trkpt>
<trkpt lat="-27.274439" lon="151.290064">
  <ele>343.1</ele>
  <time>2026-09-01T19:57:16Z</time>
  <course>270.0</course>
  <speed>0.0</speed>
  <fix>3d</fix>
</trkpt>
<trkpt lat="-27.274439" lon="151.290064">
  <ele>343.03</ele>
  <time>2026-09-01T19:57:16Z</time>
  <course>11.15</course>
  <speed>0.0</speed>
  <fix>3d</fix>
</trkpt>
<trkpt lat="-27.274439" lon="151.290064">
  <ele>343.1</ele>
  <time>2026-09-01T19:57:16Z</time>
  <course>270.0</course>
  <speed>0.0</speed>
  <fix>3d</fix>
</trkpt>
<trkpt lat="-27.274439" lon="151.290064">
  <ele>343.13</ele>
  <time>2026-09-01T19:57:16Z</time>
  <course>11.15</course>
  <speed>0.0</speed>
  <fix>3d</fix>
</trkpt>
<trkpt lat="-27.274439" lon="151.290064">
  <ele>343.1</ele>
  <time>2026-09-01T19:57:16Z</time>
  <course>270.0</course>
  <speed>0.0</speed>
  <fix>3d</fix>
</trkpt>
<trkpt lat="-27.274439" lon="151.290064">
  <ele>343.02</ele>
  <time>2026-09-01T19:57:16Z</time>
  <course>11.16</course>
  <speed>0.0</speed>
  <fix>3d</fix>
</trkpt>
<trkpt lat="-27.274439" lon="151.290064">
  <ele>343.1</ele>
  <time>2026-09-01T19:57:16Z</time>
  <course>270.0</course>
  <speed>0.0</speed>
  <fix>3d</fix>
</trkpt>
<trkpt lat="-27.274439" lon="151.290064">
  <ele>343.17</ele>
  <time>2026-09-01T19:57:16Z</time>
  <course>11.16</course>
  <speed>0.0</speed>
  <fix>3d</fix>
</trkpt>
<trkpt lat="-27.274439" lon="151.290064">
  <ele>343.1</ele>
  <time>2026-09-01T19:57:16Z</time>
  <course>270.0</course>
  <speed>0.0</speed>
  <fix>3d</fix>
</trkpt>
<trkpt lat="-27.274439" lon="151.290064">
  <ele>343.26</ele>
  <time>2026-09-01T19:57:16Z</time>
  <course>11.17</course>
  <speed>0.0</speed>
  <fix>3d</fix>
</trkpt>
<trkpt lat="-27.274439" lon="151.290064">
  <ele>343.1</ele>
  <time>2026-09-01T19:57:16Z</time>
  <course>270.0</course>
  <speed>0.0</speed>
  <fix>3d</fix>
</trkpt>
<trkpt lat="-27.274439" lon="151.290064">
  <ele>343.29</ele>
  <time>2026-09-01T19:57:16Z</time>
  <course>11.17</course>
  <speed>0.0</speed>
  <fix>3d</fix>
</trkpt>
<trkpt lat="-27.274439" lon="151.290064">
  <ele>343.1</ele>
  <time>2026-09-01T19:57:16Z</time>
  <course>270.0</course>
  <speed>0.0</speed>
  <fix>3d</fix>
</trkpt>
<trkpt lat="-27.274439" lon="151.290064">
  <ele>343.13</ele>
  <time>2026-09-01T19:57:16Z</time>
  <course>11.17</course>
  <speed>0.0</speed>
  <fix>3d</fix>
</trkpt>
<trkpt lat="-27.274439" lon="151.290064">
  <ele>343.1</ele>
  <time>2026-09-01T19:57:16Z</time>
  <course>270.0</course>
  <speed>0.0</speed>
  <fix>3d</fix>
</trkpt>
<trkpt lat="-27.274439" lon="151.290064">
  <ele>343.1</ele>
  <time>2026-09-01T19:57:16Z</time>
  <course>11.18</course>
  <speed>0.0</speed>
  <fix>3d</fix>
</trkpt>
<trkpt lat="-27.274439" lon="151.290064">
  <ele>343.1</ele>
  <time>2026-09-01T19:57:16Z</time>
  <course>270.0</course>
  <speed>0.0</speed>
  <fix>3d</fix>
</trkpt>
<trkpt lat="-27.274439" lon="151.290064">
  <ele>343.2</ele>
  <time>2026-09-01T19:57:16Z</time>
  <course>11.18</course>
  <speed>0.0</speed>
  <fix>3d</fix>
</trkpt>
<trkpt lat="-27.274439" lon="151.290064">
  <ele>343.1</ele>
  <time>2026-09-01T19:57:16Z</time>
  <course>270.0</course>
  <speed>0.0</speed>
  <fix>3d</fix>
</trkpt>
<trkpt lat="-27.274439" lon="151.290064">
  <ele>343.09</ele>
  <time>2026-09-01T19:57:16Z</time>
  <course>11.18</course>
  <speed>0.0</speed>
  <fix>3d</fix>
</trkpt>
<trkpt lat="-27.274439" lon="151.290064">
  <ele>343.1</ele>
  <time>2026-09-01T19:57:16Z</time>
  <course>270.0</course>
  <speed>0.0</speed>
  <fix>3d</fix>
</trkpt>
<trkpt lat="-27.274439" lon="151.290064">
  <ele>343.11</ele>
  <time>2026-09-01T19:57:16Z</time>
  <course>11.19</course>
  <speed>0.0</speed>
  <fix>3d</fix>
</trkpt>
<trkpt lat="-27.274439" lon="151.290064">
  <ele>343.1</ele>
  <time>2026-09-01T19:57:16Z</time>
  <course>270.0</course>
  <speed>0.0</speed>
  <fix>3d</fix>
</trkpt>
<trkpt lat="-27.274439" lon="151.290064">
  <ele>343.21</ele>
  <time>2026-09-01T19:57:16Z</time>
  <course>11.19</course>
  <speed>0.0</speed>
  <fix>3d</fix>
</trkpt>
<trkpt lat="-27.274439" lon="151.290064">
  <ele>343.1</ele>
  <time>2026-09-01T19:57:16Z</time>
  <course>270.0</course>
  <speed>0.0</speed>
  <fix>3d</fix>
</trkpt>
<trkpt lat="-27.274439" lon="151.290064">
  <ele>343.22</ele>
  <time>2026-09-01T19:57:16Z</time>
  <course>11.19</course>
  <speed>0.0</speed>
  <fix>3d</fix>
</trkpt>
<trkpt lat="-27.274439" lon="151.290064">
  <ele>343.1</ele>
  <time>2026-09-01T19:57:16Z</time>
  <course>270.0</course>
  <speed>0.0</speed>
  <fix>3d</fix>
</trkpt>
<trkpt lat="-27.274439" lon="151.290064">
  <ele>342.98</ele>
  <time>2026-09-01T19:57:16Z</time>
  <course>11.2</course>
  <speed>0.0</speed>
  <fix>3d</fix>
</trkpt>
<trkpt lat="-27.274439" lon="151.290064">
  <ele>343.1</ele>
  <time>2026-09-01T19:57:16Z</time>
  <course>270.0</course>
  <speed>0.0</speed>
  <fix>3d</fix>
</trkpt>
<trkpt lat="-27.274439" lon="151.290064">
  <ele>343.15</ele>
  <time>2026-09-01T19:57:16Z</time>
  <course>11.2</course>
  <speed>0.0</speed>
  <fix>3d</fix>
</trkpt>
<trkpt lat="-27.274439" lon="151.290064">
  <ele>343.1</ele>
  <time>2026-09-01T19:57:16Z</time>
  <course>270.0</course>
  <speed>0.0</speed>
  <fix>3d</fix>
</trkpt>
<trkpt lat="-27.274439" lon="151.290064">
  <ele>343.28</ele>
  <time>2026-09-01T19:57:16Z</time>
  <course>11.2</course>
  <speed>0.0</speed>
  <fix>3d</fix>
</trkpt>
<trkpt lat="-27.274439" lon="151.290064">
  <ele>343.1</ele>
  <time>2026-09-01T19:57:16Z</time>
  <course>270.0</course>
  <speed>0.0</speed>
  <fix>3d</fix>
</trkpt>
<trkpt lat="-27.274439" lon="151.290064">
  <ele>343.3</ele>
  <time>2026-09-01T19:57:16Z</time>
  <course>11.2</course>
  <speed>0.0</speed>
  <fix>3d</fix>
</trkpt>
<trkpt lat="-27.274439" lon="151.290064">
  <ele>343.1</ele>
  <time>2026-09-01T19:57:16Z</time>
  <course>270.0</course>
  <speed>0.0</speed>
  <fix>3d</fix>
</trkpt>
<trkpt lat="-27.274439" lon="151.290064">
  <ele>343.33</ele>
  <time>2026-09-01T19:57:16Z</time>
  <course>11.2</course>
  <speed>0.0</speed>
  <fix>3d</fix>
</trkpt>
<trkpt lat="-27.274439" lon="151.290064">
  <ele>343.1</ele>
  <time>2026-09-01T19:57:16Z</time>
  <course>270.0</course>
  <speed>0.0</speed>
  <fix>3d</fix>
</trkpt>
<trkpt lat="-27.274439" lon="151.290064">
  <ele>342.96</ele>
  <time>2026-09-01T19:57:16Z</time>
  <course>11.21</course>
  <speed>0.0</speed>
  <fix>3d</fix>
</trkpt>
<trkpt lat="-27.274439" lon="151.290064">
  <ele>343.1</ele>
  <time>2026-09-01T19:57:16Z</time>
  <course>270.0</course>
  <speed>0.0</speed>
  <fix>3d</fix>
</trkpt>
<trkpt lat="-27.274439" lon="151.290064">
  <ele>342.97</ele>
  <time>2026-09-01T19:57:16Z</time>
  <course>11.21</course>
  <speed>0.0</speed>
  <fix>3d</fix>
</trkpt>
<trkpt lat="-27.274439" lon="151.290064">
  <ele>343.1</ele>
  <time>2026-09-01T19:57:16Z</time>
  <course>270.0</course>
  <speed>0.0</speed>
  <fix>3d</fix>
</trkpt>
<trkpt lat="-27.274439" lon="151.290064">
  <ele>342.83</ele>
  <time>2026-09-01T19:57:16Z</time>
  <course>11.21</course>
  <speed>0.0</speed>
  <fix>3d</fix>
</trkpt>
<trkpt lat="-27.274439" lon="151.290064">
  <ele>343.1</ele>
  <time>2026-09-01T19:57:16Z</time>
  <course>270.0</course>
  <speed>0.0</speed>
  <fix>3d</fix>
</trkpt>
<trkpt lat="-27.274439" lon="151.290064">
  <ele>342.84</ele>
  <time>2026-09-01T19:57:16Z</time>
  <course>11.21</course>
  <speed>0.0</speed>
  <fix>3d</fix>
</trkpt>
<trkpt lat="-27.274439" lon="151.290064">
  <ele>343.1</ele>
  <time>2026-09-01T19:57:16Z</time>
  <course>270.0</course>
  <speed>0.0</speed>
  <fix>3d</fix>
</trkpt>
<trkpt lat="-27.274439" lon="151.290064">
  <ele>342.75</ele>
  <time>2026-09-01T19:57:16Z</time>
  <course>11.21</course>
  <speed>0.0</speed>
  <fix>3d</fix>
</trkpt>
<trkpt lat="-27.274439" lon="151.290064">
  <ele>343.1</ele>
  <time>2026-09-01T19:57:16Z</time>
  <course>270.0</course>
  <speed>0.0</speed>
  <fix>3d</fix>
</trkpt>
<trkpt lat="-27.274439" lon="151.290064">
  <ele>343.03</ele>
  <time>2026-09-01T19:57:16Z</time>
  <course>11.21</course>
  <speed>0.0</speed>
  <fix>3d</fix>
</trkpt>
<trkpt lat="-27.274439" lon="151.290064">
  <ele>343.1</ele>
  <time>2026-09-01T19:57:16Z</time>
  <course>270.0</course>
  <speed>0.0</speed>
  <fix>3d</fix>
</trkpt>
<trkpt lat="-27.274439" lon="151.290064">
  <ele>342.8</ele>
  <time>2026-09-01T19:57:16Z</time>
  <course>11.21</course>
  <speed>0.0</speed>
  <fix>3d</fix>
</trkpt>
<trkpt lat="-27.274439" lon="151.290064">
  <ele>343.1</ele>
  <time>2026-09-01T19:57:16Z</time>
  <course>270.0</course>
  <speed>0.0</speed>
  <fix>3d</fix>
</trkpt>
<trkpt lat="-27.274439" lon="151.290064">
  <ele>343.05</ele>
  <time>2026-09-01T19:57:16Z</time>
  <course>11.21</course>
  <speed>0.0</speed>
  <fix>3d</fix>
</trkpt>
<trkpt lat="-27.274439" lon="151.290064">
  <ele>343.1</ele>
  <time>2026-09-01T19:57:16Z</time>
  <course>270.0</course>
  <speed>0.0</speed>
  <fix>3d</fix>
</trkpt>
<trkpt lat="-27.274439" lon="151.290064">
  <ele>343.03</ele>
  <time>2026-09-01T19:57:16Z</time>
  <course>11.21</course>
  <speed>0.0</speed>
  <fix>3d</fix>
</trkpt>
<trkpt lat="-27.274439" lon="151.290064">
  <ele>343.1</ele>
  <time>2026-09-01T19:57:16Z</time>
  <course>270.0</course>
  <speed>0.0</speed>
  <fix>3d</fix>
</trkpt>
<trkpt lat="-27.274439" lon="151.290064">
  <ele>342.88</ele>
  <time>2026-09-01T19:57:16Z</time>
  <course>11.21</course>
  <speed>0.0</speed>
  <fix>3d</fix>
</trkpt>
<trkpt lat="-27.274439" lon="151.290064">
  <ele>343.1</ele>
  <time>2026-09-01T19:57:16Z</time>
  <course>270.0</course>
  <speed>0.0</speed>
  <fix>3d</fix>
</trkpt>
<trkpt lat="-27.274439" lon="151.290064">
  <ele>342.83</ele>
  <time>2026-09-01T19:57:16Z</time>
  <course>11.22</course>
  <speed>0.0</speed>
  <fix>3d</fix>
</trkpt>
<trkpt lat="-27.274439" lon="151.290064">
  <ele>343.1</ele>
  <time>2026-09-01T19:57:16Z</time>
  <course>270.0</course>
  <speed>0.0</speed>
  <fix>3d</fix>
</trkpt>
<trkpt lat="-27.274439" lon="151.290064">
  <ele>342.87</ele>
  <time>2026-09-01T19:57:16Z</time>
  <course>11.22</course>
  <speed>0.0</speed>
  <fix>3d</fix>
</trkpt>
<trkpt lat="-27.274439" lon="151.290064">
  <ele>343.1</ele>
  <time>2026-09-01T19:57:16Z</time>
  <course>270.0</course>
  <speed>0.0</speed>
  <fix>3d</fix>
</trkpt>
<trkpt lat="-27.274439" lon="151.290064">
  <ele>342.78</ele>
  <time>2026-09-01T19:57:16Z</time>
  <course>11.22</course>
  <speed>0.0</speed>
  <fix>3d</fix>
</trkpt>
<trkpt lat="-27.274439" lon="151.290064">
  <ele>343.1</ele>
  <time>2026-09-01T19:57:16Z</time>
  <course>270.0</course>
  <speed>0.0</speed>
  <fix>3d</fix>
</trkpt>
<trkpt lat="-27.274439" lon="151.290064">
  <ele>342.8</ele>
  <time>2026-09-01T19:57:16Z</time>
  <course>11.22</course>
  <speed>0.0</speed>
  <fix>3d</fix>
</trkpt>
<trkpt lat="-27.274439" lon="151.290064">
  <ele>343.1</ele>
  <time>2026-09-01T19:57:16Z</time>
  <course>270.0</course>
  <speed>0.0</speed>
  <fix>3d</fix>
</trkpt>
<trkpt lat="-27.274439" lon="151.290064">
  <ele>342.9</ele>
  <time>2026-09-01T19:57:16Z</time>
  <course>11.22</course>
  <speed>0.0</speed>
  <fix>3d</fix>
</trkpt>
<trkpt lat="-27.274439" lon="151.290064">
  <ele>343.1</ele>
  <time>2026-09-01T19:57:16Z</time>
  <course>270.0</course>
  <speed>0.0</speed>
  <fix>3d</fix>
</trkpt>
<trkpt lat="-27.274439" lon="151.290064">
  <ele>342.82</ele>
  <time>2026-09-01T19:57:17Z</time>
  <course>11.22</course>
  <speed>0.0</speed>
  <fix>3d</fix>
</trkpt>
<trkpt lat="-27.274439" lon="151.290064">
  <ele>343.1</ele>
  <time>2026-09-01T19:57:17Z</time>
  <course>270.0</course>
  <speed>0.0</speed>
  <fix>3d</fix>
</trkpt>
<trkpt lat="-27.274439" lon="151.290064">
  <ele>342.8</ele>
  <time>2026-09-01T19:57:17Z</time>
  <course>11.22</course>
  <speed>0.0</speed>
  <fix>3d</fix>
</trkpt>
<trkpt lat="-27.274439" lon="151.290064">
  <ele>343.1</ele>
  <time>2026-09-01T19:57:17Z</time>
  <course>270.0</course>
  <speed>0.0</speed>
  <fix>3d</fix>
</trkpt>
<trkpt lat="-27.274439" lon="151.290064">
  <ele>342.8</ele>
  <time>2026-09-01T19:57:17Z</time>
  <course>11.22</course>
  <speed>0.0</speed>
  <fix>3d</fix>
</trkpt>
<trkpt lat="-27.274439" lon="151.290064">
  <ele>343.1</ele>
  <time>2026-09-01T19:57:17Z</time>
  <course>270.0</course>
  <speed>0.0</speed>
  <fix>3d</fix>
</trkpt>
<trkpt lat="-27.274439" lon="151.290064">
  <ele>342.83</ele>
  <time>2026-09-01T19:57:17Z</time>
  <course>11.22</course>
  <speed>0.0</speed>
  <fix>3d</fix>
</trkpt>
<trkpt lat="-27.274439" lon="151.290064">
  <ele>343.1</ele>
  <time>2026-09-01T19:57:17Z</time>
  <course>270.0</course>
  <speed>0.0</speed>
  <fix>3d</fix>
</trkpt>
<trkpt lat="-27.274439" lon="151.290064">
  <ele>343.04</ele>
  <time>2026-09-01T19:57:17Z</time>
  <course>11.22</course>
  <speed>0.0</speed>
  <fix>3d</fix>
</trkpt>
<trkpt lat="-27.274439" lon="151.290064">
  <ele>343.1</ele>
  <time>2026-09-01T19:57:17Z</time>
  <course>270.0</course>
  <speed>0.0</speed>
  <fix>3d</fix>
</trkpt>
<trkpt lat="-27.274439" lon="151.290064">
  <ele>342.99</ele>
  <time>2026-09-01T19:57:17Z</time>
  <course>11.22</course>
  <speed>0.0</speed>
  <fix>3d</fix>
</trkpt>
<trkpt lat="-27.274439" lon="151.290064">
  <ele>343.1</ele>
  <time>2026-09-01T19:57:17Z</time>
  <course>270.0</course>
  <speed>0.0</speed>
  <fix>3d</fix>
</trkpt>
<trkpt lat="-27.274439" lon="151.290064">
  <ele>342.99</ele>
  <time>2026-09-01T19:57:17Z</time>
  <course>11.22</course>
  <speed>0.0</speed>
  <fix>3d</fix>
</trkpt>
<trkpt lat="-27.274439" lon="151.290064">
  <ele>343.1</ele>
  <time>2026-09-01T19:57:17Z</time>
  <course>270.0</course>
  <speed>0.0</speed>
  <fix>3d</fix>
</trkpt>
<trkpt lat="-27.274439" lon="151.290064">
  <ele>342.95</ele>
  <time>2026-09-01T19:57:17Z</time>
  <course>11.23</course>
  <speed>0.0</speed>
  <fix>3d</fix>
</trkpt>
<trkpt lat="-27.274439" lon="151.290064">
  <ele>343.1</ele>
  <time>2026-09-01T19:57:17Z</time>
  <course>270.0</course>
  <speed>0.0</speed>
  <fix>3d</fix>
</trkpt>
<trkpt lat="-27.274439" lon="151.290064">
  <ele>343.0</ele>
  <time>2026-09-01T19:57:17Z</time>
  <course>11.23</course>
  <speed>0.0</speed>
  <fix>3d</fix>
</trkpt>
<trkpt lat="-27.274439" lon="151.290064">
  <ele>343.1</ele>
  <time>2026-09-01T19:57:17Z</time>
  <course>270.0</course>
  <speed>0.0</speed>
  <fix>3d</fix>
</trkpt>
<trkpt lat="-27.274439" lon="151.290064">
  <ele>343.01</ele>
  <time>2026-09-01T19:57:17Z</time>
  <course>11.23</course>
  <speed>0.0</speed>
  <fix>3d</fix>
</trkpt>
<trkpt lat="-27.274439" lon="151.290064">
  <ele>343.1</ele>
  <time>2026-09-01T19:57:17Z</time>
  <course>270.0</course>
  <speed>0.0</speed>
  <fix>3d</fix>
</trkpt>
<trkpt lat="-27.274439" lon="151.290064">
  <ele>342.8</ele>
  <time>2026-09-01T19:57:17Z</time>
  <course>11.23</course>
  <speed>0.0</speed>
  <fix>3d</fix>
</trkpt>
<trkpt lat="-27.274439" lon="151.290064">
  <ele>343.1</ele>
  <time>2026-09-01T19:57:17Z</time>
  <course>270.0</course>
  <speed>0.0</speed>
  <fix>3d</fix>
</trkpt>
<trkpt lat="-27.274439" lon="151.290064">
  <ele>342.93</ele>
  <time>2026-09-01T19:57:17Z</time>
  <course>11.23</course>
  <speed>0.0</speed>
  <fix>3d</fix>
</trkpt>
<trkpt lat="-27.274439" lon="151.290064">
  <ele>343.1</ele>
  <time>2026-09-01T19:57:17Z</time>
  <course>270.0</course>
  <speed>0.0</speed>
  <fix>3d</fix>
</trkpt>
<trkpt lat="-27.274439" lon="151.290064">
  <ele>342.7</ele>
  <time>2026-09-01T19:57:17Z</time>
  <course>11.23</course>
  <speed>0.0</speed>
  <fix>3d</fix>
</trkpt>
<trkpt lat="-27.274439" lon="151.290064">
  <ele>343.1</ele>
  <time>2026-09-01T19:57:17Z</time>
  <course>270.0</course>
  <speed>0.0</speed>
  <fix>3d</fix>
</trkpt>
<trkpt lat="-27.274439" lon="151.290064">
  <ele>342.98</ele>
  <time>2026-09-01T19:57:17Z</time>
  <course>11.23</course>
  <speed>0.0</speed>
  <fix>3d</fix>
</trkpt>
<trkpt lat="-27.274439" lon="151.290064">
  <ele>343.1</ele>
  <time>2026-09-01T19:57:17Z</time>
  <course>270.0</course>
  <speed>0.0</speed>
  <fix>3d</fix>
</trkpt>
<trkpt lat="-27.274439" lon="151.290064">
  <ele>342.89</ele>
  <time>2026-09-01T19:57:17Z</time>
  <course>11.23</course>
  <speed>0.0</speed>
  <fix>3d</fix>
</trkpt>
<trkpt lat="-27.274439" lon="151.290064">
  <ele>343.1</ele>
  <time>2026-09-01T19:57:17Z</time>
  <course>270.0</course>
  <speed>0.0</speed>
  <fix>3d</fix>
</trkpt>
<trkpt lat="-27.274439" lon="151.290064">
  <ele>342.96</ele>
  <time>2026-09-01T19:57:17Z</time>
  <course>11.23</course>
  <speed>0.0</speed>
  <fix>3d</fix>
</trkpt>
<trkpt lat="-27.274439" lon="151.290064">
  <ele>343.1</ele>
  <time>2026-09-01T19:57:17Z</time>
  <course>270.0</course>
  <speed>0.0</speed>
  <fix>3d</fix>
</trkpt>
<trkpt lat="-27.274439" lon="151.290064">
  <ele>342.7</ele>
  <time>2026-09-01T19:57:17Z</time>
  <course>11.23</course>
  <speed>0.0</speed>
  <fix>3d</fix>
</trkpt>
<trkpt lat="-27.274439" lon="151.290064">
  <ele>343.1</ele>
  <time>2026-09-01T19:57:17Z</time>
  <course>270.0</course>
  <speed>0.0</speed>
  <fix>3d</fix>
</trkpt>
<trkpt lat="-27.274439" lon="151.290064">
  <ele>342.96</ele>
  <time>2026-09-01T19:57:17Z</time>
  <course>11.23</course>
  <speed>0.0</speed>
  <fix>3d</fix>
</trkpt>
<trkpt lat="-27.274439" lon="151.290064">
  <ele>343.1</ele>
  <time>2026-09-01T19:57:17Z</time>
  <course>270.0</course>
  <speed>0.0</speed>
  <fix>3d</fix>
</trkpt>
<trkpt lat="-27.274439" lon="151.290064">
  <ele>343.0</ele>
  <time>2026-09-01T19:57:17Z</time>
  <course>11.24</course>
  <speed>0.0</speed>
  <fix>3d</fix>
</trkpt>
<trkpt lat="-27.274439" lon="151.290064">
  <ele>343.1</ele>
  <time>2026-09-01T19:57:17Z</time>
  <course>270.0</course>
  <speed>0.0</speed>
  <fix>3d</fix>
</trkpt>
<trkpt lat="-27.274439" lon="151.290064">
  <ele>342.98</ele>
  <time>2026-09-01T19:57:17Z</time>
  <course>11.24</course>
  <speed>0.0</speed>
  <fix>3d</fix>
</trkpt>
<trkpt lat="-27.274439" lon="151.290064">
  <ele>343.1</ele>
  <time>2026-09-01T19:57:17Z</time>
  <course>270.0</course>
  <speed>0.0</speed>
  <fix>3d</fix>
</trkpt>
<trkpt lat="-27.274439" lon="151.290064">
  <ele>343.08</ele>
  <time>2026-09-01T19:57:17Z</time>
  <course>11.24</course>
  <speed>0.0</speed>
  <fix>3d</fix>
</trkpt>
<trkpt lat="-27.274439" lon="151.290064">
  <ele>343.1</ele>
  <time>2026-09-01T19:57:17Z</time>
  <course>270.0</course>
  <speed>0.0</speed>
  <fix>3d</fix>
</trkpt>
<trkpt lat="-27.274439" lon="151.290064">
  <ele>342.82</ele>
  <time>2026-09-01T19:57:17Z</time>
  <course>11.24</course>
  <speed>0.0</speed>
  <fix>3d</fix>
</trkpt>
<trkpt lat="-27.274439" lon="151.290064">
  <ele>343.1</ele>
  <time>2026-09-01T19:57:17Z</time>
  <course>270.0</course>
  <speed>0.0</speed>
  <fix>3d</fix>
</trkpt>
<trkpt lat="-27.274439" lon="151.290064">
  <ele>342.78</ele>
  <time>2026-09-01T19:57:17Z</time>
  <course>11.24</course>
  <speed>0.0</speed>
  <fix>3d</fix>
</trkpt>
<trkpt lat="-27.274439" lon="151.290064">
  <ele>343.1</ele>
  <time>2026-09-01T19:57:17Z</time>
  <course>270.0</course>
  <speed>0.0</speed>
  <fix>3d</fix>
</trkpt>
<trkpt lat="-27.274439" lon="151.290064">
  <ele>342.98</ele>
  <time>2026-09-01T19:57:17Z</time>
  <course>11.24</course>
  <speed>0.0</speed>
  <fix>3d</fix>
</trkpt>
<trkpt lat="-27.274439" lon="151.290064">
  <ele>343.1</ele>
  <time>2026-09-01T19:57:17Z</time>
  <course>270.0</course>
  <speed>0.0</speed>
  <fix>3d</fix>
</trkpt>
<trkpt lat="-27.274439" lon="151.290064">
  <ele>342.9</ele>
  <time>2026-09-01T19:57:17Z</time>
  <course>11.24</course>
  <speed>0.0</speed>
  <fix>3d</fix>
</trkpt>
<trkpt lat="-27.274439" lon="151.290064">
  <ele>343.1</ele>
  <time>2026-09-01T19:57:17Z</time>
  <course>270.0</course>
  <speed>0.0</speed>
  <fix>3d</fix>
</trkpt>
<trkpt lat="-27.274439" lon="151.290064">
  <ele>343.0</ele>
  <time>2026-09-01T19:57:17Z</time>
  <course>11.24</course>
  <speed>0.0</speed>
  <fix>3d</fix>
</trkpt>
<trkpt lat="-27.274439" lon="151.290064">
  <ele>343.1</ele>
  <time>2026-09-01T19:57:17Z</time>
  <course>270.0</course>
  <speed>0.0</speed>
  <fix>3d</fix>
</trkpt>
<trkpt lat="-27.274439" lon="151.290064">
  <ele>342.9</ele>
  <time>2026-09-01T19:57:17Z</time>
  <course>11.24</course>
  <speed>0.0</speed>
  <fix>3d</fix>
</trkpt>
<trkpt lat="-27.274439" lon="151.290064">
  <ele>343.1</ele>
  <time>2026-09-01T19:57:17Z</time>
  <course>270.0</course>
  <speed>0.0</speed>
  <fix>3d</fix>
</trkpt>
<trkpt lat="-27.274439" lon="151.290064">
  <ele>342.91</ele>
  <time>2026-09-01T19:57:17Z</time>
  <course>11.24</course>
  <speed>0.0</speed>
  <fix>3d</fix>
</trkpt>
<trkpt lat="-27.274439" lon="151.290064">
  <ele>343.1</ele>
  <time>2026-09-01T19:57:17Z</time>
  <course>270.0</course>
  <speed>0.0</speed>
  <fix>3d</fix>
</trkpt>
<trkpt lat="-27.274439" lon="151.290064">
  <ele>342.83</ele>
  <time>2026-09-01T19:57:17Z</time>
  <course>11.24</course>
  <speed>0.0</speed>
  <fix>3d</fix>
</trkpt>
<trkpt lat="-27.274439" lon="151.290064">
  <ele>343.1</ele>
  <time>2026-09-01T19:57:17Z</time>
  <course>270.0</course>
  <speed>0.0</speed>
  <fix>3d</fix>
</trkpt>
<trkpt lat="-27.274439" lon="151.290064">
  <ele>342.74</ele>
  <time>2026-09-01T19:57:17Z</time>
  <course>11.24</course>
  <speed>0.0</speed>
  <fix>3d</fix>
</trkpt>
<trkpt lat="-27.274439" lon="151.290064">
  <ele>343.1</ele>
  <time>2026-09-01T19:57:17Z</time>
  <course>270.0</course>
  <speed>0.0</speed>
  <fix>3d</fix>
</trkpt>
<trkpt lat="-27.274439" lon="151.290064">
  <ele>342.89</ele>
  <time>2026-09-01T19:57:17Z</time>
  <course>11.24</course>
  <speed>0.0</speed>
  <fix>3d</fix>
</trkpt>
<trkpt lat="-27.274439" lon="151.290064">
  <ele>343.1</ele>
  <time>2026-09-01T19:57:17Z</time>
  <course>270.0</course>
  <speed>0.0</speed>
  <fix>3d</fix>
</trkpt>
<trkpt lat="-27.274439" lon="151.290064">
  <ele>342.87</ele>
  <time>2026-09-01T19:57:17Z</time>
  <course>11.24</course>
  <speed>0.0</speed>
  <fix>3d</fix>
</trkpt>
<trkpt lat="-27.274439" lon="151.290064">
  <ele>343.1</ele>
  <time>2026-09-01T19:57:17Z</time>
  <course>270.0</course>
  <speed>0.0</speed>
  <fix>3d</fix>
</trkpt>
<trkpt lat="-27.274439" lon="151.290064">
  <ele>342.92</ele>
  <time>2026-09-01T19:57:17Z</time>
  <course>11.25</course>
  <speed>0.0</speed>
  <fix>3d</fix>
</trkpt>
<trkpt lat="-27.274439" lon="151.290064">
  <ele>343.1</ele>
  <time>2026-09-01T19:57:17Z</time>
  <course>270.0</course>
  <speed>0.0</speed>
  <fix>3d</fix>
</trkpt>
<trkpt lat="-27.274439" lon="151.290064">
  <ele>343.01</ele>
  <time>2026-09-01T19:57:17Z</time>
  <course>11.25</course>
  <speed>0.0</speed>
  <fix>3d</fix>
</trkpt>
<trkpt lat="-27.274439" lon="151.290064">
  <ele>343.1</ele>
  <time>2026-09-01T19:57:17Z</time>
  <course>270.0</course>
  <speed>0.0</speed>
  <fix>3d</fix>
</trkpt>
<trkpt lat="-27.274439" lon="151.290064">
  <ele>342.9</ele>
  <time>2026-09-01T19:57:17Z</time>
  <course>11.24</course>
  <speed>0.0</speed>
  <fix>3d</fix>
</trkpt>
<trkpt lat="-27.274439" lon="151.290064">
  <ele>343.1</ele>
  <time>2026-09-01T19:57:17Z</time>
  <course>270.0</course>
  <speed>0.0</speed>
  <fix>3d</fix>
</trkpt>
<trkpt lat="-27.274439" lon="151.290064">
  <ele>342.71</ele>
  <time>2026-09-01T19:57:17Z</time>
  <course>11.24</course>
  <speed>0.0</speed>
  <fix>3d</fix>
</trkpt>
<trkpt lat="-27.274439" lon="151.290064">
  <ele>343.1</ele>
  <time>2026-09-01T19:57:17Z</time>
  <course>270.0</course>
  <speed>0.0</speed>
  <fix>3d</fix>
</trkpt>
<trkpt lat="-27.274439" lon="151.290064">
  <ele>343.05</ele>
  <time>2026-09-01T19:57:17Z</time>
  <course>11.24</course>
  <speed>0.0</speed>
  <fix>3d</fix>
</trkpt>
<trkpt lat="-27.274439" lon="151.290064">
  <ele>343.1</ele>
  <time>2026-09-01T19:57:17Z</time>
  <course>270.0</course>
  <speed>0.0</speed>
  <fix>3d</fix>
</trkpt>
<trkpt lat="-27.274439" lon="151.290064">
  <ele>343.0</ele>
  <time>2026-09-01T19:57:17Z</time>
  <course>11.24</course>
  <speed>0.0</speed>
  <fix>3d</fix>
</trkpt>
<trkpt lat="-27.274439" lon="151.290064">
  <ele>343.1</ele>
  <time>2026-09-01T19:57:17Z</time>
  <course>270.0</course>
  <speed>0.0</speed>
  <fix>3d</fix>
</trkpt>
<trkpt lat="-27.274439" lon="151.290064">
  <ele>342.8</ele>
  <time>2026-09-01T19:57:17Z</time>
  <course>11.23</course>
  <speed>0.0</speed>
  <fix>3d</fix>
</trkpt>
<trkpt lat="-27.274439" lon="151.290064">
  <ele>343.1</ele>
  <time>2026-09-01T19:57:17Z</time>
  <course>270.0</course>
  <speed>0.0</speed>
  <fix>3d</fix>
</trkpt>
<trkpt lat="-27.274439" lon="151.290064">
  <ele>342.85</ele>
  <time>2026-09-01T19:57:17Z</time>
  <course>11.23</course>
  <speed>0.0</speed>
  <fix>3d</fix>
</trkpt>
<trkpt lat="-27.274439" lon="151.290064">
  <ele>343.1</ele>
  <time>2026-09-01T19:57:17Z</time>
  <course>270.0</course>
  <speed>0.0</speed>
  <fix>3d</fix>
</trkpt>
<trkpt lat="-27.274439" lon="151.290064">
  <ele>342.96</ele>
  <time>2026-09-01T19:57:17Z</time>
  <course>11.23</course>
  <speed>0.0</speed>
  <fix>3d</fix>
</trkpt>
<trkpt lat="-27.274439" lon="151.290064">
  <ele>343.1</ele>
  <time>2026-09-01T19:57:17Z</time>
  <course>270.0</course>
  <speed>0.0</speed>
  <fix>3d</fix>
</trkpt>
<trkpt lat="-27.274439" lon="151.290064">
  <ele>342.82</ele>
  <time>2026-09-01T19:57:17Z</time>
  <course>11.23</course>
  <speed>0.0</speed>
  <fix>3d</fix>
</trkpt>
<trkpt lat="-27.274439" lon="151.290064">
  <ele>343.1</ele>
  <time>2026-09-01T19:57:17Z</time>
  <course>270.0</course>
  <speed>0.0</speed>
  <fix>3d</fix>
</trkpt>
<trkpt lat="-27.274439" lon="151.290064">
  <ele>342.75</ele>
  <time>2026-09-01T19:57:17Z</time>
  <course>11.23</course>
  <speed>0.0</speed>
  <fix>3d</fix>
</trkpt>
<trkpt lat="-27.274439" lon="151.290064">
  <ele>343.1</ele>
  <time>2026-09-01T19:57:17Z</time>
  <course>270.0</course>
  <speed>0.0</speed>
  <fix>3d</fix>
</trkpt>
<trkpt lat="-27.274439" lon="151.290064">
  <ele>343.08</ele>
  <time>2026-09-01T19:57:17Z</time>
  <course>11.22</course>
  <speed>0.0</speed>
  <fix>3d</fix>
</trkpt>
<trkpt lat="-27.274439" lon="151.290064">
  <ele>343.1</ele>
  <time>2026-09-01T19:57:17Z</time>
  <course>270.0</course>
  <speed>0.0</speed>
  <fix>3d</fix>
</trkpt>
<trkpt lat="-27.274439" lon="151.290064">
  <ele>343.03</ele>
  <time>2026-09-01T19:57:17Z</time>
  <course>11.22</course>
  <speed>0.0</speed>
  <fix>3d</fix>
</trkpt>
<trkpt lat="-27.274439" lon="151.290064">
  <ele>343.1</ele>
  <time>2026-09-01T19:57:17Z</time>
  <course>270.0</course>
  <speed>0.0</speed>
  <fix>3d</fix>
</trkpt>
<trkpt lat="-27.274439" lon="151.290064">
  <ele>342.94</ele>
  <time>2026-09-01T19:57:17Z</time>
  <course>11.22</course>
  <speed>0.0</speed>
  <fix>3d</fix>
</trkpt>
<trkpt lat="-27.274439" lon="151.290064">
  <ele>343.1</ele>
  <time>2026-09-01T19:57:17Z</time>
  <course>270.0</course>
  <speed>0.0</speed>
  <fix>3d</fix>
</trkpt>
<trkpt lat="-27.274439" lon="151.290064">
  <ele>342.93</ele>
  <time>2026-09-01T19:57:17Z</time>
  <course>11.22</course>
  <speed>0.0</speed>
  <fix>3d</fix>
</trkpt>
<trkpt lat="-27.274439" lon="151.290064">
  <ele>343.1</ele>
  <time>2026-09-01T19:57:17Z</time>
  <course>270.0</course>
  <speed>0.0</speed>
  <fix>3d</fix>
</trkpt>
<trkpt lat="-27.274439" lon="151.290064">
  <ele>343.08</ele>
  <time>2026-09-01T19:57:17Z</time>
  <course>11.22</course>
  <speed>0.0</speed>
  <fix>3d</fix>
</trkpt>
<trkpt lat="-27.274439" lon="151.290064">
  <ele>343.1</ele>
  <time>2026-09-01T19:57:17Z</time>
  <course>270.0</course>
  <speed>0.0</speed>
  <fix>3d</fix>
</trkpt>
<trkpt lat="-27.274439" lon="151.290064">
  <ele>342.85</ele>
  <time>2026-09-01T19:57:17Z</time>
  <course>11.21</course>
  <speed>0.0</speed>
  <fix>3d</fix>
</trkpt>
<trkpt lat="-27.274439" lon="151.290064">
  <ele>343.1</ele>
  <time>2026-09-01T19:57:17Z</time>
  <course>270.0</course>
  <speed>0.0</speed>
  <fix>3d</fix>
</trkpt>
<trkpt lat="-27.274439" lon="151.290064">
  <ele>342.86</ele>
  <time>2026-09-01T19:57:17Z</time>
  <course>11.21</course>
  <speed>0.0</speed>
  <fix>3d</fix>
</trkpt>
<trkpt lat="-27.274439" lon="151.290064">
  <ele>343.1</ele>
  <time>2026-09-01T19:57:17Z</time>
  <course>270.0</course>
  <speed>0.0</speed>
  <fix>3d</fix>
</trkpt>
<trkpt lat="-27.274439" lon="151.290064">
  <ele>342.83</ele>
  <time>2026-09-01T19:57:17Z</time>
  <course>11.21</course>
  <speed>0.0</speed>
  <fix>3d</fix>
</trkpt>
<trkpt lat="-27.274439" lon="151.290064">
  <ele>343.1</ele>
  <time>2026-09-01T19:57:17Z</time>
  <course>270.0</course>
  <speed>0.0</speed>
  <fix>3d</fix>
</trkpt>
<trkpt lat="-27.274439" lon="151.290064">
  <ele>343.14</ele>
  <time>2026-09-01T19:57:17Z</time>
  <course>11.21</course>
  <speed>0.0</speed>
  <fix>3d</fix>
</trkpt>
<trkpt lat="-27.274439" lon="151.290064">
  <ele>343.1</ele>
  <time>2026-09-01T19:57:17Z</time>
  <course>270.0</course>
  <speed>0.0</speed>
  <fix>3d</fix>
</trkpt>
<trkpt lat="-27.274439" lon="151.290064">
  <ele>343.03</ele>
  <time>2026-09-01T19:57:17Z</time>
  <course>11.21</course>
  <speed>0.0</speed>
  <fix>3d</fix>
</trkpt>
<trkpt lat="-27.274439" lon="151.290064">
  <ele>343.1</ele>
  <time>2026-09-01T19:57:17Z</time>
  <course>270.0</course>
  <speed>0.0</speed>
  <fix>3d</fix>
</trkpt>
<trkpt lat="-27.274439" lon="151.290064">
  <ele>342.82</ele>
  <time>2026-09-01T19:57:17Z</time>
  <course>11.2</course>
  <speed>0.0</speed>
  <fix>3d</fix>
</trkpt>
<trkpt lat="-27.274439" lon="151.290064">
  <ele>343.1</ele>
  <time>2026-09-01T19:57:17Z</time>
  <course>270.0</course>
  <speed>0.0</speed>
  <fix>3d</fix>
</trkpt>
<trkpt lat="-27.274439" lon="151.290064">
  <ele>342.93</ele>
  <time>2026-09-01T19:57:17Z</time>
  <course>11.2</course>
  <speed>0.0</speed>
  <fix>3d</fix>
</trkpt>
<trkpt lat="-27.274439" lon="151.290064">
  <ele>343.1</ele>
  <time>2026-09-01T19:57:17Z</time>
  <course>270.0</course>
  <speed>0.0</speed>
  <fix>3d</fix>
</trkpt>
<trkpt lat="-27.274439" lon="151.290064">
  <ele>342.82</ele>
  <time>2026-09-01T19:57:17Z</time>
  <course>11.2</course>
  <speed>0.0</speed>
  <fix>3d</fix>
</trkpt>
<trkpt lat="-27.274439" lon="151.290064">
  <ele>343.1</ele>
  <time>2026-09-01T19:57:17Z</time>
  <course>270.0</course>
  <speed>0.0</speed>
  <fix>3d</fix>
</trkpt>
<trkpt lat="-27.274439" lon="151.290064">
  <ele>342.83</ele>
  <time>2026-09-01T19:57:17Z</time>
  <course>11.2</course>
  <speed>0.0</speed>
  <fix>3d</fix>
</trkpt>
<trkpt lat="-27.274439" lon="151.290064">
  <ele>343.1</ele>
  <time>2026-09-01T19:57:17Z</time>
  <course>270.0</course>
  <speed>0.0</speed>
  <fix>3d</fix>
</trkpt>
<trkpt lat="-27.274439" lon="151.290064">
  <ele>342.9</ele>
  <time>2026-09-01T19:57:17Z</time>
  <course>11.2</course>
  <speed>0.0</speed>
  <fix>3d</fix>
</trkpt>
<trkpt lat="-27.274439" lon="151.290064">
  <ele>343.1</ele>
  <time>2026-09-01T19:57:17Z</time>
  <course>270.0</course>
  <speed>0.0</speed>
  <fix>3d</fix>
</trkpt>
<trkpt lat="-27.274439" lon="151.290064">
  <ele>342.83</ele>
  <time>2026-09-01T19:57:17Z</time>
  <course>11.2</course>
  <speed>0.0</speed>
  <fix>3d</fix>
</trkpt>
<trkpt lat="-27.274439" lon="151.290064">
  <ele>343.1</ele>
  <time>2026-09-01T19:57:17Z</time>
  <course>270.0</course>
  <speed>0.0</speed>
  <fix>3d</fix>
</trkpt>
<trkpt lat="-27.274439" lon="151.290064">
  <ele>343.04</ele>
  <time>2026-09-01T19:57:17Z</time>
  <course>11.19</course>
  <speed>0.0</speed>
  <fix>3d</fix>
</trkpt>
<trkpt lat="-27.274439" lon="151.290064">
  <ele>343.1</ele>
  <time>2026-09-01T19:57:17Z</time>
  <course>270.0</course>
  <speed>0.0</speed>
  <fix>3d</fix>
</trkpt>
<trkpt lat="-27.274439" lon="151.290064">
  <ele>342.98</ele>
  <time>2026-09-01T19:57:17Z</time>
  <course>11.19</course>
  <speed>0.0</speed>
  <fix>3d</fix>
</trkpt>
<trkpt lat="-27.274439" lon="151.290064">
  <ele>343.1</ele>
  <time>2026-09-01T19:57:17Z</time>
  <course>270.0</course>
  <speed>0.0</speed>
  <fix>3d</fix>
</trkpt>
<trkpt lat="-27.274439" lon="151.290064">
  <ele>342.99</ele>
  <time>2026-09-01T19:57:17Z</time>
  <course>11.19</course>
  <speed>0.0</speed>
  <fix>3d</fix>
</trkpt>
<trkpt lat="-27.274439" lon="151.290064">
  <ele>343.1</ele>
  <time>2026-09-01T19:57:17Z</time>
  <course>270.0</course>
  <speed>0.0</speed>
  <fix>3d</fix>
</trkpt>
<trkpt lat="-27.274439" lon="151.290064">
  <ele>342.98</ele>
  <time>2026-09-01T19:57:17Z</time>
  <course>11.19</course>
  <speed>0.0</speed>
  <fix>3d</fix>
</trkpt>
<trkpt lat="-27.274439" lon="151.290064">
  <ele>343.1</ele>
  <time>2026-09-01T19:57:17Z</time>
  <course>270.0</course>
  <speed>0.0</speed>
  <fix>3d</fix>
</trkpt>
<trkpt lat="-27.274439" lon="151.290064">
  <ele>342.9</ele>
  <time>2026-09-01T19:57:17Z</time>
  <course>11.19</course>
  <speed>0.0</speed>
  <fix>3d</fix>
</trkpt>
<trkpt lat="-27.274439" lon="151.290064">
  <ele>343.1</ele>
  <time>2026-09-01T19:57:17Z</time>
  <course>270.0</course>
  <speed>0.0</speed>
  <fix>3d</fix>
</trkpt>
<trkpt lat="-27.274439" lon="151.290064">
  <ele>343.03</ele>
  <time>2026-09-01T19:57:17Z</time>
  <course>11.19</course>
  <speed>0.0</speed>
  <fix>3d</fix>
</trkpt>
<trkpt lat="-27.274439" lon="151.290064">
  <ele>343.1</ele>
  <time>2026-09-01T19:57:17Z</time>
  <course>270.0</course>
  <speed>0.0</speed>
  <fix>3d</fix>
</trkpt>
<trkpt lat="-27.274439" lon="151.290064">
  <ele>343.11</ele>
  <time>2026-09-01T19:57:17Z</time>
  <course>11.18</course>
  <speed>0.0</speed>
  <fix>3d</fix>
</trkpt>
<trkpt lat="-27.274439" lon="151.290064">
  <ele>343.1</ele>
  <time>2026-09-01T19:57:17Z</time>
  <course>270.0</course>
  <speed>0.0</speed>
  <fix>3d</fix>
</trkpt>
<trkpt lat="-27.274439" lon="151.290064">
  <ele>342.98</ele>
  <time>2026-09-01T19:57:17Z</time>
  <course>11.18</course>
  <speed>0.0</speed>
  <fix>3d</fix>
</trkpt>
<trkpt lat="-27.274439" lon="151.290064">
  <ele>343.1</ele>
  <time>2026-09-01T19:57:17Z</time>
  <course>270.0</course>
  <speed>0.0</speed>
  <fix>3d</fix>
</trkpt>
<trkpt lat="-27.274439" lon="151.290064">
  <ele>343.06</ele>
  <time>2026-09-01T19:57:17Z</time>
  <course>11.18</course>
  <speed>0.0</speed>
  <fix>3d</fix>
</trkpt>
<trkpt lat="-27.274439" lon="151.290064">
  <ele>343.1</ele>
  <time>2026-09-01T19:57:17Z</time>
  <course>270.0</course>
  <speed>0.0</speed>
  <fix>3d</fix>
</trkpt>
<trkpt lat="-27.274439" lon="151.290064">
  <ele>342.9</ele>
  <time>2026-09-01T19:57:17Z</time>
  <course>11.18</course>
  <speed>0.0</speed>
  <fix>3d</fix>
</trkpt>
<trkpt lat="-27.274439" lon="151.290064">
  <ele>343.1</ele>
  <time>2026-09-01T19:57:17Z</time>
  <course>270.0</course>
  <speed>0.0</speed>
  <fix>3d</fix>
</trkpt>
<trkpt lat="-27.274439" lon="151.290064">
  <ele>342.79</ele>
  <time>2026-09-01T19:57:17Z</time>
  <course>11.18</course>
  <speed>0.0</speed>
  <fix>3d</fix>
</trkpt>
<trkpt lat="-27.274439" lon="151.290064">
  <ele>343.1</ele>
  <time>2026-09-01T19:57:17Z</time>
  <course>270.0</course>
  <speed>0.0</speed>
  <fix>3d</fix>
</trkpt>
<trkpt lat="-27.274439" lon="151.290064">
  <ele>343.08</ele>
  <time>2026-09-01T19:57:17Z</time>
  <course>11.18</course>
  <speed>0.0</speed>
  <fix>3d</fix>
</trkpt>
<trkpt lat="-27.274439" lon="151.290064">
  <ele>343.1</ele>
  <time>2026-09-01T19:57:17Z</time>
  <course>270.0</course>
  <speed>0.0</speed>
  <fix>3d</fix>
</trkpt>
<trkpt lat="-27.274439" lon="151.290064">
  <ele>342.99</ele>
  <time>2026-09-01T19:57:17Z</time>
  <course>11.17</course>
  <speed>0.0</speed>
  <fix>3d</fix>
</trkpt>
<trkpt lat="-27.274439" lon="151.290064">
  <ele>343.1</ele>
  <time>2026-09-01T19:57:17Z</time>
  <course>270.0</course>
  <speed>0.0</speed>
  <fix>3d</fix>
</trkpt>
<trkpt lat="-27.274439" lon="151.290064">
  <ele>342.95</ele>
  <time>2026-09-01T19:57:17Z</time>
  <course>11.17</course>
  <speed>0.0</speed>
  <fix>3d</fix>
</trkpt>
<trkpt lat="-27.274439" lon="151.290064">
  <ele>343.1</ele>
  <time>2026-09-01T19:57:17Z</time>
  <course>270.0</course>
  <speed>0.0</speed>
  <fix>3d</fix>
</trkpt>
<trkpt lat="-27.274439" lon="151.290064">
  <ele>342.8</ele>
  <time>2026-09-01T19:57:17Z</time>
  <course>11.17</course>
  <speed>0.0</speed>
  <fix>3d</fix>
</trkpt>
<trkpt lat="-27.274439" lon="151.290064">
  <ele>343.1</ele>
  <time>2026-09-01T19:57:17Z</time>
  <course>270.0</course>
  <speed>0.0</speed>
  <fix>3d</fix>
</trkpt>
<trkpt lat="-27.274439" lon="151.290064">
  <ele>343.01</ele>
  <time>2026-09-01T19:57:17Z</time>
  <course>11.17</course>
  <speed>0.0</speed>
  <fix>3d</fix>
</trkpt>
<trkpt lat="-27.274439" lon="151.290064">
  <ele>343.1</ele>
  <time>2026-09-01T19:57:17Z</time>
  <course>270.0</course>
  <speed>0.0</speed>
  <fix>3d</fix>
</trkpt>
<trkpt lat="-27.274439" lon="151.290064">
  <ele>342.78</ele>
  <time>2026-09-01T19:57:17Z</time>
  <course>11.17</course>
  <speed>0.0</speed>
  <fix>3d</fix>
</trkpt>
<trkpt lat="-27.274439" lon="151.290064">
  <ele>343.1</ele>
  <time>2026-09-01T19:57:17Z</time>
  <course>270.0</course>
  <speed>0.0</speed>
  <fix>3d</fix>
</trkpt>
<trkpt lat="-27.274439" lon="151.290064">
  <ele>342.81</ele>
  <time>2026-09-01T19:57:17Z</time>
  <course>11.17</course>
  <speed>0.0</speed>
  <fix>3d</fix>
</trkpt>
<trkpt lat="-27.274439" lon="151.290064">
  <ele>343.1</ele>
  <time>2026-09-01T19:57:17Z</time>
  <course>270.0</course>
  <speed>0.0</speed>
  <fix>3d</fix>
</trkpt>
<trkpt lat="-27.274439" lon="151.290064">
  <ele>342.85</ele>
  <time>2026-09-01T19:57:17Z</time>
  <course>11.17</course>
  <speed>0.0</speed>
  <fix>3d</fix>
</trkpt>
<trkpt lat="-27.274439" lon="151.290064">
  <ele>343.1</ele>
  <time>2026-09-01T19:57:17Z</time>
  <course>270.0</course>
  <speed>0.0</speed>
  <fix>3d</fix>
</trkpt>
<trkpt lat="-27.274439" lon="151.290064">
  <ele>342.78</ele>
  <time>2026-09-01T19:57:17Z</time>
  <course>11.17</course>
  <speed>0.0</speed>
  <fix>3d</fix>
</trkpt>
<trkpt lat="-27.274439" lon="151.290064">
  <ele>343.1</ele>
  <time>2026-09-01T19:57:17Z</time>
  <course>270.0</course>
  <speed>0.0</speed>
  <fix>3d</fix>
</trkpt>
<trkpt lat="-27.274439" lon="151.290064">
  <ele>342.79</ele>
  <time>2026-09-01T19:57:17Z</time>
  <course>11.16</course>
  <speed>0.0</speed>
  <fix>3d</fix>
</trkpt>
<trkpt lat="-27.274439" lon="151.290064">
  <ele>343.1</ele>
  <time>2026-09-01T19:57:17Z</time>
  <course>270.0</course>
  <speed>0.0</speed>
  <fix>3d</fix>
</trkpt>
<trkpt lat="-27.274439" lon="151.290064">
  <ele>342.9</ele>
  <time>2026-09-01T19:57:17Z</time>
  <course>11.16</course>
  <speed>0.0</speed>
  <fix>3d</fix>
</trkpt>
<trkpt lat="-27.274439" lon="151.290064">
  <ele>343.1</ele>
  <time>2026-09-01T19:57:17Z</time>
  <course>270.0</course>
  <speed>0.0</speed>
  <fix>3d</fix>
</trkpt>
<trkpt lat="-27.274439" lon="151.290064">
  <ele>342.98</ele>
  <time>2026-09-01T19:57:17Z</time>
  <course>11.16</course>
  <speed>0.0</speed>
  <fix>3d</fix>
</trkpt>
<trkpt lat="-27.274439" lon="151.290064">
  <ele>343.1</ele>
  <time>2026-09-01T19:57:17Z</time>
  <course>270.0</course>
  <speed>0.0</speed>
  <fix>3d</fix>
</trkpt>
<trkpt lat="-27.274439" lon="151.290064">
  <ele>342.77</ele>
  <time>2026-09-01T19:57:17Z</time>
  <course>11.16</course>
  <speed>0.0</speed>
  <fix>3d</fix>
</trkpt>
<trkpt lat="-27.274439" lon="151.290064">
  <ele>343.1</ele>
  <time>2026-09-01T19:57:17Z</time>
  <course>270.0</course>
  <speed>0.0</speed>
  <fix>3d</fix>
</trkpt>
<trkpt lat="-27.274439" lon="151.290064">
  <ele>342.95</ele>
  <time>2026-09-01T19:57:17Z</time>
  <course>11.16</course>
  <speed>0.0</speed>
  <fix>3d</fix>
</trkpt>
<trkpt lat="-27.274439" lon="151.290064">
  <ele>343.1</ele>
  <time>2026-09-01T19:57:17Z</time>
  <course>270.0</course>
  <speed>0.0</speed>
  <fix>3d</fix>
</trkpt>
<trkpt lat="-27.274439" lon="151.290064">
  <ele>343.04</ele>
  <time>2026-09-01T19:57:17Z</time>
  <course>11.16</course>
  <speed>0.0</speed>
  <fix>3d</fix>
</trkpt>
<trkpt lat="-27.274439" lon="151.290064">
  <ele>343.1</ele>
  <time>2026-09-01T19:57:17Z</time>
  <course>270.0</course>
  <speed>0.0</speed>
  <fix>3d</fix>
</trkpt>
<trkpt lat="-27.274439" lon="151.290064">
  <ele>342.83</ele>
  <time>2026-09-01T19:57:17Z</time>
  <course>11.16</course>
  <speed>0.0</speed>
  <fix>3d</fix>
</trkpt>
<trkpt lat="-27.274439" lon="151.290064">
  <ele>343.1</ele>
  <time>2026-09-01T19:57:17Z</time>
  <course>270.0</course>
  <speed>0.0</speed>
  <fix>3d</fix>
</trkpt>
<trkpt lat="-27.274439" lon="151.290064">
  <ele>342.87</ele>
  <time>2026-09-01T19:57:17Z</time>
  <course>11.15</course>
  <speed>0.0</speed>
  <fix>3d</fix>
</trkpt>
<trkpt lat="-27.274439" lon="151.290064">
  <ele>343.1</ele>
  <time>2026-09-01T19:57:17Z</time>
  <course>270.0</course>
  <speed>0.0</speed>
  <fix>3d</fix>
</trkpt>
<trkpt lat="-27.274439" lon="151.290064">
  <ele>342.76</ele>
  <time>2026-09-01T19:57:17Z</time>
  <course>11.15</course>
  <speed>0.0</speed>
  <fix>3d</fix>
</trkpt>
<trkpt lat="-27.274439" lon="151.290064">
  <ele>343.1</ele>
  <time>2026-09-01T19:57:17Z</time>
  <course>270.0</course>
  <speed>0.0</speed>
  <fix>3d</fix>
</trkpt>
<trkpt lat="-27.274439" lon="151.290064">
  <ele>343.01</ele>
  <time>2026-09-01T19:57:17Z</time>
  <course>11.14</course>
  <speed>0.0</speed>
  <fix>3d</fix>
</trkpt>
<trkpt lat="-27.274439" lon="151.290064">
  <ele>343.1</ele>
  <time>2026-09-01T19:57:17Z</time>
  <course>270.0</course>
  <speed>0.0</speed>
  <fix>3d</fix>
</trkpt>
<trkpt lat="-27.274439" lon="151.290064">
  <ele>343.08</ele>
  <time>2026-09-01T19:57:17Z</time>
  <course>11.14</course>
  <speed>0.0</speed>
  <fix>3d</fix>
</trkpt>
<trkpt lat="-27.274439" lon="151.290064">
  <ele>343.1</ele>
  <time>2026-09-01T19:57:17Z</time>
  <course>270.0</course>
  <speed>0.0</speed>
  <fix>3d</fix>
</trkpt>
<trkpt lat="-27.274439" lon="151.290064">
  <ele>342.82</ele>
  <time>2026-09-01T19:57:17Z</time>
  <course>11.14</course>
  <speed>0.0</speed>
  <fix>3d</fix>
</trkpt>
<trkpt lat="-27.274439" lon="151.290064">
  <ele>343.1</ele>
  <time>2026-09-01T19:57:17Z</time>
  <course>270.0</course>
  <speed>0.0</speed>
  <fix>3d</fix>
</trkpt>
<trkpt lat="-27.274439" lon="151.290064">
  <ele>343.12</ele>
  <time>2026-09-01T19:57:17Z</time>
  <course>11.13</course>
  <speed>0.0</speed>
  <fix>3d</fix>
</trkpt>
<trkpt lat="-27.274439" lon="151.290064">
  <ele>343.1</ele>
  <time>2026-09-01T19:57:17Z</time>
  <course>270.0</course>
  <speed>0.0</speed>
  <fix>3d</fix>
</trkpt>
<trkpt lat="-27.274439" lon="151.290064">
  <ele>342.85</ele>
  <time>2026-09-01T19:57:17Z</time>
  <course>11.13</course>
  <speed>0.0</speed>
  <fix>3d</fix>
</trkpt>
<trkpt lat="-27.274439" lon="151.290064">
  <ele>343.1</ele>
  <time>2026-09-01T19:57:17Z</time>
  <course>270.0</course>
  <speed>0.0</speed>
  <fix>3d</fix>
</trkpt>
<trkpt lat="-27.274439" lon="151.290064">
  <ele>343.01</ele>
  <time>2026-09-01T19:57:17Z</time>
  <course>11.12</course>
  <speed>0.0</speed>
  <fix>3d</fix>
</trkpt>
<trkpt lat="-27.274439" lon="151.290064">
  <ele>343.1</ele>
  <time>2026-09-01T19:57:17Z</time>
  <course>270.0</course>
  <speed>0.0</speed>
  <fix>3d</fix>
</trkpt>
<trkpt lat="-27.274439" lon="151.290064">
  <ele>343.01</ele>
  <time>2026-09-01T19:57:17Z</time>
  <course>11.12</course>
  <speed>0.0</speed>
  <fix>3d</fix>
</trkpt>
<trkpt lat="-27.274439" lon="151.290064">
  <ele>343.1</ele>
  <time>2026-09-01T19:57:17Z</time>
  <course>270.0</course>
  <speed>0.0</speed>
  <fix>3d</fix>
</trkpt>
<trkpt lat="-27.274439" lon="151.290064">
  <ele>342.82</ele>
  <time>2026-09-01T19:57:17Z</time>
  <course>11.12</course>
  <speed>0.0</speed>
  <fix>3d</fix>
</trkpt>
<trkpt lat="-27.274439" lon="151.290064">
  <ele>343.1</ele>
  <time>2026-09-01T19:57:17Z</time>
  <course>270.0</course>
  <speed>0.0</speed>
  <fix>3d</fix>
</trkpt>
<trkpt lat="-27.274439" lon="151.290064">
  <ele>343.05</ele>
  <time>2026-09-01T19:57:17Z</time>
  <course>11.11</course>
  <speed>0.0</speed>
  <fix>3d</fix>
</trkpt>
<trkpt lat="-27.274439" lon="151.290064">
  <ele>343.1</ele>
  <time>2026-09-01T19:57:17Z</time>
  <course>270.0</course>
  <speed>0.0</speed>
  <fix>3d</fix>
</trkpt>
<trkpt lat="-27.274439" lon="151.290064">
  <ele>342.9</ele>
  <time>2026-09-01T19:57:17Z</time>
  <course>11.11</course>
  <speed>0.0</speed>
  <fix>3d</fix>
</trkpt>
<trkpt lat="-27.274439" lon="151.290064">
  <ele>343.1</ele>
  <time>2026-09-01T19:57:17Z</time>
  <course>270.0</course>
  <speed>0.0</speed>
  <fix>3d</fix>
</trkpt>
<trkpt lat="-27.274439" lon="151.290064">
  <ele>342.98</ele>
  <time>2026-09-01T19:57:17Z</time>
  <course>11.11</course>
  <speed>0.0</speed>
  <fix>3d</fix>
</trkpt>
<trkpt lat="-27.274439" lon="151.290064">
  <ele>343.1</ele>
  <time>2026-09-01T19:57:17Z</time>
  <course>270.0</course>
  <speed>0.0</speed>
  <fix>3d</fix>
</trkpt>
<trkpt lat="-27.274439" lon="151.290064">
  <ele>342.84</ele>
  <time>2026-09-01T19:57:17Z</time>
  <course>11.1</course>
  <speed>0.0</speed>
  <fix>3d</fix>
</trkpt>
<trkpt lat="-27.274439" lon="151.290064">
  <ele>343.1</ele>
  <time>2026-09-01T19:57:17Z</time>
  <course>270.0</course>
  <speed>0.0</speed>
  <fix>3d</fix>
</trkpt>
<trkpt lat="-27.274439" lon="151.290064">
  <ele>343.0</ele>
  <time>2026-09-01T19:57:17Z</time>
  <course>11.1</course>
  <speed>0.0</speed>
  <fix>3d</fix>
</trkpt>
<trkpt lat="-27.274439" lon="151.290064">
  <ele>343.1</ele>
  <time>2026-09-01T19:57:17Z</time>
  <course>270.0</course>
  <speed>0.0</speed>
  <fix>3d</fix>
</trkpt>
<trkpt lat="-27.274439" lon="151.290064">
  <ele>343.0</ele>
  <time>2026-09-01T19:57:17Z</time>
  <course>11.1</course>
  <speed>0.0</speed>
  <fix>3d</fix>
</trkpt>
<trkpt lat="-27.274439" lon="151.290064">
  <ele>343.1</ele>
  <time>2026-09-01T19:57:17Z</time>
  <course>270.0</course>
  <speed>0.0</speed>
  <fix>3d</fix>
</trkpt>
<trkpt lat="-27.274439" lon="151.290064">
  <ele>342.78</ele>
  <time>2026-09-01T19:57:17Z</time>
  <course>11.09</course>
  <speed>0.0</speed>
  <fix>3d</fix>
</trkpt>
<trkpt lat="-27.274439" lon="151.290064">
  <ele>343.1</ele>
  <time>2026-09-01T19:57:17Z</time>
  <course>270.0</course>
  <speed>0.0</speed>
  <fix>3d</fix>
</trkpt>
<trkpt lat="-27.274439" lon="151.290064">
  <ele>343.06</ele>
  <time>2026-09-01T19:57:17Z</time>
  <course>11.09</course>
  <speed>0.0</speed>
  <fix>3d</fix>
</trkpt>
<trkpt lat="-27.274439" lon="151.290064">
  <ele>343.1</ele>
  <time>2026-09-01T19:57:17Z</time>
  <course>270.0</course>
  <speed>0.0</speed>
  <fix>3d</fix>
</trkpt>
<trkpt lat="-27.274439" lon="151.290064">
  <ele>343.03</ele>
  <time>2026-09-01T19:57:17Z</time>
  <course>11.09</course>
  <speed>0.0</speed>
  <fix>3d</fix>
</trkpt>
<trkpt lat="-27.274439" lon="151.290064">
  <ele>343.1</ele>
  <time>2026-09-01T19:57:17Z</time>
  <course>270.0</course>
  <speed>0.0</speed>
  <fix>3d</fix>
</trkpt>
<trkpt lat="-27.274439" lon="151.290064">
  <ele>343.15</ele>
  <time>2026-09-01T19:57:17Z</time>
  <course>11.08</course>
  <speed>0.0</speed>
  <fix>3d</fix>
</trkpt>
<trkpt lat="-27.274439" lon="151.290064">
  <ele>343.1</ele>
  <time>2026-09-01T19:57:17Z</time>
  <course>270.0</course>
  <speed>0.0</speed>
  <fix>3d</fix>
</trkpt>
<trkpt lat="-27.274439" lon="151.290064">
  <ele>342.95</ele>
  <time>2026-09-01T19:57:17Z</time>
  <course>11.08</course>
  <speed>0.0</speed>
  <fix>3d</fix>
</trkpt>
<trkpt lat="-27.274439" lon="151.290064">
  <ele>343.1</ele>
  <time>2026-09-01T19:57:17Z</time>
  <course>270.0</course>
  <speed>0.0</speed>
  <fix>3d</fix>
</trkpt>
<trkpt lat="-27.274439" lon="151.290064">
  <ele>343.03</ele>
  <time>2026-09-01T19:57:17Z</time>
  <course>11.08</course>
  <speed>0.0</speed>
  <fix>3d</fix>
</trkpt>
<trkpt lat="-27.274439" lon="151.290064">
  <ele>343.1</ele>
  <time>2026-09-01T19:57:17Z</time>
  <course>270.0</course>
  <speed>0.0</speed>
  <fix>3d</fix>
</trkpt>
<trkpt lat="-27.274439" lon="151.290064">
  <ele>343.12</ele>
  <time>2026-09-01T19:57:17Z</time>
  <course>11.07</course>
  <speed>0.0</speed>
  <fix>3d</fix>
</trkpt>
<trkpt lat="-27.274439" lon="151.290064">
  <ele>343.1</ele>
  <time>2026-09-01T19:57:17Z</time>
  <course>270.0</course>
  <speed>0.0</speed>
  <fix>3d</fix>
</trkpt>
<trkpt lat="-27.274439" lon="151.290064">
  <ele>343.16</ele>
  <time>2026-09-01T19:57:17Z</time>
  <course>11.07</course>
  <speed>0.0</speed>
  <fix>3d</fix>
</trkpt>
<trkpt lat="-27.274439" lon="151.290064">
  <ele>343.1</ele>
  <time>2026-09-01T19:57:17Z</time>
  <course>270.0</course>
  <speed>0.0</speed>
  <fix>3d</fix>
</trkpt>
<trkpt lat="-27.274439" lon="151.290064">
  <ele>342.97</ele>
  <time>2026-09-01T19:57:17Z</time>
  <course>11.07</course>
  <speed>0.0</speed>
  <fix>3d</fix>
</trkpt>
<trkpt lat="-27.274439" lon="151.290064">
  <ele>343.1</ele>
  <time>2026-09-01T19:57:17Z</time>
  <course>270.0</course>
  <speed>0.0</speed>
  <fix>3d</fix>
</trkpt>
<trkpt lat="-27.274439" lon="151.290064">
  <ele>343.14</ele>
  <time>2026-09-01T19:57:17Z</time>
  <course>11.06</course>
  <speed>0.0</speed>
  <fix>3d</fix>
</trkpt>
<trkpt lat="-27.274439" lon="151.290064">
  <ele>343.1</ele>
  <time>2026-09-01T19:57:17Z</time>
  <course>270.0</course>
  <speed>0.0</speed>
  <fix>3d</fix>
</trkpt>
<trkpt lat="-27.274439" lon="151.290064">
  <ele>342.86</ele>
  <time>2026-09-01T19:57:17Z</time>
  <course>11.06</course>
  <speed>0.0</speed>
  <fix>3d</fix>
</trkpt>
<trkpt lat="-27.274439" lon="151.290064">
  <ele>343.1</ele>
  <time>2026-09-01T19:57:17Z</time>
  <course>270.0</course>
  <speed>0.0</speed>
  <fix>3d</fix>
</trkpt>
<trkpt lat="-27.274439" lon="151.290064">
  <ele>342.92</ele>
  <time>2026-09-01T19:57:17Z</time>
  <course>11.06</course>
  <speed>0.0</speed>
  <fix>3d</fix>
</trkpt>
<trkpt lat="-27.274439" lon="151.290064">
  <ele>343.1</ele>
  <time>2026-09-01T19:57:17Z</time>
  <course>270.0</course>
  <speed>0.0</speed>
  <fix>3d</fix>
</trkpt>
<trkpt lat="-27.274439" lon="151.290064">
  <ele>343.12</ele>
  <time>2026-09-01T19:57:17Z</time>
  <course>11.05</course>
  <speed>0.0</speed>
  <fix>3d</fix>
</trkpt>
<trkpt lat="-27.274439" lon="151.290064">
  <ele>343.1</ele>
  <time>2026-09-01T19:57:17Z</time>
  <course>270.0</course>
  <speed>0.0</speed>
  <fix>3d</fix>
</trkpt>
<trkpt lat="-27.274439" lon="151.290064">
  <ele>343.03</ele>
  <time>2026-09-01T19:57:17Z</time>
  <course>11.05</course>
  <speed>0.0</speed>
  <fix>3d</fix>
</trkpt>
<trkpt lat="-27.274439" lon="151.290064">
  <ele>343.1</ele>
  <time>2026-09-01T19:57:17Z</time>
  <course>270.0</course>
  <speed>0.0</speed>
  <fix>3d</fix>
</trkpt>
<trkpt lat="-27.274439" lon="151.290064">
  <ele>343.07</ele>
  <time>2026-09-01T19:57:17Z</time>
  <course>11.05</course>
  <speed>0.0</speed>
  <fix>3d</fix>
</trkpt>
<trkpt lat="-27.274439" lon="151.290064">
  <ele>343.1</ele>
  <time>2026-09-01T19:57:17Z</time>
  <course>270.0</course>
  <speed>0.0</speed>
  <fix>3d</fix>
</trkpt>
<trkpt lat="-27.274439" lon="151.290064">
  <ele>343.03</ele>
  <time>2026-09-01T19:57:17Z</time>
  <course>11.05</course>
  <speed>0.0</speed>
  <fix>3d</fix>
</trkpt>
<trkpt lat="-27.274439" lon="151.290064">
  <ele>343.1</ele>
  <time>2026-09-01T19:57:17Z</time>
  <course>270.0</course>
  <speed>0.0</speed>
  <fix>3d</fix>
</trkpt>
<trkpt lat="-27.274439" lon="151.290064">
  <ele>342.88</ele>
  <time>2026-09-01T19:57:17Z</time>
  <course>11.04</course>
  <speed>0.0</speed>
  <fix>3d</fix>
</trkpt>
<trkpt lat="-27.274439" lon="151.290064">
  <ele>343.1</ele>
  <time>2026-09-01T19:57:17Z</time>
  <course>270.0</course>
  <speed>0.0</speed>
  <fix>3d</fix>
</trkpt>
<trkpt lat="-27.274439" lon="151.290064">
  <ele>343.0</ele>
  <time>2026-09-01T19:57:17Z</time>
  <course>11.04</course>
  <speed>0.0</speed>
  <fix>3d</fix>
</trkpt>
<trkpt lat="-27.274439" lon="151.290064">
  <ele>343.1</ele>
  <time>2026-09-01T19:57:17Z</time>
  <course>270.0</course>
  <speed>0.0</speed>
  <fix>3d</fix>
</trkpt>
<trkpt lat="-27.274439" lon="151.290064">
  <ele>343.1</ele>
  <time>2026-09-01T19:57:17Z</time>
  <course>11.04</course>
  <speed>0.0</speed>
  <fix>3d</fix>
</trkpt>
<trkpt lat="-27.274439" lon="151.290064">
  <ele>343.1</ele>
  <time>2026-09-01T19:57:17Z</time>
  <course>270.0</course>
  <speed>0.0</speed>
  <fix>3d</fix>
</trkpt>
<trkpt lat="-27.274439" lon="151.290064">
  <ele>343.04</ele>
  <time>2026-09-01T19:57:17Z</time>
  <course>11.04</course>
  <speed>0.0</speed>
  <fix>3d</fix>
</trkpt>
<trkpt lat="-27.274439" lon="151.290064">
  <ele>343.1</ele>
  <time>2026-09-01T19:57:17Z</time>
  <course>270.0</course>
  <speed>0.0</speed>
  <fix>3d</fix>
</trkpt>
<trkpt lat="-27.274439" lon="151.290064">
  <ele>343.22</ele>
  <time>2026-09-01T19:57:17Z</time>
  <course>11.03</course>
  <speed>0.0</speed>
  <fix>3d</fix>
</trkpt>
<trkpt lat="-27.274439" lon="151.290064">
  <ele>343.1</ele>
  <time>2026-09-01T19:57:17Z</time>
  <course>270.0</course>
  <speed>0.0</speed>
  <fix>3d</fix>
</trkpt>
<trkpt lat="-27.274439" lon="151.290064">
  <ele>343.05</ele>
  <time>2026-09-01T19:57:17Z</time>
  <course>11.03</course>
  <speed>0.0</speed>
  <fix>3d</fix>
</trkpt>
<trkpt lat="-27.274439" lon="151.290064">
  <ele>343.1</ele>
  <time>2026-09-01T19:57:17Z</time>
  <course>270.0</course>
  <speed>0.0</speed>
  <fix>3d</fix>
</trkpt>
<trkpt lat="-27.274439" lon="151.290064">
  <ele>343.07</ele>
  <time>2026-09-01T19:57:17Z</time>
  <course>11.03</course>
  <speed>0.0</speed>
  <fix>3d</fix>
</trkpt>
<trkpt lat="-27.274439" lon="151.290064">
  <ele>343.1</ele>
  <time>2026-09-01T19:57:17Z</time>
  <course>270.0</course>
  <speed>0.0</speed>
  <fix>3d</fix>
</trkpt>
<trkpt lat="-27.274439" lon="151.290064">
  <ele>343.08</ele>
  <time>2026-09-01T19:57:17Z</time>
  <course>11.03</course>
  <speed>0.0</speed>
  <fix>3d</fix>
</trkpt>
<trkpt lat="-27.274439" lon="151.290064">
  <ele>343.1</ele>
  <time>2026-09-01T19:57:17Z</time>
  <course>270.0</course>
  <speed>0.0</speed>
  <fix>3d</fix>
</trkpt>
<trkpt lat="-27.274439" lon="151.290064">
  <ele>342.89</ele>
  <time>2026-09-01T19:57:17Z</time>
  <course>11.02</course>
  <speed>0.0</speed>
  <fix>3d</fix>
</trkpt>
<trkpt lat="-27.274439" lon="151.290064">
  <ele>343.1</ele>
  <time>2026-09-01T19:57:17Z</time>
  <course>270.0</course>
  <speed>0.0</speed>
  <fix>3d</fix>
</trkpt>
<trkpt lat="-27.274439" lon="151.290064">
  <ele>342.99</ele>
  <time>2026-09-01T19:57:17Z</time>
  <course>11.02</course>
  <speed>0.0</speed>
  <fix>3d</fix>
</trkpt>
<trkpt lat="-27.274439" lon="151.290064">
  <ele>343.1</ele>
  <time>2026-09-01T19:57:17Z</time>
  <course>270.0</course>
  <speed>0.0</speed>
  <fix>3d</fix>
</trkpt>
<trkpt lat="-27.274439" lon="151.290064">
  <ele>342.89</ele>
  <time>2026-09-01T19:57:17Z</time>
  <course>11.02</course>
  <speed>0.0</speed>
  <fix>3d</fix>
</trkpt>
<trkpt lat="-27.274439" lon="151.290064">
  <ele>343.1</ele>
  <time>2026-09-01T19:57:17Z</time>
  <course>270.0</course>
  <speed>0.0</speed>
  <fix>3d</fix>
</trkpt>
<trkpt lat="-27.274439" lon="151.290064">
  <ele>343.19</ele>
  <time>2026-09-01T19:57:17Z</time>
  <course>11.02</course>
  <speed>0.0</speed>
  <fix>3d</fix>
</trkpt>
<trkpt lat="-27.274439" lon="151.290064">
  <ele>343.1</ele>
  <time>2026-09-01T19:57:17Z</time>
  <course>270.0</course>
  <speed>0.0</speed>
  <fix>3d</fix>
</trkpt>
<trkpt lat="-27.274439" lon="151.290064">
  <ele>343.02</ele>
  <time>2026-09-01T19:57:17Z</time>
  <course>11.01</course>
  <speed>0.0</speed>
  <fix>3d</fix>
</trkpt>
<trkpt lat="-27.274439" lon="151.290064">
  <ele>343.1</ele>
  <time>2026-09-01T19:57:17Z</time>
  <course>270.0</course>
  <speed>0.0</speed>
  <fix>3d</fix>
</trkpt>
<trkpt lat="-27.274439" lon="151.290064">
  <ele>343.2</ele>
  <time>2026-09-01T19:57:17Z</time>
  <course>11.01</course>
  <speed>0.0</speed>
  <fix>3d</fix>
</trkpt>
<trkpt lat="-27.274439" lon="151.290064">
  <ele>343.1</ele>
  <time>2026-09-01T19:57:17Z</time>
  <course>270.0</course>
  <speed>0.0</speed>
  <fix>3d</fix>
</trkpt>
<trkpt lat="-27.274439" lon="151.290064">
  <ele>343.22</ele>
  <time>2026-09-01T19:57:17Z</time>
  <course>11.01</course>
  <speed>0.0</speed>
  <fix>3d</fix>
</trkpt>
<trkpt lat="-27.274439" lon="151.290064">
  <ele>343.1</ele>
  <time>2026-09-01T19:57:17Z</time>
  <course>270.0</course>
  <speed>0.0</speed>
  <fix>3d</fix>
</trkpt>
<trkpt lat="-27.274439" lon="151.290064">
  <ele>343.04</ele>
  <time>2026-09-01T19:57:17Z</time>
  <course>11.01</course>
  <speed>0.0</speed>
  <fix>3d</fix>
</trkpt>
<trkpt lat="-27.274439" lon="151.290064">
  <ele>343.1</ele>
  <time>2026-09-01T19:57:17Z</time>
  <course>270.0</course>
  <speed>0.0</speed>
  <fix>3d</fix>
</trkpt>
<trkpt lat="-27.274439" lon="151.290064">
  <ele>343.14</ele>
  <time>2026-09-01T19:57:17Z</time>
  <course>11.0</course>
  <speed>0.0</speed>
  <fix>3d</fix>
</trkpt>
<trkpt lat="-27.274439" lon="151.290064">
  <ele>343.1</ele>
  <time>2026-09-01T19:57:17Z</time>
  <course>270.0</course>
  <speed>0.0</speed>
  <fix>3d</fix>
</trkpt>
<trkpt lat="-27.274439" lon="151.290064">
  <ele>342.98</ele>
  <time>2026-09-01T19:57:17Z</time>
  <course>11.0</course>
  <speed>0.0</speed>
  <fix>3d</fix>
</trkpt>
<trkpt lat="-27.274439" lon="151.290064">
  <ele>343.1</ele>
  <time>2026-09-01T19:57:17Z</time>
  <course>270.0</course>
  <speed>0.0</speed>
  <fix>3d</fix>
</trkpt>
<trkpt lat="-27.274439" lon="151.290064">
  <ele>342.95</ele>
  <time>2026-09-01T19:57:17Z</time>
  <course>11.0</course>
  <speed>0.0</speed>
  <fix>3d</fix>
</trkpt>
<trkpt lat="-27.274439" lon="151.290064">
  <ele>343.1</ele>
  <time>2026-09-01T19:57:17Z</time>
  <course>270.0</course>
  <speed>0.0</speed>
  <fix>3d</fix>
</trkpt>
<trkpt lat="-27.274439" lon="151.290064">
  <ele>343.13</ele>
  <time>2026-09-01T19:57:17Z</time>
  <course>11.0</course>
  <speed>0.0</speed>
  <fix>3d</fix>
</trkpt>
<trkpt lat="-27.274439" lon="151.290064">
  <ele>343.1</ele>
  <time>2026-09-01T19:57:17Z</time>
  <course>270.0</course>
  <speed>0.0</speed>
  <fix>3d</fix>
</trkpt>
<trkpt lat="-27.274439" lon="151.290064">
  <ele>342.97</ele>
  <time>2026-09-01T19:57:17Z</time>
  <course>10.99</course>
  <speed>0.0</speed>
  <fix>3d</fix>
</trkpt>
<trkpt lat="-27.274439" lon="151.290064">
  <ele>343.1</ele>
  <time>2026-09-01T19:57:17Z</time>
  <course>270.0</course>
  <speed>0.0</speed>
  <fix>3d</fix>
</trkpt>
<trkpt lat="-27.274439" lon="151.290064">
  <ele>342.98</ele>
  <time>2026-09-01T19:57:17Z</time>
  <course>10.99</course>
  <speed>0.0</speed>
  <fix>3d</fix>
</trkpt>
<trkpt lat="-27.274439" lon="151.290064">
  <ele>343.1</ele>
  <time>2026-09-01T19:57:17Z</time>
  <course>270.0</course>
  <speed>0.0</speed>
  <fix>3d</fix>
</trkpt>
<trkpt lat="-27.274439" lon="151.290064">
  <ele>343.1</ele>
  <time>2026-09-01T19:57:17Z</time>
  <course>10.99</course>
  <speed>0.0</speed>
  <fix>3d</fix>
</trkpt>
<trkpt lat="-27.274439" lon="151.290064">
  <ele>343.1</ele>
  <time>2026-09-01T19:57:17Z</time>
  <course>270.0</course>
  <speed>0.0</speed>
  <fix>3d</fix>
</trkpt>
<trkpt lat="-27.274439" lon="151.290064">
  <ele>342.83</ele>
  <time>2026-09-01T19:57:17Z</time>
  <course>10.98</course>
  <speed>0.0</speed>
  <fix>3d</fix>
</trkpt>
<trkpt lat="-27.274439" lon="151.290064">
  <ele>343.1</ele>
  <time>2026-09-01T19:57:17Z</time>
  <course>270.0</course>
  <speed>0.0</speed>
  <fix>3d</fix>
</trkpt>
<trkpt lat="-27.274439" lon="151.290064">
  <ele>342.9</ele>
  <time>2026-09-01T19:57:17Z</time>
  <course>10.98</course>
  <speed>0.0</speed>
  <fix>3d</fix>
</trkpt>
<trkpt lat="-27.274439" lon="151.290064">
  <ele>343.1</ele>
  <time>2026-09-01T19:57:17Z</time>
  <course>270.0</course>
  <speed>0.0</speed>
  <fix>3d</fix>
</trkpt>
<trkpt lat="-27.274439" lon="151.290064">
  <ele>342.92</ele>
  <time>2026-09-01T19:57:17Z</time>
  <course>10.97</course>
  <speed>0.0</speed>
  <fix>3d</fix>
</trkpt>
<trkpt lat="-27.274439" lon="151.290064">
  <ele>343.1</ele>
  <time>2026-09-01T19:57:17Z</time>
  <course>270.0</course>
  <speed>0.0</speed>
  <fix>3d</fix>
</trkpt>
<trkpt lat="-27.274439" lon="151.290064">
  <ele>342.88</ele>
  <time>2026-09-01T19:57:17Z</time>
  <course>10.97</course>
  <speed>0.0</speed>
  <fix>3d</fix>
</trkpt>
<trkpt lat="-27.274439" lon="151.290064">
  <ele>343.1</ele>
  <time>2026-09-01T19:57:17Z</time>
  <course>270.0</course>
  <speed>0.0</speed>
  <fix>3d</fix>
</trkpt>
<trkpt lat="-27.274439" lon="151.290064">
  <ele>342.89</ele>
  <time>2026-09-01T19:57:17Z</time>
  <course>10.96</course>
  <speed>0.0</speed>
  <fix>3d</fix>
</trkpt>
<trkpt lat="-27.274439" lon="151.290064">
  <ele>343.1</ele>
  <time>2026-09-01T19:57:17Z</time>
  <course>270.0</course>
  <speed>0.0</speed>
  <fix>3d</fix>
</trkpt>
<trkpt lat="-27.274439" lon="151.290064">
  <ele>343.05</ele>
  <time>2026-09-01T19:57:17Z</time>
  <course>10.96</course>
  <speed>0.0</speed>
  <fix>3d</fix>
</trkpt>
<trkpt lat="-27.274439" lon="151.290064">
  <ele>343.1</ele>
  <time>2026-09-01T19:57:17Z</time>
  <course>270.0</course>
  <speed>0.0</speed>
  <fix>3d</fix>
</trkpt>
<trkpt lat="-27.274439" lon="151.290064">
  <ele>343.06</ele>
  <time>2026-09-01T19:57:17Z</time>
  <course>10.96</course>
  <speed>0.0</speed>
  <fix>3d</fix>
</trkpt>
<trkpt lat="-27.274439" lon="151.290064">
  <ele>343.1</ele>
  <time>2026-09-01T19:57:17Z</time>
  <course>270.0</course>
  <speed>0.0</speed>
  <fix>3d</fix>
</trkpt>
<trkpt lat="-27.274439" lon="151.290064">
  <ele>343.18</ele>
  <time>2026-09-01T19:57:17Z</time>
  <course>10.95</course>
  <speed>0.0</speed>
  <fix>3d</fix>
</trkpt>
<trkpt lat="-27.274439" lon="151.290064">
  <ele>343.1</ele>
  <time>2026-09-01T19:57:17Z</time>
  <course>270.0</course>
  <speed>0.0</speed>
  <fix>3d</fix>
</trkpt>
<trkpt lat="-27.274439" lon="151.290064">
  <ele>342.98</ele>
  <time>2026-09-01T19:57:17Z</time>
  <course>10.95</course>
  <speed>0.0</speed>
  <fix>3d</fix>
</trkpt>
<trkpt lat="-27.274439" lon="151.290064">
  <ele>343.1</ele>
  <time>2026-09-01T19:57:17Z</time>
  <course>270.0</course>
  <speed>0.0</speed>
  <fix>3d</fix>
</trkpt>
<trkpt lat="-27.274439" lon="151.290064">
  <ele>343.05</ele>
  <time>2026-09-01T19:57:17Z</time>
  <course>10.94</course>
  <speed>0.0</speed>
  <fix>3d</fix>
</trkpt>
<trkpt lat="-27.274439" lon="151.290064">
  <ele>343.1</ele>
  <time>2026-09-01T19:57:17Z</time>
  <course>270.0</course>
  <speed>0.0</speed>
  <fix>3d</fix>
</trkpt>
<trkpt lat="-27.274439" lon="151.290064">
  <ele>343.02</ele>
  <time>2026-09-01T19:57:17Z</time>
  <course>10.94</course>
  <speed>0.0</speed>
  <fix>3d</fix>
</trkpt>
<trkpt lat="-27.274439" lon="151.290064">
  <ele>343.1</ele>
  <time>2026-09-01T19:57:17Z</time>
  <course>270.0</course>
  <speed>0.0</speed>
  <fix>3d</fix>
</trkpt>
<trkpt lat="-27.274439" lon="151.290064">
  <ele>343.12</ele>
  <time>2026-09-01T19:57:17Z</time>
  <course>10.94</course>
  <speed>0.0</speed>
  <fix>3d</fix>
</trkpt>
<trkpt lat="-27.274439" lon="151.290064">
  <ele>343.1</ele>
  <time>2026-09-01T19:57:17Z</time>
  <course>270.0</course>
  <speed>0.0</speed>
  <fix>3d</fix>
</trkpt>
<trkpt lat="-27.274439" lon="151.290064">
  <ele>343.0</ele>
  <time>2026-09-01T19:57:17Z</time>
  <course>10.93</course>
  <speed>0.0</speed>
  <fix>3d</fix>
</trkpt>
<trkpt lat="-27.274439" lon="151.290064">
  <ele>343.1</ele>
  <time>2026-09-01T19:57:17Z</time>
  <course>270.0</course>
  <speed>0.0</speed>
  <fix>3d</fix>
</trkpt>
<trkpt lat="-27.274439" lon="151.290064">
  <ele>342.9</ele>
  <time>2026-09-01T19:57:17Z</time>
  <course>10.93</course>
  <speed>0.0</speed>
  <fix>3d</fix>
</trkpt>
<trkpt lat="-27.274439" lon="151.290064">
  <ele>343.1</ele>
  <time>2026-09-01T19:57:17Z</time>
  <course>270.0</course>
  <speed>0.0</speed>
  <fix>3d</fix>
</trkpt>
<trkpt lat="-27.274439" lon="151.290064">
  <ele>342.85</ele>
  <time>2026-09-01T19:57:17Z</time>
  <course>10.93</course>
  <speed>0.0</speed>
  <fix>3d</fix>
</trkpt>
<trkpt lat="-27.274439" lon="151.290064">
  <ele>343.1</ele>
  <time>2026-09-01T19:57:17Z</time>
  <course>270.0</course>
  <speed>0.0</speed>
  <fix>3d</fix>
</trkpt>
<trkpt lat="-27.274439" lon="151.290064">
  <ele>343.1</ele>
  <time>2026-09-01T19:57:17Z</time>
  <course>10.92</course>
  <speed>0.0</speed>
  <fix>3d</fix>
</trkpt>
<trkpt lat="-27.274439" lon="151.290064">
  <ele>343.1</ele>
  <time>2026-09-01T19:57:17Z</time>
  <course>270.0</course>
  <speed>0.0</speed>
  <fix>3d</fix>
</trkpt>
<trkpt lat="-27.274439" lon="151.290064">
  <ele>342.96</ele>
  <time>2026-09-01T19:57:17Z</time>
  <course>10.92</course>
  <speed>0.0</speed>
  <fix>3d</fix>
</trkpt>
<trkpt lat="-27.274439" lon="151.290064">
  <ele>343.1</ele>
  <time>2026-09-01T19:57:17Z</time>
  <course>270.0</course>
  <speed>0.0</speed>
  <fix>3d</fix>
</trkpt>
<trkpt lat="-27.274439" lon="151.290064">
  <ele>343.02</ele>
  <time>2026-09-01T19:57:17Z</time>
  <course>10.92</course>
  <speed>0.0</speed>
  <fix>3d</fix>
</trkpt>
<trkpt lat="-27.274439" lon="151.290064">
  <ele>343.1</ele>
  <time>2026-09-01T19:57:17Z</time>
  <course>270.0</course>
  <speed>0.0</speed>
  <fix>3d</fix>
</trkpt>
<trkpt lat="-27.274439" lon="151.290064">
  <ele>342.99</ele>
  <time>2026-09-01T19:57:17Z</time>
  <course>10.91</course>
  <speed>0.0</speed>
  <fix>3d</fix>
</trkpt>
<trkpt lat="-27.274439" lon="151.290064">
  <ele>343.1</ele>
  <time>2026-09-01T19:57:17Z</time>
  <course>270.0</course>
  <speed>0.0</speed>
  <fix>3d</fix>
</trkpt>
<trkpt lat="-27.274439" lon="151.290064">
  <ele>343.2</ele>
  <time>2026-09-01T19:57:17Z</time>
  <course>10.91</course>
  <speed>0.0</speed>
  <fix>3d</fix>
</trkpt>
<trkpt lat="-27.274439" lon="151.290064">
  <ele>343.1</ele>
  <time>2026-09-01T19:57:17Z</time>
  <course>270.0</course>
  <speed>0.0</speed>
  <fix>3d</fix>
</trkpt>
<trkpt lat="-27.274439" lon="151.290064">
  <ele>343.09</ele>
  <time>2026-09-01T19:57:17Z</time>
  <course>10.91</course>
  <speed>0.0</speed>
  <fix>3d</fix>
</trkpt>
<trkpt lat="-27.274439" lon="151.290064">
  <ele>343.1</ele>
  <time>2026-09-01T19:57:17Z</time>
  <course>270.0</course>
  <speed>0.0</speed>
  <fix>3d</fix>
</trkpt>
<trkpt lat="-27.274439" lon="151.290064">
  <ele>343.12</ele>
  <time>2026-09-01T19:57:17Z</time>
  <course>10.9</course>
  <speed>0.0</speed>
  <fix>3d</fix>
</trkpt>
<trkpt lat="-27.274439" lon="151.290064">
  <ele>343.1</ele>
  <time>2026-09-01T19:57:17Z</time>
  <course>270.0</course>
  <speed>0.0</speed>
  <fix>3d</fix>
</trkpt>
<trkpt lat="-27.274439" lon="151.290064">
  <ele>343.19</ele>
  <time>2026-09-01T19:57:17Z</time>
  <course>10.9</course>
  <speed>0.0</speed>
  <fix>3d</fix>
</trkpt>
<trkpt lat="-27.274439" lon="151.290064">
  <ele>343.1</ele>
  <time>2026-09-01T19:57:17Z</time>
  <course>270.0</course>
  <speed>0.0</speed>
  <fix>3d</fix>
</trkpt>
<trkpt lat="-27.274439" lon="151.290064">
  <ele>343.14</ele>
  <time>2026-09-01T19:57:17Z</time>
  <course>10.9</course>
  <speed>0.0</speed>
  <fix>3d</fix>
</trkpt>
<trkpt lat="-27.274439" lon="151.290064">
  <ele>343.1</ele>
  <time>2026-09-01T19:57:17Z</time>
  <course>270.0</course>
  <speed>0.0</speed>
  <fix>3d</fix>
</trkpt>
<trkpt lat="-27.274439" lon="151.290064">
  <ele>342.91</ele>
  <time>2026-09-01T19:57:17Z</time>
  <course>10.89</course>
  <speed>0.0</speed>
  <fix>3d</fix>
</trkpt>
<trkpt lat="-27.274439" lon="151.290064">
  <ele>343.1</ele>
  <time>2026-09-01T19:57:17Z</time>
  <course>270.0</course>
  <speed>0.0</speed>
  <fix>3d</fix>
</trkpt>
<trkpt lat="-27.274439" lon="151.290064">
  <ele>342.99</ele>
  <time>2026-09-01T19:57:17Z</time>
  <course>10.89</course>
  <speed>0.0</speed>
  <fix>3d</fix>
</trkpt>
<trkpt lat="-27.274439" lon="151.290064">
  <ele>343.1</ele>
  <time>2026-09-01T19:57:17Z</time>
  <course>270.0</course>
  <speed>0.0</speed>
  <fix>3d</fix>
</trkpt>
<trkpt lat="-27.274439" lon="151.290064">
  <ele>342.97</ele>
  <time>2026-09-01T19:57:17Z</time>
  <course>10.89</course>
  <speed>0.0</speed>
  <fix>3d</fix>
</trkpt>
<trkpt lat="-27.274439" lon="151.290064">
  <ele>343.1</ele>
  <time>2026-09-01T19:57:17Z</time>
  <course>270.0</course>
  <speed>0.0</speed>
  <fix>3d</fix>
</trkpt>
<trkpt lat="-27.274439" lon="151.290064">
  <ele>342.85</ele>
  <time>2026-09-01T19:57:17Z</time>
  <course>10.88</course>
  <speed>0.0</speed>
  <fix>3d</fix>
</trkpt>
<trkpt lat="-27.274439" lon="151.290064">
  <ele>343.1</ele>
  <time>2026-09-01T19:57:17Z</time>
  <course>270.0</course>
  <speed>0.0</speed>
  <fix>3d</fix>
</trkpt>
<trkpt lat="-27.274439" lon="151.290064">
  <ele>342.87</ele>
  <time>2026-09-01T19:57:17Z</time>
  <course>10.88</course>
  <speed>0.0</speed>
  <fix>3d</fix>
</trkpt>
<trkpt lat="-27.274439" lon="151.290064">
  <ele>343.1</ele>
  <time>2026-09-01T19:57:17Z</time>
  <course>270.0</course>
  <speed>0.0</speed>
  <fix>3d</fix>
</trkpt>
<trkpt lat="-27.274439" lon="151.290064">
  <ele>343.13</ele>
  <time>2026-09-01T19:57:17Z</time>
  <course>10.88</course>
  <speed>0.0</speed>
  <fix>3d</fix>
</trkpt>
<trkpt lat="-27.274439" lon="151.290064">
  <ele>343.1</ele>
  <time>2026-09-01T19:57:17Z</time>
  <course>270.0</course>
  <speed>0.0</speed>
  <fix>3d</fix>
</trkpt>
<trkpt lat="-27.274439" lon="151.290064">
  <ele>343.08</ele>
  <time>2026-09-01T19:57:17Z</time>
  <course>10.88</course>
  <speed>0.0</speed>
  <fix>3d</fix>
</trkpt>
<trkpt lat="-27.274439" lon="151.290064">
  <ele>343.1</ele>
  <time>2026-09-01T19:57:17Z</time>
  <course>270.0</course>
  <speed>0.0</speed>
  <fix>3d</fix>
</trkpt>
<trkpt lat="-27.274439" lon="151.290064">
  <ele>342.88</ele>
  <time>2026-09-01T19:57:17Z</time>
  <course>10.87</course>
  <speed>0.0</speed>
  <fix>3d</fix>
</trkpt>
<trkpt lat="-27.274439" lon="151.290064">
  <ele>343.1</ele>
  <time>2026-09-01T19:57:17Z</time>
  <course>270.0</course>
  <speed>0.0</speed>
  <fix>3d</fix>
</trkpt>
<trkpt lat="-27.274439" lon="151.290064">
  <ele>342.83</ele>
  <time>2026-09-01T19:57:17Z</time>
  <course>10.87</course>
  <speed>0.0</speed>
  <fix>3d</fix>
</trkpt>
<trkpt lat="-27.274439" lon="151.290064">
  <ele>343.1</ele>
  <time>2026-09-01T19:57:17Z</time>
  <course>270.0</course>
  <speed>0.0</speed>
  <fix>3d</fix>
</trkpt>
<trkpt lat="-27.274439" lon="151.290064">
  <ele>343.0</ele>
  <time>2026-09-01T19:57:17Z</time>
  <course>10.87</course>
  <speed>0.0</speed>
  <fix>3d</fix>
</trkpt>
<trkpt lat="-27.274439" lon="151.290064">
  <ele>343.1</ele>
  <time>2026-09-01T19:57:17Z</time>
  <course>270.0</course>
  <speed>0.0</speed>
  <fix>3d</fix>
</trkpt>
<trkpt lat="-27.274439" lon="151.290064">
  <ele>342.82</ele>
  <time>2026-09-01T19:57:17Z</time>
  <course>10.86</course>
  <speed>0.0</speed>
  <fix>3d</fix>
</trkpt>
<trkpt lat="-27.274439" lon="151.290064">
  <ele>343.1</ele>
  <time>2026-09-01T19:57:17Z</time>
  <course>270.0</course>
  <speed>0.0</speed>
  <fix>3d</fix>
</trkpt>
<trkpt lat="-27.274439" lon="151.290064">
  <ele>342.88</ele>
  <time>2026-09-01T19:57:17Z</time>
  <course>10.86</course>
  <speed>0.0</speed>
  <fix>3d</fix>
</trkpt>
<trkpt lat="-27.274439" lon="151.290064">
  <ele>343.1</ele>
  <time>2026-09-01T19:57:17Z</time>
  <course>270.0</course>
  <speed>0.0</speed>
  <fix>3d</fix>
</trkpt>
<trkpt lat="-27.274439" lon="151.290064">
  <ele>342.86</ele>
  <time>2026-09-01T19:57:17Z</time>
  <course>10.86</course>
  <speed>0.0</speed>
  <fix>3d</fix>
</trkpt>
<trkpt lat="-27.274439" lon="151.290064">
  <ele>343.1</ele>
  <time>2026-09-01T19:57:17Z</time>
  <course>270.0</course>
  <speed>0.0</speed>
  <fix>3d</fix>
</trkpt>
<trkpt lat="-27.274439" lon="151.290064">
  <ele>343.15</ele>
  <time>2026-09-01T19:57:18Z</time>
  <course>10.86</course>
  <speed>0.0</speed>
  <fix>3d</fix>
</trkpt>
<trkpt lat="-27.274439" lon="151.290064">
  <ele>343.1</ele>
  <time>2026-09-01T19:57:18Z</time>
  <course>270.0</course>
  <speed>0.0</speed>
  <fix>3d</fix>
</trkpt>
<trkpt lat="-27.274439" lon="151.290064">
  <ele>342.9</ele>
  <time>2026-09-01T19:57:18Z</time>
  <course>10.85</course>
  <speed>0.0</speed>
  <fix>3d</fix>
</trkpt>
<trkpt lat="-27.274439" lon="151.290064">
  <ele>343.1</ele>
  <time>2026-09-01T19:57:18Z</time>
  <course>270.0</course>
  <speed>0.0</speed>
  <fix>3d</fix>
</trkpt>
<trkpt lat="-27.274439" lon="151.290064">
  <ele>342.84</ele>
  <time>2026-09-01T19:57:18Z</time>
  <course>10.85</course>
  <speed>0.0</speed>
  <fix>3d</fix>
</trkpt>
<trkpt lat="-27.274439" lon="151.290064">
  <ele>343.1</ele>
  <time>2026-09-01T19:57:18Z</time>
  <course>270.0</course>
  <speed>0.0</speed>
  <fix>3d</fix>
</trkpt>
<trkpt lat="-27.274439" lon="151.290064">
  <ele>342.85</ele>
  <time>2026-09-01T19:57:18Z</time>
  <course>10.85</course>
  <speed>0.0</speed>
  <fix>3d</fix>
</trkpt>
<trkpt lat="-27.274439" lon="151.290064">
  <ele>343.1</ele>
  <time>2026-09-01T19:57:18Z</time>
  <course>270.0</course>
  <speed>0.0</speed>
  <fix>3d</fix>
</trkpt>
<trkpt lat="-27.274439" lon="151.290064">
  <ele>342.89</ele>
  <time>2026-09-01T19:57:18Z</time>
  <course>10.85</course>
  <speed>0.0</speed>
  <fix>3d</fix>
</trkpt>
<trkpt lat="-27.274439" lon="151.290064">
  <ele>343.1</ele>
  <time>2026-09-01T19:57:18Z</time>
  <course>270.0</course>
  <speed>0.0</speed>
  <fix>3d</fix>
</trkpt>
<trkpt lat="-27.274439" lon="151.290064">
  <ele>343.01</ele>
  <time>2026-09-01T19:57:18Z</time>
  <course>10.84</course>
  <speed>0.0</speed>
  <fix>3d</fix>
</trkpt>
<trkpt lat="-27.274439" lon="151.290064">
  <ele>343.1</ele>
  <time>2026-09-01T19:57:18Z</time>
  <course>270.0</course>
  <speed>0.0</speed>
  <fix>3d</fix>
</trkpt>
<trkpt lat="-27.274439" lon="151.290064">
  <ele>342.97</ele>
  <time>2026-09-01T19:57:18Z</time>
  <course>10.84</course>
  <speed>0.0</speed>
  <fix>3d</fix>
</trkpt>
<trkpt lat="-27.274439" lon="151.290064">
  <ele>343.1</ele>
  <time>2026-09-01T19:57:18Z</time>
  <course>270.0</course>
  <speed>0.0</speed>
  <fix>3d</fix>
</trkpt>
<trkpt lat="-27.274439" lon="151.290064">
  <ele>343.12</ele>
  <time>2026-09-01T19:57:18Z</time>
  <course>10.84</course>
  <speed>0.0</speed>
  <fix>3d</fix>
</trkpt>
<trkpt lat="-27.274439" lon="151.290064">
  <ele>343.1</ele>
  <time>2026-09-01T19:57:18Z</time>
  <course>270.0</course>
  <speed>0.0</speed>
  <fix>3d</fix>
</trkpt>
<trkpt lat="-27.274439" lon="151.290064">
  <ele>343.0</ele>
  <time>2026-09-01T19:57:18Z</time>
  <course>10.69</course>
  <speed>0.0</speed>
  <fix>3d</fix>
</trkpt>
<trkpt lat="-27.274439" lon="151.290064">
  <ele>343.1</ele>
  <time>2026-09-01T19:57:18Z</time>
  <course>270.0</course>
  <speed>0.0</speed>
  <fix>3d</fix>
</trkpt>
<trkpt lat="-27.274439" lon="151.290064">
  <ele>343.0</ele>
  <time>2026-09-01T19:57:18Z</time>
  <course>10.69</course>
  <speed>0.0</speed>
  <fix>3d</fix>
</trkpt>
<trkpt lat="-27.274439" lon="151.290064">
  <ele>343.1</ele>
  <time>2026-09-01T19:57:18Z</time>
  <course>270.0</course>
  <speed>0.0</speed>
  <fix>3d</fix>
</trkpt>
<trkpt lat="-27.274439" lon="151.290064">
  <ele>343.0</ele>
  <time>2026-09-01T19:57:18Z</time>
  <course>10.69</course>
  <speed>0.0</speed>
  <fix>3d</fix>
</trkpt>
<trkpt lat="-27.274439" lon="151.290064">
  <ele>343.1</ele>
  <time>2026-09-01T19:57:18Z</time>
  <course>270.0</course>
  <speed>0.0</speed>
  <fix>3d</fix>
</trkpt>
<trkpt lat="-27.274439" lon="151.290064">
  <ele>342.99</ele>
  <time>2026-09-01T19:57:18Z</time>
  <course>10.69</course>
  <speed>0.0</speed>
  <fix>3d</fix>
</trkpt>
<trkpt lat="-27.274439" lon="151.290064">
  <ele>343.1</ele>
  <time>2026-09-01T19:57:18Z</time>
  <course>270.0</course>
  <speed>0.0</speed>
  <fix>3d</fix>
</trkpt>
<trkpt lat="-27.274439" lon="151.290064">
  <ele>342.99</ele>
  <time>2026-09-01T19:57:18Z</time>
  <course>10.69</course>
  <speed>0.0</speed>
  <fix>3d</fix>
</trkpt>
<trkpt lat="-27.274439" lon="151.290064">
  <ele>343.1</ele>
  <time>2026-09-01T19:57:18Z</time>
  <course>270.0</course>
  <speed>0.0</speed>
  <fix>3d</fix>
</trkpt>
<trkpt lat="-27.274439" lon="151.290064">
  <ele>342.99</ele>
  <time>2026-09-01T19:57:18Z</time>
  <course>10.69</course>
  <speed>0.0</speed>
  <fix>3d</fix>
</trkpt>
<trkpt lat="-27.274439" lon="151.290064">
  <ele>343.1</ele>
  <time>2026-09-01T19:57:18Z</time>
  <course>270.0</course>
  <speed>0.0</speed>
  <fix>3d</fix>
</trkpt>
<trkpt lat="-27.274439" lon="151.290064">
  <ele>342.98</ele>
  <time>2026-09-01T19:57:18Z</time>
  <course>10.69</course>
  <speed>0.0</speed>
  <fix>3d</fix>
</trkpt>
<trkpt lat="-27.274439" lon="151.290064">
  <ele>343.1</ele>
  <time>2026-09-01T19:57:18Z</time>
  <course>270.0</course>
  <speed>0.0</speed>
  <fix>3d</fix>
</trkpt>
<trkpt lat="-27.274439" lon="151.290064">
  <ele>342.98</ele>
  <time>2026-09-01T19:57:18Z</time>
  <course>10.69</course>
  <speed>0.0</speed>
  <fix>3d</fix>
</trkpt>
<trkpt lat="-27.274439" lon="151.290064">
  <ele>343.1</ele>
  <time>2026-09-01T19:57:18Z</time>
  <course>270.0</course>
  <speed>0.0</speed>
  <fix>3d</fix>
</trkpt>
<trkpt lat="-27.274439" lon="151.290064">
  <ele>342.97</ele>
  <time>2026-09-01T19:57:18Z</time>
  <course>10.69</course>
  <speed>0.0</speed>
  <fix>3d</fix>
</trkpt>
<trkpt lat="-27.274439" lon="151.290064">
  <ele>343.1</ele>
  <time>2026-09-01T19:57:18Z</time>
  <course>270.0</course>
  <speed>0.0</speed>
  <fix>3d</fix>
</trkpt>
<trkpt lat="-27.274439" lon="151.290064">
  <ele>342.97</ele>
  <time>2026-09-01T19:57:18Z</time>
  <course>10.69</course>
  <speed>0.0</speed>
  <fix>3d</fix>
</trkpt>
<trkpt lat="-27.274439" lon="151.290064">
  <ele>343.1</ele>
  <time>2026-09-01T19:57:18Z</time>
  <course>270.0</course>
  <speed>0.0</speed>
  <fix>3d</fix>
</trkpt>
<trkpt lat="-27.274439" lon="151.290064">
  <ele>342.97</ele>
  <time>2026-09-01T19:57:18Z</time>
  <course>10.69</course>
  <speed>0.01</speed>
  <fix>3d</fix>
</trkpt>
<trkpt lat="-27.274439" lon="151.290064">
  <ele>343.1</ele>
  <time>2026-09-01T19:57:18Z</time>
  <course>270.0</course>
  <speed>0.0</speed>
  <fix>3d</fix>
</trkpt>
<trkpt lat="-27.274439" lon="151.290064">
  <ele>343.09</ele>
  <time>2026-09-01T19:57:18Z</time>
  <course>10.69</course>
  <speed>0.01</speed>
  <fix>3d</fix>
</trkpt>
<trkpt lat="-27.274439" lon="151.290064">
  <ele>343.1</ele>
  <time>2026-09-01T19:57:18Z</time>
  <course>270.0</course>
  <speed>0.0</speed>
  <fix>3d</fix>
</trkpt>
<trkpt lat="-27.274439" lon="151.290064">
  <ele>343.09</ele>
  <time>2026-09-01T19:57:18Z</time>
  <course>10.69</course>
  <speed>0.01</speed>
  <fix>3d</fix>
</trkpt>
<trkpt lat="-27.274439" lon="151.290064">
  <ele>343.1</ele>
  <time>2026-09-01T19:57:18Z</time>
  <course>270.0</course>
  <speed>0.0</speed>
  <fix>3d</fix>
</trkpt>
<trkpt lat="-27.274439" lon="151.290064">
  <ele>343.09</ele>
  <time>2026-09-01T19:57:18Z</time>
  <course>10.69</course>
  <speed>0.01</speed>
  <fix>3d</fix>
</trkpt>
<trkpt lat="-27.274439" lon="151.290064">
  <ele>343.1</ele>
  <time>2026-09-01T19:57:18Z</time>
  <course>270.0</course>
  <speed>0.0</speed>
  <fix>3d</fix>
</trkpt>
<trkpt lat="-27.274439" lon="151.290064">
  <ele>343.09</ele>
  <time>2026-09-01T19:57:18Z</time>
  <course>10.69</course>
  <speed>0.01</speed>
  <fix>3d</fix>
</trkpt>
<trkpt lat="-27.274439" lon="151.290064">
  <ele>343.1</ele>
  <time>2026-09-01T19:57:18Z</time>
  <course>143.0</course>
  <speed>0.0</speed>
  <fix>3d</fix>
</trkpt>
<trkpt lat="-27.274439" lon="151.290064">
  <ele>343.09</ele>
  <time>2026-09-01T19:57:18Z</time>
  <course>10.69</course>
  <speed>0.01414213562373095</speed>
  <fix>3d</fix>
</trkpt>
<trkpt lat="-27.274439" lon="151.290064">
  <ele>343.1</ele>
  <time>2026-09-01T19:57:18Z</time>
  <course>143.0</course>
  <speed>0.0</speed>
  <fix>3d</fix>
</trkpt>
<trkpt lat="-27.274439" lon="151.290064">
  <ele>343.09</ele>
  <time>2026-09-01T19:57:18Z</time>
  <course>10.69</course>
  <speed>0.01414213562373095</speed>
  <fix>3d</fix>
</trkpt>
<trkpt lat="-27.274439" lon="151.290064">
  <ele>343.1</ele>
  <time>2026-09-01T19:57:18Z</time>
  <course>141.02</course>
  <speed>0.0</speed>
  <fix>3d</fix>
</trkpt>
<trkpt lat="-27.274439" lon="151.290064">
  <ele>343.09</ele>
  <time>2026-09-01T19:57:18Z</time>
  <course>10.69</course>
  <speed>0.01414213562373095</speed>
  <fix>3d</fix>
</trkpt>
<trkpt lat="-27.274439" lon="151.290064">
  <ele>343.1</ele>
  <time>2026-09-01T19:57:18Z</time>
  <course>141.02</course>
  <speed>0.0</speed>
  <fix>3d</fix>
</trkpt>
<trkpt lat="-27.274439" lon="151.290064">
  <ele>343.09</ele>
  <time>2026-09-01T19:57:18Z</time>
  <course>10.69</course>
  <speed>0.01414213562373095</speed>
  <fix>3d</fix>
</trkpt>
<trkpt lat="-27.274439" lon="151.290064">
  <ele>343.1</ele>
  <time>2026-09-01T19:57:18Z</time>
  <course>139.03</course>
  <speed>0.0</speed>
  <fix>3d</fix>
</trkpt>
<trkpt lat="-27.274439" lon="151.290064">
  <ele>343.09</ele>
  <time>2026-09-01T19:57:18Z</time>
  <course>10.69</course>
  <speed>0.01414213562373095</speed>
  <fix>3d</fix>
</trkpt>
<trkpt lat="-27.274439" lon="151.290064">
  <ele>343.1</ele>
  <time>2026-09-01T19:57:18Z</time>
  <course>139.03</course>
  <speed>0.0</speed>
  <fix>3d</fix>
</trkpt>
<trkpt lat="-27.274439" lon="151.290064">
  <ele>343.09</ele>
  <time>2026-09-01T19:57:18Z</time>
  <course>10.69</course>
  <speed>0.01414213562373095</speed>
  <fix>3d</fix>
</trkpt>
<trkpt lat="-27.274439" lon="151.290064">
  <ele>343.1</ele>
  <time>2026-09-01T19:57:18Z</time>
  <course>321.68</course>
  <speed>0.0</speed>
  <fix>3d</fix>
</trkpt>
<trkpt lat="-27.274439" lon="151.290064">
  <ele>343.08</ele>
  <time>2026-09-01T19:57:18Z</time>
  <course>10.69</course>
  <speed>0.01414213562373095</speed>
  <fix>3d</fix>
</trkpt>
<trkpt lat="-27.274439" lon="151.290064">
  <ele>343.1</ele>
  <time>2026-09-01T19:57:18Z</time>
  <course>321.68</course>
  <speed>0.0</speed>
  <fix>3d</fix>
</trkpt>
<trkpt lat="-27.274439" lon="151.290064">
  <ele>343.09</ele>
  <time>2026-09-01T19:57:18Z</time>
  <course>10.69</course>
  <speed>0.01414213562373095</speed>
  <fix>3d</fix>
</trkpt>
<trkpt lat="-27.274439" lon="151.290064">
  <ele>343.1</ele>
  <time>2026-09-01T19:57:18Z</time>
  <course>320.43</course>
  <speed>0.0</speed>
  <fix>3d</fix>
</trkpt>
<trkpt lat="-27.274439" lon="151.290064">
  <ele>343.1</ele>
  <time>2026-09-01T19:57:18Z</time>
  <course>10.69</course>
  <speed>0.01414213562373095</speed>
  <fix>3d</fix>
</trkpt>
<trkpt lat="-27.274439" lon="151.290064">
  <ele>343.1</ele>
  <time>2026-09-01T19:57:18Z</time>
  <course>320.43</course>
  <speed>0.0</speed>
  <fix>3d</fix>
</trkpt>
<trkpt lat="-27.274439" lon="151.290064">
  <ele>343.14</ele>
  <time>2026-09-01T19:57:18Z</time>
  <course>10.69</course>
  <speed>0.01414213562373095</speed>
  <fix>3d</fix>
</trkpt>
<trkpt lat="-27.274439" lon="151.290064">
  <ele>343.1</ele>
  <time>2026-09-01T19:57:18Z</time>
  <course>7.19</course>
  <speed>0.0</speed>
  <fix>3d</fix>
</trkpt>
<trkpt lat="-27.274439" lon="151.290064">
  <ele>343.19</ele>
  <time>2026-09-01T19:57:18Z</time>
  <course>10.69</course>
  <speed>0.01414213562373095</speed>
  <fix>3d</fix>
</trkpt>
<trkpt lat="-27.274439" lon="151.290064">
  <ele>343.1</ele>
  <time>2026-09-01T19:57:18Z</time>
  <course>7.19</course>
  <speed>0.0</speed>
  <fix>3d</fix>
</trkpt>
<trkpt lat="-27.274439" lon="151.290064">
  <ele>343.27</ele>
  <time>2026-09-01T19:57:18Z</time>
  <course>10.69</course>
  <speed>0.01</speed>
  <fix>3d</fix>
</trkpt>
<trkpt lat="-27.274439" lon="151.290064">
  <ele>343.15</ele>
  <time>2026-09-01T19:57:18Z</time>
  <course>7.77</course>
  <speed>0.0</speed>
  <fix>3d</fix>
</trkpt>
<trkpt lat="-27.274439" lon="151.290064">
  <ele>343.42</ele>
  <time>2026-09-01T19:57:18Z</time>
  <course>10.71</course>
  <speed>0.0316227766016838</speed>
  <fix>3d</fix>
</trkpt>
<trkpt lat="-27.274439" lon="151.290064">
  <ele>343.15</ele>
  <time>2026-09-01T19:57:18Z</time>
  <course>7.77</course>
  <speed>0.0</speed>
  <fix>3d</fix>
</trkpt>
<trkpt lat="-27.274439" lon="151.290064">
  <ele>343.62</ele>
  <time>2026-09-01T19:57:18Z</time>
  <course>10.72</course>
  <speed>0.07280109889280519</speed>
  <fix>3d</fix>
</trkpt>
<trkpt lat="-27.274439" lon="151.290064">
  <ele>343.31</ele>
  <time>2026-09-01T19:57:18Z</time>
  <course>2.04</course>
  <speed>0.02</speed>
  <fix>3d</fix>
</trkpt>
<trkpt lat="-27.2744389" lon="151.290064">
  <ele>343.87</ele>
  <time>2026-09-01T19:57:18Z</time>
  <course>10.71</course>
  <speed>0.12165525060596438</speed>
  <fix>3d</fix>
</trkpt>
<trkpt lat="-27.274439" lon="151.290064">
  <ele>343.31</ele>
  <time>2026-09-01T19:57:18Z</time>
  <course>2.04</course>
  <speed>0.02</speed>
  <fix>3d</fix>
</trkpt>
<trkpt lat="-27.2744388" lon="151.290064">
  <ele>344.12</ele>
  <time>2026-09-01T19:57:18Z</time>
  <course>10.68</course>
  <speed>0.16278820596099705</speed>
  <fix>3d</fix>
</trkpt>
<trkpt lat="-27.2744389" lon="151.290064">
  <ele>343.65</ele>
  <time>2026-09-01T19:57:18Z</time>
  <course>2.39</course>
  <speed>0.09</speed>
  <fix>3d</fix>
</trkpt>
<trkpt lat="-27.2744386" lon="151.2900641">
  <ele>344.38</ele>
  <time>2026-09-01T19:57:18Z</time>
  <course>10.64</course>
  <speed>0.20223748416156684</speed>
  <fix>3d</fix>
</trkpt>
<trkpt lat="-27.2744389" lon="151.290064">
  <ele>343.65</ele>
  <time>2026-09-01T19:57:18Z</time>
  <course>2.39</course>
  <speed>0.09</speed>
  <fix>3d</fix>
</trkpt>
<trkpt lat="-27.2744384" lon="151.2900641">
  <ele>344.66</ele>
  <time>2026-09-01T19:57:18Z</time>
  <course>10.6</course>
  <speed>0.24331050121192876</speed>
  <fix>3d</fix>
</trkpt>
<trkpt lat="-27.2744387" lon="151.290064">
  <ele>344.15</ele>
  <time>2026-09-01T19:57:18Z</time>
  <course>3.27</course>
  <speed>0.18</speed>
  <fix>3d</fix>
</trkpt>
<trkpt lat="-27.2744381" lon="151.2900641">
  <ele>344.95</ele>
  <time>2026-09-01T19:57:18Z</time>
  <course>10.57</course>
  <speed>0.282842712474619</speed>
  <fix>3d</fix>
</trkpt>
<trkpt lat="-27.2744387" lon="151.290064">
  <ele>344.15</ele>
  <time>2026-09-01T19:57:18Z</time>
  <course>3.27</course>
  <speed>0.18</speed>
  <fix>3d</fix>
</trkpt>
<trkpt lat="-27.2744379" lon="151.2900641">
  <ele>345.26</ele>
  <time>2026-09-01T19:57:18Z</time>
  <course>10.39</course>
  <speed>0.3125699921617557</speed>
  <fix>3d</fix>
</trkpt>
<trkpt lat="-27.2744383" lon="151.290064">
  <ele>344.71</ele>
  <time>2026-09-01T19:57:18Z</time>
  <course>4.02</course>
  <speed>0.26</speed>
  <fix>3d</fix>
</trkpt>
<trkpt lat="-27.2744375" lon="151.2900642">
  <ele>345.57</ele>
  <time>2026-09-01T19:57:18Z</time>
  <course>10.37</course>
  <speed>0.34365680554879163</speed>
  <fix>3d</fix>
</trkpt>
<trkpt lat="-27.2744383" lon="151.290064">
  <ele>344.71</ele>
  <time>2026-09-01T19:57:18Z</time>
  <course>4.02</course>
  <speed>0.26</speed>
  <fix>3d</fix>
</trkpt>
<trkpt lat="-27.2744372" lon="151.2900642">
  <ele>345.89</ele>
  <time>2026-09-01T19:57:18Z</time>
  <course>10.36</course>
  <speed>0.37336309405188944</speed>
  <fix>3d</fix>
</trkpt>
<trkpt lat="-27.2744378" lon="151.290064">
  <ele>345.31</ele>
  <time>2026-09-01T19:57:18Z</time>
  <course>4.69</course>
  <speed>0.33</speed>
  <fix>3d</fix>
</trkpt>
<trkpt lat="-27.2744369" lon="151.2900642">
  <ele>346.21</ele>
  <time>2026-09-01T19:57:18Z</time>
  <course>10.36</course>
  <speed>0.39319206502675</speed>
  <fix>3d</fix>
</trkpt>
<trkpt lat="-27.2744378" lon="151.290064">
  <ele>345.31</ele>
  <time>2026-09-01T19:57:18Z</time>
  <course>4.69</course>
  <speed>0.33</speed>
  <fix>3d</fix>
</trkpt>
<trkpt lat="-27.2744365" lon="151.2900643">
  <ele>346.53</ele>
  <time>2026-09-01T19:57:18Z</time>
  <course>10.36</course>
  <speed>0.4143669871020132</speed>
  <fix>3d</fix>
</trkpt>
<trkpt lat="-27.2744371" lon="151.2900641">
  <ele>345.94</ele>
  <time>2026-09-01T19:57:18Z</time>
  <course>5.25</course>
  <speed>0.39</speed>
  <fix>3d</fix>
</trkpt>
<trkpt lat="-27.2744361" lon="151.2900643">
  <ele>346.84</ele>
  <time>2026-09-01T19:57:18Z</time>
  <course>10.36</course>
  <speed>0.4242640687119285</speed>
  <fix>3d</fix>
</trkpt>
<trkpt lat="-27.2744371" lon="151.2900641">
  <ele>345.94</ele>
  <time>2026-09-01T19:57:18Z</time>
  <course>5.25</course>
  <speed>0.39</speed>
  <fix>3d</fix>
</trkpt>
<trkpt lat="-27.2744357" lon="151.2900643">
  <ele>347.16</ele>
  <time>2026-09-01T19:57:18Z</time>
  <course>10.37</course>
  <speed>0.4341658669218482</speed>
  <fix>3d</fix>
</trkpt>
<trkpt lat="-27.2744364" lon="151.2900641">
  <ele>346.57</ele>
  <time>2026-09-01T19:57:18Z</time>
  <course>5.7</course>
  <speed>0.43</speed>
  <fix>3d</fix>
</trkpt>
<trkpt lat="-27.2744353" lon="151.2900644">
  <ele>347.46</ele>
  <time>2026-09-01T19:57:18Z</time>
  <course>10.38</course>
  <speed>0.4341658669218482</speed>
  <fix>3d</fix>
</trkpt>
<trkpt lat="-27.2744364" lon="151.2900641">
  <ele>346.57</ele>
  <time>2026-09-01T19:57:18Z</time>
  <course>5.7</course>
  <speed>0.43</speed>
  <fix>3d</fix>
</trkpt>
<trkpt lat="-27.2744349" lon="151.2900644">
  <ele>347.76</ele>
  <time>2026-09-01T19:57:18Z</time>
  <course>10.39</course>
  <speed>0.422965719651132</speed>
  <fix>3d</fix>
</trkpt>
<trkpt lat="-27.2744355" lon="151.2900642">
  <ele>347.2</ele>
  <time>2026-09-01T19:57:18Z</time>
  <course>6.12</course>
  <speed>0.45</speed>
  <fix>3d</fix>
</trkpt>
<trkpt lat="-27.2744345" lon="151.2900644">
  <ele>348.06</ele>
  <time>2026-09-01T19:57:18Z</time>
  <course>10.4</course>
  <speed>0.41303752856126763</speed>
  <fix>3d</fix>
</trkpt>
<trkpt lat="-27.2744355" lon="151.2900642">
  <ele>347.2</ele>
  <time>2026-09-01T19:57:18Z</time>
  <course>6.12</course>
  <speed>0.45</speed>
  <fix>3d</fix>
</trkpt>
<trkpt lat="-27.2744341" lon="151.2900645">
  <ele>348.34</ele>
  <time>2026-09-01T19:57:18Z</time>
  <course>10.42</course>
  <speed>0.40311288741492746</speed>
  <fix>3d</fix>
</trkpt>
<trkpt lat="-27.2744348" lon="151.2900643">
  <ele>347.8</ele>
  <time>2026-09-01T19:57:18Z</time>
  <course>6.56</course>
  <speed>0.44</speed>
  <fix>3d</fix>
</trkpt>
<trkpt lat="-27.2744338" lon="151.2900645">
  <ele>348.62</ele>
  <time>2026-09-01T19:57:18Z</time>
  <course>10.44</course>
  <speed>0.383275357934736</speed>
  <fix>3d</fix>
</trkpt>
<trkpt lat="-27.2744348" lon="151.2900643">
  <ele>347.8</ele>
  <time>2026-09-01T19:57:18Z</time>
  <course>6.56</course>
  <speed>0.44</speed>
  <fix>3d</fix>
</trkpt>
<trkpt lat="-27.2744334" lon="151.2900645">
  <ele>348.89</ele>
  <time>2026-09-01T19:57:18Z</time>
  <course>10.46</course>
  <speed>0.3522782990761707</speed>
  <fix>3d</fix>
</trkpt>
<trkpt lat="-27.274434" lon="151.2900644">
  <ele>348.38</ele>
  <time>2026-09-01T19:57:18Z</time>
  <course>7.08</course>
  <speed>0.42</speed>
  <fix>3d</fix>
</trkpt>
<trkpt lat="-27.2744331" lon="151.2900646">
  <ele>349.16</ele>
  <time>2026-09-01T19:57:18Z</time>
  <course>10.48</course>
  <speed>0.33241540277189324</speed>
  <fix>3d</fix>
</trkpt>
<trkpt lat="-27.274434" lon="151.2900644">
  <ele>348.38</ele>
  <time>2026-09-01T19:57:18Z</time>
  <course>7.08</course>
  <speed>0.42</speed>
  <fix>3d</fix>
</trkpt>
<trkpt lat="-27.2744328" lon="151.2900646">
  <ele>349.42</ele>
  <time>2026-09-01T19:57:18Z</time>
  <course>10.49</course>
  <speed>0.3014962686336267</speed>
  <fix>3d</fix>
</trkpt>
<trkpt lat="-27.2744333" lon="151.2900645">
  <ele>348.93</ele>
  <time>2026-09-01T19:57:18Z</time>
  <course>7.77</course>
  <speed>0.37</speed>
  <fix>3d</fix>
</trkpt>
<trkpt lat="-27.2744325" lon="151.2900646">
  <ele>349.67</ele>
  <time>2026-09-01T19:57:18Z</time>
  <course>10.51</course>
  <speed>0.261725046566048</speed>
  <fix>3d</fix>
</trkpt>
<trkpt lat="-27.2744333" lon="151.2900645">
  <ele>348.93</ele>
  <time>2026-09-01T19:57:18Z</time>
  <course>7.77</course>
  <speed>0.37</speed>
  <fix>3d</fix>
</trkpt>
<trkpt lat="-27.2744323" lon="151.2900647">
  <ele>349.93</ele>
  <time>2026-09-01T19:57:18Z</time>
  <course>10.53</course>
  <speed>0.23194827009486402</speed>
  <fix>3d</fix>
</trkpt>
<trkpt lat="-27.2744327" lon="151.2900646">
  <ele>349.45</ele>
  <time>2026-09-01T19:57:18Z</time>
  <course>8.75</course>
  <speed>0.32</speed>
  <fix>3d</fix>
</trkpt>
<trkpt lat="-27.2744321" lon="151.2900647">
  <ele>350.17</ele>
  <time>2026-09-01T19:57:18Z</time>
  <course>10.55</course>
  <speed>0.2009975124224178</speed>
  <fix>3d</fix>
</trkpt>
<trkpt lat="-27.2744327" lon="151.2900646">
  <ele>349.45</ele>
  <time>2026-09-01T19:57:18Z</time>
  <course>8.75</course>
  <speed>0.32</speed>
  <fix>3d</fix>
</trkpt>
<trkpt lat="-27.2744319" lon="151.2900647">
  <ele>350.42</ele>
  <time>2026-09-01T19:57:18Z</time>
  <course>10.57</course>
  <speed>0.16124515496597097</speed>
  <fix>3d</fix>
</trkpt>
<trkpt lat="-27.2744322" lon="151.2900647">
  <ele>349.96</ele>
  <time>2026-09-01T19:57:18Z</time>
  <course>10.24</course>
  <speed>0.25</speed>
  <fix>3d</fix>
</trkpt>
<trkpt lat="-27.2744318" lon="151.2900647">
  <ele>350.67</ele>
  <time>2026-09-01T19:57:18Z</time>
  <course>10.59</course>
  <speed>0.12041594578792296</speed>
  <fix>3d</fix>
</trkpt>
<trkpt lat="-27.2744322" lon="151.2900647">
  <ele>349.96</ele>
  <time>2026-09-01T19:57:18Z</time>
  <course>10.24</course>
  <speed>0.25</speed>
  <fix>3d</fix>
</trkpt>
<trkpt lat="-27.2744317" lon="151.2900648">
  <ele>350.91</ele>
  <time>2026-09-01T19:57:18Z</time>
  <course>10.61</course>
  <speed>0.09055385138137417</speed>
  <fix>3d</fix>
</trkpt>
<trkpt lat="-27.2744318" lon="151.2900648">
  <ele>350.45</ele>
  <time>2026-09-01T19:57:18Z</time>
  <course>12.89</course>
  <speed>0.18</speed>
  <fix>3d</fix>
</trkpt>
<trkpt lat="-27.2744316" lon="151.2900648">
  <ele>351.16</ele>
  <time>2026-09-01T19:57:18Z</time>
  <course>10.63</course>
  <speed>0.05099019513592785</speed>
  <fix>3d</fix>
</trkpt>
<trkpt lat="-27.2744318" lon="151.2900648">
  <ele>350.45</ele>
  <time>2026-09-01T19:57:18Z</time>
  <course>12.89</course>
  <speed>0.18</speed>
  <fix>3d</fix>
</trkpt>
<trkpt lat="-27.2744315" lon="151.2900648">
  <ele>351.41</ele>
  <time>2026-09-01T19:57:18Z</time>
  <course>10.66</course>
  <speed>0.02</speed>
  <fix>3d</fix>
</trkpt>
<trkpt lat="-27.2744315" lon="151.2900649">
  <ele>350.93</ele>
  <time>2026-09-01T19:57:18Z</time>
  <course>18.59</course>
  <speed>0.11</speed>
  <fix>3d</fix>
</trkpt>
<trkpt lat="-27.2744315" lon="151.2900649">
  <ele>351.65</ele>
  <time>2026-09-01T19:57:18Z</time>
  <course>10.7</course>
  <speed>0.0</speed>
  <fix>3d</fix>
</trkpt>
<trkpt lat="-27.2744315" lon="151.2900649">
  <ele>350.93</ele>
  <time>2026-09-01T19:57:18Z</time>
  <course>18.59</course>
  <speed>0.11</speed>
  <fix>3d</fix>
</trkpt>
<trkpt lat="-27.2744315" lon="151.2900649">
  <ele>351.89</ele>
  <time>2026-09-01T19:57:18Z</time>
  <course>10.74</course>
  <speed>0.03</speed>
  <fix>3d</fix>
</trkpt>
<trkpt lat="-27.2744314" lon="151.290065">
  <ele>351.4</ele>
  <time>2026-09-01T19:57:18Z</time>
  <course>38.92</course>
  <speed>0.04</speed>
  <fix>3d</fix>
</trkpt>
<trkpt lat="-27.2744315" lon="151.2900649">
  <ele>352.13</ele>
  <time>2026-09-01T19:57:18Z</time>
  <course>10.78</course>
  <speed>0.06</speed>
  <fix>3d</fix>
</trkpt>
<trkpt lat="-27.2744314" lon="151.290065">
  <ele>351.4</ele>
  <time>2026-09-01T19:57:18Z</time>
  <course>38.92</course>
  <speed>0.04</speed>
  <fix>3d</fix>
</trkpt>
<trkpt lat="-27.2744316" lon="151.2900649">
  <ele>352.38</ele>
  <time>2026-09-01T19:57:18Z</time>
  <course>10.84</course>
  <speed>0.08</speed>
  <fix>3d</fix>
</trkpt>
<trkpt lat="-27.2744314" lon="151.290065">
  <ele>351.88</ele>
  <time>2026-09-01T19:57:18Z</time>
  <course>141.75</course>
  <speed>0.03</speed>
  <fix>3d</fix>
</trkpt>
<trkpt lat="-27.2744316" lon="151.2900649">
  <ele>352.63</ele>
  <time>2026-09-01T19:57:18Z</time>
  <course>10.9</course>
  <speed>0.1004987562112089</speed>
  <fix>3d</fix>
</trkpt>
<trkpt lat="-27.2744314" lon="151.290065">
  <ele>351.88</ele>
  <time>2026-09-01T19:57:18Z</time>
  <course>141.75</course>
  <speed>0.03</speed>
  <fix>3d</fix>
</trkpt>
<trkpt lat="-27.2744317" lon="151.2900649">
  <ele>352.87</ele>
  <time>2026-09-01T19:57:18Z</time>
  <course>10.97</course>
  <speed>0.12041594578792296</speed>
  <fix>3d</fix>
</trkpt>
<trkpt lat="-27.2744315" lon="151.2900651">
  <ele>352.35</ele>
  <time>2026-09-01T19:57:18Z</time>
  <course>171.78</course>
  <speed>0.08</speed>
  <fix>3d</fix>
</trkpt>
<trkpt lat="-27.2744318" lon="151.2900649">
  <ele>353.12</ele>
  <time>2026-09-01T19:57:18Z</time>
  <course>11.04</course>
  <speed>0.1414213562373095</speed>
  <fix>3d</fix>
</trkpt>
<trkpt lat="-27.2744315" lon="151.2900651">
  <ele>352.35</ele>
  <time>2026-09-01T19:57:18Z</time>
  <course>171.78</course>
  <speed>0.08</speed>
  <fix>3d</fix>
</trkpt>
<trkpt lat="-27.2744319" lon="151.2900649">
  <ele>353.36</ele>
  <time>2026-09-01T19:57:18Z</time>
  <course>11.11</course>
  <speed>0.16124515496597097</speed>
  <fix>3d</fix>
</trkpt>
<trkpt lat="-27.2744316" lon="151.2900651">
  <ele>352.83</ele>
  <time>2026-09-01T19:57:18Z</time>
  <course>179.79</course>
  <speed>0.12</speed>
  <fix>3d</fix>
</trkpt>
<trkpt lat="-27.2744321" lon="151.2900649">
  <ele>353.6</ele>
  <time>2026-09-01T19:57:18Z</time>
  <course>11.18</course>
  <speed>0.17262676501632068</speed>
  <fix>3d</fix>
</trkpt>
<trkpt lat="-27.2744316" lon="151.2900651">
  <ele>352.83</ele>
  <time>2026-09-01T19:57:18Z</time>
  <course>179.79</course>
  <speed>0.12</speed>
  <fix>3d</fix>
</trkpt>
<trkpt lat="-27.2744322" lon="151.2900649">
  <ele>353.85</ele>
  <time>2026-09-01T19:57:18Z</time>
  <course>11.19</course>
  <speed>0.1824828759089466</speed>
  <fix>3d</fix>
</trkpt>
<trkpt lat="-27.2744318" lon="151.2900651">
  <ele>353.32</ele>
  <time>2026-09-01T19:57:18Z</time>
  <course>184.03</course>
  <speed>0.16</speed>
  <fix>3d</fix>
</trkpt>
<trkpt lat="-27.2744324" lon="151.2900649">
  <ele>354.09</ele>
  <time>2026-09-01T19:57:18Z</time>
  <course>11.14</course>
  <speed>0.2009975124224178</speed>
  <fix>3d</fix>
</trkpt>
<trkpt lat="-27.2744318" lon="151.2900651">
  <ele>353.32</ele>
  <time>2026-09-01T19:57:18Z</time>
  <course>184.03</course>
  <speed>0.16</speed>
  <fix>3d</fix>
</trkpt>
<trkpt lat="-27.2744325" lon="151.2900649">
  <ele>354.34</ele>
  <time>2026-09-01T19:57:18Z</time>
  <course>11.07</course>
  <speed>0.20223748416156684</speed>
  <fix>3d</fix>
</trkpt>
<trkpt lat="-27.2744321" lon="151.2900651">
  <ele>353.8</ele>
  <time>2026-09-01T19:57:18Z</time>
  <course>185.6</course>
  <speed>0.18</speed>
  <fix>3d</fix>
</trkpt>
<trkpt lat="-27.2744327" lon="151.2900649">
  <ele>354.58</ele>
  <time>2026-09-01T19:57:18Z</time>
  <course>11.0</course>
  <speed>0.21377558326431947</speed>
  <fix>3d</fix>
</trkpt>
<trkpt lat="-27.2744321" lon="151.2900651">
  <ele>353.8</ele>
  <time>2026-09-01T19:57:18Z</time>
  <course>185.6</course>
  <speed>0.18</speed>
  <fix>3d</fix>
</trkpt>
<trkpt lat="-27.2744329" lon="151.2900649">
  <ele>354.83</ele>
  <time>2026-09-01T19:57:18Z</time>
  <course>10.93</course>
  <speed>0.21377558326431947</speed>
  <fix>3d</fix>
</trkpt>
<trkpt lat="-27.2744324" lon="151.2900651">
  <ele>354.29</ele>
  <time>2026-09-01T19:57:18Z</time>
  <course>185.78</course>
  <speed>0.21</speed>
  <fix>3d</fix>
</trkpt>
<trkpt lat="-27.2744331" lon="151.2900649">
  <ele>355.08</ele>
  <time>2026-09-01T19:57:18Z</time>
  <course>10.87</course>
  <speed>0.2220360331117452</speed>
  <fix>3d</fix>
</trkpt>
<trkpt lat="-27.2744324" lon="151.2900651">
  <ele>354.29</ele>
  <time>2026-09-01T19:57:18Z</time>
  <course>185.78</course>
  <speed>0.21</speed>
  <fix>3d</fix>
</trkpt>
<trkpt lat="-27.2744333" lon="151.2900649">
  <ele>355.32</ele>
  <time>2026-09-01T19:57:18Z</time>
  <course>10.83</course>
  <speed>0.223606797749979</speed>
  <fix>3d</fix>
</trkpt>
<trkpt lat="-27.2744329" lon="151.2900651">
  <ele>354.78</ele>
  <time>2026-09-01T19:57:18Z</time>
  <course>185.75</course>
  <speed>0.22</speed>
  <fix>3d</fix>
</trkpt>
<trkpt lat="-27.2744335" lon="151.2900648">
  <ele>355.57</ele>
  <time>2026-09-01T19:57:18Z</time>
  <course>10.82</course>
  <speed>0.223606797749979</speed>
  <fix>3d</fix>
</trkpt>
<trkpt lat="-27.2744329" lon="151.2900651">
  <ele>354.78</ele>
  <time>2026-09-01T19:57:18Z</time>
  <course>185.75</course>
  <speed>0.22</speed>
  <fix>3d</fix>
</trkpt>
<trkpt lat="-27.2744337" lon="151.2900648">
  <ele>355.82</ele>
  <time>2026-09-01T19:57:18Z</time>
  <course>10.84</course>
  <speed>0.23194827009486402</speed>
  <fix>3d</fix>
</trkpt>
<trkpt lat="-27.2744333" lon="151.290065">
  <ele>355.28</ele>
  <time>2026-09-01T19:57:18Z</time>
  <course>185.71</course>
  <speed>0.23</speed>
  <fix>3d</fix>
</trkpt>
<trkpt lat="-27.2744339" lon="151.2900648">
  <ele>356.07</ele>
  <time>2026-09-01T19:57:18Z</time>
  <course>10.87</course>
  <speed>0.23345235059857505</speed>
  <fix>3d</fix>
</trkpt>
<trkpt lat="-27.2744333" lon="151.290065">
  <ele>355.28</ele>
  <time>2026-09-01T19:57:18Z</time>
  <course>185.71</course>
  <speed>0.23</speed>
  <fix>3d</fix>
</trkpt>
<trkpt lat="-27.2744341" lon="151.2900648">
  <ele>356.33</ele>
  <time>2026-09-01T19:57:18Z</time>
  <course>10.89</course>
  <speed>0.23345235059857505</speed>
  <fix>3d</fix>
</trkpt>
<trkpt lat="-27.2744337" lon="151.290065">
  <ele>355.78</ele>
  <time>2026-09-01T19:57:18Z</time>
  <course>186.23</course>
  <speed>0.23</speed>
  <fix>3d</fix>
</trkpt>
<trkpt lat="-27.2744343" lon="151.2900648">
  <ele>356.58</ele>
  <time>2026-09-01T19:57:18Z</time>
  <course>10.88</course>
  <speed>0.23194827009486402</speed>
  <fix>3d</fix>
</trkpt>
<trkpt lat="-27.2744337" lon="151.290065">
  <ele>355.78</ele>
  <time>2026-09-01T19:57:18Z</time>
  <course>186.23</course>
  <speed>0.23</speed>
  <fix>3d</fix>
</trkpt>
<trkpt lat="-27.2744345" lon="151.2900648">
  <ele>356.83</ele>
  <time>2026-09-01T19:57:18Z</time>
  <course>10.86</course>
  <speed>0.223606797749979</speed>
  <fix>3d</fix>
</trkpt>
<trkpt lat="-27.2744342" lon="151.2900649">
  <ele>356.28</ele>
  <time>2026-09-01T19:57:18Z</time>
  <course>186.8</course>
  <speed>0.23</speed>
  <fix>3d</fix>
</trkpt>
<trkpt lat="-27.2744347" lon="151.2900648">
  <ele>357.08</ele>
  <time>2026-09-01T19:57:18Z</time>
  <course>10.83</course>
  <speed>0.2220360331117452</speed>
  <fix>3d</fix>
</trkpt>
<trkpt lat="-27.2744342" lon="151.2900649">
  <ele>356.28</ele>
  <time>2026-09-01T19:57:18Z</time>
  <course>186.8</course>
  <speed>0.23</speed>
  <fix>3d</fix>
</trkpt>
<trkpt lat="-27.2744349" lon="151.2900647">
  <ele>357.33</ele>
  <time>2026-09-01T19:57:18Z</time>
  <course>10.81</course>
  <speed>0.2220360331117452</speed>
  <fix>3d</fix>
</trkpt>
<trkpt lat="-27.2744346" lon="151.2900648">
  <ele>356.78</ele>
  <time>2026-09-01T19:57:18Z</time>
  <course>186.83</course>
  <speed>0.23</speed>
  <fix>3d</fix>
</trkpt>
<trkpt lat="-27.2744351" lon="151.2900647">
  <ele>357.58</ele>
  <time>2026-09-01T19:57:18Z</time>
  <course>10.8</course>
  <speed>0.22022715545545238</speed>
  <fix>3d</fix>
</trkpt>
<trkpt lat="-27.2744346" lon="151.2900648">
  <ele>356.78</ele>
  <time>2026-09-01T19:57:18Z</time>
  <course>186.83</course>
  <speed>0.23</speed>
  <fix>3d</fix>
</trkpt>
<trkpt lat="-27.2744353" lon="151.2900647">
  <ele>357.83</ele>
  <time>2026-09-01T19:57:18Z</time>
  <course>10.8</course>
  <speed>0.22022715545545238</speed>
  <fix>3d</fix>
</trkpt>
<trkpt lat="-27.2744349" lon="151.2900647">
  <ele>357.28</ele>
  <time>2026-09-01T19:57:18Z</time>
  <course>187.05</course>
  <speed>0.22</speed>
  <fix>3d</fix>
</trkpt>
<trkpt lat="-27.2744355" lon="151.2900647">
  <ele>358.08</ele>
  <time>2026-09-01T19:57:18Z</time>
  <course>10.78</course>
  <speed>0.21</speed>
  <fix>3d</fix>
</trkpt>
<trkpt lat="-27.2744349" lon="151.2900647">
  <ele>357.28</ele>
  <time>2026-09-01T19:57:18Z</time>
  <course>187.05</course>
  <speed>0.22</speed>
  <fix>3d</fix>
</trkpt>
<trkpt lat="-27.2744357" lon="151.2900647">
  <ele>358.33</ele>
  <time>2026-09-01T19:57:18Z</time>
  <course>10.74</course>
  <speed>0.21</speed>
  <fix>3d</fix>
</trkpt>
<trkpt lat="-27.2744354" lon="151.2900647">
  <ele>357.78</ele>
  <time>2026-09-01T19:57:18Z</time>
  <course>187.77</course>
  <speed>0.22</speed>
  <fix>3d</fix>
</trkpt>
<trkpt lat="-27.2744359" lon="151.2900647">
  <ele>358.59</ele>
  <time>2026-09-01T19:57:18Z</time>
  <course>10.7</course>
  <speed>0.2009975124224178</speed>
  <fix>3d</fix>
</trkpt>
<trkpt lat="-27.2744354" lon="151.2900647">
  <ele>357.78</ele>
  <time>2026-09-01T19:57:18Z</time>
  <course>187.77</course>
  <speed>0.22</speed>
  <fix>3d</fix>
</trkpt>
<trkpt lat="-27.2744361" lon="151.2900647">
  <ele>358.84</ele>
  <time>2026-09-01T19:57:18Z</time>
  <course>10.62</course>
  <speed>0.20223748416156684</speed>
  <fix>3d</fix>
</trkpt>
<trkpt lat="-27.2744358" lon="151.2900646">
  <ele>358.28</ele>
  <time>2026-09-01T19:57:18Z</time>
  <course>188.62</course>
  <speed>0.21</speed>
  <fix>3d</fix>
</trkpt>
<trkpt lat="-27.2744363" lon="151.2900646">
  <ele>359.09</ele>
  <time>2026-09-01T19:57:18Z</time>
  <course>10.5</course>
  <speed>0.191049731745428</speed>
  <fix>3d</fix>
</trkpt>
<trkpt lat="-27.2744358" lon="151.2900646">
  <ele>358.28</ele>
  <time>2026-09-01T19:57:18Z</time>
  <course>188.62</course>
  <speed>0.21</speed>
  <fix>3d</fix>
</trkpt>
<trkpt lat="-27.2744364" lon="151.2900646">
  <ele>359.34</ele>
  <time>2026-09-01T19:57:18Z</time>
  <course>10.39</course>
  <speed>0.2</speed>
  <fix>3d</fix>
</trkpt>
<trkpt lat="-27.2744361" lon="151.2900646">
  <ele>358.78</ele>
  <time>2026-09-01T19:57:18Z</time>
  <course>188.73</course>
  <speed>0.2</speed>
  <fix>3d</fix>
</trkpt>
<trkpt lat="-27.2744366" lon="151.2900646">
  <ele>359.59</ele>
  <time>2026-09-01T19:57:18Z</time>
  <course>10.35</course>
  <speed>0.19</speed>
  <fix>3d</fix>
</trkpt>
<trkpt lat="-27.2744361" lon="151.2900646">
  <ele>358.78</ele>
  <time>2026-09-01T19:57:18Z</time>
  <course>188.73</course>
  <speed>0.2</speed>
  <fix>3d</fix>
</trkpt>
<trkpt lat="-27.2744368" lon="151.2900646">
  <ele>359.84</ele>
  <time>2026-09-01T19:57:18Z</time>
  <course>10.35</course>
  <speed>0.191049731745428</speed>
  <fix>3d</fix>
</trkpt>
<trkpt lat="-27.2744365" lon="151.2900645">
  <ele>359.29</ele>
  <time>2026-09-01T19:57:18Z</time>
  <course>188.8</course>
  <speed>0.19</speed>
  <fix>3d</fix>
</trkpt>
<trkpt lat="-27.2744369" lon="151.2900646">
  <ele>360.09</ele>
  <time>2026-09-01T19:57:18Z</time>
  <course>10.38</course>
  <speed>0.18027756377319945</speed>
  <fix>3d</fix>
</trkpt>
<trkpt lat="-27.2744365" lon="151.2900645">
  <ele>359.29</ele>
  <time>2026-09-01T19:57:18Z</time>
  <course>188.8</course>
  <speed>0.19</speed>
  <fix>3d</fix>
</trkpt>
<trkpt lat="-27.2744371" lon="151.2900646">
  <ele>360.34</ele>
  <time>2026-09-01T19:57:18Z</time>
  <course>10.35</course>
  <speed>0.18</speed>
  <fix>3d</fix>
</trkpt>
<trkpt lat="-27.2744368" lon="151.2900645">
  <ele>359.78</ele>
  <time>2026-09-01T19:57:18Z</time>
  <course>190.1</course>
  <speed>0.18</speed>
  <fix>3d</fix>
</trkpt>
<trkpt lat="-27.2744373" lon="151.2900646">
  <ele>360.59</ele>
  <time>2026-09-01T19:57:18Z</time>
  <course>10.29</course>
  <speed>0.17</speed>
  <fix>3d</fix>
</trkpt>
<trkpt lat="-27.2744368" lon="151.2900645">
  <ele>359.78</ele>
  <time>2026-09-01T19:57:18Z</time>
  <course>190.1</course>
  <speed>0.18</speed>
  <fix>3d</fix>
</trkpt>
<trkpt lat="-27.2744374" lon="151.2900646">
  <ele>360.84</ele>
  <time>2026-09-01T19:57:18Z</time>
  <course>10.19</course>
  <speed>0.16</speed>
  <fix>3d</fix>
</trkpt>
<trkpt lat="-27.2744371" lon="151.2900644">
  <ele>360.28</ele>
  <time>2026-09-01T19:57:18Z</time>
  <course>191.5</course>
  <speed>0.17</speed>
  <fix>3d</fix>
</trkpt>
<trkpt lat="-27.2744375" lon="151.2900646">
  <ele>361.09</ele>
  <time>2026-09-01T19:57:18Z</time>
  <course>10.09</course>
  <speed>0.16031219541881397</speed>
  <fix>3d</fix>
</trkpt>
<trkpt lat="-27.2744371" lon="151.2900644">
  <ele>360.28</ele>
  <time>2026-09-01T19:57:18Z</time>
  <course>191.5</course>
  <speed>0.17</speed>
  <fix>3d</fix>
</trkpt>
<trkpt lat="-27.2744377" lon="151.2900645">
  <ele>361.34</ele>
  <time>2026-09-01T19:57:18Z</time>
  <course>10.01</course>
  <speed>0.15</speed>
  <fix>3d</fix>
</trkpt>
<trkpt lat="-27.2744374" lon="151.2900643">
  <ele>360.78</ele>
  <time>2026-09-01T19:57:18Z</time>
  <course>191.84</course>
  <speed>0.15</speed>
  <fix>3d</fix>
</trkpt>
<trkpt lat="-27.2744378" lon="151.2900645">
  <ele>361.59</ele>
  <time>2026-09-01T19:57:18Z</time>
  <course>9.98</course>
  <speed>0.15132745950421556</speed>
  <fix>3d</fix>
</trkpt>
<trkpt lat="-27.2744374" lon="151.2900643">
  <ele>360.78</ele>
  <time>2026-09-01T19:57:18Z</time>
  <course>191.84</course>
  <speed>0.15</speed>
  <fix>3d</fix>
</trkpt>
<trkpt lat="-27.2744379" lon="151.2900645">
  <ele>361.84</ele>
  <time>2026-09-01T19:57:18Z</time>
  <course>10.0</course>
  <speed>0.15132745950421556</speed>
  <fix>3d</fix>
</trkpt>
<trkpt lat="-27.2744377" lon="151.2900642">
  <ele>361.28</ele>
  <time>2026-09-01T19:57:18Z</time>
  <course>192.0</course>
  <speed>0.14</speed>
  <fix>3d</fix>
</trkpt>
<trkpt lat="-27.2744381" lon="151.2900645">
  <ele>362.08</ele>
  <time>2026-09-01T19:57:18Z</time>
  <course>10.03</course>
  <speed>0.1414213562373095</speed>
  <fix>3d</fix>
</trkpt>
<trkpt lat="-27.2744377" lon="151.2900642">
  <ele>361.28</ele>
  <time>2026-09-01T19:57:18Z</time>
  <course>192.0</course>
  <speed>0.14</speed>
  <fix>3d</fix>
</trkpt>
<trkpt lat="-27.2744382" lon="151.2900645">
  <ele>362.33</ele>
  <time>2026-09-01T19:57:18Z</time>
  <course>10.03</course>
  <speed>0.13152946437965907</speed>
  <fix>3d</fix>
</trkpt>
<trkpt lat="-27.2744379" lon="151.2900642">
  <ele>361.78</ele>
  <time>2026-09-01T19:57:18Z</time>
  <course>193.41</course>
  <speed>0.13</speed>
  <fix>3d</fix>
</trkpt>
<trkpt lat="-27.2744383" lon="151.2900645">
  <ele>362.58</ele>
  <time>2026-09-01T19:57:18Z</time>
  <course>10.02</course>
  <speed>0.13152946437965907</speed>
  <fix>3d</fix>
</trkpt>
<trkpt lat="-27.2744379" lon="151.2900642">
  <ele>361.78</ele>
  <time>2026-09-01T19:57:18Z</time>
  <course>193.41</course>
  <speed>0.13</speed>
  <fix>3d</fix>
</trkpt>
<trkpt lat="-27.2744384" lon="151.2900645">
  <ele>362.83</ele>
  <time>2026-09-01T19:57:18Z</time>
  <course>10.0</course>
  <speed>0.12165525060596438</speed>
  <fix>3d</fix>
</trkpt>
<trkpt lat="-27.2744382" lon="151.2900642">
  <ele>362.28</ele>
  <time>2026-09-01T19:57:18Z</time>
  <course>195.21</course>
  <speed>0.12</speed>
  <fix>3d</fix>
</trkpt>
<trkpt lat="-27.2744385" lon="151.2900644">
  <ele>363.08</ele>
  <time>2026-09-01T19:57:18Z</time>
  <course>9.99</course>
  <speed>0.12041594578792296</speed>
  <fix>3d</fix>
</trkpt>
<trkpt lat="-27.2744382" lon="151.2900642">
  <ele>362.28</ele>
  <time>2026-09-01T19:57:18Z</time>
  <course>195.21</course>
  <speed>0.12</speed>
  <fix>3d</fix>
</trkpt>
<trkpt lat="-27.2744386" lon="151.2900644">
  <ele>363.33</ele>
  <time>2026-09-01T19:57:18Z</time>
  <course>9.98</course>
  <speed>0.11045361017187261</speed>
  <fix>3d</fix>
</trkpt>
<trkpt lat="-27.2744384" lon="151.2900641">
  <ele>362.78</ele>
  <time>2026-09-01T19:57:18Z</time>
  <course>196.96</course>
  <speed>0.1</speed>
  <fix>3d</fix>
</trkpt>
<trkpt lat="-27.2744387" lon="151.2900644">
  <ele>363.58</ele>
  <time>2026-09-01T19:57:18Z</time>
  <course>9.98</course>
  <speed>0.11045361017187261</speed>
  <fix>3d</fix>
</trkpt>
<trkpt lat="-27.2744384" lon="151.2900641">
  <ele>362.78</ele>
  <time>2026-09-01T19:57:18Z</time>
  <course>196.96</course>
  <speed>0.1</speed>
  <fix>3d</fix>
</trkpt>
<trkpt lat="-27.2744388" lon="151.2900644">
  <ele>363.83</ele>
  <time>2026-09-01T19:57:18Z</time>
  <course>9.96</course>
  <speed>0.1004987562112089</speed>
  <fix>3d</fix>
</trkpt>
<trkpt lat="-27.2744385" lon="151.290064">
  <ele>363.28</ele>
  <time>2026-09-01T19:57:18Z</time>
  <course>199.67</course>
  <speed>0.09</speed>
  <fix>3d</fix>
</trkpt>
<trkpt lat="-27.2744388" lon="151.2900643">
  <ele>364.09</ele>
  <time>2026-09-01T19:57:18Z</time>
  <course>9.95</course>
  <speed>0.09055385138137417</speed>
  <fix>3d</fix>
</trkpt>
<trkpt lat="-27.2744385" lon="151.290064">
  <ele>363.28</ele>
  <time>2026-09-01T19:57:18Z</time>
  <course>199.67</course>
  <speed>0.09</speed>
  <fix>3d</fix>
</trkpt>
<trkpt lat="-27.2744389" lon="151.2900643">
  <ele>364.34</ele>
  <time>2026-09-01T19:57:18Z</time>
  <course>9.94</course>
  <speed>0.09055385138137417</speed>
  <fix>3d</fix>
</trkpt>
<trkpt lat="-27.2744387" lon="151.290064">
  <ele>363.78</ele>
  <time>2026-09-01T19:57:18Z</time>
  <course>203.11</course>
  <speed>0.08</speed>
  <fix>3d</fix>
</trkpt>
<trkpt lat="-27.274439" lon="151.2900643">
  <ele>364.59</ele>
  <time>2026-09-01T19:57:18Z</time>
  <course>9.93</course>
  <speed>0.08062257748298549</speed>
  <fix>3d</fix>
</trkpt>
<trkpt lat="-27.2744387" lon="151.290064">
  <ele>363.78</ele>
  <time>2026-09-01T19:57:18Z</time>
  <course>203.11</course>
  <speed>0.08</speed>
  <fix>3d</fix>
</trkpt>
<trkpt lat="-27.274439" lon="151.2900643">
  <ele>364.84</ele>
  <time>2026-09-01T19:57:18Z</time>
  <course>9.92</course>
  <speed>0.08062257748298549</speed>
  <fix>3d</fix>
</trkpt>
<trkpt lat="-27.2744388" lon="151.2900639">
  <ele>364.28</ele>
  <time>2026-09-01T19:57:18Z</time>
  <course>207.08</course>
  <speed>0.07</speed>
  <fix>3d</fix>
</trkpt>
<trkpt lat="-27.2744391" lon="151.2900642">
  <ele>365.09</ele>
  <time>2026-09-01T19:57:18Z</time>
  <course>9.92</course>
  <speed>0.07071067811865475</speed>
  <fix>3d</fix>
</trkpt>
<trkpt lat="-27.2744388" lon="151.2900639">
  <ele>364.28</ele>
  <time>2026-09-01T19:57:18Z</time>
  <course>207.08</course>
  <speed>0.07</speed>
  <fix>3d</fix>
</trkpt>
<trkpt lat="-27.2744391" lon="151.2900642">
  <ele>365.34</ele>
  <time>2026-09-01T19:57:18Z</time>
  <course>9.91</course>
  <speed>0.07071067811865475</speed>
  <fix>3d</fix>
</trkpt>
<trkpt lat="-27.2744389" lon="151.2900638">
  <ele>364.79</ele>
  <time>2026-09-01T19:57:18Z</time>
  <course>212.13</course>
  <speed>0.06</speed>
  <fix>3d</fix>
</trkpt>
<trkpt lat="-27.2744392" lon="151.2900642">
  <ele>365.59</ele>
  <time>2026-09-01T19:57:18Z</time>
  <course>9.92</course>
  <speed>0.06082762530298219</speed>
  <fix>3d</fix>
</trkpt>
<trkpt lat="-27.2744389" lon="151.2900638">
  <ele>364.79</ele>
  <time>2026-09-01T19:57:18Z</time>
  <course>212.13</course>
  <speed>0.06</speed>
  <fix>3d</fix>
</trkpt>
<trkpt lat="-27.2744392" lon="151.2900641">
  <ele>365.84</ele>
  <time>2026-09-01T19:57:18Z</time>
  <course>9.93</course>
  <speed>0.06</speed>
  <fix>3d</fix>
</trkpt>
<trkpt lat="-27.274439" lon="151.2900637">
  <ele>365.29</ele>
  <time>2026-09-01T19:57:18Z</time>
  <course>218.3</course>
  <speed>0.05</speed>
  <fix>3d</fix>
</trkpt>
<trkpt lat="-27.2744392" lon="151.2900641">
  <ele>366.09</ele>
  <time>2026-09-01T19:57:18Z</time>
  <course>9.94</course>
  <speed>0.05</speed>
  <fix>3d</fix>
</trkpt>
<trkpt lat="-27.274439" lon="151.2900637">
  <ele>365.29</ele>
  <time>2026-09-01T19:57:18Z</time>
  <course>218.3</course>
  <speed>0.05</speed>
  <fix>3d</fix>
</trkpt>
<trkpt lat="-27.2744393" lon="151.290064">
  <ele>366.34</ele>
  <time>2026-09-01T19:57:18Z</time>
  <course>9.94</course>
  <speed>0.05</speed>
  <fix>3d</fix>
</trkpt>
<trkpt lat="-27.2744391" lon="151.2900637">
  <ele>365.79</ele>
  <time>2026-09-01T19:57:18Z</time>
  <course>225.82</course>
  <speed>0.04</speed>
  <fix>3d</fix>
</trkpt>
<trkpt lat="-27.2744393" lon="151.290064">
  <ele>366.59</ele>
  <time>2026-09-01T19:57:18Z</time>
  <course>9.95</course>
  <speed>0.04</speed>
  <fix>3d</fix>
</trkpt>
<trkpt lat="-27.2744391" lon="151.2900637">
  <ele>365.79</ele>
  <time>2026-09-01T19:57:18Z</time>
  <course>225.82</course>
  <speed>0.04</speed>
  <fix>3d</fix>
</trkpt>
<trkpt lat="-27.2744393" lon="151.290064">
  <ele>366.84</ele>
  <time>2026-09-01T19:57:18Z</time>
  <course>9.95</course>
  <speed>0.04</speed>
  <fix>3d</fix>
</trkpt>
<trkpt lat="-27.2744391" lon="151.2900636">
  <ele>366.29</ele>
  <time>2026-09-01T19:57:18Z</time>
  <course>235.95</course>
  <speed>0.03</speed>
  <fix>3d</fix>
</trkpt>
<trkpt lat="-27.2744393" lon="151.2900639">
  <ele>367.09</ele>
  <time>2026-09-01T19:57:18Z</time>
  <course>9.97</course>
  <speed>0.04</speed>
  <fix>3d</fix>
</trkpt>
<trkpt lat="-27.2744391" lon="151.2900636">
  <ele>366.29</ele>
  <time>2026-09-01T19:57:18Z</time>
  <course>235.95</course>
  <speed>0.03</speed>
  <fix>3d</fix>
</trkpt>
<trkpt lat="-27.2744393" lon="151.2900639">
  <ele>367.34</ele>
  <time>2026-09-01T19:57:18Z</time>
  <course>9.99</course>
  <speed>0.03</speed>
  <fix>3d</fix>
</trkpt>
<trkpt lat="-27.2744391" lon="151.2900636">
  <ele>366.79</ele>
  <time>2026-09-01T19:57:18Z</time>
  <course>248.73</course>
  <speed>0.03</speed>
  <fix>3d</fix>
</trkpt>
<trkpt lat="-27.2744393" lon="151.2900639">
  <ele>367.6</ele>
  <time>2026-09-01T19:57:18Z</time>
  <course>10.01</course>
  <speed>0.03</speed>
  <fix>3d</fix>
</trkpt>
<trkpt lat="-27.2744391" lon="151.2900636">
  <ele>366.79</ele>
  <time>2026-09-01T19:57:18Z</time>
  <course>248.73</course>
  <speed>0.03</speed>
  <fix>3d</fix>
</trkpt>
<trkpt lat="-27.2744393" lon="151.2900638">
  <ele>367.85</ele>
  <time>2026-09-01T19:57:18Z</time>
  <course>10.02</course>
  <speed>0.03</speed>
  <fix>3d</fix>
</trkpt>
<trkpt lat="-27.2744392" lon="151.2900635">
  <ele>367.29</ele>
  <time>2026-09-01T19:57:18Z</time>
  <course>262.35</course>
  <speed>0.02</speed>
  <fix>3d</fix>
</trkpt>
<trkpt lat="-27.2744393" lon="151.2900638">
  <ele>368.1</ele>
  <time>2026-09-01T19:57:18Z</time>
  <course>10.05</course>
  <speed>0.02</speed>
  <fix>3d</fix>
</trkpt>
<trkpt lat="-27.2744392" lon="151.2900635">
  <ele>367.29</ele>
  <time>2026-09-01T19:57:18Z</time>
  <course>262.35</course>
  <speed>0.02</speed>
  <fix>3d</fix>
</trkpt>
<trkpt lat="-27.2744393" lon="151.2900638">
  <ele>368.35</ele>
  <time>2026-09-01T19:57:18Z</time>
  <course>10.07</course>
  <speed>0.02</speed>
  <fix>3d</fix>
</trkpt>
<trkpt lat="-27.2744392" lon="151.2900635">
  <ele>367.79</ele>
  <time>2026-09-01T19:57:18Z</time>
  <course>277.9</course>
  <speed>0.02</speed>
  <fix>3d</fix>
</trkpt>
<trkpt lat="-27.2744393" lon="151.2900638">
  <ele>368.6</ele>
  <time>2026-09-01T19:57:18Z</time>
  <course>10.1</course>
  <speed>0.02</speed>
  <fix>3d</fix>
</trkpt>
<trkpt lat="-27.2744392" lon="151.2900635">
  <ele>367.79</ele>
  <time>2026-09-01T19:57:18Z</time>
  <course>277.9</course>
  <speed>0.02</speed>
  <fix>3d</fix>
</trkpt>
<trkpt lat="-27.2744393" lon="151.2900637">
  <ele>368.85</ele>
  <time>2026-09-01T19:57:18Z</time>
  <course>10.13</course>
  <speed>0.02</speed>
  <fix>3d</fix>
</trkpt>
<trkpt lat="-27.2744392" lon="151.2900634">
  <ele>368.29</ele>
  <time>2026-09-01T19:57:18Z</time>
  <course>293.17</course>
  <speed>0.02</speed>
  <fix>3d</fix>
</trkpt>
<trkpt lat="-27.2744393" lon="151.2900637">
  <ele>369.1</ele>
  <time>2026-09-01T19:57:18Z</time>
  <course>10.17</course>
  <speed>0.01</speed>
  <fix>3d</fix>
</trkpt>
<trkpt lat="-27.2744392" lon="151.2900634">
  <ele>368.29</ele>
  <time>2026-09-01T19:57:18Z</time>
  <course>293.17</course>
  <speed>0.02</speed>
  <fix>3d</fix>
</trkpt>
<trkpt lat="-27.2744393" lon="151.2900637">
  <ele>369.35</ele>
  <time>2026-09-01T19:57:18Z</time>
  <course>10.19</course>
  <speed>0.01</speed>
  <fix>3d</fix>
</trkpt>
<trkpt lat="-27.2744392" lon="151.2900633">
  <ele>368.78</ele>
  <time>2026-09-01T19:57:18Z</time>
  <course>304.84</course>
  <speed>0.02</speed>
  <fix>3d</fix>
</trkpt>
<trkpt lat="-27.2744393" lon="151.2900636">
  <ele>369.59</ele>
  <time>2026-09-01T19:57:18Z</time>
  <course>10.22</course>
  <speed>0.01</speed>
  <fix>3d</fix>
</trkpt>
<trkpt lat="-27.2744392" lon="151.2900633">
  <ele>368.78</ele>
  <time>2026-09-01T19:57:18Z</time>
  <course>304.84</course>
  <speed>0.02</speed>
  <fix>3d</fix>
</trkpt>
<trkpt lat="-27.2744393" lon="151.2900636">
  <ele>369.84</ele>
  <time>2026-09-01T19:57:18Z</time>
  <course>10.23</course>
  <speed>0.01</speed>
  <fix>3d</fix>
</trkpt>
<trkpt lat="-27.2744392" lon="151.2900633">
  <ele>369.28</ele>
  <time>2026-09-01T19:57:18Z</time>
  <course>314.08</course>
  <speed>0.02</speed>
  <fix>3d</fix>
</trkpt>
<trkpt lat="-27.2744393" lon="151.2900636">
  <ele>370.09</ele>
  <time>2026-09-01T19:57:18Z</time>
  <course>10.25</course>
  <speed>0.01</speed>
  <fix>3d</fix>
</trkpt>
<trkpt lat="-27.2744392" lon="151.2900633">
  <ele>369.28</ele>
  <time>2026-09-01T19:57:18Z</time>
  <course>314.08</course>
  <speed>0.02</speed>
  <fix>3d</fix>
</trkpt>
<trkpt lat="-27.2744393" lon="151.2900636">
  <ele>370.34</ele>
  <time>2026-09-01T19:57:18Z</time>
  <course>10.26</course>
  <speed>0.01</speed>
  <fix>3d</fix>
</trkpt>
<trkpt lat="-27.2744391" lon="151.2900632">
  <ele>369.78</ele>
  <time>2026-09-01T19:57:18Z</time>
  <course>322.39</course>
  <speed>0.02</speed>
  <fix>3d</fix>
</trkpt>
<trkpt lat="-27.2744393" lon="151.2900635">
  <ele>370.59</ele>
  <time>2026-09-01T19:57:18Z</time>
  <course>10.26</course>
  <speed>0.0</speed>
  <fix>3d</fix>
</trkpt>
<trkpt lat="-27.2744391" lon="151.2900632">
  <ele>369.78</ele>
  <time>2026-09-01T19:57:18Z</time>
  <course>322.39</course>
  <speed>0.02</speed>
  <fix>3d</fix>
</trkpt>
<trkpt lat="-27.2744393" lon="151.2900635">
  <ele>370.83</ele>
  <time>2026-09-01T19:57:18Z</time>
  <course>10.26</course>
  <speed>0.0</speed>
  <fix>3d</fix>
</trkpt>
<trkpt lat="-27.2744391" lon="151.2900632">
  <ele>370.27</ele>
  <time>2026-09-01T19:57:18Z</time>
  <course>330.32</course>
  <speed>0.02</speed>
  <fix>3d</fix>
</trkpt>
<trkpt lat="-27.2744393" lon="151.2900635">
  <ele>371.08</ele>
  <time>2026-09-01T19:57:18Z</time>
  <course>10.28</course>
  <speed>0.0</speed>
  <fix>3d</fix>
</trkpt>
<trkpt lat="-27.2744391" lon="151.2900632">
  <ele>370.27</ele>
  <time>2026-09-01T19:57:18Z</time>
  <course>330.32</course>
  <speed>0.02</speed>
  <fix>3d</fix>
</trkpt>
<trkpt lat="-27.2744393" lon="151.2900635">
  <ele>371.33</ele>
  <time>2026-09-01T19:57:18Z</time>
  <course>10.3</course>
  <speed>0.0</speed>
  <fix>3d</fix>
</trkpt>
<trkpt lat="-27.274439" lon="151.2900632">
  <ele>370.77</ele>
  <time>2026-09-01T19:57:18Z</time>
  <course>335.88</course>
  <speed>0.03</speed>
  <fix>3d</fix>
</trkpt>
<trkpt lat="-27.2744393" lon="151.2900635">
  <ele>371.58</ele>
  <time>2026-09-01T19:57:18Z</time>
  <course>10.33</course>
  <speed>0.0</speed>
  <fix>3d</fix>
</trkpt>
<trkpt lat="-27.274439" lon="151.2900632">
  <ele>370.77</ele>
  <time>2026-09-01T19:57:18Z</time>
  <course>335.88</course>
  <speed>0.03</speed>
  <fix>3d</fix>
</trkpt>
<trkpt lat="-27.2744392" lon="151.2900634">
  <ele>371.83</ele>
  <time>2026-09-01T19:57:18Z</time>
  <course>10.35</course>
  <speed>0.0</speed>
  <fix>3d</fix>
</trkpt>
<trkpt lat="-27.274439" lon="151.2900632">
  <ele>371.27</ele>
  <time>2026-09-01T19:57:18Z</time>
  <course>339.19</course>
  <speed>0.03</speed>
  <fix>3d</fix>
</trkpt>
<trkpt lat="-27.2744392" lon="151.2900634">
  <ele>372.07</ele>
  <time>2026-09-01T19:57:18Z</time>
  <course>10.37</course>
  <speed>0.0</speed>
  <fix>3d</fix>
</trkpt>
<trkpt lat="-27.274439" lon="151.2900632">
  <ele>371.27</ele>
  <time>2026-09-01T19:57:18Z</time>
  <course>339.19</course>
  <speed>0.03</speed>
  <fix>3d</fix>
</trkpt>
<trkpt lat="-27.2744392" lon="151.2900634">
  <ele>372.32</ele>
  <time>2026-09-01T19:57:18Z</time>
  <course>10.38</course>
  <speed>0.0</speed>
  <fix>3d</fix>
</trkpt>
<trkpt lat="-27.2744389" lon="151.2900632">
  <ele>371.77</ele>
  <time>2026-09-01T19:57:18Z</time>
  <course>342.26</course>
  <speed>0.03</speed>
  <fix>3d</fix>
</trkpt>
<trkpt lat="-27.2744392" lon="151.2900634">
  <ele>372.57</ele>
  <time>2026-09-01T19:57:18Z</time>
  <course>10.39</course>
  <speed>0.01</speed>
  <fix>3d</fix>
</trkpt>
<trkpt lat="-27.2744389" lon="151.2900632">
  <ele>371.77</ele>
  <time>2026-09-01T19:57:18Z</time>
  <course>342.26</course>
  <speed>0.03</speed>
  <fix>3d</fix>
</trkpt>
<trkpt lat="-27.2744391" lon="151.2900634">
  <ele>372.82</ele>
  <time>2026-09-01T19:57:18Z</time>
  <course>10.4</course>
  <speed>0.01</speed>
  <fix>3d</fix>
</trkpt>
<trkpt lat="-27.2744389" lon="151.2900632">
  <ele>372.27</ele>
  <time>2026-09-01T19:57:18Z</time>
  <course>346.81</course>
  <speed>0.03</speed>
  <fix>3d</fix>
</trkpt>
<trkpt lat="-27.2744391" lon="151.2900634">
  <ele>373.07</ele>
  <time>2026-09-01T19:57:18Z</time>
  <course>10.4</course>
  <speed>0.01</speed>
  <fix>3d</fix>
</trkpt>
<trkpt lat="-27.2744389" lon="151.2900632">
  <ele>372.27</ele>
  <time>2026-09-01T19:57:18Z</time>
  <course>346.81</course>
  <speed>0.03</speed>
  <fix>3d</fix>
</trkpt>
<trkpt lat="-27.2744391" lon="151.2900634">
  <ele>373.32</ele>
  <time>2026-09-01T19:57:18Z</time>
  <course>10.41</course>
  <speed>0.01414213562373095</speed>
  <fix>3d</fix>
</trkpt>
<trkpt lat="-27.2744388" lon="151.2900632">
  <ele>372.77</ele>
  <time>2026-09-01T19:57:18Z</time>
  <course>352.27</course>
  <speed>0.03</speed>
  <fix>3d</fix>
</trkpt>
<trkpt lat="-27.274439" lon="151.2900634">
  <ele>373.57</ele>
  <time>2026-09-01T19:57:18Z</time>
  <course>10.41</course>
  <speed>0.07280109889280519</speed>
  <fix>3d</fix>
</trkpt>
<trkpt lat="-27.2744388" lon="151.2900632">
  <ele>372.77</ele>
  <time>2026-09-01T19:57:18Z</time>
  <course>352.27</course>
  <speed>0.03</speed>
  <fix>3d</fix>
</trkpt>
<trkpt lat="-27.2744389" lon="151.2900634">
  <ele>373.82</ele>
  <time>2026-09-01T19:57:18Z</time>
  <course>10.4</course>
  <speed>0.194164878389476</speed>
  <fix>3d</fix>
</trkpt>
<trkpt lat="-27.2744387" lon="151.2900632">
  <ele>373.28</ele>
  <time>2026-09-01T19:57:18Z</time>
  <course>3.08</course>
  <speed>0.07</speed>
  <fix>3d</fix>
</trkpt>
<trkpt lat="-27.2744386" lon="151.2900634">
  <ele>374.06</ele>
  <time>2026-09-01T19:57:18Z</time>
  <course>10.35</course>
  <speed>0.3687817782917155</speed>
  <fix>3d</fix>
</trkpt>
<trkpt lat="-27.2744387" lon="151.2900632">
  <ele>373.28</ele>
  <time>2026-09-01T19:57:18Z</time>
  <course>3.08</course>
  <speed>0.07</speed>
  <fix>3d</fix>
</trkpt>
<trkpt lat="-27.2744381" lon="151.2900634">
  <ele>374.29</ele>
  <time>2026-09-01T19:57:18Z</time>
  <course>10.32</course>
  <speed>0.6020797289396147</speed>
  <fix>3d</fix>
</trkpt>
<trkpt lat="-27.2744385" lon="151.2900632">
  <ele>373.77</ele>
  <time>2026-09-01T19:57:18Z</time>
  <course>8.19</course>
  <speed>0.25</speed>
  <fix>3d</fix>
</trkpt>
<trkpt lat="-27.2744374" lon="151.2900636">
  <ele>374.51</ele>
  <time>2026-09-01T19:57:18Z</time>
  <course>10.33</course>
  <speed>0.9060905032059435</speed>
  <fix>3d</fix>
</trkpt>
<trkpt lat="-27.2744385" lon="151.2900632">
  <ele>373.77</ele>
  <time>2026-09-01T19:57:18Z</time>
  <course>8.19</course>
  <speed>0.25</speed>
  <fix>3d</fix>
</trkpt>
<trkpt lat="-27.2744364" lon="151.2900638">
  <ele>374.71</ele>
  <time>2026-09-01T19:57:18Z</time>
  <course>10.33</course>
  <speed>1.2611502686040232</speed>
  <fix>3d</fix>
</trkpt>
<trkpt lat="-27.2744377" lon="151.2900632">
  <ele>374.24</ele>
  <time>2026-09-01T19:57:18Z</time>
  <course>9.34</course>
  <speed>0.66</speed>
  <fix>3d</fix>
</trkpt>
<trkpt lat="-27.2744351" lon="151.290064">
  <ele>374.88</ele>
  <time>2026-09-01T19:57:18Z</time>
  <course>10.34</course>
  <speed>1.6868906307167635</speed>
  <fix>3d</fix>
</trkpt>
<trkpt lat="-27.2744377" lon="151.2900632">
  <ele>374.24</ele>
  <time>2026-09-01T19:57:18Z</time>
  <course>9.34</course>
  <speed>0.66</speed>
  <fix>3d</fix>
</trkpt>
<trkpt lat="-27.2744334" lon="151.2900643">
  <ele>375.02</ele>
  <time>2026-09-01T19:57:18Z</time>
  <course>10.28</course>
  <speed>2.175247112398957</speed>
  <fix>3d</fix>
</trkpt>
<trkpt lat="-27.274436" lon="151.2900636">
  <ele>374.65</ele>
  <time>2026-09-01T19:57:18Z</time>
  <course>9.56</course>
  <speed>1.31</speed>
  <fix>3d</fix>
</trkpt>
<trkpt lat="-27.2744312" lon="151.2900648">
  <ele>375.13</ele>
  <time>2026-09-01T19:57:18Z</time>
  <course>10.18</course>
  <speed>2.732489707208428</speed>
  <fix>3d</fix>
</trkpt>
<trkpt lat="-27.274436" lon="151.2900636">
  <ele>374.65</ele>
  <time>2026-09-01T19:57:18Z</time>
  <course>9.56</course>
  <speed>1.31</speed>
  <fix>3d</fix>
</trkpt>
<trkpt lat="-27.2744285" lon="151.2900652">
  <ele>375.21</ele>
  <time>2026-09-01T19:57:18Z</time>
  <course>9.99</course>
  <speed>3.3193071566216945</speed>
  <fix>3d</fix>
</trkpt>
<trkpt lat="-27.2744329" lon="151.2900641">
  <ele>374.97</ele>
  <time>2026-09-01T19:57:18Z</time>
  <course>9.56</course>
  <speed>2.22</speed>
  <fix>3d</fix>
</trkpt>
<trkpt lat="-27.2744252" lon="151.2900658">
  <ele>375.26</ele>
  <time>2026-09-01T19:57:18Z</time>
  <course>9.74</course>
  <speed>3.916018386065111</speed>
  <fix>3d</fix>
</trkpt>
<trkpt lat="-27.2744329" lon="151.2900641">
  <ele>374.97</ele>
  <time>2026-09-01T19:57:18Z</time>
  <course>9.56</course>
  <speed>2.22</speed>
  <fix>3d</fix>
</trkpt>
<trkpt lat="-27.2744215" lon="151.2900665">
  <ele>375.28</ele>
  <time>2026-09-01T19:57:18Z</time>
  <course>9.38</course>
  <speed>4.520973346526166</speed>
  <fix>3d</fix>
</trkpt>
<trkpt lat="-27.274428" lon="151.2900651">
  <ele>375.16</ele>
  <time>2026-09-01T19:57:18Z</time>
  <course>9.54</course>
  <speed>3.33</speed>
  <fix>3d</fix>
</trkpt>
<trkpt lat="-27.2744172" lon="151.2900673">
  <ele>375.28</ele>
  <time>2026-09-01T19:57:18Z</time>
  <course>9.07</course>
  <speed>5.126012095186667</speed>
  <fix>3d</fix>
</trkpt>
<trkpt lat="-27.274428" lon="151.2900651">
  <ele>375.16</ele>
  <time>2026-09-01T19:57:18Z</time>
  <course>9.54</course>
  <speed>3.33</speed>
  <fix>3d</fix>
</trkpt>
<trkpt lat="-27.2744124" lon="151.2900681">
  <ele>375.27</ele>
  <time>2026-09-01T19:57:18Z</time>
  <course>8.98</course>
  <speed>5.73110809529885</speed>
  <fix>3d</fix>
</trkpt>
<trkpt lat="-27.274421" lon="151.2900664">
  <ele>375.25</ele>
  <time>2026-09-01T19:57:18Z</time>
  <course>9.37</course>
  <speed>4.52</speed>
  <fix>3d</fix>
</trkpt>
<trkpt lat="-27.274407" lon="151.290069">
  <ele>375.26</ele>
  <time>2026-09-01T19:57:18Z</time>
  <course>8.93</course>
  <speed>6.334705991598979</speed>
  <fix>3d</fix>
</trkpt>
<trkpt lat="-27.274421" lon="151.2900664">
  <ele>375.25</ele>
  <time>2026-09-01T19:57:18Z</time>
  <course>9.37</course>
  <speed>4.52</speed>
  <fix>3d</fix>
</trkpt>
<trkpt lat="-27.2744012" lon="151.29007">
  <ele>375.23</ele>
  <time>2026-09-01T19:57:18Z</time>
  <course>8.9</course>
  <speed>6.918612577677695</speed>
  <fix>3d</fix>
</trkpt>
<trkpt lat="-27.2744119" lon="151.290068">
  <ele>375.25</ele>
  <time>2026-09-01T19:57:18Z</time>
  <course>9.06</course>
  <speed>5.73</speed>
  <fix>3d</fix>
</trkpt>
<trkpt lat="-27.2743948" lon="151.2900711">
  <ele>375.21</ele>
  <time>2026-09-01T19:57:18Z</time>
  <course>8.8</course>
  <speed>7.510985288229501</speed>
  <fix>3d</fix>
</trkpt>
<trkpt lat="-27.2744119" lon="151.290068">
  <ele>375.25</ele>
  <time>2026-09-01T19:57:18Z</time>
  <course>9.06</course>
  <speed>5.73</speed>
  <fix>3d</fix>
</trkpt>
<trkpt lat="-27.2743879" lon="151.2900722">
  <ele>375.19</ele>
  <time>2026-09-01T19:57:18Z</time>
  <course>8.49</course>
  <speed>8.09355916763447</speed>
  <fix>3d</fix>
</trkpt>
<trkpt lat="-27.2744007" lon="151.29007">
  <ele>375.21</ele>
  <time>2026-09-01T19:57:18Z</time>
  <course>8.7</course>
  <speed>6.93</speed>
  <fix>3d</fix>
</trkpt>
<trkpt lat="-27.2743805" lon="151.2900734">
  <ele>375.17</ele>
  <time>2026-09-01T19:57:18Z</time>
  <course>8.19</course>
  <speed>8.674802591413824</speed>
  <fix>3d</fix>
</trkpt>
<trkpt lat="-27.2744007" lon="151.29007">
  <ele>375.21</ele>
  <time>2026-09-01T19:57:18Z</time>
  <course>8.7</course>
  <speed>6.93</speed>
  <fix>3d</fix>
</trkpt>
<trkpt lat="-27.2743725" lon="151.2900746">
  <ele>375.15</ele>
  <time>2026-09-01T19:57:18Z</time>
  <course>7.94</course>
  <speed>9.244895889083878</speed>
  <fix>3d</fix>
</trkpt>
<trkpt lat="-27.2743873" lon="151.2900723">
  <ele>375.16</ele>
  <time>2026-09-01T19:57:18Z</time>
  <course>8.3</course>
  <speed>8.11</speed>
  <fix>3d</fix>
</trkpt>
<trkpt lat="-27.274364" lon="151.2900759">
  <ele>375.14</ele>
  <time>2026-09-01T19:57:18Z</time>
  <course>7.66</course>
  <speed>9.79400326730597</speed>
  <fix>3d</fix>
</trkpt>
<trkpt lat="-27.2743873" lon="151.2900723">
  <ele>375.16</ele>
  <time>2026-09-01T19:57:18Z</time>
  <course>8.3</course>
  <speed>8.11</speed>
  <fix>3d</fix>
</trkpt>
<trkpt lat="-27.2743551" lon="151.2900772">
  <ele>375.13</ele>
  <time>2026-09-01T19:57:18Z</time>
  <course>7.32</course>
  <speed>10.323453879395208</speed>
  <fix>3d</fix>
</trkpt>
<trkpt lat="-27.2743718" lon="151.2900747">
  <ele>375.12</ele>
  <time>2026-09-01T19:57:18Z</time>
  <course>7.86</course>
  <speed>9.25</speed>
  <fix>3d</fix>
</trkpt>
<trkpt lat="-27.2743457" lon="151.2900785">
  <ele>375.13</ele>
  <time>2026-09-01T19:57:18Z</time>
  <course>7.11</course>
  <speed>10.819597959258928</speed>
  <fix>3d</fix>
</trkpt>
<trkpt lat="-27.2743718" lon="151.2900747">
  <ele>375.12</ele>
  <time>2026-09-01T19:57:18Z</time>
  <course>7.86</course>
  <speed>9.25</speed>
  <fix>3d</fix>
</trkpt>
<trkpt lat="-27.2743358" lon="151.2900799">
  <ele>375.12</ele>
  <time>2026-09-01T19:57:18Z</time>
  <course>6.89</course>
  <speed>11.287448781722112</speed>
  <fix>3d</fix>
</trkpt>
<trkpt lat="-27.2743543" lon="151.2900773">
  <ele>375.09</ele>
  <time>2026-09-01T19:57:18Z</time>
  <course>7.33</course>
  <speed>10.33</speed>
  <fix>3d</fix>
</trkpt>
<trkpt lat="-27.2743256" lon="151.2900812">
  <ele>375.12</ele>
  <time>2026-09-01T19:57:18Z</time>
  <course>6.6</course>
  <speed>11.754352385393252</speed>
  <fix>3d</fix>
</trkpt>
<trkpt lat="-27.2743543" lon="151.2900773">
  <ele>375.09</ele>
  <time>2026-09-01T19:57:18Z</time>
  <course>7.33</course>
  <speed>10.33</speed>
  <fix>3d</fix>
</trkpt>
<trkpt lat="-27.2743149" lon="151.2900825">
  <ele>375.12</ele>
  <time>2026-09-01T19:57:18Z</time>
  <course>6.21</course>
  <speed>12.209406209967788</speed>
  <fix>3d</fix>
</trkpt>
<trkpt lat="-27.274335" lon="151.29008">
  <ele>375.08</ele>
  <time>2026-09-01T19:57:18Z</time>
  <course>6.77</course>
  <speed>11.32</speed>
  <fix>3d</fix>
</trkpt>
<trkpt lat="-27.2743038" lon="151.2900839">
  <ele>375.11</ele>
  <time>2026-09-01T19:57:18Z</time>
  <course>5.87</course>
  <speed>12.665863571032178</speed>
  <fix>3d</fix>
</trkpt>
<trkpt lat="-27.274335" lon="151.29008">
  <ele>375.08</ele>
  <time>2026-09-01T19:57:18Z</time>
  <course>6.77</course>
  <speed>11.32</speed>
  <fix>3d</fix>
</trkpt>
<trkpt lat="-27.2742923" lon="151.2900851">
  <ele>375.11</ele>
  <time>2026-09-01T19:57:18Z</time>
  <course>5.61</course>
  <speed>13.120640228281545</speed>
  <fix>3d</fix>
</trkpt>
<trkpt lat="-27.2743139" lon="151.2900827">
  <ele>375.08</ele>
  <time>2026-09-01T19:57:18Z</time>
  <course>6.18</course>
  <speed>12.25</speed>
  <fix>3d</fix>
</trkpt>
<trkpt lat="-27.2742804" lon="151.2900864">
  <ele>375.1</ele>
  <time>2026-09-01T19:57:19Z</time>
  <course>5.29</course>
  <speed>13.55591752704331</speed>
  <fix>3d</fix>
</trkpt>
<trkpt lat="-27.2743139" lon="151.2900827">
  <ele>375.08</ele>
  <time>2026-09-01T19:57:19Z</time>
  <course>6.18</course>
  <speed>12.25</speed>
  <fix>3d</fix>
</trkpt>
<trkpt lat="-27.2742681" lon="151.2900877">
  <ele>375.1</ele>
  <time>2026-09-01T19:57:19Z</time>
  <course>5.02</course>
  <speed>14.001517774869981</speed>
  <fix>3d</fix>
</trkpt>
<trkpt lat="-27.2742912" lon="151.2900854">
  <ele>375.07</ele>
  <time>2026-09-01T19:57:19Z</time>
  <course>5.56</course>
  <speed>13.16</speed>
  <fix>3d</fix>
</trkpt>
<trkpt lat="-27.2742553" lon="151.2900889">
  <ele>375.09</ele>
  <time>2026-09-01T19:57:19Z</time>
  <course>4.73</course>
  <speed>14.437485930729077</speed>
  <fix>3d</fix>
</trkpt>
<trkpt lat="-27.2742912" lon="151.2900854">
  <ele>375.07</ele>
  <time>2026-09-01T19:57:19Z</time>
  <course>5.56</course>
  <speed>13.16</speed>
  <fix>3d</fix>
</trkpt>
<trkpt lat="-27.2742422" lon="151.29009">
  <ele>375.08</ele>
  <time>2026-09-01T19:57:19Z</time>
  <course>4.39</course>
  <speed>14.862260931634864</speed>
  <fix>3d</fix>
</trkpt>
<trkpt lat="-27.2742669" lon="151.2900879">
  <ele>375.06</ele>
  <time>2026-09-01T19:57:19Z</time>
  <course>4.96</course>
  <speed>14.05</speed>
  <fix>3d</fix>
</trkpt>
<trkpt lat="-27.2742286" lon="151.2900912">
  <ele>375.07</ele>
  <time>2026-09-01T19:57:19Z</time>
  <course>4.1</course>
  <speed>15.287491618967449</speed>
  <fix>3d</fix>
</trkpt>
<trkpt lat="-27.2742669" lon="151.2900879">
  <ele>375.06</ele>
  <time>2026-09-01T19:57:19Z</time>
  <course>4.96</course>
  <speed>14.05</speed>
  <fix>3d</fix>
</trkpt>
<trkpt lat="-27.2742147" lon="151.2900922">
  <ele>375.05</ele>
  <time>2026-09-01T19:57:19Z</time>
  <course>3.83</course>
  <speed>15.69253644252579</speed>
  <fix>3d</fix>
</trkpt>
<trkpt lat="-27.2742409" lon="151.2900902">
  <ele>375.03</ele>
  <time>2026-09-01T19:57:19Z</time>
  <course>4.35</course>
  <speed>14.92</speed>
  <fix>3d</fix>
</trkpt>
<trkpt lat="-27.2742005" lon="151.2900933">
  <ele>375.03</ele>
  <time>2026-09-01T19:57:19Z</time>
  <course>3.67</course>
  <speed>16.07868464769429</speed>
  <fix>3d</fix>
</trkpt>
<trkpt lat="-27.2742409" lon="151.2900902">
  <ele>375.03</ele>
  <time>2026-09-01T19:57:19Z</time>
  <course>4.35</course>
  <speed>14.92</speed>
  <fix>3d</fix>
</trkpt>
<trkpt lat="-27.2741859" lon="151.2900942">
  <ele>375.01</ele>
  <time>2026-09-01T19:57:19Z</time>
  <course>3.59</course>
  <speed>16.455737601213748</speed>
  <fix>3d</fix>
</trkpt>
<trkpt lat="-27.2742135" lon="151.2900924">
  <ele>375.01</ele>
  <time>2026-09-01T19:57:19Z</time>
  <course>3.74</course>
  <speed>15.74</speed>
  <fix>3d</fix>
</trkpt>
<trkpt lat="-27.2741711" lon="151.2900951">
  <ele>374.99</ele>
  <time>2026-09-01T19:57:19Z</time>
  <course>3.38</course>
  <speed>16.822511703072166</speed>
  <fix>3d</fix>
</trkpt>
<trkpt lat="-27.2742135" lon="151.2900924">
  <ele>375.01</ele>
  <time>2026-09-01T19:57:19Z</time>
  <course>3.74</course>
  <speed>15.74</speed>
  <fix>3d</fix>
</trkpt>
<trkpt lat="-27.2741558" lon="151.290096">
  <ele>374.97</ele>
  <time>2026-09-01T19:57:19Z</time>
  <course>3.07</course>
  <speed>17.17910649597353</speed>
  <fix>3d</fix>
</trkpt>
<trkpt lat="-27.2741845" lon="151.2900944">
  <ele>374.97</ele>
  <time>2026-09-01T19:57:19Z</time>
  <course>3.2</course>
  <speed>16.52</speed>
  <fix>3d</fix>
</trkpt>
<trkpt lat="-27.2741402" lon="151.2900968">
  <ele>374.95</ele>
  <time>2026-09-01T19:57:19Z</time>
  <course>2.76</course>
  <speed>17.51606405560336</speed>
  <fix>3d</fix>
</trkpt>
<trkpt lat="-27.2741845" lon="151.2900944">
  <ele>374.97</ele>
  <time>2026-09-01T19:57:19Z</time>
  <course>3.2</course>
  <speed>16.52</speed>
  <fix>3d</fix>
</trkpt>
<trkpt lat="-27.2741243" lon="151.2900975">
  <ele>374.92</ele>
  <time>2026-09-01T19:57:19Z</time>
  <course>2.5</course>
  <speed>17.853338623349977</speed>
  <fix>3d</fix>
</trkpt>
<trkpt lat="-27.2741542" lon="151.2900962">
  <ele>374.94</ele>
  <time>2026-09-01T19:57:19Z</time>
  <course>2.7</course>
  <speed>17.25</speed>
  <fix>3d</fix>
</trkpt>
<trkpt lat="-27.274108" lon="151.2900982">
  <ele>374.9</ele>
  <time>2026-09-01T19:57:19Z</time>
  <course>2.28</course>
  <speed>18.170924577467158</speed>
  <fix>3d</fix>
</trkpt>
<trkpt lat="-27.2741542" lon="151.2900962">
  <ele>374.94</ele>
  <time>2026-09-01T19:57:19Z</time>
  <course>2.7</course>
  <speed>17.25</speed>
  <fix>3d</fix>
</trkpt>
<trkpt lat="-27.2740916" lon="151.2900988">
  <ele>374.89</ele>
  <time>2026-09-01T19:57:19Z</time>
  <course>2.02</course>
  <speed>18.468492087877667</speed>
  <fix>3d</fix>
</trkpt>
<trkpt lat="-27.2741227" lon="151.2900977">
  <ele>374.9</ele>
  <time>2026-09-01T19:57:19Z</time>
  <course>2.21</course>
  <speed>17.92</speed>
  <fix>3d</fix>
</trkpt>
<trkpt lat="-27.2740749" lon="151.2900994">
  <ele>374.87</ele>
  <time>2026-09-01T19:57:19Z</time>
  <course>1.78</course>
  <speed>18.75640157386272</speed>
  <fix>3d</fix>
</trkpt>
<trkpt lat="-27.2741227" lon="151.2900977">
  <ele>374.9</ele>
  <time>2026-09-01T19:57:19Z</time>
  <course>2.21</course>
  <speed>17.92</speed>
  <fix>3d</fix>
</trkpt>
<trkpt lat="-27.274058" lon="151.2900998">
  <ele>374.87</ele>
  <time>2026-09-01T19:57:19Z</time>
  <course>1.49</course>
  <speed>19.034634222910615</speed>
  <fix>3d</fix>
</trkpt>
<trkpt lat="-27.2740899" lon="151.290099">
  <ele>374.87</ele>
  <time>2026-09-01T19:57:19Z</time>
  <course>1.73</course>
  <speed>18.54</speed>
  <fix>3d</fix>
</trkpt>
<trkpt lat="-27.2740408" lon="151.2901002">
  <ele>374.86</ele>
  <time>2026-09-01T19:57:19Z</time>
  <course>1.2</course>
  <speed>19.29317495903668</speed>
  <fix>3d</fix>
</trkpt>
<trkpt lat="-27.2740899" lon="151.290099">
  <ele>374.87</ele>
  <time>2026-09-01T19:57:19Z</time>
  <course>1.73</course>
  <speed>18.54</speed>
  <fix>3d</fix>
</trkpt>
<trkpt lat="-27.2740235" lon="151.2901006">
  <ele>374.86</ele>
  <time>2026-09-01T19:57:19Z</time>
  <course>1.07</course>
  <speed>19.532007065327413</speed>
  <fix>3d</fix>
</trkpt>
<trkpt lat="-27.274056" lon="151.2901">
  <ele>374.84</ele>
  <time>2026-09-01T19:57:19Z</time>
  <course>1.27</course>
  <speed>19.11</speed>
  <fix>3d</fix>
</trkpt>
<trkpt lat="-27.2740059" lon="151.2901008">
  <ele>374.86</ele>
  <time>2026-09-01T19:57:19Z</time>
  <course>0.91</course>
  <speed>19.77111529479306</speed>
  <fix>3d</fix>
</trkpt>
<trkpt lat="-27.274056" lon="151.2901">
  <ele>374.84</ele>
  <time>2026-09-01T19:57:19Z</time>
  <course>1.27</course>
  <speed>19.11</speed>
  <fix>3d</fix>
</trkpt>
<trkpt lat="-27.273988" lon="151.290101">
  <ele>374.87</ele>
  <time>2026-09-01T19:57:19Z</time>
  <course>0.83</course>
  <speed>19.990562773468884</speed>
  <fix>3d</fix>
</trkpt>
<trkpt lat="-27.2740211" lon="151.2901006">
  <ele>374.84</ele>
  <time>2026-09-01T19:57:19Z</time>
  <course>0.82</course>
  <speed>19.63</speed>
  <fix>3d</fix>
</trkpt>
<trkpt lat="-27.27397" lon="151.2901012">
  <ele>374.88</ele>
  <time>2026-09-01T19:57:19Z</time>
  <course>0.64</course>
  <speed>20.210247400761823</speed>
  <fix>3d</fix>
</trkpt>
<trkpt lat="-27.2740211" lon="151.2901006">
  <ele>374.84</ele>
  <time>2026-09-01T19:57:19Z</time>
  <course>0.82</course>
  <speed>19.63</speed>
  <fix>3d</fix>
</trkpt>
<trkpt lat="-27.2739518" lon="151.2901012">
  <ele>374.9</ele>
  <time>2026-09-01T19:57:19Z</time>
  <course>0.43</course>
  <speed>20.420039177239595</speed>
  <fix>3d</fix>
</trkpt>
<trkpt lat="-27.2739854" lon="151.2901011">
  <ele>374.86</ele>
  <time>2026-09-01T19:57:19Z</time>
  <course>0.42</course>
  <speed>20.1</speed>
  <fix>3d</fix>
</trkpt>
<trkpt lat="-27.2739334" lon="151.2901012">
  <ele>374.92</ele>
  <time>2026-09-01T19:57:19Z</time>
  <course>0.18</course>
  <speed>20.62000242483012</speed>
  <fix>3d</fix>
</trkpt>
<trkpt lat="-27.2739854" lon="151.2901011">
  <ele>374.86</ele>
  <time>2026-09-01T19:57:19Z</time>
  <course>0.42</course>
  <speed>20.1</speed>
  <fix>3d</fix>
</trkpt>
<trkpt lat="-27.2739148" lon="151.2901012">
  <ele>374.94</ele>
  <time>2026-09-01T19:57:19Z</time>
  <course>359.95</course>
  <speed>20.810117731526653</speed>
  <fix>3d</fix>
</trkpt>
<trkpt lat="-27.2739489" lon="151.2901013">
  <ele>374.89</ele>
  <time>2026-09-01T19:57:19Z</time>
  <course>0.09</course>
  <speed>20.54</speed>
  <fix>3d</fix>
</trkpt>
<trkpt lat="-27.273896" lon="151.2901011">
  <ele>374.96</ele>
  <time>2026-09-01T19:57:19Z</time>
  <course>359.76</course>
  <speed>20.98040276067168</speed>
  <fix>3d</fix>
</trkpt>
<trkpt lat="-27.2739489" lon="151.2901013">
  <ele>374.89</ele>
  <time>2026-09-01T19:57:19Z</time>
  <course>0.09</course>
  <speed>20.54</speed>
  <fix>3d</fix>
</trkpt>
<trkpt lat="-27.2738771" lon="151.290101">
  <ele>374.99</ele>
  <time>2026-09-01T19:57:19Z</time>
  <course>359.64</course>
  <speed>21.160765581613536</speed>
  <fix>3d</fix>
</trkpt>
<trkpt lat="-27.2739117" lon="151.2901013">
  <ele>374.93</ele>
  <time>2026-09-01T19:57:19Z</time>
  <course>359.75</course>
  <speed>20.93</speed>
  <fix>3d</fix>
</trkpt>
<trkpt lat="-27.273858" lon="151.2901008">
  <ele>375.01</ele>
  <time>2026-09-01T19:57:19Z</time>
  <course>359.55</course>
  <speed>21.321240583043004</speed>
  <fix>3d</fix>
</trkpt>
<trkpt lat="-27.2739117" lon="151.2901013">
  <ele>374.93</ele>
  <time>2026-09-01T19:57:19Z</time>
  <course>359.75</course>
  <speed>20.93</speed>
  <fix>3d</fix>
</trkpt>
<trkpt lat="-27.2738387" lon="151.2901006">
  <ele>375.04</ele>
  <time>2026-09-01T19:57:19Z</time>
  <course>359.45</course>
  <speed>21.481824875927092</speed>
  <fix>3d</fix>
</trkpt>
<trkpt lat="-27.2738737" lon="151.290101">
  <ele>374.98</ele>
  <time>2026-09-01T19:57:19Z</time>
  <course>359.45</course>
  <speed>21.29</speed>
  <fix>3d</fix>
</trkpt>
<trkpt lat="-27.2738193" lon="151.2901003">
  <ele>375.06</ele>
  <time>2026-09-01T19:57:19Z</time>
  <course>359.37</course>
  <speed>21.63251719056291</speed>
  <fix>3d</fix>
</trkpt>
<trkpt lat="-27.2738737" lon="151.290101">
  <ele>374.98</ele>
  <time>2026-09-01T19:57:19Z</time>
  <course>359.45</course>
  <speed>21.29</speed>
  <fix>3d</fix>
</trkpt>
<trkpt lat="-27.2737998" lon="151.2900999">
  <ele>375.09</ele>
  <time>2026-09-01T19:57:19Z</time>
  <course>359.21</course>
  <speed>21.78314256483669</speed>
  <fix>3d</fix>
</trkpt>
<trkpt lat="-27.2738352" lon="151.2901006">
  <ele>375.04</ele>
  <time>2026-09-01T19:57:19Z</time>
  <course>359.18</course>
  <speed>21.61</speed>
  <fix>3d</fix>
</trkpt>
<trkpt lat="-27.2737801" lon="151.2900995">
  <ele>375.12</ele>
  <time>2026-09-01T19:57:19Z</time>
  <course>359.17</course>
  <speed>21.913650996582014</speed>
  <fix>3d</fix>
</trkpt>
<trkpt lat="-27.2738352" lon="151.2901006">
  <ele>375.04</ele>
  <time>2026-09-01T19:57:19Z</time>
  <course>359.18</course>
  <speed>21.61</speed>
  <fix>3d</fix>
</trkpt>
<trkpt lat="-27.2737603" lon="151.2900991">
  <ele>375.15</ele>
  <time>2026-09-01T19:57:19Z</time>
  <course>359.12</course>
  <speed>22.054192345220894</speed>
  <fix>3d</fix>
</trkpt>
<trkpt lat="-27.2737961" lon="151.2900999">
  <ele>375.1</ele>
  <time>2026-09-01T19:57:19Z</time>
  <course>358.96</course>
  <speed>21.91</speed>
  <fix>3d</fix>
</trkpt>
<trkpt lat="-27.2737404" lon="151.2900986">
  <ele>375.18</ele>
  <time>2026-09-01T19:57:19Z</time>
  <course>359.02</course>
  <speed>22.184769550301848</speed>
  <fix>3d</fix>
</trkpt>
<trkpt lat="-27.2737961" lon="151.2900999">
  <ele>375.1</ele>
  <time>2026-09-01T19:57:19Z</time>
  <course>358.96</course>
  <speed>21.91</speed>
  <fix>3d</fix>
</trkpt>
<trkpt lat="-27.2737202" lon="151.2900982">
  <ele>375.21</ele>
  <time>2026-09-01T19:57:19Z</time>
  <course>358.93</course>
  <speed>22.305382758428514</speed>
  <fix>3d</fix>
</trkpt>
<trkpt lat="-27.2737565" lon="151.290099">
  <ele>375.17</ele>
  <time>2026-09-01T19:57:19Z</time>
  <course>358.79</course>
  <speed>22.18</speed>
  <fix>3d</fix>
</trkpt>
<trkpt lat="-27.2737" lon="151.2900976">
  <ele>375.25</ele>
  <time>2026-09-01T19:57:19Z</time>
  <course>358.82</course>
  <speed>22.41603220911319</speed>
  <fix>3d</fix>
</trkpt>
<trkpt lat="-27.2737565" lon="151.290099">
  <ele>375.17</ele>
  <time>2026-09-01T19:57:19Z</time>
  <course>358.79</course>
  <speed>22.18</speed>
  <fix>3d</fix>
</trkpt>
<trkpt lat="-27.2736798" lon="151.2900971">
  <ele>375.28</ele>
  <time>2026-09-01T19:57:19Z</time>
  <course>358.73</course>
  <speed>22.52671525100808</speed>
  <fix>3d</fix>
</trkpt>
<trkpt lat="-27.2737164" lon="151.290098">
  <ele>375.24</ele>
  <time>2026-09-01T19:57:19Z</time>
  <course>358.65</course>
  <speed>22.43</speed>
  <fix>3d</fix>
</trkpt>
<trkpt lat="-27.2736595" lon="151.2900965">
  <ele>375.31</ele>
  <time>2026-09-01T19:57:19Z</time>
  <course>358.69</course>
  <speed>22.62718055790425</speed>
  <fix>3d</fix>
</trkpt>
<trkpt lat="-27.2737164" lon="151.290098">
  <ele>375.24</ele>
  <time>2026-09-01T19:57:19Z</time>
  <course>358.65</course>
  <speed>22.43</speed>
  <fix>3d</fix>
</trkpt>
<trkpt lat="-27.273639" lon="151.2900959">
  <ele>375.34</ele>
  <time>2026-09-01T19:57:19Z</time>
  <course>358.66</course>
  <speed>22.727921154386294</speed>
  <fix>3d</fix>
</trkpt>
<trkpt lat="-27.2736759" lon="151.2900968">
  <ele>375.3</ele>
  <time>2026-09-01T19:57:19Z</time>
  <course>358.52</course>
  <speed>22.65</speed>
  <fix>3d</fix>
</trkpt>
<trkpt lat="-27.2736185" lon="151.2900953">
  <ele>375.37</ele>
  <time>2026-09-01T19:57:19Z</time>
  <course>358.59</course>
  <speed>22.82842088275052</speed>
  <fix>3d</fix>
</trkpt>
<trkpt lat="-27.2736759" lon="151.2900968">
  <ele>375.3</ele>
  <time>2026-09-01T19:57:19Z</time>
  <course>358.52</course>
  <speed>22.65</speed>
  <fix>3d</fix>
</trkpt>
<trkpt lat="-27.2735979" lon="151.2900946">
  <ele>375.39</ele>
  <time>2026-09-01T19:57:19Z</time>
  <course>358.51</course>
  <speed>22.928933686501864</speed>
  <fix>3d</fix>
</trkpt>
<trkpt lat="-27.2736349" lon="151.2900956">
  <ele>375.37</ele>
  <time>2026-09-01T19:57:19Z</time>
  <course>358.41</course>
  <speed>22.86</speed>
  <fix>3d</fix>
</trkpt>
<trkpt lat="-27.2735772" lon="151.2900939">
  <ele>375.42</ele>
  <time>2026-09-01T19:57:19Z</time>
  <course>358.39</course>
  <speed>23.019178960162762</speed>
  <fix>3d</fix>
</trkpt>
<trkpt lat="-27.2736349" lon="151.2900956">
  <ele>375.37</ele>
  <time>2026-09-01T19:57:19Z</time>
  <course>358.41</course>
  <speed>22.86</speed>
  <fix>3d</fix>
</trkpt>
<trkpt lat="-27.2735564" lon="151.2900932">
  <ele>375.44</ele>
  <time>2026-09-01T19:57:19Z</time>
  <course>358.38</course>
  <speed>23.109714407581933</speed>
  <fix>3d</fix>
</trkpt>
<trkpt lat="-27.2735937" lon="151.2900943">
  <ele>375.42</ele>
  <time>2026-09-01T19:57:19Z</time>
  <course>358.32</course>
  <speed>23.05</speed>
  <fix>3d</fix>
</trkpt>
<trkpt lat="-27.2735356" lon="151.2900925">
  <ele>375.47</ele>
  <time>2026-09-01T19:57:19Z</time>
  <course>358.37</course>
  <speed>23.200262929544568</speed>
  <fix>3d</fix>
</trkpt>
<trkpt lat="-27.2735937" lon="151.2900943">
  <ele>375.42</ele>
  <time>2026-09-01T19:57:19Z</time>
  <course>358.32</course>
  <speed>23.05</speed>
  <fix>3d</fix>
</trkpt>
<trkpt lat="-27.2735146" lon="151.2900918">
  <ele>375.49</ele>
  <time>2026-09-01T19:57:19Z</time>
  <course>358.29</course>
  <speed>23.280526196802338</speed>
  <fix>3d</fix>
</trkpt>
<trkpt lat="-27.2735521" lon="151.2900929">
  <ele>375.47</ele>
  <time>2026-09-01T19:57:19Z</time>
  <course>358.24</course>
  <speed>23.23</speed>
  <fix>3d</fix>
</trkpt>
<trkpt lat="-27.2734936" lon="151.2900911">
  <ele>375.51</ele>
  <time>2026-09-01T19:57:19Z</time>
  <course>358.27</course>
  <speed>23.361098005016803</speed>
  <fix>3d</fix>
</trkpt>
<trkpt lat="-27.2735521" lon="151.2900929">
  <ele>375.47</ele>
  <time>2026-09-01T19:57:19Z</time>
  <course>358.24</course>
  <speed>23.23</speed>
  <fix>3d</fix>
</trkpt>
<trkpt lat="-27.2734725" lon="151.2900903">
  <ele>375.52</ele>
  <time>2026-09-01T19:57:19Z</time>
  <course>358.24</course>
  <speed>23.4413694139229</speed>
  <fix>3d</fix>
</trkpt>
<trkpt lat="-27.2735103" lon="151.2900914">
  <ele>375.52</ele>
  <time>2026-09-01T19:57:19Z</time>
  <course>358.18</course>
  <speed>23.4</speed>
  <fix>3d</fix>
</trkpt>
<trkpt lat="-27.2734513" lon="151.2900895">
  <ele>375.54</ele>
  <time>2026-09-01T19:57:19Z</time>
  <course>358.24</course>
  <speed>23.511648177020685</speed>
  <fix>3d</fix>
</trkpt>
<trkpt lat="-27.2735103" lon="151.2900914">
  <ele>375.52</ele>
  <time>2026-09-01T19:57:19Z</time>
  <course>358.18</course>
  <speed>23.4</speed>
  <fix>3d</fix>
</trkpt>
<trkpt lat="-27.2734301" lon="151.2900887">
  <ele>375.55</ele>
  <time>2026-09-01T19:57:19Z</time>
  <course>358.28</course>
  <speed>23.591924465799735</speed>
  <fix>3d</fix>
</trkpt>
<trkpt lat="-27.2734681" lon="151.2900899">
  <ele>375.56</ele>
  <time>2026-09-01T19:57:19Z</time>
  <course>358.13</course>
  <speed>23.55</speed>
  <fix>3d</fix>
</trkpt>
<trkpt lat="-27.2734088" lon="151.290088">
  <ele>375.57</ele>
  <time>2026-09-01T19:57:19Z</time>
  <course>358.29</course>
  <speed>23.651894215897382</speed>
  <fix>3d</fix>
</trkpt>
<trkpt lat="-27.2734681" lon="151.2900899">
  <ele>375.56</ele>
  <time>2026-09-01T19:57:19Z</time>
  <course>358.13</course>
  <speed>23.55</speed>
  <fix>3d</fix>
</trkpt>
<trkpt lat="-27.2733874" lon="151.2900872">
  <ele>375.58</ele>
  <time>2026-09-01T19:57:19Z</time>
  <course>358.24</course>
  <speed>23.722177387415346</speed>
  <fix>3d</fix>
</trkpt>
<trkpt lat="-27.2734257" lon="151.2900883">
  <ele>375.59</ele>
  <time>2026-09-01T19:57:19Z</time>
  <course>358.1</course>
  <speed>23.69</speed>
  <fix>3d</fix>
</trkpt>
<trkpt lat="-27.273366" lon="151.2900864">
  <ele>375.59</ele>
  <time>2026-09-01T19:57:19Z</time>
  <course>358.21</course>
  <speed>23.792141559767163</speed>
  <fix>3d</fix>
</trkpt>
<trkpt lat="-27.2734257" lon="151.2900883">
  <ele>375.59</ele>
  <time>2026-09-01T19:57:19Z</time>
  <course>358.1</course>
  <speed>23.69</speed>
  <fix>3d</fix>
</trkpt>
<trkpt lat="-27.2733445" lon="151.2900855">
  <ele>375.6</ele>
  <time>2026-09-01T19:57:19Z</time>
  <course>358.17</course>
  <speed>23.852431741858105</speed>
  <fix>3d</fix>
</trkpt>
<trkpt lat="-27.273383" lon="151.2900867">
  <ele>375.62</ele>
  <time>2026-09-01T19:57:19Z</time>
  <course>358.08</course>
  <speed>23.82</speed>
  <fix>3d</fix>
</trkpt>
<trkpt lat="-27.273323" lon="151.2900847">
  <ele>375.61</ele>
  <time>2026-09-01T19:57:19Z</time>
  <course>358.09</course>
  <speed>23.912724646095853</speed>
  <fix>3d</fix>
</trkpt>
<trkpt lat="-27.273383" lon="151.2900867">
  <ele>375.62</ele>
  <time>2026-09-01T19:57:19Z</time>
  <course>358.08</course>
  <speed>23.82</speed>
  <fix>3d</fix>
</trkpt>
<trkpt lat="-27.2733016" lon="151.2900839">
  <ele>375.61</ele>
  <time>2026-09-01T19:57:19Z</time>
  <course>358.08</course>
  <speed>23.973020251941556</speed>
  <fix>3d</fix>
</trkpt>
<trkpt lat="-27.2733402" lon="151.2900851">
  <ele>375.65</ele>
  <time>2026-09-01T19:57:19Z</time>
  <course>358.07</course>
  <speed>23.94</speed>
  <fix>3d</fix>
</trkpt>
<trkpt lat="-27.27328" lon="151.2900831">
  <ele>375.62</ele>
  <time>2026-09-01T19:57:19Z</time>
  <course>358.13</course>
  <speed>24.032987746012772</speed>
  <fix>3d</fix>
</trkpt>
<trkpt lat="-27.2733402" lon="151.2900851">
  <ele>375.65</ele>
  <time>2026-09-01T19:57:19Z</time>
  <course>358.07</course>
  <speed>23.94</speed>
  <fix>3d</fix>
</trkpt>
<trkpt lat="-27.2732583" lon="151.2900822">
  <ele>375.62</ele>
  <time>2026-09-01T19:57:19Z</time>
  <course>358.2</course>
  <speed>24.0929554019427</speed>
  <fix>3d</fix>
</trkpt>
<trkpt lat="-27.2732971" lon="151.2900834">
  <ele>375.66</ele>
  <time>2026-09-01T19:57:19Z</time>
  <course>358.05</course>
  <speed>24.06</speed>
  <fix>3d</fix>
</trkpt>
<trkpt lat="-27.2732366" lon="151.2900814">
  <ele>375.62</ele>
  <time>2026-09-01T19:57:19Z</time>
  <course>358.2</course>
  <speed>24.14292857132291</speed>
  <fix>3d</fix>
</trkpt>
<trkpt lat="-27.2732971" lon="151.2900834">
  <ele>375.66</ele>
  <time>2026-09-01T19:57:19Z</time>
  <course>358.05</course>
  <speed>24.06</speed>
  <fix>3d</fix>
</trkpt>
<trkpt lat="-27.2732148" lon="151.2900806">
  <ele>375.62</ele>
  <time>2026-09-01T19:57:19Z</time>
  <course>358.18</course>
  <speed>24.202896520871217</speed>
  <fix>3d</fix>
</trkpt>
<trkpt lat="-27.2732537" lon="151.2900818">
  <ele>375.68</ele>
  <time>2026-09-01T19:57:19Z</time>
  <course>358.05</course>
  <speed>24.17</speed>
  <fix>3d</fix>
</trkpt>
<trkpt lat="-27.2731928" lon="151.2900797">
  <ele>375.62</ele>
  <time>2026-09-01T19:57:19Z</time>
  <course>358.22</course>
  <speed>24.252546258073604</speed>
  <fix>3d</fix>
</trkpt>
<trkpt lat="-27.2732537" lon="151.2900818">
  <ele>375.68</ele>
  <time>2026-09-01T19:57:19Z</time>
  <course>358.05</course>
  <speed>24.17</speed>
  <fix>3d</fix>
</trkpt>
<trkpt lat="-27.2731709" lon="151.2900789">
  <ele>375.62</ele>
  <time>2026-09-01T19:57:19Z</time>
  <course>358.24</course>
  <speed>24.31251529562501</speed>
  <fix>3d</fix>
</trkpt>
<trkpt lat="-27.2732102" lon="151.2900801">
  <ele>375.69</ele>
  <time>2026-09-01T19:57:19Z</time>
  <course>358.07</course>
  <speed>24.27</speed>
  <fix>3d</fix>
</trkpt>
<trkpt lat="-27.2731488" lon="151.2900781">
  <ele>375.62</ele>
  <time>2026-09-01T19:57:19Z</time>
  <course>358.28</course>
  <speed>24.362489610054222</speed>
  <fix>3d</fix>
</trkpt>
<trkpt lat="-27.2732102" lon="151.2900801">
  <ele>375.69</ele>
  <time>2026-09-01T19:57:19Z</time>
  <course>358.07</course>
  <speed>24.27</speed>
  <fix>3d</fix>
</trkpt>
<trkpt lat="-27.2731269" lon="151.2900773">
  <ele>375.62</ele>
  <time>2026-09-01T19:57:19Z</time>
  <course>358.31</course>
  <speed>24.40215154448476</speed>
  <fix>3d</fix>
</trkpt>
<trkpt lat="-27.2731665" lon="151.2900785">
  <ele>375.69</ele>
  <time>2026-09-01T19:57:19Z</time>
  <course>358.09</course>
  <speed>24.37</speed>
  <fix>3d</fix>
</trkpt>
<trkpt lat="-27.2731049" lon="151.2900765">
  <ele>375.62</ele>
  <time>2026-09-01T19:57:19Z</time>
  <course>358.34</course>
  <speed>24.381847756066396</speed>
  <fix>3d</fix>
</trkpt>
<trkpt lat="-27.2731665" lon="151.2900785">
  <ele>375.69</ele>
  <time>2026-09-01T19:57:19Z</time>
  <course>358.09</course>
  <speed>24.37</speed>
  <fix>3d</fix>
</trkpt>
<trkpt lat="-27.273083" lon="151.2900757">
  <ele>375.65</ele>
  <time>2026-09-01T19:57:19Z</time>
  <course>358.3</course>
  <speed>24.291580846046227</speed>
  <fix>3d</fix>
</trkpt>
<trkpt lat="-27.2731226" lon="151.2900768">
  <ele>375.69</ele>
  <time>2026-09-01T19:57:19Z</time>
  <course>358.13</course>
  <speed>24.43</speed>
  <fix>3d</fix>
</trkpt>
<trkpt lat="-27.2730612" lon="151.2900749">
  <ele>375.71</ele>
  <time>2026-09-01T19:57:19Z</time>
  <course>358.29</course>
  <speed>24.12135361044235</speed>
  <fix>3d</fix>
</trkpt>
<trkpt lat="-27.2731226" lon="151.2900768">
  <ele>375.69</ele>
  <time>2026-09-01T19:57:19Z</time>
  <course>358.13</course>
  <speed>24.43</speed>
  <fix>3d</fix>
</trkpt>
<trkpt lat="-27.2730396" lon="151.2900741">
  <ele>375.81</ele>
  <time>2026-09-01T19:57:19Z</time>
  <course>358.34</course>
  <speed>23.871164613399156</speed>
  <fix>3d</fix>
</trkpt>
<trkpt lat="-27.2730788" lon="151.2900753">
  <ele>375.74</ele>
  <time>2026-09-01T19:57:19Z</time>
  <course>358.17</course>
  <speed>24.31</speed>
  <fix>3d</fix>
</trkpt>
<trkpt lat="-27.2730183" lon="151.2900734">
  <ele>375.94</ele>
  <time>2026-09-01T19:57:19Z</time>
  <course>358.38</course>
  <speed>23.540709420066335</speed>
  <fix>3d</fix>
</trkpt>
<trkpt lat="-27.2730788" lon="151.2900753">
  <ele>375.74</ele>
  <time>2026-09-01T19:57:19Z</time>
  <course>358.17</course>
  <speed>24.31</speed>
  <fix>3d</fix>
</trkpt>
<trkpt lat="-27.2729973" lon="151.2900726">
  <ele>376.11</ele>
  <time>2026-09-01T19:57:19Z</time>
  <course>358.41</course>
  <speed>23.13999351771733</speed>
  <fix>3d</fix>
</trkpt>
<trkpt lat="-27.2730355" lon="151.2900737">
  <ele>375.89</ele>
  <time>2026-09-01T19:57:19Z</time>
  <course>358.21</course>
  <speed>23.9</speed>
  <fix>3d</fix>
</trkpt>
<trkpt lat="-27.2729766" lon="151.2900719">
  <ele>376.32</ele>
  <time>2026-09-01T19:57:19Z</time>
  <course>358.46</course>
  <speed>22.688748312765075</speed>
  <fix>3d</fix>
</trkpt>
<trkpt lat="-27.2730355" lon="151.2900737">
  <ele>375.89</ele>
  <time>2026-09-01T19:57:19Z</time>
  <course>358.21</course>
  <speed>23.9</speed>
  <fix>3d</fix>
</trkpt>
<trkpt lat="-27.2729564" lon="151.2900713">
  <ele>376.56</ele>
  <time>2026-09-01T19:57:19Z</time>
  <course>358.55</course>
  <speed>22.22756846800837</speed>
  <fix>3d</fix>
</trkpt>
<trkpt lat="-27.2729932" lon="151.2900723">
  <ele>376.2</ele>
  <time>2026-09-01T19:57:19Z</time>
  <course>358.3</course>
  <speed>23.18</speed>
  <fix>3d</fix>
</trkpt>
<trkpt lat="-27.2729366" lon="151.2900707">
  <ele>376.84</ele>
  <time>2026-09-01T19:57:19Z</time>
  <course>358.68</course>
  <speed>21.75597848868214</speed>
  <fix>3d</fix>
</trkpt>
<trkpt lat="-27.2729932" lon="151.2900723">
  <ele>376.2</ele>
  <time>2026-09-01T19:57:19Z</time>
  <course>358.3</course>
  <speed>23.18</speed>
  <fix>3d</fix>
</trkpt>
<trkpt lat="-27.2729172" lon="151.2900702">
  <ele>377.14</ele>
  <time>2026-09-01T19:57:19Z</time>
  <course>358.88</course>
  <speed>21.27434605340432</speed>
  <fix>3d</fix>
</trkpt>
<trkpt lat="-27.2729524" lon="151.290071">
  <ele>376.65</ele>
  <time>2026-09-01T19:57:19Z</time>
  <course>358.49</course>
  <speed>22.29</speed>
  <fix>3d</fix>
</trkpt>
<trkpt lat="-27.2728982" lon="151.2900698">
  <ele>377.49</ele>
  <time>2026-09-01T19:57:19Z</time>
  <course>359.17</course>
  <speed>20.772464947617554</speed>
  <fix>3d</fix>
</trkpt>
<trkpt lat="-27.2729524" lon="151.290071">
  <ele>376.65</ele>
  <time>2026-09-01T19:57:19Z</time>
  <course>358.49</course>
  <speed>22.29</speed>
  <fix>3d</fix>
</trkpt>
<trkpt lat="-27.2728797" lon="151.2900695">
  <ele>377.86</ele>
  <time>2026-09-01T19:57:19Z</time>
  <course>359.61</course>
  <speed>20.250987630236704</speed>
  <fix>3d</fix>
</trkpt>
<trkpt lat="-27.2729132" lon="151.2900699">
  <ele>377.23</ele>
  <time>2026-09-01T19:57:19Z</time>
  <course>358.85</course>
  <speed>21.32</speed>
  <fix>3d</fix>
</trkpt>
<trkpt lat="-27.2728618" lon="151.2900694">
  <ele>378.27</ele>
  <time>2026-09-01T19:57:19Z</time>
  <course>0.23</course>
  <speed>19.710124301992618</speed>
  <fix>3d</fix>
</trkpt>
<trkpt lat="-27.2729132" lon="151.2900699">
  <ele>377.23</ele>
  <time>2026-09-01T19:57:19Z</time>
  <course>358.85</course>
  <speed>21.32</speed>
  <fix>3d</fix>
</trkpt>
<trkpt lat="-27.2728443" lon="151.2900694">
  <ele>378.72</ele>
  <time>2026-09-01T19:57:19Z</time>
  <course>1.05</course>
  <speed>19.130128070663826</speed>
  <fix>3d</fix>
</trkpt>
<trkpt lat="-27.2728759" lon="151.2900694">
  <ele>377.95</ele>
  <time>2026-09-01T19:57:19Z</time>
  <course>359.42</course>
  <speed>20.29</speed>
  <fix>3d</fix>
</trkpt>
<trkpt lat="-27.2728273" lon="151.2900694">
  <ele>379.21</ele>
  <time>2026-09-01T19:57:19Z</time>
  <course>2.02</course>
  <speed>18.511428902167438</speed>
  <fix>3d</fix>
</trkpt>
<trkpt lat="-27.2728759" lon="151.2900694">
  <ele>377.95</ele>
  <time>2026-09-01T19:57:19Z</time>
  <course>359.42</course>
  <speed>20.29</speed>
  <fix>3d</fix>
</trkpt>
<trkpt lat="-27.2728108" lon="151.2900697">
  <ele>379.74</ele>
  <time>2026-09-01T19:57:19Z</time>
  <course>3.05</course>
  <speed>17.864257611219113</speed>
  <fix>3d</fix>
</trkpt>
<trkpt lat="-27.2728404" lon="151.2900692">
  <ele>378.81</ele>
  <time>2026-09-01T19:57:19Z</time>
  <course>0.25</course>
  <speed>19.15</speed>
  <fix>3d</fix>
</trkpt>
<trkpt lat="-27.2727949" lon="151.2900702">
  <ele>380.32</ele>
  <time>2026-09-01T19:57:19Z</time>
  <course>4.08</course>
  <speed>17.16818278094685</speed>
  <fix>3d</fix>
</trkpt>
<trkpt lat="-27.2728404" lon="151.2900692">
  <ele>378.81</ele>
  <time>2026-09-01T19:57:19Z</time>
  <course>0.25</course>
  <speed>19.15</speed>
  <fix>3d</fix>
</trkpt>
<trkpt lat="-27.2727797" lon="151.2900707">
  <ele>380.92</ele>
  <time>2026-09-01T19:57:19Z</time>
  <course>5.03</course>
  <speed>16.46283693656716</speed>
  <fix>3d</fix>
</trkpt>
<trkpt lat="-27.2728071" lon="151.2900696">
  <ele>379.83</ele>
  <time>2026-09-01T19:57:19Z</time>
  <course>1.27</course>
  <speed>17.87</speed>
  <fix>3d</fix>
</trkpt>
<trkpt lat="-27.2727652" lon="151.2900714">
  <ele>381.57</ele>
  <time>2026-09-01T19:57:19Z</time>
  <course>5.84</course>
  <speed>15.737407664542468</speed>
  <fix>3d</fix>
</trkpt>
<trkpt lat="-27.2728071" lon="151.2900696">
  <ele>379.83</ele>
  <time>2026-09-01T19:57:19Z</time>
  <course>1.27</course>
  <speed>17.87</speed>
  <fix>3d</fix>
</trkpt>
<trkpt lat="-27.2727508" lon="151.2900722">
  <ele>382.25</ele>
  <time>2026-09-01T19:57:19Z</time>
  <course>6.48</course>
  <speed>15.001346606221723</speed>
  <fix>3d</fix>
</trkpt>
<trkpt lat="-27.2727762" lon="151.2900707">
  <ele>381.01</ele>
  <time>2026-09-01T19:57:19Z</time>
  <course>2.29</course>
  <speed>16.48</speed>
  <fix>3d</fix>
</trkpt>
<trkpt lat="-27.2727376" lon="151.290073">
  <ele>382.94</ele>
  <time>2026-09-01T19:57:19Z</time>
  <course>6.88</course>
  <speed>14.293540499120573</speed>
  <fix>3d</fix>
</trkpt>
<trkpt lat="-27.2727762" lon="151.2900707">
  <ele>381.01</ele>
  <time>2026-09-01T19:57:19Z</time>
  <course>2.29</course>
  <speed>16.48</speed>
  <fix>3d</fix>
</trkpt>
<trkpt lat="-27.272725" lon="151.2900738">
  <ele>383.62</ele>
  <time>2026-09-01T19:57:19Z</time>
  <course>7.08</course>
  <speed>13.624698161794266</speed>
  <fix>3d</fix>
</trkpt>
<trkpt lat="-27.2727479" lon="151.2900722">
  <ele>382.3</ele>
  <time>2026-09-01T19:57:19Z</time>
  <course>3.09</course>
  <speed>15.04</speed>
  <fix>3d</fix>
</trkpt>
<trkpt lat="-27.272713" lon="151.2900747">
  <ele>384.31</ele>
  <time>2026-09-01T19:57:19Z</time>
  <course>7.11</course>
  <speed>12.984667881775028</speed>
  <fix>3d</fix>
</trkpt>
<trkpt lat="-27.2727479" lon="151.2900722">
  <ele>382.3</ele>
  <time>2026-09-01T19:57:19Z</time>
  <course>3.09</course>
  <speed>15.04</speed>
  <fix>3d</fix>
</trkpt>
<trkpt lat="-27.2727015" lon="151.2900754">
  <ele>384.99</ele>
  <time>2026-09-01T19:57:19Z</time>
  <course>7.04</course>
  <speed>12.383343651857523</speed>
  <fix>3d</fix>
</trkpt>
<trkpt lat="-27.2727221" lon="151.2900739">
  <ele>383.65</ele>
  <time>2026-09-01T19:57:19Z</time>
  <course>3.56</course>
  <speed>13.66</speed>
  <fix>3d</fix>
</trkpt>
<trkpt lat="-27.2726905" lon="151.2900762">
  <ele>385.65</ele>
  <time>2026-09-01T19:57:19Z</time>
  <course>6.96</course>
  <speed>11.821945694343212</speed>
  <fix>3d</fix>
</trkpt>
<trkpt lat="-27.2727221" lon="151.2900739">
  <ele>383.65</ele>
  <time>2026-09-01T19:57:19Z</time>
  <course>3.56</course>
  <speed>13.66</speed>
  <fix>3d</fix>
</trkpt>
<trkpt lat="-27.2726802" lon="151.2900769">
  <ele>386.28</ele>
  <time>2026-09-01T19:57:19Z</time>
  <course>6.93</course>
  <speed>11.289898139487352</speed>
  <fix>3d</fix>
</trkpt>
<trkpt lat="-27.2726989" lon="151.2900756">
  <ele>384.99</ele>
  <time>2026-09-01T19:57:19Z</time>
  <course>3.69</course>
  <speed>12.4</speed>
  <fix>3d</fix>
</trkpt>
<trkpt lat="-27.2726702" lon="151.2900776">
  <ele>386.9</ele>
  <time>2026-09-01T19:57:19Z</time>
  <course>7.0</course>
  <speed>10.787831107317169</speed>
  <fix>3d</fix>
</trkpt>
<trkpt lat="-27.2726989" lon="151.2900756">
  <ele>384.99</ele>
  <time>2026-09-01T19:57:19Z</time>
  <course>3.69</course>
  <speed>12.4</speed>
  <fix>3d</fix>
</trkpt>
<trkpt lat="-27.2726607" lon="151.2900782">
  <ele>387.48</ele>
  <time>2026-09-01T19:57:19Z</time>
  <course>7.16</course>
  <speed>10.316317172324627</speed>
  <fix>3d</fix>
</trkpt>
<trkpt lat="-27.2726777" lon="151.2900771">
  <ele>386.27</ele>
  <time>2026-09-01T19:57:19Z</time>
  <course>3.62</course>
  <speed>11.27</speed>
  <fix>3d</fix>
</trkpt>
<trkpt lat="-27.2726515" lon="151.2900788">
  <ele>388.03</ele>
  <time>2026-09-01T19:57:19Z</time>
  <course>7.42</course>
  <speed>9.854805934162275</speed>
  <fix>3d</fix>
</trkpt>
<trkpt lat="-27.2726777" lon="151.2900771">
  <ele>386.27</ele>
  <time>2026-09-01T19:57:19Z</time>
  <course>3.62</course>
  <speed>11.27</speed>
  <fix>3d</fix>
</trkpt>
<trkpt lat="-27.2726428" lon="151.2900794">
  <ele>388.55</ele>
  <time>2026-09-01T19:57:19Z</time>
  <course>7.75</course>
  <speed>9.423274377837037</speed>
  <fix>3d</fix>
</trkpt>
<trkpt lat="-27.2726584" lon="151.2900784">
  <ele>387.45</ele>
  <time>2026-09-01T19:57:19Z</time>
  <course>3.45</course>
  <speed>10.27</speed>
  <fix>3d</fix>
</trkpt>
<trkpt lat="-27.2726345" lon="151.2900799">
  <ele>389.03</ele>
  <time>2026-09-01T19:57:19Z</time>
  <course>8.15</course>
  <speed>8.991774018512698</speed>
  <fix>3d</fix>
</trkpt>
<trkpt lat="-27.2726584" lon="151.2900784">
  <ele>387.45</ele>
  <time>2026-09-01T19:57:19Z</time>
  <course>3.45</course>
  <speed>10.27</speed>
  <fix>3d</fix>
</trkpt>
<trkpt lat="-27.2726265" lon="151.2900804">
  <ele>389.47</ele>
  <time>2026-09-01T19:57:19Z</time>
  <course>8.61</course>
  <speed>8.580780850249003</speed>
  <fix>3d</fix>
</trkpt>
<trkpt lat="-27.2726408" lon="151.2900796">
  <ele>388.5</ele>
  <time>2026-09-01T19:57:19Z</time>
  <course>3.26</course>
  <speed>9.36</speed>
  <fix>3d</fix>
</trkpt>
<trkpt lat="-27.2726189" lon="151.2900808">
  <ele>389.88</ele>
  <time>2026-09-01T19:57:19Z</time>
  <course>9.13</course>
  <speed>8.179786060772006</speed>
  <fix>3d</fix>
</trkpt>
<trkpt lat="-27.2726408" lon="151.2900796">
  <ele>388.5</ele>
  <time>2026-09-01T19:57:19Z</time>
  <course>3.26</course>
  <speed>9.36</speed>
  <fix>3d</fix>
</trkpt>
<trkpt lat="-27.2726118" lon="151.2900812">
  <ele>390.26</ele>
  <time>2026-09-01T19:57:19Z</time>
  <course>9.71</course>
  <speed>7.798781956177516</speed>
  <fix>3d</fix>
</trkpt>
<trkpt lat="-27.2726247" lon="151.2900806">
  <ele>389.4</ele>
  <time>2026-09-01T19:57:19Z</time>
  <course>3.08</course>
  <speed>8.51</speed>
  <fix>3d</fix>
</trkpt>
<trkpt lat="-27.2726049" lon="151.2900816">
  <ele>390.59</ele>
  <time>2026-09-01T19:57:19Z</time>
  <course>10.37</course>
  <speed>7.428250130414296</speed>
  <fix>3d</fix>
</trkpt>
<trkpt lat="-27.2726247" lon="151.2900806">
  <ele>389.4</ele>
  <time>2026-09-01T19:57:19Z</time>
  <course>3.08</course>
  <speed>8.51</speed>
  <fix>3d</fix>
</trkpt>
<trkpt lat="-27.2725983" lon="151.290082">
  <ele>390.9</ele>
  <time>2026-09-01T19:57:19Z</time>
  <course>11.09</course>
  <speed>7.0577191783181625</speed>
  <fix>3d</fix>
</trkpt>
<trkpt lat="-27.2726102" lon="151.2900814">
  <ele>390.17</ele>
  <time>2026-09-01T19:57:19Z</time>
  <course>2.93</course>
  <speed>7.72</speed>
  <fix>3d</fix>
</trkpt>
<trkpt lat="-27.2725921" lon="151.2900823">
  <ele>391.16</ele>
  <time>2026-09-01T19:57:19Z</time>
  <course>11.9</course>
  <speed>6.707167807651752</speed>
  <fix>3d</fix>
</trkpt>
<trkpt lat="-27.2726102" lon="151.2900814">
  <ele>390.17</ele>
  <time>2026-09-01T19:57:19Z</time>
  <course>2.93</course>
  <speed>7.72</speed>
  <fix>3d</fix>
</trkpt>
<trkpt lat="-27.2725862" lon="151.2900827">
  <ele>391.4</ele>
  <time>2026-09-01T19:57:19Z</time>
  <course>12.79</course>
  <speed>6.36707154035511</speed>
  <fix>3d</fix>
</trkpt>
<trkpt lat="-27.272597" lon="151.2900822">
  <ele>390.8</ele>
  <time>2026-09-01T19:57:19Z</time>
  <course>2.87</course>
  <speed>6.97</speed>
  <fix>3d</fix>
</trkpt>
<trkpt lat="-27.2725806" lon="151.290083">
  <ele>391.59</ele>
  <time>2026-09-01T19:57:19Z</time>
  <course>13.78</course>
  <speed>6.037458074388592</speed>
  <fix>3d</fix>
</trkpt>
<trkpt lat="-27.272597" lon="151.2900822">
  <ele>390.8</ele>
  <time>2026-09-01T19:57:19Z</time>
  <course>2.87</course>
  <speed>6.97</speed>
  <fix>3d</fix>
</trkpt>
<trkpt lat="-27.2725753" lon="151.2900833">
  <ele>391.75</ele>
  <time>2026-09-01T19:57:19Z</time>
  <course>14.87</course>
  <speed>5.728394190346889</speed>
  <fix>3d</fix>
</trkpt>
<trkpt lat="-27.2725851" lon="151.2900829">
  <ele>391.28</ele>
  <time>2026-09-01T19:57:19Z</time>
  <course>2.94</course>
  <speed>6.27</speed>
  <fix>3d</fix>
</trkpt>
<trkpt lat="-27.2725701" lon="151.2900837">
  <ele>391.87</ele>
  <time>2026-09-01T19:57:19Z</time>
  <course>16.1</course>
  <speed>5.42943827665441</speed>
  <fix>3d</fix>
</trkpt>
<trkpt lat="-27.2725851" lon="151.2900829">
  <ele>391.28</ele>
  <time>2026-09-01T19:57:19Z</time>
  <course>2.94</course>
  <speed>6.27</speed>
  <fix>3d</fix>
</trkpt>
<trkpt lat="-27.2725654" lon="151.290084">
  <ele>391.96</ele>
  <time>2026-09-01T19:57:19Z</time>
  <course>17.4</course>
  <speed>5.161211098182287</speed>
  <fix>3d</fix>
</trkpt>
<trkpt lat="-27.2725744" lon="151.2900835">
  <ele>391.64</ele>
  <time>2026-09-01T19:57:19Z</time>
  <course>3.25</course>
  <speed>5.63</speed>
  <fix>3d</fix>
</trkpt>
<trkpt lat="-27.2725609" lon="151.2900844">
  <ele>392.02</ele>
  <time>2026-09-01T19:57:19Z</time>
  <course>18.83</course>
  <speed>4.913949531690369</speed>
  <fix>3d</fix>
</trkpt>
<trkpt lat="-27.2725744" lon="151.2900835">
  <ele>391.64</ele>
  <time>2026-09-01T19:57:19Z</time>
  <course>3.25</course>
  <speed>5.63</speed>
  <fix>3d</fix>
</trkpt>
<trkpt lat="-27.2725566" lon="151.2900848">
  <ele>392.02</ele>
  <time>2026-09-01T19:57:19Z</time>
  <course>20.39</course>
  <speed>4.685434878429109</speed>
  <fix>3d</fix>
</trkpt>
<trkpt lat="-27.2725648" lon="151.2900842">
  <ele>391.85</ele>
  <time>2026-09-01T19:57:19Z</time>
  <course>3.96</course>
  <speed>5.07</speed>
  <fix>3d</fix>
</trkpt>
<trkpt lat="-27.2725525" lon="151.2900852">
  <ele>391.95</ele>
  <time>2026-09-01T19:57:19Z</time>
  <course>21.99</course>
  <speed>4.435459389961766</speed>
  <fix>3d</fix>
</trkpt>
<trkpt lat="-27.2725648" lon="151.2900842">
  <ele>391.85</ele>
  <time>2026-09-01T19:57:19Z</time>
  <course>3.96</course>
  <speed>5.07</speed>
  <fix>3d</fix>
</trkpt>
<trkpt lat="-27.2725487" lon="151.2900856">
  <ele>391.81</ele>
  <time>2026-09-01T19:57:19Z</time>
  <course>23.61</course>
  <speed>4.14566038165212</speed>
  <fix>3d</fix>
</trkpt>
<trkpt lat="-27.2725561" lon="151.2900849">
  <ele>391.89</ele>
  <time>2026-09-01T19:57:19Z</time>
  <course>4.68</course>
  <speed>4.57</speed>
  <fix>3d</fix>
</trkpt>
<trkpt lat="-27.2725451" lon="151.2900859">
  <ele>391.61</ele>
  <time>2026-09-01T19:57:19Z</time>
  <course>25.25</course>
  <speed>3.8269700808864444</speed>
  <fix>3d</fix>
</trkpt>
<trkpt lat="-27.2725561" lon="151.2900849">
  <ele>391.89</ele>
  <time>2026-09-01T19:57:19Z</time>
  <course>4.68</course>
  <speed>4.57</speed>
  <fix>3d</fix>
</trkpt>
<trkpt lat="-27.2725419" lon="151.2900863">
  <ele>391.35</ele>
  <time>2026-09-01T19:57:19Z</time>
  <course>26.97</course>
  <speed>3.4697838549396702</speed>
  <fix>3d</fix>
</trkpt>
<trkpt lat="-27.2725485" lon="151.2900857">
  <ele>391.69</ele>
  <time>2026-09-01T19:57:19Z</time>
  <course>5.22</course>
  <speed>4.03</speed>
  <fix>3d</fix>
</trkpt>
<trkpt lat="-27.272539" lon="151.2900867">
  <ele>391.05</ele>
  <time>2026-09-01T19:57:19Z</time>
  <course>29.1</course>
  <speed>3.0351606217793483</speed>
  <fix>3d</fix>
</trkpt>
<trkpt lat="-27.2725485" lon="151.2900857">
  <ele>391.69</ele>
  <time>2026-09-01T19:57:19Z</time>
  <course>5.22</course>
  <speed>4.03</speed>
  <fix>3d</fix>
</trkpt>
<trkpt lat="-27.2725365" lon="151.2900871">
  <ele>390.72</ele>
  <time>2026-09-01T19:57:19Z</time>
  <course>32.02</course>
  <speed>2.5679758565843254</speed>
  <fix>3d</fix>
</trkpt>
<trkpt lat="-27.2725419" lon="151.2900864">
  <ele>391.24</ele>
  <time>2026-09-01T19:57:19Z</time>
  <course>6.44</course>
  <speed>3.34</speed>
  <fix>3d</fix>
</trkpt>
<trkpt lat="-27.2725345" lon="151.2900876">
  <ele>390.38</ele>
  <time>2026-09-01T19:57:19Z</time>
  <course>35.84</course>
  <speed>2.1124866863485794</speed>
  <fix>3d</fix>
</trkpt>
<trkpt lat="-27.2725419" lon="151.2900864">
  <ele>391.24</ele>
  <time>2026-09-01T19:57:19Z</time>
  <course>6.44</course>
  <speed>3.34</speed>
  <fix>3d</fix>
</trkpt>
<trkpt lat="-27.2725329" lon="151.2900882">
  <ele>390.03</ele>
  <time>2026-09-01T19:57:19Z</time>
  <course>40.42</course>
  <speed>1.710263137648707</speed>
  <fix>3d</fix>
</trkpt>
<trkpt lat="-27.2725366" lon="151.2900872">
  <ele>390.63</ele>
  <time>2026-09-01T19:57:19Z</time>
  <course>10.29</course>
  <speed>2.48</speed>
  <fix>3d</fix>
</trkpt>
<trkpt lat="-27.2725317" lon="151.2900889">
  <ele>389.68</ele>
  <time>2026-09-01T19:57:19Z</time>
  <course>45.41</course>
  <speed>1.3926952286842949</speed>
  <fix>3d</fix>
</trkpt>
<trkpt lat="-27.2725366" lon="151.2900872">
  <ele>390.63</ele>
  <time>2026-09-01T19:57:19Z</time>
  <course>10.29</course>
  <speed>2.48</speed>
  <fix>3d</fix>
</trkpt>
<trkpt lat="-27.2725309" lon="151.2900898">
  <ele>389.35</ele>
  <time>2026-09-01T19:57:19Z</time>
  <course>50.38</course>
  <speed>1.2461942063739504</speed>
  <fix>3d</fix>
</trkpt>
<trkpt lat="-27.2725331" lon="151.2900883">
  <ele>389.95</ele>
  <time>2026-09-01T19:57:19Z</time>
  <course>22.99</course>
  <speed>1.64</speed>
  <fix>3d</fix>
</trkpt>
<trkpt lat="-27.2725305" lon="151.2900909">
  <ele>389.0</ele>
  <time>2026-09-01T19:57:19Z</time>
  <course>55.33</course>
  <speed>1.3050670480860362</speed>
  <fix>3d</fix>
</trkpt>
<trkpt lat="-27.2725331" lon="151.2900883">
  <ele>389.95</ele>
  <time>2026-09-01T19:57:19Z</time>
  <course>22.99</course>
  <speed>1.64</speed>
  <fix>3d</fix>
</trkpt>
<trkpt lat="-27.2725304" lon="151.2900924">
  <ele>388.66</ele>
  <time>2026-09-01T19:57:19Z</time>
  <course>59.99</course>
  <speed>1.55</speed>
  <fix>3d</fix>
</trkpt>
<trkpt lat="-27.2725312" lon="151.29009">
  <ele>389.27</ele>
  <time>2026-09-01T19:57:19Z</time>
  <course>57.24</course>
  <speed>1.2</speed>
  <fix>3d</fix>
</trkpt>
<trkpt lat="-27.2725305" lon="151.2900941">
  <ele>388.32</ele>
  <time>2026-09-01T19:57:19Z</time>
  <course>64.01</course>
  <speed>1.895521036549054</speed>
  <fix>3d</fix>
</trkpt>
<trkpt lat="-27.2725312" lon="151.29009">
  <ele>389.27</ele>
  <time>2026-09-01T19:57:19Z</time>
  <course>57.24</course>
  <speed>1.2</speed>
  <fix>3d</fix>
</trkpt>
<trkpt lat="-27.272531" lon="151.2900961">
  <ele>387.98</ele>
  <time>2026-09-01T19:57:19Z</time>
  <course>67.28</course>
  <speed>2.2726416347501863</speed>
  <fix>3d</fix>
</trkpt>
<trkpt lat="-27.2725306" lon="151.2900925">
  <ele>388.59</ele>
  <time>2026-09-01T19:57:19Z</time>
  <course>93.08</course>
  <speed>1.54</speed>
  <fix>3d</fix>
</trkpt>
<trkpt lat="-27.2725316" lon="151.2900985">
  <ele>387.65</ele>
  <time>2026-09-01T19:57:19Z</time>
  <course>69.83</course>
  <speed>2.6725456029785533</speed>
  <fix>3d</fix>
</trkpt>
<trkpt lat="-27.2725306" lon="151.2900925">
  <ele>388.59</ele>
  <time>2026-09-01T19:57:19Z</time>
  <course>93.08</course>
  <speed>1.54</speed>
  <fix>3d</fix>
</trkpt>
<trkpt lat="-27.2725324" lon="151.2901013">
  <ele>387.33</ele>
  <time>2026-09-01T19:57:19Z</time>
  <course>71.76</course>
  <speed>3.1591296269700617</speed>
  <fix>3d</fix>
</trkpt>
<trkpt lat="-27.2725313" lon="151.2900963">
  <ele>387.93</ele>
  <time>2026-09-01T19:57:19Z</time>
  <course>106.67</course>
  <speed>2.28</speed>
  <fix>3d</fix>
</trkpt>
<trkpt lat="-27.2725334" lon="151.2901046">
  <ele>387.03</ele>
  <time>2026-09-01T19:57:19Z</time>
  <course>73.3</course>
  <speed>3.7062110031675206</speed>
  <fix>3d</fix>
</trkpt>
<trkpt lat="-27.2725313" lon="151.2900963">
  <ele>387.93</ele>
  <time>2026-09-01T19:57:19Z</time>
  <course>106.67</course>
  <speed>2.28</speed>
  <fix>3d</fix>
</trkpt>
<trkpt lat="-27.2725346" lon="151.2901085">
  <ele>386.74</ele>
  <time>2026-09-01T19:57:19Z</time>
  <course>74.75</course>
  <speed>4.180550203023521</speed>
  <fix>3d</fix>
</trkpt>
<trkpt lat="-27.2725329" lon="151.2901016">
  <ele>387.31</ele>
  <time>2026-09-01T19:57:19Z</time>
  <course>109.72</course>
  <speed>3.2</speed>
  <fix>3d</fix>
</trkpt>
<trkpt lat="-27.2725359" lon="151.2901127">
  <ele>386.48</ele>
  <time>2026-09-01T19:57:19Z</time>
  <course>76.0</course>
  <speed>4.5695185742045075</speed>
  <fix>3d</fix>
</trkpt>
<trkpt lat="-27.2725329" lon="151.2901016">
  <ele>387.31</ele>
  <time>2026-09-01T19:57:19Z</time>
  <course>109.72</course>
  <speed>3.2</speed>
  <fix>3d</fix>
</trkpt>
<trkpt lat="-27.2725372" lon="151.2901172">
  <ele>386.22</ele>
  <time>2026-09-01T19:57:19Z</time>
  <course>77.15</course>
  <speed>4.923748571972375</speed>
  <fix>3d</fix>
</trkpt>
<trkpt lat="-27.2725351" lon="151.2901085">
  <ele>386.74</ele>
  <time>2026-09-01T19:57:19Z</time>
  <course>109.55</course>
  <speed>4.14</speed>
  <fix>3d</fix>
</trkpt>
<trkpt lat="-27.2725387" lon="151.2901221">
  <ele>385.98</ele>
  <time>2026-09-01T19:57:19Z</time>
  <course>78.28</course>
  <speed>5.236869293767032</speed>
  <fix>3d</fix>
</trkpt>
<trkpt lat="-27.2725351" lon="151.2901085">
  <ele>386.74</ele>
  <time>2026-09-01T19:57:19Z</time>
  <course>109.55</course>
  <speed>4.14</speed>
  <fix>3d</fix>
</trkpt>
<trkpt lat="-27.2725403" lon="151.2901272">
  <ele>385.73</ele>
  <time>2026-09-01T19:57:19Z</time>
  <course>79.44</course>
  <speed>5.51837838499681</speed>
  <fix>3d</fix>
</trkpt>
<trkpt lat="-27.2725378" lon="151.2901172">
  <ele>386.23</ele>
  <time>2026-09-01T19:57:19Z</time>
  <course>109.11</course>
  <speed>4.91</speed>
  <fix>3d</fix>
</trkpt>
<trkpt lat="-27.2725419" lon="151.2901326">
  <ele>385.49</ele>
  <time>2026-09-01T19:57:19Z</time>
  <course>80.64</course>
  <speed>5.777793696559268</speed>
  <fix>3d</fix>
</trkpt>
<trkpt lat="-27.2725378" lon="151.2901172">
  <ele>386.23</ele>
  <time>2026-09-01T19:57:19Z</time>
  <course>109.11</course>
  <speed>4.91</speed>
  <fix>3d</fix>
</trkpt>
<trkpt lat="-27.2725436" lon="151.2901383">
  <ele>385.25</ele>
  <time>2026-09-01T19:57:19Z</time>
  <course>81.86</course>
  <speed>6.027702713306289</speed>
  <fix>3d</fix>
</trkpt>
<trkpt lat="-27.2725409" lon="151.2901272">
  <ele>385.75</ele>
  <time>2026-09-01T19:57:19Z</time>
  <course>108.71</course>
  <speed>5.51</speed>
  <fix>3d</fix>
</trkpt>
<trkpt lat="-27.2725453" lon="151.2901442">
  <ele>385.01</ele>
  <time>2026-09-01T19:57:19Z</time>
  <course>83.08</course>
  <speed>6.255525557457183</speed>
  <fix>3d</fix>
</trkpt>
<trkpt lat="-27.2725409" lon="151.2901272">
  <ele>385.75</ele>
  <time>2026-09-01T19:57:19Z</time>
  <course>108.71</course>
  <speed>5.51</speed>
  <fix>3d</fix>
</trkpt>
<trkpt lat="-27.2725471" lon="151.2901503">
  <ele>384.77</ele>
  <time>2026-09-01T19:57:19Z</time>
  <course>84.29</course>
  <speed>6.473831940975916</speed>
  <fix>3d</fix>
</trkpt>
<trkpt lat="-27.2725442" lon="151.2901383">
  <ele>385.28</ele>
  <time>2026-09-01T19:57:19Z</time>
  <course>108.32</course>
  <speed>6.03</speed>
  <fix>3d</fix>
</trkpt>
<trkpt lat="-27.272549" lon="151.2901566">
  <ele>384.54</ele>
  <time>2026-09-01T19:57:19Z</time>
  <course>85.48</course>
  <speed>6.6795957961541355</speed>
  <fix>3d</fix>
</trkpt>
<trkpt lat="-27.2725442" lon="151.2901383">
  <ele>385.28</ele>
  <time>2026-09-01T19:57:19Z</time>
  <course>108.32</course>
  <speed>6.03</speed>
  <fix>3d</fix>
</trkpt>
<trkpt lat="-27.2725508" lon="151.2901631">
  <ele>384.3</ele>
  <time>2026-09-01T19:57:19Z</time>
  <course>86.63</course>
  <speed>6.8788443796905305</speed>
  <fix>3d</fix>
</trkpt>
<trkpt lat="-27.2725476" lon="151.2901503">
  <ele>384.81</ele>
  <time>2026-09-01T19:57:19Z</time>
  <course>107.98</course>
  <speed>6.48</speed>
  <fix>3d</fix>
</trkpt>
<trkpt lat="-27.2725528" lon="151.2901698">
  <ele>384.06</ele>
  <time>2026-09-01T19:57:19Z</time>
  <course>87.74</course>
  <speed>7.06555022627396</speed>
  <fix>3d</fix>
</trkpt>
<trkpt lat="-27.2725476" lon="151.2901503">
  <ele>384.81</ele>
  <time>2026-09-01T19:57:19Z</time>
  <course>107.98</course>
  <speed>6.48</speed>
  <fix>3d</fix>
</trkpt>
<trkpt lat="-27.2725548" lon="151.2901767">
  <ele>383.82</ele>
  <time>2026-09-01T19:57:19Z</time>
  <course>88.81</course>
  <speed>7.245722876290536</speed>
  <fix>3d</fix>
</trkpt>
<trkpt lat="-27.2725514" lon="151.2901632">
  <ele>384.34</ele>
  <time>2026-09-01T19:57:19Z</time>
  <course>107.76</course>
  <speed>6.89</speed>
  <fix>3d</fix>
</trkpt>
<trkpt lat="-27.2725568" lon="151.2901838">
  <ele>383.58</ele>
  <time>2026-09-01T19:57:19Z</time>
  <course>89.83</course>
  <speed>7.419393506210598</speed>
  <fix>3d</fix>
</trkpt>
<trkpt lat="-27.2725514" lon="151.2901632">
  <ele>384.34</ele>
  <time>2026-09-01T19:57:19Z</time>
  <course>107.76</course>
  <speed>6.89</speed>
  <fix>3d</fix>
</trkpt>
<trkpt lat="-27.2725589" lon="151.290191">
  <ele>383.34</ele>
  <time>2026-09-01T19:57:19Z</time>
  <course>90.83</course>
  <speed>7.580534281961925</speed>
  <fix>3d</fix>
</trkpt>
<trkpt lat="-27.2725552" lon="151.2901769">
  <ele>383.88</ele>
  <time>2026-09-01T19:57:19Z</time>
  <course>107.68</course>
  <speed>7.26</speed>
  <fix>3d</fix>
</trkpt>
<trkpt lat="-27.272561" lon="151.2901983">
  <ele>383.11</ele>
  <time>2026-09-01T19:57:19Z</time>
  <course>91.8</course>
  <speed>7.725729738995534</speed>
  <fix>3d</fix>
</trkpt>
<trkpt lat="-27.2725552" lon="151.2901769">
  <ele>383.88</ele>
  <time>2026-09-01T19:57:19Z</time>
  <course>107.68</course>
  <speed>7.26</speed>
  <fix>3d</fix>
</trkpt>
<trkpt lat="-27.2725632" lon="151.2902058">
  <ele>382.88</ele>
  <time>2026-09-01T19:57:19Z</time>
  <course>92.76</course>
  <speed>7.871016452784228</speed>
  <fix>3d</fix>
</trkpt>
<trkpt lat="-27.2725593" lon="151.2901911">
  <ele>383.41</ele>
  <time>2026-09-01T19:57:19Z</time>
  <course>107.79</course>
  <speed>7.59</speed>
  <fix>3d</fix>
</trkpt>
<trkpt lat="-27.2725655" lon="151.2902134">
  <ele>382.64</ele>
  <time>2026-09-01T19:57:19Z</time>
  <course>93.72</course>
  <speed>8.000562480226</speed>
  <fix>3d</fix>
</trkpt>
<trkpt lat="-27.2725593" lon="151.2901911">
  <ele>383.41</ele>
  <time>2026-09-01T19:57:19Z</time>
  <course>107.79</course>
  <speed>7.59</speed>
  <fix>3d</fix>
</trkpt>
<trkpt lat="-27.2725678" lon="151.2902212">
  <ele>382.41</ele>
  <time>2026-09-01T19:57:19Z</time>
  <course>94.68</course>
  <speed>8.13031979690836</speed>
  <fix>3d</fix>
</trkpt>
<trkpt lat="-27.2725636" lon="151.290206">
  <ele>382.96</ele>
  <time>2026-09-01T19:57:19Z</time>
  <course>108.1</course>
  <speed>7.89</speed>
  <fix>3d</fix>
</trkpt>
<trkpt lat="-27.2725702" lon="151.290229">
  <ele>382.18</ele>
  <time>2026-09-01T19:57:19Z</time>
  <course>95.66</course>
  <speed>8.244640683498584</speed>
  <fix>3d</fix>
</trkpt>
<trkpt lat="-27.2725636" lon="151.290206">
  <ele>382.96</ele>
  <time>2026-09-01T19:57:19Z</time>
  <course>108.1</course>
  <speed>7.89</speed>
  <fix>3d</fix>
</trkpt>
<trkpt lat="-27.2725727" lon="151.2902367">
  <ele>381.96</ele>
  <time>2026-09-01T19:57:19Z</time>
  <course>96.64</course>
  <speed>8.349910179157618</speed>
  <fix>3d</fix>
</trkpt>
<trkpt lat="-27.2725681" lon="151.2902214">
  <ele>382.5</ele>
  <time>2026-09-01T19:57:19Z</time>
  <course>108.61</course>
  <speed>8.15</speed>
  <fix>3d</fix>
</trkpt>
<trkpt lat="-27.2725753" lon="151.290245">
  <ele>381.73</ele>
  <time>2026-09-01T19:57:19Z</time>
  <course>97.73</course>
  <speed>8.45899521219867</speed>
  <fix>3d</fix>
</trkpt>
<trkpt lat="-27.2725681" lon="151.2902214">
  <ele>382.5</ele>
  <time>2026-09-01T19:57:19Z</time>
  <course>108.61</course>
  <speed>8.15</speed>
  <fix>3d</fix>
</trkpt>
<trkpt lat="-27.2725779" lon="151.2902529">
  <ele>381.51</ele>
  <time>2026-09-01T19:57:19Z</time>
  <course>98.83</course>
  <speed>8.54986549601805</speed>
  <fix>3d</fix>
</trkpt>
<trkpt lat="-27.272573" lon="151.2902373">
  <ele>382.06</ele>
  <time>2026-09-01T19:57:19Z</time>
  <course>109.32</course>
  <speed>8.38</speed>
  <fix>3d</fix>
</trkpt>
<trkpt lat="-27.2725807" lon="151.290261">
  <ele>381.29</ele>
  <time>2026-09-01T19:57:19Z</time>
  <course>100.0</course>
  <speed>8.644934933242702</speed>
  <fix>3d</fix>
</trkpt>
<trkpt lat="-27.272573" lon="151.2902373">
  <ele>382.06</ele>
  <time>2026-09-01T19:57:19Z</time>
  <course>109.32</course>
  <speed>8.38</speed>
  <fix>3d</fix>
</trkpt>
<trkpt lat="-27.2725835" lon="151.2902692">
  <ele>381.07</ele>
  <time>2026-09-01T19:57:19Z</time>
  <course>101.26</course>
  <speed>8.72585239389253</speed>
  <fix>3d</fix>
</trkpt>
<trkpt lat="-27.2725781" lon="151.2902534">
  <ele>381.62</ele>
  <time>2026-09-01T19:57:19Z</time>
  <course>110.24</course>
  <speed>8.58</speed>
  <fix>3d</fix>
</trkpt>
<trkpt lat="-27.2725864" lon="151.2902774">
  <ele>380.86</ele>
  <time>2026-09-01T19:57:19Z</time>
  <course>102.56</course>
  <speed>8.802391720435986</speed>
  <fix>3d</fix>
</trkpt>
<trkpt lat="-27.2725781" lon="151.2902534">
  <ele>381.62</ele>
  <time>2026-09-01T19:57:19Z</time>
  <course>110.24</course>
  <speed>8.58</speed>
  <fix>3d</fix>
</trkpt>
<trkpt lat="-27.2725895" lon="151.2902856">
  <ele>380.64</ele>
  <time>2026-09-01T19:57:19Z</time>
  <course>103.96</course>
  <speed>8.884199457463795</speed>
  <fix>3d</fix>
</trkpt>
<trkpt lat="-27.2725836" lon="151.2902698">
  <ele>381.19</ele>
  <time>2026-09-01T19:57:19Z</time>
  <course>111.38</course>
  <speed>8.76</speed>
  <fix>3d</fix>
</trkpt>
<trkpt lat="-27.2725926" lon="151.2902939">
  <ele>380.43</ele>
  <time>2026-09-01T19:57:19Z</time>
  <course>105.58</course>
  <speed>8.94926253944983</speed>
  <fix>3d</fix>
</trkpt>
<trkpt lat="-27.2725836" lon="151.2902698">
  <ele>381.19</ele>
  <time>2026-09-01T19:57:19Z</time>
  <course>111.38</course>
  <speed>8.76</speed>
  <fix>3d</fix>
</trkpt>
<trkpt lat="-27.2725959" lon="151.2903021">
  <ele>380.22</ele>
  <time>2026-09-01T19:57:19Z</time>
  <course>107.46</course>
  <speed>9.020227269864103</speed>
  <fix>3d</fix>
</trkpt>
<trkpt lat="-27.2725895" lon="151.2902864">
  <ele>380.77</ele>
  <time>2026-09-01T19:57:19Z</time>
  <course>112.79</course>
  <speed>8.92</speed>
  <fix>3d</fix>
</trkpt>
<trkpt lat="-27.2725994" lon="151.2903104">
  <ele>380.01</ele>
  <time>2026-09-01T19:57:19Z</time>
  <course>109.57</course>
  <speed>9.092777353482267</speed>
  <fix>3d</fix>
</trkpt>
<trkpt lat="-27.2725895" lon="151.2902864">
  <ele>380.77</ele>
  <time>2026-09-01T19:57:19Z</time>
  <course>112.79</course>
  <speed>8.92</speed>
  <fix>3d</fix>
</trkpt>
<trkpt lat="-27.2726029" lon="151.2903187">
  <ele>379.81</ele>
  <time>2026-09-01T19:57:19Z</time>
  <course>111.82</course>
  <speed>9.154550780895805</speed>
  <fix>3d</fix>
</trkpt>
<trkpt lat="-27.2725961" lon="151.290303">
  <ele>380.35</ele>
  <time>2026-09-01T19:57:19Z</time>
  <course>114.44</course>
  <speed>9.06</speed>
  <fix>3d</fix>
</trkpt>
<trkpt lat="-27.2726067" lon="151.290327">
  <ele>379.6</ele>
  <time>2026-09-01T19:57:19Z</time>
  <course>114.08</course>
  <speed>9.220005422991898</speed>
  <fix>3d</fix>
</trkpt>
<trkpt lat="-27.2725961" lon="151.290303">
  <ele>380.35</ele>
  <time>2026-09-01T19:57:19Z</time>
  <course>114.44</course>
  <speed>9.06</speed>
  <fix>3d</fix>
</trkpt>
<trkpt lat="-27.2726107" lon="151.2903352">
  <ele>379.4</ele>
  <time>2026-09-01T19:57:19Z</time>
  <course>116.21</course>
  <speed>9.291555305760172</speed>
  <fix>3d</fix>
</trkpt>
<trkpt lat="-27.2726031" lon="151.2903197">
  <ele>379.94</ele>
  <time>2026-09-01T19:57:19Z</time>
  <course>116.46</course>
  <speed>9.2</speed>
  <fix>3d</fix>
</trkpt>
<trkpt lat="-27.2726149" lon="151.2903433">
  <ele>379.22</ele>
  <time>2026-09-01T19:57:19Z</time>
  <course>117.37</course>
  <speed>9.32451071102393</speed>
  <fix>3d</fix>
</trkpt>
<trkpt lat="-27.2726031" lon="151.2903197">
  <ele>379.94</ele>
  <time>2026-09-01T19:57:19Z</time>
  <course>116.46</course>
  <speed>9.2</speed>
  <fix>3d</fix>
</trkpt>
<trkpt lat="-27.2726193" lon="151.2903514">
  <ele>379.07</ele>
  <time>2026-09-01T19:57:19Z</time>
  <course>117.41</course>
  <speed>9.33355773539758</speed>
  <fix>3d</fix>
</trkpt>
<trkpt lat="-27.2726108" lon="151.2903363">
  <ele>379.55</ele>
  <time>2026-09-01T19:57:19Z</time>
  <course>119.17</course>
  <speed>9.32</speed>
  <fix>3d</fix>
</trkpt>
<trkpt lat="-27.2726239" lon="151.2903593">
  <ele>378.94</ele>
  <time>2026-09-01T19:57:19Z</time>
  <course>117.04</course>
  <speed>9.311675466853428</speed>
  <fix>3d</fix>
</trkpt>
<trkpt lat="-27.2726108" lon="151.2903363">
  <ele>379.55</ele>
  <time>2026-09-01T19:57:19Z</time>
  <course>119.17</course>
  <speed>9.32</speed>
  <fix>3d</fix>
</trkpt>
<trkpt lat="-27.2726287" lon="151.290367">
  <ele>378.82</ele>
  <time>2026-09-01T19:57:19Z</time>
  <course>116.7</course>
  <speed>9.276939150387912</speed>
  <fix>3d</fix>
</trkpt>
<trkpt lat="-27.2726195" lon="151.2903526">
  <ele>379.21</ele>
  <time>2026-09-01T19:57:19Z</time>
  <course>122.4</course>
  <speed>9.37</speed>
  <fix>3d</fix>
</trkpt>
<trkpt lat="-27.2726336" lon="151.2903745">
  <ele>378.72</ele>
  <time>2026-09-01T19:57:19Z</time>
  <course>116.57</course>
  <speed>9.206633478096107</speed>
  <fix>3d</fix>
</trkpt>
<trkpt lat="-27.2726195" lon="151.2903526">
  <ele>379.21</ele>
  <time>2026-09-01T19:57:19Z</time>
  <course>122.4</course>
  <speed>9.37</speed>
  <fix>3d</fix>
</trkpt>
<trkpt lat="-27.2726386" lon="151.2903819">
  <ele>378.64</ele>
  <time>2026-09-01T19:57:19Z</time>
  <course>116.69</course>
  <speed>9.122263973378539</speed>
  <fix>3d</fix>
</trkpt>
<trkpt lat="-27.2726289" lon="151.2903682">
  <ele>378.97</ele>
  <time>2026-09-01T19:57:19Z</time>
  <course>125.55</course>
  <speed>9.31</speed>
  <fix>3d</fix>
</trkpt>
<trkpt lat="-27.2726438" lon="151.290389">
  <ele>378.57</ele>
  <time>2026-09-01T19:57:19Z</time>
  <course>117.03</course>
  <speed>9.029756364376617</speed>
  <fix>3d</fix>
</trkpt>
<trkpt lat="-27.2726289" lon="151.2903682">
  <ele>378.97</ele>
  <time>2026-09-01T19:57:19Z</time>
  <course>125.55</course>
  <speed>9.31</speed>
  <fix>3d</fix>
</trkpt>
<trkpt lat="-27.2726491" lon="151.2903959">
  <ele>378.51</ele>
  <time>2026-09-01T19:57:19Z</time>
  <course>117.53</course>
  <speed>8.908389304470253</speed>
  <fix>3d</fix>
</trkpt>
<trkpt lat="-27.2726389" lon="151.2903832">
  <ele>378.78</ele>
  <time>2026-09-01T19:57:19Z</time>
  <course>128.51</course>
  <speed>9.16</speed>
  <fix>3d</fix>
</trkpt>
<trkpt lat="-27.2726544" lon="151.2904025">
  <ele>378.46</ele>
  <time>2026-09-01T19:57:19Z</time>
  <course>118.13</course>
  <speed>8.785556328429065</speed>
  <fix>3d</fix>
</trkpt>
<trkpt lat="-27.2726389" lon="151.2903832">
  <ele>378.78</ele>
  <time>2026-09-01T19:57:19Z</time>
  <course>128.51</course>
  <speed>9.16</speed>
  <fix>3d</fix>
</trkpt>
<trkpt lat="-27.2726598" lon="151.2904089">
  <ele>378.42</ele>
  <time>2026-09-01T19:57:19Z</time>
  <course>118.78</course>
  <speed>8.654998555748001</speed>
  <fix>3d</fix>
</trkpt>
<trkpt lat="-27.2726494" lon="151.2903972">
  <ele>378.65</ele>
  <time>2026-09-01T19:57:19Z</time>
  <course>131.45</course>
  <speed>8.95</speed>
  <fix>3d</fix>
</trkpt>
<trkpt lat="-27.2726653" lon="151.2904151">
  <ele>378.38</ele>
  <time>2026-09-01T19:57:19Z</time>
  <course>119.44</course>
  <speed>8.502070336100497</speed>
  <fix>3d</fix>
</trkpt>
<trkpt lat="-27.2726494" lon="151.2903972">
  <ele>378.65</ele>
  <time>2026-09-01T19:57:19Z</time>
  <course>131.45</course>
  <speed>8.95</speed>
  <fix>3d</fix>
</trkpt>
<trkpt lat="-27.2726708" lon="151.290421">
  <ele>378.34</ele>
  <time>2026-09-01T19:57:19Z</time>
  <course>120.1</course>
  <speed>8.355369531026142</speed>
  <fix>3d</fix>
</trkpt>
<trkpt lat="-27.2726602" lon="151.2904103">
  <ele>378.57</ele>
  <time>2026-09-01T19:57:19Z</time>
  <course>134.47</course>
  <speed>8.69</speed>
  <fix>3d</fix>
</trkpt>
<trkpt lat="-27.2726764" lon="151.2904266">
  <ele>378.31</ele>
  <time>2026-09-01T19:57:19Z</time>
  <course>120.72</course>
  <speed>8.207612320279267</speed>
  <fix>3d</fix>
</trkpt>
<trkpt lat="-27.2726602" lon="151.2904103">
  <ele>378.57</ele>
  <time>2026-09-01T19:57:19Z</time>
  <course>134.47</course>
  <speed>8.69</speed>
  <fix>3d</fix>
</trkpt>
<trkpt lat="-27.272682" lon="151.2904319">
  <ele>378.29</ele>
  <time>2026-09-01T19:57:19Z</time>
  <course>121.32</course>
  <speed>8.044532304615354</speed>
  <fix>3d</fix>
</trkpt>
<trkpt lat="-27.2726712" lon="151.2904223">
  <ele>378.5</ele>
  <time>2026-09-01T19:57:19Z</time>
  <course>137.59</course>
  <speed>8.39</speed>
  <fix>3d</fix>
</trkpt>
<trkpt lat="-27.2726876" lon="151.2904369">
  <ele>378.26</ele>
  <time>2026-09-01T19:57:19Z</time>
  <course>121.88</course>
  <speed>7.888073275521723</speed>
  <fix>3d</fix>
</trkpt>
<trkpt lat="-27.2726712" lon="151.2904223">
  <ele>378.5</ele>
  <time>2026-09-01T19:57:19Z</time>
  <course>137.59</course>
  <speed>8.39</speed>
  <fix>3d</fix>
</trkpt>
<trkpt lat="-27.2726933" lon="151.2904417">
  <ele>378.23</ele>
  <time>2026-09-01T19:57:19Z</time>
  <course>122.42</course>
  <speed>7.7246941687033805</speed>
  <fix>3d</fix>
</trkpt>
<trkpt lat="-27.2726824" lon="151.2904331">
  <ele>378.44</ele>
  <time>2026-09-01T19:57:19Z</time>
  <course>140.86</course>
  <speed>8.08</speed>
  <fix>3d</fix>
</trkpt>
<trkpt lat="-27.2726989" lon="151.2904462">
  <ele>378.2</ele>
  <time>2026-09-01T19:57:19Z</time>
  <course>122.99</course>
  <speed>7.560581988180539</speed>
  <fix>3d</fix>
</trkpt>
<trkpt lat="-27.2726824" lon="151.2904331">
  <ele>378.44</ele>
  <time>2026-09-01T19:57:19Z</time>
  <course>140.86</course>
  <speed>8.08</speed>
  <fix>3d</fix>
</trkpt>
<trkpt lat="-27.2727046" lon="151.2904504">
  <ele>378.17</ele>
  <time>2026-09-01T19:57:19Z</time>
  <course>123.62</course>
  <speed>7.381923868477648</speed>
  <fix>3d</fix>
</trkpt>
<trkpt lat="-27.2726937" lon="151.2904429">
  <ele>378.38</ele>
  <time>2026-09-01T19:57:19Z</time>
  <course>144.3</course>
  <speed>7.75</speed>
  <fix>3d</fix>
</trkpt>
<trkpt lat="-27.2727102" lon="151.2904542">
  <ele>378.14</ele>
  <time>2026-09-01T19:57:19Z</time>
  <course>124.27</course>
  <speed>7.206420748193933</speed>
  <fix>3d</fix>
</trkpt>
<trkpt lat="-27.2726937" lon="151.2904429">
  <ele>378.38</ele>
  <time>2026-09-01T19:57:19Z</time>
  <course>144.3</course>
  <speed>7.75</speed>
  <fix>3d</fix>
</trkpt>
<trkpt lat="-27.2727158" lon="151.2904577">
  <ele>378.12</ele>
  <time>2026-09-01T19:57:19Z</time>
  <course>124.88</course>
  <speed>7.009037023728723</speed>
  <fix>3d</fix>
</trkpt>
<trkpt lat="-27.272705" lon="151.2904514">
  <ele>378.32</ele>
  <time>2026-09-01T19:57:19Z</time>
  <course>148.02</course>
  <speed>7.41</speed>
  <fix>3d</fix>
</trkpt>
<trkpt lat="-27.2727213" lon="151.2904609">
  <ele>378.09</ele>
  <time>2026-09-01T19:57:19Z</time>
  <course>125.43</course>
  <speed>6.808002643947783</speed>
  <fix>3d</fix>
</trkpt>
<trkpt lat="-27.272705" lon="151.2904514">
  <ele>378.32</ele>
  <time>2026-09-01T19:57:19Z</time>
  <course>148.02</course>
  <speed>7.41</speed>
  <fix>3d</fix>
</trkpt>
<trkpt lat="-27.2727268" lon="151.2904638">
  <ele>378.06</ele>
  <time>2026-09-01T19:57:19Z</time>
  <course>125.82</course>
  <speed>6.604755862255622</speed>
  <fix>3d</fix>
</trkpt>
<trkpt lat="-27.2727163" lon="151.2904586">
  <ele>378.26</ele>
  <time>2026-09-01T19:57:19Z</time>
  <course>152.14</course>
  <speed>7.03</speed>
  <fix>3d</fix>
</trkpt>
<trkpt lat="-27.2727322" lon="151.2904663">
  <ele>378.02</ele>
  <time>2026-09-01T19:57:19Z</time>
  <course>125.98</course>
  <speed>6.3986404806021095</speed>
  <fix>3d</fix>
</trkpt>
<trkpt lat="-27.2727163" lon="151.2904586">
  <ele>378.26</ele>
  <time>2026-09-01T19:57:19Z</time>
  <course>152.14</course>
  <speed>7.03</speed>
  <fix>3d</fix>
</trkpt>
<trkpt lat="-27.2727375" lon="151.2904685">
  <ele>377.99</ele>
  <time>2026-09-01T19:57:19Z</time>
  <course>125.93</course>
  <speed>6.214056646024399</speed>
  <fix>3d</fix>
</trkpt>
<trkpt lat="-27.2727273" lon="151.2904646">
  <ele>378.19</ele>
  <time>2026-09-01T19:57:19Z</time>
  <course>156.72</course>
  <speed>6.63</speed>
  <fix>3d</fix>
</trkpt>
<trkpt lat="-27.2727428" lon="151.2904703">
  <ele>377.94</ele>
  <time>2026-09-01T19:57:19Z</time>
  <course>125.75</course>
  <speed>6.0552126304532035</speed>
  <fix>3d</fix>
</trkpt>
<trkpt lat="-27.2727273" lon="151.2904646">
  <ele>378.19</ele>
  <time>2026-09-01T19:57:19Z</time>
  <course>156.72</course>
  <speed>6.63</speed>
  <fix>3d</fix>
</trkpt>
<trkpt lat="-27.272748" lon="151.2904718">
  <ele>377.87</ele>
  <time>2026-09-01T19:57:19Z</time>
  <course>125.57</course>
  <speed>5.912444502910788</speed>
  <fix>3d</fix>
</trkpt>
<trkpt lat="-27.2727381" lon="151.2904692">
  <ele>378.11</ele>
  <time>2026-09-01T19:57:19Z</time>
  <course>161.78</course>
  <speed>6.24</speed>
  <fix>3d</fix>
</trkpt>
<trkpt lat="-27.2727532" lon="151.290473">
  <ele>377.79</ele>
  <time>2026-09-01T19:57:19Z</time>
  <course>125.47</course>
  <speed>5.785334908196758</speed>
  <fix>3d</fix>
</trkpt>
<trkpt lat="-27.2727381" lon="151.2904692">
  <ele>378.11</ele>
  <time>2026-09-01T19:57:19Z</time>
  <course>161.78</course>
  <speed>6.24</speed>
  <fix>3d</fix>
</trkpt>
<trkpt lat="-27.2727583" lon="151.290474">
  <ele>377.69</ele>
  <time>2026-09-01T19:57:20Z</time>
  <course>125.48</course>
  <speed>5.682050686151964</speed>
  <fix>3d</fix>
</trkpt>
<trkpt lat="-27.2727487" lon="151.2904725">
  <ele>378.0</ele>
  <time>2026-09-01T19:57:20Z</time>
  <course>167.22</course>
  <speed>5.93</speed>
  <fix>3d</fix>
</trkpt>
<trkpt lat="-27.2727634" lon="151.2904746">
  <ele>377.58</ele>
  <time>2026-09-01T19:57:20Z</time>
  <course>125.63</course>
  <speed>5.593612428475896</speed>
  <fix>3d</fix>
</trkpt>
<trkpt lat="-27.2727487" lon="151.2904725">
  <ele>378.0</ele>
  <time>2026-09-01T19:57:20Z</time>
  <course>167.22</course>
  <speed>5.93</speed>
  <fix>3d</fix>
</trkpt>
<trkpt lat="-27.2727684" lon="151.2904749">
  <ele>377.45</ele>
  <time>2026-09-01T19:57:20Z</time>
  <course>125.92</course>
  <speed>5.5307323204074885</speed>
  <fix>3d</fix>
</trkpt>
<trkpt lat="-27.272759" lon="151.2904745">
  <ele>377.82</ele>
  <time>2026-09-01T19:57:20Z</time>
  <course>172.98</course>
  <speed>5.7</speed>
  <fix>3d</fix>
</trkpt>
<trkpt lat="-27.2727733" lon="151.2904748">
  <ele>377.31</ele>
  <time>2026-09-01T19:57:20Z</time>
  <course>126.33</course>
  <speed>5.473655085954905</speed>
  <fix>3d</fix>
</trkpt>
<trkpt lat="-27.272759" lon="151.2904745">
  <ele>377.82</ele>
  <time>2026-09-01T19:57:20Z</time>
  <course>172.98</course>
  <speed>5.7</speed>
  <fix>3d</fix>
</trkpt>
<trkpt lat="-27.2727782" lon="151.2904746">
  <ele>377.16</ele>
  <time>2026-09-01T19:57:20Z</time>
  <course>126.85</course>
  <speed>5.432145064336924</speed>
  <fix>3d</fix>
</trkpt>
<trkpt lat="-27.272769" lon="151.2904754">
  <ele>377.58</ele>
  <time>2026-09-01T19:57:20Z</time>
  <course>179.04</course>
  <speed>5.54</speed>
  <fix>3d</fix>
</trkpt>
<trkpt lat="-27.2727831" lon="151.290474">
  <ele>377.01</ele>
  <time>2026-09-01T19:57:20Z</time>
  <course>127.48</course>
  <speed>5.416456406175536</speed>
  <fix>3d</fix>
</trkpt>
<trkpt lat="-27.272769" lon="151.2904754">
  <ele>377.58</ele>
  <time>2026-09-01T19:57:20Z</time>
  <course>179.04</course>
  <speed>5.54</speed>
  <fix>3d</fix>
</trkpt>
<trkpt lat="-27.2727879" lon="151.2904731">
  <ele>376.84</ele>
  <time>2026-09-01T19:57:20Z</time>
  <course>128.21</course>
  <speed>5.397128866351071</speed>
  <fix>3d</fix>
</trkpt>
<trkpt lat="-27.2727789" lon="151.290475">
  <ele>377.3</ele>
  <time>2026-09-01T19:57:20Z</time>
  <course>185.29</course>
  <speed>5.44</speed>
  <fix>3d</fix>
</trkpt>
<trkpt lat="-27.2727926" lon="151.2904719">
  <ele>376.67</ele>
  <time>2026-09-01T19:57:20Z</time>
  <course>129.19</course>
  <speed>5.396786080622429</speed>
  <fix>3d</fix>
</trkpt>
<trkpt lat="-27.2727789" lon="151.290475">
  <ele>377.3</ele>
  <time>2026-09-01T19:57:20Z</time>
  <course>185.29</course>
  <speed>5.44</speed>
  <fix>3d</fix>
</trkpt>
<trkpt lat="-27.2727972" lon="151.2904705">
  <ele>376.49</ele>
  <time>2026-09-01T19:57:20Z</time>
  <course>130.41</course>
  <speed>5.410924135487394</speed>
  <fix>3d</fix>
</trkpt>
<trkpt lat="-27.2727885" lon="151.2904735">
  <ele>376.97</ele>
  <time>2026-09-01T19:57:20Z</time>
  <course>191.65</course>
  <speed>5.41</speed>
  <fix>3d</fix>
</trkpt>
<trkpt lat="-27.2728018" lon="151.2904687">
  <ele>376.33</ele>
  <time>2026-09-01T19:57:20Z</time>
  <course>131.73</course>
  <speed>5.40981515395859</speed>
  <fix>3d</fix>
</trkpt>
<trkpt lat="-27.2727885" lon="151.2904735">
  <ele>376.97</ele>
  <time>2026-09-01T19:57:20Z</time>
  <course>191.65</course>
  <speed>5.41</speed>
  <fix>3d</fix>
</trkpt>
<trkpt lat="-27.2728063" lon="151.2904666">
  <ele>376.17</ele>
  <time>2026-09-01T19:57:20Z</time>
  <course>133.05</course>
  <speed>5.343865642023571</speed>
  <fix>3d</fix>
</trkpt>
<trkpt lat="-27.2727979" lon="151.2904707">
  <ele>376.64</ele>
  <time>2026-09-01T19:57:20Z</time>
  <course>198.07</course>
  <speed>5.41</speed>
  <fix>3d</fix>
</trkpt>
<trkpt lat="-27.2728106" lon="151.2904643">
  <ele>376.0</ele>
  <time>2026-09-01T19:57:20Z</time>
  <course>134.28</course>
  <speed>5.193505559831433</speed>
  <fix>3d</fix>
</trkpt>
<trkpt lat="-27.2727979" lon="151.2904707">
  <ele>376.64</ele>
  <time>2026-09-01T19:57:20Z</time>
  <course>198.07</course>
  <speed>5.41</speed>
  <fix>3d</fix>
</trkpt>
<trkpt lat="-27.2728145" lon="151.2904615">
  <ele>375.82</ele>
  <time>2026-09-01T19:57:20Z</time>
  <course>135.27</course>
  <speed>5.106828761570139</speed>
  <fix>3d</fix>
</trkpt>
<trkpt lat="-27.2728069" lon="151.2904667">
  <ele>376.3</ele>
  <time>2026-09-01T19:57:20Z</time>
  <course>205.29</course>
  <speed>5.31</speed>
  <fix>3d</fix>
</trkpt>
<trkpt lat="-27.2728181" lon="151.2904583">
  <ele>375.68</ele>
  <time>2026-09-01T19:57:20Z</time>
  <course>135.91</course>
  <speed>5.103430218980171</speed>
  <fix>3d</fix>
</trkpt>
<trkpt lat="-27.2728069" lon="151.2904667">
  <ele>376.3</ele>
  <time>2026-09-01T19:57:20Z</time>
  <course>205.29</course>
  <speed>5.31</speed>
  <fix>3d</fix>
</trkpt>
<trkpt lat="-27.2728215" lon="151.2904549">
  <ele>375.62</ele>
  <time>2026-09-01T19:57:20Z</time>
  <course>136.5</course>
  <speed>5.043461113164253</speed>
  <fix>3d</fix>
</trkpt>
<trkpt lat="-27.272815" lon="151.2904613">
  <ele>375.98</ele>
  <time>2026-09-01T19:57:20Z</time>
  <course>215.32</course>
  <speed>5.15</speed>
  <fix>3d</fix>
</trkpt>
<trkpt lat="-27.2728248" lon="151.2904513">
  <ele>375.6</ele>
  <time>2026-09-01T19:57:20Z</time>
  <course>137.03</course>
  <speed>4.914804167004012</speed>
  <fix>3d</fix>
</trkpt>
<trkpt lat="-27.272815" lon="151.2904613">
  <ele>375.98</ele>
  <time>2026-09-01T19:57:20Z</time>
  <course>215.32</course>
  <speed>5.15</speed>
  <fix>3d</fix>
</trkpt>
<trkpt lat="-27.2728279" lon="151.2904479">
  <ele>375.57</ele>
  <time>2026-09-01T19:57:20Z</time>
  <course>137.18</course>
  <speed>4.758959970413704</speed>
  <fix>3d</fix>
</trkpt>
<trkpt lat="-27.2728221" lon="151.2904548">
  <ele>375.78</ele>
  <time>2026-09-01T19:57:20Z</time>
  <course>223.0</course>
  <speed>5.04</speed>
  <fix>3d</fix>
</trkpt>
<trkpt lat="-27.2728308" lon="151.2904446">
  <ele>375.55</ele>
  <time>2026-09-01T19:57:20Z</time>
  <course>136.72</course>
  <speed>4.603705029647316</speed>
  <fix>3d</fix>
</trkpt>
<trkpt lat="-27.2728221" lon="151.2904548">
  <ele>375.78</ele>
  <time>2026-09-01T19:57:20Z</time>
  <course>223.0</course>
  <speed>5.04</speed>
  <fix>3d</fix>
</trkpt>
<trkpt lat="-27.2728337" lon="151.2904413">
  <ele>375.53</ele>
  <time>2026-09-01T19:57:20Z</time>
  <course>135.66</course>
  <speed>4.447842173458946</speed>
  <fix>3d</fix>
</trkpt>
<trkpt lat="-27.2728284" lon="151.2904478">
  <ele>375.7</ele>
  <time>2026-09-01T19:57:20Z</time>
  <course>225.09</course>
  <speed>4.79</speed>
  <fix>3d</fix>
</trkpt>
<trkpt lat="-27.2728366" lon="151.2904383">
  <ele>375.52</ele>
  <time>2026-09-01T19:57:20Z</time>
  <course>133.93</course>
  <speed>4.286560392669162</speed>
  <fix>3d</fix>
</trkpt>
<trkpt lat="-27.2728284" lon="151.2904478">
  <ele>375.7</ele>
  <time>2026-09-01T19:57:20Z</time>
  <course>225.09</course>
  <speed>4.79</speed>
  <fix>3d</fix>
</trkpt>
<trkpt lat="-27.2728394" lon="151.2904354">
  <ele>375.53</ele>
  <time>2026-09-01T19:57:20Z</time>
  <course>131.5</course>
  <speed>4.120594617285229</speed>
  <fix>3d</fix>
</trkpt>
<trkpt lat="-27.2728343" lon="151.2904411">
  <ele>375.67</ele>
  <time>2026-09-01T19:57:20Z</time>
  <course>224.62</course>
  <speed>4.48</speed>
  <fix>3d</fix>
</trkpt>
<trkpt lat="-27.2728422" lon="151.2904328">
  <ele>375.54</ele>
  <time>2026-09-01T19:57:20Z</time>
  <course>128.42</course>
  <speed>3.948518709592244</speed>
  <fix>3d</fix>
</trkpt>
<trkpt lat="-27.2728343" lon="151.2904411">
  <ele>375.67</ele>
  <time>2026-09-01T19:57:20Z</time>
  <course>224.62</course>
  <speed>4.48</speed>
  <fix>3d</fix>
</trkpt>
<trkpt lat="-27.272845" lon="151.2904305">
  <ele>375.55</ele>
  <time>2026-09-01T19:57:20Z</time>
  <course>124.78</course>
  <speed>3.7629376821839613</speed>
  <fix>3d</fix>
</trkpt>
<trkpt lat="-27.27284" lon="151.2904352">
  <ele>375.68</ele>
  <time>2026-09-01T19:57:20Z</time>
  <course>221.74</course>
  <speed>4.13</speed>
  <fix>3d</fix>
</trkpt>
<trkpt lat="-27.2728478" lon="151.2904284">
  <ele>375.58</ele>
  <time>2026-09-01T19:57:20Z</time>
  <course>120.65</course>
  <speed>3.562653505464712</speed>
  <fix>3d</fix>
</trkpt>
<trkpt lat="-27.27284" lon="151.2904352">
  <ele>375.68</ele>
  <time>2026-09-01T19:57:20Z</time>
  <course>221.74</course>
  <speed>4.13</speed>
  <fix>3d</fix>
</trkpt>
<trkpt lat="-27.2728505" lon="151.2904266">
  <ele>375.62</ele>
  <time>2026-09-01T19:57:20Z</time>
  <course>116.07</course>
  <speed>3.3248308227637686</speed>
  <fix>3d</fix>
</trkpt>
<trkpt lat="-27.2728455" lon="151.2904301">
  <ele>375.71</ele>
  <time>2026-09-01T19:57:20Z</time>
  <course>216.68</course>
  <speed>3.75</speed>
  <fix>3d</fix>
</trkpt>
<trkpt lat="-27.2728531" lon="151.2904251">
  <ele>375.68</ele>
  <time>2026-09-01T19:57:20Z</time>
  <course>111.12</course>
  <speed>3.0641475160311717</speed>
  <fix>3d</fix>
</trkpt>
<trkpt lat="-27.2728455" lon="151.2904301">
  <ele>375.71</ele>
  <time>2026-09-01T19:57:20Z</time>
  <course>216.68</course>
  <speed>3.75</speed>
  <fix>3d</fix>
</trkpt>
<trkpt lat="-27.2728555" lon="151.2904238">
  <ele>375.73</ele>
  <time>2026-09-01T19:57:20Z</time>
  <course>105.87</course>
  <speed>2.789265136196271</speed>
  <fix>3d</fix>
</trkpt>
<trkpt lat="-27.2728507" lon="151.2904262">
  <ele>375.78</ele>
  <time>2026-09-01T19:57:20Z</time>
  <course>210.17</course>
  <speed>3.29</speed>
  <fix>3d</fix>
</trkpt>
<trkpt lat="-27.2728577" lon="151.2904228">
  <ele>375.77</ele>
  <time>2026-09-01T19:57:20Z</time>
  <course>100.49</course>
  <speed>2.5128867861485524</speed>
  <fix>3d</fix>
</trkpt>
<trkpt lat="-27.2728507" lon="151.2904262">
  <ele>375.78</ele>
  <time>2026-09-01T19:57:20Z</time>
  <course>210.17</course>
  <speed>3.29</speed>
  <fix>3d</fix>
</trkpt>
<trkpt lat="-27.2728597" lon="151.2904219">
  <ele>375.78</ele>
  <time>2026-09-01T19:57:20Z</time>
  <course>95.26</course>
  <speed>2.249555511651135</speed>
  <fix>3d</fix>
</trkpt>
<trkpt lat="-27.2728556" lon="151.2904234">
  <ele>375.88</ele>
  <time>2026-09-01T19:57:20Z</time>
  <course>204.29</course>
  <speed>2.76</speed>
  <fix>3d</fix>
</trkpt>
<trkpt lat="-27.2728614" lon="151.2904211">
  <ele>375.75</ele>
  <time>2026-09-01T19:57:20Z</time>
  <course>90.49</course>
  <speed>1.99090431713832</speed>
  <fix>3d</fix>
</trkpt>
<trkpt lat="-27.2728556" lon="151.2904234">
  <ele>375.88</ele>
  <time>2026-09-01T19:57:20Z</time>
  <course>204.29</course>
  <speed>2.76</speed>
  <fix>3d</fix>
</trkpt>
<trkpt lat="-27.272863" lon="151.2904204">
  <ele>375.67</ele>
  <time>2026-09-01T19:57:20Z</time>
  <course>86.27</course>
  <speed>1.721540008248429</speed>
  <fix>3d</fix>
</trkpt>
<trkpt lat="-27.2728597" lon="151.2904214">
  <ele>375.92</ele>
  <time>2026-09-01T19:57:20Z</time>
  <course>201.88</course>
  <speed>2.22</speed>
  <fix>3d</fix>
</trkpt>
<trkpt lat="-27.2728642" lon="151.2904197">
  <ele>375.54</ele>
  <time>2026-09-01T19:57:20Z</time>
  <course>82.39</course>
  <speed>1.3735355838128112</speed>
  <fix>3d</fix>
</trkpt>
<trkpt lat="-27.2728597" lon="151.2904214">
  <ele>375.92</ele>
  <time>2026-09-01T19:57:20Z</time>
  <course>201.88</course>
  <speed>2.22</speed>
  <fix>3d</fix>
</trkpt>
<trkpt lat="-27.2728651" lon="151.290419">
  <ele>375.39</ele>
  <time>2026-09-01T19:57:20Z</time>
  <course>78.23</course>
  <speed>1.0217631819555841</speed>
  <fix>3d</fix>
</trkpt>
<trkpt lat="-27.2728629" lon="151.2904199">
  <ele>375.81</ele>
  <time>2026-09-01T19:57:20Z</time>
  <course>205.26</course>
  <speed>1.65</speed>
  <fix>3d</fix>
</trkpt>
<trkpt lat="-27.2728656" lon="151.2904183">
  <ele>375.22</ele>
  <time>2026-09-01T19:57:20Z</time>
  <course>72.42</course>
  <speed>0.7068238818828917</speed>
  <fix>3d</fix>
</trkpt>
<trkpt lat="-27.2728629" lon="151.2904199">
  <ele>375.81</ele>
  <time>2026-09-01T19:57:20Z</time>
  <course>205.26</course>
  <speed>1.65</speed>
  <fix>3d</fix>
</trkpt>
<trkpt lat="-27.2728656" lon="151.2904176">
  <ele>375.05</ele>
  <time>2026-09-01T19:57:20Z</time>
  <course>65.3</course>
  <speed>0.6462197768561404</speed>
  <fix>3d</fix>
</trkpt>
<trkpt lat="-27.2728649" lon="151.2904184">
  <ele>375.55</ele>
  <time>2026-09-01T19:57:20Z</time>
  <course>222.91</course>
  <speed>0.98</speed>
  <fix>3d</fix>
</trkpt>
<trkpt lat="-27.2728651" lon="151.290417">
  <ele>374.89</ele>
  <time>2026-09-01T19:57:20Z</time>
  <course>57.06</course>
  <speed>0.951892851112981</speed>
  <fix>3d</fix>
</trkpt>
<trkpt lat="-27.2728649" lon="151.2904184">
  <ele>375.55</ele>
  <time>2026-09-01T19:57:20Z</time>
  <course>222.91</course>
  <speed>0.98</speed>
  <fix>3d</fix>
</trkpt>
<trkpt lat="-27.2728641" lon="151.2904165">
  <ele>374.74</ele>
  <time>2026-09-01T19:57:20Z</time>
  <course>48.17</course>
  <speed>1.42414886862294</speed>
  <fix>3d</fix>
</trkpt>
<trkpt lat="-27.2728654" lon="151.2904171">
  <ele>375.22</ele>
  <time>2026-09-01T19:57:20Z</time>
  <course>295.9</course>
  <speed>0.66</speed>
  <fix>3d</fix>
</trkpt>
<trkpt lat="-27.2728626" lon="151.2904163">
  <ele>374.61</ele>
  <time>2026-09-01T19:57:20Z</time>
  <course>40.1</course>
  <speed>1.9702284131541703</speed>
  <fix>3d</fix>
</trkpt>
<trkpt lat="-27.2728654" lon="151.2904171">
  <ele>375.22</ele>
  <time>2026-09-01T19:57:20Z</time>
  <course>295.9</course>
  <speed>0.66</speed>
  <fix>3d</fix>
</trkpt>
<trkpt lat="-27.2728606" lon="151.2904166">
  <ele>374.51</ele>
  <time>2026-09-01T19:57:20Z</time>
  <course>34.19</course>
  <speed>2.514318993286254</speed>
  <fix>3d</fix>
</trkpt>
<trkpt lat="-27.2728639" lon="151.2904163">
  <ele>374.9</ele>
  <time>2026-09-01T19:57:20Z</time>
  <course>349.23</course>
  <speed>1.45</speed>
  <fix>3d</fix>
</trkpt>
<trkpt lat="-27.2728582" lon="151.2904173">
  <ele>374.43</ele>
  <time>2026-09-01T19:57:20Z</time>
  <course>30.66</course>
  <speed>3.0486718419665966</speed>
  <fix>3d</fix>
</trkpt>
<trkpt lat="-27.2728639" lon="151.2904163">
  <ele>374.9</ele>
  <time>2026-09-01T19:57:20Z</time>
  <course>349.23</course>
  <speed>1.45</speed>
  <fix>3d</fix>
</trkpt>
<trkpt lat="-27.2728554" lon="151.2904186">
  <ele>374.38</ele>
  <time>2026-09-01T19:57:20Z</time>
  <course>28.83</course>
  <speed>3.582206024225854</speed>
  <fix>3d</fix>
</trkpt>
<trkpt lat="-27.2728604" lon="151.2904164">
  <ele>374.68</ele>
  <time>2026-09-01T19:57:20Z</time>
  <course>10.78</course>
  <speed>2.52</speed>
  <fix>3d</fix>
</trkpt>
<trkpt lat="-27.2728524" lon="151.2904204">
  <ele>374.35</ele>
  <time>2026-09-01T19:57:20Z</time>
  <course>28.01</course>
  <speed>4.128692286911196</speed>
  <fix>3d</fix>
</trkpt>
<trkpt lat="-27.2728604" lon="151.2904164">
  <ele>374.68</ele>
  <time>2026-09-01T19:57:20Z</time>
  <course>10.78</course>
  <speed>2.52</speed>
  <fix>3d</fix>
</trkpt>
<trkpt lat="-27.2728491" lon="151.2904229">
  <ele>374.34</ele>
  <time>2026-09-01T19:57:20Z</time>
  <course>27.75</course>
  <speed>4.682061511770216</speed>
  <fix>3d</fix>
</trkpt>
<trkpt lat="-27.2728551" lon="151.2904183">
  <ele>374.55</ele>
  <time>2026-09-01T19:57:20Z</time>
  <course>25.35</course>
  <speed>3.62</speed>
  <fix>3d</fix>
</trkpt>
<trkpt lat="-27.2728456" lon="151.290426">
  <ele>374.34</ele>
  <time>2026-09-01T19:57:20Z</time>
  <course>27.88</course>
  <speed>5.245693471791885</speed>
  <fix>3d</fix>
</trkpt>
<trkpt lat="-27.2728551" lon="151.2904183">
  <ele>374.55</ele>
  <time>2026-09-01T19:57:20Z</time>
  <course>25.35</course>
  <speed>3.62</speed>
  <fix>3d</fix>
</trkpt>
<trkpt lat="-27.2728418" lon="151.2904296">
  <ele>374.35</ele>
  <time>2026-09-01T19:57:20Z</time>
  <course>28.29</course>
  <speed>5.7829836589774315</speed>
  <fix>3d</fix>
</trkpt>
<trkpt lat="-27.2728487" lon="151.2904227">
  <ele>374.5</ele>
  <time>2026-09-01T19:57:20Z</time>
  <course>35.38</course>
  <speed>4.73</speed>
  <fix>3d</fix>
</trkpt>
<trkpt lat="-27.2728378" lon="151.2904337">
  <ele>374.37</ele>
  <time>2026-09-01T19:57:20Z</time>
  <course>28.99</course>
  <speed>6.3012141687138365</speed>
  <fix>3d</fix>
</trkpt>
<trkpt lat="-27.2728487" lon="151.2904227">
  <ele>374.5</ele>
  <time>2026-09-01T19:57:20Z</time>
  <course>35.38</course>
  <speed>4.73</speed>
  <fix>3d</fix>
</trkpt>
<trkpt lat="-27.2728336" lon="151.2904383">
  <ele>374.39</ele>
  <time>2026-09-01T19:57:20Z</time>
  <course>29.97</course>
  <speed>6.781157718266107</speed>
  <fix>3d</fix>
</trkpt>
<trkpt lat="-27.2728413" lon="151.2904294">
  <ele>374.51</ele>
  <time>2026-09-01T19:57:20Z</time>
  <course>41.3</course>
  <speed>5.82</speed>
  <fix>3d</fix>
</trkpt>
<trkpt lat="-27.2728291" lon="151.2904433">
  <ele>374.4</ele>
  <time>2026-09-01T19:57:20Z</time>
  <course>31.19</course>
  <speed>7.23398230575663</speed>
  <fix>3d</fix>
</trkpt>
<trkpt lat="-27.2728413" lon="151.2904294">
  <ele>374.51</ele>
  <time>2026-09-01T19:57:20Z</time>
  <course>41.3</course>
  <speed>5.82</speed>
  <fix>3d</fix>
</trkpt>
<trkpt lat="-27.2728244" lon="151.2904486">
  <ele>374.4</ele>
  <time>2026-09-01T19:57:20Z</time>
  <course>32.56</course>
  <speed>7.644377018436493</speed>
  <fix>3d</fix>
</trkpt>
<trkpt lat="-27.272833" lon="151.2904381">
  <ele>374.53</ele>
  <time>2026-09-01T19:57:20Z</time>
  <course>44.12</course>
  <speed>6.83</speed>
  <fix>3d</fix>
</trkpt>
<trkpt lat="-27.2728194" lon="151.2904542">
  <ele>374.38</ele>
  <time>2026-09-01T19:57:20Z</time>
  <course>33.96</course>
  <speed>8.005060899206201</speed>
  <fix>3d</fix>
</trkpt>
<trkpt lat="-27.272833" lon="151.2904381">
  <ele>374.53</ele>
  <time>2026-09-01T19:57:20Z</time>
  <course>44.12</course>
  <speed>6.83</speed>
  <fix>3d</fix>
</trkpt>
<trkpt lat="-27.2728142" lon="151.29046">
  <ele>374.36</ele>
  <time>2026-09-01T19:57:20Z</time>
  <course>35.29</course>
  <speed>8.344291461831855</speed>
  <fix>3d</fix>
</trkpt>
<trkpt lat="-27.2728237" lon="151.2904484">
  <ele>374.53</ele>
  <time>2026-09-01T19:57:20Z</time>
  <course>45.06</course>
  <speed>7.69</speed>
  <fix>3d</fix>
</trkpt>
<trkpt lat="-27.2728088" lon="151.2904661">
  <ele>374.33</ele>
  <time>2026-09-01T19:57:20Z</time>
  <course>36.49</course>
  <speed>8.648265722097118</speed>
  <fix>3d</fix>
</trkpt>
<trkpt lat="-27.2728237" lon="151.2904484">
  <ele>374.53</ele>
  <time>2026-09-01T19:57:20Z</time>
  <course>45.06</course>
  <speed>7.69</speed>
  <fix>3d</fix>
</trkpt>
<trkpt lat="-27.2728032" lon="151.2904724">
  <ele>374.31</ele>
  <time>2026-09-01T19:57:20Z</time>
  <course>37.5</course>
  <speed>8.902611976268538</speed>
  <fix>3d</fix>
</trkpt>
<trkpt lat="-27.2728135" lon="151.29046">
  <ele>374.5</ele>
  <time>2026-09-01T19:57:20Z</time>
  <course>45.18</course>
  <speed>8.41</speed>
  <fix>3d</fix>
</trkpt>
<trkpt lat="-27.2727975" lon="151.2904788">
  <ele>374.3</ele>
  <time>2026-09-01T19:57:20Z</time>
  <course>38.3</course>
  <speed>9.12875128371893</speed>
  <fix>3d</fix>
</trkpt>
<trkpt lat="-27.2728135" lon="151.29046">
  <ele>374.5</ele>
  <time>2026-09-01T19:57:20Z</time>
  <course>45.18</course>
  <speed>8.41</speed>
  <fix>3d</fix>
</trkpt>
<trkpt lat="-27.2727915" lon="151.2904854">
  <ele>374.3</ele>
  <time>2026-09-01T19:57:20Z</time>
  <course>38.91</course>
  <speed>9.298585913997892</speed>
  <fix>3d</fix>
</trkpt>
<trkpt lat="-27.2728024" lon="151.2904724">
  <ele>374.46</ele>
  <time>2026-09-01T19:57:20Z</time>
  <course>44.97</course>
  <speed>8.97</speed>
  <fix>3d</fix>
</trkpt>
<trkpt lat="-27.2727854" lon="151.290492">
  <ele>374.32</ele>
  <time>2026-09-01T19:57:20Z</time>
  <course>39.33</course>
  <speed>9.412188905881564</speed>
  <fix>3d</fix>
</trkpt>
<trkpt lat="-27.2728024" lon="151.2904724">
  <ele>374.46</ele>
  <time>2026-09-01T19:57:20Z</time>
  <course>44.97</course>
  <speed>8.97</speed>
  <fix>3d</fix>
</trkpt>
<trkpt lat="-27.2727793" lon="151.2904986">
  <ele>374.37</ele>
  <time>2026-09-01T19:57:20Z</time>
  <course>39.59</course>
  <speed>9.469809924174825</speed>
  <fix>3d</fix>
</trkpt>
<trkpt lat="-27.2727907" lon="151.2904855">
  <ele>374.45</ele>
  <time>2026-09-01T19:57:20Z</time>
  <course>44.47</course>
  <speed>9.37</speed>
  <fix>3d</fix>
</trkpt>
<trkpt lat="-27.2727731" lon="151.2905052">
  <ele>374.43</ele>
  <time>2026-09-01T19:57:20Z</time>
  <course>39.73</course>
  <speed>9.485531086871203</speed>
  <fix>3d</fix>
</trkpt>
<trkpt lat="-27.2727907" lon="151.2904855">
  <ele>374.45</ele>
  <time>2026-09-01T19:57:20Z</time>
  <course>44.47</course>
  <speed>9.37</speed>
  <fix>3d</fix>
</trkpt>
<trkpt lat="-27.2727669" lon="151.2905117">
  <ele>374.52</ele>
  <time>2026-09-01T19:57:20Z</time>
  <course>39.78</course>
  <speed>9.445236894858699</speed>
  <fix>3d</fix>
</trkpt>
<trkpt lat="-27.2727785" lon="151.2904989">
  <ele>374.51</ele>
  <time>2026-09-01T19:57:20Z</time>
  <course>43.77</course>
  <speed>9.56</speed>
  <fix>3d</fix>
</trkpt>
<trkpt lat="-27.2727607" lon="151.2905182">
  <ele>374.62</ele>
  <time>2026-09-01T19:57:20Z</time>
  <course>39.76</course>
  <speed>9.355746896961247</speed>
  <fix>3d</fix>
</trkpt>
<trkpt lat="-27.2727785" lon="151.2904989">
  <ele>374.51</ele>
  <time>2026-09-01T19:57:20Z</time>
  <course>43.77</course>
  <speed>9.56</speed>
  <fix>3d</fix>
</trkpt>
<trkpt lat="-27.2727544" lon="151.2905245">
  <ele>374.73</ele>
  <time>2026-09-01T19:57:20Z</time>
  <course>39.71</course>
  <speed>9.245214978571347</speed>
  <fix>3d</fix>
</trkpt>
<trkpt lat="-27.272766" lon="151.2905122">
  <ele>374.65</ele>
  <time>2026-09-01T19:57:20Z</time>
  <course>42.98</course>
  <speed>9.54</speed>
  <fix>3d</fix>
</trkpt>
<trkpt lat="-27.2727483" lon="151.2905307">
  <ele>374.85</ele>
  <time>2026-09-01T19:57:20Z</time>
  <course>39.64</course>
  <speed>9.10685456126318</speed>
  <fix>3d</fix>
</trkpt>
<trkpt lat="-27.272766" lon="151.2905122">
  <ele>374.65</ele>
  <time>2026-09-01T19:57:20Z</time>
  <course>42.98</course>
  <speed>9.54</speed>
  <fix>3d</fix>
</trkpt>
<trkpt lat="-27.2727422" lon="151.2905368">
  <ele>374.98</ele>
  <time>2026-09-01T19:57:20Z</time>
  <course>39.56</course>
  <speed>8.947340386952986</speed>
  <fix>3d</fix>
</trkpt>
<trkpt lat="-27.2727534" lon="151.2905251">
  <ele>374.86</ele>
  <time>2026-09-01T19:57:20Z</time>
  <course>42.2</course>
  <speed>9.36</speed>
  <fix>3d</fix>
</trkpt>
<trkpt lat="-27.2727362" lon="151.2905427">
  <ele>375.11</ele>
  <time>2026-09-01T19:57:20Z</time>
  <course>39.48</course>
  <speed>8.766578580039079</speed>
  <fix>3d</fix>
</trkpt>
<trkpt lat="-27.2727534" lon="151.2905251">
  <ele>374.86</ele>
  <time>2026-09-01T19:57:20Z</time>
  <course>42.2</course>
  <speed>9.36</speed>
  <fix>3d</fix>
</trkpt>
<trkpt lat="-27.2727302" lon="151.2905485">
  <ele>375.23</ele>
  <time>2026-09-01T19:57:20Z</time>
  <course>39.4</course>
  <speed>8.585132497521514</speed>
  <fix>3d</fix>
</trkpt>
<trkpt lat="-27.2727411" lon="151.2905376">
  <ele>375.1</ele>
  <time>2026-09-01T19:57:20Z</time>
  <course>41.5</course>
  <speed>9.07</speed>
  <fix>3d</fix>
</trkpt>
<trkpt lat="-27.2727244" lon="151.2905541">
  <ele>375.34</ele>
  <time>2026-09-01T19:57:20Z</time>
  <course>39.32</course>
  <speed>8.397380543955359</speed>
  <fix>3d</fix>
</trkpt>
<trkpt lat="-27.2727411" lon="151.2905376">
  <ele>375.1</ele>
  <time>2026-09-01T19:57:20Z</time>
  <course>41.5</course>
  <speed>9.07</speed>
  <fix>3d</fix>
</trkpt>
<trkpt lat="-27.2727187" lon="151.2905596">
  <ele>375.44</ele>
  <time>2026-09-01T19:57:20Z</time>
  <course>39.24</course>
  <speed>8.208757518650431</speed>
  <fix>3d</fix>
</trkpt>
<trkpt lat="-27.272729" lon="151.2905494">
  <ele>375.34</ele>
  <time>2026-09-01T19:57:20Z</time>
  <course>40.87</course>
  <speed>8.72</speed>
  <fix>3d</fix>
</trkpt>
<trkpt lat="-27.272713" lon="151.2905649">
  <ele>375.52</ele>
  <time>2026-09-01T19:57:20Z</time>
  <course>39.16</course>
  <speed>8.020299246287511</speed>
  <fix>3d</fix>
</trkpt>
<trkpt lat="-27.272729" lon="151.2905494">
  <ele>375.34</ele>
  <time>2026-09-01T19:57:20Z</time>
  <course>40.87</course>
  <speed>8.72</speed>
  <fix>3d</fix>
</trkpt>
<trkpt lat="-27.2727075" lon="151.2905701">
  <ele>375.58</ele>
  <time>2026-09-01T19:57:20Z</time>
  <course>39.08</course>
  <speed>7.846100942506411</speed>
  <fix>3d</fix>
</trkpt>
<trkpt lat="-27.2727174" lon="151.2905606">
  <ele>375.55</ele>
  <time>2026-09-01T19:57:20Z</time>
  <course>40.32</course>
  <speed>8.34</speed>
  <fix>3d</fix>
</trkpt>
<trkpt lat="-27.2727021" lon="151.2905752">
  <ele>375.64</ele>
  <time>2026-09-01T19:57:20Z</time>
  <course>39.0</course>
  <speed>7.678443852760792</speed>
  <fix>3d</fix>
</trkpt>
<trkpt lat="-27.2727174" lon="151.2905606">
  <ele>375.55</ele>
  <time>2026-09-01T19:57:20Z</time>
  <course>40.32</course>
  <speed>8.34</speed>
  <fix>3d</fix>
</trkpt>
<trkpt lat="-27.2726967" lon="151.2905801">
  <ele>375.67</ele>
  <time>2026-09-01T19:57:20Z</time>
  <course>38.91</course>
  <speed>7.510905404809729</speed>
  <fix>3d</fix>
</trkpt>
<trkpt lat="-27.2727062" lon="151.2905713">
  <ele>375.7</ele>
  <time>2026-09-01T19:57:20Z</time>
  <course>39.83</course>
  <speed>7.97</speed>
  <fix>3d</fix>
</trkpt>
<trkpt lat="-27.2726915" lon="151.2905849">
  <ele>375.69</ele>
  <time>2026-09-01T19:57:20Z</time>
  <course>38.83</course>
  <speed>7.3638712644912525</speed>
  <fix>3d</fix>
</trkpt>
<trkpt lat="-27.2727062" lon="151.2905713">
  <ele>375.7</ele>
  <time>2026-09-01T19:57:20Z</time>
  <course>39.83</course>
  <speed>7.97</speed>
  <fix>3d</fix>
</trkpt>
<trkpt lat="-27.2726863" lon="151.2905896">
  <ele>375.7</ele>
  <time>2026-09-01T19:57:20Z</time>
  <course>38.74</course>
  <speed>7.224679923705963</speed>
  <fix>3d</fix>
</trkpt>
<trkpt lat="-27.2726953" lon="151.2905813">
  <ele>375.79</ele>
  <time>2026-09-01T19:57:20Z</time>
  <course>39.4</course>
  <speed>7.63</speed>
  <fix>3d</fix>
</trkpt>
<trkpt lat="-27.2726812" lon="151.2905942">
  <ele>375.69</ele>
  <time>2026-09-01T19:57:20Z</time>
  <course>38.65</course>
  <speed>7.091861532771208</speed>
  <fix>3d</fix>
</trkpt>
<trkpt lat="-27.2726953" lon="151.2905813">
  <ele>375.79</ele>
  <time>2026-09-01T19:57:20Z</time>
  <course>39.4</course>
  <speed>7.63</speed>
  <fix>3d</fix>
</trkpt>
<trkpt lat="-27.2726762" lon="151.2905988">
  <ele>375.68</ele>
  <time>2026-09-01T19:57:20Z</time>
  <course>38.56</course>
  <speed>6.9731628404906765</speed>
  <fix>3d</fix>
</trkpt>
<trkpt lat="-27.272685" lon="151.2905908">
  <ele>375.82</ele>
  <time>2026-09-01T19:57:20Z</time>
  <course>39.02</course>
  <speed>7.33</speed>
  <fix>3d</fix>
</trkpt>
<trkpt lat="-27.2726713" lon="151.2906032">
  <ele>375.65</ele>
  <time>2026-09-01T19:57:20Z</time>
  <course>38.48</course>
  <speed>6.852919086053768</speed>
  <fix>3d</fix>
</trkpt>
<trkpt lat="-27.272685" lon="151.2905908">
  <ele>375.82</ele>
  <time>2026-09-01T19:57:20Z</time>
  <course>39.02</course>
  <speed>7.33</speed>
  <fix>3d</fix>
</trkpt>
<trkpt lat="-27.2726664" lon="151.2906076">
  <ele>375.61</ele>
  <time>2026-09-01T19:57:20Z</time>
  <course>38.39</course>
  <speed>6.74214357604464</speed>
  <fix>3d</fix>
</trkpt>
<trkpt lat="-27.2726749" lon="151.2906">
  <ele>375.79</ele>
  <time>2026-09-01T19:57:20Z</time>
  <course>38.69</course>
  <speed>7.07</speed>
  <fix>3d</fix>
</trkpt>
<trkpt lat="-27.2726616" lon="151.2906118">
  <ele>375.56</ele>
  <time>2026-09-01T19:57:20Z</time>
  <course>38.3</course>
  <speed>6.621933252457321</speed>
  <fix>3d</fix>
</trkpt>
<trkpt lat="-27.2726749" lon="151.2906">
  <ele>375.79</ele>
  <time>2026-09-01T19:57:20Z</time>
  <course>38.69</course>
  <speed>7.07</speed>
  <fix>3d</fix>
</trkpt>
<trkpt lat="-27.2726569" lon="151.290616">
  <ele>375.48</ele>
  <time>2026-09-01T19:57:20Z</time>
  <course>38.21</course>
  <speed>6.401757571167468</speed>
  <fix>3d</fix>
</trkpt>
<trkpt lat="-27.2726652" lon="151.2906088">
  <ele>375.72</ele>
  <time>2026-09-01T19:57:20Z</time>
  <course>38.43</course>
  <speed>6.82</speed>
  <fix>3d</fix>
</trkpt>
<trkpt lat="-27.2726525" lon="151.2906199">
  <ele>375.35</ele>
  <time>2026-09-01T19:57:20Z</time>
  <course>38.14</course>
  <speed>6.017582571099462</speed>
  <fix>3d</fix>
</trkpt>
<trkpt lat="-27.2726652" lon="151.2906088">
  <ele>375.72</ele>
  <time>2026-09-01T19:57:20Z</time>
  <course>38.43</course>
  <speed>6.82</speed>
  <fix>3d</fix>
</trkpt>
<trkpt lat="-27.2726483" lon="151.2906236">
  <ele>375.19</ele>
  <time>2026-09-01T19:57:20Z</time>
  <course>38.11</course>
  <speed>5.541299486582548</speed>
  <fix>3d</fix>
</trkpt>
<trkpt lat="-27.2726558" lon="151.2906171">
  <ele>375.58</ele>
  <time>2026-09-01T19:57:20Z</time>
  <course>38.26</course>
  <speed>6.4</speed>
  <fix>3d</fix>
</trkpt>
<trkpt lat="-27.2726446" lon="151.290627">
  <ele>375.02</ele>
  <time>2026-09-01T19:57:20Z</time>
  <course>38.14</course>
  <speed>5.007164866468848</speed>
  <fix>3d</fix>
</trkpt>
<trkpt lat="-27.2726558" lon="151.2906171">
  <ele>375.58</ele>
  <time>2026-09-01T19:57:20Z</time>
  <course>38.26</course>
  <speed>6.4</speed>
  <fix>3d</fix>
</trkpt>
<trkpt lat="-27.2726412" lon="151.29063">
  <ele>374.84</ele>
  <time>2026-09-01T19:57:20Z</time>
  <course>38.24</course>
  <speed>4.463507589329271</speed>
  <fix>3d</fix>
</trkpt>
<trkpt lat="-27.2726473" lon="151.2906247">
  <ele>375.31</ele>
  <time>2026-09-01T19:57:20Z</time>
  <course>38.2</course>
  <speed>5.6</speed>
  <fix>3d</fix>
</trkpt>
<trkpt lat="-27.2726382" lon="151.2906327">
  <ele>374.68</ele>
  <time>2026-09-01T19:57:20Z</time>
  <course>38.43</course>
  <speed>3.9324928480545265</speed>
  <fix>3d</fix>
</trkpt>
<trkpt lat="-27.2726473" lon="151.2906247">
  <ele>375.31</ele>
  <time>2026-09-01T19:57:20Z</time>
  <course>38.2</course>
  <speed>5.6</speed>
  <fix>3d</fix>
</trkpt>
<trkpt lat="-27.2726355" lon="151.2906351">
  <ele>374.53</ele>
  <time>2026-09-01T19:57:20Z</time>
  <course>38.71</course>
  <speed>3.4224260401066373</speed>
  <fix>3d</fix>
</trkpt>
<trkpt lat="-27.27264" lon="151.290631">
  <ele>374.97</ele>
  <time>2026-09-01T19:57:20Z</time>
  <course>38.47</course>
  <speed>4.55</speed>
  <fix>3d</fix>
</trkpt>
<trkpt lat="-27.2726333" lon="151.2906373">
  <ele>374.41</ele>
  <time>2026-09-01T19:57:20Z</time>
  <course>39.06</course>
  <speed>2.9548096385384963</speed>
  <fix>3d</fix>
</trkpt>
<trkpt lat="-27.27264" lon="151.290631">
  <ele>374.97</ele>
  <time>2026-09-01T19:57:20Z</time>
  <course>38.47</course>
  <speed>4.55</speed>
  <fix>3d</fix>
</trkpt>
<trkpt lat="-27.2726314" lon="151.2906392">
  <ele>374.31</ele>
  <time>2026-09-01T19:57:20Z</time>
  <course>39.46</course>
  <speed>2.5248564315620006</speed>
  <fix>3d</fix>
</trkpt>
<trkpt lat="-27.2726345" lon="151.2906361">
  <ele>374.66</ele>
  <time>2026-09-01T19:57:20Z</time>
  <course>39.85</course>
  <speed>3.51</speed>
  <fix>3d</fix>
</trkpt>
<trkpt lat="-27.2726298" lon="151.290641">
  <ele>374.24</ele>
  <time>2026-09-01T19:57:20Z</time>
  <course>39.91</course>
  <speed>2.1518828964420904</speed>
  <fix>3d</fix>
</trkpt>
<trkpt lat="-27.2726345" lon="151.2906361">
  <ele>374.66</ele>
  <time>2026-09-01T19:57:20Z</time>
  <course>39.85</course>
  <speed>3.51</speed>
  <fix>3d</fix>
</trkpt>
<trkpt lat="-27.2726286" lon="151.2906426">
  <ele>374.2</ele>
  <time>2026-09-01T19:57:20Z</time>
  <course>40.36</course>
  <speed>1.8360010893242955</speed>
  <fix>3d</fix>
</trkpt>
<trkpt lat="-27.2726304" lon="151.2906401">
  <ele>374.45</ele>
  <time>2026-09-01T19:57:20Z</time>
  <course>43.76</course>
  <speed>2.6</speed>
  <fix>3d</fix>
</trkpt>
<trkpt lat="-27.2726277" lon="151.2906441">
  <ele>374.19</ele>
  <time>2026-09-01T19:57:20Z</time>
  <course>40.81</course>
  <speed>1.590125781188394</speed>
  <fix>3d</fix>
</trkpt>
<trkpt lat="-27.2726304" lon="151.2906401">
  <ele>374.45</ele>
  <time>2026-09-01T19:57:20Z</time>
  <course>43.76</course>
  <speed>2.6</speed>
  <fix>3d</fix>
</trkpt>
<trkpt lat="-27.272627" lon="151.2906456">
  <ele>374.21</ele>
  <time>2026-09-01T19:57:20Z</time>
  <course>41.26</course>
  <speed>1.411523999087511</speed>
  <fix>3d</fix>
</trkpt>
<trkpt lat="-27.2726276" lon="151.2906435">
  <ele>374.34</ele>
  <time>2026-09-01T19:57:20Z</time>
  <course>52.53</course>
  <speed>1.89</speed>
  <fix>3d</fix>
</trkpt>
<trkpt lat="-27.2726266" lon="151.2906469">
  <ele>374.25</ele>
  <time>2026-09-01T19:57:20Z</time>
  <course>41.7</course>
  <speed>1.3121356637177422</speed>
  <fix>3d</fix>
</trkpt>
<trkpt lat="-27.2726276" lon="151.2906435">
  <ele>374.34</ele>
  <time>2026-09-01T19:57:20Z</time>
  <course>52.53</course>
  <speed>1.89</speed>
  <fix>3d</fix>
</trkpt>
<trkpt lat="-27.2726264" lon="151.2906483">
  <ele>374.31</ele>
  <time>2026-09-01T19:57:20Z</time>
  <course>42.15</course>
  <speed>1.2801562404644207</speed>
  <fix>3d</fix>
</trkpt>
<trkpt lat="-27.2726261" lon="151.2906464">
  <ele>374.35</ele>
  <time>2026-09-01T19:57:20Z</time>
  <course>68.14</course>
  <speed>1.45</speed>
  <fix>3d</fix>
</trkpt>
<trkpt lat="-27.2726264" lon="151.2906497">
  <ele>374.38</ele>
  <time>2026-09-01T19:57:20Z</time>
  <course>42.61</course>
  <speed>1.2998846102635417</speed>
  <fix>3d</fix>
</trkpt>
<trkpt lat="-27.2726261" lon="151.2906464">
  <ele>374.35</ele>
  <time>2026-09-01T19:57:20Z</time>
  <course>68.14</course>
  <speed>1.45</speed>
  <fix>3d</fix>
</trkpt>
<trkpt lat="-27.2726264" lon="151.290651">
  <ele>374.45</ele>
  <time>2026-09-01T19:57:20Z</time>
  <course>43.1</course>
  <speed>1.3509256086106296</speed>
  <fix>3d</fix>
</trkpt>
<trkpt lat="-27.2726256" lon="151.2906491">
  <ele>374.44</ele>
  <time>2026-09-01T19:57:20Z</time>
  <course>87.75</course>
  <speed>1.29</speed>
  <fix>3d</fix>
</trkpt>
<trkpt lat="-27.2726267" lon="151.2906524">
  <ele>374.53</ele>
  <time>2026-09-01T19:57:20Z</time>
  <course>43.64</course>
  <speed>1.4262187770464951</speed>
  <fix>3d</fix>
</trkpt>
<trkpt lat="-27.2726256" lon="151.2906491">
  <ele>374.44</ele>
  <time>2026-09-01T19:57:20Z</time>
  <course>87.75</course>
  <speed>1.29</speed>
  <fix>3d</fix>
</trkpt>
<trkpt lat="-27.2726271" lon="151.2906538">
  <ele>374.61</ele>
  <time>2026-09-01T19:57:20Z</time>
  <course>44.23</course>
  <speed>1.5115885683611134</speed>
  <fix>3d</fix>
</trkpt>
<trkpt lat="-27.2726258" lon="151.2906517">
  <ele>374.58</ele>
  <time>2026-09-01T19:57:20Z</time>
  <course>103.58</course>
  <speed>1.35</speed>
  <fix>3d</fix>
</trkpt>
<trkpt lat="-27.2726276" lon="151.2906553">
  <ele>374.68</ele>
  <time>2026-09-01T19:57:20Z</time>
  <course>44.86</course>
  <speed>1.5931415505221123</speed>
  <fix>3d</fix>
</trkpt>
<trkpt lat="-27.2726258" lon="151.2906517">
  <ele>374.58</ele>
  <time>2026-09-01T19:57:20Z</time>
  <course>103.58</course>
  <speed>1.35</speed>
  <fix>3d</fix>
</trkpt>
<trkpt lat="-27.2726282" lon="151.2906568">
  <ele>374.75</ele>
  <time>2026-09-01T19:57:20Z</time>
  <course>45.53</course>
  <speed>1.6862087652482418</speed>
  <fix>3d</fix>
</trkpt>
<trkpt lat="-27.2726266" lon="151.2906544">
  <ele>374.73</ele>
  <time>2026-09-01T19:57:20Z</time>
  <course>112.55</course>
  <speed>1.5</speed>
  <fix>3d</fix>
</trkpt>
<trkpt lat="-27.2726288" lon="151.2906585">
  <ele>374.8</ele>
  <time>2026-09-01T19:57:20Z</time>
  <course>46.22</course>
  <speed>1.771016657177453</speed>
  <fix>3d</fix>
</trkpt>
<trkpt lat="-27.2726266" lon="151.2906544">
  <ele>374.73</ele>
  <time>2026-09-01T19:57:20Z</time>
  <course>112.55</course>
  <speed>1.5</speed>
  <fix>3d</fix>
</trkpt>
<trkpt lat="-27.2726295" lon="151.2906601">
  <ele>374.84</ele>
  <time>2026-09-01T19:57:20Z</time>
  <course>46.91</course>
  <speed>1.8650737250843463</speed>
  <fix>3d</fix>
</trkpt>
<trkpt lat="-27.2726278" lon="151.2906573">
  <ele>374.86</ele>
  <time>2026-09-01T19:57:20Z</time>
  <course>116.28</course>
  <speed>1.68</speed>
  <fix>3d</fix>
</trkpt>
<trkpt lat="-27.2726302" lon="151.2906619">
  <ele>374.87</ele>
  <time>2026-09-01T19:57:20Z</time>
  <course>47.58</course>
  <speed>1.950717816599828</speed>
  <fix>3d</fix>
</trkpt>
<trkpt lat="-27.2726278" lon="151.2906573">
  <ele>374.86</ele>
  <time>2026-09-01T19:57:20Z</time>
  <course>116.28</course>
  <speed>1.68</speed>
  <fix>3d</fix>
</trkpt>
<trkpt lat="-27.2726309" lon="151.2906637">
  <ele>374.89</ele>
  <time>2026-09-01T19:57:20Z</time>
  <course>48.24</course>
  <speed>2.041886382735337</speed>
  <fix>3d</fix>
</trkpt>
<trkpt lat="-27.2726292" lon="151.2906605">
  <ele>374.95</ele>
  <time>2026-09-01T19:57:20Z</time>
  <course>116.59</course>
  <speed>1.85</speed>
  <fix>3d</fix>
</trkpt>
<trkpt lat="-27.2726316" lon="151.2906657">
  <ele>374.89</ele>
  <time>2026-09-01T19:57:20Z</time>
  <course>48.85</course>
  <speed>2.126240814207083</speed>
  <fix>3d</fix>
</trkpt>
<trkpt lat="-27.2726292" lon="151.2906605">
  <ele>374.95</ele>
  <time>2026-09-01T19:57:20Z</time>
  <course>116.59</course>
  <speed>1.85</speed>
  <fix>3d</fix>
</trkpt>
<trkpt lat="-27.2726323" lon="151.2906677">
  <ele>374.89</ele>
  <time>2026-09-01T19:57:20Z</time>
  <course>49.42</course>
  <speed>2.2179495034828904</speed>
  <fix>3d</fix>
</trkpt>
<trkpt lat="-27.2726308" lon="151.290664">
  <ele>375.0</ele>
  <time>2026-09-01T19:57:20Z</time>
  <course>114.58</course>
  <speed>2.03</speed>
  <fix>3d</fix>
</trkpt>
<trkpt lat="-27.272633" lon="151.2906699">
  <ele>374.88</ele>
  <time>2026-09-01T19:57:20Z</time>
  <course>49.94</course>
  <speed>2.305319934412575</speed>
  <fix>3d</fix>
</trkpt>
<trkpt lat="-27.2726308" lon="151.290664">
  <ele>375.0</ele>
  <time>2026-09-01T19:57:20Z</time>
  <course>114.58</course>
  <speed>2.03</speed>
  <fix>3d</fix>
</trkpt>
<trkpt lat="-27.2726336" lon="151.2906722">
  <ele>374.87</ele>
  <time>2026-09-01T19:57:20Z</time>
  <course>50.38</course>
  <speed>2.3997083156083785</speed>
  <fix>3d</fix>
</trkpt>
<trkpt lat="-27.2726323" lon="151.290668">
  <ele>375.0</ele>
  <time>2026-09-01T19:57:20Z</time>
  <course>111.11</course>
  <speed>2.2</speed>
  <fix>3d</fix>
</trkpt>
<trkpt lat="-27.2726341" lon="151.2906745">
  <ele>374.86</ele>
  <time>2026-09-01T19:57:20Z</time>
  <course>50.76</course>
  <speed>2.486222033527979</speed>
  <fix>3d</fix>
</trkpt>
<trkpt lat="-27.2726323" lon="151.290668">
  <ele>375.0</ele>
  <time>2026-09-01T19:57:20Z</time>
  <course>111.11</course>
  <speed>2.2</speed>
  <fix>3d</fix>
</trkpt>
<trkpt lat="-27.2726346" lon="151.2906771">
  <ele>374.84</ele>
  <time>2026-09-01T19:57:20Z</time>
  <course>51.07</course>
  <speed>2.583118270617898</speed>
  <fix>3d</fix>
</trkpt>
<trkpt lat="-27.2726336" lon="151.2906724">
  <ele>374.97</ele>
  <time>2026-09-01T19:57:20Z</time>
  <course>106.62</course>
  <speed>2.38</speed>
  <fix>3d</fix>
</trkpt>
<trkpt lat="-27.272635" lon="151.2906797">
  <ele>374.82</ele>
  <time>2026-09-01T19:57:20Z</time>
  <course>51.3</course>
  <speed>2.6842503609015314</speed>
  <fix>3d</fix>
</trkpt>
<trkpt lat="-27.2726336" lon="151.2906724">
  <ele>374.97</ele>
  <time>2026-09-01T19:57:20Z</time>
  <course>106.62</course>
  <speed>2.38</speed>
  <fix>3d</fix>
</trkpt>
<trkpt lat="-27.2726352" lon="151.2906824">
  <ele>374.8</ele>
  <time>2026-09-01T19:57:20Z</time>
  <course>51.47</course>
  <speed>2.7803776721877194</speed>
  <fix>3d</fix>
</trkpt>
<trkpt lat="-27.2726346" lon="151.2906772">
  <ele>374.94</ele>
  <time>2026-09-01T19:57:20Z</time>
  <course>101.36</course>
  <speed>2.56</speed>
  <fix>3d</fix>
</trkpt>
<trkpt lat="-27.2726354" lon="151.2906852">
  <ele>374.79</ele>
  <time>2026-09-01T19:57:20Z</time>
  <course>51.58</course>
  <speed>2.8820999288713085</speed>
  <fix>3d</fix>
</trkpt>
<trkpt lat="-27.2726346" lon="151.2906772">
  <ele>374.94</ele>
  <time>2026-09-01T19:57:20Z</time>
  <course>101.36</course>
  <speed>2.56</speed>
  <fix>3d</fix>
</trkpt>
<trkpt lat="-27.2726355" lon="151.2906882">
  <ele>374.77</ele>
  <time>2026-09-01T19:57:20Z</time>
  <course>51.63</course>
  <speed>2.980067113338221</speed>
  <fix>3d</fix>
</trkpt>
<trkpt lat="-27.2726353" lon="151.2906826">
  <ele>374.9</ele>
  <time>2026-09-01T19:57:20Z</time>
  <course>95.68</course>
  <speed>2.75</speed>
  <fix>3d</fix>
</trkpt>
<trkpt lat="-27.2726354" lon="151.2906912">
  <ele>374.76</ele>
  <time>2026-09-01T19:57:20Z</time>
  <course>51.65</course>
  <speed>3.085255256862874</speed>
  <fix>3d</fix>
</trkpt>
<trkpt lat="-27.2726353" lon="151.2906826">
  <ele>374.9</ele>
  <time>2026-09-01T19:57:20Z</time>
  <course>95.68</course>
  <speed>2.75</speed>
  <fix>3d</fix>
</trkpt>
<trkpt lat="-27.2726352" lon="151.2906944">
  <ele>374.75</ele>
  <time>2026-09-01T19:57:20Z</time>
  <course>51.63</course>
  <speed>3.1871303707253644</speed>
  <fix>3d</fix>
</trkpt>
<trkpt lat="-27.2726356" lon="151.2906883">
  <ele>374.86</ele>
  <time>2026-09-01T19:57:20Z</time>
  <course>89.92</course>
  <speed>2.95</speed>
  <fix>3d</fix>
</trkpt>
<trkpt lat="-27.2726349" lon="151.2906976">
  <ele>374.73</ele>
  <time>2026-09-01T19:57:20Z</time>
  <course>51.6</course>
  <speed>3.296619480619503</speed>
  <fix>3d</fix>
</trkpt>
<trkpt lat="-27.2726356" lon="151.2906883">
  <ele>374.86</ele>
  <time>2026-09-01T19:57:20Z</time>
  <course>89.92</course>
  <speed>2.95</speed>
  <fix>3d</fix>
</trkpt>
<trkpt lat="-27.2726344" lon="151.2907009">
  <ele>374.73</ele>
  <time>2026-09-01T19:57:20Z</time>
  <course>51.56</course>
  <speed>3.4026607236102753</speed>
  <fix>3d</fix>
</trkpt>
<trkpt lat="-27.2726354" lon="151.2906944">
  <ele>374.84</ele>
  <time>2026-09-01T19:57:20Z</time>
  <course>84.33</course>
  <speed>3.15</speed>
  <fix>3d</fix>
</trkpt>
<trkpt lat="-27.2726337" lon="151.2907043">
  <ele>374.72</ele>
  <time>2026-09-01T19:57:20Z</time>
  <course>51.51</course>
  <speed>3.507206865869192</speed>
  <fix>3d</fix>
</trkpt>
<trkpt lat="-27.2726354" lon="151.2906944">
  <ele>374.84</ele>
  <time>2026-09-01T19:57:20Z</time>
  <course>84.33</course>
  <speed>3.15</speed>
  <fix>3d</fix>
</trkpt>
<trkpt lat="-27.272633" lon="151.2907077">
  <ele>374.71</ele>
  <time>2026-09-01T19:57:20Z</time>
  <course>51.46</course>
  <speed>3.6180796011143816</speed>
  <fix>3d</fix>
</trkpt>
<trkpt lat="-27.2726346" lon="151.290701">
  <ele>374.82</ele>
  <time>2026-09-01T19:57:20Z</time>
  <course>79.05</course>
  <speed>3.37</speed>
  <fix>3d</fix>
</trkpt>
<trkpt lat="-27.272632" lon="151.2907113">
  <ele>374.71</ele>
  <time>2026-09-01T19:57:20Z</time>
  <course>51.4</course>
  <speed>3.7221096168705183</speed>
  <fix>3d</fix>
</trkpt>
<trkpt lat="-27.2726346" lon="151.290701">
  <ele>374.82</ele>
  <time>2026-09-01T19:57:20Z</time>
  <course>79.05</course>
  <speed>3.37</speed>
  <fix>3d</fix>
</trkpt>
<trkpt lat="-27.2726309" lon="151.2907149">
  <ele>374.71</ele>
  <time>2026-09-01T19:57:20Z</time>
  <course>51.34</course>
  <speed>3.824983660095818</speed>
  <fix>3d</fix>
</trkpt>
<trkpt lat="-27.2726331" lon="151.2907078">
  <ele>374.82</ele>
  <time>2026-09-01T19:57:20Z</time>
  <course>74.18</course>
  <speed>3.58</speed>
  <fix>3d</fix>
</trkpt>
<trkpt lat="-27.2726297" lon="151.2907185">
  <ele>374.71</ele>
  <time>2026-09-01T19:57:20Z</time>
  <course>51.26</course>
  <speed>3.9293765408777</speed>
  <fix>3d</fix>
</trkpt>
<trkpt lat="-27.2726331" lon="151.2907078">
  <ele>374.82</ele>
  <time>2026-09-01T19:57:20Z</time>
  <course>74.18</course>
  <speed>3.58</speed>
  <fix>3d</fix>
</trkpt>
<trkpt lat="-27.2726283" lon="151.2907222">
  <ele>374.72</ele>
  <time>2026-09-01T19:57:20Z</time>
  <course>51.16</course>
  <speed>4.028895630318561</speed>
  <fix>3d</fix>
</trkpt>
<trkpt lat="-27.2726311" lon="151.2907149">
  <ele>374.82</ele>
  <time>2026-09-01T19:57:20Z</time>
  <course>69.76</course>
  <speed>3.8</speed>
  <fix>3d</fix>
</trkpt>
<trkpt lat="-27.2726268" lon="151.2907259">
  <ele>374.72</ele>
  <time>2026-09-01T19:57:20Z</time>
  <course>51.05</course>
  <speed>4.132602085853415</speed>
  <fix>3d</fix>
</trkpt>
<trkpt lat="-27.2726311" lon="151.2907149">
  <ele>374.82</ele>
  <time>2026-09-01T19:57:20Z</time>
  <course>69.76</course>
  <speed>3.8</speed>
  <fix>3d</fix>
</trkpt>
<trkpt lat="-27.2726251" lon="151.2907296">
  <ele>374.72</ele>
  <time>2026-09-01T19:57:20Z</time>
  <course>50.93</course>
  <speed>4.226700841081612</speed>
  <fix>3d</fix>
</trkpt>
<trkpt lat="-27.2726284" lon="151.2907223">
  <ele>374.82</ele>
  <time>2026-09-01T19:57:20Z</time>
  <course>65.79</course>
  <speed>4.01</speed>
  <fix>3d</fix>
</trkpt>
<trkpt lat="-27.2726233" lon="151.2907334">
  <ele>374.73</ele>
  <time>2026-09-01T19:57:20Z</time>
  <course>50.79</course>
  <speed>4.315425819082052</speed>
  <fix>3d</fix>
</trkpt>
<trkpt lat="-27.2726284" lon="151.2907223">
  <ele>374.82</ele>
  <time>2026-09-01T19:57:20Z</time>
  <course>65.79</course>
  <speed>4.01</speed>
  <fix>3d</fix>
</trkpt>
<trkpt lat="-27.2726213" lon="151.2907372">
  <ele>374.73</ele>
  <time>2026-09-01T19:57:20Z</time>
  <course>50.64</course>
  <speed>4.40756168419683</speed>
  <fix>3d</fix>
</trkpt>
<trkpt lat="-27.2726251" lon="151.2907297">
  <ele>374.82</ele>
  <time>2026-09-01T19:57:20Z</time>
  <course>62.25</course>
  <speed>4.21</speed>
  <fix>3d</fix>
</trkpt>
<trkpt lat="-27.2726193" lon="151.2907411">
  <ele>374.73</ele>
  <time>2026-09-01T19:57:20Z</time>
  <course>50.47</course>
  <speed>4.492271140525691</speed>
  <fix>3d</fix>
</trkpt>
<trkpt lat="-27.2726251" lon="151.2907297">
  <ele>374.82</ele>
  <time>2026-09-01T19:57:20Z</time>
  <course>62.25</course>
  <speed>4.21</speed>
  <fix>3d</fix>
</trkpt>
<trkpt lat="-27.2726171" lon="151.2907449">
  <ele>374.73</ele>
  <time>2026-09-01T19:57:20Z</time>
  <course>50.3</course>
  <speed>4.5708314342141305</speed>
  <fix>3d</fix>
</trkpt>
<trkpt lat="-27.2726214" lon="151.2907373">
  <ele>374.82</ele>
  <time>2026-09-01T19:57:20Z</time>
  <course>59.12</course>
  <speed>4.39</speed>
  <fix>3d</fix>
</trkpt>
<trkpt lat="-27.2726148" lon="151.2907488">
  <ele>374.74</ele>
  <time>2026-09-01T19:57:20Z</time>
  <course>50.12</course>
  <speed>4.651720111958586</speed>
  <fix>3d</fix>
</trkpt>
<trkpt lat="-27.2726214" lon="151.2907373">
  <ele>374.82</ele>
  <time>2026-09-01T19:57:20Z</time>
  <course>59.12</course>
  <speed>4.39</speed>
  <fix>3d</fix>
</trkpt>
<trkpt lat="-27.2726124" lon="151.2907526">
  <ele>374.74</ele>
  <time>2026-09-01T19:57:20Z</time>
  <course>49.93</course>
  <speed>4.720857972868915</speed>
  <fix>3d</fix>
</trkpt>
<trkpt lat="-27.2726171" lon="151.2907449">
  <ele>374.82</ele>
  <time>2026-09-01T19:57:20Z</time>
  <course>56.36</course>
  <speed>4.56</speed>
  <fix>3d</fix>
</trkpt>
<trkpt lat="-27.2726098" lon="151.2907565">
  <ele>374.74</ele>
  <time>2026-09-01T19:57:20Z</time>
  <course>49.73</course>
  <speed>4.786000417885481</speed>
  <fix>3d</fix>
</trkpt>
<trkpt lat="-27.2726171" lon="151.2907449">
  <ele>374.82</ele>
  <time>2026-09-01T19:57:20Z</time>
  <course>56.36</course>
  <speed>4.56</speed>
  <fix>3d</fix>
</trkpt>
<trkpt lat="-27.2726072" lon="151.2907603">
  <ele>374.74</ele>
  <time>2026-09-01T19:57:20Z</time>
  <course>49.53</course>
  <speed>4.8527621000827965</speed>
  <fix>3d</fix>
</trkpt>
<trkpt lat="-27.2726123" lon="151.2907526">
  <ele>374.83</ele>
  <time>2026-09-01T19:57:20Z</time>
  <course>53.93</course>
  <speed>4.72</speed>
  <fix>3d</fix>
</trkpt>
<trkpt lat="-27.2726045" lon="151.2907642">
  <ele>374.74</ele>
  <time>2026-09-01T19:57:20Z</time>
  <course>49.32</course>
  <speed>4.900744841348098</speed>
  <fix>3d</fix>
</trkpt>
<trkpt lat="-27.2726123" lon="151.2907526">
  <ele>374.83</ele>
  <time>2026-09-01T19:57:20Z</time>
  <course>53.93</course>
  <speed>4.72</speed>
  <fix>3d</fix>
</trkpt>
<trkpt lat="-27.2726017" lon="151.290768">
  <ele>374.74</ele>
  <time>2026-09-01T19:57:20Z</time>
  <course>49.12</course>
  <speed>4.957620396924315</speed>
  <fix>3d</fix>
</trkpt>
<trkpt lat="-27.2726071" lon="151.2907604">
  <ele>374.82</ele>
  <time>2026-09-01T19:57:20Z</time>
  <course>51.81</course>
  <speed>4.85</speed>
  <fix>3d</fix>
</trkpt>
<trkpt lat="-27.2725988" lon="151.2907719">
  <ele>374.74</ele>
  <time>2026-09-01T19:57:20Z</time>
  <course>48.92</course>
  <speed>5.007853831732712</speed>
  <fix>3d</fix>
</trkpt>
<trkpt lat="-27.2726071" lon="151.2907604">
  <ele>374.82</ele>
  <time>2026-09-01T19:57:20Z</time>
  <course>51.81</course>
  <speed>4.85</speed>
  <fix>3d</fix>
</trkpt>
<trkpt lat="-27.2725958" lon="151.2907757">
  <ele>374.74</ele>
  <time>2026-09-01T19:57:20Z</time>
  <course>48.72</course>
  <speed>5.046028141023394</speed>
  <fix>3d</fix>
</trkpt>
<trkpt lat="-27.2726015" lon="151.2907681">
  <ele>374.82</ele>
  <time>2026-09-01T19:57:20Z</time>
  <course>49.97</course>
  <speed>4.96</speed>
  <fix>3d</fix>
</trkpt>
<trkpt lat="-27.2725928" lon="151.2907795">
  <ele>374.74</ele>
  <time>2026-09-01T19:57:20Z</time>
  <course>48.52</course>
  <speed>5.077450147465753</speed>
  <fix>3d</fix>
</trkpt>
<trkpt lat="-27.2726015" lon="151.2907681">
  <ele>374.82</ele>
  <time>2026-09-01T19:57:20Z</time>
  <course>49.97</course>
  <speed>4.96</speed>
  <fix>3d</fix>
</trkpt>
<trkpt lat="-27.2725898" lon="151.2907833">
  <ele>374.74</ele>
  <time>2026-09-01T19:57:20Z</time>
  <course>48.33</course>
  <speed>5.1103228860806835</speed>
  <fix>3d</fix>
</trkpt>
<trkpt lat="-27.2725956" lon="151.2907758">
  <ele>374.82</ele>
  <time>2026-09-01T19:57:20Z</time>
  <course>48.41</course>
  <speed>5.06</speed>
  <fix>3d</fix>
</trkpt>
<trkpt lat="-27.2725866" lon="151.2907871">
  <ele>374.74</ele>
  <time>2026-09-01T19:57:20Z</time>
  <course>48.15</course>
  <speed>5.1363995171715375</speed>
  <fix>3d</fix>
</trkpt>
<trkpt lat="-27.2725956" lon="151.2907758">
  <ele>374.82</ele>
  <time>2026-09-01T19:57:20Z</time>
  <course>48.41</course>
  <speed>5.06</speed>
  <fix>3d</fix>
</trkpt>
<trkpt lat="-27.2725834" lon="151.2907908">
  <ele>374.74</ele>
  <time>2026-09-01T19:57:20Z</time>
  <course>47.98</course>
  <speed>5.156209848328518</speed>
  <fix>3d</fix>
</trkpt>
<trkpt lat="-27.2725895" lon="151.2907833">
  <ele>374.81</ele>
  <time>2026-09-01T19:57:20Z</time>
  <course>47.09</course>
  <speed>5.13</speed>
  <fix>3d</fix>
</trkpt>
<trkpt lat="-27.2725802" lon="151.2907946">
  <ele>374.74</ele>
  <time>2026-09-01T19:57:20Z</time>
  <course>47.81</course>
  <speed>5.176717106429518</speed>
  <fix>3d</fix>
</trkpt>
<trkpt lat="-27.2725895" lon="151.2907833">
  <ele>374.81</ele>
  <time>2026-09-01T19:57:20Z</time>
  <course>47.09</course>
  <speed>5.13</speed>
  <fix>3d</fix>
</trkpt>
<trkpt lat="-27.2725769" lon="151.2907984">
  <ele>374.74</ele>
  <time>2026-09-01T19:57:20Z</time>
  <course>47.66</course>
  <speed>5.183329046086116</speed>
  <fix>3d</fix>
</trkpt>
<trkpt lat="-27.2725831" lon="151.2907909">
  <ele>374.81</ele>
  <time>2026-09-01T19:57:20Z</time>
  <course>46.0</course>
  <speed>5.18</speed>
  <fix>3d</fix>
</trkpt>
<trkpt lat="-27.2725736" lon="151.2908021">
  <ele>374.74</ele>
  <time>2026-09-01T19:57:20Z</time>
  <course>47.52</course>
  <speed>5.190183041088243</speed>
  <fix>3d</fix>
</trkpt>
<trkpt lat="-27.2725831" lon="151.2907909">
  <ele>374.81</ele>
  <time>2026-09-01T19:57:20Z</time>
  <course>46.0</course>
  <speed>5.18</speed>
  <fix>3d</fix>
</trkpt>
<trkpt lat="-27.2725703" lon="151.2908058">
  <ele>374.74</ele>
  <time>2026-09-01T19:57:20Z</time>
  <course>47.39</course>
  <speed>5.190183041088243</speed>
  <fix>3d</fix>
</trkpt>
<trkpt lat="-27.2725766" lon="151.2907984">
  <ele>374.8</ele>
  <time>2026-09-01T19:57:20Z</time>
  <course>45.12</course>
  <speed>5.21</speed>
  <fix>3d</fix>
</trkpt>
<trkpt lat="-27.272567" lon="151.2908095">
  <ele>374.73</ele>
  <time>2026-09-01T19:57:20Z</time>
  <course>47.29</course>
  <speed>5.183213289070786</speed>
  <fix>3d</fix>
</trkpt>
<trkpt lat="-27.2725766" lon="151.2907984">
  <ele>374.8</ele>
  <time>2026-09-01T19:57:20Z</time>
  <course>45.12</course>
  <speed>5.21</speed>
  <fix>3d</fix>
</trkpt>
<trkpt lat="-27.2725636" lon="151.2908131">
  <ele>374.73</ele>
  <time>2026-09-01T19:57:20Z</time>
  <course>47.19</course>
  <speed>5.1693423179356195</speed>
  <fix>3d</fix>
</trkpt>
<trkpt lat="-27.2725699" lon="151.2908059">
  <ele>374.79</ele>
  <time>2026-09-01T19:57:20Z</time>
  <course>44.44</course>
  <speed>5.21</speed>
  <fix>3d</fix>
</trkpt>
<trkpt lat="-27.2725603" lon="151.2908167">
  <ele>374.72</ele>
  <time>2026-09-01T19:57:20Z</time>
  <course>47.12</course>
  <speed>5.155395232181524</speed>
  <fix>3d</fix>
</trkpt>
<trkpt lat="-27.2725699" lon="151.2908059">
  <ele>374.79</ele>
  <time>2026-09-01T19:57:20Z</time>
  <course>44.44</course>
  <speed>5.21</speed>
  <fix>3d</fix>
</trkpt>
<trkpt lat="-27.2725569" lon="151.2908204">
  <ele>374.71</ele>
  <time>2026-09-01T19:57:20Z</time>
  <course>47.06</course>
  <speed>5.148436655917989</speed>
  <fix>3d</fix>
</trkpt>
<trkpt lat="-27.2725632" lon="151.2908132">
  <ele>374.78</ele>
  <time>2026-09-01T19:57:20Z</time>
  <course>43.94</course>
  <speed>5.2</speed>
  <fix>3d</fix>
</trkpt>
<trkpt lat="-27.2725536" lon="151.290824">
  <ele>374.71</ele>
  <time>2026-09-01T19:57:20Z</time>
  <course>47.02</course>
  <speed>5.1273482425128885</speed>
  <fix>3d</fix>
</trkpt>
<trkpt lat="-27.2725632" lon="151.2908132">
  <ele>374.78</ele>
  <time>2026-09-01T19:57:20Z</time>
  <course>43.94</course>
  <speed>5.2</speed>
  <fix>3d</fix>
</trkpt>
<trkpt lat="-27.2725502" lon="151.2908276">
  <ele>374.7</ele>
  <time>2026-09-01T19:57:20Z</time>
  <course>47.0</course>
  <speed>5.106270654792987</speed>
  <fix>3d</fix>
</trkpt>
<trkpt lat="-27.2725564" lon="151.2908205">
  <ele>374.77</ele>
  <time>2026-09-01T19:57:20Z</time>
  <course>43.63</course>
  <speed>5.18</speed>
  <fix>3d</fix>
</trkpt>
<trkpt lat="-27.2725469" lon="151.2908311">
  <ele>374.69</ele>
  <time>2026-09-01T19:57:20Z</time>
  <course>47.0</course>
  <speed>5.07799172902044</speed>
  <fix>3d</fix>
</trkpt>
<trkpt lat="-27.2725564" lon="151.2908205">
  <ele>374.77</ele>
  <time>2026-09-01T19:57:20Z</time>
  <course>43.63</course>
  <speed>5.18</speed>
  <fix>3d</fix>
</trkpt>
<trkpt lat="-27.2725435" lon="151.2908347">
  <ele>374.68</ele>
  <time>2026-09-01T19:57:20Z</time>
  <course>47.02</course>
  <speed>5.049712863124001</speed>
  <fix>3d</fix>
</trkpt>
<trkpt lat="-27.2725497" lon="151.2908276">
  <ele>374.76</ele>
  <time>2026-09-01T19:57:20Z</time>
  <course>43.49</course>
  <speed>5.14</speed>
  <fix>3d</fix>
</trkpt>
<trkpt lat="-27.2725403" lon="151.2908382">
  <ele>374.67</ele>
  <time>2026-09-01T19:57:20Z</time>
  <course>47.06</course>
  <speed>5.021175161254584</speed>
  <fix>3d</fix>
</trkpt>
<trkpt lat="-27.2725497" lon="151.2908276">
  <ele>374.76</ele>
  <time>2026-09-01T19:57:20Z</time>
  <course>43.49</course>
  <speed>5.14</speed>
  <fix>3d</fix>
</trkpt>
<trkpt lat="-27.272537" lon="151.2908417">
  <ele>374.66</ele>
  <time>2026-09-01T19:57:20Z</time>
  <course>47.12</course>
  <speed>4.9857095783850065</speed>
  <fix>3d</fix>
</trkpt>
<trkpt lat="-27.272543" lon="151.2908348">
  <ele>374.75</ele>
  <time>2026-09-01T19:57:20Z</time>
  <course>43.52</course>
  <speed>5.09</speed>
  <fix>3d</fix>
</trkpt>
<trkpt lat="-27.2725337" lon="151.2908452">
  <ele>374.65</ele>
  <time>2026-09-01T19:57:20Z</time>
  <course>47.19</course>
  <speed>4.9500707065657155</speed>
  <fix>3d</fix>
</trkpt>
<trkpt lat="-27.272543" lon="151.2908348">
  <ele>374.75</ele>
  <time>2026-09-01T19:57:20Z</time>
  <course>43.52</course>
  <speed>5.09</speed>
  <fix>3d</fix>
</trkpt>
<trkpt lat="-27.2725305" lon="151.2908487">
  <ele>374.64</ele>
  <time>2026-09-01T19:57:20Z</time>
  <course>47.28</course>
  <speed>4.921646066104307</speed>
  <fix>3d</fix>
</trkpt>
<trkpt lat="-27.2725364" lon="151.2908418">
  <ele>374.73</ele>
  <time>2026-09-01T19:57:20Z</time>
  <course>43.72</course>
  <speed>5.03</speed>
  <fix>3d</fix>
</trkpt>
<trkpt lat="-27.2725273" lon="151.2908522">
  <ele>374.63</ele>
  <time>2026-09-01T19:57:20Z</time>
  <course>47.39</course>
  <speed>4.879057285992858</speed>
  <fix>3d</fix>
</trkpt>
<trkpt lat="-27.2725364" lon="151.2908418">
  <ele>374.73</ele>
  <time>2026-09-01T19:57:20Z</time>
  <course>43.72</course>
  <speed>5.03</speed>
  <fix>3d</fix>
</trkpt>
<trkpt lat="-27.2725242" lon="151.2908556">
  <ele>374.62</ele>
  <time>2026-09-01T19:57:20Z</time>
  <course>47.51</course>
  <speed>4.843686612488467</speed>
  <fix>3d</fix>
</trkpt>
<trkpt lat="-27.2725299" lon="151.2908489">
  <ele>374.72</ele>
  <time>2026-09-01T19:57:20Z</time>
  <course>44.09</course>
  <speed>4.96</speed>
  <fix>3d</fix>
</trkpt>
<trkpt lat="-27.2725211" lon="151.2908591">
  <ele>374.61</ele>
  <time>2026-09-01T19:57:20Z</time>
  <course>47.65</course>
  <speed>4.808409300381988</speed>
  <fix>3d</fix>
</trkpt>
<trkpt lat="-27.2725299" lon="151.2908489">
  <ele>374.72</ele>
  <time>2026-09-01T19:57:20Z</time>
  <course>44.09</course>
  <speed>4.96</speed>
  <fix>3d</fix>
</trkpt>
<trkpt lat="-27.272518" lon="151.2908626">
  <ele>374.6</ele>
  <time>2026-09-01T19:57:20Z</time>
  <course>47.81</course>
  <speed>4.766235411726954</speed>
  <fix>3d</fix>
</trkpt>
<trkpt lat="-27.2725236" lon="151.2908558">
  <ele>374.7</ele>
  <time>2026-09-01T19:57:20Z</time>
  <course>44.62</course>
  <speed>4.88</speed>
  <fix>3d</fix>
</trkpt>
<trkpt lat="-27.272515" lon="151.290866">
  <ele>374.6</ele>
  <time>2026-09-01T19:57:20Z</time>
  <course>47.97</course>
  <speed>4.731437413725347</speed>
  <fix>3d</fix>
</trkpt>
<trkpt lat="-27.2725236" lon="151.2908558">
  <ele>374.7</ele>
  <time>2026-09-01T19:57:20Z</time>
  <course>44.62</course>
  <speed>4.88</speed>
  <fix>3d</fix>
</trkpt>
<trkpt lat="-27.272512" lon="151.2908695">
  <ele>374.59</ele>
  <time>2026-09-01T19:57:20Z</time>
  <course>48.15</course>
  <speed>4.696913880411264</speed>
  <fix>3d</fix>
</trkpt>
<trkpt lat="-27.2725175" lon="151.2908627">
  <ele>374.68</ele>
  <time>2026-09-01T19:57:20Z</time>
  <course>45.3</course>
  <speed>4.81</speed>
  <fix>3d</fix>
</trkpt>
<trkpt lat="-27.2725091" lon="151.2908729">
  <ele>374.58</ele>
  <time>2026-09-01T19:57:20Z</time>
  <course>48.34</course>
  <speed>4.655856526999087</speed>
  <fix>3d</fix>
</trkpt>
<trkpt lat="-27.2725175" lon="151.2908627">
  <ele>374.68</ele>
  <time>2026-09-01T19:57:20Z</time>
  <course>45.3</course>
  <speed>4.81</speed>
  <fix>3d</fix>
</trkpt>
<trkpt lat="-27.2725062" lon="151.2908764">
  <ele>374.57</ele>
  <time>2026-09-01T19:57:20Z</time>
  <course>48.54</course>
  <speed>4.621958459354649</speed>
  <fix>3d</fix>
</trkpt>
<trkpt lat="-27.2725115" lon="151.2908696">
  <ele>374.66</ele>
  <time>2026-09-01T19:57:20Z</time>
  <course>46.13</course>
  <speed>4.74</speed>
  <fix>3d</fix>
</trkpt>
<trkpt lat="-27.2725034" lon="151.2908798">
  <ele>374.56</ele>
  <time>2026-09-01T19:57:20Z</time>
  <course>48.74</course>
  <speed>4.588354824989018</speed>
  <fix>3d</fix>
</trkpt>
<trkpt lat="-27.2725115" lon="151.2908696">
  <ele>374.66</ele>
  <time>2026-09-01T19:57:20Z</time>
  <course>46.13</course>
  <speed>4.74</speed>
  <fix>3d</fix>
</trkpt>
<trkpt lat="-27.2725006" lon="151.2908833">
  <ele>374.55</ele>
  <time>2026-09-01T19:57:20Z</time>
  <course>48.96</course>
  <speed>4.562543150480881</speed>
  <fix>3d</fix>
</trkpt>
<trkpt lat="-27.2725056" lon="151.2908766">
  <ele>374.65</ele>
  <time>2026-09-01T19:57:20Z</time>
  <course>47.08</course>
  <speed>4.67</speed>
  <fix>3d</fix>
</trkpt>
<trkpt lat="-27.2724979" lon="151.2908868">
  <ele>374.54</ele>
  <time>2026-09-01T19:57:20Z</time>
  <course>49.18</course>
  <speed>4.530618059382185</speed>
  <fix>3d</fix>
</trkpt>
<trkpt lat="-27.2725056" lon="151.2908766">
  <ele>374.65</ele>
  <time>2026-09-01T19:57:20Z</time>
  <course>47.08</course>
  <speed>4.67</speed>
  <fix>3d</fix>
</trkpt>
<trkpt lat="-27.2724952" lon="151.2908902">
  <ele>374.53</ele>
  <time>2026-09-01T19:57:20Z</time>
  <course>49.4</course>
  <speed>4.50574078260168</speed>
  <fix>3d</fix>
</trkpt>
<trkpt lat="-27.2725" lon="151.2908835">
  <ele>374.63</ele>
  <time>2026-09-01T19:57:20Z</time>
  <course>48.14</course>
  <speed>4.6</speed>
  <fix>3d</fix>
</trkpt>
<trkpt lat="-27.2724925" lon="151.2908937">
  <ele>374.52</ele>
  <time>2026-09-01T19:57:20Z</time>
  <course>49.62</course>
  <speed>4.4813056133229745</speed>
  <fix>3d</fix>
</trkpt>
<trkpt lat="-27.2725" lon="151.2908835">
  <ele>374.63</ele>
  <time>2026-09-01T19:57:20Z</time>
  <course>48.14</course>
  <speed>4.6</speed>
  <fix>3d</fix>
</trkpt>
<trkpt lat="-27.2724899" lon="151.2908972">
  <ele>374.51</ele>
  <time>2026-09-01T19:57:20Z</time>
  <course>49.85</course>
  <speed>4.457319822494231</speed>
  <fix>3d</fix>
</trkpt>
<trkpt lat="-27.2724946" lon="151.2908905">
  <ele>374.61</ele>
  <time>2026-09-01T19:57:20Z</time>
  <course>49.28</course>
  <speed>4.55</speed>
  <fix>3d</fix>
</trkpt>
<trkpt lat="-27.2724874" lon="151.2909007">
  <ele>374.51</ele>
  <time>2026-09-01T19:57:20Z</time>
  <course>50.07</course>
  <speed>4.44162132559722</speed>
  <fix>3d</fix>
</trkpt>
<trkpt lat="-27.2724946" lon="151.2908905">
  <ele>374.61</ele>
  <time>2026-09-01T19:57:20Z</time>
  <course>49.28</course>
  <speed>4.55</speed>
  <fix>3d</fix>
</trkpt>
<trkpt lat="-27.2724849" lon="151.2909043">
  <ele>374.5</ele>
  <time>2026-09-01T19:57:20Z</time>
  <course>50.29</course>
  <speed>4.432651576652512</speed>
  <fix>3d</fix>
</trkpt>
<trkpt lat="-27.2724894" lon="151.2908974">
  <ele>374.59</ele>
  <time>2026-09-01T19:57:20Z</time>
  <course>50.47</course>
  <speed>4.5</speed>
  <fix>3d</fix>
</trkpt>
<trkpt lat="-27.2724824" lon="151.2909078">
  <ele>374.49</ele>
  <time>2026-09-01T19:57:20Z</time>
  <course>50.5</course>
  <speed>4.4101020396358175</speed>
  <fix>3d</fix>
</trkpt>
<trkpt lat="-27.2724894" lon="151.2908974">
  <ele>374.59</ele>
  <time>2026-09-01T19:57:20Z</time>
  <course>50.47</course>
  <speed>4.5</speed>
  <fix>3d</fix>
</trkpt>
<trkpt lat="-27.27248" lon="151.2909114">
  <ele>374.48</ele>
  <time>2026-09-01T19:57:20Z</time>
  <course>50.71</course>
  <speed>4.40202226255161</speed>
  <fix>3d</fix>
</trkpt>
<trkpt lat="-27.2724843" lon="151.2909045">
  <ele>374.58</ele>
  <time>2026-09-01T19:57:20Z</time>
  <course>51.69</course>
  <speed>4.47</speed>
  <fix>3d</fix>
</trkpt>
<trkpt lat="-27.2724776" lon="151.290915">
  <ele>374.48</ele>
  <time>2026-09-01T19:57:20Z</time>
  <course>50.9</course>
  <speed>4.394382778047447</speed>
  <fix>3d</fix>
</trkpt>
<trkpt lat="-27.2724843" lon="151.2909045">
  <ele>374.58</ele>
  <time>2026-09-01T19:57:20Z</time>
  <course>51.69</course>
  <speed>4.47</speed>
  <fix>3d</fix>
</trkpt>
<trkpt lat="-27.2724752" lon="151.2909186">
  <ele>374.47</ele>
  <time>2026-09-01T19:57:20Z</time>
  <course>51.09</course>
  <speed>4.395327064053368</speed>
  <fix>3d</fix>
</trkpt>
<trkpt lat="-27.2724794" lon="151.2909116">
  <ele>374.56</ele>
  <time>2026-09-01T19:57:20Z</time>
  <course>52.9</course>
  <speed>4.44</speed>
  <fix>3d</fix>
</trkpt>
<trkpt lat="-27.2724729" lon="151.2909222">
  <ele>374.46</ele>
  <time>2026-09-01T19:57:21Z</time>
  <course>51.27</course>
  <speed>4.388633044582333</speed>
  <fix>3d</fix>
</trkpt>
<trkpt lat="-27.2724794" lon="151.2909116">
  <ele>374.56</ele>
  <time>2026-09-01T19:57:21Z</time>
  <course>52.9</course>
  <speed>4.44</speed>
  <fix>3d</fix>
</trkpt>
<trkpt lat="-27.2724706" lon="151.2909259">
  <ele>374.45</ele>
  <time>2026-09-01T19:57:21Z</time>
  <course>51.44</course>
  <speed>4.388029170367946</speed>
  <fix>3d</fix>
</trkpt>
<trkpt lat="-27.2724746" lon="151.2909189">
  <ele>374.55</ele>
  <time>2026-09-01T19:57:21Z</time>
  <course>54.05</course>
  <speed>4.43</speed>
  <fix>3d</fix>
</trkpt>
<trkpt lat="-27.2724683" lon="151.2909296">
  <ele>374.44</ele>
  <time>2026-09-01T19:57:21Z</time>
  <course>51.6</course>
  <speed>4.396020928066653</speed>
  <fix>3d</fix>
</trkpt>
<trkpt lat="-27.2724746" lon="151.2909189">
  <ele>374.55</ele>
  <time>2026-09-01T19:57:21Z</time>
  <course>54.05</course>
  <speed>4.43</speed>
  <fix>3d</fix>
</trkpt>
<trkpt lat="-27.2724661" lon="151.2909333">
  <ele>374.44</ele>
  <time>2026-09-01T19:57:21Z</time>
  <course>51.75</course>
  <speed>4.4015679024638485</speed>
  <fix>3d</fix>
</trkpt>
<trkpt lat="-27.2724701" lon="151.2909262">
  <ele>374.53</ele>
  <time>2026-09-01T19:57:21Z</time>
  <course>55.13</course>
  <speed>4.43</speed>
  <fix>3d</fix>
</trkpt>
<trkpt lat="-27.2724639" lon="151.290937">
  <ele>374.43</ele>
  <time>2026-09-01T19:57:21Z</time>
  <course>51.89</course>
  <speed>4.410215414239989</speed>
  <fix>3d</fix>
</trkpt>
<trkpt lat="-27.2724701" lon="151.2909262">
  <ele>374.53</ele>
  <time>2026-09-01T19:57:21Z</time>
  <course>55.13</course>
  <speed>4.43</speed>
  <fix>3d</fix>
</trkpt>
<trkpt lat="-27.2724617" lon="151.2909408">
  <ele>374.43</ele>
  <time>2026-09-01T19:57:21Z</time>
  <course>52.01</course>
  <speed>4.424624277834221</speed>
  <fix>3d</fix>
</trkpt>
<trkpt lat="-27.2724655" lon="151.2909336">
  <ele>374.52</ele>
  <time>2026-09-01T19:57:21Z</time>
  <course>56.11</course>
  <speed>4.44</speed>
  <fix>3d</fix>
</trkpt>
<trkpt lat="-27.2724595" lon="151.2909446">
  <ele>374.42</ele>
  <time>2026-09-01T19:57:21Z</time>
  <course>52.12</course>
  <speed>4.439279220774472</speed>
  <fix>3d</fix>
</trkpt>
<trkpt lat="-27.2724655" lon="151.2909336">
  <ele>374.52</ele>
  <time>2026-09-01T19:57:21Z</time>
  <course>56.11</course>
  <speed>4.44</speed>
  <fix>3d</fix>
</trkpt>
<trkpt lat="-27.2724573" lon="151.2909485">
  <ele>374.42</ele>
  <time>2026-09-01T19:57:21Z</time>
  <course>52.22</course>
  <speed>4.450943720156435</speed>
  <fix>3d</fix>
</trkpt>
<trkpt lat="-27.2724612" lon="151.2909411">
  <ele>374.51</ele>
  <time>2026-09-01T19:57:21Z</time>
  <course>56.97</course>
  <speed>4.46</speed>
  <fix>3d</fix>
</trkpt>
<trkpt lat="-27.2724552" lon="151.2909523">
  <ele>374.42</ele>
  <time>2026-09-01T19:57:21Z</time>
  <course>52.31</course>
  <speed>4.4712078904922326</speed>
  <fix>3d</fix>
</trkpt>
<trkpt lat="-27.2724612" lon="151.2909411">
  <ele>374.51</ele>
  <time>2026-09-01T19:57:21Z</time>
  <course>56.97</course>
  <speed>4.46</speed>
  <fix>3d</fix>
</trkpt>
<trkpt lat="-27.272453" lon="151.2909562">
  <ele>374.41</ele>
  <time>2026-09-01T19:57:21Z</time>
  <course>52.39</course>
  <speed>4.491603277227409</speed>
  <fix>3d</fix>
</trkpt>
<trkpt lat="-27.2724568" lon="151.2909487">
  <ele>374.5</ele>
  <time>2026-09-01T19:57:21Z</time>
  <course>57.69</course>
  <speed>4.49</speed>
  <fix>3d</fix>
</trkpt>
<trkpt lat="-27.2724509" lon="151.2909601">
  <ele>374.41</ele>
  <time>2026-09-01T19:57:21Z</time>
  <course>52.47</course>
  <speed>4.508713785549045</speed>
  <fix>3d</fix>
</trkpt>
<trkpt lat="-27.2724568" lon="151.2909487">
  <ele>374.5</ele>
  <time>2026-09-01T19:57:21Z</time>
  <course>57.69</course>
  <speed>4.49</speed>
  <fix>3d</fix>
</trkpt>
<trkpt lat="-27.2724488" lon="151.290964">
  <ele>374.41</ele>
  <time>2026-09-01T19:57:21Z</time>
  <course>52.54</course>
  <speed>4.534423888433899</speed>
  <fix>3d</fix>
</trkpt>
<trkpt lat="-27.2724525" lon="151.2909565">
  <ele>374.49</ele>
  <time>2026-09-01T19:57:21Z</time>
  <course>58.26</course>
  <speed>4.52</speed>
  <fix>3d</fix>
</trkpt>
<trkpt lat="-27.2724466" lon="151.290968">
  <ele>374.4</ele>
  <time>2026-09-01T19:57:21Z</time>
  <course>52.61</course>
  <speed>4.56018639969903</speed>
  <fix>3d</fix>
</trkpt>
<trkpt lat="-27.2724525" lon="151.2909565">
  <ele>374.49</ele>
  <time>2026-09-01T19:57:21Z</time>
  <course>58.26</course>
  <speed>4.52</speed>
  <fix>3d</fix>
</trkpt>
<trkpt lat="-27.2724445" lon="151.290972">
  <ele>374.4</ele>
  <time>2026-09-01T19:57:21Z</time>
  <course>52.67</course>
  <speed>4.577390086064328</speed>
  <fix>3d</fix>
</trkpt>
<trkpt lat="-27.2724482" lon="151.2909643">
  <ele>374.48</ele>
  <time>2026-09-01T19:57:21Z</time>
  <course>58.69</course>
  <speed>4.56</speed>
  <fix>3d</fix>
</trkpt>
<trkpt lat="-27.2724423" lon="151.290976">
  <ele>374.4</ele>
  <time>2026-09-01T19:57:21Z</time>
  <course>52.73</course>
  <speed>4.608307715420055</speed>
  <fix>3d</fix>
</trkpt>
<trkpt lat="-27.2724482" lon="151.2909643">
  <ele>374.48</ele>
  <time>2026-09-01T19:57:21Z</time>
  <course>58.69</course>
  <speed>4.56</speed>
  <fix>3d</fix>
</trkpt>
<trkpt lat="-27.2724402" lon="151.29098">
  <ele>374.4</ele>
  <time>2026-09-01T19:57:21Z</time>
  <course>52.78</course>
  <speed>4.62554861611031</speed>
  <fix>3d</fix>
</trkpt>
<trkpt lat="-27.272444" lon="151.2909723">
  <ele>374.47</ele>
  <time>2026-09-01T19:57:21Z</time>
  <course>58.99</course>
  <speed>4.61</speed>
  <fix>3d</fix>
</trkpt>
<trkpt lat="-27.272438" lon="151.2909841">
  <ele>374.4</ele>
  <time>2026-09-01T19:57:21Z</time>
  <course>52.81</course>
  <speed>4.652923811970275</speed>
  <fix>3d</fix>
</trkpt>
<trkpt lat="-27.272444" lon="151.2909723">
  <ele>374.47</ele>
  <time>2026-09-01T19:57:21Z</time>
  <course>58.99</course>
  <speed>4.61</speed>
  <fix>3d</fix>
</trkpt>
<trkpt lat="-27.2724359" lon="151.2909881">
  <ele>374.39</ele>
  <time>2026-09-01T19:57:21Z</time>
  <course>52.85</course>
  <speed>4.6752326145337415</speed>
  <fix>3d</fix>
</trkpt>
<trkpt lat="-27.2724397" lon="151.2909803">
  <ele>374.46</ele>
  <time>2026-09-01T19:57:21Z</time>
  <course>59.15</course>
  <speed>4.66</speed>
  <fix>3d</fix>
</trkpt>
<trkpt lat="-27.2724337" lon="151.2909922">
  <ele>374.39</ele>
  <time>2026-09-01T19:57:21Z</time>
  <course>52.88</course>
  <speed>4.706166167912051</speed>
  <fix>3d</fix>
</trkpt>
<trkpt lat="-27.2724397" lon="151.2909803">
  <ele>374.46</ele>
  <time>2026-09-01T19:57:21Z</time>
  <course>59.15</course>
  <speed>4.66</speed>
  <fix>3d</fix>
</trkpt>
<trkpt lat="-27.2724315" lon="151.2909964">
  <ele>374.38</ele>
  <time>2026-09-01T19:57:21Z</time>
  <course>52.91</course>
  <speed>4.724923279800424</speed>
  <fix>3d</fix>
</trkpt>
<trkpt lat="-27.2724354" lon="151.2909884">
  <ele>374.46</ele>
  <time>2026-09-01T19:57:21Z</time>
  <course>59.19</course>
  <speed>4.71</speed>
  <fix>3d</fix>
</trkpt>
<trkpt lat="-27.2724293" lon="151.2910005">
  <ele>374.38</ele>
  <time>2026-09-01T19:57:21Z</time>
  <course>52.93</course>
  <speed>4.752315225234959</speed>
  <fix>3d</fix>
</trkpt>
<trkpt lat="-27.2724354" lon="151.2909884">
  <ele>374.46</ele>
  <time>2026-09-01T19:57:21Z</time>
  <course>59.19</course>
  <speed>4.71</speed>
  <fix>3d</fix>
</trkpt>
<trkpt lat="-27.2724271" lon="151.2910047">
  <ele>374.37</ele>
  <time>2026-09-01T19:57:21Z</time>
  <course>52.95</course>
  <speed>4.779717564877657</speed>
  <fix>3d</fix>
</trkpt>
<trkpt lat="-27.272431" lon="151.2909966">
  <ele>374.45</ele>
  <time>2026-09-01T19:57:21Z</time>
  <course>59.13</course>
  <speed>4.76</speed>
  <fix>3d</fix>
</trkpt>
<trkpt lat="-27.2724249" lon="151.2910088">
  <ele>374.37</ele>
  <time>2026-09-01T19:57:21Z</time>
  <course>52.96</course>
  <speed>4.807130120976548</speed>
  <fix>3d</fix>
</trkpt>
<trkpt lat="-27.272431" lon="151.2909966">
  <ele>374.45</ele>
  <time>2026-09-01T19:57:21Z</time>
  <course>59.13</course>
  <speed>4.76</speed>
  <fix>3d</fix>
</trkpt>
<trkpt lat="-27.2724226" lon="151.291013">
  <ele>374.37</ele>
  <time>2026-09-01T19:57:21Z</time>
  <course>52.97</course>
  <speed>4.825971404805461</speed>
  <fix>3d</fix>
</trkpt>
<trkpt lat="-27.2724266" lon="151.2910049">
  <ele>374.44</ele>
  <time>2026-09-01T19:57:21Z</time>
  <course>58.99</course>
  <speed>4.8</speed>
  <fix>3d</fix>
</trkpt>
<trkpt lat="-27.2724203" lon="151.2910172">
  <ele>374.36</ele>
  <time>2026-09-01T19:57:21Z</time>
  <course>52.98</course>
  <speed>4.853411171536984</speed>
  <fix>3d</fix>
</trkpt>
<trkpt lat="-27.2724266" lon="151.2910049">
  <ele>374.44</ele>
  <time>2026-09-01T19:57:21Z</time>
  <course>58.99</course>
  <speed>4.8</speed>
  <fix>3d</fix>
</trkpt>
<trkpt lat="-27.272418" lon="151.2910214">
  <ele>374.36</ele>
  <time>2026-09-01T19:57:21Z</time>
  <course>52.98</course>
  <speed>4.872299251893299</speed>
  <fix>3d</fix>
</trkpt>
<trkpt lat="-27.2724221" lon="151.2910132">
  <ele>374.43</ele>
  <time>2026-09-01T19:57:21Z</time>
  <course>58.76</course>
  <speed>4.85</speed>
  <fix>3d</fix>
</trkpt>
<trkpt lat="-27.2724157" lon="151.2910257">
  <ele>374.35</ele>
  <time>2026-09-01T19:57:21Z</time>
  <course>52.98</course>
  <speed>4.896417057400237</speed>
  <fix>3d</fix>
</trkpt>
<trkpt lat="-27.2724221" lon="151.2910132">
  <ele>374.43</ele>
  <time>2026-09-01T19:57:21Z</time>
  <course>58.76</course>
  <speed>4.85</speed>
  <fix>3d</fix>
</trkpt>
<trkpt lat="-27.2724134" lon="151.2910299">
  <ele>374.35</ele>
  <time>2026-09-01T19:57:21Z</time>
  <course>52.98</course>
  <speed>4.915384013482568</speed>
  <fix>3d</fix>
</trkpt>
<trkpt lat="-27.2724176" lon="151.2910216">
  <ele>374.42</ele>
  <time>2026-09-01T19:57:21Z</time>
  <course>58.48</course>
  <speed>4.9</speed>
  <fix>3d</fix>
</trkpt>
<trkpt lat="-27.272411" lon="151.2910341">
  <ele>374.35</ele>
  <time>2026-09-01T19:57:21Z</time>
  <course>52.97</course>
  <speed>4.934379393601591</speed>
  <fix>3d</fix>
</trkpt>
<trkpt lat="-27.2724176" lon="151.2910216">
  <ele>374.42</ele>
  <time>2026-09-01T19:57:21Z</time>
  <course>58.48</course>
  <speed>4.9</speed>
  <fix>3d</fix>
</trkpt>
<trkpt lat="-27.2724087" lon="151.2910384">
  <ele>374.34</ele>
  <time>2026-09-01T19:57:21Z</time>
  <course>52.96</course>
  <speed>4.950191915471561</speed>
  <fix>3d</fix>
</trkpt>
<trkpt lat="-27.2724129" lon="151.2910301">
  <ele>374.41</ele>
  <time>2026-09-01T19:57:21Z</time>
  <course>58.14</course>
  <speed>4.94</speed>
  <fix>3d</fix>
</trkpt>
<trkpt lat="-27.2724063" lon="151.2910426">
  <ele>374.34</ele>
  <time>2026-09-01T19:57:21Z</time>
  <course>52.95</course>
  <speed>4.969275601131416</speed>
  <fix>3d</fix>
</trkpt>
<trkpt lat="-27.2724129" lon="151.2910301">
  <ele>374.41</ele>
  <time>2026-09-01T19:57:21Z</time>
  <course>58.14</course>
  <speed>4.94</speed>
  <fix>3d</fix>
</trkpt>
<trkpt lat="-27.2724038" lon="151.2910469">
  <ele>374.34</ele>
  <time>2026-09-01T19:57:21Z</time>
  <course>52.93</course>
  <speed>4.993726063772421</speed>
  <fix>3d</fix>
</trkpt>
<trkpt lat="-27.2724082" lon="151.2910387">
  <ele>374.4</ele>
  <time>2026-09-01T19:57:21Z</time>
  <course>57.76</course>
  <speed>4.98</speed>
  <fix>3d</fix>
</trkpt>
<trkpt lat="-27.2724014" lon="151.2910512">
  <ele>374.33</ele>
  <time>2026-09-01T19:57:21Z</time>
  <course>52.91</course>
  <speed>5.0044480215104645</speed>
  <fix>3d</fix>
</trkpt>
<trkpt lat="-27.2724082" lon="151.2910387">
  <ele>374.4</ele>
  <time>2026-09-01T19:57:21Z</time>
  <course>57.76</course>
  <speed>4.98</speed>
  <fix>3d</fix>
</trkpt>
<trkpt lat="-27.2723989" lon="151.2910555">
  <ele>374.33</ele>
  <time>2026-09-01T19:57:21Z</time>
  <course>52.89</course>
  <speed>5.020637409731956</speed>
  <fix>3d</fix>
</trkpt>
<trkpt lat="-27.2724033" lon="151.2910472">
  <ele>374.39</ele>
  <time>2026-09-01T19:57:21Z</time>
  <course>57.35</course>
  <speed>5.02</speed>
  <fix>3d</fix>
</trkpt>
<trkpt lat="-27.2723964" lon="151.2910598">
  <ele>374.32</ele>
  <time>2026-09-01T19:57:21Z</time>
  <course>52.87</course>
  <speed>5.031500770148009</speed>
  <fix>3d</fix>
</trkpt>
<trkpt lat="-27.2724033" lon="151.2910472">
  <ele>374.39</ele>
  <time>2026-09-01T19:57:21Z</time>
  <course>57.35</course>
  <speed>5.02</speed>
  <fix>3d</fix>
</trkpt>
<trkpt lat="-27.2723939" lon="151.2910641">
  <ele>374.32</ele>
  <time>2026-09-01T19:57:21Z</time>
  <course>52.84</course>
  <speed>5.042420053902689</speed>
  <fix>3d</fix>
</trkpt>
<trkpt lat="-27.2723984" lon="151.2910557">
  <ele>374.38</ele>
  <time>2026-09-01T19:57:21Z</time>
  <course>56.94</course>
  <speed>5.05</speed>
  <fix>3d</fix>
</trkpt>
<trkpt lat="-27.2723913" lon="151.2910683">
  <ele>374.31</ele>
  <time>2026-09-01T19:57:21Z</time>
  <course>52.82</course>
  <speed>5.0589030431507584</speed>
  <fix>3d</fix>
</trkpt>
<trkpt lat="-27.2723984" lon="151.2910557">
  <ele>374.38</ele>
  <time>2026-09-01T19:57:21Z</time>
  <course>56.94</course>
  <speed>5.05</speed>
  <fix>3d</fix>
</trkpt>
<trkpt lat="-27.2723888" lon="151.2910726">
  <ele>374.31</ele>
  <time>2026-09-01T19:57:21Z</time>
  <course>52.79</course>
  <speed>5.06996055211478</speed>
  <fix>3d</fix>
</trkpt>
<trkpt lat="-27.2723935" lon="151.2910643">
  <ele>374.37</ele>
  <time>2026-09-01T19:57:21Z</time>
  <course>56.51</course>
  <speed>5.07</speed>
  <fix>3d</fix>
</trkpt>
<trkpt lat="-27.2723862" lon="151.2910769">
  <ele>374.3</ele>
  <time>2026-09-01T19:57:21Z</time>
  <course>52.76</course>
  <speed>5.081072721384728</speed>
  <fix>3d</fix>
</trkpt>
<trkpt lat="-27.2723935" lon="151.2910643">
  <ele>374.37</ele>
  <time>2026-09-01T19:57:21Z</time>
  <course>56.51</course>
  <speed>5.07</speed>
  <fix>3d</fix>
</trkpt>
<trkpt lat="-27.2723836" lon="151.2910812">
  <ele>374.3</ele>
  <time>2026-09-01T19:57:21Z</time>
  <course>52.73</course>
  <speed>5.092239193125162</speed>
  <fix>3d</fix>
</trkpt>
<trkpt lat="-27.2723883" lon="151.2910729">
  <ele>374.36</ele>
  <time>2026-09-01T19:57:21Z</time>
  <course>56.09</course>
  <speed>5.1</speed>
  <fix>3d</fix>
</trkpt>
<trkpt lat="-27.272381" lon="151.2910854">
  <ele>374.29</ele>
  <time>2026-09-01T19:57:21Z</time>
  <course>52.71</course>
  <speed>5.095193813781768</speed>
  <fix>3d</fix>
</trkpt>
<trkpt lat="-27.2723883" lon="151.2910729">
  <ele>374.36</ele>
  <time>2026-09-01T19:57:21Z</time>
  <course>56.09</course>
  <speed>5.1</speed>
  <fix>3d</fix>
</trkpt>
<trkpt lat="-27.2723784" lon="151.2910897">
  <ele>374.29</ele>
  <time>2026-09-01T19:57:21Z</time>
  <course>52.68</course>
  <speed>5.1008332652616675</speed>
  <fix>3d</fix>
</trkpt>
<trkpt lat="-27.2723832" lon="151.2910814">
  <ele>374.35</ele>
  <time>2026-09-01T19:57:21Z</time>
  <course>55.68</course>
  <speed>5.11</speed>
  <fix>3d</fix>
</trkpt>
<trkpt lat="-27.2723758" lon="151.291094">
  <ele>374.28</ele>
  <time>2026-09-01T19:57:21Z</time>
  <course>52.65</course>
  <speed>5.103920062069938</speed>
  <fix>3d</fix>
</trkpt>
<trkpt lat="-27.2723832" lon="151.2910814">
  <ele>374.35</ele>
  <time>2026-09-01T19:57:21Z</time>
  <course>55.68</course>
  <speed>5.11</speed>
  <fix>3d</fix>
</trkpt>
<trkpt lat="-27.2723731" lon="151.2910982">
  <ele>374.28</ele>
  <time>2026-09-01T19:57:21Z</time>
  <course>52.63</course>
  <speed>5.107102896946565</speed>
  <fix>3d</fix>
</trkpt>
<trkpt lat="-27.272378" lon="151.29109">
  <ele>374.34</ele>
  <time>2026-09-01T19:57:21Z</time>
  <course>55.29</course>
  <speed>5.13</speed>
  <fix>3d</fix>
</trkpt>
<trkpt lat="-27.2723705" lon="151.2911025">
  <ele>374.27</ele>
  <time>2026-09-01T19:57:21Z</time>
  <course>52.61</course>
  <speed>5.112827006656885</speed>
  <fix>3d</fix>
</trkpt>
<trkpt lat="-27.272378" lon="151.29109">
  <ele>374.34</ele>
  <time>2026-09-01T19:57:21Z</time>
  <course>55.29</course>
  <speed>5.13</speed>
  <fix>3d</fix>
</trkpt>
<trkpt lat="-27.2723678" lon="151.2911067">
  <ele>374.27</ele>
  <time>2026-09-01T19:57:21Z</time>
  <course>52.58</course>
  <speed>5.116141123933154</speed>
  <fix>3d</fix>
</trkpt>
<trkpt lat="-27.2723727" lon="151.2910985">
  <ele>374.33</ele>
  <time>2026-09-01T19:57:21Z</time>
  <course>54.92</course>
  <speed>5.14</speed>
  <fix>3d</fix>
</trkpt>
<trkpt lat="-27.2723651" lon="151.2911109">
  <ele>374.26</ele>
  <time>2026-09-01T19:57:21Z</time>
  <course>52.56</course>
  <speed>5.113755958197458</speed>
  <fix>3d</fix>
</trkpt>
<trkpt lat="-27.2723727" lon="151.2910985">
  <ele>374.33</ele>
  <time>2026-09-01T19:57:21Z</time>
  <course>54.92</course>
  <speed>5.14</speed>
  <fix>3d</fix>
</trkpt>
<trkpt lat="-27.2723624" lon="151.2911151">
  <ele>374.25</ele>
  <time>2026-09-01T19:57:21Z</time>
  <course>52.54</course>
  <speed>5.111408807755451</speed>
  <fix>3d</fix>
</trkpt>
<trkpt lat="-27.2723674" lon="151.291107">
  <ele>374.32</ele>
  <time>2026-09-01T19:57:21Z</time>
  <course>54.57</course>
  <speed>5.14</speed>
  <fix>3d</fix>
</trkpt>
<trkpt lat="-27.2723597" lon="151.2911193">
  <ele>374.25</ele>
  <time>2026-09-01T19:57:21Z</time>
  <course>52.52</course>
  <speed>5.1090997250004815</speed>
  <fix>3d</fix>
</trkpt>
<trkpt lat="-27.2723674" lon="151.291107">
  <ele>374.32</ele>
  <time>2026-09-01T19:57:21Z</time>
  <course>54.57</course>
  <speed>5.14</speed>
  <fix>3d</fix>
</trkpt>
<trkpt lat="-27.272357" lon="151.2911235">
  <ele>374.24</ele>
  <time>2026-09-01T19:57:21Z</time>
  <course>52.5</course>
  <speed>5.114938904815971</speed>
  <fix>3d</fix>
</trkpt>
<trkpt lat="-27.272362" lon="151.2911154">
  <ele>374.31</ele>
  <time>2026-09-01T19:57:21Z</time>
  <course>54.25</course>
  <speed>5.14</speed>
  <fix>3d</fix>
</trkpt>
<trkpt lat="-27.2723543" lon="151.2911277">
  <ele>374.24</ele>
  <time>2026-09-01T19:57:21Z</time>
  <course>52.49</course>
  <speed>5.112690094265445</speed>
  <fix>3d</fix>
</trkpt>
<trkpt lat="-27.272362" lon="151.2911154">
  <ele>374.31</ele>
  <time>2026-09-01T19:57:21Z</time>
  <course>54.25</course>
  <speed>5.14</speed>
  <fix>3d</fix>
</trkpt>
<trkpt lat="-27.2723516" lon="151.2911319">
  <ele>374.23</ele>
  <time>2026-09-01T19:57:21Z</time>
  <course>52.47</course>
  <speed>5.104595968340687</speed>
  <fix>3d</fix>
</trkpt>
<trkpt lat="-27.2723566" lon="151.2911239">
  <ele>374.3</ele>
  <time>2026-09-01T19:57:21Z</time>
  <course>53.96</course>
  <speed>5.14</speed>
  <fix>3d</fix>
</trkpt>
<trkpt lat="-27.2723488" lon="151.2911361">
  <ele>374.22</ele>
  <time>2026-09-01T19:57:21Z</time>
  <course>52.46</course>
  <speed>5.1024013954215715</speed>
  <fix>3d</fix>
</trkpt>
<trkpt lat="-27.2723566" lon="151.2911239">
  <ele>374.3</ele>
  <time>2026-09-01T19:57:21Z</time>
  <course>53.96</course>
  <speed>5.14</speed>
  <fix>3d</fix>
</trkpt>
<trkpt lat="-27.2723461" lon="151.2911403">
  <ele>374.22</ele>
  <time>2026-09-01T19:57:21Z</time>
  <course>52.44</course>
  <speed>5.094330181682377</speed>
  <fix>3d</fix>
</trkpt>
<trkpt lat="-27.2723511" lon="151.2911322">
  <ele>374.28</ele>
  <time>2026-09-01T19:57:21Z</time>
  <course>53.7</course>
  <speed>5.13</speed>
  <fix>3d</fix>
</trkpt>
<trkpt lat="-27.2723434" lon="151.2911445">
  <ele>374.21</ele>
  <time>2026-09-01T19:57:21Z</time>
  <course>52.43</course>
  <speed>5.086265820815896</speed>
  <fix>3d</fix>
</trkpt>
<trkpt lat="-27.2723511" lon="151.2911322">
  <ele>374.28</ele>
  <time>2026-09-01T19:57:21Z</time>
  <course>53.7</course>
  <speed>5.13</speed>
  <fix>3d</fix>
</trkpt>
<trkpt lat="-27.2723405" lon="151.2911487">
  <ele>374.21</ele>
  <time>2026-09-01T19:57:21Z</time>
  <course>52.43</course>
  <speed>5.076100865822112</speed>
  <fix>3d</fix>
</trkpt>
<trkpt lat="-27.2723457" lon="151.2911406">
  <ele>374.27</ele>
  <time>2026-09-01T19:57:21Z</time>
  <course>53.48</course>
  <speed>5.12</speed>
  <fix>3d</fix>
</trkpt>
<trkpt lat="-27.2723378" lon="151.2911528">
  <ele>374.2</ele>
  <time>2026-09-01T19:57:21Z</time>
  <course>52.42</course>
  <speed>5.0680666925367115</speed>
  <fix>3d</fix>
</trkpt>
<trkpt lat="-27.2723457" lon="151.2911406">
  <ele>374.27</ele>
  <time>2026-09-01T19:57:21Z</time>
  <course>53.48</course>
  <speed>5.12</speed>
  <fix>3d</fix>
</trkpt>
<trkpt lat="-27.2723351" lon="151.291157">
  <ele>374.19</ele>
  <time>2026-09-01T19:57:21Z</time>
  <course>52.42</course>
  <speed>5.060039525537325</speed>
  <fix>3d</fix>
</trkpt>
<trkpt lat="-27.2723402" lon="151.2911489">
  <ele>374.26</ele>
  <time>2026-09-01T19:57:21Z</time>
  <course>53.3</course>
  <speed>5.11</speed>
  <fix>3d</fix>
</trkpt>
<trkpt lat="-27.2723323" lon="151.2911611">
  <ele>374.19</ele>
  <time>2026-09-01T19:57:21Z</time>
  <course>52.41</course>
  <speed>5.052019398220874</speed>
  <fix>3d</fix>
</trkpt>
<trkpt lat="-27.2723402" lon="151.2911489">
  <ele>374.26</ele>
  <time>2026-09-01T19:57:21Z</time>
  <course>53.3</course>
  <speed>5.11</speed>
  <fix>3d</fix>
</trkpt>
<trkpt lat="-27.2723296" lon="151.2911652">
  <ele>374.18</ele>
  <time>2026-09-01T19:57:21Z</time>
  <course>52.41</course>
  <speed>5.044006344167303</speed>
  <fix>3d</fix>
</trkpt>
<trkpt lat="-27.2723347" lon="151.2911571">
  <ele>374.25</ele>
  <time>2026-09-01T19:57:21Z</time>
  <course>53.15</course>
  <speed>5.09</speed>
  <fix>3d</fix>
</trkpt>
<trkpt lat="-27.2723268" lon="151.2911693">
  <ele>374.18</ele>
  <time>2026-09-01T19:57:21Z</time>
  <course>52.42</course>
  <speed>5.03000994034803</speed>
  <fix>3d</fix>
</trkpt>
<trkpt lat="-27.2723347" lon="151.2911571">
  <ele>374.25</ele>
  <time>2026-09-01T19:57:21Z</time>
  <course>53.15</course>
  <speed>5.09</speed>
  <fix>3d</fix>
</trkpt>
<trkpt lat="-27.2723241" lon="151.2911733">
  <ele>374.17</ele>
  <time>2026-09-01T19:57:21Z</time>
  <course>52.42</course>
  <speed>5.022001592990588</speed>
  <fix>3d</fix>
</trkpt>
<trkpt lat="-27.2723292" lon="151.2911654">
  <ele>374.24</ele>
  <time>2026-09-01T19:57:21Z</time>
  <course>53.03</course>
  <speed>5.07</speed>
  <fix>3d</fix>
</trkpt>
<trkpt lat="-27.2723214" lon="151.2911774">
  <ele>374.16</ele>
  <time>2026-09-01T19:57:21Z</time>
  <course>52.43</course>
  <speed>5.022001592990588</speed>
  <fix>3d</fix>
</trkpt>
<trkpt lat="-27.2723292" lon="151.2911654">
  <ele>374.24</ele>
  <time>2026-09-01T19:57:21Z</time>
  <course>53.03</course>
  <speed>5.07</speed>
  <fix>3d</fix>
</trkpt>
<trkpt lat="-27.2723187" lon="151.2911814">
  <ele>374.16</ele>
  <time>2026-09-01T19:57:21Z</time>
  <course>52.44</course>
  <speed>5.008003594247912</speed>
  <fix>3d</fix>
</trkpt>
<trkpt lat="-27.2723237" lon="151.2911735">
  <ele>374.22</ele>
  <time>2026-09-01T19:57:21Z</time>
  <course>52.95</course>
  <speed>5.05</speed>
  <fix>3d</fix>
</trkpt>
<trkpt lat="-27.2723159" lon="151.2911855">
  <ele>374.15</ele>
  <time>2026-09-01T19:57:21Z</time>
  <course>52.45</course>
  <speed>5.0</speed>
  <fix>3d</fix>
</trkpt>
<trkpt lat="-27.2723237" lon="151.2911735">
  <ele>374.22</ele>
  <time>2026-09-01T19:57:21Z</time>
  <course>52.95</course>
  <speed>5.05</speed>
  <fix>3d</fix>
</trkpt>
<trkpt lat="-27.2723132" lon="151.2911895">
  <ele>374.14</ele>
  <time>2026-09-01T19:57:21Z</time>
  <course>52.46</course>
  <speed>4.986000401123128</speed>
  <fix>3d</fix>
</trkpt>
<trkpt lat="-27.2723183" lon="151.2911817">
  <ele>374.21</ele>
  <time>2026-09-01T19:57:21Z</time>
  <course>52.9</course>
  <speed>5.03</speed>
  <fix>3d</fix>
</trkpt>
<trkpt lat="-27.2723105" lon="151.2911935">
  <ele>374.14</ele>
  <time>2026-09-01T19:57:21Z</time>
  <course>52.47</course>
  <speed>4.972001609010198</speed>
  <fix>3d</fix>
</trkpt>
<trkpt lat="-27.2723183" lon="151.2911817">
  <ele>374.21</ele>
  <time>2026-09-01T19:57:21Z</time>
  <course>52.9</course>
  <speed>5.03</speed>
  <fix>3d</fix>
</trkpt>
<trkpt lat="-27.2723078" lon="151.2911975">
  <ele>374.13</ele>
  <time>2026-09-01T19:57:21Z</time>
  <course>52.49</course>
  <speed>4.958003630494838</speed>
  <fix>3d</fix>
</trkpt>
<trkpt lat="-27.2723128" lon="151.2911898">
  <ele>374.2</ele>
  <time>2026-09-01T19:57:21Z</time>
  <course>52.9</course>
  <speed>5.01</speed>
  <fix>3d</fix>
</trkpt>
<trkpt lat="-27.2723052" lon="151.2912015">
  <ele>374.13</ele>
  <time>2026-09-01T19:57:21Z</time>
  <course>52.51</course>
  <speed>4.95</speed>
  <fix>3d</fix>
</trkpt>
<trkpt lat="-27.2723128" lon="151.2911898">
  <ele>374.2</ele>
  <time>2026-09-01T19:57:21Z</time>
  <course>52.9</course>
  <speed>5.01</speed>
  <fix>3d</fix>
</trkpt>
<trkpt lat="-27.2723025" lon="151.2912055">
  <ele>374.12</ele>
  <time>2026-09-01T19:57:21Z</time>
  <course>52.52</course>
  <speed>4.944006472487673</speed>
  <fix>3d</fix>
</trkpt>
<trkpt lat="-27.2723074" lon="151.2911978">
  <ele>374.19</ele>
  <time>2026-09-01T19:57:21Z</time>
  <course>52.92</course>
  <speed>4.99</speed>
  <fix>3d</fix>
</trkpt>
<trkpt lat="-27.2722998" lon="151.2912095">
  <ele>374.11</ele>
  <time>2026-09-01T19:57:21Z</time>
  <course>52.54</course>
  <speed>4.930010141977398</speed>
  <fix>3d</fix>
</trkpt>
<trkpt lat="-27.2723074" lon="151.2911978">
  <ele>374.19</ele>
  <time>2026-09-01T19:57:21Z</time>
  <course>52.92</course>
  <speed>4.99</speed>
  <fix>3d</fix>
</trkpt>
<trkpt lat="-27.2722972" lon="151.2912135">
  <ele>374.11</ele>
  <time>2026-09-01T19:57:21Z</time>
  <course>52.56</course>
  <speed>4.924032899971324</speed>
  <fix>3d</fix>
</trkpt>
<trkpt lat="-27.272302" lon="151.2912059">
  <ele>374.18</ele>
  <time>2026-09-01T19:57:21Z</time>
  <course>52.97</course>
  <speed>4.97</speed>
  <fix>3d</fix>
</trkpt>
<trkpt lat="-27.2722945" lon="151.2912175">
  <ele>374.1</ele>
  <time>2026-09-01T19:57:21Z</time>
  <course>52.58</course>
  <speed>4.910040733028597</speed>
  <fix>3d</fix>
</trkpt>
<trkpt lat="-27.272302" lon="151.2912059">
  <ele>374.18</ele>
  <time>2026-09-01T19:57:21Z</time>
  <course>52.97</course>
  <speed>4.97</speed>
  <fix>3d</fix>
</trkpt>
<trkpt lat="-27.2722918" lon="151.2912214">
  <ele>374.1</ele>
  <time>2026-09-01T19:57:21Z</time>
  <course>52.6</course>
  <speed>4.910040733028597</speed>
  <fix>3d</fix>
</trkpt>
<trkpt lat="-27.2722966" lon="151.291214">
  <ele>374.16</ele>
  <time>2026-09-01T19:57:21Z</time>
  <course>53.04</course>
  <speed>4.96</speed>
  <fix>3d</fix>
</trkpt>
<trkpt lat="-27.2722892" lon="151.2912254">
  <ele>374.09</ele>
  <time>2026-09-01T19:57:21Z</time>
  <course>52.63</course>
  <speed>4.904079934095692</speed>
  <fix>3d</fix>
</trkpt>
<trkpt lat="-27.2722966" lon="151.291214">
  <ele>374.16</ele>
  <time>2026-09-01T19:57:21Z</time>
  <course>53.04</course>
  <speed>4.96</speed>
  <fix>3d</fix>
</trkpt>
<trkpt lat="-27.2722865" lon="151.2912295">
  <ele>374.09</ele>
  <time>2026-09-01T19:57:21Z</time>
  <course>52.65</course>
  <speed>4.898132297110808</speed>
  <fix>3d</fix>
</trkpt>
<trkpt lat="-27.2722913" lon="151.291222">
  <ele>374.15</ele>
  <time>2026-09-01T19:57:21Z</time>
  <course>53.13</course>
  <speed>4.95</speed>
  <fix>3d</fix>
</trkpt>
<trkpt lat="-27.2722838" lon="151.2912335">
  <ele>374.08</ele>
  <time>2026-09-01T19:57:21Z</time>
  <course>52.68</course>
  <speed>4.884147827410632</speed>
  <fix>3d</fix>
</trkpt>
<trkpt lat="-27.2722913" lon="151.291222">
  <ele>374.15</ele>
  <time>2026-09-01T19:57:21Z</time>
  <course>53.13</course>
  <speed>4.95</speed>
  <fix>3d</fix>
</trkpt>
<trkpt lat="-27.2722812" lon="151.2912375">
  <ele>374.07</ele>
  <time>2026-09-01T19:57:21Z</time>
  <course>52.7</course>
  <speed>4.884147827410632</speed>
  <fix>3d</fix>
</trkpt>
<trkpt lat="-27.2722859" lon="151.2912299">
  <ele>374.14</ele>
  <time>2026-09-01T19:57:21Z</time>
  <course>53.25</course>
  <speed>4.93</speed>
  <fix>3d</fix>
</trkpt>
<trkpt lat="-27.2722786" lon="151.2912414">
  <ele>374.07</ele>
  <time>2026-09-01T19:57:21Z</time>
  <course>52.73</course>
  <speed>4.878216887347261</speed>
  <fix>3d</fix>
</trkpt>
<trkpt lat="-27.2722859" lon="151.2912299">
  <ele>374.14</ele>
  <time>2026-09-01T19:57:21Z</time>
  <course>53.25</course>
  <speed>4.93</speed>
  <fix>3d</fix>
</trkpt>
<trkpt lat="-27.272276" lon="151.2912454">
  <ele>374.06</ele>
  <time>2026-09-01T19:57:21Z</time>
  <course>52.76</course>
  <speed>4.880368838520302</speed>
  <fix>3d</fix>
</trkpt>
<trkpt lat="-27.2722806" lon="151.291238">
  <ele>374.13</ele>
  <time>2026-09-01T19:57:21Z</time>
  <course>53.37</course>
  <speed>4.93</speed>
  <fix>3d</fix>
</trkpt>
<trkpt lat="-27.2722733" lon="151.2912494">
  <ele>374.05</ele>
  <time>2026-09-01T19:57:21Z</time>
  <course>52.78</course>
  <speed>4.880368838520302</speed>
  <fix>3d</fix>
</trkpt>
<trkpt lat="-27.2722806" lon="151.291238">
  <ele>374.13</ele>
  <time>2026-09-01T19:57:21Z</time>
  <course>53.37</course>
  <speed>4.93</speed>
  <fix>3d</fix>
</trkpt>
<trkpt lat="-27.2722707" lon="151.2912534">
  <ele>374.05</ele>
  <time>2026-09-01T19:57:21Z</time>
  <course>52.81</course>
  <speed>4.874474330632997</speed>
  <fix>3d</fix>
</trkpt>
<trkpt lat="-27.2722754" lon="151.291246">
  <ele>374.11</ele>
  <time>2026-09-01T19:57:21Z</time>
  <course>53.51</course>
  <speed>4.92</speed>
  <fix>3d</fix>
</trkpt>
<trkpt lat="-27.2722681" lon="151.2912574">
  <ele>374.04</ele>
  <time>2026-09-01T19:57:21Z</time>
  <course>52.84</course>
  <speed>4.868593225974008</speed>
  <fix>3d</fix>
</trkpt>
<trkpt lat="-27.2722754" lon="151.291246">
  <ele>374.11</ele>
  <time>2026-09-01T19:57:21Z</time>
  <course>53.51</course>
  <speed>4.92</speed>
  <fix>3d</fix>
</trkpt>
<trkpt lat="-27.2722655" lon="151.2912614">
  <ele>374.04</ele>
  <time>2026-09-01T19:57:21Z</time>
  <course>52.87</course>
  <speed>4.868593225974008</speed>
  <fix>3d</fix>
</trkpt>
<trkpt lat="-27.2722701" lon="151.2912539">
  <ele>374.1</ele>
  <time>2026-09-01T19:57:21Z</time>
  <course>53.66</course>
  <speed>4.91</speed>
  <fix>3d</fix>
</trkpt>
<trkpt lat="-27.2722629" lon="151.2912654">
  <ele>374.04</ele>
  <time>2026-09-01T19:57:21Z</time>
  <course>52.89</course>
  <speed>4.870831551183022</speed>
  <fix>3d</fix>
</trkpt>
<trkpt lat="-27.2722701" lon="151.2912539">
  <ele>374.1</ele>
  <time>2026-09-01T19:57:21Z</time>
  <course>53.66</course>
  <speed>4.91</speed>
  <fix>3d</fix>
</trkpt>
<trkpt lat="-27.2722603" lon="151.2912694">
  <ele>374.03</ele>
  <time>2026-09-01T19:57:21Z</time>
  <course>52.92</course>
  <speed>4.870831551183022</speed>
  <fix>3d</fix>
</trkpt>
<trkpt lat="-27.2722648" lon="151.291262">
  <ele>374.09</ele>
  <time>2026-09-01T19:57:21Z</time>
  <course>53.81</course>
  <speed>4.91</speed>
  <fix>3d</fix>
</trkpt>
<trkpt lat="-27.2722577" lon="151.2912734">
  <ele>374.03</ele>
  <time>2026-09-01T19:57:21Z</time>
  <course>52.95</course>
  <speed>4.8649871531176725</speed>
  <fix>3d</fix>
</trkpt>
<trkpt lat="-27.2722648" lon="151.291262">
  <ele>374.09</ele>
  <time>2026-09-01T19:57:21Z</time>
  <course>53.81</course>
  <speed>4.91</speed>
  <fix>3d</fix>
</trkpt>
<trkpt lat="-27.2722551" lon="151.2912775">
  <ele>374.02</ele>
  <time>2026-09-01T19:57:21Z</time>
  <course>52.98</course>
  <speed>4.873109889998378</speed>
  <fix>3d</fix>
</trkpt>
<trkpt lat="-27.2722597" lon="151.29127">
  <ele>374.08</ele>
  <time>2026-09-01T19:57:21Z</time>
  <course>53.95</course>
  <speed>4.91</speed>
  <fix>3d</fix>
</trkpt>
<trkpt lat="-27.2722526" lon="151.2912814">
  <ele>374.01</ele>
  <time>2026-09-01T19:57:21Z</time>
  <course>53.01</course>
  <speed>4.8672887730234375</speed>
  <fix>3d</fix>
</trkpt>
<trkpt lat="-27.2722597" lon="151.29127">
  <ele>374.08</ele>
  <time>2026-09-01T19:57:21Z</time>
  <course>53.95</course>
  <speed>4.91</speed>
  <fix>3d</fix>
</trkpt>
<trkpt lat="-27.27225" lon="151.2912854">
  <ele>374.01</ele>
  <time>2026-09-01T19:57:21Z</time>
  <course>53.03</course>
  <speed>4.875428186323741</speed>
  <fix>3d</fix>
</trkpt>
<trkpt lat="-27.2722545" lon="151.291278">
  <ele>374.07</ele>
  <time>2026-09-01T19:57:21Z</time>
  <course>54.1</course>
  <speed>4.91</speed>
  <fix>3d</fix>
</trkpt>
<trkpt lat="-27.2722475" lon="151.2912894">
  <ele>374.01</ele>
  <time>2026-09-01T19:57:21Z</time>
  <course>53.06</course>
  <speed>4.869630376116857</speed>
  <fix>3d</fix>
</trkpt>
<trkpt lat="-27.2722545" lon="151.291278">
  <ele>374.07</ele>
  <time>2026-09-01T19:57:21Z</time>
  <course>54.1</course>
  <speed>4.91</speed>
  <fix>3d</fix>
</trkpt>
<trkpt lat="-27.2722449" lon="151.2912934">
  <ele>374.0</ele>
  <time>2026-09-01T19:57:21Z</time>
  <course>53.08</course>
  <speed>4.877786383186537</speed>
  <fix>3d</fix>
</trkpt>
<trkpt lat="-27.2722494" lon="151.291286">
  <ele>374.05</ele>
  <time>2026-09-01T19:57:21Z</time>
  <course>54.24</course>
  <speed>4.91</speed>
  <fix>3d</fix>
</trkpt>
<trkpt lat="-27.2722423" lon="151.2912975">
  <ele>373.99</ele>
  <time>2026-09-01T19:57:21Z</time>
  <course>53.11</course>
  <speed>4.877786383186537</speed>
  <fix>3d</fix>
</trkpt>
<trkpt lat="-27.2722494" lon="151.291286">
  <ele>374.05</ele>
  <time>2026-09-01T19:57:21Z</time>
  <course>54.24</course>
  <speed>4.91</speed>
  <fix>3d</fix>
</trkpt>
<trkpt lat="-27.2722397" lon="151.2913016">
  <ele>373.99</ele>
  <time>2026-09-01T19:57:21Z</time>
  <course>53.13</course>
  <speed>4.885949242470699</speed>
  <fix>3d</fix>
</trkpt>
<trkpt lat="-27.2722441" lon="151.2912941">
  <ele>374.04</ele>
  <time>2026-09-01T19:57:21Z</time>
  <course>54.38</course>
  <speed>4.91</speed>
  <fix>3d</fix>
</trkpt>
<trkpt lat="-27.2722371" lon="151.2913056">
  <ele>373.98</ele>
  <time>2026-09-01T19:57:21Z</time>
  <course>53.16</course>
  <speed>4.888363734420752</speed>
  <fix>3d</fix>
</trkpt>
<trkpt lat="-27.2722441" lon="151.2912941">
  <ele>374.04</ele>
  <time>2026-09-01T19:57:21Z</time>
  <course>54.38</course>
  <speed>4.91</speed>
  <fix>3d</fix>
</trkpt>
<trkpt lat="-27.2722346" lon="151.2913097">
  <ele>373.97</ele>
  <time>2026-09-01T19:57:21Z</time>
  <course>53.18</course>
  <speed>4.888363734420752</speed>
  <fix>3d</fix>
</trkpt>
<trkpt lat="-27.272239" lon="151.2913023">
  <ele>374.03</ele>
  <time>2026-09-01T19:57:21Z</time>
  <course>54.51</course>
  <speed>4.92</speed>
  <fix>3d</fix>
</trkpt>
<trkpt lat="-27.2722319" lon="151.2913139">
  <ele>373.97</ele>
  <time>2026-09-01T19:57:21Z</time>
  <course>53.2</course>
  <speed>4.896549805730562</speed>
  <fix>3d</fix>
</trkpt>
<trkpt lat="-27.272239" lon="151.2913023">
  <ele>374.03</ele>
  <time>2026-09-01T19:57:21Z</time>
  <course>54.51</course>
  <speed>4.92</speed>
  <fix>3d</fix>
</trkpt>
<trkpt lat="-27.2722294" lon="151.291318">
  <ele>373.96</ele>
  <time>2026-09-01T19:57:21Z</time>
  <course>53.23</course>
  <speed>4.896549805730562</speed>
  <fix>3d</fix>
</trkpt>
<trkpt lat="-27.2722339" lon="151.2913104">
  <ele>374.02</ele>
  <time>2026-09-01T19:57:21Z</time>
  <course>54.63</course>
  <speed>4.93</speed>
  <fix>3d</fix>
</trkpt>
<trkpt lat="-27.2722268" lon="151.291322">
  <ele>373.95</ele>
  <time>2026-09-01T19:57:21Z</time>
  <course>53.25</course>
  <speed>4.904742602828409</speed>
  <fix>3d</fix>
</trkpt>
<trkpt lat="-27.2722339" lon="151.2913104">
  <ele>374.02</ele>
  <time>2026-09-01T19:57:21Z</time>
  <course>54.63</course>
  <speed>4.93</speed>
  <fix>3d</fix>
</trkpt>
<trkpt lat="-27.2722242" lon="151.2913261">
  <ele>373.95</ele>
  <time>2026-09-01T19:57:21Z</time>
  <course>53.27</course>
  <speed>4.9129420920666265</speed>
  <fix>3d</fix>
</trkpt>
<trkpt lat="-27.2722288" lon="151.2913185">
  <ele>374.01</ele>
  <time>2026-09-01T19:57:21Z</time>
  <course>54.73</course>
  <speed>4.93</speed>
  <fix>3d</fix>
</trkpt>
<trkpt lat="-27.2722217" lon="151.2913302">
  <ele>373.94</ele>
  <time>2026-09-01T19:57:21Z</time>
  <course>53.28</course>
  <speed>4.9129420920666265</speed>
  <fix>3d</fix>
</trkpt>
<trkpt lat="-27.2722288" lon="151.2913185">
  <ele>374.01</ele>
  <time>2026-09-01T19:57:21Z</time>
  <course>54.73</course>
  <speed>4.93</speed>
  <fix>3d</fix>
</trkpt>
<trkpt lat="-27.2722191" lon="151.2913344">
  <ele>373.93</ele>
  <time>2026-09-01T19:57:21Z</time>
  <course>53.3</course>
  <speed>4.921148239994402</speed>
  <fix>3d</fix>
</trkpt>
<trkpt lat="-27.2722237" lon="151.2913267">
  <ele>374.0</ele>
  <time>2026-09-01T19:57:21Z</time>
  <course>54.82</course>
  <speed>4.94</speed>
  <fix>3d</fix>
</trkpt>
<trkpt lat="-27.2722165" lon="151.2913385">
  <ele>373.93</ele>
  <time>2026-09-01T19:57:21Z</time>
  <course>53.32</course>
  <speed>4.921148239994402</speed>
  <fix>3d</fix>
</trkpt>
<trkpt lat="-27.2722237" lon="151.2913267">
  <ele>374.0</ele>
  <time>2026-09-01T19:57:21Z</time>
  <course>54.82</course>
  <speed>4.94</speed>
  <fix>3d</fix>
</trkpt>
<trkpt lat="-27.2722139" lon="151.2913426">
  <ele>373.92</ele>
  <time>2026-09-01T19:57:21Z</time>
  <course>53.34</course>
  <speed>4.9293610133565995</speed>
  <fix>3d</fix>
</trkpt>
<trkpt lat="-27.2722186" lon="151.2913348">
  <ele>373.99</ele>
  <time>2026-09-01T19:57:21Z</time>
  <course>54.88</course>
  <speed>4.95</speed>
  <fix>3d</fix>
</trkpt>
<trkpt lat="-27.2722114" lon="151.2913467">
  <ele>373.92</ele>
  <time>2026-09-01T19:57:21Z</time>
  <course>53.35</course>
  <speed>4.9293610133565995</speed>
  <fix>3d</fix>
</trkpt>
<trkpt lat="-27.2722186" lon="151.2913348">
  <ele>373.99</ele>
  <time>2026-09-01T19:57:21Z</time>
  <course>54.88</course>
  <speed>4.95</speed>
  <fix>3d</fix>
</trkpt>
<trkpt lat="-27.2722088" lon="151.2913508">
  <ele>373.91</ele>
  <time>2026-09-01T19:57:21Z</time>
  <course>53.37</course>
  <speed>4.9293610133565995</speed>
  <fix>3d</fix>
</trkpt>
<trkpt lat="-27.2722134" lon="151.2913431">
  <ele>373.98</ele>
  <time>2026-09-01T19:57:21Z</time>
  <course>54.94</course>
  <speed>4.95</speed>
  <fix>3d</fix>
</trkpt>
<trkpt lat="-27.2722062" lon="151.291355">
  <ele>373.91</ele>
  <time>2026-09-01T19:57:21Z</time>
  <course>53.38</course>
  <speed>4.937580379092577</speed>
  <fix>3d</fix>
</trkpt>
<trkpt lat="-27.2722134" lon="151.2913431">
  <ele>373.98</ele>
  <time>2026-09-01T19:57:21Z</time>
  <course>54.94</course>
  <speed>4.95</speed>
  <fix>3d</fix>
</trkpt>
<trkpt lat="-27.2722037" lon="151.2913591">
  <ele>373.9</ele>
  <time>2026-09-01T19:57:21Z</time>
  <course>53.39</course>
  <speed>4.937580379092577</speed>
  <fix>3d</fix>
</trkpt>
<trkpt lat="-27.2722083" lon="151.2913512">
  <ele>373.97</ele>
  <time>2026-09-01T19:57:21Z</time>
  <course>54.98</course>
  <speed>4.96</speed>
  <fix>3d</fix>
</trkpt>
<trkpt lat="-27.2722011" lon="151.2913632">
  <ele>373.89</ele>
  <time>2026-09-01T19:57:21Z</time>
  <course>53.4</course>
  <speed>4.937580379092577</speed>
  <fix>3d</fix>
</trkpt>
<trkpt lat="-27.2722083" lon="151.2913512">
  <ele>373.97</ele>
  <time>2026-09-01T19:57:21Z</time>
  <course>54.98</course>
  <speed>4.96</speed>
  <fix>3d</fix>
</trkpt>
<trkpt lat="-27.2721985" lon="151.2913673">
  <ele>373.89</ele>
  <time>2026-09-01T19:57:21Z</time>
  <course>53.41</course>
  <speed>4.951494723818254</speed>
  <fix>3d</fix>
</trkpt>
<trkpt lat="-27.2722032" lon="151.2913595">
  <ele>373.96</ele>
  <time>2026-09-01T19:57:21Z</time>
  <course>55.01</course>
  <speed>4.96</speed>
  <fix>3d</fix>
</trkpt>
<trkpt lat="-27.272196" lon="151.2913715">
  <ele>373.88</ele>
  <time>2026-09-01T19:57:21Z</time>
  <course>53.43</course>
  <speed>4.951494723818254</speed>
  <fix>3d</fix>
</trkpt>
<trkpt lat="-27.2722032" lon="151.2913595">
  <ele>373.96</ele>
  <time>2026-09-01T19:57:21Z</time>
  <course>55.01</course>
  <speed>4.96</speed>
  <fix>3d</fix>
</trkpt>
<trkpt lat="-27.2721934" lon="151.2913756">
  <ele>373.88</ele>
  <time>2026-09-01T19:57:21Z</time>
  <course>53.44</course>
  <speed>4.951494723818254</speed>
  <fix>3d</fix>
</trkpt>
<trkpt lat="-27.2721981" lon="151.2913677">
  <ele>373.95</ele>
  <time>2026-09-01T19:57:21Z</time>
  <course>55.03</course>
  <speed>4.97</speed>
  <fix>3d</fix>
</trkpt>
<trkpt lat="-27.2721908" lon="151.2913798">
  <ele>373.87</ele>
  <time>2026-09-01T19:57:21Z</time>
  <course>53.45</course>
  <speed>4.951494723818254</speed>
  <fix>3d</fix>
</trkpt>
<trkpt lat="-27.2721981" lon="151.2913677">
  <ele>373.95</ele>
  <time>2026-09-01T19:57:21Z</time>
  <course>55.03</course>
  <speed>4.97</speed>
  <fix>3d</fix>
</trkpt>
<trkpt lat="-27.2721883" lon="151.2913839">
  <ele>373.87</ele>
  <time>2026-09-01T19:57:21Z</time>
  <course>53.46</course>
  <speed>4.959717733903815</speed>
  <fix>3d</fix>
</trkpt>
<trkpt lat="-27.272193" lon="151.291376">
  <ele>373.94</ele>
  <time>2026-09-01T19:57:21Z</time>
  <course>55.03</course>
  <speed>4.97</speed>
  <fix>3d</fix>
</trkpt>
<trkpt lat="-27.2721857" lon="151.291388">
  <ele>373.87</ele>
  <time>2026-09-01T19:57:21Z</time>
  <course>53.47</course>
  <speed>4.965410355650376</speed>
  <fix>3d</fix>
</trkpt>
<trkpt lat="-27.272193" lon="151.291376">
  <ele>373.94</ele>
  <time>2026-09-01T19:57:21Z</time>
  <course>55.03</course>
  <speed>4.97</speed>
  <fix>3d</fix>
</trkpt>
<trkpt lat="-27.2721831" lon="151.2913922">
  <ele>373.86</ele>
  <time>2026-09-01T19:57:21Z</time>
  <course>53.48</course>
  <speed>4.965410355650376</speed>
  <fix>3d</fix>
</trkpt>
<trkpt lat="-27.2721878" lon="151.2913842">
  <ele>373.94</ele>
  <time>2026-09-01T19:57:21Z</time>
  <course>55.03</course>
  <speed>4.98</speed>
  <fix>3d</fix>
</trkpt>
<trkpt lat="-27.2721806" lon="151.2913962">
  <ele>373.86</ele>
  <time>2026-09-01T19:57:21Z</time>
  <course>53.49</course>
  <speed>4.965410355650376</speed>
  <fix>3d</fix>
</trkpt>
<trkpt lat="-27.2721878" lon="151.2913842">
  <ele>373.94</ele>
  <time>2026-09-01T19:57:21Z</time>
  <course>55.03</course>
  <speed>4.98</speed>
  <fix>3d</fix>
</trkpt>
<trkpt lat="-27.2721779" lon="151.2914005">
  <ele>373.86</ele>
  <time>2026-09-01T19:57:21Z</time>
  <course>53.5</course>
  <speed>4.965410355650376</speed>
  <fix>3d</fix>
</trkpt>
<trkpt lat="-27.2721827" lon="151.2913925">
  <ele>373.93</ele>
  <time>2026-09-01T19:57:21Z</time>
  <course>55.01</course>
  <speed>4.99</speed>
  <fix>3d</fix>
</trkpt>
<trkpt lat="-27.2721754" lon="151.2914046">
  <ele>373.86</ele>
  <time>2026-09-01T19:57:21Z</time>
  <course>53.5</course>
  <speed>4.979327263797791</speed>
  <fix>3d</fix>
</trkpt>
<trkpt lat="-27.2721827" lon="151.2913925">
  <ele>373.93</ele>
  <time>2026-09-01T19:57:21Z</time>
  <course>55.01</course>
  <speed>4.99</speed>
  <fix>3d</fix>
</trkpt>
<trkpt lat="-27.2721728" lon="151.2914087">
  <ele>373.86</ele>
  <time>2026-09-01T19:57:21Z</time>
  <course>53.51</course>
  <speed>4.979327263797791</speed>
  <fix>3d</fix>
</trkpt>
<trkpt lat="-27.2721776" lon="151.2914008">
  <ele>373.92</ele>
  <time>2026-09-01T19:57:21Z</time>
  <course>54.98</course>
  <speed>4.99</speed>
  <fix>3d</fix>
</trkpt>
<trkpt lat="-27.2721702" lon="151.2914129">
  <ele>373.85</ele>
  <time>2026-09-01T19:57:21Z</time>
  <course>53.52</course>
  <speed>4.979327263797791</speed>
  <fix>3d</fix>
</trkpt>
<trkpt lat="-27.2721776" lon="151.2914008">
  <ele>373.92</ele>
  <time>2026-09-01T19:57:21Z</time>
  <course>54.98</course>
  <speed>4.99</speed>
  <fix>3d</fix>
</trkpt>
<trkpt lat="-27.2721676" lon="151.291417">
  <ele>373.85</ele>
  <time>2026-09-01T19:57:21Z</time>
  <course>53.52</course>
  <speed>4.979327263797791</speed>
  <fix>3d</fix>
</trkpt>
<trkpt lat="-27.2721724" lon="151.291409">
  <ele>373.91</ele>
  <time>2026-09-01T19:57:21Z</time>
  <course>54.94</course>
  <speed>4.99</speed>
  <fix>3d</fix>
</trkpt>
<trkpt lat="-27.272165" lon="151.2914212">
  <ele>373.85</ele>
  <time>2026-09-01T19:57:21Z</time>
  <course>53.52</course>
  <speed>4.985037612696618</speed>
  <fix>3d</fix>
</trkpt>
<trkpt lat="-27.2721724" lon="151.291409">
  <ele>373.91</ele>
  <time>2026-09-01T19:57:21Z</time>
  <course>54.94</course>
  <speed>4.99</speed>
  <fix>3d</fix>
</trkpt>
<trkpt lat="-27.2721625" lon="151.2914253">
  <ele>373.84</ele>
  <time>2026-09-01T19:57:21Z</time>
  <course>53.53</course>
  <speed>4.985037612696618</speed>
  <fix>3d</fix>
</trkpt>
<trkpt lat="-27.2721673" lon="151.2914173">
  <ele>373.9</ele>
  <time>2026-09-01T19:57:21Z</time>
  <course>54.9</course>
  <speed>5.0</speed>
  <fix>3d</fix>
</trkpt>
<trkpt lat="-27.2721599" lon="151.2914295">
  <ele>373.84</ele>
  <time>2026-09-01T19:57:21Z</time>
  <course>53.53</course>
  <speed>4.985037612696618</speed>
  <fix>3d</fix>
</trkpt>
<trkpt lat="-27.2721673" lon="151.2914173">
  <ele>373.9</ele>
  <time>2026-09-01T19:57:21Z</time>
  <course>54.9</course>
  <speed>5.0</speed>
  <fix>3d</fix>
</trkpt>
<trkpt lat="-27.2721573" lon="151.2914336">
  <ele>373.84</ele>
  <time>2026-09-01T19:57:21Z</time>
  <course>53.53</course>
  <speed>4.985037612696618</speed>
  <fix>3d</fix>
</trkpt>
<trkpt lat="-27.272162" lon="151.2914255">
  <ele>373.89</ele>
  <time>2026-09-01T19:57:21Z</time>
  <course>54.85</course>
  <speed>5.0</speed>
  <fix>3d</fix>
</trkpt>
<trkpt lat="-27.2721547" lon="151.2914377">
  <ele>373.83</ele>
  <time>2026-09-01T19:57:21Z</time>
  <course>53.54</course>
  <speed>4.990761464947008</speed>
  <fix>3d</fix>
</trkpt>
<trkpt lat="-27.272162" lon="151.2914255">
  <ele>373.89</ele>
  <time>2026-09-01T19:57:21Z</time>
  <course>54.85</course>
  <speed>5.0</speed>
  <fix>3d</fix>
</trkpt>
<trkpt lat="-27.2721521" lon="151.2914419">
  <ele>373.82</ele>
  <time>2026-09-01T19:57:21Z</time>
  <course>53.54</course>
  <speed>4.982569618178958</speed>
  <fix>3d</fix>
</trkpt>
<trkpt lat="-27.2721569" lon="151.2914338">
  <ele>373.88</ele>
  <time>2026-09-01T19:57:21Z</time>
  <course>54.8</course>
  <speed>5.0</speed>
  <fix>3d</fix>
</trkpt>
<trkpt lat="-27.2721495" lon="151.291446">
  <ele>373.82</ele>
  <time>2026-09-01T19:57:21Z</time>
  <course>53.54</course>
  <speed>4.982569618178958</speed>
  <fix>3d</fix>
</trkpt>
<trkpt lat="-27.2721569" lon="151.2914338">
  <ele>373.88</ele>
  <time>2026-09-01T19:57:21Z</time>
  <course>54.8</course>
  <speed>5.0</speed>
  <fix>3d</fix>
</trkpt>
<trkpt lat="-27.2721469" lon="151.2914501">
  <ele>373.81</ele>
  <time>2026-09-01T19:57:21Z</time>
  <course>53.55</course>
  <speed>4.982569618178958</speed>
  <fix>3d</fix>
</trkpt>
<trkpt lat="-27.2721517" lon="151.2914421">
  <ele>373.87</ele>
  <time>2026-09-01T19:57:21Z</time>
  <course>54.75</course>
  <speed>5.0</speed>
  <fix>3d</fix>
</trkpt>
<trkpt lat="-27.2721443" lon="151.2914543">
  <ele>373.8</ele>
  <time>2026-09-01T19:57:21Z</time>
  <course>53.55</course>
  <speed>4.98831634923047</speed>
  <fix>3d</fix>
</trkpt>
<trkpt lat="-27.2721517" lon="151.2914421">
  <ele>373.87</ele>
  <time>2026-09-01T19:57:21Z</time>
  <course>54.75</course>
  <speed>5.0</speed>
  <fix>3d</fix>
</trkpt>
<trkpt lat="-27.2721417" lon="151.2914584">
  <ele>373.79</ele>
  <time>2026-09-01T19:57:21Z</time>
  <course>53.55</course>
  <speed>4.98831634923047</speed>
  <fix>3d</fix>
</trkpt>
<trkpt lat="-27.2721465" lon="151.2914503">
  <ele>373.86</ele>
  <time>2026-09-01T19:57:21Z</time>
  <course>54.69</course>
  <speed>5.01</speed>
  <fix>3d</fix>
</trkpt>
<trkpt lat="-27.2721391" lon="151.2914625">
  <ele>373.78</ele>
  <time>2026-09-01T19:57:21Z</time>
  <course>53.55</course>
  <speed>4.98831634923047</speed>
  <fix>3d</fix>
</trkpt>
<trkpt lat="-27.2721465" lon="151.2914503">
  <ele>373.86</ele>
  <time>2026-09-01T19:57:21Z</time>
  <course>54.69</course>
  <speed>5.01</speed>
  <fix>3d</fix>
</trkpt>
<trkpt lat="-27.2721365" lon="151.2914666">
  <ele>373.77</ele>
  <time>2026-09-01T19:57:21Z</time>
  <course>53.55</course>
  <speed>4.98831634923047</speed>
  <fix>3d</fix>
</trkpt>
<trkpt lat="-27.2721413" lon="151.2914586">
  <ele>373.84</ele>
  <time>2026-09-01T19:57:21Z</time>
  <course>54.63</course>
  <speed>5.01</speed>
  <fix>3d</fix>
</trkpt>
<trkpt lat="-27.2721339" lon="151.2914708">
  <ele>373.77</ele>
  <time>2026-09-01T19:57:21Z</time>
  <course>53.55</course>
  <speed>4.98831634923047</speed>
  <fix>3d</fix>
</trkpt>
<trkpt lat="-27.2721413" lon="151.2914586">
  <ele>373.84</ele>
  <time>2026-09-01T19:57:21Z</time>
  <course>54.63</course>
  <speed>5.01</speed>
  <fix>3d</fix>
</trkpt>
<trkpt lat="-27.2721312" lon="151.2914749">
  <ele>373.76</ele>
  <time>2026-09-01T19:57:21Z</time>
  <course>53.55</course>
  <speed>4.994076491204354</speed>
  <fix>3d</fix>
</trkpt>
<trkpt lat="-27.2721361" lon="151.2914669">
  <ele>373.83</ele>
  <time>2026-09-01T19:57:21Z</time>
  <course>54.59</course>
  <speed>5.01</speed>
  <fix>3d</fix>
</trkpt>
<trkpt lat="-27.2721286" lon="151.291479">
  <ele>373.75</ele>
  <time>2026-09-01T19:57:21Z</time>
  <course>53.55</course>
  <speed>4.985910147605952</speed>
  <fix>3d</fix>
</trkpt>
<trkpt lat="-27.2721361" lon="151.2914669">
  <ele>373.83</ele>
  <time>2026-09-01T19:57:21Z</time>
  <course>54.59</course>
  <speed>5.01</speed>
  <fix>3d</fix>
</trkpt>
<trkpt lat="-27.272126" lon="151.2914831">
  <ele>373.75</ele>
  <time>2026-09-01T19:57:21Z</time>
  <course>53.55</course>
  <speed>4.985910147605952</speed>
  <fix>3d</fix>
</trkpt>
<trkpt lat="-27.2721309" lon="151.2914751">
  <ele>373.81</ele>
  <time>2026-09-01T19:57:21Z</time>
  <course>54.54</course>
  <speed>5.01</speed>
  <fix>3d</fix>
</trkpt>
<trkpt lat="-27.2721234" lon="151.2914873">
  <ele>373.74</ele>
  <time>2026-09-01T19:57:21Z</time>
  <course>53.56</course>
  <speed>4.985910147605952</speed>
  <fix>3d</fix>
</trkpt>
<trkpt lat="-27.2721309" lon="151.2914751">
  <ele>373.81</ele>
  <time>2026-09-01T19:57:21Z</time>
  <course>54.54</course>
  <speed>5.01</speed>
  <fix>3d</fix>
</trkpt>
<trkpt lat="-27.2721208" lon="151.2914914">
  <ele>373.73</ele>
  <time>2026-09-01T19:57:21Z</time>
  <course>53.56</course>
  <speed>4.985910147605952</speed>
  <fix>3d</fix>
</trkpt>
<trkpt lat="-27.2721256" lon="151.2914834">
  <ele>373.8</ele>
  <time>2026-09-01T19:57:21Z</time>
  <course>54.5</course>
  <speed>5.01</speed>
  <fix>3d</fix>
</trkpt>
<trkpt lat="-27.2721182" lon="151.2914955">
  <ele>373.72</ele>
  <time>2026-09-01T19:57:21Z</time>
  <course>53.56</course>
  <speed>4.985910147605952</speed>
  <fix>3d</fix>
</trkpt>
<trkpt lat="-27.2721256" lon="151.2914834">
  <ele>373.8</ele>
  <time>2026-09-01T19:57:21Z</time>
  <course>54.5</course>
  <speed>5.01</speed>
  <fix>3d</fix>
</trkpt>
<trkpt lat="-27.2721156" lon="151.2914996">
  <ele>373.72</ele>
  <time>2026-09-01T19:57:21Z</time>
  <course>53.57</course>
  <speed>4.985910147605952</speed>
  <fix>3d</fix>
</trkpt>
<trkpt lat="-27.2721204" lon="151.2914917">
  <ele>373.79</ele>
  <time>2026-09-01T19:57:21Z</time>
  <course>54.46</course>
  <speed>5.01</speed>
  <fix>3d</fix>
</trkpt>
<trkpt lat="-27.2721129" lon="151.2915038">
  <ele>373.71</ele>
  <time>2026-09-01T19:57:21Z</time>
  <course>53.57</course>
  <speed>4.985910147605952</speed>
  <fix>3d</fix>
</trkpt>
<trkpt lat="-27.2721204" lon="151.2914917">
  <ele>373.79</ele>
  <time>2026-09-01T19:57:21Z</time>
  <course>54.46</course>
  <speed>5.01</speed>
  <fix>3d</fix>
</trkpt>
<trkpt lat="-27.2721103" lon="151.2915078">
  <ele>373.71</ele>
  <time>2026-09-01T19:57:21Z</time>
  <course>53.58</course>
  <speed>4.977750495956984</speed>
  <fix>3d</fix>
</trkpt>
<trkpt lat="-27.2721152" lon="151.2914999">
  <ele>373.78</ele>
  <time>2026-09-01T19:57:21Z</time>
  <course>54.43</course>
  <speed>5.0</speed>
  <fix>3d</fix>
</trkpt>
<trkpt lat="-27.2721077" lon="151.291512">
  <ele>373.7</ele>
  <time>2026-09-01T19:57:21Z</time>
  <course>53.59</course>
  <speed>4.977750495956984</speed>
  <fix>3d</fix>
</trkpt>
<trkpt lat="-27.2721152" lon="151.2914999">
  <ele>373.78</ele>
  <time>2026-09-01T19:57:21Z</time>
  <course>54.43</course>
  <speed>5.0</speed>
  <fix>3d</fix>
</trkpt>
<trkpt lat="-27.2721051" lon="151.2915161">
  <ele>373.7</ele>
  <time>2026-09-01T19:57:21Z</time>
  <course>53.59</course>
  <speed>4.977750495956984</speed>
  <fix>3d</fix>
</trkpt>
<trkpt lat="-27.2721099" lon="151.2915081">
  <ele>373.77</ele>
  <time>2026-09-01T19:57:21Z</time>
  <course>54.4</course>
  <speed>5.0</speed>
  <fix>3d</fix>
</trkpt>
<trkpt lat="-27.2721024" lon="151.2915202">
  <ele>373.69</ele>
  <time>2026-09-01T19:57:21Z</time>
  <course>53.6</course>
  <speed>4.977750495956984</speed>
  <fix>3d</fix>
</trkpt>
<trkpt lat="-27.2721099" lon="151.2915081">
  <ele>373.77</ele>
  <time>2026-09-01T19:57:21Z</time>
  <course>54.4</course>
  <speed>5.0</speed>
  <fix>3d</fix>
</trkpt>
<trkpt lat="-27.2720998" lon="151.2915244">
  <ele>373.69</ele>
  <time>2026-09-01T19:57:21Z</time>
  <course>53.6</course>
  <speed>4.977750495956984</speed>
  <fix>3d</fix>
</trkpt>
<trkpt lat="-27.2721047" lon="151.2915163">
  <ele>373.76</ele>
  <time>2026-09-01T19:57:21Z</time>
  <course>54.36</course>
  <speed>5.0</speed>
  <fix>3d</fix>
</trkpt>
<trkpt lat="-27.2720972" lon="151.2915285">
  <ele>373.68</ele>
  <time>2026-09-01T19:57:21Z</time>
  <course>53.6</course>
  <speed>4.977750495956984</speed>
  <fix>3d</fix>
</trkpt>
<trkpt lat="-27.2721047" lon="151.2915163">
  <ele>373.76</ele>
  <time>2026-09-01T19:57:21Z</time>
  <course>54.36</course>
  <speed>5.0</speed>
  <fix>3d</fix>
</trkpt>
<trkpt lat="-27.2720946" lon="151.2915326">
  <ele>373.68</ele>
  <time>2026-09-01T19:57:21Z</time>
  <course>53.61</course>
  <speed>4.977750495956984</speed>
  <fix>3d</fix>
</trkpt>
<trkpt lat="-27.2720994" lon="151.2915246">
  <ele>373.76</ele>
  <time>2026-09-01T19:57:21Z</time>
  <course>54.34</course>
  <speed>5.0</speed>
  <fix>3d</fix>
</trkpt>
<trkpt lat="-27.2720919" lon="151.2915367">
  <ele>373.68</ele>
  <time>2026-09-01T19:57:21Z</time>
  <course>53.61</course>
  <speed>4.9695975692202685</speed>
  <fix>3d</fix>
</trkpt>
<trkpt lat="-27.2720994" lon="151.2915246">
  <ele>373.76</ele>
  <time>2026-09-01T19:57:21Z</time>
  <course>54.34</course>
  <speed>5.0</speed>
  <fix>3d</fix>
</trkpt>
<trkpt lat="-27.2720893" lon="151.2915408">
  <ele>373.67</ele>
  <time>2026-09-01T19:57:21Z</time>
  <course>53.61</course>
  <speed>4.9695975692202685</speed>
  <fix>3d</fix>
</trkpt>
<trkpt lat="-27.2720942" lon="151.2915327">
  <ele>373.75</ele>
  <time>2026-09-01T19:57:21Z</time>
  <course>54.33</course>
  <speed>5.0</speed>
  <fix>3d</fix>
</trkpt>
<trkpt lat="-27.2720867" lon="151.2915449">
  <ele>373.67</ele>
  <time>2026-09-01T19:57:21Z</time>
  <course>53.61</course>
  <speed>4.9695975692202685</speed>
  <fix>3d</fix>
</trkpt>
<trkpt lat="-27.2720942" lon="151.2915327">
  <ele>373.75</ele>
  <time>2026-09-01T19:57:21Z</time>
  <course>54.33</course>
  <speed>5.0</speed>
  <fix>3d</fix>
</trkpt>
<trkpt lat="-27.2720841" lon="151.291549">
  <ele>373.66</ele>
  <time>2026-09-01T19:57:21Z</time>
  <course>53.62</course>
  <speed>4.9695975692202685</speed>
  <fix>3d</fix>
</trkpt>
<trkpt lat="-27.272089" lon="151.291541">
  <ele>373.74</ele>
  <time>2026-09-01T19:57:21Z</time>
  <course>54.32</course>
  <speed>5.0</speed>
  <fix>3d</fix>
</trkpt>
<trkpt lat="-27.2720814" lon="151.2915531">
  <ele>373.66</ele>
  <time>2026-09-01T19:57:21Z</time>
  <course>53.62</course>
  <speed>4.9695975692202685</speed>
  <fix>3d</fix>
</trkpt>
<trkpt lat="-27.272089" lon="151.291541">
  <ele>373.74</ele>
  <time>2026-09-01T19:57:21Z</time>
  <course>54.32</course>
  <speed>5.0</speed>
  <fix>3d</fix>
</trkpt>
<trkpt lat="-27.2720788" lon="151.2915572">
  <ele>373.65</ele>
  <time>2026-09-01T19:57:21Z</time>
  <course>53.63</course>
  <speed>4.9695975692202685</speed>
  <fix>3d</fix>
</trkpt>
<trkpt lat="-27.2720838" lon="151.2915492">
  <ele>373.73</ele>
  <time>2026-09-01T19:57:21Z</time>
  <course>54.31</course>
  <speed>4.99</speed>
  <fix>3d</fix>
</trkpt>
<trkpt lat="-27.2720762" lon="151.2915613">
  <ele>373.65</ele>
  <time>2026-09-01T19:57:21Z</time>
  <course>53.64</course>
  <speed>4.9695975692202685</speed>
  <fix>3d</fix>
</trkpt>
<trkpt lat="-27.2720838" lon="151.2915492">
  <ele>373.73</ele>
  <time>2026-09-01T19:57:21Z</time>
  <course>54.31</course>
  <speed>4.99</speed>
  <fix>3d</fix>
</trkpt>
<trkpt lat="-27.2720736" lon="151.2915654">
  <ele>373.64</ele>
  <time>2026-09-01T19:57:21Z</time>
  <course>53.64</course>
  <speed>4.9695975692202685</speed>
  <fix>3d</fix>
</trkpt>
<trkpt lat="-27.2720785" lon="151.2915574">
  <ele>373.72</ele>
  <time>2026-09-01T19:57:21Z</time>
  <course>54.31</course>
  <speed>4.99</speed>
  <fix>3d</fix>
</trkpt>
<trkpt lat="-27.272071" lon="151.2915695">
  <ele>373.64</ele>
  <time>2026-09-01T19:57:21Z</time>
  <course>53.65</course>
  <speed>4.9695975692202685</speed>
  <fix>3d</fix>
</trkpt>
<trkpt lat="-27.2720785" lon="151.2915574">
  <ele>373.72</ele>
  <time>2026-09-01T19:57:21Z</time>
  <course>54.31</course>
  <speed>4.99</speed>
  <fix>3d</fix>
</trkpt>
<trkpt lat="-27.2720684" lon="151.2915736">
  <ele>373.63</ele>
  <time>2026-09-01T19:57:21Z</time>
  <course>53.66</course>
  <speed>4.9695975692202685</speed>
  <fix>3d</fix>
</trkpt>
<trkpt lat="-27.2720733" lon="151.2915656">
  <ele>373.71</ele>
  <time>2026-09-01T19:57:21Z</time>
  <course>54.3</course>
  <speed>4.99</speed>
  <fix>3d</fix>
</trkpt>
<trkpt lat="-27.2720657" lon="151.2915777">
  <ele>373.63</ele>
  <time>2026-09-01T19:57:21Z</time>
  <course>53.67</course>
  <speed>4.9695975692202685</speed>
  <fix>3d</fix>
</trkpt>
<trkpt lat="-27.2720733" lon="151.2915656">
  <ele>373.71</ele>
  <time>2026-09-01T19:57:21Z</time>
  <course>54.3</course>
  <speed>4.99</speed>
  <fix>3d</fix>
</trkpt>
<trkpt lat="-27.2720631" lon="151.2915818">
  <ele>373.62</ele>
  <time>2026-09-01T19:57:21Z</time>
  <course>53.68</course>
  <speed>4.96145140054803</speed>
  <fix>3d</fix>
</trkpt>
<trkpt lat="-27.272068" lon="151.2915738">
  <ele>373.7</ele>
  <time>2026-09-01T19:57:21Z</time>
  <course>54.3</course>
  <speed>4.99</speed>
  <fix>3d</fix>
</trkpt>
<trkpt lat="-27.2720605" lon="151.2915859">
  <ele>373.61</ele>
  <time>2026-09-01T19:57:21Z</time>
  <course>53.68</course>
  <speed>4.96145140054803</speed>
  <fix>3d</fix>
</trkpt>
<trkpt lat="-27.272068" lon="151.2915738">
  <ele>373.7</ele>
  <time>2026-09-01T19:57:21Z</time>
  <course>54.3</course>
  <speed>4.99</speed>
  <fix>3d</fix>
</trkpt>
<trkpt lat="-27.2720579" lon="151.29159">
  <ele>373.61</ele>
  <time>2026-09-01T19:57:21Z</time>
  <course>53.69</course>
  <speed>4.96145140054803</speed>
  <fix>3d</fix>
</trkpt>
<trkpt lat="-27.2720628" lon="151.291582">
  <ele>373.69</ele>
  <time>2026-09-01T19:57:21Z</time>
  <course>54.31</course>
  <speed>4.99</speed>
  <fix>3d</fix>
</trkpt>
<trkpt lat="-27.2720554" lon="151.291594">
  <ele>373.6</ele>
  <time>2026-09-01T19:57:21Z</time>
  <course>53.69</course>
  <speed>4.955653337351191</speed>
  <fix>3d</fix>
</trkpt>
<trkpt lat="-27.2720628" lon="151.291582">
  <ele>373.69</ele>
  <time>2026-09-01T19:57:21Z</time>
  <course>54.31</course>
  <speed>4.99</speed>
  <fix>3d</fix>
</trkpt>
<trkpt lat="-27.2720528" lon="151.2915981">
  <ele>373.6</ele>
  <time>2026-09-01T19:57:21Z</time>
  <course>53.7</course>
  <speed>4.955653337351191</speed>
  <fix>3d</fix>
</trkpt>
<trkpt lat="-27.2720575" lon="151.2915901">
  <ele>373.68</ele>
  <time>2026-09-01T19:57:21Z</time>
  <course>54.31</course>
  <speed>4.98</speed>
  <fix>3d</fix>
</trkpt>
<trkpt lat="-27.2720502" lon="151.2916021">
  <ele>373.59</ele>
  <time>2026-09-01T19:57:21Z</time>
  <course>53.71</course>
  <speed>4.955653337351191</speed>
  <fix>3d</fix>
</trkpt>
<trkpt lat="-27.2720575" lon="151.2915901">
  <ele>373.68</ele>
  <time>2026-09-01T19:57:21Z</time>
  <course>54.31</course>
  <speed>4.98</speed>
  <fix>3d</fix>
</trkpt>
<trkpt lat="-27.2720476" lon="151.2916062">
  <ele>373.59</ele>
  <time>2026-09-01T19:57:21Z</time>
  <course>53.72</course>
  <speed>4.955653337351191</speed>
  <fix>3d</fix>
</trkpt>
<trkpt lat="-27.2720524" lon="151.2915984">
  <ele>373.67</ele>
  <time>2026-09-01T19:57:21Z</time>
  <course>54.32</course>
  <speed>4.98</speed>
  <fix>3d</fix>
</trkpt>
<trkpt lat="-27.272045" lon="151.2916103">
  <ele>373.58</ele>
  <time>2026-09-01T19:57:21Z</time>
  <course>53.73</course>
  <speed>4.955653337351191</speed>
  <fix>3d</fix>
</trkpt>
<trkpt lat="-27.2720524" lon="151.2915984">
  <ele>373.67</ele>
  <time>2026-09-01T19:57:21Z</time>
  <course>54.32</course>
  <speed>4.98</speed>
  <fix>3d</fix>
</trkpt>
<trkpt lat="-27.2720423" lon="151.2916144">
  <ele>373.58</ele>
  <time>2026-09-01T19:57:21Z</time>
  <course>53.73</course>
  <speed>4.955653337351191</speed>
  <fix>3d</fix>
</trkpt>
<trkpt lat="-27.2720471" lon="151.2916066">
  <ele>373.66</ele>
  <time>2026-09-01T19:57:21Z</time>
  <course>54.34</course>
  <speed>4.98</speed>
  <fix>3d</fix>
</trkpt>
<trkpt lat="-27.2720398" lon="151.2916185">
  <ele>373.58</ele>
  <time>2026-09-01T19:57:21Z</time>
  <course>53.74</course>
  <speed>4.955653337351191</speed>
  <fix>3d</fix>
</trkpt>
<trkpt lat="-27.2720471" lon="151.2916066">
  <ele>373.66</ele>
  <time>2026-09-01T19:57:21Z</time>
  <course>54.34</course>
  <speed>4.98</speed>
  <fix>3d</fix>
</trkpt>
<trkpt lat="-27.2720371" lon="151.2916226">
  <ele>373.57</ele>
  <time>2026-09-01T19:57:21Z</time>
  <course>53.74</course>
  <speed>4.955653337351191</speed>
  <fix>3d</fix>
</trkpt>
<trkpt lat="-27.2720419" lon="151.2916148">
  <ele>373.65</ele>
  <time>2026-09-01T19:57:21Z</time>
  <course>54.35</course>
  <speed>4.99</speed>
  <fix>3d</fix>
</trkpt>
<trkpt lat="-27.2720345" lon="151.2916267">
  <ele>373.57</ele>
  <time>2026-09-01T19:57:21Z</time>
  <course>53.75</course>
  <speed>4.955653337351191</speed>
  <fix>3d</fix>
</trkpt>
<trkpt lat="-27.2720419" lon="151.2916148">
  <ele>373.65</ele>
  <time>2026-09-01T19:57:21Z</time>
  <course>54.35</course>
  <speed>4.99</speed>
  <fix>3d</fix>
</trkpt>
<trkpt lat="-27.2720319" lon="151.2916308">
  <ele>373.56</ele>
  <time>2026-09-01T19:57:21Z</time>
  <course>53.76</course>
  <speed>4.955653337351191</speed>
  <fix>3d</fix>
</trkpt>
<trkpt lat="-27.2720367" lon="151.291623">
  <ele>373.64</ele>
  <time>2026-09-01T19:57:21Z</time>
  <course>54.36</course>
  <speed>4.99</speed>
  <fix>3d</fix>
</trkpt>
<trkpt lat="-27.2720293" lon="151.2916348">
  <ele>373.56</ele>
  <time>2026-09-01T19:57:21Z</time>
  <course>53.77</course>
  <speed>4.955653337351191</speed>
  <fix>3d</fix>
</trkpt>
<trkpt lat="-27.2720367" lon="151.291623">
  <ele>373.64</ele>
  <time>2026-09-01T19:57:21Z</time>
  <course>54.36</course>
  <speed>4.99</speed>
  <fix>3d</fix>
</trkpt>
<trkpt lat="-27.2720267" lon="151.2916389">
  <ele>373.55</ele>
  <time>2026-09-01T19:57:21Z</time>
  <course>53.78</course>
  <speed>4.955653337351191</speed>
  <fix>3d</fix>
</trkpt>
<trkpt lat="-27.2720315" lon="151.2916311">
  <ele>373.63</ele>
  <time>2026-09-01T19:57:21Z</time>
  <course>54.37</course>
  <speed>4.99</speed>
  <fix>3d</fix>
</trkpt>
<trkpt lat="-27.2720241" lon="151.291643">
  <ele>373.54</ele>
  <time>2026-09-01T19:57:21Z</time>
  <course>53.79</course>
  <speed>4.963809021306118</speed>
  <fix>3d</fix>
</trkpt>
<trkpt lat="-27.2720315" lon="151.2916311">
  <ele>373.63</ele>
  <time>2026-09-01T19:57:21Z</time>
  <course>54.37</course>
  <speed>4.99</speed>
  <fix>3d</fix>
</trkpt>
<trkpt lat="-27.2720215" lon="151.2916471">
  <ele>373.53</ele>
  <time>2026-09-01T19:57:21Z</time>
  <course>53.8</course>
  <speed>4.963809021306118</speed>
  <fix>3d</fix>
</trkpt>
<trkpt lat="-27.2720262" lon="151.2916394">
  <ele>373.62</ele>
  <time>2026-09-01T19:57:21Z</time>
  <course>54.39</course>
  <speed>4.99</speed>
  <fix>3d</fix>
</trkpt>
<trkpt lat="-27.2720189" lon="151.2916512">
  <ele>373.53</ele>
  <time>2026-09-01T19:57:21Z</time>
  <course>53.8</course>
  <speed>4.963809021306118</speed>
  <fix>3d</fix>
</trkpt>
<trkpt lat="-27.2720262" lon="151.2916394">
  <ele>373.62</ele>
  <time>2026-09-01T19:57:21Z</time>
  <course>54.39</course>
  <speed>4.99</speed>
  <fix>3d</fix>
</trkpt>
<trkpt lat="-27.2720163" lon="151.2916553">
  <ele>373.52</ele>
  <time>2026-09-01T19:57:21Z</time>
  <course>53.8</course>
  <speed>4.963809021306118</speed>
  <fix>3d</fix>
</trkpt>
<trkpt lat="-27.272021" lon="151.2916476">
  <ele>373.61</ele>
  <time>2026-09-01T19:57:21Z</time>
  <course>54.41</course>
  <speed>5.0</speed>
  <fix>3d</fix>
</trkpt>
<trkpt lat="-27.2720137" lon="151.2916594">
  <ele>373.51</ele>
  <time>2026-09-01T19:57:21Z</time>
  <course>53.81</course>
  <speed>4.963809021306118</speed>
  <fix>3d</fix>
</trkpt>
<trkpt lat="-27.272021" lon="151.2916476">
  <ele>373.61</ele>
  <time>2026-09-01T19:57:21Z</time>
  <course>54.41</course>
  <speed>5.0</speed>
  <fix>3d</fix>
</trkpt>
<trkpt lat="-27.2720111" lon="151.2916635">
  <ele>373.51</ele>
  <time>2026-09-01T19:57:22Z</time>
  <course>53.82</course>
  <speed>4.963809021306118</speed>
  <fix>3d</fix>
</trkpt>
<trkpt lat="-27.2720158" lon="151.2916559">
  <ele>373.6</ele>
  <time>2026-09-01T19:57:22Z</time>
  <course>54.42</course>
  <speed>5.0</speed>
  <fix>3d</fix>
</trkpt>
<trkpt lat="-27.2720085" lon="151.2916676">
  <ele>373.5</ele>
  <time>2026-09-01T19:57:22Z</time>
  <course>53.82</course>
  <speed>4.963809021306118</speed>
  <fix>3d</fix>
</trkpt>
<trkpt lat="-27.2720158" lon="151.2916559">
  <ele>373.6</ele>
  <time>2026-09-01T19:57:22Z</time>
  <course>54.42</course>
  <speed>5.0</speed>
  <fix>3d</fix>
</trkpt>
<trkpt lat="-27.2720059" lon="151.2916717">
  <ele>373.5</ele>
  <time>2026-09-01T19:57:22Z</time>
  <course>53.82</course>
  <speed>4.971971439982333</speed>
  <fix>3d</fix>
</trkpt>
<trkpt lat="-27.2720105" lon="151.2916641">
  <ele>373.59</ele>
  <time>2026-09-01T19:57:22Z</time>
  <course>54.44</course>
  <speed>5.0</speed>
  <fix>3d</fix>
</trkpt>
<trkpt lat="-27.2720033" lon="151.2916759">
  <ele>373.5</ele>
  <time>2026-09-01T19:57:22Z</time>
  <course>53.83</course>
  <speed>4.971971439982333</speed>
  <fix>3d</fix>
</trkpt>
<trkpt lat="-27.2720105" lon="151.2916641">
  <ele>373.59</ele>
  <time>2026-09-01T19:57:22Z</time>
  <course>54.44</course>
  <speed>5.0</speed>
  <fix>3d</fix>
</trkpt>
<trkpt lat="-27.2720007" lon="151.29168">
  <ele>373.49</ele>
  <time>2026-09-01T19:57:22Z</time>
  <course>53.83</course>
  <speed>4.971971439982333</speed>
  <fix>3d</fix>
</trkpt>
<trkpt lat="-27.2720052" lon="151.2916723">
  <ele>373.58</ele>
  <time>2026-09-01T19:57:22Z</time>
  <course>54.44</course>
  <speed>5.01</speed>
  <fix>3d</fix>
</trkpt>
<trkpt lat="-27.271998" lon="151.2916841">
  <ele>373.49</ele>
  <time>2026-09-01T19:57:22Z</time>
  <course>53.84</course>
  <speed>4.971971439982333</speed>
  <fix>3d</fix>
</trkpt>
<trkpt lat="-27.2720052" lon="151.2916723">
  <ele>373.58</ele>
  <time>2026-09-01T19:57:22Z</time>
  <course>54.44</course>
  <speed>5.01</speed>
  <fix>3d</fix>
</trkpt>
<trkpt lat="-27.2719954" lon="151.2916882">
  <ele>373.48</ele>
  <time>2026-09-01T19:57:22Z</time>
  <course>53.85</course>
  <speed>4.971971439982333</speed>
  <fix>3d</fix>
</trkpt>
<trkpt lat="-27.2720001" lon="151.2916806">
  <ele>373.57</ele>
  <time>2026-09-01T19:57:22Z</time>
  <course>54.45</course>
  <speed>5.01</speed>
  <fix>3d</fix>
</trkpt>
<trkpt lat="-27.2719928" lon="151.2916923">
  <ele>373.48</ele>
  <time>2026-09-01T19:57:22Z</time>
  <course>53.86</course>
  <speed>4.971971439982333</speed>
  <fix>3d</fix>
</trkpt>
<trkpt lat="-27.2720001" lon="151.2916806">
  <ele>373.57</ele>
  <time>2026-09-01T19:57:22Z</time>
  <course>54.45</course>
  <speed>5.01</speed>
  <fix>3d</fix>
</trkpt>
<trkpt lat="-27.2719902" lon="151.2916965">
  <ele>373.48</ele>
  <time>2026-09-01T19:57:22Z</time>
  <course>53.87</course>
  <speed>4.971971439982333</speed>
  <fix>3d</fix>
</trkpt>
<trkpt lat="-27.2719948" lon="151.2916887">
  <ele>373.56</ele>
  <time>2026-09-01T19:57:22Z</time>
  <course>54.46</course>
  <speed>5.01</speed>
  <fix>3d</fix>
</trkpt>
<trkpt lat="-27.2719875" lon="151.2917006">
  <ele>373.47</ele>
  <time>2026-09-01T19:57:22Z</time>
  <course>53.87</course>
  <speed>4.971971439982333</speed>
  <fix>3d</fix>
</trkpt>
<trkpt lat="-27.2719948" lon="151.2916887">
  <ele>373.56</ele>
  <time>2026-09-01T19:57:22Z</time>
  <course>54.46</course>
  <speed>5.01</speed>
  <fix>3d</fix>
</trkpt>
<trkpt lat="-27.2719849" lon="151.2917048">
  <ele>373.47</ele>
  <time>2026-09-01T19:57:22Z</time>
  <course>53.88</course>
  <speed>4.980140560265343</speed>
  <fix>3d</fix>
</trkpt>
<trkpt lat="-27.2719896" lon="151.291697">
  <ele>373.55</ele>
  <time>2026-09-01T19:57:22Z</time>
  <course>54.48</course>
  <speed>5.01</speed>
  <fix>3d</fix>
</trkpt>
<trkpt lat="-27.2719823" lon="151.2917089">
  <ele>373.47</ele>
  <time>2026-09-01T19:57:22Z</time>
  <course>53.89</course>
  <speed>4.980140560265343</speed>
  <fix>3d</fix>
</trkpt>
<trkpt lat="-27.2719896" lon="151.291697">
  <ele>373.55</ele>
  <time>2026-09-01T19:57:22Z</time>
  <course>54.48</course>
  <speed>5.01</speed>
  <fix>3d</fix>
</trkpt>
<trkpt lat="-27.2719797" lon="151.291713">
  <ele>373.46</ele>
  <time>2026-09-01T19:57:22Z</time>
  <course>53.9</course>
  <speed>4.980140560265343</speed>
  <fix>3d</fix>
</trkpt>
<trkpt lat="-27.2719844" lon="151.2917053">
  <ele>373.55</ele>
  <time>2026-09-01T19:57:22Z</time>
  <course>54.49</course>
  <speed>5.01</speed>
  <fix>3d</fix>
</trkpt>
<trkpt lat="-27.2719771" lon="151.2917172">
  <ele>373.46</ele>
  <time>2026-09-01T19:57:22Z</time>
  <course>53.9</course>
  <speed>4.980140560265343</speed>
  <fix>3d</fix>
</trkpt>
<trkpt lat="-27.2719844" lon="151.2917053">
  <ele>373.55</ele>
  <time>2026-09-01T19:57:22Z</time>
  <course>54.49</course>
  <speed>5.01</speed>
  <fix>3d</fix>
</trkpt>
<trkpt lat="-27.2719744" lon="151.2917213">
  <ele>373.45</ele>
  <time>2026-09-01T19:57:22Z</time>
  <course>53.91</course>
  <speed>4.980140560265343</speed>
  <fix>3d</fix>
</trkpt>
<trkpt lat="-27.2719791" lon="151.2917135">
  <ele>373.54</ele>
  <time>2026-09-01T19:57:22Z</time>
  <course>54.51</course>
  <speed>5.01</speed>
  <fix>3d</fix>
</trkpt>
<trkpt lat="-27.2719718" lon="151.2917254">
  <ele>373.44</ele>
  <time>2026-09-01T19:57:22Z</time>
  <course>53.92</course>
  <speed>4.980140560265343</speed>
  <fix>3d</fix>
</trkpt>
<trkpt lat="-27.2719791" lon="151.2917135">
  <ele>373.54</ele>
  <time>2026-09-01T19:57:22Z</time>
  <course>54.51</course>
  <speed>5.01</speed>
  <fix>3d</fix>
</trkpt>
<trkpt lat="-27.2719692" lon="151.2917295">
  <ele>373.44</ele>
  <time>2026-09-01T19:57:22Z</time>
  <course>53.92</course>
  <speed>4.980140560265343</speed>
  <fix>3d</fix>
</trkpt>
<trkpt lat="-27.2719739" lon="151.2917218">
  <ele>373.53</ele>
  <time>2026-09-01T19:57:22Z</time>
  <course>54.52</course>
  <speed>5.01</speed>
  <fix>3d</fix>
</trkpt>
<trkpt lat="-27.2719666" lon="151.2917337">
  <ele>373.43</ele>
  <time>2026-09-01T19:57:22Z</time>
  <course>53.93</course>
  <speed>4.980140560265343</speed>
  <fix>3d</fix>
</trkpt>
<trkpt lat="-27.2719739" lon="151.2917218">
  <ele>373.53</ele>
  <time>2026-09-01T19:57:22Z</time>
  <course>54.52</course>
  <speed>5.01</speed>
  <fix>3d</fix>
</trkpt>
<trkpt lat="-27.2719639" lon="151.2917378">
  <ele>373.42</ele>
  <time>2026-09-01T19:57:22Z</time>
  <course>53.93</course>
  <speed>4.980140560265343</speed>
  <fix>3d</fix>
</trkpt>
<trkpt lat="-27.2719687" lon="151.2917301">
  <ele>373.52</ele>
  <time>2026-09-01T19:57:22Z</time>
  <course>54.53</course>
  <speed>5.01</speed>
  <fix>3d</fix>
</trkpt>
<trkpt lat="-27.2719613" lon="151.291742">
  <ele>373.41</ele>
  <time>2026-09-01T19:57:22Z</time>
  <course>53.94</course>
  <speed>4.980140560265343</speed>
  <fix>3d</fix>
</trkpt>
<trkpt lat="-27.2719687" lon="151.2917301">
  <ele>373.52</ele>
  <time>2026-09-01T19:57:22Z</time>
  <course>54.53</course>
  <speed>5.01</speed>
  <fix>3d</fix>
</trkpt>
<trkpt lat="-27.2719587" lon="151.2917461">
  <ele>373.41</ele>
  <time>2026-09-01T19:57:22Z</time>
  <course>53.94</course>
  <speed>4.980140560265343</speed>
  <fix>3d</fix>
</trkpt>
<trkpt lat="-27.2719634" lon="151.2917383">
  <ele>373.5</ele>
  <time>2026-09-01T19:57:22Z</time>
  <course>54.53</course>
  <speed>5.01</speed>
  <fix>3d</fix>
</trkpt>
<trkpt lat="-27.2719561" lon="151.2917502">
  <ele>373.4</ele>
  <time>2026-09-01T19:57:22Z</time>
  <course>53.94</course>
  <speed>4.980140560265343</speed>
  <fix>3d</fix>
</trkpt>
<trkpt lat="-27.2719634" lon="151.2917383">
  <ele>373.5</ele>
  <time>2026-09-01T19:57:22Z</time>
  <course>54.53</course>
  <speed>5.01</speed>
  <fix>3d</fix>
</trkpt>
<trkpt lat="-27.2719535" lon="151.2917544">
  <ele>373.39</ele>
  <time>2026-09-01T19:57:22Z</time>
  <course>53.95</course>
  <speed>4.980140560265343</speed>
  <fix>3d</fix>
</trkpt>
<trkpt lat="-27.2719582" lon="151.2917466">
  <ele>373.49</ele>
  <time>2026-09-01T19:57:22Z</time>
  <course>54.54</course>
  <speed>5.01</speed>
  <fix>3d</fix>
</trkpt>
<trkpt lat="-27.2719509" lon="151.2917585">
  <ele>373.39</ele>
  <time>2026-09-01T19:57:22Z</time>
  <course>53.95</course>
  <speed>4.980140560265343</speed>
  <fix>3d</fix>
</trkpt>
<trkpt lat="-27.2719582" lon="151.2917466">
  <ele>373.49</ele>
  <time>2026-09-01T19:57:22Z</time>
  <course>54.54</course>
  <speed>5.01</speed>
  <fix>3d</fix>
</trkpt>
<trkpt lat="-27.2719482" lon="151.2917627">
  <ele>373.39</ele>
  <time>2026-09-01T19:57:22Z</time>
  <course>53.96</course>
  <speed>4.980140560265343</speed>
  <fix>3d</fix>
</trkpt>
<trkpt lat="-27.2719529" lon="151.2917549">
  <ele>373.48</ele>
  <time>2026-09-01T19:57:22Z</time>
  <course>54.54</course>
  <speed>5.01</speed>
  <fix>3d</fix>
</trkpt>
<trkpt lat="-27.2719456" lon="151.2917668">
  <ele>373.38</ele>
  <time>2026-09-01T19:57:22Z</time>
  <course>53.97</course>
  <speed>4.980140560265343</speed>
  <fix>3d</fix>
</trkpt>
<trkpt lat="-27.2719529" lon="151.2917549">
  <ele>373.48</ele>
  <time>2026-09-01T19:57:22Z</time>
  <course>54.54</course>
  <speed>5.01</speed>
  <fix>3d</fix>
</trkpt>
<trkpt lat="-27.271943" lon="151.2917709">
  <ele>373.38</ele>
  <time>2026-09-01T19:57:22Z</time>
  <course>53.97</course>
  <speed>4.971971439982333</speed>
  <fix>3d</fix>
</trkpt>
<trkpt lat="-27.2719478" lon="151.291763">
  <ele>373.48</ele>
  <time>2026-09-01T19:57:22Z</time>
  <course>54.55</course>
  <speed>5.0</speed>
  <fix>3d</fix>
</trkpt>
<trkpt lat="-27.2719404" lon="151.291775">
  <ele>373.38</ele>
  <time>2026-09-01T19:57:22Z</time>
  <course>53.98</course>
  <speed>4.971971439982333</speed>
  <fix>3d</fix>
</trkpt>
<trkpt lat="-27.2719478" lon="151.291763">
  <ele>373.48</ele>
  <time>2026-09-01T19:57:22Z</time>
  <course>54.55</course>
  <speed>5.0</speed>
  <fix>3d</fix>
</trkpt>
<trkpt lat="-27.2719378" lon="151.2917791">
  <ele>373.37</ele>
  <time>2026-09-01T19:57:22Z</time>
  <course>53.98</course>
  <speed>4.971971439982333</speed>
  <fix>3d</fix>
</trkpt>
<trkpt lat="-27.2719425" lon="151.2917713">
  <ele>373.47</ele>
  <time>2026-09-01T19:57:22Z</time>
  <course>54.55</course>
  <speed>5.0</speed>
  <fix>3d</fix>
</trkpt>
<trkpt lat="-27.2719352" lon="151.2917833">
  <ele>373.37</ele>
  <time>2026-09-01T19:57:22Z</time>
  <course>53.98</course>
  <speed>4.971971439982333</speed>
  <fix>3d</fix>
</trkpt>
<trkpt lat="-27.2719425" lon="151.2917713">
  <ele>373.47</ele>
  <time>2026-09-01T19:57:22Z</time>
  <course>54.55</course>
  <speed>5.0</speed>
  <fix>3d</fix>
</trkpt>
<trkpt lat="-27.2719326" lon="151.2917874">
  <ele>373.36</ele>
  <time>2026-09-01T19:57:22Z</time>
  <course>53.99</course>
  <speed>4.971971439982333</speed>
  <fix>3d</fix>
</trkpt>
<trkpt lat="-27.2719374" lon="151.2917795">
  <ele>373.46</ele>
  <time>2026-09-01T19:57:22Z</time>
  <course>54.55</course>
  <speed>5.0</speed>
  <fix>3d</fix>
</trkpt>
<trkpt lat="-27.27193" lon="151.2917915">
  <ele>373.36</ele>
  <time>2026-09-01T19:57:22Z</time>
  <course>53.99</course>
  <speed>4.966205795172004</speed>
  <fix>3d</fix>
</trkpt>
<trkpt lat="-27.2719374" lon="151.2917795">
  <ele>373.46</ele>
  <time>2026-09-01T19:57:22Z</time>
  <course>54.55</course>
  <speed>5.0</speed>
  <fix>3d</fix>
</trkpt>
<trkpt lat="-27.2719273" lon="151.2917957">
  <ele>373.35</ele>
  <time>2026-09-01T19:57:22Z</time>
  <course>53.99</course>
  <speed>4.966205795172004</speed>
  <fix>3d</fix>
</trkpt>
<trkpt lat="-27.2719321" lon="151.2917878">
  <ele>373.45</ele>
  <time>2026-09-01T19:57:22Z</time>
  <course>54.54</course>
  <speed>4.99</speed>
  <fix>3d</fix>
</trkpt>
<trkpt lat="-27.2719247" lon="151.2917998">
  <ele>373.35</ele>
  <time>2026-09-01T19:57:22Z</time>
  <course>53.99</course>
  <speed>4.966205795172004</speed>
  <fix>3d</fix>
</trkpt>
<trkpt lat="-27.2719321" lon="151.2917878">
  <ele>373.45</ele>
  <time>2026-09-01T19:57:22Z</time>
  <course>54.54</course>
  <speed>4.99</speed>
  <fix>3d</fix>
</trkpt>
<trkpt lat="-27.2719221" lon="151.2918039">
  <ele>373.34</ele>
  <time>2026-09-01T19:57:22Z</time>
  <course>53.99</course>
  <speed>4.95803388451511</speed>
  <fix>3d</fix>
</trkpt>
<trkpt lat="-27.2719268" lon="151.291796">
  <ele>373.44</ele>
  <time>2026-09-01T19:57:22Z</time>
  <course>54.54</course>
  <speed>4.99</speed>
  <fix>3d</fix>
</trkpt>
<trkpt lat="-27.2719195" lon="151.291808">
  <ele>373.34</ele>
  <time>2026-09-01T19:57:22Z</time>
  <course>53.99</course>
  <speed>4.95803388451511</speed>
  <fix>3d</fix>
</trkpt>
<trkpt lat="-27.2719268" lon="151.291796">
  <ele>373.44</ele>
  <time>2026-09-01T19:57:22Z</time>
  <course>54.54</course>
  <speed>4.99</speed>
  <fix>3d</fix>
</trkpt>
<trkpt lat="-27.2719169" lon="151.2918122">
  <ele>373.33</ele>
  <time>2026-09-01T19:57:22Z</time>
  <course>53.99</course>
  <speed>4.95803388451511</speed>
  <fix>3d</fix>
</trkpt>
<trkpt lat="-27.2719217" lon="151.2918042">
  <ele>373.43</ele>
  <time>2026-09-01T19:57:22Z</time>
  <course>54.54</course>
  <speed>4.98</speed>
  <fix>3d</fix>
</trkpt>
<trkpt lat="-27.2719143" lon="151.2918163">
  <ele>373.33</ele>
  <time>2026-09-01T19:57:22Z</time>
  <course>54.0</course>
  <speed>4.95803388451511</speed>
  <fix>3d</fix>
</trkpt>
<trkpt lat="-27.2719217" lon="151.2918042">
  <ele>373.43</ele>
  <time>2026-09-01T19:57:22Z</time>
  <course>54.54</course>
  <speed>4.98</speed>
  <fix>3d</fix>
</trkpt>
<trkpt lat="-27.2719117" lon="151.2918204">
  <ele>373.32</ele>
  <time>2026-09-01T19:57:22Z</time>
  <course>54.0</course>
  <speed>4.95803388451511</speed>
  <fix>3d</fix>
</trkpt>
<trkpt lat="-27.2719164" lon="151.2918125">
  <ele>373.42</ele>
  <time>2026-09-01T19:57:22Z</time>
  <course>54.54</course>
  <speed>4.98</speed>
  <fix>3d</fix>
</trkpt>
<trkpt lat="-27.2719091" lon="151.2918245">
  <ele>373.32</ele>
  <time>2026-09-01T19:57:22Z</time>
  <course>54.01</course>
  <speed>4.95803388451511</speed>
  <fix>3d</fix>
</trkpt>
<trkpt lat="-27.2719164" lon="151.2918125">
  <ele>373.42</ele>
  <time>2026-09-01T19:57:22Z</time>
  <course>54.54</course>
  <speed>4.98</speed>
  <fix>3d</fix>
</trkpt>
<trkpt lat="-27.2719065" lon="151.2918286">
  <ele>373.31</ele>
  <time>2026-09-01T19:57:22Z</time>
  <course>54.01</course>
  <speed>4.95803388451511</speed>
  <fix>3d</fix>
</trkpt>
<trkpt lat="-27.2719113" lon="151.2918207">
  <ele>373.41</ele>
  <time>2026-09-01T19:57:22Z</time>
  <course>54.53</course>
  <speed>4.98</speed>
  <fix>3d</fix>
</trkpt>
<trkpt lat="-27.2719039" lon="151.2918327">
  <ele>373.3</ele>
  <time>2026-09-01T19:57:22Z</time>
  <course>54.01</course>
  <speed>4.949868685126909</speed>
  <fix>3d</fix>
</trkpt>
<trkpt lat="-27.2719113" lon="151.2918207">
  <ele>373.41</ele>
  <time>2026-09-01T19:57:22Z</time>
  <course>54.53</course>
  <speed>4.98</speed>
  <fix>3d</fix>
</trkpt>
<trkpt lat="-27.2719012" lon="151.2918368">
  <ele>373.3</ele>
  <time>2026-09-01T19:57:22Z</time>
  <course>54.02</course>
  <speed>4.949868685126909</speed>
  <fix>3d</fix>
</trkpt>
<trkpt lat="-27.2719061" lon="151.2918288">
  <ele>373.4</ele>
  <time>2026-09-01T19:57:22Z</time>
  <course>54.52</course>
  <speed>4.97</speed>
  <fix>3d</fix>
</trkpt>
<trkpt lat="-27.2718987" lon="151.2918409">
  <ele>373.29</ele>
  <time>2026-09-01T19:57:22Z</time>
  <course>54.02</course>
  <speed>4.949868685126909</speed>
  <fix>3d</fix>
</trkpt>
<trkpt lat="-27.2719061" lon="151.2918288">
  <ele>373.4</ele>
  <time>2026-09-01T19:57:22Z</time>
  <course>54.52</course>
  <speed>4.97</speed>
  <fix>3d</fix>
</trkpt>
<trkpt lat="-27.271896" lon="151.291845">
  <ele>373.29</ele>
  <time>2026-09-01T19:57:22Z</time>
  <course>54.02</course>
  <speed>4.949868685126909</speed>
  <fix>3d</fix>
</trkpt>
<trkpt lat="-27.271901" lon="151.2918371">
  <ele>373.38</ele>
  <time>2026-09-01T19:57:22Z</time>
  <course>54.51</course>
  <speed>4.97</speed>
  <fix>3d</fix>
</trkpt>
<trkpt lat="-27.2718935" lon="151.2918491">
  <ele>373.28</ele>
  <time>2026-09-01T19:57:22Z</time>
  <course>54.02</course>
  <speed>4.949868685126909</speed>
  <fix>3d</fix>
</trkpt>
<trkpt lat="-27.271901" lon="151.2918371">
  <ele>373.38</ele>
  <time>2026-09-01T19:57:22Z</time>
  <course>54.51</course>
  <speed>4.97</speed>
  <fix>3d</fix>
</trkpt>
<trkpt lat="-27.2718909" lon="151.2918532">
  <ele>373.28</ele>
  <time>2026-09-01T19:57:22Z</time>
  <course>54.03</course>
  <speed>4.944097490948171</speed>
  <fix>3d</fix>
</trkpt>
<trkpt lat="-27.2718957" lon="151.2918452">
  <ele>373.37</ele>
  <time>2026-09-01T19:57:22Z</time>
  <course>54.51</course>
  <speed>4.96</speed>
  <fix>3d</fix>
</trkpt>
<trkpt lat="-27.2718883" lon="151.2918573">
  <ele>373.27</ele>
  <time>2026-09-01T19:57:22Z</time>
  <course>54.03</course>
  <speed>4.944097490948171</speed>
  <fix>3d</fix>
</trkpt>
<trkpt lat="-27.2718957" lon="151.2918452">
  <ele>373.37</ele>
  <time>2026-09-01T19:57:22Z</time>
  <course>54.51</course>
  <speed>4.96</speed>
  <fix>3d</fix>
</trkpt>
<trkpt lat="-27.2718857" lon="151.2918614">
  <ele>373.27</ele>
  <time>2026-09-01T19:57:22Z</time>
  <course>54.04</course>
  <speed>4.944097490948171</speed>
  <fix>3d</fix>
</trkpt>
<trkpt lat="-27.2718906" lon="151.2918533">
  <ele>373.36</ele>
  <time>2026-09-01T19:57:22Z</time>
  <course>54.52</course>
  <speed>4.96</speed>
  <fix>3d</fix>
</trkpt>
<trkpt lat="-27.2718831" lon="151.2918655">
  <ele>373.26</ele>
  <time>2026-09-01T19:57:22Z</time>
  <course>54.05</course>
  <speed>4.944097490948171</speed>
  <fix>3d</fix>
</trkpt>
<trkpt lat="-27.2718906" lon="151.2918533">
  <ele>373.36</ele>
  <time>2026-09-01T19:57:22Z</time>
  <course>54.52</course>
  <speed>4.96</speed>
  <fix>3d</fix>
</trkpt>
<trkpt lat="-27.2718805" lon="151.2918696">
  <ele>373.25</ele>
  <time>2026-09-01T19:57:22Z</time>
  <course>54.05</course>
  <speed>4.944097490948171</speed>
  <fix>3d</fix>
</trkpt>
<trkpt lat="-27.2718854" lon="151.2918616">
  <ele>373.35</ele>
  <time>2026-09-01T19:57:22Z</time>
  <course>54.53</course>
  <speed>4.96</speed>
  <fix>3d</fix>
</trkpt>
<trkpt lat="-27.2718779" lon="151.2918737">
  <ele>373.25</ele>
  <time>2026-09-01T19:57:22Z</time>
  <course>54.06</course>
  <speed>4.944097490948171</speed>
  <fix>3d</fix>
</trkpt>
<trkpt lat="-27.2718854" lon="151.2918616">
  <ele>373.35</ele>
  <time>2026-09-01T19:57:22Z</time>
  <course>54.53</course>
  <speed>4.96</speed>
  <fix>3d</fix>
</trkpt>
<trkpt lat="-27.2718753" lon="151.2918778">
  <ele>373.24</ele>
  <time>2026-09-01T19:57:22Z</time>
  <course>54.06</course>
  <speed>4.93592949706537</speed>
  <fix>3d</fix>
</trkpt>
<trkpt lat="-27.2718802" lon="151.2918697">
  <ele>373.34</ele>
  <time>2026-09-01T19:57:22Z</time>
  <course>54.54</course>
  <speed>4.96</speed>
  <fix>3d</fix>
</trkpt>
<trkpt lat="-27.2718727" lon="151.2918819">
  <ele>373.23</ele>
  <time>2026-09-01T19:57:22Z</time>
  <course>54.06</course>
  <speed>4.93592949706537</speed>
  <fix>3d</fix>
</trkpt>
<trkpt lat="-27.2718802" lon="151.2918697">
  <ele>373.34</ele>
  <time>2026-09-01T19:57:22Z</time>
  <course>54.54</course>
  <speed>4.96</speed>
  <fix>3d</fix>
</trkpt>
<trkpt lat="-27.2718701" lon="151.291886">
  <ele>373.23</ele>
  <time>2026-09-01T19:57:22Z</time>
  <course>54.07</course>
  <speed>4.93592949706537</speed>
  <fix>3d</fix>
</trkpt>
<trkpt lat="-27.271875" lon="151.2918778">
  <ele>373.33</ele>
  <time>2026-09-01T19:57:22Z</time>
  <course>54.53</course>
  <speed>4.95</speed>
  <fix>3d</fix>
</trkpt>
<trkpt lat="-27.2718675" lon="151.29189">
  <ele>373.22</ele>
  <time>2026-09-01T19:57:22Z</time>
  <course>54.07</course>
  <speed>4.93592949706537</speed>
  <fix>3d</fix>
</trkpt>
<trkpt lat="-27.271875" lon="151.2918778">
  <ele>373.33</ele>
  <time>2026-09-01T19:57:22Z</time>
  <course>54.53</course>
  <speed>4.95</speed>
  <fix>3d</fix>
</trkpt>
<trkpt lat="-27.271865" lon="151.2918941">
  <ele>373.22</ele>
  <time>2026-09-01T19:57:22Z</time>
  <course>54.07</course>
  <speed>4.93592949706537</speed>
  <fix>3d</fix>
</trkpt>
<trkpt lat="-27.2718699" lon="151.2918861">
  <ele>373.32</ele>
  <time>2026-09-01T19:57:22Z</time>
  <course>54.52</course>
  <speed>4.95</speed>
  <fix>3d</fix>
</trkpt>
<trkpt lat="-27.2718624" lon="151.2918982">
  <ele>373.21</ele>
  <time>2026-09-01T19:57:22Z</time>
  <course>54.08</course>
  <speed>4.93592949706537</speed>
  <fix>3d</fix>
</trkpt>
<trkpt lat="-27.2718699" lon="151.2918861">
  <ele>373.32</ele>
  <time>2026-09-01T19:57:22Z</time>
  <course>54.52</course>
  <speed>4.95</speed>
  <fix>3d</fix>
</trkpt>
<trkpt lat="-27.2718598" lon="151.2919023">
  <ele>373.21</ele>
  <time>2026-09-01T19:57:22Z</time>
  <course>54.08</course>
  <speed>4.93592949706537</speed>
  <fix>3d</fix>
</trkpt>
<trkpt lat="-27.2718647" lon="151.2918942">
  <ele>373.3</ele>
  <time>2026-09-01T19:57:22Z</time>
  <course>54.52</course>
  <speed>4.95</speed>
  <fix>3d</fix>
</trkpt>
<trkpt lat="-27.2718572" lon="151.2919064">
  <ele>373.2</ele>
  <time>2026-09-01T19:57:22Z</time>
  <course>54.08</course>
  <speed>4.93592949706537</speed>
  <fix>3d</fix>
</trkpt>
<trkpt lat="-27.2718647" lon="151.2918942">
  <ele>373.3</ele>
  <time>2026-09-01T19:57:22Z</time>
  <course>54.52</course>
  <speed>4.95</speed>
  <fix>3d</fix>
</trkpt>
<trkpt lat="-27.2718546" lon="151.2919105">
  <ele>373.19</ele>
  <time>2026-09-01T19:57:22Z</time>
  <course>54.08</course>
  <speed>4.93592949706537</speed>
  <fix>3d</fix>
</trkpt>
<trkpt lat="-27.2718596" lon="151.2919024">
  <ele>373.29</ele>
  <time>2026-09-01T19:57:22Z</time>
  <course>54.5</course>
  <speed>4.96</speed>
  <fix>3d</fix>
</trkpt>
<trkpt lat="-27.271852" lon="151.2919145">
  <ele>373.19</ele>
  <time>2026-09-01T19:57:22Z</time>
  <course>54.08</course>
  <speed>4.93592949706537</speed>
  <fix>3d</fix>
</trkpt>
<trkpt lat="-27.2718596" lon="151.2919024">
  <ele>373.29</ele>
  <time>2026-09-01T19:57:22Z</time>
  <course>54.5</course>
  <speed>4.96</speed>
  <fix>3d</fix>
</trkpt>
<trkpt lat="-27.2718494" lon="151.2919186">
  <ele>373.18</ele>
  <time>2026-09-01T19:57:22Z</time>
  <course>54.07</course>
  <speed>4.949868685126909</speed>
  <fix>3d</fix>
</trkpt>
<trkpt lat="-27.2718544" lon="151.2919106">
  <ele>373.28</ele>
  <time>2026-09-01T19:57:22Z</time>
  <course>54.49</course>
  <speed>4.96</speed>
  <fix>3d</fix>
</trkpt>
<trkpt lat="-27.2718469" lon="151.2919227">
  <ele>373.18</ele>
  <time>2026-09-01T19:57:22Z</time>
  <course>54.08</course>
  <speed>4.949868685126909</speed>
  <fix>3d</fix>
</trkpt>
<trkpt lat="-27.2718544" lon="151.2919106">
  <ele>373.28</ele>
  <time>2026-09-01T19:57:22Z</time>
  <course>54.49</course>
  <speed>4.96</speed>
  <fix>3d</fix>
</trkpt>
<trkpt lat="-27.2718443" lon="151.2919268">
  <ele>373.17</ele>
  <time>2026-09-01T19:57:22Z</time>
  <course>54.08</course>
  <speed>4.949868685126909</speed>
  <fix>3d</fix>
</trkpt>
<trkpt lat="-27.2718492" lon="151.2919188">
  <ele>373.27</ele>
  <time>2026-09-01T19:57:22Z</time>
  <course>54.48</course>
  <speed>4.96</speed>
  <fix>3d</fix>
</trkpt>
<trkpt lat="-27.2718417" lon="151.2919309">
  <ele>373.16</ele>
  <time>2026-09-01T19:57:22Z</time>
  <course>54.09</course>
  <speed>4.949868685126909</speed>
  <fix>3d</fix>
</trkpt>
<trkpt lat="-27.2718492" lon="151.2919188">
  <ele>373.27</ele>
  <time>2026-09-01T19:57:22Z</time>
  <course>54.48</course>
  <speed>4.96</speed>
  <fix>3d</fix>
</trkpt>
<trkpt lat="-27.2718391" lon="151.291935">
  <ele>373.16</ele>
  <time>2026-09-01T19:57:22Z</time>
  <course>54.09</course>
  <speed>4.949868685126909</speed>
  <fix>3d</fix>
</trkpt>
<trkpt lat="-27.271844" lon="151.2919269">
  <ele>373.26</ele>
  <time>2026-09-01T19:57:22Z</time>
  <course>54.48</course>
  <speed>4.96</speed>
  <fix>3d</fix>
</trkpt>
<trkpt lat="-27.2718365" lon="151.2919391">
  <ele>373.15</ele>
  <time>2026-09-01T19:57:22Z</time>
  <course>54.1</course>
  <speed>4.949868685126909</speed>
  <fix>3d</fix>
</trkpt>
<trkpt lat="-27.271844" lon="151.2919269">
  <ele>373.26</ele>
  <time>2026-09-01T19:57:22Z</time>
  <course>54.48</course>
  <speed>4.96</speed>
  <fix>3d</fix>
</trkpt>
<trkpt lat="-27.2718339" lon="151.2919432">
  <ele>373.14</ele>
  <time>2026-09-01T19:57:22Z</time>
  <course>54.1</course>
  <speed>4.949868685126909</speed>
  <fix>3d</fix>
</trkpt>
<trkpt lat="-27.2718388" lon="151.2919351">
  <ele>373.25</ele>
  <time>2026-09-01T19:57:22Z</time>
  <course>54.47</course>
  <speed>4.97</speed>
  <fix>3d</fix>
</trkpt>
<trkpt lat="-27.2718313" lon="151.2919473">
  <ele>373.14</ele>
  <time>2026-09-01T19:57:22Z</time>
  <course>54.1</course>
  <speed>4.949868685126909</speed>
  <fix>3d</fix>
</trkpt>
<trkpt lat="-27.2718388" lon="151.2919351">
  <ele>373.25</ele>
  <time>2026-09-01T19:57:22Z</time>
  <course>54.47</course>
  <speed>4.97</speed>
  <fix>3d</fix>
</trkpt>
<trkpt lat="-27.2718287" lon="151.2919513">
  <ele>373.13</ele>
  <time>2026-09-01T19:57:22Z</time>
  <course>54.1</course>
  <speed>4.949868685126909</speed>
  <fix>3d</fix>
</trkpt>
<trkpt lat="-27.2718336" lon="151.2919433">
  <ele>373.24</ele>
  <time>2026-09-01T19:57:22Z</time>
  <course>54.46</course>
  <speed>4.97</speed>
  <fix>3d</fix>
</trkpt>
<trkpt lat="-27.2718261" lon="151.2919554">
  <ele>373.13</ele>
  <time>2026-09-01T19:57:22Z</time>
  <course>54.1</course>
  <speed>4.95803388451511</speed>
  <fix>3d</fix>
</trkpt>
<trkpt lat="-27.2718336" lon="151.2919433">
  <ele>373.24</ele>
  <time>2026-09-01T19:57:22Z</time>
  <course>54.46</course>
  <speed>4.97</speed>
  <fix>3d</fix>
</trkpt>
<trkpt lat="-27.2718235" lon="151.2919595">
  <ele>373.13</ele>
  <time>2026-09-01T19:57:22Z</time>
  <course>54.1</course>
  <speed>4.963809021306118</speed>
  <fix>3d</fix>
</trkpt>
<trkpt lat="-27.2718285" lon="151.2919514">
  <ele>373.23</ele>
  <time>2026-09-01T19:57:22Z</time>
  <course>54.44</course>
  <speed>4.97</speed>
  <fix>3d</fix>
</trkpt>
<trkpt lat="-27.2718209" lon="151.2919636">
  <ele>373.12</ele>
  <time>2026-09-01T19:57:22Z</time>
  <course>54.1</course>
  <speed>4.963809021306118</speed>
  <fix>3d</fix>
</trkpt>
<trkpt lat="-27.2718285" lon="151.2919514">
  <ele>373.23</ele>
  <time>2026-09-01T19:57:22Z</time>
  <course>54.44</course>
  <speed>4.97</speed>
  <fix>3d</fix>
</trkpt>
<trkpt lat="-27.2718183" lon="151.2919678">
  <ele>373.12</ele>
  <time>2026-09-01T19:57:22Z</time>
  <course>54.1</course>
  <speed>4.963809021306118</speed>
  <fix>3d</fix>
</trkpt>
<trkpt lat="-27.2718233" lon="151.2919597">
  <ele>373.22</ele>
  <time>2026-09-01T19:57:22Z</time>
  <course>54.43</course>
  <speed>4.98</speed>
  <fix>3d</fix>
</trkpt>
<trkpt lat="-27.2718157" lon="151.2919719">
  <ele>373.11</ele>
  <time>2026-09-01T19:57:22Z</time>
  <course>54.11</course>
  <speed>4.963809021306118</speed>
  <fix>3d</fix>
</trkpt>
<trkpt lat="-27.2718233" lon="151.2919597">
  <ele>373.22</ele>
  <time>2026-09-01T19:57:22Z</time>
  <course>54.43</course>
  <speed>4.98</speed>
  <fix>3d</fix>
</trkpt>
<trkpt lat="-27.2718131" lon="151.291976">
  <ele>373.11</ele>
  <time>2026-09-01T19:57:22Z</time>
  <course>54.12</course>
  <speed>4.949868685126909</speed>
  <fix>3d</fix>
</trkpt>
<trkpt lat="-27.271818" lon="151.2919678">
  <ele>373.21</ele>
  <time>2026-09-01T19:57:22Z</time>
  <course>54.43</course>
  <speed>4.98</speed>
  <fix>3d</fix>
</trkpt>
<trkpt lat="-27.2718105" lon="151.29198">
  <ele>373.11</ele>
  <time>2026-09-01T19:57:22Z</time>
  <course>54.12</course>
  <speed>4.93592949706537</speed>
  <fix>3d</fix>
</trkpt>
<trkpt lat="-27.271818" lon="151.2919678">
  <ele>373.21</ele>
  <time>2026-09-01T19:57:22Z</time>
  <course>54.43</course>
  <speed>4.98</speed>
  <fix>3d</fix>
</trkpt>
<trkpt lat="-27.2718079" lon="151.2919841">
  <ele>373.11</ele>
  <time>2026-09-01T19:57:22Z</time>
  <course>54.12</course>
  <speed>4.91382742879723</speed>
  <fix>3d</fix>
</trkpt>
<trkpt lat="-27.2718128" lon="151.291976">
  <ele>373.21</ele>
  <time>2026-09-01T19:57:22Z</time>
  <course>54.42</course>
  <speed>4.97</speed>
  <fix>3d</fix>
</trkpt>
<trkpt lat="-27.2718054" lon="151.2919881">
  <ele>373.11</ele>
  <time>2026-09-01T19:57:22Z</time>
  <course>54.13</course>
  <speed>4.877786383186537</speed>
  <fix>3d</fix>
</trkpt>
<trkpt lat="-27.2718128" lon="151.291976">
  <ele>373.21</ele>
  <time>2026-09-01T19:57:22Z</time>
  <course>54.42</course>
  <speed>4.97</speed>
  <fix>3d</fix>
</trkpt>
<trkpt lat="-27.2718028" lon="151.2919921">
  <ele>373.11</ele>
  <time>2026-09-01T19:57:22Z</time>
  <course>54.13</course>
  <speed>4.8278048842098</speed>
  <fix>3d</fix>
</trkpt>
<trkpt lat="-27.2718076" lon="151.2919842">
  <ele>373.2</ele>
  <time>2026-09-01T19:57:22Z</time>
  <course>54.41</course>
  <speed>4.93</speed>
  <fix>3d</fix>
</trkpt>
<trkpt lat="-27.2718003" lon="151.291996">
  <ele>373.11</ele>
  <time>2026-09-01T19:57:22Z</time>
  <course>54.13</course>
  <speed>4.76966455843595</speed>
  <fix>3d</fix>
</trkpt>
<trkpt lat="-27.2718076" lon="151.2919842">
  <ele>373.2</ele>
  <time>2026-09-01T19:57:22Z</time>
  <course>54.41</course>
  <speed>4.93</speed>
  <fix>3d</fix>
</trkpt>
<trkpt lat="-27.2717978" lon="151.2919999">
  <ele>373.11</ele>
  <time>2026-09-01T19:57:22Z</time>
  <course>54.13</course>
  <speed>4.705741174352878</speed>
  <fix>3d</fix>
</trkpt>
<trkpt lat="-27.2718025" lon="151.2919923">
  <ele>373.2</ele>
  <time>2026-09-01T19:57:22Z</time>
  <course>54.41</course>
  <speed>4.86</speed>
  <fix>3d</fix>
</trkpt>
<trkpt lat="-27.2717954" lon="151.2920038">
  <ele>373.11</ele>
  <time>2026-09-01T19:57:22Z</time>
  <course>54.13</course>
  <speed>4.633659460944449</speed>
  <fix>3d</fix>
</trkpt>
<trkpt lat="-27.2718025" lon="151.2919923">
  <ele>373.2</ele>
  <time>2026-09-01T19:57:22Z</time>
  <course>54.41</course>
  <speed>4.86</speed>
  <fix>3d</fix>
</trkpt>
<trkpt lat="-27.271793" lon="151.2920075">
  <ele>373.11</ele>
  <time>2026-09-01T19:57:22Z</time>
  <course>54.13</course>
  <speed>4.547636748905964</speed>
  <fix>3d</fix>
</trkpt>
<trkpt lat="-27.2717975" lon="151.2920002">
  <ele>373.2</ele>
  <time>2026-09-01T19:57:22Z</time>
  <course>54.42</course>
  <speed>4.74</speed>
  <fix>3d</fix>
</trkpt>
<trkpt lat="-27.2717906" lon="151.2920112">
  <ele>373.12</ele>
  <time>2026-09-01T19:57:22Z</time>
  <course>54.13</course>
  <speed>4.447673549171522</speed>
  <fix>3d</fix>
</trkpt>
<trkpt lat="-27.2717975" lon="151.2920002">
  <ele>373.2</ele>
  <time>2026-09-01T19:57:22Z</time>
  <course>54.42</course>
  <speed>4.74</speed>
  <fix>3d</fix>
</trkpt>
<trkpt lat="-27.2717883" lon="151.2920149">
  <ele>373.12</ele>
  <time>2026-09-01T19:57:22Z</time>
  <course>54.12</course>
  <speed>4.353492850574122</speed>
  <fix>3d</fix>
</trkpt>
<trkpt lat="-27.2717926" lon="151.2920078">
  <ele>373.21</ele>
  <time>2026-09-01T19:57:22Z</time>
  <course>54.42</course>
  <speed>4.58</speed>
  <fix>3d</fix>
</trkpt>
<trkpt lat="-27.2717861" lon="151.2920184">
  <ele>373.12</ele>
  <time>2026-09-01T19:57:22Z</time>
  <course>54.12</course>
  <speed>4.245373952904503</speed>
  <fix>3d</fix>
</trkpt>
<trkpt lat="-27.2717926" lon="151.2920078">
  <ele>373.21</ele>
  <time>2026-09-01T19:57:22Z</time>
  <course>54.42</course>
  <speed>4.58</speed>
  <fix>3d</fix>
</trkpt>
<trkpt lat="-27.2717839" lon="151.2920219">
  <ele>373.12</ele>
  <time>2026-09-01T19:57:22Z</time>
  <course>54.12</course>
  <speed>4.139625586934161</speed>
  <fix>3d</fix>
</trkpt>
<trkpt lat="-27.2717879" lon="151.2920152">
  <ele>373.21</ele>
  <time>2026-09-01T19:57:22Z</time>
  <course>54.43</course>
  <speed>4.39</speed>
  <fix>3d</fix>
</trkpt>
<trkpt lat="-27.2717817" lon="151.2920253">
  <ele>373.11</ele>
  <time>2026-09-01T19:57:22Z</time>
  <course>54.12</course>
  <speed>4.031500961180587</speed>
  <fix>3d</fix>
</trkpt>
<trkpt lat="-27.2717879" lon="151.2920152">
  <ele>373.21</ele>
  <time>2026-09-01T19:57:22Z</time>
  <course>54.43</course>
  <speed>4.39</speed>
  <fix>3d</fix>
</trkpt>
<trkpt lat="-27.2717796" lon="151.2920286">
  <ele>373.11</ele>
  <time>2026-09-01T19:57:22Z</time>
  <course>54.12</course>
  <speed>3.923378646014172</speed>
  <fix>3d</fix>
</trkpt>
<trkpt lat="-27.2717834" lon="151.2920222">
  <ele>373.21</ele>
  <time>2026-09-01T19:57:22Z</time>
  <course>54.45</course>
  <speed>4.18</speed>
  <fix>3d</fix>
</trkpt>
<trkpt lat="-27.2717776" lon="151.2920318">
  <ele>373.1</ele>
  <time>2026-09-01T19:57:22Z</time>
  <course>54.12</course>
  <speed>3.823414704161713</speed>
  <fix>3d</fix>
</trkpt>
<trkpt lat="-27.2717834" lon="151.2920222">
  <ele>373.21</ele>
  <time>2026-09-01T19:57:22Z</time>
  <course>54.45</course>
  <speed>4.18</speed>
  <fix>3d</fix>
</trkpt>
<trkpt lat="-27.2717756" lon="151.2920349">
  <ele>373.09</ele>
  <time>2026-09-01T19:57:22Z</time>
  <course>54.12</course>
  <speed>3.7152927206345394</speed>
  <fix>3d</fix>
</trkpt>
<trkpt lat="-27.2717792" lon="151.2920289">
  <ele>373.2</ele>
  <time>2026-09-01T19:57:22Z</time>
  <course>54.47</course>
  <speed>3.97</speed>
  <fix>3d</fix>
</trkpt>
<trkpt lat="-27.2717737" lon="151.2920379">
  <ele>373.08</ele>
  <time>2026-09-01T19:57:22Z</time>
  <course>54.11</course>
  <speed>3.6013886210738213</speed>
  <fix>3d</fix>
</trkpt>
<trkpt lat="-27.2717792" lon="151.2920289">
  <ele>373.2</ele>
  <time>2026-09-01T19:57:22Z</time>
  <course>54.47</course>
  <speed>3.97</speed>
  <fix>3d</fix>
</trkpt>
<trkpt lat="-27.2717718" lon="151.2920409">
  <ele>373.07</ele>
  <time>2026-09-01T19:57:22Z</time>
  <course>54.11</course>
  <speed>3.493264948440069</speed>
  <fix>3d</fix>
</trkpt>
<trkpt lat="-27.2717751" lon="151.2920353">
  <ele>373.18</ele>
  <time>2026-09-01T19:57:22Z</time>
  <course>54.5</course>
  <speed>3.75</speed>
  <fix>3d</fix>
</trkpt>
<trkpt lat="-27.27177" lon="151.2920437">
  <ele>373.05</ele>
  <time>2026-09-01T19:57:22Z</time>
  <course>54.11</course>
  <speed>3.379363845459675</speed>
  <fix>3d</fix>
</trkpt>
<trkpt lat="-27.2717751" lon="151.2920353">
  <ele>373.18</ele>
  <time>2026-09-01T19:57:22Z</time>
  <course>54.5</course>
  <speed>3.75</speed>
  <fix>3d</fix>
</trkpt>
<trkpt lat="-27.2717682" lon="151.2920465">
  <ele>373.04</ele>
  <time>2026-09-01T19:57:22Z</time>
  <course>54.1</course>
  <speed>3.2712382976481553</speed>
  <fix>3d</fix>
</trkpt>
<trkpt lat="-27.2717713" lon="151.2920413">
  <ele>373.16</ele>
  <time>2026-09-01T19:57:22Z</time>
  <course>54.54</course>
  <speed>3.53</speed>
  <fix>3d</fix>
</trkpt>
<trkpt lat="-27.2717665" lon="151.2920492">
  <ele>373.03</ele>
  <time>2026-09-01T19:57:22Z</time>
  <course>54.1</course>
  <speed>3.157340653144668</speed>
  <fix>3d</fix>
</trkpt>
<trkpt lat="-27.2717713" lon="151.2920413">
  <ele>373.16</ele>
  <time>2026-09-01T19:57:22Z</time>
  <course>54.54</course>
  <speed>3.53</speed>
  <fix>3d</fix>
</trkpt>
<trkpt lat="-27.2717649" lon="151.2920518">
  <ele>373.02</ele>
  <time>2026-09-01T19:57:22Z</time>
  <course>54.1</course>
  <speed>3.043451987464235</speed>
  <fix>3d</fix>
</trkpt>
<trkpt lat="-27.2717678" lon="151.292047">
  <ele>373.13</ele>
  <time>2026-09-01T19:57:22Z</time>
  <course>54.58</course>
  <speed>3.31</speed>
  <fix>3d</fix>
</trkpt>
<trkpt lat="-27.2717633" lon="151.2920543">
  <ele>373.01</ele>
  <time>2026-09-01T19:57:22Z</time>
  <course>54.09</course>
  <speed>2.9271487833726524</speed>
  <fix>3d</fix>
</trkpt>
<trkpt lat="-27.2717678" lon="151.292047">
  <ele>373.13</ele>
  <time>2026-09-01T19:57:22Z</time>
  <course>54.58</course>
  <speed>3.31</speed>
  <fix>3d</fix>
</trkpt>
<trkpt lat="-27.2717618" lon="151.2920567">
  <ele>372.99</ele>
  <time>2026-09-01T19:57:22Z</time>
  <course>54.09</course>
  <speed>2.8132543432828823</speed>
  <fix>3d</fix>
</trkpt>
<trkpt lat="-27.2717644" lon="151.2920522">
  <ele>373.1</ele>
  <time>2026-09-01T19:57:22Z</time>
  <course>54.63</course>
  <speed>3.08</speed>
  <fix>3d</fix>
</trkpt>
<trkpt lat="-27.2717603" lon="151.292059">
  <ele>372.98</ele>
  <time>2026-09-01T19:57:22Z</time>
  <course>54.09</course>
  <speed>2.69937029693964</speed>
  <fix>3d</fix>
</trkpt>
<trkpt lat="-27.2717644" lon="151.2920522">
  <ele>373.1</ele>
  <time>2026-09-01T19:57:22Z</time>
  <course>54.63</course>
  <speed>3.08</speed>
  <fix>3d</fix>
</trkpt>
<trkpt lat="-27.2717589" lon="151.2920612">
  <ele>372.97</ele>
  <time>2026-09-01T19:57:22Z</time>
  <course>54.09</course>
  <speed>2.5773047937719746</speed>
  <fix>3d</fix>
</trkpt>
<trkpt lat="-27.2717613" lon="151.2920571">
  <ele>373.07</ele>
  <time>2026-09-01T19:57:22Z</time>
  <course>54.69</course>
  <speed>2.85</speed>
  <fix>3d</fix>
</trkpt>
<trkpt lat="-27.2717576" lon="151.2920633">
  <ele>372.96</ele>
  <time>2026-09-01T19:57:22Z</time>
  <course>54.09</course>
  <speed>2.4552392958732145</speed>
  <fix>3d</fix>
</trkpt>
<trkpt lat="-27.2717613" lon="151.2920571">
  <ele>373.07</ele>
  <time>2026-09-01T19:57:22Z</time>
  <course>54.69</course>
  <speed>2.85</speed>
  <fix>3d</fix>
</trkpt>
<trkpt lat="-27.2717563" lon="151.2920653">
  <ele>372.95</ele>
  <time>2026-09-01T19:57:22Z</time>
  <course>54.09</course>
  <speed>2.3413671220037235</speed>
  <fix>3d</fix>
</trkpt>
<trkpt lat="-27.2717585" lon="151.2920616">
  <ele>373.05</ele>
  <time>2026-09-01T19:57:22Z</time>
  <course>54.75</course>
  <speed>2.61</speed>
  <fix>3d</fix>
</trkpt>
<trkpt lat="-27.2717551" lon="151.2920673">
  <ele>372.94</ele>
  <time>2026-09-01T19:57:22Z</time>
  <course>54.09</course>
  <speed>2.219301691974302</speed>
  <fix>3d</fix>
</trkpt>
<trkpt lat="-27.2717585" lon="151.2920616">
  <ele>373.05</ele>
  <time>2026-09-01T19:57:22Z</time>
  <course>54.75</course>
  <speed>2.61</speed>
  <fix>3d</fix>
</trkpt>
<trkpt lat="-27.2717539" lon="151.2920691">
  <ele>372.93</ele>
  <time>2026-09-01T19:57:22Z</time>
  <course>54.08</course>
  <speed>2.105445321066306</speed>
  <fix>3d</fix>
</trkpt>
<trkpt lat="-27.2717559" lon="151.2920658">
  <ele>373.03</ele>
  <time>2026-09-01T19:57:22Z</time>
  <course>54.83</course>
  <speed>2.38</speed>
  <fix>3d</fix>
</trkpt>
<trkpt lat="-27.2717529" lon="151.2920708">
  <ele>372.93</ele>
  <time>2026-09-01T19:57:22Z</time>
  <course>54.08</course>
  <speed>1.997298175035465</speed>
  <fix>3d</fix>
</trkpt>
<trkpt lat="-27.2717559" lon="151.2920658">
  <ele>373.03</ele>
  <time>2026-09-01T19:57:22Z</time>
  <course>54.83</course>
  <speed>2.38</speed>
  <fix>3d</fix>
</trkpt>
<trkpt lat="-27.2717518" lon="151.2920725">
  <ele>372.92</ele>
  <time>2026-09-01T19:57:22Z</time>
  <course>54.08</course>
  <speed>1.947331507473753</speed>
  <fix>3d</fix>
</trkpt>
<trkpt lat="-27.2717535" lon="151.2920695">
  <ele>373.01</ele>
  <time>2026-09-01T19:57:22Z</time>
  <course>54.92</course>
  <speed>2.14</speed>
  <fix>3d</fix>
</trkpt>
<trkpt lat="-27.2717508" lon="151.2920741">
  <ele>372.92</ele>
  <time>2026-09-01T19:57:22Z</time>
  <course>54.18</course>
  <speed>1.9555561868685851</speed>
  <fix>3d</fix>
</trkpt>
<trkpt lat="-27.2717535" lon="151.2920695">
  <ele>373.01</ele>
  <time>2026-09-01T19:57:22Z</time>
  <course>54.92</course>
  <speed>2.14</speed>
  <fix>3d</fix>
</trkpt>
<trkpt lat="-27.2717497" lon="151.2920758">
  <ele>372.92</ele>
  <time>2026-09-01T19:57:22Z</time>
  <course>54.39</course>
  <speed>2.0441624201613724</speed>
  <fix>3d</fix>
</trkpt>
<trkpt lat="-27.2717514" lon="151.2920729">
  <ele>373.0</ele>
  <time>2026-09-01T19:57:22Z</time>
  <course>55.07</course>
  <speed>2.01</speed>
  <fix>3d</fix>
</trkpt>
<trkpt lat="-27.2717486" lon="151.2920776">
  <ele>372.93</ele>
  <time>2026-09-01T19:57:22Z</time>
  <course>54.7</course>
  <speed>2.1910727965998755</speed>
  <fix>3d</fix>
</trkpt>
<trkpt lat="-27.2717514" lon="151.2920729">
  <ele>373.0</ele>
  <time>2026-09-01T19:57:22Z</time>
  <course>55.07</course>
  <speed>2.01</speed>
  <fix>3d</fix>
</trkpt>
<trkpt lat="-27.2717475" lon="151.2920796">
  <ele>372.93</ele>
  <time>2026-09-01T19:57:22Z</time>
  <course>55.05</course>
  <speed>2.413047865252573</speed>
  <fix>3d</fix>
</trkpt>
<trkpt lat="-27.2717493" lon="151.2920763">
  <ele>373.0</ele>
  <time>2026-09-01T19:57:22Z</time>
  <course>55.54</course>
  <speed>2.1</speed>
  <fix>3d</fix>
</trkpt>
<trkpt lat="-27.2717462" lon="151.2920818">
  <ele>372.94</ele>
  <time>2026-09-01T19:57:22Z</time>
  <course>55.42</course>
  <speed>2.7020177645604035</speed>
  <fix>3d</fix>
</trkpt>
<trkpt lat="-27.2717493" lon="151.2920763">
  <ele>373.0</ele>
  <time>2026-09-01T19:57:22Z</time>
  <course>55.54</course>
  <speed>2.1</speed>
  <fix>3d</fix>
</trkpt>
<trkpt lat="-27.2717448" lon="151.2920843">
  <ele>372.95</ele>
  <time>2026-09-01T19:57:22Z</time>
  <course>55.78</course>
  <speed>3.0718886698576826</speed>
  <fix>3d</fix>
</trkpt>
<trkpt lat="-27.2717471" lon="151.2920801">
  <ele>373.01</ele>
  <time>2026-09-01T19:57:22Z</time>
  <course>56.52</course>
  <speed>2.46</speed>
  <fix>3d</fix>
</trkpt>
<trkpt lat="-27.2717432" lon="151.2920872">
  <ele>372.96</ele>
  <time>2026-09-01T19:57:22Z</time>
  <course>56.14</course>
  <speed>3.4814364851308146</speed>
  <fix>3d</fix>
</trkpt>
<trkpt lat="-27.2717471" lon="151.2920801">
  <ele>373.01</ele>
  <time>2026-09-01T19:57:22Z</time>
  <course>56.52</course>
  <speed>2.46</speed>
  <fix>3d</fix>
</trkpt>
<trkpt lat="-27.2717415" lon="151.2920905">
  <ele>372.97</ele>
  <time>2026-09-01T19:57:22Z</time>
  <course>56.45</course>
  <speed>3.92587569849072</speed>
  <fix>3d</fix>
</trkpt>
<trkpt lat="-27.2717444" lon="151.2920848">
  <ele>373.03</ele>
  <time>2026-09-01T19:57:22Z</time>
  <course>57.85</course>
  <speed>3.1</speed>
  <fix>3d</fix>
</trkpt>
<trkpt lat="-27.2717396" lon="151.2920941">
  <ele>372.98</ele>
  <time>2026-09-01T19:57:22Z</time>
  <course>56.92</course>
  <speed>4.379691769976513</speed>
  <fix>3d</fix>
</trkpt>
<trkpt lat="-27.2717444" lon="151.2920848">
  <ele>373.03</ele>
  <time>2026-09-01T19:57:22Z</time>
  <course>57.85</course>
  <speed>3.1</speed>
  <fix>3d</fix>
</trkpt>
<trkpt lat="-27.2717375" lon="151.2920982">
  <ele>373.0</ele>
  <time>2026-09-01T19:57:22Z</time>
  <course>57.66</course>
  <speed>4.846792753976592</speed>
  <fix>3d</fix>
</trkpt>
<trkpt lat="-27.2717411" lon="151.2920909">
  <ele>373.05</ele>
  <time>2026-09-01T19:57:22Z</time>
  <course>59.31</course>
  <speed>3.93</speed>
  <fix>3d</fix>
</trkpt>
<trkpt lat="-27.2717354" lon="151.2921027">
  <ele>373.01</ele>
  <time>2026-09-01T19:57:22Z</time>
  <course>58.43</course>
  <speed>5.318843859336351</speed>
  <fix>3d</fix>
</trkpt>
<trkpt lat="-27.2717411" lon="151.2920909">
  <ele>373.05</ele>
  <time>2026-09-01T19:57:22Z</time>
  <course>59.31</course>
  <speed>3.93</speed>
  <fix>3d</fix>
</trkpt>
<trkpt lat="-27.271733" lon="151.2921078">
  <ele>373.02</ele>
  <time>2026-09-01T19:57:22Z</time>
  <course>59.31</course>
  <speed>5.8094147725911265</speed>
  <fix>3d</fix>
</trkpt>
<trkpt lat="-27.2717371" lon="151.2920986">
  <ele>373.08</ele>
  <time>2026-09-01T19:57:22Z</time>
  <course>60.84</course>
  <speed>4.84</speed>
  <fix>3d</fix>
</trkpt>
<trkpt lat="-27.2717306" lon="151.2921132">
  <ele>373.03</ele>
  <time>2026-09-01T19:57:22Z</time>
  <course>60.38</course>
  <speed>6.292702122300085</speed>
  <fix>3d</fix>
</trkpt>
<trkpt lat="-27.2717371" lon="151.2920986">
  <ele>373.08</ele>
  <time>2026-09-01T19:57:22Z</time>
  <course>60.84</course>
  <speed>4.84</speed>
  <fix>3d</fix>
</trkpt>
<trkpt lat="-27.271728" lon="151.2921192">
  <ele>373.04</ele>
  <time>2026-09-01T19:57:22Z</time>
  <course>61.47</course>
  <speed>6.787348525013284</speed>
  <fix>3d</fix>
</trkpt>
<trkpt lat="-27.2717327" lon="151.2921081">
  <ele>373.09</ele>
  <time>2026-09-01T19:57:22Z</time>
  <course>62.6</course>
  <speed>5.8</speed>
  <fix>3d</fix>
</trkpt>
<trkpt lat="-27.2717254" lon="151.2921257">
  <ele>373.05</ele>
  <time>2026-09-01T19:57:22Z</time>
  <course>62.7</course>
  <speed>7.285176730869335</speed>
  <fix>3d</fix>
</trkpt>
<trkpt lat="-27.2717327" lon="151.2921081">
  <ele>373.09</ele>
  <time>2026-09-01T19:57:22Z</time>
  <course>62.6</course>
  <speed>5.8</speed>
  <fix>3d</fix>
</trkpt>
<trkpt lat="-27.2717227" lon="151.2921327">
  <ele>373.06</ele>
  <time>2026-09-01T19:57:22Z</time>
  <course>64.07</course>
  <speed>7.792329561819109</speed>
  <fix>3d</fix>
</trkpt>
<trkpt lat="-27.2717276" lon="151.2921194">
  <ele>373.12</ele>
  <time>2026-09-01T19:57:22Z</time>
  <course>64.65</course>
  <speed>6.78</speed>
  <fix>3d</fix>
</trkpt>
<trkpt lat="-27.27172" lon="151.2921402">
  <ele>373.07</ele>
  <time>2026-09-01T19:57:22Z</time>
  <course>65.61</course>
  <speed>8.30106017325498</speed>
  <fix>3d</fix>
</trkpt>
<trkpt lat="-27.2717276" lon="151.2921194">
  <ele>373.12</ele>
  <time>2026-09-01T19:57:22Z</time>
  <course>64.65</course>
  <speed>6.78</speed>
  <fix>3d</fix>
</trkpt>
<trkpt lat="-27.2717172" lon="151.2921483">
  <ele>373.08</ele>
  <time>2026-09-01T19:57:22Z</time>
  <course>67.22</course>
  <speed>8.822136929338605</speed>
  <fix>3d</fix>
</trkpt>
<trkpt lat="-27.2717222" lon="151.2921329">
  <ele>373.15</ele>
  <time>2026-09-01T19:57:22Z</time>
  <course>67.02</course>
  <speed>7.79</speed>
  <fix>3d</fix>
</trkpt>
<trkpt lat="-27.2717145" lon="151.292157">
  <ele>373.1</ele>
  <time>2026-09-01T19:57:22Z</time>
  <course>68.98</course>
  <speed>9.33505222267128</speed>
  <fix>3d</fix>
</trkpt>
<trkpt lat="-27.2717222" lon="151.2921329">
  <ele>373.15</ele>
  <time>2026-09-01T19:57:22Z</time>
  <course>67.02</course>
  <speed>7.79</speed>
  <fix>3d</fix>
</trkpt>
<trkpt lat="-27.2717119" lon="151.2921662">
  <ele>373.11</ele>
  <time>2026-09-01T19:57:22Z</time>
  <course>70.66</course>
  <speed>9.84459242427029</speed>
  <fix>3d</fix>
</trkpt>
<trkpt lat="-27.2717167" lon="151.2921485">
  <ele>373.16</ele>
  <time>2026-09-01T19:57:22Z</time>
  <course>69.7</course>
  <speed>8.81</speed>
  <fix>3d</fix>
</trkpt>
<trkpt lat="-27.2717093" lon="151.2921761">
  <ele>373.12</ele>
  <time>2026-09-01T19:57:22Z</time>
  <course>72.23</course>
  <speed>10.358942996271388</speed>
  <fix>3d</fix>
</trkpt>
<trkpt lat="-27.2717167" lon="151.2921485">
  <ele>373.16</ele>
  <time>2026-09-01T19:57:22Z</time>
  <course>69.7</course>
  <speed>8.81</speed>
  <fix>3d</fix>
</trkpt>
<trkpt lat="-27.2717068" lon="151.2921864">
  <ele>373.13</ele>
  <time>2026-09-01T19:57:22Z</time>
  <course>73.75</course>
  <speed>10.872980272216077</speed>
  <fix>3d</fix>
</trkpt>
<trkpt lat="-27.2717113" lon="151.2921663">
  <ele>373.18</ele>
  <time>2026-09-01T19:57:22Z</time>
  <course>72.63</course>
  <speed>9.84</speed>
  <fix>3d</fix>
</trkpt>
<trkpt lat="-27.2717045" lon="151.2921974">
  <ele>373.14</ele>
  <time>2026-09-01T19:57:22Z</time>
  <course>75.3</course>
  <speed>11.37051010289336</speed>
  <fix>3d</fix>
</trkpt>
<trkpt lat="-27.2717113" lon="151.2921663">
  <ele>373.18</ele>
  <time>2026-09-01T19:57:22Z</time>
  <course>72.63</course>
  <speed>9.84</speed>
  <fix>3d</fix>
</trkpt>
<trkpt lat="-27.2717024" lon="151.2922088">
  <ele>373.15</ele>
  <time>2026-09-01T19:57:22Z</time>
  <course>76.9</course>
  <speed>11.877415543795712</speed>
  <fix>3d</fix>
</trkpt>
<trkpt lat="-27.2717063" lon="151.2921864">
  <ele>373.2</ele>
  <time>2026-09-01T19:57:22Z</time>
  <course>75.7</course>
  <speed>10.85</speed>
  <fix>3d</fix>
</trkpt>
<trkpt lat="-27.2717004" lon="151.2922208">
  <ele>373.16</ele>
  <time>2026-09-01T19:57:22Z</time>
  <course>78.6</course>
  <speed>12.369498777234266</speed>
  <fix>3d</fix>
</trkpt>
<trkpt lat="-27.2717063" lon="151.2921864">
  <ele>373.2</ele>
  <time>2026-09-01T19:57:22Z</time>
  <course>75.7</course>
  <speed>10.85</speed>
  <fix>3d</fix>
</trkpt>
<trkpt lat="-27.2716987" lon="151.2922334">
  <ele>373.17</ele>
  <time>2026-09-01T19:57:22Z</time>
  <course>80.23</course>
  <speed>12.855582444992526</speed>
  <fix>3d</fix>
</trkpt>
<trkpt lat="-27.2717018" lon="151.2922089">
  <ele>373.22</ele>
  <time>2026-09-01T19:57:22Z</time>
  <course>78.79</course>
  <speed>11.86</speed>
  <fix>3d</fix>
</trkpt>
<trkpt lat="-27.2716972" lon="151.2922465">
  <ele>373.19</ele>
  <time>2026-09-01T19:57:22Z</time>
  <course>81.81</course>
  <speed>13.337960863640289</speed>
  <fix>3d</fix>
</trkpt>
<trkpt lat="-27.2717018" lon="151.2922089">
  <ele>373.22</ele>
  <time>2026-09-01T19:57:22Z</time>
  <course>78.79</course>
  <speed>11.86</speed>
  <fix>3d</fix>
</trkpt>
<trkpt lat="-27.271696" lon="151.2922602">
  <ele>373.2</ele>
  <time>2026-09-01T19:57:22Z</time>
  <course>83.37</course>
  <speed>13.826254011842831</speed>
  <fix>3d</fix>
</trkpt>
<trkpt lat="-27.2716981" lon="151.2922335">
  <ele>373.24</ele>
  <time>2026-09-01T19:57:22Z</time>
  <course>81.87</course>
  <speed>12.84</speed>
  <fix>3d</fix>
</trkpt>
<trkpt lat="-27.271695" lon="151.2922744">
  <ele>373.22</ele>
  <time>2026-09-01T19:57:22Z</time>
  <course>84.93</course>
  <speed>14.302391408432367</speed>
  <fix>3d</fix>
</trkpt>
<trkpt lat="-27.2716981" lon="151.2922335">
  <ele>373.24</ele>
  <time>2026-09-01T19:57:22Z</time>
  <course>81.87</course>
  <speed>12.84</speed>
  <fix>3d</fix>
</trkpt>
<trkpt lat="-27.2716944" lon="151.2922891">
  <ele>373.23</ele>
  <time>2026-09-01T19:57:22Z</time>
  <course>86.34</course>
  <speed>14.767166281991951</speed>
  <fix>3d</fix>
</trkpt>
<trkpt lat="-27.2716954" lon="151.2922602">
  <ele>373.27</ele>
  <time>2026-09-01T19:57:22Z</time>
  <course>84.89</course>
  <speed>13.81</speed>
  <fix>3d</fix>
</trkpt>
<trkpt lat="-27.271694" lon="151.2923043">
  <ele>373.25</ele>
  <time>2026-09-01T19:57:22Z</time>
  <course>87.61</course>
  <speed>15.220397498094458</speed>
  <fix>3d</fix>
</trkpt>
<trkpt lat="-27.2716954" lon="151.2922602">
  <ele>373.27</ele>
  <time>2026-09-01T19:57:22Z</time>
  <course>84.89</course>
  <speed>13.81</speed>
  <fix>3d</fix>
</trkpt>
<trkpt lat="-27.271694" lon="151.2923199">
  <ele>373.27</ele>
  <time>2026-09-01T19:57:22Z</time>
  <course>88.87</course>
  <speed>15.67183779905854</speed>
  <fix>3d</fix>
</trkpt>
<trkpt lat="-27.2716937" lon="151.2922891">
  <ele>373.29</ele>
  <time>2026-09-01T19:57:22Z</time>
  <course>87.8</course>
  <speed>14.75</speed>
  <fix>3d</fix>
</trkpt>
<trkpt lat="-27.2716943" lon="151.2923359">
  <ele>373.29</ele>
  <time>2026-09-01T19:57:22Z</time>
  <course>90.21</course>
  <speed>16.111551756426195</speed>
  <fix>3d</fix>
</trkpt>
<trkpt lat="-27.2716937" lon="151.2922891">
  <ele>373.29</ele>
  <time>2026-09-01T19:57:22Z</time>
  <course>87.8</course>
  <speed>14.75</speed>
  <fix>3d</fix>
</trkpt>
<trkpt lat="-27.2716949" lon="151.2923524">
  <ele>373.3</ele>
  <time>2026-09-01T19:57:22Z</time>
  <course>91.5</course>
  <speed>16.53905982817645</speed>
  <fix>3d</fix>
</trkpt>
<trkpt lat="-27.2716933" lon="151.2923199">
  <ele>373.32</ele>
  <time>2026-09-01T19:57:22Z</time>
  <course>90.55</course>
  <speed>15.65</speed>
  <fix>3d</fix>
</trkpt>
<trkpt lat="-27.2716958" lon="151.2923693">
  <ele>373.32</ele>
  <time>2026-09-01T19:57:22Z</time>
  <course>92.74</course>
  <speed>16.965405978048388</speed>
  <fix>3d</fix>
</trkpt>
<trkpt lat="-27.2716933" lon="151.2923199">
  <ele>373.32</ele>
  <time>2026-09-01T19:57:22Z</time>
  <course>90.55</course>
  <speed>15.65</speed>
  <fix>3d</fix>
</trkpt>
<trkpt lat="-27.2716971" lon="151.2923865">
  <ele>373.33</ele>
  <time>2026-09-01T19:57:22Z</time>
  <course>93.87</course>
  <speed>17.378337089606706</speed>
  <fix>3d</fix>
</trkpt>
<trkpt lat="-27.2716942" lon="151.2923524">
  <ele>373.35</ele>
  <time>2026-09-01T19:57:22Z</time>
  <course>93.13</course>
  <speed>16.52</speed>
  <fix>3d</fix>
</trkpt>
<trkpt lat="-27.2716988" lon="151.2924042">
  <ele>373.34</ele>
  <time>2026-09-01T19:57:22Z</time>
  <course>95.07</course>
  <speed>17.780466810519908</speed>
  <fix>3d</fix>
</trkpt>
<trkpt lat="-27.2716942" lon="151.2923524">
  <ele>373.35</ele>
  <time>2026-09-01T19:57:22Z</time>
  <course>93.13</course>
  <speed>16.52</speed>
  <fix>3d</fix>
</trkpt>
<trkpt lat="-27.2717008" lon="151.2924221">
  <ele>373.35</ele>
  <time>2026-09-01T19:57:22Z</time>
  <course>96.29</course>
  <speed>18.179727720733332</speed>
  <fix>3d</fix>
</trkpt>
<trkpt lat="-27.2716965" lon="151.2923865">
  <ele>373.37</ele>
  <time>2026-09-01T19:57:22Z</time>
  <course>95.55</course>
  <speed>17.36</speed>
  <fix>3d</fix>
</trkpt>
<trkpt lat="-27.2717032" lon="151.2924403">
  <ele>373.36</ele>
  <time>2026-09-01T19:57:22Z</time>
  <course>97.51</course>
  <speed>18.559183710497614</speed>
  <fix>3d</fix>
</trkpt>
<trkpt lat="-27.2716965" lon="151.2923865">
  <ele>373.37</ele>
  <time>2026-09-01T19:57:22Z</time>
  <course>95.55</course>
  <speed>17.36</speed>
  <fix>3d</fix>
</trkpt>
<trkpt lat="-27.2717059" lon="151.2924589">
  <ele>373.36</ele>
  <time>2026-09-01T19:57:22Z</time>
  <course>98.81</course>
  <speed>18.927873625951754</speed>
  <fix>3d</fix>
</trkpt>
<trkpt lat="-27.2717002" lon="151.2924222">
  <ele>373.38</ele>
  <time>2026-09-01T19:57:22Z</time>
  <course>97.87</course>
  <speed>18.17</speed>
  <fix>3d</fix>
</trkpt>
<trkpt lat="-27.2717091" lon="151.2924777">
  <ele>373.36</ele>
  <time>2026-09-01T19:57:22Z</time>
  <course>100.13</course>
  <speed>19.30194290738629</speed>
  <fix>3d</fix>
</trkpt>
<trkpt lat="-27.2717002" lon="151.2924222">
  <ele>373.38</ele>
  <time>2026-09-01T19:57:22Z</time>
  <course>97.87</course>
  <speed>18.17</speed>
  <fix>3d</fix>
</trkpt>
<trkpt lat="-27.2717127" lon="151.2924968">
  <ele>373.37</ele>
  <time>2026-09-01T19:57:22Z</time>
  <course>101.56</course>
  <speed>19.654261624390777</speed>
  <fix>3d</fix>
</trkpt>
<trkpt lat="-27.2717055" lon="151.2924592">
  <ele>373.39</ele>
  <time>2026-09-01T19:57:22Z</time>
  <course>100.21</course>
  <speed>18.93</speed>
  <fix>3d</fix>
</trkpt>
<trkpt lat="-27.2717168" lon="151.2925162">
  <ele>373.37</ele>
  <time>2026-09-01T19:57:22Z</time>
  <course>103.11</course>
  <speed>19.997232308497093</speed>
  <fix>3d</fix>
</trkpt>
<trkpt lat="-27.2717055" lon="151.2924592">
  <ele>373.39</ele>
  <time>2026-09-01T19:57:22Z</time>
  <course>100.21</course>
  <speed>18.93</speed>
  <fix>3d</fix>
</trkpt>
<trkpt lat="-27.2717214" lon="151.2925358">
  <ele>373.37</ele>
  <time>2026-09-01T19:57:22Z</time>
  <course>104.68</course>
  <speed>20.32941710920409</speed>
  <fix>3d</fix>
</trkpt>
<trkpt lat="-27.2717124" lon="151.2924974">
  <ele>373.39</ele>
  <time>2026-09-01T19:57:22Z</time>
  <course>102.77</course>
  <speed>19.66</speed>
  <fix>3d</fix>
</trkpt>
<trkpt lat="-27.2717266" lon="151.2925555">
  <ele>373.38</ele>
  <time>2026-09-01T19:57:22Z</time>
  <course>106.39</course>
  <speed>20.649602901750917</speed>
  <fix>3d</fix>
</trkpt>
<trkpt lat="-27.2717124" lon="151.2924974">
  <ele>373.39</ele>
  <time>2026-09-01T19:57:22Z</time>
  <course>102.77</course>
  <speed>19.66</speed>
  <fix>3d</fix>
</trkpt>
<trkpt lat="-27.2717324" lon="151.2925754">
  <ele>373.38</ele>
  <time>2026-09-01T19:57:22Z</time>
  <course>108.24</course>
  <speed>20.94894746759369</speed>
  <fix>3d</fix>
</trkpt>
<trkpt lat="-27.2717212" lon="151.2925366">
  <ele>373.39</ele>
  <time>2026-09-01T19:57:22Z</time>
  <course>105.71</course>
  <speed>20.35</speed>
  <fix>3d</fix>
</trkpt>
<trkpt lat="-27.2717388" lon="151.2925953">
  <ele>373.39</ele>
  <time>2026-09-01T19:57:22Z</time>
  <course>110.21</course>
  <speed>21.252324578737262</speed>
  <fix>3d</fix>
</trkpt>
<trkpt lat="-27.2717212" lon="151.2925366">
  <ele>373.39</ele>
  <time>2026-09-01T19:57:22Z</time>
  <course>105.71</course>
  <speed>20.35</speed>
  <fix>3d</fix>
</trkpt>
<trkpt lat="-27.271746" lon="151.2926153">
  <ele>373.41</ele>
  <time>2026-09-01T19:57:22Z</time>
  <course>112.28</course>
  <speed>21.534256430162618</speed>
  <fix>3d</fix>
</trkpt>
<trkpt lat="-27.2717323" lon="151.2925765">
  <ele>373.39</ele>
  <time>2026-09-01T19:57:22Z</time>
  <course>109.15</course>
  <speed>20.98</speed>
  <fix>3d</fix>
</trkpt>
<trkpt lat="-27.2717539" lon="151.2926352">
  <ele>373.43</ele>
  <time>2026-09-01T19:57:22Z</time>
  <course>114.43</course>
  <speed>21.80150682865751</speed>
  <fix>3d</fix>
</trkpt>
<trkpt lat="-27.2717323" lon="151.2925765">
  <ele>373.39</ele>
  <time>2026-09-01T19:57:22Z</time>
  <course>109.15</course>
  <speed>20.98</speed>
  <fix>3d</fix>
</trkpt>
<trkpt lat="-27.2717627" lon="151.2926551">
  <ele>373.45</ele>
  <time>2026-09-01T19:57:22Z</time>
  <course>116.73</course>
  <speed>22.065670168839198</speed>
  <fix>3d</fix>
</trkpt>
<trkpt lat="-27.2717461" lon="151.2926166">
  <ele>373.41</ele>
  <time>2026-09-01T19:57:22Z</time>
  <course>113.14</course>
  <speed>21.57</speed>
  <fix>3d</fix>
</trkpt>
<trkpt lat="-27.2717723" lon="151.2926747">
  <ele>373.47</ele>
  <time>2026-09-01T19:57:22Z</time>
  <course>119.03</course>
  <speed>22.324390249231893</speed>
  <fix>3d</fix>
</trkpt>
<trkpt lat="-27.2717461" lon="151.2926166">
  <ele>373.41</ele>
  <time>2026-09-01T19:57:22Z</time>
  <course>113.14</course>
  <speed>21.57</speed>
  <fix>3d</fix>
</trkpt>
<trkpt lat="-27.2717827" lon="151.2926941">
  <ele>373.51</ele>
  <time>2026-09-01T19:57:22Z</time>
  <course>121.39</course>
  <speed>22.57423531373765</speed>
  <fix>3d</fix>
</trkpt>
<trkpt lat="-27.2717629" lon="151.2926565">
  <ele>373.46</ele>
  <time>2026-09-01T19:57:22Z</time>
  <course>117.63</course>
  <speed>22.11</speed>
  <fix>3d</fix>
</trkpt>
<trkpt lat="-27.2717941" lon="151.2927131">
  <ele>373.54</ele>
  <time>2026-09-01T19:57:22Z</time>
  <course>123.88</course>
  <speed>22.815034516739175</speed>
  <fix>3d</fix>
</trkpt>
<trkpt lat="-27.2717629" lon="151.2926565">
  <ele>373.46</ele>
  <time>2026-09-01T19:57:22Z</time>
  <course>117.63</course>
  <speed>22.11</speed>
  <fix>3d</fix>
</trkpt>
<trkpt lat="-27.2718063" lon="151.2927318">
  <ele>373.59</ele>
  <time>2026-09-01T19:57:22Z</time>
  <course>126.4</course>
  <speed>23.053470454575812</speed>
  <fix>3d</fix>
</trkpt>
<trkpt lat="-27.2717831" lon="151.2926957">
  <ele>373.52</ele>
  <time>2026-09-01T19:57:22Z</time>
  <course>122.53</course>
  <speed>22.62</speed>
  <fix>3d</fix>
</trkpt>
<trkpt lat="-27.2718194" lon="151.29275">
  <ele>373.63</ele>
  <time>2026-09-01T19:57:22Z</time>
  <course>129.0</course>
  <speed>23.2712376121254</speed>
  <fix>3d</fix>
</trkpt>
<trkpt lat="-27.2717831" lon="151.2926957">
  <ele>373.52</ele>
  <time>2026-09-01T19:57:22Z</time>
  <course>122.53</course>
  <speed>22.62</speed>
  <fix>3d</fix>
</trkpt>
<trkpt lat="-27.2718334" lon="151.2927677">
  <ele>373.68</ele>
  <time>2026-09-01T19:57:22Z</time>
  <course>131.65</course>
  <speed>23.49387366953351</speed>
  <fix>3d</fix>
</trkpt>
<trkpt lat="-27.2718068" lon="151.2927336">
  <ele>373.6</ele>
  <time>2026-09-01T19:57:22Z</time>
  <course>127.71</course>
  <speed>23.09</speed>
  <fix>3d</fix>
</trkpt>
<trkpt lat="-27.2718483" lon="151.2927848">
  <ele>373.74</ele>
  <time>2026-09-01T19:57:22Z</time>
  <course>134.29</course>
  <speed>23.6988206457621</speed>
  <fix>3d</fix>
</trkpt>
<trkpt lat="-27.2718068" lon="151.2927336">
  <ele>373.6</ele>
  <time>2026-09-01T19:57:22Z</time>
  <course>127.71</course>
  <speed>23.09</speed>
  <fix>3d</fix>
</trkpt>
<trkpt lat="-27.271864" lon="151.2928012">
  <ele>373.79</ele>
  <time>2026-09-01T19:57:22Z</time>
  <course>137.01</course>
  <speed>23.909370547967175</speed>
  <fix>3d</fix>
</trkpt>
<trkpt lat="-27.2718339" lon="151.2927694">
  <ele>373.7</ele>
  <time>2026-09-01T19:57:22Z</time>
  <course>133.08</course>
  <speed>23.52</speed>
  <fix>3d</fix>
</trkpt>
<trkpt lat="-27.2718805" lon="151.2928168">
  <ele>373.85</ele>
  <time>2026-09-01T19:57:22Z</time>
  <course>139.82</course>
  <speed>24.10092944265843</speed>
  <fix>3d</fix>
</trkpt>
<trkpt lat="-27.2718339" lon="151.2927694">
  <ele>373.7</ele>
  <time>2026-09-01T19:57:22Z</time>
  <course>133.08</course>
  <speed>23.52</speed>
  <fix>3d</fix>
</trkpt>
<trkpt lat="-27.2718979" lon="151.2928317">
  <ele>373.91</ele>
  <time>2026-09-01T19:57:22Z</time>
  <course>142.64</course>
  <speed>24.303911207869405</speed>
  <fix>3d</fix>
</trkpt>
<trkpt lat="-27.2718645" lon="151.2928028">
  <ele>373.81</ele>
  <time>2026-09-01T19:57:22Z</time>
  <course>138.6</course>
  <speed>23.92</speed>
  <fix>3d</fix>
</trkpt>
<trkpt lat="-27.271916" lon="151.2928456">
  <ele>373.97</ele>
  <time>2026-09-01T19:57:22Z</time>
  <course>145.44</course>
  <speed>24.487907219687028</speed>
  <fix>3d</fix>
</trkpt>
<trkpt lat="-27.2718645" lon="151.2928028">
  <ele>373.81</ele>
  <time>2026-09-01T19:57:22Z</time>
  <course>138.6</course>
  <speed>23.92</speed>
  <fix>3d</fix>
</trkpt>
<trkpt lat="-27.2719348" lon="151.2928587">
  <ele>374.03</ele>
  <time>2026-09-01T19:57:22Z</time>
  <course>148.23</course>
  <speed>24.669337242820287</speed>
  <fix>3d</fix>
</trkpt>
<trkpt lat="-27.2718983" lon="151.2928332">
  <ele>373.93</ele>
  <time>2026-09-01T19:57:22Z</time>
  <course>144.23</course>
  <speed>24.3</speed>
  <fix>3d</fix>
</trkpt>
<trkpt lat="-27.2719543" lon="151.2928707">
  <ele>374.09</ele>
  <time>2026-09-01T19:57:22Z</time>
  <course>151.04</course>
  <speed>24.852438512146044</speed>
  <fix>3d</fix>
</trkpt>
<trkpt lat="-27.2718983" lon="151.2928332">
  <ele>373.93</ele>
  <time>2026-09-01T19:57:22Z</time>
  <course>144.23</course>
  <speed>24.3</speed>
  <fix>3d</fix>
</trkpt>
<trkpt lat="-27.2719745" lon="151.2928817">
  <ele>374.16</ele>
  <time>2026-09-01T19:57:22Z</time>
  <course>153.86</course>
  <speed>25.01219702465179</speed>
  <fix>3d</fix>
</trkpt>
<trkpt lat="-27.2719352" lon="151.29286">
  <ele>374.06</ele>
  <time>2026-09-01T19:57:22Z</time>
  <course>149.94</course>
  <speed>24.66</speed>
  <fix>3d</fix>
</trkpt>
<trkpt lat="-27.2719952" lon="151.2928916">
  <ele>374.22</ele>
  <time>2026-09-01T19:57:22Z</time>
  <course>156.72</course>
  <speed>25.17190894628375</speed>
  <fix>3d</fix>
</trkpt>
<trkpt lat="-27.2719352" lon="151.29286">
  <ele>374.06</ele>
  <time>2026-09-01T19:57:22Z</time>
  <course>149.94</course>
  <speed>24.66</speed>
  <fix>3d</fix>
</trkpt>
<trkpt lat="-27.2720165" lon="151.2929004">
  <ele>374.28</ele>
  <time>2026-09-01T19:57:22Z</time>
  <course>159.52</course>
  <speed>25.333008111947542</speed>
  <fix>3d</fix>
</trkpt>
<trkpt lat="-27.2719748" lon="151.292883">
  <ele>374.2</ele>
  <time>2026-09-01T19:57:22Z</time>
  <course>155.65</course>
  <speed>24.99</speed>
  <fix>3d</fix>
</trkpt>
<trkpt lat="-27.2720383" lon="151.292908">
  <ele>374.35</ele>
  <time>2026-09-01T19:57:22Z</time>
  <course>162.31</course>
  <speed>25.487742151865863</speed>
  <fix>3d</fix>
</trkpt>
<trkpt lat="-27.2719748" lon="151.292883">
  <ele>374.2</ele>
  <time>2026-09-01T19:57:22Z</time>
  <course>155.65</course>
  <speed>24.99</speed>
  <fix>3d</fix>
</trkpt>
<trkpt lat="-27.2720605" lon="151.2929144">
  <ele>374.41</ele>
  <time>2026-09-01T19:57:22Z</time>
  <course>165.16</course>
  <speed>25.632705670685645</speed>
  <fix>3d</fix>
</trkpt>
<trkpt lat="-27.2720169" lon="151.2929015">
  <ele>374.33</ele>
  <time>2026-09-01T19:57:22Z</time>
  <course>161.37</course>
  <speed>25.31</speed>
  <fix>3d</fix>
</trkpt>
<trkpt lat="-27.2720831" lon="151.2929196">
  <ele>374.47</ele>
  <time>2026-09-01T19:57:22Z</time>
  <course>167.96</course>
  <speed>25.76544197175744</speed>
  <fix>3d</fix>
</trkpt>
<trkpt lat="-27.2720169" lon="151.2929015">
  <ele>374.33</ele>
  <time>2026-09-01T19:57:22Z</time>
  <course>161.37</course>
  <speed>25.31</speed>
  <fix>3d</fix>
</trkpt>
<trkpt lat="-27.272106" lon="151.2929236">
  <ele>374.53</ele>
  <time>2026-09-01T19:57:22Z</time>
  <course>170.79</course>
  <speed>25.899693048374143</speed>
  <fix>3d</fix>
</trkpt>
<trkpt lat="-27.2720609" lon="151.2929155">
  <ele>374.46</ele>
  <time>2026-09-01T19:57:22Z</time>
  <course>167.07</course>
  <speed>25.6</speed>
  <fix>3d</fix>
</trkpt>
<trkpt lat="-27.2721289" lon="151.2929263">
  <ele>374.59</ele>
  <time>2026-09-01T19:57:22Z</time>
  <course>173.51</course>
  <speed>26.024669066099573</speed>
  <fix>3d</fix>
</trkpt>
<trkpt lat="-27.2720609" lon="151.2929155">
  <ele>374.46</ele>
  <time>2026-09-01T19:57:22Z</time>
  <course>167.07</course>
  <speed>25.6</speed>
  <fix>3d</fix>
</trkpt>
<trkpt lat="-27.2721523" lon="151.2929277">
  <ele>374.64</ele>
  <time>2026-09-01T19:57:22Z</time>
  <course>176.23</course>
  <speed>26.149913957793437</speed>
  <fix>3d</fix>
</trkpt>
<trkpt lat="-27.2721064" lon="151.2929246">
  <ele>374.59</ele>
  <time>2026-09-01T19:57:22Z</time>
  <course>172.72</course>
  <speed>25.87</speed>
  <fix>3d</fix>
</trkpt>
<trkpt lat="-27.2721758" lon="151.2929279">
  <ele>374.7</ele>
  <time>2026-09-01T19:57:22Z</time>
  <course>178.91</course>
  <speed>26.25514997100569</speed>
  <fix>3d</fix>
</trkpt>
<trkpt lat="-27.2721064" lon="151.2929246">
  <ele>374.59</ele>
  <time>2026-09-01T19:57:22Z</time>
  <course>172.72</course>
  <speed>25.87</speed>
  <fix>3d</fix>
</trkpt>
<trkpt lat="-27.2721993" lon="151.2929269">
  <ele>374.75</ele>
  <time>2026-09-01T19:57:22Z</time>
  <course>181.51</course>
  <speed>26.36747428177375</speed>
  <fix>3d</fix>
</trkpt>
<trkpt lat="-27.2721529" lon="151.2929287">
  <ele>374.7</ele>
  <time>2026-09-01T19:57:22Z</time>
  <course>178.29</course>
  <speed>26.11</speed>
  <fix>3d</fix>
</trkpt>
<trkpt lat="-27.2722231" lon="151.2929246">
  <ele>374.8</ele>
  <time>2026-09-01T19:57:22Z</time>
  <course>184.06</course>
  <speed>26.475983456710345</speed>
  <fix>3d</fix>
</trkpt>
<trkpt lat="-27.2721529" lon="151.2929287">
  <ele>374.7</ele>
  <time>2026-09-01T19:57:22Z</time>
  <course>178.29</course>
  <speed>26.11</speed>
  <fix>3d</fix>
</trkpt>
<trkpt lat="-27.2722467" lon="151.2929211">
  <ele>374.85</ele>
  <time>2026-09-01T19:57:22Z</time>
  <course>186.52</course>
  <speed>26.563028818265433</speed>
  <fix>3d</fix>
</trkpt>
<trkpt lat="-27.2722001" lon="151.2929277">
  <ele>374.81</ele>
  <time>2026-09-01T19:57:22Z</time>
  <course>183.7</course>
  <speed>26.33</speed>
  <fix>3d</fix>
</trkpt>
<trkpt lat="-27.2722704" lon="151.2929165">
  <ele>374.89</ele>
  <time>2026-09-01T19:57:23Z</time>
  <course>188.91</course>
  <speed>26.646337459395806</speed>
  <fix>3d</fix>
</trkpt>
<trkpt lat="-27.2722001" lon="151.2929277">
  <ele>374.81</ele>
  <time>2026-09-01T19:57:23Z</time>
  <course>183.7</course>
  <speed>26.33</speed>
  <fix>3d</fix>
</trkpt>
<trkpt lat="-27.2722937" lon="151.2929107">
  <ele>374.93</ele>
  <time>2026-09-01T19:57:23Z</time>
  <course>191.19</course>
  <speed>26.715632128025717</speed>
  <fix>3d</fix>
</trkpt>
<trkpt lat="-27.2722474" lon="151.2929219">
  <ele>374.9</ele>
  <time>2026-09-01T19:57:23Z</time>
  <course>188.84</course>
  <speed>26.53</speed>
  <fix>3d</fix>
</trkpt>
<trkpt lat="-27.2723169" lon="151.2929038">
  <ele>374.97</ele>
  <time>2026-09-01T19:57:23Z</time>
  <course>193.37</course>
  <speed>26.78944941576814</speed>
  <fix>3d</fix>
</trkpt>
<trkpt lat="-27.2722474" lon="151.2929219">
  <ele>374.9</ele>
  <time>2026-09-01T19:57:23Z</time>
  <course>188.84</course>
  <speed>26.53</speed>
  <fix>3d</fix>
</trkpt>
<trkpt lat="-27.2723399" lon="151.292896">
  <ele>375.0</ele>
  <time>2026-09-01T19:57:23Z</time>
  <course>195.45</course>
  <speed>26.854277126744634</speed>
  <fix>3d</fix>
</trkpt>
<trkpt lat="-27.2722943" lon="151.2929114">
  <ele>374.99</ele>
  <time>2026-09-01T19:57:23Z</time>
  <course>193.65</course>
  <speed>26.69</speed>
  <fix>3d</fix>
</trkpt>
<trkpt lat="-27.2723627" lon="151.2928871">
  <ele>375.02</ele>
  <time>2026-09-01T19:57:23Z</time>
  <course>197.43</course>
  <speed>26.905761464786682</speed>
  <fix>3d</fix>
</trkpt>
<trkpt lat="-27.2722943" lon="151.2929114">
  <ele>374.99</ele>
  <time>2026-09-01T19:57:23Z</time>
  <course>193.65</course>
  <speed>26.69</speed>
  <fix>3d</fix>
</trkpt>
<trkpt lat="-27.2723852" lon="151.2928773">
  <ele>375.05</ele>
  <time>2026-09-01T19:57:23Z</time>
  <course>199.32</course>
  <speed>26.950669750490434</speed>
  <fix>3d</fix>
</trkpt>
<trkpt lat="-27.2723405" lon="151.2928966">
  <ele>375.06</ele>
  <time>2026-09-01T19:57:23Z</time>
  <course>198.1</course>
  <speed>26.83</speed>
  <fix>3d</fix>
</trkpt>
<trkpt lat="-27.2724075" lon="151.2928667">
  <ele>375.06</ele>
  <time>2026-09-01T19:57:23Z</time>
  <course>201.18</course>
  <speed>26.99203586245395</speed>
  <fix>3d</fix>
</trkpt>
<trkpt lat="-27.2723405" lon="151.2928966">
  <ele>375.06</ele>
  <time>2026-09-01T19:57:23Z</time>
  <course>198.1</course>
  <speed>26.83</speed>
  <fix>3d</fix>
</trkpt>
<trkpt lat="-27.2724295" lon="151.2928553">
  <ele>375.07</ele>
  <time>2026-09-01T19:57:23Z</time>
  <course>202.92</course>
  <speed>27.022510986212957</speed>
  <fix>3d</fix>
</trkpt>
<trkpt lat="-27.2723858" lon="151.2928779">
  <ele>375.1</ele>
  <time>2026-09-01T19:57:23Z</time>
  <course>202.16</course>
  <speed>26.93</speed>
  <fix>3d</fix>
</trkpt>
<trkpt lat="-27.2724511" lon="151.292843">
  <ele>375.07</ele>
  <time>2026-09-01T19:57:23Z</time>
  <course>204.58</course>
  <speed>27.047399135591576</speed>
  <fix>3d</fix>
</trkpt>
<trkpt lat="-27.2723858" lon="151.2928779">
  <ele>375.1</ele>
  <time>2026-09-01T19:57:23Z</time>
  <course>202.16</course>
  <speed>26.93</speed>
  <fix>3d</fix>
</trkpt>
<trkpt lat="-27.2724725" lon="151.2928301">
  <ele>375.07</ele>
  <time>2026-09-01T19:57:23Z</time>
  <course>206.14</course>
  <speed>27.066896756000677</speed>
  <fix>3d</fix>
</trkpt>
<trkpt lat="-27.27243" lon="151.2928556">
  <ele>375.12</ele>
  <time>2026-09-01T19:57:23Z</time>
  <course>205.84</course>
  <speed>27.01</speed>
  <fix>3d</fix>
</trkpt>
<trkpt lat="-27.2724936" lon="151.2928165">
  <ele>375.06</ele>
  <time>2026-09-01T19:57:23Z</time>
  <course>207.59</course>
  <speed>27.08166353826884</speed>
  <fix>3d</fix>
</trkpt>
<trkpt lat="-27.27243" lon="151.2928556">
  <ele>375.12</ele>
  <time>2026-09-01T19:57:23Z</time>
  <course>205.84</course>
  <speed>27.01</speed>
  <fix>3d</fix>
</trkpt>
<trkpt lat="-27.2725143" lon="151.2928023">
  <ele>375.04</ele>
  <time>2026-09-01T19:57:23Z</time>
  <course>208.98</course>
  <speed>27.093587802282663</speed>
  <fix>3d</fix>
</trkpt>
<trkpt lat="-27.2724731" lon="151.2928303">
  <ele>375.12</ele>
  <time>2026-09-01T19:57:23Z</time>
  <course>209.16</course>
  <speed>27.07</speed>
  <fix>3d</fix>
</trkpt>
<trkpt lat="-27.2725348" lon="151.2927876">
  <ele>375.02</ele>
  <time>2026-09-01T19:57:23Z</time>
  <course>210.28</course>
  <speed>27.102938955028478</speed>
  <fix>3d</fix>
</trkpt>
<trkpt lat="-27.2724731" lon="151.2928303">
  <ele>375.12</ele>
  <time>2026-09-01T19:57:23Z</time>
  <course>209.16</course>
  <speed>27.07</speed>
  <fix>3d</fix>
</trkpt>
<trkpt lat="-27.2725549" lon="151.2927723">
  <ele>375.0</ele>
  <time>2026-09-01T19:57:23Z</time>
  <course>211.57</course>
  <speed>27.103883485581914</speed>
  <fix>3d</fix>
</trkpt>
<trkpt lat="-27.2725149" lon="151.2928024">
  <ele>375.09</ele>
  <time>2026-09-01T19:57:23Z</time>
  <course>212.1</course>
  <speed>27.1</speed>
  <fix>3d</fix>
</trkpt>
<trkpt lat="-27.2725748" lon="151.2927565">
  <ele>374.97</ele>
  <time>2026-09-01T19:57:23Z</time>
  <course>212.78</course>
  <speed>27.10235783100799</speed>
  <fix>3d</fix>
</trkpt>
<trkpt lat="-27.2725149" lon="151.2928024">
  <ele>375.09</ele>
  <time>2026-09-01T19:57:23Z</time>
  <course>212.1</course>
  <speed>27.1</speed>
  <fix>3d</fix>
</trkpt>
<trkpt lat="-27.2725942" lon="151.2927405">
  <ele>374.94</ele>
  <time>2026-09-01T19:57:23Z</time>
  <course>213.89</course>
  <speed>27.110016599035863</speed>
  <fix>3d</fix>
</trkpt>
<trkpt lat="-27.2725555" lon="151.2927722">
  <ele>375.05</ele>
  <time>2026-09-01T19:57:23Z</time>
  <course>214.69</course>
  <speed>27.11</speed>
  <fix>3d</fix>
</trkpt>
<trkpt lat="-27.2726135" lon="151.2927238">
  <ele>374.9</ele>
  <time>2026-09-01T19:57:23Z</time>
  <course>215.1</course>
  <speed>27.094990311863924</speed>
  <fix>3d</fix>
</trkpt>
<trkpt lat="-27.2725555" lon="151.2927722">
  <ele>375.05</ele>
  <time>2026-09-01T19:57:23Z</time>
  <course>214.69</course>
  <speed>27.11</speed>
  <fix>3d</fix>
</trkpt>
<trkpt lat="-27.2726326" lon="151.2927068">
  <ele>374.87</ele>
  <time>2026-09-01T19:57:23Z</time>
  <course>216.3</course>
  <speed>27.06847797716007</speed>
  <fix>3d</fix>
</trkpt>
<trkpt lat="-27.272595" lon="151.2927401">
  <ele>374.98</ele>
  <time>2026-09-01T19:57:23Z</time>
  <course>216.98</course>
  <speed>27.11</speed>
  <fix>3d</fix>
</trkpt>
<trkpt lat="-27.2726513" lon="151.2926895">
  <ele>374.85</ele>
  <time>2026-09-01T19:57:23Z</time>
  <course>217.29</course>
  <speed>27.02986681432226</speed>
  <fix>3d</fix>
</trkpt>
<trkpt lat="-27.272595" lon="151.2927401">
  <ele>374.98</ele>
  <time>2026-09-01T19:57:23Z</time>
  <course>216.98</course>
  <speed>27.11</speed>
  <fix>3d</fix>
</trkpt>
<trkpt lat="-27.27267" lon="151.2926718">
  <ele>374.82</ele>
  <time>2026-09-01T19:57:23Z</time>
  <course>218.16</course>
  <speed>26.988354896139928</speed>
  <fix>3d</fix>
</trkpt>
<trkpt lat="-27.2726334" lon="151.2927063">
  <ele>374.92</ele>
  <time>2026-09-01T19:57:23Z</time>
  <course>218.99</course>
  <speed>27.08</speed>
  <fix>3d</fix>
</trkpt>
<trkpt lat="-27.2726884" lon="151.292654">
  <ele>374.8</ele>
  <time>2026-09-01T19:57:23Z</time>
  <course>218.97</course>
  <speed>26.941390090342406</speed>
  <fix>3d</fix>
</trkpt>
<trkpt lat="-27.2726334" lon="151.2927063">
  <ele>374.92</ele>
  <time>2026-09-01T19:57:23Z</time>
  <course>218.99</course>
  <speed>27.08</speed>
  <fix>3d</fix>
</trkpt>
<trkpt lat="-27.2727065" lon="151.292636">
  <ele>374.76</ele>
  <time>2026-09-01T19:57:23Z</time>
  <course>219.61</course>
  <speed>26.898485087454272</speed>
  <fix>3d</fix>
</trkpt>
<trkpt lat="-27.2726708" lon="151.2926713">
  <ele>374.86</ele>
  <time>2026-09-01T19:57:23Z</time>
  <course>220.54</course>
  <speed>27.01</speed>
  <fix>3d</fix>
</trkpt>
<trkpt lat="-27.2727252" lon="151.2926174">
  <ele>374.71</ele>
  <time>2026-09-01T19:57:23Z</time>
  <course>220.14</course>
  <speed>26.844822592075367</speed>
  <fix>3d</fix>
</trkpt>
<trkpt lat="-27.2727073" lon="151.2926355">
  <ele>374.78</ele>
  <time>2026-09-01T19:57:23Z</time>
  <course>221.59</course>
  <speed>26.92</speed>
  <fix>3d</fix>
</trkpt>
<trkpt lat="-27.2727429" lon="151.2925994">
  <ele>374.65</ele>
  <time>2026-09-01T19:57:23Z</time>
  <course>220.67</course>
  <speed>26.801302207168966</speed>
  <fix>3d</fix>
</trkpt>
<trkpt lat="-27.2727073" lon="151.2926355">
  <ele>374.78</ele>
  <time>2026-09-01T19:57:23Z</time>
  <course>221.59</course>
  <speed>26.92</speed>
  <fix>3d</fix>
</trkpt>
<trkpt lat="-27.2727607" lon="151.2925811">
  <ele>374.59</ele>
  <time>2026-09-01T19:57:23Z</time>
  <course>221.04</course>
  <speed>26.753781041191168</speed>
  <fix>3d</fix>
</trkpt>
<trkpt lat="-27.2727432" lon="151.2925991">
  <ele>374.69</ele>
  <time>2026-09-01T19:57:23Z</time>
  <course>222.33</course>
  <speed>26.82</speed>
  <fix>3d</fix>
</trkpt>
<trkpt lat="-27.2727783" lon="151.2925628">
  <ele>374.51</ele>
  <time>2026-09-01T19:57:23Z</time>
  <course>221.53</course>
  <speed>26.714627079560742</speed>
  <fix>3d</fix>
</trkpt>
<trkpt lat="-27.2727432" lon="151.2925991">
  <ele>374.69</ele>
  <time>2026-09-01T19:57:23Z</time>
  <course>222.33</course>
  <speed>26.82</speed>
  <fix>3d</fix>
</trkpt>
<trkpt lat="-27.272796" lon="151.2925445">
  <ele>374.42</ele>
  <time>2026-09-01T19:57:23Z</time>
  <course>222.21</course>
  <speed>26.683629813052047</speed>
  <fix>3d</fix>
</trkpt>
<trkpt lat="-27.2727786" lon="151.2925625">
  <ele>374.55</ele>
  <time>2026-09-01T19:57:23Z</time>
  <course>222.79</course>
  <speed>26.74</speed>
  <fix>3d</fix>
</trkpt>
<trkpt lat="-27.2728136" lon="151.2925259">
  <ele>374.33</ele>
  <time>2026-09-01T19:57:23Z</time>
  <course>222.99</course>
  <speed>26.644541654905606</speed>
  <fix>3d</fix>
</trkpt>
<trkpt lat="-27.2727786" lon="151.2925625">
  <ele>374.55</ele>
  <time>2026-09-01T19:57:23Z</time>
  <course>222.79</course>
  <speed>26.74</speed>
  <fix>3d</fix>
</trkpt>
<trkpt lat="-27.2728306" lon="151.2925079">
  <ele>374.24</ele>
  <time>2026-09-01T19:57:23Z</time>
  <course>223.76</course>
  <speed>26.610753465469557</speed>
  <fix>3d</fix>
</trkpt>
<trkpt lat="-27.2727786" lon="151.2925625">
  <ele>374.55</ele>
  <time>2026-09-01T19:57:23Z</time>
  <course>222.79</course>
  <speed>26.74</speed>
  <fix>3d</fix>
</trkpt>
<trkpt lat="-27.2728479" lon="151.2924893">
  <ele>374.16</ele>
  <time>2026-09-01T19:57:23Z</time>
  <course>224.46</course>
  <speed>26.57645950836943</speed>
  <fix>3d</fix>
</trkpt>
<trkpt lat="-27.2728137" lon="151.2925257">
  <ele>374.38</ele>
  <time>2026-09-01T19:57:23Z</time>
  <course>223.26</course>
  <speed>26.66</speed>
  <fix>3d</fix>
</trkpt>
<trkpt lat="-27.2728649" lon="151.2924704">
  <ele>374.08</ele>
  <time>2026-09-01T19:57:23Z</time>
  <course>225.03</course>
  <speed>26.55188317238534</speed>
  <fix>3d</fix>
</trkpt>
<trkpt lat="-27.2728137" lon="151.2925257">
  <ele>374.38</ele>
  <time>2026-09-01T19:57:23Z</time>
  <course>223.26</course>
  <speed>26.66</speed>
  <fix>3d</fix>
</trkpt>
<trkpt lat="-27.2728816" lon="151.2924513">
  <ele>374.0</ele>
  <time>2026-09-01T19:57:23Z</time>
  <course>225.63</course>
  <speed>26.520610852693423</speed>
  <fix>3d</fix>
</trkpt>
<trkpt lat="-27.2728483" lon="151.2924885">
  <ele>374.21</ele>
  <time>2026-09-01T19:57:23Z</time>
  <course>224.27</course>
  <speed>26.59</speed>
  <fix>3d</fix>
</trkpt>
<trkpt lat="-27.2728979" lon="151.2924318">
  <ele>373.94</ele>
  <time>2026-09-01T19:57:23Z</time>
  <course>226.31</course>
  <speed>26.494754197765264</speed>
  <fix>3d</fix>
</trkpt>
<trkpt lat="-27.2728483" lon="151.2924885">
  <ele>374.21</ele>
  <time>2026-09-01T19:57:23Z</time>
  <course>224.27</course>
  <speed>26.59</speed>
  <fix>3d</fix>
</trkpt>
<trkpt lat="-27.2729139" lon="151.2924119">
  <ele>373.87</ele>
  <time>2026-09-01T19:57:23Z</time>
  <course>227.26</course>
  <speed>26.48607558699476</speed>
  <fix>3d</fix>
</trkpt>
<trkpt lat="-27.2728819" lon="151.2924504">
  <ele>374.05</ele>
  <time>2026-09-01T19:57:23Z</time>
  <course>226.13</course>
  <speed>26.53</speed>
  <fix>3d</fix>
</trkpt>
<trkpt lat="-27.2729293" lon="151.2923915">
  <ele>373.82</ele>
  <time>2026-09-01T19:57:23Z</time>
  <course>228.5</course>
  <speed>26.475469778646044</speed>
  <fix>3d</fix>
</trkpt>
<trkpt lat="-27.2728819" lon="151.2924504">
  <ele>374.05</ele>
  <time>2026-09-01T19:57:23Z</time>
  <course>226.13</course>
  <speed>26.53</speed>
  <fix>3d</fix>
</trkpt>
<trkpt lat="-27.2729442" lon="151.2923708">
  <ele>373.78</ele>
  <time>2026-09-01T19:57:23Z</time>
  <course>229.94</course>
  <speed>26.45798556201889</speed>
  <fix>3d</fix>
</trkpt>
<trkpt lat="-27.2729142" lon="151.292411">
  <ele>373.92</ele>
  <time>2026-09-01T19:57:23Z</time>
  <course>228.72</course>
  <speed>26.48</speed>
  <fix>3d</fix>
</trkpt>
<trkpt lat="-27.2729587" lon="151.2923496">
  <ele>373.74</ele>
  <time>2026-09-01T19:57:23Z</time>
  <course>231.48</course>
  <speed>26.45018903524132</speed>
  <fix>3d</fix>
</trkpt>
<trkpt lat="-27.2729142" lon="151.292411">
  <ele>373.92</ele>
  <time>2026-09-01T19:57:23Z</time>
  <course>228.72</course>
  <speed>26.48</speed>
  <fix>3d</fix>
</trkpt>
<trkpt lat="-27.2729726" lon="151.2923278">
  <ele>373.72</ele>
  <time>2026-09-01T19:57:23Z</time>
  <course>233.05</course>
  <speed>26.449725896500325</speed>
  <fix>3d</fix>
</trkpt>
<trkpt lat="-27.2729446" lon="151.29237">
  <ele>373.83</ele>
  <time>2026-09-01T19:57:23Z</time>
  <course>231.74</course>
  <speed>26.45</speed>
  <fix>3d</fix>
</trkpt>
<trkpt lat="-27.2729859" lon="151.2923057">
  <ele>373.69</ele>
  <time>2026-09-01T19:57:23Z</time>
  <course>234.7</course>
  <speed>26.448646468203247</speed>
  <fix>3d</fix>
</trkpt>
<trkpt lat="-27.2729446" lon="151.29237">
  <ele>373.83</ele>
  <time>2026-09-01T19:57:23Z</time>
  <course>231.74</course>
  <speed>26.45</speed>
  <fix>3d</fix>
</trkpt>
<trkpt lat="-27.2729987" lon="151.292283">
  <ele>373.66</ele>
  <time>2026-09-01T19:57:23Z</time>
  <course>236.39</course>
  <speed>26.458422099588628</speed>
  <fix>3d</fix>
</trkpt>
<trkpt lat="-27.272973" lon="151.292327">
  <ele>373.77</ele>
  <time>2026-09-01T19:57:23Z</time>
  <course>235.0</course>
  <speed>26.44</speed>
  <fix>3d</fix>
</trkpt>
<trkpt lat="-27.2730109" lon="151.2922598">
  <ele>373.63</ele>
  <time>2026-09-01T19:57:23Z</time>
  <course>238.13</course>
  <speed>26.46653169570958</speed>
  <fix>3d</fix>
</trkpt>
<trkpt lat="-27.272973" lon="151.292327">
  <ele>373.77</ele>
  <time>2026-09-01T19:57:23Z</time>
  <course>235.0</course>
  <speed>26.44</speed>
  <fix>3d</fix>
</trkpt>
<trkpt lat="-27.2730224" lon="151.2922363">
  <ele>373.6</ele>
  <time>2026-09-01T19:57:23Z</time>
  <course>239.91</course>
  <speed>26.486604161349188</speed>
  <fix>3d</fix>
</trkpt>
<trkpt lat="-27.2729991" lon="151.2922823">
  <ele>373.72</ele>
  <time>2026-09-01T19:57:23Z</time>
  <course>238.45</course>
  <speed>26.44</speed>
  <fix>3d</fix>
</trkpt>
<trkpt lat="-27.2730332" lon="151.2922124">
  <ele>373.57</ele>
  <time>2026-09-01T19:57:23Z</time>
  <course>241.82</course>
  <speed>26.50799313414729</speed>
  <fix>3d</fix>
</trkpt>
<trkpt lat="-27.2729991" lon="151.2922823">
  <ele>373.72</ele>
  <time>2026-09-01T19:57:23Z</time>
  <course>238.45</course>
  <speed>26.44</speed>
  <fix>3d</fix>
</trkpt>
<trkpt lat="-27.2730436" lon="151.2921872">
  <ele>373.55</ele>
  <time>2026-09-01T19:57:23Z</time>
  <course>243.77</course>
  <speed>26.517831736399568</speed>
  <fix>3d</fix>
</trkpt>
<trkpt lat="-27.2730226" lon="151.2922358">
  <ele>373.67</ele>
  <time>2026-09-01T19:57:23Z</time>
  <course>242.13</course>
  <speed>26.46</speed>
  <fix>3d</fix>
</trkpt>
<trkpt lat="-27.2730528" lon="151.2921627">
  <ele>373.53</ele>
  <time>2026-09-01T19:57:23Z</time>
  <course>245.65</course>
  <speed>26.521087835908993</speed>
  <fix>3d</fix>
</trkpt>
<trkpt lat="-27.2730434" lon="151.2921877">
  <ele>373.63</ele>
  <time>2026-09-01T19:57:23Z</time>
  <course>245.99</course>
  <speed>26.48</speed>
  <fix>3d</fix>
</trkpt>
<trkpt lat="-27.2730613" lon="151.2921377">
  <ele>373.52</ele>
  <time>2026-09-01T19:57:23Z</time>
  <course>247.42</course>
  <speed>26.523578189980327</speed>
  <fix>3d</fix>
</trkpt>
<trkpt lat="-27.2730434" lon="151.2921877">
  <ele>373.63</ele>
  <time>2026-09-01T19:57:23Z</time>
  <course>245.99</course>
  <speed>26.48</speed>
  <fix>3d</fix>
</trkpt>
<trkpt lat="-27.2730692" lon="151.2921124">
  <ele>373.51</ele>
  <time>2026-09-01T19:57:23Z</time>
  <course>249.16</course>
  <speed>26.518951713821572</speed>
  <fix>3d</fix>
</trkpt>
<trkpt lat="-27.2730613" lon="151.2921382">
  <ele>373.59</ele>
  <time>2026-09-01T19:57:23Z</time>
  <course>249.79</course>
  <speed>26.49</speed>
  <fix>3d</fix>
</trkpt>
<trkpt lat="-27.2730763" lon="151.2920868">
  <ele>373.5</ele>
  <time>2026-09-01T19:57:23Z</time>
  <course>250.83</course>
  <speed>26.51363800009346</speed>
  <fix>3d</fix>
</trkpt>
<trkpt lat="-27.2730613" lon="151.2921382">
  <ele>373.59</ele>
  <time>2026-09-01T19:57:23Z</time>
  <course>249.79</course>
  <speed>26.49</speed>
  <fix>3d</fix>
</trkpt>
<trkpt lat="-27.2730829" lon="151.2920608">
  <ele>373.5</ele>
  <time>2026-09-01T19:57:23Z</time>
  <course>252.47</course>
  <speed>26.49545055287794</speed>
  <fix>3d</fix>
</trkpt>
<trkpt lat="-27.2730763" lon="151.2920874">
  <ele>373.58</ele>
  <time>2026-09-01T19:57:23Z</time>
  <course>253.29</course>
  <speed>26.48</speed>
  <fix>3d</fix>
</trkpt>
<trkpt lat="-27.2730887" lon="151.2920349">
  <ele>373.49</ele>
  <time>2026-09-01T19:57:23Z</time>
  <course>254.12</course>
  <speed>26.474699242862044</speed>
  <fix>3d</fix>
</trkpt>
<trkpt lat="-27.2730763" lon="151.2920874">
  <ele>373.58</ele>
  <time>2026-09-01T19:57:23Z</time>
  <course>253.29</course>
  <speed>26.48</speed>
  <fix>3d</fix>
</trkpt>
<trkpt lat="-27.2730939" lon="151.2920088">
  <ele>373.48</ele>
  <time>2026-09-01T19:57:23Z</time>
  <course>255.61</course>
  <speed>26.451247607627128</speed>
  <fix>3d</fix>
</trkpt>
<trkpt lat="-27.2730887" lon="151.2920358">
  <ele>373.57</ele>
  <time>2026-09-01T19:57:23Z</time>
  <course>256.53</course>
  <speed>26.45</speed>
  <fix>3d</fix>
</trkpt>
<trkpt lat="-27.2730985" lon="151.2919826">
  <ele>373.47</ele>
  <time>2026-09-01T19:57:23Z</time>
  <course>256.89</course>
  <speed>26.42590585013123</speed>
  <fix>3d</fix>
</trkpt>
<trkpt lat="-27.2730887" lon="151.2920358">
  <ele>373.57</ele>
  <time>2026-09-01T19:57:23Z</time>
  <course>256.53</course>
  <speed>26.45</speed>
  <fix>3d</fix>
</trkpt>
<trkpt lat="-27.2731025" lon="151.2919563">
  <ele>373.46</ele>
  <time>2026-09-01T19:57:23Z</time>
  <course>258.15</course>
  <speed>26.384817604069198</speed>
  <fix>3d</fix>
</trkpt>
<trkpt lat="-27.2730985" lon="151.2919835">
  <ele>373.54</ele>
  <time>2026-09-01T19:57:23Z</time>
  <course>259.45</course>
  <speed>26.39</speed>
  <fix>3d</fix>
</trkpt>
<trkpt lat="-27.273106" lon="151.29193">
  <ele>373.44</ele>
  <time>2026-09-01T19:57:23Z</time>
  <course>259.34</course>
  <speed>26.35260138961617</speed>
  <fix>3d</fix>
</trkpt>
<trkpt lat="-27.2730985" lon="151.2919835">
  <ele>373.54</ele>
  <time>2026-09-01T19:57:23Z</time>
  <course>259.45</course>
  <speed>26.39</speed>
  <fix>3d</fix>
</trkpt>
<trkpt lat="-27.2731091" lon="151.2919036">
  <ele>373.42</ele>
  <time>2026-09-01T19:57:23Z</time>
  <course>260.43</course>
  <speed>26.306867924555366</speed>
  <fix>3d</fix>
</trkpt>
<trkpt lat="-27.2731061" lon="151.2919309">
  <ele>373.5</ele>
  <time>2026-09-01T19:57:23Z</time>
  <course>261.96</course>
  <speed>26.32</speed>
  <fix>3d</fix>
</trkpt>
<trkpt lat="-27.2731117" lon="151.2918779">
  <ele>373.38</ele>
  <time>2026-09-01T19:57:23Z</time>
  <course>261.47</course>
  <speed>26.268098522732853</speed>
  <fix>3d</fix>
</trkpt>
<trkpt lat="-27.2731061" lon="151.2919309">
  <ele>373.5</ele>
  <time>2026-09-01T19:57:23Z</time>
  <course>261.96</course>
  <speed>26.32</speed>
  <fix>3d</fix>
</trkpt>
<trkpt lat="-27.2731139" lon="151.2918517">
  <ele>373.34</ele>
  <time>2026-09-01T19:57:23Z</time>
  <course>262.5</course>
  <speed>26.219321120120558</speed>
  <fix>3d</fix>
</trkpt>
<trkpt lat="-27.2731061" lon="151.2919309">
  <ele>373.5</ele>
  <time>2026-09-01T19:57:23Z</time>
  <course>261.96</course>
  <speed>26.32</speed>
  <fix>3d</fix>
</trkpt>
<trkpt lat="-27.2731158" lon="151.2918254">
  <ele>373.29</ele>
  <time>2026-09-01T19:57:23Z</time>
  <course>263.39</course>
  <speed>26.178315453825522</speed>
  <fix>3d</fix>
</trkpt>
<trkpt lat="-27.2731118" lon="151.2918782">
  <ele>373.44</ele>
  <time>2026-09-01T19:57:23Z</time>
  <course>264.07</course>
  <speed>26.24</speed>
  <fix>3d</fix>
</trkpt>
<trkpt lat="-27.2731173" lon="151.291799">
  <ele>373.23</ele>
  <time>2026-09-01T19:57:23Z</time>
  <course>264.27</course>
  <speed>26.13541084429323</speed>
  <fix>3d</fix>
</trkpt>
<trkpt lat="-27.2731118" lon="151.2918782">
  <ele>373.44</ele>
  <time>2026-09-01T19:57:23Z</time>
  <course>264.07</course>
  <speed>26.24</speed>
  <fix>3d</fix>
</trkpt>
<trkpt lat="-27.2731186" lon="151.2917727">
  <ele>373.15</ele>
  <time>2026-09-01T19:57:23Z</time>
  <course>265.1</course>
  <speed>26.098065062375795</speed>
  <fix>3d</fix>
</trkpt>
<trkpt lat="-27.2731159" lon="151.2918254">
  <ele>373.34</ele>
  <time>2026-09-01T19:57:23Z</time>
  <course>265.83</course>
  <speed>26.16</speed>
  <fix>3d</fix>
</trkpt>
<trkpt lat="-27.2731195" lon="151.2917462">
  <ele>373.07</ele>
  <time>2026-09-01T19:57:23Z</time>
  <course>265.95</course>
  <speed>26.055204854308858</speed>
  <fix>3d</fix>
</trkpt>
<trkpt lat="-27.2731159" lon="151.2918254">
  <ele>373.34</ele>
  <time>2026-09-01T19:57:23Z</time>
  <course>265.83</course>
  <speed>26.16</speed>
  <fix>3d</fix>
</trkpt>
<trkpt lat="-27.2731202" lon="151.2917199">
  <ele>372.97</ele>
  <time>2026-09-01T19:57:23Z</time>
  <course>266.8</course>
  <speed>26.01669079648678</speed>
  <fix>3d</fix>
</trkpt>
<trkpt lat="-27.2731187" lon="151.2917727">
  <ele>373.2</ele>
  <time>2026-09-01T19:57:23Z</time>
  <course>267.34</course>
  <speed>26.07</speed>
  <fix>3d</fix>
</trkpt>
<trkpt lat="-27.2731206" lon="151.2916936">
  <ele>372.88</ele>
  <time>2026-09-01T19:57:23Z</time>
  <course>267.55</course>
  <speed>25.991731377497732</speed>
  <fix>3d</fix>
</trkpt>
<trkpt lat="-27.2731187" lon="151.2917727">
  <ele>373.2</ele>
  <time>2026-09-01T19:57:23Z</time>
  <course>267.34</course>
  <speed>26.07</speed>
  <fix>3d</fix>
</trkpt>
<trkpt lat="-27.2731208" lon="151.2916665">
  <ele>372.77</ele>
  <time>2026-09-01T19:57:23Z</time>
  <course>268.25</course>
  <speed>25.960007704159104</speed>
  <fix>3d</fix>
</trkpt>
<trkpt lat="-27.2731203" lon="151.29172">
  <ele>373.02</ele>
  <time>2026-09-01T19:57:23Z</time>
  <course>268.71</course>
  <speed>26.0</speed>
  <fix>3d</fix>
</trkpt>
<trkpt lat="-27.2731207" lon="151.2916403">
  <ele>372.67</ele>
  <time>2026-09-01T19:57:23Z</time>
  <course>268.92</course>
  <speed>25.931020033928476</speed>
  <fix>3d</fix>
</trkpt>
<trkpt lat="-27.2731208" lon="151.2916675">
  <ele>372.82</ele>
  <time>2026-09-01T19:57:23Z</time>
  <course>269.95</course>
  <speed>25.94</speed>
  <fix>3d</fix>
</trkpt>
<trkpt lat="-27.2731205" lon="151.2916144">
  <ele>372.56</ele>
  <time>2026-09-01T19:57:23Z</time>
  <course>269.53</course>
  <speed>25.914083043781424</speed>
  <fix>3d</fix>
</trkpt>
<trkpt lat="-27.2731208" lon="151.2916675">
  <ele>372.82</ele>
  <time>2026-09-01T19:57:23Z</time>
  <course>269.95</course>
  <speed>25.94</speed>
  <fix>3d</fix>
</trkpt>
<trkpt lat="-27.2731199" lon="151.2915882">
  <ele>372.45</ele>
  <time>2026-09-01T19:57:23Z</time>
  <course>270.13</course>
  <speed>25.888931998056623</speed>
  <fix>3d</fix>
</trkpt>
<trkpt lat="-27.2731205" lon="151.2916151">
  <ele>372.61</ele>
  <time>2026-09-01T19:57:23Z</time>
  <course>271.04</course>
  <speed>25.89</speed>
  <fix>3d</fix>
</trkpt>
<trkpt lat="-27.2731192" lon="151.2915621">
  <ele>372.35</ele>
  <time>2026-09-01T19:57:23Z</time>
  <course>270.72</course>
  <speed>25.87531062615481</speed>
  <fix>3d</fix>
</trkpt>
<trkpt lat="-27.2731205" lon="151.2916151">
  <ele>372.61</ele>
  <time>2026-09-01T19:57:23Z</time>
  <course>271.04</course>
  <speed>25.89</speed>
  <fix>3d</fix>
</trkpt>
<trkpt lat="-27.2731183" lon="151.291536">
  <ele>372.24</ele>
  <time>2026-09-01T19:57:23Z</time>
  <course>271.27</course>
  <speed>25.86255981143398</speed>
  <fix>3d</fix>
</trkpt>
<trkpt lat="-27.2731193" lon="151.2915628">
  <ele>372.39</ele>
  <time>2026-09-01T19:57:23Z</time>
  <course>271.99</course>
  <speed>25.86</speed>
  <fix>3d</fix>
</trkpt>
<trkpt lat="-27.2731173" lon="151.2915097">
  <ele>372.14</ele>
  <time>2026-09-01T19:57:23Z</time>
  <course>271.78</course>
  <speed>25.85121467165518</speed>
  <fix>3d</fix>
</trkpt>
<trkpt lat="-27.2731193" lon="151.2915628">
  <ele>372.39</ele>
  <time>2026-09-01T19:57:23Z</time>
  <course>271.99</course>
  <speed>25.86</speed>
  <fix>3d</fix>
</trkpt>
<trkpt lat="-27.2731161" lon="151.2914836">
  <ele>372.04</ele>
  <time>2026-09-01T19:57:23Z</time>
  <course>272.25</course>
  <speed>25.83959945509992</speed>
  <fix>3d</fix>
</trkpt>
<trkpt lat="-27.2731173" lon="151.2915107">
  <ele>372.19</ele>
  <time>2026-09-01T19:57:23Z</time>
  <course>272.82</course>
  <speed>25.83</speed>
  <fix>3d</fix>
</trkpt>
<trkpt lat="-27.2731147" lon="151.2914576">
  <ele>371.94</ele>
  <time>2026-09-01T19:57:23Z</time>
  <course>272.64</course>
  <speed>25.819004628374035</speed>
  <fix>3d</fix>
</trkpt>
<trkpt lat="-27.2731173" lon="151.2915107">
  <ele>372.19</ele>
  <time>2026-09-01T19:57:23Z</time>
  <course>272.82</course>
  <speed>25.83</speed>
  <fix>3d</fix>
</trkpt>
<trkpt lat="-27.2731132" lon="151.2914316">
  <ele>371.85</ele>
  <time>2026-09-01T19:57:23Z</time>
  <course>273.0</course>
  <speed>25.817358501597333</speed>
  <fix>3d</fix>
</trkpt>
<trkpt lat="-27.2731147" lon="151.2914586">
  <ele>372.0</ele>
  <time>2026-09-01T19:57:23Z</time>
  <course>273.53</course>
  <speed>25.81</speed>
  <fix>3d</fix>
</trkpt>
<trkpt lat="-27.2731116" lon="151.2914056">
  <ele>371.77</ele>
  <time>2026-09-01T19:57:23Z</time>
  <course>273.37</course>
  <speed>25.80497045144598</speed>
  <fix>3d</fix>
</trkpt>
<trkpt lat="-27.2731147" lon="151.2914586">
  <ele>372.0</ele>
  <time>2026-09-01T19:57:23Z</time>
  <course>273.53</course>
  <speed>25.81</speed>
  <fix>3d</fix>
</trkpt>
<trkpt lat="-27.2731099" lon="151.2913796">
  <ele>371.69</ele>
  <time>2026-09-01T19:57:23Z</time>
  <course>273.69</course>
  <speed>25.803032767486847</speed>
  <fix>3d</fix>
</trkpt>
<trkpt lat="-27.2731116" lon="151.2914065">
  <ele>371.83</ele>
  <time>2026-09-01T19:57:23Z</time>
  <course>274.1</course>
  <speed>25.79</speed>
  <fix>3d</fix>
</trkpt>
<trkpt lat="-27.2731081" lon="151.2913536">
  <ele>371.61</ele>
  <time>2026-09-01T19:57:23Z</time>
  <course>273.98</course>
  <speed>25.800775182152957</speed>
  <fix>3d</fix>
</trkpt>
<trkpt lat="-27.2731116" lon="151.2914065">
  <ele>371.83</ele>
  <time>2026-09-01T19:57:23Z</time>
  <course>274.1</course>
  <speed>25.79</speed>
  <fix>3d</fix>
</trkpt>
<trkpt lat="-27.2731062" lon="151.2913276">
  <ele>371.54</ele>
  <time>2026-09-01T19:57:23Z</time>
  <course>274.25</course>
  <speed>25.787291443654954</speed>
  <fix>3d</fix>
</trkpt>
<trkpt lat="-27.2731081" lon="151.2913546">
  <ele>371.67</ele>
  <time>2026-09-01T19:57:23Z</time>
  <course>274.55</course>
  <speed>25.78</speed>
  <fix>3d</fix>
</trkpt>
<trkpt lat="-27.2731043" lon="151.2913017">
  <ele>371.47</ele>
  <time>2026-09-01T19:57:23Z</time>
  <course>274.46</course>
  <speed>25.784028001846412</speed>
  <fix>3d</fix>
</trkpt>
<trkpt lat="-27.2731081" lon="151.2913546">
  <ele>371.67</ele>
  <time>2026-09-01T19:57:23Z</time>
  <course>274.55</course>
  <speed>25.78</speed>
  <fix>3d</fix>
</trkpt>
<trkpt lat="-27.2731023" lon="151.2912758">
  <ele>371.41</ele>
  <time>2026-09-01T19:57:23Z</time>
  <course>274.67</course>
  <speed>25.78013382432294</speed>
  <fix>3d</fix>
</trkpt>
<trkpt lat="-27.2731043" lon="151.2913027">
  <ele>371.54</ele>
  <time>2026-09-01T19:57:23Z</time>
  <course>274.91</course>
  <speed>25.77</speed>
  <fix>3d</fix>
</trkpt>
<trkpt lat="-27.2731002" lon="151.2912498">
  <ele>371.35</ele>
  <time>2026-09-01T19:57:23Z</time>
  <course>274.84</course>
  <speed>25.765568109397474</speed>
  <fix>3d</fix>
</trkpt>
<trkpt lat="-27.2731043" lon="151.2913027">
  <ele>371.54</ele>
  <time>2026-09-01T19:57:23Z</time>
  <course>274.91</course>
  <speed>25.77</speed>
  <fix>3d</fix>
</trkpt>
<trkpt lat="-27.2730981" lon="151.2912239">
  <ele>371.3</ele>
  <time>2026-09-01T19:57:23Z</time>
  <course>275.05</course>
  <speed>25.760180511789894</speed>
  <fix>3d</fix>
</trkpt>
<trkpt lat="-27.2731002" lon="151.2912507">
  <ele>371.42</ele>
  <time>2026-09-01T19:57:23Z</time>
  <course>275.2</course>
  <speed>25.75</speed>
  <fix>3d</fix>
</trkpt>
<trkpt lat="-27.2730959" lon="151.291198">
  <ele>371.26</ele>
  <time>2026-09-01T19:57:23Z</time>
  <course>275.19</course>
  <speed>25.753951153172594</speed>
  <fix>3d</fix>
</trkpt>
<trkpt lat="-27.2731002" lon="151.2912507">
  <ele>371.42</ele>
  <time>2026-09-01T19:57:23Z</time>
  <course>275.2</course>
  <speed>25.75</speed>
  <fix>3d</fix>
</trkpt>
<trkpt lat="-27.2730937" lon="151.2911721">
  <ele>371.22</ele>
  <time>2026-09-01T19:57:23Z</time>
  <course>275.35</course>
  <speed>25.74778631261336</speed>
  <fix>3d</fix>
</trkpt>
<trkpt lat="-27.2730959" lon="151.2911988">
  <ele>371.33</ele>
  <time>2026-09-01T19:57:23Z</time>
  <course>275.41</course>
  <speed>25.74</speed>
  <fix>3d</fix>
</trkpt>
<trkpt lat="-27.2730915" lon="151.2911469">
  <ele>371.19</ele>
  <time>2026-09-01T19:57:23Z</time>
  <course>275.5</course>
  <speed>25.740716773236908</speed>
  <fix>3d</fix>
</trkpt>
<trkpt lat="-27.2730959" lon="151.2911988">
  <ele>371.33</ele>
  <time>2026-09-01T19:57:23Z</time>
  <course>275.41</course>
  <speed>25.74</speed>
  <fix>3d</fix>
</trkpt>
<trkpt lat="-27.2730892" lon="151.2911201">
  <ele>371.16</ele>
  <time>2026-09-01T19:57:23Z</time>
  <course>275.57</course>
  <speed>25.734665336856434</speed>
  <fix>3d</fix>
</trkpt>
<trkpt lat="-27.2730915" lon="151.2911471">
  <ele>371.26</ele>
  <time>2026-09-01T19:57:23Z</time>
  <course>275.57</course>
  <speed>25.72</speed>
  <fix>3d</fix>
</trkpt>
<trkpt lat="-27.273087" lon="151.2910946">
  <ele>371.14</ele>
  <time>2026-09-01T19:57:23Z</time>
  <course>275.62</course>
  <speed>25.71673774023447</speed>
  <fix>3d</fix>
</trkpt>
<trkpt lat="-27.2730915" lon="151.2911471">
  <ele>371.26</ele>
  <time>2026-09-01T19:57:23Z</time>
  <course>275.57</course>
  <speed>25.72</speed>
  <fix>3d</fix>
</trkpt>
<trkpt lat="-27.2730847" lon="151.2910689">
  <ele>371.12</ele>
  <time>2026-09-01T19:57:23Z</time>
  <course>275.7</course>
  <speed>25.69783064774145</speed>
  <fix>3d</fix>
</trkpt>
<trkpt lat="-27.2730869" lon="151.2910953">
  <ele>371.21</ele>
  <time>2026-09-01T19:57:23Z</time>
  <course>275.68</course>
  <speed>25.7</speed>
  <fix>3d</fix>
</trkpt>
<trkpt lat="-27.2730824" lon="151.2910432">
  <ele>371.11</ele>
  <time>2026-09-01T19:57:23Z</time>
  <course>275.77</course>
  <speed>25.6789291053969</speed>
  <fix>3d</fix>
</trkpt>
<trkpt lat="-27.2730869" lon="151.2910953">
  <ele>371.21</ele>
  <time>2026-09-01T19:57:23Z</time>
  <course>275.68</course>
  <speed>25.7</speed>
  <fix>3d</fix>
</trkpt>
<trkpt lat="-27.2730801" lon="151.2910176">
  <ele>371.09</ele>
  <time>2026-09-01T19:57:23Z</time>
  <course>275.79</course>
  <speed>25.668979333039324</speed>
  <fix>3d</fix>
</trkpt>
<trkpt lat="-27.2730824" lon="151.2910437">
  <ele>371.16</ele>
  <time>2026-09-01T19:57:23Z</time>
  <course>275.74</course>
  <speed>25.68</speed>
  <fix>3d</fix>
</trkpt>
<trkpt lat="-27.2730778" lon="151.290992">
  <ele>371.08</ele>
  <time>2026-09-01T19:57:23Z</time>
  <course>275.86</course>
  <speed>25.65008382052581</speed>
  <fix>3d</fix>
</trkpt>
<trkpt lat="-27.2730824" lon="151.2910437">
  <ele>371.16</ele>
  <time>2026-09-01T19:57:23Z</time>
  <course>275.74</course>
  <speed>25.68</speed>
  <fix>3d</fix>
</trkpt>
<trkpt lat="-27.2730754" lon="151.2909661">
  <ele>371.08</ele>
  <time>2026-09-01T19:57:23Z</time>
  <course>275.91</course>
  <speed>25.630185329021714</speed>
  <fix>3d</fix>
</trkpt>
<trkpt lat="-27.2730777" lon="151.290992">
  <ele>371.14</ele>
  <time>2026-09-01T19:57:23Z</time>
  <course>275.76</course>
  <speed>25.66</speed>
  <fix>3d</fix>
</trkpt>
<trkpt lat="-27.2730731" lon="151.2909405">
  <ele>371.07</ele>
  <time>2026-09-01T19:57:23Z</time>
  <course>275.93</course>
  <speed>25.620236142549505</speed>
  <fix>3d</fix>
</trkpt>
<trkpt lat="-27.2730777" lon="151.290992">
  <ele>371.14</ele>
  <time>2026-09-01T19:57:23Z</time>
  <course>275.76</course>
  <speed>25.66</speed>
  <fix>3d</fix>
</trkpt>
<trkpt lat="-27.2730708" lon="151.2909149">
  <ele>371.06</ele>
  <time>2026-09-01T19:57:23Z</time>
  <course>275.86</course>
  <speed>25.600337888395146</speed>
  <fix>3d</fix>
</trkpt>
<trkpt lat="-27.2730731" lon="151.2909405">
  <ele>371.12</ele>
  <time>2026-09-01T19:57:23Z</time>
  <course>275.77</course>
  <speed>25.64</speed>
  <fix>3d</fix>
</trkpt>
<trkpt lat="-27.2730685" lon="151.2908893">
  <ele>371.05</ele>
  <time>2026-09-01T19:57:23Z</time>
  <course>275.84</course>
  <speed>25.589382563868163</speed>
  <fix>3d</fix>
</trkpt>
<trkpt lat="-27.2730731" lon="151.2909405">
  <ele>371.12</ele>
  <time>2026-09-01T19:57:23Z</time>
  <course>275.77</course>
  <speed>25.64</speed>
  <fix>3d</fix>
</trkpt>
<trkpt lat="-27.2730662" lon="151.2908637">
  <ele>371.04</ele>
  <time>2026-09-01T19:57:23Z</time>
  <course>275.85</course>
  <speed>25.57743145822113</speed>
  <fix>3d</fix>
</trkpt>
<trkpt lat="-27.2730685" lon="151.290889">
  <ele>371.1</ele>
  <time>2026-09-01T19:57:23Z</time>
  <course>275.74</course>
  <speed>25.62</speed>
  <fix>3d</fix>
</trkpt>
<trkpt lat="-27.273064" lon="151.2908381">
  <ele>371.04</ele>
  <time>2026-09-01T19:57:23Z</time>
  <course>275.89</course>
  <speed>25.55753117967383</speed>
  <fix>3d</fix>
</trkpt>
<trkpt lat="-27.2730685" lon="151.290889">
  <ele>371.1</ele>
  <time>2026-09-01T19:57:23Z</time>
  <course>275.74</course>
  <speed>25.62</speed>
  <fix>3d</fix>
</trkpt>
<trkpt lat="-27.2730617" lon="151.2908125">
  <ele>371.03</ele>
  <time>2026-09-01T19:57:23Z</time>
  <course>275.86</course>
  <speed>25.5565353676902</speed>
  <fix>3d</fix>
</trkpt>
<trkpt lat="-27.2730638" lon="151.2908374">
  <ele>371.09</ele>
  <time>2026-09-01T19:57:23Z</time>
  <course>275.7</course>
  <speed>25.61</speed>
  <fix>3d</fix>
</trkpt>
<trkpt lat="-27.2730594" lon="151.2907869">
  <ele>371.03</ele>
  <time>2026-09-01T19:57:23Z</time>
  <course>275.82</course>
  <speed>25.544604126899284</speed>
  <fix>3d</fix>
</trkpt>
<trkpt lat="-27.2730638" lon="151.2908374">
  <ele>371.09</ele>
  <time>2026-09-01T19:57:23Z</time>
  <course>275.7</course>
  <speed>25.61</speed>
  <fix>3d</fix>
</trkpt>
<trkpt lat="-27.2730572" lon="151.2907613">
  <ele>371.02</ele>
  <time>2026-09-01T19:57:23Z</time>
  <course>275.83</course>
  <speed>25.53366796995684</speed>
  <fix>3d</fix>
</trkpt>
<trkpt lat="-27.2730593" lon="151.290786">
  <ele>371.07</ele>
  <time>2026-09-01T19:57:23Z</time>
  <course>275.65</course>
  <speed>25.6</speed>
  <fix>3d</fix>
</trkpt>
<trkpt lat="-27.2730549" lon="151.2907357">
  <ele>371.01</ele>
  <time>2026-09-01T19:57:23Z</time>
  <course>275.83</course>
  <speed>25.522734963165686</speed>
  <fix>3d</fix>
</trkpt>
<trkpt lat="-27.2730593" lon="151.290786">
  <ele>371.07</ele>
  <time>2026-09-01T19:57:23Z</time>
  <course>275.65</course>
  <speed>25.6</speed>
  <fix>3d</fix>
</trkpt>
<trkpt lat="-27.2730527" lon="151.2907101">
  <ele>371.01</ele>
  <time>2026-09-01T19:57:23Z</time>
  <course>275.8</course>
  <speed>25.511805110575768</speed>
  <fix>3d</fix>
</trkpt>
<trkpt lat="-27.2730548" lon="151.2907345">
  <ele>371.07</ele>
  <time>2026-09-01T19:57:23Z</time>
  <course>275.59</course>
  <speed>25.58</speed>
  <fix>3d</fix>
</trkpt>
<trkpt lat="-27.2730505" lon="151.2906844">
  <ele>371.01</ele>
  <time>2026-09-01T19:57:23Z</time>
  <course>275.78</course>
  <speed>25.499907842970728</speed>
  <fix>3d</fix>
</trkpt>
<trkpt lat="-27.2730548" lon="151.2907345">
  <ele>371.07</ele>
  <time>2026-09-01T19:57:23Z</time>
  <course>275.59</course>
  <speed>25.58</speed>
  <fix>3d</fix>
</trkpt>
<trkpt lat="-27.2730482" lon="151.2906588">
  <ele>371.01</ele>
  <time>2026-09-01T19:57:23Z</time>
  <course>275.81</course>
  <speed>25.49894115448718</speed>
  <fix>3d</fix>
</trkpt>
<trkpt lat="-27.2730503" lon="151.290683">
  <ele>371.07</ele>
  <time>2026-09-01T19:57:23Z</time>
  <course>275.54</course>
  <speed>25.57</speed>
  <fix>3d</fix>
</trkpt>
<trkpt lat="-27.273046" lon="151.2906331">
  <ele>371.01</ele>
  <time>2026-09-01T19:57:23Z</time>
  <course>275.81</course>
  <speed>25.48898781827164</speed>
  <fix>3d</fix>
</trkpt>
<trkpt lat="-27.2730503" lon="151.290683">
  <ele>371.07</ele>
  <time>2026-09-01T19:57:23Z</time>
  <course>275.54</course>
  <speed>25.57</speed>
  <fix>3d</fix>
</trkpt>
<trkpt lat="-27.2730438" lon="151.2906074">
  <ele>371.02</ele>
  <time>2026-09-01T19:57:23Z</time>
  <course>275.77</course>
  <speed>25.48898781827164</speed>
  <fix>3d</fix>
</trkpt>
<trkpt lat="-27.2730459" lon="151.2906315">
  <ele>371.07</ele>
  <time>2026-09-01T19:57:23Z</time>
  <course>275.5</course>
  <speed>25.55</speed>
  <fix>3d</fix>
</trkpt>
<trkpt lat="-27.2730416" lon="151.2905817">
  <ele>371.02</ele>
  <time>2026-09-01T19:57:23Z</time>
  <course>275.71</course>
  <speed>25.488024639033917</speed>
  <fix>3d</fix>
</trkpt>
<trkpt lat="-27.2730459" lon="151.2906315">
  <ele>371.07</ele>
  <time>2026-09-01T19:57:23Z</time>
  <course>275.5</course>
  <speed>25.55</speed>
  <fix>3d</fix>
</trkpt>
<trkpt lat="-27.2730394" lon="151.290556">
  <ele>371.03</ele>
  <time>2026-09-01T19:57:23Z</time>
  <course>275.73</course>
  <speed>25.47711129622038</speed>
  <fix>3d</fix>
</trkpt>
<trkpt lat="-27.2730415" lon="151.2905801">
  <ele>371.08</ele>
  <time>2026-09-01T19:57:23Z</time>
  <course>275.47</course>
  <speed>25.54</speed>
  <fix>3d</fix>
</trkpt>
<trkpt lat="-27.2730372" lon="151.2905304">
  <ele>371.03</ele>
  <time>2026-09-01T19:57:23Z</time>
  <course>275.69</course>
  <speed>25.476155518445083</speed>
  <fix>3d</fix>
</trkpt>
<trkpt lat="-27.2730415" lon="151.2905801">
  <ele>371.08</ele>
  <time>2026-09-01T19:57:23Z</time>
  <course>275.47</course>
  <speed>25.54</speed>
  <fix>3d</fix>
</trkpt>
<trkpt lat="-27.2730351" lon="151.2905047">
  <ele>371.04</ele>
  <time>2026-09-01T19:57:23Z</time>
  <course>275.63</course>
  <speed>25.47520363019695</speed>
  <fix>3d</fix>
</trkpt>
<trkpt lat="-27.2730372" lon="151.2905286">
  <ele>371.09</ele>
  <time>2026-09-01T19:57:23Z</time>
  <course>275.41</course>
  <speed>25.53</speed>
  <fix>3d</fix>
</trkpt>
<trkpt lat="-27.2730329" lon="151.290479">
  <ele>371.05</ele>
  <time>2026-09-01T19:57:23Z</time>
  <course>275.57</course>
  <speed>25.47331152402451</speed>
  <fix>3d</fix>
</trkpt>
<trkpt lat="-27.2730372" lon="151.2905286">
  <ele>371.09</ele>
  <time>2026-09-01T19:57:23Z</time>
  <course>275.41</course>
  <speed>25.53</speed>
  <fix>3d</fix>
</trkpt>
<trkpt lat="-27.2730308" lon="151.2904535">
  <ele>371.06</ele>
  <time>2026-09-01T19:57:23Z</time>
  <course>275.55</course>
  <speed>25.472371306967084</speed>
  <fix>3d</fix>
</trkpt>
<trkpt lat="-27.2730328" lon="151.2904773">
  <ele>371.11</ele>
  <time>2026-09-01T19:57:23Z</time>
  <course>275.34</course>
  <speed>25.52</speed>
  <fix>3d</fix>
</trkpt>
<trkpt lat="-27.2730286" lon="151.2904273">
  <ele>371.06</ele>
  <time>2026-09-01T19:57:23Z</time>
  <course>275.55</course>
  <speed>25.470502547064125</speed>
  <fix>3d</fix>
</trkpt>
<trkpt lat="-27.2730328" lon="151.2904773">
  <ele>371.11</ele>
  <time>2026-09-01T19:57:23Z</time>
  <course>275.34</course>
  <speed>25.52</speed>
  <fix>3d</fix>
</trkpt>
<trkpt lat="-27.2730265" lon="151.2904017">
  <ele>371.07</ele>
  <time>2026-09-01T19:57:23Z</time>
  <course>275.57</course>
  <speed>25.468649355629363</speed>
  <fix>3d</fix>
</trkpt>
<trkpt lat="-27.2730287" lon="151.290426">
  <ele>371.13</ele>
  <time>2026-09-01T19:57:23Z</time>
  <course>275.27</course>
  <speed>25.51</speed>
  <fix>3d</fix>
</trkpt>
<trkpt lat="-27.2730244" lon="151.290376">
  <ele>371.09</ele>
  <time>2026-09-01T19:57:23Z</time>
  <course>275.54</course>
  <speed>25.45777091577344</speed>
  <fix>3d</fix>
</trkpt>
<trkpt lat="-27.2730287" lon="151.290426">
  <ele>371.13</ele>
  <time>2026-09-01T19:57:23Z</time>
  <course>275.27</course>
  <speed>25.51</speed>
  <fix>3d</fix>
</trkpt>
<trkpt lat="-27.2730223" lon="151.2903503">
  <ele>371.1</ele>
  <time>2026-09-01T19:57:23Z</time>
  <course>275.45</course>
  <speed>25.45594036762343</speed>
  <fix>3d</fix>
</trkpt>
<trkpt lat="-27.2730245" lon="151.2903746">
  <ele>371.15</ele>
  <time>2026-09-01T19:57:23Z</time>
  <course>275.19</course>
  <speed>25.5</speed>
  <fix>3d</fix>
</trkpt>
<trkpt lat="-27.2730203" lon="151.2903246">
  <ele>371.12</ele>
  <time>2026-09-01T19:57:23Z</time>
  <course>275.42</course>
  <speed>25.454125402378295</speed>
  <fix>3d</fix>
</trkpt>
<trkpt lat="-27.2730245" lon="151.2903746">
  <ele>371.15</ele>
  <time>2026-09-01T19:57:23Z</time>
  <course>275.19</course>
  <speed>25.5</speed>
  <fix>3d</fix>
</trkpt>
<trkpt lat="-27.2730182" lon="151.290299">
  <ele>371.13</ele>
  <time>2026-09-01T19:57:23Z</time>
  <course>275.37</course>
  <speed>25.452326023371615</speed>
  <fix>3d</fix>
</trkpt>
<trkpt lat="-27.2730203" lon="151.2903233">
  <ele>371.18</ele>
  <time>2026-09-01T19:57:23Z</time>
  <course>275.11</course>
  <speed>25.48</speed>
  <fix>3d</fix>
</trkpt>
<trkpt lat="-27.2730162" lon="151.2902733">
  <ele>371.14</ele>
  <time>2026-09-01T19:57:23Z</time>
  <course>275.34</course>
  <speed>25.440581754354596</speed>
  <fix>3d</fix>
</trkpt>
<trkpt lat="-27.2730203" lon="151.2903233">
  <ele>371.18</ele>
  <time>2026-09-01T19:57:23Z</time>
  <course>275.11</course>
  <speed>25.48</speed>
  <fix>3d</fix>
</trkpt>
<trkpt lat="-27.2730142" lon="151.2902476">
  <ele>371.15</ele>
  <time>2026-09-01T19:57:23Z</time>
  <course>275.33</course>
  <speed>25.439695359811207</speed>
  <fix>3d</fix>
</trkpt>
<trkpt lat="-27.2730163" lon="151.290272">
  <ele>371.21</ele>
  <time>2026-09-01T19:57:23Z</time>
  <course>275.03</course>
  <speed>25.47</speed>
  <fix>3d</fix>
</trkpt>
<trkpt lat="-27.2730122" lon="151.290222">
  <ele>371.16</ele>
  <time>2026-09-01T19:57:23Z</time>
  <course>275.32</course>
  <speed>25.43881286538348</speed>
  <fix>3d</fix>
</trkpt>
<trkpt lat="-27.2730163" lon="151.290272">
  <ele>371.21</ele>
  <time>2026-09-01T19:57:23Z</time>
  <course>275.03</course>
  <speed>25.47</speed>
  <fix>3d</fix>
</trkpt>
<trkpt lat="-27.2730102" lon="151.2901963">
  <ele>371.17</ele>
  <time>2026-09-01T19:57:23Z</time>
  <course>275.27</course>
  <speed>25.437059578496882</speed>
  <fix>3d</fix>
</trkpt>
<trkpt lat="-27.2730123" lon="151.2902207">
  <ele>371.24</ele>
  <time>2026-09-01T19:57:23Z</time>
  <course>274.97</course>
  <speed>25.46</speed>
  <fix>3d</fix>
</trkpt>
<trkpt lat="-27.2730083" lon="151.2901707">
  <ele>371.18</ele>
  <time>2026-09-01T19:57:23Z</time>
  <course>275.2</course>
  <speed>25.436188786844617</speed>
  <fix>3d</fix>
</trkpt>
<trkpt lat="-27.2730123" lon="151.2902207">
  <ele>371.24</ele>
  <time>2026-09-01T19:57:23Z</time>
  <course>274.97</course>
  <speed>25.46</speed>
  <fix>3d</fix>
</trkpt>
<trkpt lat="-27.2730063" lon="151.290145">
  <ele>371.18</ele>
  <time>2026-09-01T19:57:23Z</time>
  <course>275.15</course>
  <speed>25.424496061869153</speed>
  <fix>3d</fix>
</trkpt>
<trkpt lat="-27.2730083" lon="151.2901694">
  <ele>371.26</ele>
  <time>2026-09-01T19:57:23Z</time>
  <course>274.9</course>
  <speed>25.45</speed>
  <fix>3d</fix>
</trkpt>
<trkpt lat="-27.2730044" lon="151.2901194">
  <ele>371.19</ele>
  <time>2026-09-01T19:57:23Z</time>
  <course>275.16</course>
  <speed>25.422781122449997</speed>
  <fix>3d</fix>
</trkpt>
<trkpt lat="-27.2730083" lon="151.2901694">
  <ele>371.26</ele>
  <time>2026-09-01T19:57:23Z</time>
  <course>274.9</course>
  <speed>25.45</speed>
  <fix>3d</fix>
</trkpt>
<trkpt lat="-27.2730024" lon="151.2900938">
  <ele>371.2</ele>
  <time>2026-09-01T19:57:23Z</time>
  <course>275.12</course>
  <speed>25.42192950977561</speed>
  <fix>3d</fix>
</trkpt>
<trkpt lat="-27.2730045" lon="151.290118">
  <ele>371.28</ele>
  <time>2026-09-01T19:57:23Z</time>
  <course>274.83</course>
  <speed>25.44</speed>
  <fix>3d</fix>
</trkpt>
<trkpt lat="-27.2730005" lon="151.2900681">
  <ele>371.21</ele>
  <time>2026-09-01T19:57:23Z</time>
  <course>275.15</course>
  <speed>25.42108180231518</speed>
  <fix>3d</fix>
</trkpt>
<trkpt lat="-27.2730045" lon="151.290118">
  <ele>371.28</ele>
  <time>2026-09-01T19:57:23Z</time>
  <course>274.83</course>
  <speed>25.44</speed>
  <fix>3d</fix>
</trkpt>
<trkpt lat="-27.2729986" lon="151.2900425">
  <ele>371.22</ele>
  <time>2026-09-01T19:57:23Z</time>
  <course>275.11</course>
  <speed>25.410273512892378</speed>
  <fix>3d</fix>
</trkpt>
<trkpt lat="-27.2730007" lon="151.2900669">
  <ele>371.3</ele>
  <time>2026-09-01T19:57:23Z</time>
  <course>274.78</course>
  <speed>25.43</speed>
  <fix>3d</fix>
</trkpt>
<trkpt lat="-27.2729967" lon="151.2900169">
  <ele>371.23</ele>
  <time>2026-09-01T19:57:23Z</time>
  <course>275.02</course>
  <speed>25.40943328765913</speed>
  <fix>3d</fix>
</trkpt>
<trkpt lat="-27.2730007" lon="151.2900669">
  <ele>371.3</ele>
  <time>2026-09-01T19:57:23Z</time>
  <course>274.78</course>
  <speed>25.43</speed>
  <fix>3d</fix>
</trkpt>
<trkpt lat="-27.2729948" lon="151.2899913">
  <ele>371.24</ele>
  <time>2026-09-01T19:57:23Z</time>
  <course>274.99</course>
  <speed>25.407764561251742</speed>
  <fix>3d</fix>
</trkpt>
<trkpt lat="-27.2729969" lon="151.2900156">
  <ele>371.32</ele>
  <time>2026-09-01T19:57:23Z</time>
  <course>274.73</course>
  <speed>25.42</speed>
  <fix>3d</fix>
</trkpt>
<trkpt lat="-27.272993" lon="151.2899657">
  <ele>371.26</ele>
  <time>2026-09-01T19:57:23Z</time>
  <course>274.99</course>
  <speed>25.406936060847638</speed>
  <fix>3d</fix>
</trkpt>
<trkpt lat="-27.2729969" lon="151.2900156">
  <ele>371.32</ele>
  <time>2026-09-01T19:57:23Z</time>
  <course>274.73</course>
  <speed>25.42</speed>
  <fix>3d</fix>
</trkpt>
<trkpt lat="-27.2729911" lon="151.2899401">
  <ele>371.27</ele>
  <time>2026-09-01T19:57:23Z</time>
  <course>274.98</course>
  <speed>25.39614537680866</speed>
  <fix>3d</fix>
</trkpt>
<trkpt lat="-27.2729931" lon="151.2899645">
  <ele>371.34</ele>
  <time>2026-09-01T19:57:23Z</time>
  <course>274.68</course>
  <speed>25.41</speed>
  <fix>3d</fix>
</trkpt>
<trkpt lat="-27.2729893" lon="151.2899147">
  <ele>371.28</ele>
  <time>2026-09-01T19:57:23Z</time>
  <course>275.04</course>
  <speed>25.39614537680866</speed>
  <fix>3d</fix>
</trkpt>
<trkpt lat="-27.2729931" lon="151.2899645">
  <ele>371.34</ele>
  <time>2026-09-01T19:57:23Z</time>
  <course>274.68</course>
  <speed>25.41</speed>
  <fix>3d</fix>
</trkpt>
<trkpt lat="-27.2729874" lon="151.2898891">
  <ele>371.3</ele>
  <time>2026-09-01T19:57:23Z</time>
  <course>275.02</course>
  <speed>25.39614537680866</speed>
  <fix>3d</fix>
</trkpt>
<trkpt lat="-27.2729894" lon="151.2899133">
  <ele>371.37</ele>
  <time>2026-09-01T19:57:23Z</time>
  <course>274.65</course>
  <speed>25.4</speed>
  <fix>3d</fix>
</trkpt>
<trkpt lat="-27.2729856" lon="151.2898635">
  <ele>371.31</ele>
  <time>2026-09-01T19:57:23Z</time>
  <course>274.98</course>
  <speed>25.39532437280532</speed>
  <fix>3d</fix>
</trkpt>
<trkpt lat="-27.2729894" lon="151.2899133">
  <ele>371.37</ele>
  <time>2026-09-01T19:57:23Z</time>
  <course>274.65</course>
  <speed>25.4</speed>
  <fix>3d</fix>
</trkpt>
<trkpt lat="-27.2729837" lon="151.2898379">
  <ele>371.32</ele>
  <time>2026-09-01T19:57:23Z</time>
  <course>274.98</course>
  <speed>25.39532437280532</speed>
  <fix>3d</fix>
</trkpt>
<trkpt lat="-27.2729857" lon="151.2898622">
  <ele>371.4</ele>
  <time>2026-09-01T19:57:23Z</time>
  <course>274.63</course>
  <speed>25.4</speed>
  <fix>3d</fix>
</trkpt>
<trkpt lat="-27.2729819" lon="151.2898121">
  <ele>371.33</ele>
  <time>2026-09-01T19:57:23Z</time>
  <course>275.02</course>
  <speed>25.39450728011867</speed>
  <fix>3d</fix>
</trkpt>
<trkpt lat="-27.2729857" lon="151.2898622">
  <ele>371.4</ele>
  <time>2026-09-01T19:57:23Z</time>
  <course>274.63</course>
  <speed>25.4</speed>
  <fix>3d</fix>
</trkpt>
<trkpt lat="-27.27298" lon="151.2897865">
  <ele>371.34</ele>
  <time>2026-09-01T19:57:23Z</time>
  <course>275.01</course>
  <speed>25.39450728011867</speed>
  <fix>3d</fix>
</trkpt>
<trkpt lat="-27.272982" lon="151.289811">
  <ele>371.41</ele>
  <time>2026-09-01T19:57:23Z</time>
  <course>274.61</course>
  <speed>25.39</speed>
  <fix>3d</fix>
</trkpt>
<trkpt lat="-27.2729782" lon="151.2897609">
  <ele>371.35</ele>
  <time>2026-09-01T19:57:23Z</time>
  <course>274.98</course>
  <speed>25.384540570985326</speed>
  <fix>3d</fix>
</trkpt>
<trkpt lat="-27.272982" lon="151.289811">
  <ele>371.41</ele>
  <time>2026-09-01T19:57:23Z</time>
  <course>274.61</course>
  <speed>25.39</speed>
  <fix>3d</fix>
</trkpt>
<trkpt lat="-27.2729764" lon="151.2897353">
  <ele>371.36</ele>
  <time>2026-09-01T19:57:23Z</time>
  <course>274.97</course>
  <speed>25.383727070704175</speed>
  <fix>3d</fix>
</trkpt>
<trkpt lat="-27.2729783" lon="151.2897598">
  <ele>371.44</ele>
  <time>2026-09-01T19:57:23Z</time>
  <course>274.6</course>
  <speed>25.39</speed>
  <fix>3d</fix>
</trkpt>
<trkpt lat="-27.2729745" lon="151.2897095">
  <ele>371.37</ele>
  <time>2026-09-01T19:57:23Z</time>
  <course>275.0</course>
  <speed>25.383727070704175</speed>
  <fix>3d</fix>
</trkpt>
<trkpt lat="-27.2729783" lon="151.2897598">
  <ele>371.44</ele>
  <time>2026-09-01T19:57:23Z</time>
  <course>274.6</course>
  <speed>25.39</speed>
  <fix>3d</fix>
</trkpt>
<trkpt lat="-27.2729727" lon="151.2896839">
  <ele>371.38</ele>
  <time>2026-09-01T19:57:23Z</time>
  <course>274.98</course>
  <speed>25.383727070704175</speed>
  <fix>3d</fix>
</trkpt>
<trkpt lat="-27.2729747" lon="151.2897087">
  <ele>371.47</ele>
  <time>2026-09-01T19:57:23Z</time>
  <course>274.6</course>
  <speed>25.39</speed>
  <fix>3d</fix>
</trkpt>
<trkpt lat="-27.2729709" lon="151.2896584">
  <ele>371.38</ele>
  <time>2026-09-01T19:57:23Z</time>
  <course>274.91</course>
  <speed>25.383727070704175</speed>
  <fix>3d</fix>
</trkpt>
<trkpt lat="-27.2729747" lon="151.2897087">
  <ele>371.47</ele>
  <time>2026-09-01T19:57:23Z</time>
  <course>274.6</course>
  <speed>25.39</speed>
  <fix>3d</fix>
</trkpt>
<trkpt lat="-27.272969" lon="151.2896328">
  <ele>371.39</ele>
  <time>2026-09-01T19:57:23Z</time>
  <course>274.89</course>
  <speed>25.384540570985326</speed>
  <fix>3d</fix>
</trkpt>
<trkpt lat="-27.272971" lon="151.2896576">
  <ele>371.48</ele>
  <time>2026-09-01T19:57:23Z</time>
  <course>274.6</course>
  <speed>25.39</speed>
  <fix>3d</fix>
</trkpt>
<trkpt lat="-27.2729672" lon="151.2896072">
  <ele>371.4</ele>
  <time>2026-09-01T19:57:23Z</time>
  <course>274.89</course>
  <speed>25.383727070704175</speed>
  <fix>3d</fix>
</trkpt>
<trkpt lat="-27.272971" lon="151.2896576">
  <ele>371.48</ele>
  <time>2026-09-01T19:57:23Z</time>
  <course>274.6</course>
  <speed>25.39</speed>
  <fix>3d</fix>
</trkpt>
<trkpt lat="-27.2729654" lon="151.2895816">
  <ele>371.41</ele>
  <time>2026-09-01T19:57:23Z</time>
  <course>274.87</course>
  <speed>25.383727070704175</speed>
  <fix>3d</fix>
</trkpt>
<trkpt lat="-27.2729674" lon="151.2896063">
  <ele>371.5</ele>
  <time>2026-09-01T19:57:23Z</time>
  <course>274.59</course>
  <speed>25.39</speed>
  <fix>3d</fix>
</trkpt>
<trkpt lat="-27.2729635" lon="151.289556">
  <ele>371.41</ele>
  <time>2026-09-01T19:57:23Z</time>
  <course>274.96</course>
  <speed>25.383727070704175</speed>
  <fix>3d</fix>
</trkpt>
<trkpt lat="-27.2729674" lon="151.2896063">
  <ele>371.5</ele>
  <time>2026-09-01T19:57:23Z</time>
  <course>274.59</course>
  <speed>25.39</speed>
  <fix>3d</fix>
</trkpt>
<trkpt lat="-27.2729617" lon="151.2895303">
  <ele>371.42</ele>
  <time>2026-09-01T19:57:23Z</time>
  <course>274.97</course>
  <speed>25.383727070704175</speed>
  <fix>3d</fix>
</trkpt>
<trkpt lat="-27.2729637" lon="151.289555">
  <ele>371.51</ele>
  <time>2026-09-01T19:57:23Z</time>
  <course>274.58</course>
  <speed>25.39</speed>
  <fix>3d</fix>
</trkpt>
<trkpt lat="-27.2729599" lon="151.2895047">
  <ele>371.43</ele>
  <time>2026-09-01T19:57:23Z</time>
  <course>274.93</course>
  <speed>25.393694099126265</speed>
  <fix>3d</fix>
</trkpt>
<trkpt lat="-27.2729637" lon="151.289555">
  <ele>371.51</ele>
  <time>2026-09-01T19:57:23Z</time>
  <course>274.58</course>
  <speed>25.39</speed>
  <fix>3d</fix>
</trkpt>
<trkpt lat="-27.272958" lon="151.2894791">
  <ele>371.43</ele>
  <time>2026-09-01T19:57:23Z</time>
  <course>274.91</course>
  <speed>25.39450728011867</speed>
  <fix>3d</fix>
</trkpt>
<trkpt lat="-27.2729601" lon="151.2895039">
  <ele>371.53</ele>
  <time>2026-09-01T19:57:23Z</time>
  <course>274.58</course>
  <speed>25.39</speed>
  <fix>3d</fix>
</trkpt>
<trkpt lat="-27.2729562" lon="151.2894534">
  <ele>371.44</ele>
  <time>2026-09-01T19:57:23Z</time>
  <course>274.89</course>
  <speed>25.393694099126265</speed>
  <fix>3d</fix>
</trkpt>
<trkpt lat="-27.2729601" lon="151.2895039">
  <ele>371.53</ele>
  <time>2026-09-01T19:57:23Z</time>
  <course>274.58</course>
  <speed>25.39</speed>
  <fix>3d</fix>
</trkpt>
<trkpt lat="-27.2729544" lon="151.2894278">
  <ele>371.45</ele>
  <time>2026-09-01T19:57:23Z</time>
  <course>274.92</course>
  <speed>25.393694099126265</speed>
  <fix>3d</fix>
</trkpt>
<trkpt lat="-27.2729564" lon="151.2894528">
  <ele>371.54</ele>
  <time>2026-09-01T19:57:23Z</time>
  <course>274.58</course>
  <speed>25.39</speed>
  <fix>3d</fix>
</trkpt>
<trkpt lat="-27.2729526" lon="151.2894022">
  <ele>371.46</ele>
  <time>2026-09-01T19:57:23Z</time>
  <course>274.91</course>
  <speed>25.402852202065816</speed>
  <fix>3d</fix>
</trkpt>
<trkpt lat="-27.2729564" lon="151.2894528">
  <ele>371.54</ele>
  <time>2026-09-01T19:57:23Z</time>
  <course>274.58</course>
  <speed>25.39</speed>
  <fix>3d</fix>
</trkpt>
<trkpt lat="-27.2729508" lon="151.2893768">
  <ele>371.47</ele>
  <time>2026-09-01T19:57:23Z</time>
  <course>274.92</course>
  <speed>25.402852202065816</speed>
  <fix>3d</fix>
</trkpt>
<trkpt lat="-27.2729528" lon="151.2894016">
  <ele>371.56</ele>
  <time>2026-09-01T19:57:23Z</time>
  <course>274.57</course>
  <speed>25.39</speed>
  <fix>3d</fix>
</trkpt>
<trkpt lat="-27.272949" lon="151.2893511">
  <ele>371.48</ele>
  <time>2026-09-01T19:57:23Z</time>
  <course>274.97</course>
  <speed>25.392079473725662</speed>
  <fix>3d</fix>
</trkpt>
<trkpt lat="-27.2729528" lon="151.2894016">
  <ele>371.56</ele>
  <time>2026-09-01T19:57:23Z</time>
  <course>274.57</course>
  <speed>25.39</speed>
  <fix>3d</fix>
</trkpt>
<trkpt lat="-27.2729471" lon="151.2893255">
  <ele>371.49</ele>
  <time>2026-09-01T19:57:23Z</time>
  <course>274.93</course>
  <speed>25.392079473725662</speed>
  <fix>3d</fix>
</trkpt>
<trkpt lat="-27.2729492" lon="151.2893505">
  <ele>371.58</ele>
  <time>2026-09-01T19:57:23Z</time>
  <course>274.55</course>
  <speed>25.39</speed>
  <fix>3d</fix>
</trkpt>
<trkpt lat="-27.2729454" lon="151.2892999">
  <ele>371.51</ele>
  <time>2026-09-01T19:57:23Z</time>
  <course>274.94</course>
  <speed>25.4012460324292</speed>
  <fix>3d</fix>
</trkpt>
<trkpt lat="-27.2729492" lon="151.2893505">
  <ele>371.58</ele>
  <time>2026-09-01T19:57:23Z</time>
  <course>274.55</course>
  <speed>25.39</speed>
  <fix>3d</fix>
</trkpt>
<trkpt lat="-27.2729435" lon="151.2892741">
  <ele>371.52</ele>
  <time>2026-09-01T19:57:23Z</time>
  <course>274.97</course>
  <speed>25.391278030063788</speed>
  <fix>3d</fix>
</trkpt>
<trkpt lat="-27.2729455" lon="151.2892993">
  <ele>371.6</ele>
  <time>2026-09-01T19:57:23Z</time>
  <course>274.53</course>
  <speed>25.39</speed>
  <fix>3d</fix>
</trkpt>
<trkpt lat="-27.2729417" lon="151.2892484">
  <ele>371.54</ele>
  <time>2026-09-01T19:57:23Z</time>
  <course>274.93</course>
  <speed>25.391278030063788</speed>
  <fix>3d</fix>
</trkpt>
<trkpt lat="-27.2729455" lon="151.2892993">
  <ele>371.6</ele>
  <time>2026-09-01T19:57:23Z</time>
  <course>274.53</course>
  <speed>25.39</speed>
  <fix>3d</fix>
</trkpt>
<trkpt lat="-27.2729399" lon="151.2892228">
  <ele>371.54</ele>
  <time>2026-09-01T19:57:23Z</time>
  <course>274.91</course>
  <speed>25.400448814932382</speed>
  <fix>3d</fix>
</trkpt>
<trkpt lat="-27.2729419" lon="151.2892481">
  <ele>371.63</ele>
  <time>2026-09-01T19:57:23Z</time>
  <course>274.52</course>
  <speed>25.39</speed>
  <fix>3d</fix>
</trkpt>
<trkpt lat="-27.2729381" lon="151.2891972">
  <ele>371.55</ele>
  <time>2026-09-01T19:57:23Z</time>
  <course>274.88</course>
  <speed>25.400448814932382</speed>
  <fix>3d</fix>
</trkpt>
<trkpt lat="-27.2729419" lon="151.2892481">
  <ele>371.63</ele>
  <time>2026-09-01T19:57:23Z</time>
  <course>274.52</course>
  <speed>25.39</speed>
  <fix>3d</fix>
</trkpt>
<trkpt lat="-27.2729363" lon="151.2891716">
  <ele>371.56</ele>
  <time>2026-09-01T19:57:23Z</time>
  <course>274.89</course>
  <speed>25.400448814932382</speed>
  <fix>3d</fix>
</trkpt>
<trkpt lat="-27.2729384" lon="151.289197">
  <ele>371.64</ele>
  <time>2026-09-01T19:57:23Z</time>
  <course>274.5</course>
  <speed>25.39</speed>
  <fix>3d</fix>
</trkpt>
<trkpt lat="-27.2729346" lon="151.289146">
  <ele>371.57</ele>
  <time>2026-09-01T19:57:23Z</time>
  <course>274.91</course>
  <speed>25.39965550947493</speed>
  <fix>3d</fix>
</trkpt>
<trkpt lat="-27.2729384" lon="151.289197">
  <ele>371.64</ele>
  <time>2026-09-01T19:57:23Z</time>
  <course>274.5</course>
  <speed>25.39</speed>
  <fix>3d</fix>
</trkpt>
<trkpt lat="-27.2729328" lon="151.2891204">
  <ele>371.58</ele>
  <time>2026-09-01T19:57:23Z</time>
  <course>274.92</course>
  <speed>25.39965550947493</speed>
  <fix>3d</fix>
</trkpt>
<trkpt lat="-27.2729348" lon="151.2891459">
  <ele>371.66</ele>
  <time>2026-09-01T19:57:23Z</time>
  <course>274.48</course>
  <speed>25.39</speed>
  <fix>3d</fix>
</trkpt>
<trkpt lat="-27.272931" lon="151.2890948">
  <ele>371.58</ele>
  <time>2026-09-01T19:57:23Z</time>
  <course>274.93</course>
  <speed>25.39965550947493</speed>
  <fix>3d</fix>
</trkpt>
<trkpt lat="-27.2729348" lon="151.2891459">
  <ele>371.66</ele>
  <time>2026-09-01T19:57:23Z</time>
  <course>274.48</course>
  <speed>25.39</speed>
  <fix>3d</fix>
</trkpt>
<trkpt lat="-27.2729292" lon="151.2890692">
  <ele>371.59</ele>
  <time>2026-09-01T19:57:23Z</time>
  <course>274.92</course>
  <speed>25.39965550947493</speed>
  <fix>3d</fix>
</trkpt>
<trkpt lat="-27.2729312" lon="151.2890946">
  <ele>371.67</ele>
  <time>2026-09-01T19:57:23Z</time>
  <course>274.48</course>
  <speed>25.39</speed>
  <fix>3d</fix>
</trkpt>
<trkpt lat="-27.2729274" lon="151.2890436">
  <ele>371.59</ele>
  <time>2026-09-01T19:57:23Z</time>
  <course>274.89</course>
  <speed>25.39965550947493</speed>
  <fix>3d</fix>
</trkpt>
<trkpt lat="-27.2729312" lon="151.2890946">
  <ele>371.67</ele>
  <time>2026-09-01T19:57:23Z</time>
  <course>274.48</course>
  <speed>25.39</speed>
  <fix>3d</fix>
</trkpt>
<trkpt lat="-27.2729257" lon="151.289018">
  <ele>371.6</ele>
  <time>2026-09-01T19:57:23Z</time>
  <course>274.88</course>
  <speed>25.39965550947493</speed>
  <fix>3d</fix>
</trkpt>
<trkpt lat="-27.2729276" lon="151.2890433">
  <ele>371.68</ele>
  <time>2026-09-01T19:57:23Z</time>
  <course>274.48</course>
  <speed>25.39</speed>
  <fix>3d</fix>
</trkpt>
<trkpt lat="-27.2729239" lon="151.2889922">
  <ele>371.61</ele>
  <time>2026-09-01T19:57:23Z</time>
  <course>274.91</course>
  <speed>25.38889717967285</speed>
  <fix>3d</fix>
</trkpt>
<trkpt lat="-27.2729276" lon="151.2890433">
  <ele>371.68</ele>
  <time>2026-09-01T19:57:23Z</time>
  <course>274.48</course>
  <speed>25.39</speed>
  <fix>3d</fix>
</trkpt>
<trkpt lat="-27.2729221" lon="151.2889666">
  <ele>371.61</ele>
  <time>2026-09-01T19:57:23Z</time>
  <course>274.89</course>
  <speed>25.38889717967285</speed>
  <fix>3d</fix>
</trkpt>
<trkpt lat="-27.2729241" lon="151.2889922">
  <ele>371.7</ele>
  <time>2026-09-01T19:57:23Z</time>
  <course>274.47</course>
  <speed>25.39</speed>
  <fix>3d</fix>
</trkpt>
<trkpt lat="-27.2729203" lon="151.288941">
  <ele>371.62</ele>
  <time>2026-09-01T19:57:23Z</time>
  <course>274.89</course>
  <speed>25.398866116423388</speed>
  <fix>3d</fix>
</trkpt>
<trkpt lat="-27.2729241" lon="151.2889922">
  <ele>371.7</ele>
  <time>2026-09-01T19:57:23Z</time>
  <course>274.47</course>
  <speed>25.39</speed>
  <fix>3d</fix>
</trkpt>
<trkpt lat="-27.2729185" lon="151.2889154">
  <ele>371.62</ele>
  <time>2026-09-01T19:57:23Z</time>
  <course>274.88</course>
  <speed>25.398866116423388</speed>
  <fix>3d</fix>
</trkpt>
<trkpt lat="-27.2729205" lon="151.2889411">
  <ele>371.71</ele>
  <time>2026-09-01T19:57:23Z</time>
  <course>274.47</course>
  <speed>25.39</speed>
  <fix>3d</fix>
</trkpt>
<trkpt lat="-27.2729168" lon="151.2888899">
  <ele>371.63</ele>
  <time>2026-09-01T19:57:23Z</time>
  <course>274.97</course>
  <speed>25.398866116423388</speed>
  <fix>3d</fix>
</trkpt>
<trkpt lat="-27.2729205" lon="151.2889411">
  <ele>371.71</ele>
  <time>2026-09-01T19:57:23Z</time>
  <course>274.47</course>
  <speed>25.39</speed>
  <fix>3d</fix>
</trkpt>
<trkpt lat="-27.272915" lon="151.2888643">
  <ele>371.64</ele>
  <time>2026-09-01T19:57:23Z</time>
  <course>275.0</course>
  <speed>25.38889717967285</speed>
  <fix>3d</fix>
</trkpt>
<trkpt lat="-27.2729169" lon="151.2888899">
  <ele>371.72</ele>
  <time>2026-09-01T19:57:23Z</time>
  <course>274.47</course>
  <speed>25.39</speed>
  <fix>3d</fix>
</trkpt>
<trkpt lat="-27.2729132" lon="151.2888391">
  <ele>371.64</ele>
  <time>2026-09-01T19:57:23Z</time>
  <course>274.97</course>
  <speed>25.38968688266951</speed>
  <fix>3d</fix>
</trkpt>
<trkpt lat="-27.2729169" lon="151.2888899">
  <ele>371.72</ele>
  <time>2026-09-01T19:57:23Z</time>
  <course>274.47</course>
  <speed>25.39</speed>
  <fix>3d</fix>
</trkpt>
<trkpt lat="-27.2729114" lon="151.2888136">
  <ele>371.65</ele>
  <time>2026-09-01T19:57:23Z</time>
  <course>274.93</course>
  <speed>25.38968688266951</speed>
  <fix>3d</fix>
</trkpt>
<trkpt lat="-27.2729134" lon="151.2888388">
  <ele>371.74</ele>
  <time>2026-09-01T19:57:23Z</time>
  <course>274.48</course>
  <speed>25.39</speed>
  <fix>3d</fix>
</trkpt>
<trkpt lat="-27.2729097" lon="151.2887881">
  <ele>371.65</ele>
  <time>2026-09-01T19:57:23Z</time>
  <course>274.89</course>
  <speed>25.38968688266951</speed>
  <fix>3d</fix>
</trkpt>
<trkpt lat="-27.2729134" lon="151.2888388">
  <ele>371.74</ele>
  <time>2026-09-01T19:57:23Z</time>
  <course>274.48</course>
  <speed>25.39</speed>
  <fix>3d</fix>
</trkpt>
<trkpt lat="-27.2729079" lon="151.2887627">
  <ele>371.65</ele>
  <time>2026-09-01T19:57:23Z</time>
  <course>274.87</course>
  <speed>25.378928267363854</speed>
  <fix>3d</fix>
</trkpt>
<trkpt lat="-27.2729098" lon="151.2887876">
  <ele>371.75</ele>
  <time>2026-09-01T19:57:23Z</time>
  <course>274.48</course>
  <speed>25.4</speed>
  <fix>3d</fix>
</trkpt>
<trkpt lat="-27.2729061" lon="151.288737">
  <ele>371.66</ele>
  <time>2026-09-01T19:57:23Z</time>
  <course>274.91</course>
  <speed>25.378928267363854</speed>
  <fix>3d</fix>
</trkpt>
<trkpt lat="-27.2729098" lon="151.2887876">
  <ele>371.75</ele>
  <time>2026-09-01T19:57:23Z</time>
  <course>274.48</course>
  <speed>25.4</speed>
  <fix>3d</fix>
</trkpt>
<trkpt lat="-27.2729043" lon="151.2887115">
  <ele>371.66</ele>
  <time>2026-09-01T19:57:23Z</time>
  <course>274.94</course>
  <speed>25.378928267363854</speed>
  <fix>3d</fix>
</trkpt>
<trkpt lat="-27.2729062" lon="151.2887364">
  <ele>371.76</ele>
  <time>2026-09-01T19:57:23Z</time>
  <course>274.48</course>
  <speed>25.4</speed>
  <fix>3d</fix>
</trkpt>
<trkpt lat="-27.2729026" lon="151.2886861">
  <ele>371.67</ele>
  <time>2026-09-01T19:57:23Z</time>
  <course>274.94</course>
  <speed>25.369749703140553</speed>
  <fix>3d</fix>
</trkpt>
<trkpt lat="-27.2729062" lon="151.2887364">
  <ele>371.76</ele>
  <time>2026-09-01T19:57:23Z</time>
  <course>274.48</course>
  <speed>25.4</speed>
  <fix>3d</fix>
</trkpt>
<trkpt lat="-27.2729008" lon="151.2886606">
  <ele>371.68</ele>
  <time>2026-09-01T19:57:23Z</time>
  <course>274.96</course>
  <speed>25.369749703140553</speed>
  <fix>3d</fix>
</trkpt>
<trkpt lat="-27.2729027" lon="151.2886853">
  <ele>371.78</ele>
  <time>2026-09-01T19:57:23Z</time>
  <course>274.5</course>
  <speed>25.4</speed>
  <fix>3d</fix>
</trkpt>
<trkpt lat="-27.272899" lon="151.2886351">
  <ele>371.68</ele>
  <time>2026-09-01T19:57:23Z</time>
  <course>275.0</course>
  <speed>25.359781150475257</speed>
  <fix>3d</fix>
</trkpt>
<trkpt lat="-27.2729027" lon="151.2886853">
  <ele>371.78</ele>
  <time>2026-09-01T19:57:23Z</time>
  <course>274.5</course>
  <speed>25.4</speed>
  <fix>3d</fix>
</trkpt>
<trkpt lat="-27.2728972" lon="151.2886096">
  <ele>371.69</ele>
  <time>2026-09-01T19:57:23Z</time>
  <course>274.93</course>
  <speed>25.360575703244596</speed>
  <fix>3d</fix>
</trkpt>
<trkpt lat="-27.2728991" lon="151.288634">
  <ele>371.79</ele>
  <time>2026-09-01T19:57:23Z</time>
  <course>274.51</course>
  <speed>25.4</speed>
  <fix>3d</fix>
</trkpt>
<trkpt lat="-27.2728954" lon="151.2885841">
  <ele>371.7</ele>
  <time>2026-09-01T19:57:23Z</time>
  <course>274.92</course>
  <speed>25.359781150475257</speed>
  <fix>3d</fix>
</trkpt>
<trkpt lat="-27.2728991" lon="151.288634">
  <ele>371.79</ele>
  <time>2026-09-01T19:57:23Z</time>
  <course>274.51</course>
  <speed>25.4</speed>
  <fix>3d</fix>
</trkpt>
<trkpt lat="-27.2728936" lon="151.2885586">
  <ele>371.7</ele>
  <time>2026-09-01T19:57:23Z</time>
  <course>274.91</course>
  <speed>25.359781150475257</speed>
  <fix>3d</fix>
</trkpt>
<trkpt lat="-27.2728955" lon="151.2885827">
  <ele>371.8</ele>
  <time>2026-09-01T19:57:23Z</time>
  <course>274.51</course>
  <speed>25.41</speed>
  <fix>3d</fix>
</trkpt>
<trkpt lat="-27.2728919" lon="151.2885331">
  <ele>371.7</ele>
  <time>2026-09-01T19:57:23Z</time>
  <course>274.97</course>
  <speed>25.358990516185774</speed>
  <fix>3d</fix>
</trkpt>
<trkpt lat="-27.2728955" lon="151.2885827">
  <ele>371.8</ele>
  <time>2026-09-01T19:57:23Z</time>
  <course>274.51</course>
  <speed>25.41</speed>
  <fix>3d</fix>
</trkpt>
<trkpt lat="-27.2728901" lon="151.2885076">
  <ele>371.7</ele>
  <time>2026-09-01T19:57:23Z</time>
  <course>274.94</course>
  <speed>25.358990516185774</speed>
  <fix>3d</fix>
</trkpt>
<trkpt lat="-27.2728919" lon="151.2885314">
  <ele>371.81</ele>
  <time>2026-09-01T19:57:23Z</time>
  <course>274.5</course>
  <speed>25.41</speed>
  <fix>3d</fix>
</trkpt>
<trkpt lat="-27.2728883" lon="151.288482">
  <ele>371.7</ele>
  <time>2026-09-01T19:57:23Z</time>
  <course>274.89</course>
  <speed>25.358990516185774</speed>
  <fix>3d</fix>
</trkpt>
<trkpt lat="-27.2728919" lon="151.2885314">
  <ele>371.81</ele>
  <time>2026-09-01T19:57:23Z</time>
  <course>274.5</course>
  <speed>25.41</speed>
  <fix>3d</fix>
</trkpt>
<trkpt lat="-27.2728865" lon="151.2884565">
  <ele>371.71</ele>
  <time>2026-09-01T19:57:23Z</time>
  <course>274.9</course>
  <speed>25.35820380074267</speed>
  <fix>3d</fix>
</trkpt>
<trkpt lat="-27.2728883" lon="151.2884803">
  <ele>371.81</ele>
  <time>2026-09-01T19:57:23Z</time>
  <course>274.48</course>
  <speed>25.41</speed>
  <fix>3d</fix>
</trkpt>
<trkpt lat="-27.2728848" lon="151.2884309">
  <ele>371.72</ele>
  <time>2026-09-01T19:57:23Z</time>
  <course>274.91</course>
  <speed>25.357421004510694</speed>
  <fix>3d</fix>
</trkpt>
<trkpt lat="-27.2728883" lon="151.2884803">
  <ele>371.81</ele>
  <time>2026-09-01T19:57:23Z</time>
  <course>274.48</course>
  <speed>25.41</speed>
  <fix>3d</fix>
</trkpt>
<trkpt lat="-27.272883" lon="151.2884054">
  <ele>371.72</ele>
  <time>2026-09-01T19:57:23Z</time>
  <course>274.86</course>
  <speed>25.357421004510694</speed>
  <fix>3d</fix>
</trkpt>
<trkpt lat="-27.2728847" lon="151.288429">
  <ele>371.82</ele>
  <time>2026-09-01T19:57:23Z</time>
  <course>274.46</course>
  <speed>25.41</speed>
  <fix>3d</fix>
</trkpt>
<trkpt lat="-27.2728812" lon="151.2883798">
  <ele>371.73</ele>
  <time>2026-09-01T19:57:23Z</time>
  <course>274.84</course>
  <speed>25.356642127852812</speed>
  <fix>3d</fix>
</trkpt>
<trkpt lat="-27.2728847" lon="151.288429">
  <ele>371.82</ele>
  <time>2026-09-01T19:57:23Z</time>
  <course>274.46</course>
  <speed>25.41</speed>
  <fix>3d</fix>
</trkpt>
<trkpt lat="-27.2728795" lon="151.2883542">
  <ele>371.73</ele>
  <time>2026-09-01T19:57:24Z</time>
  <course>274.87</course>
  <speed>25.356642127852812</speed>
  <fix>3d</fix>
</trkpt>
<trkpt lat="-27.2728812" lon="151.2883779">
  <ele>371.83</ele>
  <time>2026-09-01T19:57:24Z</time>
  <course>274.45</course>
  <speed>25.42</speed>
  <fix>3d</fix>
</trkpt>
<trkpt lat="-27.2728777" lon="151.2883286">
  <ele>371.74</ele>
  <time>2026-09-01T19:57:24Z</time>
  <course>274.96</course>
  <speed>25.356642127852812</speed>
  <fix>3d</fix>
</trkpt>
<trkpt lat="-27.2728812" lon="151.2883779">
  <ele>371.83</ele>
  <time>2026-09-01T19:57:24Z</time>
  <course>274.45</course>
  <speed>25.42</speed>
  <fix>3d</fix>
</trkpt>
<trkpt lat="-27.2728759" lon="151.2883031">
  <ele>371.74</ele>
  <time>2026-09-01T19:57:24Z</time>
  <course>274.97</course>
  <speed>25.357421004510694</speed>
  <fix>3d</fix>
</trkpt>
<trkpt lat="-27.2728776" lon="151.2883266">
  <ele>371.84</ele>
  <time>2026-09-01T19:57:24Z</time>
  <course>274.45</course>
  <speed>25.42</speed>
  <fix>3d</fix>
</trkpt>
<trkpt lat="-27.2728742" lon="151.2882775">
  <ele>371.74</ele>
  <time>2026-09-01T19:57:24Z</time>
  <course>274.95</course>
  <speed>25.36739048463598</speed>
  <fix>3d</fix>
</trkpt>
<trkpt lat="-27.2728776" lon="151.2883266">
  <ele>371.84</ele>
  <time>2026-09-01T19:57:24Z</time>
  <course>274.45</course>
  <speed>25.42</speed>
  <fix>3d</fix>
</trkpt>
<trkpt lat="-27.2728724" lon="151.2882519">
  <ele>371.74</ele>
  <time>2026-09-01T19:57:24Z</time>
  <course>274.95</course>
  <speed>25.35820380074267</speed>
  <fix>3d</fix>
</trkpt>
<trkpt lat="-27.2728741" lon="151.2882755">
  <ele>371.84</ele>
  <time>2026-09-01T19:57:24Z</time>
  <course>274.46</course>
  <speed>25.42</speed>
  <fix>3d</fix>
</trkpt>
<trkpt lat="-27.2728706" lon="151.2882262">
  <ele>371.75</ele>
  <time>2026-09-01T19:57:24Z</time>
  <course>274.95</course>
  <speed>25.368959379525208</speed>
  <fix>3d</fix>
</trkpt>
<trkpt lat="-27.2728741" lon="151.2882755">
  <ele>371.84</ele>
  <time>2026-09-01T19:57:24Z</time>
  <course>274.46</course>
  <speed>25.42</speed>
  <fix>3d</fix>
</trkpt>
<trkpt lat="-27.2728688" lon="151.2882004">
  <ele>371.76</ele>
  <time>2026-09-01T19:57:24Z</time>
  <course>274.9</course>
  <speed>25.368959379525208</speed>
  <fix>3d</fix>
</trkpt>
<trkpt lat="-27.2728705" lon="151.2882242">
  <ele>371.85</ele>
  <time>2026-09-01T19:57:24Z</time>
  <course>274.49</course>
  <speed>25.42</speed>
  <fix>3d</fix>
</trkpt>
<trkpt lat="-27.272867" lon="151.2881748">
  <ele>371.77</ele>
  <time>2026-09-01T19:57:24Z</time>
  <course>274.92</course>
  <speed>25.368959379525208</speed>
  <fix>3d</fix>
</trkpt>
<trkpt lat="-27.2728705" lon="151.2882242">
  <ele>371.85</ele>
  <time>2026-09-01T19:57:24Z</time>
  <course>274.49</course>
  <speed>25.42</speed>
  <fix>3d</fix>
</trkpt>
<trkpt lat="-27.2728652" lon="151.2881492">
  <ele>371.77</ele>
  <time>2026-09-01T19:57:24Z</time>
  <course>274.9</course>
  <speed>25.368959379525208</speed>
  <fix>3d</fix>
</trkpt>
<trkpt lat="-27.272867" lon="151.2881729">
  <ele>371.86</ele>
  <time>2026-09-01T19:57:24Z</time>
  <course>274.49</course>
  <speed>25.42</speed>
  <fix>3d</fix>
</trkpt>
<trkpt lat="-27.2728634" lon="151.2881234">
  <ele>371.78</ele>
  <time>2026-09-01T19:57:24Z</time>
  <course>274.92</course>
  <speed>25.378928267363854</speed>
  <fix>3d</fix>
</trkpt>
<trkpt lat="-27.272867" lon="151.2881729">
  <ele>371.86</ele>
  <time>2026-09-01T19:57:24Z</time>
  <course>274.49</course>
  <speed>25.42</speed>
  <fix>3d</fix>
</trkpt>
<trkpt lat="-27.2728616" lon="151.2880978">
  <ele>371.78</ele>
  <time>2026-09-01T19:57:24Z</time>
  <course>274.92</course>
  <speed>25.378142169985573</speed>
  <fix>3d</fix>
</trkpt>
<trkpt lat="-27.2728634" lon="151.2881218">
  <ele>371.87</ele>
  <time>2026-09-01T19:57:24Z</time>
  <course>274.49</course>
  <speed>25.43</speed>
  <fix>3d</fix>
</trkpt>
<trkpt lat="-27.2728598" lon="151.2880721">
  <ele>371.79</ele>
  <time>2026-09-01T19:57:24Z</time>
  <course>274.91</course>
  <speed>25.38889717967285</speed>
  <fix>3d</fix>
</trkpt>
<trkpt lat="-27.2728634" lon="151.2881218">
  <ele>371.87</ele>
  <time>2026-09-01T19:57:24Z</time>
  <course>274.49</course>
  <speed>25.43</speed>
  <fix>3d</fix>
</trkpt>
<trkpt lat="-27.272858" lon="151.2880464">
  <ele>371.79</ele>
  <time>2026-09-01T19:57:24Z</time>
  <course>274.96</course>
  <speed>25.388111390964077</speed>
  <fix>3d</fix>
</trkpt>
<trkpt lat="-27.2728598" lon="151.2880705">
  <ele>371.88</ele>
  <time>2026-09-01T19:57:24Z</time>
  <course>274.48</course>
  <speed>25.43</speed>
  <fix>3d</fix>
</trkpt>
<trkpt lat="-27.2728563" lon="151.2880207">
  <ele>371.8</ele>
  <time>2026-09-01T19:57:24Z</time>
  <course>274.95</course>
  <speed>25.38889717967285</speed>
  <fix>3d</fix>
</trkpt>
<trkpt lat="-27.2728598" lon="151.2880705">
  <ele>371.88</ele>
  <time>2026-09-01T19:57:24Z</time>
  <course>274.48</course>
  <speed>25.43</speed>
  <fix>3d</fix>
</trkpt>
<trkpt lat="-27.2728545" lon="151.287995">
  <ele>371.81</ele>
  <time>2026-09-01T19:57:24Z</time>
  <course>274.94</course>
  <speed>25.38889717967285</speed>
  <fix>3d</fix>
</trkpt>
<trkpt lat="-27.2728562" lon="151.2880192">
  <ele>371.89</ele>
  <time>2026-09-01T19:57:24Z</time>
  <course>274.48</course>
  <speed>25.42</speed>
  <fix>3d</fix>
</trkpt>
<trkpt lat="-27.2728527" lon="151.2879693">
  <ele>371.82</ele>
  <time>2026-09-01T19:57:24Z</time>
  <course>274.89</course>
  <speed>25.398866116423388</speed>
  <fix>3d</fix>
</trkpt>
<trkpt lat="-27.2728562" lon="151.2880192">
  <ele>371.89</ele>
  <time>2026-09-01T19:57:24Z</time>
  <course>274.48</course>
  <speed>25.42</speed>
  <fix>3d</fix>
</trkpt>
<trkpt lat="-27.2728509" lon="151.2879436">
  <ele>371.82</ele>
  <time>2026-09-01T19:57:24Z</time>
  <course>274.82</course>
  <speed>25.398080636142566</speed>
  <fix>3d</fix>
</trkpt>
<trkpt lat="-27.2728526" lon="151.2879679">
  <ele>371.9</ele>
  <time>2026-09-01T19:57:24Z</time>
  <course>274.48</course>
  <speed>25.42</speed>
  <fix>3d</fix>
</trkpt>
<trkpt lat="-27.2728491" lon="151.2879179">
  <ele>371.83</ele>
  <time>2026-09-01T19:57:24Z</time>
  <course>274.83</course>
  <speed>25.408049905492547</speed>
  <fix>3d</fix>
</trkpt>
<trkpt lat="-27.2728526" lon="151.2879679">
  <ele>371.9</ele>
  <time>2026-09-01T19:57:24Z</time>
  <course>274.48</course>
  <speed>25.42</speed>
  <fix>3d</fix>
</trkpt>
<trkpt lat="-27.2728473" lon="151.2878922">
  <ele>371.84</ele>
  <time>2026-09-01T19:57:24Z</time>
  <course>274.87</course>
  <speed>25.408049905492547</speed>
  <fix>3d</fix>
</trkpt>
<trkpt lat="-27.2728491" lon="151.2879166">
  <ele>371.91</ele>
  <time>2026-09-01T19:57:24Z</time>
  <course>274.47</course>
  <speed>25.42</speed>
  <fix>3d</fix>
</trkpt>
<trkpt lat="-27.2728455" lon="151.2878665">
  <ele>371.84</ele>
  <time>2026-09-01T19:57:24Z</time>
  <course>274.89</course>
  <speed>25.407268645015744</speed>
  <fix>3d</fix>
</trkpt>
<trkpt lat="-27.2728491" lon="151.2879166">
  <ele>371.91</ele>
  <time>2026-09-01T19:57:24Z</time>
  <course>274.47</course>
  <speed>25.42</speed>
  <fix>3d</fix>
</trkpt>
<trkpt lat="-27.2728437" lon="151.2878408">
  <ele>371.85</ele>
  <time>2026-09-01T19:57:24Z</time>
  <course>274.86</course>
  <speed>25.406491296517114</speed>
  <fix>3d</fix>
</trkpt>
<trkpt lat="-27.2728455" lon="151.2878655">
  <ele>371.92</ele>
  <time>2026-09-01T19:57:24Z</time>
  <course>274.44</course>
  <speed>25.42</speed>
  <fix>3d</fix>
</trkpt>
<trkpt lat="-27.272842" lon="151.2878151">
  <ele>371.85</ele>
  <time>2026-09-01T19:57:24Z</time>
  <course>274.84</course>
  <speed>25.416461201355315</speed>
  <fix>3d</fix>
</trkpt>
<trkpt lat="-27.2728455" lon="151.2878655">
  <ele>371.92</ele>
  <time>2026-09-01T19:57:24Z</time>
  <course>274.44</course>
  <speed>25.42</speed>
  <fix>3d</fix>
</trkpt>
<trkpt lat="-27.2728402" lon="151.2877894">
  <ele>371.85</ele>
  <time>2026-09-01T19:57:24Z</time>
  <course>274.85</course>
  <speed>25.415688068592594</speed>
  <fix>3d</fix>
</trkpt>
<trkpt lat="-27.272842" lon="151.2878142">
  <ele>371.93</ele>
  <time>2026-09-01T19:57:24Z</time>
  <course>274.41</course>
  <speed>25.42</speed>
  <fix>3d</fix>
</trkpt>
<trkpt lat="-27.2728385" lon="151.2877637">
  <ele>371.85</ele>
  <time>2026-09-01T19:57:24Z</time>
  <course>274.88</course>
  <speed>25.425658300228925</speed>
  <fix>3d</fix>
</trkpt>
<trkpt lat="-27.272842" lon="151.2878142">
  <ele>371.93</ele>
  <time>2026-09-01T19:57:24Z</time>
  <course>274.41</course>
  <speed>25.42</speed>
  <fix>3d</fix>
</trkpt>
<trkpt lat="-27.2728367" lon="151.2877381">
  <ele>371.86</ele>
  <time>2026-09-01T19:57:24Z</time>
  <course>274.91</course>
  <speed>25.415688068592594</speed>
  <fix>3d</fix>
</trkpt>
<trkpt lat="-27.2728384" lon="151.2877629">
  <ele>371.94</ele>
  <time>2026-09-01T19:57:24Z</time>
  <course>274.39</course>
  <speed>25.42</speed>
  <fix>3d</fix>
</trkpt>
<trkpt lat="-27.2728349" lon="151.2877124">
  <ele>371.87</ele>
  <time>2026-09-01T19:57:24Z</time>
  <course>274.92</course>
  <speed>25.415688068592594</speed>
  <fix>3d</fix>
</trkpt>
<trkpt lat="-27.2728384" lon="151.2877629">
  <ele>371.94</ele>
  <time>2026-09-01T19:57:24Z</time>
  <course>274.39</course>
  <speed>25.42</speed>
  <fix>3d</fix>
</trkpt>
<trkpt lat="-27.2728332" lon="151.2876867">
  <ele>371.88</ele>
  <time>2026-09-01T19:57:24Z</time>
  <course>274.88</course>
  <speed>25.415688068592594</speed>
  <fix>3d</fix>
</trkpt>
<trkpt lat="-27.2728349" lon="151.2877118">
  <ele>371.95</ele>
  <time>2026-09-01T19:57:24Z</time>
  <course>274.4</course>
  <speed>25.41</speed>
  <fix>3d</fix>
</trkpt>
<trkpt lat="-27.2728314" lon="151.2876613">
  <ele>371.88</ele>
  <time>2026-09-01T19:57:24Z</time>
  <course>274.85</course>
  <speed>25.415688068592594</speed>
  <fix>3d</fix>
</trkpt>
<trkpt lat="-27.2728349" lon="151.2877118">
  <ele>371.95</ele>
  <time>2026-09-01T19:57:24Z</time>
  <course>274.4</course>
  <speed>25.41</speed>
  <fix>3d</fix>
</trkpt>
<trkpt lat="-27.2728297" lon="151.2876356">
  <ele>371.89</ele>
  <time>2026-09-01T19:57:24Z</time>
  <course>274.85</course>
  <speed>25.415688068592594</speed>
  <fix>3d</fix>
</trkpt>
<trkpt lat="-27.2728314" lon="151.2876605">
  <ele>371.96</ele>
  <time>2026-09-01T19:57:24Z</time>
  <course>274.4</course>
  <speed>25.41</speed>
  <fix>3d</fix>
</trkpt>
<trkpt lat="-27.2728279" lon="151.28761">
  <ele>371.9</ele>
  <time>2026-09-01T19:57:24Z</time>
  <course>274.9</course>
  <speed>25.415688068592594</speed>
  <fix>3d</fix>
</trkpt>
<trkpt lat="-27.2728314" lon="151.2876605">
  <ele>371.96</ele>
  <time>2026-09-01T19:57:24Z</time>
  <course>274.4</course>
  <speed>25.41</speed>
  <fix>3d</fix>
</trkpt>
<trkpt lat="-27.2728261" lon="151.2875839">
  <ele>371.9</ele>
  <time>2026-09-01T19:57:24Z</time>
  <course>274.93</course>
  <speed>25.415688068592594</speed>
  <fix>3d</fix>
</trkpt>
<trkpt lat="-27.2728279" lon="151.2876094">
  <ele>371.97</ele>
  <time>2026-09-01T19:57:24Z</time>
  <course>274.4</course>
  <speed>25.4</speed>
  <fix>3d</fix>
</trkpt>
<trkpt lat="-27.2728244" lon="151.2875582">
  <ele>371.9</ele>
  <time>2026-09-01T19:57:24Z</time>
  <course>274.89</course>
  <speed>25.426431129830235</speed>
  <fix>3d</fix>
</trkpt>
<trkpt lat="-27.2728279" lon="151.2876094">
  <ele>371.97</ele>
  <time>2026-09-01T19:57:24Z</time>
  <course>274.4</course>
  <speed>25.4</speed>
  <fix>3d</fix>
</trkpt>
<trkpt lat="-27.2728226" lon="151.2875326">
  <ele>371.9</ele>
  <time>2026-09-01T19:57:24Z</time>
  <course>274.89</course>
  <speed>25.426431129830235</speed>
  <fix>3d</fix>
</trkpt>
<trkpt lat="-27.2728244" lon="151.2875582">
  <ele>371.98</ele>
  <time>2026-09-01T19:57:24Z</time>
  <course>274.41</course>
  <speed>25.41</speed>
  <fix>3d</fix>
</trkpt>
<trkpt lat="-27.2728208" lon="151.2875069">
  <ele>371.9</ele>
  <time>2026-09-01T19:57:24Z</time>
  <course>274.87</course>
  <speed>25.426431129830235</speed>
  <fix>3d</fix>
</trkpt>
<trkpt lat="-27.2728244" lon="151.2875582">
  <ele>371.98</ele>
  <time>2026-09-01T19:57:24Z</time>
  <course>274.41</course>
  <speed>25.41</speed>
  <fix>3d</fix>
</trkpt>
<trkpt lat="-27.2728191" lon="151.2874813">
  <ele>371.9</ele>
  <time>2026-09-01T19:57:24Z</time>
  <course>274.9</course>
  <speed>25.426431129830235</speed>
  <fix>3d</fix>
</trkpt>
<trkpt lat="-27.2728209" lon="151.287507">
  <ele>371.98</ele>
  <time>2026-09-01T19:57:24Z</time>
  <course>274.42</course>
  <speed>25.41</speed>
  <fix>3d</fix>
</trkpt>
<trkpt lat="-27.2728173" lon="151.2874556">
  <ele>371.9</ele>
  <time>2026-09-01T19:57:24Z</time>
  <course>274.9</course>
  <speed>25.426431129830235</speed>
  <fix>3d</fix>
</trkpt>
<trkpt lat="-27.2728209" lon="151.287507">
  <ele>371.98</ele>
  <time>2026-09-01T19:57:24Z</time>
  <course>274.42</course>
  <speed>25.41</speed>
  <fix>3d</fix>
</trkpt>
<trkpt lat="-27.2728155" lon="151.2874299">
  <ele>371.91</ele>
  <time>2026-09-01T19:57:24Z</time>
  <course>274.9</course>
  <speed>25.427207868737767</speed>
  <fix>3d</fix>
</trkpt>
<trkpt lat="-27.2728174" lon="151.2874557">
  <ele>371.98</ele>
  <time>2026-09-01T19:57:24Z</time>
  <course>274.42</course>
  <speed>25.4</speed>
  <fix>3d</fix>
</trkpt>
<trkpt lat="-27.2728138" lon="151.2874044">
  <ele>371.92</ele>
  <time>2026-09-01T19:57:24Z</time>
  <course>274.96</course>
  <speed>25.427207868737767</speed>
  <fix>3d</fix>
</trkpt>
<trkpt lat="-27.2728174" lon="151.2874557">
  <ele>371.98</ele>
  <time>2026-09-01T19:57:24Z</time>
  <course>274.42</course>
  <speed>25.4</speed>
  <fix>3d</fix>
</trkpt>
<trkpt lat="-27.272812" lon="151.2873788">
  <ele>371.92</ele>
  <time>2026-09-01T19:57:24Z</time>
  <course>274.97</course>
  <speed>25.427988516593288</speed>
  <fix>3d</fix>
</trkpt>
<trkpt lat="-27.2728139" lon="151.2874044">
  <ele>371.99</ele>
  <time>2026-09-01T19:57:24Z</time>
  <course>274.43</course>
  <speed>25.4</speed>
  <fix>3d</fix>
</trkpt>
<trkpt lat="-27.2728102" lon="151.2873533">
  <ele>371.93</ele>
  <time>2026-09-01T19:57:24Z</time>
  <course>274.96</course>
  <speed>25.41801919898559</speed>
  <fix>3d</fix>
</trkpt>
<trkpt lat="-27.2728139" lon="151.2874044">
  <ele>371.99</ele>
  <time>2026-09-01T19:57:24Z</time>
  <course>274.43</course>
  <speed>25.4</speed>
  <fix>3d</fix>
</trkpt>
<trkpt lat="-27.2728085" lon="151.2873278">
  <ele>371.93</ele>
  <time>2026-09-01T19:57:24Z</time>
  <course>274.99</course>
  <speed>25.418804063134047</speed>
  <fix>3d</fix>
</trkpt>
<trkpt lat="-27.2728103" lon="151.2873533">
  <ele>372.0</ele>
  <time>2026-09-01T19:57:24Z</time>
  <course>274.45</course>
  <speed>25.41</speed>
  <fix>3d</fix>
</trkpt>
<trkpt lat="-27.2728067" lon="151.2873023">
  <ele>371.93</ele>
  <time>2026-09-01T19:57:24Z</time>
  <course>275.02</course>
  <speed>25.408835077586694</speed>
  <fix>3d</fix>
</trkpt>
<trkpt lat="-27.2728103" lon="151.2873533">
  <ele>372.0</ele>
  <time>2026-09-01T19:57:24Z</time>
  <course>274.45</course>
  <speed>25.41</speed>
  <fix>3d</fix>
</trkpt>
<trkpt lat="-27.2728049" lon="151.2872768">
  <ele>371.94</ele>
  <time>2026-09-01T19:57:24Z</time>
  <course>275.03</course>
  <speed>25.39965550947493</speed>
  <fix>3d</fix>
</trkpt>
<trkpt lat="-27.2728068" lon="151.287302">
  <ele>372.01</ele>
  <time>2026-09-01T19:57:24Z</time>
  <course>274.48</course>
  <speed>25.41</speed>
  <fix>3d</fix>
</trkpt>
<trkpt lat="-27.2728031" lon="151.2872514">
  <ele>371.93</ele>
  <time>2026-09-01T19:57:24Z</time>
  <course>275.03</course>
  <speed>25.400448814932382</speed>
  <fix>3d</fix>
</trkpt>
<trkpt lat="-27.2728068" lon="151.287302">
  <ele>372.01</ele>
  <time>2026-09-01T19:57:24Z</time>
  <course>274.48</course>
  <speed>25.41</speed>
  <fix>3d</fix>
</trkpt>
<trkpt lat="-27.2728013" lon="151.2872259">
  <ele>371.93</ele>
  <time>2026-09-01T19:57:24Z</time>
  <course>275.08</course>
  <speed>25.391278030063788</speed>
  <fix>3d</fix>
</trkpt>
<trkpt lat="-27.2728032" lon="151.2872509">
  <ele>372.01</ele>
  <time>2026-09-01T19:57:24Z</time>
  <course>274.52</course>
  <speed>25.4</speed>
  <fix>3d</fix>
</trkpt>
<trkpt lat="-27.2727995" lon="151.2872004">
  <ele>371.94</ele>
  <time>2026-09-01T19:57:24Z</time>
  <course>275.08</course>
  <speed>25.392079473725662</speed>
  <fix>3d</fix>
</trkpt>
<trkpt lat="-27.2728032" lon="151.2872509">
  <ele>372.01</ele>
  <time>2026-09-01T19:57:24Z</time>
  <course>274.52</course>
  <speed>25.4</speed>
  <fix>3d</fix>
</trkpt>
<trkpt lat="-27.2727977" lon="151.2871749">
  <ele>371.94</ele>
  <time>2026-09-01T19:57:24Z</time>
  <course>275.04</course>
  <speed>25.382111811273703</speed>
  <fix>3d</fix>
</trkpt>
<trkpt lat="-27.2727996" lon="151.2871997">
  <ele>372.01</ele>
  <time>2026-09-01T19:57:24Z</time>
  <course>274.56</course>
  <speed>25.4</speed>
  <fix>3d</fix>
</trkpt>
<trkpt lat="-27.2727959" lon="151.2871494">
  <ele>371.94</ele>
  <time>2026-09-01T19:57:24Z</time>
  <course>275.05</course>
  <speed>25.37214417427112</speed>
  <fix>3d</fix>
</trkpt>
<trkpt lat="-27.2727996" lon="151.2871997">
  <ele>372.01</ele>
  <time>2026-09-01T19:57:24Z</time>
  <course>274.56</course>
  <speed>25.4</speed>
  <fix>3d</fix>
</trkpt>
<trkpt lat="-27.2727941" lon="151.2871241">
  <ele>371.94</ele>
  <time>2026-09-01T19:57:24Z</time>
  <course>275.08</course>
  <speed>25.37214417427112</speed>
  <fix>3d</fix>
</trkpt>
<trkpt lat="-27.2727959" lon="151.2871485">
  <ele>372.01</ele>
  <time>2026-09-01T19:57:24Z</time>
  <course>274.57</course>
  <speed>25.4</speed>
  <fix>3d</fix>
</trkpt>
<trkpt lat="-27.2727923" lon="151.2870987">
  <ele>371.95</ele>
  <time>2026-09-01T19:57:24Z</time>
  <course>275.14</course>
  <speed>25.362176562747923</speed>
  <fix>3d</fix>
</trkpt>
<trkpt lat="-27.2727959" lon="151.2871485">
  <ele>372.01</ele>
  <time>2026-09-01T19:57:24Z</time>
  <course>274.57</course>
  <speed>25.4</speed>
  <fix>3d</fix>
</trkpt>
<trkpt lat="-27.2727904" lon="151.2870732">
  <ele>371.95</ele>
  <time>2026-09-01T19:57:24Z</time>
  <course>275.11</course>
  <speed>25.362176562747923</speed>
  <fix>3d</fix>
</trkpt>
<trkpt lat="-27.2727923" lon="151.2870974">
  <ele>372.02</ele>
  <time>2026-09-01T19:57:24Z</time>
  <course>274.57</course>
  <speed>25.39</speed>
  <fix>3d</fix>
</trkpt>
<trkpt lat="-27.2727886" lon="151.2870477">
  <ele>371.95</ele>
  <time>2026-09-01T19:57:24Z</time>
  <course>275.07</course>
  <speed>25.35220897673416</speed>
  <fix>3d</fix>
</trkpt>
<trkpt lat="-27.2727923" lon="151.2870974">
  <ele>372.02</ele>
  <time>2026-09-01T19:57:24Z</time>
  <course>274.57</course>
  <speed>25.39</speed>
  <fix>3d</fix>
</trkpt>
<trkpt lat="-27.2727868" lon="151.287022">
  <ele>371.95</ele>
  <time>2026-09-01T19:57:24Z</time>
  <course>275.05</course>
  <speed>25.35220897673416</speed>
  <fix>3d</fix>
</trkpt>
<trkpt lat="-27.2727887" lon="151.2870462">
  <ele>372.02</ele>
  <time>2026-09-01T19:57:24Z</time>
  <course>274.57</course>
  <speed>25.39</speed>
  <fix>3d</fix>
</trkpt>
<trkpt lat="-27.272785" lon="151.2869965">
  <ele>371.95</ele>
  <time>2026-09-01T19:57:24Z</time>
  <course>275.02</course>
  <speed>25.35140627263111</speed>
  <fix>3d</fix>
</trkpt>
<trkpt lat="-27.2727887" lon="151.2870462">
  <ele>372.02</ele>
  <time>2026-09-01T19:57:24Z</time>
  <course>274.57</course>
  <speed>25.39</speed>
  <fix>3d</fix>
</trkpt>
<trkpt lat="-27.2727832" lon="151.286971">
  <ele>371.95</ele>
  <time>2026-09-01T19:57:24Z</time>
  <course>275.06</course>
  <speed>25.35140627263111</speed>
  <fix>3d</fix>
</trkpt>
<trkpt lat="-27.272785" lon="151.2869951">
  <ele>372.03</ele>
  <time>2026-09-01T19:57:24Z</time>
  <course>274.56</course>
  <speed>25.39</speed>
  <fix>3d</fix>
</trkpt>
<trkpt lat="-27.2727814" lon="151.2869455">
  <ele>371.95</ele>
  <time>2026-09-01T19:57:24Z</time>
  <course>275.1</course>
  <speed>25.35140627263111</speed>
  <fix>3d</fix>
</trkpt>
<trkpt lat="-27.272785" lon="151.2869951">
  <ele>372.03</ele>
  <time>2026-09-01T19:57:24Z</time>
  <course>274.56</course>
  <speed>25.39</speed>
  <fix>3d</fix>
</trkpt>
<trkpt lat="-27.2727796" lon="151.2869199">
  <ele>371.95</ele>
  <time>2026-09-01T19:57:24Z</time>
  <course>275.09</course>
  <speed>25.35060748779011</speed>
  <fix>3d</fix>
</trkpt>
<trkpt lat="-27.2727814" lon="151.2869438">
  <ele>372.03</ele>
  <time>2026-09-01T19:57:24Z</time>
  <course>274.55</course>
  <speed>25.39</speed>
  <fix>3d</fix>
</trkpt>
<trkpt lat="-27.2727778" lon="151.2868944">
  <ele>371.94</ele>
  <time>2026-09-01T19:57:24Z</time>
  <course>275.07</course>
  <speed>25.35060748779011</speed>
  <fix>3d</fix>
</trkpt>
<trkpt lat="-27.2727814" lon="151.2869438">
  <ele>372.03</ele>
  <time>2026-09-01T19:57:24Z</time>
  <course>274.55</course>
  <speed>25.39</speed>
  <fix>3d</fix>
</trkpt>
<trkpt lat="-27.272776" lon="151.2868687">
  <ele>371.94</ele>
  <time>2026-09-01T19:57:24Z</time>
  <course>275.04</course>
  <speed>25.35060748779011</speed>
  <fix>3d</fix>
</trkpt>
<trkpt lat="-27.2727778" lon="151.2868925">
  <ele>372.02</ele>
  <time>2026-09-01T19:57:24Z</time>
  <course>274.54</course>
  <speed>25.4</speed>
  <fix>3d</fix>
</trkpt>
<trkpt lat="-27.2727742" lon="151.2868431">
  <ele>371.94</ele>
  <time>2026-09-01T19:57:24Z</time>
  <course>274.99</course>
  <speed>25.35060748779011</speed>
  <fix>3d</fix>
</trkpt>
<trkpt lat="-27.2727778" lon="151.2868925">
  <ele>372.02</ele>
  <time>2026-09-01T19:57:24Z</time>
  <course>274.54</course>
  <speed>25.4</speed>
  <fix>3d</fix>
</trkpt>
<trkpt lat="-27.2727724" lon="151.2868176">
  <ele>371.94</ele>
  <time>2026-09-01T19:57:24Z</time>
  <course>274.96</course>
  <speed>25.349812622581652</speed>
  <fix>3d</fix>
</trkpt>
<trkpt lat="-27.2727742" lon="151.2868414">
  <ele>372.02</ele>
  <time>2026-09-01T19:57:24Z</time>
  <course>274.52</course>
  <speed>25.4</speed>
  <fix>3d</fix>
</trkpt>
<trkpt lat="-27.2727706" lon="151.286792">
  <ele>371.93</ele>
  <time>2026-09-01T19:57:24Z</time>
  <course>274.96</course>
  <speed>25.358990516185774</speed>
  <fix>3d</fix>
</trkpt>
<trkpt lat="-27.2727742" lon="151.2868414">
  <ele>372.02</ele>
  <time>2026-09-01T19:57:24Z</time>
  <course>274.52</course>
  <speed>25.4</speed>
  <fix>3d</fix>
</trkpt>
<trkpt lat="-27.2727688" lon="151.2867664">
  <ele>371.93</ele>
  <time>2026-09-01T19:57:24Z</time>
  <course>274.96</course>
  <speed>25.35820380074267</speed>
  <fix>3d</fix>
</trkpt>
<trkpt lat="-27.2727706" lon="151.2867902">
  <ele>372.01</ele>
  <time>2026-09-01T19:57:24Z</time>
  <course>274.48</course>
  <speed>25.41</speed>
  <fix>3d</fix>
</trkpt>
<trkpt lat="-27.272767" lon="151.2867409">
  <ele>371.93</ele>
  <time>2026-09-01T19:57:24Z</time>
  <course>275.03</course>
  <speed>25.357421004510694</speed>
  <fix>3d</fix>
</trkpt>
<trkpt lat="-27.2727706" lon="151.2867902">
  <ele>372.01</ele>
  <time>2026-09-01T19:57:24Z</time>
  <course>274.48</course>
  <speed>25.41</speed>
  <fix>3d</fix>
</trkpt>
<trkpt lat="-27.2727653" lon="151.2867153">
  <ele>371.93</ele>
  <time>2026-09-01T19:57:24Z</time>
  <course>275.09</course>
  <speed>25.357421004510694</speed>
  <fix>3d</fix>
</trkpt>
<trkpt lat="-27.272767" lon="151.286739">
  <ele>372.01</ele>
  <time>2026-09-01T19:57:24Z</time>
  <course>274.44</course>
  <speed>25.41</speed>
  <fix>3d</fix>
</trkpt>
<trkpt lat="-27.2727635" lon="151.2866897">
  <ele>371.93</ele>
  <time>2026-09-01T19:57:24Z</time>
  <course>275.04</course>
  <speed>25.357421004510694</speed>
  <fix>3d</fix>
</trkpt>
<trkpt lat="-27.272767" lon="151.286739">
  <ele>372.01</ele>
  <time>2026-09-01T19:57:24Z</time>
  <course>274.44</course>
  <speed>25.41</speed>
  <fix>3d</fix>
</trkpt>
<trkpt lat="-27.2727617" lon="151.2866641">
  <ele>371.93</ele>
  <time>2026-09-01T19:57:24Z</time>
  <course>275.0</course>
  <speed>25.357421004510694</speed>
  <fix>3d</fix>
</trkpt>
<trkpt lat="-27.2727635" lon="151.2866878">
  <ele>372.01</ele>
  <time>2026-09-01T19:57:24Z</time>
  <course>274.43</course>
  <speed>25.42</speed>
  <fix>3d</fix>
</trkpt>
<trkpt lat="-27.27276" lon="151.2866386">
  <ele>371.93</ele>
  <time>2026-09-01T19:57:24Z</time>
  <course>275.0</course>
  <speed>25.36739048463598</speed>
  <fix>3d</fix>
</trkpt>
<trkpt lat="-27.2727635" lon="151.2866878">
  <ele>372.01</ele>
  <time>2026-09-01T19:57:24Z</time>
  <course>274.43</course>
  <speed>25.42</speed>
  <fix>3d</fix>
</trkpt>
<trkpt lat="-27.2727582" lon="151.2866132">
  <ele>371.93</ele>
  <time>2026-09-01T19:57:24Z</time>
  <course>274.97</course>
  <speed>25.368172973235577</speed>
  <fix>3d</fix>
</trkpt>
<trkpt lat="-27.2727599" lon="151.2866366">
  <ele>372.02</ele>
  <time>2026-09-01T19:57:24Z</time>
  <course>274.44</course>
  <speed>25.42</speed>
  <fix>3d</fix>
</trkpt>
<trkpt lat="-27.2727564" lon="151.2865876">
  <ele>371.94</ele>
  <time>2026-09-01T19:57:24Z</time>
  <course>275.02</course>
  <speed>25.368172973235577</speed>
  <fix>3d</fix>
</trkpt>
<trkpt lat="-27.2727599" lon="151.2866366">
  <ele>372.02</ele>
  <time>2026-09-01T19:57:24Z</time>
  <course>274.44</course>
  <speed>25.42</speed>
  <fix>3d</fix>
</trkpt>
<trkpt lat="-27.2727547" lon="151.286562">
  <ele>371.94</ele>
  <time>2026-09-01T19:57:24Z</time>
  <course>275.02</course>
  <speed>25.358990516185774</speed>
  <fix>3d</fix>
</trkpt>
<trkpt lat="-27.2727564" lon="151.2865853">
  <ele>372.02</ele>
  <time>2026-09-01T19:57:24Z</time>
  <course>274.46</course>
  <speed>25.42</speed>
  <fix>3d</fix>
</trkpt>
<trkpt lat="-27.2727529" lon="151.2865364">
  <ele>371.94</ele>
  <time>2026-09-01T19:57:24Z</time>
  <course>275.04</course>
  <speed>25.369749703140553</speed>
  <fix>3d</fix>
</trkpt>
<trkpt lat="-27.2727564" lon="151.2865853">
  <ele>372.02</ele>
  <time>2026-09-01T19:57:24Z</time>
  <course>274.46</course>
  <speed>25.42</speed>
  <fix>3d</fix>
</trkpt>
<trkpt lat="-27.2727511" lon="151.2865108">
  <ele>371.94</ele>
  <time>2026-09-01T19:57:24Z</time>
  <course>275.02</course>
  <speed>25.370543943715514</speed>
  <fix>3d</fix>
</trkpt>
<trkpt lat="-27.2727528" lon="151.2865342">
  <ele>372.02</ele>
  <time>2026-09-01T19:57:24Z</time>
  <course>274.49</course>
  <speed>25.42</speed>
  <fix>3d</fix>
</trkpt>
<trkpt lat="-27.2727492" lon="151.286485">
  <ele>371.95</ele>
  <time>2026-09-01T19:57:24Z</time>
  <course>274.99</course>
  <speed>25.370543943715514</speed>
  <fix>3d</fix>
</trkpt>
<trkpt lat="-27.2727528" lon="151.2865342">
  <ele>372.02</ele>
  <time>2026-09-01T19:57:24Z</time>
  <course>274.49</course>
  <speed>25.42</speed>
  <fix>3d</fix>
</trkpt>
<trkpt lat="-27.2727474" lon="151.2864594">
  <ele>371.95</ele>
  <time>2026-09-01T19:57:24Z</time>
  <course>275.04</course>
  <speed>25.370543943715514</speed>
  <fix>3d</fix>
</trkpt>
<trkpt lat="-27.2727493" lon="151.2864829">
  <ele>372.03</ele>
  <time>2026-09-01T19:57:24Z</time>
  <course>274.52</course>
  <speed>25.42</speed>
  <fix>3d</fix>
</trkpt>
<trkpt lat="-27.2727456" lon="151.2864338">
  <ele>371.95</ele>
  <time>2026-09-01T19:57:24Z</time>
  <course>275.07</course>
  <speed>25.37134210088225</speed>
  <fix>3d</fix>
</trkpt>
<trkpt lat="-27.2727493" lon="151.2864829">
  <ele>372.03</ele>
  <time>2026-09-01T19:57:24Z</time>
  <course>274.52</course>
  <speed>25.42</speed>
  <fix>3d</fix>
</trkpt>
<trkpt lat="-27.2727438" lon="151.2864082">
  <ele>371.96</ele>
  <time>2026-09-01T19:57:24Z</time>
  <course>275.07</course>
  <speed>25.37134210088225</speed>
  <fix>3d</fix>
</trkpt>
<trkpt lat="-27.2727456" lon="151.2864316">
  <ele>372.03</ele>
  <time>2026-09-01T19:57:24Z</time>
  <course>274.53</course>
  <speed>25.42</speed>
  <fix>3d</fix>
</trkpt>
<trkpt lat="-27.272742" lon="151.2863825">
  <ele>371.96</ele>
  <time>2026-09-01T19:57:24Z</time>
  <course>275.07</course>
  <speed>25.37134210088225</speed>
  <fix>3d</fix>
</trkpt>
<trkpt lat="-27.2727456" lon="151.2864316">
  <ele>372.03</ele>
  <time>2026-09-01T19:57:24Z</time>
  <course>274.53</course>
  <speed>25.42</speed>
  <fix>3d</fix>
</trkpt>
<trkpt lat="-27.2727402" lon="151.2863569">
  <ele>371.96</ele>
  <time>2026-09-01T19:57:24Z</time>
  <course>275.08</course>
  <speed>25.382111811273703</speed>
  <fix>3d</fix>
</trkpt>
<trkpt lat="-27.272742" lon="151.2863803">
  <ele>372.04</ele>
  <time>2026-09-01T19:57:24Z</time>
  <course>274.55</course>
  <speed>25.42</speed>
  <fix>3d</fix>
</trkpt>
<trkpt lat="-27.2727384" lon="151.2863312">
  <ele>371.96</ele>
  <time>2026-09-01T19:57:24Z</time>
  <course>275.07</course>
  <speed>25.382111811273703</speed>
  <fix>3d</fix>
</trkpt>
<trkpt lat="-27.272742" lon="151.2863803">
  <ele>372.04</ele>
  <time>2026-09-01T19:57:24Z</time>
  <course>274.55</course>
  <speed>25.42</speed>
  <fix>3d</fix>
</trkpt>
<trkpt lat="-27.2727365" lon="151.2863055">
  <ele>371.96</ele>
  <time>2026-09-01T19:57:24Z</time>
  <course>275.06</course>
  <speed>25.382111811273703</speed>
  <fix>3d</fix>
</trkpt>
<trkpt lat="-27.2727384" lon="151.2863291">
  <ele>372.04</ele>
  <time>2026-09-01T19:57:24Z</time>
  <course>274.55</course>
  <speed>25.42</speed>
  <fix>3d</fix>
</trkpt>
<trkpt lat="-27.2727347" lon="151.2862798">
  <ele>371.96</ele>
  <time>2026-09-01T19:57:24Z</time>
  <course>275.05</course>
  <speed>25.392079473725662</speed>
  <fix>3d</fix>
</trkpt>
<trkpt lat="-27.2727384" lon="151.2863291">
  <ele>372.04</ele>
  <time>2026-09-01T19:57:24Z</time>
  <course>274.55</course>
  <speed>25.42</speed>
  <fix>3d</fix>
</trkpt>
<trkpt lat="-27.2727329" lon="151.2862542">
  <ele>371.96</ele>
  <time>2026-09-01T19:57:24Z</time>
  <course>275.1</course>
  <speed>25.392079473725662</speed>
  <fix>3d</fix>
</trkpt>
<trkpt lat="-27.2727348" lon="151.2862779">
  <ele>372.04</ele>
  <time>2026-09-01T19:57:24Z</time>
  <course>274.55</course>
  <speed>25.42</speed>
  <fix>3d</fix>
</trkpt>
<trkpt lat="-27.2727311" lon="151.2862285">
  <ele>371.96</ele>
  <time>2026-09-01T19:57:24Z</time>
  <course>275.12</course>
  <speed>25.402047161597032</speed>
  <fix>3d</fix>
</trkpt>
<trkpt lat="-27.2727348" lon="151.2862779">
  <ele>372.04</ele>
  <time>2026-09-01T19:57:24Z</time>
  <course>274.55</course>
  <speed>25.42</speed>
  <fix>3d</fix>
</trkpt>
<trkpt lat="-27.2727293" lon="151.2862028">
  <ele>371.97</ele>
  <time>2026-09-01T19:57:24Z</time>
  <course>275.11</course>
  <speed>25.402852202065816</speed>
  <fix>3d</fix>
</trkpt>
<trkpt lat="-27.2727311" lon="151.2862266">
  <ele>372.05</ele>
  <time>2026-09-01T19:57:24Z</time>
  <course>274.56</course>
  <speed>25.42</speed>
  <fix>3d</fix>
</trkpt>
<trkpt lat="-27.2727274" lon="151.2861771">
  <ele>371.97</ele>
  <time>2026-09-01T19:57:24Z</time>
  <course>275.14</course>
  <speed>25.402852202065816</speed>
  <fix>3d</fix>
</trkpt>
<trkpt lat="-27.2727311" lon="151.2862266">
  <ele>372.05</ele>
  <time>2026-09-01T19:57:24Z</time>
  <course>274.56</course>
  <speed>25.42</speed>
  <fix>3d</fix>
</trkpt>
<trkpt lat="-27.2727256" lon="151.2861513">
  <ele>371.97</ele>
  <time>2026-09-01T19:57:24Z</time>
  <course>275.14</course>
  <speed>25.402852202065816</speed>
  <fix>3d</fix>
</trkpt>
<trkpt lat="-27.2727275" lon="151.2861755">
  <ele>372.05</ele>
  <time>2026-09-01T19:57:24Z</time>
  <course>274.58</course>
  <speed>25.43</speed>
  <fix>3d</fix>
</trkpt>
<trkpt lat="-27.2727238" lon="151.2861256">
  <ele>371.97</ele>
  <time>2026-09-01T19:57:24Z</time>
  <course>275.17</course>
  <speed>25.41281959956431</speed>
  <fix>3d</fix>
</trkpt>
<trkpt lat="-27.2727275" lon="151.2861755">
  <ele>372.05</ele>
  <time>2026-09-01T19:57:24Z</time>
  <course>274.58</course>
  <speed>25.43</speed>
  <fix>3d</fix>
</trkpt>
<trkpt lat="-27.2727219" lon="151.2860999">
  <ele>371.98</ele>
  <time>2026-09-01T19:57:24Z</time>
  <course>275.21</course>
  <speed>25.41362823368596</speed>
  <fix>3d</fix>
</trkpt>
<trkpt lat="-27.2727238" lon="151.2861242">
  <ele>372.06</ele>
  <time>2026-09-01T19:57:24Z</time>
  <course>274.59</course>
  <speed>25.43</speed>
  <fix>3d</fix>
</trkpt>
<trkpt lat="-27.2727201" lon="151.2860744">
  <ele>371.98</ele>
  <time>2026-09-01T19:57:24Z</time>
  <course>275.19</course>
  <speed>25.41362823368596</speed>
  <fix>3d</fix>
</trkpt>
<trkpt lat="-27.2727238" lon="151.2861242">
  <ele>372.06</ele>
  <time>2026-09-01T19:57:24Z</time>
  <course>274.59</course>
  <speed>25.43</speed>
  <fix>3d</fix>
</trkpt>
<trkpt lat="-27.2727183" lon="151.2860488">
  <ele>371.98</ele>
  <time>2026-09-01T19:57:24Z</time>
  <course>275.12</course>
  <speed>25.41362823368596</speed>
  <fix>3d</fix>
</trkpt>
<trkpt lat="-27.2727201" lon="151.286073">
  <ele>372.06</ele>
  <time>2026-09-01T19:57:24Z</time>
  <course>274.6</course>
  <speed>25.43</speed>
  <fix>3d</fix>
</trkpt>
<trkpt lat="-27.2727164" lon="151.2860231">
  <ele>371.98</ele>
  <time>2026-09-01T19:57:24Z</time>
  <course>275.07</course>
  <speed>25.423595339762628</speed>
  <fix>3d</fix>
</trkpt>
<trkpt lat="-27.2727201" lon="151.286073">
  <ele>372.06</ele>
  <time>2026-09-01T19:57:24Z</time>
  <course>274.6</course>
  <speed>25.43</speed>
  <fix>3d</fix>
</trkpt>
<trkpt lat="-27.2727146" lon="151.2859974">
  <ele>371.98</ele>
  <time>2026-09-01T19:57:24Z</time>
  <course>275.11</course>
  <speed>25.42278702266925</speed>
  <fix>3d</fix>
</trkpt>
<trkpt lat="-27.2727165" lon="151.2860218">
  <ele>372.06</ele>
  <time>2026-09-01T19:57:24Z</time>
  <course>274.59</course>
  <speed>25.43</speed>
  <fix>3d</fix>
</trkpt>
<trkpt lat="-27.2727127" lon="151.2859714">
  <ele>371.99</ele>
  <time>2026-09-01T19:57:24Z</time>
  <course>275.11</course>
  <speed>25.431950377428784</speed>
  <fix>3d</fix>
</trkpt>
<trkpt lat="-27.2727165" lon="151.2860218">
  <ele>372.06</ele>
  <time>2026-09-01T19:57:24Z</time>
  <course>274.59</course>
  <speed>25.43</speed>
  <fix>3d</fix>
</trkpt>
<trkpt lat="-27.2727109" lon="151.2859457">
  <ele>371.99</ele>
  <time>2026-09-01T19:57:24Z</time>
  <course>275.12</course>
  <speed>25.431950377428784</speed>
  <fix>3d</fix>
</trkpt>
<trkpt lat="-27.2727128" lon="151.2859705">
  <ele>372.06</ele>
  <time>2026-09-01T19:57:24Z</time>
  <course>274.57</course>
  <speed>25.43</speed>
  <fix>3d</fix>
</trkpt>
<trkpt lat="-27.2727091" lon="151.28592">
  <ele>372.0</ele>
  <time>2026-09-01T19:57:24Z</time>
  <course>275.16</course>
  <speed>25.431950377428784</speed>
  <fix>3d</fix>
</trkpt>
<trkpt lat="-27.2727128" lon="151.2859705">
  <ele>372.06</ele>
  <time>2026-09-01T19:57:24Z</time>
  <course>274.57</course>
  <speed>25.43</speed>
  <fix>3d</fix>
</trkpt>
<trkpt lat="-27.2727073" lon="151.2858944">
  <ele>372.01</ele>
  <time>2026-09-01T19:57:24Z</time>
  <course>275.2</course>
  <speed>25.431950377428784</speed>
  <fix>3d</fix>
</trkpt>
<trkpt lat="-27.2727092" lon="151.2859193">
  <ele>372.07</ele>
  <time>2026-09-01T19:57:24Z</time>
  <course>274.56</course>
  <speed>25.42</speed>
  <fix>3d</fix>
</trkpt>
<trkpt lat="-27.2727055" lon="151.2858687">
  <ele>372.01</ele>
  <time>2026-09-01T19:57:24Z</time>
  <course>275.18</course>
  <speed>25.431950377428784</speed>
  <fix>3d</fix>
</trkpt>
<trkpt lat="-27.2727092" lon="151.2859193">
  <ele>372.07</ele>
  <time>2026-09-01T19:57:24Z</time>
  <course>274.56</course>
  <speed>25.42</speed>
  <fix>3d</fix>
</trkpt>
<trkpt lat="-27.2727036" lon="151.285843">
  <ele>372.01</ele>
  <time>2026-09-01T19:57:24Z</time>
  <course>275.15</course>
  <speed>25.42198261347844</speed>
  <fix>3d</fix>
</trkpt>
<trkpt lat="-27.2727055" lon="151.285868">
  <ele>372.08</ele>
  <time>2026-09-01T19:57:24Z</time>
  <course>274.56</course>
  <speed>25.41</speed>
  <fix>3d</fix>
</trkpt>
<trkpt lat="-27.2727018" lon="151.2858174">
  <ele>372.02</ele>
  <time>2026-09-01T19:57:24Z</time>
  <course>275.1</course>
  <speed>25.42198261347844</speed>
  <fix>3d</fix>
</trkpt>
<trkpt lat="-27.2727055" lon="151.285868">
  <ele>372.08</ele>
  <time>2026-09-01T19:57:24Z</time>
  <course>274.56</course>
  <speed>25.41</speed>
  <fix>3d</fix>
</trkpt>
<trkpt lat="-27.2727" lon="151.2857917">
  <ele>372.02</ele>
  <time>2026-09-01T19:57:24Z</time>
  <course>275.13</course>
  <speed>25.42278702266925</speed>
  <fix>3d</fix>
</trkpt>
<trkpt lat="-27.2727019" lon="151.2858168">
  <ele>372.08</ele>
  <time>2026-09-01T19:57:24Z</time>
  <course>274.56</course>
  <speed>25.41</speed>
  <fix>3d</fix>
</trkpt>
<trkpt lat="-27.2726982" lon="151.2857661">
  <ele>372.02</ele>
  <time>2026-09-01T19:57:24Z</time>
  <course>275.19</course>
  <speed>25.42278702266925</speed>
  <fix>3d</fix>
</trkpt>
<trkpt lat="-27.2727019" lon="151.2858168">
  <ele>372.08</ele>
  <time>2026-09-01T19:57:24Z</time>
  <course>274.56</course>
  <speed>25.41</speed>
  <fix>3d</fix>
</trkpt>
<trkpt lat="-27.2726963" lon="151.2857404">
  <ele>372.02</ele>
  <time>2026-09-01T19:57:24Z</time>
  <course>275.21</course>
  <speed>25.423595339762628</speed>
  <fix>3d</fix>
</trkpt>
<trkpt lat="-27.2726983" lon="151.2857656">
  <ele>372.09</ele>
  <time>2026-09-01T19:57:24Z</time>
  <course>274.58</course>
  <speed>25.4</speed>
  <fix>3d</fix>
</trkpt>
<trkpt lat="-27.2726945" lon="151.2857148">
  <ele>372.02</ele>
  <time>2026-09-01T19:57:24Z</time>
  <course>275.17</course>
  <speed>25.423595339762628</speed>
  <fix>3d</fix>
</trkpt>
<trkpt lat="-27.2726983" lon="151.2857656">
  <ele>372.09</ele>
  <time>2026-09-01T19:57:24Z</time>
  <course>274.58</course>
  <speed>25.4</speed>
  <fix>3d</fix>
</trkpt>
<trkpt lat="-27.2726926" lon="151.2856892">
  <ele>372.02</ele>
  <time>2026-09-01T19:57:24Z</time>
  <course>275.16</course>
  <speed>25.42440756438584</speed>
  <fix>3d</fix>
</trkpt>
<trkpt lat="-27.2726946" lon="151.2857144">
  <ele>372.1</ele>
  <time>2026-09-01T19:57:24Z</time>
  <course>274.61</course>
  <speed>25.4</speed>
  <fix>3d</fix>
</trkpt>
<trkpt lat="-27.2726908" lon="151.2856635">
  <ele>372.03</ele>
  <time>2026-09-01T19:57:24Z</time>
  <course>275.12</course>
  <speed>25.42440756438584</speed>
  <fix>3d</fix>
</trkpt>
<trkpt lat="-27.2726946" lon="151.2857144">
  <ele>372.1</ele>
  <time>2026-09-01T19:57:24Z</time>
  <course>274.61</course>
  <speed>25.4</speed>
  <fix>3d</fix>
</trkpt>
<trkpt lat="-27.2726889" lon="151.2856378">
  <ele>372.02</ele>
  <time>2026-09-01T19:57:24Z</time>
  <course>274.92</course>
  <speed>25.42440756438584</speed>
  <fix>3d</fix>
</trkpt>
<trkpt lat="-27.2726909" lon="151.2856632">
  <ele>372.1</ele>
  <time>2026-09-01T19:57:24Z</time>
  <course>274.63</course>
  <speed>25.4</speed>
  <fix>3d</fix>
</trkpt>
<trkpt lat="-27.2726871" lon="151.2856121">
  <ele>372.03</ele>
  <time>2026-09-01T19:57:24Z</time>
  <course>274.45</course>
  <speed>25.431950377428784</speed>
  <fix>3d</fix>
</trkpt>
<trkpt lat="-27.2726909" lon="151.2856632">
  <ele>372.1</ele>
  <time>2026-09-01T19:57:24Z</time>
  <course>274.63</course>
  <speed>25.4</speed>
  <fix>3d</fix>
</trkpt>
<trkpt lat="-27.2726853" lon="151.2855865">
  <ele>372.03</ele>
  <time>2026-09-01T19:57:24Z</time>
  <course>273.69</course>
  <speed>25.431824551140643</speed>
  <fix>3d</fix>
</trkpt>
<trkpt lat="-27.2726873" lon="151.285612">
  <ele>372.11</ele>
  <time>2026-09-01T19:57:24Z</time>
  <course>274.46</course>
  <speed>25.4</speed>
  <fix>3d</fix>
</trkpt>
<trkpt lat="-27.2726838" lon="151.2855608">
  <ele>372.05</ele>
  <time>2026-09-01T19:57:24Z</time>
  <course>272.97</course>
  <speed>25.442267980665562</speed>
  <fix>3d</fix>
</trkpt>
<trkpt lat="-27.2726873" lon="151.285612">
  <ele>372.11</ele>
  <time>2026-09-01T19:57:24Z</time>
  <course>274.46</course>
  <speed>25.4</speed>
  <fix>3d</fix>
</trkpt>
<trkpt lat="-27.2726825" lon="151.285535">
  <ele>372.07</ele>
  <time>2026-09-01T19:57:24Z</time>
  <course>272.37</course>
  <speed>25.447373145375927</speed>
  <fix>3d</fix>
</trkpt>
<trkpt lat="-27.272684" lon="151.2855609">
  <ele>372.13</ele>
  <time>2026-09-01T19:57:24Z</time>
  <course>273.48</course>
  <speed>25.4</speed>
  <fix>3d</fix>
</trkpt>
<trkpt lat="-27.2726817" lon="151.2855093">
  <ele>372.08</ele>
  <time>2026-09-01T19:57:24Z</time>
  <course>271.74</course>
  <speed>25.466835296125822</speed>
  <fix>3d</fix>
</trkpt>
<trkpt lat="-27.272684" lon="151.2855609">
  <ele>372.13</ele>
  <time>2026-09-01T19:57:24Z</time>
  <course>273.48</course>
  <speed>25.4</speed>
  <fix>3d</fix>
</trkpt>
<trkpt lat="-27.2726816" lon="151.2854835">
  <ele>372.1</ele>
  <time>2026-09-01T19:57:24Z</time>
  <course>270.76</course>
  <speed>25.49044134572801</speed>
  <fix>3d</fix>
</trkpt>
<trkpt lat="-27.2726821" lon="151.2855096">
  <ele>372.16</ele>
  <time>2026-09-01T19:57:24Z</time>
  <course>271.18</course>
  <speed>25.41</speed>
  <fix>3d</fix>
</trkpt>
<trkpt lat="-27.2726822" lon="151.2854577">
  <ele>372.11</ele>
  <time>2026-09-01T19:57:24Z</time>
  <course>269.12</course>
  <speed>25.54326721466931</speed>
  <fix>3d</fix>
</trkpt>
<trkpt lat="-27.2726821" lon="151.2855096">
  <ele>372.16</ele>
  <time>2026-09-01T19:57:24Z</time>
  <course>271.18</course>
  <speed>25.41</speed>
  <fix>3d</fix>
</trkpt>
<trkpt lat="-27.2726836" lon="151.2854316">
  <ele>372.12</ele>
  <time>2026-09-01T19:57:24Z</time>
  <course>267.0</course>
  <speed>25.603831744486996</speed>
  <fix>3d</fix>
</trkpt>
<trkpt lat="-27.2726825" lon="151.2854582">
  <ele>372.19</ele>
  <time>2026-09-01T19:57:24Z</time>
  <course>267.43</course>
  <speed>25.46</speed>
  <fix>3d</fix>
</trkpt>
<trkpt lat="-27.2726861" lon="151.285406">
  <ele>372.14</ele>
  <time>2026-09-01T19:57:24Z</time>
  <course>264.3</course>
  <speed>25.678763599519353</speed>
  <fix>3d</fix>
</trkpt>
<trkpt lat="-27.2726825" lon="151.2854582">
  <ele>372.19</ele>
  <time>2026-09-01T19:57:24Z</time>
  <course>267.43</course>
  <speed>25.46</speed>
  <fix>3d</fix>
</trkpt>
<trkpt lat="-27.2726898" lon="151.2853804">
  <ele>372.18</ele>
  <time>2026-09-01T19:57:24Z</time>
  <course>261.21</course>
  <speed>25.759274058094107</speed>
  <fix>3d</fix>
</trkpt>
<trkpt lat="-27.2726865" lon="151.2854069">
  <ele>372.23</ele>
  <time>2026-09-01T19:57:24Z</time>
  <course>262.28</course>
  <speed>25.56</speed>
  <fix>3d</fix>
</trkpt>
<trkpt lat="-27.2726948" lon="151.2853551">
  <ele>372.24</ele>
  <time>2026-09-01T19:57:24Z</time>
  <course>258.08</course>
  <speed>25.825276377998357</speed>
  <fix>3d</fix>
</trkpt>
<trkpt lat="-27.2726865" lon="151.2854069">
  <ele>372.23</ele>
  <time>2026-09-01T19:57:24Z</time>
  <course>262.28</course>
  <speed>25.56</speed>
  <fix>3d</fix>
</trkpt>
<trkpt lat="-27.272701" lon="151.2853301">
  <ele>372.33</ele>
  <time>2026-09-01T19:57:24Z</time>
  <course>255.01</course>
  <speed>25.89135956260312</speed>
  <fix>3d</fix>
</trkpt>
<trkpt lat="-27.2726951" lon="151.2853559">
  <ele>372.33</ele>
  <time>2026-09-01T19:57:24Z</time>
  <course>256.22</course>
  <speed>25.69</speed>
  <fix>3d</fix>
</trkpt>
<trkpt lat="-27.2727084" lon="151.2853054">
  <ele>372.44</ele>
  <time>2026-09-01T19:57:24Z</time>
  <course>251.97</course>
  <speed>25.93491083462598</speed>
  <fix>3d</fix>
</trkpt>
<trkpt lat="-27.2726951" lon="151.2853559">
  <ele>372.33</ele>
  <time>2026-09-01T19:57:24Z</time>
  <course>256.22</course>
  <speed>25.69</speed>
  <fix>3d</fix>
</trkpt>
<trkpt lat="-27.2727169" lon="151.2852812">
  <ele>372.57</ele>
  <time>2026-09-01T19:57:24Z</time>
  <course>248.94</course>
  <speed>25.973811811130073</speed>
  <fix>3d</fix>
</trkpt>
<trkpt lat="-27.2727085" lon="151.285306">
  <ele>372.53</ele>
  <time>2026-09-01T19:57:24Z</time>
  <course>250.03</course>
  <speed>25.8</speed>
  <fix>3d</fix>
</trkpt>
<trkpt lat="-27.2727266" lon="151.2852575">
  <ele>372.72</ele>
  <time>2026-09-01T19:57:24Z</time>
  <course>245.93</course>
  <speed>25.997647970537642</speed>
  <fix>3d</fix>
</trkpt>
<trkpt lat="-27.2727085" lon="151.285306">
  <ele>372.53</ele>
  <time>2026-09-01T19:57:24Z</time>
  <course>250.03</course>
  <speed>25.8</speed>
  <fix>3d</fix>
</trkpt>
<trkpt lat="-27.2727374" lon="151.2852343">
  <ele>372.88</ele>
  <time>2026-09-01T19:57:24Z</time>
  <course>243.05</course>
  <speed>26.03244898199169</speed>
  <fix>3d</fix>
</trkpt>
<trkpt lat="-27.2727267" lon="151.285258">
  <ele>372.8</ele>
  <time>2026-09-01T19:57:24Z</time>
  <course>244.04</course>
  <speed>25.89</speed>
  <fix>3d</fix>
</trkpt>
<trkpt lat="-27.2727491" lon="151.2852117">
  <ele>373.05</ele>
  <time>2026-09-01T19:57:24Z</time>
  <course>240.11</course>
  <speed>26.045285561882405</speed>
  <fix>3d</fix>
</trkpt>
<trkpt lat="-27.2727267" lon="151.285258">
  <ele>372.8</ele>
  <time>2026-09-01T19:57:24Z</time>
  <course>244.04</course>
  <speed>25.89</speed>
  <fix>3d</fix>
</trkpt>
<trkpt lat="-27.272762" lon="151.2851899">
  <ele>373.23</ele>
  <time>2026-09-01T19:57:24Z</time>
  <course>237.14</course>
  <speed>26.078730797337514</speed>
  <fix>3d</fix>
</trkpt>
<trkpt lat="-27.2727492" lon="151.2852122">
  <ele>373.13</ele>
  <time>2026-09-01T19:57:24Z</time>
  <course>238.15</course>
  <speed>25.95</speed>
  <fix>3d</fix>
</trkpt>
<trkpt lat="-27.2727758" lon="151.2851688">
  <ele>373.41</ele>
  <time>2026-09-01T19:57:24Z</time>
  <course>234.14</course>
  <speed>26.097743197449084</speed>
  <fix>3d</fix>
</trkpt>
<trkpt lat="-27.2727492" lon="151.2852122">
  <ele>373.13</ele>
  <time>2026-09-01T19:57:24Z</time>
  <course>238.15</course>
  <speed>25.95</speed>
  <fix>3d</fix>
</trkpt>
<trkpt lat="-27.2727906" lon="151.2851485">
  <ele>373.59</ele>
  <time>2026-09-01T19:57:24Z</time>
  <course>231.1</course>
  <speed>26.131735495370375</speed>
  <fix>3d</fix>
</trkpt>
<trkpt lat="-27.2727758" lon="151.2851691">
  <ele>373.47</ele>
  <time>2026-09-01T19:57:24Z</time>
  <course>232.19</course>
  <speed>26.01</speed>
  <fix>3d</fix>
</trkpt>
<trkpt lat="-27.2728064" lon="151.2851291">
  <ele>373.78</ele>
  <time>2026-09-01T19:57:24Z</time>
  <course>227.9</course>
  <speed>26.145777861826947</speed>
  <fix>3d</fix>
</trkpt>
<trkpt lat="-27.2727758" lon="151.2851691">
  <ele>373.47</ele>
  <time>2026-09-01T19:57:24Z</time>
  <course>232.19</course>
  <speed>26.01</speed>
  <fix>3d</fix>
</trkpt>
<trkpt lat="-27.2728231" lon="151.2851107">
  <ele>373.97</ele>
  <time>2026-09-01T19:57:24Z</time>
  <course>224.85</course>
  <speed>26.152353622570953</speed>
  <fix>3d</fix>
</trkpt>
<trkpt lat="-27.2728064" lon="151.2851293">
  <ele>373.83</ele>
  <time>2026-09-01T19:57:24Z</time>
  <course>226.05</course>
  <speed>26.07</speed>
  <fix>3d</fix>
</trkpt>
<trkpt lat="-27.2728406" lon="151.2850934">
  <ele>374.16</ele>
  <time>2026-09-01T19:57:24Z</time>
  <course>221.91</course>
  <speed>26.169466941456793</speed>
  <fix>3d</fix>
</trkpt>
<trkpt lat="-27.2728064" lon="151.2851293">
  <ele>373.83</ele>
  <time>2026-09-01T19:57:24Z</time>
  <course>226.05</course>
  <speed>26.07</speed>
  <fix>3d</fix>
</trkpt>
<trkpt lat="-27.272859" lon="151.285077">
  <ele>374.36</ele>
  <time>2026-09-01T19:57:24Z</time>
  <course>218.96</course>
  <speed>26.178000305600122</speed>
  <fix>3d</fix>
</trkpt>
<trkpt lat="-27.2728407" lon="151.2850934">
  <ele>374.21</ele>
  <time>2026-09-01T19:57:24Z</time>
  <course>219.93</course>
  <speed>26.11</speed>
  <fix>3d</fix>
</trkpt>
<trkpt lat="-27.2728781" lon="151.2850618">
  <ele>374.55</ele>
  <time>2026-09-01T19:57:24Z</time>
  <course>216.0</course>
  <speed>26.168228828103747</speed>
  <fix>3d</fix>
</trkpt>
<trkpt lat="-27.2728407" lon="151.2850934">
  <ele>374.21</ele>
  <time>2026-09-01T19:57:24Z</time>
  <course>219.93</course>
  <speed>26.11</speed>
  <fix>3d</fix>
</trkpt>
<trkpt lat="-27.2728978" lon="151.2850476">
  <ele>374.75</ele>
  <time>2026-09-01T19:57:24Z</time>
  <course>213.12</course>
  <speed>26.174128447763067</speed>
  <fix>3d</fix>
</trkpt>
<trkpt lat="-27.2728782" lon="151.2850617">
  <ele>374.6</ele>
  <time>2026-09-01T19:57:24Z</time>
  <course>214.0</course>
  <speed>26.14</speed>
  <fix>3d</fix>
</trkpt>
<trkpt lat="-27.2729182" lon="151.2850346">
  <ele>374.93</ele>
  <time>2026-09-01T19:57:24Z</time>
  <course>210.27</course>
  <speed>26.158245353998804</speed>
  <fix>3d</fix>
</trkpt>
<trkpt lat="-27.2728782" lon="151.2850617">
  <ele>374.6</ele>
  <time>2026-09-01T19:57:24Z</time>
  <course>214.0</course>
  <speed>26.14</speed>
  <fix>3d</fix>
</trkpt>
<trkpt lat="-27.2729391" lon="151.2850228">
  <ele>375.12</ele>
  <time>2026-09-01T19:57:24Z</time>
  <course>207.42</course>
  <speed>26.150871878390593</speed>
  <fix>3d</fix>
</trkpt>
<trkpt lat="-27.2729184" lon="151.2850344">
  <ele>374.97</ele>
  <time>2026-09-01T19:57:24Z</time>
  <course>208.19</course>
  <speed>26.14</speed>
  <fix>3d</fix>
</trkpt>
<trkpt lat="-27.2729604" lon="151.2850122">
  <ele>375.29</ele>
  <time>2026-09-01T19:57:24Z</time>
  <course>204.52</course>
  <speed>26.14173865679175</speed>
  <fix>3d</fix>
</trkpt>
<trkpt lat="-27.2729184" lon="151.2850344">
  <ele>374.97</ele>
  <time>2026-09-01T19:57:24Z</time>
  <course>208.19</course>
  <speed>26.14</speed>
  <fix>3d</fix>
</trkpt>
<trkpt lat="-27.2729822" lon="151.2850028">
  <ele>375.47</ele>
  <time>2026-09-01T19:57:24Z</time>
  <course>201.74</course>
  <speed>26.125313395249446</speed>
  <fix>3d</fix>
</trkpt>
<trkpt lat="-27.2729608" lon="151.2850118">
  <ele>375.32</ele>
  <time>2026-09-01T19:57:24Z</time>
  <course>202.45</course>
  <speed>26.13</speed>
  <fix>3d</fix>
</trkpt>
<trkpt lat="-27.2730045" lon="151.2849946">
  <ele>375.64</ele>
  <time>2026-09-01T19:57:24Z</time>
  <course>199.02</course>
  <speed>26.112288294977137</speed>
  <fix>3d</fix>
</trkpt>
<trkpt lat="-27.2729608" lon="151.2850118">
  <ele>375.32</ele>
  <time>2026-09-01T19:57:24Z</time>
  <course>202.45</course>
  <speed>26.13</speed>
  <fix>3d</fix>
</trkpt>
<trkpt lat="-27.273027" lon="151.2849876">
  <ele>375.79</ele>
  <time>2026-09-01T19:57:24Z</time>
  <course>196.14</course>
  <speed>26.09441511128387</speed>
  <fix>3d</fix>
</trkpt>
<trkpt lat="-27.273005" lon="151.2849941">
  <ele>375.66</ele>
  <time>2026-09-01T19:57:24Z</time>
  <course>196.81</course>
  <speed>26.11</speed>
  <fix>3d</fix>
</trkpt>
<trkpt lat="-27.27305" lon="151.2849817">
  <ele>375.94</ele>
  <time>2026-09-01T19:57:24Z</time>
  <course>193.42</course>
  <speed>26.0737204863441</speed>
  <fix>3d</fix>
</trkpt>
<trkpt lat="-27.273005" lon="151.2849941">
  <ele>375.66</ele>
  <time>2026-09-01T19:57:24Z</time>
  <course>196.81</course>
  <speed>26.11</speed>
  <fix>3d</fix>
</trkpt>
<trkpt lat="-27.2730731" lon="151.2849772">
  <ele>376.08</ele>
  <time>2026-09-01T19:57:24Z</time>
  <course>190.73</course>
  <speed>26.061481155145426</speed>
  <fix>3d</fix>
</trkpt>
<trkpt lat="-27.2730506" lon="151.2849812">
  <ele>375.96</ele>
  <time>2026-09-01T19:57:24Z</time>
  <course>191.26</course>
  <speed>26.08</speed>
  <fix>3d</fix>
</trkpt>
<trkpt lat="-27.2730964" lon="151.2849739">
  <ele>376.21</ele>
  <time>2026-09-01T19:57:24Z</time>
  <course>187.99</course>
  <speed>26.03813549392506</speed>
  <fix>3d</fix>
</trkpt>
<trkpt lat="-27.2730506" lon="151.2849812">
  <ele>375.96</ele>
  <time>2026-09-01T19:57:24Z</time>
  <course>191.26</course>
  <speed>26.08</speed>
  <fix>3d</fix>
</trkpt>
<trkpt lat="-27.2731197" lon="151.2849719">
  <ele>376.33</ele>
  <time>2026-09-01T19:57:24Z</time>
  <course>185.24</course>
  <speed>26.024521129119744</speed>
  <fix>3d</fix>
</trkpt>
<trkpt lat="-27.2730969" lon="151.2849735">
  <ele>376.22</ele>
  <time>2026-09-01T19:57:24Z</time>
  <course>185.76</course>
  <speed>26.05</speed>
  <fix>3d</fix>
</trkpt>
<trkpt lat="-27.2731431" lon="151.2849711">
  <ele>376.44</ele>
  <time>2026-09-01T19:57:24Z</time>
  <course>182.59</course>
  <speed>26.0002769216022</speed>
  <fix>3d</fix>
</trkpt>
<trkpt lat="-27.2730969" lon="151.2849735">
  <ele>376.22</ele>
  <time>2026-09-01T19:57:24Z</time>
  <course>185.76</course>
  <speed>26.05</speed>
  <fix>3d</fix>
</trkpt>
<trkpt lat="-27.2731664" lon="151.2849715">
  <ele>376.53</ele>
  <time>2026-09-01T19:57:24Z</time>
  <course>179.88</course>
  <speed>25.982873205248108</speed>
  <fix>3d</fix>
</trkpt>
<trkpt lat="-27.2731436" lon="151.2849707">
  <ele>376.44</ele>
  <time>2026-09-01T19:57:24Z</time>
  <course>180.35</course>
  <speed>26.01</speed>
  <fix>3d</fix>
</trkpt>
<trkpt lat="-27.2731896" lon="151.2849731">
  <ele>376.61</ele>
  <time>2026-09-01T19:57:24Z</time>
  <course>177.05</course>
  <speed>25.953899514331173</speed>
  <fix>3d</fix>
</trkpt>
<trkpt lat="-27.2731436" lon="151.2849707">
  <ele>376.44</ele>
  <time>2026-09-01T19:57:24Z</time>
  <course>180.35</course>
  <speed>26.01</speed>
  <fix>3d</fix>
</trkpt>
<trkpt lat="-27.2732128" lon="151.2849761">
  <ele>376.68</ele>
  <time>2026-09-01T19:57:24Z</time>
  <course>174.26</course>
  <speed>25.928339707740644</speed>
  <fix>3d</fix>
</trkpt>
<trkpt lat="-27.2731902" lon="151.2849728">
  <ele>376.61</ele>
  <time>2026-09-01T19:57:24Z</time>
  <course>174.9</course>
  <speed>25.96</speed>
  <fix>3d</fix>
</trkpt>
<trkpt lat="-27.2732357" lon="151.2849803">
  <ele>376.75</ele>
  <time>2026-09-01T19:57:24Z</time>
  <course>171.58</course>
  <speed>25.91037822958206</speed>
  <fix>3d</fix>
</trkpt>
<trkpt lat="-27.2731902" lon="151.2849728">
  <ele>376.61</ele>
  <time>2026-09-01T19:57:24Z</time>
  <course>174.9</course>
  <speed>25.96</speed>
  <fix>3d</fix>
</trkpt>
<trkpt lat="-27.2732585" lon="151.2849857">
  <ele>376.8</ele>
  <time>2026-09-01T19:57:24Z</time>
  <course>168.76</course>
  <speed>25.882229424838965</speed>
  <fix>3d</fix>
</trkpt>
<trkpt lat="-27.2732363" lon="151.28498">
  <ele>376.75</ele>
  <time>2026-09-01T19:57:24Z</time>
  <course>169.37</course>
  <speed>25.92</speed>
  <fix>3d</fix>
</trkpt>
<trkpt lat="-27.2732809" lon="151.2849923">
  <ele>376.85</ele>
  <time>2026-09-01T19:57:24Z</time>
  <course>165.98</course>
  <speed>25.86400007732756</speed>
  <fix>3d</fix>
</trkpt>
<trkpt lat="-27.2732363" lon="151.28498">
  <ele>376.75</ele>
  <time>2026-09-01T19:57:24Z</time>
  <course>169.37</course>
  <speed>25.92</speed>
  <fix>3d</fix>
</trkpt>
<trkpt lat="-27.273303" lon="151.2850002">
  <ele>376.88</ele>
  <time>2026-09-01T19:57:24Z</time>
  <course>163.27</course>
  <speed>25.84030379078388</speed>
  <fix>3d</fix>
</trkpt>
<trkpt lat="-27.2732815" lon="151.2849921">
  <ele>376.85</ele>
  <time>2026-09-01T19:57:24Z</time>
  <course>163.84</course>
  <speed>25.87</speed>
  <fix>3d</fix>
</trkpt>
<trkpt lat="-27.2733248" lon="151.2850092">
  <ele>376.9</ele>
  <time>2026-09-01T19:57:24Z</time>
  <course>160.52</course>
  <speed>25.815383010910374</speed>
  <fix>3d</fix>
</trkpt>
<trkpt lat="-27.2732815" lon="151.2849921">
  <ele>376.85</ele>
  <time>2026-09-01T19:57:24Z</time>
  <course>163.84</course>
  <speed>25.87</speed>
  <fix>3d</fix>
</trkpt>
<trkpt lat="-27.2733461" lon="151.2850194">
  <ele>376.92</ele>
  <time>2026-09-01T19:57:24Z</time>
  <course>157.71</course>
  <speed>25.803108339888045</speed>
  <fix>3d</fix>
</trkpt>
<trkpt lat="-27.2733255" lon="151.285009">
  <ele>376.91</ele>
  <time>2026-09-01T19:57:24Z</time>
  <course>158.32</course>
  <speed>25.83</speed>
  <fix>3d</fix>
</trkpt>
<trkpt lat="-27.2733669" lon="151.2850307">
  <ele>376.92</ele>
  <time>2026-09-01T19:57:24Z</time>
  <course>154.83</course>
  <speed>25.77975174434385</speed>
  <fix>3d</fix>
</trkpt>
<trkpt lat="-27.2733255" lon="151.285009">
  <ele>376.91</ele>
  <time>2026-09-01T19:57:24Z</time>
  <course>158.32</course>
  <speed>25.83</speed>
  <fix>3d</fix>
</trkpt>
<trkpt lat="-27.2733872" lon="151.2850432">
  <ele>376.92</ele>
  <time>2026-09-01T19:57:24Z</time>
  <course>151.96</course>
  <speed>25.761510048908235</speed>
  <fix>3d</fix>
</trkpt>
<trkpt lat="-27.2733677" lon="151.2850306">
  <ele>376.93</ele>
  <time>2026-09-01T19:57:24Z</time>
  <course>152.74</course>
  <speed>25.79</speed>
  <fix>3d</fix>
</trkpt>
<trkpt lat="-27.2734069" lon="151.2850568">
  <ele>376.91</ele>
  <time>2026-09-01T19:57:24Z</time>
  <course>149.1</course>
  <speed>25.748184402011724</speed>
  <fix>3d</fix>
</trkpt>
<trkpt lat="-27.2733677" lon="151.2850306">
  <ele>376.93</ele>
  <time>2026-09-01T19:57:24Z</time>
  <course>152.74</course>
  <speed>25.79</speed>
  <fix>3d</fix>
</trkpt>
<trkpt lat="-27.2734259" lon="151.2850713">
  <ele>376.89</ele>
  <time>2026-09-01T19:57:24Z</time>
  <course>146.26</course>
  <speed>25.7318654589985</speed>
  <fix>3d</fix>
</trkpt>
<trkpt lat="-27.2734077" lon="151.2850567">
  <ele>376.91</ele>
  <time>2026-09-01T19:57:24Z</time>
  <course>147.06</course>
  <speed>25.76</speed>
  <fix>3d</fix>
</trkpt>
<trkpt lat="-27.2734443" lon="151.285087">
  <ele>376.86</ele>
  <time>2026-09-01T19:57:24Z</time>
  <course>143.31</course>
  <speed>25.72657964051965</speed>
  <fix>3d</fix>
</trkpt>
<trkpt lat="-27.2734077" lon="151.2850567">
  <ele>376.91</ele>
  <time>2026-09-01T19:57:24Z</time>
  <course>147.06</course>
  <speed>25.76</speed>
  <fix>3d</fix>
</trkpt>
<trkpt lat="-27.2734619" lon="151.2851037">
  <ele>376.83</ele>
  <time>2026-09-01T19:57:24Z</time>
  <course>140.33</course>
  <speed>25.71673579597535</speed>
  <fix>3d</fix>
</trkpt>
<trkpt lat="-27.2734451" lon="151.2850872">
  <ele>376.87</ele>
  <time>2026-09-01T19:57:24Z</time>
  <course>141.27</course>
  <speed>25.73</speed>
  <fix>3d</fix>
</trkpt>
<trkpt lat="-27.2734788" lon="151.2851215">
  <ele>376.79</ele>
  <time>2026-09-01T19:57:24Z</time>
  <course>137.37</course>
  <speed>25.70368261553196</speed>
  <fix>3d</fix>
</trkpt>
<trkpt lat="-27.2734451" lon="151.2850872">
  <ele>376.87</ele>
  <time>2026-09-01T19:57:24Z</time>
  <course>141.27</course>
  <speed>25.73</speed>
  <fix>3d</fix>
</trkpt>
<trkpt lat="-27.2734949" lon="151.2851403">
  <ele>376.75</ele>
  <time>2026-09-01T19:57:24Z</time>
  <course>134.35</course>
  <speed>25.70350365222609</speed>
  <fix>3d</fix>
</trkpt>
<trkpt lat="-27.2734797" lon="151.2851218">
  <ele>376.8</ele>
  <time>2026-09-01T19:57:24Z</time>
  <course>135.37</course>
  <speed>25.71</speed>
  <fix>3d</fix>
</trkpt>
<trkpt lat="-27.27351" lon="151.2851599">
  <ele>376.7</ele>
  <time>2026-09-01T19:57:24Z</time>
  <course>131.36</course>
  <speed>25.695384799609442</speed>
  <fix>3d</fix>
</trkpt>
<trkpt lat="-27.2734797" lon="151.2851218">
  <ele>376.8</ele>
  <time>2026-09-01T19:57:24Z</time>
  <course>135.37</course>
  <speed>25.71</speed>
  <fix>3d</fix>
</trkpt>
<trkpt lat="-27.2735242" lon="151.2851804">
  <ele>376.65</ele>
  <time>2026-09-01T19:57:24Z</time>
  <course>128.35</course>
  <speed>25.687236130031582</speed>
  <fix>3d</fix>
</trkpt>
<trkpt lat="-27.2735109" lon="151.2851602">
  <ele>376.72</ele>
  <time>2026-09-01T19:57:24Z</time>
  <course>129.41</course>
  <speed>25.69</speed>
  <fix>3d</fix>
</trkpt>
<trkpt lat="-27.2735378" lon="151.2852023">
  <ele>376.59</ele>
  <time>2026-09-01T19:57:24Z</time>
  <course>125.17</course>
  <speed>25.68370105728534</speed>
  <fix>3d</fix>
</trkpt>
<trkpt lat="-27.2735109" lon="151.2851602">
  <ele>376.72</ele>
  <time>2026-09-01T19:57:24Z</time>
  <course>129.41</course>
  <speed>25.69</speed>
  <fix>3d</fix>
</trkpt>
<trkpt lat="-27.2735498" lon="151.2852242">
  <ele>376.54</ele>
  <time>2026-09-01T19:57:24Z</time>
  <course>122.17</course>
  <speed>25.67948987032258</speed>
  <fix>3d</fix>
</trkpt>
<trkpt lat="-27.2735383" lon="151.2852019">
  <ele>376.62</ele>
  <time>2026-09-01T19:57:24Z</time>
  <course>123.37</course>
  <speed>25.67</speed>
  <fix>3d</fix>
</trkpt>
<trkpt lat="-27.2735609" lon="151.2852469">
  <ele>376.48</ele>
  <time>2026-09-01T19:57:24Z</time>
  <course>119.18</course>
  <speed>25.67123877026584</speed>
  <fix>3d</fix>
</trkpt>
<trkpt lat="-27.2735383" lon="151.2852019">
  <ele>376.62</ele>
  <time>2026-09-01T19:57:24Z</time>
  <course>123.37</course>
  <speed>25.67</speed>
  <fix>3d</fix>
</trkpt>
<trkpt lat="-27.2735709" lon="151.2852702">
  <ele>376.42</ele>
  <time>2026-09-01T19:57:24Z</time>
  <course>116.16</course>
  <speed>25.672056793330757</speed>
  <fix>3d</fix>
</trkpt>
<trkpt lat="-27.2735615" lon="151.2852467">
  <ele>376.51</ele>
  <time>2026-09-01T19:57:24Z</time>
  <course>117.3</course>
  <speed>25.66</speed>
  <fix>3d</fix>
</trkpt>
<trkpt lat="-27.2735799" lon="151.2852941">
  <ele>376.36</ele>
  <time>2026-09-01T19:57:24Z</time>
  <course>113.16</course>
  <speed>25.667009954414247</speed>
  <fix>3d</fix>
</trkpt>
<trkpt lat="-27.2735615" lon="151.2852467">
  <ele>376.51</ele>
  <time>2026-09-01T19:57:24Z</time>
  <course>117.3</course>
  <speed>25.66</speed>
  <fix>3d</fix>
</trkpt>
<trkpt lat="-27.2735877" lon="151.2853187">
  <ele>376.3</ele>
  <time>2026-09-01T19:57:24Z</time>
  <course>110.2</course>
  <speed>25.656065559629365</speed>
  <fix>3d</fix>
</trkpt>
<trkpt lat="-27.2735804" lon="151.2852939">
  <ele>376.39</ele>
  <time>2026-09-01T19:57:24Z</time>
  <course>111.29</course>
  <speed>25.64</speed>
  <fix>3d</fix>
</trkpt>
<trkpt lat="-27.2735942" lon="151.2853429">
  <ele>376.24</ele>
  <time>2026-09-01T19:57:24Z</time>
  <course>107.39</course>
  <speed>25.639042493821798</speed>
  <fix>3d</fix>
</trkpt>
<trkpt lat="-27.2735804" lon="151.2852939">
  <ele>376.39</ele>
  <time>2026-09-01T19:57:24Z</time>
  <course>111.29</course>
  <speed>25.64</speed>
  <fix>3d</fix>
</trkpt>
<trkpt lat="-27.2735997" lon="151.285368">
  <ele>376.18</ele>
  <time>2026-09-01T19:57:24Z</time>
  <course>104.64</course>
  <speed>25.62286674047227</speed>
  <fix>3d</fix>
</trkpt>
<trkpt lat="-27.2735949" lon="151.285343">
  <ele>376.28</ele>
  <time>2026-09-01T19:57:24Z</time>
  <course>105.4</course>
  <speed>25.62</speed>
  <fix>3d</fix>
</trkpt>
<trkpt lat="-27.2736042" lon="151.2853934">
  <ele>376.11</ele>
  <time>2026-09-01T19:57:24Z</time>
  <course>102.0</course>
  <speed>25.600312498092677</speed>
  <fix>3d</fix>
</trkpt>
<trkpt lat="-27.2735949" lon="151.285343">
  <ele>376.28</ele>
  <time>2026-09-01T19:57:24Z</time>
  <course>105.4</course>
  <speed>25.62</speed>
  <fix>3d</fix>
</trkpt>
<trkpt lat="-27.2736075" lon="151.2854189">
  <ele>376.05</ele>
  <time>2026-09-01T19:57:24Z</time>
  <course>99.34</course>
  <speed>25.567410897468676</speed>
  <fix>3d</fix>
</trkpt>
<trkpt lat="-27.2736049" lon="151.2853936">
  <ele>376.15</ele>
  <time>2026-09-01T19:57:24Z</time>
  <course>99.79</course>
  <speed>25.57</speed>
  <fix>3d</fix>
</trkpt>
<trkpt lat="-27.2736099" lon="151.2854445">
  <ele>375.98</ele>
  <time>2026-09-01T19:57:24Z</time>
  <course>96.81</course>
  <speed>25.533805043510455</speed>
  <fix>3d</fix>
</trkpt>
<trkpt lat="-27.2736049" lon="151.2853936">
  <ele>376.15</ele>
  <time>2026-09-01T19:57:24Z</time>
  <course>99.79</course>
  <speed>25.57</speed>
  <fix>3d</fix>
</trkpt>
<trkpt lat="-27.2736112" lon="151.2854702">
  <ele>375.9</ele>
  <time>2026-09-01T19:57:24Z</time>
  <course>94.4</course>
  <speed>25.493191247860672</speed>
  <fix>3d</fix>
</trkpt>
<trkpt lat="-27.2736106" lon="151.2854448">
  <ele>376.02</ele>
  <time>2026-09-01T19:57:24Z</time>
  <course>94.52</course>
  <speed>25.51</speed>
  <fix>3d</fix>
</trkpt>
<trkpt lat="-27.2736115" lon="151.2854959">
  <ele>375.83</ele>
  <time>2026-09-01T19:57:24Z</time>
  <course>92.12</course>
  <speed>25.45113160549055</speed>
  <fix>3d</fix>
</trkpt>
<trkpt lat="-27.2736106" lon="151.2854448">
  <ele>376.02</ele>
  <time>2026-09-01T19:57:24Z</time>
  <course>94.52</course>
  <speed>25.51</speed>
  <fix>3d</fix>
</trkpt>
<trkpt lat="-27.2736109" lon="151.2855216">
  <ele>375.75</ele>
  <time>2026-09-01T19:57:24Z</time>
  <course>89.99</course>
  <speed>25.400285431467104</speed>
  <fix>3d</fix>
</trkpt>
<trkpt lat="-27.2736122" lon="151.2854962">
  <ele>375.87</ele>
  <time>2026-09-01T19:57:24Z</time>
  <course>89.63</course>
  <speed>25.44</speed>
  <fix>3d</fix>
</trkpt>
<trkpt lat="-27.2736096" lon="151.2855469">
  <ele>375.66</ele>
  <time>2026-09-01T19:57:24Z</time>
  <course>87.98</course>
  <speed>25.35133329827053</speed>
  <fix>3d</fix>
</trkpt>
<trkpt lat="-27.2736122" lon="151.2854962">
  <ele>375.87</ele>
  <time>2026-09-01T19:57:24Z</time>
  <course>89.63</course>
  <speed>25.44</speed>
  <fix>3d</fix>
</trkpt>
<trkpt lat="-27.2736073" lon="151.2855724">
  <ele>375.57</ele>
  <time>2026-09-01T19:57:24Z</time>
  <course>86.1</course>
  <speed>25.29969367403487</speed>
  <fix>3d</fix>
</trkpt>
<trkpt lat="-27.2736102" lon="151.2855475">
  <ele>375.71</ele>
  <time>2026-09-01T19:57:24Z</time>
  <course>85.26</course>
  <speed>25.34</speed>
  <fix>3d</fix>
</trkpt>
<trkpt lat="-27.2736043" lon="151.2855977">
  <ele>375.46</ele>
  <time>2026-09-01T19:57:24Z</time>
  <course>84.37</course>
  <speed>25.239227404974187</speed>
  <fix>3d</fix>
</trkpt>
<trkpt lat="-27.2736102" lon="151.2855475">
  <ele>375.71</ele>
  <time>2026-09-01T19:57:24Z</time>
  <course>85.26</course>
  <speed>25.34</speed>
  <fix>3d</fix>
</trkpt>
<trkpt lat="-27.2736006" lon="151.2856229">
  <ele>375.35</ele>
  <time>2026-09-01T19:57:24Z</time>
  <course>82.74</course>
  <speed>25.182622976965686</speed>
  <fix>3d</fix>
</trkpt>
<trkpt lat="-27.2736049" lon="151.2855983">
  <ele>375.52</ele>
  <time>2026-09-01T19:57:24Z</time>
  <course>81.42</course>
  <speed>25.23</speed>
  <fix>3d</fix>
</trkpt>
<trkpt lat="-27.2735962" lon="151.285648">
  <ele>375.22</ele>
  <time>2026-09-01T19:57:24Z</time>
  <course>81.18</course>
  <speed>25.128167462033517</speed>
  <fix>3d</fix>
</trkpt>
<trkpt lat="-27.2736049" lon="151.2855983">
  <ele>375.52</ele>
  <time>2026-09-01T19:57:24Z</time>
  <course>81.42</course>
  <speed>25.23</speed>
  <fix>3d</fix>
</trkpt>
<trkpt lat="-27.2735913" lon="151.2856728">
  <ele>375.08</ele>
  <time>2026-09-01T19:57:24Z</time>
  <course>79.73</course>
  <speed>25.07203422141889</speed>
  <fix>3d</fix>
</trkpt>
<trkpt lat="-27.2735968" lon="151.2856484">
  <ele>375.29</ele>
  <time>2026-09-01T19:57:24Z</time>
  <course>78.09</course>
  <speed>25.12</speed>
  <fix>3d</fix>
</trkpt>
<trkpt lat="-27.2735859" lon="151.2856974">
  <ele>374.93</ele>
  <time>2026-09-01T19:57:24Z</time>
  <course>78.37</course>
  <speed>25.017769684766066</speed>
  <fix>3d</fix>
</trkpt>
<trkpt lat="-27.2735968" lon="151.2856484">
  <ele>375.29</ele>
  <time>2026-09-01T19:57:24Z</time>
  <course>78.09</course>
  <speed>25.12</speed>
  <fix>3d</fix>
</trkpt>
<trkpt lat="-27.2735797" lon="151.2857225">
  <ele>374.77</ele>
  <time>2026-09-01T19:57:24Z</time>
  <course>77.03</course>
  <speed>24.96001802883964</speed>
  <fix>3d</fix>
</trkpt>
<trkpt lat="-27.2735864" lon="151.2856977">
  <ele>375.0</ele>
  <time>2026-09-01T19:57:24Z</time>
  <course>75.21</course>
  <speed>25.01</speed>
  <fix>3d</fix>
</trkpt>
<trkpt lat="-27.2735734" lon="151.2857465">
  <ele>374.59</ele>
  <time>2026-09-01T19:57:24Z</time>
  <course>75.79</course>
  <speed>24.91371710524144</speed>
  <fix>3d</fix>
</trkpt>
<trkpt lat="-27.2735864" lon="151.2856977">
  <ele>375.0</ele>
  <time>2026-09-01T19:57:24Z</time>
  <course>75.21</course>
  <speed>25.01</speed>
  <fix>3d</fix>
</trkpt>
<trkpt lat="-27.2735665" lon="151.2857704">
  <ele>374.4</ele>
  <time>2026-09-01T19:57:24Z</time>
  <course>74.57</course>
  <speed>24.874488939473714</speed>
  <fix>3d</fix>
</trkpt>
<trkpt lat="-27.273574" lon="151.2857462">
  <ele>374.66</ele>
  <time>2026-09-01T19:57:24Z</time>
  <course>72.71</course>
  <speed>24.91</speed>
  <fix>3d</fix>
</trkpt>
<trkpt lat="-27.2735593" lon="151.2857942">
  <ele>374.19</ele>
  <time>2026-09-01T19:57:24Z</time>
  <course>73.36</course>
  <speed>24.83510418741987</speed>
  <fix>3d</fix>
</trkpt>
<trkpt lat="-27.273574" lon="151.2857462">
  <ele>374.66</ele>
  <time>2026-09-01T19:57:24Z</time>
  <course>72.71</course>
  <speed>24.91</speed>
  <fix>3d</fix>
</trkpt>
<trkpt lat="-27.2735517" lon="151.2858178">
  <ele>373.97</ele>
  <time>2026-09-01T19:57:24Z</time>
  <course>72.21</course>
  <speed>24.810401044723157</speed>
  <fix>3d</fix>
</trkpt>
<trkpt lat="-27.2735599" lon="151.2857939">
  <ele>374.28</ele>
  <time>2026-09-01T19:57:24Z</time>
  <course>70.47</course>
  <speed>24.83</speed>
  <fix>3d</fix>
</trkpt>
<trkpt lat="-27.2735436" lon="151.2858413">
  <ele>373.75</ele>
  <time>2026-09-01T19:57:24Z</time>
  <course>71.1</course>
  <speed>24.7867141832071</speed>
  <fix>3d</fix>
</trkpt>
<trkpt lat="-27.2735599" lon="151.2857939">
  <ele>374.28</ele>
  <time>2026-09-01T19:57:24Z</time>
  <course>70.47</course>
  <speed>24.83</speed>
  <fix>3d</fix>
</trkpt>
<trkpt lat="-27.2735353" lon="151.2858646">
  <ele>373.51</ele>
  <time>2026-09-01T19:57:24Z</time>
  <course>69.99</course>
  <speed>24.776153858095086</speed>
  <fix>3d</fix>
</trkpt>
<trkpt lat="-27.2735443" lon="151.2858408">
  <ele>373.84</ele>
  <time>2026-09-01T19:57:24Z</time>
  <course>68.4</course>
  <speed>24.79</speed>
  <fix>3d</fix>
</trkpt>
<trkpt lat="-27.2735266" lon="151.2858876">
  <ele>373.28</ele>
  <time>2026-09-01T19:57:24Z</time>
  <course>68.98</course>
  <speed>24.77406103165163</speed>
  <fix>3d</fix>
</trkpt>
<trkpt lat="-27.2735443" lon="151.2858408">
  <ele>373.84</ele>
  <time>2026-09-01T19:57:24Z</time>
  <course>68.4</course>
  <speed>24.79</speed>
  <fix>3d</fix>
</trkpt>
<trkpt lat="-27.2735176" lon="151.2859105">
  <ele>373.04</ele>
  <time>2026-09-01T19:57:24Z</time>
  <course>67.99</course>
  <speed>24.783486437545466</speed>
  <fix>3d</fix>
</trkpt>
<trkpt lat="-27.2735271" lon="151.285887">
  <ele>373.39</ele>
  <time>2026-09-01T19:57:24Z</time>
  <course>66.49</course>
  <speed>24.77</speed>
  <fix>3d</fix>
</trkpt>
<trkpt lat="-27.2735082" lon="151.2859332">
  <ele>372.8</ele>
  <time>2026-09-01T19:57:24Z</time>
  <course>66.97</course>
  <speed>24.795251561538958</speed>
  <fix>3d</fix>
</trkpt>
<trkpt lat="-27.2735271" lon="151.285887">
  <ele>373.39</ele>
  <time>2026-09-01T19:57:24Z</time>
  <course>66.49</course>
  <speed>24.77</speed>
  <fix>3d</fix>
</trkpt>
<trkpt lat="-27.2734986" lon="151.2859558">
  <ele>372.57</ele>
  <time>2026-09-01T19:57:24Z</time>
  <course>66.08</course>
  <speed>24.81219055222654</speed>
  <fix>3d</fix>
</trkpt>
<trkpt lat="-27.2735088" lon="151.2859326">
  <ele>372.92</ele>
  <time>2026-09-01T19:57:24Z</time>
  <course>64.74</course>
  <speed>24.79</speed>
  <fix>3d</fix>
</trkpt>
<trkpt lat="-27.2734887" lon="151.2859783">
  <ele>372.34</ele>
  <time>2026-09-01T19:57:24Z</time>
  <course>65.21</course>
  <speed>24.82963753259399</speed>
  <fix>3d</fix>
</trkpt>
<trkpt lat="-27.2735088" lon="151.2859326">
  <ele>372.92</ele>
  <time>2026-09-01T19:57:24Z</time>
  <course>64.74</course>
  <speed>24.79</speed>
  <fix>3d</fix>
</trkpt>
<trkpt lat="-27.2734785" lon="151.2860006">
  <ele>372.12</ele>
  <time>2026-09-01T19:57:25Z</time>
  <course>64.39</course>
  <speed>24.864466614025726</speed>
  <fix>3d</fix>
</trkpt>
<trkpt lat="-27.2734892" lon="151.2859777">
  <ele>372.46</ele>
  <time>2026-09-01T19:57:25Z</time>
  <course>63.16</course>
  <speed>24.83</speed>
  <fix>3d</fix>
</trkpt>
<trkpt lat="-27.2734684" lon="151.2860221">
  <ele>371.92</ele>
  <time>2026-09-01T19:57:25Z</time>
  <course>63.67</course>
  <speed>24.88890917657903</speed>
  <fix>3d</fix>
</trkpt>
<trkpt lat="-27.2734892" lon="151.2859777">
  <ele>372.46</ele>
  <time>2026-09-01T19:57:25Z</time>
  <course>63.16</course>
  <speed>24.83</speed>
  <fix>3d</fix>
</trkpt>
<trkpt lat="-27.2734577" lon="151.2860442">
  <ele>371.71</ele>
  <time>2026-09-01T19:57:25Z</time>
  <course>62.97</course>
  <speed>24.9252843514372</speed>
  <fix>3d</fix>
</trkpt>
<trkpt lat="-27.2734685" lon="151.2860222">
  <ele>372.03</ele>
  <time>2026-09-01T19:57:25Z</time>
  <course>61.77</course>
  <speed>24.9</speed>
  <fix>3d</fix>
</trkpt>
<trkpt lat="-27.2734468" lon="151.2860663">
  <ele>371.52</ele>
  <time>2026-09-01T19:57:25Z</time>
  <course>62.3</course>
  <speed>24.953759235834585</speed>
  <fix>3d</fix>
</trkpt>
<trkpt lat="-27.2734685" lon="151.2860222">
  <ele>372.03</ele>
  <time>2026-09-01T19:57:25Z</time>
  <course>61.77</course>
  <speed>24.9</speed>
  <fix>3d</fix>
</trkpt>
<trkpt lat="-27.2734357" lon="151.2860882">
  <ele>371.34</ele>
  <time>2026-09-01T19:57:25Z</time>
  <course>61.69</course>
  <speed>24.988141187371262</speed>
  <fix>3d</fix>
</trkpt>
<trkpt lat="-27.2734468" lon="151.2860665">
  <ele>371.64</ele>
  <time>2026-09-01T19:57:25Z</time>
  <course>60.59</course>
  <speed>24.97</speed>
  <fix>3d</fix>
</trkpt>
<trkpt lat="-27.2734244" lon="151.2861101">
  <ele>371.17</ele>
  <time>2026-09-01T19:57:25Z</time>
  <course>61.12</course>
  <speed>25.02805825468688</speed>
  <fix>3d</fix>
</trkpt>
<trkpt lat="-27.2734468" lon="151.2860665">
  <ele>371.64</ele>
  <time>2026-09-01T19:57:25Z</time>
  <course>60.59</course>
  <speed>24.97</speed>
  <fix>3d</fix>
</trkpt>
<trkpt lat="-27.2734129" lon="151.2861321">
  <ele>371.02</ele>
  <time>2026-09-01T19:57:25Z</time>
  <course>60.6</course>
  <speed>25.06291682945144</speed>
  <fix>3d</fix>
</trkpt>
<trkpt lat="-27.2734244" lon="151.2861103">
  <ele>371.3</ele>
  <time>2026-09-01T19:57:25Z</time>
  <course>59.61</course>
  <speed>25.04</speed>
  <fix>3d</fix>
</trkpt>
<trkpt lat="-27.2734013" lon="151.2861538">
  <ele>370.88</ele>
  <time>2026-09-01T19:57:25Z</time>
  <course>60.13</course>
  <speed>25.09384386657413</speed>
  <fix>3d</fix>
</trkpt>
<trkpt lat="-27.2734244" lon="151.2861103">
  <ele>371.3</ele>
  <time>2026-09-01T19:57:25Z</time>
  <course>59.61</course>
  <speed>25.04</speed>
  <fix>3d</fix>
</trkpt>
<trkpt lat="-27.2733896" lon="151.2861754">
  <ele>370.75</ele>
  <time>2026-09-01T19:57:25Z</time>
  <course>59.73</course>
  <speed>25.118734044533376</speed>
  <fix>3d</fix>
</trkpt>
<trkpt lat="-27.2734014" lon="151.2861538">
  <ele>371.0</ele>
  <time>2026-09-01T19:57:25Z</time>
  <course>58.82</course>
  <speed>25.11</speed>
  <fix>3d</fix>
</trkpt>
<trkpt lat="-27.2733775" lon="151.2861976">
  <ele>370.63</ele>
  <time>2026-09-01T19:57:25Z</time>
  <course>59.41</course>
  <speed>25.13910300706849</speed>
  <fix>3d</fix>
</trkpt>
<trkpt lat="-27.2734014" lon="151.2861538">
  <ele>371.0</ele>
  <time>2026-09-01T19:57:25Z</time>
  <course>58.82</course>
  <speed>25.11</speed>
  <fix>3d</fix>
</trkpt>
<trkpt lat="-27.2733657" lon="151.286219">
  <ele>370.53</ele>
  <time>2026-09-01T19:57:25Z</time>
  <course>59.25</course>
  <speed>25.161170481517747</speed>
  <fix>3d</fix>
</trkpt>
<trkpt lat="-27.2733778" lon="151.2861972">
  <ele>370.75</ele>
  <time>2026-09-01T19:57:25Z</time>
  <course>58.23</course>
  <speed>25.17</speed>
  <fix>3d</fix>
</trkpt>
<trkpt lat="-27.2733537" lon="151.2862404">
  <ele>370.44</ele>
  <time>2026-09-01T19:57:25Z</time>
  <course>59.1</course>
  <speed>25.179223578180487</speed>
  <fix>3d</fix>
</trkpt>
<trkpt lat="-27.2733778" lon="151.2861972">
  <ele>370.75</ele>
  <time>2026-09-01T19:57:25Z</time>
  <course>58.23</course>
  <speed>25.17</speed>
  <fix>3d</fix>
</trkpt>
<trkpt lat="-27.2733418" lon="151.2862619">
  <ele>370.36</ele>
  <time>2026-09-01T19:57:25Z</time>
  <course>59.0</course>
  <speed>25.193008950897468</speed>
  <fix>3d</fix>
</trkpt>
<trkpt lat="-27.2733538" lon="151.2862404">
  <ele>370.55</ele>
  <time>2026-09-01T19:57:25Z</time>
  <course>57.91</course>
  <speed>25.22</speed>
  <fix>3d</fix>
</trkpt>
<trkpt lat="-27.2733298" lon="151.2862834">
  <ele>370.29</ele>
  <time>2026-09-01T19:57:25Z</time>
  <course>58.98</course>
  <speed>25.20250979565329</speed>
  <fix>3d</fix>
</trkpt>
<trkpt lat="-27.2733538" lon="151.2862404">
  <ele>370.55</ele>
  <time>2026-09-01T19:57:25Z</time>
  <course>57.91</course>
  <speed>25.22</speed>
  <fix>3d</fix>
</trkpt>
<trkpt lat="-27.2733178" lon="151.2863052">
  <ele>370.23</ele>
  <time>2026-09-01T19:57:25Z</time>
  <course>58.99</course>
  <speed>25.216443048138252</speed>
  <fix>3d</fix>
</trkpt>
<trkpt lat="-27.2733297" lon="151.2862836">
  <ele>370.4</ele>
  <time>2026-09-01T19:57:25Z</time>
  <course>57.99</course>
  <speed>25.27</speed>
  <fix>3d</fix>
</trkpt>
<trkpt lat="-27.2733059" lon="151.2863268">
  <ele>370.18</ele>
  <time>2026-09-01T19:57:25Z</time>
  <course>59.06</course>
  <speed>25.23204708302519</speed>
  <fix>3d</fix>
</trkpt>
<trkpt lat="-27.2733297" lon="151.2862836">
  <ele>370.4</ele>
  <time>2026-09-01T19:57:25Z</time>
  <course>57.99</course>
  <speed>25.27</speed>
  <fix>3d</fix>
</trkpt>
<trkpt lat="-27.2732941" lon="151.2863486">
  <ele>370.13</ele>
  <time>2026-09-01T19:57:25Z</time>
  <course>59.19</course>
  <speed>25.248089036598394</speed>
  <fix>3d</fix>
</trkpt>
<trkpt lat="-27.2733058" lon="151.2863271">
  <ele>370.28</ele>
  <time>2026-09-01T19:57:25Z</time>
  <course>58.47</course>
  <speed>25.3</speed>
  <fix>3d</fix>
</trkpt>
<trkpt lat="-27.2732825" lon="151.2863704">
  <ele>370.09</ele>
  <time>2026-09-01T19:57:25Z</time>
  <course>59.47</course>
  <speed>25.258804405592915</speed>
  <fix>3d</fix>
</trkpt>
<trkpt lat="-27.2733058" lon="151.2863271">
  <ele>370.28</ele>
  <time>2026-09-01T19:57:25Z</time>
  <course>58.47</course>
  <speed>25.3</speed>
  <fix>3d</fix>
</trkpt>
<trkpt lat="-27.2732711" lon="151.2863924">
  <ele>370.06</ele>
  <time>2026-09-01T19:57:25Z</time>
  <course>59.82</course>
  <speed>25.26498367306023</speed>
  <fix>3d</fix>
</trkpt>
<trkpt lat="-27.2732823" lon="151.2863709">
  <ele>370.19</ele>
  <time>2026-09-01T19:57:25Z</time>
  <course>59.34</course>
  <speed>25.34</speed>
  <fix>3d</fix>
</trkpt>
<trkpt lat="-27.2732598" lon="151.2864146">
  <ele>370.03</ele>
  <time>2026-09-01T19:57:25Z</time>
  <course>60.22</course>
  <speed>25.284956001543684</speed>
  <fix>3d</fix>
</trkpt>
<trkpt lat="-27.2732823" lon="151.2863709">
  <ele>370.19</ele>
  <time>2026-09-01T19:57:25Z</time>
  <course>59.34</course>
  <speed>25.34</speed>
  <fix>3d</fix>
</trkpt>
<trkpt lat="-27.2732488" lon="151.2864369">
  <ele>370.02</ele>
  <time>2026-09-01T19:57:25Z</time>
  <course>60.79</course>
  <speed>25.29378777486678</speed>
  <fix>3d</fix>
</trkpt>
<trkpt lat="-27.2732595" lon="151.2864152">
  <ele>370.14</ele>
  <time>2026-09-01T19:57:25Z</time>
  <course>60.54</course>
  <speed>25.37</speed>
  <fix>3d</fix>
</trkpt>
<trkpt lat="-27.273238" lon="151.2864594">
  <ele>370.01</ele>
  <time>2026-09-01T19:57:25Z</time>
  <course>61.37</course>
  <speed>25.305969651447857</speed>
  <fix>3d</fix>
</trkpt>
<trkpt lat="-27.2732595" lon="151.2864152">
  <ele>370.14</ele>
  <time>2026-09-01T19:57:25Z</time>
  <course>60.54</course>
  <speed>25.37</speed>
  <fix>3d</fix>
</trkpt>
<trkpt lat="-27.2732275" lon="151.2864821">
  <ele>370.0</ele>
  <time>2026-09-01T19:57:25Z</time>
  <course>62.02</course>
  <speed>25.317829685816278</speed>
  <fix>3d</fix>
</trkpt>
<trkpt lat="-27.2732376" lon="151.2864602">
  <ele>370.11</ele>
  <time>2026-09-01T19:57:25Z</time>
  <course>62.0</course>
  <speed>25.4</speed>
  <fix>3d</fix>
</trkpt>
<trkpt lat="-27.2732173" lon="151.286505">
  <ele>370.0</ele>
  <time>2026-09-01T19:57:25Z</time>
  <course>62.82</course>
  <speed>25.335133707955833</speed>
  <fix>3d</fix>
</trkpt>
<trkpt lat="-27.2732376" lon="151.2864602">
  <ele>370.11</ele>
  <time>2026-09-01T19:57:25Z</time>
  <course>62.0</course>
  <speed>25.4</speed>
  <fix>3d</fix>
</trkpt>
<trkpt lat="-27.2732074" lon="151.2865281">
  <ele>370.02</ele>
  <time>2026-09-01T19:57:25Z</time>
  <course>63.66</course>
  <speed>25.34081687712533</speed>
  <fix>3d</fix>
</trkpt>
<trkpt lat="-27.2732167" lon="151.2865059">
  <ele>370.11</ele>
  <time>2026-09-01T19:57:25Z</time>
  <course>63.69</course>
  <speed>25.43</speed>
  <fix>3d</fix>
</trkpt>
<trkpt lat="-27.2731978" lon="151.2865514">
  <ele>370.04</ele>
  <time>2026-09-01T19:57:25Z</time>
  <course>64.52</course>
  <speed>25.35374725755544</speed>
  <fix>3d</fix>
</trkpt>
<trkpt lat="-27.2732167" lon="151.2865059">
  <ele>370.11</ele>
  <time>2026-09-01T19:57:25Z</time>
  <course>63.69</course>
  <speed>25.43</speed>
  <fix>3d</fix>
</trkpt>
<trkpt lat="-27.2731885" lon="151.2865748">
  <ele>370.06</ele>
  <time>2026-09-01T19:57:25Z</time>
  <course>65.45</course>
  <speed>25.365855002345178</speed>
  <fix>3d</fix>
</trkpt>
<trkpt lat="-27.2731971" lon="151.2865525">
  <ele>370.14</ele>
  <time>2026-09-01T19:57:25Z</time>
  <course>65.56</course>
  <speed>25.46</speed>
  <fix>3d</fix>
</trkpt>
<trkpt lat="-27.2731797" lon="151.2865985">
  <ele>370.1</ele>
  <time>2026-09-01T19:57:25Z</time>
  <course>66.46</course>
  <speed>25.368835211731735</speed>
  <fix>3d</fix>
</trkpt>
<trkpt lat="-27.2731971" lon="151.2865525">
  <ele>370.14</ele>
  <time>2026-09-01T19:57:25Z</time>
  <course>65.56</course>
  <speed>25.46</speed>
  <fix>3d</fix>
</trkpt>
<trkpt lat="-27.2731714" lon="151.2866218">
  <ele>370.13</ele>
  <time>2026-09-01T19:57:25Z</time>
  <course>67.44</course>
  <speed>25.38573615241441</speed>
  <fix>3d</fix>
</trkpt>
<trkpt lat="-27.2731788" lon="151.2865998">
  <ele>370.2</ele>
  <time>2026-09-01T19:57:25Z</time>
  <course>67.59</course>
  <speed>25.48</speed>
  <fix>3d</fix>
</trkpt>
<trkpt lat="-27.273163" lon="151.2866466">
  <ele>370.18</ele>
  <time>2026-09-01T19:57:25Z</time>
  <course>68.44</course>
  <speed>25.39067939224943</speed>
  <fix>3d</fix>
</trkpt>
<trkpt lat="-27.2731788" lon="151.2865998">
  <ele>370.2</ele>
  <time>2026-09-01T19:57:25Z</time>
  <course>67.59</course>
  <speed>25.48</speed>
  <fix>3d</fix>
</trkpt>
<trkpt lat="-27.2731553" lon="151.2866708">
  <ele>370.23</ele>
  <time>2026-09-01T19:57:25Z</time>
  <course>69.47</course>
  <speed>25.3910948956519</speed>
  <fix>3d</fix>
</trkpt>
<trkpt lat="-27.2731622" lon="151.2866478">
  <ele>370.28</ele>
  <time>2026-09-01T19:57:25Z</time>
  <course>69.77</course>
  <speed>25.5</speed>
  <fix>3d</fix>
</trkpt>
<trkpt lat="-27.2731481" lon="151.2866951">
  <ele>370.28</ele>
  <time>2026-09-01T19:57:25Z</time>
  <course>70.56</course>
  <speed>25.39741916022177</speed>
  <fix>3d</fix>
</trkpt>
<trkpt lat="-27.2731622" lon="151.2866478">
  <ele>370.28</ele>
  <time>2026-09-01T19:57:25Z</time>
  <course>69.77</course>
  <speed>25.5</speed>
  <fix>3d</fix>
</trkpt>
<trkpt lat="-27.2731412" lon="151.2867197">
  <ele>370.34</ele>
  <time>2026-09-01T19:57:25Z</time>
  <course>71.74</course>
  <speed>25.407308003800793</speed>
  <fix>3d</fix>
</trkpt>
<trkpt lat="-27.2731471" lon="151.2866965">
  <ele>370.39</ele>
  <time>2026-09-01T19:57:25Z</time>
  <course>71.99</course>
  <speed>25.51</speed>
  <fix>3d</fix>
</trkpt>
<trkpt lat="-27.2731348" lon="151.2867445">
  <ele>370.4</ele>
  <time>2026-09-01T19:57:25Z</time>
  <course>72.84</course>
  <speed>25.405310468482767</speed>
  <fix>3d</fix>
</trkpt>
<trkpt lat="-27.2731471" lon="151.2866965">
  <ele>370.39</ele>
  <time>2026-09-01T19:57:25Z</time>
  <course>71.99</course>
  <speed>25.51</speed>
  <fix>3d</fix>
</trkpt>
<trkpt lat="-27.2731288" lon="151.2867693">
  <ele>370.46</ele>
  <time>2026-09-01T19:57:25Z</time>
  <course>73.89</course>
  <speed>25.403850101903846</speed>
  <fix>3d</fix>
</trkpt>
<trkpt lat="-27.2731339" lon="151.2867459">
  <ele>370.51</ele>
  <time>2026-09-01T19:57:25Z</time>
  <course>74.26</course>
  <speed>25.52</speed>
  <fix>3d</fix>
</trkpt>
<trkpt lat="-27.2731232" lon="151.2867946">
  <ele>370.53</ele>
  <time>2026-09-01T19:57:25Z</time>
  <course>74.99</course>
  <speed>25.412504795867722</speed>
  <fix>3d</fix>
</trkpt>
<trkpt lat="-27.2731339" lon="151.2867459">
  <ele>370.51</ele>
  <time>2026-09-01T19:57:25Z</time>
  <course>74.26</course>
  <speed>25.52</speed>
  <fix>3d</fix>
</trkpt>
<trkpt lat="-27.2731181" lon="151.2868198">
  <ele>370.6</ele>
  <time>2026-09-01T19:57:25Z</time>
  <course>76.13</course>
  <speed>25.41171383437174</speed>
  <fix>3d</fix>
</trkpt>
<trkpt lat="-27.2731223" lon="151.2867958">
  <ele>370.64</ele>
  <time>2026-09-01T19:57:25Z</time>
  <course>76.54</course>
  <speed>25.52</speed>
  <fix>3d</fix>
</trkpt>
<trkpt lat="-27.2731134" lon="151.2868451">
  <ele>370.66</ele>
  <time>2026-09-01T19:57:25Z</time>
  <course>77.26</course>
  <speed>25.420845776645592</speed>
  <fix>3d</fix>
</trkpt>
<trkpt lat="-27.2731223" lon="151.2867958">
  <ele>370.64</ele>
  <time>2026-09-01T19:57:25Z</time>
  <course>76.54</course>
  <speed>25.52</speed>
  <fix>3d</fix>
</trkpt>
<trkpt lat="-27.2731092" lon="151.2868705">
  <ele>370.73</ele>
  <time>2026-09-01T19:57:25Z</time>
  <course>78.38</course>
  <speed>25.416750382375795</speed>
  <fix>3d</fix>
</trkpt>
<trkpt lat="-27.2731126" lon="151.2868461">
  <ele>370.78</ele>
  <time>2026-09-01T19:57:25Z</time>
  <course>78.83</course>
  <speed>25.51</speed>
  <fix>3d</fix>
</trkpt>
<trkpt lat="-27.2731054" lon="151.286896">
  <ele>370.81</ele>
  <time>2026-09-01T19:57:25Z</time>
  <course>79.39</course>
  <speed>25.406475552504325</speed>
  <fix>3d</fix>
</trkpt>
<trkpt lat="-27.2731126" lon="151.2868461">
  <ele>370.78</ele>
  <time>2026-09-01T19:57:25Z</time>
  <course>78.83</course>
  <speed>25.51</speed>
  <fix>3d</fix>
</trkpt>
<trkpt lat="-27.273102" lon="151.2869216">
  <ele>370.88</ele>
  <time>2026-09-01T19:57:25Z</time>
  <course>80.45</course>
  <speed>25.408510385302005</speed>
  <fix>3d</fix>
</trkpt>
<trkpt lat="-27.2731046" lon="151.2868969">
  <ele>370.92</ele>
  <time>2026-09-01T19:57:25Z</time>
  <course>81.08</course>
  <speed>25.5</speed>
  <fix>3d</fix>
</trkpt>
<trkpt lat="-27.2730991" lon="151.2869472">
  <ele>370.95</ele>
  <time>2026-09-01T19:57:25Z</time>
  <course>81.52</course>
  <speed>25.409496256321177</speed>
  <fix>3d</fix>
</trkpt>
<trkpt lat="-27.2731046" lon="151.2868969">
  <ele>370.92</ele>
  <time>2026-09-01T19:57:25Z</time>
  <course>81.08</course>
  <speed>25.5</speed>
  <fix>3d</fix>
</trkpt>
<trkpt lat="-27.2730966" lon="151.2869729">
  <ele>371.02</ele>
  <time>2026-09-01T19:57:25Z</time>
  <course>82.58</course>
  <speed>25.40936244772781</speed>
  <fix>3d</fix>
</trkpt>
<trkpt lat="-27.2730984" lon="151.2869479">
  <ele>371.07</ele>
  <time>2026-09-01T19:57:25Z</time>
  <course>83.25</course>
  <speed>25.49</speed>
  <fix>3d</fix>
</trkpt>
<trkpt lat="-27.2730945" lon="151.2869986">
  <ele>371.09</ele>
  <time>2026-09-01T19:57:25Z</time>
  <course>83.65</course>
  <speed>25.398866116423388</speed>
  <fix>3d</fix>
</trkpt>
<trkpt lat="-27.2730984" lon="151.2869479">
  <ele>371.07</ele>
  <time>2026-09-01T19:57:25Z</time>
  <course>83.25</course>
  <speed>25.49</speed>
  <fix>3d</fix>
</trkpt>
<trkpt lat="-27.2730929" lon="151.2870243">
  <ele>371.16</ele>
  <time>2026-09-01T19:57:25Z</time>
  <course>84.69</course>
  <speed>25.397342380650777</speed>
  <fix>3d</fix>
</trkpt>
<trkpt lat="-27.2730938" lon="151.2869992">
  <ele>371.21</ele>
  <time>2026-09-01T19:57:25Z</time>
  <course>85.36</course>
  <speed>25.47</speed>
  <fix>3d</fix>
</trkpt>
<trkpt lat="-27.2730916" lon="151.2870501">
  <ele>371.22</ele>
  <time>2026-09-01T19:57:25Z</time>
  <course>85.71</course>
  <speed>25.39340465553999</speed>
  <fix>3d</fix>
</trkpt>
<trkpt lat="-27.2730938" lon="151.2869992">
  <ele>371.21</ele>
  <time>2026-09-01T19:57:25Z</time>
  <course>85.36</course>
  <speed>25.47</speed>
  <fix>3d</fix>
</trkpt>
<trkpt lat="-27.2730907" lon="151.2870759">
  <ele>371.28</ele>
  <time>2026-09-01T19:57:25Z</time>
  <course>86.66</course>
  <speed>25.388580109962827</speed>
  <fix>3d</fix>
</trkpt>
<trkpt lat="-27.2730909" lon="151.2870507">
  <ele>371.34</ele>
  <time>2026-09-01T19:57:25Z</time>
  <course>87.4</course>
  <speed>25.45</speed>
  <fix>3d</fix>
</trkpt>
<trkpt lat="-27.2730903" lon="151.2871017">
  <ele>371.33</ele>
  <time>2026-09-01T19:57:25Z</time>
  <course>87.66</course>
  <speed>25.380953488787608</speed>
  <fix>3d</fix>
</trkpt>
<trkpt lat="-27.2730909" lon="151.2870507">
  <ele>371.34</ele>
  <time>2026-09-01T19:57:25Z</time>
  <course>87.4</course>
  <speed>25.45</speed>
  <fix>3d</fix>
</trkpt>
<trkpt lat="-27.2730902" lon="151.2871274">
  <ele>371.38</ele>
  <time>2026-09-01T19:57:25Z</time>
  <course>88.66</course>
  <speed>25.370788320428673</speed>
  <fix>3d</fix>
</trkpt>
<trkpt lat="-27.2730897" lon="151.2871022">
  <ele>371.45</ele>
  <time>2026-09-01T19:57:25Z</time>
  <course>89.39</course>
  <speed>25.43</speed>
  <fix>3d</fix>
</trkpt>
<trkpt lat="-27.2730904" lon="151.2871532">
  <ele>371.43</ele>
  <time>2026-09-01T19:57:25Z</time>
  <course>89.66</course>
  <speed>25.377332405120914</speed>
  <fix>3d</fix>
</trkpt>
<trkpt lat="-27.2730897" lon="151.2871022">
  <ele>371.45</ele>
  <time>2026-09-01T19:57:25Z</time>
  <course>89.39</course>
  <speed>25.43</speed>
  <fix>3d</fix>
</trkpt>
<trkpt lat="-27.2730911" lon="151.287179">
  <ele>371.48</ele>
  <time>2026-09-01T19:57:25Z</time>
  <course>90.62</course>
  <speed>25.37091642018475</speed>
  <fix>3d</fix>
</trkpt>
<trkpt lat="-27.2730899" lon="151.2871535">
  <ele>371.56</ele>
  <time>2026-09-01T19:57:25Z</time>
  <course>91.32</course>
  <speed>25.42</speed>
  <fix>3d</fix>
</trkpt>
<trkpt lat="-27.2730922" lon="151.2872047">
  <ele>371.52</ele>
  <time>2026-09-01T19:57:25Z</time>
  <course>91.52</course>
  <speed>25.37033306836944</speed>
  <fix>3d</fix>
</trkpt>
<trkpt lat="-27.2730899" lon="151.2871535">
  <ele>371.56</ele>
  <time>2026-09-01T19:57:25Z</time>
  <course>91.32</course>
  <speed>25.42</speed>
  <fix>3d</fix>
</trkpt>
<trkpt lat="-27.2730936" lon="151.2872304">
  <ele>371.57</ele>
  <time>2026-09-01T19:57:25Z</time>
  <course>92.42</course>
  <speed>25.36537797865429</speed>
  <fix>3d</fix>
</trkpt>
<trkpt lat="-27.2730917" lon="151.2872048">
  <ele>371.65</ele>
  <time>2026-09-01T19:57:25Z</time>
  <course>93.16</course>
  <speed>25.4</speed>
  <fix>3d</fix>
</trkpt>
<trkpt lat="-27.2730954" lon="151.287256">
  <ele>371.61</ele>
  <time>2026-09-01T19:57:25Z</time>
  <course>93.3</course>
  <speed>25.354756950126735</speed>
  <fix>3d</fix>
</trkpt>
<trkpt lat="-27.2730917" lon="151.2872048">
  <ele>371.65</ele>
  <time>2026-09-01T19:57:25Z</time>
  <course>93.16</course>
  <speed>25.4</speed>
  <fix>3d</fix>
</trkpt>
<trkpt lat="-27.2730975" lon="151.2872816">
  <ele>371.64</ele>
  <time>2026-09-01T19:57:25Z</time>
  <course>94.25</course>
  <speed>25.33964680101126</speed>
  <fix>3d</fix>
</trkpt>
<trkpt lat="-27.2730949" lon="151.287256">
  <ele>371.72</ele>
  <time>2026-09-01T19:57:25Z</time>
  <course>94.91</course>
  <speed>25.38</speed>
  <fix>3d</fix>
</trkpt>
<trkpt lat="-27.2730999" lon="151.2873072">
  <ele>371.68</ele>
  <time>2026-09-01T19:57:25Z</time>
  <course>95.15</course>
  <speed>25.32887680099534</speed>
  <fix>3d</fix>
</trkpt>
<trkpt lat="-27.2730949" lon="151.287256">
  <ele>371.72</ele>
  <time>2026-09-01T19:57:25Z</time>
  <course>94.91</course>
  <speed>25.38</speed>
  <fix>3d</fix>
</trkpt>
<trkpt lat="-27.2731027" lon="151.2873329">
  <ele>371.71</ele>
  <time>2026-09-01T19:57:25Z</time>
  <course>95.96</course>
  <speed>25.323319292699367</speed>
  <fix>3d</fix>
</trkpt>
<trkpt lat="-27.2730995" lon="151.287307">
  <ele>371.79</ele>
  <time>2026-09-01T19:57:25Z</time>
  <course>96.58</course>
  <speed>25.36</speed>
  <fix>3d</fix>
</trkpt>
<trkpt lat="-27.2731057" lon="151.2873583">
  <ele>371.74</ele>
  <time>2026-09-01T19:57:25Z</time>
  <course>96.69</course>
  <speed>25.31021335350613</speed>
  <fix>3d</fix>
</trkpt>
<trkpt lat="-27.2730995" lon="151.287307">
  <ele>371.79</ele>
  <time>2026-09-01T19:57:25Z</time>
  <course>96.58</course>
  <speed>25.36</speed>
  <fix>3d</fix>
</trkpt>
<trkpt lat="-27.2731091" lon="151.2873836">
  <ele>371.77</ele>
  <time>2026-09-01T19:57:25Z</time>
  <course>97.42</course>
  <speed>25.298689689389054</speed>
  <fix>3d</fix>
</trkpt>
<trkpt lat="-27.2731053" lon="151.2873578">
  <ele>371.86</ele>
  <time>2026-09-01T19:57:25Z</time>
  <course>98.17</course>
  <speed>25.34</speed>
  <fix>3d</fix>
</trkpt>
<trkpt lat="-27.2731127" lon="151.2874089">
  <ele>371.8</ele>
  <time>2026-09-01T19:57:25Z</time>
  <course>98.13</course>
  <speed>25.297849710993223</speed>
  <fix>3d</fix>
</trkpt>
<trkpt lat="-27.2731053" lon="151.2873578">
  <ele>371.86</ele>
  <time>2026-09-01T19:57:25Z</time>
  <course>98.17</course>
  <speed>25.34</speed>
  <fix>3d</fix>
</trkpt>
<trkpt lat="-27.2731167" lon="151.2874342">
  <ele>371.82</ele>
  <time>2026-09-01T19:57:25Z</time>
  <course>98.8</course>
  <speed>25.28724579704164</speed>
  <fix>3d</fix>
</trkpt>
<trkpt lat="-27.2731124" lon="151.2874084">
  <ele>371.91</ele>
  <time>2026-09-01T19:57:25Z</time>
  <course>99.61</course>
  <speed>25.32</speed>
  <fix>3d</fix>
</trkpt>
<trkpt lat="-27.2731208" lon="151.2874594">
  <ele>371.84</ele>
  <time>2026-09-01T19:57:25Z</time>
  <course>99.5</course>
  <speed>25.277984492439263</speed>
  <fix>3d</fix>
</trkpt>
<trkpt lat="-27.2731124" lon="151.2874084">
  <ele>371.91</ele>
  <time>2026-09-01T19:57:25Z</time>
  <course>99.61</course>
  <speed>25.32</speed>
  <fix>3d</fix>
</trkpt>
<trkpt lat="-27.2731253" lon="151.2874845">
  <ele>371.85</ele>
  <time>2026-09-01T19:57:25Z</time>
  <course>100.21</course>
  <speed>25.281544652176617</speed>
  <fix>3d</fix>
</trkpt>
<trkpt lat="-27.2731205" lon="151.2874587">
  <ele>371.96</ele>
  <time>2026-09-01T19:57:25Z</time>
  <course>100.91</course>
  <speed>25.3</speed>
  <fix>3d</fix>
</trkpt>
<trkpt lat="-27.2731299" lon="151.2875096">
  <ele>371.86</ele>
  <time>2026-09-01T19:57:25Z</time>
  <course>100.89</course>
  <speed>25.276204224527067</speed>
  <fix>3d</fix>
</trkpt>
<trkpt lat="-27.2731205" lon="151.2874587">
  <ele>371.96</ele>
  <time>2026-09-01T19:57:25Z</time>
  <course>100.91</course>
  <speed>25.3</speed>
  <fix>3d</fix>
</trkpt>
<trkpt lat="-27.2731348" lon="151.2875346">
  <ele>371.87</ele>
  <time>2026-09-01T19:57:25Z</time>
  <course>101.48</course>
  <speed>25.271474036945293</speed>
  <fix>3d</fix>
</trkpt>
<trkpt lat="-27.2731296" lon="151.2875088">
  <ele>371.99</ele>
  <time>2026-09-01T19:57:25Z</time>
  <course>102.12</course>
  <speed>25.29</speed>
  <fix>3d</fix>
</trkpt>
<trkpt lat="-27.2731399" lon="151.2875595">
  <ele>371.88</ele>
  <time>2026-09-01T19:57:25Z</time>
  <course>102.09</course>
  <speed>25.26246622956674</speed>
  <fix>3d</fix>
</trkpt>
<trkpt lat="-27.2731296" lon="151.2875088">
  <ele>371.99</ele>
  <time>2026-09-01T19:57:25Z</time>
  <course>102.12</course>
  <speed>25.29</speed>
  <fix>3d</fix>
</trkpt>
<trkpt lat="-27.2731451" lon="151.2875842">
  <ele>371.88</ele>
  <time>2026-09-01T19:57:25Z</time>
  <course>102.69</course>
  <speed>25.257895795176605</speed>
  <fix>3d</fix>
</trkpt>
<trkpt lat="-27.2731396" lon="151.2875586">
  <ele>372.0</ele>
  <time>2026-09-01T19:57:25Z</time>
  <course>103.24</course>
  <speed>25.28</speed>
  <fix>3d</fix>
</trkpt>
<trkpt lat="-27.2731506" lon="151.2876089">
  <ele>371.89</ele>
  <time>2026-09-01T19:57:25Z</time>
  <course>103.29</course>
  <speed>25.250619794373364</speed>
  <fix>3d</fix>
</trkpt>
<trkpt lat="-27.2731396" lon="151.2875586">
  <ele>372.0</ele>
  <time>2026-09-01T19:57:25Z</time>
  <course>103.24</course>
  <speed>25.28</speed>
  <fix>3d</fix>
</trkpt>
<trkpt lat="-27.2731563" lon="151.2876335">
  <ele>371.89</ele>
  <time>2026-09-01T19:57:25Z</time>
  <course>103.83</course>
  <speed>25.2426821078902</speed>
  <fix>3d</fix>
</trkpt>
<trkpt lat="-27.2731504" lon="151.2876083">
  <ele>372.02</ele>
  <time>2026-09-01T19:57:25Z</time>
  <course>104.27</course>
  <speed>25.27</speed>
  <fix>3d</fix>
</trkpt>
<trkpt lat="-27.2731621" lon="151.287658">
  <ele>371.9</ele>
  <time>2026-09-01T19:57:25Z</time>
  <course>104.29</course>
  <speed>25.231222721065265</speed>
  <fix>3d</fix>
</trkpt>
<trkpt lat="-27.2731504" lon="151.2876083">
  <ele>372.02</ele>
  <time>2026-09-01T19:57:25Z</time>
  <course>104.27</course>
  <speed>25.27</speed>
  <fix>3d</fix>
</trkpt>
<trkpt lat="-27.2731681" lon="151.2876825">
  <ele>371.9</ele>
  <time>2026-09-01T19:57:25Z</time>
  <course>104.79</course>
  <speed>25.22118553914546</speed>
  <fix>3d</fix>
</trkpt>
<trkpt lat="-27.2731619" lon="151.2876578">
  <ele>372.03</ele>
  <time>2026-09-01T19:57:25Z</time>
  <course>105.18</course>
  <speed>25.27</speed>
  <fix>3d</fix>
</trkpt>
<trkpt lat="-27.2731742" lon="151.2877069">
  <ele>371.9</ele>
  <time>2026-09-01T19:57:25Z</time>
  <course>105.27</course>
  <speed>25.21666314166091</speed>
  <fix>3d</fix>
</trkpt>
<trkpt lat="-27.2731619" lon="151.2876578">
  <ele>372.03</ele>
  <time>2026-09-01T19:57:25Z</time>
  <course>105.18</course>
  <speed>25.27</speed>
  <fix>3d</fix>
</trkpt>
<trkpt lat="-27.2731805" lon="151.2877313">
  <ele>371.9</ele>
  <time>2026-09-01T19:57:25Z</time>
  <course>105.7</course>
  <speed>25.210436331011806</speed>
  <fix>3d</fix>
</trkpt>
<trkpt lat="-27.2731742" lon="151.287707">
  <ele>372.03</ele>
  <time>2026-09-01T19:57:25Z</time>
  <course>105.99</course>
  <speed>25.26</speed>
  <fix>3d</fix>
</trkpt>
<trkpt lat="-27.2731869" lon="151.2877557">
  <ele>371.9</ele>
  <time>2026-09-01T19:57:25Z</time>
  <course>106.05</course>
  <speed>25.21190393445128</speed>
  <fix>3d</fix>
</trkpt>
<trkpt lat="-27.2731742" lon="151.287707">
  <ele>372.03</ele>
  <time>2026-09-01T19:57:25Z</time>
  <course>105.99</course>
  <speed>25.26</speed>
  <fix>3d</fix>
</trkpt>
<trkpt lat="-27.2731934" lon="151.28778">
  <ele>371.9</ele>
  <time>2026-09-01T19:57:25Z</time>
  <course>106.39</course>
  <speed>25.208365674910382</speed>
  <fix>3d</fix>
</trkpt>
<trkpt lat="-27.273187" lon="151.287756">
  <ele>372.04</ele>
  <time>2026-09-01T19:57:25Z</time>
  <course>106.69</course>
  <speed>25.26</speed>
  <fix>3d</fix>
</trkpt>
<trkpt lat="-27.2732001" lon="151.2878043">
  <ele>371.9</ele>
  <time>2026-09-01T19:57:25Z</time>
  <course>106.7</course>
  <speed>25.205461709716804</speed>
  <fix>3d</fix>
</trkpt>
<trkpt lat="-27.273187" lon="151.287756">
  <ele>372.04</ele>
  <time>2026-09-01T19:57:25Z</time>
  <course>106.69</course>
  <speed>25.26</speed>
  <fix>3d</fix>
</trkpt>
<trkpt lat="-27.2732068" lon="151.2878284">
  <ele>371.9</ele>
  <time>2026-09-01T19:57:25Z</time>
  <course>107.01</course>
  <speed>25.206705457080265</speed>
  <fix>3d</fix>
</trkpt>
<trkpt lat="-27.2732002" lon="151.2878048">
  <ele>372.05</ele>
  <time>2026-09-01T19:57:25Z</time>
  <course>107.27</course>
  <speed>25.26</speed>
  <fix>3d</fix>
</trkpt>
<trkpt lat="-27.2732136" lon="151.2878526">
  <ele>371.91</ele>
  <time>2026-09-01T19:57:25Z</time>
  <course>107.35</course>
  <speed>25.208381542653623</speed>
  <fix>3d</fix>
</trkpt>
<trkpt lat="-27.2732002" lon="151.2878048">
  <ele>372.05</ele>
  <time>2026-09-01T19:57:25Z</time>
  <course>107.27</course>
  <speed>25.26</speed>
  <fix>3d</fix>
</trkpt>
<trkpt lat="-27.2732206" lon="151.2878769">
  <ele>371.91</ele>
  <time>2026-09-01T19:57:25Z</time>
  <course>107.62</course>
  <speed>25.216918923611583</speed>
  <fix>3d</fix>
</trkpt>
<trkpt lat="-27.2732139" lon="151.2878535">
  <ele>372.05</ele>
  <time>2026-09-01T19:57:25Z</time>
  <course>107.75</course>
  <speed>25.27</speed>
  <fix>3d</fix>
</trkpt>
<trkpt lat="-27.2732276" lon="151.2879011">
  <ele>371.91</ele>
  <time>2026-09-01T19:57:25Z</time>
  <course>107.85</course>
  <speed>25.213173144211737</speed>
  <fix>3d</fix>
</trkpt>
<trkpt lat="-27.2732139" lon="151.2878535">
  <ele>372.05</ele>
  <time>2026-09-01T19:57:25Z</time>
  <course>107.75</course>
  <speed>25.27</speed>
  <fix>3d</fix>
</trkpt>
<trkpt lat="-27.2732347" lon="151.2879253">
  <ele>371.91</ele>
  <time>2026-09-01T19:57:25Z</time>
  <course>108.11</course>
  <speed>25.216066307019418</speed>
  <fix>3d</fix>
</trkpt>
<trkpt lat="-27.2732279" lon="151.2879021">
  <ele>372.06</ele>
  <time>2026-09-01T19:57:25Z</time>
  <course>108.15</course>
  <speed>25.27</speed>
  <fix>3d</fix>
</trkpt>
<trkpt lat="-27.2732419" lon="151.2879497">
  <ele>371.91</ele>
  <time>2026-09-01T19:57:25Z</time>
  <course>108.28</course>
  <speed>25.219169296390398</speed>
  <fix>3d</fix>
</trkpt>
<trkpt lat="-27.2732279" lon="151.2879021">
  <ele>372.06</ele>
  <time>2026-09-01T19:57:25Z</time>
  <course>108.15</course>
  <speed>25.27</speed>
  <fix>3d</fix>
</trkpt>
<trkpt lat="-27.2732491" lon="151.2879738">
  <ele>371.91</ele>
  <time>2026-09-01T19:57:25Z</time>
  <course>108.39</course>
  <speed>25.225576306598033</speed>
  <fix>3d</fix>
</trkpt>
<trkpt lat="-27.2732422" lon="151.2879506">
  <ele>372.07</ele>
  <time>2026-09-01T19:57:25Z</time>
  <course>108.46</course>
  <speed>25.28</speed>
  <fix>3d</fix>
</trkpt>
<trkpt lat="-27.2732563" lon="151.287998">
  <ele>371.92</ele>
  <time>2026-09-01T19:57:25Z</time>
  <course>108.52</course>
  <speed>25.21940720952814</speed>
  <fix>3d</fix>
</trkpt>
<trkpt lat="-27.2732422" lon="151.2879506">
  <ele>372.07</ele>
  <time>2026-09-01T19:57:25Z</time>
  <course>108.46</course>
  <speed>25.28</speed>
  <fix>3d</fix>
</trkpt>
<trkpt lat="-27.2732637" lon="151.2880224">
  <ele>371.94</ele>
  <time>2026-09-01T19:57:25Z</time>
  <course>108.67</course>
  <speed>25.21956581703975</speed>
  <fix>3d</fix>
</trkpt>
<trkpt lat="-27.2732566" lon="151.287999">
  <ele>372.08</ele>
  <time>2026-09-01T19:57:25Z</time>
  <course>108.68</course>
  <speed>25.28</speed>
  <fix>3d</fix>
</trkpt>
<trkpt lat="-27.273271" lon="151.2880465">
  <ele>371.95</ele>
  <time>2026-09-01T19:57:25Z</time>
  <course>108.84</course>
  <speed>25.21653822395136</speed>
  <fix>3d</fix>
</trkpt>
<trkpt lat="-27.2732566" lon="151.287999">
  <ele>372.08</ele>
  <time>2026-09-01T19:57:25Z</time>
  <course>108.68</course>
  <speed>25.28</speed>
  <fix>3d</fix>
</trkpt>
<trkpt lat="-27.2732783" lon="151.2880706">
  <ele>371.97</ele>
  <time>2026-09-01T19:57:25Z</time>
  <course>108.95</course>
  <speed>25.20406713211183</speed>
  <fix>3d</fix>
</trkpt>
<trkpt lat="-27.2732712" lon="151.2880473">
  <ele>372.11</ele>
  <time>2026-09-01T19:57:25Z</time>
  <course>108.82</course>
  <speed>25.27</speed>
  <fix>3d</fix>
</trkpt>
<trkpt lat="-27.2732856" lon="151.2880948">
  <ele>371.99</ele>
  <time>2026-09-01T19:57:25Z</time>
  <course>109.05</course>
  <speed>25.166219422074505</speed>
  <fix>3d</fix>
</trkpt>
<trkpt lat="-27.2732712" lon="151.2880473">
  <ele>372.11</ele>
  <time>2026-09-01T19:57:25Z</time>
  <course>108.82</course>
  <speed>25.27</speed>
  <fix>3d</fix>
</trkpt>
<trkpt lat="-27.2732929" lon="151.2881189">
  <ele>372.01</ele>
  <time>2026-09-01T19:57:25Z</time>
  <course>109.11</course>
  <speed>25.084054696161065</speed>
  <fix>3d</fix>
</trkpt>
<trkpt lat="-27.2732859" lon="151.2880958">
  <ele>372.15</ele>
  <time>2026-09-01T19:57:25Z</time>
  <course>108.89</course>
  <speed>25.21</speed>
  <fix>3d</fix>
</trkpt>
<trkpt lat="-27.2733002" lon="151.2881429">
  <ele>372.03</ele>
  <time>2026-09-01T19:57:25Z</time>
  <course>109.15</course>
  <speed>24.948108144707085</speed>
  <fix>3d</fix>
</trkpt>
<trkpt lat="-27.2732859" lon="151.2880958">
  <ele>372.15</ele>
  <time>2026-09-01T19:57:25Z</time>
  <course>108.89</course>
  <speed>25.21</speed>
  <fix>3d</fix>
</trkpt>
<trkpt lat="-27.2733075" lon="151.2881667">
  <ele>372.06</ele>
  <time>2026-09-01T19:57:25Z</time>
  <course>109.21</course>
  <speed>24.78054075277616</speed>
  <fix>3d</fix>
</trkpt>
<trkpt lat="-27.2733006" lon="151.2881439">
  <ele>372.19</ele>
  <time>2026-09-01T19:57:25Z</time>
  <course>108.93</course>
  <speed>25.0</speed>
  <fix>3d</fix>
</trkpt>
<trkpt lat="-27.2733147" lon="151.2881904">
  <ele>372.1</ele>
  <time>2026-09-01T19:57:25Z</time>
  <course>109.23</course>
  <speed>24.635137507227356</speed>
  <fix>3d</fix>
</trkpt>
<trkpt lat="-27.2733006" lon="151.2881439">
  <ele>372.19</ele>
  <time>2026-09-01T19:57:25Z</time>
  <course>108.93</course>
  <speed>25.0</speed>
  <fix>3d</fix>
</trkpt>
<trkpt lat="-27.2733219" lon="151.2882139">
  <ele>372.14</ele>
  <time>2026-09-01T19:57:25Z</time>
  <course>109.28</course>
  <speed>24.477030048598625</speed>
  <fix>3d</fix>
</trkpt>
<trkpt lat="-27.2733151" lon="151.2881914">
  <ele>372.25</ele>
  <time>2026-09-01T19:57:25Z</time>
  <course>108.95</course>
  <speed>24.69</speed>
  <fix>3d</fix>
</trkpt>
<trkpt lat="-27.2733291" lon="151.2882373">
  <ele>372.19</ele>
  <time>2026-09-01T19:57:25Z</time>
  <course>109.26</course>
  <speed>24.341086664321296</speed>
  <fix>3d</fix>
</trkpt>
<trkpt lat="-27.2733151" lon="151.2881914">
  <ele>372.25</ele>
  <time>2026-09-01T19:57:25Z</time>
  <course>108.95</course>
  <speed>24.69</speed>
  <fix>3d</fix>
</trkpt>
<trkpt lat="-27.2733362" lon="151.2882606">
  <ele>372.23</ele>
  <time>2026-09-01T19:57:25Z</time>
  <course>109.27</course>
  <speed>24.214600967185063</speed>
  <fix>3d</fix>
</trkpt>
<trkpt lat="-27.2733294" lon="151.2882383">
  <ele>372.33</ele>
  <time>2026-09-01T19:57:25Z</time>
  <course>108.96</course>
  <speed>24.39</speed>
  <fix>3d</fix>
</trkpt>
<trkpt lat="-27.2733433" lon="151.2882838">
  <ele>372.28</ele>
  <time>2026-09-01T19:57:25Z</time>
  <course>109.26</course>
  <speed>24.084866617857777</speed>
  <fix>3d</fix>
</trkpt>
<trkpt lat="-27.2733294" lon="151.2882383">
  <ele>372.33</ele>
  <time>2026-09-01T19:57:25Z</time>
  <course>108.96</course>
  <speed>24.39</speed>
  <fix>3d</fix>
</trkpt>
<trkpt lat="-27.2733503" lon="151.2883068">
  <ele>372.33</ele>
  <time>2026-09-01T19:57:25Z</time>
  <course>109.26</course>
  <speed>23.958380579663558</speed>
  <fix>3d</fix>
</trkpt>
<trkpt lat="-27.2733435" lon="151.2882846">
  <ele>372.43</ele>
  <time>2026-09-01T19:57:25Z</time>
  <course>108.96</course>
  <speed>24.12</speed>
  <fix>3d</fix>
</trkpt>
<trkpt lat="-27.2733572" lon="151.2883295">
  <ele>372.38</ele>
  <time>2026-09-01T19:57:25Z</time>
  <course>109.23</course>
  <speed>23.765405529887342</speed>
  <fix>3d</fix>
</trkpt>
<trkpt lat="-27.2733435" lon="151.2882846">
  <ele>372.43</ele>
  <time>2026-09-01T19:57:25Z</time>
  <course>108.96</course>
  <speed>24.12</speed>
  <fix>3d</fix>
</trkpt>
<trkpt lat="-27.2733641" lon="151.2883522">
  <ele>372.45</ele>
  <time>2026-09-01T19:57:25Z</time>
  <course>109.19</course>
  <speed>23.528110846389687</speed>
  <fix>3d</fix>
</trkpt>
<trkpt lat="-27.2733575" lon="151.2883304">
  <ele>372.54</ele>
  <time>2026-09-01T19:57:25Z</time>
  <course>108.92</course>
  <speed>23.78</speed>
  <fix>3d</fix>
</trkpt>
<trkpt lat="-27.2733709" lon="151.2883746">
  <ele>372.53</ele>
  <time>2026-09-01T19:57:25Z</time>
  <course>109.17</course>
  <speed>23.211656554412485</speed>
  <fix>3d</fix>
</trkpt>
<trkpt lat="-27.2733575" lon="151.2883304">
  <ele>372.54</ele>
  <time>2026-09-01T19:57:25Z</time>
  <course>108.92</course>
  <speed>23.78</speed>
  <fix>3d</fix>
</trkpt>
<trkpt lat="-27.2733776" lon="151.2883967">
  <ele>372.62</ele>
  <time>2026-09-01T19:57:25Z</time>
  <course>109.12</course>
  <speed>22.860404633339282</speed>
  <fix>3d</fix>
</trkpt>
<trkpt lat="-27.2733712" lon="151.2883754">
  <ele>372.68</ele>
  <time>2026-09-01T19:57:25Z</time>
  <course>108.82</course>
  <speed>23.23</speed>
  <fix>3d</fix>
</trkpt>
<trkpt lat="-27.2733842" lon="151.2884187">
  <ele>372.74</ele>
  <time>2026-09-01T19:57:25Z</time>
  <course>109.05</course>
  <speed>22.487074064893367</speed>
  <fix>3d</fix>
</trkpt>
<trkpt lat="-27.2733712" lon="151.2883754">
  <ele>372.68</ele>
  <time>2026-09-01T19:57:25Z</time>
  <course>108.82</course>
  <speed>23.23</speed>
  <fix>3d</fix>
</trkpt>
<trkpt lat="-27.2733906" lon="151.2884401">
  <ele>372.86</ele>
  <time>2026-09-01T19:57:25Z</time>
  <course>108.95</course>
  <speed>22.14227630574598</speed>
  <fix>3d</fix>
</trkpt>
<trkpt lat="-27.2733844" lon="151.2884192">
  <ele>372.88</ele>
  <time>2026-09-01T19:57:25Z</time>
  <course>108.62</course>
  <speed>22.53</speed>
  <fix>3d</fix>
</trkpt>
<trkpt lat="-27.2733968" lon="151.2884612">
  <ele>372.98</ele>
  <time>2026-09-01T19:57:25Z</time>
  <course>108.84</course>
  <speed>21.800756867595215</speed>
  <fix>3d</fix>
</trkpt>
<trkpt lat="-27.2733844" lon="151.2884192">
  <ele>372.88</ele>
  <time>2026-09-01T19:57:25Z</time>
  <course>108.62</course>
  <speed>22.53</speed>
  <fix>3d</fix>
</trkpt>
<trkpt lat="-27.273403" lon="151.288482">
  <ele>373.09</ele>
  <time>2026-09-01T19:57:25Z</time>
  <course>108.7</course>
  <speed>21.487822132547546</speed>
  <fix>3d</fix>
</trkpt>
<trkpt lat="-27.273397" lon="151.2884617">
  <ele>373.11</ele>
  <time>2026-09-01T19:57:25Z</time>
  <course>108.37</course>
  <speed>21.84</speed>
  <fix>3d</fix>
</trkpt>
<trkpt lat="-27.2734089" lon="151.2885025">
  <ele>373.18</ele>
  <time>2026-09-01T19:57:25Z</time>
  <course>108.56</course>
  <speed>21.178132590008968</speed>
  <fix>3d</fix>
</trkpt>
<trkpt lat="-27.273397" lon="151.2884617">
  <ele>373.11</ele>
  <time>2026-09-01T19:57:25Z</time>
  <course>108.37</course>
  <speed>21.84</speed>
  <fix>3d</fix>
</trkpt>
<trkpt lat="-27.2734148" lon="151.2885228">
  <ele>373.26</ele>
  <time>2026-09-01T19:57:25Z</time>
  <course>108.42</course>
  <speed>20.874973053874825</speed>
  <fix>3d</fix>
</trkpt>
<trkpt lat="-27.2734091" lon="151.288503">
  <ele>373.31</ele>
  <time>2026-09-01T19:57:25Z</time>
  <course>108.11</course>
  <speed>21.2</speed>
  <fix>3d</fix>
</trkpt>
<trkpt lat="-27.2734205" lon="151.2885428">
  <ele>373.34</ele>
  <time>2026-09-01T19:57:25Z</time>
  <course>108.29</course>
  <speed>20.58455974753893</speed>
  <fix>3d</fix>
</trkpt>
<trkpt lat="-27.2734091" lon="151.288503">
  <ele>373.31</ele>
  <time>2026-09-01T19:57:25Z</time>
  <course>108.11</course>
  <speed>21.2</speed>
  <fix>3d</fix>
</trkpt>
<trkpt lat="-27.2734261" lon="151.2885625">
  <ele>373.4</ele>
  <time>2026-09-01T19:57:25Z</time>
  <course>108.18</course>
  <speed>20.306848598440872</speed>
  <fix>3d</fix>
</trkpt>
<trkpt lat="-27.2734207" lon="151.2885432">
  <ele>373.47</ele>
  <time>2026-09-01T19:57:25Z</time>
  <course>107.82</course>
  <speed>20.61</speed>
  <fix>3d</fix>
</trkpt>
<trkpt lat="-27.2734316" lon="151.288582">
  <ele>373.46</ele>
  <time>2026-09-01T19:57:25Z</time>
  <course>108.07</course>
  <speed>20.032263975896484</speed>
  <fix>3d</fix>
</trkpt>
<trkpt lat="-27.2734207" lon="151.2885432">
  <ele>373.47</ele>
  <time>2026-09-01T19:57:25Z</time>
  <course>107.82</course>
  <speed>20.61</speed>
  <fix>3d</fix>
</trkpt>
<trkpt lat="-27.273437" lon="151.2886012">
  <ele>373.51</ele>
  <time>2026-09-01T19:57:25Z</time>
  <course>107.96</course>
  <speed>19.767296223813716</speed>
  <fix>3d</fix>
</trkpt>
<trkpt lat="-27.2734318" lon="151.2885824">
  <ele>373.6</ele>
  <time>2026-09-01T19:57:25Z</time>
  <course>107.56</course>
  <speed>20.05</speed>
  <fix>3d</fix>
</trkpt>
<trkpt lat="-27.2734423" lon="151.2886202">
  <ele>373.55</ele>
  <time>2026-09-01T19:57:25Z</time>
  <course>107.87</course>
  <speed>19.51196812215518</speed>
  <fix>3d</fix>
</trkpt>
<trkpt lat="-27.2734318" lon="151.2885824">
  <ele>373.6</ele>
  <time>2026-09-01T19:57:25Z</time>
  <course>107.56</course>
  <speed>20.05</speed>
  <fix>3d</fix>
</trkpt>
<trkpt lat="-27.2734475" lon="151.288639">
  <ele>373.59</ele>
  <time>2026-09-01T19:57:25Z</time>
  <course>107.78</course>
  <speed>19.262658175859322</speed>
  <fix>3d</fix>
</trkpt>
<trkpt lat="-27.2734425" lon="151.2886206">
  <ele>373.7</ele>
  <time>2026-09-01T19:57:25Z</time>
  <course>107.32</course>
  <speed>19.53</speed>
  <fix>3d</fix>
</trkpt>
<trkpt lat="-27.2734526" lon="151.2886576">
  <ele>373.62</ele>
  <time>2026-09-01T19:57:25Z</time>
  <course>107.68</course>
  <speed>19.022944041341233</speed>
  <fix>3d</fix>
</trkpt>
<trkpt lat="-27.2734425" lon="151.2886206">
  <ele>373.7</ele>
  <time>2026-09-01T19:57:25Z</time>
  <course>107.32</course>
  <speed>19.53</speed>
  <fix>3d</fix>
</trkpt>
<trkpt lat="-27.2734576" lon="151.2886759">
  <ele>373.65</ele>
  <time>2026-09-01T19:57:25Z</time>
  <course>107.6</course>
  <speed>18.79284172231544</speed>
  <fix>3d</fix>
</trkpt>
<trkpt lat="-27.2734528" lon="151.2886578">
  <ele>373.77</ele>
  <time>2026-09-01T19:57:25Z</time>
  <course>107.13</course>
  <speed>19.03</speed>
  <fix>3d</fix>
</trkpt>
<trkpt lat="-27.2734625" lon="151.288694">
  <ele>373.67</ele>
  <time>2026-09-01T19:57:25Z</time>
  <course>107.52</course>
  <speed>18.56571302158902</speed>
  <fix>3d</fix>
</trkpt>
<trkpt lat="-27.2734528" lon="151.2886578">
  <ele>373.77</ele>
  <time>2026-09-01T19:57:25Z</time>
  <course>107.13</course>
  <speed>19.03</speed>
  <fix>3d</fix>
</trkpt>
<trkpt lat="-27.2734674" lon="151.2887119">
  <ele>373.69</ele>
  <time>2026-09-01T19:57:25Z</time>
  <course>107.45</course>
  <speed>18.341521201906893</speed>
  <fix>3d</fix>
</trkpt>
<trkpt lat="-27.2734627" lon="151.2886942">
  <ele>373.82</ele>
  <time>2026-09-01T19:57:25Z</time>
  <course>106.96</course>
  <speed>18.57</speed>
  <fix>3d</fix>
</trkpt>
<trkpt lat="-27.2734722" lon="151.2887296">
  <ele>373.7</ele>
  <time>2026-09-01T19:57:25Z</time>
  <course>107.39</course>
  <speed>18.136485326545493</speed>
  <fix>3d</fix>
</trkpt>
<trkpt lat="-27.2734627" lon="151.2886942">
  <ele>373.82</ele>
  <time>2026-09-01T19:57:25Z</time>
  <course>106.96</course>
  <speed>18.57</speed>
  <fix>3d</fix>
</trkpt>
<trkpt lat="-27.2734768" lon="151.288747">
  <ele>373.71</ele>
  <time>2026-09-01T19:57:25Z</time>
  <course>107.33</course>
  <speed>17.934360875146904</speed>
  <fix>3d</fix>
</trkpt>
<trkpt lat="-27.2734723" lon="151.2887296">
  <ele>373.84</ele>
  <time>2026-09-01T19:57:25Z</time>
  <course>106.83</course>
  <speed>18.13</speed>
  <fix>3d</fix>
</trkpt>
<trkpt lat="-27.2734815" lon="151.2887643">
  <ele>373.71</ele>
  <time>2026-09-01T19:57:25Z</time>
  <course>107.28</course>
  <speed>17.7293654708791</speed>
  <fix>3d</fix>
</trkpt>
<trkpt lat="-27.2734723" lon="151.2887296">
  <ele>373.84</ele>
  <time>2026-09-01T19:57:25Z</time>
  <course>106.83</course>
  <speed>18.13</speed>
  <fix>3d</fix>
</trkpt>
<trkpt lat="-27.2734861" lon="151.2887814">
  <ele>373.71</ele>
  <time>2026-09-01T19:57:25Z</time>
  <course>107.23</course>
  <speed>17.539714934969723</speed>
  <fix>3d</fix>
</trkpt>
<trkpt lat="-27.2734815" lon="151.2887643">
  <ele>373.85</ele>
  <time>2026-09-01T19:57:25Z</time>
  <course>106.72</course>
  <speed>17.72</speed>
  <fix>3d</fix>
</trkpt>
<trkpt lat="-27.2734906" lon="151.2887984">
  <ele>373.7</ele>
  <time>2026-09-01T19:57:25Z</time>
  <course>107.17</course>
  <speed>17.34719862110306</speed>
  <fix>3d</fix>
</trkpt>
<trkpt lat="-27.2734815" lon="151.2887643">
  <ele>373.85</ele>
  <time>2026-09-01T19:57:25Z</time>
  <course>106.72</course>
  <speed>17.72</speed>
  <fix>3d</fix>
</trkpt>
<trkpt lat="-27.2734951" lon="151.2888153">
  <ele>373.69</ele>
  <time>2026-09-01T19:57:25Z</time>
  <course>107.12</course>
  <speed>17.167137210379604</speed>
  <fix>3d</fix>
</trkpt>
<trkpt lat="-27.2734906" lon="151.2887983">
  <ele>373.84</ele>
  <time>2026-09-01T19:57:25Z</time>
  <course>106.62</course>
  <speed>17.33</speed>
  <fix>3d</fix>
</trkpt>
<trkpt lat="-27.2734995" lon="151.2888319">
  <ele>373.67</ele>
  <time>2026-09-01T19:57:25Z</time>
  <course>107.07</course>
  <speed>16.9870803848101</speed>
  <fix>3d</fix>
</trkpt>
<trkpt lat="-27.2734906" lon="151.2887983">
  <ele>373.84</ele>
  <time>2026-09-01T19:57:25Z</time>
  <course>106.62</course>
  <speed>17.33</speed>
  <fix>3d</fix>
</trkpt>
<trkpt lat="-27.2735038" lon="151.2888483">
  <ele>373.65</ele>
  <time>2026-09-01T19:57:25Z</time>
  <course>107.02</course>
  <speed>16.816613808968796</speed>
  <fix>3d</fix>
</trkpt>
<trkpt lat="-27.2734994" lon="151.2888314">
  <ele>373.81</ele>
  <time>2026-09-01T19:57:25Z</time>
  <course>106.54</course>
  <speed>16.97</speed>
  <fix>3d</fix>
</trkpt>
<trkpt lat="-27.2735081" lon="151.2888646">
  <ele>373.62</ele>
  <time>2026-09-01T19:57:25Z</time>
  <course>106.98</course>
  <speed>16.65574375403272</speed>
  <fix>3d</fix>
</trkpt>
<trkpt lat="-27.2734994" lon="151.2888314">
  <ele>373.81</ele>
  <time>2026-09-01T19:57:25Z</time>
  <course>106.54</course>
  <speed>16.97</speed>
  <fix>3d</fix>
</trkpt>
<trkpt lat="-27.2735123" lon="151.2888807">
  <ele>373.58</ele>
  <time>2026-09-01T19:57:25Z</time>
  <course>106.94</course>
  <speed>16.497721054739653</speed>
  <fix>3d</fix>
</trkpt>
<trkpt lat="-27.2735079" lon="151.288864">
  <ele>373.76</ele>
  <time>2026-09-01T19:57:25Z</time>
  <course>106.47</course>
  <speed>16.63</speed>
  <fix>3d</fix>
</trkpt>
<trkpt lat="-27.2735165" lon="151.2888966">
  <ele>373.53</ele>
  <time>2026-09-01T19:57:25Z</time>
  <course>106.91</course>
  <speed>16.349290504483672</speed>
  <fix>3d</fix>
</trkpt>
<trkpt lat="-27.2735079" lon="151.288864">
  <ele>373.76</ele>
  <time>2026-09-01T19:57:25Z</time>
  <course>106.47</course>
  <speed>16.63</speed>
  <fix>3d</fix>
</trkpt>
<trkpt lat="-27.2735207" lon="151.2889124">
  <ele>373.48</ele>
  <time>2026-09-01T19:57:25Z</time>
  <course>106.87</course>
  <speed>16.20086417448156</speed>
  <fix>3d</fix>
</trkpt>
<trkpt lat="-27.2735163" lon="151.288896">
  <ele>373.67</ele>
  <time>2026-09-01T19:57:25Z</time>
  <course>106.4</course>
  <speed>16.32</speed>
  <fix>3d</fix>
</trkpt>
<trkpt lat="-27.2735247" lon="151.2889281">
  <ele>373.41</ele>
  <time>2026-09-01T19:57:25Z</time>
  <course>106.82</course>
  <speed>16.0744517791432</speed>
  <fix>3d</fix>
</trkpt>
<trkpt lat="-27.2735163" lon="151.288896">
  <ele>373.67</ele>
  <time>2026-09-01T19:57:25Z</time>
  <course>106.4</course>
  <speed>16.32</speed>
  <fix>3d</fix>
</trkpt>
<trkpt lat="-27.2735288" lon="151.2889436">
  <ele>373.34</ele>
  <time>2026-09-01T19:57:25Z</time>
  <course>106.79</course>
  <speed>15.945221854837893</speed>
  <fix>3d</fix>
</trkpt>
<trkpt lat="-27.2735245" lon="151.2889273">
  <ele>373.55</ele>
  <time>2026-09-01T19:57:25Z</time>
  <course>106.33</course>
  <speed>16.04</speed>
  <fix>3d</fix>
</trkpt>
<trkpt lat="-27.2735328" lon="151.2889591">
  <ele>373.26</ele>
  <time>2026-09-01T19:57:25Z</time>
  <course>106.75</course>
  <speed>15.818814747003014</speed>
  <fix>3d</fix>
</trkpt>
<trkpt lat="-27.2735245" lon="151.2889273">
  <ele>373.55</ele>
  <time>2026-09-01T19:57:25Z</time>
  <course>106.33</course>
  <speed>16.04</speed>
  <fix>3d</fix>
</trkpt>
<trkpt lat="-27.2735368" lon="151.2889744">
  <ele>373.17</ele>
  <time>2026-09-01T19:57:25Z</time>
  <course>106.71</course>
  <speed>15.711603991954483</speed>
  <fix>3d</fix>
</trkpt>
<trkpt lat="-27.2735326" lon="151.2889583">
  <ele>373.4</ele>
  <time>2026-09-01T19:57:25Z</time>
  <course>106.27</course>
  <speed>15.79</speed>
  <fix>3d</fix>
</trkpt>
<trkpt lat="-27.2735407" lon="151.2889896">
  <ele>373.07</ele>
  <time>2026-09-01T19:57:25Z</time>
  <course>106.68</course>
  <speed>15.607203465067021</speed>
  <fix>3d</fix>
</trkpt>
<trkpt lat="-27.2735326" lon="151.2889583">
  <ele>373.4</ele>
  <time>2026-09-01T19:57:25Z</time>
  <course>106.27</course>
  <speed>15.79</speed>
  <fix>3d</fix>
</trkpt>
<trkpt lat="-27.2735446" lon="151.2890047">
  <ele>372.97</ele>
  <time>2026-09-01T19:57:25Z</time>
  <course>106.65</course>
  <speed>15.5</speed>
  <fix>3d</fix>
</trkpt>
<trkpt lat="-27.2735405" lon="151.2889887">
  <ele>373.21</ele>
  <time>2026-09-01T19:57:25Z</time>
  <course>106.21</course>
  <speed>15.57</speed>
  <fix>3d</fix>
</trkpt>
<trkpt lat="-27.2735485" lon="151.2890197">
  <ele>372.86</ele>
  <time>2026-09-01T19:57:25Z</time>
  <course>106.61</course>
  <speed>15.40520042063718</speed>
  <fix>3d</fix>
</trkpt>
<trkpt lat="-27.2735405" lon="151.2889887">
  <ele>373.21</ele>
  <time>2026-09-01T19:57:25Z</time>
  <course>106.21</course>
  <speed>15.57</speed>
  <fix>3d</fix>
</trkpt>
<trkpt lat="-27.2735524" lon="151.2890346">
  <ele>372.75</ele>
  <time>2026-09-01T19:57:25Z</time>
  <course>106.57</course>
  <speed>15.317212540145809</speed>
  <fix>3d</fix>
</trkpt>
<trkpt lat="-27.2735482" lon="151.2890188">
  <ele>373.0</ele>
  <time>2026-09-01T19:57:25Z</time>
  <course>106.14</course>
  <speed>15.38</speed>
  <fix>3d</fix>
</trkpt>
<trkpt lat="-27.2735562" lon="151.2890494">
  <ele>372.64</ele>
  <time>2026-09-01T19:57:25Z</time>
  <course>106.53</course>
  <speed>15.232022190109888</speed>
  <fix>3d</fix>
</trkpt>
<trkpt lat="-27.2735482" lon="151.2890188">
  <ele>373.0</ele>
  <time>2026-09-01T19:57:25Z</time>
  <course>106.14</course>
  <speed>15.38</speed>
  <fix>3d</fix>
</trkpt>
<trkpt lat="-27.27356" lon="151.2890641">
  <ele>372.53</ele>
  <time>2026-09-01T19:57:25Z</time>
  <course>106.48</course>
  <speed>15.146834652824332</speed>
  <fix>3d</fix>
</trkpt>
<trkpt lat="-27.2735558" lon="151.2890484">
  <ele>372.78</ele>
  <time>2026-09-01T19:57:25Z</time>
  <course>106.07</course>
  <speed>15.2</speed>
  <fix>3d</fix>
</trkpt>
<trkpt lat="-27.2735637" lon="151.2890788">
  <ele>372.43</ele>
  <time>2026-09-01T19:57:25Z</time>
  <course>106.44</course>
  <speed>15.061649976015245</speed>
  <fix>3d</fix>
</trkpt>
<trkpt lat="-27.2735558" lon="151.2890484">
  <ele>372.78</ele>
  <time>2026-09-01T19:57:25Z</time>
  <course>106.07</course>
  <speed>15.2</speed>
  <fix>3d</fix>
</trkpt>
<trkpt lat="-27.2735674" lon="151.2890934">
  <ele>372.34</ele>
  <time>2026-09-01T19:57:25Z</time>
  <course>106.4</course>
  <speed>14.986076871549805</speed>
  <fix>3d</fix>
</trkpt>
<trkpt lat="-27.2735633" lon="151.2890779">
  <ele>372.57</ele>
  <time>2026-09-01T19:57:25Z</time>
  <course>106.0</course>
  <speed>15.04</speed>
  <fix>3d</fix>
</trkpt>
<trkpt lat="-27.2735711" lon="151.2891078">
  <ele>372.25</ele>
  <time>2026-09-01T19:57:25Z</time>
  <course>106.36</course>
  <speed>14.900899301720015</speed>
  <fix>3d</fix>
</trkpt>
<trkpt lat="-27.2735633" lon="151.2890779">
  <ele>372.57</ele>
  <time>2026-09-01T19:57:25Z</time>
  <course>106.0</course>
  <speed>15.04</speed>
  <fix>3d</fix>
</trkpt>
<trkpt lat="-27.2735748" lon="151.2891222">
  <ele>372.17</ele>
  <time>2026-09-01T19:57:25Z</time>
  <course>106.33</course>
  <speed>14.81572475446274</speed>
  <fix>3d</fix>
</trkpt>
<trkpt lat="-27.2735707" lon="151.2891069">
  <ele>372.38</ele>
  <time>2026-09-01T19:57:25Z</time>
  <course>105.94</course>
  <speed>14.88</speed>
  <fix>3d</fix>
</trkpt>
<trkpt lat="-27.2735784" lon="151.2891365">
  <ele>372.09</ele>
  <time>2026-09-01T19:57:25Z</time>
  <course>106.29</course>
  <speed>14.730553282209057</speed>
  <fix>3d</fix>
</trkpt>
<trkpt lat="-27.2735707" lon="151.2891069">
  <ele>372.38</ele>
  <time>2026-09-01T19:57:25Z</time>
  <course>105.94</course>
  <speed>14.88</speed>
  <fix>3d</fix>
</trkpt>
<trkpt lat="-27.273582" lon="151.2891507">
  <ele>372.03</ele>
  <time>2026-09-01T19:57:25Z</time>
  <course>106.26</course>
  <speed>14.645384938607792</speed>
  <fix>3d</fix>
</trkpt>
<trkpt lat="-27.273578" lon="151.2891357">
  <ele>372.23</ele>
  <time>2026-09-01T19:57:25Z</time>
  <course>105.87</course>
  <speed>14.72</speed>
  <fix>3d</fix>
</trkpt>
<trkpt lat="-27.2735856" lon="151.2891648">
  <ele>371.97</ele>
  <time>2026-09-01T19:57:25Z</time>
  <course>106.24</course>
  <speed>14.562970164083975</speed>
  <fix>3d</fix>
</trkpt>
<trkpt lat="-27.273578" lon="151.2891357">
  <ele>372.23</ele>
  <time>2026-09-01T19:57:25Z</time>
  <course>105.87</course>
  <speed>14.72</speed>
  <fix>3d</fix>
</trkpt>
<trkpt lat="-27.2735891" lon="151.2891789">
  <ele>371.92</ele>
  <time>2026-09-01T19:57:25Z</time>
  <course>106.21</course>
  <speed>14.47780370083805</speed>
  <fix>3d</fix>
</trkpt>
<trkpt lat="-27.2735852" lon="151.2891641">
  <ele>372.11</ele>
  <time>2026-09-01T19:57:25Z</time>
  <course>105.82</course>
  <speed>14.56</speed>
  <fix>3d</fix>
</trkpt>
<trkpt lat="-27.2735926" lon="151.2891928">
  <ele>371.89</ele>
  <time>2026-09-01T19:57:25Z</time>
  <course>106.19</course>
  <speed>14.392640480467787</speed>
  <fix>3d</fix>
</trkpt>
<trkpt lat="-27.2735852" lon="151.2891641">
  <ele>372.11</ele>
  <time>2026-09-01T19:57:25Z</time>
  <course>105.82</course>
  <speed>14.56</speed>
  <fix>3d</fix>
</trkpt>
<trkpt lat="-27.2735961" lon="151.2892067">
  <ele>371.86</ele>
  <time>2026-09-01T19:57:25Z</time>
  <course>106.17</course>
  <speed>14.307480560881428</speed>
  <fix>3d</fix>
</trkpt>
<trkpt lat="-27.2735923" lon="151.2891923">
  <ele>372.02</ele>
  <time>2026-09-01T19:57:25Z</time>
  <course>105.77</course>
  <speed>14.4</speed>
  <fix>3d</fix>
</trkpt>
<trkpt lat="-27.2735996" lon="151.2892205">
  <ele>371.84</ele>
  <time>2026-09-01T19:57:25Z</time>
  <course>106.16</course>
  <speed>14.225062390021353</speed>
  <fix>3d</fix>
</trkpt>
<trkpt lat="-27.2735923" lon="151.2891923">
  <ele>372.02</ele>
  <time>2026-09-01T19:57:25Z</time>
  <course>105.77</course>
  <speed>14.4</speed>
  <fix>3d</fix>
</trkpt>
<trkpt lat="-27.2736031" lon="151.2892343">
  <ele>371.82</ele>
  <time>2026-09-01T19:57:25Z</time>
  <course>106.14</course>
  <speed>14.139904525844578</speed>
  <fix>3d</fix>
</trkpt>
<trkpt lat="-27.2735993" lon="151.2892202">
  <ele>371.97</ele>
  <time>2026-09-01T19:57:25Z</time>
  <course>105.73</course>
  <speed>14.24</speed>
  <fix>3d</fix>
</trkpt>
<trkpt lat="-27.2736065" lon="151.2892479">
  <ele>371.81</ele>
  <time>2026-09-01T19:57:25Z</time>
  <course>106.13</course>
  <speed>14.054750086714455</speed>
  <fix>3d</fix>
</trkpt>
<trkpt lat="-27.2735993" lon="151.2892202">
  <ele>371.97</ele>
  <time>2026-09-01T19:57:25Z</time>
  <course>105.73</course>
  <speed>14.24</speed>
  <fix>3d</fix>
</trkpt>
<trkpt lat="-27.2736099" lon="151.2892615">
  <ele>371.81</ele>
  <time>2026-09-01T19:57:25Z</time>
  <course>106.12</course>
  <speed>13.972329798569742</speed>
  <fix>3d</fix>
</trkpt>
<trkpt lat="-27.2736062" lon="151.2892479">
  <ele>371.94</ele>
  <time>2026-09-01T19:57:25Z</time>
  <course>105.7</course>
  <speed>14.08</speed>
  <fix>3d</fix>
</trkpt>
<trkpt lat="-27.2736133" lon="151.2892751">
  <ele>371.81</ele>
  <time>2026-09-01T19:57:25Z</time>
  <course>106.11</course>
  <speed>13.87755742196731</speed>
  <fix>3d</fix>
</trkpt>
<trkpt lat="-27.2736062" lon="151.2892479">
  <ele>371.94</ele>
  <time>2026-09-01T19:57:25Z</time>
  <course>105.7</course>
  <speed>14.08</speed>
  <fix>3d</fix>
</trkpt>
<trkpt lat="-27.2736166" lon="151.2892885">
  <ele>371.82</ele>
  <time>2026-09-01T19:57:25Z</time>
  <course>106.1</course>
  <speed>13.795136824258034</speed>
  <fix>3d</fix>
</trkpt>
<trkpt lat="-27.273613" lon="151.2892751">
  <ele>371.94</ele>
  <time>2026-09-01T19:57:25Z</time>
  <course>105.67</course>
  <speed>13.91</speed>
  <fix>3d</fix>
</trkpt>
<trkpt lat="-27.27362" lon="151.2893019">
  <ele>371.83</ele>
  <time>2026-09-01T19:57:25Z</time>
  <course>106.1</course>
  <speed>13.709985412100188</speed>
  <fix>3d</fix>
</trkpt>
<trkpt lat="-27.273613" lon="151.2892751">
  <ele>371.94</ele>
  <time>2026-09-01T19:57:25Z</time>
  <course>105.67</course>
  <speed>13.91</speed>
  <fix>3d</fix>
</trkpt>
<trkpt lat="-27.2736233" lon="151.2893152">
  <ele>371.84</ele>
  <time>2026-09-01T19:57:25Z</time>
  <course>106.09</course>
  <speed>13.627563978936221</speed>
  <fix>3d</fix>
</trkpt>
<trkpt lat="-27.2736197" lon="151.289302">
  <ele>371.95</ele>
  <time>2026-09-01T19:57:25Z</time>
  <course>105.65</course>
  <speed>13.75</speed>
  <fix>3d</fix>
</trkpt>
<trkpt lat="-27.2736266" lon="151.2893284">
  <ele>371.86</ele>
  <time>2026-09-01T19:57:25Z</time>
  <course>106.09</course>
  <speed>13.532793503190685</speed>
  <fix>3d</fix>
</trkpt>
<trkpt lat="-27.2736197" lon="151.289302">
  <ele>371.95</ele>
  <time>2026-09-01T19:57:25Z</time>
  <course>105.65</course>
  <speed>13.75</speed>
  <fix>3d</fix>
</trkpt>
<trkpt lat="-27.2736299" lon="151.2893415">
  <ele>371.88</ele>
  <time>2026-09-01T19:57:25Z</time>
  <course>106.09</course>
  <speed>13.45037174207464</speed>
  <fix>3d</fix>
</trkpt>
<trkpt lat="-27.2736263" lon="151.2893285">
  <ele>371.97</ele>
  <time>2026-09-01T19:57:25Z</time>
  <course>105.63</course>
  <speed>13.58</speed>
  <fix>3d</fix>
</trkpt>
<trkpt lat="-27.2736331" lon="151.2893546">
  <ele>371.9</ele>
  <time>2026-09-01T19:57:25Z</time>
  <course>106.09</course>
  <speed>13.355601820958874</speed>
  <fix>3d</fix>
</trkpt>
<trkpt lat="-27.2736263" lon="151.2893285">
  <ele>371.97</ele>
  <time>2026-09-01T19:57:25Z</time>
  <course>105.63</course>
  <speed>13.58</speed>
  <fix>3d</fix>
</trkpt>
<trkpt lat="-27.2736363" lon="151.2893675">
  <ele>371.92</ele>
  <time>2026-09-01T19:57:25Z</time>
  <course>106.09</course>
  <speed>13.27045590776745</speed>
  <fix>3d</fix>
</trkpt>
<trkpt lat="-27.2736328" lon="151.2893548">
  <ele>372.02</ele>
  <time>2026-09-01T19:57:25Z</time>
  <course>105.62</course>
  <speed>13.4</speed>
  <fix>3d</fix>
</trkpt>
<trkpt lat="-27.2736395" lon="151.2893804">
  <ele>371.94</ele>
  <time>2026-09-01T19:57:25Z</time>
  <course>106.09</course>
  <speed>13.178410374548214</speed>
  <fix>3d</fix>
</trkpt>
<trkpt lat="-27.2736328" lon="151.2893548">
  <ele>372.02</ele>
  <time>2026-09-01T19:57:25Z</time>
  <course>105.62</course>
  <speed>13.4</speed>
  <fix>3d</fix>
</trkpt>
<trkpt lat="-27.2736427" lon="151.2893932">
  <ele>371.97</ele>
  <time>2026-09-01T19:57:25Z</time>
  <course>106.09</course>
  <speed>13.083642459193081</speed>
  <fix>3d</fix>
</trkpt>
<trkpt lat="-27.2736393" lon="151.2893808">
  <ele>372.06</ele>
  <time>2026-09-01T19:57:25Z</time>
  <course>105.62</course>
  <speed>13.23</speed>
  <fix>3d</fix>
</trkpt>
<trkpt lat="-27.2736459" lon="151.2894059">
  <ele>371.99</ele>
  <time>2026-09-01T19:57:25Z</time>
  <course>106.1</course>
  <speed>12.991597284398868</speed>
  <fix>3d</fix>
</trkpt>
<trkpt lat="-27.2736393" lon="151.2893808">
  <ele>372.06</ele>
  <time>2026-09-01T19:57:25Z</time>
  <course>105.62</course>
  <speed>13.23</speed>
  <fix>3d</fix>
</trkpt>
<trkpt lat="-27.273649" lon="151.2894184">
  <ele>372.02</ele>
  <time>2026-09-01T19:57:25Z</time>
  <course>106.1</course>
  <speed>12.896829067642946</speed>
  <fix>3d</fix>
</trkpt>
<trkpt lat="-27.2736456" lon="151.2894064">
  <ele>372.11</ele>
  <time>2026-09-01T19:57:25Z</time>
  <course>105.62</course>
  <speed>13.04</speed>
  <fix>3d</fix>
</trkpt>
<trkpt lat="-27.2736521" lon="151.289431">
  <ele>372.04</ele>
  <time>2026-09-01T19:57:25Z</time>
  <course>106.11</course>
  <speed>12.804784262142023</speed>
  <fix>3d</fix>
</trkpt>
<trkpt lat="-27.2736456" lon="151.2894064">
  <ele>372.11</ele>
  <time>2026-09-01T19:57:25Z</time>
  <course>105.62</course>
  <speed>13.04</speed>
  <fix>3d</fix>
</trkpt>
<trkpt lat="-27.2736552" lon="151.2894434">
  <ele>372.07</ele>
  <time>2026-09-01T19:57:25Z</time>
  <course>106.12</course>
  <speed>12.700393694685218</speed>
  <fix>3d</fix>
</trkpt>
<trkpt lat="-27.2736519" lon="151.2894316">
  <ele>372.16</ele>
  <time>2026-09-01T19:57:25Z</time>
  <course>105.62</course>
  <speed>12.85</speed>
  <fix>3d</fix>
</trkpt>
<trkpt lat="-27.2736583" lon="151.289456">
  <ele>372.09</ele>
  <time>2026-09-01T19:57:25Z</time>
  <course>106.12</course>
  <speed>12.605625728221508</speed>
  <fix>3d</fix>
</trkpt>
<trkpt lat="-27.2736519" lon="151.2894316">
  <ele>372.16</ele>
  <time>2026-09-01T19:57:25Z</time>
  <course>105.62</course>
  <speed>12.85</speed>
  <fix>3d</fix>
</trkpt>
<trkpt lat="-27.2736614" lon="151.2894683">
  <ele>372.12</ele>
  <time>2026-09-01T19:57:25Z</time>
  <course>106.13</course>
  <speed>12.50395937293464</speed>
  <fix>3d</fix>
</trkpt>
<trkpt lat="-27.2736581" lon="151.2894564">
  <ele>372.21</ele>
  <time>2026-09-01T19:57:25Z</time>
  <course>105.62</course>
  <speed>12.66</speed>
  <fix>3d</fix>
</trkpt>
<trkpt lat="-27.2736644" lon="151.2894804">
  <ele>372.14</ele>
  <time>2026-09-01T19:57:25Z</time>
  <course>106.14</course>
  <speed>12.399568540880766</speed>
  <fix>3d</fix>
</trkpt>
<trkpt lat="-27.2736581" lon="151.2894564">
  <ele>372.21</ele>
  <time>2026-09-01T19:57:25Z</time>
  <course>105.62</course>
  <speed>12.66</speed>
  <fix>3d</fix>
</trkpt>
<trkpt lat="-27.2736674" lon="151.2894925">
  <ele>372.17</ele>
  <time>2026-09-01T19:57:25Z</time>
  <course>106.15</course>
  <speed>12.285556560449347</speed>
  <fix>3d</fix>
</trkpt>
<trkpt lat="-27.2736642" lon="151.2894808">
  <ele>372.25</ele>
  <time>2026-09-01T19:57:25Z</time>
  <course>105.63</course>
  <speed>12.45</speed>
  <fix>3d</fix>
</trkpt>
<trkpt lat="-27.2736703" lon="151.2895044">
  <ele>372.19</ele>
  <time>2026-09-01T19:57:25Z</time>
  <course>106.16</course>
  <speed>12.159198164352778</speed>
  <fix>3d</fix>
</trkpt>
<trkpt lat="-27.2736642" lon="151.2894808">
  <ele>372.25</ele>
  <time>2026-09-01T19:57:25Z</time>
  <course>105.63</course>
  <speed>12.45</speed>
  <fix>3d</fix>
</trkpt>
<trkpt lat="-27.2736733" lon="151.2895162">
  <ele>372.22</ele>
  <time>2026-09-01T19:57:25Z</time>
  <course>106.17</course>
  <speed>12.035563966844263</speed>
  <fix>3d</fix>
</trkpt>
<trkpt lat="-27.2736701" lon="151.2895049">
  <ele>372.31</ele>
  <time>2026-09-01T19:57:25Z</time>
  <course>105.63</course>
  <speed>12.22</speed>
  <fix>3d</fix>
</trkpt>
<trkpt lat="-27.2736762" lon="151.2895279">
  <ele>372.25</ele>
  <time>2026-09-01T19:57:25Z</time>
  <course>106.18</course>
  <speed>11.911930993755798</speed>
  <fix>3d</fix>
</trkpt>
<trkpt lat="-27.2736701" lon="151.2895049">
  <ele>372.31</ele>
  <time>2026-09-01T19:57:25Z</time>
  <course>105.63</course>
  <speed>12.22</speed>
  <fix>3d</fix>
</trkpt>
<trkpt lat="-27.2736791" lon="151.2895395">
  <ele>372.28</ele>
  <time>2026-09-01T19:57:25Z</time>
  <course>106.19</course>
  <speed>11.766329079198831</speed>
  <fix>3d</fix>
</trkpt>
<trkpt lat="-27.273676" lon="151.2895284">
  <ele>372.37</ele>
  <time>2026-09-01T19:57:25Z</time>
  <course>105.65</course>
  <speed>11.96</speed>
  <fix>3d</fix>
</trkpt>
<trkpt lat="-27.2736819" lon="151.2895509">
  <ele>372.31</ele>
  <time>2026-09-01T19:57:25Z</time>
  <course>106.2</course>
  <speed>11.630348232103799</speed>
  <fix>3d</fix>
</trkpt>
<trkpt lat="-27.273676" lon="151.2895284">
  <ele>372.37</ele>
  <time>2026-09-01T19:57:25Z</time>
  <course>105.65</course>
  <speed>11.96</speed>
  <fix>3d</fix>
</trkpt>
<trkpt lat="-27.2736847" lon="151.2895622">
  <ele>372.34</ele>
  <time>2026-09-01T19:57:25Z</time>
  <course>106.21</course>
  <speed>11.487475788875464</speed>
  <fix>3d</fix>
</trkpt>
<trkpt lat="-27.2736817" lon="151.2895514">
  <ele>372.43</ele>
  <time>2026-09-01T19:57:25Z</time>
  <course>105.66</course>
  <speed>11.69</speed>
  <fix>3d</fix>
</trkpt>
<trkpt lat="-27.2736875" lon="151.2895733">
  <ele>372.36</ele>
  <time>2026-09-01T19:57:25Z</time>
  <course>106.22</course>
  <speed>11.351493293835837</speed>
  <fix>3d</fix>
</trkpt>
<trkpt lat="-27.2736817" lon="151.2895514">
  <ele>372.43</ele>
  <time>2026-09-01T19:57:25Z</time>
  <course>105.66</course>
  <speed>11.69</speed>
  <fix>3d</fix>
</trkpt>
<trkpt lat="-27.2736902" lon="151.2895844">
  <ele>372.39</ele>
  <time>2026-09-01T19:57:25Z</time>
  <course>106.23</course>
  <speed>11.205891307700606</speed>
  <fix>3d</fix>
</trkpt>
<trkpt lat="-27.2736873" lon="151.2895739">
  <ele>372.48</ele>
  <time>2026-09-01T19:57:25Z</time>
  <course>105.67</course>
  <speed>11.41</speed>
  <fix>3d</fix>
</trkpt>
<trkpt lat="-27.2736929" lon="151.2895952">
  <ele>372.41</ele>
  <time>2026-09-01T19:57:25Z</time>
  <course>106.24</course>
  <speed>11.060289327137875</speed>
  <fix>3d</fix>
</trkpt>
<trkpt lat="-27.2736873" lon="151.2895739">
  <ele>372.48</ele>
  <time>2026-09-01T19:57:25Z</time>
  <course>105.67</course>
  <speed>11.41</speed>
  <fix>3d</fix>
</trkpt>
<trkpt lat="-27.2736956" lon="151.289606">
  <ele>372.44</ele>
  <time>2026-09-01T19:57:25Z</time>
  <course>106.25</course>
  <speed>10.914687352370658</speed>
  <fix>3d</fix>
</trkpt>
<trkpt lat="-27.2736928" lon="151.2895959">
  <ele>372.53</ele>
  <time>2026-09-01T19:57:25Z</time>
  <course>105.69</course>
  <speed>11.12</speed>
  <fix>3d</fix>
</trkpt>
<trkpt lat="-27.2736983" lon="151.2896166">
  <ele>372.46</ele>
  <time>2026-09-01T19:57:25Z</time>
  <course>106.26</course>
  <speed>10.769085383634026</speed>
  <fix>3d</fix>
</trkpt>
<trkpt lat="-27.2736928" lon="151.2895959">
  <ele>372.53</ele>
  <time>2026-09-01T19:57:25Z</time>
  <course>105.69</course>
  <speed>11.12</speed>
  <fix>3d</fix>
</trkpt>
<trkpt lat="-27.2737009" lon="151.289627">
  <ele>372.47</ele>
  <time>2026-09-01T19:57:25Z</time>
  <course>106.27</course>
  <speed>10.63583565123117</speed>
  <fix>3d</fix>
</trkpt>
<trkpt lat="-27.2736981" lon="151.2896172">
  <ele>372.58</ele>
  <time>2026-09-01T19:57:25Z</time>
  <course>105.7</course>
  <speed>10.83</speed>
  <fix>3d</fix>
</trkpt>
<trkpt lat="-27.2737034" lon="151.2896374">
  <ele>372.48</ele>
  <time>2026-09-01T19:57:25Z</time>
  <course>106.28</course>
  <speed>10.49023355316744</speed>
  <fix>3d</fix>
</trkpt>
<trkpt lat="-27.2736981" lon="151.2896172">
  <ele>372.58</ele>
  <time>2026-09-01T19:57:25Z</time>
  <course>105.7</course>
  <speed>10.83</speed>
  <fix>3d</fix>
</trkpt>
<trkpt lat="-27.273706" lon="151.2896476">
  <ele>372.49</ele>
  <time>2026-09-01T19:57:25Z</time>
  <course>106.28</course>
  <speed>10.344631457910909</speed>
  <fix>3d</fix>
</trkpt>
<trkpt lat="-27.2737034" lon="151.289638">
  <ele>372.61</ele>
  <time>2026-09-01T19:57:25Z</time>
  <course>105.72</course>
  <speed>10.55</speed>
  <fix>3d</fix>
</trkpt>
<trkpt lat="-27.2737085" lon="151.2896575">
  <ele>372.51</ele>
  <time>2026-09-01T19:57:25Z</time>
  <course>106.28</course>
  <speed>10.199029365581804</speed>
  <fix>3d</fix>
</trkpt>
<trkpt lat="-27.2737034" lon="151.289638">
  <ele>372.61</ele>
  <time>2026-09-01T19:57:25Z</time>
  <course>105.72</course>
  <speed>10.55</speed>
  <fix>3d</fix>
</trkpt>
<trkpt lat="-27.273711" lon="151.2896674">
  <ele>372.52</ele>
  <time>2026-09-01T19:57:25Z</time>
  <course>106.29</course>
  <speed>10.05342727630732</speed>
  <fix>3d</fix>
</trkpt>
<trkpt lat="-27.2737085" lon="151.2896582">
  <ele>372.63</ele>
  <time>2026-09-01T19:57:25Z</time>
  <course>105.73</course>
  <speed>10.26</speed>
  <fix>3d</fix>
</trkpt>
<trkpt lat="-27.2737134" lon="151.2896772">
  <ele>372.54</ele>
  <time>2026-09-01T19:57:25Z</time>
  <course>106.3</course>
  <speed>9.888589383729107</speed>
  <fix>3d</fix>
</trkpt>
<trkpt lat="-27.2737085" lon="151.2896582">
  <ele>372.63</ele>
  <time>2026-09-01T19:57:25Z</time>
  <course>105.73</course>
  <speed>10.26</speed>
  <fix>3d</fix>
</trkpt>
<trkpt lat="-27.2737158" lon="151.2896868">
  <ele>372.56</ele>
  <time>2026-09-01T19:57:26Z</time>
  <course>106.3</course>
  <speed>9.721013321665597</speed>
  <fix>3d</fix>
</trkpt>
<trkpt lat="-27.2737134" lon="151.2896779">
  <ele>372.66</ele>
  <time>2026-09-01T19:57:26Z</time>
  <course>105.74</course>
  <speed>9.94</speed>
  <fix>3d</fix>
</trkpt>
<trkpt lat="-27.2737182" lon="151.2896963">
  <ele>372.59</ele>
  <time>2026-09-01T19:57:26Z</time>
  <course>106.31</course>
  <speed>9.556176013448058</speed>
  <fix>3d</fix>
</trkpt>
<trkpt lat="-27.2737134" lon="151.2896779">
  <ele>372.66</ele>
  <time>2026-09-01T19:57:26Z</time>
  <course>105.74</course>
  <speed>9.94</speed>
  <fix>3d</fix>
</trkpt>
<trkpt lat="-27.2737205" lon="151.2897056">
  <ele>372.62</ele>
  <time>2026-09-01T19:57:26Z</time>
  <course>106.32</course>
  <speed>9.37898182107205</speed>
  <fix>3d</fix>
</trkpt>
<trkpt lat="-27.2737181" lon="151.2896969">
  <ele>372.72</ele>
  <time>2026-09-01T19:57:26Z</time>
  <course>105.75</course>
  <speed>9.61</speed>
  <fix>3d</fix>
</trkpt>
<trkpt lat="-27.2737228" lon="151.2897147">
  <ele>372.65</ele>
  <time>2026-09-01T19:57:26Z</time>
  <course>106.32</course>
  <speed>9.19217058153296</speed>
  <fix>3d</fix>
</trkpt>
<trkpt lat="-27.2737181" lon="151.2896969">
  <ele>372.72</ele>
  <time>2026-09-01T19:57:26Z</time>
  <course>105.75</course>
  <speed>9.61</speed>
  <fix>3d</fix>
</trkpt>
<trkpt lat="-27.273725" lon="151.2897236">
  <ele>372.69</ele>
  <time>2026-09-01T19:57:26Z</time>
  <course>106.33</course>
  <speed>9.005359515310868</speed>
  <fix>3d</fix>
</trkpt>
<trkpt lat="-27.2737227" lon="151.2897153">
  <ele>372.78</ele>
  <time>2026-09-01T19:57:26Z</time>
  <course>105.76</course>
  <speed>9.25</speed>
  <fix>3d</fix>
</trkpt>
<trkpt lat="-27.2737272" lon="151.2897323">
  <ele>372.73</ele>
  <time>2026-09-01T19:57:26Z</time>
  <course>106.34</course>
  <speed>8.818548633420354</speed>
  <fix>3d</fix>
</trkpt>
<trkpt lat="-27.2737227" lon="151.2897153">
  <ele>372.78</ele>
  <time>2026-09-01T19:57:26Z</time>
  <course>105.76</course>
  <speed>9.25</speed>
  <fix>3d</fix>
</trkpt>
<trkpt lat="-27.2737293" lon="151.2897408">
  <ele>372.77</ele>
  <time>2026-09-01T19:57:26Z</time>
  <course>106.34</course>
  <speed>8.619379328002685</speed>
  <fix>3d</fix>
</trkpt>
<trkpt lat="-27.2737271" lon="151.289733">
  <ele>372.86</ele>
  <time>2026-09-01T19:57:26Z</time>
  <course>105.76</course>
  <speed>8.87</speed>
  <fix>3d</fix>
</trkpt>
<trkpt lat="-27.2737314" lon="151.2897493">
  <ele>372.81</ele>
  <time>2026-09-01T19:57:26Z</time>
  <course>106.35</course>
  <speed>8.432567817693494</speed>
  <fix>3d</fix>
</trkpt>
<trkpt lat="-27.2737271" lon="151.289733">
  <ele>372.86</ele>
  <time>2026-09-01T19:57:26Z</time>
  <course>105.76</course>
  <speed>8.87</speed>
  <fix>3d</fix>
</trkpt>
<trkpt lat="-27.2737335" lon="151.2897574">
  <ele>372.85</ele>
  <time>2026-09-01T19:57:26Z</time>
  <course>106.35</course>
  <speed>8.233401484198374</speed>
  <fix>3d</fix>
</trkpt>
<trkpt lat="-27.2737314" lon="151.2897499">
  <ele>372.95</ele>
  <time>2026-09-01T19:57:26Z</time>
  <course>105.76</course>
  <speed>8.48</speed>
  <fix>3d</fix>
</trkpt>
<trkpt lat="-27.2737355" lon="151.2897654">
  <ele>372.89</ele>
  <time>2026-09-01T19:57:26Z</time>
  <course>106.36</course>
  <speed>8.036970822393222</speed>
  <fix>3d</fix>
</trkpt>
<trkpt lat="-27.2737314" lon="151.2897499">
  <ele>372.95</ele>
  <time>2026-09-01T19:57:26Z</time>
  <course>105.76</course>
  <speed>8.48</speed>
  <fix>3d</fix>
</trkpt>
<trkpt lat="-27.2737374" lon="151.2897732">
  <ele>372.93</ele>
  <time>2026-09-01T19:57:26Z</time>
  <course>106.36</course>
  <speed>7.8405420730967315</speed>
  <fix>3d</fix>
</trkpt>
<trkpt lat="-27.2737354" lon="151.289766">
  <ele>373.03</ele>
  <time>2026-09-01T19:57:26Z</time>
  <course>105.76</course>
  <speed>8.08</speed>
  <fix>3d</fix>
</trkpt>
<trkpt lat="-27.2737393" lon="151.2897808">
  <ele>372.97</ele>
  <time>2026-09-01T19:57:26Z</time>
  <course>106.36</course>
  <speed>7.641374221957722</speed>
  <fix>3d</fix>
</trkpt>
<trkpt lat="-27.2737354" lon="151.289766">
  <ele>373.03</ele>
  <time>2026-09-01T19:57:26Z</time>
  <course>105.76</course>
  <speed>8.08</speed>
  <fix>3d</fix>
</trkpt>
<trkpt lat="-27.2737412" lon="151.2897882">
  <ele>373.0</ele>
  <time>2026-09-01T19:57:26Z</time>
  <course>106.37</course>
  <speed>7.444944593480867</speed>
  <fix>3d</fix>
</trkpt>
<trkpt lat="-27.2737393" lon="151.2897813">
  <ele>373.1</ele>
  <time>2026-09-01T19:57:26Z</time>
  <course>105.76</course>
  <speed>7.69</speed>
  <fix>3d</fix>
</trkpt>
<trkpt lat="-27.273743" lon="151.2897954">
  <ele>373.03</ele>
  <time>2026-09-01T19:57:26Z</time>
  <course>106.37</course>
  <speed>7.245778081062102</speed>
  <fix>3d</fix>
</trkpt>
<trkpt lat="-27.2737393" lon="151.2897813">
  <ele>373.1</ele>
  <time>2026-09-01T19:57:26Z</time>
  <course>105.76</course>
  <speed>7.69</speed>
  <fix>3d</fix>
</trkpt>
<trkpt lat="-27.2737447" lon="151.2898024">
  <ele>373.06</ele>
  <time>2026-09-01T19:57:26Z</time>
  <course>106.37</course>
  <speed>7.049347487533864</speed>
  <fix>3d</fix>
</trkpt>
<trkpt lat="-27.2737429" lon="151.2897959">
  <ele>373.16</ele>
  <time>2026-09-01T19:57:26Z</time>
  <course>105.75</course>
  <speed>7.29</speed>
  <fix>3d</fix>
</trkpt>
<trkpt lat="-27.2737464" lon="151.2898092">
  <ele>373.08</ele>
  <time>2026-09-01T19:57:26Z</time>
  <course>106.38</course>
  <speed>6.850182479321263</speed>
  <fix>3d</fix>
</trkpt>
<trkpt lat="-27.2737429" lon="151.2897959">
  <ele>373.16</ele>
  <time>2026-09-01T19:57:26Z</time>
  <course>105.75</course>
  <speed>7.29</speed>
  <fix>3d</fix>
</trkpt>
<trkpt lat="-27.2737481" lon="151.2898159">
  <ele>373.08</ele>
  <time>2026-09-01T19:57:26Z</time>
  <course>106.38</course>
  <speed>6.66337001824152</speed>
  <fix>3d</fix>
</trkpt>
<trkpt lat="-27.2737464" lon="151.2898097">
  <ele>373.2</ele>
  <time>2026-09-01T19:57:26Z</time>
  <course>105.74</course>
  <speed>6.9</speed>
  <fix>3d</fix>
</trkpt>
<trkpt lat="-27.2737497" lon="151.2898223">
  <ele>373.06</ele>
  <time>2026-09-01T19:57:26Z</time>
  <course>106.37</course>
  <speed>6.4545875158680746</speed>
  <fix>3d</fix>
</trkpt>
<trkpt lat="-27.2737464" lon="151.2898097">
  <ele>373.2</ele>
  <time>2026-09-01T19:57:26Z</time>
  <course>105.74</course>
  <speed>6.9</speed>
  <fix>3d</fix>
</trkpt>
<trkpt lat="-27.2737512" lon="151.2898284">
  <ele>372.97</ele>
  <time>2026-09-01T19:57:26Z</time>
  <course>106.39</course>
  <speed>6.100204914590985</speed>
  <fix>3d</fix>
</trkpt>
<trkpt lat="-27.2737496" lon="151.2898227">
  <ele>373.16</ele>
  <time>2026-09-01T19:57:26Z</time>
  <course>105.73</course>
  <speed>6.42</speed>
  <fix>3d</fix>
</trkpt>
<trkpt lat="-27.2737526" lon="151.2898342">
  <ele>372.83</ele>
  <time>2026-09-01T19:57:26Z</time>
  <course>106.44</course>
  <speed>5.609848482802366</speed>
  <fix>3d</fix>
</trkpt>
<trkpt lat="-27.2737496" lon="151.2898227">
  <ele>373.16</ele>
  <time>2026-09-01T19:57:26Z</time>
  <course>105.73</course>
  <speed>6.42</speed>
  <fix>3d</fix>
</trkpt>
<trkpt lat="-27.2737539" lon="151.2898394">
  <ele>372.66</ele>
  <time>2026-09-01T19:57:26Z</time>
  <course>106.53</course>
  <speed>5.037072562510888</speed>
  <fix>3d</fix>
</trkpt>
<trkpt lat="-27.2737526" lon="151.2898344">
  <ele>372.96</ele>
  <time>2026-09-01T19:57:26Z</time>
  <course>105.7</course>
  <speed>5.62</speed>
  <fix>3d</fix>
</trkpt>
<trkpt lat="-27.2737551" lon="151.2898441">
  <ele>372.48</ele>
  <time>2026-09-01T19:57:26Z</time>
  <course>106.64</course>
  <speed>4.4450421820270725</speed>
  <fix>3d</fix>
</trkpt>
<trkpt lat="-27.2737526" lon="151.2898344">
  <ele>372.96</ele>
  <time>2026-09-01T19:57:26Z</time>
  <course>105.7</course>
  <speed>5.62</speed>
  <fix>3d</fix>
</trkpt>
<trkpt lat="-27.2737561" lon="151.2898481">
  <ele>372.29</ele>
  <time>2026-09-01T19:57:26Z</time>
  <course>106.76</course>
  <speed>3.83105729531679</speed>
  <fix>3d</fix>
</trkpt>
<trkpt lat="-27.2737551" lon="151.2898443">
  <ele>372.62</ele>
  <time>2026-09-01T19:57:26Z</time>
  <course>105.67</course>
  <speed>4.49</speed>
  <fix>3d</fix>
</trkpt>
<trkpt lat="-27.2737569" lon="151.2898516">
  <ele>372.12</ele>
  <time>2026-09-01T19:57:26Z</time>
  <course>106.87</course>
  <speed>3.2390276318673172</speed>
  <fix>3d</fix>
</trkpt>
<trkpt lat="-27.2737551" lon="151.2898443">
  <ele>372.62</ele>
  <time>2026-09-01T19:57:26Z</time>
  <course>105.67</course>
  <speed>4.49</speed>
  <fix>3d</fix>
</trkpt>
<trkpt lat="-27.2737576" lon="151.2898545">
  <ele>371.96</ele>
  <time>2026-09-01T19:57:26Z</time>
  <course>106.97</course>
  <speed>2.688215021161812</speed>
  <fix>3d</fix>
</trkpt>
<trkpt lat="-27.2737569" lon="151.2898519">
  <ele>372.27</ele>
  <time>2026-09-01T19:57:26Z</time>
  <course>105.65</course>
  <speed>3.31</speed>
  <fix>3d</fix>
</trkpt>
<trkpt lat="-27.2737582" lon="151.289857">
  <ele>371.81</ele>
  <time>2026-09-01T19:57:26Z</time>
  <course>107.05</course>
  <speed>2.1786234185833955</speed>
  <fix>3d</fix>
</trkpt>
<trkpt lat="-27.2737569" lon="151.2898519">
  <ele>372.27</ele>
  <time>2026-09-01T19:57:26Z</time>
  <course>105.65</course>
  <speed>3.31</speed>
  <fix>3d</fix>
</trkpt>
<trkpt lat="-27.2737587" lon="151.2898589">
  <ele>371.69</ele>
  <time>2026-09-01T19:57:26Z</time>
  <course>107.12</course>
  <speed>1.722556240010758</speed>
  <fix>3d</fix>
</trkpt>
<trkpt lat="-27.2737583" lon="151.2898573">
  <ele>371.97</ele>
  <time>2026-09-01T19:57:26Z</time>
  <course>105.73</course>
  <speed>2.25</speed>
  <fix>3d</fix>
</trkpt>
<trkpt lat="-27.2737591" lon="151.2898604">
  <ele>371.61</ele>
  <time>2026-09-01T19:57:26Z</time>
  <course>107.17</course>
  <speed>1.3269890730522238</speed>
  <fix>3d</fix>
</trkpt>
<trkpt lat="-27.2737583" lon="151.2898573">
  <ele>371.97</ele>
  <time>2026-09-01T19:57:26Z</time>
  <course>105.73</course>
  <speed>2.25</speed>
  <fix>3d</fix>
</trkpt>
<trkpt lat="-27.2737594" lon="151.2898616">
  <ele>371.55</ele>
  <time>2026-09-01T19:57:26Z</time>
  <course>107.2</course>
  <speed>0.9876234100101111</speed>
  <fix>3d</fix>
</trkpt>
<trkpt lat="-27.2737592" lon="151.2898608">
  <ele>371.77</ele>
  <time>2026-09-01T19:57:26Z</time>
  <course>106.06</course>
  <speed>1.4</speed>
  <fix>3d</fix>
</trkpt>
<trkpt lat="-27.2737596" lon="151.2898624">
  <ele>371.52</ele>
  <time>2026-09-01T19:57:26Z</time>
  <course>107.23</course>
  <speed>0.6992138442565335</speed>
  <fix>3d</fix>
</trkpt>
<trkpt lat="-27.2737592" lon="151.2898608">
  <ele>371.77</ele>
  <time>2026-09-01T19:57:26Z</time>
  <course>106.06</course>
  <speed>1.4</speed>
  <fix>3d</fix>
</trkpt>
<trkpt lat="-27.2737597" lon="151.289863">
  <ele>371.51</ele>
  <time>2026-09-01T19:57:26Z</time>
  <course>107.24</course>
  <speed>0.4712748667179272</speed>
  <fix>3d</fix>
</trkpt>
<trkpt lat="-27.2737598" lon="151.2898629">
  <ele>371.68</ele>
  <time>2026-09-01T19:57:26Z</time>
  <course>106.98</course>
  <speed>0.77</speed>
  <fix>3d</fix>
</trkpt>
<trkpt lat="-27.2737599" lon="151.2898635">
  <ele>371.54</ele>
  <time>2026-09-01T19:57:26Z</time>
  <course>107.25</course>
  <speed>0.30675723300355934</speed>
  <fix>3d</fix>
</trkpt>
<trkpt lat="-27.2737598" lon="151.2898629">
  <ele>371.68</ele>
  <time>2026-09-01T19:57:26Z</time>
  <course>106.98</course>
  <speed>0.77</speed>
  <fix>3d</fix>
</trkpt>
<trkpt lat="-27.27376" lon="151.2898637">
  <ele>371.58</ele>
  <time>2026-09-01T19:57:26Z</time>
  <course>107.24</course>
  <speed>0.18384776310850234</speed>
  <fix>3d</fix>
</trkpt>
<trkpt lat="-27.27376" lon="151.289864">
  <ele>371.69</ele>
  <time>2026-09-01T19:57:26Z</time>
  <course>109.49</course>
  <speed>0.36</speed>
  <fix>3d</fix>
</trkpt>
<trkpt lat="-27.27376" lon="151.2898639">
  <ele>371.64</ele>
  <time>2026-09-01T19:57:26Z</time>
  <course>107.24</course>
  <speed>0.11661903789690602</speed>
  <fix>3d</fix>
</trkpt>
<trkpt lat="-27.27376" lon="151.289864">
  <ele>371.69</ele>
  <time>2026-09-01T19:57:26Z</time>
  <course>109.49</course>
  <speed>0.36</speed>
  <fix>3d</fix>
</trkpt>
<trkpt lat="-27.2737601" lon="151.289864">
  <ele>371.71</ele>
  <time>2026-09-01T19:57:26Z</time>
  <course>107.24</course>
  <speed>0.07071067811865475</speed>
  <fix>3d</fix>
</trkpt>
<trkpt lat="-27.2737602" lon="151.2898644">
  <ele>371.79</ele>
  <time>2026-09-01T19:57:26Z</time>
  <course>116.06</course>
  <speed>0.15</speed>
  <fix>3d</fix>
</trkpt>
<trkpt lat="-27.2737602" lon="151.2898641">
  <ele>371.79</ele>
  <time>2026-09-01T19:57:26Z</time>
  <course>107.25</course>
  <speed>0.044721359549995794</speed>
  <fix>3d</fix>
</trkpt>
<trkpt lat="-27.2737602" lon="151.2898644">
  <ele>371.79</ele>
  <time>2026-09-01T19:57:26Z</time>
  <course>116.06</course>
  <speed>0.15</speed>
  <fix>3d</fix>
</trkpt>
<trkpt lat="-27.2737602" lon="151.2898642">
  <ele>371.87</ele>
  <time>2026-09-01T19:57:26Z</time>
  <course>107.26</course>
  <speed>0.0412310562561766</speed>
  <fix>3d</fix>
</trkpt>
<trkpt lat="-27.2737603" lon="151.2898646">
  <ele>371.94</ele>
  <time>2026-09-01T19:57:26Z</time>
  <course>128.95</course>
  <speed>0.07</speed>
  <fix>3d</fix>
</trkpt>
<trkpt lat="-27.2737603" lon="151.2898642">
  <ele>371.95</ele>
  <time>2026-09-01T19:57:26Z</time>
  <course>107.29</course>
  <speed>0.04</speed>
  <fix>3d</fix>
</trkpt>
<trkpt lat="-27.2737603" lon="151.2898646">
  <ele>371.94</ele>
  <time>2026-09-01T19:57:26Z</time>
  <course>128.95</course>
  <speed>0.07</speed>
  <fix>3d</fix>
</trkpt>
<trkpt lat="-27.2737603" lon="151.2898643">
  <ele>372.02</ele>
  <time>2026-09-01T19:57:26Z</time>
  <course>107.32</course>
  <speed>0.04</speed>
  <fix>3d</fix>
</trkpt>
<trkpt lat="-27.2737604" lon="151.2898646">
  <ele>372.09</ele>
  <time>2026-09-01T19:57:26Z</time>
  <course>142.39</course>
  <speed>0.04</speed>
  <fix>3d</fix>
</trkpt>
<trkpt lat="-27.2737603" lon="151.2898643">
  <ele>372.08</ele>
  <time>2026-09-01T19:57:26Z</time>
  <course>107.35</course>
  <speed>0.04</speed>
  <fix>3d</fix>
</trkpt>
<trkpt lat="-27.2737604" lon="151.2898646">
  <ele>372.09</ele>
  <time>2026-09-01T19:57:26Z</time>
  <course>142.39</course>
  <speed>0.04</speed>
  <fix>3d</fix>
</trkpt>
<trkpt lat="-27.2737604" lon="151.2898643">
  <ele>372.13</ele>
  <time>2026-09-01T19:57:26Z</time>
  <course>107.37</course>
  <speed>0.04</speed>
  <fix>3d</fix>
</trkpt>
<trkpt lat="-27.2737604" lon="151.2898647">
  <ele>372.21</ele>
  <time>2026-09-01T19:57:26Z</time>
  <course>145.62</course>
  <speed>0.03</speed>
  <fix>3d</fix>
</trkpt>
<trkpt lat="-27.2737604" lon="151.2898644">
  <ele>372.17</ele>
  <time>2026-09-01T19:57:26Z</time>
  <course>107.37</course>
  <speed>0.04</speed>
  <fix>3d</fix>
</trkpt>
<trkpt lat="-27.2737604" lon="151.2898647">
  <ele>372.21</ele>
  <time>2026-09-01T19:57:26Z</time>
  <course>145.62</course>
  <speed>0.03</speed>
  <fix>3d</fix>
</trkpt>
<trkpt lat="-27.2737605" lon="151.2898644">
  <ele>372.2</ele>
  <time>2026-09-01T19:57:26Z</time>
  <course>107.35</course>
  <speed>0.04</speed>
  <fix>3d</fix>
</trkpt>
<trkpt lat="-27.2737605" lon="151.2898648">
  <ele>372.3</ele>
  <time>2026-09-01T19:57:26Z</time>
  <course>134.15</course>
  <speed>0.03</speed>
  <fix>3d</fix>
</trkpt>
<trkpt lat="-27.2737605" lon="151.2898645">
  <ele>372.21</ele>
  <time>2026-09-01T19:57:26Z</time>
  <course>107.31</course>
  <speed>0.044721359549995794</speed>
  <fix>3d</fix>
</trkpt>
<trkpt lat="-27.2737605" lon="151.2898648">
  <ele>372.3</ele>
  <time>2026-09-01T19:57:26Z</time>
  <course>134.15</course>
  <speed>0.03</speed>
  <fix>3d</fix>
</trkpt>
<trkpt lat="-27.2737605" lon="151.2898645">
  <ele>372.22</ele>
  <time>2026-09-01T19:57:26Z</time>
  <course>107.26</course>
  <speed>0.05830951894845301</speed>
  <fix>3d</fix>
</trkpt>
<trkpt lat="-27.2737605" lon="151.2898648">
  <ele>372.34</ele>
  <time>2026-09-01T19:57:26Z</time>
  <course>118.84</course>
  <speed>0.05</speed>
  <fix>3d</fix>
</trkpt>
<trkpt lat="-27.2737606" lon="151.2898646">
  <ele>372.21</ele>
  <time>2026-09-01T19:57:26Z</time>
  <course>107.21</course>
  <speed>0.07071067811865475</speed>
  <fix>3d</fix>
</trkpt>
<trkpt lat="-27.2737605" lon="151.2898648">
  <ele>372.34</ele>
  <time>2026-09-01T19:57:26Z</time>
  <course>118.84</course>
  <speed>0.05</speed>
  <fix>3d</fix>
</trkpt>
<trkpt lat="-27.2737606" lon="151.2898647">
  <ele>372.2</ele>
  <time>2026-09-01T19:57:26Z</time>
  <course>107.17</course>
  <speed>0.1</speed>
  <fix>3d</fix>
</trkpt>
<trkpt lat="-27.2737606" lon="151.289865">
  <ele>372.34</ele>
  <time>2026-09-01T19:57:26Z</time>
  <course>110.07</course>
  <speed>0.08</speed>
  <fix>3d</fix>
</trkpt>
<trkpt lat="-27.2737607" lon="151.2898648">
  <ele>372.18</ele>
  <time>2026-09-01T19:57:26Z</time>
  <course>107.14</course>
  <speed>0.130384048104053</speed>
  <fix>3d</fix>
</trkpt>
<trkpt lat="-27.2737606" lon="151.289865">
  <ele>372.34</ele>
  <time>2026-09-01T19:57:26Z</time>
  <course>110.07</course>
  <speed>0.08</speed>
  <fix>3d</fix>
</trkpt>
<trkpt lat="-27.2737607" lon="151.289865">
  <ele>372.16</ele>
  <time>2026-09-01T19:57:26Z</time>
  <course>107.13</course>
  <speed>0.17</speed>
  <fix>3d</fix>
</trkpt>
<trkpt lat="-27.2737606" lon="151.2898652">
  <ele>372.31</ele>
  <time>2026-09-01T19:57:26Z</time>
  <course>106.14</course>
  <speed>0.14</speed>
  <fix>3d</fix>
</trkpt>
<trkpt lat="-27.2737608" lon="151.2898652">
  <ele>372.14</ele>
  <time>2026-09-01T19:57:26Z</time>
  <course>107.12</course>
  <speed>0.2102379604162864</speed>
  <fix>3d</fix>
</trkpt>
<trkpt lat="-27.2737606" lon="151.2898652">
  <ele>372.31</ele>
  <time>2026-09-01T19:57:26Z</time>
  <course>106.14</course>
  <speed>0.14</speed>
  <fix>3d</fix>
</trkpt>
<trkpt lat="-27.2737609" lon="151.2898655">
  <ele>372.11</ele>
  <time>2026-09-01T19:57:26Z</time>
  <course>107.13</course>
  <speed>0.26</speed>
  <fix>3d</fix>
</trkpt>
<trkpt lat="-27.2737607" lon="151.2898655">
  <ele>372.26</ele>
  <time>2026-09-01T19:57:26Z</time>
  <course>104.38</course>
  <speed>0.22</speed>
  <fix>3d</fix>
</trkpt>
<trkpt lat="-27.273761" lon="151.2898658">
  <ele>372.09</ele>
  <time>2026-09-01T19:57:26Z</time>
  <course>107.15</course>
  <speed>0.3101612483854165</speed>
  <fix>3d</fix>
</trkpt>
<trkpt lat="-27.2737607" lon="151.2898655">
  <ele>372.26</ele>
  <time>2026-09-01T19:57:26Z</time>
  <course>104.38</course>
  <speed>0.22</speed>
  <fix>3d</fix>
</trkpt>
<trkpt lat="-27.2737611" lon="151.2898661">
  <ele>372.07</ele>
  <time>2026-09-01T19:57:26Z</time>
  <course>107.16</course>
  <speed>0.3640054944640259</speed>
  <fix>3d</fix>
</trkpt>
<trkpt lat="-27.2737608" lon="151.2898661">
  <ele>372.21</ele>
  <time>2026-09-01T19:57:26Z</time>
  <course>103.55</course>
  <speed>0.32</speed>
  <fix>3d</fix>
</trkpt>
<trkpt lat="-27.2737612" lon="151.2898665">
  <ele>372.05</ele>
  <time>2026-09-01T19:57:26Z</time>
  <course>107.18</course>
  <speed>0.42379240200834184</speed>
  <fix>3d</fix>
</trkpt>
<trkpt lat="-27.2737608" lon="151.2898661">
  <ele>372.21</ele>
  <time>2026-09-01T19:57:26Z</time>
  <course>103.55</course>
  <speed>0.32</speed>
  <fix>3d</fix>
</trkpt>
<trkpt lat="-27.2737613" lon="151.289867">
  <ele>372.03</ele>
  <time>2026-09-01T19:57:26Z</time>
  <course>107.19</course>
  <speed>0.4775981574503821</speed>
  <fix>3d</fix>
</trkpt>
<trkpt lat="-27.273761" lon="151.2898669">
  <ele>372.17</ele>
  <time>2026-09-01T19:57:26Z</time>
  <course>103.16</course>
  <speed>0.44</speed>
  <fix>3d</fix>
</trkpt>
<trkpt lat="-27.2737614" lon="151.2898675">
  <ele>372.03</ele>
  <time>2026-09-01T19:57:26Z</time>
  <course>107.19</course>
  <speed>0.5375872022286245</speed>
  <fix>3d</fix>
</trkpt>
<trkpt lat="-27.273761" lon="151.2898669">
  <ele>372.17</ele>
  <time>2026-09-01T19:57:26Z</time>
  <course>103.16</course>
  <speed>0.44</speed>
  <fix>3d</fix>
</trkpt>
<trkpt lat="-27.2737615" lon="151.2898681">
  <ele>372.02</ele>
  <time>2026-09-01T19:57:26Z</time>
  <course>107.19</course>
  <speed>0.6008327554319921</speed>
  <fix>3d</fix>
</trkpt>
<trkpt lat="-27.2737612" lon="151.2898678">
  <ele>372.15</ele>
  <time>2026-09-01T19:57:26Z</time>
  <course>102.98</course>
  <speed>0.56</speed>
  <fix>3d</fix>
</trkpt>
<trkpt lat="-27.2737617" lon="151.2898687">
  <ele>372.03</ele>
  <time>2026-09-01T19:57:26Z</time>
  <course>107.18</course>
  <speed>0.6609841147864296</speed>
  <fix>3d</fix>
</trkpt>
<trkpt lat="-27.2737612" lon="151.2898678">
  <ele>372.15</ele>
  <time>2026-09-01T19:57:26Z</time>
  <course>102.98</course>
  <speed>0.56</speed>
  <fix>3d</fix>
</trkpt>
<trkpt lat="-27.2737618" lon="151.2898694">
  <ele>372.03</ele>
  <time>2026-09-01T19:57:26Z</time>
  <course>107.18</course>
  <speed>0.7212489168102785</speed>
  <fix>3d</fix>
</trkpt>
<trkpt lat="-27.2737614" lon="151.289869">
  <ele>372.15</ele>
  <time>2026-09-01T19:57:26Z</time>
  <course>102.91</course>
  <speed>0.68</speed>
  <fix>3d</fix>
</trkpt>
<trkpt lat="-27.273762" lon="151.2898702">
  <ele>372.04</ele>
  <time>2026-09-01T19:57:26Z</time>
  <course>107.17</course>
  <speed>0.7844743462982074</speed>
  <fix>3d</fix>
</trkpt>
<trkpt lat="-27.2737614" lon="151.289869">
  <ele>372.15</ele>
  <time>2026-09-01T19:57:26Z</time>
  <course>102.91</course>
  <speed>0.68</speed>
  <fix>3d</fix>
</trkpt>
<trkpt lat="-27.2737622" lon="151.289871">
  <ele>372.06</ele>
  <time>2026-09-01T19:57:26Z</time>
  <course>107.16</course>
  <speed>0.8448076704197234</speed>
  <fix>3d</fix>
</trkpt>
<trkpt lat="-27.2737617" lon="151.2898705">
  <ele>372.16</ele>
  <time>2026-09-01T19:57:26Z</time>
  <course>102.91</course>
  <speed>0.8</speed>
  <fix>3d</fix>
</trkpt>
<trkpt lat="-27.2737624" lon="151.2898719">
  <ele>372.07</ele>
  <time>2026-09-01T19:57:26Z</time>
  <course>107.15</course>
  <speed>0.8984430978086481</speed>
  <fix>3d</fix>
</trkpt>
<trkpt lat="-27.2737617" lon="151.2898705">
  <ele>372.16</ele>
  <time>2026-09-01T19:57:26Z</time>
  <course>102.91</course>
  <speed>0.8</speed>
  <fix>3d</fix>
</trkpt>
<trkpt lat="-27.2737626" lon="151.2898728">
  <ele>372.08</ele>
  <time>2026-09-01T19:57:26Z</time>
  <course>107.15</course>
  <speed>0.9492101980067429</speed>
  <fix>3d</fix>
</trkpt>
<trkpt lat="-27.2737621" lon="151.2898722">
  <ele>372.18</ele>
  <time>2026-09-01T19:57:26Z</time>
  <course>102.95</course>
  <speed>0.92</speed>
  <fix>3d</fix>
</trkpt>
<trkpt lat="-27.2737628" lon="151.2898738">
  <ele>372.09</ele>
  <time>2026-09-01T19:57:26Z</time>
  <course>107.14</course>
  <speed>1.009603882718366</speed>
  <fix>3d</fix>
</trkpt>
<trkpt lat="-27.2737621" lon="151.2898722">
  <ele>372.18</ele>
  <time>2026-09-01T19:57:26Z</time>
  <course>102.95</course>
  <speed>0.92</speed>
  <fix>3d</fix>
</trkpt>
<trkpt lat="-27.273763" lon="151.2898748">
  <ele>372.09</ele>
  <time>2026-09-01T19:57:26Z</time>
  <course>107.14</course>
  <speed>1.0508092119885513</speed>
  <fix>3d</fix>
</trkpt>
<trkpt lat="-27.2737624" lon="151.2898741">
  <ele>372.2</ele>
  <time>2026-09-01T19:57:26Z</time>
  <course>103.03</course>
  <speed>1.03</speed>
  <fix>3d</fix>
</trkpt>
<trkpt lat="-27.2737632" lon="151.2898759">
  <ele>372.1</ele>
  <time>2026-09-01T19:57:26Z</time>
  <course>107.13</course>
  <speed>1.1016351483136329</speed>
  <fix>3d</fix>
</trkpt>
<trkpt lat="-27.2737624" lon="151.2898741">
  <ele>372.2</ele>
  <time>2026-09-01T19:57:26Z</time>
  <course>103.03</course>
  <speed>1.03</speed>
  <fix>3d</fix>
</trkpt>
<trkpt lat="-27.2737635" lon="151.289877">
  <ele>372.11</ele>
  <time>2026-09-01T19:57:26Z</time>
  <course>107.13</course>
  <speed>1.1456002793295748</speed>
  <fix>3d</fix>
</trkpt>
<trkpt lat="-27.2737629" lon="151.2898763">
  <ele>372.21</ele>
  <time>2026-09-01T19:57:26Z</time>
  <course>103.13</course>
  <speed>1.12</speed>
  <fix>3d</fix>
</trkpt>
<trkpt lat="-27.2737637" lon="151.2898782">
  <ele>372.11</ele>
  <time>2026-09-01T19:57:26Z</time>
  <course>107.13</course>
  <speed>1.1744360348695029</speed>
  <fix>3d</fix>
</trkpt>
<trkpt lat="-27.2737629" lon="151.2898763">
  <ele>372.21</ele>
  <time>2026-09-01T19:57:26Z</time>
  <course>103.13</course>
  <speed>1.12</speed>
  <fix>3d</fix>
</trkpt>
<trkpt lat="-27.273764" lon="151.2898794">
  <ele>372.11</ele>
  <time>2026-09-01T19:57:26Z</time>
  <course>107.13</course>
  <speed>1.2156479753612885</speed>
  <fix>3d</fix>
</trkpt>
<trkpt lat="-27.2737634" lon="151.2898786">
  <ele>372.22</ele>
  <time>2026-09-01T19:57:26Z</time>
  <course>103.26</course>
  <speed>1.2</speed>
  <fix>3d</fix>
</trkpt>
<trkpt lat="-27.2737642" lon="151.2898806">
  <ele>372.11</ele>
  <time>2026-09-01T19:57:26Z</time>
  <course>107.12</course>
  <speed>1.2472369462135091</speed>
  <fix>3d</fix>
</trkpt>
<trkpt lat="-27.2737634" lon="151.2898786">
  <ele>372.22</ele>
  <time>2026-09-01T19:57:26Z</time>
  <course>103.26</course>
  <speed>1.2</speed>
  <fix>3d</fix>
</trkpt>
<trkpt lat="-27.2737645" lon="151.2898819">
  <ele>372.11</ele>
  <time>2026-09-01T19:57:26Z</time>
  <course>107.11</course>
  <speed>1.2692123541787639</speed>
  <fix>3d</fix>
</trkpt>
<trkpt lat="-27.2737639" lon="151.2898811">
  <ele>372.22</ele>
  <time>2026-09-01T19:57:26Z</time>
  <course>103.4</course>
  <speed>1.27</speed>
  <fix>3d</fix>
</trkpt>
<trkpt lat="-27.2737648" lon="151.2898832">
  <ele>372.11</ele>
  <time>2026-09-01T19:57:26Z</time>
  <course>107.11</course>
  <speed>1.2884486796143648</speed>
  <fix>3d</fix>
</trkpt>
<trkpt lat="-27.2737639" lon="151.2898811">
  <ele>372.22</ele>
  <time>2026-09-01T19:57:26Z</time>
  <course>103.4</course>
  <speed>1.27</speed>
  <fix>3d</fix>
</trkpt>
<trkpt lat="-27.2737651" lon="151.2898845">
  <ele>372.11</ele>
  <time>2026-09-01T19:57:26Z</time>
  <course>107.11</course>
  <speed>1.3104197800704933</speed>
  <fix>3d</fix>
</trkpt>
<trkpt lat="-27.2737645" lon="151.2898837">
  <ele>372.22</ele>
  <time>2026-09-01T19:57:26Z</time>
  <course>103.56</course>
  <speed>1.32</speed>
  <fix>3d</fix>
</trkpt>
<trkpt lat="-27.2737653" lon="151.2898858">
  <ele>372.11</ele>
  <time>2026-09-01T19:57:26Z</time>
  <course>107.11</course>
  <speed>1.3200378782444084</speed>
  <fix>3d</fix>
</trkpt>
<trkpt lat="-27.2737645" lon="151.2898837">
  <ele>372.22</ele>
  <time>2026-09-01T19:57:26Z</time>
  <course>103.56</course>
  <speed>1.32</speed>
  <fix>3d</fix>
</trkpt>
<trkpt lat="-27.2737656" lon="151.2898872">
  <ele>372.11</ele>
  <time>2026-09-01T19:57:26Z</time>
  <course>107.12</course>
  <speed>1.3324038426843419</speed>
  <fix>3d</fix>
</trkpt>
<trkpt lat="-27.2737651" lon="151.2898862">
  <ele>372.21</ele>
  <time>2026-09-01T19:57:26Z</time>
  <course>103.72</course>
  <speed>1.35</speed>
  <fix>3d</fix>
</trkpt>
<trkpt lat="-27.2737659" lon="151.2898885">
  <ele>372.11</ele>
  <time>2026-09-01T19:57:26Z</time>
  <course>107.13</course>
  <speed>1.3324038426843419</speed>
  <fix>3d</fix>
</trkpt>
<trkpt lat="-27.2737651" lon="151.2898862">
  <ele>372.21</ele>
  <time>2026-09-01T19:57:26Z</time>
  <course>103.72</course>
  <speed>1.35</speed>
  <fix>3d</fix>
</trkpt>
<trkpt lat="-27.2737662" lon="151.2898898">
  <ele>372.1</ele>
  <time>2026-09-01T19:57:26Z</time>
  <course>107.13</course>
  <speed>1.3324038426843419</speed>
  <fix>3d</fix>
</trkpt>
<trkpt lat="-27.2737657" lon="151.2898889">
  <ele>372.21</ele>
  <time>2026-09-01T19:57:26Z</time>
  <course>103.9</course>
  <speed>1.37</speed>
  <fix>3d</fix>
</trkpt>
<trkpt lat="-27.2737665" lon="151.2898912">
  <ele>372.09</ele>
  <time>2026-09-01T19:57:26Z</time>
  <course>107.14</course>
  <speed>1.3324038426843419</speed>
  <fix>3d</fix>
</trkpt>
<trkpt lat="-27.2737657" lon="151.2898889">
  <ele>372.21</ele>
  <time>2026-09-01T19:57:26Z</time>
  <course>103.9</course>
  <speed>1.37</speed>
  <fix>3d</fix>
</trkpt>
<trkpt lat="-27.2737668" lon="151.2898925">
  <ele>372.07</ele>
  <time>2026-09-01T19:57:26Z</time>
  <course>107.14</course>
  <speed>1.322800060477773</speed>
  <fix>3d</fix>
</trkpt>
<trkpt lat="-27.2737662" lon="151.2898916">
  <ele>372.19</ele>
  <time>2026-09-01T19:57:26Z</time>
  <course>104.1</course>
  <speed>1.36</speed>
  <fix>3d</fix>
</trkpt>
<trkpt lat="-27.2737671" lon="151.2898939">
  <ele>372.04</ele>
  <time>2026-09-01T19:57:26Z</time>
  <course>107.14</course>
  <speed>1.313202193114221</speed>
  <fix>3d</fix>
</trkpt>
<trkpt lat="-27.2737662" lon="151.2898916">
  <ele>372.19</ele>
  <time>2026-09-01T19:57:26Z</time>
  <course>104.1</course>
  <speed>1.36</speed>
  <fix>3d</fix>
</trkpt>
<trkpt lat="-27.2737674" lon="151.2898952">
  <ele>372.0</ele>
  <time>2026-09-01T19:57:26Z</time>
  <course>107.15</course>
  <speed>1.3036103712382776</speed>
  <fix>3d</fix>
</trkpt>
<trkpt lat="-27.2737668" lon="151.2898943">
  <ele>372.14</ele>
  <time>2026-09-01T19:57:26Z</time>
  <course>104.32</course>
  <speed>1.34</speed>
  <fix>3d</fix>
</trkpt>
<trkpt lat="-27.2737677" lon="151.2898965">
  <ele>371.94</ele>
  <time>2026-09-01T19:57:26Z</time>
  <course>107.14</course>
  <speed>1.2816005617976296</speed>
  <fix>3d</fix>
</trkpt>
<trkpt lat="-27.2737668" lon="151.2898943">
  <ele>372.14</ele>
  <time>2026-09-01T19:57:26Z</time>
  <course>104.32</course>
  <speed>1.34</speed>
  <fix>3d</fix>
</trkpt>
<trkpt lat="-27.273768" lon="151.2898977">
  <ele>371.86</ele>
  <time>2026-09-01T19:57:26Z</time>
  <course>107.14</course>
  <speed>1.252836781069266</speed>
  <fix>3d</fix>
</trkpt>
<trkpt lat="-27.2737673" lon="151.2898968">
  <ele>372.04</ele>
  <time>2026-09-01T19:57:26Z</time>
  <course>104.55</course>
  <speed>1.31</speed>
  <fix>3d</fix>
</trkpt>
<trkpt lat="-27.2737683" lon="151.289899">
  <ele>371.76</ele>
  <time>2026-09-01T19:57:26Z</time>
  <course>107.14</course>
  <speed>1.2212288892750613</speed>
  <fix>3d</fix>
</trkpt>
<trkpt lat="-27.2737673" lon="151.2898968">
  <ele>372.04</ele>
  <time>2026-09-01T19:57:26Z</time>
  <course>104.55</course>
  <speed>1.31</speed>
  <fix>3d</fix>
</trkpt>
<trkpt lat="-27.2737686" lon="151.2899002">
  <ele>371.64</ele>
  <time>2026-09-01T19:57:26Z</time>
  <course>107.14</course>
  <speed>1.1704699910719625</speed>
  <fix>3d</fix>
</trkpt>
<trkpt lat="-27.273768" lon="151.2898994">
  <ele>371.87</ele>
  <time>2026-09-01T19:57:26Z</time>
  <course>104.79</course>
  <speed>1.25</speed>
  <fix>3d</fix>
</trkpt>
<trkpt lat="-27.2737688" lon="151.2899013">
  <ele>371.52</ele>
  <time>2026-09-01T19:57:26Z</time>
  <course>107.14</course>
  <speed>1.1292918134831227</speed>
  <fix>3d</fix>
</trkpt>
<trkpt lat="-27.273768" lon="151.2898994">
  <ele>371.87</ele>
  <time>2026-09-01T19:57:26Z</time>
  <course>104.79</course>
  <speed>1.25</speed>
  <fix>3d</fix>
</trkpt>
<trkpt lat="-27.2737691" lon="151.2899024">
  <ele>371.37</ele>
  <time>2026-09-01T19:57:26Z</time>
  <course>107.14</course>
  <speed>1.0660675400742676</speed>
  <fix>3d</fix>
</trkpt>
<trkpt lat="-27.2737686" lon="151.2899018">
  <ele>371.62</ele>
  <time>2026-09-01T19:57:26Z</time>
  <course>105.07</course>
  <speed>1.15</speed>
  <fix>3d</fix>
</trkpt>
<trkpt lat="-27.2737693" lon="151.2899035">
  <ele>371.22</ele>
  <time>2026-09-01T19:57:26Z</time>
  <course>107.14</course>
  <speed>1.015332457867865</speed>
  <fix>3d</fix>
</trkpt>
<trkpt lat="-27.2737686" lon="151.2899018">
  <ele>371.62</ele>
  <time>2026-09-01T19:57:26Z</time>
  <course>105.07</course>
  <speed>1.15</speed>
  <fix>3d</fix>
</trkpt>
<trkpt lat="-27.2737696" lon="151.2899045">
  <ele>371.06</ele>
  <time>2026-09-01T19:57:26Z</time>
  <course>107.15</course>
  <speed>0.945568612000208</speed>
  <fix>3d</fix>
</trkpt>
<trkpt lat="-27.2737686" lon="151.2899018">
  <ele>371.62</ele>
  <time>2026-09-01T19:57:26Z</time>
  <course>105.07</course>
  <speed>1.15</speed>
  <fix>3d</fix>
</trkpt>
<trkpt lat="-27.2737698" lon="151.2899054">
  <ele>370.89</ele>
  <time>2026-09-01T19:57:26Z</time>
  <course>107.15</course>
  <speed>0.8823264701911646</speed>
  <fix>3d</fix>
</trkpt>
<trkpt lat="-27.2737691" lon="151.2899039">
  <ele>371.33</ele>
  <time>2026-09-01T19:57:26Z</time>
  <course>105.44</course>
  <speed>1.04</speed>
  <fix>3d</fix>
</trkpt>
<trkpt lat="-27.27377" lon="151.2899063">
  <ele>370.72</ele>
  <time>2026-09-01T19:57:26Z</time>
  <course>107.16</course>
  <speed>0.8127115109311545</speed>
  <fix>3d</fix>
</trkpt>
<trkpt lat="-27.2737696" lon="151.2899059">
  <ele>371.01</ele>
  <time>2026-09-01T19:57:26Z</time>
  <course>105.92</course>
  <speed>0.92</speed>
  <fix>3d</fix>
</trkpt>
<trkpt lat="-27.2737702" lon="151.2899071">
  <ele>370.56</ele>
  <time>2026-09-01T19:57:26Z</time>
  <course>107.18</course>
  <speed>0.7494664769020694</speed>
  <fix>3d</fix>
</trkpt>
<trkpt lat="-27.2737696" lon="151.2899059">
  <ele>371.01</ele>
  <time>2026-09-01T19:57:26Z</time>
  <course>105.92</course>
  <speed>0.92</speed>
  <fix>3d</fix>
</trkpt>
<trkpt lat="-27.2737704" lon="151.2899078">
  <ele>370.39</ele>
  <time>2026-09-01T19:57:26Z</time>
  <course>107.19</course>
  <speed>0.6767569726275453</speed>
  <fix>3d</fix>
</trkpt>
<trkpt lat="-27.27377" lon="151.2899075">
  <ele>370.68</ele>
  <time>2026-09-01T19:57:26Z</time>
  <course>106.55</course>
  <speed>0.78</speed>
  <fix>3d</fix>
</trkpt>
<trkpt lat="-27.2737705" lon="151.2899084">
  <ele>370.23</ele>
  <time>2026-09-01T19:57:26Z</time>
  <course>107.21</course>
  <speed>0.6074537019394977</speed>
  <fix>3d</fix>
</trkpt>
<trkpt lat="-27.27377" lon="151.2899075">
  <ele>370.68</ele>
  <time>2026-09-01T19:57:26Z</time>
  <course>106.55</course>
  <speed>0.78</speed>
  <fix>3d</fix>
</trkpt>
<trkpt lat="-27.2737707" lon="151.289909">
  <ele>370.07</ele>
  <time>2026-09-01T19:57:26Z</time>
  <course>107.23</course>
  <speed>0.5348831648126533</speed>
  <fix>3d</fix>
</trkpt>
<trkpt lat="-27.2737703" lon="151.2899089">
  <ele>370.36</ele>
  <time>2026-09-01T19:57:26Z</time>
  <course>107.4</course>
  <speed>0.64</speed>
  <fix>3d</fix>
</trkpt>
<trkpt lat="-27.2737709" lon="151.2899096">
  <ele>369.91</ele>
  <time>2026-09-01T19:57:26Z</time>
  <course>107.24</course>
  <speed>0.4753945729601885</speed>
  <fix>3d</fix>
</trkpt>
<trkpt lat="-27.2737703" lon="151.2899089">
  <ele>370.36</ele>
  <time>2026-09-01T19:57:26Z</time>
  <course>107.4</course>
  <speed>0.64</speed>
  <fix>3d</fix>
</trkpt>
<trkpt lat="-27.273771" lon="151.28991">
  <ele>369.76</ele>
  <time>2026-09-01T19:57:26Z</time>
  <course>107.27</course>
  <speed>0.41231056256176607</speed>
  <fix>3d</fix>
</trkpt>
<trkpt lat="-27.2737707" lon="151.28991">
  <ele>370.04</ele>
  <time>2026-09-01T19:57:26Z</time>
  <course>108.58</course>
  <speed>0.51</speed>
  <fix>3d</fix>
</trkpt>
<trkpt lat="-27.2737711" lon="151.2899104">
  <ele>369.61</ele>
  <time>2026-09-01T19:57:26Z</time>
  <course>107.29</course>
  <speed>0.35341194094144585</speed>
  <fix>3d</fix>
</trkpt>
<trkpt lat="-27.2737707" lon="151.28991">
  <ele>370.04</ele>
  <time>2026-09-01T19:57:26Z</time>
  <course>108.58</course>
  <speed>0.51</speed>
  <fix>3d</fix>
</trkpt>
<trkpt lat="-27.2737712" lon="151.2899108">
  <ele>369.46</ele>
  <time>2026-09-01T19:57:26Z</time>
  <course>107.31</course>
  <speed>0.2906888370749727</speed>
  <fix>3d</fix>
</trkpt>
<trkpt lat="-27.2737709" lon="151.2899109">
  <ele>369.74</ele>
  <time>2026-09-01T19:57:26Z</time>
  <course>110.32</course>
  <speed>0.38</speed>
  <fix>3d</fix>
</trkpt>
<trkpt lat="-27.2737713" lon="151.289911">
  <ele>369.32</ele>
  <time>2026-09-01T19:57:26Z</time>
  <course>107.34</course>
  <speed>0.23323807579381203</speed>
  <fix>3d</fix>
</trkpt>
<trkpt lat="-27.2737709" lon="151.2899109">
  <ele>369.74</ele>
  <time>2026-09-01T19:57:26Z</time>
  <course>110.32</course>
  <speed>0.38</speed>
  <fix>3d</fix>
</trkpt>
<trkpt lat="-27.2737714" lon="151.2899113">
  <ele>369.18</ele>
  <time>2026-09-01T19:57:26Z</time>
  <course>107.37</course>
  <speed>0.18027756377319945</speed>
  <fix>3d</fix>
</trkpt>
<trkpt lat="-27.2737712" lon="151.2899115">
  <ele>369.46</ele>
  <time>2026-09-01T19:57:26Z</time>
  <course>113.08</course>
  <speed>0.27</speed>
  <fix>3d</fix>
</trkpt>
<trkpt lat="-27.2737715" lon="151.2899114">
  <ele>369.04</ele>
  <time>2026-09-01T19:57:26Z</time>
  <course>107.42</course>
  <speed>0.14212670403551894</speed>
  <fix>3d</fix>
</trkpt>
<trkpt lat="-27.2737712" lon="151.2899115">
  <ele>369.46</ele>
  <time>2026-09-01T19:57:26Z</time>
  <course>113.08</course>
  <speed>0.27</speed>
  <fix>3d</fix>
</trkpt>
<trkpt lat="-27.2737715" lon="151.2899116">
  <ele>368.9</ele>
  <time>2026-09-01T19:57:26Z</time>
  <course>107.48</course>
  <speed>0.09219544457292887</speed>
  <fix>3d</fix>
</trkpt>
<trkpt lat="-27.2737713" lon="151.2899119">
  <ele>369.18</ele>
  <time>2026-09-01T19:57:26Z</time>
  <course>117.6</course>
  <speed>0.17</speed>
  <fix>3d</fix>
</trkpt>
<trkpt lat="-27.2737716" lon="151.2899117">
  <ele>368.76</ele>
  <time>2026-09-01T19:57:26Z</time>
  <course>107.6</course>
  <speed>0.0632455532033676</speed>
  <fix>3d</fix>
</trkpt>
<trkpt lat="-27.2737713" lon="151.2899119">
  <ele>369.18</ele>
  <time>2026-09-01T19:57:26Z</time>
  <course>117.6</course>
  <speed>0.17</speed>
  <fix>3d</fix>
</trkpt>
<trkpt lat="-27.2737716" lon="151.2899117">
  <ele>368.62</ele>
  <time>2026-09-01T19:57:26Z</time>
  <course>107.85</course>
  <speed>0.03</speed>
  <fix>3d</fix>
</trkpt>
<trkpt lat="-27.2737714" lon="151.2899121">
  <ele>368.9</ele>
  <time>2026-09-01T19:57:26Z</time>
  <course>122.17</course>
  <speed>0.08</speed>
  <fix>3d</fix>
</trkpt>
<trkpt lat="-27.2737716" lon="151.2899117">
  <ele>368.49</ele>
  <time>2026-09-01T19:57:26Z</time>
  <course>108.33</course>
  <speed>0.03</speed>
  <fix>3d</fix>
</trkpt>
<trkpt lat="-27.2737714" lon="151.2899121">
  <ele>368.9</ele>
  <time>2026-09-01T19:57:26Z</time>
  <course>122.17</course>
  <speed>0.08</speed>
  <fix>3d</fix>
</trkpt>
<trkpt lat="-27.2737716" lon="151.2899117">
  <ele>368.35</ele>
  <time>2026-09-01T19:57:26Z</time>
  <course>108.75</course>
  <speed>0.06082762530298219</speed>
  <fix>3d</fix>
</trkpt>
<trkpt lat="-27.2737715" lon="151.2899122">
  <ele>368.62</ele>
  <time>2026-09-01T19:57:26Z</time>
  <course>99.87</course>
  <speed>0.0</speed>
  <fix>3d</fix>
</trkpt>
<trkpt lat="-27.2737715" lon="151.2899117">
  <ele>368.21</ele>
  <time>2026-09-01T19:57:26Z</time>
  <course>109.0</course>
  <speed>0.09219544457292887</speed>
  <fix>3d</fix>
</trkpt>
<trkpt lat="-27.2737715" lon="151.2899122">
  <ele>368.62</ele>
  <time>2026-09-01T19:57:26Z</time>
  <course>99.87</course>
  <speed>0.0</speed>
  <fix>3d</fix>
</trkpt>
<trkpt lat="-27.2737715" lon="151.2899116">
  <ele>368.06</ele>
  <time>2026-09-01T19:57:26Z</time>
  <course>109.07</course>
  <speed>0.11401754250991379</speed>
  <fix>3d</fix>
</trkpt>
<trkpt lat="-27.2737715" lon="151.2899122">
  <ele>368.62</ele>
  <time>2026-09-01T19:57:26Z</time>
  <course>99.87</course>
  <speed>0.0</speed>
  <fix>3d</fix>
</trkpt>
<trkpt lat="-27.2737715" lon="151.2899116">
  <ele>367.92</ele>
  <time>2026-09-01T19:57:26Z</time>
  <course>109.02</course>
  <speed>0.13601470508735444</speed>
  <fix>3d</fix>
</trkpt>
<trkpt lat="-27.2737715" lon="151.2899122">
  <ele>368.34</ele>
  <time>2026-09-01T19:57:26Z</time>
  <course>300.59</course>
  <speed>0.06</speed>
  <fix>3d</fix>
</trkpt>
<trkpt lat="-27.2737715" lon="151.2899115">
  <ele>367.77</ele>
  <time>2026-09-01T19:57:26Z</time>
  <course>108.87</course>
  <speed>0.15524174696260024</speed>
  <fix>3d</fix>
</trkpt>
<trkpt lat="-27.2737715" lon="151.2899122">
  <ele>368.34</ele>
  <time>2026-09-01T19:57:26Z</time>
  <course>300.59</course>
  <speed>0.06</speed>
  <fix>3d</fix>
</trkpt>
<trkpt lat="-27.2737714" lon="151.2899114">
  <ele>367.63</ele>
  <time>2026-09-01T19:57:26Z</time>
  <course>108.68</course>
  <speed>0.1772004514666935</speed>
  <fix>3d</fix>
</trkpt>
<trkpt lat="-27.2737715" lon="151.289912">
  <ele>368.05</ele>
  <time>2026-09-01T19:57:26Z</time>
  <course>296.33</course>
  <speed>0.11</speed>
  <fix>3d</fix>
</trkpt>
<trkpt lat="-27.2737714" lon="151.2899113">
  <ele>367.47</ele>
  <time>2026-09-01T19:57:26Z</time>
  <course>108.48</course>
  <speed>0.18681541692269404</speed>
  <fix>3d</fix>
</trkpt>
<trkpt lat="-27.2737715" lon="151.289912">
  <ele>368.05</ele>
  <time>2026-09-01T19:57:26Z</time>
  <course>296.33</course>
  <speed>0.11</speed>
  <fix>3d</fix>
</trkpt>
<trkpt lat="-27.2737713" lon="151.2899111">
  <ele>367.32</ele>
  <time>2026-09-01T19:57:26Z</time>
  <course>108.31</course>
  <speed>0.208806130178211</speed>
  <fix>3d</fix>
</trkpt>
<trkpt lat="-27.2737714" lon="151.2899118">
  <ele>367.76</ele>
  <time>2026-09-01T19:57:26Z</time>
  <course>294.48</course>
  <speed>0.15</speed>
  <fix>3d</fix>
</trkpt>
<trkpt lat="-27.2737713" lon="151.2899109">
  <ele>367.17</ele>
  <time>2026-09-01T19:57:26Z</time>
  <course>108.19</course>
  <speed>0.21840329667841554</speed>
  <fix>3d</fix>
</trkpt>
<trkpt lat="-27.2737714" lon="151.2899118">
  <ele>367.76</ele>
  <time>2026-09-01T19:57:26Z</time>
  <course>294.48</course>
  <speed>0.15</speed>
  <fix>3d</fix>
</trkpt>
<trkpt lat="-27.2737712" lon="151.2899108">
  <ele>367.02</ele>
  <time>2026-09-01T19:57:26Z</time>
  <course>108.12</course>
  <speed>0.21840329667841554</speed>
  <fix>3d</fix>
</trkpt>
<trkpt lat="-27.2737713" lon="151.2899115">
  <ele>367.47</ele>
  <time>2026-09-01T19:57:26Z</time>
  <course>293.36</course>
  <speed>0.18</speed>
  <fix>3d</fix>
</trkpt>
<trkpt lat="-27.2737711" lon="151.2899106">
  <ele>366.86</ele>
  <time>2026-09-01T19:57:26Z</time>
  <course>108.1</course>
  <speed>0.2308679276123039</speed>
  <fix>3d</fix>
</trkpt>
<trkpt lat="-27.2737713" lon="151.2899115">
  <ele>367.47</ele>
  <time>2026-09-01T19:57:26Z</time>
  <course>293.36</course>
  <speed>0.18</speed>
  <fix>3d</fix>
</trkpt>
<trkpt lat="-27.2737711" lon="151.2899104">
  <ele>366.71</ele>
  <time>2026-09-01T19:57:26Z</time>
  <course>108.14</course>
  <speed>0.24041630560342614</speed>
  <fix>3d</fix>
</trkpt>
<trkpt lat="-27.2737711" lon="151.2899112">
  <ele>367.16</ele>
  <time>2026-09-01T19:57:26Z</time>
  <course>292.79</course>
  <speed>0.2</speed>
  <fix>3d</fix>
</trkpt>
<trkpt lat="-27.273771" lon="151.2899102">
  <ele>366.56</ele>
  <time>2026-09-01T19:57:26Z</time>
  <course>108.2</course>
  <speed>0.23769728648009425</speed>
  <fix>3d</fix>
</trkpt>
<trkpt lat="-27.2737709" lon="151.2899107">
  <ele>366.87</ele>
  <time>2026-09-01T19:57:26Z</time>
  <course>292.68</course>
  <speed>0.21</speed>
  <fix>3d</fix>
</trkpt>
<trkpt lat="-27.2737709" lon="151.28991">
  <ele>366.41</ele>
  <time>2026-09-01T19:57:26Z</time>
  <course>108.28</course>
  <speed>0.24738633753705963</speed>
  <fix>3d</fix>
</trkpt>
<trkpt lat="-27.2737709" lon="151.2899107">
  <ele>366.87</ele>
  <time>2026-09-01T19:57:26Z</time>
  <course>292.68</course>
  <speed>0.21</speed>
  <fix>3d</fix>
</trkpt>
<trkpt lat="-27.2737709" lon="151.2899098">
  <ele>366.26</ele>
  <time>2026-09-01T19:57:26Z</time>
  <course>108.36</course>
  <speed>0.25</speed>
  <fix>3d</fix>
</trkpt>
<trkpt lat="-27.2737708" lon="151.2899104">
  <ele>366.57</ele>
  <time>2026-09-01T19:57:26Z</time>
  <course>292.73</course>
  <speed>0.22</speed>
  <fix>3d</fix>
</trkpt>
<trkpt lat="-27.2737708" lon="151.2899096">
  <ele>366.11</ele>
  <time>2026-09-01T19:57:26Z</time>
  <course>108.42</course>
  <speed>0.25</speed>
  <fix>3d</fix>
</trkpt>
<trkpt lat="-27.2737708" lon="151.2899104">
  <ele>366.57</ele>
  <time>2026-09-01T19:57:26Z</time>
  <course>292.73</course>
  <speed>0.22</speed>
  <fix>3d</fix>
</trkpt>
<trkpt lat="-27.2737707" lon="151.2899094">
  <ele>365.96</ele>
  <time>2026-09-01T19:57:26Z</time>
  <course>108.49</course>
  <speed>0.25</speed>
  <fix>3d</fix>
</trkpt>
<trkpt lat="-27.2737707" lon="151.28991">
  <ele>366.27</ele>
  <time>2026-09-01T19:57:26Z</time>
  <course>293.01</course>
  <speed>0.23</speed>
  <fix>3d</fix>
</trkpt>
<trkpt lat="-27.2737706" lon="151.2899092">
  <ele>365.81</ele>
  <time>2026-09-01T19:57:26Z</time>
  <course>108.55</course>
  <speed>0.25</speed>
  <fix>3d</fix>
</trkpt>
<trkpt lat="-27.2737707" lon="151.28991">
  <ele>366.27</ele>
  <time>2026-09-01T19:57:26Z</time>
  <course>293.01</course>
  <speed>0.23</speed>
  <fix>3d</fix>
</trkpt>
<trkpt lat="-27.2737706" lon="151.289909">
  <ele>365.65</ele>
  <time>2026-09-01T19:57:26Z</time>
  <course>108.59</course>
  <speed>0.25</speed>
  <fix>3d</fix>
</trkpt>
<trkpt lat="-27.2737705" lon="151.2899095">
  <ele>365.97</ele>
  <time>2026-09-01T19:57:26Z</time>
  <course>293.39</course>
  <speed>0.23</speed>
  <fix>3d</fix>
</trkpt>
<trkpt lat="-27.2737705" lon="151.2899088">
  <ele>365.51</ele>
  <time>2026-09-01T19:57:26Z</time>
  <course>108.61</course>
  <speed>0.25</speed>
  <fix>3d</fix>
</trkpt>
<trkpt lat="-27.2737705" lon="151.2899095">
  <ele>365.97</ele>
  <time>2026-09-01T19:57:26Z</time>
  <course>293.39</course>
  <speed>0.23</speed>
  <fix>3d</fix>
</trkpt>
<trkpt lat="-27.2737704" lon="151.2899086">
  <ele>365.36</ele>
  <time>2026-09-01T19:57:26Z</time>
  <course>108.64</course>
  <speed>0.24041630560342614</speed>
  <fix>3d</fix>
</trkpt>
<trkpt lat="-27.2737703" lon="151.2899091">
  <ele>365.66</ele>
  <time>2026-09-01T19:57:26Z</time>
  <course>293.81</course>
  <speed>0.23</speed>
  <fix>3d</fix>
</trkpt>
<trkpt lat="-27.2737703" lon="151.2899084">
  <ele>365.21</ele>
  <time>2026-09-01T19:57:26Z</time>
  <course>108.66</course>
  <speed>0.24041630560342614</speed>
  <fix>3d</fix>
</trkpt>
<trkpt lat="-27.2737703" lon="151.2899091">
  <ele>365.66</ele>
  <time>2026-09-01T19:57:26Z</time>
  <course>293.81</course>
  <speed>0.23</speed>
  <fix>3d</fix>
</trkpt>
<trkpt lat="-27.2737702" lon="151.2899082">
  <ele>365.06</ele>
  <time>2026-09-01T19:57:26Z</time>
  <course>108.69</course>
  <speed>0.24041630560342614</speed>
  <fix>3d</fix>
</trkpt>
<trkpt lat="-27.2737702" lon="151.2899087">
  <ele>365.37</ele>
  <time>2026-09-01T19:57:26Z</time>
  <course>294.28</course>
  <speed>0.22</speed>
  <fix>3d</fix>
</trkpt>
<trkpt lat="-27.2737702" lon="151.289908">
  <ele>364.91</ele>
  <time>2026-09-01T19:57:26Z</time>
  <course>108.7</course>
  <speed>0.2308679276123039</speed>
  <fix>3d</fix>
</trkpt>
<trkpt lat="-27.2737702" lon="151.2899087">
  <ele>365.37</ele>
  <time>2026-09-01T19:57:26Z</time>
  <course>294.28</course>
  <speed>0.22</speed>
  <fix>3d</fix>
</trkpt>
<trkpt lat="-27.2737701" lon="151.2899078">
  <ele>364.76</ele>
  <time>2026-09-01T19:57:26Z</time>
  <course>108.7</course>
  <speed>0.2308679276123039</speed>
  <fix>3d</fix>
</trkpt>
<trkpt lat="-27.2737702" lon="151.2899087">
  <ele>365.37</ele>
  <time>2026-09-01T19:57:26Z</time>
  <course>294.28</course>
  <speed>0.22</speed>
  <fix>3d</fix>
</trkpt>
<trkpt lat="-27.27377" lon="151.2899076">
  <ele>364.61</ele>
  <time>2026-09-01T19:57:26Z</time>
  <course>108.69</course>
  <speed>0.22135943621178655</speed>
  <fix>3d</fix>
</trkpt>
<trkpt lat="-27.27377" lon="151.2899082">
  <ele>365.06</ele>
  <time>2026-09-01T19:57:26Z</time>
  <course>294.66</course>
  <speed>0.21</speed>
  <fix>3d</fix>
</trkpt>
<trkpt lat="-27.2737699" lon="151.2899074">
  <ele>364.45</ele>
  <time>2026-09-01T19:57:26Z</time>
  <course>108.7</course>
  <speed>0.22135943621178655</speed>
  <fix>3d</fix>
</trkpt>
<trkpt lat="-27.27377" lon="151.2899082">
  <ele>365.06</ele>
  <time>2026-09-01T19:57:26Z</time>
  <course>294.66</course>
  <speed>0.21</speed>
  <fix>3d</fix>
</trkpt>
<trkpt lat="-27.2737698" lon="151.2899072">
  <ele>364.3</ele>
  <time>2026-09-01T19:57:26Z</time>
  <course>108.73</course>
  <speed>0.21189620100417092</speed>
  <fix>3d</fix>
</trkpt>
<trkpt lat="-27.2737699" lon="151.2899079">
  <ele>364.76</ele>
  <time>2026-09-01T19:57:26Z</time>
  <course>295.3</course>
  <speed>0.2</speed>
  <fix>3d</fix>
</trkpt>
<trkpt lat="-27.2737698" lon="151.289907">
  <ele>364.15</ele>
  <time>2026-09-01T19:57:26Z</time>
  <course>108.77</course>
  <speed>0.21189620100417092</speed>
  <fix>3d</fix>
</trkpt>
<trkpt lat="-27.2737699" lon="151.2899079">
  <ele>364.76</ele>
  <time>2026-09-01T19:57:26Z</time>
  <course>295.3</course>
  <speed>0.2</speed>
  <fix>3d</fix>
</trkpt>
<trkpt lat="-27.2737697" lon="151.2899069">
  <ele>364.0</ele>
  <time>2026-09-01T19:57:26Z</time>
  <course>108.81</course>
  <speed>0.20248456731316586</speed>
  <fix>3d</fix>
</trkpt>
<trkpt lat="-27.2737697" lon="151.2899075">
  <ele>364.46</ele>
  <time>2026-09-01T19:57:26Z</time>
  <course>296.16</course>
  <speed>0.19</speed>
  <fix>3d</fix>
</trkpt>
<trkpt lat="-27.2737696" lon="151.2899067">
  <ele>363.85</ele>
  <time>2026-09-01T19:57:26Z</time>
  <course>108.86</course>
  <speed>0.19313207915827968</speed>
  <fix>3d</fix>
</trkpt>
<trkpt lat="-27.2737697" lon="151.2899075">
  <ele>364.46</ele>
  <time>2026-09-01T19:57:26Z</time>
  <course>296.16</course>
  <speed>0.19</speed>
  <fix>3d</fix>
</trkpt>
<trkpt lat="-27.2737695" lon="151.2899066">
  <ele>363.7</ele>
  <time>2026-09-01T19:57:26Z</time>
  <course>108.92</course>
  <speed>0.19313207915827968</speed>
  <fix>3d</fix>
</trkpt>
<trkpt lat="-27.2737695" lon="151.2899072">
  <ele>364.16</ele>
  <time>2026-09-01T19:57:26Z</time>
  <course>297.15</course>
  <speed>0.18</speed>
  <fix>3d</fix>
</trkpt>
<trkpt lat="-27.2737695" lon="151.2899064">
  <ele>363.55</ele>
  <time>2026-09-01T19:57:26Z</time>
  <course>108.98</course>
  <speed>0.18384776310850234</speed>
  <fix>3d</fix>
</trkpt>
<trkpt lat="-27.2737695" lon="151.2899072">
  <ele>364.16</ele>
  <time>2026-09-01T19:57:26Z</time>
  <course>297.15</course>
  <speed>0.18</speed>
  <fix>3d</fix>
</trkpt>
<trkpt lat="-27.2737694" lon="151.2899063">
  <ele>363.4</ele>
  <time>2026-09-01T19:57:26Z</time>
  <course>109.04</course>
  <speed>0.17464249196572978</speed>
  <fix>3d</fix>
</trkpt>
<trkpt lat="-27.2737694" lon="151.2899068">
  <ele>363.86</ele>
  <time>2026-09-01T19:57:26Z</time>
  <course>298.47</course>
  <speed>0.17</speed>
  <fix>3d</fix>
</trkpt>
<trkpt lat="-27.2737693" lon="151.2899061">
  <ele>363.25</ele>
  <time>2026-09-01T19:57:26Z</time>
  <course>109.1</course>
  <speed>0.1708800749063506</speed>
  <fix>3d</fix>
</trkpt>
<trkpt lat="-27.2737694" lon="151.2899068">
  <ele>363.86</ele>
  <time>2026-09-01T19:57:26Z</time>
  <course>298.47</course>
  <speed>0.17</speed>
  <fix>3d</fix>
</trkpt>
<trkpt lat="-27.2737693" lon="151.289906">
  <ele>363.1</ele>
  <time>2026-09-01T19:57:26Z</time>
  <course>109.14</course>
  <speed>0.1615549442140351</speed>
  <fix>3d</fix>
</trkpt>
<trkpt lat="-27.2737692" lon="151.2899065">
  <ele>363.56</ele>
  <time>2026-09-01T19:57:26Z</time>
  <course>300.0</course>
  <speed>0.16</speed>
  <fix>3d</fix>
</trkpt>
<trkpt lat="-27.2737692" lon="151.2899059">
  <ele>362.95</ele>
  <time>2026-09-01T19:57:26Z</time>
  <course>109.18</course>
  <speed>0.15231546211727817</speed>
  <fix>3d</fix>
</trkpt>
<trkpt lat="-27.2737692" lon="151.2899065">
  <ele>363.56</ele>
  <time>2026-09-01T19:57:26Z</time>
  <course>300.0</course>
  <speed>0.16</speed>
  <fix>3d</fix>
</trkpt>
<trkpt lat="-27.2737691" lon="151.2899058">
  <ele>362.8</ele>
  <time>2026-09-01T19:57:26Z</time>
  <course>109.22</course>
  <speed>0.15231546211727817</speed>
  <fix>3d</fix>
</trkpt>
<trkpt lat="-27.2737691" lon="151.2899062">
  <ele>363.26</ele>
  <time>2026-09-01T19:57:26Z</time>
  <course>301.87</course>
  <speed>0.14</speed>
  <fix>3d</fix>
</trkpt>
<trkpt lat="-27.273769" lon="151.2899057">
  <ele>362.65</ele>
  <time>2026-09-01T19:57:26Z</time>
  <course>109.25</course>
  <speed>0.14317821063276354</speed>
  <fix>3d</fix>
</trkpt>
<trkpt lat="-27.2737691" lon="151.2899062">
  <ele>363.26</ele>
  <time>2026-09-01T19:57:26Z</time>
  <course>301.87</course>
  <speed>0.14</speed>
  <fix>3d</fix>
</trkpt>
<trkpt lat="-27.273769" lon="151.2899056">
  <ele>362.49</ele>
  <time>2026-09-01T19:57:26Z</time>
  <course>109.29</course>
  <speed>0.1341640786499874</speed>
  <fix>3d</fix>
</trkpt>
<trkpt lat="-27.2737689" lon="151.289906">
  <ele>362.96</ele>
  <time>2026-09-01T19:57:26Z</time>
  <course>304.02</course>
  <speed>0.13</speed>
  <fix>3d</fix>
</trkpt>
<trkpt lat="-27.2737689" lon="151.2899055">
  <ele>362.35</ele>
  <time>2026-09-01T19:57:26Z</time>
  <course>109.32</course>
  <speed>0.12529964086141668</speed>
  <fix>3d</fix>
</trkpt>
<trkpt lat="-27.2737688" lon="151.2899057">
  <ele>362.66</ele>
  <time>2026-09-01T19:57:26Z</time>
  <course>306.6</course>
  <speed>0.12</speed>
  <fix>3d</fix>
</trkpt>
<trkpt lat="-27.2737688" lon="151.2899054">
  <ele>362.2</ele>
  <time>2026-09-01T19:57:26Z</time>
  <course>109.36</course>
  <speed>0.12529964086141668</speed>
  <fix>3d</fix>
</trkpt>
<trkpt lat="-27.2737688" lon="151.2899057">
  <ele>362.66</ele>
  <time>2026-09-01T19:57:26Z</time>
  <course>306.6</course>
  <speed>0.12</speed>
  <fix>3d</fix>
</trkpt>
<trkpt lat="-27.2737688" lon="151.2899053">
  <ele>362.04</ele>
  <time>2026-09-01T19:57:26Z</time>
  <course>109.41</course>
  <speed>0.11661903789690602</speed>
  <fix>3d</fix>
</trkpt>
<trkpt lat="-27.2737687" lon="151.2899056">
  <ele>362.36</ele>
  <time>2026-09-01T19:57:26Z</time>
  <course>310.18</course>
  <speed>0.1</speed>
  <fix>3d</fix>
</trkpt>
<trkpt lat="-27.2737687" lon="151.2899052">
  <ele>361.89</ele>
  <time>2026-09-01T19:57:26Z</time>
  <course>109.47</course>
  <speed>0.10816653826391968</speed>
  <fix>3d</fix>
</trkpt>
<trkpt lat="-27.2737687" lon="151.2899056">
  <ele>362.36</ele>
  <time>2026-09-01T19:57:26Z</time>
  <course>310.18</course>
  <speed>0.1</speed>
  <fix>3d</fix>
</trkpt>
<trkpt lat="-27.2737686" lon="151.2899052">
  <ele>361.74</ele>
  <time>2026-09-01T19:57:26Z</time>
  <course>109.54</course>
  <speed>0.10295630140987001</speed>
  <fix>3d</fix>
</trkpt>
<trkpt lat="-27.2737687" lon="151.2899056">
  <ele>362.36</ele>
  <time>2026-09-01T19:57:26Z</time>
  <course>310.18</course>
  <speed>0.1</speed>
  <fix>3d</fix>
</trkpt>
<trkpt lat="-27.2737686" lon="151.2899051">
  <ele>361.6</ele>
  <time>2026-09-01T19:57:26Z</time>
  <course>109.62</course>
  <speed>0.09433981132056603</speed>
  <fix>3d</fix>
</trkpt>
<trkpt lat="-27.2737685" lon="151.2899054">
  <ele>362.06</ele>
  <time>2026-09-01T19:57:26Z</time>
  <course>315.01</course>
  <speed>0.09</speed>
  <fix>3d</fix>
</trkpt>
<trkpt lat="-27.2737685" lon="151.289905">
  <ele>361.45</ele>
  <time>2026-09-01T19:57:26Z</time>
  <course>109.71</course>
  <speed>0.08602325267042626</speed>
  <fix>3d</fix>
</trkpt>
<trkpt lat="-27.2737685" lon="151.2899054">
  <ele>362.06</ele>
  <time>2026-09-01T19:57:26Z</time>
  <course>315.01</course>
  <speed>0.09</speed>
  <fix>3d</fix>
</trkpt>
<trkpt lat="-27.2737685" lon="151.289905">
  <ele>361.3</ele>
  <time>2026-09-01T19:57:26Z</time>
  <course>109.78</course>
  <speed>0.07810249675906654</speed>
  <fix>3d</fix>
</trkpt>
<trkpt lat="-27.2737684" lon="151.2899053">
  <ele>361.76</ele>
  <time>2026-09-01T19:57:26Z</time>
  <course>321.12</course>
  <speed>0.08</speed>
  <fix>3d</fix>
</trkpt>
<trkpt lat="-27.2737684" lon="151.289905">
  <ele>361.15</ele>
  <time>2026-09-01T19:57:26Z</time>
  <course>109.84</course>
  <speed>0.07810249675906654</speed>
  <fix>3d</fix>
</trkpt>
<trkpt lat="-27.2737684" lon="151.2899053">
  <ele>361.76</ele>
  <time>2026-09-01T19:57:26Z</time>
  <course>321.12</course>
  <speed>0.08</speed>
  <fix>3d</fix>
</trkpt>
<trkpt lat="-27.2737683" lon="151.2899049">
  <ele>361.0</ele>
  <time>2026-09-01T19:57:26Z</time>
  <course>109.9</course>
  <speed>0.07071067811865475</speed>
  <fix>3d</fix>
</trkpt>
<trkpt lat="-27.2737683" lon="151.2899052">
  <ele>361.46</ele>
  <time>2026-09-01T19:57:26Z</time>
  <course>328.95</course>
  <speed>0.07</speed>
  <fix>3d</fix>
</trkpt>
<trkpt lat="-27.2737683" lon="151.2899049">
  <ele>360.85</ele>
  <time>2026-09-01T19:57:26Z</time>
  <course>109.95</course>
  <speed>0.06403124237432849</speed>
  <fix>3d</fix>
</trkpt>
<trkpt lat="-27.2737683" lon="151.2899052">
  <ele>361.46</ele>
  <time>2026-09-01T19:57:26Z</time>
  <course>328.95</course>
  <speed>0.07</speed>
  <fix>3d</fix>
</trkpt>
<trkpt lat="-27.2737682" lon="151.2899049">
  <ele>360.7</ele>
  <time>2026-09-01T19:57:26Z</time>
  <course>110.01</course>
  <speed>0.05</speed>
  <fix>3d</fix>
</trkpt>
<trkpt lat="-27.2737682" lon="151.2899052">
  <ele>361.16</ele>
  <time>2026-09-01T19:57:26Z</time>
  <course>339.2</course>
  <speed>0.06</speed>
  <fix>3d</fix>
</trkpt>
<trkpt lat="-27.2737682" lon="151.2899049">
  <ele>360.55</ele>
  <time>2026-09-01T19:57:26Z</time>
  <course>110.07</course>
  <speed>0.05</speed>
  <fix>3d</fix>
</trkpt>
<trkpt lat="-27.2737682" lon="151.2899052">
  <ele>361.16</ele>
  <time>2026-09-01T19:57:26Z</time>
  <course>339.2</course>
  <speed>0.06</speed>
  <fix>3d</fix>
</trkpt>
<trkpt lat="-27.2737681" lon="151.2899049">
  <ele>360.4</ele>
  <time>2026-09-01T19:57:26Z</time>
  <course>110.14</course>
  <speed>0.044721359549995794</speed>
  <fix>3d</fix>
</trkpt>
<trkpt lat="-27.2737681" lon="151.2899052">
  <ele>360.86</ele>
  <time>2026-09-01T19:57:26Z</time>
  <course>351.93</course>
  <speed>0.05</speed>
  <fix>3d</fix>
</trkpt>
<trkpt lat="-27.2737681" lon="151.2899049">
  <ele>360.25</ele>
  <time>2026-09-01T19:57:26Z</time>
  <course>110.21</course>
  <speed>0.0412310562561766</speed>
  <fix>3d</fix>
</trkpt>
<trkpt lat="-27.2737681" lon="151.2899052">
  <ele>360.86</ele>
  <time>2026-09-01T19:57:26Z</time>
  <course>351.93</course>
  <speed>0.05</speed>
  <fix>3d</fix>
</trkpt>
<trkpt lat="-27.273768" lon="151.2899049">
  <ele>360.09</ele>
  <time>2026-09-01T19:57:26Z</time>
  <course>110.28</course>
  <speed>0.0412310562561766</speed>
  <fix>3d</fix>
</trkpt>
<trkpt lat="-27.273768" lon="151.2899052">
  <ele>360.56</ele>
  <time>2026-09-01T19:57:26Z</time>
  <course>6.07</course>
  <speed>0.05</speed>
  <fix>3d</fix>
</trkpt>
<trkpt lat="-27.273768" lon="151.2899049">
  <ele>359.94</ele>
  <time>2026-09-01T19:57:26Z</time>
  <course>110.17</course>
  <speed>0.01414213562373095</speed>
  <fix>3d</fix>
</trkpt>
<trkpt lat="-27.273768" lon="151.2899052">
  <ele>360.56</ele>
  <time>2026-09-01T19:57:26Z</time>
  <course>6.07</course>
  <speed>0.05</speed>
  <fix>3d</fix>
</trkpt>
<trkpt lat="-27.273768" lon="151.289905">
  <ele>359.79</ele>
  <time>2026-09-01T19:57:26Z</time>
  <course>109.77</course>
  <speed>0.01</speed>
  <fix>3d</fix>
</trkpt>
<trkpt lat="-27.2737679" lon="151.2899052">
  <ele>360.26</ele>
  <time>2026-09-01T19:57:26Z</time>
  <course>19.69</course>
  <speed>0.04</speed>
  <fix>3d</fix>
</trkpt>
<trkpt lat="-27.273768" lon="151.289905">
  <ele>359.64</ele>
  <time>2026-09-01T19:57:26Z</time>
  <course>109.22</course>
  <speed>0.022360679774997897</speed>
  <fix>3d</fix>
</trkpt>
<trkpt lat="-27.2737679" lon="151.2899052">
  <ele>360.26</ele>
  <time>2026-09-01T19:57:26Z</time>
  <course>19.69</course>
  <speed>0.04</speed>
  <fix>3d</fix>
</trkpt>
<trkpt lat="-27.273768" lon="151.289905">
  <ele>359.49</ele>
  <time>2026-09-01T19:57:26Z</time>
  <course>108.63</course>
  <speed>0.044721359549995794</speed>
  <fix>3d</fix>
</trkpt>
<trkpt lat="-27.2737679" lon="151.2899052">
  <ele>359.96</ele>
  <time>2026-09-01T19:57:26Z</time>
  <course>60.17</course>
  <speed>0.01</speed>
  <fix>3d</fix>
</trkpt>
<trkpt lat="-27.273768" lon="151.289905">
  <ele>359.34</ele>
  <time>2026-09-01T19:57:26Z</time>
  <course>108.1</course>
  <speed>0.0632455532033676</speed>
  <fix>3d</fix>
</trkpt>
<trkpt lat="-27.2737679" lon="151.2899052">
  <ele>359.96</ele>
  <time>2026-09-01T19:57:26Z</time>
  <course>60.17</course>
  <speed>0.01</speed>
  <fix>3d</fix>
</trkpt>
<trkpt lat="-27.273768" lon="151.289905">
  <ele>359.19</ele>
  <time>2026-09-01T19:57:26Z</time>
  <course>107.71</course>
  <speed>0.0824621125123532</speed>
  <fix>3d</fix>
</trkpt>
<trkpt lat="-27.2737679" lon="151.2899052">
  <ele>359.66</ele>
  <time>2026-09-01T19:57:26Z</time>
  <course>160.86</course>
  <speed>0.03</speed>
  <fix>3d</fix>
</trkpt>
<trkpt lat="-27.2737681" lon="151.289905">
  <ele>359.04</ele>
  <time>2026-09-01T19:57:26Z</time>
  <course>107.47</course>
  <speed>0.09486832980505139</speed>
  <fix>3d</fix>
</trkpt>
<trkpt lat="-27.2737679" lon="151.2899052">
  <ele>359.66</ele>
  <time>2026-09-01T19:57:26Z</time>
  <course>160.86</course>
  <speed>0.03</speed>
  <fix>3d</fix>
</trkpt>
<trkpt lat="-27.2737682" lon="151.289905">
  <ele>358.89</ele>
  <time>2026-09-01T19:57:26Z</time>
  <course>107.38</course>
  <speed>0.11401754250991379</speed>
  <fix>3d</fix>
</trkpt>
<trkpt lat="-27.2737679" lon="151.2899052">
  <ele>359.36</ele>
  <time>2026-09-01T19:57:26Z</time>
  <course>175.04</course>
  <speed>0.06</speed>
  <fix>3d</fix>
</trkpt>
<trkpt lat="-27.2737683" lon="151.289905">
  <ele>358.74</ele>
  <time>2026-09-01T19:57:26Z</time>
  <course>107.41</course>
  <speed>0.12369316876852982</speed>
  <fix>3d</fix>
</trkpt>
<trkpt lat="-27.2737679" lon="151.2899052">
  <ele>359.36</ele>
  <time>2026-09-01T19:57:26Z</time>
  <course>175.04</course>
  <speed>0.06</speed>
  <fix>3d</fix>
</trkpt>
<trkpt lat="-27.2737684" lon="151.289905">
  <ele>358.59</ele>
  <time>2026-09-01T19:57:26Z</time>
  <course>107.52</course>
  <speed>0.13601470508735444</speed>
  <fix>3d</fix>
</trkpt>
<trkpt lat="-27.2737681" lon="151.2899052">
  <ele>359.06</ele>
  <time>2026-09-01T19:57:26Z</time>
  <course>179.63</course>
  <speed>0.09</speed>
  <fix>3d</fix>
</trkpt>
<trkpt lat="-27.2737685" lon="151.289905">
  <ele>358.45</ele>
  <time>2026-09-01T19:57:26Z</time>
  <course>107.67</course>
  <speed>0.14560219778561037</speed>
  <fix>3d</fix>
</trkpt>
<trkpt lat="-27.2737681" lon="151.2899052">
  <ele>359.06</ele>
  <time>2026-09-01T19:57:26Z</time>
  <course>179.63</course>
  <speed>0.09</speed>
  <fix>3d</fix>
</trkpt>
<trkpt lat="-27.2737686" lon="151.2899049">
  <ele>358.3</ele>
  <time>2026-09-01T19:57:27Z</time>
  <course>107.82</course>
  <speed>0.15524174696260024</speed>
  <fix>3d</fix>
</trkpt>
<trkpt lat="-27.2737683" lon="151.2899052">
  <ele>358.76</ele>
  <time>2026-09-01T19:57:27Z</time>
  <course>181.95</course>
  <speed>0.12</speed>
  <fix>3d</fix>
</trkpt>
<trkpt lat="-27.2737687" lon="151.2899049">
  <ele>358.15</ele>
  <time>2026-09-01T19:57:27Z</time>
  <course>107.95</course>
  <speed>0.1649242250247064</speed>
  <fix>3d</fix>
</trkpt>
<trkpt lat="-27.2737683" lon="151.2899052">
  <ele>358.76</ele>
  <time>2026-09-01T19:57:27Z</time>
  <course>181.95</course>
  <speed>0.12</speed>
  <fix>3d</fix>
</trkpt>
<trkpt lat="-27.2737689" lon="151.2899049">
  <ele>358.0</ele>
  <time>2026-09-01T19:57:27Z</time>
  <course>108.06</course>
  <speed>0.17464249196572978</speed>
  <fix>3d</fix>
</trkpt>
<trkpt lat="-27.2737685" lon="151.2899052">
  <ele>358.46</ele>
  <time>2026-09-01T19:57:27Z</time>
  <course>183.24</course>
  <speed>0.14</speed>
  <fix>3d</fix>
</trkpt>
<trkpt lat="-27.273769" lon="151.2899049">
  <ele>357.85</ele>
  <time>2026-09-01T19:57:27Z</time>
  <course>108.12</course>
  <speed>0.18439088914585774</speed>
  <fix>3d</fix>
</trkpt>
<trkpt lat="-27.2737685" lon="151.2899052">
  <ele>358.46</ele>
  <time>2026-09-01T19:57:27Z</time>
  <course>183.24</course>
  <speed>0.14</speed>
  <fix>3d</fix>
</trkpt>
<trkpt lat="-27.2737692" lon="151.2899049">
  <ele>357.7</ele>
  <time>2026-09-01T19:57:27Z</time>
  <course>108.13</course>
  <speed>0.18439088914585774</speed>
  <fix>3d</fix>
</trkpt>
<trkpt lat="-27.2737687" lon="151.2899052">
  <ele>358.16</ele>
  <time>2026-09-01T19:57:27Z</time>
  <course>183.88</course>
  <speed>0.16</speed>
  <fix>3d</fix>
</trkpt>
<trkpt lat="-27.2737693" lon="151.2899049">
  <ele>357.55</ele>
  <time>2026-09-01T19:57:27Z</time>
  <course>108.12</course>
  <speed>0.196468827043885</speed>
  <fix>3d</fix>
</trkpt>
<trkpt lat="-27.2737687" lon="151.2899052">
  <ele>358.16</ele>
  <time>2026-09-01T19:57:27Z</time>
  <course>183.88</course>
  <speed>0.16</speed>
  <fix>3d</fix>
</trkpt>
<trkpt lat="-27.2737695" lon="151.2899049">
  <ele>357.4</ele>
  <time>2026-09-01T19:57:27Z</time>
  <course>108.08</course>
  <speed>0.194164878389476</speed>
  <fix>3d</fix>
</trkpt>
<trkpt lat="-27.273769" lon="151.2899052">
  <ele>357.86</ele>
  <time>2026-09-01T19:57:27Z</time>
  <course>184.11</course>
  <speed>0.17</speed>
  <fix>3d</fix>
</trkpt>
<trkpt lat="-27.2737696" lon="151.2899048">
  <ele>357.25</ele>
  <time>2026-09-01T19:57:27Z</time>
  <course>108.03</course>
  <speed>0.194164878389476</speed>
  <fix>3d</fix>
</trkpt>
<trkpt lat="-27.273769" lon="151.2899052">
  <ele>357.86</ele>
  <time>2026-09-01T19:57:27Z</time>
  <course>184.11</course>
  <speed>0.17</speed>
  <fix>3d</fix>
</trkpt>
<trkpt lat="-27.2737698" lon="151.2899048">
  <ele>357.1</ele>
  <time>2026-09-01T19:57:27Z</time>
  <course>107.98</course>
  <speed>0.194164878389476</speed>
  <fix>3d</fix>
</trkpt>
<trkpt lat="-27.2737694" lon="151.2899052">
  <ele>357.56</ele>
  <time>2026-09-01T19:57:27Z</time>
  <course>184.03</course>
  <speed>0.18</speed>
  <fix>3d</fix>
</trkpt>
<trkpt lat="-27.2737699" lon="151.2899048">
  <ele>356.95</ele>
  <time>2026-09-01T19:57:27Z</time>
  <course>107.94</course>
  <speed>0.194164878389476</speed>
  <fix>3d</fix>
</trkpt>
<trkpt lat="-27.2737694" lon="151.2899052">
  <ele>357.56</ele>
  <time>2026-09-01T19:57:27Z</time>
  <course>184.03</course>
  <speed>0.18</speed>
  <fix>3d</fix>
</trkpt>
<trkpt lat="-27.2737701" lon="151.2899048">
  <ele>356.8</ele>
  <time>2026-09-01T19:57:27Z</time>
  <course>107.9</course>
  <speed>0.194164878389476</speed>
  <fix>3d</fix>
</trkpt>
<trkpt lat="-27.2737697" lon="151.2899052">
  <ele>357.26</ele>
  <time>2026-09-01T19:57:27Z</time>
  <course>183.75</course>
  <speed>0.18</speed>
  <fix>3d</fix>
</trkpt>
<trkpt lat="-27.2737703" lon="151.2899048">
  <ele>356.65</ele>
  <time>2026-09-01T19:57:27Z</time>
  <course>107.88</course>
  <speed>0.194164878389476</speed>
  <fix>3d</fix>
</trkpt>
<trkpt lat="-27.2737697" lon="151.2899052">
  <ele>357.26</ele>
  <time>2026-09-01T19:57:27Z</time>
  <course>183.75</course>
  <speed>0.18</speed>
  <fix>3d</fix>
</trkpt>
<trkpt lat="-27.2737704" lon="151.2899048">
  <ele>356.5</ele>
  <time>2026-09-01T19:57:27Z</time>
  <course>107.87</course>
  <speed>0.18439088914585774</speed>
  <fix>3d</fix>
</trkpt>
<trkpt lat="-27.27377" lon="151.2899052">
  <ele>356.96</ele>
  <time>2026-09-01T19:57:27Z</time>
  <course>183.38</course>
  <speed>0.18</speed>
  <fix>3d</fix>
</trkpt>
<trkpt lat="-27.2737706" lon="151.2899048">
  <ele>356.35</ele>
  <time>2026-09-01T19:57:27Z</time>
  <course>107.86</course>
  <speed>0.18439088914585774</speed>
  <fix>3d</fix>
</trkpt>
<trkpt lat="-27.27377" lon="151.2899052">
  <ele>356.96</ele>
  <time>2026-09-01T19:57:27Z</time>
  <course>183.38</course>
  <speed>0.18</speed>
  <fix>3d</fix>
</trkpt>
<trkpt lat="-27.2737707" lon="151.2899048">
  <ele>356.2</ele>
  <time>2026-09-01T19:57:27Z</time>
  <course>107.86</course>
  <speed>0.18439088914585774</speed>
  <fix>3d</fix>
</trkpt>
<trkpt lat="-27.2737703" lon="151.2899051">
  <ele>356.66</ele>
  <time>2026-09-01T19:57:27Z</time>
  <course>182.99</course>
  <speed>0.17</speed>
  <fix>3d</fix>
</trkpt>
<trkpt lat="-27.2737709" lon="151.2899048">
  <ele>356.05</ele>
  <time>2026-09-01T19:57:27Z</time>
  <course>107.86</course>
  <speed>0.17464249196572978</speed>
  <fix>3d</fix>
</trkpt>
<trkpt lat="-27.2737703" lon="151.2899051">
  <ele>356.66</ele>
  <time>2026-09-01T19:57:27Z</time>
  <course>182.99</course>
  <speed>0.17</speed>
  <fix>3d</fix>
</trkpt>
<trkpt lat="-27.273771" lon="151.2899048">
  <ele>355.9</ele>
  <time>2026-09-01T19:57:27Z</time>
  <course>107.86</course>
  <speed>0.16278820596099705</speed>
  <fix>3d</fix>
</trkpt>
<trkpt lat="-27.2737707" lon="151.2899051">
  <ele>356.36</ele>
  <time>2026-09-01T19:57:27Z</time>
  <course>182.45</course>
  <speed>0.17</speed>
  <fix>3d</fix>
</trkpt>
<trkpt lat="-27.2737711" lon="151.2899048">
  <ele>355.75</ele>
  <time>2026-09-01T19:57:27Z</time>
  <course>107.86</course>
  <speed>0.16278820596099705</speed>
  <fix>3d</fix>
</trkpt>
<trkpt lat="-27.2737707" lon="151.2899051">
  <ele>356.36</ele>
  <time>2026-09-01T19:57:27Z</time>
  <course>182.45</course>
  <speed>0.17</speed>
  <fix>3d</fix>
</trkpt>
<trkpt lat="-27.2737713" lon="151.2899048">
  <ele>355.59</ele>
  <time>2026-09-01T19:57:27Z</time>
  <course>107.85</course>
  <speed>0.15297058540778355</speed>
  <fix>3d</fix>
</trkpt>
<trkpt lat="-27.273771" lon="151.2899051">
  <ele>356.06</ele>
  <time>2026-09-01T19:57:27Z</time>
  <course>181.65</course>
  <speed>0.15</speed>
  <fix>3d</fix>
</trkpt>
<trkpt lat="-27.2737714" lon="151.2899048">
  <ele>355.44</ele>
  <time>2026-09-01T19:57:27Z</time>
  <course>107.84</course>
  <speed>0.14317821063276354</speed>
  <fix>3d</fix>
</trkpt>
<trkpt lat="-27.273771" lon="151.2899051">
  <ele>356.06</ele>
  <time>2026-09-01T19:57:27Z</time>
  <course>181.65</course>
  <speed>0.15</speed>
  <fix>3d</fix>
</trkpt>
<trkpt lat="-27.2737715" lon="151.2899048">
  <ele>355.29</ele>
  <time>2026-09-01T19:57:27Z</time>
  <course>107.82</course>
  <speed>0.13341664064126335</speed>
  <fix>3d</fix>
</trkpt>
<trkpt lat="-27.2737713" lon="151.2899051">
  <ele>355.75</ele>
  <time>2026-09-01T19:57:27Z</time>
  <course>180.69</course>
  <speed>0.14</speed>
  <fix>3d</fix>
</trkpt>
<trkpt lat="-27.2737716" lon="151.2899048">
  <ele>355.14</ele>
  <time>2026-09-01T19:57:27Z</time>
  <course>107.8</course>
  <speed>0.13341664064126335</speed>
  <fix>3d</fix>
</trkpt>
<trkpt lat="-27.2737713" lon="151.2899051">
  <ele>355.75</ele>
  <time>2026-09-01T19:57:27Z</time>
  <course>180.69</course>
  <speed>0.14</speed>
  <fix>3d</fix>
</trkpt>
<trkpt lat="-27.2737717" lon="151.2899048">
  <ele>354.99</ele>
  <time>2026-09-01T19:57:27Z</time>
  <course>107.78</course>
  <speed>0.12165525060596438</speed>
  <fix>3d</fix>
</trkpt>
<trkpt lat="-27.2737715" lon="151.2899051">
  <ele>355.45</ele>
  <time>2026-09-01T19:57:27Z</time>
  <course>179.49</course>
  <speed>0.12</speed>
  <fix>3d</fix>
</trkpt>
<trkpt lat="-27.2737718" lon="151.2899048">
  <ele>354.84</ele>
  <time>2026-09-01T19:57:27Z</time>
  <course>107.75</course>
  <speed>0.1118033988749895</speed>
  <fix>3d</fix>
</trkpt>
<trkpt lat="-27.2737715" lon="151.2899051">
  <ele>355.45</ele>
  <time>2026-09-01T19:57:27Z</time>
  <course>179.49</course>
  <speed>0.12</speed>
  <fix>3d</fix>
</trkpt>
<trkpt lat="-27.2737719" lon="151.2899048">
  <ele>354.69</ele>
  <time>2026-09-01T19:57:27Z</time>
  <course>107.72</course>
  <speed>0.1019803902718557</speed>
  <fix>3d</fix>
</trkpt>
<trkpt lat="-27.2737717" lon="151.2899051">
  <ele>355.15</ele>
  <time>2026-09-01T19:57:27Z</time>
  <course>177.69</course>
  <speed>0.11</speed>
  <fix>3d</fix>
</trkpt>
<trkpt lat="-27.273772" lon="151.2899048">
  <ele>354.54</ele>
  <time>2026-09-01T19:57:27Z</time>
  <course>107.69</course>
  <speed>0.09219544457292887</speed>
  <fix>3d</fix>
</trkpt>
<trkpt lat="-27.2737717" lon="151.2899051">
  <ele>355.15</ele>
  <time>2026-09-01T19:57:27Z</time>
  <course>177.69</course>
  <speed>0.11</speed>
  <fix>3d</fix>
</trkpt>
<trkpt lat="-27.2737721" lon="151.2899048">
  <ele>354.39</ele>
  <time>2026-09-01T19:57:27Z</time>
  <course>107.66</course>
  <speed>0.0824621125123532</speed>
  <fix>3d</fix>
</trkpt>
<trkpt lat="-27.2737719" lon="151.2899051">
  <ele>354.85</ele>
  <time>2026-09-01T19:57:27Z</time>
  <course>174.96</course>
  <speed>0.09</speed>
  <fix>3d</fix>
</trkpt>
<trkpt lat="-27.2737721" lon="151.2899048">
  <ele>354.24</ele>
  <time>2026-09-01T19:57:27Z</time>
  <course>107.63</course>
  <speed>0.07071067811865475</speed>
  <fix>3d</fix>
</trkpt>
<trkpt lat="-27.2737719" lon="151.2899051">
  <ele>354.85</ele>
  <time>2026-09-01T19:57:27Z</time>
  <course>174.96</course>
  <speed>0.09</speed>
  <fix>3d</fix>
</trkpt>
<trkpt lat="-27.2737722" lon="151.2899048">
  <ele>354.1</ele>
  <time>2026-09-01T19:57:27Z</time>
  <course>107.58</course>
  <speed>0.06082762530298219</speed>
  <fix>3d</fix>
</trkpt>
<trkpt lat="-27.273772" lon="151.2899051">
  <ele>354.56</ele>
  <time>2026-09-01T19:57:27Z</time>
  <course>171.16</course>
  <speed>0.07</speed>
  <fix>3d</fix>
</trkpt>
<trkpt lat="-27.2737722" lon="151.2899048">
  <ele>353.95</ele>
  <time>2026-09-01T19:57:27Z</time>
  <course>107.53</course>
  <speed>0.05099019513592785</speed>
  <fix>3d</fix>
</trkpt>
<trkpt lat="-27.273772" lon="151.2899051">
  <ele>354.56</ele>
  <time>2026-09-01T19:57:27Z</time>
  <course>171.16</course>
  <speed>0.07</speed>
  <fix>3d</fix>
</trkpt>
<trkpt lat="-27.2737723" lon="151.2899048">
  <ele>353.81</ele>
  <time>2026-09-01T19:57:27Z</time>
  <course>107.48</course>
  <speed>0.05099019513592785</speed>
  <fix>3d</fix>
</trkpt>
<trkpt lat="-27.2737721" lon="151.2899051">
  <ele>354.26</ele>
  <time>2026-09-01T19:57:27Z</time>
  <course>166.08</course>
  <speed>0.05</speed>
  <fix>3d</fix>
</trkpt>
<trkpt lat="-27.2737723" lon="151.2899048">
  <ele>353.67</ele>
  <time>2026-09-01T19:57:27Z</time>
  <course>107.42</course>
  <speed>0.0412310562561766</speed>
  <fix>3d</fix>
</trkpt>
<trkpt lat="-27.2737721" lon="151.2899051">
  <ele>354.26</ele>
  <time>2026-09-01T19:57:27Z</time>
  <course>166.08</course>
  <speed>0.05</speed>
  <fix>3d</fix>
</trkpt>
<trkpt lat="-27.2737723" lon="151.2899048">
  <ele>353.53</ele>
  <time>2026-09-01T19:57:27Z</time>
  <course>107.35</course>
  <speed>0.0316227766016838</speed>
  <fix>3d</fix>
</trkpt>
<trkpt lat="-27.2737722" lon="151.2899051">
  <ele>353.97</ele>
  <time>2026-09-01T19:57:27Z</time>
  <course>158.84</course>
  <speed>0.04</speed>
  <fix>3d</fix>
</trkpt>
<trkpt lat="-27.2737723" lon="151.2899048">
  <ele>353.4</ele>
  <time>2026-09-01T19:57:27Z</time>
  <course>107.27</course>
  <speed>0.0316227766016838</speed>
  <fix>3d</fix>
</trkpt>
<trkpt lat="-27.2737722" lon="151.2899051">
  <ele>353.97</ele>
  <time>2026-09-01T19:57:27Z</time>
  <course>158.84</course>
  <speed>0.04</speed>
  <fix>3d</fix>
</trkpt>
<trkpt lat="-27.2737724" lon="151.2899048">
  <ele>353.26</ele>
  <time>2026-09-01T19:57:27Z</time>
  <course>107.19</course>
  <speed>0.022360679774997897</speed>
  <fix>3d</fix>
</trkpt>
<trkpt lat="-27.2737723" lon="151.2899051">
  <ele>353.69</ele>
  <time>2026-09-01T19:57:27Z</time>
  <course>147.34</course>
  <speed>0.02</speed>
  <fix>3d</fix>
</trkpt>
<trkpt lat="-27.2737724" lon="151.2899048">
  <ele>353.13</ele>
  <time>2026-09-01T19:57:27Z</time>
  <course>107.11</course>
  <speed>0.022360679774997897</speed>
  <fix>3d</fix>
</trkpt>
<trkpt lat="-27.2737723" lon="151.2899051">
  <ele>353.69</ele>
  <time>2026-09-01T19:57:27Z</time>
  <course>147.34</course>
  <speed>0.02</speed>
  <fix>3d</fix>
</trkpt>
<trkpt lat="-27.2737724" lon="151.2899049">
  <ele>352.99</ele>
  <time>2026-09-01T19:57:27Z</time>
  <course>107.02</course>
  <speed>0.022360679774997897</speed>
  <fix>3d</fix>
</trkpt>
<trkpt lat="-27.2737724" lon="151.2899051">
  <ele>353.42</ele>
  <time>2026-09-01T19:57:27Z</time>
  <course>128.32</course>
  <speed>0.01</speed>
  <fix>3d</fix>
</trkpt>
<trkpt lat="-27.2737724" lon="151.2899049">
  <ele>352.86</ele>
  <time>2026-09-01T19:57:27Z</time>
  <course>106.93</course>
  <speed>0.022360679774997897</speed>
  <fix>3d</fix>
</trkpt>
<trkpt lat="-27.2737724" lon="151.2899051">
  <ele>353.42</ele>
  <time>2026-09-01T19:57:27Z</time>
  <course>128.32</course>
  <speed>0.01</speed>
  <fix>3d</fix>
</trkpt>
<trkpt lat="-27.2737724" lon="151.2899049">
  <ele>352.74</ele>
  <time>2026-09-01T19:57:27Z</time>
  <course>106.83</course>
  <speed>0.022360679774997897</speed>
  <fix>3d</fix>
</trkpt>
<trkpt lat="-27.2737724" lon="151.2899052">
  <ele>353.16</ele>
  <time>2026-09-01T19:57:27Z</time>
  <course>98.98</course>
  <speed>0.01</speed>
  <fix>3d</fix>
</trkpt>
<trkpt lat="-27.2737724" lon="151.2899049">
  <ele>352.61</ele>
  <time>2026-09-01T19:57:27Z</time>
  <course>106.69</course>
  <speed>0.022360679774997897</speed>
  <fix>3d</fix>
</trkpt>
<trkpt lat="-27.2737724" lon="151.2899052">
  <ele>353.16</ele>
  <time>2026-09-01T19:57:27Z</time>
  <course>98.98</course>
  <speed>0.01</speed>
  <fix>3d</fix>
</trkpt>
<trkpt lat="-27.2737724" lon="151.2899049">
  <ele>352.49</ele>
  <time>2026-09-01T19:57:27Z</time>
  <course>106.54</course>
  <speed>0.0316227766016838</speed>
  <fix>3d</fix>
</trkpt>
<trkpt lat="-27.2737724" lon="151.2899052">
  <ele>352.9</ele>
  <time>2026-09-01T19:57:27Z</time>
  <course>71.19</course>
  <speed>0.01</speed>
  <fix>3d</fix>
</trkpt>
<trkpt lat="-27.2737724" lon="151.2899049">
  <ele>352.37</ele>
  <time>2026-09-01T19:57:27Z</time>
  <course>106.39</course>
  <speed>0.0316227766016838</speed>
  <fix>3d</fix>
</trkpt>
<trkpt lat="-27.2737724" lon="151.2899052">
  <ele>352.9</ele>
  <time>2026-09-01T19:57:27Z</time>
  <course>71.19</course>
  <speed>0.01</speed>
  <fix>3d</fix>
</trkpt>
<trkpt lat="-27.2737724" lon="151.2899049">
  <ele>352.25</ele>
  <time>2026-09-01T19:57:27Z</time>
  <course>106.26</course>
  <speed>0.0316227766016838</speed>
  <fix>3d</fix>
</trkpt>
<trkpt lat="-27.2737724" lon="151.2899052">
  <ele>352.65</ele>
  <time>2026-09-01T19:57:27Z</time>
  <course>47.15</course>
  <speed>0.0</speed>
  <fix>3d</fix>
</trkpt>
<trkpt lat="-27.2737724" lon="151.2899049">
  <ele>352.14</ele>
  <time>2026-09-01T19:57:27Z</time>
  <course>106.16</course>
  <speed>0.0316227766016838</speed>
  <fix>3d</fix>
</trkpt>
<trkpt lat="-27.2737724" lon="151.2899052">
  <ele>352.65</ele>
  <time>2026-09-01T19:57:27Z</time>
  <course>47.15</course>
  <speed>0.0</speed>
  <fix>3d</fix>
</trkpt>
<trkpt lat="-27.2737724" lon="151.2899049">
  <ele>352.03</ele>
  <time>2026-09-01T19:57:27Z</time>
  <course>106.08</course>
  <speed>0.0412310562561766</speed>
  <fix>3d</fix>
</trkpt>
<trkpt lat="-27.2737724" lon="151.2899052">
  <ele>352.41</ele>
  <time>2026-09-01T19:57:27Z</time>
  <course>356.63</course>
  <speed>0.0</speed>
  <fix>3d</fix>
</trkpt>
<trkpt lat="-27.2737724" lon="151.2899049">
  <ele>351.92</ele>
  <time>2026-09-01T19:57:27Z</time>
  <course>106.03</course>
  <speed>0.0412310562561766</speed>
  <fix>3d</fix>
</trkpt>
<trkpt lat="-27.2737724" lon="151.2899052">
  <ele>352.41</ele>
  <time>2026-09-01T19:57:27Z</time>
  <course>356.63</course>
  <speed>0.0</speed>
  <fix>3d</fix>
</trkpt>
<trkpt lat="-27.2737724" lon="151.2899049">
  <ele>351.82</ele>
  <time>2026-09-01T19:57:27Z</time>
  <course>106.0</course>
  <speed>0.0412310562561766</speed>
  <fix>3d</fix>
</trkpt>
<trkpt lat="-27.2737724" lon="151.2899052">
  <ele>352.19</ele>
  <time>2026-09-01T19:57:27Z</time>
  <course>311.04</course>
  <speed>0.0</speed>
  <fix>3d</fix>
</trkpt>
<trkpt lat="-27.2737724" lon="151.2899049">
  <ele>351.71</ele>
  <time>2026-09-01T19:57:27Z</time>
  <course>105.99</course>
  <speed>0.0412310562561766</speed>
  <fix>3d</fix>
</trkpt>
<trkpt lat="-27.2737724" lon="151.2899052">
  <ele>352.19</ele>
  <time>2026-09-01T19:57:27Z</time>
  <course>311.04</course>
  <speed>0.0</speed>
  <fix>3d</fix>
</trkpt>
<trkpt lat="-27.2737724" lon="151.2899049">
  <ele>351.61</ele>
  <time>2026-09-01T19:57:27Z</time>
  <course>105.98</course>
  <speed>0.05099019513592785</speed>
  <fix>3d</fix>
</trkpt>
<trkpt lat="-27.2737724" lon="151.2899052">
  <ele>351.97</ele>
  <time>2026-09-01T19:57:27Z</time>
  <course>296.0</course>
  <speed>0.01</speed>
  <fix>3d</fix>
</trkpt>
<trkpt lat="-27.2737724" lon="151.2899049">
  <ele>351.51</ele>
  <time>2026-09-01T19:57:27Z</time>
  <course>105.97</course>
  <speed>0.05099019513592785</speed>
  <fix>3d</fix>
</trkpt>
<trkpt lat="-27.2737724" lon="151.2899052">
  <ele>351.97</ele>
  <time>2026-09-01T19:57:27Z</time>
  <course>296.0</course>
  <speed>0.01</speed>
  <fix>3d</fix>
</trkpt>
<trkpt lat="-27.2737724" lon="151.2899049">
  <ele>351.41</ele>
  <time>2026-09-01T19:57:27Z</time>
  <course>105.94</course>
  <speed>0.05099019513592785</speed>
  <fix>3d</fix>
</trkpt>
<trkpt lat="-27.2737724" lon="151.2899052">
  <ele>351.77</ele>
  <time>2026-09-01T19:57:27Z</time>
  <course>287.95</course>
  <speed>0.01</speed>
  <fix>3d</fix>
</trkpt>
<trkpt lat="-27.2737724" lon="151.2899048">
  <ele>351.31</ele>
  <time>2026-09-01T19:57:27Z</time>
  <course>105.91</course>
  <speed>0.05099019513592785</speed>
  <fix>3d</fix>
</trkpt>
<trkpt lat="-27.2737724" lon="151.2899052">
  <ele>351.77</ele>
  <time>2026-09-01T19:57:27Z</time>
  <course>287.95</course>
  <speed>0.01</speed>
  <fix>3d</fix>
</trkpt>
<trkpt lat="-27.2737724" lon="151.2899048">
  <ele>351.21</ele>
  <time>2026-09-01T19:57:27Z</time>
  <course>105.88</course>
  <speed>0.05099019513592785</speed>
  <fix>3d</fix>
</trkpt>
<trkpt lat="-27.2737724" lon="151.2899052">
  <ele>351.57</ele>
  <time>2026-09-01T19:57:27Z</time>
  <course>283.63</course>
  <speed>0.01</speed>
  <fix>3d</fix>
</trkpt>
<trkpt lat="-27.2737724" lon="151.2899048">
  <ele>351.12</ele>
  <time>2026-09-01T19:57:27Z</time>
  <course>105.84</course>
  <speed>0.05099019513592785</speed>
  <fix>3d</fix>
</trkpt>
<trkpt lat="-27.2737724" lon="151.2899052">
  <ele>351.57</ele>
  <time>2026-09-01T19:57:27Z</time>
  <course>283.63</course>
  <speed>0.01</speed>
  <fix>3d</fix>
</trkpt>
<trkpt lat="-27.2737724" lon="151.2899048">
  <ele>351.03</ele>
  <time>2026-09-01T19:57:27Z</time>
  <course>105.81</course>
  <speed>0.05099019513592785</speed>
  <fix>3d</fix>
</trkpt>
<trkpt lat="-27.2737724" lon="151.2899052">
  <ele>351.37</ele>
  <time>2026-09-01T19:57:27Z</time>
  <course>281.61</course>
  <speed>0.01</speed>
  <fix>3d</fix>
</trkpt>
<trkpt lat="-27.2737724" lon="151.2899048">
  <ele>350.94</ele>
  <time>2026-09-01T19:57:27Z</time>
  <course>105.77</course>
  <speed>0.05099019513592785</speed>
  <fix>3d</fix>
</trkpt>
<trkpt lat="-27.2737724" lon="151.2899052">
  <ele>351.37</ele>
  <time>2026-09-01T19:57:27Z</time>
  <course>281.61</course>
  <speed>0.01</speed>
  <fix>3d</fix>
</trkpt>
<trkpt lat="-27.2737724" lon="151.2899048">
  <ele>350.85</ele>
  <time>2026-09-01T19:57:27Z</time>
  <course>105.73</course>
  <speed>0.05099019513592785</speed>
  <fix>3d</fix>
</trkpt>
<trkpt lat="-27.2737724" lon="151.2899052">
  <ele>351.19</ele>
  <time>2026-09-01T19:57:27Z</time>
  <course>279.8</course>
  <speed>0.02</speed>
  <fix>3d</fix>
</trkpt>
<trkpt lat="-27.2737724" lon="151.2899047">
  <ele>350.76</ele>
  <time>2026-09-01T19:57:27Z</time>
  <course>105.7</course>
  <speed>0.05099019513592785</speed>
  <fix>3d</fix>
</trkpt>
<trkpt lat="-27.2737724" lon="151.2899052">
  <ele>351.19</ele>
  <time>2026-09-01T19:57:27Z</time>
  <course>279.8</course>
  <speed>0.02</speed>
  <fix>3d</fix>
</trkpt>
<trkpt lat="-27.2737724" lon="151.2899047">
  <ele>350.68</ele>
  <time>2026-09-01T19:57:27Z</time>
  <course>105.67</course>
  <speed>0.05099019513592785</speed>
  <fix>3d</fix>
</trkpt>
<trkpt lat="-27.2737724" lon="151.2899051">
  <ele>351.01</ele>
  <time>2026-09-01T19:57:27Z</time>
  <course>277.95</course>
  <speed>0.02</speed>
  <fix>3d</fix>
</trkpt>
<trkpt lat="-27.2737724" lon="151.2899047">
  <ele>350.59</ele>
  <time>2026-09-01T19:57:27Z</time>
  <course>105.65</course>
  <speed>0.05099019513592785</speed>
  <fix>3d</fix>
</trkpt>
<trkpt lat="-27.2737724" lon="151.2899051">
  <ele>351.01</ele>
  <time>2026-09-01T19:57:27Z</time>
  <course>277.95</course>
  <speed>0.02</speed>
  <fix>3d</fix>
</trkpt>
<trkpt lat="-27.2737724" lon="151.2899047">
  <ele>350.51</ele>
  <time>2026-09-01T19:57:27Z</time>
  <course>105.62</course>
  <speed>0.05099019513592785</speed>
  <fix>3d</fix>
</trkpt>
<trkpt lat="-27.2737724" lon="151.2899051">
  <ele>350.83</ele>
  <time>2026-09-01T19:57:27Z</time>
  <course>276.55</course>
  <speed>0.02</speed>
  <fix>3d</fix>
</trkpt>
<trkpt lat="-27.2737724" lon="151.2899047">
  <ele>350.43</ele>
  <time>2026-09-01T19:57:27Z</time>
  <course>105.61</course>
  <speed>0.05099019513592785</speed>
  <fix>3d</fix>
</trkpt>
<trkpt lat="-27.2737724" lon="151.2899051">
  <ele>350.83</ele>
  <time>2026-09-01T19:57:27Z</time>
  <course>276.55</course>
  <speed>0.02</speed>
  <fix>3d</fix>
</trkpt>
<trkpt lat="-27.2737724" lon="151.2899047">
  <ele>350.35</ele>
  <time>2026-09-01T19:57:27Z</time>
  <course>105.59</course>
  <speed>0.05099019513592785</speed>
  <fix>3d</fix>
</trkpt>
<trkpt lat="-27.2737724" lon="151.289905">
  <ele>350.66</ele>
  <time>2026-09-01T19:57:27Z</time>
  <course>275.54</course>
  <speed>0.02</speed>
  <fix>3d</fix>
</trkpt>
<trkpt lat="-27.2737725" lon="151.2899047">
  <ele>350.27</ele>
  <time>2026-09-01T19:57:27Z</time>
  <course>105.59</course>
  <speed>0.05099019513592785</speed>
  <fix>3d</fix>
</trkpt>
<trkpt lat="-27.2737724" lon="151.289905">
  <ele>350.66</ele>
  <time>2026-09-01T19:57:27Z</time>
  <course>275.54</course>
  <speed>0.02</speed>
  <fix>3d</fix>
</trkpt>
<trkpt lat="-27.2737725" lon="151.2899046">
  <ele>350.2</ele>
  <time>2026-09-01T19:57:27Z</time>
  <course>105.57</course>
  <speed>0.05099019513592785</speed>
  <fix>3d</fix>
</trkpt>
<trkpt lat="-27.2737724" lon="151.289905">
  <ele>350.5</ele>
  <time>2026-09-01T19:57:27Z</time>
  <course>274.34</course>
  <speed>0.02</speed>
  <fix>3d</fix>
</trkpt>
<trkpt lat="-27.2737725" lon="151.2899046">
  <ele>350.12</ele>
  <time>2026-09-01T19:57:27Z</time>
  <course>105.55</course>
  <speed>0.05099019513592785</speed>
  <fix>3d</fix>
</trkpt>
<trkpt lat="-27.2737724" lon="151.289905">
  <ele>350.5</ele>
  <time>2026-09-01T19:57:27Z</time>
  <course>274.34</course>
  <speed>0.02</speed>
  <fix>3d</fix>
</trkpt>
<trkpt lat="-27.2737725" lon="151.2899046">
  <ele>350.05</ele>
  <time>2026-09-01T19:57:27Z</time>
  <course>105.53</course>
  <speed>0.05099019513592785</speed>
  <fix>3d</fix>
</trkpt>
<trkpt lat="-27.2737724" lon="151.289905">
  <ele>350.34</ele>
  <time>2026-09-01T19:57:27Z</time>
  <course>272.81</course>
  <speed>0.02</speed>
  <fix>3d</fix>
</trkpt>
<trkpt lat="-27.2737725" lon="151.2899046">
  <ele>349.98</ele>
  <time>2026-09-01T19:57:27Z</time>
  <course>105.5</course>
  <speed>0.05099019513592785</speed>
  <fix>3d</fix>
</trkpt>
<trkpt lat="-27.2737724" lon="151.289905">
  <ele>350.34</ele>
  <time>2026-09-01T19:57:27Z</time>
  <course>272.81</course>
  <speed>0.02</speed>
  <fix>3d</fix>
</trkpt>
<trkpt lat="-27.2737725" lon="151.2899046">
  <ele>349.91</ele>
  <time>2026-09-01T19:57:27Z</time>
  <course>105.47</course>
  <speed>0.0412310562561766</speed>
  <fix>3d</fix>
</trkpt>
<trkpt lat="-27.2737724" lon="151.2899049">
  <ele>350.18</ele>
  <time>2026-09-01T19:57:27Z</time>
  <course>270.94</course>
  <speed>0.02</speed>
  <fix>3d</fix>
</trkpt>
<trkpt lat="-27.2737725" lon="151.2899046">
  <ele>349.84</ele>
  <time>2026-09-01T19:57:27Z</time>
  <course>105.44</course>
  <speed>0.0412310562561766</speed>
  <fix>3d</fix>
</trkpt>
<trkpt lat="-27.2737724" lon="151.2899049">
  <ele>350.18</ele>
  <time>2026-09-01T19:57:27Z</time>
  <course>270.94</course>
  <speed>0.02</speed>
  <fix>3d</fix>
</trkpt>
<trkpt lat="-27.2737725" lon="151.2899046">
  <ele>349.77</ele>
  <time>2026-09-01T19:57:27Z</time>
  <course>105.41</course>
  <speed>0.0412310562561766</speed>
  <fix>3d</fix>
</trkpt>
<trkpt lat="-27.2737724" lon="151.2899048">
  <ele>350.03</ele>
  <time>2026-09-01T19:57:27Z</time>
  <course>268.61</course>
  <speed>0.01</speed>
  <fix>3d</fix>
</trkpt>
<trkpt lat="-27.2737725" lon="151.2899045">
  <ele>349.7</ele>
  <time>2026-09-01T19:57:27Z</time>
  <course>105.38</course>
  <speed>0.0412310562561766</speed>
  <fix>3d</fix>
</trkpt>
<trkpt lat="-27.2737724" lon="151.2899048">
  <ele>350.03</ele>
  <time>2026-09-01T19:57:27Z</time>
  <course>268.61</course>
  <speed>0.01</speed>
  <fix>3d</fix>
</trkpt>
<trkpt lat="-27.2737725" lon="151.2899045">
  <ele>349.63</ele>
  <time>2026-09-01T19:57:27Z</time>
  <course>105.36</course>
  <speed>0.0412310562561766</speed>
  <fix>3d</fix>
</trkpt>
<trkpt lat="-27.2737724" lon="151.2899048">
  <ele>349.89</ele>
  <time>2026-09-01T19:57:27Z</time>
  <course>265.9</course>
  <speed>0.01</speed>
  <fix>3d</fix>
</trkpt>
<trkpt lat="-27.2737725" lon="151.2899045">
  <ele>349.56</ele>
  <time>2026-09-01T19:57:27Z</time>
  <course>105.36</course>
  <speed>0.0412310562561766</speed>
  <fix>3d</fix>
</trkpt>
<trkpt lat="-27.2737724" lon="151.2899048">
  <ele>349.89</ele>
  <time>2026-09-01T19:57:27Z</time>
  <course>265.9</course>
  <speed>0.01</speed>
  <fix>3d</fix>
</trkpt>
<trkpt lat="-27.2737725" lon="151.2899045">
  <ele>349.49</ele>
  <time>2026-09-01T19:57:27Z</time>
  <course>105.38</course>
  <speed>0.0412310562561766</speed>
  <fix>3d</fix>
</trkpt>
<trkpt lat="-27.2737724" lon="151.2899047">
  <ele>349.75</ele>
  <time>2026-09-01T19:57:27Z</time>
  <course>267.27</course>
  <speed>0.01</speed>
  <fix>3d</fix>
</trkpt>
<trkpt lat="-27.2737725" lon="151.2899045">
  <ele>349.43</ele>
  <time>2026-09-01T19:57:27Z</time>
  <course>105.44</course>
  <speed>0.0316227766016838</speed>
  <fix>3d</fix>
</trkpt>
<trkpt lat="-27.2737724" lon="151.2899047">
  <ele>349.75</ele>
  <time>2026-09-01T19:57:27Z</time>
  <course>267.27</course>
  <speed>0.01</speed>
  <fix>3d</fix>
</trkpt>
<trkpt lat="-27.2737725" lon="151.2899045">
  <ele>349.36</ele>
  <time>2026-09-01T19:57:27Z</time>
  <course>105.53</course>
  <speed>0.03</speed>
  <fix>3d</fix>
</trkpt>
<trkpt lat="-27.2737724" lon="151.2899047">
  <ele>349.61</ele>
  <time>2026-09-01T19:57:27Z</time>
  <course>285.36</course>
  <speed>0.01</speed>
  <fix>3d</fix>
</trkpt>
<trkpt lat="-27.2737725" lon="151.2899045">
  <ele>349.3</ele>
  <time>2026-09-01T19:57:27Z</time>
  <course>105.65</course>
  <speed>0.03</speed>
  <fix>3d</fix>
</trkpt>
<trkpt lat="-27.2737724" lon="151.2899047">
  <ele>349.61</ele>
  <time>2026-09-01T19:57:27Z</time>
  <course>285.36</course>
  <speed>0.01</speed>
  <fix>3d</fix>
</trkpt>
<trkpt lat="-27.2737724" lon="151.2899045">
  <ele>349.24</ele>
  <time>2026-09-01T19:57:27Z</time>
  <course>105.78</course>
  <speed>0.03</speed>
  <fix>3d</fix>
</trkpt>
<trkpt lat="-27.2737724" lon="151.2899047">
  <ele>349.48</ele>
  <time>2026-09-01T19:57:27Z</time>
  <course>330.19</course>
  <speed>0.01</speed>
  <fix>3d</fix>
</trkpt>
<trkpt lat="-27.2737724" lon="151.2899045">
  <ele>349.18</ele>
  <time>2026-09-01T19:57:27Z</time>
  <course>105.91</course>
  <speed>0.022360679774997897</speed>
  <fix>3d</fix>
</trkpt>
<trkpt lat="-27.2737724" lon="151.2899047">
  <ele>349.48</ele>
  <time>2026-09-01T19:57:27Z</time>
  <course>330.19</course>
  <speed>0.01</speed>
  <fix>3d</fix>
</trkpt>
<trkpt lat="-27.2737724" lon="151.2899045">
  <ele>349.12</ele>
  <time>2026-09-01T19:57:27Z</time>
  <course>106.02</course>
  <speed>0.022360679774997897</speed>
  <fix>3d</fix>
</trkpt>
<trkpt lat="-27.2737723" lon="151.2899047">
  <ele>349.35</ele>
  <time>2026-09-01T19:57:27Z</time>
  <course>358.83</course>
  <speed>0.02</speed>
  <fix>3d</fix>
</trkpt>
<trkpt lat="-27.2737724" lon="151.2899045">
  <ele>349.06</ele>
  <time>2026-09-01T19:57:27Z</time>
  <course>106.11</course>
  <speed>0.0282842712474619</speed>
  <fix>3d</fix>
</trkpt>
<trkpt lat="-27.2737723" lon="151.2899047">
  <ele>349.35</ele>
  <time>2026-09-01T19:57:27Z</time>
  <course>358.83</course>
  <speed>0.02</speed>
  <fix>3d</fix>
</trkpt>
<trkpt lat="-27.2737724" lon="151.2899045">
  <ele>349.0</ele>
  <time>2026-09-01T19:57:27Z</time>
  <course>106.18</course>
  <speed>0.0316227766016838</speed>
  <fix>3d</fix>
</trkpt>
<trkpt lat="-27.2737723" lon="151.2899047">
  <ele>349.23</ele>
  <time>2026-09-01T19:57:27Z</time>
  <course>9.17</course>
  <speed>0.03</speed>
  <fix>3d</fix>
</trkpt>
<trkpt lat="-27.2737724" lon="151.2899045">
  <ele>348.94</ele>
  <time>2026-09-01T19:57:27Z</time>
  <course>106.22</course>
  <speed>0.0316227766016838</speed>
  <fix>3d</fix>
</trkpt>
<trkpt lat="-27.2737723" lon="151.2899047">
  <ele>349.23</ele>
  <time>2026-09-01T19:57:27Z</time>
  <course>9.17</course>
  <speed>0.03</speed>
  <fix>3d</fix>
</trkpt>
<trkpt lat="-27.2737723" lon="151.2899045">
  <ele>348.88</ele>
  <time>2026-09-01T19:57:27Z</time>
  <course>106.24</course>
  <speed>0.0412310562561766</speed>
  <fix>3d</fix>
</trkpt>
<trkpt lat="-27.2737722" lon="151.2899047">
  <ele>349.11</ele>
  <time>2026-09-01T19:57:27Z</time>
  <course>13.85</course>
  <speed>0.04</speed>
  <fix>3d</fix>
</trkpt>
<trkpt lat="-27.2737723" lon="151.2899045">
  <ele>348.83</ele>
  <time>2026-09-01T19:57:27Z</time>
  <course>106.24</course>
  <speed>0.0412310562561766</speed>
  <fix>3d</fix>
</trkpt>
<trkpt lat="-27.2737722" lon="151.2899047">
  <ele>349.11</ele>
  <time>2026-09-01T19:57:27Z</time>
  <course>13.85</course>
  <speed>0.04</speed>
  <fix>3d</fix>
</trkpt>
<trkpt lat="-27.2737722" lon="151.2899045">
  <ele>348.77</ele>
  <time>2026-09-01T19:57:27Z</time>
  <course>106.24</course>
  <speed>0.05</speed>
  <fix>3d</fix>
</trkpt>
<trkpt lat="-27.2737721" lon="151.2899047">
  <ele>349.0</ele>
  <time>2026-09-01T19:57:27Z</time>
  <course>16.58</course>
  <speed>0.06</speed>
  <fix>3d</fix>
</trkpt>
<trkpt lat="-27.2737721" lon="151.2899045">
  <ele>348.72</ele>
  <time>2026-09-01T19:57:27Z</time>
  <course>106.24</course>
  <speed>0.06</speed>
  <fix>3d</fix>
</trkpt>
<trkpt lat="-27.2737721" lon="151.2899047">
  <ele>349.0</ele>
  <time>2026-09-01T19:57:27Z</time>
  <course>16.58</course>
  <speed>0.06</speed>
  <fix>3d</fix>
</trkpt>
<trkpt lat="-27.2737721" lon="151.2899045">
  <ele>348.67</ele>
  <time>2026-09-01T19:57:27Z</time>
  <course>106.23</course>
  <speed>0.06</speed>
  <fix>3d</fix>
</trkpt>
<trkpt lat="-27.273772" lon="151.2899047">
  <ele>348.89</ele>
  <time>2026-09-01T19:57:27Z</time>
  <course>18.1</course>
  <speed>0.07</speed>
  <fix>3d</fix>
</trkpt>
<trkpt lat="-27.273772" lon="151.2899045">
  <ele>348.62</ele>
  <time>2026-09-01T19:57:27Z</time>
  <course>106.24</course>
  <speed>0.06</speed>
  <fix>3d</fix>
</trkpt>
<trkpt lat="-27.273772" lon="151.2899047">
  <ele>348.89</ele>
  <time>2026-09-01T19:57:27Z</time>
  <course>18.1</course>
  <speed>0.07</speed>
  <fix>3d</fix>
</trkpt>
<trkpt lat="-27.2737719" lon="151.2899045">
  <ele>348.57</ele>
  <time>2026-09-01T19:57:27Z</time>
  <course>106.24</course>
  <speed>0.07</speed>
  <fix>3d</fix>
</trkpt>
<trkpt lat="-27.2737718" lon="151.2899047">
  <ele>348.78</ele>
  <time>2026-09-01T19:57:27Z</time>
  <course>19.12</course>
  <speed>0.08</speed>
  <fix>3d</fix>
</trkpt>
<trkpt lat="-27.2737718" lon="151.2899045">
  <ele>348.52</ele>
  <time>2026-09-01T19:57:27Z</time>
  <course>106.26</course>
  <speed>0.07</speed>
  <fix>3d</fix>
</trkpt>
<trkpt lat="-27.2737718" lon="151.2899047">
  <ele>348.78</ele>
  <time>2026-09-01T19:57:27Z</time>
  <course>19.12</course>
  <speed>0.08</speed>
  <fix>3d</fix>
</trkpt>
<trkpt lat="-27.2737717" lon="151.2899046">
  <ele>348.47</ele>
  <time>2026-09-01T19:57:27Z</time>
  <course>106.28</course>
  <speed>0.07</speed>
  <fix>3d</fix>
</trkpt>
<trkpt lat="-27.2737717" lon="151.2899048">
  <ele>348.69</ele>
  <time>2026-09-01T19:57:27Z</time>
  <course>20.15</course>
  <speed>0.09</speed>
  <fix>3d</fix>
</trkpt>
<trkpt lat="-27.2737717" lon="151.2899046">
  <ele>348.42</ele>
  <time>2026-09-01T19:57:27Z</time>
  <course>106.31</course>
  <speed>0.07</speed>
  <fix>3d</fix>
</trkpt>
<trkpt lat="-27.2737717" lon="151.2899048">
  <ele>348.69</ele>
  <time>2026-09-01T19:57:27Z</time>
  <course>20.15</course>
  <speed>0.09</speed>
  <fix>3d</fix>
</trkpt>
<trkpt lat="-27.2737716" lon="151.2899046">
  <ele>348.37</ele>
  <time>2026-09-01T19:57:27Z</time>
  <course>106.33</course>
  <speed>0.08</speed>
  <fix>3d</fix>
</trkpt>
<trkpt lat="-27.2737715" lon="151.2899049">
  <ele>348.59</ele>
  <time>2026-09-01T19:57:27Z</time>
  <course>21.3</course>
  <speed>0.1</speed>
  <fix>3d</fix>
</trkpt>
<trkpt lat="-27.2737715" lon="151.2899047">
  <ele>348.32</ele>
  <time>2026-09-01T19:57:27Z</time>
  <course>106.35</course>
  <speed>0.08</speed>
  <fix>3d</fix>
</trkpt>
<trkpt lat="-27.2737715" lon="151.2899049">
  <ele>348.59</ele>
  <time>2026-09-01T19:57:27Z</time>
  <course>21.3</course>
  <speed>0.1</speed>
  <fix>3d</fix>
</trkpt>
<trkpt lat="-27.2737714" lon="151.2899047">
  <ele>348.27</ele>
  <time>2026-09-01T19:57:27Z</time>
  <course>106.36</course>
  <speed>0.08</speed>
  <fix>3d</fix>
</trkpt>
<trkpt lat="-27.2737714" lon="151.289905">
  <ele>348.5</ele>
  <time>2026-09-01T19:57:27Z</time>
  <course>22.57</course>
  <speed>0.1</speed>
  <fix>3d</fix>
</trkpt>
<trkpt lat="-27.2737713" lon="151.2899047">
  <ele>348.23</ele>
  <time>2026-09-01T19:57:27Z</time>
  <course>106.37</course>
  <speed>0.08062257748298549</speed>
  <fix>3d</fix>
</trkpt>
<trkpt lat="-27.2737714" lon="151.289905">
  <ele>348.5</ele>
  <time>2026-09-01T19:57:27Z</time>
  <course>22.57</course>
  <speed>0.1</speed>
  <fix>3d</fix>
</trkpt>
<trkpt lat="-27.2737712" lon="151.2899048">
  <ele>348.18</ele>
  <time>2026-09-01T19:57:27Z</time>
  <course>106.37</course>
  <speed>0.08062257748298549</speed>
  <fix>3d</fix>
</trkpt>
<trkpt lat="-27.2737712" lon="151.2899051">
  <ele>348.4</ele>
  <time>2026-09-01T19:57:27Z</time>
  <course>23.94</course>
  <speed>0.1</speed>
  <fix>3d</fix>
</trkpt>
<trkpt lat="-27.2737711" lon="151.2899048">
  <ele>348.13</ele>
  <time>2026-09-01T19:57:27Z</time>
  <course>106.38</course>
  <speed>0.08062257748298549</speed>
  <fix>3d</fix>
</trkpt>
<trkpt lat="-27.2737712" lon="151.2899051">
  <ele>348.4</ele>
  <time>2026-09-01T19:57:27Z</time>
  <course>23.94</course>
  <speed>0.1</speed>
  <fix>3d</fix>
</trkpt>
<trkpt lat="-27.273771" lon="151.2899049">
  <ele>348.08</ele>
  <time>2026-09-01T19:57:27Z</time>
  <course>106.39</course>
  <speed>0.07071067811865475</speed>
  <fix>3d</fix>
</trkpt>
<trkpt lat="-27.2737709" lon="151.2899051">
  <ele>348.3</ele>
  <time>2026-09-01T19:57:27Z</time>
  <course>25.17</course>
  <speed>0.1</speed>
  <fix>3d</fix>
</trkpt>
<trkpt lat="-27.273771" lon="151.2899049">
  <ele>348.03</ele>
  <time>2026-09-01T19:57:27Z</time>
  <course>106.4</course>
  <speed>0.07071067811865475</speed>
  <fix>3d</fix>
</trkpt>
<trkpt lat="-27.2737709" lon="151.2899051">
  <ele>348.3</ele>
  <time>2026-09-01T19:57:27Z</time>
  <course>25.17</course>
  <speed>0.1</speed>
  <fix>3d</fix>
</trkpt>
<trkpt lat="-27.2737709" lon="151.289905">
  <ele>347.97</ele>
  <time>2026-09-01T19:57:27Z</time>
  <course>106.41</course>
  <speed>0.07071067811865475</speed>
  <fix>3d</fix>
</trkpt>
<trkpt lat="-27.2737708" lon="151.2899052">
  <ele>348.2</ele>
  <time>2026-09-01T19:57:27Z</time>
  <course>26.29</course>
  <speed>0.1</speed>
  <fix>3d</fix>
</trkpt>
<trkpt lat="-27.2737708" lon="151.289905">
  <ele>347.92</ele>
  <time>2026-09-01T19:57:27Z</time>
  <course>106.41</course>
  <speed>0.07071067811865475</speed>
  <fix>3d</fix>
</trkpt>
<trkpt lat="-27.2737708" lon="151.2899052">
  <ele>348.2</ele>
  <time>2026-09-01T19:57:27Z</time>
  <course>26.29</course>
  <speed>0.1</speed>
  <fix>3d</fix>
</trkpt>
<trkpt lat="-27.2737707" lon="151.289905">
  <ele>347.87</ele>
  <time>2026-09-01T19:57:27Z</time>
  <course>106.41</course>
  <speed>0.06082762530298219</speed>
  <fix>3d</fix>
</trkpt>
<trkpt lat="-27.2737707" lon="151.2899053">
  <ele>348.09</ele>
  <time>2026-09-01T19:57:27Z</time>
  <course>27.61</course>
  <speed>0.1</speed>
  <fix>3d</fix>
</trkpt>
<trkpt lat="-27.2737706" lon="151.2899051">
  <ele>347.83</ele>
  <time>2026-09-01T19:57:27Z</time>
  <course>106.42</course>
  <speed>0.06082762530298219</speed>
  <fix>3d</fix>
</trkpt>
<trkpt lat="-27.2737707" lon="151.2899053">
  <ele>348.09</ele>
  <time>2026-09-01T19:57:27Z</time>
  <course>27.61</course>
  <speed>0.1</speed>
  <fix>3d</fix>
</trkpt>
<trkpt lat="-27.2737706" lon="151.2899051">
  <ele>347.77</ele>
  <time>2026-09-01T19:57:27Z</time>
  <course>106.42</course>
  <speed>0.05099019513592785</speed>
  <fix>3d</fix>
</trkpt>
<trkpt lat="-27.2737705" lon="151.2899054">
  <ele>348.0</ele>
  <time>2026-09-01T19:57:27Z</time>
  <course>29.58</course>
  <speed>0.09</speed>
  <fix>3d</fix>
</trkpt>
<trkpt lat="-27.2737705" lon="151.2899052">
  <ele>347.72</ele>
  <time>2026-09-01T19:57:27Z</time>
  <course>106.43</course>
  <speed>0.05099019513592785</speed>
  <fix>3d</fix>
</trkpt>
<trkpt lat="-27.2737705" lon="151.2899054">
  <ele>348.0</ele>
  <time>2026-09-01T19:57:27Z</time>
  <course>29.58</course>
  <speed>0.09</speed>
  <fix>3d</fix>
</trkpt>
<trkpt lat="-27.2737704" lon="151.2899052">
  <ele>347.67</ele>
  <time>2026-09-01T19:57:27Z</time>
  <course>106.44</course>
  <speed>0.05099019513592785</speed>
  <fix>3d</fix>
</trkpt>
<trkpt lat="-27.2737703" lon="151.2899055">
  <ele>347.9</ele>
  <time>2026-09-01T19:57:27Z</time>
  <course>32.33</course>
  <speed>0.08</speed>
  <fix>3d</fix>
</trkpt>
<trkpt lat="-27.2737704" lon="151.2899053">
  <ele>347.62</ele>
  <time>2026-09-01T19:57:27Z</time>
  <course>106.45</course>
  <speed>0.0412310562561766</speed>
  <fix>3d</fix>
</trkpt>
<trkpt lat="-27.2737703" lon="151.2899055">
  <ele>347.9</ele>
  <time>2026-09-01T19:57:27Z</time>
  <course>32.33</course>
  <speed>0.08</speed>
  <fix>3d</fix>
</trkpt>
<trkpt lat="-27.2737703" lon="151.2899053">
  <ele>347.57</ele>
  <time>2026-09-01T19:57:27Z</time>
  <course>106.47</course>
  <speed>0.04</speed>
  <fix>3d</fix>
</trkpt>
<trkpt lat="-27.2737702" lon="151.2899056">
  <ele>347.79</ele>
  <time>2026-09-01T19:57:27Z</time>
  <course>35.24</course>
  <speed>0.08</speed>
  <fix>3d</fix>
</trkpt>
<trkpt lat="-27.2737703" lon="151.2899053">
  <ele>347.52</ele>
  <time>2026-09-01T19:57:27Z</time>
  <course>106.48</course>
  <speed>0.03</speed>
  <fix>3d</fix>
</trkpt>
<trkpt lat="-27.2737702" lon="151.2899056">
  <ele>347.79</ele>
  <time>2026-09-01T19:57:27Z</time>
  <course>35.24</course>
  <speed>0.08</speed>
  <fix>3d</fix>
</trkpt>
<trkpt lat="-27.2737702" lon="151.2899054">
  <ele>347.47</ele>
  <time>2026-09-01T19:57:27Z</time>
  <course>106.49</course>
  <speed>0.03</speed>
  <fix>3d</fix>
</trkpt>
<trkpt lat="-27.2737701" lon="151.2899057">
  <ele>347.69</ele>
  <time>2026-09-01T19:57:27Z</time>
  <course>38.18</course>
  <speed>0.07</speed>
  <fix>3d</fix>
</trkpt>
<trkpt lat="-27.2737702" lon="151.2899054">
  <ele>347.42</ele>
  <time>2026-09-01T19:57:27Z</time>
  <course>106.5</course>
  <speed>0.02</speed>
  <fix>3d</fix>
</trkpt>
<trkpt lat="-27.2737701" lon="151.2899057">
  <ele>347.69</ele>
  <time>2026-09-01T19:57:27Z</time>
  <course>38.18</course>
  <speed>0.07</speed>
  <fix>3d</fix>
</trkpt>
<trkpt lat="-27.2737701" lon="151.2899055">
  <ele>347.37</ele>
  <time>2026-09-01T19:57:27Z</time>
  <course>106.51</course>
  <speed>0.02</speed>
  <fix>3d</fix>
</trkpt>
<trkpt lat="-27.27377" lon="151.2899058">
  <ele>347.59</ele>
  <time>2026-09-01T19:57:27Z</time>
  <course>41.78</course>
  <speed>0.06</speed>
  <fix>3d</fix>
</trkpt>
<trkpt lat="-27.2737701" lon="151.2899055">
  <ele>347.32</ele>
  <time>2026-09-01T19:57:27Z</time>
  <course>106.52</course>
  <speed>0.01</speed>
  <fix>3d</fix>
</trkpt>
<trkpt lat="-27.27377" lon="151.2899058">
  <ele>347.59</ele>
  <time>2026-09-01T19:57:27Z</time>
  <course>41.78</course>
  <speed>0.06</speed>
  <fix>3d</fix>
</trkpt>
<trkpt lat="-27.2737701" lon="151.2899055">
  <ele>347.27</ele>
  <time>2026-09-01T19:57:27Z</time>
  <course>106.54</course>
  <speed>0.01</speed>
  <fix>3d</fix>
</trkpt>
<trkpt lat="-27.27377" lon="151.2899059">
  <ele>347.49</ele>
  <time>2026-09-01T19:57:27Z</time>
  <course>46.69</course>
  <speed>0.05</speed>
  <fix>3d</fix>
</trkpt>
<trkpt lat="-27.2737701" lon="151.2899056">
  <ele>347.22</ele>
  <time>2026-09-01T19:57:27Z</time>
  <course>106.55</course>
  <speed>0.0</speed>
  <fix>3d</fix>
</trkpt>
<trkpt lat="-27.27377" lon="151.2899059">
  <ele>347.49</ele>
  <time>2026-09-01T19:57:27Z</time>
  <course>46.69</course>
  <speed>0.05</speed>
  <fix>3d</fix>
</trkpt>
<trkpt lat="-27.27377" lon="151.2899056">
  <ele>347.17</ele>
  <time>2026-09-01T19:57:27Z</time>
  <course>106.55</course>
  <speed>0.0</speed>
  <fix>3d</fix>
</trkpt>
<trkpt lat="-27.2737699" lon="151.289906">
  <ele>347.39</ele>
  <time>2026-09-01T19:57:27Z</time>
  <course>53.68</course>
  <speed>0.04</speed>
  <fix>3d</fix>
</trkpt>
<trkpt lat="-27.27377" lon="151.2899056">
  <ele>347.13</ele>
  <time>2026-09-01T19:57:27Z</time>
  <course>106.56</course>
  <speed>0.0</speed>
  <fix>3d</fix>
</trkpt>
<trkpt lat="-27.2737699" lon="151.289906">
  <ele>347.39</ele>
  <time>2026-09-01T19:57:27Z</time>
  <course>53.68</course>
  <speed>0.04</speed>
  <fix>3d</fix>
</trkpt>
<trkpt lat="-27.27377" lon="151.2899057">
  <ele>347.08</ele>
  <time>2026-09-01T19:57:27Z</time>
  <course>106.58</course>
  <speed>0.0</speed>
  <fix>3d</fix>
</trkpt>
<trkpt lat="-27.2737699" lon="151.289906">
  <ele>347.28</ele>
  <time>2026-09-01T19:57:27Z</time>
  <course>63.96</course>
  <speed>0.03</speed>
  <fix>3d</fix>
</trkpt>
<trkpt lat="-27.27377" lon="151.2899057">
  <ele>347.03</ele>
  <time>2026-09-01T19:57:27Z</time>
  <course>106.6</course>
  <speed>0.01414213562373095</speed>
  <fix>3d</fix>
</trkpt>
<trkpt lat="-27.2737699" lon="151.289906">
  <ele>347.28</ele>
  <time>2026-09-01T19:57:27Z</time>
  <course>63.96</course>
  <speed>0.03</speed>
  <fix>3d</fix>
</trkpt>
<trkpt lat="-27.27377" lon="151.2899057">
  <ele>346.97</ele>
  <time>2026-09-01T19:57:27Z</time>
  <course>106.64</course>
  <speed>0.01414213562373095</speed>
  <fix>3d</fix>
</trkpt>
<trkpt lat="-27.2737699" lon="151.2899061">
  <ele>347.19</ele>
  <time>2026-09-01T19:57:27Z</time>
  <course>79.08</course>
  <speed>0.02</speed>
  <fix>3d</fix>
</trkpt>
<trkpt lat="-27.27377" lon="151.2899057">
  <ele>346.92</ele>
  <time>2026-09-01T19:57:27Z</time>
  <course>106.69</course>
  <speed>0.022360679774997897</speed>
  <fix>3d</fix>
</trkpt>
<trkpt lat="-27.2737699" lon="151.2899061">
  <ele>347.19</ele>
  <time>2026-09-01T19:57:27Z</time>
  <course>79.08</course>
  <speed>0.02</speed>
  <fix>3d</fix>
</trkpt>
<trkpt lat="-27.27377" lon="151.2899058">
  <ele>346.87</ele>
  <time>2026-09-01T19:57:27Z</time>
  <course>106.73</course>
  <speed>0.022360679774997897</speed>
  <fix>3d</fix>
</trkpt>
<trkpt lat="-27.2737699" lon="151.2899062">
  <ele>347.09</ele>
  <time>2026-09-01T19:57:27Z</time>
  <course>98.28</course>
  <speed>0.02</speed>
  <fix>3d</fix>
</trkpt>
<trkpt lat="-27.27377" lon="151.2899058">
  <ele>346.82</ele>
  <time>2026-09-01T19:57:27Z</time>
  <course>106.78</course>
  <speed>0.022360679774997897</speed>
  <fix>3d</fix>
</trkpt>
<trkpt lat="-27.2737699" lon="151.2899062">
  <ele>347.09</ele>
  <time>2026-09-01T19:57:27Z</time>
  <course>98.28</course>
  <speed>0.02</speed>
  <fix>3d</fix>
</trkpt>
<trkpt lat="-27.27377" lon="151.2899058">
  <ele>346.77</ele>
  <time>2026-09-01T19:57:27Z</time>
  <course>106.81</course>
  <speed>0.022360679774997897</speed>
  <fix>3d</fix>
</trkpt>
<trkpt lat="-27.2737699" lon="151.2899062">
  <ele>346.99</ele>
  <time>2026-09-01T19:57:27Z</time>
  <course>116.85</course>
  <speed>0.02</speed>
  <fix>3d</fix>
</trkpt>
<trkpt lat="-27.27377" lon="151.2899058">
  <ele>346.72</ele>
  <time>2026-09-01T19:57:27Z</time>
  <course>106.85</course>
  <speed>0.0316227766016838</speed>
  <fix>3d</fix>
</trkpt>
<trkpt lat="-27.2737699" lon="151.2899062">
  <ele>346.99</ele>
  <time>2026-09-01T19:57:27Z</time>
  <course>116.85</course>
  <speed>0.02</speed>
  <fix>3d</fix>
</trkpt>
<trkpt lat="-27.27377" lon="151.2899059">
  <ele>346.67</ele>
  <time>2026-09-01T19:57:27Z</time>
  <course>106.88</course>
  <speed>0.0316227766016838</speed>
  <fix>3d</fix>
</trkpt>
<trkpt lat="-27.2737699" lon="151.2899062">
  <ele>346.89</ele>
  <time>2026-09-01T19:57:27Z</time>
  <course>132.57</course>
  <speed>0.02</speed>
  <fix>3d</fix>
</trkpt>
<trkpt lat="-27.27377" lon="151.2899059">
  <ele>346.62</ele>
  <time>2026-09-01T19:57:27Z</time>
  <course>106.9</course>
  <speed>0.03605551275463989</speed>
  <fix>3d</fix>
</trkpt>
<trkpt lat="-27.2737699" lon="151.2899062">
  <ele>346.89</ele>
  <time>2026-09-01T19:57:27Z</time>
  <course>132.57</course>
  <speed>0.02</speed>
  <fix>3d</fix>
</trkpt>
<trkpt lat="-27.27377" lon="151.2899059">
  <ele>346.57</ele>
  <time>2026-09-01T19:57:27Z</time>
  <course>106.92</course>
  <speed>0.03605551275463989</speed>
  <fix>3d</fix>
</trkpt>
<trkpt lat="-27.2737699" lon="151.2899062">
  <ele>346.78</ele>
  <time>2026-09-01T19:57:27Z</time>
  <course>145.89</course>
  <speed>0.02</speed>
  <fix>3d</fix>
</trkpt>
<trkpt lat="-27.2737701" lon="151.2899059">
  <ele>346.52</ele>
  <time>2026-09-01T19:57:27Z</time>
  <course>106.94</course>
  <speed>0.03605551275463989</speed>
  <fix>3d</fix>
</trkpt>
<trkpt lat="-27.2737699" lon="151.2899062">
  <ele>346.78</ele>
  <time>2026-09-01T19:57:27Z</time>
  <course>145.89</course>
  <speed>0.02</speed>
  <fix>3d</fix>
</trkpt>
<trkpt lat="-27.2737701" lon="151.2899059">
  <ele>346.47</ele>
  <time>2026-09-01T19:57:27Z</time>
  <course>106.96</course>
  <speed>0.044721359549995794</speed>
  <fix>3d</fix>
</trkpt>
<trkpt lat="-27.2737699" lon="151.2899062">
  <ele>346.68</ele>
  <time>2026-09-01T19:57:27Z</time>
  <course>157.42</course>
  <speed>0.02</speed>
  <fix>3d</fix>
</trkpt>
<trkpt lat="-27.2737701" lon="151.2899059">
  <ele>346.42</ele>
  <time>2026-09-01T19:57:27Z</time>
  <course>106.97</course>
  <speed>0.044721359549995794</speed>
  <fix>3d</fix>
</trkpt>
<trkpt lat="-27.2737699" lon="151.2899062">
  <ele>346.68</ele>
  <time>2026-09-01T19:57:27Z</time>
  <course>157.42</course>
  <speed>0.02</speed>
  <fix>3d</fix>
</trkpt>
<trkpt lat="-27.2737701" lon="151.2899059">
  <ele>346.37</ele>
  <time>2026-09-01T19:57:27Z</time>
  <course>106.98</course>
  <speed>0.05</speed>
  <fix>3d</fix>
</trkpt>
<trkpt lat="-27.2737699" lon="151.2899062">
  <ele>346.58</ele>
  <time>2026-09-01T19:57:27Z</time>
  <course>166.94</course>
  <speed>0.02</speed>
  <fix>3d</fix>
</trkpt>
<trkpt lat="-27.2737701" lon="151.2899059">
  <ele>346.32</ele>
  <time>2026-09-01T19:57:27Z</time>
  <course>106.99</course>
  <speed>0.05</speed>
  <fix>3d</fix>
</trkpt>
<trkpt lat="-27.2737699" lon="151.2899062">
  <ele>346.58</ele>
  <time>2026-09-01T19:57:27Z</time>
  <course>166.94</course>
  <speed>0.02</speed>
  <fix>3d</fix>
</trkpt>
<trkpt lat="-27.2737702" lon="151.2899059">
  <ele>346.27</ele>
  <time>2026-09-01T19:57:27Z</time>
  <course>107.0</course>
  <speed>0.05</speed>
  <fix>3d</fix>
</trkpt>
<trkpt lat="-27.27377" lon="151.2899062">
  <ele>346.47</ele>
  <time>2026-09-01T19:57:27Z</time>
  <course>174.5</course>
  <speed>0.02</speed>
  <fix>3d</fix>
</trkpt>
<trkpt lat="-27.2737702" lon="151.2899059">
  <ele>346.22</ele>
  <time>2026-09-01T19:57:27Z</time>
  <course>107.01</course>
  <speed>0.05</speed>
  <fix>3d</fix>
</trkpt>
<trkpt lat="-27.27377" lon="151.2899062">
  <ele>346.47</ele>
  <time>2026-09-01T19:57:27Z</time>
  <course>174.5</course>
  <speed>0.02</speed>
  <fix>3d</fix>
</trkpt>
<trkpt lat="-27.2737702" lon="151.2899059">
  <ele>346.17</ele>
  <time>2026-09-01T19:57:27Z</time>
  <course>107.01</course>
  <speed>0.05</speed>
  <fix>3d</fix>
</trkpt>
<trkpt lat="-27.27377" lon="151.2899062">
  <ele>346.38</ele>
  <time>2026-09-01T19:57:27Z</time>
  <course>180.26</course>
  <speed>0.03</speed>
  <fix>3d</fix>
</trkpt>
<trkpt lat="-27.2737702" lon="151.2899059">
  <ele>346.12</ele>
  <time>2026-09-01T19:57:27Z</time>
  <course>107.01</course>
  <speed>0.05</speed>
  <fix>3d</fix>
</trkpt>
<trkpt lat="-27.27377" lon="151.2899062">
  <ele>346.38</ele>
  <time>2026-09-01T19:57:27Z</time>
  <course>180.26</course>
  <speed>0.03</speed>
  <fix>3d</fix>
</trkpt>
<trkpt lat="-27.2737702" lon="151.2899059">
  <ele>346.07</ele>
  <time>2026-09-01T19:57:27Z</time>
  <course>107.01</course>
  <speed>0.05</speed>
  <fix>3d</fix>
</trkpt>
<trkpt lat="-27.2737701" lon="151.2899062">
  <ele>346.28</ele>
  <time>2026-09-01T19:57:27Z</time>
  <course>184.93</course>
  <speed>0.03</speed>
  <fix>3d</fix>
</trkpt>
<trkpt lat="-27.2737703" lon="151.2899059">
  <ele>346.02</ele>
  <time>2026-09-01T19:57:27Z</time>
  <course>107.01</course>
  <speed>0.0565685424949238</speed>
  <fix>3d</fix>
</trkpt>
<trkpt lat="-27.2737701" lon="151.2899062">
  <ele>346.28</ele>
  <time>2026-09-01T19:57:27Z</time>
  <course>184.93</course>
  <speed>0.03</speed>
  <fix>3d</fix>
</trkpt>
<trkpt lat="-27.2737703" lon="151.2899059">
  <ele>345.97</ele>
  <time>2026-09-01T19:57:27Z</time>
  <course>107.01</course>
  <speed>0.0565685424949238</speed>
  <fix>3d</fix>
</trkpt>
<trkpt lat="-27.2737701" lon="151.2899062">
  <ele>346.18</ele>
  <time>2026-09-01T19:57:27Z</time>
  <course>189.08</course>
  <speed>0.03</speed>
  <fix>3d</fix>
</trkpt>
<trkpt lat="-27.2737703" lon="151.2899059">
  <ele>345.92</ele>
  <time>2026-09-01T19:57:27Z</time>
  <course>107.02</course>
  <speed>0.0565685424949238</speed>
  <fix>3d</fix>
</trkpt>
<trkpt lat="-27.2737701" lon="151.2899062">
  <ele>346.18</ele>
  <time>2026-09-01T19:57:27Z</time>
  <course>189.08</course>
  <speed>0.03</speed>
  <fix>3d</fix>
</trkpt>
<trkpt lat="-27.2737703" lon="151.2899059">
  <ele>345.87</ele>
  <time>2026-09-01T19:57:27Z</time>
  <course>107.02</course>
  <speed>0.0565685424949238</speed>
  <fix>3d</fix>
</trkpt>
<trkpt lat="-27.2737702" lon="151.2899062">
  <ele>346.08</ele>
  <time>2026-09-01T19:57:27Z</time>
  <course>192.94</course>
  <speed>0.03</speed>
  <fix>3d</fix>
</trkpt>
<trkpt lat="-27.2737704" lon="151.2899059">
  <ele>345.82</ele>
  <time>2026-09-01T19:57:27Z</time>
  <course>107.02</course>
  <speed>0.05</speed>
  <fix>3d</fix>
</trkpt>
<trkpt lat="-27.2737702" lon="151.2899062">
  <ele>346.08</ele>
  <time>2026-09-01T19:57:27Z</time>
  <course>192.94</course>
  <speed>0.03</speed>
  <fix>3d</fix>
</trkpt>
<trkpt lat="-27.2737704" lon="151.2899059">
  <ele>345.77</ele>
  <time>2026-09-01T19:57:27Z</time>
  <course>107.02</course>
  <speed>0.05</speed>
  <fix>3d</fix>
</trkpt>
<trkpt lat="-27.2737702" lon="151.2899062">
  <ele>345.97</ele>
  <time>2026-09-01T19:57:27Z</time>
  <course>196.29</course>
  <speed>0.03</speed>
  <fix>3d</fix>
</trkpt>
<trkpt lat="-27.2737704" lon="151.2899059">
  <ele>345.72</ele>
  <time>2026-09-01T19:57:27Z</time>
  <course>107.03</course>
  <speed>0.05</speed>
  <fix>3d</fix>
</trkpt>
<trkpt lat="-27.2737702" lon="151.2899062">
  <ele>345.97</ele>
  <time>2026-09-01T19:57:27Z</time>
  <course>196.29</course>
  <speed>0.03</speed>
  <fix>3d</fix>
</trkpt>
<trkpt lat="-27.2737704" lon="151.2899059">
  <ele>345.67</ele>
  <time>2026-09-01T19:57:27Z</time>
  <course>107.03</course>
  <speed>0.05</speed>
  <fix>3d</fix>
</trkpt>
<trkpt lat="-27.2737703" lon="151.2899062">
  <ele>345.88</ele>
  <time>2026-09-01T19:57:27Z</time>
  <course>198.89</course>
  <speed>0.03</speed>
  <fix>3d</fix>
</trkpt>
<trkpt lat="-27.2737704" lon="151.2899059">
  <ele>345.62</ele>
  <time>2026-09-01T19:57:27Z</time>
  <course>107.03</course>
  <speed>0.05</speed>
  <fix>3d</fix>
</trkpt>
<trkpt lat="-27.2737703" lon="151.2899062">
  <ele>345.88</ele>
  <time>2026-09-01T19:57:27Z</time>
  <course>198.89</course>
  <speed>0.03</speed>
  <fix>3d</fix>
</trkpt>
<trkpt lat="-27.2737704" lon="151.2899058">
  <ele>345.57</ele>
  <time>2026-09-01T19:57:27Z</time>
  <course>107.04</course>
  <speed>0.05</speed>
  <fix>3d</fix>
</trkpt>
<trkpt lat="-27.2737703" lon="151.2899062">
  <ele>345.78</ele>
  <time>2026-09-01T19:57:27Z</time>
  <course>200.99</course>
  <speed>0.03</speed>
  <fix>3d</fix>
</trkpt>
<trkpt lat="-27.2737705" lon="151.2899058">
  <ele>345.52</ele>
  <time>2026-09-01T19:57:27Z</time>
  <course>107.04</course>
  <speed>0.05</speed>
  <fix>3d</fix>
</trkpt>
<trkpt lat="-27.2737703" lon="151.2899062">
  <ele>345.78</ele>
  <time>2026-09-01T19:57:27Z</time>
  <course>200.99</course>
  <speed>0.03</speed>
  <fix>3d</fix>
</trkpt>
<trkpt lat="-27.2737705" lon="151.2899058">
  <ele>345.47</ele>
  <time>2026-09-01T19:57:27Z</time>
  <course>107.05</course>
  <speed>0.05</speed>
  <fix>3d</fix>
</trkpt>
<trkpt lat="-27.2737704" lon="151.2899062">
  <ele>345.68</ele>
  <time>2026-09-01T19:57:27Z</time>
  <course>203.04</course>
  <speed>0.02</speed>
  <fix>3d</fix>
</trkpt>
<trkpt lat="-27.2737705" lon="151.2899058">
  <ele>345.42</ele>
  <time>2026-09-01T19:57:27Z</time>
  <course>107.05</course>
  <speed>0.05</speed>
  <fix>3d</fix>
</trkpt>
<trkpt lat="-27.2737704" lon="151.2899062">
  <ele>345.68</ele>
  <time>2026-09-01T19:57:27Z</time>
  <course>203.04</course>
  <speed>0.02</speed>
  <fix>3d</fix>
</trkpt>
<trkpt lat="-27.2737705" lon="151.2899058">
  <ele>345.37</ele>
  <time>2026-09-01T19:57:27Z</time>
  <course>107.05</course>
  <speed>0.05</speed>
  <fix>3d</fix>
</trkpt>
<trkpt lat="-27.2737704" lon="151.2899062">
  <ele>345.58</ele>
  <time>2026-09-01T19:57:27Z</time>
  <course>205.06</course>
  <speed>0.02</speed>
  <fix>3d</fix>
</trkpt>
<trkpt lat="-27.2737705" lon="151.2899058">
  <ele>345.32</ele>
  <time>2026-09-01T19:57:27Z</time>
  <course>107.05</course>
  <speed>0.05</speed>
  <fix>3d</fix>
</trkpt>
<trkpt lat="-27.2737704" lon="151.2899062">
  <ele>345.58</ele>
  <time>2026-09-01T19:57:27Z</time>
  <course>205.06</course>
  <speed>0.02</speed>
  <fix>3d</fix>
</trkpt>
<trkpt lat="-27.2737706" lon="151.2899058">
  <ele>345.27</ele>
  <time>2026-09-01T19:57:27Z</time>
  <course>107.04</course>
  <speed>0.044721359549995794</speed>
  <fix>3d</fix>
</trkpt>
<trkpt lat="-27.2737705" lon="151.2899062">
  <ele>345.47</ele>
  <time>2026-09-01T19:57:27Z</time>
  <course>206.74</course>
  <speed>0.02</speed>
  <fix>3d</fix>
</trkpt>
<trkpt lat="-27.2737706" lon="151.2899058">
  <ele>345.22</ele>
  <time>2026-09-01T19:57:27Z</time>
  <course>107.05</course>
  <speed>0.044721359549995794</speed>
  <fix>3d</fix>
</trkpt>
<trkpt lat="-27.2737705" lon="151.2899062">
  <ele>345.47</ele>
  <time>2026-09-01T19:57:27Z</time>
  <course>206.74</course>
  <speed>0.02</speed>
  <fix>3d</fix>
</trkpt>
<trkpt lat="-27.2737706" lon="151.2899058">
  <ele>345.17</ele>
  <time>2026-09-01T19:57:27Z</time>
  <course>107.05</course>
  <speed>0.044721359549995794</speed>
  <fix>3d</fix>
</trkpt>
<trkpt lat="-27.2737705" lon="151.2899062">
  <ele>345.38</ele>
  <time>2026-09-01T19:57:27Z</time>
  <course>208.67</course>
  <speed>0.02</speed>
  <fix>3d</fix>
</trkpt>
<trkpt lat="-27.2737706" lon="151.2899058">
  <ele>345.12</ele>
  <time>2026-09-01T19:57:27Z</time>
  <course>107.06</course>
  <speed>0.044721359549995794</speed>
  <fix>3d</fix>
</trkpt>
<trkpt lat="-27.2737705" lon="151.2899062">
  <ele>345.38</ele>
  <time>2026-09-01T19:57:27Z</time>
  <course>208.67</course>
  <speed>0.02</speed>
  <fix>3d</fix>
</trkpt>
<trkpt lat="-27.2737706" lon="151.2899058">
  <ele>345.07</ele>
  <time>2026-09-01T19:57:27Z</time>
  <course>107.08</course>
  <speed>0.044721359549995794</speed>
  <fix>3d</fix>
</trkpt>
<trkpt lat="-27.2737706" lon="151.2899062">
  <ele>345.28</ele>
  <time>2026-09-01T19:57:27Z</time>
  <course>211.43</course>
  <speed>0.02</speed>
  <fix>3d</fix>
</trkpt>
<trkpt lat="-27.2737706" lon="151.2899058">
  <ele>345.02</ele>
  <time>2026-09-01T19:57:27Z</time>
  <course>107.09</course>
  <speed>0.044721359549995794</speed>
  <fix>3d</fix>
</trkpt>
<trkpt lat="-27.2737706" lon="151.2899062">
  <ele>345.28</ele>
  <time>2026-09-01T19:57:27Z</time>
  <course>211.43</course>
  <speed>0.02</speed>
  <fix>3d</fix>
</trkpt>
<trkpt lat="-27.2737706" lon="151.2899058">
  <ele>344.97</ele>
  <time>2026-09-01T19:57:27Z</time>
  <course>107.11</course>
  <speed>0.03605551275463989</speed>
  <fix>3d</fix>
</trkpt>
<trkpt lat="-27.2737706" lon="151.2899062">
  <ele>345.18</ele>
  <time>2026-09-01T19:57:27Z</time>
  <course>213.73</course>
  <speed>0.02</speed>
  <fix>3d</fix>
</trkpt>
<trkpt lat="-27.2737707" lon="151.2899058">
  <ele>344.92</ele>
  <time>2026-09-01T19:57:27Z</time>
  <course>107.13</course>
  <speed>0.03605551275463989</speed>
  <fix>3d</fix>
</trkpt>
<trkpt lat="-27.2737706" lon="151.2899062">
  <ele>345.18</ele>
  <time>2026-09-01T19:57:27Z</time>
  <course>213.73</course>
  <speed>0.02</speed>
  <fix>3d</fix>
</trkpt>
<trkpt lat="-27.2737707" lon="151.2899058">
  <ele>344.87</ele>
  <time>2026-09-01T19:57:27Z</time>
  <course>107.13</course>
  <speed>0.03605551275463989</speed>
  <fix>3d</fix>
</trkpt>
<trkpt lat="-27.2737706" lon="151.2899062">
  <ele>345.08</ele>
  <time>2026-09-01T19:57:27Z</time>
  <course>216.23</course>
  <speed>0.01</speed>
  <fix>3d</fix>
</trkpt>
<trkpt lat="-27.2737707" lon="151.2899058">
  <ele>344.82</ele>
  <time>2026-09-01T19:57:27Z</time>
  <course>107.14</course>
  <speed>0.03605551275463989</speed>
  <fix>3d</fix>
</trkpt>
<trkpt lat="-27.2737706" lon="151.2899062">
  <ele>345.08</ele>
  <time>2026-09-01T19:57:27Z</time>
  <course>216.23</course>
  <speed>0.01</speed>
  <fix>3d</fix>
</trkpt>
<trkpt lat="-27.2737707" lon="151.2899058">
  <ele>344.77</ele>
  <time>2026-09-01T19:57:27Z</time>
  <course>107.14</course>
  <speed>0.0316227766016838</speed>
  <fix>3d</fix>
</trkpt>
<trkpt lat="-27.2737707" lon="151.2899062">
  <ele>344.97</ele>
  <time>2026-09-01T19:57:27Z</time>
  <course>221.94</course>
  <speed>0.01</speed>
  <fix>3d</fix>
</trkpt>
<trkpt lat="-27.2737707" lon="151.2899058">
  <ele>344.72</ele>
  <time>2026-09-01T19:57:27Z</time>
  <course>107.14</course>
  <speed>0.0316227766016838</speed>
  <fix>3d</fix>
</trkpt>
<trkpt lat="-27.2737707" lon="151.2899062">
  <ele>344.97</ele>
  <time>2026-09-01T19:57:27Z</time>
  <course>221.94</course>
  <speed>0.01</speed>
  <fix>3d</fix>
</trkpt>
<trkpt lat="-27.2737707" lon="151.2899058">
  <ele>344.67</ele>
  <time>2026-09-01T19:57:28Z</time>
  <course>107.14</course>
  <speed>0.0316227766016838</speed>
  <fix>3d</fix>
</trkpt>
<trkpt lat="-27.2737707" lon="151.2899061">
  <ele>344.88</ele>
  <time>2026-09-01T19:57:28Z</time>
  <course>231.69</course>
  <speed>0.01</speed>
  <fix>3d</fix>
</trkpt>
<trkpt lat="-27.2737707" lon="151.2899058">
  <ele>344.62</ele>
  <time>2026-09-01T19:57:28Z</time>
  <course>107.16</course>
  <speed>0.0316227766016838</speed>
  <fix>3d</fix>
</trkpt>
<trkpt lat="-27.2737707" lon="151.2899061">
  <ele>344.88</ele>
  <time>2026-09-01T19:57:28Z</time>
  <course>231.69</course>
  <speed>0.01</speed>
  <fix>3d</fix>
</trkpt>
<trkpt lat="-27.2737707" lon="151.2899058">
  <ele>344.57</ele>
  <time>2026-09-01T19:57:28Z</time>
  <course>107.17</course>
  <speed>0.0316227766016838</speed>
  <fix>3d</fix>
</trkpt>
<trkpt lat="-27.2737707" lon="151.2899061">
  <ele>344.78</ele>
  <time>2026-09-01T19:57:28Z</time>
  <course>246.1</course>
  <speed>0.01</speed>
  <fix>3d</fix>
</trkpt>
<trkpt lat="-27.2737707" lon="151.2899058">
  <ele>344.52</ele>
  <time>2026-09-01T19:57:28Z</time>
  <course>107.19</course>
  <speed>0.03</speed>
  <fix>3d</fix>
</trkpt>
<trkpt lat="-27.2737707" lon="151.2899061">
  <ele>344.78</ele>
  <time>2026-09-01T19:57:28Z</time>
  <course>246.1</course>
  <speed>0.01</speed>
  <fix>3d</fix>
</trkpt>
<trkpt lat="-27.2737707" lon="151.2899058">
  <ele>344.47</ele>
  <time>2026-09-01T19:57:28Z</time>
  <course>107.21</course>
  <speed>0.03</speed>
  <fix>3d</fix>
</trkpt>
<trkpt lat="-27.2737707" lon="151.2899061">
  <ele>344.68</ele>
  <time>2026-09-01T19:57:28Z</time>
  <course>267.17</course>
  <speed>0.01</speed>
  <fix>3d</fix>
</trkpt>
<trkpt lat="-27.2737707" lon="151.2899058">
  <ele>344.42</ele>
  <time>2026-09-01T19:57:28Z</time>
  <course>107.21</course>
  <speed>0.03</speed>
  <fix>3d</fix>
</trkpt>
<trkpt lat="-27.2737707" lon="151.2899061">
  <ele>344.68</ele>
  <time>2026-09-01T19:57:28Z</time>
  <course>267.17</course>
  <speed>0.01</speed>
  <fix>3d</fix>
</trkpt>
<trkpt lat="-27.2737707" lon="151.2899058">
  <ele>344.37</ele>
  <time>2026-09-01T19:57:28Z</time>
  <course>107.19</course>
  <speed>0.03</speed>
  <fix>3d</fix>
</trkpt>
<trkpt lat="-27.2737707" lon="151.2899061">
  <ele>344.58</ele>
  <time>2026-09-01T19:57:28Z</time>
  <course>285.69</course>
  <speed>0.01</speed>
  <fix>3d</fix>
</trkpt>
<trkpt lat="-27.2737707" lon="151.2899058">
  <ele>344.32</ele>
  <time>2026-09-01T19:57:28Z</time>
  <course>107.14</course>
  <speed>0.03</speed>
  <fix>3d</fix>
</trkpt>
<trkpt lat="-27.2737707" lon="151.2899061">
  <ele>344.58</ele>
  <time>2026-09-01T19:57:28Z</time>
  <course>285.69</course>
  <speed>0.01</speed>
  <fix>3d</fix>
</trkpt>
<trkpt lat="-27.2737707" lon="151.2899058">
  <ele>344.27</ele>
  <time>2026-09-01T19:57:28Z</time>
  <course>107.09</course>
  <speed>0.03</speed>
  <fix>3d</fix>
</trkpt>
<trkpt lat="-27.2737707" lon="151.2899061">
  <ele>344.47</ele>
  <time>2026-09-01T19:57:28Z</time>
  <course>291.88</course>
  <speed>0.01</speed>
  <fix>3d</fix>
</trkpt>
<trkpt lat="-27.2737707" lon="151.2899058">
  <ele>344.22</ele>
  <time>2026-09-01T19:57:28Z</time>
  <course>107.06</course>
  <speed>0.03</speed>
  <fix>3d</fix>
</trkpt>
<trkpt lat="-27.2737707" lon="151.2899061">
  <ele>344.47</ele>
  <time>2026-09-01T19:57:28Z</time>
  <course>291.88</course>
  <speed>0.01</speed>
  <fix>3d</fix>
</trkpt>
<trkpt lat="-27.2737707" lon="151.2899058">
  <ele>344.17</ele>
  <time>2026-09-01T19:57:28Z</time>
  <course>107.04</course>
  <speed>0.03</speed>
  <fix>3d</fix>
</trkpt>
<trkpt lat="-27.2737707" lon="151.289906">
  <ele>344.38</ele>
  <time>2026-09-01T19:57:28Z</time>
  <course>292.18</course>
  <speed>0.01</speed>
  <fix>3d</fix>
</trkpt>
<trkpt lat="-27.2737707" lon="151.2899058">
  <ele>344.12</ele>
  <time>2026-09-01T19:57:28Z</time>
  <course>107.04</course>
  <speed>0.03</speed>
  <fix>3d</fix>
</trkpt>
<trkpt lat="-27.2737707" lon="151.289906">
  <ele>344.38</ele>
  <time>2026-09-01T19:57:28Z</time>
  <course>292.18</course>
  <speed>0.01</speed>
  <fix>3d</fix>
</trkpt>
<trkpt lat="-27.2737707" lon="151.2899058">
  <ele>344.07</ele>
  <time>2026-09-01T19:57:28Z</time>
  <course>107.04</course>
  <speed>0.03</speed>
  <fix>3d</fix>
</trkpt>
<trkpt lat="-27.2737707" lon="151.289906">
  <ele>344.28</ele>
  <time>2026-09-01T19:57:28Z</time>
  <course>292.12</course>
  <speed>0.01</speed>
  <fix>3d</fix>
</trkpt>
<trkpt lat="-27.2737707" lon="151.2899057">
  <ele>344.02</ele>
  <time>2026-09-01T19:57:28Z</time>
  <course>107.06</course>
  <speed>0.03</speed>
  <fix>3d</fix>
</trkpt>
<trkpt lat="-27.2737707" lon="151.289906">
  <ele>344.28</ele>
  <time>2026-09-01T19:57:28Z</time>
  <course>292.12</course>
  <speed>0.01</speed>
  <fix>3d</fix>
</trkpt>
<trkpt lat="-27.2737707" lon="151.2899057">
  <ele>343.97</ele>
  <time>2026-09-01T19:57:28Z</time>
  <course>107.07</course>
  <speed>0.03</speed>
  <fix>3d</fix>
</trkpt>
<trkpt lat="-27.2737707" lon="151.289906">
  <ele>344.19</ele>
  <time>2026-09-01T19:57:28Z</time>
  <course>291.89</course>
  <speed>0.01</speed>
  <fix>3d</fix>
</trkpt>
<trkpt lat="-27.2737707" lon="151.2899057">
  <ele>343.92</ele>
  <time>2026-09-01T19:57:28Z</time>
  <course>107.09</course>
  <speed>0.03</speed>
  <fix>3d</fix>
</trkpt>
<trkpt lat="-27.2737707" lon="151.289906">
  <ele>344.19</ele>
  <time>2026-09-01T19:57:28Z</time>
  <course>291.89</course>
  <speed>0.01</speed>
  <fix>3d</fix>
</trkpt>
<trkpt lat="-27.2737707" lon="151.2899057">
  <ele>343.87</ele>
  <time>2026-09-01T19:57:28Z</time>
  <course>107.12</course>
  <speed>0.03</speed>
  <fix>3d</fix>
</trkpt>
<trkpt lat="-27.2737707" lon="151.289906">
  <ele>344.09</ele>
  <time>2026-09-01T19:57:28Z</time>
  <course>292.33</course>
  <speed>0.01</speed>
  <fix>3d</fix>
</trkpt>
<trkpt lat="-27.2737707" lon="151.2899057">
  <ele>343.82</ele>
  <time>2026-09-01T19:57:28Z</time>
  <course>107.13</course>
  <speed>0.03</speed>
  <fix>3d</fix>
</trkpt>
<trkpt lat="-27.2737707" lon="151.289906">
  <ele>344.09</ele>
  <time>2026-09-01T19:57:28Z</time>
  <course>292.33</course>
  <speed>0.01</speed>
  <fix>3d</fix>
</trkpt>
<trkpt lat="-27.2737707" lon="151.2899057">
  <ele>343.77</ele>
  <time>2026-09-01T19:57:28Z</time>
  <course>107.13</course>
  <speed>0.03</speed>
  <fix>3d</fix>
</trkpt>
<trkpt lat="-27.2737707" lon="151.2899059">
  <ele>343.99</ele>
  <time>2026-09-01T19:57:28Z</time>
  <course>292.2</course>
  <speed>0.01</speed>
  <fix>3d</fix>
</trkpt>
<trkpt lat="-27.2737707" lon="151.2899057">
  <ele>343.72</ele>
  <time>2026-09-01T19:57:28Z</time>
  <course>107.12</course>
  <speed>0.0316227766016838</speed>
  <fix>3d</fix>
</trkpt>
<trkpt lat="-27.2737707" lon="151.2899059">
  <ele>343.99</ele>
  <time>2026-09-01T19:57:28Z</time>
  <course>292.2</course>
  <speed>0.01</speed>
  <fix>3d</fix>
</trkpt>
<trkpt lat="-27.2737707" lon="151.2899057">
  <ele>343.67</ele>
  <time>2026-09-01T19:57:28Z</time>
  <course>107.11</course>
  <speed>0.03</speed>
  <fix>3d</fix>
</trkpt>
<trkpt lat="-27.2737707" lon="151.2899058">
  <ele>343.89</ele>
  <time>2026-09-01T19:57:28Z</time>
  <course>291.41</course>
  <speed>0.01</speed>
  <fix>3d</fix>
</trkpt>
<trkpt lat="-27.2737707" lon="151.2899057">
  <ele>343.62</ele>
  <time>2026-09-01T19:57:28Z</time>
  <course>107.09</course>
  <speed>0.0316227766016838</speed>
  <fix>3d</fix>
</trkpt>
<trkpt lat="-27.2737707" lon="151.2899058">
  <ele>343.89</ele>
  <time>2026-09-01T19:57:28Z</time>
  <course>291.41</course>
  <speed>0.01</speed>
  <fix>3d</fix>
</trkpt>
<trkpt lat="-27.2737707" lon="151.2899056">
  <ele>343.57</ele>
  <time>2026-09-01T19:57:28Z</time>
  <course>107.07</course>
  <speed>0.0316227766016838</speed>
  <fix>3d</fix>
</trkpt>
<trkpt lat="-27.2737707" lon="151.2899058">
  <ele>343.78</ele>
  <time>2026-09-01T19:57:28Z</time>
  <course>290.57</course>
  <speed>0.01</speed>
  <fix>3d</fix>
</trkpt>
<trkpt lat="-27.2737707" lon="151.2899056">
  <ele>343.52</ele>
  <time>2026-09-01T19:57:28Z</time>
  <course>107.05</course>
  <speed>0.0316227766016838</speed>
  <fix>3d</fix>
</trkpt>
<trkpt lat="-27.2737707" lon="151.2899058">
  <ele>343.78</ele>
  <time>2026-09-01T19:57:28Z</time>
  <course>290.57</course>
  <speed>0.01</speed>
  <fix>3d</fix>
</trkpt>
<trkpt lat="-27.2737707" lon="151.2899056">
  <ele>343.47</ele>
  <time>2026-09-01T19:57:28Z</time>
  <course>107.04</course>
  <speed>0.0316227766016838</speed>
  <fix>3d</fix>
</trkpt>
<trkpt lat="-27.2737707" lon="151.2899058">
  <ele>343.69</ele>
  <time>2026-09-01T19:57:28Z</time>
  <course>290.64</course>
  <speed>0.01</speed>
  <fix>3d</fix>
</trkpt>
<trkpt lat="-27.2737707" lon="151.2899056">
  <ele>343.42</ele>
  <time>2026-09-01T19:57:28Z</time>
  <course>107.04</course>
  <speed>0.0316227766016838</speed>
  <fix>3d</fix>
</trkpt>
<trkpt lat="-27.2737707" lon="151.2899058">
  <ele>343.69</ele>
  <time>2026-09-01T19:57:28Z</time>
  <course>290.64</course>
  <speed>0.01</speed>
  <fix>3d</fix>
</trkpt>
<trkpt lat="-27.2737707" lon="151.2899056">
  <ele>343.37</ele>
  <time>2026-09-01T19:57:28Z</time>
  <course>107.04</course>
  <speed>0.0316227766016838</speed>
  <fix>3d</fix>
</trkpt>
<trkpt lat="-27.2737707" lon="151.2899058">
  <ele>343.59</ele>
  <time>2026-09-01T19:57:28Z</time>
  <course>291.84</course>
  <speed>0.01</speed>
  <fix>3d</fix>
</trkpt>
<trkpt lat="-27.2737707" lon="151.2899056">
  <ele>343.32</ele>
  <time>2026-09-01T19:57:28Z</time>
  <course>107.04</course>
  <speed>0.0316227766016838</speed>
  <fix>3d</fix>
</trkpt>
<trkpt lat="-27.2737707" lon="151.2899058">
  <ele>343.59</ele>
  <time>2026-09-01T19:57:28Z</time>
  <course>291.84</course>
  <speed>0.01</speed>
  <fix>3d</fix>
</trkpt>
<trkpt lat="-27.2737707" lon="151.2899056">
  <ele>343.27</ele>
  <time>2026-09-01T19:57:28Z</time>
  <course>107.04</course>
  <speed>0.0316227766016838</speed>
  <fix>3d</fix>
</trkpt>
<trkpt lat="-27.2737707" lon="151.2899058">
  <ele>343.49</ele>
  <time>2026-09-01T19:57:28Z</time>
  <course>292.36</course>
  <speed>0.0</speed>
  <fix>3d</fix>
</trkpt>
<trkpt lat="-27.2737707" lon="151.2899055">
  <ele>343.22</ele>
  <time>2026-09-01T19:57:28Z</time>
  <course>107.03</course>
  <speed>0.0316227766016838</speed>
  <fix>3d</fix>
</trkpt>
<trkpt lat="-27.2737707" lon="151.2899058">
  <ele>343.49</ele>
  <time>2026-09-01T19:57:28Z</time>
  <course>292.36</course>
  <speed>0.0</speed>
  <fix>3d</fix>
</trkpt>
<trkpt lat="-27.2737707" lon="151.2899055">
  <ele>343.17</ele>
  <time>2026-09-01T19:57:28Z</time>
  <course>107.03</course>
  <speed>0.0316227766016838</speed>
  <fix>3d</fix>
</trkpt>
<trkpt lat="-27.2737707" lon="151.2899057">
  <ele>343.39</ele>
  <time>2026-09-01T19:57:28Z</time>
  <course>292.62</course>
  <speed>0.0</speed>
  <fix>3d</fix>
</trkpt>
<trkpt lat="-27.2737707" lon="151.2899055">
  <ele>343.12</ele>
  <time>2026-09-01T19:57:28Z</time>
  <course>107.04</course>
  <speed>0.0316227766016838</speed>
  <fix>3d</fix>
</trkpt>
<trkpt lat="-27.2737707" lon="151.2899057">
  <ele>343.39</ele>
  <time>2026-09-01T19:57:28Z</time>
  <course>292.62</course>
  <speed>0.0</speed>
  <fix>3d</fix>
</trkpt>
<trkpt lat="-27.2737707" lon="151.2899055">
  <ele>343.07</ele>
  <time>2026-09-01T19:57:28Z</time>
  <course>107.05</course>
  <speed>0.0316227766016838</speed>
  <fix>3d</fix>
</trkpt>
<trkpt lat="-27.2737707" lon="151.2899057">
  <ele>343.28</ele>
  <time>2026-09-01T19:57:28Z</time>
  <course>293.61</course>
  <speed>0.0</speed>
  <fix>3d</fix>
</trkpt>
<trkpt lat="-27.2737707" lon="151.2899055">
  <ele>343.02</ele>
  <time>2026-09-01T19:57:28Z</time>
  <course>107.05</course>
  <speed>0.0316227766016838</speed>
  <fix>3d</fix>
</trkpt>
<trkpt lat="-27.2737707" lon="151.2899057">
  <ele>343.28</ele>
  <time>2026-09-01T19:57:28Z</time>
  <course>293.61</course>
  <speed>0.0</speed>
  <fix>3d</fix>
</trkpt>
<trkpt lat="-27.2737707" lon="151.2899055">
  <ele>342.97</ele>
  <time>2026-09-01T19:57:28Z</time>
  <course>107.05</course>
  <speed>0.0316227766016838</speed>
  <fix>3d</fix>
</trkpt>
<trkpt lat="-27.2737707" lon="151.2899057">
  <ele>343.19</ele>
  <time>2026-09-01T19:57:28Z</time>
  <course>294.01</course>
  <speed>0.0</speed>
  <fix>3d</fix>
</trkpt>
<trkpt lat="-27.2737707" lon="151.2899055">
  <ele>342.93</ele>
  <time>2026-09-01T19:57:28Z</time>
  <course>107.05</course>
  <speed>0.0316227766016838</speed>
  <fix>3d</fix>
</trkpt>
<trkpt lat="-27.2737707" lon="151.2899057">
  <ele>343.19</ele>
  <time>2026-09-01T19:57:28Z</time>
  <course>294.01</course>
  <speed>0.0</speed>
  <fix>3d</fix>
</trkpt>
<trkpt lat="-27.2737708" lon="151.2899055">
  <ele>342.94</ele>
  <time>2026-09-01T19:57:28Z</time>
  <course>107.05</course>
  <speed>0.0316227766016838</speed>
  <fix>3d</fix>
</trkpt>
<trkpt lat="-27.2737707" lon="151.2899057">
  <ele>343.1</ele>
  <time>2026-09-01T19:57:28Z</time>
  <course>293.88</course>
  <speed>0.0</speed>
  <fix>3d</fix>
</trkpt>
<trkpt lat="-27.2737708" lon="151.2899055">
  <ele>342.96</ele>
  <time>2026-09-01T19:57:28Z</time>
  <course>107.05</course>
  <speed>0.0316227766016838</speed>
  <fix>3d</fix>
</trkpt>
<trkpt lat="-27.2737707" lon="151.2899057">
  <ele>343.1</ele>
  <time>2026-09-01T19:57:28Z</time>
  <course>293.88</course>
  <speed>0.0</speed>
  <fix>3d</fix>
</trkpt>
<trkpt lat="-27.2737708" lon="151.2899055">
  <ele>342.97</ele>
  <time>2026-09-01T19:57:28Z</time>
  <course>107.05</course>
  <speed>0.0316227766016838</speed>
  <fix>3d</fix>
</trkpt>
<trkpt lat="-27.2737707" lon="151.2899057">
  <ele>343.06</ele>
  <time>2026-09-01T19:57:28Z</time>
  <course>294.01</course>
  <speed>0.0</speed>
  <fix>3d</fix>
</trkpt>
<trkpt lat="-27.2737708" lon="151.2899055">
  <ele>342.97</ele>
  <time>2026-09-01T19:57:28Z</time>
  <course>107.05</course>
  <speed>0.0316227766016838</speed>
  <fix>3d</fix>
</trkpt>
<trkpt lat="-27.2737707" lon="151.2899057">
  <ele>343.06</ele>
  <time>2026-09-01T19:57:28Z</time>
  <course>294.01</course>
  <speed>0.0</speed>
  <fix>3d</fix>
</trkpt>
<trkpt lat="-27.2737708" lon="151.2899055">
  <ele>342.97</ele>
  <time>2026-09-01T19:57:28Z</time>
  <course>107.05</course>
  <speed>0.0316227766016838</speed>
  <fix>3d</fix>
</trkpt>
<trkpt lat="-27.2737707" lon="151.2899057">
  <ele>343.07</ele>
  <time>2026-09-01T19:57:28Z</time>
  <course>113.98</course>
  <speed>0.0</speed>
  <fix>3d</fix>
</trkpt>
<trkpt lat="-27.2737708" lon="151.2899055">
  <ele>342.97</ele>
  <time>2026-09-01T19:57:28Z</time>
  <course>107.05</course>
  <speed>0.0316227766016838</speed>
  <fix>3d</fix>
</trkpt>
<trkpt lat="-27.2737707" lon="151.2899057">
  <ele>343.07</ele>
  <time>2026-09-01T19:57:28Z</time>
  <course>113.98</course>
  <speed>0.0</speed>
  <fix>3d</fix>
</trkpt>
<trkpt lat="-27.2737708" lon="151.2899055">
  <ele>342.97</ele>
  <time>2026-09-01T19:57:28Z</time>
  <course>107.05</course>
  <speed>0.0316227766016838</speed>
  <fix>3d</fix>
</trkpt>
<trkpt lat="-27.2737707" lon="151.2899057">
  <ele>343.08</ele>
  <time>2026-09-01T19:57:28Z</time>
  <course>294.0</course>
  <speed>0.0</speed>
  <fix>3d</fix>
</trkpt>
<trkpt lat="-27.2737708" lon="151.2899055">
  <ele>342.97</ele>
  <time>2026-09-01T19:57:28Z</time>
  <course>107.05</course>
  <speed>0.0316227766016838</speed>
  <fix>3d</fix>
</trkpt>
<trkpt lat="-27.2737707" lon="151.2899057">
  <ele>343.08</ele>
  <time>2026-09-01T19:57:28Z</time>
  <course>294.0</course>
  <speed>0.0</speed>
  <fix>3d</fix>
</trkpt>
<trkpt lat="-27.2737708" lon="151.2899055">
  <ele>342.97</ele>
  <time>2026-09-01T19:57:28Z</time>
  <course>107.05</course>
  <speed>0.0316227766016838</speed>
  <fix>3d</fix>
</trkpt>
<trkpt lat="-27.2737707" lon="151.2899057">
  <ele>343.08</ele>
  <time>2026-09-01T19:57:28Z</time>
  <course>294.0</course>
  <speed>0.0</speed>
  <fix>3d</fix>
</trkpt>
<trkpt lat="-27.2737708" lon="151.2899054">
  <ele>342.97</ele>
  <time>2026-09-01T19:57:28Z</time>
  <course>107.05</course>
  <speed>0.0316227766016838</speed>
  <fix>3d</fix>
</trkpt>
<trkpt lat="-27.2737707" lon="151.2899057">
  <ele>343.08</ele>
  <time>2026-09-01T19:57:28Z</time>
  <course>294.0</course>
  <speed>0.0</speed>
  <fix>3d</fix>
</trkpt>
<trkpt lat="-27.2737708" lon="151.2899054">
  <ele>342.97</ele>
  <time>2026-09-01T19:57:28Z</time>
  <course>107.05</course>
  <speed>0.0316227766016838</speed>
  <fix>3d</fix>
</trkpt>
<trkpt lat="-27.2737707" lon="151.2899057">
  <ele>343.08</ele>
  <time>2026-09-01T19:57:28Z</time>
  <course>113.9</course>
  <speed>0.0</speed>
  <fix>3d</fix>
</trkpt>
<trkpt lat="-27.2737708" lon="151.2899054">
  <ele>342.98</ele>
  <time>2026-09-01T19:57:28Z</time>
  <course>107.05</course>
  <speed>0.0316227766016838</speed>
  <fix>3d</fix>
</trkpt>
<trkpt lat="-27.2737707" lon="151.2899057">
  <ele>343.08</ele>
  <time>2026-09-01T19:57:28Z</time>
  <course>113.9</course>
  <speed>0.0</speed>
  <fix>3d</fix>
</trkpt>
<trkpt lat="-27.2737708" lon="151.2899054">
  <ele>342.98</ele>
  <time>2026-09-01T19:57:28Z</time>
  <course>107.05</course>
  <speed>0.0316227766016838</speed>
  <fix>3d</fix>
</trkpt>
<trkpt lat="-27.2737707" lon="151.2899057">
  <ele>343.08</ele>
  <time>2026-09-01T19:57:28Z</time>
  <course>113.82</course>
  <speed>0.0</speed>
  <fix>3d</fix>
</trkpt>
<trkpt lat="-27.2737708" lon="151.2899054">
  <ele>342.98</ele>
  <time>2026-09-01T19:57:28Z</time>
  <course>107.05</course>
  <speed>0.0316227766016838</speed>
  <fix>3d</fix>
</trkpt>
<trkpt lat="-27.2737707" lon="151.2899057">
  <ele>343.08</ele>
  <time>2026-09-01T19:57:28Z</time>
  <course>113.82</course>
  <speed>0.0</speed>
  <fix>3d</fix>
</trkpt>
<trkpt lat="-27.2737708" lon="151.2899054">
  <ele>342.98</ele>
  <time>2026-09-01T19:57:28Z</time>
  <course>107.05</course>
  <speed>0.0316227766016838</speed>
  <fix>3d</fix>
</trkpt>
<trkpt lat="-27.2737707" lon="151.2899057">
  <ele>343.08</ele>
  <time>2026-09-01T19:57:28Z</time>
  <course>293.94</course>
  <speed>0.0</speed>
  <fix>3d</fix>
</trkpt>
<trkpt lat="-27.2737708" lon="151.2899054">
  <ele>342.98</ele>
  <time>2026-09-01T19:57:28Z</time>
  <course>107.05</course>
  <speed>0.0316227766016838</speed>
  <fix>3d</fix>
</trkpt>
<trkpt lat="-27.2737707" lon="151.2899057">
  <ele>343.08</ele>
  <time>2026-09-01T19:57:28Z</time>
  <course>293.94</course>
  <speed>0.0</speed>
  <fix>3d</fix>
</trkpt>
<trkpt lat="-27.2737708" lon="151.2899054">
  <ele>342.98</ele>
  <time>2026-09-01T19:57:28Z</time>
  <course>107.05</course>
  <speed>0.0316227766016838</speed>
  <fix>3d</fix>
</trkpt>
<trkpt lat="-27.2737707" lon="151.2899057">
  <ele>343.08</ele>
  <time>2026-09-01T19:57:28Z</time>
  <course>293.0</course>
  <speed>0.0</speed>
  <fix>3d</fix>
</trkpt>
<trkpt lat="-27.2737708" lon="151.2899054">
  <ele>342.98</ele>
  <time>2026-09-01T19:57:28Z</time>
  <course>107.05</course>
  <speed>0.0316227766016838</speed>
  <fix>3d</fix>
</trkpt>
<trkpt lat="-27.2737707" lon="151.2899057">
  <ele>343.08</ele>
  <time>2026-09-01T19:57:28Z</time>
  <course>293.0</course>
  <speed>0.0</speed>
  <fix>3d</fix>
</trkpt>
<trkpt lat="-27.2737708" lon="151.2899054">
  <ele>342.99</ele>
  <time>2026-09-01T19:57:28Z</time>
  <course>107.05</course>
  <speed>0.0316227766016838</speed>
  <fix>3d</fix>
</trkpt>
<trkpt lat="-27.2737707" lon="151.2899057">
  <ele>343.08</ele>
  <time>2026-09-01T19:57:28Z</time>
  <course>114.2</course>
  <speed>0.0</speed>
  <fix>3d</fix>
</trkpt>
<trkpt lat="-27.2737708" lon="151.2899054">
  <ele>342.99</ele>
  <time>2026-09-01T19:57:28Z</time>
  <course>107.05</course>
  <speed>0.0316227766016838</speed>
  <fix>3d</fix>
</trkpt>
<trkpt lat="-27.2737707" lon="151.2899057">
  <ele>343.08</ele>
  <time>2026-09-01T19:57:28Z</time>
  <course>114.2</course>
  <speed>0.0</speed>
  <fix>3d</fix>
</trkpt>
<trkpt lat="-27.2737708" lon="151.2899054">
  <ele>342.99</ele>
  <time>2026-09-01T19:57:28Z</time>
  <course>107.05</course>
  <speed>0.0316227766016838</speed>
  <fix>3d</fix>
</trkpt>
<trkpt lat="-27.2737707" lon="151.2899057">
  <ele>343.08</ele>
  <time>2026-09-01T19:57:28Z</time>
  <course>122.25</course>
  <speed>0.0</speed>
  <fix>3d</fix>
</trkpt>
<trkpt lat="-27.2737708" lon="151.2899054">
  <ele>342.99</ele>
  <time>2026-09-01T19:57:28Z</time>
  <course>107.05</course>
  <speed>0.0316227766016838</speed>
  <fix>3d</fix>
</trkpt>
<trkpt lat="-27.2737707" lon="151.2899057">
  <ele>343.08</ele>
  <time>2026-09-01T19:57:28Z</time>
  <course>122.25</course>
  <speed>0.0</speed>
  <fix>3d</fix>
</trkpt>
<trkpt lat="-27.2737708" lon="151.2899054">
  <ele>342.99</ele>
  <time>2026-09-01T19:57:28Z</time>
  <course>107.05</course>
  <speed>0.0316227766016838</speed>
  <fix>3d</fix>
</trkpt>
<trkpt lat="-27.2737707" lon="151.2899057">
  <ele>343.08</ele>
  <time>2026-09-01T19:57:28Z</time>
  <course>290.73</course>
  <speed>0.0</speed>
  <fix>3d</fix>
</trkpt>
<trkpt lat="-27.2737708" lon="151.2899054">
  <ele>342.99</ele>
  <time>2026-09-01T19:57:28Z</time>
  <course>107.05</course>
  <speed>0.0316227766016838</speed>
  <fix>3d</fix>
</trkpt>
<trkpt lat="-27.2737707" lon="151.2899057">
  <ele>343.08</ele>
  <time>2026-09-01T19:57:28Z</time>
  <course>290.73</course>
  <speed>0.0</speed>
  <fix>3d</fix>
</trkpt>
<trkpt lat="-27.2737708" lon="151.2899054">
  <ele>342.99</ele>
  <time>2026-09-01T19:57:28Z</time>
  <course>107.05</course>
  <speed>0.0316227766016838</speed>
  <fix>3d</fix>
</trkpt>
<trkpt lat="-27.2737707" lon="151.2899057">
  <ele>343.08</ele>
  <time>2026-09-01T19:57:28Z</time>
  <course>253.33</course>
  <speed>0.0</speed>
  <fix>3d</fix>
</trkpt>
<trkpt lat="-27.2737708" lon="151.2899054">
  <ele>342.99</ele>
  <time>2026-09-01T19:57:28Z</time>
  <course>107.05</course>
  <speed>0.0316227766016838</speed>
  <fix>3d</fix>
</trkpt>
<trkpt lat="-27.2737707" lon="151.2899057">
  <ele>343.08</ele>
  <time>2026-09-01T19:57:28Z</time>
  <course>253.33</course>
  <speed>0.0</speed>
  <fix>3d</fix>
</trkpt>
<trkpt lat="-27.2737708" lon="151.2899054">
  <ele>342.99</ele>
  <time>2026-09-01T19:57:28Z</time>
  <course>107.04</course>
  <speed>0.0316227766016838</speed>
  <fix>3d</fix>
</trkpt>
<trkpt lat="-27.2737707" lon="151.2899057">
  <ele>343.08</ele>
  <time>2026-09-01T19:57:28Z</time>
  <course>250.17</course>
  <speed>0.0</speed>
  <fix>3d</fix>
</trkpt>
<trkpt lat="-27.2737708" lon="151.2899054">
  <ele>342.99</ele>
  <time>2026-09-01T19:57:28Z</time>
  <course>107.04</course>
  <speed>0.0316227766016838</speed>
  <fix>3d</fix>
</trkpt>
<trkpt lat="-27.2737707" lon="151.2899057">
  <ele>343.08</ele>
  <time>2026-09-01T19:57:28Z</time>
  <course>250.17</course>
  <speed>0.0</speed>
  <fix>3d</fix>
</trkpt>
<trkpt lat="-27.2737708" lon="151.2899054">
  <ele>342.99</ele>
  <time>2026-09-01T19:57:28Z</time>
  <course>107.04</course>
  <speed>0.0316227766016838</speed>
  <fix>3d</fix>
</trkpt>
<trkpt lat="-27.2737707" lon="151.2899057">
  <ele>343.08</ele>
  <time>2026-09-01T19:57:28Z</time>
  <course>265.32</course>
  <speed>0.0</speed>
  <fix>3d</fix>
</trkpt>
<trkpt lat="-27.2737708" lon="151.2899054">
  <ele>342.99</ele>
  <time>2026-09-01T19:57:28Z</time>
  <course>107.04</course>
  <speed>0.0316227766016838</speed>
  <fix>3d</fix>
</trkpt>
<trkpt lat="-27.2737707" lon="151.2899057">
  <ele>343.08</ele>
  <time>2026-09-01T19:57:28Z</time>
  <course>265.32</course>
  <speed>0.0</speed>
  <fix>3d</fix>
</trkpt>
<trkpt lat="-27.2737708" lon="151.2899054">
  <ele>342.99</ele>
  <time>2026-09-01T19:57:28Z</time>
  <course>107.04</course>
  <speed>0.0316227766016838</speed>
  <fix>3d</fix>
</trkpt>
<trkpt lat="-27.2737707" lon="151.2899057">
  <ele>343.08</ele>
  <time>2026-09-01T19:57:28Z</time>
  <course>247.36</course>
  <speed>0.0</speed>
  <fix>3d</fix>
</trkpt>
<trkpt lat="-27.2737708" lon="151.2899054">
  <ele>342.99</ele>
  <time>2026-09-01T19:57:28Z</time>
  <course>107.04</course>
  <speed>0.0316227766016838</speed>
  <fix>3d</fix>
</trkpt>
<trkpt lat="-27.2737707" lon="151.2899057">
  <ele>343.08</ele>
  <time>2026-09-01T19:57:28Z</time>
  <course>247.36</course>
  <speed>0.0</speed>
  <fix>3d</fix>
</trkpt>
<trkpt lat="-27.2737708" lon="151.2899054">
  <ele>342.99</ele>
  <time>2026-09-01T19:57:28Z</time>
  <course>107.04</course>
  <speed>0.0316227766016838</speed>
  <fix>3d</fix>
</trkpt>
<trkpt lat="-27.2737707" lon="151.2899057">
  <ele>343.08</ele>
  <time>2026-09-01T19:57:28Z</time>
  <course>264.04</course>
  <speed>0.0</speed>
  <fix>3d</fix>
</trkpt>
<trkpt lat="-27.2737708" lon="151.2899054">
  <ele>342.99</ele>
  <time>2026-09-01T19:57:28Z</time>
  <course>107.04</course>
  <speed>0.0316227766016838</speed>
  <fix>3d</fix>
</trkpt>
<trkpt lat="-27.2737707" lon="151.2899057">
  <ele>343.08</ele>
  <time>2026-09-01T19:57:28Z</time>
  <course>264.04</course>
  <speed>0.0</speed>
  <fix>3d</fix>
</trkpt>
<trkpt lat="-27.2737708" lon="151.2899054">
  <ele>342.99</ele>
  <time>2026-09-01T19:57:28Z</time>
  <course>107.04</course>
  <speed>0.0316227766016838</speed>
  <fix>3d</fix>
</trkpt>
<trkpt lat="-27.2737707" lon="151.2899057">
  <ele>343.08</ele>
  <time>2026-09-01T19:57:28Z</time>
  <course>265.92</course>
  <speed>0.0</speed>
  <fix>3d</fix>
</trkpt>
<trkpt lat="-27.2737708" lon="151.2899054">
  <ele>342.99</ele>
  <time>2026-09-01T19:57:28Z</time>
  <course>107.04</course>
  <speed>0.0316227766016838</speed>
  <fix>3d</fix>
</trkpt>
<trkpt lat="-27.2737707" lon="151.2899057">
  <ele>343.08</ele>
  <time>2026-09-01T19:57:28Z</time>
  <course>265.92</course>
  <speed>0.0</speed>
  <fix>3d</fix>
</trkpt>
<trkpt lat="-27.2737708" lon="151.2899054">
  <ele>342.99</ele>
  <time>2026-09-01T19:57:28Z</time>
  <course>107.04</course>
  <speed>0.0316227766016838</speed>
  <fix>3d</fix>
</trkpt>
<trkpt lat="-27.2737707" lon="151.2899057">
  <ele>343.08</ele>
  <time>2026-09-01T19:57:28Z</time>
  <course>247.59</course>
  <speed>0.0</speed>
  <fix>3d</fix>
</trkpt>
<trkpt lat="-27.2737708" lon="151.2899054">
  <ele>342.99</ele>
  <time>2026-09-01T19:57:28Z</time>
  <course>107.04</course>
  <speed>0.0316227766016838</speed>
  <fix>3d</fix>
</trkpt>
<trkpt lat="-27.2737707" lon="151.2899057">
  <ele>343.08</ele>
  <time>2026-09-01T19:57:28Z</time>
  <course>247.59</course>
  <speed>0.0</speed>
  <fix>3d</fix>
</trkpt>
<trkpt lat="-27.2737708" lon="151.2899054">
  <ele>342.99</ele>
  <time>2026-09-01T19:57:28Z</time>
  <course>107.04</course>
  <speed>0.0316227766016838</speed>
  <fix>3d</fix>
</trkpt>
<trkpt lat="-27.2737707" lon="151.2899057">
  <ele>343.08</ele>
  <time>2026-09-01T19:57:28Z</time>
  <course>262.72</course>
  <speed>0.0</speed>
  <fix>3d</fix>
</trkpt>
<trkpt lat="-27.2737708" lon="151.2899054">
  <ele>342.99</ele>
  <time>2026-09-01T19:57:28Z</time>
  <course>107.04</course>
  <speed>0.0316227766016838</speed>
  <fix>3d</fix>
</trkpt>
<trkpt lat="-27.2737707" lon="151.2899057">
  <ele>343.08</ele>
  <time>2026-09-01T19:57:28Z</time>
  <course>262.72</course>
  <speed>0.0</speed>
  <fix>3d</fix>
</trkpt>
<trkpt lat="-27.2737708" lon="151.2899054">
  <ele>343.0</ele>
  <time>2026-09-01T19:57:28Z</time>
  <course>107.04</course>
  <speed>0.0316227766016838</speed>
  <fix>3d</fix>
</trkpt>
<trkpt lat="-27.2737707" lon="151.2899057">
  <ele>343.08</ele>
  <time>2026-09-01T19:57:28Z</time>
  <course>265.85</course>
  <speed>0.0</speed>
  <fix>3d</fix>
</trkpt>
<trkpt lat="-27.2737708" lon="151.2899054">
  <ele>343.0</ele>
  <time>2026-09-01T19:57:28Z</time>
  <course>107.04</course>
  <speed>0.0316227766016838</speed>
  <fix>3d</fix>
</trkpt>
<trkpt lat="-27.2737707" lon="151.2899057">
  <ele>343.08</ele>
  <time>2026-09-01T19:57:28Z</time>
  <course>265.85</course>
  <speed>0.0</speed>
  <fix>3d</fix>
</trkpt>
<trkpt lat="-27.2737708" lon="151.2899054">
  <ele>343.0</ele>
  <time>2026-09-01T19:57:28Z</time>
  <course>107.04</course>
  <speed>0.0316227766016838</speed>
  <fix>3d</fix>
</trkpt>
<trkpt lat="-27.2737707" lon="151.2899057">
  <ele>343.08</ele>
  <time>2026-09-01T19:57:28Z</time>
  <course>266.25</course>
  <speed>0.0</speed>
  <fix>3d</fix>
</trkpt>
<trkpt lat="-27.2737708" lon="151.2899054">
  <ele>343.0</ele>
  <time>2026-09-01T19:57:28Z</time>
  <course>107.04</course>
  <speed>0.0316227766016838</speed>
  <fix>3d</fix>
</trkpt>
<trkpt lat="-27.2737707" lon="151.2899057">
  <ele>343.08</ele>
  <time>2026-09-01T19:57:28Z</time>
  <course>266.25</course>
  <speed>0.0</speed>
  <fix>3d</fix>
</trkpt>
<trkpt lat="-27.2737708" lon="151.2899054">
  <ele>343.0</ele>
  <time>2026-09-01T19:57:28Z</time>
  <course>107.04</course>
  <speed>0.0316227766016838</speed>
  <fix>3d</fix>
</trkpt>
<trkpt lat="-27.2737707" lon="151.2899057">
  <ele>343.08</ele>
  <time>2026-09-01T19:57:28Z</time>
  <course>281.02</course>
  <speed>0.0</speed>
  <fix>3d</fix>
</trkpt>
<trkpt lat="-27.2737708" lon="151.2899054">
  <ele>343.0</ele>
  <time>2026-09-01T19:57:28Z</time>
  <course>107.04</course>
  <speed>0.0316227766016838</speed>
  <fix>3d</fix>
</trkpt>
<trkpt lat="-27.2737707" lon="151.2899057">
  <ele>343.08</ele>
  <time>2026-09-01T19:57:28Z</time>
  <course>281.02</course>
  <speed>0.0</speed>
  <fix>3d</fix>
</trkpt>
<trkpt lat="-27.2737708" lon="151.2899054">
  <ele>343.0</ele>
  <time>2026-09-01T19:57:28Z</time>
  <course>107.04</course>
  <speed>0.0316227766016838</speed>
  <fix>3d</fix>
</trkpt>
<trkpt lat="-27.2737707" lon="151.2899057">
  <ele>343.08</ele>
  <time>2026-09-01T19:57:28Z</time>
  <course>250.55</course>
  <speed>0.0</speed>
  <fix>3d</fix>
</trkpt>
<trkpt lat="-27.2737708" lon="151.2899054">
  <ele>343.0</ele>
  <time>2026-09-01T19:57:28Z</time>
  <course>107.04</course>
  <speed>0.0316227766016838</speed>
  <fix>3d</fix>
</trkpt>
<trkpt lat="-27.2737707" lon="151.2899057">
  <ele>343.08</ele>
  <time>2026-09-01T19:57:28Z</time>
  <course>250.55</course>
  <speed>0.0</speed>
  <fix>3d</fix>
</trkpt>
<trkpt lat="-27.2737708" lon="151.2899054">
  <ele>343.0</ele>
  <time>2026-09-01T19:57:28Z</time>
  <course>107.04</course>
  <speed>0.0316227766016838</speed>
  <fix>3d</fix>
</trkpt>
<trkpt lat="-27.2737707" lon="151.2899057">
  <ele>343.08</ele>
  <time>2026-09-01T19:57:28Z</time>
  <course>263.24</course>
  <speed>0.0</speed>
  <fix>3d</fix>
</trkpt>
<trkpt lat="-27.2737708" lon="151.2899054">
  <ele>343.0</ele>
  <time>2026-09-01T19:57:28Z</time>
  <course>107.04</course>
  <speed>0.0316227766016838</speed>
  <fix>3d</fix>
</trkpt>
<trkpt lat="-27.2737707" lon="151.2899057">
  <ele>343.08</ele>
  <time>2026-09-01T19:57:28Z</time>
  <course>263.24</course>
  <speed>0.0</speed>
  <fix>3d</fix>
</trkpt>
<trkpt lat="-27.2737708" lon="151.2899054">
  <ele>343.01</ele>
  <time>2026-09-01T19:57:28Z</time>
  <course>107.04</course>
  <speed>0.0316227766016838</speed>
  <fix>3d</fix>
</trkpt>
<trkpt lat="-27.2737707" lon="151.2899057">
  <ele>343.08</ele>
  <time>2026-09-01T19:57:28Z</time>
  <course>293.41</course>
  <speed>0.0</speed>
  <fix>3d</fix>
</trkpt>
<trkpt lat="-27.2737708" lon="151.2899054">
  <ele>343.01</ele>
  <time>2026-09-01T19:57:28Z</time>
  <course>107.04</course>
  <speed>0.0316227766016838</speed>
  <fix>3d</fix>
</trkpt>
<trkpt lat="-27.2737707" lon="151.2899057">
  <ele>343.08</ele>
  <time>2026-09-01T19:57:28Z</time>
  <course>293.41</course>
  <speed>0.0</speed>
  <fix>3d</fix>
</trkpt>
<trkpt lat="-27.2737708" lon="151.2899054">
  <ele>343.01</ele>
  <time>2026-09-01T19:57:28Z</time>
  <course>107.04</course>
  <speed>0.0316227766016838</speed>
  <fix>3d</fix>
</trkpt>
<trkpt lat="-27.2737707" lon="151.2899057">
  <ele>343.08</ele>
  <time>2026-09-01T19:57:28Z</time>
  <course>279.21</course>
  <speed>0.0</speed>
  <fix>3d</fix>
</trkpt>
<trkpt lat="-27.2737708" lon="151.2899054">
  <ele>343.01</ele>
  <time>2026-09-01T19:57:28Z</time>
  <course>107.04</course>
  <speed>0.0316227766016838</speed>
  <fix>3d</fix>
</trkpt>
<trkpt lat="-27.2737707" lon="151.2899057">
  <ele>343.08</ele>
  <time>2026-09-01T19:57:28Z</time>
  <course>279.21</course>
  <speed>0.0</speed>
  <fix>3d</fix>
</trkpt>
<trkpt lat="-27.2737708" lon="151.2899054">
  <ele>343.01</ele>
  <time>2026-09-01T19:57:28Z</time>
  <course>107.04</course>
  <speed>0.0316227766016838</speed>
  <fix>3d</fix>
</trkpt>
<trkpt lat="-27.2737707" lon="151.2899057">
  <ele>343.08</ele>
  <time>2026-09-01T19:57:28Z</time>
  <course>279.26</course>
  <speed>0.0</speed>
  <fix>3d</fix>
</trkpt>
<trkpt lat="-27.2737708" lon="151.2899054">
  <ele>343.01</ele>
  <time>2026-09-01T19:57:28Z</time>
  <course>107.04</course>
  <speed>0.0316227766016838</speed>
  <fix>3d</fix>
</trkpt>
<trkpt lat="-27.2737707" lon="151.2899057">
  <ele>343.08</ele>
  <time>2026-09-01T19:57:28Z</time>
  <course>279.26</course>
  <speed>0.0</speed>
  <fix>3d</fix>
</trkpt>
<trkpt lat="-27.2737708" lon="151.2899054">
  <ele>343.0</ele>
  <time>2026-09-01T19:57:28Z</time>
  <course>107.04</course>
  <speed>0.0316227766016838</speed>
  <fix>3d</fix>
</trkpt>
<trkpt lat="-27.2737707" lon="151.2899057">
  <ele>343.08</ele>
  <time>2026-09-01T19:57:28Z</time>
  <course>258.77</course>
  <speed>0.0</speed>
  <fix>3d</fix>
</trkpt>
<trkpt lat="-27.2737708" lon="151.2899054">
  <ele>343.0</ele>
  <time>2026-09-01T19:57:28Z</time>
  <course>107.04</course>
  <speed>0.0316227766016838</speed>
  <fix>3d</fix>
</trkpt>
<trkpt lat="-27.2737707" lon="151.2899057">
  <ele>343.08</ele>
  <time>2026-09-01T19:57:28Z</time>
  <course>258.77</course>
  <speed>0.0</speed>
  <fix>3d</fix>
</trkpt>
<trkpt lat="-27.2737708" lon="151.2899054">
  <ele>343.0</ele>
  <time>2026-09-01T19:57:28Z</time>
  <course>107.04</course>
  <speed>0.0316227766016838</speed>
  <fix>3d</fix>
</trkpt>
<trkpt lat="-27.2737707" lon="151.2899057">
  <ele>343.08</ele>
  <time>2026-09-01T19:57:28Z</time>
  <course>258.31</course>
  <speed>0.0</speed>
  <fix>3d</fix>
</trkpt>
<trkpt lat="-27.2737708" lon="151.2899054">
  <ele>343.0</ele>
  <time>2026-09-01T19:57:28Z</time>
  <course>107.04</course>
  <speed>0.0316227766016838</speed>
  <fix>3d</fix>
</trkpt>
<trkpt lat="-27.2737707" lon="151.2899057">
  <ele>343.08</ele>
  <time>2026-09-01T19:57:28Z</time>
  <course>258.31</course>
  <speed>0.0</speed>
  <fix>3d</fix>
</trkpt>
<trkpt lat="-27.2737708" lon="151.2899054">
  <ele>343.0</ele>
  <time>2026-09-01T19:57:28Z</time>
  <course>107.04</course>
  <speed>0.0316227766016838</speed>
  <fix>3d</fix>
</trkpt>
<trkpt lat="-27.2737707" lon="151.2899057">
  <ele>343.08</ele>
  <time>2026-09-01T19:57:28Z</time>
  <course>256.93</course>
  <speed>0.0</speed>
  <fix>3d</fix>
</trkpt>
<trkpt lat="-27.2737708" lon="151.2899054">
  <ele>343.0</ele>
  <time>2026-09-01T19:57:28Z</time>
  <course>107.04</course>
  <speed>0.0316227766016838</speed>
  <fix>3d</fix>
</trkpt>
<trkpt lat="-27.2737707" lon="151.2899057">
  <ele>343.08</ele>
  <time>2026-09-01T19:57:28Z</time>
  <course>256.93</course>
  <speed>0.0</speed>
  <fix>3d</fix>
</trkpt>
<trkpt lat="-27.2737708" lon="151.2899054">
  <ele>343.0</ele>
  <time>2026-09-01T19:57:28Z</time>
  <course>107.04</course>
  <speed>0.0316227766016838</speed>
  <fix>3d</fix>
</trkpt>
<trkpt lat="-27.2737707" lon="151.2899057">
  <ele>343.08</ele>
  <time>2026-09-01T19:57:28Z</time>
  <course>92.03</course>
  <speed>0.0</speed>
  <fix>3d</fix>
</trkpt>
<trkpt lat="-27.2737708" lon="151.2899054">
  <ele>343.0</ele>
  <time>2026-09-01T19:57:28Z</time>
  <course>107.04</course>
  <speed>0.0316227766016838</speed>
  <fix>3d</fix>
</trkpt>
<trkpt lat="-27.2737707" lon="151.2899057">
  <ele>343.08</ele>
  <time>2026-09-01T19:57:28Z</time>
  <course>92.03</course>
  <speed>0.0</speed>
  <fix>3d</fix>
</trkpt>
<trkpt lat="-27.2737708" lon="151.2899054">
  <ele>343.0</ele>
  <time>2026-09-01T19:57:28Z</time>
  <course>107.04</course>
  <speed>0.0316227766016838</speed>
  <fix>3d</fix>
</trkpt>
<trkpt lat="-27.2737707" lon="151.2899057">
  <ele>343.08</ele>
  <time>2026-09-01T19:57:28Z</time>
  <course>88.8</course>
  <speed>0.0</speed>
  <fix>3d</fix>
</trkpt>
<trkpt lat="-27.2737708" lon="151.2899054">
  <ele>343.0</ele>
  <time>2026-09-01T19:57:28Z</time>
  <course>107.05</course>
  <speed>0.0316227766016838</speed>
  <fix>3d</fix>
</trkpt>
<trkpt lat="-27.2737707" lon="151.2899057">
  <ele>343.08</ele>
  <time>2026-09-01T19:57:28Z</time>
  <course>88.8</course>
  <speed>0.0</speed>
  <fix>3d</fix>
</trkpt>
<trkpt lat="-27.2737708" lon="151.2899054">
  <ele>343.08</ele>
  <time>2026-09-01T19:57:28Z</time>
  <course>107.05</course>
  <speed>0.0316227766016838</speed>
  <fix>3d</fix>
</trkpt>
<trkpt lat="-27.2737707" lon="151.2899057">
  <ele>343.08</ele>
  <time>2026-09-01T19:57:28Z</time>
  <course>89.57</course>
  <speed>0.0</speed>
  <fix>3d</fix>
</trkpt>
<trkpt lat="-27.2737708" lon="151.2899054">
  <ele>343.07</ele>
  <time>2026-09-01T19:57:28Z</time>
  <course>107.05</course>
  <speed>0.0316227766016838</speed>
  <fix>3d</fix>
</trkpt>
<trkpt lat="-27.2737707" lon="151.2899057">
  <ele>343.08</ele>
  <time>2026-09-01T19:57:28Z</time>
  <course>89.57</course>
  <speed>0.0</speed>
  <fix>3d</fix>
</trkpt>
<trkpt lat="-27.2737708" lon="151.2899054">
  <ele>343.07</ele>
  <time>2026-09-01T19:57:28Z</time>
  <course>107.05</course>
  <speed>0.0316227766016838</speed>
  <fix>3d</fix>
</trkpt>
<trkpt lat="-27.2737707" lon="151.2899057">
  <ele>343.08</ele>
  <time>2026-09-01T19:57:28Z</time>
  <course>269.07</course>
  <speed>0.0</speed>
  <fix>3d</fix>
</trkpt>
<trkpt lat="-27.2737708" lon="151.2899054">
  <ele>343.07</ele>
  <time>2026-09-01T19:57:28Z</time>
  <course>107.06</course>
  <speed>0.0316227766016838</speed>
  <fix>3d</fix>
</trkpt>
<trkpt lat="-27.2737707" lon="151.2899057">
  <ele>343.08</ele>
  <time>2026-09-01T19:57:28Z</time>
  <course>269.07</course>
  <speed>0.0</speed>
  <fix>3d</fix>
</trkpt>
<trkpt lat="-27.2737708" lon="151.2899054">
  <ele>343.07</ele>
  <time>2026-09-01T19:57:28Z</time>
  <course>107.06</course>
  <speed>0.0316227766016838</speed>
  <fix>3d</fix>
</trkpt>
<trkpt lat="-27.2737707" lon="151.2899057">
  <ele>343.08</ele>
  <time>2026-09-01T19:57:28Z</time>
  <course>269.81</course>
  <speed>0.0</speed>
  <fix>3d</fix>
</trkpt>
<trkpt lat="-27.2737708" lon="151.2899054">
  <ele>343.07</ele>
  <time>2026-09-01T19:57:28Z</time>
  <course>107.06</course>
  <speed>0.0316227766016838</speed>
  <fix>3d</fix>
</trkpt>
<trkpt lat="-27.2737707" lon="151.2899057">
  <ele>343.08</ele>
  <time>2026-09-01T19:57:28Z</time>
  <course>269.81</course>
  <speed>0.0</speed>
  <fix>3d</fix>
</trkpt>
<trkpt lat="-27.2737708" lon="151.2899054">
  <ele>343.08</ele>
  <time>2026-09-01T19:57:28Z</time>
  <course>107.06</course>
  <speed>0.022360679774997897</speed>
  <fix>3d</fix>
</trkpt>
<trkpt lat="-27.2737707" lon="151.2899057">
  <ele>343.08</ele>
  <time>2026-09-01T19:57:28Z</time>
  <course>89.21</course>
  <speed>0.0</speed>
  <fix>3d</fix>
</trkpt>
<trkpt lat="-27.2737708" lon="151.2899054">
  <ele>343.07</ele>
  <time>2026-09-01T19:57:28Z</time>
  <course>107.07</course>
  <speed>0.0316227766016838</speed>
  <fix>3d</fix>
</trkpt>
<trkpt lat="-27.2737707" lon="151.2899057">
  <ele>343.08</ele>
  <time>2026-09-01T19:57:28Z</time>
  <course>89.21</course>
  <speed>0.0</speed>
  <fix>3d</fix>
</trkpt>
<trkpt lat="-27.2737708" lon="151.2899055">
  <ele>343.07</ele>
  <time>2026-09-01T19:57:28Z</time>
  <course>107.07</course>
  <speed>0.022360679774997897</speed>
  <fix>3d</fix>
</trkpt>
<trkpt lat="-27.2737707" lon="151.2899057">
  <ele>343.08</ele>
  <time>2026-09-01T19:57:28Z</time>
  <course>90.59</course>
  <speed>0.0</speed>
  <fix>3d</fix>
</trkpt>
<trkpt lat="-27.2737708" lon="151.2899054">
  <ele>343.08</ele>
  <time>2026-09-01T19:57:28Z</time>
  <course>107.07</course>
  <speed>0.022360679774997897</speed>
  <fix>3d</fix>
</trkpt>
<trkpt lat="-27.2737707" lon="151.2899057">
  <ele>343.08</ele>
  <time>2026-09-01T19:57:28Z</time>
  <course>90.59</course>
  <speed>0.0</speed>
  <fix>3d</fix>
</trkpt>
<trkpt lat="-27.2737708" lon="151.2899055">
  <ele>343.08</ele>
  <time>2026-09-01T19:57:28Z</time>
  <course>107.07</course>
  <speed>0.022360679774997897</speed>
  <fix>3d</fix>
</trkpt>
<trkpt lat="-27.2737707" lon="151.2899057">
  <ele>343.08</ele>
  <time>2026-09-01T19:57:28Z</time>
  <course>269.31</course>
  <speed>0.0</speed>
  <fix>3d</fix>
</trkpt>
<trkpt lat="-27.2737708" lon="151.2899055">
  <ele>343.09</ele>
  <time>2026-09-01T19:57:28Z</time>
  <course>107.08</course>
  <speed>0.022360679774997897</speed>
  <fix>3d</fix>
</trkpt>
<trkpt lat="-27.2737707" lon="151.2899057">
  <ele>343.08</ele>
  <time>2026-09-01T19:57:28Z</time>
  <course>269.31</course>
  <speed>0.0</speed>
  <fix>3d</fix>
</trkpt>
<trkpt lat="-27.2737708" lon="151.2899055">
  <ele>343.1</ele>
  <time>2026-09-01T19:57:28Z</time>
  <course>107.08</course>
  <speed>0.022360679774997897</speed>
  <fix>3d</fix>
</trkpt>
<trkpt lat="-27.2737707" lon="151.2899057">
  <ele>343.08</ele>
  <time>2026-09-01T19:57:28Z</time>
  <course>86.11</course>
  <speed>0.0</speed>
  <fix>3d</fix>
</trkpt>
<trkpt lat="-27.2737708" lon="151.2899055">
  <ele>343.1</ele>
  <time>2026-09-01T19:57:28Z</time>
  <course>107.08</course>
  <speed>0.022360679774997897</speed>
  <fix>3d</fix>
</trkpt>
<trkpt lat="-27.2737707" lon="151.2899057">
  <ele>343.08</ele>
  <time>2026-09-01T19:57:28Z</time>
  <course>86.11</course>
  <speed>0.0</speed>
  <fix>3d</fix>
</trkpt>
<trkpt lat="-27.2737708" lon="151.2899055">
  <ele>343.1</ele>
  <time>2026-09-01T19:57:28Z</time>
  <course>107.08</course>
  <speed>0.022360679774997897</speed>
  <fix>3d</fix>
</trkpt>
<trkpt lat="-27.2737707" lon="151.2899057">
  <ele>343.08</ele>
  <time>2026-09-01T19:57:28Z</time>
  <course>89.41</course>
  <speed>0.0</speed>
  <fix>3d</fix>
</trkpt>
<trkpt lat="-27.2737708" lon="151.2899055">
  <ele>343.11</ele>
  <time>2026-09-01T19:57:28Z</time>
  <course>107.09</course>
  <speed>0.022360679774997897</speed>
  <fix>3d</fix>
</trkpt>
<trkpt lat="-27.2737707" lon="151.2899057">
  <ele>343.08</ele>
  <time>2026-09-01T19:57:28Z</time>
  <course>89.41</course>
  <speed>0.0</speed>
  <fix>3d</fix>
</trkpt>
<trkpt lat="-27.2737708" lon="151.2899055">
  <ele>343.11</ele>
  <time>2026-09-01T19:57:28Z</time>
  <course>107.09</course>
  <speed>0.022360679774997897</speed>
  <fix>3d</fix>
</trkpt>
<trkpt lat="-27.2737707" lon="151.2899057">
  <ele>343.08</ele>
  <time>2026-09-01T19:57:28Z</time>
  <course>268.66</course>
  <speed>0.0</speed>
  <fix>3d</fix>
</trkpt>
<trkpt lat="-27.2737708" lon="151.2899055">
  <ele>343.11</ele>
  <time>2026-09-01T19:57:28Z</time>
  <course>107.09</course>
  <speed>0.022360679774997897</speed>
  <fix>3d</fix>
</trkpt>
<trkpt lat="-27.2737707" lon="151.2899057">
  <ele>343.08</ele>
  <time>2026-09-01T19:57:28Z</time>
  <course>268.66</course>
  <speed>0.0</speed>
  <fix>3d</fix>
</trkpt>
<trkpt lat="-27.2737708" lon="151.2899055">
  <ele>343.12</ele>
  <time>2026-09-01T19:57:28Z</time>
  <course>107.1</course>
  <speed>0.022360679774997897</speed>
  <fix>3d</fix>
</trkpt>
<trkpt lat="-27.2737707" lon="151.2899057">
  <ele>343.08</ele>
  <time>2026-09-01T19:57:28Z</time>
  <course>269.53</course>
  <speed>0.0</speed>
  <fix>3d</fix>
</trkpt>
<trkpt lat="-27.2737708" lon="151.2899055">
  <ele>343.12</ele>
  <time>2026-09-01T19:57:28Z</time>
  <course>107.1</course>
  <speed>0.022360679774997897</speed>
  <fix>3d</fix>
</trkpt>
<trkpt lat="-27.2737707" lon="151.2899057">
  <ele>343.08</ele>
  <time>2026-09-01T19:57:28Z</time>
  <course>269.53</course>
  <speed>0.0</speed>
  <fix>3d</fix>
</trkpt>
<trkpt lat="-27.2737708" lon="151.2899055">
  <ele>343.12</ele>
  <time>2026-09-01T19:57:28Z</time>
  <course>107.1</course>
  <speed>0.022360679774997897</speed>
  <fix>3d</fix>
</trkpt>
<trkpt lat="-27.2737707" lon="151.2899057">
  <ele>343.08</ele>
  <time>2026-09-01T19:57:28Z</time>
  <course>89.01</course>
  <speed>0.0</speed>
  <fix>3d</fix>
</trkpt>
<trkpt lat="-27.2737708" lon="151.2899055">
  <ele>343.12</ele>
  <time>2026-09-01T19:57:28Z</time>
  <course>107.1</course>
  <speed>0.022360679774997897</speed>
  <fix>3d</fix>
</trkpt>
<trkpt lat="-27.2737707" lon="151.2899057">
  <ele>343.08</ele>
  <time>2026-09-01T19:57:28Z</time>
  <course>89.01</course>
  <speed>0.0</speed>
  <fix>3d</fix>
</trkpt>
<trkpt lat="-27.2737708" lon="151.2899055">
  <ele>343.12</ele>
  <time>2026-09-01T19:57:28Z</time>
  <course>107.11</course>
  <speed>0.022360679774997897</speed>
  <fix>3d</fix>
</trkpt>
<trkpt lat="-27.2737707" lon="151.2899057">
  <ele>343.08</ele>
  <time>2026-09-01T19:57:28Z</time>
  <course>89.72</course>
  <speed>0.0</speed>
  <fix>3d</fix>
</trkpt>
<trkpt lat="-27.2737708" lon="151.2899055">
  <ele>343.12</ele>
  <time>2026-09-01T19:57:28Z</time>
  <course>107.11</course>
  <speed>0.022360679774997897</speed>
  <fix>3d</fix>
</trkpt>
<trkpt lat="-27.2737707" lon="151.2899057">
  <ele>343.08</ele>
  <time>2026-09-01T19:57:28Z</time>
  <course>89.72</course>
  <speed>0.0</speed>
  <fix>3d</fix>
</trkpt>
<trkpt lat="-27.2737708" lon="151.2899055">
  <ele>343.12</ele>
  <time>2026-09-01T19:57:28Z</time>
  <course>107.11</course>
  <speed>0.022360679774997897</speed>
  <fix>3d</fix>
</trkpt>
<trkpt lat="-27.2737707" lon="151.2899057">
  <ele>343.08</ele>
  <time>2026-09-01T19:57:28Z</time>
  <course>269.17</course>
  <speed>0.0</speed>
  <fix>3d</fix>
</trkpt>
<trkpt lat="-27.2737708" lon="151.2899055">
  <ele>343.12</ele>
  <time>2026-09-01T19:57:28Z</time>
  <course>107.11</course>
  <speed>0.022360679774997897</speed>
  <fix>3d</fix>
</trkpt>
<trkpt lat="-27.2737707" lon="151.2899057">
  <ele>343.08</ele>
  <time>2026-09-01T19:57:28Z</time>
  <course>269.17</course>
  <speed>0.0</speed>
  <fix>3d</fix>
</trkpt>
<trkpt lat="-27.2737708" lon="151.2899055">
  <ele>343.13</ele>
  <time>2026-09-01T19:57:28Z</time>
  <course>107.12</course>
  <speed>0.022360679774997897</speed>
  <fix>3d</fix>
</trkpt>
<trkpt lat="-27.2737707" lon="151.2899057">
  <ele>343.08</ele>
  <time>2026-09-01T19:57:28Z</time>
  <course>270.2</course>
  <speed>0.0</speed>
  <fix>3d</fix>
</trkpt>
<trkpt lat="-27.2737708" lon="151.2899055">
  <ele>343.13</ele>
  <time>2026-09-01T19:57:28Z</time>
  <course>107.12</course>
  <speed>0.022360679774997897</speed>
  <fix>3d</fix>
</trkpt>
<trkpt lat="-27.2737707" lon="151.2899057">
  <ele>343.08</ele>
  <time>2026-09-01T19:57:28Z</time>
  <course>270.2</course>
  <speed>0.0</speed>
  <fix>3d</fix>
</trkpt>
<trkpt lat="-27.2737708" lon="151.2899055">
  <ele>343.13</ele>
  <time>2026-09-01T19:57:28Z</time>
  <course>107.12</course>
  <speed>0.022360679774997897</speed>
  <fix>3d</fix>
</trkpt>
<trkpt lat="-27.2737707" lon="151.2899057">
  <ele>343.08</ele>
  <time>2026-09-01T19:57:28Z</time>
  <course>89.29</course>
  <speed>0.0</speed>
  <fix>3d</fix>
</trkpt>
<trkpt lat="-27.2737708" lon="151.2899055">
  <ele>343.13</ele>
  <time>2026-09-01T19:57:28Z</time>
  <course>107.13</course>
  <speed>0.022360679774997897</speed>
  <fix>3d</fix>
</trkpt>
<trkpt lat="-27.2737707" lon="151.2899057">
  <ele>343.08</ele>
  <time>2026-09-01T19:57:28Z</time>
  <course>89.29</course>
  <speed>0.0</speed>
  <fix>3d</fix>
</trkpt>
<trkpt lat="-27.2737708" lon="151.2899055">
  <ele>343.13</ele>
  <time>2026-09-01T19:57:28Z</time>
  <course>107.13</course>
  <speed>0.022360679774997897</speed>
  <fix>3d</fix>
</trkpt>
<trkpt lat="-27.2737707" lon="151.2899057">
  <ele>343.08</ele>
  <time>2026-09-01T19:57:28Z</time>
  <course>146.59</course>
  <speed>0.0</speed>
  <fix>3d</fix>
</trkpt>
<trkpt lat="-27.2737708" lon="151.2899055">
  <ele>343.12</ele>
  <time>2026-09-01T19:57:28Z</time>
  <course>107.13</course>
  <speed>0.022360679774997897</speed>
  <fix>3d</fix>
</trkpt>
<trkpt lat="-27.2737707" lon="151.2899057">
  <ele>343.08</ele>
  <time>2026-09-01T19:57:28Z</time>
  <course>146.59</course>
  <speed>0.0</speed>
  <fix>3d</fix>
</trkpt>
<trkpt lat="-27.2737708" lon="151.2899055">
  <ele>343.12</ele>
  <time>2026-09-01T19:57:28Z</time>
  <course>107.13</course>
  <speed>0.022360679774997897</speed>
  <fix>3d</fix>
</trkpt>
<trkpt lat="-27.2737707" lon="151.2899057">
  <ele>343.08</ele>
  <time>2026-09-01T19:57:28Z</time>
  <course>269.12</course>
  <speed>0.0</speed>
  <fix>3d</fix>
</trkpt>
<trkpt lat="-27.2737708" lon="151.2899055">
  <ele>343.12</ele>
  <time>2026-09-01T19:57:28Z</time>
  <course>107.14</course>
  <speed>0.022360679774997897</speed>
  <fix>3d</fix>
</trkpt>
<trkpt lat="-27.2737707" lon="151.2899057">
  <ele>343.08</ele>
  <time>2026-09-01T19:57:28Z</time>
  <course>269.12</course>
  <speed>0.0</speed>
  <fix>3d</fix>
</trkpt>
<trkpt lat="-27.2737708" lon="151.2899055">
  <ele>343.12</ele>
  <time>2026-09-01T19:57:28Z</time>
  <course>107.15</course>
  <speed>0.022360679774997897</speed>
  <fix>3d</fix>
</trkpt>
<trkpt lat="-27.2737707" lon="151.2899057">
  <ele>343.08</ele>
  <time>2026-09-01T19:57:28Z</time>
  <course>86.56</course>
  <speed>0.0</speed>
  <fix>3d</fix>
</trkpt>
<trkpt lat="-27.2737708" lon="151.2899055">
  <ele>343.11</ele>
  <time>2026-09-01T19:57:28Z</time>
  <course>107.16</course>
  <speed>0.022360679774997897</speed>
  <fix>3d</fix>
</trkpt>
<trkpt lat="-27.2737707" lon="151.2899057">
  <ele>343.08</ele>
  <time>2026-09-01T19:57:28Z</time>
  <course>298.09</course>
  <speed>0.0</speed>
  <fix>3d</fix>
</trkpt>
<trkpt lat="-27.2737708" lon="151.2899055">
  <ele>343.11</ele>
  <time>2026-09-01T19:57:28Z</time>
  <course>107.17</course>
  <speed>0.022360679774997897</speed>
  <fix>3d</fix>
</trkpt>
<trkpt lat="-27.2737707" lon="151.2899057">
  <ele>343.08</ele>
  <time>2026-09-01T19:57:28Z</time>
  <course>46.58</course>
  <speed>0.0</speed>
  <fix>3d</fix>
</trkpt>
<trkpt lat="-27.2737708" lon="151.2899055">
  <ele>343.11</ele>
  <time>2026-09-01T19:57:28Z</time>
  <course>107.17</course>
  <speed>0.022360679774997897</speed>
  <fix>3d</fix>
</trkpt>
<trkpt lat="-27.2737707" lon="151.2899057">
  <ele>343.08</ele>
  <time>2026-09-01T19:57:28Z</time>
  <course>46.58</course>
  <speed>0.0</speed>
  <fix>3d</fix>
</trkpt>
<trkpt lat="-27.2737708" lon="151.2899055">
  <ele>343.11</ele>
  <time>2026-09-01T19:57:28Z</time>
  <course>107.17</course>
  <speed>0.022360679774997897</speed>
  <fix>3d</fix>
</trkpt>
<trkpt lat="-27.2737707" lon="151.2899057">
  <ele>343.08</ele>
  <time>2026-09-01T19:57:28Z</time>
  <course>50.29</course>
  <speed>0.0</speed>
  <fix>3d</fix>
</trkpt>
<trkpt lat="-27.2737708" lon="151.2899055">
  <ele>343.11</ele>
  <time>2026-09-01T19:57:28Z</time>
  <course>107.17</course>
  <speed>0.022360679774997897</speed>
  <fix>3d</fix>
</trkpt>
<trkpt lat="-27.2737707" lon="151.2899057">
  <ele>343.08</ele>
  <time>2026-09-01T19:57:28Z</time>
  <course>50.29</course>
  <speed>0.0</speed>
  <fix>3d</fix>
</trkpt>
<trkpt lat="-27.2737708" lon="151.2899055">
  <ele>343.11</ele>
  <time>2026-09-01T19:57:28Z</time>
  <course>107.18</course>
  <speed>0.022360679774997897</speed>
  <fix>3d</fix>
</trkpt>
<trkpt lat="-27.2737707" lon="151.2899057">
  <ele>343.08</ele>
  <time>2026-09-01T19:57:28Z</time>
  <course>48.32</course>
  <speed>0.0</speed>
  <fix>3d</fix>
</trkpt>
<trkpt lat="-27.2737708" lon="151.2899055">
  <ele>343.11</ele>
  <time>2026-09-01T19:57:28Z</time>
  <course>107.18</course>
  <speed>0.022360679774997897</speed>
  <fix>3d</fix>
</trkpt>
<trkpt lat="-27.2737707" lon="151.2899057">
  <ele>343.08</ele>
  <time>2026-09-01T19:57:28Z</time>
  <course>48.32</course>
  <speed>0.0</speed>
  <fix>3d</fix>
</trkpt>
<trkpt lat="-27.2737708" lon="151.2899055">
  <ele>343.11</ele>
  <time>2026-09-01T19:57:28Z</time>
  <course>107.18</course>
  <speed>0.022360679774997897</speed>
  <fix>3d</fix>
</trkpt>
<trkpt lat="-27.2737707" lon="151.2899057">
  <ele>343.08</ele>
  <time>2026-09-01T19:57:28Z</time>
  <course>48.04</course>
  <speed>0.0</speed>
  <fix>3d</fix>
</trkpt>
<trkpt lat="-27.2737708" lon="151.2899055">
  <ele>343.11</ele>
  <time>2026-09-01T19:57:28Z</time>
  <course>107.19</course>
  <speed>0.022360679774997897</speed>
  <fix>3d</fix>
</trkpt>
<trkpt lat="-27.2737707" lon="151.2899057">
  <ele>343.08</ele>
  <time>2026-09-01T19:57:28Z</time>
  <course>48.04</course>
  <speed>0.0</speed>
  <fix>3d</fix>
</trkpt>
<trkpt lat="-27.2737708" lon="151.2899055">
  <ele>343.1</ele>
  <time>2026-09-01T19:57:28Z</time>
  <course>107.19</course>
  <speed>0.022360679774997897</speed>
  <fix>3d</fix>
</trkpt>
<trkpt lat="-27.2737707" lon="151.2899057">
  <ele>343.08</ele>
  <time>2026-09-01T19:57:28Z</time>
  <course>48.01</course>
  <speed>0.0</speed>
  <fix>3d</fix>
</trkpt>
<trkpt lat="-27.2737708" lon="151.2899055">
  <ele>343.1</ele>
  <time>2026-09-01T19:57:28Z</time>
  <course>107.2</course>
  <speed>0.022360679774997897</speed>
  <fix>3d</fix>
</trkpt>
<trkpt lat="-27.2737707" lon="151.2899057">
  <ele>343.08</ele>
  <time>2026-09-01T19:57:28Z</time>
  <course>48.01</course>
  <speed>0.0</speed>
  <fix>3d</fix>
</trkpt>
<trkpt lat="-27.2737708" lon="151.2899055">
  <ele>343.1</ele>
  <time>2026-09-01T19:57:28Z</time>
  <course>107.2</course>
  <speed>0.022360679774997897</speed>
  <fix>3d</fix>
</trkpt>
<trkpt lat="-27.2737707" lon="151.2899057">
  <ele>343.08</ele>
  <time>2026-09-01T19:57:28Z</time>
  <course>48.0</course>
  <speed>0.0</speed>
  <fix>3d</fix>
</trkpt>
<trkpt lat="-27.2737708" lon="151.2899055">
  <ele>343.1</ele>
  <time>2026-09-01T19:57:28Z</time>
  <course>107.2</course>
  <speed>0.022360679774997897</speed>
  <fix>3d</fix>
</trkpt>
<trkpt lat="-27.2737707" lon="151.2899057">
  <ele>343.08</ele>
  <time>2026-09-01T19:57:28Z</time>
  <course>48.0</course>
  <speed>0.0</speed>
  <fix>3d</fix>
</trkpt>
<trkpt lat="-27.2737708" lon="151.2899055">
  <ele>343.1</ele>
  <time>2026-09-01T19:57:28Z</time>
  <course>107.21</course>
  <speed>0.022360679774997897</speed>
  <fix>3d</fix>
</trkpt>
<trkpt lat="-27.2737707" lon="151.2899057">
  <ele>343.08</ele>
  <time>2026-09-01T19:57:28Z</time>
  <course>48.0</course>
  <speed>0.0</speed>
  <fix>3d</fix>
</trkpt>
<trkpt lat="-27.2737708" lon="151.2899055">
  <ele>343.1</ele>
  <time>2026-09-01T19:57:28Z</time>
  <course>107.21</course>
  <speed>0.022360679774997897</speed>
  <fix>3d</fix>
</trkpt>
<trkpt lat="-27.2737707" lon="151.2899057">
  <ele>343.08</ele>
  <time>2026-09-01T19:57:28Z</time>
  <course>48.0</course>
  <speed>0.0</speed>
  <fix>3d</fix>
</trkpt>
<trkpt lat="-27.2737708" lon="151.2899055">
  <ele>343.1</ele>
  <time>2026-09-01T19:57:28Z</time>
  <course>107.21</course>
  <speed>0.022360679774997897</speed>
  <fix>3d</fix>
</trkpt>
<trkpt lat="-27.2737707" lon="151.2899057">
  <ele>343.08</ele>
  <time>2026-09-01T19:57:28Z</time>
  <course>48.0</course>
  <speed>0.0</speed>
  <fix>3d</fix>
</trkpt>
<trkpt lat="-27.2737708" lon="151.2899055">
  <ele>343.1</ele>
  <time>2026-09-01T19:57:28Z</time>
  <course>107.22</course>
  <speed>0.022360679774997897</speed>
  <fix>3d</fix>
</trkpt>
<trkpt lat="-27.2737707" lon="151.2899057">
  <ele>343.08</ele>
  <time>2026-09-01T19:57:28Z</time>
  <course>48.0</course>
  <speed>0.0</speed>
  <fix>3d</fix>
</trkpt>
<trkpt lat="-27.2737708" lon="151.2899055">
  <ele>343.1</ele>
  <time>2026-09-01T19:57:28Z</time>
  <course>107.22</course>
  <speed>0.022360679774997897</speed>
  <fix>3d</fix>
</trkpt>
<trkpt lat="-27.2737707" lon="151.2899057">
  <ele>343.08</ele>
  <time>2026-09-01T19:57:28Z</time>
  <course>48.0</course>
  <speed>0.0</speed>
  <fix>3d</fix>
</trkpt>
<trkpt lat="-27.2737708" lon="151.2899055">
  <ele>343.1</ele>
  <time>2026-09-01T19:57:28Z</time>
  <course>107.22</course>
  <speed>0.022360679774997897</speed>
  <fix>3d</fix>
</trkpt>
<trkpt lat="-27.2737707" lon="151.2899057">
  <ele>343.08</ele>
  <time>2026-09-01T19:57:28Z</time>
  <course>48.0</course>
  <speed>0.0</speed>
  <fix>3d</fix>
</trkpt>
<trkpt lat="-27.2737708" lon="151.2899055">
  <ele>343.07</ele>
  <time>2026-09-01T19:57:28Z</time>
  <course>107.23</course>
  <speed>0.022360679774997897</speed>
  <fix>3d</fix>
</trkpt>
<trkpt lat="-27.2737707" lon="151.2899057">
  <ele>343.08</ele>
  <time>2026-09-01T19:57:28Z</time>
  <course>48.0</course>
  <speed>0.0</speed>
  <fix>3d</fix>
</trkpt>
<trkpt lat="-27.2737708" lon="151.2899055">
  <ele>343.08</ele>
  <time>2026-09-01T19:57:29Z</time>
  <course>107.23</course>
  <speed>0.022360679774997897</speed>
  <fix>3d</fix>
</trkpt>
<trkpt lat="-27.2737707" lon="151.2899057">
  <ele>343.08</ele>
  <time>2026-09-01T19:57:29Z</time>
  <course>48.0</course>
  <speed>0.0</speed>
  <fix>3d</fix>
</trkpt>
<trkpt lat="-27.2737708" lon="151.2899055">
  <ele>343.07</ele>
  <time>2026-09-01T19:57:29Z</time>
  <course>107.23</course>
  <speed>0.022360679774997897</speed>
  <fix>3d</fix>
</trkpt>
<trkpt lat="-27.2737707" lon="151.2899057">
  <ele>343.08</ele>
  <time>2026-09-01T19:57:29Z</time>
  <course>48.0</course>
  <speed>0.0</speed>
  <fix>3d</fix>
</trkpt>
<trkpt lat="-27.2737708" lon="151.2899055">
  <ele>343.07</ele>
  <time>2026-09-01T19:57:29Z</time>
  <course>107.24</course>
  <speed>0.022360679774997897</speed>
  <fix>3d</fix>
</trkpt>
<trkpt lat="-27.2737707" lon="151.2899057">
  <ele>343.08</ele>
  <time>2026-09-01T19:57:29Z</time>
  <course>48.0</course>
  <speed>0.0</speed>
  <fix>3d</fix>
</trkpt>
<trkpt lat="-27.2737708" lon="151.2899055">
  <ele>343.07</ele>
  <time>2026-09-01T19:57:29Z</time>
  <course>107.24</course>
  <speed>0.022360679774997897</speed>
  <fix>3d</fix>
</trkpt>
<trkpt lat="-27.2737707" lon="151.2899057">
  <ele>343.08</ele>
  <time>2026-09-01T19:57:29Z</time>
  <course>48.0</course>
  <speed>0.0</speed>
  <fix>3d</fix>
</trkpt>
<trkpt lat="-27.2737708" lon="151.2899055">
  <ele>343.06</ele>
  <time>2026-09-01T19:57:29Z</time>
  <course>107.24</course>
  <speed>0.022360679774997897</speed>
  <fix>3d</fix>
</trkpt>
<trkpt lat="-27.2737707" lon="151.2899057">
  <ele>343.08</ele>
  <time>2026-09-01T19:57:29Z</time>
  <course>48.0</course>
  <speed>0.0</speed>
  <fix>3d</fix>
</trkpt>
<trkpt lat="-27.2737708" lon="151.2899055">
  <ele>343.06</ele>
  <time>2026-09-01T19:57:29Z</time>
  <course>107.25</course>
  <speed>0.022360679774997897</speed>
  <fix>3d</fix>
</trkpt>
<trkpt lat="-27.2737707" lon="151.2899057">
  <ele>343.08</ele>
  <time>2026-09-01T19:57:29Z</time>
  <course>48.0</course>
  <speed>0.0</speed>
  <fix>3d</fix>
</trkpt>
<trkpt lat="-27.2737708" lon="151.2899055">
  <ele>343.06</ele>
  <time>2026-09-01T19:57:29Z</time>
  <course>107.25</course>
  <speed>0.022360679774997897</speed>
  <fix>3d</fix>
</trkpt>
<trkpt lat="-27.2737707" lon="151.2899057">
  <ele>343.08</ele>
  <time>2026-09-01T19:57:29Z</time>
  <course>48.0</course>
  <speed>0.0</speed>
  <fix>3d</fix>
</trkpt>
<trkpt lat="-27.2737708" lon="151.2899055">
  <ele>343.05</ele>
  <time>2026-09-01T19:57:29Z</time>
  <course>107.26</course>
  <speed>0.022360679774997897</speed>
  <fix>3d</fix>
</trkpt>
<trkpt lat="-27.2737707" lon="151.2899057">
  <ele>343.08</ele>
  <time>2026-09-01T19:57:29Z</time>
  <course>48.0</course>
  <speed>0.0</speed>
  <fix>3d</fix>
</trkpt>
<trkpt lat="-27.2737708" lon="151.2899055">
  <ele>343.05</ele>
  <time>2026-09-01T19:57:29Z</time>
  <course>107.26</course>
  <speed>0.022360679774997897</speed>
  <fix>3d</fix>
</trkpt>
<trkpt lat="-27.2737707" lon="151.2899057">
  <ele>343.08</ele>
  <time>2026-09-01T19:57:29Z</time>
  <course>48.0</course>
  <speed>0.0</speed>
  <fix>3d</fix>
</trkpt>
<trkpt lat="-27.2737708" lon="151.2899055">
  <ele>343.05</ele>
  <time>2026-09-01T19:57:29Z</time>
  <course>107.26</course>
  <speed>0.022360679774997897</speed>
  <fix>3d</fix>
</trkpt>
<trkpt lat="-27.2737707" lon="151.2899057">
  <ele>343.08</ele>
  <time>2026-09-01T19:57:29Z</time>
  <course>48.0</course>
  <speed>0.0</speed>
  <fix>3d</fix>
</trkpt>
<trkpt lat="-27.2737708" lon="151.2899055">
  <ele>343.05</ele>
  <time>2026-09-01T19:57:29Z</time>
  <course>107.27</course>
  <speed>0.022360679774997897</speed>
  <fix>3d</fix>
</trkpt>
<trkpt lat="-27.2737707" lon="151.2899057">
  <ele>343.08</ele>
  <time>2026-09-01T19:57:29Z</time>
  <course>48.0</course>
  <speed>0.0</speed>
  <fix>3d</fix>
</trkpt>
<trkpt lat="-27.2737708" lon="151.2899055">
  <ele>343.04</ele>
  <time>2026-09-01T19:57:29Z</time>
  <course>107.27</course>
  <speed>0.022360679774997897</speed>
  <fix>3d</fix>
</trkpt>
<trkpt lat="-27.2737707" lon="151.2899057">
  <ele>343.08</ele>
  <time>2026-09-01T19:57:29Z</time>
  <course>48.0</course>
  <speed>0.0</speed>
  <fix>3d</fix>
</trkpt>
<trkpt lat="-27.2737708" lon="151.2899055">
  <ele>343.04</ele>
  <time>2026-09-01T19:57:29Z</time>
  <course>107.27</course>
  <speed>0.022360679774997897</speed>
  <fix>3d</fix>
</trkpt>
<trkpt lat="-27.2737707" lon="151.2899057">
  <ele>343.08</ele>
  <time>2026-09-01T19:57:29Z</time>
  <course>48.0</course>
  <speed>0.0</speed>
  <fix>3d</fix>
</trkpt>
<trkpt lat="-27.2737708" lon="151.2899055">
  <ele>343.03</ele>
  <time>2026-09-01T19:57:29Z</time>
  <course>107.28</course>
  <speed>0.022360679774997897</speed>
  <fix>3d</fix>
</trkpt>
<trkpt lat="-27.2737707" lon="151.2899057">
  <ele>343.08</ele>
  <time>2026-09-01T19:57:29Z</time>
  <course>48.0</course>
  <speed>0.0</speed>
  <fix>3d</fix>
</trkpt>
<trkpt lat="-27.2737708" lon="151.2899055">
  <ele>343.03</ele>
  <time>2026-09-01T19:57:29Z</time>
  <course>107.28</course>
  <speed>0.022360679774997897</speed>
  <fix>3d</fix>
</trkpt>
<trkpt lat="-27.2737707" lon="151.2899057">
  <ele>343.08</ele>
  <time>2026-09-01T19:57:29Z</time>
  <course>48.0</course>
  <speed>0.0</speed>
  <fix>3d</fix>
</trkpt>
<trkpt lat="-27.2737708" lon="151.2899055">
  <ele>343.07</ele>
  <time>2026-09-01T19:57:29Z</time>
  <course>107.29</course>
  <speed>0.022360679774997897</speed>
  <fix>3d</fix>
</trkpt>
<trkpt lat="-27.2737707" lon="151.2899057">
  <ele>343.08</ele>
  <time>2026-09-01T19:57:29Z</time>
  <course>48.0</course>
  <speed>0.0</speed>
  <fix>3d</fix>
</trkpt>
<trkpt lat="-27.2737708" lon="151.2899055">
  <ele>343.07</ele>
  <time>2026-09-01T19:57:29Z</time>
  <course>107.29</course>
  <speed>0.022360679774997897</speed>
  <fix>3d</fix>
</trkpt>
<trkpt lat="-27.2737707" lon="151.2899057">
  <ele>343.08</ele>
  <time>2026-09-01T19:57:29Z</time>
  <course>48.0</course>
  <speed>0.0</speed>
  <fix>3d</fix>
</trkpt>
<trkpt lat="-27.2737708" lon="151.2899055">
  <ele>343.07</ele>
  <time>2026-09-01T19:57:29Z</time>
  <course>107.29</course>
  <speed>0.022360679774997897</speed>
  <fix>3d</fix>
</trkpt>
<trkpt lat="-27.2737707" lon="151.2899057">
  <ele>343.08</ele>
  <time>2026-09-01T19:57:29Z</time>
  <course>48.0</course>
  <speed>0.0</speed>
  <fix>3d</fix>
</trkpt>
<trkpt lat="-27.2737708" lon="151.2899055">
  <ele>343.07</ele>
  <time>2026-09-01T19:57:29Z</time>
  <course>107.3</course>
  <speed>0.022360679774997897</speed>
  <fix>3d</fix>
</trkpt>
<trkpt lat="-27.2737707" lon="151.2899057">
  <ele>343.08</ele>
  <time>2026-09-01T19:57:29Z</time>
  <course>48.0</course>
  <speed>0.0</speed>
  <fix>3d</fix>
</trkpt>
<trkpt lat="-27.2737708" lon="151.2899055">
  <ele>343.07</ele>
  <time>2026-09-01T19:57:29Z</time>
  <course>107.3</course>
  <speed>0.022360679774997897</speed>
  <fix>3d</fix>
</trkpt>
<trkpt lat="-27.2737707" lon="151.2899057">
  <ele>343.08</ele>
  <time>2026-09-01T19:57:29Z</time>
  <course>238.32</course>
  <speed>0.0</speed>
  <fix>3d</fix>
</trkpt>
<trkpt lat="-27.2737708" lon="151.2899055">
  <ele>343.07</ele>
  <time>2026-09-01T19:57:29Z</time>
  <course>107.3</course>
  <speed>0.022360679774997897</speed>
  <fix>3d</fix>
</trkpt>
<trkpt lat="-27.2737707" lon="151.2899057">
  <ele>343.08</ele>
  <time>2026-09-01T19:57:29Z</time>
  <course>238.32</course>
  <speed>0.0</speed>
  <fix>3d</fix>
</trkpt>
<trkpt lat="-27.2737708" lon="151.2899055">
  <ele>343.07</ele>
  <time>2026-09-01T19:57:29Z</time>
  <course>107.31</course>
  <speed>0.022360679774997897</speed>
  <fix>3d</fix>
</trkpt>
<trkpt lat="-27.2737707" lon="151.2899057">
  <ele>343.08</ele>
  <time>2026-09-01T19:57:29Z</time>
  <course>236.65</course>
  <speed>0.0</speed>
  <fix>3d</fix>
</trkpt>
<trkpt lat="-27.2737708" lon="151.2899055">
  <ele>343.07</ele>
  <time>2026-09-01T19:57:29Z</time>
  <course>107.31</course>
  <speed>0.022360679774997897</speed>
  <fix>3d</fix>
</trkpt>
<trkpt lat="-27.2737707" lon="151.2899057">
  <ele>343.08</ele>
  <time>2026-09-01T19:57:29Z</time>
  <course>236.65</course>
  <speed>0.0</speed>
  <fix>3d</fix>
</trkpt>
<trkpt lat="-27.2737708" lon="151.2899055">
  <ele>343.07</ele>
  <time>2026-09-01T19:57:29Z</time>
  <course>107.32</course>
  <speed>0.022360679774997897</speed>
  <fix>3d</fix>
</trkpt>
<trkpt lat="-27.2737707" lon="151.2899057">
  <ele>343.08</ele>
  <time>2026-09-01T19:57:29Z</time>
  <course>250.03</course>
  <speed>0.0</speed>
  <fix>3d</fix>
</trkpt>
<trkpt lat="-27.2737708" lon="151.2899055">
  <ele>343.07</ele>
  <time>2026-09-01T19:57:29Z</time>
  <course>107.32</course>
  <speed>0.022360679774997897</speed>
  <fix>3d</fix>
</trkpt>
<trkpt lat="-27.2737707" lon="151.2899057">
  <ele>343.08</ele>
  <time>2026-09-01T19:57:29Z</time>
  <course>250.03</course>
  <speed>0.0</speed>
  <fix>3d</fix>
</trkpt>
<trkpt lat="-27.2737708" lon="151.2899055">
  <ele>343.07</ele>
  <time>2026-09-01T19:57:29Z</time>
  <course>107.32</course>
  <speed>0.022360679774997897</speed>
  <fix>3d</fix>
</trkpt>
<trkpt lat="-27.2737707" lon="151.2899057">
  <ele>343.08</ele>
  <time>2026-09-01T19:57:29Z</time>
  <course>45.05</course>
  <speed>0.0</speed>
  <fix>3d</fix>
</trkpt>
<trkpt lat="-27.2737708" lon="151.2899055">
  <ele>343.07</ele>
  <time>2026-09-01T19:57:29Z</time>
  <course>107.33</course>
  <speed>0.022360679774997897</speed>
  <fix>3d</fix>
</trkpt>
<trkpt lat="-27.2737707" lon="151.2899057">
  <ele>343.08</ele>
  <time>2026-09-01T19:57:29Z</time>
  <course>45.05</course>
  <speed>0.0</speed>
  <fix>3d</fix>
</trkpt>
<trkpt lat="-27.2737708" lon="151.2899055">
  <ele>343.07</ele>
  <time>2026-09-01T19:57:29Z</time>
  <course>107.33</course>
  <speed>0.022360679774997897</speed>
  <fix>3d</fix>
</trkpt>
<trkpt lat="-27.2737707" lon="151.2899057">
  <ele>343.08</ele>
  <time>2026-09-01T19:57:29Z</time>
  <course>57.91</course>
  <speed>0.0</speed>
  <fix>3d</fix>
</trkpt>
<trkpt lat="-27.2737708" lon="151.2899055">
  <ele>343.09</ele>
  <time>2026-09-01T19:57:29Z</time>
  <course>107.34</course>
  <speed>0.022360679774997897</speed>
  <fix>3d</fix>
</trkpt>
<trkpt lat="-27.2737707" lon="151.2899057">
  <ele>343.08</ele>
  <time>2026-09-01T19:57:29Z</time>
  <course>57.91</course>
  <speed>0.0</speed>
  <fix>3d</fix>
</trkpt>
<trkpt lat="-27.2737708" lon="151.2899055">
  <ele>343.12</ele>
  <time>2026-09-01T19:57:29Z</time>
  <course>107.34</course>
  <speed>0.022360679774997897</speed>
  <fix>3d</fix>
</trkpt>
<trkpt lat="-27.2737707" lon="151.2899057">
  <ele>343.08</ele>
  <time>2026-09-01T19:57:29Z</time>
  <course>105.12</course>
  <speed>0.0</speed>
  <fix>3d</fix>
</trkpt>
<trkpt lat="-27.2737708" lon="151.2899055">
  <ele>343.18</ele>
  <time>2026-09-01T19:57:29Z</time>
  <course>107.34</course>
  <speed>0.022360679774997897</speed>
  <fix>3d</fix>
</trkpt>
<trkpt lat="-27.2737707" lon="151.2899057">
  <ele>343.08</ele>
  <time>2026-09-01T19:57:29Z</time>
  <course>105.12</course>
  <speed>0.0</speed>
  <fix>3d</fix>
</trkpt>
<trkpt lat="-27.2737708" lon="151.2899055">
  <ele>343.25</ele>
  <time>2026-09-01T19:57:29Z</time>
  <course>107.35</course>
  <speed>0.01414213562373095</speed>
  <fix>3d</fix>
</trkpt>
<trkpt lat="-27.2737707" lon="151.2899057">
  <ele>343.13</ele>
  <time>2026-09-01T19:57:29Z</time>
  <course>106.28</course>
  <speed>0.0</speed>
  <fix>3d</fix>
</trkpt>
<trkpt lat="-27.2737708" lon="151.2899055">
  <ele>343.39</ele>
  <time>2026-09-01T19:57:29Z</time>
  <course>107.35</course>
  <speed>0.022360679774997897</speed>
  <fix>3d</fix>
</trkpt>
<trkpt lat="-27.2737707" lon="151.2899057">
  <ele>343.13</ele>
  <time>2026-09-01T19:57:29Z</time>
  <course>106.28</course>
  <speed>0.0</speed>
  <fix>3d</fix>
</trkpt>
<trkpt lat="-27.2737708" lon="151.2899055">
  <ele>343.59</ele>
  <time>2026-09-01T19:57:29Z</time>
  <course>107.34</course>
  <speed>0.05830951894845301</speed>
  <fix>3d</fix>
</trkpt>
<trkpt lat="-27.2737707" lon="151.2899057">
  <ele>343.27</ele>
  <time>2026-09-01T19:57:29Z</time>
  <course>99.39</course>
  <speed>0.02</speed>
  <fix>3d</fix>
</trkpt>
<trkpt lat="-27.2737708" lon="151.2899056">
  <ele>343.84</ele>
  <time>2026-09-01T19:57:29Z</time>
  <course>107.31</course>
  <speed>0.10770329614269007</speed>
  <fix>3d</fix>
</trkpt>
<trkpt lat="-27.2737707" lon="151.2899057">
  <ele>343.27</ele>
  <time>2026-09-01T19:57:29Z</time>
  <course>99.39</course>
  <speed>0.02</speed>
  <fix>3d</fix>
</trkpt>
<trkpt lat="-27.2737708" lon="151.2899058">
  <ele>344.1</ele>
  <time>2026-09-01T19:57:29Z</time>
  <course>107.27</course>
  <speed>0.14866068747318506</speed>
  <fix>3d</fix>
</trkpt>
<trkpt lat="-27.2737707" lon="151.2899058">
  <ele>343.6</ele>
  <time>2026-09-01T19:57:29Z</time>
  <course>100.18</course>
  <speed>0.09</speed>
  <fix>3d</fix>
</trkpt>
<trkpt lat="-27.2737709" lon="151.2899059">
  <ele>344.38</ele>
  <time>2026-09-01T19:57:29Z</time>
  <course>107.22</course>
  <speed>0.18973665961010278</speed>
  <fix>3d</fix>
</trkpt>
<trkpt lat="-27.2737707" lon="151.2899058">
  <ele>343.6</ele>
  <time>2026-09-01T19:57:29Z</time>
  <course>100.18</course>
  <speed>0.09</speed>
  <fix>3d</fix>
</trkpt>
<trkpt lat="-27.2737709" lon="151.2899062">
  <ele>344.67</ele>
  <time>2026-09-01T19:57:29Z</time>
  <course>107.18</course>
  <speed>0.2308679276123039</speed>
  <fix>3d</fix>
</trkpt>
<trkpt lat="-27.2737707" lon="151.2899061">
  <ele>344.09</ele>
  <time>2026-09-01T19:57:29Z</time>
  <course>101.36</course>
  <speed>0.17</speed>
  <fix>3d</fix>
</trkpt>
<trkpt lat="-27.273771" lon="151.2899065">
  <ele>344.97</ele>
  <time>2026-09-01T19:57:29Z</time>
  <course>107.14</course>
  <speed>0.2816025568065745</speed>
  <fix>3d</fix>
</trkpt>
<trkpt lat="-27.2737707" lon="151.2899061">
  <ele>344.09</ele>
  <time>2026-09-01T19:57:29Z</time>
  <course>101.36</course>
  <speed>0.17</speed>
  <fix>3d</fix>
</trkpt>
<trkpt lat="-27.273771" lon="151.2899068">
  <ele>345.29</ele>
  <time>2026-09-01T19:57:29Z</time>
  <course>106.92</course>
  <speed>0.3132091952673165</speed>
  <fix>3d</fix>
</trkpt>
<trkpt lat="-27.2737707" lon="151.2899065">
  <ele>344.65</ele>
  <time>2026-09-01T19:57:29Z</time>
  <course>102.25</course>
  <speed>0.26</speed>
  <fix>3d</fix>
</trkpt>
<trkpt lat="-27.2737711" lon="151.2899071">
  <ele>345.62</ele>
  <time>2026-09-01T19:57:29Z</time>
  <course>106.68</course>
  <speed>0.354400902933387</speed>
  <fix>3d</fix>
</trkpt>
<trkpt lat="-27.2737707" lon="151.2899065">
  <ele>344.65</ele>
  <time>2026-09-01T19:57:29Z</time>
  <course>102.25</course>
  <speed>0.26</speed>
  <fix>3d</fix>
</trkpt>
<trkpt lat="-27.2737712" lon="151.2899075">
  <ele>345.95</ele>
  <time>2026-09-01T19:57:29Z</time>
  <course>106.59</course>
  <speed>0.38600518131237566</speed>
  <fix>3d</fix>
</trkpt>
<trkpt lat="-27.2737708" lon="151.2899071">
  <ele>345.28</ele>
  <time>2026-09-01T19:57:29Z</time>
  <course>102.96</course>
  <speed>0.34</speed>
  <fix>3d</fix>
</trkpt>
<trkpt lat="-27.2737713" lon="151.2899079">
  <ele>346.28</ele>
  <time>2026-09-01T19:57:29Z</time>
  <course>106.65</course>
  <speed>0.4080441152620633</speed>
  <fix>3d</fix>
</trkpt>
<trkpt lat="-27.2737708" lon="151.2899071">
  <ele>345.28</ele>
  <time>2026-09-01T19:57:29Z</time>
  <course>102.96</course>
  <speed>0.34</speed>
  <fix>3d</fix>
</trkpt>
<trkpt lat="-27.2737713" lon="151.2899084">
  <ele>346.62</ele>
  <time>2026-09-01T19:57:29Z</time>
  <course>106.77</course>
  <speed>0.42720018726587655</speed>
  <fix>3d</fix>
</trkpt>
<trkpt lat="-27.2737709" lon="151.2899079">
  <ele>345.93</ele>
  <time>2026-09-01T19:57:29Z</time>
  <course>103.5</course>
  <speed>0.41</speed>
  <fix>3d</fix>
</trkpt>
<trkpt lat="-27.2737714" lon="151.2899088">
  <ele>346.95</ele>
  <time>2026-09-01T19:57:29Z</time>
  <course>106.91</course>
  <speed>0.4368065933568311</speed>
  <fix>3d</fix>
</trkpt>
<trkpt lat="-27.2737709" lon="151.2899079">
  <ele>345.93</ele>
  <time>2026-09-01T19:57:29Z</time>
  <course>103.5</course>
  <speed>0.41</speed>
  <fix>3d</fix>
</trkpt>
<trkpt lat="-27.2737715" lon="151.2899093">
  <ele>347.27</ele>
  <time>2026-09-01T19:57:29Z</time>
  <course>107.02</course>
  <speed>0.44922154890432403</speed>
  <fix>3d</fix>
</trkpt>
<trkpt lat="-27.2737712" lon="151.2899087">
  <ele>346.59</ele>
  <time>2026-09-01T19:57:29Z</time>
  <course>103.93</course>
  <speed>0.46</speed>
  <fix>3d</fix>
</trkpt>
<trkpt lat="-27.2737716" lon="151.2899098">
  <ele>347.59</ele>
  <time>2026-09-01T19:57:29Z</time>
  <course>107.1</course>
  <speed>0.44922154890432403</speed>
  <fix>3d</fix>
</trkpt>
<trkpt lat="-27.2737712" lon="151.2899087">
  <ele>346.59</ele>
  <time>2026-09-01T19:57:29Z</time>
  <course>103.93</course>
  <speed>0.46</speed>
  <fix>3d</fix>
</trkpt>
<trkpt lat="-27.2737717" lon="151.2899102">
  <ele>347.9</ele>
  <time>2026-09-01T19:57:29Z</time>
  <course>107.13</course>
  <speed>0.44922154890432403</speed>
  <fix>3d</fix>
</trkpt>
<trkpt lat="-27.2737714" lon="151.2899096">
  <ele>347.25</ele>
  <time>2026-09-01T19:57:29Z</time>
  <course>104.32</course>
  <speed>0.48</speed>
  <fix>3d</fix>
</trkpt>
<trkpt lat="-27.2737718" lon="151.2899107">
  <ele>348.21</ele>
  <time>2026-09-01T19:57:29Z</time>
  <course>107.14</course>
  <speed>0.42720018726587655</speed>
  <fix>3d</fix>
</trkpt>
<trkpt lat="-27.2737714" lon="151.2899096">
  <ele>347.25</ele>
  <time>2026-09-01T19:57:29Z</time>
  <course>104.32</course>
  <speed>0.48</speed>
  <fix>3d</fix>
</trkpt>
<trkpt lat="-27.2737719" lon="151.2899111">
  <ele>348.51</ele>
  <time>2026-09-01T19:57:29Z</time>
  <course>107.14</course>
  <speed>0.417612260356422</speed>
  <fix>3d</fix>
</trkpt>
<trkpt lat="-27.2737716" lon="151.2899106">
  <ele>347.88</ele>
  <time>2026-09-01T19:57:29Z</time>
  <course>104.72</course>
  <speed>0.48</speed>
  <fix>3d</fix>
</trkpt>
<trkpt lat="-27.273772" lon="151.2899116">
  <ele>348.79</ele>
  <time>2026-09-01T19:57:29Z</time>
  <course>107.14</course>
  <speed>0.3984971769034255</speed>
  <fix>3d</fix>
</trkpt>
<trkpt lat="-27.2737716" lon="151.2899106">
  <ele>347.88</ele>
  <time>2026-09-01T19:57:29Z</time>
  <course>104.72</course>
  <speed>0.48</speed>
  <fix>3d</fix>
</trkpt>
<trkpt lat="-27.2737721" lon="151.289912">
  <ele>349.07</ele>
  <time>2026-09-01T19:57:29Z</time>
  <course>107.13</course>
  <speed>0.3668787265568828</speed>
  <fix>3d</fix>
</trkpt>
<trkpt lat="-27.2737719" lon="151.2899115">
  <ele>348.47</ele>
  <time>2026-09-01T19:57:29Z</time>
  <course>105.11</course>
  <speed>0.45</speed>
  <fix>3d</fix>
</trkpt>
<trkpt lat="-27.2737722" lon="151.2899123">
  <ele>349.34</ele>
  <time>2026-09-01T19:57:29Z</time>
  <course>107.13</course>
  <speed>0.3352610922848042</speed>
  <fix>3d</fix>
</trkpt>
<trkpt lat="-27.2737719" lon="151.2899115">
  <ele>348.47</ele>
  <time>2026-09-01T19:57:29Z</time>
  <course>105.11</course>
  <speed>0.45</speed>
  <fix>3d</fix>
</trkpt>
<trkpt lat="-27.2737723" lon="151.2899127">
  <ele>349.61</ele>
  <time>2026-09-01T19:57:29Z</time>
  <course>107.14</course>
  <speed>0.30364452901377953</speed>
  <fix>3d</fix>
</trkpt>
<trkpt lat="-27.2737721" lon="151.2899124">
  <ele>349.04</ele>
  <time>2026-09-01T19:57:29Z</time>
  <course>105.51</course>
  <speed>0.4</speed>
  <fix>3d</fix>
</trkpt>
<trkpt lat="-27.2737723" lon="151.289913">
  <ele>349.87</ele>
  <time>2026-09-01T19:57:29Z</time>
  <course>107.15</course>
  <speed>0.2751363298439521</speed>
  <fix>3d</fix>
</trkpt>
<trkpt lat="-27.2737721" lon="151.2899124">
  <ele>349.04</ele>
  <time>2026-09-01T19:57:29Z</time>
  <course>105.51</course>
  <speed>0.4</speed>
  <fix>3d</fix>
</trkpt>
<trkpt lat="-27.2737724" lon="151.2899133">
  <ele>350.13</ele>
  <time>2026-09-01T19:57:29Z</time>
  <course>107.16</course>
  <speed>0.2308679276123039</speed>
  <fix>3d</fix>
</trkpt>
<trkpt lat="-27.2737722" lon="151.2899131">
  <ele>349.58</ele>
  <time>2026-09-01T19:57:29Z</time>
  <course>105.97</course>
  <speed>0.34</speed>
  <fix>3d</fix>
</trkpt>
<trkpt lat="-27.2737725" lon="151.2899135">
  <ele>350.38</ele>
  <time>2026-09-01T19:57:29Z</time>
  <course>107.18</course>
  <speed>0.18973665961010278</speed>
  <fix>3d</fix>
</trkpt>
<trkpt lat="-27.2737722" lon="151.2899131">
  <ele>349.58</ele>
  <time>2026-09-01T19:57:29Z</time>
  <course>105.97</course>
  <speed>0.34</speed>
  <fix>3d</fix>
</trkpt>
<trkpt lat="-27.2737725" lon="151.2899137">
  <ele>350.63</ele>
  <time>2026-09-01T19:57:29Z</time>
  <course>107.2</course>
  <speed>0.14866068747318506</speed>
  <fix>3d</fix>
</trkpt>
<trkpt lat="-27.2737724" lon="151.2899137">
  <ele>350.08</ele>
  <time>2026-09-01T19:57:29Z</time>
  <course>106.59</course>
  <speed>0.27</speed>
  <fix>3d</fix>
</trkpt>
<trkpt lat="-27.2737725" lon="151.2899139">
  <ele>350.87</ele>
  <time>2026-09-01T19:57:29Z</time>
  <course>107.22</course>
  <speed>0.11704699910719625</speed>
  <fix>3d</fix>
</trkpt>
<trkpt lat="-27.2737724" lon="151.2899137">
  <ele>350.08</ele>
  <time>2026-09-01T19:57:29Z</time>
  <course>106.59</course>
  <speed>0.27</speed>
  <fix>3d</fix>
</trkpt>
<trkpt lat="-27.2737726" lon="151.289914">
  <ele>351.12</ele>
  <time>2026-09-01T19:57:29Z</time>
  <course>107.25</course>
  <speed>0.07615773105863909</speed>
  <fix>3d</fix>
</trkpt>
<trkpt lat="-27.2737725" lon="151.2899142">
  <ele>350.57</ele>
  <time>2026-09-01T19:57:29Z</time>
  <course>107.62</course>
  <speed>0.19</speed>
  <fix>3d</fix>
</trkpt>
<trkpt lat="-27.2737726" lon="151.2899141">
  <ele>351.36</ele>
  <time>2026-09-01T19:57:29Z</time>
  <course>107.27</course>
  <speed>0.03605551275463989</speed>
  <fix>3d</fix>
</trkpt>
<trkpt lat="-27.2737725" lon="151.2899142">
  <ele>350.57</ele>
  <time>2026-09-01T19:57:29Z</time>
  <course>107.62</course>
  <speed>0.19</speed>
  <fix>3d</fix>
</trkpt>
<trkpt lat="-27.2737726" lon="151.2899142">
  <ele>351.6</ele>
  <time>2026-09-01T19:57:29Z</time>
  <course>107.29</course>
  <speed>0.01</speed>
  <fix>3d</fix>
</trkpt>
<trkpt lat="-27.2737726" lon="151.2899145">
  <ele>351.05</ele>
  <time>2026-09-01T19:57:29Z</time>
  <course>110.01</course>
  <speed>0.11</speed>
  <fix>3d</fix>
</trkpt>
<trkpt lat="-27.2737726" lon="151.2899142">
  <ele>351.85</ele>
  <time>2026-09-01T19:57:29Z</time>
  <course>107.32</course>
  <speed>0.03</speed>
  <fix>3d</fix>
</trkpt>
<trkpt lat="-27.2737726" lon="151.2899145">
  <ele>351.05</ele>
  <time>2026-09-01T19:57:29Z</time>
  <course>110.01</course>
  <speed>0.11</speed>
  <fix>3d</fix>
</trkpt>
<trkpt lat="-27.2737726" lon="151.2899143">
  <ele>352.09</ele>
  <time>2026-09-01T19:57:29Z</time>
  <course>107.35</course>
  <speed>0.06</speed>
  <fix>3d</fix>
</trkpt>
<trkpt lat="-27.2737727" lon="151.2899146">
  <ele>351.52</ele>
  <time>2026-09-01T19:57:29Z</time>
  <course>121.89</course>
  <speed>0.03</speed>
  <fix>3d</fix>
</trkpt>
<trkpt lat="-27.2737726" lon="151.2899142">
  <ele>352.33</ele>
  <time>2026-09-01T19:57:29Z</time>
  <course>107.38</course>
  <speed>0.09</speed>
  <fix>3d</fix>
</trkpt>
<trkpt lat="-27.2737727" lon="151.2899146">
  <ele>351.52</ele>
  <time>2026-09-01T19:57:29Z</time>
  <course>121.89</course>
  <speed>0.03</speed>
  <fix>3d</fix>
</trkpt>
<trkpt lat="-27.2737726" lon="151.2899142">
  <ele>352.57</ele>
  <time>2026-09-01T19:57:29Z</time>
  <course>107.42</course>
  <speed>0.12041594578792296</speed>
  <fix>3d</fix>
</trkpt>
<trkpt lat="-27.2737727" lon="151.2899146">
  <ele>351.99</ele>
  <time>2026-09-01T19:57:29Z</time>
  <course>268.29</course>
  <speed>0.03</speed>
  <fix>3d</fix>
</trkpt>
<trkpt lat="-27.2737726" lon="151.2899141">
  <ele>352.81</ele>
  <time>2026-09-01T19:57:29Z</time>
  <course>107.48</course>
  <speed>0.1414213562373095</speed>
  <fix>3d</fix>
</trkpt>
<trkpt lat="-27.2737727" lon="151.2899146">
  <ele>351.99</ele>
  <time>2026-09-01T19:57:29Z</time>
  <course>268.29</course>
  <speed>0.03</speed>
  <fix>3d</fix>
</trkpt>
<trkpt lat="-27.2737726" lon="151.2899139">
  <ele>353.06</ele>
  <time>2026-09-01T19:57:29Z</time>
  <course>107.54</course>
  <speed>0.16278820596099705</speed>
  <fix>3d</fix>
</trkpt>
<trkpt lat="-27.2737727" lon="151.2899145">
  <ele>352.47</ele>
  <time>2026-09-01T19:57:29Z</time>
  <course>279.5</course>
  <speed>0.09</speed>
  <fix>3d</fix>
</trkpt>
<trkpt lat="-27.2737726" lon="151.2899138">
  <ele>353.3</ele>
  <time>2026-09-01T19:57:29Z</time>
  <course>107.61</course>
  <speed>0.18439088914585774</speed>
  <fix>3d</fix>
</trkpt>
<trkpt lat="-27.2737727" lon="151.2899145">
  <ele>352.47</ele>
  <time>2026-09-01T19:57:29Z</time>
  <course>279.5</course>
  <speed>0.09</speed>
  <fix>3d</fix>
</trkpt>
<trkpt lat="-27.2737726" lon="151.2899136">
  <ele>353.55</ele>
  <time>2026-09-01T19:57:29Z</time>
  <course>107.7</course>
  <speed>0.2039607805437114</speed>
  <fix>3d</fix>
</trkpt>
<trkpt lat="-27.2737727" lon="151.2899143">
  <ele>352.94</ele>
  <time>2026-09-01T19:57:29Z</time>
  <course>282.88</course>
  <speed>0.14</speed>
  <fix>3d</fix>
</trkpt>
<trkpt lat="-27.2737725" lon="151.2899135">
  <ele>353.79</ele>
  <time>2026-09-01T19:57:29Z</time>
  <course>107.76</course>
  <speed>0.21377558326431947</speed>
  <fix>3d</fix>
</trkpt>
<trkpt lat="-27.2737727" lon="151.2899143">
  <ele>352.94</ele>
  <time>2026-09-01T19:57:29Z</time>
  <course>282.88</course>
  <speed>0.14</speed>
  <fix>3d</fix>
</trkpt>
<trkpt lat="-27.2737725" lon="151.2899133">
  <ele>354.04</ele>
  <time>2026-09-01T19:57:29Z</time>
  <course>107.79</course>
  <speed>0.22561028345356957</speed>
  <fix>3d</fix>
</trkpt>
<trkpt lat="-27.2737726" lon="151.289914">
  <ele>353.42</ele>
  <time>2026-09-01T19:57:29Z</time>
  <course>284.63</course>
  <speed>0.18</speed>
  <fix>3d</fix>
</trkpt>
<trkpt lat="-27.2737725" lon="151.2899131">
  <ele>354.28</ele>
  <time>2026-09-01T19:57:29Z</time>
  <course>107.78</course>
  <speed>0.23769728648009425</speed>
  <fix>3d</fix>
</trkpt>
<trkpt lat="-27.2737726" lon="151.289914">
  <ele>353.42</ele>
  <time>2026-09-01T19:57:29Z</time>
  <course>284.63</course>
  <speed>0.18</speed>
  <fix>3d</fix>
</trkpt>
<trkpt lat="-27.2737724" lon="151.2899129">
  <ele>354.52</ele>
  <time>2026-09-01T19:57:29Z</time>
  <course>107.75</course>
  <speed>0.24738633753705963</speed>
  <fix>3d</fix>
</trkpt>
<trkpt lat="-27.2737725" lon="151.2899135">
  <ele>353.91</ele>
  <time>2026-09-01T19:57:29Z</time>
  <course>285.41</course>
  <speed>0.21</speed>
  <fix>3d</fix>
</trkpt>
<trkpt lat="-27.2737723" lon="151.2899127">
  <ele>354.77</ele>
  <time>2026-09-01T19:57:29Z</time>
  <course>107.71</course>
  <speed>0.24738633753705963</speed>
  <fix>3d</fix>
</trkpt>
<trkpt lat="-27.2737725" lon="151.2899135">
  <ele>353.91</ele>
  <time>2026-09-01T19:57:29Z</time>
  <course>285.41</course>
  <speed>0.21</speed>
  <fix>3d</fix>
</trkpt>
<trkpt lat="-27.2737723" lon="151.2899125">
  <ele>355.02</ele>
  <time>2026-09-01T19:57:29Z</time>
  <course>107.68</course>
  <speed>0.2570992026436488</speed>
  <fix>3d</fix>
</trkpt>
<trkpt lat="-27.2737724" lon="151.2899132">
  <ele>354.39</ele>
  <time>2026-09-01T19:57:29Z</time>
  <course>285.38</course>
  <speed>0.23</speed>
  <fix>3d</fix>
</trkpt>
<trkpt lat="-27.2737722" lon="151.2899122">
  <ele>355.28</ele>
  <time>2026-09-01T19:57:29Z</time>
  <course>107.65</course>
  <speed>0.26248809496813374</speed>
  <fix>3d</fix>
</trkpt>
<trkpt lat="-27.2737724" lon="151.2899132">
  <ele>354.39</ele>
  <time>2026-09-01T19:57:29Z</time>
  <course>285.38</course>
  <speed>0.23</speed>
  <fix>3d</fix>
</trkpt>
<trkpt lat="-27.2737722" lon="151.289912">
  <ele>355.53</ele>
  <time>2026-09-01T19:57:29Z</time>
  <course>107.64</course>
  <speed>0.26248809496813374</speed>
  <fix>3d</fix>
</trkpt>
<trkpt lat="-27.2737723" lon="151.2899127">
  <ele>354.89</ele>
  <time>2026-09-01T19:57:29Z</time>
  <course>285.15</course>
  <speed>0.24</speed>
  <fix>3d</fix>
</trkpt>
<trkpt lat="-27.2737721" lon="151.2899118">
  <ele>355.78</ele>
  <time>2026-09-01T19:57:29Z</time>
  <course>107.62</course>
  <speed>0.2596150997149434</speed>
  <fix>3d</fix>
</trkpt>
<trkpt lat="-27.2737723" lon="151.2899127">
  <ele>354.89</ele>
  <time>2026-09-01T19:57:29Z</time>
  <course>285.15</course>
  <speed>0.24</speed>
  <fix>3d</fix>
</trkpt>
<trkpt lat="-27.273772" lon="151.2899115">
  <ele>356.03</ele>
  <time>2026-09-01T19:57:29Z</time>
  <course>107.63</course>
  <speed>0.26248809496813374</speed>
  <fix>3d</fix>
</trkpt>
<trkpt lat="-27.2737722" lon="151.2899122">
  <ele>355.38</ele>
  <time>2026-09-01T19:57:29Z</time>
  <course>284.88</course>
  <speed>0.25</speed>
  <fix>3d</fix>
</trkpt>
<trkpt lat="-27.273772" lon="151.2899113">
  <ele>356.28</ele>
  <time>2026-09-01T19:57:29Z</time>
  <course>107.66</course>
  <speed>0.2596150997149434</speed>
  <fix>3d</fix>
</trkpt>
<trkpt lat="-27.2737722" lon="151.2899122">
  <ele>355.38</ele>
  <time>2026-09-01T19:57:29Z</time>
  <course>284.88</course>
  <speed>0.25</speed>
  <fix>3d</fix>
</trkpt>
<trkpt lat="-27.2737719" lon="151.2899111">
  <ele>356.54</ele>
  <time>2026-09-01T19:57:29Z</time>
  <course>107.7</course>
  <speed>0.2596150997149434</speed>
  <fix>3d</fix>
</trkpt>
<trkpt lat="-27.2737721" lon="151.2899117">
  <ele>355.88</ele>
  <time>2026-09-01T19:57:29Z</time>
  <course>284.52</course>
  <speed>0.25</speed>
  <fix>3d</fix>
</trkpt>
<trkpt lat="-27.2737719" lon="151.2899108">
  <ele>356.79</ele>
  <time>2026-09-01T19:57:29Z</time>
  <course>107.76</course>
  <speed>0.2596150997149434</speed>
  <fix>3d</fix>
</trkpt>
<trkpt lat="-27.2737721" lon="151.2899117">
  <ele>355.88</ele>
  <time>2026-09-01T19:57:29Z</time>
  <course>284.52</course>
  <speed>0.25</speed>
  <fix>3d</fix>
</trkpt>
<trkpt lat="-27.2737718" lon="151.2899106">
  <ele>357.04</ele>
  <time>2026-09-01T19:57:29Z</time>
  <course>107.81</course>
  <speed>0.2596150997149434</speed>
  <fix>3d</fix>
</trkpt>
<trkpt lat="-27.273772" lon="151.2899112">
  <ele>356.38</ele>
  <time>2026-09-01T19:57:29Z</time>
  <course>284.55</course>
  <speed>0.25</speed>
  <fix>3d</fix>
</trkpt>
<trkpt lat="-27.2737718" lon="151.2899104">
  <ele>357.3</ele>
  <time>2026-09-01T19:57:29Z</time>
  <course>107.85</course>
  <speed>0.2596150997149434</speed>
  <fix>3d</fix>
</trkpt>
<trkpt lat="-27.273772" lon="151.2899112">
  <ele>356.38</ele>
  <time>2026-09-01T19:57:29Z</time>
  <course>284.55</course>
  <speed>0.25</speed>
  <fix>3d</fix>
</trkpt>
<trkpt lat="-27.2737717" lon="151.2899101">
  <ele>357.55</ele>
  <time>2026-09-01T19:57:29Z</time>
  <course>107.87</course>
  <speed>0.25</speed>
  <fix>3d</fix>
</trkpt>
<trkpt lat="-27.2737718" lon="151.2899107">
  <ele>356.88</ele>
  <time>2026-09-01T19:57:29Z</time>
  <course>284.64</course>
  <speed>0.25</speed>
  <fix>3d</fix>
</trkpt>
<trkpt lat="-27.2737716" lon="151.2899099">
  <ele>357.8</ele>
  <time>2026-09-01T19:57:29Z</time>
  <course>107.88</course>
  <speed>0.24738633753705963</speed>
  <fix>3d</fix>
</trkpt>
<trkpt lat="-27.2737718" lon="151.2899107">
  <ele>356.88</ele>
  <time>2026-09-01T19:57:29Z</time>
  <course>284.64</course>
  <speed>0.25</speed>
  <fix>3d</fix>
</trkpt>
<trkpt lat="-27.2737716" lon="151.2899097">
  <ele>358.05</ele>
  <time>2026-09-01T19:57:29Z</time>
  <course>107.87</course>
  <speed>0.24738633753705963</speed>
  <fix>3d</fix>
</trkpt>
<trkpt lat="-27.2737717" lon="151.2899102">
  <ele>357.38</ele>
  <time>2026-09-01T19:57:29Z</time>
  <course>284.78</course>
  <speed>0.24</speed>
  <fix>3d</fix>
</trkpt>
<trkpt lat="-27.2737715" lon="151.2899094">
  <ele>358.3</ele>
  <time>2026-09-01T19:57:29Z</time>
  <course>107.84</course>
  <speed>0.23769728648009425</speed>
  <fix>3d</fix>
</trkpt>
<trkpt lat="-27.2737717" lon="151.2899102">
  <ele>357.38</ele>
  <time>2026-09-01T19:57:29Z</time>
  <course>284.78</course>
  <speed>0.24</speed>
  <fix>3d</fix>
</trkpt>
<trkpt lat="-27.2737715" lon="151.2899092">
  <ele>358.54</ele>
  <time>2026-09-01T19:57:29Z</time>
  <course>107.8</course>
  <speed>0.23769728648009425</speed>
  <fix>3d</fix>
</trkpt>
<trkpt lat="-27.2737716" lon="151.2899097">
  <ele>357.88</ele>
  <time>2026-09-01T19:57:29Z</time>
  <course>284.68</course>
  <speed>0.24</speed>
  <fix>3d</fix>
</trkpt>
<trkpt lat="-27.2737714" lon="151.289909">
  <ele>358.79</ele>
  <time>2026-09-01T19:57:29Z</time>
  <course>107.78</course>
  <speed>0.2353720459187964</speed>
  <fix>3d</fix>
</trkpt>
<trkpt lat="-27.2737716" lon="151.2899097">
  <ele>357.88</ele>
  <time>2026-09-01T19:57:29Z</time>
  <course>284.68</course>
  <speed>0.24</speed>
  <fix>3d</fix>
</trkpt>
<trkpt lat="-27.2737714" lon="151.2899088">
  <ele>359.04</ele>
  <time>2026-09-01T19:57:29Z</time>
  <course>107.76</course>
  <speed>0.22561028345356957</speed>
  <fix>3d</fix>
</trkpt>
<trkpt lat="-27.2737715" lon="151.2899092">
  <ele>358.37</ele>
  <time>2026-09-01T19:57:29Z</time>
  <course>284.62</course>
  <speed>0.23</speed>
  <fix>3d</fix>
</trkpt>
<trkpt lat="-27.2737714" lon="151.2899085">
  <ele>359.29</ele>
  <time>2026-09-01T19:57:29Z</time>
  <course>107.74</course>
  <speed>0.22561028345356957</speed>
  <fix>3d</fix>
</trkpt>
<trkpt lat="-27.2737715" lon="151.2899092">
  <ele>358.37</ele>
  <time>2026-09-01T19:57:29Z</time>
  <course>284.62</course>
  <speed>0.23</speed>
  <fix>3d</fix>
</trkpt>
<trkpt lat="-27.2737713" lon="151.2899083">
  <ele>359.54</ele>
  <time>2026-09-01T19:57:29Z</time>
  <course>107.7</course>
  <speed>0.21377558326431947</speed>
  <fix>3d</fix>
</trkpt>
<trkpt lat="-27.2737714" lon="151.2899088">
  <ele>358.87</ele>
  <time>2026-09-01T19:57:29Z</time>
  <course>284.99</course>
  <speed>0.22</speed>
  <fix>3d</fix>
</trkpt>
<trkpt lat="-27.2737713" lon="151.2899081">
  <ele>359.79</ele>
  <time>2026-09-01T19:57:29Z</time>
  <course>107.66</course>
  <speed>0.21377558326431947</speed>
  <fix>3d</fix>
</trkpt>
<trkpt lat="-27.2737714" lon="151.2899088">
  <ele>358.87</ele>
  <time>2026-09-01T19:57:29Z</time>
  <course>284.99</course>
  <speed>0.22</speed>
  <fix>3d</fix>
</trkpt>
<trkpt lat="-27.2737712" lon="151.2899079">
  <ele>360.04</ele>
  <time>2026-09-01T19:57:29Z</time>
  <course>107.62</course>
  <speed>0.2039607805437114</speed>
  <fix>3d</fix>
</trkpt>
<trkpt lat="-27.2737713" lon="151.2899084">
  <ele>359.36</ele>
  <time>2026-09-01T19:57:29Z</time>
  <course>284.93</course>
  <speed>0.2</speed>
  <fix>3d</fix>
</trkpt>
<trkpt lat="-27.2737712" lon="151.2899077">
  <ele>360.29</ele>
  <time>2026-09-01T19:57:29Z</time>
  <course>107.6</course>
  <speed>0.2039607805437114</speed>
  <fix>3d</fix>
</trkpt>
<trkpt lat="-27.2737713" lon="151.2899084">
  <ele>359.36</ele>
  <time>2026-09-01T19:57:29Z</time>
  <course>284.93</course>
  <speed>0.2</speed>
  <fix>3d</fix>
</trkpt>
<trkpt lat="-27.2737712" lon="151.2899076">
  <ele>360.54</ele>
  <time>2026-09-01T19:57:29Z</time>
  <course>107.57</course>
  <speed>0.19235384061671343</speed>
  <fix>3d</fix>
</trkpt>
<trkpt lat="-27.2737712" lon="151.289908">
  <ele>359.86</ele>
  <time>2026-09-01T19:57:29Z</time>
  <course>284.7</course>
  <speed>0.19</speed>
  <fix>3d</fix>
</trkpt>
<trkpt lat="-27.2737711" lon="151.2899074">
  <ele>360.79</ele>
  <time>2026-09-01T19:57:29Z</time>
  <course>107.57</course>
  <speed>0.19235384061671343</speed>
  <fix>3d</fix>
</trkpt>
<trkpt lat="-27.2737712" lon="151.289908">
  <ele>359.86</ele>
  <time>2026-09-01T19:57:29Z</time>
  <course>284.7</course>
  <speed>0.19</speed>
  <fix>3d</fix>
</trkpt>
<trkpt lat="-27.2737711" lon="151.2899072">
  <ele>361.05</ele>
  <time>2026-09-01T19:57:29Z</time>
  <course>107.57</course>
  <speed>0.18110770276274835</speed>
  <fix>3d</fix>
</trkpt>
<trkpt lat="-27.2737711" lon="151.2899077">
  <ele>360.36</ele>
  <time>2026-09-01T19:57:29Z</time>
  <course>284.78</course>
  <speed>0.18</speed>
  <fix>3d</fix>
</trkpt>
<trkpt lat="-27.2737711" lon="151.289907">
  <ele>361.3</ele>
  <time>2026-09-01T19:57:29Z</time>
  <course>107.56</course>
  <speed>0.1711724276862369</speed>
  <fix>3d</fix>
</trkpt>
<trkpt lat="-27.2737711" lon="151.2899077">
  <ele>360.36</ele>
  <time>2026-09-01T19:57:29Z</time>
  <course>284.78</course>
  <speed>0.18</speed>
  <fix>3d</fix>
</trkpt>
<trkpt lat="-27.273771" lon="151.2899069">
  <ele>361.55</ele>
  <time>2026-09-01T19:57:29Z</time>
  <course>107.53</course>
  <speed>0.16278820596099705</speed>
  <fix>3d</fix>
</trkpt>
<trkpt lat="-27.273771" lon="151.2899073">
  <ele>360.85</ele>
  <time>2026-09-01T19:57:29Z</time>
  <course>284.91</course>
  <speed>0.17</speed>
  <fix>3d</fix>
</trkpt>
<trkpt lat="-27.273771" lon="151.2899067">
  <ele>361.8</ele>
  <time>2026-09-01T19:57:29Z</time>
  <course>107.49</course>
  <speed>0.16124515496597097</speed>
  <fix>3d</fix>
</trkpt>
<trkpt lat="-27.273771" lon="151.2899073">
  <ele>360.85</ele>
  <time>2026-09-01T19:57:29Z</time>
  <course>284.91</course>
  <speed>0.17</speed>
  <fix>3d</fix>
</trkpt>
<trkpt lat="-27.273771" lon="151.2899066">
  <ele>362.05</ele>
  <time>2026-09-01T19:57:29Z</time>
  <course>107.44</course>
  <speed>0.15297058540778355</speed>
  <fix>3d</fix>
</trkpt>
<trkpt lat="-27.273771" lon="151.289907">
  <ele>361.35</ele>
  <time>2026-09-01T19:57:29Z</time>
  <course>284.85</course>
  <speed>0.15</speed>
  <fix>3d</fix>
</trkpt>
<trkpt lat="-27.2737709" lon="151.2899065">
  <ele>362.3</ele>
  <time>2026-09-01T19:57:29Z</time>
  <course>107.41</course>
  <speed>0.15132745950421556</speed>
  <fix>3d</fix>
</trkpt>
<trkpt lat="-27.273771" lon="151.289907">
  <ele>361.35</ele>
  <time>2026-09-01T19:57:29Z</time>
  <course>284.85</course>
  <speed>0.15</speed>
  <fix>3d</fix>
</trkpt>
<trkpt lat="-27.2737709" lon="151.2899063">
  <ele>362.55</ele>
  <time>2026-09-01T19:57:29Z</time>
  <course>107.4</course>
  <speed>0.1414213562373095</speed>
  <fix>3d</fix>
</trkpt>
<trkpt lat="-27.2737709" lon="151.2899067">
  <ele>361.85</ele>
  <time>2026-09-01T19:57:29Z</time>
  <course>284.49</course>
  <speed>0.14</speed>
  <fix>3d</fix>
</trkpt>
<trkpt lat="-27.2737709" lon="151.2899062">
  <ele>362.8</ele>
  <time>2026-09-01T19:57:29Z</time>
  <course>107.41</course>
  <speed>0.130384048104053</speed>
  <fix>3d</fix>
</trkpt>
<trkpt lat="-27.2737709" lon="151.2899067">
  <ele>361.85</ele>
  <time>2026-09-01T19:57:29Z</time>
  <course>284.49</course>
  <speed>0.14</speed>
  <fix>3d</fix>
</trkpt>
<trkpt lat="-27.2737709" lon="151.2899061">
  <ele>363.05</ele>
  <time>2026-09-01T19:57:29Z</time>
  <course>107.42</course>
  <speed>0.130384048104053</speed>
  <fix>3d</fix>
</trkpt>
<trkpt lat="-27.2737708" lon="151.2899064">
  <ele>362.34</ele>
  <time>2026-09-01T19:57:29Z</time>
  <course>284.15</course>
  <speed>0.12</speed>
  <fix>3d</fix>
</trkpt>
<trkpt lat="-27.2737709" lon="151.289906">
  <ele>363.3</ele>
  <time>2026-09-01T19:57:29Z</time>
  <course>107.42</course>
  <speed>0.12041594578792296</speed>
  <fix>3d</fix>
</trkpt>
<trkpt lat="-27.2737708" lon="151.2899064">
  <ele>362.34</ele>
  <time>2026-09-01T19:57:29Z</time>
  <course>284.15</course>
  <speed>0.12</speed>
  <fix>3d</fix>
</trkpt>
<trkpt lat="-27.2737708" lon="151.2899059">
  <ele>363.55</ele>
  <time>2026-09-01T19:57:29Z</time>
  <course>107.4</course>
  <speed>0.12041594578792296</speed>
  <fix>3d</fix>
</trkpt>
<trkpt lat="-27.2737708" lon="151.2899062">
  <ele>362.84</ele>
  <time>2026-09-01T19:57:29Z</time>
  <course>283.78</course>
  <speed>0.11</speed>
  <fix>3d</fix>
</trkpt>
<trkpt lat="-27.2737708" lon="151.2899057">
  <ele>363.8</ele>
  <time>2026-09-01T19:57:29Z</time>
  <course>107.39</course>
  <speed>0.11</speed>
  <fix>3d</fix>
</trkpt>
<trkpt lat="-27.2737708" lon="151.2899062">
  <ele>362.84</ele>
  <time>2026-09-01T19:57:29Z</time>
  <course>283.78</course>
  <speed>0.11</speed>
  <fix>3d</fix>
</trkpt>
<trkpt lat="-27.2737708" lon="151.2899057">
  <ele>364.05</ele>
  <time>2026-09-01T19:57:29Z</time>
  <course>107.38</course>
  <speed>0.11</speed>
  <fix>3d</fix>
</trkpt>
<trkpt lat="-27.2737708" lon="151.2899059">
  <ele>363.33</ele>
  <time>2026-09-01T19:57:29Z</time>
  <course>283.51</course>
  <speed>0.1</speed>
  <fix>3d</fix>
</trkpt>
<trkpt lat="-27.2737708" lon="151.2899056">
  <ele>364.3</ele>
  <time>2026-09-01T19:57:29Z</time>
  <course>107.37</course>
  <speed>0.1</speed>
  <fix>3d</fix>
</trkpt>
<trkpt lat="-27.2737708" lon="151.2899059">
  <ele>363.33</ele>
  <time>2026-09-01T19:57:29Z</time>
  <course>283.51</course>
  <speed>0.1</speed>
  <fix>3d</fix>
</trkpt>
<trkpt lat="-27.2737708" lon="151.2899055">
  <ele>364.55</ele>
  <time>2026-09-01T19:57:29Z</time>
  <course>107.36</course>
  <speed>0.1</speed>
  <fix>3d</fix>
</trkpt>
<trkpt lat="-27.2737707" lon="151.2899057">
  <ele>363.83</ele>
  <time>2026-09-01T19:57:29Z</time>
  <course>283.91</course>
  <speed>0.09</speed>
  <fix>3d</fix>
</trkpt>
<trkpt lat="-27.2737708" lon="151.2899054">
  <ele>364.8</ele>
  <time>2026-09-01T19:57:29Z</time>
  <course>107.33</course>
  <speed>0.09</speed>
  <fix>3d</fix>
</trkpt>
<trkpt lat="-27.2737707" lon="151.2899057">
  <ele>363.83</ele>
  <time>2026-09-01T19:57:29Z</time>
  <course>283.91</course>
  <speed>0.09</speed>
  <fix>3d</fix>
</trkpt>
<trkpt lat="-27.2737708" lon="151.2899053">
  <ele>365.04</ele>
  <time>2026-09-01T19:57:29Z</time>
  <course>107.29</course>
  <speed>0.09</speed>
  <fix>3d</fix>
</trkpt>
<trkpt lat="-27.2737707" lon="151.2899056">
  <ele>364.32</ele>
  <time>2026-09-01T19:57:29Z</time>
  <course>284.43</course>
  <speed>0.07</speed>
  <fix>3d</fix>
</trkpt>
<trkpt lat="-27.2737708" lon="151.2899052">
  <ele>365.29</ele>
  <time>2026-09-01T19:57:29Z</time>
  <course>107.25</course>
  <speed>0.08</speed>
  <fix>3d</fix>
</trkpt>
<trkpt lat="-27.2737707" lon="151.2899056">
  <ele>364.32</ele>
  <time>2026-09-01T19:57:29Z</time>
  <course>284.43</course>
  <speed>0.07</speed>
  <fix>3d</fix>
</trkpt>
<trkpt lat="-27.2737708" lon="151.2899052">
  <ele>365.54</ele>
  <time>2026-09-01T19:57:29Z</time>
  <course>107.21</course>
  <speed>0.08</speed>
  <fix>3d</fix>
</trkpt>
<trkpt lat="-27.2737706" lon="151.2899054">
  <ele>364.82</ele>
  <time>2026-09-01T19:57:29Z</time>
  <course>284.68</course>
  <speed>0.06</speed>
  <fix>3d</fix>
</trkpt>
<trkpt lat="-27.2737708" lon="151.2899051">
  <ele>365.79</ele>
  <time>2026-09-01T19:57:29Z</time>
  <course>107.2</course>
  <speed>0.07</speed>
  <fix>3d</fix>
</trkpt>
<trkpt lat="-27.2737706" lon="151.2899054">
  <ele>364.82</ele>
  <time>2026-09-01T19:57:29Z</time>
  <course>284.68</course>
  <speed>0.06</speed>
  <fix>3d</fix>
</trkpt>
<trkpt lat="-27.2737707" lon="151.2899051">
  <ele>366.04</ele>
  <time>2026-09-01T19:57:29Z</time>
  <course>107.18</course>
  <speed>0.07</speed>
  <fix>3d</fix>
</trkpt>
<trkpt lat="-27.2737706" lon="151.2899053">
  <ele>365.31</ele>
  <time>2026-09-01T19:57:29Z</time>
  <course>284.8</course>
  <speed>0.05</speed>
  <fix>3d</fix>
</trkpt>
<trkpt lat="-27.2737707" lon="151.289905">
  <ele>366.29</ele>
  <time>2026-09-01T19:57:29Z</time>
  <course>107.17</course>
  <speed>0.06</speed>
  <fix>3d</fix>
</trkpt>
<trkpt lat="-27.2737706" lon="151.2899053">
  <ele>365.31</ele>
  <time>2026-09-01T19:57:29Z</time>
  <course>284.8</course>
  <speed>0.05</speed>
  <fix>3d</fix>
</trkpt>
<trkpt lat="-27.2737707" lon="151.289905">
  <ele>366.54</ele>
  <time>2026-09-01T19:57:29Z</time>
  <course>107.17</course>
  <speed>0.06082762530298219</speed>
  <fix>3d</fix>
</trkpt>
<trkpt lat="-27.2737706" lon="151.2899052">
  <ele>365.81</ele>
  <time>2026-09-01T19:57:29Z</time>
  <course>284.86</course>
  <speed>0.04</speed>
  <fix>3d</fix>
</trkpt>
<trkpt lat="-27.2737707" lon="151.2899049">
  <ele>366.79</ele>
  <time>2026-09-01T19:57:29Z</time>
  <course>107.18</course>
  <speed>0.06082762530298219</speed>
  <fix>3d</fix>
</trkpt>
<trkpt lat="-27.2737706" lon="151.2899052">
  <ele>365.81</ele>
  <time>2026-09-01T19:57:29Z</time>
  <course>284.86</course>
  <speed>0.04</speed>
  <fix>3d</fix>
</trkpt>
<trkpt lat="-27.2737707" lon="151.2899049">
  <ele>367.04</ele>
  <time>2026-09-01T19:57:29Z</time>
  <course>107.17</course>
  <speed>0.05099019513592785</speed>
  <fix>3d</fix>
</trkpt>
<trkpt lat="-27.2737706" lon="151.2899052">
  <ele>366.31</ele>
  <time>2026-09-01T19:57:29Z</time>
  <course>285.67</course>
  <speed>0.03</speed>
  <fix>3d</fix>
</trkpt>
<trkpt lat="-27.2737707" lon="151.2899049">
  <ele>367.29</ele>
  <time>2026-09-01T19:57:29Z</time>
  <course>107.16</course>
  <speed>0.05099019513592785</speed>
  <fix>3d</fix>
</trkpt>
<trkpt lat="-27.2737706" lon="151.2899052">
  <ele>366.31</ele>
  <time>2026-09-01T19:57:29Z</time>
  <course>285.67</course>
  <speed>0.03</speed>
  <fix>3d</fix>
</trkpt>
<trkpt lat="-27.2737707" lon="151.2899048">
  <ele>367.53</ele>
  <time>2026-09-01T19:57:29Z</time>
  <course>107.14</course>
  <speed>0.0412310562561766</speed>
  <fix>3d</fix>
</trkpt>
<trkpt lat="-27.2737706" lon="151.2899051">
  <ele>366.8</ele>
  <time>2026-09-01T19:57:29Z</time>
  <course>286.24</course>
  <speed>0.02</speed>
  <fix>3d</fix>
</trkpt>
<trkpt lat="-27.2737707" lon="151.2899048">
  <ele>367.78</ele>
  <time>2026-09-01T19:57:29Z</time>
  <course>107.13</course>
  <speed>0.0412310562561766</speed>
  <fix>3d</fix>
</trkpt>
<trkpt lat="-27.2737706" lon="151.2899051">
  <ele>366.8</ele>
  <time>2026-09-01T19:57:29Z</time>
  <course>286.24</course>
  <speed>0.02</speed>
  <fix>3d</fix>
</trkpt>
<trkpt lat="-27.2737707" lon="151.2899048">
  <ele>368.03</ele>
  <time>2026-09-01T19:57:29Z</time>
  <course>107.12</course>
  <speed>0.0316227766016838</speed>
  <fix>3d</fix>
</trkpt>
<trkpt lat="-27.2737706" lon="151.2899051">
  <ele>367.3</ele>
  <time>2026-09-01T19:57:29Z</time>
  <course>288.92</course>
  <speed>0.01</speed>
  <fix>3d</fix>
</trkpt>
<trkpt lat="-27.2737707" lon="151.2899048">
  <ele>368.28</ele>
  <time>2026-09-01T19:57:29Z</time>
  <course>107.12</course>
  <speed>0.03605551275463989</speed>
  <fix>3d</fix>
</trkpt>
<trkpt lat="-27.2737706" lon="151.2899051">
  <ele>367.3</ele>
  <time>2026-09-01T19:57:29Z</time>
  <course>288.92</course>
  <speed>0.01</speed>
  <fix>3d</fix>
</trkpt>
<trkpt lat="-27.2737707" lon="151.2899048">
  <ele>368.53</ele>
  <time>2026-09-01T19:57:29Z</time>
  <course>107.11</course>
  <speed>0.0282842712474619</speed>
  <fix>3d</fix>
</trkpt>
<trkpt lat="-27.2737706" lon="151.2899051">
  <ele>367.8</ele>
  <time>2026-09-01T19:57:29Z</time>
  <course>312.43</course>
  <speed>0.0</speed>
  <fix>3d</fix>
</trkpt>
<trkpt lat="-27.2737707" lon="151.2899048">
  <ele>368.79</ele>
  <time>2026-09-01T19:57:29Z</time>
  <course>107.1</course>
  <speed>0.0282842712474619</speed>
  <fix>3d</fix>
</trkpt>
<trkpt lat="-27.2737706" lon="151.2899051">
  <ele>367.8</ele>
  <time>2026-09-01T19:57:29Z</time>
  <course>312.43</course>
  <speed>0.0</speed>
  <fix>3d</fix>
</trkpt>
<trkpt lat="-27.2737707" lon="151.2899048">
  <ele>369.04</ele>
  <time>2026-09-01T19:57:29Z</time>
  <course>107.09</course>
  <speed>0.0282842712474619</speed>
  <fix>3d</fix>
</trkpt>
<trkpt lat="-27.2737706" lon="151.2899051">
  <ele>368.3</ele>
  <time>2026-09-01T19:57:29Z</time>
  <course>56.97</course>
  <speed>0.0</speed>
  <fix>3d</fix>
</trkpt>
<trkpt lat="-27.2737707" lon="151.2899048">
  <ele>369.29</ele>
  <time>2026-09-01T19:57:29Z</time>
  <course>107.07</course>
  <speed>0.0282842712474619</speed>
  <fix>3d</fix>
</trkpt>
<trkpt lat="-27.2737706" lon="151.2899051">
  <ele>368.3</ele>
  <time>2026-09-01T19:57:29Z</time>
  <course>56.97</course>
  <speed>0.0</speed>
  <fix>3d</fix>
</trkpt>
<trkpt lat="-27.2737707" lon="151.2899048">
  <ele>369.54</ele>
  <time>2026-09-01T19:57:29Z</time>
  <course>107.05</course>
  <speed>0.022360679774997897</speed>
  <fix>3d</fix>
</trkpt>
<trkpt lat="-27.2737705" lon="151.2899051">
  <ele>368.8</ele>
  <time>2026-09-01T19:57:29Z</time>
  <course>78.37</course>
  <speed>0.01</speed>
  <fix>3d</fix>
</trkpt>
<trkpt lat="-27.2737707" lon="151.2899049">
  <ele>369.79</ele>
  <time>2026-09-01T19:57:29Z</time>
  <course>107.04</course>
  <speed>0.022360679774997897</speed>
  <fix>3d</fix>
</trkpt>
<trkpt lat="-27.2737705" lon="151.2899051">
  <ele>368.8</ele>
  <time>2026-09-01T19:57:29Z</time>
  <course>78.37</course>
  <speed>0.01</speed>
  <fix>3d</fix>
</trkpt>
<trkpt lat="-27.2737707" lon="151.2899049">
  <ele>370.04</ele>
  <time>2026-09-01T19:57:29Z</time>
  <course>107.03</course>
  <speed>0.022360679774997897</speed>
  <fix>3d</fix>
</trkpt>
<trkpt lat="-27.2737705" lon="151.2899051">
  <ele>369.29</ele>
  <time>2026-09-01T19:57:29Z</time>
  <course>80.95</course>
  <speed>0.01</speed>
  <fix>3d</fix>
</trkpt>
<trkpt lat="-27.2737707" lon="151.2899049">
  <ele>370.29</ele>
  <time>2026-09-01T19:57:29Z</time>
  <course>107.02</course>
  <speed>0.022360679774997897</speed>
  <fix>3d</fix>
</trkpt>
<trkpt lat="-27.2737705" lon="151.2899051">
  <ele>369.29</ele>
  <time>2026-09-01T19:57:29Z</time>
  <course>80.95</course>
  <speed>0.01</speed>
  <fix>3d</fix>
</trkpt>
<trkpt lat="-27.2737707" lon="151.2899049">
  <ele>370.54</ele>
  <time>2026-09-01T19:57:29Z</time>
  <course>107.01</course>
  <speed>0.022360679774997897</speed>
  <fix>3d</fix>
</trkpt>
<trkpt lat="-27.2737705" lon="151.2899051">
  <ele>369.79</ele>
  <time>2026-09-01T19:57:29Z</time>
  <course>82.01</course>
  <speed>0.02</speed>
  <fix>3d</fix>
</trkpt>
<trkpt lat="-27.2737707" lon="151.2899049">
  <ele>370.78</ele>
  <time>2026-09-01T19:57:29Z</time>
  <course>107.0</course>
  <speed>0.02</speed>
  <fix>3d</fix>
</trkpt>
<trkpt lat="-27.2737705" lon="151.2899051">
  <ele>369.79</ele>
  <time>2026-09-01T19:57:29Z</time>
  <course>82.01</course>
  <speed>0.02</speed>
  <fix>3d</fix>
</trkpt>
<trkpt lat="-27.2737707" lon="151.2899049">
  <ele>371.03</ele>
  <time>2026-09-01T19:57:29Z</time>
  <course>107.0</course>
  <speed>0.02</speed>
  <fix>3d</fix>
</trkpt>
<trkpt lat="-27.2737705" lon="151.2899051">
  <ele>370.29</ele>
  <time>2026-09-01T19:57:29Z</time>
  <course>84.23</course>
  <speed>0.02</speed>
  <fix>3d</fix>
</trkpt>
<trkpt lat="-27.2737707" lon="151.2899049">
  <ele>371.28</ele>
  <time>2026-09-01T19:57:29Z</time>
  <course>107.0</course>
  <speed>0.02</speed>
  <fix>3d</fix>
</trkpt>
<trkpt lat="-27.2737705" lon="151.2899051">
  <ele>370.29</ele>
  <time>2026-09-01T19:57:29Z</time>
  <course>84.23</course>
  <speed>0.02</speed>
  <fix>3d</fix>
</trkpt>
<trkpt lat="-27.2737707" lon="151.2899049">
  <ele>371.53</ele>
  <time>2026-09-01T19:57:29Z</time>
  <course>106.99</course>
  <speed>0.02</speed>
  <fix>3d</fix>
</trkpt>
<trkpt lat="-27.2737705" lon="151.2899051">
  <ele>370.78</ele>
  <time>2026-09-01T19:57:29Z</time>
  <course>85.63</course>
  <speed>0.03</speed>
  <fix>3d</fix>
</trkpt>
<trkpt lat="-27.2737707" lon="151.2899049">
  <ele>371.78</ele>
  <time>2026-09-01T19:57:29Z</time>
  <course>106.98</course>
  <speed>0.02</speed>
  <fix>3d</fix>
</trkpt>
<trkpt lat="-27.2737705" lon="151.2899051">
  <ele>370.78</ele>
  <time>2026-09-01T19:57:29Z</time>
  <course>85.63</course>
  <speed>0.03</speed>
  <fix>3d</fix>
</trkpt>
<trkpt lat="-27.2737707" lon="151.289905">
  <ele>372.03</ele>
  <time>2026-09-01T19:57:29Z</time>
  <course>106.97</course>
  <speed>0.02</speed>
  <fix>3d</fix>
</trkpt>
<trkpt lat="-27.2737705" lon="151.2899052">
  <ele>371.28</ele>
  <time>2026-09-01T19:57:29Z</time>
  <course>85.97</course>
  <speed>0.03</speed>
  <fix>3d</fix>
</trkpt>
<trkpt lat="-27.2737707" lon="151.289905">
  <ele>372.28</ele>
  <time>2026-09-01T19:57:29Z</time>
  <course>106.97</course>
  <speed>0.02</speed>
  <fix>3d</fix>
</trkpt>
<trkpt lat="-27.2737705" lon="151.2899052">
  <ele>371.28</ele>
  <time>2026-09-01T19:57:29Z</time>
  <course>85.97</course>
  <speed>0.03</speed>
  <fix>3d</fix>
</trkpt>
<trkpt lat="-27.2737707" lon="151.289905">
  <ele>372.53</ele>
  <time>2026-09-01T19:57:29Z</time>
  <course>106.98</course>
  <speed>0.02</speed>
  <fix>3d</fix>
</trkpt>
<trkpt lat="-27.2737705" lon="151.2899052">
  <ele>371.78</ele>
  <time>2026-09-01T19:57:29Z</time>
  <course>85.87</course>
  <speed>0.03</speed>
  <fix>3d</fix>
</trkpt>
<trkpt lat="-27.2737707" lon="151.289905">
  <ele>372.78</ele>
  <time>2026-09-01T19:57:29Z</time>
  <course>106.98</course>
  <speed>0.02</speed>
  <fix>3d</fix>
</trkpt>
<trkpt lat="-27.2737705" lon="151.2899052">
  <ele>371.78</ele>
  <time>2026-09-01T19:57:29Z</time>
  <course>85.87</course>
  <speed>0.03</speed>
  <fix>3d</fix>
</trkpt>
<trkpt lat="-27.2737707" lon="151.2899051">
  <ele>373.03</ele>
  <time>2026-09-01T19:57:29Z</time>
  <course>106.98</course>
  <speed>0.02</speed>
  <fix>3d</fix>
</trkpt>
<trkpt lat="-27.2737705" lon="151.2899053">
  <ele>372.28</ele>
  <time>2026-09-01T19:57:29Z</time>
  <course>85.73</course>
  <speed>0.03</speed>
  <fix>3d</fix>
</trkpt>
<trkpt lat="-27.2737707" lon="151.2899051">
  <ele>373.27</ele>
  <time>2026-09-01T19:57:29Z</time>
  <course>106.99</course>
  <speed>0.02</speed>
  <fix>3d</fix>
</trkpt>
<trkpt lat="-27.2737705" lon="151.2899053">
  <ele>372.28</ele>
  <time>2026-09-01T19:57:29Z</time>
  <course>85.73</course>
  <speed>0.03</speed>
  <fix>3d</fix>
</trkpt>
<trkpt lat="-27.2737707" lon="151.2899051">
  <ele>373.52</ele>
  <time>2026-09-01T19:57:29Z</time>
  <course>106.98</course>
  <speed>0.0316227766016838</speed>
  <fix>3d</fix>
</trkpt>
<trkpt lat="-27.2737705" lon="151.2899054">
  <ele>372.78</ele>
  <time>2026-09-01T19:57:29Z</time>
  <course>85.95</course>
  <speed>0.03</speed>
  <fix>3d</fix>
</trkpt>
<trkpt lat="-27.2737707" lon="151.2899052">
  <ele>373.77</ele>
  <time>2026-09-01T19:57:29Z</time>
  <course>106.94</course>
  <speed>0.09433981132056603</speed>
  <fix>3d</fix>
</trkpt>
<trkpt lat="-27.2737705" lon="151.2899054">
  <ele>372.78</ele>
  <time>2026-09-01T19:57:29Z</time>
  <course>85.95</course>
  <speed>0.03</speed>
  <fix>3d</fix>
</trkpt>
<trkpt lat="-27.2737707" lon="151.2899054">
  <ele>374.01</ele>
  <time>2026-09-01T19:57:29Z</time>
  <course>106.89</course>
  <speed>0.22472205054244232</speed>
  <fix>3d</fix>
</trkpt>
<trkpt lat="-27.2737705" lon="151.2899055">
  <ele>373.28</ele>
  <time>2026-09-01T19:57:29Z</time>
  <course>97.57</course>
  <speed>0.08</speed>
  <fix>3d</fix>
</trkpt>
<trkpt lat="-27.2737708" lon="151.2899057">
  <ele>374.24</ele>
  <time>2026-09-01T19:57:29Z</time>
  <course>106.83</course>
  <speed>0.41109609582188933</speed>
  <fix>3d</fix>
</trkpt>
<trkpt lat="-27.2737705" lon="151.2899055">
  <ele>373.28</ele>
  <time>2026-09-01T19:57:29Z</time>
  <course>97.57</course>
  <speed>0.08</speed>
  <fix>3d</fix>
</trkpt>
<trkpt lat="-27.2737709" lon="151.2899063">
  <ele>374.47</ele>
  <time>2026-09-01T19:57:29Z</time>
  <course>106.75</course>
  <speed>0.6609841147864296</speed>
  <fix>3d</fix>
</trkpt>
<trkpt lat="-27.2737705" lon="151.2899058">
  <ele>373.77</ele>
  <time>2026-09-01T19:57:29Z</time>
  <course>104.36</course>
  <speed>0.28</speed>
  <fix>3d</fix>
</trkpt>
<trkpt lat="-27.2737711" lon="151.2899071">
  <ele>374.68</ele>
  <time>2026-09-01T19:57:29Z</time>
  <course>106.6</course>
  <speed>0.9646242791885347</speed>
  <fix>3d</fix>
</trkpt>
<trkpt lat="-27.2737705" lon="151.2899058">
  <ele>373.77</ele>
  <time>2026-09-01T19:57:29Z</time>
  <course>104.36</course>
  <speed>0.28</speed>
  <fix>3d</fix>
</trkpt>
<trkpt lat="-27.2737714" lon="151.2899082">
  <ele>374.88</ele>
  <time>2026-09-01T19:57:29Z</time>
  <course>106.4</course>
  <speed>1.3380956617521784</speed>
  <fix>3d</fix>
</trkpt>
<trkpt lat="-27.2737707" lon="151.2899067">
  <ele>374.23</ele>
  <time>2026-09-01T19:57:29Z</time>
  <course>106.01</course>
  <speed>0.71</speed>
  <fix>3d</fix>
</trkpt>
<trkpt lat="-27.2737718" lon="151.2899098">
  <ele>375.05</ele>
  <time>2026-09-01T19:57:29Z</time>
  <course>106.2</course>
  <speed>1.7816004041310722</speed>
  <fix>3d</fix>
</trkpt>
<trkpt lat="-27.2737707" lon="151.2899067">
  <ele>374.23</ele>
  <time>2026-09-01T19:57:29Z</time>
  <course>106.01</course>
  <speed>0.71</speed>
  <fix>3d</fix>
</trkpt>
<trkpt lat="-27.2737722" lon="151.2899117">
  <ele>375.19</ele>
  <time>2026-09-01T19:57:29Z</time>
  <course>105.83</course>
  <speed>2.2884274076317124</speed>
  <fix>3d</fix>
</trkpt>
<trkpt lat="-27.2737712" lon="151.2899087">
  <ele>374.63</ele>
  <time>2026-09-01T19:57:29Z</time>
  <course>106.39</course>
  <speed>1.38</speed>
  <fix>3d</fix>
</trkpt>
<trkpt lat="-27.2737728" lon="151.2899142">
  <ele>375.3</ele>
  <time>2026-09-01T19:57:29Z</time>
  <course>105.38</course>
  <speed>2.843448610402516</speed>
  <fix>3d</fix>
</trkpt>
<trkpt lat="-27.2737712" lon="151.2899087">
  <ele>374.63</ele>
  <time>2026-09-01T19:57:29Z</time>
  <course>106.39</course>
  <speed>1.38</speed>
  <fix>3d</fix>
</trkpt>
<trkpt lat="-27.2737736" lon="151.2899173">
  <ele>375.37</ele>
  <time>2026-09-01T19:57:29Z</time>
  <course>105.0</course>
  <speed>3.420526275297414</speed>
  <fix>3d</fix>
</trkpt>
<trkpt lat="-27.2737721" lon="151.2899123">
  <ele>374.94</ele>
  <time>2026-09-01T19:57:29Z</time>
  <course>106.22</course>
  <speed>2.32</speed>
  <fix>3d</fix>
</trkpt>
<trkpt lat="-27.2737744" lon="151.2899209">
  <ele>375.42</ele>
  <time>2026-09-01T19:57:29Z</time>
  <course>104.63</course>
  <speed>4.021504693519578</speed>
  <fix>3d</fix>
</trkpt>
<trkpt lat="-27.2737721" lon="151.2899123">
  <ele>374.94</ele>
  <time>2026-09-01T19:57:29Z</time>
  <course>106.22</course>
  <speed>2.32</speed>
  <fix>3d</fix>
</trkpt>
<trkpt lat="-27.2737754" lon="151.2899251">
  <ele>375.44</ele>
  <time>2026-09-01T19:57:29Z</time>
  <course>104.17</course>
  <speed>4.622769732530489</speed>
  <fix>3d</fix>
</trkpt>
<trkpt lat="-27.2737735" lon="151.2899179">
  <ele>375.13</ele>
  <time>2026-09-01T19:57:29Z</time>
  <course>105.75</course>
  <speed>3.44</speed>
  <fix>3d</fix>
</trkpt>
<trkpt lat="-27.2737764" lon="151.28993">
  <ele>375.44</ele>
  <time>2026-09-01T19:57:29Z</time>
  <course>103.68</course>
  <speed>5.236506469011569</speed>
  <fix>3d</fix>
</trkpt>
<trkpt lat="-27.2737735" lon="151.2899179">
  <ele>375.13</ele>
  <time>2026-09-01T19:57:29Z</time>
  <course>105.75</course>
  <speed>3.44</speed>
  <fix>3d</fix>
</trkpt>
<trkpt lat="-27.2737776" lon="151.2899355">
  <ele>375.43</ele>
  <time>2026-09-01T19:57:29Z</time>
  <course>103.08</course>
  <speed>5.834397998080008</speed>
  <fix>3d</fix>
</trkpt>
<trkpt lat="-27.2737755" lon="151.2899258">
  <ele>375.2</ele>
  <time>2026-09-01T19:57:29Z</time>
  <course>104.84</course>
  <speed>4.64</speed>
  <fix>3d</fix>
</trkpt>
<trkpt lat="-27.2737788" lon="151.2899415">
  <ele>375.41</ele>
  <time>2026-09-01T19:57:29Z</time>
  <course>102.33</course>
  <speed>6.4388585945026</speed>
  <fix>3d</fix>
</trkpt>
<trkpt lat="-27.2737755" lon="151.2899258">
  <ele>375.2</ele>
  <time>2026-09-01T19:57:29Z</time>
  <course>104.84</course>
  <speed>4.64</speed>
  <fix>3d</fix>
</trkpt>
<trkpt lat="-27.27378" lon="151.2899482">
  <ele>375.38</ele>
  <time>2026-09-01T19:57:29Z</time>
  <course>101.43</course>
  <speed>7.030824987154778</speed>
  <fix>3d</fix>
</trkpt>
<trkpt lat="-27.2737778" lon="151.2899361">
  <ele>375.19</ele>
  <time>2026-09-01T19:57:29Z</time>
  <course>103.4</course>
  <speed>5.85</speed>
  <fix>3d</fix>
</trkpt>
<trkpt lat="-27.2737813" lon="151.2899555">
  <ele>375.35</ele>
  <time>2026-09-01T19:57:29Z</time>
  <course>100.47</course>
  <speed>7.625122949828416</speed>
  <fix>3d</fix>
</trkpt>
<trkpt lat="-27.2737778" lon="151.2899361">
  <ele>375.19</ele>
  <time>2026-09-01T19:57:29Z</time>
  <course>103.4</course>
  <speed>5.85</speed>
  <fix>3d</fix>
</trkpt>
<trkpt lat="-27.2737825" lon="151.2899634">
  <ele>375.32</ele>
  <time>2026-09-01T19:57:29Z</time>
  <course>99.43</course>
  <speed>8.207295535071221</speed>
  <fix>3d</fix>
</trkpt>
<trkpt lat="-27.2737803" lon="151.2899489">
  <ele>375.15</ele>
  <time>2026-09-01T19:57:29Z</time>
  <course>101.54</course>
  <speed>7.05</speed>
  <fix>3d</fix>
</trkpt>
<trkpt lat="-27.2737836" lon="151.2899719">
  <ele>375.3</ele>
  <time>2026-09-01T19:57:29Z</time>
  <course>98.33</course>
  <speed>8.786905029644965</speed>
  <fix>3d</fix>
</trkpt>
<trkpt lat="-27.2737803" lon="151.2899489">
  <ele>375.15</ele>
  <time>2026-09-01T19:57:29Z</time>
  <course>101.54</course>
  <speed>7.05</speed>
  <fix>3d</fix>
</trkpt>
<trkpt lat="-27.2737847" lon="151.289981">
  <ele>375.27</ele>
  <time>2026-09-01T19:57:29Z</time>
  <course>97.2</course>
  <speed>9.365708729188626</speed>
  <fix>3d</fix>
</trkpt>
<trkpt lat="-27.2737828" lon="151.2899641">
  <ele>375.09</ele>
  <time>2026-09-01T19:57:29Z</time>
  <course>99.25</course>
  <speed>8.23</speed>
  <fix>3d</fix>
</trkpt>
<trkpt lat="-27.2737856" lon="151.2899907">
  <ele>375.25</ele>
  <time>2026-09-01T19:57:29Z</time>
  <course>95.79</course>
  <speed>9.925608293701702</speed>
  <fix>3d</fix>
</trkpt>
<trkpt lat="-27.2737828" lon="151.2899641">
  <ele>375.09</ele>
  <time>2026-09-01T19:57:29Z</time>
  <course>99.25</course>
  <speed>8.23</speed>
  <fix>3d</fix>
</trkpt>
<trkpt lat="-27.2737863" lon="151.290001">
  <ele>375.23</ele>
  <time>2026-09-01T19:57:29Z</time>
  <course>94.23</course>
  <speed>10.449009522438</speed>
  <fix>3d</fix>
</trkpt>
<trkpt lat="-27.2737849" lon="151.2899818">
  <ele>375.05</ele>
  <time>2026-09-01T19:57:29Z</time>
  <course>96.6</course>
  <speed>9.39</speed>
  <fix>3d</fix>
</trkpt>
<trkpt lat="-27.2737868" lon="151.2900117">
  <ele>375.22</ele>
  <time>2026-09-01T19:57:29Z</time>
  <course>92.79</course>
  <speed>10.9462550673735</speed>
  <fix>3d</fix>
</trkpt>
<trkpt lat="-27.2737849" lon="151.2899818">
  <ele>375.05</ele>
  <time>2026-09-01T19:57:29Z</time>
  <course>96.6</course>
  <speed>9.39</speed>
  <fix>3d</fix>
</trkpt>
<trkpt lat="-27.2737871" lon="151.2900229">
  <ele>375.21</ele>
  <time>2026-09-01T19:57:29Z</time>
  <course>91.42</course>
  <speed>11.430354325216694</speed>
  <fix>3d</fix>
</trkpt>
<trkpt lat="-27.2737866" lon="151.2900018">
  <ele>375.01</ele>
  <time>2026-09-01T19:57:29Z</time>
  <course>93.7</course>
  <speed>10.47</speed>
  <fix>3d</fix>
</trkpt>
<trkpt lat="-27.2737871" lon="151.2900345">
  <ele>375.2</ele>
  <time>2026-09-01T19:57:29Z</time>
  <course>90.09</course>
  <speed>11.891854354977614</speed>
  <fix>3d</fix>
</trkpt>
<trkpt lat="-27.2737866" lon="151.2900018">
  <ele>375.01</ele>
  <time>2026-09-01T19:57:29Z</time>
  <course>93.7</course>
  <speed>10.47</speed>
  <fix>3d</fix>
</trkpt>
<trkpt lat="-27.273787" lon="151.2900466">
  <ele>375.2</ele>
  <time>2026-09-01T19:57:29Z</time>
  <course>88.78</course>
  <speed>12.35180958402452</speed>
  <fix>3d</fix>
</trkpt>
<trkpt lat="-27.2737873" lon="151.290024">
  <ele>374.99</ele>
  <time>2026-09-01T19:57:29Z</time>
  <course>90.65</course>
  <speed>11.46</speed>
  <fix>3d</fix>
</trkpt>
<trkpt lat="-27.2737864" lon="151.2900591">
  <ele>375.19</ele>
  <time>2026-09-01T19:57:29Z</time>
  <course>87.39</course>
  <speed>12.80028515307374</speed>
  <fix>3d</fix>
</trkpt>
<trkpt lat="-27.2737873" lon="151.290024">
  <ele>374.99</ele>
  <time>2026-09-01T19:57:29Z</time>
  <course>90.65</course>
  <speed>11.46</speed>
  <fix>3d</fix>
</trkpt>
<trkpt lat="-27.2737855" lon="151.290072">
  <ele>375.19</ele>
  <time>2026-09-01T19:57:29Z</time>
  <course>86.0</course>
  <speed>13.249098082511125</speed>
  <fix>3d</fix>
</trkpt>
<trkpt lat="-27.273787" lon="151.290048">
  <ele>374.97</ele>
  <time>2026-09-01T19:57:29Z</time>
  <course>87.6</course>
  <speed>12.41</speed>
  <fix>3d</fix>
</trkpt>
<trkpt lat="-27.2737843" lon="151.2900854">
  <ele>375.19</ele>
  <time>2026-09-01T19:57:29Z</time>
  <course>84.63</course>
  <speed>13.697331856971267</speed>
  <fix>3d</fix>
</trkpt>
<trkpt lat="-27.273787" lon="151.290048">
  <ele>374.97</ele>
  <time>2026-09-01T19:57:29Z</time>
  <course>87.6</course>
  <speed>12.41</speed>
  <fix>3d</fix>
</trkpt>
<trkpt lat="-27.2737828" lon="151.2900992">
  <ele>375.18</ele>
  <time>2026-09-01T19:57:30Z</time>
  <course>83.22</course>
  <speed>14.128057191277222</speed>
  <fix>3d</fix>
</trkpt>
<trkpt lat="-27.2737855" lon="151.290074">
  <ele>374.96</ele>
  <time>2026-09-01T19:57:30Z</time>
  <course>84.61</course>
  <speed>13.34</speed>
  <fix>3d</fix>
</trkpt>
<trkpt lat="-27.2737809" lon="151.2901132">
  <ele>375.18</ele>
  <time>2026-09-01T19:57:30Z</time>
  <course>81.82</course>
  <speed>14.546106008138397</speed>
  <fix>3d</fix>
</trkpt>
<trkpt lat="-27.2737855" lon="151.290074">
  <ele>374.96</ele>
  <time>2026-09-01T19:57:30Z</time>
  <course>84.61</course>
  <speed>13.34</speed>
  <fix>3d</fix>
</trkpt>
<trkpt lat="-27.2737785" lon="151.2901278">
  <ele>375.18</ele>
  <time>2026-09-01T19:57:30Z</time>
  <course>80.5</course>
  <speed>14.977546528053251</speed>
  <fix>3d</fix>
</trkpt>
<trkpt lat="-27.2737825" lon="151.2901017">
  <ele>374.95</ele>
  <time>2026-09-01T19:57:30Z</time>
  <course>81.69</course>
  <speed>14.24</speed>
  <fix>3d</fix>
</trkpt>
<trkpt lat="-27.2737758" lon="151.2901428">
  <ele>375.18</ele>
  <time>2026-09-01T19:57:30Z</time>
  <course>79.17</course>
  <speed>15.388011567450812</speed>
  <fix>3d</fix>
</trkpt>
<trkpt lat="-27.2737825" lon="151.2901017">
  <ele>374.95</ele>
  <time>2026-09-01T19:57:30Z</time>
  <course>81.69</course>
  <speed>14.24</speed>
  <fix>3d</fix>
</trkpt>
<trkpt lat="-27.2737727" lon="151.2901582">
  <ele>375.17</ele>
  <time>2026-09-01T19:57:30Z</time>
  <course>77.94</course>
  <speed>15.799053769134403</speed>
  <fix>3d</fix>
</trkpt>
<trkpt lat="-27.2737781" lon="151.2901309">
  <ele>374.94</ele>
  <time>2026-09-01T19:57:30Z</time>
  <course>78.89</course>
  <speed>15.11</speed>
  <fix>3d</fix>
</trkpt>
<trkpt lat="-27.2737692" lon="151.290174">
  <ele>375.17</ele>
  <time>2026-09-01T19:57:30Z</time>
  <course>76.68</course>
  <speed>16.188946846536993</speed>
  <fix>3d</fix>
</trkpt>
<trkpt lat="-27.2737781" lon="151.2901309">
  <ele>374.94</ele>
  <time>2026-09-01T19:57:30Z</time>
  <course>78.89</course>
  <speed>15.11</speed>
  <fix>3d</fix>
</trkpt>
<trkpt lat="-27.2737652" lon="151.2901899">
  <ele>375.15</ele>
  <time>2026-09-01T19:57:30Z</time>
  <course>75.39</course>
  <speed>16.55760852297215</speed>
  <fix>3d</fix>
</trkpt>
<trkpt lat="-27.273772" lon="151.2901616">
  <ele>374.93</ele>
  <time>2026-09-01T19:57:30Z</time>
  <course>76.22</course>
  <speed>15.93</speed>
  <fix>3d</fix>
</trkpt>
<trkpt lat="-27.2737609" lon="151.2902062">
  <ele>375.14</ele>
  <time>2026-09-01T19:57:30Z</time>
  <course>74.18</course>
  <speed>16.927120251241792</speed>
  <fix>3d</fix>
</trkpt>
<trkpt lat="-27.273772" lon="151.2901616">
  <ele>374.93</ele>
  <time>2026-09-01T19:57:30Z</time>
  <course>76.22</course>
  <speed>15.93</speed>
  <fix>3d</fix>
</trkpt>
<trkpt lat="-27.2737562" lon="151.2902227">
  <ele>375.12</ele>
  <time>2026-09-01T19:57:30Z</time>
  <course>73.09</course>
  <speed>17.288299511519345</speed>
  <fix>3d</fix>
</trkpt>
<trkpt lat="-27.2737644" lon="151.2901934">
  <ele>374.91</ele>
  <time>2026-09-01T19:57:30Z</time>
  <course>73.69</course>
  <speed>16.7</speed>
  <fix>3d</fix>
</trkpt>
<trkpt lat="-27.273751" lon="151.2902394">
  <ele>375.1</ele>
  <time>2026-09-01T19:57:30Z</time>
  <course>71.94</course>
  <speed>17.632254535367846</speed>
  <fix>3d</fix>
</trkpt>
<trkpt lat="-27.2737644" lon="151.2901934">
  <ele>374.91</ele>
  <time>2026-09-01T19:57:30Z</time>
  <course>73.69</course>
  <speed>16.7</speed>
  <fix>3d</fix>
</trkpt>
<trkpt lat="-27.2737454" lon="151.2902564">
  <ele>375.08</ele>
  <time>2026-09-01T19:57:30Z</time>
  <course>70.88</course>
  <speed>17.961881861319544</speed>
  <fix>3d</fix>
</trkpt>
<trkpt lat="-27.2737551" lon="151.2902264">
  <ele>374.88</ele>
  <time>2026-09-01T19:57:30Z</time>
  <course>71.23</course>
  <speed>17.42</speed>
  <fix>3d</fix>
</trkpt>
<trkpt lat="-27.2737394" lon="151.2902735">
  <ele>375.06</ele>
  <time>2026-09-01T19:57:30Z</time>
  <course>69.62</course>
  <speed>18.278722603070488</speed>
  <fix>3d</fix>
</trkpt>
<trkpt lat="-27.2737551" lon="151.2902264">
  <ele>374.88</ele>
  <time>2026-09-01T19:57:30Z</time>
  <course>71.23</course>
  <speed>17.42</speed>
  <fix>3d</fix>
</trkpt>
<trkpt lat="-27.2737329" lon="151.2902907">
  <ele>375.04</ele>
  <time>2026-09-01T19:57:30Z</time>
  <course>68.23</course>
  <speed>18.5934181903167</speed>
  <fix>3d</fix>
</trkpt>
<trkpt lat="-27.2737442" lon="151.2902602">
  <ele>374.84</ele>
  <time>2026-09-01T19:57:30Z</time>
  <course>68.8</course>
  <speed>18.1</speed>
  <fix>3d</fix>
</trkpt>
<trkpt lat="-27.273726" lon="151.2903081">
  <ele>375.03</ele>
  <time>2026-09-01T19:57:30Z</time>
  <course>66.75</course>
  <speed>18.884898728878586</speed>
  <fix>3d</fix>
</trkpt>
<trkpt lat="-27.2737442" lon="151.2902602">
  <ele>374.84</ele>
  <time>2026-09-01T19:57:30Z</time>
  <course>68.8</course>
  <speed>18.1</speed>
  <fix>3d</fix>
</trkpt>
<trkpt lat="-27.2737186" lon="151.2903255">
  <ele>375.02</ele>
  <time>2026-09-01T19:57:30Z</time>
  <course>65.21</course>
  <speed>19.167743737852923</speed>
  <fix>3d</fix>
</trkpt>
<trkpt lat="-27.2737316" lon="151.2902946">
  <ele>374.81</ele>
  <time>2026-09-01T19:57:30Z</time>
  <course>66.29</course>
  <speed>18.72</speed>
  <fix>3d</fix>
</trkpt>
<trkpt lat="-27.2737107" lon="151.290343">
  <ele>375.0</ele>
  <time>2026-09-01T19:57:30Z</time>
  <course>63.56</course>
  <speed>19.454256603633045</speed>
  <fix>3d</fix>
</trkpt>
<trkpt lat="-27.2737316" lon="151.2902946">
  <ele>374.81</ele>
  <time>2026-09-01T19:57:30Z</time>
  <course>66.29</course>
  <speed>18.72</speed>
  <fix>3d</fix>
</trkpt>
<trkpt lat="-27.2737023" lon="151.2903605">
  <ele>375.0</ele>
  <time>2026-09-01T19:57:30Z</time>
  <course>61.81</course>
  <speed>19.721663215864933</speed>
  <fix>3d</fix>
</trkpt>
<trkpt lat="-27.2737171" lon="151.2903294">
  <ele>374.78</ele>
  <time>2026-09-01T19:57:30Z</time>
  <course>63.53</course>
  <speed>19.3</speed>
  <fix>3d</fix>
</trkpt>
<trkpt lat="-27.2736932" lon="151.2903779">
  <ele>374.99</ele>
  <time>2026-09-01T19:57:30Z</time>
  <course>59.98</course>
  <speed>19.978220641488573</speed>
  <fix>3d</fix>
</trkpt>
<trkpt lat="-27.2737171" lon="151.2903294">
  <ele>374.78</ele>
  <time>2026-09-01T19:57:30Z</time>
  <course>63.53</course>
  <speed>19.3</speed>
  <fix>3d</fix>
</trkpt>
<trkpt lat="-27.2736836" lon="151.2903952">
  <ele>374.99</ele>
  <time>2026-09-01T19:57:30Z</time>
  <course>58.13</course>
  <speed>20.225053770015048</speed>
  <fix>3d</fix>
</trkpt>
<trkpt lat="-27.2737006" lon="151.2903643">
  <ele>374.77</ele>
  <time>2026-09-01T19:57:30Z</time>
  <course>60.35</course>
  <speed>19.83</speed>
  <fix>3d</fix>
</trkpt>
<trkpt lat="-27.2736733" lon="151.2904122">
  <ele>374.99</ele>
  <time>2026-09-01T19:57:30Z</time>
  <course>56.19</course>
  <speed>20.46216508583586</speed>
  <fix>3d</fix>
</trkpt>
<trkpt lat="-27.2737006" lon="151.2903643">
  <ele>374.77</ele>
  <time>2026-09-01T19:57:30Z</time>
  <course>60.35</course>
  <speed>19.83</speed>
  <fix>3d</fix>
</trkpt>
<trkpt lat="-27.2736624" lon="151.2904291">
  <ele>374.99</ele>
  <time>2026-09-01T19:57:30Z</time>
  <course>54.14</course>
  <speed>20.690698393239412</speed>
  <fix>3d</fix>
</trkpt>
<trkpt lat="-27.2736818" lon="151.2903989">
  <ele>374.76</ele>
  <time>2026-09-01T19:57:30Z</time>
  <course>56.69</course>
  <speed>20.33</speed>
  <fix>3d</fix>
</trkpt>
<trkpt lat="-27.2736508" lon="151.2904456">
  <ele>375.0</ele>
  <time>2026-09-01T19:57:30Z</time>
  <course>52.04</course>
  <speed>20.912508218767066</speed>
  <fix>3d</fix>
</trkpt>
<trkpt lat="-27.2736818" lon="151.2903989">
  <ele>374.76</ele>
  <time>2026-09-01T19:57:30Z</time>
  <course>56.69</course>
  <speed>20.33</speed>
  <fix>3d</fix>
</trkpt>
<trkpt lat="-27.2736386" lon="151.2904617">
  <ele>375.01</ele>
  <time>2026-09-01T19:57:30Z</time>
  <course>49.93</course>
  <speed>21.126819448274745</speed>
  <fix>3d</fix>
</trkpt>
<trkpt lat="-27.2736604" lon="151.2904328">
  <ele>374.77</ele>
  <time>2026-09-01T19:57:30Z</time>
  <course>52.6</course>
  <speed>20.78</speed>
  <fix>3d</fix>
</trkpt>
<trkpt lat="-27.2736256" lon="151.2904776">
  <ele>375.03</ele>
  <time>2026-09-01T19:57:30Z</time>
  <course>47.77</course>
  <speed>21.34341116129285</speed>
  <fix>3d</fix>
</trkpt>
<trkpt lat="-27.2736604" lon="151.2904328">
  <ele>374.77</ele>
  <time>2026-09-01T19:57:30Z</time>
  <course>52.6</course>
  <speed>20.78</speed>
  <fix>3d</fix>
</trkpt>
<trkpt lat="-27.273612" lon="151.290493">
  <ele>375.04</ele>
  <time>2026-09-01T19:57:30Z</time>
  <course>45.51</course>
  <speed>21.544488854461132</speed>
  <fix>3d</fix>
</trkpt>
<trkpt lat="-27.2736364" lon="151.2904655">
  <ele>374.79</ele>
  <time>2026-09-01T19:57:30Z</time>
  <course>48.2</course>
  <speed>21.2</speed>
  <fix>3d</fix>
</trkpt>
<trkpt lat="-27.2735976" lon="151.2905079">
  <ele>375.07</ele>
  <time>2026-09-01T19:57:30Z</time>
  <course>43.26</course>
  <speed>21.746680206413117</speed>
  <fix>3d</fix>
</trkpt>
<trkpt lat="-27.2736364" lon="151.2904655">
  <ele>374.79</ele>
  <time>2026-09-01T19:57:30Z</time>
  <course>48.2</course>
  <speed>21.2</speed>
  <fix>3d</fix>
</trkpt>
<trkpt lat="-27.2735825" lon="151.2905224">
  <ele>375.09</ele>
  <time>2026-09-01T19:57:30Z</time>
  <course>41.09</course>
  <speed>21.944224752768097</speed>
  <fix>3d</fix>
</trkpt>
<trkpt lat="-27.2736096" lon="151.2904965">
  <ele>374.83</ele>
  <time>2026-09-01T19:57:30Z</time>
  <course>43.61</course>
  <speed>21.59</speed>
  <fix>3d</fix>
</trkpt>
<trkpt lat="-27.2735668" lon="151.2905361">
  <ele>375.11</ele>
  <time>2026-09-01T19:57:30Z</time>
  <course>38.94</course>
  <speed>22.122244461175274</speed>
  <fix>3d</fix>
</trkpt>
<trkpt lat="-27.2736096" lon="151.2904965">
  <ele>374.83</ele>
  <time>2026-09-01T19:57:30Z</time>
  <course>43.61</course>
  <speed>21.59</speed>
  <fix>3d</fix>
</trkpt>
<trkpt lat="-27.2735506" lon="151.2905493">
  <ele>375.14</ele>
  <time>2026-09-01T19:57:30Z</time>
  <course>36.83</course>
  <speed>22.291994078592428</speed>
  <fix>3d</fix>
</trkpt>
<trkpt lat="-27.2735802" lon="151.2905256">
  <ele>374.89</ele>
  <time>2026-09-01T19:57:30Z</time>
  <course>38.94</course>
  <speed>21.96</speed>
  <fix>3d</fix>
</trkpt>
<trkpt lat="-27.2735338" lon="151.2905618">
  <ele>375.17</ele>
  <time>2026-09-01T19:57:30Z</time>
  <course>34.72</course>
  <speed>22.465629303449305</speed>
  <fix>3d</fix>
</trkpt>
<trkpt lat="-27.2735802" lon="151.2905256">
  <ele>374.89</ele>
  <time>2026-09-01T19:57:30Z</time>
  <course>38.94</course>
  <speed>21.96</speed>
  <fix>3d</fix>
</trkpt>
<trkpt lat="-27.2735166" lon="151.2905736">
  <ele>375.21</ele>
  <time>2026-09-01T19:57:30Z</time>
  <course>32.63</course>
  <speed>22.614119483190144</speed>
  <fix>3d</fix>
</trkpt>
<trkpt lat="-27.2735483" lon="151.2905523">
  <ele>374.95</ele>
  <time>2026-09-01T19:57:30Z</time>
  <course>34.33</course>
  <speed>22.3</speed>
  <fix>3d</fix>
</trkpt>
<trkpt lat="-27.2734988" lon="151.2905848">
  <ele>375.24</ele>
  <time>2026-09-01T19:57:30Z</time>
  <course>30.59</course>
  <speed>22.768486994089002</speed>
  <fix>3d</fix>
</trkpt>
<trkpt lat="-27.2735483" lon="151.2905523">
  <ele>374.95</ele>
  <time>2026-09-01T19:57:30Z</time>
  <course>34.33</course>
  <speed>22.3</speed>
  <fix>3d</fix>
</trkpt>
<trkpt lat="-27.2734807" lon="151.2905952">
  <ele>375.28</ele>
  <time>2026-09-01T19:57:30Z</time>
  <course>28.61</course>
  <speed>22.908480962298658</speed>
  <fix>3d</fix>
</trkpt>
<trkpt lat="-27.273514" lon="151.2905764">
  <ele>375.02</ele>
  <time>2026-09-01T19:57:30Z</time>
  <course>29.9</course>
  <speed>22.61</speed>
  <fix>3d</fix>
</trkpt>
<trkpt lat="-27.2734621" lon="151.290605">
  <ele>375.32</ele>
  <time>2026-09-01T19:57:30Z</time>
  <course>26.66</course>
  <speed>23.041408377093617</speed>
  <fix>3d</fix>
</trkpt>
<trkpt lat="-27.273514" lon="151.2905764">
  <ele>375.02</ele>
  <time>2026-09-01T19:57:30Z</time>
  <course>29.9</course>
  <speed>22.61</speed>
  <fix>3d</fix>
</trkpt>
<trkpt lat="-27.2734432" lon="151.2906141">
  <ele>375.35</ele>
  <time>2026-09-01T19:57:30Z</time>
  <course>24.77</course>
  <speed>23.15992443856413</speed>
  <fix>3d</fix>
</trkpt>
<trkpt lat="-27.2734779" lon="151.2905979">
  <ele>375.1</ele>
  <time>2026-09-01T19:57:30Z</time>
  <course>25.71</course>
  <speed>22.9</speed>
  <fix>3d</fix>
</trkpt>
<trkpt lat="-27.2734238" lon="151.2906225">
  <ele>375.39</ele>
  <time>2026-09-01T19:57:30Z</time>
  <course>22.98</course>
  <speed>23.266725167070675</speed>
  <fix>3d</fix>
</trkpt>
<trkpt lat="-27.2734779" lon="151.2905979">
  <ele>375.1</ele>
  <time>2026-09-01T19:57:30Z</time>
  <course>25.71</course>
  <speed>22.9</speed>
  <fix>3d</fix>
</trkpt>
<trkpt lat="-27.2734041" lon="151.2906303">
  <ele>375.42</ele>
  <time>2026-09-01T19:57:30Z</time>
  <course>21.28</course>
  <speed>23.388424487339886</speed>
  <fix>3d</fix>
</trkpt>
<trkpt lat="-27.27344" lon="151.2906166">
  <ele>375.18</ele>
  <time>2026-09-01T19:57:30Z</time>
  <course>21.76</course>
  <speed>23.16</speed>
  <fix>3d</fix>
</trkpt>
<trkpt lat="-27.273384" lon="151.2906375">
  <ele>375.45</ele>
  <time>2026-09-01T19:57:30Z</time>
  <course>19.71</course>
  <speed>23.509019545697775</speed>
  <fix>3d</fix>
</trkpt>
<trkpt lat="-27.27344" lon="151.2906166">
  <ele>375.18</ele>
  <time>2026-09-01T19:57:30Z</time>
  <course>21.76</course>
  <speed>23.16</speed>
  <fix>3d</fix>
</trkpt>
<trkpt lat="-27.2733636" lon="151.2906441">
  <ele>375.48</ele>
  <time>2026-09-01T19:57:30Z</time>
  <course>18.2</course>
  <speed>23.61607079935187</speed>
  <fix>3d</fix>
</trkpt>
<trkpt lat="-27.2734006" lon="151.2906326">
  <ele>375.25</ele>
  <time>2026-09-01T19:57:30Z</time>
  <course>18.12</course>
  <speed>23.39</speed>
  <fix>3d</fix>
</trkpt>
<trkpt lat="-27.2733429" lon="151.29065">
  <ele>375.5</ele>
  <time>2026-09-01T19:57:30Z</time>
  <course>16.72</course>
  <speed>23.723964677093917</speed>
  <fix>3d</fix>
</trkpt>
<trkpt lat="-27.2734006" lon="151.2906326">
  <ele>375.25</ele>
  <time>2026-09-01T19:57:30Z</time>
  <course>18.12</course>
  <speed>23.39</speed>
  <fix>3d</fix>
</trkpt>
<trkpt lat="-27.273322" lon="151.2906554">
  <ele>375.51</ele>
  <time>2026-09-01T19:57:30Z</time>
  <course>15.32</course>
  <speed>23.82770866029715</speed>
  <fix>3d</fix>
</trkpt>
<trkpt lat="-27.2733602" lon="151.2906461">
  <ele>375.31</ele>
  <time>2026-09-01T19:57:30Z</time>
  <course>14.82</course>
  <speed>23.6</speed>
  <fix>3d</fix>
</trkpt>
<trkpt lat="-27.2733009" lon="151.2906602">
  <ele>375.53</ele>
  <time>2026-09-01T19:57:30Z</time>
  <course>14.06</course>
  <speed>23.918196002207193</speed>
  <fix>3d</fix>
</trkpt>
<trkpt lat="-27.2733602" lon="151.2906461">
  <ele>375.31</ele>
  <time>2026-09-01T19:57:30Z</time>
  <course>14.82</course>
  <speed>23.6</speed>
  <fix>3d</fix>
</trkpt>
<trkpt lat="-27.2732796" lon="151.2906645">
  <ele>375.54</ele>
  <time>2026-09-01T19:57:30Z</time>
  <course>12.77</course>
  <speed>24.008875442219278</speed>
  <fix>3d</fix>
</trkpt>
<trkpt lat="-27.2733188" lon="151.2906571">
  <ele>375.36</ele>
  <time>2026-09-01T19:57:30Z</time>
  <course>11.85</course>
  <speed>23.8</speed>
  <fix>3d</fix>
</trkpt>
<trkpt lat="-27.2732582" lon="151.2906683">
  <ele>375.55</ele>
  <time>2026-09-01T19:57:30Z</time>
  <course>11.56</course>
  <speed>24.09395982398908</speed>
  <fix>3d</fix>
</trkpt>
<trkpt lat="-27.2733188" lon="151.2906571">
  <ele>375.36</ele>
  <time>2026-09-01T19:57:30Z</time>
  <course>11.85</course>
  <speed>23.8</speed>
  <fix>3d</fix>
</trkpt>
<trkpt lat="-27.2732367" lon="151.2906716">
  <ele>375.55</ele>
  <time>2026-09-01T19:57:30Z</time>
  <course>10.42</course>
  <speed>24.171919658976197</speed>
  <fix>3d</fix>
</trkpt>
<trkpt lat="-27.2732766" lon="151.2906659">
  <ele>375.39</ele>
  <time>2026-09-01T19:57:30Z</time>
  <course>9.22</course>
  <speed>23.96</speed>
  <fix>3d</fix>
</trkpt>
<trkpt lat="-27.273215" lon="151.2906745">
  <ele>375.55</ele>
  <time>2026-09-01T19:57:30Z</time>
  <course>9.36</course>
  <speed>24.242380246172196</speed>
  <fix>3d</fix>
</trkpt>
<trkpt lat="-27.2732766" lon="151.2906659">
  <ele>375.39</ele>
  <time>2026-09-01T19:57:30Z</time>
  <course>9.22</course>
  <speed>23.96</speed>
  <fix>3d</fix>
</trkpt>
<trkpt lat="-27.2731933" lon="151.2906769">
  <ele>375.55</ele>
  <time>2026-09-01T19:57:30Z</time>
  <course>8.36</course>
  <speed>24.30351826382345</speed>
  <fix>3d</fix>
</trkpt>
<trkpt lat="-27.2732339" lon="151.2906726">
  <ele>375.41</ele>
  <time>2026-09-01T19:57:30Z</time>
  <course>6.9</course>
  <speed>24.11</speed>
  <fix>3d</fix>
</trkpt>
<trkpt lat="-27.2731713" lon="151.2906789">
  <ele>375.55</ele>
  <time>2026-09-01T19:57:30Z</time>
  <course>7.38</course>
  <speed>24.362216647916092</speed>
  <fix>3d</fix>
</trkpt>
<trkpt lat="-27.2732339" lon="151.2906726">
  <ele>375.41</ele>
  <time>2026-09-01T19:57:30Z</time>
  <course>6.9</course>
  <speed>24.11</speed>
  <fix>3d</fix>
</trkpt>
<trkpt lat="-27.2731496" lon="151.2906805">
  <ele>375.54</ele>
  <time>2026-09-01T19:57:30Z</time>
  <course>6.45</course>
  <speed>24.409608763763504</speed>
  <fix>3d</fix>
</trkpt>
<trkpt lat="-27.2731907" lon="151.2906777">
  <ele>375.42</ele>
  <time>2026-09-01T19:57:30Z</time>
  <course>4.87</course>
  <speed>24.24</speed>
  <fix>3d</fix>
</trkpt>
<trkpt lat="-27.2731278" lon="151.2906818">
  <ele>375.54</ele>
  <time>2026-09-01T19:57:30Z</time>
  <course>5.61</course>
  <speed>24.452985502796995</speed>
  <fix>3d</fix>
</trkpt>
<trkpt lat="-27.2731907" lon="151.2906777">
  <ele>375.42</ele>
  <time>2026-09-01T19:57:30Z</time>
  <course>4.87</course>
  <speed>24.24</speed>
  <fix>3d</fix>
</trkpt>
<trkpt lat="-27.273106" lon="151.2906827">
  <ele>375.53</ele>
  <time>2026-09-01T19:57:30Z</time>
  <course>4.83</course>
  <speed>24.49179454429585</speed>
  <fix>3d</fix>
</trkpt>
<trkpt lat="-27.2731471" lon="151.290681">
  <ele>375.41</ele>
  <time>2026-09-01T19:57:30Z</time>
  <course>3.12</course>
  <speed>24.35</speed>
  <fix>3d</fix>
</trkpt>
<trkpt lat="-27.2730841" lon="151.2906833">
  <ele>375.52</ele>
  <time>2026-09-01T19:57:30Z</time>
  <course>4.07</course>
  <speed>24.53469584078841</speed>
  <fix>3d</fix>
</trkpt>
<trkpt lat="-27.2731471" lon="151.290681">
  <ele>375.41</ele>
  <time>2026-09-01T19:57:30Z</time>
  <course>3.12</course>
  <speed>24.35</speed>
  <fix>3d</fix>
</trkpt>
<trkpt lat="-27.2730622" lon="151.2906837">
  <ele>375.5</ele>
  <time>2026-09-01T19:57:30Z</time>
  <course>3.33</course>
  <speed>24.570984921243998</speed>
  <fix>3d</fix>
</trkpt>
<trkpt lat="-27.2731032" lon="151.290683">
  <ele>375.39</ele>
  <time>2026-09-01T19:57:30Z</time>
  <course>1.62</course>
  <speed>24.45</speed>
  <fix>3d</fix>
</trkpt>
<trkpt lat="-27.2730402" lon="151.2906838">
  <ele>375.49</ele>
  <time>2026-09-01T19:57:30Z</time>
  <course>2.66</course>
  <speed>24.61000203169435</speed>
  <fix>3d</fix>
</trkpt>
<trkpt lat="-27.2731032" lon="151.290683">
  <ele>375.39</ele>
  <time>2026-09-01T19:57:30Z</time>
  <course>1.62</course>
  <speed>24.45</speed>
  <fix>3d</fix>
</trkpt>
<trkpt lat="-27.273018" lon="151.2906837">
  <ele>375.47</ele>
  <time>2026-09-01T19:57:30Z</time>
  <course>2.02</course>
  <speed>24.65098172487254</speed>
  <fix>3d</fix>
</trkpt>
<trkpt lat="-27.2730591" lon="151.2906839">
  <ele>375.37</ele>
  <time>2026-09-01T19:57:30Z</time>
  <course>0.36</course>
  <speed>24.55</speed>
  <fix>3d</fix>
</trkpt>
<trkpt lat="-27.2729959" lon="151.2906835">
  <ele>375.45</ele>
  <time>2026-09-01T19:57:30Z</time>
  <course>1.42</course>
  <speed>24.693572038083108</speed>
  <fix>3d</fix>
</trkpt>
<trkpt lat="-27.2730591" lon="151.2906839">
  <ele>375.37</ele>
  <time>2026-09-01T19:57:30Z</time>
  <course>0.36</course>
  <speed>24.55</speed>
  <fix>3d</fix>
</trkpt>
<trkpt lat="-27.2729736" lon="151.2906829">
  <ele>375.44</ele>
  <time>2026-09-01T19:57:30Z</time>
  <course>0.9</course>
  <speed>24.737522107114934</speed>
  <fix>3d</fix>
</trkpt>
<trkpt lat="-27.2730149" lon="151.2906838">
  <ele>375.34</ele>
  <time>2026-09-01T19:57:30Z</time>
  <course>359.29</course>
  <speed>24.64</speed>
  <fix>3d</fix>
</trkpt>
<trkpt lat="-27.2729514" lon="151.2906822">
  <ele>375.42</ele>
  <time>2026-09-01T19:57:30Z</time>
  <course>0.43</course>
  <speed>24.772282898433076</speed>
  <fix>3d</fix>
</trkpt>
<trkpt lat="-27.2730149" lon="151.2906838">
  <ele>375.34</ele>
  <time>2026-09-01T19:57:30Z</time>
  <course>359.29</course>
  <speed>24.64</speed>
  <fix>3d</fix>
</trkpt>
<trkpt lat="-27.2729291" lon="151.2906813">
  <ele>375.4</ele>
  <time>2026-09-01T19:57:30Z</time>
  <course>0.0</course>
  <speed>24.817431373935538</speed>
  <fix>3d</fix>
</trkpt>
<trkpt lat="-27.2729706" lon="151.2906828">
  <ele>375.31</ele>
  <time>2026-09-01T19:57:30Z</time>
  <course>358.41</course>
  <speed>24.72</speed>
  <fix>3d</fix>
</trkpt>
<trkpt lat="-27.2729067" lon="151.2906803">
  <ele>375.38</ele>
  <time>2026-09-01T19:57:30Z</time>
  <course>359.57</course>
  <speed>24.85261555651638</speed>
  <fix>3d</fix>
</trkpt>
<trkpt lat="-27.2729706" lon="151.2906828">
  <ele>375.31</ele>
  <time>2026-09-01T19:57:30Z</time>
  <course>358.41</course>
  <speed>24.72</speed>
  <fix>3d</fix>
</trkpt>
<trkpt lat="-27.2728844" lon="151.2906791">
  <ele>375.36</ele>
  <time>2026-09-01T19:57:30Z</time>
  <course>359.2</course>
  <speed>24.88798907103585</speed>
  <fix>3d</fix>
</trkpt>
<trkpt lat="-27.2729261" lon="151.2906812">
  <ele>375.27</ele>
  <time>2026-09-01T19:57:30Z</time>
  <course>357.69</course>
  <speed>24.79</speed>
  <fix>3d</fix>
</trkpt>
<trkpt lat="-27.272862" lon="151.2906779">
  <ele>375.34</ele>
  <time>2026-09-01T19:57:30Z</time>
  <course>358.91</course>
  <speed>24.9228910843024</speed>
  <fix>3d</fix>
</trkpt>
<trkpt lat="-27.2729261" lon="151.2906812">
  <ele>375.27</ele>
  <time>2026-09-01T19:57:30Z</time>
  <course>357.69</course>
  <speed>24.79</speed>
  <fix>3d</fix>
</trkpt>
<trkpt lat="-27.2728396" lon="151.2906765">
  <ele>375.32</ele>
  <time>2026-09-01T19:57:30Z</time>
  <course>358.7</course>
  <speed>24.957630095824403</speed>
  <fix>3d</fix>
</trkpt>
<trkpt lat="-27.2728816" lon="151.2906789">
  <ele>375.24</ele>
  <time>2026-09-01T19:57:30Z</time>
  <course>357.13</course>
  <speed>24.87</speed>
  <fix>3d</fix>
</trkpt>
<trkpt lat="-27.2728172" lon="151.2906751">
  <ele>375.31</ele>
  <time>2026-09-01T19:57:30Z</time>
  <course>358.46</course>
  <speed>24.98153718248739</speed>
  <fix>3d</fix>
</trkpt>
<trkpt lat="-27.2728816" lon="151.2906789">
  <ele>375.24</ele>
  <time>2026-09-01T19:57:30Z</time>
  <course>357.13</course>
  <speed>24.87</speed>
  <fix>3d</fix>
</trkpt>
<trkpt lat="-27.2727947" lon="151.2906736">
  <ele>375.29</ele>
  <time>2026-09-01T19:57:30Z</time>
  <course>358.18</course>
  <speed>25.015013491901218</speed>
  <fix>3d</fix>
</trkpt>
<trkpt lat="-27.2728369" lon="151.2906762">
  <ele>375.21</ele>
  <time>2026-09-01T19:57:30Z</time>
  <course>356.71</course>
  <speed>24.93</speed>
  <fix>3d</fix>
</trkpt>
<trkpt lat="-27.2727723" lon="151.290672">
  <ele>375.27</ele>
  <time>2026-09-01T19:57:30Z</time>
  <course>358.0</course>
  <speed>25.048003912487715</speed>
  <fix>3d</fix>
</trkpt>
<trkpt lat="-27.2728369" lon="151.2906762">
  <ele>375.21</ele>
  <time>2026-09-01T19:57:30Z</time>
  <course>356.71</course>
  <speed>24.93</speed>
  <fix>3d</fix>
</trkpt>
<trkpt lat="-27.2727498" lon="151.2906704">
  <ele>375.23</ele>
  <time>2026-09-01T19:57:30Z</time>
  <course>357.87</course>
  <speed>25.06858591943311</speed>
  <fix>3d</fix>
</trkpt>
<trkpt lat="-27.2727922" lon="151.2906732">
  <ele>375.18</ele>
  <time>2026-09-01T19:57:30Z</time>
  <course>356.43</course>
  <speed>25.0</speed>
  <fix>3d</fix>
</trkpt>
<trkpt lat="-27.2727273" lon="151.2906688">
  <ele>375.17</ele>
  <time>2026-09-01T19:57:30Z</time>
  <course>357.72</course>
  <speed>25.08854718791026</speed>
  <fix>3d</fix>
</trkpt>
<trkpt lat="-27.2727922" lon="151.2906732">
  <ele>375.18</ele>
  <time>2026-09-01T19:57:30Z</time>
  <course>356.43</course>
  <speed>25.0</speed>
  <fix>3d</fix>
</trkpt>
<trkpt lat="-27.2727051" lon="151.2906672">
  <ele>375.1</ele>
  <time>2026-09-01T19:57:30Z</time>
  <course>357.5</course>
  <speed>25.107889198417297</speed>
  <fix>3d</fix>
</trkpt>
<trkpt lat="-27.2727473" lon="151.2906699">
  <ele>375.12</ele>
  <time>2026-09-01T19:57:30Z</time>
  <course>356.32</course>
  <speed>25.06</speed>
  <fix>3d</fix>
</trkpt>
<trkpt lat="-27.2726827" lon="151.2906656">
  <ele>375.01</ele>
  <time>2026-09-01T19:57:30Z</time>
  <course>357.35</course>
  <speed>25.12723621889204</speed>
  <fix>3d</fix>
</trkpt>
<trkpt lat="-27.2727473" lon="151.2906699">
  <ele>375.12</ele>
  <time>2026-09-01T19:57:30Z</time>
  <course>356.32</course>
  <speed>25.06</speed>
  <fix>3d</fix>
</trkpt>
<trkpt lat="-27.2726603" lon="151.290664">
  <ele>374.92</ele>
  <time>2026-09-01T19:57:30Z</time>
  <course>357.24</course>
  <speed>25.146588237770942</speed>
  <fix>3d</fix>
</trkpt>
<trkpt lat="-27.2727024" lon="151.2906666">
  <ele>375.0</ele>
  <time>2026-09-01T19:57:30Z</time>
  <course>356.34</course>
  <speed>25.11</speed>
  <fix>3d</fix>
</trkpt>
<trkpt lat="-27.2726379" lon="151.2906625">
  <ele>374.81</ele>
  <time>2026-09-01T19:57:30Z</time>
  <course>357.21</course>
  <speed>25.15596350768541</speed>
  <fix>3d</fix>
</trkpt>
<trkpt lat="-27.2727024" lon="151.2906666">
  <ele>375.0</ele>
  <time>2026-09-01T19:57:30Z</time>
  <course>356.34</course>
  <speed>25.11</speed>
  <fix>3d</fix>
</trkpt>
<trkpt lat="-27.2726154" lon="151.2906609">
  <ele>374.68</ele>
  <time>2026-09-01T19:57:30Z</time>
  <course>357.25</course>
  <speed>25.135397351146054</speed>
  <fix>3d</fix>
</trkpt>
<trkpt lat="-27.2726572" lon="151.2906635">
  <ele>374.81</ele>
  <time>2026-09-01T19:57:30Z</time>
  <course>356.4</course>
  <speed>25.16</speed>
  <fix>3d</fix>
</trkpt>
<trkpt lat="-27.272593" lon="151.2906593">
  <ele>374.54</ele>
  <time>2026-09-01T19:57:30Z</time>
  <course>357.34</course>
  <speed>25.05494162834949</speed>
  <fix>3d</fix>
</trkpt>
<trkpt lat="-27.2726572" lon="151.2906635">
  <ele>374.81</ele>
  <time>2026-09-01T19:57:30Z</time>
  <course>356.4</course>
  <speed>25.16</speed>
  <fix>3d</fix>
</trkpt>
<trkpt lat="-27.2725706" lon="151.2906578">
  <ele>374.41</ele>
  <time>2026-09-01T19:57:30Z</time>
  <course>357.45</course>
  <speed>24.92398042047056</speed>
  <fix>3d</fix>
</trkpt>
<trkpt lat="-27.272612" lon="151.2906603">
  <ele>374.58</ele>
  <time>2026-09-01T19:57:30Z</time>
  <course>356.46</course>
  <speed>25.15</speed>
  <fix>3d</fix>
</trkpt>
<trkpt lat="-27.2725485" lon="151.2906563">
  <ele>374.35</ele>
  <time>2026-09-01T19:57:30Z</time>
  <course>357.47</course>
  <speed>24.683216970241137</speed>
  <fix>3d</fix>
</trkpt>
<trkpt lat="-27.272612" lon="151.2906603">
  <ele>374.58</ele>
  <time>2026-09-01T19:57:30Z</time>
  <course>356.46</course>
  <speed>25.15</speed>
  <fix>3d</fix>
</trkpt>
<trkpt lat="-27.2725265" lon="151.2906548">
  <ele>374.37</ele>
  <time>2026-09-01T19:57:30Z</time>
  <course>357.48</course>
  <speed>24.352611769582335</speed>
  <fix>3d</fix>
</trkpt>
<trkpt lat="-27.272567" lon="151.2906572">
  <ele>374.35</ele>
  <time>2026-09-01T19:57:30Z</time>
  <course>356.53</course>
  <speed>24.94</speed>
  <fix>3d</fix>
</trkpt>
<trkpt lat="-27.2725049" lon="151.2906533">
  <ele>374.46</ele>
  <time>2026-09-01T19:57:30Z</time>
  <course>357.48</course>
  <speed>23.921590666174357</speed>
  <fix>3d</fix>
</trkpt>
<trkpt lat="-27.272567" lon="151.2906572">
  <ele>374.35</ele>
  <time>2026-09-01T19:57:30Z</time>
  <course>356.53</course>
  <speed>24.94</speed>
  <fix>3d</fix>
</trkpt>
<trkpt lat="-27.2724835" lon="151.2906519">
  <ele>374.62</ele>
  <time>2026-09-01T19:57:30Z</time>
  <course>357.49</course>
  <speed>23.451230244914658</speed>
  <fix>3d</fix>
</trkpt>
<trkpt lat="-27.2725228" lon="151.2906542">
  <ele>374.31</ele>
  <time>2026-09-01T19:57:30Z</time>
  <course>356.61</course>
  <speed>24.4</speed>
  <fix>3d</fix>
</trkpt>
<trkpt lat="-27.2724627" lon="151.2906504">
  <ele>374.83</ele>
  <time>2026-09-01T19:57:30Z</time>
  <course>357.52</course>
  <speed>22.960313586708697</speed>
  <fix>3d</fix>
</trkpt>
<trkpt lat="-27.2725228" lon="151.2906542">
  <ele>374.31</ele>
  <time>2026-09-01T19:57:30Z</time>
  <course>356.61</course>
  <speed>24.4</speed>
  <fix>3d</fix>
</trkpt>
<trkpt lat="-27.2724422" lon="151.2906491">
  <ele>375.09</ele>
  <time>2026-09-01T19:57:30Z</time>
  <course>357.56</course>
  <speed>22.449432064085716</speed>
  <fix>3d</fix>
</trkpt>
<trkpt lat="-27.2724797" lon="151.2906514">
  <ele>374.55</ele>
  <time>2026-09-01T19:57:30Z</time>
  <course>356.67</course>
  <speed>23.55</speed>
  <fix>3d</fix>
</trkpt>
<trkpt lat="-27.2724221" lon="151.2906477">
  <ele>375.4</ele>
  <time>2026-09-01T19:57:30Z</time>
  <course>357.61</course>
  <speed>21.93855054464629</speed>
  <fix>3d</fix>
</trkpt>
<trkpt lat="-27.2724797" lon="151.2906514">
  <ele>374.55</ele>
  <time>2026-09-01T19:57:30Z</time>
  <course>356.67</course>
  <speed>23.55</speed>
  <fix>3d</fix>
</trkpt>
<trkpt lat="-27.2724025" lon="151.2906464">
  <ele>375.74</ele>
  <time>2026-09-01T19:57:30Z</time>
  <course>357.66</course>
  <speed>21.427078662290857</speed>
  <fix>3d</fix>
</trkpt>
<trkpt lat="-27.2724384" lon="151.2906487">
  <ele>375.03</ele>
  <time>2026-09-01T19:57:30Z</time>
  <course>356.74</course>
  <speed>22.57</speed>
  <fix>3d</fix>
</trkpt>
<trkpt lat="-27.2723834" lon="151.2906451">
  <ele>376.11</ele>
  <time>2026-09-01T19:57:30Z</time>
  <course>357.71</course>
  <speed>20.915611394362823</speed>
  <fix>3d</fix>
</trkpt>
<trkpt lat="-27.2724384" lon="151.2906487">
  <ele>375.03</ele>
  <time>2026-09-01T19:57:30Z</time>
  <course>356.74</course>
  <speed>22.57</speed>
  <fix>3d</fix>
</trkpt>
<trkpt lat="-27.2723647" lon="151.290644">
  <ele>376.5</ele>
  <time>2026-09-01T19:57:30Z</time>
  <course>357.76</course>
  <speed>20.40414908786936</speed>
  <fix>3d</fix>
</trkpt>
<trkpt lat="-27.2723988" lon="151.2906463">
  <ele>375.68</ele>
  <time>2026-09-01T19:57:30Z</time>
  <course>356.83</course>
  <speed>21.54</speed>
  <fix>3d</fix>
</trkpt>
<trkpt lat="-27.2723465" lon="151.2906428">
  <ele>376.92</ele>
  <time>2026-09-01T19:57:30Z</time>
  <course>357.82</course>
  <speed>19.892692125501767</speed>
  <fix>3d</fix>
</trkpt>
<trkpt lat="-27.2723988" lon="151.2906463">
  <ele>375.68</ele>
  <time>2026-09-01T19:57:30Z</time>
  <course>356.83</course>
  <speed>21.54</speed>
  <fix>3d</fix>
</trkpt>
<trkpt lat="-27.2723287" lon="151.2906417">
  <ele>377.35</ele>
  <time>2026-09-01T19:57:30Z</time>
  <course>357.88</course>
  <speed>19.370691779076967</speed>
  <fix>3d</fix>
</trkpt>
<trkpt lat="-27.2723611" lon="151.2906439">
  <ele>376.44</ele>
  <time>2026-09-01T19:57:30Z</time>
  <course>356.96</course>
  <speed>20.51</speed>
  <fix>3d</fix>
</trkpt>
<trkpt lat="-27.2723114" lon="151.2906407">
  <ele>377.81</ele>
  <time>2026-09-01T19:57:30Z</time>
  <course>357.95</course>
  <speed>18.858698258363432</speed>
  <fix>3d</fix>
</trkpt>
<trkpt lat="-27.2723611" lon="151.2906439">
  <ele>376.44</ele>
  <time>2026-09-01T19:57:30Z</time>
  <course>356.96</course>
  <speed>20.51</speed>
  <fix>3d</fix>
</trkpt>
<trkpt lat="-27.2722947" lon="151.2906397">
  <ele>378.27</ele>
  <time>2026-09-01T19:57:30Z</time>
  <course>358.02</course>
  <speed>18.33674453113202</speed>
  <fix>3d</fix>
</trkpt>
<trkpt lat="-27.2723252" lon="151.2906419">
  <ele>377.29</ele>
  <time>2026-09-01T19:57:30Z</time>
  <course>357.1</course>
  <speed>19.46</speed>
  <fix>3d</fix>
</trkpt>
<trkpt lat="-27.2722784" lon="151.2906388">
  <ele>378.75</ele>
  <time>2026-09-01T19:57:30Z</time>
  <course>358.1</course>
  <speed>17.805361552071894</speed>
  <fix>3d</fix>
</trkpt>
<trkpt lat="-27.2723252" lon="151.2906419">
  <ele>377.29</ele>
  <time>2026-09-01T19:57:30Z</time>
  <course>357.1</course>
  <speed>19.46</speed>
  <fix>3d</fix>
</trkpt>
<trkpt lat="-27.2722626" lon="151.290638">
  <ele>379.24</ele>
  <time>2026-09-01T19:57:30Z</time>
  <course>358.17</course>
  <speed>17.282930885703387</speed>
  <fix>3d</fix>
</trkpt>
<trkpt lat="-27.2722913" lon="151.29064">
  <ele>378.21</ele>
  <time>2026-09-01T19:57:30Z</time>
  <course>357.27</course>
  <speed>18.41</speed>
  <fix>3d</fix>
</trkpt>
<trkpt lat="-27.2722473" lon="151.2906372">
  <ele>379.74</ele>
  <time>2026-09-01T19:57:30Z</time>
  <course>358.25</course>
  <speed>16.741591919527842</speed>
  <fix>3d</fix>
</trkpt>
<trkpt lat="-27.2722913" lon="151.29064">
  <ele>378.21</ele>
  <time>2026-09-01T19:57:30Z</time>
  <course>357.27</course>
  <speed>18.41</speed>
  <fix>3d</fix>
</trkpt>
<trkpt lat="-27.2722325" lon="151.2906364">
  <ele>380.25</ele>
  <time>2026-09-01T19:57:30Z</time>
  <course>358.33</course>
  <speed>16.209753236863293</speed>
  <fix>3d</fix>
</trkpt>
<trkpt lat="-27.2722591" lon="151.2906383">
  <ele>379.18</ele>
  <time>2026-09-01T19:57:30Z</time>
  <course>357.45</course>
  <speed>17.35</speed>
  <fix>3d</fix>
</trkpt>
<trkpt lat="-27.272218" lon="151.2906357">
  <ele>380.77</ele>
  <time>2026-09-01T19:57:30Z</time>
  <course>358.42</course>
  <speed>15.667960939445823</speed>
  <fix>3d</fix>
</trkpt>
<trkpt lat="-27.2722591" lon="151.2906383">
  <ele>379.18</ele>
  <time>2026-09-01T19:57:30Z</time>
  <course>357.45</course>
  <speed>17.35</speed>
  <fix>3d</fix>
</trkpt>
<trkpt lat="-27.2722041" lon="151.2906351">
  <ele>381.29</ele>
  <time>2026-09-01T19:57:30Z</time>
  <course>358.5</course>
  <speed>15.13619503045597</speed>
  <fix>3d</fix>
</trkpt>
<trkpt lat="-27.2722289" lon="151.2906368">
  <ele>380.19</ele>
  <time>2026-09-01T19:57:30Z</time>
  <course>357.64</course>
  <speed>16.27</speed>
  <fix>3d</fix>
</trkpt>
<trkpt lat="-27.2721907" lon="151.2906345">
  <ele>381.81</ele>
  <time>2026-09-01T19:57:30Z</time>
  <course>358.59</course>
  <speed>14.604920403754345</speed>
  <fix>3d</fix>
</trkpt>
<trkpt lat="-27.2722289" lon="151.2906368">
  <ele>380.19</ele>
  <time>2026-09-01T19:57:30Z</time>
  <course>357.64</course>
  <speed>16.27</speed>
  <fix>3d</fix>
</trkpt>
<trkpt lat="-27.2721774" lon="151.290634">
  <ele>382.35</ele>
  <time>2026-09-01T19:57:30Z</time>
  <course>358.67</course>
  <speed>14.053245176826596</speed>
  <fix>3d</fix>
</trkpt>
<trkpt lat="-27.2722006" lon="151.2906355">
  <ele>381.22</ele>
  <time>2026-09-01T19:57:30Z</time>
  <course>357.84</course>
  <speed>15.2</speed>
  <fix>3d</fix>
</trkpt>
<trkpt lat="-27.272165" lon="151.2906335">
  <ele>382.88</ele>
  <time>2026-09-01T19:57:30Z</time>
  <course>358.76</course>
  <speed>13.522019080004288</speed>
  <fix>3d</fix>
</trkpt>
<trkpt lat="-27.2722006" lon="151.2906355">
  <ele>381.22</ele>
  <time>2026-09-01T19:57:30Z</time>
  <course>357.84</course>
  <speed>15.2</speed>
  <fix>3d</fix>
</trkpt>
<trkpt lat="-27.2721529" lon="151.290633">
  <ele>383.4</ele>
  <time>2026-09-01T19:57:30Z</time>
  <course>358.84</course>
  <speed>13.000807667218218</speed>
  <fix>3d</fix>
</trkpt>
<trkpt lat="-27.2721743" lon="151.2906345">
  <ele>382.26</ele>
  <time>2026-09-01T19:57:30Z</time>
  <course>358.03</course>
  <speed>14.12</speed>
  <fix>3d</fix>
</trkpt>
<trkpt lat="-27.2721414" lon="151.2906326">
  <ele>383.92</ele>
  <time>2026-09-01T19:57:30Z</time>
  <course>358.92</course>
  <speed>12.469631109218907</speed>
  <fix>3d</fix>
</trkpt>
<trkpt lat="-27.2721743" lon="151.2906345">
  <ele>382.26</ele>
  <time>2026-09-01T19:57:30Z</time>
  <course>358.03</course>
  <speed>14.12</speed>
  <fix>3d</fix>
</trkpt>
<trkpt lat="-27.2721302" lon="151.2906323">
  <ele>384.43</ele>
  <time>2026-09-01T19:57:30Z</time>
  <course>359.01</course>
  <speed>11.95846980177648</speed>
  <fix>3d</fix>
</trkpt>
<trkpt lat="-27.2721499" lon="151.2906337">
  <ele>383.29</ele>
  <time>2026-09-01T19:57:30Z</time>
  <course>358.24</course>
  <speed>13.05</speed>
  <fix>3d</fix>
</trkpt>
<trkpt lat="-27.2721198" lon="151.2906319">
  <ele>384.93</ele>
  <time>2026-09-01T19:57:30Z</time>
  <course>359.09</course>
  <speed>11.447344670271791</speed>
  <fix>3d</fix>
</trkpt>
<trkpt lat="-27.2721499" lon="151.2906337">
  <ele>383.29</ele>
  <time>2026-09-01T19:57:30Z</time>
  <course>358.24</course>
  <speed>13.05</speed>
  <fix>3d</fix>
</trkpt>
<trkpt lat="-27.2721095" lon="151.2906317">
  <ele>385.42</ele>
  <time>2026-09-01T19:57:30Z</time>
  <course>359.18</course>
  <speed>10.9462550673735</speed>
  <fix>3d</fix>
</trkpt>
<trkpt lat="-27.2721274" lon="151.2906329">
  <ele>384.31</ele>
  <time>2026-09-01T19:57:30Z</time>
  <course>358.44</course>
  <speed>11.99</speed>
  <fix>3d</fix>
</trkpt>
<trkpt lat="-27.2720997" lon="151.2906314">
  <ele>385.89</ele>
  <time>2026-09-01T19:57:30Z</time>
  <course>359.26</course>
  <speed>10.465524353800912</speed>
  <fix>3d</fix>
</trkpt>
<trkpt lat="-27.2721274" lon="151.2906329">
  <ele>384.31</ele>
  <time>2026-09-01T19:57:30Z</time>
  <course>358.44</course>
  <speed>11.99</speed>
  <fix>3d</fix>
</trkpt>
<trkpt lat="-27.2720904" lon="151.2906312">
  <ele>386.35</ele>
  <time>2026-09-01T19:57:30Z</time>
  <course>359.34</course>
  <speed>10.004803846153106</speed>
  <fix>3d</fix>
</trkpt>
<trkpt lat="-27.2721069" lon="151.2906323">
  <ele>385.28</ele>
  <time>2026-09-01T19:57:30Z</time>
  <course>358.66</course>
  <speed>10.96</speed>
  <fix>3d</fix>
</trkpt>
<trkpt lat="-27.2720815" lon="151.290631">
  <ele>386.78</ele>
  <time>2026-09-01T19:57:30Z</time>
  <course>359.42</course>
  <speed>9.574095257516504</speed>
  <fix>3d</fix>
</trkpt>
<trkpt lat="-27.2721069" lon="151.2906323">
  <ele>385.28</ele>
  <time>2026-09-01T19:57:30Z</time>
  <course>358.66</course>
  <speed>10.96</speed>
  <fix>3d</fix>
</trkpt>
<trkpt lat="-27.2720729" lon="151.2906309">
  <ele>387.19</ele>
  <time>2026-09-01T19:57:30Z</time>
  <course>359.5</course>
  <speed>9.163410936981927</speed>
  <fix>3d</fix>
</trkpt>
<trkpt lat="-27.2720881" lon="151.2906319">
  <ele>386.19</ele>
  <time>2026-09-01T19:57:30Z</time>
  <course>358.88</course>
  <speed>10.0</speed>
  <fix>3d</fix>
</trkpt>
<trkpt lat="-27.2720647" lon="151.2906307">
  <ele>387.56</ele>
  <time>2026-09-01T19:57:30Z</time>
  <course>359.58</course>
  <speed>8.762762121614394</speed>
  <fix>3d</fix>
</trkpt>
<trkpt lat="-27.2720881" lon="151.2906319">
  <ele>386.19</ele>
  <time>2026-09-01T19:57:30Z</time>
  <course>358.88</course>
  <speed>10.0</speed>
  <fix>3d</fix>
</trkpt>
<trkpt lat="-27.2720569" lon="151.2906306">
  <ele>387.91</ele>
  <time>2026-09-01T19:57:30Z</time>
  <course>359.66</course>
  <speed>8.392151094921969</speed>
  <fix>3d</fix>
</trkpt>
<trkpt lat="-27.2720709" lon="151.2906315">
  <ele>387.01</ele>
  <time>2026-09-01T19:57:30Z</time>
  <course>359.11</course>
  <speed>9.13</speed>
  <fix>3d</fix>
</trkpt>
<trkpt lat="-27.2720495" lon="151.2906305">
  <ele>388.22</ele>
  <time>2026-09-01T19:57:30Z</time>
  <course>359.74</course>
  <speed>8.04179706284609</speed>
  <fix>3d</fix>
</trkpt>
<trkpt lat="-27.2720709" lon="151.2906315">
  <ele>387.01</ele>
  <time>2026-09-01T19:57:30Z</time>
  <course>359.11</course>
  <speed>9.13</speed>
  <fix>3d</fix>
</trkpt>
<trkpt lat="-27.2720424" lon="151.2906305">
  <ele>388.5</ele>
  <time>2026-09-01T19:57:30Z</time>
  <course>359.83</course>
  <speed>7.701272622106037</speed>
  <fix>3d</fix>
</trkpt>
<trkpt lat="-27.2720551" lon="151.2906313">
  <ele>387.72</ele>
  <time>2026-09-01T19:57:30Z</time>
  <course>359.34</course>
  <speed>8.35</speed>
  <fix>3d</fix>
</trkpt>
<trkpt lat="-27.2720355" lon="151.2906304">
  <ele>388.75</ele>
  <time>2026-09-01T19:57:30Z</time>
  <course>359.91</course>
  <speed>7.380975545278551</speed>
  <fix>3d</fix>
</trkpt>
<trkpt lat="-27.2720551" lon="151.2906313">
  <ele>387.72</ele>
  <time>2026-09-01T19:57:30Z</time>
  <course>359.34</course>
  <speed>8.35</speed>
  <fix>3d</fix>
</trkpt>
<trkpt lat="-27.272029" lon="151.2906304">
  <ele>388.97</ele>
  <time>2026-09-01T19:57:30Z</time>
  <course>0.0</course>
  <speed>7.080706179471084</speed>
  <fix>3d</fix>
</trkpt>
<trkpt lat="-27.2720408" lon="151.2906311">
  <ele>388.31</ele>
  <time>2026-09-01T19:57:30Z</time>
  <course>359.59</course>
  <speed>7.65</speed>
  <fix>3d</fix>
</trkpt>
<trkpt lat="-27.2720227" lon="151.2906304">
  <ele>389.16</ele>
  <time>2026-09-01T19:57:30Z</time>
  <course>0.09</course>
  <speed>6.790471264941779</speed>
  <fix>3d</fix>
</trkpt>
<trkpt lat="-27.2720408" lon="151.2906311">
  <ele>388.31</ele>
  <time>2026-09-01T19:57:30Z</time>
  <course>359.59</course>
  <speed>7.65</speed>
  <fix>3d</fix>
</trkpt>
<trkpt lat="-27.2720167" lon="151.2906304">
  <ele>389.32</ele>
  <time>2026-09-01T19:57:30Z</time>
  <course>0.18</course>
  <speed>6.510192009457171</speed>
  <fix>3d</fix>
</trkpt>
<trkpt lat="-27.2720277" lon="151.290631">
  <ele>388.77</ele>
  <time>2026-09-01T19:57:30Z</time>
  <course>359.87</course>
  <speed>7.01</speed>
  <fix>3d</fix>
</trkpt>
<trkpt lat="-27.272011" lon="151.2906305">
  <ele>389.44</ele>
  <time>2026-09-01T19:57:30Z</time>
  <course>0.28</course>
  <speed>6.260071884571294</speed>
  <fix>3d</fix>
</trkpt>
<trkpt lat="-27.2720277" lon="151.290631">
  <ele>388.77</ele>
  <time>2026-09-01T19:57:30Z</time>
  <course>359.87</course>
  <speed>7.01</speed>
  <fix>3d</fix>
</trkpt>
<trkpt lat="-27.2720053" lon="151.2906305">
  <ele>389.53</ele>
  <time>2026-09-01T19:57:30Z</time>
  <course>0.38</course>
  <speed>6.020008305642111</speed>
  <fix>3d</fix>
</trkpt>
<trkpt lat="-27.2720156" lon="151.290631">
  <ele>389.1</ele>
  <time>2026-09-01T19:57:30Z</time>
  <course>0.17</course>
  <speed>6.45</speed>
  <fix>3d</fix>
</trkpt>
<trkpt lat="-27.2719999" lon="151.2906305">
  <ele>389.59</ele>
  <time>2026-09-01T19:57:30Z</time>
  <course>0.48</course>
  <speed>5.82</speed>
  <fix>3d</fix>
</trkpt>
<trkpt lat="-27.2720156" lon="151.290631">
  <ele>389.1</ele>
  <time>2026-09-01T19:57:30Z</time>
  <course>0.17</course>
  <speed>6.45</speed>
  <fix>3d</fix>
</trkpt>
<trkpt lat="-27.2719948" lon="151.2906306">
  <ele>389.6</ele>
  <time>2026-09-01T19:57:30Z</time>
  <course>0.59</course>
  <speed>5.64</speed>
  <fix>3d</fix>
</trkpt>
<trkpt lat="-27.2720044" lon="151.290631">
  <ele>389.31</ele>
  <time>2026-09-01T19:57:30Z</time>
  <course>0.5</course>
  <speed>5.96</speed>
  <fix>3d</fix>
</trkpt>
<trkpt lat="-27.2719898" lon="151.2906306">
  <ele>389.53</ele>
  <time>2026-09-01T19:57:30Z</time>
  <course>0.72</course>
  <speed>5.410009242136283</speed>
  <fix>3d</fix>
</trkpt>
<trkpt lat="-27.2720044" lon="151.290631">
  <ele>389.31</ele>
  <time>2026-09-01T19:57:30Z</time>
  <course>0.5</course>
  <speed>5.96</speed>
  <fix>3d</fix>
</trkpt>
<trkpt lat="-27.271985" lon="151.2906307">
  <ele>389.38</ele>
  <time>2026-09-01T19:57:30Z</time>
  <course>0.87</course>
  <speed>5.140009727617254</speed>
  <fix>3d</fix>
</trkpt>
<trkpt lat="-27.2719941" lon="151.2906312">
  <ele>389.36</ele>
  <time>2026-09-01T19:57:30Z</time>
  <course>0.73</course>
  <speed>5.53</speed>
  <fix>3d</fix>
</trkpt>
<trkpt lat="-27.2719806" lon="151.2906308">
  <ele>389.17</ele>
  <time>2026-09-01T19:57:30Z</time>
  <course>1.01</course>
  <speed>4.780041840821061</speed>
  <fix>3d</fix>
</trkpt>
<trkpt lat="-27.2719941" lon="151.2906312">
  <ele>389.36</ele>
  <time>2026-09-01T19:57:30Z</time>
  <course>0.73</course>
  <speed>5.53</speed>
  <fix>3d</fix>
</trkpt>
<trkpt lat="-27.2719764" lon="151.2906309">
  <ele>388.9</ele>
  <time>2026-09-01T19:57:30Z</time>
  <course>1.06</course>
  <speed>4.32010416541083</speed>
  <fix>3d</fix>
</trkpt>
<trkpt lat="-27.2719846" lon="151.2906313">
  <ele>389.15</ele>
  <time>2026-09-01T19:57:30Z</time>
  <course>0.87</course>
  <speed>5.01</speed>
  <fix>3d</fix>
</trkpt>
<trkpt lat="-27.2719728" lon="151.290631">
  <ele>388.6</ele>
  <time>2026-09-01T19:57:30Z</time>
  <course>1.04</course>
  <speed>3.8102099679676447</speed>
  <fix>3d</fix>
</trkpt>
<trkpt lat="-27.2719846" lon="151.2906313">
  <ele>389.15</ele>
  <time>2026-09-01T19:57:30Z</time>
  <course>0.87</course>
  <speed>5.01</speed>
  <fix>3d</fix>
</trkpt>
<trkpt lat="-27.2719696" lon="151.2906311">
  <ele>388.28</ele>
  <time>2026-09-01T19:57:30Z</time>
  <course>1.1</course>
  <speed>3.3003787661418498</speed>
  <fix>3d</fix>
</trkpt>
<trkpt lat="-27.2719763" lon="151.2906315">
  <ele>388.69</ele>
  <time>2026-09-01T19:57:30Z</time>
  <course>1.2</course>
  <speed>4.22</speed>
  <fix>3d</fix>
</trkpt>
<trkpt lat="-27.2719669" lon="151.2906312">
  <ele>387.95</ele>
  <time>2026-09-01T19:57:30Z</time>
  <course>1.29</course>
  <speed>2.840633732109791</speed>
  <fix>3d</fix>
</trkpt>
<trkpt lat="-27.2719763" lon="151.2906315">
  <ele>388.69</ele>
  <time>2026-09-01T19:57:30Z</time>
  <course>1.2</course>
  <speed>4.22</speed>
  <fix>3d</fix>
</trkpt>
<trkpt lat="-27.2719645" lon="151.2906313">
  <ele>387.63</ele>
  <time>2026-09-01T19:57:30Z</time>
  <course>1.53</course>
  <speed>2.4809877065394743</speed>
  <fix>3d</fix>
</trkpt>
<trkpt lat="-27.2719696" lon="151.2906317">
  <ele>388.09</ele>
  <time>2026-09-01T19:57:30Z</time>
  <course>1.88</course>
  <speed>3.25</speed>
  <fix>3d</fix>
</trkpt>
<trkpt lat="-27.2719624" lon="151.2906315">
  <ele>387.33</ele>
  <time>2026-09-01T19:57:30Z</time>
  <course>1.84</course>
  <speed>2.221440973782558</speed>
  <fix>3d</fix>
</trkpt>
<trkpt lat="-27.2719696" lon="151.2906317">
  <ele>388.09</ele>
  <time>2026-09-01T19:57:30Z</time>
  <course>1.88</course>
  <speed>3.25</speed>
  <fix>3d</fix>
</trkpt>
<trkpt lat="-27.2719605" lon="151.2906316">
  <ele>387.03</ele>
  <time>2026-09-01T19:57:30Z</time>
  <course>2.07</course>
  <speed>2.0719555979798407</speed>
  <fix>3d</fix>
</trkpt>
<trkpt lat="-27.2719645" lon="151.2906319">
  <ele>387.46</ele>
  <time>2026-09-01T19:57:30Z</time>
  <course>2.88</course>
  <speed>2.45</speed>
  <fix>3d</fix>
</trkpt>
<trkpt lat="-27.2719587" lon="151.2906318">
  <ele>386.76</ele>
  <time>2026-09-01T19:57:30Z</time>
  <course>2.27</course>
  <speed>2.0130076999355966</speed>
  <fix>3d</fix>
</trkpt>
<trkpt lat="-27.2719645" lon="151.2906319">
  <ele>387.46</ele>
  <time>2026-09-01T19:57:30Z</time>
  <course>2.88</course>
  <speed>2.45</speed>
  <fix>3d</fix>
</trkpt>
<trkpt lat="-27.271957" lon="151.2906319">
  <ele>386.49</ele>
  <time>2026-09-01T19:57:30Z</time>
  <course>2.42</course>
  <speed>2.064097865896867</speed>
  <fix>3d</fix>
</trkpt>
<trkpt lat="-27.2719605" lon="151.2906322">
  <ele>386.86</ele>
  <time>2026-09-01T19:57:30Z</time>
  <course>3.95</course>
  <speed>2.02</speed>
  <fix>3d</fix>
</trkpt>
<trkpt lat="-27.2719551" lon="151.2906321">
  <ele>386.25</ele>
  <time>2026-09-01T19:57:30Z</time>
  <course>2.44</course>
  <speed>2.1951309755912063</speed>
  <fix>3d</fix>
</trkpt>
<trkpt lat="-27.2719605" lon="151.2906322">
  <ele>386.86</ele>
  <time>2026-09-01T19:57:30Z</time>
  <course>3.95</course>
  <speed>2.02</speed>
  <fix>3d</fix>
</trkpt>
<trkpt lat="-27.2719531" lon="151.2906324">
  <ele>386.03</ele>
  <time>2026-09-01T19:57:30Z</time>
  <course>2.37</course>
  <speed>2.425963726027246</speed>
  <fix>3d</fix>
</trkpt>
<trkpt lat="-27.271957" lon="151.2906325">
  <ele>386.33</ele>
  <time>2026-09-01T19:57:30Z</time>
  <course>4.65</course>
  <speed>2.0</speed>
  <fix>3d</fix>
</trkpt>
<trkpt lat="-27.2719508" lon="151.2906326">
  <ele>385.82</ele>
  <time>2026-09-01T19:57:30Z</time>
  <course>2.38</course>
  <speed>2.7366037345585856</speed>
  <fix>3d</fix>
</trkpt>
<trkpt lat="-27.271957" lon="151.2906325">
  <ele>386.33</ele>
  <time>2026-09-01T19:57:30Z</time>
  <course>4.65</course>
  <speed>2.0</speed>
  <fix>3d</fix>
</trkpt>
<trkpt lat="-27.2719482" lon="151.2906328">
  <ele>385.64</ele>
  <time>2026-09-01T19:57:30Z</time>
  <course>2.29</course>
  <speed>3.097127701597078</speed>
  <fix>3d</fix>
</trkpt>
<trkpt lat="-27.2719531" lon="151.2906329">
  <ele>385.88</ele>
  <time>2026-09-01T19:57:30Z</time>
  <course>4.57</course>
  <speed>2.36</speed>
  <fix>3d</fix>
</trkpt>
<trkpt lat="-27.2719453" lon="151.2906331">
  <ele>385.47</ele>
  <time>2026-09-01T19:57:30Z</time>
  <course>2.17</course>
  <speed>3.4875922926855996</speed>
  <fix>3d</fix>
</trkpt>
<trkpt lat="-27.2719531" lon="151.2906329">
  <ele>385.88</ele>
  <time>2026-09-01T19:57:30Z</time>
  <course>4.57</course>
  <speed>2.36</speed>
  <fix>3d</fix>
</trkpt>
<trkpt lat="-27.2719421" lon="151.2906334">
  <ele>385.31</ele>
  <time>2026-09-01T19:57:30Z</time>
  <course>2.07</course>
  <speed>3.9179841755678395</speed>
  <fix>3d</fix>
</trkpt>
<trkpt lat="-27.2719483" lon="151.2906332">
  <ele>385.51</ele>
  <time>2026-09-01T19:57:30Z</time>
  <course>4.02</course>
  <speed>3.0</speed>
  <fix>3d</fix>
</trkpt>
<trkpt lat="-27.2719383" lon="151.2906337">
  <ele>385.18</ele>
  <time>2026-09-01T19:57:30Z</time>
  <course>1.96</course>
  <speed>4.467572047544393</speed>
  <fix>3d</fix>
</trkpt>
<trkpt lat="-27.2719483" lon="151.2906332">
  <ele>385.51</ele>
  <time>2026-09-01T19:57:30Z</time>
  <course>4.02</course>
  <speed>3.0</speed>
  <fix>3d</fix>
</trkpt>
<trkpt lat="-27.2719342" lon="151.290634">
  <ele>385.08</ele>
  <time>2026-09-01T19:57:30Z</time>
  <course>1.88</course>
  <speed>5.007284693324317</speed>
  <fix>3d</fix>
</trkpt>
<trkpt lat="-27.2719422" lon="151.2906337">
  <ele>385.21</ele>
  <time>2026-09-01T19:57:30Z</time>
  <course>3.33</course>
  <speed>3.85</speed>
  <fix>3d</fix>
</trkpt>
<trkpt lat="-27.2719295" lon="151.2906342">
  <ele>385.0</ele>
  <time>2026-09-01T19:57:30Z</time>
  <course>1.72</course>
  <speed>5.577033261510998</speed>
  <fix>3d</fix>
</trkpt>
<trkpt lat="-27.2719422" lon="151.2906337">
  <ele>385.21</ele>
  <time>2026-09-01T19:57:30Z</time>
  <course>3.33</course>
  <speed>3.85</speed>
  <fix>3d</fix>
</trkpt>
<trkpt lat="-27.2719243" lon="151.2906345">
  <ele>384.92</ele>
  <time>2026-09-01T19:57:30Z</time>
  <course>1.52</course>
  <speed>6.135943285265926</speed>
  <fix>3d</fix>
</trkpt>
<trkpt lat="-27.2719344" lon="151.2906342">
  <ele>384.99</ele>
  <time>2026-09-01T19:57:30Z</time>
  <course>2.67</course>
  <speed>4.89</speed>
  <fix>3d</fix>
</trkpt>
<trkpt lat="-27.2719187" lon="151.2906348">
  <ele>384.85</ele>
  <time>2026-09-01T19:57:30Z</time>
  <course>1.31</course>
  <speed>6.715839485872188</speed>
  <fix>3d</fix>
</trkpt>
<trkpt lat="-27.2719344" lon="151.2906342">
  <ele>384.99</ele>
  <time>2026-09-01T19:57:30Z</time>
  <course>2.67</course>
  <speed>4.89</speed>
  <fix>3d</fix>
</trkpt>
<trkpt lat="-27.2719125" lon="151.2906351">
  <ele>384.78</ele>
  <time>2026-09-01T19:57:30Z</time>
  <course>1.23</course>
  <speed>7.294998286497401</speed>
  <fix>3d</fix>
</trkpt>
<trkpt lat="-27.2719246" lon="151.2906346">
  <ele>384.84</ele>
  <time>2026-09-01T19:57:30Z</time>
  <course>2.08</course>
  <speed>6.03</speed>
  <fix>3d</fix>
</trkpt>
<trkpt lat="-27.2719057" lon="151.2906353">
  <ele>384.71</ele>
  <time>2026-09-01T19:57:30Z</time>
  <course>1.15</course>
  <speed>7.884624277668531</speed>
  <fix>3d</fix>
</trkpt>
<trkpt lat="-27.2719246" lon="151.2906346">
  <ele>384.84</ele>
  <time>2026-09-01T19:57:30Z</time>
  <course>2.08</course>
  <speed>6.03</speed>
  <fix>3d</fix>
</trkpt>
<trkpt lat="-27.2718986" lon="151.2906356">
  <ele>384.63</ele>
  <time>2026-09-01T19:57:30Z</time>
  <course>1.04</course>
  <speed>8.463994328920595</speed>
  <fix>3d</fix>
</trkpt>
<trkpt lat="-27.2719127" lon="151.290635">
  <ele>384.71</ele>
  <time>2026-09-01T19:57:30Z</time>
  <course>1.57</course>
  <speed>7.2</speed>
  <fix>3d</fix>
</trkpt>
<trkpt lat="-27.2718908" lon="151.2906358">
  <ele>384.55</ele>
  <time>2026-09-01T19:57:30Z</time>
  <course>0.94</course>
  <speed>9.06317825048145</speed>
  <fix>3d</fix>
</trkpt>
<trkpt lat="-27.2719127" lon="151.290635">
  <ele>384.71</ele>
  <time>2026-09-01T19:57:30Z</time>
  <course>1.57</course>
  <speed>7.2</speed>
  <fix>3d</fix>
</trkpt>
<trkpt lat="-27.2718826" lon="151.290636">
  <ele>384.46</ele>
  <time>2026-09-01T19:57:30Z</time>
  <course>0.78</course>
  <speed>9.652740543493335</speed>
  <fix>3d</fix>
</trkpt>
<trkpt lat="-27.2718987" lon="151.2906354">
  <ele>384.57</ele>
  <time>2026-09-01T19:57:30Z</time>
  <course>1.15</course>
  <speed>8.39</speed>
  <fix>3d</fix>
</trkpt>
<trkpt lat="-27.2718739" lon="151.2906362">
  <ele>384.36</ele>
  <time>2026-09-01T19:57:30Z</time>
  <course>0.67</course>
  <speed>10.241952938771004</speed>
  <fix>3d</fix>
</trkpt>
<trkpt lat="-27.2718987" lon="151.2906354">
  <ele>384.57</ele>
  <time>2026-09-01T19:57:30Z</time>
  <course>1.15</course>
  <speed>8.39</speed>
  <fix>3d</fix>
</trkpt>
<trkpt lat="-27.2718646" lon="151.2906363">
  <ele>384.26</ele>
  <time>2026-09-01T19:57:30Z</time>
  <course>0.57</course>
  <speed>10.82149712378098</speed>
  <fix>3d</fix>
</trkpt>
<trkpt lat="-27.2718826" lon="151.2906357">
  <ele>384.41</ele>
  <time>2026-09-01T19:57:30Z</time>
  <course>0.75</course>
  <speed>9.59</speed>
  <fix>3d</fix>
</trkpt>
<trkpt lat="-27.2718547" lon="151.2906364">
  <ele>384.16</ele>
  <time>2026-09-01T19:57:30Z</time>
  <course>0.55</course>
  <speed>11.400859616713118</speed>
  <fix>3d</fix>
</trkpt>
<trkpt lat="-27.2718826" lon="151.2906357">
  <ele>384.41</ele>
  <time>2026-09-01T19:57:30Z</time>
  <course>0.75</course>
  <speed>9.59</speed>
  <fix>3d</fix>
</trkpt>
<trkpt lat="-27.2718443" lon="151.2906365">
  <ele>384.05</ele>
  <time>2026-09-01T19:57:30Z</time>
  <course>0.45</course>
  <speed>11.96050584214564</speed>
  <fix>3d</fix>
</trkpt>
<trkpt lat="-27.2718643" lon="151.2906359">
  <ele>384.22</ele>
  <time>2026-09-01T19:57:30Z</time>
  <course>0.36</course>
  <speed>10.78</speed>
  <fix>3d</fix>
</trkpt>
<trkpt lat="-27.2718334" lon="151.2906365">
  <ele>383.94</ele>
  <time>2026-09-01T19:57:30Z</time>
  <course>0.31</course>
  <speed>12.510255792748604</speed>
  <fix>3d</fix>
</trkpt>
<trkpt lat="-27.2718643" lon="151.2906359">
  <ele>384.22</ele>
  <time>2026-09-01T19:57:30Z</time>
  <course>0.36</course>
  <speed>10.78</speed>
  <fix>3d</fix>
</trkpt>
<trkpt lat="-27.271822" lon="151.2906365">
  <ele>383.83</ele>
  <time>2026-09-01T19:57:30Z</time>
  <course>0.1</course>
  <speed>13.050061302538008</speed>
  <fix>3d</fix>
</trkpt>
<trkpt lat="-27.2718438" lon="151.290636">
  <ele>384.02</ele>
  <time>2026-09-01T19:57:30Z</time>
  <course>0.02</course>
  <speed>11.94</speed>
  <fix>3d</fix>
</trkpt>
<trkpt lat="-27.2718102" lon="151.2906365">
  <ele>383.71</ele>
  <time>2026-09-01T19:57:30Z</time>
  <course>359.87</course>
  <speed>13.57</speed>
  <fix>3d</fix>
</trkpt>
<trkpt lat="-27.2718438" lon="151.290636">
  <ele>384.02</ele>
  <time>2026-09-01T19:57:30Z</time>
  <course>0.02</course>
  <speed>11.94</speed>
  <fix>3d</fix>
</trkpt>
<trkpt lat="-27.2717978" lon="151.2906364">
  <ele>383.6</ele>
  <time>2026-09-01T19:57:30Z</time>
  <course>359.66</course>
  <speed>14.080031960191</speed>
  <fix>3d</fix>
</trkpt>
<trkpt lat="-27.2718214" lon="151.2906359">
  <ele>383.79</ele>
  <time>2026-09-01T19:57:30Z</time>
  <course>359.71</course>
  <speed>13.04</speed>
  <fix>3d</fix>
</trkpt>
<trkpt lat="-27.271785" lon="151.2906362">
  <ele>383.48</ele>
  <time>2026-09-01T19:57:30Z</time>
  <course>359.55</course>
  <speed>14.570219627720098</speed>
  <fix>3d</fix>
</trkpt>
<trkpt lat="-27.2718214" lon="151.2906359">
  <ele>383.79</ele>
  <time>2026-09-01T19:57:30Z</time>
  <course>359.71</course>
  <speed>13.04</speed>
  <fix>3d</fix>
</trkpt>
<trkpt lat="-27.2717718" lon="151.2906361">
  <ele>383.37</ele>
  <time>2026-09-01T19:57:30Z</time>
  <course>359.46</course>
  <speed>15.050561451321343</speed>
  <fix>3d</fix>
</trkpt>
<trkpt lat="-27.2717969" lon="151.2906358">
  <ele>383.56</ele>
  <time>2026-09-01T19:57:30Z</time>
  <course>359.4</course>
  <speed>14.1</speed>
  <fix>3d</fix>
</trkpt>
<trkpt lat="-27.2717584" lon="151.2906359">
  <ele>383.25</ele>
  <time>2026-09-01T19:57:30Z</time>
  <course>359.32</course>
  <speed>15.51093162901571</speed>
  <fix>3d</fix>
</trkpt>
<trkpt lat="-27.2717969" lon="151.2906358">
  <ele>383.56</ele>
  <time>2026-09-01T19:57:30Z</time>
  <course>359.4</course>
  <speed>14.1</speed>
  <fix>3d</fix>
</trkpt>
<trkpt lat="-27.2717439" lon="151.2906356">
  <ele>383.13</ele>
  <time>2026-09-01T19:57:30Z</time>
  <course>359.18</course>
  <speed>15.971515269378795</speed>
  <fix>3d</fix>
</trkpt>
<trkpt lat="-27.2717706" lon="151.2906354">
  <ele>383.33</ele>
  <time>2026-09-01T19:57:30Z</time>
  <course>359.09</course>
  <speed>15.09</speed>
  <fix>3d</fix>
</trkpt>
<trkpt lat="-27.2717296" lon="151.2906352">
  <ele>383.02</ele>
  <time>2026-09-01T19:57:30Z</time>
  <course>359.03</course>
  <speed>16.392223766164246</speed>
  <fix>3d</fix>
</trkpt>
<trkpt lat="-27.2717706" lon="151.2906354">
  <ele>383.33</ele>
  <time>2026-09-01T19:57:30Z</time>
  <course>359.09</course>
  <speed>15.09</speed>
  <fix>3d</fix>
</trkpt>
<trkpt lat="-27.2717148" lon="151.2906348">
  <ele>382.91</ele>
  <time>2026-09-01T19:57:30Z</time>
  <course>358.96</course>
  <speed>16.80304734266972</speed>
  <fix>3d</fix>
</trkpt>
<trkpt lat="-27.2717427" lon="151.2906348">
  <ele>383.09</ele>
  <time>2026-09-01T19:57:30Z</time>
  <course>358.81</course>
  <speed>16.02</speed>
  <fix>3d</fix>
</trkpt>
<trkpt lat="-27.2716995" lon="151.2906344">
  <ele>382.8</ele>
  <time>2026-09-01T19:57:30Z</time>
  <course>359.01</course>
  <speed>17.19376922027279</speed>
  <fix>3d</fix>
</trkpt>
<trkpt lat="-27.2717427" lon="151.2906348">
  <ele>383.09</ele>
  <time>2026-09-01T19:57:30Z</time>
  <course>358.81</course>
  <speed>16.02</speed>
  <fix>3d</fix>
</trkpt>
<trkpt lat="-27.2716839" lon="151.2906339">
  <ele>382.68</ele>
  <time>2026-09-01T19:57:30Z</time>
  <course>358.97</course>
  <speed>17.58455003689318</speed>
  <fix>3d</fix>
</trkpt>
<trkpt lat="-27.2717131" lon="151.290634">
  <ele>382.87</ele>
  <time>2026-09-01T19:57:30Z</time>
  <course>358.57</course>
  <speed>16.87</speed>
  <fix>3d</fix>
</trkpt>
<trkpt lat="-27.2716678" lon="151.2906334">
  <ele>382.58</ele>
  <time>2026-09-01T19:57:30Z</time>
  <course>358.84</course>
  <speed>17.955391947824477</speed>
  <fix>3d</fix>
</trkpt>
<trkpt lat="-27.2717131" lon="151.290634">
  <ele>382.87</ele>
  <time>2026-09-01T19:57:30Z</time>
  <course>358.57</course>
  <speed>16.87</speed>
  <fix>3d</fix>
</trkpt>
<trkpt lat="-27.2716515" lon="151.2906328">
  <ele>382.47</ele>
  <time>2026-09-01T19:57:30Z</time>
  <course>358.8</course>
  <speed>18.30603452416716</speed>
  <fix>3d</fix>
</trkpt>
<trkpt lat="-27.2716821" lon="151.2906332">
  <ele>382.65</ele>
  <time>2026-09-01T19:57:30Z</time>
  <course>358.38</course>
  <speed>17.66</speed>
  <fix>3d</fix>
</trkpt>
<trkpt lat="-27.2716349" lon="151.2906322">
  <ele>382.37</ele>
  <time>2026-09-01T19:57:30Z</time>
  <course>358.67</course>
  <speed>18.636708400358685</speed>
  <fix>3d</fix>
</trkpt>
<trkpt lat="-27.2716821" lon="151.2906332">
  <ele>382.65</ele>
  <time>2026-09-01T19:57:30Z</time>
  <course>358.38</course>
  <speed>17.66</speed>
  <fix>3d</fix>
</trkpt>
<trkpt lat="-27.2716179" lon="151.2906316">
  <ele>382.28</ele>
  <time>2026-09-01T19:57:30Z</time>
  <course>358.51</course>
  <speed>18.9576923701172</speed>
  <fix>3d</fix>
</trkpt>
<trkpt lat="-27.2716498" lon="151.290632">
  <ele>382.43</ele>
  <time>2026-09-01T19:57:30Z</time>
  <course>358.23</course>
  <speed>18.39</speed>
  <fix>3d</fix>
</trkpt>
<trkpt lat="-27.2716007" lon="151.2906309">
  <ele>382.19</ele>
  <time>2026-09-01T19:57:30Z</time>
  <course>358.38</course>
  <speed>19.25873568020497</speed>
  <fix>3d</fix>
</trkpt>
<trkpt lat="-27.2716498" lon="151.290632">
  <ele>382.43</ele>
  <time>2026-09-01T19:57:30Z</time>
  <course>358.23</course>
  <speed>18.39</speed>
  <fix>3d</fix>
</trkpt>
<trkpt lat="-27.2715832" lon="151.2906302">
  <ele>382.1</ele>
  <time>2026-09-01T19:57:30Z</time>
  <course>358.25</course>
  <speed>19.549833758883988</speed>
  <fix>3d</fix>
</trkpt>
<trkpt lat="-27.2716161" lon="151.2906309">
  <ele>382.23</ele>
  <time>2026-09-01T19:57:30Z</time>
  <course>358.1</course>
  <speed>19.05</speed>
  <fix>3d</fix>
</trkpt>
<trkpt lat="-27.2715655" lon="151.2906295">
  <ele>382.02</ele>
  <time>2026-09-01T19:57:30Z</time>
  <course>358.11</course>
  <speed>19.830985855473752</speed>
  <fix>3d</fix>
</trkpt>
<trkpt lat="-27.2716161" lon="151.2906309">
  <ele>382.23</ele>
  <time>2026-09-01T19:57:30Z</time>
  <course>358.1</course>
  <speed>19.05</speed>
  <fix>3d</fix>
</trkpt>
<trkpt lat="-27.2715475" lon="151.2906287">
  <ele>381.95</ele>
  <time>2026-09-01T19:57:30Z</time>
  <course>358.01</course>
  <speed>20.102542127800653</speed>
  <fix>3d</fix>
</trkpt>
<trkpt lat="-27.2715813" lon="151.2906295">
  <ele>382.05</ele>
  <time>2026-09-01T19:57:30Z</time>
  <course>357.95</course>
  <speed>19.66</speed>
  <fix>3d</fix>
</trkpt>
<trkpt lat="-27.2715293" lon="151.2906279">
  <ele>381.88</ele>
  <time>2026-09-01T19:57:30Z</time>
  <course>358.03</course>
  <speed>20.353456708873804</speed>
  <fix>3d</fix>
</trkpt>
<trkpt lat="-27.2715813" lon="151.2906295">
  <ele>382.05</ele>
  <time>2026-09-01T19:57:30Z</time>
  <course>357.95</course>
  <speed>19.66</speed>
  <fix>3d</fix>
</trkpt>
<trkpt lat="-27.2715108" lon="151.2906271">
  <ele>381.81</ele>
  <time>2026-09-01T19:57:30Z</time>
  <course>358.13</course>
  <speed>20.604392735530936</speed>
  <fix>3d</fix>
</trkpt>
<trkpt lat="-27.2715455" lon="151.290628">
  <ele>381.9</ele>
  <time>2026-09-01T19:57:30Z</time>
  <course>357.79</course>
  <speed>20.21</speed>
  <fix>3d</fix>
</trkpt>
<trkpt lat="-27.2714922" lon="151.2906262">
  <ele>381.75</ele>
  <time>2026-09-01T19:57:30Z</time>
  <course>358.12</course>
  <speed>20.82498979591587</speed>
  <fix>3d</fix>
</trkpt>
<trkpt lat="-27.2715455" lon="151.290628">
  <ele>381.9</ele>
  <time>2026-09-01T19:57:30Z</time>
  <course>357.79</course>
  <speed>20.21</speed>
  <fix>3d</fix>
</trkpt>
<trkpt lat="-27.2714734" lon="151.2906253">
  <ele>381.7</ele>
  <time>2026-09-01T19:57:30Z</time>
  <course>358.0</course>
  <speed>21.04598061388445</speed>
  <fix>3d</fix>
</trkpt>
<trkpt lat="-27.2715089" lon="151.2906264">
  <ele>381.76</ele>
  <time>2026-09-01T19:57:30Z</time>
  <course>357.67</course>
  <speed>20.7</speed>
  <fix>3d</fix>
</trkpt>
<trkpt lat="-27.2714544" lon="151.2906244">
  <ele>381.64</ele>
  <time>2026-09-01T19:57:30Z</time>
  <course>357.85</course>
  <speed>21.2466114945419</speed>
  <fix>3d</fix>
</trkpt>
<trkpt lat="-27.2715089" lon="151.2906264">
  <ele>381.76</ele>
  <time>2026-09-01T19:57:30Z</time>
  <course>357.67</course>
  <speed>20.7</speed>
  <fix>3d</fix>
</trkpt>
<trkpt lat="-27.2714353" lon="151.2906235">
  <ele>381.59</ele>
  <time>2026-09-01T19:57:30Z</time>
  <course>357.75</course>
  <speed>21.447652552202534</speed>
  <fix>3d</fix>
</trkpt>
<trkpt lat="-27.2714712" lon="151.2906247">
  <ele>381.64</ele>
  <time>2026-09-01T19:57:30Z</time>
  <course>357.6</course>
  <speed>21.16</speed>
  <fix>3d</fix>
</trkpt>
<trkpt lat="-27.271416" lon="151.2906225">
  <ele>381.55</ele>
  <time>2026-09-01T19:57:30Z</time>
  <course>357.7</course>
  <speed>21.628319398418363</speed>
  <fix>3d</fix>
</trkpt>
<trkpt lat="-27.2714712" lon="151.2906247">
  <ele>381.64</ele>
  <time>2026-09-01T19:57:30Z</time>
  <course>357.6</course>
  <speed>21.16</speed>
  <fix>3d</fix>
</trkpt>
<trkpt lat="-27.2713964" lon="151.2906215">
  <ele>381.5</ele>
  <time>2026-09-01T19:57:30Z</time>
  <course>357.71</course>
  <speed>21.809413105354302</speed>
  <fix>3d</fix>
</trkpt>
<trkpt lat="-27.2714328" lon="151.2906228">
  <ele>381.53</ele>
  <time>2026-09-01T19:57:30Z</time>
  <course>357.51</course>
  <speed>21.57</speed>
  <fix>3d</fix>
</trkpt>
<trkpt lat="-27.2713767" lon="151.2906205">
  <ele>381.45</ele>
  <time>2026-09-01T19:57:30Z</time>
  <course>357.69</course>
  <speed>21.990100045247633</speed>
  <fix>3d</fix>
</trkpt>
<trkpt lat="-27.2714328" lon="151.2906228">
  <ele>381.53</ele>
  <time>2026-09-01T19:57:30Z</time>
  <course>357.51</course>
  <speed>21.57</speed>
  <fix>3d</fix>
</trkpt>
<trkpt lat="-27.2713567" lon="151.2906195">
  <ele>381.41</ele>
  <time>2026-09-01T19:57:30Z</time>
  <course>357.6</course>
  <speed>22.16037228929153</speed>
  <fix>3d</fix>
</trkpt>
<trkpt lat="-27.2713937" lon="151.2906209">
  <ele>381.44</ele>
  <time>2026-09-01T19:57:30Z</time>
  <course>357.44</course>
  <speed>21.94</speed>
  <fix>3d</fix>
</trkpt>
<trkpt lat="-27.2713366" lon="151.2906185">
  <ele>381.36</ele>
  <time>2026-09-01T19:57:30Z</time>
  <course>357.55</course>
  <speed>22.321086443092327</speed>
  <fix>3d</fix>
</trkpt>
<trkpt lat="-27.2713937" lon="151.2906209">
  <ele>381.44</ele>
  <time>2026-09-01T19:57:30Z</time>
  <course>357.44</course>
  <speed>21.94</speed>
  <fix>3d</fix>
</trkpt>
<trkpt lat="-27.2713164" lon="151.2906174">
  <ele>381.32</ele>
  <time>2026-09-01T19:57:30Z</time>
  <course>357.57</course>
  <speed>22.471817905990605</speed>
  <fix>3d</fix>
</trkpt>
<trkpt lat="-27.271354" lon="151.2906188">
  <ele>381.35</ele>
  <time>2026-09-01T19:57:30Z</time>
  <course>357.39</course>
  <speed>22.28</speed>
  <fix>3d</fix>
</trkpt>
<trkpt lat="-27.271296" lon="151.2906163">
  <ele>381.28</ele>
  <time>2026-09-01T19:57:30Z</time>
  <course>357.58</course>
  <speed>22.62211307548435</speed>
  <fix>3d</fix>
</trkpt>
<trkpt lat="-27.271354" lon="151.2906188">
  <ele>381.35</ele>
  <time>2026-09-01T19:57:30Z</time>
  <course>357.39</course>
  <speed>22.28</speed>
  <fix>3d</fix>
</trkpt>
<trkpt lat="-27.2712756" lon="151.2906153">
  <ele>381.23</ele>
  <time>2026-09-01T19:57:30Z</time>
  <course>357.6</course>
  <speed>22.772408743916397</speed>
  <fix>3d</fix>
</trkpt>
<trkpt lat="-27.2713138" lon="151.2906167">
  <ele>381.27</ele>
  <time>2026-09-01T19:57:30Z</time>
  <course>357.35</course>
  <speed>22.59</speed>
  <fix>3d</fix>
</trkpt>
<trkpt lat="-27.2712546" lon="151.2906142">
  <ele>381.19</ele>
  <time>2026-09-01T19:57:30Z</time>
  <course>357.57</course>
  <speed>22.912714810777008</speed>
  <fix>3d</fix>
</trkpt>
<trkpt lat="-27.2713138" lon="151.2906167">
  <ele>381.27</ele>
  <time>2026-09-01T19:57:30Z</time>
  <course>357.35</course>
  <speed>22.59</speed>
  <fix>3d</fix>
</trkpt>
<trkpt lat="-27.2712338" lon="151.290613">
  <ele>381.15</ele>
  <time>2026-09-01T19:57:30Z</time>
  <course>357.55</course>
  <speed>23.04303148459421</speed>
  <fix>3d</fix>
</trkpt>
<trkpt lat="-27.2712729" lon="151.2906146">
  <ele>381.19</ele>
  <time>2026-09-01T19:57:30Z</time>
  <course>357.34</course>
  <speed>22.88</speed>
  <fix>3d</fix>
</trkpt>
<trkpt lat="-27.2712129" lon="151.2906119">
  <ele>381.11</ele>
  <time>2026-09-01T19:57:30Z</time>
  <course>357.52</course>
  <speed>23.17290227830774</speed>
  <fix>3d</fix>
</trkpt>
<trkpt lat="-27.2712729" lon="151.2906146">
  <ele>381.19</ele>
  <time>2026-09-01T19:57:30Z</time>
  <course>357.34</course>
  <speed>22.88</speed>
  <fix>3d</fix>
</trkpt>
<trkpt lat="-27.2711921" lon="151.2906108">
  <ele>381.07</ele>
  <time>2026-09-01T19:57:30Z</time>
  <course>357.51</course>
  <speed>23.283238606345122</speed>
  <fix>3d</fix>
</trkpt>
<trkpt lat="-27.2712316" lon="151.2906125">
  <ele>381.11</ele>
  <time>2026-09-01T19:57:30Z</time>
  <course>357.33</course>
  <speed>23.14</speed>
  <fix>3d</fix>
</trkpt>
<trkpt lat="-27.2711711" lon="151.2906097">
  <ele>381.03</ele>
  <time>2026-09-01T19:57:31Z</time>
  <course>357.52</course>
  <speed>23.393576041298175</speed>
  <fix>3d</fix>
</trkpt>
<trkpt lat="-27.2712316" lon="151.2906125">
  <ele>381.11</ele>
  <time>2026-09-01T19:57:31Z</time>
  <course>357.33</course>
  <speed>23.14</speed>
  <fix>3d</fix>
</trkpt>
<trkpt lat="-27.2711501" lon="151.2906086">
  <ele>381.0</ele>
  <time>2026-09-01T19:57:31Z</time>
  <course>357.46</course>
  <speed>23.493475690071914</speed>
  <fix>3d</fix>
</trkpt>
<trkpt lat="-27.2711899" lon="151.2906103">
  <ele>381.03</ele>
  <time>2026-09-01T19:57:31Z</time>
  <course>357.32</course>
  <speed>23.38</speed>
  <fix>3d</fix>
</trkpt>
<trkpt lat="-27.271129" lon="151.2906075">
  <ele>380.96</ele>
  <time>2026-09-01T19:57:31Z</time>
  <course>357.37</course>
  <speed>23.603813251252436</speed>
  <fix>3d</fix>
</trkpt>
<trkpt lat="-27.2711899" lon="151.2906103">
  <ele>381.03</ele>
  <time>2026-09-01T19:57:31Z</time>
  <course>357.32</course>
  <speed>23.38</speed>
  <fix>3d</fix>
</trkpt>
<trkpt lat="-27.2711078" lon="151.2906064">
  <ele>380.92</ele>
  <time>2026-09-01T19:57:31Z</time>
  <course>357.35</course>
  <speed>23.69462597299227</speed>
  <fix>3d</fix>
</trkpt>
<trkpt lat="-27.2711478" lon="151.290608">
  <ele>380.94</ele>
  <time>2026-09-01T19:57:31Z</time>
  <course>357.31</course>
  <speed>23.6</speed>
  <fix>3d</fix>
</trkpt>
<trkpt lat="-27.2710866" lon="151.2906052">
  <ele>380.88</ele>
  <time>2026-09-01T19:57:31Z</time>
  <course>357.43</course>
  <speed>23.784532789188862</speed>
  <fix>3d</fix>
</trkpt>
<trkpt lat="-27.2711478" lon="151.290608">
  <ele>380.94</ele>
  <time>2026-09-01T19:57:31Z</time>
  <course>357.31</course>
  <speed>23.6</speed>
  <fix>3d</fix>
</trkpt>
<trkpt lat="-27.2710652" lon="151.2906041">
  <ele>380.83</ele>
  <time>2026-09-01T19:57:31Z</time>
  <course>357.46</course>
  <speed>23.87489476416598</speed>
  <fix>3d</fix>
</trkpt>
<trkpt lat="-27.2711052" lon="151.2906058">
  <ele>380.86</ele>
  <time>2026-09-01T19:57:31Z</time>
  <course>357.29</course>
  <speed>23.81</speed>
  <fix>3d</fix>
</trkpt>
<trkpt lat="-27.2710438" lon="151.290603">
  <ele>380.78</ele>
  <time>2026-09-01T19:57:31Z</time>
  <course>357.44</course>
  <speed>23.96480127186537</speed>
  <fix>3d</fix>
</trkpt>
<trkpt lat="-27.2711052" lon="151.2906058">
  <ele>380.86</ele>
  <time>2026-09-01T19:57:31Z</time>
  <course>357.29</course>
  <speed>23.81</speed>
  <fix>3d</fix>
</trkpt>
<trkpt lat="-27.2710223" lon="151.2906018">
  <ele>380.74</ele>
  <time>2026-09-01T19:57:31Z</time>
  <course>357.42</course>
  <speed>24.044718754853424</speed>
  <fix>3d</fix>
</trkpt>
<trkpt lat="-27.2710623" lon="151.2906035">
  <ele>380.77</ele>
  <time>2026-09-01T19:57:31Z</time>
  <course>357.29</course>
  <speed>23.99</speed>
  <fix>3d</fix>
</trkpt>
<trkpt lat="-27.2710007" lon="151.2906007">
  <ele>380.69</ele>
  <time>2026-09-01T19:57:31Z</time>
  <course>357.41</course>
  <speed>24.125090673404735</speed>
  <fix>3d</fix>
</trkpt>
<trkpt lat="-27.2710623" lon="151.2906035">
  <ele>380.77</ele>
  <time>2026-09-01T19:57:31Z</time>
  <course>357.29</course>
  <speed>23.99</speed>
  <fix>3d</fix>
</trkpt>
<trkpt lat="-27.2709789" lon="151.2905995">
  <ele>380.64</ele>
  <time>2026-09-01T19:57:31Z</time>
  <course>357.48</course>
  <speed>24.214997418955054</speed>
  <fix>3d</fix>
</trkpt>
<trkpt lat="-27.271019" lon="151.2906012">
  <ele>380.68</ele>
  <time>2026-09-01T19:57:31Z</time>
  <course>357.3</course>
  <speed>24.17</speed>
  <fix>3d</fix>
</trkpt>
<trkpt lat="-27.2709571" lon="151.2905983">
  <ele>380.58</ele>
  <time>2026-09-01T19:57:31Z</time>
  <course>357.49</course>
  <speed>24.28492536533724</speed>
  <fix>3d</fix>
</trkpt>
<trkpt lat="-27.271019" lon="151.2906012">
  <ele>380.68</ele>
  <time>2026-09-01T19:57:31Z</time>
  <course>357.3</course>
  <speed>24.17</speed>
  <fix>3d</fix>
</trkpt>
<trkpt lat="-27.270935" lon="151.2905972">
  <ele>380.53</ele>
  <time>2026-09-01T19:57:31Z</time>
  <course>357.46</course>
  <speed>24.364843525046496</speed>
  <fix>3d</fix>
</trkpt>
<trkpt lat="-27.2709754" lon="151.2905989">
  <ele>380.57</ele>
  <time>2026-09-01T19:57:31Z</time>
  <course>357.31</course>
  <speed>24.33</speed>
  <fix>3d</fix>
</trkpt>
<trkpt lat="-27.270913" lon="151.290596">
  <ele>380.47</ele>
  <time>2026-09-01T19:57:31Z</time>
  <course>357.47</course>
  <speed>24.45475209442942</speed>
  <fix>3d</fix>
</trkpt>
<trkpt lat="-27.2709754" lon="151.2905989">
  <ele>380.57</ele>
  <time>2026-09-01T19:57:31Z</time>
  <course>357.31</course>
  <speed>24.33</speed>
  <fix>3d</fix>
</trkpt>
<trkpt lat="-27.2708908" lon="151.2905948">
  <ele>380.41</ele>
  <time>2026-09-01T19:57:31Z</time>
  <course>357.48</course>
  <speed>24.5246814454337</speed>
  <fix>3d</fix>
</trkpt>
<trkpt lat="-27.2709316" lon="151.2905966">
  <ele>380.46</ele>
  <time>2026-09-01T19:57:31Z</time>
  <course>357.33</course>
  <speed>24.49</speed>
  <fix>3d</fix>
</trkpt>
<trkpt lat="-27.2708685" lon="151.2905937">
  <ele>380.34</ele>
  <time>2026-09-01T19:57:31Z</time>
  <course>357.48</course>
  <speed>24.60505029460415</speed>
  <fix>3d</fix>
</trkpt>
<trkpt lat="-27.2709316" lon="151.2905966">
  <ele>380.46</ele>
  <time>2026-09-01T19:57:31Z</time>
  <course>357.33</course>
  <speed>24.49</speed>
  <fix>3d</fix>
</trkpt>
<trkpt lat="-27.2708462" lon="151.2905925">
  <ele>380.28</ele>
  <time>2026-09-01T19:57:31Z</time>
  <course>357.52</course>
  <speed>24.674531403858513</speed>
  <fix>3d</fix>
</trkpt>
<trkpt lat="-27.2708876" lon="151.2905943">
  <ele>380.35</ele>
  <time>2026-09-01T19:57:31Z</time>
  <course>357.35</course>
  <speed>24.63</speed>
  <fix>3d</fix>
</trkpt>
<trkpt lat="-27.2708241" lon="151.2905914">
  <ele>380.23</ele>
  <time>2026-09-01T19:57:31Z</time>
  <course>357.59</course>
  <speed>24.74446200667939</speed>
  <fix>3d</fix>
</trkpt>
<trkpt lat="-27.2708876" lon="151.2905943">
  <ele>380.35</ele>
  <time>2026-09-01T19:57:31Z</time>
  <course>357.35</course>
  <speed>24.63</speed>
  <fix>3d</fix>
</trkpt>
<trkpt lat="-27.2708016" lon="151.2905902">
  <ele>380.17</ele>
  <time>2026-09-01T19:57:31Z</time>
  <course>357.58</course>
  <speed>24.814393000837235</speed>
  <fix>3d</fix>
</trkpt>
<trkpt lat="-27.2708433" lon="151.290592">
  <ele>380.24</ele>
  <time>2026-09-01T19:57:31Z</time>
  <course>357.36</course>
  <speed>24.75</speed>
  <fix>3d</fix>
</trkpt>
<trkpt lat="-27.2707792" lon="151.2905891">
  <ele>380.11</ele>
  <time>2026-09-01T19:57:31Z</time>
  <course>357.56</course>
  <speed>24.874334161942908</speed>
  <fix>3d</fix>
</trkpt>
<trkpt lat="-27.2708433" lon="151.290592">
  <ele>380.24</ele>
  <time>2026-09-01T19:57:31Z</time>
  <course>357.36</course>
  <speed>24.75</speed>
  <fix>3d</fix>
</trkpt>
<trkpt lat="-27.2707566" lon="151.2905879">
  <ele>380.05</ele>
  <time>2026-09-01T19:57:31Z</time>
  <course>357.55</course>
  <speed>24.934275606080877</speed>
  <fix>3d</fix>
</trkpt>
<trkpt lat="-27.2707987" lon="151.2905897">
  <ele>380.13</ele>
  <time>2026-09-01T19:57:31Z</time>
  <course>357.39</course>
  <speed>24.87</speed>
  <fix>3d</fix>
</trkpt>
<trkpt lat="-27.2707339" lon="151.2905867">
  <ele>379.99</ele>
  <time>2026-09-01T19:57:31Z</time>
  <course>357.61</course>
  <speed>24.994217331214838</speed>
  <fix>3d</fix>
</trkpt>
<trkpt lat="-27.2707987" lon="151.2905897">
  <ele>380.13</ele>
  <time>2026-09-01T19:57:31Z</time>
  <course>357.39</course>
  <speed>24.87</speed>
  <fix>3d</fix>
</trkpt>
<trkpt lat="-27.2707113" lon="151.2905856">
  <ele>379.93</ele>
  <time>2026-09-01T19:57:31Z</time>
  <course>357.69</course>
  <speed>25.044168982020548</speed>
  <fix>3d</fix>
</trkpt>
<trkpt lat="-27.2707539" lon="151.2905875">
  <ele>380.01</ele>
  <time>2026-09-01T19:57:31Z</time>
  <course>357.41</course>
  <speed>24.99</speed>
  <fix>3d</fix>
</trkpt>
<trkpt lat="-27.2706887" lon="151.2905845">
  <ele>379.87</ele>
  <time>2026-09-01T19:57:31Z</time>
  <course>357.68</course>
  <speed>25.103675029764066</speed>
  <fix>3d</fix>
</trkpt>
<trkpt lat="-27.2707539" lon="151.2905875">
  <ele>380.01</ele>
  <time>2026-09-01T19:57:31Z</time>
  <course>357.41</course>
  <speed>24.99</speed>
  <fix>3d</fix>
</trkpt>
<trkpt lat="-27.2706658" lon="151.2905833">
  <ele>379.81</ele>
  <time>2026-09-01T19:57:31Z</time>
  <course>357.66</course>
  <speed>25.15362796894317</speed>
  <fix>3d</fix>
</trkpt>
<trkpt lat="-27.2707091" lon="151.2905852">
  <ele>379.9</ele>
  <time>2026-09-01T19:57:31Z</time>
  <course>357.44</course>
  <speed>25.09</speed>
  <fix>3d</fix>
</trkpt>
<trkpt lat="-27.2706431" lon="151.2905822">
  <ele>379.75</ele>
  <time>2026-09-01T19:57:31Z</time>
  <course>357.67</course>
  <speed>25.2031505967012</speed>
  <fix>3d</fix>
</trkpt>
<trkpt lat="-27.2707091" lon="151.2905852">
  <ele>379.9</ele>
  <time>2026-09-01T19:57:31Z</time>
  <course>357.44</course>
  <speed>25.09</speed>
  <fix>3d</fix>
</trkpt>
<trkpt lat="-27.2706206" lon="151.2905811">
  <ele>379.69</ele>
  <time>2026-09-01T19:57:31Z</time>
  <course>357.69</course>
  <speed>25.243543729040898</speed>
  <fix>3d</fix>
</trkpt>
<trkpt lat="-27.2706639" lon="151.2905829">
  <ele>379.78</ele>
  <time>2026-09-01T19:57:31Z</time>
  <course>357.47</course>
  <speed>25.19</speed>
  <fix>3d</fix>
</trkpt>
<trkpt lat="-27.270598" lon="151.2905799">
  <ele>379.62</ele>
  <time>2026-09-01T19:57:31Z</time>
  <course>357.68</course>
  <speed>25.27308647553757</speed>
  <fix>3d</fix>
</trkpt>
<trkpt lat="-27.2706639" lon="151.2905829">
  <ele>379.78</ele>
  <time>2026-09-01T19:57:31Z</time>
  <course>357.47</course>
  <speed>25.19</speed>
  <fix>3d</fix>
</trkpt>
<trkpt lat="-27.2705755" lon="151.2905788">
  <ele>379.56</ele>
  <time>2026-09-01T19:57:31Z</time>
  <course>357.65</course>
  <speed>25.30305910359457</speed>
  <fix>3d</fix>
</trkpt>
<trkpt lat="-27.2706187" lon="151.2905807">
  <ele>379.66</ele>
  <time>2026-09-01T19:57:31Z</time>
  <course>357.49</course>
  <speed>25.27</speed>
  <fix>3d</fix>
</trkpt>
<trkpt lat="-27.270553" lon="151.2905777">
  <ele>379.5</ele>
  <time>2026-09-01T19:57:31Z</time>
  <course>357.67</course>
  <speed>25.33303179645105</speed>
  <fix>3d</fix>
</trkpt>
<trkpt lat="-27.2706187" lon="151.2905807">
  <ele>379.66</ele>
  <time>2026-09-01T19:57:31Z</time>
  <course>357.49</course>
  <speed>25.27</speed>
  <fix>3d</fix>
</trkpt>
<trkpt lat="-27.2705304" lon="151.2905766">
  <ele>379.44</ele>
  <time>2026-09-01T19:57:31Z</time>
  <course>357.71</course>
  <speed>25.363004553877285</speed>
  <fix>3d</fix>
</trkpt>
<trkpt lat="-27.2705731" lon="151.2905784">
  <ele>379.53</ele>
  <time>2026-09-01T19:57:31Z</time>
  <course>357.51</course>
  <speed>25.36</speed>
  <fix>3d</fix>
</trkpt>
<trkpt lat="-27.2705077" lon="151.2905755">
  <ele>379.35</ele>
  <time>2026-09-01T19:57:31Z</time>
  <course>357.71</course>
  <speed>25.382562912361706</speed>
  <fix>3d</fix>
</trkpt>
<trkpt lat="-27.2705731" lon="151.2905784">
  <ele>379.53</ele>
  <time>2026-09-01T19:57:31Z</time>
  <course>357.51</course>
  <speed>25.36</speed>
  <fix>3d</fix>
</trkpt>
<trkpt lat="-27.270485" lon="151.2905744">
  <ele>379.22</ele>
  <time>2026-09-01T19:57:31Z</time>
  <course>357.69</course>
  <speed>25.382986427920574</speed>
  <fix>3d</fix>
</trkpt>
<trkpt lat="-27.2705275" lon="151.2905763">
  <ele>379.39</ele>
  <time>2026-09-01T19:57:31Z</time>
  <course>357.52</course>
  <speed>25.43</speed>
  <fix>3d</fix>
</trkpt>
<trkpt lat="-27.2704623" lon="151.2905733">
  <ele>379.08</ele>
  <time>2026-09-01T19:57:31Z</time>
  <course>357.73</course>
  <speed>25.372571805002345</speed>
  <fix>3d</fix>
</trkpt>
<trkpt lat="-27.2705275" lon="151.2905763">
  <ele>379.39</ele>
  <time>2026-09-01T19:57:31Z</time>
  <course>357.52</course>
  <speed>25.43</speed>
  <fix>3d</fix>
</trkpt>
<trkpt lat="-27.2704395" lon="151.2905722">
  <ele>378.92</ele>
  <time>2026-09-01T19:57:31Z</time>
  <course>357.78</course>
  <speed>25.362580704652277</speed>
  <fix>3d</fix>
</trkpt>
<trkpt lat="-27.2704818" lon="151.2905741">
  <ele>379.18</ele>
  <time>2026-09-01T19:57:31Z</time>
  <course>357.53</course>
  <speed>25.45</speed>
  <fix>3d</fix>
</trkpt>
<trkpt lat="-27.2704168" lon="151.2905711">
  <ele>378.75</ele>
  <time>2026-09-01T19:57:31Z</time>
  <course>357.76</course>
  <speed>25.352589611319786</speed>
  <fix>3d</fix>
</trkpt>
<trkpt lat="-27.2704818" lon="151.2905741">
  <ele>379.18</ele>
  <time>2026-09-01T19:57:31Z</time>
  <course>357.53</course>
  <speed>25.45</speed>
  <fix>3d</fix>
</trkpt>
<trkpt lat="-27.270394" lon="151.29057">
  <ele>378.58</ele>
  <time>2026-09-01T19:57:31Z</time>
  <course>357.76</course>
  <speed>25.342598525013177</speed>
  <fix>3d</fix>
</trkpt>
<trkpt lat="-27.2704361" lon="151.2905718">
  <ele>378.89</ele>
  <time>2026-09-01T19:57:31Z</time>
  <course>357.54</course>
  <speed>25.44</speed>
  <fix>3d</fix>
</trkpt>
<trkpt lat="-27.2703712" lon="151.2905689">
  <ele>378.4</ele>
  <time>2026-09-01T19:57:31Z</time>
  <course>357.78</course>
  <speed>25.30221334191932</speed>
  <fix>3d</fix>
</trkpt>
<trkpt lat="-27.2704361" lon="151.2905718">
  <ele>378.89</ele>
  <time>2026-09-01T19:57:31Z</time>
  <course>357.54</course>
  <speed>25.44</speed>
  <fix>3d</fix>
</trkpt>
<trkpt lat="-27.2703487" lon="151.2905678">
  <ele>378.21</ele>
  <time>2026-09-01T19:57:31Z</time>
  <course>357.84</course>
  <speed>25.202301482205943</speed>
  <fix>3d</fix>
</trkpt>
<trkpt lat="-27.2703905" lon="151.2905697">
  <ele>378.55</ele>
  <time>2026-09-01T19:57:31Z</time>
  <course>357.55</course>
  <speed>25.41</speed>
  <fix>3d</fix>
</trkpt>
<trkpt lat="-27.2703261" lon="151.2905667">
  <ele>378.02</ele>
  <time>2026-09-01T19:57:31Z</time>
  <course>357.89</course>
  <speed>25.071996330567696</speed>
  <fix>3d</fix>
</trkpt>
<trkpt lat="-27.2703905" lon="151.2905697">
  <ele>378.55</ele>
  <time>2026-09-01T19:57:31Z</time>
  <course>357.55</course>
  <speed>25.41</speed>
  <fix>3d</fix>
</trkpt>
<trkpt lat="-27.2703037" lon="151.2905657">
  <ele>377.91</ele>
  <time>2026-09-01T19:57:31Z</time>
  <course>357.86</course>
  <speed>24.861345498584747</speed>
  <fix>3d</fix>
</trkpt>
<trkpt lat="-27.270345" lon="151.2905675">
  <ele>378.19</ele>
  <time>2026-09-01T19:57:31Z</time>
  <course>357.57</course>
  <speed>25.27</speed>
  <fix>3d</fix>
</trkpt>
<trkpt lat="-27.2702814" lon="151.2905646">
  <ele>377.86</ele>
  <time>2026-09-01T19:57:31Z</time>
  <course>357.84</course>
  <speed>24.641120104410838</speed>
  <fix>3d</fix>
</trkpt>
<trkpt lat="-27.270345" lon="151.2905675">
  <ele>378.19</ele>
  <time>2026-09-01T19:57:31Z</time>
  <course>357.57</course>
  <speed>25.27</speed>
  <fix>3d</fix>
</trkpt>
<trkpt lat="-27.2702591" lon="151.2905636">
  <ele>377.86</ele>
  <time>2026-09-01T19:57:31Z</time>
  <course>357.84</course>
  <speed>24.450869105207694</speed>
  <fix>3d</fix>
</trkpt>
<trkpt lat="-27.2703" lon="151.2905653">
  <ele>377.91</ele>
  <time>2026-09-01T19:57:31Z</time>
  <course>357.59</course>
  <speed>24.94</speed>
  <fix>3d</fix>
</trkpt>
<trkpt lat="-27.2702372" lon="151.2905625">
  <ele>377.91</ele>
  <time>2026-09-01T19:57:31Z</time>
  <course>357.84</course>
  <speed>24.310575887872343</speed>
  <fix>3d</fix>
</trkpt>
<trkpt lat="-27.2703" lon="151.2905653">
  <ele>377.91</ele>
  <time>2026-09-01T19:57:31Z</time>
  <course>357.59</course>
  <speed>24.94</speed>
  <fix>3d</fix>
</trkpt>
<trkpt lat="-27.2702153" lon="151.2905615">
  <ele>377.99</ele>
  <time>2026-09-01T19:57:31Z</time>
  <course>357.84</course>
  <speed>24.220652344641753</speed>
  <fix>3d</fix>
</trkpt>
<trkpt lat="-27.2702555" lon="151.2905632">
  <ele>377.85</ele>
  <time>2026-09-01T19:57:31Z</time>
  <course>357.61</course>
  <speed>24.57</speed>
  <fix>3d</fix>
</trkpt>
<trkpt lat="-27.2701936" lon="151.2905605">
  <ele>378.09</ele>
  <time>2026-09-01T19:57:31Z</time>
  <course>357.84</course>
  <speed>24.19067795660138</speed>
  <fix>3d</fix>
</trkpt>
<trkpt lat="-27.2702555" lon="151.2905632">
  <ele>377.85</ele>
  <time>2026-09-01T19:57:31Z</time>
  <course>357.61</course>
  <speed>24.57</speed>
  <fix>3d</fix>
</trkpt>
<trkpt lat="-27.2701719" lon="151.2905594">
  <ele>378.21</ele>
  <time>2026-09-01T19:57:31Z</time>
  <course>357.81</course>
  <speed>24.210660874912108</speed>
  <fix>3d</fix>
</trkpt>
<trkpt lat="-27.2702117" lon="151.2905611">
  <ele>377.97</ele>
  <time>2026-09-01T19:57:31Z</time>
  <course>357.62</course>
  <speed>24.33</speed>
  <fix>3d</fix>
</trkpt>
<trkpt lat="-27.2701502" lon="151.2905584">
  <ele>378.32</ele>
  <time>2026-09-01T19:57:31Z</time>
  <course>357.84</course>
  <speed>24.24063530520601</speed>
  <fix>3d</fix>
</trkpt>
<trkpt lat="-27.2702117" lon="151.2905611">
  <ele>377.97</ele>
  <time>2026-09-01T19:57:31Z</time>
  <course>357.62</course>
  <speed>24.33</speed>
  <fix>3d</fix>
</trkpt>
<trkpt lat="-27.2701285" lon="151.2905574">
  <ele>378.42</ele>
  <time>2026-09-01T19:57:31Z</time>
  <course>357.83</course>
  <speed>24.2706097986845</speed>
  <fix>3d</fix>
</trkpt>
<trkpt lat="-27.2701681" lon="151.2905592">
  <ele>378.18</ele>
  <time>2026-09-01T19:57:31Z</time>
  <course>357.62</course>
  <speed>24.29</speed>
  <fix>3d</fix>
</trkpt>
<trkpt lat="-27.2701068" lon="151.2905564">
  <ele>378.51</ele>
  <time>2026-09-01T19:57:31Z</time>
  <course>357.93</course>
  <speed>24.310575887872343</speed>
  <fix>3d</fix>
</trkpt>
<trkpt lat="-27.2701681" lon="151.2905592">
  <ele>378.18</ele>
  <time>2026-09-01T19:57:31Z</time>
  <course>357.62</course>
  <speed>24.29</speed>
  <fix>3d</fix>
</trkpt>
<trkpt lat="-27.270085" lon="151.2905554">
  <ele>378.58</ele>
  <time>2026-09-01T19:57:31Z</time>
  <course>357.95</course>
  <speed>24.360533655895143</speed>
  <fix>3d</fix>
</trkpt>
<trkpt lat="-27.2701243" lon="151.2905571">
  <ele>378.4</ele>
  <time>2026-09-01T19:57:31Z</time>
  <course>357.62</course>
  <speed>24.36</speed>
  <fix>3d</fix>
</trkpt>
<trkpt lat="-27.2700632" lon="151.2905543">
  <ele>378.62</ele>
  <time>2026-09-01T19:57:31Z</time>
  <course>357.92</course>
  <speed>24.41008398183013</speed>
  <fix>3d</fix>
</trkpt>
<trkpt lat="-27.2701243" lon="151.2905571">
  <ele>378.4</ele>
  <time>2026-09-01T19:57:31Z</time>
  <course>357.62</course>
  <speed>24.36</speed>
  <fix>3d</fix>
</trkpt>
<trkpt lat="-27.2700412" lon="151.2905533">
  <ele>378.64</ele>
  <time>2026-09-01T19:57:31Z</time>
  <course>357.91</course>
  <speed>24.460042927190457</speed>
  <fix>3d</fix>
</trkpt>
<trkpt lat="-27.2700804" lon="151.2905551">
  <ele>378.55</ele>
  <time>2026-09-01T19:57:31Z</time>
  <course>357.63</course>
  <speed>24.45</speed>
  <fix>3d</fix>
</trkpt>
<trkpt lat="-27.2700193" lon="151.2905523">
  <ele>378.63</ele>
  <time>2026-09-01T19:57:31Z</time>
  <course>357.94</course>
  <speed>24.5199938825441</speed>
  <fix>3d</fix>
</trkpt>
<trkpt lat="-27.2700804" lon="151.2905551">
  <ele>378.55</ele>
  <time>2026-09-01T19:57:31Z</time>
  <course>357.63</course>
  <speed>24.45</speed>
  <fix>3d</fix>
</trkpt>
<trkpt lat="-27.2699972" lon="151.2905513">
  <ele>378.61</ele>
  <time>2026-09-01T19:57:31Z</time>
  <course>357.91</course>
  <speed>24.57994507723726</speed>
  <fix>3d</fix>
</trkpt>
<trkpt lat="-27.2700364" lon="151.290553">
  <ele>378.61</ele>
  <time>2026-09-01T19:57:31Z</time>
  <course>357.65</course>
  <speed>24.56</speed>
  <fix>3d</fix>
</trkpt>
<trkpt lat="-27.269975" lon="151.2905503">
  <ele>378.56</ele>
  <time>2026-09-01T19:57:31Z</time>
  <course>357.94</course>
  <speed>24.659880372783647</speed>
  <fix>3d</fix>
</trkpt>
<trkpt lat="-27.2700364" lon="151.290553">
  <ele>378.61</ele>
  <time>2026-09-01T19:57:31Z</time>
  <course>357.65</course>
  <speed>24.56</speed>
  <fix>3d</fix>
</trkpt>
<trkpt lat="-27.2699528" lon="151.2905493">
  <ele>378.5</ele>
  <time>2026-09-01T19:57:31Z</time>
  <course>357.92</course>
  <speed>24.72982409965748</speed>
  <fix>3d</fix>
</trkpt>
<trkpt lat="-27.2699923" lon="151.290551">
  <ele>378.58</ele>
  <time>2026-09-01T19:57:31Z</time>
  <course>357.66</course>
  <speed>24.68</speed>
  <fix>3d</fix>
</trkpt>
<trkpt lat="-27.2699305" lon="151.2905483">
  <ele>378.42</ele>
  <time>2026-09-01T19:57:31Z</time>
  <course>357.92</course>
  <speed>24.810161224788526</speed>
  <fix>3d</fix>
</trkpt>
<trkpt lat="-27.2699923" lon="151.290551">
  <ele>378.58</ele>
  <time>2026-09-01T19:57:31Z</time>
  <course>357.66</course>
  <speed>24.68</speed>
  <fix>3d</fix>
</trkpt>
<trkpt lat="-27.2699081" lon="151.2905472">
  <ele>378.33</ele>
  <time>2026-09-01T19:57:31Z</time>
  <course>357.93</course>
  <speed>24.890096424080003</speed>
  <fix>3d</fix>
</trkpt>
<trkpt lat="-27.2699479" lon="151.290549">
  <ele>378.47</ele>
  <time>2026-09-01T19:57:31Z</time>
  <course>357.67</course>
  <speed>24.82</speed>
  <fix>3d</fix>
</trkpt>
<trkpt lat="-27.2698859" lon="151.2905462">
  <ele>378.22</ele>
  <time>2026-09-01T19:57:31Z</time>
  <course>357.91</course>
  <speed>24.97003203842558</speed>
  <fix>3d</fix>
</trkpt>
<trkpt lat="-27.2699479" lon="151.290549">
  <ele>378.47</ele>
  <time>2026-09-01T19:57:31Z</time>
  <course>357.67</course>
  <speed>24.82</speed>
  <fix>3d</fix>
</trkpt>
<trkpt lat="-27.2698633" lon="151.2905452">
  <ele>378.11</ele>
  <time>2026-09-01T19:57:31Z</time>
  <course>357.94</course>
  <speed>25.049968063851896</speed>
  <fix>3d</fix>
</trkpt>
<trkpt lat="-27.2699032" lon="151.2905469">
  <ele>378.3</ele>
  <time>2026-09-01T19:57:31Z</time>
  <course>357.67</course>
  <speed>24.97</speed>
  <fix>3d</fix>
</trkpt>
<trkpt lat="-27.2698406" lon="151.2905442">
  <ele>377.99</ele>
  <time>2026-09-01T19:57:31Z</time>
  <course>357.94</course>
  <speed>25.140296338746683</speed>
  <fix>3d</fix>
</trkpt>
<trkpt lat="-27.2699032" lon="151.2905469">
  <ele>378.3</ele>
  <time>2026-09-01T19:57:31Z</time>
  <course>357.67</course>
  <speed>24.97</speed>
  <fix>3d</fix>
</trkpt>
<trkpt lat="-27.2698177" lon="151.2905431">
  <ele>377.87</ele>
  <time>2026-09-01T19:57:31Z</time>
  <course>357.94</course>
  <speed>25.240215926176223</speed>
  <fix>3d</fix>
</trkpt>
<trkpt lat="-27.2698582" lon="151.2905448">
  <ele>378.08</ele>
  <time>2026-09-01T19:57:31Z</time>
  <course>357.67</course>
  <speed>25.13</speed>
  <fix>3d</fix>
</trkpt>
<trkpt lat="-27.2697947" lon="151.2905421">
  <ele>377.74</ele>
  <time>2026-09-01T19:57:31Z</time>
  <course>358.01</course>
  <speed>25.32015205325592</speed>
  <fix>3d</fix>
</trkpt>
<trkpt lat="-27.2698582" lon="151.2905448">
  <ele>378.08</ele>
  <time>2026-09-01T19:57:31Z</time>
  <course>357.67</course>
  <speed>25.13</speed>
  <fix>3d</fix>
</trkpt>
<trkpt lat="-27.2697717" lon="151.290541">
  <ele>377.61</ele>
  <time>2026-09-01T19:57:31Z</time>
  <course>358.07</course>
  <speed>25.410080676770786</speed>
  <fix>3d</fix>
</trkpt>
<trkpt lat="-27.269813" lon="151.2905428">
  <ele>377.83</ele>
  <time>2026-09-01T19:57:31Z</time>
  <course>357.67</course>
  <speed>25.29</speed>
  <fix>3d</fix>
</trkpt>
<trkpt lat="-27.2697486" lon="151.29054">
  <ele>377.48</ele>
  <time>2026-09-01T19:57:31Z</time>
  <course>358.05</course>
  <speed>25.49001765397584</speed>
  <fix>3d</fix>
</trkpt>
<trkpt lat="-27.269813" lon="151.2905428">
  <ele>377.83</ele>
  <time>2026-09-01T19:57:31Z</time>
  <course>357.67</course>
  <speed>25.29</speed>
  <fix>3d</fix>
</trkpt>
<trkpt lat="-27.2697255" lon="151.2905389">
  <ele>377.36</ele>
  <time>2026-09-01T19:57:31Z</time>
  <course>358.03</course>
  <speed>25.579947224339616</speed>
  <fix>3d</fix>
</trkpt>
<trkpt lat="-27.2697674" lon="151.2905407">
  <ele>377.58</ele>
  <time>2026-09-01T19:57:31Z</time>
  <course>357.68</course>
  <speed>25.45</speed>
  <fix>3d</fix>
</trkpt>
<trkpt lat="-27.2697023" lon="151.2905379">
  <ele>377.23</ele>
  <time>2026-09-01T19:57:31Z</time>
  <course>358.06</course>
  <speed>25.6598850348165</speed>
  <fix>3d</fix>
</trkpt>
<trkpt lat="-27.2697674" lon="151.2905407">
  <ele>377.58</ele>
  <time>2026-09-01T19:57:31Z</time>
  <course>357.68</course>
  <speed>25.45</speed>
  <fix>3d</fix>
</trkpt>
<trkpt lat="-27.269679" lon="151.2905369">
  <ele>377.11</ele>
  <time>2026-09-01T19:57:31Z</time>
  <course>358.08</course>
  <speed>25.72983093609439</speed>
  <fix>3d</fix>
</trkpt>
<trkpt lat="-27.2697216" lon="151.2905386">
  <ele>377.33</ele>
  <time>2026-09-01T19:57:31Z</time>
  <course>357.7</course>
  <speed>25.6</speed>
  <fix>3d</fix>
</trkpt>
<trkpt lat="-27.2696558" lon="151.2905358">
  <ele>376.99</ele>
  <time>2026-09-01T19:57:31Z</time>
  <course>358.06</course>
  <speed>25.799387589630882</speed>
  <fix>3d</fix>
</trkpt>
<trkpt lat="-27.2697216" lon="151.2905386">
  <ele>377.33</ele>
  <time>2026-09-01T19:57:31Z</time>
  <course>357.7</course>
  <speed>25.6</speed>
  <fix>3d</fix>
</trkpt>
<trkpt lat="-27.2696324" lon="151.2905348">
  <ele>376.88</ele>
  <time>2026-09-01T19:57:31Z</time>
  <course>358.01</course>
  <speed>25.869335128680827</speed>
  <fix>3d</fix>
</trkpt>
<trkpt lat="-27.2696756" lon="151.2905366">
  <ele>377.09</ele>
  <time>2026-09-01T19:57:31Z</time>
  <course>357.71</course>
  <speed>25.73</speed>
  <fix>3d</fix>
</trkpt>
<trkpt lat="-27.269609" lon="151.2905337">
  <ele>376.77</ele>
  <time>2026-09-01T19:57:31Z</time>
  <course>357.98</course>
  <speed>25.92967797717511</speed>
  <fix>3d</fix>
</trkpt>
<trkpt lat="-27.2696756" lon="151.2905366">
  <ele>377.09</ele>
  <time>2026-09-01T19:57:31Z</time>
  <course>357.71</course>
  <speed>25.73</speed>
  <fix>3d</fix>
</trkpt>
<trkpt lat="-27.2695856" lon="151.2905327">
  <ele>376.66</ele>
  <time>2026-09-01T19:57:31Z</time>
  <course>357.98</course>
  <speed>25.990023085791975</speed>
  <fix>3d</fix>
</trkpt>
<trkpt lat="-27.2696292" lon="151.2905345">
  <ele>376.86</ele>
  <time>2026-09-01T19:57:31Z</time>
  <course>357.72</course>
  <speed>25.86</speed>
  <fix>3d</fix>
</trkpt>
<trkpt lat="-27.2695621" lon="151.2905316">
  <ele>376.56</ele>
  <time>2026-09-01T19:57:31Z</time>
  <course>358.06</course>
  <speed>26.039984639012367</speed>
  <fix>3d</fix>
</trkpt>
<trkpt lat="-27.2696292" lon="151.2905345">
  <ele>376.86</ele>
  <time>2026-09-01T19:57:31Z</time>
  <course>357.72</course>
  <speed>25.86</speed>
  <fix>3d</fix>
</trkpt>
<trkpt lat="-27.2695386" lon="151.2905306">
  <ele>376.46</ele>
  <time>2026-09-01T19:57:31Z</time>
  <course>358.08</course>
  <speed>26.089946339538532</speed>
  <fix>3d</fix>
</trkpt>
<trkpt lat="-27.2695826" lon="151.2905324">
  <ele>376.64</ele>
  <time>2026-09-01T19:57:31Z</time>
  <course>357.71</course>
  <speed>25.97</speed>
  <fix>3d</fix>
</trkpt>
<trkpt lat="-27.2695151" lon="151.2905296">
  <ele>376.37</ele>
  <time>2026-09-01T19:57:31Z</time>
  <course>358.06</course>
  <speed>26.13951988847538</speed>
  <fix>3d</fix>
</trkpt>
<trkpt lat="-27.2695826" lon="151.2905324">
  <ele>376.64</ele>
  <time>2026-09-01T19:57:31Z</time>
  <course>357.71</course>
  <speed>25.97</speed>
  <fix>3d</fix>
</trkpt>
<trkpt lat="-27.2694917" lon="151.2905285">
  <ele>376.28</ele>
  <time>2026-09-01T19:57:31Z</time>
  <course>358.07</course>
  <speed>26.179490063788485</speed>
  <fix>3d</fix>
</trkpt>
<trkpt lat="-27.2695359" lon="151.2905303">
  <ele>376.44</ele>
  <time>2026-09-01T19:57:31Z</time>
  <course>357.71</course>
  <speed>26.06</speed>
  <fix>3d</fix>
</trkpt>
<trkpt lat="-27.2694682" lon="151.2905275">
  <ele>376.2</ele>
  <time>2026-09-01T19:57:31Z</time>
  <course>358.04</course>
  <speed>26.209855016768024</speed>
  <fix>3d</fix>
</trkpt>
<trkpt lat="-27.2695359" lon="151.2905303">
  <ele>376.44</ele>
  <time>2026-09-01T19:57:31Z</time>
  <course>357.71</course>
  <speed>26.06</speed>
  <fix>3d</fix>
</trkpt>
<trkpt lat="-27.2694448" lon="151.2905264">
  <ele>376.12</ele>
  <time>2026-09-01T19:57:31Z</time>
  <course>357.99</course>
  <speed>26.23983231653739</speed>
  <fix>3d</fix>
</trkpt>
<trkpt lat="-27.269489" lon="151.2905282">
  <ele>376.26</ele>
  <time>2026-09-01T19:57:31Z</time>
  <course>357.72</course>
  <speed>26.14</speed>
  <fix>3d</fix>
</trkpt>
<trkpt lat="-27.2694213" lon="151.2905254">
  <ele>376.04</ele>
  <time>2026-09-01T19:57:31Z</time>
  <course>357.94</course>
  <speed>26.260207539164654</speed>
  <fix>3d</fix>
</trkpt>
<trkpt lat="-27.269489" lon="151.2905282">
  <ele>376.26</ele>
  <time>2026-09-01T19:57:31Z</time>
  <course>357.72</course>
  <speed>26.14</speed>
  <fix>3d</fix>
</trkpt>
<trkpt lat="-27.2693979" lon="151.2905243">
  <ele>375.97</ele>
  <time>2026-09-01T19:57:31Z</time>
  <course>357.95</course>
  <speed>26.280585990422665</speed>
  <fix>3d</fix>
</trkpt>
<trkpt lat="-27.2694421" lon="151.2905261">
  <ele>376.1</ele>
  <time>2026-09-01T19:57:31Z</time>
  <course>357.7</course>
  <speed>26.21</speed>
  <fix>3d</fix>
</trkpt>
<trkpt lat="-27.2693745" lon="151.2905232">
  <ele>375.9</ele>
  <time>2026-09-01T19:57:31Z</time>
  <course>357.94</course>
  <speed>26.290975638039757</speed>
  <fix>3d</fix>
</trkpt>
<trkpt lat="-27.2694421" lon="151.2905261">
  <ele>376.1</ele>
  <time>2026-09-01T19:57:31Z</time>
  <course>357.7</course>
  <speed>26.21</speed>
  <fix>3d</fix>
</trkpt>
<trkpt lat="-27.2693509" lon="151.2905222">
  <ele>375.84</ele>
  <time>2026-09-01T19:57:31Z</time>
  <course>357.99</course>
  <speed>26.320951730513087</speed>
  <fix>3d</fix>
</trkpt>
<trkpt lat="-27.2693949" lon="151.290524">
  <ele>375.96</ele>
  <time>2026-09-01T19:57:31Z</time>
  <course>357.68</course>
  <speed>26.26</speed>
  <fix>3d</fix>
</trkpt>
<trkpt lat="-27.2693272" lon="151.2905211">
  <ele>375.77</ele>
  <time>2026-09-01T19:57:31Z</time>
  <course>358.01</course>
  <speed>26.340935822403882</speed>
  <fix>3d</fix>
</trkpt>
<trkpt lat="-27.2693949" lon="151.290524">
  <ele>375.96</ele>
  <time>2026-09-01T19:57:31Z</time>
  <course>357.68</course>
  <speed>26.26</speed>
  <fix>3d</fix>
</trkpt>
<trkpt lat="-27.2693034" lon="151.29052">
  <ele>375.71</ele>
  <time>2026-09-01T19:57:31Z</time>
  <course>358.03</course>
  <speed>26.350927877401205</speed>
  <fix>3d</fix>
</trkpt>
<trkpt lat="-27.2693478" lon="151.2905218">
  <ele>375.82</ele>
  <time>2026-09-01T19:57:31Z</time>
  <course>357.66</course>
  <speed>26.31</speed>
  <fix>3d</fix>
</trkpt>
<trkpt lat="-27.2692797" lon="151.2905189">
  <ele>375.66</ele>
  <time>2026-09-01T19:57:31Z</time>
  <course>358.02</course>
  <speed>26.370912005465417</speed>
  <fix>3d</fix>
</trkpt>
<trkpt lat="-27.2693478" lon="151.2905218">
  <ele>375.82</ele>
  <time>2026-09-01T19:57:31Z</time>
  <course>357.66</course>
  <speed>26.31</speed>
  <fix>3d</fix>
</trkpt>
<trkpt lat="-27.2692559" lon="151.2905178">
  <ele>375.6</ele>
  <time>2026-09-01T19:57:31Z</time>
  <course>357.95</course>
  <speed>26.390896157576762</speed>
  <fix>3d</fix>
</trkpt>
<trkpt lat="-27.2693005" lon="151.2905197">
  <ele>375.7</ele>
  <time>2026-09-01T19:57:31Z</time>
  <course>357.66</course>
  <speed>26.34</speed>
  <fix>3d</fix>
</trkpt>
<trkpt lat="-27.2692322" lon="151.2905167">
  <ele>375.55</ele>
  <time>2026-09-01T19:57:31Z</time>
  <course>357.95</course>
  <speed>26.40128784737593</speed>
  <fix>3d</fix>
</trkpt>
<trkpt lat="-27.2693005" lon="151.2905197">
  <ele>375.7</ele>
  <time>2026-09-01T19:57:31Z</time>
  <course>357.66</course>
  <speed>26.34</speed>
  <fix>3d</fix>
</trkpt>
<trkpt lat="-27.2692084" lon="151.2905156">
  <ele>375.5</ele>
  <time>2026-09-01T19:57:31Z</time>
  <course>357.98</course>
  <speed>26.41127978724242</speed>
  <fix>3d</fix>
</trkpt>
<trkpt lat="-27.2692532" lon="151.2905175">
  <ele>375.59</ele>
  <time>2026-09-01T19:57:31Z</time>
  <course>357.65</course>
  <speed>26.37</speed>
  <fix>3d</fix>
</trkpt>
<trkpt lat="-27.2691846" lon="151.2905145">
  <ele>375.45</ele>
  <time>2026-09-01T19:57:31Z</time>
  <course>357.99</course>
  <speed>26.421271733207696</speed>
  <fix>3d</fix>
</trkpt>
<trkpt lat="-27.2692532" lon="151.2905175">
  <ele>375.59</ele>
  <time>2026-09-01T19:57:31Z</time>
  <course>357.65</course>
  <speed>26.37</speed>
  <fix>3d</fix>
</trkpt>
<trkpt lat="-27.2691609" lon="151.2905134">
  <ele>375.41</ele>
  <time>2026-09-01T19:57:31Z</time>
  <course>358.02</course>
  <speed>26.431263685264845</speed>
  <fix>3d</fix>
</trkpt>
<trkpt lat="-27.2692059" lon="151.2905152">
  <ele>375.49</ele>
  <time>2026-09-01T19:57:31Z</time>
  <course>357.64</course>
  <speed>26.38</speed>
  <fix>3d</fix>
</trkpt>
<trkpt lat="-27.2691371" lon="151.2905123">
  <ele>375.35</ele>
  <time>2026-09-01T19:57:31Z</time>
  <course>358.04</course>
  <speed>26.421271733207696</speed>
  <fix>3d</fix>
</trkpt>
<trkpt lat="-27.2692059" lon="151.2905152">
  <ele>375.49</ele>
  <time>2026-09-01T19:57:31Z</time>
  <course>357.64</course>
  <speed>26.38</speed>
  <fix>3d</fix>
</trkpt>
<trkpt lat="-27.2691133" lon="151.2905112">
  <ele>375.27</ele>
  <time>2026-09-01T19:57:31Z</time>
  <course>358.02</course>
  <speed>26.421271733207696</speed>
  <fix>3d</fix>
</trkpt>
<trkpt lat="-27.2691584" lon="151.2905131">
  <ele>375.38</ele>
  <time>2026-09-01T19:57:31Z</time>
  <course>357.64</course>
  <speed>26.39</speed>
  <fix>3d</fix>
</trkpt>
<trkpt lat="-27.2690896" lon="151.2905101">
  <ele>375.17</ele>
  <time>2026-09-01T19:57:31Z</time>
  <course>357.99</course>
  <speed>26.421271733207696</speed>
  <fix>3d</fix>
</trkpt>
<trkpt lat="-27.2691584" lon="151.2905131">
  <ele>375.38</ele>
  <time>2026-09-01T19:57:31Z</time>
  <course>357.64</course>
  <speed>26.39</speed>
  <fix>3d</fix>
</trkpt>
<trkpt lat="-27.2690658" lon="151.290509">
  <ele>375.07</ele>
  <time>2026-09-01T19:57:31Z</time>
  <course>357.93</course>
  <speed>26.411683020966308</speed>
  <fix>3d</fix>
</trkpt>
<trkpt lat="-27.269111" lon="151.2905109">
  <ele>375.24</ele>
  <time>2026-09-01T19:57:31Z</time>
  <course>357.64</course>
  <speed>26.39</speed>
  <fix>3d</fix>
</trkpt>
<trkpt lat="-27.2690421" lon="151.2905079">
  <ele>374.98</ele>
  <time>2026-09-01T19:57:31Z</time>
  <course>357.89</course>
  <speed>26.40169123370698</speed>
  <fix>3d</fix>
</trkpt>
<trkpt lat="-27.269111" lon="151.2905109">
  <ele>375.24</ele>
  <time>2026-09-01T19:57:31Z</time>
  <course>357.64</course>
  <speed>26.39</speed>
  <fix>3d</fix>
</trkpt>
<trkpt lat="-27.2690185" lon="151.2905068">
  <ele>374.88</ele>
  <time>2026-09-01T19:57:31Z</time>
  <course>357.98</course>
  <speed>26.391699452668828</speed>
  <fix>3d</fix>
</trkpt>
<trkpt lat="-27.2690636" lon="151.2905087">
  <ele>375.05</ele>
  <time>2026-09-01T19:57:31Z</time>
  <course>357.63</course>
  <speed>26.37</speed>
  <fix>3d</fix>
</trkpt>
<trkpt lat="-27.2689949" lon="151.2905057">
  <ele>374.79</ele>
  <time>2026-09-01T19:57:31Z</time>
  <course>358.0</course>
  <speed>26.372123539828944</speed>
  <fix>3d</fix>
</trkpt>
<trkpt lat="-27.2690636" lon="151.2905087">
  <ele>375.05</ele>
  <time>2026-09-01T19:57:31Z</time>
  <course>357.63</course>
  <speed>26.37</speed>
  <fix>3d</fix>
</trkpt>
<trkpt lat="-27.2689714" lon="151.2905046">
  <ele>374.71</ele>
  <time>2026-09-01T19:57:31Z</time>
  <course>357.97</course>
  <speed>26.35214033053103</speed>
  <fix>3d</fix>
</trkpt>
<trkpt lat="-27.2690163" lon="151.2905065">
  <ele>374.85</ele>
  <time>2026-09-01T19:57:31Z</time>
  <course>357.62</course>
  <speed>26.36</speed>
  <fix>3d</fix>
</trkpt>
<trkpt lat="-27.2689479" lon="151.2905035">
  <ele>374.64</ele>
  <time>2026-09-01T19:57:31Z</time>
  <course>358.0</course>
  <speed>26.33215714672841</speed>
  <fix>3d</fix>
</trkpt>
<trkpt lat="-27.2690163" lon="151.2905065">
  <ele>374.85</ele>
  <time>2026-09-01T19:57:31Z</time>
  <course>357.62</course>
  <speed>26.36</speed>
  <fix>3d</fix>
</trkpt>
<trkpt lat="-27.2689244" lon="151.2905024">
  <ele>374.58</ele>
  <time>2026-09-01T19:57:31Z</time>
  <course>358.19</course>
  <speed>26.301773704448145</speed>
  <fix>3d</fix>
</trkpt>
<trkpt lat="-27.268969" lon="151.2905043">
  <ele>374.68</ele>
  <time>2026-09-01T19:57:31Z</time>
  <course>357.6</course>
  <speed>26.33</speed>
  <fix>3d</fix>
</trkpt>
<trkpt lat="-27.268901" lon="151.2905013">
  <ele>374.52</ele>
  <time>2026-09-01T19:57:31Z</time>
  <course>358.58</course>
  <speed>26.28019216063688</speed>
  <fix>3d</fix>
</trkpt>
<trkpt lat="-27.268969" lon="151.2905043">
  <ele>374.68</ele>
  <time>2026-09-01T19:57:31Z</time>
  <course>357.6</course>
  <speed>26.33</speed>
  <fix>3d</fix>
</trkpt>
<trkpt lat="-27.2688776" lon="151.2905003">
  <ele>374.47</ele>
  <time>2026-09-01T19:57:31Z</time>
  <course>359.05</course>
  <speed>26.24578061327192</speed>
  <fix>3d</fix>
</trkpt>
<trkpt lat="-27.2689218" lon="151.2905021">
  <ele>374.55</ele>
  <time>2026-09-01T19:57:31Z</time>
  <course>357.64</course>
  <speed>26.3</speed>
  <fix>3d</fix>
</trkpt>
<trkpt lat="-27.2688542" lon="151.2904995">
  <ele>374.43</ele>
  <time>2026-09-01T19:57:31Z</time>
  <course>359.44</course>
  <speed>26.209349476856538</speed>
  <fix>3d</fix>
</trkpt>
<trkpt lat="-27.2689218" lon="151.2905021">
  <ele>374.55</ele>
  <time>2026-09-01T19:57:31Z</time>
  <course>357.64</course>
  <speed>26.3</speed>
  <fix>3d</fix>
</trkpt>
<trkpt lat="-27.268831" lon="151.2904989">
  <ele>374.4</ele>
  <time>2026-09-01T19:57:31Z</time>
  <course>359.8</course>
  <speed>26.172905837908026</speed>
  <fix>3d</fix>
</trkpt>
<trkpt lat="-27.2688746" lon="151.2905">
  <ele>374.44</ele>
  <time>2026-09-01T19:57:31Z</time>
  <course>358.04</course>
  <speed>26.26</speed>
  <fix>3d</fix>
</trkpt>
<trkpt lat="-27.2688076" lon="151.2904987">
  <ele>374.37</ele>
  <time>2026-09-01T19:57:31Z</time>
  <course>0.22</course>
  <speed>26.14</speed>
  <fix>3d</fix>
</trkpt>
<trkpt lat="-27.2688746" lon="151.2905">
  <ele>374.44</ele>
  <time>2026-09-01T19:57:31Z</time>
  <course>358.04</course>
  <speed>26.26</speed>
  <fix>3d</fix>
</trkpt>
<trkpt lat="-27.2687841" lon="151.2904989">
  <ele>374.35</ele>
  <time>2026-09-01T19:57:31Z</time>
  <course>0.82</course>
  <speed>26.12441004118562</speed>
  <fix>3d</fix>
</trkpt>
<trkpt lat="-27.2688275" lon="151.2904987">
  <ele>374.36</ele>
  <time>2026-09-01T19:57:31Z</time>
  <course>359.14</course>
  <speed>26.21</speed>
  <fix>3d</fix>
</trkpt>
<trkpt lat="-27.2687607" lon="151.2904997">
  <ele>374.33</ele>
  <time>2026-09-01T19:57:31Z</time>
  <course>1.61</course>
  <speed>26.10112832810107</speed>
  <fix>3d</fix>
</trkpt>
<trkpt lat="-27.2688275" lon="151.2904987">
  <ele>374.36</ele>
  <time>2026-09-01T19:57:31Z</time>
  <course>359.14</course>
  <speed>26.21</speed>
  <fix>3d</fix>
</trkpt>
<trkpt lat="-27.2687368" lon="151.2905011">
  <ele>374.33</ele>
  <time>2026-09-01T19:57:31Z</time>
  <course>2.61</course>
  <speed>26.084804005397473</speed>
  <fix>3d</fix>
</trkpt>
<trkpt lat="-27.2687805" lon="151.2904987">
  <ele>374.31</ele>
  <time>2026-09-01T19:57:31Z</time>
  <course>1.05</course>
  <speed>26.16</speed>
  <fix>3d</fix>
</trkpt>
<trkpt lat="-27.2687134" lon="151.290503">
  <ele>374.34</ele>
  <time>2026-09-01T19:57:31Z</time>
  <course>3.85</course>
  <speed>26.067052000561933</speed>
  <fix>3d</fix>
</trkpt>
<trkpt lat="-27.2687805" lon="151.2904987">
  <ele>374.31</ele>
  <time>2026-09-01T19:57:31Z</time>
  <course>1.05</course>
  <speed>26.16</speed>
  <fix>3d</fix>
</trkpt>
<trkpt lat="-27.2686901" lon="151.2905057">
  <ele>374.36</ele>
  <time>2026-09-01T19:57:31Z</time>
  <course>5.24</course>
  <speed>26.04917273158593</speed>
  <fix>3d</fix>
</trkpt>
<trkpt lat="-27.2687336" lon="151.2905007">
  <ele>374.3</ele>
  <time>2026-09-01T19:57:31Z</time>
  <course>3.62</course>
  <speed>26.12</speed>
  <fix>3d</fix>
</trkpt>
<trkpt lat="-27.2686669" lon="151.290509">
  <ele>374.39</ele>
  <time>2026-09-01T19:57:31Z</time>
  <course>6.8</course>
  <speed>26.032963719100444</speed>
  <fix>3d</fix>
</trkpt>
<trkpt lat="-27.2687336" lon="151.2905007">
  <ele>374.3</ele>
  <time>2026-09-01T19:57:31Z</time>
  <course>3.62</course>
  <speed>26.12</speed>
  <fix>3d</fix>
</trkpt>
<trkpt lat="-27.2686438" lon="151.2905131">
  <ele>374.42</ele>
  <time>2026-09-01T19:57:31Z</time>
  <course>8.51</course>
  <speed>26.017403790539902</speed>
  <fix>3d</fix>
</trkpt>
<trkpt lat="-27.2686869" lon="151.2905054">
  <ele>374.32</ele>
  <time>2026-09-01T19:57:31Z</time>
  <course>6.61</course>
  <speed>26.09</speed>
  <fix>3d</fix>
</trkpt>
<trkpt lat="-27.2686209" lon="151.290518">
  <ele>374.47</ele>
  <time>2026-09-01T19:57:31Z</time>
  <course>10.27</course>
  <speed>25.996009309122815</speed>
  <fix>3d</fix>
</trkpt>
<trkpt lat="-27.2686869" lon="151.2905054">
  <ele>374.32</ele>
  <time>2026-09-01T19:57:31Z</time>
  <course>6.61</course>
  <speed>26.09</speed>
  <fix>3d</fix>
</trkpt>
<trkpt lat="-27.2685981" lon="151.2905237">
  <ele>374.52</ele>
  <time>2026-09-01T19:57:31Z</time>
  <course>12.12</course>
  <speed>25.976383505022405</speed>
  <fix>3d</fix>
</trkpt>
<trkpt lat="-27.2686404" lon="151.290513">
  <ele>374.38</ele>
  <time>2026-09-01T19:57:31Z</time>
  <course>9.91</course>
  <speed>26.06</speed>
  <fix>3d</fix>
</trkpt>
<trkpt lat="-27.2685756" lon="151.2905301">
  <ele>374.58</ele>
  <time>2026-09-01T19:57:31Z</time>
  <course>14.02</course>
  <speed>25.964668301366764</speed>
  <fix>3d</fix>
</trkpt>
<trkpt lat="-27.2686404" lon="151.290513">
  <ele>374.38</ele>
  <time>2026-09-01T19:57:31Z</time>
  <course>9.91</course>
  <speed>26.06</speed>
  <fix>3d</fix>
</trkpt>
<trkpt lat="-27.2685532" lon="151.2905375">
  <ele>374.65</ele>
  <time>2026-09-01T19:57:31Z</time>
  <course>15.79</course>
  <speed>25.953007532846744</speed>
  <fix>3d</fix>
</trkpt>
<trkpt lat="-27.2685945" lon="151.2905237">
  <ele>374.48</ele>
  <time>2026-09-01T19:57:31Z</time>
  <course>13.52</course>
  <speed>26.03</speed>
  <fix>3d</fix>
</trkpt>
<trkpt lat="-27.2685311" lon="151.2905457">
  <ele>374.72</ele>
  <time>2026-09-01T19:57:31Z</time>
  <course>17.32</course>
  <speed>25.94169231179801</speed>
  <fix>3d</fix>
</trkpt>
<trkpt lat="-27.2685945" lon="151.2905237">
  <ele>374.48</ele>
  <time>2026-09-01T19:57:31Z</time>
  <course>13.52</course>
  <speed>26.03</speed>
  <fix>3d</fix>
</trkpt>
<trkpt lat="-27.2685092" lon="151.2905548">
  <ele>374.8</ele>
  <time>2026-09-01T19:57:31Z</time>
  <course>18.26</course>
  <speed>25.927421776952677</speed>
  <fix>3d</fix>
</trkpt>
<trkpt lat="-27.2685495" lon="151.2905377">
  <ele>374.6</ele>
  <time>2026-09-01T19:57:31Z</time>
  <course>17.4</course>
  <speed>26.02</speed>
  <fix>3d</fix>
</trkpt>
<trkpt lat="-27.2684875" lon="151.2905646">
  <ele>374.89</ele>
  <time>2026-09-01T19:57:31Z</time>
  <course>18.38</course>
  <speed>25.882436129545457</speed>
  <fix>3d</fix>
</trkpt>
<trkpt lat="-27.2685495" lon="151.2905377">
  <ele>374.6</ele>
  <time>2026-09-01T19:57:31Z</time>
  <course>17.4</course>
  <speed>26.02</speed>
  <fix>3d</fix>
</trkpt>
<trkpt lat="-27.2684659" lon="151.2905748">
  <ele>375.01</ele>
  <time>2026-09-01T19:57:31Z</time>
  <course>18.1</course>
  <speed>25.799224794555357</speed>
  <fix>3d</fix>
</trkpt>
<trkpt lat="-27.2685054" lon="151.2905551">
  <ele>374.75</ele>
  <time>2026-09-01T19:57:31Z</time>
  <course>21.09</course>
  <speed>25.99</speed>
  <fix>3d</fix>
</trkpt>
<trkpt lat="-27.2684445" lon="151.2905851">
  <ele>375.13</ele>
  <time>2026-09-01T19:57:31Z</time>
  <course>18.34</course>
  <speed>25.707189655814187</speed>
  <fix>3d</fix>
</trkpt>
<trkpt lat="-27.2685054" lon="151.2905551">
  <ele>374.75</ele>
  <time>2026-09-01T19:57:31Z</time>
  <course>21.09</course>
  <speed>25.99</speed>
  <fix>3d</fix>
</trkpt>
<trkpt lat="-27.2684232" lon="151.290595">
  <ele>375.24</ele>
  <time>2026-09-01T19:57:31Z</time>
  <course>19.58</course>
  <speed>25.610882452582537</speed>
  <fix>3d</fix>
</trkpt>
<trkpt lat="-27.2684623" lon="151.290575">
  <ele>374.95</ele>
  <time>2026-09-01T19:57:31Z</time>
  <course>22.98</course>
  <speed>25.87</speed>
  <fix>3d</fix>
</trkpt>
<trkpt lat="-27.2684019" lon="151.2906045">
  <ele>375.29</ele>
  <time>2026-09-01T19:57:31Z</time>
  <course>21.11</course>
  <speed>25.535030840004875</speed>
  <fix>3d</fix>
</trkpt>
<trkpt lat="-27.2684623" lon="151.290575">
  <ele>374.95</ele>
  <time>2026-09-01T19:57:31Z</time>
  <course>22.98</course>
  <speed>25.87</speed>
  <fix>3d</fix>
</trkpt>
<trkpt lat="-27.2683806" lon="151.2906137">
  <ele>375.28</ele>
  <time>2026-09-01T19:57:31Z</time>
  <course>22.0</course>
  <speed>25.483520165000755</speed>
  <fix>3d</fix>
</trkpt>
<trkpt lat="-27.2684197" lon="151.2905952">
  <ele>375.15</ele>
  <time>2026-09-01T19:57:31Z</time>
  <course>22.51</course>
  <speed>25.69</speed>
  <fix>3d</fix>
</trkpt>
<trkpt lat="-27.2683592" lon="151.2906225">
  <ele>375.22</ele>
  <time>2026-09-01T19:57:31Z</time>
  <course>21.73</course>
  <speed>25.46409432907442</speed>
  <fix>3d</fix>
</trkpt>
<trkpt lat="-27.2684197" lon="151.2905952">
  <ele>375.15</ele>
  <time>2026-09-01T19:57:31Z</time>
  <course>22.51</course>
  <speed>25.69</speed>
  <fix>3d</fix>
</trkpt>
<trkpt lat="-27.2683375" lon="151.2906307">
  <ele>375.14</ele>
  <time>2026-09-01T19:57:31Z</time>
  <course>20.39</course>
  <speed>25.483084585661917</speed>
  <fix>3d</fix>
</trkpt>
<trkpt lat="-27.2683769" lon="151.2906143">
  <ele>375.19</ele>
  <time>2026-09-01T19:57:31Z</time>
  <course>20.75</course>
  <speed>25.56</speed>
  <fix>3d</fix>
</trkpt>
<trkpt lat="-27.2683155" lon="151.2906381">
  <ele>375.04</ele>
  <time>2026-09-01T19:57:31Z</time>
  <course>18.36</course>
  <speed>25.523185537859494</speed>
  <fix>3d</fix>
</trkpt>
<trkpt lat="-27.2683769" lon="151.2906143">
  <ele>375.19</ele>
  <time>2026-09-01T19:57:31Z</time>
  <course>20.75</course>
  <speed>25.56</speed>
  <fix>3d</fix>
</trkpt>
<trkpt lat="-27.2682933" lon="151.2906445">
  <ele>374.95</ele>
  <time>2026-09-01T19:57:31Z</time>
  <course>16.04</course>
  <speed>25.588976142081183</speed>
  <fix>3d</fix>
</trkpt>
<trkpt lat="-27.2683336" lon="151.2906315">
  <ele>375.07</ele>
  <time>2026-09-01T19:57:31Z</time>
  <course>17.82</course>
  <speed>25.53</speed>
  <fix>3d</fix>
</trkpt>
<trkpt lat="-27.2682705" lon="151.2906501">
  <ele>374.87</ele>
  <time>2026-09-01T19:57:31Z</time>
  <course>13.66</course>
  <speed>25.646350617583003</speed>
  <fix>3d</fix>
</trkpt>
<trkpt lat="-27.2683336" lon="151.2906315">
  <ele>375.07</ele>
  <time>2026-09-01T19:57:31Z</time>
  <course>17.82</course>
  <speed>25.53</speed>
  <fix>3d</fix>
</trkpt>
<trkpt lat="-27.2682478" lon="151.2906546">
  <ele>374.79</ele>
  <time>2026-09-01T19:57:31Z</time>
  <course>11.25</course>
  <speed>25.702235311349867</speed>
  <fix>3d</fix>
</trkpt>
<trkpt lat="-27.2682894" lon="151.2906456">
  <ele>374.88</ele>
  <time>2026-09-01T19:57:31Z</time>
  <course>13.63</course>
  <speed>25.6</speed>
  <fix>3d</fix>
</trkpt>
<trkpt lat="-27.2682248" lon="151.2906581">
  <ele>374.73</ele>
  <time>2026-09-01T19:57:31Z</time>
  <course>8.86</course>
  <speed>25.757193170064166</speed>
  <fix>3d</fix>
</trkpt>
<trkpt lat="-27.2682894" lon="151.2906456">
  <ele>374.88</ele>
  <time>2026-09-01T19:57:31Z</time>
  <course>13.63</course>
  <speed>25.6</speed>
  <fix>3d</fix>
</trkpt>
<trkpt lat="-27.2682018" lon="151.2906607">
  <ele>374.66</ele>
  <time>2026-09-01T19:57:31Z</time>
  <course>6.41</course>
  <speed>25.800056201489173</speed>
  <fix>3d</fix>
</trkpt>
<trkpt lat="-27.2682443" lon="151.2906557">
  <ele>374.72</ele>
  <time>2026-09-01T19:57:31Z</time>
  <course>9.05</course>
  <speed>25.69</speed>
  <fix>3d</fix>
</trkpt>
<trkpt lat="-27.2681786" lon="151.2906621">
  <ele>374.61</ele>
  <time>2026-09-01T19:57:31Z</time>
  <course>3.91</course>
  <speed>25.853007561983965</speed>
  <fix>3d</fix>
</trkpt>
<trkpt lat="-27.2682443" lon="151.2906557">
  <ele>374.72</ele>
  <time>2026-09-01T19:57:31Z</time>
  <course>9.05</course>
  <speed>25.69</speed>
  <fix>3d</fix>
</trkpt>
<trkpt lat="-27.2681554" lon="151.2906625">
  <ele>374.55</ele>
  <time>2026-09-01T19:57:31Z</time>
  <course>1.34</course>
  <speed>25.901737393464554</speed>
  <fix>3d</fix>
</trkpt>
<trkpt lat="-27.2681983" lon="151.2906619">
  <ele>374.59</ele>
  <time>2026-09-01T19:57:31Z</time>
  <course>4.4</course>
  <speed>25.78</speed>
  <fix>3d</fix>
</trkpt>
<trkpt lat="-27.2681321" lon="151.2906617">
  <ele>374.5</ele>
  <time>2026-09-01T19:57:31Z</time>
  <course>358.64</course>
  <speed>25.95454680783311</speed>
  <fix>3d</fix>
</trkpt>
<trkpt lat="-27.2681983" lon="151.2906619">
  <ele>374.59</ele>
  <time>2026-09-01T19:57:31Z</time>
  <course>4.4</course>
  <speed>25.78</speed>
  <fix>3d</fix>
</trkpt>
<trkpt lat="-27.268109" lon="151.2906597">
  <ele>374.45</ele>
  <time>2026-09-01T19:57:31Z</time>
  <course>355.67</course>
  <speed>26.02108568065522</speed>
  <fix>3d</fix>
</trkpt>
<trkpt lat="-27.2681519" lon="151.2906638">
  <ele>374.47</ele>
  <time>2026-09-01T19:57:31Z</time>
  <course>359.44</course>
  <speed>25.87</speed>
  <fix>3d</fix>
</trkpt>
<trkpt lat="-27.268086" lon="151.2906564">
  <ele>374.41</ele>
  <time>2026-09-01T19:57:31Z</time>
  <course>352.51</course>
  <speed>26.07879790174386</speed>
  <fix>3d</fix>
</trkpt>
<trkpt lat="-27.2681519" lon="151.2906638">
  <ele>374.47</ele>
  <time>2026-09-01T19:57:31Z</time>
  <course>359.44</course>
  <speed>25.87</speed>
  <fix>3d</fix>
</trkpt>
<trkpt lat="-27.268063" lon="151.2906516">
  <ele>374.38</ele>
  <time>2026-09-01T19:57:31Z</time>
  <course>349.3</course>
  <speed>26.15317380357497</speed>
  <fix>3d</fix>
</trkpt>
<trkpt lat="-27.2681054" lon="151.2906608">
  <ele>374.38</ele>
  <time>2026-09-01T19:57:31Z</time>
  <course>353.89</course>
  <speed>25.97</speed>
  <fix>3d</fix>
</trkpt>
<trkpt lat="-27.2680402" lon="151.2906454">
  <ele>374.36</ele>
  <time>2026-09-01T19:57:31Z</time>
  <course>346.0</course>
  <speed>26.21689722297435</speed>
  <fix>3d</fix>
</trkpt>
<trkpt lat="-27.2681054" lon="151.2906608">
  <ele>374.38</ele>
  <time>2026-09-01T19:57:31Z</time>
  <course>353.89</course>
  <speed>25.97</speed>
  <fix>3d</fix>
</trkpt>
<trkpt lat="-27.2680176" lon="151.2906377">
  <ele>374.36</ele>
  <time>2026-09-01T19:57:31Z</time>
  <course>342.67</course>
  <speed>26.276493297241927</speed>
  <fix>3d</fix>
</trkpt>
<trkpt lat="-27.2680593" lon="151.2906524">
  <ele>374.32</ele>
  <time>2026-09-01T19:57:31Z</time>
  <course>347.69</course>
  <speed>26.1</speed>
  <fix>3d</fix>
</trkpt>
<trkpt lat="-27.2679955" lon="151.2906285">
  <ele>374.37</ele>
  <time>2026-09-01T19:57:31Z</time>
  <course>339.42</course>
  <speed>26.32129366121658</speed>
  <fix>3d</fix>
</trkpt>
<trkpt lat="-27.2680593" lon="151.2906524">
  <ele>374.32</ele>
  <time>2026-09-01T19:57:31Z</time>
  <course>347.69</course>
  <speed>26.1</speed>
  <fix>3d</fix>
</trkpt>
<trkpt lat="-27.2679738" lon="151.2906179">
  <ele>374.41</ele>
  <time>2026-09-01T19:57:31Z</time>
  <course>336.25</course>
  <speed>26.35019924023346</speed>
  <fix>3d</fix>
</trkpt>
<trkpt lat="-27.2680141" lon="151.2906382">
  <ele>374.3</ele>
  <time>2026-09-01T19:57:31Z</time>
  <course>341.14</course>
  <speed>26.21</speed>
  <fix>3d</fix>
</trkpt>
<trkpt lat="-27.2679526" lon="151.2906059">
  <ele>374.45</ele>
  <time>2026-09-01T19:57:31Z</time>
  <course>333.05</course>
  <speed>26.385566129988568</speed>
  <fix>3d</fix>
</trkpt>
<trkpt lat="-27.2680141" lon="151.2906382">
  <ele>374.3</ele>
  <time>2026-09-01T19:57:31Z</time>
  <course>341.14</course>
  <speed>26.21</speed>
  <fix>3d</fix>
</trkpt>
<trkpt lat="-27.2679321" lon="151.2905927">
  <ele>374.51</ele>
  <time>2026-09-01T19:57:31Z</time>
  <course>329.87</course>
  <speed>26.39832002230445</speed>
  <fix>3d</fix>
</trkpt>
<trkpt lat="-27.2679703" lon="151.2906182">
  <ele>374.34</ele>
  <time>2026-09-01T19:57:31Z</time>
  <course>334.6</course>
  <speed>26.3</speed>
  <fix>3d</fix>
</trkpt>
<trkpt lat="-27.2679122" lon="151.2905781">
  <ele>374.57</ele>
  <time>2026-09-01T19:57:31Z</time>
  <course>326.78</course>
  <speed>26.41286428996295</speed>
  <fix>3d</fix>
</trkpt>
<trkpt lat="-27.2679703" lon="151.2906182">
  <ele>374.34</ele>
  <time>2026-09-01T19:57:31Z</time>
  <course>334.6</course>
  <speed>26.3</speed>
  <fix>3d</fix>
</trkpt>
<trkpt lat="-27.2678933" lon="151.2905626">
  <ele>374.64</ele>
  <time>2026-09-01T19:57:31Z</time>
  <course>323.68</course>
  <speed>26.40744023944767</speed>
  <fix>3d</fix>
</trkpt>
<trkpt lat="-27.2679289" lon="151.2905927">
  <ele>374.43</ele>
  <time>2026-09-01T19:57:31Z</time>
  <course>328.21</course>
  <speed>26.34</speed>
  <fix>3d</fix>
</trkpt>
<trkpt lat="-27.267875" lon="151.2905459">
  <ele>374.72</ele>
  <time>2026-09-01T19:57:31Z</time>
  <course>320.69</course>
  <speed>26.40137307035375</speed>
  <fix>3d</fix>
</trkpt>
<trkpt lat="-27.2679289" lon="151.2905927">
  <ele>374.43</ele>
  <time>2026-09-01T19:57:31Z</time>
  <course>328.21</course>
  <speed>26.34</speed>
  <fix>3d</fix>
</trkpt>
<trkpt lat="-27.2678576" lon="151.2905282">
  <ele>374.8</ele>
  <time>2026-09-01T19:57:31Z</time>
  <course>317.63</course>
  <speed>26.385232612201847</speed>
  <fix>3d</fix>
</trkpt>
<trkpt lat="-27.2678901" lon="151.2905622">
  <ele>374.56</ele>
  <time>2026-09-01T19:57:31Z</time>
  <course>321.94</course>
  <speed>26.37</speed>
  <fix>3d</fix>
</trkpt>
<trkpt lat="-27.2678411" lon="151.2905094">
  <ele>374.88</ele>
  <time>2026-09-01T19:57:31Z</time>
  <course>314.58</course>
  <speed>26.36592497903307</speed>
  <fix>3d</fix>
</trkpt>
<trkpt lat="-27.2678901" lon="151.2905622">
  <ele>374.56</ele>
  <time>2026-09-01T19:57:31Z</time>
  <course>321.94</course>
  <speed>26.37</speed>
  <fix>3d</fix>
</trkpt>
<trkpt lat="-27.2678253" lon="151.2904896">
  <ele>374.97</ele>
  <time>2026-09-01T19:57:31Z</time>
  <course>311.47</course>
  <speed>26.352580518803087</speed>
  <fix>3d</fix>
</trkpt>
<trkpt lat="-27.2678545" lon="151.2905271">
  <ele>374.71</ele>
  <time>2026-09-01T19:57:31Z</time>
  <course>315.76</course>
  <speed>26.37</speed>
  <fix>3d</fix>
</trkpt>
<trkpt lat="-27.2678107" lon="151.2904689">
  <ele>375.06</ele>
  <time>2026-09-01T19:57:31Z</time>
  <course>308.46</course>
  <speed>26.328175022207674</speed>
  <fix>3d</fix>
</trkpt>
<trkpt lat="-27.2678545" lon="151.2905271">
  <ele>374.71</ele>
  <time>2026-09-01T19:57:31Z</time>
  <course>315.76</course>
  <speed>26.37</speed>
  <fix>3d</fix>
</trkpt>
<trkpt lat="-27.2677971" lon="151.2904475">
  <ele>375.15</ele>
  <time>2026-09-01T19:57:31Z</time>
  <course>305.43</course>
  <speed>26.31776016305339</speed>
  <fix>3d</fix>
</trkpt>
<trkpt lat="-27.2678224" lon="151.290488">
  <ele>374.87</ele>
  <time>2026-09-01T19:57:31Z</time>
  <course>309.6</course>
  <speed>26.37</speed>
  <fix>3d</fix>
</trkpt>
<trkpt lat="-27.2677845" lon="151.2904252">
  <ele>375.25</ele>
  <time>2026-09-01T19:57:31Z</time>
  <course>302.42</course>
  <speed>26.294657251997027</speed>
  <fix>3d</fix>
</trkpt>
<trkpt lat="-27.2678224" lon="151.290488">
  <ele>374.87</ele>
  <time>2026-09-01T19:57:31Z</time>
  <course>309.6</course>
  <speed>26.37</speed>
  <fix>3d</fix>
</trkpt>
<trkpt lat="-27.267773" lon="151.2904023">
  <ele>375.34</ele>
  <time>2026-09-01T19:57:31Z</time>
  <course>299.55</course>
  <speed>26.256046922566238</speed>
  <fix>3d</fix>
</trkpt>
<trkpt lat="-27.2677942" lon="151.2904452">
  <ele>375.03</ele>
  <time>2026-09-01T19:57:31Z</time>
  <course>303.46</course>
  <speed>26.36</speed>
  <fix>3d</fix>
</trkpt>
<trkpt lat="-27.2677625" lon="151.2903787">
  <ele>375.43</ele>
  <time>2026-09-01T19:57:31Z</time>
  <course>296.6</course>
  <speed>26.229573004530593</speed>
  <fix>3d</fix>
</trkpt>
<trkpt lat="-27.2677942" lon="151.2904452">
  <ele>375.03</ele>
  <time>2026-09-01T19:57:31Z</time>
  <course>303.46</course>
  <speed>26.36</speed>
  <fix>3d</fix>
</trkpt>
<trkpt lat="-27.2677531" lon="151.2903545">
  <ele>375.52</ele>
  <time>2026-09-01T19:57:31Z</time>
  <course>293.83</course>
  <speed>26.197900679252907</speed>
  <fix>3d</fix>
</trkpt>
<trkpt lat="-27.2677702" lon="151.2903992">
  <ele>375.2</ele>
  <time>2026-09-01T19:57:31Z</time>
  <course>297.43</course>
  <speed>26.33</speed>
  <fix>3d</fix>
</trkpt>
<trkpt lat="-27.2677448" lon="151.2903297">
  <ele>375.6</ele>
  <time>2026-09-01T19:57:31Z</time>
  <course>291.14</course>
  <speed>26.16630275755442</speed>
  <fix>3d</fix>
</trkpt>
<trkpt lat="-27.2677702" lon="151.2903992">
  <ele>375.2</ele>
  <time>2026-09-01T19:57:31Z</time>
  <course>297.43</course>
  <speed>26.33</speed>
  <fix>3d</fix>
</trkpt>
<trkpt lat="-27.2677375" lon="151.2903045">
  <ele>375.67</ele>
  <time>2026-09-01T19:57:31Z</time>
  <course>288.36</course>
  <speed>26.14160859625895</speed>
  <fix>3d</fix>
</trkpt>
<trkpt lat="-27.2677506" lon="151.2903508">
  <ele>375.35</ele>
  <time>2026-09-01T19:57:31Z</time>
  <course>291.64</course>
  <speed>26.29</speed>
  <fix>3d</fix>
</trkpt>
<trkpt lat="-27.2677313" lon="151.2902789">
  <ele>375.73</ele>
  <time>2026-09-01T19:57:31Z</time>
  <course>285.67</course>
  <speed>26.107447213391048</speed>
  <fix>3d</fix>
</trkpt>
<trkpt lat="-27.2677506" lon="151.2903508">
  <ele>375.35</ele>
  <time>2026-09-01T19:57:31Z</time>
  <course>291.64</course>
  <speed>26.29</speed>
  <fix>3d</fix>
</trkpt>
<trkpt lat="-27.2677262" lon="151.2902531">
  <ele>375.79</ele>
  <time>2026-09-01T19:57:31Z</time>
  <course>283.08</course>
  <speed>26.0783147461641</speed>
  <fix>3d</fix>
</trkpt>
<trkpt lat="-27.2677354" lon="151.2903006">
  <ele>375.49</ele>
  <time>2026-09-01T19:57:31Z</time>
  <course>286.04</course>
  <speed>26.23</speed>
  <fix>3d</fix>
</trkpt>
<trkpt lat="-27.2677222" lon="151.290227">
  <ele>375.83</ele>
  <time>2026-09-01T19:57:31Z</time>
  <course>280.4</course>
  <speed>26.0470113448741</speed>
  <fix>3d</fix>
</trkpt>
<trkpt lat="-27.2677354" lon="151.2903006">
  <ele>375.49</ele>
  <time>2026-09-01T19:57:31Z</time>
  <course>286.04</course>
  <speed>26.23</speed>
  <fix>3d</fix>
</trkpt>
<trkpt lat="-27.2677193" lon="151.2902008">
  <ele>375.87</ele>
  <time>2026-09-01T19:57:31Z</time>
  <course>277.78</course>
  <speed>26.011385968456196</speed>
  <fix>3d</fix>
</trkpt>
<trkpt lat="-27.2677245" lon="151.2902492">
  <ele>375.61</ele>
  <time>2026-09-01T19:57:31Z</time>
  <course>280.61</course>
  <speed>26.16</speed>
  <fix>3d</fix>
</trkpt>
<trkpt lat="-27.2677174" lon="151.2901742">
  <ele>375.9</ele>
  <time>2026-09-01T19:57:31Z</time>
  <course>275.24</course>
  <speed>25.964086735335023</speed>
  <fix>3d</fix>
</trkpt>
<trkpt lat="-27.2677245" lon="151.2902492">
  <ele>375.61</ele>
  <time>2026-09-01T19:57:31Z</time>
  <course>280.61</course>
  <speed>26.16</speed>
  <fix>3d</fix>
</trkpt>
<trkpt lat="-27.2677166" lon="151.2901479">
  <ele>375.92</ele>
  <time>2026-09-01T19:57:31Z</time>
  <course>272.71</course>
  <speed>25.93055726358383</speed>
  <fix>3d</fix>
</trkpt>
<trkpt lat="-27.267718" lon="151.2901969">
  <ele>375.69</ele>
  <time>2026-09-01T19:57:31Z</time>
  <course>275.3</course>
  <speed>26.08</speed>
  <fix>3d</fix>
</trkpt>
<trkpt lat="-27.2677169" lon="151.2901216">
  <ele>375.93</ele>
  <time>2026-09-01T19:57:31Z</time>
  <course>270.29</course>
  <speed>25.87744384594429</speed>
  <fix>3d</fix>
</trkpt>
<trkpt lat="-27.267718" lon="151.2901969">
  <ele>375.69</ele>
  <time>2026-09-01T19:57:31Z</time>
  <course>275.3</course>
  <speed>26.08</speed>
  <fix>3d</fix>
</trkpt>
<trkpt lat="-27.2677182" lon="151.2900954">
  <ele>375.94</ele>
  <time>2026-09-01T19:57:31Z</time>
  <course>267.95</course>
  <speed>25.83068136925544</speed>
  <fix>3d</fix>
</trkpt>
<trkpt lat="-27.2677158" lon="151.2901444">
  <ele>375.73</ele>
  <time>2026-09-01T19:57:31Z</time>
  <course>270.13</course>
  <speed>25.99</speed>
  <fix>3d</fix>
</trkpt>
<trkpt lat="-27.2677204" lon="151.2900696">
  <ele>375.93</ele>
  <time>2026-09-01T19:57:31Z</time>
  <course>265.67</course>
  <speed>25.77349413641852</speed>
  <fix>3d</fix>
</trkpt>
<trkpt lat="-27.2677158" lon="151.2901444">
  <ele>375.73</ele>
  <time>2026-09-01T19:57:31Z</time>
  <course>270.13</course>
  <speed>25.99</speed>
  <fix>3d</fix>
</trkpt>
<trkpt lat="-27.2677235" lon="151.2900439">
  <ele>375.92</ele>
  <time>2026-09-01T19:57:31Z</time>
  <course>263.42</course>
  <speed>25.714140078952667</speed>
  <fix>3d</fix>
</trkpt>
<trkpt lat="-27.2677176" lon="151.290092">
  <ele>375.75</ele>
  <time>2026-09-01T19:57:31Z</time>
  <course>265.22</course>
  <speed>25.89</speed>
  <fix>3d</fix>
</trkpt>
<trkpt lat="-27.2677274" lon="151.2900184">
  <ele>375.9</ele>
  <time>2026-09-01T19:57:31Z</time>
  <course>261.27</course>
  <speed>25.64806815337171</speed>
  <fix>3d</fix>
</trkpt>
<trkpt lat="-27.2677176" lon="151.290092">
  <ele>375.75</ele>
  <time>2026-09-01T19:57:31Z</time>
  <course>265.22</course>
  <speed>25.89</speed>
  <fix>3d</fix>
</trkpt>
<trkpt lat="-27.2677323" lon="151.2899932">
  <ele>375.87</ele>
  <time>2026-09-01T19:57:31Z</time>
  <course>259.19</course>
  <speed>25.571847801830828</speed>
  <fix>3d</fix>
</trkpt>
<trkpt lat="-27.2677234" lon="151.2900402">
  <ele>375.72</ele>
  <time>2026-09-01T19:57:31Z</time>
  <course>260.6</course>
  <speed>25.77</speed>
  <fix>3d</fix>
</trkpt>
<trkpt lat="-27.267738" lon="151.2899681">
  <ele>375.82</ele>
  <time>2026-09-01T19:57:31Z</time>
  <course>257.21</course>
  <speed>25.5016430843191</speed>
  <fix>3d</fix>
</trkpt>
<trkpt lat="-27.2677234" lon="151.2900402">
  <ele>375.72</ele>
  <time>2026-09-01T19:57:31Z</time>
  <course>260.6</course>
  <speed>25.77</speed>
  <fix>3d</fix>
</trkpt>
<trkpt lat="-27.2677444" lon="151.2899436">
  <ele>375.77</ele>
  <time>2026-09-01T19:57:31Z</time>
  <course>255.34</course>
  <speed>25.425029006866442</speed>
  <fix>3d</fix>
</trkpt>
<trkpt lat="-27.2677327" lon="151.2899893">
  <ele>375.66</ele>
  <time>2026-09-01T19:57:31Z</time>
  <course>256.27</course>
  <speed>25.65</speed>
  <fix>3d</fix>
</trkpt>
<trkpt lat="-27.2677515" lon="151.2899193">
  <ele>375.7</ele>
  <time>2026-09-01T19:57:31Z</time>
  <course>253.55</course>
  <speed>25.348737641152862</speed>
  <fix>3d</fix>
</trkpt>
<trkpt lat="-27.2677327" lon="151.2899893">
  <ele>375.66</ele>
  <time>2026-09-01T19:57:31Z</time>
  <course>256.27</course>
  <speed>25.65</speed>
  <fix>3d</fix>
</trkpt>
<trkpt lat="-27.2677593" lon="151.2898954">
  <ele>375.61</ele>
  <time>2026-09-01T19:57:31Z</time>
  <course>251.81</course>
  <speed>25.275015331350446</speed>
  <fix>3d</fix>
</trkpt>
<trkpt lat="-27.2677452" lon="151.2899395">
  <ele>375.56</ele>
  <time>2026-09-01T19:57:31Z</time>
  <course>252.26</course>
  <speed>25.52</speed>
  <fix>3d</fix>
</trkpt>
<trkpt lat="-27.2677677" lon="151.2898718">
  <ele>375.51</ele>
  <time>2026-09-01T19:57:31Z</time>
  <course>250.16</course>
  <speed>25.206253192412397</speed>
  <fix>3d</fix>
</trkpt>
<trkpt lat="-27.2677452" lon="151.2899395">
  <ele>375.56</ele>
  <time>2026-09-01T19:57:31Z</time>
  <course>252.26</course>
  <speed>25.52</speed>
  <fix>3d</fix>
</trkpt>
<trkpt lat="-27.2677767" lon="151.2898484">
  <ele>375.39</ele>
  <time>2026-09-01T19:57:31Z</time>
  <course>248.61</course>
  <speed>25.142680843537747</speed>
  <fix>3d</fix>
</trkpt>
<trkpt lat="-27.2677605" lon="151.289891">
  <ele>375.4</ele>
  <time>2026-09-01T19:57:31Z</time>
  <course>248.63</course>
  <speed>25.38</speed>
  <fix>3d</fix>
</trkpt>
<trkpt lat="-27.2677863" lon="151.2898254">
  <ele>375.25</ele>
  <time>2026-09-01T19:57:31Z</time>
  <course>247.1</course>
  <speed>25.081371573341038</speed>
  <fix>3d</fix>
</trkpt>
<trkpt lat="-27.2677605" lon="151.289891">
  <ele>375.4</ele>
  <time>2026-09-01T19:57:31Z</time>
  <course>248.63</course>
  <speed>25.38</speed>
  <fix>3d</fix>
</trkpt>
<trkpt lat="-27.2677964" lon="151.2898026">
  <ele>375.1</ele>
  <time>2026-09-01T19:57:31Z</time>
  <course>245.62</course>
  <speed>25.02875945787166</speed>
  <fix>3d</fix>
</trkpt>
<trkpt lat="-27.2677784" lon="151.2898439">
  <ele>375.18</ele>
  <time>2026-09-01T19:57:31Z</time>
  <course>245.33</course>
  <speed>25.25</speed>
  <fix>3d</fix>
</trkpt>
<trkpt lat="-27.267807" lon="151.2897802">
  <ele>374.94</ele>
  <time>2026-09-01T19:57:31Z</time>
  <course>244.16</course>
  <speed>24.982667992029995</speed>
  <fix>3d</fix>
</trkpt>
<trkpt lat="-27.2677784" lon="151.2898439">
  <ele>375.18</ele>
  <time>2026-09-01T19:57:31Z</time>
  <course>245.33</course>
  <speed>25.25</speed>
  <fix>3d</fix>
</trkpt>
<trkpt lat="-27.2678182" lon="151.2897581">
  <ele>374.76</ele>
  <time>2026-09-01T19:57:31Z</time>
  <course>242.77</course>
  <speed>24.941635872572594</speed>
  <fix>3d</fix>
</trkpt>
<trkpt lat="-27.2677983" lon="151.2897982">
  <ele>374.91</ele>
  <time>2026-09-01T19:57:31Z</time>
  <course>242.32</course>
  <speed>25.14</speed>
  <fix>3d</fix>
</trkpt>
<trkpt lat="-27.2678297" lon="151.2897363">
  <ele>374.57</ele>
  <time>2026-09-01T19:57:31Z</time>
  <course>241.47</course>
  <speed>24.899257017027637</speed>
  <fix>3d</fix>
</trkpt>
<trkpt lat="-27.2677983" lon="151.2897982">
  <ele>374.91</ele>
  <time>2026-09-01T19:57:31Z</time>
  <course>242.32</course>
  <speed>25.14</speed>
  <fix>3d</fix>
</trkpt>
<trkpt lat="-27.2678417" lon="151.2897148">
  <ele>374.37</ele>
  <time>2026-09-01T19:57:31Z</time>
  <course>240.19</course>
  <speed>24.876052741542416</speed>
  <fix>3d</fix>
</trkpt>
<trkpt lat="-27.2678202" lon="151.2897539">
  <ele>374.58</ele>
  <time>2026-09-01T19:57:31Z</time>
  <course>239.54</course>
  <speed>25.03</speed>
  <fix>3d</fix>
</trkpt>
<trkpt lat="-27.267854" lon="151.2896937">
  <ele>374.16</ele>
  <time>2026-09-01T19:57:31Z</time>
  <course>238.95</course>
  <speed>24.84806833538575</speed>
  <fix>3d</fix>
</trkpt>
<trkpt lat="-27.2678202" lon="151.2897539">
  <ele>374.58</ele>
  <time>2026-09-01T19:57:31Z</time>
  <course>239.54</course>
  <speed>25.03</speed>
  <fix>3d</fix>
</trkpt>
<trkpt lat="-27.2678668" lon="151.2896729">
  <ele>373.94</ele>
  <time>2026-09-01T19:57:31Z</time>
  <course>237.71</course>
  <speed>24.825271398315063</speed>
  <fix>3d</fix>
</trkpt>
<trkpt lat="-27.2678439" lon="151.2897109">
  <ele>374.21</ele>
  <time>2026-09-01T19:57:31Z</time>
  <course>236.97</course>
  <speed>24.95</speed>
  <fix>3d</fix>
</trkpt>
<trkpt lat="-27.2678798" lon="151.2896524">
  <ele>373.71</ele>
  <time>2026-09-01T19:57:31Z</time>
  <course>236.52</course>
  <speed>24.817383020777996</speed>
  <fix>3d</fix>
</trkpt>
<trkpt lat="-27.2678439" lon="151.2897109">
  <ele>374.21</ele>
  <time>2026-09-01T19:57:31Z</time>
  <course>236.97</course>
  <speed>24.95</speed>
  <fix>3d</fix>
</trkpt>
<trkpt lat="-27.2678933" lon="151.2896322">
  <ele>373.48</ele>
  <time>2026-09-01T19:57:31Z</time>
  <course>235.37</course>
  <speed>24.819010858614007</speed>
  <fix>3d</fix>
</trkpt>
<trkpt lat="-27.267869" lon="151.2896692">
  <ele>373.79</ele>
  <time>2026-09-01T19:57:31Z</time>
  <course>234.59</course>
  <speed>24.9</speed>
  <fix>3d</fix>
</trkpt>
<trkpt lat="-27.2679071" lon="151.2896123">
  <ele>373.24</ele>
  <time>2026-09-01T19:57:31Z</time>
  <course>234.26</course>
  <speed>24.819317073602164</speed>
  <fix>3d</fix>
</trkpt>
<trkpt lat="-27.267869" lon="151.2896692">
  <ele>373.79</ele>
  <time>2026-09-01T19:57:31Z</time>
  <course>234.59</course>
  <speed>24.9</speed>
  <fix>3d</fix>
</trkpt>
<trkpt lat="-27.2679212" lon="151.2895926">
  <ele>373.01</ele>
  <time>2026-09-01T19:57:31Z</time>
  <course>233.16</course>
  <speed>24.823009487167347</speed>
  <fix>3d</fix>
</trkpt>
<trkpt lat="-27.2678956" lon="151.2896288">
  <ele>373.35</ele>
  <time>2026-09-01T19:57:31Z</time>
  <course>232.37</course>
  <speed>24.87</speed>
  <fix>3d</fix>
</trkpt>
<trkpt lat="-27.2679356" lon="151.2895733">
  <ele>372.78</ele>
  <time>2026-09-01T19:57:31Z</time>
  <course>232.11</course>
  <speed>24.835420270251117</speed>
  <fix>3d</fix>
</trkpt>
<trkpt lat="-27.2678956" lon="151.2896288">
  <ele>373.35</ele>
  <time>2026-09-01T19:57:31Z</time>
  <course>232.37</course>
  <speed>24.87</speed>
  <fix>3d</fix>
</trkpt>
<trkpt lat="-27.2679503" lon="151.2895542">
  <ele>372.55</ele>
  <time>2026-09-01T19:57:31Z</time>
  <course>231.09</course>
  <speed>24.849219303632058</speed>
  <fix>3d</fix>
</trkpt>
<trkpt lat="-27.2679235" lon="151.2895897">
  <ele>372.9</ele>
  <time>2026-09-01T19:57:31Z</time>
  <course>230.33</course>
  <speed>24.87</speed>
  <fix>3d</fix>
</trkpt>
<trkpt lat="-27.2679652" lon="151.2895354">
  <ele>372.32</ele>
  <time>2026-09-01T19:57:31Z</time>
  <course>230.15</course>
  <speed>24.877479775893697</speed>
  <fix>3d</fix>
</trkpt>
<trkpt lat="-27.2679235" lon="151.2895897">
  <ele>372.9</ele>
  <time>2026-09-01T19:57:31Z</time>
  <course>230.33</course>
  <speed>24.87</speed>
  <fix>3d</fix>
</trkpt>
<trkpt lat="-27.2679805" lon="151.2895167">
  <ele>372.1</ele>
  <time>2026-09-01T19:57:31Z</time>
  <course>229.23</course>
  <speed>24.905103894583537</speed>
  <fix>3d</fix>
</trkpt>
<trkpt lat="-27.2679526" lon="151.2895515">
  <ele>372.46</ele>
  <time>2026-09-01T19:57:31Z</time>
  <course>228.47</course>
  <speed>24.89</speed>
  <fix>3d</fix>
</trkpt>
<trkpt lat="-27.267996" lon="151.2894983">
  <ele>371.89</ele>
  <time>2026-09-01T19:57:31Z</time>
  <course>228.39</course>
  <speed>24.93085838875188</speed>
  <fix>3d</fix>
</trkpt>
<trkpt lat="-27.2679526" lon="151.2895515">
  <ele>372.46</ele>
  <time>2026-09-01T19:57:31Z</time>
  <course>228.47</course>
  <speed>24.89</speed>
  <fix>3d</fix>
</trkpt>
<trkpt lat="-27.2680116" lon="151.2894803">
  <ele>371.69</ele>
  <time>2026-09-01T19:57:31Z</time>
  <course>227.54</course>
  <speed>24.95464085095195</speed>
  <fix>3d</fix>
</trkpt>
<trkpt lat="-27.2679828" lon="151.2895143">
  <ele>372.03</ele>
  <time>2026-09-01T19:57:31Z</time>
  <course>226.79</course>
  <speed>24.93</speed>
  <fix>3d</fix>
</trkpt>
<trkpt lat="-27.2680274" lon="151.2894624">
  <ele>371.5</ele>
  <time>2026-09-01T19:57:31Z</time>
  <course>226.8</course>
  <speed>24.98929770921944</speed>
  <fix>3d</fix>
</trkpt>
<trkpt lat="-27.2679828" lon="151.2895143">
  <ele>372.03</ele>
  <time>2026-09-01T19:57:31Z</time>
  <course>226.79</course>
  <speed>24.93</speed>
  <fix>3d</fix>
</trkpt>
<trkpt lat="-27.2680433" lon="151.2894448">
  <ele>371.33</ele>
  <time>2026-09-01T19:57:31Z</time>
  <course>226.08</course>
  <speed>25.0057953282834</speed>
  <fix>3d</fix>
</trkpt>
<trkpt lat="-27.268014" lon="151.2894779">
  <ele>371.63</ele>
  <time>2026-09-01T19:57:31Z</time>
  <course>225.31</course>
  <speed>24.98</speed>
  <fix>3d</fix>
</trkpt>
<trkpt lat="-27.2680595" lon="151.2894274">
  <ele>371.16</ele>
  <time>2026-09-01T19:57:32Z</time>
  <course>225.4</course>
  <speed>25.031725869384235</speed>
  <fix>3d</fix>
</trkpt>
<trkpt lat="-27.268014" lon="151.2894779">
  <ele>371.63</ele>
  <time>2026-09-01T19:57:32Z</time>
  <course>225.31</course>
  <speed>24.98</speed>
  <fix>3d</fix>
</trkpt>
<trkpt lat="-27.2680759" lon="151.2894101">
  <ele>371.0</ele>
  <time>2026-09-01T19:57:32Z</time>
  <course>224.85</course>
  <speed>25.059616916465426</speed>
  <fix>3d</fix>
</trkpt>
<trkpt lat="-27.268046" lon="151.2894423">
  <ele>371.27</ele>
  <time>2026-09-01T19:57:32Z</time>
  <course>224.04</course>
  <speed>25.03</speed>
  <fix>3d</fix>
</trkpt>
<trkpt lat="-27.2680924" lon="151.2893928">
  <ele>370.85</ele>
  <time>2026-09-01T19:57:32Z</time>
  <course>224.34</course>
  <speed>25.081120389647666</speed>
  <fix>3d</fix>
</trkpt>
<trkpt lat="-27.268046" lon="151.2894423">
  <ele>371.27</ele>
  <time>2026-09-01T19:57:32Z</time>
  <course>224.04</course>
  <speed>25.03</speed>
  <fix>3d</fix>
</trkpt>
<trkpt lat="-27.2681091" lon="151.2893757">
  <ele>370.71</ele>
  <time>2026-09-01T19:57:32Z</time>
  <course>223.86</course>
  <speed>25.117611351400438</speed>
  <fix>3d</fix>
</trkpt>
<trkpt lat="-27.2680786" lon="151.2894075">
  <ele>370.95</ele>
  <time>2026-09-01T19:57:32Z</time>
  <course>222.97</course>
  <speed>25.09</speed>
  <fix>3d</fix>
</trkpt>
<trkpt lat="-27.2681259" lon="151.2893587">
  <ele>370.59</ele>
  <time>2026-09-01T19:57:32Z</time>
  <course>223.4</course>
  <speed>25.14719268626222</speed>
  <fix>3d</fix>
</trkpt>
<trkpt lat="-27.2680786" lon="151.2894075">
  <ele>370.95</ele>
  <time>2026-09-01T19:57:32Z</time>
  <course>222.97</course>
  <speed>25.09</speed>
  <fix>3d</fix>
</trkpt>
<trkpt lat="-27.2681428" lon="151.2893417">
  <ele>370.47</ele>
  <time>2026-09-01T19:57:32Z</time>
  <course>222.97</course>
  <speed>25.169459668415612</speed>
  <fix>3d</fix>
</trkpt>
<trkpt lat="-27.2681119" lon="151.2893732">
  <ele>370.66</ele>
  <time>2026-09-01T19:57:32Z</time>
  <course>222.11</course>
  <speed>25.15</speed>
  <fix>3d</fix>
</trkpt>
<trkpt lat="-27.2681599" lon="151.2893249">
  <ele>370.36</ele>
  <time>2026-09-01T19:57:32Z</time>
  <course>222.56</course>
  <speed>25.18498759181747</speed>
  <fix>3d</fix>
</trkpt>
<trkpt lat="-27.2681119" lon="151.2893732">
  <ele>370.66</ele>
  <time>2026-09-01T19:57:32Z</time>
  <course>222.11</course>
  <speed>25.15</speed>
  <fix>3d</fix>
</trkpt>
<trkpt lat="-27.268177" lon="151.2893081">
  <ele>370.27</ele>
  <time>2026-09-01T19:57:32Z</time>
  <course>222.27</course>
  <speed>25.206780833735987</speed>
  <fix>3d</fix>
</trkpt>
<trkpt lat="-27.2681456" lon="151.2893393">
  <ele>370.43</ele>
  <time>2026-09-01T19:57:32Z</time>
  <course>221.43</course>
  <speed>25.19</speed>
  <fix>3d</fix>
</trkpt>
<trkpt lat="-27.2681942" lon="151.2892913">
  <ele>370.18</ele>
  <time>2026-09-01T19:57:32Z</time>
  <course>222.01</course>
  <speed>25.234549728497235</speed>
  <fix>3d</fix>
</trkpt>
<trkpt lat="-27.2681456" lon="151.2893393">
  <ele>370.43</ele>
  <time>2026-09-01T19:57:32Z</time>
  <course>221.43</course>
  <speed>25.19</speed>
  <fix>3d</fix>
</trkpt>
<trkpt lat="-27.2682115" lon="151.2892747">
  <ele>370.1</ele>
  <time>2026-09-01T19:57:32Z</time>
  <course>221.75</course>
  <speed>25.25504504054586</speed>
  <fix>3d</fix>
</trkpt>
<trkpt lat="-27.2681797" lon="151.2893058">
  <ele>370.24</ele>
  <time>2026-09-01T19:57:32Z</time>
  <course>220.9</course>
  <speed>25.23</speed>
  <fix>3d</fix>
</trkpt>
<trkpt lat="-27.2682288" lon="151.2892581">
  <ele>370.03</ele>
  <time>2026-09-01T19:57:32Z</time>
  <course>221.49</course>
  <speed>25.27468496341745</speed>
  <fix>3d</fix>
</trkpt>
<trkpt lat="-27.2681797" lon="151.2893058">
  <ele>370.24</ele>
  <time>2026-09-01T19:57:32Z</time>
  <course>220.9</course>
  <speed>25.23</speed>
  <fix>3d</fix>
</trkpt>
<trkpt lat="-27.2682462" lon="151.2892415">
  <ele>369.97</ele>
  <time>2026-09-01T19:57:32Z</time>
  <course>221.31</course>
  <speed>25.286885929271715</speed>
  <fix>3d</fix>
</trkpt>
<trkpt lat="-27.2682141" lon="151.2892725">
  <ele>370.09</ele>
  <time>2026-09-01T19:57:32Z</time>
  <course>220.51</course>
  <speed>25.27</speed>
  <fix>3d</fix>
</trkpt>
<trkpt lat="-27.2682636" lon="151.2892249">
  <ele>369.92</ele>
  <time>2026-09-01T19:57:32Z</time>
  <course>221.21</course>
  <speed>25.304501575806626</speed>
  <fix>3d</fix>
</trkpt>
<trkpt lat="-27.2682141" lon="151.2892725">
  <ele>370.09</ele>
  <time>2026-09-01T19:57:32Z</time>
  <course>220.51</course>
  <speed>25.27</speed>
  <fix>3d</fix>
</trkpt>
<trkpt lat="-27.2682811" lon="151.2892084">
  <ele>369.87</ele>
  <time>2026-09-01T19:57:32Z</time>
  <course>221.08</course>
  <speed>25.322183950046647</speed>
  <fix>3d</fix>
</trkpt>
<trkpt lat="-27.2682487" lon="151.2892394">
  <ele>369.97</ele>
  <time>2026-09-01T19:57:32Z</time>
  <course>220.24</course>
  <speed>25.3</speed>
  <fix>3d</fix>
</trkpt>
<trkpt lat="-27.2682985" lon="151.2891919">
  <ele>369.83</ele>
  <time>2026-09-01T19:57:32Z</time>
  <course>220.94</course>
  <speed>25.33105011640852</speed>
  <fix>3d</fix>
</trkpt>
<trkpt lat="-27.2682487" lon="151.2892394">
  <ele>369.97</ele>
  <time>2026-09-01T19:57:32Z</time>
  <course>220.24</course>
  <speed>25.3</speed>
  <fix>3d</fix>
</trkpt>
<trkpt lat="-27.268316" lon="151.2891754">
  <ele>369.8</ele>
  <time>2026-09-01T19:57:32Z</time>
  <course>220.84</course>
  <speed>25.33993291230267</speed>
  <fix>3d</fix>
</trkpt>
<trkpt lat="-27.2682835" lon="151.2892064">
  <ele>369.88</ele>
  <time>2026-09-01T19:57:32Z</time>
  <course>220.07</course>
  <speed>25.33</speed>
  <fix>3d</fix>
</trkpt>
<trkpt lat="-27.2683333" lon="151.2891591">
  <ele>369.77</ele>
  <time>2026-09-01T19:57:32Z</time>
  <course>220.74</course>
  <speed>25.34883232024702</speed>
  <fix>3d</fix>
</trkpt>
<trkpt lat="-27.2682835" lon="151.2892064">
  <ele>369.88</ele>
  <time>2026-09-01T19:57:32Z</time>
  <course>220.07</course>
  <speed>25.33</speed>
  <fix>3d</fix>
</trkpt>
<trkpt lat="-27.2683508" lon="151.2891427">
  <ele>369.76</ele>
  <time>2026-09-01T19:57:32Z</time>
  <course>220.67</course>
  <speed>25.356498180939735</speed>
  <fix>3d</fix>
</trkpt>
<trkpt lat="-27.2683183" lon="151.2891735">
  <ele>369.81</ele>
  <time>2026-09-01T19:57:32Z</time>
  <course>219.98</course>
  <speed>25.35</speed>
  <fix>3d</fix>
</trkpt>
<trkpt lat="-27.2683682" lon="151.2891263">
  <ele>369.74</ele>
  <time>2026-09-01T19:57:32Z</time>
  <course>220.68</course>
  <speed>25.357748322751373</speed>
  <fix>3d</fix>
</trkpt>
<trkpt lat="-27.2683183" lon="151.2891735">
  <ele>369.81</ele>
  <time>2026-09-01T19:57:32Z</time>
  <course>219.98</course>
  <speed>25.35</speed>
  <fix>3d</fix>
</trkpt>
<trkpt lat="-27.2683855" lon="151.28911">
  <ele>369.74</ele>
  <time>2026-09-01T19:57:32Z</time>
  <course>220.68</course>
  <speed>25.35133329827053</speed>
  <fix>3d</fix>
</trkpt>
<trkpt lat="-27.2683533" lon="151.2891406">
  <ele>369.78</ele>
  <time>2026-09-01T19:57:32Z</time>
  <course>219.92</course>
  <speed>25.36</speed>
  <fix>3d</fix>
</trkpt>
<trkpt lat="-27.2684031" lon="151.2890935">
  <ele>369.74</ele>
  <time>2026-09-01T19:57:32Z</time>
  <course>220.67</course>
  <speed>25.35133329827053</speed>
  <fix>3d</fix>
</trkpt>
<trkpt lat="-27.2683533" lon="151.2891406">
  <ele>369.78</ele>
  <time>2026-09-01T19:57:32Z</time>
  <course>219.92</course>
  <speed>25.36</speed>
  <fix>3d</fix>
</trkpt>
<trkpt lat="-27.2684204" lon="151.2890772">
  <ele>369.74</ele>
  <time>2026-09-01T19:57:32Z</time>
  <course>220.64</course>
  <speed>25.34366192956338</speed>
  <fix>3d</fix>
</trkpt>
<trkpt lat="-27.2683883" lon="151.2891076">
  <ele>369.77</ele>
  <time>2026-09-01T19:57:32Z</time>
  <course>219.91</course>
  <speed>25.38</speed>
  <fix>3d</fix>
</trkpt>
<trkpt lat="-27.2684379" lon="151.2890607">
  <ele>369.75</ele>
  <time>2026-09-01T19:57:32Z</time>
  <course>220.62</course>
  <speed>25.342411092869597</speed>
  <fix>3d</fix>
</trkpt>
<trkpt lat="-27.2683883" lon="151.2891076">
  <ele>369.77</ele>
  <time>2026-09-01T19:57:32Z</time>
  <course>219.91</course>
  <speed>25.38</speed>
  <fix>3d</fix>
</trkpt>
<trkpt lat="-27.2684554" lon="151.2890443">
  <ele>369.77</ele>
  <time>2026-09-01T19:57:32Z</time>
  <course>220.59</course>
  <speed>25.334744916813353</speed>
  <fix>3d</fix>
</trkpt>
<trkpt lat="-27.2684233" lon="151.2890746">
  <ele>369.77</ele>
  <time>2026-09-01T19:57:32Z</time>
  <course>219.94</course>
  <speed>25.38</speed>
  <fix>3d</fix>
</trkpt>
<trkpt lat="-27.2684728" lon="151.2890278">
  <ele>369.79</ele>
  <time>2026-09-01T19:57:32Z</time>
  <course>220.58</course>
  <speed>25.341168086731912</speed>
  <fix>3d</fix>
</trkpt>
<trkpt lat="-27.2684233" lon="151.2890746">
  <ele>369.77</ele>
  <time>2026-09-01T19:57:32Z</time>
  <course>219.94</course>
  <speed>25.38</speed>
  <fix>3d</fix>
</trkpt>
<trkpt lat="-27.2684903" lon="151.2890113">
  <ele>369.81</ele>
  <time>2026-09-01T19:57:32Z</time>
  <course>220.65</course>
  <speed>25.33993291230267</speed>
  <fix>3d</fix>
</trkpt>
<trkpt lat="-27.2684583" lon="151.2890416">
  <ele>369.8</ele>
  <time>2026-09-01T19:57:32Z</time>
  <course>219.99</course>
  <speed>25.39</speed>
  <fix>3d</fix>
</trkpt>
<trkpt lat="-27.2685078" lon="151.2889948">
  <ele>369.84</ele>
  <time>2026-09-01T19:57:32Z</time>
  <course>220.74</course>
  <speed>25.338705570727164</speed>
  <fix>3d</fix>
</trkpt>
<trkpt lat="-27.2684583" lon="151.2890416">
  <ele>369.8</ele>
  <time>2026-09-01T19:57:32Z</time>
  <course>219.99</course>
  <speed>25.39</speed>
  <fix>3d</fix>
</trkpt>
<trkpt lat="-27.2685253" lon="151.2889782">
  <ele>369.87</ele>
  <time>2026-09-01T19:57:32Z</time>
  <course>220.78</course>
  <speed>25.343924321225394</speed>
  <fix>3d</fix>
</trkpt>
<trkpt lat="-27.2684932" lon="151.2890087">
  <ele>369.84</ele>
  <time>2026-09-01T19:57:32Z</time>
  <course>220.06</course>
  <speed>25.39</speed>
  <fix>3d</fix>
</trkpt>
<trkpt lat="-27.2685428" lon="151.2889617">
  <ele>369.9</ele>
  <time>2026-09-01T19:57:32Z</time>
  <course>220.78</course>
  <speed>25.342716902494885</speed>
  <fix>3d</fix>
</trkpt>
<trkpt lat="-27.2684932" lon="151.2890087">
  <ele>369.84</ele>
  <time>2026-09-01T19:57:32Z</time>
  <course>220.06</course>
  <speed>25.39</speed>
  <fix>3d</fix>
</trkpt>
<trkpt lat="-27.2685602" lon="151.2889451">
  <ele>369.93</ele>
  <time>2026-09-01T19:57:32Z</time>
  <course>220.78</course>
  <speed>25.341517318424327</speed>
  <fix>3d</fix>
</trkpt>
<trkpt lat="-27.2685281" lon="151.2889756">
  <ele>369.89</ele>
  <time>2026-09-01T19:57:32Z</time>
  <course>220.14</course>
  <speed>25.39</speed>
  <fix>3d</fix>
</trkpt>
<trkpt lat="-27.2685777" lon="151.2889285">
  <ele>369.97</ele>
  <time>2026-09-01T19:57:32Z</time>
  <course>220.86</course>
  <speed>25.346778888055972</speed>
  <fix>3d</fix>
</trkpt>
<trkpt lat="-27.2685281" lon="151.2889756">
  <ele>369.89</ele>
  <time>2026-09-01T19:57:32Z</time>
  <course>220.14</course>
  <speed>25.39</speed>
  <fix>3d</fix>
</trkpt>
<trkpt lat="-27.2685952" lon="151.2889119">
  <ele>370.0</ele>
  <time>2026-09-01T19:57:32Z</time>
  <course>220.9</course>
  <speed>25.344427395386152</speed>
  <fix>3d</fix>
</trkpt>
<trkpt lat="-27.2685629" lon="151.2889425">
  <ele>369.95</ele>
  <time>2026-09-01T19:57:32Z</time>
  <course>220.23</course>
  <speed>25.38</speed>
  <fix>3d</fix>
</trkpt>
<trkpt lat="-27.2686126" lon="151.2888952">
  <ele>370.04</ele>
  <time>2026-09-01T19:57:32Z</time>
  <course>221.0</course>
  <speed>25.34326340469988</speed>
  <fix>3d</fix>
</trkpt>
<trkpt lat="-27.2685629" lon="151.2889425">
  <ele>369.95</ele>
  <time>2026-09-01T19:57:32Z</time>
  <course>220.23</course>
  <speed>25.38</speed>
  <fix>3d</fix>
</trkpt>
<trkpt lat="-27.26863" lon="151.2888786">
  <ele>370.08</ele>
  <time>2026-09-01T19:57:32Z</time>
  <course>221.05</course>
  <speed>25.340958940024347</speed>
  <fix>3d</fix>
</trkpt>
<trkpt lat="-27.2685977" lon="151.2889094">
  <ele>370.02</ele>
  <time>2026-09-01T19:57:32Z</time>
  <course>220.32</course>
  <speed>25.37</speed>
  <fix>3d</fix>
</trkpt>
<trkpt lat="-27.2686474" lon="151.2888619">
  <ele>370.11</ele>
  <time>2026-09-01T19:57:32Z</time>
  <course>221.11</course>
  <speed>25.332202825652573</speed>
  <fix>3d</fix>
</trkpt>
<trkpt lat="-27.2685977" lon="151.2889094">
  <ele>370.02</ele>
  <time>2026-09-01T19:57:32Z</time>
  <course>220.32</course>
  <speed>25.37</speed>
  <fix>3d</fix>
</trkpt>
<trkpt lat="-27.2686648" lon="151.2888452">
  <ele>370.15</ele>
  <time>2026-09-01T19:57:32Z</time>
  <course>221.15</course>
  <speed>25.323463428212186</speed>
  <fix>3d</fix>
</trkpt>
<trkpt lat="-27.2686324" lon="151.2888762">
  <ele>370.1</ele>
  <time>2026-09-01T19:57:32Z</time>
  <course>220.42</course>
  <speed>25.36</speed>
  <fix>3d</fix>
</trkpt>
<trkpt lat="-27.2686821" lon="151.2888286">
  <ele>370.19</ele>
  <time>2026-09-01T19:57:32Z</time>
  <course>221.14</course>
  <speed>25.322345862893506</speed>
  <fix>3d</fix>
</trkpt>
<trkpt lat="-27.2686324" lon="151.2888762">
  <ele>370.1</ele>
  <time>2026-09-01T19:57:32Z</time>
  <course>220.42</course>
  <speed>25.36</speed>
  <fix>3d</fix>
</trkpt>
<trkpt lat="-27.2686992" lon="151.2888121">
  <ele>370.23</ele>
  <time>2026-09-01T19:57:32Z</time>
  <course>221.18</course>
  <speed>25.313634665926585</speed>
  <fix>3d</fix>
</trkpt>
<trkpt lat="-27.2686671" lon="151.2888429">
  <ele>370.17</ele>
  <time>2026-09-01T19:57:32Z</time>
  <course>220.53</course>
  <speed>25.34</speed>
  <fix>3d</fix>
</trkpt>
<trkpt lat="-27.2687164" lon="151.2887955">
  <ele>370.27</ele>
  <time>2026-09-01T19:57:32Z</time>
  <course>221.24</course>
  <speed>25.29843671059538</speed>
  <fix>3d</fix>
</trkpt>
<trkpt lat="-27.2686671" lon="151.2888429">
  <ele>370.17</ele>
  <time>2026-09-01T19:57:32Z</time>
  <course>220.53</course>
  <speed>25.34</speed>
  <fix>3d</fix>
</trkpt>
<trkpt lat="-27.2687336" lon="151.288779">
  <ele>370.32</ele>
  <time>2026-09-01T19:57:32Z</time>
  <course>221.25</course>
  <speed>25.28216169555127</speed>
  <fix>3d</fix>
</trkpt>
<trkpt lat="-27.2687016" lon="151.2888096">
  <ele>370.25</ele>
  <time>2026-09-01T19:57:32Z</time>
  <course>220.62</course>
  <speed>25.33</speed>
  <fix>3d</fix>
</trkpt>
<trkpt lat="-27.2687507" lon="151.2887624">
  <ele>370.36</ele>
  <time>2026-09-01T19:57:32Z</time>
  <course>221.24</course>
  <speed>25.266984386744692</speed>
  <fix>3d</fix>
</trkpt>
<trkpt lat="-27.2687016" lon="151.2888096">
  <ele>370.25</ele>
  <time>2026-09-01T19:57:32Z</time>
  <course>220.62</course>
  <speed>25.33</speed>
  <fix>3d</fix>
</trkpt>
<trkpt lat="-27.2687679" lon="151.2887457">
  <ele>370.41</ele>
  <time>2026-09-01T19:57:32Z</time>
  <course>221.29</course>
  <speed>25.25181379624046</speed>
  <fix>3d</fix>
</trkpt>
<trkpt lat="-27.2687362" lon="151.2887762">
  <ele>370.33</ele>
  <time>2026-09-01T19:57:32Z</time>
  <course>220.7</course>
  <speed>25.31</speed>
  <fix>3d</fix>
</trkpt>
<trkpt lat="-27.268785" lon="151.2887291">
  <ele>370.45</ele>
  <time>2026-09-01T19:57:32Z</time>
  <course>221.36</course>
  <speed>25.24423102413698</speed>
  <fix>3d</fix>
</trkpt>
<trkpt lat="-27.2687362" lon="151.2887762">
  <ele>370.33</ele>
  <time>2026-09-01T19:57:32Z</time>
  <course>220.7</course>
  <speed>25.31</speed>
  <fix>3d</fix>
</trkpt>
<trkpt lat="-27.2688021" lon="151.2887126">
  <ele>370.48</ele>
  <time>2026-09-01T19:57:32Z</time>
  <course>221.46</course>
  <speed>25.22907053381079</speed>
  <fix>3d</fix>
</trkpt>
<trkpt lat="-27.2687707" lon="151.2887428">
  <ele>370.41</ele>
  <time>2026-09-01T19:57:32Z</time>
  <course>220.77</course>
  <speed>25.3</speed>
  <fix>3d</fix>
</trkpt>
<trkpt lat="-27.2688198" lon="151.2886954">
  <ele>370.52</ele>
  <time>2026-09-01T19:57:32Z</time>
  <course>221.45</course>
  <speed>25.22802013634839</speed>
  <fix>3d</fix>
</trkpt>
<trkpt lat="-27.2687707" lon="151.2887428">
  <ele>370.41</ele>
  <time>2026-09-01T19:57:32Z</time>
  <course>220.77</course>
  <speed>25.3</speed>
  <fix>3d</fix>
</trkpt>
<trkpt lat="-27.2688367" lon="151.288679">
  <ele>370.56</ele>
  <time>2026-09-01T19:57:32Z</time>
  <course>221.48</course>
  <speed>25.220446070599145</speed>
  <fix>3d</fix>
</trkpt>
<trkpt lat="-27.2688051" lon="151.2887093">
  <ele>370.49</ele>
  <time>2026-09-01T19:57:32Z</time>
  <course>220.82</course>
  <speed>25.29</speed>
  <fix>3d</fix>
</trkpt>
<trkpt lat="-27.2688538" lon="151.2886623">
  <ele>370.6</ele>
  <time>2026-09-01T19:57:32Z</time>
  <course>221.5</course>
  <speed>25.211838489090795</speed>
  <fix>3d</fix>
</trkpt>
<trkpt lat="-27.2688051" lon="151.2887093">
  <ele>370.49</ele>
  <time>2026-09-01T19:57:32Z</time>
  <course>220.82</course>
  <speed>25.29</speed>
  <fix>3d</fix>
</trkpt>
<trkpt lat="-27.2688709" lon="151.2886456">
  <ele>370.63</ele>
  <time>2026-09-01T19:57:32Z</time>
  <course>221.51</course>
  <speed>25.21081117298688</speed>
  <fix>3d</fix>
</trkpt>
<trkpt lat="-27.2688395" lon="151.2886759">
  <ele>370.56</ele>
  <time>2026-09-01T19:57:32Z</time>
  <course>220.87</course>
  <speed>25.29</speed>
  <fix>3d</fix>
</trkpt>
<trkpt lat="-27.2688881" lon="151.2886289">
  <ele>370.66</ele>
  <time>2026-09-01T19:57:32Z</time>
  <course>221.57</course>
  <speed>25.20979174844568</speed>
  <fix>3d</fix>
</trkpt>
<trkpt lat="-27.2688395" lon="151.2886759">
  <ele>370.56</ele>
  <time>2026-09-01T19:57:32Z</time>
  <course>220.87</course>
  <speed>25.29</speed>
  <fix>3d</fix>
</trkpt>
<trkpt lat="-27.2689054" lon="151.2886119">
  <ele>370.7</ele>
  <time>2026-09-01T19:57:32Z</time>
  <course>221.59</course>
  <speed>25.21633795776064</speed>
  <fix>3d</fix>
</trkpt>
<trkpt lat="-27.2688738" lon="151.2886424">
  <ele>370.63</ele>
  <time>2026-09-01T19:57:32Z</time>
  <course>220.92</course>
  <speed>25.28</speed>
  <fix>3d</fix>
</trkpt>
<trkpt lat="-27.2689222" lon="151.2885955">
  <ele>370.73</ele>
  <time>2026-09-01T19:57:32Z</time>
  <course>221.63</course>
  <speed>25.215330654187348</speed>
  <fix>3d</fix>
</trkpt>
<trkpt lat="-27.2688738" lon="151.2886424">
  <ele>370.63</ele>
  <time>2026-09-01T19:57:32Z</time>
  <course>220.92</course>
  <speed>25.28</speed>
  <fix>3d</fix>
</trkpt>
<trkpt lat="-27.2689394" lon="151.2885787">
  <ele>370.76</ele>
  <time>2026-09-01T19:57:32Z</time>
  <course>221.63</course>
  <speed>25.221883355530768</speed>
  <fix>3d</fix>
</trkpt>
<trkpt lat="-27.2689081" lon="151.2886089">
  <ele>370.69</ele>
  <time>2026-09-01T19:57:32Z</time>
  <course>220.97</course>
  <speed>25.28</speed>
  <fix>3d</fix>
</trkpt>
<trkpt lat="-27.2689566" lon="151.2885619">
  <ele>370.78</ele>
  <time>2026-09-01T19:57:32Z</time>
  <course>221.64</course>
  <speed>25.220888168341734</speed>
  <fix>3d</fix>
</trkpt>
<trkpt lat="-27.2689081" lon="151.2886089">
  <ele>370.69</ele>
  <time>2026-09-01T19:57:32Z</time>
  <course>220.97</course>
  <speed>25.28</speed>
  <fix>3d</fix>
</trkpt>
<trkpt lat="-27.2689738" lon="151.288545">
  <ele>370.81</ele>
  <time>2026-09-01T19:57:32Z</time>
  <course>221.72</course>
  <speed>25.22744735402296</speed>
  <fix>3d</fix>
</trkpt>
<trkpt lat="-27.2689424" lon="151.2885754">
  <ele>370.75</ele>
  <time>2026-09-01T19:57:32Z</time>
  <course>221.03</course>
  <speed>25.28</speed>
  <fix>3d</fix>
</trkpt>
<trkpt lat="-27.268991" lon="151.2885281">
  <ele>370.84</ele>
  <time>2026-09-01T19:57:32Z</time>
  <course>221.7</course>
  <speed>25.23302994093258</speed>
  <fix>3d</fix>
</trkpt>
<trkpt lat="-27.2689424" lon="151.2885754">
  <ele>370.75</ele>
  <time>2026-09-01T19:57:32Z</time>
  <course>221.03</course>
  <speed>25.28</speed>
  <fix>3d</fix>
</trkpt>
<trkpt lat="-27.2690082" lon="151.2885112">
  <ele>370.88</ele>
  <time>2026-09-01T19:57:32Z</time>
  <course>221.74</course>
  <speed>25.239597857335205</speed>
  <fix>3d</fix>
</trkpt>
<trkpt lat="-27.2689766" lon="151.2885418">
  <ele>370.81</ele>
  <time>2026-09-01T19:57:32Z</time>
  <course>221.08</course>
  <speed>25.27</speed>
  <fix>3d</fix>
</trkpt>
<trkpt lat="-27.2690253" lon="151.2884944">
  <ele>370.91</ele>
  <time>2026-09-01T19:57:32Z</time>
  <course>221.76</course>
  <speed>25.23205897266412</speed>
  <fix>3d</fix>
</trkpt>
<trkpt lat="-27.2689766" lon="151.2885418">
  <ele>370.81</ele>
  <time>2026-09-01T19:57:32Z</time>
  <course>221.08</course>
  <speed>25.27</speed>
  <fix>3d</fix>
</trkpt>
<trkpt lat="-27.2690422" lon="151.2884777">
  <ele>370.94</ele>
  <time>2026-09-01T19:57:32Z</time>
  <course>221.74</course>
  <speed>25.231095893757765</speed>
  <fix>3d</fix>
</trkpt>
<trkpt lat="-27.2690107" lon="151.2885083">
  <ele>370.87</ele>
  <time>2026-09-01T19:57:32Z</time>
  <course>221.12</course>
  <speed>25.26</speed>
  <fix>3d</fix>
</trkpt>
<trkpt lat="-27.2690593" lon="151.2884609">
  <ele>370.96</ele>
  <time>2026-09-01T19:57:32Z</time>
  <course>221.77</course>
  <speed>25.230140705116966</speed>
  <fix>3d</fix>
</trkpt>
<trkpt lat="-27.2690107" lon="151.2885083">
  <ele>370.87</ele>
  <time>2026-09-01T19:57:32Z</time>
  <course>221.12</course>
  <speed>25.26</speed>
  <fix>3d</fix>
</trkpt>
<trkpt lat="-27.2690763" lon="151.2884442">
  <ele>370.99</ele>
  <time>2026-09-01T19:57:32Z</time>
  <course>221.83</course>
  <speed>25.22261088785219</speed>
  <fix>3d</fix>
</trkpt>
<trkpt lat="-27.2690449" lon="151.2884748">
  <ele>370.94</ele>
  <time>2026-09-01T19:57:32Z</time>
  <course>221.17</course>
  <speed>25.26</speed>
  <fix>3d</fix>
</trkpt>
<trkpt lat="-27.2690933" lon="151.2884275">
  <ele>371.02</ele>
  <time>2026-09-01T19:57:32Z</time>
  <course>221.93</course>
  <speed>25.221667272406876</speed>
  <fix>3d</fix>
</trkpt>
<trkpt lat="-27.2690449" lon="151.2884748">
  <ele>370.94</ele>
  <time>2026-09-01T19:57:32Z</time>
  <course>221.17</course>
  <speed>25.26</speed>
  <fix>3d</fix>
</trkpt>
<trkpt lat="-27.2691102" lon="151.2884107">
  <ele>371.06</ele>
  <time>2026-09-01T19:57:32Z</time>
  <course>221.95</course>
  <speed>25.206620162171685</speed>
  <fix>3d</fix>
</trkpt>
<trkpt lat="-27.2690791" lon="151.2884411">
  <ele>371.0</ele>
  <time>2026-09-01T19:57:32Z</time>
  <course>221.21</course>
  <speed>25.25</speed>
  <fix>3d</fix>
</trkpt>
<trkpt lat="-27.2691273" lon="151.2883938">
  <ele>371.09</ele>
  <time>2026-09-01T19:57:32Z</time>
  <course>221.94</course>
  <speed>25.199099190248845</speed>
  <fix>3d</fix>
</trkpt>
<trkpt lat="-27.2690791" lon="151.2884411">
  <ele>371.0</ele>
  <time>2026-09-01T19:57:32Z</time>
  <course>221.21</course>
  <speed>25.25</speed>
  <fix>3d</fix>
</trkpt>
<trkpt lat="-27.2691443" lon="151.2883771">
  <ele>371.12</ele>
  <time>2026-09-01T19:57:32Z</time>
  <course>221.95</course>
  <speed>25.198174537057245</speed>
  <fix>3d</fix>
</trkpt>
<trkpt lat="-27.2691133" lon="151.2884073">
  <ele>371.06</ele>
  <time>2026-09-01T19:57:32Z</time>
  <course>221.26</course>
  <speed>25.25</speed>
  <fix>3d</fix>
</trkpt>
<trkpt lat="-27.2691612" lon="151.2883603">
  <ele>371.14</ele>
  <time>2026-09-01T19:57:32Z</time>
  <course>221.96</course>
  <speed>25.190658983043694</speed>
  <fix>3d</fix>
</trkpt>
<trkpt lat="-27.2691133" lon="151.2884073">
  <ele>371.06</ele>
  <time>2026-09-01T19:57:32Z</time>
  <course>221.26</course>
  <speed>25.25</speed>
  <fix>3d</fix>
</trkpt>
<trkpt lat="-27.2691789" lon="151.2883428">
  <ele>371.17</ele>
  <time>2026-09-01T19:57:32Z</time>
  <course>221.97</course>
  <speed>25.190658983043694</speed>
  <fix>3d</fix>
</trkpt>
<trkpt lat="-27.2691474" lon="151.2883737">
  <ele>371.11</ele>
  <time>2026-09-01T19:57:32Z</time>
  <course>221.29</course>
  <speed>25.24</speed>
  <fix>3d</fix>
</trkpt>
<trkpt lat="-27.2691958" lon="151.2883261">
  <ele>371.19</ele>
  <time>2026-09-01T19:57:32Z</time>
  <course>221.92</course>
  <speed>25.197257787306935</speed>
  <fix>3d</fix>
</trkpt>
<trkpt lat="-27.2691474" lon="151.2883737">
  <ele>371.11</ele>
  <time>2026-09-01T19:57:32Z</time>
  <course>221.29</course>
  <speed>25.24</speed>
  <fix>3d</fix>
</trkpt>
<trkpt lat="-27.2692129" lon="151.2883091">
  <ele>371.22</ele>
  <time>2026-09-01T19:57:32Z</time>
  <course>221.89</course>
  <speed>25.204771373690342</speed>
  <fix>3d</fix>
</trkpt>
<trkpt lat="-27.2691815" lon="151.28834">
  <ele>371.16</ele>
  <time>2026-09-01T19:57:32Z</time>
  <course>221.3</course>
  <speed>25.23</speed>
  <fix>3d</fix>
</trkpt>
<trkpt lat="-27.26923" lon="151.2882922">
  <ele>371.24</ele>
  <time>2026-09-01T19:57:32Z</time>
  <course>221.95</course>
  <speed>25.212286687248344</speed>
  <fix>3d</fix>
</trkpt>
<trkpt lat="-27.2691815" lon="151.28834">
  <ele>371.16</ele>
  <time>2026-09-01T19:57:32Z</time>
  <course>221.3</course>
  <speed>25.23</speed>
  <fix>3d</fix>
</trkpt>
<trkpt lat="-27.2692472" lon="151.2882752">
  <ele>371.26</ele>
  <time>2026-09-01T19:57:32Z</time>
  <course>222.03</course>
  <speed>25.225483147008305</speed>
  <fix>3d</fix>
</trkpt>
<trkpt lat="-27.2692155" lon="151.2883063">
  <ele>371.21</ele>
  <time>2026-09-01T19:57:32Z</time>
  <course>221.3</course>
  <speed>25.23</speed>
  <fix>3d</fix>
</trkpt>
<trkpt lat="-27.2692645" lon="151.2882581">
  <ele>371.27</ele>
  <time>2026-09-01T19:57:32Z</time>
  <course>222.02</course>
  <speed>25.225483147008305</speed>
  <fix>3d</fix>
</trkpt>
<trkpt lat="-27.2692155" lon="151.2883063">
  <ele>371.21</ele>
  <time>2026-09-01T19:57:32Z</time>
  <course>221.3</course>
  <speed>25.23</speed>
  <fix>3d</fix>
</trkpt>
<trkpt lat="-27.2692816" lon="151.2882412">
  <ele>371.29</ele>
  <time>2026-09-01T19:57:32Z</time>
  <course>221.96</course>
  <speed>25.239595876321</speed>
  <fix>3d</fix>
</trkpt>
<trkpt lat="-27.2692496" lon="151.2882727">
  <ele>371.25</ele>
  <time>2026-09-01T19:57:32Z</time>
  <course>221.3</course>
  <speed>25.23</speed>
  <fix>3d</fix>
</trkpt>
<trkpt lat="-27.2692987" lon="151.2882242">
  <ele>371.31</ele>
  <time>2026-09-01T19:57:32Z</time>
  <course>221.92</course>
  <speed>25.24619773352019</speed>
  <fix>3d</fix>
</trkpt>
<trkpt lat="-27.2692496" lon="151.2882727">
  <ele>371.25</ele>
  <time>2026-09-01T19:57:32Z</time>
  <course>221.3</course>
  <speed>25.23</speed>
  <fix>3d</fix>
</trkpt>
<trkpt lat="-27.2693159" lon="151.2882072">
  <ele>371.32</ele>
  <time>2026-09-01T19:57:32Z</time>
  <course>221.88</course>
  <speed>25.26031076610104</speed>
  <fix>3d</fix>
</trkpt>
<trkpt lat="-27.2692836" lon="151.2882391">
  <ele>371.28</ele>
  <time>2026-09-01T19:57:32Z</time>
  <course>221.32</course>
  <speed>25.23</speed>
  <fix>3d</fix>
</trkpt>
<trkpt lat="-27.269333" lon="151.2881903">
  <ele>371.34</ele>
  <time>2026-09-01T19:57:32Z</time>
  <course>221.87</course>
  <speed>25.26031076610104</speed>
  <fix>3d</fix>
</trkpt>
<trkpt lat="-27.2692836" lon="151.2882391">
  <ele>371.28</ele>
  <time>2026-09-01T19:57:32Z</time>
  <course>221.32</course>
  <speed>25.23</speed>
  <fix>3d</fix>
</trkpt>
<trkpt lat="-27.2693501" lon="151.2881734">
  <ele>371.36</ele>
  <time>2026-09-01T19:57:32Z</time>
  <course>221.88</course>
  <speed>25.26031076610104</speed>
  <fix>3d</fix>
</trkpt>
<trkpt lat="-27.2693176" lon="151.2882054">
  <ele>371.32</ele>
  <time>2026-09-01T19:57:32Z</time>
  <course>221.32</course>
  <speed>25.23</speed>
  <fix>3d</fix>
</trkpt>
<trkpt lat="-27.2693671" lon="151.2881565">
  <ele>371.38</ele>
  <time>2026-09-01T19:57:32Z</time>
  <course>221.92</course>
  <speed>25.26782143359415</speed>
  <fix>3d</fix>
</trkpt>
<trkpt lat="-27.2693176" lon="151.2882054">
  <ele>371.32</ele>
  <time>2026-09-01T19:57:32Z</time>
  <course>221.32</course>
  <speed>25.23</speed>
  <fix>3d</fix>
</trkpt>
<trkpt lat="-27.2693836" lon="151.2881402">
  <ele>371.4</ele>
  <time>2026-09-01T19:57:32Z</time>
  <course>221.97</course>
  <speed>25.26031076610104</speed>
  <fix>3d</fix>
</trkpt>
<trkpt lat="-27.2693517" lon="151.2881717">
  <ele>371.36</ele>
  <time>2026-09-01T19:57:32Z</time>
  <course>221.31</course>
  <speed>25.23</speed>
  <fix>3d</fix>
</trkpt>
<trkpt lat="-27.2694005" lon="151.2881235">
  <ele>371.42</ele>
  <time>2026-09-01T19:57:32Z</time>
  <course>221.98</course>
  <speed>25.253708638534658</speed>
  <fix>3d</fix>
</trkpt>
<trkpt lat="-27.2693517" lon="151.2881717">
  <ele>371.36</ele>
  <time>2026-09-01T19:57:32Z</time>
  <course>221.31</course>
  <speed>25.23</speed>
  <fix>3d</fix>
</trkpt>
<trkpt lat="-27.2694176" lon="151.2881066">
  <ele>371.44</ele>
  <time>2026-09-01T19:57:32Z</time>
  <course>221.92</course>
  <speed>25.253708638534658</speed>
  <fix>3d</fix>
</trkpt>
<trkpt lat="-27.2693857" lon="151.2881381">
  <ele>371.4</ele>
  <time>2026-09-01T19:57:32Z</time>
  <course>221.3</course>
  <speed>25.23</speed>
  <fix>3d</fix>
</trkpt>
<trkpt lat="-27.2694346" lon="151.2880897">
  <ele>371.46</ele>
  <time>2026-09-01T19:57:32Z</time>
  <course>221.94</course>
  <speed>25.253708638534658</speed>
  <fix>3d</fix>
</trkpt>
<trkpt lat="-27.2693857" lon="151.2881381">
  <ele>371.4</ele>
  <time>2026-09-01T19:57:32Z</time>
  <course>221.3</course>
  <speed>25.23</speed>
  <fix>3d</fix>
</trkpt>
<trkpt lat="-27.2694517" lon="151.2880728">
  <ele>371.47</ele>
  <time>2026-09-01T19:57:32Z</time>
  <course>221.99</course>
  <speed>25.26782143359415</speed>
  <fix>3d</fix>
</trkpt>
<trkpt lat="-27.2694198" lon="151.2881044">
  <ele>371.44</ele>
  <time>2026-09-01T19:57:32Z</time>
  <course>221.29</course>
  <speed>25.23</speed>
  <fix>3d</fix>
</trkpt>
<trkpt lat="-27.269469" lon="151.2880558">
  <ele>371.49</ele>
  <time>2026-09-01T19:57:32Z</time>
  <course>222.01</course>
  <speed>25.2744238312172</speed>
  <fix>3d</fix>
</trkpt>
<trkpt lat="-27.2694198" lon="151.2881044">
  <ele>371.44</ele>
  <time>2026-09-01T19:57:32Z</time>
  <course>221.29</course>
  <speed>25.23</speed>
  <fix>3d</fix>
</trkpt>
<trkpt lat="-27.2694861" lon="151.2880388">
  <ele>371.51</ele>
  <time>2026-09-01T19:57:32Z</time>
  <course>222.01</course>
  <speed>25.28102846009236</speed>
  <fix>3d</fix>
</trkpt>
<trkpt lat="-27.2694539" lon="151.2880707">
  <ele>371.47</ele>
  <time>2026-09-01T19:57:32Z</time>
  <course>221.29</course>
  <speed>25.23</speed>
  <fix>3d</fix>
</trkpt>
<trkpt lat="-27.2695033" lon="151.2880219">
  <ele>371.52</ele>
  <time>2026-09-01T19:57:32Z</time>
  <course>222.01</course>
  <speed>25.28853692881421</speed>
  <fix>3d</fix>
</trkpt>
<trkpt lat="-27.2694539" lon="151.2880707">
  <ele>371.47</ele>
  <time>2026-09-01T19:57:32Z</time>
  <course>221.29</course>
  <speed>25.23</speed>
  <fix>3d</fix>
</trkpt>
<trkpt lat="-27.269521" lon="151.2880043">
  <ele>371.54</ele>
  <time>2026-09-01T19:57:32Z</time>
  <course>222.0</course>
  <speed>25.295141826050312</speed>
  <fix>3d</fix>
</trkpt>
<trkpt lat="-27.269488" lon="151.288037">
  <ele>371.51</ele>
  <time>2026-09-01T19:57:32Z</time>
  <course>221.29</course>
  <speed>25.23</speed>
  <fix>3d</fix>
</trkpt>
<trkpt lat="-27.2695381" lon="151.2879874">
  <ele>371.56</ele>
  <time>2026-09-01T19:57:32Z</time>
  <course>221.99</course>
  <speed>25.295141826050312</speed>
  <fix>3d</fix>
</trkpt>
<trkpt lat="-27.269488" lon="151.288037">
  <ele>371.51</ele>
  <time>2026-09-01T19:57:32Z</time>
  <course>221.29</course>
  <speed>25.23</speed>
  <fix>3d</fix>
</trkpt>
<trkpt lat="-27.269555" lon="151.2879707">
  <ele>371.57</ele>
  <time>2026-09-01T19:57:32Z</time>
  <course>221.91</course>
  <speed>25.295141826050312</speed>
  <fix>3d</fix>
</trkpt>
<trkpt lat="-27.269522" lon="151.2880033">
  <ele>371.54</ele>
  <time>2026-09-01T19:57:32Z</time>
  <course>221.3</course>
  <speed>25.23</speed>
  <fix>3d</fix>
</trkpt>
<trkpt lat="-27.269572" lon="151.2879538">
  <ele>371.59</ele>
  <time>2026-09-01T19:57:32Z</time>
  <course>221.91</course>
  <speed>25.295141826050312</speed>
  <fix>3d</fix>
</trkpt>
<trkpt lat="-27.269522" lon="151.2880033">
  <ele>371.54</ele>
  <time>2026-09-01T19:57:32Z</time>
  <course>221.3</course>
  <speed>25.23</speed>
  <fix>3d</fix>
</trkpt>
<trkpt lat="-27.269589" lon="151.287937">
  <ele>371.61</ele>
  <time>2026-09-01T19:57:32Z</time>
  <course>221.96</course>
  <speed>25.287635318471356</speed>
  <fix>3d</fix>
</trkpt>
<trkpt lat="-27.2695561" lon="151.2879697">
  <ele>371.57</ele>
  <time>2026-09-01T19:57:32Z</time>
  <course>221.31</course>
  <speed>25.23</speed>
  <fix>3d</fix>
</trkpt>
<trkpt lat="-27.269606" lon="151.2879202">
  <ele>371.62</ele>
  <time>2026-09-01T19:57:32Z</time>
  <course>222.02</course>
  <speed>25.287635318471356</speed>
  <fix>3d</fix>
</trkpt>
<trkpt lat="-27.2695561" lon="151.2879697">
  <ele>371.57</ele>
  <time>2026-09-01T19:57:32Z</time>
  <course>221.31</course>
  <speed>25.23</speed>
  <fix>3d</fix>
</trkpt>
<trkpt lat="-27.2696231" lon="151.2879033">
  <ele>371.63</ele>
  <time>2026-09-01T19:57:32Z</time>
  <course>221.99</course>
  <speed>25.280130537637657</speed>
  <fix>3d</fix>
</trkpt>
<trkpt lat="-27.2695901" lon="151.287936">
  <ele>371.6</ele>
  <time>2026-09-01T19:57:32Z</time>
  <course>221.31</course>
  <speed>25.23</speed>
  <fix>3d</fix>
</trkpt>
<trkpt lat="-27.26964" lon="151.2878865">
  <ele>371.65</ele>
  <time>2026-09-01T19:57:32Z</time>
  <course>221.99</course>
  <speed>25.280130537637657</speed>
  <fix>3d</fix>
</trkpt>
<trkpt lat="-27.2695901" lon="151.287936">
  <ele>371.6</ele>
  <time>2026-09-01T19:57:32Z</time>
  <course>221.31</course>
  <speed>25.23</speed>
  <fix>3d</fix>
</trkpt>
<trkpt lat="-27.2696569" lon="151.2878698">
  <ele>371.66</ele>
  <time>2026-09-01T19:57:32Z</time>
  <course>221.98</course>
  <speed>25.273521717402186</speed>
  <fix>3d</fix>
</trkpt>
<trkpt lat="-27.2696242" lon="151.2879023">
  <ele>371.63</ele>
  <time>2026-09-01T19:57:32Z</time>
  <course>221.31</course>
  <speed>25.23</speed>
  <fix>3d</fix>
</trkpt>
<trkpt lat="-27.2696738" lon="151.2878531">
  <ele>371.67</ele>
  <time>2026-09-01T19:57:32Z</time>
  <course>221.98</course>
  <speed>25.26601670228214</speed>
  <fix>3d</fix>
</trkpt>
<trkpt lat="-27.2696242" lon="151.2879023">
  <ele>371.63</ele>
  <time>2026-09-01T19:57:32Z</time>
  <course>221.31</course>
  <speed>25.23</speed>
  <fix>3d</fix>
</trkpt>
<trkpt lat="-27.2696906" lon="151.2878364">
  <ele>371.68</ele>
  <time>2026-09-01T19:57:32Z</time>
  <course>222.03</course>
  <speed>25.26601670228214</speed>
  <fix>3d</fix>
</trkpt>
<trkpt lat="-27.2696582" lon="151.2878687">
  <ele>371.65</ele>
  <time>2026-09-01T19:57:32Z</time>
  <course>221.3</course>
  <speed>25.24</speed>
  <fix>3d</fix>
</trkpt>
<trkpt lat="-27.2697075" lon="151.2878197">
  <ele>371.68</ele>
  <time>2026-09-01T19:57:32Z</time>
  <course>222.03</course>
  <speed>25.258513416272145</speed>
  <fix>3d</fix>
</trkpt>
<trkpt lat="-27.2696582" lon="151.2878687">
  <ele>371.65</ele>
  <time>2026-09-01T19:57:32Z</time>
  <course>221.3</course>
  <speed>25.24</speed>
  <fix>3d</fix>
</trkpt>
<trkpt lat="-27.2697244" lon="151.287803">
  <ele>371.69</ele>
  <time>2026-09-01T19:57:32Z</time>
  <course>221.96</course>
  <speed>25.251011860913614</speed>
  <fix>3d</fix>
</trkpt>
<trkpt lat="-27.2696923" lon="151.287835">
  <ele>371.66</ele>
  <time>2026-09-01T19:57:32Z</time>
  <course>221.31</course>
  <speed>25.25</speed>
  <fix>3d</fix>
</trkpt>
<trkpt lat="-27.2697414" lon="151.2877862">
  <ele>371.7</ele>
  <time>2026-09-01T19:57:32Z</time>
  <course>221.96</course>
  <speed>25.251011860913614</speed>
  <fix>3d</fix>
</trkpt>
<trkpt lat="-27.2696923" lon="151.287835">
  <ele>371.66</ele>
  <time>2026-09-01T19:57:32Z</time>
  <course>221.31</course>
  <speed>25.25</speed>
  <fix>3d</fix>
</trkpt>
<trkpt lat="-27.2697583" lon="151.2877694">
  <ele>371.71</ele>
  <time>2026-09-01T19:57:32Z</time>
  <course>221.94</course>
  <speed>25.251011860913614</speed>
  <fix>3d</fix>
</trkpt>
<trkpt lat="-27.2697263" lon="151.2878013">
  <ele>371.68</ele>
  <time>2026-09-01T19:57:32Z</time>
  <course>221.32</course>
  <speed>25.25</speed>
  <fix>3d</fix>
</trkpt>
<trkpt lat="-27.2697753" lon="151.2877525">
  <ele>371.71</ele>
  <time>2026-09-01T19:57:32Z</time>
  <course>221.94</course>
  <speed>25.258513416272145</speed>
  <fix>3d</fix>
</trkpt>
<trkpt lat="-27.2697263" lon="151.2878013">
  <ele>371.68</ele>
  <time>2026-09-01T19:57:32Z</time>
  <course>221.32</course>
  <speed>25.25</speed>
  <fix>3d</fix>
</trkpt>
<trkpt lat="-27.2697924" lon="151.2877357">
  <ele>371.71</ele>
  <time>2026-09-01T19:57:32Z</time>
  <course>222.0</course>
  <speed>25.258513416272145</speed>
  <fix>3d</fix>
</trkpt>
<trkpt lat="-27.2697604" lon="151.2877676">
  <ele>371.69</ele>
  <time>2026-09-01T19:57:32Z</time>
  <course>221.31</course>
  <speed>25.26</speed>
  <fix>3d</fix>
</trkpt>
<trkpt lat="-27.2698094" lon="151.2877188">
  <ele>371.72</ele>
  <time>2026-09-01T19:57:32Z</time>
  <course>222.02</course>
  <speed>25.265126162360637</speed>
  <fix>3d</fix>
</trkpt>
<trkpt lat="-27.2697604" lon="151.2877676">
  <ele>371.69</ele>
  <time>2026-09-01T19:57:32Z</time>
  <course>221.31</course>
  <speed>25.26</speed>
  <fix>3d</fix>
</trkpt>
<trkpt lat="-27.2698264" lon="151.2877019">
  <ele>371.72</ele>
  <time>2026-09-01T19:57:32Z</time>
  <course>221.98</course>
  <speed>25.279240494919936</speed>
  <fix>3d</fix>
</trkpt>
<trkpt lat="-27.2697946" lon="151.2877338">
  <ele>371.7</ele>
  <time>2026-09-01T19:57:32Z</time>
  <course>221.31</course>
  <speed>25.27</speed>
  <fix>3d</fix>
</trkpt>
<trkpt lat="-27.2698435" lon="151.2876851">
  <ele>371.72</ele>
  <time>2026-09-01T19:57:32Z</time>
  <course>221.99</course>
  <speed>25.279240494919936</speed>
  <fix>3d</fix>
</trkpt>
<trkpt lat="-27.2697946" lon="151.2877338">
  <ele>371.7</ele>
  <time>2026-09-01T19:57:32Z</time>
  <course>221.31</course>
  <speed>25.27</speed>
  <fix>3d</fix>
</trkpt>
<trkpt lat="-27.2698602" lon="151.2876686">
  <ele>371.72</ele>
  <time>2026-09-01T19:57:32Z</time>
  <course>221.99</course>
  <speed>25.293354858539427</speed>
  <fix>3d</fix>
</trkpt>
<trkpt lat="-27.2698287" lon="151.2877">
  <ele>371.71</ele>
  <time>2026-09-01T19:57:32Z</time>
  <course>221.31</course>
  <speed>25.29</speed>
  <fix>3d</fix>
</trkpt>
<trkpt lat="-27.2698778" lon="151.2876511">
  <ele>371.73</ele>
  <time>2026-09-01T19:57:32Z</time>
  <course>221.94</course>
  <speed>25.299970355713857</speed>
  <fix>3d</fix>
</trkpt>
<trkpt lat="-27.2698287" lon="151.2877">
  <ele>371.71</ele>
  <time>2026-09-01T19:57:32Z</time>
  <course>221.31</course>
  <speed>25.29</speed>
  <fix>3d</fix>
</trkpt>
<trkpt lat="-27.2698946" lon="151.2876344">
  <ele>371.73</ele>
  <time>2026-09-01T19:57:32Z</time>
  <course>221.97</course>
  <speed>25.299970355713857</speed>
  <fix>3d</fix>
</trkpt>
<trkpt lat="-27.2698629" lon="151.2876663">
  <ele>371.71</ele>
  <time>2026-09-01T19:57:32Z</time>
  <course>221.32</course>
  <speed>25.3</speed>
  <fix>3d</fix>
</trkpt>
<trkpt lat="-27.2699116" lon="151.2876176">
  <ele>371.73</ele>
  <time>2026-09-01T19:57:32Z</time>
  <course>221.95</course>
  <speed>25.299970355713857</speed>
  <fix>3d</fix>
</trkpt>
<trkpt lat="-27.2698629" lon="151.2876663">
  <ele>371.71</ele>
  <time>2026-09-01T19:57:32Z</time>
  <course>221.32</course>
  <speed>25.3</speed>
  <fix>3d</fix>
</trkpt>
<trkpt lat="-27.2699286" lon="151.2876008">
  <ele>371.74</ele>
  <time>2026-09-01T19:57:32Z</time>
  <course>221.96</course>
  <speed>25.30085571675393</speed>
  <fix>3d</fix>
</trkpt>
<trkpt lat="-27.269897" lon="151.2876325">
  <ele>371.72</ele>
  <time>2026-09-01T19:57:32Z</time>
  <course>221.32</course>
  <speed>25.31</speed>
  <fix>3d</fix>
</trkpt>
<trkpt lat="-27.2699456" lon="151.287584">
  <ele>371.74</ele>
  <time>2026-09-01T19:57:32Z</time>
  <course>222.03</course>
  <speed>25.293354858539427</speed>
  <fix>3d</fix>
</trkpt>
<trkpt lat="-27.269897" lon="151.2876325">
  <ele>371.72</ele>
  <time>2026-09-01T19:57:32Z</time>
  <course>221.32</course>
  <speed>25.31</speed>
  <fix>3d</fix>
</trkpt>
<trkpt lat="-27.2699625" lon="151.2875673">
  <ele>371.75</ele>
  <time>2026-09-01T19:57:32Z</time>
  <course>222.02</course>
  <speed>25.293354858539427</speed>
  <fix>3d</fix>
</trkpt>
<trkpt lat="-27.2699312" lon="151.2875988">
  <ele>371.72</ele>
  <time>2026-09-01T19:57:32Z</time>
  <course>221.32</course>
  <speed>25.32</speed>
  <fix>3d</fix>
</trkpt>
<trkpt lat="-27.2699796" lon="151.2875504">
  <ele>371.75</ele>
  <time>2026-09-01T19:57:32Z</time>
  <course>221.92</course>
  <speed>25.285855730032154</speed>
  <fix>3d</fix>
</trkpt>
<trkpt lat="-27.2699312" lon="151.2875988">
  <ele>371.72</ele>
  <time>2026-09-01T19:57:32Z</time>
  <course>221.32</course>
  <speed>25.32</speed>
  <fix>3d</fix>
</trkpt>
<trkpt lat="-27.2699965" lon="151.2875336">
  <ele>371.76</ele>
  <time>2026-09-01T19:57:32Z</time>
  <course>221.88</course>
  <speed>25.279240494919936</speed>
  <fix>3d</fix>
</trkpt>
<trkpt lat="-27.2699653" lon="151.2875649">
  <ele>371.74</ele>
  <time>2026-09-01T19:57:32Z</time>
  <course>221.32</course>
  <speed>25.33</speed>
  <fix>3d</fix>
</trkpt>
<trkpt lat="-27.2700135" lon="151.2875168">
  <ele>371.76</ele>
  <time>2026-09-01T19:57:32Z</time>
  <course>221.92</course>
  <speed>25.272627485087497</speed>
  <fix>3d</fix>
</trkpt>
<trkpt lat="-27.2699653" lon="151.2875649">
  <ele>371.74</ele>
  <time>2026-09-01T19:57:32Z</time>
  <course>221.32</course>
  <speed>25.33</speed>
  <fix>3d</fix>
</trkpt>
<trkpt lat="-27.2700304" lon="151.2875001">
  <ele>371.77</ele>
  <time>2026-09-01T19:57:32Z</time>
  <course>221.99</course>
  <speed>25.272627485087497</speed>
  <fix>3d</fix>
</trkpt>
<trkpt lat="-27.2699995" lon="151.2875311">
  <ele>371.75</ele>
  <time>2026-09-01T19:57:32Z</time>
  <course>221.31</course>
  <speed>25.34</speed>
  <fix>3d</fix>
</trkpt>
<trkpt lat="-27.2700474" lon="151.2874833">
  <ele>371.77</ele>
  <time>2026-09-01T19:57:32Z</time>
  <course>221.92</course>
  <speed>25.272627485087497</speed>
  <fix>3d</fix>
</trkpt>
<trkpt lat="-27.2699995" lon="151.2875311">
  <ele>371.75</ele>
  <time>2026-09-01T19:57:32Z</time>
  <course>221.31</course>
  <speed>25.34</speed>
  <fix>3d</fix>
</trkpt>
<trkpt lat="-27.2700645" lon="151.2874664">
  <ele>371.77</ele>
  <time>2026-09-01T19:57:32Z</time>
  <course>221.88</course>
  <speed>25.286741585265585</speed>
  <fix>3d</fix>
</trkpt>
<trkpt lat="-27.2700337" lon="151.2874972">
  <ele>371.76</ele>
  <time>2026-09-01T19:57:32Z</time>
  <course>221.3</course>
  <speed>25.35</speed>
  <fix>3d</fix>
</trkpt>
<trkpt lat="-27.2700816" lon="151.2874495">
  <ele>371.78</ele>
  <time>2026-09-01T19:57:32Z</time>
  <course>221.89</course>
  <speed>25.286741585265585</speed>
  <fix>3d</fix>
</trkpt>
<trkpt lat="-27.2700337" lon="151.2874972">
  <ele>371.76</ele>
  <time>2026-09-01T19:57:32Z</time>
  <course>221.3</course>
  <speed>25.35</speed>
  <fix>3d</fix>
</trkpt>
<trkpt lat="-27.2700987" lon="151.2874326">
  <ele>371.78</ele>
  <time>2026-09-01T19:57:32Z</time>
  <course>221.96</course>
  <speed>25.29424440460715</speed>
  <fix>3d</fix>
</trkpt>
<trkpt lat="-27.2700679" lon="151.2874635">
  <ele>371.77</ele>
  <time>2026-09-01T19:57:32Z</time>
  <course>221.29</course>
  <speed>25.36</speed>
  <fix>3d</fix>
</trkpt>
<trkpt lat="-27.2701159" lon="151.2874156">
  <ele>371.79</ele>
  <time>2026-09-01T19:57:32Z</time>
  <course>222.06</course>
  <speed>25.29424440460715</speed>
  <fix>3d</fix>
</trkpt>
<trkpt lat="-27.2700679" lon="151.2874635">
  <ele>371.77</ele>
  <time>2026-09-01T19:57:32Z</time>
  <course>221.29</course>
  <speed>25.36</speed>
  <fix>3d</fix>
</trkpt>
<trkpt lat="-27.2701331" lon="151.2873987">
  <ele>371.79</ele>
  <time>2026-09-01T19:57:32Z</time>
  <course>222.06</course>
  <speed>25.30835830313772</speed>
  <fix>3d</fix>
</trkpt>
<trkpt lat="-27.2701021" lon="151.2874297">
  <ele>371.78</ele>
  <time>2026-09-01T19:57:32Z</time>
  <course>221.28</course>
  <speed>25.37</speed>
  <fix>3d</fix>
</trkpt>
<trkpt lat="-27.2701502" lon="151.2873817">
  <ele>371.79</ele>
  <time>2026-09-01T19:57:32Z</time>
  <course>222.0</course>
  <speed>25.321583678751217</speed>
  <fix>3d</fix>
</trkpt>
<trkpt lat="-27.2701021" lon="151.2874297">
  <ele>371.78</ele>
  <time>2026-09-01T19:57:32Z</time>
  <course>221.28</course>
  <speed>25.37</speed>
  <fix>3d</fix>
</trkpt>
<trkpt lat="-27.2701674" lon="151.2873647">
  <ele>371.8</ele>
  <time>2026-09-01T19:57:32Z</time>
  <course>221.98</course>
  <speed>25.335698135239927</speed>
  <fix>3d</fix>
</trkpt>
<trkpt lat="-27.2701364" lon="151.2873958">
  <ele>371.78</ele>
  <time>2026-09-01T19:57:32Z</time>
  <course>221.29</course>
  <speed>25.37</speed>
  <fix>3d</fix>
</trkpt>
<trkpt lat="-27.2701846" lon="151.2873477">
  <ele>371.8</ele>
  <time>2026-09-01T19:57:32Z</time>
  <course>222.0</course>
  <speed>25.342314416801006</speed>
  <fix>3d</fix>
</trkpt>
<trkpt lat="-27.2701364" lon="151.2873958">
  <ele>371.78</ele>
  <time>2026-09-01T19:57:32Z</time>
  <course>221.29</course>
  <speed>25.37</speed>
  <fix>3d</fix>
</trkpt>
<trkpt lat="-27.2702018" lon="151.2873306">
  <ele>371.81</ele>
  <time>2026-09-01T19:57:32Z</time>
  <course>222.03</course>
  <speed>25.356429165006652</speed>
  <fix>3d</fix>
</trkpt>
<trkpt lat="-27.2701707" lon="151.2873619">
  <ele>371.79</ele>
  <time>2026-09-01T19:57:32Z</time>
  <course>221.32</course>
  <speed>25.38</speed>
  <fix>3d</fix>
</trkpt>
<trkpt lat="-27.270219" lon="151.2873136">
  <ele>371.82</ele>
  <time>2026-09-01T19:57:32Z</time>
  <course>222.01</course>
  <speed>25.36304792409619</speed>
  <fix>3d</fix>
</trkpt>
<trkpt lat="-27.2701707" lon="151.2873619">
  <ele>371.79</ele>
  <time>2026-09-01T19:57:32Z</time>
  <course>221.32</course>
  <speed>25.38</speed>
  <fix>3d</fix>
</trkpt>
<trkpt lat="-27.2702362" lon="151.2872965">
  <ele>371.83</ele>
  <time>2026-09-01T19:57:32Z</time>
  <course>222.04</course>
  <speed>25.369668898115325</speed>
  <fix>3d</fix>
</trkpt>
<trkpt lat="-27.270205" lon="151.287328">
  <ele>371.79</ele>
  <time>2026-09-01T19:57:32Z</time>
  <course>221.34</course>
  <speed>25.39</speed>
  <fix>3d</fix>
</trkpt>
<trkpt lat="-27.2702534" lon="151.2872795">
  <ele>371.84</ele>
  <time>2026-09-01T19:57:32Z</time>
  <course>222.03</course>
  <speed>25.376292085330356</speed>
  <fix>3d</fix>
</trkpt>
<trkpt lat="-27.270205" lon="151.287328">
  <ele>371.79</ele>
  <time>2026-09-01T19:57:32Z</time>
  <course>221.34</course>
  <speed>25.39</speed>
  <fix>3d</fix>
</trkpt>
<trkpt lat="-27.2702706" lon="151.2872625">
  <ele>371.86</ele>
  <time>2026-09-01T19:57:32Z</time>
  <course>222.01</course>
  <speed>25.383784193851003</speed>
  <fix>3d</fix>
</trkpt>
<trkpt lat="-27.2702393" lon="151.2872941">
  <ele>371.81</ele>
  <time>2026-09-01T19:57:32Z</time>
  <course>221.36</course>
  <speed>25.4</speed>
  <fix>3d</fix>
</trkpt>
<trkpt lat="-27.2702878" lon="151.2872454">
  <ele>371.87</ele>
  <time>2026-09-01T19:57:32Z</time>
  <course>222.0</course>
  <speed>25.383784193851003</speed>
  <fix>3d</fix>
</trkpt>
<trkpt lat="-27.2702393" lon="151.2872941">
  <ele>371.81</ele>
  <time>2026-09-01T19:57:32Z</time>
  <course>221.36</course>
  <speed>25.4</speed>
  <fix>3d</fix>
</trkpt>
<trkpt lat="-27.270305" lon="151.2872284">
  <ele>371.88</ele>
  <time>2026-09-01T19:57:32Z</time>
  <course>221.99</course>
  <speed>25.383784193851003</speed>
  <fix>3d</fix>
</trkpt>
<trkpt lat="-27.2702735" lon="151.2872601">
  <ele>371.83</ele>
  <time>2026-09-01T19:57:32Z</time>
  <course>221.38</course>
  <speed>25.4</speed>
  <fix>3d</fix>
</trkpt>
<trkpt lat="-27.270322" lon="151.2872115">
  <ele>371.89</ele>
  <time>2026-09-01T19:57:32Z</time>
  <course>221.96</course>
  <speed>25.391278030063788</speed>
  <fix>3d</fix>
</trkpt>
<trkpt lat="-27.2702735" lon="151.2872601">
  <ele>371.83</ele>
  <time>2026-09-01T19:57:32Z</time>
  <course>221.38</course>
  <speed>25.4</speed>
  <fix>3d</fix>
</trkpt>
<trkpt lat="-27.2703394" lon="151.2871943">
  <ele>371.91</ele>
  <time>2026-09-01T19:57:32Z</time>
  <course>221.98</course>
  <speed>25.391278030063788</speed>
  <fix>3d</fix>
</trkpt>
<trkpt lat="-27.2703077" lon="151.2872262">
  <ele>371.84</ele>
  <time>2026-09-01T19:57:32Z</time>
  <course>221.38</course>
  <speed>25.39</speed>
  <fix>3d</fix>
</trkpt>
<trkpt lat="-27.2703565" lon="151.2871774">
  <ele>371.92</ele>
  <time>2026-09-01T19:57:32Z</time>
  <course>221.99</course>
  <speed>25.384658752876707</speed>
  <fix>3d</fix>
</trkpt>
<trkpt lat="-27.2703077" lon="151.2872262">
  <ele>371.84</ele>
  <time>2026-09-01T19:57:32Z</time>
  <course>221.38</course>
  <speed>25.39</speed>
  <fix>3d</fix>
</trkpt>
<trkpt lat="-27.2703736" lon="151.2871604">
  <ele>371.93</ele>
  <time>2026-09-01T19:57:32Z</time>
  <course>221.99</course>
  <speed>25.384658752876707</speed>
  <fix>3d</fix>
</trkpt>
<trkpt lat="-27.270342" lon="151.2871923">
  <ele>371.87</ele>
  <time>2026-09-01T19:57:32Z</time>
  <course>221.36</course>
  <speed>25.39</speed>
  <fix>3d</fix>
</trkpt>
<trkpt lat="-27.2703908" lon="151.2871434">
  <ele>371.93</ele>
  <time>2026-09-01T19:57:32Z</time>
  <course>221.98</course>
  <speed>25.384658752876707</speed>
  <fix>3d</fix>
</trkpt>
<trkpt lat="-27.270342" lon="151.2871923">
  <ele>371.87</ele>
  <time>2026-09-01T19:57:32Z</time>
  <course>221.36</course>
  <speed>25.39</speed>
  <fix>3d</fix>
</trkpt>
<trkpt lat="-27.270408" lon="151.2871264">
  <ele>371.94</ele>
  <time>2026-09-01T19:57:32Z</time>
  <course>222.0</course>
  <speed>25.392156269210382</speed>
  <fix>3d</fix>
</trkpt>
<trkpt lat="-27.2703762" lon="151.2871584">
  <ele>371.89</ele>
  <time>2026-09-01T19:57:32Z</time>
  <course>221.35</course>
  <speed>25.39</speed>
  <fix>3d</fix>
</trkpt>
<trkpt lat="-27.2704251" lon="151.2871094">
  <ele>371.95</ele>
  <time>2026-09-01T19:57:32Z</time>
  <course>222.01</course>
  <speed>25.392156269210382</speed>
  <fix>3d</fix>
</trkpt>
<trkpt lat="-27.2703762" lon="151.2871584">
  <ele>371.89</ele>
  <time>2026-09-01T19:57:32Z</time>
  <course>221.35</course>
  <speed>25.39</speed>
  <fix>3d</fix>
</trkpt>
<trkpt lat="-27.2704423" lon="151.2870924">
  <ele>371.96</ele>
  <time>2026-09-01T19:57:32Z</time>
  <course>221.97</course>
  <speed>25.392156269210382</speed>
  <fix>3d</fix>
</trkpt>
<trkpt lat="-27.2704104" lon="151.2871245">
  <ele>371.9</ele>
  <time>2026-09-01T19:57:32Z</time>
  <course>221.35</course>
  <speed>25.38</speed>
  <fix>3d</fix>
</trkpt>
<trkpt lat="-27.2704595" lon="151.2870754">
  <ele>371.96</ele>
  <time>2026-09-01T19:57:32Z</time>
  <course>221.98</course>
  <speed>25.392156269210382</speed>
  <fix>3d</fix>
</trkpt>
<trkpt lat="-27.2704104" lon="151.2871245">
  <ele>371.9</ele>
  <time>2026-09-01T19:57:32Z</time>
  <course>221.35</course>
  <speed>25.38</speed>
  <fix>3d</fix>
</trkpt>
<trkpt lat="-27.2704767" lon="151.2870584">
  <ele>371.97</ele>
  <time>2026-09-01T19:57:32Z</time>
  <course>222.01</course>
  <speed>25.398773592439458</speed>
  <fix>3d</fix>
</trkpt>
<trkpt lat="-27.2704446" lon="151.2870906">
  <ele>371.91</ele>
  <time>2026-09-01T19:57:32Z</time>
  <course>221.34</course>
  <speed>25.38</speed>
  <fix>3d</fix>
</trkpt>
<trkpt lat="-27.2704939" lon="151.2870414">
  <ele>371.97</ele>
  <time>2026-09-01T19:57:32Z</time>
  <course>222.03</course>
  <speed>25.40627087945022</speed>
  <fix>3d</fix>
</trkpt>
<trkpt lat="-27.2704446" lon="151.2870906">
  <ele>371.91</ele>
  <time>2026-09-01T19:57:32Z</time>
  <course>221.34</course>
  <speed>25.38</speed>
  <fix>3d</fix>
</trkpt>
<trkpt lat="-27.270511" lon="151.2870244">
  <ele>371.97</ele>
  <time>2026-09-01T19:57:32Z</time>
  <course>222.03</course>
  <speed>25.398773592439458</speed>
  <fix>3d</fix>
</trkpt>
<trkpt lat="-27.2704789" lon="151.2870567">
  <ele>371.93</ele>
  <time>2026-09-01T19:57:32Z</time>
  <course>221.35</course>
  <speed>25.38</speed>
  <fix>3d</fix>
</trkpt>
<trkpt lat="-27.2705281" lon="151.2870075">
  <ele>371.98</ele>
  <time>2026-09-01T19:57:32Z</time>
  <course>222.02</course>
  <speed>25.398773592439458</speed>
  <fix>3d</fix>
</trkpt>
<trkpt lat="-27.2704789" lon="151.2870567">
  <ele>371.93</ele>
  <time>2026-09-01T19:57:32Z</time>
  <course>221.35</course>
  <speed>25.38</speed>
  <fix>3d</fix>
</trkpt>
<trkpt lat="-27.2705452" lon="151.2869906">
  <ele>371.98</ele>
  <time>2026-09-01T19:57:32Z</time>
  <course>222.01</course>
  <speed>25.398773592439458</speed>
  <fix>3d</fix>
</trkpt>
<trkpt lat="-27.2705131" lon="151.2870228">
  <ele>371.94</ele>
  <time>2026-09-01T19:57:32Z</time>
  <course>221.36</course>
  <speed>25.38</speed>
  <fix>3d</fix>
</trkpt>
<trkpt lat="-27.2705623" lon="151.2869737">
  <ele>371.99</ele>
  <time>2026-09-01T19:57:32Z</time>
  <course>222.02</course>
  <speed>25.384658752876707</speed>
  <fix>3d</fix>
</trkpt>
<trkpt lat="-27.2705131" lon="151.2870228">
  <ele>371.94</ele>
  <time>2026-09-01T19:57:32Z</time>
  <course>221.36</course>
  <speed>25.38</speed>
  <fix>3d</fix>
</trkpt>
<trkpt lat="-27.2705794" lon="151.2869567">
  <ele>372.0</ele>
  <time>2026-09-01T19:57:32Z</time>
  <course>222.08</course>
  <speed>25.391278030063788</speed>
  <fix>3d</fix>
</trkpt>
<trkpt lat="-27.2705474" lon="151.2869888">
  <ele>371.95</ele>
  <time>2026-09-01T19:57:32Z</time>
  <course>221.37</course>
  <speed>25.37</speed>
  <fix>3d</fix>
</trkpt>
<trkpt lat="-27.2705965" lon="151.2869397">
  <ele>372.0</ele>
  <time>2026-09-01T19:57:32Z</time>
  <course>222.08</course>
  <speed>25.391278030063788</speed>
  <fix>3d</fix>
</trkpt>
<trkpt lat="-27.2705474" lon="151.2869888">
  <ele>371.95</ele>
  <time>2026-09-01T19:57:32Z</time>
  <course>221.37</course>
  <speed>25.37</speed>
  <fix>3d</fix>
</trkpt>
<trkpt lat="-27.2706137" lon="151.2869226">
  <ele>372.01</ele>
  <time>2026-09-01T19:57:32Z</time>
  <course>222.08</course>
  <speed>25.397899519448455</speed>
  <fix>3d</fix>
</trkpt>
<trkpt lat="-27.2705816" lon="151.2869549">
  <ele>371.97</ele>
  <time>2026-09-01T19:57:32Z</time>
  <course>221.38</course>
  <speed>25.37</speed>
  <fix>3d</fix>
</trkpt>
<trkpt lat="-27.2706309" lon="151.2869056">
  <ele>372.02</ele>
  <time>2026-09-01T19:57:32Z</time>
  <course>222.08</course>
  <speed>25.404523219300927</speed>
  <fix>3d</fix>
</trkpt>
<trkpt lat="-27.2705816" lon="151.2869549">
  <ele>371.97</ele>
  <time>2026-09-01T19:57:32Z</time>
  <course>221.38</course>
  <speed>25.37</speed>
  <fix>3d</fix>
</trkpt>
<trkpt lat="-27.2706481" lon="151.2868885">
  <ele>372.02</ele>
  <time>2026-09-01T19:57:32Z</time>
  <course>222.08</course>
  <speed>25.404523219300927</speed>
  <fix>3d</fix>
</trkpt>
<trkpt lat="-27.2706158" lon="151.286921">
  <ele>371.98</ele>
  <time>2026-09-01T19:57:32Z</time>
  <course>221.4</course>
  <speed>25.37</speed>
  <fix>3d</fix>
</trkpt>
<trkpt lat="-27.2706653" lon="151.2868715">
  <ele>372.03</ele>
  <time>2026-09-01T19:57:32Z</time>
  <course>222.07</course>
  <speed>25.411149127892664</speed>
  <fix>3d</fix>
</trkpt>
<trkpt lat="-27.2706158" lon="151.286921">
  <ele>371.98</ele>
  <time>2026-09-01T19:57:32Z</time>
  <course>221.4</course>
  <speed>25.37</speed>
  <fix>3d</fix>
</trkpt>
<trkpt lat="-27.2706823" lon="151.2868546">
  <ele>372.03</ele>
  <time>2026-09-01T19:57:32Z</time>
  <course>222.09</course>
  <speed>25.411149127892664</speed>
  <fix>3d</fix>
</trkpt>
<trkpt lat="-27.2706499" lon="151.2868871">
  <ele>371.99</ele>
  <time>2026-09-01T19:57:32Z</time>
  <course>221.42</course>
  <speed>25.36</speed>
  <fix>3d</fix>
</trkpt>
<trkpt lat="-27.2706995" lon="151.2868375">
  <ele>372.03</ele>
  <time>2026-09-01T19:57:32Z</time>
  <course>222.08</course>
  <speed>25.41777724349633</speed>
  <fix>3d</fix>
</trkpt>
<trkpt lat="-27.2706499" lon="151.2868871">
  <ele>371.99</ele>
  <time>2026-09-01T19:57:32Z</time>
  <course>221.42</course>
  <speed>25.36</speed>
  <fix>3d</fix>
</trkpt>
<trkpt lat="-27.2707167" lon="151.2868204">
  <ele>372.04</ele>
  <time>2026-09-01T19:57:32Z</time>
  <course>222.08</course>
  <speed>25.425264993702623</speed>
  <fix>3d</fix>
</trkpt>
<trkpt lat="-27.2706841" lon="151.2868532">
  <ele>372.0</ele>
  <time>2026-09-01T19:57:32Z</time>
  <course>221.43</course>
  <speed>25.36</speed>
  <fix>3d</fix>
</trkpt>
<trkpt lat="-27.2707338" lon="151.2868034">
  <ele>372.04</ele>
  <time>2026-09-01T19:57:32Z</time>
  <course>222.16</course>
  <speed>25.425264993702623</speed>
  <fix>3d</fix>
</trkpt>
<trkpt lat="-27.2706841" lon="151.2868532">
  <ele>372.0</ele>
  <time>2026-09-01T19:57:32Z</time>
  <course>221.43</course>
  <speed>25.36</speed>
  <fix>3d</fix>
</trkpt>
<trkpt lat="-27.2707512" lon="151.2867862">
  <ele>372.04</ele>
  <time>2026-09-01T19:57:32Z</time>
  <course>222.14</course>
  <speed>25.431893362469104</speed>
  <fix>3d</fix>
</trkpt>
<trkpt lat="-27.2707183" lon="151.2868193">
  <ele>372.01</ele>
  <time>2026-09-01T19:57:32Z</time>
  <course>221.44</course>
  <speed>25.36</speed>
  <fix>3d</fix>
</trkpt>
<trkpt lat="-27.2707683" lon="151.2867691">
  <ele>372.04</ele>
  <time>2026-09-01T19:57:32Z</time>
  <course>222.16</course>
  <speed>25.438523935165737</speed>
  <fix>3d</fix>
</trkpt>
<trkpt lat="-27.2707183" lon="151.2868193">
  <ele>372.01</ele>
  <time>2026-09-01T19:57:32Z</time>
  <course>221.44</course>
  <speed>25.36</speed>
  <fix>3d</fix>
</trkpt>
<trkpt lat="-27.2707855" lon="151.2867521">
  <ele>372.05</ele>
  <time>2026-09-01T19:57:32Z</time>
  <course>222.1</course>
  <speed>25.4451567100696</speed>
  <fix>3d</fix>
</trkpt>
<trkpt lat="-27.2707524" lon="151.2867853">
  <ele>372.02</ele>
  <time>2026-09-01T19:57:32Z</time>
  <course>221.45</course>
  <speed>25.37</speed>
  <fix>3d</fix>
</trkpt>
<trkpt lat="-27.2708026" lon="151.286735">
  <ele>372.05</ele>
  <time>2026-09-01T19:57:32Z</time>
  <course>222.12</course>
  <speed>25.4451567100696</speed>
  <fix>3d</fix>
</trkpt>
<trkpt lat="-27.2707524" lon="151.2867853">
  <ele>372.02</ele>
  <time>2026-09-01T19:57:32Z</time>
  <course>221.45</course>
  <speed>25.37</speed>
  <fix>3d</fix>
</trkpt>
<trkpt lat="-27.2708199" lon="151.2867178">
  <ele>372.06</ele>
  <time>2026-09-01T19:57:32Z</time>
  <course>222.12</course>
  <speed>25.4451567100696</speed>
  <fix>3d</fix>
</trkpt>
<trkpt lat="-27.2707865" lon="151.2867514">
  <ele>372.02</ele>
  <time>2026-09-01T19:57:32Z</time>
  <course>221.48</course>
  <speed>25.37</speed>
  <fix>3d</fix>
</trkpt>
<trkpt lat="-27.270837" lon="151.2867008">
  <ele>372.06</ele>
  <time>2026-09-01T19:57:32Z</time>
  <course>222.12</course>
  <speed>25.451791685459003</speed>
  <fix>3d</fix>
</trkpt>
<trkpt lat="-27.2707865" lon="151.2867514">
  <ele>372.02</ele>
  <time>2026-09-01T19:57:32Z</time>
  <course>221.48</course>
  <speed>25.37</speed>
  <fix>3d</fix>
</trkpt>
<trkpt lat="-27.2708541" lon="151.2866838">
  <ele>372.07</ele>
  <time>2026-09-01T19:57:32Z</time>
  <course>222.17</course>
  <speed>25.4451567100696</speed>
  <fix>3d</fix>
</trkpt>
<trkpt lat="-27.2708207" lon="151.2867174">
  <ele>372.03</ele>
  <time>2026-09-01T19:57:32Z</time>
  <course>221.5</course>
  <speed>25.37</speed>
  <fix>3d</fix>
</trkpt>
<trkpt lat="-27.2708711" lon="151.2866668">
  <ele>372.08</ele>
  <time>2026-09-01T19:57:32Z</time>
  <course>222.16</course>
  <speed>25.437674815124122</speed>
  <fix>3d</fix>
</trkpt>
<trkpt lat="-27.2708207" lon="151.2867174">
  <ele>372.03</ele>
  <time>2026-09-01T19:57:32Z</time>
  <course>221.5</course>
  <speed>25.37</speed>
  <fix>3d</fix>
</trkpt>
<trkpt lat="-27.2708882" lon="151.2866498">
  <ele>372.09</ele>
  <time>2026-09-01T19:57:32Z</time>
  <course>222.21</course>
  <speed>25.43019465124088</speed>
  <fix>3d</fix>
</trkpt>
<trkpt lat="-27.2708548" lon="151.2866834">
  <ele>372.04</ele>
  <time>2026-09-01T19:57:32Z</time>
  <course>221.52</course>
  <speed>25.37</speed>
  <fix>3d</fix>
</trkpt>
<trkpt lat="-27.2709053" lon="151.2866328">
  <ele>372.1</ele>
  <time>2026-09-01T19:57:32Z</time>
  <course>222.26</course>
  <speed>25.429357050464333</speed>
  <fix>3d</fix>
</trkpt>
<trkpt lat="-27.2708548" lon="151.2866834">
  <ele>372.04</ele>
  <time>2026-09-01T19:57:32Z</time>
  <course>221.52</course>
  <speed>25.37</speed>
  <fix>3d</fix>
</trkpt>
<trkpt lat="-27.2709224" lon="151.2866157">
  <ele>372.11</ele>
  <time>2026-09-01T19:57:32Z</time>
  <course>222.28</course>
  <speed>25.436000078628716</speed>
  <fix>3d</fix>
</trkpt>
<trkpt lat="-27.2708889" lon="151.2866494">
  <ele>372.05</ele>
  <time>2026-09-01T19:57:32Z</time>
  <course>221.54</course>
  <speed>25.36</speed>
  <fix>3d</fix>
</trkpt>
<trkpt lat="-27.2709394" lon="151.2865987">
  <ele>372.11</ele>
  <time>2026-09-01T19:57:32Z</time>
  <course>222.25</course>
  <speed>25.42852728728111</speed>
  <fix>3d</fix>
</trkpt>
<trkpt lat="-27.2708889" lon="151.2866494">
  <ele>372.05</ele>
  <time>2026-09-01T19:57:32Z</time>
  <course>221.54</course>
  <speed>25.36</speed>
  <fix>3d</fix>
</trkpt>
<trkpt lat="-27.2709566" lon="151.2865816">
  <ele>372.12</ele>
  <time>2026-09-01T19:57:32Z</time>
  <course>222.23</course>
  <speed>25.43517446372248</speed>
  <fix>3d</fix>
</trkpt>
<trkpt lat="-27.2709231" lon="151.2866153">
  <ele>372.07</ele>
  <time>2026-09-01T19:57:32Z</time>
  <course>221.58</course>
  <speed>25.36</speed>
  <fix>3d</fix>
</trkpt>
<trkpt lat="-27.2709736" lon="151.2865645">
  <ele>372.12</ele>
  <time>2026-09-01T19:57:32Z</time>
  <course>222.24</course>
  <speed>25.43517446372248</speed>
  <fix>3d</fix>
</trkpt>
<trkpt lat="-27.2709231" lon="151.2866153">
  <ele>372.07</ele>
  <time>2026-09-01T19:57:32Z</time>
  <course>221.58</course>
  <speed>25.36</speed>
  <fix>3d</fix>
</trkpt>
<trkpt lat="-27.2709907" lon="151.2865474">
  <ele>372.12</ele>
  <time>2026-09-01T19:57:32Z</time>
  <course>222.26</course>
  <speed>25.44182383399429</speed>
  <fix>3d</fix>
</trkpt>
<trkpt lat="-27.2709572" lon="151.2865812">
  <ele>372.08</ele>
  <time>2026-09-01T19:57:32Z</time>
  <course>221.61</course>
  <speed>25.36</speed>
  <fix>3d</fix>
</trkpt>
<trkpt lat="-27.2710078" lon="151.2865303">
  <ele>372.12</ele>
  <time>2026-09-01T19:57:32Z</time>
  <course>222.27</course>
  <speed>25.448475396376892</speed>
  <fix>3d</fix>
</trkpt>
<trkpt lat="-27.2709572" lon="151.2865812">
  <ele>372.08</ele>
  <time>2026-09-01T19:57:32Z</time>
  <course>221.61</course>
  <speed>25.36</speed>
  <fix>3d</fix>
</trkpt>
<trkpt lat="-27.2710249" lon="151.2865132">
  <ele>372.12</ele>
  <time>2026-09-01T19:57:32Z</time>
  <course>222.3</course>
  <speed>25.448475396376892</speed>
  <fix>3d</fix>
</trkpt>
<trkpt lat="-27.2709913" lon="151.2865473">
  <ele>372.09</ele>
  <time>2026-09-01T19:57:32Z</time>
  <course>221.63</course>
  <speed>25.36</speed>
  <fix>3d</fix>
</trkpt>
<trkpt lat="-27.2710419" lon="151.2864962">
  <ele>372.12</ele>
  <time>2026-09-01T19:57:32Z</time>
  <course>222.32</course>
  <speed>25.455129149151844</speed>
  <fix>3d</fix>
</trkpt>
<trkpt lat="-27.2709913" lon="151.2865473">
  <ele>372.09</ele>
  <time>2026-09-01T19:57:32Z</time>
  <course>221.63</course>
  <speed>25.36</speed>
  <fix>3d</fix>
</trkpt>
<trkpt lat="-27.2710589" lon="151.2864792">
  <ele>372.12</ele>
  <time>2026-09-01T19:57:32Z</time>
  <course>222.32</course>
  <speed>25.455129149151844</speed>
  <fix>3d</fix>
</trkpt>
<trkpt lat="-27.2710253" lon="151.2865132">
  <ele>372.09</ele>
  <time>2026-09-01T19:57:32Z</time>
  <course>221.66</course>
  <speed>25.37</speed>
  <fix>3d</fix>
</trkpt>
<trkpt lat="-27.2710759" lon="151.2864622">
  <ele>372.12</ele>
  <time>2026-09-01T19:57:32Z</time>
  <course>222.3</course>
  <speed>25.44766590475441</speed>
  <fix>3d</fix>
</trkpt>
<trkpt lat="-27.2710253" lon="151.2865132">
  <ele>372.09</ele>
  <time>2026-09-01T19:57:32Z</time>
  <course>221.66</course>
  <speed>25.37</speed>
  <fix>3d</fix>
</trkpt>
<trkpt lat="-27.2710928" lon="151.2864453">
  <ele>372.11</ele>
  <time>2026-09-01T19:57:32Z</time>
  <course>222.27</course>
  <speed>25.44766590475441</speed>
  <fix>3d</fix>
</trkpt>
<trkpt lat="-27.2710594" lon="151.2864791">
  <ele>372.08</ele>
  <time>2026-09-01T19:57:32Z</time>
  <course>221.68</course>
  <speed>25.37</speed>
  <fix>3d</fix>
</trkpt>
<trkpt lat="-27.2711099" lon="151.2864282">
  <ele>372.11</ele>
  <time>2026-09-01T19:57:32Z</time>
  <course>222.28</course>
  <speed>25.441010200068707</speed>
  <fix>3d</fix>
</trkpt>
<trkpt lat="-27.2710594" lon="151.2864791">
  <ele>372.08</ele>
  <time>2026-09-01T19:57:32Z</time>
  <course>221.68</course>
  <speed>25.37</speed>
  <fix>3d</fix>
</trkpt>
<trkpt lat="-27.2711268" lon="151.2864112">
  <ele>372.1</ele>
  <time>2026-09-01T19:57:32Z</time>
  <course>222.34</course>
  <speed>25.433546744408257</speed>
  <fix>3d</fix>
</trkpt>
<trkpt lat="-27.2710934" lon="151.286445">
  <ele>372.07</ele>
  <time>2026-09-01T19:57:32Z</time>
  <course>221.68</course>
  <speed>25.38</speed>
  <fix>3d</fix>
</trkpt>
<trkpt lat="-27.2711437" lon="151.2863943">
  <ele>372.1</ele>
  <time>2026-09-01T19:57:32Z</time>
  <course>222.34</course>
  <speed>25.426085030928377</speed>
  <fix>3d</fix>
</trkpt>
<trkpt lat="-27.2710934" lon="151.286445">
  <ele>372.07</ele>
  <time>2026-09-01T19:57:32Z</time>
  <course>221.68</course>
  <speed>25.38</speed>
  <fix>3d</fix>
</trkpt>
<trkpt lat="-27.2711606" lon="151.2863773">
  <ele>372.1</ele>
  <time>2026-09-01T19:57:32Z</time>
  <course>222.35</course>
  <speed>25.426085030928377</speed>
  <fix>3d</fix>
</trkpt>
<trkpt lat="-27.2711274" lon="151.2864109">
  <ele>372.06</ele>
  <time>2026-09-01T19:57:32Z</time>
  <course>221.69</course>
  <speed>25.38</speed>
  <fix>3d</fix>
</trkpt>
<trkpt lat="-27.2711775" lon="151.2863604">
  <ele>372.1</ele>
  <time>2026-09-01T19:57:32Z</time>
  <course>222.35</course>
  <speed>25.411965685479746</speed>
  <fix>3d</fix>
</trkpt>
<trkpt lat="-27.2711274" lon="151.2864109">
  <ele>372.06</ele>
  <time>2026-09-01T19:57:32Z</time>
  <course>221.69</course>
  <speed>25.38</speed>
  <fix>3d</fix>
</trkpt>
<trkpt lat="-27.2711945" lon="151.2863433">
  <ele>372.1</ele>
  <time>2026-09-01T19:57:32Z</time>
  <course>222.36</course>
  <speed>25.418625061163322</speed>
  <fix>3d</fix>
</trkpt>
<trkpt lat="-27.2711615" lon="151.2863767">
  <ele>372.06</ele>
  <time>2026-09-01T19:57:32Z</time>
  <course>221.71</course>
  <speed>25.39</speed>
  <fix>3d</fix>
</trkpt>
<trkpt lat="-27.2712115" lon="151.2863263">
  <ele>372.09</ele>
  <time>2026-09-01T19:57:32Z</time>
  <course>222.39</course>
  <speed>25.418625061163322</speed>
  <fix>3d</fix>
</trkpt>
<trkpt lat="-27.2711615" lon="151.2863767">
  <ele>372.06</ele>
  <time>2026-09-01T19:57:32Z</time>
  <course>221.71</course>
  <speed>25.39</speed>
  <fix>3d</fix>
</trkpt>
<trkpt lat="-27.2712286" lon="151.2863092">
  <ele>372.09</ele>
  <time>2026-09-01T19:57:32Z</time>
  <course>222.37</course>
  <speed>25.42528662571968</speed>
  <fix>3d</fix>
</trkpt>
<trkpt lat="-27.2711955" lon="151.2863426">
  <ele>372.05</ele>
  <time>2026-09-01T19:57:32Z</time>
  <course>221.71</course>
  <speed>25.39</speed>
  <fix>3d</fix>
</trkpt>
<trkpt lat="-27.2712456" lon="151.286292">
  <ele>372.09</ele>
  <time>2026-09-01T19:57:32Z</time>
  <course>222.35</course>
  <speed>25.42528662571968</speed>
  <fix>3d</fix>
</trkpt>
<trkpt lat="-27.2711955" lon="151.2863426">
  <ele>372.05</ele>
  <time>2026-09-01T19:57:32Z</time>
  <course>221.71</course>
  <speed>25.39</speed>
  <fix>3d</fix>
</trkpt>
<trkpt lat="-27.2712627" lon="151.2862749">
  <ele>372.08</ele>
  <time>2026-09-01T19:57:32Z</time>
  <course>222.32</course>
  <speed>25.439406439616473</speed>
  <fix>3d</fix>
</trkpt>
<trkpt lat="-27.2712296" lon="151.2863084">
  <ele>372.04</ele>
  <time>2026-09-01T19:57:32Z</time>
  <course>221.73</course>
  <speed>25.4</speed>
  <fix>3d</fix>
</trkpt>
<trkpt lat="-27.27128" lon="151.2862576">
  <ele>372.07</ele>
  <time>2026-09-01T19:57:32Z</time>
  <course>222.32</course>
  <speed>25.439406439616473</speed>
  <fix>3d</fix>
</trkpt>
<trkpt lat="-27.2712296" lon="151.2863084">
  <ele>372.04</ele>
  <time>2026-09-01T19:57:32Z</time>
  <course>221.73</course>
  <speed>25.4</speed>
  <fix>3d</fix>
</trkpt>
<trkpt lat="-27.2712969" lon="151.2862406">
  <ele>372.07</ele>
  <time>2026-09-01T19:57:32Z</time>
  <course>222.33</course>
  <speed>25.439406439616473</speed>
  <fix>3d</fix>
</trkpt>
<trkpt lat="-27.2712637" lon="151.2862741">
  <ele>372.03</ele>
  <time>2026-09-01T19:57:32Z</time>
  <course>221.73</course>
  <speed>25.4</speed>
  <fix>3d</fix>
</trkpt>
<trkpt lat="-27.2713138" lon="151.2862236">
  <ele>372.07</ele>
  <time>2026-09-01T19:57:32Z</time>
  <course>222.37</course>
  <speed>25.42528662571968</speed>
  <fix>3d</fix>
</trkpt>
<trkpt lat="-27.2712637" lon="151.2862741">
  <ele>372.03</ele>
  <time>2026-09-01T19:57:32Z</time>
  <course>221.73</course>
  <speed>25.4</speed>
  <fix>3d</fix>
</trkpt>
<trkpt lat="-27.2713307" lon="151.2862067">
  <ele>372.06</ele>
  <time>2026-09-01T19:57:32Z</time>
  <course>222.4</course>
  <speed>25.418625061163322</speed>
  <fix>3d</fix>
</trkpt>
<trkpt lat="-27.2712978" lon="151.28624">
  <ele>372.02</ele>
  <time>2026-09-01T19:57:32Z</time>
  <course>221.73</course>
  <speed>25.41</speed>
  <fix>3d</fix>
</trkpt>
<trkpt lat="-27.2713477" lon="151.2861897">
  <ele>372.06</ele>
  <time>2026-09-01T19:57:32Z</time>
  <course>222.4</course>
  <speed>25.411166836648803</speed>
  <fix>3d</fix>
</trkpt>
<trkpt lat="-27.2712978" lon="151.28624">
  <ele>372.02</ele>
  <time>2026-09-01T19:57:32Z</time>
  <course>221.73</course>
  <speed>25.41</speed>
  <fix>3d</fix>
</trkpt>
<trkpt lat="-27.2713645" lon="151.2861727">
  <ele>372.05</ele>
  <time>2026-09-01T19:57:32Z</time>
  <course>222.38</course>
  <speed>25.40371035892198</speed>
  <fix>3d</fix>
</trkpt>
<trkpt lat="-27.2713319" lon="151.2862058">
  <ele>372.01</ele>
  <time>2026-09-01T19:57:32Z</time>
  <course>221.73</course>
  <speed>25.41</speed>
  <fix>3d</fix>
</trkpt>
<trkpt lat="-27.2713814" lon="151.2861557">
  <ele>372.05</ele>
  <time>2026-09-01T19:57:32Z</time>
  <course>222.39</course>
  <speed>25.389590386613172</speed>
  <fix>3d</fix>
</trkpt>
<trkpt lat="-27.2713319" lon="151.2862058">
  <ele>372.01</ele>
  <time>2026-09-01T19:57:32Z</time>
  <course>221.73</course>
  <speed>25.41</speed>
  <fix>3d</fix>
</trkpt>
<trkpt lat="-27.2713981" lon="151.286139">
  <ele>372.05</ele>
  <time>2026-09-01T19:57:32Z</time>
  <course>222.42</course>
  <speed>25.382135449957715</speed>
  <fix>3d</fix>
</trkpt>
<trkpt lat="-27.2713659" lon="151.2861716">
  <ele>372.01</ele>
  <time>2026-09-01T19:57:32Z</time>
  <course>221.74</course>
  <speed>25.41</speed>
  <fix>3d</fix>
</trkpt>
<trkpt lat="-27.271415" lon="151.286122">
  <ele>372.05</ele>
  <time>2026-09-01T19:57:33Z</time>
  <course>222.38</course>
  <speed>25.374682264020567</speed>
  <fix>3d</fix>
</trkpt>
<trkpt lat="-27.2713659" lon="151.2861716">
  <ele>372.01</ele>
  <time>2026-09-01T19:57:33Z</time>
  <course>221.74</course>
  <speed>25.41</speed>
  <fix>3d</fix>
</trkpt>
<trkpt lat="-27.271432" lon="151.286105">
  <ele>372.05</ele>
  <time>2026-09-01T19:57:33Z</time>
  <course>222.35</course>
  <speed>25.374682264020567</speed>
  <fix>3d</fix>
</trkpt>
<trkpt lat="-27.2714" lon="151.2861373">
  <ele>372.01</ele>
  <time>2026-09-01T19:57:33Z</time>
  <course>221.76</course>
  <speed>25.41</speed>
  <fix>3d</fix>
</trkpt>
<trkpt lat="-27.2714489" lon="151.2860879">
  <ele>372.04</ele>
  <time>2026-09-01T19:57:33Z</time>
  <course>222.41</course>
  <speed>25.374682264020567</speed>
  <fix>3d</fix>
</trkpt>
<trkpt lat="-27.2714" lon="151.2861373">
  <ele>372.01</ele>
  <time>2026-09-01T19:57:33Z</time>
  <course>221.76</course>
  <speed>25.41</speed>
  <fix>3d</fix>
</trkpt>
<trkpt lat="-27.2714661" lon="151.2860707">
  <ele>372.04</ele>
  <time>2026-09-01T19:57:33Z</time>
  <course>222.44</course>
  <speed>25.381351421860895</speed>
  <fix>3d</fix>
</trkpt>
<trkpt lat="-27.271434" lon="151.2861032">
  <ele>372.0</ele>
  <time>2026-09-01T19:57:33Z</time>
  <course>221.78</course>
  <speed>25.41</speed>
  <fix>3d</fix>
</trkpt>
<trkpt lat="-27.2714831" lon="151.2860536">
  <ele>372.04</ele>
  <time>2026-09-01T19:57:33Z</time>
  <course>222.4</course>
  <speed>25.381351421860895</speed>
  <fix>3d</fix>
</trkpt>
<trkpt lat="-27.271434" lon="151.2861032">
  <ele>372.0</ele>
  <time>2026-09-01T19:57:33Z</time>
  <course>221.78</course>
  <speed>25.41</speed>
  <fix>3d</fix>
</trkpt>
<trkpt lat="-27.2715001" lon="151.2860365">
  <ele>372.03</ele>
  <time>2026-09-01T19:57:33Z</time>
  <course>222.36</course>
  <speed>25.388802649987255</speed>
  <fix>3d</fix>
</trkpt>
<trkpt lat="-27.2714681" lon="151.2860689">
  <ele>372.0</ele>
  <time>2026-09-01T19:57:33Z</time>
  <course>221.79</course>
  <speed>25.42</speed>
  <fix>3d</fix>
</trkpt>
<trkpt lat="-27.2715172" lon="151.2860193">
  <ele>372.03</ele>
  <time>2026-09-01T19:57:33Z</time>
  <course>222.35</course>
  <speed>25.388802649987255</speed>
  <fix>3d</fix>
</trkpt>
<trkpt lat="-27.2714681" lon="151.2860689">
  <ele>372.0</ele>
  <time>2026-09-01T19:57:33Z</time>
  <course>221.79</course>
  <speed>25.42</speed>
  <fix>3d</fix>
</trkpt>
<trkpt lat="-27.2715342" lon="151.2860022">
  <ele>372.03</ele>
  <time>2026-09-01T19:57:33Z</time>
  <course>222.38</course>
  <speed>25.388802649987255</speed>
  <fix>3d</fix>
</trkpt>
<trkpt lat="-27.2715021" lon="151.2860346">
  <ele>371.99</ele>
  <time>2026-09-01T19:57:33Z</time>
  <course>221.8</course>
  <speed>25.42</speed>
  <fix>3d</fix>
</trkpt>
<trkpt lat="-27.2715513" lon="151.285985">
  <ele>372.03</ele>
  <time>2026-09-01T19:57:33Z</time>
  <course>222.43</course>
  <speed>25.388802649987255</speed>
  <fix>3d</fix>
</trkpt>
<trkpt lat="-27.2715021" lon="151.2860346">
  <ele>371.99</ele>
  <time>2026-09-01T19:57:33Z</time>
  <course>221.8</course>
  <speed>25.42</speed>
  <fix>3d</fix>
</trkpt>
<trkpt lat="-27.2715683" lon="151.2859679">
  <ele>372.03</ele>
  <time>2026-09-01T19:57:33Z</time>
  <course>222.42</course>
  <speed>25.402923060151956</speed>
  <fix>3d</fix>
</trkpt>
<trkpt lat="-27.2715361" lon="151.2860005">
  <ele>371.99</ele>
  <time>2026-09-01T19:57:33Z</time>
  <course>221.8</course>
  <speed>25.42</speed>
  <fix>3d</fix>
</trkpt>
<trkpt lat="-27.2715854" lon="151.2859507">
  <ele>372.03</ele>
  <time>2026-09-01T19:57:33Z</time>
  <course>222.43</course>
  <speed>25.402923060151956</speed>
  <fix>3d</fix>
</trkpt>
<trkpt lat="-27.2715361" lon="151.2860005">
  <ele>371.99</ele>
  <time>2026-09-01T19:57:33Z</time>
  <course>221.8</course>
  <speed>25.42</speed>
  <fix>3d</fix>
</trkpt>
<trkpt lat="-27.2716024" lon="151.2859335">
  <ele>372.03</ele>
  <time>2026-09-01T19:57:33Z</time>
  <course>222.5</course>
  <speed>25.409592676782523</speed>
  <fix>3d</fix>
</trkpt>
<trkpt lat="-27.2715702" lon="151.2859662">
  <ele>371.99</ele>
  <time>2026-09-01T19:57:33Z</time>
  <course>221.8</course>
  <speed>25.42</speed>
  <fix>3d</fix>
</trkpt>
<trkpt lat="-27.2716195" lon="151.2859164">
  <ele>372.03</ele>
  <time>2026-09-01T19:57:33Z</time>
  <course>222.49</course>
  <speed>25.409592676782523</speed>
  <fix>3d</fix>
</trkpt>
<trkpt lat="-27.2715702" lon="151.2859662">
  <ele>371.99</ele>
  <time>2026-09-01T19:57:33Z</time>
  <course>221.8</course>
  <speed>25.42</speed>
  <fix>3d</fix>
</trkpt>
<trkpt lat="-27.2716366" lon="151.2858992">
  <ele>372.03</ele>
  <time>2026-09-01T19:57:33Z</time>
  <course>222.44</course>
  <speed>25.416264477692234</speed>
  <fix>3d</fix>
</trkpt>
<trkpt lat="-27.2716043" lon="151.2859318">
  <ele>371.99</ele>
  <time>2026-09-01T19:57:33Z</time>
  <course>221.81</course>
  <speed>25.42</speed>
  <fix>3d</fix>
</trkpt>
<trkpt lat="-27.2716536" lon="151.285882">
  <ele>372.03</ele>
  <time>2026-09-01T19:57:33Z</time>
  <course>222.42</course>
  <speed>25.41704349447433</speed>
  <fix>3d</fix>
</trkpt>
<trkpt lat="-27.2716043" lon="151.2859318">
  <ele>371.99</ele>
  <time>2026-09-01T19:57:33Z</time>
  <course>221.81</course>
  <speed>25.42</speed>
  <fix>3d</fix>
</trkpt>
<trkpt lat="-27.2716707" lon="151.2858649">
  <ele>372.03</ele>
  <time>2026-09-01T19:57:33Z</time>
  <course>222.43</course>
  <speed>25.41704349447433</speed>
  <fix>3d</fix>
</trkpt>
<trkpt lat="-27.2716384" lon="151.2858975">
  <ele>371.99</ele>
  <time>2026-09-01T19:57:33Z</time>
  <course>221.81</course>
  <speed>25.42</speed>
  <fix>3d</fix>
</trkpt>
<trkpt lat="-27.2716877" lon="151.2858477">
  <ele>372.03</ele>
  <time>2026-09-01T19:57:33Z</time>
  <course>222.46</course>
  <speed>25.423713340108282</speed>
  <fix>3d</fix>
</trkpt>
<trkpt lat="-27.2716384" lon="151.2858975">
  <ele>371.99</ele>
  <time>2026-09-01T19:57:33Z</time>
  <course>221.81</course>
  <speed>25.42</speed>
  <fix>3d</fix>
</trkpt>
<trkpt lat="-27.2717047" lon="151.2858306">
  <ele>372.03</ele>
  <time>2026-09-01T19:57:33Z</time>
  <course>222.46</course>
  <speed>25.41704349447433</speed>
  <fix>3d</fix>
</trkpt>
<trkpt lat="-27.2716724" lon="151.2858633">
  <ele>371.99</ele>
  <time>2026-09-01T19:57:33Z</time>
  <course>221.8</course>
  <speed>25.43</speed>
  <fix>3d</fix>
</trkpt>
<trkpt lat="-27.2717217" lon="151.2858136">
  <ele>372.04</ele>
  <time>2026-09-01T19:57:33Z</time>
  <course>222.43</course>
  <speed>25.409592676782523</speed>
  <fix>3d</fix>
</trkpt>
<trkpt lat="-27.2716724" lon="151.2858633">
  <ele>371.99</ele>
  <time>2026-09-01T19:57:33Z</time>
  <course>221.8</course>
  <speed>25.43</speed>
  <fix>3d</fix>
</trkpt>
<trkpt lat="-27.2717386" lon="151.2857965">
  <ele>372.04</ele>
  <time>2026-09-01T19:57:33Z</time>
  <course>222.47</course>
  <speed>25.40214361033336</speed>
  <fix>3d</fix>
</trkpt>
<trkpt lat="-27.2717065" lon="151.285829">
  <ele>371.99</ele>
  <time>2026-09-01T19:57:33Z</time>
  <course>221.8</course>
  <speed>25.43</speed>
  <fix>3d</fix>
</trkpt>
<trkpt lat="-27.2717555" lon="151.2857795">
  <ele>372.05</ele>
  <time>2026-09-01T19:57:33Z</time>
  <course>222.45</course>
  <speed>25.39547203735343</speed>
  <fix>3d</fix>
</trkpt>
<trkpt lat="-27.2717065" lon="151.285829">
  <ele>371.99</ele>
  <time>2026-09-01T19:57:33Z</time>
  <course>221.8</course>
  <speed>25.43</speed>
  <fix>3d</fix>
</trkpt>
<trkpt lat="-27.2717725" lon="151.2857624">
  <ele>372.05</ele>
  <time>2026-09-01T19:57:33Z</time>
  <course>222.45</course>
  <speed>25.388022766651208</speed>
  <fix>3d</fix>
</trkpt>
<trkpt lat="-27.2717405" lon="151.2857948">
  <ele>372.0</ele>
  <time>2026-09-01T19:57:33Z</time>
  <course>221.81</course>
  <speed>25.42</speed>
  <fix>3d</fix>
</trkpt>
<trkpt lat="-27.2717895" lon="151.2857453">
  <ele>372.06</ele>
  <time>2026-09-01T19:57:33Z</time>
  <course>222.45</course>
  <speed>25.39469629666793</speed>
  <fix>3d</fix>
</trkpt>
<trkpt lat="-27.2717405" lon="151.2857948">
  <ele>372.0</ele>
  <time>2026-09-01T19:57:33Z</time>
  <course>221.81</course>
  <speed>25.42</speed>
  <fix>3d</fix>
</trkpt>
<trkpt lat="-27.2718065" lon="151.2857282">
  <ele>372.06</ele>
  <time>2026-09-01T19:57:33Z</time>
  <course>222.46</course>
  <speed>25.39469629666793</speed>
  <fix>3d</fix>
</trkpt>
<trkpt lat="-27.2717745" lon="151.2857605">
  <ele>372.01</ele>
  <time>2026-09-01T19:57:33Z</time>
  <course>221.83</course>
  <speed>25.42</speed>
  <fix>3d</fix>
</trkpt>
<trkpt lat="-27.2718237" lon="151.2857109">
  <ele>372.06</ele>
  <time>2026-09-01T19:57:33Z</time>
  <course>222.43</course>
  <speed>25.39469629666793</speed>
  <fix>3d</fix>
</trkpt>
<trkpt lat="-27.2717745" lon="151.2857605">
  <ele>372.01</ele>
  <time>2026-09-01T19:57:33Z</time>
  <course>221.83</course>
  <speed>25.42</speed>
  <fix>3d</fix>
</trkpt>
<trkpt lat="-27.2718407" lon="151.2856937">
  <ele>372.06</ele>
  <time>2026-09-01T19:57:33Z</time>
  <course>222.41</course>
  <speed>25.39469629666793</speed>
  <fix>3d</fix>
</trkpt>
<trkpt lat="-27.2718086" lon="151.2857263">
  <ele>372.02</ele>
  <time>2026-09-01T19:57:33Z</time>
  <course>221.83</course>
  <speed>25.42</speed>
  <fix>3d</fix>
</trkpt>
<trkpt lat="-27.2718577" lon="151.2856766">
  <ele>372.06</ele>
  <time>2026-09-01T19:57:33Z</time>
  <course>222.38</course>
  <speed>25.40214361033336</speed>
  <fix>3d</fix>
</trkpt>
<trkpt lat="-27.2718086" lon="151.2857263">
  <ele>372.02</ele>
  <time>2026-09-01T19:57:33Z</time>
  <course>221.83</course>
  <speed>25.42</speed>
  <fix>3d</fix>
</trkpt>
<trkpt lat="-27.2718748" lon="151.2856594">
  <ele>372.06</ele>
  <time>2026-09-01T19:57:33Z</time>
  <course>222.36</course>
  <speed>25.409592676782523</speed>
  <fix>3d</fix>
</trkpt>
<trkpt lat="-27.2718426" lon="151.285692">
  <ele>372.03</ele>
  <time>2026-09-01T19:57:33Z</time>
  <course>221.83</course>
  <speed>25.41</speed>
  <fix>3d</fix>
</trkpt>
<trkpt lat="-27.2718918" lon="151.2856422">
  <ele>372.06</ele>
  <time>2026-09-01T19:57:33Z</time>
  <course>222.36</course>
  <speed>25.409592676782523</speed>
  <fix>3d</fix>
</trkpt>
<trkpt lat="-27.2718426" lon="151.285692">
  <ele>372.03</ele>
  <time>2026-09-01T19:57:33Z</time>
  <course>221.83</course>
  <speed>25.41</speed>
  <fix>3d</fix>
</trkpt>
<trkpt lat="-27.2719089" lon="151.2856251">
  <ele>372.06</ele>
  <time>2026-09-01T19:57:33Z</time>
  <course>222.35</course>
  <speed>25.41704349447433</speed>
  <fix>3d</fix>
</trkpt>
<trkpt lat="-27.2718766" lon="151.2856578">
  <ele>372.03</ele>
  <time>2026-09-01T19:57:33Z</time>
  <course>221.82</course>
  <speed>25.42</speed>
  <fix>3d</fix>
</trkpt>
<trkpt lat="-27.2719259" lon="151.2856079">
  <ele>372.06</ele>
  <time>2026-09-01T19:57:33Z</time>
  <course>222.37</course>
  <speed>25.41704349447433</speed>
  <fix>3d</fix>
</trkpt>
<trkpt lat="-27.2718766" lon="151.2856578">
  <ele>372.03</ele>
  <time>2026-09-01T19:57:33Z</time>
  <course>221.82</course>
  <speed>25.42</speed>
  <fix>3d</fix>
</trkpt>
<trkpt lat="-27.271943" lon="151.2855907">
  <ele>372.07</ele>
  <time>2026-09-01T19:57:33Z</time>
  <course>222.4</course>
  <speed>25.423713340108282</speed>
  <fix>3d</fix>
</trkpt>
<trkpt lat="-27.2719106" lon="151.2856235">
  <ele>372.03</ele>
  <time>2026-09-01T19:57:33Z</time>
  <course>221.81</course>
  <speed>25.42</speed>
  <fix>3d</fix>
</trkpt>
<trkpt lat="-27.2719601" lon="151.2855736">
  <ele>372.07</ele>
  <time>2026-09-01T19:57:33Z</time>
  <course>222.46</course>
  <speed>25.423713340108282</speed>
  <fix>3d</fix>
</trkpt>
<trkpt lat="-27.2719106" lon="151.2856235">
  <ele>372.03</ele>
  <time>2026-09-01T19:57:33Z</time>
  <course>221.81</course>
  <speed>25.42</speed>
  <fix>3d</fix>
</trkpt>
<trkpt lat="-27.2719771" lon="151.2855564">
  <ele>372.07</ele>
  <time>2026-09-01T19:57:33Z</time>
  <course>222.44</course>
  <speed>25.416264477692234</speed>
  <fix>3d</fix>
</trkpt>
<trkpt lat="-27.2719447" lon="151.2855892">
  <ele>372.04</ele>
  <time>2026-09-01T19:57:33Z</time>
  <course>221.81</course>
  <speed>25.42</speed>
  <fix>3d</fix>
</trkpt>
<trkpt lat="-27.2719941" lon="151.2855393">
  <ele>372.07</ele>
  <time>2026-09-01T19:57:33Z</time>
  <course>222.42</course>
  <speed>25.416264477692234</speed>
  <fix>3d</fix>
</trkpt>
<trkpt lat="-27.2719447" lon="151.2855892">
  <ele>372.04</ele>
  <time>2026-09-01T19:57:33Z</time>
  <course>221.81</course>
  <speed>25.42</speed>
  <fix>3d</fix>
</trkpt>
<trkpt lat="-27.2720112" lon="151.2855221">
  <ele>372.08</ele>
  <time>2026-09-01T19:57:33Z</time>
  <course>222.44</course>
  <speed>25.415493306249243</speed>
  <fix>3d</fix>
</trkpt>
<trkpt lat="-27.2719788" lon="151.2855549">
  <ele>372.04</ele>
  <time>2026-09-01T19:57:33Z</time>
  <course>221.83</course>
  <speed>25.41</speed>
  <fix>3d</fix>
</trkpt>
<trkpt lat="-27.2720282" lon="151.2855049">
  <ele>372.08</ele>
  <time>2026-09-01T19:57:33Z</time>
  <course>222.47</course>
  <speed>25.422938461161408</speed>
  <fix>3d</fix>
</trkpt>
<trkpt lat="-27.2719788" lon="151.2855549">
  <ele>372.04</ele>
  <time>2026-09-01T19:57:33Z</time>
  <course>221.83</course>
  <speed>25.41</speed>
  <fix>3d</fix>
</trkpt>
<trkpt lat="-27.2720452" lon="151.2854878">
  <ele>372.08</ele>
  <time>2026-09-01T19:57:33Z</time>
  <course>222.49</course>
  <speed>25.415493306249243</speed>
  <fix>3d</fix>
</trkpt>
<trkpt lat="-27.2720128" lon="151.2855206">
  <ele>372.05</ele>
  <time>2026-09-01T19:57:33Z</time>
  <course>221.85</course>
  <speed>25.41</speed>
  <fix>3d</fix>
</trkpt>
<trkpt lat="-27.2720621" lon="151.2854708">
  <ele>372.08</ele>
  <time>2026-09-01T19:57:33Z</time>
  <course>222.5</course>
  <speed>25.415493306249243</speed>
  <fix>3d</fix>
</trkpt>
<trkpt lat="-27.2720128" lon="151.2855206">
  <ele>372.05</ele>
  <time>2026-09-01T19:57:33Z</time>
  <course>221.85</course>
  <speed>25.41</speed>
  <fix>3d</fix>
</trkpt>
<trkpt lat="-27.272079" lon="151.2854537">
  <ele>372.09</ele>
  <time>2026-09-01T19:57:33Z</time>
  <course>222.51</course>
  <speed>25.408049905492547</speed>
  <fix>3d</fix>
</trkpt>
<trkpt lat="-27.2720468" lon="151.2854863">
  <ele>372.06</ele>
  <time>2026-09-01T19:57:33Z</time>
  <course>221.87</course>
  <speed>25.41</speed>
  <fix>3d</fix>
</trkpt>
<trkpt lat="-27.2720959" lon="151.2854367">
  <ele>372.08</ele>
  <time>2026-09-01T19:57:33Z</time>
  <course>222.48</course>
  <speed>25.40060826043345</speed>
  <fix>3d</fix>
</trkpt>
<trkpt lat="-27.2720468" lon="151.2854863">
  <ele>372.06</ele>
  <time>2026-09-01T19:57:33Z</time>
  <course>221.87</course>
  <speed>25.41</speed>
  <fix>3d</fix>
</trkpt>
<trkpt lat="-27.2721127" lon="151.2854197">
  <ele>372.08</ele>
  <time>2026-09-01T19:57:33Z</time>
  <course>222.45</course>
  <speed>25.393168372615495</speed>
  <fix>3d</fix>
</trkpt>
<trkpt lat="-27.2720808" lon="151.285452">
  <ele>372.06</ele>
  <time>2026-09-01T19:57:33Z</time>
  <course>221.89</course>
  <speed>25.41</speed>
  <fix>3d</fix>
</trkpt>
<trkpt lat="-27.2721296" lon="151.2854026">
  <ele>372.08</ele>
  <time>2026-09-01T19:57:33Z</time>
  <course>222.37</course>
  <speed>25.393168372615495</speed>
  <fix>3d</fix>
</trkpt>
<trkpt lat="-27.2720808" lon="151.285452">
  <ele>372.06</ele>
  <time>2026-09-01T19:57:33Z</time>
  <course>221.89</course>
  <speed>25.41</speed>
  <fix>3d</fix>
</trkpt>
<trkpt lat="-27.2721465" lon="151.2853856">
  <ele>372.08</ele>
  <time>2026-09-01T19:57:33Z</time>
  <course>222.1</course>
  <speed>25.386486562736483</speed>
  <fix>3d</fix>
</trkpt>
<trkpt lat="-27.2721148" lon="151.2854177">
  <ele>372.06</ele>
  <time>2026-09-01T19:57:33Z</time>
  <course>221.91</course>
  <speed>25.41</speed>
  <fix>3d</fix>
</trkpt>
<trkpt lat="-27.2721633" lon="151.2853686">
  <ele>372.08</ele>
  <time>2026-09-01T19:57:33Z</time>
  <course>221.55</course>
  <speed>25.382135449957715</speed>
  <fix>3d</fix>
</trkpt>
<trkpt lat="-27.2721148" lon="151.2854177">
  <ele>372.06</ele>
  <time>2026-09-01T19:57:33Z</time>
  <course>221.91</course>
  <speed>25.41</speed>
  <fix>3d</fix>
</trkpt>
<trkpt lat="-27.2721802" lon="151.2853517">
  <ele>372.09</ele>
  <time>2026-09-01T19:57:33Z</time>
  <course>220.85</course>
  <speed>25.383784193851003</speed>
  <fix>3d</fix>
</trkpt>
<trkpt lat="-27.2721487" lon="151.2853834">
  <ele>372.06</ele>
  <time>2026-09-01T19:57:33Z</time>
  <course>221.86</course>
  <speed>25.42</speed>
  <fix>3d</fix>
</trkpt>
<trkpt lat="-27.2721974" lon="151.2853348">
  <ele>372.11</ele>
  <time>2026-09-01T19:57:33Z</time>
  <course>220.22</course>
  <speed>25.383159771785703</speed>
  <fix>3d</fix>
</trkpt>
<trkpt lat="-27.2721487" lon="151.2853834">
  <ele>372.06</ele>
  <time>2026-09-01T19:57:33Z</time>
  <course>221.86</course>
  <speed>25.42</speed>
  <fix>3d</fix>
</trkpt>
<trkpt lat="-27.2722149" lon="151.2853182">
  <ele>372.12</ele>
  <time>2026-09-01T19:57:33Z</time>
  <course>219.71</course>
  <speed>25.399970472423785</speed>
  <fix>3d</fix>
</trkpt>
<trkpt lat="-27.2721828" lon="151.2853493">
  <ele>372.08</ele>
  <time>2026-09-01T19:57:33Z</time>
  <course>221.31</course>
  <speed>25.42</speed>
  <fix>3d</fix>
</trkpt>
<trkpt lat="-27.2722329" lon="151.2853017">
  <ele>372.14</ele>
  <time>2026-09-01T19:57:33Z</time>
  <course>219.03</course>
  <speed>25.420725796090085</speed>
  <fix>3d</fix>
</trkpt>
<trkpt lat="-27.2721828" lon="151.2853493">
  <ele>372.08</ele>
  <time>2026-09-01T19:57:33Z</time>
  <course>221.31</course>
  <speed>25.42</speed>
  <fix>3d</fix>
</trkpt>
<trkpt lat="-27.272251" lon="151.285286">
  <ele>372.15</ele>
  <time>2026-09-01T19:57:33Z</time>
  <course>217.96</course>
  <speed>25.45019646289592</speed>
  <fix>3d</fix>
</trkpt>
<trkpt lat="-27.2722175" lon="151.2853159">
  <ele>372.11</ele>
  <time>2026-09-01T19:57:33Z</time>
  <course>219.64</course>
  <speed>25.42</speed>
  <fix>3d</fix>
</trkpt>
<trkpt lat="-27.2722696" lon="151.2852711">
  <ele>372.15</ele>
  <time>2026-09-01T19:57:33Z</time>
  <course>216.3</course>
  <speed>25.496893928476858</speed>
  <fix>3d</fix>
</trkpt>
<trkpt lat="-27.2722175" lon="151.2853159">
  <ele>372.11</ele>
  <time>2026-09-01T19:57:33Z</time>
  <course>219.64</course>
  <speed>25.42</speed>
  <fix>3d</fix>
</trkpt>
<trkpt lat="-27.2722887" lon="151.2852569">
  <ele>372.16</ele>
  <time>2026-09-01T19:57:33Z</time>
  <course>214.05</course>
  <speed>25.565054273363085</speed>
  <fix>3d</fix>
</trkpt>
<trkpt lat="-27.2722533" lon="151.285284">
  <ele>372.13</ele>
  <time>2026-09-01T19:57:33Z</time>
  <course>216.59</course>
  <speed>25.45</speed>
  <fix>3d</fix>
</trkpt>
<trkpt lat="-27.2723084" lon="151.2852437">
  <ele>372.19</ele>
  <time>2026-09-01T19:57:33Z</time>
  <course>211.45</course>
  <speed>25.6373965136868</speed>
  <fix>3d</fix>
</trkpt>
<trkpt lat="-27.2722533" lon="151.285284">
  <ele>372.13</ele>
  <time>2026-09-01T19:57:33Z</time>
  <course>216.59</course>
  <speed>25.45</speed>
  <fix>3d</fix>
</trkpt>
<trkpt lat="-27.2723287" lon="151.2852315">
  <ele>372.23</ele>
  <time>2026-09-01T19:57:33Z</time>
  <course>208.47</course>
  <speed>25.723825531984936</speed>
  <fix>3d</fix>
</trkpt>
<trkpt lat="-27.2722912" lon="151.2852548">
  <ele>372.16</ele>
  <time>2026-09-01T19:57:33Z</time>
  <course>212.09</course>
  <speed>25.53</speed>
  <fix>3d</fix>
</trkpt>
<trkpt lat="-27.2723497" lon="151.2852206">
  <ele>372.29</ele>
  <time>2026-09-01T19:57:33Z</time>
  <course>205.44</course>
  <speed>25.80443760286203</speed>
  <fix>3d</fix>
</trkpt>
<trkpt lat="-27.2722912" lon="151.2852548">
  <ele>372.16</ele>
  <time>2026-09-01T19:57:33Z</time>
  <course>212.09</course>
  <speed>25.53</speed>
  <fix>3d</fix>
</trkpt>
<trkpt lat="-27.2723711" lon="151.2852108">
  <ele>372.38</ele>
  <time>2026-09-01T19:57:33Z</time>
  <course>202.46</course>
  <speed>25.86866830743322</speed>
  <fix>3d</fix>
</trkpt>
<trkpt lat="-27.2723313" lon="151.2852294">
  <ele>372.22</ele>
  <time>2026-09-01T19:57:33Z</time>
  <course>206.48</course>
  <speed>25.65</speed>
  <fix>3d</fix>
</trkpt>
<trkpt lat="-27.272393" lon="151.2852023">
  <ele>372.49</ele>
  <time>2026-09-01T19:57:33Z</time>
  <course>199.45</course>
  <speed>25.919500380987284</speed>
  <fix>3d</fix>
</trkpt>
<trkpt lat="-27.2723313" lon="151.2852294">
  <ele>372.22</ele>
  <time>2026-09-01T19:57:33Z</time>
  <course>206.48</course>
  <speed>25.65</speed>
  <fix>3d</fix>
</trkpt>
<trkpt lat="-27.2724153" lon="151.2851951">
  <ele>372.63</ele>
  <time>2026-09-01T19:57:33Z</time>
  <course>196.47</course>
  <speed>25.956717820248382</speed>
  <fix>3d</fix>
</trkpt>
<trkpt lat="-27.2723736" lon="151.2852088">
  <ele>372.38</ele>
  <time>2026-09-01T19:57:33Z</time>
  <course>200.47</course>
  <speed>25.78</speed>
  <fix>3d</fix>
</trkpt>
<trkpt lat="-27.2724379" lon="151.2851891">
  <ele>372.78</ele>
  <time>2026-09-01T19:57:33Z</time>
  <course>193.58</course>
  <speed>25.981608880129038</speed>
  <fix>3d</fix>
</trkpt>
<trkpt lat="-27.2723736" lon="151.2852088">
  <ele>372.38</ele>
  <time>2026-09-01T19:57:33Z</time>
  <course>200.47</course>
  <speed>25.78</speed>
  <fix>3d</fix>
</trkpt>
<trkpt lat="-27.2724609" lon="151.2851844">
  <ele>372.94</ele>
  <time>2026-09-01T19:57:33Z</time>
  <course>190.73</course>
  <speed>26.005618623674387</speed>
  <fix>3d</fix>
</trkpt>
<trkpt lat="-27.2724179" lon="151.2851931">
  <ele>372.62</ele>
  <time>2026-09-01T19:57:33Z</time>
  <course>194.51</course>
  <speed>25.86</speed>
  <fix>3d</fix>
</trkpt>
<trkpt lat="-27.272484" lon="151.2851809">
  <ele>373.11</ele>
  <time>2026-09-01T19:57:33Z</time>
  <course>187.95</course>
  <speed>26.033188433228844</speed>
  <fix>3d</fix>
</trkpt>
<trkpt lat="-27.2724179" lon="151.2851931">
  <ele>372.62</ele>
  <time>2026-09-01T19:57:33Z</time>
  <course>194.51</course>
  <speed>25.86</speed>
  <fix>3d</fix>
</trkpt>
<trkpt lat="-27.2725074" lon="151.2851788">
  <ele>373.29</ele>
  <time>2026-09-01T19:57:33Z</time>
  <course>185.19</course>
  <speed>26.076013882493623</speed>
  <fix>3d</fix>
</trkpt>
<trkpt lat="-27.2724635" lon="151.2851826">
  <ele>372.92</ele>
  <time>2026-09-01T19:57:33Z</time>
  <course>188.69</course>
  <speed>25.91</speed>
  <fix>3d</fix>
</trkpt>
<trkpt lat="-27.2725309" lon="151.285178">
  <ele>373.47</ele>
  <time>2026-09-01T19:57:33Z</time>
  <course>182.31</course>
  <speed>26.110093833611554</speed>
  <fix>3d</fix>
</trkpt>
<trkpt lat="-27.2724635" lon="151.2851826">
  <ele>372.92</ele>
  <time>2026-09-01T19:57:33Z</time>
  <course>188.69</course>
  <speed>25.91</speed>
  <fix>3d</fix>
</trkpt>
<trkpt lat="-27.2725545" lon="151.2851784">
  <ele>373.66</ele>
  <time>2026-09-01T19:57:33Z</time>
  <course>179.43</course>
  <speed>26.13942807331484</speed>
  <fix>3d</fix>
</trkpt>
<trkpt lat="-27.2725098" lon="151.2851773">
  <ele>373.26</ele>
  <time>2026-09-01T19:57:33Z</time>
  <course>182.96</course>
  <speed>25.96</speed>
  <fix>3d</fix>
</trkpt>
<trkpt lat="-27.272578" lon="151.2851803">
  <ele>373.84</ele>
  <time>2026-09-01T19:57:33Z</time>
  <course>176.55</course>
  <speed>26.165534582729244</speed>
  <fix>3d</fix>
</trkpt>
<trkpt lat="-27.2725098" lon="151.2851773">
  <ele>373.26</ele>
  <time>2026-09-01T19:57:33Z</time>
  <course>182.96</course>
  <speed>25.96</speed>
  <fix>3d</fix>
</trkpt>
<trkpt lat="-27.2726014" lon="151.2851834">
  <ele>374.04</ele>
  <time>2026-09-01T19:57:33Z</time>
  <course>173.68</course>
  <speed>26.186057358831246</speed>
  <fix>3d</fix>
</trkpt>
<trkpt lat="-27.2725564" lon="151.2851772">
  <ele>373.61</ele>
  <time>2026-09-01T19:57:33Z</time>
  <course>177.21</course>
  <speed>26.0</speed>
  <fix>3d</fix>
</trkpt>
<trkpt lat="-27.2726244" lon="151.2851879">
  <ele>374.23</ele>
  <time>2026-09-01T19:57:33Z</time>
  <course>170.97</course>
  <speed>26.193285399124715</speed>
  <fix>3d</fix>
</trkpt>
<trkpt lat="-27.2725564" lon="151.2851772">
  <ele>373.61</ele>
  <time>2026-09-01T19:57:33Z</time>
  <course>177.21</course>
  <speed>26.0</speed>
  <fix>3d</fix>
</trkpt>
<trkpt lat="-27.2726473" lon="151.2851935">
  <ele>374.42</ele>
  <time>2026-09-01T19:57:33Z</time>
  <course>168.28</course>
  <speed>26.193869511776988</speed>
  <fix>3d</fix>
</trkpt>
<trkpt lat="-27.2726029" lon="151.2851824">
  <ele>373.98</ele>
  <time>2026-09-01T19:57:33Z</time>
  <course>171.45</course>
  <speed>26.04</speed>
  <fix>3d</fix>
</trkpt>
<trkpt lat="-27.2726699" lon="151.2852003">
  <ele>374.62</ele>
  <time>2026-09-01T19:57:33Z</time>
  <course>165.63</course>
  <speed>26.17167935001497</speed>
  <fix>3d</fix>
</trkpt>
<trkpt lat="-27.2726029" lon="151.2851824">
  <ele>373.98</ele>
  <time>2026-09-01T19:57:33Z</time>
  <course>171.45</course>
  <speed>26.04</speed>
  <fix>3d</fix>
</trkpt>
<trkpt lat="-27.2726921" lon="151.2852083">
  <ele>374.81</ele>
  <time>2026-09-01T19:57:33Z</time>
  <course>163.02</course>
  <speed>26.144905813561465</speed>
  <fix>3d</fix>
</trkpt>
<trkpt lat="-27.2726488" lon="151.2851927">
  <ele>374.35</ele>
  <time>2026-09-01T19:57:33Z</time>
  <course>165.89</course>
  <speed>26.05</speed>
  <fix>3d</fix>
</trkpt>
<trkpt lat="-27.2727142" lon="151.2852175">
  <ele>375.0</ele>
  <time>2026-09-01T19:57:33Z</time>
  <course>160.58</course>
  <speed>26.119915773217954</speed>
  <fix>3d</fix>
</trkpt>
<trkpt lat="-27.2726488" lon="151.2851927">
  <ele>374.35</ele>
  <time>2026-09-01T19:57:33Z</time>
  <course>165.89</course>
  <speed>26.05</speed>
  <fix>3d</fix>
</trkpt>
<trkpt lat="-27.2727356" lon="151.2852276">
  <ele>375.18</ele>
  <time>2026-09-01T19:57:33Z</time>
  <course>158.17</course>
  <speed>26.077317730165422</speed>
  <fix>3d</fix>
</trkpt>
<trkpt lat="-27.2726935" lon="151.2852079">
  <ele>374.72</ele>
  <time>2026-09-01T19:57:33Z</time>
  <course>160.62</course>
  <speed>26.03</speed>
  <fix>3d</fix>
</trkpt>
<trkpt lat="-27.2727566" lon="151.2852388">
  <ele>375.34</ele>
  <time>2026-09-01T19:57:33Z</time>
  <course>155.79</course>
  <speed>26.036775914079684</speed>
  <fix>3d</fix>
</trkpt>
<trkpt lat="-27.2726935" lon="151.2852079">
  <ele>374.72</ele>
  <time>2026-09-01T19:57:33Z</time>
  <course>160.62</course>
  <speed>26.03</speed>
  <fix>3d</fix>
</trkpt>
<trkpt lat="-27.2727771" lon="151.2852508">
  <ele>375.49</ele>
  <time>2026-09-01T19:57:33Z</time>
  <course>153.48</course>
  <speed>26.000432688707313</speed>
  <fix>3d</fix>
</trkpt>
<trkpt lat="-27.2727369" lon="151.2852275">
  <ele>375.06</ele>
  <time>2026-09-01T19:57:33Z</time>
  <course>155.63</course>
  <speed>25.99</speed>
  <fix>3d</fix>
</trkpt>
<trkpt lat="-27.2727972" lon="151.2852639">
  <ele>375.63</ele>
  <time>2026-09-01T19:57:33Z</time>
  <course>151.19</course>
  <speed>25.956550233033663</speed>
  <fix>3d</fix>
</trkpt>
<trkpt lat="-27.2727369" lon="151.2852275">
  <ele>375.06</ele>
  <time>2026-09-01T19:57:33Z</time>
  <course>155.63</course>
  <speed>25.99</speed>
  <fix>3d</fix>
</trkpt>
<trkpt lat="-27.2728168" lon="151.2852779">
  <ele>375.76</ele>
  <time>2026-09-01T19:57:33Z</time>
  <course>148.93</course>
  <speed>25.918491468447773</speed>
  <fix>3d</fix>
</trkpt>
<trkpt lat="-27.2727786" lon="151.2852512">
  <ele>375.36</ele>
  <time>2026-09-01T19:57:33Z</time>
  <course>150.86</course>
  <speed>25.94</speed>
  <fix>3d</fix>
</trkpt>
<trkpt lat="-27.2728361" lon="151.2852928">
  <ele>375.88</ele>
  <time>2026-09-01T19:57:33Z</time>
  <course>146.71</course>
  <speed>25.87690862525893</speed>
  <fix>3d</fix>
</trkpt>
<trkpt lat="-27.2727786" lon="151.2852512">
  <ele>375.36</ele>
  <time>2026-09-01T19:57:33Z</time>
  <course>150.86</course>
  <speed>25.94</speed>
  <fix>3d</fix>
</trkpt>
<trkpt lat="-27.2728545" lon="151.2853084">
  <ele>375.98</ele>
  <time>2026-09-01T19:57:33Z</time>
  <course>144.52</course>
  <speed>25.828497827012708</speed>
  <fix>3d</fix>
</trkpt>
<trkpt lat="-27.2728183" lon="151.2852786">
  <ele>375.62</ele>
  <time>2026-09-01T19:57:33Z</time>
  <course>146.25</course>
  <speed>25.88</speed>
  <fix>3d</fix>
</trkpt>
<trkpt lat="-27.2728724" lon="151.2853247">
  <ele>376.06</ele>
  <time>2026-09-01T19:57:33Z</time>
  <course>142.37</course>
  <speed>25.783143718328844</speed>
  <fix>3d</fix>
</trkpt>
<trkpt lat="-27.2728183" lon="151.2852786">
  <ele>375.62</ele>
  <time>2026-09-01T19:57:33Z</time>
  <course>146.25</course>
  <speed>25.88</speed>
  <fix>3d</fix>
</trkpt>
<trkpt lat="-27.2728897" lon="151.2853417">
  <ele>376.14</ele>
  <time>2026-09-01T19:57:33Z</time>
  <course>140.34</course>
  <speed>25.73378518601568</speed>
  <fix>3d</fix>
</trkpt>
<trkpt lat="-27.2728559" lon="151.2853093">
  <ele>375.82</ele>
  <time>2026-09-01T19:57:33Z</time>
  <course>141.81</course>
  <speed>25.81</speed>
  <fix>3d</fix>
</trkpt>
<trkpt lat="-27.2729064" lon="151.2853594">
  <ele>376.19</ele>
  <time>2026-09-01T19:57:33Z</time>
  <course>138.26</course>
  <speed>25.691159958242448</speed>
  <fix>3d</fix>
</trkpt>
<trkpt lat="-27.2728559" lon="151.2853093">
  <ele>375.82</ele>
  <time>2026-09-01T19:57:33Z</time>
  <course>141.81</course>
  <speed>25.81</speed>
  <fix>3d</fix>
</trkpt>
<trkpt lat="-27.2729226" lon="151.2853778">
  <ele>376.23</ele>
  <time>2026-09-01T19:57:33Z</time>
  <course>136.17</course>
  <speed>25.64657092088531</speed>
  <fix>3d</fix>
</trkpt>
<trkpt lat="-27.2728911" lon="151.285343">
  <ele>375.97</ele>
  <time>2026-09-01T19:57:33Z</time>
  <course>137.54</course>
  <speed>25.74</speed>
  <fix>3d</fix>
</trkpt>
<trkpt lat="-27.2729381" lon="151.2853968">
  <ele>376.25</ele>
  <time>2026-09-01T19:57:33Z</time>
  <course>134.11</course>
  <speed>25.599601559399318</speed>
  <fix>3d</fix>
</trkpt>
<trkpt lat="-27.2728911" lon="151.285343">
  <ele>375.97</ele>
  <time>2026-09-01T19:57:33Z</time>
  <course>137.54</course>
  <speed>25.74</speed>
  <fix>3d</fix>
</trkpt>
<trkpt lat="-27.2729531" lon="151.2854164">
  <ele>376.26</ele>
  <time>2026-09-01T19:57:33Z</time>
  <course>132.06</course>
  <speed>25.556376895013894</speed>
  <fix>3d</fix>
</trkpt>
<trkpt lat="-27.272924" lon="151.2853794">
  <ele>376.05</ele>
  <time>2026-09-01T19:57:33Z</time>
  <course>133.4</course>
  <speed>25.67</speed>
  <fix>3d</fix>
</trkpt>
<trkpt lat="-27.2729673" lon="151.2854365">
  <ele>376.25</ele>
  <time>2026-09-01T19:57:33Z</time>
  <course>130.06</course>
  <speed>25.51578726984531</speed>
  <fix>3d</fix>
</trkpt>
<trkpt lat="-27.272924" lon="151.2853794">
  <ele>376.05</ele>
  <time>2026-09-01T19:57:33Z</time>
  <course>133.4</course>
  <speed>25.67</speed>
  <fix>3d</fix>
</trkpt>
<trkpt lat="-27.2729809" lon="151.2854572">
  <ele>376.23</ele>
  <time>2026-09-01T19:57:33Z</time>
  <course>128.14</course>
  <speed>25.474512752945834</speed>
  <fix>3d</fix>
</trkpt>
<trkpt lat="-27.2729545" lon="151.2854183">
  <ele>376.07</ele>
  <time>2026-09-01T19:57:33Z</time>
  <course>129.32</course>
  <speed>25.59</speed>
  <fix>3d</fix>
</trkpt>
<trkpt lat="-27.2729938" lon="151.2854782">
  <ele>376.19</ele>
  <time>2026-09-01T19:57:33Z</time>
  <course>126.2</course>
  <speed>25.43856324559231</speed>
  <fix>3d</fix>
</trkpt>
<trkpt lat="-27.2729545" lon="151.2854183">
  <ele>376.07</ele>
  <time>2026-09-01T19:57:33Z</time>
  <course>129.32</course>
  <speed>25.59</speed>
  <fix>3d</fix>
</trkpt>
<trkpt lat="-27.2730061" lon="151.2854997">
  <ele>376.15</ele>
  <time>2026-09-01T19:57:33Z</time>
  <course>124.23</course>
  <speed>25.395820522282797</speed>
  <fix>3d</fix>
</trkpt>
<trkpt lat="-27.2729823" lon="151.2854593">
  <ele>376.04</ele>
  <time>2026-09-01T19:57:33Z</time>
  <course>125.33</course>
  <speed>25.51</speed>
  <fix>3d</fix>
</trkpt>
<trkpt lat="-27.2730176" lon="151.2855216">
  <ele>376.09</ele>
  <time>2026-09-01T19:57:33Z</time>
  <course>122.31</course>
  <speed>25.356423249346502</speed>
  <fix>3d</fix>
</trkpt>
<trkpt lat="-27.2729823" lon="151.2854593">
  <ele>376.04</ele>
  <time>2026-09-01T19:57:33Z</time>
  <course>125.33</course>
  <speed>25.51</speed>
  <fix>3d</fix>
</trkpt>
<trkpt lat="-27.2730285" lon="151.2855439">
  <ele>376.02</ele>
  <time>2026-09-01T19:57:33Z</time>
  <course>120.4</course>
  <speed>25.31429043050585</speed>
  <fix>3d</fix>
</trkpt>
<trkpt lat="-27.2730075" lon="151.2855023">
  <ele>375.95</ele>
  <time>2026-09-01T19:57:33Z</time>
  <course>121.44</course>
  <speed>25.44</speed>
  <fix>3d</fix>
</trkpt>
<trkpt lat="-27.2730387" lon="151.2855666">
  <ele>375.94</ele>
  <time>2026-09-01T19:57:33Z</time>
  <course>118.49</course>
  <speed>25.277984492439263</speed>
  <fix>3d</fix>
</trkpt>
<trkpt lat="-27.2730075" lon="151.2855023">
  <ele>375.95</ele>
  <time>2026-09-01T19:57:33Z</time>
  <course>121.44</course>
  <speed>25.44</speed>
  <fix>3d</fix>
</trkpt>
<trkpt lat="-27.2730483" lon="151.2855897">
  <ele>375.85</ele>
  <time>2026-09-01T19:57:33Z</time>
  <course>116.65</course>
  <speed>25.241586717161816</speed>
  <fix>3d</fix>
</trkpt>
<trkpt lat="-27.2730299" lon="151.285547">
  <ele>375.82</ele>
  <time>2026-09-01T19:57:33Z</time>
  <course>117.61</course>
  <speed>25.37</speed>
  <fix>3d</fix>
</trkpt>
<trkpt lat="-27.2730572" lon="151.285613">
  <ele>375.75</ele>
  <time>2026-09-01T19:57:33Z</time>
  <course>114.87</course>
  <speed>25.207286644936616</speed>
  <fix>3d</fix>
</trkpt>
<trkpt lat="-27.2730299" lon="151.285547">
  <ele>375.82</ele>
  <time>2026-09-01T19:57:33Z</time>
  <course>117.61</course>
  <speed>25.37</speed>
  <fix>3d</fix>
</trkpt>
<trkpt lat="-27.2730654" lon="151.2856365">
  <ele>375.64</ele>
  <time>2026-09-01T19:57:33Z</time>
  <course>113.08</course>
  <speed>25.179064716545767</speed>
  <fix>3d</fix>
</trkpt>
<trkpt lat="-27.2730497" lon="151.2855931">
  <ele>375.65</ele>
  <time>2026-09-01T19:57:33Z</time>
  <course>113.89</course>
  <speed>25.32</speed>
  <fix>3d</fix>
</trkpt>
<trkpt lat="-27.273073" lon="151.2856603">
  <ele>375.53</ele>
  <time>2026-09-01T19:57:33Z</time>
  <course>111.35</course>
  <speed>25.150071570474708</speed>
  <fix>3d</fix>
</trkpt>
<trkpt lat="-27.2730497" lon="151.2855931">
  <ele>375.65</ele>
  <time>2026-09-01T19:57:33Z</time>
  <course>113.89</course>
  <speed>25.32</speed>
  <fix>3d</fix>
</trkpt>
<trkpt lat="-27.27308" lon="151.2856845">
  <ele>375.4</ele>
  <time>2026-09-01T19:57:33Z</time>
  <course>109.64</course>
  <speed>25.14066427125584</speed>
  <fix>3d</fix>
</trkpt>
<trkpt lat="-27.2730668" lon="151.2856406">
  <ele>375.44</ele>
  <time>2026-09-01T19:57:33Z</time>
  <course>110.32</course>
  <speed>25.28</speed>
  <fix>3d</fix>
</trkpt>
<trkpt lat="-27.2730863" lon="151.2857089">
  <ele>375.26</ele>
  <time>2026-09-01T19:57:33Z</time>
  <course>107.97</course>
  <speed>25.121650025426273</speed>
  <fix>3d</fix>
</trkpt>
<trkpt lat="-27.2730668" lon="151.2856406">
  <ele>375.44</ele>
  <time>2026-09-01T19:57:33Z</time>
  <course>110.32</course>
  <speed>25.28</speed>
  <fix>3d</fix>
</trkpt>
<trkpt lat="-27.273092" lon="151.2857336">
  <ele>375.12</ele>
  <time>2026-09-01T19:57:33Z</time>
  <course>106.36</course>
  <speed>25.122109784012963</speed>
  <fix>3d</fix>
</trkpt>
<trkpt lat="-27.2730813" lon="151.285689">
  <ele>375.2</ele>
  <time>2026-09-01T19:57:33Z</time>
  <course>106.87</course>
  <speed>25.24</speed>
  <fix>3d</fix>
</trkpt>
<trkpt lat="-27.2730971" lon="151.2857585">
  <ele>374.98</ele>
  <time>2026-09-01T19:57:33Z</time>
  <course>104.77</course>
  <speed>25.115582812270155</speed>
  <fix>3d</fix>
</trkpt>
<trkpt lat="-27.2730813" lon="151.285689">
  <ele>375.2</ele>
  <time>2026-09-01T19:57:33Z</time>
  <course>106.87</course>
  <speed>25.24</speed>
  <fix>3d</fix>
</trkpt>
<trkpt lat="-27.2731017" lon="151.2857835">
  <ele>374.82</ele>
  <time>2026-09-01T19:57:33Z</time>
  <course>103.29</course>
  <speed>25.114236998165005</speed>
  <fix>3d</fix>
</trkpt>
<trkpt lat="-27.2730932" lon="151.2857382">
  <ele>374.93</ele>
  <time>2026-09-01T19:57:33Z</time>
  <course>103.58</course>
  <speed>25.21</speed>
  <fix>3d</fix>
</trkpt>
<trkpt lat="-27.2731056" lon="151.2858086">
  <ele>374.67</ele>
  <time>2026-09-01T19:57:33Z</time>
  <course>101.86</course>
  <speed>25.113830850748357</speed>
  <fix>3d</fix>
</trkpt>
<trkpt lat="-27.2730932" lon="151.2857382">
  <ele>374.93</ele>
  <time>2026-09-01T19:57:33Z</time>
  <course>103.58</course>
  <speed>25.21</speed>
  <fix>3d</fix>
</trkpt>
<trkpt lat="-27.273109" lon="151.2858339">
  <ele>374.5</ele>
  <time>2026-09-01T19:57:33Z</time>
  <course>100.49</course>
  <speed>25.11259644083025</speed>
  <fix>3d</fix>
</trkpt>
<trkpt lat="-27.2731026" lon="151.285788">
  <ele>374.64</ele>
  <time>2026-09-01T19:57:33Z</time>
  <course>100.49</course>
  <speed>25.19</speed>
  <fix>3d</fix>
</trkpt>
<trkpt lat="-27.2731118" lon="151.2858592">
  <ele>374.34</ele>
  <time>2026-09-01T19:57:33Z</time>
  <course>99.16</course>
  <speed>25.11992237249152</speed>
  <fix>3d</fix>
</trkpt>
<trkpt lat="-27.2731026" lon="151.285788">
  <ele>374.64</ele>
  <time>2026-09-01T19:57:33Z</time>
  <course>100.49</course>
  <speed>25.19</speed>
  <fix>3d</fix>
</trkpt>
<trkpt lat="-27.2731142" lon="151.2858849">
  <ele>374.17</ele>
  <time>2026-09-01T19:57:33Z</time>
  <course>97.91</course>
  <speed>25.123670114057777</speed>
  <fix>3d</fix>
</trkpt>
<trkpt lat="-27.2731098" lon="151.2858383">
  <ele>374.33</ele>
  <time>2026-09-01T19:57:33Z</time>
  <course>97.65</course>
  <speed>25.18</speed>
  <fix>3d</fix>
</trkpt>
<trkpt lat="-27.273116" lon="151.2859103">
  <ele>374.0</ele>
  <time>2026-09-01T19:57:33Z</time>
  <course>96.64</course>
  <speed>25.131703085943062</speed>
  <fix>3d</fix>
</trkpt>
<trkpt lat="-27.2731098" lon="151.2858383">
  <ele>374.33</ele>
  <time>2026-09-01T19:57:33Z</time>
  <course>97.65</course>
  <speed>25.18</speed>
  <fix>3d</fix>
</trkpt>
<trkpt lat="-27.2731174" lon="151.2859357">
  <ele>373.84</ele>
  <time>2026-09-01T19:57:33Z</time>
  <course>95.46</course>
  <speed>25.142096173549252</speed>
  <fix>3d</fix>
</trkpt>
<trkpt lat="-27.2731147" lon="151.2858888">
  <ele>374.01</ele>
  <time>2026-09-01T19:57:33Z</time>
  <course>95.05</course>
  <speed>25.17</speed>
  <fix>3d</fix>
</trkpt>
<trkpt lat="-27.2731184" lon="151.2859611">
  <ele>373.68</ele>
  <time>2026-09-01T19:57:33Z</time>
  <course>94.33</course>
  <speed>25.143374872916326</speed>
  <fix>3d</fix>
</trkpt>
<trkpt lat="-27.2731147" lon="151.2858888">
  <ele>374.01</ele>
  <time>2026-09-01T19:57:33Z</time>
  <course>95.05</course>
  <speed>25.17</speed>
  <fix>3d</fix>
</trkpt>
<trkpt lat="-27.2731189" lon="151.2859863">
  <ele>373.51</ele>
  <time>2026-09-01T19:57:33Z</time>
  <course>93.32</course>
  <speed>25.1530236750972</speed>
  <fix>3d</fix>
</trkpt>
<trkpt lat="-27.2731178" lon="151.2859396">
  <ele>373.7</ele>
  <time>2026-09-01T19:57:33Z</time>
  <course>92.76</course>
  <speed>25.18</speed>
  <fix>3d</fix>
</trkpt>
<trkpt lat="-27.2731191" lon="151.2860117">
  <ele>373.35</ele>
  <time>2026-09-01T19:57:33Z</time>
  <course>92.31</course>
  <speed>25.16</speed>
  <fix>3d</fix>
</trkpt>
<trkpt lat="-27.2731178" lon="151.2859396">
  <ele>373.7</ele>
  <time>2026-09-01T19:57:33Z</time>
  <course>92.76</course>
  <speed>25.18</speed>
  <fix>3d</fix>
</trkpt>
<trkpt lat="-27.273119" lon="151.2860372">
  <ele>373.19</ele>
  <time>2026-09-01T19:57:33Z</time>
  <course>91.41</course>
  <speed>25.17271936045051</speed>
  <fix>3d</fix>
</trkpt>
<trkpt lat="-27.2731191" lon="151.2859905">
  <ele>373.38</ele>
  <time>2026-09-01T19:57:33Z</time>
  <course>90.74</course>
  <speed>25.19</speed>
  <fix>3d</fix>
</trkpt>
<trkpt lat="-27.2731186" lon="151.2860627">
  <ele>373.03</ele>
  <time>2026-09-01T19:57:33Z</time>
  <course>90.58</course>
  <speed>25.189728065225317</speed>
  <fix>3d</fix>
</trkpt>
<trkpt lat="-27.2731191" lon="151.2859905">
  <ele>373.38</ele>
  <time>2026-09-01T19:57:33Z</time>
  <course>90.74</course>
  <speed>25.19</speed>
  <fix>3d</fix>
</trkpt>
<trkpt lat="-27.2731178" lon="151.2860885">
  <ele>372.87</ele>
  <time>2026-09-01T19:57:33Z</time>
  <course>89.81</course>
  <speed>25.20984133230513</speed>
  <fix>3d</fix>
</trkpt>
<trkpt lat="-27.273119" lon="151.2860414">
  <ele>373.06</ele>
  <time>2026-09-01T19:57:33Z</time>
  <course>89.0</course>
  <speed>25.2</speed>
  <fix>3d</fix>
</trkpt>
<trkpt lat="-27.2731168" lon="151.2861141">
  <ele>372.71</ele>
  <time>2026-09-01T19:57:33Z</time>
  <course>89.09</course>
  <speed>25.231480337070987</speed>
  <fix>3d</fix>
</trkpt>
<trkpt lat="-27.273119" lon="151.2860414">
  <ele>373.06</ele>
  <time>2026-09-01T19:57:33Z</time>
  <course>89.0</course>
  <speed>25.2</speed>
  <fix>3d</fix>
</trkpt>
<trkpt lat="-27.2731155" lon="151.2861398">
  <ele>372.57</ele>
  <time>2026-09-01T19:57:33Z</time>
  <course>88.46</course>
  <speed>25.25458572220103</speed>
  <fix>3d</fix>
</trkpt>
<trkpt lat="-27.2731177" lon="151.2860923">
  <ele>372.76</ele>
  <time>2026-09-01T19:57:33Z</time>
  <course>87.57</course>
  <speed>25.22</speed>
  <fix>3d</fix>
</trkpt>
<trkpt lat="-27.2731141" lon="151.2861654">
  <ele>372.42</ele>
  <time>2026-09-01T19:57:33Z</time>
  <course>87.88</course>
  <speed>25.26658267356312</speed>
  <fix>3d</fix>
</trkpt>
<trkpt lat="-27.2731177" lon="151.2860923">
  <ele>372.76</ele>
  <time>2026-09-01T19:57:33Z</time>
  <course>87.57</course>
  <speed>25.22</speed>
  <fix>3d</fix>
</trkpt>
<trkpt lat="-27.2731125" lon="151.2861911">
  <ele>372.28</ele>
  <time>2026-09-01T19:57:33Z</time>
  <course>87.34</course>
  <speed>25.298468333082933</speed>
  <fix>3d</fix>
</trkpt>
<trkpt lat="-27.2731154" lon="151.2861433">
  <ele>372.46</ele>
  <time>2026-09-01T19:57:33Z</time>
  <course>86.45</course>
  <speed>25.25</speed>
  <fix>3d</fix>
</trkpt>
<trkpt lat="-27.2731107" lon="151.2862167">
  <ele>372.15</ele>
  <time>2026-09-01T19:57:33Z</time>
  <course>86.89</course>
  <speed>25.31911530839891</speed>
  <fix>3d</fix>
</trkpt>
<trkpt lat="-27.2731154" lon="151.2861433">
  <ele>372.46</ele>
  <time>2026-09-01T19:57:33Z</time>
  <course>86.45</course>
  <speed>25.25</speed>
  <fix>3d</fix>
</trkpt>
<trkpt lat="-27.2731089" lon="151.2862423">
  <ele>372.02</ele>
  <time>2026-09-01T19:57:33Z</time>
  <course>86.5</course>
  <speed>25.338007025020733</speed>
  <fix>3d</fix>
</trkpt>
<trkpt lat="-27.2731122" lon="151.2861944">
  <ele>372.2</ele>
  <time>2026-09-01T19:57:33Z</time>
  <course>85.62</course>
  <speed>25.27</speed>
  <fix>3d</fix>
</trkpt>
<trkpt lat="-27.2731069" lon="151.2862678">
  <ele>371.91</ele>
  <time>2026-09-01T19:57:33Z</time>
  <course>86.19</course>
  <speed>25.354756950126735</speed>
  <fix>3d</fix>
</trkpt>
<trkpt lat="-27.2731122" lon="151.2861944">
  <ele>372.2</ele>
  <time>2026-09-01T19:57:33Z</time>
  <course>85.62</course>
  <speed>25.27</speed>
  <fix>3d</fix>
</trkpt>
<trkpt lat="-27.2731049" lon="151.2862933">
  <ele>371.8</ele>
  <time>2026-09-01T19:57:33Z</time>
  <course>85.95</course>
  <speed>25.369085517613758</speed>
  <fix>3d</fix>
</trkpt>
<trkpt lat="-27.2731085" lon="151.2862453">
  <ele>371.95</ele>
  <time>2026-09-01T19:57:33Z</time>
  <course>85.08</course>
  <speed>25.3</speed>
  <fix>3d</fix>
</trkpt>
<trkpt lat="-27.2731029" lon="151.2863188">
  <ele>371.7</ele>
  <time>2026-09-01T19:57:33Z</time>
  <course>85.74</course>
  <speed>25.38081952971574</speed>
  <fix>3d</fix>
</trkpt>
<trkpt lat="-27.2731085" lon="151.2862453">
  <ele>371.95</ele>
  <time>2026-09-01T19:57:33Z</time>
  <course>85.08</course>
  <speed>25.3</speed>
  <fix>3d</fix>
</trkpt>
<trkpt lat="-27.2731008" lon="151.2863442">
  <ele>371.61</ele>
  <time>2026-09-01T19:57:33Z</time>
  <course>85.6</course>
  <speed>25.390779822604898</speed>
  <fix>3d</fix>
</trkpt>
<trkpt lat="-27.2731045" lon="151.2862963">
  <ele>371.74</ele>
  <time>2026-09-01T19:57:33Z</time>
  <course>84.8</course>
  <speed>25.34</speed>
  <fix>3d</fix>
</trkpt>
<trkpt lat="-27.2730988" lon="151.2863697">
  <ele>371.53</ele>
  <time>2026-09-01T19:57:33Z</time>
  <course>85.56</course>
  <speed>25.407174183682844</speed>
  <fix>3d</fix>
</trkpt>
<trkpt lat="-27.2731045" lon="151.2862963">
  <ele>371.74</ele>
  <time>2026-09-01T19:57:33Z</time>
  <course>84.8</course>
  <speed>25.34</speed>
  <fix>3d</fix>
</trkpt>
<trkpt lat="-27.2730968" lon="151.2863952">
  <ele>371.46</ele>
  <time>2026-09-01T19:57:33Z</time>
  <course>85.51</course>
  <speed>25.412817632053315</speed>
  <fix>3d</fix>
</trkpt>
<trkpt lat="-27.2731003" lon="151.2863473">
  <ele>371.55</ele>
  <time>2026-09-01T19:57:33Z</time>
  <course>84.78</course>
  <speed>25.37</speed>
  <fix>3d</fix>
</trkpt>
<trkpt lat="-27.2730949" lon="151.2864207">
  <ele>371.39</ele>
  <time>2026-09-01T19:57:33Z</time>
  <course>85.55</course>
  <speed>25.42604373472208</speed>
  <fix>3d</fix>
</trkpt>
<trkpt lat="-27.2731003" lon="151.2863473">
  <ele>371.55</ele>
  <time>2026-09-01T19:57:33Z</time>
  <course>84.78</course>
  <speed>25.37</speed>
  <fix>3d</fix>
</trkpt>
<trkpt lat="-27.273093" lon="151.2864464">
  <ele>371.34</ele>
  <time>2026-09-01T19:57:33Z</time>
  <course>85.67</course>
  <speed>25.44871116579384</speed>
  <fix>3d</fix>
</trkpt>
<trkpt lat="-27.2730963" lon="151.2863984">
  <ele>371.4</ele>
  <time>2026-09-01T19:57:33Z</time>
  <course>84.99</course>
  <speed>25.4</speed>
  <fix>3d</fix>
</trkpt>
<trkpt lat="-27.2730912" lon="151.2864721">
  <ele>371.29</ele>
  <time>2026-09-01T19:57:33Z</time>
  <course>85.83</course>
  <speed>25.459507065141697</speed>
  <fix>3d</fix>
</trkpt>
<trkpt lat="-27.2730963" lon="151.2863984">
  <ele>371.4</ele>
  <time>2026-09-01T19:57:33Z</time>
  <course>84.99</course>
  <speed>25.4</speed>
  <fix>3d</fix>
</trkpt>
<trkpt lat="-27.2730895" lon="151.2864979">
  <ele>371.25</ele>
  <time>2026-09-01T19:57:33Z</time>
  <course>85.97</course>
  <speed>25.480166796942285</speed>
  <fix>3d</fix>
</trkpt>
<trkpt lat="-27.2730924" lon="151.2864495">
  <ele>371.28</ele>
  <time>2026-09-01T19:57:33Z</time>
  <course>85.4</course>
  <speed>25.42</speed>
  <fix>3d</fix>
</trkpt>
<trkpt lat="-27.273088" lon="151.2865237">
  <ele>371.21</ele>
  <time>2026-09-01T19:57:33Z</time>
  <course>86.2</course>
  <speed>25.500874494808997</speed>
  <fix>3d</fix>
</trkpt>
<trkpt lat="-27.2730924" lon="151.2864495">
  <ele>371.28</ele>
  <time>2026-09-01T19:57:33Z</time>
  <course>85.4</course>
  <speed>25.42</speed>
  <fix>3d</fix>
</trkpt>
<trkpt lat="-27.2730866" lon="151.2865495">
  <ele>371.19</ele>
  <time>2026-09-01T19:57:33Z</time>
  <course>86.49</course>
  <speed>25.51124065975624</speed>
  <fix>3d</fix>
</trkpt>
<trkpt lat="-27.273089" lon="151.2865008">
  <ele>371.21</ele>
  <time>2026-09-01T19:57:33Z</time>
  <course>85.97</course>
  <speed>25.45</speed>
  <fix>3d</fix>
</trkpt>
<trkpt lat="-27.2730853" lon="151.2865754">
  <ele>371.17</ele>
  <time>2026-09-01T19:57:33Z</time>
  <course>86.85</course>
  <speed>25.52262133872616</speed>
  <fix>3d</fix>
</trkpt>
<trkpt lat="-27.273089" lon="151.2865008">
  <ele>371.21</ele>
  <time>2026-09-01T19:57:33Z</time>
  <course>85.97</course>
  <speed>25.45</speed>
  <fix>3d</fix>
</trkpt>
<trkpt lat="-27.2730842" lon="151.2866013">
  <ele>371.15</ele>
  <time>2026-09-01T19:57:33Z</time>
  <course>87.23</course>
  <speed>25.534137933362857</speed>
  <fix>3d</fix>
</trkpt>
<trkpt lat="-27.273086" lon="151.2865522">
  <ele>371.16</ele>
  <time>2026-09-01T19:57:33Z</time>
  <course>86.67</course>
  <speed>25.47</speed>
  <fix>3d</fix>
</trkpt>
<trkpt lat="-27.2730832" lon="151.2866274">
  <ele>371.15</ele>
  <time>2026-09-01T19:57:33Z</time>
  <course>87.61</course>
  <speed>25.536219375624103</speed>
  <fix>3d</fix>
</trkpt>
<trkpt lat="-27.273086" lon="151.2865522">
  <ele>371.16</ele>
  <time>2026-09-01T19:57:33Z</time>
  <course>86.67</course>
  <speed>25.47</speed>
  <fix>3d</fix>
</trkpt>
<trkpt lat="-27.2730824" lon="151.2866531">
  <ele>371.15</ele>
  <time>2026-09-01T19:57:33Z</time>
  <course>88.07</course>
  <speed>25.53959475011301</speed>
  <fix>3d</fix>
</trkpt>
<trkpt lat="-27.2730837" lon="151.2866035">
  <ele>371.13</ele>
  <time>2026-09-01T19:57:33Z</time>
  <course>87.47</course>
  <speed>25.48</speed>
  <fix>3d</fix>
</trkpt>
<trkpt lat="-27.2730819" lon="151.2866789">
  <ele>371.16</ele>
  <time>2026-09-01T19:57:33Z</time>
  <course>88.49</course>
  <speed>25.544700037385446</speed>
  <fix>3d</fix>
</trkpt>
<trkpt lat="-27.2730837" lon="151.2866035">
  <ele>371.13</ele>
  <time>2026-09-01T19:57:33Z</time>
  <course>87.47</course>
  <speed>25.48</speed>
  <fix>3d</fix>
</trkpt>
<trkpt lat="-27.2730815" lon="151.2867046">
  <ele>371.17</ele>
  <time>2026-09-01T19:57:33Z</time>
  <course>88.9</course>
  <speed>25.531427692160108</speed>
  <fix>3d</fix>
</trkpt>
<trkpt lat="-27.273082" lon="151.286655">
  <ele>371.13</ele>
  <time>2026-09-01T19:57:33Z</time>
  <course>88.39</course>
  <speed>25.49</speed>
  <fix>3d</fix>
</trkpt>
<trkpt lat="-27.2730813" lon="151.2867303">
  <ele>371.19</ele>
  <time>2026-09-01T19:57:33Z</time>
  <course>89.32</course>
  <speed>25.53003133566428</speed>
  <fix>3d</fix>
</trkpt>
<trkpt lat="-27.273082" lon="151.286655">
  <ele>371.13</ele>
  <time>2026-09-01T19:57:33Z</time>
  <course>88.39</course>
  <speed>25.49</speed>
  <fix>3d</fix>
</trkpt>
<trkpt lat="-27.2730813" lon="151.2867562">
  <ele>371.22</ele>
  <time>2026-09-01T19:57:33Z</time>
  <course>89.8</course>
  <speed>25.530565994509406</speed>
  <fix>3d</fix>
</trkpt>
<trkpt lat="-27.2730811" lon="151.2867066">
  <ele>371.16</ele>
  <time>2026-09-01T19:57:33Z</time>
  <course>89.39</course>
  <speed>25.49</speed>
  <fix>3d</fix>
</trkpt>
<trkpt lat="-27.2730816" lon="151.286782">
  <ele>371.24</ele>
  <time>2026-09-01T19:57:33Z</time>
  <course>90.32</course>
  <speed>25.53313337606648</speed>
  <fix>3d</fix>
</trkpt>
<trkpt lat="-27.2730811" lon="151.2867066">
  <ele>371.16</ele>
  <time>2026-09-01T19:57:33Z</time>
  <course>89.39</course>
  <speed>25.49</speed>
  <fix>3d</fix>
</trkpt>
<trkpt lat="-27.2730819" lon="151.2868079">
  <ele>371.27</ele>
  <time>2026-09-01T19:57:33Z</time>
  <course>90.77</course>
  <speed>25.527775069519866</speed>
  <fix>3d</fix>
</trkpt>
<trkpt lat="-27.2730811" lon="151.2867583">
  <ele>371.2</ele>
  <time>2026-09-01T19:57:33Z</time>
  <course>90.42</course>
  <speed>25.49</speed>
  <fix>3d</fix>
</trkpt>
<trkpt lat="-27.2730826" lon="151.2868337">
  <ele>371.29</ele>
  <time>2026-09-01T19:57:33Z</time>
  <course>91.28</course>
  <speed>25.524492159492617</speed>
  <fix>3d</fix>
</trkpt>
<trkpt lat="-27.2730811" lon="151.2867583">
  <ele>371.2</ele>
  <time>2026-09-01T19:57:33Z</time>
  <course>90.42</course>
  <speed>25.49</speed>
  <fix>3d</fix>
</trkpt>
<trkpt lat="-27.2730834" lon="151.2868594">
  <ele>371.33</ele>
  <time>2026-09-01T19:57:33Z</time>
  <course>91.75</course>
  <speed>25.523285446822868</speed>
  <fix>3d</fix>
</trkpt>
<trkpt lat="-27.2730819" lon="151.2868098">
  <ele>371.25</ele>
  <time>2026-09-01T19:57:33Z</time>
  <course>91.46</course>
  <speed>25.49</speed>
  <fix>3d</fix>
</trkpt>
<trkpt lat="-27.2730845" lon="151.2868849">
  <ele>371.36</ele>
  <time>2026-09-01T19:57:33Z</time>
  <course>92.26</course>
  <speed>25.50366640308801</speed>
  <fix>3d</fix>
</trkpt>
<trkpt lat="-27.2730819" lon="151.2868098">
  <ele>371.25</ele>
  <time>2026-09-01T19:57:33Z</time>
  <course>91.46</course>
  <speed>25.49</speed>
  <fix>3d</fix>
</trkpt>
<trkpt lat="-27.2730858" lon="151.2869105">
  <ele>371.39</ele>
  <time>2026-09-01T19:57:33Z</time>
  <course>92.71</course>
  <speed>25.496550747110874</speed>
  <fix>3d</fix>
</trkpt>
<trkpt lat="-27.2730834" lon="151.2868613">
  <ele>371.31</ele>
  <time>2026-09-01T19:57:33Z</time>
  <course>92.52</course>
  <speed>25.48</speed>
  <fix>3d</fix>
</trkpt>
<trkpt lat="-27.2730872" lon="151.2869361">
  <ele>371.43</ele>
  <time>2026-09-01T19:57:33Z</time>
  <course>93.24</course>
  <speed>25.4808555586346</speed>
  <fix>3d</fix>
</trkpt>
<trkpt lat="-27.2730834" lon="151.2868613">
  <ele>371.31</ele>
  <time>2026-09-01T19:57:33Z</time>
  <course>92.52</course>
  <speed>25.48</speed>
  <fix>3d</fix>
</trkpt>
<trkpt lat="-27.2730889" lon="151.2869617">
  <ele>371.46</ele>
  <time>2026-09-01T19:57:33Z</time>
  <course>93.79</course>
  <speed>25.477056344876264</speed>
  <fix>3d</fix>
</trkpt>
<trkpt lat="-27.2730857" lon="151.2869127">
  <ele>371.37</ele>
  <time>2026-09-01T19:57:33Z</time>
  <course>93.55</course>
  <speed>25.48</speed>
  <fix>3d</fix>
</trkpt>
<trkpt lat="-27.2730908" lon="151.2869873">
  <ele>371.49</ele>
  <time>2026-09-01T19:57:33Z</time>
  <course>94.29</course>
  <speed>25.464347625651044</speed>
  <fix>3d</fix>
</trkpt>
<trkpt lat="-27.2730857" lon="151.2869127">
  <ele>371.37</ele>
  <time>2026-09-01T19:57:33Z</time>
  <course>93.55</course>
  <speed>25.48</speed>
  <fix>3d</fix>
</trkpt>
<trkpt lat="-27.2730928" lon="151.2870129">
  <ele>371.53</ele>
  <time>2026-09-01T19:57:33Z</time>
  <course>94.77</course>
  <speed>25.454345405058053</speed>
  <fix>3d</fix>
</trkpt>
<trkpt lat="-27.273089" lon="151.286964">
  <ele>371.44</ele>
  <time>2026-09-01T19:57:33Z</time>
  <course>94.57</course>
  <speed>25.47</speed>
  <fix>3d</fix>
</trkpt>
<trkpt lat="-27.2730951" lon="151.2870384">
  <ele>371.56</ele>
  <time>2026-09-01T19:57:33Z</time>
  <course>95.31</course>
  <speed>25.445245135388262</speed>
  <fix>3d</fix>
</trkpt>
<trkpt lat="-27.273089" lon="151.286964">
  <ele>371.44</ele>
  <time>2026-09-01T19:57:33Z</time>
  <course>94.57</course>
  <speed>25.47</speed>
  <fix>3d</fix>
</trkpt>
<trkpt lat="-27.2730975" lon="151.287064">
  <ele>371.6</ele>
  <time>2026-09-01T19:57:33Z</time>
  <course>95.83</course>
  <speed>25.43902513855435</speed>
  <fix>3d</fix>
</trkpt>
<trkpt lat="-27.273093" lon="151.2870153">
  <ele>371.5</ele>
  <time>2026-09-01T19:57:33Z</time>
  <course>95.56</course>
  <speed>25.46</speed>
  <fix>3d</fix>
</trkpt>
<trkpt lat="-27.2731002" lon="151.2870895">
  <ele>371.63</ele>
  <time>2026-09-01T19:57:33Z</time>
  <course>96.26</course>
  <speed>25.423613039849393</speed>
  <fix>3d</fix>
</trkpt>
<trkpt lat="-27.273093" lon="151.2870153">
  <ele>371.5</ele>
  <time>2026-09-01T19:57:33Z</time>
  <course>95.56</course>
  <speed>25.46</speed>
  <fix>3d</fix>
</trkpt>
<trkpt lat="-27.273103" lon="151.2871149">
  <ele>371.66</ele>
  <time>2026-09-01T19:57:33Z</time>
  <course>96.74</course>
  <speed>25.419907552939684</speed>
  <fix>3d</fix>
</trkpt>
<trkpt lat="-27.2730978" lon="151.2870664">
  <ele>371.57</ele>
  <time>2026-09-01T19:57:33Z</time>
  <course>96.55</course>
  <speed>25.44</speed>
  <fix>3d</fix>
</trkpt>
<trkpt lat="-27.273106" lon="151.2871404">
  <ele>371.69</ele>
  <time>2026-09-01T19:57:33Z</time>
  <course>97.21</course>
  <speed>25.416608743103396</speed>
  <fix>3d</fix>
</trkpt>
<trkpt lat="-27.2730978" lon="151.2870664">
  <ele>371.57</ele>
  <time>2026-09-01T19:57:33Z</time>
  <course>96.55</course>
  <speed>25.44</speed>
  <fix>3d</fix>
</trkpt>
<trkpt lat="-27.2731092" lon="151.2871654">
  <ele>371.72</ele>
  <time>2026-09-01T19:57:33Z</time>
  <course>97.69</course>
  <speed>25.395127485405542</speed>
  <fix>3d</fix>
</trkpt>
<trkpt lat="-27.2731035" lon="151.2871175">
  <ele>371.63</ele>
  <time>2026-09-01T19:57:33Z</time>
  <course>97.52</course>
  <speed>25.44</speed>
  <fix>3d</fix>
</trkpt>
<trkpt lat="-27.2731126" lon="151.2871907">
  <ele>371.75</ele>
  <time>2026-09-01T19:57:33Z</time>
  <course>98.24</course>
  <speed>25.385186625274194</speed>
  <fix>3d</fix>
</trkpt>
<trkpt lat="-27.2731035" lon="151.2871175">
  <ele>371.63</ele>
  <time>2026-09-01T19:57:33Z</time>
  <course>97.52</course>
  <speed>25.44</speed>
  <fix>3d</fix>
</trkpt>
<trkpt lat="-27.2731161" lon="151.2872158">
  <ele>371.78</ele>
  <time>2026-09-01T19:57:33Z</time>
  <course>98.72</course>
  <speed>25.36541148887595</speed>
  <fix>3d</fix>
</trkpt>
<trkpt lat="-27.2731098" lon="151.2871683">
  <ele>371.69</ele>
  <time>2026-09-01T19:57:33Z</time>
  <course>98.46</course>
  <speed>25.43</speed>
  <fix>3d</fix>
</trkpt>
<trkpt lat="-27.2731198" lon="151.2872409">
  <ele>371.81</ele>
  <time>2026-09-01T19:57:33Z</time>
  <course>99.17</course>
  <speed>25.355332772416933</speed>
  <fix>3d</fix>
</trkpt>
<trkpt lat="-27.2731098" lon="151.2871683">
  <ele>371.69</ele>
  <time>2026-09-01T19:57:33Z</time>
  <course>98.46</course>
  <speed>25.43</speed>
  <fix>3d</fix>
</trkpt>
<trkpt lat="-27.2731238" lon="151.2872661">
  <ele>371.84</ele>
  <time>2026-09-01T19:57:33Z</time>
  <course>99.59</course>
  <speed>25.336744068644652</speed>
  <fix>3d</fix>
</trkpt>
<trkpt lat="-27.2731169" lon="151.2872192">
  <ele>371.75</ele>
  <time>2026-09-01T19:57:33Z</time>
  <course>99.36</course>
  <speed>25.41</speed>
  <fix>3d</fix>
</trkpt>
<trkpt lat="-27.2731278" lon="151.2872912">
  <ele>371.87</ele>
  <time>2026-09-01T19:57:33Z</time>
  <course>100.01</course>
  <speed>25.32754429470019</speed>
  <fix>3d</fix>
</trkpt>
<trkpt lat="-27.2731169" lon="151.2872192">
  <ele>371.75</ele>
  <time>2026-09-01T19:57:33Z</time>
  <course>99.36</course>
  <speed>25.41</speed>
  <fix>3d</fix>
</trkpt>
<trkpt lat="-27.273132" lon="151.2873163">
  <ele>371.9</ele>
  <time>2026-09-01T19:57:33Z</time>
  <course>100.38</course>
  <speed>25.307848584974582</speed>
  <fix>3d</fix>
</trkpt>
<trkpt lat="-27.2731247" lon="151.2872699">
  <ele>371.81</ele>
  <time>2026-09-01T19:57:33Z</time>
  <course>100.2</course>
  <speed>25.4</speed>
  <fix>3d</fix>
</trkpt>
<trkpt lat="-27.2731364" lon="151.2873413">
  <ele>371.93</ele>
  <time>2026-09-01T19:57:33Z</time>
  <course>100.71</course>
  <speed>25.297124342501856</speed>
  <fix>3d</fix>
</trkpt>
<trkpt lat="-27.2731247" lon="151.2872699">
  <ele>371.81</ele>
  <time>2026-09-01T19:57:33Z</time>
  <course>100.2</course>
  <speed>25.4</speed>
  <fix>3d</fix>
</trkpt>
<trkpt lat="-27.2731409" lon="151.2873664">
  <ele>371.96</ele>
  <time>2026-09-01T19:57:33Z</time>
  <course>101.1</course>
  <speed>25.29714806060161</speed>
  <fix>3d</fix>
</trkpt>
<trkpt lat="-27.2731331" lon="151.2873204">
  <ele>371.86</ele>
  <time>2026-09-01T19:57:33Z</time>
  <course>100.98</course>
  <speed>25.39</speed>
  <fix>3d</fix>
</trkpt>
<trkpt lat="-27.2731455" lon="151.2873914">
  <ele>371.98</ele>
  <time>2026-09-01T19:57:33Z</time>
  <course>101.47</course>
  <speed>25.28625911438859</speed>
  <fix>3d</fix>
</trkpt>
<trkpt lat="-27.2731331" lon="151.2873204">
  <ele>371.86</ele>
  <time>2026-09-01T19:57:33Z</time>
  <course>100.98</course>
  <speed>25.39</speed>
  <fix>3d</fix>
</trkpt>
<trkpt lat="-27.2731503" lon="151.2874165">
  <ele>372.0</ele>
  <time>2026-09-01T19:57:33Z</time>
  <course>101.82</course>
  <speed>25.285980305299613</speed>
  <fix>3d</fix>
</trkpt>
<trkpt lat="-27.2731421" lon="151.2873707">
  <ele>371.91</ele>
  <time>2026-09-01T19:57:33Z</time>
  <course>101.68</course>
  <speed>25.39</speed>
  <fix>3d</fix>
</trkpt>
<trkpt lat="-27.2731552" lon="151.2874416">
  <ele>372.02</ele>
  <time>2026-09-01T19:57:33Z</time>
  <course>102.16</course>
  <speed>25.284354846426275</speed>
  <fix>3d</fix>
</trkpt>
<trkpt lat="-27.2731421" lon="151.2873707">
  <ele>371.91</ele>
  <time>2026-09-01T19:57:33Z</time>
  <course>101.68</course>
  <speed>25.39</speed>
  <fix>3d</fix>
</trkpt>
<trkpt lat="-27.2731602" lon="151.2874666">
  <ele>372.04</ele>
  <time>2026-09-01T19:57:33Z</time>
  <course>102.49</course>
  <speed>25.293186829658296</speed>
  <fix>3d</fix>
</trkpt>
<trkpt lat="-27.2731516" lon="151.2874208">
  <ele>371.96</ele>
  <time>2026-09-01T19:57:33Z</time>
  <course>102.33</course>
  <speed>25.38</speed>
  <fix>3d</fix>
</trkpt>
<trkpt lat="-27.2731653" lon="151.2874917">
  <ele>372.06</ele>
  <time>2026-09-01T19:57:33Z</time>
  <course>102.8</course>
  <speed>25.29070184870321</speed>
  <fix>3d</fix>
</trkpt>
<trkpt lat="-27.2731516" lon="151.2874208">
  <ele>371.96</ele>
  <time>2026-09-01T19:57:33Z</time>
  <course>102.33</course>
  <speed>25.38</speed>
  <fix>3d</fix>
</trkpt>
<trkpt lat="-27.2731706" lon="151.2875167">
  <ele>372.08</ele>
  <time>2026-09-01T19:57:33Z</time>
  <course>103.09</course>
  <speed>25.298553318322373</speed>
  <fix>3d</fix>
</trkpt>
<trkpt lat="-27.2731616" lon="151.2874709">
  <ele>371.99</ele>
  <time>2026-09-01T19:57:33Z</time>
  <course>102.93</course>
  <speed>25.37</speed>
  <fix>3d</fix>
</trkpt>
<trkpt lat="-27.273176" lon="151.2875417">
  <ele>372.1</ele>
  <time>2026-09-01T19:57:33Z</time>
  <course>103.34</course>
  <speed>25.30464186666154</speed>
  <fix>3d</fix>
</trkpt>
<trkpt lat="-27.2731616" lon="151.2874709">
  <ele>371.99</ele>
  <time>2026-09-01T19:57:33Z</time>
  <course>102.93</course>
  <speed>25.37</speed>
  <fix>3d</fix>
</trkpt>
<trkpt lat="-27.2731814" lon="151.2875667">
  <ele>372.12</ele>
  <time>2026-09-01T19:57:33Z</time>
  <course>103.58</course>
  <speed>25.301511812538003</speed>
  <fix>3d</fix>
</trkpt>
<trkpt lat="-27.273172" lon="151.2875207">
  <ele>372.03</ele>
  <time>2026-09-01T19:57:33Z</time>
  <course>103.49</course>
  <speed>25.36</speed>
  <fix>3d</fix>
</trkpt>
<trkpt lat="-27.273187" lon="151.2875916">
  <ele>372.14</ele>
  <time>2026-09-01T19:57:33Z</time>
  <course>103.85</course>
  <speed>25.306167232514685</speed>
  <fix>3d</fix>
</trkpt>
<trkpt lat="-27.273172" lon="151.2875207">
  <ele>372.03</ele>
  <time>2026-09-01T19:57:33Z</time>
  <course>103.49</course>
  <speed>25.36</speed>
  <fix>3d</fix>
</trkpt>
<trkpt lat="-27.2731926" lon="151.2876166">
  <ele>372.17</ele>
  <time>2026-09-01T19:57:33Z</time>
  <course>104.09</course>
  <speed>25.30876923123683</speed>
  <fix>3d</fix>
</trkpt>
<trkpt lat="-27.2731828" lon="151.2875705">
  <ele>372.07</ele>
  <time>2026-09-01T19:57:33Z</time>
  <course>103.99</course>
  <speed>25.36</speed>
  <fix>3d</fix>
</trkpt>
<trkpt lat="-27.2731983" lon="151.2876414">
  <ele>372.19</ele>
  <time>2026-09-01T19:57:33Z</time>
  <course>104.35</course>
  <speed>25.31170677769478</speed>
  <fix>3d</fix>
</trkpt>
<trkpt lat="-27.2731828" lon="151.2875705">
  <ele>372.07</ele>
  <time>2026-09-01T19:57:33Z</time>
  <course>103.99</course>
  <speed>25.36</speed>
  <fix>3d</fix>
</trkpt>
<trkpt lat="-27.2732041" lon="151.2876663">
  <ele>372.21</ele>
  <time>2026-09-01T19:57:33Z</time>
  <course>104.52</course>
  <speed>25.32212471338059</speed>
  <fix>3d</fix>
</trkpt>
<trkpt lat="-27.2731939" lon="151.2876202">
  <ele>372.11</ele>
  <time>2026-09-01T19:57:33Z</time>
  <course>104.43</course>
  <speed>25.35</speed>
  <fix>3d</fix>
</trkpt>
<trkpt lat="-27.2732099" lon="151.2876909">
  <ele>372.23</ele>
  <time>2026-09-01T19:57:33Z</time>
  <course>104.65</course>
  <speed>25.320570688671296</speed>
  <fix>3d</fix>
</trkpt>
<trkpt lat="-27.2731939" lon="151.2876202">
  <ele>372.11</ele>
  <time>2026-09-01T19:57:33Z</time>
  <course>104.43</course>
  <speed>25.35</speed>
  <fix>3d</fix>
</trkpt>
<trkpt lat="-27.2732158" lon="151.2877156">
  <ele>372.24</ele>
  <time>2026-09-01T19:57:33Z</time>
  <course>104.9</course>
  <speed>25.31922589653957</speed>
  <fix>3d</fix>
</trkpt>
<trkpt lat="-27.2732055" lon="151.2876698">
  <ele>372.15</ele>
  <time>2026-09-01T19:57:33Z</time>
  <course>104.82</course>
  <speed>25.35</speed>
  <fix>3d</fix>
</trkpt>
<trkpt lat="-27.2732218" lon="151.2877403">
  <ele>372.26</ele>
  <time>2026-09-01T19:57:33Z</time>
  <course>105.12</course>
  <speed>25.315481429354644</speed>
  <fix>3d</fix>
</trkpt>
<trkpt lat="-27.2732055" lon="151.2876698">
  <ele>372.15</ele>
  <time>2026-09-01T19:57:33Z</time>
  <course>104.82</course>
  <speed>25.35</speed>
  <fix>3d</fix>
</trkpt>
<trkpt lat="-27.2732278" lon="151.2877648">
  <ele>372.28</ele>
  <time>2026-09-01T19:57:33Z</time>
  <course>105.23</course>
  <speed>25.30224693579604</speed>
  <fix>3d</fix>
</trkpt>
<trkpt lat="-27.2732172" lon="151.2877193">
  <ele>372.18</ele>
  <time>2026-09-01T19:57:33Z</time>
  <course>105.15</course>
  <speed>25.34</speed>
  <fix>3d</fix>
</trkpt>
<trkpt lat="-27.2732338" lon="151.2877896">
  <ele>372.3</ele>
  <time>2026-09-01T19:57:33Z</time>
  <course>105.45</course>
  <speed>25.29616967052522</speed>
  <fix>3d</fix>
</trkpt>
<trkpt lat="-27.2732172" lon="151.2877193">
  <ele>372.18</ele>
  <time>2026-09-01T19:57:33Z</time>
  <course>105.15</course>
  <speed>25.34</speed>
  <fix>3d</fix>
</trkpt>
<trkpt lat="-27.2732399" lon="151.287814">
  <ele>372.32</ele>
  <time>2026-09-01T19:57:33Z</time>
  <course>105.59</course>
  <speed>25.28056961383584</speed>
  <fix>3d</fix>
</trkpt>
<trkpt lat="-27.2732292" lon="151.2877687">
  <ele>372.21</ele>
  <time>2026-09-01T19:57:33Z</time>
  <course>105.44</course>
  <speed>25.34</speed>
  <fix>3d</fix>
</trkpt>
<trkpt lat="-27.273246" lon="151.2878385">
  <ele>372.34</ele>
  <time>2026-09-01T19:57:33Z</time>
  <course>105.68</course>
  <speed>25.281663315533653</speed>
  <fix>3d</fix>
</trkpt>
<trkpt lat="-27.2732292" lon="151.2877687">
  <ele>372.21</ele>
  <time>2026-09-01T19:57:33Z</time>
  <course>105.44</course>
  <speed>25.34</speed>
  <fix>3d</fix>
</trkpt>
<trkpt lat="-27.2732524" lon="151.2878638">
  <ele>372.35</ele>
  <time>2026-09-01T19:57:33Z</time>
  <course>105.81</course>
  <speed>25.273197265086978</speed>
  <fix>3d</fix>
</trkpt>
<trkpt lat="-27.2732415" lon="151.2878182">
  <ele>372.25</ele>
  <time>2026-09-01T19:57:33Z</time>
  <course>105.68</course>
  <speed>25.33</speed>
  <fix>3d</fix>
</trkpt>
<trkpt lat="-27.2732585" lon="151.2878881">
  <ele>372.37</ele>
  <time>2026-09-01T19:57:33Z</time>
  <course>105.92</course>
  <speed>25.27170947917849</speed>
  <fix>3d</fix>
</trkpt>
<trkpt lat="-27.2732539" lon="151.2878675">
  <ele>372.28</ele>
  <time>2026-09-01T19:57:33Z</time>
  <course>105.86</course>
  <speed>25.33</speed>
  <fix>3d</fix>
</trkpt>
<trkpt lat="-27.2732648" lon="151.2879127">
  <ele>372.38</ele>
  <time>2026-09-01T19:57:33Z</time>
  <course>106.02</course>
  <speed>25.27026117791425</speed>
  <fix>3d</fix>
</trkpt>
<trkpt lat="-27.2732539" lon="151.2878675">
  <ele>372.28</ele>
  <time>2026-09-01T19:57:33Z</time>
  <course>105.86</course>
  <speed>25.33</speed>
  <fix>3d</fix>
</trkpt>
<trkpt lat="-27.2732711" lon="151.2879373">
  <ele>372.39</ele>
  <time>2026-09-01T19:57:33Z</time>
  <course>106.07</course>
  <speed>25.27846909921564</speed>
  <fix>3d</fix>
</trkpt>
<trkpt lat="-27.2732664" lon="151.2879166">
  <ele>372.31</ele>
  <time>2026-09-01T19:57:33Z</time>
  <course>106.0</course>
  <speed>25.33</speed>
  <fix>3d</fix>
</trkpt>
<trkpt lat="-27.2732774" lon="151.287962">
  <ele>372.4</ele>
  <time>2026-09-01T19:57:33Z</time>
  <course>106.16</course>
  <speed>25.283959341843598</speed>
  <fix>3d</fix>
</trkpt>
<trkpt lat="-27.2732664" lon="151.2879166">
  <ele>372.31</ele>
  <time>2026-09-01T19:57:34Z</time>
  <course>106.0</course>
  <speed>25.33</speed>
  <fix>3d</fix>
</trkpt>
<trkpt lat="-27.2732838" lon="151.2879868">
  <ele>372.42</ele>
  <time>2026-09-01T19:57:34Z</time>
  <course>106.23</course>
  <speed>25.289464209429187</speed>
  <fix>3d</fix>
</trkpt>
<trkpt lat="-27.273279" lon="151.2879659">
  <ele>372.33</ele>
  <time>2026-09-01T19:57:34Z</time>
  <course>106.11</course>
  <speed>25.33</speed>
  <fix>3d</fix>
</trkpt>
<trkpt lat="-27.27329" lon="151.2880109">
  <ele>372.43</ele>
  <time>2026-09-01T19:57:34Z</time>
  <course>106.28</course>
  <speed>25.294983692424076</speed>
  <fix>3d</fix>
</trkpt>
<trkpt lat="-27.273279" lon="151.2879659">
  <ele>372.33</ele>
  <time>2026-09-01T19:57:34Z</time>
  <course>106.11</course>
  <speed>25.33</speed>
  <fix>3d</fix>
</trkpt>
<trkpt lat="-27.2732964" lon="151.2880356">
  <ele>372.45</ele>
  <time>2026-09-01T19:57:34Z</time>
  <course>106.33</course>
  <speed>25.300517781262897</speed>
  <fix>3d</fix>
</trkpt>
<trkpt lat="-27.273279" lon="151.2879659">
  <ele>372.33</ele>
  <time>2026-09-01T19:57:34Z</time>
  <course>106.11</course>
  <speed>25.33</speed>
  <fix>3d</fix>
</trkpt>
<trkpt lat="-27.2733028" lon="151.2880603">
  <ele>372.46</ele>
  <time>2026-09-01T19:57:34Z</time>
  <course>106.37</course>
  <speed>25.312897898107202</speed>
  <fix>3d</fix>
</trkpt>
<trkpt lat="-27.2732916" lon="151.288015">
  <ele>372.36</ele>
  <time>2026-09-01T19:57:34Z</time>
  <course>106.18</course>
  <speed>25.32</speed>
  <fix>3d</fix>
</trkpt>
<trkpt lat="-27.2733091" lon="151.288085">
  <ele>372.48</ele>
  <time>2026-09-01T19:57:34Z</time>
  <course>106.39</course>
  <speed>25.306066466363358</speed>
  <fix>3d</fix>
</trkpt>
<trkpt lat="-27.2732916" lon="151.288015">
  <ele>372.36</ele>
  <time>2026-09-01T19:57:34Z</time>
  <course>106.18</course>
  <speed>25.32</speed>
  <fix>3d</fix>
</trkpt>
<trkpt lat="-27.2733156" lon="151.2881097">
  <ele>372.49</ele>
  <time>2026-09-01T19:57:34Z</time>
  <course>106.33</course>
  <speed>25.286854292299786</speed>
  <fix>3d</fix>
</trkpt>
<trkpt lat="-27.2733043" lon="151.2880642">
  <ele>372.38</ele>
  <time>2026-09-01T19:57:34Z</time>
  <course>106.22</course>
  <speed>25.32</speed>
  <fix>3d</fix>
</trkpt>
<trkpt lat="-27.2733219" lon="151.2881343">
  <ele>372.51</ele>
  <time>2026-09-01T19:57:34Z</time>
  <course>106.37</course>
  <speed>25.201668595551368</speed>
  <fix>3d</fix>
</trkpt>
<trkpt lat="-27.2733043" lon="151.2880642">
  <ele>372.38</ele>
  <time>2026-09-01T19:57:34Z</time>
  <course>106.22</course>
  <speed>25.32</speed>
  <fix>3d</fix>
</trkpt>
<trkpt lat="-27.2733283" lon="151.2881588">
  <ele>372.53</ele>
  <time>2026-09-01T19:57:34Z</time>
  <course>106.46</course>
  <speed>25.058846741220954</speed>
  <fix>3d</fix>
</trkpt>
<trkpt lat="-27.273317" lon="151.2881133">
  <ele>372.41</ele>
  <time>2026-09-01T19:57:34Z</time>
  <course>106.24</course>
  <speed>25.25</speed>
  <fix>3d</fix>
</trkpt>
<trkpt lat="-27.2733346" lon="151.2881831">
  <ele>372.56</ele>
  <time>2026-09-01T19:57:34Z</time>
  <course>106.45</course>
  <speed>24.906424873915565</speed>
  <fix>3d</fix>
</trkpt>
<trkpt lat="-27.273317" lon="151.2881133">
  <ele>372.41</ele>
  <time>2026-09-01T19:57:34Z</time>
  <course>106.24</course>
  <speed>25.25</speed>
  <fix>3d</fix>
</trkpt>
<trkpt lat="-27.2733408" lon="151.2882069">
  <ele>372.6</ele>
  <time>2026-09-01T19:57:34Z</time>
  <course>106.45</course>
  <speed>24.751220171943036</speed>
  <fix>3d</fix>
</trkpt>
<trkpt lat="-27.2733297" lon="151.2881621">
  <ele>372.45</ele>
  <time>2026-09-01T19:57:34Z</time>
  <course>106.26</course>
  <speed>25.05</speed>
  <fix>3d</fix>
</trkpt>
<trkpt lat="-27.273347" lon="151.2882308">
  <ele>372.64</ele>
  <time>2026-09-01T19:57:34Z</time>
  <course>106.5</course>
  <speed>24.608409131839466</speed>
  <fix>3d</fix>
</trkpt>
<trkpt lat="-27.2733297" lon="151.2881621">
  <ele>372.45</ele>
  <time>2026-09-01T19:57:34Z</time>
  <course>106.26</course>
  <speed>25.05</speed>
  <fix>3d</fix>
</trkpt>
<trkpt lat="-27.2733532" lon="151.2882545">
  <ele>372.68</ele>
  <time>2026-09-01T19:57:34Z</time>
  <course>106.52</course>
  <speed>24.465602383755037</speed>
  <fix>3d</fix>
</trkpt>
<trkpt lat="-27.2733422" lon="151.2882104">
  <ele>372.51</ele>
  <time>2026-09-01T19:57:34Z</time>
  <course>106.28</course>
  <speed>24.74</speed>
  <fix>3d</fix>
</trkpt>
<trkpt lat="-27.2733593" lon="151.2882781">
  <ele>372.73</ele>
  <time>2026-09-01T19:57:34Z</time>
  <course>106.54</course>
  <speed>24.332400210419028</speed>
  <fix>3d</fix>
</trkpt>
<trkpt lat="-27.2733422" lon="151.2882104">
  <ele>372.51</ele>
  <time>2026-09-01T19:57:34Z</time>
  <course>106.28</course>
  <speed>24.74</speed>
  <fix>3d</fix>
</trkpt>
<trkpt lat="-27.2733655" lon="151.2883016">
  <ele>372.78</ele>
  <time>2026-09-01T19:57:34Z</time>
  <course>106.53</course>
  <speed>24.19920040001322</speed>
  <fix>3d</fix>
</trkpt>
<trkpt lat="-27.2733547" lon="151.2882581">
  <ele>372.59</ele>
  <time>2026-09-01T19:57:34Z</time>
  <course>106.31</course>
  <speed>24.46</speed>
  <fix>3d</fix>
</trkpt>
<trkpt lat="-27.2733716" lon="151.2883249">
  <ele>372.83</ele>
  <time>2026-09-01T19:57:34Z</time>
  <course>106.51</course>
  <speed>24.056404552634213</speed>
  <fix>3d</fix>
</trkpt>
<trkpt lat="-27.2733547" lon="151.2882581">
  <ele>372.59</ele>
  <time>2026-09-01T19:57:34Z</time>
  <course>106.31</course>
  <speed>24.46</speed>
  <fix>3d</fix>
</trkpt>
<trkpt lat="-27.2733777" lon="151.2883482">
  <ele>372.89</ele>
  <time>2026-09-01T19:57:34Z</time>
  <course>106.56</course>
  <speed>23.8600083822282</speed>
  <fix>3d</fix>
</trkpt>
<trkpt lat="-27.273367" lon="151.2883054">
  <ele>372.7</ele>
  <time>2026-09-01T19:57:34Z</time>
  <course>106.35</course>
  <speed>24.19</speed>
  <fix>3d</fix>
</trkpt>
<trkpt lat="-27.2733839" lon="151.288372">
  <ele>372.96</ele>
  <time>2026-09-01T19:57:34Z</time>
  <course>106.59</course>
  <speed>23.590813890156483</speed>
  <fix>3d</fix>
</trkpt>
<trkpt lat="-27.2733791" lon="151.288352">
  <ele>372.81</ele>
  <time>2026-09-01T19:57:34Z</time>
  <course>106.38</course>
  <speed>23.83</speed>
  <fix>3d</fix>
</trkpt>
<trkpt lat="-27.2733899" lon="151.2883946">
  <ele>373.05</ele>
  <time>2026-09-01T19:57:34Z</time>
  <course>106.6</course>
  <speed>23.28042310612073</speed>
  <fix>3d</fix>
</trkpt>
<trkpt lat="-27.2733791" lon="151.288352">
  <ele>372.81</ele>
  <time>2026-09-01T19:57:34Z</time>
  <course>106.38</course>
  <speed>23.83</speed>
  <fix>3d</fix>
</trkpt>
<trkpt lat="-27.2733958" lon="151.2884171">
  <ele>373.15</ele>
  <time>2026-09-01T19:57:34Z</time>
  <course>106.58</course>
  <speed>22.916426422983147</speed>
  <fix>3d</fix>
</trkpt>
<trkpt lat="-27.2733911" lon="151.2883977">
  <ele>372.97</ele>
  <time>2026-09-01T19:57:34Z</time>
  <course>106.39</course>
  <speed>23.26</speed>
  <fix>3d</fix>
</trkpt>
<trkpt lat="-27.2734016" lon="151.2884393">
  <ele>373.27</ele>
  <time>2026-09-01T19:57:34Z</time>
  <course>106.56</course>
  <speed>22.549616404719615</speed>
  <fix>3d</fix>
</trkpt>
<trkpt lat="-27.2733911" lon="151.2883977">
  <ele>372.97</ele>
  <time>2026-09-01T19:57:34Z</time>
  <course>106.39</course>
  <speed>23.26</speed>
  <fix>3d</fix>
</trkpt>
<trkpt lat="-27.2734073" lon="151.2884611">
  <ele>373.4</ele>
  <time>2026-09-01T19:57:34Z</time>
  <course>106.55</course>
  <speed>22.204812541428943</speed>
  <fix>3d</fix>
</trkpt>
<trkpt lat="-27.2734027" lon="151.2884421">
  <ele>373.18</ele>
  <time>2026-09-01T19:57:34Z</time>
  <course>106.38</course>
  <speed>22.55</speed>
  <fix>3d</fix>
</trkpt>
<trkpt lat="-27.273413" lon="151.2884828">
  <ele>373.52</ele>
  <time>2026-09-01T19:57:34Z</time>
  <course>106.53</course>
  <speed>21.860009149128917</speed>
  <fix>3d</fix>
</trkpt>
<trkpt lat="-27.2734027" lon="151.2884421">
  <ele>373.18</ele>
  <time>2026-09-01T19:57:34Z</time>
  <course>106.38</course>
  <speed>22.55</speed>
  <fix>3d</fix>
</trkpt>
<trkpt lat="-27.2734185" lon="151.288504">
  <ele>373.64</ele>
  <time>2026-09-01T19:57:34Z</time>
  <course>106.52</course>
  <speed>21.54680718807313</speed>
  <fix>3d</fix>
</trkpt>
<trkpt lat="-27.2734139" lon="151.2884852">
  <ele>373.43</ele>
  <time>2026-09-01T19:57:34Z</time>
  <course>106.36</course>
  <speed>21.85</speed>
  <fix>3d</fix>
</trkpt>
<trkpt lat="-27.273424" lon="151.2885248">
  <ele>373.74</ele>
  <time>2026-09-01T19:57:34Z</time>
  <course>106.5</course>
  <speed>21.243203619040138</speed>
  <fix>3d</fix>
</trkpt>
<trkpt lat="-27.2734139" lon="151.2884852">
  <ele>373.43</ele>
  <time>2026-09-01T19:57:34Z</time>
  <course>106.36</course>
  <speed>21.85</speed>
  <fix>3d</fix>
</trkpt>
<trkpt lat="-27.2734294" lon="151.2885454">
  <ele>373.83</ele>
  <time>2026-09-01T19:57:34Z</time>
  <course>106.49</course>
  <speed>20.93960123784596</speed>
  <fix>3d</fix>
</trkpt>
<trkpt lat="-27.2734248" lon="151.2885269">
  <ele>373.65</ele>
  <time>2026-09-01T19:57:34Z</time>
  <course>106.33</course>
  <speed>21.2</speed>
  <fix>3d</fix>
</trkpt>
<trkpt lat="-27.2734346" lon="151.2885656">
  <ele>373.91</ele>
  <time>2026-09-01T19:57:34Z</time>
  <course>106.47</course>
  <speed>20.64560001549967</speed>
  <fix>3d</fix>
</trkpt>
<trkpt lat="-27.2734248" lon="151.2885269">
  <ele>373.65</ele>
  <time>2026-09-01T19:57:34Z</time>
  <course>106.33</course>
  <speed>21.2</speed>
  <fix>3d</fix>
</trkpt>
<trkpt lat="-27.2734398" lon="151.2885854">
  <ele>373.98</ele>
  <time>2026-09-01T19:57:34Z</time>
  <course>106.45</course>
  <speed>20.364000098212532</speed>
  <fix>3d</fix>
</trkpt>
<trkpt lat="-27.2734353" lon="151.2885674">
  <ele>373.82</ele>
  <time>2026-09-01T19:57:34Z</time>
  <course>106.3</course>
  <speed>20.6</speed>
  <fix>3d</fix>
</trkpt>
<trkpt lat="-27.2734449" lon="151.288605">
  <ele>374.04</ele>
  <time>2026-09-01T19:57:34Z</time>
  <course>106.44</course>
  <speed>20.092000895878936</speed>
  <fix>3d</fix>
</trkpt>
<trkpt lat="-27.2734353" lon="151.2885674">
  <ele>373.82</ele>
  <time>2026-09-01T19:57:34Z</time>
  <course>106.3</course>
  <speed>20.6</speed>
  <fix>3d</fix>
</trkpt>
<trkpt lat="-27.2734498" lon="151.2886238">
  <ele>374.1</ele>
  <time>2026-09-01T19:57:34Z</time>
  <course>106.43</course>
  <speed>19.829604131197375</speed>
  <fix>3d</fix>
</trkpt>
<trkpt lat="-27.2734353" lon="151.2885674">
  <ele>373.82</ele>
  <time>2026-09-01T19:57:34Z</time>
  <course>106.3</course>
  <speed>20.6</speed>
  <fix>3d</fix>
</trkpt>
<trkpt lat="-27.2734547" lon="151.2886427">
  <ele>374.14</ele>
  <time>2026-09-01T19:57:34Z</time>
  <course>106.42</course>
  <speed>19.56720981642503</speed>
  <fix>3d</fix>
</trkpt>
<trkpt lat="-27.2734456" lon="151.2886068">
  <ele>373.96</ele>
  <time>2026-09-01T19:57:34Z</time>
  <course>106.26</course>
  <speed>20.04</speed>
  <fix>3d</fix>
</trkpt>
<trkpt lat="-27.2734595" lon="151.2886615">
  <ele>374.18</ele>
  <time>2026-09-01T19:57:34Z</time>
  <course>106.4</course>
  <speed>19.317209943467507</speed>
  <fix>3d</fix>
</trkpt>
<trkpt lat="-27.2734456" lon="151.2886068">
  <ele>373.96</ele>
  <time>2026-09-01T19:57:34Z</time>
  <course>106.26</course>
  <speed>20.04</speed>
  <fix>3d</fix>
</trkpt>
<trkpt lat="-27.2734644" lon="151.2886801">
  <ele>374.22</ele>
  <time>2026-09-01T19:57:34Z</time>
  <course>106.38</course>
  <speed>19.076813151048054</speed>
  <fix>3d</fix>
</trkpt>
<trkpt lat="-27.2734556" lon="151.2886452">
  <ele>374.06</ele>
  <time>2026-09-01T19:57:34Z</time>
  <course>106.23</course>
  <speed>19.52</speed>
  <fix>3d</fix>
</trkpt>
<trkpt lat="-27.2734691" lon="151.2886985">
  <ele>374.25</ele>
  <time>2026-09-01T19:57:34Z</time>
  <course>106.36</course>
  <speed>18.846020800158318</speed>
  <fix>3d</fix>
</trkpt>
<trkpt lat="-27.2734556" lon="151.2886452">
  <ele>374.06</ele>
  <time>2026-09-01T19:57:34Z</time>
  <course>106.23</course>
  <speed>19.52</speed>
  <fix>3d</fix>
</trkpt>
<trkpt lat="-27.2734738" lon="151.2887167">
  <ele>374.27</ele>
  <time>2026-09-01T19:57:34Z</time>
  <course>106.34</course>
  <speed>18.624835569743965</speed>
  <fix>3d</fix>
</trkpt>
<trkpt lat="-27.2734652" lon="151.2886826">
  <ele>374.14</ele>
  <time>2026-09-01T19:57:34Z</time>
  <course>106.2</course>
  <speed>19.02</speed>
  <fix>3d</fix>
</trkpt>
<trkpt lat="-27.2734785" lon="151.2887349">
  <ele>374.29</ele>
  <time>2026-09-01T19:57:34Z</time>
  <course>106.32</course>
  <speed>18.406433657827364</speed>
  <fix>3d</fix>
</trkpt>
<trkpt lat="-27.2734652" lon="151.2886826">
  <ele>374.14</ele>
  <time>2026-09-01T19:57:34Z</time>
  <course>106.2</course>
  <speed>19.02</speed>
  <fix>3d</fix>
</trkpt>
<trkpt lat="-27.2734831" lon="151.2887527">
  <ele>374.3</ele>
  <time>2026-09-01T19:57:34Z</time>
  <course>106.3</course>
  <speed>18.18803177916731</speed>
  <fix>3d</fix>
</trkpt>
<trkpt lat="-27.2734746" lon="151.2887192">
  <ele>374.19</ele>
  <time>2026-09-01T19:57:34Z</time>
  <course>106.17</course>
  <speed>18.55</speed>
  <fix>3d</fix>
</trkpt>
<trkpt lat="-27.2734877" lon="151.2887703">
  <ele>374.31</ele>
  <time>2026-09-01T19:57:34Z</time>
  <course>106.28</course>
  <speed>17.98606404970248</speed>
  <fix>3d</fix>
</trkpt>
<trkpt lat="-27.2734746" lon="151.2887192">
  <ele>374.19</ele>
  <time>2026-09-01T19:57:34Z</time>
  <course>106.17</course>
  <speed>18.55</speed>
  <fix>3d</fix>
</trkpt>
<trkpt lat="-27.2734923" lon="151.2887883">
  <ele>374.31</ele>
  <time>2026-09-01T19:57:34Z</time>
  <course>106.26</course>
  <speed>17.77726919411415</speed>
  <fix>3d</fix>
</trkpt>
<trkpt lat="-27.2734838" lon="151.2887548">
  <ele>374.22</ele>
  <time>2026-09-01T19:57:34Z</time>
  <course>106.13</course>
  <speed>18.12</speed>
  <fix>3d</fix>
</trkpt>
<trkpt lat="-27.2734967" lon="151.2888053">
  <ele>374.3</ele>
  <time>2026-09-01T19:57:34Z</time>
  <course>106.24</course>
  <speed>17.590463325336263</speed>
  <fix>3d</fix>
</trkpt>
<trkpt lat="-27.2734928" lon="151.2887896">
  <ele>374.23</ele>
  <time>2026-09-01T19:57:34Z</time>
  <course>106.1</course>
  <speed>17.7</speed>
  <fix>3d</fix>
</trkpt>
<trkpt lat="-27.2735011" lon="151.2888224">
  <ele>374.3</ele>
  <time>2026-09-01T19:57:34Z</time>
  <course>106.22</course>
  <speed>17.40088503496302</speed>
  <fix>3d</fix>
</trkpt>
<trkpt lat="-27.2734928" lon="151.2887896">
  <ele>374.23</ele>
  <time>2026-09-01T19:57:34Z</time>
  <course>106.1</course>
  <speed>17.7</speed>
  <fix>3d</fix>
</trkpt>
<trkpt lat="-27.2735054" lon="151.2888392">
  <ele>374.28</ele>
  <time>2026-09-01T19:57:34Z</time>
  <course>106.2</course>
  <speed>17.223687177837387</speed>
  <fix>3d</fix>
</trkpt>
<trkpt lat="-27.2735015" lon="151.2888236">
  <ele>374.22</ele>
  <time>2026-09-01T19:57:34Z</time>
  <course>106.07</course>
  <speed>17.32</speed>
  <fix>3d</fix>
</trkpt>
<trkpt lat="-27.2735097" lon="151.2888559">
  <ele>374.26</ele>
  <time>2026-09-01T19:57:34Z</time>
  <course>106.18</course>
  <speed>17.04372318479739</speed>
  <fix>3d</fix>
</trkpt>
<trkpt lat="-27.2735015" lon="151.2888236">
  <ele>374.22</ele>
  <time>2026-09-01T19:57:34Z</time>
  <course>106.07</course>
  <speed>17.32</speed>
  <fix>3d</fix>
</trkpt>
<trkpt lat="-27.2735139" lon="151.2888725">
  <ele>374.24</ele>
  <time>2026-09-01T19:57:34Z</time>
  <course>106.16</course>
  <speed>16.866526020493964</speed>
  <fix>3d</fix>
</trkpt>
<trkpt lat="-27.27351" lon="151.2888568">
  <ele>374.19</ele>
  <time>2026-09-01T19:57:34Z</time>
  <course>106.03</course>
  <speed>16.95</speed>
  <fix>3d</fix>
</trkpt>
<trkpt lat="-27.2735181" lon="151.2888888">
  <ele>374.21</ele>
  <time>2026-09-01T19:57:34Z</time>
  <course>106.14</course>
  <speed>16.708551702646165</speed>
  <fix>3d</fix>
</trkpt>
<trkpt lat="-27.27351" lon="151.2888568">
  <ele>374.19</ele>
  <time>2026-09-01T19:57:34Z</time>
  <course>106.03</course>
  <speed>16.95</speed>
  <fix>3d</fix>
</trkpt>
<trkpt lat="-27.2735222" lon="151.2889049">
  <ele>374.18</ele>
  <time>2026-09-01T19:57:34Z</time>
  <course>106.11</course>
  <speed>16.55333803194993</speed>
  <fix>3d</fix>
</trkpt>
<trkpt lat="-27.2735183" lon="151.2888894">
  <ele>374.14</ele>
  <time>2026-09-01T19:57:34Z</time>
  <course>106.0</course>
  <speed>16.61</speed>
  <fix>3d</fix>
</trkpt>
<trkpt lat="-27.2735263" lon="151.2889209">
  <ele>374.13</ele>
  <time>2026-09-01T19:57:34Z</time>
  <course>106.09</course>
  <speed>16.395365198738332</speed>
  <fix>3d</fix>
</trkpt>
<trkpt lat="-27.2735183" lon="151.2888894">
  <ele>374.14</ele>
  <time>2026-09-01T19:57:34Z</time>
  <course>106.0</course>
  <speed>16.61</speed>
  <fix>3d</fix>
</trkpt>
<trkpt lat="-27.2735303" lon="151.2889368">
  <ele>374.08</ele>
  <time>2026-09-01T19:57:34Z</time>
  <course>106.07</course>
  <speed>16.259375756774922</speed>
  <fix>3d</fix>
</trkpt>
<trkpt lat="-27.2735264" lon="151.2889214">
  <ele>374.06</ele>
  <time>2026-09-01T19:57:34Z</time>
  <course>105.96</course>
  <speed>16.3</speed>
  <fix>3d</fix>
</trkpt>
<trkpt lat="-27.2735343" lon="151.2889524">
  <ele>374.02</ele>
  <time>2026-09-01T19:57:34Z</time>
  <course>106.05</course>
  <speed>16.11102107254534</speed>
  <fix>3d</fix>
</trkpt>
<trkpt lat="-27.2735264" lon="151.2889214">
  <ele>374.06</ele>
  <time>2026-09-01T19:57:34Z</time>
  <course>105.96</course>
  <speed>16.3</speed>
  <fix>3d</fix>
</trkpt>
<trkpt lat="-27.2735382" lon="151.2889679">
  <ele>373.95</ele>
  <time>2026-09-01T19:57:34Z</time>
  <course>106.03</course>
  <speed>15.975033646286946</speed>
  <fix>3d</fix>
</trkpt>
<trkpt lat="-27.2735344" lon="151.2889528">
  <ele>373.95</ele>
  <time>2026-09-01T19:57:34Z</time>
  <course>105.93</course>
  <speed>16.01</speed>
  <fix>3d</fix>
</trkpt>
<trkpt lat="-27.2735421" lon="151.2889832">
  <ele>373.87</ele>
  <time>2026-09-01T19:57:34Z</time>
  <course>106.0</course>
  <speed>15.848662404127358</speed>
  <fix>3d</fix>
</trkpt>
<trkpt lat="-27.2735344" lon="151.2889528">
  <ele>373.95</ele>
  <time>2026-09-01T19:57:34Z</time>
  <course>105.93</course>
  <speed>16.01</speed>
  <fix>3d</fix>
</trkpt>
<trkpt lat="-27.273546" lon="151.2889984">
  <ele>373.78</ele>
  <time>2026-09-01T19:57:34Z</time>
  <course>105.98</course>
  <speed>15.734652840148716</speed>
  <fix>3d</fix>
</trkpt>
<trkpt lat="-27.2735422" lon="151.2889837">
  <ele>373.81</ele>
  <time>2026-09-01T19:57:34Z</time>
  <course>105.89</course>
  <speed>15.76</speed>
  <fix>3d</fix>
</trkpt>
<trkpt lat="-27.2735498" lon="151.2890134">
  <ele>373.68</ele>
  <time>2026-09-01T19:57:34Z</time>
  <course>105.96</course>
  <speed>15.617899986874036</speed>
  <fix>3d</fix>
</trkpt>
<trkpt lat="-27.2735422" lon="151.2889837">
  <ele>373.81</ele>
  <time>2026-09-01T19:57:34Z</time>
  <course>105.89</course>
  <speed>15.76</speed>
  <fix>3d</fix>
</trkpt>
<trkpt lat="-27.2735536" lon="151.2890284">
  <ele>373.58</ele>
  <time>2026-09-01T19:57:34Z</time>
  <course>105.93</course>
  <speed>15.503889834489923</speed>
  <fix>3d</fix>
</trkpt>
<trkpt lat="-27.2735499" lon="151.289014">
  <ele>373.63</ele>
  <time>2026-09-01T19:57:34Z</time>
  <course>105.86</course>
  <speed>15.53</speed>
  <fix>3d</fix>
</trkpt>
<trkpt lat="-27.2735573" lon="151.2890433">
  <ele>373.47</ele>
  <time>2026-09-01T19:57:34Z</time>
  <course>105.91</course>
  <speed>15.409114186091294</speed>
  <fix>3d</fix>
</trkpt>
<trkpt lat="-27.2735499" lon="151.289014">
  <ele>373.63</ele>
  <time>2026-09-01T19:57:34Z</time>
  <course>105.86</course>
  <speed>15.53</speed>
  <fix>3d</fix>
</trkpt>
<trkpt lat="-27.2735611" lon="151.2890581">
  <ele>373.36</ele>
  <time>2026-09-01T19:57:34Z</time>
  <course>105.89</course>
  <speed>15.311606708637733</speed>
  <fix>3d</fix>
</trkpt>
<trkpt lat="-27.2735575" lon="151.2890441">
  <ele>373.41</ele>
  <time>2026-09-01T19:57:34Z</time>
  <course>105.82</course>
  <speed>15.33</speed>
  <fix>3d</fix>
</trkpt>
<trkpt lat="-27.2735648" lon="151.2890728">
  <ele>373.24</ele>
  <time>2026-09-01T19:57:34Z</time>
  <course>105.86</course>
  <speed>15.219566353874871</speed>
  <fix>3d</fix>
</trkpt>
<trkpt lat="-27.2735575" lon="151.2890441">
  <ele>373.41</ele>
  <time>2026-09-01T19:57:34Z</time>
  <course>105.82</course>
  <speed>15.33</speed>
  <fix>3d</fix>
</trkpt>
<trkpt lat="-27.2735684" lon="151.2890871">
  <ele>373.14</ele>
  <time>2026-09-01T19:57:34Z</time>
  <course>105.84</course>
  <speed>15.134414425408075</speed>
  <fix>3d</fix>
</trkpt>
<trkpt lat="-27.2735575" lon="151.2890441">
  <ele>373.41</ele>
  <time>2026-09-01T19:57:34Z</time>
  <course>105.82</course>
  <speed>15.33</speed>
  <fix>3d</fix>
</trkpt>
<trkpt lat="-27.2735722" lon="151.2891023">
  <ele>373.03</ele>
  <time>2026-09-01T19:57:34Z</time>
  <course>105.82</course>
  <speed>15.058887741131482</speed>
  <fix>3d</fix>
</trkpt>
<trkpt lat="-27.273565" lon="151.2890738">
  <ele>373.2</ele>
  <time>2026-09-01T19:57:34Z</time>
  <course>105.78</course>
  <speed>15.15</speed>
  <fix>3d</fix>
</trkpt>
<trkpt lat="-27.2735759" lon="151.2891169">
  <ele>372.93</ele>
  <time>2026-09-01T19:57:34Z</time>
  <course>105.79</course>
  <speed>14.973743686867357</speed>
  <fix>3d</fix>
</trkpt>
<trkpt lat="-27.2735723" lon="151.2891031">
  <ele>372.99</ele>
  <time>2026-09-01T19:57:34Z</time>
  <course>105.74</course>
  <speed>14.99</speed>
  <fix>3d</fix>
</trkpt>
<trkpt lat="-27.2735794" lon="151.2891312">
  <ele>372.83</ele>
  <time>2026-09-01T19:57:34Z</time>
  <course>105.77</course>
  <speed>14.891319619160688</speed>
  <fix>3d</fix>
</trkpt>
<trkpt lat="-27.2735723" lon="151.2891031">
  <ele>372.99</ele>
  <time>2026-09-01T19:57:34Z</time>
  <course>105.74</course>
  <speed>14.99</speed>
  <fix>3d</fix>
</trkpt>
<trkpt lat="-27.273583" lon="151.2891456">
  <ele>372.74</ele>
  <time>2026-09-01T19:57:34Z</time>
  <course>105.75</course>
  <speed>14.815802374491907</speed>
  <fix>3d</fix>
</trkpt>
<trkpt lat="-27.2735796" lon="151.2891321">
  <ele>372.8</ele>
  <time>2026-09-01T19:57:34Z</time>
  <course>105.7</course>
  <speed>14.83</speed>
  <fix>3d</fix>
</trkpt>
<trkpt lat="-27.2735866" lon="151.2891599">
  <ele>372.67</ele>
  <time>2026-09-01T19:57:34Z</time>
  <course>105.73</course>
  <speed>14.730665293869112</speed>
  <fix>3d</fix>
</trkpt>
<trkpt lat="-27.2735796" lon="151.2891321">
  <ele>372.8</ele>
  <time>2026-09-01T19:57:34Z</time>
  <course>105.7</course>
  <speed>14.83</speed>
  <fix>3d</fix>
</trkpt>
<trkpt lat="-27.2735902" lon="151.2891741">
  <ele>372.59</ele>
  <time>2026-09-01T19:57:34Z</time>
  <course>105.71</course>
  <speed>14.64823880198572</speed>
  <fix>3d</fix>
</trkpt>
<trkpt lat="-27.2735867" lon="151.2891608">
  <ele>372.63</ele>
  <time>2026-09-01T19:57:34Z</time>
  <course>105.66</course>
  <speed>14.67</speed>
  <fix>3d</fix>
</trkpt>
<trkpt lat="-27.2735937" lon="151.2891883">
  <ele>372.53</ele>
  <time>2026-09-01T19:57:34Z</time>
  <course>105.69</course>
  <speed>14.563104064724662</speed>
  <fix>3d</fix>
</trkpt>
<trkpt lat="-27.2735867" lon="151.2891608">
  <ele>372.63</ele>
  <time>2026-09-01T19:57:34Z</time>
  <course>105.66</course>
  <speed>14.67</speed>
  <fix>3d</fix>
</trkpt>
<trkpt lat="-27.2735972" lon="151.2892024">
  <ele>372.48</ele>
  <time>2026-09-01T19:57:34Z</time>
  <course>105.67</course>
  <speed>14.47797292441176</speed>
  <fix>3d</fix>
</trkpt>
<trkpt lat="-27.2735938" lon="151.2891892">
  <ele>372.5</ele>
  <time>2026-09-01T19:57:34Z</time>
  <course>105.62</course>
  <speed>14.51</speed>
  <fix>3d</fix>
</trkpt>
<trkpt lat="-27.2736007" lon="151.2892164">
  <ele>372.44</ele>
  <time>2026-09-01T19:57:34Z</time>
  <course>105.66</course>
  <speed>14.395544449585781</speed>
  <fix>3d</fix>
</trkpt>
<trkpt lat="-27.2735938" lon="151.2891892">
  <ele>372.5</ele>
  <time>2026-09-01T19:57:34Z</time>
  <course>105.62</course>
  <speed>14.51</speed>
  <fix>3d</fix>
</trkpt>
<trkpt lat="-27.2736042" lon="151.2892304">
  <ele>372.4</ele>
  <time>2026-09-01T19:57:34Z</time>
  <course>105.64</course>
  <speed>14.310415787111149</speed>
  <fix>3d</fix>
</trkpt>
<trkpt lat="-27.2736007" lon="151.2892173">
  <ele>372.4</ele>
  <time>2026-09-01T19:57:34Z</time>
  <course>105.59</course>
  <speed>14.34</speed>
  <fix>3d</fix>
</trkpt>
<trkpt lat="-27.2736076" lon="151.2892443">
  <ele>372.37</ele>
  <time>2026-09-01T19:57:34Z</time>
  <course>105.63</course>
  <speed>14.227986505475748</speed>
  <fix>3d</fix>
</trkpt>
<trkpt lat="-27.2736007" lon="151.2892173">
  <ele>372.4</ele>
  <time>2026-09-01T19:57:34Z</time>
  <course>105.59</course>
  <speed>14.34</speed>
  <fix>3d</fix>
</trkpt>
<trkpt lat="-27.273611" lon="151.2892582">
  <ele>372.35</ele>
  <time>2026-09-01T19:57:34Z</time>
  <course>105.61</course>
  <speed>14.142860389610016</speed>
  <fix>3d</fix>
</trkpt>
<trkpt lat="-27.2736077" lon="151.289245">
  <ele>372.33</ele>
  <time>2026-09-01T19:57:34Z</time>
  <course>105.56</course>
  <speed>14.17</speed>
  <fix>3d</fix>
</trkpt>
<trkpt lat="-27.2736144" lon="151.289272">
  <ele>372.34</ele>
  <time>2026-09-01T19:57:34Z</time>
  <course>105.6</course>
  <speed>14.060430292135443</speed>
  <fix>3d</fix>
</trkpt>
<trkpt lat="-27.2736077" lon="151.289245">
  <ele>372.33</ele>
  <time>2026-09-01T19:57:34Z</time>
  <course>105.56</course>
  <speed>14.17</speed>
  <fix>3d</fix>
</trkpt>
<trkpt lat="-27.2736178" lon="151.2892856">
  <ele>372.33</ele>
  <time>2026-09-01T19:57:34Z</time>
  <course>105.59</course>
  <speed>13.975306794485766</speed>
  <fix>3d</fix>
</trkpt>
<trkpt lat="-27.2736144" lon="151.2892724">
  <ele>372.3</ele>
  <time>2026-09-01T19:57:34Z</time>
  <course>105.54</course>
  <speed>14.0</speed>
  <fix>3d</fix>
</trkpt>
<trkpt lat="-27.2736212" lon="151.2892992">
  <ele>372.33</ele>
  <time>2026-09-01T19:57:34Z</time>
  <course>105.58</course>
  <speed>13.880554743957461</speed>
  <fix>3d</fix>
</trkpt>
<trkpt lat="-27.2736144" lon="151.2892724">
  <ele>372.3</ele>
  <time>2026-09-01T19:57:34Z</time>
  <course>105.54</course>
  <speed>14.0</speed>
  <fix>3d</fix>
</trkpt>
<trkpt lat="-27.2736245" lon="151.2893128">
  <ele>372.34</ele>
  <time>2026-09-01T19:57:34Z</time>
  <course>105.57</course>
  <speed>13.79812306076446</speed>
  <fix>3d</fix>
</trkpt>
<trkpt lat="-27.2736211" lon="151.2892996">
  <ele>372.29</ele>
  <time>2026-09-01T19:57:34Z</time>
  <course>105.52</course>
  <speed>13.82</speed>
  <fix>3d</fix>
</trkpt>
<trkpt lat="-27.2736278" lon="151.2893262">
  <ele>372.34</ele>
  <time>2026-09-01T19:57:34Z</time>
  <course>105.56</course>
  <speed>13.703371847833658</speed>
  <fix>3d</fix>
</trkpt>
<trkpt lat="-27.2736211" lon="151.2892996">
  <ele>372.29</ele>
  <time>2026-09-01T19:57:34Z</time>
  <course>105.52</course>
  <speed>13.82</speed>
  <fix>3d</fix>
</trkpt>
<trkpt lat="-27.2736311" lon="151.2893395">
  <ele>372.36</ele>
  <time>2026-09-01T19:57:34Z</time>
  <course>105.55</course>
  <speed>13.620939761998802</speed>
  <fix>3d</fix>
</trkpt>
<trkpt lat="-27.2736278" lon="151.2893264">
  <ele>372.3</ele>
  <time>2026-09-01T19:57:34Z</time>
  <course>105.51</course>
  <speed>13.64</speed>
  <fix>3d</fix>
</trkpt>
<trkpt lat="-27.2736344" lon="151.2893527">
  <ele>372.37</ele>
  <time>2026-09-01T19:57:34Z</time>
  <course>105.54</course>
  <speed>13.516556514142202</speed>
  <fix>3d</fix>
</trkpt>
<trkpt lat="-27.2736278" lon="151.2893264">
  <ele>372.3</ele>
  <time>2026-09-01T19:57:34Z</time>
  <course>105.51</course>
  <speed>13.64</speed>
  <fix>3d</fix>
</trkpt>
<trkpt lat="-27.2736376" lon="151.2893658">
  <ele>372.39</ele>
  <time>2026-09-01T19:57:34Z</time>
  <course>105.54</course>
  <speed>13.421806882830642</speed>
  <fix>3d</fix>
</trkpt>
<trkpt lat="-27.2736343" lon="151.2893528">
  <ele>372.33</ele>
  <time>2026-09-01T19:57:34Z</time>
  <course>105.49</course>
  <speed>13.45</speed>
  <fix>3d</fix>
</trkpt>
<trkpt lat="-27.2736408" lon="151.2893787">
  <ele>372.41</ele>
  <time>2026-09-01T19:57:34Z</time>
  <course>105.53</course>
  <speed>13.317424675964944</speed>
  <fix>3d</fix>
</trkpt>
<trkpt lat="-27.2736343" lon="151.2893528">
  <ele>372.33</ele>
  <time>2026-09-01T19:57:34Z</time>
  <course>105.49</course>
  <speed>13.45</speed>
  <fix>3d</fix>
</trkpt>
<trkpt lat="-27.273644" lon="151.2893915">
  <ele>372.43</ele>
  <time>2026-09-01T19:57:34Z</time>
  <course>105.53</course>
  <speed>13.225358218210953</speed>
  <fix>3d</fix>
</trkpt>
<trkpt lat="-27.2736407" lon="151.2893788">
  <ele>372.37</ele>
  <time>2026-09-01T19:57:34Z</time>
  <course>105.49</course>
  <speed>13.26</speed>
  <fix>3d</fix>
</trkpt>
<trkpt lat="-27.2736471" lon="151.2894043">
  <ele>372.46</ele>
  <time>2026-09-01T19:57:34Z</time>
  <course>105.52</course>
  <speed>13.12097557348538</speed>
  <fix>3d</fix>
</trkpt>
<trkpt lat="-27.2736407" lon="151.2893788">
  <ele>372.37</ele>
  <time>2026-09-01T19:57:34Z</time>
  <course>105.49</course>
  <speed>13.26</speed>
  <fix>3d</fix>
</trkpt>
<trkpt lat="-27.2736502" lon="151.2894169">
  <ele>372.48</ele>
  <time>2026-09-01T19:57:34Z</time>
  <course>105.52</course>
  <speed>13.016593256301741</speed>
  <fix>3d</fix>
</trkpt>
<trkpt lat="-27.2736469" lon="151.2894044">
  <ele>372.41</ele>
  <time>2026-09-01T19:57:34Z</time>
  <course>105.48</course>
  <speed>13.06</speed>
  <fix>3d</fix>
</trkpt>
<trkpt lat="-27.2736533" lon="151.2894294">
  <ele>372.51</ele>
  <time>2026-09-01T19:57:34Z</time>
  <course>105.51</course>
  <speed>12.912211274603587</speed>
  <fix>3d</fix>
</trkpt>
<trkpt lat="-27.2736469" lon="151.2894044">
  <ele>372.41</ele>
  <time>2026-09-01T19:57:34Z</time>
  <course>105.48</course>
  <speed>13.06</speed>
  <fix>3d</fix>
</trkpt>
<trkpt lat="-27.2736563" lon="151.2894419">
  <ele>372.53</ele>
  <time>2026-09-01T19:57:34Z</time>
  <course>105.51</course>
  <speed>12.807829636593391</speed>
  <fix>3d</fix>
</trkpt>
<trkpt lat="-27.2736532" lon="151.2894297">
  <ele>372.46</ele>
  <time>2026-09-01T19:57:34Z</time>
  <course>105.48</course>
  <speed>12.86</speed>
  <fix>3d</fix>
</trkpt>
<trkpt lat="-27.2736594" lon="151.2894542">
  <ele>372.56</ele>
  <time>2026-09-01T19:57:34Z</time>
  <course>105.51</course>
  <speed>12.703448350743194</speed>
  <fix>3d</fix>
</trkpt>
<trkpt lat="-27.2736532" lon="151.2894297">
  <ele>372.46</ele>
  <time>2026-09-01T19:57:34Z</time>
  <course>105.48</course>
  <speed>12.86</speed>
  <fix>3d</fix>
</trkpt>
<trkpt lat="-27.2736624" lon="151.2894665">
  <ele>372.58</ele>
  <time>2026-09-01T19:57:34Z</time>
  <course>105.5</course>
  <speed>12.589432076150219</speed>
  <fix>3d</fix>
</trkpt>
<trkpt lat="-27.2736593" lon="151.2894546">
  <ele>372.51</ele>
  <time>2026-09-01T19:57:34Z</time>
  <course>105.47</course>
  <speed>12.66</speed>
  <fix>3d</fix>
</trkpt>
<trkpt lat="-27.2736654" lon="151.2894787">
  <ele>372.61</ele>
  <time>2026-09-01T19:57:34Z</time>
  <course>105.5</course>
  <speed>12.475415824733059</speed>
  <fix>3d</fix>
</trkpt>
<trkpt lat="-27.2736593" lon="151.2894546">
  <ele>372.51</ele>
  <time>2026-09-01T19:57:34Z</time>
  <course>105.47</course>
  <speed>12.66</speed>
  <fix>3d</fix>
</trkpt>
<trkpt lat="-27.2736684" lon="151.2894908">
  <ele>372.64</ele>
  <time>2026-09-01T19:57:34Z</time>
  <course>105.5</course>
  <speed>12.361399597133005</speed>
  <fix>3d</fix>
</trkpt>
<trkpt lat="-27.2736654" lon="151.2894789">
  <ele>372.56</ele>
  <time>2026-09-01T19:57:34Z</time>
  <course>105.47</course>
  <speed>12.44</speed>
  <fix>3d</fix>
</trkpt>
<trkpt lat="-27.2736713" lon="151.2895028">
  <ele>372.66</ele>
  <time>2026-09-01T19:57:34Z</time>
  <course>105.5</course>
  <speed>12.237748976016789</speed>
  <fix>3d</fix>
</trkpt>
<trkpt lat="-27.2736654" lon="151.2894789">
  <ele>372.56</ele>
  <time>2026-09-01T19:57:34Z</time>
  <course>105.47</course>
  <speed>12.44</speed>
  <fix>3d</fix>
</trkpt>
<trkpt lat="-27.2736742" lon="151.2895146">
  <ele>372.69</ele>
  <time>2026-09-01T19:57:34Z</time>
  <course>105.5</course>
  <speed>12.101784992305886</speed>
  <fix>3d</fix>
</trkpt>
<trkpt lat="-27.2736712" lon="151.289503">
  <ele>372.62</ele>
  <time>2026-09-01T19:57:34Z</time>
  <course>105.48</course>
  <speed>12.2</speed>
  <fix>3d</fix>
</trkpt>
<trkpt lat="-27.2736771" lon="151.2895264">
  <ele>372.73</ele>
  <time>2026-09-01T19:57:34Z</time>
  <course>105.5</course>
  <speed>11.96850032376655</speed>
  <fix>3d</fix>
</trkpt>
<trkpt lat="-27.2736712" lon="151.289503">
  <ele>372.62</ele>
  <time>2026-09-01T19:57:34Z</time>
  <course>105.48</course>
  <speed>12.2</speed>
  <fix>3d</fix>
</trkpt>
<trkpt lat="-27.27368" lon="151.289538">
  <ele>372.76</ele>
  <time>2026-09-01T19:57:34Z</time>
  <course>105.49</course>
  <speed>11.832535653865573</speed>
  <fix>3d</fix>
</trkpt>
<trkpt lat="-27.273677" lon="151.2895265">
  <ele>372.68</ele>
  <time>2026-09-01T19:57:34Z</time>
  <course>105.48</course>
  <speed>11.93</speed>
  <fix>3d</fix>
</trkpt>
<trkpt lat="-27.2736828" lon="151.2895495">
  <ele>372.79</ele>
  <time>2026-09-01T19:57:34Z</time>
  <course>105.49</course>
  <speed>11.696572147428494</speed>
  <fix>3d</fix>
</trkpt>
<trkpt lat="-27.273677" lon="151.2895265">
  <ele>372.68</ele>
  <time>2026-09-01T19:57:34Z</time>
  <course>105.48</course>
  <speed>11.93</speed>
  <fix>3d</fix>
</trkpt>
<trkpt lat="-27.2736856" lon="151.2895608">
  <ele>372.83</ele>
  <time>2026-09-01T19:57:34Z</time>
  <course>105.49</course>
  <speed>11.550973984907072</speed>
  <fix>3d</fix>
</trkpt>
<trkpt lat="-27.2736827" lon="151.2895495">
  <ele>372.74</ele>
  <time>2026-09-01T19:57:34Z</time>
  <course>105.48</course>
  <speed>11.66</speed>
  <fix>3d</fix>
</trkpt>
<trkpt lat="-27.2736883" lon="151.289572">
  <ele>372.85</ele>
  <time>2026-09-01T19:57:34Z</time>
  <course>105.49</course>
  <speed>11.405375925413418</speed>
  <fix>3d</fix>
</trkpt>
<trkpt lat="-27.2736827" lon="151.2895495">
  <ele>372.74</ele>
  <time>2026-09-01T19:57:34Z</time>
  <course>105.48</course>
  <speed>11.66</speed>
  <fix>3d</fix>
</trkpt>
<trkpt lat="-27.2736911" lon="151.2895831">
  <ele>372.88</ele>
  <time>2026-09-01T19:57:34Z</time>
  <course>105.49</course>
  <speed>11.262455327325387</speed>
  <fix>3d</fix>
</trkpt>
<trkpt lat="-27.2736882" lon="151.2895719">
  <ele>372.8</ele>
  <time>2026-09-01T19:57:34Z</time>
  <course>105.49</course>
  <speed>11.37</speed>
  <fix>3d</fix>
</trkpt>
<trkpt lat="-27.2736937" lon="151.289594">
  <ele>372.91</ele>
  <time>2026-09-01T19:57:34Z</time>
  <course>105.48</course>
  <speed>11.116856570092104</speed>
  <fix>3d</fix>
</trkpt>
<trkpt lat="-27.2736882" lon="151.2895719">
  <ele>372.8</ele>
  <time>2026-09-01T19:57:34Z</time>
  <course>105.49</course>
  <speed>11.37</speed>
  <fix>3d</fix>
</trkpt>
<trkpt lat="-27.2736964" lon="151.2896047">
  <ele>372.93</ele>
  <time>2026-09-01T19:57:34Z</time>
  <course>105.48</course>
  <speed>10.971257904178536</speed>
  <fix>3d</fix>
</trkpt>
<trkpt lat="-27.2736936" lon="151.2895938">
  <ele>372.85</ele>
  <time>2026-09-01T19:57:34Z</time>
  <course>105.49</course>
  <speed>11.08</speed>
  <fix>3d</fix>
</trkpt>
<trkpt lat="-27.273699" lon="151.2896153">
  <ele>372.95</ele>
  <time>2026-09-01T19:57:34Z</time>
  <course>105.48</course>
  <speed>10.825659333269268</speed>
  <fix>3d</fix>
</trkpt>
<trkpt lat="-27.2736936" lon="151.2895938">
  <ele>372.85</ele>
  <time>2026-09-01T19:57:34Z</time>
  <course>105.49</course>
  <speed>11.08</speed>
  <fix>3d</fix>
</trkpt>
<trkpt lat="-27.2737015" lon="151.2896257">
  <ele>372.97</ele>
  <time>2026-09-01T19:57:34Z</time>
  <course>105.47</course>
  <speed>10.689695973225804</speed>
  <fix>3d</fix>
</trkpt>
<trkpt lat="-27.2736989" lon="151.2896151">
  <ele>372.89</ele>
  <time>2026-09-01T19:57:34Z</time>
  <course>105.49</course>
  <speed>10.79</speed>
  <fix>3d</fix>
</trkpt>
<trkpt lat="-27.2737041" lon="151.289636">
  <ele>372.98</ele>
  <time>2026-09-01T19:57:34Z</time>
  <course>105.46</course>
  <speed>10.544097875114778</speed>
  <fix>3d</fix>
</trkpt>
<trkpt lat="-27.2736989" lon="151.2896151">
  <ele>372.89</ele>
  <time>2026-09-01T19:57:34Z</time>
  <course>105.49</course>
  <speed>10.79</speed>
  <fix>3d</fix>
</trkpt>
<trkpt lat="-27.2737066" lon="151.2896461">
  <ele>372.99</ele>
  <time>2026-09-01T19:57:34Z</time>
  <course>105.46</course>
  <speed>10.39849989181132</speed>
  <fix>3d</fix>
</trkpt>
<trkpt lat="-27.273704" lon="151.2896359">
  <ele>372.92</ele>
  <time>2026-09-01T19:57:34Z</time>
  <course>105.5</course>
  <speed>10.51</speed>
  <fix>3d</fix>
</trkpt>
<trkpt lat="-27.273709" lon="151.289656">
  <ele>373.01</ele>
  <time>2026-09-01T19:57:34Z</time>
  <course>105.45</course>
  <speed>10.243266080699065</speed>
  <fix>3d</fix>
</trkpt>
<trkpt lat="-27.273704" lon="151.2896359">
  <ele>372.92</ele>
  <time>2026-09-01T19:57:34Z</time>
  <course>105.5</course>
  <speed>10.51</speed>
  <fix>3d</fix>
</trkpt>
<trkpt lat="-27.2737114" lon="151.2896659">
  <ele>373.02</ele>
  <time>2026-09-01T19:57:34Z</time>
  <course>105.44</course>
  <speed>10.088032513825478</speed>
  <fix>3d</fix>
</trkpt>
<trkpt lat="-27.2737089" lon="151.2896561">
  <ele>372.95</ele>
  <time>2026-09-01T19:57:34Z</time>
  <course>105.5</course>
  <speed>10.21</speed>
  <fix>3d</fix>
</trkpt>
<trkpt lat="-27.2737138" lon="151.2896755">
  <ele>373.05</ele>
  <time>2026-09-01T19:57:34Z</time>
  <course>105.44</course>
  <speed>9.923164817738341</speed>
  <fix>3d</fix>
</trkpt>
<trkpt lat="-27.2737089" lon="151.2896561">
  <ele>372.95</ele>
  <time>2026-09-01T19:57:34Z</time>
  <course>105.5</course>
  <speed>10.21</speed>
  <fix>3d</fix>
</trkpt>
<trkpt lat="-27.2737161" lon="151.289685">
  <ele>373.07</ele>
  <time>2026-09-01T19:57:34Z</time>
  <course>105.43</course>
  <speed>9.755618893745286</speed>
  <fix>3d</fix>
</trkpt>
<trkpt lat="-27.2737138" lon="151.2896757">
  <ele>372.98</ele>
  <time>2026-09-01T19:57:34Z</time>
  <course>105.49</course>
  <speed>9.9</speed>
  <fix>3d</fix>
</trkpt>
<trkpt lat="-27.2737184" lon="151.2896944">
  <ele>373.1</ele>
  <time>2026-09-01T19:57:34Z</time>
  <course>105.43</course>
  <speed>9.588075927942999</speed>
  <fix>3d</fix>
</trkpt>
<trkpt lat="-27.2737138" lon="151.2896757">
  <ele>372.98</ele>
  <time>2026-09-01T19:57:34Z</time>
  <course>105.49</course>
  <speed>9.9</speed>
  <fix>3d</fix>
</trkpt>
<trkpt lat="-27.2737207" lon="151.2897036">
  <ele>373.13</ele>
  <time>2026-09-01T19:57:34Z</time>
  <course>105.42</course>
  <speed>9.413569992303664</speed>
  <fix>3d</fix>
</trkpt>
<trkpt lat="-27.2737185" lon="151.2896946">
  <ele>373.03</ele>
  <time>2026-09-01T19:57:34Z</time>
  <course>105.49</course>
  <speed>9.57</speed>
  <fix>3d</fix>
</trkpt>
<trkpt lat="-27.2737229" lon="151.2897127">
  <ele>373.16</ele>
  <time>2026-09-01T19:57:34Z</time>
  <course>105.42</course>
  <speed>9.236389987435567</speed>
  <fix>3d</fix>
</trkpt>
<trkpt lat="-27.2737185" lon="151.2896946">
  <ele>373.03</ele>
  <time>2026-09-01T19:57:34Z</time>
  <course>105.49</course>
  <speed>9.57</speed>
  <fix>3d</fix>
</trkpt>
<trkpt lat="-27.2737251" lon="151.2897216">
  <ele>373.2</ele>
  <time>2026-09-01T19:57:34Z</time>
  <course>105.42</course>
  <speed>9.049574575636138</speed>
  <fix>3d</fix>
</trkpt>
<trkpt lat="-27.2737229" lon="151.2897129">
  <ele>373.09</ele>
  <time>2026-09-01T19:57:34Z</time>
  <course>105.49</course>
  <speed>9.22</speed>
  <fix>3d</fix>
</trkpt>
<trkpt lat="-27.2737273" lon="151.2897304">
  <ele>373.24</ele>
  <time>2026-09-01T19:57:34Z</time>
  <course>105.41</course>
  <speed>8.862759164052694</speed>
  <fix>3d</fix>
</trkpt>
<trkpt lat="-27.2737229" lon="151.2897129">
  <ele>373.09</ele>
  <time>2026-09-01T19:57:34Z</time>
  <course>105.49</course>
  <speed>9.22</speed>
  <fix>3d</fix>
</trkpt>
<trkpt lat="-27.2737294" lon="151.289739">
  <ele>373.28</ele>
  <time>2026-09-01T19:57:34Z</time>
  <course>105.41</course>
  <speed>8.675943752699183</speed>
  <fix>3d</fix>
</trkpt>
<trkpt lat="-27.2737273" lon="151.2897305">
  <ele>373.16</ele>
  <time>2026-09-01T19:57:34Z</time>
  <course>105.49</course>
  <speed>8.85</speed>
  <fix>3d</fix>
</trkpt>
<trkpt lat="-27.2737315" lon="151.2897473">
  <ele>373.32</ele>
  <time>2026-09-01T19:57:34Z</time>
  <course>105.41</course>
  <speed>8.47682133821399</speed>
  <fix>3d</fix>
</trkpt>
<trkpt lat="-27.2737273" lon="151.2897305">
  <ele>373.16</ele>
  <time>2026-09-01T19:57:34Z</time>
  <course>105.49</course>
  <speed>8.85</speed>
  <fix>3d</fix>
</trkpt>
<trkpt lat="-27.2737335" lon="151.2897556">
  <ele>373.36</ele>
  <time>2026-09-01T19:57:34Z</time>
  <course>105.41</course>
  <speed>8.290006031360894</speed>
  <fix>3d</fix>
</trkpt>
<trkpt lat="-27.2737314" lon="151.2897474">
  <ele>373.24</ele>
  <time>2026-09-01T19:57:34Z</time>
  <course>105.48</course>
  <speed>8.47</speed>
  <fix>3d</fix>
</trkpt>
<trkpt lat="-27.2737355" lon="151.2897636">
  <ele>373.4</ele>
  <time>2026-09-01T19:57:34Z</time>
  <course>105.4</course>
  <speed>8.09355298988028</speed>
  <fix>3d</fix>
</trkpt>
<trkpt lat="-27.2737314" lon="151.2897474">
  <ele>373.24</ele>
  <time>2026-09-01T19:57:34Z</time>
  <course>105.48</course>
  <speed>8.47</speed>
  <fix>3d</fix>
</trkpt>
<trkpt lat="-27.2737374" lon="151.2897714">
  <ele>373.43</ele>
  <time>2026-09-01T19:57:34Z</time>
  <course>105.4</course>
  <speed>7.897100733813644</speed>
  <fix>3d</fix>
</trkpt>
<trkpt lat="-27.2737354" lon="151.2897635">
  <ele>373.31</ele>
  <time>2026-09-01T19:57:34Z</time>
  <course>105.48</course>
  <speed>8.08</speed>
  <fix>3d</fix>
</trkpt>
<trkpt lat="-27.2737392" lon="151.289779">
  <ele>373.47</ele>
  <time>2026-09-01T19:57:34Z</time>
  <course>105.39</course>
  <speed>7.697980254586264</speed>
  <fix>3d</fix>
</trkpt>
<trkpt lat="-27.2737354" lon="151.2897635">
  <ele>373.31</ele>
  <time>2026-09-01T19:57:34Z</time>
  <course>105.48</course>
  <speed>8.08</speed>
  <fix>3d</fix>
</trkpt>
<trkpt lat="-27.2737411" lon="151.2897864">
  <ele>373.49</ele>
  <time>2026-09-01T19:57:34Z</time>
  <course>105.39</course>
  <speed>7.501526511317547</speed>
  <fix>3d</fix>
</trkpt>
<trkpt lat="-27.2737392" lon="151.2897788">
  <ele>373.38</ele>
  <time>2026-09-01T19:57:34Z</time>
  <course>105.47</course>
  <speed>7.68</speed>
  <fix>3d</fix>
</trkpt>
<trkpt lat="-27.2737428" lon="151.2897936">
  <ele>373.52</ele>
  <time>2026-09-01T19:57:34Z</time>
  <course>105.39</course>
  <speed>7.305073579369341</speed>
  <fix>3d</fix>
</trkpt>
<trkpt lat="-27.2737392" lon="151.2897788">
  <ele>373.38</ele>
  <time>2026-09-01T19:57:34Z</time>
  <course>105.47</course>
  <speed>7.68</speed>
  <fix>3d</fix>
</trkpt>
<trkpt lat="-27.2737445" lon="151.2898006">
  <ele>373.54</ele>
  <time>2026-09-01T19:57:34Z</time>
  <course>105.38</course>
  <speed>7.115595547809051</speed>
  <fix>3d</fix>
</trkpt>
<trkpt lat="-27.2737428" lon="151.2897935">
  <ele>373.44</ele>
  <time>2026-09-01T19:57:34Z</time>
  <course>105.47</course>
  <speed>7.29</speed>
  <fix>3d</fix>
</trkpt>
<trkpt lat="-27.2737462" lon="151.2898074">
  <ele>373.56</ele>
  <time>2026-09-01T19:57:34Z</time>
  <course>105.37</course>
  <speed>6.919140119986009</speed>
  <fix>3d</fix>
</trkpt>
<trkpt lat="-27.2737428" lon="151.2897935">
  <ele>373.44</ele>
  <time>2026-09-01T19:57:34Z</time>
  <course>105.47</course>
  <speed>7.29</speed>
  <fix>3d</fix>
</trkpt>
<trkpt lat="-27.2737478" lon="151.289814">
  <ele>373.56</ele>
  <time>2026-09-01T19:57:34Z</time>
  <course>105.37</course>
  <speed>6.732325007009094</speed>
  <fix>3d</fix>
</trkpt>
<trkpt lat="-27.2737462" lon="151.2898074">
  <ele>373.47</ele>
  <time>2026-09-01T19:57:34Z</time>
  <course>105.46</course>
  <speed>6.91</speed>
  <fix>3d</fix>
</trkpt>
<trkpt lat="-27.2737494" lon="151.2898204">
  <ele>373.53</ele>
  <time>2026-09-01T19:57:34Z</time>
  <course>105.36</course>
  <speed>6.513931224690663</speed>
  <fix>3d</fix>
</trkpt>
<trkpt lat="-27.2737462" lon="151.2898074">
  <ele>373.47</ele>
  <time>2026-09-01T19:57:34Z</time>
  <course>105.46</course>
  <speed>6.91</speed>
  <fix>3d</fix>
</trkpt>
<trkpt lat="-27.2737509" lon="151.2898265">
  <ele>373.43</ele>
  <time>2026-09-01T19:57:34Z</time>
  <course>105.36</course>
  <speed>6.140301295539169</speed>
  <fix>3d</fix>
</trkpt>
<trkpt lat="-27.2737494" lon="151.2898204">
  <ele>373.43</ele>
  <time>2026-09-01T19:57:34Z</time>
  <course>105.45</course>
  <speed>6.43</speed>
  <fix>3d</fix>
</trkpt>
<trkpt lat="-27.2737523" lon="151.2898322">
  <ele>373.29</ele>
  <time>2026-09-01T19:57:34Z</time>
  <course>105.38</course>
  <speed>5.633373767113273</speed>
  <fix>3d</fix>
</trkpt>
<trkpt lat="-27.2737494" lon="151.2898204">
  <ele>373.43</ele>
  <time>2026-09-01T19:57:34Z</time>
  <course>105.45</course>
  <speed>6.43</speed>
  <fix>3d</fix>
</trkpt>
<trkpt lat="-27.2737535" lon="151.2898373">
  <ele>373.13</ele>
  <time>2026-09-01T19:57:34Z</time>
  <course>105.42</course>
  <speed>5.060632371551998</speed>
  <fix>3d</fix>
</trkpt>
<trkpt lat="-27.2737523" lon="151.2898321">
  <ele>373.21</ele>
  <time>2026-09-01T19:57:34Z</time>
  <course>105.43</course>
  <speed>5.61</speed>
  <fix>3d</fix>
</trkpt>
<trkpt lat="-27.2737546" lon="151.2898419">
  <ele>372.95</ele>
  <time>2026-09-01T19:57:34Z</time>
  <course>105.48</course>
  <speed>4.4589684905816505</speed>
  <fix>3d</fix>
</trkpt>
<trkpt lat="-27.2737523" lon="151.2898321">
  <ele>373.21</ele>
  <time>2026-09-01T19:57:34Z</time>
  <course>105.43</course>
  <speed>5.61</speed>
  <fix>3d</fix>
</trkpt>
<trkpt lat="-27.2737556" lon="151.2898458">
  <ele>372.77</ele>
  <time>2026-09-01T19:57:34Z</time>
  <course>105.54</course>
  <speed>3.8476616275343134</speed>
  <fix>3d</fix>
</trkpt>
<trkpt lat="-27.2737547" lon="151.289842">
  <ele>372.88</ele>
  <time>2026-09-01T19:57:34Z</time>
  <course>105.41</course>
  <speed>4.47</speed>
  <fix>3d</fix>
</trkpt>
<trkpt lat="-27.2737565" lon="151.2898493">
  <ele>372.6</ele>
  <time>2026-09-01T19:57:34Z</time>
  <course>105.6</course>
  <speed>3.2652871236692187</speed>
  <fix>3d</fix>
</trkpt>
<trkpt lat="-27.2737547" lon="151.289842">
  <ele>372.88</ele>
  <time>2026-09-01T19:57:34Z</time>
  <course>105.41</course>
  <speed>4.47</speed>
  <fix>3d</fix>
</trkpt>
<trkpt lat="-27.2737572" lon="151.2898522">
  <ele>372.45</ele>
  <time>2026-09-01T19:57:34Z</time>
  <course>105.65</course>
  <speed>2.717130839691015</speed>
  <fix>3d</fix>
</trkpt>
<trkpt lat="-27.2737566" lon="151.2898496">
  <ele>372.53</ele>
  <time>2026-09-01T19:57:34Z</time>
  <course>105.4</course>
  <speed>3.3</speed>
  <fix>3d</fix>
</trkpt>
<trkpt lat="-27.2737578" lon="151.2898546">
  <ele>372.31</ele>
  <time>2026-09-01T19:57:34Z</time>
  <course>105.69</course>
  <speed>2.2102036105300344</speed>
  <fix>3d</fix>
</trkpt>
<trkpt lat="-27.2737566" lon="151.2898496">
  <ele>372.53</ele>
  <time>2026-09-01T19:57:34Z</time>
  <course>105.4</course>
  <speed>3.3</speed>
  <fix>3d</fix>
</trkpt>
<trkpt lat="-27.2737582" lon="151.2898565">
  <ele>372.19</ele>
  <time>2026-09-01T19:57:34Z</time>
  <course>105.72</course>
  <speed>1.7637743619862492</speed>
  <fix>3d</fix>
</trkpt>
<trkpt lat="-27.2737579" lon="151.289855">
  <ele>372.24</ele>
  <time>2026-09-01T19:57:34Z</time>
  <course>105.45</course>
  <speed>2.25</speed>
  <fix>3d</fix>
</trkpt>
<trkpt lat="-27.2737586" lon="151.2898581">
  <ele>372.1</ele>
  <time>2026-09-01T19:57:34Z</time>
  <course>105.74</course>
  <speed>1.370875632579411</speed>
  <fix>3d</fix>
</trkpt>
<trkpt lat="-27.2737579" lon="151.289855">
  <ele>372.24</ele>
  <time>2026-09-01T19:57:34Z</time>
  <course>105.45</course>
  <speed>2.25</speed>
  <fix>3d</fix>
</trkpt>
<trkpt lat="-27.2737589" lon="151.2898593">
  <ele>372.05</ele>
  <time>2026-09-01T19:57:34Z</time>
  <course>105.76</course>
  <speed>1.0384603988597736</speed>
  <fix>3d</fix>
</trkpt>
<trkpt lat="-27.2737588" lon="151.2898585">
  <ele>372.03</ele>
  <time>2026-09-01T19:57:34Z</time>
  <course>105.7</course>
  <speed>1.4</speed>
  <fix>3d</fix>
</trkpt>
<trkpt lat="-27.2737592" lon="151.2898602">
  <ele>372.01</ele>
  <time>2026-09-01T19:57:34Z</time>
  <course>105.76</course>
  <speed>0.7596051605933176</speed>
  <fix>3d</fix>
</trkpt>
<trkpt lat="-27.2737588" lon="151.2898585">
  <ele>372.03</ele>
  <time>2026-09-01T19:57:34Z</time>
  <course>105.7</course>
  <speed>1.4</speed>
  <fix>3d</fix>
</trkpt>
<trkpt lat="-27.2737593" lon="151.2898608">
  <ele>372.01</ele>
  <time>2026-09-01T19:57:34Z</time>
  <course>105.76</course>
  <speed>0.5316013544000805</speed>
  <fix>3d</fix>
</trkpt>
<trkpt lat="-27.2737593" lon="151.2898606">
  <ele>371.94</ele>
  <time>2026-09-01T19:57:34Z</time>
  <course>106.49</course>
  <speed>0.77</speed>
  <fix>3d</fix>
</trkpt>
<trkpt lat="-27.2737595" lon="151.2898613">
  <ele>372.03</ele>
  <time>2026-09-01T19:57:34Z</time>
  <course>105.75</course>
  <speed>0.3668787265568828</speed>
  <fix>3d</fix>
</trkpt>
<trkpt lat="-27.2737593" lon="151.2898606">
  <ele>371.94</ele>
  <time>2026-09-01T19:57:34Z</time>
  <course>106.49</course>
  <speed>0.77</speed>
  <fix>3d</fix>
</trkpt>
<trkpt lat="-27.2737596" lon="151.2898616">
  <ele>372.07</ele>
  <time>2026-09-01T19:57:34Z</time>
  <course>105.75</course>
  <speed>0.2529822128134704</speed>
  <fix>3d</fix>
</trkpt>
<trkpt lat="-27.2737596" lon="151.2898616">
  <ele>371.96</ele>
  <time>2026-09-01T19:57:34Z</time>
  <course>108.91</course>
  <speed>0.37</speed>
  <fix>3d</fix>
</trkpt>
<trkpt lat="-27.2737596" lon="151.2898619">
  <ele>372.13</ele>
  <time>2026-09-01T19:57:34Z</time>
  <course>105.75</course>
  <speed>0.17464249196572978</speed>
  <fix>3d</fix>
</trkpt>
<trkpt lat="-27.2737596" lon="151.2898616">
  <ele>371.96</ele>
  <time>2026-09-01T19:57:34Z</time>
  <course>108.91</course>
  <speed>0.37</speed>
  <fix>3d</fix>
</trkpt>
<trkpt lat="-27.2737597" lon="151.289862">
  <ele>372.2</ele>
  <time>2026-09-01T19:57:34Z</time>
  <course>105.75</course>
  <speed>0.1341640786499874</speed>
  <fix>3d</fix>
</trkpt>
<trkpt lat="-27.2737598" lon="151.2898621">
  <ele>372.06</ele>
  <time>2026-09-01T19:57:34Z</time>
  <course>116.01</course>
  <speed>0.16</speed>
  <fix>3d</fix>
</trkpt>
<trkpt lat="-27.2737598" lon="151.2898622">
  <ele>372.28</ele>
  <time>2026-09-01T19:57:34Z</time>
  <course>105.77</course>
  <speed>0.1118033988749895</speed>
  <fix>3d</fix>
</trkpt>
<trkpt lat="-27.2737598" lon="151.2898621">
  <ele>372.06</ele>
  <time>2026-09-01T19:57:34Z</time>
  <course>116.01</course>
  <speed>0.16</speed>
  <fix>3d</fix>
</trkpt>
<trkpt lat="-27.2737598" lon="151.2898623">
  <ele>372.35</ele>
  <time>2026-09-01T19:57:34Z</time>
  <course>105.79</course>
  <speed>0.09433981132056603</speed>
  <fix>3d</fix>
</trkpt>
<trkpt lat="-27.2737599" lon="151.2898623">
  <ele>372.2</ele>
  <time>2026-09-01T19:57:34Z</time>
  <course>129.93</course>
  <speed>0.08</speed>
  <fix>3d</fix>
</trkpt>
<trkpt lat="-27.2737599" lon="151.2898623">
  <ele>372.42</ele>
  <time>2026-09-01T19:57:34Z</time>
  <course>105.83</course>
  <speed>0.09433981132056603</speed>
  <fix>3d</fix>
</trkpt>
<trkpt lat="-27.2737599" lon="151.2898623">
  <ele>372.2</ele>
  <time>2026-09-01T19:57:34Z</time>
  <course>129.93</course>
  <speed>0.08</speed>
  <fix>3d</fix>
</trkpt>
<trkpt lat="-27.2737599" lon="151.2898624">
  <ele>372.49</ele>
  <time>2026-09-01T19:57:34Z</time>
  <course>105.87</course>
  <speed>0.08602325267042626</speed>
  <fix>3d</fix>
</trkpt>
<trkpt lat="-27.27376" lon="151.2898624">
  <ele>372.35</ele>
  <time>2026-09-01T19:57:34Z</time>
  <course>142.04</course>
  <speed>0.06</speed>
  <fix>3d</fix>
</trkpt>
<trkpt lat="-27.27376" lon="151.2898625">
  <ele>372.55</ele>
  <time>2026-09-01T19:57:34Z</time>
  <course>105.9</course>
  <speed>0.08602325267042626</speed>
  <fix>3d</fix>
</trkpt>
<trkpt lat="-27.27376" lon="151.2898624">
  <ele>372.35</ele>
  <time>2026-09-01T19:57:34Z</time>
  <course>142.04</course>
  <speed>0.06</speed>
  <fix>3d</fix>
</trkpt>
<trkpt lat="-27.27376" lon="151.2898626">
  <ele>372.6</ele>
  <time>2026-09-01T19:57:34Z</time>
  <course>105.92</course>
  <speed>0.09433981132056603</speed>
  <fix>3d</fix>
</trkpt>
<trkpt lat="-27.2737601" lon="151.2898625">
  <ele>372.48</ele>
  <time>2026-09-01T19:57:34Z</time>
  <course>146.09</course>
  <speed>0.06</speed>
  <fix>3d</fix>
</trkpt>
<trkpt lat="-27.2737601" lon="151.2898626">
  <ele>372.63</ele>
  <time>2026-09-01T19:57:34Z</time>
  <course>105.92</course>
  <speed>0.09433981132056603</speed>
  <fix>3d</fix>
</trkpt>
<trkpt lat="-27.2737601" lon="151.2898625">
  <ele>372.48</ele>
  <time>2026-09-01T19:57:34Z</time>
  <course>146.09</course>
  <speed>0.06</speed>
  <fix>3d</fix>
</trkpt>
<trkpt lat="-27.2737601" lon="151.2898627">
  <ele>372.66</ele>
  <time>2026-09-01T19:57:34Z</time>
  <course>105.9</course>
  <speed>0.10295630140987001</speed>
  <fix>3d</fix>
</trkpt>
<trkpt lat="-27.2737601" lon="151.2898626">
  <ele>372.57</ele>
  <time>2026-09-01T19:57:34Z</time>
  <course>143.12</course>
  <speed>0.06</speed>
  <fix>3d</fix>
</trkpt>
<trkpt lat="-27.2737602" lon="151.2898628">
  <ele>372.68</ele>
  <time>2026-09-01T19:57:34Z</time>
  <course>105.86</course>
  <speed>0.11661903789690602</speed>
  <fix>3d</fix>
</trkpt>
<trkpt lat="-27.2737601" lon="151.2898626">
  <ele>372.57</ele>
  <time>2026-09-01T19:57:34Z</time>
  <course>143.12</course>
  <speed>0.06</speed>
  <fix>3d</fix>
</trkpt>
<trkpt lat="-27.2737603" lon="151.2898629">
  <ele>372.69</ele>
  <time>2026-09-01T19:57:34Z</time>
  <course>105.8</course>
  <speed>0.1341640786499874</speed>
  <fix>3d</fix>
</trkpt>
<trkpt lat="-27.2737602" lon="151.2898626">
  <ele>372.61</ele>
  <time>2026-09-01T19:57:34Z</time>
  <course>135.57</course>
  <speed>0.08</speed>
  <fix>3d</fix>
</trkpt>
<trkpt lat="-27.2737603" lon="151.289863">
  <ele>372.68</ele>
  <time>2026-09-01T19:57:34Z</time>
  <course>105.75</course>
  <speed>0.15652475842498528</speed>
  <fix>3d</fix>
</trkpt>
<trkpt lat="-27.2737602" lon="151.2898626">
  <ele>372.61</ele>
  <time>2026-09-01T19:57:34Z</time>
  <course>135.57</course>
  <speed>0.08</speed>
  <fix>3d</fix>
</trkpt>
<trkpt lat="-27.2737604" lon="151.2898632">
  <ele>372.67</ele>
  <time>2026-09-01T19:57:34Z</time>
  <course>105.71</course>
  <speed>0.18788294228055935</speed>
  <fix>3d</fix>
</trkpt>
<trkpt lat="-27.2737604" lon="151.2898628">
  <ele>372.61</ele>
  <time>2026-09-01T19:57:34Z</time>
  <course>127.23</course>
  <speed>0.12</speed>
  <fix>3d</fix>
</trkpt>
<trkpt lat="-27.2737605" lon="151.2898633">
  <ele>372.66</ele>
  <time>2026-09-01T19:57:34Z</time>
  <course>105.68</course>
  <speed>0.21540659228538014</speed>
  <fix>3d</fix>
</trkpt>
<trkpt lat="-27.2737604" lon="151.2898628">
  <ele>372.61</ele>
  <time>2026-09-01T19:57:34Z</time>
  <course>127.23</course>
  <speed>0.12</speed>
  <fix>3d</fix>
</trkpt>
<trkpt lat="-27.2737605" lon="151.2898635">
  <ele>372.64</ele>
  <time>2026-09-01T19:57:34Z</time>
  <course>105.66</course>
  <speed>0.24698178070456936</speed>
  <fix>3d</fix>
</trkpt>
<trkpt lat="-27.2737606" lon="151.2898631">
  <ele>372.59</ele>
  <time>2026-09-01T19:57:34Z</time>
  <course>120.68</course>
  <speed>0.18</speed>
  <fix>3d</fix>
</trkpt>
<trkpt lat="-27.2737606" lon="151.2898637">
  <ele>372.62</ele>
  <time>2026-09-01T19:57:34Z</time>
  <course>105.66</course>
  <speed>0.291547594742265</speed>
  <fix>3d</fix>
</trkpt>
<trkpt lat="-27.2737606" lon="151.2898631">
  <ele>372.59</ele>
  <time>2026-09-01T19:57:34Z</time>
  <course>120.68</course>
  <speed>0.18</speed>
  <fix>3d</fix>
</trkpt>
<trkpt lat="-27.2737607" lon="151.289864">
  <ele>372.6</ele>
  <time>2026-09-01T19:57:34Z</time>
  <course>105.67</course>
  <speed>0.3417601498127012</speed>
  <fix>3d</fix>
</trkpt>
<trkpt lat="-27.2737608" lon="151.2898634">
  <ele>372.55</ele>
  <time>2026-09-01T19:57:34Z</time>
  <course>116.23</course>
  <speed>0.25</speed>
  <fix>3d</fix>
</trkpt>
<trkpt lat="-27.2737609" lon="151.2898643">
  <ele>372.58</ele>
  <time>2026-09-01T19:57:34Z</time>
  <course>105.69</course>
  <speed>0.3921734310225516</speed>
  <fix>3d</fix>
</trkpt>
<trkpt lat="-27.2737608" lon="151.2898634">
  <ele>372.55</ele>
  <time>2026-09-01T19:57:34Z</time>
  <course>116.23</course>
  <speed>0.25</speed>
  <fix>3d</fix>
</trkpt>
<trkpt lat="-27.273761" lon="151.2898647">
  <ele>372.56</ele>
  <time>2026-09-01T19:57:34Z</time>
  <course>105.71</course>
  <speed>0.4427188724235731</speed>
  <fix>3d</fix>
</trkpt>
<trkpt lat="-27.273761" lon="151.289864">
  <ele>372.51</ele>
  <time>2026-09-01T19:57:34Z</time>
  <course>113.27</course>
  <speed>0.35</speed>
  <fix>3d</fix>
</trkpt>
<trkpt lat="-27.2737612" lon="151.2898651">
  <ele>372.55</ele>
  <time>2026-09-01T19:57:35Z</time>
  <course>105.73</course>
  <speed>0.49648766349225637</speed>
  <fix>3d</fix>
</trkpt>
<trkpt lat="-27.273761" lon="151.289864">
  <ele>372.51</ele>
  <time>2026-09-01T19:57:35Z</time>
  <course>113.27</course>
  <speed>0.35</speed>
  <fix>3d</fix>
</trkpt>
<trkpt lat="-27.2737613" lon="151.2898656">
  <ele>372.53</ele>
  <time>2026-09-01T19:57:35Z</time>
  <course>105.75</course>
  <speed>0.5565968020030299</speed>
  <fix>3d</fix>
</trkpt>
<trkpt lat="-27.2737612" lon="151.2898648">
  <ele>372.47</ele>
  <time>2026-09-01T19:57:35Z</time>
  <course>111.27</course>
  <speed>0.46</speed>
  <fix>3d</fix>
</trkpt>
<trkpt lat="-27.2737615" lon="151.2898661">
  <ele>372.53</ele>
  <time>2026-09-01T19:57:35Z</time>
  <course>105.75</course>
  <speed>0.6198386886924694</speed>
  <fix>3d</fix>
</trkpt>
<trkpt lat="-27.2737612" lon="151.2898648">
  <ele>372.47</ele>
  <time>2026-09-01T19:57:35Z</time>
  <course>111.27</course>
  <speed>0.46</speed>
  <fix>3d</fix>
</trkpt>
<trkpt lat="-27.2737617" lon="151.2898667">
  <ele>372.52</ele>
  <time>2026-09-01T19:57:35Z</time>
  <course>105.75</course>
  <speed>0.6800735254367721</speed>
  <fix>3d</fix>
</trkpt>
<trkpt lat="-27.2737616" lon="151.2898658">
  <ele>372.45</ele>
  <time>2026-09-01T19:57:35Z</time>
  <course>109.85</course>
  <speed>0.58</speed>
  <fix>3d</fix>
</trkpt>
<trkpt lat="-27.2737619" lon="151.2898673">
  <ele>372.52</ele>
  <time>2026-09-01T19:57:35Z</time>
  <course>105.75</course>
  <speed>0.7433034373659253</speed>
  <fix>3d</fix>
</trkpt>
<trkpt lat="-27.2737616" lon="151.2898658">
  <ele>372.45</ele>
  <time>2026-09-01T19:57:35Z</time>
  <course>109.85</course>
  <speed>0.58</speed>
  <fix>3d</fix>
</trkpt>
<trkpt lat="-27.2737621" lon="151.289868">
  <ele>372.53</ele>
  <time>2026-09-01T19:57:35Z</time>
  <course>105.74</course>
  <speed>0.7940403012442127</speed>
  <fix>3d</fix>
</trkpt>
<trkpt lat="-27.273762" lon="151.289867">
  <ele>372.45</ele>
  <time>2026-09-01T19:57:35Z</time>
  <course>108.83</course>
  <speed>0.7</speed>
  <fix>3d</fix>
</trkpt>
<trkpt lat="-27.2737623" lon="151.2898688">
  <ele>372.53</ele>
  <time>2026-09-01T19:57:35Z</time>
  <course>105.74</course>
  <speed>0.8544003745317531</speed>
  <fix>3d</fix>
</trkpt>
<trkpt lat="-27.273762" lon="151.289867">
  <ele>372.45</ele>
  <time>2026-09-01T19:57:35Z</time>
  <course>108.83</course>
  <speed>0.7</speed>
  <fix>3d</fix>
</trkpt>
<trkpt lat="-27.2737625" lon="151.2898696">
  <ele>372.54</ele>
  <time>2026-09-01T19:57:35Z</time>
  <course>105.73</course>
  <speed>0.9176055797563569</speed>
  <fix>3d</fix>
</trkpt>
<trkpt lat="-27.2737624" lon="151.2898685">
  <ele>372.47</ele>
  <time>2026-09-01T19:57:35Z</time>
  <course>108.1</course>
  <speed>0.82</speed>
  <fix>3d</fix>
</trkpt>
<trkpt lat="-27.2737628" lon="151.2898705">
  <ele>372.56</ele>
  <time>2026-09-01T19:57:35Z</time>
  <course>105.73</course>
  <speed>0.9684007434941384</speed>
  <fix>3d</fix>
</trkpt>
<trkpt lat="-27.2737624" lon="151.2898685">
  <ele>372.47</ele>
  <time>2026-09-01T19:57:35Z</time>
  <course>108.1</course>
  <speed>0.82</speed>
  <fix>3d</fix>
</trkpt>
<trkpt lat="-27.273763" lon="151.2898714">
  <ele>372.57</ele>
  <time>2026-09-01T19:57:35Z</time>
  <course>105.72</course>
  <speed>1.0192153844992726</speed>
  <fix>3d</fix>
</trkpt>
<trkpt lat="-27.2737628" lon="151.2898702">
  <ele>372.49</ele>
  <time>2026-09-01T19:57:35Z</time>
  <course>107.53</course>
  <speed>0.93</speed>
  <fix>3d</fix>
</trkpt>
<trkpt lat="-27.2737633" lon="151.2898724">
  <ele>372.58</ele>
  <time>2026-09-01T19:57:35Z</time>
  <course>105.72</course>
  <speed>1.0700467279516348</speed>
  <fix>3d</fix>
</trkpt>
<trkpt lat="-27.2737628" lon="151.2898702">
  <ele>372.49</ele>
  <time>2026-09-01T19:57:35Z</time>
  <course>107.53</course>
  <speed>0.93</speed>
  <fix>3d</fix>
</trkpt>
<trkpt lat="-27.2737636" lon="151.2898735">
  <ele>372.59</ele>
  <time>2026-09-01T19:57:35Z</time>
  <course>105.72</course>
  <speed>1.1208925015361644</speed>
  <fix>3d</fix>
</trkpt>
<trkpt lat="-27.2737634" lon="151.2898721">
  <ele>372.51</ele>
  <time>2026-09-01T19:57:35Z</time>
  <course>107.09</course>
  <speed>1.04</speed>
  <fix>3d</fix>
</trkpt>
<trkpt lat="-27.2737639" lon="151.2898745">
  <ele>372.6</ele>
  <time>2026-09-01T19:57:35Z</time>
  <course>105.72</course>
  <speed>1.1621101496846158</speed>
  <fix>3d</fix>
</trkpt>
<trkpt lat="-27.2737634" lon="151.2898721">
  <ele>372.51</ele>
  <time>2026-09-01T19:57:35Z</time>
  <course>107.09</course>
  <speed>1.04</speed>
  <fix>3d</fix>
</trkpt>
<trkpt lat="-27.2737642" lon="151.2898757">
  <ele>372.6</ele>
  <time>2026-09-01T19:57:35Z</time>
  <course>105.72</course>
  <speed>1.2033287165193058</speed>
  <fix>3d</fix>
</trkpt>
<trkpt lat="-27.273764" lon="151.2898741">
  <ele>372.52</ele>
  <time>2026-09-01T19:57:35Z</time>
  <course>106.72</course>
  <speed>1.13</speed>
  <fix>3d</fix>
</trkpt>
<trkpt lat="-27.2737645" lon="151.2898768">
  <ele>372.6</ele>
  <time>2026-09-01T19:57:35Z</time>
  <course>105.73</course>
  <speed>1.2445481107614924</speed>
  <fix>3d</fix>
</trkpt>
<trkpt lat="-27.273764" lon="151.2898741">
  <ele>372.52</ele>
  <time>2026-09-01T19:57:35Z</time>
  <course>106.72</course>
  <speed>1.13</speed>
  <fix>3d</fix>
</trkpt>
<trkpt lat="-27.2737648" lon="151.289878">
  <ele>372.61</ele>
  <time>2026-09-01T19:57:35Z</time>
  <course>105.73</course>
  <speed>1.2761269529321917</speed>
  <fix>3d</fix>
</trkpt>
<trkpt lat="-27.2737646" lon="151.2898765">
  <ele>372.53</ele>
  <time>2026-09-01T19:57:35Z</time>
  <course>106.4</course>
  <speed>1.21</speed>
  <fix>3d</fix>
</trkpt>
<trkpt lat="-27.2737651" lon="151.2898792">
  <ele>372.61</ele>
  <time>2026-09-01T19:57:35Z</time>
  <course>105.72</course>
  <speed>1.3050670480860362</speed>
  <fix>3d</fix>
</trkpt>
<trkpt lat="-27.2737646" lon="151.2898765">
  <ele>372.53</ele>
  <time>2026-09-01T19:57:35Z</time>
  <course>106.4</course>
  <speed>1.21</speed>
  <fix>3d</fix>
</trkpt>
<trkpt lat="-27.2737654" lon="151.2898805">
  <ele>372.61</ele>
  <time>2026-09-01T19:57:35Z</time>
  <course>105.71</course>
  <speed>1.3269890730522238</speed>
  <fix>3d</fix>
</trkpt>
<trkpt lat="-27.2737652" lon="151.2898789">
  <ele>372.54</ele>
  <time>2026-09-01T19:57:35Z</time>
  <course>106.13</course>
  <speed>1.27</speed>
  <fix>3d</fix>
</trkpt>
<trkpt lat="-27.2737658" lon="151.2898817">
  <ele>372.61</ele>
  <time>2026-09-01T19:57:35Z</time>
  <course>105.71</course>
  <speed>1.346291201783626</speed>
  <fix>3d</fix>
</trkpt>
<trkpt lat="-27.2737652" lon="151.2898789">
  <ele>372.54</ele>
  <time>2026-09-01T19:57:35Z</time>
  <course>106.13</course>
  <speed>1.27</speed>
  <fix>3d</fix>
</trkpt>
<trkpt lat="-27.2737661" lon="151.2898831">
  <ele>372.61</ele>
  <time>2026-09-01T19:57:35Z</time>
  <course>105.71</course>
  <speed>1.3656134152826707</speed>
  <fix>3d</fix>
</trkpt>
<trkpt lat="-27.2737658" lon="151.2898814">
  <ele>372.54</ele>
  <time>2026-09-01T19:57:35Z</time>
  <course>105.89</course>
  <speed>1.32</speed>
  <fix>3d</fix>
</trkpt>
<trkpt lat="-27.2737664" lon="151.2898844">
  <ele>372.61</ele>
  <time>2026-09-01T19:57:35Z</time>
  <course>105.7</course>
  <speed>1.375281789307195</speed>
  <fix>3d</fix>
</trkpt>
<trkpt lat="-27.2737658" lon="151.2898814">
  <ele>372.54</ele>
  <time>2026-09-01T19:57:35Z</time>
  <course>105.89</course>
  <speed>1.32</speed>
  <fix>3d</fix>
</trkpt>
<trkpt lat="-27.2737667" lon="151.2898857">
  <ele>372.61</ele>
  <time>2026-09-01T19:57:35Z</time>
  <course>105.7</course>
  <speed>1.3849548729110273</speed>
  <fix>3d</fix>
</trkpt>
<trkpt lat="-27.2737665" lon="151.289884">
  <ele>372.54</ele>
  <time>2026-09-01T19:57:35Z</time>
  <course>105.67</course>
  <speed>1.35</speed>
  <fix>3d</fix>
</trkpt>
<trkpt lat="-27.2737671" lon="151.289887">
  <ele>372.61</ele>
  <time>2026-09-01T19:57:35Z</time>
  <course>105.7</course>
  <speed>1.3849548729110273</speed>
  <fix>3d</fix>
</trkpt>
<trkpt lat="-27.2737665" lon="151.289884">
  <ele>372.54</ele>
  <time>2026-09-01T19:57:35Z</time>
  <course>105.67</course>
  <speed>1.35</speed>
  <fix>3d</fix>
</trkpt>
<trkpt lat="-27.2737674" lon="151.2898883">
  <ele>372.61</ele>
  <time>2026-09-01T19:57:35Z</time>
  <course>105.7</course>
  <speed>1.3849548729110273</speed>
  <fix>3d</fix>
</trkpt>
<trkpt lat="-27.2737672" lon="151.2898867">
  <ele>372.53</ele>
  <time>2026-09-01T19:57:35Z</time>
  <course>105.47</course>
  <speed>1.37</speed>
  <fix>3d</fix>
</trkpt>
<trkpt lat="-27.2737677" lon="151.2898896">
  <ele>372.61</ele>
  <time>2026-09-01T19:57:35Z</time>
  <course>105.7</course>
  <speed>1.375281789307195</speed>
  <fix>3d</fix>
</trkpt>
<trkpt lat="-27.2737672" lon="151.2898867">
  <ele>372.53</ele>
  <time>2026-09-01T19:57:35Z</time>
  <course>105.47</course>
  <speed>1.37</speed>
  <fix>3d</fix>
</trkpt>
<trkpt lat="-27.273768" lon="151.289891">
  <ele>372.6</ele>
  <time>2026-09-01T19:57:35Z</time>
  <course>105.7</course>
  <speed>1.363084736911099</speed>
  <fix>3d</fix>
</trkpt>
<trkpt lat="-27.2737678" lon="151.2898894">
  <ele>372.52</ele>
  <time>2026-09-01T19:57:35Z</time>
  <course>105.31</course>
  <speed>1.36</speed>
  <fix>3d</fix>
</trkpt>
<trkpt lat="-27.2737684" lon="151.2898923">
  <ele>372.58</ele>
  <time>2026-09-01T19:57:35Z</time>
  <course>105.7</course>
  <speed>1.3534031180694095</speed>
  <fix>3d</fix>
</trkpt>
<trkpt lat="-27.2737678" lon="151.2898894">
  <ele>372.52</ele>
  <time>2026-09-01T19:57:35Z</time>
  <course>105.31</course>
  <speed>1.36</speed>
  <fix>3d</fix>
</trkpt>
<trkpt lat="-27.2737687" lon="151.2898936">
  <ele>372.55</ele>
  <time>2026-09-01T19:57:35Z</time>
  <course>105.7</course>
  <speed>1.3412307780542465</speed>
  <fix>3d</fix>
</trkpt>
<trkpt lat="-27.2737685" lon="151.289892">
  <ele>372.5</ele>
  <time>2026-09-01T19:57:35Z</time>
  <course>105.15</course>
  <speed>1.34</speed>
  <fix>3d</fix>
</trkpt>
<trkpt lat="-27.273769" lon="151.2898948">
  <ele>372.51</ele>
  <time>2026-09-01T19:57:35Z</time>
  <course>105.7</course>
  <speed>1.3218547575282242</speed>
  <fix>3d</fix>
</trkpt>
<trkpt lat="-27.2737685" lon="151.289892">
  <ele>372.5</ele>
  <time>2026-09-01T19:57:35Z</time>
  <course>105.15</course>
  <speed>1.34</speed>
  <fix>3d</fix>
</trkpt>
<trkpt lat="-27.2737693" lon="151.2898961">
  <ele>372.45</ele>
  <time>2026-09-01T19:57:35Z</time>
  <course>105.69</course>
  <speed>1.3</speed>
  <fix>3d</fix>
</trkpt>
<trkpt lat="-27.2737691" lon="151.2898946">
  <ele>372.42</ele>
  <time>2026-09-01T19:57:35Z</time>
  <course>105.0</course>
  <speed>1.31</speed>
  <fix>3d</fix>
</trkpt>
<trkpt lat="-27.2737696" lon="151.2898973">
  <ele>372.37</ele>
  <time>2026-09-01T19:57:35Z</time>
  <course>105.69</course>
  <speed>1.2684636376341263</speed>
  <fix>3d</fix>
</trkpt>
<trkpt lat="-27.2737691" lon="151.2898946">
  <ele>372.42</ele>
  <time>2026-09-01T19:57:35Z</time>
  <course>105.0</course>
  <speed>1.31</speed>
  <fix>3d</fix>
</trkpt>
<trkpt lat="-27.2737699" lon="151.2898985">
  <ele>372.26</ele>
  <time>2026-09-01T19:57:35Z</time>
  <course>105.68</course>
  <speed>1.22723265927859</speed>
  <fix>3d</fix>
</trkpt>
<trkpt lat="-27.2737697" lon="151.2898971">
  <ele>372.28</ele>
  <time>2026-09-01T19:57:35Z</time>
  <course>104.85</course>
  <speed>1.26</speed>
  <fix>3d</fix>
</trkpt>
<trkpt lat="-27.2737701" lon="151.2898996">
  <ele>372.15</ele>
  <time>2026-09-01T19:57:35Z</time>
  <course>105.68</course>
  <speed>1.186001686339442</speed>
  <fix>3d</fix>
</trkpt>
<trkpt lat="-27.2737697" lon="151.2898971">
  <ele>372.28</ele>
  <time>2026-09-01T19:57:35Z</time>
  <course>104.85</course>
  <speed>1.26</speed>
  <fix>3d</fix>
</trkpt>
<trkpt lat="-27.2737704" lon="151.2899007">
  <ele>372.01</ele>
  <time>2026-09-01T19:57:35Z</time>
  <course>105.67</course>
  <speed>1.132651755836718</speed>
  <fix>3d</fix>
</trkpt>
<trkpt lat="-27.2737702" lon="151.2898995">
  <ele>372.06</ele>
  <time>2026-09-01T19:57:35Z</time>
  <course>104.67</course>
  <speed>1.17</speed>
  <fix>3d</fix>
</trkpt>
<trkpt lat="-27.2737706" lon="151.2899018">
  <ele>371.87</ele>
  <time>2026-09-01T19:57:35Z</time>
  <course>105.66</course>
  <speed>1.0720074626605918</speed>
  <fix>3d</fix>
</trkpt>
<trkpt lat="-27.2737702" lon="151.2898995">
  <ele>372.06</ele>
  <time>2026-09-01T19:57:35Z</time>
  <course>104.67</course>
  <speed>1.17</speed>
  <fix>3d</fix>
</trkpt>
<trkpt lat="-27.2737709" lon="151.2899028">
  <ele>371.72</ele>
  <time>2026-09-01T19:57:35Z</time>
  <course>105.66</course>
  <speed>1.0089598604503551</speed>
  <fix>3d</fix>
</trkpt>
<trkpt lat="-27.2737707" lon="151.2899017">
  <ele>371.78</ele>
  <time>2026-09-01T19:57:35Z</time>
  <course>104.46</course>
  <speed>1.06</speed>
  <fix>3d</fix>
</trkpt>
<trkpt lat="-27.2737711" lon="151.2899037">
  <ele>371.55</ele>
  <time>2026-09-01T19:57:35Z</time>
  <course>105.65</course>
  <speed>0.9459386872308374</speed>
  <fix>3d</fix>
</trkpt>
<trkpt lat="-27.2737707" lon="151.2899017">
  <ele>371.78</ele>
  <time>2026-09-01T19:57:35Z</time>
  <course>104.46</course>
  <speed>1.06</speed>
  <fix>3d</fix>
</trkpt>
<trkpt lat="-27.2737713" lon="151.2899046">
  <ele>371.39</ele>
  <time>2026-09-01T19:57:35Z</time>
  <course>105.64</course>
  <speed>0.8829496021857647</speed>
  <fix>3d</fix>
</trkpt>
<trkpt lat="-27.2737712" lon="151.2899037">
  <ele>371.47</ele>
  <time>2026-09-01T19:57:35Z</time>
  <course>104.2</course>
  <speed>0.94</speed>
  <fix>3d</fix>
</trkpt>
<trkpt lat="-27.2737715" lon="151.2899054">
  <ele>371.22</ele>
  <time>2026-09-01T19:57:35Z</time>
  <course>105.63</course>
  <speed>0.8102468759581859</speed>
  <fix>3d</fix>
</trkpt>
<trkpt lat="-27.2737712" lon="151.2899037">
  <ele>371.47</ele>
  <time>2026-09-01T19:57:35Z</time>
  <course>104.2</course>
  <speed>0.94</speed>
  <fix>3d</fix>
</trkpt>
<trkpt lat="-27.2737716" lon="151.2899062">
  <ele>371.05</ele>
  <time>2026-09-01T19:57:35Z</time>
  <course>105.62</course>
  <speed>0.737563556583431</speed>
  <fix>3d</fix>
</trkpt>
<trkpt lat="-27.2737715" lon="151.2899054">
  <ele>371.14</ele>
  <time>2026-09-01T19:57:35Z</time>
  <course>103.88</course>
  <speed>0.81</speed>
  <fix>3d</fix>
</trkpt>
<trkpt lat="-27.2737718" lon="151.2899069">
  <ele>370.88</ele>
  <time>2026-09-01T19:57:35Z</time>
  <course>105.62</course>
  <speed>0.6768308503607087</speed>
  <fix>3d</fix>
</trkpt>
<trkpt lat="-27.2737715" lon="151.2899054">
  <ele>371.14</ele>
  <time>2026-09-01T19:57:35Z</time>
  <course>103.88</course>
  <speed>0.81</speed>
  <fix>3d</fix>
</trkpt>
<trkpt lat="-27.2737719" lon="151.2899075">
  <ele>370.72</ele>
  <time>2026-09-01T19:57:35Z</time>
  <course>105.61</course>
  <speed>0.6041522986797286</speed>
  <fix>3d</fix>
</trkpt>
<trkpt lat="-27.2737719" lon="151.2899069">
  <ele>370.8</ele>
  <time>2026-09-01T19:57:35Z</time>
  <course>103.47</course>
  <speed>0.67</speed>
  <fix>3d</fix>
</trkpt>
<trkpt lat="-27.273772" lon="151.289908">
  <ele>370.55</ele>
  <time>2026-09-01T19:57:35Z</time>
  <course>105.61</course>
  <speed>0.5412947441089743</speed>
  <fix>3d</fix>
</trkpt>
<trkpt lat="-27.2737719" lon="151.2899069">
  <ele>370.8</ele>
  <time>2026-09-01T19:57:35Z</time>
  <course>103.47</course>
  <speed>0.67</speed>
  <fix>3d</fix>
</trkpt>
<trkpt lat="-27.2737721" lon="151.2899085">
  <ele>370.39</ele>
  <time>2026-09-01T19:57:35Z</time>
  <course>105.61</course>
  <speed>0.4687216658103186</speed>
  <fix>3d</fix>
</trkpt>
<trkpt lat="-27.2737721" lon="151.2899081">
  <ele>370.48</ele>
  <time>2026-09-01T19:57:35Z</time>
  <course>102.95</course>
  <speed>0.53</speed>
  <fix>3d</fix>
</trkpt>
<trkpt lat="-27.2737722" lon="151.289909">
  <ele>370.24</ele>
  <time>2026-09-01T19:57:35Z</time>
  <course>105.61</course>
  <speed>0.4079215610874228</speed>
  <fix>3d</fix>
</trkpt>
<trkpt lat="-27.2737721" lon="151.2899081">
  <ele>370.48</ele>
  <time>2026-09-01T19:57:35Z</time>
  <course>102.95</course>
  <speed>0.53</speed>
  <fix>3d</fix>
</trkpt>
<trkpt lat="-27.2737723" lon="151.2899094">
  <ele>370.08</ele>
  <time>2026-09-01T19:57:35Z</time>
  <course>105.6</course>
  <speed>0.34525353003264136</speed>
  <fix>3d</fix>
</trkpt>
<trkpt lat="-27.2737723" lon="151.289909">
  <ele>370.16</ele>
  <time>2026-09-01T19:57:35Z</time>
  <course>102.23</course>
  <speed>0.4</speed>
  <fix>3d</fix>
</trkpt>
<trkpt lat="-27.2737723" lon="151.2899097">
  <ele>369.93</ele>
  <time>2026-09-01T19:57:35Z</time>
  <course>105.59</course>
  <speed>0.29274562336608895</speed>
  <fix>3d</fix>
</trkpt>
<trkpt lat="-27.2737723" lon="151.289909">
  <ele>370.16</ele>
  <time>2026-09-01T19:57:35Z</time>
  <course>102.23</course>
  <speed>0.4</speed>
  <fix>3d</fix>
</trkpt>
<trkpt lat="-27.2737724" lon="151.2899099">
  <ele>369.78</ele>
  <time>2026-09-01T19:57:35Z</time>
  <course>105.58</course>
  <speed>0.24186773244895649</speed>
  <fix>3d</fix>
</trkpt>
<trkpt lat="-27.2737724" lon="151.2899097">
  <ele>369.87</ele>
  <time>2026-09-01T19:57:35Z</time>
  <course>101.19</course>
  <speed>0.29</speed>
  <fix>3d</fix>
</trkpt>
<trkpt lat="-27.2737724" lon="151.2899102">
  <ele>369.64</ele>
  <time>2026-09-01T19:57:35Z</time>
  <course>105.57</course>
  <speed>0.191049731745428</speed>
  <fix>3d</fix>
</trkpt>
<trkpt lat="-27.2737724" lon="151.2899097">
  <ele>369.87</ele>
  <time>2026-09-01T19:57:35Z</time>
  <course>101.19</course>
  <speed>0.29</speed>
  <fix>3d</fix>
</trkpt>
<trkpt lat="-27.2737724" lon="151.2899103">
  <ele>369.5</ele>
  <time>2026-09-01T19:57:35Z</time>
  <course>105.55</course>
  <speed>0.140356688476182</speed>
  <fix>3d</fix>
</trkpt>
<trkpt lat="-27.2737725" lon="151.2899102">
  <ele>369.59</ele>
  <time>2026-09-01T19:57:35Z</time>
  <course>99.63</course>
  <speed>0.18</speed>
  <fix>3d</fix>
</trkpt>
<trkpt lat="-27.2737724" lon="151.2899104">
  <ele>369.36</ele>
  <time>2026-09-01T19:57:35Z</time>
  <course>105.51</course>
  <speed>0.1</speed>
  <fix>3d</fix>
</trkpt>
<trkpt lat="-27.2737725" lon="151.2899102">
  <ele>369.59</ele>
  <time>2026-09-01T19:57:35Z</time>
  <course>99.63</course>
  <speed>0.18</speed>
  <fix>3d</fix>
</trkpt>
<trkpt lat="-27.2737724" lon="151.2899105">
  <ele>369.22</ele>
  <time>2026-09-01T19:57:35Z</time>
  <course>105.38</course>
  <speed>0.05</speed>
  <fix>3d</fix>
</trkpt>
<trkpt lat="-27.2737726" lon="151.2899104">
  <ele>369.31</ele>
  <time>2026-09-01T19:57:35Z</time>
  <course>100.03</course>
  <speed>0.09</speed>
  <fix>3d</fix>
</trkpt>
<trkpt lat="-27.2737725" lon="151.2899105">
  <ele>369.08</ele>
  <time>2026-09-01T19:57:35Z</time>
  <course>105.22</course>
  <speed>0.02</speed>
  <fix>3d</fix>
</trkpt>
<trkpt lat="-27.2737726" lon="151.2899104">
  <ele>369.31</ele>
  <time>2026-09-01T19:57:35Z</time>
  <course>100.03</course>
  <speed>0.09</speed>
  <fix>3d</fix>
</trkpt>
<trkpt lat="-27.2737724" lon="151.2899105">
  <ele>368.94</ele>
  <time>2026-09-01T19:57:35Z</time>
  <course>105.16</course>
  <speed>0.01414213562373095</speed>
  <fix>3d</fix>
</trkpt>
<trkpt lat="-27.2737726" lon="151.2899105">
  <ele>369.03</ele>
  <time>2026-09-01T19:57:35Z</time>
  <course>108.22</course>
  <speed>0.0</speed>
  <fix>3d</fix>
</trkpt>
<trkpt lat="-27.2737724" lon="151.2899105">
  <ele>368.8</ele>
  <time>2026-09-01T19:57:35Z</time>
  <course>105.18</course>
  <speed>0.044721359549995794</speed>
  <fix>3d</fix>
</trkpt>
<trkpt lat="-27.2737726" lon="151.2899105">
  <ele>369.03</ele>
  <time>2026-09-01T19:57:35Z</time>
  <course>108.22</course>
  <speed>0.0</speed>
  <fix>3d</fix>
</trkpt>
<trkpt lat="-27.2737724" lon="151.2899104">
  <ele>368.66</ele>
  <time>2026-09-01T19:57:35Z</time>
  <course>105.27</course>
  <speed>0.0632455532033676</speed>
  <fix>3d</fix>
</trkpt>
<trkpt lat="-27.2737726" lon="151.2899105">
  <ele>368.76</ele>
  <time>2026-09-01T19:57:35Z</time>
  <course>284.43</course>
  <speed>0.05</speed>
  <fix>3d</fix>
</trkpt>
<trkpt lat="-27.2737724" lon="151.2899104">
  <ele>368.52</ele>
  <time>2026-09-01T19:57:35Z</time>
  <course>105.39</course>
  <speed>0.09486832980505139</speed>
  <fix>3d</fix>
</trkpt>
<trkpt lat="-27.2737726" lon="151.2899105">
  <ele>368.76</ele>
  <time>2026-09-01T19:57:35Z</time>
  <course>284.43</course>
  <speed>0.05</speed>
  <fix>3d</fix>
</trkpt>
<trkpt lat="-27.2737724" lon="151.2899102">
  <ele>368.38</ele>
  <time>2026-09-01T19:57:35Z</time>
  <course>105.53</course>
  <speed>0.11704699910719625</speed>
  <fix>3d</fix>
</trkpt>
<trkpt lat="-27.2737726" lon="151.2899103">
  <ele>368.49</ele>
  <time>2026-09-01T19:57:35Z</time>
  <course>285.07</course>
  <speed>0.11</speed>
  <fix>3d</fix>
</trkpt>
<trkpt lat="-27.2737724" lon="151.2899102">
  <ele>368.24</ele>
  <time>2026-09-01T19:57:35Z</time>
  <course>105.65</course>
  <speed>0.13601470508735444</speed>
  <fix>3d</fix>
</trkpt>
<trkpt lat="-27.2737726" lon="151.2899103">
  <ele>368.49</ele>
  <time>2026-09-01T19:57:35Z</time>
  <course>285.07</course>
  <speed>0.11</speed>
  <fix>3d</fix>
</trkpt>
<trkpt lat="-27.2737724" lon="151.2899101">
  <ele>368.09</ele>
  <time>2026-09-01T19:57:35Z</time>
  <course>105.74</course>
  <speed>0.14866068747318506</speed>
  <fix>3d</fix>
</trkpt>
<trkpt lat="-27.2737725" lon="151.2899101">
  <ele>368.2</ele>
  <time>2026-09-01T19:57:35Z</time>
  <course>285.47</course>
  <speed>0.15</speed>
  <fix>3d</fix>
</trkpt>
<trkpt lat="-27.2737724" lon="151.2899099">
  <ele>367.95</ele>
  <time>2026-09-01T19:57:35Z</time>
  <course>105.8</course>
  <speed>0.1649242250247064</speed>
  <fix>3d</fix>
</trkpt>
<trkpt lat="-27.2737725" lon="151.2899101">
  <ele>368.2</ele>
  <time>2026-09-01T19:57:35Z</time>
  <course>285.47</course>
  <speed>0.15</speed>
  <fix>3d</fix>
</trkpt>
<trkpt lat="-27.2737724" lon="151.2899097">
  <ele>367.8</ele>
  <time>2026-09-01T19:57:35Z</time>
  <course>105.82</course>
  <speed>0.17464249196572978</speed>
  <fix>3d</fix>
</trkpt>
<trkpt lat="-27.2737725" lon="151.2899097">
  <ele>367.91</ele>
  <time>2026-09-01T19:57:35Z</time>
  <course>285.63</course>
  <speed>0.18</speed>
  <fix>3d</fix>
</trkpt>
<trkpt lat="-27.2737723" lon="151.2899095">
  <ele>367.65</ele>
  <time>2026-09-01T19:57:35Z</time>
  <course>105.8</course>
  <speed>0.18439088914585774</speed>
  <fix>3d</fix>
</trkpt>
<trkpt lat="-27.2737725" lon="151.2899097">
  <ele>367.91</ele>
  <time>2026-09-01T19:57:35Z</time>
  <course>285.63</course>
  <speed>0.18</speed>
  <fix>3d</fix>
</trkpt>
<trkpt lat="-27.2737723" lon="151.2899093">
  <ele>367.51</ele>
  <time>2026-09-01T19:57:35Z</time>
  <course>105.75</course>
  <speed>0.196468827043885</speed>
  <fix>3d</fix>
</trkpt>
<trkpt lat="-27.2737724" lon="151.2899094">
  <ele>367.62</ele>
  <time>2026-09-01T19:57:35Z</time>
  <course>285.54</course>
  <speed>0.21</speed>
  <fix>3d</fix>
</trkpt>
<trkpt lat="-27.2737722" lon="151.2899091">
  <ele>367.36</ele>
  <time>2026-09-01T19:57:35Z</time>
  <course>105.69</course>
  <speed>0.196468827043885</speed>
  <fix>3d</fix>
</trkpt>
<trkpt lat="-27.2737724" lon="151.2899094">
  <ele>367.62</ele>
  <time>2026-09-01T19:57:35Z</time>
  <course>285.54</course>
  <speed>0.21</speed>
  <fix>3d</fix>
</trkpt>
<trkpt lat="-27.2737722" lon="151.2899089">
  <ele>367.21</ele>
  <time>2026-09-01T19:57:35Z</time>
  <course>105.62</course>
  <speed>0.196468827043885</speed>
  <fix>3d</fix>
</trkpt>
<trkpt lat="-27.2737723" lon="151.289909">
  <ele>367.33</ele>
  <time>2026-09-01T19:57:35Z</time>
  <course>285.34</course>
  <speed>0.22</speed>
  <fix>3d</fix>
</trkpt>
<trkpt lat="-27.2737722" lon="151.2899087">
  <ele>367.06</ele>
  <time>2026-09-01T19:57:35Z</time>
  <course>105.56</course>
  <speed>0.20615528128088303</speed>
  <fix>3d</fix>
</trkpt>
<trkpt lat="-27.2737723" lon="151.289909">
  <ele>367.33</ele>
  <time>2026-09-01T19:57:35Z</time>
  <course>285.34</course>
  <speed>0.22</speed>
  <fix>3d</fix>
</trkpt>
<trkpt lat="-27.2737721" lon="151.2899085">
  <ele>366.9</ele>
  <time>2026-09-01T19:57:35Z</time>
  <course>105.51</course>
  <speed>0.20615528128088303</speed>
  <fix>3d</fix>
</trkpt>
<trkpt lat="-27.2737721" lon="151.2899085">
  <ele>367.02</ele>
  <time>2026-09-01T19:57:35Z</time>
  <course>285.16</course>
  <speed>0.23</speed>
  <fix>3d</fix>
</trkpt>
<trkpt lat="-27.2737721" lon="151.2899083">
  <ele>366.75</ele>
  <time>2026-09-01T19:57:35Z</time>
  <course>105.48</course>
  <speed>0.20615528128088303</speed>
  <fix>3d</fix>
</trkpt>
<trkpt lat="-27.2737721" lon="151.2899085">
  <ele>367.02</ele>
  <time>2026-09-01T19:57:35Z</time>
  <course>285.16</course>
  <speed>0.23</speed>
  <fix>3d</fix>
</trkpt>
<trkpt lat="-27.273772" lon="151.289908">
  <ele>366.6</ele>
  <time>2026-09-01T19:57:35Z</time>
  <course>105.46</course>
  <speed>0.20615528128088303</speed>
  <fix>3d</fix>
</trkpt>
<trkpt lat="-27.273772" lon="151.2899081">
  <ele>366.72</ele>
  <time>2026-09-01T19:57:35Z</time>
  <course>285.04</course>
  <speed>0.23</speed>
  <fix>3d</fix>
</trkpt>
<trkpt lat="-27.273772" lon="151.2899078">
  <ele>366.45</ele>
  <time>2026-09-01T19:57:35Z</time>
  <course>105.47</course>
  <speed>0.20615528128088303</speed>
  <fix>3d</fix>
</trkpt>
<trkpt lat="-27.273772" lon="151.2899081">
  <ele>366.72</ele>
  <time>2026-09-01T19:57:35Z</time>
  <course>285.04</course>
  <speed>0.23</speed>
  <fix>3d</fix>
</trkpt>
<trkpt lat="-27.2737719" lon="151.2899076">
  <ele>366.3</ele>
  <time>2026-09-01T19:57:35Z</time>
  <course>105.48</course>
  <speed>0.20615528128088303</speed>
  <fix>3d</fix>
</trkpt>
<trkpt lat="-27.2737719" lon="151.2899076">
  <ele>366.41</ele>
  <time>2026-09-01T19:57:35Z</time>
  <course>285.01</course>
  <speed>0.23</speed>
  <fix>3d</fix>
</trkpt>
<trkpt lat="-27.2737719" lon="151.2899074">
  <ele>366.14</ele>
  <time>2026-09-01T19:57:35Z</time>
  <course>105.51</course>
  <speed>0.20615528128088303</speed>
  <fix>3d</fix>
</trkpt>
<trkpt lat="-27.2737719" lon="151.2899076">
  <ele>366.41</ele>
  <time>2026-09-01T19:57:35Z</time>
  <course>285.01</course>
  <speed>0.23</speed>
  <fix>3d</fix>
</trkpt>
<trkpt lat="-27.2737718" lon="151.2899071">
  <ele>365.99</ele>
  <time>2026-09-01T19:57:35Z</time>
  <course>105.53</course>
  <speed>0.196468827043885</speed>
  <fix>3d</fix>
</trkpt>
<trkpt lat="-27.2737718" lon="151.2899071">
  <ele>366.11</ele>
  <time>2026-09-01T19:57:35Z</time>
  <course>285.08</course>
  <speed>0.23</speed>
  <fix>3d</fix>
</trkpt>
<trkpt lat="-27.2737718" lon="151.2899069">
  <ele>365.84</ele>
  <time>2026-09-01T19:57:35Z</time>
  <course>105.55</course>
  <speed>0.196468827043885</speed>
  <fix>3d</fix>
</trkpt>
<trkpt lat="-27.2737718" lon="151.2899071">
  <ele>366.11</ele>
  <time>2026-09-01T19:57:35Z</time>
  <course>285.08</course>
  <speed>0.23</speed>
  <fix>3d</fix>
</trkpt>
<trkpt lat="-27.2737717" lon="151.2899067">
  <ele>365.68</ele>
  <time>2026-09-01T19:57:35Z</time>
  <course>105.57</course>
  <speed>0.196468827043885</speed>
  <fix>3d</fix>
</trkpt>
<trkpt lat="-27.2737717" lon="151.2899067">
  <ele>365.81</ele>
  <time>2026-09-01T19:57:35Z</time>
  <course>285.17</course>
  <speed>0.23</speed>
  <fix>3d</fix>
</trkpt>
<trkpt lat="-27.2737716" lon="151.2899065">
  <ele>365.53</ele>
  <time>2026-09-01T19:57:35Z</time>
  <course>105.58</course>
  <speed>0.18681541692269404</speed>
  <fix>3d</fix>
</trkpt>
<trkpt lat="-27.2737717" lon="151.2899067">
  <ele>365.81</ele>
  <time>2026-09-01T19:57:35Z</time>
  <course>285.17</course>
  <speed>0.23</speed>
  <fix>3d</fix>
</trkpt>
<trkpt lat="-27.2737716" lon="151.2899063">
  <ele>365.38</ele>
  <time>2026-09-01T19:57:35Z</time>
  <course>105.59</course>
  <speed>0.18681541692269404</speed>
  <fix>3d</fix>
</trkpt>
<trkpt lat="-27.2737716" lon="151.2899062">
  <ele>365.51</ele>
  <time>2026-09-01T19:57:35Z</time>
  <course>285.22</course>
  <speed>0.22</speed>
  <fix>3d</fix>
</trkpt>
<trkpt lat="-27.2737715" lon="151.2899061">
  <ele>365.22</ele>
  <time>2026-09-01T19:57:35Z</time>
  <course>105.6</course>
  <speed>0.1772004514666935</speed>
  <fix>3d</fix>
</trkpt>
<trkpt lat="-27.2737716" lon="151.2899062">
  <ele>365.51</ele>
  <time>2026-09-01T19:57:35Z</time>
  <course>285.22</course>
  <speed>0.22</speed>
  <fix>3d</fix>
</trkpt>
<trkpt lat="-27.2737715" lon="151.2899059">
  <ele>365.07</ele>
  <time>2026-09-01T19:57:35Z</time>
  <course>105.59</course>
  <speed>0.1772004514666935</speed>
  <fix>3d</fix>
</trkpt>
<trkpt lat="-27.2737715" lon="151.2899058">
  <ele>365.21</ele>
  <time>2026-09-01T19:57:35Z</time>
  <course>285.16</course>
  <speed>0.21</speed>
  <fix>3d</fix>
</trkpt>
<trkpt lat="-27.2737714" lon="151.2899057">
  <ele>364.91</ele>
  <time>2026-09-01T19:57:35Z</time>
  <course>105.59</course>
  <speed>0.1772004514666935</speed>
  <fix>3d</fix>
</trkpt>
<trkpt lat="-27.2737715" lon="151.2899058">
  <ele>365.21</ele>
  <time>2026-09-01T19:57:35Z</time>
  <course>285.16</course>
  <speed>0.21</speed>
  <fix>3d</fix>
</trkpt>
<trkpt lat="-27.2737714" lon="151.2899055">
  <ele>364.76</ele>
  <time>2026-09-01T19:57:35Z</time>
  <course>105.58</course>
  <speed>0.1676305461424021</speed>
  <fix>3d</fix>
</trkpt>
<trkpt lat="-27.2737714" lon="151.2899054">
  <ele>364.91</ele>
  <time>2026-09-01T19:57:35Z</time>
  <course>285.13</course>
  <speed>0.2</speed>
  <fix>3d</fix>
</trkpt>
<trkpt lat="-27.2737713" lon="151.2899053">
  <ele>364.61</ele>
  <time>2026-09-01T19:57:35Z</time>
  <course>105.57</course>
  <speed>0.15811388300841897</speed>
  <fix>3d</fix>
</trkpt>
<trkpt lat="-27.2737714" lon="151.2899054">
  <ele>364.91</ele>
  <time>2026-09-01T19:57:35Z</time>
  <course>285.13</course>
  <speed>0.2</speed>
  <fix>3d</fix>
</trkpt>
<trkpt lat="-27.2737713" lon="151.2899051">
  <ele>364.46</ele>
  <time>2026-09-01T19:57:35Z</time>
  <course>105.57</course>
  <speed>0.15811388300841897</speed>
  <fix>3d</fix>
</trkpt>
<trkpt lat="-27.2737713" lon="151.289905">
  <ele>364.61</ele>
  <time>2026-09-01T19:57:35Z</time>
  <course>285.17</course>
  <speed>0.19</speed>
  <fix>3d</fix>
</trkpt>
<trkpt lat="-27.2737713" lon="151.2899049">
  <ele>364.31</ele>
  <time>2026-09-01T19:57:35Z</time>
  <course>105.58</course>
  <speed>0.14560219778561037</speed>
  <fix>3d</fix>
</trkpt>
<trkpt lat="-27.2737713" lon="151.289905">
  <ele>364.61</ele>
  <time>2026-09-01T19:57:35Z</time>
  <course>285.17</course>
  <speed>0.19</speed>
  <fix>3d</fix>
</trkpt>
<trkpt lat="-27.2737712" lon="151.2899048">
  <ele>364.16</ele>
  <time>2026-09-01T19:57:35Z</time>
  <course>105.59</course>
  <speed>0.14560219778561037</speed>
  <fix>3d</fix>
</trkpt>
<trkpt lat="-27.2737712" lon="151.2899047">
  <ele>364.31</ele>
  <time>2026-09-01T19:57:35Z</time>
  <course>285.26</course>
  <speed>0.18</speed>
  <fix>3d</fix>
</trkpt>
<trkpt lat="-27.2737712" lon="151.2899046">
  <ele>364.01</ele>
  <time>2026-09-01T19:57:35Z</time>
  <course>105.61</course>
  <speed>0.13601470508735444</speed>
  <fix>3d</fix>
</trkpt>
<trkpt lat="-27.2737712" lon="151.2899047">
  <ele>364.31</ele>
  <time>2026-09-01T19:57:35Z</time>
  <course>285.26</course>
  <speed>0.18</speed>
  <fix>3d</fix>
</trkpt>
<trkpt lat="-27.2737711" lon="151.2899045">
  <ele>363.87</ele>
  <time>2026-09-01T19:57:35Z</time>
  <course>105.62</course>
  <speed>0.1264911064067352</speed>
  <fix>3d</fix>
</trkpt>
<trkpt lat="-27.2737711" lon="151.2899043">
  <ele>364.01</ele>
  <time>2026-09-01T19:57:35Z</time>
  <course>285.15</course>
  <speed>0.16</speed>
  <fix>3d</fix>
</trkpt>
<trkpt lat="-27.2737711" lon="151.2899043">
  <ele>363.72</ele>
  <time>2026-09-01T19:57:35Z</time>
  <course>105.62</course>
  <speed>0.1264911064067352</speed>
  <fix>3d</fix>
</trkpt>
<trkpt lat="-27.2737711" lon="151.2899043">
  <ele>364.01</ele>
  <time>2026-09-01T19:57:35Z</time>
  <course>285.15</course>
  <speed>0.16</speed>
  <fix>3d</fix>
</trkpt>
<trkpt lat="-27.2737711" lon="151.2899042">
  <ele>363.57</ele>
  <time>2026-09-01T19:57:35Z</time>
  <course>105.61</course>
  <speed>0.11704699910719625</speed>
  <fix>3d</fix>
</trkpt>
<trkpt lat="-27.2737711" lon="151.289904">
  <ele>363.72</ele>
  <time>2026-09-01T19:57:35Z</time>
  <course>284.97</course>
  <speed>0.15</speed>
  <fix>3d</fix>
</trkpt>
<trkpt lat="-27.273771" lon="151.289904">
  <ele>363.42</ele>
  <time>2026-09-01T19:57:35Z</time>
  <course>105.61</course>
  <speed>0.10770329614269007</speed>
  <fix>3d</fix>
</trkpt>
<trkpt lat="-27.2737711" lon="151.289904">
  <ele>363.72</ele>
  <time>2026-09-01T19:57:35Z</time>
  <course>284.97</course>
  <speed>0.15</speed>
  <fix>3d</fix>
</trkpt>
<trkpt lat="-27.273771" lon="151.2899039">
  <ele>363.27</ele>
  <time>2026-09-01T19:57:35Z</time>
  <course>105.63</course>
  <speed>0.09848857801796104</speed>
  <fix>3d</fix>
</trkpt>
<trkpt lat="-27.273771" lon="151.2899037">
  <ele>363.42</ele>
  <time>2026-09-01T19:57:35Z</time>
  <course>285.18</course>
  <speed>0.14</speed>
  <fix>3d</fix>
</trkpt>
<trkpt lat="-27.2737709" lon="151.2899038">
  <ele>363.13</ele>
  <time>2026-09-01T19:57:35Z</time>
  <course>105.65</course>
  <speed>0.09848857801796104</speed>
  <fix>3d</fix>
</trkpt>
<trkpt lat="-27.273771" lon="151.2899037">
  <ele>363.42</ele>
  <time>2026-09-01T19:57:35Z</time>
  <course>285.18</course>
  <speed>0.14</speed>
  <fix>3d</fix>
</trkpt>
<trkpt lat="-27.2737709" lon="151.2899037">
  <ele>362.98</ele>
  <time>2026-09-01T19:57:35Z</time>
  <course>105.66</course>
  <speed>0.08944271909999159</speed>
  <fix>3d</fix>
</trkpt>
<trkpt lat="-27.2737709" lon="151.2899034">
  <ele>363.13</ele>
  <time>2026-09-01T19:57:35Z</time>
  <course>285.34</course>
  <speed>0.12</speed>
  <fix>3d</fix>
</trkpt>
<trkpt lat="-27.2737709" lon="151.2899035">
  <ele>362.83</ele>
  <time>2026-09-01T19:57:35Z</time>
  <course>105.67</course>
  <speed>0.08062257748298549</speed>
  <fix>3d</fix>
</trkpt>
<trkpt lat="-27.2737709" lon="151.2899034">
  <ele>363.13</ele>
  <time>2026-09-01T19:57:35Z</time>
  <course>285.34</course>
  <speed>0.12</speed>
  <fix>3d</fix>
</trkpt>
<trkpt lat="-27.2737708" lon="151.2899034">
  <ele>362.69</ele>
  <time>2026-09-01T19:57:35Z</time>
  <course>105.68</course>
  <speed>0.0670820393249937</speed>
  <fix>3d</fix>
</trkpt>
<trkpt lat="-27.2737709" lon="151.2899032">
  <ele>362.83</ele>
  <time>2026-09-01T19:57:35Z</time>
  <course>285.17</course>
  <speed>0.11</speed>
  <fix>3d</fix>
</trkpt>
<trkpt lat="-27.2737708" lon="151.2899033">
  <ele>362.54</ele>
  <time>2026-09-01T19:57:35Z</time>
  <course>105.68</course>
  <speed>0.0670820393249937</speed>
  <fix>3d</fix>
</trkpt>
<trkpt lat="-27.2737709" lon="151.2899032">
  <ele>362.83</ele>
  <time>2026-09-01T19:57:35Z</time>
  <course>285.17</course>
  <speed>0.11</speed>
  <fix>3d</fix>
</trkpt>
<trkpt lat="-27.2737708" lon="151.2899033">
  <ele>362.39</ele>
  <time>2026-09-01T19:57:35Z</time>
  <course>105.68</course>
  <speed>0.05830951894845301</speed>
  <fix>3d</fix>
</trkpt>
<trkpt lat="-27.2737708" lon="151.2899029">
  <ele>362.53</ele>
  <time>2026-09-01T19:57:35Z</time>
  <course>285.19</course>
  <speed>0.09</speed>
  <fix>3d</fix>
</trkpt>
<trkpt lat="-27.2737708" lon="151.2899032">
  <ele>362.24</ele>
  <time>2026-09-01T19:57:35Z</time>
  <course>105.68</course>
  <speed>0.05</speed>
  <fix>3d</fix>
</trkpt>
<trkpt lat="-27.2737708" lon="151.2899029">
  <ele>362.53</ele>
  <time>2026-09-01T19:57:35Z</time>
  <course>285.19</course>
  <speed>0.09</speed>
  <fix>3d</fix>
</trkpt>
<trkpt lat="-27.2737708" lon="151.2899031">
  <ele>362.09</ele>
  <time>2026-09-01T19:57:35Z</time>
  <course>105.69</course>
  <speed>0.044721359549995794</speed>
  <fix>3d</fix>
</trkpt>
<trkpt lat="-27.2737708" lon="151.2899028">
  <ele>362.22</ele>
  <time>2026-09-01T19:57:35Z</time>
  <course>285.29</course>
  <speed>0.08</speed>
  <fix>3d</fix>
</trkpt>
<trkpt lat="-27.2737707" lon="151.289903">
  <ele>361.94</ele>
  <time>2026-09-01T19:57:35Z</time>
  <course>105.69</course>
  <speed>0.03605551275463989</speed>
  <fix>3d</fix>
</trkpt>
<trkpt lat="-27.2737708" lon="151.2899028">
  <ele>362.22</ele>
  <time>2026-09-01T19:57:35Z</time>
  <course>285.29</course>
  <speed>0.08</speed>
  <fix>3d</fix>
</trkpt>
<trkpt lat="-27.2737707" lon="151.289903">
  <ele>361.79</ele>
  <time>2026-09-01T19:57:35Z</time>
  <course>105.69</course>
  <speed>0.0316227766016838</speed>
  <fix>3d</fix>
</trkpt>
<trkpt lat="-27.2737708" lon="151.2899027">
  <ele>361.93</ele>
  <time>2026-09-01T19:57:35Z</time>
  <course>285.03</course>
  <speed>0.06</speed>
  <fix>3d</fix>
</trkpt>
<trkpt lat="-27.2737707" lon="151.2899029">
  <ele>361.63</ele>
  <time>2026-09-01T19:57:35Z</time>
  <course>105.69</course>
  <speed>0.022360679774997897</speed>
  <fix>3d</fix>
</trkpt>
<trkpt lat="-27.2737708" lon="151.2899027">
  <ele>361.93</ele>
  <time>2026-09-01T19:57:35Z</time>
  <course>285.03</course>
  <speed>0.06</speed>
  <fix>3d</fix>
</trkpt>
<trkpt lat="-27.2737707" lon="151.2899028">
  <ele>361.48</ele>
  <time>2026-09-01T19:57:35Z</time>
  <course>105.68</course>
  <speed>0.01414213562373095</speed>
  <fix>3d</fix>
</trkpt>
<trkpt lat="-27.2737707" lon="151.2899026">
  <ele>361.63</ele>
  <time>2026-09-01T19:57:35Z</time>
  <course>284.67</course>
  <speed>0.05</speed>
  <fix>3d</fix>
</trkpt>
<trkpt lat="-27.2737707" lon="151.2899028">
  <ele>361.33</ele>
  <time>2026-09-01T19:57:35Z</time>
  <course>105.68</course>
  <speed>0.01414213562373095</speed>
  <fix>3d</fix>
</trkpt>
<trkpt lat="-27.2737707" lon="151.2899026">
  <ele>361.63</ele>
  <time>2026-09-01T19:57:35Z</time>
  <course>284.67</course>
  <speed>0.05</speed>
  <fix>3d</fix>
</trkpt>
<trkpt lat="-27.2737707" lon="151.2899028">
  <ele>361.18</ele>
  <time>2026-09-01T19:57:35Z</time>
  <course>105.68</course>
  <speed>0.01</speed>
  <fix>3d</fix>
</trkpt>
<trkpt lat="-27.2737707" lon="151.2899025">
  <ele>361.33</ele>
  <time>2026-09-01T19:57:35Z</time>
  <course>284.34</course>
  <speed>0.03</speed>
  <fix>3d</fix>
</trkpt>
<trkpt lat="-27.2737707" lon="151.2899027">
  <ele>361.02</ele>
  <time>2026-09-01T19:57:35Z</time>
  <course>105.68</course>
  <speed>0.02</speed>
  <fix>3d</fix>
</trkpt>
<trkpt lat="-27.2737707" lon="151.2899025">
  <ele>361.33</ele>
  <time>2026-09-01T19:57:35Z</time>
  <course>284.34</course>
  <speed>0.03</speed>
  <fix>3d</fix>
</trkpt>
<trkpt lat="-27.2737707" lon="151.2899027">
  <ele>360.87</ele>
  <time>2026-09-01T19:57:35Z</time>
  <course>105.68</course>
  <speed>0.0</speed>
  <fix>3d</fix>
</trkpt>
<trkpt lat="-27.2737707" lon="151.2899024">
  <ele>361.03</ele>
  <time>2026-09-01T19:57:35Z</time>
  <course>283.56</course>
  <speed>0.02</speed>
  <fix>3d</fix>
</trkpt>
<trkpt lat="-27.2737707" lon="151.2899027">
  <ele>360.72</ele>
  <time>2026-09-01T19:57:35Z</time>
  <course>105.7</course>
  <speed>0.022360679774997897</speed>
  <fix>3d</fix>
</trkpt>
<trkpt lat="-27.2737707" lon="151.2899024">
  <ele>361.03</ele>
  <time>2026-09-01T19:57:35Z</time>
  <course>283.56</course>
  <speed>0.02</speed>
  <fix>3d</fix>
</trkpt>
<trkpt lat="-27.2737707" lon="151.2899027">
  <ele>360.57</ele>
  <time>2026-09-01T19:57:35Z</time>
  <course>105.72</course>
  <speed>0.022360679774997897</speed>
  <fix>3d</fix>
</trkpt>
<trkpt lat="-27.2737707" lon="151.2899024">
  <ele>360.72</ele>
  <time>2026-09-01T19:57:35Z</time>
  <course>285.08</course>
  <speed>0.01</speed>
  <fix>3d</fix>
</trkpt>
<trkpt lat="-27.2737707" lon="151.2899027">
  <ele>360.42</ele>
  <time>2026-09-01T19:57:35Z</time>
  <course>105.76</course>
  <speed>0.02</speed>
  <fix>3d</fix>
</trkpt>
<trkpt lat="-27.2737707" lon="151.2899024">
  <ele>360.72</ele>
  <time>2026-09-01T19:57:35Z</time>
  <course>285.08</course>
  <speed>0.01</speed>
  <fix>3d</fix>
</trkpt>
<trkpt lat="-27.2737707" lon="151.2899027">
  <ele>360.27</ele>
  <time>2026-09-01T19:57:35Z</time>
  <course>105.78</course>
  <speed>0.02</speed>
  <fix>3d</fix>
</trkpt>
<trkpt lat="-27.2737707" lon="151.2899024">
  <ele>360.43</ele>
  <time>2026-09-01T19:57:35Z</time>
  <course>285.53</course>
  <speed>0.0</speed>
  <fix>3d</fix>
</trkpt>
<trkpt lat="-27.2737707" lon="151.2899027">
  <ele>360.12</ele>
  <time>2026-09-01T19:57:35Z</time>
  <course>105.79</course>
  <speed>0.03</speed>
  <fix>3d</fix>
</trkpt>
<trkpt lat="-27.2737707" lon="151.2899024">
  <ele>360.43</ele>
  <time>2026-09-01T19:57:35Z</time>
  <course>285.53</course>
  <speed>0.0</speed>
  <fix>3d</fix>
</trkpt>
<trkpt lat="-27.2737707" lon="151.2899027">
  <ele>359.98</ele>
  <time>2026-09-01T19:57:35Z</time>
  <course>105.79</course>
  <speed>0.03</speed>
  <fix>3d</fix>
</trkpt>
<trkpt lat="-27.2737707" lon="151.2899024">
  <ele>360.13</ele>
  <time>2026-09-01T19:57:35Z</time>
  <course>111.01</course>
  <speed>0.0</speed>
  <fix>3d</fix>
</trkpt>
<trkpt lat="-27.2737707" lon="151.2899027">
  <ele>359.83</ele>
  <time>2026-09-01T19:57:35Z</time>
  <course>105.78</course>
  <speed>0.04</speed>
  <fix>3d</fix>
</trkpt>
<trkpt lat="-27.2737707" lon="151.2899024">
  <ele>360.13</ele>
  <time>2026-09-01T19:57:35Z</time>
  <course>111.01</course>
  <speed>0.0</speed>
  <fix>3d</fix>
</trkpt>
<trkpt lat="-27.2737707" lon="151.2899027">
  <ele>359.68</ele>
  <time>2026-09-01T19:57:35Z</time>
  <course>105.76</course>
  <speed>0.04</speed>
  <fix>3d</fix>
</trkpt>
<trkpt lat="-27.2737707" lon="151.2899024">
  <ele>359.83</ele>
  <time>2026-09-01T19:57:35Z</time>
  <course>107.61</course>
  <speed>0.01</speed>
  <fix>3d</fix>
</trkpt>
<trkpt lat="-27.2737707" lon="151.2899027">
  <ele>359.54</ele>
  <time>2026-09-01T19:57:35Z</time>
  <course>105.74</course>
  <speed>0.05</speed>
  <fix>3d</fix>
</trkpt>
<trkpt lat="-27.2737707" lon="151.2899024">
  <ele>359.83</ele>
  <time>2026-09-01T19:57:35Z</time>
  <course>107.61</course>
  <speed>0.01</speed>
  <fix>3d</fix>
</trkpt>
<trkpt lat="-27.2737707" lon="151.2899027">
  <ele>359.39</ele>
  <time>2026-09-01T19:57:35Z</time>
  <course>105.72</course>
  <speed>0.05</speed>
  <fix>3d</fix>
</trkpt>
<trkpt lat="-27.2737707" lon="151.2899024">
  <ele>359.54</ele>
  <time>2026-09-01T19:57:35Z</time>
  <course>106.41</course>
  <speed>0.02</speed>
  <fix>3d</fix>
</trkpt>
<trkpt lat="-27.2737707" lon="151.2899027">
  <ele>359.24</ele>
  <time>2026-09-01T19:57:35Z</time>
  <course>105.7</course>
  <speed>0.05</speed>
  <fix>3d</fix>
</trkpt>
<trkpt lat="-27.2737707" lon="151.2899024">
  <ele>359.54</ele>
  <time>2026-09-01T19:57:35Z</time>
  <course>106.41</course>
  <speed>0.02</speed>
  <fix>3d</fix>
</trkpt>
<trkpt lat="-27.2737707" lon="151.2899028">
  <ele>359.09</ele>
  <time>2026-09-01T19:57:35Z</time>
  <course>105.69</course>
  <speed>0.06</speed>
  <fix>3d</fix>
</trkpt>
<trkpt lat="-27.2737707" lon="151.2899024">
  <ele>359.24</ele>
  <time>2026-09-01T19:57:35Z</time>
  <course>105.97</course>
  <speed>0.03</speed>
  <fix>3d</fix>
</trkpt>
<trkpt lat="-27.2737707" lon="151.2899028">
  <ele>358.94</ele>
  <time>2026-09-01T19:57:35Z</time>
  <course>105.69</course>
  <speed>0.06</speed>
  <fix>3d</fix>
</trkpt>
<trkpt lat="-27.2737707" lon="151.2899024">
  <ele>359.24</ele>
  <time>2026-09-01T19:57:35Z</time>
  <course>105.97</course>
  <speed>0.03</speed>
  <fix>3d</fix>
</trkpt>
<trkpt lat="-27.2737707" lon="151.2899028">
  <ele>358.79</ele>
  <time>2026-09-01T19:57:35Z</time>
  <course>105.7</course>
  <speed>0.06</speed>
  <fix>3d</fix>
</trkpt>
<trkpt lat="-27.2737707" lon="151.2899024">
  <ele>358.94</ele>
  <time>2026-09-01T19:57:35Z</time>
  <course>105.99</course>
  <speed>0.03</speed>
  <fix>3d</fix>
</trkpt>
<trkpt lat="-27.2737707" lon="151.2899028">
  <ele>358.64</ele>
  <time>2026-09-01T19:57:35Z</time>
  <course>105.71</course>
  <speed>0.06</speed>
  <fix>3d</fix>
</trkpt>
<trkpt lat="-27.2737707" lon="151.2899024">
  <ele>358.94</ele>
  <time>2026-09-01T19:57:35Z</time>
  <course>105.99</course>
  <speed>0.03</speed>
  <fix>3d</fix>
</trkpt>
<trkpt lat="-27.2737707" lon="151.2899029">
  <ele>358.49</ele>
  <time>2026-09-01T19:57:35Z</time>
  <course>105.72</course>
  <speed>0.07</speed>
  <fix>3d</fix>
</trkpt>
<trkpt lat="-27.2737707" lon="151.2899025">
  <ele>358.64</ele>
  <time>2026-09-01T19:57:35Z</time>
  <course>106.26</course>
  <speed>0.04</speed>
  <fix>3d</fix>
</trkpt>
<trkpt lat="-27.2737707" lon="151.2899029">
  <ele>358.34</ele>
  <time>2026-09-01T19:57:35Z</time>
  <course>105.74</course>
  <speed>0.07</speed>
  <fix>3d</fix>
</trkpt>
<trkpt lat="-27.2737707" lon="151.2899025">
  <ele>358.64</ele>
  <time>2026-09-01T19:57:35Z</time>
  <course>106.26</course>
  <speed>0.04</speed>
  <fix>3d</fix>
</trkpt>
<trkpt lat="-27.2737707" lon="151.289903">
  <ele>358.19</ele>
  <time>2026-09-01T19:57:35Z</time>
  <course>105.76</course>
  <speed>0.07</speed>
  <fix>3d</fix>
</trkpt>
<trkpt lat="-27.2737707" lon="151.2899026">
  <ele>358.34</ele>
  <time>2026-09-01T19:57:35Z</time>
  <course>106.43</course>
  <speed>0.04</speed>
  <fix>3d</fix>
</trkpt>
<trkpt lat="-27.2737707" lon="151.289903">
  <ele>358.04</ele>
  <time>2026-09-01T19:57:35Z</time>
  <course>105.78</course>
  <speed>0.07</speed>
  <fix>3d</fix>
</trkpt>
<trkpt lat="-27.2737707" lon="151.2899026">
  <ele>358.34</ele>
  <time>2026-09-01T19:57:35Z</time>
  <course>106.43</course>
  <speed>0.04</speed>
  <fix>3d</fix>
</trkpt>
<trkpt lat="-27.2737707" lon="151.289903">
  <ele>357.89</ele>
  <time>2026-09-01T19:57:35Z</time>
  <course>105.79</course>
  <speed>0.07</speed>
  <fix>3d</fix>
</trkpt>
<trkpt lat="-27.2737707" lon="151.2899027">
  <ele>358.04</ele>
  <time>2026-09-01T19:57:35Z</time>
  <course>106.56</course>
  <speed>0.05</speed>
  <fix>3d</fix>
</trkpt>
<trkpt lat="-27.2737707" lon="151.2899031">
  <ele>357.74</ele>
  <time>2026-09-01T19:57:35Z</time>
  <course>105.8</course>
  <speed>0.07</speed>
  <fix>3d</fix>
</trkpt>
<trkpt lat="-27.2737707" lon="151.2899027">
  <ele>358.04</ele>
  <time>2026-09-01T19:57:35Z</time>
  <course>106.56</course>
  <speed>0.05</speed>
  <fix>3d</fix>
</trkpt>
<trkpt lat="-27.2737707" lon="151.2899031">
  <ele>357.59</ele>
  <time>2026-09-01T19:57:35Z</time>
  <course>105.8</course>
  <speed>0.08</speed>
  <fix>3d</fix>
</trkpt>
<trkpt lat="-27.2737707" lon="151.2899028">
  <ele>357.73</ele>
  <time>2026-09-01T19:57:35Z</time>
  <course>106.97</course>
  <speed>0.05</speed>
  <fix>3d</fix>
</trkpt>
<trkpt lat="-27.2737707" lon="151.2899032">
  <ele>357.44</ele>
  <time>2026-09-01T19:57:35Z</time>
  <course>105.8</course>
  <speed>0.08</speed>
  <fix>3d</fix>
</trkpt>
<trkpt lat="-27.2737707" lon="151.2899028">
  <ele>357.73</ele>
  <time>2026-09-01T19:57:35Z</time>
  <course>106.97</course>
  <speed>0.05</speed>
  <fix>3d</fix>
</trkpt>
<trkpt lat="-27.2737707" lon="151.2899032">
  <ele>357.29</ele>
  <time>2026-09-01T19:57:35Z</time>
  <course>105.8</course>
  <speed>0.08</speed>
  <fix>3d</fix>
</trkpt>
<trkpt lat="-27.2737708" lon="151.2899029">
  <ele>357.43</ele>
  <time>2026-09-01T19:57:35Z</time>
  <course>107.21</course>
  <speed>0.06</speed>
  <fix>3d</fix>
</trkpt>
<trkpt lat="-27.2737707" lon="151.2899033">
  <ele>357.14</ele>
  <time>2026-09-01T19:57:35Z</time>
  <course>105.8</course>
  <speed>0.08</speed>
  <fix>3d</fix>
</trkpt>
<trkpt lat="-27.2737708" lon="151.2899029">
  <ele>357.43</ele>
  <time>2026-09-01T19:57:35Z</time>
  <course>107.21</course>
  <speed>0.06</speed>
  <fix>3d</fix>
</trkpt>
<trkpt lat="-27.2737707" lon="151.2899033">
  <ele>356.98</ele>
  <time>2026-09-01T19:57:35Z</time>
  <course>105.8</course>
  <speed>0.08</speed>
  <fix>3d</fix>
</trkpt>
<trkpt lat="-27.2737708" lon="151.2899031">
  <ele>357.13</ele>
  <time>2026-09-01T19:57:35Z</time>
  <course>107.25</course>
  <speed>0.06</speed>
  <fix>3d</fix>
</trkpt>
<trkpt lat="-27.2737707" lon="151.2899034">
  <ele>356.83</ele>
  <time>2026-09-01T19:57:35Z</time>
  <course>105.79</course>
  <speed>0.08</speed>
  <fix>3d</fix>
</trkpt>
<trkpt lat="-27.2737708" lon="151.2899031">
  <ele>357.13</ele>
  <time>2026-09-01T19:57:35Z</time>
  <course>107.25</course>
  <speed>0.06</speed>
  <fix>3d</fix>
</trkpt>
<trkpt lat="-27.2737707" lon="151.2899035">
  <ele>356.68</ele>
  <time>2026-09-01T19:57:35Z</time>
  <course>105.78</course>
  <speed>0.08</speed>
  <fix>3d</fix>
</trkpt>
<trkpt lat="-27.2737708" lon="151.2899032">
  <ele>356.83</ele>
  <time>2026-09-01T19:57:35Z</time>
  <course>107.28</course>
  <speed>0.06</speed>
  <fix>3d</fix>
</trkpt>
<trkpt lat="-27.2737707" lon="151.2899035">
  <ele>356.53</ele>
  <time>2026-09-01T19:57:35Z</time>
  <course>105.78</course>
  <speed>0.08</speed>
  <fix>3d</fix>
</trkpt>
<trkpt lat="-27.2737708" lon="151.2899032">
  <ele>356.83</ele>
  <time>2026-09-01T19:57:35Z</time>
  <course>107.28</course>
  <speed>0.06</speed>
  <fix>3d</fix>
</trkpt>
<trkpt lat="-27.2737707" lon="151.2899036">
  <ele>356.38</ele>
  <time>2026-09-01T19:57:35Z</time>
  <course>105.78</course>
  <speed>0.08</speed>
  <fix>3d</fix>
</trkpt>
<trkpt lat="-27.2737709" lon="151.2899033">
  <ele>356.53</ele>
  <time>2026-09-01T19:57:35Z</time>
  <course>107.18</course>
  <speed>0.06</speed>
  <fix>3d</fix>
</trkpt>
<trkpt lat="-27.2737708" lon="151.2899036">
  <ele>356.23</ele>
  <time>2026-09-01T19:57:35Z</time>
  <course>105.79</course>
  <speed>0.08</speed>
  <fix>3d</fix>
</trkpt>
<trkpt lat="-27.2737709" lon="151.2899033">
  <ele>356.53</ele>
  <time>2026-09-01T19:57:35Z</time>
  <course>107.18</course>
  <speed>0.06</speed>
  <fix>3d</fix>
</trkpt>
<trkpt lat="-27.2737708" lon="151.2899037">
  <ele>356.08</ele>
  <time>2026-09-01T19:57:35Z</time>
  <course>105.8</course>
  <speed>0.08</speed>
  <fix>3d</fix>
</trkpt>
<trkpt lat="-27.2737709" lon="151.2899034">
  <ele>356.22</ele>
  <time>2026-09-01T19:57:35Z</time>
  <course>107.27</course>
  <speed>0.06</speed>
  <fix>3d</fix>
</trkpt>
<trkpt lat="-27.2737708" lon="151.2899037">
  <ele>355.93</ele>
  <time>2026-09-01T19:57:35Z</time>
  <course>105.81</course>
  <speed>0.08</speed>
  <fix>3d</fix>
</trkpt>
<trkpt lat="-27.2737709" lon="151.2899034">
  <ele>356.22</ele>
  <time>2026-09-01T19:57:35Z</time>
  <course>107.27</course>
  <speed>0.06</speed>
  <fix>3d</fix>
</trkpt>
<trkpt lat="-27.2737708" lon="151.2899038">
  <ele>355.78</ele>
  <time>2026-09-01T19:57:35Z</time>
  <course>105.81</course>
  <speed>0.08</speed>
  <fix>3d</fix>
</trkpt>
<trkpt lat="-27.2737709" lon="151.2899035">
  <ele>355.93</ele>
  <time>2026-09-01T19:57:35Z</time>
  <course>107.46</course>
  <speed>0.06</speed>
  <fix>3d</fix>
</trkpt>
<trkpt lat="-27.2737708" lon="151.2899039">
  <ele>355.63</ele>
  <time>2026-09-01T19:57:35Z</time>
  <course>105.8</course>
  <speed>0.07</speed>
  <fix>3d</fix>
</trkpt>
<trkpt lat="-27.2737709" lon="151.2899035">
  <ele>355.93</ele>
  <time>2026-09-01T19:57:35Z</time>
  <course>107.46</course>
  <speed>0.06</speed>
  <fix>3d</fix>
</trkpt>
<trkpt lat="-27.2737708" lon="151.2899039">
  <ele>355.48</ele>
  <time>2026-09-01T19:57:35Z</time>
  <course>105.79</course>
  <speed>0.07</speed>
  <fix>3d</fix>
</trkpt>
<trkpt lat="-27.273771" lon="151.2899037">
  <ele>355.63</ele>
  <time>2026-09-01T19:57:35Z</time>
  <course>107.63</course>
  <speed>0.05</speed>
  <fix>3d</fix>
</trkpt>
<trkpt lat="-27.2737708" lon="151.289904">
  <ele>355.33</ele>
  <time>2026-09-01T19:57:35Z</time>
  <course>105.79</course>
  <speed>0.07</speed>
  <fix>3d</fix>
</trkpt>
<trkpt lat="-27.273771" lon="151.2899037">
  <ele>355.63</ele>
  <time>2026-09-01T19:57:35Z</time>
  <course>107.63</course>
  <speed>0.05</speed>
  <fix>3d</fix>
</trkpt>
<trkpt lat="-27.2737708" lon="151.289904">
  <ele>355.19</ele>
  <time>2026-09-01T19:57:35Z</time>
  <course>105.8</course>
  <speed>0.07</speed>
  <fix>3d</fix>
</trkpt>
<trkpt lat="-27.273771" lon="151.2899038">
  <ele>355.33</ele>
  <time>2026-09-01T19:57:35Z</time>
  <course>108.19</course>
  <speed>0.05</speed>
  <fix>3d</fix>
</trkpt>
<trkpt lat="-27.2737709" lon="151.2899041">
  <ele>355.04</ele>
  <time>2026-09-01T19:57:35Z</time>
  <course>105.82</course>
  <speed>0.07</speed>
  <fix>3d</fix>
</trkpt>
<trkpt lat="-27.273771" lon="151.2899038">
  <ele>355.33</ele>
  <time>2026-09-01T19:57:35Z</time>
  <course>108.19</course>
  <speed>0.05</speed>
  <fix>3d</fix>
</trkpt>
<trkpt lat="-27.2737709" lon="151.2899041">
  <ele>354.89</ele>
  <time>2026-09-01T19:57:35Z</time>
  <course>105.85</course>
  <speed>0.07</speed>
  <fix>3d</fix>
</trkpt>
<trkpt lat="-27.273771" lon="151.2899039">
  <ele>355.04</ele>
  <time>2026-09-01T19:57:35Z</time>
  <course>108.88</course>
  <speed>0.05</speed>
  <fix>3d</fix>
</trkpt>
<trkpt lat="-27.2737709" lon="151.2899042">
  <ele>354.74</ele>
  <time>2026-09-01T19:57:35Z</time>
  <course>105.87</course>
  <speed>0.07</speed>
  <fix>3d</fix>
</trkpt>
<trkpt lat="-27.273771" lon="151.2899039">
  <ele>355.04</ele>
  <time>2026-09-01T19:57:35Z</time>
  <course>108.88</course>
  <speed>0.05</speed>
  <fix>3d</fix>
</trkpt>
<trkpt lat="-27.2737709" lon="151.2899042">
  <ele>354.59</ele>
  <time>2026-09-01T19:57:35Z</time>
  <course>105.88</course>
  <speed>0.06</speed>
  <fix>3d</fix>
</trkpt>
<trkpt lat="-27.2737711" lon="151.289904">
  <ele>354.74</ele>
  <time>2026-09-01T19:57:35Z</time>
  <course>109.08</course>
  <speed>0.04</speed>
  <fix>3d</fix>
</trkpt>
<trkpt lat="-27.2737709" lon="151.2899043">
  <ele>354.44</ele>
  <time>2026-09-01T19:57:35Z</time>
  <course>105.89</course>
  <speed>0.06</speed>
  <fix>3d</fix>
</trkpt>
<trkpt lat="-27.2737711" lon="151.289904">
  <ele>354.74</ele>
  <time>2026-09-01T19:57:35Z</time>
  <course>109.08</course>
  <speed>0.04</speed>
  <fix>3d</fix>
</trkpt>
<trkpt lat="-27.2737709" lon="151.2899043">
  <ele>354.29</ele>
  <time>2026-09-01T19:57:35Z</time>
  <course>105.9</course>
  <speed>0.06</speed>
  <fix>3d</fix>
</trkpt>
<trkpt lat="-27.2737711" lon="151.2899041">
  <ele>354.44</ele>
  <time>2026-09-01T19:57:35Z</time>
  <course>109.06</course>
  <speed>0.04</speed>
  <fix>3d</fix>
</trkpt>
<trkpt lat="-27.2737709" lon="151.2899043">
  <ele>354.14</ele>
  <time>2026-09-01T19:57:35Z</time>
  <course>105.91</course>
  <speed>0.06</speed>
  <fix>3d</fix>
</trkpt>
<trkpt lat="-27.2737711" lon="151.2899041">
  <ele>354.44</ele>
  <time>2026-09-01T19:57:35Z</time>
  <course>109.06</course>
  <speed>0.04</speed>
  <fix>3d</fix>
</trkpt>
<trkpt lat="-27.2737709" lon="151.2899044">
  <ele>353.99</ele>
  <time>2026-09-01T19:57:35Z</time>
  <course>105.91</course>
  <speed>0.06</speed>
  <fix>3d</fix>
</trkpt>
<trkpt lat="-27.2737711" lon="151.2899041">
  <ele>354.14</ele>
  <time>2026-09-01T19:57:35Z</time>
  <course>109.08</course>
  <speed>0.04</speed>
  <fix>3d</fix>
</trkpt>
<trkpt lat="-27.273771" lon="151.2899044">
  <ele>353.85</ele>
  <time>2026-09-01T19:57:35Z</time>
  <course>105.92</course>
  <speed>0.05</speed>
  <fix>3d</fix>
</trkpt>
<trkpt lat="-27.2737711" lon="151.2899041">
  <ele>354.14</ele>
  <time>2026-09-01T19:57:35Z</time>
  <course>109.08</course>
  <speed>0.04</speed>
  <fix>3d</fix>
</trkpt>
<trkpt lat="-27.273771" lon="151.2899045">
  <ele>353.71</ele>
  <time>2026-09-01T19:57:35Z</time>
  <course>105.92</course>
  <speed>0.05</speed>
  <fix>3d</fix>
</trkpt>
<trkpt lat="-27.2737712" lon="151.2899042">
  <ele>353.85</ele>
  <time>2026-09-01T19:57:35Z</time>
  <course>108.94</course>
  <speed>0.03</speed>
  <fix>3d</fix>
</trkpt>
<trkpt lat="-27.273771" lon="151.2899045">
  <ele>353.57</ele>
  <time>2026-09-01T19:57:35Z</time>
  <course>105.92</course>
  <speed>0.05</speed>
  <fix>3d</fix>
</trkpt>
<trkpt lat="-27.2737712" lon="151.2899042">
  <ele>353.85</ele>
  <time>2026-09-01T19:57:35Z</time>
  <course>108.94</course>
  <speed>0.03</speed>
  <fix>3d</fix>
</trkpt>
<trkpt lat="-27.273771" lon="151.2899045">
  <ele>353.43</ele>
  <time>2026-09-01T19:57:35Z</time>
  <course>105.93</course>
  <speed>0.05</speed>
  <fix>3d</fix>
</trkpt>
<trkpt lat="-27.2737712" lon="151.2899043">
  <ele>353.57</ele>
  <time>2026-09-01T19:57:35Z</time>
  <course>108.53</course>
  <speed>0.03</speed>
  <fix>3d</fix>
</trkpt>
<trkpt lat="-27.273771" lon="151.2899045">
  <ele>353.29</ele>
  <time>2026-09-01T19:57:35Z</time>
  <course>105.93</course>
  <speed>0.04</speed>
  <fix>3d</fix>
</trkpt>
<trkpt lat="-27.2737712" lon="151.2899043">
  <ele>353.57</ele>
  <time>2026-09-01T19:57:35Z</time>
  <course>108.53</course>
  <speed>0.03</speed>
  <fix>3d</fix>
</trkpt>
<trkpt lat="-27.273771" lon="151.2899046">
  <ele>353.16</ele>
  <time>2026-09-01T19:57:35Z</time>
  <course>105.94</course>
  <speed>0.04</speed>
  <fix>3d</fix>
</trkpt>
<trkpt lat="-27.2737712" lon="151.2899043">
  <ele>353.29</ele>
  <time>2026-09-01T19:57:35Z</time>
  <course>107.54</course>
  <speed>0.02</speed>
  <fix>3d</fix>
</trkpt>
<trkpt lat="-27.273771" lon="151.2899046">
  <ele>353.03</ele>
  <time>2026-09-01T19:57:35Z</time>
  <course>105.95</course>
  <speed>0.0412310562561766</speed>
  <fix>3d</fix>
</trkpt>
<trkpt lat="-27.2737712" lon="151.2899043">
  <ele>353.29</ele>
  <time>2026-09-01T19:57:35Z</time>
  <course>107.54</course>
  <speed>0.02</speed>
  <fix>3d</fix>
</trkpt>
<trkpt lat="-27.273771" lon="151.2899046">
  <ele>352.9</ele>
  <time>2026-09-01T19:57:35Z</time>
  <course>105.95</course>
  <speed>0.0412310562561766</speed>
  <fix>3d</fix>
</trkpt>
<trkpt lat="-27.2737712" lon="151.2899043">
  <ele>353.03</ele>
  <time>2026-09-01T19:57:35Z</time>
  <course>105.09</course>
  <speed>0.01</speed>
  <fix>3d</fix>
</trkpt>
<trkpt lat="-27.273771" lon="151.2899046">
  <ele>352.78</ele>
  <time>2026-09-01T19:57:35Z</time>
  <course>105.96</course>
  <speed>0.0316227766016838</speed>
  <fix>3d</fix>
</trkpt>
<trkpt lat="-27.2737712" lon="151.2899043">
  <ele>353.03</ele>
  <time>2026-09-01T19:57:35Z</time>
  <course>105.09</course>
  <speed>0.01</speed>
  <fix>3d</fix>
</trkpt>
<trkpt lat="-27.273771" lon="151.2899046">
  <ele>352.66</ele>
  <time>2026-09-01T19:57:35Z</time>
  <course>105.98</course>
  <speed>0.0316227766016838</speed>
  <fix>3d</fix>
</trkpt>
<trkpt lat="-27.2737712" lon="151.2899044">
  <ele>352.78</ele>
  <time>2026-09-01T19:57:35Z</time>
  <course>97.62</course>
  <speed>0.01</speed>
  <fix>3d</fix>
</trkpt>
<trkpt lat="-27.273771" lon="151.2899046">
  <ele>352.54</ele>
  <time>2026-09-01T19:57:35Z</time>
  <course>105.98</course>
  <speed>0.0316227766016838</speed>
  <fix>3d</fix>
</trkpt>
<trkpt lat="-27.2737712" lon="151.2899044">
  <ele>352.78</ele>
  <time>2026-09-01T19:57:35Z</time>
  <course>97.62</course>
  <speed>0.01</speed>
  <fix>3d</fix>
</trkpt>
<trkpt lat="-27.273771" lon="151.2899046">
  <ele>352.42</ele>
  <time>2026-09-01T19:57:35Z</time>
  <course>105.98</course>
  <speed>0.022360679774997897</speed>
  <fix>3d</fix>
</trkpt>
<trkpt lat="-27.2737712" lon="151.2899045">
  <ele>352.54</ele>
  <time>2026-09-01T19:57:35Z</time>
  <course>78.62</course>
  <speed>0.0</speed>
  <fix>3d</fix>
</trkpt>
<trkpt lat="-27.273771" lon="151.2899046">
  <ele>352.3</ele>
  <time>2026-09-01T19:57:35Z</time>
  <course>105.97</course>
  <speed>0.022360679774997897</speed>
  <fix>3d</fix>
</trkpt>
<trkpt lat="-27.2737712" lon="151.2899045">
  <ele>352.54</ele>
  <time>2026-09-01T19:57:35Z</time>
  <course>78.62</course>
  <speed>0.0</speed>
  <fix>3d</fix>
</trkpt>
<trkpt lat="-27.273771" lon="151.2899046">
  <ele>352.19</ele>
  <time>2026-09-01T19:57:35Z</time>
  <course>105.95</course>
  <speed>0.022360679774997897</speed>
  <fix>3d</fix>
</trkpt>
<trkpt lat="-27.2737712" lon="151.2899045">
  <ele>352.3</ele>
  <time>2026-09-01T19:57:35Z</time>
  <course>346.82</course>
  <speed>0.0</speed>
  <fix>3d</fix>
</trkpt>
<trkpt lat="-27.273771" lon="151.2899046">
  <ele>352.08</ele>
  <time>2026-09-01T19:57:35Z</time>
  <course>105.95</course>
  <speed>0.01414213562373095</speed>
  <fix>3d</fix>
</trkpt>
<trkpt lat="-27.2737712" lon="151.2899045">
  <ele>352.3</ele>
  <time>2026-09-01T19:57:35Z</time>
  <course>346.82</course>
  <speed>0.0</speed>
  <fix>3d</fix>
</trkpt>
<trkpt lat="-27.273771" lon="151.2899046">
  <ele>351.97</ele>
  <time>2026-09-01T19:57:35Z</time>
  <course>105.93</course>
  <speed>0.01414213562373095</speed>
  <fix>3d</fix>
</trkpt>
<trkpt lat="-27.2737712" lon="151.2899045">
  <ele>352.08</ele>
  <time>2026-09-01T19:57:35Z</time>
  <course>306.41</course>
  <speed>0.0</speed>
  <fix>3d</fix>
</trkpt>
<trkpt lat="-27.273771" lon="151.2899046">
  <ele>351.86</ele>
  <time>2026-09-01T19:57:35Z</time>
  <course>105.93</course>
  <speed>0.01414213562373095</speed>
  <fix>3d</fix>
</trkpt>
<trkpt lat="-27.2737712" lon="151.2899045">
  <ele>352.08</ele>
  <time>2026-09-01T19:57:35Z</time>
  <course>306.41</course>
  <speed>0.0</speed>
  <fix>3d</fix>
</trkpt>
<trkpt lat="-27.273771" lon="151.2899046">
  <ele>351.75</ele>
  <time>2026-09-01T19:57:35Z</time>
  <course>105.93</course>
  <speed>0.01414213562373095</speed>
  <fix>3d</fix>
</trkpt>
<trkpt lat="-27.2737712" lon="151.2899045">
  <ele>351.86</ele>
  <time>2026-09-01T19:57:35Z</time>
  <course>297.77</course>
  <speed>0.01</speed>
  <fix>3d</fix>
</trkpt>
<trkpt lat="-27.273771" lon="151.2899046">
  <ele>351.65</ele>
  <time>2026-09-01T19:57:35Z</time>
  <course>105.94</course>
  <speed>0.01414213562373095</speed>
  <fix>3d</fix>
</trkpt>
<trkpt lat="-27.2737712" lon="151.2899045">
  <ele>351.86</ele>
  <time>2026-09-01T19:57:35Z</time>
  <course>297.77</course>
  <speed>0.01</speed>
  <fix>3d</fix>
</trkpt>
<trkpt lat="-27.273771" lon="151.2899046">
  <ele>351.55</ele>
  <time>2026-09-01T19:57:35Z</time>
  <course>105.95</course>
  <speed>0.01</speed>
  <fix>3d</fix>
</trkpt>
<trkpt lat="-27.2737712" lon="151.2899045">
  <ele>351.65</ele>
  <time>2026-09-01T19:57:35Z</time>
  <course>295.01</course>
  <speed>0.01</speed>
  <fix>3d</fix>
</trkpt>
<trkpt lat="-27.273771" lon="151.2899046">
  <ele>351.46</ele>
  <time>2026-09-01T19:57:36Z</time>
  <course>105.95</course>
  <speed>0.01</speed>
  <fix>3d</fix>
</trkpt>
<trkpt lat="-27.2737712" lon="151.2899045">
  <ele>351.65</ele>
  <time>2026-09-01T19:57:36Z</time>
  <course>295.01</course>
  <speed>0.01</speed>
  <fix>3d</fix>
</trkpt>
<trkpt lat="-27.273771" lon="151.2899046">
  <ele>351.36</ele>
  <time>2026-09-01T19:57:36Z</time>
  <course>105.95</course>
  <speed>0.01</speed>
  <fix>3d</fix>
</trkpt>
<trkpt lat="-27.2737712" lon="151.2899045">
  <ele>351.45</ele>
  <time>2026-09-01T19:57:36Z</time>
  <course>293.16</course>
  <speed>0.02</speed>
  <fix>3d</fix>
</trkpt>
<trkpt lat="-27.273771" lon="151.2899046">
  <ele>351.26</ele>
  <time>2026-09-01T19:57:36Z</time>
  <course>105.95</course>
  <speed>0.01</speed>
  <fix>3d</fix>
</trkpt>
<trkpt lat="-27.2737712" lon="151.2899045">
  <ele>351.45</ele>
  <time>2026-09-01T19:57:36Z</time>
  <course>293.16</course>
  <speed>0.02</speed>
  <fix>3d</fix>
</trkpt>
<trkpt lat="-27.273771" lon="151.2899046">
  <ele>351.17</ele>
  <time>2026-09-01T19:57:36Z</time>
  <course>105.95</course>
  <speed>0.01</speed>
  <fix>3d</fix>
</trkpt>
<trkpt lat="-27.2737712" lon="151.2899044">
  <ele>351.26</ele>
  <time>2026-09-01T19:57:36Z</time>
  <course>292.11</course>
  <speed>0.02</speed>
  <fix>3d</fix>
</trkpt>
<trkpt lat="-27.273771" lon="151.2899046">
  <ele>351.07</ele>
  <time>2026-09-01T19:57:36Z</time>
  <course>105.94</course>
  <speed>0.01</speed>
  <fix>3d</fix>
</trkpt>
<trkpt lat="-27.2737712" lon="151.2899044">
  <ele>351.26</ele>
  <time>2026-09-01T19:57:36Z</time>
  <course>292.11</course>
  <speed>0.02</speed>
  <fix>3d</fix>
</trkpt>
<trkpt lat="-27.273771" lon="151.2899046">
  <ele>350.98</ele>
  <time>2026-09-01T19:57:36Z</time>
  <course>105.93</course>
  <speed>0.01</speed>
  <fix>3d</fix>
</trkpt>
<trkpt lat="-27.2737712" lon="151.2899043">
  <ele>351.07</ele>
  <time>2026-09-01T19:57:36Z</time>
  <course>291.24</course>
  <speed>0.02</speed>
  <fix>3d</fix>
</trkpt>
<trkpt lat="-27.273771" lon="151.2899046">
  <ele>350.89</ele>
  <time>2026-09-01T19:57:36Z</time>
  <course>105.92</course>
  <speed>0.01</speed>
  <fix>3d</fix>
</trkpt>
<trkpt lat="-27.2737712" lon="151.2899043">
  <ele>351.07</ele>
  <time>2026-09-01T19:57:36Z</time>
  <course>291.24</course>
  <speed>0.02</speed>
  <fix>3d</fix>
</trkpt>
<trkpt lat="-27.273771" lon="151.2899046">
  <ele>350.8</ele>
  <time>2026-09-01T19:57:36Z</time>
  <course>105.91</course>
  <speed>0.01</speed>
  <fix>3d</fix>
</trkpt>
<trkpt lat="-27.2737712" lon="151.2899043">
  <ele>350.89</ele>
  <time>2026-09-01T19:57:36Z</time>
  <course>290.28</course>
  <speed>0.03</speed>
  <fix>3d</fix>
</trkpt>
<trkpt lat="-27.273771" lon="151.2899045">
  <ele>350.72</ele>
  <time>2026-09-01T19:57:36Z</time>
  <course>105.9</course>
  <speed>0.01</speed>
  <fix>3d</fix>
</trkpt>
<trkpt lat="-27.2737712" lon="151.2899043">
  <ele>350.89</ele>
  <time>2026-09-01T19:57:36Z</time>
  <course>290.28</course>
  <speed>0.03</speed>
  <fix>3d</fix>
</trkpt>
<trkpt lat="-27.273771" lon="151.2899045">
  <ele>350.63</ele>
  <time>2026-09-01T19:57:36Z</time>
  <course>105.9</course>
  <speed>0.01</speed>
  <fix>3d</fix>
</trkpt>
<trkpt lat="-27.2737712" lon="151.2899042">
  <ele>350.72</ele>
  <time>2026-09-01T19:57:36Z</time>
  <course>289.78</course>
  <speed>0.03</speed>
  <fix>3d</fix>
</trkpt>
<trkpt lat="-27.273771" lon="151.2899045">
  <ele>350.55</ele>
  <time>2026-09-01T19:57:36Z</time>
  <course>105.89</course>
  <speed>0.01</speed>
  <fix>3d</fix>
</trkpt>
<trkpt lat="-27.2737712" lon="151.2899042">
  <ele>350.72</ele>
  <time>2026-09-01T19:57:36Z</time>
  <course>289.78</course>
  <speed>0.03</speed>
  <fix>3d</fix>
</trkpt>
<trkpt lat="-27.273771" lon="151.2899044">
  <ele>350.47</ele>
  <time>2026-09-01T19:57:36Z</time>
  <course>105.89</course>
  <speed>0.01</speed>
  <fix>3d</fix>
</trkpt>
<trkpt lat="-27.2737712" lon="151.2899042">
  <ele>350.55</ele>
  <time>2026-09-01T19:57:36Z</time>
  <course>289.67</course>
  <speed>0.03</speed>
  <fix>3d</fix>
</trkpt>
<trkpt lat="-27.273771" lon="151.2899044">
  <ele>350.39</ele>
  <time>2026-09-01T19:57:36Z</time>
  <course>105.89</course>
  <speed>0.01</speed>
  <fix>3d</fix>
</trkpt>
<trkpt lat="-27.2737712" lon="151.2899042">
  <ele>350.55</ele>
  <time>2026-09-01T19:57:36Z</time>
  <course>289.67</course>
  <speed>0.03</speed>
  <fix>3d</fix>
</trkpt>
<trkpt lat="-27.273771" lon="151.2899044">
  <ele>350.31</ele>
  <time>2026-09-01T19:57:36Z</time>
  <course>105.89</course>
  <speed>0.01</speed>
  <fix>3d</fix>
</trkpt>
<trkpt lat="-27.2737711" lon="151.2899041">
  <ele>350.39</ele>
  <time>2026-09-01T19:57:36Z</time>
  <course>289.38</course>
  <speed>0.03</speed>
  <fix>3d</fix>
</trkpt>
<trkpt lat="-27.273771" lon="151.2899043">
  <ele>350.23</ele>
  <time>2026-09-01T19:57:36Z</time>
  <course>105.88</course>
  <speed>0.01</speed>
  <fix>3d</fix>
</trkpt>
<trkpt lat="-27.2737711" lon="151.2899041">
  <ele>350.39</ele>
  <time>2026-09-01T19:57:36Z</time>
  <course>289.38</course>
  <speed>0.03</speed>
  <fix>3d</fix>
</trkpt>
<trkpt lat="-27.273771" lon="151.2899043">
  <ele>350.16</ele>
  <time>2026-09-01T19:57:36Z</time>
  <course>105.88</course>
  <speed>0.01</speed>
  <fix>3d</fix>
</trkpt>
<trkpt lat="-27.2737711" lon="151.289904">
  <ele>350.23</ele>
  <time>2026-09-01T19:57:36Z</time>
  <course>289.06</course>
  <speed>0.03</speed>
  <fix>3d</fix>
</trkpt>
<trkpt lat="-27.273771" lon="151.2899043">
  <ele>350.08</ele>
  <time>2026-09-01T19:57:36Z</time>
  <course>105.88</course>
  <speed>0.01</speed>
  <fix>3d</fix>
</trkpt>
<trkpt lat="-27.2737711" lon="151.289904">
  <ele>350.23</ele>
  <time>2026-09-01T19:57:36Z</time>
  <course>289.06</course>
  <speed>0.03</speed>
  <fix>3d</fix>
</trkpt>
<trkpt lat="-27.273771" lon="151.2899043">
  <ele>350.01</ele>
  <time>2026-09-01T19:57:36Z</time>
  <course>105.88</course>
  <speed>0.01</speed>
  <fix>3d</fix>
</trkpt>
<trkpt lat="-27.2737711" lon="151.2899039">
  <ele>350.08</ele>
  <time>2026-09-01T19:57:36Z</time>
  <course>289.06</course>
  <speed>0.03</speed>
  <fix>3d</fix>
</trkpt>
<trkpt lat="-27.273771" lon="151.2899042">
  <ele>349.93</ele>
  <time>2026-09-01T19:57:36Z</time>
  <course>105.89</course>
  <speed>0.01</speed>
  <fix>3d</fix>
</trkpt>
<trkpt lat="-27.2737711" lon="151.2899039">
  <ele>350.08</ele>
  <time>2026-09-01T19:57:36Z</time>
  <course>289.06</course>
  <speed>0.03</speed>
  <fix>3d</fix>
</trkpt>
<trkpt lat="-27.273771" lon="151.2899042">
  <ele>349.86</ele>
  <time>2026-09-01T19:57:36Z</time>
  <course>105.9</course>
  <speed>0.01</speed>
  <fix>3d</fix>
</trkpt>
<trkpt lat="-27.2737711" lon="151.2899038">
  <ele>349.94</ele>
  <time>2026-09-01T19:57:36Z</time>
  <course>289.3</course>
  <speed>0.03</speed>
  <fix>3d</fix>
</trkpt>
<trkpt lat="-27.273771" lon="151.2899042">
  <ele>349.79</ele>
  <time>2026-09-01T19:57:36Z</time>
  <course>105.91</course>
  <speed>0.01</speed>
  <fix>3d</fix>
</trkpt>
<trkpt lat="-27.2737711" lon="151.2899038">
  <ele>349.94</ele>
  <time>2026-09-01T19:57:36Z</time>
  <course>289.3</course>
  <speed>0.03</speed>
  <fix>3d</fix>
</trkpt>
<trkpt lat="-27.273771" lon="151.2899041">
  <ele>349.73</ele>
  <time>2026-09-01T19:57:36Z</time>
  <course>105.91</course>
  <speed>0.01</speed>
  <fix>3d</fix>
</trkpt>
<trkpt lat="-27.273771" lon="151.2899038">
  <ele>349.8</ele>
  <time>2026-09-01T19:57:36Z</time>
  <course>289.47</course>
  <speed>0.03</speed>
  <fix>3d</fix>
</trkpt>
<trkpt lat="-27.273771" lon="151.2899041">
  <ele>349.66</ele>
  <time>2026-09-01T19:57:36Z</time>
  <course>105.91</course>
  <speed>0.01</speed>
  <fix>3d</fix>
</trkpt>
<trkpt lat="-27.273771" lon="151.2899038">
  <ele>349.8</ele>
  <time>2026-09-01T19:57:36Z</time>
  <course>289.47</course>
  <speed>0.03</speed>
  <fix>3d</fix>
</trkpt>
<trkpt lat="-27.273771" lon="151.2899041">
  <ele>349.6</ele>
  <time>2026-09-01T19:57:36Z</time>
  <course>105.9</course>
  <speed>0.01</speed>
  <fix>3d</fix>
</trkpt>
<trkpt lat="-27.273771" lon="151.2899037">
  <ele>349.66</ele>
  <time>2026-09-01T19:57:36Z</time>
  <course>289.4</course>
  <speed>0.03</speed>
  <fix>3d</fix>
</trkpt>
<trkpt lat="-27.273771" lon="151.289904">
  <ele>349.53</ele>
  <time>2026-09-01T19:57:36Z</time>
  <course>105.89</course>
  <speed>0.01</speed>
  <fix>3d</fix>
</trkpt>
<trkpt lat="-27.273771" lon="151.2899037">
  <ele>349.66</ele>
  <time>2026-09-01T19:57:36Z</time>
  <course>289.4</course>
  <speed>0.03</speed>
  <fix>3d</fix>
</trkpt>
<trkpt lat="-27.273771" lon="151.289904">
  <ele>349.47</ele>
  <time>2026-09-01T19:57:36Z</time>
  <course>105.88</course>
  <speed>0.01</speed>
  <fix>3d</fix>
</trkpt>
<trkpt lat="-27.273771" lon="151.2899037">
  <ele>349.53</ele>
  <time>2026-09-01T19:57:36Z</time>
  <course>289.61</course>
  <speed>0.02</speed>
  <fix>3d</fix>
</trkpt>
<trkpt lat="-27.273771" lon="151.289904">
  <ele>349.41</ele>
  <time>2026-09-01T19:57:36Z</time>
  <course>105.88</course>
  <speed>0.01</speed>
  <fix>3d</fix>
</trkpt>
<trkpt lat="-27.273771" lon="151.2899037">
  <ele>349.53</ele>
  <time>2026-09-01T19:57:36Z</time>
  <course>289.61</course>
  <speed>0.02</speed>
  <fix>3d</fix>
</trkpt>
<trkpt lat="-27.273771" lon="151.289904">
  <ele>349.34</ele>
  <time>2026-09-01T19:57:36Z</time>
  <course>105.88</course>
  <speed>0.01</speed>
  <fix>3d</fix>
</trkpt>
<trkpt lat="-27.273771" lon="151.2899036">
  <ele>349.4</ele>
  <time>2026-09-01T19:57:36Z</time>
  <course>290.1</course>
  <speed>0.02</speed>
  <fix>3d</fix>
</trkpt>
<trkpt lat="-27.273771" lon="151.2899039">
  <ele>349.28</ele>
  <time>2026-09-01T19:57:36Z</time>
  <course>105.88</course>
  <speed>0.01414213562373095</speed>
  <fix>3d</fix>
</trkpt>
<trkpt lat="-27.273771" lon="151.2899036">
  <ele>349.4</ele>
  <time>2026-09-01T19:57:36Z</time>
  <course>290.1</course>
  <speed>0.02</speed>
  <fix>3d</fix>
</trkpt>
<trkpt lat="-27.273771" lon="151.2899039">
  <ele>349.23</ele>
  <time>2026-09-01T19:57:36Z</time>
  <course>105.87</course>
  <speed>0.01414213562373095</speed>
  <fix>3d</fix>
</trkpt>
<trkpt lat="-27.273771" lon="151.2899036">
  <ele>349.28</ele>
  <time>2026-09-01T19:57:36Z</time>
  <course>290.49</course>
  <speed>0.02</speed>
  <fix>3d</fix>
</trkpt>
<trkpt lat="-27.273771" lon="151.2899039">
  <ele>349.17</ele>
  <time>2026-09-01T19:57:36Z</time>
  <course>105.88</course>
  <speed>0.01414213562373095</speed>
  <fix>3d</fix>
</trkpt>
<trkpt lat="-27.273771" lon="151.2899036">
  <ele>349.28</ele>
  <time>2026-09-01T19:57:36Z</time>
  <course>290.49</course>
  <speed>0.02</speed>
  <fix>3d</fix>
</trkpt>
<trkpt lat="-27.273771" lon="151.2899039">
  <ele>349.11</ele>
  <time>2026-09-01T19:57:36Z</time>
  <course>105.88</course>
  <speed>0.01414213562373095</speed>
  <fix>3d</fix>
</trkpt>
<trkpt lat="-27.273771" lon="151.2899036">
  <ele>349.16</ele>
  <time>2026-09-01T19:57:36Z</time>
  <course>291.2</course>
  <speed>0.01</speed>
  <fix>3d</fix>
</trkpt>
<trkpt lat="-27.273771" lon="151.2899039">
  <ele>349.05</ele>
  <time>2026-09-01T19:57:36Z</time>
  <course>105.89</course>
  <speed>0.01414213562373095</speed>
  <fix>3d</fix>
</trkpt>
<trkpt lat="-27.273771" lon="151.2899036">
  <ele>349.16</ele>
  <time>2026-09-01T19:57:36Z</time>
  <course>291.2</course>
  <speed>0.01</speed>
  <fix>3d</fix>
</trkpt>
<trkpt lat="-27.273771" lon="151.2899039">
  <ele>349.0</ele>
  <time>2026-09-01T19:57:36Z</time>
  <course>105.89</course>
  <speed>0.01414213562373095</speed>
  <fix>3d</fix>
</trkpt>
<trkpt lat="-27.273771" lon="151.2899035">
  <ele>349.04</ele>
  <time>2026-09-01T19:57:36Z</time>
  <course>292.41</course>
  <speed>0.01</speed>
  <fix>3d</fix>
</trkpt>
<trkpt lat="-27.273771" lon="151.2899038">
  <ele>348.94</ele>
  <time>2026-09-01T19:57:36Z</time>
  <course>105.89</course>
  <speed>0.022360679774997897</speed>
  <fix>3d</fix>
</trkpt>
<trkpt lat="-27.273771" lon="151.2899035">
  <ele>349.04</ele>
  <time>2026-09-01T19:57:36Z</time>
  <course>292.41</course>
  <speed>0.01</speed>
  <fix>3d</fix>
</trkpt>
<trkpt lat="-27.2737709" lon="151.2899038">
  <ele>348.89</ele>
  <time>2026-09-01T19:57:36Z</time>
  <course>105.89</course>
  <speed>0.022360679774997897</speed>
  <fix>3d</fix>
</trkpt>
<trkpt lat="-27.2737709" lon="151.2899034">
  <ele>348.94</ele>
  <time>2026-09-01T19:57:36Z</time>
  <course>294.04</course>
  <speed>0.01</speed>
  <fix>3d</fix>
</trkpt>
<trkpt lat="-27.2737709" lon="151.2899038">
  <ele>348.83</ele>
  <time>2026-09-01T19:57:36Z</time>
  <course>105.88</course>
  <speed>0.022360679774997897</speed>
  <fix>3d</fix>
</trkpt>
<trkpt lat="-27.2737709" lon="151.2899034">
  <ele>348.94</ele>
  <time>2026-09-01T19:57:36Z</time>
  <course>294.04</course>
  <speed>0.01</speed>
  <fix>3d</fix>
</trkpt>
<trkpt lat="-27.2737709" lon="151.2899038">
  <ele>348.78</ele>
  <time>2026-09-01T19:57:36Z</time>
  <course>105.87</course>
  <speed>0.022360679774997897</speed>
  <fix>3d</fix>
</trkpt>
<trkpt lat="-27.2737709" lon="151.2899034">
  <ele>348.83</ele>
  <time>2026-09-01T19:57:36Z</time>
  <course>296.42</course>
  <speed>0.0</speed>
  <fix>3d</fix>
</trkpt>
<trkpt lat="-27.2737709" lon="151.2899038">
  <ele>348.73</ele>
  <time>2026-09-01T19:57:36Z</time>
  <course>105.87</course>
  <speed>0.022360679774997897</speed>
  <fix>3d</fix>
</trkpt>
<trkpt lat="-27.2737709" lon="151.2899034">
  <ele>348.83</ele>
  <time>2026-09-01T19:57:36Z</time>
  <course>296.42</course>
  <speed>0.0</speed>
  <fix>3d</fix>
</trkpt>
<trkpt lat="-27.2737709" lon="151.2899038">
  <ele>348.68</ele>
  <time>2026-09-01T19:57:36Z</time>
  <course>105.87</course>
  <speed>0.022360679774997897</speed>
  <fix>3d</fix>
</trkpt>
<trkpt lat="-27.2737709" lon="151.2899034">
  <ele>348.72</ele>
  <time>2026-09-01T19:57:36Z</time>
  <course>302.72</course>
  <speed>0.0</speed>
  <fix>3d</fix>
</trkpt>
<trkpt lat="-27.2737709" lon="151.2899038">
  <ele>348.63</ele>
  <time>2026-09-01T19:57:36Z</time>
  <course>105.88</course>
  <speed>0.022360679774997897</speed>
  <fix>3d</fix>
</trkpt>
<trkpt lat="-27.2737709" lon="151.2899034">
  <ele>348.72</ele>
  <time>2026-09-01T19:57:36Z</time>
  <course>302.72</course>
  <speed>0.0</speed>
  <fix>3d</fix>
</trkpt>
<trkpt lat="-27.2737709" lon="151.2899038">
  <ele>348.58</ele>
  <time>2026-09-01T19:57:36Z</time>
  <course>105.89</course>
  <speed>0.03</speed>
  <fix>3d</fix>
</trkpt>
<trkpt lat="-27.2737709" lon="151.2899034">
  <ele>348.63</ele>
  <time>2026-09-01T19:57:36Z</time>
  <course>323.09</course>
  <speed>0.0</speed>
  <fix>3d</fix>
</trkpt>
<trkpt lat="-27.2737709" lon="151.2899038">
  <ele>348.53</ele>
  <time>2026-09-01T19:57:36Z</time>
  <course>105.88</course>
  <speed>0.03</speed>
  <fix>3d</fix>
</trkpt>
<trkpt lat="-27.2737709" lon="151.2899034">
  <ele>348.63</ele>
  <time>2026-09-01T19:57:36Z</time>
  <course>323.09</course>
  <speed>0.0</speed>
  <fix>3d</fix>
</trkpt>
<trkpt lat="-27.2737709" lon="151.2899038">
  <ele>348.48</ele>
  <time>2026-09-01T19:57:36Z</time>
  <course>105.83</course>
  <speed>0.03</speed>
  <fix>3d</fix>
</trkpt>
<trkpt lat="-27.2737709" lon="151.2899034">
  <ele>348.53</ele>
  <time>2026-09-01T19:57:36Z</time>
  <course>138.74</course>
  <speed>0.0</speed>
  <fix>3d</fix>
</trkpt>
<trkpt lat="-27.2737709" lon="151.2899038">
  <ele>348.43</ele>
  <time>2026-09-01T19:57:36Z</time>
  <course>105.77</course>
  <speed>0.03</speed>
  <fix>3d</fix>
</trkpt>
<trkpt lat="-27.2737709" lon="151.2899034">
  <ele>348.53</ele>
  <time>2026-09-01T19:57:36Z</time>
  <course>138.74</course>
  <speed>0.0</speed>
  <fix>3d</fix>
</trkpt>
<trkpt lat="-27.2737709" lon="151.2899038">
  <ele>348.38</ele>
  <time>2026-09-01T19:57:36Z</time>
  <course>105.7</course>
  <speed>0.03</speed>
  <fix>3d</fix>
</trkpt>
<trkpt lat="-27.2737709" lon="151.2899034">
  <ele>348.43</ele>
  <time>2026-09-01T19:57:36Z</time>
  <course>150.12</course>
  <speed>0.0</speed>
  <fix>3d</fix>
</trkpt>
<trkpt lat="-27.2737709" lon="151.2899038">
  <ele>348.33</ele>
  <time>2026-09-01T19:57:36Z</time>
  <course>105.65</course>
  <speed>0.03</speed>
  <fix>3d</fix>
</trkpt>
<trkpt lat="-27.2737709" lon="151.2899034">
  <ele>348.43</ele>
  <time>2026-09-01T19:57:36Z</time>
  <course>150.12</course>
  <speed>0.0</speed>
  <fix>3d</fix>
</trkpt>
<trkpt lat="-27.2737709" lon="151.2899038">
  <ele>348.28</ele>
  <time>2026-09-01T19:57:36Z</time>
  <course>105.62</course>
  <speed>0.03</speed>
  <fix>3d</fix>
</trkpt>
<trkpt lat="-27.2737709" lon="151.2899034">
  <ele>348.34</ele>
  <time>2026-09-01T19:57:36Z</time>
  <course>150.78</course>
  <speed>0.01</speed>
  <fix>3d</fix>
</trkpt>
<trkpt lat="-27.2737709" lon="151.2899038">
  <ele>348.23</ele>
  <time>2026-09-01T19:57:36Z</time>
  <course>105.6</course>
  <speed>0.03</speed>
  <fix>3d</fix>
</trkpt>
<trkpt lat="-27.2737709" lon="151.2899034">
  <ele>348.34</ele>
  <time>2026-09-01T19:57:36Z</time>
  <course>150.78</course>
  <speed>0.01</speed>
  <fix>3d</fix>
</trkpt>
<trkpt lat="-27.2737709" lon="151.2899038">
  <ele>348.18</ele>
  <time>2026-09-01T19:57:36Z</time>
  <course>105.6</course>
  <speed>0.03</speed>
  <fix>3d</fix>
</trkpt>
<trkpt lat="-27.2737709" lon="151.2899034">
  <ele>348.24</ele>
  <time>2026-09-01T19:57:36Z</time>
  <course>150.78</course>
  <speed>0.01</speed>
  <fix>3d</fix>
</trkpt>
<trkpt lat="-27.2737709" lon="151.2899038">
  <ele>348.14</ele>
  <time>2026-09-01T19:57:36Z</time>
  <course>105.61</course>
  <speed>0.04</speed>
  <fix>3d</fix>
</trkpt>
<trkpt lat="-27.2737709" lon="151.2899034">
  <ele>348.24</ele>
  <time>2026-09-01T19:57:36Z</time>
  <course>150.78</course>
  <speed>0.01</speed>
  <fix>3d</fix>
</trkpt>
<trkpt lat="-27.2737709" lon="151.2899038">
  <ele>348.09</ele>
  <time>2026-09-01T19:57:36Z</time>
  <course>105.62</course>
  <speed>0.04</speed>
  <fix>3d</fix>
</trkpt>
<trkpt lat="-27.2737709" lon="151.2899034">
  <ele>348.14</ele>
  <time>2026-09-01T19:57:36Z</time>
  <course>149.98</course>
  <speed>0.02</speed>
  <fix>3d</fix>
</trkpt>
<trkpt lat="-27.2737709" lon="151.2899038">
  <ele>348.04</ele>
  <time>2026-09-01T19:57:36Z</time>
  <course>105.64</course>
  <speed>0.04</speed>
  <fix>3d</fix>
</trkpt>
<trkpt lat="-27.2737709" lon="151.2899034">
  <ele>348.14</ele>
  <time>2026-09-01T19:57:36Z</time>
  <course>149.98</course>
  <speed>0.02</speed>
  <fix>3d</fix>
</trkpt>
<trkpt lat="-27.2737709" lon="151.2899038">
  <ele>347.99</ele>
  <time>2026-09-01T19:57:36Z</time>
  <course>105.65</course>
  <speed>0.0412310562561766</speed>
  <fix>3d</fix>
</trkpt>
<trkpt lat="-27.2737709" lon="151.2899034">
  <ele>348.03</ele>
  <time>2026-09-01T19:57:36Z</time>
  <course>148.24</course>
  <speed>0.02</speed>
  <fix>3d</fix>
</trkpt>
<trkpt lat="-27.2737709" lon="151.2899038">
  <ele>347.94</ele>
  <time>2026-09-01T19:57:36Z</time>
  <course>105.67</course>
  <speed>0.0412310562561766</speed>
  <fix>3d</fix>
</trkpt>
<trkpt lat="-27.2737709" lon="151.2899034">
  <ele>348.03</ele>
  <time>2026-09-01T19:57:36Z</time>
  <course>148.24</course>
  <speed>0.02</speed>
  <fix>3d</fix>
</trkpt>
<trkpt lat="-27.2737709" lon="151.2899038">
  <ele>347.89</ele>
  <time>2026-09-01T19:57:36Z</time>
  <course>105.67</course>
  <speed>0.0412310562561766</speed>
  <fix>3d</fix>
</trkpt>
<trkpt lat="-27.273771" lon="151.2899034">
  <ele>347.93</ele>
  <time>2026-09-01T19:57:36Z</time>
  <course>147.35</course>
  <speed>0.02</speed>
  <fix>3d</fix>
</trkpt>
<trkpt lat="-27.2737709" lon="151.2899038">
  <ele>347.83</ele>
  <time>2026-09-01T19:57:36Z</time>
  <course>105.68</course>
  <speed>0.0412310562561766</speed>
  <fix>3d</fix>
</trkpt>
<trkpt lat="-27.273771" lon="151.2899034">
  <ele>347.93</ele>
  <time>2026-09-01T19:57:36Z</time>
  <course>147.35</course>
  <speed>0.02</speed>
  <fix>3d</fix>
</trkpt>
<trkpt lat="-27.273771" lon="151.2899038">
  <ele>347.78</ele>
  <time>2026-09-01T19:57:36Z</time>
  <course>105.68</course>
  <speed>0.0412310562561766</speed>
  <fix>3d</fix>
</trkpt>
<trkpt lat="-27.273771" lon="151.2899034">
  <ele>347.83</ele>
  <time>2026-09-01T19:57:36Z</time>
  <course>146.92</course>
  <speed>0.03</speed>
  <fix>3d</fix>
</trkpt>
<trkpt lat="-27.273771" lon="151.2899038">
  <ele>347.73</ele>
  <time>2026-09-01T19:57:36Z</time>
  <course>105.68</course>
  <speed>0.0412310562561766</speed>
  <fix>3d</fix>
</trkpt>
<trkpt lat="-27.273771" lon="151.2899034">
  <ele>347.83</ele>
  <time>2026-09-01T19:57:36Z</time>
  <course>146.92</course>
  <speed>0.03</speed>
  <fix>3d</fix>
</trkpt>
<trkpt lat="-27.273771" lon="151.2899038">
  <ele>347.68</ele>
  <time>2026-09-01T19:57:36Z</time>
  <course>105.69</course>
  <speed>0.0412310562561766</speed>
  <fix>3d</fix>
</trkpt>
<trkpt lat="-27.2737711" lon="151.2899035">
  <ele>347.72</ele>
  <time>2026-09-01T19:57:36Z</time>
  <course>145.78</course>
  <speed>0.03</speed>
  <fix>3d</fix>
</trkpt>
<trkpt lat="-27.273771" lon="151.2899038">
  <ele>347.63</ele>
  <time>2026-09-01T19:57:36Z</time>
  <course>105.69</course>
  <speed>0.0412310562561766</speed>
  <fix>3d</fix>
</trkpt>
<trkpt lat="-27.2737711" lon="151.2899035">
  <ele>347.72</ele>
  <time>2026-09-01T19:57:36Z</time>
  <course>145.78</course>
  <speed>0.03</speed>
  <fix>3d</fix>
</trkpt>
<trkpt lat="-27.273771" lon="151.2899038">
  <ele>347.58</ele>
  <time>2026-09-01T19:57:36Z</time>
  <course>105.68</course>
  <speed>0.05099019513592785</speed>
  <fix>3d</fix>
</trkpt>
<trkpt lat="-27.2737711" lon="151.2899036">
  <ele>347.63</ele>
  <time>2026-09-01T19:57:36Z</time>
  <course>145.02</course>
  <speed>0.03</speed>
  <fix>3d</fix>
</trkpt>
<trkpt lat="-27.2737711" lon="151.2899039">
  <ele>347.53</ele>
  <time>2026-09-01T19:57:36Z</time>
  <course>105.67</course>
  <speed>0.05099019513592785</speed>
  <fix>3d</fix>
</trkpt>
<trkpt lat="-27.2737711" lon="151.2899036">
  <ele>347.63</ele>
  <time>2026-09-01T19:57:36Z</time>
  <course>145.02</course>
  <speed>0.03</speed>
  <fix>3d</fix>
</trkpt>
<trkpt lat="-27.2737711" lon="151.2899039">
  <ele>347.48</ele>
  <time>2026-09-01T19:57:36Z</time>
  <course>105.66</course>
  <speed>0.05099019513592785</speed>
  <fix>3d</fix>
</trkpt>
<trkpt lat="-27.2737712" lon="151.2899036">
  <ele>347.53</ele>
  <time>2026-09-01T19:57:36Z</time>
  <course>144.95</course>
  <speed>0.04</speed>
  <fix>3d</fix>
</trkpt>
<trkpt lat="-27.2737711" lon="151.2899039">
  <ele>347.43</ele>
  <time>2026-09-01T19:57:36Z</time>
  <course>105.66</course>
  <speed>0.05099019513592785</speed>
  <fix>3d</fix>
</trkpt>
<trkpt lat="-27.2737712" lon="151.2899036">
  <ele>347.53</ele>
  <time>2026-09-01T19:57:36Z</time>
  <course>144.95</course>
  <speed>0.04</speed>
  <fix>3d</fix>
</trkpt>
<trkpt lat="-27.2737711" lon="151.2899039">
  <ele>347.38</ele>
  <time>2026-09-01T19:57:36Z</time>
  <course>105.66</course>
  <speed>0.05099019513592785</speed>
  <fix>3d</fix>
</trkpt>
<trkpt lat="-27.2737712" lon="151.2899037">
  <ele>347.43</ele>
  <time>2026-09-01T19:57:36Z</time>
  <course>144.71</course>
  <speed>0.04</speed>
  <fix>3d</fix>
</trkpt>
<trkpt lat="-27.2737712" lon="151.2899039">
  <ele>347.33</ele>
  <time>2026-09-01T19:57:36Z</time>
  <course>105.66</course>
  <speed>0.05099019513592785</speed>
  <fix>3d</fix>
</trkpt>
<trkpt lat="-27.2737712" lon="151.2899037">
  <ele>347.43</ele>
  <time>2026-09-01T19:57:36Z</time>
  <course>144.71</course>
  <speed>0.04</speed>
  <fix>3d</fix>
</trkpt>
<trkpt lat="-27.2737712" lon="151.289904">
  <ele>347.28</ele>
  <time>2026-09-01T19:57:36Z</time>
  <course>105.66</course>
  <speed>0.05099019513592785</speed>
  <fix>3d</fix>
</trkpt>
<trkpt lat="-27.2737713" lon="151.2899037">
  <ele>347.33</ele>
  <time>2026-09-01T19:57:36Z</time>
  <course>143.92</course>
  <speed>0.04</speed>
  <fix>3d</fix>
</trkpt>
<trkpt lat="-27.2737712" lon="151.289904">
  <ele>347.23</ele>
  <time>2026-09-01T19:57:36Z</time>
  <course>105.66</course>
  <speed>0.05099019513592785</speed>
  <fix>3d</fix>
</trkpt>
<trkpt lat="-27.2737713" lon="151.2899037">
  <ele>347.33</ele>
  <time>2026-09-01T19:57:36Z</time>
  <course>143.92</course>
  <speed>0.04</speed>
  <fix>3d</fix>
</trkpt>
<trkpt lat="-27.2737712" lon="151.289904">
  <ele>347.18</ele>
  <time>2026-09-01T19:57:36Z</time>
  <course>105.66</course>
  <speed>0.05099019513592785</speed>
  <fix>3d</fix>
</trkpt>
<trkpt lat="-27.2737714" lon="151.2899038">
  <ele>347.22</ele>
  <time>2026-09-01T19:57:36Z</time>
  <course>142.34</course>
  <speed>0.04</speed>
  <fix>3d</fix>
</trkpt>
<trkpt lat="-27.2737713" lon="151.289904">
  <ele>347.13</ele>
  <time>2026-09-01T19:57:36Z</time>
  <course>105.66</course>
  <speed>0.05099019513592785</speed>
  <fix>3d</fix>
</trkpt>
<trkpt lat="-27.2737714" lon="151.2899038">
  <ele>347.22</ele>
  <time>2026-09-01T19:57:36Z</time>
  <course>142.34</course>
  <speed>0.04</speed>
  <fix>3d</fix>
</trkpt>
<trkpt lat="-27.2737713" lon="151.2899041">
  <ele>347.08</ele>
  <time>2026-09-01T19:57:36Z</time>
  <course>105.66</course>
  <speed>0.05099019513592785</speed>
  <fix>3d</fix>
</trkpt>
<trkpt lat="-27.2737714" lon="151.2899038">
  <ele>347.13</ele>
  <time>2026-09-01T19:57:36Z</time>
  <course>140.46</course>
  <speed>0.04</speed>
  <fix>3d</fix>
</trkpt>
<trkpt lat="-27.2737713" lon="151.2899041">
  <ele>347.03</ele>
  <time>2026-09-01T19:57:36Z</time>
  <course>105.65</course>
  <speed>0.05099019513592785</speed>
  <fix>3d</fix>
</trkpt>
<trkpt lat="-27.2737714" lon="151.2899038">
  <ele>347.13</ele>
  <time>2026-09-01T19:57:36Z</time>
  <course>140.46</course>
  <speed>0.04</speed>
  <fix>3d</fix>
</trkpt>
<trkpt lat="-27.2737713" lon="151.2899041">
  <ele>346.98</ele>
  <time>2026-09-01T19:57:36Z</time>
  <course>105.65</course>
  <speed>0.05099019513592785</speed>
  <fix>3d</fix>
</trkpt>
<trkpt lat="-27.2737715" lon="151.2899038">
  <ele>347.03</ele>
  <time>2026-09-01T19:57:36Z</time>
  <course>139.32</course>
  <speed>0.04</speed>
  <fix>3d</fix>
</trkpt>
<trkpt lat="-27.2737714" lon="151.2899042">
  <ele>346.93</ele>
  <time>2026-09-01T19:57:36Z</time>
  <course>105.66</course>
  <speed>0.05099019513592785</speed>
  <fix>3d</fix>
</trkpt>
<trkpt lat="-27.2737715" lon="151.2899038">
  <ele>347.03</ele>
  <time>2026-09-01T19:57:36Z</time>
  <course>139.32</course>
  <speed>0.04</speed>
  <fix>3d</fix>
</trkpt>
<trkpt lat="-27.2737714" lon="151.2899042">
  <ele>346.88</ele>
  <time>2026-09-01T19:57:36Z</time>
  <course>105.66</course>
  <speed>0.05</speed>
  <fix>3d</fix>
</trkpt>
<trkpt lat="-27.2737715" lon="151.2899039">
  <ele>346.92</ele>
  <time>2026-09-01T19:57:36Z</time>
  <course>138.91</course>
  <speed>0.03</speed>
  <fix>3d</fix>
</trkpt>
<trkpt lat="-27.2737714" lon="151.2899042">
  <ele>346.83</ele>
  <time>2026-09-01T19:57:36Z</time>
  <course>105.67</course>
  <speed>0.05</speed>
  <fix>3d</fix>
</trkpt>
<trkpt lat="-27.2737715" lon="151.2899039">
  <ele>346.92</ele>
  <time>2026-09-01T19:57:36Z</time>
  <course>138.91</course>
  <speed>0.03</speed>
  <fix>3d</fix>
</trkpt>
<trkpt lat="-27.2737714" lon="151.2899042">
  <ele>346.79</ele>
  <time>2026-09-01T19:57:36Z</time>
  <course>105.66</course>
  <speed>0.04</speed>
  <fix>3d</fix>
</trkpt>
<trkpt lat="-27.2737716" lon="151.289904">
  <ele>346.82</ele>
  <time>2026-09-01T19:57:36Z</time>
  <course>138.44</course>
  <speed>0.03</speed>
  <fix>3d</fix>
</trkpt>
<trkpt lat="-27.2737714" lon="151.2899042">
  <ele>346.74</ele>
  <time>2026-09-01T19:57:36Z</time>
  <course>105.65</course>
  <speed>0.04</speed>
  <fix>3d</fix>
</trkpt>
<trkpt lat="-27.2737716" lon="151.289904">
  <ele>346.82</ele>
  <time>2026-09-01T19:57:36Z</time>
  <course>138.44</course>
  <speed>0.03</speed>
  <fix>3d</fix>
</trkpt>
<trkpt lat="-27.2737715" lon="151.2899043">
  <ele>346.69</ele>
  <time>2026-09-01T19:57:36Z</time>
  <course>105.65</course>
  <speed>0.04</speed>
  <fix>3d</fix>
</trkpt>
<trkpt lat="-27.2737716" lon="151.289904">
  <ele>346.72</ele>
  <time>2026-09-01T19:57:36Z</time>
  <course>137.43</course>
  <speed>0.03</speed>
  <fix>3d</fix>
</trkpt>
<trkpt lat="-27.2737715" lon="151.2899043">
  <ele>346.64</ele>
  <time>2026-09-01T19:57:36Z</time>
  <course>105.65</course>
  <speed>0.04</speed>
  <fix>3d</fix>
</trkpt>
<trkpt lat="-27.2737716" lon="151.289904">
  <ele>346.72</ele>
  <time>2026-09-01T19:57:36Z</time>
  <course>137.43</course>
  <speed>0.03</speed>
  <fix>3d</fix>
</trkpt>
<trkpt lat="-27.2737715" lon="151.2899043">
  <ele>346.59</ele>
  <time>2026-09-01T19:57:36Z</time>
  <course>105.65</course>
  <speed>0.04</speed>
  <fix>3d</fix>
</trkpt>
<trkpt lat="-27.2737717" lon="151.2899041">
  <ele>346.62</ele>
  <time>2026-09-01T19:57:36Z</time>
  <course>135.62</course>
  <speed>0.02</speed>
  <fix>3d</fix>
</trkpt>
<trkpt lat="-27.2737715" lon="151.2899043">
  <ele>346.53</ele>
  <time>2026-09-01T19:57:36Z</time>
  <course>105.65</course>
  <speed>0.04</speed>
  <fix>3d</fix>
</trkpt>
<trkpt lat="-27.2737717" lon="151.2899041">
  <ele>346.62</ele>
  <time>2026-09-01T19:57:36Z</time>
  <course>135.62</course>
  <speed>0.02</speed>
  <fix>3d</fix>
</trkpt>
<trkpt lat="-27.2737715" lon="151.2899043">
  <ele>346.48</ele>
  <time>2026-09-01T19:57:36Z</time>
  <course>105.65</course>
  <speed>0.04</speed>
  <fix>3d</fix>
</trkpt>
<trkpt lat="-27.2737717" lon="151.2899041">
  <ele>346.52</ele>
  <time>2026-09-01T19:57:36Z</time>
  <course>133.01</course>
  <speed>0.02</speed>
  <fix>3d</fix>
</trkpt>
<trkpt lat="-27.2737715" lon="151.2899043">
  <ele>346.43</ele>
  <time>2026-09-01T19:57:36Z</time>
  <course>105.65</course>
  <speed>0.04</speed>
  <fix>3d</fix>
</trkpt>
<trkpt lat="-27.2737717" lon="151.2899041">
  <ele>346.52</ele>
  <time>2026-09-01T19:57:36Z</time>
  <course>133.01</course>
  <speed>0.02</speed>
  <fix>3d</fix>
</trkpt>
<trkpt lat="-27.2737715" lon="151.2899044">
  <ele>346.38</ele>
  <time>2026-09-01T19:57:36Z</time>
  <course>105.64</course>
  <speed>0.04</speed>
  <fix>3d</fix>
</trkpt>
<trkpt lat="-27.2737717" lon="151.2899041">
  <ele>346.41</ele>
  <time>2026-09-01T19:57:36Z</time>
  <course>129.86</course>
  <speed>0.01</speed>
  <fix>3d</fix>
</trkpt>
<trkpt lat="-27.2737716" lon="151.2899044">
  <ele>346.33</ele>
  <time>2026-09-01T19:57:36Z</time>
  <course>105.63</course>
  <speed>0.04</speed>
  <fix>3d</fix>
</trkpt>
<trkpt lat="-27.2737717" lon="151.2899041">
  <ele>346.41</ele>
  <time>2026-09-01T19:57:36Z</time>
  <course>129.86</course>
  <speed>0.01</speed>
  <fix>3d</fix>
</trkpt>
<trkpt lat="-27.2737716" lon="151.2899044">
  <ele>346.28</ele>
  <time>2026-09-01T19:57:36Z</time>
  <course>105.62</course>
  <speed>0.04</speed>
  <fix>3d</fix>
</trkpt>
<trkpt lat="-27.2737717" lon="151.2899042">
  <ele>346.32</ele>
  <time>2026-09-01T19:57:36Z</time>
  <course>126.32</course>
  <speed>0.01</speed>
  <fix>3d</fix>
</trkpt>
<trkpt lat="-27.2737716" lon="151.2899044">
  <ele>346.23</ele>
  <time>2026-09-01T19:57:36Z</time>
  <course>105.62</course>
  <speed>0.04</speed>
  <fix>3d</fix>
</trkpt>
<trkpt lat="-27.2737717" lon="151.2899042">
  <ele>346.32</ele>
  <time>2026-09-01T19:57:36Z</time>
  <course>126.32</course>
  <speed>0.01</speed>
  <fix>3d</fix>
</trkpt>
<trkpt lat="-27.2737716" lon="151.2899044">
  <ele>346.18</ele>
  <time>2026-09-01T19:57:36Z</time>
  <course>105.6</course>
  <speed>0.0316227766016838</speed>
  <fix>3d</fix>
</trkpt>
<trkpt lat="-27.2737718" lon="151.2899042">
  <ele>346.21</ele>
  <time>2026-09-01T19:57:36Z</time>
  <course>121.64</course>
  <speed>0.01</speed>
  <fix>3d</fix>
</trkpt>
<trkpt lat="-27.2737716" lon="151.2899044">
  <ele>346.13</ele>
  <time>2026-09-01T19:57:36Z</time>
  <course>105.59</course>
  <speed>0.0316227766016838</speed>
  <fix>3d</fix>
</trkpt>
<trkpt lat="-27.2737718" lon="151.2899042">
  <ele>346.21</ele>
  <time>2026-09-01T19:57:36Z</time>
  <course>121.64</course>
  <speed>0.01</speed>
  <fix>3d</fix>
</trkpt>
<trkpt lat="-27.2737716" lon="151.2899044">
  <ele>346.08</ele>
  <time>2026-09-01T19:57:36Z</time>
  <course>105.57</course>
  <speed>0.0316227766016838</speed>
  <fix>3d</fix>
</trkpt>
<trkpt lat="-27.2737718" lon="151.2899042">
  <ele>346.11</ele>
  <time>2026-09-01T19:57:36Z</time>
  <course>113.54</course>
  <speed>0.0</speed>
  <fix>3d</fix>
</trkpt>
<trkpt lat="-27.2737716" lon="151.2899044">
  <ele>346.03</ele>
  <time>2026-09-01T19:57:36Z</time>
  <course>105.56</course>
  <speed>0.0316227766016838</speed>
  <fix>3d</fix>
</trkpt>
<trkpt lat="-27.2737718" lon="151.2899042">
  <ele>346.11</ele>
  <time>2026-09-01T19:57:36Z</time>
  <course>113.54</course>
  <speed>0.0</speed>
  <fix>3d</fix>
</trkpt>
<trkpt lat="-27.2737716" lon="151.2899045">
  <ele>345.98</ele>
  <time>2026-09-01T19:57:36Z</time>
  <course>105.55</course>
  <speed>0.0316227766016838</speed>
  <fix>3d</fix>
</trkpt>
<trkpt lat="-27.2737718" lon="151.2899042">
  <ele>346.01</ele>
  <time>2026-09-01T19:57:36Z</time>
  <course>99.13</course>
  <speed>0.0</speed>
  <fix>3d</fix>
</trkpt>
<trkpt lat="-27.2737716" lon="151.2899045">
  <ele>345.93</ele>
  <time>2026-09-01T19:57:36Z</time>
  <course>105.53</course>
  <speed>0.0316227766016838</speed>
  <fix>3d</fix>
</trkpt>
<trkpt lat="-27.2737718" lon="151.2899042">
  <ele>346.01</ele>
  <time>2026-09-01T19:57:36Z</time>
  <course>99.13</course>
  <speed>0.0</speed>
  <fix>3d</fix>
</trkpt>
<trkpt lat="-27.2737716" lon="151.2899045">
  <ele>345.88</ele>
  <time>2026-09-01T19:57:36Z</time>
  <course>105.49</course>
  <speed>0.0316227766016838</speed>
  <fix>3d</fix>
</trkpt>
<trkpt lat="-27.2737718" lon="151.2899042">
  <ele>345.9</ele>
  <time>2026-09-01T19:57:36Z</time>
  <course>75.76</course>
  <speed>0.0</speed>
  <fix>3d</fix>
</trkpt>
<trkpt lat="-27.2737716" lon="151.2899045">
  <ele>345.83</ele>
  <time>2026-09-01T19:57:36Z</time>
  <course>105.44</course>
  <speed>0.022360679774997897</speed>
  <fix>3d</fix>
</trkpt>
<trkpt lat="-27.2737718" lon="151.2899042">
  <ele>345.9</ele>
  <time>2026-09-01T19:57:36Z</time>
  <course>75.76</course>
  <speed>0.0</speed>
  <fix>3d</fix>
</trkpt>
<trkpt lat="-27.2737716" lon="151.2899045">
  <ele>345.78</ele>
  <time>2026-09-01T19:57:36Z</time>
  <course>105.38</course>
  <speed>0.022360679774997897</speed>
  <fix>3d</fix>
</trkpt>
<trkpt lat="-27.2737718" lon="151.2899042">
  <ele>345.81</ele>
  <time>2026-09-01T19:57:36Z</time>
  <course>307.48</course>
  <speed>0.0</speed>
  <fix>3d</fix>
</trkpt>
<trkpt lat="-27.2737716" lon="151.2899045">
  <ele>345.73</ele>
  <time>2026-09-01T19:57:36Z</time>
  <course>105.35</course>
  <speed>0.022360679774997897</speed>
  <fix>3d</fix>
</trkpt>
<trkpt lat="-27.2737718" lon="151.2899042">
  <ele>345.81</ele>
  <time>2026-09-01T19:57:36Z</time>
  <course>307.48</course>
  <speed>0.0</speed>
  <fix>3d</fix>
</trkpt>
<trkpt lat="-27.2737716" lon="151.2899045">
  <ele>345.68</ele>
  <time>2026-09-01T19:57:36Z</time>
  <course>105.33</course>
  <speed>0.022360679774997897</speed>
  <fix>3d</fix>
</trkpt>
<trkpt lat="-27.2737718" lon="151.2899042">
  <ele>345.71</ele>
  <time>2026-09-01T19:57:36Z</time>
  <course>272.4</course>
  <speed>0.0</speed>
  <fix>3d</fix>
</trkpt>
<trkpt lat="-27.2737716" lon="151.2899044">
  <ele>345.63</ele>
  <time>2026-09-01T19:57:36Z</time>
  <course>105.32</course>
  <speed>0.022360679774997897</speed>
  <fix>3d</fix>
</trkpt>
<trkpt lat="-27.2737718" lon="151.2899042">
  <ele>345.71</ele>
  <time>2026-09-01T19:57:36Z</time>
  <course>272.4</course>
  <speed>0.0</speed>
  <fix>3d</fix>
</trkpt>
<trkpt lat="-27.2737716" lon="151.2899044">
  <ele>345.58</ele>
  <time>2026-09-01T19:57:36Z</time>
  <course>105.33</course>
  <speed>0.022360679774997897</speed>
  <fix>3d</fix>
</trkpt>
<trkpt lat="-27.2737718" lon="151.2899042">
  <ele>345.61</ele>
  <time>2026-09-01T19:57:36Z</time>
  <course>276.64</course>
  <speed>0.0</speed>
  <fix>3d</fix>
</trkpt>
<trkpt lat="-27.2737716" lon="151.2899044">
  <ele>345.53</ele>
  <time>2026-09-01T19:57:36Z</time>
  <course>105.34</course>
  <speed>0.022360679774997897</speed>
  <fix>3d</fix>
</trkpt>
<trkpt lat="-27.2737718" lon="151.2899042">
  <ele>345.61</ele>
  <time>2026-09-01T19:57:36Z</time>
  <course>276.64</course>
  <speed>0.0</speed>
  <fix>3d</fix>
</trkpt>
<trkpt lat="-27.2737716" lon="151.2899044">
  <ele>345.48</ele>
  <time>2026-09-01T19:57:36Z</time>
  <course>105.35</course>
  <speed>0.022360679774997897</speed>
  <fix>3d</fix>
</trkpt>
<trkpt lat="-27.2737718" lon="151.2899042">
  <ele>345.51</ele>
  <time>2026-09-01T19:57:36Z</time>
  <course>278.58</course>
  <speed>0.0</speed>
  <fix>3d</fix>
</trkpt>
<trkpt lat="-27.2737716" lon="151.2899044">
  <ele>345.43</ele>
  <time>2026-09-01T19:57:36Z</time>
  <course>105.36</course>
  <speed>0.022360679774997897</speed>
  <fix>3d</fix>
</trkpt>
<trkpt lat="-27.2737718" lon="151.2899042">
  <ele>345.51</ele>
  <time>2026-09-01T19:57:36Z</time>
  <course>278.58</course>
  <speed>0.0</speed>
  <fix>3d</fix>
</trkpt>
<trkpt lat="-27.2737716" lon="151.2899044">
  <ele>345.38</ele>
  <time>2026-09-01T19:57:36Z</time>
  <course>105.36</course>
  <speed>0.022360679774997897</speed>
  <fix>3d</fix>
</trkpt>
<trkpt lat="-27.2737718" lon="151.2899042">
  <ele>345.4</ele>
  <time>2026-09-01T19:57:36Z</time>
  <course>278.22</course>
  <speed>0.0</speed>
  <fix>3d</fix>
</trkpt>
<trkpt lat="-27.2737716" lon="151.2899044">
  <ele>345.33</ele>
  <time>2026-09-01T19:57:36Z</time>
  <course>105.35</course>
  <speed>0.022360679774997897</speed>
  <fix>3d</fix>
</trkpt>
<trkpt lat="-27.2737718" lon="151.2899042">
  <ele>345.4</ele>
  <time>2026-09-01T19:57:36Z</time>
  <course>278.22</course>
  <speed>0.0</speed>
  <fix>3d</fix>
</trkpt>
<trkpt lat="-27.2737716" lon="151.2899044">
  <ele>345.28</ele>
  <time>2026-09-01T19:57:36Z</time>
  <course>105.33</course>
  <speed>0.022360679774997897</speed>
  <fix>3d</fix>
</trkpt>
<trkpt lat="-27.2737718" lon="151.2899042">
  <ele>345.3</ele>
  <time>2026-09-01T19:57:36Z</time>
  <course>277.36</course>
  <speed>0.0</speed>
  <fix>3d</fix>
</trkpt>
<trkpt lat="-27.2737716" lon="151.2899044">
  <ele>345.23</ele>
  <time>2026-09-01T19:57:36Z</time>
  <course>105.32</course>
  <speed>0.022360679774997897</speed>
  <fix>3d</fix>
</trkpt>
<trkpt lat="-27.2737718" lon="151.2899042">
  <ele>345.3</ele>
  <time>2026-09-01T19:57:36Z</time>
  <course>277.36</course>
  <speed>0.0</speed>
  <fix>3d</fix>
</trkpt>
<trkpt lat="-27.2737716" lon="151.2899044">
  <ele>345.18</ele>
  <time>2026-09-01T19:57:36Z</time>
  <course>105.31</course>
  <speed>0.022360679774997897</speed>
  <fix>3d</fix>
</trkpt>
<trkpt lat="-27.2737718" lon="151.2899042">
  <ele>345.2</ele>
  <time>2026-09-01T19:57:36Z</time>
  <course>278.08</course>
  <speed>0.01</speed>
  <fix>3d</fix>
</trkpt>
<trkpt lat="-27.2737716" lon="151.2899044">
  <ele>345.13</ele>
  <time>2026-09-01T19:57:36Z</time>
  <course>105.31</course>
  <speed>0.022360679774997897</speed>
  <fix>3d</fix>
</trkpt>
<trkpt lat="-27.2737718" lon="151.2899042">
  <ele>345.2</ele>
  <time>2026-09-01T19:57:36Z</time>
  <course>278.08</course>
  <speed>0.01</speed>
  <fix>3d</fix>
</trkpt>
<trkpt lat="-27.2737716" lon="151.2899044">
  <ele>345.08</ele>
  <time>2026-09-01T19:57:36Z</time>
  <course>105.32</course>
  <speed>0.022360679774997897</speed>
  <fix>3d</fix>
</trkpt>
<trkpt lat="-27.2737718" lon="151.2899042">
  <ele>345.09</ele>
  <time>2026-09-01T19:57:36Z</time>
  <course>278.88</course>
  <speed>0.01</speed>
  <fix>3d</fix>
</trkpt>
<trkpt lat="-27.2737716" lon="151.2899044">
  <ele>345.03</ele>
  <time>2026-09-01T19:57:36Z</time>
  <course>105.33</course>
  <speed>0.01414213562373095</speed>
  <fix>3d</fix>
</trkpt>
<trkpt lat="-27.2737718" lon="151.2899042">
  <ele>345.09</ele>
  <time>2026-09-01T19:57:36Z</time>
  <course>278.88</course>
  <speed>0.01</speed>
  <fix>3d</fix>
</trkpt>
<trkpt lat="-27.2737716" lon="151.2899044">
  <ele>344.98</ele>
  <time>2026-09-01T19:57:36Z</time>
  <course>105.33</course>
  <speed>0.01414213562373095</speed>
  <fix>3d</fix>
</trkpt>
<trkpt lat="-27.2737718" lon="151.2899042">
  <ele>345.0</ele>
  <time>2026-09-01T19:57:36Z</time>
  <course>278.83</course>
  <speed>0.01</speed>
  <fix>3d</fix>
</trkpt>
<trkpt lat="-27.2737716" lon="151.2899044">
  <ele>344.93</ele>
  <time>2026-09-01T19:57:36Z</time>
  <course>105.32</course>
  <speed>0.01414213562373095</speed>
  <fix>3d</fix>
</trkpt>
<trkpt lat="-27.2737718" lon="151.2899042">
  <ele>345.0</ele>
  <time>2026-09-01T19:57:36Z</time>
  <course>278.83</course>
  <speed>0.01</speed>
  <fix>3d</fix>
</trkpt>
<trkpt lat="-27.2737716" lon="151.2899044">
  <ele>344.89</ele>
  <time>2026-09-01T19:57:36Z</time>
  <course>105.31</course>
  <speed>0.01414213562373095</speed>
  <fix>3d</fix>
</trkpt>
<trkpt lat="-27.2737718" lon="151.2899042">
  <ele>344.9</ele>
  <time>2026-09-01T19:57:36Z</time>
  <course>278.85</course>
  <speed>0.01</speed>
  <fix>3d</fix>
</trkpt>
<trkpt lat="-27.2737716" lon="151.2899044">
  <ele>344.84</ele>
  <time>2026-09-01T19:57:36Z</time>
  <course>105.29</course>
  <speed>0.01414213562373095</speed>
  <fix>3d</fix>
</trkpt>
<trkpt lat="-27.2737718" lon="151.2899042">
  <ele>344.9</ele>
  <time>2026-09-01T19:57:36Z</time>
  <course>278.85</course>
  <speed>0.01</speed>
  <fix>3d</fix>
</trkpt>
<trkpt lat="-27.2737716" lon="151.2899044">
  <ele>344.79</ele>
  <time>2026-09-01T19:57:36Z</time>
  <course>105.27</course>
  <speed>0.01414213562373095</speed>
  <fix>3d</fix>
</trkpt>
<trkpt lat="-27.2737718" lon="151.2899041">
  <ele>344.8</ele>
  <time>2026-09-01T19:57:36Z</time>
  <course>278.87</course>
  <speed>0.01</speed>
  <fix>3d</fix>
</trkpt>
<trkpt lat="-27.2737716" lon="151.2899044">
  <ele>344.74</ele>
  <time>2026-09-01T19:57:36Z</time>
  <course>105.25</course>
  <speed>0.01414213562373095</speed>
  <fix>3d</fix>
</trkpt>
<trkpt lat="-27.2737718" lon="151.2899041">
  <ele>344.8</ele>
  <time>2026-09-01T19:57:36Z</time>
  <course>278.87</course>
  <speed>0.01</speed>
  <fix>3d</fix>
</trkpt>
<trkpt lat="-27.2737716" lon="151.2899044">
  <ele>344.68</ele>
  <time>2026-09-01T19:57:36Z</time>
  <course>105.24</course>
  <speed>0.01414213562373095</speed>
  <fix>3d</fix>
</trkpt>
<trkpt lat="-27.2737718" lon="151.2899041">
  <ele>344.7</ele>
  <time>2026-09-01T19:57:36Z</time>
  <course>278.76</course>
  <speed>0.01</speed>
  <fix>3d</fix>
</trkpt>
<trkpt lat="-27.2737716" lon="151.2899044">
  <ele>344.63</ele>
  <time>2026-09-01T19:57:36Z</time>
  <course>105.24</course>
  <speed>0.01414213562373095</speed>
  <fix>3d</fix>
</trkpt>
<trkpt lat="-27.2737718" lon="151.2899041">
  <ele>344.7</ele>
  <time>2026-09-01T19:57:36Z</time>
  <course>278.76</course>
  <speed>0.01</speed>
  <fix>3d</fix>
</trkpt>
<trkpt lat="-27.2737716" lon="151.2899044">
  <ele>344.58</ele>
  <time>2026-09-01T19:57:36Z</time>
  <course>105.25</course>
  <speed>0.01414213562373095</speed>
  <fix>3d</fix>
</trkpt>
<trkpt lat="-27.2737718" lon="151.2899041">
  <ele>344.59</ele>
  <time>2026-09-01T19:57:36Z</time>
  <course>278.83</course>
  <speed>0.01</speed>
  <fix>3d</fix>
</trkpt>
<trkpt lat="-27.2737716" lon="151.2899044">
  <ele>344.53</ele>
  <time>2026-09-01T19:57:36Z</time>
  <course>105.25</course>
  <speed>0.01414213562373095</speed>
  <fix>3d</fix>
</trkpt>
<trkpt lat="-27.2737718" lon="151.2899041">
  <ele>344.59</ele>
  <time>2026-09-01T19:57:36Z</time>
  <course>278.83</course>
  <speed>0.01</speed>
  <fix>3d</fix>
</trkpt>
<trkpt lat="-27.2737716" lon="151.2899044">
  <ele>344.48</ele>
  <time>2026-09-01T19:57:36Z</time>
  <course>105.25</course>
  <speed>0.01414213562373095</speed>
  <fix>3d</fix>
</trkpt>
<trkpt lat="-27.2737718" lon="151.289904">
  <ele>344.49</ele>
  <time>2026-09-01T19:57:36Z</time>
  <course>278.41</course>
  <speed>0.01</speed>
  <fix>3d</fix>
</trkpt>
<trkpt lat="-27.2737716" lon="151.2899044">
  <ele>344.43</ele>
  <time>2026-09-01T19:57:36Z</time>
  <course>105.25</course>
  <speed>0.01414213562373095</speed>
  <fix>3d</fix>
</trkpt>
<trkpt lat="-27.2737718" lon="151.289904">
  <ele>344.49</ele>
  <time>2026-09-01T19:57:36Z</time>
  <course>278.41</course>
  <speed>0.01</speed>
  <fix>3d</fix>
</trkpt>
<trkpt lat="-27.2737716" lon="151.2899043">
  <ele>344.38</ele>
  <time>2026-09-01T19:57:36Z</time>
  <course>105.25</course>
  <speed>0.022360679774997897</speed>
  <fix>3d</fix>
</trkpt>
<trkpt lat="-27.2737718" lon="151.289904">
  <ele>344.39</ele>
  <time>2026-09-01T19:57:36Z</time>
  <course>277.25</course>
  <speed>0.01</speed>
  <fix>3d</fix>
</trkpt>
<trkpt lat="-27.2737716" lon="151.2899043">
  <ele>344.34</ele>
  <time>2026-09-01T19:57:36Z</time>
  <course>105.24</course>
  <speed>0.022360679774997897</speed>
  <fix>3d</fix>
</trkpt>
<trkpt lat="-27.2737718" lon="151.289904">
  <ele>344.39</ele>
  <time>2026-09-01T19:57:36Z</time>
  <course>277.25</course>
  <speed>0.01</speed>
  <fix>3d</fix>
</trkpt>
<trkpt lat="-27.2737716" lon="151.2899043">
  <ele>344.29</ele>
  <time>2026-09-01T19:57:36Z</time>
  <course>105.23</course>
  <speed>0.022360679774997897</speed>
  <fix>3d</fix>
</trkpt>
<trkpt lat="-27.2737718" lon="151.289904">
  <ele>344.28</ele>
  <time>2026-09-01T19:57:36Z</time>
  <course>276.06</course>
  <speed>0.01</speed>
  <fix>3d</fix>
</trkpt>
<trkpt lat="-27.2737716" lon="151.2899043">
  <ele>344.24</ele>
  <time>2026-09-01T19:57:36Z</time>
  <course>105.21</course>
  <speed>0.022360679774997897</speed>
  <fix>3d</fix>
</trkpt>
<trkpt lat="-27.2737718" lon="151.289904">
  <ele>344.28</ele>
  <time>2026-09-01T19:57:36Z</time>
  <course>276.06</course>
  <speed>0.01</speed>
  <fix>3d</fix>
</trkpt>
<trkpt lat="-27.2737716" lon="151.2899043">
  <ele>344.19</ele>
  <time>2026-09-01T19:57:36Z</time>
  <course>105.2</course>
  <speed>0.022360679774997897</speed>
  <fix>3d</fix>
</trkpt>
<trkpt lat="-27.2737718" lon="151.289904">
  <ele>344.19</ele>
  <time>2026-09-01T19:57:36Z</time>
  <course>276.93</course>
  <speed>0.01</speed>
  <fix>3d</fix>
</trkpt>
<trkpt lat="-27.2737716" lon="151.2899043">
  <ele>344.13</ele>
  <time>2026-09-01T19:57:36Z</time>
  <course>105.2</course>
  <speed>0.022360679774997897</speed>
  <fix>3d</fix>
</trkpt>
<trkpt lat="-27.2737718" lon="151.289904">
  <ele>344.19</ele>
  <time>2026-09-01T19:57:36Z</time>
  <course>276.93</course>
  <speed>0.01</speed>
  <fix>3d</fix>
</trkpt>
<trkpt lat="-27.2737716" lon="151.2899043">
  <ele>344.08</ele>
  <time>2026-09-01T19:57:36Z</time>
  <course>105.21</course>
  <speed>0.022360679774997897</speed>
  <fix>3d</fix>
</trkpt>
<trkpt lat="-27.2737718" lon="151.2899039">
  <ele>344.09</ele>
  <time>2026-09-01T19:57:36Z</time>
  <course>282.0</course>
  <speed>0.01</speed>
  <fix>3d</fix>
</trkpt>
<trkpt lat="-27.2737716" lon="151.2899043">
  <ele>344.03</ele>
  <time>2026-09-01T19:57:36Z</time>
  <course>105.22</course>
  <speed>0.022360679774997897</speed>
  <fix>3d</fix>
</trkpt>
<trkpt lat="-27.2737718" lon="151.2899039">
  <ele>344.09</ele>
  <time>2026-09-01T19:57:36Z</time>
  <course>282.0</course>
  <speed>0.01</speed>
  <fix>3d</fix>
</trkpt>
<trkpt lat="-27.2737716" lon="151.2899043">
  <ele>343.98</ele>
  <time>2026-09-01T19:57:36Z</time>
  <course>105.23</course>
  <speed>0.022360679774997897</speed>
  <fix>3d</fix>
</trkpt>
<trkpt lat="-27.2737718" lon="151.2899038">
  <ele>343.98</ele>
  <time>2026-09-01T19:57:36Z</time>
  <course>290.64</course>
  <speed>0.01</speed>
  <fix>3d</fix>
</trkpt>
<trkpt lat="-27.2737716" lon="151.2899043">
  <ele>343.93</ele>
  <time>2026-09-01T19:57:36Z</time>
  <course>105.25</course>
  <speed>0.022360679774997897</speed>
  <fix>3d</fix>
</trkpt>
<trkpt lat="-27.2737718" lon="151.2899038">
  <ele>343.98</ele>
  <time>2026-09-01T19:57:36Z</time>
  <course>290.64</course>
  <speed>0.01</speed>
  <fix>3d</fix>
</trkpt>
<trkpt lat="-27.2737716" lon="151.2899042">
  <ele>343.88</ele>
  <time>2026-09-01T19:57:36Z</time>
  <course>105.26</course>
  <speed>0.022360679774997897</speed>
  <fix>3d</fix>
</trkpt>
<trkpt lat="-27.2737718" lon="151.2899038">
  <ele>343.88</ele>
  <time>2026-09-01T19:57:36Z</time>
  <course>301.82</course>
  <speed>0.01</speed>
  <fix>3d</fix>
</trkpt>
<trkpt lat="-27.2737716" lon="151.2899042">
  <ele>343.83</ele>
  <time>2026-09-01T19:57:36Z</time>
  <course>105.28</course>
  <speed>0.022360679774997897</speed>
  <fix>3d</fix>
</trkpt>
<trkpt lat="-27.2737718" lon="151.2899038">
  <ele>343.88</ele>
  <time>2026-09-01T19:57:36Z</time>
  <course>301.82</course>
  <speed>0.01</speed>
  <fix>3d</fix>
</trkpt>
<trkpt lat="-27.2737716" lon="151.2899042">
  <ele>343.78</ele>
  <time>2026-09-01T19:57:36Z</time>
  <course>105.3</course>
  <speed>0.0282842712474619</speed>
  <fix>3d</fix>
</trkpt>
<trkpt lat="-27.2737718" lon="151.2899038">
  <ele>343.78</ele>
  <time>2026-09-01T19:57:36Z</time>
  <course>316.22</course>
  <speed>0.01</speed>
  <fix>3d</fix>
</trkpt>
<trkpt lat="-27.2737716" lon="151.2899042">
  <ele>343.73</ele>
  <time>2026-09-01T19:57:36Z</time>
  <course>105.33</course>
  <speed>0.0282842712474619</speed>
  <fix>3d</fix>
</trkpt>
<trkpt lat="-27.2737718" lon="151.2899038">
  <ele>343.78</ele>
  <time>2026-09-01T19:57:36Z</time>
  <course>316.22</course>
  <speed>0.01</speed>
  <fix>3d</fix>
</trkpt>
<trkpt lat="-27.2737716" lon="151.2899042">
  <ele>343.68</ele>
  <time>2026-09-01T19:57:36Z</time>
  <course>105.36</course>
  <speed>0.0282842712474619</speed>
  <fix>3d</fix>
</trkpt>
<trkpt lat="-27.2737718" lon="151.2899038">
  <ele>343.68</ele>
  <time>2026-09-01T19:57:36Z</time>
  <course>334.29</course>
  <speed>0.01</speed>
  <fix>3d</fix>
</trkpt>
<trkpt lat="-27.2737716" lon="151.2899042">
  <ele>343.63</ele>
  <time>2026-09-01T19:57:36Z</time>
  <course>105.4</course>
  <speed>0.0282842712474619</speed>
  <fix>3d</fix>
</trkpt>
<trkpt lat="-27.2737718" lon="151.2899038">
  <ele>343.68</ele>
  <time>2026-09-01T19:57:36Z</time>
  <course>334.29</course>
  <speed>0.01</speed>
  <fix>3d</fix>
</trkpt>
<trkpt lat="-27.2737716" lon="151.2899042">
  <ele>343.58</ele>
  <time>2026-09-01T19:57:36Z</time>
  <course>105.44</course>
  <speed>0.03605551275463989</speed>
  <fix>3d</fix>
</trkpt>
<trkpt lat="-27.2737717" lon="151.2899038">
  <ele>343.58</ele>
  <time>2026-09-01T19:57:36Z</time>
  <course>349.43</course>
  <speed>0.01</speed>
  <fix>3d</fix>
</trkpt>
<trkpt lat="-27.2737716" lon="151.2899042">
  <ele>343.53</ele>
  <time>2026-09-01T19:57:36Z</time>
  <course>105.46</course>
  <speed>0.04242640687119285</speed>
  <fix>3d</fix>
</trkpt>
<trkpt lat="-27.2737717" lon="151.2899038">
  <ele>343.58</ele>
  <time>2026-09-01T19:57:36Z</time>
  <course>349.43</course>
  <speed>0.01</speed>
  <fix>3d</fix>
</trkpt>
<trkpt lat="-27.2737716" lon="151.2899042">
  <ele>343.48</ele>
  <time>2026-09-01T19:57:36Z</time>
  <course>105.48</course>
  <speed>0.04242640687119285</speed>
  <fix>3d</fix>
</trkpt>
<trkpt lat="-27.2737717" lon="151.2899038">
  <ele>343.47</ele>
  <time>2026-09-01T19:57:36Z</time>
  <course>357.64</course>
  <speed>0.02</speed>
  <fix>3d</fix>
</trkpt>
<trkpt lat="-27.2737716" lon="151.2899042">
  <ele>343.43</ele>
  <time>2026-09-01T19:57:36Z</time>
  <course>105.49</course>
  <speed>0.04242640687119285</speed>
  <fix>3d</fix>
</trkpt>
<trkpt lat="-27.2737717" lon="151.2899038">
  <ele>343.47</ele>
  <time>2026-09-01T19:57:36Z</time>
  <course>357.64</course>
  <speed>0.02</speed>
  <fix>3d</fix>
</trkpt>
<trkpt lat="-27.2737716" lon="151.2899042">
  <ele>343.37</ele>
  <time>2026-09-01T19:57:36Z</time>
  <course>105.49</course>
  <speed>0.04242640687119285</speed>
  <fix>3d</fix>
</trkpt>
<trkpt lat="-27.2737717" lon="151.2899038">
  <ele>343.37</ele>
  <time>2026-09-01T19:57:36Z</time>
  <course>3.48</course>
  <speed>0.02</speed>
  <fix>3d</fix>
</trkpt>
<trkpt lat="-27.2737716" lon="151.2899041">
  <ele>343.32</ele>
  <time>2026-09-01T19:57:36Z</time>
  <course>105.5</course>
  <speed>0.04242640687119285</speed>
  <fix>3d</fix>
</trkpt>
<trkpt lat="-27.2737717" lon="151.2899038">
  <ele>343.37</ele>
  <time>2026-09-01T19:57:36Z</time>
  <course>3.48</course>
  <speed>0.02</speed>
  <fix>3d</fix>
</trkpt>
<trkpt lat="-27.2737716" lon="151.2899041">
  <ele>343.27</ele>
  <time>2026-09-01T19:57:36Z</time>
  <course>105.51</course>
  <speed>0.04242640687119285</speed>
  <fix>3d</fix>
</trkpt>
<trkpt lat="-27.2737716" lon="151.2899038">
  <ele>343.27</ele>
  <time>2026-09-01T19:57:36Z</time>
  <course>8.42</course>
  <speed>0.02</speed>
  <fix>3d</fix>
</trkpt>
<trkpt lat="-27.2737715" lon="151.2899041">
  <ele>343.22</ele>
  <time>2026-09-01T19:57:36Z</time>
  <course>105.52</course>
  <speed>0.05</speed>
  <fix>3d</fix>
</trkpt>
<trkpt lat="-27.2737716" lon="151.2899038">
  <ele>343.27</ele>
  <time>2026-09-01T19:57:36Z</time>
  <course>8.42</course>
  <speed>0.02</speed>
  <fix>3d</fix>
</trkpt>
<trkpt lat="-27.2737715" lon="151.2899041">
  <ele>343.17</ele>
  <time>2026-09-01T19:57:36Z</time>
  <course>105.52</course>
  <speed>0.05</speed>
  <fix>3d</fix>
</trkpt>
<trkpt lat="-27.2737715" lon="151.2899038">
  <ele>343.16</ele>
  <time>2026-09-01T19:57:36Z</time>
  <course>12.0</course>
  <speed>0.03</speed>
  <fix>3d</fix>
</trkpt>
<trkpt lat="-27.2737715" lon="151.2899041">
  <ele>343.12</ele>
  <time>2026-09-01T19:57:36Z</time>
  <course>105.53</course>
  <speed>0.04242640687119285</speed>
  <fix>3d</fix>
</trkpt>
<trkpt lat="-27.2737715" lon="151.2899038">
  <ele>343.16</ele>
  <time>2026-09-01T19:57:36Z</time>
  <course>12.0</course>
  <speed>0.03</speed>
  <fix>3d</fix>
</trkpt>
<trkpt lat="-27.2737715" lon="151.2899041">
  <ele>343.1</ele>
  <time>2026-09-01T19:57:36Z</time>
  <course>105.53</course>
  <speed>0.0316227766016838</speed>
  <fix>3d</fix>
</trkpt>
<trkpt lat="-27.2737715" lon="151.2899038">
  <ele>343.08</ele>
  <time>2026-09-01T19:57:36Z</time>
  <course>13.59</course>
  <speed>0.01</speed>
  <fix>3d</fix>
</trkpt>
<trkpt lat="-27.2737715" lon="151.2899041">
  <ele>343.12</ele>
  <time>2026-09-01T19:57:36Z</time>
  <course>105.53</course>
  <speed>0.02</speed>
  <fix>3d</fix>
</trkpt>
<trkpt lat="-27.2737715" lon="151.2899038">
  <ele>343.08</ele>
  <time>2026-09-01T19:57:36Z</time>
  <course>13.59</course>
  <speed>0.01</speed>
  <fix>3d</fix>
</trkpt>
<trkpt lat="-27.2737715" lon="151.2899041">
  <ele>343.13</ele>
  <time>2026-09-01T19:57:36Z</time>
  <course>105.53</course>
  <speed>0.02</speed>
  <fix>3d</fix>
</trkpt>
<trkpt lat="-27.2737715" lon="151.2899038">
  <ele>343.06</ele>
  <time>2026-09-01T19:57:36Z</time>
  <course>194.72</course>
  <speed>0.0</speed>
  <fix>3d</fix>
</trkpt>
<trkpt lat="-27.2737715" lon="151.2899041">
  <ele>343.14</ele>
  <time>2026-09-01T19:57:36Z</time>
  <course>105.53</course>
  <speed>0.02</speed>
  <fix>3d</fix>
</trkpt>
<trkpt lat="-27.2737715" lon="151.2899038">
  <ele>343.06</ele>
  <time>2026-09-01T19:57:36Z</time>
  <course>194.72</course>
  <speed>0.0</speed>
  <fix>3d</fix>
</trkpt>
<trkpt lat="-27.2737715" lon="151.2899041">
  <ele>343.14</ele>
  <time>2026-09-01T19:57:36Z</time>
  <course>105.53</course>
  <speed>0.0316227766016838</speed>
  <fix>3d</fix>
</trkpt>
<trkpt lat="-27.2737715" lon="151.2899038">
  <ele>343.07</ele>
  <time>2026-09-01T19:57:36Z</time>
  <course>194.72</course>
  <speed>0.0</speed>
  <fix>3d</fix>
</trkpt>
<trkpt lat="-27.2737715" lon="151.2899041">
  <ele>343.14</ele>
  <time>2026-09-01T19:57:36Z</time>
  <course>105.53</course>
  <speed>0.0316227766016838</speed>
  <fix>3d</fix>
</trkpt>
<trkpt lat="-27.2737715" lon="151.2899038">
  <ele>343.07</ele>
  <time>2026-09-01T19:57:36Z</time>
  <course>194.72</course>
  <speed>0.0</speed>
  <fix>3d</fix>
</trkpt>
<trkpt lat="-27.2737715" lon="151.2899041">
  <ele>343.14</ele>
  <time>2026-09-01T19:57:36Z</time>
  <course>105.53</course>
  <speed>0.0316227766016838</speed>
  <fix>3d</fix>
</trkpt>
<trkpt lat="-27.2737715" lon="151.2899038">
  <ele>343.08</ele>
  <time>2026-09-01T19:57:36Z</time>
  <course>14.72</course>
  <speed>0.0</speed>
  <fix>3d</fix>
</trkpt>
<trkpt lat="-27.2737715" lon="151.2899041">
  <ele>343.14</ele>
  <time>2026-09-01T19:57:36Z</time>
  <course>105.53</course>
  <speed>0.0316227766016838</speed>
  <fix>3d</fix>
</trkpt>
<trkpt lat="-27.2737715" lon="151.2899038">
  <ele>343.08</ele>
  <time>2026-09-01T19:57:36Z</time>
  <course>14.72</course>
  <speed>0.0</speed>
  <fix>3d</fix>
</trkpt>
<trkpt lat="-27.2737715" lon="151.2899041">
  <ele>343.14</ele>
  <time>2026-09-01T19:57:36Z</time>
  <course>105.53</course>
  <speed>0.0316227766016838</speed>
  <fix>3d</fix>
</trkpt>
<trkpt lat="-27.2737715" lon="151.2899038">
  <ele>343.08</ele>
  <time>2026-09-01T19:57:36Z</time>
  <course>14.72</course>
  <speed>0.0</speed>
  <fix>3d</fix>
</trkpt>
<trkpt lat="-27.2737715" lon="151.2899041">
  <ele>343.13</ele>
  <time>2026-09-01T19:57:36Z</time>
  <course>105.53</course>
  <speed>0.022360679774997897</speed>
  <fix>3d</fix>
</trkpt>
<trkpt lat="-27.2737715" lon="151.2899038">
  <ele>343.08</ele>
  <time>2026-09-01T19:57:36Z</time>
  <course>14.72</course>
  <speed>0.0</speed>
  <fix>3d</fix>
</trkpt>
<trkpt lat="-27.2737715" lon="151.2899041">
  <ele>343.13</ele>
  <time>2026-09-01T19:57:36Z</time>
  <course>105.53</course>
  <speed>0.022360679774997897</speed>
  <fix>3d</fix>
</trkpt>
<trkpt lat="-27.2737715" lon="151.2899038">
  <ele>343.08</ele>
  <time>2026-09-01T19:57:36Z</time>
  <course>194.72</course>
  <speed>0.0</speed>
  <fix>3d</fix>
</trkpt>
<trkpt lat="-27.2737715" lon="151.2899041">
  <ele>343.13</ele>
  <time>2026-09-01T19:57:36Z</time>
  <course>105.53</course>
  <speed>0.022360679774997897</speed>
  <fix>3d</fix>
</trkpt>
<trkpt lat="-27.2737715" lon="151.2899038">
  <ele>343.08</ele>
  <time>2026-09-01T19:57:36Z</time>
  <course>194.72</course>
  <speed>0.0</speed>
  <fix>3d</fix>
</trkpt>
<trkpt lat="-27.2737715" lon="151.2899041">
  <ele>343.13</ele>
  <time>2026-09-01T19:57:36Z</time>
  <course>105.53</course>
  <speed>0.022360679774997897</speed>
  <fix>3d</fix>
</trkpt>
<trkpt lat="-27.2737715" lon="151.2899038">
  <ele>343.08</ele>
  <time>2026-09-01T19:57:36Z</time>
  <course>194.75</course>
  <speed>0.0</speed>
  <fix>3d</fix>
</trkpt>
<trkpt lat="-27.2737715" lon="151.2899041">
  <ele>343.14</ele>
  <time>2026-09-01T19:57:36Z</time>
  <course>105.53</course>
  <speed>0.022360679774997897</speed>
  <fix>3d</fix>
</trkpt>
<trkpt lat="-27.2737715" lon="151.2899038">
  <ele>343.08</ele>
  <time>2026-09-01T19:57:36Z</time>
  <course>194.75</course>
  <speed>0.0</speed>
  <fix>3d</fix>
</trkpt>
<trkpt lat="-27.2737715" lon="151.2899041">
  <ele>343.14</ele>
  <time>2026-09-01T19:57:36Z</time>
  <course>105.53</course>
  <speed>0.022360679774997897</speed>
  <fix>3d</fix>
</trkpt>
<trkpt lat="-27.2737715" lon="151.2899038">
  <ele>343.08</ele>
  <time>2026-09-01T19:57:36Z</time>
  <course>14.68</course>
  <speed>0.0</speed>
  <fix>3d</fix>
</trkpt>
<trkpt lat="-27.2737715" lon="151.2899041">
  <ele>343.14</ele>
  <time>2026-09-01T19:57:36Z</time>
  <course>105.53</course>
  <speed>0.022360679774997897</speed>
  <fix>3d</fix>
</trkpt>
<trkpt lat="-27.2737715" lon="151.2899038">
  <ele>343.08</ele>
  <time>2026-09-01T19:57:36Z</time>
  <course>14.68</course>
  <speed>0.0</speed>
  <fix>3d</fix>
</trkpt>
<trkpt lat="-27.2737715" lon="151.2899041">
  <ele>343.14</ele>
  <time>2026-09-01T19:57:36Z</time>
  <course>105.53</course>
  <speed>0.022360679774997897</speed>
  <fix>3d</fix>
</trkpt>
<trkpt lat="-27.2737715" lon="151.2899038">
  <ele>343.08</ele>
  <time>2026-09-01T19:57:36Z</time>
  <course>13.85</course>
  <speed>0.0</speed>
  <fix>3d</fix>
</trkpt>
<trkpt lat="-27.2737715" lon="151.2899041">
  <ele>343.14</ele>
  <time>2026-09-01T19:57:36Z</time>
  <course>105.53</course>
  <speed>0.022360679774997897</speed>
  <fix>3d</fix>
</trkpt>
<trkpt lat="-27.2737715" lon="151.2899038">
  <ele>343.08</ele>
  <time>2026-09-01T19:57:36Z</time>
  <course>13.85</course>
  <speed>0.0</speed>
  <fix>3d</fix>
</trkpt>
<trkpt lat="-27.2737715" lon="151.2899041">
  <ele>343.14</ele>
  <time>2026-09-01T19:57:36Z</time>
  <course>105.53</course>
  <speed>0.022360679774997897</speed>
  <fix>3d</fix>
</trkpt>
<trkpt lat="-27.2737715" lon="151.2899038">
  <ele>343.08</ele>
  <time>2026-09-01T19:57:36Z</time>
  <course>195.13</course>
  <speed>0.0</speed>
  <fix>3d</fix>
</trkpt>
<trkpt lat="-27.2737715" lon="151.2899041">
  <ele>343.14</ele>
  <time>2026-09-01T19:57:36Z</time>
  <course>105.53</course>
  <speed>0.022360679774997897</speed>
  <fix>3d</fix>
</trkpt>
<trkpt lat="-27.2737715" lon="151.2899038">
  <ele>343.08</ele>
  <time>2026-09-01T19:57:36Z</time>
  <course>195.13</course>
  <speed>0.0</speed>
  <fix>3d</fix>
</trkpt>
<trkpt lat="-27.2737715" lon="151.2899041">
  <ele>343.14</ele>
  <time>2026-09-01T19:57:36Z</time>
  <course>105.53</course>
  <speed>0.022360679774997897</speed>
  <fix>3d</fix>
</trkpt>
<trkpt lat="-27.2737715" lon="151.2899038">
  <ele>343.08</ele>
  <time>2026-09-01T19:57:36Z</time>
  <course>6.39</course>
  <speed>0.0</speed>
  <fix>3d</fix>
</trkpt>
<trkpt lat="-27.2737715" lon="151.2899041">
  <ele>343.14</ele>
  <time>2026-09-01T19:57:36Z</time>
  <course>105.53</course>
  <speed>0.022360679774997897</speed>
  <fix>3d</fix>
</trkpt>
<trkpt lat="-27.2737715" lon="151.2899038">
  <ele>343.08</ele>
  <time>2026-09-01T19:57:36Z</time>
  <course>6.39</course>
  <speed>0.0</speed>
  <fix>3d</fix>
</trkpt>
<trkpt lat="-27.2737715" lon="151.2899041">
  <ele>343.14</ele>
  <time>2026-09-01T19:57:36Z</time>
  <course>105.53</course>
  <speed>0.022360679774997897</speed>
  <fix>3d</fix>
</trkpt>
<trkpt lat="-27.2737715" lon="151.2899038">
  <ele>343.08</ele>
  <time>2026-09-01T19:57:36Z</time>
  <course>12.21</course>
  <speed>0.0</speed>
  <fix>3d</fix>
</trkpt>
<trkpt lat="-27.2737715" lon="151.2899041">
  <ele>343.14</ele>
  <time>2026-09-01T19:57:36Z</time>
  <course>105.53</course>
  <speed>0.022360679774997897</speed>
  <fix>3d</fix>
</trkpt>
<trkpt lat="-27.2737715" lon="151.2899038">
  <ele>343.08</ele>
  <time>2026-09-01T19:57:36Z</time>
  <course>12.21</course>
  <speed>0.0</speed>
  <fix>3d</fix>
</trkpt>
<trkpt lat="-27.2737715" lon="151.2899041">
  <ele>343.14</ele>
  <time>2026-09-01T19:57:36Z</time>
  <course>105.53</course>
  <speed>0.022360679774997897</speed>
  <fix>3d</fix>
</trkpt>
<trkpt lat="-27.2737715" lon="151.2899038">
  <ele>343.08</ele>
  <time>2026-09-01T19:57:36Z</time>
  <course>9.38</course>
  <speed>0.0</speed>
  <fix>3d</fix>
</trkpt>
<trkpt lat="-27.2737715" lon="151.2899041">
  <ele>343.14</ele>
  <time>2026-09-01T19:57:36Z</time>
  <course>105.53</course>
  <speed>0.022360679774997897</speed>
  <fix>3d</fix>
</trkpt>
<trkpt lat="-27.2737715" lon="151.2899038">
  <ele>343.08</ele>
  <time>2026-09-01T19:57:36Z</time>
  <course>9.38</course>
  <speed>0.0</speed>
  <fix>3d</fix>
</trkpt>
<trkpt lat="-27.2737715" lon="151.2899041">
  <ele>343.14</ele>
  <time>2026-09-01T19:57:37Z</time>
  <course>105.53</course>
  <speed>0.022360679774997897</speed>
  <fix>3d</fix>
</trkpt>
<trkpt lat="-27.2737715" lon="151.2899038">
  <ele>343.08</ele>
  <time>2026-09-01T19:57:37Z</time>
  <course>17.26</course>
  <speed>0.0</speed>
  <fix>3d</fix>
</trkpt>
<trkpt lat="-27.2737715" lon="151.2899041">
  <ele>343.14</ele>
  <time>2026-09-01T19:57:37Z</time>
  <course>105.53</course>
  <speed>0.022360679774997897</speed>
  <fix>3d</fix>
</trkpt>
<trkpt lat="-27.2737715" lon="151.2899038">
  <ele>343.08</ele>
  <time>2026-09-01T19:57:37Z</time>
  <course>17.26</course>
  <speed>0.0</speed>
  <fix>3d</fix>
</trkpt>
<trkpt lat="-27.2737714" lon="151.2899041">
  <ele>343.14</ele>
  <time>2026-09-01T19:57:37Z</time>
  <course>105.54</course>
  <speed>0.022360679774997897</speed>
  <fix>3d</fix>
</trkpt>
<trkpt lat="-27.2737715" lon="151.2899038">
  <ele>343.08</ele>
  <time>2026-09-01T19:57:37Z</time>
  <course>16.92</course>
  <speed>0.0</speed>
  <fix>3d</fix>
</trkpt>
<trkpt lat="-27.2737715" lon="151.2899041">
  <ele>343.14</ele>
  <time>2026-09-01T19:57:37Z</time>
  <course>105.54</course>
  <speed>0.022360679774997897</speed>
  <fix>3d</fix>
</trkpt>
<trkpt lat="-27.2737715" lon="151.2899038">
  <ele>343.08</ele>
  <time>2026-09-01T19:57:37Z</time>
  <course>16.92</course>
  <speed>0.0</speed>
  <fix>3d</fix>
</trkpt>
<trkpt lat="-27.2737714" lon="151.2899041">
  <ele>343.14</ele>
  <time>2026-09-01T19:57:37Z</time>
  <course>105.54</course>
  <speed>0.022360679774997897</speed>
  <fix>3d</fix>
</trkpt>
<trkpt lat="-27.2737715" lon="151.2899038">
  <ele>343.08</ele>
  <time>2026-09-01T19:57:37Z</time>
  <course>358.14</course>
  <speed>0.0</speed>
  <fix>3d</fix>
</trkpt>
<trkpt lat="-27.2737714" lon="151.2899041">
  <ele>343.14</ele>
  <time>2026-09-01T19:57:37Z</time>
  <course>105.54</course>
  <speed>0.022360679774997897</speed>
  <fix>3d</fix>
</trkpt>
<trkpt lat="-27.2737715" lon="151.2899038">
  <ele>343.08</ele>
  <time>2026-09-01T19:57:37Z</time>
  <course>358.14</course>
  <speed>0.0</speed>
  <fix>3d</fix>
</trkpt>
<trkpt lat="-27.2737714" lon="151.2899041">
  <ele>343.14</ele>
  <time>2026-09-01T19:57:37Z</time>
  <course>105.54</course>
  <speed>0.022360679774997897</speed>
  <fix>3d</fix>
</trkpt>
<trkpt lat="-27.2737715" lon="151.2899038">
  <ele>343.08</ele>
  <time>2026-09-01T19:57:37Z</time>
  <course>335.74</course>
  <speed>0.0</speed>
  <fix>3d</fix>
</trkpt>
<trkpt lat="-27.2737714" lon="151.2899041">
  <ele>343.14</ele>
  <time>2026-09-01T19:57:37Z</time>
  <course>105.54</course>
  <speed>0.022360679774997897</speed>
  <fix>3d</fix>
</trkpt>
<trkpt lat="-27.2737715" lon="151.2899038">
  <ele>343.08</ele>
  <time>2026-09-01T19:57:37Z</time>
  <course>335.74</course>
  <speed>0.0</speed>
  <fix>3d</fix>
</trkpt>
<trkpt lat="-27.2737714" lon="151.2899041">
  <ele>343.14</ele>
  <time>2026-09-01T19:57:37Z</time>
  <course>105.54</course>
  <speed>0.022360679774997897</speed>
  <fix>3d</fix>
</trkpt>
<trkpt lat="-27.2737715" lon="151.2899038">
  <ele>343.08</ele>
  <time>2026-09-01T19:57:37Z</time>
  <course>1.33</course>
  <speed>0.0</speed>
  <fix>3d</fix>
</trkpt>
<trkpt lat="-27.2737714" lon="151.2899041">
  <ele>343.14</ele>
  <time>2026-09-01T19:57:37Z</time>
  <course>105.54</course>
  <speed>0.022360679774997897</speed>
  <fix>3d</fix>
</trkpt>
<trkpt lat="-27.2737715" lon="151.2899038">
  <ele>343.08</ele>
  <time>2026-09-01T19:57:37Z</time>
  <course>1.33</course>
  <speed>0.0</speed>
  <fix>3d</fix>
</trkpt>
<trkpt lat="-27.2737714" lon="151.2899041">
  <ele>343.14</ele>
  <time>2026-09-01T19:57:37Z</time>
  <course>105.54</course>
  <speed>0.022360679774997897</speed>
  <fix>3d</fix>
</trkpt>
<trkpt lat="-27.2737715" lon="151.2899038">
  <ele>343.08</ele>
  <time>2026-09-01T19:57:37Z</time>
  <course>18.11</course>
  <speed>0.0</speed>
  <fix>3d</fix>
</trkpt>
<trkpt lat="-27.2737714" lon="151.2899041">
  <ele>343.14</ele>
  <time>2026-09-01T19:57:37Z</time>
  <course>105.54</course>
  <speed>0.022360679774997897</speed>
  <fix>3d</fix>
</trkpt>
<trkpt lat="-27.2737715" lon="151.2899038">
  <ele>343.08</ele>
  <time>2026-09-01T19:57:37Z</time>
  <course>18.11</course>
  <speed>0.0</speed>
  <fix>3d</fix>
</trkpt>
<trkpt lat="-27.2737714" lon="151.2899041">
  <ele>343.14</ele>
  <time>2026-09-01T19:57:37Z</time>
  <course>105.54</course>
  <speed>0.022360679774997897</speed>
  <fix>3d</fix>
</trkpt>
<trkpt lat="-27.2737715" lon="151.2899038">
  <ele>343.08</ele>
  <time>2026-09-01T19:57:37Z</time>
  <course>337.71</course>
  <speed>0.0</speed>
  <fix>3d</fix>
</trkpt>
<trkpt lat="-27.2737714" lon="151.2899041">
  <ele>343.14</ele>
  <time>2026-09-01T19:57:37Z</time>
  <course>105.54</course>
  <speed>0.022360679774997897</speed>
  <fix>3d</fix>
</trkpt>
<trkpt lat="-27.2737715" lon="151.2899038">
  <ele>343.08</ele>
  <time>2026-09-01T19:57:37Z</time>
  <course>337.71</course>
  <speed>0.0</speed>
  <fix>3d</fix>
</trkpt>
<trkpt lat="-27.2737714" lon="151.2899041">
  <ele>343.14</ele>
  <time>2026-09-01T19:57:37Z</time>
  <course>105.54</course>
  <speed>0.022360679774997897</speed>
  <fix>3d</fix>
</trkpt>
<trkpt lat="-27.2737715" lon="151.2899038">
  <ele>343.08</ele>
  <time>2026-09-01T19:57:37Z</time>
  <course>2.09</course>
  <speed>0.0</speed>
  <fix>3d</fix>
</trkpt>
<trkpt lat="-27.2737714" lon="151.2899041">
  <ele>343.14</ele>
  <time>2026-09-01T19:57:37Z</time>
  <course>105.54</course>
  <speed>0.022360679774997897</speed>
  <fix>3d</fix>
</trkpt>
<trkpt lat="-27.2737715" lon="151.2899038">
  <ele>343.08</ele>
  <time>2026-09-01T19:57:37Z</time>
  <course>2.09</course>
  <speed>0.0</speed>
  <fix>3d</fix>
</trkpt>
<trkpt lat="-27.2737714" lon="151.2899041">
  <ele>343.14</ele>
  <time>2026-09-01T19:57:37Z</time>
  <course>105.54</course>
  <speed>0.022360679774997897</speed>
  <fix>3d</fix>
</trkpt>
<trkpt lat="-27.2737715" lon="151.2899038">
  <ele>343.08</ele>
  <time>2026-09-01T19:57:37Z</time>
  <course>2.42</course>
  <speed>0.0</speed>
  <fix>3d</fix>
</trkpt>
<trkpt lat="-27.2737714" lon="151.2899041">
  <ele>343.14</ele>
  <time>2026-09-01T19:57:37Z</time>
  <course>105.54</course>
  <speed>0.022360679774997897</speed>
  <fix>3d</fix>
</trkpt>
<trkpt lat="-27.2737715" lon="151.2899038">
  <ele>343.08</ele>
  <time>2026-09-01T19:57:37Z</time>
  <course>2.42</course>
  <speed>0.0</speed>
  <fix>3d</fix>
</trkpt>
<trkpt lat="-27.2737714" lon="151.2899041">
  <ele>343.14</ele>
  <time>2026-09-01T19:57:37Z</time>
  <course>105.54</course>
  <speed>0.022360679774997897</speed>
  <fix>3d</fix>
</trkpt>
<trkpt lat="-27.2737715" lon="151.2899038">
  <ele>343.08</ele>
  <time>2026-09-01T19:57:37Z</time>
  <course>319.15</course>
  <speed>0.0</speed>
  <fix>3d</fix>
</trkpt>
<trkpt lat="-27.2737714" lon="151.2899041">
  <ele>343.14</ele>
  <time>2026-09-01T19:57:37Z</time>
  <course>105.54</course>
  <speed>0.022360679774997897</speed>
  <fix>3d</fix>
</trkpt>
<trkpt lat="-27.2737715" lon="151.2899038">
  <ele>343.08</ele>
  <time>2026-09-01T19:57:37Z</time>
  <course>319.15</course>
  <speed>0.0</speed>
  <fix>3d</fix>
</trkpt>
<trkpt lat="-27.2737714" lon="151.2899041">
  <ele>343.14</ele>
  <time>2026-09-01T19:57:37Z</time>
  <course>105.54</course>
  <speed>0.022360679774997897</speed>
  <fix>3d</fix>
</trkpt>
<trkpt lat="-27.2737715" lon="151.2899038">
  <ele>343.08</ele>
  <time>2026-09-01T19:57:37Z</time>
  <course>357.69</course>
  <speed>0.0</speed>
  <fix>3d</fix>
</trkpt>
<trkpt lat="-27.2737714" lon="151.2899041">
  <ele>343.14</ele>
  <time>2026-09-01T19:57:37Z</time>
  <course>105.54</course>
  <speed>0.022360679774997897</speed>
  <fix>3d</fix>
</trkpt>
<trkpt lat="-27.2737715" lon="151.2899038">
  <ele>343.08</ele>
  <time>2026-09-01T19:57:37Z</time>
  <course>357.69</course>
  <speed>0.0</speed>
  <fix>3d</fix>
</trkpt>
<trkpt lat="-27.2737714" lon="151.2899041">
  <ele>343.14</ele>
  <time>2026-09-01T19:57:37Z</time>
  <course>105.54</course>
  <speed>0.022360679774997897</speed>
  <fix>3d</fix>
</trkpt>
<trkpt lat="-27.2737715" lon="151.2899038">
  <ele>343.08</ele>
  <time>2026-09-01T19:57:37Z</time>
  <course>353.62</course>
  <speed>0.0</speed>
  <fix>3d</fix>
</trkpt>
<trkpt lat="-27.2737714" lon="151.2899041">
  <ele>343.14</ele>
  <time>2026-09-01T19:57:37Z</time>
  <course>105.54</course>
  <speed>0.022360679774997897</speed>
  <fix>3d</fix>
</trkpt>
<trkpt lat="-27.2737715" lon="151.2899038">
  <ele>343.08</ele>
  <time>2026-09-01T19:57:37Z</time>
  <course>353.62</course>
  <speed>0.0</speed>
  <fix>3d</fix>
</trkpt>
<trkpt lat="-27.2737714" lon="151.2899041">
  <ele>343.14</ele>
  <time>2026-09-01T19:57:37Z</time>
  <course>105.54</course>
  <speed>0.022360679774997897</speed>
  <fix>3d</fix>
</trkpt>
<trkpt lat="-27.2737715" lon="151.2899038">
  <ele>343.08</ele>
  <time>2026-09-01T19:57:37Z</time>
  <course>300.91</course>
  <speed>0.0</speed>
  <fix>3d</fix>
</trkpt>
<trkpt lat="-27.2737714" lon="151.2899041">
  <ele>343.14</ele>
  <time>2026-09-01T19:57:37Z</time>
  <course>105.54</course>
  <speed>0.022360679774997897</speed>
  <fix>3d</fix>
</trkpt>
<trkpt lat="-27.2737715" lon="151.2899038">
  <ele>343.08</ele>
  <time>2026-09-01T19:57:37Z</time>
  <course>300.91</course>
  <speed>0.0</speed>
  <fix>3d</fix>
</trkpt>
<trkpt lat="-27.2737714" lon="151.2899041">
  <ele>343.14</ele>
  <time>2026-09-01T19:57:37Z</time>
  <course>105.54</course>
  <speed>0.022360679774997897</speed>
  <fix>3d</fix>
</trkpt>
<trkpt lat="-27.2737715" lon="151.2899038">
  <ele>343.08</ele>
  <time>2026-09-01T19:57:37Z</time>
  <course>21.89</course>
  <speed>0.0</speed>
  <fix>3d</fix>
</trkpt>
<trkpt lat="-27.2737714" lon="151.2899041">
  <ele>343.14</ele>
  <time>2026-09-01T19:57:37Z</time>
  <course>105.54</course>
  <speed>0.022360679774997897</speed>
  <fix>3d</fix>
</trkpt>
<trkpt lat="-27.2737715" lon="151.2899038">
  <ele>343.08</ele>
  <time>2026-09-01T19:57:37Z</time>
  <course>21.89</course>
  <speed>0.0</speed>
  <fix>3d</fix>
</trkpt>
<trkpt lat="-27.2737714" lon="151.2899041">
  <ele>343.14</ele>
  <time>2026-09-01T19:57:37Z</time>
  <course>105.54</course>
  <speed>0.022360679774997897</speed>
  <fix>3d</fix>
</trkpt>
<trkpt lat="-27.2737715" lon="151.2899038">
  <ele>343.08</ele>
  <time>2026-09-01T19:57:37Z</time>
  <course>358.13</course>
  <speed>0.0</speed>
  <fix>3d</fix>
</trkpt>
<trkpt lat="-27.2737714" lon="151.2899041">
  <ele>343.14</ele>
  <time>2026-09-01T19:57:37Z</time>
  <course>105.54</course>
  <speed>0.022360679774997897</speed>
  <fix>3d</fix>
</trkpt>
<trkpt lat="-27.2737715" lon="151.2899038">
  <ele>343.08</ele>
  <time>2026-09-01T19:57:37Z</time>
  <course>358.13</course>
  <speed>0.0</speed>
  <fix>3d</fix>
</trkpt>
<trkpt lat="-27.2737714" lon="151.2899041">
  <ele>343.14</ele>
  <time>2026-09-01T19:57:37Z</time>
  <course>105.54</course>
  <speed>0.022360679774997897</speed>
  <fix>3d</fix>
</trkpt>
<trkpt lat="-27.2737715" lon="151.2899038">
  <ele>343.08</ele>
  <time>2026-09-01T19:57:37Z</time>
  <course>326.53</course>
  <speed>0.0</speed>
  <fix>3d</fix>
</trkpt>
<trkpt lat="-27.2737714" lon="151.2899041">
  <ele>343.14</ele>
  <time>2026-09-01T19:57:37Z</time>
  <course>105.54</course>
  <speed>0.022360679774997897</speed>
  <fix>3d</fix>
</trkpt>
<trkpt lat="-27.2737715" lon="151.2899038">
  <ele>343.08</ele>
  <time>2026-09-01T19:57:37Z</time>
  <course>326.53</course>
  <speed>0.0</speed>
  <fix>3d</fix>
</trkpt>
<trkpt lat="-27.2737714" lon="151.2899041">
  <ele>343.14</ele>
  <time>2026-09-01T19:57:37Z</time>
  <course>105.54</course>
  <speed>0.022360679774997897</speed>
  <fix>3d</fix>
</trkpt>
<trkpt lat="-27.2737715" lon="151.2899038">
  <ele>343.08</ele>
  <time>2026-09-01T19:57:37Z</time>
  <course>12.65</course>
  <speed>0.0</speed>
  <fix>3d</fix>
</trkpt>
<trkpt lat="-27.2737714" lon="151.2899041">
  <ele>343.14</ele>
  <time>2026-09-01T19:57:37Z</time>
  <course>105.54</course>
  <speed>0.022360679774997897</speed>
  <fix>3d</fix>
</trkpt>
<trkpt lat="-27.2737715" lon="151.2899038">
  <ele>343.08</ele>
  <time>2026-09-01T19:57:37Z</time>
  <course>12.65</course>
  <speed>0.0</speed>
  <fix>3d</fix>
</trkpt>
<trkpt lat="-27.2737714" lon="151.2899041">
  <ele>343.14</ele>
  <time>2026-09-01T19:57:37Z</time>
  <course>105.54</course>
  <speed>0.022360679774997897</speed>
  <fix>3d</fix>
</trkpt>
<trkpt lat="-27.2737715" lon="151.2899038">
  <ele>343.08</ele>
  <time>2026-09-01T19:57:37Z</time>
  <course>30.92</course>
  <speed>0.0</speed>
  <fix>3d</fix>
</trkpt>
<trkpt lat="-27.2737714" lon="151.2899041">
  <ele>343.14</ele>
  <time>2026-09-01T19:57:37Z</time>
  <course>105.54</course>
  <speed>0.022360679774997897</speed>
  <fix>3d</fix>
</trkpt>
<trkpt lat="-27.2737715" lon="151.2899038">
  <ele>343.08</ele>
  <time>2026-09-01T19:57:37Z</time>
  <course>30.92</course>
  <speed>0.0</speed>
  <fix>3d</fix>
</trkpt>
<trkpt lat="-27.2737714" lon="151.2899041">
  <ele>343.14</ele>
  <time>2026-09-01T19:57:37Z</time>
  <course>105.54</course>
  <speed>0.022360679774997897</speed>
  <fix>3d</fix>
</trkpt>
<trkpt lat="-27.2737715" lon="151.2899038">
  <ele>343.08</ele>
  <time>2026-09-01T19:57:37Z</time>
  <course>41.17</course>
  <speed>0.0</speed>
  <fix>3d</fix>
</trkpt>
<trkpt lat="-27.2737714" lon="151.2899041">
  <ele>343.14</ele>
  <time>2026-09-01T19:57:37Z</time>
  <course>105.54</course>
  <speed>0.022360679774997897</speed>
  <fix>3d</fix>
</trkpt>
<trkpt lat="-27.2737715" lon="151.2899038">
  <ele>343.08</ele>
  <time>2026-09-01T19:57:37Z</time>
  <course>41.17</course>
  <speed>0.0</speed>
  <fix>3d</fix>
</trkpt>
<trkpt lat="-27.2737714" lon="151.2899041">
  <ele>343.14</ele>
  <time>2026-09-01T19:57:37Z</time>
  <course>105.54</course>
  <speed>0.022360679774997897</speed>
  <fix>3d</fix>
</trkpt>
<trkpt lat="-27.2737715" lon="151.2899038">
  <ele>343.08</ele>
  <time>2026-09-01T19:57:37Z</time>
  <course>43.53</course>
  <speed>0.0</speed>
  <fix>3d</fix>
</trkpt>
<trkpt lat="-27.2737714" lon="151.2899041">
  <ele>343.14</ele>
  <time>2026-09-01T19:57:37Z</time>
  <course>105.54</course>
  <speed>0.022360679774997897</speed>
  <fix>3d</fix>
</trkpt>
<trkpt lat="-27.2737715" lon="151.2899038">
  <ele>343.08</ele>
  <time>2026-09-01T19:57:37Z</time>
  <course>43.53</course>
  <speed>0.0</speed>
  <fix>3d</fix>
</trkpt>
<trkpt lat="-27.2737714" lon="151.2899041">
  <ele>343.14</ele>
  <time>2026-09-01T19:57:37Z</time>
  <course>105.54</course>
  <speed>0.022360679774997897</speed>
  <fix>3d</fix>
</trkpt>
<trkpt lat="-27.2737715" lon="151.2899038">
  <ele>343.08</ele>
  <time>2026-09-01T19:57:37Z</time>
  <course>204.78</course>
  <speed>0.0</speed>
  <fix>3d</fix>
</trkpt>
<trkpt lat="-27.2737714" lon="151.2899041">
  <ele>343.14</ele>
  <time>2026-09-01T19:57:37Z</time>
  <course>105.54</course>
  <speed>0.022360679774997897</speed>
  <fix>3d</fix>
</trkpt>
<trkpt lat="-27.2737715" lon="151.2899038">
  <ele>343.08</ele>
  <time>2026-09-01T19:57:37Z</time>
  <course>204.78</course>
  <speed>0.0</speed>
  <fix>3d</fix>
</trkpt>
<trkpt lat="-27.2737714" lon="151.2899041">
  <ele>343.14</ele>
  <time>2026-09-01T19:57:37Z</time>
  <course>105.54</course>
  <speed>0.022360679774997897</speed>
  <fix>3d</fix>
</trkpt>
<trkpt lat="-27.2737715" lon="151.2899038">
  <ele>343.08</ele>
  <time>2026-09-01T19:57:37Z</time>
  <course>224.53</course>
  <speed>0.0</speed>
  <fix>3d</fix>
</trkpt>
<trkpt lat="-27.2737714" lon="151.2899041">
  <ele>343.14</ele>
  <time>2026-09-01T19:57:37Z</time>
  <course>105.54</course>
  <speed>0.022360679774997897</speed>
  <fix>3d</fix>
</trkpt>
<trkpt lat="-27.2737715" lon="151.2899038">
  <ele>343.08</ele>
  <time>2026-09-01T19:57:37Z</time>
  <course>224.53</course>
  <speed>0.0</speed>
  <fix>3d</fix>
</trkpt>
<trkpt lat="-27.2737714" lon="151.2899041">
  <ele>343.14</ele>
  <time>2026-09-01T19:57:37Z</time>
  <course>105.54</course>
  <speed>0.022360679774997897</speed>
  <fix>3d</fix>
</trkpt>
<trkpt lat="-27.2737715" lon="151.2899038">
  <ele>343.08</ele>
  <time>2026-09-01T19:57:37Z</time>
  <course>37.84</course>
  <speed>0.0</speed>
  <fix>3d</fix>
</trkpt>
<trkpt lat="-27.2737714" lon="151.2899041">
  <ele>343.13</ele>
  <time>2026-09-01T19:57:37Z</time>
  <course>105.54</course>
  <speed>0.022360679774997897</speed>
  <fix>3d</fix>
</trkpt>
<trkpt lat="-27.2737715" lon="151.2899038">
  <ele>343.08</ele>
  <time>2026-09-01T19:57:37Z</time>
  <course>37.84</course>
  <speed>0.0</speed>
  <fix>3d</fix>
</trkpt>
<trkpt lat="-27.2737714" lon="151.2899041">
  <ele>343.13</ele>
  <time>2026-09-01T19:57:37Z</time>
  <course>105.53</course>
  <speed>0.022360679774997897</speed>
  <fix>3d</fix>
</trkpt>
<trkpt lat="-27.2737715" lon="151.2899038">
  <ele>343.08</ele>
  <time>2026-09-01T19:57:37Z</time>
  <course>45.77</course>
  <speed>0.0</speed>
  <fix>3d</fix>
</trkpt>
<trkpt lat="-27.2737714" lon="151.2899041">
  <ele>343.13</ele>
  <time>2026-09-01T19:57:37Z</time>
  <course>105.53</course>
  <speed>0.022360679774997897</speed>
  <fix>3d</fix>
</trkpt>
<trkpt lat="-27.2737715" lon="151.2899038">
  <ele>343.08</ele>
  <time>2026-09-01T19:57:37Z</time>
  <course>45.77</course>
  <speed>0.0</speed>
  <fix>3d</fix>
</trkpt>
<trkpt lat="-27.2737714" lon="151.2899041">
  <ele>343.13</ele>
  <time>2026-09-01T19:57:37Z</time>
  <course>105.53</course>
  <speed>0.022360679774997897</speed>
  <fix>3d</fix>
</trkpt>
<trkpt lat="-27.2737715" lon="151.2899038">
  <ele>343.08</ele>
  <time>2026-09-01T19:57:37Z</time>
  <course>220.74</course>
  <speed>0.0</speed>
  <fix>3d</fix>
</trkpt>
<trkpt lat="-27.2737714" lon="151.2899041">
  <ele>343.14</ele>
  <time>2026-09-01T19:57:37Z</time>
  <course>105.53</course>
  <speed>0.022360679774997897</speed>
  <fix>3d</fix>
</trkpt>
<trkpt lat="-27.2737715" lon="151.2899038">
  <ele>343.08</ele>
  <time>2026-09-01T19:57:37Z</time>
  <course>220.74</course>
  <speed>0.0</speed>
  <fix>3d</fix>
</trkpt>
<trkpt lat="-27.2737714" lon="151.2899041">
  <ele>343.14</ele>
  <time>2026-09-01T19:57:37Z</time>
  <course>105.53</course>
  <speed>0.022360679774997897</speed>
  <fix>3d</fix>
</trkpt>
<trkpt lat="-27.2737715" lon="151.2899038">
  <ele>343.08</ele>
  <time>2026-09-01T19:57:37Z</time>
  <course>227.92</course>
  <speed>0.0</speed>
  <fix>3d</fix>
</trkpt>
<trkpt lat="-27.2737714" lon="151.2899041">
  <ele>343.13</ele>
  <time>2026-09-01T19:57:37Z</time>
  <course>105.53</course>
  <speed>0.022360679774997897</speed>
  <fix>3d</fix>
</trkpt>
<trkpt lat="-27.2737715" lon="151.2899038">
  <ele>343.08</ele>
  <time>2026-09-01T19:57:37Z</time>
  <course>227.92</course>
  <speed>0.0</speed>
  <fix>3d</fix>
</trkpt>
<trkpt lat="-27.2737714" lon="151.2899041">
  <ele>343.13</ele>
  <time>2026-09-01T19:57:37Z</time>
  <course>105.53</course>
  <speed>0.022360679774997897</speed>
  <fix>3d</fix>
</trkpt>
<trkpt lat="-27.2737715" lon="151.2899038">
  <ele>343.08</ele>
  <time>2026-09-01T19:57:37Z</time>
  <course>42.19</course>
  <speed>0.0</speed>
  <fix>3d</fix>
</trkpt>
<trkpt lat="-27.2737714" lon="151.2899041">
  <ele>343.13</ele>
  <time>2026-09-01T19:57:37Z</time>
  <course>105.53</course>
  <speed>0.022360679774997897</speed>
  <fix>3d</fix>
</trkpt>
<trkpt lat="-27.2737715" lon="151.2899038">
  <ele>343.08</ele>
  <time>2026-09-01T19:57:37Z</time>
  <course>42.19</course>
  <speed>0.0</speed>
  <fix>3d</fix>
</trkpt>
<trkpt lat="-27.2737714" lon="151.2899041">
  <ele>343.12</ele>
  <time>2026-09-01T19:57:37Z</time>
  <course>105.53</course>
  <speed>0.022360679774997897</speed>
  <fix>3d</fix>
</trkpt>
<trkpt lat="-27.2737715" lon="151.2899038">
  <ele>343.08</ele>
  <time>2026-09-01T19:57:37Z</time>
  <course>54.14</course>
  <speed>0.0</speed>
  <fix>3d</fix>
</trkpt>
<trkpt lat="-27.2737714" lon="151.2899041">
  <ele>343.12</ele>
  <time>2026-09-01T19:57:37Z</time>
  <course>105.53</course>
  <speed>0.022360679774997897</speed>
  <fix>3d</fix>
</trkpt>
<trkpt lat="-27.2737715" lon="151.2899038">
  <ele>343.08</ele>
  <time>2026-09-01T19:57:37Z</time>
  <course>54.14</course>
  <speed>0.0</speed>
  <fix>3d</fix>
</trkpt>
<trkpt lat="-27.2737714" lon="151.2899041">
  <ele>343.12</ele>
  <time>2026-09-01T19:57:37Z</time>
  <course>105.53</course>
  <speed>0.022360679774997897</speed>
  <fix>3d</fix>
</trkpt>
<trkpt lat="-27.2737715" lon="151.2899038">
  <ele>343.08</ele>
  <time>2026-09-01T19:57:37Z</time>
  <course>223.23</course>
  <speed>0.0</speed>
  <fix>3d</fix>
</trkpt>
<trkpt lat="-27.2737714" lon="151.2899041">
  <ele>343.12</ele>
  <time>2026-09-01T19:57:37Z</time>
  <course>105.53</course>
  <speed>0.022360679774997897</speed>
  <fix>3d</fix>
</trkpt>
<trkpt lat="-27.2737715" lon="151.2899038">
  <ele>343.08</ele>
  <time>2026-09-01T19:57:37Z</time>
  <course>223.23</course>
  <speed>0.0</speed>
  <fix>3d</fix>
</trkpt>
<trkpt lat="-27.2737714" lon="151.2899041">
  <ele>343.13</ele>
  <time>2026-09-01T19:57:37Z</time>
  <course>105.53</course>
  <speed>0.022360679774997897</speed>
  <fix>3d</fix>
</trkpt>
<trkpt lat="-27.2737715" lon="151.2899038">
  <ele>343.08</ele>
  <time>2026-09-01T19:57:37Z</time>
  <course>0.54</course>
  <speed>0.0</speed>
  <fix>3d</fix>
</trkpt>
<trkpt lat="-27.2737714" lon="151.2899041">
  <ele>343.13</ele>
  <time>2026-09-01T19:57:37Z</time>
  <course>105.52</course>
  <speed>0.022360679774997897</speed>
  <fix>3d</fix>
</trkpt>
<trkpt lat="-27.2737715" lon="151.2899038">
  <ele>343.08</ele>
  <time>2026-09-01T19:57:37Z</time>
  <course>215.42</course>
  <speed>0.0</speed>
  <fix>3d</fix>
</trkpt>
<trkpt lat="-27.2737714" lon="151.2899041">
  <ele>343.13</ele>
  <time>2026-09-01T19:57:37Z</time>
  <course>105.52</course>
  <speed>0.022360679774997897</speed>
  <fix>3d</fix>
</trkpt>
<trkpt lat="-27.2737715" lon="151.2899038">
  <ele>343.08</ele>
  <time>2026-09-01T19:57:37Z</time>
  <course>43.17</course>
  <speed>0.0</speed>
  <fix>3d</fix>
</trkpt>
<trkpt lat="-27.2737714" lon="151.2899041">
  <ele>343.13</ele>
  <time>2026-09-01T19:57:37Z</time>
  <course>105.52</course>
  <speed>0.022360679774997897</speed>
  <fix>3d</fix>
</trkpt>
<trkpt lat="-27.2737715" lon="151.2899038">
  <ele>343.08</ele>
  <time>2026-09-01T19:57:37Z</time>
  <course>43.17</course>
  <speed>0.0</speed>
  <fix>3d</fix>
</trkpt>
<trkpt lat="-27.2737714" lon="151.2899041">
  <ele>343.13</ele>
  <time>2026-09-01T19:57:37Z</time>
  <course>105.52</course>
  <speed>0.022360679774997897</speed>
  <fix>3d</fix>
</trkpt>
<trkpt lat="-27.2737715" lon="151.2899038">
  <ele>343.08</ele>
  <time>2026-09-01T19:57:37Z</time>
  <course>54.63</course>
  <speed>0.0</speed>
  <fix>3d</fix>
</trkpt>
<trkpt lat="-27.2737714" lon="151.2899041">
  <ele>343.13</ele>
  <time>2026-09-01T19:57:37Z</time>
  <course>105.52</course>
  <speed>0.022360679774997897</speed>
  <fix>3d</fix>
</trkpt>
<trkpt lat="-27.2737715" lon="151.2899038">
  <ele>343.08</ele>
  <time>2026-09-01T19:57:37Z</time>
  <course>54.63</course>
  <speed>0.0</speed>
  <fix>3d</fix>
</trkpt>
<trkpt lat="-27.2737714" lon="151.2899041">
  <ele>343.12</ele>
  <time>2026-09-01T19:57:37Z</time>
  <course>105.52</course>
  <speed>0.022360679774997897</speed>
  <fix>3d</fix>
</trkpt>
<trkpt lat="-27.2737715" lon="151.2899038">
  <ele>343.08</ele>
  <time>2026-09-01T19:57:37Z</time>
  <course>201.97</course>
  <speed>0.0</speed>
  <fix>3d</fix>
</trkpt>
<trkpt lat="-27.2737714" lon="151.2899041">
  <ele>343.12</ele>
  <time>2026-09-01T19:57:37Z</time>
  <course>105.51</course>
  <speed>0.022360679774997897</speed>
  <fix>3d</fix>
</trkpt>
<trkpt lat="-27.2737715" lon="151.2899038">
  <ele>343.08</ele>
  <time>2026-09-01T19:57:37Z</time>
  <course>201.97</course>
  <speed>0.0</speed>
  <fix>3d</fix>
</trkpt>
<trkpt lat="-27.2737714" lon="151.2899041">
  <ele>343.12</ele>
  <time>2026-09-01T19:57:37Z</time>
  <course>105.51</course>
  <speed>0.022360679774997897</speed>
  <fix>3d</fix>
</trkpt>
<trkpt lat="-27.2737715" lon="151.2899038">
  <ele>343.08</ele>
  <time>2026-09-01T19:57:37Z</time>
  <course>131.67</course>
  <speed>0.0</speed>
  <fix>3d</fix>
</trkpt>
<trkpt lat="-27.2737714" lon="151.2899041">
  <ele>343.12</ele>
  <time>2026-09-01T19:57:37Z</time>
  <course>105.51</course>
  <speed>0.022360679774997897</speed>
  <fix>3d</fix>
</trkpt>
<trkpt lat="-27.2737715" lon="151.2899038">
  <ele>343.08</ele>
  <time>2026-09-01T19:57:37Z</time>
  <course>131.67</course>
  <speed>0.0</speed>
  <fix>3d</fix>
</trkpt>
<trkpt lat="-27.2737714" lon="151.2899041">
  <ele>343.12</ele>
  <time>2026-09-01T19:57:37Z</time>
  <course>105.51</course>
  <speed>0.022360679774997897</speed>
  <fix>3d</fix>
</trkpt>
<trkpt lat="-27.2737715" lon="151.2899038">
  <ele>343.08</ele>
  <time>2026-09-01T19:57:37Z</time>
  <course>87.18</course>
  <speed>0.0</speed>
  <fix>3d</fix>
</trkpt>
<trkpt lat="-27.2737714" lon="151.2899041">
  <ele>343.12</ele>
  <time>2026-09-01T19:57:37Z</time>
  <course>105.51</course>
  <speed>0.022360679774997897</speed>
  <fix>3d</fix>
</trkpt>
<trkpt lat="-27.2737715" lon="151.2899038">
  <ele>343.08</ele>
  <time>2026-09-01T19:57:37Z</time>
  <course>87.18</course>
  <speed>0.0</speed>
  <fix>3d</fix>
</trkpt>
<trkpt lat="-27.2737714" lon="151.2899041">
  <ele>343.12</ele>
  <time>2026-09-01T19:57:37Z</time>
  <course>105.51</course>
  <speed>0.022360679774997897</speed>
  <fix>3d</fix>
</trkpt>
<trkpt lat="-27.2737715" lon="151.2899038">
  <ele>343.08</ele>
  <time>2026-09-01T19:57:37Z</time>
  <course>105.13</course>
  <speed>0.0</speed>
  <fix>3d</fix>
</trkpt>
<trkpt lat="-27.2737714" lon="151.2899041">
  <ele>343.12</ele>
  <time>2026-09-01T19:57:37Z</time>
  <course>105.51</course>
  <speed>0.022360679774997897</speed>
  <fix>3d</fix>
</trkpt>
<trkpt lat="-27.2737715" lon="151.2899038">
  <ele>343.08</ele>
  <time>2026-09-01T19:57:37Z</time>
  <course>105.13</course>
  <speed>0.0</speed>
  <fix>3d</fix>
</trkpt>
<trkpt lat="-27.2737714" lon="151.2899041">
  <ele>343.12</ele>
  <time>2026-09-01T19:57:37Z</time>
  <course>105.51</course>
  <speed>0.022360679774997897</speed>
  <fix>3d</fix>
</trkpt>
<trkpt lat="-27.2737715" lon="151.2899038">
  <ele>343.08</ele>
  <time>2026-09-01T19:57:37Z</time>
  <course>108.32</course>
  <speed>0.0</speed>
  <fix>3d</fix>
</trkpt>
<trkpt lat="-27.2737714" lon="151.2899041">
  <ele>343.12</ele>
  <time>2026-09-01T19:57:37Z</time>
  <course>105.51</course>
  <speed>0.022360679774997897</speed>
  <fix>3d</fix>
</trkpt>
<trkpt lat="-27.2737715" lon="151.2899038">
  <ele>343.08</ele>
  <time>2026-09-01T19:57:37Z</time>
  <course>108.32</course>
  <speed>0.0</speed>
  <fix>3d</fix>
</trkpt>
<trkpt lat="-27.2737714" lon="151.2899041">
  <ele>343.12</ele>
  <time>2026-09-01T19:57:37Z</time>
  <course>105.51</course>
  <speed>0.022360679774997897</speed>
  <fix>3d</fix>
</trkpt>
<trkpt lat="-27.2737715" lon="151.2899038">
  <ele>343.08</ele>
  <time>2026-09-01T19:57:37Z</time>
  <course>104.56</course>
  <speed>0.0</speed>
  <fix>3d</fix>
</trkpt>
<trkpt lat="-27.2737714" lon="151.2899041">
  <ele>343.12</ele>
  <time>2026-09-01T19:57:37Z</time>
  <course>105.5</course>
  <speed>0.022360679774997897</speed>
  <fix>3d</fix>
</trkpt>
<trkpt lat="-27.2737715" lon="151.2899038">
  <ele>343.08</ele>
  <time>2026-09-01T19:57:37Z</time>
  <course>104.56</course>
  <speed>0.0</speed>
  <fix>3d</fix>
</trkpt>
<trkpt lat="-27.2737714" lon="151.2899041">
  <ele>343.12</ele>
  <time>2026-09-01T19:57:37Z</time>
  <course>105.5</course>
  <speed>0.022360679774997897</speed>
  <fix>3d</fix>
</trkpt>
<trkpt lat="-27.2737715" lon="151.2899038">
  <ele>343.08</ele>
  <time>2026-09-01T19:57:37Z</time>
  <course>103.85</course>
  <speed>0.0</speed>
  <fix>3d</fix>
</trkpt>
<trkpt lat="-27.2737714" lon="151.2899041">
  <ele>343.13</ele>
  <time>2026-09-01T19:57:37Z</time>
  <course>105.5</course>
  <speed>0.022360679774997897</speed>
  <fix>3d</fix>
</trkpt>
<trkpt lat="-27.2737715" lon="151.2899038">
  <ele>343.08</ele>
  <time>2026-09-01T19:57:37Z</time>
  <course>103.85</course>
  <speed>0.0</speed>
  <fix>3d</fix>
</trkpt>
<trkpt lat="-27.2737714" lon="151.2899041">
  <ele>343.13</ele>
  <time>2026-09-01T19:57:37Z</time>
  <course>105.5</course>
  <speed>0.022360679774997897</speed>
  <fix>3d</fix>
</trkpt>
<trkpt lat="-27.2737715" lon="151.2899038">
  <ele>343.08</ele>
  <time>2026-09-01T19:57:37Z</time>
  <course>103.89</course>
  <speed>0.0</speed>
  <fix>3d</fix>
</trkpt>
<trkpt lat="-27.2737714" lon="151.2899041">
  <ele>343.13</ele>
  <time>2026-09-01T19:57:37Z</time>
  <course>105.5</course>
  <speed>0.022360679774997897</speed>
  <fix>3d</fix>
</trkpt>
<trkpt lat="-27.2737715" lon="151.2899038">
  <ele>343.08</ele>
  <time>2026-09-01T19:57:37Z</time>
  <course>103.89</course>
  <speed>0.0</speed>
  <fix>3d</fix>
</trkpt>
<trkpt lat="-27.2737714" lon="151.2899041">
  <ele>343.13</ele>
  <time>2026-09-01T19:57:37Z</time>
  <course>105.5</course>
  <speed>0.022360679774997897</speed>
  <fix>3d</fix>
</trkpt>
<trkpt lat="-27.2737715" lon="151.2899038">
  <ele>343.08</ele>
  <time>2026-09-01T19:57:37Z</time>
  <course>103.9</course>
  <speed>0.0</speed>
  <fix>3d</fix>
</trkpt>
<trkpt lat="-27.2737714" lon="151.2899041">
  <ele>343.13</ele>
  <time>2026-09-01T19:57:37Z</time>
  <course>105.5</course>
  <speed>0.022360679774997897</speed>
  <fix>3d</fix>
</trkpt>
<trkpt lat="-27.2737715" lon="151.2899038">
  <ele>343.08</ele>
  <time>2026-09-01T19:57:37Z</time>
  <course>103.9</course>
  <speed>0.0</speed>
  <fix>3d</fix>
</trkpt>
<trkpt lat="-27.2737714" lon="151.2899041">
  <ele>343.13</ele>
  <time>2026-09-01T19:57:37Z</time>
  <course>105.5</course>
  <speed>0.022360679774997897</speed>
  <fix>3d</fix>
</trkpt>
<trkpt lat="-27.2737715" lon="151.2899038">
  <ele>343.08</ele>
  <time>2026-09-01T19:57:37Z</time>
  <course>103.9</course>
  <speed>0.0</speed>
  <fix>3d</fix>
</trkpt>
<trkpt lat="-27.2737714" lon="151.2899041">
  <ele>343.13</ele>
  <time>2026-09-01T19:57:37Z</time>
  <course>105.5</course>
  <speed>0.022360679774997897</speed>
  <fix>3d</fix>
</trkpt>
<trkpt lat="-27.2737715" lon="151.2899038">
  <ele>343.08</ele>
  <time>2026-09-01T19:57:37Z</time>
  <course>103.9</course>
  <speed>0.0</speed>
  <fix>3d</fix>
</trkpt>
<trkpt lat="-27.2737714" lon="151.2899041">
  <ele>343.13</ele>
  <time>2026-09-01T19:57:37Z</time>
  <course>105.49</course>
  <speed>0.022360679774997897</speed>
  <fix>3d</fix>
</trkpt>
<trkpt lat="-27.2737715" lon="151.2899038">
  <ele>343.08</ele>
  <time>2026-09-01T19:57:37Z</time>
  <course>103.9</course>
  <speed>0.0</speed>
  <fix>3d</fix>
</trkpt>
<trkpt lat="-27.2737714" lon="151.2899041">
  <ele>343.14</ele>
  <time>2026-09-01T19:57:37Z</time>
  <course>105.49</course>
  <speed>0.022360679774997897</speed>
  <fix>3d</fix>
</trkpt>
<trkpt lat="-27.2737715" lon="151.2899038">
  <ele>343.08</ele>
  <time>2026-09-01T19:57:37Z</time>
  <course>103.9</course>
  <speed>0.0</speed>
  <fix>3d</fix>
</trkpt>
<trkpt lat="-27.2737714" lon="151.2899041">
  <ele>343.14</ele>
  <time>2026-09-01T19:57:37Z</time>
  <course>105.49</course>
  <speed>0.022360679774997897</speed>
  <fix>3d</fix>
</trkpt>
<trkpt lat="-27.2737715" lon="151.2899038">
  <ele>343.08</ele>
  <time>2026-09-01T19:57:37Z</time>
  <course>103.9</course>
  <speed>0.0</speed>
  <fix>3d</fix>
</trkpt>
<trkpt lat="-27.2737714" lon="151.2899041">
  <ele>343.13</ele>
  <time>2026-09-01T19:57:37Z</time>
  <course>105.49</course>
  <speed>0.022360679774997897</speed>
  <fix>3d</fix>
</trkpt>
<trkpt lat="-27.2737715" lon="151.2899038">
  <ele>343.08</ele>
  <time>2026-09-01T19:57:37Z</time>
  <course>103.9</course>
  <speed>0.0</speed>
  <fix>3d</fix>
</trkpt>
<trkpt lat="-27.2737714" lon="151.2899041">
  <ele>343.13</ele>
  <time>2026-09-01T19:57:37Z</time>
  <course>105.49</course>
  <speed>0.022360679774997897</speed>
  <fix>3d</fix>
</trkpt>
<trkpt lat="-27.2737715" lon="151.2899038">
  <ele>343.08</ele>
  <time>2026-09-01T19:57:37Z</time>
  <course>103.9</course>
  <speed>0.0</speed>
  <fix>3d</fix>
</trkpt>
<trkpt lat="-27.2737714" lon="151.2899041">
  <ele>343.07</ele>
  <time>2026-09-01T19:57:37Z</time>
  <course>105.49</course>
  <speed>0.022360679774997897</speed>
  <fix>3d</fix>
</trkpt>
<trkpt lat="-27.2737715" lon="151.2899038">
  <ele>343.08</ele>
  <time>2026-09-01T19:57:37Z</time>
  <course>103.9</course>
  <speed>0.0</speed>
  <fix>3d</fix>
</trkpt>
<trkpt lat="-27.2737714" lon="151.2899041">
  <ele>343.07</ele>
  <time>2026-09-01T19:57:37Z</time>
  <course>105.49</course>
  <speed>0.022360679774997897</speed>
  <fix>3d</fix>
</trkpt>
<trkpt lat="-27.2737715" lon="151.2899038">
  <ele>343.08</ele>
  <time>2026-09-01T19:57:37Z</time>
  <course>103.9</course>
  <speed>0.0</speed>
  <fix>3d</fix>
</trkpt>
<trkpt lat="-27.2737714" lon="151.2899041">
  <ele>343.07</ele>
  <time>2026-09-01T19:57:37Z</time>
  <course>105.49</course>
  <speed>0.022360679774997897</speed>
  <fix>3d</fix>
</trkpt>
<trkpt lat="-27.2737715" lon="151.2899038">
  <ele>343.08</ele>
  <time>2026-09-01T19:57:37Z</time>
  <course>103.9</course>
  <speed>0.0</speed>
  <fix>3d</fix>
</trkpt>
<trkpt lat="-27.2737714" lon="151.2899041">
  <ele>343.07</ele>
  <time>2026-09-01T19:57:37Z</time>
  <course>105.49</course>
  <speed>0.022360679774997897</speed>
  <fix>3d</fix>
</trkpt>
<trkpt lat="-27.2737715" lon="151.2899038">
  <ele>343.08</ele>
  <time>2026-09-01T19:57:37Z</time>
  <course>103.9</course>
  <speed>0.0</speed>
  <fix>3d</fix>
</trkpt>
<trkpt lat="-27.2737714" lon="151.2899041">
  <ele>343.08</ele>
  <time>2026-09-01T19:57:37Z</time>
  <course>105.48</course>
  <speed>0.022360679774997897</speed>
  <fix>3d</fix>
</trkpt>
<trkpt lat="-27.2737715" lon="151.2899038">
  <ele>343.08</ele>
  <time>2026-09-01T19:57:37Z</time>
  <course>103.9</course>
  <speed>0.0</speed>
  <fix>3d</fix>
</trkpt>
<trkpt lat="-27.2737714" lon="151.2899041">
  <ele>343.08</ele>
  <time>2026-09-01T19:57:37Z</time>
  <course>105.48</course>
  <speed>0.022360679774997897</speed>
  <fix>3d</fix>
</trkpt>
<trkpt lat="-27.2737715" lon="151.2899038">
  <ele>343.08</ele>
  <time>2026-09-01T19:57:37Z</time>
  <course>103.86</course>
  <speed>0.0</speed>
  <fix>3d</fix>
</trkpt>
<trkpt lat="-27.2737714" lon="151.2899041">
  <ele>343.08</ele>
  <time>2026-09-01T19:57:37Z</time>
  <course>105.48</course>
  <speed>0.022360679774997897</speed>
  <fix>3d</fix>
</trkpt>
<trkpt lat="-27.2737715" lon="151.2899038">
  <ele>343.08</ele>
  <time>2026-09-01T19:57:37Z</time>
  <course>103.86</course>
  <speed>0.0</speed>
  <fix>3d</fix>
</trkpt>
<trkpt lat="-27.2737714" lon="151.2899041">
  <ele>343.08</ele>
  <time>2026-09-01T19:57:37Z</time>
  <course>105.48</course>
  <speed>0.022360679774997897</speed>
  <fix>3d</fix>
</trkpt>
<trkpt lat="-27.2737715" lon="151.2899038">
  <ele>343.08</ele>
  <time>2026-09-01T19:57:37Z</time>
  <course>103.95</course>
  <speed>0.0</speed>
  <fix>3d</fix>
</trkpt>
<trkpt lat="-27.2737714" lon="151.2899041">
  <ele>343.07</ele>
  <time>2026-09-01T19:57:37Z</time>
  <course>105.48</course>
  <speed>0.022360679774997897</speed>
  <fix>3d</fix>
</trkpt>
<trkpt lat="-27.2737715" lon="151.2899038">
  <ele>343.08</ele>
  <time>2026-09-01T19:57:37Z</time>
  <course>103.95</course>
  <speed>0.0</speed>
  <fix>3d</fix>
</trkpt>
<trkpt lat="-27.2737714" lon="151.2899041">
  <ele>343.07</ele>
  <time>2026-09-01T19:57:37Z</time>
  <course>105.48</course>
  <speed>0.022360679774997897</speed>
  <fix>3d</fix>
</trkpt>
<trkpt lat="-27.2737715" lon="151.2899038">
  <ele>343.08</ele>
  <time>2026-09-01T19:57:37Z</time>
  <course>55.21</course>
  <speed>0.0</speed>
  <fix>3d</fix>
</trkpt>
<trkpt lat="-27.2737714" lon="151.2899041">
  <ele>343.07</ele>
  <time>2026-09-01T19:57:37Z</time>
  <course>105.48</course>
  <speed>0.022360679774997897</speed>
  <fix>3d</fix>
</trkpt>
<trkpt lat="-27.2737715" lon="151.2899038">
  <ele>343.08</ele>
  <time>2026-09-01T19:57:37Z</time>
  <course>55.21</course>
  <speed>0.0</speed>
  <fix>3d</fix>
</trkpt>
<trkpt lat="-27.2737714" lon="151.2899041">
  <ele>343.07</ele>
  <time>2026-09-01T19:57:37Z</time>
  <course>105.48</course>
  <speed>0.022360679774997897</speed>
  <fix>3d</fix>
</trkpt>
<trkpt lat="-27.2737715" lon="151.2899038">
  <ele>343.08</ele>
  <time>2026-09-01T19:57:37Z</time>
  <course>58.49</course>
  <speed>0.0</speed>
  <fix>3d</fix>
</trkpt>
<trkpt lat="-27.2737714" lon="151.2899041">
  <ele>343.07</ele>
  <time>2026-09-01T19:57:37Z</time>
  <course>105.47</course>
  <speed>0.022360679774997897</speed>
  <fix>3d</fix>
</trkpt>
<trkpt lat="-27.2737715" lon="151.2899038">
  <ele>343.08</ele>
  <time>2026-09-01T19:57:37Z</time>
  <course>58.49</course>
  <speed>0.0</speed>
  <fix>3d</fix>
</trkpt>
<trkpt lat="-27.2737714" lon="151.2899041">
  <ele>343.07</ele>
  <time>2026-09-01T19:57:37Z</time>
  <course>105.47</course>
  <speed>0.022360679774997897</speed>
  <fix>3d</fix>
</trkpt>
<trkpt lat="-27.2737715" lon="151.2899038">
  <ele>343.08</ele>
  <time>2026-09-01T19:57:37Z</time>
  <course>66.05</course>
  <speed>0.0</speed>
  <fix>3d</fix>
</trkpt>
<trkpt lat="-27.2737714" lon="151.2899041">
  <ele>343.07</ele>
  <time>2026-09-01T19:57:37Z</time>
  <course>105.47</course>
  <speed>0.022360679774997897</speed>
  <fix>3d</fix>
</trkpt>
<trkpt lat="-27.2737715" lon="151.2899038">
  <ele>343.08</ele>
  <time>2026-09-01T19:57:37Z</time>
  <course>66.05</course>
  <speed>0.0</speed>
  <fix>3d</fix>
</trkpt>
<trkpt lat="-27.2737714" lon="151.2899041">
  <ele>343.07</ele>
  <time>2026-09-01T19:57:37Z</time>
  <course>105.47</course>
  <speed>0.022360679774997897</speed>
  <fix>3d</fix>
</trkpt>
<trkpt lat="-27.2737715" lon="151.2899038">
  <ele>343.08</ele>
  <time>2026-09-01T19:57:37Z</time>
  <course>242.81</course>
  <speed>0.0</speed>
  <fix>3d</fix>
</trkpt>
<trkpt lat="-27.2737714" lon="151.2899041">
  <ele>343.07</ele>
  <time>2026-09-01T19:57:37Z</time>
  <course>105.47</course>
  <speed>0.022360679774997897</speed>
  <fix>3d</fix>
</trkpt>
<trkpt lat="-27.2737715" lon="151.2899038">
  <ele>343.08</ele>
  <time>2026-09-01T19:57:37Z</time>
  <course>242.81</course>
  <speed>0.0</speed>
  <fix>3d</fix>
</trkpt>
<trkpt lat="-27.2737714" lon="151.2899041">
  <ele>343.06</ele>
  <time>2026-09-01T19:57:37Z</time>
  <course>105.47</course>
  <speed>0.022360679774997897</speed>
  <fix>3d</fix>
</trkpt>
<trkpt lat="-27.2737715" lon="151.2899038">
  <ele>343.08</ele>
  <time>2026-09-01T19:57:37Z</time>
  <course>238.27</course>
  <speed>0.0</speed>
  <fix>3d</fix>
</trkpt>
<trkpt lat="-27.2737714" lon="151.2899041">
  <ele>343.06</ele>
  <time>2026-09-01T19:57:37Z</time>
  <course>105.47</course>
  <speed>0.022360679774997897</speed>
  <fix>3d</fix>
</trkpt>
<trkpt lat="-27.2737715" lon="151.2899038">
  <ele>343.08</ele>
  <time>2026-09-01T19:57:37Z</time>
  <course>238.27</course>
  <speed>0.0</speed>
  <fix>3d</fix>
</trkpt>
<trkpt lat="-27.2737714" lon="151.2899041">
  <ele>343.07</ele>
  <time>2026-09-01T19:57:37Z</time>
  <course>105.47</course>
  <speed>0.022360679774997897</speed>
  <fix>3d</fix>
</trkpt>
<trkpt lat="-27.2737715" lon="151.2899038">
  <ele>343.08</ele>
  <time>2026-09-01T19:57:37Z</time>
  <course>107.11</course>
  <speed>0.0</speed>
  <fix>3d</fix>
</trkpt>
<trkpt lat="-27.2737714" lon="151.2899041">
  <ele>343.11</ele>
  <time>2026-09-01T19:57:37Z</time>
  <course>105.46</course>
  <speed>0.022360679774997897</speed>
  <fix>3d</fix>
</trkpt>
<trkpt lat="-27.2737715" lon="151.2899038">
  <ele>343.08</ele>
  <time>2026-09-01T19:57:37Z</time>
  <course>107.11</course>
  <speed>0.0</speed>
  <fix>3d</fix>
</trkpt>
<trkpt lat="-27.2737714" lon="151.2899041">
  <ele>343.16</ele>
  <time>2026-09-01T19:57:37Z</time>
  <course>105.46</course>
  <speed>0.0316227766016838</speed>
  <fix>3d</fix>
</trkpt>
<trkpt lat="-27.2737715" lon="151.2899038">
  <ele>343.13</ele>
  <time>2026-09-01T19:57:37Z</time>
  <course>106.09</course>
  <speed>0.0</speed>
  <fix>3d</fix>
</trkpt>
<trkpt lat="-27.2737714" lon="151.2899041">
  <ele>343.23</ele>
  <time>2026-09-01T19:57:37Z</time>
  <course>105.46</course>
  <speed>0.0316227766016838</speed>
  <fix>3d</fix>
</trkpt>
<trkpt lat="-27.2737715" lon="151.2899038">
  <ele>343.13</ele>
  <time>2026-09-01T19:57:37Z</time>
  <course>106.09</course>
  <speed>0.0</speed>
  <fix>3d</fix>
</trkpt>
<trkpt lat="-27.2737714" lon="151.2899041">
  <ele>343.37</ele>
  <time>2026-09-01T19:57:37Z</time>
  <course>105.45</course>
  <speed>0.06</speed>
  <fix>3d</fix>
</trkpt>
<trkpt lat="-27.2737715" lon="151.2899038">
  <ele>343.27</ele>
  <time>2026-09-01T19:57:37Z</time>
  <course>114.07</course>
  <speed>0.02</speed>
  <fix>3d</fix>
</trkpt>
<trkpt lat="-27.2737714" lon="151.2899041">
  <ele>343.57</ele>
  <time>2026-09-01T19:57:37Z</time>
  <course>105.44</course>
  <speed>0.09</speed>
  <fix>3d</fix>
</trkpt>
<trkpt lat="-27.2737715" lon="151.2899038">
  <ele>343.27</ele>
  <time>2026-09-01T19:57:37Z</time>
  <course>114.07</course>
  <speed>0.02</speed>
  <fix>3d</fix>
</trkpt>
<trkpt lat="-27.2737714" lon="151.2899042">
  <ele>343.82</ele>
  <time>2026-09-01T19:57:37Z</time>
  <course>105.46</course>
  <speed>0.12165525060596438</speed>
  <fix>3d</fix>
</trkpt>
<trkpt lat="-27.2737715" lon="151.2899038">
  <ele>343.6</ele>
  <time>2026-09-01T19:57:37Z</time>
  <course>113.81</course>
  <speed>0.07</speed>
  <fix>3d</fix>
</trkpt>
<trkpt lat="-27.2737714" lon="151.2899043">
  <ele>344.08</ele>
  <time>2026-09-01T19:57:37Z</time>
  <course>105.49</course>
  <speed>0.16278820596099705</speed>
  <fix>3d</fix>
</trkpt>
<trkpt lat="-27.2737715" lon="151.2899038">
  <ele>343.6</ele>
  <time>2026-09-01T19:57:37Z</time>
  <course>113.81</course>
  <speed>0.07</speed>
  <fix>3d</fix>
</trkpt>
<trkpt lat="-27.2737715" lon="151.2899044">
  <ele>344.36</ele>
  <time>2026-09-01T19:57:37Z</time>
  <course>105.53</course>
  <speed>0.194164878389476</speed>
  <fix>3d</fix>
</trkpt>
<trkpt lat="-27.2737715" lon="151.289904">
  <ele>344.09</ele>
  <time>2026-09-01T19:57:37Z</time>
  <course>112.48</course>
  <speed>0.14</speed>
  <fix>3d</fix>
</trkpt>
<trkpt lat="-27.2737715" lon="151.2899046">
  <ele>344.65</ele>
  <time>2026-09-01T19:57:37Z</time>
  <course>105.58</course>
  <speed>0.2353720459187964</speed>
  <fix>3d</fix>
</trkpt>
<trkpt lat="-27.2737715" lon="151.289904">
  <ele>344.09</ele>
  <time>2026-09-01T19:57:37Z</time>
  <course>112.48</course>
  <speed>0.14</speed>
  <fix>3d</fix>
</trkpt>
<trkpt lat="-27.2737716" lon="151.2899048">
  <ele>344.95</ele>
  <time>2026-09-01T19:57:37Z</time>
  <course>105.62</course>
  <speed>0.27892651361962706</speed>
  <fix>3d</fix>
</trkpt>
<trkpt lat="-27.2737716" lon="151.2899044">
  <ele>344.65</ele>
  <time>2026-09-01T19:57:37Z</time>
  <course>111.24</course>
  <speed>0.22</speed>
  <fix>3d</fix>
</trkpt>
<trkpt lat="-27.2737717" lon="151.2899051">
  <ele>345.27</ele>
  <time>2026-09-01T19:57:37Z</time>
  <course>106.54</course>
  <speed>0.31048349392520047</speed>
  <fix>3d</fix>
</trkpt>
<trkpt lat="-27.2737716" lon="151.2899044">
  <ele>344.65</ele>
  <time>2026-09-01T19:57:37Z</time>
  <course>111.24</course>
  <speed>0.22</speed>
  <fix>3d</fix>
</trkpt>
<trkpt lat="-27.2737718" lon="151.2899054">
  <ele>345.59</ele>
  <time>2026-09-01T19:57:37Z</time>
  <course>106.27</course>
  <speed>0.35171010790137947</speed>
  <fix>3d</fix>
</trkpt>
<trkpt lat="-27.2737718" lon="151.2899049">
  <ele>345.28</ele>
  <time>2026-09-01T19:57:37Z</time>
  <course>110.23</course>
  <speed>0.29</speed>
  <fix>3d</fix>
</trkpt>
<trkpt lat="-27.2737719" lon="151.2899057">
  <ele>345.93</ele>
  <time>2026-09-01T19:57:37Z</time>
  <course>106.18</course>
  <speed>0.383275357934736</speed>
  <fix>3d</fix>
</trkpt>
<trkpt lat="-27.2737718" lon="151.2899049">
  <ele>345.28</ele>
  <time>2026-09-01T19:57:37Z</time>
  <course>110.23</course>
  <speed>0.29</speed>
  <fix>3d</fix>
</trkpt>
<trkpt lat="-27.273772" lon="151.2899061">
  <ele>346.26</ele>
  <time>2026-09-01T19:57:37Z</time>
  <course>106.26</course>
  <speed>0.4026164427839479</speed>
  <fix>3d</fix>
</trkpt>
<trkpt lat="-27.2737718" lon="151.2899049">
  <ele>345.28</ele>
  <time>2026-09-01T19:57:37Z</time>
  <course>110.23</course>
  <speed>0.29</speed>
  <fix>3d</fix>
</trkpt>
<trkpt lat="-27.2737721" lon="151.2899065">
  <ele>346.59</ele>
  <time>2026-09-01T19:57:37Z</time>
  <course>106.43</course>
  <speed>0.42449970553582245</speed>
  <fix>3d</fix>
</trkpt>
<trkpt lat="-27.273772" lon="151.2899055">
  <ele>345.94</ele>
  <time>2026-09-01T19:57:37Z</time>
  <course>109.59</course>
  <speed>0.36</speed>
  <fix>3d</fix>
</trkpt>
<trkpt lat="-27.2737722" lon="151.2899069">
  <ele>346.92</ele>
  <time>2026-09-01T19:57:37Z</time>
  <course>106.61</course>
  <speed>0.4438468204234429</speed>
  <fix>3d</fix>
</trkpt>
<trkpt lat="-27.273772" lon="151.2899055">
  <ele>345.94</ele>
  <time>2026-09-01T19:57:37Z</time>
  <course>109.59</course>
  <speed>0.36</speed>
  <fix>3d</fix>
</trkpt>
<trkpt lat="-27.2737723" lon="151.2899073">
  <ele>347.25</ele>
  <time>2026-09-01T19:57:37Z</time>
  <course>106.76</course>
  <speed>0.4464302857109943</speed>
  <fix>3d</fix>
</trkpt>
<trkpt lat="-27.2737722" lon="151.2899062">
  <ele>346.61</ele>
  <time>2026-09-01T19:57:37Z</time>
  <course>109.34</course>
  <speed>0.41</speed>
  <fix>3d</fix>
</trkpt>
<trkpt lat="-27.2737724" lon="151.2899077">
  <ele>347.57</ele>
  <time>2026-09-01T19:57:37Z</time>
  <course>106.86</course>
  <speed>0.4464302857109943</speed>
  <fix>3d</fix>
</trkpt>
<trkpt lat="-27.2737725" lon="151.2899071">
  <ele>347.26</ele>
  <time>2026-09-01T19:57:37Z</time>
  <course>109.36</course>
  <speed>0.43</speed>
  <fix>3d</fix>
</trkpt>
<trkpt lat="-27.2737726" lon="151.2899081">
  <ele>347.88</ele>
  <time>2026-09-01T19:57:37Z</time>
  <course>106.93</course>
  <speed>0.4464302857109943</speed>
  <fix>3d</fix>
</trkpt>
<trkpt lat="-27.2737725" lon="151.2899071">
  <ele>347.26</ele>
  <time>2026-09-01T19:57:37Z</time>
  <course>109.36</course>
  <speed>0.43</speed>
  <fix>3d</fix>
</trkpt>
<trkpt lat="-27.2737727" lon="151.2899085">
  <ele>348.18</ele>
  <time>2026-09-01T19:57:37Z</time>
  <course>106.94</course>
  <speed>0.4368065933568311</speed>
  <fix>3d</fix>
</trkpt>
<trkpt lat="-27.2737727" lon="151.2899079">
  <ele>347.89</ele>
  <time>2026-09-01T19:57:37Z</time>
  <course>109.55</course>
  <speed>0.43</speed>
  <fix>3d</fix>
</trkpt>
<trkpt lat="-27.2737728" lon="151.2899089">
  <ele>348.48</ele>
  <time>2026-09-01T19:57:37Z</time>
  <course>106.93</course>
  <speed>0.42720018726587655</speed>
  <fix>3d</fix>
</trkpt>
<trkpt lat="-27.2737727" lon="151.2899079">
  <ele>347.89</ele>
  <time>2026-09-01T19:57:37Z</time>
  <course>109.55</course>
  <speed>0.43</speed>
  <fix>3d</fix>
</trkpt>
<trkpt lat="-27.2737729" lon="151.2899093">
  <ele>348.76</ele>
  <time>2026-09-01T19:57:37Z</time>
  <course>106.89</course>
  <speed>0.4052159917870962</speed>
  <fix>3d</fix>
</trkpt>
<trkpt lat="-27.273773" lon="151.2899087">
  <ele>348.49</ele>
  <time>2026-09-01T19:57:37Z</time>
  <course>109.81</course>
  <speed>0.41</speed>
  <fix>3d</fix>
</trkpt>
<trkpt lat="-27.2737731" lon="151.2899096">
  <ele>349.04</ele>
  <time>2026-09-01T19:57:37Z</time>
  <course>106.87</course>
  <speed>0.38600518131237566</speed>
  <fix>3d</fix>
</trkpt>
<trkpt lat="-27.273773" lon="151.2899087">
  <ele>348.49</ele>
  <time>2026-09-01T19:57:37Z</time>
  <course>109.81</course>
  <speed>0.41</speed>
  <fix>3d</fix>
</trkpt>
<trkpt lat="-27.2737732" lon="151.28991">
  <ele>349.32</ele>
  <time>2026-09-01T19:57:37Z</time>
  <course>106.84</course>
  <speed>0.354400902933387</speed>
  <fix>3d</fix>
</trkpt>
<trkpt lat="-27.2737733" lon="151.2899095">
  <ele>349.05</ele>
  <time>2026-09-01T19:57:37Z</time>
  <course>110.13</course>
  <speed>0.37</speed>
  <fix>3d</fix>
</trkpt>
<trkpt lat="-27.2737733" lon="151.2899103">
  <ele>349.58</ele>
  <time>2026-09-01T19:57:37Z</time>
  <course>106.81</course>
  <speed>0.32280024783137945</speed>
  <fix>3d</fix>
</trkpt>
<trkpt lat="-27.2737733" lon="151.2899095">
  <ele>349.05</ele>
  <time>2026-09-01T19:57:37Z</time>
  <course>110.13</course>
  <speed>0.37</speed>
  <fix>3d</fix>
</trkpt>
<trkpt lat="-27.2737734" lon="151.2899106">
  <ele>349.84</ele>
  <time>2026-09-01T19:57:37Z</time>
  <course>106.79</course>
  <speed>0.29120439557122074</speed>
  <fix>3d</fix>
</trkpt>
<trkpt lat="-27.2737735" lon="151.2899102">
  <ele>349.59</ele>
  <time>2026-09-01T19:57:37Z</time>
  <course>110.5</course>
  <speed>0.31</speed>
  <fix>3d</fix>
</trkpt>
<trkpt lat="-27.2737735" lon="151.2899108">
  <ele>350.09</ele>
  <time>2026-09-01T19:57:37Z</time>
  <course>106.78</course>
  <speed>0.2596150997149434</speed>
  <fix>3d</fix>
</trkpt>
<trkpt lat="-27.2737735" lon="151.2899102">
  <ele>349.59</ele>
  <time>2026-09-01T19:57:37Z</time>
  <course>110.5</course>
  <speed>0.31</speed>
  <fix>3d</fix>
</trkpt>
<trkpt lat="-27.2737735" lon="151.289911">
  <ele>350.33</ele>
  <time>2026-09-01T19:57:37Z</time>
  <course>106.77</course>
  <speed>0.21840329667841554</speed>
  <fix>3d</fix>
</trkpt>
<trkpt lat="-27.2737737" lon="151.2899107">
  <ele>350.1</ele>
  <time>2026-09-01T19:57:37Z</time>
  <course>111.01</course>
  <speed>0.24</speed>
  <fix>3d</fix>
</trkpt>
<trkpt lat="-27.2737736" lon="151.2899112">
  <ele>350.57</ele>
  <time>2026-09-01T19:57:37Z</time>
  <course>106.77</course>
  <speed>0.18681541692269404</speed>
  <fix>3d</fix>
</trkpt>
<trkpt lat="-27.2737737" lon="151.2899107">
  <ele>350.1</ele>
  <time>2026-09-01T19:57:37Z</time>
  <course>111.01</course>
  <speed>0.24</speed>
  <fix>3d</fix>
</trkpt>
<trkpt lat="-27.2737737" lon="151.2899114">
  <ele>350.81</ele>
  <time>2026-09-01T19:57:37Z</time>
  <course>106.76</course>
  <speed>0.14560219778561037</speed>
  <fix>3d</fix>
</trkpt>
<trkpt lat="-27.2737738" lon="151.289911">
  <ele>350.59</ele>
  <time>2026-09-01T19:57:37Z</time>
  <course>111.84</course>
  <speed>0.17</speed>
  <fix>3d</fix>
</trkpt>
<trkpt lat="-27.2737737" lon="151.2899115">
  <ele>351.05</ele>
  <time>2026-09-01T19:57:37Z</time>
  <course>106.76</course>
  <speed>0.1118033988749895</speed>
  <fix>3d</fix>
</trkpt>
<trkpt lat="-27.2737738" lon="151.289911">
  <ele>350.59</ele>
  <time>2026-09-01T19:57:37Z</time>
  <course>111.84</course>
  <speed>0.17</speed>
  <fix>3d</fix>
</trkpt>
<trkpt lat="-27.2737738" lon="151.2899115">
  <ele>351.28</ele>
  <time>2026-09-01T19:57:37Z</time>
  <course>106.75</course>
  <speed>0.07071067811865475</speed>
  <fix>3d</fix>
</trkpt>
<trkpt lat="-27.2737739" lon="151.2899113">
  <ele>351.08</ele>
  <time>2026-09-01T19:57:37Z</time>
  <course>113.47</course>
  <speed>0.09</speed>
  <fix>3d</fix>
</trkpt>
<trkpt lat="-27.2737738" lon="151.2899116">
  <ele>351.52</ele>
  <time>2026-09-01T19:57:37Z</time>
  <course>106.74</course>
  <speed>0.04</speed>
  <fix>3d</fix>
</trkpt>
<trkpt lat="-27.2737739" lon="151.2899113">
  <ele>351.08</ele>
  <time>2026-09-01T19:57:37Z</time>
  <course>113.47</course>
  <speed>0.09</speed>
  <fix>3d</fix>
</trkpt>
<trkpt lat="-27.2737738" lon="151.2899116">
  <ele>351.76</ele>
  <time>2026-09-01T19:57:37Z</time>
  <course>106.73</course>
  <speed>0.01</speed>
  <fix>3d</fix>
</trkpt>
<trkpt lat="-27.2737739" lon="151.2899114">
  <ele>351.57</ele>
  <time>2026-09-01T19:57:37Z</time>
  <course>122.04</course>
  <speed>0.02</speed>
  <fix>3d</fix>
</trkpt>
<trkpt lat="-27.2737738" lon="151.2899115">
  <ele>352.01</ele>
  <time>2026-09-01T19:57:37Z</time>
  <course>106.72</course>
  <speed>0.01414213562373095</speed>
  <fix>3d</fix>
</trkpt>
<trkpt lat="-27.2737739" lon="151.2899114">
  <ele>351.57</ele>
  <time>2026-09-01T19:57:37Z</time>
  <course>122.04</course>
  <speed>0.02</speed>
  <fix>3d</fix>
</trkpt>
<trkpt lat="-27.2737738" lon="151.2899116">
  <ele>352.25</ele>
  <time>2026-09-01T19:57:37Z</time>
  <course>106.7</course>
  <speed>0.044721359549995794</speed>
  <fix>3d</fix>
</trkpt>
<trkpt lat="-27.2737739" lon="151.2899114">
  <ele>351.57</ele>
  <time>2026-09-01T19:57:37Z</time>
  <course>122.04</course>
  <speed>0.02</speed>
  <fix>3d</fix>
</trkpt>
<trkpt lat="-27.2737738" lon="151.2899115">
  <ele>352.49</ele>
  <time>2026-09-01T19:57:37Z</time>
  <course>106.68</course>
  <speed>0.0670820393249937</speed>
  <fix>3d</fix>
</trkpt>
<trkpt lat="-27.273774" lon="151.2899115">
  <ele>352.05</ele>
  <time>2026-09-01T19:57:37Z</time>
  <course>283.74</course>
  <speed>0.03</speed>
  <fix>3d</fix>
</trkpt>
<trkpt lat="-27.2737738" lon="151.2899114">
  <ele>352.74</ele>
  <time>2026-09-01T19:57:37Z</time>
  <course>106.65</course>
  <speed>0.0854400374531753</speed>
  <fix>3d</fix>
</trkpt>
<trkpt lat="-27.273774" lon="151.2899115">
  <ele>352.05</ele>
  <time>2026-09-01T19:57:37Z</time>
  <course>283.74</course>
  <speed>0.03</speed>
  <fix>3d</fix>
</trkpt>
<trkpt lat="-27.2737738" lon="151.2899113">
  <ele>352.99</ele>
  <time>2026-09-01T19:57:37Z</time>
  <course>106.61</course>
  <speed>0.10770329614269007</speed>
  <fix>3d</fix>
</trkpt>
<trkpt lat="-27.273774" lon="151.2899114">
  <ele>352.53</ele>
  <time>2026-09-01T19:57:37Z</time>
  <course>287.91</course>
  <speed>0.09</speed>
  <fix>3d</fix>
</trkpt>
<trkpt lat="-27.2737738" lon="151.2899112">
  <ele>353.24</ele>
  <time>2026-09-01T19:57:37Z</time>
  <course>106.56</course>
  <speed>0.1264911064067352</speed>
  <fix>3d</fix>
</trkpt>
<trkpt lat="-27.273774" lon="151.2899114">
  <ele>352.53</ele>
  <time>2026-09-01T19:57:37Z</time>
  <course>287.91</course>
  <speed>0.09</speed>
  <fix>3d</fix>
</trkpt>
<trkpt lat="-27.2737738" lon="151.2899111">
  <ele>353.48</ele>
  <time>2026-09-01T19:57:37Z</time>
  <course>106.51</course>
  <speed>0.1392838827718412</speed>
  <fix>3d</fix>
</trkpt>
<trkpt lat="-27.2737739" lon="151.2899112">
  <ele>353.02</ele>
  <time>2026-09-01T19:57:37Z</time>
  <course>288.42</course>
  <speed>0.13</speed>
  <fix>3d</fix>
</trkpt>
<trkpt lat="-27.2737738" lon="151.2899109">
  <ele>353.73</ele>
  <time>2026-09-01T19:57:37Z</time>
  <course>106.45</course>
  <speed>0.14866068747318506</speed>
  <fix>3d</fix>
</trkpt>
<trkpt lat="-27.2737739" lon="151.2899112">
  <ele>353.02</ele>
  <time>2026-09-01T19:57:37Z</time>
  <course>288.42</course>
  <speed>0.13</speed>
  <fix>3d</fix>
</trkpt>
<trkpt lat="-27.2737737" lon="151.2899107">
  <ele>353.98</ele>
  <time>2026-09-01T19:57:37Z</time>
  <course>106.38</course>
  <speed>0.16278820596099705</speed>
  <fix>3d</fix>
</trkpt>
<trkpt lat="-27.2737738" lon="151.2899109">
  <ele>353.52</ele>
  <time>2026-09-01T19:57:37Z</time>
  <course>288.3</course>
  <speed>0.17</speed>
  <fix>3d</fix>
</trkpt>
<trkpt lat="-27.2737737" lon="151.2899105">
  <ele>354.23</ele>
  <time>2026-09-01T19:57:37Z</time>
  <course>106.35</course>
  <speed>0.17262676501632068</speed>
  <fix>3d</fix>
</trkpt>
<trkpt lat="-27.2737738" lon="151.2899109">
  <ele>353.52</ele>
  <time>2026-09-01T19:57:37Z</time>
  <course>288.3</course>
  <speed>0.17</speed>
  <fix>3d</fix>
</trkpt>
<trkpt lat="-27.2737737" lon="151.2899103">
  <ele>354.48</ele>
  <time>2026-09-01T19:57:37Z</time>
  <course>106.37</course>
  <speed>0.18027756377319945</speed>
  <fix>3d</fix>
</trkpt>
<trkpt lat="-27.2737737" lon="151.2899105">
  <ele>354.02</ele>
  <time>2026-09-01T19:57:37Z</time>
  <course>288.62</course>
  <speed>0.19</speed>
  <fix>3d</fix>
</trkpt>
<trkpt lat="-27.2737736" lon="151.2899102">
  <ele>354.73</ele>
  <time>2026-09-01T19:57:38Z</time>
  <course>106.37</course>
  <speed>0.18027756377319945</speed>
  <fix>3d</fix>
</trkpt>
<trkpt lat="-27.2737736" lon="151.2899101">
  <ele>354.53</ele>
  <time>2026-09-01T19:57:38Z</time>
  <course>289.13</course>
  <speed>0.21</speed>
  <fix>3d</fix>
</trkpt>
<trkpt lat="-27.2737736" lon="151.2899099">
  <ele>354.99</ele>
  <time>2026-09-01T19:57:38Z</time>
  <course>106.3</course>
  <speed>0.18681541692269404</speed>
  <fix>3d</fix>
</trkpt>
<trkpt lat="-27.2737736" lon="151.2899101">
  <ele>354.53</ele>
  <time>2026-09-01T19:57:38Z</time>
  <course>289.13</course>
  <speed>0.21</speed>
  <fix>3d</fix>
</trkpt>
<trkpt lat="-27.2737735" lon="151.2899097">
  <ele>355.24</ele>
  <time>2026-09-01T19:57:38Z</time>
  <course>106.23</course>
  <speed>0.196468827043885</speed>
  <fix>3d</fix>
</trkpt>
<trkpt lat="-27.2737735" lon="151.2899097">
  <ele>355.03</ele>
  <time>2026-09-01T19:57:38Z</time>
  <course>289.07</course>
  <speed>0.22</speed>
  <fix>3d</fix>
</trkpt>
<trkpt lat="-27.2737734" lon="151.2899095">
  <ele>355.49</ele>
  <time>2026-09-01T19:57:38Z</time>
  <course>106.18</course>
  <speed>0.19924858845171275</speed>
  <fix>3d</fix>
</trkpt>
<trkpt lat="-27.2737735" lon="151.2899097">
  <ele>355.03</ele>
  <time>2026-09-01T19:57:38Z</time>
  <course>289.07</course>
  <speed>0.22</speed>
  <fix>3d</fix>
</trkpt>
<trkpt lat="-27.2737734" lon="151.2899093">
  <ele>355.75</ele>
  <time>2026-09-01T19:57:38Z</time>
  <course>106.14</course>
  <speed>0.19924858845171275</speed>
  <fix>3d</fix>
</trkpt>
<trkpt lat="-27.2737733" lon="151.2899092">
  <ele>355.54</ele>
  <time>2026-09-01T19:57:38Z</time>
  <course>288.78</course>
  <speed>0.23</speed>
  <fix>3d</fix>
</trkpt>
<trkpt lat="-27.2737733" lon="151.2899091">
  <ele>356.0</ele>
  <time>2026-09-01T19:57:38Z</time>
  <course>106.12</course>
  <speed>0.20248456731316586</speed>
  <fix>3d</fix>
</trkpt>
<trkpt lat="-27.2737733" lon="151.2899092">
  <ele>355.54</ele>
  <time>2026-09-01T19:57:38Z</time>
  <course>288.78</course>
  <speed>0.23</speed>
  <fix>3d</fix>
</trkpt>
<trkpt lat="-27.2737732" lon="151.2899089">
  <ele>356.26</ele>
  <time>2026-09-01T19:57:38Z</time>
  <course>106.12</course>
  <speed>0.20248456731316586</speed>
  <fix>3d</fix>
</trkpt>
<trkpt lat="-27.2737732" lon="151.2899088">
  <ele>356.05</ele>
  <time>2026-09-01T19:57:38Z</time>
  <course>288.8</course>
  <speed>0.23</speed>
  <fix>3d</fix>
</trkpt>
<trkpt lat="-27.2737732" lon="151.2899086">
  <ele>356.51</ele>
  <time>2026-09-01T19:57:38Z</time>
  <course>106.12</course>
  <speed>0.19924858845171275</speed>
  <fix>3d</fix>
</trkpt>
<trkpt lat="-27.2737732" lon="151.2899088">
  <ele>356.05</ele>
  <time>2026-09-01T19:57:38Z</time>
  <course>288.8</course>
  <speed>0.23</speed>
  <fix>3d</fix>
</trkpt>
<trkpt lat="-27.2737731" lon="151.2899084">
  <ele>356.76</ele>
  <time>2026-09-01T19:57:38Z</time>
  <course>106.12</course>
  <speed>0.19924858845171275</speed>
  <fix>3d</fix>
</trkpt>
<trkpt lat="-27.2737731" lon="151.2899083">
  <ele>356.56</ele>
  <time>2026-09-01T19:57:38Z</time>
  <course>288.54</course>
  <speed>0.23</speed>
  <fix>3d</fix>
</trkpt>
<trkpt lat="-27.273773" lon="151.2899082">
  <ele>357.01</ele>
  <time>2026-09-01T19:57:38Z</time>
  <course>106.14</course>
  <speed>0.19924858845171275</speed>
  <fix>3d</fix>
</trkpt>
<trkpt lat="-27.2737731" lon="151.2899083">
  <ele>356.56</ele>
  <time>2026-09-01T19:57:38Z</time>
  <course>288.54</course>
  <speed>0.23</speed>
  <fix>3d</fix>
</trkpt>
<trkpt lat="-27.273773" lon="151.289908">
  <ele>357.27</ele>
  <time>2026-09-01T19:57:38Z</time>
  <course>106.18</course>
  <speed>0.19924858845171275</speed>
  <fix>3d</fix>
</trkpt>
<trkpt lat="-27.2737731" lon="151.2899083">
  <ele>356.56</ele>
  <time>2026-09-01T19:57:38Z</time>
  <course>288.54</course>
  <speed>0.23</speed>
  <fix>3d</fix>
</trkpt>
<trkpt lat="-27.2737729" lon="151.2899078">
  <ele>357.53</ele>
  <time>2026-09-01T19:57:38Z</time>
  <course>106.22</course>
  <speed>0.19924858845171275</speed>
  <fix>3d</fix>
</trkpt>
<trkpt lat="-27.2737729" lon="151.2899079">
  <ele>357.06</ele>
  <time>2026-09-01T19:57:38Z</time>
  <course>288.38</course>
  <speed>0.23</speed>
  <fix>3d</fix>
</trkpt>
<trkpt lat="-27.2737728" lon="151.2899075">
  <ele>357.78</ele>
  <time>2026-09-01T19:57:38Z</time>
  <course>106.25</course>
  <speed>0.18973665961010278</speed>
  <fix>3d</fix>
</trkpt>
<trkpt lat="-27.2737729" lon="151.2899079">
  <ele>357.06</ele>
  <time>2026-09-01T19:57:38Z</time>
  <course>288.38</course>
  <speed>0.23</speed>
  <fix>3d</fix>
</trkpt>
<trkpt lat="-27.2737728" lon="151.2899073">
  <ele>358.03</ele>
  <time>2026-09-01T19:57:38Z</time>
  <course>106.25</course>
  <speed>0.18681541692269404</speed>
  <fix>3d</fix>
</trkpt>
<trkpt lat="-27.2737728" lon="151.2899074">
  <ele>357.57</ele>
  <time>2026-09-01T19:57:38Z</time>
  <course>288.87</course>
  <speed>0.23</speed>
  <fix>3d</fix>
</trkpt>
<trkpt lat="-27.2737727" lon="151.2899071">
  <ele>358.3</ele>
  <time>2026-09-01T19:57:38Z</time>
  <course>106.25</course>
  <speed>0.18973665961010278</speed>
  <fix>3d</fix>
</trkpt>
<trkpt lat="-27.2737728" lon="151.2899074">
  <ele>357.57</ele>
  <time>2026-09-01T19:57:38Z</time>
  <course>288.87</course>
  <speed>0.23</speed>
  <fix>3d</fix>
</trkpt>
<trkpt lat="-27.2737727" lon="151.2899069">
  <ele>358.54</ele>
  <time>2026-09-01T19:57:38Z</time>
  <course>106.23</course>
  <speed>0.18681541692269404</speed>
  <fix>3d</fix>
</trkpt>
<trkpt lat="-27.2737727" lon="151.2899069">
  <ele>358.07</ele>
  <time>2026-09-01T19:57:38Z</time>
  <course>289.21</course>
  <speed>0.22</speed>
  <fix>3d</fix>
</trkpt>
<trkpt lat="-27.2737726" lon="151.2899067">
  <ele>358.79</ele>
  <time>2026-09-01T19:57:38Z</time>
  <course>106.21</course>
  <speed>0.1772004514666935</speed>
  <fix>3d</fix>
</trkpt>
<trkpt lat="-27.2737727" lon="151.2899069">
  <ele>358.07</ele>
  <time>2026-09-01T19:57:38Z</time>
  <course>289.21</course>
  <speed>0.22</speed>
  <fix>3d</fix>
</trkpt>
<trkpt lat="-27.2737725" lon="151.2899065">
  <ele>359.04</ele>
  <time>2026-09-01T19:57:38Z</time>
  <course>106.2</course>
  <speed>0.1772004514666935</speed>
  <fix>3d</fix>
</trkpt>
<trkpt lat="-27.2737725" lon="151.2899066">
  <ele>358.58</ele>
  <time>2026-09-01T19:57:38Z</time>
  <course>289.39</course>
  <speed>0.22</speed>
  <fix>3d</fix>
</trkpt>
<trkpt lat="-27.2737725" lon="151.2899063">
  <ele>359.29</ele>
  <time>2026-09-01T19:57:38Z</time>
  <course>106.2</course>
  <speed>0.1708800749063506</speed>
  <fix>3d</fix>
</trkpt>
<trkpt lat="-27.2737725" lon="151.2899066">
  <ele>358.58</ele>
  <time>2026-09-01T19:57:38Z</time>
  <course>289.39</course>
  <speed>0.22</speed>
  <fix>3d</fix>
</trkpt>
<trkpt lat="-27.2737724" lon="151.2899061">
  <ele>359.54</ele>
  <time>2026-09-01T19:57:38Z</time>
  <course>106.19</course>
  <speed>0.1676305461424021</speed>
  <fix>3d</fix>
</trkpt>
<trkpt lat="-27.2737724" lon="151.2899062">
  <ele>359.08</ele>
  <time>2026-09-01T19:57:38Z</time>
  <course>289.71</course>
  <speed>0.21</speed>
  <fix>3d</fix>
</trkpt>
<trkpt lat="-27.2737724" lon="151.2899059">
  <ele>359.78</ele>
  <time>2026-09-01T19:57:38Z</time>
  <course>106.16</course>
  <speed>0.1676305461424021</speed>
  <fix>3d</fix>
</trkpt>
<trkpt lat="-27.2737724" lon="151.2899062">
  <ele>359.08</ele>
  <time>2026-09-01T19:57:38Z</time>
  <course>289.71</course>
  <speed>0.21</speed>
  <fix>3d</fix>
</trkpt>
<trkpt lat="-27.2737723" lon="151.2899057">
  <ele>360.03</ele>
  <time>2026-09-01T19:57:38Z</time>
  <course>106.15</course>
  <speed>0.15811388300841897</speed>
  <fix>3d</fix>
</trkpt>
<trkpt lat="-27.2737723" lon="151.2899057">
  <ele>359.57</ele>
  <time>2026-09-01T19:57:38Z</time>
  <course>289.64</course>
  <speed>0.2</speed>
  <fix>3d</fix>
</trkpt>
<trkpt lat="-27.2737723" lon="151.2899055">
  <ele>360.28</ele>
  <time>2026-09-01T19:57:38Z</time>
  <course>106.16</course>
  <speed>0.15811388300841897</speed>
  <fix>3d</fix>
</trkpt>
<trkpt lat="-27.2737723" lon="151.2899057">
  <ele>359.57</ele>
  <time>2026-09-01T19:57:38Z</time>
  <course>289.64</course>
  <speed>0.2</speed>
  <fix>3d</fix>
</trkpt>
<trkpt lat="-27.2737722" lon="151.2899053">
  <ele>360.53</ele>
  <time>2026-09-01T19:57:38Z</time>
  <course>106.16</course>
  <speed>0.14560219778561037</speed>
  <fix>3d</fix>
</trkpt>
<trkpt lat="-27.2737721" lon="151.2899054">
  <ele>360.07</ele>
  <time>2026-09-01T19:57:38Z</time>
  <course>289.57</course>
  <speed>0.19</speed>
  <fix>3d</fix>
</trkpt>
<trkpt lat="-27.2737721" lon="151.2899052">
  <ele>360.78</ele>
  <time>2026-09-01T19:57:38Z</time>
  <course>106.16</course>
  <speed>0.14560219778561037</speed>
  <fix>3d</fix>
</trkpt>
<trkpt lat="-27.2737721" lon="151.2899054">
  <ele>360.07</ele>
  <time>2026-09-01T19:57:38Z</time>
  <course>289.57</course>
  <speed>0.19</speed>
  <fix>3d</fix>
</trkpt>
<trkpt lat="-27.2737721" lon="151.289905">
  <ele>361.03</ele>
  <time>2026-09-01T19:57:38Z</time>
  <course>106.17</course>
  <speed>0.13601470508735444</speed>
  <fix>3d</fix>
</trkpt>
<trkpt lat="-27.273772" lon="151.289905">
  <ele>360.57</ele>
  <time>2026-09-01T19:57:38Z</time>
  <course>289.8</course>
  <speed>0.18</speed>
  <fix>3d</fix>
</trkpt>
<trkpt lat="-27.273772" lon="151.2899048">
  <ele>361.28</ele>
  <time>2026-09-01T19:57:38Z</time>
  <course>106.19</course>
  <speed>0.1264911064067352</speed>
  <fix>3d</fix>
</trkpt>
<trkpt lat="-27.273772" lon="151.289905">
  <ele>360.57</ele>
  <time>2026-09-01T19:57:38Z</time>
  <course>289.8</course>
  <speed>0.18</speed>
  <fix>3d</fix>
</trkpt>
<trkpt lat="-27.273772" lon="151.2899047">
  <ele>361.53</ele>
  <time>2026-09-01T19:57:38Z</time>
  <course>106.2</course>
  <speed>0.1264911064067352</speed>
  <fix>3d</fix>
</trkpt>
<trkpt lat="-27.2737719" lon="151.2899047">
  <ele>361.07</ele>
  <time>2026-09-01T19:57:38Z</time>
  <course>290.42</course>
  <speed>0.17</speed>
  <fix>3d</fix>
</trkpt>
<trkpt lat="-27.2737719" lon="151.2899045">
  <ele>361.78</ele>
  <time>2026-09-01T19:57:38Z</time>
  <course>106.19</course>
  <speed>0.11704699910719625</speed>
  <fix>3d</fix>
</trkpt>
<trkpt lat="-27.2737718" lon="151.2899043">
  <ele>361.57</ele>
  <time>2026-09-01T19:57:38Z</time>
  <course>290.9</course>
  <speed>0.16</speed>
  <fix>3d</fix>
</trkpt>
<trkpt lat="-27.2737719" lon="151.2899044">
  <ele>362.03</ele>
  <time>2026-09-01T19:57:38Z</time>
  <course>106.18</course>
  <speed>0.10770329614269007</speed>
  <fix>3d</fix>
</trkpt>
<trkpt lat="-27.2737718" lon="151.2899043">
  <ele>361.57</ele>
  <time>2026-09-01T19:57:38Z</time>
  <course>290.9</course>
  <speed>0.16</speed>
  <fix>3d</fix>
</trkpt>
<trkpt lat="-27.2737718" lon="151.2899043">
  <ele>362.28</ele>
  <time>2026-09-01T19:57:38Z</time>
  <course>106.19</course>
  <speed>0.10770329614269007</speed>
  <fix>3d</fix>
</trkpt>
<trkpt lat="-27.2737717" lon="151.289904">
  <ele>362.07</ele>
  <time>2026-09-01T19:57:38Z</time>
  <course>290.68</course>
  <speed>0.14</speed>
  <fix>3d</fix>
</trkpt>
<trkpt lat="-27.2737718" lon="151.2899041">
  <ele>362.53</ele>
  <time>2026-09-01T19:57:38Z</time>
  <course>106.2</course>
  <speed>0.09848857801796104</speed>
  <fix>3d</fix>
</trkpt>
<trkpt lat="-27.2737717" lon="151.289904">
  <ele>362.07</ele>
  <time>2026-09-01T19:57:38Z</time>
  <course>290.68</course>
  <speed>0.14</speed>
  <fix>3d</fix>
</trkpt>
<trkpt lat="-27.2737717" lon="151.289904">
  <ele>362.79</ele>
  <time>2026-09-01T19:57:38Z</time>
  <course>106.24</course>
  <speed>0.08944271909999159</speed>
  <fix>3d</fix>
</trkpt>
<trkpt lat="-27.2737717" lon="151.289904">
  <ele>362.07</ele>
  <time>2026-09-01T19:57:38Z</time>
  <course>290.68</course>
  <speed>0.14</speed>
  <fix>3d</fix>
</trkpt>
<trkpt lat="-27.2737717" lon="151.2899039">
  <ele>363.04</ele>
  <time>2026-09-01T19:57:38Z</time>
  <course>106.28</course>
  <speed>0.08944271909999159</speed>
  <fix>3d</fix>
</trkpt>
<trkpt lat="-27.2737716" lon="151.2899038">
  <ele>362.57</ele>
  <time>2026-09-01T19:57:38Z</time>
  <course>291.21</course>
  <speed>0.13</speed>
  <fix>3d</fix>
</trkpt>
<trkpt lat="-27.2737716" lon="151.2899038">
  <ele>363.29</ele>
  <time>2026-09-01T19:57:38Z</time>
  <course>106.31</course>
  <speed>0.08062257748298549</speed>
  <fix>3d</fix>
</trkpt>
<trkpt lat="-27.2737716" lon="151.2899038">
  <ele>362.57</ele>
  <time>2026-09-01T19:57:38Z</time>
  <course>291.21</course>
  <speed>0.13</speed>
  <fix>3d</fix>
</trkpt>
<trkpt lat="-27.2737716" lon="151.2899037">
  <ele>363.56</ele>
  <time>2026-09-01T19:57:38Z</time>
  <course>106.35</course>
  <speed>0.07211102550927978</speed>
  <fix>3d</fix>
</trkpt>
<trkpt lat="-27.2737715" lon="151.2899036">
  <ele>363.07</ele>
  <time>2026-09-01T19:57:38Z</time>
  <course>291.99</course>
  <speed>0.12</speed>
  <fix>3d</fix>
</trkpt>
<trkpt lat="-27.2737715" lon="151.2899036">
  <ele>363.81</ele>
  <time>2026-09-01T19:57:38Z</time>
  <course>106.38</course>
  <speed>0.07211102550927978</speed>
  <fix>3d</fix>
</trkpt>
<trkpt lat="-27.2737715" lon="151.2899036">
  <ele>363.07</ele>
  <time>2026-09-01T19:57:38Z</time>
  <course>291.99</course>
  <speed>0.12</speed>
  <fix>3d</fix>
</trkpt>
<trkpt lat="-27.2737715" lon="151.2899035">
  <ele>364.06</ele>
  <time>2026-09-01T19:57:38Z</time>
  <course>106.41</course>
  <speed>0.06403124237432849</speed>
  <fix>3d</fix>
</trkpt>
<trkpt lat="-27.2737715" lon="151.2899033">
  <ele>363.57</ele>
  <time>2026-09-01T19:57:38Z</time>
  <course>292.49</course>
  <speed>0.1</speed>
  <fix>3d</fix>
</trkpt>
<trkpt lat="-27.2737714" lon="151.2899034">
  <ele>364.31</ele>
  <time>2026-09-01T19:57:38Z</time>
  <course>106.43</course>
  <speed>0.06403124237432849</speed>
  <fix>3d</fix>
</trkpt>
<trkpt lat="-27.2737715" lon="151.2899033">
  <ele>363.57</ele>
  <time>2026-09-01T19:57:38Z</time>
  <course>292.49</course>
  <speed>0.1</speed>
  <fix>3d</fix>
</trkpt>
<trkpt lat="-27.2737714" lon="151.2899033">
  <ele>364.56</ele>
  <time>2026-09-01T19:57:38Z</time>
  <course>106.45</course>
  <speed>0.0565685424949238</speed>
  <fix>3d</fix>
</trkpt>
<trkpt lat="-27.2737714" lon="151.2899032">
  <ele>364.07</ele>
  <time>2026-09-01T19:57:38Z</time>
  <course>292.97</course>
  <speed>0.09</speed>
  <fix>3d</fix>
</trkpt>
<trkpt lat="-27.2737714" lon="151.2899033">
  <ele>364.81</ele>
  <time>2026-09-01T19:57:38Z</time>
  <course>106.48</course>
  <speed>0.05</speed>
  <fix>3d</fix>
</trkpt>
<trkpt lat="-27.2737714" lon="151.2899032">
  <ele>364.07</ele>
  <time>2026-09-01T19:57:38Z</time>
  <course>292.97</course>
  <speed>0.09</speed>
  <fix>3d</fix>
</trkpt>
<trkpt lat="-27.2737713" lon="151.2899032">
  <ele>365.06</ele>
  <time>2026-09-01T19:57:38Z</time>
  <course>106.52</course>
  <speed>0.04242640687119285</speed>
  <fix>3d</fix>
</trkpt>
<trkpt lat="-27.2737713" lon="151.2899029">
  <ele>364.57</ele>
  <time>2026-09-01T19:57:38Z</time>
  <course>293.57</course>
  <speed>0.08</speed>
  <fix>3d</fix>
</trkpt>
<trkpt lat="-27.2737713" lon="151.2899031">
  <ele>365.3</ele>
  <time>2026-09-01T19:57:38Z</time>
  <course>106.53</course>
  <speed>0.03605551275463989</speed>
  <fix>3d</fix>
</trkpt>
<trkpt lat="-27.2737713" lon="151.2899029">
  <ele>364.57</ele>
  <time>2026-09-01T19:57:38Z</time>
  <course>293.57</course>
  <speed>0.08</speed>
  <fix>3d</fix>
</trkpt>
<trkpt lat="-27.2737713" lon="151.2899031">
  <ele>365.55</ele>
  <time>2026-09-01T19:57:38Z</time>
  <course>106.54</course>
  <speed>0.03605551275463989</speed>
  <fix>3d</fix>
</trkpt>
<trkpt lat="-27.2737713" lon="151.2899028">
  <ele>365.06</ele>
  <time>2026-09-01T19:57:38Z</time>
  <course>294.22</course>
  <speed>0.07</speed>
  <fix>3d</fix>
</trkpt>
<trkpt lat="-27.2737712" lon="151.289903">
  <ele>365.8</ele>
  <time>2026-09-01T19:57:38Z</time>
  <course>106.55</course>
  <speed>0.03605551275463989</speed>
  <fix>3d</fix>
</trkpt>
<trkpt lat="-27.2737713" lon="151.2899028">
  <ele>365.06</ele>
  <time>2026-09-01T19:57:38Z</time>
  <course>294.22</course>
  <speed>0.07</speed>
  <fix>3d</fix>
</trkpt>
<trkpt lat="-27.2737712" lon="151.2899029">
  <ele>366.04</ele>
  <time>2026-09-01T19:57:38Z</time>
  <course>106.56</course>
  <speed>0.0316227766016838</speed>
  <fix>3d</fix>
</trkpt>
<trkpt lat="-27.2737712" lon="151.2899027">
  <ele>365.56</ele>
  <time>2026-09-01T19:57:38Z</time>
  <course>294.39</course>
  <speed>0.06</speed>
  <fix>3d</fix>
</trkpt>
<trkpt lat="-27.2737712" lon="151.2899029">
  <ele>366.29</ele>
  <time>2026-09-01T19:57:38Z</time>
  <course>106.57</course>
  <speed>0.0316227766016838</speed>
  <fix>3d</fix>
</trkpt>
<trkpt lat="-27.2737712" lon="151.2899027">
  <ele>365.56</ele>
  <time>2026-09-01T19:57:38Z</time>
  <course>294.39</course>
  <speed>0.06</speed>
  <fix>3d</fix>
</trkpt>
<trkpt lat="-27.2737711" lon="151.2899029">
  <ele>366.54</ele>
  <time>2026-09-01T19:57:38Z</time>
  <course>106.59</course>
  <speed>0.03</speed>
  <fix>3d</fix>
</trkpt>
<trkpt lat="-27.2737712" lon="151.2899026">
  <ele>366.05</ele>
  <time>2026-09-01T19:57:38Z</time>
  <course>293.87</course>
  <speed>0.05</speed>
  <fix>3d</fix>
</trkpt>
<trkpt lat="-27.2737711" lon="151.2899028">
  <ele>366.78</ele>
  <time>2026-09-01T19:57:38Z</time>
  <course>106.61</course>
  <speed>0.03</speed>
  <fix>3d</fix>
</trkpt>
<trkpt lat="-27.2737712" lon="151.2899026">
  <ele>366.05</ele>
  <time>2026-09-01T19:57:38Z</time>
  <course>293.87</course>
  <speed>0.05</speed>
  <fix>3d</fix>
</trkpt>
<trkpt lat="-27.2737711" lon="151.2899028">
  <ele>367.03</ele>
  <time>2026-09-01T19:57:38Z</time>
  <course>106.64</course>
  <speed>0.03</speed>
  <fix>3d</fix>
</trkpt>
<trkpt lat="-27.2737712" lon="151.2899025">
  <ele>366.55</ele>
  <time>2026-09-01T19:57:38Z</time>
  <course>293.54</course>
  <speed>0.04</speed>
  <fix>3d</fix>
</trkpt>
<trkpt lat="-27.2737711" lon="151.2899028">
  <ele>367.28</ele>
  <time>2026-09-01T19:57:38Z</time>
  <course>106.67</course>
  <speed>0.03</speed>
  <fix>3d</fix>
</trkpt>
<trkpt lat="-27.2737712" lon="151.2899025">
  <ele>366.55</ele>
  <time>2026-09-01T19:57:38Z</time>
  <course>293.54</course>
  <speed>0.04</speed>
  <fix>3d</fix>
</trkpt>
<trkpt lat="-27.2737711" lon="151.2899027">
  <ele>367.53</ele>
  <time>2026-09-01T19:57:38Z</time>
  <course>106.7</course>
  <speed>0.03</speed>
  <fix>3d</fix>
</trkpt>
<trkpt lat="-27.2737711" lon="151.2899024">
  <ele>367.05</ele>
  <time>2026-09-01T19:57:38Z</time>
  <course>293.4</course>
  <speed>0.03</speed>
  <fix>3d</fix>
</trkpt>
<trkpt lat="-27.273771" lon="151.2899027">
  <ele>367.78</ele>
  <time>2026-09-01T19:57:38Z</time>
  <course>106.73</course>
  <speed>0.0316227766016838</speed>
  <fix>3d</fix>
</trkpt>
<trkpt lat="-27.2737711" lon="151.2899024">
  <ele>367.05</ele>
  <time>2026-09-01T19:57:38Z</time>
  <course>293.4</course>
  <speed>0.03</speed>
  <fix>3d</fix>
</trkpt>
<trkpt lat="-27.273771" lon="151.2899027">
  <ele>368.03</ele>
  <time>2026-09-01T19:57:38Z</time>
  <course>106.75</course>
  <speed>0.022360679774997897</speed>
  <fix>3d</fix>
</trkpt>
<trkpt lat="-27.2737711" lon="151.2899024">
  <ele>367.55</ele>
  <time>2026-09-01T19:57:38Z</time>
  <course>292.78</course>
  <speed>0.02</speed>
  <fix>3d</fix>
</trkpt>
<trkpt lat="-27.273771" lon="151.2899027">
  <ele>368.28</ele>
  <time>2026-09-01T19:57:38Z</time>
  <course>106.77</course>
  <speed>0.0282842712474619</speed>
  <fix>3d</fix>
</trkpt>
<trkpt lat="-27.2737711" lon="151.2899024">
  <ele>367.55</ele>
  <time>2026-09-01T19:57:38Z</time>
  <course>292.78</course>
  <speed>0.02</speed>
  <fix>3d</fix>
</trkpt>
<trkpt lat="-27.273771" lon="151.2899027">
  <ele>368.52</ele>
  <time>2026-09-01T19:57:38Z</time>
  <course>106.77</course>
  <speed>0.0282842712474619</speed>
  <fix>3d</fix>
</trkpt>
<trkpt lat="-27.2737711" lon="151.2899023">
  <ele>368.05</ele>
  <time>2026-09-01T19:57:38Z</time>
  <course>291.71</course>
  <speed>0.01</speed>
  <fix>3d</fix>
</trkpt>
<trkpt lat="-27.273771" lon="151.2899027">
  <ele>368.78</ele>
  <time>2026-09-01T19:57:38Z</time>
  <course>106.78</course>
  <speed>0.0282842712474619</speed>
  <fix>3d</fix>
</trkpt>
<trkpt lat="-27.2737711" lon="151.2899023">
  <ele>368.05</ele>
  <time>2026-09-01T19:57:38Z</time>
  <course>291.71</course>
  <speed>0.01</speed>
  <fix>3d</fix>
</trkpt>
<trkpt lat="-27.273771" lon="151.2899027">
  <ele>369.03</ele>
  <time>2026-09-01T19:57:38Z</time>
  <course>106.78</course>
  <speed>0.03605551275463989</speed>
  <fix>3d</fix>
</trkpt>
<trkpt lat="-27.2737711" lon="151.2899023">
  <ele>368.55</ele>
  <time>2026-09-01T19:57:38Z</time>
  <course>285.26</course>
  <speed>0.0</speed>
  <fix>3d</fix>
</trkpt>
<trkpt lat="-27.273771" lon="151.2899027">
  <ele>369.28</ele>
  <time>2026-09-01T19:57:38Z</time>
  <course>106.79</course>
  <speed>0.03605551275463989</speed>
  <fix>3d</fix>
</trkpt>
<trkpt lat="-27.2737711" lon="151.2899023">
  <ele>368.55</ele>
  <time>2026-09-01T19:57:38Z</time>
  <course>285.26</course>
  <speed>0.0</speed>
  <fix>3d</fix>
</trkpt>
<trkpt lat="-27.273771" lon="151.2899027">
  <ele>369.53</ele>
  <time>2026-09-01T19:57:38Z</time>
  <course>106.8</course>
  <speed>0.03605551275463989</speed>
  <fix>3d</fix>
</trkpt>
<trkpt lat="-27.2737711" lon="151.2899023">
  <ele>369.05</ele>
  <time>2026-09-01T19:57:38Z</time>
  <course>223.76</course>
  <speed>0.0</speed>
  <fix>3d</fix>
</trkpt>
<trkpt lat="-27.273771" lon="151.2899027">
  <ele>369.78</ele>
  <time>2026-09-01T19:57:38Z</time>
  <course>106.81</course>
  <speed>0.0412310562561766</speed>
  <fix>3d</fix>
</trkpt>
<trkpt lat="-27.2737711" lon="151.2899023">
  <ele>369.05</ele>
  <time>2026-09-01T19:57:38Z</time>
  <course>223.76</course>
  <speed>0.0</speed>
  <fix>3d</fix>
</trkpt>
<trkpt lat="-27.273771" lon="151.2899026">
  <ele>370.03</ele>
  <time>2026-09-01T19:57:38Z</time>
  <course>106.82</course>
  <speed>0.0412310562561766</speed>
  <fix>3d</fix>
</trkpt>
<trkpt lat="-27.2737711" lon="151.2899023">
  <ele>369.55</ele>
  <time>2026-09-01T19:57:38Z</time>
  <course>144.83</course>
  <speed>0.0</speed>
  <fix>3d</fix>
</trkpt>
<trkpt lat="-27.273771" lon="151.2899026">
  <ele>370.28</ele>
  <time>2026-09-01T19:57:38Z</time>
  <course>106.83</course>
  <speed>0.0412310562561766</speed>
  <fix>3d</fix>
</trkpt>
<trkpt lat="-27.2737711" lon="151.2899023">
  <ele>369.55</ele>
  <time>2026-09-01T19:57:38Z</time>
  <course>144.83</course>
  <speed>0.0</speed>
  <fix>3d</fix>
</trkpt>
<trkpt lat="-27.273771" lon="151.2899026">
  <ele>370.53</ele>
  <time>2026-09-01T19:57:38Z</time>
  <course>106.84</course>
  <speed>0.0412310562561766</speed>
  <fix>3d</fix>
</trkpt>
<trkpt lat="-27.2737711" lon="151.2899023">
  <ele>370.05</ele>
  <time>2026-09-01T19:57:38Z</time>
  <course>138.29</course>
  <speed>0.01</speed>
  <fix>3d</fix>
</trkpt>
<trkpt lat="-27.273771" lon="151.2899026">
  <ele>370.78</ele>
  <time>2026-09-01T19:57:38Z</time>
  <course>106.86</course>
  <speed>0.0412310562561766</speed>
  <fix>3d</fix>
</trkpt>
<trkpt lat="-27.2737711" lon="151.2899023">
  <ele>370.05</ele>
  <time>2026-09-01T19:57:38Z</time>
  <course>138.29</course>
  <speed>0.01</speed>
  <fix>3d</fix>
</trkpt>
<trkpt lat="-27.273771" lon="151.2899026">
  <ele>371.03</ele>
  <time>2026-09-01T19:57:38Z</time>
  <course>106.88</course>
  <speed>0.05099019513592785</speed>
  <fix>3d</fix>
</trkpt>
<trkpt lat="-27.2737711" lon="151.2899023">
  <ele>370.55</ele>
  <time>2026-09-01T19:57:38Z</time>
  <course>134.5</course>
  <speed>0.01</speed>
  <fix>3d</fix>
</trkpt>
<trkpt lat="-27.273771" lon="151.2899027">
  <ele>371.28</ele>
  <time>2026-09-01T19:57:38Z</time>
  <course>106.89</course>
  <speed>0.05099019513592785</speed>
  <fix>3d</fix>
</trkpt>
<trkpt lat="-27.2737711" lon="151.2899023">
  <ele>370.55</ele>
  <time>2026-09-01T19:57:38Z</time>
  <course>134.5</course>
  <speed>0.01</speed>
  <fix>3d</fix>
</trkpt>
<trkpt lat="-27.273771" lon="151.2899027">
  <ele>371.53</ele>
  <time>2026-09-01T19:57:38Z</time>
  <course>106.89</course>
  <speed>0.05099019513592785</speed>
  <fix>3d</fix>
</trkpt>
<trkpt lat="-27.2737711" lon="151.2899023">
  <ele>371.05</ele>
  <time>2026-09-01T19:57:38Z</time>
  <course>130.54</course>
  <speed>0.02</speed>
  <fix>3d</fix>
</trkpt>
<trkpt lat="-27.273771" lon="151.2899027">
  <ele>371.77</ele>
  <time>2026-09-01T19:57:38Z</time>
  <course>106.89</course>
  <speed>0.05099019513592785</speed>
  <fix>3d</fix>
</trkpt>
<trkpt lat="-27.2737711" lon="151.2899023">
  <ele>371.05</ele>
  <time>2026-09-01T19:57:38Z</time>
  <course>130.54</course>
  <speed>0.02</speed>
  <fix>3d</fix>
</trkpt>
<trkpt lat="-27.273771" lon="151.2899027">
  <ele>372.02</ele>
  <time>2026-09-01T19:57:38Z</time>
  <course>106.9</course>
  <speed>0.05099019513592785</speed>
  <fix>3d</fix>
</trkpt>
<trkpt lat="-27.2737711" lon="151.2899023">
  <ele>371.55</ele>
  <time>2026-09-01T19:57:38Z</time>
  <course>130.16</course>
  <speed>0.02</speed>
  <fix>3d</fix>
</trkpt>
<trkpt lat="-27.273771" lon="151.2899027">
  <ele>372.27</ele>
  <time>2026-09-01T19:57:38Z</time>
  <course>106.9</course>
  <speed>0.05099019513592785</speed>
  <fix>3d</fix>
</trkpt>
<trkpt lat="-27.2737711" lon="151.2899023">
  <ele>371.55</ele>
  <time>2026-09-01T19:57:38Z</time>
  <course>130.16</course>
  <speed>0.02</speed>
  <fix>3d</fix>
</trkpt>
<trkpt lat="-27.2737711" lon="151.2899027">
  <ele>372.52</ele>
  <time>2026-09-01T19:57:38Z</time>
  <course>106.91</course>
  <speed>0.05099019513592785</speed>
  <fix>3d</fix>
</trkpt>
<trkpt lat="-27.2737711" lon="151.2899023">
  <ele>372.06</ele>
  <time>2026-09-01T19:57:38Z</time>
  <course>132.16</course>
  <speed>0.02</speed>
  <fix>3d</fix>
</trkpt>
<trkpt lat="-27.2737711" lon="151.2899028">
  <ele>372.78</ele>
  <time>2026-09-01T19:57:38Z</time>
  <course>106.92</course>
  <speed>0.05099019513592785</speed>
  <fix>3d</fix>
</trkpt>
<trkpt lat="-27.2737711" lon="151.2899023">
  <ele>372.06</ele>
  <time>2026-09-01T19:57:38Z</time>
  <course>132.16</course>
  <speed>0.02</speed>
  <fix>3d</fix>
</trkpt>
<trkpt lat="-27.2737711" lon="151.2899028">
  <ele>373.03</ele>
  <time>2026-09-01T19:57:38Z</time>
  <course>106.94</course>
  <speed>0.05</speed>
  <fix>3d</fix>
</trkpt>
<trkpt lat="-27.2737711" lon="151.2899024">
  <ele>372.56</ele>
  <time>2026-09-01T19:57:38Z</time>
  <course>133.55</course>
  <speed>0.03</speed>
  <fix>3d</fix>
</trkpt>
<trkpt lat="-27.2737711" lon="151.2899028">
  <ele>373.28</ele>
  <time>2026-09-01T19:57:38Z</time>
  <course>106.94</course>
  <speed>0.06</speed>
  <fix>3d</fix>
</trkpt>
<trkpt lat="-27.2737711" lon="151.2899024">
  <ele>372.56</ele>
  <time>2026-09-01T19:57:38Z</time>
  <course>133.55</course>
  <speed>0.03</speed>
  <fix>3d</fix>
</trkpt>
<trkpt lat="-27.2737711" lon="151.2899028">
  <ele>373.53</ele>
  <time>2026-09-01T19:57:38Z</time>
  <course>106.97</course>
  <speed>0.08</speed>
  <fix>3d</fix>
</trkpt>
<trkpt lat="-27.2737712" lon="151.2899024">
  <ele>373.06</ele>
  <time>2026-09-01T19:57:38Z</time>
  <course>133.43</course>
  <speed>0.03</speed>
  <fix>3d</fix>
</trkpt>
<trkpt lat="-27.2737711" lon="151.2899029">
  <ele>373.78</ele>
  <time>2026-09-01T19:57:38Z</time>
  <course>107.02</course>
  <speed>0.16124515496597097</speed>
  <fix>3d</fix>
</trkpt>
<trkpt lat="-27.2737712" lon="151.2899024">
  <ele>373.06</ele>
  <time>2026-09-01T19:57:38Z</time>
  <course>133.43</course>
  <speed>0.03</speed>
  <fix>3d</fix>
</trkpt>
<trkpt lat="-27.2737711" lon="151.2899031">
  <ele>374.02</ele>
  <time>2026-09-01T19:57:38Z</time>
  <course>107.09</course>
  <speed>0.3059411708155671</speed>
  <fix>3d</fix>
</trkpt>
<trkpt lat="-27.2737712" lon="151.2899025">
  <ele>373.56</ele>
  <time>2026-09-01T19:57:38Z</time>
  <course>117.57</course>
  <speed>0.08</speed>
  <fix>3d</fix>
</trkpt>
<trkpt lat="-27.2737712" lon="151.2899035">
  <ele>374.25</ele>
  <time>2026-09-01T19:57:38Z</time>
  <course>107.18</course>
  <speed>0.49477267507411926</speed>
  <fix>3d</fix>
</trkpt>
<trkpt lat="-27.2737712" lon="151.2899025">
  <ele>373.56</ele>
  <time>2026-09-01T19:57:38Z</time>
  <course>117.57</course>
  <speed>0.08</speed>
  <fix>3d</fix>
</trkpt>
<trkpt lat="-27.2737714" lon="151.289904">
  <ele>374.48</ele>
  <time>2026-09-01T19:57:38Z</time>
  <course>107.28</course>
  <speed>0.7569015788066504</speed>
  <fix>3d</fix>
</trkpt>
<trkpt lat="-27.2737714" lon="151.2899029">
  <ele>374.05</ele>
  <time>2026-09-01T19:57:38Z</time>
  <course>109.7</course>
  <speed>0.3</speed>
  <fix>3d</fix>
</trkpt>
<trkpt lat="-27.2737716" lon="151.2899049">
  <ele>374.69</ele>
  <time>2026-09-01T19:57:38Z</time>
  <course>107.35</course>
  <speed>1.0796758772891057</speed>
  <fix>3d</fix>
</trkpt>
<trkpt lat="-27.2737714" lon="151.2899029">
  <ele>374.05</ele>
  <time>2026-09-01T19:57:38Z</time>
  <course>109.7</course>
  <speed>0.3</speed>
  <fix>3d</fix>
</trkpt>
<trkpt lat="-27.2737719" lon="151.2899061">
  <ele>374.87</ele>
  <time>2026-09-01T19:57:38Z</time>
  <course>107.26</course>
  <speed>1.4560219778561037</speed>
  <fix>3d</fix>
</trkpt>
<trkpt lat="-27.2737717" lon="151.2899039">
  <ele>374.52</ele>
  <time>2026-09-01T19:57:38Z</time>
  <course>107.75</course>
  <speed>0.75</speed>
  <fix>3d</fix>
</trkpt>
<trkpt lat="-27.2737724" lon="151.2899077">
  <ele>375.04</ele>
  <time>2026-09-01T19:57:38Z</time>
  <course>107.07</course>
  <speed>1.905203401214684</speed>
  <fix>3d</fix>
</trkpt>
<trkpt lat="-27.2737717" lon="151.2899039">
  <ele>374.52</ele>
  <time>2026-09-01T19:57:38Z</time>
  <course>107.75</course>
  <speed>0.75</speed>
  <fix>3d</fix>
</trkpt>
<trkpt lat="-27.2737729" lon="151.2899097">
  <ele>375.17</ele>
  <time>2026-09-01T19:57:38Z</time>
  <course>106.83</course>
  <speed>2.3928226010300055</speed>
  <fix>3d</fix>
</trkpt>
<trkpt lat="-27.2737722" lon="151.2899059">
  <ele>374.91</ele>
  <time>2026-09-01T19:57:38Z</time>
  <course>106.81</course>
  <speed>1.45</speed>
  <fix>3d</fix>
</trkpt>
<trkpt lat="-27.2737736" lon="151.2899122">
  <ele>375.27</ele>
  <time>2026-09-01T19:57:38Z</time>
  <course>106.57</course>
  <speed>2.890069203323685</speed>
  <fix>3d</fix>
</trkpt>
<trkpt lat="-27.2737722" lon="151.2899059">
  <ele>374.91</ele>
  <time>2026-09-01T19:57:38Z</time>
  <course>106.81</course>
  <speed>1.45</speed>
  <fix>3d</fix>
</trkpt>
<trkpt lat="-27.2737744" lon="151.2899152">
  <ele>375.34</ele>
  <time>2026-09-01T19:57:38Z</time>
  <course>106.38</course>
  <speed>3.377706322343611</speed>
  <fix>3d</fix>
</trkpt>
<trkpt lat="-27.2737732" lon="151.2899095">
  <ele>375.22</ele>
  <time>2026-09-01T19:57:38Z</time>
  <course>106.1</course>
  <speed>2.35</speed>
  <fix>3d</fix>
</trkpt>
<trkpt lat="-27.2737753" lon="151.2899187">
  <ele>375.38</ele>
  <time>2026-09-01T19:57:38Z</time>
  <course>106.08</course>
  <speed>3.869599462476705</speed>
  <fix>3d</fix>
</trkpt>
<trkpt lat="-27.2737732" lon="151.2899095">
  <ele>375.22</ele>
  <time>2026-09-01T19:57:38Z</time>
  <course>106.1</course>
  <speed>2.35</speed>
  <fix>3d</fix>
</trkpt>
<trkpt lat="-27.2737762" lon="151.2899226">
  <ele>375.4</ele>
  <time>2026-09-01T19:57:38Z</time>
  <course>105.63</course>
  <speed>4.344203033929238</speed>
  <fix>3d</fix>
</trkpt>
<trkpt lat="-27.2737745" lon="151.2899151">
  <ele>375.39</ele>
  <time>2026-09-01T19:57:38Z</time>
  <course>105.36</course>
  <speed>3.33</speed>
  <fix>3d</fix>
</trkpt>
<trkpt lat="-27.2737773" lon="151.289927">
  <ele>375.4</ele>
  <time>2026-09-01T19:57:38Z</time>
  <course>105.01</course>
  <speed>4.826468688389059</speed>
  <fix>3d</fix>
</trkpt>
<trkpt lat="-27.2737745" lon="151.2899151">
  <ele>375.39</ele>
  <time>2026-09-01T19:57:38Z</time>
  <course>105.36</course>
  <speed>3.33</speed>
  <fix>3d</fix>
</trkpt>
<trkpt lat="-27.2737783" lon="151.2899319">
  <ele>375.39</ele>
  <time>2026-09-01T19:57:38Z</time>
  <course>104.33</course>
  <speed>5.304573498406822</speed>
  <fix>3d</fix>
</trkpt>
<trkpt lat="-27.2737763" lon="151.2899226">
  <ele>375.46</ele>
  <time>2026-09-01T19:57:38Z</time>
  <course>104.32</course>
  <speed>4.3</speed>
  <fix>3d</fix>
</trkpt>
<trkpt lat="-27.2737794" lon="151.2899373">
  <ele>375.36</ele>
  <time>2026-09-01T19:57:38Z</time>
  <course>103.58</course>
  <speed>5.784470589431672</speed>
  <fix>3d</fix>
</trkpt>
<trkpt lat="-27.2737763" lon="151.2899226">
  <ele>375.46</ele>
  <time>2026-09-01T19:57:38Z</time>
  <course>104.32</course>
  <speed>4.3</speed>
  <fix>3d</fix>
</trkpt>
<trkpt lat="-27.2737805" lon="151.2899432">
  <ele>375.33</ele>
  <time>2026-09-01T19:57:38Z</time>
  <course>102.66</course>
  <speed>6.261988502065458</speed>
  <fix>3d</fix>
</trkpt>
<trkpt lat="-27.2737783" lon="151.289932">
  <ele>375.45</ele>
  <time>2026-09-01T19:57:38Z</time>
  <course>102.86</course>
  <speed>5.27</speed>
  <fix>3d</fix>
</trkpt>
<trkpt lat="-27.2737815" lon="151.2899495">
  <ele>375.3</ele>
  <time>2026-09-01T19:57:38Z</time>
  <course>101.64</course>
  <speed>6.744034400861254</speed>
  <fix>3d</fix>
</trkpt>
<trkpt lat="-27.2737783" lon="151.289932">
  <ele>375.45</ele>
  <time>2026-09-01T19:57:38Z</time>
  <course>102.86</course>
  <speed>5.27</speed>
  <fix>3d</fix>
</trkpt>
<trkpt lat="-27.2737825" lon="151.2899564">
  <ele>375.27</ele>
  <time>2026-09-01T19:57:38Z</time>
  <course>100.54</course>
  <speed>7.206004440742456</speed>
  <fix>3d</fix>
</trkpt>
<trkpt lat="-27.2737805" lon="151.2899434">
  <ele>375.4</ele>
  <time>2026-09-01T19:57:38Z</time>
  <course>100.94</course>
  <speed>6.23</speed>
  <fix>3d</fix>
</trkpt>
<trkpt lat="-27.2737834" lon="151.2899638">
  <ele>375.24</ele>
  <time>2026-09-01T19:57:38Z</time>
  <course>99.28</course>
  <speed>7.675421812512977</speed>
  <fix>3d</fix>
</trkpt>
<trkpt lat="-27.2737805" lon="151.2899434">
  <ele>375.4</ele>
  <time>2026-09-01T19:57:38Z</time>
  <course>100.94</course>
  <speed>6.23</speed>
  <fix>3d</fix>
</trkpt>
<trkpt lat="-27.2737842" lon="151.2899716">
  <ele>375.22</ele>
  <time>2026-09-01T19:57:38Z</time>
  <course>97.9</course>
  <speed>8.12458614330601</speed>
  <fix>3d</fix>
</trkpt>
<trkpt lat="-27.2737825" lon="151.2899568">
  <ele>375.34</ele>
  <time>2026-09-01T19:57:38Z</time>
  <course>98.55</course>
  <speed>7.18</speed>
  <fix>3d</fix>
</trkpt>
<trkpt lat="-27.2737849" lon="151.2899799">
  <ele>375.2</ele>
  <time>2026-09-01T19:57:38Z</time>
  <course>96.48</course>
  <speed>8.57621128471075</speed>
  <fix>3d</fix>
</trkpt>
<trkpt lat="-27.2737825" lon="151.2899568">
  <ele>375.34</ele>
  <time>2026-09-01T19:57:38Z</time>
  <course>98.55</course>
  <speed>7.18</speed>
  <fix>3d</fix>
</trkpt>
<trkpt lat="-27.2737854" lon="151.2899887">
  <ele>375.18</ele>
  <time>2026-09-01T19:57:38Z</time>
  <course>95.01</course>
  <speed>9.011747888173526</speed>
  <fix>3d</fix>
</trkpt>
<trkpt lat="-27.2737842" lon="151.2899721">
  <ele>375.29</ele>
  <time>2026-09-01T19:57:38Z</time>
  <course>95.77</course>
  <speed>8.1</speed>
  <fix>3d</fix>
</trkpt>
<trkpt lat="-27.2737857" lon="151.2899979">
  <ele>375.16</ele>
  <time>2026-09-01T19:57:38Z</time>
  <course>93.48</course>
  <speed>9.452333045338595</speed>
  <fix>3d</fix>
</trkpt>
<trkpt lat="-27.2737842" lon="151.2899721">
  <ele>375.29</ele>
  <time>2026-09-01T19:57:38Z</time>
  <course>95.77</course>
  <speed>8.1</speed>
  <fix>3d</fix>
</trkpt>
<trkpt lat="-27.2737857" lon="151.2900076">
  <ele>375.14</ele>
  <time>2026-09-01T19:57:38Z</time>
  <course>91.91</course>
  <speed>9.8801821845551</speed>
  <fix>3d</fix>
</trkpt>
<trkpt lat="-27.2737854" lon="151.2899894">
  <ele>375.25</ele>
  <time>2026-09-01T19:57:38Z</time>
  <course>92.72</course>
  <speed>8.99</speed>
  <fix>3d</fix>
</trkpt>
<trkpt lat="-27.2737855" lon="151.2900177">
  <ele>375.13</ele>
  <time>2026-09-01T19:57:38Z</time>
  <course>90.29</course>
  <speed>10.30628934195038</speed>
  <fix>3d</fix>
</trkpt>
<trkpt lat="-27.2737854" lon="151.2899894">
  <ele>375.25</ele>
  <time>2026-09-01T19:57:38Z</time>
  <course>92.72</course>
  <speed>8.99</speed>
  <fix>3d</fix>
</trkpt>
<trkpt lat="-27.2737852" lon="151.2900283">
  <ele>375.12</ele>
  <time>2026-09-01T19:57:38Z</time>
  <course>88.69</course>
  <speed>10.731565589418908</speed>
  <fix>3d</fix>
</trkpt>
<trkpt lat="-27.2737858" lon="151.2900085">
  <ele>375.22</ele>
  <time>2026-09-01T19:57:38Z</time>
  <course>89.48</course>
  <speed>9.86</speed>
  <fix>3d</fix>
</trkpt>
<trkpt lat="-27.2737844" lon="151.2900392">
  <ele>375.11</ele>
  <time>2026-09-01T19:57:38Z</time>
  <course>87.06</course>
  <speed>11.137728673297802</speed>
  <fix>3d</fix>
</trkpt>
<trkpt lat="-27.2737858" lon="151.2900085">
  <ele>375.22</ele>
  <time>2026-09-01T19:57:38Z</time>
  <course>89.48</course>
  <speed>9.86</speed>
  <fix>3d</fix>
</trkpt>
<trkpt lat="-27.2737833" lon="151.2900504">
  <ele>375.1</ele>
  <time>2026-09-01T19:57:38Z</time>
  <course>85.48</course>
  <speed>11.535271995059327</speed>
  <fix>3d</fix>
</trkpt>
<trkpt lat="-27.2737851" lon="151.2900293">
  <ele>375.2</ele>
  <time>2026-09-01T19:57:38Z</time>
  <course>86.17</course>
  <speed>10.71</speed>
  <fix>3d</fix>
</trkpt>
<trkpt lat="-27.2737819" lon="151.2900621">
  <ele>375.1</ele>
  <time>2026-09-01T19:57:38Z</time>
  <course>83.91</course>
  <speed>11.933499067750413</speed>
  <fix>3d</fix>
</trkpt>
<trkpt lat="-27.2737851" lon="151.2900293">
  <ele>375.2</ele>
  <time>2026-09-01T19:57:38Z</time>
  <course>86.17</course>
  <speed>10.71</speed>
  <fix>3d</fix>
</trkpt>
<trkpt lat="-27.2737801" lon="151.2900741">
  <ele>375.09</ele>
  <time>2026-09-01T19:57:38Z</time>
  <course>82.37</course>
  <speed>12.32257278331112</speed>
  <fix>3d</fix>
</trkpt>
<trkpt lat="-27.2737831" lon="151.2900516">
  <ele>375.19</ele>
  <time>2026-09-01T19:57:38Z</time>
  <course>82.89</course>
  <speed>11.53</speed>
  <fix>3d</fix>
</trkpt>
<trkpt lat="-27.273778" lon="151.2900864">
  <ele>375.09</ele>
  <time>2026-09-01T19:57:38Z</time>
  <course>80.74</course>
  <speed>12.704723531033643</speed>
  <fix>3d</fix>
</trkpt>
<trkpt lat="-27.2737831" lon="151.2900516">
  <ele>375.19</ele>
  <time>2026-09-01T19:57:38Z</time>
  <course>82.89</course>
  <speed>11.53</speed>
  <fix>3d</fix>
</trkpt>
<trkpt lat="-27.2737755" lon="151.2900992">
  <ele>375.09</ele>
  <time>2026-09-01T19:57:38Z</time>
  <course>79.0</course>
  <speed>13.090748641693493</speed>
  <fix>3d</fix>
</trkpt>
<trkpt lat="-27.2737799" lon="151.2900754">
  <ele>375.19</ele>
  <time>2026-09-01T19:57:38Z</time>
  <course>79.68</course>
  <speed>12.31</speed>
  <fix>3d</fix>
</trkpt>
<trkpt lat="-27.2737726" lon="151.2901121">
  <ele>375.08</ele>
  <time>2026-09-01T19:57:38Z</time>
  <course>77.34</course>
  <speed>13.457105929582333</speed>
  <fix>3d</fix>
</trkpt>
<trkpt lat="-27.2737799" lon="151.2900754">
  <ele>375.19</ele>
  <time>2026-09-01T19:57:38Z</time>
  <course>79.68</course>
  <speed>12.31</speed>
  <fix>3d</fix>
</trkpt>
<trkpt lat="-27.2737694" lon="151.2901253">
  <ele>375.08</ele>
  <time>2026-09-01T19:57:38Z</time>
  <course>75.78</course>
  <speed>13.831229157236894</speed>
  <fix>3d</fix>
</trkpt>
<trkpt lat="-27.2737752" lon="151.2901005">
  <ele>375.19</ele>
  <time>2026-09-01T19:57:38Z</time>
  <course>76.57</course>
  <speed>13.08</speed>
  <fix>3d</fix>
</trkpt>
<trkpt lat="-27.2737657" lon="151.2901389">
  <ele>375.07</ele>
  <time>2026-09-01T19:57:38Z</time>
  <course>74.32</course>
  <speed>14.196115665913688</speed>
  <fix>3d</fix>
</trkpt>
<trkpt lat="-27.2737752" lon="151.2901005">
  <ele>375.19</ele>
  <time>2026-09-01T19:57:38Z</time>
  <course>76.57</course>
  <speed>13.08</speed>
  <fix>3d</fix>
</trkpt>
<trkpt lat="-27.2737616" lon="151.2901526">
  <ele>375.07</ele>
  <time>2026-09-01T19:57:38Z</time>
  <course>72.87</course>
  <speed>14.55759939000933</speed>
  <fix>3d</fix>
</trkpt>
<trkpt lat="-27.273769" lon="151.2901268">
  <ele>375.18</ele>
  <time>2026-09-01T19:57:38Z</time>
  <course>73.52</course>
  <speed>13.82</speed>
  <fix>3d</fix>
</trkpt>
<trkpt lat="-27.2737571" lon="151.2901665">
  <ele>375.06</ele>
  <time>2026-09-01T19:57:38Z</time>
  <course>71.51</course>
  <speed>14.90644156061399</speed>
  <fix>3d</fix>
</trkpt>
<trkpt lat="-27.273769" lon="151.2901268">
  <ele>375.18</ele>
  <time>2026-09-01T19:57:38Z</time>
  <course>73.52</course>
  <speed>13.82</speed>
  <fix>3d</fix>
</trkpt>
<trkpt lat="-27.2737522" lon="151.2901805">
  <ele>375.06</ele>
  <time>2026-09-01T19:57:38Z</time>
  <course>70.1</course>
  <speed>15.242112714450053</speed>
  <fix>3d</fix>
</trkpt>
<trkpt lat="-27.2737611" lon="151.2901541">
  <ele>375.17</ele>
  <time>2026-09-01T19:57:38Z</time>
  <course>70.58</course>
  <speed>14.54</speed>
  <fix>3d</fix>
</trkpt>
<trkpt lat="-27.2737469" lon="151.2901948">
  <ele>375.05</ele>
  <time>2026-09-01T19:57:38Z</time>
  <course>68.7</course>
  <speed>15.58621185535472</speed>
  <fix>3d</fix>
</trkpt>
<trkpt lat="-27.2737611" lon="151.2901541">
  <ele>375.17</ele>
  <time>2026-09-01T19:57:38Z</time>
  <course>70.58</course>
  <speed>14.54</speed>
  <fix>3d</fix>
</trkpt>
<trkpt lat="-27.2737412" lon="151.2902091">
  <ele>375.04</ele>
  <time>2026-09-01T19:57:38Z</time>
  <course>67.36</course>
  <speed>15.91094277533547</speed>
  <fix>3d</fix>
</trkpt>
<trkpt lat="-27.2737516" lon="151.2901823">
  <ele>375.16</ele>
  <time>2026-09-01T19:57:38Z</time>
  <course>67.78</course>
  <speed>15.23</speed>
  <fix>3d</fix>
</trkpt>
<trkpt lat="-27.2737351" lon="151.2902237">
  <ele>375.03</ele>
  <time>2026-09-01T19:57:38Z</time>
  <course>66.03</course>
  <speed>16.238996274400705</speed>
  <fix>3d</fix>
</trkpt>
<trkpt lat="-27.2737516" lon="151.2901823">
  <ele>375.16</ele>
  <time>2026-09-01T19:57:38Z</time>
  <course>67.78</course>
  <speed>15.23</speed>
  <fix>3d</fix>
</trkpt>
<trkpt lat="-27.2737285" lon="151.2902383">
  <ele>375.02</ele>
  <time>2026-09-01T19:57:38Z</time>
  <course>64.81</course>
  <speed>16.552709747953656</speed>
  <fix>3d</fix>
</trkpt>
<trkpt lat="-27.2737404" lon="151.2902111">
  <ele>375.15</ele>
  <time>2026-09-01T19:57:38Z</time>
  <course>65.12</course>
  <speed>15.91</speed>
  <fix>3d</fix>
</trkpt>
<trkpt lat="-27.2737216" lon="151.2902531">
  <ele>375.01</ele>
  <time>2026-09-01T19:57:38Z</time>
  <course>63.68</course>
  <speed>16.86997332540867</speed>
  <fix>3d</fix>
</trkpt>
<trkpt lat="-27.2737404" lon="151.2902111">
  <ele>375.15</ele>
  <time>2026-09-01T19:57:38Z</time>
  <course>65.12</course>
  <speed>15.91</speed>
  <fix>3d</fix>
</trkpt>
<trkpt lat="-27.2737142" lon="151.290268">
  <ele>374.99</ele>
  <time>2026-09-01T19:57:38Z</time>
  <course>62.42</course>
  <speed>17.172609003875912</speed>
  <fix>3d</fix>
</trkpt>
<trkpt lat="-27.2737275" lon="151.2902406">
  <ele>375.13</ele>
  <time>2026-09-01T19:57:38Z</time>
  <course>62.59</course>
  <speed>16.56</speed>
  <fix>3d</fix>
</trkpt>
<trkpt lat="-27.2737064" lon="151.290283">
  <ele>374.98</ele>
  <time>2026-09-01T19:57:38Z</time>
  <course>61.07</course>
  <speed>17.475708855437023</speed>
  <fix>3d</fix>
</trkpt>
<trkpt lat="-27.2737275" lon="151.2902406">
  <ele>375.13</ele>
  <time>2026-09-01T19:57:38Z</time>
  <course>62.59</course>
  <speed>16.56</speed>
  <fix>3d</fix>
</trkpt>
<trkpt lat="-27.2736982" lon="151.290298">
  <ele>374.96</ele>
  <time>2026-09-01T19:57:38Z</time>
  <course>59.7</course>
  <speed>17.77529184007959</speed>
  <fix>3d</fix>
</trkpt>
<trkpt lat="-27.273713" lon="151.2902705">
  <ele>375.1</ele>
  <time>2026-09-01T19:57:38Z</time>
  <course>60.12</course>
  <speed>17.19</speed>
  <fix>3d</fix>
</trkpt>
<trkpt lat="-27.2736895" lon="151.2903131">
  <ele>374.95</ele>
  <time>2026-09-01T19:57:38Z</time>
  <course>58.32</course>
  <speed>18.063847873584407</speed>
  <fix>3d</fix>
</trkpt>
<trkpt lat="-27.273713" lon="151.2902705">
  <ele>375.1</ele>
  <time>2026-09-01T19:57:38Z</time>
  <course>60.12</course>
  <speed>17.19</speed>
  <fix>3d</fix>
</trkpt>
<trkpt lat="-27.2736804" lon="151.2903282">
  <ele>374.94</ele>
  <time>2026-09-01T19:57:38Z</time>
  <course>56.91</course>
  <speed>18.34834324945988</speed>
  <fix>3d</fix>
</trkpt>
<trkpt lat="-27.2736967" lon="151.2903008">
  <ele>375.08</ele>
  <time>2026-09-01T19:57:38Z</time>
  <course>57.61</course>
  <speed>17.79</speed>
  <fix>3d</fix>
</trkpt>
<trkpt lat="-27.2736709" lon="151.2903431">
  <ele>374.93</ele>
  <time>2026-09-01T19:57:38Z</time>
  <course>55.38</course>
  <speed>18.630687051206674</speed>
  <fix>3d</fix>
</trkpt>
<trkpt lat="-27.2736967" lon="151.2903008">
  <ele>375.08</ele>
  <time>2026-09-01T19:57:38Z</time>
  <course>57.61</course>
  <speed>17.79</speed>
  <fix>3d</fix>
</trkpt>
<trkpt lat="-27.2736608" lon="151.2903582">
  <ele>374.93</ele>
  <time>2026-09-01T19:57:38Z</time>
  <course>53.73</course>
  <speed>18.904986114779348</speed>
  <fix>3d</fix>
</trkpt>
<trkpt lat="-27.2736787" lon="151.2903312">
  <ele>375.06</ele>
  <time>2026-09-01T19:57:38Z</time>
  <course>54.93</course>
  <speed>18.37</speed>
  <fix>3d</fix>
</trkpt>
<trkpt lat="-27.2736501" lon="151.2903732">
  <ele>374.92</ele>
  <time>2026-09-01T19:57:38Z</time>
  <course>51.95</course>
  <speed>19.172482885635862</speed>
  <fix>3d</fix>
</trkpt>
<trkpt lat="-27.2736787" lon="151.2903312">
  <ele>375.06</ele>
  <time>2026-09-01T19:57:38Z</time>
  <course>54.93</course>
  <speed>18.37</speed>
  <fix>3d</fix>
</trkpt>
<trkpt lat="-27.2736389" lon="151.2903881">
  <ele>374.92</ele>
  <time>2026-09-01T19:57:38Z</time>
  <course>50.16</course>
  <speed>19.4371937274906</speed>
  <fix>3d</fix>
</trkpt>
<trkpt lat="-27.2736588" lon="151.2903615">
  <ele>375.04</ele>
  <time>2026-09-01T19:57:38Z</time>
  <course>51.97</course>
  <speed>18.92</speed>
  <fix>3d</fix>
</trkpt>
<trkpt lat="-27.2736269" lon="151.290403">
  <ele>374.92</ele>
  <time>2026-09-01T19:57:38Z</time>
  <course>48.26</course>
  <speed>19.7034337109043</speed>
  <fix>3d</fix>
</trkpt>
<trkpt lat="-27.2736588" lon="151.2903615">
  <ele>375.04</ele>
  <time>2026-09-01T19:57:38Z</time>
  <course>51.97</course>
  <speed>18.92</speed>
  <fix>3d</fix>
</trkpt>
<trkpt lat="-27.2736145" lon="151.2904174">
  <ele>374.92</ele>
  <time>2026-09-01T19:57:38Z</time>
  <course>46.36</course>
  <speed>19.954573410624445</speed>
  <fix>3d</fix>
</trkpt>
<trkpt lat="-27.2736367" lon="151.2903913">
  <ele>375.04</ele>
  <time>2026-09-01T19:57:38Z</time>
  <course>48.62</course>
  <speed>19.44</speed>
  <fix>3d</fix>
</trkpt>
<trkpt lat="-27.2736015" lon="151.2904315">
  <ele>374.93</ele>
  <time>2026-09-01T19:57:38Z</time>
  <course>44.39</course>
  <speed>20.194221945893336</speed>
  <fix>3d</fix>
</trkpt>
<trkpt lat="-27.2736367" lon="151.2903913">
  <ele>375.04</ele>
  <time>2026-09-01T19:57:38Z</time>
  <course>48.62</course>
  <speed>19.44</speed>
  <fix>3d</fix>
</trkpt>
<trkpt lat="-27.273588" lon="151.2904453">
  <ele>374.94</ele>
  <time>2026-09-01T19:57:38Z</time>
  <course>42.47</course>
  <speed>20.418741391182756</speed>
  <fix>3d</fix>
</trkpt>
<trkpt lat="-27.2736125" lon="151.2904203">
  <ele>375.05</ele>
  <time>2026-09-01T19:57:38Z</time>
  <course>44.86</course>
  <speed>19.93</speed>
  <fix>3d</fix>
</trkpt>
<trkpt lat="-27.2735738" lon="151.2904586">
  <ele>374.96</ele>
  <time>2026-09-01T19:57:38Z</time>
  <course>40.58</course>
  <speed>20.65087165230562</speed>
  <fix>3d</fix>
</trkpt>
<trkpt lat="-27.2736125" lon="151.2904203">
  <ele>375.05</ele>
  <time>2026-09-01T19:57:38Z</time>
  <course>44.86</course>
  <speed>19.93</speed>
  <fix>3d</fix>
</trkpt>
<trkpt lat="-27.2735591" lon="151.2904715">
  <ele>374.98</ele>
  <time>2026-09-01T19:57:38Z</time>
  <course>38.62</course>
  <speed>20.86813839325396</speed>
  <fix>3d</fix>
</trkpt>
<trkpt lat="-27.273586" lon="151.290448">
  <ele>375.08</ele>
  <time>2026-09-01T19:57:38Z</time>
  <course>40.81</course>
  <speed>20.39</speed>
  <fix>3d</fix>
</trkpt>
<trkpt lat="-27.2735439" lon="151.2904838">
  <ele>375.01</ele>
  <time>2026-09-01T19:57:38Z</time>
  <course>36.83</course>
  <speed>21.070275271101703</speed>
  <fix>3d</fix>
</trkpt>
<trkpt lat="-27.273586" lon="151.290448">
  <ele>375.08</ele>
  <time>2026-09-01T19:57:38Z</time>
  <course>40.81</course>
  <speed>20.39</speed>
  <fix>3d</fix>
</trkpt>
<trkpt lat="-27.2735283" lon="151.2904957">
  <ele>375.04</ele>
  <time>2026-09-01T19:57:38Z</time>
  <course>35.41</course>
  <speed>21.272804234515014</speed>
  <fix>3d</fix>
</trkpt>
<trkpt lat="-27.2735571" lon="151.290474">
  <ele>375.12</ele>
  <time>2026-09-01T19:57:38Z</time>
  <course>36.66</course>
  <speed>20.81</speed>
  <fix>3d</fix>
</trkpt>
<trkpt lat="-27.2735121" lon="151.2905071">
  <ele>375.07</ele>
  <time>2026-09-01T19:57:38Z</time>
  <course>34.48</course>
  <speed>21.47013041413582</speed>
  <fix>3d</fix>
</trkpt>
<trkpt lat="-27.2735571" lon="151.290474">
  <ele>375.12</ele>
  <time>2026-09-01T19:57:38Z</time>
  <course>36.66</course>
  <speed>20.81</speed>
  <fix>3d</fix>
</trkpt>
<trkpt lat="-27.2734957" lon="151.2905181">
  <ele>375.1</ele>
  <time>2026-09-01T19:57:38Z</time>
  <course>33.92</course>
  <speed>21.657980053550702</speed>
  <fix>3d</fix>
</trkpt>
<trkpt lat="-27.273526" lon="151.2904983">
  <ele>375.18</ele>
  <time>2026-09-01T19:57:38Z</time>
  <course>32.85</course>
  <speed>21.22</speed>
  <fix>3d</fix>
</trkpt>
<trkpt lat="-27.2734787" lon="151.2905291">
  <ele>375.13</ele>
  <time>2026-09-01T19:57:38Z</time>
  <course>33.63</course>
  <speed>21.86081654467646</speed>
  <fix>3d</fix>
</trkpt>
<trkpt lat="-27.273526" lon="151.2904983">
  <ele>375.18</ele>
  <time>2026-09-01T19:57:38Z</time>
  <course>32.85</course>
  <speed>21.22</speed>
  <fix>3d</fix>
</trkpt>
<trkpt lat="-27.2734617" lon="151.2905398">
  <ele>375.14</ele>
  <time>2026-09-01T19:57:38Z</time>
  <course>33.37</course>
  <speed>22.050419497143356</speed>
  <fix>3d</fix>
</trkpt>
<trkpt lat="-27.2734931" lon="151.2905209">
  <ele>375.25</ele>
  <time>2026-09-01T19:57:38Z</time>
  <course>30.1</course>
  <speed>21.63</speed>
  <fix>3d</fix>
</trkpt>
<trkpt lat="-27.2734444" lon="151.2905505">
  <ele>375.14</ele>
  <time>2026-09-01T19:57:38Z</time>
  <course>33.06</course>
  <speed>22.25307619184368</speed>
  <fix>3d</fix>
</trkpt>
<trkpt lat="-27.2734931" lon="151.2905209">
  <ele>375.25</ele>
  <time>2026-09-01T19:57:38Z</time>
  <course>30.1</course>
  <speed>21.63</speed>
  <fix>3d</fix>
</trkpt>
<trkpt lat="-27.2734269" lon="151.2905613">
  <ele>375.12</ele>
  <time>2026-09-01T19:57:38Z</time>
  <course>32.68</course>
  <speed>22.454204506060773</speed>
  <fix>3d</fix>
</trkpt>
<trkpt lat="-27.2734589" lon="151.2905425">
  <ele>375.28</ele>
  <time>2026-09-01T19:57:38Z</time>
  <course>28.71</course>
  <speed>22.04</speed>
  <fix>3d</fix>
</trkpt>
<trkpt lat="-27.2734093" lon="151.2905722">
  <ele>375.08</ele>
  <time>2026-09-01T19:57:38Z</time>
  <course>32.29</course>
  <speed>22.66647303838866</speed>
  <fix>3d</fix>
</trkpt>
<trkpt lat="-27.2734589" lon="151.2905425">
  <ele>375.28</ele>
  <time>2026-09-01T19:57:38Z</time>
  <course>28.71</course>
  <speed>22.04</speed>
  <fix>3d</fix>
</trkpt>
<trkpt lat="-27.2733915" lon="151.2905832">
  <ele>375.02</ele>
  <time>2026-09-01T19:57:38Z</time>
  <course>31.95</course>
  <speed>22.867070210239003</speed>
  <fix>3d</fix>
</trkpt>
<trkpt lat="-27.2734237" lon="151.2905639">
  <ele>375.26</ele>
  <time>2026-09-01T19:57:38Z</time>
  <course>28.37</course>
  <speed>22.46</speed>
  <fix>3d</fix>
</trkpt>
<trkpt lat="-27.2733737" lon="151.2905944">
  <ele>374.93</ele>
  <time>2026-09-01T19:57:38Z</time>
  <course>31.73</course>
  <speed>23.071161652591314</speed>
  <fix>3d</fix>
</trkpt>
<trkpt lat="-27.2734237" lon="151.2905639">
  <ele>375.26</ele>
  <time>2026-09-01T19:57:38Z</time>
  <course>28.37</course>
  <speed>22.46</speed>
  <fix>3d</fix>
</trkpt>
<trkpt lat="-27.2733557" lon="151.2906059">
  <ele>374.83</ele>
  <time>2026-09-01T19:57:38Z</time>
  <course>31.61</course>
  <speed>23.291242989587307</speed>
  <fix>3d</fix>
</trkpt>
<trkpt lat="-27.2733879" lon="151.2905857">
  <ele>375.15</ele>
  <time>2026-09-01T19:57:38Z</time>
  <course>28.72</course>
  <speed>22.88</speed>
  <fix>3d</fix>
</trkpt>
<trkpt lat="-27.2733375" lon="151.2906177">
  <ele>374.71</ele>
  <time>2026-09-01T19:57:38Z</time>
  <course>31.62</course>
  <speed>23.512092633366347</speed>
  <fix>3d</fix>
</trkpt>
<trkpt lat="-27.2733879" lon="151.2905857">
  <ele>375.15</ele>
  <time>2026-09-01T19:57:38Z</time>
  <course>28.72</course>
  <speed>22.88</speed>
  <fix>3d</fix>
</trkpt>
<trkpt lat="-27.2733191" lon="151.2906299">
  <ele>374.57</ele>
  <time>2026-09-01T19:57:38Z</time>
  <course>31.68</course>
  <speed>23.73369966945735</speed>
  <fix>3d</fix>
</trkpt>
<trkpt lat="-27.2733517" lon="151.2906085">
  <ele>374.96</ele>
  <time>2026-09-01T19:57:38Z</time>
  <course>29.56</course>
  <speed>23.31</speed>
  <fix>3d</fix>
</trkpt>
<trkpt lat="-27.2733008" lon="151.2906425">
  <ele>374.43</ele>
  <time>2026-09-01T19:57:38Z</time>
  <course>31.75</course>
  <speed>23.96372675524406</speed>
  <fix>3d</fix>
</trkpt>
<trkpt lat="-27.2733517" lon="151.2906085">
  <ele>374.96</ele>
  <time>2026-09-01T19:57:38Z</time>
  <course>29.56</course>
  <speed>23.31</speed>
  <fix>3d</fix>
</trkpt>
<trkpt lat="-27.2732822" lon="151.2906555">
  <ele>374.28</ele>
  <time>2026-09-01T19:57:38Z</time>
  <course>31.66</course>
  <speed>24.180984264500072</speed>
  <fix>3d</fix>
</trkpt>
<trkpt lat="-27.2733151" lon="151.2906324">
  <ele>374.72</ele>
  <time>2026-09-01T19:57:38Z</time>
  <course>30.76</course>
  <speed>23.75</speed>
  <fix>3d</fix>
</trkpt>
<trkpt lat="-27.2732637" lon="151.2906687">
  <ele>374.14</ele>
  <time>2026-09-01T19:57:38Z</time>
  <course>31.36</course>
  <speed>24.3911828331469</speed>
  <fix>3d</fix>
</trkpt>
<trkpt lat="-27.2733151" lon="151.2906324">
  <ele>374.72</ele>
  <time>2026-09-01T19:57:38Z</time>
  <course>30.76</course>
  <speed>23.75</speed>
  <fix>3d</fix>
</trkpt>
<trkpt lat="-27.2732451" lon="151.2906821">
  <ele>374.01</ele>
  <time>2026-09-01T19:57:38Z</time>
  <course>30.89</course>
  <speed>24.59847149722925</speed>
  <fix>3d</fix>
</trkpt>
<trkpt lat="-27.2732784" lon="151.2906576">
  <ele>374.44</ele>
  <time>2026-09-01T19:57:38Z</time>
  <course>31.96</course>
  <speed>24.18</speed>
  <fix>3d</fix>
</trkpt>
<trkpt lat="-27.2732264" lon="151.2906956">
  <ele>373.9</ele>
  <time>2026-09-01T19:57:38Z</time>
  <course>30.36</course>
  <speed>24.789088325309585</speed>
  <fix>3d</fix>
</trkpt>
<trkpt lat="-27.2732784" lon="151.2906576">
  <ele>374.44</ele>
  <time>2026-09-01T19:57:38Z</time>
  <course>31.96</course>
  <speed>24.18</speed>
  <fix>3d</fix>
</trkpt>
<trkpt lat="-27.2732073" lon="151.2907089">
  <ele>373.81</ele>
  <time>2026-09-01T19:57:38Z</time>
  <course>29.81</course>
  <speed>24.959811698007663</speed>
  <fix>3d</fix>
</trkpt>
<trkpt lat="-27.2732414" lon="151.2906839">
  <ele>374.18</ele>
  <time>2026-09-01T19:57:38Z</time>
  <course>32.43</course>
  <speed>24.59</speed>
  <fix>3d</fix>
</trkpt>
<trkpt lat="-27.2731881" lon="151.2907221">
  <ele>373.74</ele>
  <time>2026-09-01T19:57:38Z</time>
  <course>29.26</course>
  <speed>25.12625917242756</speed>
  <fix>3d</fix>
</trkpt>
<trkpt lat="-27.2732414" lon="151.2906839">
  <ele>374.18</ele>
  <time>2026-09-01T19:57:38Z</time>
  <course>32.43</course>
  <speed>24.59</speed>
  <fix>3d</fix>
</trkpt>
<trkpt lat="-27.2731686" lon="151.2907349">
  <ele>373.69</ele>
  <time>2026-09-01T19:57:38Z</time>
  <course>28.55</course>
  <speed>25.26091843144267</speed>
  <fix>3d</fix>
</trkpt>
<trkpt lat="-27.2732037" lon="151.2907105">
  <ele>373.98</ele>
  <time>2026-09-01T19:57:38Z</time>
  <course>31.63</course>
  <speed>24.94</speed>
  <fix>3d</fix>
</trkpt>
<trkpt lat="-27.2731487" lon="151.2907472">
  <ele>373.67</ele>
  <time>2026-09-01T19:57:38Z</time>
  <course>27.67</course>
  <speed>25.38128641341884</speed>
  <fix>3d</fix>
</trkpt>
<trkpt lat="-27.2732037" lon="151.2907105">
  <ele>373.98</ele>
  <time>2026-09-01T19:57:38Z</time>
  <course>31.63</course>
  <speed>24.94</speed>
  <fix>3d</fix>
</trkpt>
<trkpt lat="-27.2731285" lon="151.2907589">
  <ele>373.65</ele>
  <time>2026-09-01T19:57:38Z</time>
  <course>26.52</course>
  <speed>25.491174943497604</speed>
  <fix>3d</fix>
</trkpt>
<trkpt lat="-27.2731649" lon="151.2907364">
  <ele>373.87</ele>
  <time>2026-09-01T19:57:38Z</time>
  <course>29.55</course>
  <speed>25.23</speed>
  <fix>3d</fix>
</trkpt>
<trkpt lat="-27.2731079" lon="151.2907699">
  <ele>373.66</ele>
  <time>2026-09-01T19:57:38Z</time>
  <course>25.08</course>
  <speed>25.589093379797575</speed>
  <fix>3d</fix>
</trkpt>
<trkpt lat="-27.2731649" lon="151.2907364">
  <ele>373.87</ele>
  <time>2026-09-01T19:57:38Z</time>
  <course>29.55</course>
  <speed>25.23</speed>
  <fix>3d</fix>
</trkpt>
<trkpt lat="-27.273087" lon="151.2907803">
  <ele>373.67</ele>
  <time>2026-09-01T19:57:38Z</time>
  <course>23.5</course>
  <speed>25.681627674273294</speed>
  <fix>3d</fix>
</trkpt>
<trkpt lat="-27.2731246" lon="151.2907607">
  <ele>373.84</ele>
  <time>2026-09-01T19:57:38Z</time>
  <course>26.5</course>
  <speed>25.46</speed>
  <fix>3d</fix>
</trkpt>
<trkpt lat="-27.2730657" lon="151.2907899">
  <ele>373.69</ele>
  <time>2026-09-01T19:57:38Z</time>
  <course>21.73</course>
  <speed>25.770178501516046</speed>
  <fix>3d</fix>
</trkpt>
<trkpt lat="-27.2731246" lon="151.2907607">
  <ele>373.84</ele>
  <time>2026-09-01T19:57:38Z</time>
  <course>26.5</course>
  <speed>25.46</speed>
  <fix>3d</fix>
</trkpt>
<trkpt lat="-27.273044" lon="151.2907986">
  <ele>373.72</ele>
  <time>2026-09-01T19:57:38Z</time>
  <course>19.77</course>
  <speed>25.848458367956876</speed>
  <fix>3d</fix>
</trkpt>
<trkpt lat="-27.2730829" lon="151.2907822">
  <ele>373.85</ele>
  <time>2026-09-01T19:57:38Z</time>
  <course>22.75</course>
  <speed>25.66</speed>
  <fix>3d</fix>
</trkpt>
<trkpt lat="-27.2730219" lon="151.2908063">
  <ele>373.76</ele>
  <time>2026-09-01T19:57:38Z</time>
  <course>17.65</course>
  <speed>25.922848994661063</speed>
  <fix>3d</fix>
</trkpt>
<trkpt lat="-27.2730829" lon="151.2907822">
  <ele>373.85</ele>
  <time>2026-09-01T19:57:38Z</time>
  <course>22.75</course>
  <speed>25.66</speed>
  <fix>3d</fix>
</trkpt>
<trkpt lat="-27.2729996" lon="151.2908131">
  <ele>373.8</ele>
  <time>2026-09-01T19:57:38Z</time>
  <course>15.36</course>
  <speed>25.987952978255134</speed>
  <fix>3d</fix>
</trkpt>
<trkpt lat="-27.2730396" lon="151.2908006">
  <ele>373.9</ele>
  <time>2026-09-01T19:57:38Z</time>
  <course>18.47</course>
  <speed>25.83</speed>
  <fix>3d</fix>
</trkpt>
<trkpt lat="-27.2729769" lon="151.2908189">
  <ele>373.85</ele>
  <time>2026-09-01T19:57:38Z</time>
  <course>12.97</course>
  <speed>26.05598971445913</speed>
  <fix>3d</fix>
</trkpt>
<trkpt lat="-27.2730396" lon="151.2908006">
  <ele>373.9</ele>
  <time>2026-09-01T19:57:38Z</time>
  <course>18.47</course>
  <speed>25.83</speed>
  <fix>3d</fix>
</trkpt>
<trkpt lat="-27.272954" lon="151.2908236">
  <ele>373.9</ele>
  <time>2026-09-01T19:57:38Z</time>
  <course>10.47</course>
  <speed>26.105179562684487</speed>
  <fix>3d</fix>
</trkpt>
<trkpt lat="-27.2729949" lon="151.2908151">
  <ele>373.98</ele>
  <time>2026-09-01T19:57:38Z</time>
  <course>13.78</course>
  <speed>25.97</speed>
  <fix>3d</fix>
</trkpt>
<trkpt lat="-27.2729308" lon="151.2908271">
  <ele>373.95</ele>
  <time>2026-09-01T19:57:38Z</time>
  <course>7.85</course>
  <speed>26.170219716311134</speed>
  <fix>3d</fix>
</trkpt>
<trkpt lat="-27.2729949" lon="151.2908151">
  <ele>373.98</ele>
  <time>2026-09-01T19:57:38Z</time>
  <course>13.78</course>
  <speed>25.97</speed>
  <fix>3d</fix>
</trkpt>
<trkpt lat="-27.2729076" lon="151.2908294">
  <ele>374.01</ele>
  <time>2026-09-01T19:57:38Z</time>
  <course>5.14</course>
  <speed>26.217652450209954</speed>
  <fix>3d</fix>
</trkpt>
<trkpt lat="-27.2729491" lon="151.2908254">
  <ele>374.08</ele>
  <time>2026-09-01T19:57:38Z</time>
  <course>8.75</course>
  <speed>26.1</speed>
  <fix>3d</fix>
</trkpt>
<trkpt lat="-27.2728841" lon="151.2908305">
  <ele>374.07</ele>
  <time>2026-09-01T19:57:38Z</time>
  <course>2.38</course>
  <speed>26.261949661059056</speed>
  <fix>3d</fix>
</trkpt>
<trkpt lat="-27.2729491" lon="151.2908254">
  <ele>374.08</ele>
  <time>2026-09-01T19:57:38Z</time>
  <course>8.75</course>
  <speed>26.1</speed>
  <fix>3d</fix>
</trkpt>
<trkpt lat="-27.2728603" lon="151.2908303">
  <ele>374.13</ele>
  <time>2026-09-01T19:57:38Z</time>
  <course>359.63</course>
  <speed>26.31788175366703</speed>
  <fix>3d</fix>
</trkpt>
<trkpt lat="-27.2729024" lon="151.290831">
  <ele>374.18</ele>
  <time>2026-09-01T19:57:38Z</time>
  <course>3.42</course>
  <speed>26.21</speed>
  <fix>3d</fix>
</trkpt>
<trkpt lat="-27.2728367" lon="151.2908288">
  <ele>374.19</ele>
  <time>2026-09-01T19:57:38Z</time>
  <course>356.78</course>
  <speed>26.357930495393603</speed>
  <fix>3d</fix>
</trkpt>
<trkpt lat="-27.2729024" lon="151.290831">
  <ele>374.18</ele>
  <time>2026-09-01T19:57:38Z</time>
  <course>3.42</course>
  <speed>26.21</speed>
  <fix>3d</fix>
</trkpt>
<trkpt lat="-27.2728131" lon="151.2908261">
  <ele>374.25</ele>
  <time>2026-09-01T19:57:38Z</time>
  <course>353.93</course>
  <speed>26.41509038409674</speed>
  <fix>3d</fix>
</trkpt>
<trkpt lat="-27.2728552" lon="151.2908316">
  <ele>374.3</ele>
  <time>2026-09-01T19:57:38Z</time>
  <course>357.86</course>
  <speed>26.32</speed>
  <fix>3d</fix>
</trkpt>
<trkpt lat="-27.2727896" lon="151.2908219">
  <ele>374.31</ele>
  <time>2026-09-01T19:57:38Z</time>
  <course>351.07</course>
  <speed>26.459555929758157</speed>
  <fix>3d</fix>
</trkpt>
<trkpt lat="-27.2728552" lon="151.2908316">
  <ele>374.3</ele>
  <time>2026-09-01T19:57:38Z</time>
  <course>357.86</course>
  <speed>26.32</speed>
  <fix>3d</fix>
</trkpt>
<trkpt lat="-27.2727662" lon="151.2908165">
  <ele>374.37</ele>
  <time>2026-09-01T19:57:38Z</time>
  <course>348.19</course>
  <speed>26.51237069746876</speed>
  <fix>3d</fix>
</trkpt>
<trkpt lat="-27.2728081" lon="151.2908271">
  <ele>374.41</ele>
  <time>2026-09-01T19:57:38Z</time>
  <course>352.13</course>
  <speed>26.41</speed>
  <fix>3d</fix>
</trkpt>
<trkpt lat="-27.2727431" lon="151.2908097">
  <ele>374.43</ele>
  <time>2026-09-01T19:57:38Z</time>
  <course>345.24</course>
  <speed>26.553026192884303</speed>
  <fix>3d</fix>
</trkpt>
<trkpt lat="-27.2728081" lon="151.2908271">
  <ele>374.41</ele>
  <time>2026-09-01T19:57:38Z</time>
  <course>352.13</course>
  <speed>26.41</speed>
  <fix>3d</fix>
</trkpt>
<trkpt lat="-27.2727204" lon="151.2908016">
  <ele>374.49</ele>
  <time>2026-09-01T19:57:38Z</time>
  <course>342.31</course>
  <speed>26.586225756959184</speed>
  <fix>3d</fix>
</trkpt>
<trkpt lat="-27.2727614" lon="151.2908171">
  <ele>374.54</ele>
  <time>2026-09-01T19:57:38Z</time>
  <course>346.32</course>
  <speed>26.5</speed>
  <fix>3d</fix>
</trkpt>
<trkpt lat="-27.2726981" lon="151.2907922">
  <ele>374.55</ele>
  <time>2026-09-01T19:57:38Z</time>
  <course>339.05</course>
  <speed>26.615514272694412</speed>
  <fix>3d</fix>
</trkpt>
<trkpt lat="-27.2727614" lon="151.2908171">
  <ele>374.54</ele>
  <time>2026-09-01T19:57:38Z</time>
  <course>346.32</course>
  <speed>26.5</speed>
  <fix>3d</fix>
</trkpt>
<trkpt lat="-27.2726763" lon="151.2907815">
  <ele>374.62</ele>
  <time>2026-09-01T19:57:38Z</time>
  <course>335.1</course>
  <speed>26.624413608566105</speed>
  <fix>3d</fix>
</trkpt>
<trkpt lat="-27.2727158" lon="151.2908018">
  <ele>374.65</ele>
  <time>2026-09-01T19:57:38Z</time>
  <course>340.41</course>
  <speed>26.57</speed>
  <fix>3d</fix>
</trkpt>
<trkpt lat="-27.2726552" lon="151.2907692">
  <ele>374.7</ele>
  <time>2026-09-01T19:57:38Z</time>
  <course>331.48</course>
  <speed>26.61544852148842</speed>
  <fix>3d</fix>
</trkpt>
<trkpt lat="-27.2727158" lon="151.2908018">
  <ele>374.65</ele>
  <time>2026-09-01T19:57:38Z</time>
  <course>340.41</course>
  <speed>26.57</speed>
  <fix>3d</fix>
</trkpt>
<trkpt lat="-27.2726349" lon="151.2907555">
  <ele>374.81</ele>
  <time>2026-09-01T19:57:38Z</time>
  <course>328.13</course>
  <speed>26.596324934095687</speed>
  <fix>3d</fix>
</trkpt>
<trkpt lat="-27.2726717" lon="151.2907808">
  <ele>374.78</ele>
  <time>2026-09-01T19:57:38Z</time>
  <course>333.82</course>
  <speed>26.61</speed>
  <fix>3d</fix>
</trkpt>
<trkpt lat="-27.2726153" lon="151.2907404">
  <ele>374.92</ele>
  <time>2026-09-01T19:57:38Z</time>
  <course>324.89</course>
  <speed>26.5745310400767</speed>
  <fix>3d</fix>
</trkpt>
<trkpt lat="-27.2726717" lon="151.2907808">
  <ele>374.78</ele>
  <time>2026-09-01T19:57:38Z</time>
  <course>333.82</course>
  <speed>26.61</speed>
  <fix>3d</fix>
</trkpt>
<trkpt lat="-27.2725966" lon="151.2907241">
  <ele>375.03</ele>
  <time>2026-09-01T19:57:38Z</time>
  <course>321.7</course>
  <speed>26.527966375129473</speed>
  <fix>3d</fix>
</trkpt>
<trkpt lat="-27.2726301" lon="151.2907541">
  <ele>374.95</ele>
  <time>2026-09-01T19:57:38Z</time>
  <course>326.75</course>
  <speed>26.62</speed>
  <fix>3d</fix>
</trkpt>
<trkpt lat="-27.2725787" lon="151.2907067">
  <ele>375.15</ele>
  <time>2026-09-01T19:57:39Z</time>
  <course>318.68</course>
  <speed>26.491028670098864</speed>
  <fix>3d</fix>
</trkpt>
<trkpt lat="-27.2726301" lon="151.2907541">
  <ele>374.95</ele>
  <time>2026-09-01T19:57:39Z</time>
  <course>326.75</course>
  <speed>26.62</speed>
  <fix>3d</fix>
</trkpt>
<trkpt lat="-27.2725617" lon="151.2906882">
  <ele>375.27</ele>
  <time>2026-09-01T19:57:39Z</time>
  <course>315.87</course>
  <speed>26.435056270036576</speed>
  <fix>3d</fix>
</trkpt>
<trkpt lat="-27.2725917" lon="151.290722">
  <ele>375.15</ele>
  <time>2026-09-01T19:57:39Z</time>
  <course>320.02</course>
  <speed>26.59</speed>
  <fix>3d</fix>
</trkpt>
<trkpt lat="-27.2725456" lon="151.2906688">
  <ele>375.39</ele>
  <time>2026-09-01T19:57:39Z</time>
  <course>313.26</course>
  <speed>26.388198119614003</speed>
  <fix>3d</fix>
</trkpt>
<trkpt lat="-27.2725917" lon="151.290722">
  <ele>375.15</ele>
  <time>2026-09-01T19:57:39Z</time>
  <course>320.02</course>
  <speed>26.59</speed>
  <fix>3d</fix>
</trkpt>
<trkpt lat="-27.2725302" lon="151.2906486">
  <ele>375.5</ele>
  <time>2026-09-01T19:57:39Z</time>
  <course>310.76</course>
  <speed>26.33714487183453</speed>
  <fix>3d</fix>
</trkpt>
<trkpt lat="-27.2725569" lon="151.2906853">
  <ele>375.37</ele>
  <time>2026-09-01T19:57:39Z</time>
  <course>313.86</course>
  <speed>26.53</speed>
  <fix>3d</fix>
</trkpt>
<trkpt lat="-27.2725158" lon="151.2906277">
  <ele>375.6</ele>
  <time>2026-09-01T19:57:39Z</time>
  <course>308.43</course>
  <speed>26.265690548698693</speed>
  <fix>3d</fix>
</trkpt>
<trkpt lat="-27.2725569" lon="151.2906853">
  <ele>375.37</ele>
  <time>2026-09-01T19:57:39Z</time>
  <course>313.86</course>
  <speed>26.53</speed>
  <fix>3d</fix>
</trkpt>
<trkpt lat="-27.2725021" lon="151.2906062">
  <ele>375.69</ele>
  <time>2026-09-01T19:57:39Z</time>
  <course>306.33</course>
  <speed>26.20986837052029</speed>
  <fix>3d</fix>
</trkpt>
<trkpt lat="-27.2725257" lon="151.290645">
  <ele>375.58</ele>
  <time>2026-09-01T19:57:39Z</time>
  <course>308.39</course>
  <speed>26.44</speed>
  <fix>3d</fix>
</trkpt>
<trkpt lat="-27.2724892" lon="151.2905841">
  <ele>375.77</ele>
  <time>2026-09-01T19:57:39Z</time>
  <course>304.45</course>
  <speed>26.15867924800486</speed>
  <fix>3d</fix>
</trkpt>
<trkpt lat="-27.2725257" lon="151.290645">
  <ele>375.58</ele>
  <time>2026-09-01T19:57:39Z</time>
  <course>308.39</course>
  <speed>26.44</speed>
  <fix>3d</fix>
</trkpt>
<trkpt lat="-27.272477" lon="151.2905615">
  <ele>375.82</ele>
  <time>2026-09-01T19:57:39Z</time>
  <course>302.71</course>
  <speed>26.107181004466952</speed>
  <fix>3d</fix>
</trkpt>
<trkpt lat="-27.2724979" lon="151.2906019">
  <ele>375.75</ele>
  <time>2026-09-01T19:57:39Z</time>
  <course>303.63</course>
  <speed>26.34</speed>
  <fix>3d</fix>
</trkpt>
<trkpt lat="-27.2724656" lon="151.2905388">
  <ele>375.85</ele>
  <time>2026-09-01T19:57:39Z</time>
  <course>301.09</course>
  <speed>26.06262649849397</speed>
  <fix>3d</fix>
</trkpt>
<trkpt lat="-27.2724979" lon="151.2906019">
  <ele>375.75</ele>
  <time>2026-09-01T19:57:39Z</time>
  <course>303.63</course>
  <speed>26.34</speed>
  <fix>3d</fix>
</trkpt>
<trkpt lat="-27.2724545" lon="151.2905154">
  <ele>375.85</ele>
  <time>2026-09-01T19:57:39Z</time>
  <course>299.64</course>
  <speed>26.027984939291787</speed>
  <fix>3d</fix>
</trkpt>
<trkpt lat="-27.2724732" lon="151.2905566">
  <ele>375.86</ele>
  <time>2026-09-01T19:57:39Z</time>
  <course>299.62</course>
  <speed>26.24</speed>
  <fix>3d</fix>
</trkpt>
<trkpt lat="-27.2724442" lon="151.2904917">
  <ele>375.83</ele>
  <time>2026-09-01T19:57:39Z</time>
  <course>298.24</course>
  <speed>25.99816147345808</speed>
  <fix>3d</fix>
</trkpt>
<trkpt lat="-27.2724732" lon="151.2905566">
  <ele>375.86</ele>
  <time>2026-09-01T19:57:39Z</time>
  <course>299.62</course>
  <speed>26.24</speed>
  <fix>3d</fix>
</trkpt>
<trkpt lat="-27.2724341" lon="151.2904672">
  <ele>375.77</ele>
  <time>2026-09-01T19:57:39Z</time>
  <course>296.91</course>
  <speed>25.97864700095061</speed>
  <fix>3d</fix>
</trkpt>
<trkpt lat="-27.2724512" lon="151.2905099">
  <ele>375.88</ele>
  <time>2026-09-01T19:57:39Z</time>
  <course>296.28</course>
  <speed>26.16</speed>
  <fix>3d</fix>
</trkpt>
<trkpt lat="-27.2724247" lon="151.290443">
  <ele>375.69</ele>
  <time>2026-09-01T19:57:39Z</time>
  <course>295.68</course>
  <speed>25.95234093487522</speed>
  <fix>3d</fix>
</trkpt>
<trkpt lat="-27.2724512" lon="151.2905099">
  <ele>375.88</ele>
  <time>2026-09-01T19:57:39Z</time>
  <course>296.28</course>
  <speed>26.16</speed>
  <fix>3d</fix>
</trkpt>
<trkpt lat="-27.2724159" lon="151.2904186">
  <ele>375.57</ele>
  <time>2026-09-01T19:57:39Z</time>
  <course>294.52</course>
  <speed>25.9400713183291</speed>
  <fix>3d</fix>
</trkpt>
<trkpt lat="-27.2724314" lon="151.290462">
  <ele>375.8</ele>
  <time>2026-09-01T19:57:39Z</time>
  <course>293.44</course>
  <speed>26.09</speed>
  <fix>3d</fix>
</trkpt>
<trkpt lat="-27.2724075" lon="151.2903941">
  <ele>375.43</ele>
  <time>2026-09-01T19:57:39Z</time>
  <course>293.32</course>
  <speed>25.914185304577877</speed>
  <fix>3d</fix>
</trkpt>
<trkpt lat="-27.2724314" lon="151.290462">
  <ele>375.8</ele>
  <time>2026-09-01T19:57:39Z</time>
  <course>293.44</course>
  <speed>26.09</speed>
  <fix>3d</fix>
</trkpt>
<trkpt lat="-27.2723995" lon="151.2903694">
  <ele>375.25</ele>
  <time>2026-09-01T19:57:39Z</time>
  <course>292.14</course>
  <speed>25.901833911906703</speed>
  <fix>3d</fix>
</trkpt>
<trkpt lat="-27.2724138" lon="151.2904132">
  <ele>375.6</ele>
  <time>2026-09-01T19:57:39Z</time>
  <course>290.96</course>
  <speed>26.03</speed>
  <fix>3d</fix>
</trkpt>
<trkpt lat="-27.2723921" lon="151.2903445">
  <ele>375.05</ele>
  <time>2026-09-01T19:57:39Z</time>
  <course>290.93</course>
  <speed>25.889860949800404</speed>
  <fix>3d</fix>
</trkpt>
<trkpt lat="-27.2724138" lon="151.2904132">
  <ele>375.6</ele>
  <time>2026-09-01T19:57:39Z</time>
  <course>290.96</course>
  <speed>26.03</speed>
  <fix>3d</fix>
</trkpt>
<trkpt lat="-27.272385" lon="151.2903195">
  <ele>374.82</ele>
  <time>2026-09-01T19:57:39Z</time>
  <course>289.72</course>
  <speed>25.88472329386582</speed>
  <fix>3d</fix>
</trkpt>
<trkpt lat="-27.272398" lon="151.2903636">
  <ele>375.27</ele>
  <time>2026-09-01T19:57:39Z</time>
  <course>288.67</course>
  <speed>25.99</speed>
  <fix>3d</fix>
</trkpt>
<trkpt lat="-27.2723785" lon="151.2902944">
  <ele>374.57</ele>
  <time>2026-09-01T19:57:39Z</time>
  <course>288.46</course>
  <speed>25.896611747485423</speed>
  <fix>3d</fix>
</trkpt>
<trkpt lat="-27.272398" lon="151.2903636">
  <ele>375.27</ele>
  <time>2026-09-01T19:57:39Z</time>
  <course>288.67</course>
  <speed>25.99</speed>
  <fix>3d</fix>
</trkpt>
<trkpt lat="-27.2723724" lon="151.290269">
  <ele>374.29</ele>
  <time>2026-09-01T19:57:39Z</time>
  <course>287.17</course>
  <speed>25.906919924993012</speed>
  <fix>3d</fix>
</trkpt>
<trkpt lat="-27.2723839" lon="151.2903135">
  <ele>374.84</ele>
  <time>2026-09-01T19:57:39Z</time>
  <course>286.4</course>
  <speed>25.97</speed>
  <fix>3d</fix>
</trkpt>
<trkpt lat="-27.2723667" lon="151.2902436">
  <ele>374.01</ele>
  <time>2026-09-01T19:57:39Z</time>
  <course>285.87</course>
  <speed>25.92579024832223</speed>
  <fix>3d</fix>
</trkpt>
<trkpt lat="-27.2723839" lon="151.2903135">
  <ele>374.84</ele>
  <time>2026-09-01T19:57:39Z</time>
  <course>286.4</course>
  <speed>25.97</speed>
  <fix>3d</fix>
</trkpt>
<trkpt lat="-27.2723616" lon="151.2902179">
  <ele>373.71</ele>
  <time>2026-09-01T19:57:39Z</time>
  <course>284.57</course>
  <speed>25.951680099754622</speed>
  <fix>3d</fix>
</trkpt>
<trkpt lat="-27.2723716" lon="151.2902628">
  <ele>374.32</ele>
  <time>2026-09-01T19:57:39Z</time>
  <course>284.07</course>
  <speed>25.98</speed>
  <fix>3d</fix>
</trkpt>
<trkpt lat="-27.2723569" lon="151.2901921">
  <ele>373.4</ele>
  <time>2026-09-01T19:57:39Z</time>
  <course>283.26</course>
  <speed>25.98173204388037</speed>
  <fix>3d</fix>
</trkpt>
<trkpt lat="-27.2723716" lon="151.2902628">
  <ele>374.32</ele>
  <time>2026-09-01T19:57:39Z</time>
  <course>284.07</course>
  <speed>25.98</speed>
  <fix>3d</fix>
</trkpt>
<trkpt lat="-27.2723528" lon="151.2901661">
  <ele>373.09</ele>
  <time>2026-09-01T19:57:39Z</time>
  <course>281.98</course>
  <speed>26.031444447052877</speed>
  <fix>3d</fix>
</trkpt>
<trkpt lat="-27.2723612" lon="151.2902116">
  <ele>373.73</ele>
  <time>2026-09-01T19:57:39Z</time>
  <course>281.67</course>
  <speed>26.02</speed>
  <fix>3d</fix>
</trkpt>
<trkpt lat="-27.2723491" lon="151.29014">
  <ele>372.77</ele>
  <time>2026-09-01T19:57:39Z</time>
  <course>280.69</course>
  <speed>26.07332736725407</speed>
  <fix>3d</fix>
</trkpt>
<trkpt lat="-27.2723612" lon="151.2902116">
  <ele>373.73</ele>
  <time>2026-09-01T19:57:39Z</time>
  <course>281.67</course>
  <speed>26.02</speed>
  <fix>3d</fix>
</trkpt>
<trkpt lat="-27.2723459" lon="151.2901138">
  <ele>372.47</ele>
  <time>2026-09-01T19:57:39Z</time>
  <course>279.4</course>
  <speed>26.135586850116834</speed>
  <fix>3d</fix>
</trkpt>
<trkpt lat="-27.2723527" lon="151.2901598">
  <ele>373.12</ele>
  <time>2026-09-01T19:57:39Z</time>
  <course>279.25</course>
  <speed>26.09</speed>
  <fix>3d</fix>
</trkpt>
<trkpt lat="-27.2723432" lon="151.2900875">
  <ele>372.17</ele>
  <time>2026-09-01T19:57:39Z</time>
  <course>278.15</course>
  <speed>26.191175994979684</speed>
  <fix>3d</fix>
</trkpt>
<trkpt lat="-27.2723527" lon="151.2901598">
  <ele>373.12</ele>
  <time>2026-09-01T19:57:39Z</time>
  <course>279.25</course>
  <speed>26.09</speed>
  <fix>3d</fix>
</trkpt>
<trkpt lat="-27.272341" lon="151.290061">
  <ele>371.88</ele>
  <time>2026-09-01T19:57:39Z</time>
  <course>276.92</course>
  <speed>26.239245415979475</speed>
  <fix>3d</fix>
</trkpt>
<trkpt lat="-27.2723461" lon="151.2901075">
  <ele>372.52</ele>
  <time>2026-09-01T19:57:39Z</time>
  <course>276.82</course>
  <speed>26.18</speed>
  <fix>3d</fix>
</trkpt>
<trkpt lat="-27.2723393" lon="151.2900344">
  <ele>371.6</ele>
  <time>2026-09-01T19:57:39Z</time>
  <course>275.79</course>
  <speed>26.30030418075046</speed>
  <fix>3d</fix>
</trkpt>
<trkpt lat="-27.2723461" lon="151.2901075">
  <ele>372.52</ele>
  <time>2026-09-01T19:57:39Z</time>
  <course>276.82</course>
  <speed>26.18</speed>
  <fix>3d</fix>
</trkpt>
<trkpt lat="-27.272338" lon="151.290008">
  <ele>371.34</ele>
  <time>2026-09-01T19:57:39Z</time>
  <course>274.74</course>
  <speed>26.352580518803087</speed>
  <fix>3d</fix>
</trkpt>
<trkpt lat="-27.2723415" lon="151.2900548">
  <ele>371.94</ele>
  <time>2026-09-01T19:57:39Z</time>
  <course>274.46</course>
  <speed>26.29</speed>
  <fix>3d</fix>
</trkpt>
<trkpt lat="-27.2723371" lon="151.2899813">
  <ele>371.09</ele>
  <time>2026-09-01T19:57:39Z</time>
  <course>273.72</course>
  <speed>26.4040091652764</speed>
  <fix>3d</fix>
</trkpt>
<trkpt lat="-27.2723415" lon="151.2900548">
  <ele>371.94</ele>
  <time>2026-09-01T19:57:39Z</time>
  <course>274.46</course>
  <speed>26.29</speed>
  <fix>3d</fix>
</trkpt>
<trkpt lat="-27.2723367" lon="151.2899545">
  <ele>370.86</ele>
  <time>2026-09-01T19:57:39Z</time>
  <course>272.68</course>
  <speed>26.443496364890933</speed>
  <fix>3d</fix>
</trkpt>
<trkpt lat="-27.2723387" lon="151.2900016">
  <ele>371.41</ele>
  <time>2026-09-01T19:57:39Z</time>
  <course>272.33</course>
  <speed>26.39</speed>
  <fix>3d</fix>
</trkpt>
<trkpt lat="-27.2723366" lon="151.2899277">
  <ele>370.64</ele>
  <time>2026-09-01T19:57:39Z</time>
  <course>271.75</course>
  <speed>26.490016987537025</speed>
  <fix>3d</fix>
</trkpt>
<trkpt lat="-27.2723387" lon="151.2900016">
  <ele>371.41</ele>
  <time>2026-09-01T19:57:39Z</time>
  <course>272.33</course>
  <speed>26.39</speed>
  <fix>3d</fix>
</trkpt>
<trkpt lat="-27.2723368" lon="151.2899006">
  <ele>370.44</ele>
  <time>2026-09-01T19:57:39Z</time>
  <course>270.86</course>
  <speed>26.53205231413507</speed>
  <fix>3d</fix>
</trkpt>
<trkpt lat="-27.2723376" lon="151.2899482">
  <ele>370.95</ele>
  <time>2026-09-01T19:57:39Z</time>
  <course>270.44</course>
  <speed>26.48</speed>
  <fix>3d</fix>
</trkpt>
<trkpt lat="-27.2723374" lon="151.2898737">
  <ele>370.25</ele>
  <time>2026-09-01T19:57:39Z</time>
  <course>270.07</course>
  <speed>26.56819903568926</speed>
  <fix>3d</fix>
</trkpt>
<trkpt lat="-27.2723376" lon="151.2899482">
  <ele>370.95</ele>
  <time>2026-09-01T19:57:39Z</time>
  <course>270.44</course>
  <speed>26.48</speed>
  <fix>3d</fix>
</trkpt>
<trkpt lat="-27.2723382" lon="151.2898467">
  <ele>370.08</ele>
  <time>2026-09-01T19:57:39Z</time>
  <course>269.45</course>
  <speed>26.60732417963144</speed>
  <fix>3d</fix>
</trkpt>
<trkpt lat="-27.2723379" lon="151.2898947">
  <ele>370.54</ele>
  <time>2026-09-01T19:57:39Z</time>
  <course>268.8</course>
  <speed>26.55</speed>
  <fix>3d</fix>
</trkpt>
<trkpt lat="-27.2723393" lon="151.2898198">
  <ele>369.93</ele>
  <time>2026-09-01T19:57:39Z</time>
  <course>268.81</course>
  <speed>26.63795224862452</speed>
  <fix>3d</fix>
</trkpt>
<trkpt lat="-27.2723379" lon="151.2898947">
  <ele>370.54</ele>
  <time>2026-09-01T19:57:39Z</time>
  <course>268.8</course>
  <speed>26.55</speed>
  <fix>3d</fix>
</trkpt>
<trkpt lat="-27.2723406" lon="151.2897929">
  <ele>369.78</ele>
  <time>2026-09-01T19:57:39Z</time>
  <course>268.22</course>
  <speed>26.65946173500133</speed>
  <fix>3d</fix>
</trkpt>
<trkpt lat="-27.2723395" lon="151.2898409">
  <ele>370.2</ele>
  <time>2026-09-01T19:57:39Z</time>
  <course>267.47</course>
  <speed>26.61</speed>
  <fix>3d</fix>
</trkpt>
<trkpt lat="-27.2723421" lon="151.2897659">
  <ele>369.66</ele>
  <time>2026-09-01T19:57:39Z</time>
  <course>267.69</course>
  <speed>26.671707856828366</speed>
  <fix>3d</fix>
</trkpt>
<trkpt lat="-27.2723395" lon="151.2898409">
  <ele>370.2</ele>
  <time>2026-09-01T19:57:39Z</time>
  <course>267.47</course>
  <speed>26.61</speed>
  <fix>3d</fix>
</trkpt>
<trkpt lat="-27.2723438" lon="151.2897388">
  <ele>369.55</ele>
  <time>2026-09-01T19:57:39Z</time>
  <course>267.17</course>
  <speed>26.683515510516976</speed>
  <fix>3d</fix>
</trkpt>
<trkpt lat="-27.272342" lon="151.289787">
  <ele>369.92</ele>
  <time>2026-09-01T19:57:39Z</time>
  <course>266.43</course>
  <speed>26.66</speed>
  <fix>3d</fix>
</trkpt>
<trkpt lat="-27.2723456" lon="151.2897118">
  <ele>369.45</ele>
  <time>2026-09-01T19:57:39Z</time>
  <course>266.68</course>
  <speed>26.695025753874074</speed>
  <fix>3d</fix>
</trkpt>
<trkpt lat="-27.272342" lon="151.289787">
  <ele>369.92</ele>
  <time>2026-09-01T19:57:39Z</time>
  <course>266.43</course>
  <speed>26.66</speed>
  <fix>3d</fix>
</trkpt>
<trkpt lat="-27.2723476" lon="151.2896849">
  <ele>369.37</ele>
  <time>2026-09-01T19:57:39Z</time>
  <course>266.28</course>
  <speed>26.6959116720145</speed>
  <fix>3d</fix>
</trkpt>
<trkpt lat="-27.2723453" lon="151.2897332">
  <ele>369.7</ele>
  <time>2026-09-01T19:57:39Z</time>
  <course>265.61</course>
  <speed>26.68</speed>
  <fix>3d</fix>
</trkpt>
<trkpt lat="-27.2723497" lon="151.289658">
  <ele>369.3</ele>
  <time>2026-09-01T19:57:39Z</time>
  <course>265.98</course>
  <speed>26.705798995723757</speed>
  <fix>3d</fix>
</trkpt>
<trkpt lat="-27.2723453" lon="151.2897332">
  <ele>369.7</ele>
  <time>2026-09-01T19:57:39Z</time>
  <course>265.61</course>
  <speed>26.68</speed>
  <fix>3d</fix>
</trkpt>
<trkpt lat="-27.272352" lon="151.2896311">
  <ele>369.24</ele>
  <time>2026-09-01T19:57:39Z</time>
  <course>265.7</course>
  <speed>26.69452565602169</speed>
  <fix>3d</fix>
</trkpt>
<trkpt lat="-27.2723493" lon="151.2896794">
  <ele>369.53</ele>
  <time>2026-09-01T19:57:39Z</time>
  <course>264.99</course>
  <speed>26.69</speed>
  <fix>3d</fix>
</trkpt>
<trkpt lat="-27.2723543" lon="151.2896043">
  <ele>369.18</ele>
  <time>2026-09-01T19:57:39Z</time>
  <course>265.42</course>
  <speed>26.69175902783479</speed>
  <fix>3d</fix>
</trkpt>
<trkpt lat="-27.2723493" lon="151.2896794">
  <ele>369.53</ele>
  <time>2026-09-01T19:57:39Z</time>
  <course>264.99</course>
  <speed>26.69</speed>
  <fix>3d</fix>
</trkpt>
<trkpt lat="-27.2723566" lon="151.2895774">
  <ele>369.14</ele>
  <time>2026-09-01T19:57:39Z</time>
  <course>265.16</course>
  <speed>26.679280350114396</speed>
  <fix>3d</fix>
</trkpt>
<trkpt lat="-27.2723536" lon="151.2896257">
  <ele>369.41</ele>
  <time>2026-09-01T19:57:39Z</time>
  <course>264.56</course>
  <speed>26.68</speed>
  <fix>3d</fix>
</trkpt>
<trkpt lat="-27.272359" lon="151.2895506">
  <ele>369.11</ele>
  <time>2026-09-01T19:57:39Z</time>
  <course>265.03</course>
  <speed>26.66510828779812</speed>
  <fix>3d</fix>
</trkpt>
<trkpt lat="-27.2723536" lon="151.2896257">
  <ele>369.41</ele>
  <time>2026-09-01T19:57:39Z</time>
  <course>264.56</course>
  <speed>26.68</speed>
  <fix>3d</fix>
</trkpt>
<trkpt lat="-27.2723615" lon="151.2895238">
  <ele>369.09</ele>
  <time>2026-09-01T19:57:39Z</time>
  <course>264.92</course>
  <speed>26.651078777415375</speed>
  <fix>3d</fix>
</trkpt>
<trkpt lat="-27.2723583" lon="151.2895721">
  <ele>369.34</ele>
  <time>2026-09-01T19:57:39Z</time>
  <course>264.25</course>
  <speed>26.66</speed>
  <fix>3d</fix>
</trkpt>
<trkpt lat="-27.272364" lon="151.289497">
  <ele>369.08</ele>
  <time>2026-09-01T19:57:39Z</time>
  <course>264.83</course>
  <speed>26.634167905155213</speed>
  <fix>3d</fix>
</trkpt>
<trkpt lat="-27.2723583" lon="151.2895721">
  <ele>369.34</ele>
  <time>2026-09-01T19:57:39Z</time>
  <course>264.25</course>
  <speed>26.66</speed>
  <fix>3d</fix>
</trkpt>
<trkpt lat="-27.2723666" lon="151.2894703">
  <ele>369.08</ele>
  <time>2026-09-01T19:57:39Z</time>
  <course>264.77</course>
  <speed>26.61628261046234</speed>
  <fix>3d</fix>
</trkpt>
<trkpt lat="-27.2723632" lon="151.2895185">
  <ele>369.31</ele>
  <time>2026-09-01T19:57:39Z</time>
  <course>264.04</course>
  <speed>26.63</speed>
  <fix>3d</fix>
</trkpt>
<trkpt lat="-27.2723691" lon="151.2894438">
  <ele>369.09</ele>
  <time>2026-09-01T19:57:39Z</time>
  <course>264.68</course>
  <speed>26.59739836901346</speed>
  <fix>3d</fix>
</trkpt>
<trkpt lat="-27.2723632" lon="151.2895185">
  <ele>369.31</ele>
  <time>2026-09-01T19:57:39Z</time>
  <course>264.04</course>
  <speed>26.63</speed>
  <fix>3d</fix>
</trkpt>
<trkpt lat="-27.2723717" lon="151.2894171">
  <ele>369.1</ele>
  <time>2026-09-01T19:57:39Z</time>
  <course>264.54</course>
  <speed>26.568571659010953</speed>
  <fix>3d</fix>
</trkpt>
<trkpt lat="-27.2723682" lon="151.289465">
  <ele>369.3</ele>
  <time>2026-09-01T19:57:39Z</time>
  <course>263.94</course>
  <speed>26.58</speed>
  <fix>3d</fix>
</trkpt>
<trkpt lat="-27.2723742" lon="151.2893904">
  <ele>369.12</ele>
  <time>2026-09-01T19:57:39Z</time>
  <course>264.46</course>
  <speed>26.549698680022715</speed>
  <fix>3d</fix>
</trkpt>
<trkpt lat="-27.2723682" lon="151.289465">
  <ele>369.3</ele>
  <time>2026-09-01T19:57:39Z</time>
  <course>263.94</course>
  <speed>26.58</speed>
  <fix>3d</fix>
</trkpt>
<trkpt lat="-27.2723768" lon="151.2893637">
  <ele>369.14</ele>
  <time>2026-09-01T19:57:39Z</time>
  <course>264.44</course>
  <speed>26.51985671152844</speed>
  <fix>3d</fix>
</trkpt>
<trkpt lat="-27.2723732" lon="151.2894117">
  <ele>369.33</ele>
  <time>2026-09-01T19:57:39Z</time>
  <course>263.92</course>
  <speed>26.54</speed>
  <fix>3d</fix>
</trkpt>
<trkpt lat="-27.2723793" lon="151.2893369">
  <ele>369.17</ele>
  <time>2026-09-01T19:57:39Z</time>
  <course>264.47</course>
  <speed>26.488990165727344</speed>
  <fix>3d</fix>
</trkpt>
<trkpt lat="-27.2723732" lon="151.2894117">
  <ele>369.33</ele>
  <time>2026-09-01T19:57:39Z</time>
  <course>263.92</course>
  <speed>26.54</speed>
  <fix>3d</fix>
</trkpt>
<trkpt lat="-27.2723819" lon="151.2893103">
  <ele>369.21</ele>
  <time>2026-09-01T19:57:39Z</time>
  <course>264.42</course>
  <speed>26.468073220391393</speed>
  <fix>3d</fix>
</trkpt>
<trkpt lat="-27.2723783" lon="151.2893585">
  <ele>369.38</ele>
  <time>2026-09-01T19:57:39Z</time>
  <course>263.95</course>
  <speed>26.48</speed>
  <fix>3d</fix>
</trkpt>
<trkpt lat="-27.2723844" lon="151.2892837">
  <ele>369.25</ele>
  <time>2026-09-01T19:57:39Z</time>
  <course>264.39</course>
  <speed>26.4372105185097</speed>
  <fix>3d</fix>
</trkpt>
<trkpt lat="-27.2723783" lon="151.2893585">
  <ele>369.38</ele>
  <time>2026-09-01T19:57:39Z</time>
  <course>263.95</course>
  <speed>26.48</speed>
  <fix>3d</fix>
</trkpt>
<trkpt lat="-27.2723869" lon="151.2892572">
  <ele>369.3</ele>
  <time>2026-09-01T19:57:39Z</time>
  <course>264.47</course>
  <speed>26.415285347692155</speed>
  <fix>3d</fix>
</trkpt>
<trkpt lat="-27.2723832" lon="151.2893052">
  <ele>369.46</ele>
  <time>2026-09-01T19:57:39Z</time>
  <course>264.01</course>
  <speed>26.42</speed>
  <fix>3d</fix>
</trkpt>
<trkpt lat="-27.2723894" lon="151.2892306">
  <ele>369.34</ele>
  <time>2026-09-01T19:57:39Z</time>
  <course>264.54</course>
  <speed>26.384429120221647</speed>
  <fix>3d</fix>
</trkpt>
<trkpt lat="-27.2723832" lon="151.2893052">
  <ele>369.46</ele>
  <time>2026-09-01T19:57:39Z</time>
  <course>264.01</course>
  <speed>26.42</speed>
  <fix>3d</fix>
</trkpt>
<trkpt lat="-27.2723918" lon="151.2892041">
  <ele>369.39</ele>
  <time>2026-09-01T19:57:39Z</time>
  <course>264.62</course>
  <speed>26.35157111065676</speed>
  <fix>3d</fix>
</trkpt>
<trkpt lat="-27.2723881" lon="151.2892521">
  <ele>369.56</ele>
  <time>2026-09-01T19:57:39Z</time>
  <course>264.1</course>
  <speed>26.37</speed>
  <fix>3d</fix>
</trkpt>
<trkpt lat="-27.2723943" lon="151.2891776">
  <ele>369.44</ele>
  <time>2026-09-01T19:57:39Z</time>
  <course>264.63</course>
  <speed>26.319730241778693</speed>
  <fix>3d</fix>
</trkpt>
<trkpt lat="-27.2723881" lon="151.2892521">
  <ele>369.56</ele>
  <time>2026-09-01T19:57:39Z</time>
  <course>264.1</course>
  <speed>26.37</speed>
  <fix>3d</fix>
</trkpt>
<trkpt lat="-27.2723967" lon="151.2891511">
  <ele>369.49</ele>
  <time>2026-09-01T19:57:39Z</time>
  <course>264.67</course>
  <speed>26.29785162327904</speed>
  <fix>3d</fix>
</trkpt>
<trkpt lat="-27.272393" lon="151.289199">
  <ele>369.65</ele>
  <time>2026-09-01T19:57:39Z</time>
  <course>264.21</course>
  <speed>26.3</speed>
  <fix>3d</fix>
</trkpt>
<trkpt lat="-27.272399" lon="151.2891247">
  <ele>369.55</ele>
  <time>2026-09-01T19:57:39Z</time>
  <course>264.73</course>
  <speed>26.265056634243148</speed>
  <fix>3d</fix>
</trkpt>
<trkpt lat="-27.272393" lon="151.289199">
  <ele>369.65</ele>
  <time>2026-09-01T19:57:39Z</time>
  <course>264.21</course>
  <speed>26.3</speed>
  <fix>3d</fix>
</trkpt>
<trkpt lat="-27.2724014" lon="151.2890982">
  <ele>369.61</ele>
  <time>2026-09-01T19:57:39Z</time>
  <course>264.85</course>
  <speed>26.242242663309092</speed>
  <fix>3d</fix>
</trkpt>
<trkpt lat="-27.2723977" lon="151.2891462">
  <ele>369.76</ele>
  <time>2026-09-01T19:57:39Z</time>
  <course>264.33</course>
  <speed>26.24</speed>
  <fix>3d</fix>
</trkpt>
<trkpt lat="-27.2724037" lon="151.2890718">
  <ele>369.66</ele>
  <time>2026-09-01T19:57:39Z</time>
  <course>264.91</course>
  <speed>26.209504001411396</speed>
  <fix>3d</fix>
</trkpt>
<trkpt lat="-27.2723977" lon="151.2891462">
  <ele>369.76</ele>
  <time>2026-09-01T19:57:39Z</time>
  <course>264.33</course>
  <speed>26.24</speed>
  <fix>3d</fix>
</trkpt>
<trkpt lat="-27.272406" lon="151.2890455">
  <ele>369.72</ele>
  <time>2026-09-01T19:57:39Z</time>
  <course>264.93</course>
  <speed>26.176793157298697</speed>
  <fix>3d</fix>
</trkpt>
<trkpt lat="-27.2724022" lon="151.2890935">
  <ele>369.88</ele>
  <time>2026-09-01T19:57:39Z</time>
  <course>264.48</course>
  <speed>26.18</speed>
  <fix>3d</fix>
</trkpt>
<trkpt lat="-27.2724082" lon="151.2890192">
  <ele>369.78</ele>
  <time>2026-09-01T19:57:39Z</time>
  <course>265.0</course>
  <speed>26.154066605405745</speed>
  <fix>3d</fix>
</trkpt>
<trkpt lat="-27.2724022" lon="151.2890935">
  <ele>369.88</ele>
  <time>2026-09-01T19:57:39Z</time>
  <course>264.48</course>
  <speed>26.18</speed>
  <fix>3d</fix>
</trkpt>
<trkpt lat="-27.2724104" lon="151.2889927">
  <ele>369.84</ele>
  <time>2026-09-01T19:57:39Z</time>
  <course>265.04</course>
  <speed>26.121412672365178</speed>
  <fix>3d</fix>
</trkpt>
<trkpt lat="-27.2724067" lon="151.2890409">
  <ele>370.0</ele>
  <time>2026-09-01T19:57:39Z</time>
  <course>264.63</course>
  <speed>26.12</speed>
  <fix>3d</fix>
</trkpt>
<trkpt lat="-27.2724126" lon="151.2889664">
  <ele>369.9</ele>
  <time>2026-09-01T19:57:39Z</time>
  <course>265.09</course>
  <speed>26.088786863325016</speed>
  <fix>3d</fix>
</trkpt>
<trkpt lat="-27.2724067" lon="151.2890409">
  <ele>370.0</ele>
  <time>2026-09-01T19:57:39Z</time>
  <course>264.63</course>
  <speed>26.12</speed>
  <fix>3d</fix>
</trkpt>
<trkpt lat="-27.2724148" lon="151.2889403">
  <ele>369.97</ele>
  <time>2026-09-01T19:57:39Z</time>
  <course>265.16</course>
  <speed>26.047134199370188</speed>
  <fix>3d</fix>
</trkpt>
<trkpt lat="-27.272411" lon="151.2889884">
  <ele>370.12</ele>
  <time>2026-09-01T19:57:39Z</time>
  <course>264.78</course>
  <speed>26.05</speed>
  <fix>3d</fix>
</trkpt>
<trkpt lat="-27.2724169" lon="151.2889142">
  <ele>370.03</ele>
  <time>2026-09-01T19:57:39Z</time>
  <course>265.25</course>
  <speed>26.014553619080225</speed>
  <fix>3d</fix>
</trkpt>
<trkpt lat="-27.272411" lon="151.2889884">
  <ele>370.12</ele>
  <time>2026-09-01T19:57:39Z</time>
  <course>264.78</course>
  <speed>26.05</speed>
  <fix>3d</fix>
</trkpt>
<trkpt lat="-27.2724189" lon="151.2888883">
  <ele>370.09</ele>
  <time>2026-09-01T19:57:39Z</time>
  <course>265.35</course>
  <speed>25.982001462550958</speed>
  <fix>3d</fix>
</trkpt>
<trkpt lat="-27.2724152" lon="151.288936">
  <ele>370.24</ele>
  <time>2026-09-01T19:57:39Z</time>
  <course>264.91</course>
  <speed>25.99</speed>
  <fix>3d</fix>
</trkpt>
<trkpt lat="-27.272421" lon="151.2888622">
  <ele>370.15</ele>
  <time>2026-09-01T19:57:39Z</time>
  <course>265.41</course>
  <speed>25.959439516291564</speed>
  <fix>3d</fix>
</trkpt>
<trkpt lat="-27.2724152" lon="151.288936">
  <ele>370.24</ele>
  <time>2026-09-01T19:57:39Z</time>
  <course>264.91</course>
  <speed>25.99</speed>
  <fix>3d</fix>
</trkpt>
<trkpt lat="-27.272423" lon="151.2888361">
  <ele>370.21</ele>
  <time>2026-09-01T19:57:39Z</time>
  <course>265.43</course>
  <speed>25.936908065534723</speed>
  <fix>3d</fix>
</trkpt>
<trkpt lat="-27.2724192" lon="151.2888838">
  <ele>370.35</ele>
  <time>2026-09-01T19:57:39Z</time>
  <course>265.05</course>
  <speed>25.93</speed>
  <fix>3d</fix>
</trkpt>
<trkpt lat="-27.272425" lon="151.28881">
  <ele>370.27</ele>
  <time>2026-09-01T19:57:39Z</time>
  <course>265.52</course>
  <speed>25.914407189823965</speed>
  <fix>3d</fix>
</trkpt>
<trkpt lat="-27.2724192" lon="151.2888838">
  <ele>370.35</ele>
  <time>2026-09-01T19:57:39Z</time>
  <course>265.05</course>
  <speed>25.93</speed>
  <fix>3d</fix>
</trkpt>
<trkpt lat="-27.2724269" lon="151.2887836">
  <ele>370.32</ele>
  <time>2026-09-01T19:57:39Z</time>
  <course>265.59</course>
  <speed>25.891936968871217</speed>
  <fix>3d</fix>
</trkpt>
<trkpt lat="-27.2724232" lon="151.2888316">
  <ele>370.46</ele>
  <time>2026-09-01T19:57:39Z</time>
  <course>265.19</course>
  <speed>25.87</speed>
  <fix>3d</fix>
</trkpt>
<trkpt lat="-27.2724289" lon="151.2887576">
  <ele>370.38</ele>
  <time>2026-09-01T19:57:39Z</time>
  <course>265.65</course>
  <speed>25.869497482556557</speed>
  <fix>3d</fix>
</trkpt>
<trkpt lat="-27.2724232" lon="151.2888316">
  <ele>370.46</ele>
  <time>2026-09-01T19:57:39Z</time>
  <course>265.19</course>
  <speed>25.87</speed>
  <fix>3d</fix>
</trkpt>
<trkpt lat="-27.2724307" lon="151.2887315">
  <ele>370.43</ele>
  <time>2026-09-01T19:57:39Z</time>
  <course>265.7</course>
  <speed>25.847088810928014</speed>
  <fix>3d</fix>
</trkpt>
<trkpt lat="-27.2724271" lon="151.2887796">
  <ele>370.57</ele>
  <time>2026-09-01T19:57:39Z</time>
  <course>265.33</course>
  <speed>25.82</speed>
  <fix>3d</fix>
</trkpt>
<trkpt lat="-27.2724326" lon="151.2887055">
  <ele>370.48</ele>
  <time>2026-09-01T19:57:39Z</time>
  <course>265.8</course>
  <speed>25.83467824456113</speed>
  <fix>3d</fix>
</trkpt>
<trkpt lat="-27.2724271" lon="151.2887796">
  <ele>370.57</ele>
  <time>2026-09-01T19:57:39Z</time>
  <course>265.33</course>
  <speed>25.82</speed>
  <fix>3d</fix>
</trkpt>
<trkpt lat="-27.2724344" lon="151.2886794">
  <ele>370.53</ele>
  <time>2026-09-01T19:57:39Z</time>
  <course>265.94</course>
  <speed>25.811536180553066</speed>
  <fix>3d</fix>
</trkpt>
<trkpt lat="-27.2724308" lon="151.2887275">
  <ele>370.66</ele>
  <time>2026-09-01T19:57:39Z</time>
  <course>265.46</course>
  <speed>25.78</speed>
  <fix>3d</fix>
</trkpt>
<trkpt lat="-27.2724362" lon="151.2886534">
  <ele>370.57</ele>
  <time>2026-09-01T19:57:39Z</time>
  <course>266.04</course>
  <speed>25.7892322491384</speed>
  <fix>3d</fix>
</trkpt>
<trkpt lat="-27.2724308" lon="151.2887275">
  <ele>370.66</ele>
  <time>2026-09-01T19:57:39Z</time>
  <course>265.46</course>
  <speed>25.78</speed>
  <fix>3d</fix>
</trkpt>
<trkpt lat="-27.272438" lon="151.2886276">
  <ele>370.62</ele>
  <time>2026-09-01T19:57:39Z</time>
  <course>266.07</course>
  <speed>25.766959463623174</speed>
  <fix>3d</fix>
</trkpt>
<trkpt lat="-27.2724344" lon="151.2886755">
  <ele>370.76</ele>
  <time>2026-09-01T19:57:39Z</time>
  <course>265.61</course>
  <speed>25.73</speed>
  <fix>3d</fix>
</trkpt>
<trkpt lat="-27.2724397" lon="151.2886018">
  <ele>370.67</ele>
  <time>2026-09-01T19:57:39Z</time>
  <course>266.05</course>
  <speed>25.74471790484409</speed>
  <fix>3d</fix>
</trkpt>
<trkpt lat="-27.2724344" lon="151.2886755">
  <ele>370.76</ele>
  <time>2026-09-01T19:57:39Z</time>
  <course>265.61</course>
  <speed>25.73</speed>
  <fix>3d</fix>
</trkpt>
<trkpt lat="-27.2724414" lon="151.2885761">
  <ele>370.71</ele>
  <time>2026-09-01T19:57:39Z</time>
  <course>266.12</course>
  <speed>25.713288393358017</speed>
  <fix>3d</fix>
</trkpt>
<trkpt lat="-27.2724379" lon="151.2886236">
  <ele>370.85</ele>
  <time>2026-09-01T19:57:39Z</time>
  <course>265.75</course>
  <speed>25.69</speed>
  <fix>3d</fix>
</trkpt>
<trkpt lat="-27.2724431" lon="151.2885503">
  <ele>370.75</ele>
  <time>2026-09-01T19:57:39Z</time>
  <course>266.24</course>
  <speed>25.691097679935748</speed>
  <fix>3d</fix>
</trkpt>
<trkpt lat="-27.2724379" lon="151.2886236">
  <ele>370.85</ele>
  <time>2026-09-01T19:57:39Z</time>
  <course>265.75</course>
  <speed>25.69</speed>
  <fix>3d</fix>
</trkpt>
<trkpt lat="-27.2724447" lon="151.2885247">
  <ele>370.79</ele>
  <time>2026-09-01T19:57:39Z</time>
  <course>266.29</course>
  <speed>25.65969992030304</speed>
  <fix>3d</fix>
</trkpt>
<trkpt lat="-27.2724412" lon="151.2885719">
  <ele>370.94</ele>
  <time>2026-09-01T19:57:39Z</time>
  <course>265.88</course>
  <speed>25.65</speed>
  <fix>3d</fix>
</trkpt>
<trkpt lat="-27.2724464" lon="151.2884989">
  <ele>370.82</ele>
  <time>2026-09-01T19:57:39Z</time>
  <course>266.28</course>
  <speed>25.638287774342498</speed>
  <fix>3d</fix>
</trkpt>
<trkpt lat="-27.2724412" lon="151.2885719">
  <ele>370.94</ele>
  <time>2026-09-01T19:57:39Z</time>
  <course>265.88</course>
  <speed>25.65</speed>
  <fix>3d</fix>
</trkpt>
<trkpt lat="-27.272448" lon="151.2884733">
  <ele>370.86</ele>
  <time>2026-09-01T19:57:39Z</time>
  <course>266.33</course>
  <speed>25.626862859117185</speed>
  <fix>3d</fix>
</trkpt>
<trkpt lat="-27.2724445" lon="151.2885202">
  <ele>371.01</ele>
  <time>2026-09-01T19:57:39Z</time>
  <course>265.98</course>
  <speed>25.61</speed>
  <fix>3d</fix>
</trkpt>
<trkpt lat="-27.2724496" lon="151.2884476">
  <ele>370.89</ele>
  <time>2026-09-01T19:57:39Z</time>
  <course>266.42</course>
  <speed>25.605477929536875</speed>
  <fix>3d</fix>
</trkpt>
<trkpt lat="-27.2724445" lon="151.2885202">
  <ele>371.01</ele>
  <time>2026-09-01T19:57:39Z</time>
  <course>265.98</course>
  <speed>25.61</speed>
  <fix>3d</fix>
</trkpt>
<trkpt lat="-27.2724511" lon="151.2884218">
  <ele>370.91</ele>
  <time>2026-09-01T19:57:39Z</time>
  <course>266.49</course>
  <speed>25.594790485565614</speed>
  <fix>3d</fix>
</trkpt>
<trkpt lat="-27.2724477" lon="151.2884687">
  <ele>371.08</ele>
  <time>2026-09-01T19:57:39Z</time>
  <course>266.07</course>
  <speed>25.58</speed>
  <fix>3d</fix>
</trkpt>
<trkpt lat="-27.2724527" lon="151.288396">
  <ele>370.94</ele>
  <time>2026-09-01T19:57:39Z</time>
  <course>266.55</course>
  <speed>25.583400868531925</speed>
  <fix>3d</fix>
</trkpt>
<trkpt lat="-27.2724477" lon="151.2884687">
  <ele>371.08</ele>
  <time>2026-09-01T19:57:39Z</time>
  <course>266.07</course>
  <speed>25.58</speed>
  <fix>3d</fix>
</trkpt>
<trkpt lat="-27.2724542" lon="151.2883701">
  <ele>370.97</ele>
  <time>2026-09-01T19:57:39Z</time>
  <course>266.6</course>
  <speed>25.58200148541939</speed>
  <fix>3d</fix>
</trkpt>
<trkpt lat="-27.2724508" lon="151.2884171">
  <ele>371.14</ele>
  <time>2026-09-01T19:57:39Z</time>
  <course>266.14</course>
  <speed>25.55</speed>
  <fix>3d</fix>
</trkpt>
<trkpt lat="-27.2724558" lon="151.2883443">
  <ele>371.0</ele>
  <time>2026-09-01T19:57:39Z</time>
  <course>266.63</course>
  <speed>25.580617662597593</speed>
  <fix>3d</fix>
</trkpt>
<trkpt lat="-27.2724508" lon="151.2884171">
  <ele>371.14</ele>
  <time>2026-09-01T19:57:39Z</time>
  <course>266.14</course>
  <speed>25.55</speed>
  <fix>3d</fix>
</trkpt>
<trkpt lat="-27.2724573" lon="151.2883184">
  <ele>371.04</ele>
  <time>2026-09-01T19:57:39Z</time>
  <course>266.63</course>
  <speed>25.569272574713576</speed>
  <fix>3d</fix>
</trkpt>
<trkpt lat="-27.2724539" lon="151.2883656">
  <ele>371.19</ele>
  <time>2026-09-01T19:57:39Z</time>
  <course>266.22</course>
  <speed>25.53</speed>
  <fix>3d</fix>
</trkpt>
<trkpt lat="-27.2724588" lon="151.2882925">
  <ele>371.06</ele>
  <time>2026-09-01T19:57:39Z</time>
  <course>266.66</course>
  <speed>25.568594016879377</speed>
  <fix>3d</fix>
</trkpt>
<trkpt lat="-27.2724539" lon="151.2883656">
  <ele>371.19</ele>
  <time>2026-09-01T19:57:39Z</time>
  <course>266.22</course>
  <speed>25.53</speed>
  <fix>3d</fix>
</trkpt>
<trkpt lat="-27.2724602" lon="151.2882666">
  <ele>371.09</ele>
  <time>2026-09-01T19:57:39Z</time>
  <course>266.71</course>
  <speed>25.566581703465953</speed>
  <fix>3d</fix>
</trkpt>
<trkpt lat="-27.2724569" lon="151.2883142">
  <ele>371.25</ele>
  <time>2026-09-01T19:57:39Z</time>
  <course>266.3</course>
  <speed>25.51</speed>
  <fix>3d</fix>
</trkpt>
<trkpt lat="-27.2724617" lon="151.2882405">
  <ele>371.12</ele>
  <time>2026-09-01T19:57:39Z</time>
  <course>266.75</course>
  <speed>25.555281254566538</speed>
  <fix>3d</fix>
</trkpt>
<trkpt lat="-27.2724569" lon="151.2883142">
  <ele>371.25</ele>
  <time>2026-09-01T19:57:39Z</time>
  <course>266.3</course>
  <speed>25.51</speed>
  <fix>3d</fix>
</trkpt>
<trkpt lat="-27.2724631" lon="151.2882148">
  <ele>371.14</ele>
  <time>2026-09-01T19:57:39Z</time>
  <course>266.77</course>
  <speed>25.553974250593587</speed>
  <fix>3d</fix>
</trkpt>
<trkpt lat="-27.2724598" lon="151.2882627">
  <ele>371.3</ele>
  <time>2026-09-01T19:57:39Z</time>
  <course>266.38</course>
  <speed>25.49</speed>
  <fix>3d</fix>
</trkpt>
<trkpt lat="-27.2724645" lon="151.2881891">
  <ele>371.17</ele>
  <time>2026-09-01T19:57:39Z</time>
  <course>266.76</course>
  <speed>25.54334747052547</speed>
  <fix>3d</fix>
</trkpt>
<trkpt lat="-27.2724598" lon="151.2882627">
  <ele>371.3</ele>
  <time>2026-09-01T19:57:39Z</time>
  <course>266.38</course>
  <speed>25.49</speed>
  <fix>3d</fix>
</trkpt>
<trkpt lat="-27.2724659" lon="151.2881634">
  <ele>371.19</ele>
  <time>2026-09-01T19:57:39Z</time>
  <course>266.81</course>
  <speed>25.5327241006517</speed>
  <fix>3d</fix>
</trkpt>
<trkpt lat="-27.2724626" lon="151.2882114">
  <ele>371.34</ele>
  <time>2026-09-01T19:57:39Z</time>
  <course>266.46</course>
  <speed>25.47</speed>
  <fix>3d</fix>
</trkpt>
<trkpt lat="-27.2724673" lon="151.2881377">
  <ele>371.21</ele>
  <time>2026-09-01T19:57:39Z</time>
  <course>266.89</course>
  <speed>25.52210414523066</speed>
  <fix>3d</fix>
</trkpt>
<trkpt lat="-27.2724626" lon="151.2882114">
  <ele>371.34</ele>
  <time>2026-09-01T19:57:39Z</time>
  <course>266.46</course>
  <speed>25.47</speed>
  <fix>3d</fix>
</trkpt>
<trkpt lat="-27.2724687" lon="151.2881121">
  <ele>371.23</ele>
  <time>2026-09-01T19:57:39Z</time>
  <course>266.88</course>
  <speed>25.500874494808997</speed>
  <fix>3d</fix>
</trkpt>
<trkpt lat="-27.2724654" lon="151.2881598">
  <ele>371.39</ele>
  <time>2026-09-01T19:57:39Z</time>
  <course>266.52</course>
  <speed>25.45</speed>
  <fix>3d</fix>
</trkpt>
<trkpt lat="-27.2724701" lon="151.2880864">
  <ele>371.25</ele>
  <time>2026-09-01T19:57:39Z</time>
  <course>266.89</course>
  <speed>25.500874494808997</speed>
  <fix>3d</fix>
</trkpt>
<trkpt lat="-27.2724654" lon="151.2881598">
  <ele>371.39</ele>
  <time>2026-09-01T19:57:39Z</time>
  <course>266.52</course>
  <speed>25.45</speed>
  <fix>3d</fix>
</trkpt>
<trkpt lat="-27.2724714" lon="151.2880608">
  <ele>371.27</ele>
  <time>2026-09-01T19:57:39Z</time>
  <course>266.93</course>
  <speed>25.490264808353796</speed>
  <fix>3d</fix>
</trkpt>
<trkpt lat="-27.2724682" lon="151.2881084">
  <ele>371.43</ele>
  <time>2026-09-01T19:57:39Z</time>
  <course>266.56</course>
  <speed>25.43</speed>
  <fix>3d</fix>
</trkpt>
<trkpt lat="-27.2724728" lon="151.2880351">
  <ele>371.29</ele>
  <time>2026-09-01T19:57:39Z</time>
  <course>266.91</course>
  <speed>25.479658553442196</speed>
  <fix>3d</fix>
</trkpt>
<trkpt lat="-27.2724682" lon="151.2881084">
  <ele>371.43</ele>
  <time>2026-09-01T19:57:39Z</time>
  <course>266.56</course>
  <speed>25.43</speed>
  <fix>3d</fix>
</trkpt>
<trkpt lat="-27.2724741" lon="151.2880095">
  <ele>371.31</ele>
  <time>2026-09-01T19:57:39Z</time>
  <course>266.93</course>
  <speed>25.469055734361255</speed>
  <fix>3d</fix>
</trkpt>
<trkpt lat="-27.2724709" lon="151.2880571">
  <ele>371.47</ele>
  <time>2026-09-01T19:57:39Z</time>
  <course>266.6</course>
  <speed>25.42</speed>
  <fix>3d</fix>
</trkpt>
<trkpt lat="-27.2724755" lon="151.2879839">
  <ele>371.33</ele>
  <time>2026-09-01T19:57:39Z</time>
  <course>266.92</course>
  <speed>25.458456355403797</speed>
  <fix>3d</fix>
</trkpt>
<trkpt lat="-27.2724709" lon="151.2880571">
  <ele>371.47</ele>
  <time>2026-09-01T19:57:39Z</time>
  <course>266.6</course>
  <speed>25.42</speed>
  <fix>3d</fix>
</trkpt>
<trkpt lat="-27.2724768" lon="151.2879583">
  <ele>371.35</ele>
  <time>2026-09-01T19:57:39Z</time>
  <course>266.93</course>
  <speed>25.458456355403797</speed>
  <fix>3d</fix>
</trkpt>
<trkpt lat="-27.2724736" lon="151.2880059">
  <ele>371.52</ele>
  <time>2026-09-01T19:57:39Z</time>
  <course>266.62</course>
  <speed>25.4</speed>
  <fix>3d</fix>
</trkpt>
<trkpt lat="-27.2724781" lon="151.2879327">
  <ele>371.37</ele>
  <time>2026-09-01T19:57:39Z</time>
  <course>266.91</course>
  <speed>25.458456355403797</speed>
  <fix>3d</fix>
</trkpt>
<trkpt lat="-27.2724736" lon="151.2880059">
  <ele>371.52</ele>
  <time>2026-09-01T19:57:39Z</time>
  <course>266.62</course>
  <speed>25.4</speed>
  <fix>3d</fix>
</trkpt>
<trkpt lat="-27.2724795" lon="151.2879071">
  <ele>371.39</ele>
  <time>2026-09-01T19:57:39Z</time>
  <course>266.97</course>
  <speed>25.458456355403797</speed>
  <fix>3d</fix>
</trkpt>
<trkpt lat="-27.2724763" lon="151.2879547">
  <ele>371.55</ele>
  <time>2026-09-01T19:57:39Z</time>
  <course>266.63</course>
  <speed>25.39</speed>
  <fix>3d</fix>
</trkpt>
<trkpt lat="-27.2724808" lon="151.2878815">
  <ele>371.4</ele>
  <time>2026-09-01T19:57:39Z</time>
  <course>266.99</course>
  <speed>25.44786042086839</speed>
  <fix>3d</fix>
</trkpt>
<trkpt lat="-27.2724763" lon="151.2879547">
  <ele>371.55</ele>
  <time>2026-09-01T19:57:39Z</time>
  <course>266.63</course>
  <speed>25.39</speed>
  <fix>3d</fix>
</trkpt>
<trkpt lat="-27.2724821" lon="151.2878559">
  <ele>371.42</ele>
  <time>2026-09-01T19:57:39Z</time>
  <course>266.99</course>
  <speed>25.447249360196082</speed>
  <fix>3d</fix>
</trkpt>
<trkpt lat="-27.2724789" lon="151.2879034">
  <ele>371.58</ele>
  <time>2026-09-01T19:57:39Z</time>
  <course>266.63</course>
  <speed>25.39</speed>
  <fix>3d</fix>
</trkpt>
<trkpt lat="-27.2724834" lon="151.2878303">
  <ele>371.43</ele>
  <time>2026-09-01T19:57:39Z</time>
  <course>267.0</course>
  <speed>25.447249360196082</speed>
  <fix>3d</fix>
</trkpt>
<trkpt lat="-27.2724789" lon="151.2879034">
  <ele>371.58</ele>
  <time>2026-09-01T19:57:39Z</time>
  <course>266.63</course>
  <speed>25.39</speed>
  <fix>3d</fix>
</trkpt>
<trkpt lat="-27.2724847" lon="151.2878047">
  <ele>371.44</ele>
  <time>2026-09-01T19:57:39Z</time>
  <course>267.01</course>
  <speed>25.436660551259475</speed>
  <fix>3d</fix>
</trkpt>
<trkpt lat="-27.2724816" lon="151.2878522">
  <ele>371.61</ele>
  <time>2026-09-01T19:57:39Z</time>
  <course>266.64</course>
  <speed>25.39</speed>
  <fix>3d</fix>
</trkpt>
<trkpt lat="-27.272486" lon="151.2877791">
  <ele>371.45</ele>
  <time>2026-09-01T19:57:39Z</time>
  <course>266.99</course>
  <speed>25.436660551259475</speed>
  <fix>3d</fix>
</trkpt>
<trkpt lat="-27.2724816" lon="151.2878522">
  <ele>371.61</ele>
  <time>2026-09-01T19:57:39Z</time>
  <course>266.64</course>
  <speed>25.39</speed>
  <fix>3d</fix>
</trkpt>
<trkpt lat="-27.2724874" lon="151.2877535">
  <ele>371.46</ele>
  <time>2026-09-01T19:57:39Z</time>
  <course>266.99</course>
  <speed>25.436660551259475</speed>
  <fix>3d</fix>
</trkpt>
<trkpt lat="-27.2724843" lon="151.287801">
  <ele>371.64</ele>
  <time>2026-09-01T19:57:39Z</time>
  <course>266.65</course>
  <speed>25.38</speed>
  <fix>3d</fix>
</trkpt>
<trkpt lat="-27.2724887" lon="151.2877279">
  <ele>371.47</ele>
  <time>2026-09-01T19:57:39Z</time>
  <course>267.0</course>
  <speed>25.436057084383183</speed>
  <fix>3d</fix>
</trkpt>
<trkpt lat="-27.2724843" lon="151.287801">
  <ele>371.64</ele>
  <time>2026-09-01T19:57:39Z</time>
  <course>266.65</course>
  <speed>25.38</speed>
  <fix>3d</fix>
</trkpt>
<trkpt lat="-27.27249" lon="151.2877025">
  <ele>371.48</ele>
  <time>2026-09-01T19:57:39Z</time>
  <course>266.99</course>
  <speed>25.436057084383183</speed>
  <fix>3d</fix>
</trkpt>
<trkpt lat="-27.2724869" lon="151.2877497">
  <ele>371.66</ele>
  <time>2026-09-01T19:57:39Z</time>
  <course>266.65</course>
  <speed>25.38</speed>
  <fix>3d</fix>
</trkpt>
<trkpt lat="-27.2724913" lon="151.2876769">
  <ele>371.49</ele>
  <time>2026-09-01T19:57:39Z</time>
  <course>267.01</course>
  <speed>25.436057084383183</speed>
  <fix>3d</fix>
</trkpt>
<trkpt lat="-27.2724869" lon="151.2877497">
  <ele>371.66</ele>
  <time>2026-09-01T19:57:39Z</time>
  <course>266.65</course>
  <speed>25.38</speed>
  <fix>3d</fix>
</trkpt>
<trkpt lat="-27.2724926" lon="151.2876513">
  <ele>371.5</ele>
  <time>2026-09-01T19:57:39Z</time>
  <course>267.0</course>
  <speed>25.436057084383183</speed>
  <fix>3d</fix>
</trkpt>
<trkpt lat="-27.2724896" lon="151.2876986">
  <ele>371.69</ele>
  <time>2026-09-01T19:57:39Z</time>
  <course>266.65</course>
  <speed>25.38</speed>
  <fix>3d</fix>
</trkpt>
<trkpt lat="-27.2724939" lon="151.2876257">
  <ele>371.5</ele>
  <time>2026-09-01T19:57:39Z</time>
  <course>266.98</course>
  <speed>25.436057084383183</speed>
  <fix>3d</fix>
</trkpt>
<trkpt lat="-27.2724896" lon="151.2876986">
  <ele>371.69</ele>
  <time>2026-09-01T19:57:39Z</time>
  <course>266.65</course>
  <speed>25.38</speed>
  <fix>3d</fix>
</trkpt>
<trkpt lat="-27.2724952" lon="151.2875999">
  <ele>371.51</ele>
  <time>2026-09-01T19:57:39Z</time>
  <course>266.95</course>
  <speed>25.426075198504392</speed>
  <fix>3d</fix>
</trkpt>
<trkpt lat="-27.2724922" lon="151.2876473">
  <ele>371.71</ele>
  <time>2026-09-01T19:57:39Z</time>
  <course>266.65</course>
  <speed>25.38</speed>
  <fix>3d</fix>
</trkpt>
<trkpt lat="-27.2724965" lon="151.2875741">
  <ele>371.52</ele>
  <time>2026-09-01T19:57:39Z</time>
  <course>266.96</course>
  <speed>25.426075198504392</speed>
  <fix>3d</fix>
</trkpt>
<trkpt lat="-27.2724922" lon="151.2876473">
  <ele>371.71</ele>
  <time>2026-09-01T19:57:39Z</time>
  <course>266.65</course>
  <speed>25.38</speed>
  <fix>3d</fix>
</trkpt>
<trkpt lat="-27.2724978" lon="151.2875485">
  <ele>371.53</ele>
  <time>2026-09-01T19:57:39Z</time>
  <course>266.97</course>
  <speed>25.425475413450975</speed>
  <fix>3d</fix>
</trkpt>
<trkpt lat="-27.2724949" lon="151.287596">
  <ele>371.72</ele>
  <time>2026-09-01T19:57:39Z</time>
  <course>266.64</course>
  <speed>25.38</speed>
  <fix>3d</fix>
</trkpt>
<trkpt lat="-27.2724992" lon="151.2875229">
  <ele>371.54</ele>
  <time>2026-09-01T19:57:39Z</time>
  <course>266.97</course>
  <speed>25.425475413450975</speed>
  <fix>3d</fix>
</trkpt>
<trkpt lat="-27.2724949" lon="151.287596">
  <ele>371.72</ele>
  <time>2026-09-01T19:57:39Z</time>
  <course>266.64</course>
  <speed>25.38</speed>
  <fix>3d</fix>
</trkpt>
<trkpt lat="-27.2725005" lon="151.2874973">
  <ele>371.55</ele>
  <time>2026-09-01T19:57:39Z</time>
  <course>266.94</course>
  <speed>25.425475413450975</speed>
  <fix>3d</fix>
</trkpt>
<trkpt lat="-27.2724976" lon="151.2875447">
  <ele>371.75</ele>
  <time>2026-09-01T19:57:39Z</time>
  <course>266.64</course>
  <speed>25.38</speed>
  <fix>3d</fix>
</trkpt>
<trkpt lat="-27.2725018" lon="151.2874717">
  <ele>371.56</ele>
  <time>2026-09-01T19:57:39Z</time>
  <course>266.93</course>
  <speed>25.425475413450975</speed>
  <fix>3d</fix>
</trkpt>
<trkpt lat="-27.2724976" lon="151.2875447">
  <ele>371.75</ele>
  <time>2026-09-01T19:57:39Z</time>
  <course>266.64</course>
  <speed>25.38</speed>
  <fix>3d</fix>
</trkpt>
<trkpt lat="-27.2725031" lon="151.2874461">
  <ele>371.57</ele>
  <time>2026-09-01T19:57:39Z</time>
  <course>266.92</course>
  <speed>25.424879547403958</speed>
  <fix>3d</fix>
</trkpt>
<trkpt lat="-27.2725003" lon="151.2874936">
  <ele>371.77</ele>
  <time>2026-09-01T19:57:39Z</time>
  <course>266.63</course>
  <speed>25.38</speed>
  <fix>3d</fix>
</trkpt>
<trkpt lat="-27.2725044" lon="151.2874205">
  <ele>371.58</ele>
  <time>2026-09-01T19:57:39Z</time>
  <course>266.94</course>
  <speed>25.424879547403958</speed>
  <fix>3d</fix>
</trkpt>
<trkpt lat="-27.2725003" lon="151.2874936">
  <ele>371.77</ele>
  <time>2026-09-01T19:57:39Z</time>
  <course>266.63</course>
  <speed>25.38</speed>
  <fix>3d</fix>
</trkpt>
<trkpt lat="-27.2725057" lon="151.2873949">
  <ele>371.59</ele>
  <time>2026-09-01T19:57:39Z</time>
  <course>266.95</course>
  <speed>25.424879547403958</speed>
  <fix>3d</fix>
</trkpt>
<trkpt lat="-27.2725029" lon="151.2874423">
  <ele>371.8</ele>
  <time>2026-09-01T19:57:39Z</time>
  <course>266.63</course>
  <speed>25.39</speed>
  <fix>3d</fix>
</trkpt>
<trkpt lat="-27.2725071" lon="151.2873693">
  <ele>371.6</ele>
  <time>2026-09-01T19:57:39Z</time>
  <course>266.9</course>
  <speed>25.424879547403958</speed>
  <fix>3d</fix>
</trkpt>
<trkpt lat="-27.2725029" lon="151.2874423">
  <ele>371.8</ele>
  <time>2026-09-01T19:57:39Z</time>
  <course>266.63</course>
  <speed>25.39</speed>
  <fix>3d</fix>
</trkpt>
<trkpt lat="-27.2725084" lon="151.2873437">
  <ele>371.61</ele>
  <time>2026-09-01T19:57:39Z</time>
  <course>266.87</course>
  <speed>25.424879547403958</speed>
  <fix>3d</fix>
</trkpt>
<trkpt lat="-27.2725056" lon="151.2873911">
  <ele>371.82</ele>
  <time>2026-09-01T19:57:39Z</time>
  <course>266.63</course>
  <speed>25.39</speed>
  <fix>3d</fix>
</trkpt>
<trkpt lat="-27.2725097" lon="151.2873181">
  <ele>371.62</ele>
  <time>2026-09-01T19:57:39Z</time>
  <course>266.89</course>
  <speed>25.424879547403958</speed>
  <fix>3d</fix>
</trkpt>
<trkpt lat="-27.2725056" lon="151.2873911">
  <ele>371.82</ele>
  <time>2026-09-01T19:57:39Z</time>
  <course>266.63</course>
  <speed>25.39</speed>
  <fix>3d</fix>
</trkpt>
<trkpt lat="-27.272511" lon="151.2872925">
  <ele>371.64</ele>
  <time>2026-09-01T19:57:39Z</time>
  <course>266.96</course>
  <speed>25.424879547403958</speed>
  <fix>3d</fix>
</trkpt>
<trkpt lat="-27.2725083" lon="151.2873399">
  <ele>371.84</ele>
  <time>2026-09-01T19:57:39Z</time>
  <course>266.63</course>
  <speed>25.39</speed>
  <fix>3d</fix>
</trkpt>
<trkpt lat="-27.2725123" lon="151.2872669">
  <ele>371.65</ele>
  <time>2026-09-01T19:57:39Z</time>
  <course>266.98</course>
  <speed>25.424879547403958</speed>
  <fix>3d</fix>
</trkpt>
<trkpt lat="-27.2725083" lon="151.2873399">
  <ele>371.84</ele>
  <time>2026-09-01T19:57:39Z</time>
  <course>266.63</course>
  <speed>25.39</speed>
  <fix>3d</fix>
</trkpt>
<trkpt lat="-27.2725137" lon="151.2872413">
  <ele>371.66</ele>
  <time>2026-09-01T19:57:39Z</time>
  <course>266.93</course>
  <speed>25.42428760063888</speed>
  <fix>3d</fix>
</trkpt>
<trkpt lat="-27.272511" lon="151.2872886">
  <ele>371.86</ele>
  <time>2026-09-01T19:57:39Z</time>
  <course>266.62</course>
  <speed>25.39</speed>
  <fix>3d</fix>
</trkpt>
<trkpt lat="-27.272515" lon="151.2872157">
  <ele>371.67</ele>
  <time>2026-09-01T19:57:39Z</time>
  <course>266.89</course>
  <speed>25.42428760063888</speed>
  <fix>3d</fix>
</trkpt>
<trkpt lat="-27.272511" lon="151.2872886">
  <ele>371.86</ele>
  <time>2026-09-01T19:57:39Z</time>
  <course>266.62</course>
  <speed>25.39</speed>
  <fix>3d</fix>
</trkpt>
<trkpt lat="-27.2725163" lon="151.2871903">
  <ele>371.68</ele>
  <time>2026-09-01T19:57:39Z</time>
  <course>266.85</course>
  <speed>25.42428760063888</speed>
  <fix>3d</fix>
</trkpt>
<trkpt lat="-27.2725136" lon="151.2872375">
  <ele>371.89</ele>
  <time>2026-09-01T19:57:39Z</time>
  <course>266.62</course>
  <speed>25.39</speed>
  <fix>3d</fix>
</trkpt>
<trkpt lat="-27.2725176" lon="151.2871647">
  <ele>371.69</ele>
  <time>2026-09-01T19:57:39Z</time>
  <course>266.89</course>
  <speed>25.423699573429513</speed>
  <fix>3d</fix>
</trkpt>
<trkpt lat="-27.2725136" lon="151.2872375">
  <ele>371.89</ele>
  <time>2026-09-01T19:57:39Z</time>
  <course>266.62</course>
  <speed>25.39</speed>
  <fix>3d</fix>
</trkpt>
<trkpt lat="-27.2725189" lon="151.2871391">
  <ele>371.69</ele>
  <time>2026-09-01T19:57:39Z</time>
  <course>266.9</course>
  <speed>25.423699573429513</speed>
  <fix>3d</fix>
</trkpt>
<trkpt lat="-27.2725163" lon="151.2871862">
  <ele>371.91</ele>
  <time>2026-09-01T19:57:39Z</time>
  <course>266.63</course>
  <speed>25.39</speed>
  <fix>3d</fix>
</trkpt>
<trkpt lat="-27.2725203" lon="151.2871135">
  <ele>371.7</ele>
  <time>2026-09-01T19:57:39Z</time>
  <course>266.87</course>
  <speed>25.423699573429513</speed>
  <fix>3d</fix>
</trkpt>
<trkpt lat="-27.2725163" lon="151.2871862">
  <ele>371.91</ele>
  <time>2026-09-01T19:57:39Z</time>
  <course>266.63</course>
  <speed>25.39</speed>
  <fix>3d</fix>
</trkpt>
<trkpt lat="-27.2725216" lon="151.2870879">
  <ele>371.72</ele>
  <time>2026-09-01T19:57:39Z</time>
  <course>266.84</course>
  <speed>25.423699573429513</speed>
  <fix>3d</fix>
</trkpt>
<trkpt lat="-27.272519" lon="151.2871349">
  <ele>371.93</ele>
  <time>2026-09-01T19:57:39Z</time>
  <course>266.62</course>
  <speed>25.4</speed>
  <fix>3d</fix>
</trkpt>
<trkpt lat="-27.2725229" lon="151.2870621">
  <ele>371.73</ele>
  <time>2026-09-01T19:57:39Z</time>
  <course>266.88</course>
  <speed>25.423699573429513</speed>
  <fix>3d</fix>
</trkpt>
<trkpt lat="-27.272519" lon="151.2871349">
  <ele>371.93</ele>
  <time>2026-09-01T19:57:39Z</time>
  <course>266.62</course>
  <speed>25.4</speed>
  <fix>3d</fix>
</trkpt>
<trkpt lat="-27.2725242" lon="151.2870365">
  <ele>371.74</ele>
  <time>2026-09-01T19:57:39Z</time>
  <course>266.84</course>
  <speed>25.423699573429513</speed>
  <fix>3d</fix>
</trkpt>
<trkpt lat="-27.2725217" lon="151.2870836">
  <ele>371.95</ele>
  <time>2026-09-01T19:57:39Z</time>
  <course>266.63</course>
  <speed>25.4</speed>
  <fix>3d</fix>
</trkpt>
<trkpt lat="-27.2725256" lon="151.2870109">
  <ele>371.76</ele>
  <time>2026-09-01T19:57:39Z</time>
  <course>266.83</course>
  <speed>25.423699573429513</speed>
  <fix>3d</fix>
</trkpt>
<trkpt lat="-27.2725217" lon="151.2870836">
  <ele>371.95</ele>
  <time>2026-09-01T19:57:39Z</time>
  <course>266.63</course>
  <speed>25.4</speed>
  <fix>3d</fix>
</trkpt>
<trkpt lat="-27.2725269" lon="151.2869844">
  <ele>371.77</ele>
  <time>2026-09-01T19:57:39Z</time>
  <course>266.8</course>
  <speed>25.423699573429513</speed>
  <fix>3d</fix>
</trkpt>
<trkpt lat="-27.2725244" lon="151.2870323">
  <ele>371.97</ele>
  <time>2026-09-01T19:57:39Z</time>
  <course>266.62</course>
  <speed>25.4</speed>
  <fix>3d</fix>
</trkpt>
<trkpt lat="-27.2725283" lon="151.286959">
  <ele>371.78</ele>
  <time>2026-09-01T19:57:39Z</time>
  <course>266.79</course>
  <speed>25.42428760063888</speed>
  <fix>3d</fix>
</trkpt>
<trkpt lat="-27.2725244" lon="151.2870323">
  <ele>371.97</ele>
  <time>2026-09-01T19:57:39Z</time>
  <course>266.62</course>
  <speed>25.4</speed>
  <fix>3d</fix>
</trkpt>
<trkpt lat="-27.2725296" lon="151.2869334">
  <ele>371.79</ele>
  <time>2026-09-01T19:57:39Z</time>
  <course>266.82</course>
  <speed>25.424879547403958</speed>
  <fix>3d</fix>
</trkpt>
<trkpt lat="-27.2725271" lon="151.2869811">
  <ele>372.0</ele>
  <time>2026-09-01T19:57:39Z</time>
  <course>266.61</course>
  <speed>25.4</speed>
  <fix>3d</fix>
</trkpt>
<trkpt lat="-27.272531" lon="151.2869077">
  <ele>371.8</ele>
  <time>2026-09-01T19:57:39Z</time>
  <course>266.87</course>
  <speed>25.424879547403958</speed>
  <fix>3d</fix>
</trkpt>
<trkpt lat="-27.2725271" lon="151.2869811">
  <ele>372.0</ele>
  <time>2026-09-01T19:57:39Z</time>
  <course>266.61</course>
  <speed>25.4</speed>
  <fix>3d</fix>
</trkpt>
<trkpt lat="-27.2725323" lon="151.2868821">
  <ele>371.81</ele>
  <time>2026-09-01T19:57:39Z</time>
  <course>266.82</course>
  <speed>25.43427018807499</speed>
  <fix>3d</fix>
</trkpt>
<trkpt lat="-27.2725298" lon="151.2869298">
  <ele>372.01</ele>
  <time>2026-09-01T19:57:39Z</time>
  <course>266.59</course>
  <speed>25.4</speed>
  <fix>3d</fix>
</trkpt>
<trkpt lat="-27.2725336" lon="151.2868569">
  <ele>371.81</ele>
  <time>2026-09-01T19:57:39Z</time>
  <course>266.82</course>
  <speed>25.43486190251482</speed>
  <fix>3d</fix>
</trkpt>
<trkpt lat="-27.2725298" lon="151.2869298">
  <ele>372.01</ele>
  <time>2026-09-01T19:57:39Z</time>
  <course>266.59</course>
  <speed>25.4</speed>
  <fix>3d</fix>
</trkpt>
<trkpt lat="-27.272535" lon="151.2868313">
  <ele>371.82</ele>
  <time>2026-09-01T19:57:39Z</time>
  <course>266.83</course>
  <speed>25.43486190251482</speed>
  <fix>3d</fix>
</trkpt>
<trkpt lat="-27.2725325" lon="151.2868785">
  <ele>372.02</ele>
  <time>2026-09-01T19:57:39Z</time>
  <course>266.58</course>
  <speed>25.41</speed>
  <fix>3d</fix>
</trkpt>
<trkpt lat="-27.2725364" lon="151.2868056">
  <ele>371.83</ele>
  <time>2026-09-01T19:57:39Z</time>
  <course>266.83</course>
  <speed>25.43486190251482</speed>
  <fix>3d</fix>
</trkpt>
<trkpt lat="-27.2725325" lon="151.2868785">
  <ele>372.02</ele>
  <time>2026-09-01T19:57:39Z</time>
  <course>266.58</course>
  <speed>25.41</speed>
  <fix>3d</fix>
</trkpt>
<trkpt lat="-27.2725377" lon="151.2867801">
  <ele>371.84</ele>
  <time>2026-09-01T19:57:39Z</time>
  <course>266.85</course>
  <speed>25.43427018807499</speed>
  <fix>3d</fix>
</trkpt>
<trkpt lat="-27.2725352" lon="151.2868273">
  <ele>372.03</ele>
  <time>2026-09-01T19:57:39Z</time>
  <course>266.57</course>
  <speed>25.42</speed>
  <fix>3d</fix>
</trkpt>
<trkpt lat="-27.2725391" lon="151.2867545">
  <ele>371.85</ele>
  <time>2026-09-01T19:57:39Z</time>
  <course>266.77</course>
  <speed>25.43427018807499</speed>
  <fix>3d</fix>
</trkpt>
<trkpt lat="-27.2725352" lon="151.2868273">
  <ele>372.03</ele>
  <time>2026-09-01T19:57:39Z</time>
  <course>266.57</course>
  <speed>25.42</speed>
  <fix>3d</fix>
</trkpt>
<trkpt lat="-27.2725404" lon="151.2867291">
  <ele>371.86</ele>
  <time>2026-09-01T19:57:39Z</time>
  <course>266.69</course>
  <speed>25.42428760063888</speed>
  <fix>3d</fix>
</trkpt>
<trkpt lat="-27.2725379" lon="151.286776">
  <ele>372.05</ele>
  <time>2026-09-01T19:57:39Z</time>
  <course>266.58</course>
  <speed>25.42</speed>
  <fix>3d</fix>
</trkpt>
<trkpt lat="-27.2725417" lon="151.2867036">
  <ele>371.87</ele>
  <time>2026-09-01T19:57:39Z</time>
  <course>266.7</course>
  <speed>25.424879547403958</speed>
  <fix>3d</fix>
</trkpt>
<trkpt lat="-27.2725379" lon="151.286776">
  <ele>372.05</ele>
  <time>2026-09-01T19:57:39Z</time>
  <course>266.58</course>
  <speed>25.42</speed>
  <fix>3d</fix>
</trkpt>
<trkpt lat="-27.2725431" lon="151.2866781">
  <ele>371.88</ele>
  <time>2026-09-01T19:57:39Z</time>
  <course>266.76</course>
  <speed>25.414897206166305</speed>
  <fix>3d</fix>
</trkpt>
<trkpt lat="-27.2725407" lon="151.2867247">
  <ele>372.07</ele>
  <time>2026-09-01T19:57:39Z</time>
  <course>266.57</course>
  <speed>25.42</speed>
  <fix>3d</fix>
</trkpt>
<trkpt lat="-27.2725444" lon="151.2866528">
  <ele>371.89</ele>
  <time>2026-09-01T19:57:39Z</time>
  <course>266.77</course>
  <speed>25.414305026893814</speed>
  <fix>3d</fix>
</trkpt>
<trkpt lat="-27.2725407" lon="151.2867247">
  <ele>372.07</ele>
  <time>2026-09-01T19:57:39Z</time>
  <course>266.57</course>
  <speed>25.42</speed>
  <fix>3d</fix>
</trkpt>
<trkpt lat="-27.2725458" lon="151.2866273">
  <ele>371.9</ele>
  <time>2026-09-01T19:57:39Z</time>
  <course>266.73</course>
  <speed>25.40432246685591</speed>
  <fix>3d</fix>
</trkpt>
<trkpt lat="-27.2725434" lon="151.2866735">
  <ele>372.09</ele>
  <time>2026-09-01T19:57:39Z</time>
  <course>266.57</course>
  <speed>25.42</speed>
  <fix>3d</fix>
</trkpt>
<trkpt lat="-27.2725471" lon="151.2866017">
  <ele>371.9</ele>
  <time>2026-09-01T19:57:39Z</time>
  <course>266.72</course>
  <speed>25.40432246685591</speed>
  <fix>3d</fix>
</trkpt>
<trkpt lat="-27.2725434" lon="151.2866735">
  <ele>372.09</ele>
  <time>2026-09-01T19:57:39Z</time>
  <course>266.57</course>
  <speed>25.42</speed>
  <fix>3d</fix>
</trkpt>
<trkpt lat="-27.2725485" lon="151.286576">
  <ele>371.91</ele>
  <time>2026-09-01T19:57:39Z</time>
  <course>266.74</course>
  <speed>25.413716768705832</speed>
  <fix>3d</fix>
</trkpt>
<trkpt lat="-27.2725461" lon="151.2866222">
  <ele>372.1</ele>
  <time>2026-09-01T19:57:39Z</time>
  <course>266.58</course>
  <speed>25.42</speed>
  <fix>3d</fix>
</trkpt>
<trkpt lat="-27.2725498" lon="151.2865501">
  <ele>371.91</ele>
  <time>2026-09-01T19:57:39Z</time>
  <course>266.72</course>
  <speed>25.413716768705832</speed>
  <fix>3d</fix>
</trkpt>
<trkpt lat="-27.2725461" lon="151.2866222">
  <ele>372.1</ele>
  <time>2026-09-01T19:57:39Z</time>
  <course>266.58</course>
  <speed>25.42</speed>
  <fix>3d</fix>
</trkpt>
<trkpt lat="-27.2725512" lon="151.2865243">
  <ele>371.92</ele>
  <time>2026-09-01T19:57:39Z</time>
  <course>266.72</course>
  <speed>25.42428760063888</speed>
  <fix>3d</fix>
</trkpt>
<trkpt lat="-27.2725488" lon="151.2865708">
  <ele>372.11</ele>
  <time>2026-09-01T19:57:39Z</time>
  <course>266.58</course>
  <speed>25.42</speed>
  <fix>3d</fix>
</trkpt>
<trkpt lat="-27.2725526" lon="151.2864986">
  <ele>371.92</ele>
  <time>2026-09-01T19:57:39Z</time>
  <course>266.67</course>
  <speed>25.42428760063888</speed>
  <fix>3d</fix>
</trkpt>
<trkpt lat="-27.2725488" lon="151.2865708">
  <ele>372.11</ele>
  <time>2026-09-01T19:57:39Z</time>
  <course>266.58</course>
  <speed>25.42</speed>
  <fix>3d</fix>
</trkpt>
<trkpt lat="-27.272554" lon="151.286472">
  <ele>371.93</ele>
  <time>2026-09-01T19:57:39Z</time>
  <course>266.68</course>
  <speed>25.43427018807499</speed>
  <fix>3d</fix>
</trkpt>
<trkpt lat="-27.2725516" lon="151.2865194">
  <ele>372.12</ele>
  <time>2026-09-01T19:57:39Z</time>
  <course>266.58</course>
  <speed>25.43</speed>
  <fix>3d</fix>
</trkpt>
<trkpt lat="-27.2725553" lon="151.2864463">
  <ele>371.93</ele>
  <time>2026-09-01T19:57:39Z</time>
  <course>266.72</course>
  <speed>25.43427018807499</speed>
  <fix>3d</fix>
</trkpt>
<trkpt lat="-27.2725516" lon="151.2865194">
  <ele>372.12</ele>
  <time>2026-09-01T19:57:39Z</time>
  <course>266.58</course>
  <speed>25.43</speed>
  <fix>3d</fix>
</trkpt>
<trkpt lat="-27.2725567" lon="151.2864209">
  <ele>371.94</ele>
  <time>2026-09-01T19:57:39Z</time>
  <course>266.81</course>
  <speed>25.43427018807499</speed>
  <fix>3d</fix>
</trkpt>
<trkpt lat="-27.2725543" lon="151.2864681">
  <ele>372.14</ele>
  <time>2026-09-01T19:57:39Z</time>
  <course>266.57</course>
  <speed>25.43</speed>
  <fix>3d</fix>
</trkpt>
<trkpt lat="-27.272558" lon="151.2863953">
  <ele>371.95</ele>
  <time>2026-09-01T19:57:39Z</time>
  <course>266.84</course>
  <speed>25.433682391663226</speed>
  <fix>3d</fix>
</trkpt>
<trkpt lat="-27.2725543" lon="151.2864681">
  <ele>372.14</ele>
  <time>2026-09-01T19:57:39Z</time>
  <course>266.57</course>
  <speed>25.43</speed>
  <fix>3d</fix>
</trkpt>
<trkpt lat="-27.2725594" lon="151.2863697">
  <ele>371.96</ele>
  <time>2026-09-01T19:57:39Z</time>
  <course>266.82</course>
  <speed>25.423699573429513</speed>
  <fix>3d</fix>
</trkpt>
<trkpt lat="-27.272557" lon="151.2864168">
  <ele>372.16</ele>
  <time>2026-09-01T19:57:39Z</time>
  <course>266.58</course>
  <speed>25.43</speed>
  <fix>3d</fix>
</trkpt>
<trkpt lat="-27.2725607" lon="151.2863442">
  <ele>371.97</ele>
  <time>2026-09-01T19:57:39Z</time>
  <course>266.82</course>
  <speed>25.423115466047822</speed>
  <fix>3d</fix>
</trkpt>
<trkpt lat="-27.272557" lon="151.2864168">
  <ele>372.16</ele>
  <time>2026-09-01T19:57:39Z</time>
  <course>266.58</course>
  <speed>25.43</speed>
  <fix>3d</fix>
</trkpt>
<trkpt lat="-27.2725621" lon="151.2863185">
  <ele>371.98</ele>
  <time>2026-09-01T19:57:39Z</time>
  <course>266.84</course>
  <speed>25.423115466047822</speed>
  <fix>3d</fix>
</trkpt>
<trkpt lat="-27.2725597" lon="151.2863655">
  <ele>372.18</ele>
  <time>2026-09-01T19:57:39Z</time>
  <course>266.61</course>
  <speed>25.42</speed>
  <fix>3d</fix>
</trkpt>
<trkpt lat="-27.2725634" lon="151.2862929">
  <ele>371.99</ele>
  <time>2026-09-01T19:57:39Z</time>
  <course>266.82</course>
  <speed>25.412552016670816</speed>
  <fix>3d</fix>
</trkpt>
<trkpt lat="-27.2725597" lon="151.2863655">
  <ele>372.18</ele>
  <time>2026-09-01T19:57:39Z</time>
  <course>266.61</course>
  <speed>25.42</speed>
  <fix>3d</fix>
</trkpt>
<trkpt lat="-27.2725647" lon="151.2862675">
  <ele>371.99</ele>
  <time>2026-09-01T19:57:39Z</time>
  <course>266.77</course>
  <speed>25.401992047869</speed>
  <fix>3d</fix>
</trkpt>
<trkpt lat="-27.2725624" lon="151.2863142">
  <ele>372.2</ele>
  <time>2026-09-01T19:57:39Z</time>
  <course>266.63</course>
  <speed>25.42</speed>
  <fix>3d</fix>
</trkpt>
<trkpt lat="-27.272566" lon="151.2862419">
  <ele>372.0</ele>
  <time>2026-09-01T19:57:39Z</time>
  <course>266.74</course>
  <speed>25.401992047869</speed>
  <fix>3d</fix>
</trkpt>
<trkpt lat="-27.2725624" lon="151.2863142">
  <ele>372.2</ele>
  <time>2026-09-01T19:57:39Z</time>
  <course>266.63</course>
  <speed>25.42</speed>
  <fix>3d</fix>
</trkpt>
<trkpt lat="-27.2725674" lon="151.2862164">
  <ele>372.0</ele>
  <time>2026-09-01T19:57:39Z</time>
  <course>266.75</course>
  <speed>25.40256876774473</speed>
  <fix>3d</fix>
</trkpt>
<trkpt lat="-27.2725651" lon="151.2862629">
  <ele>372.22</ele>
  <time>2026-09-01T19:57:39Z</time>
  <course>266.65</course>
  <speed>25.42</speed>
  <fix>3d</fix>
</trkpt>
<trkpt lat="-27.2725687" lon="151.2861909">
  <ele>372.01</ele>
  <time>2026-09-01T19:57:39Z</time>
  <course>266.76</course>
  <speed>25.392585532001267</speed>
  <fix>3d</fix>
</trkpt>
<trkpt lat="-27.2725651" lon="151.2862629">
  <ele>372.22</ele>
  <time>2026-09-01T19:57:39Z</time>
  <course>266.65</course>
  <speed>25.42</speed>
  <fix>3d</fix>
</trkpt>
<trkpt lat="-27.27257" lon="151.2861654">
  <ele>372.02</ele>
  <time>2026-09-01T19:57:39Z</time>
  <course>266.81</course>
  <speed>25.39200858537977</speed>
  <fix>3d</fix>
</trkpt>
<trkpt lat="-27.2725678" lon="151.2862116">
  <ele>372.23</ele>
  <time>2026-09-01T19:57:39Z</time>
  <course>266.66</course>
  <speed>25.42</speed>
  <fix>3d</fix>
</trkpt>
<trkpt lat="-27.2725713" lon="151.2861405">
  <ele>372.03</ele>
  <time>2026-09-01T19:57:39Z</time>
  <course>266.8</course>
  <speed>25.39200858537977</speed>
  <fix>3d</fix>
</trkpt>
<trkpt lat="-27.2725678" lon="151.2862116">
  <ele>372.23</ele>
  <time>2026-09-01T19:57:39Z</time>
  <course>266.66</course>
  <speed>25.42</speed>
  <fix>3d</fix>
</trkpt>
<trkpt lat="-27.2725726" lon="151.286115">
  <ele>372.04</ele>
  <time>2026-09-01T19:57:39Z</time>
  <course>266.77</course>
  <speed>25.39200858537977</speed>
  <fix>3d</fix>
</trkpt>
<trkpt lat="-27.2725704" lon="151.2861604">
  <ele>372.25</ele>
  <time>2026-09-01T19:57:39Z</time>
  <course>266.67</course>
  <speed>25.41</speed>
  <fix>3d</fix>
</trkpt>
<trkpt lat="-27.2725739" lon="151.2860894">
  <ele>372.04</ele>
  <time>2026-09-01T19:57:39Z</time>
  <course>266.81</course>
  <speed>25.391435563984956</speed>
  <fix>3d</fix>
</trkpt>
<trkpt lat="-27.2725704" lon="151.2861604">
  <ele>372.25</ele>
  <time>2026-09-01T19:57:39Z</time>
  <course>266.67</course>
  <speed>25.41</speed>
  <fix>3d</fix>
</trkpt>
<trkpt lat="-27.2725753" lon="151.2860637">
  <ele>372.05</ele>
  <time>2026-09-01T19:57:39Z</time>
  <course>266.78</course>
  <speed>25.401419251687493</speed>
  <fix>3d</fix>
</trkpt>
<trkpt lat="-27.2725731" lon="151.2861091">
  <ele>372.26</ele>
  <time>2026-09-01T19:57:39Z</time>
  <course>266.69</course>
  <speed>25.41</speed>
  <fix>3d</fix>
</trkpt>
<trkpt lat="-27.2725766" lon="151.2860381">
  <ele>372.05</ele>
  <time>2026-09-01T19:57:39Z</time>
  <course>266.75</course>
  <speed>25.401419251687493</speed>
  <fix>3d</fix>
</trkpt>
<trkpt lat="-27.2725731" lon="151.2861091">
  <ele>372.26</ele>
  <time>2026-09-01T19:57:39Z</time>
  <course>266.69</course>
  <speed>25.41</speed>
  <fix>3d</fix>
</trkpt>
<trkpt lat="-27.2725779" lon="151.2860122">
  <ele>372.05</ele>
  <time>2026-09-01T19:57:39Z</time>
  <course>266.75</course>
  <speed>25.401992047869</speed>
  <fix>3d</fix>
</trkpt>
<trkpt lat="-27.2725757" lon="151.2860577">
  <ele>372.27</ele>
  <time>2026-09-01T19:57:39Z</time>
  <course>266.7</course>
  <speed>25.41</speed>
  <fix>3d</fix>
</trkpt>
<trkpt lat="-27.2725792" lon="151.2859866">
  <ele>372.06</ele>
  <time>2026-09-01T19:57:39Z</time>
  <course>266.77</course>
  <speed>25.39200858537977</speed>
  <fix>3d</fix>
</trkpt>
<trkpt lat="-27.2725757" lon="151.2860577">
  <ele>372.27</ele>
  <time>2026-09-01T19:57:39Z</time>
  <course>266.7</course>
  <speed>25.41</speed>
  <fix>3d</fix>
</trkpt>
<trkpt lat="-27.2725806" lon="151.285961">
  <ele>372.06</ele>
  <time>2026-09-01T19:57:39Z</time>
  <course>266.79</course>
  <speed>25.39200858537977</speed>
  <fix>3d</fix>
</trkpt>
<trkpt lat="-27.2725783" lon="151.2860064">
  <ele>372.27</ele>
  <time>2026-09-01T19:57:39Z</time>
  <course>266.7</course>
  <speed>25.41</speed>
  <fix>3d</fix>
</trkpt>
<trkpt lat="-27.2725819" lon="151.2859345">
  <ele>372.06</ele>
  <time>2026-09-01T19:57:39Z</time>
  <course>266.79</course>
  <speed>25.391435563984956</speed>
  <fix>3d</fix>
</trkpt>
<trkpt lat="-27.2725783" lon="151.2860064">
  <ele>372.27</ele>
  <time>2026-09-01T19:57:39Z</time>
  <course>266.7</course>
  <speed>25.41</speed>
  <fix>3d</fix>
</trkpt>
<trkpt lat="-27.2725832" lon="151.285909">
  <ele>372.07</ele>
  <time>2026-09-01T19:57:39Z</time>
  <course>266.72</course>
  <speed>25.401992047869</speed>
  <fix>3d</fix>
</trkpt>
<trkpt lat="-27.272581" lon="151.2859551">
  <ele>372.28</ele>
  <time>2026-09-01T19:57:39Z</time>
  <course>266.69</course>
  <speed>25.41</speed>
  <fix>3d</fix>
</trkpt>
<trkpt lat="-27.2725845" lon="151.2858834">
  <ele>372.08</ele>
  <time>2026-09-01T19:57:39Z</time>
  <course>266.68</course>
  <speed>25.401992047869</speed>
  <fix>3d</fix>
</trkpt>
<trkpt lat="-27.272581" lon="151.2859551">
  <ele>372.28</ele>
  <time>2026-09-01T19:57:39Z</time>
  <course>266.69</course>
  <speed>25.41</speed>
  <fix>3d</fix>
</trkpt>
<trkpt lat="-27.2725859" lon="151.2858577">
  <ele>372.08</ele>
  <time>2026-09-01T19:57:39Z</time>
  <course>266.74</course>
  <speed>25.401992047869</speed>
  <fix>3d</fix>
</trkpt>
<trkpt lat="-27.2725836" lon="151.2859038">
  <ele>372.28</ele>
  <time>2026-09-01T19:57:39Z</time>
  <course>266.69</course>
  <speed>25.41</speed>
  <fix>3d</fix>
</trkpt>
<trkpt lat="-27.2725872" lon="151.285832">
  <ele>372.09</ele>
  <time>2026-09-01T19:57:39Z</time>
  <course>266.75</course>
  <speed>25.401992047869</speed>
  <fix>3d</fix>
</trkpt>
<trkpt lat="-27.2725836" lon="151.2859038">
  <ele>372.28</ele>
  <time>2026-09-01T19:57:39Z</time>
  <course>266.69</course>
  <speed>25.41</speed>
  <fix>3d</fix>
</trkpt>
<trkpt lat="-27.2725885" lon="151.2858063">
  <ele>372.09</ele>
  <time>2026-09-01T19:57:39Z</time>
  <course>266.76</course>
  <speed>25.411975523362994</speed>
  <fix>3d</fix>
</trkpt>
<trkpt lat="-27.2725862" lon="151.2858526">
  <ele>372.3</ele>
  <time>2026-09-01T19:57:39Z</time>
  <course>266.69</course>
  <speed>25.41</speed>
  <fix>3d</fix>
</trkpt>
<trkpt lat="-27.2725898" lon="151.2857805">
  <ele>372.09</ele>
  <time>2026-09-01T19:57:39Z</time>
  <course>266.72</course>
  <speed>25.411975523362994</speed>
  <fix>3d</fix>
</trkpt>
<trkpt lat="-27.2725862" lon="151.2858526">
  <ele>372.3</ele>
  <time>2026-09-01T19:57:39Z</time>
  <course>266.69</course>
  <speed>25.41</speed>
  <fix>3d</fix>
</trkpt>
<trkpt lat="-27.2725912" lon="151.2857548">
  <ele>372.1</ele>
  <time>2026-09-01T19:57:39Z</time>
  <course>266.75</course>
  <speed>25.411975523362994</speed>
  <fix>3d</fix>
</trkpt>
<trkpt lat="-27.2725889" lon="151.2858013">
  <ele>372.31</ele>
  <time>2026-09-01T19:57:39Z</time>
  <course>266.69</course>
  <speed>25.41</speed>
  <fix>3d</fix>
</trkpt>
<trkpt lat="-27.2725925" lon="151.2857291">
  <ele>372.1</ele>
  <time>2026-09-01T19:57:39Z</time>
  <course>266.75</course>
  <speed>25.411975523362994</speed>
  <fix>3d</fix>
</trkpt>
<trkpt lat="-27.2725889" lon="151.2858013">
  <ele>372.31</ele>
  <time>2026-09-01T19:57:39Z</time>
  <course>266.69</course>
  <speed>25.41</speed>
  <fix>3d</fix>
</trkpt>
<trkpt lat="-27.2725938" lon="151.2857034">
  <ele>372.1</ele>
  <time>2026-09-01T19:57:39Z</time>
  <course>266.77</course>
  <speed>25.421386665561737</speed>
  <fix>3d</fix>
</trkpt>
<trkpt lat="-27.2725915" lon="151.28575">
  <ele>372.31</ele>
  <time>2026-09-01T19:57:39Z</time>
  <course>266.7</course>
  <speed>25.41</speed>
  <fix>3d</fix>
</trkpt>
<trkpt lat="-27.2725951" lon="151.2856778">
  <ele>372.11</ele>
  <time>2026-09-01T19:57:39Z</time>
  <course>266.76</course>
  <speed>25.421386665561737</speed>
  <fix>3d</fix>
</trkpt>
<trkpt lat="-27.2725915" lon="151.28575">
  <ele>372.31</ele>
  <time>2026-09-01T19:57:39Z</time>
  <course>266.7</course>
  <speed>25.41</speed>
  <fix>3d</fix>
</trkpt>
<trkpt lat="-27.2725964" lon="151.2856521">
  <ele>372.11</ele>
  <time>2026-09-01T19:57:39Z</time>
  <course>266.71</course>
  <speed>25.420818240174725</speed>
  <fix>3d</fix>
</trkpt>
<trkpt lat="-27.2725941" lon="151.2856988">
  <ele>372.32</ele>
  <time>2026-09-01T19:57:39Z</time>
  <course>266.72</course>
  <speed>25.41</speed>
  <fix>3d</fix>
</trkpt>
<trkpt lat="-27.2725977" lon="151.2856264">
  <ele>372.12</ele>
  <time>2026-09-01T19:57:39Z</time>
  <course>266.42</course>
  <speed>25.430802189470942</speed>
  <fix>3d</fix>
</trkpt>
<trkpt lat="-27.2725941" lon="151.2856988">
  <ele>372.32</ele>
  <time>2026-09-01T19:57:39Z</time>
  <course>266.72</course>
  <speed>25.41</speed>
  <fix>3d</fix>
</trkpt>
<trkpt lat="-27.272599" lon="151.2856008">
  <ele>372.13</ele>
  <time>2026-09-01T19:57:40Z</time>
  <course>265.8</course>
  <speed>25.433682391663226</speed>
  <fix>3d</fix>
</trkpt>
<trkpt lat="-27.2725967" lon="151.2856475">
  <ele>372.33</ele>
  <time>2026-09-01T19:57:40Z</time>
  <course>266.74</course>
  <speed>25.41</speed>
  <fix>3d</fix>
</trkpt>
<trkpt lat="-27.2726005" lon="151.2855751">
  <ele>372.14</ele>
  <time>2026-09-01T19:57:40Z</time>
  <course>265.08</course>
  <speed>25.4342289051585</speed>
  <fix>3d</fix>
</trkpt>
<trkpt lat="-27.2725967" lon="151.2856475">
  <ele>372.33</ele>
  <time>2026-09-01T19:57:40Z</time>
  <course>266.74</course>
  <speed>25.41</speed>
  <fix>3d</fix>
</trkpt>
<trkpt lat="-27.2726021" lon="151.2855494">
  <ele>372.16</ele>
  <time>2026-09-01T19:57:40Z</time>
  <course>264.39</course>
  <speed>25.437177516383375</speed>
  <fix>3d</fix>
</trkpt>
<trkpt lat="-27.2725993" lon="151.2855963">
  <ele>372.35</ele>
  <time>2026-09-01T19:57:40Z</time>
  <course>266.51</course>
  <speed>25.41</speed>
  <fix>3d</fix>
</trkpt>
<trkpt lat="-27.2726041" lon="151.2855238">
  <ele>372.18</ele>
  <time>2026-09-01T19:57:40Z</time>
  <course>263.79</course>
  <speed>25.440190643939758</speed>
  <fix>3d</fix>
</trkpt>
<trkpt lat="-27.2725993" lon="151.2855963">
  <ele>372.35</ele>
  <time>2026-09-01T19:57:40Z</time>
  <course>266.51</course>
  <speed>25.41</speed>
  <fix>3d</fix>
</trkpt>
<trkpt lat="-27.2726066" lon="151.2854983">
  <ele>372.2</ele>
  <time>2026-09-01T19:57:40Z</time>
  <course>263.1</course>
  <speed>25.45073083430022</speed>
  <fix>3d</fix>
</trkpt>
<trkpt lat="-27.2726025" lon="151.285545">
  <ele>372.39</ele>
  <time>2026-09-01T19:57:40Z</time>
  <course>265.4</course>
  <speed>25.4</speed>
  <fix>3d</fix>
</trkpt>
<trkpt lat="-27.2726097" lon="151.2854728">
  <ele>372.21</ele>
  <time>2026-09-01T19:57:40Z</time>
  <course>261.96</course>
  <speed>25.48330433833101</speed>
  <fix>3d</fix>
</trkpt>
<trkpt lat="-27.2726025" lon="151.285545">
  <ele>372.39</ele>
  <time>2026-09-01T19:57:40Z</time>
  <course>265.4</course>
  <speed>25.4</speed>
  <fix>3d</fix>
</trkpt>
<trkpt lat="-27.2726137" lon="151.2854474">
  <ele>372.22</ele>
  <time>2026-09-01T19:57:40Z</time>
  <course>260.2</course>
  <speed>25.51301040645733</speed>
  <fix>3d</fix>
</trkpt>
<trkpt lat="-27.272607" lon="151.2854939">
  <ele>372.42</ele>
  <time>2026-09-01T19:57:40Z</time>
  <course>262.9</course>
  <speed>25.41</speed>
  <fix>3d</fix>
</trkpt>
<trkpt lat="-27.2726184" lon="151.2854228">
  <ele>372.24</ele>
  <time>2026-09-01T19:57:40Z</time>
  <course>257.86</course>
  <speed>25.561740942275428</speed>
  <fix>3d</fix>
</trkpt>
<trkpt lat="-27.272607" lon="151.2854939">
  <ele>372.42</ele>
  <time>2026-09-01T19:57:40Z</time>
  <course>262.9</course>
  <speed>25.41</speed>
  <fix>3d</fix>
</trkpt>
<trkpt lat="-27.2726245" lon="151.285397">
  <ele>372.27</ele>
  <time>2026-09-01T19:57:40Z</time>
  <course>254.97</course>
  <speed>25.63826242162288</speed>
  <fix>3d</fix>
</trkpt>
<trkpt lat="-27.2726142" lon="151.285443">
  <ele>372.45</ele>
  <time>2026-09-01T19:57:40Z</time>
  <course>258.91</course>
  <speed>25.46</speed>
  <fix>3d</fix>
</trkpt>
<trkpt lat="-27.2726315" lon="151.2853725">
  <ele>372.32</ele>
  <time>2026-09-01T19:57:40Z</time>
  <course>251.92</course>
  <speed>25.71429563491872</speed>
  <fix>3d</fix>
</trkpt>
<trkpt lat="-27.2726142" lon="151.285443">
  <ele>372.45</ele>
  <time>2026-09-01T19:57:40Z</time>
  <course>258.91</course>
  <speed>25.46</speed>
  <fix>3d</fix>
</trkpt>
<trkpt lat="-27.2726398" lon="151.2853483">
  <ele>372.39</ele>
  <time>2026-09-01T19:57:40Z</time>
  <course>248.74</course>
  <speed>25.781582573612503</speed>
  <fix>3d</fix>
</trkpt>
<trkpt lat="-27.272625" lon="151.285393">
  <ele>372.51</ele>
  <time>2026-09-01T19:57:40Z</time>
  <course>253.56</course>
  <speed>25.56</speed>
  <fix>3d</fix>
</trkpt>
<trkpt lat="-27.2726493" lon="151.2853245">
  <ele>372.49</ele>
  <time>2026-09-01T19:57:40Z</time>
  <course>245.63</course>
  <speed>25.83748052732696</speed>
  <fix>3d</fix>
</trkpt>
<trkpt lat="-27.272625" lon="151.285393">
  <ele>372.51</ele>
  <time>2026-09-01T19:57:40Z</time>
  <course>253.56</course>
  <speed>25.56</speed>
  <fix>3d</fix>
</trkpt>
<trkpt lat="-27.2726598" lon="151.2853012">
  <ele>372.61</ele>
  <time>2026-09-01T19:57:40Z</time>
  <course>242.63</course>
  <speed>25.866381656505418</speed>
  <fix>3d</fix>
</trkpt>
<trkpt lat="-27.2726404" lon="151.2853442">
  <ele>372.63</ele>
  <time>2026-09-01T19:57:40Z</time>
  <course>247.42</course>
  <speed>25.69</speed>
  <fix>3d</fix>
</trkpt>
<trkpt lat="-27.2726716" lon="151.2852785">
  <ele>372.76</ele>
  <time>2026-09-01T19:57:40Z</time>
  <course>239.7</course>
  <speed>25.89471953893303</speed>
  <fix>3d</fix>
</trkpt>
<trkpt lat="-27.2726404" lon="151.2853442">
  <ele>372.63</ele>
  <time>2026-09-01T19:57:40Z</time>
  <course>247.42</course>
  <speed>25.69</speed>
  <fix>3d</fix>
</trkpt>
<trkpt lat="-27.2726843" lon="151.2852565">
  <ele>372.92</ele>
  <time>2026-09-01T19:57:40Z</time>
  <course>236.81</course>
  <speed>25.917416923759973</speed>
  <fix>3d</fix>
</trkpt>
<trkpt lat="-27.2726604" lon="151.2852973">
  <ele>372.84</ele>
  <time>2026-09-01T19:57:40Z</time>
  <course>241.22</course>
  <speed>25.79</speed>
  <fix>3d</fix>
</trkpt>
<trkpt lat="-27.2726979" lon="151.2852354">
  <ele>373.08</ele>
  <time>2026-09-01T19:57:40Z</time>
  <course>233.79</course>
  <speed>25.934725755249463</speed>
  <fix>3d</fix>
</trkpt>
<trkpt lat="-27.2726604" lon="151.2852973">
  <ele>372.84</ele>
  <time>2026-09-01T19:57:40Z</time>
  <course>241.22</course>
  <speed>25.79</speed>
  <fix>3d</fix>
</trkpt>
<trkpt lat="-27.2727124" lon="151.2852151">
  <ele>373.26</ele>
  <time>2026-09-01T19:57:40Z</time>
  <course>230.84</course>
  <speed>25.954656614950622</speed>
  <fix>3d</fix>
</trkpt>
<trkpt lat="-27.2726848" lon="151.2852529">
  <ele>373.13</ele>
  <time>2026-09-01T19:57:40Z</time>
  <course>235.26</course>
  <speed>25.85</speed>
  <fix>3d</fix>
</trkpt>
<trkpt lat="-27.2727278" lon="151.2851956">
  <ele>373.44</ele>
  <time>2026-09-01T19:57:40Z</time>
  <course>227.93</course>
  <speed>25.965517518432016</speed>
  <fix>3d</fix>
</trkpt>
<trkpt lat="-27.2726848" lon="151.2852529">
  <ele>373.13</ele>
  <time>2026-09-01T19:57:40Z</time>
  <course>235.26</course>
  <speed>25.85</speed>
  <fix>3d</fix>
</trkpt>
<trkpt lat="-27.2727441" lon="151.2851771">
  <ele>373.63</ele>
  <time>2026-09-01T19:57:40Z</time>
  <course>224.95</course>
  <speed>25.989113105298532</speed>
  <fix>3d</fix>
</trkpt>
<trkpt lat="-27.2727132" lon="151.2852115">
  <ele>373.47</ele>
  <time>2026-09-01T19:57:40Z</time>
  <course>229.36</course>
  <speed>25.91</speed>
  <fix>3d</fix>
</trkpt>
<trkpt lat="-27.2727613" lon="151.2851596">
  <ele>373.82</ele>
  <time>2026-09-01T19:57:40Z</time>
  <course>221.89</course>
  <speed>26.00689523953215</speed>
  <fix>3d</fix>
</trkpt>
<trkpt lat="-27.2727132" lon="151.2852115">
  <ele>373.47</ele>
  <time>2026-09-01T19:57:40Z</time>
  <course>229.36</course>
  <speed>25.91</speed>
  <fix>3d</fix>
</trkpt>
<trkpt lat="-27.2727792" lon="151.2851431">
  <ele>374.01</ele>
  <time>2026-09-01T19:57:40Z</time>
  <course>218.78</course>
  <speed>26.008723536536735</speed>
  <fix>3d</fix>
</trkpt>
<trkpt lat="-27.2727454" lon="151.2851736">
  <ele>373.83</ele>
  <time>2026-09-01T19:57:40Z</time>
  <course>223.35</course>
  <speed>25.97</speed>
  <fix>3d</fix>
</trkpt>
<trkpt lat="-27.2727979" lon="151.2851277">
  <ele>374.21</ele>
  <time>2026-09-01T19:57:40Z</time>
  <course>215.76</course>
  <speed>26.013784807290154</speed>
  <fix>3d</fix>
</trkpt>
<trkpt lat="-27.2727454" lon="151.2851736">
  <ele>373.83</ele>
  <time>2026-09-01T19:57:40Z</time>
  <course>223.35</course>
  <speed>25.97</speed>
  <fix>3d</fix>
</trkpt>
<trkpt lat="-27.2728173" lon="151.2851135">
  <ele>374.41</ele>
  <time>2026-09-01T19:57:40Z</time>
  <course>212.82</course>
  <speed>26.02341253563798</speed>
  <fix>3d</fix>
</trkpt>
<trkpt lat="-27.272781" lon="151.2851397">
  <ele>374.2</ele>
  <time>2026-09-01T19:57:40Z</time>
  <course>217.21</course>
  <speed>26.02</speed>
  <fix>3d</fix>
</trkpt>
<trkpt lat="-27.2728374" lon="151.2851004">
  <ele>374.61</ele>
  <time>2026-09-01T19:57:40Z</time>
  <course>209.88</course>
  <speed>26.021314340363364</speed>
  <fix>3d</fix>
</trkpt>
<trkpt lat="-27.272781" lon="151.2851397">
  <ele>374.2</ele>
  <time>2026-09-01T19:57:40Z</time>
  <course>217.21</course>
  <speed>26.02</speed>
  <fix>3d</fix>
</trkpt>
<trkpt lat="-27.2728581" lon="151.2850884">
  <ele>374.82</ele>
  <time>2026-09-01T19:57:40Z</time>
  <course>206.94</course>
  <speed>26.016241081293813</speed>
  <fix>3d</fix>
</trkpt>
<trkpt lat="-27.2728197" lon="151.2851102">
  <ele>374.58</ele>
  <time>2026-09-01T19:57:40Z</time>
  <course>211.1</course>
  <speed>26.06</speed>
  <fix>3d</fix>
</trkpt>
<trkpt lat="-27.2728793" lon="151.2850777">
  <ele>375.02</ele>
  <time>2026-09-01T19:57:40Z</time>
  <course>204.12</course>
  <speed>26.01173965731627</speed>
  <fix>3d</fix>
</trkpt>
<trkpt lat="-27.2728197" lon="151.2851102">
  <ele>374.58</ele>
  <time>2026-09-01T19:57:40Z</time>
  <course>211.1</course>
  <speed>26.06</speed>
  <fix>3d</fix>
</trkpt>
<trkpt lat="-27.272901" lon="151.2850681">
  <ele>375.22</ele>
  <time>2026-09-01T19:57:40Z</time>
  <course>201.32</course>
  <speed>25.998846128241922</speed>
  <fix>3d</fix>
</trkpt>
<trkpt lat="-27.2728611" lon="151.2850853">
  <ele>374.96</ele>
  <time>2026-09-01T19:57:40Z</time>
  <course>205.13</course>
  <speed>26.08</speed>
  <fix>3d</fix>
</trkpt>
<trkpt lat="-27.2729232" lon="151.2850598">
  <ele>375.41</ele>
  <time>2026-09-01T19:57:40Z</time>
  <course>198.56</course>
  <speed>25.989661406028358</speed>
  <fix>3d</fix>
</trkpt>
<trkpt lat="-27.2728611" lon="151.2850853">
  <ele>374.96</ele>
  <time>2026-09-01T19:57:40Z</time>
  <course>205.13</course>
  <speed>26.08</speed>
  <fix>3d</fix>
</trkpt>
<trkpt lat="-27.2729458" lon="151.2850527">
  <ele>375.59</ele>
  <time>2026-09-01T19:57:40Z</time>
  <course>195.87</course>
  <speed>25.980425323693222</speed>
  <fix>3d</fix>
</trkpt>
<trkpt lat="-27.2729045" lon="151.2850654">
  <ele>375.34</ele>
  <time>2026-09-01T19:57:40Z</time>
  <course>199.31</course>
  <speed>26.07</speed>
  <fix>3d</fix>
</trkpt>
<trkpt lat="-27.2729686" lon="151.2850468">
  <ele>375.76</ele>
  <time>2026-09-01T19:57:40Z</time>
  <course>193.17</course>
  <speed>25.973621233859557</speed>
  <fix>3d</fix>
</trkpt>
<trkpt lat="-27.2729045" lon="151.2850654">
  <ele>375.34</ele>
  <time>2026-09-01T19:57:40Z</time>
  <course>199.31</course>
  <speed>26.07</speed>
  <fix>3d</fix>
</trkpt>
<trkpt lat="-27.2729917" lon="151.2850421">
  <ele>375.92</ele>
  <time>2026-09-01T19:57:40Z</time>
  <course>190.47</course>
  <speed>25.971461260391184</speed>
  <fix>3d</fix>
</trkpt>
<trkpt lat="-27.2729493" lon="151.2850504">
  <ele>375.69</ele>
  <time>2026-09-01T19:57:40Z</time>
  <course>193.73</course>
  <speed>26.06</speed>
  <fix>3d</fix>
</trkpt>
<trkpt lat="-27.2730149" lon="151.2850386">
  <ele>376.07</ele>
  <time>2026-09-01T19:57:40Z</time>
  <course>187.72</course>
  <speed>25.96660355148513</speed>
  <fix>3d</fix>
</trkpt>
<trkpt lat="-27.2729493" lon="151.2850504">
  <ele>375.69</ele>
  <time>2026-09-01T19:57:40Z</time>
  <course>193.73</course>
  <speed>26.06</speed>
  <fix>3d</fix>
</trkpt>
<trkpt lat="-27.2730383" lon="151.2850364">
  <ele>376.2</ele>
  <time>2026-09-01T19:57:40Z</time>
  <course>184.95</course>
  <speed>25.9583223648987</speed>
  <fix>3d</fix>
</trkpt>
<trkpt lat="-27.2729953" lon="151.2850404">
  <ele>376.01</ele>
  <time>2026-09-01T19:57:40Z</time>
  <course>188.27</course>
  <speed>26.04</speed>
  <fix>3d</fix>
</trkpt>
<trkpt lat="-27.2730617" lon="151.2850355">
  <ele>376.33</ele>
  <time>2026-09-01T19:57:40Z</time>
  <course>182.26</course>
  <speed>25.940493441721575</speed>
  <fix>3d</fix>
</trkpt>
<trkpt lat="-27.2729953" lon="151.2850404">
  <ele>376.01</ele>
  <time>2026-09-01T19:57:40Z</time>
  <course>188.27</course>
  <speed>26.04</speed>
  <fix>3d</fix>
</trkpt>
<trkpt lat="-27.2730853" lon="151.2850359">
  <ele>376.44</ele>
  <time>2026-09-01T19:57:40Z</time>
  <course>179.54</course>
  <speed>25.921682044188415</speed>
  <fix>3d</fix>
</trkpt>
<trkpt lat="-27.2730418" lon="151.2850354">
  <ele>376.28</ele>
  <time>2026-09-01T19:57:40Z</time>
  <course>182.79</course>
  <speed>26.01</speed>
  <fix>3d</fix>
</trkpt>
<trkpt lat="-27.2731086" lon="151.2850375">
  <ele>376.54</ele>
  <time>2026-09-01T19:57:40Z</time>
  <course>176.78</course>
  <speed>25.911391317333774</speed>
  <fix>3d</fix>
</trkpt>
<trkpt lat="-27.2730418" lon="151.2850354">
  <ele>376.28</ele>
  <time>2026-09-01T19:57:40Z</time>
  <course>182.79</course>
  <speed>26.01</speed>
  <fix>3d</fix>
</trkpt>
<trkpt lat="-27.2731319" lon="151.2850403">
  <ele>376.63</ele>
  <time>2026-09-01T19:57:40Z</time>
  <course>174.04</course>
  <speed>25.890401696381613</speed>
  <fix>3d</fix>
</trkpt>
<trkpt lat="-27.2730885" lon="151.2850353">
  <ele>376.51</ele>
  <time>2026-09-01T19:57:40Z</time>
  <course>177.3</course>
  <speed>25.98</speed>
  <fix>3d</fix>
</trkpt>
<trkpt lat="-27.2731549" lon="151.2850444">
  <ele>376.71</ele>
  <time>2026-09-01T19:57:40Z</time>
  <course>171.29</course>
  <speed>25.87781289058254</speed>
  <fix>3d</fix>
</trkpt>
<trkpt lat="-27.2730885" lon="151.2850353">
  <ele>376.51</ele>
  <time>2026-09-01T19:57:40Z</time>
  <course>177.3</course>
  <speed>25.98</speed>
  <fix>3d</fix>
</trkpt>
<trkpt lat="-27.2731777" lon="151.2850498">
  <ele>376.78</ele>
  <time>2026-09-01T19:57:40Z</time>
  <course>168.57</course>
  <speed>25.86140947435</speed>
  <fix>3d</fix>
</trkpt>
<trkpt lat="-27.2731349" lon="151.2850402">
  <ele>376.69</ele>
  <time>2026-09-01T19:57:40Z</time>
  <course>171.84</course>
  <speed>25.95</speed>
  <fix>3d</fix>
</trkpt>
<trkpt lat="-27.2732001" lon="151.2850563">
  <ele>376.84</ele>
  <time>2026-09-01T19:57:40Z</time>
  <course>165.84</course>
  <speed>25.836185864016382</speed>
  <fix>3d</fix>
</trkpt>
<trkpt lat="-27.2731349" lon="151.2850402">
  <ele>376.69</ele>
  <time>2026-09-01T19:57:40Z</time>
  <course>171.84</course>
  <speed>25.95</speed>
  <fix>3d</fix>
</trkpt>
<trkpt lat="-27.2732224" lon="151.2850641">
  <ele>376.89</ele>
  <time>2026-09-01T19:57:40Z</time>
  <course>163.09</course>
  <speed>25.826825201716144</speed>
  <fix>3d</fix>
</trkpt>
<trkpt lat="-27.2731806" lon="151.28505">
  <ele>376.84</ele>
  <time>2026-09-01T19:57:40Z</time>
  <course>166.35</course>
  <speed>25.91</speed>
  <fix>3d</fix>
</trkpt>
<trkpt lat="-27.2732442" lon="151.2850731">
  <ele>376.93</ele>
  <time>2026-09-01T19:57:40Z</time>
  <course>160.3</course>
  <speed>25.804464729964852</speed>
  <fix>3d</fix>
</trkpt>
<trkpt lat="-27.2731806" lon="151.28505">
  <ele>376.84</ele>
  <time>2026-09-01T19:57:40Z</time>
  <course>166.35</course>
  <speed>25.91</speed>
  <fix>3d</fix>
</trkpt>
<trkpt lat="-27.2732656" lon="151.2850833">
  <ele>376.96</ele>
  <time>2026-09-01T19:57:40Z</time>
  <course>157.45</course>
  <speed>25.778285435614215</speed>
  <fix>3d</fix>
</trkpt>
<trkpt lat="-27.2732252" lon="151.2850648">
  <ele>376.94</ele>
  <time>2026-09-01T19:57:40Z</time>
  <course>160.85</course>
  <speed>25.88</speed>
  <fix>3d</fix>
</trkpt>
<trkpt lat="-27.2732865" lon="151.2850946">
  <ele>376.98</ele>
  <time>2026-09-01T19:57:40Z</time>
  <course>154.64</course>
  <speed>25.756571976876117</speed>
  <fix>3d</fix>
</trkpt>
<trkpt lat="-27.2732252" lon="151.2850648">
  <ele>376.94</ele>
  <time>2026-09-01T19:57:40Z</time>
  <course>160.85</course>
  <speed>25.88</speed>
  <fix>3d</fix>
</trkpt>
<trkpt lat="-27.2733069" lon="151.285107">
  <ele>376.99</ele>
  <time>2026-09-01T19:57:40Z</time>
  <course>151.82</course>
  <speed>25.74370796913296</speed>
  <fix>3d</fix>
</trkpt>
<trkpt lat="-27.2732683" lon="151.2850844">
  <ele>377.0</ele>
  <time>2026-09-01T19:57:40Z</time>
  <course>155.29</course>
  <speed>25.84</speed>
  <fix>3d</fix>
</trkpt>
<trkpt lat="-27.2733266" lon="151.2851206">
  <ele>376.99</ele>
  <time>2026-09-01T19:57:40Z</time>
  <course>148.93</course>
  <speed>25.72690614901061</speed>
  <fix>3d</fix>
</trkpt>
<trkpt lat="-27.2732683" lon="151.2850844">
  <ele>377.0</ele>
  <time>2026-09-01T19:57:40Z</time>
  <course>155.29</course>
  <speed>25.84</speed>
  <fix>3d</fix>
</trkpt>
<trkpt lat="-27.2733457" lon="151.2851352">
  <ele>376.98</ele>
  <time>2026-09-01T19:57:40Z</time>
  <course>146.01</course>
  <speed>25.710707886015122</speed>
  <fix>3d</fix>
</trkpt>
<trkpt lat="-27.2733094" lon="151.2851084">
  <ele>377.02</ele>
  <time>2026-09-01T19:57:40Z</time>
  <course>149.64</course>
  <speed>25.81</speed>
  <fix>3d</fix>
</trkpt>
<trkpt lat="-27.2733641" lon="151.2851509">
  <ele>376.97</ele>
  <time>2026-09-01T19:57:40Z</time>
  <course>143.12</course>
  <speed>25.704639659018756</speed>
  <fix>3d</fix>
</trkpt>
<trkpt lat="-27.2733094" lon="151.2851084">
  <ele>377.02</ele>
  <time>2026-09-01T19:57:40Z</time>
  <course>149.64</course>
  <speed>25.81</speed>
  <fix>3d</fix>
</trkpt>
<trkpt lat="-27.2733817" lon="151.2851675">
  <ele>376.95</ele>
  <time>2026-09-01T19:57:40Z</time>
  <course>140.17</course>
  <speed>25.69178273300629</speed>
  <fix>3d</fix>
</trkpt>
<trkpt lat="-27.2733483" lon="151.2851371">
  <ele>377.01</ele>
  <time>2026-09-01T19:57:40Z</time>
  <course>143.9</course>
  <speed>25.79</speed>
  <fix>3d</fix>
</trkpt>
<trkpt lat="-27.2733986" lon="151.2851852">
  <ele>376.93</ele>
  <time>2026-09-01T19:57:40Z</time>
  <course>137.18</course>
  <speed>25.67575704823521</speed>
  <fix>3d</fix>
</trkpt>
<trkpt lat="-27.2733483" lon="151.2851371">
  <ele>377.01</ele>
  <time>2026-09-01T19:57:40Z</time>
  <course>143.9</course>
  <speed>25.79</speed>
  <fix>3d</fix>
</trkpt>
<trkpt lat="-27.2734146" lon="151.2852039">
  <ele>376.9</ele>
  <time>2026-09-01T19:57:40Z</time>
  <course>134.25</course>
  <speed>25.6578896248308</speed>
  <fix>3d</fix>
</trkpt>
<trkpt lat="-27.2733842" lon="151.28517">
  <ele>376.97</ele>
  <time>2026-09-01T19:57:40Z</time>
  <course>138.05</course>
  <speed>25.77</speed>
  <fix>3d</fix>
</trkpt>
<trkpt lat="-27.2734297" lon="151.2852234">
  <ele>376.86</ele>
  <time>2026-09-01T19:57:40Z</time>
  <course>131.28</course>
  <speed>25.651247533014843</speed>
  <fix>3d</fix>
</trkpt>
<trkpt lat="-27.2733842" lon="151.28517">
  <ele>376.97</ele>
  <time>2026-09-01T19:57:40Z</time>
  <course>138.05</course>
  <speed>25.77</speed>
  <fix>3d</fix>
</trkpt>
<trkpt lat="-27.2734439" lon="151.2852438">
  <ele>376.82</ele>
  <time>2026-09-01T19:57:40Z</time>
  <course>128.32</course>
  <speed>25.644486736918715</speed>
  <fix>3d</fix>
</trkpt>
<trkpt lat="-27.273417" lon="151.2852067">
  <ele>376.91</ele>
  <time>2026-09-01T19:57:40Z</time>
  <course>132.17</course>
  <speed>25.74</speed>
  <fix>3d</fix>
</trkpt>
<trkpt lat="-27.2734572" lon="151.285265">
  <ele>376.78</ele>
  <time>2026-09-01T19:57:40Z</time>
  <course>125.38</course>
  <speed>25.62723551224361</speed>
  <fix>3d</fix>
</trkpt>
<trkpt lat="-27.273417" lon="151.2852067">
  <ele>376.91</ele>
  <time>2026-09-01T19:57:40Z</time>
  <course>132.17</course>
  <speed>25.74</speed>
  <fix>3d</fix>
</trkpt>
<trkpt lat="-27.2734694" lon="151.2852869">
  <ele>376.73</ele>
  <time>2026-09-01T19:57:40Z</time>
  <course>122.45</course>
  <speed>25.608654787005115</speed>
  <fix>3d</fix>
</trkpt>
<trkpt lat="-27.2734462" lon="151.285247">
  <ele>376.84</ele>
  <time>2026-09-01T19:57:40Z</time>
  <course>126.25</course>
  <speed>25.72</speed>
  <fix>3d</fix>
</trkpt>
<trkpt lat="-27.2734806" lon="151.2853093">
  <ele>376.68</ele>
  <time>2026-09-01T19:57:40Z</time>
  <course>119.52</course>
  <speed>25.603493902200142</speed>
  <fix>3d</fix>
</trkpt>
<trkpt lat="-27.2734462" lon="151.285247">
  <ele>376.84</ele>
  <time>2026-09-01T19:57:40Z</time>
  <course>126.25</course>
  <speed>25.72</speed>
  <fix>3d</fix>
</trkpt>
<trkpt lat="-27.2734908" lon="151.2853325">
  <ele>376.62</ele>
  <time>2026-09-01T19:57:40Z</time>
  <course>116.58</course>
  <speed>25.59817571624978</speed>
  <fix>3d</fix>
</trkpt>
<trkpt lat="-27.2734716" lon="151.2852904">
  <ele>376.75</ele>
  <time>2026-09-01T19:57:40Z</time>
  <course>120.34</course>
  <speed>25.7</speed>
  <fix>3d</fix>
</trkpt>
<trkpt lat="-27.2734999" lon="151.2853563">
  <ele>376.56</ele>
  <time>2026-09-01T19:57:40Z</time>
  <course>113.63</course>
  <speed>25.59439391741871</speed>
  <fix>3d</fix>
</trkpt>
<trkpt lat="-27.2734716" lon="151.2852904">
  <ele>376.75</ele>
  <time>2026-09-01T19:57:40Z</time>
  <course>120.34</course>
  <speed>25.7</speed>
  <fix>3d</fix>
</trkpt>
<trkpt lat="-27.2735079" lon="151.2853805">
  <ele>376.5</ele>
  <time>2026-09-01T19:57:40Z</time>
  <course>110.72</course>
  <speed>25.586537475789882</speed>
  <fix>3d</fix>
</trkpt>
<trkpt lat="-27.2734928" lon="151.2853364">
  <ele>376.64</ele>
  <time>2026-09-01T19:57:40Z</time>
  <course>114.44</course>
  <speed>25.67</speed>
  <fix>3d</fix>
</trkpt>
<trkpt lat="-27.2735149" lon="151.2854054">
  <ele>376.43</ele>
  <time>2026-09-01T19:57:40Z</time>
  <course>107.85</course>
  <speed>25.566933723072857</speed>
  <fix>3d</fix>
</trkpt>
<trkpt lat="-27.2734928" lon="151.2853364">
  <ele>376.64</ele>
  <time>2026-09-01T19:57:40Z</time>
  <course>114.44</course>
  <speed>25.67</speed>
  <fix>3d</fix>
</trkpt>
<trkpt lat="-27.2735207" lon="151.2854304">
  <ele>376.37</ele>
  <time>2026-09-01T19:57:40Z</time>
  <course>105.06</course>
  <speed>25.55004892363222</speed>
  <fix>3d</fix>
</trkpt>
<trkpt lat="-27.2735097" lon="151.2853847">
  <ele>376.52</ele>
  <time>2026-09-01T19:57:40Z</time>
  <course>108.57</course>
  <speed>25.65</speed>
  <fix>3d</fix>
</trkpt>
<trkpt lat="-27.2735254" lon="151.2854557">
  <ele>376.3</ele>
  <time>2026-09-01T19:57:40Z</time>
  <course>102.37</course>
  <speed>25.520691605048636</speed>
  <fix>3d</fix>
</trkpt>
<trkpt lat="-27.2735097" lon="151.2853847">
  <ele>376.52</ele>
  <time>2026-09-01T19:57:40Z</time>
  <course>108.57</course>
  <speed>25.65</speed>
  <fix>3d</fix>
</trkpt>
<trkpt lat="-27.2735291" lon="151.2854814">
  <ele>376.23</ele>
  <time>2026-09-01T19:57:40Z</time>
  <course>99.79</course>
  <speed>25.503633074524892</speed>
  <fix>3d</fix>
</trkpt>
<trkpt lat="-27.2735221" lon="151.2854345">
  <ele>376.39</ele>
  <time>2026-09-01T19:57:40Z</time>
  <course>102.85</course>
  <speed>25.61</speed>
  <fix>3d</fix>
</trkpt>
<trkpt lat="-27.2735317" lon="151.285507">
  <ele>376.16</ele>
  <time>2026-09-01T19:57:40Z</time>
  <course>97.34</course>
  <speed>25.46781890936089</speed>
  <fix>3d</fix>
</trkpt>
<trkpt lat="-27.2735221" lon="151.2854345">
  <ele>376.39</ele>
  <time>2026-09-01T19:57:40Z</time>
  <course>102.85</course>
  <speed>25.61</speed>
  <fix>3d</fix>
</trkpt>
<trkpt lat="-27.2735333" lon="151.2855326">
  <ele>376.08</ele>
  <time>2026-09-01T19:57:40Z</time>
  <course>94.88</course>
  <speed>25.434671218633824</speed>
  <fix>3d</fix>
</trkpt>
<trkpt lat="-27.2735301" lon="151.2854854">
  <ele>376.26</ele>
  <time>2026-09-01T19:57:40Z</time>
  <course>97.42</course>
  <speed>25.56</speed>
  <fix>3d</fix>
</trkpt>
<trkpt lat="-27.2735338" lon="151.2855583">
  <ele>376.0</ele>
  <time>2026-09-01T19:57:40Z</time>
  <course>92.6</course>
  <speed>25.40004921255075</speed>
  <fix>3d</fix>
</trkpt>
<trkpt lat="-27.2735301" lon="151.2854854">
  <ele>376.26</ele>
  <time>2026-09-01T19:57:40Z</time>
  <course>97.42</course>
  <speed>25.56</speed>
  <fix>3d</fix>
</trkpt>
<trkpt lat="-27.2735335" lon="151.285584">
  <ele>375.91</ele>
  <time>2026-09-01T19:57:40Z</time>
  <course>90.49</course>
  <speed>25.357428891746892</speed>
  <fix>3d</fix>
</trkpt>
<trkpt lat="-27.273534" lon="151.2855368">
  <ele>376.11</ele>
  <time>2026-09-01T19:57:40Z</time>
  <course>92.34</course>
  <speed>25.49</speed>
  <fix>3d</fix>
</trkpt>
<trkpt lat="-27.2735323" lon="151.2856096">
  <ele>375.82</ele>
  <time>2026-09-01T19:57:40Z</time>
  <course>88.51</course>
  <speed>25.318414247341792</speed>
  <fix>3d</fix>
</trkpt>
<trkpt lat="-27.273534" lon="151.2855368">
  <ele>376.11</ele>
  <time>2026-09-01T19:57:40Z</time>
  <course>92.34</course>
  <speed>25.49</speed>
  <fix>3d</fix>
</trkpt>
<trkpt lat="-27.2735303" lon="151.2856352">
  <ele>375.71</ele>
  <time>2026-09-01T19:57:40Z</time>
  <course>86.55</course>
  <speed>25.267910479499488</speed>
  <fix>3d</fix>
</trkpt>
<trkpt lat="-27.2735341" lon="151.2855884">
  <ele>375.94</ele>
  <time>2026-09-01T19:57:40Z</time>
  <course>87.68</course>
  <speed>25.41</speed>
  <fix>3d</fix>
</trkpt>
<trkpt lat="-27.2735275" lon="151.2856605">
  <ele>375.6</ele>
  <time>2026-09-01T19:57:40Z</time>
  <course>84.73</course>
  <speed>25.222499876102685</speed>
  <fix>3d</fix>
</trkpt>
<trkpt lat="-27.2735341" lon="151.2855884">
  <ele>375.94</ele>
  <time>2026-09-01T19:57:40Z</time>
  <course>87.68</course>
  <speed>25.41</speed>
  <fix>3d</fix>
</trkpt>
<trkpt lat="-27.2735242" lon="151.2856858">
  <ele>375.48</ele>
  <time>2026-09-01T19:57:40Z</time>
  <course>83.03</course>
  <speed>25.16359473525196</speed>
  <fix>3d</fix>
</trkpt>
<trkpt lat="-27.2735306" lon="151.2856396">
  <ele>375.76</ele>
  <time>2026-09-01T19:57:40Z</time>
  <course>83.53</course>
  <speed>25.31</speed>
  <fix>3d</fix>
</trkpt>
<trkpt lat="-27.27352" lon="151.2857108">
  <ele>375.36</ele>
  <time>2026-09-01T19:57:40Z</time>
  <course>81.49</course>
  <speed>25.114780508696466</speed>
  <fix>3d</fix>
</trkpt>
<trkpt lat="-27.2735306" lon="151.2856396">
  <ele>375.76</ele>
  <time>2026-09-01T19:57:40Z</time>
  <course>83.53</course>
  <speed>25.31</speed>
  <fix>3d</fix>
</trkpt>
<trkpt lat="-27.2735152" lon="151.2857357">
  <ele>375.22</ele>
  <time>2026-09-01T19:57:40Z</time>
  <course>80.04</course>
  <speed>25.07483599148756</speed>
  <fix>3d</fix>
</trkpt>
<trkpt lat="-27.273524" lon="151.28569">
  <ele>375.54</ele>
  <time>2026-09-01T19:57:40Z</time>
  <course>79.87</course>
  <speed>25.2</speed>
  <fix>3d</fix>
</trkpt>
<trkpt lat="-27.2735099" lon="151.2857603">
  <ele>375.07</ele>
  <time>2026-09-01T19:57:40Z</time>
  <course>78.59</course>
  <speed>25.02309733026669</speed>
  <fix>3d</fix>
</trkpt>
<trkpt lat="-27.273524" lon="151.28569">
  <ele>375.54</ele>
  <time>2026-09-01T19:57:40Z</time>
  <course>79.87</course>
  <speed>25.2</speed>
  <fix>3d</fix>
</trkpt>
<trkpt lat="-27.2735041" lon="151.2857848">
  <ele>374.9</ele>
  <time>2026-09-01T19:57:40Z</time>
  <course>77.2</course>
  <speed>24.985950051979213</speed>
  <fix>3d</fix>
</trkpt>
<trkpt lat="-27.2735148" lon="151.2857397">
  <ele>375.28</ele>
  <time>2026-09-01T19:57:40Z</time>
  <course>76.68</course>
  <speed>25.1</speed>
  <fix>3d</fix>
</trkpt>
<trkpt lat="-27.2734977" lon="151.285809">
  <ele>374.73</ele>
  <time>2026-09-01T19:57:40Z</time>
  <course>75.93</course>
  <speed>24.938484316413454</speed>
  <fix>3d</fix>
</trkpt>
<trkpt lat="-27.2735148" lon="151.2857397">
  <ele>375.28</ele>
  <time>2026-09-01T19:57:40Z</time>
  <course>76.68</course>
  <speed>25.1</speed>
  <fix>3d</fix>
</trkpt>
<trkpt lat="-27.273491" lon="151.2858329">
  <ele>374.54</ele>
  <time>2026-09-01T19:57:40Z</time>
  <course>74.71</course>
  <speed>24.909429941289304</speed>
  <fix>3d</fix>
</trkpt>
<trkpt lat="-27.2735033" lon="151.2857887">
  <ele>374.99</ele>
  <time>2026-09-01T19:57:40Z</time>
  <course>73.89</course>
  <speed>25.0</speed>
  <fix>3d</fix>
</trkpt>
<trkpt lat="-27.2734838" lon="151.2858568">
  <ele>374.34</ele>
  <time>2026-09-01T19:57:40Z</time>
  <course>73.49</course>
  <speed>24.87445476789391</speed>
  <fix>3d</fix>
</trkpt>
<trkpt lat="-27.2735033" lon="151.2857887">
  <ele>374.99</ele>
  <time>2026-09-01T19:57:40Z</time>
  <course>73.89</course>
  <speed>25.0</speed>
  <fix>3d</fix>
</trkpt>
<trkpt lat="-27.2734762" lon="151.2858804">
  <ele>374.12</ele>
  <time>2026-09-01T19:57:40Z</time>
  <course>72.32</course>
  <speed>24.851418470582317</speed>
  <fix>3d</fix>
</trkpt>
<trkpt lat="-27.2734899" lon="151.2858368">
  <ele>374.64</ele>
  <time>2026-09-01T19:57:40Z</time>
  <course>71.43</course>
  <speed>24.91</speed>
  <fix>3d</fix>
</trkpt>
<trkpt lat="-27.2734682" lon="151.2859039">
  <ele>373.91</ele>
  <time>2026-09-01T19:57:40Z</time>
  <course>71.18</course>
  <speed>24.833449216731857</speed>
  <fix>3d</fix>
</trkpt>
<trkpt lat="-27.2734899" lon="151.2858368">
  <ele>374.64</ele>
  <time>2026-09-01T19:57:40Z</time>
  <course>71.43</course>
  <speed>24.91</speed>
  <fix>3d</fix>
</trkpt>
<trkpt lat="-27.2734598" lon="151.2859274">
  <ele>373.68</ele>
  <time>2026-09-01T19:57:40Z</time>
  <course>70.07</course>
  <speed>24.825464748922627</speed>
  <fix>3d</fix>
</trkpt>
<trkpt lat="-27.2734749" lon="151.2858842">
  <ele>374.24</ele>
  <time>2026-09-01T19:57:40Z</time>
  <course>69.22</course>
  <speed>24.85</speed>
  <fix>3d</fix>
</trkpt>
<trkpt lat="-27.273451" lon="151.2859505">
  <ele>373.46</ele>
  <time>2026-09-01T19:57:40Z</time>
  <course>69.06</course>
  <speed>24.835478654537745</speed>
  <fix>3d</fix>
</trkpt>
<trkpt lat="-27.2734749" lon="151.2858842">
  <ele>374.24</ele>
  <time>2026-09-01T19:57:40Z</time>
  <course>69.22</course>
  <speed>24.85</speed>
  <fix>3d</fix>
</trkpt>
<trkpt lat="-27.273442" lon="151.2859735">
  <ele>373.23</ele>
  <time>2026-09-01T19:57:40Z</time>
  <course>68.05</course>
  <speed>24.834850512938466</speed>
  <fix>3d</fix>
</trkpt>
<trkpt lat="-27.2734583" lon="151.2859308">
  <ele>373.81</ele>
  <time>2026-09-01T19:57:40Z</time>
  <course>67.19</course>
  <speed>24.82</speed>
  <fix>3d</fix>
</trkpt>
<trkpt lat="-27.2734326" lon="151.2859963">
  <ele>373.0</ele>
  <time>2026-09-01T19:57:40Z</time>
  <course>67.06</course>
  <speed>24.850050301759953</speed>
  <fix>3d</fix>
</trkpt>
<trkpt lat="-27.2734583" lon="151.2859308">
  <ele>373.81</ele>
  <time>2026-09-01T19:57:40Z</time>
  <course>67.19</course>
  <speed>24.82</speed>
  <fix>3d</fix>
</trkpt>
<trkpt lat="-27.2734229" lon="151.286019">
  <ele>372.77</ele>
  <time>2026-09-01T19:57:40Z</time>
  <course>66.11</course>
  <speed>24.86629244579899</speed>
  <fix>3d</fix>
</trkpt>
<trkpt lat="-27.2734404" lon="151.2859767">
  <ele>373.37</ele>
  <time>2026-09-01T19:57:40Z</time>
  <course>65.34</course>
  <speed>24.82</speed>
  <fix>3d</fix>
</trkpt>
<trkpt lat="-27.2734129" lon="151.2860415">
  <ele>372.55</ele>
  <time>2026-09-01T19:57:40Z</time>
  <course>65.24</course>
  <speed>24.887597312717833</speed>
  <fix>3d</fix>
</trkpt>
<trkpt lat="-27.2734404" lon="151.2859767">
  <ele>373.37</ele>
  <time>2026-09-01T19:57:40Z</time>
  <course>65.34</course>
  <speed>24.82</speed>
  <fix>3d</fix>
</trkpt>
<trkpt lat="-27.2734027" lon="151.2860639">
  <ele>372.33</ele>
  <time>2026-09-01T19:57:40Z</time>
  <course>64.44</course>
  <speed>24.926536060993314</speed>
  <fix>3d</fix>
</trkpt>
<trkpt lat="-27.2734212" lon="151.286022">
  <ele>372.93</ele>
  <time>2026-09-01T19:57:40Z</time>
  <course>63.68</course>
  <speed>24.84</speed>
  <fix>3d</fix>
</trkpt>
<trkpt lat="-27.2733922" lon="151.2860861">
  <ele>372.13</ele>
  <time>2026-09-01T19:57:40Z</time>
  <course>63.69</course>
  <speed>24.95532808840629</speed>
  <fix>3d</fix>
</trkpt>
<trkpt lat="-27.2734212" lon="151.286022">
  <ele>372.93</ele>
  <time>2026-09-01T19:57:40Z</time>
  <course>63.68</course>
  <speed>24.84</speed>
  <fix>3d</fix>
</trkpt>
<trkpt lat="-27.2733814" lon="151.2861083">
  <ele>371.93</ele>
  <time>2026-09-01T19:57:40Z</time>
  <course>63.01</course>
  <speed>24.991430531284117</speed>
  <fix>3d</fix>
</trkpt>
<trkpt lat="-27.2734008" lon="151.2860668">
  <ele>372.5</ele>
  <time>2026-09-01T19:57:40Z</time>
  <course>62.19</course>
  <speed>24.88</speed>
  <fix>3d</fix>
</trkpt>
<trkpt lat="-27.2733705" lon="151.2861304">
  <ele>371.74</ele>
  <time>2026-09-01T19:57:40Z</time>
  <course>62.4</course>
  <speed>25.02456792833794</speed>
  <fix>3d</fix>
</trkpt>
<trkpt lat="-27.2734008" lon="151.2860668">
  <ele>372.5</ele>
  <time>2026-09-01T19:57:40Z</time>
  <course>62.19</course>
  <speed>24.88</speed>
  <fix>3d</fix>
</trkpt>
<trkpt lat="-27.2733592" lon="151.2861525">
  <ele>371.56</ele>
  <time>2026-09-01T19:57:40Z</time>
  <course>61.86</course>
  <speed>25.062491895260536</speed>
  <fix>3d</fix>
</trkpt>
<trkpt lat="-27.2733795" lon="151.2861111">
  <ele>372.1</ele>
  <time>2026-09-01T19:57:40Z</time>
  <course>60.91</course>
  <speed>24.94</speed>
  <fix>3d</fix>
</trkpt>
<trkpt lat="-27.2733479" lon="151.2861744">
  <ele>371.4</ele>
  <time>2026-09-01T19:57:40Z</time>
  <course>61.44</course>
  <speed>25.099262937385234</speed>
  <fix>3d</fix>
</trkpt>
<trkpt lat="-27.2733795" lon="151.2861111">
  <ele>372.1</ele>
  <time>2026-09-01T19:57:40Z</time>
  <course>60.91</course>
  <speed>24.94</speed>
  <fix>3d</fix>
</trkpt>
<trkpt lat="-27.2733364" lon="151.2861963">
  <ele>371.25</ele>
  <time>2026-09-01T19:57:40Z</time>
  <course>61.06</course>
  <speed>25.125385569180825</speed>
  <fix>3d</fix>
</trkpt>
<trkpt lat="-27.2733573" lon="151.286155">
  <ele>371.74</ele>
  <time>2026-09-01T19:57:40Z</time>
  <course>59.9</course>
  <speed>25.01</speed>
  <fix>3d</fix>
</trkpt>
<trkpt lat="-27.2733249" lon="151.2862181">
  <ele>371.1</ele>
  <time>2026-09-01T19:57:40Z</time>
  <course>60.79</course>
  <speed>25.162575384884594</speed>
  <fix>3d</fix>
</trkpt>
<trkpt lat="-27.2733573" lon="151.286155">
  <ele>371.74</ele>
  <time>2026-09-01T19:57:40Z</time>
  <course>59.9</course>
  <speed>25.01</speed>
  <fix>3d</fix>
</trkpt>
<trkpt lat="-27.2733133" lon="151.2862399">
  <ele>370.98</ele>
  <time>2026-09-01T19:57:40Z</time>
  <course>60.57</course>
  <speed>25.195088807146522</speed>
  <fix>3d</fix>
</trkpt>
<trkpt lat="-27.2733345" lon="151.2861986">
  <ele>371.43</ele>
  <time>2026-09-01T19:57:40Z</time>
  <course>59.25</course>
  <speed>25.07</speed>
  <fix>3d</fix>
</trkpt>
<trkpt lat="-27.2733017" lon="151.2862617">
  <ele>370.86</ele>
  <time>2026-09-01T19:57:40Z</time>
  <course>60.45</course>
  <speed>25.21928825323982</speed>
  <fix>3d</fix>
</trkpt>
<trkpt lat="-27.2733345" lon="151.2861986">
  <ele>371.43</ele>
  <time>2026-09-01T19:57:40Z</time>
  <course>59.25</course>
  <speed>25.07</speed>
  <fix>3d</fix>
</trkpt>
<trkpt lat="-27.2732901" lon="151.2862836">
  <ele>370.75</ele>
  <time>2026-09-01T19:57:40Z</time>
  <course>60.4</course>
  <speed>25.245546141844507</speed>
  <fix>3d</fix>
</trkpt>
<trkpt lat="-27.2733113" lon="151.2862422">
  <ele>371.17</ele>
  <time>2026-09-01T19:57:40Z</time>
  <course>59.05</course>
  <speed>25.13</speed>
  <fix>3d</fix>
</trkpt>
<trkpt lat="-27.2732788" lon="151.2863054">
  <ele>370.65</ele>
  <time>2026-09-01T19:57:40Z</time>
  <course>60.49</course>
  <speed>25.27276201763472</speed>
  <fix>3d</fix>
</trkpt>
<trkpt lat="-27.2733113" lon="151.2862422">
  <ele>371.17</ele>
  <time>2026-09-01T19:57:40Z</time>
  <course>59.05</course>
  <speed>25.13</speed>
  <fix>3d</fix>
</trkpt>
<trkpt lat="-27.2732674" lon="151.2863274">
  <ele>370.56</ele>
  <time>2026-09-01T19:57:40Z</time>
  <course>60.64</course>
  <speed>25.293163107843984</speed>
  <fix>3d</fix>
</trkpt>
<trkpt lat="-27.2732881" lon="151.2862858">
  <ele>370.96</ele>
  <time>2026-09-01T19:57:40Z</time>
  <course>59.32</course>
  <speed>25.18</speed>
  <fix>3d</fix>
</trkpt>
<trkpt lat="-27.2732561" lon="151.2863496">
  <ele>370.49</ele>
  <time>2026-09-01T19:57:40Z</time>
  <course>60.84</course>
  <speed>25.317681568421705</speed>
  <fix>3d</fix>
</trkpt>
<trkpt lat="-27.2732881" lon="151.2862858">
  <ele>370.96</ele>
  <time>2026-09-01T19:57:40Z</time>
  <course>59.32</course>
  <speed>25.18</speed>
  <fix>3d</fix>
</trkpt>
<trkpt lat="-27.273245" lon="151.2863719">
  <ele>370.42</ele>
  <time>2026-09-01T19:57:40Z</time>
  <course>61.21</course>
  <speed>25.33368113796335</speed>
  <fix>3d</fix>
</trkpt>
<trkpt lat="-27.2732653" lon="151.2863297">
  <ele>370.78</ele>
  <time>2026-09-01T19:57:40Z</time>
  <course>60.04</course>
  <speed>25.23</speed>
  <fix>3d</fix>
</trkpt>
<trkpt lat="-27.2732341" lon="151.2863945">
  <ele>370.36</ele>
  <time>2026-09-01T19:57:40Z</time>
  <course>61.73</course>
  <speed>25.355908581630437</speed>
  <fix>3d</fix>
</trkpt>
<trkpt lat="-27.2732653" lon="151.2863297">
  <ele>370.78</ele>
  <time>2026-09-01T19:57:40Z</time>
  <course>60.04</course>
  <speed>25.23</speed>
  <fix>3d</fix>
</trkpt>
<trkpt lat="-27.2732235" lon="151.2864171">
  <ele>370.32</ele>
  <time>2026-09-01T19:57:40Z</time>
  <course>62.28</course>
  <speed>25.376721616473628</speed>
  <fix>3d</fix>
</trkpt>
<trkpt lat="-27.273243" lon="151.2863742">
  <ele>370.65</ele>
  <time>2026-09-01T19:57:40Z</time>
  <course>61.15</course>
  <speed>25.28</speed>
  <fix>3d</fix>
</trkpt>
<trkpt lat="-27.2732131" lon="151.2864399">
  <ele>370.29</ele>
  <time>2026-09-01T19:57:40Z</time>
  <course>62.87</course>
  <speed>25.392819851288674</speed>
  <fix>3d</fix>
</trkpt>
<trkpt lat="-27.273243" lon="151.2863742">
  <ele>370.65</ele>
  <time>2026-09-01T19:57:40Z</time>
  <course>61.15</course>
  <speed>25.28</speed>
  <fix>3d</fix>
</trkpt>
<trkpt lat="-27.2732031" lon="151.2864629">
  <ele>370.26</ele>
  <time>2026-09-01T19:57:40Z</time>
  <course>63.62</course>
  <speed>25.409608418863918</speed>
  <fix>3d</fix>
</trkpt>
<trkpt lat="-27.2732215" lon="151.2864193">
  <ele>370.55</ele>
  <time>2026-09-01T19:57:40Z</time>
  <course>62.57</course>
  <speed>25.32</speed>
  <fix>3d</fix>
</trkpt>
<trkpt lat="-27.2731933" lon="151.286486">
  <ele>370.24</ele>
  <time>2026-09-01T19:57:40Z</time>
  <course>64.45</course>
  <speed>25.423565839590637</speed>
  <fix>3d</fix>
</trkpt>
<trkpt lat="-27.2732215" lon="151.2864193">
  <ele>370.55</ele>
  <time>2026-09-01T19:57:40Z</time>
  <course>62.57</course>
  <speed>25.32</speed>
  <fix>3d</fix>
</trkpt>
<trkpt lat="-27.2731838" lon="151.2865093">
  <ele>370.23</ele>
  <time>2026-09-01T19:57:40Z</time>
  <course>65.35</course>
  <speed>25.440636784483203</speed>
  <fix>3d</fix>
</trkpt>
<trkpt lat="-27.2732011" lon="151.2864651">
  <ele>370.5</ele>
  <time>2026-09-01T19:57:40Z</time>
  <course>64.23</course>
  <speed>25.36</speed>
  <fix>3d</fix>
</trkpt>
<trkpt lat="-27.2731747" lon="151.2865329">
  <ele>370.23</ele>
  <time>2026-09-01T19:57:40Z</time>
  <course>66.22</course>
  <speed>25.45703242720958</speed>
  <fix>3d</fix>
</trkpt>
<trkpt lat="-27.2732011" lon="151.2864651">
  <ele>370.5</ele>
  <time>2026-09-01T19:57:40Z</time>
  <course>64.23</course>
  <speed>25.36</speed>
  <fix>3d</fix>
</trkpt>
<trkpt lat="-27.273166" lon="151.2865566">
  <ele>370.24</ele>
  <time>2026-09-01T19:57:40Z</time>
  <course>67.16</course>
  <speed>25.468117323430093</speed>
  <fix>3d</fix>
</trkpt>
<trkpt lat="-27.273182" lon="151.2865116">
  <ele>370.48</ele>
  <time>2026-09-01T19:57:40Z</time>
  <course>66.11</course>
  <speed>25.4</speed>
  <fix>3d</fix>
</trkpt>
<trkpt lat="-27.2731576" lon="151.2865805">
  <ele>370.26</ele>
  <time>2026-09-01T19:57:40Z</time>
  <course>68.17</course>
  <speed>25.479978414433557</speed>
  <fix>3d</fix>
</trkpt>
<trkpt lat="-27.273182" lon="151.2865116">
  <ele>370.48</ele>
  <time>2026-09-01T19:57:40Z</time>
  <course>66.11</course>
  <speed>25.4</speed>
  <fix>3d</fix>
</trkpt>
<trkpt lat="-27.2731497" lon="151.2866046">
  <ele>370.28</ele>
  <time>2026-09-01T19:57:40Z</time>
  <course>69.24</course>
  <speed>25.480847709603385</speed>
  <fix>3d</fix>
</trkpt>
<trkpt lat="-27.2731642" lon="151.286559">
  <ele>370.49</ele>
  <time>2026-09-01T19:57:40Z</time>
  <course>68.16</course>
  <speed>25.43</speed>
  <fix>3d</fix>
</trkpt>
<trkpt lat="-27.2731421" lon="151.2866289">
  <ele>370.32</ele>
  <time>2026-09-01T19:57:40Z</time>
  <course>70.27</course>
  <speed>25.491153367393952</speed>
  <fix>3d</fix>
</trkpt>
<trkpt lat="-27.2731642" lon="151.286559">
  <ele>370.49</ele>
  <time>2026-09-01T19:57:40Z</time>
  <course>68.16</course>
  <speed>25.43</speed>
  <fix>3d</fix>
</trkpt>
<trkpt lat="-27.273135" lon="151.2866533">
  <ele>370.36</ele>
  <time>2026-09-01T19:57:40Z</time>
  <course>71.39</course>
  <speed>25.4953584010894</speed>
  <fix>3d</fix>
</trkpt>
<trkpt lat="-27.273148" lon="151.2866073">
  <ele>370.53</ele>
  <time>2026-09-01T19:57:40Z</time>
  <course>70.34</course>
  <speed>25.46</speed>
  <fix>3d</fix>
</trkpt>
<trkpt lat="-27.2731283" lon="151.2866779">
  <ele>370.4</ele>
  <time>2026-09-01T19:57:40Z</time>
  <course>72.56</course>
  <speed>25.5</speed>
  <fix>3d</fix>
</trkpt>
<trkpt lat="-27.273148" lon="151.2866073">
  <ele>370.53</ele>
  <time>2026-09-01T19:57:40Z</time>
  <course>70.34</course>
  <speed>25.46</speed>
  <fix>3d</fix>
</trkpt>
<trkpt lat="-27.273122" lon="151.2867026">
  <ele>370.46</ele>
  <time>2026-09-01T19:57:40Z</time>
  <course>73.68</course>
  <speed>25.4996862725799</speed>
  <fix>3d</fix>
</trkpt>
<trkpt lat="-27.2731334" lon="151.2866561">
  <ele>370.6</ele>
  <time>2026-09-01T19:57:40Z</time>
  <course>72.61</course>
  <speed>25.49</speed>
  <fix>3d</fix>
</trkpt>
<trkpt lat="-27.2731163" lon="151.2867275">
  <ele>370.52</ele>
  <time>2026-09-01T19:57:40Z</time>
  <course>74.7</course>
  <speed>25.502646921447194</speed>
  <fix>3d</fix>
</trkpt>
<trkpt lat="-27.2731334" lon="151.2866561">
  <ele>370.6</ele>
  <time>2026-09-01T19:57:40Z</time>
  <course>72.61</course>
  <speed>25.49</speed>
  <fix>3d</fix>
</trkpt>
<trkpt lat="-27.2731109" lon="151.2867525">
  <ele>370.57</ele>
  <time>2026-09-01T19:57:40Z</time>
  <course>75.78</course>
  <speed>25.500627443261077</speed>
  <fix>3d</fix>
</trkpt>
<trkpt lat="-27.2731206" lon="151.2867056">
  <ele>370.7</ele>
  <time>2026-09-01T19:57:40Z</time>
  <course>74.93</course>
  <speed>25.51</speed>
  <fix>3d</fix>
</trkpt>
<trkpt lat="-27.2731059" lon="151.2867777">
  <ele>370.63</ele>
  <time>2026-09-01T19:57:40Z</time>
  <course>76.93</course>
  <speed>25.49387573516432</speed>
  <fix>3d</fix>
</trkpt>
<trkpt lat="-27.2731206" lon="151.2867056">
  <ele>370.7</ele>
  <time>2026-09-01T19:57:40Z</time>
  <course>74.93</course>
  <speed>25.51</speed>
  <fix>3d</fix>
</trkpt>
<trkpt lat="-27.2731014" lon="151.2868029">
  <ele>370.69</ele>
  <time>2026-09-01T19:57:40Z</time>
  <course>78.04</course>
  <speed>25.4852624079094</speed>
  <fix>3d</fix>
</trkpt>
<trkpt lat="-27.2731096" lon="151.2867556">
  <ele>370.8</ele>
  <time>2026-09-01T19:57:40Z</time>
  <course>77.22</course>
  <speed>25.52</speed>
  <fix>3d</fix>
</trkpt>
<trkpt lat="-27.2730974" lon="151.2868282">
  <ele>370.76</ele>
  <time>2026-09-01T19:57:40Z</time>
  <course>79.15</course>
  <speed>25.476911115753413</speed>
  <fix>3d</fix>
</trkpt>
<trkpt lat="-27.2731096" lon="151.2867556">
  <ele>370.8</ele>
  <time>2026-09-01T19:57:40Z</time>
  <course>77.22</course>
  <speed>25.52</speed>
  <fix>3d</fix>
</trkpt>
<trkpt lat="-27.2730938" lon="151.2868536">
  <ele>370.83</ele>
  <time>2026-09-01T19:57:40Z</time>
  <course>80.28</course>
  <speed>25.47017864091259</speed>
  <fix>3d</fix>
</trkpt>
<trkpt lat="-27.2731004" lon="151.2868061">
  <ele>370.92</ele>
  <time>2026-09-01T19:57:40Z</time>
  <course>79.5</course>
  <speed>25.52</speed>
  <fix>3d</fix>
</trkpt>
<trkpt lat="-27.2730907" lon="151.2868791">
  <ele>370.9</ele>
  <time>2026-09-01T19:57:40Z</time>
  <course>81.36</course>
  <speed>25.454486834348085</speed>
  <fix>3d</fix>
</trkpt>
<trkpt lat="-27.2731004" lon="151.2868061">
  <ele>370.92</ele>
  <time>2026-09-01T19:57:40Z</time>
  <course>79.5</course>
  <speed>25.52</speed>
  <fix>3d</fix>
</trkpt>
<trkpt lat="-27.2730879" lon="151.2869048">
  <ele>370.97</ele>
  <time>2026-09-01T19:57:40Z</time>
  <course>82.51</course>
  <speed>25.446864246896908</speed>
  <fix>3d</fix>
</trkpt>
<trkpt lat="-27.2730929" lon="151.286857">
  <ele>371.05</ele>
  <time>2026-09-01T19:57:40Z</time>
  <course>81.77</course>
  <speed>25.52</speed>
  <fix>3d</fix>
</trkpt>
<trkpt lat="-27.2730857" lon="151.2869304">
  <ele>371.04</ele>
  <time>2026-09-01T19:57:40Z</time>
  <course>83.58</course>
  <speed>25.42973456408855</speed>
  <fix>3d</fix>
</trkpt>
<trkpt lat="-27.2730929" lon="151.286857">
  <ele>371.05</ele>
  <time>2026-09-01T19:57:40Z</time>
  <course>81.77</course>
  <speed>25.52</speed>
  <fix>3d</fix>
</trkpt>
<trkpt lat="-27.2730838" lon="151.286956">
  <ele>371.1</ele>
  <time>2026-09-01T19:57:40Z</time>
  <course>84.63</course>
  <speed>25.42239170495176</speed>
  <fix>3d</fix>
</trkpt>
<trkpt lat="-27.2730873" lon="151.2869081">
  <ele>371.18</ele>
  <time>2026-09-01T19:57:40Z</time>
  <course>83.98</course>
  <speed>25.51</speed>
  <fix>3d</fix>
</trkpt>
<trkpt lat="-27.2730824" lon="151.2869817">
  <ele>371.17</ele>
  <time>2026-09-01T19:57:40Z</time>
  <course>85.68</course>
  <speed>25.414303059497815</speed>
  <fix>3d</fix>
</trkpt>
<trkpt lat="-27.2730873" lon="151.2869081">
  <ele>371.18</ele>
  <time>2026-09-01T19:57:40Z</time>
  <course>83.98</course>
  <speed>25.51</speed>
  <fix>3d</fix>
</trkpt>
<trkpt lat="-27.2730814" lon="151.2870073">
  <ele>371.23</ele>
  <time>2026-09-01T19:57:40Z</time>
  <course>86.66</course>
  <speed>25.4042240582152</speed>
  <fix>3d</fix>
</trkpt>
<trkpt lat="-27.2730833" lon="151.2869595">
  <ele>371.3</ele>
  <time>2026-09-01T19:57:40Z</time>
  <course>86.15</course>
  <speed>25.5</speed>
  <fix>3d</fix>
</trkpt>
<trkpt lat="-27.2730808" lon="151.287033">
  <ele>371.29</ele>
  <time>2026-09-01T19:57:40Z</time>
  <course>87.59</course>
  <speed>25.383311446696624</speed>
  <fix>3d</fix>
</trkpt>
<trkpt lat="-27.2730833" lon="151.2869595">
  <ele>371.3</ele>
  <time>2026-09-01T19:57:40Z</time>
  <course>86.15</course>
  <speed>25.5</speed>
  <fix>3d</fix>
</trkpt>
<trkpt lat="-27.2730806" lon="151.2870587">
  <ele>371.34</ele>
  <time>2026-09-01T19:57:40Z</time>
  <course>88.56</course>
  <speed>25.38</speed>
  <fix>3d</fix>
</trkpt>
<trkpt lat="-27.2730811" lon="151.2870109">
  <ele>371.41</ele>
  <time>2026-09-01T19:57:40Z</time>
  <course>88.24</course>
  <speed>25.48</speed>
  <fix>3d</fix>
</trkpt>
<trkpt lat="-27.2730808" lon="151.2870844">
  <ele>371.39</ele>
  <time>2026-09-01T19:57:40Z</time>
  <course>89.52</course>
  <speed>25.363154377955436</speed>
  <fix>3d</fix>
</trkpt>
<trkpt lat="-27.2730811" lon="151.2870109">
  <ele>371.41</ele>
  <time>2026-09-01T19:57:40Z</time>
  <course>88.24</course>
  <speed>25.48</speed>
  <fix>3d</fix>
</trkpt>
<trkpt lat="-27.2730813" lon="151.28711">
  <ele>371.44</ele>
  <time>2026-09-01T19:57:40Z</time>
  <course>90.52</course>
  <speed>25.352942629998594</speed>
  <fix>3d</fix>
</trkpt>
<trkpt lat="-27.2730805" lon="151.2870625">
  <ele>371.53</ele>
  <time>2026-09-01T19:57:40Z</time>
  <course>90.22</course>
  <speed>25.47</speed>
  <fix>3d</fix>
</trkpt>
<trkpt lat="-27.2730823" lon="151.2871357">
  <ele>371.48</ele>
  <time>2026-09-01T19:57:40Z</time>
  <course>91.47</course>
  <speed>25.348895439446665</speed>
  <fix>3d</fix>
</trkpt>
<trkpt lat="-27.2730805" lon="151.2870625">
  <ele>371.53</ele>
  <time>2026-09-01T19:57:40Z</time>
  <course>90.22</course>
  <speed>25.47</speed>
  <fix>3d</fix>
</trkpt>
<trkpt lat="-27.2730835" lon="151.2871613">
  <ele>371.52</ele>
  <time>2026-09-01T19:57:40Z</time>
  <course>92.38</course>
  <speed>25.33993291230267</speed>
  <fix>3d</fix>
</trkpt>
<trkpt lat="-27.2730813" lon="151.2871141">
  <ele>371.62</ele>
  <time>2026-09-01T19:57:40Z</time>
  <course>92.08</course>
  <speed>25.45</speed>
  <fix>3d</fix>
</trkpt>
<trkpt lat="-27.273085" lon="151.2871869">
  <ele>371.56</ele>
  <time>2026-09-01T19:57:40Z</time>
  <course>93.31</course>
  <speed>25.316763221233476</speed>
  <fix>3d</fix>
</trkpt>
<trkpt lat="-27.2730813" lon="151.2871141">
  <ele>371.62</ele>
  <time>2026-09-01T19:57:40Z</time>
  <course>92.08</course>
  <speed>25.45</speed>
  <fix>3d</fix>
</trkpt>
<trkpt lat="-27.273087" lon="151.2872125">
  <ele>371.6</ele>
  <time>2026-09-01T19:57:40Z</time>
  <course>94.24</course>
  <speed>25.309336222034744</speed>
  <fix>3d</fix>
</trkpt>
<trkpt lat="-27.2730837" lon="151.2871654">
  <ele>371.7</ele>
  <time>2026-09-01T19:57:40Z</time>
  <course>93.88</course>
  <speed>25.43</speed>
  <fix>3d</fix>
</trkpt>
<trkpt lat="-27.2730893" lon="151.287238">
  <ele>371.64</ele>
  <time>2026-09-01T19:57:40Z</time>
  <course>95.07</course>
  <speed>25.2966578820207</speed>
  <fix>3d</fix>
</trkpt>
<trkpt lat="-27.2730837" lon="151.2871654">
  <ele>371.7</ele>
  <time>2026-09-01T19:57:40Z</time>
  <course>93.88</course>
  <speed>25.43</speed>
  <fix>3d</fix>
</trkpt>
<trkpt lat="-27.2730919" lon="151.2872635">
  <ele>371.67</ele>
  <time>2026-09-01T19:57:40Z</time>
  <course>95.86</course>
  <speed>25.29697610387455</speed>
  <fix>3d</fix>
</trkpt>
<trkpt lat="-27.2730875" lon="151.2872166">
  <ele>371.77</ele>
  <time>2026-09-01T19:57:40Z</time>
  <course>95.61</course>
  <speed>25.41</speed>
  <fix>3d</fix>
</trkpt>
<trkpt lat="-27.2730949" lon="151.2872889">
  <ele>371.7</ele>
  <time>2026-09-01T19:57:40Z</time>
  <course>96.65</course>
  <speed>25.29094106592319</speed>
  <fix>3d</fix>
</trkpt>
<trkpt lat="-27.2730875" lon="151.2872166">
  <ele>371.77</ele>
  <time>2026-09-01T19:57:40Z</time>
  <course>95.61</course>
  <speed>25.41</speed>
  <fix>3d</fix>
</trkpt>
<trkpt lat="-27.2730981" lon="151.2873143">
  <ele>371.72</ele>
  <time>2026-09-01T19:57:40Z</time>
  <course>97.39</course>
  <speed>25.286617013748597</speed>
  <fix>3d</fix>
</trkpt>
<trkpt lat="-27.2730927" lon="151.2872676">
  <ele>371.83</ele>
  <time>2026-09-01T19:57:40Z</time>
  <course>97.26</course>
  <speed>25.39</speed>
  <fix>3d</fix>
</trkpt>
<trkpt lat="-27.2731017" lon="151.2873396">
  <ele>371.74</ele>
  <time>2026-09-01T19:57:40Z</time>
  <course>98.12</course>
  <speed>25.27496983183165</speed>
  <fix>3d</fix>
</trkpt>
<trkpt lat="-27.2730927" lon="151.2872676">
  <ele>371.83</ele>
  <time>2026-09-01T19:57:40Z</time>
  <course>97.26</course>
  <speed>25.39</speed>
  <fix>3d</fix>
</trkpt>
<trkpt lat="-27.2731055" lon="151.2873649">
  <ele>371.76</ele>
  <time>2026-09-01T19:57:40Z</time>
  <course>98.84</course>
  <speed>25.26554373054338</speed>
  <fix>3d</fix>
</trkpt>
<trkpt lat="-27.273099" lon="151.2873184">
  <ele>371.88</ele>
  <time>2026-09-01T19:57:40Z</time>
  <course>98.78</course>
  <speed>25.38</speed>
  <fix>3d</fix>
</trkpt>
<trkpt lat="-27.2731096" lon="151.2873901">
  <ele>371.78</ele>
  <time>2026-09-01T19:57:40Z</time>
  <course>99.57</course>
  <speed>25.256153705582328</speed>
  <fix>3d</fix>
</trkpt>
<trkpt lat="-27.273099" lon="151.2873184">
  <ele>371.88</ele>
  <time>2026-09-01T19:57:40Z</time>
  <course>98.78</course>
  <speed>25.38</speed>
  <fix>3d</fix>
</trkpt>
<trkpt lat="-27.2731139" lon="151.287415">
  <ele>371.8</ele>
  <time>2026-09-01T19:57:40Z</time>
  <course>100.26</course>
  <speed>25.25787995853967</speed>
  <fix>3d</fix>
</trkpt>
<trkpt lat="-27.2731065" lon="151.287369">
  <ele>371.91</ele>
  <time>2026-09-01T19:57:40Z</time>
  <course>100.19</course>
  <speed>25.36</speed>
  <fix>3d</fix>
</trkpt>
<trkpt lat="-27.2731184" lon="151.2874401">
  <ele>371.81</ele>
  <time>2026-09-01T19:57:40Z</time>
  <course>100.92</course>
  <speed>25.250760384590404</speed>
  <fix>3d</fix>
</trkpt>
<trkpt lat="-27.2731065" lon="151.287369">
  <ele>371.91</ele>
  <time>2026-09-01T19:57:40Z</time>
  <course>100.19</course>
  <speed>25.36</speed>
  <fix>3d</fix>
</trkpt>
<trkpt lat="-27.2731233" lon="151.2874651">
  <ele>371.82</ele>
  <time>2026-09-01T19:57:40Z</time>
  <course>101.55</course>
  <speed>25.246459157671993</speed>
  <fix>3d</fix>
</trkpt>
<trkpt lat="-27.2731151" lon="151.2874193">
  <ele>371.94</ele>
  <time>2026-09-01T19:57:40Z</time>
  <course>101.49</course>
  <speed>25.34</speed>
  <fix>3d</fix>
</trkpt>
<trkpt lat="-27.2731283" lon="151.2874901">
  <ele>371.83</ele>
  <time>2026-09-01T19:57:40Z</time>
  <course>102.16</course>
  <speed>25.242733607911802</speed>
  <fix>3d</fix>
</trkpt>
<trkpt lat="-27.2731151" lon="151.2874193">
  <ele>371.94</ele>
  <time>2026-09-01T19:57:40Z</time>
  <course>101.49</course>
  <speed>25.34</speed>
  <fix>3d</fix>
</trkpt>
<trkpt lat="-27.2731336" lon="151.2875154">
  <ele>371.83</ele>
  <time>2026-09-01T19:57:40Z</time>
  <course>102.76</course>
  <speed>25.236951083678868</speed>
  <fix>3d</fix>
</trkpt>
<trkpt lat="-27.2731246" lon="151.2874694">
  <ele>371.95</ele>
  <time>2026-09-01T19:57:40Z</time>
  <course>102.69</course>
  <speed>25.33</speed>
  <fix>3d</fix>
</trkpt>
<trkpt lat="-27.2731391" lon="151.2875402">
  <ele>371.84</ele>
  <time>2026-09-01T19:57:40Z</time>
  <course>103.29</course>
  <speed>25.23098293765029</speed>
  <fix>3d</fix>
</trkpt>
<trkpt lat="-27.2731246" lon="151.2874694">
  <ele>371.95</ele>
  <time>2026-09-01T19:57:40Z</time>
  <course>102.69</course>
  <speed>25.33</speed>
  <fix>3d</fix>
</trkpt>
<trkpt lat="-27.2731448" lon="151.287565">
  <ele>371.85</ele>
  <time>2026-09-01T19:57:40Z</time>
  <course>103.77</course>
  <speed>25.231745876970148</speed>
  <fix>3d</fix>
</trkpt>
<trkpt lat="-27.2731351" lon="151.2875192">
  <ele>371.96</ele>
  <time>2026-09-01T19:57:40Z</time>
  <course>103.8</course>
  <speed>25.32</speed>
  <fix>3d</fix>
</trkpt>
<trkpt lat="-27.2731506" lon="151.2875897">
  <ele>371.86</ele>
  <time>2026-09-01T19:57:40Z</time>
  <course>104.27</course>
  <speed>25.23419307209961</speed>
  <fix>3d</fix>
</trkpt>
<trkpt lat="-27.2731351" lon="151.2875192">
  <ele>371.96</ele>
  <time>2026-09-01T19:57:40Z</time>
  <course>103.8</course>
  <speed>25.32</speed>
  <fix>3d</fix>
</trkpt>
<trkpt lat="-27.2731566" lon="151.2876144">
  <ele>371.86</ele>
  <time>2026-09-01T19:57:40Z</time>
  <course>104.78</course>
  <speed>25.233014088689444</speed>
  <fix>3d</fix>
</trkpt>
<trkpt lat="-27.2731464" lon="151.2875687">
  <ele>371.97</ele>
  <time>2026-09-01T19:57:40Z</time>
  <course>104.8</course>
  <speed>25.31</speed>
  <fix>3d</fix>
</trkpt>
<trkpt lat="-27.2731628" lon="151.287639">
  <ele>371.87</ele>
  <time>2026-09-01T19:57:40Z</time>
  <course>105.27</course>
  <speed>25.230497418798546</speed>
  <fix>3d</fix>
</trkpt>
<trkpt lat="-27.2731464" lon="151.2875687">
  <ele>371.97</ele>
  <time>2026-09-01T19:57:40Z</time>
  <course>104.8</course>
  <speed>25.31</speed>
  <fix>3d</fix>
</trkpt>
<trkpt lat="-27.2731692" lon="151.2876636">
  <ele>371.88</ele>
  <time>2026-09-01T19:57:40Z</time>
  <course>105.71</course>
  <speed>25.238829212148488</speed>
  <fix>3d</fix>
</trkpt>
<trkpt lat="-27.2731583" lon="151.2876182">
  <ele>371.98</ele>
  <time>2026-09-01T19:57:40Z</time>
  <course>105.68</course>
  <speed>25.3</speed>
  <fix>3d</fix>
</trkpt>
<trkpt lat="-27.2731756" lon="151.2876881">
  <ele>371.88</ele>
  <time>2026-09-01T19:57:40Z</time>
  <course>106.08</course>
  <speed>25.230239792756628</speed>
  <fix>3d</fix>
</trkpt>
<trkpt lat="-27.2731583" lon="151.2876182">
  <ele>371.98</ele>
  <time>2026-09-01T19:57:40Z</time>
  <course>105.68</course>
  <speed>25.3</speed>
  <fix>3d</fix>
</trkpt>
<trkpt lat="-27.2731822" lon="151.2877126">
  <ele>371.89</ele>
  <time>2026-09-01T19:57:40Z</time>
  <course>106.43</course>
  <speed>25.241665951359074</speed>
  <fix>3d</fix>
</trkpt>
<trkpt lat="-27.2731709" lon="151.2876674">
  <ele>371.99</ele>
  <time>2026-09-01T19:57:40Z</time>
  <course>106.47</course>
  <speed>25.3</speed>
  <fix>3d</fix>
</trkpt>
<trkpt lat="-27.2731889" lon="151.287737">
  <ele>371.89</ele>
  <time>2026-09-01T19:57:40Z</time>
  <course>106.77</course>
  <speed>25.238448842985576</speed>
  <fix>3d</fix>
</trkpt>
<trkpt lat="-27.2731709" lon="151.2876674">
  <ele>371.99</ele>
  <time>2026-09-01T19:57:40Z</time>
  <course>106.47</course>
  <speed>25.3</speed>
  <fix>3d</fix>
</trkpt>
<trkpt lat="-27.2731958" lon="151.2877615">
  <ele>371.9</ele>
  <time>2026-09-01T19:57:40Z</time>
  <course>107.08</course>
  <speed>25.245407503147973</speed>
  <fix>3d</fix>
</trkpt>
<trkpt lat="-27.2731841" lon="151.2877164">
  <ele>372.0</ele>
  <time>2026-09-01T19:57:40Z</time>
  <course>107.13</course>
  <speed>25.3</speed>
  <fix>3d</fix>
</trkpt>
<trkpt lat="-27.2732027" lon="151.2877858">
  <ele>371.91</ele>
  <time>2026-09-01T19:57:40Z</time>
  <course>107.4</course>
  <speed>25.240406098159355</speed>
  <fix>3d</fix>
</trkpt>
<trkpt lat="-27.2731841" lon="151.2877164">
  <ele>372.0</ele>
  <time>2026-09-01T19:57:40Z</time>
  <course>107.13</course>
  <speed>25.3</speed>
  <fix>3d</fix>
</trkpt>
<trkpt lat="-27.2732097" lon="151.2878102">
  <ele>371.92</ele>
  <time>2026-09-01T19:57:40Z</time>
  <course>107.65</course>
  <speed>25.24882967584834</speed>
  <fix>3d</fix>
</trkpt>
<trkpt lat="-27.2731977" lon="151.2877651">
  <ele>372.02</ele>
  <time>2026-09-01T19:57:40Z</time>
  <course>107.69</course>
  <speed>25.29</speed>
  <fix>3d</fix>
</trkpt>
<trkpt lat="-27.2732168" lon="151.2878344">
  <ele>371.93</ele>
  <time>2026-09-01T19:57:40Z</time>
  <course>107.92</course>
  <speed>25.24497771835024</speed>
  <fix>3d</fix>
</trkpt>
<trkpt lat="-27.2731977" lon="151.2877651">
  <ele>372.02</ele>
  <time>2026-09-01T19:57:40Z</time>
  <course>107.69</course>
  <speed>25.29</speed>
  <fix>3d</fix>
</trkpt>
<trkpt lat="-27.273224" lon="151.2878587">
  <ele>371.94</ele>
  <time>2026-09-01T19:57:40Z</time>
  <course>108.15</course>
  <speed>25.247780100436554</speed>
  <fix>3d</fix>
</trkpt>
<trkpt lat="-27.2732117" lon="151.2878137">
  <ele>372.03</ele>
  <time>2026-09-01T19:57:40Z</time>
  <course>108.15</course>
  <speed>25.29</speed>
  <fix>3d</fix>
</trkpt>
<trkpt lat="-27.2732312" lon="151.287883">
  <ele>371.95</ele>
  <time>2026-09-01T19:57:40Z</time>
  <course>108.29</course>
  <speed>25.24763751324072</speed>
  <fix>3d</fix>
</trkpt>
<trkpt lat="-27.2732117" lon="151.2878137">
  <ele>372.03</ele>
  <time>2026-09-01T19:57:40Z</time>
  <course>108.15</course>
  <speed>25.29</speed>
  <fix>3d</fix>
</trkpt>
<trkpt lat="-27.2732385" lon="151.2879072">
  <ele>371.95</ele>
  <time>2026-09-01T19:57:40Z</time>
  <course>108.44</course>
  <speed>25.25396206538689</speed>
  <fix>3d</fix>
</trkpt>
<trkpt lat="-27.273226" lon="151.2878622">
  <ele>372.05</ele>
  <time>2026-09-01T19:57:40Z</time>
  <course>108.5</course>
  <speed>25.28</speed>
  <fix>3d</fix>
</trkpt>
<trkpt lat="-27.2732458" lon="151.2879312">
  <ele>371.96</ele>
  <time>2026-09-01T19:57:40Z</time>
  <course>108.63</course>
  <speed>25.25719897375796</speed>
  <fix>3d</fix>
</trkpt>
<trkpt lat="-27.273226" lon="151.2878622">
  <ele>372.05</ele>
  <time>2026-09-01T19:57:40Z</time>
  <course>108.5</course>
  <speed>25.28</speed>
  <fix>3d</fix>
</trkpt>
<trkpt lat="-27.2732531" lon="151.2879554">
  <ele>371.97</ele>
  <time>2026-09-01T19:57:40Z</time>
  <course>108.76</course>
  <speed>25.269976256419394</speed>
  <fix>3d</fix>
</trkpt>
<trkpt lat="-27.2732405" lon="151.2879107">
  <ele>372.07</ele>
  <time>2026-09-01T19:57:40Z</time>
  <course>108.76</course>
  <speed>25.28</speed>
  <fix>3d</fix>
</trkpt>
<trkpt lat="-27.2732605" lon="151.2879796">
  <ele>371.98</ele>
  <time>2026-09-01T19:57:40Z</time>
  <course>108.9</course>
  <speed>25.279596515767416</speed>
  <fix>3d</fix>
</trkpt>
<trkpt lat="-27.2732405" lon="151.2879107">
  <ele>372.07</ele>
  <time>2026-09-01T19:57:40Z</time>
  <course>108.76</course>
  <speed>25.28</speed>
  <fix>3d</fix>
</trkpt>
<trkpt lat="-27.2732679" lon="151.2880038">
  <ele>371.99</ele>
  <time>2026-09-01T19:57:40Z</time>
  <course>108.96</course>
  <speed>25.279782435772663</speed>
  <fix>3d</fix>
</trkpt>
<trkpt lat="-27.2732552" lon="151.287959">
  <ele>372.09</ele>
  <time>2026-09-01T19:57:40Z</time>
  <course>108.92</course>
  <speed>25.28</speed>
  <fix>3d</fix>
</trkpt>
<trkpt lat="-27.2732754" lon="151.2880282">
  <ele>372.0</ele>
  <time>2026-09-01T19:57:40Z</time>
  <course>109.02</course>
  <speed>25.283008127989834</speed>
  <fix>3d</fix>
</trkpt>
<trkpt lat="-27.2732552" lon="151.287959">
  <ele>372.09</ele>
  <time>2026-09-01T19:57:40Z</time>
  <course>108.92</course>
  <speed>25.28</speed>
  <fix>3d</fix>
</trkpt>
<trkpt lat="-27.2732829" lon="151.2880524">
  <ele>372.01</ele>
  <time>2026-09-01T19:57:40Z</time>
  <course>109.0</course>
  <speed>25.286237363435472</speed>
  <fix>3d</fix>
</trkpt>
<trkpt lat="-27.2732699" lon="151.2880073">
  <ele>372.11</ele>
  <time>2026-09-01T19:57:40Z</time>
  <course>109.02</course>
  <speed>25.28</speed>
  <fix>3d</fix>
</trkpt>
<trkpt lat="-27.2732903" lon="151.2880766">
  <ele>372.03</ele>
  <time>2026-09-01T19:57:40Z</time>
  <course>109.01</course>
  <speed>25.27677392390097</speed>
  <fix>3d</fix>
</trkpt>
<trkpt lat="-27.2732699" lon="151.2880073">
  <ele>372.11</ele>
  <time>2026-09-01T19:57:40Z</time>
  <course>109.02</course>
  <speed>25.28</speed>
  <fix>3d</fix>
</trkpt>
<trkpt lat="-27.2732977" lon="151.2881007">
  <ele>372.04</ele>
  <time>2026-09-01T19:57:40Z</time>
  <course>109.01</course>
  <speed>25.2292290805724</speed>
  <fix>3d</fix>
</trkpt>
<trkpt lat="-27.2732848" lon="151.2880556">
  <ele>372.13</ele>
  <time>2026-09-01T19:57:40Z</time>
  <course>109.06</course>
  <speed>25.28</speed>
  <fix>3d</fix>
</trkpt>
<trkpt lat="-27.2733051" lon="151.2881248">
  <ele>372.06</ele>
  <time>2026-09-01T19:57:40Z</time>
  <course>109.05</course>
  <speed>25.1311380562043</speed>
  <fix>3d</fix>
</trkpt>
<trkpt lat="-27.2732848" lon="151.2880556">
  <ele>372.13</ele>
  <time>2026-09-01T19:57:40Z</time>
  <course>109.06</course>
  <speed>25.28</speed>
  <fix>3d</fix>
</trkpt>
<trkpt lat="-27.2733124" lon="151.2881487">
  <ele>372.09</ele>
  <time>2026-09-01T19:57:40Z</time>
  <course>109.12</course>
  <speed>24.97927340816782</speed>
  <fix>3d</fix>
</trkpt>
<trkpt lat="-27.2732996" lon="151.2881039">
  <ele>372.16</ele>
  <time>2026-09-01T19:57:40Z</time>
  <course>109.02</course>
  <speed>25.19</speed>
  <fix>3d</fix>
</trkpt>
<trkpt lat="-27.2733198" lon="151.2881727">
  <ele>372.13</ele>
  <time>2026-09-01T19:57:40Z</time>
  <course>109.12</course>
  <speed>24.817945120416397</speed>
  <fix>3d</fix>
</trkpt>
<trkpt lat="-27.2732996" lon="151.2881039">
  <ele>372.16</ele>
  <time>2026-09-01T19:57:40Z</time>
  <course>109.02</course>
  <speed>25.19</speed>
  <fix>3d</fix>
</trkpt>
<trkpt lat="-27.273327" lon="151.2881964">
  <ele>372.17</ele>
  <time>2026-09-01T19:57:40Z</time>
  <course>109.08</course>
  <speed>24.656619800775612</speed>
  <fix>3d</fix>
</trkpt>
<trkpt lat="-27.2733143" lon="151.288152">
  <ele>372.22</ele>
  <time>2026-09-01T19:57:40Z</time>
  <course>108.95</course>
  <speed>24.96</speed>
  <fix>3d</fix>
</trkpt>
<trkpt lat="-27.2733342" lon="151.2882199">
  <ele>372.21</ele>
  <time>2026-09-01T19:57:40Z</time>
  <course>109.06</course>
  <speed>24.514240759199538</speed>
  <fix>3d</fix>
</trkpt>
<trkpt lat="-27.2733143" lon="151.288152">
  <ele>372.22</ele>
  <time>2026-09-01T19:57:40Z</time>
  <course>108.95</course>
  <speed>24.96</speed>
  <fix>3d</fix>
</trkpt>
<trkpt lat="-27.2733413" lon="151.2882434">
  <ele>372.26</ele>
  <time>2026-09-01T19:57:40Z</time>
  <course>109.03</course>
  <speed>24.37507333322302</speed>
  <fix>3d</fix>
</trkpt>
<trkpt lat="-27.2733287" lon="151.2881994">
  <ele>372.29</ele>
  <time>2026-09-01T19:57:40Z</time>
  <course>108.89</course>
  <speed>24.64</speed>
  <fix>3d</fix>
</trkpt>
<trkpt lat="-27.2733484" lon="151.2882666">
  <ele>372.31</ele>
  <time>2026-09-01T19:57:40Z</time>
  <course>109.02</course>
  <speed>24.25485518406573</speed>
  <fix>3d</fix>
</trkpt>
<trkpt lat="-27.2733287" lon="151.2881994">
  <ele>372.29</ele>
  <time>2026-09-01T19:57:40Z</time>
  <course>108.89</course>
  <speed>24.64</speed>
  <fix>3d</fix>
</trkpt>
<trkpt lat="-27.2733554" lon="151.2882898">
  <ele>372.36</ele>
  <time>2026-09-01T19:57:40Z</time>
  <course>108.98</course>
  <speed>24.12516735693247</speed>
  <fix>3d</fix>
</trkpt>
<trkpt lat="-27.2733429" lon="151.2882463">
  <ele>372.39</ele>
  <time>2026-09-01T19:57:40Z</time>
  <course>108.82</course>
  <speed>24.35</speed>
  <fix>3d</fix>
</trkpt>
<trkpt lat="-27.2733624" lon="151.2883129">
  <ele>372.42</ele>
  <time>2026-09-01T19:57:40Z</time>
  <course>108.92</course>
  <speed>23.97333727289549</speed>
  <fix>3d</fix>
</trkpt>
<trkpt lat="-27.2733429" lon="151.2882463">
  <ele>372.39</ele>
  <time>2026-09-01T19:57:40Z</time>
  <course>108.82</course>
  <speed>24.35</speed>
  <fix>3d</fix>
</trkpt>
<trkpt lat="-27.2733693" lon="151.2883358">
  <ele>372.48</ele>
  <time>2026-09-01T19:57:40Z</time>
  <course>108.87</course>
  <speed>23.777226499320733</speed>
  <fix>3d</fix>
</trkpt>
<trkpt lat="-27.273357" lon="151.2882926">
  <ele>372.5</ele>
  <time>2026-09-01T19:57:40Z</time>
  <course>108.75</course>
  <speed>24.07</speed>
  <fix>3d</fix>
</trkpt>
<trkpt lat="-27.2733761" lon="151.2883584">
  <ele>372.55</ele>
  <time>2026-09-01T19:57:40Z</time>
  <course>108.78</course>
  <speed>23.505227078247934</speed>
  <fix>3d</fix>
</trkpt>
<trkpt lat="-27.273357" lon="151.2882926">
  <ele>372.5</ele>
  <time>2026-09-01T19:57:40Z</time>
  <course>108.75</course>
  <speed>24.07</speed>
  <fix>3d</fix>
</trkpt>
<trkpt lat="-27.2733828" lon="151.2883808">
  <ele>372.64</ele>
  <time>2026-09-01T19:57:40Z</time>
  <course>108.69</course>
  <speed>23.176334913009864</speed>
  <fix>3d</fix>
</trkpt>
<trkpt lat="-27.2733708" lon="151.2883383">
  <ele>372.62</ele>
  <time>2026-09-01T19:57:40Z</time>
  <course>108.65</course>
  <speed>23.69</speed>
  <fix>3d</fix>
</trkpt>
<trkpt lat="-27.2733894" lon="151.2884029">
  <ele>372.75</ele>
  <time>2026-09-01T19:57:40Z</time>
  <course>108.59</course>
  <speed>22.81910164752329</speed>
  <fix>3d</fix>
</trkpt>
<trkpt lat="-27.2733708" lon="151.2883383">
  <ele>372.62</ele>
  <time>2026-09-01T19:57:40Z</time>
  <course>108.65</course>
  <speed>23.69</speed>
  <fix>3d</fix>
</trkpt>
<trkpt lat="-27.2733958" lon="151.2884244">
  <ele>372.87</ele>
  <time>2026-09-01T19:57:40Z</time>
  <course>108.47</course>
  <speed>22.455638490143183</speed>
  <fix>3d</fix>
</trkpt>
<trkpt lat="-27.2733842" lon="151.2883832">
  <ele>372.78</ele>
  <time>2026-09-01T19:57:40Z</time>
  <course>108.48</course>
  <speed>23.11</speed>
  <fix>3d</fix>
</trkpt>
<trkpt lat="-27.273402" lon="151.2884458">
  <ele>372.99</ele>
  <time>2026-09-01T19:57:40Z</time>
  <course>108.34</course>
  <speed>22.111304800938363</speed>
  <fix>3d</fix>
</trkpt>
<trkpt lat="-27.2733842" lon="151.2883832">
  <ele>372.78</ele>
  <time>2026-09-01T19:57:40Z</time>
  <course>108.48</course>
  <speed>23.11</speed>
  <fix>3d</fix>
</trkpt>
<trkpt lat="-27.2734081" lon="151.2884668">
  <ele>373.11</ele>
  <time>2026-09-01T19:57:40Z</time>
  <course>108.19</course>
  <speed>21.77663426703034</speed>
  <fix>3d</fix>
</trkpt>
<trkpt lat="-27.273397" lon="151.2884269">
  <ele>373.0</ele>
  <time>2026-09-01T19:57:40Z</time>
  <course>108.2</course>
  <speed>22.4</speed>
  <fix>3d</fix>
</trkpt>
<trkpt lat="-27.273414" lon="151.2884875">
  <ele>373.22</ele>
  <time>2026-09-01T19:57:40Z</time>
  <course>108.02</course>
  <speed>21.4546964555549</speed>
  <fix>3d</fix>
</trkpt>
<trkpt lat="-27.273397" lon="151.2884269">
  <ele>373.0</ele>
  <time>2026-09-01T19:57:41Z</time>
  <course>108.2</course>
  <speed>22.4</speed>
  <fix>3d</fix>
</trkpt>
<trkpt lat="-27.2734199" lon="151.288508">
  <ele>373.32</ele>
  <time>2026-09-01T19:57:41Z</time>
  <course>107.84</course>
  <speed>21.13289852339238</speed>
  <fix>3d</fix>
</trkpt>
<trkpt lat="-27.2734093" lon="151.2884692">
  <ele>373.24</ele>
  <time>2026-09-01T19:57:41Z</time>
  <course>107.9</course>
  <speed>21.72</speed>
  <fix>3d</fix>
</trkpt>
<trkpt lat="-27.2734256" lon="151.2885281">
  <ele>373.4</ele>
  <time>2026-09-01T19:57:41Z</time>
  <course>107.67</course>
  <speed>20.83033365071237</speed>
  <fix>3d</fix>
</trkpt>
<trkpt lat="-27.2734093" lon="151.2884692">
  <ele>373.24</ele>
  <time>2026-09-01T19:57:41Z</time>
  <course>107.9</course>
  <speed>21.72</speed>
  <fix>3d</fix>
</trkpt>
<trkpt lat="-27.2734311" lon="151.2885479">
  <ele>373.48</ele>
  <time>2026-09-01T19:57:41Z</time>
  <course>107.51</course>
  <speed>20.530915712651495</speed>
  <fix>3d</fix>
</trkpt>
<trkpt lat="-27.273421" lon="151.2885104">
  <ele>373.45</ele>
  <time>2026-09-01T19:57:41Z</time>
  <course>107.58</course>
  <speed>21.08</speed>
  <fix>3d</fix>
</trkpt>
<trkpt lat="-27.2734365" lon="151.2885674">
  <ele>373.55</ele>
  <time>2026-09-01T19:57:41Z</time>
  <course>107.36</course>
  <speed>20.253693490324178</speed>
  <fix>3d</fix>
</trkpt>
<trkpt lat="-27.273421" lon="151.2885104">
  <ele>373.45</ele>
  <time>2026-09-01T19:57:41Z</time>
  <course>107.58</course>
  <speed>21.08</speed>
  <fix>3d</fix>
</trkpt>
<trkpt lat="-27.2734418" lon="151.2885867">
  <ele>373.61</ele>
  <time>2026-09-01T19:57:41Z</time>
  <course>107.21</course>
  <speed>19.976598809607207</speed>
  <fix>3d</fix>
</trkpt>
<trkpt lat="-27.2734322" lon="151.2885505">
  <ele>373.62</ele>
  <time>2026-09-01T19:57:41Z</time>
  <course>107.25</course>
  <speed>20.49</speed>
  <fix>3d</fix>
</trkpt>
<trkpt lat="-27.2734469" lon="151.2886058">
  <ele>373.66</ele>
  <time>2026-09-01T19:57:41Z</time>
  <course>107.07</course>
  <speed>19.712100344712127</speed>
  <fix>3d</fix>
</trkpt>
<trkpt lat="-27.2734322" lon="151.2885505">
  <ele>373.62</ele>
  <time>2026-09-01T19:57:41Z</time>
  <course>107.25</course>
  <speed>20.49</speed>
  <fix>3d</fix>
</trkpt>
<trkpt lat="-27.273452" lon="151.2886246">
  <ele>373.71</ele>
  <time>2026-09-01T19:57:41Z</time>
  <course>106.95</course>
  <speed>19.447706805687915</speed>
  <fix>3d</fix>
</trkpt>
<trkpt lat="-27.2734429" lon="151.2885897">
  <ele>373.75</ele>
  <time>2026-09-01T19:57:41Z</time>
  <course>106.94</course>
  <speed>19.93</speed>
  <fix>3d</fix>
</trkpt>
<trkpt lat="-27.273457" lon="151.2886432">
  <ele>373.75</ele>
  <time>2026-09-01T19:57:41Z</time>
  <course>106.82</course>
  <speed>19.208292480072245</speed>
  <fix>3d</fix>
</trkpt>
<trkpt lat="-27.2734429" lon="151.2885897">
  <ele>373.75</ele>
  <time>2026-09-01T19:57:41Z</time>
  <course>106.94</course>
  <speed>19.93</speed>
  <fix>3d</fix>
</trkpt>
<trkpt lat="-27.2734618" lon="151.2886616">
  <ele>373.78</ele>
  <time>2026-09-01T19:57:41Z</time>
  <course>106.7</course>
  <speed>18.956510754883137</speed>
  <fix>3d</fix>
</trkpt>
<trkpt lat="-27.2734531" lon="151.2886277">
  <ele>373.85</ele>
  <time>2026-09-01T19:57:41Z</time>
  <course>106.66</course>
  <speed>19.41</speed>
  <fix>3d</fix>
</trkpt>
<trkpt lat="-27.2734666" lon="151.2886798">
  <ele>373.81</ele>
  <time>2026-09-01T19:57:41Z</time>
  <course>106.59</course>
  <speed>18.729636942557107</speed>
  <fix>3d</fix>
</trkpt>
<trkpt lat="-27.2734531" lon="151.2886277">
  <ele>373.85</ele>
  <time>2026-09-01T19:57:41Z</time>
  <course>106.66</course>
  <speed>19.41</speed>
  <fix>3d</fix>
</trkpt>
<trkpt lat="-27.2734713" lon="151.2886977">
  <ele>373.84</ele>
  <time>2026-09-01T19:57:41Z</time>
  <course>106.49</course>
  <speed>18.502802490433712</speed>
  <fix>3d</fix>
</trkpt>
<trkpt lat="-27.2734629" lon="151.2886648">
  <ele>373.92</ele>
  <time>2026-09-01T19:57:41Z</time>
  <course>106.42</course>
  <speed>18.92</speed>
  <fix>3d</fix>
</trkpt>
<trkpt lat="-27.2734759" lon="151.2887155">
  <ele>373.85</ele>
  <time>2026-09-01T19:57:41Z</time>
  <course>106.4</course>
  <speed>18.276008864081895</speed>
  <fix>3d</fix>
</trkpt>
<trkpt lat="-27.2734629" lon="151.2886648">
  <ele>373.92</ele>
  <time>2026-09-01T19:57:41Z</time>
  <course>106.42</course>
  <speed>18.92</speed>
  <fix>3d</fix>
</trkpt>
<trkpt lat="-27.2734805" lon="151.288733">
  <ele>373.86</ele>
  <time>2026-09-01T19:57:41Z</time>
  <course>106.31</course>
  <speed>18.06164167510805</speed>
  <fix>3d</fix>
</trkpt>
<trkpt lat="-27.2734724" lon="151.288701">
  <ele>373.97</ele>
  <time>2026-09-01T19:57:41Z</time>
  <course>106.22</course>
  <speed>18.46</speed>
  <fix>3d</fix>
</trkpt>
<trkpt lat="-27.273485" lon="151.2887506">
  <ele>373.87</ele>
  <time>2026-09-01T19:57:41Z</time>
  <course>106.22</course>
  <speed>17.856909027040487</speed>
  <fix>3d</fix>
</trkpt>
<trkpt lat="-27.2734724" lon="151.288701">
  <ele>373.97</ele>
  <time>2026-09-01T19:57:41Z</time>
  <course>106.22</course>
  <speed>18.46</speed>
  <fix>3d</fix>
</trkpt>
<trkpt lat="-27.2734894" lon="151.2887678">
  <ele>373.87</ele>
  <time>2026-09-01T19:57:41Z</time>
  <course>106.14</course>
  <speed>17.654965307244307</speed>
  <fix>3d</fix>
</trkpt>
<trkpt lat="-27.2734815" lon="151.2887364">
  <ele>374.01</ele>
  <time>2026-09-01T19:57:41Z</time>
  <course>106.06</course>
  <speed>18.02</speed>
  <fix>3d</fix>
</trkpt>
<trkpt lat="-27.2734938" lon="151.2887849">
  <ele>373.87</ele>
  <time>2026-09-01T19:57:41Z</time>
  <course>106.07</course>
  <speed>17.462648710891482</speed>
  <fix>3d</fix>
</trkpt>
<trkpt lat="-27.2734815" lon="151.2887364">
  <ele>374.01</ele>
  <time>2026-09-01T19:57:41Z</time>
  <course>106.06</course>
  <speed>18.02</speed>
  <fix>3d</fix>
</trkpt>
<trkpt lat="-27.2734981" lon="151.2888018">
  <ele>373.86</ele>
  <time>2026-09-01T19:57:41Z</time>
  <course>106.0</course>
  <speed>17.282708121124998</speed>
  <fix>3d</fix>
</trkpt>
<trkpt lat="-27.2734903" lon="151.2887711">
  <ele>374.02</ele>
  <time>2026-09-01T19:57:41Z</time>
  <course>105.92</course>
  <speed>17.61</speed>
  <fix>3d</fix>
</trkpt>
<trkpt lat="-27.2735022" lon="151.2888184">
  <ele>373.85</ele>
  <time>2026-09-01T19:57:41Z</time>
  <course>105.94</course>
  <speed>17.10277462869695</speed>
  <fix>3d</fix>
</trkpt>
<trkpt lat="-27.2734903" lon="151.2887711">
  <ele>374.02</ele>
  <time>2026-09-01T19:57:41Z</time>
  <course>105.92</course>
  <speed>17.61</speed>
  <fix>3d</fix>
</trkpt>
<trkpt lat="-27.2735064" lon="151.2888349">
  <ele>373.84</ele>
  <time>2026-09-01T19:57:41Z</time>
  <course>105.88</course>
  <speed>16.93246880995208</speed>
  <fix>3d</fix>
</trkpt>
<trkpt lat="-27.2734989" lon="151.288805">
  <ele>374.01</ele>
  <time>2026-09-01T19:57:41Z</time>
  <course>105.81</course>
  <speed>17.23</speed>
  <fix>3d</fix>
</trkpt>
<trkpt lat="-27.2735105" lon="151.2888513">
  <ele>373.81</ele>
  <time>2026-09-01T19:57:41Z</time>
  <course>105.83</course>
  <speed>16.76217467991549</speed>
  <fix>3d</fix>
</trkpt>
<trkpt lat="-27.2734989" lon="151.288805">
  <ele>374.01</ele>
  <time>2026-09-01T19:57:41Z</time>
  <course>105.81</course>
  <speed>17.23</speed>
  <fix>3d</fix>
</trkpt>
<trkpt lat="-27.2735146" lon="151.2888675">
  <ele>373.78</ele>
  <time>2026-09-01T19:57:41Z</time>
  <course>105.77</course>
  <speed>16.60423138841422</speed>
  <fix>3d</fix>
</trkpt>
<trkpt lat="-27.2735072" lon="151.2888381">
  <ele>373.97</ele>
  <time>2026-09-01T19:57:41Z</time>
  <course>105.71</course>
  <speed>16.87</speed>
  <fix>3d</fix>
</trkpt>
<trkpt lat="-27.2735187" lon="151.2888837">
  <ele>373.73</ele>
  <time>2026-09-01T19:57:41Z</time>
  <course>105.72</course>
  <speed>16.446291375261477</speed>
  <fix>3d</fix>
</trkpt>
<trkpt lat="-27.2735072" lon="151.2888381">
  <ele>373.97</ele>
  <time>2026-09-01T19:57:41Z</time>
  <course>105.71</course>
  <speed>16.87</speed>
  <fix>3d</fix>
</trkpt>
<trkpt lat="-27.2735226" lon="151.2888996">
  <ele>373.68</ele>
  <time>2026-09-01T19:57:41Z</time>
  <course>105.67</course>
  <speed>16.2979814701085</speed>
  <fix>3d</fix>
</trkpt>
<trkpt lat="-27.2735153" lon="151.2888706">
  <ele>373.92</ele>
  <time>2026-09-01T19:57:41Z</time>
  <course>105.63</course>
  <speed>16.54</speed>
  <fix>3d</fix>
</trkpt>
<trkpt lat="-27.2735265" lon="151.2889154">
  <ele>373.62</ele>
  <time>2026-09-01T19:57:41Z</time>
  <course>105.62</course>
  <speed>16.162007919809966</speed>
  <fix>3d</fix>
</trkpt>
<trkpt lat="-27.2735153" lon="151.2888706">
  <ele>373.92</ele>
  <time>2026-09-01T19:57:41Z</time>
  <course>105.63</course>
  <speed>16.54</speed>
  <fix>3d</fix>
</trkpt>
<trkpt lat="-27.2735304" lon="151.288931">
  <ele>373.56</ele>
  <time>2026-09-01T19:57:41Z</time>
  <course>105.58</course>
  <speed>16.035663378856515</speed>
  <fix>3d</fix>
</trkpt>
<trkpt lat="-27.2735232" lon="151.2889025">
  <ele>373.83</ele>
  <time>2026-09-01T19:57:41Z</time>
  <course>105.56</course>
  <speed>16.23</speed>
  <fix>3d</fix>
</trkpt>
<trkpt lat="-27.2735343" lon="151.2889466">
  <ele>373.48</ele>
  <time>2026-09-01T19:57:41Z</time>
  <course>105.54</course>
  <speed>15.909321167164865</speed>
  <fix>3d</fix>
</trkpt>
<trkpt lat="-27.2735232" lon="151.2889025">
  <ele>373.83</ele>
  <time>2026-09-01T19:57:41Z</time>
  <course>105.56</course>
  <speed>16.23</speed>
  <fix>3d</fix>
</trkpt>
<trkpt lat="-27.2735381" lon="151.288962">
  <ele>373.39</ele>
  <time>2026-09-01T19:57:41Z</time>
  <course>105.51</course>
  <speed>15.792612196846981</speed>
  <fix>3d</fix>
</trkpt>
<trkpt lat="-27.2735309" lon="151.2889339">
  <ele>373.7</ele>
  <time>2026-09-01T19:57:41Z</time>
  <course>105.5</course>
  <speed>15.96</speed>
  <fix>3d</fix>
</trkpt>
<trkpt lat="-27.2735419" lon="151.2889773">
  <ele>373.3</ele>
  <time>2026-09-01T19:57:41Z</time>
  <course>105.47</course>
  <speed>15.6882280707542</speed>
  <fix>3d</fix>
</trkpt>
<trkpt lat="-27.2735309" lon="151.2889339">
  <ele>373.7</ele>
  <time>2026-09-01T19:57:41Z</time>
  <course>105.5</course>
  <speed>15.96</speed>
  <fix>3d</fix>
</trkpt>
<trkpt lat="-27.2735456" lon="151.2889925">
  <ele>373.19</ele>
  <time>2026-09-01T19:57:41Z</time>
  <course>105.45</course>
  <speed>15.58115849351389</speed>
  <fix>3d</fix>
</trkpt>
<trkpt lat="-27.2735385" lon="151.2889649">
  <ele>373.54</ele>
  <time>2026-09-01T19:57:41Z</time>
  <course>105.45</course>
  <speed>15.72</speed>
  <fix>3d</fix>
</trkpt>
<trkpt lat="-27.2735493" lon="151.2890077">
  <ele>373.08</ele>
  <time>2026-09-01T19:57:41Z</time>
  <course>105.42</course>
  <speed>15.48641017150198</speed>
  <fix>3d</fix>
</trkpt>
<trkpt lat="-27.2735385" lon="151.2889649">
  <ele>373.54</ele>
  <time>2026-09-01T19:57:41Z</time>
  <course>105.45</course>
  <speed>15.72</speed>
  <fix>3d</fix>
</trkpt>
<trkpt lat="-27.273553" lon="151.2890227">
  <ele>372.97</ele>
  <time>2026-09-01T19:57:41Z</time>
  <course>105.39</course>
  <speed>15.401298646542763</speed>
  <fix>3d</fix>
</trkpt>
<trkpt lat="-27.273546" lon="151.2889953">
  <ele>373.34</ele>
  <time>2026-09-01T19:57:41Z</time>
  <course>105.4</course>
  <speed>15.5</speed>
  <fix>3d</fix>
</trkpt>
<trkpt lat="-27.2735567" lon="151.2890377">
  <ele>372.85</ele>
  <time>2026-09-01T19:57:41Z</time>
  <course>105.37</course>
  <speed>15.31886418766091</speed>
  <fix>3d</fix>
</trkpt>
<trkpt lat="-27.273546" lon="151.2889953">
  <ele>373.34</ele>
  <time>2026-09-01T19:57:41Z</time>
  <course>105.4</course>
  <speed>15.5</speed>
  <fix>3d</fix>
</trkpt>
<trkpt lat="-27.2735603" lon="151.2890525">
  <ele>372.74</ele>
  <time>2026-09-01T19:57:41Z</time>
  <course>105.35</course>
  <speed>15.233755282267076</speed>
  <fix>3d</fix>
</trkpt>
<trkpt lat="-27.2735533" lon="151.2890253">
  <ele>373.12</ele>
  <time>2026-09-01T19:57:41Z</time>
  <course>105.36</course>
  <speed>15.31</speed>
  <fix>3d</fix>
</trkpt>
<trkpt lat="-27.2735639" lon="151.2890673">
  <ele>372.63</ele>
  <time>2026-09-01T19:57:41Z</time>
  <course>105.33</course>
  <speed>15.15132007450176</speed>
  <fix>3d</fix>
</trkpt>
<trkpt lat="-27.2735533" lon="151.2890253">
  <ele>373.12</ele>
  <time>2026-09-01T19:57:41Z</time>
  <course>105.36</course>
  <speed>15.31</speed>
  <fix>3d</fix>
</trkpt>
<trkpt lat="-27.2735675" lon="151.289082">
  <ele>372.52</ele>
  <time>2026-09-01T19:57:41Z</time>
  <course>105.32</course>
  <speed>15.075851551404982</speed>
  <fix>3d</fix>
</trkpt>
<trkpt lat="-27.2735606" lon="151.2890549">
  <ele>372.9</ele>
  <time>2026-09-01T19:57:41Z</time>
  <course>105.33</course>
  <speed>15.14</speed>
  <fix>3d</fix>
</trkpt>
<trkpt lat="-27.2735711" lon="151.2890966">
  <ele>372.42</ele>
  <time>2026-09-01T19:57:41Z</time>
  <course>105.3</course>
  <speed>15.003053022635093</speed>
  <fix>3d</fix>
</trkpt>
<trkpt lat="-27.2735606" lon="151.2890549">
  <ele>372.9</ele>
  <time>2026-09-01T19:57:41Z</time>
  <course>105.33</course>
  <speed>15.14</speed>
  <fix>3d</fix>
</trkpt>
<trkpt lat="-27.2735746" lon="151.2891112">
  <ele>372.33</ele>
  <time>2026-09-01T19:57:41Z</time>
  <course>105.29</course>
  <speed>14.920616609242394</speed>
  <fix>3d</fix>
</trkpt>
<trkpt lat="-27.2735677" lon="151.2890843">
  <ele>372.69</ele>
  <time>2026-09-01T19:57:41Z</time>
  <course>105.31</course>
  <speed>14.98</speed>
  <fix>3d</fix>
</trkpt>
<trkpt lat="-27.2735781" lon="151.2891257">
  <ele>372.25</ele>
  <time>2026-09-01T19:57:41Z</time>
  <course>105.29</course>
  <speed>14.847818021514138</speed>
  <fix>3d</fix>
</trkpt>
<trkpt lat="-27.2735677" lon="151.2890843">
  <ele>372.69</ele>
  <time>2026-09-01T19:57:41Z</time>
  <course>105.31</course>
  <speed>14.98</speed>
  <fix>3d</fix>
</trkpt>
<trkpt lat="-27.2735816" lon="151.28914">
  <ele>372.17</ele>
  <time>2026-09-01T19:57:41Z</time>
  <course>105.29</course>
  <speed>14.765381810166643</speed>
  <fix>3d</fix>
</trkpt>
<trkpt lat="-27.2735748" lon="151.2891133">
  <ele>372.5</ele>
  <time>2026-09-01T19:57:41Z</time>
  <course>105.29</course>
  <speed>14.82</speed>
  <fix>3d</fix>
</trkpt>
<trkpt lat="-27.2735851" lon="151.2891543">
  <ele>372.11</ele>
  <time>2026-09-01T19:57:41Z</time>
  <course>105.29</course>
  <speed>14.68027928889638</speed>
  <fix>3d</fix>
</trkpt>
<trkpt lat="-27.2735748" lon="151.2891133">
  <ele>372.5</ele>
  <time>2026-09-01T19:57:41Z</time>
  <course>105.29</course>
  <speed>14.82</speed>
  <fix>3d</fix>
</trkpt>
<trkpt lat="-27.2735886" lon="151.2891686">
  <ele>372.05</ele>
  <time>2026-09-01T19:57:41Z</time>
  <course>105.29</course>
  <speed>14.597842306313629</speed>
  <fix>3d</fix>
</trkpt>
<trkpt lat="-27.2735818" lon="151.2891421">
  <ele>372.35</ele>
  <time>2026-09-01T19:57:41Z</time>
  <course>105.29</course>
  <speed>14.67</speed>
  <fix>3d</fix>
</trkpt>
<trkpt lat="-27.273592" lon="151.2891827">
  <ele>372.0</ele>
  <time>2026-09-01T19:57:41Z</time>
  <course>105.29</course>
  <speed>14.525043889778786</speed>
  <fix>3d</fix>
</trkpt>
<trkpt lat="-27.2735818" lon="151.2891421">
  <ele>372.35</ele>
  <time>2026-09-01T19:57:41Z</time>
  <course>105.29</course>
  <speed>14.67</speed>
  <fix>3d</fix>
</trkpt>
<trkpt lat="-27.2735954" lon="151.2891969">
  <ele>371.96</ele>
  <time>2026-09-01T19:57:41Z</time>
  <course>105.28</course>
  <speed>14.43296920248914</speed>
  <fix>3d</fix>
</trkpt>
<trkpt lat="-27.2735887" lon="151.2891705">
  <ele>372.24</ele>
  <time>2026-09-01T19:57:41Z</time>
  <course>105.29</course>
  <speed>14.51</speed>
  <fix>3d</fix>
</trkpt>
<trkpt lat="-27.2735989" lon="151.2892108">
  <ele>371.93</ele>
  <time>2026-09-01T19:57:41Z</time>
  <course>105.29</course>
  <speed>14.350533091143339</speed>
  <fix>3d</fix>
</trkpt>
<trkpt lat="-27.2735887" lon="151.2891705">
  <ele>372.24</ele>
  <time>2026-09-01T19:57:41Z</time>
  <course>105.29</course>
  <speed>14.51</speed>
  <fix>3d</fix>
</trkpt>
<trkpt lat="-27.2736022" lon="151.2892247">
  <ele>371.91</ele>
  <time>2026-09-01T19:57:41Z</time>
  <course>105.29</course>
  <speed>14.268097280296347</speed>
  <fix>3d</fix>
</trkpt>
<trkpt lat="-27.2735956" lon="151.2891986">
  <ele>372.15</ele>
  <time>2026-09-01T19:57:41Z</time>
  <course>105.3</course>
  <speed>14.34</speed>
  <fix>3d</fix>
</trkpt>
<trkpt lat="-27.2736056" lon="151.2892385">
  <ele>371.9</ele>
  <time>2026-09-01T19:57:41Z</time>
  <course>105.29</course>
  <speed>14.185661775186944</speed>
  <fix>3d</fix>
</trkpt>
<trkpt lat="-27.2735956" lon="151.2891986">
  <ele>372.15</ele>
  <time>2026-09-01T19:57:41Z</time>
  <course>105.3</course>
  <speed>14.34</speed>
  <fix>3d</fix>
</trkpt>
<trkpt lat="-27.2736089" lon="151.2892522">
  <ele>371.89</ele>
  <time>2026-09-01T19:57:41Z</time>
  <course>105.3</course>
  <speed>14.09359074189399</speed>
  <fix>3d</fix>
</trkpt>
<trkpt lat="-27.2736023" lon="151.2892265">
  <ele>372.1</ele>
  <time>2026-09-01T19:57:41Z</time>
  <course>105.32</course>
  <speed>14.17</speed>
  <fix>3d</fix>
</trkpt>
<trkpt lat="-27.2736123" lon="151.2892658">
  <ele>371.89</ele>
  <time>2026-09-01T19:57:41Z</time>
  <course>105.31</course>
  <speed>14.011156269202054</speed>
  <fix>3d</fix>
</trkpt>
<trkpt lat="-27.2736023" lon="151.2892265">
  <ele>372.1</ele>
  <time>2026-09-01T19:57:41Z</time>
  <course>105.32</course>
  <speed>14.17</speed>
  <fix>3d</fix>
</trkpt>
<trkpt lat="-27.2736156" lon="151.2892794">
  <ele>371.89</ele>
  <time>2026-09-01T19:57:41Z</time>
  <course>105.33</course>
  <speed>13.91908761377699</speed>
  <fix>3d</fix>
</trkpt>
<trkpt lat="-27.273609" lon="151.289254">
  <ele>372.08</ele>
  <time>2026-09-01T19:57:41Z</time>
  <course>105.34</course>
  <speed>14.0</speed>
  <fix>3d</fix>
</trkpt>
<trkpt lat="-27.2736188" lon="151.2892928">
  <ele>371.9</ele>
  <time>2026-09-01T19:57:41Z</time>
  <course>105.34</course>
  <speed>13.824340852279358</speed>
  <fix>3d</fix>
</trkpt>
<trkpt lat="-27.273609" lon="151.289254">
  <ele>372.08</ele>
  <time>2026-09-01T19:57:41Z</time>
  <course>105.34</course>
  <speed>14.0</speed>
  <fix>3d</fix>
</trkpt>
<trkpt lat="-27.2736221" lon="151.2893062">
  <ele>371.91</ele>
  <time>2026-09-01T19:57:41Z</time>
  <course>105.35</course>
  <speed>13.741906709041507</speed>
  <fix>3d</fix>
</trkpt>
<trkpt lat="-27.2736157" lon="151.2892812">
  <ele>372.08</ele>
  <time>2026-09-01T19:57:41Z</time>
  <course>105.37</course>
  <speed>13.83</speed>
  <fix>3d</fix>
</trkpt>
<trkpt lat="-27.2736254" lon="151.2893195">
  <ele>371.92</ele>
  <time>2026-09-01T19:57:41Z</time>
  <course>105.37</course>
  <speed>13.649838826887299</speed>
  <fix>3d</fix>
</trkpt>
<trkpt lat="-27.2736157" lon="151.2892812">
  <ele>372.08</ele>
  <time>2026-09-01T19:57:41Z</time>
  <course>105.37</course>
  <speed>13.83</speed>
  <fix>3d</fix>
</trkpt>
<trkpt lat="-27.2736286" lon="151.2893327">
  <ele>371.94</ele>
  <time>2026-09-01T19:57:41Z</time>
  <course>105.38</course>
  <speed>13.557772678430629</speed>
  <fix>3d</fix>
</trkpt>
<trkpt lat="-27.2736222" lon="151.289308">
  <ele>372.1</ele>
  <time>2026-09-01T19:57:41Z</time>
  <course>105.4</course>
  <speed>13.65</speed>
  <fix>3d</fix>
</trkpt>
<trkpt lat="-27.2736318" lon="151.2893458">
  <ele>371.95</ele>
  <time>2026-09-01T19:57:41Z</time>
  <course>105.4</course>
  <speed>13.465708299231794</speed>
  <fix>3d</fix>
</trkpt>
<trkpt lat="-27.2736222" lon="151.289308">
  <ele>372.1</ele>
  <time>2026-09-01T19:57:41Z</time>
  <course>105.4</course>
  <speed>13.65</speed>
  <fix>3d</fix>
</trkpt>
<trkpt lat="-27.273635" lon="151.2893588">
  <ele>371.97</ele>
  <time>2026-09-01T19:57:41Z</time>
  <course>105.41</course>
  <speed>13.370957332966102</speed>
  <fix>3d</fix>
</trkpt>
<trkpt lat="-27.2736286" lon="151.2893343">
  <ele>372.14</ele>
  <time>2026-09-01T19:57:41Z</time>
  <course>105.43</course>
  <speed>13.48</speed>
  <fix>3d</fix>
</trkpt>
<trkpt lat="-27.2736382" lon="151.2893717">
  <ele>372.0</ele>
  <time>2026-09-01T19:57:41Z</time>
  <course>105.43</course>
  <speed>13.278893026152444</speed>
  <fix>3d</fix>
</trkpt>
<trkpt lat="-27.2736286" lon="151.2893343">
  <ele>372.14</ele>
  <time>2026-09-01T19:57:41Z</time>
  <course>105.43</course>
  <speed>13.48</speed>
  <fix>3d</fix>
</trkpt>
<trkpt lat="-27.2736413" lon="151.2893845">
  <ele>372.02</ele>
  <time>2026-09-01T19:57:41Z</time>
  <course>105.44</course>
  <speed>13.186830551728494</speed>
  <fix>3d</fix>
</trkpt>
<trkpt lat="-27.2736351" lon="151.2893604">
  <ele>372.18</ele>
  <time>2026-09-01T19:57:41Z</time>
  <course>105.46</course>
  <speed>13.29</speed>
  <fix>3d</fix>
</trkpt>
<trkpt lat="-27.2736444" lon="151.2893972">
  <ele>372.05</ele>
  <time>2026-09-01T19:57:41Z</time>
  <course>105.46</course>
  <speed>13.082446254428108</speed>
  <fix>3d</fix>
</trkpt>
<trkpt lat="-27.2736351" lon="151.2893604">
  <ele>372.18</ele>
  <time>2026-09-01T19:57:41Z</time>
  <course>105.46</course>
  <speed>13.29</speed>
  <fix>3d</fix>
</trkpt>
<trkpt lat="-27.2736475" lon="151.2894099">
  <ele>372.07</ele>
  <time>2026-09-01T19:57:41Z</time>
  <course>105.47</course>
  <speed>12.990384905767803</speed>
  <fix>3d</fix>
</trkpt>
<trkpt lat="-27.2736414" lon="151.2893862">
  <ele>372.23</ele>
  <time>2026-09-01T19:57:41Z</time>
  <course>105.49</course>
  <speed>13.11</speed>
  <fix>3d</fix>
</trkpt>
<trkpt lat="-27.2736506" lon="151.2894224">
  <ele>372.1</ele>
  <time>2026-09-01T19:57:41Z</time>
  <course>105.49</course>
  <speed>12.888696598182456</speed>
  <fix>3d</fix>
</trkpt>
<trkpt lat="-27.2736414" lon="151.2893862">
  <ele>372.23</ele>
  <time>2026-09-01T19:57:41Z</time>
  <course>105.49</course>
  <speed>13.11</speed>
  <fix>3d</fix>
</trkpt>
<trkpt lat="-27.2736537" lon="151.2894349">
  <ele>372.13</ele>
  <time>2026-09-01T19:57:41Z</time>
  <course>105.5</course>
  <speed>12.793939971720986</speed>
  <fix>3d</fix>
</trkpt>
<trkpt lat="-27.2736477" lon="151.2894115">
  <ele>372.29</ele>
  <time>2026-09-01T19:57:41Z</time>
  <course>105.52</course>
  <speed>12.92</speed>
  <fix>3d</fix>
</trkpt>
<trkpt lat="-27.2736568" lon="151.2894472">
  <ele>372.15</ele>
  <time>2026-09-01T19:57:41Z</time>
  <course>105.52</course>
  <speed>12.692253543008034</speed>
  <fix>3d</fix>
</trkpt>
<trkpt lat="-27.2736477" lon="151.2894115">
  <ele>372.29</ele>
  <time>2026-09-01T19:57:41Z</time>
  <course>105.52</course>
  <speed>12.92</speed>
  <fix>3d</fix>
</trkpt>
<trkpt lat="-27.2736598" lon="151.2894595">
  <ele>372.18</ele>
  <time>2026-09-01T19:57:41Z</time>
  <course>105.53</course>
  <speed>12.587867174386613</speed>
  <fix>3d</fix>
</trkpt>
<trkpt lat="-27.2736538" lon="151.2894365">
  <ele>372.34</ele>
  <time>2026-09-01T19:57:41Z</time>
  <course>105.55</course>
  <speed>12.72</speed>
  <fix>3d</fix>
</trkpt>
<trkpt lat="-27.2736628" lon="151.2894715">
  <ele>372.2</ele>
  <time>2026-09-01T19:57:41Z</time>
  <course>105.55</course>
  <speed>12.476558018940962</speed>
  <fix>3d</fix>
</trkpt>
<trkpt lat="-27.2736538" lon="151.2894365">
  <ele>372.34</ele>
  <time>2026-09-01T19:57:41Z</time>
  <course>105.55</course>
  <speed>12.72</speed>
  <fix>3d</fix>
</trkpt>
<trkpt lat="-27.2736657" lon="151.2894835">
  <ele>372.23</ele>
  <time>2026-09-01T19:57:41Z</time>
  <course>105.56</course>
  <speed>12.3721703835665</speed>
  <fix>3d</fix>
</trkpt>
<trkpt lat="-27.2736599" lon="151.289461">
  <ele>372.39</ele>
  <time>2026-09-01T19:57:41Z</time>
  <course>105.58</course>
  <speed>12.52</speed>
  <fix>3d</fix>
</trkpt>
<trkpt lat="-27.2736687" lon="151.2894955">
  <ele>372.25</ele>
  <time>2026-09-01T19:57:41Z</time>
  <course>105.57</course>
  <speed>12.24853052410778</speed>
  <fix>3d</fix>
</trkpt>
<trkpt lat="-27.2736599" lon="151.289461">
  <ele>372.39</ele>
  <time>2026-09-01T19:57:41Z</time>
  <course>105.58</course>
  <speed>12.52</speed>
  <fix>3d</fix>
</trkpt>
<trkpt lat="-27.2736716" lon="151.2895073">
  <ele>372.28</ele>
  <time>2026-09-01T19:57:41Z</time>
  <course>105.59</course>
  <speed>12.12489175209412</speed>
  <fix>3d</fix>
</trkpt>
<trkpt lat="-27.2736659" lon="151.2894852">
  <ele>372.45</ele>
  <time>2026-09-01T19:57:41Z</time>
  <course>105.61</course>
  <speed>12.3</speed>
  <fix>3d</fix>
</trkpt>
<trkpt lat="-27.2736745" lon="151.2895191">
  <ele>372.31</ele>
  <time>2026-09-01T19:57:41Z</time>
  <course>105.6</course>
  <speed>11.998541578041891</speed>
  <fix>3d</fix>
</trkpt>
<trkpt lat="-27.2736659" lon="151.2894852">
  <ele>372.45</ele>
  <time>2026-09-01T19:57:41Z</time>
  <course>105.61</course>
  <speed>12.3</speed>
  <fix>3d</fix>
</trkpt>
<trkpt lat="-27.2736774" lon="151.2895306">
  <ele>372.34</ele>
  <time>2026-09-01T19:57:41Z</time>
  <course>105.61</course>
  <speed>11.86527707219684</speed>
  <fix>3d</fix>
</trkpt>
<trkpt lat="-27.2736718" lon="151.289509">
  <ele>372.5</ele>
  <time>2026-09-01T19:57:41Z</time>
  <course>105.64</course>
  <speed>12.06</speed>
  <fix>3d</fix>
</trkpt>
<trkpt lat="-27.2736803" lon="151.2895421">
  <ele>372.37</ele>
  <time>2026-09-01T19:57:41Z</time>
  <course>105.62</course>
  <speed>11.719675763433049</speed>
  <fix>3d</fix>
</trkpt>
<trkpt lat="-27.2736718" lon="151.289509">
  <ele>372.5</ele>
  <time>2026-09-01T19:57:41Z</time>
  <course>105.64</course>
  <speed>12.06</speed>
  <fix>3d</fix>
</trkpt>
<trkpt lat="-27.2736831" lon="151.2895534">
  <ele>372.4</ele>
  <time>2026-09-01T19:57:41Z</time>
  <course>105.62</course>
  <speed>11.586414458321435</speed>
  <fix>3d</fix>
</trkpt>
<trkpt lat="-27.2736776" lon="151.2895323">
  <ele>372.56</ele>
  <time>2026-09-01T19:57:41Z</time>
  <course>105.66</course>
  <speed>11.8</speed>
  <fix>3d</fix>
</trkpt>
<trkpt lat="-27.2736859" lon="151.2895646">
  <ele>372.43</ele>
  <time>2026-09-01T19:57:41Z</time>
  <course>105.63</course>
  <speed>11.440812908180956</speed>
  <fix>3d</fix>
</trkpt>
<trkpt lat="-27.2736776" lon="151.2895323">
  <ele>372.56</ele>
  <time>2026-09-01T19:57:41Z</time>
  <course>105.66</course>
  <speed>11.8</speed>
  <fix>3d</fix>
</trkpt>
<trkpt lat="-27.2736886" lon="151.2895756">
  <ele>372.46</ele>
  <time>2026-09-01T19:57:41Z</time>
  <course>105.63</course>
  <speed>11.295211374737526</speed>
  <fix>3d</fix>
</trkpt>
<trkpt lat="-27.2736833" lon="151.289555">
  <ele>372.63</ele>
  <time>2026-09-01T19:57:41Z</time>
  <course>105.68</course>
  <speed>11.53</speed>
  <fix>3d</fix>
</trkpt>
<trkpt lat="-27.2736913" lon="151.2895865">
  <ele>372.48</ele>
  <time>2026-09-01T19:57:41Z</time>
  <course>105.64</course>
  <speed>11.14960985864528</speed>
  <fix>3d</fix>
</trkpt>
<trkpt lat="-27.2736833" lon="151.289555">
  <ele>372.63</ele>
  <time>2026-09-01T19:57:41Z</time>
  <course>105.68</course>
  <speed>11.53</speed>
  <fix>3d</fix>
</trkpt>
<trkpt lat="-27.273694" lon="151.2895973">
  <ele>372.51</ele>
  <time>2026-09-01T19:57:41Z</time>
  <course>105.64</course>
  <speed>11.00400836059297</speed>
  <fix>3d</fix>
</trkpt>
<trkpt lat="-27.2736888" lon="151.2895771">
  <ele>372.68</ele>
  <time>2026-09-01T19:57:41Z</time>
  <course>105.7</course>
  <speed>11.25</speed>
  <fix>3d</fix>
</trkpt>
<trkpt lat="-27.2736966" lon="151.2896079">
  <ele>372.53</ele>
  <time>2026-09-01T19:57:41Z</time>
  <course>105.64</course>
  <speed>10.870749744152883</speed>
  <fix>3d</fix>
</trkpt>
<trkpt lat="-27.2736888" lon="151.2895771">
  <ele>372.68</ele>
  <time>2026-09-01T19:57:41Z</time>
  <course>105.7</course>
  <speed>11.25</speed>
  <fix>3d</fix>
</trkpt>
<trkpt lat="-27.2736993" lon="151.2896183">
  <ele>372.55</ele>
  <time>2026-09-01T19:57:41Z</time>
  <course>105.64</course>
  <speed>10.725148017626609</speed>
  <fix>3d</fix>
</trkpt>
<trkpt lat="-27.2736942" lon="151.2895987">
  <ele>372.72</ele>
  <time>2026-09-01T19:57:41Z</time>
  <course>105.72</course>
  <speed>10.96</speed>
  <fix>3d</fix>
</trkpt>
<trkpt lat="-27.2737018" lon="151.2896287">
  <ele>372.56</ele>
  <time>2026-09-01T19:57:41Z</time>
  <course>105.63</course>
  <speed>10.579546304071835</speed>
  <fix>3d</fix>
</trkpt>
<trkpt lat="-27.2736942" lon="151.2895987">
  <ele>372.72</ele>
  <time>2026-09-01T19:57:41Z</time>
  <course>105.72</course>
  <speed>10.96</speed>
  <fix>3d</fix>
</trkpt>
<trkpt lat="-27.2737044" lon="151.2896388">
  <ele>372.57</ele>
  <time>2026-09-01T19:57:41Z</time>
  <course>105.63</course>
  <speed>10.443567398164289</speed>
  <fix>3d</fix>
</trkpt>
<trkpt lat="-27.2736995" lon="151.2896198">
  <ele>372.76</ele>
  <time>2026-09-01T19:57:41Z</time>
  <course>105.73</course>
  <speed>10.68</speed>
  <fix>3d</fix>
</trkpt>
<trkpt lat="-27.2737069" lon="151.2896489">
  <ele>372.58</ele>
  <time>2026-09-01T19:57:41Z</time>
  <course>105.62</course>
  <speed>10.297965818548825</speed>
  <fix>3d</fix>
</trkpt>
<trkpt lat="-27.2736995" lon="151.2896198">
  <ele>372.76</ele>
  <time>2026-09-01T19:57:41Z</time>
  <course>105.73</course>
  <speed>10.68</speed>
  <fix>3d</fix>
</trkpt>
<trkpt lat="-27.2737094" lon="151.2896588">
  <ele>372.59</ele>
  <time>2026-09-01T19:57:41Z</time>
  <course>105.6</course>
  <speed>10.152364256664553</speed>
  <fix>3d</fix>
</trkpt>
<trkpt lat="-27.2737046" lon="151.2896403">
  <ele>372.79</ele>
  <time>2026-09-01T19:57:41Z</time>
  <course>105.74</course>
  <speed>10.4</speed>
  <fix>3d</fix>
</trkpt>
<trkpt lat="-27.2737118" lon="151.2896686">
  <ele>372.6</ele>
  <time>2026-09-01T19:57:41Z</time>
  <course>105.59</course>
  <speed>10.00676271328545</speed>
  <fix>3d</fix>
</trkpt>
<trkpt lat="-27.2737046" lon="151.2896403">
  <ele>372.79</ele>
  <time>2026-09-01T19:57:41Z</time>
  <course>105.74</course>
  <speed>10.4</speed>
  <fix>3d</fix>
</trkpt>
<trkpt lat="-27.2737142" lon="151.2896783">
  <ele>372.62</ele>
  <time>2026-09-01T19:57:41Z</time>
  <course>105.59</course>
  <speed>9.851537951000342</speed>
  <fix>3d</fix>
</trkpt>
<trkpt lat="-27.2737096" lon="151.2896602">
  <ele>372.82</ele>
  <time>2026-09-01T19:57:41Z</time>
  <course>105.75</course>
  <speed>10.11</speed>
  <fix>3d</fix>
</trkpt>
<trkpt lat="-27.2737166" lon="151.2896877">
  <ele>372.64</ele>
  <time>2026-09-01T19:57:41Z</time>
  <course>105.58</course>
  <speed>9.683971292811643</speed>
  <fix>3d</fix>
</trkpt>
<trkpt lat="-27.2737096" lon="151.2896602">
  <ele>372.82</ele>
  <time>2026-09-01T19:57:41Z</time>
  <course>105.75</course>
  <speed>10.11</speed>
  <fix>3d</fix>
</trkpt>
<trkpt lat="-27.2737189" lon="151.289697">
  <ele>372.66</ele>
  <time>2026-09-01T19:57:41Z</time>
  <course>105.57</course>
  <speed>9.51912285875122</speed>
  <fix>3d</fix>
</trkpt>
<trkpt lat="-27.2737144" lon="151.2896796">
  <ele>372.84</ele>
  <time>2026-09-01T19:57:41Z</time>
  <course>105.74</course>
  <speed>9.8</speed>
  <fix>3d</fix>
</trkpt>
<trkpt lat="-27.2737212" lon="151.2897061">
  <ele>372.69</ele>
  <time>2026-09-01T19:57:41Z</time>
  <course>105.56</course>
  <speed>9.341932348288548</speed>
  <fix>3d</fix>
</trkpt>
<trkpt lat="-27.2737144" lon="151.2896796">
  <ele>372.84</ele>
  <time>2026-09-01T19:57:41Z</time>
  <course>105.74</course>
  <speed>9.8</speed>
  <fix>3d</fix>
</trkpt>
<trkpt lat="-27.2737234" lon="151.2897151">
  <ele>372.72</ele>
  <time>2026-09-01T19:57:41Z</time>
  <course>105.56</course>
  <speed>9.164742222234077</speed>
  <fix>3d</fix>
</trkpt>
<trkpt lat="-27.2737192" lon="151.2896984">
  <ele>372.88</ele>
  <time>2026-09-01T19:57:41Z</time>
  <course>105.74</course>
  <speed>9.47</speed>
  <fix>3d</fix>
</trkpt>
<trkpt lat="-27.2737256" lon="151.2897239">
  <ele>372.76</ele>
  <time>2026-09-01T19:57:41Z</time>
  <course>105.55</course>
  <speed>8.987552503323695</speed>
  <fix>3d</fix>
</trkpt>
<trkpt lat="-27.2737192" lon="151.2896984">
  <ele>372.88</ele>
  <time>2026-09-01T19:57:41Z</time>
  <course>105.74</course>
  <speed>9.47</speed>
  <fix>3d</fix>
</trkpt>
<trkpt lat="-27.2737278" lon="151.2897326">
  <ele>372.8</ele>
  <time>2026-09-01T19:57:41Z</time>
  <course>105.55</course>
  <speed>8.79802818817944</speed>
  <fix>3d</fix>
</trkpt>
<trkpt lat="-27.2737237" lon="151.2897165">
  <ele>372.94</ele>
  <time>2026-09-01T19:57:41Z</time>
  <course>105.73</course>
  <speed>9.12</speed>
  <fix>3d</fix>
</trkpt>
<trkpt lat="-27.2737299" lon="151.2897411">
  <ele>372.84</ele>
  <time>2026-09-01T19:57:41Z</time>
  <course>105.54</course>
  <speed>8.601587062862295</speed>
  <fix>3d</fix>
</trkpt>
<trkpt lat="-27.2737237" lon="151.2897165">
  <ele>372.94</ele>
  <time>2026-09-01T19:57:41Z</time>
  <course>105.73</course>
  <speed>9.12</speed>
  <fix>3d</fix>
</trkpt>
<trkpt lat="-27.273732" lon="151.2897493">
  <ele>372.87</ele>
  <time>2026-09-01T19:57:41Z</time>
  <course>105.53</course>
  <speed>8.414772724203548</speed>
  <fix>3d</fix>
</trkpt>
<trkpt lat="-27.2737281" lon="151.2897339">
  <ele>373.01</ele>
  <time>2026-09-01T19:57:41Z</time>
  <course>105.72</course>
  <speed>8.75</speed>
  <fix>3d</fix>
</trkpt>
<trkpt lat="-27.273734" lon="151.2897577">
  <ele>372.91</ele>
  <time>2026-09-01T19:57:41Z</time>
  <course>105.53</course>
  <speed>8.21562535659946</speed>
  <fix>3d</fix>
</trkpt>
<trkpt lat="-27.2737281" lon="151.2897339">
  <ele>373.01</ele>
  <time>2026-09-01T19:57:41Z</time>
  <course>105.72</course>
  <speed>8.75</speed>
  <fix>3d</fix>
</trkpt>
<trkpt lat="-27.273736" lon="151.2897655">
  <ele>372.95</ele>
  <time>2026-09-01T19:57:41Z</time>
  <course>105.52</course>
  <speed>8.019183250182028</speed>
  <fix>3d</fix>
</trkpt>
<trkpt lat="-27.2737323" lon="151.2897506">
  <ele>373.08</ele>
  <time>2026-09-01T19:57:41Z</time>
  <course>105.7</course>
  <speed>8.37</speed>
  <fix>3d</fix>
</trkpt>
<trkpt lat="-27.2737379" lon="151.2897732">
  <ele>372.98</ele>
  <time>2026-09-01T19:57:41Z</time>
  <course>105.51</course>
  <speed>7.829667936764625</speed>
  <fix>3d</fix>
</trkpt>
<trkpt lat="-27.2737323" lon="151.2897506">
  <ele>373.08</ele>
  <time>2026-09-01T19:57:41Z</time>
  <course>105.7</course>
  <speed>8.37</speed>
  <fix>3d</fix>
</trkpt>
<trkpt lat="-27.2737398" lon="151.2897807">
  <ele>373.01</ele>
  <time>2026-09-01T19:57:41Z</time>
  <course>105.5</course>
  <speed>7.633223434434499</speed>
  <fix>3d</fix>
</trkpt>
<trkpt lat="-27.2737362" lon="151.2897665">
  <ele>373.15</ele>
  <time>2026-09-01T19:57:41Z</time>
  <course>105.69</course>
  <speed>7.98</speed>
  <fix>3d</fix>
</trkpt>
<trkpt lat="-27.2737416" lon="151.289788">
  <ele>373.04</ele>
  <time>2026-09-01T19:57:41Z</time>
  <course>105.49</course>
  <speed>7.43678021727145</speed>
  <fix>3d</fix>
</trkpt>
<trkpt lat="-27.2737362" lon="151.2897665">
  <ele>373.15</ele>
  <time>2026-09-01T19:57:41Z</time>
  <course>105.69</course>
  <speed>7.98</speed>
  <fix>3d</fix>
</trkpt>
<trkpt lat="-27.2737433" lon="151.289795">
  <ele>373.06</ele>
  <time>2026-09-01T19:57:41Z</time>
  <course>105.48</course>
  <speed>7.2472684509406715</speed>
  <fix>3d</fix>
</trkpt>
<trkpt lat="-27.27374" lon="151.2897817">
  <ele>373.22</ele>
  <time>2026-09-01T19:57:41Z</time>
  <course>105.67</course>
  <speed>7.59</speed>
  <fix>3d</fix>
</trkpt>
<trkpt lat="-27.2737451" lon="151.289802">
  <ele>373.08</ele>
  <time>2026-09-01T19:57:41Z</time>
  <course>105.46</course>
  <speed>7.050822647039138</speed>
  <fix>3d</fix>
</trkpt>
<trkpt lat="-27.27374" lon="151.2897817">
  <ele>373.22</ele>
  <time>2026-09-01T19:57:41Z</time>
  <course>105.67</course>
  <speed>7.59</speed>
  <fix>3d</fix>
</trkpt>
<trkpt lat="-27.2737467" lon="151.2898087">
  <ele>373.09</ele>
  <time>2026-09-01T19:57:41Z</time>
  <course>105.45</course>
  <speed>6.861319115155627</speed>
  <fix>3d</fix>
</trkpt>
<trkpt lat="-27.2737436" lon="151.2897961">
  <ele>373.27</ele>
  <time>2026-09-01T19:57:41Z</time>
  <course>105.64</course>
  <speed>7.21</speed>
  <fix>3d</fix>
</trkpt>
<trkpt lat="-27.2737484" lon="151.2898153">
  <ele>373.09</ele>
  <time>2026-09-01T19:57:41Z</time>
  <course>105.43</course>
  <speed>6.674503726869887</speed>
  <fix>3d</fix>
</trkpt>
<trkpt lat="-27.2737436" lon="151.2897961">
  <ele>373.27</ele>
  <time>2026-09-01T19:57:41Z</time>
  <course>105.64</course>
  <speed>7.21</speed>
  <fix>3d</fix>
</trkpt>
<trkpt lat="-27.27375" lon="151.2898217">
  <ele>373.04</ele>
  <time>2026-09-01T19:57:41Z</time>
  <course>105.41</course>
  <speed>6.414888931228661</speed>
  <fix>3d</fix>
</trkpt>
<trkpt lat="-27.273747" lon="151.2898097">
  <ele>373.29</ele>
  <time>2026-09-01T19:57:41Z</time>
  <course>105.61</course>
  <speed>6.82</speed>
  <fix>3d</fix>
</trkpt>
<trkpt lat="-27.2737514" lon="151.2898277">
  <ele>372.93</ele>
  <time>2026-09-01T19:57:41Z</time>
  <course>105.42</course>
  <speed>5.9877291187895265</speed>
  <fix>3d</fix>
</trkpt>
<trkpt lat="-27.273747" lon="151.2898097">
  <ele>373.29</ele>
  <time>2026-09-01T19:57:41Z</time>
  <course>105.61</course>
  <speed>6.82</speed>
  <fix>3d</fix>
</trkpt>
<trkpt lat="-27.2737528" lon="151.2898333">
  <ele>372.78</ele>
  <time>2026-09-01T19:57:41Z</time>
  <course>105.48</course>
  <speed>5.449229303305193</speed>
  <fix>3d</fix>
</trkpt>
<trkpt lat="-27.2737502" lon="151.2898225">
  <ele>373.22</ele>
  <time>2026-09-01T19:57:41Z</time>
  <course>105.59</course>
  <speed>6.29</speed>
  <fix>3d</fix>
</trkpt>
<trkpt lat="-27.2737541" lon="151.2898383">
  <ele>372.61</ele>
  <time>2026-09-01T19:57:41Z</time>
  <course>105.58</course>
  <speed>4.857200839990045</speed>
  <fix>3d</fix>
</trkpt>
<trkpt lat="-27.2737502" lon="151.2898225">
  <ele>373.22</ele>
  <time>2026-09-01T19:57:41Z</time>
  <course>105.59</course>
  <speed>6.29</speed>
  <fix>3d</fix>
</trkpt>
<trkpt lat="-27.2737552" lon="151.2898427">
  <ele>372.44</ele>
  <time>2026-09-01T19:57:41Z</time>
  <course>105.69</course>
  <speed>4.255537568862482</speed>
  <fix>3d</fix>
</trkpt>
<trkpt lat="-27.2737531" lon="151.2898339">
  <ele>372.98</ele>
  <time>2026-09-01T19:57:41Z</time>
  <course>105.54</course>
  <speed>5.39</speed>
  <fix>3d</fix>
</trkpt>
<trkpt lat="-27.2737561" lon="151.2898465">
  <ele>372.27</ele>
  <time>2026-09-01T19:57:41Z</time>
  <course>105.8</course>
  <speed>3.651205280451922</speed>
  <fix>3d</fix>
</trkpt>
<trkpt lat="-27.2737531" lon="151.2898339">
  <ele>372.98</ele>
  <time>2026-09-01T19:57:41Z</time>
  <course>105.54</course>
  <speed>5.39</speed>
  <fix>3d</fix>
</trkpt>
<trkpt lat="-27.2737569" lon="151.2898498">
  <ele>372.11</ele>
  <time>2026-09-01T19:57:41Z</time>
  <course>105.91</course>
  <speed>3.0811199262605795</speed>
  <fix>3d</fix>
</trkpt>
<trkpt lat="-27.2737554" lon="151.2898434">
  <ele>372.64</ele>
  <time>2026-09-01T19:57:41Z</time>
  <course>105.46</course>
  <speed>4.22</speed>
  <fix>3d</fix>
</trkpt>
<trkpt lat="-27.2737576" lon="151.2898526">
  <ele>371.96</ele>
  <time>2026-09-01T19:57:41Z</time>
  <course>106.0</course>
  <speed>2.5522539058643834</speed>
  <fix>3d</fix>
</trkpt>
<trkpt lat="-27.2737554" lon="151.2898434">
  <ele>372.64</ele>
  <time>2026-09-01T19:57:41Z</time>
  <course>105.46</course>
  <speed>4.22</speed>
  <fix>3d</fix>
</trkpt>
<trkpt lat="-27.2737581" lon="151.2898549">
  <ele>371.83</ele>
  <time>2026-09-01T19:57:41Z</time>
  <course>106.08</course>
  <speed>2.0646065000382037</speed>
  <fix>3d</fix>
</trkpt>
<trkpt lat="-27.2737571" lon="151.2898505">
  <ele>372.3</ele>
  <time>2026-09-01T19:57:41Z</time>
  <course>105.35</course>
  <speed>3.06</speed>
  <fix>3d</fix>
</trkpt>
<trkpt lat="-27.2737586" lon="151.2898567">
  <ele>371.73</ele>
  <time>2026-09-01T19:57:41Z</time>
  <course>106.13</course>
  <speed>1.627820628939196</speed>
  <fix>3d</fix>
</trkpt>
<trkpt lat="-27.2737571" lon="151.2898505">
  <ele>372.3</ele>
  <time>2026-09-01T19:57:41Z</time>
  <course>105.35</course>
  <speed>3.06</speed>
  <fix>3d</fix>
</trkpt>
<trkpt lat="-27.273759" lon="151.2898581">
  <ele>371.65</ele>
  <time>2026-09-01T19:57:41Z</time>
  <course>106.17</course>
  <speed>1.25686116973992</speed>
  <fix>3d</fix>
</trkpt>
<trkpt lat="-27.2737583" lon="151.2898554">
  <ele>372.02</ele>
  <time>2026-09-01T19:57:41Z</time>
  <course>105.27</course>
  <speed>2.04</speed>
  <fix>3d</fix>
</trkpt>
<trkpt lat="-27.2737592" lon="151.2898592">
  <ele>371.61</ele>
  <time>2026-09-01T19:57:41Z</time>
  <course>106.2</course>
  <speed>0.943716058992322</speed>
  <fix>3d</fix>
</trkpt>
<trkpt lat="-27.2737583" lon="151.2898554">
  <ele>372.02</ele>
  <time>2026-09-01T19:57:41Z</time>
  <course>105.27</course>
  <speed>2.04</speed>
  <fix>3d</fix>
</trkpt>
<trkpt lat="-27.2737594" lon="151.2898601">
  <ele>371.59</ele>
  <time>2026-09-01T19:57:41Z</time>
  <course>106.22</course>
  <speed>0.6744627491566899</speed>
  <fix>3d</fix>
</trkpt>
<trkpt lat="-27.2737591" lon="151.2898586">
  <ele>371.85</ele>
  <time>2026-09-01T19:57:41Z</time>
  <course>105.31</course>
  <speed>1.23</speed>
  <fix>3d</fix>
</trkpt>
<trkpt lat="-27.2737596" lon="151.2898606">
  <ele>371.6</ele>
  <time>2026-09-01T19:57:41Z</time>
  <course>106.22</course>
  <speed>0.46840153714521476</speed>
  <fix>3d</fix>
</trkpt>
<trkpt lat="-27.2737591" lon="151.2898586">
  <ele>371.85</ele>
  <time>2026-09-01T19:57:41Z</time>
  <course>105.31</course>
  <speed>1.23</speed>
  <fix>3d</fix>
</trkpt>
<trkpt lat="-27.2737597" lon="151.289861">
  <ele>371.63</ele>
  <time>2026-09-01T19:57:41Z</time>
  <course>106.22</course>
  <speed>0.32572994949804657</speed>
  <fix>3d</fix>
</trkpt>
<trkpt lat="-27.2737595" lon="151.2898604">
  <ele>371.79</ele>
  <time>2026-09-01T19:57:41Z</time>
  <course>105.76</course>
  <speed>0.64</speed>
  <fix>3d</fix>
</trkpt>
<trkpt lat="-27.2737598" lon="151.2898613">
  <ele>371.69</ele>
  <time>2026-09-01T19:57:41Z</time>
  <course>106.22</course>
  <speed>0.22135943621178655</speed>
  <fix>3d</fix>
</trkpt>
<trkpt lat="-27.2737595" lon="151.2898604">
  <ele>371.79</ele>
  <time>2026-09-01T19:57:41Z</time>
  <course>105.76</course>
  <speed>0.64</speed>
  <fix>3d</fix>
</trkpt>
<trkpt lat="-27.2737598" lon="151.2898615">
  <ele>371.75</ele>
  <time>2026-09-01T19:57:41Z</time>
  <course>106.22</course>
  <speed>0.1615549442140351</speed>
  <fix>3d</fix>
</trkpt>
<trkpt lat="-27.2737597" lon="151.2898612">
  <ele>371.83</ele>
  <time>2026-09-01T19:57:41Z</time>
  <course>107.8</course>
  <speed>0.27</speed>
  <fix>3d</fix>
</trkpt>
<trkpt lat="-27.2737599" lon="151.2898616">
  <ele>371.82</ele>
  <time>2026-09-01T19:57:41Z</time>
  <course>106.22</course>
  <speed>0.12083045973594572</speed>
  <fix>3d</fix>
</trkpt>
<trkpt lat="-27.2737597" lon="151.2898612">
  <ele>371.83</ele>
  <time>2026-09-01T19:57:41Z</time>
  <course>107.8</course>
  <speed>0.27</speed>
  <fix>3d</fix>
</trkpt>
<trkpt lat="-27.2737599" lon="151.2898617">
  <ele>371.9</ele>
  <time>2026-09-01T19:57:41Z</time>
  <course>106.23</course>
  <speed>0.10770329614269007</speed>
  <fix>3d</fix>
</trkpt>
<trkpt lat="-27.2737598" lon="151.2898615">
  <ele>371.95</ele>
  <time>2026-09-01T19:57:41Z</time>
  <course>117.02</course>
  <speed>0.09</speed>
  <fix>3d</fix>
</trkpt>
<trkpt lat="-27.2737599" lon="151.2898618">
  <ele>371.98</ele>
  <time>2026-09-01T19:57:41Z</time>
  <course>106.27</course>
  <speed>0.09848857801796104</speed>
  <fix>3d</fix>
</trkpt>
<trkpt lat="-27.2737598" lon="151.2898615">
  <ele>371.95</ele>
  <time>2026-09-01T19:57:41Z</time>
  <course>117.02</course>
  <speed>0.09</speed>
  <fix>3d</fix>
</trkpt>
<trkpt lat="-27.27376" lon="151.2898619">
  <ele>372.05</ele>
  <time>2026-09-01T19:57:41Z</time>
  <course>106.33</course>
  <speed>0.08944271909999159</speed>
  <fix>3d</fix>
</trkpt>
<trkpt lat="-27.2737599" lon="151.2898616">
  <ele>372.09</ele>
  <time>2026-09-01T19:57:41Z</time>
  <course>150.31</course>
  <speed>0.03</speed>
  <fix>3d</fix>
</trkpt>
<trkpt lat="-27.27376" lon="151.2898619">
  <ele>372.11</ele>
  <time>2026-09-01T19:57:41Z</time>
  <course>106.4</course>
  <speed>0.08944271909999159</speed>
  <fix>3d</fix>
</trkpt>
<trkpt lat="-27.2737599" lon="151.2898616">
  <ele>372.09</ele>
  <time>2026-09-01T19:57:41Z</time>
  <course>150.31</course>
  <speed>0.03</speed>
  <fix>3d</fix>
</trkpt>
<trkpt lat="-27.27376" lon="151.289862">
  <ele>372.17</ele>
  <time>2026-09-01T19:57:41Z</time>
  <course>106.47</course>
  <speed>0.08944271909999159</speed>
  <fix>3d</fix>
</trkpt>
<trkpt lat="-27.27376" lon="151.2898617">
  <ele>372.24</ele>
  <time>2026-09-01T19:57:41Z</time>
  <course>182.16</course>
  <speed>0.02</speed>
  <fix>3d</fix>
</trkpt>
<trkpt lat="-27.2737601" lon="151.289862">
  <ele>372.21</ele>
  <time>2026-09-01T19:57:41Z</time>
  <course>106.51</course>
  <speed>0.09848857801796104</speed>
  <fix>3d</fix>
</trkpt>
<trkpt lat="-27.27376" lon="151.2898617">
  <ele>372.24</ele>
  <time>2026-09-01T19:57:41Z</time>
  <course>182.16</course>
  <speed>0.02</speed>
  <fix>3d</fix>
</trkpt>
<trkpt lat="-27.2737601" lon="151.2898621">
  <ele>372.24</ele>
  <time>2026-09-01T19:57:41Z</time>
  <course>106.51</course>
  <speed>0.10770329614269007</speed>
  <fix>3d</fix>
</trkpt>
<trkpt lat="-27.27376" lon="151.2898617">
  <ele>372.36</ele>
  <time>2026-09-01T19:57:41Z</time>
  <course>179.74</course>
  <speed>0.02</speed>
  <fix>3d</fix>
</trkpt>
<trkpt lat="-27.2737601" lon="151.2898622">
  <ele>372.27</ele>
  <time>2026-09-01T19:57:41Z</time>
  <course>106.46</course>
  <speed>0.11704699910719625</speed>
  <fix>3d</fix>
</trkpt>
<trkpt lat="-27.27376" lon="151.2898617">
  <ele>372.36</ele>
  <time>2026-09-01T19:57:41Z</time>
  <course>179.74</course>
  <speed>0.02</speed>
  <fix>3d</fix>
</trkpt>
<trkpt lat="-27.2737601" lon="151.2898622">
  <ele>372.28</ele>
  <time>2026-09-01T19:57:41Z</time>
  <course>106.38</course>
  <speed>0.13</speed>
  <fix>3d</fix>
</trkpt>
<trkpt lat="-27.27376" lon="151.2898617">
  <ele>372.44</ele>
  <time>2026-09-01T19:57:41Z</time>
  <course>159.11</course>
  <speed>0.03</speed>
  <fix>3d</fix>
</trkpt>
<trkpt lat="-27.2737602" lon="151.2898623">
  <ele>372.28</ele>
  <time>2026-09-01T19:57:41Z</time>
  <course>106.29</course>
  <speed>0.15231546211727817</speed>
  <fix>3d</fix>
</trkpt>
<trkpt lat="-27.27376" lon="151.2898617">
  <ele>372.44</ele>
  <time>2026-09-01T19:57:41Z</time>
  <course>159.11</course>
  <speed>0.03</speed>
  <fix>3d</fix>
</trkpt>
<trkpt lat="-27.2737602" lon="151.2898624">
  <ele>372.28</ele>
  <time>2026-09-01T19:57:41Z</time>
  <course>106.19</course>
  <speed>0.1708800749063506</speed>
  <fix>3d</fix>
</trkpt>
<trkpt lat="-27.2737601" lon="151.2898617">
  <ele>372.47</ele>
  <time>2026-09-01T19:57:41Z</time>
  <course>139.28</course>
  <speed>0.06</speed>
  <fix>3d</fix>
</trkpt>
<trkpt lat="-27.2737603" lon="151.2898625">
  <ele>372.27</ele>
  <time>2026-09-01T19:57:41Z</time>
  <course>106.11</course>
  <speed>0.20248456731316586</speed>
  <fix>3d</fix>
</trkpt>
<trkpt lat="-27.2737601" lon="151.2898617">
  <ele>372.47</ele>
  <time>2026-09-01T19:57:41Z</time>
  <course>139.28</course>
  <speed>0.06</speed>
  <fix>3d</fix>
</trkpt>
<trkpt lat="-27.2737604" lon="151.2898627">
  <ele>372.25</ele>
  <time>2026-09-01T19:57:41Z</time>
  <course>106.06</course>
  <speed>0.2340939982143925</speed>
  <fix>3d</fix>
</trkpt>
<trkpt lat="-27.2737602" lon="151.2898618">
  <ele>372.47</ele>
  <time>2026-09-01T19:57:41Z</time>
  <course>126.96</course>
  <speed>0.1</speed>
  <fix>3d</fix>
</trkpt>
<trkpt lat="-27.2737604" lon="151.2898628">
  <ele>372.23</ele>
  <time>2026-09-01T19:57:41Z</time>
  <course>106.04</course>
  <speed>0.2785677655436824</speed>
  <fix>3d</fix>
</trkpt>
<trkpt lat="-27.2737602" lon="151.2898618">
  <ele>372.47</ele>
  <time>2026-09-01T19:57:41Z</time>
  <course>126.96</course>
  <speed>0.1</speed>
  <fix>3d</fix>
</trkpt>
<trkpt lat="-27.2737605" lon="151.2898631">
  <ele>372.21</ele>
  <time>2026-09-01T19:57:41Z</time>
  <course>106.04</course>
  <speed>0.3289376840679705</speed>
  <fix>3d</fix>
</trkpt>
<trkpt lat="-27.2737604" lon="151.289862">
  <ele>372.44</ele>
  <time>2026-09-01T19:57:41Z</time>
  <course>120.0</course>
  <speed>0.17</speed>
  <fix>3d</fix>
</trkpt>
<trkpt lat="-27.2737606" lon="151.2898633">
  <ele>372.19</ele>
  <time>2026-09-01T19:57:41Z</time>
  <course>106.07</course>
  <speed>0.37</speed>
  <fix>3d</fix>
</trkpt>
<trkpt lat="-27.2737604" lon="151.289862">
  <ele>372.44</ele>
  <time>2026-09-01T19:57:41Z</time>
  <course>120.0</course>
  <speed>0.17</speed>
  <fix>3d</fix>
</trkpt>
<trkpt lat="-27.2737607" lon="151.2898636">
  <ele>372.17</ele>
  <time>2026-09-01T19:57:41Z</time>
  <course>106.1</course>
  <speed>0.42379240200834184</speed>
  <fix>3d</fix>
</trkpt>
<trkpt lat="-27.2737606" lon="151.2898624">
  <ele>372.4</ele>
  <time>2026-09-01T19:57:41Z</time>
  <course>115.96</course>
  <speed>0.25</speed>
  <fix>3d</fix>
</trkpt>
<trkpt lat="-27.2737609" lon="151.289864">
  <ele>372.15</ele>
  <time>2026-09-01T19:57:41Z</time>
  <course>106.14</course>
  <speed>0.4838388161361178</speed>
  <fix>3d</fix>
</trkpt>
<trkpt lat="-27.2737606" lon="151.2898624">
  <ele>372.4</ele>
  <time>2026-09-01T19:57:41Z</time>
  <course>115.96</course>
  <speed>0.25</speed>
  <fix>3d</fix>
</trkpt>
<trkpt lat="-27.273761" lon="151.2898644">
  <ele>372.14</ele>
  <time>2026-09-01T19:57:41Z</time>
  <course>106.17</course>
  <speed>0.5470831746635972</speed>
  <fix>3d</fix>
</trkpt>
<trkpt lat="-27.2737608" lon="151.289863">
  <ele>372.36</ele>
  <time>2026-09-01T19:57:41Z</time>
  <course>113.42</course>
  <speed>0.36</speed>
  <fix>3d</fix>
</trkpt>
<trkpt lat="-27.2737612" lon="151.2898649">
  <ele>372.13</ele>
  <time>2026-09-01T19:57:41Z</time>
  <course>106.2</course>
  <speed>0.6008327554319921</speed>
  <fix>3d</fix>
</trkpt>
<trkpt lat="-27.2737608" lon="151.289863">
  <ele>372.36</ele>
  <time>2026-09-01T19:57:41Z</time>
  <course>113.42</course>
  <speed>0.36</speed>
  <fix>3d</fix>
</trkpt>
<trkpt lat="-27.2737614" lon="151.2898654">
  <ele>372.12</ele>
  <time>2026-09-01T19:57:41Z</time>
  <course>106.21</course>
  <speed>0.6609841147864296</speed>
  <fix>3d</fix>
</trkpt>
<trkpt lat="-27.273761" lon="151.2898638">
  <ele>372.33</ele>
  <time>2026-09-01T19:57:41Z</time>
  <course>111.71</course>
  <speed>0.48</speed>
  <fix>3d</fix>
</trkpt>
<trkpt lat="-27.2737616" lon="151.2898661">
  <ele>372.12</ele>
  <time>2026-09-01T19:57:41Z</time>
  <course>106.22</course>
  <speed>0.7337574531137656</speed>
  <fix>3d</fix>
</trkpt>
<trkpt lat="-27.273761" lon="151.2898638">
  <ele>372.33</ele>
  <time>2026-09-01T19:57:41Z</time>
  <course>111.71</course>
  <speed>0.48</speed>
  <fix>3d</fix>
</trkpt>
<trkpt lat="-27.2737618" lon="151.2898667">
  <ele>372.12</ele>
  <time>2026-09-01T19:57:41Z</time>
  <course>106.21</course>
  <speed>0.7844743462982074</speed>
  <fix>3d</fix>
</trkpt>
<trkpt lat="-27.2737614" lon="151.2898648">
  <ele>372.31</ele>
  <time>2026-09-01T19:57:41Z</time>
  <course>110.49</course>
  <speed>0.61</speed>
  <fix>3d</fix>
</trkpt>
<trkpt lat="-27.273762" lon="151.2898674">
  <ele>372.13</ele>
  <time>2026-09-01T19:57:41Z</time>
  <course>106.2</course>
  <speed>0.8477027781009095</speed>
  <fix>3d</fix>
</trkpt>
<trkpt lat="-27.2737614" lon="151.2898648">
  <ele>372.31</ele>
  <time>2026-09-01T19:57:41Z</time>
  <course>110.49</course>
  <speed>0.61</speed>
  <fix>3d</fix>
</trkpt>
<trkpt lat="-27.2737622" lon="151.2898682">
  <ele>372.13</ele>
  <time>2026-09-01T19:57:41Z</time>
  <course>106.19</course>
  <speed>0.9109335870413386</speed>
  <fix>3d</fix>
</trkpt>
<trkpt lat="-27.2737618" lon="151.2898661">
  <ele>372.31</ele>
  <time>2026-09-01T19:57:41Z</time>
  <course>109.57</course>
  <speed>0.73</speed>
  <fix>3d</fix>
</trkpt>
<trkpt lat="-27.2737625" lon="151.2898691">
  <ele>372.14</ele>
  <time>2026-09-01T19:57:41Z</time>
  <course>106.17</course>
  <speed>0.9712363255150623</speed>
  <fix>3d</fix>
</trkpt>
<trkpt lat="-27.2737618" lon="151.2898661">
  <ele>372.31</ele>
  <time>2026-09-01T19:57:41Z</time>
  <course>109.57</course>
  <speed>0.73</speed>
  <fix>3d</fix>
</trkpt>
<trkpt lat="-27.2737627" lon="151.28987">
  <ele>372.15</ele>
  <time>2026-09-01T19:57:41Z</time>
  <course>106.16</course>
  <speed>1.0220078277586722</speed>
  <fix>3d</fix>
</trkpt>
<trkpt lat="-27.2737623" lon="151.2898677">
  <ele>372.32</ele>
  <time>2026-09-01T19:57:41Z</time>
  <course>108.86</course>
  <speed>0.86</speed>
  <fix>3d</fix>
</trkpt>
<trkpt lat="-27.273763" lon="151.2898709">
  <ele>372.16</ele>
  <time>2026-09-01T19:57:41Z</time>
  <course>106.15</course>
  <speed>1.0852188719332152</speed>
  <fix>3d</fix>
</trkpt>
<trkpt lat="-27.2737623" lon="151.2898677">
  <ele>372.32</ele>
  <time>2026-09-01T19:57:41Z</time>
  <course>108.86</course>
  <speed>0.86</speed>
  <fix>3d</fix>
</trkpt>
<trkpt lat="-27.2737633" lon="151.2898719">
  <ele>372.17</ele>
  <time>2026-09-01T19:57:41Z</time>
  <course>106.15</course>
  <speed>1.126410227226298</speed>
  <fix>3d</fix>
</trkpt>
<trkpt lat="-27.2737628" lon="151.2898694">
  <ele>372.34</ele>
  <time>2026-09-01T19:57:41Z</time>
  <course>108.3</course>
  <speed>0.98</speed>
  <fix>3d</fix>
</trkpt>
<trkpt lat="-27.2737636" lon="151.289873">
  <ele>372.18</ele>
  <time>2026-09-01T19:57:41Z</time>
  <course>106.15</course>
  <speed>1.1772000679578642</speed>
  <fix>3d</fix>
</trkpt>
<trkpt lat="-27.2737628" lon="151.2898694">
  <ele>372.34</ele>
  <time>2026-09-01T19:57:41Z</time>
  <course>108.3</course>
  <speed>0.98</speed>
  <fix>3d</fix>
</trkpt>
<trkpt lat="-27.2737639" lon="151.2898741">
  <ele>372.19</ele>
  <time>2026-09-01T19:57:41Z</time>
  <course>106.15</course>
  <speed>1.218400590938793</speed>
  <fix>3d</fix>
</trkpt>
<trkpt lat="-27.2737634" lon="151.2898714">
  <ele>372.37</ele>
  <time>2026-09-01T19:57:41Z</time>
  <course>107.84</course>
  <speed>1.09</speed>
  <fix>3d</fix>
</trkpt>
<trkpt lat="-27.2737642" lon="151.2898752">
  <ele>372.2</ele>
  <time>2026-09-01T19:57:41Z</time>
  <course>106.15</course>
  <speed>1.2596031120952345</speed>
  <fix>3d</fix>
</trkpt>
<trkpt lat="-27.2737634" lon="151.2898714">
  <ele>372.37</ele>
  <time>2026-09-01T19:57:41Z</time>
  <course>107.84</course>
  <speed>1.09</speed>
  <fix>3d</fix>
</trkpt>
<trkpt lat="-27.2737645" lon="151.2898764">
  <ele>372.2</ele>
  <time>2026-09-01T19:57:41Z</time>
  <course>106.15</course>
  <speed>1.298075498574717</speed>
  <fix>3d</fix>
</trkpt>
<trkpt lat="-27.273764" lon="151.2898736">
  <ele>372.38</ele>
  <time>2026-09-01T19:57:41Z</time>
  <course>107.44</course>
  <speed>1.19</speed>
  <fix>3d</fix>
</trkpt>
<trkpt lat="-27.2737649" lon="151.2898776">
  <ele>372.21</ele>
  <time>2026-09-01T19:57:41Z</time>
  <course>106.15</course>
  <speed>1.329661611087573</speed>
  <fix>3d</fix>
</trkpt>
<trkpt lat="-27.273764" lon="151.2898736">
  <ele>372.38</ele>
  <time>2026-09-01T19:57:41Z</time>
  <course>107.44</course>
  <speed>1.19</speed>
  <fix>3d</fix>
</trkpt>
<trkpt lat="-27.2737652" lon="151.2898788">
  <ele>372.21</ele>
  <time>2026-09-01T19:57:41Z</time>
  <course>106.15</course>
  <speed>1.3612494260788506</speed>
  <fix>3d</fix>
</trkpt>
<trkpt lat="-27.2737647" lon="151.289876">
  <ele>372.39</ele>
  <time>2026-09-01T19:57:41Z</time>
  <course>107.08</course>
  <speed>1.27</speed>
  <fix>3d</fix>
</trkpt>
<trkpt lat="-27.2737656" lon="151.2898802">
  <ele>372.21</ele>
  <time>2026-09-01T19:57:41Z</time>
  <course>106.15</course>
  <speed>1.3805071531868278</speed>
  <fix>3d</fix>
</trkpt>
<trkpt lat="-27.2737647" lon="151.289876">
  <ele>372.39</ele>
  <time>2026-09-01T19:57:41Z</time>
  <course>107.08</course>
  <speed>1.27</speed>
  <fix>3d</fix>
</trkpt>
<trkpt lat="-27.2737659" lon="151.2898814">
  <ele>372.21</ele>
  <time>2026-09-01T19:57:41Z</time>
  <course>106.14</course>
  <speed>1.3997856978837868</speed>
  <fix>3d</fix>
</trkpt>
<trkpt lat="-27.2737654" lon="151.2898786">
  <ele>372.4</ele>
  <time>2026-09-01T19:57:41Z</time>
  <course>106.77</course>
  <speed>1.34</speed>
  <fix>3d</fix>
</trkpt>
<trkpt lat="-27.2737663" lon="151.2898828">
  <ele>372.21</ele>
  <time>2026-09-01T19:57:41Z</time>
  <course>106.14</course>
  <speed>1.421724305201258</speed>
  <fix>3d</fix>
</trkpt>
<trkpt lat="-27.2737654" lon="151.2898786">
  <ele>372.4</ele>
  <time>2026-09-01T19:57:41Z</time>
  <course>106.77</course>
  <speed>1.34</speed>
  <fix>3d</fix>
</trkpt>
<trkpt lat="-27.2737666" lon="151.2898841">
  <ele>372.21</ele>
  <time>2026-09-01T19:57:41Z</time>
  <course>106.13</course>
  <speed>1.431362986806631</speed>
  <fix>3d</fix>
</trkpt>
<trkpt lat="-27.273766" lon="151.2898812">
  <ele>372.4</ele>
  <time>2026-09-01T19:57:41Z</time>
  <course>106.48</course>
  <speed>1.39</speed>
  <fix>3d</fix>
</trkpt>
<trkpt lat="-27.273767" lon="151.2898855">
  <ele>372.21</ele>
  <time>2026-09-01T19:57:41Z</time>
  <course>106.13</course>
  <speed>1.4410065926289164</speed>
  <fix>3d</fix>
</trkpt>
<trkpt lat="-27.273766" lon="151.2898812">
  <ele>372.4</ele>
  <time>2026-09-01T19:57:41Z</time>
  <course>106.48</course>
  <speed>1.39</speed>
  <fix>3d</fix>
</trkpt>
<trkpt lat="-27.2737673" lon="151.2898868">
  <ele>372.21</ele>
  <time>2026-09-01T19:57:41Z</time>
  <course>106.13</course>
  <speed>1.438401890988746</speed>
  <fix>3d</fix>
</trkpt>
<trkpt lat="-27.2737668" lon="151.2898839">
  <ele>372.4</ele>
  <time>2026-09-01T19:57:41Z</time>
  <course>106.21</course>
  <speed>1.42</speed>
  <fix>3d</fix>
</trkpt>
<trkpt lat="-27.2737677" lon="151.2898882">
  <ele>372.2</ele>
  <time>2026-09-01T19:57:41Z</time>
  <course>106.13</course>
  <speed>1.438401890988746</speed>
  <fix>3d</fix>
</trkpt>
<trkpt lat="-27.2737668" lon="151.2898839">
  <ele>372.4</ele>
  <time>2026-09-01T19:57:41Z</time>
  <course>106.21</course>
  <speed>1.42</speed>
  <fix>3d</fix>
</trkpt>
<trkpt lat="-27.273768" lon="151.2898896">
  <ele>372.2</ele>
  <time>2026-09-01T19:57:41Z</time>
  <course>106.12</course>
  <speed>1.4287407042567242</speed>
  <fix>3d</fix>
</trkpt>
<trkpt lat="-27.2737675" lon="151.2898866">
  <ele>372.39</ele>
  <time>2026-09-01T19:57:41Z</time>
  <course>105.94</course>
  <speed>1.43</speed>
  <fix>3d</fix>
</trkpt>
<trkpt lat="-27.2737684" lon="151.289891">
  <ele>372.19</ele>
  <time>2026-09-01T19:57:41Z</time>
  <course>106.12</course>
  <speed>1.4165097952361643</speed>
  <fix>3d</fix>
</trkpt>
<trkpt lat="-27.2737675" lon="151.2898866">
  <ele>372.39</ele>
  <time>2026-09-01T19:57:41Z</time>
  <course>105.94</course>
  <speed>1.43</speed>
  <fix>3d</fix>
</trkpt>
<trkpt lat="-27.2737687" lon="151.2898923">
  <ele>372.17</ele>
  <time>2026-09-01T19:57:41Z</time>
  <course>106.12</course>
  <speed>1.4043147795277242</speed>
  <fix>3d</fix>
</trkpt>
<trkpt lat="-27.2737682" lon="151.2898894">
  <ele>372.38</ele>
  <time>2026-09-01T19:57:41Z</time>
  <course>105.69</course>
  <speed>1.42</speed>
  <fix>3d</fix>
</trkpt>
<trkpt lat="-27.273769" lon="151.2898936">
  <ele>372.14</ele>
  <time>2026-09-01T19:57:41Z</time>
  <course>106.11</course>
  <speed>1.3849548729110273</speed>
  <fix>3d</fix>
</trkpt>
<trkpt lat="-27.2737682" lon="151.2898894">
  <ele>372.38</ele>
  <time>2026-09-01T19:57:41Z</time>
  <course>105.69</course>
  <speed>1.42</speed>
  <fix>3d</fix>
</trkpt>
<trkpt lat="-27.2737694" lon="151.289895">
  <ele>372.1</ele>
  <time>2026-09-01T19:57:41Z</time>
  <course>106.11</course>
  <speed>1.3727709204379295</speed>
  <fix>3d</fix>
</trkpt>
<trkpt lat="-27.2737689" lon="151.2898923">
  <ele>372.35</ele>
  <time>2026-09-01T19:57:41Z</time>
  <course>105.45</course>
  <speed>1.4</speed>
  <fix>3d</fix>
</trkpt>
<trkpt lat="-27.2737697" lon="151.2898963">
  <ele>372.03</ele>
  <time>2026-09-01T19:57:41Z</time>
  <course>106.1</course>
  <speed>1.3509256086106296</speed>
  <fix>3d</fix>
</trkpt>
<trkpt lat="-27.2737689" lon="151.2898923">
  <ele>372.35</ele>
  <time>2026-09-01T19:57:41Z</time>
  <course>105.45</course>
  <speed>1.4</speed>
  <fix>3d</fix>
</trkpt>
<trkpt lat="-27.27377" lon="151.2898976">
  <ele>371.95</ele>
  <time>2026-09-01T19:57:41Z</time>
  <course>106.1</course>
  <speed>1.3096946208945044</speed>
  <fix>3d</fix>
</trkpt>
<trkpt lat="-27.2737695" lon="151.289895">
  <ele>372.27</ele>
  <time>2026-09-01T19:57:41Z</time>
  <course>105.23</course>
  <speed>1.37</speed>
  <fix>3d</fix>
</trkpt>
<trkpt lat="-27.2737703" lon="151.2898988">
  <ele>371.84</ele>
  <time>2026-09-01T19:57:41Z</time>
  <course>106.09</course>
  <speed>1.2684636376341263</speed>
  <fix>3d</fix>
</trkpt>
<trkpt lat="-27.2737695" lon="151.289895">
  <ele>372.27</ele>
  <time>2026-09-01T19:57:41Z</time>
  <course>105.23</course>
  <speed>1.37</speed>
  <fix>3d</fix>
</trkpt>
<trkpt lat="-27.2737706" lon="151.2899">
  <ele>371.72</ele>
  <time>2026-09-01T19:57:41Z</time>
  <course>106.08</course>
  <speed>1.2151131634543344</speed>
  <fix>3d</fix>
</trkpt>
<trkpt lat="-27.2737702" lon="151.2898976">
  <ele>372.13</ele>
  <time>2026-09-01T19:57:41Z</time>
  <course>104.99</course>
  <speed>1.31</speed>
  <fix>3d</fix>
</trkpt>
<trkpt lat="-27.2737708" lon="151.2899012">
  <ele>371.59</ele>
  <time>2026-09-01T19:57:41Z</time>
  <course>106.07</course>
  <speed>1.1641735265844178</speed>
  <fix>3d</fix>
</trkpt>
<trkpt lat="-27.2737702" lon="151.2898976">
  <ele>372.13</ele>
  <time>2026-09-01T19:57:41Z</time>
  <course>104.99</course>
  <speed>1.31</speed>
  <fix>3d</fix>
</trkpt>
<trkpt lat="-27.2737711" lon="151.2899023">
  <ele>371.44</ele>
  <time>2026-09-01T19:57:41Z</time>
  <course>106.06</course>
  <speed>1.101135777277262</speed>
  <fix>3d</fix>
</trkpt>
<trkpt lat="-27.2737708" lon="151.2899001">
  <ele>371.91</ele>
  <time>2026-09-01T19:57:41Z</time>
  <course>104.72</course>
  <speed>1.22</speed>
  <fix>3d</fix>
</trkpt>
<trkpt lat="-27.2737714" lon="151.2899034">
  <ele>371.29</ele>
  <time>2026-09-01T19:57:41Z</time>
  <course>106.05</course>
  <speed>1.0381233067415452</speed>
  <fix>3d</fix>
</trkpt>
<trkpt lat="-27.2737708" lon="151.2899001">
  <ele>371.91</ele>
  <time>2026-09-01T19:57:41Z</time>
  <course>104.72</course>
  <speed>1.22</speed>
  <fix>3d</fix>
</trkpt>
<trkpt lat="-27.2737716" lon="151.2899043">
  <ele>371.12</ele>
  <time>2026-09-01T19:57:41Z</time>
  <course>106.04</course>
  <speed>0.9751410154434076</speed>
  <fix>3d</fix>
</trkpt>
<trkpt lat="-27.2737713" lon="151.2899024">
  <ele>371.63</ele>
  <time>2026-09-01T19:57:41Z</time>
  <course>104.39</course>
  <speed>1.11</speed>
  <fix>3d</fix>
</trkpt>
<trkpt lat="-27.2737718" lon="151.2899053">
  <ele>370.96</ele>
  <time>2026-09-01T19:57:41Z</time>
  <course>106.03</course>
  <speed>0.9024411338142783</speed>
  <fix>3d</fix>
</trkpt>
<trkpt lat="-27.2737713" lon="151.2899024">
  <ele>371.63</ele>
  <time>2026-09-01T19:57:41Z</time>
  <course>104.39</course>
  <speed>1.11</speed>
  <fix>3d</fix>
</trkpt>
<trkpt lat="-27.273772" lon="151.2899061">
  <ele>370.79</ele>
  <time>2026-09-01T19:57:41Z</time>
  <course>106.02</course>
  <speed>0.8297590011563598</speed>
  <fix>3d</fix>
</trkpt>
<trkpt lat="-27.2737718" lon="151.2899044">
  <ele>371.31</ele>
  <time>2026-09-01T19:57:41Z</time>
  <course>103.98</course>
  <speed>0.97</speed>
  <fix>3d</fix>
</trkpt>
<trkpt lat="-27.2737721" lon="151.2899069">
  <ele>370.62</ele>
  <time>2026-09-01T19:57:41Z</time>
  <course>106.0</course>
  <speed>0.757099729229908</speed>
  <fix>3d</fix>
</trkpt>
<trkpt lat="-27.2737718" lon="151.2899044">
  <ele>371.31</ele>
  <time>2026-09-01T19:57:41Z</time>
  <course>103.98</course>
  <speed>0.97</speed>
  <fix>3d</fix>
</trkpt>
<trkpt lat="-27.2737723" lon="151.2899076">
  <ele>370.46</ele>
  <time>2026-09-01T19:57:41Z</time>
  <course>105.99</course>
  <speed>0.6844705983459041</speed>
  <fix>3d</fix>
</trkpt>
<trkpt lat="-27.2737721" lon="151.2899062">
  <ele>370.97</ele>
  <time>2026-09-01T19:57:41Z</time>
  <course>103.46</course>
  <speed>0.83</speed>
  <fix>3d</fix>
</trkpt>
<trkpt lat="-27.2737724" lon="151.2899083">
  <ele>370.3</ele>
  <time>2026-09-01T19:57:42Z</time>
  <course>105.98</course>
  <speed>0.6118823416311342</speed>
  <fix>3d</fix>
</trkpt>
<trkpt lat="-27.2737721" lon="151.2899062">
  <ele>370.97</ele>
  <time>2026-09-01T19:57:42Z</time>
  <course>103.46</course>
  <speed>0.83</speed>
  <fix>3d</fix>
</trkpt>
<trkpt lat="-27.2737725" lon="151.2899088">
  <ele>370.13</ele>
  <time>2026-09-01T19:57:42Z</time>
  <course>105.97</course>
  <speed>0.539351462406472</speed>
  <fix>3d</fix>
</trkpt>
<trkpt lat="-27.2737724" lon="151.2899077">
  <ele>370.64</ele>
  <time>2026-09-01T19:57:42Z</time>
  <course>102.77</course>
  <speed>0.68</speed>
  <fix>3d</fix>
</trkpt>
<trkpt lat="-27.2737726" lon="151.2899093">
  <ele>369.98</ele>
  <time>2026-09-01T19:57:42Z</time>
  <course>105.96</course>
  <speed>0.4669047011971501</speed>
  <fix>3d</fix>
</trkpt>
<trkpt lat="-27.2737724" lon="151.2899077">
  <ele>370.64</ele>
  <time>2026-09-01T19:57:42Z</time>
  <course>102.77</course>
  <speed>0.68</speed>
  <fix>3d</fix>
</trkpt>
<trkpt lat="-27.2737727" lon="151.2899098">
  <ele>369.82</ele>
  <time>2026-09-01T19:57:42Z</time>
  <course>105.96</course>
  <speed>0.4044749683231337</speed>
  <fix>3d</fix>
</trkpt>
<trkpt lat="-27.2737727" lon="151.2899089">
  <ele>370.32</ele>
  <time>2026-09-01T19:57:42Z</time>
  <course>101.84</course>
  <speed>0.54</speed>
  <fix>3d</fix>
</trkpt>
<trkpt lat="-27.2737728" lon="151.2899101">
  <ele>369.67</ele>
  <time>2026-09-01T19:57:42Z</time>
  <course>105.95</course>
  <speed>0.33241540277189324</speed>
  <fix>3d</fix>
</trkpt>
<trkpt lat="-27.2737727" lon="151.2899089">
  <ele>370.32</ele>
  <time>2026-09-01T19:57:42Z</time>
  <course>101.84</course>
  <speed>0.54</speed>
  <fix>3d</fix>
</trkpt>
<trkpt lat="-27.2737728" lon="151.2899105">
  <ele>369.52</ele>
  <time>2026-09-01T19:57:42Z</time>
  <course>105.93</course>
  <speed>0.2816025568065745</speed>
  <fix>3d</fix>
</trkpt>
<trkpt lat="-27.2737729" lon="151.2899099">
  <ele>370.02</ele>
  <time>2026-09-01T19:57:42Z</time>
  <course>100.5</course>
  <speed>0.4</speed>
  <fix>3d</fix>
</trkpt>
<trkpt lat="-27.2737729" lon="151.2899107">
  <ele>369.37</ele>
  <time>2026-09-01T19:57:42Z</time>
  <course>105.91</course>
  <speed>0.22022715545545238</speed>
  <fix>3d</fix>
</trkpt>
<trkpt lat="-27.2737729" lon="151.2899099">
  <ele>370.02</ele>
  <time>2026-09-01T19:57:42Z</time>
  <course>100.5</course>
  <speed>0.4</speed>
  <fix>3d</fix>
</trkpt>
<trkpt lat="-27.2737729" lon="151.2899109">
  <ele>369.23</ele>
  <time>2026-09-01T19:57:42Z</time>
  <course>105.88</course>
  <speed>0.17</speed>
  <fix>3d</fix>
</trkpt>
<trkpt lat="-27.273773" lon="151.2899105">
  <ele>369.72</ele>
  <time>2026-09-01T19:57:42Z</time>
  <course>98.4</course>
  <speed>0.28</speed>
  <fix>3d</fix>
</trkpt>
<trkpt lat="-27.2737729" lon="151.2899111">
  <ele>369.09</ele>
  <time>2026-09-01T19:57:42Z</time>
  <course>105.82</course>
  <speed>0.12</speed>
  <fix>3d</fix>
</trkpt>
<trkpt lat="-27.273773" lon="151.2899105">
  <ele>369.72</ele>
  <time>2026-09-01T19:57:42Z</time>
  <course>98.4</course>
  <speed>0.28</speed>
  <fix>3d</fix>
</trkpt>
<trkpt lat="-27.2737729" lon="151.2899112">
  <ele>368.95</ele>
  <time>2026-09-01T19:57:42Z</time>
  <course>105.69</course>
  <speed>0.07</speed>
  <fix>3d</fix>
</trkpt>
<trkpt lat="-27.273773" lon="151.289911">
  <ele>369.44</ele>
  <time>2026-09-01T19:57:42Z</time>
  <course>95.0</course>
  <speed>0.16</speed>
  <fix>3d</fix>
</trkpt>
<trkpt lat="-27.2737729" lon="151.2899112">
  <ele>368.81</ele>
  <time>2026-09-01T19:57:42Z</time>
  <course>105.35</course>
  <speed>0.02</speed>
  <fix>3d</fix>
</trkpt>
<trkpt lat="-27.273773" lon="151.289911">
  <ele>369.44</ele>
  <time>2026-09-01T19:57:42Z</time>
  <course>95.0</course>
  <speed>0.16</speed>
  <fix>3d</fix>
</trkpt>
<trkpt lat="-27.2737729" lon="151.2899112">
  <ele>368.67</ele>
  <time>2026-09-01T19:57:42Z</time>
  <course>105.06</course>
  <speed>0.0</speed>
  <fix>3d</fix>
</trkpt>
<trkpt lat="-27.273773" lon="151.2899112">
  <ele>369.15</ele>
  <time>2026-09-01T19:57:42Z</time>
  <course>94.74</course>
  <speed>0.06</speed>
  <fix>3d</fix>
</trkpt>
<trkpt lat="-27.2737729" lon="151.2899112">
  <ele>368.53</ele>
  <time>2026-09-01T19:57:42Z</time>
  <course>104.92</course>
  <speed>0.0412310562561766</speed>
  <fix>3d</fix>
</trkpt>
<trkpt lat="-27.273773" lon="151.2899112">
  <ele>369.15</ele>
  <time>2026-09-01T19:57:42Z</time>
  <course>94.74</course>
  <speed>0.06</speed>
  <fix>3d</fix>
</trkpt>
<trkpt lat="-27.2737729" lon="151.2899111">
  <ele>368.39</ele>
  <time>2026-09-01T19:57:42Z</time>
  <course>104.93</course>
  <speed>0.07280109889280519</speed>
  <fix>3d</fix>
</trkpt>
<trkpt lat="-27.2737731" lon="151.2899113">
  <ele>368.88</ele>
  <time>2026-09-01T19:57:42Z</time>
  <course>271.89</course>
  <speed>0.01</speed>
  <fix>3d</fix>
</trkpt>
<trkpt lat="-27.2737729" lon="151.2899111">
  <ele>368.26</ele>
  <time>2026-09-01T19:57:42Z</time>
  <course>105.04</course>
  <speed>0.1044030650891055</speed>
  <fix>3d</fix>
</trkpt>
<trkpt lat="-27.2737731" lon="151.2899113">
  <ele>368.88</ele>
  <time>2026-09-01T19:57:42Z</time>
  <course>271.89</course>
  <speed>0.01</speed>
  <fix>3d</fix>
</trkpt>
<trkpt lat="-27.2737729" lon="151.289911">
  <ele>368.12</ele>
  <time>2026-09-01T19:57:42Z</time>
  <course>105.23</course>
  <speed>0.1264911064067352</speed>
  <fix>3d</fix>
</trkpt>
<trkpt lat="-27.2737731" lon="151.2899112">
  <ele>368.61</ele>
  <time>2026-09-01T19:57:42Z</time>
  <course>281.09</course>
  <speed>0.08</speed>
  <fix>3d</fix>
</trkpt>
<trkpt lat="-27.2737729" lon="151.2899109">
  <ele>367.97</ele>
  <time>2026-09-01T19:57:42Z</time>
  <course>105.44</course>
  <speed>0.14560219778561037</speed>
  <fix>3d</fix>
</trkpt>
<trkpt lat="-27.2737731" lon="151.2899112">
  <ele>368.61</ele>
  <time>2026-09-01T19:57:42Z</time>
  <course>281.09</course>
  <speed>0.08</speed>
  <fix>3d</fix>
</trkpt>
<trkpt lat="-27.2737729" lon="151.2899107">
  <ele>367.83</ele>
  <time>2026-09-01T19:57:42Z</time>
  <course>105.65</course>
  <speed>0.1676305461424021</speed>
  <fix>3d</fix>
</trkpt>
<trkpt lat="-27.2737731" lon="151.289911">
  <ele>368.33</ele>
  <time>2026-09-01T19:57:42Z</time>
  <course>282.84</course>
  <speed>0.14</speed>
  <fix>3d</fix>
</trkpt>
<trkpt lat="-27.2737729" lon="151.2899106">
  <ele>367.68</ele>
  <time>2026-09-01T19:57:42Z</time>
  <course>105.82</course>
  <speed>0.1772004514666935</speed>
  <fix>3d</fix>
</trkpt>
<trkpt lat="-27.2737731" lon="151.289911">
  <ele>368.33</ele>
  <time>2026-09-01T19:57:42Z</time>
  <course>282.84</course>
  <speed>0.14</speed>
  <fix>3d</fix>
</trkpt>
<trkpt lat="-27.2737728" lon="151.2899104">
  <ele>367.54</ele>
  <time>2026-09-01T19:57:42Z</time>
  <course>105.94</course>
  <speed>0.19924858845171275</speed>
  <fix>3d</fix>
</trkpt>
<trkpt lat="-27.273773" lon="151.2899107">
  <ele>368.04</ele>
  <time>2026-09-01T19:57:42Z</time>
  <course>283.92</course>
  <speed>0.18</speed>
  <fix>3d</fix>
</trkpt>
<trkpt lat="-27.2737728" lon="151.2899102">
  <ele>367.39</ele>
  <time>2026-09-01T19:57:42Z</time>
  <course>106.02</course>
  <speed>0.208806130178211</speed>
  <fix>3d</fix>
</trkpt>
<trkpt lat="-27.273773" lon="151.2899107">
  <ele>368.04</ele>
  <time>2026-09-01T19:57:42Z</time>
  <course>283.92</course>
  <speed>0.18</speed>
  <fix>3d</fix>
</trkpt>
<trkpt lat="-27.2737727" lon="151.28991">
  <ele>367.24</ele>
  <time>2026-09-01T19:57:42Z</time>
  <course>106.05</course>
  <speed>0.21840329667841554</speed>
  <fix>3d</fix>
</trkpt>
<trkpt lat="-27.2737729" lon="151.2899104">
  <ele>367.75</ele>
  <time>2026-09-01T19:57:42Z</time>
  <course>284.67</course>
  <speed>0.21</speed>
  <fix>3d</fix>
</trkpt>
<trkpt lat="-27.2737727" lon="151.2899098">
  <ele>367.09</ele>
  <time>2026-09-01T19:57:42Z</time>
  <course>106.05</course>
  <speed>0.22135943621178655</speed>
  <fix>3d</fix>
</trkpt>
<trkpt lat="-27.2737729" lon="151.2899104">
  <ele>367.75</ele>
  <time>2026-09-01T19:57:42Z</time>
  <course>284.67</course>
  <speed>0.21</speed>
  <fix>3d</fix>
</trkpt>
<trkpt lat="-27.2737726" lon="151.2899095">
  <ele>366.94</ele>
  <time>2026-09-01T19:57:42Z</time>
  <course>106.02</course>
  <speed>0.2308679276123039</speed>
  <fix>3d</fix>
</trkpt>
<trkpt lat="-27.2737728" lon="151.2899099">
  <ele>367.45</ele>
  <time>2026-09-01T19:57:42Z</time>
  <course>285.13</course>
  <speed>0.23</speed>
  <fix>3d</fix>
</trkpt>
<trkpt lat="-27.2737726" lon="151.2899093">
  <ele>366.79</ele>
  <time>2026-09-01T19:57:42Z</time>
  <course>105.97</course>
  <speed>0.2308679276123039</speed>
  <fix>3d</fix>
</trkpt>
<trkpt lat="-27.2737728" lon="151.2899099">
  <ele>367.45</ele>
  <time>2026-09-01T19:57:42Z</time>
  <course>285.13</course>
  <speed>0.23</speed>
  <fix>3d</fix>
</trkpt>
<trkpt lat="-27.2737725" lon="151.2899091">
  <ele>366.64</ele>
  <time>2026-09-01T19:57:42Z</time>
  <course>105.91</course>
  <speed>0.2308679276123039</speed>
  <fix>3d</fix>
</trkpt>
<trkpt lat="-27.2737727" lon="151.2899094">
  <ele>367.15</ele>
  <time>2026-09-01T19:57:42Z</time>
  <course>285.2</course>
  <speed>0.25</speed>
  <fix>3d</fix>
</trkpt>
<trkpt lat="-27.2737725" lon="151.2899088">
  <ele>366.48</ele>
  <time>2026-09-01T19:57:42Z</time>
  <course>105.85</course>
  <speed>0.2308679276123039</speed>
  <fix>3d</fix>
</trkpt>
<trkpt lat="-27.2737727" lon="151.2899094">
  <ele>367.15</ele>
  <time>2026-09-01T19:57:42Z</time>
  <course>285.2</course>
  <speed>0.25</speed>
  <fix>3d</fix>
</trkpt>
<trkpt lat="-27.2737724" lon="151.2899086">
  <ele>366.33</ele>
  <time>2026-09-01T19:57:42Z</time>
  <course>105.81</course>
  <speed>0.24041630560342614</speed>
  <fix>3d</fix>
</trkpt>
<trkpt lat="-27.2737726" lon="151.2899089">
  <ele>366.85</ele>
  <time>2026-09-01T19:57:42Z</time>
  <course>285.07</course>
  <speed>0.26</speed>
  <fix>3d</fix>
</trkpt>
<trkpt lat="-27.2737724" lon="151.2899083">
  <ele>366.17</ele>
  <time>2026-09-01T19:57:42Z</time>
  <course>105.77</course>
  <speed>0.24041630560342614</speed>
  <fix>3d</fix>
</trkpt>
<trkpt lat="-27.2737726" lon="151.2899089">
  <ele>366.85</ele>
  <time>2026-09-01T19:57:42Z</time>
  <course>285.07</course>
  <speed>0.26</speed>
  <fix>3d</fix>
</trkpt>
<trkpt lat="-27.2737723" lon="151.2899081">
  <ele>366.02</ele>
  <time>2026-09-01T19:57:42Z</time>
  <course>105.74</course>
  <speed>0.2308679276123039</speed>
  <fix>3d</fix>
</trkpt>
<trkpt lat="-27.2737724" lon="151.2899084">
  <ele>366.54</ele>
  <time>2026-09-01T19:57:42Z</time>
  <course>284.89</course>
  <speed>0.26</speed>
  <fix>3d</fix>
</trkpt>
<trkpt lat="-27.2737722" lon="151.2899078">
  <ele>365.87</ele>
  <time>2026-09-01T19:57:42Z</time>
  <course>105.72</course>
  <speed>0.2308679276123039</speed>
  <fix>3d</fix>
</trkpt>
<trkpt lat="-27.2737724" lon="151.2899084">
  <ele>366.54</ele>
  <time>2026-09-01T19:57:42Z</time>
  <course>284.89</course>
  <speed>0.26</speed>
  <fix>3d</fix>
</trkpt>
<trkpt lat="-27.2737722" lon="151.2899076">
  <ele>365.71</ele>
  <time>2026-09-01T19:57:42Z</time>
  <course>105.72</course>
  <speed>0.2308679276123039</speed>
  <fix>3d</fix>
</trkpt>
<trkpt lat="-27.2737723" lon="151.2899079">
  <ele>366.24</ele>
  <time>2026-09-01T19:57:42Z</time>
  <course>284.73</course>
  <speed>0.26</speed>
  <fix>3d</fix>
</trkpt>
<trkpt lat="-27.2737721" lon="151.2899074">
  <ele>365.56</ele>
  <time>2026-09-01T19:57:42Z</time>
  <course>105.72</course>
  <speed>0.2308679276123039</speed>
  <fix>3d</fix>
</trkpt>
<trkpt lat="-27.2737723" lon="151.2899079">
  <ele>366.24</ele>
  <time>2026-09-01T19:57:42Z</time>
  <course>284.73</course>
  <speed>0.26</speed>
  <fix>3d</fix>
</trkpt>
<trkpt lat="-27.2737721" lon="151.2899071">
  <ele>365.41</ele>
  <time>2026-09-01T19:57:42Z</time>
  <course>105.73</course>
  <speed>0.22135943621178655</speed>
  <fix>3d</fix>
</trkpt>
<trkpt lat="-27.2737722" lon="151.2899073">
  <ele>365.93</ele>
  <time>2026-09-01T19:57:42Z</time>
  <course>284.67</course>
  <speed>0.26</speed>
  <fix>3d</fix>
</trkpt>
<trkpt lat="-27.273772" lon="151.2899069">
  <ele>365.26</ele>
  <time>2026-09-01T19:57:42Z</time>
  <course>105.75</course>
  <speed>0.22135943621178655</speed>
  <fix>3d</fix>
</trkpt>
<trkpt lat="-27.2737722" lon="151.2899073">
  <ele>365.93</ele>
  <time>2026-09-01T19:57:42Z</time>
  <course>284.67</course>
  <speed>0.26</speed>
  <fix>3d</fix>
</trkpt>
<trkpt lat="-27.2737719" lon="151.2899066">
  <ele>365.11</ele>
  <time>2026-09-01T19:57:42Z</time>
  <course>105.76</course>
  <speed>0.22135943621178655</speed>
  <fix>3d</fix>
</trkpt>
<trkpt lat="-27.2737721" lon="151.2899068">
  <ele>365.63</ele>
  <time>2026-09-01T19:57:42Z</time>
  <course>284.68</course>
  <speed>0.25</speed>
  <fix>3d</fix>
</trkpt>
<trkpt lat="-27.2737719" lon="151.2899064">
  <ele>364.96</ele>
  <time>2026-09-01T19:57:42Z</time>
  <course>105.77</course>
  <speed>0.21189620100417092</speed>
  <fix>3d</fix>
</trkpt>
<trkpt lat="-27.2737721" lon="151.2899068">
  <ele>365.63</ele>
  <time>2026-09-01T19:57:42Z</time>
  <course>284.68</course>
  <speed>0.25</speed>
  <fix>3d</fix>
</trkpt>
<trkpt lat="-27.2737718" lon="151.2899062">
  <ele>364.81</ele>
  <time>2026-09-01T19:57:42Z</time>
  <course>105.77</course>
  <speed>0.208806130178211</speed>
  <fix>3d</fix>
</trkpt>
<trkpt lat="-27.273772" lon="151.2899063">
  <ele>365.33</ele>
  <time>2026-09-01T19:57:42Z</time>
  <course>284.55</course>
  <speed>0.25</speed>
  <fix>3d</fix>
</trkpt>
<trkpt lat="-27.2737718" lon="151.2899059">
  <ele>364.66</ele>
  <time>2026-09-01T19:57:42Z</time>
  <course>105.77</course>
  <speed>0.19924858845171275</speed>
  <fix>3d</fix>
</trkpt>
<trkpt lat="-27.273772" lon="151.2899063">
  <ele>365.33</ele>
  <time>2026-09-01T19:57:42Z</time>
  <course>284.55</course>
  <speed>0.25</speed>
  <fix>3d</fix>
</trkpt>
<trkpt lat="-27.2737717" lon="151.2899057">
  <ele>364.51</ele>
  <time>2026-09-01T19:57:42Z</time>
  <course>105.77</course>
  <speed>0.19924858845171275</speed>
  <fix>3d</fix>
</trkpt>
<trkpt lat="-27.2737718" lon="151.2899059">
  <ele>365.03</ele>
  <time>2026-09-01T19:57:42Z</time>
  <course>284.4</course>
  <speed>0.24</speed>
  <fix>3d</fix>
</trkpt>
<trkpt lat="-27.2737717" lon="151.2899055">
  <ele>364.36</ele>
  <time>2026-09-01T19:57:42Z</time>
  <course>105.76</course>
  <speed>0.18973665961010278</speed>
  <fix>3d</fix>
</trkpt>
<trkpt lat="-27.2737718" lon="151.2899059">
  <ele>365.03</ele>
  <time>2026-09-01T19:57:42Z</time>
  <course>284.4</course>
  <speed>0.24</speed>
  <fix>3d</fix>
</trkpt>
<trkpt lat="-27.2737716" lon="151.2899053">
  <ele>364.21</ele>
  <time>2026-09-01T19:57:42Z</time>
  <course>105.75</course>
  <speed>0.1772004514666935</speed>
  <fix>3d</fix>
</trkpt>
<trkpt lat="-27.2737717" lon="151.2899054">
  <ele>364.72</ele>
  <time>2026-09-01T19:57:42Z</time>
  <course>284.32</course>
  <speed>0.22</speed>
  <fix>3d</fix>
</trkpt>
<trkpt lat="-27.2737716" lon="151.2899051">
  <ele>364.05</ele>
  <time>2026-09-01T19:57:42Z</time>
  <course>105.73</course>
  <speed>0.1772004514666935</speed>
  <fix>3d</fix>
</trkpt>
<trkpt lat="-27.2737717" lon="151.2899054">
  <ele>364.72</ele>
  <time>2026-09-01T19:57:42Z</time>
  <course>284.32</course>
  <speed>0.22</speed>
  <fix>3d</fix>
</trkpt>
<trkpt lat="-27.2737715" lon="151.2899049">
  <ele>363.9</ele>
  <time>2026-09-01T19:57:42Z</time>
  <course>105.72</course>
  <speed>0.1676305461424021</speed>
  <fix>3d</fix>
</trkpt>
<trkpt lat="-27.2737716" lon="151.2899049">
  <ele>364.43</ele>
  <time>2026-09-01T19:57:42Z</time>
  <course>284.17</course>
  <speed>0.21</speed>
  <fix>3d</fix>
</trkpt>
<trkpt lat="-27.2737715" lon="151.2899047">
  <ele>363.75</ele>
  <time>2026-09-01T19:57:42Z</time>
  <course>105.71</course>
  <speed>0.1649242250247064</speed>
  <fix>3d</fix>
</trkpt>
<trkpt lat="-27.2737716" lon="151.2899049">
  <ele>364.43</ele>
  <time>2026-09-01T19:57:42Z</time>
  <course>284.17</course>
  <speed>0.21</speed>
  <fix>3d</fix>
</trkpt>
<trkpt lat="-27.2737715" lon="151.2899045">
  <ele>363.6</ele>
  <time>2026-09-01T19:57:42Z</time>
  <course>105.7</course>
  <speed>0.15524174696260024</speed>
  <fix>3d</fix>
</trkpt>
<trkpt lat="-27.2737715" lon="151.2899046">
  <ele>364.13</ele>
  <time>2026-09-01T19:57:42Z</time>
  <course>283.95</course>
  <speed>0.2</speed>
  <fix>3d</fix>
</trkpt>
<trkpt lat="-27.2737714" lon="151.2899043">
  <ele>363.45</ele>
  <time>2026-09-01T19:57:42Z</time>
  <course>105.68</course>
  <speed>0.14560219778561037</speed>
  <fix>3d</fix>
</trkpt>
<trkpt lat="-27.2737715" lon="151.2899046">
  <ele>364.13</ele>
  <time>2026-09-01T19:57:42Z</time>
  <course>283.95</course>
  <speed>0.2</speed>
  <fix>3d</fix>
</trkpt>
<trkpt lat="-27.2737714" lon="151.2899042">
  <ele>363.29</ele>
  <time>2026-09-01T19:57:42Z</time>
  <course>105.66</course>
  <speed>0.13601470508735444</speed>
  <fix>3d</fix>
</trkpt>
<trkpt lat="-27.2737715" lon="151.2899042">
  <ele>363.83</ele>
  <time>2026-09-01T19:57:42Z</time>
  <course>283.55</course>
  <speed>0.18</speed>
  <fix>3d</fix>
</trkpt>
<trkpt lat="-27.2737714" lon="151.289904">
  <ele>363.14</ele>
  <time>2026-09-01T19:57:42Z</time>
  <course>105.64</course>
  <speed>0.13341664064126335</speed>
  <fix>3d</fix>
</trkpt>
<trkpt lat="-27.2737715" lon="151.2899042">
  <ele>363.83</ele>
  <time>2026-09-01T19:57:42Z</time>
  <course>283.55</course>
  <speed>0.18</speed>
  <fix>3d</fix>
</trkpt>
<trkpt lat="-27.2737713" lon="151.2899039">
  <ele>362.99</ele>
  <time>2026-09-01T19:57:42Z</time>
  <course>105.63</course>
  <speed>0.12369316876852982</speed>
  <fix>3d</fix>
</trkpt>
<trkpt lat="-27.2737714" lon="151.2899038">
  <ele>363.53</ele>
  <time>2026-09-01T19:57:42Z</time>
  <course>283.03</course>
  <speed>0.17</speed>
  <fix>3d</fix>
</trkpt>
<trkpt lat="-27.2737713" lon="151.2899037">
  <ele>362.84</ele>
  <time>2026-09-01T19:57:42Z</time>
  <course>105.61</course>
  <speed>0.11401754250991379</speed>
  <fix>3d</fix>
</trkpt>
<trkpt lat="-27.2737714" lon="151.2899038">
  <ele>363.53</ele>
  <time>2026-09-01T19:57:42Z</time>
  <course>283.03</course>
  <speed>0.17</speed>
  <fix>3d</fix>
</trkpt>
<trkpt lat="-27.2737713" lon="151.2899036">
  <ele>362.69</ele>
  <time>2026-09-01T19:57:42Z</time>
  <course>105.61</course>
  <speed>0.1044030650891055</speed>
  <fix>3d</fix>
</trkpt>
<trkpt lat="-27.2737713" lon="151.2899035">
  <ele>363.22</ele>
  <time>2026-09-01T19:57:42Z</time>
  <course>282.67</course>
  <speed>0.15</speed>
  <fix>3d</fix>
</trkpt>
<trkpt lat="-27.2737713" lon="151.2899034">
  <ele>362.54</ele>
  <time>2026-09-01T19:57:42Z</time>
  <course>105.6</course>
  <speed>0.1044030650891055</speed>
  <fix>3d</fix>
</trkpt>
<trkpt lat="-27.2737713" lon="151.2899035">
  <ele>363.22</ele>
  <time>2026-09-01T19:57:42Z</time>
  <course>282.67</course>
  <speed>0.15</speed>
  <fix>3d</fix>
</trkpt>
<trkpt lat="-27.2737712" lon="151.2899033">
  <ele>362.39</ele>
  <time>2026-09-01T19:57:42Z</time>
  <course>105.59</course>
  <speed>0.09486832980505139</speed>
  <fix>3d</fix>
</trkpt>
<trkpt lat="-27.2737713" lon="151.2899032">
  <ele>362.93</ele>
  <time>2026-09-01T19:57:42Z</time>
  <course>282.26</course>
  <speed>0.14</speed>
  <fix>3d</fix>
</trkpt>
<trkpt lat="-27.2737712" lon="151.2899032">
  <ele>362.24</ele>
  <time>2026-09-01T19:57:42Z</time>
  <course>105.57</course>
  <speed>0.0854400374531753</speed>
  <fix>3d</fix>
</trkpt>
<trkpt lat="-27.2737713" lon="151.2899032">
  <ele>362.93</ele>
  <time>2026-09-01T19:57:42Z</time>
  <course>282.26</course>
  <speed>0.14</speed>
  <fix>3d</fix>
</trkpt>
<trkpt lat="-27.2737712" lon="151.2899031">
  <ele>362.09</ele>
  <time>2026-09-01T19:57:42Z</time>
  <course>105.56</course>
  <speed>0.07280109889280519</speed>
  <fix>3d</fix>
</trkpt>
<trkpt lat="-27.2737712" lon="151.2899029">
  <ele>362.63</ele>
  <time>2026-09-01T19:57:42Z</time>
  <course>281.5</course>
  <speed>0.12</speed>
  <fix>3d</fix>
</trkpt>
<trkpt lat="-27.2737712" lon="151.289903">
  <ele>361.94</ele>
  <time>2026-09-01T19:57:42Z</time>
  <course>105.55</course>
  <speed>0.0632455532033676</speed>
  <fix>3d</fix>
</trkpt>
<trkpt lat="-27.2737712" lon="151.2899029">
  <ele>362.63</ele>
  <time>2026-09-01T19:57:42Z</time>
  <course>281.5</course>
  <speed>0.12</speed>
  <fix>3d</fix>
</trkpt>
<trkpt lat="-27.2737711" lon="151.2899029">
  <ele>361.79</ele>
  <time>2026-09-01T19:57:42Z</time>
  <course>105.55</course>
  <speed>0.0632455532033676</speed>
  <fix>3d</fix>
</trkpt>
<trkpt lat="-27.2737712" lon="151.2899027">
  <ele>362.34</ele>
  <time>2026-09-01T19:57:42Z</time>
  <course>280.66</course>
  <speed>0.11</speed>
  <fix>3d</fix>
</trkpt>
<trkpt lat="-27.2737711" lon="151.2899028">
  <ele>361.64</ele>
  <time>2026-09-01T19:57:42Z</time>
  <course>105.56</course>
  <speed>0.053851648071345036</speed>
  <fix>3d</fix>
</trkpt>
<trkpt lat="-27.2737712" lon="151.2899027">
  <ele>362.34</ele>
  <time>2026-09-01T19:57:42Z</time>
  <course>280.66</course>
  <speed>0.11</speed>
  <fix>3d</fix>
</trkpt>
<trkpt lat="-27.2737711" lon="151.2899027">
  <ele>361.49</ele>
  <time>2026-09-01T19:57:42Z</time>
  <course>105.57</course>
  <speed>0.044721359549995794</speed>
  <fix>3d</fix>
</trkpt>
<trkpt lat="-27.2737712" lon="151.2899024">
  <ele>362.04</ele>
  <time>2026-09-01T19:57:42Z</time>
  <course>279.82</course>
  <speed>0.09</speed>
  <fix>3d</fix>
</trkpt>
<trkpt lat="-27.2737711" lon="151.2899026">
  <ele>361.34</ele>
  <time>2026-09-01T19:57:42Z</time>
  <course>105.58</course>
  <speed>0.044721359549995794</speed>
  <fix>3d</fix>
</trkpt>
<trkpt lat="-27.2737712" lon="151.2899024">
  <ele>362.04</ele>
  <time>2026-09-01T19:57:42Z</time>
  <course>279.82</course>
  <speed>0.09</speed>
  <fix>3d</fix>
</trkpt>
<trkpt lat="-27.2737711" lon="151.2899025">
  <ele>361.19</ele>
  <time>2026-09-01T19:57:42Z</time>
  <course>105.59</course>
  <speed>0.0316227766016838</speed>
  <fix>3d</fix>
</trkpt>
<trkpt lat="-27.2737712" lon="151.2899023">
  <ele>361.74</ele>
  <time>2026-09-01T19:57:42Z</time>
  <course>278.58</course>
  <speed>0.07</speed>
  <fix>3d</fix>
</trkpt>
<trkpt lat="-27.2737711" lon="151.2899025">
  <ele>361.04</ele>
  <time>2026-09-01T19:57:42Z</time>
  <course>105.61</course>
  <speed>0.022360679774997897</speed>
  <fix>3d</fix>
</trkpt>
<trkpt lat="-27.2737712" lon="151.2899023">
  <ele>361.74</ele>
  <time>2026-09-01T19:57:42Z</time>
  <course>278.58</course>
  <speed>0.07</speed>
  <fix>3d</fix>
</trkpt>
<trkpt lat="-27.2737711" lon="151.2899024">
  <ele>360.89</ele>
  <time>2026-09-01T19:57:42Z</time>
  <course>105.62</course>
  <speed>0.022360679774997897</speed>
  <fix>3d</fix>
</trkpt>
<trkpt lat="-27.2737711" lon="151.2899022">
  <ele>361.45</ele>
  <time>2026-09-01T19:57:42Z</time>
  <course>277.09</course>
  <speed>0.06</speed>
  <fix>3d</fix>
</trkpt>
<trkpt lat="-27.2737711" lon="151.2899024">
  <ele>360.75</ele>
  <time>2026-09-01T19:57:42Z</time>
  <course>105.63</course>
  <speed>0.01414213562373095</speed>
  <fix>3d</fix>
</trkpt>
<trkpt lat="-27.2737711" lon="151.2899022">
  <ele>361.45</ele>
  <time>2026-09-01T19:57:42Z</time>
  <course>277.09</course>
  <speed>0.06</speed>
  <fix>3d</fix>
</trkpt>
<trkpt lat="-27.2737711" lon="151.2899023">
  <ele>360.6</ele>
  <time>2026-09-01T19:57:42Z</time>
  <course>105.61</course>
  <speed>0.0</speed>
  <fix>3d</fix>
</trkpt>
<trkpt lat="-27.2737711" lon="151.289902">
  <ele>361.15</ele>
  <time>2026-09-01T19:57:42Z</time>
  <course>274.49</course>
  <speed>0.05</speed>
  <fix>3d</fix>
</trkpt>
<trkpt lat="-27.2737711" lon="151.2899023">
  <ele>360.45</ele>
  <time>2026-09-01T19:57:42Z</time>
  <course>105.58</course>
  <speed>0.0</speed>
  <fix>3d</fix>
</trkpt>
<trkpt lat="-27.2737711" lon="151.289902">
  <ele>361.15</ele>
  <time>2026-09-01T19:57:42Z</time>
  <course>274.49</course>
  <speed>0.05</speed>
  <fix>3d</fix>
</trkpt>
<trkpt lat="-27.2737711" lon="151.2899022">
  <ele>360.3</ele>
  <time>2026-09-01T19:57:42Z</time>
  <course>105.54</course>
  <speed>0.0</speed>
  <fix>3d</fix>
</trkpt>
<trkpt lat="-27.2737711" lon="151.2899019">
  <ele>360.86</ele>
  <time>2026-09-01T19:57:42Z</time>
  <course>268.51</course>
  <speed>0.03</speed>
  <fix>3d</fix>
</trkpt>
<trkpt lat="-27.2737711" lon="151.2899022">
  <ele>360.15</ele>
  <time>2026-09-01T19:57:42Z</time>
  <course>105.51</course>
  <speed>0.01</speed>
  <fix>3d</fix>
</trkpt>
<trkpt lat="-27.2737711" lon="151.2899019">
  <ele>360.86</ele>
  <time>2026-09-01T19:57:42Z</time>
  <course>268.51</course>
  <speed>0.03</speed>
  <fix>3d</fix>
</trkpt>
<trkpt lat="-27.2737711" lon="151.2899022">
  <ele>360.0</ele>
  <time>2026-09-01T19:57:42Z</time>
  <course>105.48</course>
  <speed>0.01</speed>
  <fix>3d</fix>
</trkpt>
<trkpt lat="-27.2737711" lon="151.2899019">
  <ele>360.56</ele>
  <time>2026-09-01T19:57:42Z</time>
  <course>256.8</course>
  <speed>0.02</speed>
  <fix>3d</fix>
</trkpt>
<trkpt lat="-27.2737711" lon="151.2899022">
  <ele>359.85</ele>
  <time>2026-09-01T19:57:42Z</time>
  <course>105.44</course>
  <speed>0.02</speed>
  <fix>3d</fix>
</trkpt>
<trkpt lat="-27.2737711" lon="151.2899019">
  <ele>360.56</ele>
  <time>2026-09-01T19:57:42Z</time>
  <course>256.8</course>
  <speed>0.02</speed>
  <fix>3d</fix>
</trkpt>
<trkpt lat="-27.2737711" lon="151.2899022">
  <ele>359.71</ele>
  <time>2026-09-01T19:57:42Z</time>
  <course>105.42</course>
  <speed>0.02</speed>
  <fix>3d</fix>
</trkpt>
<trkpt lat="-27.2737711" lon="151.2899019">
  <ele>360.26</ele>
  <time>2026-09-01T19:57:42Z</time>
  <course>229.94</course>
  <speed>0.01</speed>
  <fix>3d</fix>
</trkpt>
<trkpt lat="-27.2737711" lon="151.2899022">
  <ele>359.56</ele>
  <time>2026-09-01T19:57:42Z</time>
  <course>105.44</course>
  <speed>0.03</speed>
  <fix>3d</fix>
</trkpt>
<trkpt lat="-27.2737711" lon="151.2899019">
  <ele>360.26</ele>
  <time>2026-09-01T19:57:42Z</time>
  <course>229.94</course>
  <speed>0.01</speed>
  <fix>3d</fix>
</trkpt>
<trkpt lat="-27.2737711" lon="151.2899022">
  <ele>359.41</ele>
  <time>2026-09-01T19:57:42Z</time>
  <course>105.51</course>
  <speed>0.04</speed>
  <fix>3d</fix>
</trkpt>
<trkpt lat="-27.2737711" lon="151.2899019">
  <ele>359.96</ele>
  <time>2026-09-01T19:57:42Z</time>
  <course>176.49</course>
  <speed>0.01</speed>
  <fix>3d</fix>
</trkpt>
<trkpt lat="-27.2737711" lon="151.2899022">
  <ele>359.26</ele>
  <time>2026-09-01T19:57:42Z</time>
  <course>105.6</course>
  <speed>0.04</speed>
  <fix>3d</fix>
</trkpt>
<trkpt lat="-27.2737711" lon="151.2899019">
  <ele>359.96</ele>
  <time>2026-09-01T19:57:42Z</time>
  <course>176.49</course>
  <speed>0.01</speed>
  <fix>3d</fix>
</trkpt>
<trkpt lat="-27.2737711" lon="151.2899022">
  <ele>359.12</ele>
  <time>2026-09-01T19:57:42Z</time>
  <course>105.68</course>
  <speed>0.05</speed>
  <fix>3d</fix>
</trkpt>
<trkpt lat="-27.2737711" lon="151.2899019">
  <ele>359.66</ele>
  <time>2026-09-01T19:57:42Z</time>
  <course>127.16</course>
  <speed>0.01</speed>
  <fix>3d</fix>
</trkpt>
<trkpt lat="-27.2737711" lon="151.2899022">
  <ele>358.97</ele>
  <time>2026-09-01T19:57:42Z</time>
  <course>105.74</course>
  <speed>0.05</speed>
  <fix>3d</fix>
</trkpt>
<trkpt lat="-27.2737711" lon="151.2899019">
  <ele>359.66</ele>
  <time>2026-09-01T19:57:42Z</time>
  <course>127.16</course>
  <speed>0.01</speed>
  <fix>3d</fix>
</trkpt>
<trkpt lat="-27.2737711" lon="151.2899022">
  <ele>358.82</ele>
  <time>2026-09-01T19:57:42Z</time>
  <course>105.79</course>
  <speed>0.06</speed>
  <fix>3d</fix>
</trkpt>
<trkpt lat="-27.2737711" lon="151.2899019">
  <ele>359.37</ele>
  <time>2026-09-01T19:57:42Z</time>
  <course>107.02</course>
  <speed>0.02</speed>
  <fix>3d</fix>
</trkpt>
<trkpt lat="-27.2737711" lon="151.2899022">
  <ele>358.66</ele>
  <time>2026-09-01T19:57:42Z</time>
  <course>105.82</course>
  <speed>0.06</speed>
  <fix>3d</fix>
</trkpt>
<trkpt lat="-27.2737711" lon="151.2899019">
  <ele>359.37</ele>
  <time>2026-09-01T19:57:42Z</time>
  <course>107.02</course>
  <speed>0.02</speed>
  <fix>3d</fix>
</trkpt>
<trkpt lat="-27.2737711" lon="151.2899023">
  <ele>358.51</ele>
  <time>2026-09-01T19:57:42Z</time>
  <course>105.84</course>
  <speed>0.06</speed>
  <fix>3d</fix>
</trkpt>
<trkpt lat="-27.2737711" lon="151.2899019">
  <ele>359.07</ele>
  <time>2026-09-01T19:57:42Z</time>
  <course>99.08</course>
  <speed>0.03</speed>
  <fix>3d</fix>
</trkpt>
<trkpt lat="-27.2737711" lon="151.2899023">
  <ele>358.36</ele>
  <time>2026-09-01T19:57:42Z</time>
  <course>105.84</course>
  <speed>0.07</speed>
  <fix>3d</fix>
</trkpt>
<trkpt lat="-27.2737711" lon="151.2899019">
  <ele>359.07</ele>
  <time>2026-09-01T19:57:42Z</time>
  <course>99.08</course>
  <speed>0.03</speed>
  <fix>3d</fix>
</trkpt>
<trkpt lat="-27.2737711" lon="151.2899024">
  <ele>358.21</ele>
  <time>2026-09-01T19:57:42Z</time>
  <course>105.83</course>
  <speed>0.07</speed>
  <fix>3d</fix>
</trkpt>
<trkpt lat="-27.2737711" lon="151.2899019">
  <ele>358.77</ele>
  <time>2026-09-01T19:57:42Z</time>
  <course>95.04</course>
  <speed>0.04</speed>
  <fix>3d</fix>
</trkpt>
<trkpt lat="-27.2737711" lon="151.2899024">
  <ele>358.06</ele>
  <time>2026-09-01T19:57:42Z</time>
  <course>105.81</course>
  <speed>0.07071067811865475</speed>
  <fix>3d</fix>
</trkpt>
<trkpt lat="-27.2737711" lon="151.2899019">
  <ele>358.77</ele>
  <time>2026-09-01T19:57:42Z</time>
  <course>95.04</course>
  <speed>0.04</speed>
  <fix>3d</fix>
</trkpt>
<trkpt lat="-27.2737711" lon="151.2899024">
  <ele>357.91</ele>
  <time>2026-09-01T19:57:42Z</time>
  <course>105.79</course>
  <speed>0.08062257748298549</speed>
  <fix>3d</fix>
</trkpt>
<trkpt lat="-27.2737711" lon="151.289902">
  <ele>358.47</ele>
  <time>2026-09-01T19:57:42Z</time>
  <course>92.26</course>
  <speed>0.05</speed>
  <fix>3d</fix>
</trkpt>
<trkpt lat="-27.2737711" lon="151.2899025">
  <ele>357.76</ele>
  <time>2026-09-01T19:57:42Z</time>
  <course>105.77</course>
  <speed>0.08062257748298549</speed>
  <fix>3d</fix>
</trkpt>
<trkpt lat="-27.2737711" lon="151.289902">
  <ele>358.47</ele>
  <time>2026-09-01T19:57:42Z</time>
  <course>92.26</course>
  <speed>0.05</speed>
  <fix>3d</fix>
</trkpt>
<trkpt lat="-27.2737711" lon="151.2899025">
  <ele>357.61</ele>
  <time>2026-09-01T19:57:42Z</time>
  <course>105.76</course>
  <speed>0.08062257748298549</speed>
  <fix>3d</fix>
</trkpt>
<trkpt lat="-27.2737711" lon="151.2899021">
  <ele>358.16</ele>
  <time>2026-09-01T19:57:42Z</time>
  <course>90.43</course>
  <speed>0.05</speed>
  <fix>3d</fix>
</trkpt>
<trkpt lat="-27.2737711" lon="151.2899026">
  <ele>357.45</ele>
  <time>2026-09-01T19:57:42Z</time>
  <course>105.76</course>
  <speed>0.08062257748298549</speed>
  <fix>3d</fix>
</trkpt>
<trkpt lat="-27.2737711" lon="151.2899021">
  <ele>358.16</ele>
  <time>2026-09-01T19:57:42Z</time>
  <course>90.43</course>
  <speed>0.05</speed>
  <fix>3d</fix>
</trkpt>
<trkpt lat="-27.2737711" lon="151.2899026">
  <ele>357.3</ele>
  <time>2026-09-01T19:57:42Z</time>
  <course>105.76</course>
  <speed>0.08062257748298549</speed>
  <fix>3d</fix>
</trkpt>
<trkpt lat="-27.2737711" lon="151.2899023">
  <ele>357.87</ele>
  <time>2026-09-01T19:57:42Z</time>
  <course>89.26</course>
  <speed>0.06</speed>
  <fix>3d</fix>
</trkpt>
<trkpt lat="-27.2737711" lon="151.2899027">
  <ele>357.15</ele>
  <time>2026-09-01T19:57:42Z</time>
  <course>105.77</course>
  <speed>0.09055385138137417</speed>
  <fix>3d</fix>
</trkpt>
<trkpt lat="-27.2737711" lon="151.2899023">
  <ele>357.87</ele>
  <time>2026-09-01T19:57:42Z</time>
  <course>89.26</course>
  <speed>0.06</speed>
  <fix>3d</fix>
</trkpt>
<trkpt lat="-27.2737711" lon="151.2899028">
  <ele>357.0</ele>
  <time>2026-09-01T19:57:42Z</time>
  <course>105.78</course>
  <speed>0.09055385138137417</speed>
  <fix>3d</fix>
</trkpt>
<trkpt lat="-27.2737711" lon="151.2899024">
  <ele>357.57</ele>
  <time>2026-09-01T19:57:42Z</time>
  <course>88.09</course>
  <speed>0.06</speed>
  <fix>3d</fix>
</trkpt>
<trkpt lat="-27.2737711" lon="151.2899028">
  <ele>356.85</ele>
  <time>2026-09-01T19:57:42Z</time>
  <course>105.78</course>
  <speed>0.09055385138137417</speed>
  <fix>3d</fix>
</trkpt>
<trkpt lat="-27.2737711" lon="151.2899024">
  <ele>357.57</ele>
  <time>2026-09-01T19:57:42Z</time>
  <course>88.09</course>
  <speed>0.06</speed>
  <fix>3d</fix>
</trkpt>
<trkpt lat="-27.2737711" lon="151.2899029">
  <ele>356.7</ele>
  <time>2026-09-01T19:57:42Z</time>
  <course>105.78</course>
  <speed>0.09055385138137417</speed>
  <fix>3d</fix>
</trkpt>
<trkpt lat="-27.2737711" lon="151.2899026">
  <ele>357.27</ele>
  <time>2026-09-01T19:57:42Z</time>
  <course>86.96</course>
  <speed>0.07</speed>
  <fix>3d</fix>
</trkpt>
<trkpt lat="-27.2737711" lon="151.289903">
  <ele>356.56</ele>
  <time>2026-09-01T19:57:42Z</time>
  <course>105.78</course>
  <speed>0.09055385138137417</speed>
  <fix>3d</fix>
</trkpt>
<trkpt lat="-27.2737711" lon="151.2899026">
  <ele>357.27</ele>
  <time>2026-09-01T19:57:42Z</time>
  <course>86.96</course>
  <speed>0.07</speed>
  <fix>3d</fix>
</trkpt>
<trkpt lat="-27.2737711" lon="151.2899031">
  <ele>356.4</ele>
  <time>2026-09-01T19:57:42Z</time>
  <course>105.78</course>
  <speed>0.09055385138137417</speed>
  <fix>3d</fix>
</trkpt>
<trkpt lat="-27.2737711" lon="151.2899027">
  <ele>356.97</ele>
  <time>2026-09-01T19:57:42Z</time>
  <course>86.21</course>
  <speed>0.07</speed>
  <fix>3d</fix>
</trkpt>
<trkpt lat="-27.2737711" lon="151.2899031">
  <ele>356.25</ele>
  <time>2026-09-01T19:57:42Z</time>
  <course>105.78</course>
  <speed>0.09055385138137417</speed>
  <fix>3d</fix>
</trkpt>
<trkpt lat="-27.2737711" lon="151.2899027">
  <ele>356.97</ele>
  <time>2026-09-01T19:57:42Z</time>
  <course>86.21</course>
  <speed>0.07</speed>
  <fix>3d</fix>
</trkpt>
<trkpt lat="-27.273771" lon="151.2899032">
  <ele>356.1</ele>
  <time>2026-09-01T19:57:42Z</time>
  <course>105.79</course>
  <speed>0.09055385138137417</speed>
  <fix>3d</fix>
</trkpt>
<trkpt lat="-27.2737711" lon="151.2899028">
  <ele>356.67</ele>
  <time>2026-09-01T19:57:42Z</time>
  <course>85.85</course>
  <speed>0.07</speed>
  <fix>3d</fix>
</trkpt>
<trkpt lat="-27.273771" lon="151.2899033">
  <ele>355.95</ele>
  <time>2026-09-01T19:57:42Z</time>
  <course>105.79</course>
  <speed>0.09055385138137417</speed>
  <fix>3d</fix>
</trkpt>
<trkpt lat="-27.2737711" lon="151.2899028">
  <ele>356.67</ele>
  <time>2026-09-01T19:57:42Z</time>
  <course>85.85</course>
  <speed>0.07</speed>
  <fix>3d</fix>
</trkpt>
<trkpt lat="-27.273771" lon="151.2899033">
  <ele>355.8</ele>
  <time>2026-09-01T19:57:42Z</time>
  <course>105.79</course>
  <speed>0.09055385138137417</speed>
  <fix>3d</fix>
</trkpt>
<trkpt lat="-27.2737711" lon="151.289903">
  <ele>356.38</ele>
  <time>2026-09-01T19:57:42Z</time>
  <course>85.74</course>
  <speed>0.07</speed>
  <fix>3d</fix>
</trkpt>
<trkpt lat="-27.273771" lon="151.2899034">
  <ele>355.65</ele>
  <time>2026-09-01T19:57:42Z</time>
  <course>105.79</course>
  <speed>0.09055385138137417</speed>
  <fix>3d</fix>
</trkpt>
<trkpt lat="-27.2737711" lon="151.289903">
  <ele>356.38</ele>
  <time>2026-09-01T19:57:42Z</time>
  <course>85.74</course>
  <speed>0.07</speed>
  <fix>3d</fix>
</trkpt>
<trkpt lat="-27.273771" lon="151.2899035">
  <ele>355.5</ele>
  <time>2026-09-01T19:57:42Z</time>
  <course>105.8</course>
  <speed>0.09055385138137417</speed>
  <fix>3d</fix>
</trkpt>
<trkpt lat="-27.2737711" lon="151.2899032">
  <ele>356.08</ele>
  <time>2026-09-01T19:57:42Z</time>
  <course>85.82</course>
  <speed>0.07</speed>
  <fix>3d</fix>
</trkpt>
<trkpt lat="-27.273771" lon="151.2899036">
  <ele>355.35</ele>
  <time>2026-09-01T19:57:42Z</time>
  <course>105.8</course>
  <speed>0.09055385138137417</speed>
  <fix>3d</fix>
</trkpt>
<trkpt lat="-27.2737711" lon="151.2899032">
  <ele>356.08</ele>
  <time>2026-09-01T19:57:42Z</time>
  <course>85.82</course>
  <speed>0.07</speed>
  <fix>3d</fix>
</trkpt>
<trkpt lat="-27.273771" lon="151.2899036">
  <ele>355.2</ele>
  <time>2026-09-01T19:57:42Z</time>
  <course>105.81</course>
  <speed>0.09055385138137417</speed>
  <fix>3d</fix>
</trkpt>
<trkpt lat="-27.2737711" lon="151.2899033">
  <ele>355.78</ele>
  <time>2026-09-01T19:57:42Z</time>
  <course>86.03</course>
  <speed>0.07</speed>
  <fix>3d</fix>
</trkpt>
<trkpt lat="-27.273771" lon="151.2899037">
  <ele>355.05</ele>
  <time>2026-09-01T19:57:42Z</time>
  <course>105.81</course>
  <speed>0.09055385138137417</speed>
  <fix>3d</fix>
</trkpt>
<trkpt lat="-27.2737711" lon="151.2899033">
  <ele>355.78</ele>
  <time>2026-09-01T19:57:42Z</time>
  <course>86.03</course>
  <speed>0.07</speed>
  <fix>3d</fix>
</trkpt>
<trkpt lat="-27.273771" lon="151.2899038">
  <ele>354.9</ele>
  <time>2026-09-01T19:57:42Z</time>
  <course>105.81</course>
  <speed>0.09055385138137417</speed>
  <fix>3d</fix>
</trkpt>
<trkpt lat="-27.2737711" lon="151.2899034">
  <ele>355.48</ele>
  <time>2026-09-01T19:57:42Z</time>
  <course>86.39</course>
  <speed>0.07</speed>
  <fix>3d</fix>
</trkpt>
<trkpt lat="-27.273771" lon="151.2899039">
  <ele>354.75</ele>
  <time>2026-09-01T19:57:42Z</time>
  <course>105.81</course>
  <speed>0.09055385138137417</speed>
  <fix>3d</fix>
</trkpt>
<trkpt lat="-27.2737711" lon="151.2899034">
  <ele>355.48</ele>
  <time>2026-09-01T19:57:42Z</time>
  <course>86.39</course>
  <speed>0.07</speed>
  <fix>3d</fix>
</trkpt>
<trkpt lat="-27.273771" lon="151.2899039">
  <ele>354.61</ele>
  <time>2026-09-01T19:57:42Z</time>
  <course>105.82</course>
  <speed>0.08062257748298549</speed>
  <fix>3d</fix>
</trkpt>
<trkpt lat="-27.2737711" lon="151.2899036">
  <ele>355.19</ele>
  <time>2026-09-01T19:57:42Z</time>
  <course>86.92</course>
  <speed>0.06</speed>
  <fix>3d</fix>
</trkpt>
<trkpt lat="-27.273771" lon="151.289904">
  <ele>354.46</ele>
  <time>2026-09-01T19:57:42Z</time>
  <course>105.82</course>
  <speed>0.08062257748298549</speed>
  <fix>3d</fix>
</trkpt>
<trkpt lat="-27.2737711" lon="151.2899036">
  <ele>355.19</ele>
  <time>2026-09-01T19:57:42Z</time>
  <course>86.92</course>
  <speed>0.06</speed>
  <fix>3d</fix>
</trkpt>
<trkpt lat="-27.273771" lon="151.289904">
  <ele>354.31</ele>
  <time>2026-09-01T19:57:42Z</time>
  <course>105.83</course>
  <speed>0.08062257748298549</speed>
  <fix>3d</fix>
</trkpt>
<trkpt lat="-27.2737711" lon="151.2899037">
  <ele>354.89</ele>
  <time>2026-09-01T19:57:42Z</time>
  <course>87.52</course>
  <speed>0.06</speed>
  <fix>3d</fix>
</trkpt>
<trkpt lat="-27.273771" lon="151.2899041">
  <ele>354.17</ele>
  <time>2026-09-01T19:57:42Z</time>
  <course>105.83</course>
  <speed>0.08062257748298549</speed>
  <fix>3d</fix>
</trkpt>
<trkpt lat="-27.2737711" lon="151.2899037">
  <ele>354.89</ele>
  <time>2026-09-01T19:57:42Z</time>
  <course>87.52</course>
  <speed>0.06</speed>
  <fix>3d</fix>
</trkpt>
<trkpt lat="-27.273771" lon="151.2899042">
  <ele>354.02</ele>
  <time>2026-09-01T19:57:42Z</time>
  <course>105.84</course>
  <speed>0.07</speed>
  <fix>3d</fix>
</trkpt>
<trkpt lat="-27.2737711" lon="151.2899039">
  <ele>354.59</ele>
  <time>2026-09-01T19:57:42Z</time>
  <course>88.06</course>
  <speed>0.06</speed>
  <fix>3d</fix>
</trkpt>
<trkpt lat="-27.273771" lon="151.2899042">
  <ele>353.88</ele>
  <time>2026-09-01T19:57:42Z</time>
  <course>105.85</course>
  <speed>0.07</speed>
  <fix>3d</fix>
</trkpt>
<trkpt lat="-27.2737711" lon="151.2899039">
  <ele>354.59</ele>
  <time>2026-09-01T19:57:42Z</time>
  <course>88.06</course>
  <speed>0.06</speed>
  <fix>3d</fix>
</trkpt>
<trkpt lat="-27.273771" lon="151.2899043">
  <ele>353.74</ele>
  <time>2026-09-01T19:57:42Z</time>
  <course>105.86</course>
  <speed>0.07</speed>
  <fix>3d</fix>
</trkpt>
<trkpt lat="-27.2737711" lon="151.289904">
  <ele>354.3</ele>
  <time>2026-09-01T19:57:42Z</time>
  <course>88.44</course>
  <speed>0.05</speed>
  <fix>3d</fix>
</trkpt>
<trkpt lat="-27.273771" lon="151.2899043">
  <ele>353.6</ele>
  <time>2026-09-01T19:57:42Z</time>
  <course>105.87</course>
  <speed>0.07</speed>
  <fix>3d</fix>
</trkpt>
<trkpt lat="-27.2737711" lon="151.289904">
  <ele>354.3</ele>
  <time>2026-09-01T19:57:42Z</time>
  <course>88.44</course>
  <speed>0.05</speed>
  <fix>3d</fix>
</trkpt>
<trkpt lat="-27.273771" lon="151.2899044">
  <ele>353.46</ele>
  <time>2026-09-01T19:57:42Z</time>
  <course>105.88</course>
  <speed>0.06</speed>
  <fix>3d</fix>
</trkpt>
<trkpt lat="-27.2737711" lon="151.2899041">
  <ele>354.02</ele>
  <time>2026-09-01T19:57:42Z</time>
  <course>88.64</course>
  <speed>0.05</speed>
  <fix>3d</fix>
</trkpt>
<trkpt lat="-27.273771" lon="151.2899044">
  <ele>353.32</ele>
  <time>2026-09-01T19:57:42Z</time>
  <course>105.89</course>
  <speed>0.06</speed>
  <fix>3d</fix>
</trkpt>
<trkpt lat="-27.2737711" lon="151.2899041">
  <ele>354.02</ele>
  <time>2026-09-01T19:57:42Z</time>
  <course>88.64</course>
  <speed>0.05</speed>
  <fix>3d</fix>
</trkpt>
<trkpt lat="-27.273771" lon="151.2899045">
  <ele>353.19</ele>
  <time>2026-09-01T19:57:42Z</time>
  <course>105.89</course>
  <speed>0.06</speed>
  <fix>3d</fix>
</trkpt>
<trkpt lat="-27.2737711" lon="151.2899042">
  <ele>353.74</ele>
  <time>2026-09-01T19:57:42Z</time>
  <course>88.72</course>
  <speed>0.04</speed>
  <fix>3d</fix>
</trkpt>
<trkpt lat="-27.273771" lon="151.2899045">
  <ele>353.06</ele>
  <time>2026-09-01T19:57:42Z</time>
  <course>105.9</course>
  <speed>0.05</speed>
  <fix>3d</fix>
</trkpt>
<trkpt lat="-27.2737711" lon="151.2899042">
  <ele>353.74</ele>
  <time>2026-09-01T19:57:42Z</time>
  <course>88.72</course>
  <speed>0.04</speed>
  <fix>3d</fix>
</trkpt>
<trkpt lat="-27.273771" lon="151.2899045">
  <ele>352.93</ele>
  <time>2026-09-01T19:57:42Z</time>
  <course>105.9</course>
  <speed>0.05</speed>
  <fix>3d</fix>
</trkpt>
<trkpt lat="-27.2737711" lon="151.2899043">
  <ele>353.47</ele>
  <time>2026-09-01T19:57:42Z</time>
  <course>88.78</course>
  <speed>0.03</speed>
  <fix>3d</fix>
</trkpt>
<trkpt lat="-27.273771" lon="151.2899046">
  <ele>352.81</ele>
  <time>2026-09-01T19:57:42Z</time>
  <course>105.9</course>
  <speed>0.05</speed>
  <fix>3d</fix>
</trkpt>
<trkpt lat="-27.2737711" lon="151.2899043">
  <ele>353.47</ele>
  <time>2026-09-01T19:57:42Z</time>
  <course>88.78</course>
  <speed>0.03</speed>
  <fix>3d</fix>
</trkpt>
<trkpt lat="-27.273771" lon="151.2899046">
  <ele>352.68</ele>
  <time>2026-09-01T19:57:42Z</time>
  <course>105.89</course>
  <speed>0.04</speed>
  <fix>3d</fix>
</trkpt>
<trkpt lat="-27.2737711" lon="151.2899043">
  <ele>353.22</ele>
  <time>2026-09-01T19:57:42Z</time>
  <course>89.28</course>
  <speed>0.02</speed>
  <fix>3d</fix>
</trkpt>
<trkpt lat="-27.273771" lon="151.2899046">
  <ele>352.57</ele>
  <time>2026-09-01T19:57:42Z</time>
  <course>105.87</course>
  <speed>0.04</speed>
  <fix>3d</fix>
</trkpt>
<trkpt lat="-27.2737711" lon="151.2899043">
  <ele>353.22</ele>
  <time>2026-09-01T19:57:42Z</time>
  <course>89.28</course>
  <speed>0.02</speed>
  <fix>3d</fix>
</trkpt>
<trkpt lat="-27.273771" lon="151.2899046">
  <ele>352.45</ele>
  <time>2026-09-01T19:57:42Z</time>
  <course>105.84</course>
  <speed>0.03</speed>
  <fix>3d</fix>
</trkpt>
<trkpt lat="-27.2737711" lon="151.2899043">
  <ele>352.97</ele>
  <time>2026-09-01T19:57:42Z</time>
  <course>92.15</course>
  <speed>0.02</speed>
  <fix>3d</fix>
</trkpt>
<trkpt lat="-27.273771" lon="151.2899046">
  <ele>352.34</ele>
  <time>2026-09-01T19:57:42Z</time>
  <course>105.78</course>
  <speed>0.03</speed>
  <fix>3d</fix>
</trkpt>
<trkpt lat="-27.2737711" lon="151.2899043">
  <ele>352.97</ele>
  <time>2026-09-01T19:57:42Z</time>
  <course>92.15</course>
  <speed>0.02</speed>
  <fix>3d</fix>
</trkpt>
<trkpt lat="-27.273771" lon="151.2899046">
  <ele>352.23</ele>
  <time>2026-09-01T19:57:42Z</time>
  <course>105.72</course>
  <speed>0.02</speed>
  <fix>3d</fix>
</trkpt>
<trkpt lat="-27.2737711" lon="151.2899044">
  <ele>352.73</ele>
  <time>2026-09-01T19:57:42Z</time>
  <course>112.48</course>
  <speed>0.01</speed>
  <fix>3d</fix>
</trkpt>
<trkpt lat="-27.273771" lon="151.2899046">
  <ele>352.12</ele>
  <time>2026-09-01T19:57:42Z</time>
  <course>105.72</course>
  <speed>0.02</speed>
  <fix>3d</fix>
</trkpt>
<trkpt lat="-27.2737711" lon="151.2899044">
  <ele>352.73</ele>
  <time>2026-09-01T19:57:42Z</time>
  <course>112.48</course>
  <speed>0.01</speed>
  <fix>3d</fix>
</trkpt>
<trkpt lat="-27.273771" lon="151.2899046">
  <ele>352.01</ele>
  <time>2026-09-01T19:57:42Z</time>
  <course>105.75</course>
  <speed>0.02</speed>
  <fix>3d</fix>
</trkpt>
<trkpt lat="-27.2737711" lon="151.2899045">
  <ele>352.51</ele>
  <time>2026-09-01T19:57:42Z</time>
  <course>162.56</course>
  <speed>0.0</speed>
  <fix>3d</fix>
</trkpt>
<trkpt lat="-27.273771" lon="151.2899046">
  <ele>351.91</ele>
  <time>2026-09-01T19:57:42Z</time>
  <course>105.81</course>
  <speed>0.01</speed>
  <fix>3d</fix>
</trkpt>
<trkpt lat="-27.2737711" lon="151.2899045">
  <ele>352.51</ele>
  <time>2026-09-01T19:57:42Z</time>
  <course>162.56</course>
  <speed>0.0</speed>
  <fix>3d</fix>
</trkpt>
<trkpt lat="-27.273771" lon="151.2899046">
  <ele>351.81</ele>
  <time>2026-09-01T19:57:42Z</time>
  <course>105.88</course>
  <speed>0.01</speed>
  <fix>3d</fix>
</trkpt>
<trkpt lat="-27.2737711" lon="151.2899045">
  <ele>352.29</ele>
  <time>2026-09-01T19:57:42Z</time>
  <course>224.7</course>
  <speed>0.0</speed>
  <fix>3d</fix>
</trkpt>
<trkpt lat="-27.273771" lon="151.2899046">
  <ele>351.7</ele>
  <time>2026-09-01T19:57:42Z</time>
  <course>105.95</course>
  <speed>0.01</speed>
  <fix>3d</fix>
</trkpt>
<trkpt lat="-27.2737711" lon="151.2899045">
  <ele>352.29</ele>
  <time>2026-09-01T19:57:42Z</time>
  <course>224.7</course>
  <speed>0.0</speed>
  <fix>3d</fix>
</trkpt>
<trkpt lat="-27.273771" lon="151.2899046">
  <ele>351.6</ele>
  <time>2026-09-01T19:57:42Z</time>
  <course>106.02</course>
  <speed>0.01</speed>
  <fix>3d</fix>
</trkpt>
<trkpt lat="-27.2737711" lon="151.2899045">
  <ele>352.08</ele>
  <time>2026-09-01T19:57:42Z</time>
  <course>256.99</course>
  <speed>0.01</speed>
  <fix>3d</fix>
</trkpt>
<trkpt lat="-27.273771" lon="151.2899046">
  <ele>351.51</ele>
  <time>2026-09-01T19:57:42Z</time>
  <course>106.07</course>
  <speed>0.01</speed>
  <fix>3d</fix>
</trkpt>
<trkpt lat="-27.2737711" lon="151.2899045">
  <ele>352.08</ele>
  <time>2026-09-01T19:57:42Z</time>
  <course>256.99</course>
  <speed>0.01</speed>
  <fix>3d</fix>
</trkpt>
<trkpt lat="-27.273771" lon="151.2899046">
  <ele>351.41</ele>
  <time>2026-09-01T19:57:42Z</time>
  <course>106.09</course>
  <speed>0.01</speed>
  <fix>3d</fix>
</trkpt>
<trkpt lat="-27.2737711" lon="151.2899045">
  <ele>351.88</ele>
  <time>2026-09-01T19:57:42Z</time>
  <course>268.04</course>
  <speed>0.01</speed>
  <fix>3d</fix>
</trkpt>
<trkpt lat="-27.273771" lon="151.2899046">
  <ele>351.31</ele>
  <time>2026-09-01T19:57:42Z</time>
  <course>106.11</course>
  <speed>0.01</speed>
  <fix>3d</fix>
</trkpt>
<trkpt lat="-27.2737711" lon="151.2899045">
  <ele>351.88</ele>
  <time>2026-09-01T19:57:42Z</time>
  <course>268.04</course>
  <speed>0.01</speed>
  <fix>3d</fix>
</trkpt>
<trkpt lat="-27.273771" lon="151.2899046">
  <ele>351.22</ele>
  <time>2026-09-01T19:57:42Z</time>
  <course>106.11</course>
  <speed>0.01</speed>
  <fix>3d</fix>
</trkpt>
<trkpt lat="-27.2737711" lon="151.2899045">
  <ele>351.68</ele>
  <time>2026-09-01T19:57:42Z</time>
  <course>273.33</course>
  <speed>0.01</speed>
  <fix>3d</fix>
</trkpt>
<trkpt lat="-27.273771" lon="151.2899046">
  <ele>351.12</ele>
  <time>2026-09-01T19:57:42Z</time>
  <course>106.1</course>
  <speed>0.01</speed>
  <fix>3d</fix>
</trkpt>
<trkpt lat="-27.2737711" lon="151.2899045">
  <ele>351.68</ele>
  <time>2026-09-01T19:57:42Z</time>
  <course>273.33</course>
  <speed>0.01</speed>
  <fix>3d</fix>
</trkpt>
<trkpt lat="-27.273771" lon="151.2899046">
  <ele>351.03</ele>
  <time>2026-09-01T19:57:42Z</time>
  <course>106.09</course>
  <speed>0.01</speed>
  <fix>3d</fix>
</trkpt>
<trkpt lat="-27.2737711" lon="151.2899044">
  <ele>351.48</ele>
  <time>2026-09-01T19:57:42Z</time>
  <course>276.31</course>
  <speed>0.02</speed>
  <fix>3d</fix>
</trkpt>
<trkpt lat="-27.273771" lon="151.2899046">
  <ele>350.94</ele>
  <time>2026-09-01T19:57:42Z</time>
  <course>106.09</course>
  <speed>0.01</speed>
  <fix>3d</fix>
</trkpt>
<trkpt lat="-27.2737711" lon="151.2899044">
  <ele>351.48</ele>
  <time>2026-09-01T19:57:42Z</time>
  <course>276.31</course>
  <speed>0.02</speed>
  <fix>3d</fix>
</trkpt>
<trkpt lat="-27.273771" lon="151.2899046">
  <ele>350.85</ele>
  <time>2026-09-01T19:57:42Z</time>
  <course>106.08</course>
  <speed>0.01</speed>
  <fix>3d</fix>
</trkpt>
<trkpt lat="-27.2737711" lon="151.2899043">
  <ele>351.3</ele>
  <time>2026-09-01T19:57:42Z</time>
  <course>277.97</course>
  <speed>0.02</speed>
  <fix>3d</fix>
</trkpt>
<trkpt lat="-27.273771" lon="151.2899046">
  <ele>350.76</ele>
  <time>2026-09-01T19:57:42Z</time>
  <course>106.07</course>
  <speed>0.01</speed>
  <fix>3d</fix>
</trkpt>
<trkpt lat="-27.2737711" lon="151.2899043">
  <ele>351.3</ele>
  <time>2026-09-01T19:57:42Z</time>
  <course>277.97</course>
  <speed>0.02</speed>
  <fix>3d</fix>
</trkpt>
<trkpt lat="-27.273771" lon="151.2899045">
  <ele>350.67</ele>
  <time>2026-09-01T19:57:42Z</time>
  <course>106.07</course>
  <speed>0.01</speed>
  <fix>3d</fix>
</trkpt>
<trkpt lat="-27.2737711" lon="151.2899043">
  <ele>351.12</ele>
  <time>2026-09-01T19:57:42Z</time>
  <course>279.0</course>
  <speed>0.03</speed>
  <fix>3d</fix>
</trkpt>
<trkpt lat="-27.273771" lon="151.2899045">
  <ele>350.59</ele>
  <time>2026-09-01T19:57:42Z</time>
  <course>106.06</course>
  <speed>0.01</speed>
  <fix>3d</fix>
</trkpt>
<trkpt lat="-27.2737711" lon="151.2899043">
  <ele>351.12</ele>
  <time>2026-09-01T19:57:42Z</time>
  <course>279.0</course>
  <speed>0.03</speed>
  <fix>3d</fix>
</trkpt>
<trkpt lat="-27.273771" lon="151.2899045">
  <ele>350.51</ele>
  <time>2026-09-01T19:57:42Z</time>
  <course>106.05</course>
  <speed>0.01</speed>
  <fix>3d</fix>
</trkpt>
<trkpt lat="-27.2737711" lon="151.2899042">
  <ele>350.94</ele>
  <time>2026-09-01T19:57:42Z</time>
  <course>279.48</course>
  <speed>0.03</speed>
  <fix>3d</fix>
</trkpt>
<trkpt lat="-27.273771" lon="151.2899044">
  <ele>350.43</ele>
  <time>2026-09-01T19:57:42Z</time>
  <course>106.04</course>
  <speed>0.01</speed>
  <fix>3d</fix>
</trkpt>
<trkpt lat="-27.2737711" lon="151.2899042">
  <ele>350.94</ele>
  <time>2026-09-01T19:57:42Z</time>
  <course>279.48</course>
  <speed>0.03</speed>
  <fix>3d</fix>
</trkpt>
<trkpt lat="-27.273771" lon="151.2899044">
  <ele>350.35</ele>
  <time>2026-09-01T19:57:42Z</time>
  <course>106.03</course>
  <speed>0.01</speed>
  <fix>3d</fix>
</trkpt>
<trkpt lat="-27.2737711" lon="151.2899042">
  <ele>350.78</ele>
  <time>2026-09-01T19:57:42Z</time>
  <course>280.0</course>
  <speed>0.03</speed>
  <fix>3d</fix>
</trkpt>
<trkpt lat="-27.273771" lon="151.2899044">
  <ele>350.27</ele>
  <time>2026-09-01T19:57:42Z</time>
  <course>106.03</course>
  <speed>0.01</speed>
  <fix>3d</fix>
</trkpt>
<trkpt lat="-27.2737711" lon="151.2899042">
  <ele>350.78</ele>
  <time>2026-09-01T19:57:42Z</time>
  <course>280.0</course>
  <speed>0.03</speed>
  <fix>3d</fix>
</trkpt>
<trkpt lat="-27.273771" lon="151.2899044">
  <ele>350.2</ele>
  <time>2026-09-01T19:57:42Z</time>
  <course>106.03</course>
  <speed>0.01</speed>
  <fix>3d</fix>
</trkpt>
<trkpt lat="-27.2737711" lon="151.2899041">
  <ele>350.62</ele>
  <time>2026-09-01T19:57:42Z</time>
  <course>280.62</course>
  <speed>0.03</speed>
  <fix>3d</fix>
</trkpt>
<trkpt lat="-27.273771" lon="151.2899043">
  <ele>350.12</ele>
  <time>2026-09-01T19:57:42Z</time>
  <course>106.03</course>
  <speed>0.01</speed>
  <fix>3d</fix>
</trkpt>
<trkpt lat="-27.2737711" lon="151.2899041">
  <ele>350.62</ele>
  <time>2026-09-01T19:57:42Z</time>
  <course>280.62</course>
  <speed>0.03</speed>
  <fix>3d</fix>
</trkpt>
<trkpt lat="-27.273771" lon="151.2899043">
  <ele>350.05</ele>
  <time>2026-09-01T19:57:42Z</time>
  <course>106.04</course>
  <speed>0.01</speed>
  <fix>3d</fix>
</trkpt>
<trkpt lat="-27.2737711" lon="151.289904">
  <ele>350.46</ele>
  <time>2026-09-01T19:57:42Z</time>
  <course>281.05</course>
  <speed>0.03</speed>
  <fix>3d</fix>
</trkpt>
<trkpt lat="-27.273771" lon="151.2899043">
  <ele>349.98</ele>
  <time>2026-09-01T19:57:42Z</time>
  <course>106.04</course>
  <speed>0.01</speed>
  <fix>3d</fix>
</trkpt>
<trkpt lat="-27.2737711" lon="151.289904">
  <ele>350.46</ele>
  <time>2026-09-01T19:57:42Z</time>
  <course>281.05</course>
  <speed>0.03</speed>
  <fix>3d</fix>
</trkpt>
<trkpt lat="-27.273771" lon="151.2899042">
  <ele>349.91</ele>
  <time>2026-09-01T19:57:42Z</time>
  <course>106.04</course>
  <speed>0.01</speed>
  <fix>3d</fix>
</trkpt>
<trkpt lat="-27.2737711" lon="151.2899039">
  <ele>350.31</ele>
  <time>2026-09-01T19:57:42Z</time>
  <course>281.21</course>
  <speed>0.03</speed>
  <fix>3d</fix>
</trkpt>
<trkpt lat="-27.273771" lon="151.2899042">
  <ele>349.85</ele>
  <time>2026-09-01T19:57:42Z</time>
  <course>106.04</course>
  <speed>0.01</speed>
  <fix>3d</fix>
</trkpt>
<trkpt lat="-27.2737711" lon="151.2899039">
  <ele>350.31</ele>
  <time>2026-09-01T19:57:42Z</time>
  <course>281.21</course>
  <speed>0.03</speed>
  <fix>3d</fix>
</trkpt>
<trkpt lat="-27.273771" lon="151.2899042">
  <ele>349.78</ele>
  <time>2026-09-01T19:57:42Z</time>
  <course>106.04</course>
  <speed>0.01</speed>
  <fix>3d</fix>
</trkpt>
<trkpt lat="-27.2737711" lon="151.2899038">
  <ele>350.16</ele>
  <time>2026-09-01T19:57:42Z</time>
  <course>281.22</course>
  <speed>0.03</speed>
  <fix>3d</fix>
</trkpt>
<trkpt lat="-27.273771" lon="151.2899041">
  <ele>349.71</ele>
  <time>2026-09-01T19:57:42Z</time>
  <course>106.04</course>
  <speed>0.01</speed>
  <fix>3d</fix>
</trkpt>
<trkpt lat="-27.2737711" lon="151.2899038">
  <ele>350.16</ele>
  <time>2026-09-01T19:57:42Z</time>
  <course>281.22</course>
  <speed>0.03</speed>
  <fix>3d</fix>
</trkpt>
<trkpt lat="-27.273771" lon="151.2899041">
  <ele>349.64</ele>
  <time>2026-09-01T19:57:42Z</time>
  <course>106.04</course>
  <speed>0.01</speed>
  <fix>3d</fix>
</trkpt>
<trkpt lat="-27.2737711" lon="151.2899038">
  <ele>350.03</ele>
  <time>2026-09-01T19:57:42Z</time>
  <course>281.18</course>
  <speed>0.03</speed>
  <fix>3d</fix>
</trkpt>
<trkpt lat="-27.273771" lon="151.2899041">
  <ele>349.58</ele>
  <time>2026-09-01T19:57:42Z</time>
  <course>106.03</course>
  <speed>0.01</speed>
  <fix>3d</fix>
</trkpt>
<trkpt lat="-27.2737711" lon="151.2899038">
  <ele>350.03</ele>
  <time>2026-09-01T19:57:42Z</time>
  <course>281.18</course>
  <speed>0.03</speed>
  <fix>3d</fix>
</trkpt>
<trkpt lat="-27.273771" lon="151.289904">
  <ele>349.51</ele>
  <time>2026-09-01T19:57:42Z</time>
  <course>106.03</course>
  <speed>0.01</speed>
  <fix>3d</fix>
</trkpt>
<trkpt lat="-27.2737711" lon="151.2899037">
  <ele>349.9</ele>
  <time>2026-09-01T19:57:42Z</time>
  <course>280.96</course>
  <speed>0.03</speed>
  <fix>3d</fix>
</trkpt>
<trkpt lat="-27.273771" lon="151.289904">
  <ele>349.45</ele>
  <time>2026-09-01T19:57:42Z</time>
  <course>106.03</course>
  <speed>0.01</speed>
  <fix>3d</fix>
</trkpt>
<trkpt lat="-27.2737711" lon="151.2899037">
  <ele>349.9</ele>
  <time>2026-09-01T19:57:42Z</time>
  <course>280.96</course>
  <speed>0.03</speed>
  <fix>3d</fix>
</trkpt>
<trkpt lat="-27.273771" lon="151.289904">
  <ele>349.39</ele>
  <time>2026-09-01T19:57:42Z</time>
  <course>106.03</course>
  <speed>0.0</speed>
  <fix>3d</fix>
</trkpt>
<trkpt lat="-27.273771" lon="151.2899037">
  <ele>349.76</ele>
  <time>2026-09-01T19:57:42Z</time>
  <course>280.73</course>
  <speed>0.03</speed>
  <fix>3d</fix>
</trkpt>
<trkpt lat="-27.273771" lon="151.2899039">
  <ele>349.32</ele>
  <time>2026-09-01T19:57:42Z</time>
  <course>106.04</course>
  <speed>0.0</speed>
  <fix>3d</fix>
</trkpt>
<trkpt lat="-27.273771" lon="151.2899037">
  <ele>349.76</ele>
  <time>2026-09-01T19:57:42Z</time>
  <course>280.73</course>
  <speed>0.03</speed>
  <fix>3d</fix>
</trkpt>
<trkpt lat="-27.273771" lon="151.2899039">
  <ele>349.26</ele>
  <time>2026-09-01T19:57:42Z</time>
  <course>106.04</course>
  <speed>0.0</speed>
  <fix>3d</fix>
</trkpt>
<trkpt lat="-27.273771" lon="151.2899036">
  <ele>349.64</ele>
  <time>2026-09-01T19:57:42Z</time>
  <course>280.32</course>
  <speed>0.02</speed>
  <fix>3d</fix>
</trkpt>
<trkpt lat="-27.273771" lon="151.2899039">
  <ele>349.2</ele>
  <time>2026-09-01T19:57:42Z</time>
  <course>106.05</course>
  <speed>0.01</speed>
  <fix>3d</fix>
</trkpt>
<trkpt lat="-27.273771" lon="151.2899036">
  <ele>349.64</ele>
  <time>2026-09-01T19:57:42Z</time>
  <course>280.32</course>
  <speed>0.02</speed>
  <fix>3d</fix>
</trkpt>
<trkpt lat="-27.273771" lon="151.2899039">
  <ele>349.14</ele>
  <time>2026-09-01T19:57:42Z</time>
  <course>106.05</course>
  <speed>0.01</speed>
  <fix>3d</fix>
</trkpt>
<trkpt lat="-27.273771" lon="151.2899036">
  <ele>349.52</ele>
  <time>2026-09-01T19:57:42Z</time>
  <course>279.73</course>
  <speed>0.02</speed>
  <fix>3d</fix>
</trkpt>
<trkpt lat="-27.273771" lon="151.2899039">
  <ele>349.09</ele>
  <time>2026-09-01T19:57:42Z</time>
  <course>106.06</course>
  <speed>0.01</speed>
  <fix>3d</fix>
</trkpt>
<trkpt lat="-27.273771" lon="151.2899036">
  <ele>349.52</ele>
  <time>2026-09-01T19:57:42Z</time>
  <course>279.73</course>
  <speed>0.02</speed>
  <fix>3d</fix>
</trkpt>
<trkpt lat="-27.273771" lon="151.2899038">
  <ele>349.03</ele>
  <time>2026-09-01T19:57:42Z</time>
  <course>106.07</course>
  <speed>0.01</speed>
  <fix>3d</fix>
</trkpt>
<trkpt lat="-27.273771" lon="151.2899035">
  <ele>349.4</ele>
  <time>2026-09-01T19:57:42Z</time>
  <course>279.25</course>
  <speed>0.02</speed>
  <fix>3d</fix>
</trkpt>
<trkpt lat="-27.273771" lon="151.2899038">
  <ele>348.98</ele>
  <time>2026-09-01T19:57:42Z</time>
  <course>106.08</course>
  <speed>0.01</speed>
  <fix>3d</fix>
</trkpt>
<trkpt lat="-27.273771" lon="151.2899035">
  <ele>349.4</ele>
  <time>2026-09-01T19:57:42Z</time>
  <course>279.25</course>
  <speed>0.02</speed>
  <fix>3d</fix>
</trkpt>
<trkpt lat="-27.273771" lon="151.2899038">
  <ele>348.92</ele>
  <time>2026-09-01T19:57:42Z</time>
  <course>106.09</course>
  <speed>0.01</speed>
  <fix>3d</fix>
</trkpt>
<trkpt lat="-27.273771" lon="151.2899034">
  <ele>349.29</ele>
  <time>2026-09-01T19:57:42Z</time>
  <course>278.67</course>
  <speed>0.01</speed>
  <fix>3d</fix>
</trkpt>
<trkpt lat="-27.273771" lon="151.2899038">
  <ele>348.87</ele>
  <time>2026-09-01T19:57:42Z</time>
  <course>106.08</course>
  <speed>0.02</speed>
  <fix>3d</fix>
</trkpt>
<trkpt lat="-27.273771" lon="151.2899034">
  <ele>349.29</ele>
  <time>2026-09-01T19:57:42Z</time>
  <course>278.67</course>
  <speed>0.01</speed>
  <fix>3d</fix>
</trkpt>
<trkpt lat="-27.273771" lon="151.2899038">
  <ele>348.82</ele>
  <time>2026-09-01T19:57:42Z</time>
  <course>106.08</course>
  <speed>0.02</speed>
  <fix>3d</fix>
</trkpt>
<trkpt lat="-27.273771" lon="151.2899034">
  <ele>349.18</ele>
  <time>2026-09-01T19:57:42Z</time>
  <course>277.3</course>
  <speed>0.01</speed>
  <fix>3d</fix>
</trkpt>
<trkpt lat="-27.273771" lon="151.2899038">
  <ele>348.77</ele>
  <time>2026-09-01T19:57:42Z</time>
  <course>106.07</course>
  <speed>0.02</speed>
  <fix>3d</fix>
</trkpt>
<trkpt lat="-27.273771" lon="151.2899034">
  <ele>349.18</ele>
  <time>2026-09-01T19:57:42Z</time>
  <course>277.3</course>
  <speed>0.01</speed>
  <fix>3d</fix>
</trkpt>
<trkpt lat="-27.273771" lon="151.2899038">
  <ele>348.72</ele>
  <time>2026-09-01T19:57:42Z</time>
  <course>106.07</course>
  <speed>0.02</speed>
  <fix>3d</fix>
</trkpt>
<trkpt lat="-27.273771" lon="151.2899034">
  <ele>349.08</ele>
  <time>2026-09-01T19:57:42Z</time>
  <course>277.2</course>
  <speed>0.01</speed>
  <fix>3d</fix>
</trkpt>
<trkpt lat="-27.273771" lon="151.2899038">
  <ele>348.67</ele>
  <time>2026-09-01T19:57:42Z</time>
  <course>106.08</course>
  <speed>0.02</speed>
  <fix>3d</fix>
</trkpt>
<trkpt lat="-27.273771" lon="151.2899034">
  <ele>349.08</ele>
  <time>2026-09-01T19:57:42Z</time>
  <course>277.2</course>
  <speed>0.01</speed>
  <fix>3d</fix>
</trkpt>
<trkpt lat="-27.273771" lon="151.2899037">
  <ele>348.62</ele>
  <time>2026-09-01T19:57:42Z</time>
  <course>106.1</course>
  <speed>0.022360679774997897</speed>
  <fix>3d</fix>
</trkpt>
<trkpt lat="-27.273771" lon="151.2899033">
  <ele>348.97</ele>
  <time>2026-09-01T19:57:42Z</time>
  <course>283.34</course>
  <speed>0.0</speed>
  <fix>3d</fix>
</trkpt>
<trkpt lat="-27.273771" lon="151.2899037">
  <ele>348.57</ele>
  <time>2026-09-01T19:57:42Z</time>
  <course>106.13</course>
  <speed>0.0316227766016838</speed>
  <fix>3d</fix>
</trkpt>
<trkpt lat="-27.273771" lon="151.2899033">
  <ele>348.97</ele>
  <time>2026-09-01T19:57:42Z</time>
  <course>283.34</course>
  <speed>0.0</speed>
  <fix>3d</fix>
</trkpt>
<trkpt lat="-27.273771" lon="151.2899037">
  <ele>348.52</ele>
  <time>2026-09-01T19:57:42Z</time>
  <course>106.18</course>
  <speed>0.0316227766016838</speed>
  <fix>3d</fix>
</trkpt>
<trkpt lat="-27.273771" lon="151.2899033">
  <ele>348.88</ele>
  <time>2026-09-01T19:57:42Z</time>
  <course>325.97</course>
  <speed>0.0</speed>
  <fix>3d</fix>
</trkpt>
<trkpt lat="-27.273771" lon="151.2899037">
  <ele>348.47</ele>
  <time>2026-09-01T19:57:42Z</time>
  <course>106.24</course>
  <speed>0.0316227766016838</speed>
  <fix>3d</fix>
</trkpt>
<trkpt lat="-27.273771" lon="151.2899033">
  <ele>348.88</ele>
  <time>2026-09-01T19:57:42Z</time>
  <course>325.97</course>
  <speed>0.0</speed>
  <fix>3d</fix>
</trkpt>
<trkpt lat="-27.273771" lon="151.2899037">
  <ele>348.43</ele>
  <time>2026-09-01T19:57:42Z</time>
  <course>106.3</course>
  <speed>0.0316227766016838</speed>
  <fix>3d</fix>
</trkpt>
<trkpt lat="-27.273771" lon="151.2899033">
  <ele>348.78</ele>
  <time>2026-09-01T19:57:42Z</time>
  <course>25.62</course>
  <speed>0.0</speed>
  <fix>3d</fix>
</trkpt>
<trkpt lat="-27.273771" lon="151.2899037">
  <ele>348.38</ele>
  <time>2026-09-01T19:57:42Z</time>
  <course>106.35</course>
  <speed>0.044721359549995794</speed>
  <fix>3d</fix>
</trkpt>
<trkpt lat="-27.273771" lon="151.2899033">
  <ele>348.78</ele>
  <time>2026-09-01T19:57:42Z</time>
  <course>25.62</course>
  <speed>0.0</speed>
  <fix>3d</fix>
</trkpt>
<trkpt lat="-27.2737709" lon="151.2899037">
  <ele>348.33</ele>
  <time>2026-09-01T19:57:42Z</time>
  <course>106.38</course>
  <speed>0.044721359549995794</speed>
  <fix>3d</fix>
</trkpt>
<trkpt lat="-27.273771" lon="151.2899033">
  <ele>348.69</ele>
  <time>2026-09-01T19:57:42Z</time>
  <course>39.73</course>
  <speed>0.01</speed>
  <fix>3d</fix>
</trkpt>
<trkpt lat="-27.2737709" lon="151.2899037">
  <ele>348.28</ele>
  <time>2026-09-01T19:57:42Z</time>
  <course>106.4</course>
  <speed>0.044721359549995794</speed>
  <fix>3d</fix>
</trkpt>
<trkpt lat="-27.273771" lon="151.2899033">
  <ele>348.69</ele>
  <time>2026-09-01T19:57:42Z</time>
  <course>39.73</course>
  <speed>0.01</speed>
  <fix>3d</fix>
</trkpt>
<trkpt lat="-27.2737709" lon="151.2899037">
  <ele>348.23</ele>
  <time>2026-09-01T19:57:43Z</time>
  <course>106.41</course>
  <speed>0.044721359549995794</speed>
  <fix>3d</fix>
</trkpt>
<trkpt lat="-27.273771" lon="151.2899033">
  <ele>348.59</ele>
  <time>2026-09-01T19:57:43Z</time>
  <course>46.28</course>
  <speed>0.01</speed>
  <fix>3d</fix>
</trkpt>
<trkpt lat="-27.2737709" lon="151.2899037">
  <ele>348.18</ele>
  <time>2026-09-01T19:57:43Z</time>
  <course>106.4</course>
  <speed>0.044721359549995794</speed>
  <fix>3d</fix>
</trkpt>
<trkpt lat="-27.273771" lon="151.2899033">
  <ele>348.59</ele>
  <time>2026-09-01T19:57:43Z</time>
  <course>46.28</course>
  <speed>0.01</speed>
  <fix>3d</fix>
</trkpt>
<trkpt lat="-27.2737709" lon="151.2899037">
  <ele>348.13</ele>
  <time>2026-09-01T19:57:43Z</time>
  <course>106.39</course>
  <speed>0.053851648071345036</speed>
  <fix>3d</fix>
</trkpt>
<trkpt lat="-27.2737709" lon="151.2899033">
  <ele>348.49</ele>
  <time>2026-09-01T19:57:43Z</time>
  <course>50.87</course>
  <speed>0.02</speed>
  <fix>3d</fix>
</trkpt>
<trkpt lat="-27.2737709" lon="151.2899037">
  <ele>348.08</ele>
  <time>2026-09-01T19:57:43Z</time>
  <course>106.38</course>
  <speed>0.053851648071345036</speed>
  <fix>3d</fix>
</trkpt>
<trkpt lat="-27.2737709" lon="151.2899033">
  <ele>348.49</ele>
  <time>2026-09-01T19:57:43Z</time>
  <course>50.87</course>
  <speed>0.02</speed>
  <fix>3d</fix>
</trkpt>
<trkpt lat="-27.2737709" lon="151.2899037">
  <ele>348.03</ele>
  <time>2026-09-01T19:57:43Z</time>
  <course>106.36</course>
  <speed>0.053851648071345036</speed>
  <fix>3d</fix>
</trkpt>
<trkpt lat="-27.2737709" lon="151.2899034">
  <ele>348.38</ele>
  <time>2026-09-01T19:57:43Z</time>
  <course>54.79</course>
  <speed>0.02</speed>
  <fix>3d</fix>
</trkpt>
<trkpt lat="-27.2737708" lon="151.2899037">
  <ele>347.98</ele>
  <time>2026-09-01T19:57:43Z</time>
  <course>106.35</course>
  <speed>0.053851648071345036</speed>
  <fix>3d</fix>
</trkpt>
<trkpt lat="-27.2737709" lon="151.2899034">
  <ele>348.38</ele>
  <time>2026-09-01T19:57:43Z</time>
  <course>54.79</course>
  <speed>0.02</speed>
  <fix>3d</fix>
</trkpt>
<trkpt lat="-27.2737708" lon="151.2899038">
  <ele>347.93</ele>
  <time>2026-09-01T19:57:43Z</time>
  <course>106.34</course>
  <speed>0.053851648071345036</speed>
  <fix>3d</fix>
</trkpt>
<trkpt lat="-27.2737709" lon="151.2899034">
  <ele>348.28</ele>
  <time>2026-09-01T19:57:43Z</time>
  <course>58.81</course>
  <speed>0.03</speed>
  <fix>3d</fix>
</trkpt>
<trkpt lat="-27.2737708" lon="151.2899038">
  <ele>347.88</ele>
  <time>2026-09-01T19:57:43Z</time>
  <course>106.34</course>
  <speed>0.0632455532033676</speed>
  <fix>3d</fix>
</trkpt>
<trkpt lat="-27.2737709" lon="151.2899034">
  <ele>348.28</ele>
  <time>2026-09-01T19:57:43Z</time>
  <course>58.81</course>
  <speed>0.03</speed>
  <fix>3d</fix>
</trkpt>
<trkpt lat="-27.2737708" lon="151.2899038">
  <ele>347.83</ele>
  <time>2026-09-01T19:57:43Z</time>
  <course>106.35</course>
  <speed>0.0632455532033676</speed>
  <fix>3d</fix>
</trkpt>
<trkpt lat="-27.2737708" lon="151.2899035">
  <ele>348.18</ele>
  <time>2026-09-01T19:57:43Z</time>
  <course>62.25</course>
  <speed>0.03</speed>
  <fix>3d</fix>
</trkpt>
<trkpt lat="-27.2737708" lon="151.2899039">
  <ele>347.78</ele>
  <time>2026-09-01T19:57:43Z</time>
  <course>106.36</course>
  <speed>0.0632455532033676</speed>
  <fix>3d</fix>
</trkpt>
<trkpt lat="-27.2737708" lon="151.2899035">
  <ele>348.18</ele>
  <time>2026-09-01T19:57:43Z</time>
  <course>62.25</course>
  <speed>0.03</speed>
  <fix>3d</fix>
</trkpt>
<trkpt lat="-27.2737708" lon="151.2899039">
  <ele>347.73</ele>
  <time>2026-09-01T19:57:43Z</time>
  <course>106.37</course>
  <speed>0.0632455532033676</speed>
  <fix>3d</fix>
</trkpt>
<trkpt lat="-27.2737708" lon="151.2899036">
  <ele>348.08</ele>
  <time>2026-09-01T19:57:43Z</time>
  <course>65.61</course>
  <speed>0.03</speed>
  <fix>3d</fix>
</trkpt>
<trkpt lat="-27.2737708" lon="151.2899039">
  <ele>347.68</ele>
  <time>2026-09-01T19:57:43Z</time>
  <course>106.38</course>
  <speed>0.0632455532033676</speed>
  <fix>3d</fix>
</trkpt>
<trkpt lat="-27.2737708" lon="151.2899036">
  <ele>348.08</ele>
  <time>2026-09-01T19:57:43Z</time>
  <course>65.61</course>
  <speed>0.03</speed>
  <fix>3d</fix>
</trkpt>
<trkpt lat="-27.2737707" lon="151.289904">
  <ele>347.63</ele>
  <time>2026-09-01T19:57:43Z</time>
  <course>106.39</course>
  <speed>0.0632455532033676</speed>
  <fix>3d</fix>
</trkpt>
<trkpt lat="-27.2737708" lon="151.2899036">
  <ele>347.97</ele>
  <time>2026-09-01T19:57:43Z</time>
  <course>69.68</course>
  <speed>0.03</speed>
  <fix>3d</fix>
</trkpt>
<trkpt lat="-27.2737707" lon="151.289904">
  <ele>347.57</ele>
  <time>2026-09-01T19:57:43Z</time>
  <course>106.39</course>
  <speed>0.0632455532033676</speed>
  <fix>3d</fix>
</trkpt>
<trkpt lat="-27.2737708" lon="151.2899036">
  <ele>347.97</ele>
  <time>2026-09-01T19:57:43Z</time>
  <course>69.68</course>
  <speed>0.03</speed>
  <fix>3d</fix>
</trkpt>
<trkpt lat="-27.2737707" lon="151.289904">
  <ele>347.52</ele>
  <time>2026-09-01T19:57:43Z</time>
  <course>106.39</course>
  <speed>0.0632455532033676</speed>
  <fix>3d</fix>
</trkpt>
<trkpt lat="-27.2737708" lon="151.2899037">
  <ele>347.87</ele>
  <time>2026-09-01T19:57:43Z</time>
  <course>73.85</course>
  <speed>0.03</speed>
  <fix>3d</fix>
</trkpt>
<trkpt lat="-27.2737707" lon="151.2899041">
  <ele>347.47</ele>
  <time>2026-09-01T19:57:43Z</time>
  <course>106.39</course>
  <speed>0.06082762530298219</speed>
  <fix>3d</fix>
</trkpt>
<trkpt lat="-27.2737708" lon="151.2899037">
  <ele>347.87</ele>
  <time>2026-09-01T19:57:43Z</time>
  <course>73.85</course>
  <speed>0.03</speed>
  <fix>3d</fix>
</trkpt>
<trkpt lat="-27.2737707" lon="151.2899041">
  <ele>347.42</ele>
  <time>2026-09-01T19:57:43Z</time>
  <course>106.38</course>
  <speed>0.06082762530298219</speed>
  <fix>3d</fix>
</trkpt>
<trkpt lat="-27.2737708" lon="151.2899038">
  <ele>347.77</ele>
  <time>2026-09-01T19:57:43Z</time>
  <course>77.32</course>
  <speed>0.03</speed>
  <fix>3d</fix>
</trkpt>
<trkpt lat="-27.2737707" lon="151.2899041">
  <ele>347.37</ele>
  <time>2026-09-01T19:57:43Z</time>
  <course>106.37</course>
  <speed>0.06082762530298219</speed>
  <fix>3d</fix>
</trkpt>
<trkpt lat="-27.2737708" lon="151.2899038">
  <ele>347.77</ele>
  <time>2026-09-01T19:57:43Z</time>
  <course>77.32</course>
  <speed>0.03</speed>
  <fix>3d</fix>
</trkpt>
<trkpt lat="-27.2737707" lon="151.2899042">
  <ele>347.32</ele>
  <time>2026-09-01T19:57:43Z</time>
  <course>106.37</course>
  <speed>0.06082762530298219</speed>
  <fix>3d</fix>
</trkpt>
<trkpt lat="-27.2737707" lon="151.2899038">
  <ele>347.66</ele>
  <time>2026-09-01T19:57:43Z</time>
  <course>80.14</course>
  <speed>0.03</speed>
  <fix>3d</fix>
</trkpt>
<trkpt lat="-27.2737707" lon="151.2899042">
  <ele>347.27</ele>
  <time>2026-09-01T19:57:43Z</time>
  <course>106.37</course>
  <speed>0.06082762530298219</speed>
  <fix>3d</fix>
</trkpt>
<trkpt lat="-27.2737707" lon="151.2899038">
  <ele>347.66</ele>
  <time>2026-09-01T19:57:43Z</time>
  <course>80.14</course>
  <speed>0.03</speed>
  <fix>3d</fix>
</trkpt>
<trkpt lat="-27.2737707" lon="151.2899042">
  <ele>347.22</ele>
  <time>2026-09-01T19:57:43Z</time>
  <course>106.37</course>
  <speed>0.06082762530298219</speed>
  <fix>3d</fix>
</trkpt>
<trkpt lat="-27.2737707" lon="151.2899039">
  <ele>347.56</ele>
  <time>2026-09-01T19:57:43Z</time>
  <course>82.97</course>
  <speed>0.03</speed>
  <fix>3d</fix>
</trkpt>
<trkpt lat="-27.2737707" lon="151.2899043">
  <ele>347.17</ele>
  <time>2026-09-01T19:57:43Z</time>
  <course>106.38</course>
  <speed>0.06082762530298219</speed>
  <fix>3d</fix>
</trkpt>
<trkpt lat="-27.2737707" lon="151.2899039">
  <ele>347.56</ele>
  <time>2026-09-01T19:57:43Z</time>
  <course>82.97</course>
  <speed>0.03</speed>
  <fix>3d</fix>
</trkpt>
<trkpt lat="-27.2737707" lon="151.2899043">
  <ele>347.12</ele>
  <time>2026-09-01T19:57:43Z</time>
  <course>106.38</course>
  <speed>0.06082762530298219</speed>
  <fix>3d</fix>
</trkpt>
<trkpt lat="-27.2737707" lon="151.289904">
  <ele>347.46</ele>
  <time>2026-09-01T19:57:43Z</time>
  <course>86.56</course>
  <speed>0.03</speed>
  <fix>3d</fix>
</trkpt>
<trkpt lat="-27.2737707" lon="151.2899043">
  <ele>347.07</ele>
  <time>2026-09-01T19:57:43Z</time>
  <course>106.39</course>
  <speed>0.05099019513592785</speed>
  <fix>3d</fix>
</trkpt>
<trkpt lat="-27.2737707" lon="151.289904">
  <ele>347.46</ele>
  <time>2026-09-01T19:57:43Z</time>
  <course>86.56</course>
  <speed>0.03</speed>
  <fix>3d</fix>
</trkpt>
<trkpt lat="-27.2737707" lon="151.2899044">
  <ele>347.02</ele>
  <time>2026-09-01T19:57:43Z</time>
  <course>106.41</course>
  <speed>0.05</speed>
  <fix>3d</fix>
</trkpt>
<trkpt lat="-27.2737707" lon="151.2899041">
  <ele>347.36</ele>
  <time>2026-09-01T19:57:43Z</time>
  <course>91.74</course>
  <speed>0.03</speed>
  <fix>3d</fix>
</trkpt>
<trkpt lat="-27.2737707" lon="151.2899044">
  <ele>346.97</ele>
  <time>2026-09-01T19:57:43Z</time>
  <course>106.43</course>
  <speed>0.05</speed>
  <fix>3d</fix>
</trkpt>
<trkpt lat="-27.2737707" lon="151.2899041">
  <ele>347.36</ele>
  <time>2026-09-01T19:57:43Z</time>
  <course>91.74</course>
  <speed>0.03</speed>
  <fix>3d</fix>
</trkpt>
<trkpt lat="-27.2737707" lon="151.2899044">
  <ele>346.92</ele>
  <time>2026-09-01T19:57:43Z</time>
  <course>106.44</course>
  <speed>0.05</speed>
  <fix>3d</fix>
</trkpt>
<trkpt lat="-27.2737707" lon="151.2899041">
  <ele>347.26</ele>
  <time>2026-09-01T19:57:43Z</time>
  <course>97.62</course>
  <speed>0.03</speed>
  <fix>3d</fix>
</trkpt>
<trkpt lat="-27.2737707" lon="151.2899044">
  <ele>346.87</ele>
  <time>2026-09-01T19:57:43Z</time>
  <course>106.44</course>
  <speed>0.05</speed>
  <fix>3d</fix>
</trkpt>
<trkpt lat="-27.2737707" lon="151.2899041">
  <ele>347.26</ele>
  <time>2026-09-01T19:57:43Z</time>
  <course>97.62</course>
  <speed>0.03</speed>
  <fix>3d</fix>
</trkpt>
<trkpt lat="-27.2737707" lon="151.2899045">
  <ele>346.82</ele>
  <time>2026-09-01T19:57:43Z</time>
  <course>106.44</course>
  <speed>0.05</speed>
  <fix>3d</fix>
</trkpt>
<trkpt lat="-27.2737707" lon="151.2899042">
  <ele>347.15</ele>
  <time>2026-09-01T19:57:43Z</time>
  <course>102.92</course>
  <speed>0.02</speed>
  <fix>3d</fix>
</trkpt>
<trkpt lat="-27.2737707" lon="151.2899045">
  <ele>346.77</ele>
  <time>2026-09-01T19:57:43Z</time>
  <course>106.43</course>
  <speed>0.05</speed>
  <fix>3d</fix>
</trkpt>
<trkpt lat="-27.2737707" lon="151.2899042">
  <ele>347.15</ele>
  <time>2026-09-01T19:57:43Z</time>
  <course>102.92</course>
  <speed>0.02</speed>
  <fix>3d</fix>
</trkpt>
<trkpt lat="-27.2737707" lon="151.2899045">
  <ele>346.72</ele>
  <time>2026-09-01T19:57:43Z</time>
  <course>106.43</course>
  <speed>0.05</speed>
  <fix>3d</fix>
</trkpt>
<trkpt lat="-27.2737707" lon="151.2899043">
  <ele>347.06</ele>
  <time>2026-09-01T19:57:43Z</time>
  <course>108.2</course>
  <speed>0.02</speed>
  <fix>3d</fix>
</trkpt>
<trkpt lat="-27.2737707" lon="151.2899045">
  <ele>346.67</ele>
  <time>2026-09-01T19:57:43Z</time>
  <course>106.42</course>
  <speed>0.04</speed>
  <fix>3d</fix>
</trkpt>
<trkpt lat="-27.2737707" lon="151.2899043">
  <ele>347.06</ele>
  <time>2026-09-01T19:57:43Z</time>
  <course>108.2</course>
  <speed>0.02</speed>
  <fix>3d</fix>
</trkpt>
<trkpt lat="-27.2737707" lon="151.2899046">
  <ele>346.62</ele>
  <time>2026-09-01T19:57:43Z</time>
  <course>106.42</course>
  <speed>0.04</speed>
  <fix>3d</fix>
</trkpt>
<trkpt lat="-27.2737707" lon="151.2899043">
  <ele>346.96</ele>
  <time>2026-09-01T19:57:43Z</time>
  <course>114.17</course>
  <speed>0.02</speed>
  <fix>3d</fix>
</trkpt>
<trkpt lat="-27.2737707" lon="151.2899046">
  <ele>346.57</ele>
  <time>2026-09-01T19:57:43Z</time>
  <course>106.43</course>
  <speed>0.04</speed>
  <fix>3d</fix>
</trkpt>
<trkpt lat="-27.2737707" lon="151.2899043">
  <ele>346.96</ele>
  <time>2026-09-01T19:57:43Z</time>
  <course>114.17</course>
  <speed>0.02</speed>
  <fix>3d</fix>
</trkpt>
<trkpt lat="-27.2737707" lon="151.2899046">
  <ele>346.52</ele>
  <time>2026-09-01T19:57:43Z</time>
  <course>106.43</course>
  <speed>0.04</speed>
  <fix>3d</fix>
</trkpt>
<trkpt lat="-27.2737707" lon="151.2899043">
  <ele>346.86</ele>
  <time>2026-09-01T19:57:43Z</time>
  <course>121.14</course>
  <speed>0.02</speed>
  <fix>3d</fix>
</trkpt>
<trkpt lat="-27.2737707" lon="151.2899046">
  <ele>346.47</ele>
  <time>2026-09-01T19:57:43Z</time>
  <course>106.44</course>
  <speed>0.04</speed>
  <fix>3d</fix>
</trkpt>
<trkpt lat="-27.2737707" lon="151.2899043">
  <ele>346.86</ele>
  <time>2026-09-01T19:57:43Z</time>
  <course>121.14</course>
  <speed>0.02</speed>
  <fix>3d</fix>
</trkpt>
<trkpt lat="-27.2737707" lon="151.2899046">
  <ele>346.42</ele>
  <time>2026-09-01T19:57:43Z</time>
  <course>106.45</course>
  <speed>0.04</speed>
  <fix>3d</fix>
</trkpt>
<trkpt lat="-27.2737707" lon="151.2899043">
  <ele>346.76</ele>
  <time>2026-09-01T19:57:43Z</time>
  <course>129.59</course>
  <speed>0.01</speed>
  <fix>3d</fix>
</trkpt>
<trkpt lat="-27.2737707" lon="151.2899046">
  <ele>346.37</ele>
  <time>2026-09-01T19:57:43Z</time>
  <course>106.47</course>
  <speed>0.03</speed>
  <fix>3d</fix>
</trkpt>
<trkpt lat="-27.2737707" lon="151.2899043">
  <ele>346.76</ele>
  <time>2026-09-01T19:57:43Z</time>
  <course>129.59</course>
  <speed>0.01</speed>
  <fix>3d</fix>
</trkpt>
<trkpt lat="-27.2737707" lon="151.2899046">
  <ele>346.33</ele>
  <time>2026-09-01T19:57:43Z</time>
  <course>106.49</course>
  <speed>0.03</speed>
  <fix>3d</fix>
</trkpt>
<trkpt lat="-27.2737707" lon="151.2899043">
  <ele>346.65</ele>
  <time>2026-09-01T19:57:43Z</time>
  <course>139.39</course>
  <speed>0.01</speed>
  <fix>3d</fix>
</trkpt>
<trkpt lat="-27.2737707" lon="151.2899046">
  <ele>346.28</ele>
  <time>2026-09-01T19:57:43Z</time>
  <course>106.5</course>
  <speed>0.03</speed>
  <fix>3d</fix>
</trkpt>
<trkpt lat="-27.2737707" lon="151.2899043">
  <ele>346.65</ele>
  <time>2026-09-01T19:57:43Z</time>
  <course>139.39</course>
  <speed>0.01</speed>
  <fix>3d</fix>
</trkpt>
<trkpt lat="-27.2737707" lon="151.2899046">
  <ele>346.23</ele>
  <time>2026-09-01T19:57:43Z</time>
  <course>106.51</course>
  <speed>0.03</speed>
  <fix>3d</fix>
</trkpt>
<trkpt lat="-27.2737708" lon="151.2899044">
  <ele>346.55</ele>
  <time>2026-09-01T19:57:43Z</time>
  <course>149.22</course>
  <speed>0.01</speed>
  <fix>3d</fix>
</trkpt>
<trkpt lat="-27.2737707" lon="151.2899047">
  <ele>346.18</ele>
  <time>2026-09-01T19:57:43Z</time>
  <course>106.52</course>
  <speed>0.03</speed>
  <fix>3d</fix>
</trkpt>
<trkpt lat="-27.2737708" lon="151.2899044">
  <ele>346.55</ele>
  <time>2026-09-01T19:57:43Z</time>
  <course>149.22</course>
  <speed>0.01</speed>
  <fix>3d</fix>
</trkpt>
<trkpt lat="-27.2737707" lon="151.2899047">
  <ele>346.13</ele>
  <time>2026-09-01T19:57:43Z</time>
  <course>106.53</course>
  <speed>0.03</speed>
  <fix>3d</fix>
</trkpt>
<trkpt lat="-27.2737708" lon="151.2899045">
  <ele>346.45</ele>
  <time>2026-09-01T19:57:43Z</time>
  <course>158.67</course>
  <speed>0.01</speed>
  <fix>3d</fix>
</trkpt>
<trkpt lat="-27.2737707" lon="151.2899047">
  <ele>346.08</ele>
  <time>2026-09-01T19:57:43Z</time>
  <course>106.53</course>
  <speed>0.03</speed>
  <fix>3d</fix>
</trkpt>
<trkpt lat="-27.2737708" lon="151.2899045">
  <ele>346.45</ele>
  <time>2026-09-01T19:57:43Z</time>
  <course>158.67</course>
  <speed>0.01</speed>
  <fix>3d</fix>
</trkpt>
<trkpt lat="-27.2737707" lon="151.2899047">
  <ele>346.03</ele>
  <time>2026-09-01T19:57:43Z</time>
  <course>106.54</course>
  <speed>0.03</speed>
  <fix>3d</fix>
</trkpt>
<trkpt lat="-27.2737708" lon="151.2899045">
  <ele>346.34</ele>
  <time>2026-09-01T19:57:43Z</time>
  <course>166.72</course>
  <speed>0.01</speed>
  <fix>3d</fix>
</trkpt>
<trkpt lat="-27.2737707" lon="151.2899047">
  <ele>345.98</ele>
  <time>2026-09-01T19:57:43Z</time>
  <course>106.54</course>
  <speed>0.03</speed>
  <fix>3d</fix>
</trkpt>
<trkpt lat="-27.2737708" lon="151.2899045">
  <ele>346.34</ele>
  <time>2026-09-01T19:57:43Z</time>
  <course>166.72</course>
  <speed>0.01</speed>
  <fix>3d</fix>
</trkpt>
<trkpt lat="-27.2737707" lon="151.2899047">
  <ele>345.92</ele>
  <time>2026-09-01T19:57:43Z</time>
  <course>106.54</course>
  <speed>0.03</speed>
  <fix>3d</fix>
</trkpt>
<trkpt lat="-27.2737708" lon="151.2899045">
  <ele>346.25</ele>
  <time>2026-09-01T19:57:43Z</time>
  <course>173.3</course>
  <speed>0.01</speed>
  <fix>3d</fix>
</trkpt>
<trkpt lat="-27.2737707" lon="151.2899047">
  <ele>345.87</ele>
  <time>2026-09-01T19:57:43Z</time>
  <course>106.55</course>
  <speed>0.03</speed>
  <fix>3d</fix>
</trkpt>
<trkpt lat="-27.2737708" lon="151.2899045">
  <ele>346.25</ele>
  <time>2026-09-01T19:57:43Z</time>
  <course>173.3</course>
  <speed>0.01</speed>
  <fix>3d</fix>
</trkpt>
<trkpt lat="-27.2737707" lon="151.2899047">
  <ele>345.82</ele>
  <time>2026-09-01T19:57:43Z</time>
  <course>106.55</course>
  <speed>0.02</speed>
  <fix>3d</fix>
</trkpt>
<trkpt lat="-27.2737709" lon="151.2899045">
  <ele>346.15</ele>
  <time>2026-09-01T19:57:43Z</time>
  <course>178.37</course>
  <speed>0.01</speed>
  <fix>3d</fix>
</trkpt>
<trkpt lat="-27.2737708" lon="151.2899047">
  <ele>345.77</ele>
  <time>2026-09-01T19:57:43Z</time>
  <course>106.55</course>
  <speed>0.02</speed>
  <fix>3d</fix>
</trkpt>
<trkpt lat="-27.2737709" lon="151.2899045">
  <ele>346.15</ele>
  <time>2026-09-01T19:57:43Z</time>
  <course>178.37</course>
  <speed>0.01</speed>
  <fix>3d</fix>
</trkpt>
<trkpt lat="-27.2737708" lon="151.2899047">
  <ele>345.72</ele>
  <time>2026-09-01T19:57:43Z</time>
  <course>106.55</course>
  <speed>0.02</speed>
  <fix>3d</fix>
</trkpt>
<trkpt lat="-27.2737709" lon="151.2899045">
  <ele>346.04</ele>
  <time>2026-09-01T19:57:43Z</time>
  <course>183.67</course>
  <speed>0.01</speed>
  <fix>3d</fix>
</trkpt>
<trkpt lat="-27.2737708" lon="151.2899047">
  <ele>345.67</ele>
  <time>2026-09-01T19:57:43Z</time>
  <course>106.54</course>
  <speed>0.02</speed>
  <fix>3d</fix>
</trkpt>
<trkpt lat="-27.2737709" lon="151.2899045">
  <ele>346.04</ele>
  <time>2026-09-01T19:57:43Z</time>
  <course>183.67</course>
  <speed>0.01</speed>
  <fix>3d</fix>
</trkpt>
<trkpt lat="-27.2737708" lon="151.2899047">
  <ele>345.62</ele>
  <time>2026-09-01T19:57:43Z</time>
  <course>106.54</course>
  <speed>0.02</speed>
  <fix>3d</fix>
</trkpt>
<trkpt lat="-27.2737709" lon="151.2899045">
  <ele>345.94</ele>
  <time>2026-09-01T19:57:43Z</time>
  <course>192.64</course>
  <speed>0.01</speed>
  <fix>3d</fix>
</trkpt>
<trkpt lat="-27.2737708" lon="151.2899047">
  <ele>345.57</ele>
  <time>2026-09-01T19:57:43Z</time>
  <course>106.54</course>
  <speed>0.02</speed>
  <fix>3d</fix>
</trkpt>
<trkpt lat="-27.2737709" lon="151.2899045">
  <ele>345.94</ele>
  <time>2026-09-01T19:57:43Z</time>
  <course>192.64</course>
  <speed>0.01</speed>
  <fix>3d</fix>
</trkpt>
<trkpt lat="-27.2737708" lon="151.2899047">
  <ele>345.52</ele>
  <time>2026-09-01T19:57:43Z</time>
  <course>106.55</course>
  <speed>0.02</speed>
  <fix>3d</fix>
</trkpt>
<trkpt lat="-27.273771" lon="151.2899045">
  <ele>345.84</ele>
  <time>2026-09-01T19:57:43Z</time>
  <course>204.85</course>
  <speed>0.01</speed>
  <fix>3d</fix>
</trkpt>
<trkpt lat="-27.2737708" lon="151.2899047">
  <ele>345.47</ele>
  <time>2026-09-01T19:57:43Z</time>
  <course>106.56</course>
  <speed>0.02</speed>
  <fix>3d</fix>
</trkpt>
<trkpt lat="-27.273771" lon="151.2899045">
  <ele>345.84</ele>
  <time>2026-09-01T19:57:43Z</time>
  <course>204.85</course>
  <speed>0.01</speed>
  <fix>3d</fix>
</trkpt>
<trkpt lat="-27.2737708" lon="151.2899047">
  <ele>345.41</ele>
  <time>2026-09-01T19:57:43Z</time>
  <course>106.56</course>
  <speed>0.02</speed>
  <fix>3d</fix>
</trkpt>
<trkpt lat="-27.273771" lon="151.2899045">
  <ele>345.74</ele>
  <time>2026-09-01T19:57:43Z</time>
  <course>216.69</course>
  <speed>0.01</speed>
  <fix>3d</fix>
</trkpt>
<trkpt lat="-27.2737708" lon="151.2899047">
  <ele>345.36</ele>
  <time>2026-09-01T19:57:43Z</time>
  <course>106.58</course>
  <speed>0.02</speed>
  <fix>3d</fix>
</trkpt>
<trkpt lat="-27.273771" lon="151.2899045">
  <ele>345.74</ele>
  <time>2026-09-01T19:57:43Z</time>
  <course>216.69</course>
  <speed>0.01</speed>
  <fix>3d</fix>
</trkpt>
<trkpt lat="-27.2737708" lon="151.2899047">
  <ele>345.31</ele>
  <time>2026-09-01T19:57:43Z</time>
  <course>106.59</course>
  <speed>0.02</speed>
  <fix>3d</fix>
</trkpt>
<trkpt lat="-27.273771" lon="151.2899045">
  <ele>345.64</ele>
  <time>2026-09-01T19:57:43Z</time>
  <course>226.9</course>
  <speed>0.01</speed>
  <fix>3d</fix>
</trkpt>
<trkpt lat="-27.2737708" lon="151.2899047">
  <ele>345.26</ele>
  <time>2026-09-01T19:57:43Z</time>
  <course>106.6</course>
  <speed>0.02</speed>
  <fix>3d</fix>
</trkpt>
<trkpt lat="-27.273771" lon="151.2899045">
  <ele>345.64</ele>
  <time>2026-09-01T19:57:43Z</time>
  <course>226.9</course>
  <speed>0.01</speed>
  <fix>3d</fix>
</trkpt>
<trkpt lat="-27.2737708" lon="151.2899047">
  <ele>345.21</ele>
  <time>2026-09-01T19:57:43Z</time>
  <course>106.61</course>
  <speed>0.01414213562373095</speed>
  <fix>3d</fix>
</trkpt>
<trkpt lat="-27.273771" lon="151.2899045">
  <ele>345.53</ele>
  <time>2026-09-01T19:57:43Z</time>
  <course>237.34</course>
  <speed>0.01</speed>
  <fix>3d</fix>
</trkpt>
<trkpt lat="-27.2737709" lon="151.2899047">
  <ele>345.16</ele>
  <time>2026-09-01T19:57:43Z</time>
  <course>106.62</course>
  <speed>0.01414213562373095</speed>
  <fix>3d</fix>
</trkpt>
<trkpt lat="-27.273771" lon="151.2899045">
  <ele>345.53</ele>
  <time>2026-09-01T19:57:43Z</time>
  <course>237.34</course>
  <speed>0.01</speed>
  <fix>3d</fix>
</trkpt>
<trkpt lat="-27.2737709" lon="151.2899047">
  <ele>345.11</ele>
  <time>2026-09-01T19:57:43Z</time>
  <course>106.62</course>
  <speed>0.01414213562373095</speed>
  <fix>3d</fix>
</trkpt>
<trkpt lat="-27.273771" lon="151.2899045">
  <ele>345.44</ele>
  <time>2026-09-01T19:57:43Z</time>
  <course>245.56</course>
  <speed>0.01</speed>
  <fix>3d</fix>
</trkpt>
<trkpt lat="-27.2737709" lon="151.2899047">
  <ele>345.06</ele>
  <time>2026-09-01T19:57:43Z</time>
  <course>106.63</course>
  <speed>0.01414213562373095</speed>
  <fix>3d</fix>
</trkpt>
<trkpt lat="-27.273771" lon="151.2899045">
  <ele>345.44</ele>
  <time>2026-09-01T19:57:43Z</time>
  <course>245.56</course>
  <speed>0.01</speed>
  <fix>3d</fix>
</trkpt>
<trkpt lat="-27.2737709" lon="151.2899047">
  <ele>345.02</ele>
  <time>2026-09-01T19:57:43Z</time>
  <course>106.63</course>
  <speed>0.01414213562373095</speed>
  <fix>3d</fix>
</trkpt>
<trkpt lat="-27.273771" lon="151.2899044">
  <ele>345.34</ele>
  <time>2026-09-01T19:57:43Z</time>
  <course>249.86</course>
  <speed>0.01</speed>
  <fix>3d</fix>
</trkpt>
<trkpt lat="-27.2737709" lon="151.2899047">
  <ele>344.97</ele>
  <time>2026-09-01T19:57:43Z</time>
  <course>106.64</course>
  <speed>0.01414213562373095</speed>
  <fix>3d</fix>
</trkpt>
<trkpt lat="-27.273771" lon="151.2899044">
  <ele>345.34</ele>
  <time>2026-09-01T19:57:43Z</time>
  <course>249.86</course>
  <speed>0.01</speed>
  <fix>3d</fix>
</trkpt>
<trkpt lat="-27.2737709" lon="151.2899047">
  <ele>344.92</ele>
  <time>2026-09-01T19:57:43Z</time>
  <course>106.63</course>
  <speed>0.01414213562373095</speed>
  <fix>3d</fix>
</trkpt>
<trkpt lat="-27.2737711" lon="151.2899043">
  <ele>345.24</ele>
  <time>2026-09-01T19:57:43Z</time>
  <course>254.36</course>
  <speed>0.01</speed>
  <fix>3d</fix>
</trkpt>
<trkpt lat="-27.2737709" lon="151.2899047">
  <ele>344.87</ele>
  <time>2026-09-01T19:57:43Z</time>
  <course>106.63</course>
  <speed>0.01414213562373095</speed>
  <fix>3d</fix>
</trkpt>
<trkpt lat="-27.2737711" lon="151.2899043">
  <ele>345.24</ele>
  <time>2026-09-01T19:57:43Z</time>
  <course>254.36</course>
  <speed>0.01</speed>
  <fix>3d</fix>
</trkpt>
<trkpt lat="-27.2737709" lon="151.2899047">
  <ele>344.82</ele>
  <time>2026-09-01T19:57:43Z</time>
  <course>106.62</course>
  <speed>0.01414213562373095</speed>
  <fix>3d</fix>
</trkpt>
<trkpt lat="-27.2737711" lon="151.2899043">
  <ele>345.14</ele>
  <time>2026-09-01T19:57:43Z</time>
  <course>260.48</course>
  <speed>0.01</speed>
  <fix>3d</fix>
</trkpt>
<trkpt lat="-27.2737709" lon="151.2899047">
  <ele>344.77</ele>
  <time>2026-09-01T19:57:43Z</time>
  <course>106.62</course>
  <speed>0.01414213562373095</speed>
  <fix>3d</fix>
</trkpt>
<trkpt lat="-27.2737711" lon="151.2899043">
  <ele>345.14</ele>
  <time>2026-09-01T19:57:43Z</time>
  <course>260.48</course>
  <speed>0.01</speed>
  <fix>3d</fix>
</trkpt>
<trkpt lat="-27.2737709" lon="151.2899046">
  <ele>344.72</ele>
  <time>2026-09-01T19:57:43Z</time>
  <course>106.62</course>
  <speed>0.01414213562373095</speed>
  <fix>3d</fix>
</trkpt>
<trkpt lat="-27.2737711" lon="151.2899043">
  <ele>345.03</ele>
  <time>2026-09-01T19:57:43Z</time>
  <course>265.17</course>
  <speed>0.01</speed>
  <fix>3d</fix>
</trkpt>
<trkpt lat="-27.2737709" lon="151.2899046">
  <ele>344.67</ele>
  <time>2026-09-01T19:57:43Z</time>
  <course>106.62</course>
  <speed>0.01414213562373095</speed>
  <fix>3d</fix>
</trkpt>
<trkpt lat="-27.2737711" lon="151.2899043">
  <ele>345.03</ele>
  <time>2026-09-01T19:57:43Z</time>
  <course>265.17</course>
  <speed>0.01</speed>
  <fix>3d</fix>
</trkpt>
<trkpt lat="-27.2737709" lon="151.2899046">
  <ele>344.62</ele>
  <time>2026-09-01T19:57:43Z</time>
  <course>106.61</course>
  <speed>0.01414213562373095</speed>
  <fix>3d</fix>
</trkpt>
<trkpt lat="-27.2737711" lon="151.2899043">
  <ele>344.94</ele>
  <time>2026-09-01T19:57:43Z</time>
  <course>268.61</course>
  <speed>0.01</speed>
  <fix>3d</fix>
</trkpt>
<trkpt lat="-27.2737709" lon="151.2899046">
  <ele>344.57</ele>
  <time>2026-09-01T19:57:43Z</time>
  <course>106.61</course>
  <speed>0.01414213562373095</speed>
  <fix>3d</fix>
</trkpt>
<trkpt lat="-27.2737711" lon="151.2899043">
  <ele>344.94</ele>
  <time>2026-09-01T19:57:43Z</time>
  <course>268.61</course>
  <speed>0.01</speed>
  <fix>3d</fix>
</trkpt>
<trkpt lat="-27.2737709" lon="151.2899046">
  <ele>344.52</ele>
  <time>2026-09-01T19:57:43Z</time>
  <course>106.61</course>
  <speed>0.01414213562373095</speed>
  <fix>3d</fix>
</trkpt>
<trkpt lat="-27.2737711" lon="151.2899043">
  <ele>344.84</ele>
  <time>2026-09-01T19:57:43Z</time>
  <course>272.79</course>
  <speed>0.01</speed>
  <fix>3d</fix>
</trkpt>
<trkpt lat="-27.2737709" lon="151.2899046">
  <ele>344.46</ele>
  <time>2026-09-01T19:57:43Z</time>
  <course>106.61</course>
  <speed>0.01414213562373095</speed>
  <fix>3d</fix>
</trkpt>
<trkpt lat="-27.2737711" lon="151.2899043">
  <ele>344.84</ele>
  <time>2026-09-01T19:57:43Z</time>
  <course>272.79</course>
  <speed>0.01</speed>
  <fix>3d</fix>
</trkpt>
<trkpt lat="-27.2737709" lon="151.2899046">
  <ele>344.41</ele>
  <time>2026-09-01T19:57:43Z</time>
  <course>106.62</course>
  <speed>0.01414213562373095</speed>
  <fix>3d</fix>
</trkpt>
<trkpt lat="-27.2737711" lon="151.2899043">
  <ele>344.74</ele>
  <time>2026-09-01T19:57:43Z</time>
  <course>277.73</course>
  <speed>0.01</speed>
  <fix>3d</fix>
</trkpt>
<trkpt lat="-27.2737709" lon="151.2899046">
  <ele>344.36</ele>
  <time>2026-09-01T19:57:43Z</time>
  <course>106.63</course>
  <speed>0.022360679774997897</speed>
  <fix>3d</fix>
</trkpt>
<trkpt lat="-27.2737711" lon="151.2899043">
  <ele>344.74</ele>
  <time>2026-09-01T19:57:43Z</time>
  <course>277.73</course>
  <speed>0.01</speed>
  <fix>3d</fix>
</trkpt>
<trkpt lat="-27.2737709" lon="151.2899045">
  <ele>344.31</ele>
  <time>2026-09-01T19:57:43Z</time>
  <course>106.63</course>
  <speed>0.022360679774997897</speed>
  <fix>3d</fix>
</trkpt>
<trkpt lat="-27.2737711" lon="151.2899042">
  <ele>344.64</ele>
  <time>2026-09-01T19:57:43Z</time>
  <course>282.07</course>
  <speed>0.01</speed>
  <fix>3d</fix>
</trkpt>
<trkpt lat="-27.2737709" lon="151.2899045">
  <ele>344.26</ele>
  <time>2026-09-01T19:57:43Z</time>
  <course>106.63</course>
  <speed>0.022360679774997897</speed>
  <fix>3d</fix>
</trkpt>
<trkpt lat="-27.2737711" lon="151.2899042">
  <ele>344.64</ele>
  <time>2026-09-01T19:57:43Z</time>
  <course>282.07</course>
  <speed>0.01</speed>
  <fix>3d</fix>
</trkpt>
<trkpt lat="-27.2737709" lon="151.2899045">
  <ele>344.21</ele>
  <time>2026-09-01T19:57:43Z</time>
  <course>106.61</course>
  <speed>0.022360679774997897</speed>
  <fix>3d</fix>
</trkpt>
<trkpt lat="-27.2737711" lon="151.2899042">
  <ele>344.53</ele>
  <time>2026-09-01T19:57:43Z</time>
  <course>284.32</course>
  <speed>0.01</speed>
  <fix>3d</fix>
</trkpt>
<trkpt lat="-27.2737709" lon="151.2899045">
  <ele>344.16</ele>
  <time>2026-09-01T19:57:43Z</time>
  <course>106.6</course>
  <speed>0.022360679774997897</speed>
  <fix>3d</fix>
</trkpt>
<trkpt lat="-27.2737711" lon="151.2899042">
  <ele>344.53</ele>
  <time>2026-09-01T19:57:43Z</time>
  <course>284.32</course>
  <speed>0.01</speed>
  <fix>3d</fix>
</trkpt>
<trkpt lat="-27.2737709" lon="151.2899045">
  <ele>344.12</ele>
  <time>2026-09-01T19:57:43Z</time>
  <course>106.57</course>
  <speed>0.022360679774997897</speed>
  <fix>3d</fix>
</trkpt>
<trkpt lat="-27.2737711" lon="151.2899042">
  <ele>344.44</ele>
  <time>2026-09-01T19:57:43Z</time>
  <course>287.56</course>
  <speed>0.01</speed>
  <fix>3d</fix>
</trkpt>
<trkpt lat="-27.2737709" lon="151.2899045">
  <ele>344.07</ele>
  <time>2026-09-01T19:57:43Z</time>
  <course>106.56</course>
  <speed>0.022360679774997897</speed>
  <fix>3d</fix>
</trkpt>
<trkpt lat="-27.2737711" lon="151.2899042">
  <ele>344.44</ele>
  <time>2026-09-01T19:57:43Z</time>
  <course>287.56</course>
  <speed>0.01</speed>
  <fix>3d</fix>
</trkpt>
<trkpt lat="-27.2737709" lon="151.2899045">
  <ele>344.02</ele>
  <time>2026-09-01T19:57:43Z</time>
  <course>106.55</course>
  <speed>0.022360679774997897</speed>
  <fix>3d</fix>
</trkpt>
<trkpt lat="-27.2737711" lon="151.2899042">
  <ele>344.34</ele>
  <time>2026-09-01T19:57:43Z</time>
  <course>292.37</course>
  <speed>0.01</speed>
  <fix>3d</fix>
</trkpt>
<trkpt lat="-27.2737709" lon="151.2899045">
  <ele>343.97</ele>
  <time>2026-09-01T19:57:43Z</time>
  <course>106.55</course>
  <speed>0.022360679774997897</speed>
  <fix>3d</fix>
</trkpt>
<trkpt lat="-27.2737711" lon="151.2899042">
  <ele>344.34</ele>
  <time>2026-09-01T19:57:43Z</time>
  <course>292.37</course>
  <speed>0.01</speed>
  <fix>3d</fix>
</trkpt>
<trkpt lat="-27.2737709" lon="151.2899045">
  <ele>343.92</ele>
  <time>2026-09-01T19:57:43Z</time>
  <course>106.55</course>
  <speed>0.022360679774997897</speed>
  <fix>3d</fix>
</trkpt>
<trkpt lat="-27.2737711" lon="151.2899041">
  <ele>344.24</ele>
  <time>2026-09-01T19:57:43Z</time>
  <course>295.46</course>
  <speed>0.01</speed>
  <fix>3d</fix>
</trkpt>
<trkpt lat="-27.2737709" lon="151.2899045">
  <ele>343.87</ele>
  <time>2026-09-01T19:57:43Z</time>
  <course>106.56</course>
  <speed>0.022360679774997897</speed>
  <fix>3d</fix>
</trkpt>
<trkpt lat="-27.2737711" lon="151.2899041">
  <ele>344.24</ele>
  <time>2026-09-01T19:57:43Z</time>
  <course>295.46</course>
  <speed>0.01</speed>
  <fix>3d</fix>
</trkpt>
<trkpt lat="-27.2737709" lon="151.2899045">
  <ele>343.82</ele>
  <time>2026-09-01T19:57:43Z</time>
  <course>106.56</course>
  <speed>0.022360679774997897</speed>
  <fix>3d</fix>
</trkpt>
<trkpt lat="-27.2737711" lon="151.2899041">
  <ele>344.14</ele>
  <time>2026-09-01T19:57:43Z</time>
  <course>297.29</course>
  <speed>0.01</speed>
  <fix>3d</fix>
</trkpt>
<trkpt lat="-27.2737709" lon="151.2899045">
  <ele>343.77</ele>
  <time>2026-09-01T19:57:43Z</time>
  <course>106.56</course>
  <speed>0.022360679774997897</speed>
  <fix>3d</fix>
</trkpt>
<trkpt lat="-27.2737711" lon="151.2899041">
  <ele>344.14</ele>
  <time>2026-09-01T19:57:43Z</time>
  <course>297.29</course>
  <speed>0.01</speed>
  <fix>3d</fix>
</trkpt>
<trkpt lat="-27.2737709" lon="151.2899045">
  <ele>343.72</ele>
  <time>2026-09-01T19:57:43Z</time>
  <course>106.56</course>
  <speed>0.022360679774997897</speed>
  <fix>3d</fix>
</trkpt>
<trkpt lat="-27.2737711" lon="151.2899041">
  <ele>344.03</ele>
  <time>2026-09-01T19:57:43Z</time>
  <course>298.68</course>
  <speed>0.0</speed>
  <fix>3d</fix>
</trkpt>
<trkpt lat="-27.2737709" lon="151.2899045">
  <ele>343.67</ele>
  <time>2026-09-01T19:57:43Z</time>
  <course>106.55</course>
  <speed>0.022360679774997897</speed>
  <fix>3d</fix>
</trkpt>
<trkpt lat="-27.2737711" lon="151.2899041">
  <ele>344.03</ele>
  <time>2026-09-01T19:57:43Z</time>
  <course>298.68</course>
  <speed>0.0</speed>
  <fix>3d</fix>
</trkpt>
<trkpt lat="-27.2737709" lon="151.2899044">
  <ele>343.62</ele>
  <time>2026-09-01T19:57:43Z</time>
  <course>106.55</course>
  <speed>0.022360679774997897</speed>
  <fix>3d</fix>
</trkpt>
<trkpt lat="-27.2737711" lon="151.2899041">
  <ele>343.94</ele>
  <time>2026-09-01T19:57:43Z</time>
  <course>300.5</course>
  <speed>0.0</speed>
  <fix>3d</fix>
</trkpt>
<trkpt lat="-27.2737709" lon="151.2899044">
  <ele>343.57</ele>
  <time>2026-09-01T19:57:43Z</time>
  <course>106.54</course>
  <speed>0.022360679774997897</speed>
  <fix>3d</fix>
</trkpt>
<trkpt lat="-27.2737711" lon="151.2899041">
  <ele>343.94</ele>
  <time>2026-09-01T19:57:43Z</time>
  <course>300.5</course>
  <speed>0.0</speed>
  <fix>3d</fix>
</trkpt>
<trkpt lat="-27.2737709" lon="151.2899044">
  <ele>343.52</ele>
  <time>2026-09-01T19:57:43Z</time>
  <course>106.54</course>
  <speed>0.022360679774997897</speed>
  <fix>3d</fix>
</trkpt>
<trkpt lat="-27.2737711" lon="151.2899041">
  <ele>343.84</ele>
  <time>2026-09-01T19:57:43Z</time>
  <course>302.72</course>
  <speed>0.0</speed>
  <fix>3d</fix>
</trkpt>
<trkpt lat="-27.2737709" lon="151.2899044">
  <ele>343.47</ele>
  <time>2026-09-01T19:57:43Z</time>
  <course>106.53</course>
  <speed>0.022360679774997897</speed>
  <fix>3d</fix>
</trkpt>
<trkpt lat="-27.2737711" lon="151.2899041">
  <ele>343.84</ele>
  <time>2026-09-01T19:57:43Z</time>
  <course>302.72</course>
  <speed>0.0</speed>
  <fix>3d</fix>
</trkpt>
<trkpt lat="-27.2737709" lon="151.2899044">
  <ele>343.42</ele>
  <time>2026-09-01T19:57:43Z</time>
  <course>106.53</course>
  <speed>0.022360679774997897</speed>
  <fix>3d</fix>
</trkpt>
<trkpt lat="-27.2737711" lon="151.2899041">
  <ele>343.74</ele>
  <time>2026-09-01T19:57:43Z</time>
  <course>304.96</course>
  <speed>0.0</speed>
  <fix>3d</fix>
</trkpt>
<trkpt lat="-27.2737709" lon="151.2899044">
  <ele>343.37</ele>
  <time>2026-09-01T19:57:43Z</time>
  <course>106.53</course>
  <speed>0.022360679774997897</speed>
  <fix>3d</fix>
</trkpt>
<trkpt lat="-27.2737711" lon="151.2899041">
  <ele>343.74</ele>
  <time>2026-09-01T19:57:43Z</time>
  <course>304.96</course>
  <speed>0.0</speed>
  <fix>3d</fix>
</trkpt>
<trkpt lat="-27.2737709" lon="151.2899044">
  <ele>343.32</ele>
  <time>2026-09-01T19:57:43Z</time>
  <course>106.53</course>
  <speed>0.022360679774997897</speed>
  <fix>3d</fix>
</trkpt>
<trkpt lat="-27.2737711" lon="151.289904">
  <ele>343.64</ele>
  <time>2026-09-01T19:57:43Z</time>
  <course>307.08</course>
  <speed>0.0</speed>
  <fix>3d</fix>
</trkpt>
<trkpt lat="-27.2737709" lon="151.2899044">
  <ele>343.27</ele>
  <time>2026-09-01T19:57:43Z</time>
  <course>106.53</course>
  <speed>0.022360679774997897</speed>
  <fix>3d</fix>
</trkpt>
<trkpt lat="-27.2737711" lon="151.289904">
  <ele>343.64</ele>
  <time>2026-09-01T19:57:43Z</time>
  <course>307.08</course>
  <speed>0.0</speed>
  <fix>3d</fix>
</trkpt>
<trkpt lat="-27.2737709" lon="151.2899044">
  <ele>343.22</ele>
  <time>2026-09-01T19:57:43Z</time>
  <course>106.54</course>
  <speed>0.022360679774997897</speed>
  <fix>3d</fix>
</trkpt>
<trkpt lat="-27.2737711" lon="151.289904">
  <ele>343.53</ele>
  <time>2026-09-01T19:57:43Z</time>
  <course>310.0</course>
  <speed>0.0</speed>
  <fix>3d</fix>
</trkpt>
<trkpt lat="-27.2737709" lon="151.2899044">
  <ele>343.17</ele>
  <time>2026-09-01T19:57:43Z</time>
  <course>106.55</course>
  <speed>0.022360679774997897</speed>
  <fix>3d</fix>
</trkpt>
<trkpt lat="-27.2737711" lon="151.289904">
  <ele>343.53</ele>
  <time>2026-09-01T19:57:43Z</time>
  <course>310.0</course>
  <speed>0.0</speed>
  <fix>3d</fix>
</trkpt>
<trkpt lat="-27.2737709" lon="151.2899044">
  <ele>343.12</ele>
  <time>2026-09-01T19:57:43Z</time>
  <course>106.55</course>
  <speed>0.02</speed>
  <fix>3d</fix>
</trkpt>
<trkpt lat="-27.2737711" lon="151.289904">
  <ele>343.43</ele>
  <time>2026-09-01T19:57:43Z</time>
  <course>308.32</course>
  <speed>0.0</speed>
  <fix>3d</fix>
</trkpt>
<trkpt lat="-27.2737709" lon="151.2899044">
  <ele>343.07</ele>
  <time>2026-09-01T19:57:43Z</time>
  <course>106.54</course>
  <speed>0.02</speed>
  <fix>3d</fix>
</trkpt>
<trkpt lat="-27.2737711" lon="151.289904">
  <ele>343.43</ele>
  <time>2026-09-01T19:57:43Z</time>
  <course>308.32</course>
  <speed>0.0</speed>
  <fix>3d</fix>
</trkpt>
<trkpt lat="-27.2737709" lon="151.2899044">
  <ele>343.02</ele>
  <time>2026-09-01T19:57:43Z</time>
  <course>106.51</course>
  <speed>0.02</speed>
  <fix>3d</fix>
</trkpt>
<trkpt lat="-27.2737711" lon="151.289904">
  <ele>343.33</ele>
  <time>2026-09-01T19:57:43Z</time>
  <course>288.48</course>
  <speed>0.0</speed>
  <fix>3d</fix>
</trkpt>
<trkpt lat="-27.2737709" lon="151.2899044">
  <ele>342.97</ele>
  <time>2026-09-01T19:57:43Z</time>
  <course>106.46</course>
  <speed>0.02</speed>
  <fix>3d</fix>
</trkpt>
<trkpt lat="-27.2737711" lon="151.289904">
  <ele>343.33</ele>
  <time>2026-09-01T19:57:43Z</time>
  <course>288.48</course>
  <speed>0.0</speed>
  <fix>3d</fix>
</trkpt>
<trkpt lat="-27.273771" lon="151.2899044">
  <ele>342.92</ele>
  <time>2026-09-01T19:57:43Z</time>
  <course>106.41</course>
  <speed>0.02</speed>
  <fix>3d</fix>
</trkpt>
<trkpt lat="-27.2737711" lon="151.289904">
  <ele>343.22</ele>
  <time>2026-09-01T19:57:43Z</time>
  <course>245.24</course>
  <speed>0.0</speed>
  <fix>3d</fix>
</trkpt>
<trkpt lat="-27.273771" lon="151.2899044">
  <ele>342.86</ele>
  <time>2026-09-01T19:57:43Z</time>
  <course>106.36</course>
  <speed>0.02</speed>
  <fix>3d</fix>
</trkpt>
<trkpt lat="-27.2737711" lon="151.289904">
  <ele>343.22</ele>
  <time>2026-09-01T19:57:43Z</time>
  <course>245.24</course>
  <speed>0.0</speed>
  <fix>3d</fix>
</trkpt>
<trkpt lat="-27.273771" lon="151.2899044">
  <ele>342.84</ele>
  <time>2026-09-01T19:57:43Z</time>
  <course>106.36</course>
  <speed>0.03</speed>
  <fix>3d</fix>
</trkpt>
<trkpt lat="-27.2737711" lon="151.289904">
  <ele>343.13</ele>
  <time>2026-09-01T19:57:43Z</time>
  <course>219.02</course>
  <speed>0.0</speed>
  <fix>3d</fix>
</trkpt>
<trkpt lat="-27.273771" lon="151.2899044">
  <ele>342.84</ele>
  <time>2026-09-01T19:57:43Z</time>
  <course>106.36</course>
  <speed>0.0316227766016838</speed>
  <fix>3d</fix>
</trkpt>
<trkpt lat="-27.2737711" lon="151.289904">
  <ele>343.13</ele>
  <time>2026-09-01T19:57:43Z</time>
  <course>219.02</course>
  <speed>0.0</speed>
  <fix>3d</fix>
</trkpt>
<trkpt lat="-27.273771" lon="151.2899044">
  <ele>342.85</ele>
  <time>2026-09-01T19:57:43Z</time>
  <course>106.36</course>
  <speed>0.0316227766016838</speed>
  <fix>3d</fix>
</trkpt>
<trkpt lat="-27.2737711" lon="151.289904">
  <ele>343.07</ele>
  <time>2026-09-01T19:57:43Z</time>
  <course>213.53</course>
  <speed>0.0</speed>
  <fix>3d</fix>
</trkpt>
<trkpt lat="-27.273771" lon="151.2899044">
  <ele>342.86</ele>
  <time>2026-09-01T19:57:43Z</time>
  <course>106.36</course>
  <speed>0.03</speed>
  <fix>3d</fix>
</trkpt>
<trkpt lat="-27.2737711" lon="151.289904">
  <ele>343.07</ele>
  <time>2026-09-01T19:57:43Z</time>
  <course>213.53</course>
  <speed>0.0</speed>
  <fix>3d</fix>
</trkpt>
<trkpt lat="-27.273771" lon="151.2899043">
  <ele>342.86</ele>
  <time>2026-09-01T19:57:43Z</time>
  <course>106.36</course>
  <speed>0.03</speed>
  <fix>3d</fix>
</trkpt>
<trkpt lat="-27.2737711" lon="151.289904">
  <ele>343.07</ele>
  <time>2026-09-01T19:57:43Z</time>
  <course>33.23</course>
  <speed>0.0</speed>
  <fix>3d</fix>
</trkpt>
<trkpt lat="-27.273771" lon="151.2899043">
  <ele>342.85</ele>
  <time>2026-09-01T19:57:43Z</time>
  <course>106.36</course>
  <speed>0.03</speed>
  <fix>3d</fix>
</trkpt>
<trkpt lat="-27.2737711" lon="151.289904">
  <ele>343.07</ele>
  <time>2026-09-01T19:57:43Z</time>
  <course>33.23</course>
  <speed>0.0</speed>
  <fix>3d</fix>
</trkpt>
<trkpt lat="-27.273771" lon="151.2899043">
  <ele>342.85</ele>
  <time>2026-09-01T19:57:43Z</time>
  <course>106.36</course>
  <speed>0.03</speed>
  <fix>3d</fix>
</trkpt>
<trkpt lat="-27.2737711" lon="151.289904">
  <ele>343.08</ele>
  <time>2026-09-01T19:57:43Z</time>
  <course>33.26</course>
  <speed>0.0</speed>
  <fix>3d</fix>
</trkpt>
<trkpt lat="-27.273771" lon="151.2899043">
  <ele>342.85</ele>
  <time>2026-09-01T19:57:43Z</time>
  <course>106.36</course>
  <speed>0.03</speed>
  <fix>3d</fix>
</trkpt>
<trkpt lat="-27.2737711" lon="151.289904">
  <ele>343.08</ele>
  <time>2026-09-01T19:57:43Z</time>
  <course>33.26</course>
  <speed>0.0</speed>
  <fix>3d</fix>
</trkpt>
<trkpt lat="-27.273771" lon="151.2899043">
  <ele>342.85</ele>
  <time>2026-09-01T19:57:43Z</time>
  <course>106.36</course>
  <speed>0.03</speed>
  <fix>3d</fix>
</trkpt>
<trkpt lat="-27.2737711" lon="151.289904">
  <ele>343.08</ele>
  <time>2026-09-01T19:57:43Z</time>
  <course>213.24</course>
  <speed>0.0</speed>
  <fix>3d</fix>
</trkpt>
<trkpt lat="-27.273771" lon="151.2899043">
  <ele>342.85</ele>
  <time>2026-09-01T19:57:43Z</time>
  <course>106.36</course>
  <speed>0.03</speed>
  <fix>3d</fix>
</trkpt>
<trkpt lat="-27.2737711" lon="151.289904">
  <ele>343.08</ele>
  <time>2026-09-01T19:57:43Z</time>
  <course>213.24</course>
  <speed>0.0</speed>
  <fix>3d</fix>
</trkpt>
<trkpt lat="-27.273771" lon="151.2899043">
  <ele>342.85</ele>
  <time>2026-09-01T19:57:43Z</time>
  <course>106.36</course>
  <speed>0.03</speed>
  <fix>3d</fix>
</trkpt>
<trkpt lat="-27.2737711" lon="151.289904">
  <ele>343.08</ele>
  <time>2026-09-01T19:57:43Z</time>
  <course>213.87</course>
  <speed>0.0</speed>
  <fix>3d</fix>
</trkpt>
<trkpt lat="-27.273771" lon="151.2899043">
  <ele>342.85</ele>
  <time>2026-09-01T19:57:43Z</time>
  <course>106.36</course>
  <speed>0.03</speed>
  <fix>3d</fix>
</trkpt>
<trkpt lat="-27.2737711" lon="151.289904">
  <ele>343.08</ele>
  <time>2026-09-01T19:57:43Z</time>
  <course>213.87</course>
  <speed>0.0</speed>
  <fix>3d</fix>
</trkpt>
<trkpt lat="-27.273771" lon="151.2899043">
  <ele>342.85</ele>
  <time>2026-09-01T19:57:43Z</time>
  <course>106.36</course>
  <speed>0.03</speed>
  <fix>3d</fix>
</trkpt>
<trkpt lat="-27.2737711" lon="151.289904">
  <ele>343.08</ele>
  <time>2026-09-01T19:57:43Z</time>
  <course>33.14</course>
  <speed>0.0</speed>
  <fix>3d</fix>
</trkpt>
<trkpt lat="-27.273771" lon="151.2899043">
  <ele>342.85</ele>
  <time>2026-09-01T19:57:43Z</time>
  <course>106.36</course>
  <speed>0.03</speed>
  <fix>3d</fix>
</trkpt>
<trkpt lat="-27.2737711" lon="151.289904">
  <ele>343.08</ele>
  <time>2026-09-01T19:57:43Z</time>
  <course>33.14</course>
  <speed>0.0</speed>
  <fix>3d</fix>
</trkpt>
<trkpt lat="-27.273771" lon="151.2899043">
  <ele>342.85</ele>
  <time>2026-09-01T19:57:43Z</time>
  <course>106.36</course>
  <speed>0.03</speed>
  <fix>3d</fix>
</trkpt>
<trkpt lat="-27.2737711" lon="151.289904">
  <ele>343.08</ele>
  <time>2026-09-01T19:57:43Z</time>
  <course>214.06</course>
  <speed>0.0</speed>
  <fix>3d</fix>
</trkpt>
<trkpt lat="-27.273771" lon="151.2899043">
  <ele>342.85</ele>
  <time>2026-09-01T19:57:43Z</time>
  <course>106.36</course>
  <speed>0.0316227766016838</speed>
  <fix>3d</fix>
</trkpt>
<trkpt lat="-27.2737711" lon="151.289904">
  <ele>343.08</ele>
  <time>2026-09-01T19:57:43Z</time>
  <course>214.06</course>
  <speed>0.0</speed>
  <fix>3d</fix>
</trkpt>
<trkpt lat="-27.273771" lon="151.2899043">
  <ele>342.85</ele>
  <time>2026-09-01T19:57:43Z</time>
  <course>106.36</course>
  <speed>0.0316227766016838</speed>
  <fix>3d</fix>
</trkpt>
<trkpt lat="-27.2737711" lon="151.289904">
  <ele>343.08</ele>
  <time>2026-09-01T19:57:43Z</time>
  <course>213.63</course>
  <speed>0.0</speed>
  <fix>3d</fix>
</trkpt>
<trkpt lat="-27.273771" lon="151.2899043">
  <ele>342.86</ele>
  <time>2026-09-01T19:57:43Z</time>
  <course>106.36</course>
  <speed>0.0316227766016838</speed>
  <fix>3d</fix>
</trkpt>
<trkpt lat="-27.2737711" lon="151.289904">
  <ele>343.08</ele>
  <time>2026-09-01T19:57:43Z</time>
  <course>213.63</course>
  <speed>0.0</speed>
  <fix>3d</fix>
</trkpt>
<trkpt lat="-27.273771" lon="151.2899043">
  <ele>342.86</ele>
  <time>2026-09-01T19:57:43Z</time>
  <course>106.36</course>
  <speed>0.0316227766016838</speed>
  <fix>3d</fix>
</trkpt>
<trkpt lat="-27.2737711" lon="151.289904">
  <ele>343.08</ele>
  <time>2026-09-01T19:57:43Z</time>
  <course>31.32</course>
  <speed>0.0</speed>
  <fix>3d</fix>
</trkpt>
<trkpt lat="-27.273771" lon="151.2899043">
  <ele>342.86</ele>
  <time>2026-09-01T19:57:43Z</time>
  <course>106.36</course>
  <speed>0.0316227766016838</speed>
  <fix>3d</fix>
</trkpt>
<trkpt lat="-27.2737711" lon="151.289904">
  <ele>343.08</ele>
  <time>2026-09-01T19:57:43Z</time>
  <course>31.32</course>
  <speed>0.0</speed>
  <fix>3d</fix>
</trkpt>
<trkpt lat="-27.273771" lon="151.2899043">
  <ele>342.86</ele>
  <time>2026-09-01T19:57:43Z</time>
  <course>106.36</course>
  <speed>0.0316227766016838</speed>
  <fix>3d</fix>
</trkpt>
<trkpt lat="-27.2737711" lon="151.289904">
  <ele>343.08</ele>
  <time>2026-09-01T19:57:43Z</time>
  <course>28.18</course>
  <speed>0.0</speed>
  <fix>3d</fix>
</trkpt>
<trkpt lat="-27.273771" lon="151.2899043">
  <ele>342.86</ele>
  <time>2026-09-01T19:57:43Z</time>
  <course>106.36</course>
  <speed>0.0316227766016838</speed>
  <fix>3d</fix>
</trkpt>
<trkpt lat="-27.2737711" lon="151.289904">
  <ele>343.08</ele>
  <time>2026-09-01T19:57:43Z</time>
  <course>28.18</course>
  <speed>0.0</speed>
  <fix>3d</fix>
</trkpt>
<trkpt lat="-27.273771" lon="151.2899043">
  <ele>342.87</ele>
  <time>2026-09-01T19:57:43Z</time>
  <course>106.36</course>
  <speed>0.0316227766016838</speed>
  <fix>3d</fix>
</trkpt>
<trkpt lat="-27.2737711" lon="151.289904">
  <ele>343.08</ele>
  <time>2026-09-01T19:57:43Z</time>
  <course>239.54</course>
  <speed>0.0</speed>
  <fix>3d</fix>
</trkpt>
<trkpt lat="-27.273771" lon="151.2899043">
  <ele>342.87</ele>
  <time>2026-09-01T19:57:43Z</time>
  <course>106.36</course>
  <speed>0.0316227766016838</speed>
  <fix>3d</fix>
</trkpt>
<trkpt lat="-27.2737711" lon="151.289904">
  <ele>343.08</ele>
  <time>2026-09-01T19:57:43Z</time>
  <course>239.54</course>
  <speed>0.0</speed>
  <fix>3d</fix>
</trkpt>
<trkpt lat="-27.273771" lon="151.2899043">
  <ele>342.87</ele>
  <time>2026-09-01T19:57:43Z</time>
  <course>106.37</course>
  <speed>0.022360679774997897</speed>
  <fix>3d</fix>
</trkpt>
<trkpt lat="-27.2737711" lon="151.289904">
  <ele>343.08</ele>
  <time>2026-09-01T19:57:43Z</time>
  <course>241.94</course>
  <speed>0.0</speed>
  <fix>3d</fix>
</trkpt>
<trkpt lat="-27.273771" lon="151.2899043">
  <ele>342.87</ele>
  <time>2026-09-01T19:57:43Z</time>
  <course>106.37</course>
  <speed>0.0316227766016838</speed>
  <fix>3d</fix>
</trkpt>
<trkpt lat="-27.2737711" lon="151.289904">
  <ele>343.08</ele>
  <time>2026-09-01T19:57:43Z</time>
  <course>241.94</course>
  <speed>0.0</speed>
  <fix>3d</fix>
</trkpt>
<trkpt lat="-27.273771" lon="151.2899043">
  <ele>342.87</ele>
  <time>2026-09-01T19:57:43Z</time>
  <course>106.37</course>
  <speed>0.022360679774997897</speed>
  <fix>3d</fix>
</trkpt>
<trkpt lat="-27.2737711" lon="151.289904">
  <ele>343.08</ele>
  <time>2026-09-01T19:57:43Z</time>
  <course>206.93</course>
  <speed>0.0</speed>
  <fix>3d</fix>
</trkpt>
<trkpt lat="-27.273771" lon="151.2899043">
  <ele>342.88</ele>
  <time>2026-09-01T19:57:43Z</time>
  <course>106.37</course>
  <speed>0.0316227766016838</speed>
  <fix>3d</fix>
</trkpt>
<trkpt lat="-27.2737711" lon="151.289904">
  <ele>343.08</ele>
  <time>2026-09-01T19:57:43Z</time>
  <course>206.93</course>
  <speed>0.0</speed>
  <fix>3d</fix>
</trkpt>
<trkpt lat="-27.273771" lon="151.2899043">
  <ele>342.88</ele>
  <time>2026-09-01T19:57:43Z</time>
  <course>106.37</course>
  <speed>0.022360679774997897</speed>
  <fix>3d</fix>
</trkpt>
<trkpt lat="-27.2737711" lon="151.289904">
  <ele>343.08</ele>
  <time>2026-09-01T19:57:43Z</time>
  <course>206.47</course>
  <speed>0.0</speed>
  <fix>3d</fix>
</trkpt>
<trkpt lat="-27.273771" lon="151.2899043">
  <ele>342.88</ele>
  <time>2026-09-01T19:57:43Z</time>
  <course>106.37</course>
  <speed>0.0316227766016838</speed>
  <fix>3d</fix>
</trkpt>
<trkpt lat="-27.2737711" lon="151.289904">
  <ele>343.08</ele>
  <time>2026-09-01T19:57:43Z</time>
  <course>206.47</course>
  <speed>0.0</speed>
  <fix>3d</fix>
</trkpt>
<trkpt lat="-27.273771" lon="151.2899043">
  <ele>342.88</ele>
  <time>2026-09-01T19:57:43Z</time>
  <course>106.37</course>
  <speed>0.022360679774997897</speed>
  <fix>3d</fix>
</trkpt>
<trkpt lat="-27.2737711" lon="151.289904">
  <ele>343.08</ele>
  <time>2026-09-01T19:57:43Z</time>
  <course>269.65</course>
  <speed>0.0</speed>
  <fix>3d</fix>
</trkpt>
<trkpt lat="-27.273771" lon="151.2899043">
  <ele>342.88</ele>
  <time>2026-09-01T19:57:43Z</time>
  <course>106.37</course>
  <speed>0.0316227766016838</speed>
  <fix>3d</fix>
</trkpt>
<trkpt lat="-27.2737711" lon="151.289904">
  <ele>343.08</ele>
  <time>2026-09-01T19:57:43Z</time>
  <course>269.65</course>
  <speed>0.0</speed>
  <fix>3d</fix>
</trkpt>
<trkpt lat="-27.273771" lon="151.2899043">
  <ele>342.88</ele>
  <time>2026-09-01T19:57:43Z</time>
  <course>106.37</course>
  <speed>0.0316227766016838</speed>
  <fix>3d</fix>
</trkpt>
<trkpt lat="-27.2737711" lon="151.289904">
  <ele>343.08</ele>
  <time>2026-09-01T19:57:43Z</time>
  <course>15.92</course>
  <speed>0.0</speed>
  <fix>3d</fix>
</trkpt>
<trkpt lat="-27.273771" lon="151.2899043">
  <ele>342.88</ele>
  <time>2026-09-01T19:57:43Z</time>
  <course>106.37</course>
  <speed>0.0316227766016838</speed>
  <fix>3d</fix>
</trkpt>
<trkpt lat="-27.2737711" lon="151.289904">
  <ele>343.08</ele>
  <time>2026-09-01T19:57:43Z</time>
  <course>15.92</course>
  <speed>0.0</speed>
  <fix>3d</fix>
</trkpt>
<trkpt lat="-27.273771" lon="151.2899043">
  <ele>342.88</ele>
  <time>2026-09-01T19:57:43Z</time>
  <course>106.37</course>
  <speed>0.0316227766016838</speed>
  <fix>3d</fix>
</trkpt>
<trkpt lat="-27.2737711" lon="151.289904">
  <ele>343.08</ele>
  <time>2026-09-01T19:57:43Z</time>
  <course>16.41</course>
  <speed>0.0</speed>
  <fix>3d</fix>
</trkpt>
<trkpt lat="-27.273771" lon="151.2899043">
  <ele>342.89</ele>
  <time>2026-09-01T19:57:43Z</time>
  <course>106.37</course>
  <speed>0.0316227766016838</speed>
  <fix>3d</fix>
</trkpt>
<trkpt lat="-27.2737711" lon="151.289904">
  <ele>343.08</ele>
  <time>2026-09-01T19:57:43Z</time>
  <course>16.41</course>
  <speed>0.0</speed>
  <fix>3d</fix>
</trkpt>
<trkpt lat="-27.273771" lon="151.2899043">
  <ele>342.89</ele>
  <time>2026-09-01T19:57:43Z</time>
  <course>106.37</course>
  <speed>0.0316227766016838</speed>
  <fix>3d</fix>
</trkpt>
<trkpt lat="-27.2737711" lon="151.289904">
  <ele>343.08</ele>
  <time>2026-09-01T19:57:43Z</time>
  <course>315.04</course>
  <speed>0.0</speed>
  <fix>3d</fix>
</trkpt>
<trkpt lat="-27.273771" lon="151.2899043">
  <ele>342.89</ele>
  <time>2026-09-01T19:57:43Z</time>
  <course>106.37</course>
  <speed>0.0316227766016838</speed>
  <fix>3d</fix>
</trkpt>
<trkpt lat="-27.2737711" lon="151.289904">
  <ele>343.08</ele>
  <time>2026-09-01T19:57:43Z</time>
  <course>315.04</course>
  <speed>0.0</speed>
  <fix>3d</fix>
</trkpt>
<trkpt lat="-27.273771" lon="151.2899043">
  <ele>342.89</ele>
  <time>2026-09-01T19:57:43Z</time>
  <course>106.37</course>
  <speed>0.0316227766016838</speed>
  <fix>3d</fix>
</trkpt>
<trkpt lat="-27.2737711" lon="151.289904">
  <ele>343.08</ele>
  <time>2026-09-01T19:57:43Z</time>
  <course>22.18</course>
  <speed>0.0</speed>
  <fix>3d</fix>
</trkpt>
<trkpt lat="-27.273771" lon="151.2899043">
  <ele>342.89</ele>
  <time>2026-09-01T19:57:43Z</time>
  <course>106.37</course>
  <speed>0.0316227766016838</speed>
  <fix>3d</fix>
</trkpt>
<trkpt lat="-27.2737711" lon="151.289904">
  <ele>343.08</ele>
  <time>2026-09-01T19:57:43Z</time>
  <course>22.18</course>
  <speed>0.0</speed>
  <fix>3d</fix>
</trkpt>
<trkpt lat="-27.273771" lon="151.2899043">
  <ele>342.89</ele>
  <time>2026-09-01T19:57:43Z</time>
  <course>106.37</course>
  <speed>0.0316227766016838</speed>
  <fix>3d</fix>
</trkpt>
<trkpt lat="-27.2737711" lon="151.289904">
  <ele>343.08</ele>
  <time>2026-09-01T19:57:43Z</time>
  <course>19.71</course>
  <speed>0.0</speed>
  <fix>3d</fix>
</trkpt>
<trkpt lat="-27.273771" lon="151.2899043">
  <ele>342.89</ele>
  <time>2026-09-01T19:57:43Z</time>
  <course>106.37</course>
  <speed>0.0316227766016838</speed>
  <fix>3d</fix>
</trkpt>
<trkpt lat="-27.2737711" lon="151.289904">
  <ele>343.08</ele>
  <time>2026-09-01T19:57:43Z</time>
  <course>19.71</course>
  <speed>0.0</speed>
  <fix>3d</fix>
</trkpt>
<trkpt lat="-27.273771" lon="151.2899043">
  <ele>342.89</ele>
  <time>2026-09-01T19:57:43Z</time>
  <course>106.37</course>
  <speed>0.0316227766016838</speed>
  <fix>3d</fix>
</trkpt>
<trkpt lat="-27.2737711" lon="151.289904">
  <ele>343.08</ele>
  <time>2026-09-01T19:57:43Z</time>
  <course>318.39</course>
  <speed>0.0</speed>
  <fix>3d</fix>
</trkpt>
<trkpt lat="-27.273771" lon="151.2899043">
  <ele>342.89</ele>
  <time>2026-09-01T19:57:43Z</time>
  <course>106.37</course>
  <speed>0.0316227766016838</speed>
  <fix>3d</fix>
</trkpt>
<trkpt lat="-27.2737711" lon="151.289904">
  <ele>343.08</ele>
  <time>2026-09-01T19:57:43Z</time>
  <course>318.39</course>
  <speed>0.0</speed>
  <fix>3d</fix>
</trkpt>
<trkpt lat="-27.273771" lon="151.2899043">
  <ele>342.89</ele>
  <time>2026-09-01T19:57:43Z</time>
  <course>106.37</course>
  <speed>0.0316227766016838</speed>
  <fix>3d</fix>
</trkpt>
<trkpt lat="-27.2737711" lon="151.289904">
  <ele>343.08</ele>
  <time>2026-09-01T19:57:43Z</time>
  <course>26.16</course>
  <speed>0.0</speed>
  <fix>3d</fix>
</trkpt>
<trkpt lat="-27.273771" lon="151.2899043">
  <ele>342.89</ele>
  <time>2026-09-01T19:57:43Z</time>
  <course>106.37</course>
  <speed>0.0316227766016838</speed>
  <fix>3d</fix>
</trkpt>
<trkpt lat="-27.2737711" lon="151.289904">
  <ele>343.08</ele>
  <time>2026-09-01T19:57:43Z</time>
  <course>26.16</course>
  <speed>0.0</speed>
  <fix>3d</fix>
</trkpt>
<trkpt lat="-27.273771" lon="151.2899043">
  <ele>342.89</ele>
  <time>2026-09-01T19:57:43Z</time>
  <course>106.37</course>
  <speed>0.0316227766016838</speed>
  <fix>3d</fix>
</trkpt>
<trkpt lat="-27.2737711" lon="151.289904">
  <ele>343.08</ele>
  <time>2026-09-01T19:57:43Z</time>
  <course>10.12</course>
  <speed>0.0</speed>
  <fix>3d</fix>
</trkpt>
<trkpt lat="-27.273771" lon="151.2899043">
  <ele>342.89</ele>
  <time>2026-09-01T19:57:43Z</time>
  <course>106.37</course>
  <speed>0.0316227766016838</speed>
  <fix>3d</fix>
</trkpt>
<trkpt lat="-27.2737711" lon="151.289904">
  <ele>343.08</ele>
  <time>2026-09-01T19:57:43Z</time>
  <course>10.12</course>
  <speed>0.0</speed>
  <fix>3d</fix>
</trkpt>
<trkpt lat="-27.273771" lon="151.2899043">
  <ele>342.89</ele>
  <time>2026-09-01T19:57:43Z</time>
  <course>106.37</course>
  <speed>0.0316227766016838</speed>
  <fix>3d</fix>
</trkpt>
<trkpt lat="-27.2737711" lon="151.289904">
  <ele>343.08</ele>
  <time>2026-09-01T19:57:43Z</time>
  <course>329.72</course>
  <speed>0.0</speed>
  <fix>3d</fix>
</trkpt>
<trkpt lat="-27.273771" lon="151.2899043">
  <ele>342.89</ele>
  <time>2026-09-01T19:57:43Z</time>
  <course>106.37</course>
  <speed>0.0316227766016838</speed>
  <fix>3d</fix>
</trkpt>
<trkpt lat="-27.2737711" lon="151.289904">
  <ele>343.08</ele>
  <time>2026-09-01T19:57:43Z</time>
  <course>329.72</course>
  <speed>0.0</speed>
  <fix>3d</fix>
</trkpt>
<trkpt lat="-27.273771" lon="151.2899043">
  <ele>342.89</ele>
  <time>2026-09-01T19:57:43Z</time>
  <course>106.37</course>
  <speed>0.022360679774997897</speed>
  <fix>3d</fix>
</trkpt>
<trkpt lat="-27.2737711" lon="151.289904">
  <ele>343.08</ele>
  <time>2026-09-01T19:57:43Z</time>
  <course>14.21</course>
  <speed>0.0</speed>
  <fix>3d</fix>
</trkpt>
<trkpt lat="-27.273771" lon="151.2899043">
  <ele>342.89</ele>
  <time>2026-09-01T19:57:43Z</time>
  <course>106.37</course>
  <speed>0.0316227766016838</speed>
  <fix>3d</fix>
</trkpt>
<trkpt lat="-27.2737711" lon="151.289904">
  <ele>343.08</ele>
  <time>2026-09-01T19:57:43Z</time>
  <course>14.21</course>
  <speed>0.0</speed>
  <fix>3d</fix>
</trkpt>
<trkpt lat="-27.273771" lon="151.2899043">
  <ele>342.89</ele>
  <time>2026-09-01T19:57:43Z</time>
  <course>106.37</course>
  <speed>0.0316227766016838</speed>
  <fix>3d</fix>
</trkpt>
<trkpt lat="-27.2737711" lon="151.289904">
  <ele>343.08</ele>
  <time>2026-09-01T19:57:43Z</time>
  <course>0.21</course>
  <speed>0.0</speed>
  <fix>3d</fix>
</trkpt>
<trkpt lat="-27.273771" lon="151.2899043">
  <ele>342.89</ele>
  <time>2026-09-01T19:57:43Z</time>
  <course>106.37</course>
  <speed>0.0316227766016838</speed>
  <fix>3d</fix>
</trkpt>
<trkpt lat="-27.2737711" lon="151.289904">
  <ele>343.08</ele>
  <time>2026-09-01T19:57:43Z</time>
  <course>0.21</course>
  <speed>0.0</speed>
  <fix>3d</fix>
</trkpt>
<trkpt lat="-27.273771" lon="151.2899043">
  <ele>342.89</ele>
  <time>2026-09-01T19:57:43Z</time>
  <course>106.37</course>
  <speed>0.0316227766016838</speed>
  <fix>3d</fix>
</trkpt>
<trkpt lat="-27.2737711" lon="151.289904">
  <ele>343.08</ele>
  <time>2026-09-01T19:57:43Z</time>
  <course>347.17</course>
  <speed>0.0</speed>
  <fix>3d</fix>
</trkpt>
<trkpt lat="-27.273771" lon="151.2899043">
  <ele>342.89</ele>
  <time>2026-09-01T19:57:43Z</time>
  <course>106.37</course>
  <speed>0.0316227766016838</speed>
  <fix>3d</fix>
</trkpt>
<trkpt lat="-27.2737711" lon="151.289904">
  <ele>343.08</ele>
  <time>2026-09-01T19:57:43Z</time>
  <course>347.17</course>
  <speed>0.0</speed>
  <fix>3d</fix>
</trkpt>
<trkpt lat="-27.273771" lon="151.2899043">
  <ele>342.89</ele>
  <time>2026-09-01T19:57:43Z</time>
  <course>106.38</course>
  <speed>0.0316227766016838</speed>
  <fix>3d</fix>
</trkpt>
<trkpt lat="-27.2737711" lon="151.289904">
  <ele>343.08</ele>
  <time>2026-09-01T19:57:43Z</time>
  <course>7.92</course>
  <speed>0.0</speed>
  <fix>3d</fix>
</trkpt>
<trkpt lat="-27.273771" lon="151.2899043">
  <ele>342.89</ele>
  <time>2026-09-01T19:57:43Z</time>
  <course>106.38</course>
  <speed>0.0316227766016838</speed>
  <fix>3d</fix>
</trkpt>
<trkpt lat="-27.2737711" lon="151.289904">
  <ele>343.08</ele>
  <time>2026-09-01T19:57:43Z</time>
  <course>7.92</course>
  <speed>0.0</speed>
  <fix>3d</fix>
</trkpt>
<trkpt lat="-27.273771" lon="151.2899043">
  <ele>342.89</ele>
  <time>2026-09-01T19:57:43Z</time>
  <course>106.38</course>
  <speed>0.0316227766016838</speed>
  <fix>3d</fix>
</trkpt>
<trkpt lat="-27.2737711" lon="151.289904">
  <ele>343.08</ele>
  <time>2026-09-01T19:57:43Z</time>
  <course>15.6</course>
  <speed>0.0</speed>
  <fix>3d</fix>
</trkpt>
<trkpt lat="-27.273771" lon="151.2899043">
  <ele>342.89</ele>
  <time>2026-09-01T19:57:43Z</time>
  <course>106.38</course>
  <speed>0.0316227766016838</speed>
  <fix>3d</fix>
</trkpt>
<trkpt lat="-27.2737711" lon="151.289904">
  <ele>343.08</ele>
  <time>2026-09-01T19:57:43Z</time>
  <course>15.6</course>
  <speed>0.0</speed>
  <fix>3d</fix>
</trkpt>
<trkpt lat="-27.273771" lon="151.2899043">
  <ele>342.89</ele>
  <time>2026-09-01T19:57:43Z</time>
  <course>106.38</course>
  <speed>0.0316227766016838</speed>
  <fix>3d</fix>
</trkpt>
<trkpt lat="-27.2737711" lon="151.289904">
  <ele>343.08</ele>
  <time>2026-09-01T19:57:43Z</time>
  <course>338.14</course>
  <speed>0.0</speed>
  <fix>3d</fix>
</trkpt>
<trkpt lat="-27.273771" lon="151.2899043">
  <ele>342.89</ele>
  <time>2026-09-01T19:57:43Z</time>
  <course>106.38</course>
  <speed>0.0316227766016838</speed>
  <fix>3d</fix>
</trkpt>
<trkpt lat="-27.2737711" lon="151.289904">
  <ele>343.08</ele>
  <time>2026-09-01T19:57:43Z</time>
  <course>338.14</course>
  <speed>0.0</speed>
  <fix>3d</fix>
</trkpt>
<trkpt lat="-27.273771" lon="151.2899043">
  <ele>342.89</ele>
  <time>2026-09-01T19:57:43Z</time>
  <course>106.38</course>
  <speed>0.0316227766016838</speed>
  <fix>3d</fix>
</trkpt>
<trkpt lat="-27.2737711" lon="151.289904">
  <ele>343.08</ele>
  <time>2026-09-01T19:57:43Z</time>
  <course>350.05</course>
  <speed>0.0</speed>
  <fix>3d</fix>
</trkpt>
<trkpt lat="-27.273771" lon="151.2899043">
  <ele>342.89</ele>
  <time>2026-09-01T19:57:43Z</time>
  <course>106.38</course>
  <speed>0.0316227766016838</speed>
  <fix>3d</fix>
</trkpt>
<trkpt lat="-27.2737711" lon="151.289904">
  <ele>343.08</ele>
  <time>2026-09-01T19:57:43Z</time>
  <course>350.05</course>
  <speed>0.0</speed>
  <fix>3d</fix>
</trkpt>
<trkpt lat="-27.273771" lon="151.2899043">
  <ele>342.89</ele>
  <time>2026-09-01T19:57:43Z</time>
  <course>106.38</course>
  <speed>0.0316227766016838</speed>
  <fix>3d</fix>
</trkpt>
<trkpt lat="-27.2737711" lon="151.289904">
  <ele>343.08</ele>
  <time>2026-09-01T19:57:43Z</time>
  <course>193.58</course>
  <speed>0.0</speed>
  <fix>3d</fix>
</trkpt>
<trkpt lat="-27.273771" lon="151.2899043">
  <ele>342.89</ele>
  <time>2026-09-01T19:57:43Z</time>
  <course>106.38</course>
  <speed>0.0316227766016838</speed>
  <fix>3d</fix>
</trkpt>
<trkpt lat="-27.2737711" lon="151.289904">
  <ele>343.08</ele>
  <time>2026-09-01T19:57:43Z</time>
  <course>193.58</course>
  <speed>0.0</speed>
  <fix>3d</fix>
</trkpt>
<trkpt lat="-27.273771" lon="151.2899043">
  <ele>342.89</ele>
  <time>2026-09-01T19:57:43Z</time>
  <course>106.38</course>
  <speed>0.0316227766016838</speed>
  <fix>3d</fix>
</trkpt>
<trkpt lat="-27.2737711" lon="151.289904">
  <ele>343.08</ele>
  <time>2026-09-01T19:57:43Z</time>
  <course>194.57</course>
  <speed>0.0</speed>
  <fix>3d</fix>
</trkpt>
<trkpt lat="-27.273771" lon="151.2899043">
  <ele>342.88</ele>
  <time>2026-09-01T19:57:43Z</time>
  <course>106.37</course>
  <speed>0.0316227766016838</speed>
  <fix>3d</fix>
</trkpt>
<trkpt lat="-27.2737711" lon="151.289904">
  <ele>343.08</ele>
  <time>2026-09-01T19:57:43Z</time>
  <course>194.57</course>
  <speed>0.0</speed>
  <fix>3d</fix>
</trkpt>
<trkpt lat="-27.273771" lon="151.2899043">
  <ele>342.88</ele>
  <time>2026-09-01T19:57:43Z</time>
  <course>106.37</course>
  <speed>0.0316227766016838</speed>
  <fix>3d</fix>
</trkpt>
<trkpt lat="-27.2737711" lon="151.289904">
  <ele>343.08</ele>
  <time>2026-09-01T19:57:43Z</time>
  <course>194.6</course>
  <speed>0.0</speed>
  <fix>3d</fix>
</trkpt>
<trkpt lat="-27.273771" lon="151.2899043">
  <ele>342.88</ele>
  <time>2026-09-01T19:57:43Z</time>
  <course>106.37</course>
  <speed>0.0316227766016838</speed>
  <fix>3d</fix>
</trkpt>
<trkpt lat="-27.2737711" lon="151.289904">
  <ele>343.08</ele>
  <time>2026-09-01T19:57:43Z</time>
  <course>194.6</course>
  <speed>0.0</speed>
  <fix>3d</fix>
</trkpt>
<trkpt lat="-27.273771" lon="151.2899043">
  <ele>342.88</ele>
  <time>2026-09-01T19:57:43Z</time>
  <course>106.37</course>
  <speed>0.0316227766016838</speed>
  <fix>3d</fix>
</trkpt>
<trkpt lat="-27.2737711" lon="151.289904">
  <ele>343.08</ele>
  <time>2026-09-01T19:57:43Z</time>
  <course>14.58</course>
  <speed>0.0</speed>
  <fix>3d</fix>
</trkpt>
<trkpt lat="-27.273771" lon="151.2899043">
  <ele>342.88</ele>
  <time>2026-09-01T19:57:44Z</time>
  <course>106.37</course>
  <speed>0.0316227766016838</speed>
  <fix>3d</fix>
</trkpt>
<trkpt lat="-27.2737711" lon="151.289904">
  <ele>343.08</ele>
  <time>2026-09-01T19:57:44Z</time>
  <course>14.58</course>
  <speed>0.0</speed>
  <fix>3d</fix>
</trkpt>
<trkpt lat="-27.273771" lon="151.2899043">
  <ele>343.07</ele>
  <time>2026-09-01T19:57:44Z</time>
  <course>106.37</course>
  <speed>0.022360679774997897</speed>
  <fix>3d</fix>
</trkpt>
<trkpt lat="-27.2737711" lon="151.289904">
  <ele>343.08</ele>
  <time>2026-09-01T19:57:44Z</time>
  <course>14.63</course>
  <speed>0.0</speed>
  <fix>3d</fix>
</trkpt>
<trkpt lat="-27.273771" lon="151.2899043">
  <ele>343.07</ele>
  <time>2026-09-01T19:57:44Z</time>
  <course>106.37</course>
  <speed>0.0316227766016838</speed>
  <fix>3d</fix>
</trkpt>
<trkpt lat="-27.2737711" lon="151.289904">
  <ele>343.08</ele>
  <time>2026-09-01T19:57:44Z</time>
  <course>14.63</course>
  <speed>0.0</speed>
  <fix>3d</fix>
</trkpt>
<trkpt lat="-27.273771" lon="151.2899043">
  <ele>343.08</ele>
  <time>2026-09-01T19:57:44Z</time>
  <course>106.37</course>
  <speed>0.022360679774997897</speed>
  <fix>3d</fix>
</trkpt>
<trkpt lat="-27.2737711" lon="151.289904">
  <ele>343.08</ele>
  <time>2026-09-01T19:57:44Z</time>
  <course>194.58</course>
  <speed>0.0</speed>
  <fix>3d</fix>
</trkpt>
<trkpt lat="-27.273771" lon="151.2899043">
  <ele>343.08</ele>
  <time>2026-09-01T19:57:44Z</time>
  <course>106.37</course>
  <speed>0.022360679774997897</speed>
  <fix>3d</fix>
</trkpt>
<trkpt lat="-27.2737711" lon="151.289904">
  <ele>343.08</ele>
  <time>2026-09-01T19:57:44Z</time>
  <course>194.58</course>
  <speed>0.0</speed>
  <fix>3d</fix>
</trkpt>
<trkpt lat="-27.273771" lon="151.2899043">
  <ele>343.09</ele>
  <time>2026-09-01T19:57:44Z</time>
  <course>106.37</course>
  <speed>0.022360679774997897</speed>
  <fix>3d</fix>
</trkpt>
<trkpt lat="-27.2737711" lon="151.289904">
  <ele>343.08</ele>
  <time>2026-09-01T19:57:44Z</time>
  <course>14.01</course>
  <speed>0.0</speed>
  <fix>3d</fix>
</trkpt>
<trkpt lat="-27.273771" lon="151.2899043">
  <ele>343.09</ele>
  <time>2026-09-01T19:57:44Z</time>
  <course>106.37</course>
  <speed>0.022360679774997897</speed>
  <fix>3d</fix>
</trkpt>
<trkpt lat="-27.2737711" lon="151.289904">
  <ele>343.08</ele>
  <time>2026-09-01T19:57:44Z</time>
  <course>14.01</course>
  <speed>0.0</speed>
  <fix>3d</fix>
</trkpt>
<trkpt lat="-27.273771" lon="151.2899043">
  <ele>343.09</ele>
  <time>2026-09-01T19:57:44Z</time>
  <course>106.37</course>
  <speed>0.022360679774997897</speed>
  <fix>3d</fix>
</trkpt>
<trkpt lat="-27.2737711" lon="151.289904">
  <ele>343.08</ele>
  <time>2026-09-01T19:57:44Z</time>
  <course>14.59</course>
  <speed>0.0</speed>
  <fix>3d</fix>
</trkpt>
<trkpt lat="-27.273771" lon="151.2899043">
  <ele>343.09</ele>
  <time>2026-09-01T19:57:44Z</time>
  <course>106.37</course>
  <speed>0.022360679774997897</speed>
  <fix>3d</fix>
</trkpt>
<trkpt lat="-27.2737711" lon="151.289904">
  <ele>343.08</ele>
  <time>2026-09-01T19:57:44Z</time>
  <course>14.59</course>
  <speed>0.0</speed>
  <fix>3d</fix>
</trkpt>
<trkpt lat="-27.273771" lon="151.2899043">
  <ele>343.09</ele>
  <time>2026-09-01T19:57:44Z</time>
  <course>106.37</course>
  <speed>0.022360679774997897</speed>
  <fix>3d</fix>
</trkpt>
<trkpt lat="-27.2737711" lon="151.289904">
  <ele>343.08</ele>
  <time>2026-09-01T19:57:44Z</time>
  <course>194.55</course>
  <speed>0.0</speed>
  <fix>3d</fix>
</trkpt>
<trkpt lat="-27.273771" lon="151.2899043">
  <ele>343.09</ele>
  <time>2026-09-01T19:57:44Z</time>
  <course>106.36</course>
  <speed>0.022360679774997897</speed>
  <fix>3d</fix>
</trkpt>
<trkpt lat="-27.2737711" lon="151.289904">
  <ele>343.08</ele>
  <time>2026-09-01T19:57:44Z</time>
  <course>194.55</course>
  <speed>0.0</speed>
  <fix>3d</fix>
</trkpt>
<trkpt lat="-27.273771" lon="151.2899043">
  <ele>343.09</ele>
  <time>2026-09-01T19:57:44Z</time>
  <course>106.36</course>
  <speed>0.022360679774997897</speed>
  <fix>3d</fix>
</trkpt>
<trkpt lat="-27.2737711" lon="151.289904">
  <ele>343.08</ele>
  <time>2026-09-01T19:57:44Z</time>
  <course>194.59</course>
  <speed>0.0</speed>
  <fix>3d</fix>
</trkpt>
<trkpt lat="-27.273771" lon="151.2899043">
  <ele>343.1</ele>
  <time>2026-09-01T19:57:44Z</time>
  <course>106.36</course>
  <speed>0.022360679774997897</speed>
  <fix>3d</fix>
</trkpt>
<trkpt lat="-27.2737711" lon="151.289904">
  <ele>343.08</ele>
  <time>2026-09-01T19:57:44Z</time>
  <course>194.59</course>
  <speed>0.0</speed>
  <fix>3d</fix>
</trkpt>
<trkpt lat="-27.273771" lon="151.2899043">
  <ele>343.1</ele>
  <time>2026-09-01T19:57:44Z</time>
  <course>106.36</course>
  <speed>0.022360679774997897</speed>
  <fix>3d</fix>
</trkpt>
<trkpt lat="-27.2737711" lon="151.289904">
  <ele>343.08</ele>
  <time>2026-09-01T19:57:44Z</time>
  <course>14.57</course>
  <speed>0.0</speed>
  <fix>3d</fix>
</trkpt>
<trkpt lat="-27.273771" lon="151.2899043">
  <ele>343.1</ele>
  <time>2026-09-01T19:57:44Z</time>
  <course>106.36</course>
  <speed>0.022360679774997897</speed>
  <fix>3d</fix>
</trkpt>
<trkpt lat="-27.2737711" lon="151.289904">
  <ele>343.08</ele>
  <time>2026-09-01T19:57:44Z</time>
  <course>14.57</course>
  <speed>0.0</speed>
  <fix>3d</fix>
</trkpt>
<trkpt lat="-27.273771" lon="151.2899043">
  <ele>343.1</ele>
  <time>2026-09-01T19:57:44Z</time>
  <course>106.36</course>
  <speed>0.022360679774997897</speed>
  <fix>3d</fix>
</trkpt>
<trkpt lat="-27.2737711" lon="151.289904">
  <ele>343.08</ele>
  <time>2026-09-01T19:57:44Z</time>
  <course>14.61</course>
  <speed>0.0</speed>
  <fix>3d</fix>
</trkpt>
<trkpt lat="-27.273771" lon="151.2899043">
  <ele>343.1</ele>
  <time>2026-09-01T19:57:44Z</time>
  <course>106.36</course>
  <speed>0.022360679774997897</speed>
  <fix>3d</fix>
</trkpt>
<trkpt lat="-27.2737711" lon="151.289904">
  <ele>343.08</ele>
  <time>2026-09-01T19:57:44Z</time>
  <course>14.61</course>
  <speed>0.0</speed>
  <fix>3d</fix>
</trkpt>
<trkpt lat="-27.273771" lon="151.2899043">
  <ele>343.11</ele>
  <time>2026-09-01T19:57:44Z</time>
  <course>106.36</course>
  <speed>0.022360679774997897</speed>
  <fix>3d</fix>
</trkpt>
<trkpt lat="-27.2737711" lon="151.289904">
  <ele>343.08</ele>
  <time>2026-09-01T19:57:44Z</time>
  <course>194.56</course>
  <speed>0.0</speed>
  <fix>3d</fix>
</trkpt>
<trkpt lat="-27.273771" lon="151.2899043">
  <ele>343.11</ele>
  <time>2026-09-01T19:57:44Z</time>
  <course>106.36</course>
  <speed>0.022360679774997897</speed>
  <fix>3d</fix>
</trkpt>
<trkpt lat="-27.2737711" lon="151.289904">
  <ele>343.08</ele>
  <time>2026-09-01T19:57:44Z</time>
  <course>194.56</course>
  <speed>0.0</speed>
  <fix>3d</fix>
</trkpt>
<trkpt lat="-27.273771" lon="151.2899043">
  <ele>343.11</ele>
  <time>2026-09-01T19:57:44Z</time>
  <course>106.36</course>
  <speed>0.022360679774997897</speed>
  <fix>3d</fix>
</trkpt>
<trkpt lat="-27.2737711" lon="151.289904">
  <ele>343.08</ele>
  <time>2026-09-01T19:57:44Z</time>
  <course>194.53</course>
  <speed>0.0</speed>
  <fix>3d</fix>
</trkpt>
<trkpt lat="-27.273771" lon="151.2899043">
  <ele>343.11</ele>
  <time>2026-09-01T19:57:44Z</time>
  <course>106.36</course>
  <speed>0.022360679774997897</speed>
  <fix>3d</fix>
</trkpt>
<trkpt lat="-27.2737711" lon="151.289904">
  <ele>343.08</ele>
  <time>2026-09-01T19:57:44Z</time>
  <course>194.53</course>
  <speed>0.0</speed>
  <fix>3d</fix>
</trkpt>
<trkpt lat="-27.273771" lon="151.2899043">
  <ele>343.11</ele>
  <time>2026-09-01T19:57:44Z</time>
  <course>106.36</course>
  <speed>0.022360679774997897</speed>
  <fix>3d</fix>
</trkpt>
<trkpt lat="-27.2737711" lon="151.289904">
  <ele>343.08</ele>
  <time>2026-09-01T19:57:44Z</time>
  <course>14.67</course>
  <speed>0.0</speed>
  <fix>3d</fix>
</trkpt>
<trkpt lat="-27.273771" lon="151.2899043">
  <ele>343.11</ele>
  <time>2026-09-01T19:57:44Z</time>
  <course>106.35</course>
  <speed>0.022360679774997897</speed>
  <fix>3d</fix>
</trkpt>
<trkpt lat="-27.2737711" lon="151.289904">
  <ele>343.08</ele>
  <time>2026-09-01T19:57:44Z</time>
  <course>14.67</course>
  <speed>0.0</speed>
  <fix>3d</fix>
</trkpt>
<trkpt lat="-27.273771" lon="151.2899043">
  <ele>343.12</ele>
  <time>2026-09-01T19:57:44Z</time>
  <course>106.35</course>
  <speed>0.022360679774997897</speed>
  <fix>3d</fix>
</trkpt>
<trkpt lat="-27.2737711" lon="151.289904">
  <ele>343.08</ele>
  <time>2026-09-01T19:57:44Z</time>
  <course>18.03</course>
  <speed>0.0</speed>
  <fix>3d</fix>
</trkpt>
<trkpt lat="-27.273771" lon="151.2899043">
  <ele>343.12</ele>
  <time>2026-09-01T19:57:44Z</time>
  <course>106.35</course>
  <speed>0.022360679774997897</speed>
  <fix>3d</fix>
</trkpt>
<trkpt lat="-27.2737711" lon="151.289904">
  <ele>343.08</ele>
  <time>2026-09-01T19:57:44Z</time>
  <course>18.03</course>
  <speed>0.0</speed>
  <fix>3d</fix>
</trkpt>
<trkpt lat="-27.273771" lon="151.2899043">
  <ele>343.12</ele>
  <time>2026-09-01T19:57:44Z</time>
  <course>106.35</course>
  <speed>0.022360679774997897</speed>
  <fix>3d</fix>
</trkpt>
<trkpt lat="-27.2737711" lon="151.289904">
  <ele>343.08</ele>
  <time>2026-09-01T19:57:44Z</time>
  <course>21.86</course>
  <speed>0.0</speed>
  <fix>3d</fix>
</trkpt>
<trkpt lat="-27.273771" lon="151.2899043">
  <ele>343.12</ele>
  <time>2026-09-01T19:57:44Z</time>
  <course>106.34</course>
  <speed>0.022360679774997897</speed>
  <fix>3d</fix>
</trkpt>
<trkpt lat="-27.2737711" lon="151.289904">
  <ele>343.08</ele>
  <time>2026-09-01T19:57:44Z</time>
  <course>172.39</course>
  <speed>0.0</speed>
  <fix>3d</fix>
</trkpt>
<trkpt lat="-27.273771" lon="151.2899043">
  <ele>343.12</ele>
  <time>2026-09-01T19:57:44Z</time>
  <course>106.34</course>
  <speed>0.022360679774997897</speed>
  <fix>3d</fix>
</trkpt>
<trkpt lat="-27.2737711" lon="151.289904">
  <ele>343.08</ele>
  <time>2026-09-01T19:57:44Z</time>
  <course>156.42</course>
  <speed>0.0</speed>
  <fix>3d</fix>
</trkpt>
<trkpt lat="-27.273771" lon="151.2899043">
  <ele>343.12</ele>
  <time>2026-09-01T19:57:44Z</time>
  <course>106.34</course>
  <speed>0.022360679774997897</speed>
  <fix>3d</fix>
</trkpt>
<trkpt lat="-27.2737711" lon="151.289904">
  <ele>343.08</ele>
  <time>2026-09-01T19:57:44Z</time>
  <course>156.42</course>
  <speed>0.0</speed>
  <fix>3d</fix>
</trkpt>
<trkpt lat="-27.273771" lon="151.2899043">
  <ele>343.12</ele>
  <time>2026-09-01T19:57:44Z</time>
  <course>106.34</course>
  <speed>0.022360679774997897</speed>
  <fix>3d</fix>
</trkpt>
<trkpt lat="-27.2737711" lon="151.289904">
  <ele>343.08</ele>
  <time>2026-09-01T19:57:44Z</time>
  <course>87.36</course>
  <speed>0.0</speed>
  <fix>3d</fix>
</trkpt>
<trkpt lat="-27.273771" lon="151.2899043">
  <ele>343.12</ele>
  <time>2026-09-01T19:57:44Z</time>
  <course>106.34</course>
  <speed>0.022360679774997897</speed>
  <fix>3d</fix>
</trkpt>
<trkpt lat="-27.2737711" lon="151.289904">
  <ele>343.08</ele>
  <time>2026-09-01T19:57:44Z</time>
  <course>87.36</course>
  <speed>0.0</speed>
  <fix>3d</fix>
</trkpt>
<trkpt lat="-27.273771" lon="151.2899043">
  <ele>343.11</ele>
  <time>2026-09-01T19:57:44Z</time>
  <course>106.34</course>
  <speed>0.022360679774997897</speed>
  <fix>3d</fix>
</trkpt>
<trkpt lat="-27.2737711" lon="151.289904">
  <ele>343.08</ele>
  <time>2026-09-01T19:57:44Z</time>
  <course>107.43</course>
  <speed>0.0</speed>
  <fix>3d</fix>
</trkpt>
<trkpt lat="-27.273771" lon="151.2899043">
  <ele>343.11</ele>
  <time>2026-09-01T19:57:44Z</time>
  <course>106.34</course>
  <speed>0.022360679774997897</speed>
  <fix>3d</fix>
</trkpt>
<trkpt lat="-27.2737711" lon="151.289904">
  <ele>343.08</ele>
  <time>2026-09-01T19:57:44Z</time>
  <course>107.43</course>
  <speed>0.0</speed>
  <fix>3d</fix>
</trkpt>
<trkpt lat="-27.273771" lon="151.2899043">
  <ele>343.11</ele>
  <time>2026-09-01T19:57:44Z</time>
  <course>106.34</course>
  <speed>0.022360679774997897</speed>
  <fix>3d</fix>
</trkpt>
<trkpt lat="-27.2737711" lon="151.289904">
  <ele>343.08</ele>
  <time>2026-09-01T19:57:44Z</time>
  <course>119.97</course>
  <speed>0.0</speed>
  <fix>3d</fix>
</trkpt>
<trkpt lat="-27.273771" lon="151.2899043">
  <ele>343.11</ele>
  <time>2026-09-01T19:57:44Z</time>
  <course>106.34</course>
  <speed>0.022360679774997897</speed>
  <fix>3d</fix>
</trkpt>
<trkpt lat="-27.2737711" lon="151.289904">
  <ele>343.08</ele>
  <time>2026-09-01T19:57:44Z</time>
  <course>119.97</course>
  <speed>0.0</speed>
  <fix>3d</fix>
</trkpt>
<trkpt lat="-27.273771" lon="151.2899043">
  <ele>343.11</ele>
  <time>2026-09-01T19:57:44Z</time>
  <course>106.33</course>
  <speed>0.022360679774997897</speed>
  <fix>3d</fix>
</trkpt>
<trkpt lat="-27.2737711" lon="151.289904">
  <ele>343.08</ele>
  <time>2026-09-01T19:57:44Z</time>
  <course>121.58</course>
  <speed>0.0</speed>
  <fix>3d</fix>
</trkpt>
<trkpt lat="-27.273771" lon="151.2899043">
  <ele>343.11</ele>
  <time>2026-09-01T19:57:44Z</time>
  <course>106.33</course>
  <speed>0.022360679774997897</speed>
  <fix>3d</fix>
</trkpt>
<trkpt lat="-27.2737711" lon="151.289904">
  <ele>343.08</ele>
  <time>2026-09-01T19:57:44Z</time>
  <course>121.58</course>
  <speed>0.0</speed>
  <fix>3d</fix>
</trkpt>
<trkpt lat="-27.273771" lon="151.2899043">
  <ele>343.1</ele>
  <time>2026-09-01T19:57:44Z</time>
  <course>106.33</course>
  <speed>0.022360679774997897</speed>
  <fix>3d</fix>
</trkpt>
<trkpt lat="-27.2737711" lon="151.289904">
  <ele>343.08</ele>
  <time>2026-09-01T19:57:44Z</time>
  <course>121.8</course>
  <speed>0.0</speed>
  <fix>3d</fix>
</trkpt>
<trkpt lat="-27.273771" lon="151.2899043">
  <ele>343.1</ele>
  <time>2026-09-01T19:57:44Z</time>
  <course>106.33</course>
  <speed>0.022360679774997897</speed>
  <fix>3d</fix>
</trkpt>
<trkpt lat="-27.2737711" lon="151.289904">
  <ele>343.08</ele>
  <time>2026-09-01T19:57:44Z</time>
  <course>121.8</course>
  <speed>0.0</speed>
  <fix>3d</fix>
</trkpt>
<trkpt lat="-27.273771" lon="151.2899043">
  <ele>343.1</ele>
  <time>2026-09-01T19:57:44Z</time>
  <course>106.33</course>
  <speed>0.022360679774997897</speed>
  <fix>3d</fix>
</trkpt>
<trkpt lat="-27.2737711" lon="151.289904">
  <ele>343.08</ele>
  <time>2026-09-01T19:57:44Z</time>
  <course>121.82</course>
  <speed>0.0</speed>
  <fix>3d</fix>
</trkpt>
<trkpt lat="-27.273771" lon="151.2899043">
  <ele>343.1</ele>
  <time>2026-09-01T19:57:44Z</time>
  <course>106.33</course>
  <speed>0.022360679774997897</speed>
  <fix>3d</fix>
</trkpt>
<trkpt lat="-27.2737711" lon="151.289904">
  <ele>343.08</ele>
  <time>2026-09-01T19:57:44Z</time>
  <course>121.82</course>
  <speed>0.0</speed>
  <fix>3d</fix>
</trkpt>
<trkpt lat="-27.273771" lon="151.2899043">
  <ele>343.1</ele>
  <time>2026-09-01T19:57:44Z</time>
  <course>106.33</course>
  <speed>0.022360679774997897</speed>
  <fix>3d</fix>
</trkpt>
<trkpt lat="-27.2737711" lon="151.289904">
  <ele>343.08</ele>
  <time>2026-09-01T19:57:44Z</time>
  <course>121.83</course>
  <speed>0.0</speed>
  <fix>3d</fix>
</trkpt>
<trkpt lat="-27.273771" lon="151.2899043">
  <ele>343.1</ele>
  <time>2026-09-01T19:57:44Z</time>
  <course>106.33</course>
  <speed>0.022360679774997897</speed>
  <fix>3d</fix>
</trkpt>
<trkpt lat="-27.2737711" lon="151.289904">
  <ele>343.08</ele>
  <time>2026-09-01T19:57:44Z</time>
  <course>121.83</course>
  <speed>0.0</speed>
  <fix>3d</fix>
</trkpt>
<trkpt lat="-27.273771" lon="151.2899043">
  <ele>343.1</ele>
  <time>2026-09-01T19:57:44Z</time>
  <course>106.32</course>
  <speed>0.022360679774997897</speed>
  <fix>3d</fix>
</trkpt>
<trkpt lat="-27.2737711" lon="151.289904">
  <ele>343.08</ele>
  <time>2026-09-01T19:57:44Z</time>
  <course>121.83</course>
  <speed>0.0</speed>
  <fix>3d</fix>
</trkpt>
<trkpt lat="-27.273771" lon="151.2899043">
  <ele>343.1</ele>
  <time>2026-09-01T19:57:44Z</time>
  <course>106.32</course>
  <speed>0.022360679774997897</speed>
  <fix>3d</fix>
</trkpt>
<trkpt lat="-27.2737711" lon="151.289904">
  <ele>343.08</ele>
  <time>2026-09-01T19:57:44Z</time>
  <course>121.83</course>
  <speed>0.0</speed>
  <fix>3d</fix>
</trkpt>
<trkpt lat="-27.273771" lon="151.2899043">
  <ele>343.1</ele>
  <time>2026-09-01T19:57:44Z</time>
  <course>106.32</course>
  <speed>0.022360679774997897</speed>
  <fix>3d</fix>
</trkpt>
<trkpt lat="-27.2737711" lon="151.289904">
  <ele>343.08</ele>
  <time>2026-09-01T19:57:44Z</time>
  <course>121.83</course>
  <speed>0.0</speed>
  <fix>3d</fix>
</trkpt>
<trkpt lat="-27.273771" lon="151.2899043">
  <ele>343.1</ele>
  <time>2026-09-01T19:57:44Z</time>
  <course>106.32</course>
  <speed>0.022360679774997897</speed>
  <fix>3d</fix>
</trkpt>
<trkpt lat="-27.2737711" lon="151.289904">
  <ele>343.08</ele>
  <time>2026-09-01T19:57:44Z</time>
  <course>121.83</course>
  <speed>0.0</speed>
  <fix>3d</fix>
</trkpt>
<trkpt lat="-27.273771" lon="151.2899043">
  <ele>343.1</ele>
  <time>2026-09-01T19:57:44Z</time>
  <course>106.32</course>
  <speed>0.022360679774997897</speed>
  <fix>3d</fix>
</trkpt>
<trkpt lat="-27.2737711" lon="151.289904">
  <ele>343.08</ele>
  <time>2026-09-01T19:57:44Z</time>
  <course>121.83</course>
  <speed>0.0</speed>
  <fix>3d</fix>
</trkpt>
<trkpt lat="-27.273771" lon="151.2899043">
  <ele>343.1</ele>
  <time>2026-09-01T19:57:44Z</time>
  <course>106.32</course>
  <speed>0.022360679774997897</speed>
  <fix>3d</fix>
</trkpt>
<trkpt lat="-27.2737711" lon="151.289904">
  <ele>343.08</ele>
  <time>2026-09-01T19:57:44Z</time>
  <course>121.83</course>
  <speed>0.0</speed>
  <fix>3d</fix>
</trkpt>
<trkpt lat="-27.273771" lon="151.2899043">
  <ele>343.1</ele>
  <time>2026-09-01T19:57:44Z</time>
  <course>106.32</course>
  <speed>0.022360679774997897</speed>
  <fix>3d</fix>
</trkpt>
<trkpt lat="-27.2737711" lon="151.289904">
  <ele>343.08</ele>
  <time>2026-09-01T19:57:44Z</time>
  <course>121.83</course>
  <speed>0.0</speed>
  <fix>3d</fix>
</trkpt>
<trkpt lat="-27.273771" lon="151.2899043">
  <ele>343.1</ele>
  <time>2026-09-01T19:57:44Z</time>
  <course>106.32</course>
  <speed>0.022360679774997897</speed>
  <fix>3d</fix>
</trkpt>
<trkpt lat="-27.2737711" lon="151.289904">
  <ele>343.08</ele>
  <time>2026-09-01T19:57:44Z</time>
  <course>121.83</course>
  <speed>0.0</speed>
  <fix>3d</fix>
</trkpt>
<trkpt lat="-27.273771" lon="151.2899043">
  <ele>343.1</ele>
  <time>2026-09-01T19:57:44Z</time>
  <course>106.31</course>
  <speed>0.022360679774997897</speed>
  <fix>3d</fix>
</trkpt>
<trkpt lat="-27.2737711" lon="151.289904">
  <ele>343.08</ele>
  <time>2026-09-01T19:57:44Z</time>
  <course>121.83</course>
  <speed>0.0</speed>
  <fix>3d</fix>
</trkpt>
<trkpt lat="-27.273771" lon="151.2899043">
  <ele>343.1</ele>
  <time>2026-09-01T19:57:44Z</time>
  <course>106.31</course>
  <speed>0.022360679774997897</speed>
  <fix>3d</fix>
</trkpt>
<trkpt lat="-27.2737711" lon="151.289904">
  <ele>343.08</ele>
  <time>2026-09-01T19:57:44Z</time>
  <course>121.83</course>
  <speed>0.0</speed>
  <fix>3d</fix>
</trkpt>
<trkpt lat="-27.273771" lon="151.2899043">
  <ele>343.1</ele>
  <time>2026-09-01T19:57:44Z</time>
  <course>106.31</course>
  <speed>0.022360679774997897</speed>
  <fix>3d</fix>
</trkpt>
<trkpt lat="-27.2737711" lon="151.289904">
  <ele>343.08</ele>
  <time>2026-09-01T19:57:44Z</time>
  <course>121.83</course>
  <speed>0.0</speed>
  <fix>3d</fix>
</trkpt>
<trkpt lat="-27.273771" lon="151.2899043">
  <ele>343.1</ele>
  <time>2026-09-01T19:57:44Z</time>
  <course>106.31</course>
  <speed>0.022360679774997897</speed>
  <fix>3d</fix>
</trkpt>
<trkpt lat="-27.2737711" lon="151.289904">
  <ele>343.08</ele>
  <time>2026-09-01T19:57:44Z</time>
  <course>121.83</course>
  <speed>0.0</speed>
  <fix>3d</fix>
</trkpt>
<trkpt lat="-27.273771" lon="151.2899043">
  <ele>343.08</ele>
  <time>2026-09-01T19:57:44Z</time>
  <course>106.31</course>
  <speed>0.022360679774997897</speed>
  <fix>3d</fix>
</trkpt>
<trkpt lat="-27.2737711" lon="151.289904">
  <ele>343.08</ele>
  <time>2026-09-01T19:57:44Z</time>
  <course>121.83</course>
  <speed>0.0</speed>
  <fix>3d</fix>
</trkpt>
<trkpt lat="-27.273771" lon="151.2899043">
  <ele>343.08</ele>
  <time>2026-09-01T19:57:44Z</time>
  <course>106.31</course>
  <speed>0.022360679774997897</speed>
  <fix>3d</fix>
</trkpt>
<trkpt lat="-27.2737711" lon="151.289904">
  <ele>343.08</ele>
  <time>2026-09-01T19:57:44Z</time>
  <course>121.83</course>
  <speed>0.0</speed>
  <fix>3d</fix>
</trkpt>
<trkpt lat="-27.273771" lon="151.2899043">
  <ele>343.08</ele>
  <time>2026-09-01T19:57:44Z</time>
  <course>106.31</course>
  <speed>0.022360679774997897</speed>
  <fix>3d</fix>
</trkpt>
<trkpt lat="-27.2737711" lon="151.289904">
  <ele>343.08</ele>
  <time>2026-09-01T19:57:44Z</time>
  <course>121.83</course>
  <speed>0.0</speed>
  <fix>3d</fix>
</trkpt>
<trkpt lat="-27.273771" lon="151.2899043">
  <ele>343.08</ele>
  <time>2026-09-01T19:57:44Z</time>
  <course>106.31</course>
  <speed>0.022360679774997897</speed>
  <fix>3d</fix>
</trkpt>
<trkpt lat="-27.2737711" lon="151.289904">
  <ele>343.08</ele>
  <time>2026-09-01T19:57:44Z</time>
  <course>121.83</course>
  <speed>0.0</speed>
  <fix>3d</fix>
</trkpt>
<trkpt lat="-27.273771" lon="151.2899043">
  <ele>343.08</ele>
  <time>2026-09-01T19:57:44Z</time>
  <course>106.3</course>
  <speed>0.022360679774997897</speed>
  <fix>3d</fix>
</trkpt>
<trkpt lat="-27.2737711" lon="151.289904">
  <ele>343.08</ele>
  <time>2026-09-01T19:57:44Z</time>
  <course>121.83</course>
  <speed>0.0</speed>
  <fix>3d</fix>
</trkpt>
<trkpt lat="-27.273771" lon="151.2899043">
  <ele>343.08</ele>
  <time>2026-09-01T19:57:44Z</time>
  <course>106.3</course>
  <speed>0.022360679774997897</speed>
  <fix>3d</fix>
</trkpt>
<trkpt lat="-27.2737711" lon="151.289904">
  <ele>343.08</ele>
  <time>2026-09-01T19:57:44Z</time>
  <course>121.83</course>
  <speed>0.0</speed>
  <fix>3d</fix>
</trkpt>
<trkpt lat="-27.273771" lon="151.2899043">
  <ele>343.08</ele>
  <time>2026-09-01T19:57:44Z</time>
  <course>106.3</course>
  <speed>0.022360679774997897</speed>
  <fix>3d</fix>
</trkpt>
<trkpt lat="-27.2737711" lon="151.289904">
  <ele>343.08</ele>
  <time>2026-09-01T19:57:44Z</time>
  <course>121.83</course>
  <speed>0.0</speed>
  <fix>3d</fix>
</trkpt>
<trkpt lat="-27.273771" lon="151.2899043">
  <ele>343.08</ele>
  <time>2026-09-01T19:57:44Z</time>
  <course>106.3</course>
  <speed>0.022360679774997897</speed>
  <fix>3d</fix>
</trkpt>
<trkpt lat="-27.2737711" lon="151.289904">
  <ele>343.08</ele>
  <time>2026-09-01T19:57:44Z</time>
  <course>121.83</course>
  <speed>0.0</speed>
  <fix>3d</fix>
</trkpt>
<trkpt lat="-27.273771" lon="151.2899043">
  <ele>343.08</ele>
  <time>2026-09-01T19:57:44Z</time>
  <course>106.3</course>
  <speed>0.022360679774997897</speed>
  <fix>3d</fix>
</trkpt>
<trkpt lat="-27.2737711" lon="151.289904">
  <ele>343.08</ele>
  <time>2026-09-01T19:57:44Z</time>
  <course>121.83</course>
  <speed>0.0</speed>
  <fix>3d</fix>
</trkpt>
<trkpt lat="-27.273771" lon="151.2899043">
  <ele>343.08</ele>
  <time>2026-09-01T19:57:44Z</time>
  <course>106.3</course>
  <speed>0.022360679774997897</speed>
  <fix>3d</fix>
</trkpt>
<trkpt lat="-27.2737711" lon="151.289904">
  <ele>343.08</ele>
  <time>2026-09-01T19:57:44Z</time>
  <course>121.83</course>
  <speed>0.0</speed>
  <fix>3d</fix>
</trkpt>
<trkpt lat="-27.273771" lon="151.2899043">
  <ele>343.08</ele>
  <time>2026-09-01T19:57:44Z</time>
  <course>106.3</course>
  <speed>0.022360679774997897</speed>
  <fix>3d</fix>
</trkpt>
<trkpt lat="-27.2737711" lon="151.289904">
  <ele>343.08</ele>
  <time>2026-09-01T19:57:44Z</time>
  <course>121.83</course>
  <speed>0.0</speed>
  <fix>3d</fix>
</trkpt>
<trkpt lat="-27.273771" lon="151.2899043">
  <ele>343.08</ele>
  <time>2026-09-01T19:57:44Z</time>
  <course>106.3</course>
  <speed>0.022360679774997897</speed>
  <fix>3d</fix>
</trkpt>
<trkpt lat="-27.2737711" lon="151.289904">
  <ele>343.08</ele>
  <time>2026-09-01T19:57:44Z</time>
  <course>121.83</course>
  <speed>0.0</speed>
  <fix>3d</fix>
</trkpt>
<trkpt lat="-27.273771" lon="151.2899043">
  <ele>343.08</ele>
  <time>2026-09-01T19:57:44Z</time>
  <course>106.29</course>
  <speed>0.022360679774997897</speed>
  <fix>3d</fix>
</trkpt>
<trkpt lat="-27.2737711" lon="151.289904">
  <ele>343.08</ele>
  <time>2026-09-01T19:57:44Z</time>
  <course>121.83</course>
  <speed>0.0</speed>
  <fix>3d</fix>
</trkpt>
<trkpt lat="-27.273771" lon="151.2899043">
  <ele>343.08</ele>
  <time>2026-09-01T19:57:44Z</time>
  <course>106.29</course>
  <speed>0.022360679774997897</speed>
  <fix>3d</fix>
</trkpt>
<trkpt lat="-27.2737711" lon="151.289904">
  <ele>343.08</ele>
  <time>2026-09-01T19:57:44Z</time>
  <course>121.83</course>
  <speed>0.0</speed>
  <fix>3d</fix>
</trkpt>
<trkpt lat="-27.273771" lon="151.2899043">
  <ele>343.08</ele>
  <time>2026-09-01T19:57:44Z</time>
  <course>106.29</course>
  <speed>0.022360679774997897</speed>
  <fix>3d</fix>
</trkpt>
<trkpt lat="-27.2737711" lon="151.289904">
  <ele>343.08</ele>
  <time>2026-09-01T19:57:44Z</time>
  <course>121.83</course>
  <speed>0.0</speed>
  <fix>3d</fix>
</trkpt>
<trkpt lat="-27.273771" lon="151.2899043">
  <ele>343.08</ele>
  <time>2026-09-01T19:57:44Z</time>
  <course>106.29</course>
  <speed>0.022360679774997897</speed>
  <fix>3d</fix>
</trkpt>
<trkpt lat="-27.2737711" lon="151.289904">
  <ele>343.08</ele>
  <time>2026-09-01T19:57:44Z</time>
  <course>121.83</course>
  <speed>0.0</speed>
  <fix>3d</fix>
</trkpt>
<trkpt lat="-27.273771" lon="151.2899043">
  <ele>343.07</ele>
  <time>2026-09-01T19:57:44Z</time>
  <course>106.29</course>
  <speed>0.022360679774997897</speed>
  <fix>3d</fix>
</trkpt>
<trkpt lat="-27.2737711" lon="151.289904">
  <ele>343.08</ele>
  <time>2026-09-01T19:57:44Z</time>
  <course>121.83</course>
  <speed>0.0</speed>
  <fix>3d</fix>
</trkpt>
<trkpt lat="-27.273771" lon="151.2899043">
  <ele>343.08</ele>
  <time>2026-09-01T19:57:44Z</time>
  <course>106.29</course>
  <speed>0.022360679774997897</speed>
  <fix>3d</fix>
</trkpt>
<trkpt lat="-27.2737711" lon="151.289904">
  <ele>343.08</ele>
  <time>2026-09-01T19:57:44Z</time>
  <course>121.83</course>
  <speed>0.0</speed>
  <fix>3d</fix>
</trkpt>
<trkpt lat="-27.273771" lon="151.2899043">
  <ele>343.08</ele>
  <time>2026-09-01T19:57:44Z</time>
  <course>106.29</course>
  <speed>0.022360679774997897</speed>
  <fix>3d</fix>
</trkpt>
<trkpt lat="-27.2737711" lon="151.289904">
  <ele>343.08</ele>
  <time>2026-09-01T19:57:44Z</time>
  <course>121.82</course>
  <speed>0.0</speed>
  <fix>3d</fix>
</trkpt>
<trkpt lat="-27.273771" lon="151.2899043">
  <ele>343.07</ele>
  <time>2026-09-01T19:57:44Z</time>
  <course>106.29</course>
  <speed>0.022360679774997897</speed>
  <fix>3d</fix>
</trkpt>
<trkpt lat="-27.2737711" lon="151.289904">
  <ele>343.08</ele>
  <time>2026-09-01T19:57:44Z</time>
  <course>121.82</course>
  <speed>0.0</speed>
  <fix>3d</fix>
</trkpt>
<trkpt lat="-27.273771" lon="151.2899043">
  <ele>343.07</ele>
  <time>2026-09-01T19:57:44Z</time>
  <course>106.28</course>
  <speed>0.022360679774997897</speed>
  <fix>3d</fix>
</trkpt>
<trkpt lat="-27.2737711" lon="151.289904">
  <ele>343.08</ele>
  <time>2026-09-01T19:57:44Z</time>
  <course>61.69</course>
  <speed>0.0</speed>
  <fix>3d</fix>
</trkpt>
<trkpt lat="-27.273771" lon="151.2899043">
  <ele>343.07</ele>
  <time>2026-09-01T19:57:44Z</time>
  <course>106.28</course>
  <speed>0.022360679774997897</speed>
  <fix>3d</fix>
</trkpt>
<trkpt lat="-27.2737711" lon="151.289904">
  <ele>343.08</ele>
  <time>2026-09-01T19:57:44Z</time>
  <course>61.69</course>
  <speed>0.0</speed>
  <fix>3d</fix>
</trkpt>
<trkpt lat="-27.273771" lon="151.2899043">
  <ele>343.07</ele>
  <time>2026-09-01T19:57:44Z</time>
  <course>106.28</course>
  <speed>0.022360679774997897</speed>
  <fix>3d</fix>
</trkpt>
<trkpt lat="-27.2737711" lon="151.289904">
  <ele>343.08</ele>
  <time>2026-09-01T19:57:44Z</time>
  <course>58.01</course>
  <speed>0.0</speed>
  <fix>3d</fix>
</trkpt>
<trkpt lat="-27.273771" lon="151.2899043">
  <ele>343.07</ele>
  <time>2026-09-01T19:57:44Z</time>
  <course>106.28</course>
  <speed>0.022360679774997897</speed>
  <fix>3d</fix>
</trkpt>
<trkpt lat="-27.2737711" lon="151.289904">
  <ele>343.08</ele>
  <time>2026-09-01T19:57:44Z</time>
  <course>58.01</course>
  <speed>0.0</speed>
  <fix>3d</fix>
</trkpt>
<trkpt lat="-27.273771" lon="151.2899043">
  <ele>343.07</ele>
  <time>2026-09-01T19:57:44Z</time>
  <course>106.28</course>
  <speed>0.022360679774997897</speed>
  <fix>3d</fix>
</trkpt>
<trkpt lat="-27.2737711" lon="151.289904">
  <ele>343.08</ele>
  <time>2026-09-01T19:57:44Z</time>
  <course>41.12</course>
  <speed>0.0</speed>
  <fix>3d</fix>
</trkpt>
<trkpt lat="-27.273771" lon="151.2899043">
  <ele>343.07</ele>
  <time>2026-09-01T19:57:44Z</time>
  <course>106.28</course>
  <speed>0.022360679774997897</speed>
  <fix>3d</fix>
</trkpt>
<trkpt lat="-27.2737711" lon="151.289904">
  <ele>343.08</ele>
  <time>2026-09-01T19:57:44Z</time>
  <course>41.12</course>
  <speed>0.0</speed>
  <fix>3d</fix>
</trkpt>
<trkpt lat="-27.273771" lon="151.2899043">
  <ele>343.07</ele>
  <time>2026-09-01T19:57:44Z</time>
  <course>106.28</course>
  <speed>0.022360679774997897</speed>
  <fix>3d</fix>
</trkpt>
<trkpt lat="-27.2737711" lon="151.289904">
  <ele>343.08</ele>
  <time>2026-09-01T19:57:44Z</time>
  <course>236.59</course>
  <speed>0.0</speed>
  <fix>3d</fix>
</trkpt>
<trkpt lat="-27.273771" lon="151.2899043">
  <ele>343.07</ele>
  <time>2026-09-01T19:57:44Z</time>
  <course>106.28</course>
  <speed>0.022360679774997897</speed>
  <fix>3d</fix>
</trkpt>
<trkpt lat="-27.2737711" lon="151.289904">
  <ele>343.08</ele>
  <time>2026-09-01T19:57:44Z</time>
  <course>236.59</course>
  <speed>0.0</speed>
  <fix>3d</fix>
</trkpt>
<trkpt lat="-27.273771" lon="151.2899043">
  <ele>343.07</ele>
  <time>2026-09-01T19:57:44Z</time>
  <course>106.28</course>
  <speed>0.022360679774997897</speed>
  <fix>3d</fix>
</trkpt>
<trkpt lat="-27.2737711" lon="151.289904">
  <ele>343.08</ele>
  <time>2026-09-01T19:57:44Z</time>
  <course>241.72</course>
  <speed>0.0</speed>
  <fix>3d</fix>
</trkpt>
<trkpt lat="-27.273771" lon="151.2899043">
  <ele>343.08</ele>
  <time>2026-09-01T19:57:44Z</time>
  <course>106.27</course>
  <speed>0.022360679774997897</speed>
  <fix>3d</fix>
</trkpt>
<trkpt lat="-27.2737711" lon="151.289904">
  <ele>343.08</ele>
  <time>2026-09-01T19:57:44Z</time>
  <course>241.72</course>
  <speed>0.0</speed>
  <fix>3d</fix>
</trkpt>
<trkpt lat="-27.273771" lon="151.2899043">
  <ele>343.11</ele>
  <time>2026-09-01T19:57:44Z</time>
  <course>106.27</course>
  <speed>0.022360679774997897</speed>
  <fix>3d</fix>
</trkpt>
<trkpt lat="-27.2737711" lon="151.289904">
  <ele>343.08</ele>
  <time>2026-09-01T19:57:44Z</time>
  <course>108.05</course>
  <speed>0.0</speed>
  <fix>3d</fix>
</trkpt>
<trkpt lat="-27.273771" lon="151.2899043">
  <ele>343.16</ele>
  <time>2026-09-01T19:57:44Z</time>
  <course>106.27</course>
  <speed>0.0316227766016838</speed>
  <fix>3d</fix>
</trkpt>
<trkpt lat="-27.2737711" lon="151.289904">
  <ele>343.08</ele>
  <time>2026-09-01T19:57:44Z</time>
  <course>108.05</course>
  <speed>0.0</speed>
  <fix>3d</fix>
</trkpt>
<trkpt lat="-27.273771" lon="151.2899043">
  <ele>343.23</ele>
  <time>2026-09-01T19:57:44Z</time>
  <course>106.27</course>
  <speed>0.0412310562561766</speed>
  <fix>3d</fix>
</trkpt>
<trkpt lat="-27.2737711" lon="151.289904">
  <ele>343.13</ele>
  <time>2026-09-01T19:57:44Z</time>
  <course>106.95</course>
  <speed>0.0</speed>
  <fix>3d</fix>
</trkpt>
<trkpt lat="-27.273771" lon="151.2899043">
  <ele>343.37</ele>
  <time>2026-09-01T19:57:44Z</time>
  <course>106.25</course>
  <speed>0.06</speed>
  <fix>3d</fix>
</trkpt>
<trkpt lat="-27.2737711" lon="151.289904">
  <ele>343.13</ele>
  <time>2026-09-01T19:57:44Z</time>
  <course>106.95</course>
  <speed>0.0</speed>
  <fix>3d</fix>
</trkpt>
<trkpt lat="-27.273771" lon="151.2899043">
  <ele>343.57</ele>
  <time>2026-09-01T19:57:44Z</time>
  <course>106.25</course>
  <speed>0.09055385138137417</speed>
  <fix>3d</fix>
</trkpt>
<trkpt lat="-27.2737711" lon="151.289904">
  <ele>343.27</ele>
  <time>2026-09-01T19:57:44Z</time>
  <course>115.2</course>
  <speed>0.02</speed>
  <fix>3d</fix>
</trkpt>
<trkpt lat="-27.273771" lon="151.2899044">
  <ele>343.82</ele>
  <time>2026-09-01T19:57:44Z</time>
  <course>106.26</course>
  <speed>0.12165525060596438</speed>
  <fix>3d</fix>
</trkpt>
<trkpt lat="-27.2737711" lon="151.289904">
  <ele>343.27</ele>
  <time>2026-09-01T19:57:44Z</time>
  <course>115.2</course>
  <speed>0.02</speed>
  <fix>3d</fix>
</trkpt>
<trkpt lat="-27.273771" lon="151.2899045">
  <ele>344.08</ele>
  <time>2026-09-01T19:57:44Z</time>
  <course>106.29</course>
  <speed>0.16278820596099705</speed>
  <fix>3d</fix>
</trkpt>
<trkpt lat="-27.2737711" lon="151.289904">
  <ele>343.6</ele>
  <time>2026-09-01T19:57:44Z</time>
  <course>114.84</course>
  <speed>0.07</speed>
  <fix>3d</fix>
</trkpt>
<trkpt lat="-27.2737711" lon="151.2899046">
  <ele>344.36</ele>
  <time>2026-09-01T19:57:44Z</time>
  <course>106.34</course>
  <speed>0.196468827043885</speed>
  <fix>3d</fix>
</trkpt>
<trkpt lat="-27.2737711" lon="151.289904">
  <ele>343.6</ele>
  <time>2026-09-01T19:57:44Z</time>
  <course>114.84</course>
  <speed>0.07</speed>
  <fix>3d</fix>
</trkpt>
<trkpt lat="-27.2737711" lon="151.2899048">
  <ele>344.65</ele>
  <time>2026-09-01T19:57:44Z</time>
  <course>106.39</course>
  <speed>0.23769728648009425</speed>
  <fix>3d</fix>
</trkpt>
<trkpt lat="-27.2737711" lon="151.2899042">
  <ele>344.09</ele>
  <time>2026-09-01T19:57:44Z</time>
  <course>113.38</course>
  <speed>0.14</speed>
  <fix>3d</fix>
</trkpt>
<trkpt lat="-27.2737712" lon="151.2899051">
  <ele>344.95</ele>
  <time>2026-09-01T19:57:44Z</time>
  <course>106.43</course>
  <speed>0.27892651361962706</speed>
  <fix>3d</fix>
</trkpt>
<trkpt lat="-27.2737711" lon="151.2899042">
  <ele>344.09</ele>
  <time>2026-09-01T19:57:44Z</time>
  <course>113.38</course>
  <speed>0.14</speed>
  <fix>3d</fix>
</trkpt>
<trkpt lat="-27.2737713" lon="151.2899053">
  <ele>345.27</ele>
  <time>2026-09-01T19:57:44Z</time>
  <course>107.48</course>
  <speed>0.31048349392520047</speed>
  <fix>3d</fix>
</trkpt>
<trkpt lat="-27.2737712" lon="151.2899044">
  <ele>344.66</ele>
  <time>2026-09-01T19:57:44Z</time>
  <course>112.05</course>
  <speed>0.22</speed>
  <fix>3d</fix>
</trkpt>
<trkpt lat="-27.2737714" lon="151.2899056">
  <ele>345.59</ele>
  <time>2026-09-01T19:57:44Z</time>
  <course>107.19</course>
  <speed>0.35171010790137947</speed>
  <fix>3d</fix>
</trkpt>
<trkpt lat="-27.2737712" lon="151.2899044">
  <ele>344.66</ele>
  <time>2026-09-01T19:57:44Z</time>
  <course>112.05</course>
  <speed>0.22</speed>
  <fix>3d</fix>
</trkpt>
<trkpt lat="-27.2737715" lon="151.2899059">
  <ele>345.92</ele>
  <time>2026-09-01T19:57:44Z</time>
  <course>106.97</course>
  <speed>0.383275357934736</speed>
  <fix>3d</fix>
</trkpt>
<trkpt lat="-27.2737714" lon="151.2899049">
  <ele>345.28</ele>
  <time>2026-09-01T19:57:44Z</time>
  <course>111.03</course>
  <speed>0.29</speed>
  <fix>3d</fix>
</trkpt>
<trkpt lat="-27.2737716" lon="151.2899062">
  <ele>346.26</ele>
  <time>2026-09-01T19:57:44Z</time>
  <course>106.93</course>
  <speed>0.4052159917870962</speed>
  <fix>3d</fix>
</trkpt>
<trkpt lat="-27.2737714" lon="151.2899049">
  <ele>345.28</ele>
  <time>2026-09-01T19:57:44Z</time>
  <course>111.03</course>
  <speed>0.29</speed>
  <fix>3d</fix>
</trkpt>
<trkpt lat="-27.2737717" lon="151.2899066">
  <ele>346.59</ele>
  <time>2026-09-01T19:57:44Z</time>
  <course>107.04</course>
  <speed>0.42720018726587655</speed>
  <fix>3d</fix>
</trkpt>
<trkpt lat="-27.2737715" lon="151.2899056">
  <ele>345.94</ele>
  <time>2026-09-01T19:57:44Z</time>
  <course>110.37</course>
  <speed>0.36</speed>
  <fix>3d</fix>
</trkpt>
<trkpt lat="-27.2737718" lon="151.289907">
  <ele>346.92</ele>
  <time>2026-09-01T19:57:44Z</time>
  <course>107.2</course>
  <speed>0.4464302857109943</speed>
  <fix>3d</fix>
</trkpt>
<trkpt lat="-27.2737715" lon="151.2899056">
  <ele>345.94</ele>
  <time>2026-09-01T19:57:44Z</time>
  <course>110.37</course>
  <speed>0.36</speed>
  <fix>3d</fix>
</trkpt>
<trkpt lat="-27.2737719" lon="151.2899074">
  <ele>347.24</ele>
  <time>2026-09-01T19:57:44Z</time>
  <course>107.38</course>
  <speed>0.4464302857109943</speed>
  <fix>3d</fix>
</trkpt>
<trkpt lat="-27.2737718" lon="151.2899064">
  <ele>346.61</ele>
  <time>2026-09-01T19:57:44Z</time>
  <course>110.06</course>
  <speed>0.41</speed>
  <fix>3d</fix>
</trkpt>
<trkpt lat="-27.2737721" lon="151.2899078">
  <ele>347.56</ele>
  <time>2026-09-01T19:57:44Z</time>
  <course>107.5</course>
  <speed>0.45607017003965516</speed>
  <fix>3d</fix>
</trkpt>
<trkpt lat="-27.2737718" lon="151.2899064">
  <ele>346.61</ele>
  <time>2026-09-01T19:57:44Z</time>
  <course>110.06</course>
  <speed>0.41</speed>
  <fix>3d</fix>
</trkpt>
<trkpt lat="-27.2737722" lon="151.2899082">
  <ele>347.88</ele>
  <time>2026-09-01T19:57:44Z</time>
  <course>107.6</course>
  <speed>0.4464302857109943</speed>
  <fix>3d</fix>
</trkpt>
<trkpt lat="-27.2737721" lon="151.2899071">
  <ele>347.27</ele>
  <time>2026-09-01T19:57:44Z</time>
  <course>110.0</course>
  <speed>0.44</speed>
  <fix>3d</fix>
</trkpt>
<trkpt lat="-27.2737723" lon="151.2899086">
  <ele>348.18</ele>
  <time>2026-09-01T19:57:44Z</time>
  <course>107.63</course>
  <speed>0.4368065933568311</speed>
  <fix>3d</fix>
</trkpt>
<trkpt lat="-27.2737721" lon="151.2899071">
  <ele>347.27</ele>
  <time>2026-09-01T19:57:44Z</time>
  <course>110.0</course>
  <speed>0.44</speed>
  <fix>3d</fix>
</trkpt>
<trkpt lat="-27.2737725" lon="151.289909">
  <ele>348.48</ele>
  <time>2026-09-01T19:57:44Z</time>
  <course>107.65</course>
  <speed>0.42720018726587655</speed>
  <fix>3d</fix>
</trkpt>
<trkpt lat="-27.2737724" lon="151.289908">
  <ele>347.9</ele>
  <time>2026-09-01T19:57:44Z</time>
  <course>110.13</course>
  <speed>0.44</speed>
  <fix>3d</fix>
</trkpt>
<trkpt lat="-27.2737726" lon="151.2899094">
  <ele>348.77</ele>
  <time>2026-09-01T19:57:44Z</time>
  <course>107.63</course>
  <speed>0.4080441152620633</speed>
  <fix>3d</fix>
</trkpt>
<trkpt lat="-27.2737724" lon="151.289908">
  <ele>347.9</ele>
  <time>2026-09-01T19:57:44Z</time>
  <course>110.13</course>
  <speed>0.44</speed>
  <fix>3d</fix>
</trkpt>
<trkpt lat="-27.2737727" lon="151.2899098">
  <ele>349.05</ele>
  <time>2026-09-01T19:57:44Z</time>
  <course>107.6</course>
  <speed>0.38600518131237566</speed>
  <fix>3d</fix>
</trkpt>
<trkpt lat="-27.2737726" lon="151.2899089">
  <ele>348.5</ele>
  <time>2026-09-01T19:57:44Z</time>
  <course>110.37</course>
  <speed>0.41</speed>
  <fix>3d</fix>
</trkpt>
<trkpt lat="-27.2737728" lon="151.2899101">
  <ele>349.33</ele>
  <time>2026-09-01T19:57:44Z</time>
  <course>107.56</course>
  <speed>0.354400902933387</speed>
  <fix>3d</fix>
</trkpt>
<trkpt lat="-27.2737729" lon="151.2899096">
  <ele>349.07</ele>
  <time>2026-09-01T19:57:44Z</time>
  <course>110.69</course>
  <speed>0.37</speed>
  <fix>3d</fix>
</trkpt>
<trkpt lat="-27.2737729" lon="151.2899104">
  <ele>349.59</ele>
  <time>2026-09-01T19:57:44Z</time>
  <course>107.54</course>
  <speed>0.32280024783137945</speed>
  <fix>3d</fix>
</trkpt>
<trkpt lat="-27.2737729" lon="151.2899096">
  <ele>349.07</ele>
  <time>2026-09-01T19:57:44Z</time>
  <course>110.69</course>
  <speed>0.37</speed>
  <fix>3d</fix>
</trkpt>
<trkpt lat="-27.273773" lon="151.2899107">
  <ele>349.85</ele>
  <time>2026-09-01T19:57:44Z</time>
  <course>107.51</course>
  <speed>0.29120439557122074</speed>
  <fix>3d</fix>
</trkpt>
<trkpt lat="-27.2737731" lon="151.2899102">
  <ele>349.61</ele>
  <time>2026-09-01T19:57:44Z</time>
  <course>111.02</course>
  <speed>0.32</speed>
  <fix>3d</fix>
</trkpt>
<trkpt lat="-27.2737731" lon="151.289911">
  <ele>350.1</ele>
  <time>2026-09-01T19:57:44Z</time>
  <course>107.5</course>
  <speed>0.2596150997149434</speed>
  <fix>3d</fix>
</trkpt>
<trkpt lat="-27.2737731" lon="151.2899102">
  <ele>349.61</ele>
  <time>2026-09-01T19:57:44Z</time>
  <course>111.02</course>
  <speed>0.32</speed>
  <fix>3d</fix>
</trkpt>
<trkpt lat="-27.2737732" lon="151.2899112">
  <ele>350.35</ele>
  <time>2026-09-01T19:57:44Z</time>
  <course>107.48</course>
  <speed>0.22803508501982758</speed>
  <fix>3d</fix>
</trkpt>
<trkpt lat="-27.2737731" lon="151.2899102">
  <ele>349.61</ele>
  <time>2026-09-01T19:57:44Z</time>
  <course>111.02</course>
  <speed>0.32</speed>
  <fix>3d</fix>
</trkpt>
<trkpt lat="-27.2737733" lon="151.2899114">
  <ele>350.6</ele>
  <time>2026-09-01T19:57:44Z</time>
  <course>107.48</course>
  <speed>0.18681541692269404</speed>
  <fix>3d</fix>
</trkpt>
<trkpt lat="-27.2737733" lon="151.2899108">
  <ele>350.13</ele>
  <time>2026-09-01T19:57:44Z</time>
  <course>111.42</course>
  <speed>0.25</speed>
  <fix>3d</fix>
</trkpt>
<trkpt lat="-27.2737733" lon="151.2899115">
  <ele>350.84</ele>
  <time>2026-09-01T19:57:44Z</time>
  <course>107.47</course>
  <speed>0.14560219778561037</speed>
  <fix>3d</fix>
</trkpt>
<trkpt lat="-27.2737733" lon="151.2899108">
  <ele>350.13</ele>
  <time>2026-09-01T19:57:44Z</time>
  <course>111.42</course>
  <speed>0.25</speed>
  <fix>3d</fix>
</trkpt>
<trkpt lat="-27.2737734" lon="151.2899116">
  <ele>351.08</ele>
  <time>2026-09-01T19:57:44Z</time>
  <course>107.46</course>
  <speed>0.11401754250991379</speed>
  <fix>3d</fix>
</trkpt>
<trkpt lat="-27.2737734" lon="151.2899112">
  <ele>350.62</ele>
  <time>2026-09-01T19:57:44Z</time>
  <course>112.02</course>
  <speed>0.17</speed>
  <fix>3d</fix>
</trkpt>
<trkpt lat="-27.2737734" lon="151.2899117">
  <ele>351.32</ele>
  <time>2026-09-01T19:57:44Z</time>
  <course>107.45</course>
  <speed>0.08062257748298549</speed>
  <fix>3d</fix>
</trkpt>
<trkpt lat="-27.2737734" lon="151.2899112">
  <ele>350.62</ele>
  <time>2026-09-01T19:57:44Z</time>
  <course>112.02</course>
  <speed>0.17</speed>
  <fix>3d</fix>
</trkpt>
<trkpt lat="-27.2737734" lon="151.2899117">
  <ele>351.56</ele>
  <time>2026-09-01T19:57:44Z</time>
  <course>107.44</course>
  <speed>0.04</speed>
  <fix>3d</fix>
</trkpt>
<trkpt lat="-27.2737735" lon="151.2899115">
  <ele>351.11</ele>
  <time>2026-09-01T19:57:44Z</time>
  <course>113.13</course>
  <speed>0.1</speed>
  <fix>3d</fix>
</trkpt>
<trkpt lat="-27.2737735" lon="151.2899117">
  <ele>351.8</ele>
  <time>2026-09-01T19:57:44Z</time>
  <course>107.43</course>
  <speed>0.01</speed>
  <fix>3d</fix>
</trkpt>
<trkpt lat="-27.2737735" lon="151.2899115">
  <ele>351.11</ele>
  <time>2026-09-01T19:57:44Z</time>
  <course>113.13</course>
  <speed>0.1</speed>
  <fix>3d</fix>
</trkpt>
<trkpt lat="-27.2737735" lon="151.2899117">
  <ele>352.05</ele>
  <time>2026-09-01T19:57:44Z</time>
  <course>107.42</course>
  <speed>0.01414213562373095</speed>
  <fix>3d</fix>
</trkpt>
<trkpt lat="-27.2737736" lon="151.2899116">
  <ele>351.59</ele>
  <time>2026-09-01T19:57:44Z</time>
  <course>118.08</course>
  <speed>0.03</speed>
  <fix>3d</fix>
</trkpt>
<trkpt lat="-27.2737735" lon="151.2899117">
  <ele>352.29</ele>
  <time>2026-09-01T19:57:44Z</time>
  <course>107.4</course>
  <speed>0.03605551275463989</speed>
  <fix>3d</fix>
</trkpt>
<trkpt lat="-27.2737736" lon="151.2899116">
  <ele>351.59</ele>
  <time>2026-09-01T19:57:44Z</time>
  <course>118.08</course>
  <speed>0.03</speed>
  <fix>3d</fix>
</trkpt>
<trkpt lat="-27.2737735" lon="151.2899117">
  <ele>352.53</ele>
  <time>2026-09-01T19:57:44Z</time>
  <course>107.39</course>
  <speed>0.0670820393249937</speed>
  <fix>3d</fix>
</trkpt>
<trkpt lat="-27.2737736" lon="151.2899117">
  <ele>352.07</ele>
  <time>2026-09-01T19:57:44Z</time>
  <course>284.89</course>
  <speed>0.03</speed>
  <fix>3d</fix>
</trkpt>
<trkpt lat="-27.2737735" lon="151.2899116">
  <ele>352.76</ele>
  <time>2026-09-01T19:57:44Z</time>
  <course>107.36</course>
  <speed>0.0854400374531753</speed>
  <fix>3d</fix>
</trkpt>
<trkpt lat="-27.2737736" lon="151.2899117">
  <ele>352.07</ele>
  <time>2026-09-01T19:57:44Z</time>
  <course>284.89</course>
  <speed>0.03</speed>
  <fix>3d</fix>
</trkpt>
<trkpt lat="-27.2737735" lon="151.2899115">
  <ele>353.0</ele>
  <time>2026-09-01T19:57:44Z</time>
  <course>107.32</course>
  <speed>0.10770329614269007</speed>
  <fix>3d</fix>
</trkpt>
<trkpt lat="-27.2737736" lon="151.2899115">
  <ele>352.55</ele>
  <time>2026-09-01T19:57:44Z</time>
  <course>288.92</course>
  <speed>0.08</speed>
  <fix>3d</fix>
</trkpt>
<trkpt lat="-27.2737735" lon="151.2899114">
  <ele>353.25</ele>
  <time>2026-09-01T19:57:44Z</time>
  <course>107.28</course>
  <speed>0.13</speed>
  <fix>3d</fix>
</trkpt>
<trkpt lat="-27.2737736" lon="151.2899115">
  <ele>352.55</ele>
  <time>2026-09-01T19:57:44Z</time>
  <course>288.92</course>
  <speed>0.08</speed>
  <fix>3d</fix>
</trkpt>
<trkpt lat="-27.2737734" lon="151.2899112">
  <ele>353.49</ele>
  <time>2026-09-01T19:57:44Z</time>
  <course>107.21</course>
  <speed>0.1392838827718412</speed>
  <fix>3d</fix>
</trkpt>
<trkpt lat="-27.2737736" lon="151.2899114">
  <ele>353.03</ele>
  <time>2026-09-01T19:57:44Z</time>
  <course>289.39</course>
  <speed>0.13</speed>
  <fix>3d</fix>
</trkpt>
<trkpt lat="-27.2737734" lon="151.2899111">
  <ele>353.74</ele>
  <time>2026-09-01T19:57:44Z</time>
  <course>107.15</course>
  <speed>0.15811388300841897</speed>
  <fix>3d</fix>
</trkpt>
<trkpt lat="-27.2737736" lon="151.2899114">
  <ele>353.03</ele>
  <time>2026-09-01T19:57:44Z</time>
  <course>289.39</course>
  <speed>0.13</speed>
  <fix>3d</fix>
</trkpt>
<trkpt lat="-27.2737734" lon="151.2899109">
  <ele>353.99</ele>
  <time>2026-09-01T19:57:44Z</time>
  <course>107.1</course>
  <speed>0.1649242250247064</speed>
  <fix>3d</fix>
</trkpt>
<trkpt lat="-27.2737735" lon="151.289911">
  <ele>353.52</ele>
  <time>2026-09-01T19:57:44Z</time>
  <course>289.09</course>
  <speed>0.17</speed>
  <fix>3d</fix>
</trkpt>
<trkpt lat="-27.2737734" lon="151.2899107">
  <ele>354.24</ele>
  <time>2026-09-01T19:57:44Z</time>
  <course>107.08</course>
  <speed>0.18027756377319945</speed>
  <fix>3d</fix>
</trkpt>
<trkpt lat="-27.2737735" lon="151.289911">
  <ele>353.52</ele>
  <time>2026-09-01T19:57:44Z</time>
  <course>289.09</course>
  <speed>0.17</speed>
  <fix>3d</fix>
</trkpt>
<trkpt lat="-27.2737733" lon="151.2899105">
  <ele>354.5</ele>
  <time>2026-09-01T19:57:44Z</time>
  <course>107.09</course>
  <speed>0.18439088914585774</speed>
  <fix>3d</fix>
</trkpt>
<trkpt lat="-27.2737734" lon="151.2899107">
  <ele>354.02</ele>
  <time>2026-09-01T19:57:44Z</time>
  <course>289.22</course>
  <speed>0.19</speed>
  <fix>3d</fix>
</trkpt>
<trkpt lat="-27.2737733" lon="151.2899103">
  <ele>354.75</ele>
  <time>2026-09-01T19:57:44Z</time>
  <course>107.1</course>
  <speed>0.194164878389476</speed>
  <fix>3d</fix>
</trkpt>
<trkpt lat="-27.2737733" lon="151.2899103">
  <ele>354.52</ele>
  <time>2026-09-01T19:57:44Z</time>
  <course>290.31</course>
  <speed>0.21</speed>
  <fix>3d</fix>
</trkpt>
<trkpt lat="-27.2737733" lon="151.2899101">
  <ele>355.01</ele>
  <time>2026-09-01T19:57:44Z</time>
  <course>107.06</course>
  <speed>0.194164878389476</speed>
  <fix>3d</fix>
</trkpt>
<trkpt lat="-27.2737733" lon="151.2899103">
  <ele>354.52</ele>
  <time>2026-09-01T19:57:44Z</time>
  <course>290.31</course>
  <speed>0.21</speed>
  <fix>3d</fix>
</trkpt>
<trkpt lat="-27.2737732" lon="151.2899098">
  <ele>355.26</ele>
  <time>2026-09-01T19:57:44Z</time>
  <course>106.96</course>
  <speed>0.2039607805437114</speed>
  <fix>3d</fix>
</trkpt>
<trkpt lat="-27.2737731" lon="151.2899099">
  <ele>355.02</ele>
  <time>2026-09-01T19:57:44Z</time>
  <course>290.94</course>
  <speed>0.22</speed>
  <fix>3d</fix>
</trkpt>
<trkpt lat="-27.2737732" lon="151.2899096">
  <ele>355.51</ele>
  <time>2026-09-01T19:57:44Z</time>
  <course>106.85</course>
  <speed>0.2039607805437114</speed>
  <fix>3d</fix>
</trkpt>
<trkpt lat="-27.2737731" lon="151.2899099">
  <ele>355.02</ele>
  <time>2026-09-01T19:57:44Z</time>
  <course>290.94</course>
  <speed>0.22</speed>
  <fix>3d</fix>
</trkpt>
<trkpt lat="-27.2737731" lon="151.2899094">
  <ele>355.76</ele>
  <time>2026-09-01T19:57:44Z</time>
  <course>106.75</course>
  <speed>0.2039607805437114</speed>
  <fix>3d</fix>
</trkpt>
<trkpt lat="-27.273773" lon="151.2899095">
  <ele>355.53</ele>
  <time>2026-09-01T19:57:44Z</time>
  <course>290.82</course>
  <speed>0.23</speed>
  <fix>3d</fix>
</trkpt>
<trkpt lat="-27.273773" lon="151.2899092">
  <ele>356.01</ele>
  <time>2026-09-01T19:57:44Z</time>
  <course>106.68</course>
  <speed>0.2039607805437114</speed>
  <fix>3d</fix>
</trkpt>
<trkpt lat="-27.273773" lon="151.2899095">
  <ele>355.53</ele>
  <time>2026-09-01T19:57:44Z</time>
  <course>290.82</course>
  <speed>0.23</speed>
  <fix>3d</fix>
</trkpt>
<trkpt lat="-27.273773" lon="151.289909">
  <ele>356.26</ele>
  <time>2026-09-01T19:57:44Z</time>
  <course>106.64</course>
  <speed>0.20615528128088303</speed>
  <fix>3d</fix>
</trkpt>
<trkpt lat="-27.2737728" lon="151.289909">
  <ele>356.04</ele>
  <time>2026-09-01T19:57:44Z</time>
  <course>290.93</course>
  <speed>0.23</speed>
  <fix>3d</fix>
</trkpt>
<trkpt lat="-27.2737729" lon="151.2899088">
  <ele>356.51</ele>
  <time>2026-09-01T19:57:44Z</time>
  <course>106.61</course>
  <speed>0.194164878389476</speed>
  <fix>3d</fix>
</trkpt>
<trkpt lat="-27.2737728" lon="151.289909">
  <ele>356.04</ele>
  <time>2026-09-01T19:57:44Z</time>
  <course>290.93</course>
  <speed>0.23</speed>
  <fix>3d</fix>
</trkpt>
<trkpt lat="-27.2737728" lon="151.2899086">
  <ele>356.76</ele>
  <time>2026-09-01T19:57:44Z</time>
  <course>106.6</course>
  <speed>0.196468827043885</speed>
  <fix>3d</fix>
</trkpt>
<trkpt lat="-27.2737728" lon="151.289909">
  <ele>356.04</ele>
  <time>2026-09-01T19:57:44Z</time>
  <course>290.93</course>
  <speed>0.23</speed>
  <fix>3d</fix>
</trkpt>
<trkpt lat="-27.2737728" lon="151.2899083">
  <ele>357.01</ele>
  <time>2026-09-01T19:57:44Z</time>
  <course>106.59</course>
  <speed>0.196468827043885</speed>
  <fix>3d</fix>
</trkpt>
<trkpt lat="-27.2737727" lon="151.2899086">
  <ele>356.54</ele>
  <time>2026-09-01T19:57:44Z</time>
  <course>291.04</course>
  <speed>0.23</speed>
  <fix>3d</fix>
</trkpt>
<trkpt lat="-27.2737727" lon="151.2899081">
  <ele>357.26</ele>
  <time>2026-09-01T19:57:44Z</time>
  <course>106.6</course>
  <speed>0.196468827043885</speed>
  <fix>3d</fix>
</trkpt>
<trkpt lat="-27.2737727" lon="151.2899086">
  <ele>356.54</ele>
  <time>2026-09-01T19:57:44Z</time>
  <course>291.04</course>
  <speed>0.23</speed>
  <fix>3d</fix>
</trkpt>
<trkpt lat="-27.2737726" lon="151.2899079">
  <ele>357.51</ele>
  <time>2026-09-01T19:57:44Z</time>
  <course>106.61</course>
  <speed>0.18681541692269404</speed>
  <fix>3d</fix>
</trkpt>
<trkpt lat="-27.2737725" lon="151.2899081">
  <ele>357.05</ele>
  <time>2026-09-01T19:57:44Z</time>
  <course>291.05</course>
  <speed>0.23</speed>
  <fix>3d</fix>
</trkpt>
<trkpt lat="-27.2737725" lon="151.2899077">
  <ele>357.76</ele>
  <time>2026-09-01T19:57:44Z</time>
  <course>106.6</course>
  <speed>0.18681541692269404</speed>
  <fix>3d</fix>
</trkpt>
<trkpt lat="-27.2737725" lon="151.2899081">
  <ele>357.05</ele>
  <time>2026-09-01T19:57:44Z</time>
  <course>291.05</course>
  <speed>0.23</speed>
  <fix>3d</fix>
</trkpt>
<trkpt lat="-27.2737725" lon="151.2899075">
  <ele>358.01</ele>
  <time>2026-09-01T19:57:44Z</time>
  <course>106.61</course>
  <speed>0.18681541692269404</speed>
  <fix>3d</fix>
</trkpt>
<trkpt lat="-27.2737724" lon="151.2899077">
  <ele>357.55</ele>
  <time>2026-09-01T19:57:44Z</time>
  <course>291.07</course>
  <speed>0.22</speed>
  <fix>3d</fix>
</trkpt>
<trkpt lat="-27.2737724" lon="151.2899073">
  <ele>358.27</ele>
  <time>2026-09-01T19:57:44Z</time>
  <course>106.62</course>
  <speed>0.1772004514666935</speed>
  <fix>3d</fix>
</trkpt>
<trkpt lat="-27.2737724" lon="151.2899077">
  <ele>357.55</ele>
  <time>2026-09-01T19:57:44Z</time>
  <course>291.07</course>
  <speed>0.22</speed>
  <fix>3d</fix>
</trkpt>
<trkpt lat="-27.2737723" lon="151.2899071">
  <ele>358.52</ele>
  <time>2026-09-01T19:57:44Z</time>
  <course>106.64</course>
  <speed>0.1772004514666935</speed>
  <fix>3d</fix>
</trkpt>
<trkpt lat="-27.2737722" lon="151.2899072">
  <ele>358.06</ele>
  <time>2026-09-01T19:57:44Z</time>
  <course>291.02</course>
  <speed>0.22</speed>
  <fix>3d</fix>
</trkpt>
<trkpt lat="-27.2737722" lon="151.2899069">
  <ele>358.78</ele>
  <time>2026-09-01T19:57:44Z</time>
  <course>106.66</course>
  <speed>0.1772004514666935</speed>
  <fix>3d</fix>
</trkpt>
<trkpt lat="-27.2737722" lon="151.2899072">
  <ele>358.06</ele>
  <time>2026-09-01T19:57:44Z</time>
  <course>291.02</course>
  <speed>0.22</speed>
  <fix>3d</fix>
</trkpt>
<trkpt lat="-27.2737722" lon="151.2899067">
  <ele>359.03</ele>
  <time>2026-09-01T19:57:44Z</time>
  <course>106.69</course>
  <speed>0.1708800749063506</speed>
  <fix>3d</fix>
</trkpt>
<trkpt lat="-27.2737721" lon="151.2899069">
  <ele>358.56</ele>
  <time>2026-09-01T19:57:44Z</time>
  <course>291.06</course>
  <speed>0.21</speed>
  <fix>3d</fix>
</trkpt>
<trkpt lat="-27.2737721" lon="151.2899065">
  <ele>359.29</ele>
  <time>2026-09-01T19:57:44Z</time>
  <course>106.71</course>
  <speed>0.1676305461424021</speed>
  <fix>3d</fix>
</trkpt>
<trkpt lat="-27.2737721" lon="151.2899069">
  <ele>358.56</ele>
  <time>2026-09-01T19:57:44Z</time>
  <course>291.06</course>
  <speed>0.21</speed>
  <fix>3d</fix>
</trkpt>
<trkpt lat="-27.273772" lon="151.2899063">
  <ele>359.55</ele>
  <time>2026-09-01T19:57:44Z</time>
  <course>106.74</course>
  <speed>0.1615549442140351</speed>
  <fix>3d</fix>
</trkpt>
<trkpt lat="-27.2737719" lon="151.2899064">
  <ele>359.07</ele>
  <time>2026-09-01T19:57:44Z</time>
  <course>291.17</course>
  <speed>0.2</speed>
  <fix>3d</fix>
</trkpt>
<trkpt lat="-27.2737719" lon="151.2899062">
  <ele>359.8</ele>
  <time>2026-09-01T19:57:44Z</time>
  <course>106.77</course>
  <speed>0.15811388300841897</speed>
  <fix>3d</fix>
</trkpt>
<trkpt lat="-27.2737718" lon="151.2899061">
  <ele>359.57</ele>
  <time>2026-09-01T19:57:44Z</time>
  <course>290.98</course>
  <speed>0.2</speed>
  <fix>3d</fix>
</trkpt>
<trkpt lat="-27.2737719" lon="151.289906">
  <ele>360.05</ele>
  <time>2026-09-01T19:57:44Z</time>
  <course>106.8</course>
  <speed>0.15231546211727817</speed>
  <fix>3d</fix>
</trkpt>
<trkpt lat="-27.2737718" lon="151.2899061">
  <ele>359.57</ele>
  <time>2026-09-01T19:57:44Z</time>
  <course>290.98</course>
  <speed>0.2</speed>
  <fix>3d</fix>
</trkpt>
<trkpt lat="-27.2737718" lon="151.2899058">
  <ele>360.3</ele>
  <time>2026-09-01T19:57:44Z</time>
  <course>106.84</course>
  <speed>0.15231546211727817</speed>
  <fix>3d</fix>
</trkpt>
<trkpt lat="-27.2737717" lon="151.2899057">
  <ele>360.08</ele>
  <time>2026-09-01T19:57:44Z</time>
  <course>290.76</course>
  <speed>0.19</speed>
  <fix>3d</fix>
</trkpt>
<trkpt lat="-27.2737717" lon="151.2899057">
  <ele>360.55</ele>
  <time>2026-09-01T19:57:44Z</time>
  <course>106.88</course>
  <speed>0.14317821063276354</speed>
  <fix>3d</fix>
</trkpt>
<trkpt lat="-27.2737717" lon="151.2899057">
  <ele>360.08</ele>
  <time>2026-09-01T19:57:44Z</time>
  <course>290.76</course>
  <speed>0.19</speed>
  <fix>3d</fix>
</trkpt>
<trkpt lat="-27.2737717" lon="151.2899055">
  <ele>360.81</ele>
  <time>2026-09-01T19:57:44Z</time>
  <course>106.9</course>
  <speed>0.1392838827718412</speed>
  <fix>3d</fix>
</trkpt>
<trkpt lat="-27.2737715" lon="151.2899053">
  <ele>360.58</ele>
  <time>2026-09-01T19:57:44Z</time>
  <course>290.76</course>
  <speed>0.18</speed>
  <fix>3d</fix>
</trkpt>
<trkpt lat="-27.2737716" lon="151.2899053">
  <ele>361.06</ele>
  <time>2026-09-01T19:57:44Z</time>
  <course>106.93</course>
  <speed>0.13</speed>
  <fix>3d</fix>
</trkpt>
<trkpt lat="-27.2737715" lon="151.2899053">
  <ele>360.58</ele>
  <time>2026-09-01T19:57:44Z</time>
  <course>290.76</course>
  <speed>0.18</speed>
  <fix>3d</fix>
</trkpt>
<trkpt lat="-27.2737716" lon="151.2899052">
  <ele>361.31</ele>
  <time>2026-09-01T19:57:44Z</time>
  <course>106.96</course>
  <speed>0.1264911064067352</speed>
  <fix>3d</fix>
</trkpt>
<trkpt lat="-27.2737714" lon="151.289905">
  <ele>361.08</ele>
  <time>2026-09-01T19:57:44Z</time>
  <course>291.1</course>
  <speed>0.17</speed>
  <fix>3d</fix>
</trkpt>
<trkpt lat="-27.2737715" lon="151.289905">
  <ele>361.56</ele>
  <time>2026-09-01T19:57:44Z</time>
  <course>106.98</course>
  <speed>0.12083045973594572</speed>
  <fix>3d</fix>
</trkpt>
<trkpt lat="-27.2737714" lon="151.289905">
  <ele>361.08</ele>
  <time>2026-09-01T19:57:44Z</time>
  <course>291.1</course>
  <speed>0.17</speed>
  <fix>3d</fix>
</trkpt>
<trkpt lat="-27.2737714" lon="151.2899049">
  <ele>361.81</ele>
  <time>2026-09-01T19:57:44Z</time>
  <course>106.98</course>
  <speed>0.12083045973594572</speed>
  <fix>3d</fix>
</trkpt>
<trkpt lat="-27.2737713" lon="151.2899047">
  <ele>361.58</ele>
  <time>2026-09-01T19:57:44Z</time>
  <course>291.5</course>
  <speed>0.15</speed>
  <fix>3d</fix>
</trkpt>
<trkpt lat="-27.2737714" lon="151.2899047">
  <ele>362.06</ele>
  <time>2026-09-01T19:57:44Z</time>
  <course>106.97</course>
  <speed>0.10770329614269007</speed>
  <fix>3d</fix>
</trkpt>
<trkpt lat="-27.2737713" lon="151.2899047">
  <ele>361.58</ele>
  <time>2026-09-01T19:57:44Z</time>
  <course>291.5</course>
  <speed>0.15</speed>
  <fix>3d</fix>
</trkpt>
<trkpt lat="-27.2737713" lon="151.2899046">
  <ele>362.31</ele>
  <time>2026-09-01T19:57:44Z</time>
  <course>106.97</course>
  <speed>0.10770329614269007</speed>
  <fix>3d</fix>
</trkpt>
<trkpt lat="-27.2737712" lon="151.2899044">
  <ele>362.07</ele>
  <time>2026-09-01T19:57:44Z</time>
  <course>291.21</course>
  <speed>0.14</speed>
  <fix>3d</fix>
</trkpt>
<trkpt lat="-27.2737713" lon="151.2899045">
  <ele>362.56</ele>
  <time>2026-09-01T19:57:44Z</time>
  <course>106.99</course>
  <speed>0.09848857801796104</speed>
  <fix>3d</fix>
</trkpt>
<trkpt lat="-27.2737712" lon="151.2899044">
  <ele>362.07</ele>
  <time>2026-09-01T19:57:44Z</time>
  <course>291.21</course>
  <speed>0.14</speed>
  <fix>3d</fix>
</trkpt>
<trkpt lat="-27.2737712" lon="151.2899043">
  <ele>362.81</ele>
  <time>2026-09-01T19:57:45Z</time>
  <course>107.02</course>
  <speed>0.08944271909999159</speed>
  <fix>3d</fix>
</trkpt>
<trkpt lat="-27.2737711" lon="151.2899041">
  <ele>362.57</ele>
  <time>2026-09-01T19:57:45Z</time>
  <course>291.17</course>
  <speed>0.13</speed>
  <fix>3d</fix>
</trkpt>
<trkpt lat="-27.2737712" lon="151.2899042">
  <ele>363.06</ele>
  <time>2026-09-01T19:57:45Z</time>
  <course>107.06</course>
  <speed>0.09433981132056603</speed>
  <fix>3d</fix>
</trkpt>
<trkpt lat="-27.2737711" lon="151.2899041">
  <ele>362.57</ele>
  <time>2026-09-01T19:57:45Z</time>
  <course>291.17</course>
  <speed>0.13</speed>
  <fix>3d</fix>
</trkpt>
<trkpt lat="-27.2737711" lon="151.2899041">
  <ele>363.31</ele>
  <time>2026-09-01T19:57:45Z</time>
  <course>107.1</course>
  <speed>0.08602325267042626</speed>
  <fix>3d</fix>
</trkpt>
<trkpt lat="-27.273771" lon="151.2899039">
  <ele>363.07</ele>
  <time>2026-09-01T19:57:45Z</time>
  <course>291.75</course>
  <speed>0.12</speed>
  <fix>3d</fix>
</trkpt>
<trkpt lat="-27.2737711" lon="151.289904">
  <ele>363.56</ele>
  <time>2026-09-01T19:57:45Z</time>
  <course>107.14</course>
  <speed>0.08602325267042626</speed>
  <fix>3d</fix>
</trkpt>
<trkpt lat="-27.273771" lon="151.2899039">
  <ele>363.07</ele>
  <time>2026-09-01T19:57:45Z</time>
  <course>291.75</course>
  <speed>0.12</speed>
  <fix>3d</fix>
</trkpt>
<trkpt lat="-27.273771" lon="151.2899039">
  <ele>363.8</ele>
  <time>2026-09-01T19:57:45Z</time>
  <course>107.16</course>
  <speed>0.07211102550927978</speed>
  <fix>3d</fix>
</trkpt>
<trkpt lat="-27.273771" lon="151.2899039">
  <ele>363.07</ele>
  <time>2026-09-01T19:57:45Z</time>
  <course>291.75</course>
  <speed>0.12</speed>
  <fix>3d</fix>
</trkpt>
<trkpt lat="-27.273771" lon="151.2899038">
  <ele>364.05</ele>
  <time>2026-09-01T19:57:45Z</time>
  <course>107.19</course>
  <speed>0.07211102550927978</speed>
  <fix>3d</fix>
</trkpt>
<trkpt lat="-27.273771" lon="151.2899037">
  <ele>363.56</ele>
  <time>2026-09-01T19:57:45Z</time>
  <course>291.98</course>
  <speed>0.11</speed>
  <fix>3d</fix>
</trkpt>
<trkpt lat="-27.2737709" lon="151.2899037">
  <ele>364.3</ele>
  <time>2026-09-01T19:57:45Z</time>
  <course>107.2</course>
  <speed>0.06403124237432849</speed>
  <fix>3d</fix>
</trkpt>
<trkpt lat="-27.273771" lon="151.2899037">
  <ele>363.56</ele>
  <time>2026-09-01T19:57:45Z</time>
  <course>291.98</course>
  <speed>0.11</speed>
  <fix>3d</fix>
</trkpt>
<trkpt lat="-27.2737709" lon="151.2899036">
  <ele>364.55</ele>
  <time>2026-09-01T19:57:45Z</time>
  <course>107.23</course>
  <speed>0.0565685424949238</speed>
  <fix>3d</fix>
</trkpt>
<trkpt lat="-27.2737709" lon="151.2899034">
  <ele>364.06</ele>
  <time>2026-09-01T19:57:45Z</time>
  <course>291.98</course>
  <speed>0.1</speed>
  <fix>3d</fix>
</trkpt>
<trkpt lat="-27.2737708" lon="151.2899036">
  <ele>364.81</ele>
  <time>2026-09-01T19:57:45Z</time>
  <course>107.26</course>
  <speed>0.0565685424949238</speed>
  <fix>3d</fix>
</trkpt>
<trkpt lat="-27.2737708" lon="151.2899033">
  <ele>364.56</ele>
  <time>2026-09-01T19:57:45Z</time>
  <course>292.14</course>
  <speed>0.09</speed>
  <fix>3d</fix>
</trkpt>
<trkpt lat="-27.2737708" lon="151.2899035">
  <ele>365.05</ele>
  <time>2026-09-01T19:57:45Z</time>
  <course>107.29</course>
  <speed>0.05</speed>
  <fix>3d</fix>
</trkpt>
<trkpt lat="-27.2737708" lon="151.2899033">
  <ele>364.56</ele>
  <time>2026-09-01T19:57:45Z</time>
  <course>292.14</course>
  <speed>0.09</speed>
  <fix>3d</fix>
</trkpt>
<trkpt lat="-27.2737707" lon="151.2899034">
  <ele>365.3</ele>
  <time>2026-09-01T19:57:45Z</time>
  <course>107.31</course>
  <speed>0.05</speed>
  <fix>3d</fix>
</trkpt>
<trkpt lat="-27.2737708" lon="151.2899031">
  <ele>365.05</ele>
  <time>2026-09-01T19:57:45Z</time>
  <course>291.87</course>
  <speed>0.07</speed>
  <fix>3d</fix>
</trkpt>
<trkpt lat="-27.2737707" lon="151.2899033">
  <ele>365.55</ele>
  <time>2026-09-01T19:57:45Z</time>
  <course>107.33</course>
  <speed>0.044721359549995794</speed>
  <fix>3d</fix>
</trkpt>
<trkpt lat="-27.2737708" lon="151.2899031">
  <ele>365.05</ele>
  <time>2026-09-01T19:57:45Z</time>
  <course>291.87</course>
  <speed>0.07</speed>
  <fix>3d</fix>
</trkpt>
<trkpt lat="-27.2737707" lon="151.2899033">
  <ele>365.8</ele>
  <time>2026-09-01T19:57:45Z</time>
  <course>107.35</course>
  <speed>0.044721359549995794</speed>
  <fix>3d</fix>
</trkpt>
<trkpt lat="-27.2737707" lon="151.2899029">
  <ele>365.55</ele>
  <time>2026-09-01T19:57:45Z</time>
  <course>290.32</course>
  <speed>0.06</speed>
  <fix>3d</fix>
</trkpt>
<trkpt lat="-27.2737707" lon="151.2899032">
  <ele>366.04</ele>
  <time>2026-09-01T19:57:45Z</time>
  <course>107.39</course>
  <speed>0.0412310562561766</speed>
  <fix>3d</fix>
</trkpt>
<trkpt lat="-27.2737707" lon="151.2899029">
  <ele>365.55</ele>
  <time>2026-09-01T19:57:45Z</time>
  <course>290.32</course>
  <speed>0.06</speed>
  <fix>3d</fix>
</trkpt>
<trkpt lat="-27.2737706" lon="151.2899032">
  <ele>366.29</ele>
  <time>2026-09-01T19:57:45Z</time>
  <course>107.42</course>
  <speed>0.0412310562561766</speed>
  <fix>3d</fix>
</trkpt>
<trkpt lat="-27.2737707" lon="151.2899028">
  <ele>366.05</ele>
  <time>2026-09-01T19:57:45Z</time>
  <course>288.44</course>
  <speed>0.05</speed>
  <fix>3d</fix>
</trkpt>
<trkpt lat="-27.2737706" lon="151.2899031">
  <ele>366.54</ele>
  <time>2026-09-01T19:57:45Z</time>
  <course>107.46</course>
  <speed>0.03</speed>
  <fix>3d</fix>
</trkpt>
<trkpt lat="-27.2737707" lon="151.2899028">
  <ele>366.05</ele>
  <time>2026-09-01T19:57:45Z</time>
  <course>288.44</course>
  <speed>0.05</speed>
  <fix>3d</fix>
</trkpt>
<trkpt lat="-27.2737706" lon="151.2899031">
  <ele>366.79</ele>
  <time>2026-09-01T19:57:45Z</time>
  <course>107.49</course>
  <speed>0.03</speed>
  <fix>3d</fix>
</trkpt>
<trkpt lat="-27.2737707" lon="151.2899027">
  <ele>366.55</ele>
  <time>2026-09-01T19:57:45Z</time>
  <course>287.28</course>
  <speed>0.04</speed>
  <fix>3d</fix>
</trkpt>
<trkpt lat="-27.2737706" lon="151.289903">
  <ele>367.04</ele>
  <time>2026-09-01T19:57:45Z</time>
  <course>107.53</course>
  <speed>0.03</speed>
  <fix>3d</fix>
</trkpt>
<trkpt lat="-27.2737707" lon="151.2899027">
  <ele>366.55</ele>
  <time>2026-09-01T19:57:45Z</time>
  <course>287.28</course>
  <speed>0.04</speed>
  <fix>3d</fix>
</trkpt>
<trkpt lat="-27.2737705" lon="151.289903">
  <ele>367.29</ele>
  <time>2026-09-01T19:57:45Z</time>
  <course>107.55</course>
  <speed>0.03</speed>
  <fix>3d</fix>
</trkpt>
<trkpt lat="-27.2737707" lon="151.2899027">
  <ele>367.05</ele>
  <time>2026-09-01T19:57:45Z</time>
  <course>285.48</course>
  <speed>0.03</speed>
  <fix>3d</fix>
</trkpt>
<trkpt lat="-27.2737705" lon="151.289903">
  <ele>367.54</ele>
  <time>2026-09-01T19:57:45Z</time>
  <course>107.56</course>
  <speed>0.0316227766016838</speed>
  <fix>3d</fix>
</trkpt>
<trkpt lat="-27.2737707" lon="151.2899027">
  <ele>367.05</ele>
  <time>2026-09-01T19:57:45Z</time>
  <course>285.48</course>
  <speed>0.03</speed>
  <fix>3d</fix>
</trkpt>
<trkpt lat="-27.2737705" lon="151.289903">
  <ele>367.8</ele>
  <time>2026-09-01T19:57:45Z</time>
  <course>107.56</course>
  <speed>0.0316227766016838</speed>
  <fix>3d</fix>
</trkpt>
<trkpt lat="-27.2737707" lon="151.2899026">
  <ele>367.55</ele>
  <time>2026-09-01T19:57:45Z</time>
  <course>281.49</course>
  <speed>0.02</speed>
  <fix>3d</fix>
</trkpt>
<trkpt lat="-27.2737705" lon="151.2899029">
  <ele>368.05</ele>
  <time>2026-09-01T19:57:45Z</time>
  <course>107.58</course>
  <speed>0.03605551275463989</speed>
  <fix>3d</fix>
</trkpt>
<trkpt lat="-27.2737707" lon="151.2899026">
  <ele>367.55</ele>
  <time>2026-09-01T19:57:45Z</time>
  <course>281.49</course>
  <speed>0.02</speed>
  <fix>3d</fix>
</trkpt>
<trkpt lat="-27.2737705" lon="151.2899029">
  <ele>368.3</ele>
  <time>2026-09-01T19:57:45Z</time>
  <course>107.59</course>
  <speed>0.0282842712474619</speed>
  <fix>3d</fix>
</trkpt>
<trkpt lat="-27.2737706" lon="151.2899026">
  <ele>368.05</ele>
  <time>2026-09-01T19:57:45Z</time>
  <course>273.61</course>
  <speed>0.01</speed>
  <fix>3d</fix>
</trkpt>
<trkpt lat="-27.2737705" lon="151.2899029">
  <ele>368.55</ele>
  <time>2026-09-01T19:57:45Z</time>
  <course>107.59</course>
  <speed>0.0282842712474619</speed>
  <fix>3d</fix>
</trkpt>
<trkpt lat="-27.2737706" lon="151.2899026">
  <ele>368.05</ele>
  <time>2026-09-01T19:57:45Z</time>
  <course>273.61</course>
  <speed>0.01</speed>
  <fix>3d</fix>
</trkpt>
<trkpt lat="-27.2737705" lon="151.2899029">
  <ele>368.8</ele>
  <time>2026-09-01T19:57:45Z</time>
  <course>107.6</course>
  <speed>0.03605551275463989</speed>
  <fix>3d</fix>
</trkpt>
<trkpt lat="-27.2737706" lon="151.2899026">
  <ele>368.55</ele>
  <time>2026-09-01T19:57:45Z</time>
  <course>251.0</course>
  <speed>0.0</speed>
  <fix>3d</fix>
</trkpt>
<trkpt lat="-27.2737705" lon="151.2899029">
  <ele>369.05</ele>
  <time>2026-09-01T19:57:45Z</time>
  <course>107.61</course>
  <speed>0.03605551275463989</speed>
  <fix>3d</fix>
</trkpt>
<trkpt lat="-27.2737706" lon="151.2899026">
  <ele>368.55</ele>
  <time>2026-09-01T19:57:45Z</time>
  <course>251.0</course>
  <speed>0.0</speed>
  <fix>3d</fix>
</trkpt>
<trkpt lat="-27.2737705" lon="151.2899029">
  <ele>369.3</ele>
  <time>2026-09-01T19:57:45Z</time>
  <course>107.61</course>
  <speed>0.03605551275463989</speed>
  <fix>3d</fix>
</trkpt>
<trkpt lat="-27.2737707" lon="151.2899026">
  <ele>369.04</ele>
  <time>2026-09-01T19:57:45Z</time>
  <course>198.18</course>
  <speed>0.0</speed>
  <fix>3d</fix>
</trkpt>
<trkpt lat="-27.2737705" lon="151.2899029">
  <ele>369.55</ele>
  <time>2026-09-01T19:57:45Z</time>
  <course>107.62</course>
  <speed>0.03605551275463989</speed>
  <fix>3d</fix>
</trkpt>
<trkpt lat="-27.2737707" lon="151.2899026">
  <ele>369.04</ele>
  <time>2026-09-01T19:57:45Z</time>
  <course>198.18</course>
  <speed>0.0</speed>
  <fix>3d</fix>
</trkpt>
<trkpt lat="-27.2737705" lon="151.2899029">
  <ele>369.8</ele>
  <time>2026-09-01T19:57:45Z</time>
  <course>107.63</course>
  <speed>0.044721359549995794</speed>
  <fix>3d</fix>
</trkpt>
<trkpt lat="-27.2737707" lon="151.2899026">
  <ele>369.54</ele>
  <time>2026-09-01T19:57:45Z</time>
  <course>170.08</course>
  <speed>0.01</speed>
  <fix>3d</fix>
</trkpt>
<trkpt lat="-27.2737705" lon="151.2899029">
  <ele>370.05</ele>
  <time>2026-09-01T19:57:45Z</time>
  <course>107.65</course>
  <speed>0.0412310562561766</speed>
  <fix>3d</fix>
</trkpt>
<trkpt lat="-27.2737707" lon="151.2899026">
  <ele>369.54</ele>
  <time>2026-09-01T19:57:45Z</time>
  <course>170.08</course>
  <speed>0.01</speed>
  <fix>3d</fix>
</trkpt>
<trkpt lat="-27.2737705" lon="151.2899029">
  <ele>370.29</ele>
  <time>2026-09-01T19:57:45Z</time>
  <course>107.66</course>
  <speed>0.0412310562561766</speed>
  <fix>3d</fix>
</trkpt>
<trkpt lat="-27.2737707" lon="151.2899026">
  <ele>370.04</ele>
  <time>2026-09-01T19:57:45Z</time>
  <course>160.86</course>
  <speed>0.01</speed>
  <fix>3d</fix>
</trkpt>
<trkpt lat="-27.2737705" lon="151.2899029">
  <ele>370.54</ele>
  <time>2026-09-01T19:57:45Z</time>
  <course>107.69</course>
  <speed>0.0412310562561766</speed>
  <fix>3d</fix>
</trkpt>
<trkpt lat="-27.2737707" lon="151.2899026">
  <ele>370.04</ele>
  <time>2026-09-01T19:57:45Z</time>
  <course>160.86</course>
  <speed>0.01</speed>
  <fix>3d</fix>
</trkpt>
<trkpt lat="-27.2737705" lon="151.2899029">
  <ele>370.79</ele>
  <time>2026-09-01T19:57:45Z</time>
  <course>107.69</course>
  <speed>0.0412310562561766</speed>
  <fix>3d</fix>
</trkpt>
<trkpt lat="-27.2737707" lon="151.2899026">
  <ele>370.54</ele>
  <time>2026-09-01T19:57:45Z</time>
  <course>154.91</course>
  <speed>0.01</speed>
  <fix>3d</fix>
</trkpt>
<trkpt lat="-27.2737706" lon="151.2899029">
  <ele>371.04</ele>
  <time>2026-09-01T19:57:45Z</time>
  <course>107.69</course>
  <speed>0.0412310562561766</speed>
  <fix>3d</fix>
</trkpt>
<trkpt lat="-27.2737707" lon="151.2899026">
  <ele>370.54</ele>
  <time>2026-09-01T19:57:45Z</time>
  <course>154.91</course>
  <speed>0.01</speed>
  <fix>3d</fix>
</trkpt>
<trkpt lat="-27.2737706" lon="151.2899029">
  <ele>371.29</ele>
  <time>2026-09-01T19:57:45Z</time>
  <course>107.69</course>
  <speed>0.05099019513592785</speed>
  <fix>3d</fix>
</trkpt>
<trkpt lat="-27.2737707" lon="151.2899026">
  <ele>371.04</ele>
  <time>2026-09-01T19:57:45Z</time>
  <course>151.05</course>
  <speed>0.02</speed>
  <fix>3d</fix>
</trkpt>
<trkpt lat="-27.2737706" lon="151.2899029">
  <ele>371.54</ele>
  <time>2026-09-01T19:57:45Z</time>
  <course>107.7</course>
  <speed>0.05099019513592785</speed>
  <fix>3d</fix>
</trkpt>
<trkpt lat="-27.2737707" lon="151.2899026">
  <ele>371.04</ele>
  <time>2026-09-01T19:57:45Z</time>
  <course>151.05</course>
  <speed>0.02</speed>
  <fix>3d</fix>
</trkpt>
<trkpt lat="-27.2737706" lon="151.289903">
  <ele>371.79</ele>
  <time>2026-09-01T19:57:45Z</time>
  <course>107.7</course>
  <speed>0.05099019513592785</speed>
  <fix>3d</fix>
</trkpt>
<trkpt lat="-27.2737707" lon="151.2899026">
  <ele>371.54</ele>
  <time>2026-09-01T19:57:45Z</time>
  <course>148.09</course>
  <speed>0.02</speed>
  <fix>3d</fix>
</trkpt>
<trkpt lat="-27.2737706" lon="151.289903">
  <ele>372.04</ele>
  <time>2026-09-01T19:57:45Z</time>
  <course>107.71</course>
  <speed>0.05099019513592785</speed>
  <fix>3d</fix>
</trkpt>
<trkpt lat="-27.2737707" lon="151.2899026">
  <ele>371.54</ele>
  <time>2026-09-01T19:57:45Z</time>
  <course>148.09</course>
  <speed>0.02</speed>
  <fix>3d</fix>
</trkpt>
<trkpt lat="-27.2737706" lon="151.289903">
  <ele>372.28</ele>
  <time>2026-09-01T19:57:45Z</time>
  <course>107.71</course>
  <speed>0.05099019513592785</speed>
  <fix>3d</fix>
</trkpt>
<trkpt lat="-27.2737707" lon="151.2899026">
  <ele>372.04</ele>
  <time>2026-09-01T19:57:45Z</time>
  <course>144.82</course>
  <speed>0.02</speed>
  <fix>3d</fix>
</trkpt>
<trkpt lat="-27.2737706" lon="151.289903">
  <ele>372.54</ele>
  <time>2026-09-01T19:57:45Z</time>
  <course>107.71</course>
  <speed>0.05099019513592785</speed>
  <fix>3d</fix>
</trkpt>
<trkpt lat="-27.2737707" lon="151.2899026">
  <ele>372.04</ele>
  <time>2026-09-01T19:57:45Z</time>
  <course>144.82</course>
  <speed>0.02</speed>
  <fix>3d</fix>
</trkpt>
<trkpt lat="-27.2737706" lon="151.289903">
  <ele>372.78</ele>
  <time>2026-09-01T19:57:45Z</time>
  <course>107.7</course>
  <speed>0.06082762530298219</speed>
  <fix>3d</fix>
</trkpt>
<trkpt lat="-27.2737708" lon="151.2899026">
  <ele>372.54</ele>
  <time>2026-09-01T19:57:45Z</time>
  <course>142.4</course>
  <speed>0.03</speed>
  <fix>3d</fix>
</trkpt>
<trkpt lat="-27.2737706" lon="151.289903">
  <ele>373.03</ele>
  <time>2026-09-01T19:57:45Z</time>
  <course>107.7</course>
  <speed>0.06</speed>
  <fix>3d</fix>
</trkpt>
<trkpt lat="-27.2737708" lon="151.2899026">
  <ele>372.54</ele>
  <time>2026-09-01T19:57:45Z</time>
  <course>142.4</course>
  <speed>0.03</speed>
  <fix>3d</fix>
</trkpt>
<trkpt lat="-27.2737706" lon="151.2899031">
  <ele>373.29</ele>
  <time>2026-09-01T19:57:45Z</time>
  <course>107.7</course>
  <speed>0.06</speed>
  <fix>3d</fix>
</trkpt>
<trkpt lat="-27.2737708" lon="151.2899026">
  <ele>373.04</ele>
  <time>2026-09-01T19:57:45Z</time>
  <course>139.99</course>
  <speed>0.03</speed>
  <fix>3d</fix>
</trkpt>
<trkpt lat="-27.2737706" lon="151.2899031">
  <ele>373.54</ele>
  <time>2026-09-01T19:57:45Z</time>
  <course>107.74</course>
  <speed>0.09</speed>
  <fix>3d</fix>
</trkpt>
<trkpt lat="-27.2737708" lon="151.2899026">
  <ele>373.04</ele>
  <time>2026-09-01T19:57:45Z</time>
  <course>139.99</course>
  <speed>0.03</speed>
  <fix>3d</fix>
</trkpt>
<trkpt lat="-27.2737706" lon="151.2899032">
  <ele>373.79</ele>
  <time>2026-09-01T19:57:45Z</time>
  <course>107.8</course>
  <speed>0.1824828759089466</speed>
  <fix>3d</fix>
</trkpt>
<trkpt lat="-27.2737708" lon="151.2899027">
  <ele>373.54</ele>
  <time>2026-09-01T19:57:45Z</time>
  <course>119.85</course>
  <speed>0.09</speed>
  <fix>3d</fix>
</trkpt>
<trkpt lat="-27.2737707" lon="151.2899034">
  <ele>374.04</ele>
  <time>2026-09-01T19:57:45Z</time>
  <course>107.86</course>
  <speed>0.327566787083184</speed>
  <fix>3d</fix>
</trkpt>
<trkpt lat="-27.2737708" lon="151.2899027">
  <ele>373.54</ele>
  <time>2026-09-01T19:57:45Z</time>
  <course>119.85</course>
  <speed>0.09</speed>
  <fix>3d</fix>
</trkpt>
<trkpt lat="-27.2737708" lon="151.2899038">
  <ele>374.28</ele>
  <time>2026-09-01T19:57:45Z</time>
  <course>107.95</course>
  <speed>0.5385164807134504</speed>
  <fix>3d</fix>
</trkpt>
<trkpt lat="-27.2737709" lon="151.2899031">
  <ele>374.03</ele>
  <time>2026-09-01T19:57:45Z</time>
  <course>110.98</course>
  <speed>0.32</speed>
  <fix>3d</fix>
</trkpt>
<trkpt lat="-27.273771" lon="151.2899044">
  <ele>374.5</ele>
  <time>2026-09-01T19:57:45Z</time>
  <course>108.05</course>
  <speed>0.800812087820857</speed>
  <fix>3d</fix>
</trkpt>
<trkpt lat="-27.2737709" lon="151.2899031">
  <ele>374.03</ele>
  <time>2026-09-01T19:57:45Z</time>
  <course>110.98</course>
  <speed>0.32</speed>
  <fix>3d</fix>
</trkpt>
<trkpt lat="-27.2737713" lon="151.2899053">
  <ele>374.72</ele>
  <time>2026-09-01T19:57:45Z</time>
  <course>108.01</course>
  <speed>1.126410227226298</speed>
  <fix>3d</fix>
</trkpt>
<trkpt lat="-27.2737713" lon="151.2899041">
  <ele>374.48</ele>
  <time>2026-09-01T19:57:45Z</time>
  <course>108.72</course>
  <speed>0.79</speed>
  <fix>3d</fix>
</trkpt>
<trkpt lat="-27.2737717" lon="151.2899065">
  <ele>374.91</ele>
  <time>2026-09-01T19:57:45Z</time>
  <course>108.0</course>
  <speed>1.5152887513606113</speed>
  <fix>3d</fix>
</trkpt>
<trkpt lat="-27.2737713" lon="151.2899041">
  <ele>374.48</ele>
  <time>2026-09-01T19:57:45Z</time>
  <course>108.72</course>
  <speed>0.79</speed>
  <fix>3d</fix>
</trkpt>
<trkpt lat="-27.2737721" lon="151.2899082">
  <ele>375.07</ele>
  <time>2026-09-01T19:57:45Z</time>
  <course>107.97</course>
  <speed>1.9769926656414283</speed>
  <fix>3d</fix>
</trkpt>
<trkpt lat="-27.273772" lon="151.2899062">
  <ele>374.88</ele>
  <time>2026-09-01T19:57:45Z</time>
  <course>107.71</course>
  <speed>1.5</speed>
  <fix>3d</fix>
</trkpt>
<trkpt lat="-27.2737728" lon="151.2899103">
  <ele>375.2</ele>
  <time>2026-09-01T19:57:45Z</time>
  <course>107.91</course>
  <speed>2.49899979991996</speed>
  <fix>3d</fix>
</trkpt>
<trkpt lat="-27.273772" lon="151.2899062">
  <ele>374.88</ele>
  <time>2026-09-01T19:57:45Z</time>
  <course>107.71</course>
  <speed>1.5</speed>
  <fix>3d</fix>
</trkpt>
<trkpt lat="-27.2737735" lon="151.289913">
  <ele>375.29</ele>
  <time>2026-09-01T19:57:45Z</time>
  <course>107.77</course>
  <speed>3.0717584540455</speed>
  <fix>3d</fix>
</trkpt>
<trkpt lat="-27.273773" lon="151.28991">
  <ele>375.16</ele>
  <time>2026-09-01T19:57:45Z</time>
  <course>106.97</course>
  <speed>2.47</speed>
  <fix>3d</fix>
</trkpt>
<trkpt lat="-27.2737744" lon="151.2899162">
  <ele>375.35</ele>
  <time>2026-09-01T19:57:45Z</time>
  <course>107.41</course>
  <speed>3.663686667825184</speed>
  <fix>3d</fix>
</trkpt>
<trkpt lat="-27.273773" lon="151.28991">
  <ele>375.16</ele>
  <time>2026-09-01T19:57:45Z</time>
  <course>106.97</course>
  <speed>2.47</speed>
  <fix>3d</fix>
</trkpt>
<trkpt lat="-27.2737754" lon="151.28992">
  <ele>375.38</ele>
  <time>2026-09-01T19:57:45Z</time>
  <course>107.03</course>
  <speed>4.262405424170723</speed>
  <fix>3d</fix>
</trkpt>
<trkpt lat="-27.2737746" lon="151.289916">
  <ele>375.33</ele>
  <time>2026-09-01T19:57:45Z</time>
  <course>106.23</course>
  <speed>3.6</speed>
  <fix>3d</fix>
</trkpt>
<trkpt lat="-27.2737766" lon="151.2899244">
  <ele>375.4</ele>
  <time>2026-09-01T19:57:45Z</time>
  <course>106.41</course>
  <speed>4.852968163917831</speed>
  <fix>3d</fix>
</trkpt>
<trkpt lat="-27.2737746" lon="151.289916">
  <ele>375.33</ele>
  <time>2026-09-01T19:57:45Z</time>
  <course>106.23</course>
  <speed>3.6</speed>
  <fix>3d</fix>
</trkpt>
<trkpt lat="-27.2737778" lon="151.2899294">
  <ele>375.39</ele>
  <time>2026-09-01T19:57:45Z</time>
  <course>105.71</course>
  <speed>5.460567736050896</speed>
  <fix>3d</fix>
</trkpt>
<trkpt lat="-27.2737766" lon="151.2899241">
  <ele>375.38</ele>
  <time>2026-09-01T19:57:45Z</time>
  <course>105.21</course>
  <speed>4.8</speed>
  <fix>3d</fix>
</trkpt>
<trkpt lat="-27.2737791" lon="151.2899349">
  <ele>375.38</ele>
  <time>2026-09-01T19:57:45Z</time>
  <course>104.84</course>
  <speed>6.058621955527511</speed>
  <fix>3d</fix>
</trkpt>
<trkpt lat="-27.2737766" lon="151.2899241">
  <ele>375.38</ele>
  <time>2026-09-01T19:57:45Z</time>
  <course>105.21</course>
  <speed>4.8</speed>
  <fix>3d</fix>
</trkpt>
<trkpt lat="-27.2737804" lon="151.2899411">
  <ele>375.36</ele>
  <time>2026-09-01T19:57:45Z</time>
  <course>103.93</course>
  <speed>6.650751837198559</speed>
  <fix>3d</fix>
</trkpt>
<trkpt lat="-27.2737791" lon="151.2899347">
  <ele>375.37</ele>
  <time>2026-09-01T19:57:45Z</time>
  <course>103.75</course>
  <speed>5.99</speed>
  <fix>3d</fix>
</trkpt>
<trkpt lat="-27.2737818" lon="151.2899479">
  <ele>375.33</ele>
  <time>2026-09-01T19:57:45Z</time>
  <course>102.91</course>
  <speed>7.245550358668416</speed>
  <fix>3d</fix>
</trkpt>
<trkpt lat="-27.2737791" lon="151.2899347">
  <ele>375.37</ele>
  <time>2026-09-01T19:57:45Z</time>
  <course>103.75</course>
  <speed>5.99</speed>
  <fix>3d</fix>
</trkpt>
<trkpt lat="-27.2737831" lon="151.2899553">
  <ele>375.31</ele>
  <time>2026-09-01T19:57:45Z</time>
  <course>101.74</course>
  <speed>7.836848856523902</speed>
  <fix>3d</fix>
</trkpt>
<trkpt lat="-27.2737817" lon="151.2899477">
  <ele>375.33</ele>
  <time>2026-09-01T19:57:45Z</time>
  <course>101.8</course>
  <speed>7.18</speed>
  <fix>3d</fix>
</trkpt>
<trkpt lat="-27.2737844" lon="151.2899633">
  <ele>375.28</ele>
  <time>2026-09-01T19:57:45Z</time>
  <course>100.54</course>
  <speed>8.412431277579627</speed>
  <fix>3d</fix>
</trkpt>
<trkpt lat="-27.2737817" lon="151.2899477">
  <ele>375.33</ele>
  <time>2026-09-01T19:57:45Z</time>
  <course>101.8</course>
  <speed>7.18</speed>
  <fix>3d</fix>
</trkpt>
<trkpt lat="-27.2737856" lon="151.2899719">
  <ele>375.25</ele>
  <time>2026-09-01T19:57:45Z</time>
  <course>99.39</course>
  <speed>8.977572054848682</speed>
  <fix>3d</fix>
</trkpt>
<trkpt lat="-27.2737842" lon="151.2899631">
  <ele>375.28</ele>
  <time>2026-09-01T19:57:45Z</time>
  <course>99.42</course>
  <speed>8.35</speed>
  <fix>3d</fix>
</trkpt>
<trkpt lat="-27.2737866" lon="151.289981">
  <ele>375.23</ele>
  <time>2026-09-01T19:57:45Z</time>
  <course>98.05</course>
  <speed>9.530855155755962</speed>
  <fix>3d</fix>
</trkpt>
<trkpt lat="-27.2737842" lon="151.2899631">
  <ele>375.28</ele>
  <time>2026-09-01T19:57:45Z</time>
  <course>99.42</course>
  <speed>8.35</speed>
  <fix>3d</fix>
</trkpt>
<trkpt lat="-27.2737876" lon="151.2899907">
  <ele>375.21</ele>
  <time>2026-09-01T19:57:45Z</time>
  <course>96.56</course>
  <speed>10.066841609958905</speed>
  <fix>3d</fix>
</trkpt>
<trkpt lat="-27.2737865" lon="151.289981">
  <ele>375.24</ele>
  <time>2026-09-01T19:57:45Z</time>
  <course>96.69</course>
  <speed>9.47</speed>
  <fix>3d</fix>
</trkpt>
<trkpt lat="-27.2737883" lon="151.2900011">
  <ele>375.19</ele>
  <time>2026-09-01T19:57:45Z</time>
  <course>94.98</course>
  <speed>10.58520193477668</speed>
  <fix>3d</fix>
</trkpt>
<trkpt lat="-27.2737865" lon="151.289981">
  <ele>375.24</ele>
  <time>2026-09-01T19:57:45Z</time>
  <course>96.69</course>
  <speed>9.47</speed>
  <fix>3d</fix>
</trkpt>
<trkpt lat="-27.2737887" lon="151.290012">
  <ele>375.18</ele>
  <time>2026-09-01T19:57:45Z</time>
  <course>93.48</course>
  <speed>11.069561870281948</speed>
  <fix>3d</fix>
</trkpt>
<trkpt lat="-27.2737881" lon="151.2900011">
  <ele>375.21</ele>
  <time>2026-09-01T19:57:45Z</time>
  <course>93.74</course>
  <speed>10.53</speed>
  <fix>3d</fix>
</trkpt>
<trkpt lat="-27.273789" lon="151.2900234">
  <ele>375.17</ele>
  <time>2026-09-01T19:57:45Z</time>
  <course>92.0</course>
  <speed>11.550973984907072</speed>
  <fix>3d</fix>
</trkpt>
<trkpt lat="-27.2737881" lon="151.2900011">
  <ele>375.21</ele>
  <time>2026-09-01T19:57:45Z</time>
  <course>93.74</course>
  <speed>10.53</speed>
  <fix>3d</fix>
</trkpt>
<trkpt lat="-27.2737889" lon="151.2900353">
  <ele>375.17</ele>
  <time>2026-09-01T19:57:45Z</time>
  <course>90.56</course>
  <speed>12.03106395960058</speed>
  <fix>3d</fix>
</trkpt>
<trkpt lat="-27.2737889" lon="151.2900234">
  <ele>375.19</ele>
  <time>2026-09-01T19:57:45Z</time>
  <course>90.67</course>
  <speed>11.51</speed>
  <fix>3d</fix>
</trkpt>
<trkpt lat="-27.2737886" lon="151.2900476">
  <ele>375.16</ele>
  <time>2026-09-01T19:57:45Z</time>
  <course>89.01</course>
  <speed>12.500407993341657</speed>
  <fix>3d</fix>
</trkpt>
<trkpt lat="-27.2737889" lon="151.2900234">
  <ele>375.19</ele>
  <time>2026-09-01T19:57:45Z</time>
  <course>90.67</course>
  <speed>11.51</speed>
  <fix>3d</fix>
</trkpt>
<trkpt lat="-27.273788" lon="151.2900604">
  <ele>375.16</ele>
  <time>2026-09-01T19:57:45Z</time>
  <course>87.47</course>
  <speed>12.959236088597198</speed>
  <fix>3d</fix>
</trkpt>
<trkpt lat="-27.2737885" lon="151.2900475">
  <ele>375.19</ele>
  <time>2026-09-01T19:57:45Z</time>
  <course>87.57</course>
  <speed>12.45</speed>
  <fix>3d</fix>
</trkpt>
<trkpt lat="-27.2737871" lon="151.2900735">
  <ele>375.16</ele>
  <time>2026-09-01T19:57:45Z</time>
  <course>86.03</course>
  <speed>13.409328842265</speed>
  <fix>3d</fix>
</trkpt>
<trkpt lat="-27.2737885" lon="151.2900475">
  <ele>375.19</ele>
  <time>2026-09-01T19:57:45Z</time>
  <course>87.57</course>
  <speed>12.45</speed>
  <fix>3d</fix>
</trkpt>
<trkpt lat="-27.2737858" lon="151.2900871">
  <ele>375.16</ele>
  <time>2026-09-01T19:57:45Z</time>
  <course>84.58</course>
  <speed>13.859769117846083</speed>
  <fix>3d</fix>
</trkpt>
<trkpt lat="-27.273787" lon="151.2900737">
  <ele>375.19</ele>
  <time>2026-09-01T19:57:45Z</time>
  <course>84.54</course>
  <speed>13.36</speed>
  <fix>3d</fix>
</trkpt>
<trkpt lat="-27.2737841" lon="151.2901011">
  <ele>375.16</ele>
  <time>2026-09-01T19:57:45Z</time>
  <course>83.2</course>
  <speed>14.29071376803832</speed>
  <fix>3d</fix>
</trkpt>
<trkpt lat="-27.273787" lon="151.2900737">
  <ele>375.19</ele>
  <time>2026-09-01T19:57:45Z</time>
  <course>84.54</course>
  <speed>13.36</speed>
  <fix>3d</fix>
</trkpt>
<trkpt lat="-27.273782" lon="151.2901155">
  <ele>375.16</ele>
  <time>2026-09-01T19:57:45Z</time>
  <course>81.81</course>
  <speed>14.722099035124034</speed>
  <fix>3d</fix>
</trkpt>
<trkpt lat="-27.273784" lon="151.2901014">
  <ele>375.19</ele>
  <time>2026-09-01T19:57:45Z</time>
  <course>81.61</course>
  <speed>14.26</speed>
  <fix>3d</fix>
</trkpt>
<trkpt lat="-27.2737796" lon="151.2901302">
  <ele>375.16</ele>
  <time>2026-09-01T19:57:45Z</time>
  <course>80.58</course>
  <speed>15.134361565655817</speed>
  <fix>3d</fix>
</trkpt>
<trkpt lat="-27.273784" lon="151.2901014">
  <ele>375.19</ele>
  <time>2026-09-01T19:57:45Z</time>
  <course>81.61</course>
  <speed>14.26</speed>
  <fix>3d</fix>
</trkpt>
<trkpt lat="-27.2737768" lon="151.2901452">
  <ele>375.16</ele>
  <time>2026-09-01T19:57:45Z</time>
  <course>79.32</course>
  <speed>15.545253294816396</speed>
  <fix>3d</fix>
</trkpt>
<trkpt lat="-27.2737795" lon="151.2901307">
  <ele>375.19</ele>
  <time>2026-09-01T19:57:45Z</time>
  <course>78.83</course>
  <speed>15.11</speed>
  <fix>3d</fix>
</trkpt>
<trkpt lat="-27.2737737" lon="151.2901606">
  <ele>375.16</ele>
  <time>2026-09-01T19:57:45Z</time>
  <course>78.05</course>
  <speed>15.946918197570337</speed>
  <fix>3d</fix>
</trkpt>
<trkpt lat="-27.2737795" lon="151.2901307">
  <ele>375.19</ele>
  <time>2026-09-01T19:57:45Z</time>
  <course>78.83</course>
  <speed>15.11</speed>
  <fix>3d</fix>
</trkpt>
<trkpt lat="-27.2737701" lon="151.2901763">
  <ele>375.16</ele>
  <time>2026-09-01T19:57:45Z</time>
  <course>76.85</course>
  <speed>16.32486753391892</speed>
  <fix>3d</fix>
</trkpt>
<trkpt lat="-27.2737735" lon="151.2901613">
  <ele>375.19</ele>
  <time>2026-09-01T19:57:45Z</time>
  <course>76.2</course>
  <speed>15.92</speed>
  <fix>3d</fix>
</trkpt>
<trkpt lat="-27.2737661" lon="151.2901922">
  <ele>375.15</ele>
  <time>2026-09-01T19:57:45Z</time>
  <course>75.66</course>
  <speed>16.693606560596784</speed>
  <fix>3d</fix>
</trkpt>
<trkpt lat="-27.2737735" lon="151.2901613">
  <ele>375.19</ele>
  <time>2026-09-01T19:57:45Z</time>
  <course>76.2</course>
  <speed>15.92</speed>
  <fix>3d</fix>
</trkpt>
<trkpt lat="-27.2737617" lon="151.2902086">
  <ele>375.14</ele>
  <time>2026-09-01T19:57:45Z</time>
  <course>74.4</course>
  <speed>17.063132772149434</speed>
  <fix>3d</fix>
</trkpt>
<trkpt lat="-27.2737659" lon="151.2901931">
  <ele>375.18</ele>
  <time>2026-09-01T19:57:45Z</time>
  <course>73.72</course>
  <speed>16.68</speed>
  <fix>3d</fix>
</trkpt>
<trkpt lat="-27.273757" lon="151.2902251">
  <ele>375.13</ele>
  <time>2026-09-01T19:57:45Z</time>
  <course>73.18</course>
  <speed>17.411593838589273</speed>
  <fix>3d</fix>
</trkpt>
<trkpt lat="-27.2737659" lon="151.2901931">
  <ele>375.18</ele>
  <time>2026-09-01T19:57:45Z</time>
  <course>73.72</course>
  <speed>16.68</speed>
  <fix>3d</fix>
</trkpt>
<trkpt lat="-27.2737518" lon="151.2902418">
  <ele>375.12</ele>
  <time>2026-09-01T19:57:45Z</time>
  <course>71.92</course>
  <speed>17.75530624911888</speed>
  <fix>3d</fix>
</trkpt>
<trkpt lat="-27.2737567" lon="151.290226">
  <ele>375.16</ele>
  <time>2026-09-01T19:57:45Z</time>
  <course>71.3</course>
  <speed>17.39</speed>
  <fix>3d</fix>
</trkpt>
<trkpt lat="-27.2737462" lon="151.2902587">
  <ele>375.11</ele>
  <time>2026-09-01T19:57:45Z</time>
  <course>70.69</course>
  <speed>18.073176256541075</speed>
  <fix>3d</fix>
</trkpt>
<trkpt lat="-27.2737567" lon="151.290226">
  <ele>375.16</ele>
  <time>2026-09-01T19:57:45Z</time>
  <course>71.3</course>
  <speed>17.39</speed>
  <fix>3d</fix>
</trkpt>
<trkpt lat="-27.2737401" lon="151.2902757">
  <ele>375.11</ele>
  <time>2026-09-01T19:57:45Z</time>
  <course>69.43</course>
  <speed>18.394023485904327</speed>
  <fix>3d</fix>
</trkpt>
<trkpt lat="-27.2737458" lon="151.2902596">
  <ele>375.14</ele>
  <time>2026-09-01T19:57:45Z</time>
  <course>68.85</course>
  <speed>18.06</speed>
  <fix>3d</fix>
</trkpt>
<trkpt lat="-27.2737336" lon="151.290293">
  <ele>375.1</ele>
  <time>2026-09-01T19:57:45Z</time>
  <course>68.12</course>
  <speed>18.699917112115767</speed>
  <fix>3d</fix>
</trkpt>
<trkpt lat="-27.2737458" lon="151.2902596">
  <ele>375.14</ele>
  <time>2026-09-01T19:57:45Z</time>
  <course>68.85</course>
  <speed>18.06</speed>
  <fix>3d</fix>
</trkpt>
<trkpt lat="-27.2737266" lon="151.2903104">
  <ele>375.1</ele>
  <time>2026-09-01T19:57:45Z</time>
  <course>66.66</course>
  <speed>18.986956048824677</speed>
  <fix>3d</fix>
</trkpt>
<trkpt lat="-27.2737332" lon="151.290294">
  <ele>375.13</ele>
  <time>2026-09-01T19:57:45Z</time>
  <course>66.32</course>
  <speed>18.67</speed>
  <fix>3d</fix>
</trkpt>
<trkpt lat="-27.2737191" lon="151.290328">
  <ele>375.09</ele>
  <time>2026-09-01T19:57:45Z</time>
  <course>65.01</course>
  <speed>19.274957846905917</speed>
  <fix>3d</fix>
</trkpt>
<trkpt lat="-27.2737332" lon="151.290294">
  <ele>375.13</ele>
  <time>2026-09-01T19:57:45Z</time>
  <course>66.32</course>
  <speed>18.67</speed>
  <fix>3d</fix>
</trkpt>
<trkpt lat="-27.2737111" lon="151.2903455">
  <ele>375.09</ele>
  <time>2026-09-01T19:57:45Z</time>
  <course>63.32</course>
  <speed>19.553562335288166</speed>
  <fix>3d</fix>
</trkpt>
<trkpt lat="-27.2737188" lon="151.2903287">
  <ele>375.13</ele>
  <time>2026-09-01T19:57:45Z</time>
  <course>63.55</course>
  <speed>19.24</speed>
  <fix>3d</fix>
</trkpt>
<trkpt lat="-27.2737026" lon="151.2903629">
  <ele>375.1</ele>
  <time>2026-09-01T19:57:45Z</time>
  <course>61.54</course>
  <speed>19.81333894122846</speed>
  <fix>3d</fix>
</trkpt>
<trkpt lat="-27.2737188" lon="151.2903287">
  <ele>375.13</ele>
  <time>2026-09-01T19:57:45Z</time>
  <course>63.55</course>
  <speed>19.24</speed>
  <fix>3d</fix>
</trkpt>
<trkpt lat="-27.2736935" lon="151.2903803">
  <ele>375.1</ele>
  <time>2026-09-01T19:57:45Z</time>
  <course>59.66</course>
  <speed>20.062552180617498</speed>
  <fix>3d</fix>
</trkpt>
<trkpt lat="-27.2737023" lon="151.2903635">
  <ele>375.14</ele>
  <time>2026-09-01T19:57:45Z</time>
  <course>60.36</course>
  <speed>19.77</speed>
  <fix>3d</fix>
</trkpt>
<trkpt lat="-27.2736838" lon="151.2903974">
  <ele>375.11</ele>
  <time>2026-09-01T19:57:45Z</time>
  <course>57.79</course>
  <speed>20.30239394751269</speed>
  <fix>3d</fix>
</trkpt>
<trkpt lat="-27.2737023" lon="151.2903635">
  <ele>375.14</ele>
  <time>2026-09-01T19:57:45Z</time>
  <course>60.36</course>
  <speed>19.77</speed>
  <fix>3d</fix>
</trkpt>
<trkpt lat="-27.2736735" lon="151.2904144">
  <ele>375.13</ele>
  <time>2026-09-01T19:57:45Z</time>
  <course>55.85</course>
  <speed>20.52710403344807</speed>
  <fix>3d</fix>
</trkpt>
<trkpt lat="-27.2736836" lon="151.2903981">
  <ele>375.16</ele>
  <time>2026-09-01T19:57:45Z</time>
  <course>56.7</course>
  <speed>20.25</speed>
  <fix>3d</fix>
</trkpt>
<trkpt lat="-27.2736626" lon="151.2904311">
  <ele>375.14</ele>
  <time>2026-09-01T19:57:45Z</time>
  <course>53.81</course>
  <speed>20.74910359509538</speed>
  <fix>3d</fix>
</trkpt>
<trkpt lat="-27.2736836" lon="151.2903981">
  <ele>375.16</ele>
  <time>2026-09-01T19:57:45Z</time>
  <course>56.7</course>
  <speed>20.25</speed>
  <fix>3d</fix>
</trkpt>
<trkpt lat="-27.273651" lon="151.2904475">
  <ele>375.16</ele>
  <time>2026-09-01T19:57:45Z</time>
  <course>51.71</course>
  <speed>20.96482768829737</speed>
  <fix>3d</fix>
</trkpt>
<trkpt lat="-27.2736623" lon="151.2904319">
  <ele>375.2</ele>
  <time>2026-09-01T19:57:45Z</time>
  <course>52.6</course>
  <speed>20.69</speed>
  <fix>3d</fix>
</trkpt>
<trkpt lat="-27.2736387" lon="151.2904635">
  <ele>375.18</ele>
  <time>2026-09-01T19:57:45Z</time>
  <course>49.58</course>
  <speed>21.166060096295674</speed>
  <fix>3d</fix>
</trkpt>
<trkpt lat="-27.2736623" lon="151.2904319">
  <ele>375.2</ele>
  <time>2026-09-01T19:57:45Z</time>
  <course>52.6</course>
  <speed>20.69</speed>
  <fix>3d</fix>
</trkpt>
<trkpt lat="-27.2736258" lon="151.2904792">
  <ele>375.21</ele>
  <time>2026-09-01T19:57:45Z</time>
  <course>47.46</course>
  <speed>21.37083058750876</speed>
  <fix>3d</fix>
</trkpt>
<trkpt lat="-27.2736383" lon="151.2904644">
  <ele>375.24</ele>
  <time>2026-09-01T19:57:45Z</time>
  <course>48.19</course>
  <speed>21.11</speed>
  <fix>3d</fix>
</trkpt>
<trkpt lat="-27.2736123" lon="151.2904942">
  <ele>375.24</ele>
  <time>2026-09-01T19:57:45Z</time>
  <course>45.26</course>
  <speed>21.55967068394135</speed>
  <fix>3d</fix>
</trkpt>
<trkpt lat="-27.2736383" lon="151.2904644">
  <ele>375.24</ele>
  <time>2026-09-01T19:57:45Z</time>
  <course>48.19</course>
  <speed>21.11</speed>
  <fix>3d</fix>
</trkpt>
<trkpt lat="-27.273598" lon="151.2905089">
  <ele>375.28</ele>
  <time>2026-09-01T19:57:45Z</time>
  <course>43.03</course>
  <speed>21.741007336367833</speed>
  <fix>3d</fix>
</trkpt>
<trkpt lat="-27.2736117" lon="151.2904954">
  <ele>375.3</ele>
  <time>2026-09-01T19:57:45Z</time>
  <course>43.62</course>
  <speed>21.5</speed>
  <fix>3d</fix>
</trkpt>
<trkpt lat="-27.2735831" lon="151.2905231">
  <ele>375.31</ele>
  <time>2026-09-01T19:57:45Z</time>
  <course>40.82</course>
  <speed>21.91609910545214</speed>
  <fix>3d</fix>
</trkpt>
<trkpt lat="-27.2736117" lon="151.2904954">
  <ele>375.3</ele>
  <time>2026-09-01T19:57:45Z</time>
  <course>43.62</course>
  <speed>21.5</speed>
  <fix>3d</fix>
</trkpt>
<trkpt lat="-27.2735676" lon="151.2905367">
  <ele>375.35</ele>
  <time>2026-09-01T19:57:45Z</time>
  <course>38.61</course>
  <speed>22.092199980988767</speed>
  <fix>3d</fix>
</trkpt>
<trkpt lat="-27.2735824" lon="151.2905242">
  <ele>375.38</ele>
  <time>2026-09-01T19:57:45Z</time>
  <course>39.02</course>
  <speed>21.87</speed>
  <fix>3d</fix>
</trkpt>
<trkpt lat="-27.2735514" lon="151.2905498">
  <ele>375.39</ele>
  <time>2026-09-01T19:57:45Z</time>
  <course>36.43</course>
  <speed>22.261581255607158</speed>
  <fix>3d</fix>
</trkpt>
<trkpt lat="-27.2735824" lon="151.2905242">
  <ele>375.38</ele>
  <time>2026-09-01T19:57:45Z</time>
  <course>39.02</course>
  <speed>21.87</speed>
  <fix>3d</fix>
</trkpt>
<trkpt lat="-27.2735347" lon="151.2905621">
  <ele>375.43</ele>
  <time>2026-09-01T19:57:45Z</time>
  <course>34.27</course>
  <speed>22.42111727813759</speed>
  <fix>3d</fix>
</trkpt>
<trkpt lat="-27.2735507" lon="151.2905509">
  <ele>375.46</ele>
  <time>2026-09-01T19:57:45Z</time>
  <course>34.47</course>
  <speed>22.21</speed>
  <fix>3d</fix>
</trkpt>
<trkpt lat="-27.2735175" lon="151.2905738">
  <ele>375.47</ele>
  <time>2026-09-01T19:57:45Z</time>
  <course>32.17</course>
  <speed>22.57446566366522</speed>
  <fix>3d</fix>
</trkpt>
<trkpt lat="-27.2735507" lon="151.2905509">
  <ele>375.46</ele>
  <time>2026-09-01T19:57:45Z</time>
  <course>34.47</course>
  <speed>22.21</speed>
  <fix>3d</fix>
</trkpt>
<trkpt lat="-27.2734997" lon="151.2905849">
  <ele>375.51</ele>
  <time>2026-09-01T19:57:45Z</time>
  <course>30.11</course>
  <speed>22.723776094654692</speed>
  <fix>3d</fix>
</trkpt>
<trkpt lat="-27.2735167" lon="151.2905751">
  <ele>375.55</ele>
  <time>2026-09-01T19:57:45Z</time>
  <course>30.05</course>
  <speed>22.52</speed>
  <fix>3d</fix>
</trkpt>
<trkpt lat="-27.2734816" lon="151.2905953">
  <ele>375.56</ele>
  <time>2026-09-01T19:57:45Z</time>
  <course>28.12</course>
  <speed>22.859418190321467</speed>
  <fix>3d</fix>
</trkpt>
<trkpt lat="-27.2735167" lon="151.2905751">
  <ele>375.55</ele>
  <time>2026-09-01T19:57:45Z</time>
  <course>30.05</course>
  <speed>22.52</speed>
  <fix>3d</fix>
</trkpt>
<trkpt lat="-27.273463" lon="151.290605">
  <ele>375.59</ele>
  <time>2026-09-01T19:57:45Z</time>
  <course>26.22</course>
  <speed>22.991618037885022</speed>
  <fix>3d</fix>
</trkpt>
<trkpt lat="-27.2734807" lon="151.2905965">
  <ele>375.64</ele>
  <time>2026-09-01T19:57:45Z</time>
  <course>25.84</course>
  <speed>22.81</speed>
  <fix>3d</fix>
</trkpt>
<trkpt lat="-27.2734439" lon="151.2906141">
  <ele>375.63</ele>
  <time>2026-09-01T19:57:45Z</time>
  <course>24.4</course>
  <speed>23.132077295392214</speed>
  <fix>3d</fix>
</trkpt>
<trkpt lat="-27.2734807" lon="151.2905965">
  <ele>375.64</ele>
  <time>2026-09-01T19:57:45Z</time>
  <course>25.84</course>
  <speed>22.81</speed>
  <fix>3d</fix>
</trkpt>
<trkpt lat="-27.2734244" lon="151.2906225">
  <ele>375.66</ele>
  <time>2026-09-01T19:57:45Z</time>
  <course>22.67</course>
  <speed>23.251344047172843</speed>
  <fix>3d</fix>
</trkpt>
<trkpt lat="-27.273443" lon="151.2906152">
  <ele>375.72</ele>
  <time>2026-09-01T19:57:45Z</time>
  <course>21.9</course>
  <speed>23.08</speed>
  <fix>3d</fix>
</trkpt>
<trkpt lat="-27.2734046" lon="151.2906303">
  <ele>375.69</ele>
  <time>2026-09-01T19:57:45Z</time>
  <course>20.95</course>
  <speed>23.372550138998527</speed>
  <fix>3d</fix>
</trkpt>
<trkpt lat="-27.273443" lon="151.2906152">
  <ele>375.72</ele>
  <time>2026-09-01T19:57:45Z</time>
  <course>21.9</course>
  <speed>23.08</speed>
  <fix>3d</fix>
</trkpt>
<trkpt lat="-27.2733845" lon="151.2906375">
  <ele>375.72</ele>
  <time>2026-09-01T19:57:45Z</time>
  <course>19.32</course>
  <speed>23.492690352533064</speed>
  <fix>3d</fix>
</trkpt>
<trkpt lat="-27.2734039" lon="151.2906312">
  <ele>375.79</ele>
  <time>2026-09-01T19:57:45Z</time>
  <course>18.28</course>
  <speed>23.31</speed>
  <fix>3d</fix>
</trkpt>
<trkpt lat="-27.273364" lon="151.290644">
  <ele>375.75</ele>
  <time>2026-09-01T19:57:45Z</time>
  <course>17.84</course>
  <speed>23.59932414286477</speed>
  <fix>3d</fix>
</trkpt>
<trkpt lat="-27.2734039" lon="151.2906312">
  <ele>375.79</ele>
  <time>2026-09-01T19:57:45Z</time>
  <course>18.28</course>
  <speed>23.31</speed>
  <fix>3d</fix>
</trkpt>
<trkpt lat="-27.2733434" lon="151.2906499">
  <ele>375.77</ele>
  <time>2026-09-01T19:57:45Z</time>
  <course>16.45</course>
  <speed>23.7114740157587</speed>
  <fix>3d</fix>
</trkpt>
<trkpt lat="-27.2733635" lon="151.2906448">
  <ele>375.86</ele>
  <time>2026-09-01T19:57:45Z</time>
  <course>14.98</course>
  <speed>23.53</speed>
  <fix>3d</fix>
</trkpt>
<trkpt lat="-27.2733225" lon="151.2906553">
  <ele>375.79</ele>
  <time>2026-09-01T19:57:45Z</time>
  <course>14.99</course>
  <speed>23.804606697024</speed>
  <fix>3d</fix>
</trkpt>
<trkpt lat="-27.2733635" lon="151.2906448">
  <ele>375.86</ele>
  <time>2026-09-01T19:57:45Z</time>
  <course>14.98</course>
  <speed>23.53</speed>
  <fix>3d</fix>
</trkpt>
<trkpt lat="-27.2733015" lon="151.2906601">
  <ele>375.81</ele>
  <time>2026-09-01T19:57:45Z</time>
  <course>13.59</course>
  <speed>23.905934409681628</speed>
  <fix>3d</fix>
</trkpt>
<trkpt lat="-27.2733221" lon="151.290656">
  <ele>375.91</ele>
  <time>2026-09-01T19:57:45Z</time>
  <course>12.03</course>
  <speed>23.72</speed>
  <fix>3d</fix>
</trkpt>
<trkpt lat="-27.2732802" lon="151.2906644">
  <ele>375.82</ele>
  <time>2026-09-01T19:57:45Z</time>
  <course>12.27</course>
  <speed>23.984171863960615</speed>
  <fix>3d</fix>
</trkpt>
<trkpt lat="-27.2733221" lon="151.290656">
  <ele>375.91</ele>
  <time>2026-09-01T19:57:45Z</time>
  <course>12.03</course>
  <speed>23.72</speed>
  <fix>3d</fix>
</trkpt>
<trkpt lat="-27.2732589" lon="151.2906682">
  <ele>375.84</ele>
  <time>2026-09-01T19:57:45Z</time>
  <course>11.08</course>
  <speed>24.05864917238705</speed>
  <fix>3d</fix>
</trkpt>
<trkpt lat="-27.2732801" lon="151.2906649">
  <ele>375.94</ele>
  <time>2026-09-01T19:57:45Z</time>
  <course>9.41</course>
  <speed>23.89</speed>
  <fix>3d</fix>
</trkpt>
<trkpt lat="-27.2732376" lon="151.2906714">
  <ele>375.85</ele>
  <time>2026-09-01T19:57:45Z</time>
  <course>9.9</course>
  <speed>24.12599635248252</speed>
  <fix>3d</fix>
</trkpt>
<trkpt lat="-27.2732801" lon="151.2906649">
  <ele>375.94</ele>
  <time>2026-09-01T19:57:45Z</time>
  <course>9.41</course>
  <speed>23.89</speed>
  <fix>3d</fix>
</trkpt>
<trkpt lat="-27.2732164" lon="151.2906742">
  <ele>375.86</ele>
  <time>2026-09-01T19:57:45Z</time>
  <course>8.79</course>
  <speed>24.18586570706122</speed>
  <fix>3d</fix>
</trkpt>
<trkpt lat="-27.2732375" lon="151.2906719">
  <ele>375.97</ele>
  <time>2026-09-01T19:57:45Z</time>
  <course>7.08</course>
  <speed>24.05</speed>
  <fix>3d</fix>
</trkpt>
<trkpt lat="-27.2731949" lon="151.2906766">
  <ele>375.86</ele>
  <time>2026-09-01T19:57:45Z</time>
  <course>7.75</course>
  <speed>24.245515049179712</speed>
  <fix>3d</fix>
</trkpt>
<trkpt lat="-27.2732375" lon="151.2906719">
  <ele>375.97</ele>
  <time>2026-09-01T19:57:45Z</time>
  <course>7.08</course>
  <speed>24.05</speed>
  <fix>3d</fix>
</trkpt>
<trkpt lat="-27.2731732" lon="151.2906786">
  <ele>375.86</ele>
  <time>2026-09-01T19:57:45Z</time>
  <course>6.77</course>
  <speed>24.30526691892109</speed>
  <fix>3d</fix>
</trkpt>
<trkpt lat="-27.2731944" lon="151.290677">
  <ele>375.98</ele>
  <time>2026-09-01T19:57:45Z</time>
  <course>5.03</course>
  <speed>24.19</speed>
  <fix>3d</fix>
</trkpt>
<trkpt lat="-27.2731516" lon="151.2906802">
  <ele>375.86</ele>
  <time>2026-09-01T19:57:45Z</time>
  <course>5.85</course>
  <speed>24.351437329241985</speed>
  <fix>3d</fix>
</trkpt>
<trkpt lat="-27.2731944" lon="151.290677">
  <ele>375.98</ele>
  <time>2026-09-01T19:57:45Z</time>
  <course>5.03</course>
  <speed>24.19</speed>
  <fix>3d</fix>
</trkpt>
<trkpt lat="-27.2731296" lon="151.2906815">
  <ele>375.85</ele>
  <time>2026-09-01T19:57:45Z</time>
  <course>4.99</course>
  <speed>24.404354119705772</speed>
  <fix>3d</fix>
</trkpt>
<trkpt lat="-27.273151" lon="151.2906805">
  <ele>375.97</ele>
  <time>2026-09-01T19:57:45Z</time>
  <course>3.25</course>
  <speed>24.31</speed>
  <fix>3d</fix>
</trkpt>
<trkpt lat="-27.2731078" lon="151.2906825">
  <ele>375.85</ele>
  <time>2026-09-01T19:57:45Z</time>
  <course>4.15</course>
  <speed>24.44276989213784</speed>
  <fix>3d</fix>
</trkpt>
<trkpt lat="-27.273151" lon="151.2906805">
  <ele>375.97</ele>
  <time>2026-09-01T19:57:45Z</time>
  <course>3.25</course>
  <speed>24.31</speed>
  <fix>3d</fix>
</trkpt>
<trkpt lat="-27.273086" lon="151.2906831">
  <ele>375.84</ele>
  <time>2026-09-01T19:57:45Z</time>
  <course>3.32</course>
  <speed>24.485105676717023</speed>
  <fix>3d</fix>
</trkpt>
<trkpt lat="-27.2731073" lon="151.2906826">
  <ele>375.95</ele>
  <time>2026-09-01T19:57:45Z</time>
  <course>1.73</course>
  <speed>24.41</speed>
  <fix>3d</fix>
</trkpt>
<trkpt lat="-27.2730641" lon="151.2906835">
  <ele>375.82</ele>
  <time>2026-09-01T19:57:45Z</time>
  <course>2.57</course>
  <speed>24.531174044468397</speed>
  <fix>3d</fix>
</trkpt>
<trkpt lat="-27.2731073" lon="151.2906826">
  <ele>375.95</ele>
  <time>2026-09-01T19:57:45Z</time>
  <course>1.73</course>
  <speed>24.41</speed>
  <fix>3d</fix>
</trkpt>
<trkpt lat="-27.2730421" lon="151.2906836">
  <ele>375.81</ele>
  <time>2026-09-01T19:57:45Z</time>
  <course>1.87</course>
  <speed>24.57</speed>
  <fix>3d</fix>
</trkpt>
<trkpt lat="-27.2730634" lon="151.2906835">
  <ele>375.92</ele>
  <time>2026-09-01T19:57:45Z</time>
  <course>0.42</course>
  <speed>24.5</speed>
  <fix>3d</fix>
</trkpt>
<trkpt lat="-27.2730201" lon="151.2906835">
  <ele>375.8</ele>
  <time>2026-09-01T19:57:45Z</time>
  <course>1.3</course>
  <speed>24.610983320460804</speed>
  <fix>3d</fix>
</trkpt>
<trkpt lat="-27.2730634" lon="151.2906835">
  <ele>375.92</ele>
  <time>2026-09-01T19:57:45Z</time>
  <course>0.42</course>
  <speed>24.5</speed>
  <fix>3d</fix>
</trkpt>
<trkpt lat="-27.2729981" lon="151.2906832">
  <ele>375.78</ele>
  <time>2026-09-01T19:57:45Z</time>
  <course>0.74</course>
  <speed>24.6435792854853</speed>
  <fix>3d</fix>
</trkpt>
<trkpt lat="-27.2730193" lon="151.2906834">
  <ele>375.89</ele>
  <time>2026-09-01T19:57:45Z</time>
  <course>359.32</course>
  <speed>24.59</speed>
  <fix>3d</fix>
</trkpt>
<trkpt lat="-27.272976" lon="151.2906827">
  <ele>375.77</ele>
  <time>2026-09-01T19:57:45Z</time>
  <course>0.13</course>
  <speed>24.687292277607117</speed>
  <fix>3d</fix>
</trkpt>
<trkpt lat="-27.2730193" lon="151.2906834">
  <ele>375.89</ele>
  <time>2026-09-01T19:57:45Z</time>
  <course>359.32</course>
  <speed>24.59</speed>
  <fix>3d</fix>
</trkpt>
<trkpt lat="-27.2729539" lon="151.2906819">
  <ele>375.75</ele>
  <time>2026-09-01T19:57:45Z</time>
  <course>359.64</course>
  <speed>24.731989406434735</speed>
  <fix>3d</fix>
</trkpt>
<trkpt lat="-27.272975" lon="151.2906825">
  <ele>375.86</ele>
  <time>2026-09-01T19:57:45Z</time>
  <course>358.42</course>
  <speed>24.67</speed>
  <fix>3d</fix>
</trkpt>
<trkpt lat="-27.2729317" lon="151.2906811">
  <ele>375.74</ele>
  <time>2026-09-01T19:57:45Z</time>
  <course>359.19</course>
  <speed>24.76709308740128</speed>
  <fix>3d</fix>
</trkpt>
<trkpt lat="-27.272975" lon="151.2906825">
  <ele>375.86</ele>
  <time>2026-09-01T19:57:45Z</time>
  <course>358.42</course>
  <speed>24.67</speed>
  <fix>3d</fix>
</trkpt>
<trkpt lat="-27.2729095" lon="151.29068">
  <ele>375.72</ele>
  <time>2026-09-01T19:57:45Z</time>
  <course>358.78</course>
  <speed>24.802661147546246</speed>
  <fix>3d</fix>
</trkpt>
<trkpt lat="-27.2729307" lon="151.2906808">
  <ele>375.82</ele>
  <time>2026-09-01T19:57:45Z</time>
  <course>357.69</course>
  <speed>24.76</speed>
  <fix>3d</fix>
</trkpt>
<trkpt lat="-27.2728873" lon="151.2906789">
  <ele>375.7</ele>
  <time>2026-09-01T19:57:45Z</time>
  <course>358.41</course>
  <speed>24.847561248541073</speed>
  <fix>3d</fix>
</trkpt>
<trkpt lat="-27.2729307" lon="151.2906808">
  <ele>375.82</ele>
  <time>2026-09-01T19:57:45Z</time>
  <course>357.69</course>
  <speed>24.76</speed>
  <fix>3d</fix>
</trkpt>
<trkpt lat="-27.272865" lon="151.2906776">
  <ele>375.68</ele>
  <time>2026-09-01T19:57:45Z</time>
  <course>358.07</course>
  <speed>24.88294395765903</speed>
  <fix>3d</fix>
</trkpt>
<trkpt lat="-27.2728861" lon="151.2906785">
  <ele>375.78</ele>
  <time>2026-09-01T19:57:45Z</time>
  <course>357.11</course>
  <speed>24.83</speed>
  <fix>3d</fix>
</trkpt>
<trkpt lat="-27.2728427" lon="151.2906762">
  <ele>375.66</ele>
  <time>2026-09-01T19:57:45Z</time>
  <course>357.77</course>
  <speed>24.917690502933855</speed>
  <fix>3d</fix>
</trkpt>
<trkpt lat="-27.2728861" lon="151.2906785">
  <ele>375.78</ele>
  <time>2026-09-01T19:57:45Z</time>
  <course>357.11</course>
  <speed>24.83</speed>
  <fix>3d</fix>
</trkpt>
<trkpt lat="-27.2728203" lon="151.2906747">
  <ele>375.64</ele>
  <time>2026-09-01T19:57:45Z</time>
  <course>357.48</course>
  <speed>24.952166238625455</speed>
  <fix>3d</fix>
</trkpt>
<trkpt lat="-27.2728414" lon="151.2906758">
  <ele>375.75</ele>
  <time>2026-09-01T19:57:45Z</time>
  <course>356.67</course>
  <speed>24.9</speed>
  <fix>3d</fix>
</trkpt>
<trkpt lat="-27.2727979" lon="151.2906732">
  <ele>375.62</ele>
  <time>2026-09-01T19:57:45Z</time>
  <course>357.24</course>
  <speed>24.985669892960644</speed>
  <fix>3d</fix>
</trkpt>
<trkpt lat="-27.2728414" lon="151.2906758">
  <ele>375.75</ele>
  <time>2026-09-01T19:57:45Z</time>
  <course>356.67</course>
  <speed>24.9</speed>
  <fix>3d</fix>
</trkpt>
<trkpt lat="-27.2727754" lon="151.2906716">
  <ele>375.6</ele>
  <time>2026-09-01T19:57:45Z</time>
  <course>357.08</course>
  <speed>25.028042272618926</speed>
  <fix>3d</fix>
</trkpt>
<trkpt lat="-27.2727967" lon="151.2906727">
  <ele>375.71</ele>
  <time>2026-09-01T19:57:45Z</time>
  <course>356.38</course>
  <speed>24.97</speed>
  <fix>3d</fix>
</trkpt>
<trkpt lat="-27.272753" lon="151.29067">
  <ele>375.55</ele>
  <time>2026-09-01T19:57:45Z</time>
  <course>356.87</course>
  <speed>25.048624712746204</speed>
  <fix>3d</fix>
</trkpt>
<trkpt lat="-27.2727967" lon="151.2906727">
  <ele>375.71</ele>
  <time>2026-09-01T19:57:45Z</time>
  <course>356.38</course>
  <speed>24.97</speed>
  <fix>3d</fix>
</trkpt>
<trkpt lat="-27.2727305" lon="151.2906684">
  <ele>375.49</ele>
  <time>2026-09-01T19:57:45Z</time>
  <course>356.75</course>
  <speed>25.078566545957127</speed>
  <fix>3d</fix>
</trkpt>
<trkpt lat="-27.2727519" lon="151.2906695">
  <ele>375.64</ele>
  <time>2026-09-01T19:57:45Z</time>
  <course>356.27</course>
  <speed>25.02</speed>
  <fix>3d</fix>
</trkpt>
<trkpt lat="-27.272708" lon="151.2906667">
  <ele>375.4</ele>
  <time>2026-09-01T19:57:45Z</time>
  <course>356.56</course>
  <speed>25.107889198417297</speed>
  <fix>3d</fix>
</trkpt>
<trkpt lat="-27.2727519" lon="151.2906695">
  <ele>375.64</ele>
  <time>2026-09-01T19:57:45Z</time>
  <course>356.27</course>
  <speed>25.02</speed>
  <fix>3d</fix>
</trkpt>
<trkpt lat="-27.2726855" lon="151.2906651">
  <ele>375.31</ele>
  <time>2026-09-01T19:57:45Z</time>
  <course>356.35</course>
  <speed>25.126625320563843</speed>
  <fix>3d</fix>
</trkpt>
<trkpt lat="-27.272707" lon="151.2906662">
  <ele>375.5</ele>
  <time>2026-09-01T19:57:45Z</time>
  <course>356.29</course>
  <speed>25.07</speed>
  <fix>3d</fix>
</trkpt>
<trkpt lat="-27.2726627" lon="151.2906635">
  <ele>375.2</ele>
  <time>2026-09-01T19:57:45Z</time>
  <course>356.21</course>
  <speed>25.16655121386321</speed>
  <fix>3d</fix>
</trkpt>
<trkpt lat="-27.272707" lon="151.2906662">
  <ele>375.5</ele>
  <time>2026-09-01T19:57:45Z</time>
  <course>356.29</course>
  <speed>25.07</speed>
  <fix>3d</fix>
</trkpt>
<trkpt lat="-27.2726401" lon="151.2906619">
  <ele>375.08</ele>
  <time>2026-09-01T19:57:45Z</time>
  <course>356.15</course>
  <speed>25.19649578810514</speed>
  <fix>3d</fix>
</trkpt>
<trkpt lat="-27.272662" lon="151.290663">
  <ele>375.3</ele>
  <time>2026-09-01T19:57:45Z</time>
  <course>356.35</course>
  <speed>25.12</speed>
  <fix>3d</fix>
</trkpt>
<trkpt lat="-27.2726175" lon="151.2906603">
  <ele>374.94</ele>
  <time>2026-09-01T19:57:45Z</time>
  <course>356.14</course>
  <speed>25.226440494053058</speed>
  <fix>3d</fix>
</trkpt>
<trkpt lat="-27.272662" lon="151.290663">
  <ele>375.3</ele>
  <time>2026-09-01T19:57:45Z</time>
  <course>356.35</course>
  <speed>25.12</speed>
  <fix>3d</fix>
</trkpt>
<trkpt lat="-27.2725949" lon="151.2906587">
  <ele>374.8</ele>
  <time>2026-09-01T19:57:45Z</time>
  <course>356.22</course>
  <speed>25.266974492408067</speed>
  <fix>3d</fix>
</trkpt>
<trkpt lat="-27.2726169" lon="151.2906597">
  <ele>375.05</ele>
  <time>2026-09-01T19:57:45Z</time>
  <course>356.37</course>
  <speed>25.19</speed>
  <fix>3d</fix>
</trkpt>
<trkpt lat="-27.2725723" lon="151.2906571">
  <ele>374.64</ele>
  <time>2026-09-01T19:57:45Z</time>
  <course>356.31</course>
  <speed>25.306900244794896</speed>
  <fix>3d</fix>
</trkpt>
<trkpt lat="-27.2726169" lon="151.2906597">
  <ele>375.05</ele>
  <time>2026-09-01T19:57:45Z</time>
  <course>356.37</course>
  <speed>25.19</speed>
  <fix>3d</fix>
</trkpt>
<trkpt lat="-27.2725496" lon="151.2906555">
  <ele>374.48</ele>
  <time>2026-09-01T19:57:45Z</time>
  <course>356.36</course>
  <speed>25.356807764385486</speed>
  <fix>3d</fix>
</trkpt>
<trkpt lat="-27.2725717" lon="151.2906565">
  <ele>374.77</ele>
  <time>2026-09-01T19:57:45Z</time>
  <course>356.39</course>
  <speed>25.26</speed>
  <fix>3d</fix>
</trkpt>
<trkpt lat="-27.2725268" lon="151.2906539">
  <ele>374.31</ele>
  <time>2026-09-01T19:57:45Z</time>
  <course>356.4</course>
  <speed>25.406715647639306</speed>
  <fix>3d</fix>
</trkpt>
<trkpt lat="-27.2725717" lon="151.2906565">
  <ele>374.77</ele>
  <time>2026-09-01T19:57:45Z</time>
  <course>356.39</course>
  <speed>25.26</speed>
  <fix>3d</fix>
</trkpt>
<trkpt lat="-27.2725041" lon="151.2906523">
  <ele>374.14</ele>
  <time>2026-09-01T19:57:45Z</time>
  <course>356.42</course>
  <speed>25.456020898797206</speed>
  <fix>3d</fix>
</trkpt>
<trkpt lat="-27.2725263" lon="151.2906532">
  <ele>374.45</ele>
  <time>2026-09-01T19:57:45Z</time>
  <course>356.42</course>
  <speed>25.35</speed>
  <fix>3d</fix>
</trkpt>
<trkpt lat="-27.2724812" lon="151.2906507">
  <ele>373.97</ele>
  <time>2026-09-01T19:57:45Z</time>
  <course>356.4</course>
  <speed>25.50593068288236</speed>
  <fix>3d</fix>
</trkpt>
<trkpt lat="-27.2725263" lon="151.2906532">
  <ele>374.45</ele>
  <time>2026-09-01T19:57:45Z</time>
  <course>356.42</course>
  <speed>25.35</speed>
  <fix>3d</fix>
</trkpt>
<trkpt lat="-27.2724584" lon="151.2906491">
  <ele>373.79</ele>
  <time>2026-09-01T19:57:45Z</time>
  <course>356.44</course>
  <speed>25.565226382725424</speed>
  <fix>3d</fix>
</trkpt>
<trkpt lat="-27.2724808" lon="151.2906501">
  <ele>374.11</ele>
  <time>2026-09-01T19:57:45Z</time>
  <course>356.47</course>
  <speed>25.45</speed>
  <fix>3d</fix>
</trkpt>
<trkpt lat="-27.2724355" lon="151.2906475">
  <ele>373.62</ele>
  <time>2026-09-01T19:57:45Z</time>
  <course>356.44</course>
  <speed>25.614546648340273</speed>
  <fix>3d</fix>
</trkpt>
<trkpt lat="-27.2724808" lon="151.2906501">
  <ele>374.11</ele>
  <time>2026-09-01T19:57:45Z</time>
  <course>356.47</course>
  <speed>25.45</speed>
  <fix>3d</fix>
</trkpt>
<trkpt lat="-27.2724125" lon="151.2906459">
  <ele>373.46</ele>
  <time>2026-09-01T19:57:45Z</time>
  <course>356.49</course>
  <speed>25.663290903545477</speed>
  <fix>3d</fix>
</trkpt>
<trkpt lat="-27.272435" lon="151.2906469">
  <ele>373.78</ele>
  <time>2026-09-01T19:57:45Z</time>
  <course>356.54</course>
  <speed>25.56</speed>
  <fix>3d</fix>
</trkpt>
<trkpt lat="-27.2723895" lon="151.2906443">
  <ele>373.29</ele>
  <time>2026-09-01T19:57:45Z</time>
  <course>356.47</course>
  <speed>25.73259606025012</speed>
  <fix>3d</fix>
</trkpt>
<trkpt lat="-27.272435" lon="151.2906469">
  <ele>373.78</ele>
  <time>2026-09-01T19:57:45Z</time>
  <course>356.54</course>
  <speed>25.56</speed>
  <fix>3d</fix>
</trkpt>
<trkpt lat="-27.2723664" lon="151.2906428">
  <ele>373.13</ele>
  <time>2026-09-01T19:57:45Z</time>
  <course>356.51</course>
  <speed>25.791925092943334</speed>
  <fix>3d</fix>
</trkpt>
<trkpt lat="-27.2723889" lon="151.2906439">
  <ele>373.45</ele>
  <time>2026-09-01T19:57:45Z</time>
  <course>356.63</course>
  <speed>25.67</speed>
  <fix>3d</fix>
</trkpt>
<trkpt lat="-27.2723433" lon="151.2906413">
  <ele>372.98</ele>
  <time>2026-09-01T19:57:45Z</time>
  <course>356.55</course>
  <speed>25.84071399942347</speed>
  <fix>3d</fix>
</trkpt>
<trkpt lat="-27.2723889" lon="151.2906439">
  <ele>373.45</ele>
  <time>2026-09-01T19:57:45Z</time>
  <course>356.63</course>
  <speed>25.67</speed>
  <fix>3d</fix>
</trkpt>
<trkpt lat="-27.2723202" lon="151.2906398">
  <ele>372.83</ele>
  <time>2026-09-01T19:57:45Z</time>
  <course>356.58</course>
  <speed>25.900061775988103</speed>
  <fix>3d</fix>
</trkpt>
<trkpt lat="-27.2723427" lon="151.2906409">
  <ele>373.14</ele>
  <time>2026-09-01T19:57:45Z</time>
  <course>356.73</course>
  <speed>25.78</speed>
  <fix>3d</fix>
</trkpt>
<trkpt lat="-27.272297" lon="151.2906383">
  <ele>372.69</ele>
  <time>2026-09-01T19:57:45Z</time>
  <course>356.64</course>
  <speed>25.948882442217045</speed>
  <fix>3d</fix>
</trkpt>
<trkpt lat="-27.2723427" lon="151.2906409">
  <ele>373.14</ele>
  <time>2026-09-01T19:57:45Z</time>
  <course>356.73</course>
  <speed>25.78</speed>
  <fix>3d</fix>
</trkpt>
<trkpt lat="-27.2722737" lon="151.2906368">
  <ele>372.56</ele>
  <time>2026-09-01T19:57:45Z</time>
  <course>356.7</course>
  <speed>25.998263403542936</speed>
  <fix>3d</fix>
</trkpt>
<trkpt lat="-27.2722964" lon="151.2906379">
  <ele>372.87</ele>
  <time>2026-09-01T19:57:45Z</time>
  <course>356.82</course>
  <speed>25.89</speed>
  <fix>3d</fix>
</trkpt>
<trkpt lat="-27.2722504" lon="151.2906354">
  <ele>372.44</ele>
  <time>2026-09-01T19:57:45Z</time>
  <course>356.72</course>
  <speed>26.047650565837984</speed>
  <fix>3d</fix>
</trkpt>
<trkpt lat="-27.2722964" lon="151.2906379">
  <ele>372.87</ele>
  <time>2026-09-01T19:57:45Z</time>
  <course>356.82</course>
  <speed>25.89</speed>
  <fix>3d</fix>
</trkpt>
<trkpt lat="-27.272227" lon="151.2906339">
  <ele>372.33</ele>
  <time>2026-09-01T19:57:45Z</time>
  <course>356.74</course>
  <speed>26.097043893897254</speed>
  <fix>3d</fix>
</trkpt>
<trkpt lat="-27.2722499" lon="151.2906351">
  <ele>372.62</ele>
  <time>2026-09-01T19:57:45Z</time>
  <course>356.89</course>
  <speed>25.99</speed>
  <fix>3d</fix>
</trkpt>
<trkpt lat="-27.2722037" lon="151.2906325">
  <ele>372.23</ele>
  <time>2026-09-01T19:57:45Z</time>
  <course>356.78</course>
  <speed>26.13645729627487</speed>
  <fix>3d</fix>
</trkpt>
<trkpt lat="-27.2722499" lon="151.2906351">
  <ele>372.62</ele>
  <time>2026-09-01T19:57:45Z</time>
  <course>356.89</course>
  <speed>25.99</speed>
  <fix>3d</fix>
</trkpt>
<trkpt lat="-27.2721804" lon="151.2906311">
  <ele>372.14</ele>
  <time>2026-09-01T19:57:45Z</time>
  <course>356.86</course>
  <speed>26.175876298607463</speed>
  <fix>3d</fix>
</trkpt>
<trkpt lat="-27.2722032" lon="151.2906323">
  <ele>372.41</ele>
  <time>2026-09-01T19:57:45Z</time>
  <course>356.96</course>
  <speed>26.08</speed>
  <fix>3d</fix>
</trkpt>
<trkpt lat="-27.272157" lon="151.2906297">
  <ele>372.05</ele>
  <time>2026-09-01T19:57:45Z</time>
  <course>356.93</course>
  <speed>26.21530087563368</speed>
  <fix>3d</fix>
</trkpt>
<trkpt lat="-27.2722032" lon="151.2906323">
  <ele>372.41</ele>
  <time>2026-09-01T19:57:45Z</time>
  <course>356.96</course>
  <speed>26.08</speed>
  <fix>3d</fix>
</trkpt>
<trkpt lat="-27.2721335" lon="151.2906283">
  <ele>371.97</ele>
  <time>2026-09-01T19:57:45Z</time>
  <course>356.96</course>
  <speed>26.244231747185896</speed>
  <fix>3d</fix>
</trkpt>
<trkpt lat="-27.2721564" lon="151.2906295">
  <ele>372.24</ele>
  <time>2026-09-01T19:57:45Z</time>
  <course>357.04</course>
  <speed>26.15</speed>
  <fix>3d</fix>
</trkpt>
<trkpt lat="-27.27211" lon="151.290627">
  <ele>371.9</ele>
  <time>2026-09-01T19:57:45Z</time>
  <course>356.93</course>
  <speed>26.283671737411424</speed>
  <fix>3d</fix>
</trkpt>
<trkpt lat="-27.2721564" lon="151.2906295">
  <ele>372.24</ele>
  <time>2026-09-01T19:57:45Z</time>
  <course>357.04</course>
  <speed>26.15</speed>
  <fix>3d</fix>
</trkpt>
<trkpt lat="-27.2720862" lon="151.2906256">
  <ele>371.84</ele>
  <time>2026-09-01T19:57:45Z</time>
  <course>356.95</course>
  <speed>26.313129802438933</speed>
  <fix>3d</fix>
</trkpt>
<trkpt lat="-27.2721094" lon="151.2906268">
  <ele>372.09</ele>
  <time>2026-09-01T19:57:45Z</time>
  <course>357.12</course>
  <speed>26.22</speed>
  <fix>3d</fix>
</trkpt>
<trkpt lat="-27.2720627" lon="151.2906243">
  <ele>371.78</ele>
  <time>2026-09-01T19:57:45Z</time>
  <course>356.99</course>
  <speed>26.332605264196705</speed>
  <fix>3d</fix>
</trkpt>
<trkpt lat="-27.2721094" lon="151.2906268">
  <ele>372.09</ele>
  <time>2026-09-01T19:57:45Z</time>
  <course>357.12</course>
  <speed>26.22</speed>
  <fix>3d</fix>
</trkpt>
<trkpt lat="-27.2720391" lon="151.2906229">
  <ele>371.73</ele>
  <time>2026-09-01T19:57:45Z</time>
  <course>357.07</course>
  <speed>26.352085306480017</speed>
  <fix>3d</fix>
</trkpt>
<trkpt lat="-27.2720623" lon="151.2906242">
  <ele>371.97</ele>
  <time>2026-09-01T19:57:45Z</time>
  <course>357.18</course>
  <speed>26.28</speed>
  <fix>3d</fix>
</trkpt>
<trkpt lat="-27.2720153" lon="151.2906216">
  <ele>371.69</ele>
  <time>2026-09-01T19:57:45Z</time>
  <course>357.11</course>
  <speed>26.381557952478847</speed>
  <fix>3d</fix>
</trkpt>
<trkpt lat="-27.2720623" lon="151.2906242">
  <ele>371.97</ele>
  <time>2026-09-01T19:57:45Z</time>
  <course>357.18</course>
  <speed>26.28</speed>
  <fix>3d</fix>
</trkpt>
<trkpt lat="-27.2719917" lon="151.2906203">
  <ele>371.66</ele>
  <time>2026-09-01T19:57:45Z</time>
  <course>357.12</course>
  <speed>26.401047327710316</speed>
  <fix>3d</fix>
</trkpt>
<trkpt lat="-27.2720151" lon="151.2906216">
  <ele>371.88</ele>
  <time>2026-09-01T19:57:45Z</time>
  <course>357.24</course>
  <speed>26.32</speed>
  <fix>3d</fix>
</trkpt>
<trkpt lat="-27.271968" lon="151.290619">
  <ele>371.62</ele>
  <time>2026-09-01T19:57:45Z</time>
  <course>357.15</course>
  <speed>26.410552815115402</speed>
  <fix>3d</fix>
</trkpt>
<trkpt lat="-27.2720151" lon="151.2906216">
  <ele>371.88</ele>
  <time>2026-09-01T19:57:45Z</time>
  <course>357.24</course>
  <speed>26.32</speed>
  <fix>3d</fix>
</trkpt>
<trkpt lat="-27.2719444" lon="151.2906178">
  <ele>371.6</ele>
  <time>2026-09-01T19:57:45Z</time>
  <course>357.14</course>
  <speed>26.4305296957893</speed>
  <fix>3d</fix>
</trkpt>
<trkpt lat="-27.2719678" lon="151.2906191">
  <ele>371.81</ele>
  <time>2026-09-01T19:57:45Z</time>
  <course>357.29</course>
  <speed>26.37</speed>
  <fix>3d</fix>
</trkpt>
<trkpt lat="-27.2719208" lon="151.2906165">
  <ele>371.57</ele>
  <time>2026-09-01T19:57:45Z</time>
  <course>357.21</course>
  <speed>26.44003971252691</speed>
  <fix>3d</fix>
</trkpt>
<trkpt lat="-27.2719678" lon="151.2906191">
  <ele>371.81</ele>
  <time>2026-09-01T19:57:45Z</time>
  <course>357.29</course>
  <speed>26.37</speed>
  <fix>3d</fix>
</trkpt>
<trkpt lat="-27.2718972" lon="151.2906152">
  <ele>371.55</ele>
  <time>2026-09-01T19:57:45Z</time>
  <course>357.27</course>
  <speed>26.449083159913126</speed>
  <fix>3d</fix>
</trkpt>
<trkpt lat="-27.2719204" lon="151.2906166">
  <ele>371.76</ele>
  <time>2026-09-01T19:57:45Z</time>
  <course>357.34</course>
  <speed>26.4</speed>
  <fix>3d</fix>
</trkpt>
<trkpt lat="-27.2718736" lon="151.290614">
  <ele>371.54</ele>
  <time>2026-09-01T19:57:45Z</time>
  <course>357.28</course>
  <speed>26.45860540542528</speed>
  <fix>3d</fix>
</trkpt>
<trkpt lat="-27.2719204" lon="151.2906166">
  <ele>371.76</ele>
  <time>2026-09-01T19:57:45Z</time>
  <course>357.34</course>
  <speed>26.4</speed>
  <fix>3d</fix>
</trkpt>
<trkpt lat="-27.2718499" lon="151.2906128">
  <ele>371.53</ele>
  <time>2026-09-01T19:57:45Z</time>
  <course>357.25</course>
  <speed>26.468131781446154</speed>
  <fix>3d</fix>
</trkpt>
<trkpt lat="-27.2718729" lon="151.2906142">
  <ele>371.72</ele>
  <time>2026-09-01T19:57:45Z</time>
  <course>357.4</course>
  <speed>26.43</speed>
  <fix>3d</fix>
</trkpt>
<trkpt lat="-27.2718261" lon="151.2906116">
  <ele>371.52</ele>
  <time>2026-09-01T19:57:45Z</time>
  <course>357.31</course>
  <speed>26.477662283517404</speed>
  <fix>3d</fix>
</trkpt>
<trkpt lat="-27.2718729" lon="151.2906142">
  <ele>371.72</ele>
  <time>2026-09-01T19:57:45Z</time>
  <course>357.4</course>
  <speed>26.43</speed>
  <fix>3d</fix>
</trkpt>
<trkpt lat="-27.2718024" lon="151.2906104">
  <ele>371.52</ele>
  <time>2026-09-01T19:57:45Z</time>
  <course>357.32</course>
  <speed>26.477207179005873</speed>
  <fix>3d</fix>
</trkpt>
<trkpt lat="-27.2718255" lon="151.2906117">
  <ele>371.7</ele>
  <time>2026-09-01T19:57:45Z</time>
  <course>357.45</course>
  <speed>26.44</speed>
  <fix>3d</fix>
</trkpt>
<trkpt lat="-27.2717786" lon="151.2906092">
  <ele>371.52</ele>
  <time>2026-09-01T19:57:45Z</time>
  <course>357.35</course>
  <speed>26.49718664311364</speed>
  <fix>3d</fix>
</trkpt>
<trkpt lat="-27.2718255" lon="151.2906117">
  <ele>371.7</ele>
  <time>2026-09-01T19:57:45Z</time>
  <course>357.45</course>
  <speed>26.44</speed>
  <fix>3d</fix>
</trkpt>
<trkpt lat="-27.2717548" lon="151.290608">
  <ele>371.53</ele>
  <time>2026-09-01T19:57:45Z</time>
  <course>357.33</course>
  <speed>26.49673564800011</speed>
  <fix>3d</fix>
</trkpt>
<trkpt lat="-27.271778" lon="151.2906094">
  <ele>371.69</ele>
  <time>2026-09-01T19:57:45Z</time>
  <course>357.49</course>
  <speed>26.46</speed>
  <fix>3d</fix>
</trkpt>
<trkpt lat="-27.271731" lon="151.2906068">
  <ele>371.54</ele>
  <time>2026-09-01T19:57:45Z</time>
  <course>357.33</course>
  <speed>26.49673564800011</speed>
  <fix>3d</fix>
</trkpt>
<trkpt lat="-27.271778" lon="151.2906094">
  <ele>371.69</ele>
  <time>2026-09-01T19:57:45Z</time>
  <course>357.49</course>
  <speed>26.46</speed>
  <fix>3d</fix>
</trkpt>
<trkpt lat="-27.2717074" lon="151.2906057">
  <ele>371.55</ele>
  <time>2026-09-01T19:57:45Z</time>
  <course>357.41</course>
  <speed>26.49673564800011</speed>
  <fix>3d</fix>
</trkpt>
<trkpt lat="-27.2717305" lon="151.2906071">
  <ele>371.71</ele>
  <time>2026-09-01T19:57:45Z</time>
  <course>357.51</course>
  <speed>26.46</speed>
  <fix>3d</fix>
</trkpt>
<trkpt lat="-27.2716838" lon="151.2906045">
  <ele>371.56</ele>
  <time>2026-09-01T19:57:45Z</time>
  <course>357.42</course>
  <speed>26.486298344615843</speed>
  <fix>3d</fix>
</trkpt>
<trkpt lat="-27.2717305" lon="151.2906071">
  <ele>371.71</ele>
  <time>2026-09-01T19:57:45Z</time>
  <course>357.51</course>
  <speed>26.46</speed>
  <fix>3d</fix>
</trkpt>
<trkpt lat="-27.2716601" lon="151.2906034">
  <ele>371.58</ele>
  <time>2026-09-01T19:57:45Z</time>
  <course>357.41</course>
  <speed>26.48585471530039</speed>
  <fix>3d</fix>
</trkpt>
<trkpt lat="-27.271683" lon="151.2906047">
  <ele>371.73</ele>
  <time>2026-09-01T19:57:45Z</time>
  <course>357.54</course>
  <speed>26.45</speed>
  <fix>3d</fix>
</trkpt>
<trkpt lat="-27.2716365" lon="151.2906022">
  <ele>371.59</ele>
  <time>2026-09-01T19:57:45Z</time>
  <course>357.39</course>
  <speed>26.465874253460814</speed>
  <fix>3d</fix>
</trkpt>
<trkpt lat="-27.271683" lon="151.2906047">
  <ele>371.73</ele>
  <time>2026-09-01T19:57:45Z</time>
  <course>357.54</course>
  <speed>26.45</speed>
  <fix>3d</fix>
</trkpt>
<trkpt lat="-27.2716129" lon="151.2906011">
  <ele>371.62</ele>
  <time>2026-09-01T19:57:45Z</time>
  <course>357.47</course>
  <speed>26.455884033613394</speed>
  <fix>3d</fix>
</trkpt>
<trkpt lat="-27.2716356" lon="151.2906024">
  <ele>371.77</ele>
  <time>2026-09-01T19:57:45Z</time>
  <course>357.56</course>
  <speed>26.45</speed>
  <fix>3d</fix>
</trkpt>
<trkpt lat="-27.2715892" lon="151.2905999">
  <ele>371.64</ele>
  <time>2026-09-01T19:57:45Z</time>
  <course>357.54</course>
  <speed>26.435462923883136</speed>
  <fix>3d</fix>
</trkpt>
<trkpt lat="-27.2716356" lon="151.2906024">
  <ele>371.77</ele>
  <time>2026-09-01T19:57:45Z</time>
  <course>357.56</course>
  <speed>26.45</speed>
  <fix>3d</fix>
</trkpt>
<trkpt lat="-27.2715656" lon="151.2905988">
  <ele>371.66</ele>
  <time>2026-09-01T19:57:45Z</time>
  <course>357.53</course>
  <speed>26.424602172975092</speed>
  <fix>3d</fix>
</trkpt>
<trkpt lat="-27.2715881" lon="151.2906002">
  <ele>371.81</ele>
  <time>2026-09-01T19:57:45Z</time>
  <course>357.59</course>
  <speed>26.43</speed>
  <fix>3d</fix>
</trkpt>
<trkpt lat="-27.2715421" lon="151.2905977">
  <ele>371.7</ele>
  <time>2026-09-01T19:57:45Z</time>
  <course>357.47</course>
  <speed>26.394630135692374</speed>
  <fix>3d</fix>
</trkpt>
<trkpt lat="-27.2715881" lon="151.2906002">
  <ele>371.81</ele>
  <time>2026-09-01T19:57:45Z</time>
  <course>357.59</course>
  <speed>26.43</speed>
  <fix>3d</fix>
</trkpt>
<trkpt lat="-27.2715186" lon="151.2905966">
  <ele>371.73</ele>
  <time>2026-09-01T19:57:45Z</time>
  <course>357.47</course>
  <speed>26.37464881282782</speed>
  <fix>3d</fix>
</trkpt>
<trkpt lat="-27.2715407" lon="151.290598">
  <ele>371.87</ele>
  <time>2026-09-01T19:57:45Z</time>
  <course>357.62</course>
  <speed>26.41</speed>
  <fix>3d</fix>
</trkpt>
<trkpt lat="-27.2714951" lon="151.2905955">
  <ele>371.76</ele>
  <time>2026-09-01T19:57:46Z</time>
  <course>357.5</course>
  <speed>26.364227657945907</speed>
  <fix>3d</fix>
</trkpt>
<trkpt lat="-27.2715407" lon="151.290598">
  <ele>371.87</ele>
  <time>2026-09-01T19:57:46Z</time>
  <course>357.62</course>
  <speed>26.41</speed>
  <fix>3d</fix>
</trkpt>
<trkpt lat="-27.2714715" lon="151.2905944">
  <ele>371.79</ele>
  <time>2026-09-01T19:57:46Z</time>
  <course>357.51</course>
  <speed>26.34424605108296</speed>
  <fix>3d</fix>
</trkpt>
<trkpt lat="-27.2714933" lon="151.2905958">
  <ele>371.93</ele>
  <time>2026-09-01T19:57:46Z</time>
  <course>357.63</course>
  <speed>26.38</speed>
  <fix>3d</fix>
</trkpt>
<trkpt lat="-27.271448" lon="151.2905933">
  <ele>371.82</ele>
  <time>2026-09-01T19:57:46Z</time>
  <course>357.52</course>
  <speed>26.324264472155722</speed>
  <fix>3d</fix>
</trkpt>
<trkpt lat="-27.2714933" lon="151.2905958">
  <ele>371.93</ele>
  <time>2026-09-01T19:57:46Z</time>
  <course>357.63</course>
  <speed>26.38</speed>
  <fix>3d</fix>
</trkpt>
<trkpt lat="-27.2714245" lon="151.2905922">
  <ele>371.85</ele>
  <time>2026-09-01T19:57:46Z</time>
  <course>357.59</course>
  <speed>26.304282921227863</speed>
  <fix>3d</fix>
</trkpt>
<trkpt lat="-27.2714459" lon="151.2905936">
  <ele>371.99</ele>
  <time>2026-09-01T19:57:46Z</time>
  <course>357.64</course>
  <speed>26.35</speed>
  <fix>3d</fix>
</trkpt>
<trkpt lat="-27.271401" lon="151.2905911">
  <ele>371.88</ele>
  <time>2026-09-01T19:57:46Z</time>
  <course>357.6</course>
  <speed>26.283873382741746</speed>
  <fix>3d</fix>
</trkpt>
<trkpt lat="-27.2714459" lon="151.2905936">
  <ele>371.99</ele>
  <time>2026-09-01T19:57:46Z</time>
  <course>357.64</course>
  <speed>26.35</speed>
  <fix>3d</fix>
</trkpt>
<trkpt lat="-27.2713775" lon="151.29059">
  <ele>371.92</ele>
  <time>2026-09-01T19:57:46Z</time>
  <course>357.62</course>
  <speed>26.26346702170146</speed>
  <fix>3d</fix>
</trkpt>
<trkpt lat="-27.2713985" lon="151.2905914">
  <ele>372.05</ele>
  <time>2026-09-01T19:57:46Z</time>
  <course>357.66</course>
  <speed>26.32</speed>
  <fix>3d</fix>
</trkpt>
<trkpt lat="-27.2713538" lon="151.290589">
  <ele>371.95</ele>
  <time>2026-09-01T19:57:46Z</time>
  <course>357.61</course>
  <speed>26.253055060316314</speed>
  <fix>3d</fix>
</trkpt>
<trkpt lat="-27.2713985" lon="151.2905914">
  <ele>372.05</ele>
  <time>2026-09-01T19:57:46Z</time>
  <course>357.66</course>
  <speed>26.32</speed>
  <fix>3d</fix>
</trkpt>
<trkpt lat="-27.2713303" lon="151.2905879">
  <ele>371.98</ele>
  <time>2026-09-01T19:57:46Z</time>
  <course>357.62</course>
  <speed>26.24264658909234</speed>
  <fix>3d</fix>
</trkpt>
<trkpt lat="-27.2713513" lon="151.2905893">
  <ele>372.11</ele>
  <time>2026-09-01T19:57:46Z</time>
  <course>357.69</course>
  <speed>26.3</speed>
  <fix>3d</fix>
</trkpt>
<trkpt lat="-27.2713068" lon="151.2905868">
  <ele>372.0</ele>
  <time>2026-09-01T19:57:46Z</time>
  <course>357.6</course>
  <speed>26.232241612184044</speed>
  <fix>3d</fix>
</trkpt>
<trkpt lat="-27.2713513" lon="151.2905893">
  <ele>372.11</ele>
  <time>2026-09-01T19:57:46Z</time>
  <course>357.69</course>
  <speed>26.3</speed>
  <fix>3d</fix>
</trkpt>
<trkpt lat="-27.2712832" lon="151.2905858">
  <ele>372.03</ele>
  <time>2026-09-01T19:57:46Z</time>
  <course>357.62</course>
  <speed>26.21184846591327</speed>
  <fix>3d</fix>
</trkpt>
<trkpt lat="-27.2713041" lon="151.2905871">
  <ele>372.16</ele>
  <time>2026-09-01T19:57:46Z</time>
  <course>357.72</course>
  <speed>26.27</speed>
  <fix>3d</fix>
</trkpt>
<trkpt lat="-27.2712597" lon="151.2905848">
  <ele>372.06</ele>
  <time>2026-09-01T19:57:46Z</time>
  <course>357.62</course>
  <speed>26.201856804432772</speed>
  <fix>3d</fix>
</trkpt>
<trkpt lat="-27.2713041" lon="151.2905871">
  <ele>372.16</ele>
  <time>2026-09-01T19:57:46Z</time>
  <course>357.72</course>
  <speed>26.27</speed>
  <fix>3d</fix>
</trkpt>
<trkpt lat="-27.2712361" lon="151.2905837">
  <ele>372.09</ele>
  <time>2026-09-01T19:57:46Z</time>
  <course>357.61</course>
  <speed>26.191458531360944</speed>
  <fix>3d</fix>
</trkpt>
<trkpt lat="-27.271257" lon="151.290585">
  <ele>372.21</ele>
  <time>2026-09-01T19:57:46Z</time>
  <course>357.75</course>
  <speed>26.25</speed>
  <fix>3d</fix>
</trkpt>
<trkpt lat="-27.2712127" lon="151.2905827">
  <ele>372.12</ele>
  <time>2026-09-01T19:57:46Z</time>
  <course>357.62</course>
  <speed>26.18106376754008</speed>
  <fix>3d</fix>
</trkpt>
<trkpt lat="-27.271257" lon="151.290585">
  <ele>372.21</ele>
  <time>2026-09-01T19:57:46Z</time>
  <course>357.75</course>
  <speed>26.25</speed>
  <fix>3d</fix>
</trkpt>
<trkpt lat="-27.2711892" lon="151.2905817">
  <ele>372.15</ele>
  <time>2026-09-01T19:57:46Z</time>
  <course>357.65</course>
  <speed>26.171071816033823</speed>
  <fix>3d</fix>
</trkpt>
<trkpt lat="-27.2712099" lon="151.290583">
  <ele>372.27</ele>
  <time>2026-09-01T19:57:46Z</time>
  <course>357.78</course>
  <speed>26.22</speed>
  <fix>3d</fix>
</trkpt>
<trkpt lat="-27.2711656" lon="151.2905807">
  <ele>372.18</ele>
  <time>2026-09-01T19:57:46Z</time>
  <course>357.69</course>
  <speed>26.160680419285733</speed>
  <fix>3d</fix>
</trkpt>
<trkpt lat="-27.2712099" lon="151.290583">
  <ele>372.27</ele>
  <time>2026-09-01T19:57:46Z</time>
  <course>357.78</course>
  <speed>26.22</speed>
  <fix>3d</fix>
</trkpt>
<trkpt lat="-27.2711421" lon="151.2905797">
  <ele>372.21</ele>
  <time>2026-09-01T19:57:46Z</time>
  <course>357.66</course>
  <speed>26.150292541384697</speed>
  <fix>3d</fix>
</trkpt>
<trkpt lat="-27.2711629" lon="151.290581">
  <ele>372.33</ele>
  <time>2026-09-01T19:57:46Z</time>
  <course>357.8</course>
  <speed>26.18</speed>
  <fix>3d</fix>
</trkpt>
<trkpt lat="-27.2711183" lon="151.2905786">
  <ele>372.24</ele>
  <time>2026-09-01T19:57:46Z</time>
  <course>357.65</course>
  <speed>26.130308073193472</speed>
  <fix>3d</fix>
</trkpt>
<trkpt lat="-27.2711629" lon="151.290581">
  <ele>372.33</ele>
  <time>2026-09-01T19:57:46Z</time>
  <course>357.8</course>
  <speed>26.18</speed>
  <fix>3d</fix>
</trkpt>
<trkpt lat="-27.2710948" lon="151.2905776">
  <ele>372.27</ele>
  <time>2026-09-01T19:57:46Z</time>
  <course>357.67</course>
  <speed>26.120315848013785</speed>
  <fix>3d</fix>
</trkpt>
<trkpt lat="-27.2711159" lon="151.2905789">
  <ele>372.39</ele>
  <time>2026-09-01T19:57:46Z</time>
  <course>357.82</course>
  <speed>26.15</speed>
  <fix>3d</fix>
</trkpt>
<trkpt lat="-27.2710713" lon="151.2905767">
  <ele>372.3</ele>
  <time>2026-09-01T19:57:46Z</time>
  <course>357.66</course>
  <speed>26.099938697246017</speed>
  <fix>3d</fix>
</trkpt>
<trkpt lat="-27.2711159" lon="151.2905789">
  <ele>372.39</ele>
  <time>2026-09-01T19:57:46Z</time>
  <course>357.82</course>
  <speed>26.15</speed>
  <fix>3d</fix>
</trkpt>
<trkpt lat="-27.2710478" lon="151.2905757">
  <ele>372.33</ele>
  <time>2026-09-01T19:57:46Z</time>
  <course>357.63</course>
  <speed>26.089946339538532</speed>
  <fix>3d</fix>
</trkpt>
<trkpt lat="-27.271069" lon="151.2905769">
  <ele>372.46</ele>
  <time>2026-09-01T19:57:46Z</time>
  <course>357.83</course>
  <speed>26.11</speed>
  <fix>3d</fix>
</trkpt>
<trkpt lat="-27.2710244" lon="151.2905747">
  <ele>372.36</ele>
  <time>2026-09-01T19:57:46Z</time>
  <course>357.64</course>
  <speed>26.06996164170557</speed>
  <fix>3d</fix>
</trkpt>
<trkpt lat="-27.271069" lon="151.2905769">
  <ele>372.46</ele>
  <time>2026-09-01T19:57:46Z</time>
  <course>357.83</course>
  <speed>26.11</speed>
  <fix>3d</fix>
</trkpt>
<trkpt lat="-27.2710009" lon="151.2905737">
  <ele>372.39</ele>
  <time>2026-09-01T19:57:46Z</time>
  <course>357.65</course>
  <speed>26.059969301593583</speed>
  <fix>3d</fix>
</trkpt>
<trkpt lat="-27.2710222" lon="151.290575">
  <ele>372.52</ele>
  <time>2026-09-01T19:57:46Z</time>
  <course>357.83</course>
  <speed>26.08</speed>
  <fix>3d</fix>
</trkpt>
<trkpt lat="-27.2709775" lon="151.2905727">
  <ele>372.42</ele>
  <time>2026-09-01T19:57:46Z</time>
  <course>357.66</course>
  <speed>26.04958732878508</speed>
  <fix>3d</fix>
</trkpt>
<trkpt lat="-27.2710222" lon="151.290575">
  <ele>372.52</ele>
  <time>2026-09-01T19:57:46Z</time>
  <course>357.83</course>
  <speed>26.08</speed>
  <fix>3d</fix>
</trkpt>
<trkpt lat="-27.2709541" lon="151.2905717">
  <ele>372.44</ele>
  <time>2026-09-01T19:57:46Z</time>
  <course>357.61</course>
  <speed>26.03959485091886</speed>
  <fix>3d</fix>
</trkpt>
<trkpt lat="-27.2709754" lon="151.290573">
  <ele>372.58</ele>
  <time>2026-09-01T19:57:46Z</time>
  <course>357.84</course>
  <speed>26.04</speed>
  <fix>3d</fix>
</trkpt>
<trkpt lat="-27.2709307" lon="151.2905707">
  <ele>372.47</ele>
  <time>2026-09-01T19:57:46Z</time>
  <course>357.58</course>
  <speed>26.029602378830145</speed>
  <fix>3d</fix>
</trkpt>
<trkpt lat="-27.2709754" lon="151.290573">
  <ele>372.58</ele>
  <time>2026-09-01T19:57:46Z</time>
  <course>357.84</course>
  <speed>26.04</speed>
  <fix>3d</fix>
</trkpt>
<trkpt lat="-27.2709073" lon="151.2905697">
  <ele>372.5</ele>
  <time>2026-09-01T19:57:46Z</time>
  <course>357.53</course>
  <speed>26.009617452011863</speed>
  <fix>3d</fix>
</trkpt>
<trkpt lat="-27.2709286" lon="151.290571">
  <ele>372.63</ele>
  <time>2026-09-01T19:57:46Z</time>
  <course>357.84</course>
  <speed>26.01</speed>
  <fix>3d</fix>
</trkpt>
<trkpt lat="-27.2708839" lon="151.2905688">
  <ele>372.52</ele>
  <time>2026-09-01T19:57:46Z</time>
  <course>357.59</course>
  <speed>25.999624997295633</speed>
  <fix>3d</fix>
</trkpt>
<trkpt lat="-27.2709286" lon="151.290571">
  <ele>372.63</ele>
  <time>2026-09-01T19:57:46Z</time>
  <course>357.84</course>
  <speed>26.01</speed>
  <fix>3d</fix>
</trkpt>
<trkpt lat="-27.2708606" lon="151.2905678">
  <ele>372.55</ele>
  <time>2026-09-01T19:57:46Z</time>
  <course>357.6</course>
  <speed>25.979640105282442</speed>
  <fix>3d</fix>
</trkpt>
<trkpt lat="-27.2708818" lon="151.290569">
  <ele>372.68</ele>
  <time>2026-09-01T19:57:46Z</time>
  <course>357.82</course>
  <speed>25.98</speed>
  <fix>3d</fix>
</trkpt>
<trkpt lat="-27.2708372" lon="151.2905668">
  <ele>372.58</ele>
  <time>2026-09-01T19:57:46Z</time>
  <course>357.6</course>
  <speed>25.96964766799889</speed>
  <fix>3d</fix>
</trkpt>
<trkpt lat="-27.2708818" lon="151.290569">
  <ele>372.68</ele>
  <time>2026-09-01T19:57:46Z</time>
  <course>357.82</course>
  <speed>25.98</speed>
  <fix>3d</fix>
</trkpt>
<trkpt lat="-27.2708139" lon="151.2905658">
  <ele>372.6</ele>
  <time>2026-09-01T19:57:46Z</time>
  <course>357.6</course>
  <speed>25.95005394984758</speed>
  <fix>3d</fix>
</trkpt>
<trkpt lat="-27.2708352" lon="151.2905669">
  <ele>372.73</ele>
  <time>2026-09-01T19:57:46Z</time>
  <course>357.81</course>
  <speed>25.95</speed>
  <fix>3d</fix>
</trkpt>
<trkpt lat="-27.2707906" lon="151.2905648">
  <ele>372.63</ele>
  <time>2026-09-01T19:57:46Z</time>
  <course>357.63</course>
  <speed>25.93967039112101</speed>
  <fix>3d</fix>
</trkpt>
<trkpt lat="-27.2708352" lon="151.2905669">
  <ele>372.73</ele>
  <time>2026-09-01T19:57:46Z</time>
  <course>357.81</course>
  <speed>25.95</speed>
  <fix>3d</fix>
</trkpt>
<trkpt lat="-27.2707673" lon="151.2905638">
  <ele>372.66</ele>
  <time>2026-09-01T19:57:46Z</time>
  <course>357.65</course>
  <speed>25.9292903875135</speed>
  <fix>3d</fix>
</trkpt>
<trkpt lat="-27.2707887" lon="151.2905649">
  <ele>372.78</ele>
  <time>2026-09-01T19:57:46Z</time>
  <course>357.81</course>
  <speed>25.91</speed>
  <fix>3d</fix>
</trkpt>
<trkpt lat="-27.270744" lon="151.2905628">
  <ele>372.68</ele>
  <time>2026-09-01T19:57:46Z</time>
  <course>357.6</course>
  <speed>25.90930527822002</speed>
  <fix>3d</fix>
</trkpt>
<trkpt lat="-27.2707887" lon="151.2905649">
  <ele>372.78</ele>
  <time>2026-09-01T19:57:46Z</time>
  <course>357.81</course>
  <speed>25.91</speed>
  <fix>3d</fix>
</trkpt>
<trkpt lat="-27.2707207" lon="151.2905618">
  <ele>372.71</ele>
  <time>2026-09-01T19:57:46Z</time>
  <course>357.57</course>
  <speed>25.899312732194268</speed>
  <fix>3d</fix>
</trkpt>
<trkpt lat="-27.2707422" lon="151.290563">
  <ele>372.83</ele>
  <time>2026-09-01T19:57:46Z</time>
  <course>357.82</course>
  <speed>25.88</speed>
  <fix>3d</fix>
</trkpt>
<trkpt lat="-27.2706975" lon="151.2905608">
  <ele>372.73</ele>
  <time>2026-09-01T19:57:46Z</time>
  <course>357.53</course>
  <speed>25.8893201919247</speed>
  <fix>3d</fix>
</trkpt>
<trkpt lat="-27.2707422" lon="151.290563">
  <ele>372.83</ele>
  <time>2026-09-01T19:57:46Z</time>
  <course>357.82</course>
  <speed>25.88</speed>
  <fix>3d</fix>
</trkpt>
<trkpt lat="-27.2706742" lon="151.2905598">
  <ele>372.75</ele>
  <time>2026-09-01T19:57:46Z</time>
  <course>357.54</course>
  <speed>25.869335128680827</speed>
  <fix>3d</fix>
</trkpt>
<trkpt lat="-27.2706958" lon="151.290561">
  <ele>372.87</ele>
  <time>2026-09-01T19:57:46Z</time>
  <course>357.82</course>
  <speed>25.85</speed>
  <fix>3d</fix>
</trkpt>
<trkpt lat="-27.270651" lon="151.2905589">
  <ele>372.77</ele>
  <time>2026-09-01T19:57:46Z</time>
  <course>357.57</course>
  <speed>25.859731243769726</speed>
  <fix>3d</fix>
</trkpt>
<trkpt lat="-27.2706958" lon="151.290561">
  <ele>372.87</ele>
  <time>2026-09-01T19:57:46Z</time>
  <course>357.82</course>
  <speed>25.85</speed>
  <fix>3d</fix>
</trkpt>
<trkpt lat="-27.2706276" lon="151.2905579">
  <ele>372.79</ele>
  <time>2026-09-01T19:57:46Z</time>
  <course>357.59</course>
  <speed>25.84973887682427</speed>
  <fix>3d</fix>
</trkpt>
<trkpt lat="-27.2706494" lon="151.290559">
  <ele>372.91</ele>
  <time>2026-09-01T19:57:46Z</time>
  <course>357.81</course>
  <speed>25.82</speed>
  <fix>3d</fix>
</trkpt>
<trkpt lat="-27.2706043" lon="151.2905569">
  <ele>372.81</ele>
  <time>2026-09-01T19:57:46Z</time>
  <course>357.6</course>
  <speed>25.839746515784555</speed>
  <fix>3d</fix>
</trkpt>
<trkpt lat="-27.2706494" lon="151.290559">
  <ele>372.91</ele>
  <time>2026-09-01T19:57:46Z</time>
  <course>357.81</course>
  <speed>25.82</speed>
  <fix>3d</fix>
</trkpt>
<trkpt lat="-27.2705811" lon="151.2905559">
  <ele>372.83</ele>
  <time>2026-09-01T19:57:46Z</time>
  <course>357.63</course>
  <speed>25.82936507156148</speed>
  <fix>3d</fix>
</trkpt>
<trkpt lat="-27.2706031" lon="151.2905571">
  <ele>372.96</ele>
  <time>2026-09-01T19:57:46Z</time>
  <course>357.81</course>
  <speed>25.79</speed>
  <fix>3d</fix>
</trkpt>
<trkpt lat="-27.270558" lon="151.2905549">
  <ele>372.85</ele>
  <time>2026-09-01T19:57:46Z</time>
  <course>357.62</course>
  <speed>25.819372571772536</speed>
  <fix>3d</fix>
</trkpt>
<trkpt lat="-27.2706031" lon="151.2905571">
  <ele>372.96</ele>
  <time>2026-09-01T19:57:46Z</time>
  <course>357.81</course>
  <speed>25.79</speed>
  <fix>3d</fix>
</trkpt>
<trkpt lat="-27.2705349" lon="151.2905539">
  <ele>372.87</ele>
  <time>2026-09-01T19:57:46Z</time>
  <course>357.55</course>
  <speed>25.799001918678947</speed>
  <fix>3d</fix>
</trkpt>
<trkpt lat="-27.2705568" lon="151.2905551">
  <ele>372.99</ele>
  <time>2026-09-01T19:57:46Z</time>
  <course>357.81</course>
  <speed>25.77</speed>
  <fix>3d</fix>
</trkpt>
<trkpt lat="-27.2705119" lon="151.2905529">
  <ele>372.88</ele>
  <time>2026-09-01T19:57:46Z</time>
  <course>357.52</course>
  <speed>25.789009286903596</speed>
  <fix>3d</fix>
</trkpt>
<trkpt lat="-27.2705568" lon="151.2905551">
  <ele>372.99</ele>
  <time>2026-09-01T19:57:46Z</time>
  <course>357.81</course>
  <speed>25.77</speed>
  <fix>3d</fix>
</trkpt>
<trkpt lat="-27.2704889" lon="151.290552">
  <ele>372.9</ele>
  <time>2026-09-01T19:57:46Z</time>
  <course>357.51</course>
  <speed>25.779016660842593</speed>
  <fix>3d</fix>
</trkpt>
<trkpt lat="-27.2705106" lon="151.290553">
  <ele>373.03</ele>
  <time>2026-09-01T19:57:46Z</time>
  <course>357.82</course>
  <speed>25.74</speed>
  <fix>3d</fix>
</trkpt>
<trkpt lat="-27.2704659" lon="151.290551">
  <ele>372.92</ele>
  <time>2026-09-01T19:57:46Z</time>
  <course>357.45</course>
  <speed>25.75903142589022</speed>
  <fix>3d</fix>
</trkpt>
<trkpt lat="-27.2705106" lon="151.290553">
  <ele>373.03</ele>
  <time>2026-09-01T19:57:46Z</time>
  <course>357.82</course>
  <speed>25.74</speed>
  <fix>3d</fix>
</trkpt>
<trkpt lat="-27.2704429" lon="151.29055">
  <ele>372.93</ele>
  <time>2026-09-01T19:57:46Z</time>
  <course>357.45</course>
  <speed>25.749425236303818</speed>
  <fix>3d</fix>
</trkpt>
<trkpt lat="-27.2704643" lon="151.290551">
  <ele>373.06</ele>
  <time>2026-09-01T19:57:46Z</time>
  <course>357.81</course>
  <speed>25.72</speed>
  <fix>3d</fix>
</trkpt>
<trkpt lat="-27.2704199" lon="151.290549">
  <ele>372.94</ele>
  <time>2026-09-01T19:57:46Z</time>
  <course>357.48</course>
  <speed>25.739432783183084</speed>
  <fix>3d</fix>
</trkpt>
<trkpt lat="-27.2704643" lon="151.290551">
  <ele>373.06</ele>
  <time>2026-09-01T19:57:46Z</time>
  <course>357.81</course>
  <speed>25.72</speed>
  <fix>3d</fix>
</trkpt>
<trkpt lat="-27.2703969" lon="151.290548">
  <ele>372.96</ele>
  <time>2026-09-01T19:57:46Z</time>
  <course>357.5</course>
  <speed>25.719447894540817</speed>
  <fix>3d</fix>
</trkpt>
<trkpt lat="-27.2704181" lon="151.2905491">
  <ele>373.08</ele>
  <time>2026-09-01T19:57:46Z</time>
  <course>357.79</course>
  <speed>25.7</speed>
  <fix>3d</fix>
</trkpt>
<trkpt lat="-27.270374" lon="151.290547">
  <ele>372.97</ele>
  <time>2026-09-01T19:57:46Z</time>
  <course>357.48</course>
  <speed>25.709455459032966</speed>
  <fix>3d</fix>
</trkpt>
<trkpt lat="-27.2704181" lon="151.2905491">
  <ele>373.08</ele>
  <time>2026-09-01T19:57:46Z</time>
  <course>357.79</course>
  <speed>25.7</speed>
  <fix>3d</fix>
</trkpt>
<trkpt lat="-27.270351" lon="151.290546">
  <ele>372.97</ele>
  <time>2026-09-01T19:57:46Z</time>
  <course>357.41</course>
  <speed>25.699463029409777</speed>
  <fix>3d</fix>
</trkpt>
<trkpt lat="-27.2703719" lon="151.2905471">
  <ele>373.11</ele>
  <time>2026-09-01T19:57:46Z</time>
  <course>357.79</course>
  <speed>25.69</speed>
  <fix>3d</fix>
</trkpt>
<trkpt lat="-27.2703279" lon="151.2905451">
  <ele>372.98</ele>
  <time>2026-09-01T19:57:46Z</time>
  <course>357.36</course>
  <speed>25.689470605678117</speed>
  <fix>3d</fix>
</trkpt>
<trkpt lat="-27.2703719" lon="151.2905471">
  <ele>373.11</ele>
  <time>2026-09-01T19:57:46Z</time>
  <course>357.79</course>
  <speed>25.69</speed>
  <fix>3d</fix>
</trkpt>
<trkpt lat="-27.2703048" lon="151.2905441">
  <ele>372.99</ele>
  <time>2026-09-01T19:57:46Z</time>
  <course>357.39</course>
  <speed>25.689470605678117</speed>
  <fix>3d</fix>
</trkpt>
<trkpt lat="-27.2703258" lon="151.2905451">
  <ele>373.12</ele>
  <time>2026-09-01T19:57:46Z</time>
  <course>357.78</course>
  <speed>25.67</speed>
  <fix>3d</fix>
</trkpt>
<trkpt lat="-27.2702816" lon="151.2905431">
  <ele>372.99</ele>
  <time>2026-09-01T19:57:46Z</time>
  <course>357.41</course>
  <speed>25.68986181356373</speed>
  <fix>3d</fix>
</trkpt>
<trkpt lat="-27.2703258" lon="151.2905451">
  <ele>373.12</ele>
  <time>2026-09-01T19:57:46Z</time>
  <course>357.78</course>
  <speed>25.67</speed>
  <fix>3d</fix>
</trkpt>
<trkpt lat="-27.2702585" lon="151.290542">
  <ele>373.0</ele>
  <time>2026-09-01T19:57:46Z</time>
  <course>357.46</course>
  <speed>25.67947818784486</speed>
  <fix>3d</fix>
</trkpt>
<trkpt lat="-27.2702798" lon="151.290543">
  <ele>373.13</ele>
  <time>2026-09-01T19:57:46Z</time>
  <course>357.77</course>
  <speed>25.65</speed>
  <fix>3d</fix>
</trkpt>
<trkpt lat="-27.2702353" lon="151.290541">
  <ele>373.0</ele>
  <time>2026-09-01T19:57:46Z</time>
  <course>357.5</course>
  <speed>25.689470605678117</speed>
  <fix>3d</fix>
</trkpt>
<trkpt lat="-27.2702798" lon="151.290543">
  <ele>373.13</ele>
  <time>2026-09-01T19:57:46Z</time>
  <course>357.77</course>
  <speed>25.65</speed>
  <fix>3d</fix>
</trkpt>
<trkpt lat="-27.2702122" lon="151.29054">
  <ele>373.01</ele>
  <time>2026-09-01T19:57:46Z</time>
  <course>357.47</course>
  <speed>25.689470605678117</speed>
  <fix>3d</fix>
</trkpt>
<trkpt lat="-27.2702338" lon="151.290541">
  <ele>373.14</ele>
  <time>2026-09-01T19:57:46Z</time>
  <course>357.77</course>
  <speed>25.64</speed>
  <fix>3d</fix>
</trkpt>
<trkpt lat="-27.270189" lon="151.290539">
  <ele>373.01</ele>
  <time>2026-09-01T19:57:46Z</time>
  <course>357.44</course>
  <speed>25.689470605678117</speed>
  <fix>3d</fix>
</trkpt>
<trkpt lat="-27.2702338" lon="151.290541">
  <ele>373.14</ele>
  <time>2026-09-01T19:57:46Z</time>
  <course>357.77</course>
  <speed>25.64</speed>
  <fix>3d</fix>
</trkpt>
<trkpt lat="-27.2701659" lon="151.290538">
  <ele>373.02</ele>
  <time>2026-09-01T19:57:46Z</time>
  <course>357.45</course>
  <speed>25.689470605678117</speed>
  <fix>3d</fix>
</trkpt>
<trkpt lat="-27.2701878" lon="151.2905391">
  <ele>373.15</ele>
  <time>2026-09-01T19:57:46Z</time>
  <course>357.77</course>
  <speed>25.63</speed>
  <fix>3d</fix>
</trkpt>
<trkpt lat="-27.2701429" lon="151.290537">
  <ele>373.02</ele>
  <time>2026-09-01T19:57:46Z</time>
  <course>357.45</course>
  <speed>25.67947818784486</speed>
  <fix>3d</fix>
</trkpt>
<trkpt lat="-27.2701878" lon="151.2905391">
  <ele>373.15</ele>
  <time>2026-09-01T19:57:46Z</time>
  <course>357.77</course>
  <speed>25.63</speed>
  <fix>3d</fix>
</trkpt>
<trkpt lat="-27.2701198" lon="151.290536">
  <ele>373.03</ele>
  <time>2026-09-01T19:57:46Z</time>
  <course>357.44</course>
  <speed>25.67947818784486</speed>
  <fix>3d</fix>
</trkpt>
<trkpt lat="-27.2701418" lon="151.2905371">
  <ele>373.16</ele>
  <time>2026-09-01T19:57:46Z</time>
  <course>357.77</course>
  <speed>25.62</speed>
  <fix>3d</fix>
</trkpt>
<trkpt lat="-27.2700969" lon="151.290535">
  <ele>373.05</ele>
  <time>2026-09-01T19:57:46Z</time>
  <course>357.46</course>
  <speed>25.669098153226965</speed>
  <fix>3d</fix>
</trkpt>
<trkpt lat="-27.2701418" lon="151.2905371">
  <ele>373.16</ele>
  <time>2026-09-01T19:57:46Z</time>
  <course>357.77</course>
  <speed>25.62</speed>
  <fix>3d</fix>
</trkpt>
<trkpt lat="-27.2700735" lon="151.290534">
  <ele>373.06</ele>
  <time>2026-09-01T19:57:46Z</time>
  <course>357.43</course>
  <speed>25.659105596259586</speed>
  <fix>3d</fix>
</trkpt>
<trkpt lat="-27.2700958" lon="151.2905351">
  <ele>373.18</ele>
  <time>2026-09-01T19:57:46Z</time>
  <course>357.79</course>
  <speed>25.6</speed>
  <fix>3d</fix>
</trkpt>
<trkpt lat="-27.2700506" lon="151.290533">
  <ele>373.06</ele>
  <time>2026-09-01T19:57:46Z</time>
  <course>357.45</course>
  <speed>25.64911304509378</speed>
  <fix>3d</fix>
</trkpt>
<trkpt lat="-27.2700958" lon="151.2905351">
  <ele>373.18</ele>
  <time>2026-09-01T19:57:46Z</time>
  <course>357.79</course>
  <speed>25.6</speed>
  <fix>3d</fix>
</trkpt>
<trkpt lat="-27.2700277" lon="151.290532">
  <ele>373.07</ele>
  <time>2026-09-01T19:57:46Z</time>
  <course>357.43</course>
  <speed>25.639120499736336</speed>
  <fix>3d</fix>
</trkpt>
<trkpt lat="-27.2700498" lon="151.2905331">
  <ele>373.2</ele>
  <time>2026-09-01T19:57:46Z</time>
  <course>357.8</course>
  <speed>25.59</speed>
  <fix>3d</fix>
</trkpt>
<trkpt lat="-27.2700047" lon="151.2905311">
  <ele>373.07</ele>
  <time>2026-09-01T19:57:46Z</time>
  <course>357.38</course>
  <speed>25.639120499736336</speed>
  <fix>3d</fix>
</trkpt>
<trkpt lat="-27.2700498" lon="151.2905331">
  <ele>373.2</ele>
  <time>2026-09-01T19:57:46Z</time>
  <course>357.8</course>
  <speed>25.59</speed>
  <fix>3d</fix>
</trkpt>
<trkpt lat="-27.2699817" lon="151.2905301">
  <ele>373.08</ele>
  <time>2026-09-01T19:57:46Z</time>
  <course>357.39</course>
  <speed>25.62912796019404</speed>
  <fix>3d</fix>
</trkpt>
<trkpt lat="-27.2700038" lon="151.2905311">
  <ele>373.21</ele>
  <time>2026-09-01T19:57:46Z</time>
  <course>357.8</course>
  <speed>25.58</speed>
  <fix>3d</fix>
</trkpt>
<trkpt lat="-27.2699587" lon="151.2905291">
  <ele>373.08</ele>
  <time>2026-09-01T19:57:46Z</time>
  <course>357.37</course>
  <speed>25.62912796019404</speed>
  <fix>3d</fix>
</trkpt>
<trkpt lat="-27.2700038" lon="151.2905311">
  <ele>373.21</ele>
  <time>2026-09-01T19:57:46Z</time>
  <course>357.8</course>
  <speed>25.58</speed>
  <fix>3d</fix>
</trkpt>
<trkpt lat="-27.2699356" lon="151.2905281">
  <ele>373.09</ele>
  <time>2026-09-01T19:57:46Z</time>
  <course>357.36</course>
  <speed>25.62912796019404</speed>
  <fix>3d</fix>
</trkpt>
<trkpt lat="-27.2699578" lon="151.290529">
  <ele>373.22</ele>
  <time>2026-09-01T19:57:46Z</time>
  <course>357.79</course>
  <speed>25.57</speed>
  <fix>3d</fix>
</trkpt>
<trkpt lat="-27.2699126" lon="151.2905271">
  <ele>373.09</ele>
  <time>2026-09-01T19:57:46Z</time>
  <course>357.34</course>
  <speed>25.629516187396124</speed>
  <fix>3d</fix>
</trkpt>
<trkpt lat="-27.2699578" lon="151.290529">
  <ele>373.22</ele>
  <time>2026-09-01T19:57:46Z</time>
  <course>357.79</course>
  <speed>25.57</speed>
  <fix>3d</fix>
</trkpt>
<trkpt lat="-27.2698896" lon="151.2905261">
  <ele>373.1</ele>
  <time>2026-09-01T19:57:46Z</time>
  <course>357.34</course>
  <speed>25.61952380509833</speed>
  <fix>3d</fix>
</trkpt>
<trkpt lat="-27.2699119" lon="151.2905271">
  <ele>373.23</ele>
  <time>2026-09-01T19:57:46Z</time>
  <course>357.77</course>
  <speed>25.56</speed>
  <fix>3d</fix>
</trkpt>
<trkpt lat="-27.2698667" lon="151.2905251">
  <ele>373.1</ele>
  <time>2026-09-01T19:57:46Z</time>
  <course>357.35</course>
  <speed>25.60992385775483</speed>
  <fix>3d</fix>
</trkpt>
<trkpt lat="-27.2699119" lon="151.2905271">
  <ele>373.23</ele>
  <time>2026-09-01T19:57:46Z</time>
  <course>357.77</course>
  <speed>25.56</speed>
  <fix>3d</fix>
</trkpt>
<trkpt lat="-27.2698438" lon="151.290524">
  <ele>373.1</ele>
  <time>2026-09-01T19:57:46Z</time>
  <course>357.34</course>
  <speed>25.61032018542525</speed>
  <fix>3d</fix>
</trkpt>
<trkpt lat="-27.2698661" lon="151.2905251">
  <ele>373.24</ele>
  <time>2026-09-01T19:57:46Z</time>
  <course>357.75</course>
  <speed>25.55</speed>
  <fix>3d</fix>
</trkpt>
<trkpt lat="-27.2698209" lon="151.290523">
  <ele>373.11</ele>
  <time>2026-09-01T19:57:46Z</time>
  <course>357.26</course>
  <speed>25.600328122897178</speed>
  <fix>3d</fix>
</trkpt>
<trkpt lat="-27.2698661" lon="151.2905251">
  <ele>373.24</ele>
  <time>2026-09-01T19:57:46Z</time>
  <course>357.75</course>
  <speed>25.55</speed>
  <fix>3d</fix>
</trkpt>
<trkpt lat="-27.269798" lon="151.290522">
  <ele>373.11</ele>
  <time>2026-09-01T19:57:46Z</time>
  <course>357.2</course>
  <speed>25.590736605264023</speed>
  <fix>3d</fix>
</trkpt>
<trkpt lat="-27.2698202" lon="151.2905231">
  <ele>373.25</ele>
  <time>2026-09-01T19:57:46Z</time>
  <course>357.72</course>
  <speed>25.54</speed>
  <fix>3d</fix>
</trkpt>
<trkpt lat="-27.2697751" lon="151.290521">
  <ele>373.12</ele>
  <time>2026-09-01T19:57:46Z</time>
  <course>357.18</course>
  <speed>25.580744711598996</speed>
  <fix>3d</fix>
</trkpt>
<trkpt lat="-27.2698202" lon="151.2905231">
  <ele>373.25</ele>
  <time>2026-09-01T19:57:46Z</time>
  <course>357.72</course>
  <speed>25.54</speed>
  <fix>3d</fix>
</trkpt>
<trkpt lat="-27.2697522" lon="151.2905199">
  <ele>373.12</ele>
  <time>2026-09-01T19:57:46Z</time>
  <course>357.16</course>
  <speed>25.58114930959905</speed>
  <fix>3d</fix>
</trkpt>
<trkpt lat="-27.2697744" lon="151.290521">
  <ele>373.25</ele>
  <time>2026-09-01T19:57:46Z</time>
  <course>357.69</course>
  <speed>25.53</speed>
  <fix>3d</fix>
</trkpt>
<trkpt lat="-27.2697293" lon="151.2905189">
  <ele>373.12</ele>
  <time>2026-09-01T19:57:46Z</time>
  <course>357.17</course>
  <speed>25.571157580367768</speed>
  <fix>3d</fix>
</trkpt>
<trkpt lat="-27.2697744" lon="151.290521">
  <ele>373.25</ele>
  <time>2026-09-01T19:57:46Z</time>
  <course>357.69</course>
  <speed>25.53</speed>
  <fix>3d</fix>
</trkpt>
<trkpt lat="-27.2697064" lon="151.2905179">
  <ele>373.13</ele>
  <time>2026-09-01T19:57:46Z</time>
  <course>357.19</course>
  <speed>25.56157467762892</speed>
  <fix>3d</fix>
</trkpt>
<trkpt lat="-27.2697286" lon="151.2905189">
  <ele>373.26</ele>
  <time>2026-09-01T19:57:46Z</time>
  <course>357.67</course>
  <speed>25.52</speed>
  <fix>3d</fix>
</trkpt>
<trkpt lat="-27.2696836" lon="151.2905168">
  <ele>373.13</ele>
  <time>2026-09-01T19:57:46Z</time>
  <course>357.18</course>
  <speed>25.55158312120797</speed>
  <fix>3d</fix>
</trkpt>
<trkpt lat="-27.2697286" lon="151.2905189">
  <ele>373.26</ele>
  <time>2026-09-01T19:57:46Z</time>
  <course>357.67</course>
  <speed>25.52</speed>
  <fix>3d</fix>
</trkpt>
<trkpt lat="-27.2696609" lon="151.2905158">
  <ele>373.14</ele>
  <time>2026-09-01T19:57:46Z</time>
  <course>357.17</course>
  <speed>25.55158312120797</speed>
  <fix>3d</fix>
</trkpt>
<trkpt lat="-27.2696828" lon="151.2905168">
  <ele>373.27</ele>
  <time>2026-09-01T19:57:46Z</time>
  <course>357.65</course>
  <speed>25.51</speed>
  <fix>3d</fix>
</trkpt>
<trkpt lat="-27.2696381" lon="151.2905147">
  <ele>373.14</ele>
  <time>2026-09-01T19:57:46Z</time>
  <course>357.16</course>
  <speed>25.54200461984141</speed>
  <fix>3d</fix>
</trkpt>
<trkpt lat="-27.2696828" lon="151.2905168">
  <ele>373.27</ele>
  <time>2026-09-01T19:57:46Z</time>
  <course>357.65</course>
  <speed>25.51</speed>
  <fix>3d</fix>
</trkpt>
<trkpt lat="-27.2696152" lon="151.2905136">
  <ele>373.14</ele>
  <time>2026-09-01T19:57:46Z</time>
  <course>357.09</course>
  <speed>25.54200461984141</speed>
  <fix>3d</fix>
</trkpt>
<trkpt lat="-27.2696369" lon="151.2905147">
  <ele>373.28</ele>
  <time>2026-09-01T19:57:46Z</time>
  <course>357.64</course>
  <speed>25.51</speed>
  <fix>3d</fix>
</trkpt>
<trkpt lat="-27.2695924" lon="151.2905126">
  <ele>373.15</ele>
  <time>2026-09-01T19:57:46Z</time>
  <course>357.05</course>
  <speed>25.532430358271814</speed>
  <fix>3d</fix>
</trkpt>
<trkpt lat="-27.2696369" lon="151.2905147">
  <ele>373.28</ele>
  <time>2026-09-01T19:57:46Z</time>
  <course>357.64</course>
  <speed>25.51</speed>
  <fix>3d</fix>
</trkpt>
<trkpt lat="-27.2695693" lon="151.2905115">
  <ele>373.15</ele>
  <time>2026-09-01T19:57:46Z</time>
  <course>357.06</course>
  <speed>25.532851387966833</speed>
  <fix>3d</fix>
</trkpt>
<trkpt lat="-27.2695912" lon="151.2905126">
  <ele>373.29</ele>
  <time>2026-09-01T19:57:46Z</time>
  <course>357.61</course>
  <speed>25.5</speed>
  <fix>3d</fix>
</trkpt>
<trkpt lat="-27.2695465" lon="151.2905104">
  <ele>373.15</ele>
  <time>2026-09-01T19:57:46Z</time>
  <course>357.08</course>
  <speed>25.532851387966833</speed>
  <fix>3d</fix>
</trkpt>
<trkpt lat="-27.2695912" lon="151.2905126">
  <ele>373.29</ele>
  <time>2026-09-01T19:57:46Z</time>
  <course>357.61</course>
  <speed>25.5</speed>
  <fix>3d</fix>
</trkpt>
<trkpt lat="-27.2695236" lon="151.2905093">
  <ele>373.15</ele>
  <time>2026-09-01T19:57:46Z</time>
  <course>357.03</course>
  <speed>25.532851387966833</speed>
  <fix>3d</fix>
</trkpt>
<trkpt lat="-27.2695455" lon="151.2905104">
  <ele>373.3</ele>
  <time>2026-09-01T19:57:46Z</time>
  <course>357.58</course>
  <speed>25.5</speed>
  <fix>3d</fix>
</trkpt>
<trkpt lat="-27.2695" lon="151.2905082">
  <ele>373.16</ele>
  <time>2026-09-01T19:57:46Z</time>
  <course>357.02</course>
  <speed>25.523285446822868</speed>
  <fix>3d</fix>
</trkpt>
<trkpt lat="-27.2695455" lon="151.2905104">
  <ele>373.3</ele>
  <time>2026-09-01T19:57:46Z</time>
  <course>357.58</course>
  <speed>25.5</speed>
  <fix>3d</fix>
</trkpt>
<trkpt lat="-27.2694773" lon="151.2905071">
  <ele>373.16</ele>
  <time>2026-09-01T19:57:46Z</time>
  <course>357.06</course>
  <speed>25.52286034127053</speed>
  <fix>3d</fix>
</trkpt>
<trkpt lat="-27.2694996" lon="151.2905083">
  <ele>373.3</ele>
  <time>2026-09-01T19:57:46Z</time>
  <course>357.58</course>
  <speed>25.49</speed>
  <fix>3d</fix>
</trkpt>
<trkpt lat="-27.2694545" lon="151.290506">
  <ele>373.16</ele>
  <time>2026-09-01T19:57:46Z</time>
  <course>357.12</course>
  <speed>25.52243914675868</speed>
  <fix>3d</fix>
</trkpt>
<trkpt lat="-27.2694996" lon="151.2905083">
  <ele>373.3</ele>
  <time>2026-09-01T19:57:46Z</time>
  <course>357.58</course>
  <speed>25.49</speed>
  <fix>3d</fix>
</trkpt>
<trkpt lat="-27.269432" lon="151.290505">
  <ele>373.16</ele>
  <time>2026-09-01T19:57:46Z</time>
  <course>357.07</course>
  <speed>25.512447942132095</speed>
  <fix>3d</fix>
</trkpt>
<trkpt lat="-27.2694538" lon="151.290506">
  <ele>373.31</ele>
  <time>2026-09-01T19:57:46Z</time>
  <course>357.61</course>
  <speed>25.49</speed>
  <fix>3d</fix>
</trkpt>
<trkpt lat="-27.2694091" lon="151.2905039">
  <ele>373.16</ele>
  <time>2026-09-01T19:57:46Z</time>
  <course>357.1</course>
  <speed>25.512447942132095</speed>
  <fix>3d</fix>
</trkpt>
<trkpt lat="-27.2694538" lon="151.290506">
  <ele>373.31</ele>
  <time>2026-09-01T19:57:46Z</time>
  <course>357.61</course>
  <speed>25.49</speed>
  <fix>3d</fix>
</trkpt>
<trkpt lat="-27.2693863" lon="151.2905029">
  <ele>373.16</ele>
  <time>2026-09-01T19:57:46Z</time>
  <course>357.12</course>
  <speed>25.512030495434892</speed>
  <fix>3d</fix>
</trkpt>
<trkpt lat="-27.269408" lon="151.2905039">
  <ele>373.31</ele>
  <time>2026-09-01T19:57:46Z</time>
  <course>357.63</course>
  <speed>25.49</speed>
  <fix>3d</fix>
</trkpt>
<trkpt lat="-27.2693634" lon="151.2905018">
  <ele>373.16</ele>
  <time>2026-09-01T19:57:46Z</time>
  <course>357.11</course>
  <speed>25.511616961690216</speed>
  <fix>3d</fix>
</trkpt>
<trkpt lat="-27.269408" lon="151.2905039">
  <ele>373.31</ele>
  <time>2026-09-01T19:57:46Z</time>
  <course>357.63</course>
  <speed>25.49</speed>
  <fix>3d</fix>
</trkpt>
<trkpt lat="-27.2693406" lon="151.2905008">
  <ele>373.16</ele>
  <time>2026-09-01T19:57:46Z</time>
  <course>357.11</course>
  <speed>25.511616961690216</speed>
  <fix>3d</fix>
</trkpt>
<trkpt lat="-27.2693623" lon="151.2905018">
  <ele>373.31</ele>
  <time>2026-09-01T19:57:46Z</time>
  <course>357.65</course>
  <speed>25.49</speed>
  <fix>3d</fix>
</trkpt>
<trkpt lat="-27.2693177" lon="151.2904997">
  <ele>373.16</ele>
  <time>2026-09-01T19:57:46Z</time>
  <course>357.09</course>
  <speed>25.511207341088348</speed>
  <fix>3d</fix>
</trkpt>
<trkpt lat="-27.2693623" lon="151.2905018">
  <ele>373.31</ele>
  <time>2026-09-01T19:57:46Z</time>
  <course>357.65</course>
  <speed>25.49</speed>
  <fix>3d</fix>
</trkpt>
<trkpt lat="-27.2692949" lon="151.2904987">
  <ele>373.16</ele>
  <time>2026-09-01T19:57:46Z</time>
  <course>357.08</course>
  <speed>25.511207341088348</speed>
  <fix>3d</fix>
</trkpt>
<trkpt lat="-27.2693165" lon="151.2904997">
  <ele>373.31</ele>
  <time>2026-09-01T19:57:46Z</time>
  <course>357.67</course>
  <speed>25.49</speed>
  <fix>3d</fix>
</trkpt>
<trkpt lat="-27.269272" lon="151.2904976">
  <ele>373.17</ele>
  <time>2026-09-01T19:57:46Z</time>
  <course>357.05</course>
  <speed>25.501215657297593</speed>
  <fix>3d</fix>
</trkpt>
<trkpt lat="-27.2693165" lon="151.2904997">
  <ele>373.31</ele>
  <time>2026-09-01T19:57:46Z</time>
  <course>357.67</course>
  <speed>25.49</speed>
  <fix>3d</fix>
</trkpt>
<trkpt lat="-27.2692491" lon="151.2904966">
  <ele>373.17</ele>
  <time>2026-09-01T19:57:46Z</time>
  <course>357.05</course>
  <speed>25.501215657297593</speed>
  <fix>3d</fix>
</trkpt>
<trkpt lat="-27.2692708" lon="151.2904976">
  <ele>373.31</ele>
  <time>2026-09-01T19:57:46Z</time>
  <course>357.68</course>
  <speed>25.48</speed>
  <fix>3d</fix>
</trkpt>
<trkpt lat="-27.2692263" lon="151.2904955">
  <ele>373.17</ele>
  <time>2026-09-01T19:57:46Z</time>
  <course>357.08</course>
  <speed>25.501215657297593</speed>
  <fix>3d</fix>
</trkpt>
<trkpt lat="-27.2692708" lon="151.2904976">
  <ele>373.31</ele>
  <time>2026-09-01T19:57:46Z</time>
  <course>357.68</course>
  <speed>25.48</speed>
  <fix>3d</fix>
</trkpt>
<trkpt lat="-27.2692034" lon="151.2904945">
  <ele>373.17</ele>
  <time>2026-09-01T19:57:46Z</time>
  <course>357.12</course>
  <speed>25.5008097910635</speed>
  <fix>3d</fix>
</trkpt>
<trkpt lat="-27.2692251" lon="151.2904955">
  <ele>373.31</ele>
  <time>2026-09-01T19:57:46Z</time>
  <course>357.69</course>
  <speed>25.48</speed>
  <fix>3d</fix>
</trkpt>
<trkpt lat="-27.2691808" lon="151.2904935">
  <ele>373.17</ele>
  <time>2026-09-01T19:57:46Z</time>
  <course>357.12</course>
  <speed>25.5008097910635</speed>
  <fix>3d</fix>
</trkpt>
<trkpt lat="-27.2692251" lon="151.2904955">
  <ele>373.31</ele>
  <time>2026-09-01T19:57:46Z</time>
  <course>357.69</course>
  <speed>25.48</speed>
  <fix>3d</fix>
</trkpt>
<trkpt lat="-27.2691579" lon="151.2904924">
  <ele>373.17</ele>
  <time>2026-09-01T19:57:46Z</time>
  <course>357.12</course>
  <speed>25.5008097910635</speed>
  <fix>3d</fix>
</trkpt>
<trkpt lat="-27.2691793" lon="151.2904935">
  <ele>373.31</ele>
  <time>2026-09-01T19:57:46Z</time>
  <course>357.7</course>
  <speed>25.48</speed>
  <fix>3d</fix>
</trkpt>
<trkpt lat="-27.2691351" lon="151.2904914">
  <ele>373.18</ele>
  <time>2026-09-01T19:57:46Z</time>
  <course>357.08</course>
  <speed>25.49081795470675</speed>
  <fix>3d</fix>
</trkpt>
<trkpt lat="-27.2691793" lon="151.2904935">
  <ele>373.31</ele>
  <time>2026-09-01T19:57:46Z</time>
  <course>357.7</course>
  <speed>25.48</speed>
  <fix>3d</fix>
</trkpt>
<trkpt lat="-27.2691122" lon="151.2904904">
  <ele>373.18</ele>
  <time>2026-09-01T19:57:46Z</time>
  <course>357.08</course>
  <speed>25.49081795470675</speed>
  <fix>3d</fix>
</trkpt>
<trkpt lat="-27.2691336" lon="151.2904914">
  <ele>373.31</ele>
  <time>2026-09-01T19:57:46Z</time>
  <course>357.71</course>
  <speed>25.48</speed>
  <fix>3d</fix>
</trkpt>
<trkpt lat="-27.2690892" lon="151.2904894">
  <ele>373.18</ele>
  <time>2026-09-01T19:57:46Z</time>
  <course>357.12</course>
  <speed>25.490415845960616</speed>
  <fix>3d</fix>
</trkpt>
<trkpt lat="-27.2691336" lon="151.2904914">
  <ele>373.31</ele>
  <time>2026-09-01T19:57:46Z</time>
  <course>357.71</course>
  <speed>25.48</speed>
  <fix>3d</fix>
</trkpt>
<trkpt lat="-27.2690663" lon="151.2904883">
  <ele>373.18</ele>
  <time>2026-09-01T19:57:46Z</time>
  <course>357.13</course>
  <speed>25.490415845960616</speed>
  <fix>3d</fix>
</trkpt>
<trkpt lat="-27.2690879" lon="151.2904893">
  <ele>373.32</ele>
  <time>2026-09-01T19:57:46Z</time>
  <course>357.71</course>
  <speed>25.47</speed>
  <fix>3d</fix>
</trkpt>
<trkpt lat="-27.2690434" lon="151.2904873">
  <ele>373.18</ele>
  <time>2026-09-01T19:57:46Z</time>
  <course>357.1</course>
  <speed>25.490415845960616</speed>
  <fix>3d</fix>
</trkpt>
<trkpt lat="-27.2690879" lon="151.2904893">
  <ele>373.32</ele>
  <time>2026-09-01T19:57:46Z</time>
  <course>357.71</course>
  <speed>25.47</speed>
  <fix>3d</fix>
</trkpt>
<trkpt lat="-27.2690198" lon="151.2904862">
  <ele>373.18</ele>
  <time>2026-09-01T19:57:46Z</time>
  <course>357.13</course>
  <speed>25.480423858327004</speed>
  <fix>3d</fix>
</trkpt>
<trkpt lat="-27.269042" lon="151.2904873">
  <ele>373.32</ele>
  <time>2026-09-01T19:57:46Z</time>
  <course>357.72</course>
  <speed>25.47</speed>
  <fix>3d</fix>
</trkpt>
<trkpt lat="-27.2689971" lon="151.2904852">
  <ele>373.18</ele>
  <time>2026-09-01T19:57:46Z</time>
  <course>357.13</course>
  <speed>25.480423858327004</speed>
  <fix>3d</fix>
</trkpt>
<trkpt lat="-27.269042" lon="151.2904873">
  <ele>373.32</ele>
  <time>2026-09-01T19:57:46Z</time>
  <course>357.72</course>
  <speed>25.47</speed>
  <fix>3d</fix>
</trkpt>
<trkpt lat="-27.2689742" lon="151.2904842">
  <ele>373.18</ele>
  <time>2026-09-01T19:57:46Z</time>
  <course>357.06</course>
  <speed>25.480423858327004</speed>
  <fix>3d</fix>
</trkpt>
<trkpt lat="-27.2689962" lon="151.2904853">
  <ele>373.32</ele>
  <time>2026-09-01T19:57:46Z</time>
  <course>357.73</course>
  <speed>25.46</speed>
  <fix>3d</fix>
</trkpt>
<trkpt lat="-27.2689513" lon="151.2904832">
  <ele>373.19</ele>
  <time>2026-09-01T19:57:46Z</time>
  <course>357.04</course>
  <speed>25.480423858327004</speed>
  <fix>3d</fix>
</trkpt>
<trkpt lat="-27.2689962" lon="151.2904853">
  <ele>373.32</ele>
  <time>2026-09-01T19:57:46Z</time>
  <course>357.73</course>
  <speed>25.46</speed>
  <fix>3d</fix>
</trkpt>
<trkpt lat="-27.2689284" lon="151.2904822">
  <ele>373.19</ele>
  <time>2026-09-01T19:57:46Z</time>
  <course>357.12</course>
  <speed>25.480423858327004</speed>
  <fix>3d</fix>
</trkpt>
<trkpt lat="-27.2689505" lon="151.2904833">
  <ele>373.32</ele>
  <time>2026-09-01T19:57:46Z</time>
  <course>357.73</course>
  <speed>25.46</speed>
  <fix>3d</fix>
</trkpt>
<trkpt lat="-27.2689053" lon="151.2904812">
  <ele>373.19</ele>
  <time>2026-09-01T19:57:46Z</time>
  <course>357.17</course>
  <speed>25.48002551019131</speed>
  <fix>3d</fix>
</trkpt>
<trkpt lat="-27.2689505" lon="151.2904833">
  <ele>373.32</ele>
  <time>2026-09-01T19:57:46Z</time>
  <course>357.73</course>
  <speed>25.46</speed>
  <fix>3d</fix>
</trkpt>
<trkpt lat="-27.2688824" lon="151.2904801">
  <ele>373.2</ele>
  <time>2026-09-01T19:57:46Z</time>
  <course>357.1</course>
  <speed>25.48002551019131</speed>
  <fix>3d</fix>
</trkpt>
<trkpt lat="-27.2689049" lon="151.2904812">
  <ele>373.32</ele>
  <time>2026-09-01T19:57:46Z</time>
  <course>357.74</course>
  <speed>25.46</speed>
  <fix>3d</fix>
</trkpt>
<trkpt lat="-27.2688595" lon="151.2904791">
  <ele>373.2</ele>
  <time>2026-09-01T19:57:46Z</time>
  <course>357.1</course>
  <speed>25.48002551019131</speed>
  <fix>3d</fix>
</trkpt>
<trkpt lat="-27.2689049" lon="151.2904812">
  <ele>373.32</ele>
  <time>2026-09-01T19:57:46Z</time>
  <course>357.74</course>
  <speed>25.46</speed>
  <fix>3d</fix>
</trkpt>
<trkpt lat="-27.2688366" lon="151.2904781">
  <ele>373.2</ele>
  <time>2026-09-01T19:57:46Z</time>
  <course>357.13</course>
  <speed>25.49001765397584</speed>
  <fix>3d</fix>
</trkpt>
<trkpt lat="-27.2688592" lon="151.2904792">
  <ele>373.33</ele>
  <time>2026-09-01T19:57:46Z</time>
  <course>357.75</course>
  <speed>25.46</speed>
  <fix>3d</fix>
</trkpt>
<trkpt lat="-27.2688137" lon="151.2904771">
  <ele>373.2</ele>
  <time>2026-09-01T19:57:46Z</time>
  <course>357.16</course>
  <speed>25.489623378935985</speed>
  <fix>3d</fix>
</trkpt>
<trkpt lat="-27.2688592" lon="151.2904792">
  <ele>373.33</ele>
  <time>2026-09-01T19:57:46Z</time>
  <course>357.75</course>
  <speed>25.46</speed>
  <fix>3d</fix>
</trkpt>
<trkpt lat="-27.2687914" lon="151.2904761">
  <ele>373.21</ele>
  <time>2026-09-01T19:57:46Z</time>
  <course>357.15</course>
  <speed>25.499615683378448</speed>
  <fix>3d</fix>
</trkpt>
<trkpt lat="-27.2688135" lon="151.2904772">
  <ele>373.33</ele>
  <time>2026-09-01T19:57:46Z</time>
  <course>357.76</course>
  <speed>25.46</speed>
  <fix>3d</fix>
</trkpt>
<trkpt lat="-27.2687685" lon="151.2904751">
  <ele>373.21</ele>
  <time>2026-09-01T19:57:46Z</time>
  <course>357.16</course>
  <speed>25.499615683378448</speed>
  <fix>3d</fix>
</trkpt>
<trkpt lat="-27.2688135" lon="151.2904772">
  <ele>373.33</ele>
  <time>2026-09-01T19:57:46Z</time>
  <course>357.76</course>
  <speed>25.46</speed>
  <fix>3d</fix>
</trkpt>
<trkpt lat="-27.2687456" lon="151.2904741">
  <ele>373.21</ele>
  <time>2026-09-01T19:57:46Z</time>
  <course>357.14</course>
  <speed>25.499615683378448</speed>
  <fix>3d</fix>
</trkpt>
<trkpt lat="-27.2687678" lon="151.2904752">
  <ele>373.34</ele>
  <time>2026-09-01T19:57:46Z</time>
  <course>357.77</course>
  <speed>25.46</speed>
  <fix>3d</fix>
</trkpt>
<trkpt lat="-27.2687227" lon="151.2904731">
  <ele>373.22</ele>
  <time>2026-09-01T19:57:46Z</time>
  <course>357.11</course>
  <speed>25.499615683378448</speed>
  <fix>3d</fix>
</trkpt>
<trkpt lat="-27.2687678" lon="151.2904752">
  <ele>373.34</ele>
  <time>2026-09-01T19:57:46Z</time>
  <course>357.77</course>
  <speed>25.46</speed>
  <fix>3d</fix>
</trkpt>
<trkpt lat="-27.2687" lon="151.2904721">
  <ele>373.22</ele>
  <time>2026-09-01T19:57:46Z</time>
  <course>357.09</course>
  <speed>25.499615683378448</speed>
  <fix>3d</fix>
</trkpt>
<trkpt lat="-27.2687221" lon="151.2904732">
  <ele>373.34</ele>
  <time>2026-09-01T19:57:46Z</time>
  <course>357.76</course>
  <speed>25.46</speed>
  <fix>3d</fix>
</trkpt>
<trkpt lat="-27.2686772" lon="151.2904711">
  <ele>373.21</ele>
  <time>2026-09-01T19:57:46Z</time>
  <course>357.1</course>
  <speed>25.49001765397584</speed>
  <fix>3d</fix>
</trkpt>
<trkpt lat="-27.2687221" lon="151.2904732">
  <ele>373.34</ele>
  <time>2026-09-01T19:57:46Z</time>
  <course>357.76</course>
  <speed>25.46</speed>
  <fix>3d</fix>
</trkpt>
<trkpt lat="-27.2686544" lon="151.2904701">
  <ele>373.21</ele>
  <time>2026-09-01T19:57:46Z</time>
  <course>357.07</course>
  <speed>25.49001765397584</speed>
  <fix>3d</fix>
</trkpt>
<trkpt lat="-27.2686764" lon="151.2904711">
  <ele>373.34</ele>
  <time>2026-09-01T19:57:46Z</time>
  <course>357.74</course>
  <speed>25.45</speed>
  <fix>3d</fix>
</trkpt>
<trkpt lat="-27.2686317" lon="151.2904691">
  <ele>373.21</ele>
  <time>2026-09-01T19:57:46Z</time>
  <course>357.05</course>
  <speed>25.480423858327004</speed>
  <fix>3d</fix>
</trkpt>
<trkpt lat="-27.2686764" lon="151.2904711">
  <ele>373.34</ele>
  <time>2026-09-01T19:57:46Z</time>
  <course>357.74</course>
  <speed>25.45</speed>
  <fix>3d</fix>
</trkpt>
<trkpt lat="-27.2686088" lon="151.2904681">
  <ele>373.21</ele>
  <time>2026-09-01T19:57:46Z</time>
  <course>357.06</course>
  <speed>25.480423858327004</speed>
  <fix>3d</fix>
</trkpt>
<trkpt lat="-27.2686307" lon="151.2904692">
  <ele>373.33</ele>
  <time>2026-09-01T19:57:46Z</time>
  <course>357.72</course>
  <speed>25.45</speed>
  <fix>3d</fix>
</trkpt>
<trkpt lat="-27.2685861" lon="151.2904671">
  <ele>373.21</ele>
  <time>2026-09-01T19:57:46Z</time>
  <course>357.06</course>
  <speed>25.470431876982374</speed>
  <fix>3d</fix>
</trkpt>
<trkpt lat="-27.2686307" lon="151.2904692">
  <ele>373.33</ele>
  <time>2026-09-01T19:57:46Z</time>
  <course>357.72</course>
  <speed>25.45</speed>
  <fix>3d</fix>
</trkpt>
<trkpt lat="-27.2685634" lon="151.2904661">
  <ele>373.2</ele>
  <time>2026-09-01T19:57:46Z</time>
  <course>357.08</course>
  <speed>25.460439901934137</speed>
  <fix>3d</fix>
</trkpt>
<trkpt lat="-27.268585" lon="151.2904671">
  <ele>373.32</ele>
  <time>2026-09-01T19:57:46Z</time>
  <course>357.71</course>
  <speed>25.45</speed>
  <fix>3d</fix>
</trkpt>
<trkpt lat="-27.26854" lon="151.290465">
  <ele>373.2</ele>
  <time>2026-09-01T19:57:46Z</time>
  <course>357.03</course>
  <speed>25.450447933189704</speed>
  <fix>3d</fix>
</trkpt>
<trkpt lat="-27.268585" lon="151.2904671">
  <ele>373.32</ele>
  <time>2026-09-01T19:57:46Z</time>
  <course>357.71</course>
  <speed>25.45</speed>
  <fix>3d</fix>
</trkpt>
<trkpt lat="-27.2685174" lon="151.290464">
  <ele>373.19</ele>
  <time>2026-09-01T19:57:46Z</time>
  <course>356.98</course>
  <speed>25.4404559707565</speed>
  <fix>3d</fix>
</trkpt>
<trkpt lat="-27.2685393" lon="151.2904651">
  <ele>373.32</ele>
  <time>2026-09-01T19:57:46Z</time>
  <course>357.71</course>
  <speed>25.44</speed>
  <fix>3d</fix>
</trkpt>
<trkpt lat="-27.2684948" lon="151.290463">
  <ele>373.2</ele>
  <time>2026-09-01T19:57:46Z</time>
  <course>357.01</course>
  <speed>25.430464014641966</speed>
  <fix>3d</fix>
</trkpt>
<trkpt lat="-27.2685393" lon="151.2904651">
  <ele>373.32</ele>
  <time>2026-09-01T19:57:46Z</time>
  <course>357.71</course>
  <speed>25.44</speed>
  <fix>3d</fix>
</trkpt>
<trkpt lat="-27.2684721" lon="151.290462">
  <ele>373.2</ele>
  <time>2026-09-01T19:57:46Z</time>
  <course>357.07</course>
  <speed>25.430464014641966</speed>
  <fix>3d</fix>
</trkpt>
<trkpt lat="-27.2684935" lon="151.290463">
  <ele>373.32</ele>
  <time>2026-09-01T19:57:46Z</time>
  <course>357.71</course>
  <speed>25.44</speed>
  <fix>3d</fix>
</trkpt>
<trkpt lat="-27.2684494" lon="151.290461">
  <ele>373.2</ele>
  <time>2026-09-01T19:57:46Z</time>
  <course>357.07</course>
  <speed>25.420072777236495</speed>
  <fix>3d</fix>
</trkpt>
<trkpt lat="-27.2684935" lon="151.290463">
  <ele>373.32</ele>
  <time>2026-09-01T19:57:46Z</time>
  <course>357.71</course>
  <speed>25.44</speed>
  <fix>3d</fix>
</trkpt>
<trkpt lat="-27.2684264" lon="151.2904599">
  <ele>373.2</ele>
  <time>2026-09-01T19:57:46Z</time>
  <course>356.99</course>
  <speed>25.420072777236495</speed>
  <fix>3d</fix>
</trkpt>
<trkpt lat="-27.2684479" lon="151.290461">
  <ele>373.32</ele>
  <time>2026-09-01T19:57:46Z</time>
  <course>357.72</course>
  <speed>25.44</speed>
  <fix>3d</fix>
</trkpt>
<trkpt lat="-27.2684037" lon="151.2904589">
  <ele>373.2</ele>
  <time>2026-09-01T19:57:46Z</time>
  <course>356.96</course>
  <speed>25.410080676770786</speed>
  <fix>3d</fix>
</trkpt>
<trkpt lat="-27.2684479" lon="151.290461">
  <ele>373.32</ele>
  <time>2026-09-01T19:57:46Z</time>
  <course>357.72</course>
  <speed>25.44</speed>
  <fix>3d</fix>
</trkpt>
<trkpt lat="-27.268381" lon="151.2904579">
  <ele>373.2</ele>
  <time>2026-09-01T19:57:46Z</time>
  <course>357.04</course>
  <speed>25.410080676770786</speed>
  <fix>3d</fix>
</trkpt>
<trkpt lat="-27.2684022" lon="151.2904589">
  <ele>373.32</ele>
  <time>2026-09-01T19:57:46Z</time>
  <course>357.73</course>
  <speed>25.43</speed>
  <fix>3d</fix>
</trkpt>
<trkpt lat="-27.2683581" lon="151.2904569">
  <ele>373.2</ele>
  <time>2026-09-01T19:57:46Z</time>
  <course>357.11</course>
  <speed>25.410080676770786</speed>
  <fix>3d</fix>
</trkpt>
<trkpt lat="-27.2684022" lon="151.2904589">
  <ele>373.32</ele>
  <time>2026-09-01T19:57:46Z</time>
  <course>357.73</course>
  <speed>25.43</speed>
  <fix>3d</fix>
</trkpt>
<trkpt lat="-27.2683352" lon="151.2904559">
  <ele>373.2</ele>
  <time>2026-09-01T19:57:46Z</time>
  <course>357.1</course>
  <speed>25.419677417308034</speed>
  <fix>3d</fix>
</trkpt>
<trkpt lat="-27.2683566" lon="151.2904568">
  <ele>373.33</ele>
  <time>2026-09-01T19:57:46Z</time>
  <course>357.74</course>
  <speed>25.43</speed>
  <fix>3d</fix>
</trkpt>
<trkpt lat="-27.2683123" lon="151.2904549">
  <ele>373.2</ele>
  <time>2026-09-01T19:57:46Z</time>
  <course>357.09</course>
  <speed>25.419677417308034</speed>
  <fix>3d</fix>
</trkpt>
<trkpt lat="-27.2683566" lon="151.2904568">
  <ele>373.33</ele>
  <time>2026-09-01T19:57:46Z</time>
  <course>357.74</course>
  <speed>25.43</speed>
  <fix>3d</fix>
</trkpt>
<trkpt lat="-27.2682895" lon="151.2904539">
  <ele>373.19</ele>
  <time>2026-09-01T19:57:46Z</time>
  <course>357.01</course>
  <speed>25.419285985251435</speed>
  <fix>3d</fix>
</trkpt>
<trkpt lat="-27.2683109" lon="151.2904548">
  <ele>373.33</ele>
  <time>2026-09-01T19:57:46Z</time>
  <course>357.76</course>
  <speed>25.43</speed>
  <fix>3d</fix>
</trkpt>
<trkpt lat="-27.2682667" lon="151.2904529">
  <ele>373.19</ele>
  <time>2026-09-01T19:57:46Z</time>
  <course>356.96</course>
  <speed>25.409685161371048</speed>
  <fix>3d</fix>
</trkpt>
<trkpt lat="-27.2683109" lon="151.2904548">
  <ele>373.33</ele>
  <time>2026-09-01T19:57:46Z</time>
  <course>357.76</course>
  <speed>25.43</speed>
  <fix>3d</fix>
</trkpt>
<trkpt lat="-27.2682438" lon="151.2904519">
  <ele>373.19</ele>
  <time>2026-09-01T19:57:46Z</time>
  <course>356.96</course>
  <speed>25.409685161371048</speed>
  <fix>3d</fix>
</trkpt>
<trkpt lat="-27.2682653" lon="151.2904529">
  <ele>373.33</ele>
  <time>2026-09-01T19:57:46Z</time>
  <course>357.76</course>
  <speed>25.42</speed>
  <fix>3d</fix>
</trkpt>
<trkpt lat="-27.268221" lon="151.2904509">
  <ele>373.19</ele>
  <time>2026-09-01T19:57:46Z</time>
  <course>356.97</course>
  <speed>25.409685161371048</speed>
  <fix>3d</fix>
</trkpt>
<trkpt lat="-27.2682653" lon="151.2904529">
  <ele>373.33</ele>
  <time>2026-09-01T19:57:46Z</time>
  <course>357.76</course>
  <speed>25.42</speed>
  <fix>3d</fix>
</trkpt>
<trkpt lat="-27.2681982" lon="151.2904499">
  <ele>373.19</ele>
  <time>2026-09-01T19:57:46Z</time>
  <course>357.04</course>
  <speed>25.409685161371048</speed>
  <fix>3d</fix>
</trkpt>
<trkpt lat="-27.2682197" lon="151.2904509">
  <ele>373.33</ele>
  <time>2026-09-01T19:57:46Z</time>
  <course>357.76</course>
  <speed>25.42</speed>
  <fix>3d</fix>
</trkpt>
<trkpt lat="-27.2681762" lon="151.2904489">
  <ele>373.19</ele>
  <time>2026-09-01T19:57:46Z</time>
  <course>357.08</course>
  <speed>25.409685161371048</speed>
  <fix>3d</fix>
</trkpt>
<trkpt lat="-27.2682197" lon="151.2904509">
  <ele>373.33</ele>
  <time>2026-09-01T19:57:46Z</time>
  <course>357.76</course>
  <speed>25.42</speed>
  <fix>3d</fix>
</trkpt>
<trkpt lat="-27.2681534" lon="151.2904479">
  <ele>373.19</ele>
  <time>2026-09-01T19:57:46Z</time>
  <course>357.05</course>
  <speed>25.409685161371048</speed>
  <fix>3d</fix>
</trkpt>
<trkpt lat="-27.2681741" lon="151.2904489">
  <ele>373.32</ele>
  <time>2026-09-01T19:57:46Z</time>
  <course>357.76</course>
  <speed>25.42</speed>
  <fix>3d</fix>
</trkpt>
<trkpt lat="-27.2681304" lon="151.2904469">
  <ele>373.19</ele>
  <time>2026-09-01T19:57:46Z</time>
  <course>357.05</course>
  <speed>25.409293575383003</speed>
  <fix>3d</fix>
</trkpt>
<trkpt lat="-27.2681741" lon="151.2904489">
  <ele>373.32</ele>
  <time>2026-09-01T19:57:46Z</time>
  <course>357.76</course>
  <speed>25.42</speed>
  <fix>3d</fix>
</trkpt>
<trkpt lat="-27.2681076" lon="151.2904459">
  <ele>373.18</ele>
  <time>2026-09-01T19:57:46Z</time>
  <course>357.0</course>
  <speed>25.409293575383003</speed>
  <fix>3d</fix>
</trkpt>
<trkpt lat="-27.2681284" lon="151.2904469">
  <ele>373.32</ele>
  <time>2026-09-01T19:57:46Z</time>
  <course>357.77</course>
  <speed>25.42</speed>
  <fix>3d</fix>
</trkpt>
<trkpt lat="-27.268084" lon="151.2904449">
  <ele>373.18</ele>
  <time>2026-09-01T19:57:46Z</time>
  <course>357.08</course>
  <speed>25.409293575383003</speed>
  <fix>3d</fix>
</trkpt>
<trkpt lat="-27.2681284" lon="151.2904469">
  <ele>373.32</ele>
  <time>2026-09-01T19:57:46Z</time>
  <course>357.77</course>
  <speed>25.42</speed>
  <fix>3d</fix>
</trkpt>
<trkpt lat="-27.2680611" lon="151.2904439">
  <ele>373.18</ele>
  <time>2026-09-01T19:57:46Z</time>
  <course>357.14</course>
  <speed>25.41889848124816</speed>
  <fix>3d</fix>
</trkpt>
<trkpt lat="-27.2680827" lon="151.2904448">
  <ele>373.32</ele>
  <time>2026-09-01T19:57:46Z</time>
  <course>357.79</course>
  <speed>25.42</speed>
  <fix>3d</fix>
</trkpt>
<trkpt lat="-27.2680384" lon="151.2904429">
  <ele>373.17</ele>
  <time>2026-09-01T19:57:46Z</time>
  <course>357.12</course>
  <speed>25.41889848124816</speed>
  <fix>3d</fix>
</trkpt>
<trkpt lat="-27.2680827" lon="151.2904448">
  <ele>373.32</ele>
  <time>2026-09-01T19:57:46Z</time>
  <course>357.79</course>
  <speed>25.42</speed>
  <fix>3d</fix>
</trkpt>
<trkpt lat="-27.2680155" lon="151.2904419">
  <ele>373.17</ele>
  <time>2026-09-01T19:57:46Z</time>
  <course>357.09</course>
  <speed>25.41889848124816</speed>
  <fix>3d</fix>
</trkpt>
<trkpt lat="-27.268037" lon="151.2904429">
  <ele>373.32</ele>
  <time>2026-09-01T19:57:46Z</time>
  <course>357.8</course>
  <speed>25.42</speed>
  <fix>3d</fix>
</trkpt>
<trkpt lat="-27.2679926" lon="151.2904409">
  <ele>373.17</ele>
  <time>2026-09-01T19:57:46Z</time>
  <course>357.06</course>
  <speed>25.428891049355652</speed>
  <fix>3d</fix>
</trkpt>
<trkpt lat="-27.268037" lon="151.2904429">
  <ele>373.32</ele>
  <time>2026-09-01T19:57:46Z</time>
  <course>357.8</course>
  <speed>25.42</speed>
  <fix>3d</fix>
</trkpt>
<trkpt lat="-27.2679697" lon="151.2904399">
  <ele>373.17</ele>
  <time>2026-09-01T19:57:46Z</time>
  <course>357.09</course>
  <speed>25.428891049355652</speed>
  <fix>3d</fix>
</trkpt>
<trkpt lat="-27.2679914" lon="151.2904409">
  <ele>373.32</ele>
  <time>2026-09-01T19:57:46Z</time>
  <course>357.81</course>
  <speed>25.42</speed>
  <fix>3d</fix>
</trkpt>
<trkpt lat="-27.2679466" lon="151.290439">
  <ele>373.17</ele>
  <time>2026-09-01T19:57:46Z</time>
  <course>357.1</course>
  <speed>25.438883623303912</speed>
  <fix>3d</fix>
</trkpt>
<trkpt lat="-27.2679914" lon="151.2904409">
  <ele>373.32</ele>
  <time>2026-09-01T19:57:46Z</time>
  <course>357.81</course>
  <speed>25.42</speed>
  <fix>3d</fix>
</trkpt>
<trkpt lat="-27.2679237" lon="151.290438">
  <ele>373.17</ele>
  <time>2026-09-01T19:57:46Z</time>
  <course>357.08</course>
  <speed>25.438883623303912</speed>
  <fix>3d</fix>
</trkpt>
<trkpt lat="-27.2679458" lon="151.290439">
  <ele>373.31</ele>
  <time>2026-09-01T19:57:46Z</time>
  <course>357.81</course>
  <speed>25.42</speed>
  <fix>3d</fix>
</trkpt>
<trkpt lat="-27.2679008" lon="151.290437">
  <ele>373.17</ele>
  <time>2026-09-01T19:57:46Z</time>
  <course>357.05</course>
  <speed>25.448876203086062</speed>
  <fix>3d</fix>
</trkpt>
<trkpt lat="-27.2679458" lon="151.290439">
  <ele>373.31</ele>
  <time>2026-09-01T19:57:46Z</time>
  <course>357.81</course>
  <speed>25.42</speed>
  <fix>3d</fix>
</trkpt>
<trkpt lat="-27.2678779" lon="151.290436">
  <ele>373.16</ele>
  <time>2026-09-01T19:57:46Z</time>
  <course>357.09</course>
  <speed>25.458868788695227</speed>
  <fix>3d</fix>
</trkpt>
<trkpt lat="-27.2679001" lon="151.290437">
  <ele>373.3</ele>
  <time>2026-09-01T19:57:46Z</time>
  <course>357.81</course>
  <speed>25.42</speed>
  <fix>3d</fix>
</trkpt>
<trkpt lat="-27.267855" lon="151.290435">
  <ele>373.16</ele>
  <time>2026-09-01T19:57:46Z</time>
  <course>357.07</course>
  <speed>25.458868788695227</speed>
  <fix>3d</fix>
</trkpt>
<trkpt lat="-27.2679001" lon="151.290437">
  <ele>373.3</ele>
  <time>2026-09-01T19:57:46Z</time>
  <course>357.81</course>
  <speed>25.42</speed>
  <fix>3d</fix>
</trkpt>
<trkpt lat="-27.2678321" lon="151.290434">
  <ele>373.16</ele>
  <time>2026-09-01T19:57:46Z</time>
  <course>357.02</course>
  <speed>25.459255684328244</speed>
  <fix>3d</fix>
</trkpt>
<trkpt lat="-27.2678545" lon="151.2904351">
  <ele>373.3</ele>
  <time>2026-09-01T19:57:46Z</time>
  <course>357.8</course>
  <speed>25.42</speed>
  <fix>3d</fix>
</trkpt>
<trkpt lat="-27.2678092" lon="151.290433">
  <ele>373.16</ele>
  <time>2026-09-01T19:57:46Z</time>
  <course>357.03</course>
  <speed>25.469248123963144</speed>
  <fix>3d</fix>
</trkpt>
<trkpt lat="-27.2678545" lon="151.2904351">
  <ele>373.3</ele>
  <time>2026-09-01T19:57:46Z</time>
  <course>357.8</course>
  <speed>25.42</speed>
  <fix>3d</fix>
</trkpt>
<trkpt lat="-27.2677864" lon="151.290432">
  <ele>373.16</ele>
  <time>2026-09-01T19:57:46Z</time>
  <course>357.03</course>
  <speed>25.46963878817287</speed>
  <fix>3d</fix>
</trkpt>
<trkpt lat="-27.2678088" lon="151.2904331">
  <ele>373.3</ele>
  <time>2026-09-01T19:57:46Z</time>
  <course>357.79</course>
  <speed>25.43</speed>
  <fix>3d</fix>
</trkpt>
<trkpt lat="-27.2677635" lon="151.290431">
  <ele>373.17</ele>
  <time>2026-09-01T19:57:46Z</time>
  <course>357.04</course>
  <speed>25.46963878817287</speed>
  <fix>3d</fix>
</trkpt>
<trkpt lat="-27.2678088" lon="151.2904331">
  <ele>373.3</ele>
  <time>2026-09-01T19:57:46Z</time>
  <course>357.79</course>
  <speed>25.43</speed>
  <fix>3d</fix>
</trkpt>
<trkpt lat="-27.2677406" lon="151.29043">
  <ele>373.17</ele>
  <time>2026-09-01T19:57:46Z</time>
  <course>357.02</course>
  <speed>25.46963878817287</speed>
  <fix>3d</fix>
</trkpt>
<trkpt lat="-27.2677632" lon="151.2904311">
  <ele>373.3</ele>
  <time>2026-09-01T19:57:46Z</time>
  <course>357.78</course>
  <speed>25.43</speed>
  <fix>3d</fix>
</trkpt>
<trkpt lat="-27.2677177" lon="151.290429">
  <ele>373.17</ele>
  <time>2026-09-01T19:57:46Z</time>
  <course>356.99</course>
  <speed>25.46963878817287</speed>
  <fix>3d</fix>
</trkpt>
<trkpt lat="-27.2677632" lon="151.2904311">
  <ele>373.3</ele>
  <time>2026-09-01T19:57:46Z</time>
  <course>357.78</course>
  <speed>25.43</speed>
  <fix>3d</fix>
</trkpt>
<trkpt lat="-27.2676949" lon="151.290428">
  <ele>373.17</ele>
  <time>2026-09-01T19:57:46Z</time>
  <course>356.94</course>
  <speed>25.46963878817287</speed>
  <fix>3d</fix>
</trkpt>
<trkpt lat="-27.2677176" lon="151.2904292">
  <ele>373.3</ele>
  <time>2026-09-01T19:57:46Z</time>
  <course>357.77</course>
  <speed>25.43</speed>
  <fix>3d</fix>
</trkpt>
<trkpt lat="-27.267672" lon="151.290427">
  <ele>373.18</ele>
  <time>2026-09-01T19:57:46Z</time>
  <course>356.94</course>
  <speed>25.470033372573347</speed>
  <fix>3d</fix>
</trkpt>
<trkpt lat="-27.2677176" lon="151.2904292">
  <ele>373.3</ele>
  <time>2026-09-01T19:57:46Z</time>
  <course>357.77</course>
  <speed>25.43</speed>
  <fix>3d</fix>
</trkpt>
<trkpt lat="-27.2676491" lon="151.290426">
  <ele>373.18</ele>
  <time>2026-09-01T19:57:46Z</time>
  <course>357.0</course>
  <speed>25.470033372573347</speed>
  <fix>3d</fix>
</trkpt>
<trkpt lat="-27.2676719" lon="151.2904271">
  <ele>373.31</ele>
  <time>2026-09-01T19:57:46Z</time>
  <course>357.75</course>
  <speed>25.42</speed>
  <fix>3d</fix>
</trkpt>
<trkpt lat="-27.2676263" lon="151.290425">
  <ele>373.19</ele>
  <time>2026-09-01T19:57:46Z</time>
  <course>356.95</course>
  <speed>25.470033372573347</speed>
  <fix>3d</fix>
</trkpt>
<trkpt lat="-27.2676719" lon="151.2904271">
  <ele>373.31</ele>
  <time>2026-09-01T19:57:46Z</time>
  <course>357.75</course>
  <speed>25.42</speed>
  <fix>3d</fix>
</trkpt>
<trkpt lat="-27.2676034" lon="151.290424">
  <ele>373.2</ele>
  <time>2026-09-01T19:57:46Z</time>
  <course>356.95</course>
  <speed>25.470033372573347</speed>
  <fix>3d</fix>
</trkpt>
<trkpt lat="-27.2676262" lon="151.2904251">
  <ele>373.32</ele>
  <time>2026-09-01T19:57:46Z</time>
  <course>357.73</course>
  <speed>25.42</speed>
  <fix>3d</fix>
</trkpt>
<trkpt lat="-27.2675806" lon="151.290423">
  <ele>373.2</ele>
  <time>2026-09-01T19:57:46Z</time>
  <course>356.98</course>
  <speed>25.470431876982374</speed>
  <fix>3d</fix>
</trkpt>
<trkpt lat="-27.2676262" lon="151.2904251">
  <ele>373.32</ele>
  <time>2026-09-01T19:57:46Z</time>
  <course>357.73</course>
  <speed>25.42</speed>
  <fix>3d</fix>
</trkpt>
<trkpt lat="-27.2675578" lon="151.290422">
  <ele>373.21</ele>
  <time>2026-09-01T19:57:46Z</time>
  <course>356.99</course>
  <speed>25.470431876982374</speed>
  <fix>3d</fix>
</trkpt>
<trkpt lat="-27.2675805" lon="151.2904231">
  <ele>373.33</ele>
  <time>2026-09-01T19:57:46Z</time>
  <course>357.73</course>
  <speed>25.42</speed>
  <fix>3d</fix>
</trkpt>
<trkpt lat="-27.2675349" lon="151.290421">
  <ele>373.21</ele>
  <time>2026-09-01T19:57:46Z</time>
  <course>356.98</course>
  <speed>25.470431876982374</speed>
  <fix>3d</fix>
</trkpt>
<trkpt lat="-27.2675805" lon="151.2904231">
  <ele>373.33</ele>
  <time>2026-09-01T19:57:46Z</time>
  <course>357.73</course>
  <speed>25.42</speed>
  <fix>3d</fix>
</trkpt>
<trkpt lat="-27.2675121" lon="151.2904199">
  <ele>373.22</ele>
  <time>2026-09-01T19:57:46Z</time>
  <course>356.94</course>
  <speed>25.460439901934137</speed>
  <fix>3d</fix>
</trkpt>
<trkpt lat="-27.2675349" lon="151.290421">
  <ele>373.34</ele>
  <time>2026-09-01T19:57:46Z</time>
  <course>357.72</course>
  <speed>25.41</speed>
  <fix>3d</fix>
</trkpt>
<trkpt lat="-27.2674892" lon="151.2904189">
  <ele>373.22</ele>
  <time>2026-09-01T19:57:46Z</time>
  <course>356.91</course>
  <speed>25.460439901934137</speed>
  <fix>3d</fix>
</trkpt>
<trkpt lat="-27.2675349" lon="151.290421">
  <ele>373.34</ele>
  <time>2026-09-01T19:57:46Z</time>
  <course>357.72</course>
  <speed>25.41</speed>
  <fix>3d</fix>
</trkpt>
<trkpt lat="-27.2674662" lon="151.2904179">
  <ele>373.22</ele>
  <time>2026-09-01T19:57:46Z</time>
  <course>356.9</course>
  <speed>25.460842484097025</speed>
  <fix>3d</fix>
</trkpt>
<trkpt lat="-27.2674893" lon="151.2904189">
  <ele>373.35</ele>
  <time>2026-09-01T19:57:46Z</time>
  <course>357.71</course>
  <speed>25.41</speed>
  <fix>3d</fix>
</trkpt>
<trkpt lat="-27.2674434" lon="151.2904169">
  <ele>373.22</ele>
  <time>2026-09-01T19:57:46Z</time>
  <course>356.9</course>
  <speed>25.45085067340579</speed>
  <fix>3d</fix>
</trkpt>
<trkpt lat="-27.2674893" lon="151.2904189">
  <ele>373.35</ele>
  <time>2026-09-01T19:57:46Z</time>
  <course>357.71</course>
  <speed>25.41</speed>
  <fix>3d</fix>
</trkpt>
<trkpt lat="-27.2674206" lon="151.2904158">
  <ele>373.21</ele>
  <time>2026-09-01T19:57:46Z</time>
  <course>356.92</course>
  <speed>25.460842484097025</speed>
  <fix>3d</fix>
</trkpt>
<trkpt lat="-27.2674437" lon="151.2904169">
  <ele>373.35</ele>
  <time>2026-09-01T19:57:46Z</time>
  <course>357.7</course>
  <speed>25.41</speed>
  <fix>3d</fix>
</trkpt>
<trkpt lat="-27.2673978" lon="151.2904148">
  <ele>373.21</ele>
  <time>2026-09-01T19:57:46Z</time>
  <course>356.94</course>
  <speed>25.460842484097025</speed>
  <fix>3d</fix>
</trkpt>
<trkpt lat="-27.2674437" lon="151.2904169">
  <ele>373.35</ele>
  <time>2026-09-01T19:57:46Z</time>
  <course>357.7</course>
  <speed>25.41</speed>
  <fix>3d</fix>
</trkpt>
<trkpt lat="-27.2673749" lon="151.2904138">
  <ele>373.2</ele>
  <time>2026-09-01T19:57:46Z</time>
  <course>356.93</course>
  <speed>25.460842484097025</speed>
  <fix>3d</fix>
</trkpt>
<trkpt lat="-27.2673981" lon="151.2904149">
  <ele>373.34</ele>
  <time>2026-09-01T19:57:46Z</time>
  <course>357.7</course>
  <speed>25.41</speed>
  <fix>3d</fix>
</trkpt>
<trkpt lat="-27.2673521" lon="151.2904127">
  <ele>373.2</ele>
  <time>2026-09-01T19:57:46Z</time>
  <course>356.97</course>
  <speed>25.460439901934137</speed>
  <fix>3d</fix>
</trkpt>
<trkpt lat="-27.2673981" lon="151.2904149">
  <ele>373.34</ele>
  <time>2026-09-01T19:57:46Z</time>
  <course>357.7</course>
  <speed>25.41</speed>
  <fix>3d</fix>
</trkpt>
<trkpt lat="-27.2673293" lon="151.2904117">
  <ele>373.2</ele>
  <time>2026-09-01T19:57:46Z</time>
  <course>356.97</course>
  <speed>25.450447933189704</speed>
  <fix>3d</fix>
</trkpt>
<trkpt lat="-27.2673525" lon="151.2904128">
  <ele>373.34</ele>
  <time>2026-09-01T19:57:46Z</time>
  <course>357.7</course>
  <speed>25.41</speed>
  <fix>3d</fix>
</trkpt>
<trkpt lat="-27.2673065" lon="151.2904107">
  <ele>373.2</ele>
  <time>2026-09-01T19:57:46Z</time>
  <course>356.98</course>
  <speed>25.450447933189704</speed>
  <fix>3d</fix>
</trkpt>
<trkpt lat="-27.2673525" lon="151.2904128">
  <ele>373.34</ele>
  <time>2026-09-01T19:57:46Z</time>
  <course>357.7</course>
  <speed>25.41</speed>
  <fix>3d</fix>
</trkpt>
<trkpt lat="-27.2672837" lon="151.2904097">
  <ele>373.2</ele>
  <time>2026-09-01T19:57:46Z</time>
  <course>356.94</course>
  <speed>25.450447933189704</speed>
  <fix>3d</fix>
</trkpt>
<trkpt lat="-27.2673069" lon="151.2904108">
  <ele>373.33</ele>
  <time>2026-09-01T19:57:46Z</time>
  <course>357.71</course>
  <speed>25.41</speed>
  <fix>3d</fix>
</trkpt>
<trkpt lat="-27.2672609" lon="151.2904087">
  <ele>373.19</ele>
  <time>2026-09-01T19:57:46Z</time>
  <course>356.95</course>
  <speed>25.450447933189704</speed>
  <fix>3d</fix>
</trkpt>
<trkpt lat="-27.2673069" lon="151.2904108">
  <ele>373.33</ele>
  <time>2026-09-01T19:57:46Z</time>
  <course>357.71</course>
  <speed>25.41</speed>
  <fix>3d</fix>
</trkpt>
<trkpt lat="-27.2672381" lon="151.2904076">
  <ele>373.2</ele>
  <time>2026-09-01T19:57:46Z</time>
  <course>356.98</course>
  <speed>25.450049115866165</speed>
  <fix>3d</fix>
</trkpt>
<trkpt lat="-27.2672613" lon="151.2904087">
  <ele>373.33</ele>
  <time>2026-09-01T19:57:46Z</time>
  <course>357.72</course>
  <speed>25.41</speed>
  <fix>3d</fix>
</trkpt>
<trkpt lat="-27.2672153" lon="151.2904066">
  <ele>373.2</ele>
  <time>2026-09-01T19:57:46Z</time>
  <course>357.01</course>
  <speed>25.450049115866165</speed>
  <fix>3d</fix>
</trkpt>
<trkpt lat="-27.2672613" lon="151.2904087">
  <ele>373.33</ele>
  <time>2026-09-01T19:57:46Z</time>
  <course>357.72</course>
  <speed>25.41</speed>
  <fix>3d</fix>
</trkpt>
<trkpt lat="-27.2671925" lon="151.2904056">
  <ele>373.2</ele>
  <time>2026-09-01T19:57:46Z</time>
  <course>357.0</course>
  <speed>25.450049115866165</speed>
  <fix>3d</fix>
</trkpt>
<trkpt lat="-27.2672157" lon="151.2904067">
  <ele>373.32</ele>
  <time>2026-09-01T19:57:46Z</time>
  <course>357.73</course>
  <speed>25.41</speed>
  <fix>3d</fix>
</trkpt>
<trkpt lat="-27.2671697" lon="151.2904046">
  <ele>373.2</ele>
  <time>2026-09-01T19:57:46Z</time>
  <course>356.93</course>
  <speed>25.459646501866438</speed>
  <fix>3d</fix>
</trkpt>
<trkpt lat="-27.2672157" lon="151.2904067">
  <ele>373.32</ele>
  <time>2026-09-01T19:57:46Z</time>
  <course>357.73</course>
  <speed>25.41</speed>
  <fix>3d</fix>
</trkpt>
<trkpt lat="-27.2671469" lon="151.2904036">
  <ele>373.2</ele>
  <time>2026-09-01T19:57:46Z</time>
  <course>356.91</course>
  <speed>25.459646501866438</speed>
  <fix>3d</fix>
</trkpt>
<trkpt lat="-27.26717" lon="151.2904046">
  <ele>373.32</ele>
  <time>2026-09-01T19:57:46Z</time>
  <course>357.75</course>
  <speed>25.42</speed>
  <fix>3d</fix>
</trkpt>
<trkpt lat="-27.2671241" lon="151.2904026">
  <ele>373.19</ele>
  <time>2026-09-01T19:57:46Z</time>
  <course>356.93</course>
  <speed>25.459255684328244</speed>
  <fix>3d</fix>
</trkpt>
<trkpt lat="-27.26717" lon="151.2904046">
  <ele>373.32</ele>
  <time>2026-09-01T19:57:46Z</time>
  <course>357.75</course>
  <speed>25.42</speed>
  <fix>3d</fix>
</trkpt>
<trkpt lat="-27.2671013" lon="151.2904016">
  <ele>373.19</ele>
  <time>2026-09-01T19:57:46Z</time>
  <course>356.97</course>
  <speed>25.459255684328244</speed>
  <fix>3d</fix>
</trkpt>
<trkpt lat="-27.2671243" lon="151.2904026">
  <ele>373.31</ele>
  <time>2026-09-01T19:57:46Z</time>
  <course>357.77</course>
  <speed>25.42</speed>
  <fix>3d</fix>
</trkpt>
<trkpt lat="-27.2670785" lon="151.2904006">
  <ele>373.19</ele>
  <time>2026-09-01T19:57:46Z</time>
  <course>357.0</course>
  <speed>25.459255684328244</speed>
  <fix>3d</fix>
</trkpt>
<trkpt lat="-27.2671243" lon="151.2904026">
  <ele>373.31</ele>
  <time>2026-09-01T19:57:46Z</time>
  <course>357.77</course>
  <speed>25.42</speed>
  <fix>3d</fix>
</trkpt>
<trkpt lat="-27.2670557" lon="151.2903996">
  <ele>373.19</ele>
  <time>2026-09-01T19:57:46Z</time>
  <course>357.0</course>
  <speed>25.448876203086062</speed>
  <fix>3d</fix>
</trkpt>
<trkpt lat="-27.2670786" lon="151.2904007">
  <ele>373.31</ele>
  <time>2026-09-01T19:57:46Z</time>
  <course>357.78</course>
  <speed>25.43</speed>
  <fix>3d</fix>
</trkpt>
<trkpt lat="-27.2670329" lon="151.2903986">
  <ele>373.19</ele>
  <time>2026-09-01T19:57:46Z</time>
  <course>356.98</course>
  <speed>25.449263250632622</speed>
  <fix>3d</fix>
</trkpt>
<trkpt lat="-27.2670786" lon="151.2904007">
  <ele>373.31</ele>
  <time>2026-09-01T19:57:46Z</time>
  <course>357.78</course>
  <speed>25.43</speed>
  <fix>3d</fix>
</trkpt>
<trkpt lat="-27.26701" lon="151.2903976">
  <ele>373.19</ele>
  <time>2026-09-01T19:57:46Z</time>
  <course>357.04</course>
  <speed>25.449263250632622</speed>
  <fix>3d</fix>
</trkpt>
<trkpt lat="-27.2670329" lon="151.2903987">
  <ele>373.31</ele>
  <time>2026-09-01T19:57:46Z</time>
  <course>357.79</course>
  <speed>25.43</speed>
  <fix>3d</fix>
</trkpt>
<trkpt lat="-27.2669874" lon="151.2903967">
  <ele>373.18</ele>
  <time>2026-09-01T19:57:46Z</time>
  <course>357.09</course>
  <speed>25.458868788695227</speed>
  <fix>3d</fix>
</trkpt>
<trkpt lat="-27.2670329" lon="151.2903987">
  <ele>373.31</ele>
  <time>2026-09-01T19:57:46Z</time>
  <course>357.79</course>
  <speed>25.43</speed>
  <fix>3d</fix>
</trkpt>
<trkpt lat="-27.2669646" lon="151.2903957">
  <ele>373.18</ele>
  <time>2026-09-01T19:57:46Z</time>
  <course>357.07</course>
  <speed>25.458868788695227</speed>
  <fix>3d</fix>
</trkpt>
<trkpt lat="-27.2669873" lon="151.2903967">
  <ele>373.31</ele>
  <time>2026-09-01T19:57:46Z</time>
  <course>357.79</course>
  <speed>25.43</speed>
  <fix>3d</fix>
</trkpt>
<trkpt lat="-27.2669417" lon="151.2903947">
  <ele>373.18</ele>
  <time>2026-09-01T19:57:46Z</time>
  <course>357.03</course>
  <speed>25.458868788695227</speed>
  <fix>3d</fix>
</trkpt>
<trkpt lat="-27.2669873" lon="151.2903967">
  <ele>373.31</ele>
  <time>2026-09-01T19:57:46Z</time>
  <course>357.79</course>
  <speed>25.43</speed>
  <fix>3d</fix>
</trkpt>
<trkpt lat="-27.2669189" lon="151.2903937">
  <ele>373.17</ele>
  <time>2026-09-01T19:57:46Z</time>
  <course>357.07</course>
  <speed>25.458868788695227</speed>
  <fix>3d</fix>
</trkpt>
<trkpt lat="-27.2669416" lon="151.2903948">
  <ele>373.3</ele>
  <time>2026-09-01T19:57:46Z</time>
  <course>357.81</course>
  <speed>25.43</speed>
  <fix>3d</fix>
</trkpt>
<trkpt lat="-27.2668957" lon="151.2903927">
  <ele>373.17</ele>
  <time>2026-09-01T19:57:46Z</time>
  <course>357.02</course>
  <speed>25.458868788695227</speed>
  <fix>3d</fix>
</trkpt>
<trkpt lat="-27.2669416" lon="151.2903948">
  <ele>373.3</ele>
  <time>2026-09-01T19:57:46Z</time>
  <course>357.81</course>
  <speed>25.43</speed>
  <fix>3d</fix>
</trkpt>
<trkpt lat="-27.2668728" lon="151.2903917">
  <ele>373.16</ele>
  <time>2026-09-01T19:57:46Z</time>
  <course>356.94</course>
  <speed>25.468861380124554</speed>
  <fix>3d</fix>
</trkpt>
<trkpt lat="-27.266896" lon="151.2903928">
  <ele>373.29</ele>
  <time>2026-09-01T19:57:46Z</time>
  <course>357.81</course>
  <speed>25.43</speed>
  <fix>3d</fix>
</trkpt>
<trkpt lat="-27.26685" lon="151.2903908">
  <ele>373.16</ele>
  <time>2026-09-01T19:57:47Z</time>
  <course>357.0</course>
  <speed>25.468861380124554</speed>
  <fix>3d</fix>
</trkpt>
<trkpt lat="-27.266896" lon="151.2903928">
  <ele>373.29</ele>
  <time>2026-09-01T19:57:47Z</time>
  <course>357.81</course>
  <speed>25.43</speed>
  <fix>3d</fix>
</trkpt>
<trkpt lat="-27.2668272" lon="151.2903898">
  <ele>373.16</ele>
  <time>2026-09-01T19:57:47Z</time>
  <course>357.08</course>
  <speed>25.468861380124554</speed>
  <fix>3d</fix>
</trkpt>
<trkpt lat="-27.2668503" lon="151.2903908">
  <ele>373.28</ele>
  <time>2026-09-01T19:57:47Z</time>
  <course>357.81</course>
  <speed>25.43</speed>
  <fix>3d</fix>
</trkpt>
<trkpt lat="-27.2668044" lon="151.2903888">
  <ele>373.16</ele>
  <time>2026-09-01T19:57:47Z</time>
  <course>357.09</course>
  <speed>25.458868788695227</speed>
  <fix>3d</fix>
</trkpt>
<trkpt lat="-27.2668503" lon="151.2903908">
  <ele>373.28</ele>
  <time>2026-09-01T19:57:47Z</time>
  <course>357.81</course>
  <speed>25.43</speed>
  <fix>3d</fix>
</trkpt>
<trkpt lat="-27.2667815" lon="151.2903878">
  <ele>373.16</ele>
  <time>2026-09-01T19:57:47Z</time>
  <course>357.02</course>
  <speed>25.458868788695227</speed>
  <fix>3d</fix>
</trkpt>
<trkpt lat="-27.2668047" lon="151.2903888">
  <ele>373.28</ele>
  <time>2026-09-01T19:57:47Z</time>
  <course>357.8</course>
  <speed>25.43</speed>
  <fix>3d</fix>
</trkpt>
<trkpt lat="-27.2667587" lon="151.2903868">
  <ele>373.16</ele>
  <time>2026-09-01T19:57:47Z</time>
  <course>356.97</course>
  <speed>25.468861380124554</speed>
  <fix>3d</fix>
</trkpt>
<trkpt lat="-27.2668047" lon="151.2903888">
  <ele>373.28</ele>
  <time>2026-09-01T19:57:47Z</time>
  <course>357.8</course>
  <speed>25.43</speed>
  <fix>3d</fix>
</trkpt>
<trkpt lat="-27.2667358" lon="151.2903858">
  <ele>373.15</ele>
  <time>2026-09-01T19:57:47Z</time>
  <course>356.97</course>
  <speed>25.468861380124554</speed>
  <fix>3d</fix>
</trkpt>
<trkpt lat="-27.266759" lon="151.2903868">
  <ele>373.28</ele>
  <time>2026-09-01T19:57:47Z</time>
  <course>357.8</course>
  <speed>25.44</speed>
  <fix>3d</fix>
</trkpt>
<trkpt lat="-27.2667129" lon="151.2903849">
  <ele>373.15</ele>
  <time>2026-09-01T19:57:47Z</time>
  <course>357.02</course>
  <speed>25.478853977367194</speed>
  <fix>3d</fix>
</trkpt>
<trkpt lat="-27.266759" lon="151.2903868">
  <ele>373.28</ele>
  <time>2026-09-01T19:57:47Z</time>
  <course>357.8</course>
  <speed>25.44</speed>
  <fix>3d</fix>
</trkpt>
<trkpt lat="-27.2666901" lon="151.2903839">
  <ele>373.14</ele>
  <time>2026-09-01T19:57:47Z</time>
  <course>357.01</course>
  <speed>25.488846580416308</speed>
  <fix>3d</fix>
</trkpt>
<trkpt lat="-27.2667134" lon="151.2903849">
  <ele>373.27</ele>
  <time>2026-09-01T19:57:47Z</time>
  <course>357.8</course>
  <speed>25.44</speed>
  <fix>3d</fix>
</trkpt>
<trkpt lat="-27.2666673" lon="151.2903829">
  <ele>373.14</ele>
  <time>2026-09-01T19:57:47Z</time>
  <course>356.95</course>
  <speed>25.478853977367194</speed>
  <fix>3d</fix>
</trkpt>
<trkpt lat="-27.2667134" lon="151.2903849">
  <ele>373.27</ele>
  <time>2026-09-01T19:57:47Z</time>
  <course>357.8</course>
  <speed>25.44</speed>
  <fix>3d</fix>
</trkpt>
<trkpt lat="-27.2666446" lon="151.2903819">
  <ele>373.13</ele>
  <time>2026-09-01T19:57:47Z</time>
  <course>356.95</course>
  <speed>25.478853977367194</speed>
  <fix>3d</fix>
</trkpt>
<trkpt lat="-27.2666676" lon="151.290383">
  <ele>373.26</ele>
  <time>2026-09-01T19:57:47Z</time>
  <course>357.8</course>
  <speed>25.45</speed>
  <fix>3d</fix>
</trkpt>
<trkpt lat="-27.2666219" lon="151.2903809">
  <ele>373.12</ele>
  <time>2026-09-01T19:57:47Z</time>
  <course>356.98</course>
  <speed>25.478853977367194</speed>
  <fix>3d</fix>
</trkpt>
<trkpt lat="-27.2666676" lon="151.290383">
  <ele>373.26</ele>
  <time>2026-09-01T19:57:47Z</time>
  <course>357.8</course>
  <speed>25.45</speed>
  <fix>3d</fix>
</trkpt>
<trkpt lat="-27.2665991" lon="151.2903799">
  <ele>373.12</ele>
  <time>2026-09-01T19:57:47Z</time>
  <course>356.96</course>
  <speed>25.468861380124554</speed>
  <fix>3d</fix>
</trkpt>
<trkpt lat="-27.2666218" lon="151.290381">
  <ele>373.25</ele>
  <time>2026-09-01T19:57:47Z</time>
  <course>357.79</course>
  <speed>25.46</speed>
  <fix>3d</fix>
</trkpt>
<trkpt lat="-27.2665765" lon="151.290379">
  <ele>373.11</ele>
  <time>2026-09-01T19:57:47Z</time>
  <course>356.93</course>
  <speed>25.458868788695227</speed>
  <fix>3d</fix>
</trkpt>
<trkpt lat="-27.2666218" lon="151.290381">
  <ele>373.25</ele>
  <time>2026-09-01T19:57:47Z</time>
  <course>357.79</course>
  <speed>25.46</speed>
  <fix>3d</fix>
</trkpt>
<trkpt lat="-27.2665538" lon="151.290378">
  <ele>373.11</ele>
  <time>2026-09-01T19:57:47Z</time>
  <course>356.95</course>
  <speed>25.458868788695227</speed>
  <fix>3d</fix>
</trkpt>
<trkpt lat="-27.2665761" lon="151.290379">
  <ele>373.24</ele>
  <time>2026-09-01T19:57:47Z</time>
  <course>357.79</course>
  <speed>25.46</speed>
  <fix>3d</fix>
</trkpt>
<trkpt lat="-27.2665313" lon="151.290377">
  <ele>373.1</ele>
  <time>2026-09-01T19:57:47Z</time>
  <course>356.93</course>
  <speed>25.458868788695227</speed>
  <fix>3d</fix>
</trkpt>
<trkpt lat="-27.2665761" lon="151.290379">
  <ele>373.24</ele>
  <time>2026-09-01T19:57:47Z</time>
  <course>357.79</course>
  <speed>25.46</speed>
  <fix>3d</fix>
</trkpt>
<trkpt lat="-27.2665086" lon="151.290376">
  <ele>373.1</ele>
  <time>2026-09-01T19:57:47Z</time>
  <course>356.96</course>
  <speed>25.448876203086062</speed>
  <fix>3d</fix>
</trkpt>
<trkpt lat="-27.2665304" lon="151.2903769">
  <ele>373.24</ele>
  <time>2026-09-01T19:57:47Z</time>
  <course>357.79</course>
  <speed>25.46</speed>
  <fix>3d</fix>
</trkpt>
<trkpt lat="-27.2664859" lon="151.2903751">
  <ele>373.09</ele>
  <time>2026-09-01T19:57:47Z</time>
  <course>356.97</course>
  <speed>25.438883623303912</speed>
  <fix>3d</fix>
</trkpt>
<trkpt lat="-27.2665304" lon="151.2903769">
  <ele>373.24</ele>
  <time>2026-09-01T19:57:47Z</time>
  <course>357.79</course>
  <speed>25.46</speed>
  <fix>3d</fix>
</trkpt>
<trkpt lat="-27.2664631" lon="151.2903741">
  <ele>373.09</ele>
  <time>2026-09-01T19:57:47Z</time>
  <course>356.98</course>
  <speed>25.438883623303912</speed>
  <fix>3d</fix>
</trkpt>
<trkpt lat="-27.2664847" lon="151.290375">
  <ele>373.23</ele>
  <time>2026-09-01T19:57:47Z</time>
  <course>357.79</course>
  <speed>25.46</speed>
  <fix>3d</fix>
</trkpt>
<trkpt lat="-27.2664404" lon="151.2903731">
  <ele>373.09</ele>
  <time>2026-09-01T19:57:47Z</time>
  <course>356.99</course>
  <speed>25.438883623303912</speed>
  <fix>3d</fix>
</trkpt>
<trkpt lat="-27.2664847" lon="151.290375">
  <ele>373.23</ele>
  <time>2026-09-01T19:57:47Z</time>
  <course>357.79</course>
  <speed>25.46</speed>
  <fix>3d</fix>
</trkpt>
<trkpt lat="-27.2664175" lon="151.2903721">
  <ele>373.09</ele>
  <time>2026-09-01T19:57:47Z</time>
  <course>357.02</course>
  <speed>25.438883623303912</speed>
  <fix>3d</fix>
</trkpt>
<trkpt lat="-27.266439" lon="151.290373">
  <ele>373.23</ele>
  <time>2026-09-01T19:57:47Z</time>
  <course>357.79</course>
  <speed>25.46</speed>
  <fix>3d</fix>
</trkpt>
<trkpt lat="-27.2663947" lon="151.2903711">
  <ele>373.08</ele>
  <time>2026-09-01T19:57:47Z</time>
  <course>357.02</course>
  <speed>25.428891049355652</speed>
  <fix>3d</fix>
</trkpt>
<trkpt lat="-27.266439" lon="151.290373">
  <ele>373.23</ele>
  <time>2026-09-01T19:57:47Z</time>
  <course>357.79</course>
  <speed>25.46</speed>
  <fix>3d</fix>
</trkpt>
<trkpt lat="-27.266372" lon="151.2903701">
  <ele>373.08</ele>
  <time>2026-09-01T19:57:47Z</time>
  <course>356.99</course>
  <speed>25.428507624318026</speed>
  <fix>3d</fix>
</trkpt>
<trkpt lat="-27.2663933" lon="151.290371">
  <ele>373.23</ele>
  <time>2026-09-01T19:57:47Z</time>
  <course>357.81</course>
  <speed>25.46</speed>
  <fix>3d</fix>
</trkpt>
<trkpt lat="-27.2663492" lon="151.2903692">
  <ele>373.09</ele>
  <time>2026-09-01T19:57:47Z</time>
  <course>356.97</course>
  <speed>25.428507624318026</speed>
  <fix>3d</fix>
</trkpt>
<trkpt lat="-27.2663933" lon="151.290371">
  <ele>373.23</ele>
  <time>2026-09-01T19:57:47Z</time>
  <course>357.81</course>
  <speed>25.46</speed>
  <fix>3d</fix>
</trkpt>
<trkpt lat="-27.2663265" lon="151.2903682">
  <ele>373.09</ele>
  <time>2026-09-01T19:57:47Z</time>
  <course>356.96</course>
  <speed>25.41851490547786</speed>
  <fix>3d</fix>
</trkpt>
<trkpt lat="-27.2663476" lon="151.2903691">
  <ele>373.23</ele>
  <time>2026-09-01T19:57:47Z</time>
  <course>357.81</course>
  <speed>25.46</speed>
  <fix>3d</fix>
</trkpt>
<trkpt lat="-27.2663036" lon="151.2903672">
  <ele>373.09</ele>
  <time>2026-09-01T19:57:47Z</time>
  <course>357.0</course>
  <speed>25.41851490547786</speed>
  <fix>3d</fix>
</trkpt>
<trkpt lat="-27.2663476" lon="151.2903691">
  <ele>373.23</ele>
  <time>2026-09-01T19:57:47Z</time>
  <course>357.81</course>
  <speed>25.46</speed>
  <fix>3d</fix>
</trkpt>
<trkpt lat="-27.2662807" lon="151.2903662">
  <ele>373.09</ele>
  <time>2026-09-01T19:57:47Z</time>
  <course>357.04</course>
  <speed>25.41851490547786</speed>
  <fix>3d</fix>
</trkpt>
<trkpt lat="-27.2663019" lon="151.2903672">
  <ele>373.23</ele>
  <time>2026-09-01T19:57:47Z</time>
  <course>357.82</course>
  <speed>25.46</speed>
  <fix>3d</fix>
</trkpt>
<trkpt lat="-27.2662575" lon="151.2903652">
  <ele>373.1</ele>
  <time>2026-09-01T19:57:47Z</time>
  <course>357.03</course>
  <speed>25.42812812615195</speed>
  <fix>3d</fix>
</trkpt>
<trkpt lat="-27.2663019" lon="151.2903672">
  <ele>373.23</ele>
  <time>2026-09-01T19:57:47Z</time>
  <course>357.82</course>
  <speed>25.46</speed>
  <fix>3d</fix>
</trkpt>
<trkpt lat="-27.2662346" lon="151.2903643">
  <ele>373.1</ele>
  <time>2026-09-01T19:57:47Z</time>
  <course>357.02</course>
  <speed>25.438120999790844</speed>
  <fix>3d</fix>
</trkpt>
<trkpt lat="-27.2662562" lon="151.2903652">
  <ele>373.23</ele>
  <time>2026-09-01T19:57:47Z</time>
  <course>357.83</course>
  <speed>25.45</speed>
  <fix>3d</fix>
</trkpt>
<trkpt lat="-27.2662117" lon="151.2903633">
  <ele>373.1</ele>
  <time>2026-09-01T19:57:47Z</time>
  <course>357.03</course>
  <speed>25.438120999790844</speed>
  <fix>3d</fix>
</trkpt>
<trkpt lat="-27.2662562" lon="151.2903652">
  <ele>373.23</ele>
  <time>2026-09-01T19:57:47Z</time>
  <course>357.83</course>
  <speed>25.45</speed>
  <fix>3d</fix>
</trkpt>
<trkpt lat="-27.2661888" lon="151.2903623">
  <ele>373.1</ele>
  <time>2026-09-01T19:57:47Z</time>
  <course>357.04</course>
  <speed>25.44811387902844</speed>
  <fix>3d</fix>
</trkpt>
<trkpt lat="-27.2662105" lon="151.2903633">
  <ele>373.24</ele>
  <time>2026-09-01T19:57:47Z</time>
  <course>357.85</course>
  <speed>25.46</speed>
  <fix>3d</fix>
</trkpt>
<trkpt lat="-27.266166" lon="151.2903614">
  <ele>373.1</ele>
  <time>2026-09-01T19:57:47Z</time>
  <course>357.05</course>
  <speed>25.44811387902844</speed>
  <fix>3d</fix>
</trkpt>
<trkpt lat="-27.2662105" lon="151.2903633">
  <ele>373.24</ele>
  <time>2026-09-01T19:57:47Z</time>
  <course>357.85</course>
  <speed>25.46</speed>
  <fix>3d</fix>
</trkpt>
<trkpt lat="-27.2661431" lon="151.2903604">
  <ele>373.1</ele>
  <time>2026-09-01T19:57:47Z</time>
  <course>357.04</course>
  <speed>25.44773860287</speed>
  <fix>3d</fix>
</trkpt>
<trkpt lat="-27.2661647" lon="151.2903613">
  <ele>373.24</ele>
  <time>2026-09-01T19:57:47Z</time>
  <course>357.85</course>
  <speed>25.46</speed>
  <fix>3d</fix>
</trkpt>
<trkpt lat="-27.2661203" lon="151.2903594">
  <ele>373.1</ele>
  <time>2026-09-01T19:57:47Z</time>
  <course>357.06</course>
  <speed>25.44773860287</speed>
  <fix>3d</fix>
</trkpt>
<trkpt lat="-27.2661647" lon="151.2903613">
  <ele>373.24</ele>
  <time>2026-09-01T19:57:47Z</time>
  <course>357.85</course>
  <speed>25.46</speed>
  <fix>3d</fix>
</trkpt>
<trkpt lat="-27.2660974" lon="151.2903585">
  <ele>373.1</ele>
  <time>2026-09-01T19:57:47Z</time>
  <course>357.06</course>
  <speed>25.44773860287</speed>
  <fix>3d</fix>
</trkpt>
<trkpt lat="-27.2661189" lon="151.2903594">
  <ele>373.24</ele>
  <time>2026-09-01T19:57:47Z</time>
  <course>357.86</course>
  <speed>25.46</speed>
  <fix>3d</fix>
</trkpt>
<trkpt lat="-27.2660746" lon="151.2903575">
  <ele>373.1</ele>
  <time>2026-09-01T19:57:47Z</time>
  <course>357.04</course>
  <speed>25.45773163500629</speed>
  <fix>3d</fix>
</trkpt>
<trkpt lat="-27.2661189" lon="151.2903594">
  <ele>373.24</ele>
  <time>2026-09-01T19:57:47Z</time>
  <course>357.86</course>
  <speed>25.46</speed>
  <fix>3d</fix>
</trkpt>
<trkpt lat="-27.2660519" lon="151.2903566">
  <ele>373.1</ele>
  <time>2026-09-01T19:57:47Z</time>
  <course>357.08</course>
  <speed>25.45773163500629</speed>
  <fix>3d</fix>
</trkpt>
<trkpt lat="-27.2660732" lon="151.2903575">
  <ele>373.23</ele>
  <time>2026-09-01T19:57:47Z</time>
  <course>357.87</course>
  <speed>25.46</speed>
  <fix>3d</fix>
</trkpt>
<trkpt lat="-27.266029" lon="151.2903556">
  <ele>373.1</ele>
  <time>2026-09-01T19:57:47Z</time>
  <course>357.03</course>
  <speed>25.46772467261259</speed>
  <fix>3d</fix>
</trkpt>
<trkpt lat="-27.2660732" lon="151.2903575">
  <ele>373.23</ele>
  <time>2026-09-01T19:57:47Z</time>
  <course>357.87</course>
  <speed>25.46</speed>
  <fix>3d</fix>
</trkpt>
<trkpt lat="-27.2660061" lon="151.2903547">
  <ele>373.1</ele>
  <time>2026-09-01T19:57:47Z</time>
  <course>357.05</course>
  <speed>25.46772467261259</speed>
  <fix>3d</fix>
</trkpt>
<trkpt lat="-27.2660275" lon="151.2903556">
  <ele>373.23</ele>
  <time>2026-09-01T19:57:47Z</time>
  <course>357.87</course>
  <speed>25.47</speed>
  <fix>3d</fix>
</trkpt>
<trkpt lat="-27.2659832" lon="151.2903537">
  <ele>373.1</ele>
  <time>2026-09-01T19:57:47Z</time>
  <course>357.1</course>
  <speed>25.46772467261259</speed>
  <fix>3d</fix>
</trkpt>
<trkpt lat="-27.2660275" lon="151.2903556">
  <ele>373.23</ele>
  <time>2026-09-01T19:57:47Z</time>
  <course>357.87</course>
  <speed>25.47</speed>
  <fix>3d</fix>
</trkpt>
<trkpt lat="-27.2659601" lon="151.2903528">
  <ele>373.09</ele>
  <time>2026-09-01T19:57:47Z</time>
  <course>357.08</course>
  <speed>25.477346800638408</speed>
  <fix>3d</fix>
</trkpt>
<trkpt lat="-27.2659818" lon="151.2903537">
  <ele>373.24</ele>
  <time>2026-09-01T19:57:47Z</time>
  <course>357.88</course>
  <speed>25.47</speed>
  <fix>3d</fix>
</trkpt>
<trkpt lat="-27.2659372" lon="151.2903518">
  <ele>373.09</ele>
  <time>2026-09-01T19:57:47Z</time>
  <course>357.04</course>
  <speed>25.47771771568246</speed>
  <fix>3d</fix>
</trkpt>
<trkpt lat="-27.2659818" lon="151.2903537">
  <ele>373.24</ele>
  <time>2026-09-01T19:57:47Z</time>
  <course>357.88</course>
  <speed>25.47</speed>
  <fix>3d</fix>
</trkpt>
<trkpt lat="-27.2659143" lon="151.2903509">
  <ele>373.1</ele>
  <time>2026-09-01T19:57:47Z</time>
  <course>357.0</course>
  <speed>25.47771771568246</speed>
  <fix>3d</fix>
</trkpt>
<trkpt lat="-27.2659361" lon="151.2903518">
  <ele>373.24</ele>
  <time>2026-09-01T19:57:47Z</time>
  <course>357.87</course>
  <speed>25.46</speed>
  <fix>3d</fix>
</trkpt>
<trkpt lat="-27.2658915" lon="151.2903499">
  <ele>373.1</ele>
  <time>2026-09-01T19:57:47Z</time>
  <course>356.97</course>
  <speed>25.478092550267576</speed>
  <fix>3d</fix>
</trkpt>
<trkpt lat="-27.2659361" lon="151.2903518">
  <ele>373.24</ele>
  <time>2026-09-01T19:57:47Z</time>
  <course>357.87</course>
  <speed>25.46</speed>
  <fix>3d</fix>
</trkpt>
<trkpt lat="-27.2658686" lon="151.2903489">
  <ele>373.1</ele>
  <time>2026-09-01T19:57:47Z</time>
  <course>356.99</course>
  <speed>25.478471304220747</speed>
  <fix>3d</fix>
</trkpt>
<trkpt lat="-27.2658904" lon="151.2903499">
  <ele>373.24</ele>
  <time>2026-09-01T19:57:47Z</time>
  <course>357.85</course>
  <speed>25.46</speed>
  <fix>3d</fix>
</trkpt>
<trkpt lat="-27.2658457" lon="151.290348">
  <ele>373.1</ele>
  <time>2026-09-01T19:57:47Z</time>
  <course>356.95</course>
  <speed>25.478471304220747</speed>
  <fix>3d</fix>
</trkpt>
<trkpt lat="-27.2658904" lon="151.2903499">
  <ele>373.24</ele>
  <time>2026-09-01T19:57:47Z</time>
  <course>357.85</course>
  <speed>25.46</speed>
  <fix>3d</fix>
</trkpt>
<trkpt lat="-27.2658228" lon="151.290347">
  <ele>373.11</ele>
  <time>2026-09-01T19:57:47Z</time>
  <course>356.98</course>
  <speed>25.478853977367194</speed>
  <fix>3d</fix>
</trkpt>
<trkpt lat="-27.2658447" lon="151.2903479">
  <ele>373.24</ele>
  <time>2026-09-01T19:57:47Z</time>
  <course>357.82</course>
  <speed>25.46</speed>
  <fix>3d</fix>
</trkpt>
<trkpt lat="-27.2657999" lon="151.290346">
  <ele>373.12</ele>
  <time>2026-09-01T19:57:47Z</time>
  <course>357.0</course>
  <speed>25.478853977367194</speed>
  <fix>3d</fix>
</trkpt>
<trkpt lat="-27.2658447" lon="151.2903479">
  <ele>373.24</ele>
  <time>2026-09-01T19:57:47Z</time>
  <course>357.82</course>
  <speed>25.46</speed>
  <fix>3d</fix>
</trkpt>
<trkpt lat="-27.265777" lon="151.290345">
  <ele>373.12</ele>
  <time>2026-09-01T19:57:47Z</time>
  <course>356.94</course>
  <speed>25.479240569530326</speed>
  <fix>3d</fix>
</trkpt>
<trkpt lat="-27.265799" lon="151.290346">
  <ele>373.25</ele>
  <time>2026-09-01T19:57:47Z</time>
  <course>357.79</course>
  <speed>25.46</speed>
  <fix>3d</fix>
</trkpt>
<trkpt lat="-27.2657542" lon="151.290344">
  <ele>373.13</ele>
  <time>2026-09-01T19:57:47Z</time>
  <course>356.93</course>
  <speed>25.46963878817287</speed>
  <fix>3d</fix>
</trkpt>
<trkpt lat="-27.265799" lon="151.290346">
  <ele>373.25</ele>
  <time>2026-09-01T19:57:47Z</time>
  <course>357.79</course>
  <speed>25.46</speed>
  <fix>3d</fix>
</trkpt>
<trkpt lat="-27.2657313" lon="151.290343">
  <ele>373.13</ele>
  <time>2026-09-01T19:57:47Z</time>
  <course>356.95</course>
  <speed>25.46963878817287</speed>
  <fix>3d</fix>
</trkpt>
<trkpt lat="-27.2657533" lon="151.290344">
  <ele>373.26</ele>
  <time>2026-09-01T19:57:47Z</time>
  <course>357.77</course>
  <speed>25.45</speed>
  <fix>3d</fix>
</trkpt>
<trkpt lat="-27.2657084" lon="151.290342">
  <ele>373.14</ele>
  <time>2026-09-01T19:57:47Z</time>
  <course>357.01</course>
  <speed>25.479631080531757</speed>
  <fix>3d</fix>
</trkpt>
<trkpt lat="-27.2657533" lon="151.290344">
  <ele>373.26</ele>
  <time>2026-09-01T19:57:47Z</time>
  <course>357.77</course>
  <speed>25.45</speed>
  <fix>3d</fix>
</trkpt>
<trkpt lat="-27.2656856" lon="151.290341">
  <ele>373.14</ele>
  <time>2026-09-01T19:57:47Z</time>
  <course>357.0</course>
  <speed>25.46963878817287</speed>
  <fix>3d</fix>
</trkpt>
<trkpt lat="-27.2657076" lon="151.290342">
  <ele>373.27</ele>
  <time>2026-09-01T19:57:47Z</time>
  <course>357.76</course>
  <speed>25.44</speed>
  <fix>3d</fix>
</trkpt>
<trkpt lat="-27.2656627" lon="151.29034">
  <ele>373.15</ele>
  <time>2026-09-01T19:57:47Z</time>
  <course>356.96</course>
  <speed>25.46963878817287</speed>
  <fix>3d</fix>
</trkpt>
<trkpt lat="-27.2657076" lon="151.290342">
  <ele>373.27</ele>
  <time>2026-09-01T19:57:47Z</time>
  <course>357.76</course>
  <speed>25.44</speed>
  <fix>3d</fix>
</trkpt>
<trkpt lat="-27.2656397" lon="151.290339">
  <ele>373.15</ele>
  <time>2026-09-01T19:57:47Z</time>
  <course>356.95</course>
  <speed>25.46963878817287</speed>
  <fix>3d</fix>
</trkpt>
<trkpt lat="-27.2656618" lon="151.2903399">
  <ele>373.28</ele>
  <time>2026-09-01T19:57:47Z</time>
  <course>357.75</course>
  <speed>25.44</speed>
  <fix>3d</fix>
</trkpt>
<trkpt lat="-27.2656168" lon="151.290338">
  <ele>373.15</ele>
  <time>2026-09-01T19:57:47Z</time>
  <course>356.97</course>
  <speed>25.46963878817287</speed>
  <fix>3d</fix>
</trkpt>
<trkpt lat="-27.2656618" lon="151.2903399">
  <ele>373.28</ele>
  <time>2026-09-01T19:57:47Z</time>
  <course>357.75</course>
  <speed>25.44</speed>
  <fix>3d</fix>
</trkpt>
<trkpt lat="-27.265594" lon="151.2903369">
  <ele>373.16</ele>
  <time>2026-09-01T19:57:47Z</time>
  <course>356.99</course>
  <speed>25.459646501866438</speed>
  <fix>3d</fix>
</trkpt>
<trkpt lat="-27.2656161" lon="151.290338">
  <ele>373.29</ele>
  <time>2026-09-01T19:57:47Z</time>
  <course>357.76</course>
  <speed>25.43</speed>
  <fix>3d</fix>
</trkpt>
<trkpt lat="-27.2655713" lon="151.2903359">
  <ele>373.16</ele>
  <time>2026-09-01T19:57:47Z</time>
  <course>356.98</course>
  <speed>25.459646501866438</speed>
  <fix>3d</fix>
</trkpt>
<trkpt lat="-27.2656161" lon="151.290338">
  <ele>373.29</ele>
  <time>2026-09-01T19:57:47Z</time>
  <course>357.76</course>
  <speed>25.43</speed>
  <fix>3d</fix>
</trkpt>
<trkpt lat="-27.2655484" lon="151.2903349">
  <ele>373.16</ele>
  <time>2026-09-01T19:57:47Z</time>
  <course>356.94</course>
  <speed>25.459646501866438</speed>
  <fix>3d</fix>
</trkpt>
<trkpt lat="-27.2655705" lon="151.290336">
  <ele>373.29</ele>
  <time>2026-09-01T19:57:47Z</time>
  <course>357.77</course>
  <speed>25.43</speed>
  <fix>3d</fix>
</trkpt>
<trkpt lat="-27.2655255" lon="151.2903339">
  <ele>373.16</ele>
  <time>2026-09-01T19:57:47Z</time>
  <course>356.99</course>
  <speed>25.46963878817287</speed>
  <fix>3d</fix>
</trkpt>
<trkpt lat="-27.2655705" lon="151.290336">
  <ele>373.29</ele>
  <time>2026-09-01T19:57:47Z</time>
  <course>357.77</course>
  <speed>25.43</speed>
  <fix>3d</fix>
</trkpt>
<trkpt lat="-27.2655026" lon="151.2903329">
  <ele>373.17</ele>
  <time>2026-09-01T19:57:47Z</time>
  <course>357.01</course>
  <speed>25.46963878817287</speed>
  <fix>3d</fix>
</trkpt>
<trkpt lat="-27.2655249" lon="151.290334">
  <ele>373.29</ele>
  <time>2026-09-01T19:57:47Z</time>
  <course>357.77</course>
  <speed>25.42</speed>
  <fix>3d</fix>
</trkpt>
<trkpt lat="-27.2654796" lon="151.2903319">
  <ele>373.17</ele>
  <time>2026-09-01T19:57:47Z</time>
  <course>356.98</course>
  <speed>25.46963878817287</speed>
  <fix>3d</fix>
</trkpt>
<trkpt lat="-27.2655249" lon="151.290334">
  <ele>373.29</ele>
  <time>2026-09-01T19:57:47Z</time>
  <course>357.77</course>
  <speed>25.42</speed>
  <fix>3d</fix>
</trkpt>
<trkpt lat="-27.2654567" lon="151.2903309">
  <ele>373.17</ele>
  <time>2026-09-01T19:57:47Z</time>
  <course>356.98</course>
  <speed>25.46963878817287</speed>
  <fix>3d</fix>
</trkpt>
<trkpt lat="-27.2654792" lon="151.2903319">
  <ele>373.29</ele>
  <time>2026-09-01T19:57:47Z</time>
  <course>357.78</course>
  <speed>25.42</speed>
  <fix>3d</fix>
</trkpt>
<trkpt lat="-27.2654339" lon="151.2903299">
  <ele>373.18</ele>
  <time>2026-09-01T19:57:47Z</time>
  <course>357.03</course>
  <speed>25.469248123963144</speed>
  <fix>3d</fix>
</trkpt>
<trkpt lat="-27.2654792" lon="151.2903319">
  <ele>373.29</ele>
  <time>2026-09-01T19:57:47Z</time>
  <course>357.78</course>
  <speed>25.42</speed>
  <fix>3d</fix>
</trkpt>
<trkpt lat="-27.2654111" lon="151.2903289">
  <ele>373.18</ele>
  <time>2026-09-01T19:57:47Z</time>
  <course>357.03</course>
  <speed>25.459255684328244</speed>
  <fix>3d</fix>
</trkpt>
<trkpt lat="-27.2654336" lon="151.2903299">
  <ele>373.3</ele>
  <time>2026-09-01T19:57:47Z</time>
  <course>357.78</course>
  <speed>25.42</speed>
  <fix>3d</fix>
</trkpt>
<trkpt lat="-27.2653884" lon="151.290328">
  <ele>373.18</ele>
  <time>2026-09-01T19:57:47Z</time>
  <course>356.96</course>
  <speed>25.449263250632622</speed>
  <fix>3d</fix>
</trkpt>
<trkpt lat="-27.2654336" lon="151.2903299">
  <ele>373.3</ele>
  <time>2026-09-01T19:57:47Z</time>
  <course>357.78</course>
  <speed>25.42</speed>
  <fix>3d</fix>
</trkpt>
<trkpt lat="-27.2653657" lon="151.290327">
  <ele>373.18</ele>
  <time>2026-09-01T19:57:47Z</time>
  <course>356.96</course>
  <speed>25.449263250632622</speed>
  <fix>3d</fix>
</trkpt>
<trkpt lat="-27.265388" lon="151.290328">
  <ele>373.3</ele>
  <time>2026-09-01T19:57:47Z</time>
  <course>357.78</course>
  <speed>25.41</speed>
  <fix>3d</fix>
</trkpt>
<trkpt lat="-27.2653429" lon="151.290326">
  <ele>373.19</ele>
  <time>2026-09-01T19:57:47Z</time>
  <course>356.99</course>
  <speed>25.439661947439475</speed>
  <fix>3d</fix>
</trkpt>
<trkpt lat="-27.265388" lon="151.290328">
  <ele>373.3</ele>
  <time>2026-09-01T19:57:47Z</time>
  <course>357.78</course>
  <speed>25.41</speed>
  <fix>3d</fix>
</trkpt>
<trkpt lat="-27.26532" lon="151.290325">
  <ele>373.19</ele>
  <time>2026-09-01T19:57:47Z</time>
  <course>356.97</course>
  <speed>25.439661947439475</speed>
  <fix>3d</fix>
</trkpt>
<trkpt lat="-27.2653424" lon="151.290326">
  <ele>373.31</ele>
  <time>2026-09-01T19:57:47Z</time>
  <course>357.78</course>
  <speed>25.41</speed>
  <fix>3d</fix>
</trkpt>
<trkpt lat="-27.2652972" lon="151.290324">
  <ele>373.19</ele>
  <time>2026-09-01T19:57:47Z</time>
  <course>356.98</course>
  <speed>25.43927082288327</speed>
  <fix>3d</fix>
</trkpt>
<trkpt lat="-27.2653424" lon="151.290326">
  <ele>373.31</ele>
  <time>2026-09-01T19:57:47Z</time>
  <course>357.78</course>
  <speed>25.41</speed>
  <fix>3d</fix>
</trkpt>
<trkpt lat="-27.2652743" lon="151.290323">
  <ele>373.19</ele>
  <time>2026-09-01T19:57:47Z</time>
  <course>356.97</course>
  <speed>25.439661947439475</speed>
  <fix>3d</fix>
</trkpt>
<trkpt lat="-27.2652968" lon="151.290324">
  <ele>373.31</ele>
  <time>2026-09-01T19:57:47Z</time>
  <course>357.78</course>
  <speed>25.4</speed>
  <fix>3d</fix>
</trkpt>
<trkpt lat="-27.2652514" lon="151.290322">
  <ele>373.19</ele>
  <time>2026-09-01T19:57:47Z</time>
  <course>357.0</course>
  <speed>25.439661947439475</speed>
  <fix>3d</fix>
</trkpt>
<trkpt lat="-27.2652968" lon="151.290324">
  <ele>373.31</ele>
  <time>2026-09-01T19:57:47Z</time>
  <course>357.78</course>
  <speed>25.4</speed>
  <fix>3d</fix>
</trkpt>
<trkpt lat="-27.2652285" lon="151.290321">
  <ele>373.18</ele>
  <time>2026-09-01T19:57:47Z</time>
  <course>356.99</course>
  <speed>25.449654221619593</speed>
  <fix>3d</fix>
</trkpt>
<trkpt lat="-27.2652511" lon="151.2903221">
  <ele>373.3</ele>
  <time>2026-09-01T19:57:47Z</time>
  <course>357.78</course>
  <speed>25.4</speed>
  <fix>3d</fix>
</trkpt>
<trkpt lat="-27.2652056" lon="151.29032">
  <ele>373.18</ele>
  <time>2026-09-01T19:57:47Z</time>
  <course>357.0</course>
  <speed>25.449654221619593</speed>
  <fix>3d</fix>
</trkpt>
<trkpt lat="-27.2652511" lon="151.2903221">
  <ele>373.3</ele>
  <time>2026-09-01T19:57:47Z</time>
  <course>357.78</course>
  <speed>25.4</speed>
  <fix>3d</fix>
</trkpt>
<trkpt lat="-27.2651827" lon="151.290319">
  <ele>373.18</ele>
  <time>2026-09-01T19:57:47Z</time>
  <course>356.96</course>
  <speed>25.449654221619593</speed>
  <fix>3d</fix>
</trkpt>
<trkpt lat="-27.2652054" lon="151.2903201">
  <ele>373.3</ele>
  <time>2026-09-01T19:57:47Z</time>
  <course>357.77</course>
  <speed>25.4</speed>
  <fix>3d</fix>
</trkpt>
<trkpt lat="-27.26516" lon="151.290318">
  <ele>373.18</ele>
  <time>2026-09-01T19:57:47Z</time>
  <course>356.96</course>
  <speed>25.440056996791494</speed>
  <fix>3d</fix>
</trkpt>
<trkpt lat="-27.2652054" lon="151.2903201">
  <ele>373.3</ele>
  <time>2026-09-01T19:57:47Z</time>
  <course>357.77</course>
  <speed>25.4</speed>
  <fix>3d</fix>
</trkpt>
<trkpt lat="-27.2651372" lon="151.290317">
  <ele>373.18</ele>
  <time>2026-09-01T19:57:47Z</time>
  <course>356.97</course>
  <speed>25.440056996791494</speed>
  <fix>3d</fix>
</trkpt>
<trkpt lat="-27.2651598" lon="151.290318">
  <ele>373.29</ele>
  <time>2026-09-01T19:57:47Z</time>
  <course>357.76</course>
  <speed>25.4</speed>
  <fix>3d</fix>
</trkpt>
<trkpt lat="-27.2651145" lon="151.290316">
  <ele>373.18</ele>
  <time>2026-09-01T19:57:47Z</time>
  <course>356.97</course>
  <speed>25.440056996791494</speed>
  <fix>3d</fix>
</trkpt>
<trkpt lat="-27.2651598" lon="151.290318">
  <ele>373.29</ele>
  <time>2026-09-01T19:57:47Z</time>
  <course>357.76</course>
  <speed>25.4</speed>
  <fix>3d</fix>
</trkpt>
<trkpt lat="-27.2650918" lon="151.290315">
  <ele>373.18</ele>
  <time>2026-09-01T19:57:47Z</time>
  <course>356.96</course>
  <speed>25.440056996791494</speed>
  <fix>3d</fix>
</trkpt>
<trkpt lat="-27.2651142" lon="151.290316">
  <ele>373.29</ele>
  <time>2026-09-01T19:57:47Z</time>
  <course>357.75</course>
  <speed>25.4</speed>
  <fix>3d</fix>
</trkpt>
<trkpt lat="-27.2650691" lon="151.290314">
  <ele>373.17</ele>
  <time>2026-09-01T19:57:47Z</time>
  <course>356.9</course>
  <speed>25.430064883912504</speed>
  <fix>3d</fix>
</trkpt>
<trkpt lat="-27.2651142" lon="151.290316">
  <ele>373.29</ele>
  <time>2026-09-01T19:57:47Z</time>
  <course>357.75</course>
  <speed>25.4</speed>
  <fix>3d</fix>
</trkpt>
<trkpt lat="-27.2650464" lon="151.290313">
  <ele>373.17</ele>
  <time>2026-09-01T19:57:47Z</time>
  <course>356.92</course>
  <speed>25.430064883912504</speed>
  <fix>3d</fix>
</trkpt>
<trkpt lat="-27.2650686" lon="151.2903141">
  <ele>373.28</ele>
  <time>2026-09-01T19:57:47Z</time>
  <course>357.75</course>
  <speed>25.4</speed>
  <fix>3d</fix>
</trkpt>
<trkpt lat="-27.2650238" lon="151.290312">
  <ele>373.16</ele>
  <time>2026-09-01T19:57:47Z</time>
  <course>356.97</course>
  <speed>25.420072777236495</speed>
  <fix>3d</fix>
</trkpt>
<trkpt lat="-27.2650686" lon="151.2903141">
  <ele>373.28</ele>
  <time>2026-09-01T19:57:47Z</time>
  <course>357.75</course>
  <speed>25.4</speed>
  <fix>3d</fix>
</trkpt>
<trkpt lat="-27.2650009" lon="151.2903109">
  <ele>373.16</ele>
  <time>2026-09-01T19:57:47Z</time>
  <course>357.01</course>
  <speed>25.420072777236495</speed>
  <fix>3d</fix>
</trkpt>
<trkpt lat="-27.265023" lon="151.290312">
  <ele>373.26</ele>
  <time>2026-09-01T19:57:47Z</time>
  <course>357.75</course>
  <speed>25.4</speed>
  <fix>3d</fix>
</trkpt>
<trkpt lat="-27.2649782" lon="151.29031">
  <ele>373.16</ele>
  <time>2026-09-01T19:57:47Z</time>
  <course>357.01</course>
  <speed>25.419677417308034</speed>
  <fix>3d</fix>
</trkpt>
<trkpt lat="-27.265023" lon="151.290312">
  <ele>373.26</ele>
  <time>2026-09-01T19:57:47Z</time>
  <course>357.75</course>
  <speed>25.4</speed>
  <fix>3d</fix>
</trkpt>
<trkpt lat="-27.2649555" lon="151.290309">
  <ele>373.15</ele>
  <time>2026-09-01T19:57:47Z</time>
  <course>357.02</course>
  <speed>25.419285985251435</speed>
  <fix>3d</fix>
</trkpt>
<trkpt lat="-27.2649774" lon="151.2903099">
  <ele>373.25</ele>
  <time>2026-09-01T19:57:47Z</time>
  <course>357.77</course>
  <speed>25.41</speed>
  <fix>3d</fix>
</trkpt>
<trkpt lat="-27.2649327" lon="151.290308">
  <ele>373.15</ele>
  <time>2026-09-01T19:57:47Z</time>
  <course>356.98</course>
  <speed>25.41889848124816</speed>
  <fix>3d</fix>
</trkpt>
<trkpt lat="-27.2649774" lon="151.2903099">
  <ele>373.25</ele>
  <time>2026-09-01T19:57:47Z</time>
  <course>357.77</course>
  <speed>25.41</speed>
  <fix>3d</fix>
</trkpt>
<trkpt lat="-27.2649098" lon="151.290307">
  <ele>373.15</ele>
  <time>2026-09-01T19:57:47Z</time>
  <course>356.98</course>
  <speed>25.41889848124816</speed>
  <fix>3d</fix>
</trkpt>
<trkpt lat="-27.2649318" lon="151.290308">
  <ele>373.25</ele>
  <time>2026-09-01T19:57:47Z</time>
  <course>357.81</course>
  <speed>25.41</speed>
  <fix>3d</fix>
</trkpt>
<trkpt lat="-27.264887" lon="151.290306">
  <ele>373.14</ele>
  <time>2026-09-01T19:57:47Z</time>
  <course>357.02</course>
  <speed>25.41851490547786</speed>
  <fix>3d</fix>
</trkpt>
<trkpt lat="-27.2649318" lon="151.290308">
  <ele>373.25</ele>
  <time>2026-09-01T19:57:47Z</time>
  <course>357.81</course>
  <speed>25.41</speed>
  <fix>3d</fix>
</trkpt>
<trkpt lat="-27.2648642" lon="151.290305">
  <ele>373.14</ele>
  <time>2026-09-01T19:57:47Z</time>
  <course>357.04</course>
  <speed>25.41851490547786</speed>
  <fix>3d</fix>
</trkpt>
<trkpt lat="-27.2648862" lon="151.2903061">
  <ele>373.24</ele>
  <time>2026-09-01T19:57:47Z</time>
  <course>357.82</course>
  <speed>25.41</speed>
  <fix>3d</fix>
</trkpt>
<trkpt lat="-27.2648414" lon="151.2903041">
  <ele>373.14</ele>
  <time>2026-09-01T19:57:47Z</time>
  <course>357.05</course>
  <speed>25.41851490547786</speed>
  <fix>3d</fix>
</trkpt>
<trkpt lat="-27.2648862" lon="151.2903061">
  <ele>373.24</ele>
  <time>2026-09-01T19:57:47Z</time>
  <course>357.82</course>
  <speed>25.41</speed>
  <fix>3d</fix>
</trkpt>
<trkpt lat="-27.2648187" lon="151.2903031">
  <ele>373.13</ele>
  <time>2026-09-01T19:57:47Z</time>
  <course>357.07</course>
  <speed>25.428507624318026</speed>
  <fix>3d</fix>
</trkpt>
<trkpt lat="-27.2648406" lon="151.2903041">
  <ele>373.23</ele>
  <time>2026-09-01T19:57:47Z</time>
  <course>357.84</course>
  <speed>25.42</speed>
  <fix>3d</fix>
</trkpt>
<trkpt lat="-27.2647959" lon="151.2903022">
  <ele>373.13</ele>
  <time>2026-09-01T19:57:47Z</time>
  <course>357.09</course>
  <speed>25.42812812615195</speed>
  <fix>3d</fix>
</trkpt>
<trkpt lat="-27.2648406" lon="151.2903041">
  <ele>373.23</ele>
  <time>2026-09-01T19:57:47Z</time>
  <course>357.84</course>
  <speed>25.42</speed>
  <fix>3d</fix>
</trkpt>
<trkpt lat="-27.2647731" lon="151.2903012">
  <ele>373.13</ele>
  <time>2026-09-01T19:57:47Z</time>
  <course>357.05</course>
  <speed>25.42812812615195</speed>
  <fix>3d</fix>
</trkpt>
<trkpt lat="-27.264795" lon="151.2903022">
  <ele>373.23</ele>
  <time>2026-09-01T19:57:47Z</time>
  <course>357.86</course>
  <speed>25.42</speed>
  <fix>3d</fix>
</trkpt>
<trkpt lat="-27.2647503" lon="151.2903002">
  <ele>373.13</ele>
  <time>2026-09-01T19:57:47Z</time>
  <course>357.05</course>
  <speed>25.427752555033248</speed>
  <fix>3d</fix>
</trkpt>
<trkpt lat="-27.264795" lon="151.2903022">
  <ele>373.23</ele>
  <time>2026-09-01T19:57:47Z</time>
  <course>357.86</course>
  <speed>25.42</speed>
  <fix>3d</fix>
</trkpt>
<trkpt lat="-27.2647275" lon="151.2902993">
  <ele>373.12</ele>
  <time>2026-09-01T19:57:47Z</time>
  <course>357.03</course>
  <speed>25.42812812615195</speed>
  <fix>3d</fix>
</trkpt>
<trkpt lat="-27.2647492" lon="151.2903003">
  <ele>373.23</ele>
  <time>2026-09-01T19:57:47Z</time>
  <course>357.86</course>
  <speed>25.43</speed>
  <fix>3d</fix>
</trkpt>
<trkpt lat="-27.2647047" lon="151.2902983">
  <ele>373.12</ele>
  <time>2026-09-01T19:57:47Z</time>
  <course>357.06</course>
  <speed>25.43774557621017</speed>
  <fix>3d</fix>
</trkpt>
<trkpt lat="-27.2647492" lon="151.2903003">
  <ele>373.23</ele>
  <time>2026-09-01T19:57:47Z</time>
  <course>357.86</course>
  <speed>25.43</speed>
  <fix>3d</fix>
</trkpt>
<trkpt lat="-27.2646818" lon="151.2902974">
  <ele>373.12</ele>
  <time>2026-09-01T19:57:47Z</time>
  <course>357.05</course>
  <speed>25.43774557621017</speed>
  <fix>3d</fix>
</trkpt>
<trkpt lat="-27.2647035" lon="151.2902984">
  <ele>373.22</ele>
  <time>2026-09-01T19:57:47Z</time>
  <course>357.86</course>
  <speed>25.43</speed>
  <fix>3d</fix>
</trkpt>
<trkpt lat="-27.264659" lon="151.2902964">
  <ele>373.12</ele>
  <time>2026-09-01T19:57:47Z</time>
  <course>357.03</course>
  <speed>25.43774557621017</speed>
  <fix>3d</fix>
</trkpt>
<trkpt lat="-27.2647035" lon="151.2902984">
  <ele>373.22</ele>
  <time>2026-09-01T19:57:47Z</time>
  <course>357.86</course>
  <speed>25.43</speed>
  <fix>3d</fix>
</trkpt>
<trkpt lat="-27.2646361" lon="151.2902955">
  <ele>373.12</ele>
  <time>2026-09-01T19:57:47Z</time>
  <course>357.06</course>
  <speed>25.44811387902844</speed>
  <fix>3d</fix>
</trkpt>
<trkpt lat="-27.2646578" lon="151.2902965">
  <ele>373.22</ele>
  <time>2026-09-01T19:57:47Z</time>
  <course>357.86</course>
  <speed>25.43</speed>
  <fix>3d</fix>
</trkpt>
<trkpt lat="-27.2646133" lon="151.2902945">
  <ele>373.11</ele>
  <time>2026-09-01T19:57:47Z</time>
  <course>357.12</course>
  <speed>25.44811387902844</speed>
  <fix>3d</fix>
</trkpt>
<trkpt lat="-27.2646578" lon="151.2902965">
  <ele>373.22</ele>
  <time>2026-09-01T19:57:47Z</time>
  <course>357.86</course>
  <speed>25.43</speed>
  <fix>3d</fix>
</trkpt>
<trkpt lat="-27.2645904" lon="151.2902936">
  <ele>373.11</ele>
  <time>2026-09-01T19:57:47Z</time>
  <course>357.17</course>
  <speed>25.44773860287</speed>
  <fix>3d</fix>
</trkpt>
<trkpt lat="-27.2646122" lon="151.2902945">
  <ele>373.21</ele>
  <time>2026-09-01T19:57:47Z</time>
  <course>357.87</course>
  <speed>25.44</speed>
  <fix>3d</fix>
</trkpt>
<trkpt lat="-27.2645676" lon="151.2902926">
  <ele>373.1</ele>
  <time>2026-09-01T19:57:47Z</time>
  <course>357.13</course>
  <speed>25.45773163500629</speed>
  <fix>3d</fix>
</trkpt>
<trkpt lat="-27.2646122" lon="151.2902945">
  <ele>373.21</ele>
  <time>2026-09-01T19:57:47Z</time>
  <course>357.87</course>
  <speed>25.44</speed>
  <fix>3d</fix>
</trkpt>
<trkpt lat="-27.2645447" lon="151.2902917">
  <ele>373.09</ele>
  <time>2026-09-01T19:57:47Z</time>
  <course>357.1</course>
  <speed>25.45773163500629</speed>
  <fix>3d</fix>
</trkpt>
<trkpt lat="-27.2645665" lon="151.2902927">
  <ele>373.2</ele>
  <time>2026-09-01T19:57:47Z</time>
  <course>357.88</course>
  <speed>25.44</speed>
  <fix>3d</fix>
</trkpt>
<trkpt lat="-27.264522" lon="151.2902907">
  <ele>373.09</ele>
  <time>2026-09-01T19:57:47Z</time>
  <course>357.07</course>
  <speed>25.45773163500629</speed>
  <fix>3d</fix>
</trkpt>
<trkpt lat="-27.2645665" lon="151.2902927">
  <ele>373.2</ele>
  <time>2026-09-01T19:57:47Z</time>
  <course>357.88</course>
  <speed>25.44</speed>
  <fix>3d</fix>
</trkpt>
<trkpt lat="-27.2644991" lon="151.2902898">
  <ele>373.08</ele>
  <time>2026-09-01T19:57:47Z</time>
  <course>357.03</course>
  <speed>25.46772467261259</speed>
  <fix>3d</fix>
</trkpt>
<trkpt lat="-27.2645208" lon="151.2902908">
  <ele>373.19</ele>
  <time>2026-09-01T19:57:47Z</time>
  <course>357.88</course>
  <speed>25.45</speed>
  <fix>3d</fix>
</trkpt>
<trkpt lat="-27.2644763" lon="151.2902888">
  <ele>373.08</ele>
  <time>2026-09-01T19:57:47Z</time>
  <course>357.04</course>
  <speed>25.468099654273384</speed>
  <fix>3d</fix>
</trkpt>
<trkpt lat="-27.2645208" lon="151.2902908">
  <ele>373.19</ele>
  <time>2026-09-01T19:57:47Z</time>
  <course>357.88</course>
  <speed>25.45</speed>
  <fix>3d</fix>
</trkpt>
<trkpt lat="-27.2644534" lon="151.2902879">
  <ele>373.07</ele>
  <time>2026-09-01T19:57:47Z</time>
  <course>357.03</course>
  <speed>25.468478556835702</speed>
  <fix>3d</fix>
</trkpt>
<trkpt lat="-27.2644751" lon="151.2902889">
  <ele>373.19</ele>
  <time>2026-09-01T19:57:47Z</time>
  <course>357.86</course>
  <speed>25.45</speed>
  <fix>3d</fix>
</trkpt>
<trkpt lat="-27.2644303" lon="151.2902869">
  <ele>373.07</ele>
  <time>2026-09-01T19:57:47Z</time>
  <course>357.03</course>
  <speed>25.468478556835702</speed>
  <fix>3d</fix>
</trkpt>
<trkpt lat="-27.2644751" lon="151.2902889">
  <ele>373.19</ele>
  <time>2026-09-01T19:57:47Z</time>
  <course>357.86</course>
  <speed>25.45</speed>
  <fix>3d</fix>
</trkpt>
<trkpt lat="-27.2644075" lon="151.2902859">
  <ele>373.07</ele>
  <time>2026-09-01T19:57:47Z</time>
  <course>357.02</course>
  <speed>25.468861380124554</speed>
  <fix>3d</fix>
</trkpt>
<trkpt lat="-27.2644295" lon="151.2902869">
  <ele>373.19</ele>
  <time>2026-09-01T19:57:47Z</time>
  <course>357.82</course>
  <speed>25.45</speed>
  <fix>3d</fix>
</trkpt>
<trkpt lat="-27.2643846" lon="151.2902849">
  <ele>373.07</ele>
  <time>2026-09-01T19:57:47Z</time>
  <course>357.0</course>
  <speed>25.479240569530326</speed>
  <fix>3d</fix>
</trkpt>
<trkpt lat="-27.2644295" lon="151.2902869">
  <ele>373.19</ele>
  <time>2026-09-01T19:57:47Z</time>
  <course>357.82</course>
  <speed>25.45</speed>
  <fix>3d</fix>
</trkpt>
<trkpt lat="-27.2643616" lon="151.2902839">
  <ele>373.07</ele>
  <time>2026-09-01T19:57:47Z</time>
  <course>356.99</course>
  <speed>25.479240569530326</speed>
  <fix>3d</fix>
</trkpt>
<trkpt lat="-27.2643838" lon="151.2902849">
  <ele>373.19</ele>
  <time>2026-09-01T19:57:47Z</time>
  <course>357.79</course>
  <speed>25.45</speed>
  <fix>3d</fix>
</trkpt>
<trkpt lat="-27.2643387" lon="151.2902829">
  <ele>373.07</ele>
  <time>2026-09-01T19:57:47Z</time>
  <course>356.98</course>
  <speed>25.479631080531757</speed>
  <fix>3d</fix>
</trkpt>
<trkpt lat="-27.2643838" lon="151.2902849">
  <ele>373.19</ele>
  <time>2026-09-01T19:57:47Z</time>
  <course>357.79</course>
  <speed>25.45</speed>
  <fix>3d</fix>
</trkpt>
<trkpt lat="-27.2643158" lon="151.2902819">
  <ele>373.07</ele>
  <time>2026-09-01T19:57:47Z</time>
  <course>356.96</course>
  <speed>25.479631080531757</speed>
  <fix>3d</fix>
</trkpt>
<trkpt lat="-27.2643381" lon="151.2902829">
  <ele>373.19</ele>
  <time>2026-09-01T19:57:47Z</time>
  <course>357.77</course>
  <speed>25.46</speed>
  <fix>3d</fix>
</trkpt>
<trkpt lat="-27.264293" lon="151.2902809">
  <ele>373.07</ele>
  <time>2026-09-01T19:57:47Z</time>
  <course>356.94</course>
  <speed>25.479631080531757</speed>
  <fix>3d</fix>
</trkpt>
<trkpt lat="-27.2643381" lon="151.2902829">
  <ele>373.19</ele>
  <time>2026-09-01T19:57:47Z</time>
  <course>357.77</course>
  <speed>25.46</speed>
  <fix>3d</fix>
</trkpt>
<trkpt lat="-27.2642701" lon="151.2902799">
  <ele>373.07</ele>
  <time>2026-09-01T19:57:47Z</time>
  <course>357.0</course>
  <speed>25.48002551019131</speed>
  <fix>3d</fix>
</trkpt>
<trkpt lat="-27.2642923" lon="151.290281">
  <ele>373.19</ele>
  <time>2026-09-01T19:57:47Z</time>
  <course>357.76</course>
  <speed>25.45</speed>
  <fix>3d</fix>
</trkpt>
<trkpt lat="-27.2642472" lon="151.2902789">
  <ele>373.07</ele>
  <time>2026-09-01T19:57:47Z</time>
  <course>357.04</course>
  <speed>25.48002551019131</speed>
  <fix>3d</fix>
</trkpt>
<trkpt lat="-27.2642923" lon="151.290281">
  <ele>373.19</ele>
  <time>2026-09-01T19:57:47Z</time>
  <course>357.76</course>
  <speed>25.45</speed>
  <fix>3d</fix>
</trkpt>
<trkpt lat="-27.2642243" lon="151.2902779">
  <ele>373.06</ele>
  <time>2026-09-01T19:57:47Z</time>
  <course>357.05</course>
  <speed>25.479631080531757</speed>
  <fix>3d</fix>
</trkpt>
<trkpt lat="-27.2642465" lon="151.290279">
  <ele>373.19</ele>
  <time>2026-09-01T19:57:47Z</time>
  <course>357.75</course>
  <speed>25.45</speed>
  <fix>3d</fix>
</trkpt>
<trkpt lat="-27.2642014" lon="151.2902769">
  <ele>373.07</ele>
  <time>2026-09-01T19:57:47Z</time>
  <course>357.02</course>
  <speed>25.479631080531757</speed>
  <fix>3d</fix>
</trkpt>
<trkpt lat="-27.2642465" lon="151.290279">
  <ele>373.19</ele>
  <time>2026-09-01T19:57:47Z</time>
  <course>357.75</course>
  <speed>25.45</speed>
  <fix>3d</fix>
</trkpt>
<trkpt lat="-27.2641785" lon="151.2902759">
  <ele>373.07</ele>
  <time>2026-09-01T19:57:47Z</time>
  <course>357.0</course>
  <speed>25.489623378935985</speed>
  <fix>3d</fix>
</trkpt>
<trkpt lat="-27.2642008" lon="151.290277">
  <ele>373.19</ele>
  <time>2026-09-01T19:57:47Z</time>
  <course>357.76</course>
  <speed>25.45</speed>
  <fix>3d</fix>
</trkpt>
<trkpt lat="-27.2641556" lon="151.2902749">
  <ele>373.07</ele>
  <time>2026-09-01T19:57:47Z</time>
  <course>356.97</course>
  <speed>25.49001765397584</speed>
  <fix>3d</fix>
</trkpt>
<trkpt lat="-27.2642008" lon="151.290277">
  <ele>373.19</ele>
  <time>2026-09-01T19:57:47Z</time>
  <course>357.76</course>
  <speed>25.45</speed>
  <fix>3d</fix>
</trkpt>
<trkpt lat="-27.2641327" lon="151.2902739">
  <ele>373.07</ele>
  <time>2026-09-01T19:57:47Z</time>
  <course>357.02</course>
  <speed>25.49001765397584</speed>
  <fix>3d</fix>
</trkpt>
<trkpt lat="-27.2641552" lon="151.290275">
  <ele>373.2</ele>
  <time>2026-09-01T19:57:47Z</time>
  <course>357.75</course>
  <speed>25.45</speed>
  <fix>3d</fix>
</trkpt>
<trkpt lat="-27.2641098" lon="151.2902729">
  <ele>373.07</ele>
  <time>2026-09-01T19:57:47Z</time>
  <course>357.05</course>
  <speed>25.49001765397584</speed>
  <fix>3d</fix>
</trkpt>
<trkpt lat="-27.2641552" lon="151.290275">
  <ele>373.2</ele>
  <time>2026-09-01T19:57:47Z</time>
  <course>357.75</course>
  <speed>25.45</speed>
  <fix>3d</fix>
</trkpt>
<trkpt lat="-27.2640869" lon="151.2902719">
  <ele>373.07</ele>
  <time>2026-09-01T19:57:47Z</time>
  <course>356.99</course>
  <speed>25.49001765397584</speed>
  <fix>3d</fix>
</trkpt>
<trkpt lat="-27.2641095" lon="151.2902729">
  <ele>373.21</ele>
  <time>2026-09-01T19:57:47Z</time>
  <course>357.75</course>
  <speed>25.45</speed>
  <fix>3d</fix>
</trkpt>
<trkpt lat="-27.264064" lon="151.2902708">
  <ele>373.07</ele>
  <time>2026-09-01T19:57:47Z</time>
  <course>356.95</course>
  <speed>25.49001765397584</speed>
  <fix>3d</fix>
</trkpt>
<trkpt lat="-27.2641095" lon="151.2902729">
  <ele>373.21</ele>
  <time>2026-09-01T19:57:47Z</time>
  <course>357.75</course>
  <speed>25.45</speed>
  <fix>3d</fix>
</trkpt>
<trkpt lat="-27.2640413" lon="151.2902698">
  <ele>373.07</ele>
  <time>2026-09-01T19:57:47Z</time>
  <course>356.95</course>
  <speed>25.500009803919685</speed>
  <fix>3d</fix>
</trkpt>
<trkpt lat="-27.2640638" lon="151.2902709">
  <ele>373.21</ele>
  <time>2026-09-01T19:57:47Z</time>
  <course>357.75</course>
  <speed>25.45</speed>
  <fix>3d</fix>
</trkpt>
<trkpt lat="-27.2640184" lon="151.2902688">
  <ele>373.07</ele>
  <time>2026-09-01T19:57:47Z</time>
  <course>356.96</course>
  <speed>25.500009803919685</speed>
  <fix>3d</fix>
</trkpt>
<trkpt lat="-27.2640638" lon="151.2902709">
  <ele>373.21</ele>
  <time>2026-09-01T19:57:47Z</time>
  <course>357.75</course>
  <speed>25.45</speed>
  <fix>3d</fix>
</trkpt>
<trkpt lat="-27.2639955" lon="151.2902678">
  <ele>373.07</ele>
  <time>2026-09-01T19:57:47Z</time>
  <course>357.0</course>
  <speed>25.500009803919685</speed>
  <fix>3d</fix>
</trkpt>
<trkpt lat="-27.2640181" lon="151.2902689">
  <ele>373.21</ele>
  <time>2026-09-01T19:57:47Z</time>
  <course>357.74</course>
  <speed>25.45</speed>
  <fix>3d</fix>
</trkpt>
<trkpt lat="-27.2639727" lon="151.2902668">
  <ele>373.07</ele>
  <time>2026-09-01T19:57:47Z</time>
  <course>357.01</course>
  <speed>25.500407839875816</speed>
  <fix>3d</fix>
</trkpt>
<trkpt lat="-27.2640181" lon="151.2902689">
  <ele>373.21</ele>
  <time>2026-09-01T19:57:47Z</time>
  <course>357.74</course>
  <speed>25.45</speed>
  <fix>3d</fix>
</trkpt>
<trkpt lat="-27.2639496" lon="151.2902658">
  <ele>373.08</ele>
  <time>2026-09-01T19:57:47Z</time>
  <course>357.04</course>
  <speed>25.500009803919685</speed>
  <fix>3d</fix>
</trkpt>
<trkpt lat="-27.2639725" lon="151.2902669">
  <ele>373.22</ele>
  <time>2026-09-01T19:57:47Z</time>
  <course>357.74</course>
  <speed>25.45</speed>
  <fix>3d</fix>
</trkpt>
<trkpt lat="-27.2639267" lon="151.2902648">
  <ele>373.08</ele>
  <time>2026-09-01T19:57:47Z</time>
  <course>357.03</course>
  <speed>25.489623378935985</speed>
  <fix>3d</fix>
</trkpt>
<trkpt lat="-27.2639725" lon="151.2902669">
  <ele>373.22</ele>
  <time>2026-09-01T19:57:47Z</time>
  <course>357.74</course>
  <speed>25.45</speed>
  <fix>3d</fix>
</trkpt>
<trkpt lat="-27.2639038" lon="151.2902638">
  <ele>373.09</ele>
  <time>2026-09-01T19:57:47Z</time>
  <course>357.04</course>
  <speed>25.499615683378448</speed>
  <fix>3d</fix>
</trkpt>
<trkpt lat="-27.2639268" lon="151.2902648">
  <ele>373.22</ele>
  <time>2026-09-01T19:57:47Z</time>
  <course>357.76</course>
  <speed>25.45</speed>
  <fix>3d</fix>
</trkpt>
<trkpt lat="-27.263881" lon="151.2902628">
  <ele>373.09</ele>
  <time>2026-09-01T19:57:47Z</time>
  <course>357.03</course>
  <speed>25.489623378935985</speed>
  <fix>3d</fix>
</trkpt>
<trkpt lat="-27.2639268" lon="151.2902648">
  <ele>373.22</ele>
  <time>2026-09-01T19:57:47Z</time>
  <course>357.76</course>
  <speed>25.45</speed>
  <fix>3d</fix>
</trkpt>
<trkpt lat="-27.2638581" lon="151.2902618">
  <ele>373.09</ele>
  <time>2026-09-01T19:57:47Z</time>
  <course>357.06</course>
  <speed>25.48923302102282</speed>
  <fix>3d</fix>
</trkpt>
<trkpt lat="-27.2638811" lon="151.2902628">
  <ele>373.23</ele>
  <time>2026-09-01T19:57:47Z</time>
  <course>357.77</course>
  <speed>25.44</speed>
  <fix>3d</fix>
</trkpt>
<trkpt lat="-27.2638353" lon="151.2902608">
  <ele>373.09</ele>
  <time>2026-09-01T19:57:47Z</time>
  <course>357.07</course>
  <speed>25.48923302102282</speed>
  <fix>3d</fix>
</trkpt>
<trkpt lat="-27.2638811" lon="151.2902628">
  <ele>373.23</ele>
  <time>2026-09-01T19:57:47Z</time>
  <course>357.77</course>
  <speed>25.44</speed>
  <fix>3d</fix>
</trkpt>
<trkpt lat="-27.2638124" lon="151.2902598">
  <ele>373.09</ele>
  <time>2026-09-01T19:57:47Z</time>
  <course>357.06</course>
  <speed>25.479240569530326</speed>
  <fix>3d</fix>
</trkpt>
<trkpt lat="-27.2638355" lon="151.2902609">
  <ele>373.23</ele>
  <time>2026-09-01T19:57:47Z</time>
  <course>357.79</course>
  <speed>25.44</speed>
  <fix>3d</fix>
</trkpt>
<trkpt lat="-27.2637896" lon="151.2902588">
  <ele>373.09</ele>
  <time>2026-09-01T19:57:47Z</time>
  <course>357.08</course>
  <speed>25.478853977367194</speed>
  <fix>3d</fix>
</trkpt>
<trkpt lat="-27.2638355" lon="151.2902609">
  <ele>373.23</ele>
  <time>2026-09-01T19:57:47Z</time>
  <course>357.79</course>
  <speed>25.44</speed>
  <fix>3d</fix>
</trkpt>
<trkpt lat="-27.2637667" lon="151.2902578">
  <ele>373.1</ele>
  <time>2026-09-01T19:57:47Z</time>
  <course>357.06</course>
  <speed>25.478853977367194</speed>
  <fix>3d</fix>
</trkpt>
<trkpt lat="-27.2637897" lon="151.2902589">
  <ele>373.24</ele>
  <time>2026-09-01T19:57:47Z</time>
  <course>357.8</course>
  <speed>25.44</speed>
  <fix>3d</fix>
</trkpt>
<trkpt lat="-27.2637439" lon="151.2902569">
  <ele>373.1</ele>
  <time>2026-09-01T19:57:47Z</time>
  <course>357.05</course>
  <speed>25.478853977367194</speed>
  <fix>3d</fix>
</trkpt>
<trkpt lat="-27.2637897" lon="151.2902589">
  <ele>373.24</ele>
  <time>2026-09-01T19:57:47Z</time>
  <course>357.8</course>
  <speed>25.44</speed>
  <fix>3d</fix>
</trkpt>
<trkpt lat="-27.2637209" lon="151.2902559">
  <ele>373.1</ele>
  <time>2026-09-01T19:57:47Z</time>
  <course>357.0</course>
  <speed>25.488846580416308</speed>
  <fix>3d</fix>
</trkpt>
<trkpt lat="-27.263744" lon="151.2902569">
  <ele>373.24</ele>
  <time>2026-09-01T19:57:47Z</time>
  <course>357.81</course>
  <speed>25.44</speed>
  <fix>3d</fix>
</trkpt>
<trkpt lat="-27.263698" lon="151.2902549">
  <ele>373.1</ele>
  <time>2026-09-01T19:57:47Z</time>
  <course>356.98</course>
  <speed>25.478853977367194</speed>
  <fix>3d</fix>
</trkpt>
<trkpt lat="-27.263744" lon="151.2902569">
  <ele>373.24</ele>
  <time>2026-09-01T19:57:47Z</time>
  <course>357.81</course>
  <speed>25.44</speed>
  <fix>3d</fix>
</trkpt>
<trkpt lat="-27.2636752" lon="151.2902539">
  <ele>373.1</ele>
  <time>2026-09-01T19:57:47Z</time>
  <course>357.01</course>
  <speed>25.478853977367194</speed>
  <fix>3d</fix>
</trkpt>
<trkpt lat="-27.2636983" lon="151.290255">
  <ele>373.24</ele>
  <time>2026-09-01T19:57:47Z</time>
  <course>357.81</course>
  <speed>25.44</speed>
  <fix>3d</fix>
</trkpt>
<trkpt lat="-27.2636524" lon="151.2902529">
  <ele>373.1</ele>
  <time>2026-09-01T19:57:47Z</time>
  <course>356.99</course>
  <speed>25.479240569530326</speed>
  <fix>3d</fix>
</trkpt>
<trkpt lat="-27.2636983" lon="151.290255">
  <ele>373.24</ele>
  <time>2026-09-01T19:57:47Z</time>
  <course>357.81</course>
  <speed>25.44</speed>
  <fix>3d</fix>
</trkpt>
<trkpt lat="-27.2636297" lon="151.2902519">
  <ele>373.09</ele>
  <time>2026-09-01T19:57:47Z</time>
  <course>357.03</course>
  <speed>25.469248123963144</speed>
  <fix>3d</fix>
</trkpt>
<trkpt lat="-27.2636526" lon="151.290253">
  <ele>373.23</ele>
  <time>2026-09-01T19:57:47Z</time>
  <course>357.79</course>
  <speed>25.44</speed>
  <fix>3d</fix>
</trkpt>
<trkpt lat="-27.263607" lon="151.290251">
  <ele>373.09</ele>
  <time>2026-09-01T19:57:47Z</time>
  <course>357.04</course>
  <speed>25.469248123963144</speed>
  <fix>3d</fix>
</trkpt>
<trkpt lat="-27.2636526" lon="151.290253">
  <ele>373.23</ele>
  <time>2026-09-01T19:57:47Z</time>
  <course>357.79</course>
  <speed>25.44</speed>
  <fix>3d</fix>
</trkpt>
<trkpt lat="-27.2635844" lon="151.29025">
  <ele>373.09</ele>
  <time>2026-09-01T19:57:47Z</time>
  <course>357.11</course>
  <speed>25.459255684328244</speed>
  <fix>3d</fix>
</trkpt>
<trkpt lat="-27.263607" lon="151.290251">
  <ele>373.23</ele>
  <time>2026-09-01T19:57:47Z</time>
  <course>357.79</course>
  <speed>25.44</speed>
  <fix>3d</fix>
</trkpt>
<trkpt lat="-27.2635616" lon="151.290249">
  <ele>373.09</ele>
  <time>2026-09-01T19:57:47Z</time>
  <course>357.11</course>
  <speed>25.458868788695227</speed>
  <fix>3d</fix>
</trkpt>
<trkpt lat="-27.263607" lon="151.290251">
  <ele>373.23</ele>
  <time>2026-09-01T19:57:47Z</time>
  <course>357.79</course>
  <speed>25.44</speed>
  <fix>3d</fix>
</trkpt>
<trkpt lat="-27.2635387" lon="151.290248">
  <ele>373.09</ele>
  <time>2026-09-01T19:57:47Z</time>
  <course>357.1</course>
  <speed>25.458868788695227</speed>
  <fix>3d</fix>
</trkpt>
<trkpt lat="-27.2635613" lon="151.290249">
  <ele>373.23</ele>
  <time>2026-09-01T19:57:47Z</time>
  <course>357.79</course>
  <speed>25.44</speed>
  <fix>3d</fix>
</trkpt>
<trkpt lat="-27.2635158" lon="151.290247">
  <ele>373.09</ele>
  <time>2026-09-01T19:57:47Z</time>
  <course>357.05</course>
  <speed>25.459255684328244</speed>
  <fix>3d</fix>
</trkpt>
<trkpt lat="-27.2635613" lon="151.290249">
  <ele>373.23</ele>
  <time>2026-09-01T19:57:47Z</time>
  <course>357.79</course>
  <speed>25.44</speed>
  <fix>3d</fix>
</trkpt>
<trkpt lat="-27.2634929" lon="151.290246">
  <ele>373.09</ele>
  <time>2026-09-01T19:57:47Z</time>
  <course>357.0</course>
  <speed>25.459255684328244</speed>
  <fix>3d</fix>
</trkpt>
<trkpt lat="-27.2635157" lon="151.290247">
  <ele>373.23</ele>
  <time>2026-09-01T19:57:47Z</time>
  <course>357.79</course>
  <speed>25.44</speed>
  <fix>3d</fix>
</trkpt>
<trkpt lat="-27.2634698" lon="151.290245">
  <ele>373.09</ele>
  <time>2026-09-01T19:57:47Z</time>
  <course>357.03</course>
  <speed>25.46963878817287</speed>
  <fix>3d</fix>
</trkpt>
<trkpt lat="-27.2635157" lon="151.290247">
  <ele>373.23</ele>
  <time>2026-09-01T19:57:47Z</time>
  <course>357.79</course>
  <speed>25.44</speed>
  <fix>3d</fix>
</trkpt>
<trkpt lat="-27.2634468" lon="151.290244">
  <ele>373.09</ele>
  <time>2026-09-01T19:57:47Z</time>
  <course>357.1</course>
  <speed>25.46963878817287</speed>
  <fix>3d</fix>
</trkpt>
<trkpt lat="-27.26347" lon="151.2902451">
  <ele>373.24</ele>
  <time>2026-09-01T19:57:47Z</time>
  <course>357.77</course>
  <speed>25.43</speed>
  <fix>3d</fix>
</trkpt>
<trkpt lat="-27.2634239" lon="151.290243">
  <ele>373.09</ele>
  <time>2026-09-01T19:57:47Z</time>
  <course>357.12</course>
  <speed>25.46963878817287</speed>
  <fix>3d</fix>
</trkpt>
<trkpt lat="-27.26347" lon="151.2902451">
  <ele>373.24</ele>
  <time>2026-09-01T19:57:47Z</time>
  <course>357.77</course>
  <speed>25.43</speed>
  <fix>3d</fix>
</trkpt>
<trkpt lat="-27.263401" lon="151.290242">
  <ele>373.09</ele>
  <time>2026-09-01T19:57:47Z</time>
  <course>357.06</course>
  <speed>25.479631080531757</speed>
  <fix>3d</fix>
</trkpt>
<trkpt lat="-27.2634244" lon="151.2902431">
  <ele>373.24</ele>
  <time>2026-09-01T19:57:47Z</time>
  <course>357.76</course>
  <speed>25.43</speed>
  <fix>3d</fix>
</trkpt>
<trkpt lat="-27.263378" lon="151.290241">
  <ele>373.09</ele>
  <time>2026-09-01T19:57:47Z</time>
  <course>357.02</course>
  <speed>25.479631080531757</speed>
  <fix>3d</fix>
</trkpt>
<trkpt lat="-27.2634244" lon="151.2902431">
  <ele>373.24</ele>
  <time>2026-09-01T19:57:47Z</time>
  <course>357.76</course>
  <speed>25.43</speed>
  <fix>3d</fix>
</trkpt>
<trkpt lat="-27.2633551" lon="151.29024">
  <ele>373.09</ele>
  <time>2026-09-01T19:57:47Z</time>
  <course>357.07</course>
  <speed>25.489623378935985</speed>
  <fix>3d</fix>
</trkpt>
<trkpt lat="-27.2633787" lon="151.2902411">
  <ele>373.24</ele>
  <time>2026-09-01T19:57:47Z</time>
  <course>357.76</course>
  <speed>25.43</speed>
  <fix>3d</fix>
</trkpt>
<trkpt lat="-27.2633323" lon="151.290239">
  <ele>373.09</ele>
  <time>2026-09-01T19:57:47Z</time>
  <course>357.1</course>
  <speed>25.479631080531757</speed>
  <fix>3d</fix>
</trkpt>
<trkpt lat="-27.2633787" lon="151.2902411">
  <ele>373.24</ele>
  <time>2026-09-01T19:57:47Z</time>
  <course>357.76</course>
  <speed>25.43</speed>
  <fix>3d</fix>
</trkpt>
<trkpt lat="-27.2633095" lon="151.290238">
  <ele>373.1</ele>
  <time>2026-09-01T19:57:47Z</time>
  <course>357.09</course>
  <speed>25.479631080531757</speed>
  <fix>3d</fix>
</trkpt>
<trkpt lat="-27.263333" lon="151.2902391">
  <ele>373.25</ele>
  <time>2026-09-01T19:57:47Z</time>
  <course>357.77</course>
  <speed>25.43</speed>
  <fix>3d</fix>
</trkpt>
<trkpt lat="-27.2632868" lon="151.290237">
  <ele>373.1</ele>
  <time>2026-09-01T19:57:47Z</time>
  <course>357.06</course>
  <speed>25.469248123963144</speed>
  <fix>3d</fix>
</trkpt>
<trkpt lat="-27.263333" lon="151.2902391">
  <ele>373.25</ele>
  <time>2026-09-01T19:57:47Z</time>
  <course>357.77</course>
  <speed>25.43</speed>
  <fix>3d</fix>
</trkpt>
<trkpt lat="-27.2632641" lon="151.290236">
  <ele>373.11</ele>
  <time>2026-09-01T19:57:47Z</time>
  <course>357.02</course>
  <speed>25.459255684328244</speed>
  <fix>3d</fix>
</trkpt>
<trkpt lat="-27.2632873" lon="151.290237">
  <ele>373.25</ele>
  <time>2026-09-01T19:57:47Z</time>
  <course>357.78</course>
  <speed>25.42</speed>
  <fix>3d</fix>
</trkpt>
<trkpt lat="-27.2632414" lon="151.290235">
  <ele>373.11</ele>
  <time>2026-09-01T19:57:47Z</time>
  <course>357.05</course>
  <speed>25.449263250632622</speed>
  <fix>3d</fix>
</trkpt>
<trkpt lat="-27.2632873" lon="151.290237">
  <ele>373.25</ele>
  <time>2026-09-01T19:57:47Z</time>
  <course>357.78</course>
  <speed>25.42</speed>
  <fix>3d</fix>
</trkpt>
<trkpt lat="-27.2632187" lon="151.290234">
  <ele>373.11</ele>
  <time>2026-09-01T19:57:47Z</time>
  <course>357.09</course>
  <speed>25.43927082288327</speed>
  <fix>3d</fix>
</trkpt>
<trkpt lat="-27.2632417" lon="151.2902351">
  <ele>373.26</ele>
  <time>2026-09-01T19:57:47Z</time>
  <course>357.79</course>
  <speed>25.42</speed>
  <fix>3d</fix>
</trkpt>
<trkpt lat="-27.263196" lon="151.2902331">
  <ele>373.12</ele>
  <time>2026-09-01T19:57:47Z</time>
  <course>357.07</course>
  <speed>25.4292784010872</speed>
  <fix>3d</fix>
</trkpt>
<trkpt lat="-27.2632417" lon="151.2902351">
  <ele>373.26</ele>
  <time>2026-09-01T19:57:47Z</time>
  <course>357.79</course>
  <speed>25.42</speed>
  <fix>3d</fix>
</trkpt>
<trkpt lat="-27.2631733" lon="151.2902321">
  <ele>373.12</ele>
  <time>2026-09-01T19:57:47Z</time>
  <course>357.04</course>
  <speed>25.41889848124816</speed>
  <fix>3d</fix>
</trkpt>
<trkpt lat="-27.2631961" lon="151.2902331">
  <ele>373.27</ele>
  <time>2026-09-01T19:57:47Z</time>
  <course>357.8</course>
  <speed>25.41</speed>
  <fix>3d</fix>
</trkpt>
<trkpt lat="-27.2631507" lon="151.2902311">
  <ele>373.12</ele>
  <time>2026-09-01T19:57:47Z</time>
  <course>357.08</course>
  <speed>25.419285985251435</speed>
  <fix>3d</fix>
</trkpt>
<trkpt lat="-27.2631961" lon="151.2902331">
  <ele>373.27</ele>
  <time>2026-09-01T19:57:47Z</time>
  <course>357.8</course>
  <speed>25.41</speed>
  <fix>3d</fix>
</trkpt>
<trkpt lat="-27.263128" lon="151.2902301">
  <ele>373.12</ele>
  <time>2026-09-01T19:57:47Z</time>
  <course>357.11</course>
  <speed>25.41889848124816</speed>
  <fix>3d</fix>
</trkpt>
<trkpt lat="-27.2631505" lon="151.2902312">
  <ele>373.28</ele>
  <time>2026-09-01T19:57:47Z</time>
  <course>357.8</course>
  <speed>25.41</speed>
  <fix>3d</fix>
</trkpt>
<trkpt lat="-27.2631053" lon="151.2902291">
  <ele>373.12</ele>
  <time>2026-09-01T19:57:47Z</time>
  <course>357.16</course>
  <speed>25.408905918988324</speed>
  <fix>3d</fix>
</trkpt>
<trkpt lat="-27.2631505" lon="151.2902312">
  <ele>373.28</ele>
  <time>2026-09-01T19:57:47Z</time>
  <course>357.8</course>
  <speed>25.41</speed>
  <fix>3d</fix>
</trkpt>
<trkpt lat="-27.2630825" lon="151.2902282">
  <ele>373.13</ele>
  <time>2026-09-01T19:57:47Z</time>
  <course>357.15</course>
  <speed>25.408522192366878</speed>
  <fix>3d</fix>
</trkpt>
<trkpt lat="-27.2631048" lon="151.2902292">
  <ele>373.28</ele>
  <time>2026-09-01T19:57:47Z</time>
  <course>357.82</course>
  <speed>25.41</speed>
  <fix>3d</fix>
</trkpt>
<trkpt lat="-27.2630598" lon="151.2902272">
  <ele>373.13</ele>
  <time>2026-09-01T19:57:47Z</time>
  <course>357.09</course>
  <speed>25.4081423956967</speed>
  <fix>3d</fix>
</trkpt>
<trkpt lat="-27.2631048" lon="151.2902292">
  <ele>373.28</ele>
  <time>2026-09-01T19:57:47Z</time>
  <course>357.82</course>
  <speed>25.41</speed>
  <fix>3d</fix>
</trkpt>
<trkpt lat="-27.2630371" lon="151.2902262">
  <ele>373.13</ele>
  <time>2026-09-01T19:57:47Z</time>
  <course>357.07</course>
  <speed>25.4081423956967</speed>
  <fix>3d</fix>
</trkpt>
<trkpt lat="-27.2630592" lon="151.2902272">
  <ele>373.28</ele>
  <time>2026-09-01T19:57:47Z</time>
  <course>357.84</course>
  <speed>25.41</speed>
  <fix>3d</fix>
</trkpt>
<trkpt lat="-27.2630141" lon="151.2902253">
  <ele>373.13</ele>
  <time>2026-09-01T19:57:47Z</time>
  <course>357.11</course>
  <speed>25.39852948499184</speed>
  <fix>3d</fix>
</trkpt>
<trkpt lat="-27.2630592" lon="151.2902272">
  <ele>373.28</ele>
  <time>2026-09-01T19:57:47Z</time>
  <course>357.84</course>
  <speed>25.41</speed>
  <fix>3d</fix>
</trkpt>
<trkpt lat="-27.2629914" lon="151.2902243">
  <ele>373.13</ele>
  <time>2026-09-01T19:57:47Z</time>
  <course>357.13</course>
  <speed>25.398149538893577</speed>
  <fix>3d</fix>
</trkpt>
<trkpt lat="-27.2630136" lon="151.2902253">
  <ele>373.27</ele>
  <time>2026-09-01T19:57:47Z</time>
  <course>357.84</course>
  <speed>25.41</speed>
  <fix>3d</fix>
</trkpt>
<trkpt lat="-27.2629686" lon="151.2902233">
  <ele>373.13</ele>
  <time>2026-09-01T19:57:47Z</time>
  <course>357.1</course>
  <speed>25.398149538893577</speed>
  <fix>3d</fix>
</trkpt>
<trkpt lat="-27.2630136" lon="151.2902253">
  <ele>373.27</ele>
  <time>2026-09-01T19:57:47Z</time>
  <course>357.84</course>
  <speed>25.41</speed>
  <fix>3d</fix>
</trkpt>
<trkpt lat="-27.2629458" lon="151.2902224">
  <ele>373.13</ele>
  <time>2026-09-01T19:57:47Z</time>
  <course>357.08</course>
  <speed>25.39852948499184</speed>
  <fix>3d</fix>
</trkpt>
<trkpt lat="-27.262968" lon="151.2902234">
  <ele>373.27</ele>
  <time>2026-09-01T19:57:47Z</time>
  <course>357.83</course>
  <speed>25.41</speed>
  <fix>3d</fix>
</trkpt>
<trkpt lat="-27.2629229" lon="151.2902214">
  <ele>373.12</ele>
  <time>2026-09-01T19:57:47Z</time>
  <course>357.16</course>
  <speed>25.408522192366878</speed>
  <fix>3d</fix>
</trkpt>
<trkpt lat="-27.262968" lon="151.2902234">
  <ele>373.27</ele>
  <time>2026-09-01T19:57:47Z</time>
  <course>357.83</course>
  <speed>25.41</speed>
  <fix>3d</fix>
</trkpt>
<trkpt lat="-27.2629001" lon="151.2902204">
  <ele>373.12</ele>
  <time>2026-09-01T19:57:47Z</time>
  <course>357.19</course>
  <speed>25.4081423956967</speed>
  <fix>3d</fix>
</trkpt>
<trkpt lat="-27.2629224" lon="151.2902214">
  <ele>373.26</ele>
  <time>2026-09-01T19:57:47Z</time>
  <course>357.83</course>
  <speed>25.41</speed>
  <fix>3d</fix>
</trkpt>
<trkpt lat="-27.2628773" lon="151.2902195">
  <ele>373.11</ele>
  <time>2026-09-01T19:57:47Z</time>
  <course>357.16</course>
  <speed>25.39852948499184</speed>
  <fix>3d</fix>
</trkpt>
<trkpt lat="-27.2629224" lon="151.2902214">
  <ele>373.26</ele>
  <time>2026-09-01T19:57:47Z</time>
  <course>357.83</course>
  <speed>25.41</speed>
  <fix>3d</fix>
</trkpt>
<trkpt lat="-27.2628545" lon="151.2902185">
  <ele>373.11</ele>
  <time>2026-09-01T19:57:47Z</time>
  <course>357.13</course>
  <speed>25.408522192366878</speed>
  <fix>3d</fix>
</trkpt>
<trkpt lat="-27.2628768" lon="151.2902195">
  <ele>373.25</ele>
  <time>2026-09-01T19:57:47Z</time>
  <course>357.83</course>
  <speed>25.41</speed>
  <fix>3d</fix>
</trkpt>
<trkpt lat="-27.2628316" lon="151.2902175">
  <ele>373.11</ele>
  <time>2026-09-01T19:57:47Z</time>
  <course>357.12</course>
  <speed>25.408905918988324</speed>
  <fix>3d</fix>
</trkpt>
<trkpt lat="-27.2628768" lon="151.2902195">
  <ele>373.25</ele>
  <time>2026-09-01T19:57:47Z</time>
  <course>357.83</course>
  <speed>25.41</speed>
  <fix>3d</fix>
</trkpt>
<trkpt lat="-27.2628088" lon="151.2902165">
  <ele>373.1</ele>
  <time>2026-09-01T19:57:47Z</time>
  <course>357.11</course>
  <speed>25.408905918988324</speed>
  <fix>3d</fix>
</trkpt>
<trkpt lat="-27.2628311" lon="151.2902176">
  <ele>373.25</ele>
  <time>2026-09-01T19:57:47Z</time>
  <course>357.82</course>
  <speed>25.41</speed>
  <fix>3d</fix>
</trkpt>
<trkpt lat="-27.262786" lon="151.2902156">
  <ele>373.1</ele>
  <time>2026-09-01T19:57:47Z</time>
  <course>357.1</course>
  <speed>25.408905918988324</speed>
  <fix>3d</fix>
</trkpt>
<trkpt lat="-27.2628311" lon="151.2902176">
  <ele>373.25</ele>
  <time>2026-09-01T19:57:47Z</time>
  <course>357.82</course>
  <speed>25.41</speed>
  <fix>3d</fix>
</trkpt>
<trkpt lat="-27.2627631" lon="151.2902146">
  <ele>373.1</ele>
  <time>2026-09-01T19:57:47Z</time>
  <course>357.04</course>
  <speed>25.419285985251435</speed>
  <fix>3d</fix>
</trkpt>
<trkpt lat="-27.2627854" lon="151.2902156">
  <ele>373.24</ele>
  <time>2026-09-01T19:57:47Z</time>
  <course>357.8</course>
  <speed>25.41</speed>
  <fix>3d</fix>
</trkpt>
<trkpt lat="-27.2627403" lon="151.2902136">
  <ele>373.1</ele>
  <time>2026-09-01T19:57:47Z</time>
  <course>357.08</course>
  <speed>25.419285985251435</speed>
  <fix>3d</fix>
</trkpt>
<trkpt lat="-27.2627854" lon="151.2902156">
  <ele>373.24</ele>
  <time>2026-09-01T19:57:47Z</time>
  <course>357.8</course>
  <speed>25.41</speed>
  <fix>3d</fix>
</trkpt>
<trkpt lat="-27.2627174" lon="151.2902126">
  <ele>373.1</ele>
  <time>2026-09-01T19:57:47Z</time>
  <course>357.11</course>
  <speed>25.419677417308034</speed>
  <fix>3d</fix>
</trkpt>
<trkpt lat="-27.2627398" lon="151.2902136">
  <ele>373.24</ele>
  <time>2026-09-01T19:57:47Z</time>
  <course>357.79</course>
  <speed>25.42</speed>
  <fix>3d</fix>
</trkpt>
<trkpt lat="-27.2626946" lon="151.2902116">
  <ele>373.1</ele>
  <time>2026-09-01T19:57:47Z</time>
  <course>357.04</course>
  <speed>25.429669679333234</speed>
  <fix>3d</fix>
</trkpt>
<trkpt lat="-27.2627398" lon="151.2902136">
  <ele>373.24</ele>
  <time>2026-09-01T19:57:47Z</time>
  <course>357.79</course>
  <speed>25.42</speed>
  <fix>3d</fix>
</trkpt>
<trkpt lat="-27.2626717" lon="151.2902106">
  <ele>373.09</ele>
  <time>2026-09-01T19:57:47Z</time>
  <course>357.02</course>
  <speed>25.430464014641966</speed>
  <fix>3d</fix>
</trkpt>
<trkpt lat="-27.2626941" lon="151.2902116">
  <ele>373.24</ele>
  <time>2026-09-01T19:57:47Z</time>
  <course>357.76</course>
  <speed>25.42</speed>
  <fix>3d</fix>
</trkpt>
<trkpt lat="-27.2626489" lon="151.2902095">
  <ele>373.09</ele>
  <time>2026-09-01T19:57:47Z</time>
  <course>357.01</course>
  <speed>25.4404559707565</speed>
  <fix>3d</fix>
</trkpt>
<trkpt lat="-27.2626941" lon="151.2902116">
  <ele>373.24</ele>
  <time>2026-09-01T19:57:47Z</time>
  <course>357.76</course>
  <speed>25.42</speed>
  <fix>3d</fix>
</trkpt>
<trkpt lat="-27.262626" lon="151.2902085">
  <ele>373.09</ele>
  <time>2026-09-01T19:57:47Z</time>
  <course>357.06</course>
  <speed>25.4404559707565</speed>
  <fix>3d</fix>
</trkpt>
<trkpt lat="-27.2626485" lon="151.2902097">
  <ele>373.24</ele>
  <time>2026-09-01T19:57:47Z</time>
  <course>357.74</course>
  <speed>25.42</speed>
  <fix>3d</fix>
</trkpt>
<trkpt lat="-27.2626032" lon="151.2902075">
  <ele>373.09</ele>
  <time>2026-09-01T19:57:47Z</time>
  <course>357.09</course>
  <speed>25.450447933189704</speed>
  <fix>3d</fix>
</trkpt>
<trkpt lat="-27.2626485" lon="151.2902097">
  <ele>373.24</ele>
  <time>2026-09-01T19:57:47Z</time>
  <course>357.74</course>
  <speed>25.42</speed>
  <fix>3d</fix>
</trkpt>
<trkpt lat="-27.2625803" lon="151.2902065">
  <ele>373.09</ele>
  <time>2026-09-01T19:57:47Z</time>
  <course>357.06</course>
  <speed>25.450447933189704</speed>
  <fix>3d</fix>
</trkpt>
<trkpt lat="-27.2626029" lon="151.2902076">
  <ele>373.24</ele>
  <time>2026-09-01T19:57:47Z</time>
  <course>357.73</course>
  <speed>25.43</speed>
  <fix>3d</fix>
</trkpt>
<trkpt lat="-27.2625574" lon="151.2902055">
  <ele>373.09</ele>
  <time>2026-09-01T19:57:47Z</time>
  <course>357.05</course>
  <speed>25.450447933189704</speed>
  <fix>3d</fix>
</trkpt>
<trkpt lat="-27.2626029" lon="151.2902076">
  <ele>373.24</ele>
  <time>2026-09-01T19:57:47Z</time>
  <course>357.73</course>
  <speed>25.43</speed>
  <fix>3d</fix>
</trkpt>
<trkpt lat="-27.2625348" lon="151.2902044">
  <ele>373.08</ele>
  <time>2026-09-01T19:57:47Z</time>
  <course>357.08</course>
  <speed>25.460439901934137</speed>
  <fix>3d</fix>
</trkpt>
<trkpt lat="-27.2625572" lon="151.2902055">
  <ele>373.23</ele>
  <time>2026-09-01T19:57:47Z</time>
  <course>357.73</course>
  <speed>25.43</speed>
  <fix>3d</fix>
</trkpt>
<trkpt lat="-27.2625119" lon="151.2902034">
  <ele>373.08</ele>
  <time>2026-09-01T19:57:47Z</time>
  <course>357.13</course>
  <speed>25.460439901934137</speed>
  <fix>3d</fix>
</trkpt>
<trkpt lat="-27.2625572" lon="151.2902055">
  <ele>373.23</ele>
  <time>2026-09-01T19:57:47Z</time>
  <course>357.73</course>
  <speed>25.43</speed>
  <fix>3d</fix>
</trkpt>
<trkpt lat="-27.2624891" lon="151.2902024">
  <ele>373.08</ele>
  <time>2026-09-01T19:57:47Z</time>
  <course>357.12</course>
  <speed>25.460041241129208</speed>
  <fix>3d</fix>
</trkpt>
<trkpt lat="-27.2625116" lon="151.2902035">
  <ele>373.23</ele>
  <time>2026-09-01T19:57:47Z</time>
  <course>357.73</course>
  <speed>25.44</speed>
  <fix>3d</fix>
</trkpt>
<trkpt lat="-27.2624658" lon="151.2902014">
  <ele>373.09</ele>
  <time>2026-09-01T19:57:47Z</time>
  <course>357.03</course>
  <speed>25.460041241129208</speed>
  <fix>3d</fix>
</trkpt>
<trkpt lat="-27.2625116" lon="151.2902035">
  <ele>373.23</ele>
  <time>2026-09-01T19:57:47Z</time>
  <course>357.73</course>
  <speed>25.44</speed>
  <fix>3d</fix>
</trkpt>
<trkpt lat="-27.262443" lon="151.2902004">
  <ele>373.09</ele>
  <time>2026-09-01T19:57:47Z</time>
  <course>356.99</course>
  <speed>25.460439901934137</speed>
  <fix>3d</fix>
</trkpt>
<trkpt lat="-27.2624659" lon="151.2902015">
  <ele>373.23</ele>
  <time>2026-09-01T19:57:47Z</time>
  <course>357.73</course>
  <speed>25.44</speed>
  <fix>3d</fix>
</trkpt>
<trkpt lat="-27.2624201" lon="151.2901994">
  <ele>373.09</ele>
  <time>2026-09-01T19:57:47Z</time>
  <course>357.04</course>
  <speed>25.460439901934137</speed>
  <fix>3d</fix>
</trkpt>
<trkpt lat="-27.2624659" lon="151.2902015">
  <ele>373.23</ele>
  <time>2026-09-01T19:57:47Z</time>
  <course>357.73</course>
  <speed>25.44</speed>
  <fix>3d</fix>
</trkpt>
<trkpt lat="-27.2623973" lon="151.2901983">
  <ele>373.09</ele>
  <time>2026-09-01T19:57:47Z</time>
  <course>357.05</course>
  <speed>25.460439901934137</speed>
  <fix>3d</fix>
</trkpt>
<trkpt lat="-27.2624202" lon="151.2901995">
  <ele>373.23</ele>
  <time>2026-09-01T19:57:47Z</time>
  <course>357.73</course>
  <speed>25.44</speed>
  <fix>3d</fix>
</trkpt>
<trkpt lat="-27.2623744" lon="151.2901973">
  <ele>373.09</ele>
  <time>2026-09-01T19:57:47Z</time>
  <course>357.08</course>
  <speed>25.460041241129208</speed>
  <fix>3d</fix>
</trkpt>
<trkpt lat="-27.2624202" lon="151.2901995">
  <ele>373.23</ele>
  <time>2026-09-01T19:57:47Z</time>
  <course>357.73</course>
  <speed>25.44</speed>
  <fix>3d</fix>
</trkpt>
<trkpt lat="-27.2623516" lon="151.2901963">
  <ele>373.09</ele>
  <time>2026-09-01T19:57:47Z</time>
  <course>357.09</course>
  <speed>25.470033372573347</speed>
  <fix>3d</fix>
</trkpt>
<trkpt lat="-27.2623745" lon="151.2901974">
  <ele>373.23</ele>
  <time>2026-09-01T19:57:47Z</time>
  <course>357.74</course>
  <speed>25.44</speed>
  <fix>3d</fix>
</trkpt>
<trkpt lat="-27.2623288" lon="151.2901953">
  <ele>373.09</ele>
  <time>2026-09-01T19:57:48Z</time>
  <course>357.13</course>
  <speed>25.470033372573347</speed>
  <fix>3d</fix>
</trkpt>
<trkpt lat="-27.2623745" lon="151.2901974">
  <ele>373.23</ele>
  <time>2026-09-01T19:57:48Z</time>
  <course>357.74</course>
  <speed>25.44</speed>
  <fix>3d</fix>
</trkpt>
<trkpt lat="-27.2623059" lon="151.2901943">
  <ele>373.09</ele>
  <time>2026-09-01T19:57:48Z</time>
  <course>357.16</course>
  <speed>25.460041241129208</speed>
  <fix>3d</fix>
</trkpt>
<trkpt lat="-27.2623287" lon="151.2901954">
  <ele>373.24</ele>
  <time>2026-09-01T19:57:48Z</time>
  <course>357.75</course>
  <speed>25.44</speed>
  <fix>3d</fix>
</trkpt>
<trkpt lat="-27.2622831" lon="151.2901933">
  <ele>373.09</ele>
  <time>2026-09-01T19:57:48Z</time>
  <course>357.14</course>
  <speed>25.459646501866438</speed>
  <fix>3d</fix>
</trkpt>
<trkpt lat="-27.2623287" lon="151.2901954">
  <ele>373.24</ele>
  <time>2026-09-01T19:57:48Z</time>
  <course>357.75</course>
  <speed>25.44</speed>
  <fix>3d</fix>
</trkpt>
<trkpt lat="-27.2622602" lon="151.2901923">
  <ele>373.1</ele>
  <time>2026-09-01T19:57:48Z</time>
  <course>357.09</course>
  <speed>25.459646501866438</speed>
  <fix>3d</fix>
</trkpt>
<trkpt lat="-27.2622831" lon="151.2901934">
  <ele>373.24</ele>
  <time>2026-09-01T19:57:48Z</time>
  <course>357.76</course>
  <speed>25.43</speed>
  <fix>3d</fix>
</trkpt>
<trkpt lat="-27.2622374" lon="151.2901913">
  <ele>373.1</ele>
  <time>2026-09-01T19:57:48Z</time>
  <course>357.09</course>
  <speed>25.460041241129208</speed>
  <fix>3d</fix>
</trkpt>
<trkpt lat="-27.2622831" lon="151.2901934">
  <ele>373.24</ele>
  <time>2026-09-01T19:57:48Z</time>
  <course>357.76</course>
  <speed>25.43</speed>
  <fix>3d</fix>
</trkpt>
<trkpt lat="-27.2622146" lon="151.2901903">
  <ele>373.1</ele>
  <time>2026-09-01T19:57:48Z</time>
  <course>357.1</course>
  <speed>25.459646501866438</speed>
  <fix>3d</fix>
</trkpt>
<trkpt lat="-27.2622374" lon="151.2901914">
  <ele>373.25</ele>
  <time>2026-09-01T19:57:48Z</time>
  <course>357.77</course>
  <speed>25.43</speed>
  <fix>3d</fix>
</trkpt>
<trkpt lat="-27.2621917" lon="151.2901893">
  <ele>373.1</ele>
  <time>2026-09-01T19:57:48Z</time>
  <course>357.14</course>
  <speed>25.459646501866438</speed>
  <fix>3d</fix>
</trkpt>
<trkpt lat="-27.2622374" lon="151.2901914">
  <ele>373.25</ele>
  <time>2026-09-01T19:57:48Z</time>
  <course>357.77</course>
  <speed>25.43</speed>
  <fix>3d</fix>
</trkpt>
<trkpt lat="-27.2621689" lon="151.2901883">
  <ele>373.11</ele>
  <time>2026-09-01T19:57:48Z</time>
  <course>357.16</course>
  <speed>25.459255684328244</speed>
  <fix>3d</fix>
</trkpt>
<trkpt lat="-27.2621918" lon="151.2901894">
  <ele>373.25</ele>
  <time>2026-09-01T19:57:48Z</time>
  <course>357.78</course>
  <speed>25.43</speed>
  <fix>3d</fix>
</trkpt>
<trkpt lat="-27.2621461" lon="151.2901873">
  <ele>373.11</ele>
  <time>2026-09-01T19:57:48Z</time>
  <course>357.11</course>
  <speed>25.459255684328244</speed>
  <fix>3d</fix>
</trkpt>
<trkpt lat="-27.2621918" lon="151.2901894">
  <ele>373.25</ele>
  <time>2026-09-01T19:57:48Z</time>
  <course>357.78</course>
  <speed>25.43</speed>
  <fix>3d</fix>
</trkpt>
<trkpt lat="-27.2621232" lon="151.2901863">
  <ele>373.11</ele>
  <time>2026-09-01T19:57:48Z</time>
  <course>357.12</course>
  <speed>25.458868788695227</speed>
  <fix>3d</fix>
</trkpt>
<trkpt lat="-27.2621462" lon="151.2901875">
  <ele>373.25</ele>
  <time>2026-09-01T19:57:48Z</time>
  <course>357.79</course>
  <speed>25.43</speed>
  <fix>3d</fix>
</trkpt>
<trkpt lat="-27.2621004" lon="151.2901854">
  <ele>373.11</ele>
  <time>2026-09-01T19:57:48Z</time>
  <course>357.13</course>
  <speed>25.458868788695227</speed>
  <fix>3d</fix>
</trkpt>
<trkpt lat="-27.2621462" lon="151.2901875">
  <ele>373.25</ele>
  <time>2026-09-01T19:57:48Z</time>
  <course>357.79</course>
  <speed>25.43</speed>
  <fix>3d</fix>
</trkpt>
<trkpt lat="-27.2620776" lon="151.2901844">
  <ele>373.11</ele>
  <time>2026-09-01T19:57:48Z</time>
  <course>357.11</course>
  <speed>25.448876203086062</speed>
  <fix>3d</fix>
</trkpt>
<trkpt lat="-27.2621005" lon="151.2901855">
  <ele>373.26</ele>
  <time>2026-09-01T19:57:48Z</time>
  <course>357.81</course>
  <speed>25.43</speed>
  <fix>3d</fix>
</trkpt>
<trkpt lat="-27.2620549" lon="151.2901834">
  <ele>373.11</ele>
  <time>2026-09-01T19:57:48Z</time>
  <course>357.11</course>
  <speed>25.458485815146197</speed>
  <fix>3d</fix>
</trkpt>
<trkpt lat="-27.2621005" lon="151.2901855">
  <ele>373.26</ele>
  <time>2026-09-01T19:57:48Z</time>
  <course>357.81</course>
  <speed>25.43</speed>
  <fix>3d</fix>
</trkpt>
<trkpt lat="-27.2620321" lon="151.2901825">
  <ele>373.11</ele>
  <time>2026-09-01T19:57:48Z</time>
  <course>357.16</course>
  <speed>25.44849307915893</speed>
  <fix>3d</fix>
</trkpt>
<trkpt lat="-27.2620549" lon="151.2901835">
  <ele>373.26</ele>
  <time>2026-09-01T19:57:48Z</time>
  <course>357.83</course>
  <speed>25.42</speed>
  <fix>3d</fix>
</trkpt>
<trkpt lat="-27.2620093" lon="151.2901815">
  <ele>373.11</ele>
  <time>2026-09-01T19:57:48Z</time>
  <course>357.19</course>
  <speed>25.44849307915893</speed>
  <fix>3d</fix>
</trkpt>
<trkpt lat="-27.2620549" lon="151.2901835">
  <ele>373.26</ele>
  <time>2026-09-01T19:57:48Z</time>
  <course>357.83</course>
  <speed>25.42</speed>
  <fix>3d</fix>
</trkpt>
<trkpt lat="-27.2619865" lon="151.2901805">
  <ele>373.11</ele>
  <time>2026-09-01T19:57:48Z</time>
  <course>357.15</course>
  <speed>25.458485815146197</speed>
  <fix>3d</fix>
</trkpt>
<trkpt lat="-27.2620092" lon="151.2901815">
  <ele>373.25</ele>
  <time>2026-09-01T19:57:48Z</time>
  <course>357.83</course>
  <speed>25.42</speed>
  <fix>3d</fix>
</trkpt>
<trkpt lat="-27.2619634" lon="151.2901795">
  <ele>373.11</ele>
  <time>2026-09-01T19:57:48Z</time>
  <course>357.18</course>
  <speed>25.44849307915893</speed>
  <fix>3d</fix>
</trkpt>
<trkpt lat="-27.2620092" lon="151.2901815">
  <ele>373.25</ele>
  <time>2026-09-01T19:57:48Z</time>
  <course>357.83</course>
  <speed>25.42</speed>
  <fix>3d</fix>
</trkpt>
<trkpt lat="-27.2619406" lon="151.2901786">
  <ele>373.11</ele>
  <time>2026-09-01T19:57:48Z</time>
  <course>357.29</course>
  <speed>25.458485815146197</speed>
  <fix>3d</fix>
</trkpt>
<trkpt lat="-27.2619636" lon="151.2901796">
  <ele>373.25</ele>
  <time>2026-09-01T19:57:48Z</time>
  <course>357.83</course>
  <speed>25.42</speed>
  <fix>3d</fix>
</trkpt>
<trkpt lat="-27.2619178" lon="151.2901776">
  <ele>373.11</ele>
  <time>2026-09-01T19:57:48Z</time>
  <course>357.34</course>
  <speed>25.45810676385815</speed>
  <fix>3d</fix>
</trkpt>
<trkpt lat="-27.2619636" lon="151.2901796">
  <ele>373.25</ele>
  <time>2026-09-01T19:57:48Z</time>
  <course>357.83</course>
  <speed>25.42</speed>
  <fix>3d</fix>
</trkpt>
<trkpt lat="-27.2618942" lon="151.2901766">
  <ele>373.11</ele>
  <time>2026-09-01T19:57:48Z</time>
  <course>357.31</course>
  <speed>25.45773163500629</speed>
  <fix>3d</fix>
</trkpt>
<trkpt lat="-27.2619179" lon="151.2901777">
  <ele>373.25</ele>
  <time>2026-09-01T19:57:48Z</time>
  <course>357.85</course>
  <speed>25.43</speed>
  <fix>3d</fix>
</trkpt>
<trkpt lat="-27.2618715" lon="151.2901757">
  <ele>373.11</ele>
  <time>2026-09-01T19:57:48Z</time>
  <course>357.23</course>
  <speed>25.45773163500629</speed>
  <fix>3d</fix>
</trkpt>
<trkpt lat="-27.2619179" lon="151.2901777">
  <ele>373.25</ele>
  <time>2026-09-01T19:57:48Z</time>
  <course>357.85</course>
  <speed>25.43</speed>
  <fix>3d</fix>
</trkpt>
<trkpt lat="-27.2618487" lon="151.2901747">
  <ele>373.11</ele>
  <time>2026-09-01T19:57:48Z</time>
  <course>357.15</course>
  <speed>25.45773163500629</speed>
  <fix>3d</fix>
</trkpt>
<trkpt lat="-27.2618721" lon="151.2901758">
  <ele>373.25</ele>
  <time>2026-09-01T19:57:48Z</time>
  <course>357.87</course>
  <speed>25.43</speed>
  <fix>3d</fix>
</trkpt>
<trkpt lat="-27.2618262" lon="151.2901738">
  <ele>373.11</ele>
  <time>2026-09-01T19:57:48Z</time>
  <course>357.16</course>
  <speed>25.45810676385815</speed>
  <fix>3d</fix>
</trkpt>
<trkpt lat="-27.2618721" lon="151.2901758">
  <ele>373.25</ele>
  <time>2026-09-01T19:57:48Z</time>
  <course>357.87</course>
  <speed>25.43</speed>
  <fix>3d</fix>
</trkpt>
<trkpt lat="-27.2618034" lon="151.2901728">
  <ele>373.11</ele>
  <time>2026-09-01T19:57:48Z</time>
  <course>357.2</course>
  <speed>25.45810676385815</speed>
  <fix>3d</fix>
</trkpt>
<trkpt lat="-27.2618265" lon="151.2901739">
  <ele>373.25</ele>
  <time>2026-09-01T19:57:48Z</time>
  <course>357.87</course>
  <speed>25.43</speed>
  <fix>3d</fix>
</trkpt>
<trkpt lat="-27.2617806" lon="151.2901719">
  <ele>373.11</ele>
  <time>2026-09-01T19:57:48Z</time>
  <course>357.25</course>
  <speed>25.45810676385815</speed>
  <fix>3d</fix>
</trkpt>
<trkpt lat="-27.2618265" lon="151.2901739">
  <ele>373.25</ele>
  <time>2026-09-01T19:57:48Z</time>
  <course>357.87</course>
  <speed>25.43</speed>
  <fix>3d</fix>
</trkpt>
<trkpt lat="-27.2617577" lon="151.2901709">
  <ele>373.11</ele>
  <time>2026-09-01T19:57:48Z</time>
  <course>357.25</course>
  <speed>25.45810676385815</speed>
  <fix>3d</fix>
</trkpt>
<trkpt lat="-27.2617808" lon="151.2901719">
  <ele>373.25</ele>
  <time>2026-09-01T19:57:48Z</time>
  <course>357.86</course>
  <speed>25.43</speed>
  <fix>3d</fix>
</trkpt>
<trkpt lat="-27.261735" lon="151.29017">
  <ele>373.11</ele>
  <time>2026-09-01T19:57:48Z</time>
  <course>357.24</course>
  <speed>25.45810676385815</speed>
  <fix>3d</fix>
</trkpt>
<trkpt lat="-27.2617808" lon="151.2901719">
  <ele>373.25</ele>
  <time>2026-09-01T19:57:48Z</time>
  <course>357.86</course>
  <speed>25.43</speed>
  <fix>3d</fix>
</trkpt>
<trkpt lat="-27.2617122" lon="151.290169">
  <ele>373.11</ele>
  <time>2026-09-01T19:57:48Z</time>
  <course>357.21</course>
  <speed>25.44811387902844</speed>
  <fix>3d</fix>
</trkpt>
<trkpt lat="-27.2617352" lon="151.29017">
  <ele>373.25</ele>
  <time>2026-09-01T19:57:48Z</time>
  <course>357.85</course>
  <speed>25.43</speed>
  <fix>3d</fix>
</trkpt>
<trkpt lat="-27.2616896" lon="151.290168">
  <ele>373.11</ele>
  <time>2026-09-01T19:57:48Z</time>
  <course>357.19</course>
  <speed>25.43850034888063</speed>
  <fix>3d</fix>
</trkpt>
<trkpt lat="-27.2617352" lon="151.29017">
  <ele>373.25</ele>
  <time>2026-09-01T19:57:48Z</time>
  <course>357.85</course>
  <speed>25.43</speed>
  <fix>3d</fix>
</trkpt>
<trkpt lat="-27.2616668" lon="151.2901671">
  <ele>373.11</ele>
  <time>2026-09-01T19:57:48Z</time>
  <course>357.15</course>
  <speed>25.43927082288327</speed>
  <fix>3d</fix>
</trkpt>
<trkpt lat="-27.2616895" lon="151.2901681">
  <ele>373.25</ele>
  <time>2026-09-01T19:57:48Z</time>
  <course>357.82</course>
  <speed>25.43</speed>
  <fix>3d</fix>
</trkpt>
<trkpt lat="-27.2616442" lon="151.2901661">
  <ele>373.1</ele>
  <time>2026-09-01T19:57:48Z</time>
  <course>357.12</course>
  <speed>25.429669679333234</speed>
  <fix>3d</fix>
</trkpt>
<trkpt lat="-27.2616895" lon="151.2901681">
  <ele>373.25</ele>
  <time>2026-09-01T19:57:48Z</time>
  <course>357.82</course>
  <speed>25.43</speed>
  <fix>3d</fix>
</trkpt>
<trkpt lat="-27.2616215" lon="151.2901651">
  <ele>373.1</ele>
  <time>2026-09-01T19:57:48Z</time>
  <course>357.16</course>
  <speed>25.420072777236495</speed>
  <fix>3d</fix>
</trkpt>
<trkpt lat="-27.2616439" lon="151.2901661">
  <ele>373.25</ele>
  <time>2026-09-01T19:57:48Z</time>
  <course>357.77</course>
  <speed>25.43</speed>
  <fix>3d</fix>
</trkpt>
<trkpt lat="-27.2615989" lon="151.2901641">
  <ele>373.1</ele>
  <time>2026-09-01T19:57:48Z</time>
  <course>357.21</course>
  <speed>25.410080676770786</speed>
  <fix>3d</fix>
</trkpt>
<trkpt lat="-27.2616439" lon="151.2901661">
  <ele>373.25</ele>
  <time>2026-09-01T19:57:48Z</time>
  <course>357.77</course>
  <speed>25.43</speed>
  <fix>3d</fix>
</trkpt>
<trkpt lat="-27.2615764" lon="151.2901631">
  <ele>373.1</ele>
  <time>2026-09-01T19:57:48Z</time>
  <course>357.23</course>
  <speed>25.409685161371048</speed>
  <fix>3d</fix>
</trkpt>
<trkpt lat="-27.2615983" lon="151.2901642">
  <ele>373.25</ele>
  <time>2026-09-01T19:57:48Z</time>
  <course>357.74</course>
  <speed>25.43</speed>
  <fix>3d</fix>
</trkpt>
<trkpt lat="-27.2615538" lon="151.2901621">
  <ele>373.09</ele>
  <time>2026-09-01T19:57:48Z</time>
  <course>357.23</course>
  <speed>25.39930117148895</speed>
  <fix>3d</fix>
</trkpt>
<trkpt lat="-27.2615983" lon="151.2901642">
  <ele>373.25</ele>
  <time>2026-09-01T19:57:48Z</time>
  <course>357.74</course>
  <speed>25.43</speed>
  <fix>3d</fix>
</trkpt>
<trkpt lat="-27.2615311" lon="151.2901611">
  <ele>373.09</ele>
  <time>2026-09-01T19:57:48Z</time>
  <course>357.26</course>
  <speed>25.398913362583052</speed>
  <fix>3d</fix>
</trkpt>
<trkpt lat="-27.2615526" lon="151.2901622">
  <ele>373.24</ele>
  <time>2026-09-01T19:57:48Z</time>
  <course>357.77</course>
  <speed>25.43</speed>
  <fix>3d</fix>
</trkpt>
<trkpt lat="-27.2615084" lon="151.2901601">
  <ele>373.08</ele>
  <time>2026-09-01T19:57:48Z</time>
  <course>357.24</course>
  <speed>25.398913362583052</speed>
  <fix>3d</fix>
</trkpt>
<trkpt lat="-27.2615526" lon="151.2901622">
  <ele>373.24</ele>
  <time>2026-09-01T19:57:48Z</time>
  <course>357.77</course>
  <speed>25.43</speed>
  <fix>3d</fix>
</trkpt>
<trkpt lat="-27.2614855" lon="151.2901592">
  <ele>373.08</ele>
  <time>2026-09-01T19:57:48Z</time>
  <course>357.19</course>
  <speed>25.39852948499184</speed>
  <fix>3d</fix>
</trkpt>
<trkpt lat="-27.261507" lon="151.2901602">
  <ele>373.23</ele>
  <time>2026-09-01T19:57:48Z</time>
  <course>357.8</course>
  <speed>25.43</speed>
  <fix>3d</fix>
</trkpt>
<trkpt lat="-27.2614628" lon="151.2901582">
  <ele>373.07</ele>
  <time>2026-09-01T19:57:48Z</time>
  <course>357.16</course>
  <speed>25.388156687715632</speed>
  <fix>3d</fix>
</trkpt>
<trkpt lat="-27.261507" lon="151.2901602">
  <ele>373.23</ele>
  <time>2026-09-01T19:57:48Z</time>
  <course>357.8</course>
  <speed>25.43</speed>
  <fix>3d</fix>
</trkpt>
<trkpt lat="-27.2614401" lon="151.2901572">
  <ele>373.07</ele>
  <time>2026-09-01T19:57:48Z</time>
  <course>357.1</course>
  <speed>25.38853678335953</speed>
  <fix>3d</fix>
</trkpt>
<trkpt lat="-27.2614613" lon="151.2901582">
  <ele>373.22</ele>
  <time>2026-09-01T19:57:48Z</time>
  <course>357.82</course>
  <speed>25.44</speed>
  <fix>3d</fix>
</trkpt>
<trkpt lat="-27.2614166" lon="151.2901562">
  <ele>373.06</ele>
  <time>2026-09-01T19:57:48Z</time>
  <course>357.13</course>
  <speed>25.38853678335953</speed>
  <fix>3d</fix>
</trkpt>
<trkpt lat="-27.2614613" lon="151.2901582">
  <ele>373.22</ele>
  <time>2026-09-01T19:57:48Z</time>
  <course>357.82</course>
  <speed>25.44</speed>
  <fix>3d</fix>
</trkpt>
<trkpt lat="-27.261394" lon="151.2901553">
  <ele>373.06</ele>
  <time>2026-09-01T19:57:48Z</time>
  <course>357.14</course>
  <speed>25.38853678335953</speed>
  <fix>3d</fix>
</trkpt>
<trkpt lat="-27.2614156" lon="151.2901562">
  <ele>373.21</ele>
  <time>2026-09-01T19:57:48Z</time>
  <course>357.81</course>
  <speed>25.44</speed>
  <fix>3d</fix>
</trkpt>
<trkpt lat="-27.2613711" lon="151.2901543">
  <ele>373.06</ele>
  <time>2026-09-01T19:57:48Z</time>
  <course>357.16</course>
  <speed>25.38853678335953</speed>
  <fix>3d</fix>
</trkpt>
<trkpt lat="-27.2614156" lon="151.2901562">
  <ele>373.21</ele>
  <time>2026-09-01T19:57:48Z</time>
  <course>357.81</course>
  <speed>25.44</speed>
  <fix>3d</fix>
</trkpt>
<trkpt lat="-27.2613483" lon="151.2901533">
  <ele>373.06</ele>
  <time>2026-09-01T19:57:48Z</time>
  <course>357.14</course>
  <speed>25.398913362583052</speed>
  <fix>3d</fix>
</trkpt>
<trkpt lat="-27.2613698" lon="151.2901542">
  <ele>373.21</ele>
  <time>2026-09-01T19:57:48Z</time>
  <course>357.8</course>
  <speed>25.44</speed>
  <fix>3d</fix>
</trkpt>
<trkpt lat="-27.2613253" lon="151.2901523">
  <ele>373.06</ele>
  <time>2026-09-01T19:57:48Z</time>
  <course>357.15</course>
  <speed>25.408905918988324</speed>
  <fix>3d</fix>
</trkpt>
<trkpt lat="-27.2613698" lon="151.2901542">
  <ele>373.21</ele>
  <time>2026-09-01T19:57:48Z</time>
  <course>357.8</course>
  <speed>25.44</speed>
  <fix>3d</fix>
</trkpt>
<trkpt lat="-27.2613022" lon="151.2901513">
  <ele>373.06</ele>
  <time>2026-09-01T19:57:48Z</time>
  <course>357.19</course>
  <speed>25.419285985251435</speed>
  <fix>3d</fix>
</trkpt>
<trkpt lat="-27.2613241" lon="151.2901523">
  <ele>373.21</ele>
  <time>2026-09-01T19:57:48Z</time>
  <course>357.79</course>
  <speed>25.44</speed>
  <fix>3d</fix>
</trkpt>
<trkpt lat="-27.2612792" lon="151.2901503">
  <ele>373.06</ele>
  <time>2026-09-01T19:57:48Z</time>
  <course>357.24</course>
  <speed>25.419285985251435</speed>
  <fix>3d</fix>
</trkpt>
<trkpt lat="-27.2613241" lon="151.2901523">
  <ele>373.21</ele>
  <time>2026-09-01T19:57:48Z</time>
  <course>357.79</course>
  <speed>25.44</speed>
  <fix>3d</fix>
</trkpt>
<trkpt lat="-27.2612562" lon="151.2901493">
  <ele>373.06</ele>
  <time>2026-09-01T19:57:48Z</time>
  <course>357.23</course>
  <speed>25.428891049355652</speed>
  <fix>3d</fix>
</trkpt>
<trkpt lat="-27.2612785" lon="151.2901503">
  <ele>373.21</ele>
  <time>2026-09-01T19:57:48Z</time>
  <course>357.78</course>
  <speed>25.44</speed>
  <fix>3d</fix>
</trkpt>
<trkpt lat="-27.2612332" lon="151.2901483">
  <ele>373.06</ele>
  <time>2026-09-01T19:57:48Z</time>
  <course>357.21</course>
  <speed>25.438883623303912</speed>
  <fix>3d</fix>
</trkpt>
<trkpt lat="-27.2612785" lon="151.2901503">
  <ele>373.21</ele>
  <time>2026-09-01T19:57:48Z</time>
  <course>357.78</course>
  <speed>25.44</speed>
  <fix>3d</fix>
</trkpt>
<trkpt lat="-27.2612102" lon="151.2901473">
  <ele>373.06</ele>
  <time>2026-09-01T19:57:48Z</time>
  <course>357.14</course>
  <speed>25.43927082288327</speed>
  <fix>3d</fix>
</trkpt>
<trkpt lat="-27.2612328" lon="151.2901483">
  <ele>373.21</ele>
  <time>2026-09-01T19:57:48Z</time>
  <course>357.78</course>
  <speed>25.44</speed>
  <fix>3d</fix>
</trkpt>
<trkpt lat="-27.2611878" lon="151.2901463">
  <ele>373.07</ele>
  <time>2026-09-01T19:57:48Z</time>
  <course>357.13</course>
  <speed>25.449263250632622</speed>
  <fix>3d</fix>
</trkpt>
<trkpt lat="-27.2612328" lon="151.2901483">
  <ele>373.21</ele>
  <time>2026-09-01T19:57:48Z</time>
  <course>357.78</course>
  <speed>25.44</speed>
  <fix>3d</fix>
</trkpt>
<trkpt lat="-27.2611649" lon="151.2901453">
  <ele>373.07</ele>
  <time>2026-09-01T19:57:48Z</time>
  <course>357.15</course>
  <speed>25.449654221619593</speed>
  <fix>3d</fix>
</trkpt>
<trkpt lat="-27.2611872" lon="151.2901464">
  <ele>373.21</ele>
  <time>2026-09-01T19:57:48Z</time>
  <course>357.77</course>
  <speed>25.43</speed>
  <fix>3d</fix>
</trkpt>
<trkpt lat="-27.261142" lon="151.2901443">
  <ele>373.08</ele>
  <time>2026-09-01T19:57:48Z</time>
  <course>357.17</course>
  <speed>25.449654221619593</speed>
  <fix>3d</fix>
</trkpt>
<trkpt lat="-27.2611872" lon="151.2901464">
  <ele>373.21</ele>
  <time>2026-09-01T19:57:48Z</time>
  <course>357.77</course>
  <speed>25.43</speed>
  <fix>3d</fix>
</trkpt>
<trkpt lat="-27.2611191" lon="151.2901433">
  <ele>373.08</ele>
  <time>2026-09-01T19:57:48Z</time>
  <course>357.17</course>
  <speed>25.459646501866438</speed>
  <fix>3d</fix>
</trkpt>
<trkpt lat="-27.2611415" lon="151.2901444">
  <ele>373.22</ele>
  <time>2026-09-01T19:57:48Z</time>
  <course>357.76</course>
  <speed>25.43</speed>
  <fix>3d</fix>
</trkpt>
<trkpt lat="-27.2610964" lon="151.2901423">
  <ele>373.09</ele>
  <time>2026-09-01T19:57:48Z</time>
  <course>357.15</course>
  <speed>25.459646501866438</speed>
  <fix>3d</fix>
</trkpt>
<trkpt lat="-27.2611415" lon="151.2901444">
  <ele>373.22</ele>
  <time>2026-09-01T19:57:48Z</time>
  <course>357.76</course>
  <speed>25.43</speed>
  <fix>3d</fix>
</trkpt>
<trkpt lat="-27.2610735" lon="151.2901413">
  <ele>373.09</ele>
  <time>2026-09-01T19:57:48Z</time>
  <course>357.15</course>
  <speed>25.459646501866438</speed>
  <fix>3d</fix>
</trkpt>
<trkpt lat="-27.2610959" lon="151.2901423">
  <ele>373.24</ele>
  <time>2026-09-01T19:57:48Z</time>
  <course>357.75</course>
  <speed>25.43</speed>
  <fix>3d</fix>
</trkpt>
<trkpt lat="-27.2610505" lon="151.2901403">
  <ele>373.1</ele>
  <time>2026-09-01T19:57:48Z</time>
  <course>357.17</course>
  <speed>25.459646501866438</speed>
  <fix>3d</fix>
</trkpt>
<trkpt lat="-27.2610959" lon="151.2901423">
  <ele>373.24</ele>
  <time>2026-09-01T19:57:48Z</time>
  <course>357.75</course>
  <speed>25.43</speed>
  <fix>3d</fix>
</trkpt>
<trkpt lat="-27.2610276" lon="151.2901393">
  <ele>373.11</ele>
  <time>2026-09-01T19:57:48Z</time>
  <course>357.23</course>
  <speed>25.46963878817287</speed>
  <fix>3d</fix>
</trkpt>
<trkpt lat="-27.2610503" lon="151.2901403">
  <ele>373.25</ele>
  <time>2026-09-01T19:57:48Z</time>
  <course>357.75</course>
  <speed>25.42</speed>
  <fix>3d</fix>
</trkpt>
<trkpt lat="-27.2610044" lon="151.2901383">
  <ele>373.11</ele>
  <time>2026-09-01T19:57:48Z</time>
  <course>357.25</course>
  <speed>25.46963878817287</speed>
  <fix>3d</fix>
</trkpt>
<trkpt lat="-27.2610503" lon="151.2901403">
  <ele>373.25</ele>
  <time>2026-09-01T19:57:48Z</time>
  <course>357.75</course>
  <speed>25.42</speed>
  <fix>3d</fix>
</trkpt>
<trkpt lat="-27.2609815" lon="151.2901373">
  <ele>373.11</ele>
  <time>2026-09-01T19:57:48Z</time>
  <course>357.26</course>
  <speed>25.469248123963144</speed>
  <fix>3d</fix>
</trkpt>
<trkpt lat="-27.2610046" lon="151.2901383">
  <ele>373.26</ele>
  <time>2026-09-01T19:57:48Z</time>
  <course>357.76</course>
  <speed>25.42</speed>
  <fix>3d</fix>
</trkpt>
<trkpt lat="-27.2609586" lon="151.2901363">
  <ele>373.11</ele>
  <time>2026-09-01T19:57:48Z</time>
  <course>357.24</course>
  <speed>25.469248123963144</speed>
  <fix>3d</fix>
</trkpt>
<trkpt lat="-27.2610046" lon="151.2901383">
  <ele>373.26</ele>
  <time>2026-09-01T19:57:48Z</time>
  <course>357.76</course>
  <speed>25.42</speed>
  <fix>3d</fix>
</trkpt>
<trkpt lat="-27.260935" lon="151.2901352">
  <ele>373.11</ele>
  <time>2026-09-01T19:57:48Z</time>
  <course>357.21</course>
  <speed>25.479240569530326</speed>
  <fix>3d</fix>
</trkpt>
<trkpt lat="-27.2609589" lon="151.2901363">
  <ele>373.27</ele>
  <time>2026-09-01T19:57:48Z</time>
  <course>357.79</course>
  <speed>25.41</speed>
  <fix>3d</fix>
</trkpt>
<trkpt lat="-27.2609124" lon="151.2901343">
  <ele>373.11</ele>
  <time>2026-09-01T19:57:48Z</time>
  <course>357.22</course>
  <speed>25.468861380124554</speed>
  <fix>3d</fix>
</trkpt>
<trkpt lat="-27.2609589" lon="151.2901363">
  <ele>373.27</ele>
  <time>2026-09-01T19:57:48Z</time>
  <course>357.79</course>
  <speed>25.41</speed>
  <fix>3d</fix>
</trkpt>
<trkpt lat="-27.2608896" lon="151.2901333">
  <ele>373.11</ele>
  <time>2026-09-01T19:57:48Z</time>
  <course>357.22</course>
  <speed>25.468861380124554</speed>
  <fix>3d</fix>
</trkpt>
<trkpt lat="-27.2609132" lon="151.2901344">
  <ele>373.27</ele>
  <time>2026-09-01T19:57:48Z</time>
  <course>357.8</course>
  <speed>25.41</speed>
  <fix>3d</fix>
</trkpt>
<trkpt lat="-27.2608668" lon="151.2901323">
  <ele>373.11</ele>
  <time>2026-09-01T19:57:48Z</time>
  <course>357.26</course>
  <speed>25.468861380124554</speed>
  <fix>3d</fix>
</trkpt>
<trkpt lat="-27.2609132" lon="151.2901344">
  <ele>373.27</ele>
  <time>2026-09-01T19:57:48Z</time>
  <course>357.8</course>
  <speed>25.41</speed>
  <fix>3d</fix>
</trkpt>
<trkpt lat="-27.260844" lon="151.2901313">
  <ele>373.11</ele>
  <time>2026-09-01T19:57:48Z</time>
  <course>357.24</course>
  <speed>25.468861380124554</speed>
  <fix>3d</fix>
</trkpt>
<trkpt lat="-27.2608676" lon="151.2901324">
  <ele>373.28</ele>
  <time>2026-09-01T19:57:48Z</time>
  <course>357.81</course>
  <speed>25.41</speed>
  <fix>3d</fix>
</trkpt>
<trkpt lat="-27.2608211" lon="151.2901303">
  <ele>373.11</ele>
  <time>2026-09-01T19:57:48Z</time>
  <course>357.23</course>
  <speed>25.458868788695227</speed>
  <fix>3d</fix>
</trkpt>
<trkpt lat="-27.2608676" lon="151.2901324">
  <ele>373.28</ele>
  <time>2026-09-01T19:57:48Z</time>
  <course>357.81</course>
  <speed>25.41</speed>
  <fix>3d</fix>
</trkpt>
<trkpt lat="-27.2607983" lon="151.2901294">
  <ele>373.11</ele>
  <time>2026-09-01T19:57:48Z</time>
  <course>357.19</course>
  <speed>25.458868788695227</speed>
  <fix>3d</fix>
</trkpt>
<trkpt lat="-27.260822" lon="151.2901304">
  <ele>373.28</ele>
  <time>2026-09-01T19:57:48Z</time>
  <course>357.82</course>
  <speed>25.41</speed>
  <fix>3d</fix>
</trkpt>
<trkpt lat="-27.2607755" lon="151.2901284">
  <ele>373.11</ele>
  <time>2026-09-01T19:57:48Z</time>
  <course>357.17</course>
  <speed>25.448876203086062</speed>
  <fix>3d</fix>
</trkpt>
<trkpt lat="-27.260822" lon="151.2901304">
  <ele>373.28</ele>
  <time>2026-09-01T19:57:48Z</time>
  <course>357.82</course>
  <speed>25.41</speed>
  <fix>3d</fix>
</trkpt>
<trkpt lat="-27.2607528" lon="151.2901274">
  <ele>373.11</ele>
  <time>2026-09-01T19:57:48Z</time>
  <course>357.17</course>
  <speed>25.448876203086062</speed>
  <fix>3d</fix>
</trkpt>
<trkpt lat="-27.2607764" lon="151.2901284">
  <ele>373.28</ele>
  <time>2026-09-01T19:57:48Z</time>
  <course>357.81</course>
  <speed>25.4</speed>
  <fix>3d</fix>
</trkpt>
<trkpt lat="-27.26073" lon="151.2901264">
  <ele>373.11</ele>
  <time>2026-09-01T19:57:48Z</time>
  <course>357.17</course>
  <speed>25.449263250632622</speed>
  <fix>3d</fix>
</trkpt>
<trkpt lat="-27.2607764" lon="151.2901284">
  <ele>373.28</ele>
  <time>2026-09-01T19:57:48Z</time>
  <course>357.81</course>
  <speed>25.4</speed>
  <fix>3d</fix>
</trkpt>
<trkpt lat="-27.2607072" lon="151.2901254">
  <ele>373.11</ele>
  <time>2026-09-01T19:57:48Z</time>
  <course>357.18</course>
  <speed>25.449654221619593</speed>
  <fix>3d</fix>
</trkpt>
<trkpt lat="-27.2607308" lon="151.2901264">
  <ele>373.28</ele>
  <time>2026-09-01T19:57:48Z</time>
  <course>357.78</course>
  <speed>25.41</speed>
  <fix>3d</fix>
</trkpt>
<trkpt lat="-27.2606845" lon="151.2901244">
  <ele>373.11</ele>
  <time>2026-09-01T19:57:48Z</time>
  <course>357.21</course>
  <speed>25.450049115866165</speed>
  <fix>3d</fix>
</trkpt>
<trkpt lat="-27.2607308" lon="151.2901264">
  <ele>373.28</ele>
  <time>2026-09-01T19:57:48Z</time>
  <course>357.78</course>
  <speed>25.41</speed>
  <fix>3d</fix>
</trkpt>
<trkpt lat="-27.2606617" lon="151.2901234">
  <ele>373.11</ele>
  <time>2026-09-01T19:57:48Z</time>
  <course>357.19</course>
  <speed>25.450049115866165</speed>
  <fix>3d</fix>
</trkpt>
<trkpt lat="-27.2606852" lon="151.2901245">
  <ele>373.27</ele>
  <time>2026-09-01T19:57:48Z</time>
  <course>357.76</course>
  <speed>25.41</speed>
  <fix>3d</fix>
</trkpt>
<trkpt lat="-27.260639" lon="151.2901224">
  <ele>373.1</ele>
  <time>2026-09-01T19:57:48Z</time>
  <course>357.2</course>
  <speed>25.440056996791494</speed>
  <fix>3d</fix>
</trkpt>
<trkpt lat="-27.2606852" lon="151.2901245">
  <ele>373.27</ele>
  <time>2026-09-01T19:57:48Z</time>
  <course>357.76</course>
  <speed>25.41</speed>
  <fix>3d</fix>
</trkpt>
<trkpt lat="-27.2606162" lon="151.2901214">
  <ele>373.1</ele>
  <time>2026-09-01T19:57:48Z</time>
  <course>357.22</course>
  <speed>25.440056996791494</speed>
  <fix>3d</fix>
</trkpt>
<trkpt lat="-27.2606396" lon="151.2901225">
  <ele>373.27</ele>
  <time>2026-09-01T19:57:48Z</time>
  <course>357.74</course>
  <speed>25.41</speed>
  <fix>3d</fix>
</trkpt>
<trkpt lat="-27.2605934" lon="151.2901204">
  <ele>373.1</ele>
  <time>2026-09-01T19:57:48Z</time>
  <course>357.24</course>
  <speed>25.440056996791494</speed>
  <fix>3d</fix>
</trkpt>
<trkpt lat="-27.2606396" lon="151.2901225">
  <ele>373.27</ele>
  <time>2026-09-01T19:57:48Z</time>
  <course>357.74</course>
  <speed>25.41</speed>
  <fix>3d</fix>
</trkpt>
<trkpt lat="-27.2605704" lon="151.2901193">
  <ele>373.1</ele>
  <time>2026-09-01T19:57:48Z</time>
  <course>357.24</course>
  <speed>25.450049115866165</speed>
  <fix>3d</fix>
</trkpt>
<trkpt lat="-27.260594" lon="151.2901205">
  <ele>373.27</ele>
  <time>2026-09-01T19:57:48Z</time>
  <course>357.74</course>
  <speed>25.41</speed>
  <fix>3d</fix>
</trkpt>
<trkpt lat="-27.2605486" lon="151.2901184">
  <ele>373.11</ele>
  <time>2026-09-01T19:57:48Z</time>
  <course>357.23</course>
  <speed>25.450049115866165</speed>
  <fix>3d</fix>
</trkpt>
<trkpt lat="-27.260594" lon="151.2901205">
  <ele>373.27</ele>
  <time>2026-09-01T19:57:48Z</time>
  <course>357.74</course>
  <speed>25.41</speed>
  <fix>3d</fix>
</trkpt>
<trkpt lat="-27.2605256" lon="151.2901174">
  <ele>373.11</ele>
  <time>2026-09-01T19:57:48Z</time>
  <course>357.22</course>
  <speed>25.450049115866165</speed>
  <fix>3d</fix>
</trkpt>
<trkpt lat="-27.2605484" lon="151.2901185">
  <ele>373.27</ele>
  <time>2026-09-01T19:57:48Z</time>
  <course>357.75</course>
  <speed>25.41</speed>
  <fix>3d</fix>
</trkpt>
<trkpt lat="-27.2605028" lon="151.2901164">
  <ele>373.11</ele>
  <time>2026-09-01T19:57:48Z</time>
  <course>357.19</course>
  <speed>25.450049115866165</speed>
  <fix>3d</fix>
</trkpt>
<trkpt lat="-27.2605484" lon="151.2901185">
  <ele>373.27</ele>
  <time>2026-09-01T19:57:48Z</time>
  <course>357.75</course>
  <speed>25.41</speed>
  <fix>3d</fix>
</trkpt>
<trkpt lat="-27.26048" lon="151.2901154">
  <ele>373.11</ele>
  <time>2026-09-01T19:57:48Z</time>
  <course>357.16</course>
  <speed>25.450049115866165</speed>
  <fix>3d</fix>
</trkpt>
<trkpt lat="-27.2605027" lon="151.2901164">
  <ele>373.27</ele>
  <time>2026-09-01T19:57:48Z</time>
  <course>357.75</course>
  <speed>25.42</speed>
  <fix>3d</fix>
</trkpt>
<trkpt lat="-27.2604564" lon="151.2901143">
  <ele>373.12</ele>
  <time>2026-09-01T19:57:48Z</time>
  <course>357.22</course>
  <speed>25.450049115866165</speed>
  <fix>3d</fix>
</trkpt>
<trkpt lat="-27.2605027" lon="151.2901164">
  <ele>373.27</ele>
  <time>2026-09-01T19:57:48Z</time>
  <course>357.75</course>
  <speed>25.42</speed>
  <fix>3d</fix>
</trkpt>
<trkpt lat="-27.2604338" lon="151.2901133">
  <ele>373.12</ele>
  <time>2026-09-01T19:57:48Z</time>
  <course>357.24</course>
  <speed>25.450049115866165</speed>
  <fix>3d</fix>
</trkpt>
<trkpt lat="-27.260457" lon="151.2901144">
  <ele>373.27</ele>
  <time>2026-09-01T19:57:48Z</time>
  <course>357.74</course>
  <speed>25.42</speed>
  <fix>3d</fix>
</trkpt>
<trkpt lat="-27.260411" lon="151.2901123">
  <ele>373.12</ele>
  <time>2026-09-01T19:57:48Z</time>
  <course>357.24</course>
  <speed>25.450049115866165</speed>
  <fix>3d</fix>
</trkpt>
<trkpt lat="-27.260457" lon="151.2901144">
  <ele>373.27</ele>
  <time>2026-09-01T19:57:48Z</time>
  <course>357.74</course>
  <speed>25.42</speed>
  <fix>3d</fix>
</trkpt>
<trkpt lat="-27.2603881" lon="151.2901113">
  <ele>373.12</ele>
  <time>2026-09-01T19:57:48Z</time>
  <course>357.27</course>
  <speed>25.449654221619593</speed>
  <fix>3d</fix>
</trkpt>
<trkpt lat="-27.2604113" lon="151.2901124">
  <ele>373.27</ele>
  <time>2026-09-01T19:57:48Z</time>
  <course>357.75</course>
  <speed>25.41</speed>
  <fix>3d</fix>
</trkpt>
<trkpt lat="-27.2603653" lon="151.2901103">
  <ele>373.13</ele>
  <time>2026-09-01T19:57:48Z</time>
  <course>357.26</course>
  <speed>25.449654221619593</speed>
  <fix>3d</fix>
</trkpt>
<trkpt lat="-27.2604113" lon="151.2901124">
  <ele>373.27</ele>
  <time>2026-09-01T19:57:48Z</time>
  <course>357.75</course>
  <speed>25.41</speed>
  <fix>3d</fix>
</trkpt>
<trkpt lat="-27.2603423" lon="151.2901093">
  <ele>373.13</ele>
  <time>2026-09-01T19:57:48Z</time>
  <course>357.23</course>
  <speed>25.449263250632622</speed>
  <fix>3d</fix>
</trkpt>
<trkpt lat="-27.2603657" lon="151.2901104">
  <ele>373.28</ele>
  <time>2026-09-01T19:57:48Z</time>
  <course>357.77</course>
  <speed>25.41</speed>
  <fix>3d</fix>
</trkpt>
<trkpt lat="-27.2603194" lon="151.2901083">
  <ele>373.13</ele>
  <time>2026-09-01T19:57:48Z</time>
  <course>357.2</course>
  <speed>25.449263250632622</speed>
  <fix>3d</fix>
</trkpt>
<trkpt lat="-27.2603657" lon="151.2901104">
  <ele>373.28</ele>
  <time>2026-09-01T19:57:48Z</time>
  <course>357.77</course>
  <speed>25.41</speed>
  <fix>3d</fix>
</trkpt>
<trkpt lat="-27.2602966" lon="151.2901073">
  <ele>373.13</ele>
  <time>2026-09-01T19:57:48Z</time>
  <course>357.23</course>
  <speed>25.449263250632622</speed>
  <fix>3d</fix>
</trkpt>
<trkpt lat="-27.2603201" lon="151.2901084">
  <ele>373.28</ele>
  <time>2026-09-01T19:57:48Z</time>
  <course>357.79</course>
  <speed>25.41</speed>
  <fix>3d</fix>
</trkpt>
<trkpt lat="-27.2602737" lon="151.2901063">
  <ele>373.13</ele>
  <time>2026-09-01T19:57:48Z</time>
  <course>357.25</course>
  <speed>25.459255684328244</speed>
  <fix>3d</fix>
</trkpt>
<trkpt lat="-27.2603201" lon="151.2901084">
  <ele>373.28</ele>
  <time>2026-09-01T19:57:48Z</time>
  <course>357.79</course>
  <speed>25.41</speed>
  <fix>3d</fix>
</trkpt>
<trkpt lat="-27.2602508" lon="151.2901053">
  <ele>373.13</ele>
  <time>2026-09-01T19:57:48Z</time>
  <course>357.28</course>
  <speed>25.459255684328244</speed>
  <fix>3d</fix>
</trkpt>
<trkpt lat="-27.2602745" lon="151.2901064">
  <ele>373.28</ele>
  <time>2026-09-01T19:57:48Z</time>
  <course>357.8</course>
  <speed>25.41</speed>
  <fix>3d</fix>
</trkpt>
<trkpt lat="-27.2602281" lon="151.2901044">
  <ele>373.13</ele>
  <time>2026-09-01T19:57:48Z</time>
  <course>357.33</course>
  <speed>25.449263250632622</speed>
  <fix>3d</fix>
</trkpt>
<trkpt lat="-27.2602745" lon="151.2901064">
  <ele>373.28</ele>
  <time>2026-09-01T19:57:48Z</time>
  <course>357.8</course>
  <speed>25.41</speed>
  <fix>3d</fix>
</trkpt>
<trkpt lat="-27.2602053" lon="151.2901034">
  <ele>373.12</ele>
  <time>2026-09-01T19:57:48Z</time>
  <course>357.29</course>
  <speed>25.449263250632622</speed>
  <fix>3d</fix>
</trkpt>
<trkpt lat="-27.2602289" lon="151.2901044">
  <ele>373.28</ele>
  <time>2026-09-01T19:57:48Z</time>
  <course>357.8</course>
  <speed>25.42</speed>
  <fix>3d</fix>
</trkpt>
<trkpt lat="-27.2601827" lon="151.2901024">
  <ele>373.12</ele>
  <time>2026-09-01T19:57:48Z</time>
  <course>357.24</course>
  <speed>25.43927082288327</speed>
  <fix>3d</fix>
</trkpt>
<trkpt lat="-27.2602289" lon="151.2901044">
  <ele>373.28</ele>
  <time>2026-09-01T19:57:48Z</time>
  <course>357.8</course>
  <speed>25.42</speed>
  <fix>3d</fix>
</trkpt>
<trkpt lat="-27.26016" lon="151.2901014">
  <ele>373.11</ele>
  <time>2026-09-01T19:57:48Z</time>
  <course>357.29</course>
  <speed>25.4292784010872</speed>
  <fix>3d</fix>
</trkpt>
<trkpt lat="-27.2601832" lon="151.2901025">
  <ele>373.27</ele>
  <time>2026-09-01T19:57:48Z</time>
  <course>357.8</course>
  <speed>25.41</speed>
  <fix>3d</fix>
</trkpt>
<trkpt lat="-27.2601373" lon="151.2901004">
  <ele>373.11</ele>
  <time>2026-09-01T19:57:48Z</time>
  <course>357.32</course>
  <speed>25.419285985251435</speed>
  <fix>3d</fix>
</trkpt>
<trkpt lat="-27.2601832" lon="151.2901025">
  <ele>373.27</ele>
  <time>2026-09-01T19:57:48Z</time>
  <course>357.8</course>
  <speed>25.41</speed>
  <fix>3d</fix>
</trkpt>
<trkpt lat="-27.2601146" lon="151.2900994">
  <ele>373.11</ele>
  <time>2026-09-01T19:57:48Z</time>
  <course>357.29</course>
  <speed>25.408905918988324</speed>
  <fix>3d</fix>
</trkpt>
<trkpt lat="-27.2601376" lon="151.2901006">
  <ele>373.27</ele>
  <time>2026-09-01T19:57:48Z</time>
  <course>357.8</course>
  <speed>25.41</speed>
  <fix>3d</fix>
</trkpt>
<trkpt lat="-27.260092" lon="151.2900985">
  <ele>373.11</ele>
  <time>2026-09-01T19:57:48Z</time>
  <course>357.29</course>
  <speed>25.408905918988324</speed>
  <fix>3d</fix>
</trkpt>
<trkpt lat="-27.2601376" lon="151.2901006">
  <ele>373.27</ele>
  <time>2026-09-01T19:57:48Z</time>
  <course>357.8</course>
  <speed>25.41</speed>
  <fix>3d</fix>
</trkpt>
<trkpt lat="-27.2600693" lon="151.2900975">
  <ele>373.11</ele>
  <time>2026-09-01T19:57:48Z</time>
  <course>357.29</course>
  <speed>25.398913362583052</speed>
  <fix>3d</fix>
</trkpt>
<trkpt lat="-27.260092" lon="151.2900986">
  <ele>373.27</ele>
  <time>2026-09-01T19:57:48Z</time>
  <course>357.81</course>
  <speed>25.4</speed>
  <fix>3d</fix>
</trkpt>
<trkpt lat="-27.2600467" lon="151.2900965">
  <ele>373.1</ele>
  <time>2026-09-01T19:57:48Z</time>
  <course>357.31</course>
  <speed>25.398913362583052</speed>
  <fix>3d</fix>
</trkpt>
<trkpt lat="-27.260092" lon="151.2900986">
  <ele>373.27</ele>
  <time>2026-09-01T19:57:48Z</time>
  <course>357.81</course>
  <speed>25.4</speed>
  <fix>3d</fix>
</trkpt>
<trkpt lat="-27.260024" lon="151.2900955">
  <ele>373.1</ele>
  <time>2026-09-01T19:57:48Z</time>
  <course>357.32</course>
  <speed>25.398913362583052</speed>
  <fix>3d</fix>
</trkpt>
<trkpt lat="-27.2600464" lon="151.2900967">
  <ele>373.26</ele>
  <time>2026-09-01T19:57:48Z</time>
  <course>357.81</course>
  <speed>25.41</speed>
  <fix>3d</fix>
</trkpt>
<trkpt lat="-27.2600013" lon="151.2900946">
  <ele>373.09</ele>
  <time>2026-09-01T19:57:48Z</time>
  <course>357.29</course>
  <speed>25.398913362583052</speed>
  <fix>3d</fix>
</trkpt>
<trkpt lat="-27.2600464" lon="151.2900967">
  <ele>373.26</ele>
  <time>2026-09-01T19:57:48Z</time>
  <course>357.81</course>
  <speed>25.41</speed>
  <fix>3d</fix>
</trkpt>
<trkpt lat="-27.2599786" lon="151.2900936">
  <ele>373.09</ele>
  <time>2026-09-01T19:57:48Z</time>
  <course>357.28</course>
  <speed>25.388920812039256</speed>
  <fix>3d</fix>
</trkpt>
<trkpt lat="-27.2600464" lon="151.2900967">
  <ele>373.26</ele>
  <time>2026-09-01T19:57:48Z</time>
  <course>357.81</course>
  <speed>25.41</speed>
  <fix>3d</fix>
</trkpt>
<trkpt lat="-27.259956" lon="151.2900926">
  <ele>373.08</ele>
  <time>2026-09-01T19:57:48Z</time>
  <course>357.26</course>
  <speed>25.388920812039256</speed>
  <fix>3d</fix>
</trkpt>
<trkpt lat="-27.2600007" lon="151.2900947">
  <ele>373.25</ele>
  <time>2026-09-01T19:57:48Z</time>
  <course>357.81</course>
  <speed>25.41</speed>
  <fix>3d</fix>
</trkpt>
<trkpt lat="-27.2599334" lon="151.2900917">
  <ele>373.07</ele>
  <time>2026-09-01T19:57:48Z</time>
  <course>357.25</course>
  <speed>25.378928267363854</speed>
  <fix>3d</fix>
</trkpt>
<trkpt lat="-27.259955" lon="151.2900927">
  <ele>373.24</ele>
  <time>2026-09-01T19:57:48Z</time>
  <course>357.81</course>
  <speed>25.42</speed>
  <fix>3d</fix>
</trkpt>
<trkpt lat="-27.2599107" lon="151.2900907">
  <ele>373.07</ele>
  <time>2026-09-01T19:57:48Z</time>
  <course>357.3</course>
  <speed>25.378928267363854</speed>
  <fix>3d</fix>
</trkpt>
<trkpt lat="-27.259955" lon="151.2900927">
  <ele>373.24</ele>
  <time>2026-09-01T19:57:48Z</time>
  <course>357.81</course>
  <speed>25.42</speed>
  <fix>3d</fix>
</trkpt>
<trkpt lat="-27.2598881" lon="151.2900897">
  <ele>373.06</ele>
  <time>2026-09-01T19:57:48Z</time>
  <course>357.32</course>
  <speed>25.378928267363854</speed>
  <fix>3d</fix>
</trkpt>
<trkpt lat="-27.2599094" lon="151.2900908">
  <ele>373.23</ele>
  <time>2026-09-01T19:57:48Z</time>
  <course>357.81</course>
  <speed>25.43</speed>
  <fix>3d</fix>
</trkpt>
<trkpt lat="-27.2598651" lon="151.2900887">
  <ele>373.05</ele>
  <time>2026-09-01T19:57:48Z</time>
  <course>357.3</course>
  <speed>25.378928267363854</speed>
  <fix>3d</fix>
</trkpt>
<trkpt lat="-27.2599094" lon="151.2900908">
  <ele>373.23</ele>
  <time>2026-09-01T19:57:48Z</time>
  <course>357.81</course>
  <speed>25.43</speed>
  <fix>3d</fix>
</trkpt>
<trkpt lat="-27.2598424" lon="151.2900878">
  <ele>373.05</ele>
  <time>2026-09-01T19:57:48Z</time>
  <course>357.28</course>
  <speed>25.388920812039256</speed>
  <fix>3d</fix>
</trkpt>
<trkpt lat="-27.2598637" lon="151.2900887">
  <ele>373.22</ele>
  <time>2026-09-01T19:57:48Z</time>
  <course>357.8</course>
  <speed>25.43</speed>
  <fix>3d</fix>
</trkpt>
<trkpt lat="-27.2598195" lon="151.2900868">
  <ele>373.04</ele>
  <time>2026-09-01T19:57:48Z</time>
  <course>357.23</course>
  <speed>25.38930877357633</speed>
  <fix>3d</fix>
</trkpt>
<trkpt lat="-27.2598637" lon="151.2900887">
  <ele>373.22</ele>
  <time>2026-09-01T19:57:48Z</time>
  <course>357.8</course>
  <speed>25.43</speed>
  <fix>3d</fix>
</trkpt>
<trkpt lat="-27.2597967" lon="151.2900858">
  <ele>373.03</ele>
  <time>2026-09-01T19:57:48Z</time>
  <course>357.26</course>
  <speed>25.39930117148895</speed>
  <fix>3d</fix>
</trkpt>
<trkpt lat="-27.2598181" lon="151.2900868">
  <ele>373.2</ele>
  <time>2026-09-01T19:57:48Z</time>
  <course>357.79</course>
  <speed>25.44</speed>
  <fix>3d</fix>
</trkpt>
<trkpt lat="-27.2597739" lon="151.2900848">
  <ele>373.02</ele>
  <time>2026-09-01T19:57:48Z</time>
  <course>357.32</course>
  <speed>25.39930117148895</speed>
  <fix>3d</fix>
</trkpt>
<trkpt lat="-27.2598181" lon="151.2900868">
  <ele>373.2</ele>
  <time>2026-09-01T19:57:48Z</time>
  <course>357.79</course>
  <speed>25.44</speed>
  <fix>3d</fix>
</trkpt>
<trkpt lat="-27.259751" lon="151.2900838">
  <ele>373.02</ele>
  <time>2026-09-01T19:57:48Z</time>
  <course>357.39</course>
  <speed>25.409293575383003</speed>
  <fix>3d</fix>
</trkpt>
<trkpt lat="-27.2597724" lon="151.2900848">
  <ele>373.19</ele>
  <time>2026-09-01T19:57:48Z</time>
  <course>357.79</course>
  <speed>25.44</speed>
  <fix>3d</fix>
</trkpt>
<trkpt lat="-27.2597282" lon="151.2900828">
  <ele>373.01</ele>
  <time>2026-09-01T19:57:48Z</time>
  <course>357.4</course>
  <speed>25.408905918988324</speed>
  <fix>3d</fix>
</trkpt>
<trkpt lat="-27.2597724" lon="151.2900848">
  <ele>373.19</ele>
  <time>2026-09-01T19:57:48Z</time>
  <course>357.79</course>
  <speed>25.44</speed>
  <fix>3d</fix>
</trkpt>
<trkpt lat="-27.2597053" lon="151.2900818">
  <ele>373.01</ele>
  <time>2026-09-01T19:57:48Z</time>
  <course>357.38</course>
  <speed>25.41889848124816</speed>
  <fix>3d</fix>
</trkpt>
<trkpt lat="-27.2597267" lon="151.2900828">
  <ele>373.18</ele>
  <time>2026-09-01T19:57:48Z</time>
  <course>357.8</course>
  <speed>25.45</speed>
  <fix>3d</fix>
</trkpt>
<trkpt lat="-27.2596824" lon="151.2900809">
  <ele>373.0</ele>
  <time>2026-09-01T19:57:48Z</time>
  <course>357.38</course>
  <speed>25.428507624318026</speed>
  <fix>3d</fix>
</trkpt>
<trkpt lat="-27.2597267" lon="151.2900828">
  <ele>373.18</ele>
  <time>2026-09-01T19:57:48Z</time>
  <course>357.8</course>
  <speed>25.45</speed>
  <fix>3d</fix>
</trkpt>
<trkpt lat="-27.2596595" lon="151.2900799">
  <ele>373.0</ele>
  <time>2026-09-01T19:57:48Z</time>
  <course>357.31</course>
  <speed>25.428507624318026</speed>
  <fix>3d</fix>
</trkpt>
<trkpt lat="-27.259681" lon="151.2900809">
  <ele>373.17</ele>
  <time>2026-09-01T19:57:48Z</time>
  <course>357.82</course>
  <speed>25.46</speed>
  <fix>3d</fix>
</trkpt>
<trkpt lat="-27.2596366" lon="151.2900789">
  <ele>373.0</ele>
  <time>2026-09-01T19:57:48Z</time>
  <course>357.3</course>
  <speed>25.43850034888063</speed>
  <fix>3d</fix>
</trkpt>
<trkpt lat="-27.259681" lon="151.2900809">
  <ele>373.17</ele>
  <time>2026-09-01T19:57:48Z</time>
  <course>357.82</course>
  <speed>25.46</speed>
  <fix>3d</fix>
</trkpt>
<trkpt lat="-27.2596137" lon="151.2900779">
  <ele>372.99</ele>
  <time>2026-09-01T19:57:48Z</time>
  <course>357.3</course>
  <speed>25.43850034888063</speed>
  <fix>3d</fix>
</trkpt>
<trkpt lat="-27.2596353" lon="151.290079">
  <ele>373.16</ele>
  <time>2026-09-01T19:57:48Z</time>
  <course>357.83</course>
  <speed>25.46</speed>
  <fix>3d</fix>
</trkpt>
<trkpt lat="-27.2595908" lon="151.290077">
  <ele>372.99</ele>
  <time>2026-09-01T19:57:48Z</time>
  <course>357.28</course>
  <speed>25.448876203086062</speed>
  <fix>3d</fix>
</trkpt>
<trkpt lat="-27.2596353" lon="151.290079">
  <ele>373.16</ele>
  <time>2026-09-01T19:57:48Z</time>
  <course>357.83</course>
  <speed>25.46</speed>
  <fix>3d</fix>
</trkpt>
<trkpt lat="-27.2595678" lon="151.290076">
  <ele>373.0</ele>
  <time>2026-09-01T19:57:48Z</time>
  <course>357.29</course>
  <speed>25.458868788695227</speed>
  <fix>3d</fix>
</trkpt>
<trkpt lat="-27.2595896" lon="151.290077">
  <ele>373.16</ele>
  <time>2026-09-01T19:57:48Z</time>
  <course>357.82</course>
  <speed>25.47</speed>
  <fix>3d</fix>
</trkpt>
<trkpt lat="-27.2595449" lon="151.290075">
  <ele>373.0</ele>
  <time>2026-09-01T19:57:48Z</time>
  <course>357.31</course>
  <speed>25.469248123963144</speed>
  <fix>3d</fix>
</trkpt>
<trkpt lat="-27.2595896" lon="151.290077">
  <ele>373.16</ele>
  <time>2026-09-01T19:57:48Z</time>
  <course>357.82</course>
  <speed>25.47</speed>
  <fix>3d</fix>
</trkpt>
<trkpt lat="-27.259522" lon="151.290074">
  <ele>373.0</ele>
  <time>2026-09-01T19:57:48Z</time>
  <course>357.33</course>
  <speed>25.479240569530326</speed>
  <fix>3d</fix>
</trkpt>
<trkpt lat="-27.2595896" lon="151.290077">
  <ele>373.16</ele>
  <time>2026-09-01T19:57:48Z</time>
  <course>357.82</course>
  <speed>25.47</speed>
  <fix>3d</fix>
</trkpt>
<trkpt lat="-27.2594991" lon="151.290073">
  <ele>373.01</ele>
  <time>2026-09-01T19:57:48Z</time>
  <course>357.32</course>
  <speed>25.469248123963144</speed>
  <fix>3d</fix>
</trkpt>
<trkpt lat="-27.2595438" lon="151.2900751">
  <ele>373.17</ele>
  <time>2026-09-01T19:57:48Z</time>
  <course>357.79</course>
  <speed>25.47</speed>
  <fix>3d</fix>
</trkpt>
<trkpt lat="-27.2594763" lon="151.290072">
  <ele>373.01</ele>
  <time>2026-09-01T19:57:48Z</time>
  <course>357.3</course>
  <speed>25.46963878817287</speed>
  <fix>3d</fix>
</trkpt>
<trkpt lat="-27.2595438" lon="151.2900751">
  <ele>373.17</ele>
  <time>2026-09-01T19:57:48Z</time>
  <course>357.79</course>
  <speed>25.47</speed>
  <fix>3d</fix>
</trkpt>
<trkpt lat="-27.2594536" lon="151.290071">
  <ele>373.02</ele>
  <time>2026-09-01T19:57:48Z</time>
  <course>357.28</course>
  <speed>25.459646501866438</speed>
  <fix>3d</fix>
</trkpt>
<trkpt lat="-27.259498" lon="151.2900731">
  <ele>373.17</ele>
  <time>2026-09-01T19:57:48Z</time>
  <course>357.77</course>
  <speed>25.48</speed>
  <fix>3d</fix>
</trkpt>
<trkpt lat="-27.2594308" lon="151.29007">
  <ele>373.02</ele>
  <time>2026-09-01T19:57:48Z</time>
  <course>357.27</course>
  <speed>25.459646501866438</speed>
  <fix>3d</fix>
</trkpt>
<trkpt lat="-27.259498" lon="151.2900731">
  <ele>373.17</ele>
  <time>2026-09-01T19:57:48Z</time>
  <course>357.77</course>
  <speed>25.48</speed>
  <fix>3d</fix>
</trkpt>
<trkpt lat="-27.2594081" lon="151.290069">
  <ele>373.02</ele>
  <time>2026-09-01T19:57:48Z</time>
  <course>357.27</course>
  <speed>25.460041241129208</speed>
  <fix>3d</fix>
</trkpt>
<trkpt lat="-27.2594522" lon="151.290071">
  <ele>373.17</ele>
  <time>2026-09-01T19:57:48Z</time>
  <course>357.76</course>
  <speed>25.48</speed>
  <fix>3d</fix>
</trkpt>
<trkpt lat="-27.2593855" lon="151.290068">
  <ele>373.02</ele>
  <time>2026-09-01T19:57:48Z</time>
  <course>357.26</course>
  <speed>25.450049115866165</speed>
  <fix>3d</fix>
</trkpt>
<trkpt lat="-27.2594522" lon="151.290071">
  <ele>373.17</ele>
  <time>2026-09-01T19:57:48Z</time>
  <course>357.76</course>
  <speed>25.48</speed>
  <fix>3d</fix>
</trkpt>
<trkpt lat="-27.2593628" lon="151.290067">
  <ele>373.02</ele>
  <time>2026-09-01T19:57:48Z</time>
  <course>357.33</course>
  <speed>25.450049115866165</speed>
  <fix>3d</fix>
</trkpt>
<trkpt lat="-27.2594065" lon="151.290069">
  <ele>373.18</ele>
  <time>2026-09-01T19:57:48Z</time>
  <course>357.75</course>
  <speed>25.48</speed>
  <fix>3d</fix>
</trkpt>
<trkpt lat="-27.2593401" lon="151.290066">
  <ele>373.03</ele>
  <time>2026-09-01T19:57:48Z</time>
  <course>357.34</course>
  <speed>25.440056996791494</speed>
  <fix>3d</fix>
</trkpt>
<trkpt lat="-27.2594065" lon="151.290069">
  <ele>373.18</ele>
  <time>2026-09-01T19:57:48Z</time>
  <course>357.75</course>
  <speed>25.48</speed>
  <fix>3d</fix>
</trkpt>
<trkpt lat="-27.2593173" lon="151.290065">
  <ele>373.03</ele>
  <time>2026-09-01T19:57:48Z</time>
  <course>357.32</course>
  <speed>25.439661947439475</speed>
  <fix>3d</fix>
</trkpt>
<trkpt lat="-27.2593608" lon="151.290067">
  <ele>373.19</ele>
  <time>2026-09-01T19:57:48Z</time>
  <course>357.74</course>
  <speed>25.47</speed>
  <fix>3d</fix>
</trkpt>
<trkpt lat="-27.2592942" lon="151.290064">
  <ele>373.03</ele>
  <time>2026-09-01T19:57:48Z</time>
  <course>357.29</course>
  <speed>25.429669679333234</speed>
  <fix>3d</fix>
</trkpt>
<trkpt lat="-27.2593151" lon="151.290065">
  <ele>373.19</ele>
  <time>2026-09-01T19:57:48Z</time>
  <course>357.75</course>
  <speed>25.47</speed>
  <fix>3d</fix>
</trkpt>
<trkpt lat="-27.2592713" lon="151.290063">
  <ele>373.04</ele>
  <time>2026-09-01T19:57:48Z</time>
  <course>357.32</course>
  <speed>25.429669679333234</speed>
  <fix>3d</fix>
</trkpt>
<trkpt lat="-27.2593151" lon="151.290065">
  <ele>373.19</ele>
  <time>2026-09-01T19:57:48Z</time>
  <course>357.75</course>
  <speed>25.47</speed>
  <fix>3d</fix>
</trkpt>
<trkpt lat="-27.2592484" lon="151.290062">
  <ele>373.04</ele>
  <time>2026-09-01T19:57:48Z</time>
  <course>357.37</course>
  <speed>25.43927082288327</speed>
  <fix>3d</fix>
</trkpt>
<trkpt lat="-27.2592693" lon="151.290063">
  <ele>373.19</ele>
  <time>2026-09-01T19:57:48Z</time>
  <course>357.76</course>
  <speed>25.47</speed>
  <fix>3d</fix>
</trkpt>
<trkpt lat="-27.2592255" lon="151.290061">
  <ele>373.04</ele>
  <time>2026-09-01T19:57:48Z</time>
  <course>357.36</course>
  <speed>25.43927082288327</speed>
  <fix>3d</fix>
</trkpt>
<trkpt lat="-27.2592693" lon="151.290063">
  <ele>373.19</ele>
  <time>2026-09-01T19:57:48Z</time>
  <course>357.76</course>
  <speed>25.47</speed>
  <fix>3d</fix>
</trkpt>
<trkpt lat="-27.2592026" lon="151.29006">
  <ele>373.04</ele>
  <time>2026-09-01T19:57:48Z</time>
  <course>357.35</course>
  <speed>25.449263250632622</speed>
  <fix>3d</fix>
</trkpt>
<trkpt lat="-27.2592236" lon="151.2900609">
  <ele>373.2</ele>
  <time>2026-09-01T19:57:48Z</time>
  <course>357.77</course>
  <speed>25.47</speed>
  <fix>3d</fix>
</trkpt>
<trkpt lat="-27.2591796" lon="151.290059">
  <ele>373.04</ele>
  <time>2026-09-01T19:57:48Z</time>
  <course>357.33</course>
  <speed>25.459255684328244</speed>
  <fix>3d</fix>
</trkpt>
<trkpt lat="-27.2592236" lon="151.2900609">
  <ele>373.2</ele>
  <time>2026-09-01T19:57:48Z</time>
  <course>357.77</course>
  <speed>25.47</speed>
  <fix>3d</fix>
</trkpt>
<trkpt lat="-27.2591566" lon="151.290058">
  <ele>373.04</ele>
  <time>2026-09-01T19:57:48Z</time>
  <course>357.29</course>
  <speed>25.459255684328244</speed>
  <fix>3d</fix>
</trkpt>
<trkpt lat="-27.2591779" lon="151.2900589">
  <ele>373.2</ele>
  <time>2026-09-01T19:57:48Z</time>
  <course>357.78</course>
  <speed>25.47</speed>
  <fix>3d</fix>
</trkpt>
<trkpt lat="-27.2591336" lon="151.290057">
  <ele>373.04</ele>
  <time>2026-09-01T19:57:48Z</time>
  <course>357.31</course>
  <speed>25.469248123963144</speed>
  <fix>3d</fix>
</trkpt>
<trkpt lat="-27.2591779" lon="151.2900589">
  <ele>373.2</ele>
  <time>2026-09-01T19:57:48Z</time>
  <course>357.78</course>
  <speed>25.47</speed>
  <fix>3d</fix>
</trkpt>
<trkpt lat="-27.2591106" lon="151.290056">
  <ele>373.05</ele>
  <time>2026-09-01T19:57:48Z</time>
  <course>357.31</course>
  <speed>25.469248123963144</speed>
  <fix>3d</fix>
</trkpt>
<trkpt lat="-27.2591322" lon="151.290057">
  <ele>373.21</ele>
  <time>2026-09-01T19:57:48Z</time>
  <course>357.78</course>
  <speed>25.47</speed>
  <fix>3d</fix>
</trkpt>
<trkpt lat="-27.2590876" lon="151.290055">
  <ele>373.05</ele>
  <time>2026-09-01T19:57:48Z</time>
  <course>357.26</course>
  <speed>25.479240569530326</speed>
  <fix>3d</fix>
</trkpt>
<trkpt lat="-27.2591322" lon="151.290057">
  <ele>373.21</ele>
  <time>2026-09-01T19:57:48Z</time>
  <course>357.78</course>
  <speed>25.47</speed>
  <fix>3d</fix>
</trkpt>
<trkpt lat="-27.2590646" lon="151.290054">
  <ele>373.05</ele>
  <time>2026-09-01T19:57:48Z</time>
  <course>357.26</course>
  <speed>25.479240569530326</speed>
  <fix>3d</fix>
</trkpt>
<trkpt lat="-27.2590865" lon="151.290055">
  <ele>373.22</ele>
  <time>2026-09-01T19:57:48Z</time>
  <course>357.77</course>
  <speed>25.46</speed>
  <fix>3d</fix>
</trkpt>
<trkpt lat="-27.2590416" lon="151.290053">
  <ele>373.05</ele>
  <time>2026-09-01T19:57:48Z</time>
  <course>357.32</course>
  <speed>25.479631080531757</speed>
  <fix>3d</fix>
</trkpt>
<trkpt lat="-27.2590865" lon="151.290055">
  <ele>373.22</ele>
  <time>2026-09-01T19:57:48Z</time>
  <course>357.77</course>
  <speed>25.46</speed>
  <fix>3d</fix>
</trkpt>
<trkpt lat="-27.2590186" lon="151.290052">
  <ele>373.06</ele>
  <time>2026-09-01T19:57:48Z</time>
  <course>357.35</course>
  <speed>25.489623378935985</speed>
  <fix>3d</fix>
</trkpt>
<trkpt lat="-27.2590865" lon="151.290055">
  <ele>373.22</ele>
  <time>2026-09-01T19:57:48Z</time>
  <course>357.77</course>
  <speed>25.46</speed>
  <fix>3d</fix>
</trkpt>
<trkpt lat="-27.2589957" lon="151.290051">
  <ele>373.06</ele>
  <time>2026-09-01T19:57:48Z</time>
  <course>357.28</course>
  <speed>25.49001765397584</speed>
  <fix>3d</fix>
</trkpt>
<trkpt lat="-27.2590407" lon="151.290053">
  <ele>373.22</ele>
  <time>2026-09-01T19:57:48Z</time>
  <course>357.75</course>
  <speed>25.46</speed>
  <fix>3d</fix>
</trkpt>
<trkpt lat="-27.2589728" lon="151.2900499">
  <ele>373.07</ele>
  <time>2026-09-01T19:57:48Z</time>
  <course>357.22</course>
  <speed>25.48002551019131</speed>
  <fix>3d</fix>
</trkpt>
<trkpt lat="-27.2590407" lon="151.290053">
  <ele>373.22</ele>
  <time>2026-09-01T19:57:48Z</time>
  <course>357.75</course>
  <speed>25.46</speed>
  <fix>3d</fix>
</trkpt>
<trkpt lat="-27.25895" lon="151.2900489">
  <ele>373.07</ele>
  <time>2026-09-01T19:57:48Z</time>
  <course>357.2</course>
  <speed>25.480423858327004</speed>
  <fix>3d</fix>
</trkpt>
<trkpt lat="-27.2589949" lon="151.290051">
  <ele>373.23</ele>
  <time>2026-09-01T19:57:48Z</time>
  <course>357.74</course>
  <speed>25.45</speed>
  <fix>3d</fix>
</trkpt>
<trkpt lat="-27.2589272" lon="151.2900479">
  <ele>373.08</ele>
  <time>2026-09-01T19:57:48Z</time>
  <course>357.24</course>
  <speed>25.480423858327004</speed>
  <fix>3d</fix>
</trkpt>
<trkpt lat="-27.2589949" lon="151.290051">
  <ele>373.23</ele>
  <time>2026-09-01T19:57:48Z</time>
  <course>357.74</course>
  <speed>25.45</speed>
  <fix>3d</fix>
</trkpt>
<trkpt lat="-27.2589047" lon="151.2900469">
  <ele>373.08</ele>
  <time>2026-09-01T19:57:48Z</time>
  <course>357.28</course>
  <speed>25.47083430121597</speed>
  <fix>3d</fix>
</trkpt>
<trkpt lat="-27.2589492" lon="151.2900489">
  <ele>373.24</ele>
  <time>2026-09-01T19:57:48Z</time>
  <course>357.72</course>
  <speed>25.45</speed>
  <fix>3d</fix>
</trkpt>
<trkpt lat="-27.2588819" lon="151.2900459">
  <ele>373.08</ele>
  <time>2026-09-01T19:57:48Z</time>
  <course>357.3</course>
  <speed>25.460842484097025</speed>
  <fix>3d</fix>
</trkpt>
<trkpt lat="-27.2589492" lon="151.2900489">
  <ele>373.24</ele>
  <time>2026-09-01T19:57:48Z</time>
  <course>357.72</course>
  <speed>25.45</speed>
  <fix>3d</fix>
</trkpt>
<trkpt lat="-27.2588592" lon="151.2900448">
  <ele>373.08</ele>
  <time>2026-09-01T19:57:48Z</time>
  <course>357.29</course>
  <speed>25.460842484097025</speed>
  <fix>3d</fix>
</trkpt>
<trkpt lat="-27.2589036" lon="151.2900469">
  <ele>373.24</ele>
  <time>2026-09-01T19:57:48Z</time>
  <course>357.7</course>
  <speed>25.44</speed>
  <fix>3d</fix>
</trkpt>
<trkpt lat="-27.2588364" lon="151.2900438">
  <ele>373.09</ele>
  <time>2026-09-01T19:57:48Z</time>
  <course>357.3</course>
  <speed>25.450447933189704</speed>
  <fix>3d</fix>
</trkpt>
<trkpt lat="-27.2589036" lon="151.2900469">
  <ele>373.24</ele>
  <time>2026-09-01T19:57:48Z</time>
  <course>357.7</course>
  <speed>25.44</speed>
  <fix>3d</fix>
</trkpt>
<trkpt lat="-27.2588135" lon="151.2900428">
  <ele>373.09</ele>
  <time>2026-09-01T19:57:48Z</time>
  <course>357.29</course>
  <speed>25.450447933189704</speed>
  <fix>3d</fix>
</trkpt>
<trkpt lat="-27.2588579" lon="151.2900448">
  <ele>373.25</ele>
  <time>2026-09-01T19:57:48Z</time>
  <course>357.7</course>
  <speed>25.44</speed>
  <fix>3d</fix>
</trkpt>
<trkpt lat="-27.2587907" lon="151.2900418">
  <ele>373.1</ele>
  <time>2026-09-01T19:57:48Z</time>
  <course>357.32</course>
  <speed>25.4404559707565</speed>
  <fix>3d</fix>
</trkpt>
<trkpt lat="-27.2588579" lon="151.2900448">
  <ele>373.25</ele>
  <time>2026-09-01T19:57:48Z</time>
  <course>357.7</course>
  <speed>25.44</speed>
  <fix>3d</fix>
</trkpt>
<trkpt lat="-27.258768" lon="151.2900407">
  <ele>373.11</ele>
  <time>2026-09-01T19:57:48Z</time>
  <course>357.31</course>
  <speed>25.430464014641966</speed>
  <fix>3d</fix>
</trkpt>
<trkpt lat="-27.2588123" lon="151.2900427">
  <ele>373.26</ele>
  <time>2026-09-01T19:57:48Z</time>
  <course>357.7</course>
  <speed>25.43</speed>
  <fix>3d</fix>
</trkpt>
<trkpt lat="-27.2587452" lon="151.2900397">
  <ele>373.11</ele>
  <time>2026-09-01T19:57:48Z</time>
  <course>357.23</course>
  <speed>25.430464014641966</speed>
  <fix>3d</fix>
</trkpt>
<trkpt lat="-27.2588123" lon="151.2900427">
  <ele>373.26</ele>
  <time>2026-09-01T19:57:48Z</time>
  <course>357.7</course>
  <speed>25.43</speed>
  <fix>3d</fix>
</trkpt>
<trkpt lat="-27.2587225" lon="151.2900387">
  <ele>373.11</ele>
  <time>2026-09-01T19:57:48Z</time>
  <course>357.22</course>
  <speed>25.430464014641966</speed>
  <fix>3d</fix>
</trkpt>
<trkpt lat="-27.2587666" lon="151.2900407">
  <ele>373.27</ele>
  <time>2026-09-01T19:57:48Z</time>
  <course>357.7</course>
  <speed>25.43</speed>
  <fix>3d</fix>
</trkpt>
<trkpt lat="-27.2586997" lon="151.2900377">
  <ele>373.11</ele>
  <time>2026-09-01T19:57:48Z</time>
  <course>357.3</course>
  <speed>25.430867071336753</speed>
  <fix>3d</fix>
</trkpt>
<trkpt lat="-27.2587666" lon="151.2900407">
  <ele>373.27</ele>
  <time>2026-09-01T19:57:48Z</time>
  <course>357.7</course>
  <speed>25.43</speed>
  <fix>3d</fix>
</trkpt>
<trkpt lat="-27.258677" lon="151.2900366">
  <ele>373.11</ele>
  <time>2026-09-01T19:57:48Z</time>
  <course>357.25</course>
  <speed>25.420875279974133</speed>
  <fix>3d</fix>
</trkpt>
<trkpt lat="-27.258721" lon="151.2900387">
  <ele>373.27</ele>
  <time>2026-09-01T19:57:48Z</time>
  <course>357.7</course>
  <speed>25.43</speed>
  <fix>3d</fix>
</trkpt>
<trkpt lat="-27.258654" lon="151.2900356">
  <ele>373.11</ele>
  <time>2026-09-01T19:57:48Z</time>
  <course>357.17</course>
  <speed>25.431274053810203</speed>
  <fix>3d</fix>
</trkpt>
<trkpt lat="-27.2586753" lon="151.2900366">
  <ele>373.28</ele>
  <time>2026-09-01T19:57:48Z</time>
  <course>357.68</course>
  <speed>25.43</speed>
  <fix>3d</fix>
</trkpt>
<trkpt lat="-27.2586311" lon="151.2900345">
  <ele>373.11</ele>
  <time>2026-09-01T19:57:48Z</time>
  <course>357.15</course>
  <speed>25.431274053810203</speed>
  <fix>3d</fix>
</trkpt>
<trkpt lat="-27.2586753" lon="151.2900366">
  <ele>373.28</ele>
  <time>2026-09-01T19:57:48Z</time>
  <course>357.68</course>
  <speed>25.43</speed>
  <fix>3d</fix>
</trkpt>
<trkpt lat="-27.2586082" lon="151.2900335">
  <ele>373.11</ele>
  <time>2026-09-01T19:57:48Z</time>
  <course>357.16</course>
  <speed>25.44126569178507</speed>
  <fix>3d</fix>
</trkpt>
<trkpt lat="-27.2586297" lon="151.2900345">
  <ele>373.27</ele>
  <time>2026-09-01T19:57:48Z</time>
  <course>357.65</course>
  <speed>25.43</speed>
  <fix>3d</fix>
</trkpt>
<trkpt lat="-27.2585854" lon="151.2900324">
  <ele>373.1</ele>
  <time>2026-09-01T19:57:48Z</time>
  <course>357.17</course>
  <speed>25.44167643847394</speed>
  <fix>3d</fix>
</trkpt>
<trkpt lat="-27.2586297" lon="151.2900345">
  <ele>373.27</ele>
  <time>2026-09-01T19:57:48Z</time>
  <course>357.65</course>
  <speed>25.43</speed>
  <fix>3d</fix>
</trkpt>
<trkpt lat="-27.2585625" lon="151.2900314">
  <ele>373.1</ele>
  <time>2026-09-01T19:57:48Z</time>
  <course>357.19</course>
  <speed>25.442091109026396</speed>
  <fix>3d</fix>
</trkpt>
<trkpt lat="-27.2586297" lon="151.2900345">
  <ele>373.27</ele>
  <time>2026-09-01T19:57:48Z</time>
  <course>357.65</course>
  <speed>25.43</speed>
  <fix>3d</fix>
</trkpt>
<trkpt lat="-27.2585398" lon="151.2900303">
  <ele>373.1</ele>
  <time>2026-09-01T19:57:48Z</time>
  <course>357.15</course>
  <speed>25.442091109026396</speed>
  <fix>3d</fix>
</trkpt>
<trkpt lat="-27.2585839" lon="151.2900324">
  <ele>373.26</ele>
  <time>2026-09-01T19:57:48Z</time>
  <course>357.63</course>
  <speed>25.44</speed>
  <fix>3d</fix>
</trkpt>
<trkpt lat="-27.2585171" lon="151.2900292">
  <ele>373.09</ele>
  <time>2026-09-01T19:57:48Z</time>
  <course>357.17</course>
  <speed>25.432518554008762</speed>
  <fix>3d</fix>
</trkpt>
<trkpt lat="-27.2585839" lon="151.2900324">
  <ele>373.26</ele>
  <time>2026-09-01T19:57:48Z</time>
  <course>357.63</course>
  <speed>25.44</speed>
  <fix>3d</fix>
</trkpt>
<trkpt lat="-27.2584944" lon="151.2900282">
  <ele>373.09</ele>
  <time>2026-09-01T19:57:48Z</time>
  <course>357.18</course>
  <speed>25.432518554008762</speed>
  <fix>3d</fix>
</trkpt>
<trkpt lat="-27.2585382" lon="151.2900303">
  <ele>373.25</ele>
  <time>2026-09-01T19:57:48Z</time>
  <course>357.6</course>
  <speed>25.44</speed>
  <fix>3d</fix>
</trkpt>
<trkpt lat="-27.2584717" lon="151.2900271">
  <ele>373.09</ele>
  <time>2026-09-01T19:57:48Z</time>
  <course>357.2</course>
  <speed>25.422527411726787</speed>
  <fix>3d</fix>
</trkpt>
<trkpt lat="-27.2585382" lon="151.2900303">
  <ele>373.25</ele>
  <time>2026-09-01T19:57:48Z</time>
  <course>357.6</course>
  <speed>25.44</speed>
  <fix>3d</fix>
</trkpt>
<trkpt lat="-27.2584492" lon="151.290026">
  <ele>373.09</ele>
  <time>2026-09-01T19:57:48Z</time>
  <course>357.16</course>
  <speed>25.422527411726787</speed>
  <fix>3d</fix>
</trkpt>
<trkpt lat="-27.2584925" lon="151.290028">
  <ele>373.25</ele>
  <time>2026-09-01T19:57:48Z</time>
  <course>357.59</course>
  <speed>25.44</speed>
  <fix>3d</fix>
</trkpt>
<trkpt lat="-27.2584266" lon="151.290025">
  <ele>373.09</ele>
  <time>2026-09-01T19:57:48Z</time>
  <course>357.16</course>
  <speed>25.412536276412865</speed>
  <fix>3d</fix>
</trkpt>
<trkpt lat="-27.2584925" lon="151.290028">
  <ele>373.25</ele>
  <time>2026-09-01T19:57:48Z</time>
  <course>357.59</course>
  <speed>25.44</speed>
  <fix>3d</fix>
</trkpt>
<trkpt lat="-27.2584039" lon="151.2900239">
  <ele>373.09</ele>
  <time>2026-09-01T19:57:48Z</time>
  <course>357.16</course>
  <speed>25.402125895286794</speed>
  <fix>3d</fix>
</trkpt>
<trkpt lat="-27.2584468" lon="151.2900259">
  <ele>373.25</ele>
  <time>2026-09-01T19:57:48Z</time>
  <course>357.58</course>
  <speed>25.44</speed>
  <fix>3d</fix>
</trkpt>
<trkpt lat="-27.2583812" lon="151.2900228">
  <ele>373.09</ele>
  <time>2026-09-01T19:57:48Z</time>
  <course>357.22</course>
  <speed>25.402125895286794</speed>
  <fix>3d</fix>
</trkpt>
<trkpt lat="-27.2584468" lon="151.2900259">
  <ele>373.25</ele>
  <time>2026-09-01T19:57:48Z</time>
  <course>357.58</course>
  <speed>25.44</speed>
  <fix>3d</fix>
</trkpt>
<trkpt lat="-27.2583585" lon="151.2900218">
  <ele>373.09</ele>
  <time>2026-09-01T19:57:48Z</time>
  <course>357.24</course>
  <speed>25.402125895286794</speed>
  <fix>3d</fix>
</trkpt>
<trkpt lat="-27.2584012" lon="151.2900237">
  <ele>373.24</ele>
  <time>2026-09-01T19:57:48Z</time>
  <course>357.59</course>
  <speed>25.44</speed>
  <fix>3d</fix>
</trkpt>
<trkpt lat="-27.2583356" lon="151.2900207">
  <ele>373.09</ele>
  <time>2026-09-01T19:57:48Z</time>
  <course>357.22</course>
  <speed>25.391719122580103</speed>
  <fix>3d</fix>
</trkpt>
<trkpt lat="-27.2584012" lon="151.2900237">
  <ele>373.24</ele>
  <time>2026-09-01T19:57:48Z</time>
  <course>357.59</course>
  <speed>25.44</speed>
  <fix>3d</fix>
</trkpt>
<trkpt lat="-27.2583129" lon="151.2900196">
  <ele>373.09</ele>
  <time>2026-09-01T19:57:48Z</time>
  <course>357.17</course>
  <speed>25.392134608968977</speed>
  <fix>3d</fix>
</trkpt>
<trkpt lat="-27.2583555" lon="151.2900216">
  <ele>373.24</ele>
  <time>2026-09-01T19:57:48Z</time>
  <course>357.6</course>
  <speed>25.44</speed>
  <fix>3d</fix>
</trkpt>
<trkpt lat="-27.2582902" lon="151.2900186">
  <ele>373.09</ele>
  <time>2026-09-01T19:57:48Z</time>
  <course>357.18</course>
  <speed>25.391719122580103</speed>
  <fix>3d</fix>
</trkpt>
<trkpt lat="-27.2583555" lon="151.2900216">
  <ele>373.24</ele>
  <time>2026-09-01T19:57:48Z</time>
  <course>357.6</course>
  <speed>25.44</speed>
  <fix>3d</fix>
</trkpt>
<trkpt lat="-27.2582675" lon="151.2900175">
  <ele>373.08</ele>
  <time>2026-09-01T19:57:48Z</time>
  <course>357.22</course>
  <speed>25.392134608968977</speed>
  <fix>3d</fix>
</trkpt>
<trkpt lat="-27.2583099" lon="151.2900194">
  <ele>373.24</ele>
  <time>2026-09-01T19:57:48Z</time>
  <course>357.6</course>
  <speed>25.44</speed>
  <fix>3d</fix>
</trkpt>
<trkpt lat="-27.2582448" lon="151.2900164">
  <ele>373.08</ele>
  <time>2026-09-01T19:57:48Z</time>
  <course>357.2</course>
  <speed>25.382143329514157</speed>
  <fix>3d</fix>
</trkpt>
<trkpt lat="-27.2583099" lon="151.2900194">
  <ele>373.24</ele>
  <time>2026-09-01T19:57:48Z</time>
  <course>357.6</course>
  <speed>25.44</speed>
  <fix>3d</fix>
</trkpt>
<trkpt lat="-27.258222" lon="151.2900154">
  <ele>373.09</ele>
  <time>2026-09-01T19:57:48Z</time>
  <course>357.17</course>
  <speed>25.382143329514157</speed>
  <fix>3d</fix>
</trkpt>
<trkpt lat="-27.2582642" lon="151.2900173">
  <ele>373.24</ele>
  <time>2026-09-01T19:57:48Z</time>
  <course>357.59</course>
  <speed>25.44</speed>
  <fix>3d</fix>
</trkpt>
<trkpt lat="-27.2581993" lon="151.2900143">
  <ele>373.09</ele>
  <time>2026-09-01T19:57:48Z</time>
  <course>357.17</course>
  <speed>25.382143329514157</speed>
  <fix>3d</fix>
</trkpt>
<trkpt lat="-27.2582642" lon="151.2900173">
  <ele>373.24</ele>
  <time>2026-09-01T19:57:48Z</time>
  <course>357.59</course>
  <speed>25.44</speed>
  <fix>3d</fix>
</trkpt>
<trkpt lat="-27.2581765" lon="151.2900132">
  <ele>373.09</ele>
  <time>2026-09-01T19:57:48Z</time>
  <course>357.17</course>
  <speed>25.37215205693045</speed>
  <fix>3d</fix>
</trkpt>
<trkpt lat="-27.2582185" lon="151.2900151">
  <ele>373.24</ele>
  <time>2026-09-01T19:57:48Z</time>
  <course>357.59</course>
  <speed>25.44</speed>
  <fix>3d</fix>
</trkpt>
<trkpt lat="-27.2581538" lon="151.2900121">
  <ele>373.08</ele>
  <time>2026-09-01T19:57:48Z</time>
  <course>357.22</course>
  <speed>25.37215205693045</speed>
  <fix>3d</fix>
</trkpt>
<trkpt lat="-27.2582185" lon="151.2900151">
  <ele>373.24</ele>
  <time>2026-09-01T19:57:48Z</time>
  <course>357.59</course>
  <speed>25.44</speed>
  <fix>3d</fix>
</trkpt>
<trkpt lat="-27.258131" lon="151.2900111">
  <ele>373.08</ele>
  <time>2026-09-01T19:57:48Z</time>
  <course>357.22</course>
  <speed>25.371736243308224</speed>
  <fix>3d</fix>
</trkpt>
<trkpt lat="-27.2581729" lon="151.290013">
  <ele>373.24</ele>
  <time>2026-09-01T19:57:48Z</time>
  <course>357.59</course>
  <speed>25.44</speed>
  <fix>3d</fix>
</trkpt>
<trkpt lat="-27.2581082" lon="151.29001">
  <ele>373.08</ele>
  <time>2026-09-01T19:57:48Z</time>
  <course>357.25</course>
  <speed>25.371736243308224</speed>
  <fix>3d</fix>
</trkpt>
<trkpt lat="-27.2581729" lon="151.290013">
  <ele>373.24</ele>
  <time>2026-09-01T19:57:48Z</time>
  <course>357.59</course>
  <speed>25.44</speed>
  <fix>3d</fix>
</trkpt>
<trkpt lat="-27.2580855" lon="151.2900089">
  <ele>373.08</ele>
  <time>2026-09-01T19:57:48Z</time>
  <course>357.21</course>
  <speed>25.371736243308224</speed>
  <fix>3d</fix>
</trkpt>
<trkpt lat="-27.2581272" lon="151.2900109">
  <ele>373.23</ele>
  <time>2026-09-01T19:57:48Z</time>
  <course>357.6</course>
  <speed>25.44</speed>
  <fix>3d</fix>
</trkpt>
<trkpt lat="-27.2580627" lon="151.2900079">
  <ele>373.08</ele>
  <time>2026-09-01T19:57:48Z</time>
  <course>357.16</course>
  <speed>25.371324364329112</speed>
  <fix>3d</fix>
</trkpt>
<trkpt lat="-27.2581272" lon="151.2900109">
  <ele>373.23</ele>
  <time>2026-09-01T19:57:48Z</time>
  <course>357.6</course>
  <speed>25.44</speed>
  <fix>3d</fix>
</trkpt>
<trkpt lat="-27.2580399" lon="151.2900068">
  <ele>373.08</ele>
  <time>2026-09-01T19:57:48Z</time>
  <course>357.17</course>
  <speed>25.381727679572954</speed>
  <fix>3d</fix>
</trkpt>
<trkpt lat="-27.2580814" lon="151.2900087">
  <ele>373.23</ele>
  <time>2026-09-01T19:57:48Z</time>
  <course>357.61</course>
  <speed>25.44</speed>
  <fix>3d</fix>
</trkpt>
<trkpt lat="-27.2580169" lon="151.2900057">
  <ele>373.08</ele>
  <time>2026-09-01T19:57:48Z</time>
  <course>357.24</course>
  <speed>25.381315962731325</speed>
  <fix>3d</fix>
</trkpt>
<trkpt lat="-27.2580814" lon="151.2900087">
  <ele>373.23</ele>
  <time>2026-09-01T19:57:48Z</time>
  <course>357.61</course>
  <speed>25.44</speed>
  <fix>3d</fix>
</trkpt>
<trkpt lat="-27.2579941" lon="151.2900047">
  <ele>373.08</ele>
  <time>2026-09-01T19:57:48Z</time>
  <course>357.27</course>
  <speed>25.381315962731325</speed>
  <fix>3d</fix>
</trkpt>
<trkpt lat="-27.2580357" lon="151.2900066">
  <ele>373.23</ele>
  <time>2026-09-01T19:57:48Z</time>
  <course>357.62</course>
  <speed>25.44</speed>
  <fix>3d</fix>
</trkpt>
<trkpt lat="-27.2579714" lon="151.2900036">
  <ele>373.08</ele>
  <time>2026-09-01T19:57:48Z</time>
  <course>357.29</course>
  <speed>25.390899944665215</speed>
  <fix>3d</fix>
</trkpt>
<trkpt lat="-27.2580357" lon="151.2900066">
  <ele>373.23</ele>
  <time>2026-09-01T19:57:48Z</time>
  <course>357.62</course>
  <speed>25.44</speed>
  <fix>3d</fix>
</trkpt>
<trkpt lat="-27.2579486" lon="151.2900026">
  <ele>373.07</ele>
  <time>2026-09-01T19:57:48Z</time>
  <course>357.24</course>
  <speed>25.390899944665215</speed>
  <fix>3d</fix>
</trkpt>
<trkpt lat="-27.25799" lon="151.2900044">
  <ele>373.22</ele>
  <time>2026-09-01T19:57:48Z</time>
  <course>357.62</course>
  <speed>25.45</speed>
  <fix>3d</fix>
</trkpt>
<trkpt lat="-27.2579257" lon="151.2900015">
  <ele>373.07</ele>
  <time>2026-09-01T19:57:48Z</time>
  <course>357.23</course>
  <speed>25.400891716630735</speed>
  <fix>3d</fix>
</trkpt>
<trkpt lat="-27.25799" lon="151.2900044">
  <ele>373.22</ele>
  <time>2026-09-01T19:57:48Z</time>
  <course>357.62</course>
  <speed>25.45</speed>
  <fix>3d</fix>
</trkpt>
<trkpt lat="-27.2579028" lon="151.2900005">
  <ele>373.07</ele>
  <time>2026-09-01T19:57:48Z</time>
  <course>357.27</course>
  <speed>25.400891716630735</speed>
  <fix>3d</fix>
</trkpt>
<trkpt lat="-27.2579444" lon="151.2900023">
  <ele>373.22</ele>
  <time>2026-09-01T19:57:48Z</time>
  <course>357.64</course>
  <speed>25.45</speed>
  <fix>3d</fix>
</trkpt>
<trkpt lat="-27.2578798" lon="151.2899994">
  <ele>373.06</ele>
  <time>2026-09-01T19:57:48Z</time>
  <course>357.23</course>
  <speed>25.410883495069587</speed>
  <fix>3d</fix>
</trkpt>
<trkpt lat="-27.2579444" lon="151.2900023">
  <ele>373.22</ele>
  <time>2026-09-01T19:57:48Z</time>
  <course>357.64</course>
  <speed>25.45</speed>
  <fix>3d</fix>
</trkpt>
<trkpt lat="-27.2578569" lon="151.2899984">
  <ele>373.06</ele>
  <time>2026-09-01T19:57:48Z</time>
  <course>357.21</course>
  <speed>25.410883495069587</speed>
  <fix>3d</fix>
</trkpt>
<trkpt lat="-27.2578987" lon="151.2900002">
  <ele>373.21</ele>
  <time>2026-09-01T19:57:48Z</time>
  <course>357.65</course>
  <speed>25.45</speed>
  <fix>3d</fix>
</trkpt>
<trkpt lat="-27.257834" lon="151.2899973">
  <ele>373.06</ele>
  <time>2026-09-01T19:57:48Z</time>
  <course>357.22</course>
  <speed>25.410883495069587</speed>
  <fix>3d</fix>
</trkpt>
<trkpt lat="-27.2578987" lon="151.2900002">
  <ele>373.21</ele>
  <time>2026-09-01T19:57:48Z</time>
  <course>357.65</course>
  <speed>25.45</speed>
  <fix>3d</fix>
</trkpt>
<trkpt lat="-27.2578111" lon="151.2899963">
  <ele>373.06</ele>
  <time>2026-09-01T19:57:48Z</time>
  <course>357.23</course>
  <speed>25.41129079759625</speed>
  <fix>3d</fix>
</trkpt>
<trkpt lat="-27.257853" lon="151.2899981">
  <ele>373.21</ele>
  <time>2026-09-01T19:57:48Z</time>
  <course>357.64</course>
  <speed>25.45</speed>
  <fix>3d</fix>
</trkpt>
<trkpt lat="-27.2577882" lon="151.2899952">
  <ele>373.06</ele>
  <time>2026-09-01T19:57:48Z</time>
  <course>357.26</course>
  <speed>25.41129079759625</speed>
  <fix>3d</fix>
</trkpt>
<trkpt lat="-27.257853" lon="151.2899981">
  <ele>373.21</ele>
  <time>2026-09-01T19:57:48Z</time>
  <course>357.64</course>
  <speed>25.45</speed>
  <fix>3d</fix>
</trkpt>
<trkpt lat="-27.2577653" lon="151.2899941">
  <ele>373.06</ele>
  <time>2026-09-01T19:57:49Z</time>
  <course>357.23</course>
  <speed>25.421282422411345</speed>
  <fix>3d</fix>
</trkpt>
<trkpt lat="-27.2578074" lon="151.289996">
  <ele>373.21</ele>
  <time>2026-09-01T19:57:49Z</time>
  <course>357.64</course>
  <speed>25.44</speed>
  <fix>3d</fix>
</trkpt>
<trkpt lat="-27.2577424" lon="151.2899931">
  <ele>373.06</ele>
  <time>2026-09-01T19:57:49Z</time>
  <course>357.2</course>
  <speed>25.421282422411345</speed>
  <fix>3d</fix>
</trkpt>
<trkpt lat="-27.2578074" lon="151.289996">
  <ele>373.21</ele>
  <time>2026-09-01T19:57:49Z</time>
  <course>357.64</course>
  <speed>25.44</speed>
  <fix>3d</fix>
</trkpt>
<trkpt lat="-27.2577195" lon="151.289992">
  <ele>373.06</ele>
  <time>2026-09-01T19:57:49Z</time>
  <course>357.23</course>
  <speed>25.421282422411345</speed>
  <fix>3d</fix>
</trkpt>
<trkpt lat="-27.2577617" lon="151.2899939">
  <ele>373.21</ele>
  <time>2026-09-01T19:57:49Z</time>
  <course>357.63</course>
  <speed>25.44</speed>
  <fix>3d</fix>
</trkpt>
<trkpt lat="-27.2576966" lon="151.2899909">
  <ele>373.07</ele>
  <time>2026-09-01T19:57:49Z</time>
  <course>357.28</course>
  <speed>25.431274053810203</speed>
  <fix>3d</fix>
</trkpt>
<trkpt lat="-27.2577617" lon="151.2899939">
  <ele>373.21</ele>
  <time>2026-09-01T19:57:49Z</time>
  <course>357.63</course>
  <speed>25.44</speed>
  <fix>3d</fix>
</trkpt>
<trkpt lat="-27.2576737" lon="151.2899899">
  <ele>373.07</ele>
  <time>2026-09-01T19:57:49Z</time>
  <course>357.28</course>
  <speed>25.431274053810203</speed>
  <fix>3d</fix>
</trkpt>
<trkpt lat="-27.2577161" lon="151.2899917">
  <ele>373.21</ele>
  <time>2026-09-01T19:57:49Z</time>
  <course>357.63</course>
  <speed>25.44</speed>
  <fix>3d</fix>
</trkpt>
<trkpt lat="-27.2576508" lon="151.2899888">
  <ele>373.07</ele>
  <time>2026-09-01T19:57:49Z</time>
  <course>357.28</course>
  <speed>25.430867071336753</speed>
  <fix>3d</fix>
</trkpt>
<trkpt lat="-27.2577161" lon="151.2899917">
  <ele>373.21</ele>
  <time>2026-09-01T19:57:49Z</time>
  <course>357.63</course>
  <speed>25.44</speed>
  <fix>3d</fix>
</trkpt>
<trkpt lat="-27.2576279" lon="151.2899878">
  <ele>373.08</ele>
  <time>2026-09-01T19:57:49Z</time>
  <course>357.31</course>
  <speed>25.44085886914984</speed>
  <fix>3d</fix>
</trkpt>
<trkpt lat="-27.2576704" lon="151.2899896">
  <ele>373.21</ele>
  <time>2026-09-01T19:57:49Z</time>
  <course>357.62</course>
  <speed>25.43</speed>
  <fix>3d</fix>
</trkpt>
<trkpt lat="-27.257605" lon="151.2899867">
  <ele>373.08</ele>
  <time>2026-09-01T19:57:49Z</time>
  <course>357.32</course>
  <speed>25.44085886914984</speed>
  <fix>3d</fix>
</trkpt>
<trkpt lat="-27.2576704" lon="151.2899896">
  <ele>373.21</ele>
  <time>2026-09-01T19:57:49Z</time>
  <course>357.62</course>
  <speed>25.43</speed>
  <fix>3d</fix>
</trkpt>
<trkpt lat="-27.2575821" lon="151.2899857">
  <ele>373.08</ele>
  <time>2026-09-01T19:57:49Z</time>
  <course>357.31</course>
  <speed>25.4404559707565</speed>
  <fix>3d</fix>
</trkpt>
<trkpt lat="-27.2576247" lon="151.2899875">
  <ele>373.22</ele>
  <time>2026-09-01T19:57:49Z</time>
  <course>357.64</course>
  <speed>25.43</speed>
  <fix>3d</fix>
</trkpt>
<trkpt lat="-27.2575592" lon="151.2899846">
  <ele>373.08</ele>
  <time>2026-09-01T19:57:49Z</time>
  <course>357.3</course>
  <speed>25.4404559707565</speed>
  <fix>3d</fix>
</trkpt>
<trkpt lat="-27.2576247" lon="151.2899875">
  <ele>373.22</ele>
  <time>2026-09-01T19:57:49Z</time>
  <course>357.64</course>
  <speed>25.43</speed>
  <fix>3d</fix>
</trkpt>
<trkpt lat="-27.2575363" lon="151.2899836">
  <ele>373.08</ele>
  <time>2026-09-01T19:57:49Z</time>
  <course>357.24</course>
  <speed>25.4404559707565</speed>
  <fix>3d</fix>
</trkpt>
<trkpt lat="-27.2575789" lon="151.2899854">
  <ele>373.22</ele>
  <time>2026-09-01T19:57:49Z</time>
  <course>357.65</course>
  <speed>25.43</speed>
  <fix>3d</fix>
</trkpt>
<trkpt lat="-27.2575134" lon="151.2899825">
  <ele>373.09</ele>
  <time>2026-09-01T19:57:49Z</time>
  <course>357.26</course>
  <speed>25.44085886914984</speed>
  <fix>3d</fix>
</trkpt>
<trkpt lat="-27.2575789" lon="151.2899854">
  <ele>373.22</ele>
  <time>2026-09-01T19:57:49Z</time>
  <course>357.65</course>
  <speed>25.43</speed>
  <fix>3d</fix>
</trkpt>
<trkpt lat="-27.2574905" lon="151.2899815">
  <ele>373.09</ele>
  <time>2026-09-01T19:57:49Z</time>
  <course>357.25</course>
  <speed>25.44085886914984</speed>
  <fix>3d</fix>
</trkpt>
<trkpt lat="-27.2575333" lon="151.2899833">
  <ele>373.22</ele>
  <time>2026-09-01T19:57:49Z</time>
  <course>357.65</course>
  <speed>25.42</speed>
  <fix>3d</fix>
</trkpt>
<trkpt lat="-27.2574677" lon="151.2899804">
  <ele>373.09</ele>
  <time>2026-09-01T19:57:49Z</time>
  <course>357.26</course>
  <speed>25.44085886914984</speed>
  <fix>3d</fix>
</trkpt>
<trkpt lat="-27.2575333" lon="151.2899833">
  <ele>373.22</ele>
  <time>2026-09-01T19:57:49Z</time>
  <course>357.65</course>
  <speed>25.42</speed>
  <fix>3d</fix>
</trkpt>
<trkpt lat="-27.2574448" lon="151.2899794">
  <ele>373.09</ele>
  <time>2026-09-01T19:57:49Z</time>
  <course>357.21</course>
  <speed>25.44085886914984</speed>
  <fix>3d</fix>
</trkpt>
<trkpt lat="-27.2574877" lon="151.2899812">
  <ele>373.23</ele>
  <time>2026-09-01T19:57:49Z</time>
  <course>357.64</course>
  <speed>25.41</speed>
  <fix>3d</fix>
</trkpt>
<trkpt lat="-27.2574219" lon="151.2899783">
  <ele>373.09</ele>
  <time>2026-09-01T19:57:49Z</time>
  <course>357.26</course>
  <speed>25.44126569178507</speed>
  <fix>3d</fix>
</trkpt>
<trkpt lat="-27.2574877" lon="151.2899812">
  <ele>373.23</ele>
  <time>2026-09-01T19:57:49Z</time>
  <course>357.64</course>
  <speed>25.41</speed>
  <fix>3d</fix>
</trkpt>
<trkpt lat="-27.2573989" lon="151.2899772">
  <ele>373.1</ele>
  <time>2026-09-01T19:57:49Z</time>
  <course>357.26</course>
  <speed>25.44167643847394</speed>
  <fix>3d</fix>
</trkpt>
<trkpt lat="-27.2574421" lon="151.289979">
  <ele>373.23</ele>
  <time>2026-09-01T19:57:49Z</time>
  <course>357.62</course>
  <speed>25.41</speed>
  <fix>3d</fix>
</trkpt>
<trkpt lat="-27.257376" lon="151.2899761">
  <ele>373.1</ele>
  <time>2026-09-01T19:57:49Z</time>
  <course>357.29</course>
  <speed>25.44126569178507</speed>
  <fix>3d</fix>
</trkpt>
<trkpt lat="-27.2574421" lon="151.289979">
  <ele>373.23</ele>
  <time>2026-09-01T19:57:49Z</time>
  <course>357.62</course>
  <speed>25.41</speed>
  <fix>3d</fix>
</trkpt>
<trkpt lat="-27.2573532" lon="151.2899751">
  <ele>373.11</ele>
  <time>2026-09-01T19:57:49Z</time>
  <course>357.32</course>
  <speed>25.44126569178507</speed>
  <fix>3d</fix>
</trkpt>
<trkpt lat="-27.2573965" lon="151.2899769">
  <ele>373.24</ele>
  <time>2026-09-01T19:57:49Z</time>
  <course>357.6</course>
  <speed>25.41</speed>
  <fix>3d</fix>
</trkpt>
<trkpt lat="-27.2573304" lon="151.289974">
  <ele>373.11</ele>
  <time>2026-09-01T19:57:49Z</time>
  <course>357.28</course>
  <speed>25.44126569178507</speed>
  <fix>3d</fix>
</trkpt>
<trkpt lat="-27.2573965" lon="151.2899769">
  <ele>373.24</ele>
  <time>2026-09-01T19:57:49Z</time>
  <course>357.6</course>
  <speed>25.41</speed>
  <fix>3d</fix>
</trkpt>
<trkpt lat="-27.2573075" lon="151.2899729">
  <ele>373.12</ele>
  <time>2026-09-01T19:57:49Z</time>
  <course>357.24</course>
  <speed>25.44167643847394</speed>
  <fix>3d</fix>
</trkpt>
<trkpt lat="-27.2573509" lon="151.2899747">
  <ele>373.25</ele>
  <time>2026-09-01T19:57:49Z</time>
  <course>357.59</course>
  <speed>25.41</speed>
  <fix>3d</fix>
</trkpt>
<trkpt lat="-27.2572847" lon="151.2899718">
  <ele>373.12</ele>
  <time>2026-09-01T19:57:49Z</time>
  <course>357.22</course>
  <speed>25.44167643847394</speed>
  <fix>3d</fix>
</trkpt>
<trkpt lat="-27.2573509" lon="151.2899747">
  <ele>373.25</ele>
  <time>2026-09-01T19:57:49Z</time>
  <course>357.59</course>
  <speed>25.41</speed>
  <fix>3d</fix>
</trkpt>
<trkpt lat="-27.2572619" lon="151.2899707">
  <ele>373.13</ele>
  <time>2026-09-01T19:57:49Z</time>
  <course>357.23</course>
  <speed>25.431684961873838</speed>
  <fix>3d</fix>
</trkpt>
<trkpt lat="-27.2573053" lon="151.2899726">
  <ele>373.25</ele>
  <time>2026-09-01T19:57:49Z</time>
  <course>357.59</course>
  <speed>25.4</speed>
  <fix>3d</fix>
</trkpt>
<trkpt lat="-27.2572391" lon="151.2899697">
  <ele>373.12</ele>
  <time>2026-09-01T19:57:49Z</time>
  <course>357.25</course>
  <speed>25.43209979533739</speed>
  <fix>3d</fix>
</trkpt>
<trkpt lat="-27.2573053" lon="151.2899726">
  <ele>373.25</ele>
  <time>2026-09-01T19:57:49Z</time>
  <course>357.59</course>
  <speed>25.4</speed>
  <fix>3d</fix>
</trkpt>
<trkpt lat="-27.2572163" lon="151.2899686">
  <ele>373.12</ele>
  <time>2026-09-01T19:57:49Z</time>
  <course>357.27</course>
  <speed>25.43209979533739</speed>
  <fix>3d</fix>
</trkpt>
<trkpt lat="-27.2572597" lon="151.2899704">
  <ele>373.26</ele>
  <time>2026-09-01T19:57:49Z</time>
  <course>357.58</course>
  <speed>25.4</speed>
  <fix>3d</fix>
</trkpt>
<trkpt lat="-27.2571935" lon="151.2899675">
  <ele>373.12</ele>
  <time>2026-09-01T19:57:49Z</time>
  <course>357.29</course>
  <speed>25.431684961873838</speed>
  <fix>3d</fix>
</trkpt>
<trkpt lat="-27.2572597" lon="151.2899704">
  <ele>373.26</ele>
  <time>2026-09-01T19:57:49Z</time>
  <course>357.58</course>
  <speed>25.4</speed>
  <fix>3d</fix>
</trkpt>
<trkpt lat="-27.2571707" lon="151.2899664">
  <ele>373.12</ele>
  <time>2026-09-01T19:57:49Z</time>
  <course>357.27</course>
  <speed>25.431684961873838</speed>
  <fix>3d</fix>
</trkpt>
<trkpt lat="-27.2572141" lon="151.2899683">
  <ele>373.26</ele>
  <time>2026-09-01T19:57:49Z</time>
  <course>357.57</course>
  <speed>25.4</speed>
  <fix>3d</fix>
</trkpt>
<trkpt lat="-27.2571479" lon="151.2899653">
  <ele>373.11</ele>
  <time>2026-09-01T19:57:49Z</time>
  <course>357.25</course>
  <speed>25.43209979533739</speed>
  <fix>3d</fix>
</trkpt>
<trkpt lat="-27.2572141" lon="151.2899683">
  <ele>373.26</ele>
  <time>2026-09-01T19:57:49Z</time>
  <course>357.57</course>
  <speed>25.4</speed>
  <fix>3d</fix>
</trkpt>
<trkpt lat="-27.2571251" lon="151.2899642">
  <ele>373.11</ele>
  <time>2026-09-01T19:57:49Z</time>
  <course>357.27</course>
  <speed>25.43209979533739</speed>
  <fix>3d</fix>
</trkpt>
<trkpt lat="-27.2571686" lon="151.2899661">
  <ele>373.26</ele>
  <time>2026-09-01T19:57:49Z</time>
  <course>357.57</course>
  <speed>25.4</speed>
  <fix>3d</fix>
</trkpt>
<trkpt lat="-27.2571023" lon="151.2899631">
  <ele>373.11</ele>
  <time>2026-09-01T19:57:49Z</time>
  <course>357.25</course>
  <speed>25.432518554008762</speed>
  <fix>3d</fix>
</trkpt>
<trkpt lat="-27.2571686" lon="151.2899661">
  <ele>373.26</ele>
  <time>2026-09-01T19:57:49Z</time>
  <course>357.57</course>
  <speed>25.4</speed>
  <fix>3d</fix>
</trkpt>
<trkpt lat="-27.2570795" lon="151.289962">
  <ele>373.1</ele>
  <time>2026-09-01T19:57:49Z</time>
  <course>357.21</course>
  <speed>25.432518554008762</speed>
  <fix>3d</fix>
</trkpt>
<trkpt lat="-27.2571229" lon="151.289964">
  <ele>373.25</ele>
  <time>2026-09-01T19:57:49Z</time>
  <course>357.56</course>
  <speed>25.4</speed>
  <fix>3d</fix>
</trkpt>
<trkpt lat="-27.2570567" lon="151.2899609">
  <ele>373.1</ele>
  <time>2026-09-01T19:57:49Z</time>
  <course>357.2</course>
  <speed>25.432518554008762</speed>
  <fix>3d</fix>
</trkpt>
<trkpt lat="-27.2571229" lon="151.289964">
  <ele>373.25</ele>
  <time>2026-09-01T19:57:49Z</time>
  <course>357.56</course>
  <speed>25.4</speed>
  <fix>3d</fix>
</trkpt>
<trkpt lat="-27.2570339" lon="151.2899598">
  <ele>373.1</ele>
  <time>2026-09-01T19:57:49Z</time>
  <course>357.24</course>
  <speed>25.432518554008762</speed>
  <fix>3d</fix>
</trkpt>
<trkpt lat="-27.2570772" lon="151.2899618">
  <ele>373.25</ele>
  <time>2026-09-01T19:57:49Z</time>
  <course>357.55</course>
  <speed>25.4</speed>
  <fix>3d</fix>
</trkpt>
<trkpt lat="-27.2570111" lon="151.2899587">
  <ele>373.1</ele>
  <time>2026-09-01T19:57:49Z</time>
  <course>357.28</course>
  <speed>25.432518554008762</speed>
  <fix>3d</fix>
</trkpt>
<trkpt lat="-27.2570772" lon="151.2899618">
  <ele>373.25</ele>
  <time>2026-09-01T19:57:49Z</time>
  <course>357.55</course>
  <speed>25.4</speed>
  <fix>3d</fix>
</trkpt>
<trkpt lat="-27.2569883" lon="151.2899576">
  <ele>373.1</ele>
  <time>2026-09-01T19:57:49Z</time>
  <course>357.28</course>
  <speed>25.432518554008762</speed>
  <fix>3d</fix>
</trkpt>
<trkpt lat="-27.2570316" lon="151.2899595">
  <ele>373.24</ele>
  <time>2026-09-01T19:57:49Z</time>
  <course>357.54</course>
  <speed>25.4</speed>
  <fix>3d</fix>
</trkpt>
<trkpt lat="-27.2569654" lon="151.2899565">
  <ele>373.1</ele>
  <time>2026-09-01T19:57:49Z</time>
  <course>357.22</course>
  <speed>25.442932220952834</speed>
  <fix>3d</fix>
</trkpt>
<trkpt lat="-27.2570316" lon="151.2899595">
  <ele>373.24</ele>
  <time>2026-09-01T19:57:49Z</time>
  <course>357.54</course>
  <speed>25.4</speed>
  <fix>3d</fix>
</trkpt>
<trkpt lat="-27.2569426" lon="151.2899554">
  <ele>373.09</ele>
  <time>2026-09-01T19:57:49Z</time>
  <course>357.19</course>
  <speed>25.442932220952834</speed>
  <fix>3d</fix>
</trkpt>
<trkpt lat="-27.256986" lon="151.2899574">
  <ele>373.24</ele>
  <time>2026-09-01T19:57:49Z</time>
  <course>357.54</course>
  <speed>25.4</speed>
  <fix>3d</fix>
</trkpt>
<trkpt lat="-27.25692" lon="151.2899543">
  <ele>373.09</ele>
  <time>2026-09-01T19:57:49Z</time>
  <course>357.19</course>
  <speed>25.442932220952834</speed>
  <fix>3d</fix>
</trkpt>
<trkpt lat="-27.256986" lon="151.2899574">
  <ele>373.24</ele>
  <time>2026-09-01T19:57:49Z</time>
  <course>357.54</course>
  <speed>25.4</speed>
  <fix>3d</fix>
</trkpt>
<trkpt lat="-27.2568972" lon="151.2899532">
  <ele>373.09</ele>
  <time>2026-09-01T19:57:49Z</time>
  <course>357.21</course>
  <speed>25.442932220952834</speed>
  <fix>3d</fix>
</trkpt>
<trkpt lat="-27.2569404" lon="151.2899552">
  <ele>373.24</ele>
  <time>2026-09-01T19:57:49Z</time>
  <course>357.53</course>
  <speed>25.41</speed>
  <fix>3d</fix>
</trkpt>
<trkpt lat="-27.2568744" lon="151.2899521">
  <ele>373.09</ele>
  <time>2026-09-01T19:57:49Z</time>
  <course>357.2</course>
  <speed>25.44250970325058</speed>
  <fix>3d</fix>
</trkpt>
<trkpt lat="-27.2569404" lon="151.2899552">
  <ele>373.24</ele>
  <time>2026-09-01T19:57:49Z</time>
  <course>357.53</course>
  <speed>25.41</speed>
  <fix>3d</fix>
</trkpt>
<trkpt lat="-27.2568515" lon="151.289951">
  <ele>373.09</ele>
  <time>2026-09-01T19:57:49Z</time>
  <course>357.19</course>
  <speed>25.45292321129343</speed>
  <fix>3d</fix>
</trkpt>
<trkpt lat="-27.2568948" lon="151.289953">
  <ele>373.23</ele>
  <time>2026-09-01T19:57:49Z</time>
  <course>357.54</course>
  <speed>25.42</speed>
  <fix>3d</fix>
</trkpt>
<trkpt lat="-27.2568285" lon="151.2899499">
  <ele>373.09</ele>
  <time>2026-09-01T19:57:49Z</time>
  <course>357.26</course>
  <speed>25.452500859444047</speed>
  <fix>3d</fix>
</trkpt>
<trkpt lat="-27.2568948" lon="151.289953">
  <ele>373.23</ele>
  <time>2026-09-01T19:57:49Z</time>
  <course>357.54</course>
  <speed>25.42</speed>
  <fix>3d</fix>
</trkpt>
<trkpt lat="-27.2568057" lon="151.2899488">
  <ele>373.09</ele>
  <time>2026-09-01T19:57:49Z</time>
  <course>357.32</course>
  <speed>25.452500859444047</speed>
  <fix>3d</fix>
</trkpt>
<trkpt lat="-27.2568492" lon="151.2899507">
  <ele>373.22</ele>
  <time>2026-09-01T19:57:49Z</time>
  <course>357.55</course>
  <speed>25.42</speed>
  <fix>3d</fix>
</trkpt>
<trkpt lat="-27.2567829" lon="151.2899477">
  <ele>373.09</ele>
  <time>2026-09-01T19:57:49Z</time>
  <course>357.36</course>
  <speed>25.442091109026396</speed>
  <fix>3d</fix>
</trkpt>
<trkpt lat="-27.2568492" lon="151.2899507">
  <ele>373.22</ele>
  <time>2026-09-01T19:57:49Z</time>
  <course>357.55</course>
  <speed>25.42</speed>
  <fix>3d</fix>
</trkpt>
<trkpt lat="-27.2567599" lon="151.2899466">
  <ele>373.09</ele>
  <time>2026-09-01T19:57:49Z</time>
  <course>357.35</course>
  <speed>25.45208242953806</speed>
  <fix>3d</fix>
</trkpt>
<trkpt lat="-27.2568036" lon="151.2899486">
  <ele>373.22</ele>
  <time>2026-09-01T19:57:49Z</time>
  <course>357.56</course>
  <speed>25.42</speed>
  <fix>3d</fix>
</trkpt>
<trkpt lat="-27.2567371" lon="151.2899456">
  <ele>373.09</ele>
  <time>2026-09-01T19:57:49Z</time>
  <course>357.3</course>
  <speed>25.442091109026396</speed>
  <fix>3d</fix>
</trkpt>
<trkpt lat="-27.2568036" lon="151.2899486">
  <ele>373.22</ele>
  <time>2026-09-01T19:57:49Z</time>
  <course>357.56</course>
  <speed>25.42</speed>
  <fix>3d</fix>
</trkpt>
<trkpt lat="-27.2567143" lon="151.2899445">
  <ele>373.09</ele>
  <time>2026-09-01T19:57:49Z</time>
  <course>357.25</course>
  <speed>25.442091109026396</speed>
  <fix>3d</fix>
</trkpt>
<trkpt lat="-27.256758" lon="151.2899464">
  <ele>373.22</ele>
  <time>2026-09-01T19:57:49Z</time>
  <course>357.58</course>
  <speed>25.42</speed>
  <fix>3d</fix>
</trkpt>
<trkpt lat="-27.2566916" lon="151.2899434">
  <ele>373.09</ele>
  <time>2026-09-01T19:57:49Z</time>
  <course>357.28</course>
  <speed>25.43209979533739</speed>
  <fix>3d</fix>
</trkpt>
<trkpt lat="-27.256758" lon="151.2899464">
  <ele>373.22</ele>
  <time>2026-09-01T19:57:49Z</time>
  <course>357.58</course>
  <speed>25.42</speed>
  <fix>3d</fix>
</trkpt>
<trkpt lat="-27.256669" lon="151.2899423">
  <ele>373.09</ele>
  <time>2026-09-01T19:57:49Z</time>
  <course>357.29</course>
  <speed>25.42210848847908</speed>
  <fix>3d</fix>
</trkpt>
<trkpt lat="-27.2567123" lon="151.2899442">
  <ele>373.21</ele>
  <time>2026-09-01T19:57:49Z</time>
  <course>357.58</course>
  <speed>25.42</speed>
  <fix>3d</fix>
</trkpt>
<trkpt lat="-27.2566463" lon="151.2899413">
  <ele>373.09</ele>
  <time>2026-09-01T19:57:49Z</time>
  <course>357.32</course>
  <speed>25.421693491976495</speed>
  <fix>3d</fix>
</trkpt>
<trkpt lat="-27.2567123" lon="151.2899442">
  <ele>373.21</ele>
  <time>2026-09-01T19:57:49Z</time>
  <course>357.58</course>
  <speed>25.42</speed>
  <fix>3d</fix>
</trkpt>
<trkpt lat="-27.2566237" lon="151.2899402">
  <ele>373.09</ele>
  <time>2026-09-01T19:57:49Z</time>
  <course>357.3</course>
  <speed>25.411702028789804</speed>
  <fix>3d</fix>
</trkpt>
<trkpt lat="-27.2566666" lon="151.2899421">
  <ele>373.21</ele>
  <time>2026-09-01T19:57:49Z</time>
  <course>357.59</course>
  <speed>25.42</speed>
  <fix>3d</fix>
</trkpt>
<trkpt lat="-27.256601" lon="151.2899391">
  <ele>373.08</ele>
  <time>2026-09-01T19:57:49Z</time>
  <course>357.29</course>
  <speed>25.411702028789804</speed>
  <fix>3d</fix>
</trkpt>
<trkpt lat="-27.2566666" lon="151.2899421">
  <ele>373.21</ele>
  <time>2026-09-01T19:57:49Z</time>
  <course>357.59</course>
  <speed>25.42</speed>
  <fix>3d</fix>
</trkpt>
<trkpt lat="-27.2565783" lon="151.2899381">
  <ele>373.07</ele>
  <time>2026-09-01T19:57:49Z</time>
  <course>357.37</course>
  <speed>25.41129079759625</speed>
  <fix>3d</fix>
</trkpt>
<trkpt lat="-27.2566209" lon="151.2899399">
  <ele>373.21</ele>
  <time>2026-09-01T19:57:49Z</time>
  <course>357.6</course>
  <speed>25.43</speed>
  <fix>3d</fix>
</trkpt>
<trkpt lat="-27.2565557" lon="151.289937">
  <ele>373.06</ele>
  <time>2026-09-01T19:57:49Z</time>
  <course>357.4</course>
  <speed>25.410883495069587</speed>
  <fix>3d</fix>
</trkpt>
<trkpt lat="-27.2566209" lon="151.2899399">
  <ele>373.21</ele>
  <time>2026-09-01T19:57:49Z</time>
  <course>357.6</course>
  <speed>25.43</speed>
  <fix>3d</fix>
</trkpt>
<trkpt lat="-27.256533" lon="151.289936">
  <ele>373.06</ele>
  <time>2026-09-01T19:57:49Z</time>
  <course>357.39</course>
  <speed>25.410883495069587</speed>
  <fix>3d</fix>
</trkpt>
<trkpt lat="-27.2565752" lon="151.2899378">
  <ele>373.2</ele>
  <time>2026-09-01T19:57:49Z</time>
  <course>357.62</course>
  <speed>25.44</speed>
  <fix>3d</fix>
</trkpt>
<trkpt lat="-27.2565103" lon="151.2899349">
  <ele>373.05</ele>
  <time>2026-09-01T19:57:49Z</time>
  <course>357.39</course>
  <speed>25.400488184284963</speed>
  <fix>3d</fix>
</trkpt>
<trkpt lat="-27.2565752" lon="151.2899378">
  <ele>373.2</ele>
  <time>2026-09-01T19:57:49Z</time>
  <course>357.62</course>
  <speed>25.44</speed>
  <fix>3d</fix>
</trkpt>
<trkpt lat="-27.2564876" lon="151.2899339">
  <ele>373.05</ele>
  <time>2026-09-01T19:57:49Z</time>
  <course>357.34</course>
  <speed>25.4000885825227</speed>
  <fix>3d</fix>
</trkpt>
<trkpt lat="-27.2565295" lon="151.2899356">
  <ele>373.18</ele>
  <time>2026-09-01T19:57:49Z</time>
  <course>357.65</course>
  <speed>25.44</speed>
  <fix>3d</fix>
</trkpt>
<trkpt lat="-27.2564649" lon="151.2899328">
  <ele>373.05</ele>
  <time>2026-09-01T19:57:49Z</time>
  <course>357.4</course>
  <speed>25.400488184284963</speed>
  <fix>3d</fix>
</trkpt>
<trkpt lat="-27.2565295" lon="151.2899356">
  <ele>373.18</ele>
  <time>2026-09-01T19:57:49Z</time>
  <course>357.65</course>
  <speed>25.44</speed>
  <fix>3d</fix>
</trkpt>
<trkpt lat="-27.2564423" lon="151.2899318">
  <ele>373.04</ele>
  <time>2026-09-01T19:57:49Z</time>
  <course>357.41</course>
  <speed>25.4000885825227</speed>
  <fix>3d</fix>
</trkpt>
<trkpt lat="-27.2564839" lon="151.2899335">
  <ele>373.18</ele>
  <time>2026-09-01T19:57:49Z</time>
  <course>357.67</course>
  <speed>25.45</speed>
  <fix>3d</fix>
</trkpt>
<trkpt lat="-27.2564196" lon="151.2899308">
  <ele>373.04</ele>
  <time>2026-09-01T19:57:49Z</time>
  <course>357.42</course>
  <speed>25.4000885825227</speed>
  <fix>3d</fix>
</trkpt>
<trkpt lat="-27.2564839" lon="151.2899335">
  <ele>373.18</ele>
  <time>2026-09-01T19:57:49Z</time>
  <course>357.67</course>
  <speed>25.45</speed>
  <fix>3d</fix>
</trkpt>
<trkpt lat="-27.2563969" lon="151.2899297">
  <ele>373.03</ele>
  <time>2026-09-01T19:57:49Z</time>
  <course>357.46</course>
  <speed>25.390096494499584</speed>
  <fix>3d</fix>
</trkpt>
<trkpt lat="-27.2564382" lon="151.2899315">
  <ele>373.18</ele>
  <time>2026-09-01T19:57:49Z</time>
  <course>357.68</course>
  <speed>25.45</speed>
  <fix>3d</fix>
</trkpt>
<trkpt lat="-27.2563741" lon="151.2899287">
  <ele>373.03</ele>
  <time>2026-09-01T19:57:49Z</time>
  <course>357.34</course>
  <speed>25.38970066779047</speed>
  <fix>3d</fix>
</trkpt>
<trkpt lat="-27.2564382" lon="151.2899315">
  <ele>373.18</ele>
  <time>2026-09-01T19:57:49Z</time>
  <course>357.68</course>
  <speed>25.45</speed>
  <fix>3d</fix>
</trkpt>
<trkpt lat="-27.2563512" lon="151.2899277">
  <ele>373.02</ele>
  <time>2026-09-01T19:57:49Z</time>
  <course>356.98</course>
  <speed>25.37970843016129</speed>
  <fix>3d</fix>
</trkpt>
<trkpt lat="-27.2563925" lon="151.2899294">
  <ele>373.17</ele>
  <time>2026-09-01T19:57:49Z</time>
  <course>357.7</course>
  <speed>25.45</speed>
  <fix>3d</fix>
</trkpt>
<trkpt lat="-27.2563284" lon="151.2899266">
  <ele>373.01</ele>
  <time>2026-09-01T19:57:49Z</time>
  <course>356.42</course>
  <speed>25.372571805002345</speed>
  <fix>3d</fix>
</trkpt>
<trkpt lat="-27.2563925" lon="151.2899294">
  <ele>373.17</ele>
  <time>2026-09-01T19:57:49Z</time>
  <course>357.7</course>
  <speed>25.45</speed>
  <fix>3d</fix>
</trkpt>
<trkpt lat="-27.2563056" lon="151.2899255">
  <ele>373.0</ele>
  <time>2026-09-01T19:57:49Z</time>
  <course>355.76</course>
  <speed>25.37032124353178</speed>
  <fix>3d</fix>
</trkpt>
<trkpt lat="-27.2563468" lon="151.2899273">
  <ele>373.16</ele>
  <time>2026-09-01T19:57:49Z</time>
  <course>357.65</course>
  <speed>25.45</speed>
  <fix>3d</fix>
</trkpt>
<trkpt lat="-27.2562829" lon="151.289924">
  <ele>372.97</ele>
  <time>2026-09-01T19:57:49Z</time>
  <course>355.23</course>
  <speed>25.367398368772466</speed>
  <fix>3d</fix>
</trkpt>
<trkpt lat="-27.2563468" lon="151.2899273">
  <ele>373.16</ele>
  <time>2026-09-01T19:57:49Z</time>
  <course>357.65</course>
  <speed>25.45</speed>
  <fix>3d</fix>
</trkpt>
<trkpt lat="-27.2562602" lon="151.2899222">
  <ele>372.93</ele>
  <time>2026-09-01T19:57:49Z</time>
  <course>354.86</course>
  <speed>25.368959379525208</speed>
  <fix>3d</fix>
</trkpt>
<trkpt lat="-27.2563012" lon="151.2899251">
  <ele>373.14</ele>
  <time>2026-09-01T19:57:49Z</time>
  <course>357.06</course>
  <speed>25.44</speed>
  <fix>3d</fix>
</trkpt>
<trkpt lat="-27.2562375" lon="151.2899199">
  <ele>372.88</ele>
  <time>2026-09-01T19:57:49Z</time>
  <course>354.39</course>
  <speed>25.37843572799553</speed>
  <fix>3d</fix>
</trkpt>
<trkpt lat="-27.2563012" lon="151.2899251">
  <ele>373.14</ele>
  <time>2026-09-01T19:57:49Z</time>
  <course>357.06</course>
  <speed>25.44</speed>
  <fix>3d</fix>
</trkpt>
<trkpt lat="-27.2562148" lon="151.289917">
  <ele>372.8</ele>
  <time>2026-09-01T19:57:49Z</time>
  <course>353.5</course>
  <speed>25.408709136829444</speed>
  <fix>3d</fix>
</trkpt>
<trkpt lat="-27.2562556" lon="151.2899218">
  <ele>373.07</ele>
  <time>2026-09-01T19:57:49Z</time>
  <course>355.42</course>
  <speed>25.44</speed>
  <fix>3d</fix>
</trkpt>
<trkpt lat="-27.2561922" lon="151.2899133">
  <ele>372.72</ele>
  <time>2026-09-01T19:57:49Z</time>
  <course>352.01</course>
  <speed>25.44413881427312</speed>
  <fix>3d</fix>
</trkpt>
<trkpt lat="-27.2562556" lon="151.2899218">
  <ele>373.07</ele>
  <time>2026-09-01T19:57:49Z</time>
  <course>355.42</course>
  <speed>25.44</speed>
  <fix>3d</fix>
</trkpt>
<trkpt lat="-27.2561696" lon="151.2899087">
  <ele>372.62</ele>
  <time>2026-09-01T19:57:49Z</time>
  <course>349.94</course>
  <speed>25.518902797730156</speed>
  <fix>3d</fix>
</trkpt>
<trkpt lat="-27.25621" lon="151.2899165">
  <ele>372.95</ele>
  <time>2026-09-01T19:57:49Z</time>
  <course>352.56</course>
  <speed>25.48</speed>
  <fix>3d</fix>
</trkpt>
<trkpt lat="-27.2561472" lon="151.289903">
  <ele>372.52</ele>
  <time>2026-09-01T19:57:49Z</time>
  <course>347.52</course>
  <speed>25.599644528782036</speed>
  <fix>3d</fix>
</trkpt>
<trkpt lat="-27.25621" lon="151.2899165">
  <ele>372.95</ele>
  <time>2026-09-01T19:57:49Z</time>
  <course>352.56</course>
  <speed>25.48</speed>
  <fix>3d</fix>
</trkpt>
<trkpt lat="-27.2561248" lon="151.2898961">
  <ele>372.43</ele>
  <time>2026-09-01T19:57:49Z</time>
  <course>344.85</course>
  <speed>25.68510268618757</speed>
  <fix>3d</fix>
</trkpt>
<trkpt lat="-27.2561647" lon="151.289908">
  <ele>372.77</ele>
  <time>2026-09-01T19:57:49Z</time>
  <course>348.43</course>
  <speed>25.59</speed>
  <fix>3d</fix>
</trkpt>
<trkpt lat="-27.2561028" lon="151.2898881">
  <ele>372.35</ele>
  <time>2026-09-01T19:57:49Z</time>
  <course>342.15</course>
  <speed>25.77084011048146</speed>
  <fix>3d</fix>
</trkpt>
<trkpt lat="-27.2561647" lon="151.289908">
  <ele>372.77</ele>
  <time>2026-09-01T19:57:49Z</time>
  <course>348.43</course>
  <speed>25.59</speed>
  <fix>3d</fix>
</trkpt>
<trkpt lat="-27.2560811" lon="151.2898789">
  <ele>372.28</ele>
  <time>2026-09-01T19:57:49Z</time>
  <course>339.51</course>
  <speed>25.851369402799538</speed>
  <fix>3d</fix>
</trkpt>
<trkpt lat="-27.25612" lon="151.2898954">
  <ele>372.59</ele>
  <time>2026-09-01T19:57:49Z</time>
  <course>343.34</course>
  <speed>25.75</speed>
  <fix>3d</fix>
</trkpt>
<trkpt lat="-27.2560597" lon="151.2898686">
  <ele>372.23</ele>
  <time>2026-09-01T19:57:49Z</time>
  <course>336.98</course>
  <speed>25.918767331800332</speed>
  <fix>3d</fix>
</trkpt>
<trkpt lat="-27.25612" lon="151.2898954">
  <ele>372.59</ele>
  <time>2026-09-01T19:57:49Z</time>
  <course>343.34</course>
  <speed>25.75</speed>
  <fix>3d</fix>
</trkpt>
<trkpt lat="-27.2560387" lon="151.2898572">
  <ele>372.17</ele>
  <time>2026-09-01T19:57:49Z</time>
  <course>334.6</course>
  <speed>25.976389279497642</speed>
  <fix>3d</fix>
</trkpt>
<trkpt lat="-27.2560762" lon="151.2898781">
  <ele>372.44</ele>
  <time>2026-09-01T19:57:49Z</time>
  <course>337.97</course>
  <speed>25.92</speed>
  <fix>3d</fix>
</trkpt>
<trkpt lat="-27.2560181" lon="151.2898448">
  <ele>372.12</ele>
  <time>2026-09-01T19:57:49Z</time>
  <course>332.22</course>
  <speed>26.02744897219088</speed>
  <fix>3d</fix>
</trkpt>
<trkpt lat="-27.2560762" lon="151.2898781">
  <ele>372.44</ele>
  <time>2026-09-01T19:57:49Z</time>
  <course>337.97</course>
  <speed>25.92</speed>
  <fix>3d</fix>
</trkpt>
<trkpt lat="-27.2559979" lon="151.2898314">
  <ele>372.06</ele>
  <time>2026-09-01T19:57:49Z</time>
  <course>329.79</course>
  <speed>26.077135578893632</speed>
  <fix>3d</fix>
</trkpt>
<trkpt lat="-27.2560338" lon="151.2898562">
  <ele>372.33</ele>
  <time>2026-09-01T19:57:49Z</time>
  <course>332.84</course>
  <speed>26.05</speed>
  <fix>3d</fix>
</trkpt>
<trkpt lat="-27.2559784" lon="151.2898172">
  <ele>372.0</ele>
  <time>2026-09-01T19:57:49Z</time>
  <course>327.45</course>
  <speed>26.12678702022122</speed>
  <fix>3d</fix>
</trkpt>
<trkpt lat="-27.2560338" lon="151.2898562">
  <ele>372.33</ele>
  <time>2026-09-01T19:57:49Z</time>
  <course>332.84</course>
  <speed>26.05</speed>
  <fix>3d</fix>
</trkpt>
<trkpt lat="-27.2559592" lon="151.2898019">
  <ele>371.93</ele>
  <time>2026-09-01T19:57:49Z</time>
  <course>325.03</course>
  <speed>26.182110304557195</speed>
  <fix>3d</fix>
</trkpt>
<trkpt lat="-27.255993" lon="151.2898301">
  <ele>372.21</ele>
  <time>2026-09-01T19:57:49Z</time>
  <course>327.92</course>
  <speed>26.16</speed>
  <fix>3d</fix>
</trkpt>
<trkpt lat="-27.2559406" lon="151.2897856">
  <ele>371.85</ele>
  <time>2026-09-01T19:57:49Z</time>
  <course>322.49</course>
  <speed>26.23884524898152</speed>
  <fix>3d</fix>
</trkpt>
<trkpt lat="-27.255993" lon="151.2898301">
  <ele>372.21</ele>
  <time>2026-09-01T19:57:49Z</time>
  <course>327.92</course>
  <speed>26.16</speed>
  <fix>3d</fix>
</trkpt>
<trkpt lat="-27.2559226" lon="151.2897684">
  <ele>371.76</ele>
  <time>2026-09-01T19:57:49Z</time>
  <course>319.93</course>
  <speed>26.294858813083597</speed>
  <fix>3d</fix>
</trkpt>
<trkpt lat="-27.2559543" lon="151.2898001">
  <ele>372.07</ele>
  <time>2026-09-01T19:57:49Z</time>
  <course>322.97</course>
  <speed>26.25</speed>
  <fix>3d</fix>
</trkpt>
<trkpt lat="-27.2559052" lon="151.2897501">
  <ele>371.67</ele>
  <time>2026-09-01T19:57:49Z</time>
  <course>317.31</course>
  <speed>26.34698464720394</speed>
  <fix>3d</fix>
</trkpt>
<trkpt lat="-27.2559543" lon="151.2898001">
  <ele>372.07</ele>
  <time>2026-09-01T19:57:49Z</time>
  <course>322.97</course>
  <speed>26.25</speed>
  <fix>3d</fix>
</trkpt>
<trkpt lat="-27.2558886" lon="151.289731">
  <ele>371.57</ele>
  <time>2026-09-01T19:57:49Z</time>
  <course>314.61</course>
  <speed>26.399337112889786</speed>
  <fix>3d</fix>
</trkpt>
<trkpt lat="-27.2559179" lon="151.2897663">
  <ele>371.91</ele>
  <time>2026-09-01T19:57:49Z</time>
  <course>317.84</course>
  <speed>26.35</speed>
  <fix>3d</fix>
</trkpt>
<trkpt lat="-27.2558728" lon="151.2897111">
  <ele>371.47</ele>
  <time>2026-09-01T19:57:49Z</time>
  <course>311.79</course>
  <speed>26.442178427656067</speed>
  <fix>3d</fix>
</trkpt>
<trkpt lat="-27.2559179" lon="151.2897663">
  <ele>371.91</ele>
  <time>2026-09-01T19:57:49Z</time>
  <course>317.84</course>
  <speed>26.35</speed>
  <fix>3d</fix>
</trkpt>
<trkpt lat="-27.2558579" lon="151.2896903">
  <ele>371.37</ele>
  <time>2026-09-01T19:57:49Z</time>
  <course>308.97</course>
  <speed>26.47805506452466</speed>
  <fix>3d</fix>
</trkpt>
<trkpt lat="-27.2558842" lon="151.2897286">
  <ele>371.72</ele>
  <time>2026-09-01T19:57:49Z</time>
  <course>312.48</course>
  <speed>26.44</speed>
  <fix>3d</fix>
</trkpt>
<trkpt lat="-27.2558439" lon="151.2896686">
  <ele>371.27</ele>
  <time>2026-09-01T19:57:49Z</time>
  <course>306.21</course>
  <speed>26.507300881078027</speed>
  <fix>3d</fix>
</trkpt>
<trkpt lat="-27.2558842" lon="151.2897286">
  <ele>371.72</ele>
  <time>2026-09-01T19:57:49Z</time>
  <course>312.48</course>
  <speed>26.44</speed>
  <fix>3d</fix>
</trkpt>
<trkpt lat="-27.2558308" lon="151.2896462">
  <ele>371.17</ele>
  <time>2026-09-01T19:57:49Z</time>
  <course>303.41</course>
  <speed>26.533279103797177</speed>
  <fix>3d</fix>
</trkpt>
<trkpt lat="-27.2558539" lon="151.2896875">
  <ele>371.51</ele>
  <time>2026-09-01T19:57:49Z</time>
  <course>306.93</course>
  <speed>26.51</speed>
  <fix>3d</fix>
</trkpt>
<trkpt lat="-27.2558188" lon="151.2896231">
  <ele>371.06</ele>
  <time>2026-09-01T19:57:49Z</time>
  <course>300.53</course>
  <speed>26.553952624797688</speed>
  <fix>3d</fix>
</trkpt>
<trkpt lat="-27.2558539" lon="151.2896875">
  <ele>371.51</ele>
  <time>2026-09-01T19:57:49Z</time>
  <course>306.93</course>
  <speed>26.51</speed>
  <fix>3d</fix>
</trkpt>
<trkpt lat="-27.2558077" lon="151.2895994">
  <ele>370.96</ele>
  <time>2026-09-01T19:57:49Z</time>
  <course>297.56</course>
  <speed>26.558525938010945</speed>
  <fix>3d</fix>
</trkpt>
<trkpt lat="-27.2558272" lon="151.2896432">
  <ele>371.3</ele>
  <time>2026-09-01T19:57:49Z</time>
  <course>301.28</course>
  <speed>26.56</speed>
  <fix>3d</fix>
</trkpt>
<trkpt lat="-27.2557978" lon="151.289575">
  <ele>370.86</ele>
  <time>2026-09-01T19:57:49Z</time>
  <course>294.63</course>
  <speed>26.569313126236437</speed>
  <fix>3d</fix>
</trkpt>
<trkpt lat="-27.2558272" lon="151.2896432">
  <ele>371.3</ele>
  <time>2026-09-01T19:57:49Z</time>
  <course>301.28</course>
  <speed>26.56</speed>
  <fix>3d</fix>
</trkpt>
<trkpt lat="-27.2557889" lon="151.2895501">
  <ele>370.75</ele>
  <time>2026-09-01T19:57:49Z</time>
  <course>291.56</course>
  <speed>26.5672749825796</speed>
  <fix>3d</fix>
</trkpt>
<trkpt lat="-27.2558044" lon="151.2895959">
  <ele>371.08</ele>
  <time>2026-09-01T19:57:49Z</time>
  <course>295.53</course>
  <speed>26.59</speed>
  <fix>3d</fix>
</trkpt>
<trkpt lat="-27.2557813" lon="151.2895247">
  <ele>370.65</ele>
  <time>2026-09-01T19:57:49Z</time>
  <course>288.51</course>
  <speed>26.56819903568926</speed>
  <fix>3d</fix>
</trkpt>
<trkpt lat="-27.2558044" lon="151.2895959">
  <ele>371.08</ele>
  <time>2026-09-01T19:57:49Z</time>
  <course>295.53</course>
  <speed>26.59</speed>
  <fix>3d</fix>
</trkpt>
<trkpt lat="-27.2557749" lon="151.2894989">
  <ele>370.55</ele>
  <time>2026-09-01T19:57:49Z</time>
  <course>285.47</course>
  <speed>26.5580496271846</speed>
  <fix>3d</fix>
</trkpt>
<trkpt lat="-27.2557861" lon="151.2895461">
  <ele>370.86</ele>
  <time>2026-09-01T19:57:49Z</time>
  <course>289.57</course>
  <speed>26.6</speed>
  <fix>3d</fix>
</trkpt>
<trkpt lat="-27.2557697" lon="151.2894728">
  <ele>370.45</ele>
  <time>2026-09-01T19:57:49Z</time>
  <course>282.4</course>
  <speed>26.54799804128364</speed>
  <fix>3d</fix>
</trkpt>
<trkpt lat="-27.2557861" lon="151.2895461">
  <ele>370.86</ele>
  <time>2026-09-01T19:57:49Z</time>
  <course>289.57</course>
  <speed>26.6</speed>
  <fix>3d</fix>
</trkpt>
<trkpt lat="-27.2557657" lon="151.2894464">
  <ele>370.36</ele>
  <time>2026-09-01T19:57:49Z</time>
  <course>279.34</course>
  <speed>26.533188651196824</speed>
  <fix>3d</fix>
</trkpt>
<trkpt lat="-27.2557725" lon="151.2894946">
  <ele>370.65</ele>
  <time>2026-09-01T19:57:49Z</time>
  <course>283.47</course>
  <speed>26.59</speed>
  <fix>3d</fix>
</trkpt>
<trkpt lat="-27.2557631" lon="151.2894198">
  <ele>370.27</ele>
  <time>2026-09-01T19:57:49Z</time>
  <course>276.26</course>
  <speed>26.521689237301608</speed>
  <fix>3d</fix>
</trkpt>
<trkpt lat="-27.2557725" lon="151.2894946">
  <ele>370.65</ele>
  <time>2026-09-01T19:57:49Z</time>
  <course>283.47</course>
  <speed>26.59</speed>
  <fix>3d</fix>
</trkpt>
<trkpt lat="-27.2557617" lon="151.2893931">
  <ele>370.18</ele>
  <time>2026-09-01T19:57:49Z</time>
  <course>273.22</course>
  <speed>26.498220694982525</speed>
  <fix>3d</fix>
</trkpt>
<trkpt lat="-27.2557638" lon="151.2894418">
  <ele>370.45</ele>
  <time>2026-09-01T19:57:49Z</time>
  <course>277.31</course>
  <speed>26.57</speed>
  <fix>3d</fix>
</trkpt>
<trkpt lat="-27.2557616" lon="151.2893663">
  <ele>370.09</ele>
  <time>2026-09-01T19:57:49Z</time>
  <course>270.11</course>
  <speed>26.4806231044513</speed>
  <fix>3d</fix>
</trkpt>
<trkpt lat="-27.2557638" lon="151.2894418">
  <ele>370.45</ele>
  <time>2026-09-01T19:57:49Z</time>
  <course>277.31</course>
  <speed>26.57</speed>
  <fix>3d</fix>
</trkpt>
<trkpt lat="-27.2557628" lon="151.2893397">
  <ele>370.01</ele>
  <time>2026-09-01T19:57:49Z</time>
  <course>266.93</course>
  <speed>26.4508166225544</speed>
  <fix>3d</fix>
</trkpt>
<trkpt lat="-27.2557603" lon="151.2893883">
  <ele>370.26</ele>
  <time>2026-09-01T19:57:49Z</time>
  <course>271.13</course>
  <speed>26.54</speed>
  <fix>3d</fix>
</trkpt>
<trkpt lat="-27.2557652" lon="151.2893131">
  <ele>369.93</ele>
  <time>2026-09-01T19:57:49Z</time>
  <course>263.77</course>
  <speed>26.410651260429</speed>
  <fix>3d</fix>
</trkpt>
<trkpt lat="-27.2557603" lon="151.2893883">
  <ele>370.26</ele>
  <time>2026-09-01T19:57:49Z</time>
  <course>271.13</course>
  <speed>26.54</speed>
  <fix>3d</fix>
</trkpt>
<trkpt lat="-27.2557689" lon="151.2892868">
  <ele>369.85</ele>
  <time>2026-09-01T19:57:49Z</time>
  <course>260.65</course>
  <speed>26.37002085702626</speed>
  <fix>3d</fix>
</trkpt>
<trkpt lat="-27.255762" lon="151.2893348">
  <ele>370.08</ele>
  <time>2026-09-01T19:57:49Z</time>
  <course>264.89</course>
  <speed>26.5</speed>
  <fix>3d</fix>
</trkpt>
<trkpt lat="-27.255774" lon="151.2892608">
  <ele>369.78</ele>
  <time>2026-09-01T19:57:49Z</time>
  <course>257.61</course>
  <speed>26.341869713442893</speed>
  <fix>3d</fix>
</trkpt>
<trkpt lat="-27.255762" lon="151.2893348">
  <ele>370.08</ele>
  <time>2026-09-01T19:57:49Z</time>
  <course>264.89</course>
  <speed>26.5</speed>
  <fix>3d</fix>
</trkpt>
<trkpt lat="-27.2557803" lon="151.289235">
  <ele>369.7</ele>
  <time>2026-09-01T19:57:49Z</time>
  <course>254.5</course>
  <speed>26.30906307719832</speed>
  <fix>3d</fix>
</trkpt>
<trkpt lat="-27.2557688" lon="151.289282">
  <ele>369.91</ele>
  <time>2026-09-01T19:57:49Z</time>
  <course>258.61</course>
  <speed>26.44</speed>
  <fix>3d</fix>
</trkpt>
<trkpt lat="-27.2557878" lon="151.2892099">
  <ele>369.63</ele>
  <time>2026-09-01T19:57:49Z</time>
  <course>251.38</course>
  <speed>26.268802789621</speed>
  <fix>3d</fix>
</trkpt>
<trkpt lat="-27.2557688" lon="151.289282">
  <ele>369.91</ele>
  <time>2026-09-01T19:57:49Z</time>
  <course>258.61</course>
  <speed>26.44</speed>
  <fix>3d</fix>
</trkpt>
<trkpt lat="-27.2557965" lon="151.2891852">
  <ele>369.56</ele>
  <time>2026-09-01T19:57:49Z</time>
  <course>248.32</course>
  <speed>26.222223399246676</speed>
  <fix>3d</fix>
</trkpt>
<trkpt lat="-27.2557806" lon="151.2892303">
  <ele>369.76</ele>
  <time>2026-09-01T19:57:49Z</time>
  <course>252.36</course>
  <speed>26.37</speed>
  <fix>3d</fix>
</trkpt>
<trkpt lat="-27.2558064" lon="151.2891612">
  <ele>369.5</ele>
  <time>2026-09-01T19:57:49Z</time>
  <course>245.22</course>
  <speed>26.18435601652254</speed>
  <fix>3d</fix>
</trkpt>
<trkpt lat="-27.2557806" lon="151.2892303">
  <ele>369.76</ele>
  <time>2026-09-01T19:57:49Z</time>
  <course>252.36</course>
  <speed>26.37</speed>
  <fix>3d</fix>
</trkpt>
<trkpt lat="-27.2558173" lon="151.2891379">
  <ele>369.43</ele>
  <time>2026-09-01T19:57:49Z</time>
  <course>242.16</course>
  <speed>26.137859514505006</speed>
  <fix>3d</fix>
</trkpt>
<trkpt lat="-27.2557973" lon="151.2891806">
  <ele>369.61</ele>
  <time>2026-09-01T19:57:49Z</time>
  <course>246.17</course>
  <speed>26.3</speed>
  <fix>3d</fix>
</trkpt>
<trkpt lat="-27.2558294" lon="151.2891153">
  <ele>369.36</ele>
  <time>2026-09-01T19:57:49Z</time>
  <course>239.13</course>
  <speed>26.08554580605896</speed>
  <fix>3d</fix>
</trkpt>
<trkpt lat="-27.2557973" lon="151.2891806">
  <ele>369.61</ele>
  <time>2026-09-01T19:57:49Z</time>
  <course>246.17</course>
  <speed>26.3</speed>
  <fix>3d</fix>
</trkpt>
<trkpt lat="-27.2558424" lon="151.2890934">
  <ele>369.29</ele>
  <time>2026-09-01T19:57:49Z</time>
  <course>236.06</course>
  <speed>26.038573309611262</speed>
  <fix>3d</fix>
</trkpt>
<trkpt lat="-27.2558187" lon="151.2891333">
  <ele>369.47</ele>
  <time>2026-09-01T19:57:49Z</time>
  <course>240.0</course>
  <speed>26.21</speed>
  <fix>3d</fix>
</trkpt>
<trkpt lat="-27.2558565" lon="151.2890725">
  <ele>369.22</ele>
  <time>2026-09-01T19:57:49Z</time>
  <course>233.0</course>
  <speed>26.00151149452662</speed>
  <fix>3d</fix>
</trkpt>
<trkpt lat="-27.2558187" lon="151.2891333">
  <ele>369.47</ele>
  <time>2026-09-01T19:57:49Z</time>
  <course>240.0</course>
  <speed>26.21</speed>
  <fix>3d</fix>
</trkpt>
<trkpt lat="-27.2558715" lon="151.2890524">
  <ele>369.15</ele>
  <time>2026-09-01T19:57:49Z</time>
  <course>229.98</course>
  <speed>25.95287459993594</speed>
  <fix>3d</fix>
</trkpt>
<trkpt lat="-27.2558444" lon="151.2890889">
  <ele>369.32</ele>
  <time>2026-09-01T19:57:49Z</time>
  <course>233.85</course>
  <speed>26.12</speed>
  <fix>3d</fix>
</trkpt>
<trkpt lat="-27.2558875" lon="151.2890333">
  <ele>369.08</ele>
  <time>2026-09-01T19:57:49Z</time>
  <course>226.94</course>
  <speed>25.908396322427983</speed>
  <fix>3d</fix>
</trkpt>
<trkpt lat="-27.2558444" lon="151.2890889">
  <ele>369.32</ele>
  <time>2026-09-01T19:57:49Z</time>
  <course>233.85</course>
  <speed>26.12</speed>
  <fix>3d</fix>
</trkpt>
<trkpt lat="-27.2559043" lon="151.2890152">
  <ele>369.0</ele>
  <time>2026-09-01T19:57:49Z</time>
  <course>223.91</course>
  <speed>25.866636812697546</speed>
  <fix>3d</fix>
</trkpt>
<trkpt lat="-27.2558741" lon="151.289048">
  <ele>369.17</ele>
  <time>2026-09-01T19:57:49Z</time>
  <course>227.73</course>
  <speed>26.03</speed>
  <fix>3d</fix>
</trkpt>
<trkpt lat="-27.2559219" lon="151.2889982">
  <ele>368.92</ele>
  <time>2026-09-01T19:57:49Z</time>
  <course>220.9</course>
  <speed>25.82674969871354</speed>
  <fix>3d</fix>
</trkpt>
<trkpt lat="-27.2558741" lon="151.289048">
  <ele>369.17</ele>
  <time>2026-09-01T19:57:49Z</time>
  <course>227.73</course>
  <speed>26.03</speed>
  <fix>3d</fix>
</trkpt>
<trkpt lat="-27.2559403" lon="151.2889822">
  <ele>368.84</ele>
  <time>2026-09-01T19:57:49Z</time>
  <course>217.89</course>
  <speed>25.793584473663213</speed>
  <fix>3d</fix>
</trkpt>
<trkpt lat="-27.2559072" lon="151.2890111">
  <ele>369.02</ele>
  <time>2026-09-01T19:57:49Z</time>
  <course>221.63</course>
  <speed>25.95</speed>
  <fix>3d</fix>
</trkpt>
<trkpt lat="-27.2559593" lon="151.2889674">
  <ele>368.75</ele>
  <time>2026-09-01T19:57:49Z</time>
  <course>214.89</course>
  <speed>25.759988354034636</speed>
  <fix>3d</fix>
</trkpt>
<trkpt lat="-27.2559072" lon="151.2890111">
  <ele>369.02</ele>
  <time>2026-09-01T19:57:49Z</time>
  <course>221.63</course>
  <speed>25.95</speed>
  <fix>3d</fix>
</trkpt>
<trkpt lat="-27.255979" lon="151.2889538">
  <ele>368.67</ele>
  <time>2026-09-01T19:57:49Z</time>
  <course>211.84</course>
  <speed>25.726099587772723</speed>
  <fix>3d</fix>
</trkpt>
<trkpt lat="-27.2559436" lon="151.2889784">
  <ele>368.87</ele>
  <time>2026-09-01T19:57:49Z</time>
  <course>215.57</course>
  <speed>25.87</speed>
  <fix>3d</fix>
</trkpt>
<trkpt lat="-27.2559993" lon="151.2889413">
  <ele>368.58</ele>
  <time>2026-09-01T19:57:49Z</time>
  <course>208.8</course>
  <speed>25.701589445012928</speed>
  <fix>3d</fix>
</trkpt>
<trkpt lat="-27.2559436" lon="151.2889784">
  <ele>368.87</ele>
  <time>2026-09-01T19:57:49Z</time>
  <course>215.57</course>
  <speed>25.87</speed>
  <fix>3d</fix>
</trkpt>
<trkpt lat="-27.2560201" lon="151.2889301">
  <ele>368.48</ele>
  <time>2026-09-01T19:57:49Z</time>
  <course>205.8</course>
  <speed>25.669098153226965</speed>
  <fix>3d</fix>
</trkpt>
<trkpt lat="-27.2559827" lon="151.2889504">
  <ele>368.7</ele>
  <time>2026-09-01T19:57:49Z</time>
  <course>209.53</course>
  <speed>25.79</speed>
  <fix>3d</fix>
</trkpt>
<trkpt lat="-27.2560414" lon="151.2889202">
  <ele>368.39</ele>
  <time>2026-09-01T19:57:49Z</time>
  <course>202.83</course>
  <speed>25.645048254975073</speed>
  <fix>3d</fix>
</trkpt>
<trkpt lat="-27.2559827" lon="151.2889504">
  <ele>368.7</ele>
  <time>2026-09-01T19:57:49Z</time>
  <course>209.53</course>
  <speed>25.79</speed>
  <fix>3d</fix>
</trkpt>
<trkpt lat="-27.2560631" lon="151.2889115">
  <ele>368.29</ele>
  <time>2026-09-01T19:57:49Z</time>
  <course>199.88</course>
  <speed>25.612975227411592</speed>
  <fix>3d</fix>
</trkpt>
<trkpt lat="-27.2560241" lon="151.2889272">
  <ele>368.53</ele>
  <time>2026-09-01T19:57:49Z</time>
  <course>203.47</course>
  <speed>25.72</speed>
  <fix>3d</fix>
</trkpt>
<trkpt lat="-27.2560852" lon="151.2889042">
  <ele>368.2</ele>
  <time>2026-09-01T19:57:49Z</time>
  <course>196.95</course>
  <speed>25.589826103356</speed>
  <fix>3d</fix>
</trkpt>
<trkpt lat="-27.2560241" lon="151.2889272">
  <ele>368.53</ele>
  <time>2026-09-01T19:57:49Z</time>
  <course>203.47</course>
  <speed>25.72</speed>
  <fix>3d</fix>
</trkpt>
<trkpt lat="-27.2561073" lon="151.2888981">
  <ele>368.1</ele>
  <time>2026-09-01T19:57:49Z</time>
  <course>194.17</course>
  <speed>25.563337027860822</speed>
  <fix>3d</fix>
</trkpt>
<trkpt lat="-27.2560673" lon="151.2889091">
  <ele>368.35</ele>
  <time>2026-09-01T19:57:49Z</time>
  <course>197.48</course>
  <speed>25.66</speed>
  <fix>3d</fix>
</trkpt>
<trkpt lat="-27.2561299" lon="151.2888933">
  <ele>367.99</ele>
  <time>2026-09-01T19:57:49Z</time>
  <course>191.32</course>
  <speed>25.53008029756272</speed>
  <fix>3d</fix>
</trkpt>
<trkpt lat="-27.2560673" lon="151.2889091">
  <ele>368.35</ele>
  <time>2026-09-01T19:57:49Z</time>
  <course>197.48</course>
  <speed>25.66</speed>
  <fix>3d</fix>
</trkpt>
<trkpt lat="-27.2561526" lon="151.2888897">
  <ele>367.88</ele>
  <time>2026-09-01T19:57:49Z</time>
  <course>188.47</course>
  <speed>25.500890180540754</speed>
  <fix>3d</fix>
</trkpt>
<trkpt lat="-27.2561119" lon="151.2888961">
  <ele>368.16</ele>
  <time>2026-09-01T19:57:49Z</time>
  <course>191.63</course>
  <speed>25.59</speed>
  <fix>3d</fix>
</trkpt>
<trkpt lat="-27.2561758" lon="151.2888874">
  <ele>367.77</ele>
  <time>2026-09-01T19:57:49Z</time>
  <course>185.68</course>
  <speed>25.463630927265655</speed>
  <fix>3d</fix>
</trkpt>
<trkpt lat="-27.2561119" lon="151.2888961">
  <ele>368.16</ele>
  <time>2026-09-01T19:57:49Z</time>
  <course>191.63</course>
  <speed>25.59</speed>
  <fix>3d</fix>
</trkpt>
<trkpt lat="-27.2561986" lon="151.2888864">
  <ele>367.66</ele>
  <time>2026-09-01T19:57:49Z</time>
  <course>183.01</course>
  <speed>25.431541439716153</speed>
  <fix>3d</fix>
</trkpt>
<trkpt lat="-27.2561572" lon="151.2888882">
  <ele>367.95</ele>
  <time>2026-09-01T19:57:49Z</time>
  <course>185.91</course>
  <speed>25.52</speed>
  <fix>3d</fix>
</trkpt>
<trkpt lat="-27.2562215" lon="151.2888866">
  <ele>367.54</ele>
  <time>2026-09-01T19:57:49Z</time>
  <course>180.39</course>
  <speed>25.395600012600607</speed>
  <fix>3d</fix>
</trkpt>
<trkpt lat="-27.2561572" lon="151.2888882">
  <ele>367.95</ele>
  <time>2026-09-01T19:57:49Z</time>
  <course>185.91</course>
  <speed>25.52</speed>
  <fix>3d</fix>
</trkpt>
<trkpt lat="-27.2562442" lon="151.288888">
  <ele>367.42</ele>
  <time>2026-09-01T19:57:49Z</time>
  <course>177.84</course>
  <speed>25.361374174125505</speed>
  <fix>3d</fix>
</trkpt>
<trkpt lat="-27.2562029" lon="151.2888854">
  <ele>367.74</ele>
  <time>2026-09-01T19:57:49Z</time>
  <course>180.38</course>
  <speed>25.45</speed>
  <fix>3d</fix>
</trkpt>
<trkpt lat="-27.2562669" lon="151.2888904">
  <ele>367.29</ele>
  <time>2026-09-01T19:57:49Z</time>
  <course>175.39</course>
  <speed>25.325412138798452</speed>
  <fix>3d</fix>
</trkpt>
<trkpt lat="-27.2562029" lon="151.2888854">
  <ele>367.74</ele>
  <time>2026-09-01T19:57:49Z</time>
  <course>180.38</course>
  <speed>25.45</speed>
  <fix>3d</fix>
</trkpt>
<trkpt lat="-27.2562894" lon="151.288894">
  <ele>367.16</ele>
  <time>2026-09-01T19:57:49Z</time>
  <course>173.03</course>
  <speed>25.281315234773682</speed>
  <fix>3d</fix>
</trkpt>
<trkpt lat="-27.2562485" lon="151.2888874">
  <ele>367.51</ele>
  <time>2026-09-01T19:57:49Z</time>
  <course>175.12</course>
  <speed>25.37</speed>
  <fix>3d</fix>
</trkpt>
<trkpt lat="-27.2563117" lon="151.2888987">
  <ele>367.02</ele>
  <time>2026-09-01T19:57:49Z</time>
  <course>170.77</course>
  <speed>25.235778173062148</speed>
  <fix>3d</fix>
</trkpt>
<trkpt lat="-27.2562485" lon="151.2888874">
  <ele>367.51</ele>
  <time>2026-09-01T19:57:49Z</time>
  <course>175.12</course>
  <speed>25.37</speed>
  <fix>3d</fix>
</trkpt>
<trkpt lat="-27.2563338" lon="151.2889044">
  <ele>366.88</ele>
  <time>2026-09-01T19:57:49Z</time>
  <course>168.58</course>
  <speed>25.197099039373562</speed>
  <fix>3d</fix>
</trkpt>
<trkpt lat="-27.2562937" lon="151.288894">
  <ele>367.25</ele>
  <time>2026-09-01T19:57:49Z</time>
  <course>170.13</course>
  <speed>25.28</speed>
  <fix>3d</fix>
</trkpt>
<trkpt lat="-27.2563557" lon="151.288911">
  <ele>366.73</ele>
  <time>2026-09-01T19:57:49Z</time>
  <course>166.57</course>
  <speed>25.13880267634081</speed>
  <fix>3d</fix>
</trkpt>
<trkpt lat="-27.2562937" lon="151.288894">
  <ele>367.25</ele>
  <time>2026-09-01T19:57:49Z</time>
  <course>170.13</course>
  <speed>25.28</speed>
  <fix>3d</fix>
</trkpt>
<trkpt lat="-27.2563773" lon="151.2889185">
  <ele>366.57</ele>
  <time>2026-09-01T19:57:49Z</time>
  <course>164.62</course>
  <speed>25.09906970387548</speed>
  <fix>3d</fix>
</trkpt>
<trkpt lat="-27.2563381" lon="151.2889048">
  <ele>366.97</ele>
  <time>2026-09-01T19:57:49Z</time>
  <course>165.51</course>
  <speed>25.19</speed>
  <fix>3d</fix>
</trkpt>
<trkpt lat="-27.2563986" lon="151.2889268">
  <ele>366.4</ele>
  <time>2026-09-01T19:57:49Z</time>
  <course>162.75</course>
  <speed>25.050800386414803</speed>
  <fix>3d</fix>
</trkpt>
<trkpt lat="-27.2563381" lon="151.2889048">
  <ele>366.97</ele>
  <time>2026-09-01T19:57:49Z</time>
  <course>165.51</course>
  <speed>25.19</speed>
  <fix>3d</fix>
</trkpt>
<trkpt lat="-27.2564196" lon="151.2889358">
  <ele>366.22</ele>
  <time>2026-09-01T19:57:49Z</time>
  <course>160.99</course>
  <speed>25.002185904436438</speed>
  <fix>3d</fix>
</trkpt>
<trkpt lat="-27.2563813" lon="151.2889193">
  <ele>366.68</ele>
  <time>2026-09-01T19:57:49Z</time>
  <course>161.35</course>
  <speed>25.09</speed>
  <fix>3d</fix>
</trkpt>
<trkpt lat="-27.2564403" lon="151.2889456">
  <ele>366.04</ele>
  <time>2026-09-01T19:57:49Z</time>
  <course>159.27</course>
  <speed>24.953318416595415</speed>
  <fix>3d</fix>
</trkpt>
<trkpt lat="-27.2563813" lon="151.2889193">
  <ele>366.68</ele>
  <time>2026-09-01T19:57:49Z</time>
  <course>161.35</course>
  <speed>25.09</speed>
  <fix>3d</fix>
</trkpt>
<trkpt lat="-27.2564606" lon="151.2889561">
  <ele>365.84</ele>
  <time>2026-09-01T19:57:49Z</time>
  <course>157.67</course>
  <speed>24.90178507657634</speed>
  <fix>3d</fix>
</trkpt>
<trkpt lat="-27.2564234" lon="151.2889371">
  <ele>366.34</ele>
  <time>2026-09-01T19:57:49Z</time>
  <course>157.61</course>
  <speed>24.99</speed>
  <fix>3d</fix>
</trkpt>
<trkpt lat="-27.2564807" lon="151.2889671">
  <ele>365.63</ele>
  <time>2026-09-01T19:57:49Z</time>
  <course>156.18</course>
  <speed>24.85212465766257</speed>
  <fix>3d</fix>
</trkpt>
<trkpt lat="-27.2564234" lon="151.2889371">
  <ele>366.34</ele>
  <time>2026-09-01T19:57:49Z</time>
  <course>157.61</course>
  <speed>24.99</speed>
  <fix>3d</fix>
</trkpt>
<trkpt lat="-27.2565005" lon="151.2889787">
  <ele>365.41</ele>
  <time>2026-09-01T19:57:49Z</time>
  <course>154.75</course>
  <speed>24.81439098587753</speed>
  <fix>3d</fix>
</trkpt>
<trkpt lat="-27.2564643" lon="151.2889576">
  <ele>365.96</ele>
  <time>2026-09-01T19:57:49Z</time>
  <course>154.25</course>
  <speed>24.88</speed>
  <fix>3d</fix>
</trkpt>
<trkpt lat="-27.25652" lon="151.2889909">
  <ele>365.19</ele>
  <time>2026-09-01T19:57:49Z</time>
  <course>153.37</course>
  <speed>24.772228401982733</speed>
  <fix>3d</fix>
</trkpt>
<trkpt lat="-27.2564643" lon="151.2889576">
  <ele>365.96</ele>
  <time>2026-09-01T19:57:49Z</time>
  <course>154.25</course>
  <speed>24.88</speed>
  <fix>3d</fix>
</trkpt>
<trkpt lat="-27.2565392" lon="151.2890035">
  <ele>364.95</ele>
  <time>2026-09-01T19:57:49Z</time>
  <course>152.04</course>
  <speed>24.742103790906707</speed>
  <fix>3d</fix>
</trkpt>
<trkpt lat="-27.256504" lon="151.2889806">
  <ele>365.55</ele>
  <time>2026-09-01T19:57:49Z</time>
  <course>151.27</course>
  <speed>24.79</speed>
  <fix>3d</fix>
</trkpt>
<trkpt lat="-27.256558" lon="151.2890165">
  <ele>364.7</ele>
  <time>2026-09-01T19:57:49Z</time>
  <course>150.78</course>
  <speed>24.717210603140476</speed>
  <fix>3d</fix>
</trkpt>
<trkpt lat="-27.256504" lon="151.2889806">
  <ele>365.55</ele>
  <time>2026-09-01T19:57:49Z</time>
  <course>151.27</course>
  <speed>24.79</speed>
  <fix>3d</fix>
</trkpt>
<trkpt lat="-27.2565767" lon="151.2890301">
  <ele>364.45</ele>
  <time>2026-09-01T19:57:49Z</time>
  <course>149.52</course>
  <speed>24.701101190027945</speed>
  <fix>3d</fix>
</trkpt>
<trkpt lat="-27.2565424" lon="151.2890057">
  <ele>365.09</ele>
  <time>2026-09-01T19:57:49Z</time>
  <course>148.61</course>
  <speed>24.72</speed>
  <fix>3d</fix>
</trkpt>
<trkpt lat="-27.2565951" lon="151.2890441">
  <ele>364.19</ele>
  <time>2026-09-01T19:57:49Z</time>
  <course>148.3</course>
  <speed>24.692419889512653</speed>
  <fix>3d</fix>
</trkpt>
<trkpt lat="-27.2565424" lon="151.2890057">
  <ele>365.09</ele>
  <time>2026-09-01T19:57:49Z</time>
  <course>148.61</course>
  <speed>24.72</speed>
  <fix>3d</fix>
</trkpt>
<trkpt lat="-27.2566133" lon="151.2890585">
  <ele>363.93</ele>
  <time>2026-09-01T19:57:49Z</time>
  <course>147.16</course>
  <speed>24.689862292042054</speed>
  <fix>3d</fix>
</trkpt>
<trkpt lat="-27.2565798" lon="151.2890325">
  <ele>364.6</ele>
  <time>2026-09-01T19:57:49Z</time>
  <course>146.19</course>
  <speed>24.67</speed>
  <fix>3d</fix>
</trkpt>
<trkpt lat="-27.2566313" lon="151.2890733">
  <ele>363.66</ele>
  <time>2026-09-01T19:57:49Z</time>
  <course>146.02</course>
  <speed>24.692178923699707</speed>
  <fix>3d</fix>
</trkpt>
<trkpt lat="-27.2565798" lon="151.2890325">
  <ele>364.6</ele>
  <time>2026-09-01T19:57:49Z</time>
  <course>146.19</course>
  <speed>24.67</speed>
  <fix>3d</fix>
</trkpt>
<trkpt lat="-27.256649" lon="151.2890884">
  <ele>363.4</ele>
  <time>2026-09-01T19:57:49Z</time>
  <course>144.96</course>
  <speed>24.698178070456937</speed>
  <fix>3d</fix>
</trkpt>
<trkpt lat="-27.2566161" lon="151.2890611">
  <ele>364.09</ele>
  <time>2026-09-01T19:57:49Z</time>
  <course>143.98</course>
  <speed>24.65</speed>
  <fix>3d</fix>
</trkpt>
<trkpt lat="-27.2566665" lon="151.2891039">
  <ele>363.13</ele>
  <time>2026-09-01T19:57:49Z</time>
  <course>143.97</course>
  <speed>24.71454834707687</speed>
  <fix>3d</fix>
</trkpt>
<trkpt lat="-27.2566161" lon="151.2890611">
  <ele>364.09</ele>
  <time>2026-09-01T19:57:49Z</time>
  <course>143.98</course>
  <speed>24.65</speed>
  <fix>3d</fix>
</trkpt>
<trkpt lat="-27.2566843" lon="151.2891202">
  <ele>362.86</ele>
  <time>2026-09-01T19:57:49Z</time>
  <course>142.97</course>
  <speed>24.74490856721843</speed>
  <fix>3d</fix>
</trkpt>
<trkpt lat="-27.2566514" lon="151.2890911">
  <ele>363.57</ele>
  <time>2026-09-01T19:57:49Z</time>
  <course>141.99</course>
  <speed>24.66</speed>
  <fix>3d</fix>
</trkpt>
<trkpt lat="-27.2567013" lon="151.2891363">
  <ele>362.6</ele>
  <time>2026-09-01T19:57:49Z</time>
  <course>142.06</course>
  <speed>24.770710526749127</speed>
  <fix>3d</fix>
</trkpt>
<trkpt lat="-27.2566514" lon="151.2890911">
  <ele>363.57</ele>
  <time>2026-09-01T19:57:49Z</time>
  <course>141.99</course>
  <speed>24.66</speed>
  <fix>3d</fix>
</trkpt>
<trkpt lat="-27.2567181" lon="151.2891525">
  <ele>362.35</ele>
  <time>2026-09-01T19:57:49Z</time>
  <course>141.18</course>
  <speed>24.802243850103565</speed>
  <fix>3d</fix>
</trkpt>
<trkpt lat="-27.256686" lon="151.2891225">
  <ele>363.05</ele>
  <time>2026-09-01T19:57:49Z</time>
  <course>140.21</course>
  <speed>24.7</speed>
  <fix>3d</fix>
</trkpt>
<trkpt lat="-27.2567345" lon="151.2891689">
  <ele>362.12</ele>
  <time>2026-09-01T19:57:49Z</time>
  <course>140.36</course>
  <speed>24.839744362613718</speed>
  <fix>3d</fix>
</trkpt>
<trkpt lat="-27.256686" lon="151.2891225">
  <ele>363.05</ele>
  <time>2026-09-01T19:57:49Z</time>
  <course>140.21</course>
  <speed>24.7</speed>
  <fix>3d</fix>
</trkpt>
<trkpt lat="-27.256751" lon="151.2891857">
  <ele>361.88</ele>
  <time>2026-09-01T19:57:49Z</time>
  <course>139.59</course>
  <speed>24.88151321764816</speed>
  <fix>3d</fix>
</trkpt>
<trkpt lat="-27.2567198" lon="151.2891551">
  <ele>362.56</ele>
  <time>2026-09-01T19:57:49Z</time>
  <course>138.66</course>
  <speed>24.76</speed>
  <fix>3d</fix>
</trkpt>
<trkpt lat="-27.2567675" lon="151.2892029">
  <ele>361.67</ele>
  <time>2026-09-01T19:57:49Z</time>
  <course>138.9</course>
  <speed>24.919731138196493</speed>
  <fix>3d</fix>
</trkpt>
<trkpt lat="-27.2567198" lon="151.2891551">
  <ele>362.56</ele>
  <time>2026-09-01T19:57:49Z</time>
  <course>138.66</course>
  <speed>24.76</speed>
  <fix>3d</fix>
</trkpt>
<trkpt lat="-27.2567837" lon="151.2892202">
  <ele>361.46</ele>
  <time>2026-09-01T19:57:49Z</time>
  <course>138.28</course>
  <speed>24.962093261583654</speed>
  <fix>3d</fix>
</trkpt>
<trkpt lat="-27.2567529" lon="151.2891886">
  <ele>362.1</ele>
  <time>2026-09-01T19:57:49Z</time>
  <course>137.3</course>
  <speed>24.83</speed>
  <fix>3d</fix>
</trkpt>
<trkpt lat="-27.2567999" lon="151.2892377">
  <ele>361.27</ele>
  <time>2026-09-01T19:57:49Z</time>
  <course>137.68</course>
  <speed>24.99994599994168</speed>
  <fix>3d</fix>
</trkpt>
<trkpt lat="-27.2567529" lon="151.2891886">
  <ele>362.1</ele>
  <time>2026-09-01T19:57:49Z</time>
  <course>137.3</course>
  <speed>24.83</speed>
  <fix>3d</fix>
</trkpt>
<trkpt lat="-27.2568159" lon="151.2892554">
  <ele>361.09</ele>
  <time>2026-09-01T19:57:49Z</time>
  <course>137.06</course>
  <speed>25.025596895978325</speed>
  <fix>3d</fix>
</trkpt>
<trkpt lat="-27.2567854" lon="151.2892231">
  <ele>361.68</ele>
  <time>2026-09-01T19:57:49Z</time>
  <course>136.16</course>
  <speed>24.9</speed>
  <fix>3d</fix>
</trkpt>
<trkpt lat="-27.2568318" lon="151.2892732">
  <ele>360.92</ele>
  <time>2026-09-01T19:57:49Z</time>
  <course>136.59</course>
  <speed>25.074070271896424</speed>
  <fix>3d</fix>
</trkpt>
<trkpt lat="-27.2567854" lon="151.2892231">
  <ele>361.68</ele>
  <time>2026-09-01T19:57:49Z</time>
  <course>136.16</course>
  <speed>24.9</speed>
  <fix>3d</fix>
</trkpt>
<trkpt lat="-27.2568477" lon="151.2892912">
  <ele>360.77</ele>
  <time>2026-09-01T19:57:49Z</time>
  <course>136.2</course>
  <speed>25.10248593267209</speed>
  <fix>3d</fix>
</trkpt>
<trkpt lat="-27.2568174" lon="151.2892583">
  <ele>361.32</ele>
  <time>2026-09-01T19:57:49Z</time>
  <course>135.23</course>
  <speed>24.98</speed>
  <fix>3d</fix>
</trkpt>
<trkpt lat="-27.2568635" lon="151.2893093">
  <ele>360.62</ele>
  <time>2026-09-01T19:57:49Z</time>
  <course>135.81</course>
  <speed>25.138729084820497</speed>
  <fix>3d</fix>
</trkpt>
<trkpt lat="-27.2568174" lon="151.2892583">
  <ele>361.32</ele>
  <time>2026-09-01T19:57:49Z</time>
  <course>135.23</course>
  <speed>24.98</speed>
  <fix>3d</fix>
</trkpt>
<trkpt lat="-27.2568792" lon="151.2893276">
  <ele>360.49</ele>
  <time>2026-09-01T19:57:49Z</time>
  <course>135.48</course>
  <speed>25.168514060230095</speed>
  <fix>3d</fix>
</trkpt>
<trkpt lat="-27.2568492" lon="151.2892941">
  <ele>361.0</ele>
  <time>2026-09-01T19:57:49Z</time>
  <course>134.5</course>
  <speed>25.05</speed>
  <fix>3d</fix>
</trkpt>
<trkpt lat="-27.2568949" lon="151.2893459">
  <ele>360.37</ele>
  <time>2026-09-01T19:57:49Z</time>
  <course>135.12</course>
  <speed>25.198406695662328</speed>
  <fix>3d</fix>
</trkpt>
<trkpt lat="-27.2568492" lon="151.2892941">
  <ele>361.0</ele>
  <time>2026-09-01T19:57:49Z</time>
  <course>134.5</course>
  <speed>25.05</speed>
  <fix>3d</fix>
</trkpt>
<trkpt lat="-27.2569104" lon="151.2893642">
  <ele>360.26</ele>
  <time>2026-09-01T19:57:49Z</time>
  <course>134.86</course>
  <speed>25.22837489811819</speed>
  <fix>3d</fix>
</trkpt>
<trkpt lat="-27.2568806" lon="151.2893305">
  <ele>360.74</ele>
  <time>2026-09-01T19:57:49Z</time>
  <course>133.94</course>
  <speed>25.12</speed>
  <fix>3d</fix>
</trkpt>
<trkpt lat="-27.256926" lon="151.2893827">
  <ele>360.17</ele>
  <time>2026-09-01T19:57:49Z</time>
  <course>134.72</course>
  <speed>25.25138016030015</speed>
  <fix>3d</fix>
</trkpt>
<trkpt lat="-27.2568806" lon="151.2893305">
  <ele>360.74</ele>
  <time>2026-09-01T19:57:49Z</time>
  <course>133.94</course>
  <speed>25.12</speed>
  <fix>3d</fix>
</trkpt>
<trkpt lat="-27.2569416" lon="151.2894013">
  <ele>360.09</ele>
  <time>2026-09-01T19:57:49Z</time>
  <course>134.59</course>
  <speed>25.273854078869725</speed>
  <fix>3d</fix>
</trkpt>
<trkpt lat="-27.2569118" lon="151.2893672">
  <ele>360.52</ele>
  <time>2026-09-01T19:57:49Z</time>
  <course>133.53</course>
  <speed>25.18</speed>
  <fix>3d</fix>
</trkpt>
<trkpt lat="-27.2569571" lon="151.2894199">
  <ele>360.02</ele>
  <time>2026-09-01T19:57:49Z</time>
  <course>134.47</course>
  <speed>25.296023402898726</speed>
  <fix>3d</fix>
</trkpt>
<trkpt lat="-27.2569118" lon="151.2893672">
  <ele>360.52</ele>
  <time>2026-09-01T19:57:49Z</time>
  <course>133.53</course>
  <speed>25.18</speed>
  <fix>3d</fix>
</trkpt>
<trkpt lat="-27.2569728" lon="151.2894388">
  <ele>359.96</ele>
  <time>2026-09-01T19:57:49Z</time>
  <course>134.42</course>
  <speed>25.3109660029008</speed>
  <fix>3d</fix>
</trkpt>
<trkpt lat="-27.2569429" lon="151.2894041">
  <ele>360.35</ele>
  <time>2026-09-01T19:57:49Z</time>
  <course>133.28</course>
  <speed>25.23</speed>
  <fix>3d</fix>
</trkpt>
<trkpt lat="-27.2569884" lon="151.2894574">
  <ele>359.91</ele>
  <time>2026-09-01T19:57:49Z</time>
  <course>134.4</course>
  <speed>25.317829685816278</speed>
  <fix>3d</fix>
</trkpt>
<trkpt lat="-27.2569429" lon="151.2894041">
  <ele>360.35</ele>
  <time>2026-09-01T19:57:49Z</time>
  <course>133.28</course>
  <speed>25.23</speed>
  <fix>3d</fix>
</trkpt>
<trkpt lat="-27.2570039" lon="151.2894761">
  <ele>359.87</ele>
  <time>2026-09-01T19:57:49Z</time>
  <course>134.43</course>
  <speed>25.33116854785819</speed>
  <fix>3d</fix>
</trkpt>
<trkpt lat="-27.256974" lon="151.2894413">
  <ele>360.22</ele>
  <time>2026-09-01T19:57:49Z</time>
  <course>133.18</course>
  <speed>25.27</speed>
  <fix>3d</fix>
</trkpt>
<trkpt lat="-27.2570201" lon="151.2894953">
  <ele>359.84</ele>
  <time>2026-09-01T19:57:49Z</time>
  <course>134.54</course>
  <speed>25.34345083054003</speed>
  <fix>3d</fix>
</trkpt>
<trkpt lat="-27.256974" lon="151.2894413">
  <ele>360.22</ele>
  <time>2026-09-01T19:57:49Z</time>
  <course>133.18</course>
  <speed>25.27</speed>
  <fix>3d</fix>
</trkpt>
<trkpt lat="-27.2570356" lon="151.2895137">
  <ele>359.81</ele>
  <time>2026-09-01T19:57:49Z</time>
  <course>134.72</course>
  <speed>25.348108410688166</speed>
  <fix>3d</fix>
</trkpt>
<trkpt lat="-27.2570051" lon="151.2894787">
  <ele>360.14</ele>
  <time>2026-09-01T19:57:49Z</time>
  <course>133.29</course>
  <speed>25.29</speed>
  <fix>3d</fix>
</trkpt>
<trkpt lat="-27.2570514" lon="151.2895322">
  <ele>359.8</ele>
  <time>2026-09-01T19:57:49Z</time>
  <course>135.03</course>
  <speed>25.352343086981133</speed>
  <fix>3d</fix>
</trkpt>
<trkpt lat="-27.2570051" lon="151.2894787">
  <ele>360.14</ele>
  <time>2026-09-01T19:57:49Z</time>
  <course>133.29</course>
  <speed>25.29</speed>
  <fix>3d</fix>
</trkpt>
<trkpt lat="-27.2570673" lon="151.2895506">
  <ele>359.79</ele>
  <time>2026-09-01T19:57:49Z</time>
  <course>135.28</course>
  <speed>25.35732635748493</speed>
  <fix>3d</fix>
</trkpt>
<trkpt lat="-27.2570365" lon="151.2895158">
  <ele>360.09</ele>
  <time>2026-09-01T19:57:49Z</time>
  <course>133.73</course>
  <speed>25.32</speed>
  <fix>3d</fix>
</trkpt>
<trkpt lat="-27.2570833" lon="151.2895688">
  <ele>359.79</ele>
  <time>2026-09-01T19:57:49Z</time>
  <course>135.54</course>
  <speed>25.364086815811053</speed>
  <fix>3d</fix>
</trkpt>
<trkpt lat="-27.2570365" lon="151.2895158">
  <ele>360.09</ele>
  <time>2026-09-01T19:57:49Z</time>
  <course>133.73</course>
  <speed>25.32</speed>
  <fix>3d</fix>
</trkpt>
<trkpt lat="-27.2570995" lon="151.2895868">
  <ele>359.79</ele>
  <time>2026-09-01T19:57:49Z</time>
  <course>135.96</course>
  <speed>25.3664837925953</speed>
  <fix>3d</fix>
</trkpt>
<trkpt lat="-27.2570682" lon="151.2895526">
  <ele>360.07</ele>
  <time>2026-09-01T19:57:49Z</time>
  <course>134.56</course>
  <speed>25.34</speed>
  <fix>3d</fix>
</trkpt>
<trkpt lat="-27.2571161" lon="151.2896047">
  <ele>359.8</ele>
  <time>2026-09-01T19:57:49Z</time>
  <course>136.45</course>
  <speed>25.37244371360394</speed>
  <fix>3d</fix>
</trkpt>
<trkpt lat="-27.2570682" lon="151.2895526">
  <ele>360.07</ele>
  <time>2026-09-01T19:57:49Z</time>
  <course>134.56</course>
  <speed>25.34</speed>
  <fix>3d</fix>
</trkpt>
<trkpt lat="-27.2571326" lon="151.2896223">
  <ele>359.81</ele>
  <time>2026-09-01T19:57:49Z</time>
  <course>137.08</course>
  <speed>25.368825357118922</speed>
  <fix>3d</fix>
</trkpt>
<trkpt lat="-27.2571005" lon="151.2895887">
  <ele>360.08</ele>
  <time>2026-09-01T19:57:49Z</time>
  <course>135.73</course>
  <speed>25.36</speed>
  <fix>3d</fix>
</trkpt>
<trkpt lat="-27.2571494" lon="151.2896396">
  <ele>359.83</ele>
  <time>2026-09-01T19:57:49Z</time>
  <course>137.78</course>
  <speed>25.371608147691386</speed>
  <fix>3d</fix>
</trkpt>
<trkpt lat="-27.2571005" lon="151.2895887">
  <ele>360.08</ele>
  <time>2026-09-01T19:57:49Z</time>
  <course>135.73</course>
  <speed>25.36</speed>
  <fix>3d</fix>
</trkpt>
<trkpt lat="-27.2571665" lon="151.2896567">
  <ele>359.86</ele>
  <time>2026-09-01T19:57:49Z</time>
  <course>138.47</course>
  <speed>25.373151164173517</speed>
  <fix>3d</fix>
</trkpt>
<trkpt lat="-27.2571335" lon="151.289624">
  <ele>360.1</ele>
  <time>2026-09-01T19:57:49Z</time>
  <course>137.17</course>
  <speed>25.37</speed>
  <fix>3d</fix>
</trkpt>
<trkpt lat="-27.2571833" lon="151.289673">
  <ele>359.9</ele>
  <time>2026-09-01T19:57:49Z</time>
  <course>139.25</course>
  <speed>25.373785685230338</speed>
  <fix>3d</fix>
</trkpt>
<trkpt lat="-27.2571335" lon="151.289624">
  <ele>360.1</ele>
  <time>2026-09-01T19:57:49Z</time>
  <course>137.17</course>
  <speed>25.37</speed>
  <fix>3d</fix>
</trkpt>
<trkpt lat="-27.2572007" lon="151.2896894">
  <ele>359.93</ele>
  <time>2026-09-01T19:57:49Z</time>
  <course>140.16</course>
  <speed>25.362580704652277</speed>
  <fix>3d</fix>
</trkpt>
<trkpt lat="-27.2571673" lon="151.2896584">
  <ele>360.15</ele>
  <time>2026-09-01T19:57:49Z</time>
  <course>138.84</course>
  <speed>25.39</speed>
  <fix>3d</fix>
</trkpt>
<trkpt lat="-27.2572183" lon="151.2897054">
  <ele>359.98</ele>
  <time>2026-09-01T19:57:49Z</time>
  <course>141.13</course>
  <speed>25.34758371127315</speed>
  <fix>3d</fix>
</trkpt>
<trkpt lat="-27.2571673" lon="151.2896584">
  <ele>360.15</ele>
  <time>2026-09-01T19:57:49Z</time>
  <course>138.84</course>
  <speed>25.39</speed>
  <fix>3d</fix>
</trkpt>
<trkpt lat="-27.2572361" lon="151.289721">
  <ele>360.03</ele>
  <time>2026-09-01T19:57:49Z</time>
  <course>142.09</course>
  <speed>25.33451795475888</speed>
  <fix>3d</fix>
</trkpt>
<trkpt lat="-27.2572022" lon="151.2896915">
  <ele>360.22</ele>
  <time>2026-09-01T19:57:49Z</time>
  <course>140.71</course>
  <speed>25.4</speed>
  <fix>3d</fix>
</trkpt>
<trkpt lat="-27.2572541" lon="151.2897361">
  <ele>360.08</ele>
  <time>2026-09-01T19:57:49Z</time>
  <course>143.08</course>
  <speed>25.329729568236612</speed>
  <fix>3d</fix>
</trkpt>
<trkpt lat="-27.2572022" lon="151.2896915">
  <ele>360.22</ele>
  <time>2026-09-01T19:57:49Z</time>
  <course>140.71</course>
  <speed>25.4</speed>
  <fix>3d</fix>
</trkpt>
<trkpt lat="-27.2572724" lon="151.289751">
  <ele>360.14</ele>
  <time>2026-09-01T19:57:49Z</time>
  <course>144.1</course>
  <speed>25.31595741819772</speed>
  <fix>3d</fix>
</trkpt>
<trkpt lat="-27.257238" lon="151.2897233">
  <ele>360.32</ele>
  <time>2026-09-01T19:57:49Z</time>
  <course>142.74</course>
  <speed>25.41</speed>
  <fix>3d</fix>
</trkpt>
<trkpt lat="-27.257291" lon="151.2897655">
  <ele>360.2</ele>
  <time>2026-09-01T19:57:49Z</time>
  <course>145.14</course>
  <speed>25.314079086547864</speed>
  <fix>3d</fix>
</trkpt>
<trkpt lat="-27.257238" lon="151.2897233">
  <ele>360.32</ele>
  <time>2026-09-01T19:57:49Z</time>
  <course>142.74</course>
  <speed>25.41</speed>
  <fix>3d</fix>
</trkpt>
<trkpt lat="-27.2573099" lon="151.2897796">
  <ele>360.27</ele>
  <time>2026-09-01T19:57:49Z</time>
  <course>146.18</course>
  <speed>25.299711460805238</speed>
  <fix>3d</fix>
</trkpt>
<trkpt lat="-27.2572749" lon="151.2897536">
  <ele>360.43</ele>
  <time>2026-09-01T19:57:49Z</time>
  <course>144.9</course>
  <speed>25.42</speed>
  <fix>3d</fix>
</trkpt>
<trkpt lat="-27.2573292" lon="151.2897933">
  <ele>360.34</ele>
  <time>2026-09-01T19:57:49Z</time>
  <course>147.24</course>
  <speed>25.289723209240545</speed>
  <fix>3d</fix>
</trkpt>
<trkpt lat="-27.2572749" lon="151.2897536">
  <ele>360.43</ele>
  <time>2026-09-01T19:57:49Z</time>
  <course>144.9</course>
  <speed>25.42</speed>
  <fix>3d</fix>
</trkpt>
<trkpt lat="-27.2573485" lon="151.2898066">
  <ele>360.41</ele>
  <time>2026-09-01T19:57:49Z</time>
  <course>148.37</course>
  <speed>25.276020256361562</speed>
  <fix>3d</fix>
</trkpt>
<trkpt lat="-27.2573127" lon="151.2897823">
  <ele>360.55</ele>
  <time>2026-09-01T19:57:49Z</time>
  <course>147.15</course>
  <speed>25.43</speed>
  <fix>3d</fix>
</trkpt>
<trkpt lat="-27.2573681" lon="151.2898194">
  <ele>360.48</ele>
  <time>2026-09-01T19:57:49Z</time>
  <course>149.48</course>
  <speed>25.263736857400964</speed>
  <fix>3d</fix>
</trkpt>
<trkpt lat="-27.2573127" lon="151.2897823">
  <ele>360.55</ele>
  <time>2026-09-01T19:57:49Z</time>
  <course>147.15</course>
  <speed>25.43</speed>
  <fix>3d</fix>
</trkpt>
<trkpt lat="-27.2573886" lon="151.2898322">
  <ele>360.56</ele>
  <time>2026-09-01T19:57:49Z</time>
  <course>150.61</course>
  <speed>25.26139346908638</speed>
  <fix>3d</fix>
</trkpt>
<trkpt lat="-27.2573516" lon="151.2898093">
  <ele>360.69</ele>
  <time>2026-09-01T19:57:49Z</time>
  <course>149.42</course>
  <speed>25.43</speed>
  <fix>3d</fix>
</trkpt>
<trkpt lat="-27.2574085" lon="151.289844">
  <ele>360.64</ele>
  <time>2026-09-01T19:57:50Z</time>
  <course>151.67</course>
  <speed>25.25577359733809</speed>
  <fix>3d</fix>
</trkpt>
<trkpt lat="-27.2573516" lon="151.2898093">
  <ele>360.69</ele>
  <time>2026-09-01T19:57:50Z</time>
  <course>149.42</course>
  <speed>25.43</speed>
  <fix>3d</fix>
</trkpt>
<trkpt lat="-27.2574288" lon="151.2898556">
  <ele>360.71</ele>
  <time>2026-09-01T19:57:50Z</time>
  <course>152.73</course>
  <speed>25.246009585675118</speed>
  <fix>3d</fix>
</trkpt>
<trkpt lat="-27.2573915" lon="151.2898346">
  <ele>360.83</ele>
  <time>2026-09-01T19:57:50Z</time>
  <course>151.67</course>
  <speed>25.44</speed>
  <fix>3d</fix>
</trkpt>
<trkpt lat="-27.2574493" lon="151.2898667">
  <ele>360.79</ele>
  <time>2026-09-01T19:57:50Z</time>
  <course>153.8</course>
  <speed>25.240826056212978</speed>
  <fix>3d</fix>
</trkpt>
<trkpt lat="-27.2573915" lon="151.2898346">
  <ele>360.83</ele>
  <time>2026-09-01T19:57:50Z</time>
  <course>151.67</course>
  <speed>25.44</speed>
  <fix>3d</fix>
</trkpt>
<trkpt lat="-27.2574699" lon="151.2898774">
  <ele>360.86</ele>
  <time>2026-09-01T19:57:50Z</time>
  <course>154.92</course>
  <speed>25.23135351105842</speed>
  <fix>3d</fix>
</trkpt>
<trkpt lat="-27.2574321" lon="151.2898581">
  <ele>360.97</ele>
  <time>2026-09-01T19:57:50Z</time>
  <course>153.88</course>
  <speed>25.44</speed>
  <fix>3d</fix>
</trkpt>
<trkpt lat="-27.257491" lon="151.2898876">
  <ele>360.93</ele>
  <time>2026-09-01T19:57:50Z</time>
  <course>156.0</course>
  <speed>25.23098293765029</speed>
  <fix>3d</fix>
</trkpt>
<trkpt lat="-27.2574321" lon="151.2898581">
  <ele>360.97</ele>
  <time>2026-09-01T19:57:50Z</time>
  <course>153.88</course>
  <speed>25.44</speed>
  <fix>3d</fix>
</trkpt>
<trkpt lat="-27.257512" lon="151.2898975">
  <ele>360.99</ele>
  <time>2026-09-01T19:57:50Z</time>
  <course>157.13</course>
  <speed>25.230428058199887</speed>
  <fix>3d</fix>
</trkpt>
<trkpt lat="-27.2574736" lon="151.2898799">
  <ele>361.1</ele>
  <time>2026-09-01T19:57:50Z</time>
  <course>156.06</course>
  <speed>25.43</speed>
  <fix>3d</fix>
</trkpt>
<trkpt lat="-27.2575332" lon="151.2899068">
  <ele>361.05</ele>
  <time>2026-09-01T19:57:50Z</time>
  <course>158.18</course>
  <speed>25.222410669878485</speed>
  <fix>3d</fix>
</trkpt>
<trkpt lat="-27.2574736" lon="151.2898799">
  <ele>361.1</ele>
  <time>2026-09-01T19:57:50Z</time>
  <course>156.06</course>
  <speed>25.43</speed>
  <fix>3d</fix>
</trkpt>
<trkpt lat="-27.2575546" lon="151.2899157">
  <ele>361.11</ele>
  <time>2026-09-01T19:57:50Z</time>
  <course>159.22</course>
  <speed>25.217852803123424</speed>
  <fix>3d</fix>
</trkpt>
<trkpt lat="-27.2575157" lon="151.2898999">
  <ele>361.23</ele>
  <time>2026-09-01T19:57:50Z</time>
  <course>158.25</course>
  <speed>25.43</speed>
  <fix>3d</fix>
</trkpt>
<trkpt lat="-27.2575761" lon="151.2899241">
  <ele>361.17</ele>
  <time>2026-09-01T19:57:50Z</time>
  <course>160.23</course>
  <speed>25.206548752258804</speed>
  <fix>3d</fix>
</trkpt>
<trkpt lat="-27.2575157" lon="151.2898999">
  <ele>361.23</ele>
  <time>2026-09-01T19:57:50Z</time>
  <course>158.25</course>
  <speed>25.43</speed>
  <fix>3d</fix>
</trkpt>
<trkpt lat="-27.2575978" lon="151.2899321">
  <ele>361.22</ele>
  <time>2026-09-01T19:57:50Z</time>
  <course>161.24</course>
  <speed>25.206705457080265</speed>
  <fix>3d</fix>
</trkpt>
<trkpt lat="-27.2575584" lon="151.289918">
  <ele>361.34</ele>
  <time>2026-09-01T19:57:50Z</time>
  <course>160.43</course>
  <speed>25.42</speed>
  <fix>3d</fix>
</trkpt>
<trkpt lat="-27.2576195" lon="151.2899397">
  <ele>361.27</ele>
  <time>2026-09-01T19:57:50Z</time>
  <course>162.32</course>
  <speed>25.202549474209945</speed>
  <fix>3d</fix>
</trkpt>
<trkpt lat="-27.2575584" lon="151.289918">
  <ele>361.34</ele>
  <time>2026-09-01T19:57:50Z</time>
  <course>160.43</course>
  <speed>25.42</speed>
  <fix>3d</fix>
</trkpt>
<trkpt lat="-27.2576414" lon="151.2899468">
  <ele>361.32</ele>
  <time>2026-09-01T19:57:50Z</time>
  <course>163.38</course>
  <speed>25.206745129032427</speed>
  <fix>3d</fix>
</trkpt>
<trkpt lat="-27.2576017" lon="151.2899343">
  <ele>361.45</ele>
  <time>2026-09-01T19:57:50Z</time>
  <course>162.55</course>
  <speed>25.41</speed>
  <fix>3d</fix>
</trkpt>
<trkpt lat="-27.2576634" lon="151.2899535">
  <ele>361.37</ele>
  <time>2026-09-01T19:57:50Z</time>
  <course>164.4</course>
  <speed>25.195205893185317</speed>
  <fix>3d</fix>
</trkpt>
<trkpt lat="-27.2576017" lon="151.2899343">
  <ele>361.45</ele>
  <time>2026-09-01T19:57:50Z</time>
  <course>162.55</course>
  <speed>25.41</speed>
  <fix>3d</fix>
</trkpt>
<trkpt lat="-27.2576856" lon="151.2899597">
  <ele>361.42</ele>
  <time>2026-09-01T19:57:50Z</time>
  <course>165.4</course>
  <speed>25.200787686102196</speed>
  <fix>3d</fix>
</trkpt>
<trkpt lat="-27.2576455" lon="151.2899488">
  <ele>361.55</ele>
  <time>2026-09-01T19:57:50Z</time>
  <course>164.61</course>
  <speed>25.4</speed>
  <fix>3d</fix>
</trkpt>
<trkpt lat="-27.2577077" lon="151.2899655">
  <ele>361.47</ele>
  <time>2026-09-01T19:57:50Z</time>
  <course>166.31</course>
  <speed>25.186714752027505</speed>
  <fix>3d</fix>
</trkpt>
<trkpt lat="-27.2576455" lon="151.2899488">
  <ele>361.55</ele>
  <time>2026-09-01T19:57:50Z</time>
  <course>164.61</course>
  <speed>25.4</speed>
  <fix>3d</fix>
</trkpt>
<trkpt lat="-27.25773" lon="151.289971">
  <ele>361.51</ele>
  <time>2026-09-01T19:57:50Z</time>
  <course>167.23</course>
  <speed>25.181568656459827</speed>
  <fix>3d</fix>
</trkpt>
<trkpt lat="-27.2576896" lon="151.2899615">
  <ele>361.64</ele>
  <time>2026-09-01T19:57:50Z</time>
  <course>166.61</course>
  <speed>25.38</speed>
  <fix>3d</fix>
</trkpt>
<trkpt lat="-27.2577516" lon="151.2899758">
  <ele>361.55</ele>
  <time>2026-09-01T19:57:50Z</time>
  <course>168.13</course>
  <speed>25.16707770083766</speed>
  <fix>3d</fix>
</trkpt>
<trkpt lat="-27.2576896" lon="151.2899615">
  <ele>361.64</ele>
  <time>2026-09-01T19:57:50Z</time>
  <course>166.61</course>
  <speed>25.38</speed>
  <fix>3d</fix>
</trkpt>
<trkpt lat="-27.2577742" lon="151.2899805">
  <ele>361.59</ele>
  <time>2026-09-01T19:57:50Z</time>
  <course>169.1</course>
  <speed>25.16661280347437</speed>
  <fix>3d</fix>
</trkpt>
<trkpt lat="-27.2577341" lon="151.2899726">
  <ele>361.72</ele>
  <time>2026-09-01T19:57:50Z</time>
  <course>168.51</course>
  <speed>25.37</speed>
  <fix>3d</fix>
</trkpt>
<trkpt lat="-27.2577966" lon="151.2899847">
  <ele>361.63</ele>
  <time>2026-09-01T19:57:50Z</time>
  <course>170.02</course>
  <speed>25.154174603830675</speed>
  <fix>3d</fix>
</trkpt>
<trkpt lat="-27.2577341" lon="151.2899726">
  <ele>361.72</ele>
  <time>2026-09-01T19:57:50Z</time>
  <course>168.51</course>
  <speed>25.37</speed>
  <fix>3d</fix>
</trkpt>
<trkpt lat="-27.2578191" lon="151.2899885">
  <ele>361.67</ele>
  <time>2026-09-01T19:57:50Z</time>
  <course>170.78</course>
  <speed>25.160280205116955</speed>
  <fix>3d</fix>
</trkpt>
<trkpt lat="-27.2577789" lon="151.2899819">
  <ele>361.79</ele>
  <time>2026-09-01T19:57:50Z</time>
  <course>170.31</course>
  <speed>25.34</speed>
  <fix>3d</fix>
</trkpt>
<trkpt lat="-27.2578424" lon="151.2899921">
  <ele>361.7</ele>
  <time>2026-09-01T19:57:50Z</time>
  <course>171.66</course>
  <speed>25.150574546121206</speed>
  <fix>3d</fix>
</trkpt>
<trkpt lat="-27.2577789" lon="151.2899819">
  <ele>361.79</ele>
  <time>2026-09-01T19:57:50Z</time>
  <course>170.31</course>
  <speed>25.34</speed>
  <fix>3d</fix>
</trkpt>
<trkpt lat="-27.2578649" lon="151.2899952">
  <ele>361.72</ele>
  <time>2026-09-01T19:57:50Z</time>
  <course>172.45</course>
  <speed>25.149731608905892</speed>
  <fix>3d</fix>
</trkpt>
<trkpt lat="-27.257824" lon="151.2899898">
  <ele>361.86</ele>
  <time>2026-09-01T19:57:50Z</time>
  <course>172.03</course>
  <speed>25.33</speed>
  <fix>3d</fix>
</trkpt>
<trkpt lat="-27.2578875" lon="151.2899979">
  <ele>361.75</ele>
  <time>2026-09-01T19:57:50Z</time>
  <course>173.23</course>
  <speed>25.14359759461641</speed>
  <fix>3d</fix>
</trkpt>
<trkpt lat="-27.257824" lon="151.2899898">
  <ele>361.86</ele>
  <time>2026-09-01T19:57:50Z</time>
  <course>172.03</course>
  <speed>25.33</speed>
  <fix>3d</fix>
</trkpt>
<trkpt lat="-27.2579102" lon="151.2900004">
  <ele>361.77</ele>
  <time>2026-09-01T19:57:50Z</time>
  <course>173.95</course>
  <speed>25.143814348662378</speed>
  <fix>3d</fix>
</trkpt>
<trkpt lat="-27.2578692" lon="151.2899962">
  <ele>361.91</ele>
  <time>2026-09-01T19:57:50Z</time>
  <course>173.65</course>
  <speed>25.31</speed>
  <fix>3d</fix>
</trkpt>
<trkpt lat="-27.2579328" lon="151.2900025">
  <ele>361.79</ele>
  <time>2026-09-01T19:57:50Z</time>
  <course>174.75</course>
  <speed>25.14961828736174</speed>
  <fix>3d</fix>
</trkpt>
<trkpt lat="-27.2578692" lon="151.2899962">
  <ele>361.91</ele>
  <time>2026-09-01T19:57:50Z</time>
  <course>173.65</course>
  <speed>25.31</speed>
  <fix>3d</fix>
</trkpt>
<trkpt lat="-27.2579558" lon="151.2900043">
  <ele>361.8</ele>
  <time>2026-09-01T19:57:50Z</time>
  <course>175.47</course>
  <speed>25.149053660128047</speed>
  <fix>3d</fix>
</trkpt>
<trkpt lat="-27.2579144" lon="151.2900011">
  <ele>361.96</ele>
  <time>2026-09-01T19:57:50Z</time>
  <course>175.15</course>
  <speed>25.29</speed>
  <fix>3d</fix>
</trkpt>
<trkpt lat="-27.2579785" lon="151.2900057">
  <ele>361.81</ele>
  <time>2026-09-01T19:57:50Z</time>
  <course>176.19</course>
  <speed>25.152590323861276</speed>
  <fix>3d</fix>
</trkpt>
<trkpt lat="-27.2579144" lon="151.2900011">
  <ele>361.96</ele>
  <time>2026-09-01T19:57:50Z</time>
  <course>175.15</course>
  <speed>25.29</speed>
  <fix>3d</fix>
</trkpt>
<trkpt lat="-27.2580013" lon="151.2900069">
  <ele>361.83</ele>
  <time>2026-09-01T19:57:50Z</time>
  <course>176.87</course>
  <speed>25.150288268725667</speed>
  <fix>3d</fix>
</trkpt>
<trkpt lat="-27.2579597" lon="151.2900048">
  <ele>361.99</ele>
  <time>2026-09-01T19:57:50Z</time>
  <course>176.54</course>
  <speed>25.28</speed>
  <fix>3d</fix>
</trkpt>
<trkpt lat="-27.2580241" lon="151.2900079">
  <ele>361.84</ele>
  <time>2026-09-01T19:57:50Z</time>
  <course>177.54</course>
  <speed>25.15088865229219</speed>
  <fix>3d</fix>
</trkpt>
<trkpt lat="-27.2579597" lon="151.2900048">
  <ele>361.99</ele>
  <time>2026-09-01T19:57:50Z</time>
  <course>176.54</course>
  <speed>25.28</speed>
  <fix>3d</fix>
</trkpt>
<trkpt lat="-27.2580469" lon="151.2900085">
  <ele>361.84</ele>
  <time>2026-09-01T19:57:50Z</time>
  <course>178.15</course>
  <speed>25.154772906945514</speed>
  <fix>3d</fix>
</trkpt>
<trkpt lat="-27.2580051" lon="151.2900073">
  <ele>362.02</ele>
  <time>2026-09-01T19:57:50Z</time>
  <course>177.83</course>
  <speed>25.27</speed>
  <fix>3d</fix>
</trkpt>
<trkpt lat="-27.2580696" lon="151.2900089">
  <ele>361.85</ele>
  <time>2026-09-01T19:57:50Z</time>
  <course>178.73</course>
  <speed>25.161144648048108</speed>
  <fix>3d</fix>
</trkpt>
<trkpt lat="-27.2580051" lon="151.2900073">
  <ele>362.02</ele>
  <time>2026-09-01T19:57:50Z</time>
  <course>177.83</course>
  <speed>25.27</speed>
  <fix>3d</fix>
</trkpt>
<trkpt lat="-27.2580925" lon="151.290009">
  <ele>361.85</ele>
  <time>2026-09-01T19:57:50Z</time>
  <course>179.33</course>
  <speed>25.17</speed>
  <fix>3d</fix>
</trkpt>
<trkpt lat="-27.2580504" lon="151.2900087">
  <ele>362.03</ele>
  <time>2026-09-01T19:57:50Z</time>
  <course>179.02</course>
  <speed>25.26</speed>
  <fix>3d</fix>
</trkpt>
<trkpt lat="-27.2581152" lon="151.2900089">
  <ele>361.86</ele>
  <time>2026-09-01T19:57:50Z</time>
  <course>179.92</course>
  <speed>25.170876027663397</speed>
  <fix>3d</fix>
</trkpt>
<trkpt lat="-27.2580504" lon="151.2900087">
  <ele>362.03</ele>
  <time>2026-09-01T19:57:50Z</time>
  <course>179.02</course>
  <speed>25.26</speed>
  <fix>3d</fix>
</trkpt>
<trkpt lat="-27.258138" lon="151.2900086">
  <ele>361.86</ele>
  <time>2026-09-01T19:57:50Z</time>
  <course>180.44</course>
  <speed>25.17367275548008</speed>
  <fix>3d</fix>
</trkpt>
<trkpt lat="-27.2580958" lon="151.2900091">
  <ele>362.04</ele>
  <time>2026-09-01T19:57:50Z</time>
  <course>180.11</course>
  <speed>25.25</speed>
  <fix>3d</fix>
</trkpt>
<trkpt lat="-27.2581608" lon="151.290008">
  <ele>361.87</ele>
  <time>2026-09-01T19:57:50Z</time>
  <course>180.92</course>
  <speed>25.17788315168692</speed>
  <fix>3d</fix>
</trkpt>
<trkpt lat="-27.2580958" lon="151.2900091">
  <ele>362.04</ele>
  <time>2026-09-01T19:57:50Z</time>
  <course>180.11</course>
  <speed>25.25</speed>
  <fix>3d</fix>
</trkpt>
<trkpt lat="-27.2581835" lon="151.2900073">
  <ele>361.87</ele>
  <time>2026-09-01T19:57:50Z</time>
  <course>181.34</course>
  <speed>25.18335362893513</speed>
  <fix>3d</fix>
</trkpt>
<trkpt lat="-27.2581411" lon="151.2900086">
  <ele>362.05</ele>
  <time>2026-09-01T19:57:50Z</time>
  <course>181.12</course>
  <speed>25.25</speed>
  <fix>3d</fix>
</trkpt>
<trkpt lat="-27.2582063" lon="151.2900064">
  <ele>361.88</ele>
  <time>2026-09-01T19:57:50Z</time>
  <course>181.76</course>
  <speed>25.189462082386754</speed>
  <fix>3d</fix>
</trkpt>
<trkpt lat="-27.2581411" lon="151.2900086">
  <ele>362.05</ele>
  <time>2026-09-01T19:57:50Z</time>
  <course>181.12</course>
  <speed>25.25</speed>
  <fix>3d</fix>
</trkpt>
<trkpt lat="-27.258229" lon="151.2900054">
  <ele>361.88</ele>
  <time>2026-09-01T19:57:50Z</time>
  <course>182.16</course>
  <speed>25.186268084017527</speed>
  <fix>3d</fix>
</trkpt>
<trkpt lat="-27.2581864" lon="151.2900072">
  <ele>362.06</ele>
  <time>2026-09-01T19:57:50Z</time>
  <course>182.0</course>
  <speed>25.24</speed>
  <fix>3d</fix>
</trkpt>
<trkpt lat="-27.2582517" lon="151.2900041">
  <ele>361.89</ele>
  <time>2026-09-01T19:57:50Z</time>
  <course>182.63</course>
  <speed>25.193048644417768</speed>
  <fix>3d</fix>
</trkpt>
<trkpt lat="-27.2581864" lon="151.2900072">
  <ele>362.06</ele>
  <time>2026-09-01T19:57:50Z</time>
  <course>182.0</course>
  <speed>25.24</speed>
  <fix>3d</fix>
</trkpt>
<trkpt lat="-27.2582744" lon="151.2900027">
  <ele>361.9</ele>
  <time>2026-09-01T19:57:50Z</time>
  <course>183.01</course>
  <speed>25.20060515146412</speed>
  <fix>3d</fix>
</trkpt>
<trkpt lat="-27.2582317" lon="151.2900051">
  <ele>362.08</ele>
  <time>2026-09-01T19:57:50Z</time>
  <course>182.75</course>
  <speed>25.23</speed>
  <fix>3d</fix>
</trkpt>
<trkpt lat="-27.2582971" lon="151.2900012">
  <ele>361.91</ele>
  <time>2026-09-01T19:57:50Z</time>
  <course>183.3</course>
  <speed>25.207699220674623</speed>
  <fix>3d</fix>
</trkpt>
<trkpt lat="-27.2582317" lon="151.2900051">
  <ele>362.08</ele>
  <time>2026-09-01T19:57:50Z</time>
  <course>182.75</course>
  <speed>25.23</speed>
  <fix>3d</fix>
</trkpt>
<trkpt lat="-27.2583198" lon="151.2899995">
  <ele>361.92</ele>
  <time>2026-09-01T19:57:50Z</time>
  <course>183.59</course>
  <speed>25.214702060504305</speed>
  <fix>3d</fix>
</trkpt>
<trkpt lat="-27.258277" lon="151.2900024">
  <ele>362.09</ele>
  <time>2026-09-01T19:57:50Z</time>
  <course>183.39</course>
  <speed>25.23</speed>
  <fix>3d</fix>
</trkpt>
<trkpt lat="-27.2583425" lon="151.2899978">
  <ele>361.93</ele>
  <time>2026-09-01T19:57:50Z</time>
  <course>183.87</course>
  <speed>25.211507293297636</speed>
  <fix>3d</fix>
</trkpt>
<trkpt lat="-27.258277" lon="151.2900024">
  <ele>362.09</ele>
  <time>2026-09-01T19:57:50Z</time>
  <course>183.39</course>
  <speed>25.23</speed>
  <fix>3d</fix>
</trkpt>
<trkpt lat="-27.2583652" lon="151.2899959">
  <ele>361.94</ele>
  <time>2026-09-01T19:57:50Z</time>
  <course>184.16</course>
  <speed>25.21721832399442</speed>
  <fix>3d</fix>
</trkpt>
<trkpt lat="-27.2583222" lon="151.2899991">
  <ele>362.1</ele>
  <time>2026-09-01T19:57:50Z</time>
  <course>183.92</course>
  <speed>25.22</speed>
  <fix>3d</fix>
</trkpt>
<trkpt lat="-27.2583878" lon="151.289994">
  <ele>361.95</ele>
  <time>2026-09-01T19:57:50Z</time>
  <course>184.36</course>
  <speed>25.22318179770348</speed>
  <fix>3d</fix>
</trkpt>
<trkpt lat="-27.2583222" lon="151.2899991">
  <ele>362.1</ele>
  <time>2026-09-01T19:57:50Z</time>
  <course>183.92</course>
  <speed>25.22</speed>
  <fix>3d</fix>
</trkpt>
<trkpt lat="-27.2584105" lon="151.2899919">
  <ele>361.95</ele>
  <time>2026-09-01T19:57:50Z</time>
  <course>184.59</course>
  <speed>25.218637948945617</speed>
  <fix>3d</fix>
</trkpt>
<trkpt lat="-27.2583676" lon="151.2899954">
  <ele>362.12</ele>
  <time>2026-09-01T19:57:50Z</time>
  <course>184.34</course>
  <speed>25.22</speed>
  <fix>3d</fix>
</trkpt>
<trkpt lat="-27.2584333" lon="151.2899899">
  <ele>361.96</ele>
  <time>2026-09-01T19:57:50Z</time>
  <course>184.79</course>
  <speed>25.23341039178018</speed>
  <fix>3d</fix>
</trkpt>
<trkpt lat="-27.2583676" lon="151.2899954">
  <ele>362.12</ele>
  <time>2026-09-01T19:57:50Z</time>
  <course>184.34</course>
  <speed>25.22</speed>
  <fix>3d</fix>
</trkpt>
<trkpt lat="-27.258456" lon="151.2899877">
  <ele>361.96</ele>
  <time>2026-09-01T19:57:50Z</time>
  <course>184.92</course>
  <speed>25.23752166913384</speed>
  <fix>3d</fix>
</trkpt>
<trkpt lat="-27.2584127" lon="151.2899914">
  <ele>362.13</ele>
  <time>2026-09-01T19:57:50Z</time>
  <course>184.66</course>
  <speed>25.22</speed>
  <fix>3d</fix>
</trkpt>
<trkpt lat="-27.2584786" lon="151.2899855">
  <ele>361.97</ele>
  <time>2026-09-01T19:57:50Z</time>
  <course>185.11</course>
  <speed>25.24173131938457</speed>
  <fix>3d</fix>
</trkpt>
<trkpt lat="-27.2584127" lon="151.2899914">
  <ele>362.13</ele>
  <time>2026-09-01T19:57:50Z</time>
  <course>184.66</course>
  <speed>25.22</speed>
  <fix>3d</fix>
</trkpt>
<trkpt lat="-27.2585012" lon="151.2899833">
  <ele>361.98</ele>
  <time>2026-09-01T19:57:50Z</time>
  <course>185.23</course>
  <speed>25.24430430810087</speed>
  <fix>3d</fix>
</trkpt>
<trkpt lat="-27.2584578" lon="151.2899871">
  <ele>362.14</ele>
  <time>2026-09-01T19:57:50Z</time>
  <course>184.9</course>
  <speed>25.22</speed>
  <fix>3d</fix>
</trkpt>
<trkpt lat="-27.2585238" lon="151.289981">
  <ele>361.99</ele>
  <time>2026-09-01T19:57:50Z</time>
  <course>185.29</course>
  <speed>25.256874311759166</speed>
  <fix>3d</fix>
</trkpt>
<trkpt lat="-27.2584578" lon="151.2899871">
  <ele>362.14</ele>
  <time>2026-09-01T19:57:50Z</time>
  <course>184.9</course>
  <speed>25.22</speed>
  <fix>3d</fix>
</trkpt>
<trkpt lat="-27.2585464" lon="151.2899787">
  <ele>361.99</ele>
  <time>2026-09-01T19:57:50Z</time>
  <course>185.38</course>
  <speed>25.2595170183438</speed>
  <fix>3d</fix>
</trkpt>
<trkpt lat="-27.258503" lon="151.2899827">
  <ele>362.16</ele>
  <time>2026-09-01T19:57:50Z</time>
  <course>185.07</course>
  <speed>25.23</speed>
  <fix>3d</fix>
</trkpt>
<trkpt lat="-27.258569" lon="151.2899764">
  <ele>362.0</ele>
  <time>2026-09-01T19:57:50Z</time>
  <course>185.49</course>
  <speed>25.270366044044554</speed>
  <fix>3d</fix>
</trkpt>
<trkpt lat="-27.258503" lon="151.2899827">
  <ele>362.16</ele>
  <time>2026-09-01T19:57:50Z</time>
  <course>185.07</course>
  <speed>25.23</speed>
  <fix>3d</fix>
</trkpt>
<trkpt lat="-27.2585917" lon="151.2899741">
  <ele>362.01</ele>
  <time>2026-09-01T19:57:50Z</time>
  <course>185.57</course>
  <speed>25.271258377848934</speed>
  <fix>3d</fix>
</trkpt>
<trkpt lat="-27.2585482" lon="151.2899782">
  <ele>362.17</ele>
  <time>2026-09-01T19:57:50Z</time>
  <course>185.18</course>
  <speed>25.23</speed>
  <fix>3d</fix>
</trkpt>
<trkpt lat="-27.2586143" lon="151.2899718">
  <ele>362.02</ele>
  <time>2026-09-01T19:57:50Z</time>
  <course>185.53</course>
  <speed>25.28211423121097</speed>
  <fix>3d</fix>
</trkpt>
<trkpt lat="-27.2585482" lon="151.2899782">
  <ele>362.17</ele>
  <time>2026-09-01T19:57:50Z</time>
  <course>185.18</course>
  <speed>25.23</speed>
  <fix>3d</fix>
</trkpt>
<trkpt lat="-27.2586369" lon="151.2899694">
  <ele>362.03</ele>
  <time>2026-09-01T19:57:50Z</time>
  <course>185.55</course>
  <speed>25.29117830390668</speed>
  <fix>3d</fix>
</trkpt>
<trkpt lat="-27.2585933" lon="151.2899735">
  <ele>362.19</ele>
  <time>2026-09-01T19:57:50Z</time>
  <course>185.21</course>
  <speed>25.24</speed>
  <fix>3d</fix>
</trkpt>
<trkpt lat="-27.2586595" lon="151.2899671">
  <ele>362.04</ele>
  <time>2026-09-01T19:57:50Z</time>
  <course>185.59</course>
  <speed>25.289398964783643</speed>
  <fix>3d</fix>
</trkpt>
<trkpt lat="-27.2585933" lon="151.2899735">
  <ele>362.19</ele>
  <time>2026-09-01T19:57:50Z</time>
  <course>185.21</course>
  <speed>25.24</speed>
  <fix>3d</fix>
</trkpt>
<trkpt lat="-27.2586822" lon="151.2899648">
  <ele>362.06</ele>
  <time>2026-09-01T19:57:50Z</time>
  <course>185.57</course>
  <speed>25.298476238698644</speed>
  <fix>3d</fix>
</trkpt>
<trkpt lat="-27.2586384" lon="151.2899689">
  <ele>362.21</ele>
  <time>2026-09-01T19:57:50Z</time>
  <course>185.18</course>
  <speed>25.24</speed>
  <fix>3d</fix>
</trkpt>
<trkpt lat="-27.2587048" lon="151.2899625">
  <ele>362.07</ele>
  <time>2026-09-01T19:57:50Z</time>
  <course>185.56</course>
  <speed>25.29584946191766</speed>
  <fix>3d</fix>
</trkpt>
<trkpt lat="-27.2586384" lon="151.2899689">
  <ele>362.21</ele>
  <time>2026-09-01T19:57:50Z</time>
  <course>185.18</course>
  <speed>25.24</speed>
  <fix>3d</fix>
</trkpt>
<trkpt lat="-27.2587274" lon="151.2899603">
  <ele>362.08</ele>
  <time>2026-09-01T19:57:50Z</time>
  <course>185.55</course>
  <speed>25.303221138819463</speed>
  <fix>3d</fix>
</trkpt>
<trkpt lat="-27.2586836" lon="151.2899643">
  <ele>362.22</ele>
  <time>2026-09-01T19:57:50Z</time>
  <course>185.09</course>
  <speed>25.25</speed>
  <fix>3d</fix>
</trkpt>
<trkpt lat="-27.25875" lon="151.2899581">
  <ele>362.09</ele>
  <time>2026-09-01T19:57:50Z</time>
  <course>185.45</course>
  <speed>25.311477633674414</speed>
  <fix>3d</fix>
</trkpt>
<trkpt lat="-27.2586836" lon="151.2899643">
  <ele>362.22</ele>
  <time>2026-09-01T19:57:50Z</time>
  <course>185.09</course>
  <speed>25.25</speed>
  <fix>3d</fix>
</trkpt>
<trkpt lat="-27.2587727" lon="151.2899559">
  <ele>362.1</ele>
  <time>2026-09-01T19:57:50Z</time>
  <course>185.31</course>
  <speed>25.31724511079355</speed>
  <fix>3d</fix>
</trkpt>
<trkpt lat="-27.2587288" lon="151.2899598">
  <ele>362.25</ele>
  <time>2026-09-01T19:57:50Z</time>
  <course>184.96</course>
  <speed>25.25</speed>
  <fix>3d</fix>
</trkpt>
<trkpt lat="-27.2587953" lon="151.2899538">
  <ele>362.12</ele>
  <time>2026-09-01T19:57:50Z</time>
  <course>185.21</course>
  <speed>25.323925446107282</speed>
  <fix>3d</fix>
</trkpt>
<trkpt lat="-27.2587288" lon="151.2899598">
  <ele>362.25</ele>
  <time>2026-09-01T19:57:50Z</time>
  <course>184.96</course>
  <speed>25.25</speed>
  <fix>3d</fix>
</trkpt>
<trkpt lat="-27.258818" lon="151.2899517">
  <ele>362.13</ele>
  <time>2026-09-01T19:57:50Z</time>
  <course>185.21</course>
  <speed>25.329875641226508</speed>
  <fix>3d</fix>
</trkpt>
<trkpt lat="-27.258774" lon="151.2899555">
  <ele>362.28</ele>
  <time>2026-09-01T19:57:50Z</time>
  <course>184.78</course>
  <speed>25.26</speed>
  <fix>3d</fix>
</trkpt>
<trkpt lat="-27.2588406" lon="151.2899497">
  <ele>362.14</ele>
  <time>2026-09-01T19:57:50Z</time>
  <course>185.17</course>
  <speed>25.336702626821825</speed>
  <fix>3d</fix>
</trkpt>
<trkpt lat="-27.258774" lon="151.2899555">
  <ele>362.28</ele>
  <time>2026-09-01T19:57:50Z</time>
  <course>184.78</course>
  <speed>25.26</speed>
  <fix>3d</fix>
</trkpt>
<trkpt lat="-27.2588633" lon="151.2899477">
  <ele>362.15</ele>
  <time>2026-09-01T19:57:50Z</time>
  <course>185.07</course>
  <speed>25.33286403074078</speed>
  <fix>3d</fix>
</trkpt>
<trkpt lat="-27.2588194" lon="151.2899513">
  <ele>362.3</ele>
  <time>2026-09-01T19:57:50Z</time>
  <course>184.56</course>
  <speed>25.27</speed>
  <fix>3d</fix>
</trkpt>
<trkpt lat="-27.258886" lon="151.2899457">
  <ele>362.17</ele>
  <time>2026-09-01T19:57:50Z</time>
  <course>184.93</course>
  <speed>25.338360246866806</speed>
  <fix>3d</fix>
</trkpt>
<trkpt lat="-27.2588194" lon="151.2899513">
  <ele>362.3</ele>
  <time>2026-09-01T19:57:50Z</time>
  <course>184.56</course>
  <speed>25.27</speed>
  <fix>3d</fix>
</trkpt>
<trkpt lat="-27.2589084" lon="151.2899439">
  <ele>362.19</ele>
  <time>2026-09-01T19:57:50Z</time>
  <course>184.81</course>
  <speed>25.334738996089932</speed>
  <fix>3d</fix>
</trkpt>
<trkpt lat="-27.2588647" lon="151.2899474">
  <ele>362.32</ele>
  <time>2026-09-01T19:57:50Z</time>
  <course>184.32</course>
  <speed>25.28</speed>
  <fix>3d</fix>
</trkpt>
<trkpt lat="-27.2589311" lon="151.2899421">
  <ele>362.21</ele>
  <time>2026-09-01T19:57:50Z</time>
  <course>184.61</course>
  <speed>25.340499205816762</speed>
  <fix>3d</fix>
</trkpt>
<trkpt lat="-27.2588647" lon="151.2899474">
  <ele>362.32</ele>
  <time>2026-09-01T19:57:50Z</time>
  <course>184.32</course>
  <speed>25.28</speed>
  <fix>3d</fix>
</trkpt>
<trkpt lat="-27.2589538" lon="151.2899403">
  <ele>362.23</ele>
  <time>2026-09-01T19:57:50Z</time>
  <course>184.42</course>
  <speed>25.337095334706383</speed>
  <fix>3d</fix>
</trkpt>
<trkpt lat="-27.25891" lon="151.2899436">
  <ele>362.36</ele>
  <time>2026-09-01T19:57:50Z</time>
  <course>184.06</course>
  <speed>25.28</speed>
  <fix>3d</fix>
</trkpt>
<trkpt lat="-27.2589765" lon="151.2899386">
  <ele>362.25</ele>
  <time>2026-09-01T19:57:50Z</time>
  <course>184.3</course>
  <speed>25.342474228062265</speed>
  <fix>3d</fix>
</trkpt>
<trkpt lat="-27.25891" lon="151.2899436">
  <ele>362.36</ele>
  <time>2026-09-01T19:57:50Z</time>
  <course>184.06</course>
  <speed>25.28</speed>
  <fix>3d</fix>
</trkpt>
<trkpt lat="-27.2589995" lon="151.289937">
  <ele>362.27</ele>
  <time>2026-09-01T19:57:50Z</time>
  <course>184.22</course>
  <speed>25.338685838061924</speed>
  <fix>3d</fix>
</trkpt>
<trkpt lat="-27.2589553" lon="151.2899401">
  <ele>362.39</ele>
  <time>2026-09-01T19:57:50Z</time>
  <course>183.78</course>
  <speed>25.28</speed>
  <fix>3d</fix>
</trkpt>
<trkpt lat="-27.2590222" lon="151.2899354">
  <ele>362.28</ele>
  <time>2026-09-01T19:57:50Z</time>
  <course>184.08</course>
  <speed>25.34502120732985</speed>
  <fix>3d</fix>
</trkpt>
<trkpt lat="-27.2589553" lon="151.2899401">
  <ele>362.39</ele>
  <time>2026-09-01T19:57:50Z</time>
  <course>183.78</course>
  <speed>25.28</speed>
  <fix>3d</fix>
</trkpt>
<trkpt lat="-27.2590448" lon="151.289934">
  <ele>362.3</ele>
  <time>2026-09-01T19:57:50Z</time>
  <course>184.0</course>
  <speed>25.340947101479852</speed>
  <fix>3d</fix>
</trkpt>
<trkpt lat="-27.2590006" lon="151.2899369">
  <ele>362.43</ele>
  <time>2026-09-01T19:57:50Z</time>
  <course>183.48</course>
  <speed>25.28</speed>
  <fix>3d</fix>
</trkpt>
<trkpt lat="-27.2590674" lon="151.2899325">
  <ele>362.31</ele>
  <time>2026-09-01T19:57:50Z</time>
  <course>183.84</course>
  <speed>25.337608411213555</speed>
  <fix>3d</fix>
</trkpt>
<trkpt lat="-27.2590006" lon="151.2899369">
  <ele>362.43</ele>
  <time>2026-09-01T19:57:50Z</time>
  <course>183.48</course>
  <speed>25.28</speed>
  <fix>3d</fix>
</trkpt>
<trkpt lat="-27.2590899" lon="151.2899312">
  <ele>362.33</ele>
  <time>2026-09-01T19:57:50Z</time>
  <course>183.63</course>
  <speed>25.32442496879248</speed>
  <fix>3d</fix>
</trkpt>
<trkpt lat="-27.2590459" lon="151.2899339">
  <ele>362.46</ele>
  <time>2026-09-01T19:57:50Z</time>
  <course>183.18</course>
  <speed>25.28</speed>
  <fix>3d</fix>
</trkpt>
<trkpt lat="-27.2591125" lon="151.2899299">
  <ele>362.35</ele>
  <time>2026-09-01T19:57:50Z</time>
  <course>183.44</course>
  <speed>25.320872812760623</speed>
  <fix>3d</fix>
</trkpt>
<trkpt lat="-27.2590459" lon="151.2899339">
  <ele>362.46</ele>
  <time>2026-09-01T19:57:50Z</time>
  <course>183.18</course>
  <speed>25.28</speed>
  <fix>3d</fix>
</trkpt>
<trkpt lat="-27.259135" lon="151.2899287">
  <ele>362.36</ele>
  <time>2026-09-01T19:57:50Z</time>
  <course>183.29</course>
  <speed>25.307524572743183</speed>
  <fix>3d</fix>
</trkpt>
<trkpt lat="-27.2590913" lon="151.2899312">
  <ele>362.49</ele>
  <time>2026-09-01T19:57:50Z</time>
  <course>182.87</course>
  <speed>25.29</speed>
  <fix>3d</fix>
</trkpt>
<trkpt lat="-27.2591575" lon="151.2899276">
  <ele>362.37</ele>
  <time>2026-09-01T19:57:50Z</time>
  <course>183.16</course>
  <speed>25.304797964022555</speed>
  <fix>3d</fix>
</trkpt>
<trkpt lat="-27.2590913" lon="151.2899312">
  <ele>362.49</ele>
  <time>2026-09-01T19:57:50Z</time>
  <course>182.87</course>
  <speed>25.29</speed>
  <fix>3d</fix>
</trkpt>
<trkpt lat="-27.25918" lon="151.2899265">
  <ele>362.38</ele>
  <time>2026-09-01T19:57:50Z</time>
  <course>183.08</course>
  <speed>25.30221334191932</speed>
  <fix>3d</fix>
</trkpt>
<trkpt lat="-27.2591367" lon="151.2899288">
  <ele>362.52</ele>
  <time>2026-09-01T19:57:50Z</time>
  <course>182.57</course>
  <speed>25.29</speed>
  <fix>3d</fix>
</trkpt>
<trkpt lat="-27.2592026" lon="151.2899255">
  <ele>362.39</ele>
  <time>2026-09-01T19:57:50Z</time>
  <course>182.94</course>
  <speed>25.28977856763479</speed>
  <fix>3d</fix>
</trkpt>
<trkpt lat="-27.2591367" lon="151.2899288">
  <ele>362.52</ele>
  <time>2026-09-01T19:57:50Z</time>
  <course>182.57</course>
  <speed>25.29</speed>
  <fix>3d</fix>
</trkpt>
<trkpt lat="-27.2592251" lon="151.2899245">
  <ele>362.4</ele>
  <time>2026-09-01T19:57:50Z</time>
  <course>182.8</course>
  <speed>25.287477137903657</speed>
  <fix>3d</fix>
</trkpt>
<trkpt lat="-27.259182" lon="151.2899266">
  <ele>362.55</ele>
  <time>2026-09-01T19:57:50Z</time>
  <course>182.27</course>
  <speed>25.29</speed>
  <fix>3d</fix>
</trkpt>
<trkpt lat="-27.2592477" lon="151.2899237">
  <ele>362.41</ele>
  <time>2026-09-01T19:57:50Z</time>
  <course>182.68</course>
  <speed>25.284971821222186</speed>
  <fix>3d</fix>
</trkpt>
<trkpt lat="-27.259182" lon="151.2899266">
  <ele>362.55</ele>
  <time>2026-09-01T19:57:50Z</time>
  <course>182.27</course>
  <speed>25.29</speed>
  <fix>3d</fix>
</trkpt>
<trkpt lat="-27.2592703" lon="151.2899228">
  <ele>362.42</ele>
  <time>2026-09-01T19:57:50Z</time>
  <course>182.53</course>
  <speed>25.283300812987218</speed>
  <fix>3d</fix>
</trkpt>
<trkpt lat="-27.2592276" lon="151.2899247">
  <ele>362.57</ele>
  <time>2026-09-01T19:57:50Z</time>
  <course>181.99</course>
  <speed>25.3</speed>
  <fix>3d</fix>
</trkpt>
<trkpt lat="-27.2592929" lon="151.2899221">
  <ele>362.43</ele>
  <time>2026-09-01T19:57:50Z</time>
  <course>182.36</course>
  <speed>25.281728580142616</speed>
  <fix>3d</fix>
</trkpt>
<trkpt lat="-27.2592276" lon="151.2899247">
  <ele>362.57</ele>
  <time>2026-09-01T19:57:50Z</time>
  <course>181.99</course>
  <speed>25.3</speed>
  <fix>3d</fix>
</trkpt>
<trkpt lat="-27.2593155" lon="151.2899214">
  <ele>362.43</ele>
  <time>2026-09-01T19:57:50Z</time>
  <course>182.19</course>
  <speed>25.279972310111415</speed>
  <fix>3d</fix>
</trkpt>
<trkpt lat="-27.2592731" lon="151.289923">
  <ele>362.59</ele>
  <time>2026-09-01T19:57:50Z</time>
  <course>181.72</course>
  <speed>25.31</speed>
  <fix>3d</fix>
</trkpt>
<trkpt lat="-27.2593381" lon="151.2899207">
  <ele>362.44</ele>
  <time>2026-09-01T19:57:50Z</time>
  <course>181.98</course>
  <speed>25.278358332771532</speed>
  <fix>3d</fix>
</trkpt>
<trkpt lat="-27.2592731" lon="151.289923">
  <ele>362.59</ele>
  <time>2026-09-01T19:57:50Z</time>
  <course>181.72</course>
  <speed>25.31</speed>
  <fix>3d</fix>
</trkpt>
<trkpt lat="-27.2593607" lon="151.2899201">
  <ele>362.45</ele>
  <time>2026-09-01T19:57:50Z</time>
  <course>181.87</course>
  <speed>25.277122067197443</speed>
  <fix>3d</fix>
</trkpt>
<trkpt lat="-27.2593185" lon="151.2899216">
  <ele>362.6</ele>
  <time>2026-09-01T19:57:50Z</time>
  <course>181.46</course>
  <speed>25.31</speed>
  <fix>3d</fix>
</trkpt>
<trkpt lat="-27.2593832" lon="151.2899196">
  <ele>362.46</ele>
  <time>2026-09-01T19:57:50Z</time>
  <course>181.78</course>
  <speed>25.27598464946519</speed>
  <fix>3d</fix>
</trkpt>
<trkpt lat="-27.2593185" lon="151.2899216">
  <ele>362.6</ele>
  <time>2026-09-01T19:57:50Z</time>
  <course>181.46</course>
  <speed>25.31</speed>
  <fix>3d</fix>
</trkpt>
<trkpt lat="-27.2594058" lon="151.2899191">
  <ele>362.47</ele>
  <time>2026-09-01T19:57:50Z</time>
  <course>181.64</course>
  <speed>25.284944136778314</speed>
  <fix>3d</fix>
</trkpt>
<trkpt lat="-27.259364" lon="151.2899204">
  <ele>362.62</ele>
  <time>2026-09-01T19:57:50Z</time>
  <course>181.2</course>
  <speed>25.32</speed>
  <fix>3d</fix>
</trkpt>
<trkpt lat="-27.2594285" lon="151.2899187">
  <ele>362.48</ele>
  <time>2026-09-01T19:57:50Z</time>
  <course>181.5</course>
  <speed>25.28400482518543</speed>
  <fix>3d</fix>
</trkpt>
<trkpt lat="-27.259364" lon="151.2899204">
  <ele>362.62</ele>
  <time>2026-09-01T19:57:50Z</time>
  <course>181.2</course>
  <speed>25.32</speed>
  <fix>3d</fix>
</trkpt>
<trkpt lat="-27.2594512" lon="151.2899183">
  <ele>362.49</ele>
  <time>2026-09-01T19:57:50Z</time>
  <course>181.39</course>
  <speed>25.283164358916782</speed>
  <fix>3d</fix>
</trkpt>
<trkpt lat="-27.2594095" lon="151.2899195">
  <ele>362.63</ele>
  <time>2026-09-01T19:57:50Z</time>
  <course>180.96</course>
  <speed>25.33</speed>
  <fix>3d</fix>
</trkpt>
<trkpt lat="-27.2594741" lon="151.289918">
  <ele>362.5</ele>
  <time>2026-09-01T19:57:50Z</time>
  <course>181.3</course>
  <speed>25.28242274783016</speed>
  <fix>3d</fix>
</trkpt>
<trkpt lat="-27.2594095" lon="151.2899195">
  <ele>362.63</ele>
  <time>2026-09-01T19:57:50Z</time>
  <course>180.96</course>
  <speed>25.33</speed>
  <fix>3d</fix>
</trkpt>
<trkpt lat="-27.2594967" lon="151.2899177">
  <ele>362.51</ele>
  <time>2026-09-01T19:57:50Z</time>
  <course>181.21</course>
  <speed>25.291899889094925</speed>
  <fix>3d</fix>
</trkpt>
<trkpt lat="-27.259455" lon="151.2899187">
  <ele>362.65</ele>
  <time>2026-09-01T19:57:50Z</time>
  <course>180.73</course>
  <speed>25.33</speed>
  <fix>3d</fix>
</trkpt>
<trkpt lat="-27.2595195" lon="151.2899174">
  <ele>362.52</ele>
  <time>2026-09-01T19:57:50Z</time>
  <course>181.13</course>
  <speed>25.29144124007171</speed>
  <fix>3d</fix>
</trkpt>
<trkpt lat="-27.259455" lon="151.2899187">
  <ele>362.65</ele>
  <time>2026-09-01T19:57:50Z</time>
  <course>180.73</course>
  <speed>25.33</speed>
  <fix>3d</fix>
</trkpt>
<trkpt lat="-27.2595422" lon="151.2899172">
  <ele>362.53</ele>
  <time>2026-09-01T19:57:50Z</time>
  <course>181.06</course>
  <speed>25.291045846306947</speed>
  <fix>3d</fix>
</trkpt>
<trkpt lat="-27.2595005" lon="151.2899181">
  <ele>362.66</ele>
  <time>2026-09-01T19:57:50Z</time>
  <course>180.52</course>
  <speed>25.34</speed>
  <fix>3d</fix>
</trkpt>
<trkpt lat="-27.2595649" lon="151.2899171">
  <ele>362.54</ele>
  <time>2026-09-01T19:57:50Z</time>
  <course>180.96</course>
  <speed>25.290713710767434</speed>
  <fix>3d</fix>
</trkpt>
<trkpt lat="-27.2595005" lon="151.2899181">
  <ele>362.66</ele>
  <time>2026-09-01T19:57:50Z</time>
  <course>180.52</course>
  <speed>25.34</speed>
  <fix>3d</fix>
</trkpt>
<trkpt lat="-27.2595876" lon="151.289917">
  <ele>362.55</ele>
  <time>2026-09-01T19:57:50Z</time>
  <course>180.88</course>
  <speed>25.30050592379528</speed>
  <fix>3d</fix>
</trkpt>
<trkpt lat="-27.259546" lon="151.2899177">
  <ele>362.69</ele>
  <time>2026-09-01T19:57:50Z</time>
  <course>180.34</course>
  <speed>25.35</speed>
  <fix>3d</fix>
</trkpt>
<trkpt lat="-27.2596104" lon="151.2899169">
  <ele>362.55</ele>
  <time>2026-09-01T19:57:50Z</time>
  <course>180.78</course>
  <speed>25.300333989890333</speed>
  <fix>3d</fix>
</trkpt>
<trkpt lat="-27.259546" lon="151.2899177">
  <ele>362.69</ele>
  <time>2026-09-01T19:57:50Z</time>
  <course>180.34</course>
  <speed>25.35</speed>
  <fix>3d</fix>
</trkpt>
<trkpt lat="-27.2596333" lon="151.2899168">
  <ele>362.56</ele>
  <time>2026-09-01T19:57:50Z</time>
  <course>180.69</course>
  <speed>25.300197627686625</speed>
  <fix>3d</fix>
</trkpt>
<trkpt lat="-27.2595916" lon="151.2899175">
  <ele>362.7</ele>
  <time>2026-09-01T19:57:50Z</time>
  <course>180.18</course>
  <speed>25.36</speed>
  <fix>3d</fix>
</trkpt>
<trkpt lat="-27.259656" lon="151.2899168">
  <ele>362.57</ele>
  <time>2026-09-01T19:57:50Z</time>
  <course>180.61</course>
  <speed>25.31009679949881</speed>
  <fix>3d</fix>
</trkpt>
<trkpt lat="-27.2595916" lon="151.2899175">
  <ele>362.7</ele>
  <time>2026-09-01T19:57:50Z</time>
  <course>180.18</course>
  <speed>25.36</speed>
  <fix>3d</fix>
</trkpt>
<trkpt lat="-27.2596788" lon="151.2899168">
  <ele>362.57</ele>
  <time>2026-09-01T19:57:50Z</time>
  <course>180.55</course>
  <speed>25.31003160804032</speed>
  <fix>3d</fix>
</trkpt>
<trkpt lat="-27.2596371" lon="151.2899174">
  <ele>362.72</ele>
  <time>2026-09-01T19:57:50Z</time>
  <course>180.04</course>
  <speed>25.36</speed>
  <fix>3d</fix>
</trkpt>
<trkpt lat="-27.2597016" lon="151.2899168">
  <ele>362.58</ele>
  <time>2026-09-01T19:57:50Z</time>
  <course>180.5</course>
  <speed>25.31000790201378</speed>
  <fix>3d</fix>
</trkpt>
<trkpt lat="-27.2596371" lon="151.2899174">
  <ele>362.72</ele>
  <time>2026-09-01T19:57:50Z</time>
  <course>180.04</course>
  <speed>25.36</speed>
  <fix>3d</fix>
</trkpt>
<trkpt lat="-27.2597244" lon="151.2899169">
  <ele>362.59</ele>
  <time>2026-09-01T19:57:50Z</time>
  <course>180.43</course>
  <speed>25.31</speed>
  <fix>3d</fix>
</trkpt>
<trkpt lat="-27.2596827" lon="151.2899174">
  <ele>362.74</ele>
  <time>2026-09-01T19:57:50Z</time>
  <course>179.91</course>
  <speed>25.37</speed>
  <fix>3d</fix>
</trkpt>
<trkpt lat="-27.2597472" lon="151.289917">
  <ele>362.59</ele>
  <time>2026-09-01T19:57:50Z</time>
  <course>180.36</course>
  <speed>25.31000790201378</speed>
  <fix>3d</fix>
</trkpt>
<trkpt lat="-27.2596827" lon="151.2899174">
  <ele>362.74</ele>
  <time>2026-09-01T19:57:50Z</time>
  <course>179.91</course>
  <speed>25.37</speed>
  <fix>3d</fix>
</trkpt>
<trkpt lat="-27.25977" lon="151.2899171">
  <ele>362.6</ele>
  <time>2026-09-01T19:57:50Z</time>
  <course>180.25</course>
  <speed>25.32004936804034</speed>
  <fix>3d</fix>
</trkpt>
<trkpt lat="-27.2597283" lon="151.2899175">
  <ele>362.75</ele>
  <time>2026-09-01T19:57:50Z</time>
  <course>179.81</course>
  <speed>25.37</speed>
  <fix>3d</fix>
</trkpt>
<trkpt lat="-27.2597928" lon="151.2899172">
  <ele>362.61</ele>
  <time>2026-09-01T19:57:50Z</time>
  <course>180.2</course>
  <speed>25.32009676126851</speed>
  <fix>3d</fix>
</trkpt>
<trkpt lat="-27.2597283" lon="151.2899175">
  <ele>362.75</ele>
  <time>2026-09-01T19:57:50Z</time>
  <course>179.81</course>
  <speed>25.37</speed>
  <fix>3d</fix>
</trkpt>
<trkpt lat="-27.2598156" lon="151.2899173">
  <ele>362.61</ele>
  <time>2026-09-01T19:57:50Z</time>
  <course>180.19</course>
  <speed>25.330159888954512</speed>
  <fix>3d</fix>
</trkpt>
<trkpt lat="-27.259774" lon="151.2899177">
  <ele>362.77</ele>
  <time>2026-09-01T19:57:50Z</time>
  <course>179.69</course>
  <speed>25.37</speed>
  <fix>3d</fix>
</trkpt>
<trkpt lat="-27.2598384" lon="151.2899175">
  <ele>362.62</ele>
  <time>2026-09-01T19:57:50Z</time>
  <course>180.14</course>
  <speed>25.33028424633249</speed>
  <fix>3d</fix>
</trkpt>
<trkpt lat="-27.259774" lon="151.2899177">
  <ele>362.77</ele>
  <time>2026-09-01T19:57:50Z</time>
  <course>179.69</course>
  <speed>25.37</speed>
  <fix>3d</fix>
</trkpt>
<trkpt lat="-27.2598611" lon="151.2899177">
  <ele>362.63</ele>
  <time>2026-09-01T19:57:50Z</time>
  <course>180.11</course>
  <speed>25.33038689005756</speed>
  <fix>3d</fix>
</trkpt>
<trkpt lat="-27.2598196" lon="151.289918">
  <ele>362.78</ele>
  <time>2026-09-01T19:57:50Z</time>
  <course>179.58</course>
  <speed>25.37</speed>
  <fix>3d</fix>
</trkpt>
<trkpt lat="-27.2598839" lon="151.2899179">
  <ele>362.64</ele>
  <time>2026-09-01T19:57:50Z</time>
  <course>180.08</course>
  <speed>25.340505125194326</speed>
  <fix>3d</fix>
</trkpt>
<trkpt lat="-27.2598196" lon="151.289918">
  <ele>362.78</ele>
  <time>2026-09-01T19:57:50Z</time>
  <course>179.58</course>
  <speed>25.37</speed>
  <fix>3d</fix>
</trkpt>
<trkpt lat="-27.2599068" lon="151.2899181">
  <ele>362.65</ele>
  <time>2026-09-01T19:57:50Z</time>
  <course>180.03</course>
  <speed>25.340570238256284</speed>
  <fix>3d</fix>
</trkpt>
<trkpt lat="-27.2598652" lon="151.2899184">
  <ele>362.81</ele>
  <time>2026-09-01T19:57:50Z</time>
  <course>179.48</course>
  <speed>25.37</speed>
  <fix>3d</fix>
</trkpt>
<trkpt lat="-27.2599296" lon="151.2899184">
  <ele>362.66</ele>
  <time>2026-09-01T19:57:50Z</time>
  <course>179.93</course>
  <speed>25.340639297381585</speed>
  <fix>3d</fix>
</trkpt>
<trkpt lat="-27.2598652" lon="151.2899184">
  <ele>362.81</ele>
  <time>2026-09-01T19:57:50Z</time>
  <course>179.48</course>
  <speed>25.37</speed>
  <fix>3d</fix>
</trkpt>
<trkpt lat="-27.2599526" lon="151.2899187">
  <ele>362.68</ele>
  <time>2026-09-01T19:57:50Z</time>
  <course>179.89</course>
  <speed>25.340712302537987</speed>
  <fix>3d</fix>
</trkpt>
<trkpt lat="-27.2599107" lon="151.2899189">
  <ele>362.83</ele>
  <time>2026-09-01T19:57:50Z</time>
  <course>179.42</course>
  <speed>25.37</speed>
  <fix>3d</fix>
</trkpt>
<trkpt lat="-27.2599754" lon="151.2899189">
  <ele>362.69</ele>
  <time>2026-09-01T19:57:50Z</time>
  <course>179.86</course>
  <speed>25.34078925369137</speed>
  <fix>3d</fix>
</trkpt>
<trkpt lat="-27.2599107" lon="151.2899189">
  <ele>362.83</ele>
  <time>2026-09-01T19:57:50Z</time>
  <course>179.42</course>
  <speed>25.37</speed>
  <fix>3d</fix>
</trkpt>
<trkpt lat="-27.2599983" lon="151.2899192">
  <ele>362.71</ele>
  <time>2026-09-01T19:57:50Z</time>
  <course>179.84</course>
  <speed>25.350869807562816</speed>
  <fix>3d</fix>
</trkpt>
<trkpt lat="-27.2599563" lon="151.2899194">
  <ele>362.84</ele>
  <time>2026-09-01T19:57:50Z</time>
  <course>179.37</course>
  <speed>25.37</speed>
  <fix>3d</fix>
</trkpt>
<trkpt lat="-27.2600211" lon="151.2899195">
  <ele>362.72</ele>
  <time>2026-09-01T19:57:50Z</time>
  <course>179.83</course>
  <speed>25.350869807562816</speed>
  <fix>3d</fix>
</trkpt>
<trkpt lat="-27.2599563" lon="151.2899194">
  <ele>362.84</ele>
  <time>2026-09-01T19:57:50Z</time>
  <course>179.37</course>
  <speed>25.37</speed>
  <fix>3d</fix>
</trkpt>
<trkpt lat="-27.260044" lon="151.2899198">
  <ele>362.74</ele>
  <time>2026-09-01T19:57:50Z</time>
  <course>179.87</course>
  <speed>25.350869807562816</speed>
  <fix>3d</fix>
</trkpt>
<trkpt lat="-27.2600019" lon="151.28992">
  <ele>362.87</ele>
  <time>2026-09-01T19:57:50Z</time>
  <course>179.35</course>
  <speed>25.37</speed>
  <fix>3d</fix>
</trkpt>
<trkpt lat="-27.2600668" lon="151.2899201">
  <ele>362.75</ele>
  <time>2026-09-01T19:57:50Z</time>
  <course>179.85</course>
  <speed>25.350869807562816</speed>
  <fix>3d</fix>
</trkpt>
<trkpt lat="-27.2600019" lon="151.28992">
  <ele>362.87</ele>
  <time>2026-09-01T19:57:50Z</time>
  <course>179.35</course>
  <speed>25.37</speed>
  <fix>3d</fix>
</trkpt>
<trkpt lat="-27.2600897" lon="151.2899204">
  <ele>362.76</ele>
  <time>2026-09-01T19:57:50Z</time>
  <course>179.78</course>
  <speed>25.360954240722094</speed>
  <fix>3d</fix>
</trkpt>
<trkpt lat="-27.2600474" lon="151.2899206">
  <ele>362.9</ele>
  <time>2026-09-01T19:57:50Z</time>
  <course>179.34</course>
  <speed>25.37</speed>
  <fix>3d</fix>
</trkpt>
<trkpt lat="-27.2601126" lon="151.2899207">
  <ele>362.78</ele>
  <time>2026-09-01T19:57:50Z</time>
  <course>179.79</course>
  <speed>25.360954240722094</speed>
  <fix>3d</fix>
</trkpt>
<trkpt lat="-27.2600474" lon="151.2899206">
  <ele>362.9</ele>
  <time>2026-09-01T19:57:50Z</time>
  <course>179.34</course>
  <speed>25.37</speed>
  <fix>3d</fix>
</trkpt>
<trkpt lat="-27.2601354" lon="151.289921">
  <ele>362.79</ele>
  <time>2026-09-01T19:57:50Z</time>
  <course>179.8</course>
  <speed>25.37104254854341</speed>
  <fix>3d</fix>
</trkpt>
<trkpt lat="-27.260093" lon="151.2899211">
  <ele>362.92</ele>
  <time>2026-09-01T19:57:50Z</time>
  <course>179.32</course>
  <speed>25.37</speed>
  <fix>3d</fix>
</trkpt>
<trkpt lat="-27.2601583" lon="151.2899213">
  <ele>362.8</ele>
  <time>2026-09-01T19:57:50Z</time>
  <course>179.8</course>
  <speed>25.37104254854341</speed>
  <fix>3d</fix>
</trkpt>
<trkpt lat="-27.260093" lon="151.2899211">
  <ele>362.92</ele>
  <time>2026-09-01T19:57:50Z</time>
  <course>179.32</course>
  <speed>25.37</speed>
  <fix>3d</fix>
</trkpt>
<trkpt lat="-27.2601811" lon="151.2899216">
  <ele>362.81</ele>
  <time>2026-09-01T19:57:50Z</time>
  <course>179.82</course>
  <speed>25.371135173657485</speed>
  <fix>3d</fix>
</trkpt>
<trkpt lat="-27.2601386" lon="151.2899218">
  <ele>362.95</ele>
  <time>2026-09-01T19:57:50Z</time>
  <course>179.3</course>
  <speed>25.37</speed>
  <fix>3d</fix>
</trkpt>
<trkpt lat="-27.260204" lon="151.2899219">
  <ele>362.82</ele>
  <time>2026-09-01T19:57:50Z</time>
  <course>179.85</course>
  <speed>25.381042137784647</speed>
  <fix>3d</fix>
</trkpt>
<trkpt lat="-27.2601386" lon="151.2899218">
  <ele>362.95</ele>
  <time>2026-09-01T19:57:50Z</time>
  <course>179.3</course>
  <speed>25.37</speed>
  <fix>3d</fix>
</trkpt>
<trkpt lat="-27.2602268" lon="151.2899222">
  <ele>362.83</ele>
  <time>2026-09-01T19:57:50Z</time>
  <course>179.82</course>
  <speed>25.381042137784647</speed>
  <fix>3d</fix>
</trkpt>
<trkpt lat="-27.2601842" lon="151.2899224">
  <ele>362.97</ele>
  <time>2026-09-01T19:57:50Z</time>
  <course>179.29</course>
  <speed>25.37</speed>
  <fix>3d</fix>
</trkpt>
<trkpt lat="-27.2602497" lon="151.2899225">
  <ele>362.84</ele>
  <time>2026-09-01T19:57:50Z</time>
  <course>179.77</course>
  <speed>25.381042137784647</speed>
  <fix>3d</fix>
</trkpt>
<trkpt lat="-27.2601842" lon="151.2899224">
  <ele>362.97</ele>
  <time>2026-09-01T19:57:50Z</time>
  <course>179.29</course>
  <speed>25.37</speed>
  <fix>3d</fix>
</trkpt>
<trkpt lat="-27.2602727" lon="151.2899229">
  <ele>362.85</ele>
  <time>2026-09-01T19:57:50Z</time>
  <course>179.78</course>
  <speed>25.391041727349428</speed>
  <fix>3d</fix>
</trkpt>
<trkpt lat="-27.2602299" lon="151.2899231">
  <ele>362.99</ele>
  <time>2026-09-01T19:57:50Z</time>
  <course>179.29</course>
  <speed>25.37</speed>
  <fix>3d</fix>
</trkpt>
<trkpt lat="-27.2602956" lon="151.2899232">
  <ele>362.86</ele>
  <time>2026-09-01T19:57:50Z</time>
  <course>179.77</course>
  <speed>25.391041727349428</speed>
  <fix>3d</fix>
</trkpt>
<trkpt lat="-27.2602299" lon="151.2899231">
  <ele>362.99</ele>
  <time>2026-09-01T19:57:50Z</time>
  <course>179.29</course>
  <speed>25.37</speed>
  <fix>3d</fix>
</trkpt>
<trkpt lat="-27.2603183" lon="151.2899235">
  <ele>362.87</ele>
  <time>2026-09-01T19:57:50Z</time>
  <course>179.77</course>
  <speed>25.390953113264572</speed>
  <fix>3d</fix>
</trkpt>
<trkpt lat="-27.2602754" lon="151.2899236">
  <ele>363.01</ele>
  <time>2026-09-01T19:57:50Z</time>
  <course>179.31</course>
  <speed>25.37</speed>
  <fix>3d</fix>
</trkpt>
<trkpt lat="-27.2603411" lon="151.2899238">
  <ele>362.87</ele>
  <time>2026-09-01T19:57:50Z</time>
  <course>179.8</course>
  <speed>25.39086843729454</speed>
  <fix>3d</fix>
</trkpt>
<trkpt lat="-27.2602754" lon="151.2899236">
  <ele>363.01</ele>
  <time>2026-09-01T19:57:50Z</time>
  <course>179.31</course>
  <speed>25.37</speed>
  <fix>3d</fix>
</trkpt>
<trkpt lat="-27.260364" lon="151.2899241">
  <ele>362.88</ele>
  <time>2026-09-01T19:57:50Z</time>
  <course>179.81</course>
  <speed>25.40086809540178</speed>
  <fix>3d</fix>
</trkpt>
<trkpt lat="-27.260321" lon="151.2899243">
  <ele>363.02</ele>
  <time>2026-09-01T19:57:50Z</time>
  <course>179.33</course>
  <speed>25.37</speed>
  <fix>3d</fix>
</trkpt>
<trkpt lat="-27.2603869" lon="151.2899244">
  <ele>362.89</ele>
  <time>2026-09-01T19:57:50Z</time>
  <course>179.86</course>
  <speed>25.40086809540178</speed>
  <fix>3d</fix>
</trkpt>
<trkpt lat="-27.260321" lon="151.2899243">
  <ele>363.02</ele>
  <time>2026-09-01T19:57:50Z</time>
  <course>179.33</course>
  <speed>25.37</speed>
  <fix>3d</fix>
</trkpt>
<trkpt lat="-27.2604097" lon="151.2899247">
  <ele>362.89</ele>
  <time>2026-09-01T19:57:50Z</time>
  <course>179.91</course>
  <speed>25.400787389370436</speed>
  <fix>3d</fix>
</trkpt>
<trkpt lat="-27.2603666" lon="151.2899249">
  <ele>363.03</ele>
  <time>2026-09-01T19:57:50Z</time>
  <course>179.35</course>
  <speed>25.37</speed>
  <fix>3d</fix>
</trkpt>
<trkpt lat="-27.2604328" lon="151.2899249">
  <ele>362.9</ele>
  <time>2026-09-01T19:57:50Z</time>
  <course>179.94</course>
  <speed>25.400710619980696</speed>
  <fix>3d</fix>
</trkpt>
<trkpt lat="-27.2603666" lon="151.2899249">
  <ele>363.03</ele>
  <time>2026-09-01T19:57:50Z</time>
  <course>179.35</course>
  <speed>25.37</speed>
  <fix>3d</fix>
</trkpt>
<trkpt lat="-27.2604557" lon="151.2899252">
  <ele>362.9</ele>
  <time>2026-09-01T19:57:50Z</time>
  <course>179.93</course>
  <speed>25.400637787268256</speed>
  <fix>3d</fix>
</trkpt>
<trkpt lat="-27.2604121" lon="151.2899254">
  <ele>363.05</ele>
  <time>2026-09-01T19:57:50Z</time>
  <course>179.38</course>
  <speed>25.37</speed>
  <fix>3d</fix>
</trkpt>
<trkpt lat="-27.2604785" lon="151.2899255">
  <ele>362.91</ele>
  <time>2026-09-01T19:57:50Z</time>
  <course>179.94</course>
  <speed>25.400568891266985</speed>
  <fix>3d</fix>
</trkpt>
<trkpt lat="-27.2604121" lon="151.2899254">
  <ele>363.05</ele>
  <time>2026-09-01T19:57:50Z</time>
  <course>179.38</course>
  <speed>25.37</speed>
  <fix>3d</fix>
</trkpt>
<trkpt lat="-27.2605014" lon="151.2899257">
  <ele>362.91</ele>
  <time>2026-09-01T19:57:50Z</time>
  <course>179.97</course>
  <speed>25.40050393200891</speed>
  <fix>3d</fix>
</trkpt>
<trkpt lat="-27.2604577" lon="151.289926">
  <ele>363.06</ele>
  <time>2026-09-01T19:57:50Z</time>
  <course>179.42</course>
  <speed>25.37</speed>
  <fix>3d</fix>
</trkpt>
<trkpt lat="-27.2605242" lon="151.2899259">
  <ele>362.91</ele>
  <time>2026-09-01T19:57:50Z</time>
  <course>179.99</course>
  <speed>25.40038582384134</speed>
  <fix>3d</fix>
</trkpt>
<trkpt lat="-27.2604577" lon="151.289926">
  <ele>363.06</ele>
  <time>2026-09-01T19:57:50Z</time>
  <course>179.42</course>
  <speed>25.37</speed>
  <fix>3d</fix>
</trkpt>
<trkpt lat="-27.260547" lon="151.2899262">
  <ele>362.92</ele>
  <time>2026-09-01T19:57:50Z</time>
  <course>180.04</course>
  <speed>25.400332674986757</speed>
  <fix>3d</fix>
</trkpt>
<trkpt lat="-27.2605033" lon="151.2899264">
  <ele>363.07</ele>
  <time>2026-09-01T19:57:50Z</time>
  <course>179.48</course>
  <speed>25.37</speed>
  <fix>3d</fix>
</trkpt>
<trkpt lat="-27.2605699" lon="151.2899263">
  <ele>362.92</ele>
  <time>2026-09-01T19:57:50Z</time>
  <course>180.03</course>
  <speed>25.40028346298521</speed>
  <fix>3d</fix>
</trkpt>
<trkpt lat="-27.2605033" lon="151.2899264">
  <ele>363.07</ele>
  <time>2026-09-01T19:57:50Z</time>
  <course>179.48</course>
  <speed>25.37</speed>
  <fix>3d</fix>
</trkpt>
<trkpt lat="-27.2605927" lon="151.2899265">
  <ele>362.92</ele>
  <time>2026-09-01T19:57:50Z</time>
  <course>180.09</course>
  <speed>25.40023818785958</speed>
  <fix>3d</fix>
</trkpt>
<trkpt lat="-27.2605488" lon="151.2899269">
  <ele>363.07</ele>
  <time>2026-09-01T19:57:50Z</time>
  <course>179.55</course>
  <speed>25.37</speed>
  <fix>3d</fix>
</trkpt>
<trkpt lat="-27.2606155" lon="151.2899267">
  <ele>362.93</ele>
  <time>2026-09-01T19:57:50Z</time>
  <course>180.19</course>
  <speed>25.400159448318433</speed>
  <fix>3d</fix>
</trkpt>
<trkpt lat="-27.2605488" lon="151.2899269">
  <ele>363.07</ele>
  <time>2026-09-01T19:57:50Z</time>
  <course>179.55</course>
  <speed>25.37</speed>
  <fix>3d</fix>
</trkpt>
<trkpt lat="-27.2606382" lon="151.2899269">
  <ele>362.93</ele>
  <time>2026-09-01T19:57:50Z</time>
  <course>180.23</course>
  <speed>25.390126033558793</speed>
  <fix>3d</fix>
</trkpt>
<trkpt lat="-27.2605944" lon="151.2899272">
  <ele>363.08</ele>
  <time>2026-09-01T19:57:50Z</time>
  <course>179.61</course>
  <speed>25.37</speed>
  <fix>3d</fix>
</trkpt>
<trkpt lat="-27.2606609" lon="151.289927">
  <ele>362.94</ele>
  <time>2026-09-01T19:57:50Z</time>
  <course>180.27</course>
  <speed>25.380070921886723</speed>
  <fix>3d</fix>
</trkpt>
<trkpt lat="-27.2605944" lon="151.2899272">
  <ele>363.08</ele>
  <time>2026-09-01T19:57:50Z</time>
  <course>179.61</course>
  <speed>25.37</speed>
  <fix>3d</fix>
</trkpt>
<trkpt lat="-27.2606836" lon="151.2899271">
  <ele>362.94</ele>
  <time>2026-09-01T19:57:50Z</time>
  <course>180.31</course>
  <speed>25.37004927074443</speed>
  <fix>3d</fix>
</trkpt>
<trkpt lat="-27.26064" lon="151.2899276">
  <ele>363.09</ele>
  <time>2026-09-01T19:57:50Z</time>
  <course>179.68</course>
  <speed>25.36</speed>
  <fix>3d</fix>
</trkpt>
<trkpt lat="-27.2607062" lon="151.2899272">
  <ele>362.94</ele>
  <time>2026-09-01T19:57:50Z</time>
  <course>180.31</course>
  <speed>25.37001773747902</speed>
  <fix>3d</fix>
</trkpt>
<trkpt lat="-27.26064" lon="151.2899276">
  <ele>363.09</ele>
  <time>2026-09-01T19:57:50Z</time>
  <course>179.68</course>
  <speed>25.36</speed>
  <fix>3d</fix>
</trkpt>
<trkpt lat="-27.2607289" lon="151.2899273">
  <ele>362.95</ele>
  <time>2026-09-01T19:57:50Z</time>
  <course>180.28</course>
  <speed>25.360007886434104</speed>
  <fix>3d</fix>
</trkpt>
<trkpt lat="-27.2606856" lon="151.2899279">
  <ele>363.1</ele>
  <time>2026-09-01T19:57:50Z</time>
  <course>179.76</course>
  <speed>25.36</speed>
  <fix>3d</fix>
</trkpt>
<trkpt lat="-27.2607515" lon="151.2899274">
  <ele>362.95</ele>
  <time>2026-09-01T19:57:50Z</time>
  <course>180.29</course>
  <speed>25.35</speed>
  <fix>3d</fix>
</trkpt>
<trkpt lat="-27.2606856" lon="151.2899279">
  <ele>363.1</ele>
  <time>2026-09-01T19:57:50Z</time>
  <course>179.76</course>
  <speed>25.36</speed>
  <fix>3d</fix>
</trkpt>
<trkpt lat="-27.2607742" lon="151.2899275">
  <ele>362.95</ele>
  <time>2026-09-01T19:57:50Z</time>
  <course>180.35</course>
  <speed>25.35</speed>
  <fix>3d</fix>
</trkpt>
<trkpt lat="-27.2607313" lon="151.289928">
  <ele>363.11</ele>
  <time>2026-09-01T19:57:50Z</time>
  <course>179.82</course>
  <speed>25.36</speed>
  <fix>3d</fix>
</trkpt>
<trkpt lat="-27.2607968" lon="151.2899275">
  <ele>362.95</ele>
  <time>2026-09-01T19:57:50Z</time>
  <course>180.42</course>
  <speed>25.35</speed>
  <fix>3d</fix>
</trkpt>
<trkpt lat="-27.2607313" lon="151.289928">
  <ele>363.11</ele>
  <time>2026-09-01T19:57:50Z</time>
  <course>179.82</course>
  <speed>25.36</speed>
  <fix>3d</fix>
</trkpt>
<trkpt lat="-27.2608195" lon="151.2899276">
  <ele>362.96</ele>
  <time>2026-09-01T19:57:50Z</time>
  <course>180.44</course>
  <speed>25.35000788954512</speed>
  <fix>3d</fix>
</trkpt>
<trkpt lat="-27.2607768" lon="151.2899281">
  <ele>363.11</ele>
  <time>2026-09-01T19:57:50Z</time>
  <course>179.88</course>
  <speed>25.37</speed>
  <fix>3d</fix>
</trkpt>
<trkpt lat="-27.2608422" lon="151.2899276">
  <ele>362.96</ele>
  <time>2026-09-01T19:57:50Z</time>
  <course>180.45</course>
  <speed>25.34001775847839</speed>
  <fix>3d</fix>
</trkpt>
<trkpt lat="-27.2607768" lon="151.2899281">
  <ele>363.11</ele>
  <time>2026-09-01T19:57:50Z</time>
  <course>179.88</course>
  <speed>25.37</speed>
  <fix>3d</fix>
</trkpt>
<trkpt lat="-27.2608649" lon="151.2899276">
  <ele>362.97</ele>
  <time>2026-09-01T19:57:50Z</time>
  <course>180.48</course>
  <speed>25.34003157061964</speed>
  <fix>3d</fix>
</trkpt>
<trkpt lat="-27.2608224" lon="151.2899282">
  <ele>363.12</ele>
  <time>2026-09-01T19:57:50Z</time>
  <course>179.93</course>
  <speed>25.37</speed>
  <fix>3d</fix>
</trkpt>
<trkpt lat="-27.2608878" lon="151.2899277">
  <ele>362.97</ele>
  <time>2026-09-01T19:57:50Z</time>
  <course>180.51</course>
  <speed>25.34003157061964</speed>
  <fix>3d</fix>
</trkpt>
<trkpt lat="-27.2608224" lon="151.2899282">
  <ele>363.12</ele>
  <time>2026-09-01T19:57:50Z</time>
  <course>179.93</course>
  <speed>25.37</speed>
  <fix>3d</fix>
</trkpt>
<trkpt lat="-27.2609105" lon="151.2899277">
  <ele>362.98</ele>
  <time>2026-09-01T19:57:50Z</time>
  <course>180.58</course>
  <speed>25.3400493290759</speed>
  <fix>3d</fix>
</trkpt>
<trkpt lat="-27.260868" lon="151.2899282">
  <ele>363.12</ele>
  <time>2026-09-01T19:57:50Z</time>
  <course>179.97</course>
  <speed>25.38</speed>
  <fix>3d</fix>
</trkpt>
<trkpt lat="-27.2609332" lon="151.2899276">
  <ele>362.98</ele>
  <time>2026-09-01T19:57:50Z</time>
  <course>180.6</course>
  <speed>25.340096684898423</speed>
  <fix>3d</fix>
</trkpt>
<trkpt lat="-27.260868" lon="151.2899282">
  <ele>363.12</ele>
  <time>2026-09-01T19:57:50Z</time>
  <course>179.97</course>
  <speed>25.38</speed>
  <fix>3d</fix>
</trkpt>
<trkpt lat="-27.2609559" lon="151.2899276">
  <ele>362.98</ele>
  <time>2026-09-01T19:57:50Z</time>
  <course>180.63</course>
  <speed>25.340126282242558</speed>
  <fix>3d</fix>
</trkpt>
<trkpt lat="-27.2609136" lon="151.2899282">
  <ele>363.12</ele>
  <time>2026-09-01T19:57:50Z</time>
  <course>180.03</course>
  <speed>25.39</speed>
  <fix>3d</fix>
</trkpt>
<trkpt lat="-27.2609787" lon="151.2899277">
  <ele>362.97</ele>
  <time>2026-09-01T19:57:50Z</time>
  <course>180.66</course>
  <speed>25.340159825857455</speed>
  <fix>3d</fix>
</trkpt>
<trkpt lat="-27.2609136" lon="151.2899282">
  <ele>363.12</ele>
  <time>2026-09-01T19:57:50Z</time>
  <course>180.03</course>
  <speed>25.39</speed>
  <fix>3d</fix>
</trkpt>
<trkpt lat="-27.2610014" lon="151.2899276">
  <ele>362.97</ele>
  <time>2026-09-01T19:57:50Z</time>
  <course>180.66</course>
  <speed>25.340197315727437</speed>
  <fix>3d</fix>
</trkpt>
<trkpt lat="-27.2609592" lon="151.2899282">
  <ele>363.12</ele>
  <time>2026-09-01T19:57:50Z</time>
  <course>180.09</course>
  <speed>25.39</speed>
  <fix>3d</fix>
</trkpt>
<trkpt lat="-27.2610242" lon="151.2899276">
  <ele>362.98</ele>
  <time>2026-09-01T19:57:50Z</time>
  <course>180.67</course>
  <speed>25.340197315727437</speed>
  <fix>3d</fix>
</trkpt>
<trkpt lat="-27.2609592" lon="151.2899282">
  <ele>363.12</ele>
  <time>2026-09-01T19:57:50Z</time>
  <course>180.09</course>
  <speed>25.39</speed>
  <fix>3d</fix>
</trkpt>
<trkpt lat="-27.261047" lon="151.2899275">
  <ele>362.98</ele>
  <time>2026-09-01T19:57:50Z</time>
  <course>180.69</course>
  <speed>25.350238657653698</speed>
  <fix>3d</fix>
</trkpt>
<trkpt lat="-27.2610048" lon="151.2899282">
  <ele>363.12</ele>
  <time>2026-09-01T19:57:50Z</time>
  <course>180.14</course>
  <speed>25.4</speed>
  <fix>3d</fix>
</trkpt>
<trkpt lat="-27.2610698" lon="151.2899275">
  <ele>362.98</ele>
  <time>2026-09-01T19:57:50Z</time>
  <course>180.71</course>
  <speed>25.350238657653698</speed>
  <fix>3d</fix>
</trkpt>
<trkpt lat="-27.2610048" lon="151.2899282">
  <ele>363.12</ele>
  <time>2026-09-01T19:57:50Z</time>
  <course>180.14</course>
  <speed>25.4</speed>
  <fix>3d</fix>
</trkpt>
<trkpt lat="-27.2610926" lon="151.2899274">
  <ele>362.98</ele>
  <time>2026-09-01T19:57:50Z</time>
  <course>180.74</course>
  <speed>25.350238657653698</speed>
  <fix>3d</fix>
</trkpt>
<trkpt lat="-27.2610504" lon="151.2899281">
  <ele>363.12</ele>
  <time>2026-09-01T19:57:50Z</time>
  <course>180.17</course>
  <speed>25.41</speed>
  <fix>3d</fix>
</trkpt>
<trkpt lat="-27.2611154" lon="151.2899273">
  <ele>362.98</ele>
  <time>2026-09-01T19:57:50Z</time>
  <course>180.76</course>
  <speed>25.350284022077545</speed>
  <fix>3d</fix>
</trkpt>
<trkpt lat="-27.2610504" lon="151.2899281">
  <ele>363.12</ele>
  <time>2026-09-01T19:57:50Z</time>
  <course>180.17</course>
  <speed>25.41</speed>
  <fix>3d</fix>
</trkpt>
<trkpt lat="-27.2611383" lon="151.2899273">
  <ele>362.98</ele>
  <time>2026-09-01T19:57:50Z</time>
  <course>180.75</course>
  <speed>25.360283910082714</speed>
  <fix>3d</fix>
</trkpt>
<trkpt lat="-27.2610961" lon="151.2899279">
  <ele>363.11</ele>
  <time>2026-09-01T19:57:50Z</time>
  <course>180.19</course>
  <speed>25.41</speed>
  <fix>3d</fix>
</trkpt>
<trkpt lat="-27.2611611" lon="151.2899272">
  <ele>362.98</ele>
  <time>2026-09-01T19:57:50Z</time>
  <course>180.73</course>
  <speed>25.360333199703824</speed>
  <fix>3d</fix>
</trkpt>
<trkpt lat="-27.2610961" lon="151.2899279">
  <ele>363.11</ele>
  <time>2026-09-01T19:57:50Z</time>
  <course>180.19</course>
  <speed>25.41</speed>
  <fix>3d</fix>
</trkpt>
<trkpt lat="-27.2611839" lon="151.2899271">
  <ele>362.97</ele>
  <time>2026-09-01T19:57:50Z</time>
  <course>180.71</course>
  <speed>25.360333199703824</speed>
  <fix>3d</fix>
</trkpt>
<trkpt lat="-27.2611418" lon="151.2899277">
  <ele>363.11</ele>
  <time>2026-09-01T19:57:50Z</time>
  <course>180.21</course>
  <speed>25.42</speed>
  <fix>3d</fix>
</trkpt>
<trkpt lat="-27.2612067" lon="151.289927">
  <ele>362.97</ele>
  <time>2026-09-01T19:57:50Z</time>
  <course>180.69</course>
  <speed>25.37033306836944</speed>
  <fix>3d</fix>
</trkpt>
<trkpt lat="-27.2611418" lon="151.2899277">
  <ele>363.11</ele>
  <time>2026-09-01T19:57:50Z</time>
  <course>180.21</course>
  <speed>25.42</speed>
  <fix>3d</fix>
</trkpt>
<trkpt lat="-27.2612296" lon="151.2899269">
  <ele>362.97</ele>
  <time>2026-09-01T19:57:50Z</time>
  <course>180.72</course>
  <speed>25.37033306836944</speed>
  <fix>3d</fix>
</trkpt>
<trkpt lat="-27.2611876" lon="151.2899274">
  <ele>363.11</ele>
  <time>2026-09-01T19:57:50Z</time>
  <course>180.23</course>
  <speed>25.42</speed>
  <fix>3d</fix>
</trkpt>
<trkpt lat="-27.2612524" lon="151.2899268">
  <ele>362.97</ele>
  <time>2026-09-01T19:57:50Z</time>
  <course>180.69</course>
  <speed>25.37033306836944</speed>
  <fix>3d</fix>
</trkpt>
<trkpt lat="-27.2611876" lon="151.2899274">
  <ele>363.11</ele>
  <time>2026-09-01T19:57:50Z</time>
  <course>180.23</course>
  <speed>25.42</speed>
  <fix>3d</fix>
</trkpt>
<trkpt lat="-27.2612753" lon="151.2899267">
  <ele>362.98</ele>
  <time>2026-09-01T19:57:50Z</time>
  <course>180.72</course>
  <speed>25.37033306836944</speed>
  <fix>3d</fix>
</trkpt>
<trkpt lat="-27.2612332" lon="151.2899272">
  <ele>363.11</ele>
  <time>2026-09-01T19:57:50Z</time>
  <course>180.23</course>
  <speed>25.42</speed>
  <fix>3d</fix>
</trkpt>
<trkpt lat="-27.2612981" lon="151.2899266">
  <ele>362.98</ele>
  <time>2026-09-01T19:57:50Z</time>
  <course>180.73</course>
  <speed>25.37033306836944</speed>
  <fix>3d</fix>
</trkpt>
<trkpt lat="-27.2612332" lon="151.2899272">
  <ele>363.11</ele>
  <time>2026-09-01T19:57:50Z</time>
  <course>180.23</course>
  <speed>25.42</speed>
  <fix>3d</fix>
</trkpt>
<trkpt lat="-27.261321" lon="151.2899265">
  <ele>362.98</ele>
  <time>2026-09-01T19:57:50Z</time>
  <course>180.81</course>
  <speed>25.370386280070708</speed>
  <fix>3d</fix>
</trkpt>
<trkpt lat="-27.2612789" lon="151.2899271">
  <ele>363.11</ele>
  <time>2026-09-01T19:57:50Z</time>
  <course>180.24</course>
  <speed>25.42</speed>
  <fix>3d</fix>
</trkpt>
<trkpt lat="-27.2613438" lon="151.2899264">
  <ele>362.98</ele>
  <time>2026-09-01T19:57:50Z</time>
  <course>180.85</course>
  <speed>25.370443433255165</speed>
  <fix>3d</fix>
</trkpt>
<trkpt lat="-27.2612789" lon="151.2899271">
  <ele>363.11</ele>
  <time>2026-09-01T19:57:50Z</time>
  <course>180.24</course>
  <speed>25.42</speed>
  <fix>3d</fix>
</trkpt>
<trkpt lat="-27.2613665" lon="151.2899263">
  <ele>362.99</ele>
  <time>2026-09-01T19:57:50Z</time>
  <course>180.88</course>
  <speed>25.37050452789617</speed>
  <fix>3d</fix>
</trkpt>
<trkpt lat="-27.2613246" lon="151.2899269">
  <ele>363.11</ele>
  <time>2026-09-01T19:57:50Z</time>
  <course>180.26</course>
  <speed>25.42</speed>
  <fix>3d</fix>
</trkpt>
<trkpt lat="-27.2613894" lon="151.2899262">
  <ele>362.99</ele>
  <time>2026-09-01T19:57:50Z</time>
  <course>180.82</course>
  <speed>25.37050452789617</speed>
  <fix>3d</fix>
</trkpt>
<trkpt lat="-27.2613246" lon="151.2899269">
  <ele>363.11</ele>
  <time>2026-09-01T19:57:50Z</time>
  <course>180.26</course>
  <speed>25.42</speed>
  <fix>3d</fix>
</trkpt>
<trkpt lat="-27.2614123" lon="151.289926">
  <ele>362.99</ele>
  <time>2026-09-01T19:57:50Z</time>
  <course>180.77</course>
  <speed>25.380504329110565</speed>
  <fix>3d</fix>
</trkpt>
<trkpt lat="-27.2613702" lon="151.2899266">
  <ele>363.12</ele>
  <time>2026-09-01T19:57:50Z</time>
  <course>180.29</course>
  <speed>25.42</speed>
  <fix>3d</fix>
</trkpt>
<trkpt lat="-27.2614352" lon="151.2899259">
  <ele>362.99</ele>
  <time>2026-09-01T19:57:50Z</time>
  <course>180.78</course>
  <speed>25.380504329110565</speed>
  <fix>3d</fix>
</trkpt>
<trkpt lat="-27.2613702" lon="151.2899266">
  <ele>363.12</ele>
  <time>2026-09-01T19:57:50Z</time>
  <course>180.29</course>
  <speed>25.42</speed>
  <fix>3d</fix>
</trkpt>
<trkpt lat="-27.2614583" lon="151.2899258">
  <ele>362.99</ele>
  <time>2026-09-01T19:57:50Z</time>
  <course>180.81</course>
  <speed>25.390504130481535</speed>
  <fix>3d</fix>
</trkpt>
<trkpt lat="-27.2614159" lon="151.2899263">
  <ele>363.13</ele>
  <time>2026-09-01T19:57:50Z</time>
  <course>180.3</course>
  <speed>25.42</speed>
  <fix>3d</fix>
</trkpt>
<trkpt lat="-27.2614812" lon="151.2899256">
  <ele>363.0</ele>
  <time>2026-09-01T19:57:50Z</time>
  <course>180.79</course>
  <speed>25.390569115323114</speed>
  <fix>3d</fix>
</trkpt>
<trkpt lat="-27.2614159" lon="151.2899263">
  <ele>363.13</ele>
  <time>2026-09-01T19:57:50Z</time>
  <course>180.3</course>
  <speed>25.42</speed>
  <fix>3d</fix>
</trkpt>
<trkpt lat="-27.2615041" lon="151.2899255">
  <ele>363.0</ele>
  <time>2026-09-01T19:57:50Z</time>
  <course>180.82</course>
  <speed>25.40050393200891</speed>
  <fix>3d</fix>
</trkpt>
<trkpt lat="-27.2614615" lon="151.289926">
  <ele>363.13</ele>
  <time>2026-09-01T19:57:50Z</time>
  <course>180.3</course>
  <speed>25.42</speed>
  <fix>3d</fix>
</trkpt>
<trkpt lat="-27.2615272" lon="151.2899254">
  <ele>363.0</ele>
  <time>2026-09-01T19:57:50Z</time>
  <course>180.84</course>
  <speed>25.40050393200891</speed>
  <fix>3d</fix>
</trkpt>
<trkpt lat="-27.2614615" lon="151.289926">
  <ele>363.13</ele>
  <time>2026-09-01T19:57:50Z</time>
  <course>180.3</course>
  <speed>25.42</speed>
  <fix>3d</fix>
</trkpt>
<trkpt lat="-27.2615501" lon="151.2899252">
  <ele>363.01</ele>
  <time>2026-09-01T19:57:50Z</time>
  <course>180.85</course>
  <speed>25.390504130481535</speed>
  <fix>3d</fix>
</trkpt>
<trkpt lat="-27.2615072" lon="151.2899258">
  <ele>363.13</ele>
  <time>2026-09-01T19:57:50Z</time>
  <course>180.3</course>
  <speed>25.42</speed>
  <fix>3d</fix>
</trkpt>
<trkpt lat="-27.2615729" lon="151.2899251">
  <ele>363.01</ele>
  <time>2026-09-01T19:57:50Z</time>
  <course>180.82</course>
  <speed>25.40050393200891</speed>
  <fix>3d</fix>
</trkpt>
<trkpt lat="-27.2615072" lon="151.2899258">
  <ele>363.13</ele>
  <time>2026-09-01T19:57:50Z</time>
  <course>180.3</course>
  <speed>25.42</speed>
  <fix>3d</fix>
</trkpt>
<trkpt lat="-27.2615958" lon="151.289925">
  <ele>363.02</ele>
  <time>2026-09-01T19:57:50Z</time>
  <course>180.78</course>
  <speed>25.400442909524237</speed>
  <fix>3d</fix>
</trkpt>
<trkpt lat="-27.2615529" lon="151.2899255">
  <ele>363.14</ele>
  <time>2026-09-01T19:57:50Z</time>
  <course>180.29</course>
  <speed>25.41</speed>
  <fix>3d</fix>
</trkpt>
<trkpt lat="-27.2616186" lon="151.2899248">
  <ele>363.02</ele>
  <time>2026-09-01T19:57:50Z</time>
  <course>180.79</course>
  <speed>25.400442909524237</speed>
  <fix>3d</fix>
</trkpt>
<trkpt lat="-27.2615529" lon="151.2899255">
  <ele>363.14</ele>
  <time>2026-09-01T19:57:50Z</time>
  <course>180.29</course>
  <speed>25.41</speed>
  <fix>3d</fix>
</trkpt>
<trkpt lat="-27.2616415" lon="151.2899247">
  <ele>363.02</ele>
  <time>2026-09-01T19:57:50Z</time>
  <course>180.84</course>
  <speed>25.390443083963696</speed>
  <fix>3d</fix>
</trkpt>
<trkpt lat="-27.2615985" lon="151.2899252">
  <ele>363.15</ele>
  <time>2026-09-01T19:57:50Z</time>
  <course>180.28</course>
  <speed>25.41</speed>
  <fix>3d</fix>
</trkpt>
<trkpt lat="-27.2616643" lon="151.2899246">
  <ele>363.03</ele>
  <time>2026-09-01T19:57:50Z</time>
  <course>180.84</course>
  <speed>25.390443083963696</speed>
  <fix>3d</fix>
</trkpt>
<trkpt lat="-27.2615985" lon="151.2899252">
  <ele>363.15</ele>
  <time>2026-09-01T19:57:50Z</time>
  <course>180.28</course>
  <speed>25.41</speed>
  <fix>3d</fix>
</trkpt>
<trkpt lat="-27.2616872" lon="151.2899245">
  <ele>363.03</ele>
  <time>2026-09-01T19:57:50Z</time>
  <course>180.81</course>
  <speed>25.390443083963696</speed>
  <fix>3d</fix>
</trkpt>
<trkpt lat="-27.2616442" lon="151.2899249">
  <ele>363.15</ele>
  <time>2026-09-01T19:57:50Z</time>
  <course>180.27</course>
  <speed>25.41</speed>
  <fix>3d</fix>
</trkpt>
<trkpt lat="-27.26171" lon="151.2899244">
  <ele>363.04</ele>
  <time>2026-09-01T19:57:50Z</time>
  <course>180.76</course>
  <speed>25.390385975798004</speed>
  <fix>3d</fix>
</trkpt>
<trkpt lat="-27.2616442" lon="151.2899249">
  <ele>363.15</ele>
  <time>2026-09-01T19:57:50Z</time>
  <course>180.27</course>
  <speed>25.41</speed>
  <fix>3d</fix>
</trkpt>
<trkpt lat="-27.2617329" lon="151.2899243">
  <ele>363.04</ele>
  <time>2026-09-01T19:57:50Z</time>
  <course>180.77</course>
  <speed>25.390332806011028</speed>
  <fix>3d</fix>
</trkpt>
<trkpt lat="-27.26169" lon="151.2899248">
  <ele>363.16</ele>
  <time>2026-09-01T19:57:50Z</time>
  <course>180.25</course>
  <speed>25.4</speed>
  <fix>3d</fix>
</trkpt>
<trkpt lat="-27.2617557" lon="151.2899242">
  <ele>363.05</ele>
  <time>2026-09-01T19:57:50Z</time>
  <course>180.75</course>
  <speed>25.39028357462752</speed>
  <fix>3d</fix>
</trkpt>
<trkpt lat="-27.26169" lon="151.2899248">
  <ele>363.16</ele>
  <time>2026-09-01T19:57:50Z</time>
  <course>180.25</course>
  <speed>25.4</speed>
  <fix>3d</fix>
</trkpt>
<trkpt lat="-27.2617785" lon="151.2899241">
  <ele>363.05</ele>
  <time>2026-09-01T19:57:50Z</time>
  <course>180.73</course>
  <speed>25.39023828167038</speed>
  <fix>3d</fix>
</trkpt>
<trkpt lat="-27.2617356" lon="151.2899245">
  <ele>363.17</ele>
  <time>2026-09-01T19:57:50Z</time>
  <course>180.23</course>
  <speed>25.4</speed>
  <fix>3d</fix>
</trkpt>
<trkpt lat="-27.2618014" lon="151.289924">
  <ele>363.06</ele>
  <time>2026-09-01T19:57:50Z</time>
  <course>180.74</course>
  <speed>25.390196927160687</speed>
  <fix>3d</fix>
</trkpt>
<trkpt lat="-27.2617356" lon="151.2899245">
  <ele>363.17</ele>
  <time>2026-09-01T19:57:50Z</time>
  <course>180.23</course>
  <speed>25.4</speed>
  <fix>3d</fix>
</trkpt>
<trkpt lat="-27.2618242" lon="151.2899239">
  <ele>363.06</ele>
  <time>2026-09-01T19:57:50Z</time>
  <course>180.66</course>
  <speed>25.390196927160687</speed>
  <fix>3d</fix>
</trkpt>
<trkpt lat="-27.2617812" lon="151.2899243">
  <ele>363.18</ele>
  <time>2026-09-01T19:57:50Z</time>
  <course>180.19</course>
  <speed>25.39</speed>
  <fix>3d</fix>
</trkpt>
<trkpt lat="-27.2618469" lon="151.2899238">
  <ele>363.07</ele>
  <time>2026-09-01T19:57:50Z</time>
  <course>180.61</course>
  <speed>25.39015951111769</speed>
  <fix>3d</fix>
</trkpt>
<trkpt lat="-27.2617812" lon="151.2899243">
  <ele>363.18</ele>
  <time>2026-09-01T19:57:50Z</time>
  <course>180.19</course>
  <speed>25.39</speed>
  <fix>3d</fix>
</trkpt>
<trkpt lat="-27.2618698" lon="151.2899238">
  <ele>363.07</ele>
  <time>2026-09-01T19:57:50Z</time>
  <course>180.64</course>
  <speed>25.390126033558793</speed>
  <fix>3d</fix>
</trkpt>
<trkpt lat="-27.2618268" lon="151.2899241">
  <ele>363.19</ele>
  <time>2026-09-01T19:57:50Z</time>
  <course>180.16</course>
  <speed>25.39</speed>
  <fix>3d</fix>
</trkpt>
<trkpt lat="-27.2618927" lon="151.2899237">
  <ele>363.08</ele>
  <time>2026-09-01T19:57:50Z</time>
  <course>180.67</course>
  <speed>25.400125983939528</speed>
  <fix>3d</fix>
</trkpt>
<trkpt lat="-27.2618268" lon="151.2899241">
  <ele>363.19</ele>
  <time>2026-09-01T19:57:50Z</time>
  <course>180.16</course>
  <speed>25.39</speed>
  <fix>3d</fix>
</trkpt>
<trkpt lat="-27.2619155" lon="151.2899237">
  <ele>363.08</ele>
  <time>2026-09-01T19:57:51Z</time>
  <course>180.76</course>
  <speed>25.390126033558793</speed>
  <fix>3d</fix>
</trkpt>
<trkpt lat="-27.2618724" lon="151.289924">
  <ele>363.2</ele>
  <time>2026-09-01T19:57:51Z</time>
  <course>180.13</course>
  <speed>25.39</speed>
  <fix>3d</fix>
</trkpt>
<trkpt lat="-27.2619386" lon="151.2899236">
  <ele>363.09</ele>
  <time>2026-09-01T19:57:51Z</time>
  <course>180.76</course>
  <speed>25.39015951111769</speed>
  <fix>3d</fix>
</trkpt>
<trkpt lat="-27.2618724" lon="151.289924">
  <ele>363.2</ele>
  <time>2026-09-01T19:57:51Z</time>
  <course>180.13</course>
  <speed>25.39</speed>
  <fix>3d</fix>
</trkpt>
<trkpt lat="-27.2619615" lon="151.2899235">
  <ele>363.1</ele>
  <time>2026-09-01T19:57:51Z</time>
  <course>180.7</course>
  <speed>25.390196927160687</speed>
  <fix>3d</fix>
</trkpt>
<trkpt lat="-27.2619181" lon="151.2899239">
  <ele>363.21</ele>
  <time>2026-09-01T19:57:51Z</time>
  <course>180.12</course>
  <speed>25.39</speed>
  <fix>3d</fix>
</trkpt>
<trkpt lat="-27.2619843" lon="151.2899234">
  <ele>363.1</ele>
  <time>2026-09-01T19:57:51Z</time>
  <course>180.69</course>
  <speed>25.390196927160687</speed>
  <fix>3d</fix>
</trkpt>
<trkpt lat="-27.2619181" lon="151.2899239">
  <ele>363.21</ele>
  <time>2026-09-01T19:57:51Z</time>
  <course>180.12</course>
  <speed>25.39</speed>
  <fix>3d</fix>
</trkpt>
<trkpt lat="-27.2620072" lon="151.2899234">
  <ele>363.1</ele>
  <time>2026-09-01T19:57:51Z</time>
  <course>180.67</course>
  <speed>25.400196849630913</speed>
  <fix>3d</fix>
</trkpt>
<trkpt lat="-27.2619637" lon="151.2899238">
  <ele>363.22</ele>
  <time>2026-09-01T19:57:51Z</time>
  <course>180.14</course>
  <speed>25.39</speed>
  <fix>3d</fix>
</trkpt>
<trkpt lat="-27.26203" lon="151.2899233">
  <ele>363.11</ele>
  <time>2026-09-01T19:57:51Z</time>
  <course>180.73</course>
  <speed>25.400196849630913</speed>
  <fix>3d</fix>
</trkpt>
<trkpt lat="-27.2619637" lon="151.2899238">
  <ele>363.22</ele>
  <time>2026-09-01T19:57:51Z</time>
  <course>180.14</course>
  <speed>25.39</speed>
  <fix>3d</fix>
</trkpt>
<trkpt lat="-27.2620529" lon="151.2899232">
  <ele>363.11</ele>
  <time>2026-09-01T19:57:51Z</time>
  <course>180.76</course>
  <speed>25.39023828167038</speed>
  <fix>3d</fix>
</trkpt>
<trkpt lat="-27.2620093" lon="151.2899236">
  <ele>363.22</ele>
  <time>2026-09-01T19:57:51Z</time>
  <course>180.16</course>
  <speed>25.38</speed>
  <fix>3d</fix>
</trkpt>
<trkpt lat="-27.2620757" lon="151.2899231">
  <ele>363.11</ele>
  <time>2026-09-01T19:57:51Z</time>
  <course>180.76</course>
  <speed>25.39023828167038</speed>
  <fix>3d</fix>
</trkpt>
<trkpt lat="-27.2620093" lon="151.2899236">
  <ele>363.22</ele>
  <time>2026-09-01T19:57:51Z</time>
  <course>180.16</course>
  <speed>25.38</speed>
  <fix>3d</fix>
</trkpt>
<trkpt lat="-27.2620986" lon="151.2899231">
  <ele>363.11</ele>
  <time>2026-09-01T19:57:51Z</time>
  <course>180.73</course>
  <speed>25.39023828167038</speed>
  <fix>3d</fix>
</trkpt>
<trkpt lat="-27.2620548" lon="151.2899235">
  <ele>363.23</ele>
  <time>2026-09-01T19:57:51Z</time>
  <course>180.17</course>
  <speed>25.38</speed>
  <fix>3d</fix>
</trkpt>
<trkpt lat="-27.2621214" lon="151.289923">
  <ele>363.12</ele>
  <time>2026-09-01T19:57:51Z</time>
  <course>180.7</course>
  <speed>25.40023818785958</speed>
  <fix>3d</fix>
</trkpt>
<trkpt lat="-27.2620548" lon="151.2899235">
  <ele>363.23</ele>
  <time>2026-09-01T19:57:51Z</time>
  <course>180.17</course>
  <speed>25.38</speed>
  <fix>3d</fix>
</trkpt>
<trkpt lat="-27.2621442" lon="151.2899229">
  <ele>363.12</ele>
  <time>2026-09-01T19:57:51Z</time>
  <course>180.68</course>
  <speed>25.39023828167038</speed>
  <fix>3d</fix>
</trkpt>
<trkpt lat="-27.2621005" lon="151.2899234">
  <ele>363.23</ele>
  <time>2026-09-01T19:57:51Z</time>
  <course>180.17</course>
  <speed>25.38</speed>
  <fix>3d</fix>
</trkpt>
<trkpt lat="-27.2621673" lon="151.2899228">
  <ele>363.12</ele>
  <time>2026-09-01T19:57:51Z</time>
  <course>180.61</course>
  <speed>25.400196849630913</speed>
  <fix>3d</fix>
</trkpt>
<trkpt lat="-27.2621005" lon="151.2899234">
  <ele>363.23</ele>
  <time>2026-09-01T19:57:51Z</time>
  <course>180.17</course>
  <speed>25.38</speed>
  <fix>3d</fix>
</trkpt>
<trkpt lat="-27.2621901" lon="151.2899228">
  <ele>363.12</ele>
  <time>2026-09-01T19:57:51Z</time>
  <course>180.58</course>
  <speed>25.400159448318433</speed>
  <fix>3d</fix>
</trkpt>
<trkpt lat="-27.2621462" lon="151.2899231">
  <ele>363.23</ele>
  <time>2026-09-01T19:57:51Z</time>
  <course>180.17</course>
  <speed>25.38</speed>
  <fix>3d</fix>
</trkpt>
<trkpt lat="-27.2622129" lon="151.2899227">
  <ele>363.12</ele>
  <time>2026-09-01T19:57:51Z</time>
  <course>180.57</course>
  <speed>25.400159448318433</speed>
  <fix>3d</fix>
</trkpt>
<trkpt lat="-27.2621462" lon="151.2899231">
  <ele>363.23</ele>
  <time>2026-09-01T19:57:51Z</time>
  <course>180.17</course>
  <speed>25.38</speed>
  <fix>3d</fix>
</trkpt>
<trkpt lat="-27.2622358" lon="151.2899226">
  <ele>363.11</ele>
  <time>2026-09-01T19:57:51Z</time>
  <course>180.55</course>
  <speed>25.400125983939528</speed>
  <fix>3d</fix>
</trkpt>
<trkpt lat="-27.2621918" lon="151.289923">
  <ele>363.23</ele>
  <time>2026-09-01T19:57:51Z</time>
  <course>180.15</course>
  <speed>25.38</speed>
  <fix>3d</fix>
</trkpt>
<trkpt lat="-27.2622586" lon="151.2899226">
  <ele>363.11</ele>
  <time>2026-09-01T19:57:51Z</time>
  <course>180.58</course>
  <speed>25.400096456509768</speed>
  <fix>3d</fix>
</trkpt>
<trkpt lat="-27.2621918" lon="151.289923">
  <ele>363.23</ele>
  <time>2026-09-01T19:57:51Z</time>
  <course>180.15</course>
  <speed>25.38</speed>
  <fix>3d</fix>
</trkpt>
<trkpt lat="-27.2622814" lon="151.2899225">
  <ele>363.11</ele>
  <time>2026-09-01T19:57:51Z</time>
  <course>180.58</course>
  <speed>25.400096456509768</speed>
  <fix>3d</fix>
</trkpt>
<trkpt lat="-27.2622374" lon="151.2899229">
  <ele>363.22</ele>
  <time>2026-09-01T19:57:51Z</time>
  <course>180.11</course>
  <speed>25.38</speed>
  <fix>3d</fix>
</trkpt>
<trkpt lat="-27.2623042" lon="151.2899225">
  <ele>363.11</ele>
  <time>2026-09-01T19:57:51Z</time>
  <course>180.57</course>
  <speed>25.400070866042874</speed>
  <fix>3d</fix>
</trkpt>
<trkpt lat="-27.2622374" lon="151.2899229">
  <ele>363.22</ele>
  <time>2026-09-01T19:57:51Z</time>
  <course>180.11</course>
  <speed>25.38</speed>
  <fix>3d</fix>
</trkpt>
<trkpt lat="-27.2623269" lon="151.2899225">
  <ele>363.1</ele>
  <time>2026-09-01T19:57:51Z</time>
  <course>180.64</course>
  <speed>25.410070838153914</speed>
  <fix>3d</fix>
</trkpt>
<trkpt lat="-27.2622829" lon="151.2899228">
  <ele>363.22</ele>
  <time>2026-09-01T19:57:51Z</time>
  <course>180.08</course>
  <speed>25.38</speed>
  <fix>3d</fix>
</trkpt>
<trkpt lat="-27.2623497" lon="151.2899224">
  <ele>363.1</ele>
  <time>2026-09-01T19:57:51Z</time>
  <course>180.61</course>
  <speed>25.410070838153914</speed>
  <fix>3d</fix>
</trkpt>
<trkpt lat="-27.2622829" lon="151.2899228">
  <ele>363.22</ele>
  <time>2026-09-01T19:57:51Z</time>
  <course>180.08</course>
  <speed>25.38</speed>
  <fix>3d</fix>
</trkpt>
<trkpt lat="-27.2623725" lon="151.2899224">
  <ele>363.1</ele>
  <time>2026-09-01T19:57:51Z</time>
  <course>180.58</course>
  <speed>25.410070838153914</speed>
  <fix>3d</fix>
</trkpt>
<trkpt lat="-27.2623285" lon="151.2899228">
  <ele>363.22</ele>
  <time>2026-09-01T19:57:51Z</time>
  <course>180.07</course>
  <speed>25.38</speed>
  <fix>3d</fix>
</trkpt>
<trkpt lat="-27.2623953" lon="151.2899224">
  <ele>363.1</ele>
  <time>2026-09-01T19:57:51Z</time>
  <course>180.59</course>
  <speed>25.410070838153914</speed>
  <fix>3d</fix>
</trkpt>
<trkpt lat="-27.2623285" lon="151.2899228">
  <ele>363.22</ele>
  <time>2026-09-01T19:57:51Z</time>
  <course>180.07</course>
  <speed>25.38</speed>
  <fix>3d</fix>
</trkpt>
<trkpt lat="-27.2624183" lon="151.2899224">
  <ele>363.09</ele>
  <time>2026-09-01T19:57:51Z</time>
  <course>180.6</course>
  <speed>25.410070838153914</speed>
  <fix>3d</fix>
</trkpt>
<trkpt lat="-27.2623741" lon="151.2899227">
  <ele>363.22</ele>
  <time>2026-09-01T19:57:51Z</time>
  <course>180.07</course>
  <speed>25.39</speed>
  <fix>3d</fix>
</trkpt>
<trkpt lat="-27.2624411" lon="151.2899223">
  <ele>363.08</ele>
  <time>2026-09-01T19:57:51Z</time>
  <course>180.64</course>
  <speed>25.410070838153914</speed>
  <fix>3d</fix>
</trkpt>
<trkpt lat="-27.2623741" lon="151.2899227">
  <ele>363.22</ele>
  <time>2026-09-01T19:57:51Z</time>
  <course>180.07</course>
  <speed>25.39</speed>
  <fix>3d</fix>
</trkpt>
<trkpt lat="-27.2624639" lon="151.2899223">
  <ele>363.08</ele>
  <time>2026-09-01T19:57:51Z</time>
  <course>180.6</course>
  <speed>25.410070838153914</speed>
  <fix>3d</fix>
</trkpt>
<trkpt lat="-27.2624197" lon="151.2899226">
  <ele>363.21</ele>
  <time>2026-09-01T19:57:51Z</time>
  <course>180.07</course>
  <speed>25.39</speed>
  <fix>3d</fix>
</trkpt>
<trkpt lat="-27.2624867" lon="151.2899222">
  <ele>363.08</ele>
  <time>2026-09-01T19:57:51Z</time>
  <course>180.6</course>
  <speed>25.410070838153914</speed>
  <fix>3d</fix>
</trkpt>
<trkpt lat="-27.2624197" lon="151.2899226">
  <ele>363.21</ele>
  <time>2026-09-01T19:57:51Z</time>
  <course>180.07</course>
  <speed>25.39</speed>
  <fix>3d</fix>
</trkpt>
<trkpt lat="-27.2625095" lon="151.2899222">
  <ele>363.08</ele>
  <time>2026-09-01T19:57:51Z</time>
  <course>180.65</course>
  <speed>25.410070838153914</speed>
  <fix>3d</fix>
</trkpt>
<trkpt lat="-27.2624653" lon="151.2899225">
  <ele>363.2</ele>
  <time>2026-09-01T19:57:51Z</time>
  <course>180.07</course>
  <speed>25.4</speed>
  <fix>3d</fix>
</trkpt>
<trkpt lat="-27.2625323" lon="151.2899222">
  <ele>363.07</ele>
  <time>2026-09-01T19:57:51Z</time>
  <course>180.68</course>
  <speed>25.410070838153914</speed>
  <fix>3d</fix>
</trkpt>
<trkpt lat="-27.2624653" lon="151.2899225">
  <ele>363.2</ele>
  <time>2026-09-01T19:57:51Z</time>
  <course>180.07</course>
  <speed>25.4</speed>
  <fix>3d</fix>
</trkpt>
<trkpt lat="-27.2625551" lon="151.2899221">
  <ele>363.07</ele>
  <time>2026-09-01T19:57:51Z</time>
  <course>180.61</course>
  <speed>25.400096456509768</speed>
  <fix>3d</fix>
</trkpt>
<trkpt lat="-27.262511" lon="151.2899225">
  <ele>363.2</ele>
  <time>2026-09-01T19:57:51Z</time>
  <course>180.07</course>
  <speed>25.4</speed>
  <fix>3d</fix>
</trkpt>
<trkpt lat="-27.2625779" lon="151.2899221">
  <ele>363.07</ele>
  <time>2026-09-01T19:57:51Z</time>
  <course>180.57</course>
  <speed>25.400070866042874</speed>
  <fix>3d</fix>
</trkpt>
<trkpt lat="-27.262511" lon="151.2899225">
  <ele>363.2</ele>
  <time>2026-09-01T19:57:51Z</time>
  <course>180.07</course>
  <speed>25.4</speed>
  <fix>3d</fix>
</trkpt>
<trkpt lat="-27.2626007" lon="151.2899221">
  <ele>363.06</ele>
  <time>2026-09-01T19:57:51Z</time>
  <course>180.61</course>
  <speed>25.400070866042874</speed>
  <fix>3d</fix>
</trkpt>
<trkpt lat="-27.2625567" lon="151.2899224">
  <ele>363.19</ele>
  <time>2026-09-01T19:57:51Z</time>
  <course>180.08</course>
  <speed>25.4</speed>
  <fix>3d</fix>
</trkpt>
<trkpt lat="-27.2626236" lon="151.289922">
  <ele>363.06</ele>
  <time>2026-09-01T19:57:51Z</time>
  <course>180.62</course>
  <speed>25.410070838153914</speed>
  <fix>3d</fix>
</trkpt>
<trkpt lat="-27.2625567" lon="151.2899224">
  <ele>363.19</ele>
  <time>2026-09-01T19:57:51Z</time>
  <course>180.08</course>
  <speed>25.4</speed>
  <fix>3d</fix>
</trkpt>
<trkpt lat="-27.2626464" lon="151.289922">
  <ele>363.05</ele>
  <time>2026-09-01T19:57:51Z</time>
  <course>180.62</course>
  <speed>25.410070838153914</speed>
  <fix>3d</fix>
</trkpt>
<trkpt lat="-27.2626024" lon="151.2899223">
  <ele>363.19</ele>
  <time>2026-09-01T19:57:51Z</time>
  <course>180.08</course>
  <speed>25.4</speed>
  <fix>3d</fix>
</trkpt>
<trkpt lat="-27.2626692" lon="151.289922">
  <ele>363.05</ele>
  <time>2026-09-01T19:57:51Z</time>
  <course>180.63</course>
  <speed>25.400096456509768</speed>
  <fix>3d</fix>
</trkpt>
<trkpt lat="-27.2626024" lon="151.2899223">
  <ele>363.19</ele>
  <time>2026-09-01T19:57:51Z</time>
  <course>180.08</course>
  <speed>25.4</speed>
  <fix>3d</fix>
</trkpt>
<trkpt lat="-27.262692" lon="151.2899219">
  <ele>363.05</ele>
  <time>2026-09-01T19:57:51Z</time>
  <course>180.61</course>
  <speed>25.400070866042874</speed>
  <fix>3d</fix>
</trkpt>
<trkpt lat="-27.262648" lon="151.2899223">
  <ele>363.18</ele>
  <time>2026-09-01T19:57:51Z</time>
  <course>180.08</course>
  <speed>25.41</speed>
  <fix>3d</fix>
</trkpt>
<trkpt lat="-27.2627148" lon="151.2899219">
  <ele>363.05</ele>
  <time>2026-09-01T19:57:51Z</time>
  <course>180.62</course>
  <speed>25.410070838153914</speed>
  <fix>3d</fix>
</trkpt>
<trkpt lat="-27.262648" lon="151.2899223">
  <ele>363.18</ele>
  <time>2026-09-01T19:57:51Z</time>
  <course>180.08</course>
  <speed>25.41</speed>
  <fix>3d</fix>
</trkpt>
<trkpt lat="-27.2627377" lon="151.2899218">
  <ele>363.05</ele>
  <time>2026-09-01T19:57:51Z</time>
  <course>180.63</course>
  <speed>25.410096418549852</speed>
  <fix>3d</fix>
</trkpt>
<trkpt lat="-27.2626937" lon="151.2899222">
  <ele>363.18</ele>
  <time>2026-09-01T19:57:51Z</time>
  <course>180.08</course>
  <speed>25.41</speed>
  <fix>3d</fix>
</trkpt>
<trkpt lat="-27.2627605" lon="151.2899218">
  <ele>363.05</ele>
  <time>2026-09-01T19:57:51Z</time>
  <course>180.62</course>
  <speed>25.410096418549852</speed>
  <fix>3d</fix>
</trkpt>
<trkpt lat="-27.2626937" lon="151.2899222">
  <ele>363.18</ele>
  <time>2026-09-01T19:57:51Z</time>
  <course>180.08</course>
  <speed>25.41</speed>
  <fix>3d</fix>
</trkpt>
<trkpt lat="-27.2627833" lon="151.2899218">
  <ele>363.06</ele>
  <time>2026-09-01T19:57:51Z</time>
  <course>180.58</course>
  <speed>25.410096418549852</speed>
  <fix>3d</fix>
</trkpt>
<trkpt lat="-27.2627393" lon="151.2899221">
  <ele>363.18</ele>
  <time>2026-09-01T19:57:51Z</time>
  <course>180.08</course>
  <speed>25.41</speed>
  <fix>3d</fix>
</trkpt>
<trkpt lat="-27.2628062" lon="151.2899217">
  <ele>363.06</ele>
  <time>2026-09-01T19:57:51Z</time>
  <course>180.55</course>
  <speed>25.410070838153914</speed>
  <fix>3d</fix>
</trkpt>
<trkpt lat="-27.2627393" lon="151.2899221">
  <ele>363.18</ele>
  <time>2026-09-01T19:57:51Z</time>
  <course>180.08</course>
  <speed>25.41</speed>
  <fix>3d</fix>
</trkpt>
<trkpt lat="-27.262829" lon="151.2899217">
  <ele>363.06</ele>
  <time>2026-09-01T19:57:51Z</time>
  <course>180.55</course>
  <speed>25.410070838153914</speed>
  <fix>3d</fix>
</trkpt>
<trkpt lat="-27.262785" lon="151.289922">
  <ele>363.19</ele>
  <time>2026-09-01T19:57:51Z</time>
  <course>180.08</course>
  <speed>25.41</speed>
  <fix>3d</fix>
</trkpt>
<trkpt lat="-27.2628519" lon="151.2899217">
  <ele>363.06</ele>
  <time>2026-09-01T19:57:51Z</time>
  <course>180.59</course>
  <speed>25.410070838153914</speed>
  <fix>3d</fix>
</trkpt>
<trkpt lat="-27.262785" lon="151.289922">
  <ele>363.19</ele>
  <time>2026-09-01T19:57:51Z</time>
  <course>180.08</course>
  <speed>25.41</speed>
  <fix>3d</fix>
</trkpt>
<trkpt lat="-27.2628747" lon="151.2899216">
  <ele>363.06</ele>
  <time>2026-09-01T19:57:51Z</time>
  <course>180.67</course>
  <speed>25.410070838153914</speed>
  <fix>3d</fix>
</trkpt>
<trkpt lat="-27.2628306" lon="151.289922">
  <ele>363.19</ele>
  <time>2026-09-01T19:57:51Z</time>
  <course>180.07</course>
  <speed>25.42</speed>
  <fix>3d</fix>
</trkpt>
<trkpt lat="-27.2628977" lon="151.2899216">
  <ele>363.06</ele>
  <time>2026-09-01T19:57:51Z</time>
  <course>180.62</course>
  <speed>25.410070838153914</speed>
  <fix>3d</fix>
</trkpt>
<trkpt lat="-27.2628306" lon="151.289922">
  <ele>363.19</ele>
  <time>2026-09-01T19:57:51Z</time>
  <course>180.07</course>
  <speed>25.42</speed>
  <fix>3d</fix>
</trkpt>
<trkpt lat="-27.2629205" lon="151.2899216">
  <ele>363.06</ele>
  <time>2026-09-01T19:57:51Z</time>
  <course>180.58</course>
  <speed>25.410070838153914</speed>
  <fix>3d</fix>
</trkpt>
<trkpt lat="-27.2628763" lon="151.2899219">
  <ele>363.2</ele>
  <time>2026-09-01T19:57:51Z</time>
  <course>180.07</course>
  <speed>25.42</speed>
  <fix>3d</fix>
</trkpt>
<trkpt lat="-27.2629433" lon="151.2899215">
  <ele>363.07</ele>
  <time>2026-09-01T19:57:51Z</time>
  <course>180.53</course>
  <speed>25.410070838153914</speed>
  <fix>3d</fix>
</trkpt>
<trkpt lat="-27.2628763" lon="151.2899219">
  <ele>363.2</ele>
  <time>2026-09-01T19:57:51Z</time>
  <course>180.07</course>
  <speed>25.42</speed>
  <fix>3d</fix>
</trkpt>
<trkpt lat="-27.2629661" lon="151.2899215">
  <ele>363.07</ele>
  <time>2026-09-01T19:57:51Z</time>
  <course>180.55</course>
  <speed>25.410049193183394</speed>
  <fix>3d</fix>
</trkpt>
<trkpt lat="-27.2629219" lon="151.2899218">
  <ele>363.2</ele>
  <time>2026-09-01T19:57:51Z</time>
  <course>180.07</course>
  <speed>25.42</speed>
  <fix>3d</fix>
</trkpt>
<trkpt lat="-27.2629889" lon="151.2899215">
  <ele>363.08</ele>
  <time>2026-09-01T19:57:51Z</time>
  <course>180.6</course>
  <speed>25.40004921255075</speed>
  <fix>3d</fix>
</trkpt>
<trkpt lat="-27.2629219" lon="151.2899218">
  <ele>363.2</ele>
  <time>2026-09-01T19:57:51Z</time>
  <course>180.07</course>
  <speed>25.42</speed>
  <fix>3d</fix>
</trkpt>
<trkpt lat="-27.2630118" lon="151.2899214">
  <ele>363.08</ele>
  <time>2026-09-01T19:57:51Z</time>
  <course>180.62</course>
  <speed>25.410049193183394</speed>
  <fix>3d</fix>
</trkpt>
<trkpt lat="-27.2629676" lon="151.2899218">
  <ele>363.2</ele>
  <time>2026-09-01T19:57:51Z</time>
  <course>180.06</course>
  <speed>25.42</speed>
  <fix>3d</fix>
</trkpt>
<trkpt lat="-27.2630346" lon="151.2899214">
  <ele>363.08</ele>
  <time>2026-09-01T19:57:51Z</time>
  <course>180.65</course>
  <speed>25.400070866042874</speed>
  <fix>3d</fix>
</trkpt>
<trkpt lat="-27.2629676" lon="151.2899218">
  <ele>363.2</ele>
  <time>2026-09-01T19:57:51Z</time>
  <course>180.06</course>
  <speed>25.42</speed>
  <fix>3d</fix>
</trkpt>
<trkpt lat="-27.2630574" lon="151.2899214">
  <ele>363.08</ele>
  <time>2026-09-01T19:57:51Z</time>
  <course>180.6</course>
  <speed>25.400070866042874</speed>
  <fix>3d</fix>
</trkpt>
<trkpt lat="-27.2630133" lon="151.2899217">
  <ele>363.21</ele>
  <time>2026-09-01T19:57:51Z</time>
  <course>180.06</course>
  <speed>25.42</speed>
  <fix>3d</fix>
</trkpt>
<trkpt lat="-27.2630802" lon="151.2899214">
  <ele>363.08</ele>
  <time>2026-09-01T19:57:51Z</time>
  <course>180.58</course>
  <speed>25.40004921255075</speed>
  <fix>3d</fix>
</trkpt>
<trkpt lat="-27.2630133" lon="151.2899217">
  <ele>363.21</ele>
  <time>2026-09-01T19:57:51Z</time>
  <course>180.06</course>
  <speed>25.42</speed>
  <fix>3d</fix>
</trkpt>
<trkpt lat="-27.263103" lon="151.2899213">
  <ele>363.09</ele>
  <time>2026-09-01T19:57:51Z</time>
  <course>180.58</course>
  <speed>25.39004923193336</speed>
  <fix>3d</fix>
</trkpt>
<trkpt lat="-27.263059" lon="151.2899216">
  <ele>363.2</ele>
  <time>2026-09-01T19:57:51Z</time>
  <course>180.06</course>
  <speed>25.42</speed>
  <fix>3d</fix>
</trkpt>
<trkpt lat="-27.2631258" lon="151.2899213">
  <ele>363.09</ele>
  <time>2026-09-01T19:57:51Z</time>
  <course>180.55</course>
  <speed>25.39004923193336</speed>
  <fix>3d</fix>
</trkpt>
<trkpt lat="-27.263059" lon="151.2899216">
  <ele>363.2</ele>
  <time>2026-09-01T19:57:51Z</time>
  <course>180.06</course>
  <speed>25.42</speed>
  <fix>3d</fix>
</trkpt>
<trkpt lat="-27.2631487" lon="151.2899213">
  <ele>363.09</ele>
  <time>2026-09-01T19:57:51Z</time>
  <course>180.64</course>
  <speed>25.39004923193336</speed>
  <fix>3d</fix>
</trkpt>
<trkpt lat="-27.2631048" lon="151.2899216">
  <ele>363.2</ele>
  <time>2026-09-01T19:57:51Z</time>
  <course>180.05</course>
  <speed>25.42</speed>
  <fix>3d</fix>
</trkpt>
<trkpt lat="-27.2631715" lon="151.2899213">
  <ele>363.08</ele>
  <time>2026-09-01T19:57:51Z</time>
  <course>180.65</course>
  <speed>25.39004923193336</speed>
  <fix>3d</fix>
</trkpt>
<trkpt lat="-27.2631048" lon="151.2899216">
  <ele>363.2</ele>
  <time>2026-09-01T19:57:51Z</time>
  <course>180.05</course>
  <speed>25.42</speed>
  <fix>3d</fix>
</trkpt>
<trkpt lat="-27.2631943" lon="151.2899212">
  <ele>363.08</ele>
  <time>2026-09-01T19:57:51Z</time>
  <course>180.63</course>
  <speed>25.39004923193336</speed>
  <fix>3d</fix>
</trkpt>
<trkpt lat="-27.2631504" lon="151.2899215">
  <ele>363.2</ele>
  <time>2026-09-01T19:57:51Z</time>
  <course>180.04</course>
  <speed>25.42</speed>
  <fix>3d</fix>
</trkpt>
<trkpt lat="-27.2632171" lon="151.2899212">
  <ele>363.08</ele>
  <time>2026-09-01T19:57:51Z</time>
  <course>180.62</course>
  <speed>25.38004925133125</speed>
  <fix>3d</fix>
</trkpt>
<trkpt lat="-27.2631504" lon="151.2899215">
  <ele>363.2</ele>
  <time>2026-09-01T19:57:51Z</time>
  <course>180.04</course>
  <speed>25.42</speed>
  <fix>3d</fix>
</trkpt>
<trkpt lat="-27.2632399" lon="151.2899212">
  <ele>363.08</ele>
  <time>2026-09-01T19:57:51Z</time>
  <course>180.61</course>
  <speed>25.38004925133125</speed>
  <fix>3d</fix>
</trkpt>
<trkpt lat="-27.2631961" lon="151.2899215">
  <ele>363.19</ele>
  <time>2026-09-01T19:57:51Z</time>
  <course>180.05</course>
  <speed>25.42</speed>
  <fix>3d</fix>
</trkpt>
<trkpt lat="-27.2632628" lon="151.2899212">
  <ele>363.08</ele>
  <time>2026-09-01T19:57:51Z</time>
  <course>180.6</course>
  <speed>25.38004925133125</speed>
  <fix>3d</fix>
</trkpt>
<trkpt lat="-27.2631961" lon="151.2899215">
  <ele>363.19</ele>
  <time>2026-09-01T19:57:51Z</time>
  <course>180.05</course>
  <speed>25.42</speed>
  <fix>3d</fix>
</trkpt>
<trkpt lat="-27.2632856" lon="151.2899211">
  <ele>363.08</ele>
  <time>2026-09-01T19:57:51Z</time>
  <course>180.58</course>
  <speed>25.39004923193336</speed>
  <fix>3d</fix>
</trkpt>
<trkpt lat="-27.2632418" lon="151.2899215">
  <ele>363.19</ele>
  <time>2026-09-01T19:57:51Z</time>
  <course>180.05</course>
  <speed>25.41</speed>
  <fix>3d</fix>
</trkpt>
<trkpt lat="-27.2633084" lon="151.2899211">
  <ele>363.08</ele>
  <time>2026-09-01T19:57:51Z</time>
  <course>180.57</course>
  <speed>25.38004925133125</speed>
  <fix>3d</fix>
</trkpt>
<trkpt lat="-27.2632418" lon="151.2899215">
  <ele>363.19</ele>
  <time>2026-09-01T19:57:51Z</time>
  <course>180.05</course>
  <speed>25.41</speed>
  <fix>3d</fix>
</trkpt>
<trkpt lat="-27.2633313" lon="151.2899211">
  <ele>363.08</ele>
  <time>2026-09-01T19:57:51Z</time>
  <course>180.58</course>
  <speed>25.380031520863014</speed>
  <fix>3d</fix>
</trkpt>
<trkpt lat="-27.2632874" lon="151.2899214">
  <ele>363.19</ele>
  <time>2026-09-01T19:57:51Z</time>
  <course>180.04</course>
  <speed>25.41</speed>
  <fix>3d</fix>
</trkpt>
<trkpt lat="-27.2633541" lon="151.2899211">
  <ele>363.08</ele>
  <time>2026-09-01T19:57:51Z</time>
  <course>180.61</course>
  <speed>25.380031520863014</speed>
  <fix>3d</fix>
</trkpt>
<trkpt lat="-27.2632874" lon="151.2899214">
  <ele>363.19</ele>
  <time>2026-09-01T19:57:51Z</time>
  <course>180.04</course>
  <speed>25.41</speed>
  <fix>3d</fix>
</trkpt>
<trkpt lat="-27.2633767" lon="151.2899211">
  <ele>363.08</ele>
  <time>2026-09-01T19:57:51Z</time>
  <course>180.64</course>
  <speed>25.38004925133125</speed>
  <fix>3d</fix>
</trkpt>
<trkpt lat="-27.263333" lon="151.2899214">
  <ele>363.19</ele>
  <time>2026-09-01T19:57:51Z</time>
  <course>180.05</course>
  <speed>25.41</speed>
  <fix>3d</fix>
</trkpt>
<trkpt lat="-27.2633995" lon="151.289921">
  <ele>363.08</ele>
  <time>2026-09-01T19:57:51Z</time>
  <course>180.62</course>
  <speed>25.380070921886723</speed>
  <fix>3d</fix>
</trkpt>
<trkpt lat="-27.263333" lon="151.2899214">
  <ele>363.19</ele>
  <time>2026-09-01T19:57:51Z</time>
  <course>180.05</course>
  <speed>25.41</speed>
  <fix>3d</fix>
</trkpt>
<trkpt lat="-27.2634224" lon="151.289921">
  <ele>363.08</ele>
  <time>2026-09-01T19:57:51Z</time>
  <course>180.5</course>
  <speed>25.380070921886723</speed>
  <fix>3d</fix>
</trkpt>
<trkpt lat="-27.2633787" lon="151.2899213">
  <ele>363.19</ele>
  <time>2026-09-01T19:57:51Z</time>
  <course>180.07</course>
  <speed>25.41</speed>
  <fix>3d</fix>
</trkpt>
<trkpt lat="-27.2634456" lon="151.289921">
  <ele>363.07</ele>
  <time>2026-09-01T19:57:51Z</time>
  <course>180.47</course>
  <speed>25.380070921886723</speed>
  <fix>3d</fix>
</trkpt>
<trkpt lat="-27.2633787" lon="151.2899213">
  <ele>363.19</ele>
  <time>2026-09-01T19:57:51Z</time>
  <course>180.07</course>
  <speed>25.41</speed>
  <fix>3d</fix>
</trkpt>
<trkpt lat="-27.2634684" lon="151.2899209">
  <ele>363.07</ele>
  <time>2026-09-01T19:57:51Z</time>
  <course>180.53</course>
  <speed>25.38004925133125</speed>
  <fix>3d</fix>
</trkpt>
<trkpt lat="-27.2634244" lon="151.2899212">
  <ele>363.19</ele>
  <time>2026-09-01T19:57:51Z</time>
  <course>180.08</course>
  <speed>25.41</speed>
  <fix>3d</fix>
</trkpt>
<trkpt lat="-27.2634912" lon="151.2899209">
  <ele>363.07</ele>
  <time>2026-09-01T19:57:51Z</time>
  <course>180.6</course>
  <speed>25.38004925133125</speed>
  <fix>3d</fix>
</trkpt>
<trkpt lat="-27.2634244" lon="151.2899212">
  <ele>363.19</ele>
  <time>2026-09-01T19:57:51Z</time>
  <course>180.08</course>
  <speed>25.41</speed>
  <fix>3d</fix>
</trkpt>
<trkpt lat="-27.263514" lon="151.2899209">
  <ele>363.07</ele>
  <time>2026-09-01T19:57:51Z</time>
  <course>180.65</course>
  <speed>25.370070949841665</speed>
  <fix>3d</fix>
</trkpt>
<trkpt lat="-27.26347" lon="151.2899211">
  <ele>363.19</ele>
  <time>2026-09-01T19:57:51Z</time>
  <course>180.08</course>
  <speed>25.41</speed>
  <fix>3d</fix>
</trkpt>
<trkpt lat="-27.2635368" lon="151.2899208">
  <ele>363.07</ele>
  <time>2026-09-01T19:57:51Z</time>
  <course>180.6</course>
  <speed>25.370070949841665</speed>
  <fix>3d</fix>
</trkpt>
<trkpt lat="-27.26347" lon="151.2899211">
  <ele>363.19</ele>
  <time>2026-09-01T19:57:51Z</time>
  <course>180.08</course>
  <speed>25.41</speed>
  <fix>3d</fix>
</trkpt>
<trkpt lat="-27.2635596" lon="151.2899208">
  <ele>363.07</ele>
  <time>2026-09-01T19:57:51Z</time>
  <course>180.59</course>
  <speed>25.37009657056906</speed>
  <fix>3d</fix>
</trkpt>
<trkpt lat="-27.2635157" lon="151.2899211">
  <ele>363.19</ele>
  <time>2026-09-01T19:57:51Z</time>
  <course>180.08</course>
  <speed>25.41</speed>
  <fix>3d</fix>
</trkpt>
<trkpt lat="-27.2635824" lon="151.2899207">
  <ele>363.07</ele>
  <time>2026-09-01T19:57:51Z</time>
  <course>180.6</course>
  <speed>25.37009657056906</speed>
  <fix>3d</fix>
</trkpt>
<trkpt lat="-27.2635157" lon="151.2899211">
  <ele>363.19</ele>
  <time>2026-09-01T19:57:51Z</time>
  <course>180.08</course>
  <speed>25.41</speed>
  <fix>3d</fix>
</trkpt>
<trkpt lat="-27.2636052" lon="151.2899207">
  <ele>363.06</ele>
  <time>2026-09-01T19:57:51Z</time>
  <course>180.65</course>
  <speed>25.38009653251934</speed>
  <fix>3d</fix>
</trkpt>
<trkpt lat="-27.2635615" lon="151.289921">
  <ele>363.19</ele>
  <time>2026-09-01T19:57:51Z</time>
  <course>180.1</course>
  <speed>25.41</speed>
  <fix>3d</fix>
</trkpt>
<trkpt lat="-27.263628" lon="151.2899206">
  <ele>363.06</ele>
  <time>2026-09-01T19:57:51Z</time>
  <course>180.67</course>
  <speed>25.37009657056906</speed>
  <fix>3d</fix>
</trkpt>
<trkpt lat="-27.2635615" lon="151.289921">
  <ele>363.19</ele>
  <time>2026-09-01T19:57:51Z</time>
  <course>180.1</course>
  <speed>25.41</speed>
  <fix>3d</fix>
</trkpt>
<trkpt lat="-27.2636509" lon="151.2899206">
  <ele>363.06</ele>
  <time>2026-09-01T19:57:51Z</time>
  <course>180.64</course>
  <speed>25.38009653251934</speed>
  <fix>3d</fix>
</trkpt>
<trkpt lat="-27.2636071" lon="151.2899209">
  <ele>363.19</ele>
  <time>2026-09-01T19:57:51Z</time>
  <course>180.11</course>
  <speed>25.41</speed>
  <fix>3d</fix>
</trkpt>
<trkpt lat="-27.2636737" lon="151.2899205">
  <ele>363.06</ele>
  <time>2026-09-01T19:57:51Z</time>
  <course>180.63</course>
  <speed>25.38012608321716</speed>
  <fix>3d</fix>
</trkpt>
<trkpt lat="-27.2636071" lon="151.2899209">
  <ele>363.19</ele>
  <time>2026-09-01T19:57:51Z</time>
  <course>180.11</course>
  <speed>25.41</speed>
  <fix>3d</fix>
</trkpt>
<trkpt lat="-27.2636965" lon="151.2899205">
  <ele>363.06</ele>
  <time>2026-09-01T19:57:51Z</time>
  <course>180.67</course>
  <speed>25.38012608321716</speed>
  <fix>3d</fix>
</trkpt>
<trkpt lat="-27.2636527" lon="151.2899208">
  <ele>363.19</ele>
  <time>2026-09-01T19:57:51Z</time>
  <course>180.12</course>
  <speed>25.41</speed>
  <fix>3d</fix>
</trkpt>
<trkpt lat="-27.2637193" lon="151.2899204">
  <ele>363.06</ele>
  <time>2026-09-01T19:57:51Z</time>
  <course>180.66</course>
  <speed>25.38012608321716</speed>
  <fix>3d</fix>
</trkpt>
<trkpt lat="-27.2636527" lon="151.2899208">
  <ele>363.19</ele>
  <time>2026-09-01T19:57:51Z</time>
  <course>180.12</course>
  <speed>25.41</speed>
  <fix>3d</fix>
</trkpt>
<trkpt lat="-27.2637422" lon="151.2899204">
  <ele>363.06</ele>
  <time>2026-09-01T19:57:51Z</time>
  <course>180.67</course>
  <speed>25.38012608321716</speed>
  <fix>3d</fix>
</trkpt>
<trkpt lat="-27.2636984" lon="151.2899206">
  <ele>363.19</ele>
  <time>2026-09-01T19:57:51Z</time>
  <course>180.13</course>
  <speed>25.42</speed>
  <fix>3d</fix>
</trkpt>
<trkpt lat="-27.263765" lon="151.2899203">
  <ele>363.06</ele>
  <time>2026-09-01T19:57:51Z</time>
  <course>180.7</course>
  <speed>25.38012608321716</speed>
  <fix>3d</fix>
</trkpt>
<trkpt lat="-27.2636984" lon="151.2899206">
  <ele>363.19</ele>
  <time>2026-09-01T19:57:51Z</time>
  <course>180.13</course>
  <speed>25.42</speed>
  <fix>3d</fix>
</trkpt>
<trkpt lat="-27.2637878" lon="151.2899202">
  <ele>363.05</ele>
  <time>2026-09-01T19:57:51Z</time>
  <course>180.71</course>
  <speed>25.380159573966434</speed>
  <fix>3d</fix>
</trkpt>
<trkpt lat="-27.2637441" lon="151.2899205">
  <ele>363.19</ele>
  <time>2026-09-01T19:57:51Z</time>
  <course>180.14</course>
  <speed>25.42</speed>
  <fix>3d</fix>
</trkpt>
<trkpt lat="-27.2638107" lon="151.2899201">
  <ele>363.05</ele>
  <time>2026-09-01T19:57:51Z</time>
  <course>180.67</course>
  <speed>25.39015951111769</speed>
  <fix>3d</fix>
</trkpt>
<trkpt lat="-27.2637441" lon="151.2899205">
  <ele>363.19</ele>
  <time>2026-09-01T19:57:51Z</time>
  <course>180.14</course>
  <speed>25.42</speed>
  <fix>3d</fix>
</trkpt>
<trkpt lat="-27.2638335" lon="151.2899201">
  <ele>363.05</ele>
  <time>2026-09-01T19:57:51Z</time>
  <course>180.62</course>
  <speed>25.39015951111769</speed>
  <fix>3d</fix>
</trkpt>
<trkpt lat="-27.2637897" lon="151.2899204">
  <ele>363.19</ele>
  <time>2026-09-01T19:57:51Z</time>
  <course>180.14</course>
  <speed>25.42</speed>
  <fix>3d</fix>
</trkpt>
<trkpt lat="-27.2638562" lon="151.28992">
  <ele>363.04</ele>
  <time>2026-09-01T19:57:51Z</time>
  <course>180.64</course>
  <speed>25.390126033558793</speed>
  <fix>3d</fix>
</trkpt>
<trkpt lat="-27.2637897" lon="151.2899204">
  <ele>363.19</ele>
  <time>2026-09-01T19:57:51Z</time>
  <course>180.14</course>
  <speed>25.42</speed>
  <fix>3d</fix>
</trkpt>
<trkpt lat="-27.263879" lon="151.28992">
  <ele>363.04</ele>
  <time>2026-09-01T19:57:51Z</time>
  <course>180.69</course>
  <speed>25.390126033558793</speed>
  <fix>3d</fix>
</trkpt>
<trkpt lat="-27.2638354" lon="151.2899203">
  <ele>363.18</ele>
  <time>2026-09-01T19:57:51Z</time>
  <course>180.13</course>
  <speed>25.43</speed>
  <fix>3d</fix>
</trkpt>
<trkpt lat="-27.2639019" lon="151.2899199">
  <ele>363.04</ele>
  <time>2026-09-01T19:57:51Z</time>
  <course>180.73</course>
  <speed>25.400125983939528</speed>
  <fix>3d</fix>
</trkpt>
<trkpt lat="-27.2638354" lon="151.2899203">
  <ele>363.18</ele>
  <time>2026-09-01T19:57:51Z</time>
  <course>180.13</course>
  <speed>25.43</speed>
  <fix>3d</fix>
</trkpt>
<trkpt lat="-27.2639247" lon="151.2899199">
  <ele>363.05</ele>
  <time>2026-09-01T19:57:51Z</time>
  <course>180.74</course>
  <speed>25.400125983939528</speed>
  <fix>3d</fix>
</trkpt>
<trkpt lat="-27.263881" lon="151.2899202">
  <ele>363.18</ele>
  <time>2026-09-01T19:57:51Z</time>
  <course>180.12</course>
  <speed>25.43</speed>
  <fix>3d</fix>
</trkpt>
<trkpt lat="-27.2639477" lon="151.2899198">
  <ele>363.05</ele>
  <time>2026-09-01T19:57:51Z</time>
  <course>180.73</course>
  <speed>25.400159448318433</speed>
  <fix>3d</fix>
</trkpt>
<trkpt lat="-27.263881" lon="151.2899202">
  <ele>363.18</ele>
  <time>2026-09-01T19:57:51Z</time>
  <course>180.12</course>
  <speed>25.43</speed>
  <fix>3d</fix>
</trkpt>
<trkpt lat="-27.2639706" lon="151.2899197">
  <ele>363.06</ele>
  <time>2026-09-01T19:57:51Z</time>
  <course>180.74</course>
  <speed>25.400159448318433</speed>
  <fix>3d</fix>
</trkpt>
<trkpt lat="-27.2639267" lon="151.2899201">
  <ele>363.18</ele>
  <time>2026-09-01T19:57:51Z</time>
  <course>180.13</course>
  <speed>25.44</speed>
  <fix>3d</fix>
</trkpt>
<trkpt lat="-27.2639934" lon="151.2899197">
  <ele>363.06</ele>
  <time>2026-09-01T19:57:51Z</time>
  <course>180.74</course>
  <speed>25.400159448318433</speed>
  <fix>3d</fix>
</trkpt>
<trkpt lat="-27.2639267" lon="151.2899201">
  <ele>363.18</ele>
  <time>2026-09-01T19:57:51Z</time>
  <course>180.13</course>
  <speed>25.44</speed>
  <fix>3d</fix>
</trkpt>
<trkpt lat="-27.264017" lon="151.2899196">
  <ele>363.07</ele>
  <time>2026-09-01T19:57:51Z</time>
  <course>180.75</course>
  <speed>25.400159448318433</speed>
  <fix>3d</fix>
</trkpt>
<trkpt lat="-27.2639724" lon="151.2899199">
  <ele>363.19</ele>
  <time>2026-09-01T19:57:51Z</time>
  <course>180.14</course>
  <speed>25.44</speed>
  <fix>3d</fix>
</trkpt>
<trkpt lat="-27.2640397" lon="151.2899195">
  <ele>363.07</ele>
  <time>2026-09-01T19:57:51Z</time>
  <course>180.76</course>
  <speed>25.400196849630913</speed>
  <fix>3d</fix>
</trkpt>
<trkpt lat="-27.2639724" lon="151.2899199">
  <ele>363.19</ele>
  <time>2026-09-01T19:57:51Z</time>
  <course>180.14</course>
  <speed>25.44</speed>
  <fix>3d</fix>
</trkpt>
<trkpt lat="-27.2640621" lon="151.2899194">
  <ele>363.08</ele>
  <time>2026-09-01T19:57:51Z</time>
  <course>180.72</course>
  <speed>25.400196849630913</speed>
  <fix>3d</fix>
</trkpt>
<trkpt lat="-27.2640182" lon="151.2899198">
  <ele>363.2</ele>
  <time>2026-09-01T19:57:51Z</time>
  <course>180.15</course>
  <speed>25.43</speed>
  <fix>3d</fix>
</trkpt>
<trkpt lat="-27.264085" lon="151.2899193">
  <ele>363.09</ele>
  <time>2026-09-01T19:57:51Z</time>
  <course>180.66</course>
  <speed>25.400196849630913</speed>
  <fix>3d</fix>
</trkpt>
<trkpt lat="-27.2640182" lon="151.2899198">
  <ele>363.2</ele>
  <time>2026-09-01T19:57:51Z</time>
  <course>180.15</course>
  <speed>25.43</speed>
  <fix>3d</fix>
</trkpt>
<trkpt lat="-27.2641077" lon="151.2899193">
  <ele>363.1</ele>
  <time>2026-09-01T19:57:51Z</time>
  <course>180.6</course>
  <speed>25.390196927160687</speed>
  <fix>3d</fix>
</trkpt>
<trkpt lat="-27.264064" lon="151.2899196">
  <ele>363.21</ele>
  <time>2026-09-01T19:57:51Z</time>
  <course>180.17</course>
  <speed>25.43</speed>
  <fix>3d</fix>
</trkpt>
<trkpt lat="-27.2641305" lon="151.2899192">
  <ele>363.1</ele>
  <time>2026-09-01T19:57:51Z</time>
  <course>180.67</course>
  <speed>25.39015951111769</speed>
  <fix>3d</fix>
</trkpt>
<trkpt lat="-27.264064" lon="151.2899196">
  <ele>363.21</ele>
  <time>2026-09-01T19:57:51Z</time>
  <course>180.17</course>
  <speed>25.43</speed>
  <fix>3d</fix>
</trkpt>
<trkpt lat="-27.2641532" lon="151.2899191">
  <ele>363.11</ele>
  <time>2026-09-01T19:57:51Z</time>
  <course>180.72</course>
  <speed>25.380159573966434</speed>
  <fix>3d</fix>
</trkpt>
<trkpt lat="-27.2641097" lon="151.2899195">
  <ele>363.22</ele>
  <time>2026-09-01T19:57:51Z</time>
  <course>180.16</course>
  <speed>25.43</speed>
  <fix>3d</fix>
</trkpt>
<trkpt lat="-27.2641759" lon="151.2899191">
  <ele>363.11</ele>
  <time>2026-09-01T19:57:51Z</time>
  <course>180.76</course>
  <speed>25.370159636864724</speed>
  <fix>3d</fix>
</trkpt>
<trkpt lat="-27.2641097" lon="151.2899195">
  <ele>363.22</ele>
  <time>2026-09-01T19:57:51Z</time>
  <course>180.16</course>
  <speed>25.43</speed>
  <fix>3d</fix>
</trkpt>
<trkpt lat="-27.2641985" lon="151.289919">
  <ele>363.11</ele>
  <time>2026-09-01T19:57:51Z</time>
  <course>180.8</course>
  <speed>25.370159636864724</speed>
  <fix>3d</fix>
</trkpt>
<trkpt lat="-27.2641553" lon="151.2899193">
  <ele>363.23</ele>
  <time>2026-09-01T19:57:51Z</time>
  <course>180.15</course>
  <speed>25.42</speed>
  <fix>3d</fix>
</trkpt>
<trkpt lat="-27.2642212" lon="151.2899189">
  <ele>363.11</ele>
  <time>2026-09-01T19:57:51Z</time>
  <course>180.72</course>
  <speed>25.360159699812616</speed>
  <fix>3d</fix>
</trkpt>
<trkpt lat="-27.2641553" lon="151.2899193">
  <ele>363.23</ele>
  <time>2026-09-01T19:57:51Z</time>
  <course>180.15</course>
  <speed>25.42</speed>
  <fix>3d</fix>
</trkpt>
<trkpt lat="-27.2642439" lon="151.2899188">
  <ele>363.11</ele>
  <time>2026-09-01T19:57:51Z</time>
  <course>180.67</course>
  <speed>25.350159762810176</speed>
  <fix>3d</fix>
</trkpt>
<trkpt lat="-27.264201" lon="151.2899192">
  <ele>363.23</ele>
  <time>2026-09-01T19:57:51Z</time>
  <course>180.15</course>
  <speed>25.42</speed>
  <fix>3d</fix>
</trkpt>
<trkpt lat="-27.2642666" lon="151.2899188">
  <ele>363.11</ele>
  <time>2026-09-01T19:57:51Z</time>
  <course>180.69</course>
  <speed>25.350126232427325</speed>
  <fix>3d</fix>
</trkpt>
<trkpt lat="-27.264201" lon="151.2899192">
  <ele>363.23</ele>
  <time>2026-09-01T19:57:51Z</time>
  <course>180.15</course>
  <speed>25.42</speed>
  <fix>3d</fix>
</trkpt>
<trkpt lat="-27.2642893" lon="151.2899187">
  <ele>363.11</ele>
  <time>2026-09-01T19:57:51Z</time>
  <course>180.68</course>
  <speed>25.340096684898423</speed>
  <fix>3d</fix>
</trkpt>
<trkpt lat="-27.2642467" lon="151.2899191">
  <ele>363.24</ele>
  <time>2026-09-01T19:57:51Z</time>
  <course>180.14</course>
  <speed>25.42</speed>
  <fix>3d</fix>
</trkpt>
<trkpt lat="-27.2643118" lon="151.2899187">
  <ele>363.11</ele>
  <time>2026-09-01T19:57:51Z</time>
  <course>180.68</course>
  <speed>25.340096684898423</speed>
  <fix>3d</fix>
</trkpt>
<trkpt lat="-27.2642467" lon="151.2899191">
  <ele>363.24</ele>
  <time>2026-09-01T19:57:51Z</time>
  <course>180.14</course>
  <speed>25.42</speed>
  <fix>3d</fix>
</trkpt>
<trkpt lat="-27.2643345" lon="151.2899186">
  <ele>363.11</ele>
  <time>2026-09-01T19:57:51Z</time>
  <course>180.62</course>
  <speed>25.340071033838875</speed>
  <fix>3d</fix>
</trkpt>
<trkpt lat="-27.2642923" lon="151.2899189">
  <ele>363.24</ele>
  <time>2026-09-01T19:57:51Z</time>
  <course>180.12</course>
  <speed>25.42</speed>
  <fix>3d</fix>
</trkpt>
<trkpt lat="-27.2643572" lon="151.2899186">
  <ele>363.1</ele>
  <time>2026-09-01T19:57:51Z</time>
  <course>180.62</course>
  <speed>25.33007106188216</speed>
  <fix>3d</fix>
</trkpt>
<trkpt lat="-27.2642923" lon="151.2899189">
  <ele>363.24</ele>
  <time>2026-09-01T19:57:51Z</time>
  <course>180.12</course>
  <speed>25.42</speed>
  <fix>3d</fix>
</trkpt>
<trkpt lat="-27.26438" lon="151.2899186">
  <ele>363.1</ele>
  <time>2026-09-01T19:57:51Z</time>
  <course>180.67</course>
  <speed>25.33007106188216</speed>
  <fix>3d</fix>
</trkpt>
<trkpt lat="-27.264338" lon="151.2899189">
  <ele>363.24</ele>
  <time>2026-09-01T19:57:51Z</time>
  <course>180.09</course>
  <speed>25.42</speed>
  <fix>3d</fix>
</trkpt>
<trkpt lat="-27.2644027" lon="151.2899185">
  <ele>363.1</ele>
  <time>2026-09-01T19:57:51Z</time>
  <course>180.69</course>
  <speed>25.340071033838875</speed>
  <fix>3d</fix>
</trkpt>
<trkpt lat="-27.264338" lon="151.2899189">
  <ele>363.24</ele>
  <time>2026-09-01T19:57:51Z</time>
  <course>180.09</course>
  <speed>25.42</speed>
  <fix>3d</fix>
</trkpt>
<trkpt lat="-27.2644256" lon="151.2899185">
  <ele>363.1</ele>
  <time>2026-09-01T19:57:51Z</time>
  <course>180.62</course>
  <speed>25.340071033838875</speed>
  <fix>3d</fix>
</trkpt>
<trkpt lat="-27.2643836" lon="151.2899188">
  <ele>363.23</ele>
  <time>2026-09-01T19:57:51Z</time>
  <course>180.08</course>
  <speed>25.42</speed>
  <fix>3d</fix>
</trkpt>
<trkpt lat="-27.2644484" lon="151.2899185">
  <ele>363.1</ele>
  <time>2026-09-01T19:57:51Z</time>
  <course>180.65</course>
  <speed>25.33007106188216</speed>
  <fix>3d</fix>
</trkpt>
<trkpt lat="-27.2643836" lon="151.2899188">
  <ele>363.23</ele>
  <time>2026-09-01T19:57:51Z</time>
  <course>180.08</course>
  <speed>25.42</speed>
  <fix>3d</fix>
</trkpt>
<trkpt lat="-27.2644719" lon="151.2899184">
  <ele>363.1</ele>
  <time>2026-09-01T19:57:51Z</time>
  <course>180.67</course>
  <speed>25.340071033838875</speed>
  <fix>3d</fix>
</trkpt>
<trkpt lat="-27.2644293" lon="151.2899187">
  <ele>363.22</ele>
  <time>2026-09-01T19:57:51Z</time>
  <course>180.07</course>
  <speed>25.43</speed>
  <fix>3d</fix>
</trkpt>
<trkpt lat="-27.2644946" lon="151.2899184">
  <ele>363.1</ele>
  <time>2026-09-01T19:57:51Z</time>
  <course>180.65</course>
  <speed>25.340071033838875</speed>
  <fix>3d</fix>
</trkpt>
<trkpt lat="-27.2644293" lon="151.2899187">
  <ele>363.22</ele>
  <time>2026-09-01T19:57:51Z</time>
  <course>180.07</course>
  <speed>25.43</speed>
  <fix>3d</fix>
</trkpt>
<trkpt lat="-27.2645172" lon="151.2899184">
  <ele>363.09</ele>
  <time>2026-09-01T19:57:51Z</time>
  <course>180.65</course>
  <speed>25.33007106188216</speed>
  <fix>3d</fix>
</trkpt>
<trkpt lat="-27.2644751" lon="151.2899186">
  <ele>363.22</ele>
  <time>2026-09-01T19:57:51Z</time>
  <course>180.07</course>
  <speed>25.43</speed>
  <fix>3d</fix>
</trkpt>
<trkpt lat="-27.26454" lon="151.2899183">
  <ele>363.09</ele>
  <time>2026-09-01T19:57:51Z</time>
  <course>180.7</course>
  <speed>25.33007106188216</speed>
  <fix>3d</fix>
</trkpt>
<trkpt lat="-27.2644751" lon="151.2899186">
  <ele>363.22</ele>
  <time>2026-09-01T19:57:51Z</time>
  <course>180.07</course>
  <speed>25.43</speed>
  <fix>3d</fix>
</trkpt>
<trkpt lat="-27.2645628" lon="151.2899183">
  <ele>363.09</ele>
  <time>2026-09-01T19:57:51Z</time>
  <course>180.73</course>
  <speed>25.33007106188216</speed>
  <fix>3d</fix>
</trkpt>
<trkpt lat="-27.2645208" lon="151.2899186">
  <ele>363.22</ele>
  <time>2026-09-01T19:57:51Z</time>
  <course>180.07</course>
  <speed>25.43</speed>
  <fix>3d</fix>
</trkpt>
<trkpt lat="-27.2645856" lon="151.2899182">
  <ele>363.08</ele>
  <time>2026-09-01T19:57:51Z</time>
  <course>180.67</course>
  <speed>25.33007106188216</speed>
  <fix>3d</fix>
</trkpt>
<trkpt lat="-27.2645208" lon="151.2899186">
  <ele>363.22</ele>
  <time>2026-09-01T19:57:51Z</time>
  <course>180.07</course>
  <speed>25.43</speed>
  <fix>3d</fix>
</trkpt>
<trkpt lat="-27.2646086" lon="151.2899182">
  <ele>363.08</ele>
  <time>2026-09-01T19:57:51Z</time>
  <course>180.61</course>
  <speed>25.340071033838875</speed>
  <fix>3d</fix>
</trkpt>
<trkpt lat="-27.2645665" lon="151.2899185">
  <ele>363.21</ele>
  <time>2026-09-01T19:57:51Z</time>
  <course>180.08</course>
  <speed>25.42</speed>
  <fix>3d</fix>
</trkpt>
<trkpt lat="-27.2646314" lon="151.2899182">
  <ele>363.08</ele>
  <time>2026-09-01T19:57:51Z</time>
  <course>180.62</course>
  <speed>25.340071033838875</speed>
  <fix>3d</fix>
</trkpt>
<trkpt lat="-27.2645665" lon="151.2899185">
  <ele>363.21</ele>
  <time>2026-09-01T19:57:51Z</time>
  <course>180.08</course>
  <speed>25.42</speed>
  <fix>3d</fix>
</trkpt>
<trkpt lat="-27.2646542" lon="151.2899181">
  <ele>363.07</ele>
  <time>2026-09-01T19:57:51Z</time>
  <course>180.66</course>
  <speed>25.340071033838875</speed>
  <fix>3d</fix>
</trkpt>
<trkpt lat="-27.2646122" lon="151.2899184">
  <ele>363.2</ele>
  <time>2026-09-01T19:57:51Z</time>
  <course>180.08</course>
  <speed>25.42</speed>
  <fix>3d</fix>
</trkpt>
<trkpt lat="-27.264677" lon="151.2899181">
  <ele>363.07</ele>
  <time>2026-09-01T19:57:51Z</time>
  <course>180.63</course>
  <speed>25.340096684898423</speed>
  <fix>3d</fix>
</trkpt>
<trkpt lat="-27.2646122" lon="151.2899184">
  <ele>363.2</ele>
  <time>2026-09-01T19:57:51Z</time>
  <course>180.08</course>
  <speed>25.42</speed>
  <fix>3d</fix>
</trkpt>
<trkpt lat="-27.2646993" lon="151.289918">
  <ele>363.07</ele>
  <time>2026-09-01T19:57:51Z</time>
  <course>180.67</course>
  <speed>25.340096684898423</speed>
  <fix>3d</fix>
</trkpt>
<trkpt lat="-27.2646578" lon="151.2899183">
  <ele>363.2</ele>
  <time>2026-09-01T19:57:51Z</time>
  <course>180.09</course>
  <speed>25.43</speed>
  <fix>3d</fix>
</trkpt>
<trkpt lat="-27.2647221" lon="151.289918">
  <ele>363.07</ele>
  <time>2026-09-01T19:57:51Z</time>
  <course>180.66</course>
  <speed>25.340096684898423</speed>
  <fix>3d</fix>
</trkpt>
<trkpt lat="-27.2646578" lon="151.2899183">
  <ele>363.2</ele>
  <time>2026-09-01T19:57:51Z</time>
  <course>180.09</course>
  <speed>25.43</speed>
  <fix>3d</fix>
</trkpt>
<trkpt lat="-27.2647449" lon="151.2899179">
  <ele>363.07</ele>
  <time>2026-09-01T19:57:51Z</time>
  <course>180.63</course>
  <speed>25.35009664675857</speed>
  <fix>3d</fix>
</trkpt>
<trkpt lat="-27.2647035" lon="151.2899182">
  <ele>363.2</ele>
  <time>2026-09-01T19:57:51Z</time>
  <course>180.1</course>
  <speed>25.43</speed>
  <fix>3d</fix>
</trkpt>
<trkpt lat="-27.2647678" lon="151.2899179">
  <ele>363.07</ele>
  <time>2026-09-01T19:57:51Z</time>
  <course>180.62</course>
  <speed>25.35009664675857</speed>
  <fix>3d</fix>
</trkpt>
<trkpt lat="-27.2647035" lon="151.2899182">
  <ele>363.2</ele>
  <time>2026-09-01T19:57:51Z</time>
  <course>180.1</course>
  <speed>25.43</speed>
  <fix>3d</fix>
</trkpt>
<trkpt lat="-27.2647905" lon="151.2899178">
  <ele>363.07</ele>
  <time>2026-09-01T19:57:51Z</time>
  <course>180.61</course>
  <speed>25.350071005817718</speed>
  <fix>3d</fix>
</trkpt>
<trkpt lat="-27.2647492" lon="151.2899181">
  <ele>363.2</ele>
  <time>2026-09-01T19:57:51Z</time>
  <course>180.1</course>
  <speed>25.43</speed>
  <fix>3d</fix>
</trkpt>
<trkpt lat="-27.2648133" lon="151.2899178">
  <ele>363.08</ele>
  <time>2026-09-01T19:57:51Z</time>
  <course>180.62</course>
  <speed>25.350071005817718</speed>
  <fix>3d</fix>
</trkpt>
<trkpt lat="-27.2647492" lon="151.2899181">
  <ele>363.2</ele>
  <time>2026-09-01T19:57:51Z</time>
  <course>180.1</course>
  <speed>25.43</speed>
  <fix>3d</fix>
</trkpt>
<trkpt lat="-27.2648362" lon="151.2899178">
  <ele>363.08</ele>
  <time>2026-09-01T19:57:51Z</time>
  <course>180.62</course>
  <speed>25.350071005817718</speed>
  <fix>3d</fix>
</trkpt>
<trkpt lat="-27.2647949" lon="151.2899181">
  <ele>363.2</ele>
  <time>2026-09-01T19:57:51Z</time>
  <course>180.09</course>
  <speed>25.42</speed>
  <fix>3d</fix>
</trkpt>
<trkpt lat="-27.264859" lon="151.2899177">
  <ele>363.08</ele>
  <time>2026-09-01T19:57:51Z</time>
  <course>180.64</course>
  <speed>25.35004930961674</speed>
  <fix>3d</fix>
</trkpt>
<trkpt lat="-27.2647949" lon="151.2899181">
  <ele>363.2</ele>
  <time>2026-09-01T19:57:51Z</time>
  <course>180.09</course>
  <speed>25.42</speed>
  <fix>3d</fix>
</trkpt>
<trkpt lat="-27.2648821" lon="151.2899177">
  <ele>363.09</ele>
  <time>2026-09-01T19:57:51Z</time>
  <course>180.62</course>
  <speed>25.35004930961674</speed>
  <fix>3d</fix>
</trkpt>
<trkpt lat="-27.2648405" lon="151.289918">
  <ele>363.21</ele>
  <time>2026-09-01T19:57:51Z</time>
  <course>180.07</course>
  <speed>25.42</speed>
  <fix>3d</fix>
</trkpt>
<trkpt lat="-27.2649049" lon="151.2899177">
  <ele>363.09</ele>
  <time>2026-09-01T19:57:51Z</time>
  <course>180.6</course>
  <speed>25.35004930961674</speed>
  <fix>3d</fix>
</trkpt>
<trkpt lat="-27.2648405" lon="151.289918">
  <ele>363.21</ele>
  <time>2026-09-01T19:57:51Z</time>
  <course>180.07</course>
  <speed>25.42</speed>
  <fix>3d</fix>
</trkpt>
<trkpt lat="-27.2649278" lon="151.2899177">
  <ele>363.09</ele>
  <time>2026-09-01T19:57:51Z</time>
  <course>180.59</course>
  <speed>25.35003155816576</speed>
  <fix>3d</fix>
</trkpt>
<trkpt lat="-27.2648862" lon="151.2899179">
  <ele>363.22</ele>
  <time>2026-09-01T19:57:51Z</time>
  <course>180.06</course>
  <speed>25.41</speed>
  <fix>3d</fix>
</trkpt>
<trkpt lat="-27.2649514" lon="151.2899176">
  <ele>363.1</ele>
  <time>2026-09-01T19:57:51Z</time>
  <course>180.58</course>
  <speed>25.35003155816576</speed>
  <fix>3d</fix>
</trkpt>
<trkpt lat="-27.2648862" lon="151.2899179">
  <ele>363.22</ele>
  <time>2026-09-01T19:57:51Z</time>
  <course>180.06</course>
  <speed>25.41</speed>
  <fix>3d</fix>
</trkpt>
<trkpt lat="-27.2649741" lon="151.2899176">
  <ele>363.1</ele>
  <time>2026-09-01T19:57:51Z</time>
  <course>180.58</course>
  <speed>25.36001774447329</speed>
  <fix>3d</fix>
</trkpt>
<trkpt lat="-27.2649319" lon="151.2899179">
  <ele>363.22</ele>
  <time>2026-09-01T19:57:51Z</time>
  <course>180.04</course>
  <speed>25.4</speed>
  <fix>3d</fix>
</trkpt>
<trkpt lat="-27.264997" lon="151.2899176">
  <ele>363.1</ele>
  <time>2026-09-01T19:57:51Z</time>
  <course>180.53</course>
  <speed>25.36001774447329</speed>
  <fix>3d</fix>
</trkpt>
<trkpt lat="-27.2649319" lon="151.2899179">
  <ele>363.22</ele>
  <time>2026-09-01T19:57:51Z</time>
  <course>180.04</course>
  <speed>25.4</speed>
  <fix>3d</fix>
</trkpt>
<trkpt lat="-27.2650198" lon="151.2899176">
  <ele>363.1</ele>
  <time>2026-09-01T19:57:51Z</time>
  <course>180.49</course>
  <speed>25.360007886434104</speed>
  <fix>3d</fix>
</trkpt>
<trkpt lat="-27.2649776" lon="151.2899179">
  <ele>363.23</ele>
  <time>2026-09-01T19:57:51Z</time>
  <course>180.03</course>
  <speed>25.4</speed>
  <fix>3d</fix>
</trkpt>
<trkpt lat="-27.2650427" lon="151.2899176">
  <ele>363.1</ele>
  <time>2026-09-01T19:57:51Z</time>
  <course>180.46</course>
  <speed>25.360001971608757</speed>
  <fix>3d</fix>
</trkpt>
<trkpt lat="-27.2649776" lon="151.2899179">
  <ele>363.23</ele>
  <time>2026-09-01T19:57:51Z</time>
  <course>180.03</course>
  <speed>25.4</speed>
  <fix>3d</fix>
</trkpt>
<trkpt lat="-27.2650656" lon="151.2899176">
  <ele>363.1</ele>
  <time>2026-09-01T19:57:51Z</time>
  <course>180.46</course>
  <speed>25.37</speed>
  <fix>3d</fix>
</trkpt>
<trkpt lat="-27.2650233" lon="151.2899179">
  <ele>363.23</ele>
  <time>2026-09-01T19:57:51Z</time>
  <course>180.0</course>
  <speed>25.4</speed>
  <fix>3d</fix>
</trkpt>
<trkpt lat="-27.2650886" lon="151.2899176">
  <ele>363.1</ele>
  <time>2026-09-01T19:57:51Z</time>
  <course>180.53</course>
  <speed>25.37</speed>
  <fix>3d</fix>
</trkpt>
<trkpt lat="-27.2650233" lon="151.2899179">
  <ele>363.23</ele>
  <time>2026-09-01T19:57:51Z</time>
  <course>180.0</course>
  <speed>25.4</speed>
  <fix>3d</fix>
</trkpt>
<trkpt lat="-27.2651115" lon="151.2899176">
  <ele>363.1</ele>
  <time>2026-09-01T19:57:51Z</time>
  <course>180.52</course>
  <speed>25.37</speed>
  <fix>3d</fix>
</trkpt>
<trkpt lat="-27.2650689" lon="151.2899179">
  <ele>363.24</ele>
  <time>2026-09-01T19:57:51Z</time>
  <course>179.96</course>
  <speed>25.4</speed>
  <fix>3d</fix>
</trkpt>
<trkpt lat="-27.2651344" lon="151.2899176">
  <ele>363.1</ele>
  <time>2026-09-01T19:57:51Z</time>
  <course>180.49</course>
  <speed>25.38</speed>
  <fix>3d</fix>
</trkpt>
<trkpt lat="-27.2650689" lon="151.2899179">
  <ele>363.24</ele>
  <time>2026-09-01T19:57:51Z</time>
  <course>179.96</course>
  <speed>25.4</speed>
  <fix>3d</fix>
</trkpt>
<trkpt lat="-27.2651573" lon="151.2899176">
  <ele>363.11</ele>
  <time>2026-09-01T19:57:51Z</time>
  <course>180.51</course>
  <speed>25.37</speed>
  <fix>3d</fix>
</trkpt>
<trkpt lat="-27.2651145" lon="151.2899179">
  <ele>363.24</ele>
  <time>2026-09-01T19:57:51Z</time>
  <course>179.95</course>
  <speed>25.4</speed>
  <fix>3d</fix>
</trkpt>
<trkpt lat="-27.2651801" lon="151.2899177">
  <ele>363.11</ele>
  <time>2026-09-01T19:57:51Z</time>
  <course>180.52</course>
  <speed>25.38</speed>
  <fix>3d</fix>
</trkpt>
<trkpt lat="-27.2651145" lon="151.2899179">
  <ele>363.24</ele>
  <time>2026-09-01T19:57:51Z</time>
  <course>179.95</course>
  <speed>25.4</speed>
  <fix>3d</fix>
</trkpt>
<trkpt lat="-27.265203" lon="151.2899177">
  <ele>363.11</ele>
  <time>2026-09-01T19:57:51Z</time>
  <course>180.5</course>
  <speed>25.38</speed>
  <fix>3d</fix>
</trkpt>
<trkpt lat="-27.2651601" lon="151.2899179">
  <ele>363.24</ele>
  <time>2026-09-01T19:57:51Z</time>
  <course>179.95</course>
  <speed>25.39</speed>
  <fix>3d</fix>
</trkpt>
<trkpt lat="-27.2652259" lon="151.2899177">
  <ele>363.11</ele>
  <time>2026-09-01T19:57:51Z</time>
  <course>180.48</course>
  <speed>25.38</speed>
  <fix>3d</fix>
</trkpt>
<trkpt lat="-27.2651601" lon="151.2899179">
  <ele>363.24</ele>
  <time>2026-09-01T19:57:51Z</time>
  <course>179.95</course>
  <speed>25.39</speed>
  <fix>3d</fix>
</trkpt>
<trkpt lat="-27.2652488" lon="151.2899177">
  <ele>363.11</ele>
  <time>2026-09-01T19:57:51Z</time>
  <course>180.47</course>
  <speed>25.39</speed>
  <fix>3d</fix>
</trkpt>
<trkpt lat="-27.2652057" lon="151.2899179">
  <ele>363.25</ele>
  <time>2026-09-01T19:57:51Z</time>
  <course>179.95</course>
  <speed>25.39</speed>
  <fix>3d</fix>
</trkpt>
<trkpt lat="-27.2652717" lon="151.2899177">
  <ele>363.1</ele>
  <time>2026-09-01T19:57:51Z</time>
  <course>180.45</course>
  <speed>25.39</speed>
  <fix>3d</fix>
</trkpt>
<trkpt lat="-27.2652057" lon="151.2899179">
  <ele>363.25</ele>
  <time>2026-09-01T19:57:51Z</time>
  <course>179.95</course>
  <speed>25.39</speed>
  <fix>3d</fix>
</trkpt>
<trkpt lat="-27.2652946" lon="151.2899177">
  <ele>363.1</ele>
  <time>2026-09-01T19:57:51Z</time>
  <course>180.44</course>
  <speed>25.4</speed>
  <fix>3d</fix>
</trkpt>
<trkpt lat="-27.2652514" lon="151.2899179">
  <ele>363.25</ele>
  <time>2026-09-01T19:57:51Z</time>
  <course>179.95</course>
  <speed>25.39</speed>
  <fix>3d</fix>
</trkpt>
<trkpt lat="-27.2653175" lon="151.2899177">
  <ele>363.09</ele>
  <time>2026-09-01T19:57:51Z</time>
  <course>180.49</course>
  <speed>25.4</speed>
  <fix>3d</fix>
</trkpt>
<trkpt lat="-27.2652514" lon="151.2899179">
  <ele>363.25</ele>
  <time>2026-09-01T19:57:51Z</time>
  <course>179.95</course>
  <speed>25.39</speed>
  <fix>3d</fix>
</trkpt>
<trkpt lat="-27.2653396" lon="151.2899178">
  <ele>363.09</ele>
  <time>2026-09-01T19:57:51Z</time>
  <course>180.48</course>
  <speed>25.41</speed>
  <fix>3d</fix>
</trkpt>
<trkpt lat="-27.265297" lon="151.289918">
  <ele>363.24</ele>
  <time>2026-09-01T19:57:51Z</time>
  <course>179.95</course>
  <speed>25.39</speed>
  <fix>3d</fix>
</trkpt>
<trkpt lat="-27.2653627" lon="151.2899178">
  <ele>363.09</ele>
  <time>2026-09-01T19:57:51Z</time>
  <course>180.49</course>
  <speed>25.4</speed>
  <fix>3d</fix>
</trkpt>
<trkpt lat="-27.265297" lon="151.289918">
  <ele>363.24</ele>
  <time>2026-09-01T19:57:51Z</time>
  <course>179.95</course>
  <speed>25.39</speed>
  <fix>3d</fix>
</trkpt>
<trkpt lat="-27.2653855" lon="151.2899178">
  <ele>363.09</ele>
  <time>2026-09-01T19:57:51Z</time>
  <course>180.47</course>
  <speed>25.4</speed>
  <fix>3d</fix>
</trkpt>
<trkpt lat="-27.2653426" lon="151.289918">
  <ele>363.24</ele>
  <time>2026-09-01T19:57:51Z</time>
  <course>179.95</course>
  <speed>25.39</speed>
  <fix>3d</fix>
</trkpt>
<trkpt lat="-27.2654084" lon="151.2899178">
  <ele>363.09</ele>
  <time>2026-09-01T19:57:51Z</time>
  <course>180.46</course>
  <speed>25.4</speed>
  <fix>3d</fix>
</trkpt>
<trkpt lat="-27.2653426" lon="151.289918">
  <ele>363.24</ele>
  <time>2026-09-01T19:57:51Z</time>
  <course>179.95</course>
  <speed>25.39</speed>
  <fix>3d</fix>
</trkpt>
<trkpt lat="-27.265432" lon="151.2899178">
  <ele>363.09</ele>
  <time>2026-09-01T19:57:51Z</time>
  <course>180.48</course>
  <speed>25.4</speed>
  <fix>3d</fix>
</trkpt>
<trkpt lat="-27.2653882" lon="151.289918">
  <ele>363.24</ele>
  <time>2026-09-01T19:57:51Z</time>
  <course>179.95</course>
  <speed>25.39</speed>
  <fix>3d</fix>
</trkpt>
<trkpt lat="-27.2654547" lon="151.2899178">
  <ele>363.09</ele>
  <time>2026-09-01T19:57:51Z</time>
  <course>180.47</course>
  <speed>25.4</speed>
  <fix>3d</fix>
</trkpt>
<trkpt lat="-27.2653882" lon="151.289918">
  <ele>363.24</ele>
  <time>2026-09-01T19:57:51Z</time>
  <course>179.95</course>
  <speed>25.39</speed>
  <fix>3d</fix>
</trkpt>
<trkpt lat="-27.2654775" lon="151.2899179">
  <ele>363.09</ele>
  <time>2026-09-01T19:57:51Z</time>
  <course>180.47</course>
  <speed>25.4</speed>
  <fix>3d</fix>
</trkpt>
<trkpt lat="-27.2654339" lon="151.2899181">
  <ele>363.24</ele>
  <time>2026-09-01T19:57:51Z</time>
  <course>179.94</course>
  <speed>25.39</speed>
  <fix>3d</fix>
</trkpt>
<trkpt lat="-27.2655003" lon="151.2899179">
  <ele>363.09</ele>
  <time>2026-09-01T19:57:51Z</time>
  <course>180.52</course>
  <speed>25.40000196850386</speed>
  <fix>3d</fix>
</trkpt>
<trkpt lat="-27.2654339" lon="151.2899181">
  <ele>363.24</ele>
  <time>2026-09-01T19:57:51Z</time>
  <course>179.94</course>
  <speed>25.39</speed>
  <fix>3d</fix>
</trkpt>
<trkpt lat="-27.2655232" lon="151.2899179">
  <ele>363.1</ele>
  <time>2026-09-01T19:57:51Z</time>
  <course>180.52</course>
  <speed>25.40000196850386</speed>
  <fix>3d</fix>
</trkpt>
<trkpt lat="-27.2654796" lon="151.2899181">
  <ele>363.24</ele>
  <time>2026-09-01T19:57:51Z</time>
  <course>179.95</course>
  <speed>25.38</speed>
  <fix>3d</fix>
</trkpt>
<trkpt lat="-27.2655462" lon="151.2899179">
  <ele>363.1</ele>
  <time>2026-09-01T19:57:51Z</time>
  <course>180.44</course>
  <speed>25.400007874014527</speed>
  <fix>3d</fix>
</trkpt>
<trkpt lat="-27.2654796" lon="151.2899181">
  <ele>363.24</ele>
  <time>2026-09-01T19:57:51Z</time>
  <course>179.95</course>
  <speed>25.38</speed>
  <fix>3d</fix>
</trkpt>
<trkpt lat="-27.265569" lon="151.2899179">
  <ele>363.11</ele>
  <time>2026-09-01T19:57:51Z</time>
  <course>180.46</course>
  <speed>25.400007874014527</speed>
  <fix>3d</fix>
</trkpt>
<trkpt lat="-27.2655252" lon="151.2899182">
  <ele>363.24</ele>
  <time>2026-09-01T19:57:51Z</time>
  <course>179.97</course>
  <speed>25.38</speed>
  <fix>3d</fix>
</trkpt>
<trkpt lat="-27.2655918" lon="151.2899179">
  <ele>363.11</ele>
  <time>2026-09-01T19:57:51Z</time>
  <course>180.53</course>
  <speed>25.400007874014527</speed>
  <fix>3d</fix>
</trkpt>
<trkpt lat="-27.2655252" lon="151.2899182">
  <ele>363.24</ele>
  <time>2026-09-01T19:57:51Z</time>
  <course>179.97</course>
  <speed>25.38</speed>
  <fix>3d</fix>
</trkpt>
<trkpt lat="-27.2656147" lon="151.2899179">
  <ele>363.12</ele>
  <time>2026-09-01T19:57:51Z</time>
  <course>180.59</course>
  <speed>25.400007874014527</speed>
  <fix>3d</fix>
</trkpt>
<trkpt lat="-27.2655707" lon="151.2899182">
  <ele>363.24</ele>
  <time>2026-09-01T19:57:51Z</time>
  <course>179.98</course>
  <speed>25.38</speed>
  <fix>3d</fix>
</trkpt>
<trkpt lat="-27.2656375" lon="151.2899179">
  <ele>363.12</ele>
  <time>2026-09-01T19:57:51Z</time>
  <course>180.6</course>
  <speed>25.400017716529256</speed>
  <fix>3d</fix>
</trkpt>
<trkpt lat="-27.2655707" lon="151.2899182">
  <ele>363.24</ele>
  <time>2026-09-01T19:57:51Z</time>
  <course>179.98</course>
  <speed>25.38</speed>
  <fix>3d</fix>
</trkpt>
<trkpt lat="-27.2656603" lon="151.2899179">
  <ele>363.13</ele>
  <time>2026-09-01T19:57:51Z</time>
  <course>180.61</course>
  <speed>25.400017716529256</speed>
  <fix>3d</fix>
</trkpt>
<trkpt lat="-27.2656163" lon="151.2899182">
  <ele>363.25</ele>
  <time>2026-09-01T19:57:51Z</time>
  <course>179.99</course>
  <speed>25.38</speed>
  <fix>3d</fix>
</trkpt>
<trkpt lat="-27.2656831" lon="151.2899179">
  <ele>363.13</ele>
  <time>2026-09-01T19:57:51Z</time>
  <course>180.56</course>
  <speed>25.390031508448352</speed>
  <fix>3d</fix>
</trkpt>
<trkpt lat="-27.2656163" lon="151.2899182">
  <ele>363.25</ele>
  <time>2026-09-01T19:57:51Z</time>
  <course>179.99</course>
  <speed>25.38</speed>
  <fix>3d</fix>
</trkpt>
<trkpt lat="-27.2657059" lon="151.2899179">
  <ele>363.13</ele>
  <time>2026-09-01T19:57:51Z</time>
  <course>180.55</course>
  <speed>25.390031508448352</speed>
  <fix>3d</fix>
</trkpt>
<trkpt lat="-27.2656619" lon="151.2899182">
  <ele>363.25</ele>
  <time>2026-09-01T19:57:51Z</time>
  <course>180.02</course>
  <speed>25.37</speed>
  <fix>3d</fix>
</trkpt>
<trkpt lat="-27.2657287" lon="151.2899179">
  <ele>363.14</ele>
  <time>2026-09-01T19:57:51Z</time>
  <course>180.51</course>
  <speed>25.39004923193336</speed>
  <fix>3d</fix>
</trkpt>
<trkpt lat="-27.2656619" lon="151.2899182">
  <ele>363.25</ele>
  <time>2026-09-01T19:57:51Z</time>
  <course>180.02</course>
  <speed>25.37</speed>
  <fix>3d</fix>
</trkpt>
<trkpt lat="-27.2657515" lon="151.2899179">
  <ele>363.14</ele>
  <time>2026-09-01T19:57:51Z</time>
  <course>180.56</course>
  <speed>25.400031496043468</speed>
  <fix>3d</fix>
</trkpt>
<trkpt lat="-27.2657075" lon="151.2899182">
  <ele>363.26</ele>
  <time>2026-09-01T19:57:51Z</time>
  <course>180.04</course>
  <speed>25.37</speed>
  <fix>3d</fix>
</trkpt>
<trkpt lat="-27.2657743" lon="151.2899179">
  <ele>363.15</ele>
  <time>2026-09-01T19:57:51Z</time>
  <course>180.63</course>
  <speed>25.40004921255075</speed>
  <fix>3d</fix>
</trkpt>
<trkpt lat="-27.2657075" lon="151.2899182">
  <ele>363.26</ele>
  <time>2026-09-01T19:57:51Z</time>
  <course>180.04</course>
  <speed>25.37</speed>
  <fix>3d</fix>
</trkpt>
<trkpt lat="-27.2657971" lon="151.2899179">
  <ele>363.15</ele>
  <time>2026-09-01T19:57:51Z</time>
  <course>180.63</course>
  <speed>25.39004923193336</speed>
  <fix>3d</fix>
</trkpt>
<trkpt lat="-27.2657531" lon="151.2899182">
  <ele>363.26</ele>
  <time>2026-09-01T19:57:51Z</time>
  <course>180.04</course>
  <speed>25.37</speed>
  <fix>3d</fix>
</trkpt>
<trkpt lat="-27.2658199" lon="151.2899178">
  <ele>363.15</ele>
  <time>2026-09-01T19:57:51Z</time>
  <course>180.64</course>
  <speed>25.39004923193336</speed>
  <fix>3d</fix>
</trkpt>
<trkpt lat="-27.2657531" lon="151.2899182">
  <ele>363.26</ele>
  <time>2026-09-01T19:57:51Z</time>
  <course>180.04</course>
  <speed>25.37</speed>
  <fix>3d</fix>
</trkpt>
<trkpt lat="-27.2658427" lon="151.2899178">
  <ele>363.15</ele>
  <time>2026-09-01T19:57:51Z</time>
  <course>180.57</course>
  <speed>25.40004921255075</speed>
  <fix>3d</fix>
</trkpt>
<trkpt lat="-27.2657986" lon="151.2899182">
  <ele>363.27</ele>
  <time>2026-09-01T19:57:51Z</time>
  <course>180.05</course>
  <speed>25.37</speed>
  <fix>3d</fix>
</trkpt>
<trkpt lat="-27.2658655" lon="151.2899178">
  <ele>363.14</ele>
  <time>2026-09-01T19:57:51Z</time>
  <course>180.56</course>
  <speed>25.40004921255075</speed>
  <fix>3d</fix>
</trkpt>
<trkpt lat="-27.2657986" lon="151.2899182">
  <ele>363.27</ele>
  <time>2026-09-01T19:57:51Z</time>
  <course>180.05</course>
  <speed>25.37</speed>
  <fix>3d</fix>
</trkpt>
<trkpt lat="-27.2658883" lon="151.2899178">
  <ele>363.14</ele>
  <time>2026-09-01T19:57:51Z</time>
  <course>180.68</course>
  <speed>25.400070866042874</speed>
  <fix>3d</fix>
</trkpt>
<trkpt lat="-27.2658442" lon="151.2899181">
  <ele>363.27</ele>
  <time>2026-09-01T19:57:51Z</time>
  <course>180.06</course>
  <speed>25.38</speed>
  <fix>3d</fix>
</trkpt>
<trkpt lat="-27.2659112" lon="151.2899177">
  <ele>363.15</ele>
  <time>2026-09-01T19:57:51Z</time>
  <course>180.67</course>
  <speed>25.410070838153914</speed>
  <fix>3d</fix>
</trkpt>
<trkpt lat="-27.2658442" lon="151.2899181">
  <ele>363.27</ele>
  <time>2026-09-01T19:57:51Z</time>
  <course>180.06</course>
  <speed>25.38</speed>
  <fix>3d</fix>
</trkpt>
<trkpt lat="-27.265934" lon="151.2899177">
  <ele>363.14</ele>
  <time>2026-09-01T19:57:51Z</time>
  <course>180.59</course>
  <speed>25.410070838153914</speed>
  <fix>3d</fix>
</trkpt>
<trkpt lat="-27.2658899" lon="151.289918">
  <ele>363.26</ele>
  <time>2026-09-01T19:57:51Z</time>
  <course>180.07</course>
  <speed>25.38</speed>
  <fix>3d</fix>
</trkpt>
<trkpt lat="-27.2659568" lon="151.2899177">
  <ele>363.14</ele>
  <time>2026-09-01T19:57:51Z</time>
  <course>180.59</course>
  <speed>25.410070838153914</speed>
  <fix>3d</fix>
</trkpt>
<trkpt lat="-27.2658899" lon="151.289918">
  <ele>363.26</ele>
  <time>2026-09-01T19:57:51Z</time>
  <course>180.07</course>
  <speed>25.38</speed>
  <fix>3d</fix>
</trkpt>
<trkpt lat="-27.2659796" lon="151.2899176">
  <ele>363.14</ele>
  <time>2026-09-01T19:57:51Z</time>
  <course>180.61</course>
  <speed>25.410096418549852</speed>
  <fix>3d</fix>
</trkpt>
<trkpt lat="-27.2659356" lon="151.289918">
  <ele>363.26</ele>
  <time>2026-09-01T19:57:51Z</time>
  <course>180.09</course>
  <speed>25.39</speed>
  <fix>3d</fix>
</trkpt>
<trkpt lat="-27.2660024" lon="151.2899176">
  <ele>363.14</ele>
  <time>2026-09-01T19:57:51Z</time>
  <course>180.59</course>
  <speed>25.410096418549852</speed>
  <fix>3d</fix>
</trkpt>
<trkpt lat="-27.2659356" lon="151.289918">
  <ele>363.26</ele>
  <time>2026-09-01T19:57:51Z</time>
  <course>180.09</course>
  <speed>25.39</speed>
  <fix>3d</fix>
</trkpt>
<trkpt lat="-27.2660254" lon="151.2899175">
  <ele>363.14</ele>
  <time>2026-09-01T19:57:51Z</time>
  <course>180.63</course>
  <speed>25.410096418549852</speed>
  <fix>3d</fix>
</trkpt>
<trkpt lat="-27.2659812" lon="151.2899179">
  <ele>363.25</ele>
  <time>2026-09-01T19:57:51Z</time>
  <course>180.11</course>
  <speed>25.39</speed>
  <fix>3d</fix>
</trkpt>
<trkpt lat="-27.2660482" lon="151.2899175">
  <ele>363.13</ele>
  <time>2026-09-01T19:57:51Z</time>
  <course>180.66</course>
  <speed>25.410096418549852</speed>
  <fix>3d</fix>
</trkpt>
<trkpt lat="-27.2659812" lon="151.2899179">
  <ele>363.25</ele>
  <time>2026-09-01T19:57:51Z</time>
  <course>180.11</course>
  <speed>25.39</speed>
  <fix>3d</fix>
</trkpt>
<trkpt lat="-27.266071" lon="151.2899174">
  <ele>363.13</ele>
  <time>2026-09-01T19:57:51Z</time>
  <course>180.66</course>
  <speed>25.410125934359318</speed>
  <fix>3d</fix>
</trkpt>
<trkpt lat="-27.2660268" lon="151.2899178">
  <ele>363.25</ele>
  <time>2026-09-01T19:57:51Z</time>
  <course>180.12</course>
  <speed>25.39</speed>
  <fix>3d</fix>
</trkpt>
<trkpt lat="-27.2660939" lon="151.2899174">
  <ele>363.13</ele>
  <time>2026-09-01T19:57:51Z</time>
  <course>180.65</course>
  <speed>25.400125983939528</speed>
  <fix>3d</fix>
</trkpt>
<trkpt lat="-27.2660268" lon="151.2899178">
  <ele>363.25</ele>
  <time>2026-09-01T19:57:51Z</time>
  <course>180.12</course>
  <speed>25.39</speed>
  <fix>3d</fix>
</trkpt>
<trkpt lat="-27.2661166" lon="151.2899173">
  <ele>363.12</ele>
  <time>2026-09-01T19:57:51Z</time>
  <course>180.67</course>
  <speed>25.400125983939528</speed>
  <fix>3d</fix>
</trkpt>
<trkpt lat="-27.2660724" lon="151.2899177">
  <ele>363.24</ele>
  <time>2026-09-01T19:57:51Z</time>
  <course>180.12</course>
  <speed>25.4</speed>
  <fix>3d</fix>
</trkpt>
<trkpt lat="-27.2661395" lon="151.2899173">
  <ele>363.12</ele>
  <time>2026-09-01T19:57:51Z</time>
  <course>180.68</course>
  <speed>25.410125934359318</speed>
  <fix>3d</fix>
</trkpt>
<trkpt lat="-27.2660724" lon="151.2899177">
  <ele>363.24</ele>
  <time>2026-09-01T19:57:51Z</time>
  <course>180.12</course>
  <speed>25.4</speed>
  <fix>3d</fix>
</trkpt>
<trkpt lat="-27.2661623" lon="151.2899172">
  <ele>363.11</ele>
  <time>2026-09-01T19:57:51Z</time>
  <course>180.65</course>
  <speed>25.410125934359318</speed>
  <fix>3d</fix>
</trkpt>
<trkpt lat="-27.2661181" lon="151.2899175">
  <ele>363.23</ele>
  <time>2026-09-01T19:57:51Z</time>
  <course>180.13</course>
  <speed>25.4</speed>
  <fix>3d</fix>
</trkpt>
<trkpt lat="-27.2661851" lon="151.2899171">
  <ele>363.1</ele>
  <time>2026-09-01T19:57:51Z</time>
  <course>180.67</course>
  <speed>25.420125884818116</speed>
  <fix>3d</fix>
</trkpt>
<trkpt lat="-27.2661181" lon="151.2899175">
  <ele>363.23</ele>
  <time>2026-09-01T19:57:51Z</time>
  <course>180.13</course>
  <speed>25.4</speed>
  <fix>3d</fix>
</trkpt>
<trkpt lat="-27.2662079" lon="151.2899171">
  <ele>363.09</ele>
  <time>2026-09-01T19:57:51Z</time>
  <course>180.69</course>
  <speed>25.420125884818116</speed>
  <fix>3d</fix>
</trkpt>
<trkpt lat="-27.2661637" lon="151.2899174">
  <ele>363.22</ele>
  <time>2026-09-01T19:57:51Z</time>
  <course>180.13</course>
  <speed>25.41</speed>
  <fix>3d</fix>
</trkpt>
<trkpt lat="-27.2662307" lon="151.289917">
  <ele>363.08</ele>
  <time>2026-09-01T19:57:51Z</time>
  <course>180.69</course>
  <speed>25.420125884818116</speed>
  <fix>3d</fix>
</trkpt>
<trkpt lat="-27.2661637" lon="151.2899174">
  <ele>363.22</ele>
  <time>2026-09-01T19:57:51Z</time>
  <course>180.13</course>
  <speed>25.41</speed>
  <fix>3d</fix>
</trkpt>
<trkpt lat="-27.2662535" lon="151.289917">
  <ele>363.07</ele>
  <time>2026-09-01T19:57:51Z</time>
  <course>180.65</course>
  <speed>25.420125884818116</speed>
  <fix>3d</fix>
</trkpt>
<trkpt lat="-27.2662093" lon="151.2899173">
  <ele>363.21</ele>
  <time>2026-09-01T19:57:51Z</time>
  <course>180.13</course>
  <speed>25.42</speed>
  <fix>3d</fix>
</trkpt>
<trkpt lat="-27.2662764" lon="151.2899169">
  <ele>363.07</ele>
  <time>2026-09-01T19:57:51Z</time>
  <course>180.59</course>
  <speed>25.430096342719583</speed>
  <fix>3d</fix>
</trkpt>
<trkpt lat="-27.2662093" lon="151.2899173">
  <ele>363.21</ele>
  <time>2026-09-01T19:57:51Z</time>
  <course>180.13</course>
  <speed>25.42</speed>
  <fix>3d</fix>
</trkpt>
<trkpt lat="-27.2662992" lon="151.2899169">
  <ele>363.06</ele>
  <time>2026-09-01T19:57:51Z</time>
  <course>180.57</course>
  <speed>25.420096380619803</speed>
  <fix>3d</fix>
</trkpt>
<trkpt lat="-27.266255" lon="151.2899172">
  <ele>363.19</ele>
  <time>2026-09-01T19:57:51Z</time>
  <course>180.12</course>
  <speed>25.42</speed>
  <fix>3d</fix>
</trkpt>
<trkpt lat="-27.266322" lon="151.2899168">
  <ele>363.06</ele>
  <time>2026-09-01T19:57:51Z</time>
  <course>180.58</course>
  <speed>25.4300707824418</speed>
  <fix>3d</fix>
</trkpt>
<trkpt lat="-27.266255" lon="151.2899172">
  <ele>363.19</ele>
  <time>2026-09-01T19:57:51Z</time>
  <course>180.12</course>
  <speed>25.42</speed>
  <fix>3d</fix>
</trkpt>
<trkpt lat="-27.2663448" lon="151.2899168">
  <ele>363.06</ele>
  <time>2026-09-01T19:57:51Z</time>
  <course>180.62</course>
  <speed>25.420070810286898</speed>
  <fix>3d</fix>
</trkpt>
<trkpt lat="-27.2663006" lon="151.2899171">
  <ele>363.18</ele>
  <time>2026-09-01T19:57:51Z</time>
  <course>180.1</course>
  <speed>25.43</speed>
  <fix>3d</fix>
</trkpt>
<trkpt lat="-27.2663677" lon="151.2899167">
  <ele>363.06</ele>
  <time>2026-09-01T19:57:51Z</time>
  <course>180.67</course>
  <speed>25.420070810286898</speed>
  <fix>3d</fix>
</trkpt>
<trkpt lat="-27.2663006" lon="151.2899171">
  <ele>363.18</ele>
  <time>2026-09-01T19:57:51Z</time>
  <course>180.1</course>
  <speed>25.43</speed>
  <fix>3d</fix>
</trkpt>
<trkpt lat="-27.2663905" lon="151.2899167">
  <ele>363.06</ele>
  <time>2026-09-01T19:57:51Z</time>
  <course>180.67</course>
  <speed>25.420096380619803</speed>
  <fix>3d</fix>
</trkpt>
<trkpt lat="-27.2663463" lon="151.289917">
  <ele>363.17</ele>
  <time>2026-09-01T19:57:51Z</time>
  <course>180.08</course>
  <speed>25.43</speed>
  <fix>3d</fix>
</trkpt>
<trkpt lat="-27.2664133" lon="151.2899167">
  <ele>363.06</ele>
  <time>2026-09-01T19:57:51Z</time>
  <course>180.61</course>
  <speed>25.420096380619803</speed>
  <fix>3d</fix>
</trkpt>
<trkpt lat="-27.2663463" lon="151.289917">
  <ele>363.17</ele>
  <time>2026-09-01T19:57:51Z</time>
  <course>180.08</course>
  <speed>25.43</speed>
  <fix>3d</fix>
</trkpt>
<trkpt lat="-27.2664362" lon="151.2899166">
  <ele>363.06</ele>
  <time>2026-09-01T19:57:51Z</time>
  <course>180.6</course>
  <speed>25.420096380619803</speed>
  <fix>3d</fix>
</trkpt>
<trkpt lat="-27.2663921" lon="151.2899169">
  <ele>363.17</ele>
  <time>2026-09-01T19:57:51Z</time>
  <course>180.09</course>
  <speed>25.43</speed>
  <fix>3d</fix>
</trkpt>
<trkpt lat="-27.266459" lon="151.2899166">
  <ele>363.06</ele>
  <time>2026-09-01T19:57:52Z</time>
  <course>180.67</course>
  <speed>25.420096380619803</speed>
  <fix>3d</fix>
</trkpt>
<trkpt lat="-27.2663921" lon="151.2899169">
  <ele>363.17</ele>
  <time>2026-09-01T19:57:52Z</time>
  <course>180.09</course>
  <speed>25.43</speed>
  <fix>3d</fix>
</trkpt>
<trkpt lat="-27.2664818" lon="151.2899165">
  <ele>363.06</ele>
  <time>2026-09-01T19:57:52Z</time>
  <course>180.67</course>
  <speed>25.410096418549852</speed>
  <fix>3d</fix>
</trkpt>
<trkpt lat="-27.2664379" lon="151.2899168">
  <ele>363.17</ele>
  <time>2026-09-01T19:57:52Z</time>
  <course>180.09</course>
  <speed>25.43</speed>
  <fix>3d</fix>
</trkpt>
<trkpt lat="-27.2665045" lon="151.2899165">
  <ele>363.06</ele>
  <time>2026-09-01T19:57:52Z</time>
  <course>180.64</course>
  <speed>25.410096418549852</speed>
  <fix>3d</fix>
</trkpt>
<trkpt lat="-27.2664379" lon="151.2899168">
  <ele>363.17</ele>
  <time>2026-09-01T19:57:52Z</time>
  <course>180.09</course>
  <speed>25.43</speed>
  <fix>3d</fix>
</trkpt>
<trkpt lat="-27.2665273" lon="151.2899164">
  <ele>363.05</ele>
  <time>2026-09-01T19:57:52Z</time>
  <course>180.68</course>
  <speed>25.420096380619803</speed>
  <fix>3d</fix>
</trkpt>
<trkpt lat="-27.2664835" lon="151.2899167">
  <ele>363.17</ele>
  <time>2026-09-01T19:57:52Z</time>
  <course>180.1</course>
  <speed>25.43</speed>
  <fix>3d</fix>
</trkpt>
<trkpt lat="-27.2665502" lon="151.2899164">
  <ele>363.05</ele>
  <time>2026-09-01T19:57:52Z</time>
  <course>180.67</course>
  <speed>25.410125934359318</speed>
  <fix>3d</fix>
</trkpt>
<trkpt lat="-27.2664835" lon="151.2899167">
  <ele>363.17</ele>
  <time>2026-09-01T19:57:52Z</time>
  <course>180.1</course>
  <speed>25.43</speed>
  <fix>3d</fix>
</trkpt>
<trkpt lat="-27.266573" lon="151.2899163">
  <ele>363.04</ele>
  <time>2026-09-01T19:57:52Z</time>
  <course>180.66</course>
  <speed>25.410125934359318</speed>
  <fix>3d</fix>
</trkpt>
<trkpt lat="-27.2665292" lon="151.2899166">
  <ele>363.16</ele>
  <time>2026-09-01T19:57:52Z</time>
  <course>180.11</course>
  <speed>25.43</speed>
  <fix>3d</fix>
</trkpt>
<trkpt lat="-27.2665962" lon="151.2899163">
  <ele>363.04</ele>
  <time>2026-09-01T19:57:52Z</time>
  <course>180.63</course>
  <speed>25.410096418549852</speed>
  <fix>3d</fix>
</trkpt>
<trkpt lat="-27.2665292" lon="151.2899166">
  <ele>363.16</ele>
  <time>2026-09-01T19:57:52Z</time>
  <course>180.11</course>
  <speed>25.43</speed>
  <fix>3d</fix>
</trkpt>
<trkpt lat="-27.2666191" lon="151.2899162">
  <ele>363.04</ele>
  <time>2026-09-01T19:57:52Z</time>
  <course>180.63</course>
  <speed>25.410096418549852</speed>
  <fix>3d</fix>
</trkpt>
<trkpt lat="-27.2665749" lon="151.2899165">
  <ele>363.16</ele>
  <time>2026-09-01T19:57:52Z</time>
  <course>180.11</course>
  <speed>25.43</speed>
  <fix>3d</fix>
</trkpt>
<trkpt lat="-27.2666419" lon="151.2899162">
  <ele>363.03</ele>
  <time>2026-09-01T19:57:52Z</time>
  <course>180.68</course>
  <speed>25.410096418549852</speed>
  <fix>3d</fix>
</trkpt>
<trkpt lat="-27.2665749" lon="151.2899165">
  <ele>363.16</ele>
  <time>2026-09-01T19:57:52Z</time>
  <course>180.11</course>
  <speed>25.43</speed>
  <fix>3d</fix>
</trkpt>
<trkpt lat="-27.2666647" lon="151.2899161">
  <ele>363.03</ele>
  <time>2026-09-01T19:57:52Z</time>
  <course>180.7</course>
  <speed>25.410096418549852</speed>
  <fix>3d</fix>
</trkpt>
<trkpt lat="-27.2666206" lon="151.2899164">
  <ele>363.16</ele>
  <time>2026-09-01T19:57:52Z</time>
  <course>180.1</course>
  <speed>25.43</speed>
  <fix>3d</fix>
</trkpt>
<trkpt lat="-27.2666875" lon="151.2899161">
  <ele>363.03</ele>
  <time>2026-09-01T19:57:52Z</time>
  <course>180.69</course>
  <speed>25.400096456509768</speed>
  <fix>3d</fix>
</trkpt>
<trkpt lat="-27.2666206" lon="151.2899164">
  <ele>363.16</ele>
  <time>2026-09-01T19:57:52Z</time>
  <course>180.1</course>
  <speed>25.43</speed>
  <fix>3d</fix>
</trkpt>
<trkpt lat="-27.2667104" lon="151.289916">
  <ele>363.03</ele>
  <time>2026-09-01T19:57:52Z</time>
  <course>180.72</course>
  <speed>25.400096456509768</speed>
  <fix>3d</fix>
</trkpt>
<trkpt lat="-27.2666662" lon="151.2899163">
  <ele>363.16</ele>
  <time>2026-09-01T19:57:52Z</time>
  <course>180.1</course>
  <speed>25.42</speed>
  <fix>3d</fix>
</trkpt>
<trkpt lat="-27.2667332" lon="151.289916">
  <ele>363.03</ele>
  <time>2026-09-01T19:57:52Z</time>
  <course>180.76</course>
  <speed>25.400125983939528</speed>
  <fix>3d</fix>
</trkpt>
<trkpt lat="-27.2666662" lon="151.2899163">
  <ele>363.16</ele>
  <time>2026-09-01T19:57:52Z</time>
  <course>180.1</course>
  <speed>25.42</speed>
  <fix>3d</fix>
</trkpt>
<trkpt lat="-27.266756" lon="151.2899159">
  <ele>363.03</ele>
  <time>2026-09-01T19:57:52Z</time>
  <course>180.71</course>
  <speed>25.400159448318433</speed>
  <fix>3d</fix>
</trkpt>
<trkpt lat="-27.2667119" lon="151.2899162">
  <ele>363.16</ele>
  <time>2026-09-01T19:57:52Z</time>
  <course>180.11</course>
  <speed>25.42</speed>
  <fix>3d</fix>
</trkpt>
<trkpt lat="-27.2667788" lon="151.2899158">
  <ele>363.03</ele>
  <time>2026-09-01T19:57:52Z</time>
  <course>180.68</course>
  <speed>25.400159448318433</speed>
  <fix>3d</fix>
</trkpt>
<trkpt lat="-27.2667119" lon="151.2899162">
  <ele>363.16</ele>
  <time>2026-09-01T19:57:52Z</time>
  <course>180.11</course>
  <speed>25.42</speed>
  <fix>3d</fix>
</trkpt>
<trkpt lat="-27.2668016" lon="151.2899158">
  <ele>363.03</ele>
  <time>2026-09-01T19:57:52Z</time>
  <course>180.74</course>
  <speed>25.400196849630913</speed>
  <fix>3d</fix>
</trkpt>
<trkpt lat="-27.2667576" lon="151.2899161">
  <ele>363.17</ele>
  <time>2026-09-01T19:57:52Z</time>
  <course>180.14</course>
  <speed>25.42</speed>
  <fix>3d</fix>
</trkpt>
<trkpt lat="-27.2668244" lon="151.2899157">
  <ele>363.03</ele>
  <time>2026-09-01T19:57:52Z</time>
  <course>180.73</course>
  <speed>25.400196849630913</speed>
  <fix>3d</fix>
</trkpt>
<trkpt lat="-27.2667576" lon="151.2899161">
  <ele>363.17</ele>
  <time>2026-09-01T19:57:52Z</time>
  <course>180.14</course>
  <speed>25.42</speed>
  <fix>3d</fix>
</trkpt>
<trkpt lat="-27.2668473" lon="151.2899156">
  <ele>363.03</ele>
  <time>2026-09-01T19:57:52Z</time>
  <course>180.72</course>
  <speed>25.410238094122615</speed>
  <fix>3d</fix>
</trkpt>
<trkpt lat="-27.2668032" lon="151.289916">
  <ele>363.17</ele>
  <time>2026-09-01T19:57:52Z</time>
  <course>180.16</course>
  <speed>25.43</speed>
  <fix>3d</fix>
</trkpt>
<trkpt lat="-27.2668701" lon="151.2899155">
  <ele>363.03</ele>
  <time>2026-09-01T19:57:52Z</time>
  <course>180.7</course>
  <speed>25.410238094122615</speed>
  <fix>3d</fix>
</trkpt>
<trkpt lat="-27.2668032" lon="151.289916">
  <ele>363.17</ele>
  <time>2026-09-01T19:57:52Z</time>
  <course>180.16</course>
  <speed>25.43</speed>
  <fix>3d</fix>
</trkpt>
<trkpt lat="-27.266893" lon="151.2899154">
  <ele>363.04</ele>
  <time>2026-09-01T19:57:52Z</time>
  <course>180.71</course>
  <speed>25.410238094122615</speed>
  <fix>3d</fix>
</trkpt>
<trkpt lat="-27.266849" lon="151.2899158">
  <ele>363.17</ele>
  <time>2026-09-01T19:57:52Z</time>
  <course>180.18</course>
  <speed>25.43</speed>
  <fix>3d</fix>
</trkpt>
<trkpt lat="-27.2669158" lon="151.2899153">
  <ele>363.04</ele>
  <time>2026-09-01T19:57:52Z</time>
  <course>180.72</course>
  <speed>25.410238094122615</speed>
  <fix>3d</fix>
</trkpt>
<trkpt lat="-27.266849" lon="151.2899158">
  <ele>363.17</ele>
  <time>2026-09-01T19:57:52Z</time>
  <course>180.18</course>
  <speed>25.43</speed>
  <fix>3d</fix>
</trkpt>
<trkpt lat="-27.2669387" lon="151.2899152">
  <ele>363.05</ele>
  <time>2026-09-01T19:57:52Z</time>
  <course>180.63</course>
  <speed>25.410238094122615</speed>
  <fix>3d</fix>
</trkpt>
<trkpt lat="-27.2668948" lon="151.2899157">
  <ele>363.17</ele>
  <time>2026-09-01T19:57:52Z</time>
  <course>180.19</course>
  <speed>25.43</speed>
  <fix>3d</fix>
</trkpt>
<trkpt lat="-27.2669616" lon="151.2899152">
  <ele>363.05</ele>
  <time>2026-09-01T19:57:52Z</time>
  <course>180.61</course>
  <speed>25.410238094122615</speed>
  <fix>3d</fix>
</trkpt>
<trkpt lat="-27.2668948" lon="151.2899157">
  <ele>363.17</ele>
  <time>2026-09-01T19:57:52Z</time>
  <course>180.19</course>
  <speed>25.43</speed>
  <fix>3d</fix>
</trkpt>
<trkpt lat="-27.2669843" lon="151.2899151">
  <ele>363.06</ele>
  <time>2026-09-01T19:57:52Z</time>
  <course>180.7</course>
  <speed>25.42019669475435</speed>
  <fix>3d</fix>
</trkpt>
<trkpt lat="-27.2669405" lon="151.2899155">
  <ele>363.18</ele>
  <time>2026-09-01T19:57:52Z</time>
  <course>180.19</course>
  <speed>25.44</speed>
  <fix>3d</fix>
</trkpt>
<trkpt lat="-27.2670072" lon="151.289915">
  <ele>363.06</ele>
  <time>2026-09-01T19:57:52Z</time>
  <course>180.76</course>
  <speed>25.42019669475435</speed>
  <fix>3d</fix>
</trkpt>
<trkpt lat="-27.2669405" lon="151.2899155">
  <ele>363.18</ele>
  <time>2026-09-01T19:57:52Z</time>
  <course>180.19</course>
  <speed>25.44</speed>
  <fix>3d</fix>
</trkpt>
<trkpt lat="-27.2670301" lon="151.2899149">
  <ele>363.06</ele>
  <time>2026-09-01T19:57:52Z</time>
  <course>180.77</course>
  <speed>25.42015932286814</speed>
  <fix>3d</fix>
</trkpt>
<trkpt lat="-27.2669861" lon="151.2899153">
  <ele>363.19</ele>
  <time>2026-09-01T19:57:52Z</time>
  <course>180.18</course>
  <speed>25.44</speed>
  <fix>3d</fix>
</trkpt>
<trkpt lat="-27.267053" lon="151.2899149">
  <ele>363.06</ele>
  <time>2026-09-01T19:57:52Z</time>
  <course>180.74</course>
  <speed>25.430159260216993</speed>
  <fix>3d</fix>
</trkpt>
<trkpt lat="-27.2669861" lon="151.2899153">
  <ele>363.19</ele>
  <time>2026-09-01T19:57:52Z</time>
  <course>180.18</course>
  <speed>25.44</speed>
  <fix>3d</fix>
</trkpt>
<trkpt lat="-27.2670761" lon="151.2899148">
  <ele>363.07</ele>
  <time>2026-09-01T19:57:52Z</time>
  <course>180.68</course>
  <speed>25.430159260216993</speed>
  <fix>3d</fix>
</trkpt>
<trkpt lat="-27.2670318" lon="151.2899152">
  <ele>363.19</ele>
  <time>2026-09-01T19:57:52Z</time>
  <course>180.16</course>
  <speed>25.44</speed>
  <fix>3d</fix>
</trkpt>
<trkpt lat="-27.2670989" lon="151.2899147">
  <ele>363.07</ele>
  <time>2026-09-01T19:57:52Z</time>
  <course>180.71</course>
  <speed>25.430159260216993</speed>
  <fix>3d</fix>
</trkpt>
<trkpt lat="-27.2670318" lon="151.2899152">
  <ele>363.19</ele>
  <time>2026-09-01T19:57:52Z</time>
  <course>180.16</course>
  <speed>25.44</speed>
  <fix>3d</fix>
</trkpt>
<trkpt lat="-27.2671218" lon="151.2899147">
  <ele>363.07</ele>
  <time>2026-09-01T19:57:52Z</time>
  <course>180.69</course>
  <speed>25.430125835315877</speed>
  <fix>3d</fix>
</trkpt>
<trkpt lat="-27.2670775" lon="151.289915">
  <ele>363.2</ele>
  <time>2026-09-01T19:57:52Z</time>
  <course>180.14</course>
  <speed>25.44</speed>
  <fix>3d</fix>
</trkpt>
<trkpt lat="-27.2671447" lon="151.2899146">
  <ele>363.07</ele>
  <time>2026-09-01T19:57:52Z</time>
  <course>180.6</course>
  <speed>25.44012578585255</speed>
  <fix>3d</fix>
</trkpt>
<trkpt lat="-27.2670775" lon="151.289915">
  <ele>363.2</ele>
  <time>2026-09-01T19:57:52Z</time>
  <course>180.14</course>
  <speed>25.44</speed>
  <fix>3d</fix>
</trkpt>
<trkpt lat="-27.2671676" lon="151.2899146">
  <ele>363.07</ele>
  <time>2026-09-01T19:57:52Z</time>
  <course>180.59</course>
  <speed>25.440096304849163</speed>
  <fix>3d</fix>
</trkpt>
<trkpt lat="-27.2671232" lon="151.2899149">
  <ele>363.21</ele>
  <time>2026-09-01T19:57:52Z</time>
  <course>180.13</course>
  <speed>25.44</speed>
  <fix>3d</fix>
</trkpt>
<trkpt lat="-27.2671905" lon="151.2899145">
  <ele>363.07</ele>
  <time>2026-09-01T19:57:52Z</time>
  <course>180.63</course>
  <speed>25.440096304849163</speed>
  <fix>3d</fix>
</trkpt>
<trkpt lat="-27.2671232" lon="151.2899149">
  <ele>363.21</ele>
  <time>2026-09-01T19:57:52Z</time>
  <course>180.13</course>
  <speed>25.44</speed>
  <fix>3d</fix>
</trkpt>
<trkpt lat="-27.2672134" lon="151.2899145">
  <ele>363.07</ele>
  <time>2026-09-01T19:57:52Z</time>
  <course>180.64</course>
  <speed>25.440096304849163</speed>
  <fix>3d</fix>
</trkpt>
<trkpt lat="-27.2671689" lon="151.2899148">
  <ele>363.21</ele>
  <time>2026-09-01T19:57:52Z</time>
  <course>180.12</course>
  <speed>25.44</speed>
  <fix>3d</fix>
</trkpt>
<trkpt lat="-27.2672365" lon="151.2899144">
  <ele>363.07</ele>
  <time>2026-09-01T19:57:52Z</time>
  <course>180.62</course>
  <speed>25.440096304849163</speed>
  <fix>3d</fix>
</trkpt>
<trkpt lat="-27.2671689" lon="151.2899148">
  <ele>363.21</ele>
  <time>2026-09-01T19:57:52Z</time>
  <course>180.12</course>
  <speed>25.44</speed>
  <fix>3d</fix>
</trkpt>
<trkpt lat="-27.2672592" lon="151.2899144">
  <ele>363.07</ele>
  <time>2026-09-01T19:57:52Z</time>
  <course>180.65</course>
  <speed>25.430096342719583</speed>
  <fix>3d</fix>
</trkpt>
<trkpt lat="-27.2672146" lon="151.2899147">
  <ele>363.21</ele>
  <time>2026-09-01T19:57:52Z</time>
  <course>180.11</course>
  <speed>25.44</speed>
  <fix>3d</fix>
</trkpt>
<trkpt lat="-27.267282" lon="151.2899143">
  <ele>363.07</ele>
  <time>2026-09-01T19:57:52Z</time>
  <course>180.63</course>
  <speed>25.4300707824418</speed>
  <fix>3d</fix>
</trkpt>
<trkpt lat="-27.2672146" lon="151.2899147">
  <ele>363.21</ele>
  <time>2026-09-01T19:57:52Z</time>
  <course>180.11</course>
  <speed>25.44</speed>
  <fix>3d</fix>
</trkpt>
<trkpt lat="-27.2673047" lon="151.2899143">
  <ele>363.07</ele>
  <time>2026-09-01T19:57:52Z</time>
  <course>180.6</course>
  <speed>25.42004917383127</speed>
  <fix>3d</fix>
</trkpt>
<trkpt lat="-27.2672603" lon="151.2899146">
  <ele>363.21</ele>
  <time>2026-09-01T19:57:52Z</time>
  <course>180.1</course>
  <speed>25.44</speed>
  <fix>3d</fix>
</trkpt>
<trkpt lat="-27.2673274" lon="151.2899143">
  <ele>363.07</ele>
  <time>2026-09-01T19:57:52Z</time>
  <course>180.59</course>
  <speed>25.42004917383127</speed>
  <fix>3d</fix>
</trkpt>
<trkpt lat="-27.2672603" lon="151.2899146">
  <ele>363.21</ele>
  <time>2026-09-01T19:57:52Z</time>
  <course>180.1</course>
  <speed>25.44</speed>
  <fix>3d</fix>
</trkpt>
<trkpt lat="-27.2673501" lon="151.2899142">
  <ele>363.07</ele>
  <time>2026-09-01T19:57:52Z</time>
  <course>180.56</course>
  <speed>25.410031483648346</speed>
  <fix>3d</fix>
</trkpt>
<trkpt lat="-27.2673061" lon="151.2899145">
  <ele>363.21</ele>
  <time>2026-09-01T19:57:52Z</time>
  <course>180.08</course>
  <speed>25.44</speed>
  <fix>3d</fix>
</trkpt>
<trkpt lat="-27.2673728" lon="151.2899142">
  <ele>363.07</ele>
  <time>2026-09-01T19:57:52Z</time>
  <course>180.6</course>
  <speed>25.400031496043468</speed>
  <fix>3d</fix>
</trkpt>
<trkpt lat="-27.2673061" lon="151.2899145">
  <ele>363.21</ele>
  <time>2026-09-01T19:57:52Z</time>
  <course>180.08</course>
  <speed>25.44</speed>
  <fix>3d</fix>
</trkpt>
<trkpt lat="-27.2673955" lon="151.2899142">
  <ele>363.07</ele>
  <time>2026-09-01T19:57:52Z</time>
  <course>180.6</course>
  <speed>25.400031496043468</speed>
  <fix>3d</fix>
</trkpt>
<trkpt lat="-27.2673519" lon="151.2899144">
  <ele>363.21</ele>
  <time>2026-09-01T19:57:52Z</time>
  <course>180.06</course>
  <speed>25.44</speed>
  <fix>3d</fix>
</trkpt>
<trkpt lat="-27.2674183" lon="151.2899142">
  <ele>363.07</ele>
  <time>2026-09-01T19:57:52Z</time>
  <course>180.58</course>
  <speed>25.400017716529256</speed>
  <fix>3d</fix>
</trkpt>
<trkpt lat="-27.2673519" lon="151.2899144">
  <ele>363.21</ele>
  <time>2026-09-01T19:57:52Z</time>
  <course>180.06</course>
  <speed>25.44</speed>
  <fix>3d</fix>
</trkpt>
<trkpt lat="-27.267441" lon="151.2899142">
  <ele>363.08</ele>
  <time>2026-09-01T19:57:52Z</time>
  <course>180.55</course>
  <speed>25.390017723507007</speed>
  <fix>3d</fix>
</trkpt>
<trkpt lat="-27.2673976" lon="151.2899143">
  <ele>363.21</ele>
  <time>2026-09-01T19:57:52Z</time>
  <course>180.03</course>
  <speed>25.45</speed>
  <fix>3d</fix>
</trkpt>
<trkpt lat="-27.2674636" lon="151.2899141">
  <ele>363.08</ele>
  <time>2026-09-01T19:57:52Z</time>
  <course>180.6</course>
  <speed>25.390017723507007</speed>
  <fix>3d</fix>
</trkpt>
<trkpt lat="-27.2673976" lon="151.2899143">
  <ele>363.21</ele>
  <time>2026-09-01T19:57:52Z</time>
  <course>180.03</course>
  <speed>25.45</speed>
  <fix>3d</fix>
</trkpt>
<trkpt lat="-27.2674863" lon="151.2899141">
  <ele>363.08</ele>
  <time>2026-09-01T19:57:52Z</time>
  <course>180.59</course>
  <speed>25.390017723507007</speed>
  <fix>3d</fix>
</trkpt>
<trkpt lat="-27.2674433" lon="151.2899143">
  <ele>363.21</ele>
  <time>2026-09-01T19:57:52Z</time>
  <course>180.02</course>
  <speed>25.45</speed>
  <fix>3d</fix>
</trkpt>
<trkpt lat="-27.267509" lon="151.2899141">
  <ele>363.08</ele>
  <time>2026-09-01T19:57:52Z</time>
  <course>180.58</course>
  <speed>25.380017730490263</speed>
  <fix>3d</fix>
</trkpt>
<trkpt lat="-27.2674433" lon="151.2899143">
  <ele>363.21</ele>
  <time>2026-09-01T19:57:52Z</time>
  <course>180.02</course>
  <speed>25.45</speed>
  <fix>3d</fix>
</trkpt>
<trkpt lat="-27.2675318" lon="151.2899141">
  <ele>363.08</ele>
  <time>2026-09-01T19:57:52Z</time>
  <course>180.52</course>
  <speed>25.37003153328746</speed>
  <fix>3d</fix>
</trkpt>
<trkpt lat="-27.2674891" lon="151.2899143">
  <ele>363.2</ele>
  <time>2026-09-01T19:57:52Z</time>
  <course>180.03</course>
  <speed>25.45</speed>
  <fix>3d</fix>
</trkpt>
<trkpt lat="-27.2675548" lon="151.2899141">
  <ele>363.08</ele>
  <time>2026-09-01T19:57:52Z</time>
  <course>180.53</course>
  <speed>25.37003153328746</speed>
  <fix>3d</fix>
</trkpt>
<trkpt lat="-27.2674891" lon="151.2899143">
  <ele>363.2</ele>
  <time>2026-09-01T19:57:52Z</time>
  <course>180.03</course>
  <speed>25.45</speed>
  <fix>3d</fix>
</trkpt>
<trkpt lat="-27.2675775" lon="151.2899141">
  <ele>363.08</ele>
  <time>2026-09-01T19:57:52Z</time>
  <course>180.58</course>
  <speed>25.360031545721704</speed>
  <fix>3d</fix>
</trkpt>
<trkpt lat="-27.2675348" lon="151.2899143">
  <ele>363.2</ele>
  <time>2026-09-01T19:57:52Z</time>
  <course>180.04</course>
  <speed>25.45</speed>
  <fix>3d</fix>
</trkpt>
<trkpt lat="-27.2676003" lon="151.289914">
  <ele>363.08</ele>
  <time>2026-09-01T19:57:52Z</time>
  <course>180.6</course>
  <speed>25.360031545721704</speed>
  <fix>3d</fix>
</trkpt>
<trkpt lat="-27.2675348" lon="151.2899143">
  <ele>363.2</ele>
  <time>2026-09-01T19:57:52Z</time>
  <course>180.04</course>
  <speed>25.45</speed>
  <fix>3d</fix>
</trkpt>
<trkpt lat="-27.2676231" lon="151.289914">
  <ele>363.08</ele>
  <time>2026-09-01T19:57:52Z</time>
  <course>180.58</course>
  <speed>25.36004929017292</speed>
  <fix>3d</fix>
</trkpt>
<trkpt lat="-27.2675805" lon="151.2899143">
  <ele>363.2</ele>
  <time>2026-09-01T19:57:52Z</time>
  <course>180.05</course>
  <speed>25.44</speed>
  <fix>3d</fix>
</trkpt>
<trkpt lat="-27.2676459" lon="151.289914">
  <ele>363.08</ele>
  <time>2026-09-01T19:57:52Z</time>
  <course>180.63</course>
  <speed>25.36004929017292</speed>
  <fix>3d</fix>
</trkpt>
<trkpt lat="-27.2675805" lon="151.2899143">
  <ele>363.2</ele>
  <time>2026-09-01T19:57:52Z</time>
  <course>180.05</course>
  <speed>25.44</speed>
  <fix>3d</fix>
</trkpt>
<trkpt lat="-27.2676688" lon="151.2899139">
  <ele>363.07</ele>
  <time>2026-09-01T19:57:52Z</time>
  <course>180.64</course>
  <speed>25.360070977818655</speed>
  <fix>3d</fix>
</trkpt>
<trkpt lat="-27.2676262" lon="151.2899142">
  <ele>363.2</ele>
  <time>2026-09-01T19:57:52Z</time>
  <course>180.06</course>
  <speed>25.44</speed>
  <fix>3d</fix>
</trkpt>
<trkpt lat="-27.2676916" lon="151.2899139">
  <ele>363.07</ele>
  <time>2026-09-01T19:57:52Z</time>
  <course>180.64</course>
  <speed>25.360070977818655</speed>
  <fix>3d</fix>
</trkpt>
<trkpt lat="-27.2676262" lon="151.2899142">
  <ele>363.2</ele>
  <time>2026-09-01T19:57:52Z</time>
  <course>180.06</course>
  <speed>25.44</speed>
  <fix>3d</fix>
</trkpt>
<trkpt lat="-27.2677145" lon="151.2899139">
  <ele>363.07</ele>
  <time>2026-09-01T19:57:52Z</time>
  <course>180.66</course>
  <speed>25.360096608648792</speed>
  <fix>3d</fix>
</trkpt>
<trkpt lat="-27.2676719" lon="151.2899141">
  <ele>363.2</ele>
  <time>2026-09-01T19:57:52Z</time>
  <course>180.08</course>
  <speed>25.44</speed>
  <fix>3d</fix>
</trkpt>
<trkpt lat="-27.2677373" lon="151.2899138">
  <ele>363.07</ele>
  <time>2026-09-01T19:57:52Z</time>
  <course>180.68</course>
  <speed>25.360096608648792</speed>
  <fix>3d</fix>
</trkpt>
<trkpt lat="-27.2676719" lon="151.2899141">
  <ele>363.2</ele>
  <time>2026-09-01T19:57:52Z</time>
  <course>180.08</course>
  <speed>25.44</speed>
  <fix>3d</fix>
</trkpt>
<trkpt lat="-27.2677602" lon="151.2899138">
  <ele>363.07</ele>
  <time>2026-09-01T19:57:52Z</time>
  <course>180.72</course>
  <speed>25.360126182651378</speed>
  <fix>3d</fix>
</trkpt>
<trkpt lat="-27.2677176" lon="151.289914">
  <ele>363.2</ele>
  <time>2026-09-01T19:57:52Z</time>
  <course>180.1</course>
  <speed>25.44</speed>
  <fix>3d</fix>
</trkpt>
<trkpt lat="-27.267783" lon="151.2899137">
  <ele>363.07</ele>
  <time>2026-09-01T19:57:52Z</time>
  <course>180.71</course>
  <speed>25.360126182651378</speed>
  <fix>3d</fix>
</trkpt>
<trkpt lat="-27.2677176" lon="151.289914">
  <ele>363.2</ele>
  <time>2026-09-01T19:57:52Z</time>
  <course>180.1</course>
  <speed>25.44</speed>
  <fix>3d</fix>
</trkpt>
<trkpt lat="-27.2678059" lon="151.2899136">
  <ele>363.07</ele>
  <time>2026-09-01T19:57:52Z</time>
  <course>180.66</course>
  <speed>25.370126132914674</speed>
  <fix>3d</fix>
</trkpt>
<trkpt lat="-27.2677633" lon="151.2899139">
  <ele>363.19</ele>
  <time>2026-09-01T19:57:52Z</time>
  <course>180.12</course>
  <speed>25.44</speed>
  <fix>3d</fix>
</trkpt>
<trkpt lat="-27.2678287" lon="151.2899136">
  <ele>363.07</ele>
  <time>2026-09-01T19:57:52Z</time>
  <course>180.67</course>
  <speed>25.370126132914674</speed>
  <fix>3d</fix>
</trkpt>
<trkpt lat="-27.2677633" lon="151.2899139">
  <ele>363.19</ele>
  <time>2026-09-01T19:57:52Z</time>
  <course>180.12</course>
  <speed>25.44</speed>
  <fix>3d</fix>
</trkpt>
<trkpt lat="-27.2678516" lon="151.2899135">
  <ele>363.07</ele>
  <time>2026-09-01T19:57:52Z</time>
  <course>180.68</course>
  <speed>25.370159636864724</speed>
  <fix>3d</fix>
</trkpt>
<trkpt lat="-27.267809" lon="151.2899138">
  <ele>363.19</ele>
  <time>2026-09-01T19:57:52Z</time>
  <course>180.13</course>
  <speed>25.43</speed>
  <fix>3d</fix>
</trkpt>
<trkpt lat="-27.2678746" lon="151.2899134">
  <ele>363.07</ele>
  <time>2026-09-01T19:57:52Z</time>
  <course>180.69</course>
  <speed>25.370159636864724</speed>
  <fix>3d</fix>
</trkpt>
<trkpt lat="-27.267809" lon="151.2899138">
  <ele>363.19</ele>
  <time>2026-09-01T19:57:52Z</time>
  <course>180.13</course>
  <speed>25.43</speed>
  <fix>3d</fix>
</trkpt>
<trkpt lat="-27.2678975" lon="151.2899134">
  <ele>363.07</ele>
  <time>2026-09-01T19:57:52Z</time>
  <course>180.67</course>
  <speed>25.370159636864724</speed>
  <fix>3d</fix>
</trkpt>
<trkpt lat="-27.2678548" lon="151.2899137">
  <ele>363.2</ele>
  <time>2026-09-01T19:57:52Z</time>
  <course>180.14</course>
  <speed>25.43</speed>
  <fix>3d</fix>
</trkpt>
<trkpt lat="-27.2679204" lon="151.2899133">
  <ele>363.07</ele>
  <time>2026-09-01T19:57:52Z</time>
  <course>180.64</course>
  <speed>25.370126132914674</speed>
  <fix>3d</fix>
</trkpt>
<trkpt lat="-27.2678548" lon="151.2899137">
  <ele>363.2</ele>
  <time>2026-09-01T19:57:52Z</time>
  <course>180.14</course>
  <speed>25.43</speed>
  <fix>3d</fix>
</trkpt>
<trkpt lat="-27.2679431" lon="151.2899132">
  <ele>363.06</ele>
  <time>2026-09-01T19:57:52Z</time>
  <course>180.67</course>
  <speed>25.38012608321716</speed>
  <fix>3d</fix>
</trkpt>
<trkpt lat="-27.2679005" lon="151.2899135">
  <ele>363.2</ele>
  <time>2026-09-01T19:57:52Z</time>
  <course>180.14</course>
  <speed>25.42</speed>
  <fix>3d</fix>
</trkpt>
<trkpt lat="-27.2679659" lon="151.2899132">
  <ele>363.06</ele>
  <time>2026-09-01T19:57:52Z</time>
  <course>180.69</course>
  <speed>25.38012608321716</speed>
  <fix>3d</fix>
</trkpt>
<trkpt lat="-27.2679005" lon="151.2899135">
  <ele>363.2</ele>
  <time>2026-09-01T19:57:52Z</time>
  <course>180.14</course>
  <speed>25.42</speed>
  <fix>3d</fix>
</trkpt>
<trkpt lat="-27.2679889" lon="151.2899131">
  <ele>363.05</ele>
  <time>2026-09-01T19:57:52Z</time>
  <course>180.67</course>
  <speed>25.38012608321716</speed>
  <fix>3d</fix>
</trkpt>
<trkpt lat="-27.2679462" lon="151.2899134">
  <ele>363.2</ele>
  <time>2026-09-01T19:57:52Z</time>
  <course>180.14</course>
  <speed>25.42</speed>
  <fix>3d</fix>
</trkpt>
<trkpt lat="-27.2680117" lon="151.289913">
  <ele>363.05</ele>
  <time>2026-09-01T19:57:52Z</time>
  <course>180.6</course>
  <speed>25.390126033558793</speed>
  <fix>3d</fix>
</trkpt>
<trkpt lat="-27.2679462" lon="151.2899134">
  <ele>363.2</ele>
  <time>2026-09-01T19:57:52Z</time>
  <course>180.14</course>
  <speed>25.42</speed>
  <fix>3d</fix>
</trkpt>
<trkpt lat="-27.2680349" lon="151.289913">
  <ele>363.05</ele>
  <time>2026-09-01T19:57:52Z</time>
  <course>180.57</course>
  <speed>25.390126033558793</speed>
  <fix>3d</fix>
</trkpt>
<trkpt lat="-27.2679918" lon="151.2899133">
  <ele>363.19</ele>
  <time>2026-09-01T19:57:52Z</time>
  <course>180.13</course>
  <speed>25.42</speed>
  <fix>3d</fix>
</trkpt>
<trkpt lat="-27.2680577" lon="151.2899129">
  <ele>363.06</ele>
  <time>2026-09-01T19:57:52Z</time>
  <course>180.64</course>
  <speed>25.390096494499584</speed>
  <fix>3d</fix>
</trkpt>
<trkpt lat="-27.2679918" lon="151.2899133">
  <ele>363.19</ele>
  <time>2026-09-01T19:57:52Z</time>
  <course>180.13</course>
  <speed>25.42</speed>
  <fix>3d</fix>
</trkpt>
<trkpt lat="-27.2680807" lon="151.2899129">
  <ele>363.06</ele>
  <time>2026-09-01T19:57:52Z</time>
  <course>180.71</course>
  <speed>25.400096456509768</speed>
  <fix>3d</fix>
</trkpt>
<trkpt lat="-27.2680375" lon="151.2899132">
  <ele>363.19</ele>
  <time>2026-09-01T19:57:52Z</time>
  <course>180.12</course>
  <speed>25.42</speed>
  <fix>3d</fix>
</trkpt>
<trkpt lat="-27.2681035" lon="151.2899128">
  <ele>363.07</ele>
  <time>2026-09-01T19:57:52Z</time>
  <course>180.73</course>
  <speed>25.400096456509768</speed>
  <fix>3d</fix>
</trkpt>
<trkpt lat="-27.2680375" lon="151.2899132">
  <ele>363.19</ele>
  <time>2026-09-01T19:57:52Z</time>
  <course>180.12</course>
  <speed>25.42</speed>
  <fix>3d</fix>
</trkpt>
<trkpt lat="-27.2681264" lon="151.2899128">
  <ele>363.07</ele>
  <time>2026-09-01T19:57:52Z</time>
  <course>180.71</course>
  <speed>25.400096456509768</speed>
  <fix>3d</fix>
</trkpt>
<trkpt lat="-27.2680832" lon="151.2899131">
  <ele>363.2</ele>
  <time>2026-09-01T19:57:52Z</time>
  <course>180.12</course>
  <speed>25.42</speed>
  <fix>3d</fix>
</trkpt>
<trkpt lat="-27.2681493" lon="151.2899127">
  <ele>363.08</ele>
  <time>2026-09-01T19:57:52Z</time>
  <course>180.71</course>
  <speed>25.410096418549852</speed>
  <fix>3d</fix>
</trkpt>
<trkpt lat="-27.2680832" lon="151.2899131">
  <ele>363.2</ele>
  <time>2026-09-01T19:57:52Z</time>
  <course>180.12</course>
  <speed>25.42</speed>
  <fix>3d</fix>
</trkpt>
<trkpt lat="-27.2681722" lon="151.2899127">
  <ele>363.08</ele>
  <time>2026-09-01T19:57:52Z</time>
  <course>180.7</course>
  <speed>25.410096418549852</speed>
  <fix>3d</fix>
</trkpt>
<trkpt lat="-27.2681288" lon="151.289913">
  <ele>363.21</ele>
  <time>2026-09-01T19:57:52Z</time>
  <course>180.12</course>
  <speed>25.42</speed>
  <fix>3d</fix>
</trkpt>
<trkpt lat="-27.2681951" lon="151.2899126">
  <ele>363.08</ele>
  <time>2026-09-01T19:57:52Z</time>
  <course>180.64</course>
  <speed>25.410096418549852</speed>
  <fix>3d</fix>
</trkpt>
<trkpt lat="-27.2681288" lon="151.289913">
  <ele>363.21</ele>
  <time>2026-09-01T19:57:52Z</time>
  <course>180.12</course>
  <speed>25.42</speed>
  <fix>3d</fix>
</trkpt>
<trkpt lat="-27.268218" lon="151.2899126">
  <ele>363.08</ele>
  <time>2026-09-01T19:57:52Z</time>
  <course>180.65</course>
  <speed>25.410070838153914</speed>
  <fix>3d</fix>
</trkpt>
<trkpt lat="-27.2681745" lon="151.2899129">
  <ele>363.22</ele>
  <time>2026-09-01T19:57:52Z</time>
  <course>180.12</course>
  <speed>25.42</speed>
  <fix>3d</fix>
</trkpt>
<trkpt lat="-27.2682409" lon="151.2899125">
  <ele>363.09</ele>
  <time>2026-09-01T19:57:52Z</time>
  <course>180.64</course>
  <speed>25.410070838153914</speed>
  <fix>3d</fix>
</trkpt>
<trkpt lat="-27.2681745" lon="151.2899129">
  <ele>363.22</ele>
  <time>2026-09-01T19:57:52Z</time>
  <course>180.12</course>
  <speed>25.42</speed>
  <fix>3d</fix>
</trkpt>
<trkpt lat="-27.2682638" lon="151.2899125">
  <ele>363.1</ele>
  <time>2026-09-01T19:57:52Z</time>
  <course>180.63</course>
  <speed>25.410049193183394</speed>
  <fix>3d</fix>
</trkpt>
<trkpt lat="-27.2682202" lon="151.2899127">
  <ele>363.23</ele>
  <time>2026-09-01T19:57:52Z</time>
  <course>180.11</course>
  <speed>25.42</speed>
  <fix>3d</fix>
</trkpt>
<trkpt lat="-27.2682867" lon="151.2899125">
  <ele>363.1</ele>
  <time>2026-09-01T19:57:52Z</time>
  <course>180.66</course>
  <speed>25.42004917383127</speed>
  <fix>3d</fix>
</trkpt>
<trkpt lat="-27.2682202" lon="151.2899127">
  <ele>363.23</ele>
  <time>2026-09-01T19:57:52Z</time>
  <course>180.11</course>
  <speed>25.42</speed>
  <fix>3d</fix>
</trkpt>
<trkpt lat="-27.2683096" lon="151.2899124">
  <ele>363.1</ele>
  <time>2026-09-01T19:57:52Z</time>
  <course>180.63</course>
  <speed>25.42004917383127</speed>
  <fix>3d</fix>
</trkpt>
<trkpt lat="-27.2682659" lon="151.2899126">
  <ele>363.24</ele>
  <time>2026-09-01T19:57:52Z</time>
  <course>180.09</course>
  <speed>25.42</speed>
  <fix>3d</fix>
</trkpt>
<trkpt lat="-27.2683325" lon="151.2899124">
  <ele>363.1</ele>
  <time>2026-09-01T19:57:52Z</time>
  <course>180.61</course>
  <speed>25.42004917383127</speed>
  <fix>3d</fix>
</trkpt>
<trkpt lat="-27.2682659" lon="151.2899126">
  <ele>363.24</ele>
  <time>2026-09-01T19:57:52Z</time>
  <course>180.09</course>
  <speed>25.42</speed>
  <fix>3d</fix>
</trkpt>
<trkpt lat="-27.2683554" lon="151.2899124">
  <ele>363.1</ele>
  <time>2026-09-01T19:57:52Z</time>
  <course>180.56</course>
  <speed>25.420031471262973</speed>
  <fix>3d</fix>
</trkpt>
<trkpt lat="-27.2683117" lon="151.2899125">
  <ele>363.25</ele>
  <time>2026-09-01T19:57:52Z</time>
  <course>180.08</course>
  <speed>25.41</speed>
  <fix>3d</fix>
</trkpt>
<trkpt lat="-27.2683784" lon="151.2899123">
  <ele>363.11</ele>
  <time>2026-09-01T19:57:52Z</time>
  <course>180.54</course>
  <speed>25.420031471262973</speed>
  <fix>3d</fix>
</trkpt>
<trkpt lat="-27.2683117" lon="151.2899125">
  <ele>363.25</ele>
  <time>2026-09-01T19:57:52Z</time>
  <course>180.08</course>
  <speed>25.41</speed>
  <fix>3d</fix>
</trkpt>
<trkpt lat="-27.2684013" lon="151.2899123">
  <ele>363.11</ele>
  <time>2026-09-01T19:57:52Z</time>
  <course>180.51</course>
  <speed>25.420031471262973</speed>
  <fix>3d</fix>
</trkpt>
<trkpt lat="-27.2683573" lon="151.2899125">
  <ele>363.25</ele>
  <time>2026-09-01T19:57:52Z</time>
  <course>180.07</course>
  <speed>25.41</speed>
  <fix>3d</fix>
</trkpt>
<trkpt lat="-27.2684242" lon="151.2899123">
  <ele>363.11</ele>
  <time>2026-09-01T19:57:52Z</time>
  <course>180.51</course>
  <speed>25.430017695628923</speed>
  <fix>3d</fix>
</trkpt>
<trkpt lat="-27.2683573" lon="151.2899125">
  <ele>363.25</ele>
  <time>2026-09-01T19:57:52Z</time>
  <course>180.07</course>
  <speed>25.41</speed>
  <fix>3d</fix>
</trkpt>
<trkpt lat="-27.2684471" lon="151.2899122">
  <ele>363.11</ele>
  <time>2026-09-01T19:57:52Z</time>
  <course>180.53</course>
  <speed>25.430017695628923</speed>
  <fix>3d</fix>
</trkpt>
<trkpt lat="-27.268403" lon="151.2899124">
  <ele>363.26</ele>
  <time>2026-09-01T19:57:52Z</time>
  <course>180.05</course>
  <speed>25.4</speed>
  <fix>3d</fix>
</trkpt>
<trkpt lat="-27.26847" lon="151.2899122">
  <ele>363.11</ele>
  <time>2026-09-01T19:57:52Z</time>
  <course>180.55</course>
  <speed>25.430017695628923</speed>
  <fix>3d</fix>
</trkpt>
<trkpt lat="-27.268403" lon="151.2899124">
  <ele>363.26</ele>
  <time>2026-09-01T19:57:52Z</time>
  <course>180.05</course>
  <speed>25.4</speed>
  <fix>3d</fix>
</trkpt>
<trkpt lat="-27.2684929" lon="151.2899122">
  <ele>363.12</ele>
  <time>2026-09-01T19:57:52Z</time>
  <course>180.56</course>
  <speed>25.430017695628923</speed>
  <fix>3d</fix>
</trkpt>
<trkpt lat="-27.2684486" lon="151.2899124">
  <ele>363.26</ele>
  <time>2026-09-01T19:57:52Z</time>
  <course>180.04</course>
  <speed>25.4</speed>
  <fix>3d</fix>
</trkpt>
<trkpt lat="-27.268516" lon="151.2899122">
  <ele>363.12</ele>
  <time>2026-09-01T19:57:52Z</time>
  <course>180.55</course>
  <speed>25.430031458887342</speed>
  <fix>3d</fix>
</trkpt>
<trkpt lat="-27.2684486" lon="151.2899124">
  <ele>363.26</ele>
  <time>2026-09-01T19:57:52Z</time>
  <course>180.04</course>
  <speed>25.4</speed>
  <fix>3d</fix>
</trkpt>
<trkpt lat="-27.2685388" lon="151.2899122">
  <ele>363.12</ele>
  <time>2026-09-01T19:57:52Z</time>
  <course>180.56</course>
  <speed>25.430031458887342</speed>
  <fix>3d</fix>
</trkpt>
<trkpt lat="-27.2684942" lon="151.2899124">
  <ele>363.26</ele>
  <time>2026-09-01T19:57:52Z</time>
  <course>180.04</course>
  <speed>25.4</speed>
  <fix>3d</fix>
</trkpt>
<trkpt lat="-27.2685617" lon="151.2899121">
  <ele>363.12</ele>
  <time>2026-09-01T19:57:52Z</time>
  <course>180.6</course>
  <speed>25.430031458887342</speed>
  <fix>3d</fix>
</trkpt>
<trkpt lat="-27.2684942" lon="151.2899124">
  <ele>363.26</ele>
  <time>2026-09-01T19:57:52Z</time>
  <course>180.04</course>
  <speed>25.4</speed>
  <fix>3d</fix>
</trkpt>
<trkpt lat="-27.2685846" lon="151.2899121">
  <ele>363.12</ele>
  <time>2026-09-01T19:57:52Z</time>
  <course>180.66</course>
  <speed>25.430031458887342</speed>
  <fix>3d</fix>
</trkpt>
<trkpt lat="-27.2685398" lon="151.2899123">
  <ele>363.26</ele>
  <time>2026-09-01T19:57:52Z</time>
  <course>180.04</course>
  <speed>25.39</speed>
  <fix>3d</fix>
</trkpt>
<trkpt lat="-27.2686074" lon="151.2899121">
  <ele>363.12</ele>
  <time>2026-09-01T19:57:52Z</time>
  <course>180.68</course>
  <speed>25.430049154494373</speed>
  <fix>3d</fix>
</trkpt>
<trkpt lat="-27.2685398" lon="151.2899123">
  <ele>363.26</ele>
  <time>2026-09-01T19:57:52Z</time>
  <course>180.04</course>
  <speed>25.39</speed>
  <fix>3d</fix>
</trkpt>
<trkpt lat="-27.2686303" lon="151.2899121">
  <ele>363.13</ele>
  <time>2026-09-01T19:57:52Z</time>
  <course>180.65</course>
  <speed>25.430049154494373</speed>
  <fix>3d</fix>
</trkpt>
<trkpt lat="-27.2685855" lon="151.2899123">
  <ele>363.27</ele>
  <time>2026-09-01T19:57:52Z</time>
  <course>180.05</course>
  <speed>25.39</speed>
  <fix>3d</fix>
</trkpt>
<trkpt lat="-27.2686531" lon="151.289912">
  <ele>363.13</ele>
  <time>2026-09-01T19:57:52Z</time>
  <course>180.6</course>
  <speed>25.4300707824418</speed>
  <fix>3d</fix>
</trkpt>
<trkpt lat="-27.2685855" lon="151.2899123">
  <ele>363.27</ele>
  <time>2026-09-01T19:57:52Z</time>
  <course>180.05</course>
  <speed>25.39</speed>
  <fix>3d</fix>
</trkpt>
<trkpt lat="-27.268676" lon="151.289912">
  <ele>363.13</ele>
  <time>2026-09-01T19:57:52Z</time>
  <course>180.59</course>
  <speed>25.4300707824418</speed>
  <fix>3d</fix>
</trkpt>
<trkpt lat="-27.2686311" lon="151.2899122">
  <ele>363.27</ele>
  <time>2026-09-01T19:57:52Z</time>
  <course>180.07</course>
  <speed>25.39</speed>
  <fix>3d</fix>
</trkpt>
<trkpt lat="-27.2686988" lon="151.2899119">
  <ele>363.13</ele>
  <time>2026-09-01T19:57:52Z</time>
  <course>180.6</course>
  <speed>25.420070810286898</speed>
  <fix>3d</fix>
</trkpt>
<trkpt lat="-27.2686311" lon="151.2899122">
  <ele>363.27</ele>
  <time>2026-09-01T19:57:52Z</time>
  <course>180.07</course>
  <speed>25.39</speed>
  <fix>3d</fix>
</trkpt>
<trkpt lat="-27.2687216" lon="151.2899119">
  <ele>363.13</ele>
  <time>2026-09-01T19:57:52Z</time>
  <course>180.59</course>
  <speed>25.420070810286898</speed>
  <fix>3d</fix>
</trkpt>
<trkpt lat="-27.2686767" lon="151.2899121">
  <ele>363.28</ele>
  <time>2026-09-01T19:57:52Z</time>
  <course>180.09</course>
  <speed>25.38</speed>
  <fix>3d</fix>
</trkpt>
<trkpt lat="-27.2687444" lon="151.2899118">
  <ele>363.13</ele>
  <time>2026-09-01T19:57:52Z</time>
  <course>180.6</course>
  <speed>25.420070810286898</speed>
  <fix>3d</fix>
</trkpt>
<trkpt lat="-27.2686767" lon="151.2899121">
  <ele>363.28</ele>
  <time>2026-09-01T19:57:52Z</time>
  <course>180.09</course>
  <speed>25.38</speed>
  <fix>3d</fix>
</trkpt>
<trkpt lat="-27.2687673" lon="151.2899118">
  <ele>363.14</ele>
  <time>2026-09-01T19:57:52Z</time>
  <course>180.63</course>
  <speed>25.410070838153914</speed>
  <fix>3d</fix>
</trkpt>
<trkpt lat="-27.2687223" lon="151.289912">
  <ele>363.28</ele>
  <time>2026-09-01T19:57:52Z</time>
  <course>180.08</course>
  <speed>25.38</speed>
  <fix>3d</fix>
</trkpt>
<trkpt lat="-27.2687901" lon="151.2899118">
  <ele>363.14</ele>
  <time>2026-09-01T19:57:52Z</time>
  <course>180.66</course>
  <speed>25.410070838153914</speed>
  <fix>3d</fix>
</trkpt>
<trkpt lat="-27.2687223" lon="151.289912">
  <ele>363.28</ele>
  <time>2026-09-01T19:57:52Z</time>
  <course>180.08</course>
  <speed>25.38</speed>
  <fix>3d</fix>
</trkpt>
<trkpt lat="-27.2688129" lon="151.2899117">
  <ele>363.14</ele>
  <time>2026-09-01T19:57:52Z</time>
  <course>180.64</course>
  <speed>25.410070838153914</speed>
  <fix>3d</fix>
</trkpt>
<trkpt lat="-27.2687679" lon="151.289912">
  <ele>363.28</ele>
  <time>2026-09-01T19:57:52Z</time>
  <course>180.08</course>
  <speed>25.38</speed>
  <fix>3d</fix>
</trkpt>
<trkpt lat="-27.2688357" lon="151.2899117">
  <ele>363.14</ele>
  <time>2026-09-01T19:57:52Z</time>
  <course>180.63</course>
  <speed>25.410070838153914</speed>
  <fix>3d</fix>
</trkpt>
<trkpt lat="-27.2687679" lon="151.289912">
  <ele>363.28</ele>
  <time>2026-09-01T19:57:52Z</time>
  <course>180.08</course>
  <speed>25.38</speed>
  <fix>3d</fix>
</trkpt>
<trkpt lat="-27.2688585" lon="151.2899116">
  <ele>363.14</ele>
  <time>2026-09-01T19:57:52Z</time>
  <course>180.62</course>
  <speed>25.410070838153914</speed>
  <fix>3d</fix>
</trkpt>
<trkpt lat="-27.2688136" lon="151.2899119">
  <ele>363.29</ele>
  <time>2026-09-01T19:57:52Z</time>
  <course>180.08</course>
  <speed>25.38</speed>
  <fix>3d</fix>
</trkpt>
<trkpt lat="-27.2688813" lon="151.2899116">
  <ele>363.13</ele>
  <time>2026-09-01T19:57:52Z</time>
  <course>180.62</course>
  <speed>25.400070866042874</speed>
  <fix>3d</fix>
</trkpt>
<trkpt lat="-27.2688136" lon="151.2899119">
  <ele>363.29</ele>
  <time>2026-09-01T19:57:52Z</time>
  <course>180.08</course>
  <speed>25.38</speed>
  <fix>3d</fix>
</trkpt>
<trkpt lat="-27.2689041" lon="151.2899115">
  <ele>363.14</ele>
  <time>2026-09-01T19:57:52Z</time>
  <course>180.62</course>
  <speed>25.400070866042874</speed>
  <fix>3d</fix>
</trkpt>
<trkpt lat="-27.2688592" lon="151.2899118">
  <ele>363.29</ele>
  <time>2026-09-01T19:57:52Z</time>
  <course>180.08</course>
  <speed>25.37</speed>
  <fix>3d</fix>
</trkpt>
<trkpt lat="-27.2689269" lon="151.2899115">
  <ele>363.14</ele>
  <time>2026-09-01T19:57:52Z</time>
  <course>180.63</course>
  <speed>25.400070866042874</speed>
  <fix>3d</fix>
</trkpt>
<trkpt lat="-27.2688592" lon="151.2899118">
  <ele>363.29</ele>
  <time>2026-09-01T19:57:52Z</time>
  <course>180.08</course>
  <speed>25.37</speed>
  <fix>3d</fix>
</trkpt>
<trkpt lat="-27.2689497" lon="151.2899115">
  <ele>363.14</ele>
  <time>2026-09-01T19:57:52Z</time>
  <course>180.62</course>
  <speed>25.400070866042874</speed>
  <fix>3d</fix>
</trkpt>
<trkpt lat="-27.2689048" lon="151.2899117">
  <ele>363.29</ele>
  <time>2026-09-01T19:57:52Z</time>
  <course>180.08</course>
  <speed>25.37</speed>
  <fix>3d</fix>
</trkpt>
<trkpt lat="-27.2689723" lon="151.2899114">
  <ele>363.14</ele>
  <time>2026-09-01T19:57:52Z</time>
  <course>180.61</course>
  <speed>25.40004921255075</speed>
  <fix>3d</fix>
</trkpt>
<trkpt lat="-27.2689048" lon="151.2899117">
  <ele>363.29</ele>
  <time>2026-09-01T19:57:52Z</time>
  <course>180.08</course>
  <speed>25.37</speed>
  <fix>3d</fix>
</trkpt>
<trkpt lat="-27.2689951" lon="151.2899114">
  <ele>363.14</ele>
  <time>2026-09-01T19:57:52Z</time>
  <course>180.57</course>
  <speed>25.40004921255075</speed>
  <fix>3d</fix>
</trkpt>
<trkpt lat="-27.2689504" lon="151.2899117">
  <ele>363.29</ele>
  <time>2026-09-01T19:57:52Z</time>
  <course>180.07</course>
  <speed>25.37</speed>
  <fix>3d</fix>
</trkpt>
<trkpt lat="-27.2690179" lon="151.2899114">
  <ele>363.14</ele>
  <time>2026-09-01T19:57:52Z</time>
  <course>180.59</course>
  <speed>25.40004921255075</speed>
  <fix>3d</fix>
</trkpt>
<trkpt lat="-27.2689504" lon="151.2899117">
  <ele>363.29</ele>
  <time>2026-09-01T19:57:52Z</time>
  <course>180.07</course>
  <speed>25.37</speed>
  <fix>3d</fix>
</trkpt>
<trkpt lat="-27.2690407" lon="151.2899113">
  <ele>363.13</ele>
  <time>2026-09-01T19:57:52Z</time>
  <course>180.64</course>
  <speed>25.40004921255075</speed>
  <fix>3d</fix>
</trkpt>
<trkpt lat="-27.2689959" lon="151.2899116">
  <ele>363.29</ele>
  <time>2026-09-01T19:57:52Z</time>
  <course>180.07</course>
  <speed>25.38</speed>
  <fix>3d</fix>
</trkpt>
<trkpt lat="-27.2690635" lon="151.2899113">
  <ele>363.12</ele>
  <time>2026-09-01T19:57:52Z</time>
  <course>180.67</course>
  <speed>25.40004921255075</speed>
  <fix>3d</fix>
</trkpt>
<trkpt lat="-27.2689959" lon="151.2899116">
  <ele>363.29</ele>
  <time>2026-09-01T19:57:52Z</time>
  <course>180.07</course>
  <speed>25.38</speed>
  <fix>3d</fix>
</trkpt>
<trkpt lat="-27.2690864" lon="151.2899113">
  <ele>363.11</ele>
  <time>2026-09-01T19:57:52Z</time>
  <course>180.63</course>
  <speed>25.400070866042874</speed>
  <fix>3d</fix>
</trkpt>
<trkpt lat="-27.2690415" lon="151.2899115">
  <ele>363.28</ele>
  <time>2026-09-01T19:57:52Z</time>
  <course>180.07</course>
  <speed>25.38</speed>
  <fix>3d</fix>
</trkpt>
<trkpt lat="-27.2691092" lon="151.2899112">
  <ele>363.1</ele>
  <time>2026-09-01T19:57:52Z</time>
  <course>180.61</course>
  <speed>25.400070866042874</speed>
  <fix>3d</fix>
</trkpt>
<trkpt lat="-27.2690415" lon="151.2899115">
  <ele>363.28</ele>
  <time>2026-09-01T19:57:52Z</time>
  <course>180.07</course>
  <speed>25.38</speed>
  <fix>3d</fix>
</trkpt>
<trkpt lat="-27.2691322" lon="151.2899112">
  <ele>363.1</ele>
  <time>2026-09-01T19:57:52Z</time>
  <course>180.59</course>
  <speed>25.400070866042874</speed>
  <fix>3d</fix>
</trkpt>
<trkpt lat="-27.2690871" lon="151.2899115">
  <ele>363.26</ele>
  <time>2026-09-01T19:57:52Z</time>
  <course>180.07</course>
  <speed>25.38</speed>
  <fix>3d</fix>
</trkpt>
<trkpt lat="-27.269155" lon="151.2899112">
  <ele>363.09</ele>
  <time>2026-09-01T19:57:52Z</time>
  <course>180.62</course>
  <speed>25.40004921255075</speed>
  <fix>3d</fix>
</trkpt>
<trkpt lat="-27.2690871" lon="151.2899115">
  <ele>363.26</ele>
  <time>2026-09-01T19:57:52Z</time>
  <course>180.07</course>
  <speed>25.38</speed>
  <fix>3d</fix>
</trkpt>
<trkpt lat="-27.2691777" lon="151.2899111">
  <ele>363.09</ele>
  <time>2026-09-01T19:57:52Z</time>
  <course>180.62</course>
  <speed>25.400070866042874</speed>
  <fix>3d</fix>
</trkpt>
<trkpt lat="-27.2691327" lon="151.2899114">
  <ele>363.25</ele>
  <time>2026-09-01T19:57:52Z</time>
  <course>180.07</course>
  <speed>25.39</speed>
  <fix>3d</fix>
</trkpt>
<trkpt lat="-27.2692004" lon="151.2899111">
  <ele>363.08</ele>
  <time>2026-09-01T19:57:52Z</time>
  <course>180.6</course>
  <speed>25.400070866042874</speed>
  <fix>3d</fix>
</trkpt>
<trkpt lat="-27.2691327" lon="151.2899114">
  <ele>363.25</ele>
  <time>2026-09-01T19:57:52Z</time>
  <course>180.07</course>
  <speed>25.39</speed>
  <fix>3d</fix>
</trkpt>
<trkpt lat="-27.2692231" lon="151.289911">
  <ele>363.07</ele>
  <time>2026-09-01T19:57:52Z</time>
  <course>180.61</course>
  <speed>25.3900708939538</speed>
  <fix>3d</fix>
</trkpt>
<trkpt lat="-27.2691783" lon="151.2899113">
  <ele>363.24</ele>
  <time>2026-09-01T19:57:52Z</time>
  <course>180.07</course>
  <speed>25.4</speed>
  <fix>3d</fix>
</trkpt>
<trkpt lat="-27.2692458" lon="151.289911">
  <ele>363.07</ele>
  <time>2026-09-01T19:57:52Z</time>
  <course>180.63</course>
  <speed>25.3900708939538</speed>
  <fix>3d</fix>
</trkpt>
<trkpt lat="-27.2691783" lon="151.2899113">
  <ele>363.24</ele>
  <time>2026-09-01T19:57:52Z</time>
  <course>180.07</course>
  <speed>25.4</speed>
  <fix>3d</fix>
</trkpt>
<trkpt lat="-27.2692684" lon="151.289911">
  <ele>363.06</ele>
  <time>2026-09-01T19:57:52Z</time>
  <course>180.63</course>
  <speed>25.380070921886723</speed>
  <fix>3d</fix>
</trkpt>
<trkpt lat="-27.2692241" lon="151.2899113">
  <ele>363.23</ele>
  <time>2026-09-01T19:57:52Z</time>
  <course>180.08</course>
  <speed>25.41</speed>
  <fix>3d</fix>
</trkpt>
<trkpt lat="-27.2692911" lon="151.2899109">
  <ele>363.06</ele>
  <time>2026-09-01T19:57:52Z</time>
  <course>180.59</course>
  <speed>25.380070921886723</speed>
  <fix>3d</fix>
</trkpt>
<trkpt lat="-27.2692241" lon="151.2899113">
  <ele>363.23</ele>
  <time>2026-09-01T19:57:52Z</time>
  <course>180.08</course>
  <speed>25.41</speed>
  <fix>3d</fix>
</trkpt>
<trkpt lat="-27.2693137" lon="151.2899109">
  <ele>363.05</ele>
  <time>2026-09-01T19:57:52Z</time>
  <course>180.58</course>
  <speed>25.380070921886723</speed>
  <fix>3d</fix>
</trkpt>
<trkpt lat="-27.2692698" lon="151.2899112">
  <ele>363.22</ele>
  <time>2026-09-01T19:57:52Z</time>
  <course>180.07</course>
  <speed>25.42</speed>
  <fix>3d</fix>
</trkpt>
<trkpt lat="-27.2693364" lon="151.2899109">
  <ele>363.04</ele>
  <time>2026-09-01T19:57:52Z</time>
  <course>180.63</course>
  <speed>25.380070921886723</speed>
  <fix>3d</fix>
</trkpt>
<trkpt lat="-27.2692698" lon="151.2899112">
  <ele>363.22</ele>
  <time>2026-09-01T19:57:52Z</time>
  <course>180.07</course>
  <speed>25.42</speed>
  <fix>3d</fix>
</trkpt>
<trkpt lat="-27.2693591" lon="151.2899108">
  <ele>363.04</ele>
  <time>2026-09-01T19:57:52Z</time>
  <course>180.61</course>
  <speed>25.380070921886723</speed>
  <fix>3d</fix>
</trkpt>
<trkpt lat="-27.2693154" lon="151.2899111">
  <ele>363.21</ele>
  <time>2026-09-01T19:57:52Z</time>
  <course>180.07</course>
  <speed>25.43</speed>
  <fix>3d</fix>
</trkpt>
<trkpt lat="-27.2693818" lon="151.2899108">
  <ele>363.04</ele>
  <time>2026-09-01T19:57:52Z</time>
  <course>180.64</course>
  <speed>25.370070949841665</speed>
  <fix>3d</fix>
</trkpt>
<trkpt lat="-27.2693154" lon="151.2899111">
  <ele>363.21</ele>
  <time>2026-09-01T19:57:52Z</time>
  <course>180.07</course>
  <speed>25.43</speed>
  <fix>3d</fix>
</trkpt>
<trkpt lat="-27.2694045" lon="151.2899107">
  <ele>363.04</ele>
  <time>2026-09-01T19:57:52Z</time>
  <course>180.63</course>
  <speed>25.370070949841665</speed>
  <fix>3d</fix>
</trkpt>
<trkpt lat="-27.2693611" lon="151.289911">
  <ele>363.2</ele>
  <time>2026-09-01T19:57:52Z</time>
  <course>180.07</course>
  <speed>25.44</speed>
  <fix>3d</fix>
</trkpt>
<trkpt lat="-27.2694272" lon="151.2899107">
  <ele>363.04</ele>
  <time>2026-09-01T19:57:52Z</time>
  <course>180.65</course>
  <speed>25.360070977818655</speed>
  <fix>3d</fix>
</trkpt>
<trkpt lat="-27.2693611" lon="151.289911">
  <ele>363.2</ele>
  <time>2026-09-01T19:57:52Z</time>
  <course>180.07</course>
  <speed>25.44</speed>
  <fix>3d</fix>
</trkpt>
<trkpt lat="-27.2694498" lon="151.2899107">
  <ele>363.03</ele>
  <time>2026-09-01T19:57:52Z</time>
  <course>180.71</course>
  <speed>25.360070977818655</speed>
  <fix>3d</fix>
</trkpt>
<trkpt lat="-27.2694068" lon="151.289911">
  <ele>363.2</ele>
  <time>2026-09-01T19:57:52Z</time>
  <course>180.07</course>
  <speed>25.44</speed>
  <fix>3d</fix>
</trkpt>
<trkpt lat="-27.2694725" lon="151.2899106">
  <ele>363.03</ele>
  <time>2026-09-01T19:57:52Z</time>
  <course>180.74</course>
  <speed>25.360096608648792</speed>
  <fix>3d</fix>
</trkpt>
<trkpt lat="-27.2694068" lon="151.289911">
  <ele>363.2</ele>
  <time>2026-09-01T19:57:52Z</time>
  <course>180.07</course>
  <speed>25.44</speed>
  <fix>3d</fix>
</trkpt>
<trkpt lat="-27.2694952" lon="151.2899106">
  <ele>363.03</ele>
  <time>2026-09-01T19:57:52Z</time>
  <course>180.68</course>
  <speed>25.360096608648792</speed>
  <fix>3d</fix>
</trkpt>
<trkpt lat="-27.2694525" lon="151.2899109">
  <ele>363.2</ele>
  <time>2026-09-01T19:57:52Z</time>
  <course>180.08</course>
  <speed>25.44</speed>
  <fix>3d</fix>
</trkpt>
<trkpt lat="-27.269518" lon="151.2899105">
  <ele>363.02</ele>
  <time>2026-09-01T19:57:52Z</time>
  <course>180.61</course>
  <speed>25.35009664675857</speed>
  <fix>3d</fix>
</trkpt>
<trkpt lat="-27.2694525" lon="151.2899109">
  <ele>363.2</ele>
  <time>2026-09-01T19:57:52Z</time>
  <course>180.08</course>
  <speed>25.44</speed>
  <fix>3d</fix>
</trkpt>
<trkpt lat="-27.2695409" lon="151.2899105">
  <ele>363.02</ele>
  <time>2026-09-01T19:57:52Z</time>
  <course>180.62</course>
  <speed>25.360096608648792</speed>
  <fix>3d</fix>
</trkpt>
<trkpt lat="-27.2694982" lon="151.2899108">
  <ele>363.19</ele>
  <time>2026-09-01T19:57:52Z</time>
  <course>180.1</course>
  <speed>25.44</speed>
  <fix>3d</fix>
</trkpt>
<trkpt lat="-27.2695637" lon="151.2899104">
  <ele>363.02</ele>
  <time>2026-09-01T19:57:52Z</time>
  <course>180.64</course>
  <speed>25.360096608648792</speed>
  <fix>3d</fix>
</trkpt>
<trkpt lat="-27.2694982" lon="151.2899108">
  <ele>363.19</ele>
  <time>2026-09-01T19:57:52Z</time>
  <course>180.1</course>
  <speed>25.44</speed>
  <fix>3d</fix>
</trkpt>
<trkpt lat="-27.2695865" lon="151.2899104">
  <ele>363.01</ele>
  <time>2026-09-01T19:57:52Z</time>
  <course>180.68</course>
  <speed>25.360096608648792</speed>
  <fix>3d</fix>
</trkpt>
<trkpt lat="-27.2695439" lon="151.2899107">
  <ele>363.19</ele>
  <time>2026-09-01T19:57:52Z</time>
  <course>180.1</course>
  <speed>25.45</speed>
  <fix>3d</fix>
</trkpt>
<trkpt lat="-27.2696092" lon="151.2899103">
  <ele>363.01</ele>
  <time>2026-09-01T19:57:52Z</time>
  <course>180.66</course>
  <speed>25.35009664675857</speed>
  <fix>3d</fix>
</trkpt>
<trkpt lat="-27.2695439" lon="151.2899107">
  <ele>363.19</ele>
  <time>2026-09-01T19:57:52Z</time>
  <course>180.1</course>
  <speed>25.45</speed>
  <fix>3d</fix>
</trkpt>
<trkpt lat="-27.269632" lon="151.2899103">
  <ele>363.01</ele>
  <time>2026-09-01T19:57:52Z</time>
  <course>180.65</course>
  <speed>25.35009664675857</speed>
  <fix>3d</fix>
</trkpt>
<trkpt lat="-27.2695896" lon="151.2899106">
  <ele>363.19</ele>
  <time>2026-09-01T19:57:52Z</time>
  <course>180.1</course>
  <speed>25.45</speed>
  <fix>3d</fix>
</trkpt>
<trkpt lat="-27.2696548" lon="151.2899102">
  <ele>363.01</ele>
  <time>2026-09-01T19:57:52Z</time>
  <course>180.65</course>
  <speed>25.35009664675857</speed>
  <fix>3d</fix>
</trkpt>
<trkpt lat="-27.2695896" lon="151.2899106">
  <ele>363.19</ele>
  <time>2026-09-01T19:57:52Z</time>
  <course>180.1</course>
  <speed>25.45</speed>
  <fix>3d</fix>
</trkpt>
<trkpt lat="-27.2696776" lon="151.2899102">
  <ele>363.02</ele>
  <time>2026-09-01T19:57:52Z</time>
  <course>180.66</course>
  <speed>25.35009664675857</speed>
  <fix>3d</fix>
</trkpt>
<trkpt lat="-27.2696353" lon="151.2899105">
  <ele>363.19</ele>
  <time>2026-09-01T19:57:52Z</time>
  <course>180.11</course>
  <speed>25.44</speed>
  <fix>3d</fix>
</trkpt>
<trkpt lat="-27.2697004" lon="151.2899101">
  <ele>363.02</ele>
  <time>2026-09-01T19:57:52Z</time>
  <course>180.68</course>
  <speed>25.35009664675857</speed>
  <fix>3d</fix>
</trkpt>
<trkpt lat="-27.2696353" lon="151.2899105">
  <ele>363.19</ele>
  <time>2026-09-01T19:57:52Z</time>
  <course>180.11</course>
  <speed>25.44</speed>
  <fix>3d</fix>
</trkpt>
<trkpt lat="-27.2697232" lon="151.2899101">
  <ele>363.02</ele>
  <time>2026-09-01T19:57:52Z</time>
  <course>180.7</course>
  <speed>25.340096684898423</speed>
  <fix>3d</fix>
</trkpt>
<trkpt lat="-27.269681" lon="151.2899104">
  <ele>363.19</ele>
  <time>2026-09-01T19:57:52Z</time>
  <course>180.11</course>
  <speed>25.44</speed>
  <fix>3d</fix>
</trkpt>
<trkpt lat="-27.2697461" lon="151.28991">
  <ele>363.03</ele>
  <time>2026-09-01T19:57:52Z</time>
  <course>180.7</course>
  <speed>25.340096684898423</speed>
  <fix>3d</fix>
</trkpt>
<trkpt lat="-27.269681" lon="151.2899104">
  <ele>363.19</ele>
  <time>2026-09-01T19:57:52Z</time>
  <course>180.11</course>
  <speed>25.44</speed>
  <fix>3d</fix>
</trkpt>
<trkpt lat="-27.2697691" lon="151.28991">
  <ele>363.04</ele>
  <time>2026-09-01T19:57:52Z</time>
  <course>180.73</course>
  <speed>25.350126232427325</speed>
  <fix>3d</fix>
</trkpt>
<trkpt lat="-27.2697268" lon="151.2899103">
  <ele>363.19</ele>
  <time>2026-09-01T19:57:52Z</time>
  <course>180.1</course>
  <speed>25.44</speed>
  <fix>3d</fix>
</trkpt>
<trkpt lat="-27.2697919" lon="151.2899099">
  <ele>363.04</ele>
  <time>2026-09-01T19:57:52Z</time>
  <course>180.72</course>
  <speed>25.350126232427325</speed>
  <fix>3d</fix>
</trkpt>
<trkpt lat="-27.2697268" lon="151.2899103">
  <ele>363.19</ele>
  <time>2026-09-01T19:57:52Z</time>
  <course>180.1</course>
  <speed>25.44</speed>
  <fix>3d</fix>
</trkpt>
<trkpt lat="-27.2698148" lon="151.2899099">
  <ele>363.05</ele>
  <time>2026-09-01T19:57:52Z</time>
  <course>180.76</course>
  <speed>25.350126232427325</speed>
  <fix>3d</fix>
</trkpt>
<trkpt lat="-27.2697726" lon="151.2899102">
  <ele>363.2</ele>
  <time>2026-09-01T19:57:52Z</time>
  <course>180.11</course>
  <speed>25.44</speed>
  <fix>3d</fix>
</trkpt>
<trkpt lat="-27.2698376" lon="151.2899098">
  <ele>363.05</ele>
  <time>2026-09-01T19:57:52Z</time>
  <course>180.75</course>
  <speed>25.350159762810176</speed>
  <fix>3d</fix>
</trkpt>
<trkpt lat="-27.2697726" lon="151.2899102">
  <ele>363.2</ele>
  <time>2026-09-01T19:57:52Z</time>
  <course>180.11</course>
  <speed>25.44</speed>
  <fix>3d</fix>
</trkpt>
<trkpt lat="-27.2698605" lon="151.2899098">
  <ele>363.05</ele>
  <time>2026-09-01T19:57:52Z</time>
  <course>180.73</course>
  <speed>25.360159699812616</speed>
  <fix>3d</fix>
</trkpt>
<trkpt lat="-27.2698183" lon="151.2899101">
  <ele>363.2</ele>
  <time>2026-09-01T19:57:52Z</time>
  <course>180.12</course>
  <speed>25.44</speed>
  <fix>3d</fix>
</trkpt>
<trkpt lat="-27.2698834" lon="151.2899097">
  <ele>363.05</ele>
  <time>2026-09-01T19:57:52Z</time>
  <course>180.71</course>
  <speed>25.360159699812616</speed>
  <fix>3d</fix>
</trkpt>
<trkpt lat="-27.2698183" lon="151.2899101">
  <ele>363.2</ele>
  <time>2026-09-01T19:57:52Z</time>
  <course>180.12</course>
  <speed>25.44</speed>
  <fix>3d</fix>
</trkpt>
<trkpt lat="-27.2699063" lon="151.2899096">
  <ele>363.06</ele>
  <time>2026-09-01T19:57:52Z</time>
  <course>180.74</course>
  <speed>25.360197160116872</speed>
  <fix>3d</fix>
</trkpt>
<trkpt lat="-27.269864" lon="151.28991">
  <ele>363.21</ele>
  <time>2026-09-01T19:57:52Z</time>
  <course>180.14</course>
  <speed>25.44</speed>
  <fix>3d</fix>
</trkpt>
<trkpt lat="-27.269929" lon="151.2899095">
  <ele>363.06</ele>
  <time>2026-09-01T19:57:52Z</time>
  <course>180.78</course>
  <speed>25.360197160116872</speed>
  <fix>3d</fix>
</trkpt>
<trkpt lat="-27.269864" lon="151.28991">
  <ele>363.21</ele>
  <time>2026-09-01T19:57:52Z</time>
  <course>180.14</course>
  <speed>25.44</speed>
  <fix>3d</fix>
</trkpt>
<trkpt lat="-27.2699519" lon="151.2899095">
  <ele>363.06</ele>
  <time>2026-09-01T19:57:52Z</time>
  <course>180.76</course>
  <speed>25.370197082403596</speed>
  <fix>3d</fix>
</trkpt>
<trkpt lat="-27.2699097" lon="151.2899099">
  <ele>363.21</ele>
  <time>2026-09-01T19:57:52Z</time>
  <course>180.15</course>
  <speed>25.44</speed>
  <fix>3d</fix>
</trkpt>
<trkpt lat="-27.2699749" lon="151.2899094">
  <ele>363.07</ele>
  <time>2026-09-01T19:57:52Z</time>
  <course>180.72</course>
  <speed>25.370197082403596</speed>
  <fix>3d</fix>
</trkpt>
<trkpt lat="-27.2699097" lon="151.2899099">
  <ele>363.21</ele>
  <time>2026-09-01T19:57:52Z</time>
  <course>180.15</course>
  <speed>25.44</speed>
  <fix>3d</fix>
</trkpt>
<trkpt lat="-27.2699978" lon="151.2899093">
  <ele>363.07</ele>
  <time>2026-09-01T19:57:52Z</time>
  <course>180.7</course>
  <speed>25.370197082403596</speed>
  <fix>3d</fix>
</trkpt>
<trkpt lat="-27.2699554" lon="151.2899097">
  <ele>363.21</ele>
  <time>2026-09-01T19:57:52Z</time>
  <course>180.16</course>
  <speed>25.43</speed>
  <fix>3d</fix>
</trkpt>
<trkpt lat="-27.2700209" lon="151.2899092">
  <ele>363.08</ele>
  <time>2026-09-01T19:57:52Z</time>
  <course>180.71</course>
  <speed>25.380159573966434</speed>
  <fix>3d</fix>
</trkpt>
<trkpt lat="-27.2699554" lon="151.2899097">
  <ele>363.21</ele>
  <time>2026-09-01T19:57:52Z</time>
  <course>180.16</course>
  <speed>25.43</speed>
  <fix>3d</fix>
</trkpt>
<trkpt lat="-27.2700438" lon="151.2899092">
  <ele>363.08</ele>
  <time>2026-09-01T19:57:52Z</time>
  <course>180.69</course>
  <speed>25.380159573966434</speed>
  <fix>3d</fix>
</trkpt>
<trkpt lat="-27.2700011" lon="151.2899096">
  <ele>363.22</ele>
  <time>2026-09-01T19:57:52Z</time>
  <course>180.16</course>
  <speed>25.43</speed>
  <fix>3d</fix>
</trkpt>
<trkpt lat="-27.2700667" lon="151.2899091">
  <ele>363.09</ele>
  <time>2026-09-01T19:57:52Z</time>
  <course>180.65</course>
  <speed>25.380159573966434</speed>
  <fix>3d</fix>
</trkpt>
<trkpt lat="-27.2700011" lon="151.2899096">
  <ele>363.22</ele>
  <time>2026-09-01T19:57:52Z</time>
  <course>180.16</course>
  <speed>25.43</speed>
  <fix>3d</fix>
</trkpt>
<trkpt lat="-27.2700897" lon="151.2899091">
  <ele>363.1</ele>
  <time>2026-09-01T19:57:52Z</time>
  <course>180.59</course>
  <speed>25.38012608321716</speed>
  <fix>3d</fix>
</trkpt>
<trkpt lat="-27.2700467" lon="151.2899095">
  <ele>363.23</ele>
  <time>2026-09-01T19:57:52Z</time>
  <course>180.14</course>
  <speed>25.42</speed>
  <fix>3d</fix>
</trkpt>
<trkpt lat="-27.2701126" lon="151.289909">
  <ele>363.1</ele>
  <time>2026-09-01T19:57:52Z</time>
  <course>180.6</course>
  <speed>25.38012608321716</speed>
  <fix>3d</fix>
</trkpt>
<trkpt lat="-27.2700467" lon="151.2899095">
  <ele>363.23</ele>
  <time>2026-09-01T19:57:52Z</time>
  <course>180.14</course>
  <speed>25.42</speed>
  <fix>3d</fix>
</trkpt>
<trkpt lat="-27.2701355" lon="151.289909">
  <ele>363.1</ele>
  <time>2026-09-01T19:57:52Z</time>
  <course>180.63</course>
  <speed>25.390096494499584</speed>
  <fix>3d</fix>
</trkpt>
<trkpt lat="-27.2700924" lon="151.2899093">
  <ele>363.24</ele>
  <time>2026-09-01T19:57:52Z</time>
  <course>180.12</course>
  <speed>25.42</speed>
  <fix>3d</fix>
</trkpt>
<trkpt lat="-27.2701584" lon="151.2899089">
  <ele>363.1</ele>
  <time>2026-09-01T19:57:52Z</time>
  <course>180.7</course>
  <speed>25.3900708939538</speed>
  <fix>3d</fix>
</trkpt>
<trkpt lat="-27.2700924" lon="151.2899093">
  <ele>363.24</ele>
  <time>2026-09-01T19:57:52Z</time>
  <course>180.12</course>
  <speed>25.42</speed>
  <fix>3d</fix>
</trkpt>
<trkpt lat="-27.2701813" lon="151.2899089">
  <ele>363.1</ele>
  <time>2026-09-01T19:57:52Z</time>
  <course>180.73</course>
  <speed>25.3900708939538</speed>
  <fix>3d</fix>
</trkpt>
<trkpt lat="-27.2701381" lon="151.2899092">
  <ele>363.25</ele>
  <time>2026-09-01T19:57:52Z</time>
  <course>180.09</course>
  <speed>25.41</speed>
  <fix>3d</fix>
</trkpt>
<trkpt lat="-27.2702042" lon="151.2899088">
  <ele>363.1</ele>
  <time>2026-09-01T19:57:52Z</time>
  <course>180.71</course>
  <speed>25.400096456509768</speed>
  <fix>3d</fix>
</trkpt>
<trkpt lat="-27.2701381" lon="151.2899092">
  <ele>363.25</ele>
  <time>2026-09-01T19:57:52Z</time>
  <course>180.09</course>
  <speed>25.41</speed>
  <fix>3d</fix>
</trkpt>
<trkpt lat="-27.2702271" lon="151.2899088">
  <ele>363.1</ele>
  <time>2026-09-01T19:57:52Z</time>
  <course>180.68</course>
  <speed>25.400070866042874</speed>
  <fix>3d</fix>
</trkpt>
<trkpt lat="-27.2701838" lon="151.2899091">
  <ele>363.25</ele>
  <time>2026-09-01T19:57:52Z</time>
  <course>180.08</course>
  <speed>25.41</speed>
  <fix>3d</fix>
</trkpt>
<trkpt lat="-27.2702499" lon="151.2899088">
  <ele>363.1</ele>
  <time>2026-09-01T19:57:52Z</time>
  <course>180.61</course>
  <speed>25.410070838153914</speed>
  <fix>3d</fix>
</trkpt>
<trkpt lat="-27.2701838" lon="151.2899091">
  <ele>363.25</ele>
  <time>2026-09-01T19:57:52Z</time>
  <course>180.08</course>
  <speed>25.41</speed>
  <fix>3d</fix>
</trkpt>
<trkpt lat="-27.2702728" lon="151.2899087">
  <ele>363.1</ele>
  <time>2026-09-01T19:57:52Z</time>
  <course>180.53</course>
  <speed>25.410049193183394</speed>
  <fix>3d</fix>
</trkpt>
<trkpt lat="-27.2702295" lon="151.2899091">
  <ele>363.25</ele>
  <time>2026-09-01T19:57:52Z</time>
  <course>180.09</course>
  <speed>25.42</speed>
  <fix>3d</fix>
</trkpt>
<trkpt lat="-27.2702957" lon="151.2899087">
  <ele>363.1</ele>
  <time>2026-09-01T19:57:52Z</time>
  <course>180.57</course>
  <speed>25.40004921255075</speed>
  <fix>3d</fix>
</trkpt>
<trkpt lat="-27.2702295" lon="151.2899091">
  <ele>363.25</ele>
  <time>2026-09-01T19:57:52Z</time>
  <course>180.09</course>
  <speed>25.42</speed>
  <fix>3d</fix>
</trkpt>
<trkpt lat="-27.2703186" lon="151.2899087">
  <ele>363.1</ele>
  <time>2026-09-01T19:57:52Z</time>
  <course>180.6</course>
  <speed>25.410031483648346</speed>
  <fix>3d</fix>
</trkpt>
<trkpt lat="-27.2702752" lon="151.289909">
  <ele>363.25</ele>
  <time>2026-09-01T19:57:52Z</time>
  <course>180.07</course>
  <speed>25.41</speed>
  <fix>3d</fix>
</trkpt>
<trkpt lat="-27.2703415" lon="151.2899087">
  <ele>363.1</ele>
  <time>2026-09-01T19:57:52Z</time>
  <course>180.56</course>
  <speed>25.410049193183394</speed>
  <fix>3d</fix>
</trkpt>
<trkpt lat="-27.2702752" lon="151.289909">
  <ele>363.25</ele>
  <time>2026-09-01T19:57:52Z</time>
  <course>180.07</course>
  <speed>25.41</speed>
  <fix>3d</fix>
</trkpt>
<trkpt lat="-27.2703644" lon="151.2899086">
  <ele>363.1</ele>
  <time>2026-09-01T19:57:52Z</time>
  <course>180.54</course>
  <speed>25.420031471262973</speed>
  <fix>3d</fix>
</trkpt>
<trkpt lat="-27.2703208" lon="151.2899089">
  <ele>363.25</ele>
  <time>2026-09-01T19:57:52Z</time>
  <course>180.05</course>
  <speed>25.41</speed>
  <fix>3d</fix>
</trkpt>
<trkpt lat="-27.2703873" lon="151.2899086">
  <ele>363.1</ele>
  <time>2026-09-01T19:57:52Z</time>
  <course>180.58</course>
  <speed>25.420031471262973</speed>
  <fix>3d</fix>
</trkpt>
<trkpt lat="-27.2703208" lon="151.2899089">
  <ele>363.25</ele>
  <time>2026-09-01T19:57:52Z</time>
  <course>180.05</course>
  <speed>25.41</speed>
  <fix>3d</fix>
</trkpt>
<trkpt lat="-27.2704101" lon="151.2899086">
  <ele>363.1</ele>
  <time>2026-09-01T19:57:52Z</time>
  <course>180.59</course>
  <speed>25.420031471262973</speed>
  <fix>3d</fix>
</trkpt>
<trkpt lat="-27.2703665" lon="151.2899089">
  <ele>363.25</ele>
  <time>2026-09-01T19:57:52Z</time>
  <course>180.05</course>
  <speed>25.41</speed>
  <fix>3d</fix>
</trkpt>
<trkpt lat="-27.270433" lon="151.2899086">
  <ele>363.1</ele>
  <time>2026-09-01T19:57:52Z</time>
  <course>180.56</course>
  <speed>25.420017702590215</speed>
  <fix>3d</fix>
</trkpt>
<trkpt lat="-27.2703665" lon="151.2899089">
  <ele>363.25</ele>
  <time>2026-09-01T19:57:52Z</time>
  <course>180.05</course>
  <speed>25.41</speed>
  <fix>3d</fix>
</trkpt>
<trkpt lat="-27.2704559" lon="151.2899086">
  <ele>363.11</ele>
  <time>2026-09-01T19:57:52Z</time>
  <course>180.53</course>
  <speed>25.420017702590215</speed>
  <fix>3d</fix>
</trkpt>
<trkpt lat="-27.2704121" lon="151.2899089">
  <ele>363.25</ele>
  <time>2026-09-01T19:57:52Z</time>
  <course>180.03</course>
  <speed>25.41</speed>
  <fix>3d</fix>
</trkpt>
<trkpt lat="-27.2704787" lon="151.2899086">
  <ele>363.11</ele>
  <time>2026-09-01T19:57:52Z</time>
  <course>180.54</course>
  <speed>25.420017702590215</speed>
  <fix>3d</fix>
</trkpt>
<trkpt lat="-27.2704121" lon="151.2899089">
  <ele>363.25</ele>
  <time>2026-09-01T19:57:52Z</time>
  <course>180.03</course>
  <speed>25.41</speed>
  <fix>3d</fix>
</trkpt>
<trkpt lat="-27.2705018" lon="151.2899086">
  <ele>363.12</ele>
  <time>2026-09-01T19:57:52Z</time>
  <course>180.58</course>
  <speed>25.420031471262973</speed>
  <fix>3d</fix>
</trkpt>
<trkpt lat="-27.2704578" lon="151.2899088">
  <ele>363.25</ele>
  <time>2026-09-01T19:57:52Z</time>
  <course>180.02</course>
  <speed>25.41</speed>
  <fix>3d</fix>
</trkpt>
<trkpt lat="-27.2705246" lon="151.2899086">
  <ele>363.12</ele>
  <time>2026-09-01T19:57:52Z</time>
  <course>180.6</course>
  <speed>25.420031471262973</speed>
  <fix>3d</fix>
</trkpt>
<trkpt lat="-27.2704578" lon="151.2899088">
  <ele>363.25</ele>
  <time>2026-09-01T19:57:52Z</time>
  <course>180.02</course>
  <speed>25.41</speed>
  <fix>3d</fix>
</trkpt>
<trkpt lat="-27.2705475" lon="151.2899085">
  <ele>363.12</ele>
  <time>2026-09-01T19:57:52Z</time>
  <course>180.61</course>
  <speed>25.420031471262973</speed>
  <fix>3d</fix>
</trkpt>
<trkpt lat="-27.2705034" lon="151.2899088">
  <ele>363.26</ele>
  <time>2026-09-01T19:57:52Z</time>
  <course>180.03</course>
  <speed>25.41</speed>
  <fix>3d</fix>
</trkpt>
<trkpt lat="-27.2705703" lon="151.2899085">
  <ele>363.12</ele>
  <time>2026-09-01T19:57:52Z</time>
  <course>180.59</course>
  <speed>25.410031483648346</speed>
  <fix>3d</fix>
</trkpt>
<trkpt lat="-27.2705034" lon="151.2899088">
  <ele>363.26</ele>
  <time>2026-09-01T19:57:52Z</time>
  <course>180.03</course>
  <speed>25.41</speed>
  <fix>3d</fix>
</trkpt>
<trkpt lat="-27.2705931" lon="151.2899085">
  <ele>363.12</ele>
  <time>2026-09-01T19:57:52Z</time>
  <course>180.53</course>
  <speed>25.410031483648346</speed>
  <fix>3d</fix>
</trkpt>
<trkpt lat="-27.2705491" lon="151.2899088">
  <ele>363.26</ele>
  <time>2026-09-01T19:57:52Z</time>
  <course>180.04</course>
  <speed>25.4</speed>
  <fix>3d</fix>
</trkpt>
<trkpt lat="-27.270616" lon="151.2899085">
  <ele>363.12</ele>
  <time>2026-09-01T19:57:52Z</time>
  <course>180.52</course>
  <speed>25.410017709556993</speed>
  <fix>3d</fix>
</trkpt>
<trkpt lat="-27.2705491" lon="151.2899088">
  <ele>363.26</ele>
  <time>2026-09-01T19:57:52Z</time>
  <course>180.04</course>
  <speed>25.4</speed>
  <fix>3d</fix>
</trkpt>
<trkpt lat="-27.2706388" lon="151.2899085">
  <ele>363.12</ele>
  <time>2026-09-01T19:57:52Z</time>
  <course>180.49</course>
  <speed>25.410017709556993</speed>
  <fix>3d</fix>
</trkpt>
<trkpt lat="-27.2705947" lon="151.2899087">
  <ele>363.27</ele>
  <time>2026-09-01T19:57:52Z</time>
  <course>180.04</course>
  <speed>25.4</speed>
  <fix>3d</fix>
</trkpt>
<trkpt lat="-27.2706616" lon="151.2899085">
  <ele>363.12</ele>
  <time>2026-09-01T19:57:52Z</time>
  <course>180.5</course>
  <speed>25.41000787091574</speed>
  <fix>3d</fix>
</trkpt>
<trkpt lat="-27.2705947" lon="151.2899087">
  <ele>363.27</ele>
  <time>2026-09-01T19:57:52Z</time>
  <course>180.04</course>
  <speed>25.4</speed>
  <fix>3d</fix>
</trkpt>
<trkpt lat="-27.2706844" lon="151.2899085">
  <ele>363.13</ele>
  <time>2026-09-01T19:57:52Z</time>
  <course>180.51</course>
  <speed>25.41000787091574</speed>
  <fix>3d</fix>
</trkpt>
<trkpt lat="-27.2706404" lon="151.2899086">
  <ele>363.27</ele>
  <time>2026-09-01T19:57:52Z</time>
  <course>180.03</course>
  <speed>25.4</speed>
  <fix>3d</fix>
</trkpt>
<trkpt lat="-27.2707072" lon="151.2899085">
  <ele>363.13</ele>
  <time>2026-09-01T19:57:52Z</time>
  <course>180.53</course>
  <speed>25.410001967729162</speed>
  <fix>3d</fix>
</trkpt>
<trkpt lat="-27.2706404" lon="151.2899086">
  <ele>363.27</ele>
  <time>2026-09-01T19:57:52Z</time>
  <course>180.03</course>
  <speed>25.4</speed>
  <fix>3d</fix>
</trkpt>
<trkpt lat="-27.2707301" lon="151.2899085">
  <ele>363.13</ele>
  <time>2026-09-01T19:57:52Z</time>
  <course>180.57</course>
  <speed>25.410001967729162</speed>
  <fix>3d</fix>
</trkpt>
<trkpt lat="-27.2706861" lon="151.2899086">
  <ele>363.27</ele>
  <time>2026-09-01T19:57:52Z</time>
  <course>180.0</course>
  <speed>25.4</speed>
  <fix>3d</fix>
</trkpt>
<trkpt lat="-27.2707529" lon="151.2899085">
  <ele>363.13</ele>
  <time>2026-09-01T19:57:52Z</time>
  <course>180.55</course>
  <speed>25.410001967729162</speed>
  <fix>3d</fix>
</trkpt>
<trkpt lat="-27.2706861" lon="151.2899086">
  <ele>363.27</ele>
  <time>2026-09-01T19:57:52Z</time>
  <course>180.0</course>
  <speed>25.4</speed>
  <fix>3d</fix>
</trkpt>
<trkpt lat="-27.2707757" lon="151.2899085">
  <ele>363.13</ele>
  <time>2026-09-01T19:57:52Z</time>
  <course>180.5</course>
  <speed>25.40000196850386</speed>
  <fix>3d</fix>
</trkpt>
<trkpt lat="-27.2707317" lon="151.2899086">
  <ele>363.27</ele>
  <time>2026-09-01T19:57:52Z</time>
  <course>179.99</course>
  <speed>25.4</speed>
  <fix>3d</fix>
</trkpt>
<trkpt lat="-27.2707985" lon="151.2899085">
  <ele>363.13</ele>
  <time>2026-09-01T19:57:52Z</time>
  <course>180.49</course>
  <speed>25.410001967729162</speed>
  <fix>3d</fix>
</trkpt>
<trkpt lat="-27.2707317" lon="151.2899086">
  <ele>363.27</ele>
  <time>2026-09-01T19:57:52Z</time>
  <course>179.99</course>
  <speed>25.4</speed>
  <fix>3d</fix>
</trkpt>
<trkpt lat="-27.2708214" lon="151.2899085">
  <ele>363.13</ele>
  <time>2026-09-01T19:57:52Z</time>
  <course>180.49</course>
  <speed>25.410001967729162</speed>
  <fix>3d</fix>
</trkpt>
<trkpt lat="-27.2707774" lon="151.2899086">
  <ele>363.27</ele>
  <time>2026-09-01T19:57:52Z</time>
  <course>179.98</course>
  <speed>25.39</speed>
  <fix>3d</fix>
</trkpt>
<trkpt lat="-27.2708442" lon="151.2899085">
  <ele>363.13</ele>
  <time>2026-09-01T19:57:52Z</time>
  <course>180.46</course>
  <speed>25.410001967729162</speed>
  <fix>3d</fix>
</trkpt>
<trkpt lat="-27.2707774" lon="151.2899086">
  <ele>363.27</ele>
  <time>2026-09-01T19:57:52Z</time>
  <course>179.98</course>
  <speed>25.39</speed>
  <fix>3d</fix>
</trkpt>
<trkpt lat="-27.270867" lon="151.2899085">
  <ele>363.13</ele>
  <time>2026-09-01T19:57:52Z</time>
  <course>180.49</course>
  <speed>25.420001966955077</speed>
  <fix>3d</fix>
</trkpt>
<trkpt lat="-27.270823" lon="151.2899086">
  <ele>363.26</ele>
  <time>2026-09-01T19:57:52Z</time>
  <course>179.98</course>
  <speed>25.4</speed>
  <fix>3d</fix>
</trkpt>
<trkpt lat="-27.2708899" lon="151.2899085">
  <ele>363.13</ele>
  <time>2026-09-01T19:57:52Z</time>
  <course>180.51</course>
  <speed>25.420007867819393</speed>
  <fix>3d</fix>
</trkpt>
<trkpt lat="-27.270823" lon="151.2899086">
  <ele>363.26</ele>
  <time>2026-09-01T19:57:52Z</time>
  <course>179.98</course>
  <speed>25.4</speed>
  <fix>3d</fix>
</trkpt>
<trkpt lat="-27.2709127" lon="151.2899085">
  <ele>363.12</ele>
  <time>2026-09-01T19:57:52Z</time>
  <course>180.49</course>
  <speed>25.420007867819393</speed>
  <fix>3d</fix>
</trkpt>
<trkpt lat="-27.2708686" lon="151.2899086">
  <ele>363.26</ele>
  <time>2026-09-01T19:57:52Z</time>
  <course>179.99</course>
  <speed>25.4</speed>
  <fix>3d</fix>
</trkpt>
<trkpt lat="-27.2709356" lon="151.2899085">
  <ele>363.12</ele>
  <time>2026-09-01T19:57:52Z</time>
  <course>180.41</course>
  <speed>25.420007867819393</speed>
  <fix>3d</fix>
</trkpt>
<trkpt lat="-27.2708686" lon="151.2899086">
  <ele>363.26</ele>
  <time>2026-09-01T19:57:52Z</time>
  <course>179.99</course>
  <speed>25.4</speed>
  <fix>3d</fix>
</trkpt>
<trkpt lat="-27.2709584" lon="151.2899085">
  <ele>363.12</ele>
  <time>2026-09-01T19:57:52Z</time>
  <course>180.41</course>
  <speed>25.420007867819393</speed>
  <fix>3d</fix>
</trkpt>
<trkpt lat="-27.2709142" lon="151.2899086">
  <ele>363.25</ele>
  <time>2026-09-01T19:57:52Z</time>
  <course>180.0</course>
  <speed>25.41</speed>
  <fix>3d</fix>
</trkpt>
<trkpt lat="-27.270981" lon="151.2899085">
  <ele>363.12</ele>
  <time>2026-09-01T19:57:52Z</time>
  <course>180.48</course>
  <speed>25.420001966955077</speed>
  <fix>3d</fix>
</trkpt>
<trkpt lat="-27.2709142" lon="151.2899086">
  <ele>363.25</ele>
  <time>2026-09-01T19:57:52Z</time>
  <course>180.0</course>
  <speed>25.41</speed>
  <fix>3d</fix>
</trkpt>
<trkpt lat="-27.2710039" lon="151.2899085">
  <ele>363.12</ele>
  <time>2026-09-01T19:57:52Z</time>
  <course>180.51</course>
  <speed>25.420007867819393</speed>
  <fix>3d</fix>
</trkpt>
<trkpt lat="-27.2709599" lon="151.2899086">
  <ele>363.24</ele>
  <time>2026-09-01T19:57:52Z</time>
  <course>179.99</course>
  <speed>25.41</speed>
  <fix>3d</fix>
</trkpt>
<trkpt lat="-27.2710267" lon="151.2899085">
  <ele>363.11</ele>
  <time>2026-09-01T19:57:52Z</time>
  <course>180.46</course>
  <speed>25.420007867819393</speed>
  <fix>3d</fix>
</trkpt>
<trkpt lat="-27.2709599" lon="151.2899086">
  <ele>363.24</ele>
  <time>2026-09-01T19:57:52Z</time>
  <course>179.99</course>
  <speed>25.41</speed>
  <fix>3d</fix>
</trkpt>
<trkpt lat="-27.2710499" lon="151.2899085">
  <ele>363.11</ele>
  <time>2026-09-01T19:57:52Z</time>
  <course>180.5</course>
  <speed>25.420001966955077</speed>
  <fix>3d</fix>
</trkpt>
<trkpt lat="-27.2710055" lon="151.2899086">
  <ele>363.23</ele>
  <time>2026-09-01T19:57:52Z</time>
  <course>179.99</course>
  <speed>25.42</speed>
  <fix>3d</fix>
</trkpt>
<trkpt lat="-27.2710727" lon="151.2899085">
  <ele>363.11</ele>
  <time>2026-09-01T19:57:52Z</time>
  <course>180.48</course>
  <speed>25.420001966955077</speed>
  <fix>3d</fix>
</trkpt>
<trkpt lat="-27.2710055" lon="151.2899086">
  <ele>363.23</ele>
  <time>2026-09-01T19:57:52Z</time>
  <course>179.99</course>
  <speed>25.42</speed>
  <fix>3d</fix>
</trkpt>
<trkpt lat="-27.2710956" lon="151.2899085">
  <ele>363.1</ele>
  <time>2026-09-01T19:57:53Z</time>
  <course>180.53</course>
  <speed>25.420001966955077</speed>
  <fix>3d</fix>
</trkpt>
<trkpt lat="-27.2710512" lon="151.2899086">
  <ele>363.23</ele>
  <time>2026-09-01T19:57:53Z</time>
  <course>179.99</course>
  <speed>25.42</speed>
  <fix>3d</fix>
</trkpt>
<trkpt lat="-27.2711184" lon="151.2899085">
  <ele>363.09</ele>
  <time>2026-09-01T19:57:53Z</time>
  <course>180.53</course>
  <speed>25.420001966955077</speed>
  <fix>3d</fix>
</trkpt>
<trkpt lat="-27.2710512" lon="151.2899086">
  <ele>363.23</ele>
  <time>2026-09-01T19:57:53Z</time>
  <course>179.99</course>
  <speed>25.42</speed>
  <fix>3d</fix>
</trkpt>
<trkpt lat="-27.2711413" lon="151.2899085">
  <ele>363.09</ele>
  <time>2026-09-01T19:57:53Z</time>
  <course>180.48</course>
  <speed>25.430007864725486</speed>
  <fix>3d</fix>
</trkpt>
<trkpt lat="-27.2710968" lon="151.2899086">
  <ele>363.22</ele>
  <time>2026-09-01T19:57:53Z</time>
  <course>179.98</course>
  <speed>25.42</speed>
  <fix>3d</fix>
</trkpt>
<trkpt lat="-27.2711641" lon="151.2899085">
  <ele>363.08</ele>
  <time>2026-09-01T19:57:53Z</time>
  <course>180.44</course>
  <speed>25.4300019661816</speed>
  <fix>3d</fix>
</trkpt>
<trkpt lat="-27.2710968" lon="151.2899086">
  <ele>363.22</ele>
  <time>2026-09-01T19:57:53Z</time>
  <course>179.98</course>
  <speed>25.42</speed>
  <fix>3d</fix>
</trkpt>
<trkpt lat="-27.271187" lon="151.2899085">
  <ele>363.08</ele>
  <time>2026-09-01T19:57:53Z</time>
  <course>180.5</course>
  <speed>25.4300019661816</speed>
  <fix>3d</fix>
</trkpt>
<trkpt lat="-27.2711426" lon="151.2899086">
  <ele>363.21</ele>
  <time>2026-09-01T19:57:53Z</time>
  <course>179.99</course>
  <speed>25.42</speed>
  <fix>3d</fix>
</trkpt>
<trkpt lat="-27.2712099" lon="151.2899085">
  <ele>363.08</ele>
  <time>2026-09-01T19:57:53Z</time>
  <course>180.47</course>
  <speed>25.4300019661816</speed>
  <fix>3d</fix>
</trkpt>
<trkpt lat="-27.2711426" lon="151.2899086">
  <ele>363.21</ele>
  <time>2026-09-01T19:57:53Z</time>
  <course>179.99</course>
  <speed>25.42</speed>
  <fix>3d</fix>
</trkpt>
<trkpt lat="-27.2712328" lon="151.2899085">
  <ele>363.07</ele>
  <time>2026-09-01T19:57:53Z</time>
  <course>180.44</course>
  <speed>25.44000196540873</speed>
  <fix>3d</fix>
</trkpt>
<trkpt lat="-27.2711884" lon="151.2899086">
  <ele>363.21</ele>
  <time>2026-09-01T19:57:53Z</time>
  <course>179.98</course>
  <speed>25.43</speed>
  <fix>3d</fix>
</trkpt>
<trkpt lat="-27.2712557" lon="151.2899085">
  <ele>363.06</ele>
  <time>2026-09-01T19:57:53Z</time>
  <course>180.39</course>
  <speed>25.44</speed>
  <fix>3d</fix>
</trkpt>
<trkpt lat="-27.2711884" lon="151.2899086">
  <ele>363.21</ele>
  <time>2026-09-01T19:57:53Z</time>
  <course>179.98</course>
  <speed>25.43</speed>
  <fix>3d</fix>
</trkpt>
<trkpt lat="-27.2712786" lon="151.2899085">
  <ele>363.06</ele>
  <time>2026-09-01T19:57:53Z</time>
  <course>180.38</course>
  <speed>25.44</speed>
  <fix>3d</fix>
</trkpt>
<trkpt lat="-27.271234" lon="151.2899086">
  <ele>363.2</ele>
  <time>2026-09-01T19:57:53Z</time>
  <course>179.97</course>
  <speed>25.43</speed>
  <fix>3d</fix>
</trkpt>
<trkpt lat="-27.2713014" lon="151.2899085">
  <ele>363.06</ele>
  <time>2026-09-01T19:57:53Z</time>
  <course>180.46</course>
  <speed>25.44</speed>
  <fix>3d</fix>
</trkpt>
<trkpt lat="-27.271234" lon="151.2899086">
  <ele>363.2</ele>
  <time>2026-09-01T19:57:53Z</time>
  <course>179.97</course>
  <speed>25.43</speed>
  <fix>3d</fix>
</trkpt>
<trkpt lat="-27.2713243" lon="151.2899085">
  <ele>363.06</ele>
  <time>2026-09-01T19:57:53Z</time>
  <course>180.55</course>
  <speed>25.44</speed>
  <fix>3d</fix>
</trkpt>
<trkpt lat="-27.2712797" lon="151.2899086">
  <ele>363.19</ele>
  <time>2026-09-01T19:57:53Z</time>
  <course>179.95</course>
  <speed>25.43</speed>
  <fix>3d</fix>
</trkpt>
<trkpt lat="-27.2713472" lon="151.2899085">
  <ele>363.06</ele>
  <time>2026-09-01T19:57:53Z</time>
  <course>180.59</course>
  <speed>25.44000196540873</speed>
  <fix>3d</fix>
</trkpt>
<trkpt lat="-27.2712797" lon="151.2899086">
  <ele>363.19</ele>
  <time>2026-09-01T19:57:53Z</time>
  <course>179.95</course>
  <speed>25.43</speed>
  <fix>3d</fix>
</trkpt>
<trkpt lat="-27.2713699" lon="151.2899085">
  <ele>363.07</ele>
  <time>2026-09-01T19:57:53Z</time>
  <course>180.53</course>
  <speed>25.440007861634005</speed>
  <fix>3d</fix>
</trkpt>
<trkpt lat="-27.2713254" lon="151.2899087">
  <ele>363.19</ele>
  <time>2026-09-01T19:57:53Z</time>
  <course>179.96</course>
  <speed>25.44</speed>
  <fix>3d</fix>
</trkpt>
<trkpt lat="-27.2713927" lon="151.2899085">
  <ele>363.07</ele>
  <time>2026-09-01T19:57:53Z</time>
  <course>180.5</course>
  <speed>25.430007864725486</speed>
  <fix>3d</fix>
</trkpt>
<trkpt lat="-27.2713254" lon="151.2899087">
  <ele>363.19</ele>
  <time>2026-09-01T19:57:53Z</time>
  <course>179.96</course>
  <speed>25.44</speed>
  <fix>3d</fix>
</trkpt>
<trkpt lat="-27.2714154" lon="151.2899085">
  <ele>363.07</ele>
  <time>2026-09-01T19:57:53Z</time>
  <course>180.52</course>
  <speed>25.420017702590215</speed>
  <fix>3d</fix>
</trkpt>
<trkpt lat="-27.2713711" lon="151.2899088">
  <ele>363.19</ele>
  <time>2026-09-01T19:57:53Z</time>
  <course>179.99</course>
  <speed>25.43</speed>
  <fix>3d</fix>
</trkpt>
<trkpt lat="-27.2714381" lon="151.2899085">
  <ele>363.07</ele>
  <time>2026-09-01T19:57:53Z</time>
  <course>180.53</course>
  <speed>25.410031483648346</speed>
  <fix>3d</fix>
</trkpt>
<trkpt lat="-27.2713711" lon="151.2899088">
  <ele>363.19</ele>
  <time>2026-09-01T19:57:53Z</time>
  <course>179.99</course>
  <speed>25.43</speed>
  <fix>3d</fix>
</trkpt>
<trkpt lat="-27.2714606" lon="151.2899085">
  <ele>363.07</ele>
  <time>2026-09-01T19:57:53Z</time>
  <course>180.52</course>
  <speed>25.400031496043468</speed>
  <fix>3d</fix>
</trkpt>
<trkpt lat="-27.2714168" lon="151.2899088">
  <ele>363.19</ele>
  <time>2026-09-01T19:57:53Z</time>
  <course>180.02</course>
  <speed>25.43</speed>
  <fix>3d</fix>
</trkpt>
<trkpt lat="-27.2714833" lon="151.2899085">
  <ele>363.07</ele>
  <time>2026-09-01T19:57:53Z</time>
  <course>180.57</course>
  <speed>25.400031496043468</speed>
  <fix>3d</fix>
</trkpt>
<trkpt lat="-27.2714168" lon="151.2899088">
  <ele>363.19</ele>
  <time>2026-09-01T19:57:53Z</time>
  <course>180.02</course>
  <speed>25.43</speed>
  <fix>3d</fix>
</trkpt>
<trkpt lat="-27.271506" lon="151.2899085">
  <ele>363.07</ele>
  <time>2026-09-01T19:57:53Z</time>
  <course>180.59</course>
  <speed>25.390031508448352</speed>
  <fix>3d</fix>
</trkpt>
<trkpt lat="-27.2714625" lon="151.2899087">
  <ele>363.19</ele>
  <time>2026-09-01T19:57:53Z</time>
  <course>180.04</course>
  <speed>25.43</speed>
  <fix>3d</fix>
</trkpt>
<trkpt lat="-27.2715287" lon="151.2899085">
  <ele>363.07</ele>
  <time>2026-09-01T19:57:53Z</time>
  <course>180.56</course>
  <speed>25.380031520863014</speed>
  <fix>3d</fix>
</trkpt>
<trkpt lat="-27.2714625" lon="151.2899087">
  <ele>363.19</ele>
  <time>2026-09-01T19:57:53Z</time>
  <course>180.04</course>
  <speed>25.43</speed>
  <fix>3d</fix>
</trkpt>
<trkpt lat="-27.2715516" lon="151.2899084">
  <ele>363.07</ele>
  <time>2026-09-01T19:57:53Z</time>
  <course>180.5</course>
  <speed>25.380017730490263</speed>
  <fix>3d</fix>
</trkpt>
<trkpt lat="-27.2715081" lon="151.2899086">
  <ele>363.19</ele>
  <time>2026-09-01T19:57:53Z</time>
  <course>180.04</course>
  <speed>25.43</speed>
  <fix>3d</fix>
</trkpt>
<trkpt lat="-27.2715744" lon="151.2899084">
  <ele>363.07</ele>
  <time>2026-09-01T19:57:53Z</time>
  <course>180.48</course>
  <speed>25.37001773747902</speed>
  <fix>3d</fix>
</trkpt>
<trkpt lat="-27.2715081" lon="151.2899086">
  <ele>363.19</ele>
  <time>2026-09-01T19:57:53Z</time>
  <course>180.04</course>
  <speed>25.43</speed>
  <fix>3d</fix>
</trkpt>
<trkpt lat="-27.2715971" lon="151.2899084">
  <ele>363.07</ele>
  <time>2026-09-01T19:57:53Z</time>
  <course>180.5</course>
  <speed>25.37001773747902</speed>
  <fix>3d</fix>
</trkpt>
<trkpt lat="-27.2715538" lon="151.2899086">
  <ele>363.19</ele>
  <time>2026-09-01T19:57:53Z</time>
  <course>180.04</course>
  <speed>25.42</speed>
  <fix>3d</fix>
</trkpt>
<trkpt lat="-27.2716205" lon="151.2899084">
  <ele>363.07</ele>
  <time>2026-09-01T19:57:53Z</time>
  <course>180.51</course>
  <speed>25.37001773747902</speed>
  <fix>3d</fix>
</trkpt>
<trkpt lat="-27.2715538" lon="151.2899086">
  <ele>363.19</ele>
  <time>2026-09-01T19:57:53Z</time>
  <course>180.04</course>
  <speed>25.42</speed>
  <fix>3d</fix>
</trkpt>
<trkpt lat="-27.2716431" lon="151.2899084">
  <ele>363.06</ele>
  <time>2026-09-01T19:57:53Z</time>
  <course>180.51</course>
  <speed>25.36001774447329</speed>
  <fix>3d</fix>
</trkpt>
<trkpt lat="-27.2715996" lon="151.2899086">
  <ele>363.19</ele>
  <time>2026-09-01T19:57:53Z</time>
  <course>180.02</course>
  <speed>25.42</speed>
  <fix>3d</fix>
</trkpt>
<trkpt lat="-27.2716655" lon="151.2899084">
  <ele>363.06</ele>
  <time>2026-09-01T19:57:53Z</time>
  <course>180.53</course>
  <speed>25.36001774447329</speed>
  <fix>3d</fix>
</trkpt>
<trkpt lat="-27.2715996" lon="151.2899086">
  <ele>363.19</ele>
  <time>2026-09-01T19:57:53Z</time>
  <course>180.02</course>
  <speed>25.42</speed>
  <fix>3d</fix>
</trkpt>
<trkpt lat="-27.2716882" lon="151.2899084">
  <ele>363.05</ele>
  <time>2026-09-01T19:57:53Z</time>
  <course>180.58</course>
  <speed>25.36001774447329</speed>
  <fix>3d</fix>
</trkpt>
<trkpt lat="-27.2716453" lon="151.2899086">
  <ele>363.18</ele>
  <time>2026-09-01T19:57:53Z</time>
  <course>180.02</course>
  <speed>25.42</speed>
  <fix>3d</fix>
</trkpt>
<trkpt lat="-27.271711" lon="151.2899084">
  <ele>363.05</ele>
  <time>2026-09-01T19:57:53Z</time>
  <course>180.55</course>
  <speed>25.350017751473075</speed>
  <fix>3d</fix>
</trkpt>
<trkpt lat="-27.2716453" lon="151.2899086">
  <ele>363.18</ele>
  <time>2026-09-01T19:57:53Z</time>
  <course>180.02</course>
  <speed>25.42</speed>
  <fix>3d</fix>
</trkpt>
<trkpt lat="-27.2717338" lon="151.2899083">
  <ele>363.06</ele>
  <time>2026-09-01T19:57:53Z</time>
  <course>180.56</course>
  <speed>25.35003155816576</speed>
  <fix>3d</fix>
</trkpt>
<trkpt lat="-27.271691" lon="151.2899086">
  <ele>363.18</ele>
  <time>2026-09-01T19:57:53Z</time>
  <course>180.03</course>
  <speed>25.42</speed>
  <fix>3d</fix>
</trkpt>
<trkpt lat="-27.2717566" lon="151.2899083">
  <ele>363.06</ele>
  <time>2026-09-01T19:57:53Z</time>
  <course>180.58</course>
  <speed>25.35004930961674</speed>
  <fix>3d</fix>
</trkpt>
<trkpt lat="-27.271691" lon="151.2899086">
  <ele>363.18</ele>
  <time>2026-09-01T19:57:53Z</time>
  <course>180.03</course>
  <speed>25.42</speed>
  <fix>3d</fix>
</trkpt>
<trkpt lat="-27.2717794" lon="151.2899083">
  <ele>363.06</ele>
  <time>2026-09-01T19:57:53Z</time>
  <course>180.58</course>
  <speed>25.35004930961674</speed>
  <fix>3d</fix>
</trkpt>
<trkpt lat="-27.2717367" lon="151.2899086">
  <ele>363.18</ele>
  <time>2026-09-01T19:57:53Z</time>
  <course>180.05</course>
  <speed>25.42</speed>
  <fix>3d</fix>
</trkpt>
<trkpt lat="-27.2718022" lon="151.2899083">
  <ele>363.06</ele>
  <time>2026-09-01T19:57:53Z</time>
  <course>180.58</course>
  <speed>25.35004930961674</speed>
  <fix>3d</fix>
</trkpt>
<trkpt lat="-27.2717367" lon="151.2899086">
  <ele>363.18</ele>
  <time>2026-09-01T19:57:53Z</time>
  <course>180.05</course>
  <speed>25.42</speed>
  <fix>3d</fix>
</trkpt>
<trkpt lat="-27.271825" lon="151.2899082">
  <ele>363.06</ele>
  <time>2026-09-01T19:57:53Z</time>
  <course>180.57</course>
  <speed>25.36004929017292</speed>
  <fix>3d</fix>
</trkpt>
<trkpt lat="-27.2717823" lon="151.2899085">
  <ele>363.17</ele>
  <time>2026-09-01T19:57:53Z</time>
  <course>180.07</course>
  <speed>25.42</speed>
  <fix>3d</fix>
</trkpt>
<trkpt lat="-27.2718479" lon="151.2899082">
  <ele>363.05</ele>
  <time>2026-09-01T19:57:53Z</time>
  <course>180.58</course>
  <speed>25.36004929017292</speed>
  <fix>3d</fix>
</trkpt>
<trkpt lat="-27.2717823" lon="151.2899085">
  <ele>363.17</ele>
  <time>2026-09-01T19:57:53Z</time>
  <course>180.07</course>
  <speed>25.42</speed>
  <fix>3d</fix>
</trkpt>
<trkpt lat="-27.2718707" lon="151.2899082">
  <ele>363.06</ele>
  <time>2026-09-01T19:57:53Z</time>
  <course>180.58</course>
  <speed>25.36004929017292</speed>
  <fix>3d</fix>
</trkpt>
<trkpt lat="-27.271828" lon="151.2899085">
  <ele>363.17</ele>
  <time>2026-09-01T19:57:53Z</time>
  <course>180.08</course>
  <speed>25.43</speed>
  <fix>3d</fix>
</trkpt>
<trkpt lat="-27.2718935" lon="151.2899081">
  <ele>363.06</ele>
  <time>2026-09-01T19:57:53Z</time>
  <course>180.58</course>
  <speed>25.360070977818655</speed>
  <fix>3d</fix>
</trkpt>
<trkpt lat="-27.271828" lon="151.2899085">
  <ele>363.17</ele>
  <time>2026-09-01T19:57:53Z</time>
  <course>180.08</course>
  <speed>25.43</speed>
  <fix>3d</fix>
</trkpt>
<trkpt lat="-27.2719164" lon="151.2899081">
  <ele>363.05</ele>
  <time>2026-09-01T19:57:53Z</time>
  <course>180.63</course>
  <speed>25.370070949841665</speed>
  <fix>3d</fix>
</trkpt>
<trkpt lat="-27.2718737" lon="151.2899084">
  <ele>363.17</ele>
  <time>2026-09-01T19:57:53Z</time>
  <course>180.09</course>
  <speed>25.43</speed>
  <fix>3d</fix>
</trkpt>
<trkpt lat="-27.271939" lon="151.2899081">
  <ele>363.05</ele>
  <time>2026-09-01T19:57:53Z</time>
  <course>180.69</course>
  <speed>25.37009657056906</speed>
  <fix>3d</fix>
</trkpt>
<trkpt lat="-27.2718737" lon="151.2899084">
  <ele>363.17</ele>
  <time>2026-09-01T19:57:53Z</time>
  <course>180.09</course>
  <speed>25.43</speed>
  <fix>3d</fix>
</trkpt>
<trkpt lat="-27.2719619" lon="151.289908">
  <ele>363.05</ele>
  <time>2026-09-01T19:57:53Z</time>
  <course>180.71</course>
  <speed>25.38009653251934</speed>
  <fix>3d</fix>
</trkpt>
<trkpt lat="-27.2719193" lon="151.2899083">
  <ele>363.16</ele>
  <time>2026-09-01T19:57:53Z</time>
  <course>180.11</course>
  <speed>25.43</speed>
  <fix>3d</fix>
</trkpt>
<trkpt lat="-27.2719848" lon="151.2899079">
  <ele>363.05</ele>
  <time>2026-09-01T19:57:53Z</time>
  <course>180.7</course>
  <speed>25.38012608321716</speed>
  <fix>3d</fix>
</trkpt>
<trkpt lat="-27.2719193" lon="151.2899083">
  <ele>363.16</ele>
  <time>2026-09-01T19:57:53Z</time>
  <course>180.11</course>
  <speed>25.43</speed>
  <fix>3d</fix>
</trkpt>
<trkpt lat="-27.2720076" lon="151.2899079">
  <ele>363.04</ele>
  <time>2026-09-01T19:57:53Z</time>
  <course>180.71</course>
  <speed>25.380159573966434</speed>
  <fix>3d</fix>
</trkpt>
<trkpt lat="-27.271965" lon="151.2899082">
  <ele>363.16</ele>
  <time>2026-09-01T19:57:53Z</time>
  <course>180.14</course>
  <speed>25.44</speed>
  <fix>3d</fix>
</trkpt>
<trkpt lat="-27.2720307" lon="151.2899078">
  <ele>363.04</ele>
  <time>2026-09-01T19:57:53Z</time>
  <course>180.75</course>
  <speed>25.380197004751558</speed>
  <fix>3d</fix>
</trkpt>
<trkpt lat="-27.271965" lon="151.2899082">
  <ele>363.16</ele>
  <time>2026-09-01T19:57:53Z</time>
  <course>180.14</course>
  <speed>25.44</speed>
  <fix>3d</fix>
</trkpt>
<trkpt lat="-27.2720535" lon="151.2899077">
  <ele>363.04</ele>
  <time>2026-09-01T19:57:53Z</time>
  <course>180.77</course>
  <speed>25.380197004751558</speed>
  <fix>3d</fix>
</trkpt>
<trkpt lat="-27.2720107" lon="151.2899081">
  <ele>363.16</ele>
  <time>2026-09-01T19:57:53Z</time>
  <course>180.17</course>
  <speed>25.44</speed>
  <fix>3d</fix>
</trkpt>
<trkpt lat="-27.2720764" lon="151.2899076">
  <ele>363.04</ele>
  <time>2026-09-01T19:57:53Z</time>
  <course>180.72</course>
  <speed>25.39023828167038</speed>
  <fix>3d</fix>
</trkpt>
<trkpt lat="-27.2720107" lon="151.2899081">
  <ele>363.16</ele>
  <time>2026-09-01T19:57:53Z</time>
  <course>180.17</course>
  <speed>25.44</speed>
  <fix>3d</fix>
</trkpt>
<trkpt lat="-27.2721" lon="151.2899075">
  <ele>363.03</ele>
  <time>2026-09-01T19:57:53Z</time>
  <course>180.7</course>
  <speed>25.39023828167038</speed>
  <fix>3d</fix>
</trkpt>
<trkpt lat="-27.2720564" lon="151.2899079">
  <ele>363.16</ele>
  <time>2026-09-01T19:57:53Z</time>
  <course>180.2</course>
  <speed>25.44</speed>
  <fix>3d</fix>
</trkpt>
<trkpt lat="-27.2721227" lon="151.2899074">
  <ele>363.03</ele>
  <time>2026-09-01T19:57:53Z</time>
  <course>180.73</course>
  <speed>25.39023828167038</speed>
  <fix>3d</fix>
</trkpt>
<trkpt lat="-27.2720564" lon="151.2899079">
  <ele>363.16</ele>
  <time>2026-09-01T19:57:53Z</time>
  <course>180.2</course>
  <speed>25.44</speed>
  <fix>3d</fix>
</trkpt>
<trkpt lat="-27.2721456" lon="151.2899073">
  <ele>363.03</ele>
  <time>2026-09-01T19:57:53Z</time>
  <course>180.77</course>
  <speed>25.39023828167038</speed>
  <fix>3d</fix>
</trkpt>
<trkpt lat="-27.2721022" lon="151.2899076">
  <ele>363.16</ele>
  <time>2026-09-01T19:57:53Z</time>
  <course>180.22</course>
  <speed>25.44</speed>
  <fix>3d</fix>
</trkpt>
<trkpt lat="-27.2721684" lon="151.2899072">
  <ele>363.03</ele>
  <time>2026-09-01T19:57:53Z</time>
  <course>180.77</course>
  <speed>25.39023828167038</speed>
  <fix>3d</fix>
</trkpt>
<trkpt lat="-27.2721022" lon="151.2899076">
  <ele>363.16</ele>
  <time>2026-09-01T19:57:53Z</time>
  <course>180.22</course>
  <speed>25.44</speed>
  <fix>3d</fix>
</trkpt>
<trkpt lat="-27.2721913" lon="151.2899071">
  <ele>363.03</ele>
  <time>2026-09-01T19:57:53Z</time>
  <course>180.72</course>
  <speed>25.39023828167038</speed>
  <fix>3d</fix>
</trkpt>
<trkpt lat="-27.272148" lon="151.2899075">
  <ele>363.16</ele>
  <time>2026-09-01T19:57:53Z</time>
  <course>180.22</course>
  <speed>25.44</speed>
  <fix>3d</fix>
</trkpt>
<trkpt lat="-27.2722143" lon="151.289907">
  <ele>363.03</ele>
  <time>2026-09-01T19:57:53Z</time>
  <course>180.68</course>
  <speed>25.39023828167038</speed>
  <fix>3d</fix>
</trkpt>
<trkpt lat="-27.272148" lon="151.2899075">
  <ele>363.16</ele>
  <time>2026-09-01T19:57:53Z</time>
  <course>180.22</course>
  <speed>25.44</speed>
  <fix>3d</fix>
</trkpt>
<trkpt lat="-27.2722372" lon="151.289907">
  <ele>363.03</ele>
  <time>2026-09-01T19:57:53Z</time>
  <course>180.69</course>
  <speed>25.390196927160687</speed>
  <fix>3d</fix>
</trkpt>
<trkpt lat="-27.2721937" lon="151.2899072">
  <ele>363.16</ele>
  <time>2026-09-01T19:57:53Z</time>
  <course>180.21</course>
  <speed>25.43</speed>
  <fix>3d</fix>
</trkpt>
<trkpt lat="-27.2722601" lon="151.2899069">
  <ele>363.03</ele>
  <time>2026-09-01T19:57:53Z</time>
  <course>180.68</course>
  <speed>25.400196849630913</speed>
  <fix>3d</fix>
</trkpt>
<trkpt lat="-27.2721937" lon="151.2899072">
  <ele>363.16</ele>
  <time>2026-09-01T19:57:53Z</time>
  <course>180.21</course>
  <speed>25.43</speed>
  <fix>3d</fix>
</trkpt>
<trkpt lat="-27.2722829" lon="151.2899068">
  <ele>363.03</ele>
  <time>2026-09-01T19:57:53Z</time>
  <course>180.73</course>
  <speed>25.400196849630913</speed>
  <fix>3d</fix>
</trkpt>
<trkpt lat="-27.2722394" lon="151.2899071">
  <ele>363.16</ele>
  <time>2026-09-01T19:57:53Z</time>
  <course>180.19</course>
  <speed>25.44</speed>
  <fix>3d</fix>
</trkpt>
<trkpt lat="-27.2723052" lon="151.2899067">
  <ele>363.04</ele>
  <time>2026-09-01T19:57:53Z</time>
  <course>180.73</course>
  <speed>25.400196849630913</speed>
  <fix>3d</fix>
</trkpt>
<trkpt lat="-27.2722394" lon="151.2899071">
  <ele>363.16</ele>
  <time>2026-09-01T19:57:53Z</time>
  <course>180.19</course>
  <speed>25.44</speed>
  <fix>3d</fix>
</trkpt>
<trkpt lat="-27.2723281" lon="151.2899066">
  <ele>363.04</ele>
  <time>2026-09-01T19:57:53Z</time>
  <course>180.74</course>
  <speed>25.410196772162152</speed>
  <fix>3d</fix>
</trkpt>
<trkpt lat="-27.2722851" lon="151.2899069">
  <ele>363.16</ele>
  <time>2026-09-01T19:57:53Z</time>
  <course>180.18</course>
  <speed>25.44</speed>
  <fix>3d</fix>
</trkpt>
<trkpt lat="-27.272351" lon="151.2899065">
  <ele>363.05</ele>
  <time>2026-09-01T19:57:53Z</time>
  <course>180.73</course>
  <speed>25.400196849630913</speed>
  <fix>3d</fix>
</trkpt>
<trkpt lat="-27.2722851" lon="151.2899069">
  <ele>363.16</ele>
  <time>2026-09-01T19:57:53Z</time>
  <course>180.18</course>
  <speed>25.44</speed>
  <fix>3d</fix>
</trkpt>
<trkpt lat="-27.2723738" lon="151.2899064">
  <ele>363.05</ele>
  <time>2026-09-01T19:57:53Z</time>
  <course>180.71</course>
  <speed>25.410196772162152</speed>
  <fix>3d</fix>
</trkpt>
<trkpt lat="-27.2723308" lon="151.2899067">
  <ele>363.17</ele>
  <time>2026-09-01T19:57:53Z</time>
  <course>180.18</course>
  <speed>25.44</speed>
  <fix>3d</fix>
</trkpt>
<trkpt lat="-27.2723965" lon="151.2899064">
  <ele>363.05</ele>
  <time>2026-09-01T19:57:53Z</time>
  <course>180.69</course>
  <speed>25.400196849630913</speed>
  <fix>3d</fix>
</trkpt>
<trkpt lat="-27.2723308" lon="151.2899067">
  <ele>363.17</ele>
  <time>2026-09-01T19:57:53Z</time>
  <course>180.18</course>
  <speed>25.44</speed>
  <fix>3d</fix>
</trkpt>
<trkpt lat="-27.2724193" lon="151.2899063">
  <ele>363.06</ele>
  <time>2026-09-01T19:57:53Z</time>
  <course>180.72</course>
  <speed>25.360197160116872</speed>
  <fix>3d</fix>
</trkpt>
<trkpt lat="-27.2723765" lon="151.2899066">
  <ele>363.18</ele>
  <time>2026-09-01T19:57:53Z</time>
  <course>180.18</course>
  <speed>25.43</speed>
  <fix>3d</fix>
</trkpt>
<trkpt lat="-27.2724421" lon="151.2899062">
  <ele>363.07</ele>
  <time>2026-09-01T19:57:53Z</time>
  <course>180.73</course>
  <speed>25.260197940633798</speed>
  <fix>3d</fix>
</trkpt>
<trkpt lat="-27.2723765" lon="151.2899066">
  <ele>363.18</ele>
  <time>2026-09-01T19:57:53Z</time>
  <course>180.18</course>
  <speed>25.43</speed>
  <fix>3d</fix>
</trkpt>
<trkpt lat="-27.2724648" lon="151.2899061">
  <ele>363.09</ele>
  <time>2026-09-01T19:57:53Z</time>
  <course>180.73</course>
  <speed>25.110161289804573</speed>
  <fix>3d</fix>
</trkpt>
<trkpt lat="-27.2724221" lon="151.2899064">
  <ele>363.19</ele>
  <time>2026-09-01T19:57:53Z</time>
  <course>180.18</course>
  <speed>25.36</speed>
  <fix>3d</fix>
</trkpt>
<trkpt lat="-27.2724873" lon="151.289906">
  <ele>363.12</ele>
  <time>2026-09-01T19:57:53Z</time>
  <course>180.72</course>
  <speed>24.960200319708974</speed>
  <fix>3d</fix>
</trkpt>
<trkpt lat="-27.2724221" lon="151.2899064">
  <ele>363.19</ele>
  <time>2026-09-01T19:57:53Z</time>
  <course>180.18</course>
  <speed>25.36</speed>
  <fix>3d</fix>
</trkpt>
<trkpt lat="-27.2725099" lon="151.2899059">
  <ele>363.15</ele>
  <time>2026-09-01T19:57:53Z</time>
  <course>180.7</course>
  <speed>24.800163305913934</speed>
  <fix>3d</fix>
</trkpt>
<trkpt lat="-27.2724675" lon="151.2899062">
  <ele>363.22</ele>
  <time>2026-09-01T19:57:53Z</time>
  <course>180.18</course>
  <speed>25.14</speed>
  <fix>3d</fix>
</trkpt>
<trkpt lat="-27.2725321" lon="151.2899059">
  <ele>363.19</ele>
  <time>2026-09-01T19:57:53Z</time>
  <course>180.69</course>
  <speed>24.660164233029754</speed>
  <fix>3d</fix>
</trkpt>
<trkpt lat="-27.2724675" lon="151.2899062">
  <ele>363.22</ele>
  <time>2026-09-01T19:57:53Z</time>
  <course>180.18</course>
  <speed>25.14</speed>
  <fix>3d</fix>
</trkpt>
<trkpt lat="-27.272555" lon="151.2899058">
  <ele>363.23</ele>
  <time>2026-09-01T19:57:53Z</time>
  <course>180.7</course>
  <speed>24.510130558607802</speed>
  <fix>3d</fix>
</trkpt>
<trkpt lat="-27.2725123" lon="151.2899061">
  <ele>363.28</ele>
  <time>2026-09-01T19:57:53Z</time>
  <course>180.18</course>
  <speed>24.84</speed>
  <fix>3d</fix>
</trkpt>
<trkpt lat="-27.2725769" lon="151.2899057">
  <ele>363.28</ele>
  <time>2026-09-01T19:57:53Z</time>
  <course>180.73</course>
  <speed>24.360131362535796</speed>
  <fix>3d</fix>
</trkpt>
<trkpt lat="-27.2725123" lon="151.2899061">
  <ele>363.28</ele>
  <time>2026-09-01T19:57:53Z</time>
  <course>180.18</course>
  <speed>24.84</speed>
  <fix>3d</fix>
</trkpt>
<trkpt lat="-27.2725986" lon="151.2899057">
  <ele>363.33</ele>
  <time>2026-09-01T19:57:53Z</time>
  <course>180.76</course>
  <speed>24.180132340415344</speed>
  <fix>3d</fix>
</trkpt>
<trkpt lat="-27.2725568" lon="151.2899059">
  <ele>363.36</ele>
  <time>2026-09-01T19:57:53Z</time>
  <course>180.17</course>
  <speed>24.54</speed>
  <fix>3d</fix>
</trkpt>
<trkpt lat="-27.2726202" lon="151.2899056">
  <ele>363.39</ele>
  <time>2026-09-01T19:57:53Z</time>
  <course>180.74</course>
  <speed>23.94013366712893</speed>
  <fix>3d</fix>
</trkpt>
<trkpt lat="-27.2725568" lon="151.2899059">
  <ele>363.36</ele>
  <time>2026-09-01T19:57:53Z</time>
  <course>180.17</course>
  <speed>24.54</speed>
  <fix>3d</fix>
</trkpt>
<trkpt lat="-27.2726416" lon="151.2899055">
  <ele>363.46</ele>
  <time>2026-09-01T19:57:53Z</time>
  <course>180.72</course>
  <speed>23.640103637674688</speed>
  <fix>3d</fix>
</trkpt>
<trkpt lat="-27.2726007" lon="151.2899057">
  <ele>363.46</ele>
  <time>2026-09-01T19:57:53Z</time>
  <course>180.16</course>
  <speed>24.19</speed>
  <fix>3d</fix>
</trkpt>
<trkpt lat="-27.2726627" lon="151.2899055">
  <ele>363.56</ele>
  <time>2026-09-01T19:57:53Z</time>
  <course>180.7</course>
  <speed>23.28010524031195</speed>
  <fix>3d</fix>
</trkpt>
<trkpt lat="-27.2726007" lon="151.2899057">
  <ele>363.46</ele>
  <time>2026-09-01T19:57:53Z</time>
  <course>180.16</course>
  <speed>24.19</speed>
  <fix>3d</fix>
</trkpt>
<trkpt lat="-27.2726837" lon="151.2899054">
  <ele>363.68</ele>
  <time>2026-09-01T19:57:53Z</time>
  <course>180.7</course>
  <speed>22.900106986649647</speed>
  <fix>3d</fix>
</trkpt>
<trkpt lat="-27.2726437" lon="151.2899056">
  <ele>363.6</ele>
  <time>2026-09-01T19:57:53Z</time>
  <course>180.16</course>
  <speed>23.65</speed>
  <fix>3d</fix>
</trkpt>
<trkpt lat="-27.2727041" lon="151.2899053">
  <ele>363.82</ele>
  <time>2026-09-01T19:57:53Z</time>
  <course>180.7</course>
  <speed>22.510079964318205</speed>
  <fix>3d</fix>
</trkpt>
<trkpt lat="-27.2726437" lon="151.2899056">
  <ele>363.6</ele>
  <time>2026-09-01T19:57:53Z</time>
  <course>180.16</course>
  <speed>23.65</speed>
  <fix>3d</fix>
</trkpt>
<trkpt lat="-27.2727242" lon="151.2899053">
  <ele>363.98</ele>
  <time>2026-09-01T19:57:53Z</time>
  <course>180.7</course>
  <speed>22.110081410976303</speed>
  <fix>3d</fix>
</trkpt>
<trkpt lat="-27.2726856" lon="151.2899055">
  <ele>363.81</ele>
  <time>2026-09-01T19:57:53Z</time>
  <course>180.16</course>
  <speed>22.94</speed>
  <fix>3d</fix>
</trkpt>
<trkpt lat="-27.2727439" lon="151.2899052">
  <ele>364.17</ele>
  <time>2026-09-01T19:57:53Z</time>
  <course>180.7</course>
  <speed>21.70005760361018</speed>
  <fix>3d</fix>
</trkpt>
<trkpt lat="-27.2726856" lon="151.2899055">
  <ele>363.81</ele>
  <time>2026-09-01T19:57:53Z</time>
  <course>180.16</course>
  <speed>22.94</speed>
  <fix>3d</fix>
</trkpt>
<trkpt lat="-27.2727633" lon="151.2899052">
  <ele>364.39</ele>
  <time>2026-09-01T19:57:53Z</time>
  <course>180.7</course>
  <speed>21.28005874052043</speed>
  <fix>3d</fix>
</trkpt>
<trkpt lat="-27.272726" lon="151.2899054">
  <ele>364.11</ele>
  <time>2026-09-01T19:57:53Z</time>
  <course>180.15</course>
  <speed>22.15</speed>
  <fix>3d</fix>
</trkpt>
<trkpt lat="-27.2727822" lon="151.2899052">
  <ele>364.63</ele>
  <time>2026-09-01T19:57:53Z</time>
  <course>180.7</course>
  <speed>20.85003836926925</speed>
  <fix>3d</fix>
</trkpt>
<trkpt lat="-27.272726" lon="151.2899054">
  <ele>364.11</ele>
  <time>2026-09-01T19:57:53Z</time>
  <course>180.15</course>
  <speed>22.15</speed>
  <fix>3d</fix>
</trkpt>
<trkpt lat="-27.2728008" lon="151.2899051">
  <ele>364.91</ele>
  <time>2026-09-01T19:57:53Z</time>
  <course>180.7</course>
  <speed>20.41002204800377</speed>
  <fix>3d</fix>
</trkpt>
<trkpt lat="-27.272765" lon="151.2899052">
  <ele>364.51</ele>
  <time>2026-09-01T19:57:53Z</time>
  <course>180.14</course>
  <speed>21.32</speed>
  <fix>3d</fix>
</trkpt>
<trkpt lat="-27.272819" lon="151.2899051">
  <ele>365.2</ele>
  <time>2026-09-01T19:57:53Z</time>
  <course>180.7</course>
  <speed>19.970022533787986</speed>
  <fix>3d</fix>
</trkpt>
<trkpt lat="-27.272765" lon="151.2899052">
  <ele>364.51</ele>
  <time>2026-09-01T19:57:53Z</time>
  <course>180.14</course>
  <speed>21.32</speed>
  <fix>3d</fix>
</trkpt>
<trkpt lat="-27.2728368" lon="151.2899051">
  <ele>365.51</ele>
  <time>2026-09-01T19:57:53Z</time>
  <course>180.69</course>
  <speed>19.540010235411852</speed>
  <fix>3d</fix>
</trkpt>
<trkpt lat="-27.2728026" lon="151.2899051">
  <ele>365.02</ele>
  <time>2026-09-01T19:57:53Z</time>
  <course>180.13</course>
  <speed>20.45</speed>
  <fix>3d</fix>
</trkpt>
<trkpt lat="-27.2728542" lon="151.289905">
  <ele>365.83</ele>
  <time>2026-09-01T19:57:53Z</time>
  <course>180.69</course>
  <speed>19.15001044386138</speed>
  <fix>3d</fix>
</trkpt>
<trkpt lat="-27.2728026" lon="151.2899051">
  <ele>365.02</ele>
  <time>2026-09-01T19:57:53Z</time>
  <course>180.13</course>
  <speed>20.45</speed>
  <fix>3d</fix>
</trkpt>
<trkpt lat="-27.2728713" lon="151.289905">
  <ele>366.13</ele>
  <time>2026-09-01T19:57:53Z</time>
  <course>180.69</course>
  <speed>18.780010649624245</speed>
  <fix>3d</fix>
</trkpt>
<trkpt lat="-27.2728385" lon="151.2899051">
  <ele>365.61</ele>
  <time>2026-09-01T19:57:53Z</time>
  <course>180.12</course>
  <speed>19.59</speed>
  <fix>3d</fix>
</trkpt>
<trkpt lat="-27.2728875" lon="151.289905">
  <ele>366.41</ele>
  <time>2026-09-01T19:57:53Z</time>
  <course>180.68</course>
  <speed>18.460002708558847</speed>
  <fix>3d</fix>
</trkpt>
<trkpt lat="-27.2728385" lon="151.2899051">
  <ele>365.61</ele>
  <time>2026-09-01T19:57:53Z</time>
  <course>180.12</course>
  <speed>19.59</speed>
  <fix>3d</fix>
</trkpt>
<trkpt lat="-27.2729042" lon="151.289905">
  <ele>366.68</ele>
  <time>2026-09-01T19:57:53Z</time>
  <course>180.68</course>
  <speed>18.15000275482073</speed>
  <fix>3d</fix>
</trkpt>
<trkpt lat="-27.272873" lon="151.289905">
  <ele>366.22</ele>
  <time>2026-09-01T19:57:53Z</time>
  <course>180.11</course>
  <speed>18.83</speed>
  <fix>3d</fix>
</trkpt>
<trkpt lat="-27.2729204" lon="151.289905">
  <ele>366.91</ele>
  <time>2026-09-01T19:57:53Z</time>
  <course>180.67</course>
  <speed>17.870002797985233</speed>
  <fix>3d</fix>
</trkpt>
<trkpt lat="-27.272873" lon="151.289905">
  <ele>366.22</ele>
  <time>2026-09-01T19:57:53Z</time>
  <course>180.11</course>
  <speed>18.83</speed>
  <fix>3d</fix>
</trkpt>
<trkpt lat="-27.2729364" lon="151.2899049">
  <ele>367.12</ele>
  <time>2026-09-01T19:57:53Z</time>
  <course>180.67</course>
  <speed>17.60000284090886</speed>
  <fix>3d</fix>
</trkpt>
<trkpt lat="-27.2729062" lon="151.2899049">
  <ele>366.77</ele>
  <time>2026-09-01T19:57:53Z</time>
  <course>180.11</course>
  <speed>18.17</speed>
  <fix>3d</fix>
</trkpt>
<trkpt lat="-27.2729526" lon="151.2899049">
  <ele>367.3</ele>
  <time>2026-09-01T19:57:53Z</time>
  <course>180.66</course>
  <speed>17.34</speed>
  <fix>3d</fix>
</trkpt>
<trkpt lat="-27.2729062" lon="151.2899049">
  <ele>366.77</ele>
  <time>2026-09-01T19:57:53Z</time>
  <course>180.11</course>
  <speed>18.17</speed>
  <fix>3d</fix>
</trkpt>
<trkpt lat="-27.272968" lon="151.2899049">
  <ele>367.44</ele>
  <time>2026-09-01T19:57:53Z</time>
  <course>180.66</course>
  <speed>17.11</speed>
  <fix>3d</fix>
</trkpt>
<trkpt lat="-27.2729384" lon="151.2899048">
  <ele>367.2</ele>
  <time>2026-09-01T19:57:53Z</time>
  <course>180.1</course>
  <speed>17.61</speed>
  <fix>3d</fix>
</trkpt>
<trkpt lat="-27.2729833" lon="151.2899049">
  <ele>367.55</ele>
  <time>2026-09-01T19:57:53Z</time>
  <course>180.65</course>
  <speed>16.89</speed>
  <fix>3d</fix>
</trkpt>
<trkpt lat="-27.2729384" lon="151.2899048">
  <ele>367.2</ele>
  <time>2026-09-01T19:57:53Z</time>
  <course>180.1</course>
  <speed>17.61</speed>
  <fix>3d</fix>
</trkpt>
<trkpt lat="-27.2729985" lon="151.2899049">
  <ele>367.63</ele>
  <time>2026-09-01T19:57:53Z</time>
  <course>180.64</course>
  <speed>16.69</speed>
  <fix>3d</fix>
</trkpt>
<trkpt lat="-27.2729697" lon="151.2899047">
  <ele>367.51</ele>
  <time>2026-09-01T19:57:53Z</time>
  <course>180.1</course>
  <speed>17.11</speed>
  <fix>3d</fix>
</trkpt>
<trkpt lat="-27.2730134" lon="151.2899048">
  <ele>367.68</ele>
  <time>2026-09-01T19:57:53Z</time>
  <course>180.64</course>
  <speed>16.5</speed>
  <fix>3d</fix>
</trkpt>
<trkpt lat="-27.2729697" lon="151.2899047">
  <ele>367.51</ele>
  <time>2026-09-01T19:57:53Z</time>
  <course>180.1</course>
  <speed>17.11</speed>
  <fix>3d</fix>
</trkpt>
<trkpt lat="-27.2730282" lon="151.2899048">
  <ele>367.71</ele>
  <time>2026-09-01T19:57:53Z</time>
  <course>180.63</course>
  <speed>16.32</speed>
  <fix>3d</fix>
</trkpt>
<trkpt lat="-27.273" lon="151.2899047">
  <ele>367.7</ele>
  <time>2026-09-01T19:57:53Z</time>
  <course>180.09</course>
  <speed>16.68</speed>
  <fix>3d</fix>
</trkpt>
<trkpt lat="-27.2730429" lon="151.2899048">
  <ele>367.72</ele>
  <time>2026-09-01T19:57:53Z</time>
  <course>180.63</course>
  <speed>16.15</speed>
  <fix>3d</fix>
</trkpt>
<trkpt lat="-27.273" lon="151.2899047">
  <ele>367.7</ele>
  <time>2026-09-01T19:57:53Z</time>
  <course>180.09</course>
  <speed>16.68</speed>
  <fix>3d</fix>
</trkpt>
<trkpt lat="-27.2730574" lon="151.2899048">
  <ele>367.71</ele>
  <time>2026-09-01T19:57:53Z</time>
  <course>180.62</course>
  <speed>15.99</speed>
  <fix>3d</fix>
</trkpt>
<trkpt lat="-27.2730296" lon="151.2899047">
  <ele>367.78</ele>
  <time>2026-09-01T19:57:53Z</time>
  <course>180.08</course>
  <speed>16.31</speed>
  <fix>3d</fix>
</trkpt>
<trkpt lat="-27.2730717" lon="151.2899047">
  <ele>367.68</ele>
  <time>2026-09-01T19:57:53Z</time>
  <course>180.62</course>
  <speed>15.84</speed>
  <fix>3d</fix>
</trkpt>
<trkpt lat="-27.2730296" lon="151.2899047">
  <ele>367.78</ele>
  <time>2026-09-01T19:57:53Z</time>
  <course>180.08</course>
  <speed>16.31</speed>
  <fix>3d</fix>
</trkpt>
<trkpt lat="-27.2730859" lon="151.2899047">
  <ele>367.64</ele>
  <time>2026-09-01T19:57:53Z</time>
  <course>180.61</course>
  <speed>15.7</speed>
  <fix>3d</fix>
</trkpt>
<trkpt lat="-27.2730586" lon="151.2899046">
  <ele>367.78</ele>
  <time>2026-09-01T19:57:53Z</time>
  <course>180.08</course>
  <speed>15.97</speed>
  <fix>3d</fix>
</trkpt>
<trkpt lat="-27.2730999" lon="151.2899047">
  <ele>367.59</ele>
  <time>2026-09-01T19:57:53Z</time>
  <course>180.61</course>
  <speed>15.57</speed>
  <fix>3d</fix>
</trkpt>
<trkpt lat="-27.2730586" lon="151.2899046">
  <ele>367.78</ele>
  <time>2026-09-01T19:57:53Z</time>
  <course>180.08</course>
  <speed>15.97</speed>
  <fix>3d</fix>
</trkpt>
<trkpt lat="-27.2731139" lon="151.2899047">
  <ele>367.53</ele>
  <time>2026-09-01T19:57:53Z</time>
  <course>180.61</course>
  <speed>15.45</speed>
  <fix>3d</fix>
</trkpt>
<trkpt lat="-27.2730871" lon="151.2899046">
  <ele>367.72</ele>
  <time>2026-09-01T19:57:53Z</time>
  <course>180.07</course>
  <speed>15.68</speed>
  <fix>3d</fix>
</trkpt>
<trkpt lat="-27.2731277" lon="151.2899047">
  <ele>367.46</ele>
  <time>2026-09-01T19:57:53Z</time>
  <course>180.6</course>
  <speed>15.33</speed>
  <fix>3d</fix>
</trkpt>
<trkpt lat="-27.2730871" lon="151.2899046">
  <ele>367.72</ele>
  <time>2026-09-01T19:57:53Z</time>
  <course>180.07</course>
  <speed>15.68</speed>
  <fix>3d</fix>
</trkpt>
<trkpt lat="-27.2731414" lon="151.2899046">
  <ele>367.39</ele>
  <time>2026-09-01T19:57:53Z</time>
  <course>180.6</course>
  <speed>15.21</speed>
  <fix>3d</fix>
</trkpt>
<trkpt lat="-27.273115" lon="151.2899045">
  <ele>367.6</ele>
  <time>2026-09-01T19:57:53Z</time>
  <course>180.06</course>
  <speed>15.42</speed>
  <fix>3d</fix>
</trkpt>
<trkpt lat="-27.2731551" lon="151.2899046">
  <ele>367.31</ele>
  <time>2026-09-01T19:57:53Z</time>
  <course>180.6</course>
  <speed>15.100003311257915</speed>
  <fix>3d</fix>
</trkpt>
<trkpt lat="-27.273115" lon="151.2899045">
  <ele>367.6</ele>
  <time>2026-09-01T19:57:53Z</time>
  <course>180.06</course>
  <speed>15.42</speed>
  <fix>3d</fix>
</trkpt>
<trkpt lat="-27.2731686" lon="151.2899046">
  <ele>367.23</ele>
  <time>2026-09-01T19:57:53Z</time>
  <course>180.59</course>
  <speed>14.980003337783339</speed>
  <fix>3d</fix>
</trkpt>
<trkpt lat="-27.2731425" lon="151.2899045">
  <ele>367.46</ele>
  <time>2026-09-01T19:57:53Z</time>
  <course>180.05</course>
  <speed>15.18</speed>
  <fix>3d</fix>
</trkpt>
<trkpt lat="-27.273182" lon="151.2899046">
  <ele>367.16</ele>
  <time>2026-09-01T19:57:53Z</time>
  <course>180.59</course>
  <speed>14.870003362474401</speed>
  <fix>3d</fix>
</trkpt>
<trkpt lat="-27.2731425" lon="151.2899045">
  <ele>367.46</ele>
  <time>2026-09-01T19:57:53Z</time>
  <course>180.05</course>
  <speed>15.18</speed>
  <fix>3d</fix>
</trkpt>
<trkpt lat="-27.2731953" lon="151.2899046">
  <ele>367.08</ele>
  <time>2026-09-01T19:57:53Z</time>
  <course>180.59</course>
  <speed>14.760003387533486</speed>
  <fix>3d</fix>
</trkpt>
<trkpt lat="-27.2731695" lon="151.2899045">
  <ele>367.31</ele>
  <time>2026-09-01T19:57:53Z</time>
  <course>180.04</course>
  <speed>14.95</speed>
  <fix>3d</fix>
</trkpt>
<trkpt lat="-27.2732085" lon="151.2899045">
  <ele>367.01</ele>
  <time>2026-09-01T19:57:53Z</time>
  <course>180.59</course>
  <speed>14.650003412968886</speed>
  <fix>3d</fix>
</trkpt>
<trkpt lat="-27.2731695" lon="151.2899045">
  <ele>367.31</ele>
  <time>2026-09-01T19:57:53Z</time>
  <course>180.04</course>
  <speed>14.95</speed>
  <fix>3d</fix>
</trkpt>
<trkpt lat="-27.2732216" lon="151.2899045">
  <ele>366.94</ele>
  <time>2026-09-01T19:57:53Z</time>
  <course>180.58</course>
  <speed>14.54000343878914</speed>
  <fix>3d</fix>
</trkpt>
<trkpt lat="-27.2731962" lon="151.2899045">
  <ele>367.16</ele>
  <time>2026-09-01T19:57:53Z</time>
  <course>180.03</course>
  <speed>14.73</speed>
  <fix>3d</fix>
</trkpt>
<trkpt lat="-27.2732346" lon="151.2899045">
  <ele>366.88</ele>
  <time>2026-09-01T19:57:53Z</time>
  <course>180.58</course>
  <speed>14.420003467405964</speed>
  <fix>3d</fix>
</trkpt>
<trkpt lat="-27.2731962" lon="151.2899045">
  <ele>367.16</ele>
  <time>2026-09-01T19:57:53Z</time>
  <course>180.03</course>
  <speed>14.73</speed>
  <fix>3d</fix>
</trkpt>
<trkpt lat="-27.2732475" lon="151.2899045">
  <ele>366.82</ele>
  <time>2026-09-01T19:57:53Z</time>
  <course>180.58</course>
  <speed>14.300003496503068</speed>
  <fix>3d</fix>
</trkpt>
<trkpt lat="-27.2732225" lon="151.2899044">
  <ele>367.03</ele>
  <time>2026-09-01T19:57:53Z</time>
  <course>180.02</course>
  <speed>14.51</speed>
  <fix>3d</fix>
</trkpt>
<trkpt lat="-27.2732603" lon="151.2899045">
  <ele>366.76</ele>
  <time>2026-09-01T19:57:53Z</time>
  <course>180.57</course>
  <speed>14.180003526092651</speed>
  <fix>3d</fix>
</trkpt>
<trkpt lat="-27.2732225" lon="151.2899044">
  <ele>367.03</ele>
  <time>2026-09-01T19:57:53Z</time>
  <course>180.02</course>
  <speed>14.51</speed>
  <fix>3d</fix>
</trkpt>
<trkpt lat="-27.273273" lon="151.2899045">
  <ele>366.71</ele>
  <time>2026-09-01T19:57:53Z</time>
  <course>180.57</course>
  <speed>14.060003556187317</speed>
  <fix>3d</fix>
</trkpt>
<trkpt lat="-27.2732484" lon="151.2899043">
  <ele>366.91</ele>
  <time>2026-09-01T19:57:53Z</time>
  <course>180.01</course>
  <speed>14.27</speed>
  <fix>3d</fix>
</trkpt>
<trkpt lat="-27.2732855" lon="151.2899044">
  <ele>366.67</ele>
  <time>2026-09-01T19:57:53Z</time>
  <course>180.57</course>
  <speed>13.930003589374987</speed>
  <fix>3d</fix>
</trkpt>
<trkpt lat="-27.2732484" lon="151.2899043">
  <ele>366.91</ele>
  <time>2026-09-01T19:57:53Z</time>
  <course>180.01</course>
  <speed>14.27</speed>
  <fix>3d</fix>
</trkpt>
<trkpt lat="-27.273298" lon="151.2899044">
  <ele>366.63</ele>
  <time>2026-09-01T19:57:53Z</time>
  <course>180.56</course>
  <speed>13.810003620564334</speed>
  <fix>3d</fix>
</trkpt>
<trkpt lat="-27.2732739" lon="151.2899043">
  <ele>366.82</ele>
  <time>2026-09-01T19:57:53Z</time>
  <course>179.99</course>
  <speed>14.03</speed>
  <fix>3d</fix>
</trkpt>
<trkpt lat="-27.2733104" lon="151.2899044">
  <ele>366.6</ele>
  <time>2026-09-01T19:57:53Z</time>
  <course>180.56</course>
  <speed>13.670003657643989</speed>
  <fix>3d</fix>
</trkpt>
<trkpt lat="-27.2732739" lon="151.2899043">
  <ele>366.82</ele>
  <time>2026-09-01T19:57:53Z</time>
  <course>179.99</course>
  <speed>14.03</speed>
  <fix>3d</fix>
</trkpt>
<trkpt lat="-27.2733227" lon="151.2899044">
  <ele>366.58</ele>
  <time>2026-09-01T19:57:53Z</time>
  <course>180.55</course>
  <speed>13.540003692761681</speed>
  <fix>3d</fix>
</trkpt>
<trkpt lat="-27.2732988" lon="151.2899043">
  <ele>366.75</ele>
  <time>2026-09-01T19:57:53Z</time>
  <course>179.98</course>
  <speed>13.78</speed>
  <fix>3d</fix>
</trkpt>
<trkpt lat="-27.2733347" lon="151.2899044">
  <ele>366.56</ele>
  <time>2026-09-01T19:57:53Z</time>
  <course>180.55</course>
  <speed>13.400003731342766</speed>
  <fix>3d</fix>
</trkpt>
<trkpt lat="-27.2732988" lon="151.2899043">
  <ele>366.75</ele>
  <time>2026-09-01T19:57:53Z</time>
  <course>179.98</course>
  <speed>13.78</speed>
  <fix>3d</fix>
</trkpt>
<trkpt lat="-27.2733467" lon="151.2899044">
  <ele>366.55</ele>
  <time>2026-09-01T19:57:53Z</time>
  <course>180.55</course>
  <speed>13.260003770738528</speed>
  <fix>3d</fix>
</trkpt>
<trkpt lat="-27.2733233" lon="151.2899043">
  <ele>366.7</ele>
  <time>2026-09-01T19:57:53Z</time>
  <course>179.96</course>
  <speed>13.52</speed>
  <fix>3d</fix>
</trkpt>
<trkpt lat="-27.2733585" lon="151.2899043">
  <ele>366.54</ele>
  <time>2026-09-01T19:57:53Z</time>
  <course>180.54</course>
  <speed>13.120003810975057</speed>
  <fix>3d</fix>
</trkpt>
<trkpt lat="-27.2733233" lon="151.2899043">
  <ele>366.7</ele>
  <time>2026-09-01T19:57:53Z</time>
  <course>179.96</course>
  <speed>13.52</speed>
  <fix>3d</fix>
</trkpt>
<trkpt lat="-27.2733702" lon="151.2899043">
  <ele>366.54</ele>
  <time>2026-09-01T19:57:53Z</time>
  <course>180.54</course>
  <speed>12.970003855049542</speed>
  <fix>3d</fix>
</trkpt>
<trkpt lat="-27.2733474" lon="151.2899043">
  <ele>366.66</ele>
  <time>2026-09-01T19:57:53Z</time>
  <course>179.94</course>
  <speed>13.24</speed>
  <fix>3d</fix>
</trkpt>
<trkpt lat="-27.2733818" lon="151.2899043">
  <ele>366.54</ele>
  <time>2026-09-01T19:57:53Z</time>
  <course>180.53</course>
  <speed>12.820003900155413</speed>
  <fix>3d</fix>
</trkpt>
<trkpt lat="-27.2733474" lon="151.2899043">
  <ele>366.66</ele>
  <time>2026-09-01T19:57:53Z</time>
  <course>179.94</course>
  <speed>13.24</speed>
  <fix>3d</fix>
</trkpt>
<trkpt lat="-27.2733933" lon="151.2899043">
  <ele>366.55</ele>
  <time>2026-09-01T19:57:53Z</time>
  <course>180.53</course>
  <speed>12.670003946329297</speed>
  <fix>3d</fix>
</trkpt>
<trkpt lat="-27.2733709" lon="151.2899043">
  <ele>366.66</ele>
  <time>2026-09-01T19:57:53Z</time>
  <course>179.92</course>
  <speed>12.96</speed>
  <fix>3d</fix>
</trkpt>
<trkpt lat="-27.2734046" lon="151.2899043">
  <ele>366.56</ele>
  <time>2026-09-01T19:57:53Z</time>
  <course>180.52</course>
  <speed>12.520003993609587</speed>
  <fix>3d</fix>
</trkpt>
<trkpt lat="-27.2733709" lon="151.2899043">
  <ele>366.66</ele>
  <time>2026-09-01T19:57:53Z</time>
  <course>179.92</course>
  <speed>12.96</speed>
  <fix>3d</fix>
</trkpt>
<trkpt lat="-27.2734157" lon="151.2899043">
  <ele>366.58</ele>
  <time>2026-09-01T19:57:53Z</time>
  <course>180.51</course>
  <speed>12.360004045306782</speed>
  <fix>3d</fix>
</trkpt>
<trkpt lat="-27.2733939" lon="151.2899044">
  <ele>366.66</ele>
  <time>2026-09-01T19:57:53Z</time>
  <course>179.91</course>
  <speed>12.66</speed>
  <fix>3d</fix>
</trkpt>
<trkpt lat="-27.2734267" lon="151.2899043">
  <ele>366.6</ele>
  <time>2026-09-01T19:57:53Z</time>
  <course>180.51</course>
  <speed>12.21</speed>
  <fix>3d</fix>
</trkpt>
<trkpt lat="-27.2733939" lon="151.2899044">
  <ele>366.66</ele>
  <time>2026-09-01T19:57:53Z</time>
  <course>179.91</course>
  <speed>12.66</speed>
  <fix>3d</fix>
</trkpt>
<trkpt lat="-27.2734376" lon="151.2899043">
  <ele>366.63</ele>
  <time>2026-09-01T19:57:53Z</time>
  <course>180.5</course>
  <speed>12.05</speed>
  <fix>3d</fix>
</trkpt>
<trkpt lat="-27.2734164" lon="151.2899045">
  <ele>366.69</ele>
  <time>2026-09-01T19:57:53Z</time>
  <course>179.89</course>
  <speed>12.35</speed>
  <fix>3d</fix>
</trkpt>
<trkpt lat="-27.2734484" lon="151.2899044">
  <ele>366.65</ele>
  <time>2026-09-01T19:57:53Z</time>
  <course>180.5</course>
  <speed>11.88</speed>
  <fix>3d</fix>
</trkpt>
<trkpt lat="-27.2734164" lon="151.2899045">
  <ele>366.69</ele>
  <time>2026-09-01T19:57:53Z</time>
  <course>179.89</course>
  <speed>12.35</speed>
  <fix>3d</fix>
</trkpt>
<trkpt lat="-27.273459" lon="151.2899044">
  <ele>366.68</ele>
  <time>2026-09-01T19:57:53Z</time>
  <course>180.49</course>
  <speed>11.72</speed>
  <fix>3d</fix>
</trkpt>
<trkpt lat="-27.2734383" lon="151.2899045">
  <ele>366.73</ele>
  <time>2026-09-01T19:57:53Z</time>
  <course>179.86</course>
  <speed>12.04</speed>
  <fix>3d</fix>
</trkpt>
<trkpt lat="-27.2734694" lon="151.2899044">
  <ele>366.72</ele>
  <time>2026-09-01T19:57:53Z</time>
  <course>180.49</course>
  <speed>11.55</speed>
  <fix>3d</fix>
</trkpt>
<trkpt lat="-27.2734383" lon="151.2899045">
  <ele>366.73</ele>
  <time>2026-09-01T19:57:53Z</time>
  <course>179.86</course>
  <speed>12.04</speed>
  <fix>3d</fix>
</trkpt>
<trkpt lat="-27.2734797" lon="151.2899044">
  <ele>366.75</ele>
  <time>2026-09-01T19:57:53Z</time>
  <course>180.48</course>
  <speed>11.38</speed>
  <fix>3d</fix>
</trkpt>
<trkpt lat="-27.2734596" lon="151.2899046">
  <ele>366.79</ele>
  <time>2026-09-01T19:57:53Z</time>
  <course>179.84</course>
  <speed>11.71</speed>
  <fix>3d</fix>
</trkpt>
<trkpt lat="-27.2734898" lon="151.2899044">
  <ele>366.79</ele>
  <time>2026-09-01T19:57:53Z</time>
  <course>180.48</course>
  <speed>11.21</speed>
  <fix>3d</fix>
</trkpt>
<trkpt lat="-27.2734596" lon="151.2899046">
  <ele>366.79</ele>
  <time>2026-09-01T19:57:53Z</time>
  <course>179.84</course>
  <speed>11.71</speed>
  <fix>3d</fix>
</trkpt>
<trkpt lat="-27.2734998" lon="151.2899044">
  <ele>366.83</ele>
  <time>2026-09-01T19:57:53Z</time>
  <course>180.47</course>
  <speed>11.04</speed>
  <fix>3d</fix>
</trkpt>
<trkpt lat="-27.2734804" lon="151.2899046">
  <ele>366.86</ele>
  <time>2026-09-01T19:57:53Z</time>
  <course>179.82</course>
  <speed>11.38</speed>
  <fix>3d</fix>
</trkpt>
<trkpt lat="-27.2735097" lon="151.2899044">
  <ele>366.88</ele>
  <time>2026-09-01T19:57:53Z</time>
  <course>180.46</course>
  <speed>10.86</speed>
  <fix>3d</fix>
</trkpt>
<trkpt lat="-27.2734804" lon="151.2899046">
  <ele>366.86</ele>
  <time>2026-09-01T19:57:53Z</time>
  <course>179.82</course>
  <speed>11.38</speed>
  <fix>3d</fix>
</trkpt>
<trkpt lat="-27.2735194" lon="151.2899045">
  <ele>366.92</ele>
  <time>2026-09-01T19:57:53Z</time>
  <course>180.46</course>
  <speed>10.69</speed>
  <fix>3d</fix>
</trkpt>
<trkpt lat="-27.2735006" lon="151.2899047">
  <ele>366.94</ele>
  <time>2026-09-01T19:57:53Z</time>
  <course>179.8</course>
  <speed>11.04</speed>
  <fix>3d</fix>
</trkpt>
<trkpt lat="-27.2735289" lon="151.2899045">
  <ele>366.97</ele>
  <time>2026-09-01T19:57:53Z</time>
  <course>180.45</course>
  <speed>10.51</speed>
  <fix>3d</fix>
</trkpt>
<trkpt lat="-27.2735006" lon="151.2899047">
  <ele>366.94</ele>
  <time>2026-09-01T19:57:53Z</time>
  <course>179.8</course>
  <speed>11.04</speed>
  <fix>3d</fix>
</trkpt>
<trkpt lat="-27.2735382" lon="151.2899045">
  <ele>367.02</ele>
  <time>2026-09-01T19:57:53Z</time>
  <course>180.45</course>
  <speed>10.33</speed>
  <fix>3d</fix>
</trkpt>
<trkpt lat="-27.2735202" lon="151.2899048">
  <ele>367.02</ele>
  <time>2026-09-01T19:57:53Z</time>
  <course>179.78</course>
  <speed>10.69</speed>
  <fix>3d</fix>
</trkpt>
<trkpt lat="-27.2735474" lon="151.2899045">
  <ele>367.07</ele>
  <time>2026-09-01T19:57:53Z</time>
  <course>180.44</course>
  <speed>10.15</speed>
  <fix>3d</fix>
</trkpt>
<trkpt lat="-27.2735202" lon="151.2899048">
  <ele>367.02</ele>
  <time>2026-09-01T19:57:53Z</time>
  <course>179.78</course>
  <speed>10.69</speed>
  <fix>3d</fix>
</trkpt>
<trkpt lat="-27.2735565" lon="151.2899046">
  <ele>367.12</ele>
  <time>2026-09-01T19:57:53Z</time>
  <course>180.44</course>
  <speed>9.97</speed>
  <fix>3d</fix>
</trkpt>
<trkpt lat="-27.273539" lon="151.2899048">
  <ele>367.12</ele>
  <time>2026-09-01T19:57:53Z</time>
  <course>179.76</course>
  <speed>10.33</speed>
  <fix>3d</fix>
</trkpt>
<trkpt lat="-27.2735653" lon="151.2899046">
  <ele>367.16</ele>
  <time>2026-09-01T19:57:53Z</time>
  <course>180.43</course>
  <speed>9.78</speed>
  <fix>3d</fix>
</trkpt>
<trkpt lat="-27.273539" lon="151.2899048">
  <ele>367.12</ele>
  <time>2026-09-01T19:57:53Z</time>
  <course>179.76</course>
  <speed>10.33</speed>
  <fix>3d</fix>
</trkpt>
<trkpt lat="-27.2735741" lon="151.2899047">
  <ele>367.21</ele>
  <time>2026-09-01T19:57:53Z</time>
  <course>180.43</course>
  <speed>9.60000520833192</speed>
  <fix>3d</fix>
</trkpt>
<trkpt lat="-27.2735573" lon="151.2899049">
  <ele>367.21</ele>
  <time>2026-09-01T19:57:53Z</time>
  <course>179.74</course>
  <speed>9.97</speed>
  <fix>3d</fix>
</trkpt>
<trkpt lat="-27.2735827" lon="151.2899047">
  <ele>367.26</ele>
  <time>2026-09-01T19:57:53Z</time>
  <course>180.42</course>
  <speed>9.41000531349478</speed>
  <fix>3d</fix>
</trkpt>
<trkpt lat="-27.2735573" lon="151.2899049">
  <ele>367.21</ele>
  <time>2026-09-01T19:57:53Z</time>
  <course>179.74</course>
  <speed>9.97</speed>
  <fix>3d</fix>
</trkpt>
<trkpt lat="-27.2735911" lon="151.2899047">
  <ele>367.31</ele>
  <time>2026-09-01T19:57:53Z</time>
  <course>180.42</course>
  <speed>9.220005422991898</speed>
  <fix>3d</fix>
</trkpt>
<trkpt lat="-27.2735749" lon="151.289905">
  <ele>367.31</ele>
  <time>2026-09-01T19:57:53Z</time>
  <course>179.71</course>
  <speed>9.6</speed>
  <fix>3d</fix>
</trkpt>
<trkpt lat="-27.2735993" lon="151.2899048">
  <ele>367.35</ele>
  <time>2026-09-01T19:57:53Z</time>
  <course>180.41</course>
  <speed>9.030005537096862</speed>
  <fix>3d</fix>
</trkpt>
<trkpt lat="-27.2735749" lon="151.289905">
  <ele>367.31</ele>
  <time>2026-09-01T19:57:53Z</time>
  <course>179.71</course>
  <speed>9.6</speed>
  <fix>3d</fix>
</trkpt>
<trkpt lat="-27.2736074" lon="151.2899048">
  <ele>367.39</ele>
  <time>2026-09-01T19:57:53Z</time>
  <course>180.41</course>
  <speed>8.85000564971571</speed>
  <fix>3d</fix>
</trkpt>
<trkpt lat="-27.2735918" lon="151.2899051">
  <ele>367.4</ele>
  <time>2026-09-01T19:57:53Z</time>
  <course>179.69</course>
  <speed>9.23</speed>
  <fix>3d</fix>
</trkpt>
<trkpt lat="-27.2736153" lon="151.2899049">
  <ele>367.43</ele>
  <time>2026-09-01T19:57:53Z</time>
  <course>180.4</course>
  <speed>8.66000577367013</speed>
  <fix>3d</fix>
</trkpt>
<trkpt lat="-27.2735918" lon="151.2899051">
  <ele>367.4</ele>
  <time>2026-09-01T19:57:53Z</time>
  <course>179.69</course>
  <speed>9.23</speed>
  <fix>3d</fix>
</trkpt>
<trkpt lat="-27.273623" lon="151.2899049">
  <ele>367.47</ele>
  <time>2026-09-01T19:57:53Z</time>
  <course>180.4</course>
  <speed>8.470005903185664</speed>
  <fix>3d</fix>
</trkpt>
<trkpt lat="-27.273608" lon="151.2899052">
  <ele>367.49</ele>
  <time>2026-09-01T19:57:53Z</time>
  <course>179.66</course>
  <speed>8.86</speed>
  <fix>3d</fix>
</trkpt>
<trkpt lat="-27.2736305" lon="151.289905">
  <ele>367.51</ele>
  <time>2026-09-01T19:57:53Z</time>
  <course>180.39</course>
  <speed>8.28002415455414</speed>
  <fix>3d</fix>
</trkpt>
<trkpt lat="-27.273608" lon="151.2899052">
  <ele>367.49</ele>
  <time>2026-09-01T19:57:53Z</time>
  <course>179.66</course>
  <speed>8.86</speed>
  <fix>3d</fix>
</trkpt>
<trkpt lat="-27.2736379" lon="151.289905">
  <ele>367.54</ele>
  <time>2026-09-01T19:57:53Z</time>
  <course>180.39</course>
  <speed>8.09002472184109</speed>
  <fix>3d</fix>
</trkpt>
<trkpt lat="-27.2736236" lon="151.2899053">
  <ele>367.58</ele>
  <time>2026-09-01T19:57:53Z</time>
  <course>179.63</course>
  <speed>8.48</speed>
  <fix>3d</fix>
</trkpt>
<trkpt lat="-27.273645" lon="151.2899051">
  <ele>367.57</ele>
  <time>2026-09-01T19:57:53Z</time>
  <course>180.38</course>
  <speed>7.900025316415132</speed>
  <fix>3d</fix>
</trkpt>
<trkpt lat="-27.2736236" lon="151.2899053">
  <ele>367.58</ele>
  <time>2026-09-01T19:57:53Z</time>
  <course>179.63</course>
  <speed>8.48</speed>
  <fix>3d</fix>
</trkpt>
<trkpt lat="-27.2736521" lon="151.2899052">
  <ele>367.6</ele>
  <time>2026-09-01T19:57:53Z</time>
  <course>180.38</course>
  <speed>7.710025940293587</speed>
  <fix>3d</fix>
</trkpt>
<trkpt lat="-27.2736384" lon="151.2899054">
  <ele>367.65</ele>
  <time>2026-09-01T19:57:53Z</time>
  <course>179.6</course>
  <speed>8.1</speed>
  <fix>3d</fix>
</trkpt>
<trkpt lat="-27.2736589" lon="151.2899052">
  <ele>367.63</ele>
  <time>2026-09-01T19:57:53Z</time>
  <course>180.37</course>
  <speed>7.510026631111238</speed>
  <fix>3d</fix>
</trkpt>
<trkpt lat="-27.2736384" lon="151.2899054">
  <ele>367.65</ele>
  <time>2026-09-01T19:57:53Z</time>
  <course>179.6</course>
  <speed>8.1</speed>
  <fix>3d</fix>
</trkpt>
<trkpt lat="-27.2736656" lon="151.2899053">
  <ele>367.65</ele>
  <time>2026-09-01T19:57:53Z</time>
  <course>180.36</course>
  <speed>7.32002732235338</speed>
  <fix>3d</fix>
</trkpt>
<trkpt lat="-27.2736527" lon="151.2899056">
  <ele>367.71</ele>
  <time>2026-09-01T19:57:53Z</time>
  <course>179.56</course>
  <speed>7.72</speed>
  <fix>3d</fix>
</trkpt>
<trkpt lat="-27.2736721" lon="151.2899053">
  <ele>367.66</ele>
  <time>2026-09-01T19:57:53Z</time>
  <course>180.35</course>
  <speed>7.130063113325154</speed>
  <fix>3d</fix>
</trkpt>
<trkpt lat="-27.2736527" lon="151.2899056">
  <ele>367.71</ele>
  <time>2026-09-01T19:57:53Z</time>
  <course>179.56</course>
  <speed>7.72</speed>
  <fix>3d</fix>
</trkpt>
<trkpt lat="-27.2736785" lon="151.2899054">
  <ele>367.68</ele>
  <time>2026-09-01T19:57:53Z</time>
  <course>180.34</course>
  <speed>6.950064747899835</speed>
  <fix>3d</fix>
</trkpt>
<trkpt lat="-27.2736663" lon="151.2899057">
  <ele>367.76</ele>
  <time>2026-09-01T19:57:53Z</time>
  <course>179.51</course>
  <speed>7.34</speed>
  <fix>3d</fix>
</trkpt>
<trkpt lat="-27.2736846" lon="151.2899055">
  <ele>367.69</ele>
  <time>2026-09-01T19:57:53Z</time>
  <course>180.32</course>
  <speed>6.760066567719581</speed>
  <fix>3d</fix>
</trkpt>
<trkpt lat="-27.2736663" lon="151.2899057">
  <ele>367.76</ele>
  <time>2026-09-01T19:57:53Z</time>
  <course>179.51</course>
  <speed>7.34</speed>
  <fix>3d</fix>
</trkpt>
<trkpt lat="-27.2736907" lon="151.2899056">
  <ele>367.68</ele>
  <time>2026-09-01T19:57:53Z</time>
  <course>180.31</course>
  <speed>6.570121764472862</speed>
  <fix>3d</fix>
</trkpt>
<trkpt lat="-27.2736791" lon="151.2899058">
  <ele>367.78</ele>
  <time>2026-09-01T19:57:53Z</time>
  <course>179.45</course>
  <speed>6.96</speed>
  <fix>3d</fix>
</trkpt>
<trkpt lat="-27.2736964" lon="151.2899056">
  <ele>367.62</ele>
  <time>2026-09-01T19:57:53Z</time>
  <course>180.28</course>
  <speed>6.350125983002227</speed>
  <fix>3d</fix>
</trkpt>
<trkpt lat="-27.2736791" lon="151.2899058">
  <ele>367.78</ele>
  <time>2026-09-01T19:57:53Z</time>
  <course>179.45</course>
  <speed>6.96</speed>
  <fix>3d</fix>
</trkpt>
<trkpt lat="-27.273702" lon="151.2899057">
  <ele>367.48</ele>
  <time>2026-09-01T19:57:53Z</time>
  <course>180.24</course>
  <speed>6.050132229959937</speed>
  <fix>3d</fix>
</trkpt>
<trkpt lat="-27.2736912" lon="151.2899059">
  <ele>367.77</ele>
  <time>2026-09-01T19:57:53Z</time>
  <course>179.39</course>
  <speed>6.56</speed>
  <fix>3d</fix>
</trkpt>
<trkpt lat="-27.2737073" lon="151.2899058">
  <ele>367.26</ele>
  <time>2026-09-01T19:57:53Z</time>
  <course>180.19</course>
  <speed>5.690140595802533</speed>
  <fix>3d</fix>
</trkpt>
<trkpt lat="-27.2736912" lon="151.2899059">
  <ele>367.77</ele>
  <time>2026-09-01T19:57:53Z</time>
  <course>179.39</course>
  <speed>6.56</speed>
  <fix>3d</fix>
</trkpt>
<trkpt lat="-27.2737123" lon="151.2899059">
  <ele>367.0</ele>
  <time>2026-09-01T19:57:53Z</time>
  <course>180.17</course>
  <speed>5.240152669531681</speed>
  <fix>3d</fix>
</trkpt>
<trkpt lat="-27.2737026" lon="151.2899061">
  <ele>367.57</ele>
  <time>2026-09-01T19:57:53Z</time>
  <course>179.36</course>
  <speed>6.03</speed>
  <fix>3d</fix>
</trkpt>
<trkpt lat="-27.2737168" lon="151.289906">
  <ele>366.69</ele>
  <time>2026-09-01T19:57:53Z</time>
  <course>180.22</course>
  <speed>4.730264263230967</speed>
  <fix>3d</fix>
</trkpt>
<trkpt lat="-27.2737026" lon="151.2899061">
  <ele>367.57</ele>
  <time>2026-09-01T19:57:53Z</time>
  <course>179.36</course>
  <speed>6.03</speed>
  <fix>3d</fix>
</trkpt>
<trkpt lat="-27.2737209" lon="151.289906">
  <ele>366.36</ele>
  <time>2026-09-01T19:57:53Z</time>
  <course>180.33</course>
  <speed>4.180299032365986</speed>
  <fix>3d</fix>
</trkpt>
<trkpt lat="-27.2737128" lon="151.2899062">
  <ele>367.12</ele>
  <time>2026-09-01T19:57:53Z</time>
  <course>179.3</course>
  <speed>5.23</speed>
  <fix>3d</fix>
</trkpt>
<trkpt lat="-27.2737244" lon="151.2899061">
  <ele>366.01</ele>
  <time>2026-09-01T19:57:53Z</time>
  <course>180.5</course>
  <speed>3.640343390396021</speed>
  <fix>3d</fix>
</trkpt>
<trkpt lat="-27.2737128" lon="151.2899062">
  <ele>367.12</ele>
  <time>2026-09-01T19:57:53Z</time>
  <course>179.3</course>
  <speed>5.23</speed>
  <fix>3d</fix>
</trkpt>
<trkpt lat="-27.2737274" lon="151.2899062">
  <ele>365.65</ele>
  <time>2026-09-01T19:57:53Z</time>
  <course>180.71</course>
  <speed>3.100403199585499</speed>
  <fix>3d</fix>
</trkpt>
<trkpt lat="-27.2737213" lon="151.2899064">
  <ele>366.5</ele>
  <time>2026-09-01T19:57:53Z</time>
  <course>179.2</course>
  <speed>4.21</speed>
  <fix>3d</fix>
</trkpt>
<trkpt lat="-27.27373" lon="151.2899063">
  <ele>365.3</ele>
  <time>2026-09-01T19:57:53Z</time>
  <course>180.94</course>
  <speed>2.6003076741032007</speed>
  <fix>3d</fix>
</trkpt>
<trkpt lat="-27.2737213" lon="151.2899064">
  <ele>366.5</ele>
  <time>2026-09-01T19:57:53Z</time>
  <course>179.2</course>
  <speed>4.21</speed>
  <fix>3d</fix>
</trkpt>
<trkpt lat="-27.2737322" lon="151.2899063">
  <ele>364.96</ele>
  <time>2026-09-01T19:57:53Z</time>
  <course>181.17</course>
  <speed>2.140373799129488</speed>
  <fix>3d</fix>
</trkpt>
<trkpt lat="-27.2737279" lon="151.2899065">
  <ele>365.81</ele>
  <time>2026-09-01T19:57:53Z</time>
  <course>179.09</course>
  <speed>3.14</speed>
  <fix>3d</fix>
</trkpt>
<trkpt lat="-27.273734" lon="151.2899064">
  <ele>364.63</ele>
  <time>2026-09-01T19:57:53Z</time>
  <course>181.41</course>
  <speed>1.7302600960549257</speed>
  <fix>3d</fix>
</trkpt>
<trkpt lat="-27.2737279" lon="151.2899065">
  <ele>365.81</ele>
  <time>2026-09-01T19:57:53Z</time>
  <course>179.09</course>
  <speed>3.14</speed>
  <fix>3d</fix>
</trkpt>
<trkpt lat="-27.2737354" lon="151.2899064">
  <ele>364.31</ele>
  <time>2026-09-01T19:57:53Z</time>
  <course>181.63</course>
  <speed>1.3701459776242821</speed>
  <fix>3d</fix>
</trkpt>
<trkpt lat="-27.2737326" lon="151.2899066">
  <ele>365.12</ele>
  <time>2026-09-01T19:57:53Z</time>
  <course>179.03</course>
  <speed>2.18</speed>
  <fix>3d</fix>
</trkpt>
<trkpt lat="-27.2737365" lon="151.2899065">
  <ele>364.01</ele>
  <time>2026-09-01T19:57:53Z</time>
  <course>181.84</course>
  <speed>1.0700467279516348</speed>
  <fix>3d</fix>
</trkpt>
<trkpt lat="-27.2737326" lon="151.2899066">
  <ele>365.12</ele>
  <time>2026-09-01T19:57:53Z</time>
  <course>179.03</course>
  <speed>2.18</speed>
  <fix>3d</fix>
</trkpt>
<trkpt lat="-27.2737374" lon="151.2899065">
  <ele>363.73</ele>
  <time>2026-09-01T19:57:53Z</time>
  <course>182.05</course>
  <speed>0.81</speed>
  <fix>3d</fix>
</trkpt>
<trkpt lat="-27.2737358" lon="151.2899066">
  <ele>364.48</ele>
  <time>2026-09-01T19:57:53Z</time>
  <course>179.22</course>
  <speed>1.41</speed>
  <fix>3d</fix>
</trkpt>
<trkpt lat="-27.2737381" lon="151.2899065">
  <ele>363.47</ele>
  <time>2026-09-01T19:57:53Z</time>
  <course>182.24</course>
  <speed>0.61</speed>
  <fix>3d</fix>
</trkpt>
<trkpt lat="-27.2737358" lon="151.2899066">
  <ele>364.48</ele>
  <time>2026-09-01T19:57:53Z</time>
  <course>179.22</course>
  <speed>1.41</speed>
  <fix>3d</fix>
</trkpt>
<trkpt lat="-27.2737386" lon="151.2899065">
  <ele>363.23</ele>
  <time>2026-09-01T19:57:53Z</time>
  <course>182.44</course>
  <speed>0.450111097397076</speed>
  <fix>3d</fix>
</trkpt>
<trkpt lat="-27.2737378" lon="151.2899067">
  <ele>363.91</ele>
  <time>2026-09-01T19:57:53Z</time>
  <course>179.9</course>
  <speed>0.84</speed>
  <fix>3d</fix>
</trkpt>
<trkpt lat="-27.273739" lon="151.2899065">
  <ele>363.0</ele>
  <time>2026-09-01T19:57:53Z</time>
  <course>182.64</course>
  <speed>0.3306055050963308</speed>
  <fix>3d</fix>
</trkpt>
<trkpt lat="-27.2737378" lon="151.2899067">
  <ele>363.91</ele>
  <time>2026-09-01T19:57:53Z</time>
  <course>179.9</course>
  <speed>0.84</speed>
  <fix>3d</fix>
</trkpt>
<trkpt lat="-27.2737393" lon="151.2899065">
  <ele>362.78</ele>
  <time>2026-09-01T19:57:53Z</time>
  <course>182.86</course>
  <speed>0.2308679276123039</speed>
  <fix>3d</fix>
</trkpt>
<trkpt lat="-27.273739" lon="151.2899067">
  <ele>363.4</ele>
  <time>2026-09-01T19:57:53Z</time>
  <course>181.39</course>
  <speed>0.47</speed>
  <fix>3d</fix>
</trkpt>
<trkpt lat="-27.2737395" lon="151.2899065">
  <ele>362.58</ele>
  <time>2026-09-01T19:57:53Z</time>
  <course>183.16</course>
  <speed>0.15033296378372907</speed>
  <fix>3d</fix>
</trkpt>
<trkpt lat="-27.273739" lon="151.2899067">
  <ele>363.4</ele>
  <time>2026-09-01T19:57:53Z</time>
  <course>181.39</course>
  <speed>0.47</speed>
  <fix>3d</fix>
</trkpt>
<trkpt lat="-27.2737396" lon="151.2899065">
  <ele>362.4</ele>
  <time>2026-09-01T19:57:53Z</time>
  <course>183.74</course>
  <speed>0.08</speed>
  <fix>3d</fix>
</trkpt>
<trkpt lat="-27.2737396" lon="151.2899067">
  <ele>362.97</ele>
  <time>2026-09-01T19:57:53Z</time>
  <course>182.2</course>
  <speed>0.23</speed>
  <fix>3d</fix>
</trkpt>
<trkpt lat="-27.2737397" lon="151.2899065">
  <ele>362.22</ele>
  <time>2026-09-01T19:57:53Z</time>
  <course>184.22</course>
  <speed>0.03</speed>
  <fix>3d</fix>
</trkpt>
<trkpt lat="-27.2737396" lon="151.2899067">
  <ele>362.97</ele>
  <time>2026-09-01T19:57:53Z</time>
  <course>182.2</course>
  <speed>0.23</speed>
  <fix>3d</fix>
</trkpt>
<trkpt lat="-27.2737397" lon="151.2899065">
  <ele>362.05</ele>
  <time>2026-09-01T19:57:53Z</time>
  <course>184.49</course>
  <speed>0.01414213562373095</speed>
  <fix>3d</fix>
</trkpt>
<trkpt lat="-27.2737399" lon="151.2899067">
  <ele>362.58</ele>
  <time>2026-09-01T19:57:53Z</time>
  <course>172.52</course>
  <speed>0.08</speed>
  <fix>3d</fix>
</trkpt>
<trkpt lat="-27.2737397" lon="151.2899066">
  <ele>361.88</ele>
  <time>2026-09-01T19:57:53Z</time>
  <course>184.59</course>
  <speed>0.044721359549995794</speed>
  <fix>3d</fix>
</trkpt>
<trkpt lat="-27.2737399" lon="151.2899067">
  <ele>362.58</ele>
  <time>2026-09-01T19:57:53Z</time>
  <course>172.52</course>
  <speed>0.08</speed>
  <fix>3d</fix>
</trkpt>
<trkpt lat="-27.2737397" lon="151.2899066">
  <ele>361.72</ele>
  <time>2026-09-01T19:57:53Z</time>
  <course>184.55</course>
  <speed>0.07071067811865475</speed>
  <fix>3d</fix>
</trkpt>
<trkpt lat="-27.27374" lon="151.2899067">
  <ele>362.23</ele>
  <time>2026-09-01T19:57:53Z</time>
  <course>54.02</course>
  <speed>0.03</speed>
  <fix>3d</fix>
</trkpt>
<trkpt lat="-27.2737396" lon="151.2899066">
  <ele>361.55</ele>
  <time>2026-09-01T19:57:53Z</time>
  <course>184.4</course>
  <speed>0.09219544457292887</speed>
  <fix>3d</fix>
</trkpt>
<trkpt lat="-27.27374" lon="151.2899067">
  <ele>362.23</ele>
  <time>2026-09-01T19:57:53Z</time>
  <course>54.02</course>
  <speed>0.03</speed>
  <fix>3d</fix>
</trkpt>
<trkpt lat="-27.2737395" lon="151.2899067">
  <ele>361.39</ele>
  <time>2026-09-01T19:57:53Z</time>
  <course>184.2</course>
  <speed>0.1044030650891055</speed>
  <fix>3d</fix>
</trkpt>
<trkpt lat="-27.2737399" lon="151.2899067">
  <ele>361.91</ele>
  <time>2026-09-01T19:57:53Z</time>
  <course>20.87</course>
  <speed>0.09</speed>
  <fix>3d</fix>
</trkpt>
<trkpt lat="-27.2737394" lon="151.2899067">
  <ele>361.22</ele>
  <time>2026-09-01T19:57:53Z</time>
  <course>183.98</course>
  <speed>0.11401754250991379</speed>
  <fix>3d</fix>
</trkpt>
<trkpt lat="-27.2737399" lon="151.2899067">
  <ele>361.91</ele>
  <time>2026-09-01T19:57:53Z</time>
  <course>20.87</course>
  <speed>0.09</speed>
  <fix>3d</fix>
</trkpt>
<trkpt lat="-27.2737394" lon="151.2899068">
  <ele>361.05</ele>
  <time>2026-09-01T19:57:53Z</time>
  <course>183.79</course>
  <speed>0.1019803902718557</speed>
  <fix>3d</fix>
</trkpt>
<trkpt lat="-27.2737397" lon="151.2899068">
  <ele>361.58</ele>
  <time>2026-09-01T19:57:53Z</time>
  <course>16.38</course>
  <speed>0.12</speed>
  <fix>3d</fix>
</trkpt>
<trkpt lat="-27.2737394" lon="151.2899068">
  <ele>360.88</ele>
  <time>2026-09-01T19:57:53Z</time>
  <course>183.65</course>
  <speed>0.1019803902718557</speed>
  <fix>3d</fix>
</trkpt>
<trkpt lat="-27.2737397" lon="151.2899068">
  <ele>361.58</ele>
  <time>2026-09-01T19:57:53Z</time>
  <course>16.38</course>
  <speed>0.12</speed>
  <fix>3d</fix>
</trkpt>
<trkpt lat="-27.2737393" lon="151.2899068">
  <ele>360.7</ele>
  <time>2026-09-01T19:57:53Z</time>
  <course>183.54</course>
  <speed>0.08062257748298549</speed>
  <fix>3d</fix>
</trkpt>
<trkpt lat="-27.2737396" lon="151.2899069">
  <ele>361.25</ele>
  <time>2026-09-01T19:57:53Z</time>
  <course>15.97</course>
  <speed>0.12</speed>
  <fix>3d</fix>
</trkpt>
<trkpt lat="-27.2737392" lon="151.2899068">
  <ele>360.52</ele>
  <time>2026-09-01T19:57:53Z</time>
  <course>183.45</course>
  <speed>0.07</speed>
  <fix>3d</fix>
</trkpt>
<trkpt lat="-27.2737396" lon="151.2899069">
  <ele>361.25</ele>
  <time>2026-09-01T19:57:53Z</time>
  <course>15.97</course>
  <speed>0.12</speed>
  <fix>3d</fix>
</trkpt>
<trkpt lat="-27.2737392" lon="151.2899068">
  <ele>360.33</ele>
  <time>2026-09-01T19:57:53Z</time>
  <course>183.39</course>
  <speed>0.05</speed>
  <fix>3d</fix>
</trkpt>
<trkpt lat="-27.2737393" lon="151.2899069">
  <ele>360.9</ele>
  <time>2026-09-01T19:57:53Z</time>
  <course>17.94</course>
  <speed>0.1</speed>
  <fix>3d</fix>
</trkpt>
<trkpt lat="-27.2737391" lon="151.2899068">
  <ele>360.14</ele>
  <time>2026-09-01T19:57:53Z</time>
  <course>183.33</course>
  <speed>0.02</speed>
  <fix>3d</fix>
</trkpt>
<trkpt lat="-27.2737393" lon="151.2899069">
  <ele>360.9</ele>
  <time>2026-09-01T19:57:53Z</time>
  <course>17.94</course>
  <speed>0.1</speed>
  <fix>3d</fix>
</trkpt>
<trkpt lat="-27.2737391" lon="151.2899069">
  <ele>359.95</ele>
  <time>2026-09-01T19:57:53Z</time>
  <course>183.23</course>
  <speed>0.01</speed>
  <fix>3d</fix>
</trkpt>
<trkpt lat="-27.2737392" lon="151.289907">
  <ele>360.53</ele>
  <time>2026-09-01T19:57:53Z</time>
  <course>25.36</course>
  <speed>0.06</speed>
  <fix>3d</fix>
</trkpt>
<trkpt lat="-27.2737391" lon="151.2899068">
  <ele>359.75</ele>
  <time>2026-09-01T19:57:54Z</time>
  <course>183.04</course>
  <speed>0.04242640687119285</speed>
  <fix>3d</fix>
</trkpt>
<trkpt lat="-27.2737392" lon="151.289907">
  <ele>360.53</ele>
  <time>2026-09-01T19:57:54Z</time>
  <course>25.36</course>
  <speed>0.06</speed>
  <fix>3d</fix>
</trkpt>
<trkpt lat="-27.2737392" lon="151.2899068">
  <ele>359.55</ele>
  <time>2026-09-01T19:57:54Z</time>
  <course>182.79</course>
  <speed>0.07211102550927978</speed>
  <fix>3d</fix>
</trkpt>
<trkpt lat="-27.2737391" lon="151.289907">
  <ele>360.15</ele>
  <time>2026-09-01T19:57:54Z</time>
  <course>67.03</course>
  <speed>0.02</speed>
  <fix>3d</fix>
</trkpt>
<trkpt lat="-27.2737393" lon="151.2899068">
  <ele>359.35</ele>
  <time>2026-09-01T19:57:54Z</time>
  <course>182.53</course>
  <speed>0.1118033988749895</speed>
  <fix>3d</fix>
</trkpt>
<trkpt lat="-27.2737391" lon="151.289907">
  <ele>360.15</ele>
  <time>2026-09-01T19:57:54Z</time>
  <course>67.03</course>
  <speed>0.02</speed>
  <fix>3d</fix>
</trkpt>
<trkpt lat="-27.2737393" lon="151.2899068">
  <ele>359.16</ele>
  <time>2026-09-01T19:57:54Z</time>
  <course>182.29</course>
  <speed>0.15652475842498528</speed>
  <fix>3d</fix>
</trkpt>
<trkpt lat="-27.2737391" lon="151.2899071">
  <ele>359.76</ele>
  <time>2026-09-01T19:57:54Z</time>
  <course>179.89</course>
  <speed>0.05</speed>
  <fix>3d</fix>
</trkpt>
<trkpt lat="-27.2737394" lon="151.2899068">
  <ele>358.97</ele>
  <time>2026-09-01T19:57:54Z</time>
  <course>182.1</course>
  <speed>0.19697715603592209</speed>
  <fix>3d</fix>
</trkpt>
<trkpt lat="-27.2737391" lon="151.2899071">
  <ele>359.76</ele>
  <time>2026-09-01T19:57:54Z</time>
  <course>179.89</course>
  <speed>0.05</speed>
  <fix>3d</fix>
</trkpt>
<trkpt lat="-27.2737396" lon="151.2899067">
  <ele>358.79</ele>
  <time>2026-09-01T19:57:54Z</time>
  <course>181.96</course>
  <speed>0.24698178070456936</speed>
  <fix>3d</fix>
</trkpt>
<trkpt lat="-27.2737392" lon="151.2899071">
  <ele>359.37</ele>
  <time>2026-09-01T19:57:54Z</time>
  <course>187.83</course>
  <speed>0.14</speed>
  <fix>3d</fix>
</trkpt>
<trkpt lat="-27.2737398" lon="151.2899067">
  <ele>358.63</ele>
  <time>2026-09-01T19:57:54Z</time>
  <course>181.87</course>
  <speed>0.2879236009777594</speed>
  <fix>3d</fix>
</trkpt>
<trkpt lat="-27.2737392" lon="151.2899071">
  <ele>359.37</ele>
  <time>2026-09-01T19:57:54Z</time>
  <course>187.83</course>
  <speed>0.14</speed>
  <fix>3d</fix>
</trkpt>
<trkpt lat="-27.2737401" lon="151.2899066">
  <ele>358.48</ele>
  <time>2026-09-01T19:57:54Z</time>
  <course>181.81</course>
  <speed>0.3478505426185217</speed>
  <fix>3d</fix>
</trkpt>
<trkpt lat="-27.2737396" lon="151.2899071">
  <ele>359.01</ele>
  <time>2026-09-01T19:57:54Z</time>
  <course>189.28</course>
  <speed>0.23</speed>
  <fix>3d</fix>
</trkpt>
<trkpt lat="-27.2737404" lon="151.2899065">
  <ele>358.35</ele>
  <time>2026-09-01T19:57:54Z</time>
  <course>181.79</course>
  <speed>0.4016217125604641</speed>
  <fix>3d</fix>
</trkpt>
<trkpt lat="-27.2737396" lon="151.2899071">
  <ele>359.01</ele>
  <time>2026-09-01T19:57:54Z</time>
  <course>189.28</course>
  <speed>0.23</speed>
  <fix>3d</fix>
</trkpt>
<trkpt lat="-27.2737408" lon="151.2899064">
  <ele>358.25</ele>
  <time>2026-09-01T19:57:54Z</time>
  <course>181.78</course>
  <speed>0.4617358552246078</speed>
  <fix>3d</fix>
</trkpt>
<trkpt lat="-27.2737401" lon="151.289907">
  <ele>358.7</ele>
  <time>2026-09-01T19:57:54Z</time>
  <course>189.39</course>
  <speed>0.34</speed>
  <fix>3d</fix>
</trkpt>
<trkpt lat="-27.2737412" lon="151.2899063">
  <ele>358.16</ele>
  <time>2026-09-01T19:57:54Z</time>
  <course>181.78</course>
  <speed>0.5220153254455275</speed>
  <fix>3d</fix>
</trkpt>
<trkpt lat="-27.2737401" lon="151.289907">
  <ele>358.7</ele>
  <time>2026-09-01T19:57:54Z</time>
  <course>189.39</course>
  <speed>0.34</speed>
  <fix>3d</fix>
</trkpt>
<trkpt lat="-27.2737417" lon="151.2899063">
  <ele>358.1</ele>
  <time>2026-09-01T19:57:54Z</time>
  <course>181.78</course>
  <speed>0.5797413216254298</speed>
  <fix>3d</fix>
</trkpt>
<trkpt lat="-27.2737408" lon="151.2899069">
  <ele>358.47</ele>
  <time>2026-09-01T19:57:54Z</time>
  <course>188.98</course>
  <speed>0.46</speed>
  <fix>3d</fix>
</trkpt>
<trkpt lat="-27.2737422" lon="151.2899061">
  <ele>358.06</ele>
  <time>2026-09-01T19:57:54Z</time>
  <course>181.78</course>
  <speed>0.65</speed>
  <fix>3d</fix>
</trkpt>
<trkpt lat="-27.2737408" lon="151.2899069">
  <ele>358.47</ele>
  <time>2026-09-01T19:57:54Z</time>
  <course>188.98</course>
  <speed>0.46</speed>
  <fix>3d</fix>
</trkpt>
<trkpt lat="-27.2737428" lon="151.289906">
  <ele>358.03</ele>
  <time>2026-09-01T19:57:54Z</time>
  <course>181.77</course>
  <speed>0.7083078426785913</speed>
  <fix>3d</fix>
</trkpt>
<trkpt lat="-27.2737417" lon="151.2899067">
  <ele>358.32</ele>
  <time>2026-09-01T19:57:54Z</time>
  <course>188.3</course>
  <speed>0.58</speed>
  <fix>3d</fix>
</trkpt>
<trkpt lat="-27.2737435" lon="151.2899059">
  <ele>358.02</ele>
  <time>2026-09-01T19:57:54Z</time>
  <course>181.76</course>
  <speed>0.7690253571892152</speed>
  <fix>3d</fix>
</trkpt>
<trkpt lat="-27.2737417" lon="151.2899067">
  <ele>358.32</ele>
  <time>2026-09-01T19:57:54Z</time>
  <course>188.3</course>
  <speed>0.58</speed>
  <fix>3d</fix>
</trkpt>
<trkpt lat="-27.2737442" lon="151.2899058">
  <ele>358.03</ele>
  <time>2026-09-01T19:57:54Z</time>
  <course>181.74</course>
  <speed>0.8276472678623424</speed>
  <fix>3d</fix>
</trkpt>
<trkpt lat="-27.2737429" lon="151.2899065">
  <ele>358.25</ele>
  <time>2026-09-01T19:57:54Z</time>
  <course>187.54</course>
  <speed>0.72</speed>
  <fix>3d</fix>
</trkpt>
<trkpt lat="-27.2737449" lon="151.2899057">
  <ele>358.04</ele>
  <time>2026-09-01T19:57:54Z</time>
  <course>181.74</course>
  <speed>0.8766413177577246</speed>
  <fix>3d</fix>
</trkpt>
<trkpt lat="-27.2737429" lon="151.2899065">
  <ele>358.25</ele>
  <time>2026-09-01T19:57:54Z</time>
  <course>187.54</course>
  <speed>0.72</speed>
  <fix>3d</fix>
</trkpt>
<trkpt lat="-27.2737457" lon="151.2899056">
  <ele>358.06</ele>
  <time>2026-09-01T19:57:54Z</time>
  <course>181.73</course>
  <speed>0.9355746896961247</speed>
  <fix>3d</fix>
</trkpt>
<trkpt lat="-27.2737443" lon="151.2899063">
  <ele>358.24</ele>
  <time>2026-09-01T19:57:54Z</time>
  <course>186.81</course>
  <speed>0.84</speed>
  <fix>3d</fix>
</trkpt>
<trkpt lat="-27.2737466" lon="151.2899055">
  <ele>358.09</ele>
  <time>2026-09-01T19:57:54Z</time>
  <course>181.73</course>
  <speed>0.9749358953285082</speed>
  <fix>3d</fix>
</trkpt>
<trkpt lat="-27.2737443" lon="151.2899063">
  <ele>358.24</ele>
  <time>2026-09-01T19:57:54Z</time>
  <course>186.81</course>
  <speed>0.84</speed>
  <fix>3d</fix>
</trkpt>
<trkpt lat="-27.2737475" lon="151.2899054">
  <ele>358.12</ele>
  <time>2026-09-01T19:57:54Z</time>
  <course>181.73</course>
  <speed>1.014347080638575</speed>
  <fix>3d</fix>
</trkpt>
<trkpt lat="-27.2737459" lon="151.2899061">
  <ele>358.27</ele>
  <time>2026-09-01T19:57:54Z</time>
  <course>186.16</course>
  <speed>0.95</speed>
  <fix>3d</fix>
</trkpt>
<trkpt lat="-27.2737484" lon="151.2899053">
  <ele>358.15</ele>
  <time>2026-09-01T19:57:54Z</time>
  <course>181.74</course>
  <speed>1.0538026380684382</speed>
  <fix>3d</fix>
</trkpt>
<trkpt lat="-27.2737459" lon="151.2899061">
  <ele>358.27</ele>
  <time>2026-09-01T19:57:54Z</time>
  <course>186.16</course>
  <speed>0.95</speed>
  <fix>3d</fix>
</trkpt>
<trkpt lat="-27.2737494" lon="151.2899052">
  <ele>358.17</ele>
  <time>2026-09-01T19:57:54Z</time>
  <course>181.75</course>
  <speed>1.0917875251164946</speed>
  <fix>3d</fix>
</trkpt>
<trkpt lat="-27.2737477" lon="151.2899059">
  <ele>358.32</ele>
  <time>2026-09-01T19:57:54Z</time>
  <course>185.57</course>
  <speed>1.04</speed>
  <fix>3d</fix>
</trkpt>
<trkpt lat="-27.2737504" lon="151.2899051">
  <ele>358.19</ele>
  <time>2026-09-01T19:57:54Z</time>
  <course>181.75</course>
  <speed>1.1214722466472364</speed>
  <fix>3d</fix>
</trkpt>
<trkpt lat="-27.2737477" lon="151.2899059">
  <ele>358.32</ele>
  <time>2026-09-01T19:57:54Z</time>
  <course>185.57</course>
  <speed>1.04</speed>
  <fix>3d</fix>
</trkpt>
<trkpt lat="-27.2737514" lon="151.289905">
  <ele>358.21</ele>
  <time>2026-09-01T19:57:54Z</time>
  <course>181.76</course>
  <speed>1.1399122773266372</speed>
  <fix>3d</fix>
</trkpt>
<trkpt lat="-27.2737496" lon="151.2899057">
  <ele>358.37</ele>
  <time>2026-09-01T19:57:54Z</time>
  <course>185.06</course>
  <speed>1.11</speed>
  <fix>3d</fix>
</trkpt>
<trkpt lat="-27.2737525" lon="151.2899049">
  <ele>358.22</ele>
  <time>2026-09-01T19:57:54Z</time>
  <course>181.76</course>
  <speed>1.1696580696938743</speed>
  <fix>3d</fix>
</trkpt>
<trkpt lat="-27.2737496" lon="151.2899057">
  <ele>358.37</ele>
  <time>2026-09-01T19:57:54Z</time>
  <course>185.06</course>
  <speed>1.11</speed>
  <fix>3d</fix>
</trkpt>
<trkpt lat="-27.2737535" lon="151.2899048">
  <ele>358.22</ele>
  <time>2026-09-01T19:57:54Z</time>
  <course>181.76</course>
  <speed>1.1894956914591999</speed>
  <fix>3d</fix>
</trkpt>
<trkpt lat="-27.2737517" lon="151.2899054">
  <ele>358.4</ele>
  <time>2026-09-01T19:57:54Z</time>
  <course>184.6</course>
  <speed>1.17</speed>
  <fix>3d</fix>
</trkpt>
<trkpt lat="-27.2737546" lon="151.2899047">
  <ele>358.22</ele>
  <time>2026-09-01T19:57:54Z</time>
  <course>181.75</course>
  <speed>1.1982069938036581</speed>
  <fix>3d</fix>
</trkpt>
<trkpt lat="-27.2737517" lon="151.2899054">
  <ele>358.4</ele>
  <time>2026-09-01T19:57:54Z</time>
  <course>184.6</course>
  <speed>1.17</speed>
  <fix>3d</fix>
</trkpt>
<trkpt lat="-27.2737557" lon="151.2899047">
  <ele>358.21</ele>
  <time>2026-09-01T19:57:54Z</time>
  <course>181.75</course>
  <speed>1.2081390648431165</speed>
  <fix>3d</fix>
</trkpt>
<trkpt lat="-27.2737538" lon="151.2899053">
  <ele>358.41</ele>
  <time>2026-09-01T19:57:54Z</time>
  <course>184.19</course>
  <speed>1.21</speed>
  <fix>3d</fix>
</trkpt>
<trkpt lat="-27.2737568" lon="151.2899046">
  <ele>358.2</ele>
  <time>2026-09-01T19:57:54Z</time>
  <course>181.75</course>
  <speed>1.216963434126104</speed>
  <fix>3d</fix>
</trkpt>
<trkpt lat="-27.2737538" lon="151.2899053">
  <ele>358.41</ele>
  <time>2026-09-01T19:57:54Z</time>
  <course>184.19</course>
  <speed>1.21</speed>
  <fix>3d</fix>
</trkpt>
<trkpt lat="-27.2737579" lon="151.2899045">
  <ele>358.17</ele>
  <time>2026-09-01T19:57:54Z</time>
  <course>181.75</course>
  <speed>1.216963434126104</speed>
  <fix>3d</fix>
</trkpt>
<trkpt lat="-27.273756" lon="151.2899052">
  <ele>358.39</ele>
  <time>2026-09-01T19:57:54Z</time>
  <course>183.82</course>
  <speed>1.24</speed>
  <fix>3d</fix>
</trkpt>
<trkpt lat="-27.273759" lon="151.2899045">
  <ele>358.13</ele>
  <time>2026-09-01T19:57:54Z</time>
  <course>181.74</course>
  <speed>1.2258874336577563</speed>
  <fix>3d</fix>
</trkpt>
<trkpt lat="-27.273756" lon="151.2899052">
  <ele>358.39</ele>
  <time>2026-09-01T19:57:54Z</time>
  <course>183.82</course>
  <speed>1.24</speed>
  <fix>3d</fix>
</trkpt>
<trkpt lat="-27.2737602" lon="151.2899044">
  <ele>358.07</ele>
  <time>2026-09-01T19:57:54Z</time>
  <course>181.74</course>
  <speed>1.22494897852931</speed>
  <fix>3d</fix>
</trkpt>
<trkpt lat="-27.2737583" lon="151.2899049">
  <ele>358.34</ele>
  <time>2026-09-01T19:57:54Z</time>
  <course>183.47</course>
  <speed>1.25</speed>
  <fix>3d</fix>
</trkpt>
<trkpt lat="-27.2737613" lon="151.2899043">
  <ele>357.99</ele>
  <time>2026-09-01T19:57:54Z</time>
  <course>181.74</course>
  <speed>1.2050311199301038</speed>
  <fix>3d</fix>
</trkpt>
<trkpt lat="-27.2737583" lon="151.2899049">
  <ele>358.34</ele>
  <time>2026-09-01T19:57:54Z</time>
  <course>183.47</course>
  <speed>1.25</speed>
  <fix>3d</fix>
</trkpt>
<trkpt lat="-27.2737624" lon="151.2899043">
  <ele>357.89</ele>
  <time>2026-09-01T19:57:54Z</time>
  <course>181.74</course>
  <speed>1.184229707446997</speed>
  <fix>3d</fix>
</trkpt>
<trkpt lat="-27.2737605" lon="151.2899048">
  <ele>358.24</ele>
  <time>2026-09-01T19:57:54Z</time>
  <course>183.15</course>
  <speed>1.25</speed>
  <fix>3d</fix>
</trkpt>
<trkpt lat="-27.2737635" lon="151.2899042">
  <ele>357.77</ele>
  <time>2026-09-01T19:57:54Z</time>
  <course>181.74</course>
  <speed>1.1543396380615194</speed>
  <fix>3d</fix>
</trkpt>
<trkpt lat="-27.2737605" lon="151.2899048">
  <ele>358.24</ele>
  <time>2026-09-01T19:57:54Z</time>
  <course>183.15</course>
  <speed>1.25</speed>
  <fix>3d</fix>
</trkpt>
<trkpt lat="-27.2737645" lon="151.2899042">
  <ele>357.64</ele>
  <time>2026-09-01T19:57:54Z</time>
  <course>181.74</course>
  <speed>1.1236102527122116</speed>
  <fix>3d</fix>
</trkpt>
<trkpt lat="-27.2737628" lon="151.2899047">
  <ele>358.06</ele>
  <time>2026-09-01T19:57:54Z</time>
  <course>182.86</course>
  <speed>1.22</speed>
  <fix>3d</fix>
</trkpt>
<trkpt lat="-27.2737655" lon="151.2899041">
  <ele>357.49</ele>
  <time>2026-09-01T19:57:54Z</time>
  <course>181.75</course>
  <speed>1.0837435120913066</speed>
  <fix>3d</fix>
</trkpt>
<trkpt lat="-27.2737628" lon="151.2899047">
  <ele>358.06</ele>
  <time>2026-09-01T19:57:54Z</time>
  <course>182.86</course>
  <speed>1.22</speed>
  <fix>3d</fix>
</trkpt>
<trkpt lat="-27.2737665" lon="151.2899041">
  <ele>357.34</ele>
  <time>2026-09-01T19:57:54Z</time>
  <course>181.74</course>
  <speed>1.043072384832424</speed>
  <fix>3d</fix>
</trkpt>
<trkpt lat="-27.2737649" lon="151.2899046">
  <ele>357.81</ele>
  <time>2026-09-01T19:57:54Z</time>
  <course>182.57</course>
  <speed>1.16</speed>
  <fix>3d</fix>
</trkpt>
<trkpt lat="-27.2737675" lon="151.2899041">
  <ele>357.18</ele>
  <time>2026-09-01T19:57:54Z</time>
  <course>181.74</course>
  <speed>0.9924716620639604</speed>
  <fix>3d</fix>
</trkpt>
<trkpt lat="-27.2737649" lon="151.2899046">
  <ele>357.81</ele>
  <time>2026-09-01T19:57:54Z</time>
  <course>182.57</course>
  <speed>1.16</speed>
  <fix>3d</fix>
</trkpt>
<trkpt lat="-27.2737684" lon="151.2899041">
  <ele>357.02</ele>
  <time>2026-09-01T19:57:54Z</time>
  <course>181.74</course>
  <speed>0.9426027795418386</speed>
  <fix>3d</fix>
</trkpt>
<trkpt lat="-27.2737669" lon="151.2899045">
  <ele>357.52</ele>
  <time>2026-09-01T19:57:54Z</time>
  <course>182.25</course>
  <speed>1.08</speed>
  <fix>3d</fix>
</trkpt>
<trkpt lat="-27.2737692" lon="151.289904">
  <ele>356.85</ele>
  <time>2026-09-01T19:57:54Z</time>
  <course>181.73</course>
  <speed>0.8920201791439475</speed>
  <fix>3d</fix>
</trkpt>
<trkpt lat="-27.2737669" lon="151.2899045">
  <ele>357.52</ele>
  <time>2026-09-01T19:57:54Z</time>
  <course>182.25</course>
  <speed>1.08</speed>
  <fix>3d</fix>
</trkpt>
<trkpt lat="-27.27377" lon="151.289904">
  <ele>356.68</ele>
  <time>2026-09-01T19:57:54Z</time>
  <course>181.72</course>
  <speed>0.8315046602394962</speed>
  <fix>3d</fix>
</trkpt>
<trkpt lat="-27.2737688" lon="151.2899044">
  <ele>357.2</ele>
  <time>2026-09-01T19:57:54Z</time>
  <course>181.89</course>
  <speed>0.98</speed>
  <fix>3d</fix>
</trkpt>
<trkpt lat="-27.2737708" lon="151.289904">
  <ele>356.52</ele>
  <time>2026-09-01T19:57:54Z</time>
  <course>181.71</course>
  <speed>0.7816009211867653</speed>
  <fix>3d</fix>
</trkpt>
<trkpt lat="-27.2737688" lon="151.2899044">
  <ele>357.2</ele>
  <time>2026-09-01T19:57:54Z</time>
  <course>181.89</course>
  <speed>0.98</speed>
  <fix>3d</fix>
</trkpt>
<trkpt lat="-27.2737715" lon="151.289904">
  <ele>356.35</ele>
  <time>2026-09-01T19:57:54Z</time>
  <course>181.7</course>
  <speed>0.7211102550927978</speed>
  <fix>3d</fix>
</trkpt>
<trkpt lat="-27.2737705" lon="151.2899043">
  <ele>356.87</ele>
  <time>2026-09-01T19:57:54Z</time>
  <course>181.47</course>
  <speed>0.87</speed>
  <fix>3d</fix>
</trkpt>
<trkpt lat="-27.2737722" lon="151.289904">
  <ele>356.19</ele>
  <time>2026-09-01T19:57:54Z</time>
  <course>181.69</course>
  <speed>0.6612110101926616</speed>
  <fix>3d</fix>
</trkpt>
<trkpt lat="-27.2737705" lon="151.2899043">
  <ele>356.87</ele>
  <time>2026-09-01T19:57:54Z</time>
  <course>181.47</course>
  <speed>0.87</speed>
  <fix>3d</fix>
</trkpt>
<trkpt lat="-27.2737728" lon="151.289904">
  <ele>356.03</ele>
  <time>2026-09-01T19:57:54Z</time>
  <course>181.68</course>
  <speed>0.6007495318350236</speed>
  <fix>3d</fix>
</trkpt>
<trkpt lat="-27.273772" lon="151.2899043">
  <ele>356.54</ele>
  <time>2026-09-01T19:57:54Z</time>
  <course>180.97</course>
  <speed>0.76</speed>
  <fix>3d</fix>
</trkpt>
<trkpt lat="-27.2737733" lon="151.289904">
  <ele>355.88</ele>
  <time>2026-09-01T19:57:54Z</time>
  <course>181.67</course>
  <speed>0.5508175741568164</speed>
  <fix>3d</fix>
</trkpt>
<trkpt lat="-27.273772" lon="151.2899043">
  <ele>356.54</ele>
  <time>2026-09-01T19:57:54Z</time>
  <course>180.97</course>
  <speed>0.76</speed>
  <fix>3d</fix>
</trkpt>
<trkpt lat="-27.2737738" lon="151.289904">
  <ele>355.73</ele>
  <time>2026-09-01T19:57:54Z</time>
  <course>181.66</course>
  <speed>0.49040799340956914</speed>
  <fix>3d</fix>
</trkpt>
<trkpt lat="-27.2737732" lon="151.2899043">
  <ele>356.22</ele>
  <time>2026-09-01T19:57:54Z</time>
  <course>180.36</course>
  <speed>0.65</speed>
  <fix>3d</fix>
</trkpt>
<trkpt lat="-27.2737743" lon="151.289904">
  <ele>355.58</ele>
  <time>2026-09-01T19:57:54Z</time>
  <course>181.65</course>
  <speed>0.4304648650006177</speed>
  <fix>3d</fix>
</trkpt>
<trkpt lat="-27.2737732" lon="151.2899043">
  <ele>356.22</ele>
  <time>2026-09-01T19:57:54Z</time>
  <course>180.36</course>
  <speed>0.65</speed>
  <fix>3d</fix>
</trkpt>
<trkpt lat="-27.2737747" lon="151.289904">
  <ele>355.43</ele>
  <time>2026-09-01T19:57:54Z</time>
  <course>181.64</course>
  <speed>0.38052595180880894</speed>
  <fix>3d</fix>
</trkpt>
<trkpt lat="-27.2737743" lon="151.2899043">
  <ele>355.91</ele>
  <time>2026-09-01T19:57:54Z</time>
  <course>179.56</course>
  <speed>0.53</speed>
  <fix>3d</fix>
</trkpt>
<trkpt lat="-27.2737751" lon="151.289904">
  <ele>355.29</ele>
  <time>2026-09-01T19:57:54Z</time>
  <course>181.62</course>
  <speed>0.3301514803843835</speed>
  <fix>3d</fix>
</trkpt>
<trkpt lat="-27.2737743" lon="151.2899043">
  <ele>355.91</ele>
  <time>2026-09-01T19:57:54Z</time>
  <course>179.56</course>
  <speed>0.53</speed>
  <fix>3d</fix>
</trkpt>
<trkpt lat="-27.2737754" lon="151.289904">
  <ele>355.15</ele>
  <time>2026-09-01T19:57:54Z</time>
  <course>181.61</course>
  <speed>0.280178514522438</speed>
  <fix>3d</fix>
</trkpt>
<trkpt lat="-27.2737752" lon="151.2899043">
  <ele>355.62</ele>
  <time>2026-09-01T19:57:54Z</time>
  <course>178.46</course>
  <speed>0.42</speed>
  <fix>3d</fix>
</trkpt>
<trkpt lat="-27.2737757" lon="151.289904">
  <ele>355.01</ele>
  <time>2026-09-01T19:57:54Z</time>
  <course>181.6</course>
  <speed>0.23021728866442676</speed>
  <fix>3d</fix>
</trkpt>
<trkpt lat="-27.2737752" lon="151.2899043">
  <ele>355.62</ele>
  <time>2026-09-01T19:57:54Z</time>
  <course>178.46</course>
  <speed>0.42</speed>
  <fix>3d</fix>
</trkpt>
<trkpt lat="-27.2737759" lon="151.289904">
  <ele>354.87</ele>
  <time>2026-09-01T19:57:54Z</time>
  <course>181.59</course>
  <speed>0.18</speed>
  <fix>3d</fix>
</trkpt>
<trkpt lat="-27.2737759" lon="151.2899043">
  <ele>355.34</ele>
  <time>2026-09-01T19:57:54Z</time>
  <course>176.95</course>
  <speed>0.32</speed>
  <fix>3d</fix>
</trkpt>
<trkpt lat="-27.2737761" lon="151.289904">
  <ele>354.74</ele>
  <time>2026-09-01T19:57:54Z</time>
  <course>181.56</course>
  <speed>0.14</speed>
  <fix>3d</fix>
</trkpt>
<trkpt lat="-27.2737759" lon="151.2899043">
  <ele>355.34</ele>
  <time>2026-09-01T19:57:54Z</time>
  <course>176.95</course>
  <speed>0.32</speed>
  <fix>3d</fix>
</trkpt>
<trkpt lat="-27.2737762" lon="151.289904">
  <ele>354.6</ele>
  <time>2026-09-01T19:57:54Z</time>
  <course>181.53</course>
  <speed>0.1</speed>
  <fix>3d</fix>
</trkpt>
<trkpt lat="-27.2737764" lon="151.2899043">
  <ele>355.06</ele>
  <time>2026-09-01T19:57:54Z</time>
  <course>174.78</course>
  <speed>0.22</speed>
  <fix>3d</fix>
</trkpt>
<trkpt lat="-27.2737763" lon="151.2899041">
  <ele>354.46</ele>
  <time>2026-09-01T19:57:54Z</time>
  <course>181.47</course>
  <speed>0.06082762530298219</speed>
  <fix>3d</fix>
</trkpt>
<trkpt lat="-27.2737764" lon="151.2899043">
  <ele>355.06</ele>
  <time>2026-09-01T19:57:54Z</time>
  <course>174.78</course>
  <speed>0.22</speed>
  <fix>3d</fix>
</trkpt>
<trkpt lat="-27.2737764" lon="151.2899041">
  <ele>354.32</ele>
  <time>2026-09-01T19:57:54Z</time>
  <course>181.37</course>
  <speed>0.022360679774997897</speed>
  <fix>3d</fix>
</trkpt>
<trkpt lat="-27.2737767" lon="151.2899043">
  <ele>354.78</ele>
  <time>2026-09-01T19:57:54Z</time>
  <course>171.53</course>
  <speed>0.14</speed>
  <fix>3d</fix>
</trkpt>
<trkpt lat="-27.2737765" lon="151.2899041">
  <ele>354.18</ele>
  <time>2026-09-01T19:57:54Z</time>
  <course>181.1</course>
  <speed>0.03</speed>
  <fix>3d</fix>
</trkpt>
<trkpt lat="-27.2737767" lon="151.2899043">
  <ele>354.78</ele>
  <time>2026-09-01T19:57:54Z</time>
  <course>171.53</course>
  <speed>0.14</speed>
  <fix>3d</fix>
</trkpt>
<trkpt lat="-27.2737765" lon="151.2899041">
  <ele>354.04</ele>
  <time>2026-09-01T19:57:54Z</time>
  <course>180.78</course>
  <speed>0.04242640687119285</speed>
  <fix>3d</fix>
</trkpt>
<trkpt lat="-27.2737768" lon="151.2899043">
  <ele>354.5</ele>
  <time>2026-09-01T19:57:54Z</time>
  <course>173.07</course>
  <speed>0.06</speed>
  <fix>3d</fix>
</trkpt>
<trkpt lat="-27.2737765" lon="151.289904">
  <ele>353.9</ele>
  <time>2026-09-01T19:57:54Z</time>
  <course>180.58</course>
  <speed>0.0670820393249937</speed>
  <fix>3d</fix>
</trkpt>
<trkpt lat="-27.2737768" lon="151.2899043">
  <ele>354.5</ele>
  <time>2026-09-01T19:57:54Z</time>
  <course>173.07</course>
  <speed>0.06</speed>
  <fix>3d</fix>
</trkpt>
<trkpt lat="-27.2737765" lon="151.289904">
  <ele>353.76</ele>
  <time>2026-09-01T19:57:54Z</time>
  <course>180.51</course>
  <speed>0.09486832980505139</speed>
  <fix>3d</fix>
</trkpt>
<trkpt lat="-27.2737769" lon="151.2899043">
  <ele>354.22</ele>
  <time>2026-09-01T19:57:54Z</time>
  <course>265.87</course>
  <speed>0.0</speed>
  <fix>3d</fix>
</trkpt>
<trkpt lat="-27.2737764" lon="151.289904">
  <ele>353.62</ele>
  <time>2026-09-01T19:57:54Z</time>
  <course>180.54</course>
  <speed>0.11401754250991379</speed>
  <fix>3d</fix>
</trkpt>
<trkpt lat="-27.2737769" lon="151.2899043">
  <ele>354.22</ele>
  <time>2026-09-01T19:57:54Z</time>
  <course>265.87</course>
  <speed>0.0</speed>
  <fix>3d</fix>
</trkpt>
<trkpt lat="-27.2737763" lon="151.289904">
  <ele>353.49</ele>
  <time>2026-09-01T19:57:54Z</time>
  <course>180.65</course>
  <speed>0.13341664064126335</speed>
  <fix>3d</fix>
</trkpt>
<trkpt lat="-27.2737769" lon="151.2899043">
  <ele>353.95</ele>
  <time>2026-09-01T19:57:54Z</time>
  <course>352.21</course>
  <speed>0.05</speed>
  <fix>3d</fix>
</trkpt>
<trkpt lat="-27.2737763" lon="151.289904">
  <ele>353.35</ele>
  <time>2026-09-01T19:57:54Z</time>
  <course>180.79</course>
  <speed>0.15297058540778355</speed>
  <fix>3d</fix>
</trkpt>
<trkpt lat="-27.2737769" lon="151.2899043">
  <ele>353.95</ele>
  <time>2026-09-01T19:57:54Z</time>
  <course>352.21</course>
  <speed>0.05</speed>
  <fix>3d</fix>
</trkpt>
<trkpt lat="-27.2737762" lon="151.289904">
  <ele>353.22</ele>
  <time>2026-09-01T19:57:54Z</time>
  <course>180.95</course>
  <speed>0.17262676501632068</speed>
  <fix>3d</fix>
</trkpt>
<trkpt lat="-27.2737768" lon="151.2899043">
  <ele>353.67</ele>
  <time>2026-09-01T19:57:54Z</time>
  <course>355.52</course>
  <speed>0.1</speed>
  <fix>3d</fix>
</trkpt>
<trkpt lat="-27.2737761" lon="151.289904">
  <ele>353.08</ele>
  <time>2026-09-01T19:57:54Z</time>
  <course>181.08</course>
  <speed>0.19235384061671343</speed>
  <fix>3d</fix>
</trkpt>
<trkpt lat="-27.2737768" lon="151.2899043">
  <ele>353.67</ele>
  <time>2026-09-01T19:57:54Z</time>
  <course>355.52</course>
  <speed>0.1</speed>
  <fix>3d</fix>
</trkpt>
<trkpt lat="-27.273776" lon="151.289904">
  <ele>352.96</ele>
  <time>2026-09-01T19:57:54Z</time>
  <course>181.18</course>
  <speed>0.20223748416156684</speed>
  <fix>3d</fix>
</trkpt>
<trkpt lat="-27.2737766" lon="151.2899043">
  <ele>353.41</ele>
  <time>2026-09-01T19:57:54Z</time>
  <course>357.04</course>
  <speed>0.14</speed>
  <fix>3d</fix>
</trkpt>
<trkpt lat="-27.2737758" lon="151.289904">
  <ele>352.83</ele>
  <time>2026-09-01T19:57:54Z</time>
  <course>181.24</course>
  <speed>0.21213203435596426</speed>
  <fix>3d</fix>
</trkpt>
<trkpt lat="-27.2737766" lon="151.2899043">
  <ele>353.41</ele>
  <time>2026-09-01T19:57:54Z</time>
  <course>357.04</course>
  <speed>0.14</speed>
  <fix>3d</fix>
</trkpt>
<trkpt lat="-27.2737756" lon="151.289904">
  <ele>352.71</ele>
  <time>2026-09-01T19:57:54Z</time>
  <course>181.27</course>
  <speed>0.2220360331117452</speed>
  <fix>3d</fix>
</trkpt>
<trkpt lat="-27.2737763" lon="151.2899043">
  <ele>353.15</ele>
  <time>2026-09-01T19:57:54Z</time>
  <course>357.97</course>
  <speed>0.17</speed>
  <fix>3d</fix>
</trkpt>
<trkpt lat="-27.2737755" lon="151.289904">
  <ele>352.58</ele>
  <time>2026-09-01T19:57:54Z</time>
  <course>181.26</course>
  <speed>0.24186773244895649</speed>
  <fix>3d</fix>
</trkpt>
<trkpt lat="-27.2737763" lon="151.2899043">
  <ele>353.15</ele>
  <time>2026-09-01T19:57:54Z</time>
  <course>357.97</course>
  <speed>0.17</speed>
  <fix>3d</fix>
</trkpt>
<trkpt lat="-27.2737753" lon="151.289904">
  <ele>352.46</ele>
  <time>2026-09-01T19:57:54Z</time>
  <course>181.21</course>
  <speed>0.24186773244895649</speed>
  <fix>3d</fix>
</trkpt>
<trkpt lat="-27.273776" lon="151.2899043">
  <ele>352.89</ele>
  <time>2026-09-01T19:57:54Z</time>
  <course>358.39</course>
  <speed>0.2</speed>
  <fix>3d</fix>
</trkpt>
<trkpt lat="-27.2737751" lon="151.289904">
  <ele>352.34</ele>
  <time>2026-09-01T19:57:54Z</time>
  <course>181.15</course>
  <speed>0.25179356624028343</speed>
  <fix>3d</fix>
</trkpt>
<trkpt lat="-27.273776" lon="151.2899043">
  <ele>352.89</ele>
  <time>2026-09-01T19:57:54Z</time>
  <course>358.39</course>
  <speed>0.2</speed>
  <fix>3d</fix>
</trkpt>
<trkpt lat="-27.2737749" lon="151.289904">
  <ele>352.23</ele>
  <time>2026-09-01T19:57:54Z</time>
  <course>181.08</course>
  <speed>0.261725046566048</speed>
  <fix>3d</fix>
</trkpt>
<trkpt lat="-27.2737756" lon="151.2899043">
  <ele>352.65</ele>
  <time>2026-09-01T19:57:54Z</time>
  <course>358.53</course>
  <speed>0.22</speed>
  <fix>3d</fix>
</trkpt>
<trkpt lat="-27.2737747" lon="151.289904">
  <ele>352.12</ele>
  <time>2026-09-01T19:57:54Z</time>
  <course>181.01</course>
  <speed>0.261725046566048</speed>
  <fix>3d</fix>
</trkpt>
<trkpt lat="-27.2737756" lon="151.2899043">
  <ele>352.65</ele>
  <time>2026-09-01T19:57:54Z</time>
  <course>358.53</course>
  <speed>0.22</speed>
  <fix>3d</fix>
</trkpt>
<trkpt lat="-27.2737745" lon="151.289904">
  <ele>352.01</ele>
  <time>2026-09-01T19:57:54Z</time>
  <course>180.95</course>
  <speed>0.27166155414412246</speed>
  <fix>3d</fix>
</trkpt>
<trkpt lat="-27.2737751" lon="151.2899043">
  <ele>352.41</ele>
  <time>2026-09-01T19:57:54Z</time>
  <course>358.55</course>
  <speed>0.23</speed>
  <fix>3d</fix>
</trkpt>
<trkpt lat="-27.2737743" lon="151.289904">
  <ele>351.9</ele>
  <time>2026-09-01T19:57:54Z</time>
  <course>180.91</course>
  <speed>0.27166155414412246</speed>
  <fix>3d</fix>
</trkpt>
<trkpt lat="-27.2737751" lon="151.2899043">
  <ele>352.41</ele>
  <time>2026-09-01T19:57:54Z</time>
  <course>358.55</course>
  <speed>0.23</speed>
  <fix>3d</fix>
</trkpt>
<trkpt lat="-27.2737741" lon="151.289904">
  <ele>351.8</ele>
  <time>2026-09-01T19:57:54Z</time>
  <course>180.87</course>
  <speed>0.27166155414412246</speed>
  <fix>3d</fix>
</trkpt>
<trkpt lat="-27.2737747" lon="151.2899043">
  <ele>352.2</ele>
  <time>2026-09-01T19:57:54Z</time>
  <course>358.43</course>
  <speed>0.24</speed>
  <fix>3d</fix>
</trkpt>
<trkpt lat="-27.2737738" lon="151.289904">
  <ele>351.69</ele>
  <time>2026-09-01T19:57:54Z</time>
  <course>180.84</course>
  <speed>0.27166155414412246</speed>
  <fix>3d</fix>
</trkpt>
<trkpt lat="-27.2737747" lon="151.2899043">
  <ele>352.2</ele>
  <time>2026-09-01T19:57:54Z</time>
  <course>358.43</course>
  <speed>0.24</speed>
  <fix>3d</fix>
</trkpt>
<trkpt lat="-27.2737736" lon="151.289904">
  <ele>351.59</ele>
  <time>2026-09-01T19:57:54Z</time>
  <course>180.82</course>
  <speed>0.27166155414412246</speed>
  <fix>3d</fix>
</trkpt>
<trkpt lat="-27.2737743" lon="151.2899043">
  <ele>351.98</ele>
  <time>2026-09-01T19:57:54Z</time>
  <course>358.33</course>
  <speed>0.25</speed>
  <fix>3d</fix>
</trkpt>
<trkpt lat="-27.2737734" lon="151.289904">
  <ele>351.49</ele>
  <time>2026-09-01T19:57:54Z</time>
  <course>180.82</course>
  <speed>0.27166155414412246</speed>
  <fix>3d</fix>
</trkpt>
<trkpt lat="-27.2737743" lon="151.2899043">
  <ele>351.98</ele>
  <time>2026-09-01T19:57:54Z</time>
  <course>358.33</course>
  <speed>0.25</speed>
  <fix>3d</fix>
</trkpt>
<trkpt lat="-27.2737732" lon="151.289904">
  <ele>351.39</ele>
  <time>2026-09-01T19:57:54Z</time>
  <course>180.82</course>
  <speed>0.27166155414412246</speed>
  <fix>3d</fix>
</trkpt>
<trkpt lat="-27.2737738" lon="151.2899043">
  <ele>351.77</ele>
  <time>2026-09-01T19:57:54Z</time>
  <course>358.3</course>
  <speed>0.25</speed>
  <fix>3d</fix>
</trkpt>
<trkpt lat="-27.2737729" lon="151.289904">
  <ele>351.29</ele>
  <time>2026-09-01T19:57:54Z</time>
  <course>180.83</course>
  <speed>0.27166155414412246</speed>
  <fix>3d</fix>
</trkpt>
<trkpt lat="-27.2737738" lon="151.2899043">
  <ele>351.77</ele>
  <time>2026-09-01T19:57:54Z</time>
  <course>358.3</course>
  <speed>0.25</speed>
  <fix>3d</fix>
</trkpt>
<trkpt lat="-27.2737727" lon="151.289904">
  <ele>351.2</ele>
  <time>2026-09-01T19:57:54Z</time>
  <course>180.84</course>
  <speed>0.261725046566048</speed>
  <fix>3d</fix>
</trkpt>
<trkpt lat="-27.2737733" lon="151.2899043">
  <ele>351.57</ele>
  <time>2026-09-01T19:57:54Z</time>
  <course>358.26</course>
  <speed>0.25</speed>
  <fix>3d</fix>
</trkpt>
<trkpt lat="-27.2737725" lon="151.289904">
  <ele>351.1</ele>
  <time>2026-09-01T19:57:54Z</time>
  <course>180.84</course>
  <speed>0.261725046566048</speed>
  <fix>3d</fix>
</trkpt>
<trkpt lat="-27.2737733" lon="151.2899043">
  <ele>351.57</ele>
  <time>2026-09-01T19:57:54Z</time>
  <course>358.26</course>
  <speed>0.25</speed>
  <fix>3d</fix>
</trkpt>
<trkpt lat="-27.2737723" lon="151.289904">
  <ele>351.01</ele>
  <time>2026-09-01T19:57:54Z</time>
  <course>180.84</course>
  <speed>0.261725046566048</speed>
  <fix>3d</fix>
</trkpt>
<trkpt lat="-27.2737729" lon="151.2899043">
  <ele>351.38</ele>
  <time>2026-09-01T19:57:54Z</time>
  <course>358.21</course>
  <speed>0.24</speed>
  <fix>3d</fix>
</trkpt>
<trkpt lat="-27.2737721" lon="151.289904">
  <ele>350.92</ele>
  <time>2026-09-01T19:57:54Z</time>
  <course>180.84</course>
  <speed>0.25179356624028343</speed>
  <fix>3d</fix>
</trkpt>
<trkpt lat="-27.2737729" lon="151.2899043">
  <ele>351.38</ele>
  <time>2026-09-01T19:57:54Z</time>
  <course>358.21</course>
  <speed>0.24</speed>
  <fix>3d</fix>
</trkpt>
<trkpt lat="-27.2737719" lon="151.289904">
  <ele>350.83</ele>
  <time>2026-09-01T19:57:54Z</time>
  <course>180.83</course>
  <speed>0.25179356624028343</speed>
  <fix>3d</fix>
</trkpt>
<trkpt lat="-27.2737725" lon="151.2899043">
  <ele>351.2</ele>
  <time>2026-09-01T19:57:54Z</time>
  <course>358.17</course>
  <speed>0.23</speed>
  <fix>3d</fix>
</trkpt>
<trkpt lat="-27.2737717" lon="151.289904">
  <ele>350.74</ele>
  <time>2026-09-01T19:57:54Z</time>
  <course>180.82</course>
  <speed>0.24186773244895649</speed>
  <fix>3d</fix>
</trkpt>
<trkpt lat="-27.2737725" lon="151.2899043">
  <ele>351.2</ele>
  <time>2026-09-01T19:57:54Z</time>
  <course>358.17</course>
  <speed>0.23</speed>
  <fix>3d</fix>
</trkpt>
<trkpt lat="-27.2737715" lon="151.289904">
  <ele>350.65</ele>
  <time>2026-09-01T19:57:54Z</time>
  <course>180.81</course>
  <speed>0.23194827009486402</speed>
  <fix>3d</fix>
</trkpt>
<trkpt lat="-27.2737721" lon="151.2899043">
  <ele>351.02</ele>
  <time>2026-09-01T19:57:54Z</time>
  <course>358.06</course>
  <speed>0.22</speed>
  <fix>3d</fix>
</trkpt>
<trkpt lat="-27.2737713" lon="151.289904">
  <ele>350.56</ele>
  <time>2026-09-01T19:57:54Z</time>
  <course>180.79</course>
  <speed>0.23194827009486402</speed>
  <fix>3d</fix>
</trkpt>
<trkpt lat="-27.2737721" lon="151.2899043">
  <ele>351.02</ele>
  <time>2026-09-01T19:57:54Z</time>
  <course>358.06</course>
  <speed>0.22</speed>
  <fix>3d</fix>
</trkpt>
<trkpt lat="-27.2737711" lon="151.289904">
  <ele>350.48</ele>
  <time>2026-09-01T19:57:54Z</time>
  <course>180.78</course>
  <speed>0.2220360331117452</speed>
  <fix>3d</fix>
</trkpt>
<trkpt lat="-27.2737717" lon="151.2899043">
  <ele>350.84</ele>
  <time>2026-09-01T19:57:54Z</time>
  <course>357.9</course>
  <speed>0.21</speed>
  <fix>3d</fix>
</trkpt>
<trkpt lat="-27.273771" lon="151.289904">
  <ele>350.4</ele>
  <time>2026-09-01T19:57:54Z</time>
  <course>180.77</course>
  <speed>0.21213203435596426</speed>
  <fix>3d</fix>
</trkpt>
<trkpt lat="-27.2737717" lon="151.2899043">
  <ele>350.84</ele>
  <time>2026-09-01T19:57:54Z</time>
  <course>357.9</course>
  <speed>0.21</speed>
  <fix>3d</fix>
</trkpt>
<trkpt lat="-27.2737708" lon="151.289904">
  <ele>350.33</ele>
  <time>2026-09-01T19:57:54Z</time>
  <course>180.77</course>
  <speed>0.20223748416156684</speed>
  <fix>3d</fix>
</trkpt>
<trkpt lat="-27.2737713" lon="151.2899043">
  <ele>350.69</ele>
  <time>2026-09-01T19:57:54Z</time>
  <course>357.77</course>
  <speed>0.2</speed>
  <fix>3d</fix>
</trkpt>
<trkpt lat="-27.2737706" lon="151.289904">
  <ele>350.25</ele>
  <time>2026-09-01T19:57:54Z</time>
  <course>180.79</course>
  <speed>0.19235384061671343</speed>
  <fix>3d</fix>
</trkpt>
<trkpt lat="-27.2737713" lon="151.2899043">
  <ele>350.69</ele>
  <time>2026-09-01T19:57:54Z</time>
  <course>357.77</course>
  <speed>0.2</speed>
  <fix>3d</fix>
</trkpt>
<trkpt lat="-27.2737705" lon="151.289904">
  <ele>350.18</ele>
  <time>2026-09-01T19:57:54Z</time>
  <course>180.83</course>
  <speed>0.18110770276274835</speed>
  <fix>3d</fix>
</trkpt>
<trkpt lat="-27.2737709" lon="151.2899043">
  <ele>350.53</ele>
  <time>2026-09-01T19:57:54Z</time>
  <course>357.91</course>
  <speed>0.18</speed>
  <fix>3d</fix>
</trkpt>
<trkpt lat="-27.2737703" lon="151.289904">
  <ele>350.11</ele>
  <time>2026-09-01T19:57:54Z</time>
  <course>180.88</course>
  <speed>0.18110770276274835</speed>
  <fix>3d</fix>
</trkpt>
<trkpt lat="-27.2737709" lon="151.2899043">
  <ele>350.53</ele>
  <time>2026-09-01T19:57:54Z</time>
  <course>357.91</course>
  <speed>0.18</speed>
  <fix>3d</fix>
</trkpt>
<trkpt lat="-27.2737702" lon="151.289904">
  <ele>350.03</ele>
  <time>2026-09-01T19:57:54Z</time>
  <course>180.95</course>
  <speed>0.1711724276862369</speed>
  <fix>3d</fix>
</trkpt>
<trkpt lat="-27.2737706" lon="151.2899042">
  <ele>350.38</ele>
  <time>2026-09-01T19:57:54Z</time>
  <course>358.76</course>
  <speed>0.16</speed>
  <fix>3d</fix>
</trkpt>
<trkpt lat="-27.2737701" lon="151.289904">
  <ele>349.96</ele>
  <time>2026-09-01T19:57:54Z</time>
  <course>181.02</course>
  <speed>0.16031219541881397</speed>
  <fix>3d</fix>
</trkpt>
<trkpt lat="-27.2737706" lon="151.2899042">
  <ele>350.38</ele>
  <time>2026-09-01T19:57:54Z</time>
  <course>358.76</course>
  <speed>0.16</speed>
  <fix>3d</fix>
</trkpt>
<trkpt lat="-27.2737699" lon="151.289904">
  <ele>349.9</ele>
  <time>2026-09-01T19:57:54Z</time>
  <course>181.1</course>
  <speed>0.15033296378372907</speed>
  <fix>3d</fix>
</trkpt>
<trkpt lat="-27.2737703" lon="151.2899042">
  <ele>350.24</ele>
  <time>2026-09-01T19:57:54Z</time>
  <course>0.6</course>
  <speed>0.15</speed>
  <fix>3d</fix>
</trkpt>
<trkpt lat="-27.2737698" lon="151.289904">
  <ele>349.83</ele>
  <time>2026-09-01T19:57:54Z</time>
  <course>181.17</course>
  <speed>0.140356688476182</speed>
  <fix>3d</fix>
</trkpt>
<trkpt lat="-27.2737703" lon="151.2899042">
  <ele>350.24</ele>
  <time>2026-09-01T19:57:54Z</time>
  <course>0.6</course>
  <speed>0.15</speed>
  <fix>3d</fix>
</trkpt>
<trkpt lat="-27.2737697" lon="151.289904">
  <ele>349.76</ele>
  <time>2026-09-01T19:57:54Z</time>
  <course>181.23</course>
  <speed>0.13</speed>
  <fix>3d</fix>
</trkpt>
<trkpt lat="-27.2737701" lon="151.2899043">
  <ele>350.1</ele>
  <time>2026-09-01T19:57:54Z</time>
  <course>3.49</course>
  <speed>0.13</speed>
  <fix>3d</fix>
</trkpt>
<trkpt lat="-27.2737696" lon="151.289904">
  <ele>349.7</ele>
  <time>2026-09-01T19:57:54Z</time>
  <course>181.29</course>
  <speed>0.12</speed>
  <fix>3d</fix>
</trkpt>
<trkpt lat="-27.2737701" lon="151.2899043">
  <ele>350.1</ele>
  <time>2026-09-01T19:57:54Z</time>
  <course>3.49</course>
  <speed>0.13</speed>
  <fix>3d</fix>
</trkpt>
<trkpt lat="-27.2737695" lon="151.289904">
  <ele>349.64</ele>
  <time>2026-09-01T19:57:54Z</time>
  <course>181.33</course>
  <speed>0.11</speed>
  <fix>3d</fix>
</trkpt>
<trkpt lat="-27.2737699" lon="151.2899043">
  <ele>349.96</ele>
  <time>2026-09-01T19:57:54Z</time>
  <course>7.8</course>
  <speed>0.11</speed>
  <fix>3d</fix>
</trkpt>
<trkpt lat="-27.2737695" lon="151.289904">
  <ele>349.58</ele>
  <time>2026-09-01T19:57:54Z</time>
  <course>181.37</course>
  <speed>0.1</speed>
  <fix>3d</fix>
</trkpt>
<trkpt lat="-27.2737699" lon="151.2899043">
  <ele>349.96</ele>
  <time>2026-09-01T19:57:54Z</time>
  <course>7.8</course>
  <speed>0.11</speed>
  <fix>3d</fix>
</trkpt>
<trkpt lat="-27.2737694" lon="151.2899041">
  <ele>349.52</ele>
  <time>2026-09-01T19:57:54Z</time>
  <course>181.41</course>
  <speed>0.09055385138137417</speed>
  <fix>3d</fix>
</trkpt>
<trkpt lat="-27.2737697" lon="151.2899043">
  <ele>349.83</ele>
  <time>2026-09-01T19:57:54Z</time>
  <course>14.23</course>
  <speed>0.09</speed>
  <fix>3d</fix>
</trkpt>
<trkpt lat="-27.2737693" lon="151.2899041">
  <ele>349.46</ele>
  <time>2026-09-01T19:57:54Z</time>
  <course>181.45</course>
  <speed>0.08062257748298549</speed>
  <fix>3d</fix>
</trkpt>
<trkpt lat="-27.2737697" lon="151.2899043">
  <ele>349.83</ele>
  <time>2026-09-01T19:57:54Z</time>
  <course>14.23</course>
  <speed>0.09</speed>
  <fix>3d</fix>
</trkpt>
<trkpt lat="-27.2737693" lon="151.2899041">
  <ele>349.4</ele>
  <time>2026-09-01T19:57:54Z</time>
  <course>181.49</course>
  <speed>0.07280109889280519</speed>
  <fix>3d</fix>
</trkpt>
<trkpt lat="-27.2737695" lon="151.2899043">
  <ele>349.7</ele>
  <time>2026-09-01T19:57:54Z</time>
  <course>23.96</course>
  <speed>0.08</speed>
  <fix>3d</fix>
</trkpt>
<trkpt lat="-27.2737692" lon="151.2899042">
  <ele>349.34</ele>
  <time>2026-09-01T19:57:54Z</time>
  <course>181.53</course>
  <speed>0.0632455532033676</speed>
  <fix>3d</fix>
</trkpt>
<trkpt lat="-27.2737695" lon="151.2899043">
  <ele>349.7</ele>
  <time>2026-09-01T19:57:54Z</time>
  <course>23.96</course>
  <speed>0.08</speed>
  <fix>3d</fix>
</trkpt>
<trkpt lat="-27.2737692" lon="151.2899042">
  <ele>349.28</ele>
  <time>2026-09-01T19:57:54Z</time>
  <course>181.58</course>
  <speed>0.053851648071345036</speed>
  <fix>3d</fix>
</trkpt>
<trkpt lat="-27.2737694" lon="151.2899043">
  <ele>349.58</ele>
  <time>2026-09-01T19:57:54Z</time>
  <course>37.99</course>
  <speed>0.06</speed>
  <fix>3d</fix>
</trkpt>
<trkpt lat="-27.2737692" lon="151.2899043">
  <ele>349.22</ele>
  <time>2026-09-01T19:57:54Z</time>
  <course>181.63</course>
  <speed>0.05</speed>
  <fix>3d</fix>
</trkpt>
<trkpt lat="-27.2737694" lon="151.2899043">
  <ele>349.58</ele>
  <time>2026-09-01T19:57:54Z</time>
  <course>37.99</course>
  <speed>0.06</speed>
  <fix>3d</fix>
</trkpt>
<trkpt lat="-27.2737692" lon="151.2899043">
  <ele>349.16</ele>
  <time>2026-09-01T19:57:54Z</time>
  <course>181.67</course>
  <speed>0.04242640687119285</speed>
  <fix>3d</fix>
</trkpt>
<trkpt lat="-27.2737693" lon="151.2899044">
  <ele>349.46</ele>
  <time>2026-09-01T19:57:54Z</time>
  <course>55.87</course>
  <speed>0.06</speed>
  <fix>3d</fix>
</trkpt>
<trkpt lat="-27.2737692" lon="151.2899044">
  <ele>349.1</ele>
  <time>2026-09-01T19:57:54Z</time>
  <course>181.72</course>
  <speed>0.03605551275463989</speed>
  <fix>3d</fix>
</trkpt>
<trkpt lat="-27.2737693" lon="151.2899044">
  <ele>349.46</ele>
  <time>2026-09-01T19:57:54Z</time>
  <course>55.87</course>
  <speed>0.06</speed>
  <fix>3d</fix>
</trkpt>
<trkpt lat="-27.2737692" lon="151.2899044">
  <ele>349.05</ele>
  <time>2026-09-01T19:57:54Z</time>
  <course>181.76</course>
  <speed>0.0412310562561766</speed>
  <fix>3d</fix>
</trkpt>
<trkpt lat="-27.2737693" lon="151.2899045">
  <ele>349.34</ele>
  <time>2026-09-01T19:57:54Z</time>
  <course>75.27</course>
  <speed>0.06</speed>
  <fix>3d</fix>
</trkpt>
<trkpt lat="-27.2737691" lon="151.2899045">
  <ele>348.99</ele>
  <time>2026-09-01T19:57:54Z</time>
  <course>181.81</course>
  <speed>0.04</speed>
  <fix>3d</fix>
</trkpt>
<trkpt lat="-27.2737693" lon="151.2899045">
  <ele>349.34</ele>
  <time>2026-09-01T19:57:54Z</time>
  <course>75.27</course>
  <speed>0.06</speed>
  <fix>3d</fix>
</trkpt>
<trkpt lat="-27.2737691" lon="151.2899046">
  <ele>348.94</ele>
  <time>2026-09-01T19:57:54Z</time>
  <course>181.84</course>
  <speed>0.04</speed>
  <fix>3d</fix>
</trkpt>
<trkpt lat="-27.2737693" lon="151.2899047">
  <ele>349.22</ele>
  <time>2026-09-01T19:57:54Z</time>
  <course>92.32</course>
  <speed>0.06</speed>
  <fix>3d</fix>
</trkpt>
<trkpt lat="-27.2737691" lon="151.2899046">
  <ele>348.88</ele>
  <time>2026-09-01T19:57:54Z</time>
  <course>181.87</course>
  <speed>0.05</speed>
  <fix>3d</fix>
</trkpt>
<trkpt lat="-27.2737693" lon="151.2899047">
  <ele>349.22</ele>
  <time>2026-09-01T19:57:54Z</time>
  <course>92.32</course>
  <speed>0.06</speed>
  <fix>3d</fix>
</trkpt>
<trkpt lat="-27.2737691" lon="151.2899047">
  <ele>348.83</ele>
  <time>2026-09-01T19:57:54Z</time>
  <course>181.89</course>
  <speed>0.05099019513592785</speed>
  <fix>3d</fix>
</trkpt>
<trkpt lat="-27.2737693" lon="151.2899048">
  <ele>349.11</ele>
  <time>2026-09-01T19:57:54Z</time>
  <course>105.46</course>
  <speed>0.07</speed>
  <fix>3d</fix>
</trkpt>
<trkpt lat="-27.2737692" lon="151.2899048">
  <ele>348.78</ele>
  <time>2026-09-01T19:57:54Z</time>
  <course>181.91</course>
  <speed>0.053851648071345036</speed>
  <fix>3d</fix>
</trkpt>
<trkpt lat="-27.2737693" lon="151.2899048">
  <ele>349.11</ele>
  <time>2026-09-01T19:57:54Z</time>
  <course>105.46</course>
  <speed>0.07</speed>
  <fix>3d</fix>
</trkpt>
<trkpt lat="-27.2737692" lon="151.2899049">
  <ele>348.73</ele>
  <time>2026-09-01T19:57:54Z</time>
  <course>181.92</course>
  <speed>0.053851648071345036</speed>
  <fix>3d</fix>
</trkpt>
<trkpt lat="-27.2737693" lon="151.2899049">
  <ele>349.0</ele>
  <time>2026-09-01T19:57:54Z</time>
  <course>115.18</course>
  <speed>0.08</speed>
  <fix>3d</fix>
</trkpt>
<trkpt lat="-27.2737692" lon="151.2899049">
  <ele>348.68</ele>
  <time>2026-09-01T19:57:54Z</time>
  <course>181.93</course>
  <speed>0.05830951894845301</speed>
  <fix>3d</fix>
</trkpt>
<trkpt lat="-27.2737693" lon="151.2899049">
  <ele>349.0</ele>
  <time>2026-09-01T19:57:54Z</time>
  <course>115.18</course>
  <speed>0.08</speed>
  <fix>3d</fix>
</trkpt>
<trkpt lat="-27.2737693" lon="151.289905">
  <ele>348.63</ele>
  <time>2026-09-01T19:57:54Z</time>
  <course>181.94</course>
  <speed>0.06403124237432849</speed>
  <fix>3d</fix>
</trkpt>
<trkpt lat="-27.2737693" lon="151.2899051">
  <ele>348.9</ele>
  <time>2026-09-01T19:57:54Z</time>
  <course>122.37</course>
  <speed>0.09</speed>
  <fix>3d</fix>
</trkpt>
<trkpt lat="-27.2737693" lon="151.2899051">
  <ele>348.58</ele>
  <time>2026-09-01T19:57:54Z</time>
  <course>181.95</course>
  <speed>0.06403124237432849</speed>
  <fix>3d</fix>
</trkpt>
<trkpt lat="-27.2737693" lon="151.2899051">
  <ele>348.9</ele>
  <time>2026-09-01T19:57:54Z</time>
  <course>122.37</course>
  <speed>0.09</speed>
  <fix>3d</fix>
</trkpt>
<trkpt lat="-27.2737694" lon="151.2899052">
  <ele>348.53</ele>
  <time>2026-09-01T19:57:54Z</time>
  <course>181.95</course>
  <speed>0.07071067811865475</speed>
  <fix>3d</fix>
</trkpt>
<trkpt lat="-27.2737694" lon="151.2899052">
  <ele>348.8</ele>
  <time>2026-09-01T19:57:54Z</time>
  <course>127.93</course>
  <speed>0.1</speed>
  <fix>3d</fix>
</trkpt>
<trkpt lat="-27.2737695" lon="151.2899052">
  <ele>348.48</ele>
  <time>2026-09-01T19:57:54Z</time>
  <course>181.96</course>
  <speed>0.07071067811865475</speed>
  <fix>3d</fix>
</trkpt>
<trkpt lat="-27.2737694" lon="151.2899052">
  <ele>348.8</ele>
  <time>2026-09-01T19:57:54Z</time>
  <course>127.93</course>
  <speed>0.1</speed>
  <fix>3d</fix>
</trkpt>
<trkpt lat="-27.2737695" lon="151.2899053">
  <ele>348.43</ele>
  <time>2026-09-01T19:57:54Z</time>
  <course>181.96</course>
  <speed>0.07071067811865475</speed>
  <fix>3d</fix>
</trkpt>
<trkpt lat="-27.2737695" lon="151.2899054">
  <ele>348.7</ele>
  <time>2026-09-01T19:57:54Z</time>
  <course>132.36</course>
  <speed>0.11</speed>
  <fix>3d</fix>
</trkpt>
<trkpt lat="-27.2737696" lon="151.2899054">
  <ele>348.38</ele>
  <time>2026-09-01T19:57:54Z</time>
  <course>181.97</course>
  <speed>0.07810249675906654</speed>
  <fix>3d</fix>
</trkpt>
<trkpt lat="-27.2737695" lon="151.2899054">
  <ele>348.7</ele>
  <time>2026-09-01T19:57:54Z</time>
  <course>132.36</course>
  <speed>0.11</speed>
  <fix>3d</fix>
</trkpt>
<trkpt lat="-27.2737697" lon="151.2899055">
  <ele>348.33</ele>
  <time>2026-09-01T19:57:54Z</time>
  <course>181.97</course>
  <speed>0.07810249675906654</speed>
  <fix>3d</fix>
</trkpt>
<trkpt lat="-27.2737697" lon="151.2899056">
  <ele>348.59</ele>
  <time>2026-09-01T19:57:54Z</time>
  <course>136.29</course>
  <speed>0.11</speed>
  <fix>3d</fix>
</trkpt>
<trkpt lat="-27.2737697" lon="151.2899055">
  <ele>348.28</ele>
  <time>2026-09-01T19:57:54Z</time>
  <course>181.96</course>
  <speed>0.08062257748298549</speed>
  <fix>3d</fix>
</trkpt>
<trkpt lat="-27.2737697" lon="151.2899056">
  <ele>348.59</ele>
  <time>2026-09-01T19:57:54Z</time>
  <course>136.29</course>
  <speed>0.11</speed>
  <fix>3d</fix>
</trkpt>
<trkpt lat="-27.2737698" lon="151.2899056">
  <ele>348.23</ele>
  <time>2026-09-01T19:57:54Z</time>
  <course>181.96</course>
  <speed>0.08062257748298549</speed>
  <fix>3d</fix>
</trkpt>
<trkpt lat="-27.2737699" lon="151.2899057">
  <ele>348.49</ele>
  <time>2026-09-01T19:57:54Z</time>
  <course>140.33</course>
  <speed>0.12</speed>
  <fix>3d</fix>
</trkpt>
<trkpt lat="-27.2737699" lon="151.2899057">
  <ele>348.18</ele>
  <time>2026-09-01T19:57:54Z</time>
  <course>181.96</course>
  <speed>0.08062257748298549</speed>
  <fix>3d</fix>
</trkpt>
<trkpt lat="-27.2737699" lon="151.2899057">
  <ele>348.49</ele>
  <time>2026-09-01T19:57:54Z</time>
  <course>140.33</course>
  <speed>0.12</speed>
  <fix>3d</fix>
</trkpt>
<trkpt lat="-27.27377" lon="151.2899057">
  <ele>348.13</ele>
  <time>2026-09-01T19:57:54Z</time>
  <course>181.95</course>
  <speed>0.0854400374531753</speed>
  <fix>3d</fix>
</trkpt>
<trkpt lat="-27.27377" lon="151.2899059">
  <ele>348.39</ele>
  <time>2026-09-01T19:57:54Z</time>
  <course>144.56</course>
  <speed>0.12</speed>
  <fix>3d</fix>
</trkpt>
<trkpt lat="-27.2737701" lon="151.2899058">
  <ele>348.08</ele>
  <time>2026-09-01T19:57:54Z</time>
  <course>181.95</course>
  <speed>0.0854400374531753</speed>
  <fix>3d</fix>
</trkpt>
<trkpt lat="-27.27377" lon="151.2899059">
  <ele>348.39</ele>
  <time>2026-09-01T19:57:54Z</time>
  <course>144.56</course>
  <speed>0.12</speed>
  <fix>3d</fix>
</trkpt>
<trkpt lat="-27.2737702" lon="151.2899058">
  <ele>348.03</ele>
  <time>2026-09-01T19:57:54Z</time>
  <course>181.95</course>
  <speed>0.0824621125123532</speed>
  <fix>3d</fix>
</trkpt>
<trkpt lat="-27.2737702" lon="151.2899061">
  <ele>348.28</ele>
  <time>2026-09-01T19:57:54Z</time>
  <course>148.79</course>
  <speed>0.12</speed>
  <fix>3d</fix>
</trkpt>
<trkpt lat="-27.2737703" lon="151.2899059">
  <ele>347.98</ele>
  <time>2026-09-01T19:57:54Z</time>
  <course>181.96</course>
  <speed>0.0824621125123532</speed>
  <fix>3d</fix>
</trkpt>
<trkpt lat="-27.2737702" lon="151.2899061">
  <ele>348.28</ele>
  <time>2026-09-01T19:57:54Z</time>
  <course>148.79</course>
  <speed>0.12</speed>
  <fix>3d</fix>
</trkpt>
<trkpt lat="-27.2737704" lon="151.289906">
  <ele>347.93</ele>
  <time>2026-09-01T19:57:54Z</time>
  <course>181.97</course>
  <speed>0.0824621125123532</speed>
  <fix>3d</fix>
</trkpt>
<trkpt lat="-27.2737703" lon="151.2899062">
  <ele>348.19</ele>
  <time>2026-09-01T19:57:54Z</time>
  <course>152.95</course>
  <speed>0.12</speed>
  <fix>3d</fix>
</trkpt>
<trkpt lat="-27.2737704" lon="151.289906">
  <ele>347.88</ele>
  <time>2026-09-01T19:57:54Z</time>
  <course>181.97</course>
  <speed>0.08062257748298549</speed>
  <fix>3d</fix>
</trkpt>
<trkpt lat="-27.2737703" lon="151.2899062">
  <ele>348.19</ele>
  <time>2026-09-01T19:57:54Z</time>
  <course>152.95</course>
  <speed>0.12</speed>
  <fix>3d</fix>
</trkpt>
<trkpt lat="-27.2737705" lon="151.289906">
  <ele>347.82</ele>
  <time>2026-09-01T19:57:54Z</time>
  <course>181.98</course>
  <speed>0.08062257748298549</speed>
  <fix>3d</fix>
</trkpt>
<trkpt lat="-27.2737706" lon="151.2899063">
  <ele>348.08</ele>
  <time>2026-09-01T19:57:54Z</time>
  <course>157.05</course>
  <speed>0.12</speed>
  <fix>3d</fix>
</trkpt>
<trkpt lat="-27.2737706" lon="151.2899061">
  <ele>347.77</ele>
  <time>2026-09-01T19:57:54Z</time>
  <course>181.98</course>
  <speed>0.07</speed>
  <fix>3d</fix>
</trkpt>
<trkpt lat="-27.2737706" lon="151.2899063">
  <ele>348.08</ele>
  <time>2026-09-01T19:57:54Z</time>
  <course>157.05</course>
  <speed>0.12</speed>
  <fix>3d</fix>
</trkpt>
<trkpt lat="-27.2737707" lon="151.2899061">
  <ele>347.72</ele>
  <time>2026-09-01T19:57:54Z</time>
  <course>181.98</course>
  <speed>0.07</speed>
  <fix>3d</fix>
</trkpt>
<trkpt lat="-27.2737708" lon="151.2899064">
  <ele>347.97</ele>
  <time>2026-09-01T19:57:54Z</time>
  <course>161.32</course>
  <speed>0.11</speed>
  <fix>3d</fix>
</trkpt>
<trkpt lat="-27.2737708" lon="151.2899061">
  <ele>347.67</ele>
  <time>2026-09-01T19:57:54Z</time>
  <course>181.98</course>
  <speed>0.07</speed>
  <fix>3d</fix>
</trkpt>
<trkpt lat="-27.2737708" lon="151.2899064">
  <ele>347.97</ele>
  <time>2026-09-01T19:57:54Z</time>
  <course>161.32</course>
  <speed>0.11</speed>
  <fix>3d</fix>
</trkpt>
<trkpt lat="-27.2737709" lon="151.2899062">
  <ele>347.62</ele>
  <time>2026-09-01T19:57:54Z</time>
  <course>181.99</course>
  <speed>0.07</speed>
  <fix>3d</fix>
</trkpt>
<trkpt lat="-27.2737709" lon="151.2899064">
  <ele>347.88</ele>
  <time>2026-09-01T19:57:54Z</time>
  <course>165.85</course>
  <speed>0.1</speed>
  <fix>3d</fix>
</trkpt>
<trkpt lat="-27.273771" lon="151.2899062">
  <ele>347.57</ele>
  <time>2026-09-01T19:57:54Z</time>
  <course>182.0</course>
  <speed>0.06082762530298219</speed>
  <fix>3d</fix>
</trkpt>
<trkpt lat="-27.2737709" lon="151.2899064">
  <ele>347.88</ele>
  <time>2026-09-01T19:57:54Z</time>
  <course>165.85</course>
  <speed>0.1</speed>
  <fix>3d</fix>
</trkpt>
<trkpt lat="-27.2737711" lon="151.2899062">
  <ele>347.52</ele>
  <time>2026-09-01T19:57:54Z</time>
  <course>182.02</course>
  <speed>0.06082762530298219</speed>
  <fix>3d</fix>
</trkpt>
<trkpt lat="-27.2737712" lon="151.2899065">
  <ele>347.78</ele>
  <time>2026-09-01T19:57:54Z</time>
  <course>170.73</course>
  <speed>0.1</speed>
  <fix>3d</fix>
</trkpt>
<trkpt lat="-27.2737711" lon="151.2899062">
  <ele>347.47</ele>
  <time>2026-09-01T19:57:54Z</time>
  <course>182.03</course>
  <speed>0.0632455532033676</speed>
  <fix>3d</fix>
</trkpt>
<trkpt lat="-27.2737712" lon="151.2899065">
  <ele>347.78</ele>
  <time>2026-09-01T19:57:54Z</time>
  <course>170.73</course>
  <speed>0.1</speed>
  <fix>3d</fix>
</trkpt>
<trkpt lat="-27.2737712" lon="151.2899062">
  <ele>347.42</ele>
  <time>2026-09-01T19:57:54Z</time>
  <course>182.04</course>
  <speed>0.053851648071345036</speed>
  <fix>3d</fix>
</trkpt>
<trkpt lat="-27.2737714" lon="151.2899065">
  <ele>347.68</ele>
  <time>2026-09-01T19:57:54Z</time>
  <course>176.37</course>
  <speed>0.09</speed>
  <fix>3d</fix>
</trkpt>
<trkpt lat="-27.2737713" lon="151.2899062">
  <ele>347.37</ele>
  <time>2026-09-01T19:57:54Z</time>
  <course>182.04</course>
  <speed>0.05830951894845301</speed>
  <fix>3d</fix>
</trkpt>
<trkpt lat="-27.2737714" lon="151.2899065">
  <ele>347.68</ele>
  <time>2026-09-01T19:57:54Z</time>
  <course>176.37</course>
  <speed>0.09</speed>
  <fix>3d</fix>
</trkpt>
<trkpt lat="-27.2737714" lon="151.2899062">
  <ele>347.32</ele>
  <time>2026-09-01T19:57:54Z</time>
  <course>182.04</course>
  <speed>0.05830951894845301</speed>
  <fix>3d</fix>
</trkpt>
<trkpt lat="-27.2737715" lon="151.2899065">
  <ele>347.58</ele>
  <time>2026-09-01T19:57:54Z</time>
  <course>183.17</course>
  <speed>0.08</speed>
  <fix>3d</fix>
</trkpt>
<trkpt lat="-27.2737714" lon="151.2899062">
  <ele>347.27</ele>
  <time>2026-09-01T19:57:54Z</time>
  <course>182.05</course>
  <speed>0.0565685424949238</speed>
  <fix>3d</fix>
</trkpt>
<trkpt lat="-27.2737715" lon="151.2899065">
  <ele>347.58</ele>
  <time>2026-09-01T19:57:54Z</time>
  <course>183.17</course>
  <speed>0.08</speed>
  <fix>3d</fix>
</trkpt>
<trkpt lat="-27.2737715" lon="151.2899062">
  <ele>347.22</ele>
  <time>2026-09-01T19:57:54Z</time>
  <course>182.06</course>
  <speed>0.0565685424949238</speed>
  <fix>3d</fix>
</trkpt>
<trkpt lat="-27.2737717" lon="151.2899065">
  <ele>347.47</ele>
  <time>2026-09-01T19:57:54Z</time>
  <course>191.14</course>
  <speed>0.08</speed>
  <fix>3d</fix>
</trkpt>
<trkpt lat="-27.2737716" lon="151.2899062">
  <ele>347.17</ele>
  <time>2026-09-01T19:57:54Z</time>
  <course>182.07</course>
  <speed>0.05830951894845301</speed>
  <fix>3d</fix>
</trkpt>
<trkpt lat="-27.2737717" lon="151.2899065">
  <ele>347.47</ele>
  <time>2026-09-01T19:57:54Z</time>
  <course>191.14</course>
  <speed>0.08</speed>
  <fix>3d</fix>
</trkpt>
<trkpt lat="-27.2737716" lon="151.2899062">
  <ele>347.12</ele>
  <time>2026-09-01T19:57:54Z</time>
  <course>182.08</course>
  <speed>0.05830951894845301</speed>
  <fix>3d</fix>
</trkpt>
<trkpt lat="-27.2737718" lon="151.2899065">
  <ele>347.37</ele>
  <time>2026-09-01T19:57:54Z</time>
  <course>199.57</course>
  <speed>0.07</speed>
  <fix>3d</fix>
</trkpt>
<trkpt lat="-27.2737717" lon="151.2899062">
  <ele>347.07</ele>
  <time>2026-09-01T19:57:54Z</time>
  <course>182.1</course>
  <speed>0.053851648071345036</speed>
  <fix>3d</fix>
</trkpt>
<trkpt lat="-27.2737718" lon="151.2899065">
  <ele>347.37</ele>
  <time>2026-09-01T19:57:54Z</time>
  <course>199.57</course>
  <speed>0.07</speed>
  <fix>3d</fix>
</trkpt>
<trkpt lat="-27.2737717" lon="151.2899061">
  <ele>347.02</ele>
  <time>2026-09-01T19:57:54Z</time>
  <course>182.1</course>
  <speed>0.0632455532033676</speed>
  <fix>3d</fix>
</trkpt>
<trkpt lat="-27.2737719" lon="151.2899065">
  <ele>347.27</ele>
  <time>2026-09-01T19:57:54Z</time>
  <course>208.2</course>
  <speed>0.07</speed>
  <fix>3d</fix>
</trkpt>
<trkpt lat="-27.2737718" lon="151.2899061">
  <ele>346.97</ele>
  <time>2026-09-01T19:57:54Z</time>
  <course>182.1</course>
  <speed>0.06082762530298219</speed>
  <fix>3d</fix>
</trkpt>
<trkpt lat="-27.2737719" lon="151.2899065">
  <ele>347.27</ele>
  <time>2026-09-01T19:57:54Z</time>
  <course>208.2</course>
  <speed>0.07</speed>
  <fix>3d</fix>
</trkpt>
<trkpt lat="-27.2737718" lon="151.2899061">
  <ele>346.92</ele>
  <time>2026-09-01T19:57:54Z</time>
  <course>182.1</course>
  <speed>0.06082762530298219</speed>
  <fix>3d</fix>
</trkpt>
<trkpt lat="-27.273772" lon="151.2899064">
  <ele>347.16</ele>
  <time>2026-09-01T19:57:54Z</time>
  <course>217.85</course>
  <speed>0.06</speed>
  <fix>3d</fix>
</trkpt>
<trkpt lat="-27.2737718" lon="151.289906">
  <ele>346.87</ele>
  <time>2026-09-01T19:57:54Z</time>
  <course>182.1</course>
  <speed>0.06</speed>
  <fix>3d</fix>
</trkpt>
<trkpt lat="-27.273772" lon="151.2899064">
  <ele>347.16</ele>
  <time>2026-09-01T19:57:54Z</time>
  <course>217.85</course>
  <speed>0.06</speed>
  <fix>3d</fix>
</trkpt>
<trkpt lat="-27.2737719" lon="151.289906">
  <ele>346.82</ele>
  <time>2026-09-01T19:57:54Z</time>
  <course>182.09</course>
  <speed>0.07</speed>
  <fix>3d</fix>
</trkpt>
<trkpt lat="-27.2737721" lon="151.2899063">
  <ele>347.07</ele>
  <time>2026-09-01T19:57:54Z</time>
  <course>228.38</course>
  <speed>0.06</speed>
  <fix>3d</fix>
</trkpt>
<trkpt lat="-27.2737719" lon="151.2899059">
  <ele>346.77</ele>
  <time>2026-09-01T19:57:54Z</time>
  <course>182.1</course>
  <speed>0.07</speed>
  <fix>3d</fix>
</trkpt>
<trkpt lat="-27.2737721" lon="151.2899063">
  <ele>347.07</ele>
  <time>2026-09-01T19:57:54Z</time>
  <course>228.38</course>
  <speed>0.06</speed>
  <fix>3d</fix>
</trkpt>
<trkpt lat="-27.2737719" lon="151.2899059">
  <ele>346.72</ele>
  <time>2026-09-01T19:57:54Z</time>
  <course>182.11</course>
  <speed>0.07</speed>
  <fix>3d</fix>
</trkpt>
<trkpt lat="-27.2737722" lon="151.2899062">
  <ele>346.97</ele>
  <time>2026-09-01T19:57:54Z</time>
  <course>238.99</course>
  <speed>0.06</speed>
  <fix>3d</fix>
</trkpt>
<trkpt lat="-27.2737719" lon="151.2899058">
  <ele>346.67</ele>
  <time>2026-09-01T19:57:54Z</time>
  <course>182.13</course>
  <speed>0.07</speed>
  <fix>3d</fix>
</trkpt>
<trkpt lat="-27.2737722" lon="151.2899062">
  <ele>346.97</ele>
  <time>2026-09-01T19:57:54Z</time>
  <course>238.99</course>
  <speed>0.06</speed>
  <fix>3d</fix>
</trkpt>
<trkpt lat="-27.273772" lon="151.2899058">
  <ele>346.62</ele>
  <time>2026-09-01T19:57:54Z</time>
  <course>182.15</course>
  <speed>0.07071067811865475</speed>
  <fix>3d</fix>
</trkpt>
<trkpt lat="-27.2737722" lon="151.2899061">
  <ele>346.88</ele>
  <time>2026-09-01T19:57:54Z</time>
  <course>248.8</course>
  <speed>0.05</speed>
  <fix>3d</fix>
</trkpt>
<trkpt lat="-27.273772" lon="151.2899057">
  <ele>346.57</ele>
  <time>2026-09-01T19:57:54Z</time>
  <course>182.17</course>
  <speed>0.07071067811865475</speed>
  <fix>3d</fix>
</trkpt>
<trkpt lat="-27.2737722" lon="151.2899061">
  <ele>346.88</ele>
  <time>2026-09-01T19:57:54Z</time>
  <course>248.8</course>
  <speed>0.05</speed>
  <fix>3d</fix>
</trkpt>
<trkpt lat="-27.273772" lon="151.2899057">
  <ele>346.52</ele>
  <time>2026-09-01T19:57:54Z</time>
  <course>182.19</course>
  <speed>0.07280109889280519</speed>
  <fix>3d</fix>
</trkpt>
<trkpt lat="-27.2737723" lon="151.289906">
  <ele>346.78</ele>
  <time>2026-09-01T19:57:54Z</time>
  <course>257.63</course>
  <speed>0.05</speed>
  <fix>3d</fix>
</trkpt>
<trkpt lat="-27.273772" lon="151.2899056">
  <ele>346.47</ele>
  <time>2026-09-01T19:57:54Z</time>
  <course>182.21</course>
  <speed>0.07280109889280519</speed>
  <fix>3d</fix>
</trkpt>
<trkpt lat="-27.2737723" lon="151.289906">
  <ele>346.78</ele>
  <time>2026-09-01T19:57:54Z</time>
  <course>257.63</course>
  <speed>0.05</speed>
  <fix>3d</fix>
</trkpt>
<trkpt lat="-27.273772" lon="151.2899056">
  <ele>346.42</ele>
  <time>2026-09-01T19:57:54Z</time>
  <course>182.22</course>
  <speed>0.07280109889280519</speed>
  <fix>3d</fix>
</trkpt>
<trkpt lat="-27.2737723" lon="151.2899059">
  <ele>346.68</ele>
  <time>2026-09-01T19:57:54Z</time>
  <course>265.9</course>
  <speed>0.05</speed>
  <fix>3d</fix>
</trkpt>
<trkpt lat="-27.273772" lon="151.2899055">
  <ele>346.37</ele>
  <time>2026-09-01T19:57:54Z</time>
  <course>182.23</course>
  <speed>0.07615773105863909</speed>
  <fix>3d</fix>
</trkpt>
<trkpt lat="-27.2737723" lon="151.2899059">
  <ele>346.68</ele>
  <time>2026-09-01T19:57:54Z</time>
  <course>265.9</course>
  <speed>0.05</speed>
  <fix>3d</fix>
</trkpt>
<trkpt lat="-27.273772" lon="151.2899055">
  <ele>346.32</ele>
  <time>2026-09-01T19:57:54Z</time>
  <course>182.23</course>
  <speed>0.07615773105863909</speed>
  <fix>3d</fix>
</trkpt>
<trkpt lat="-27.2737723" lon="151.2899057">
  <ele>346.58</ele>
  <time>2026-09-01T19:57:54Z</time>
  <course>273.91</course>
  <speed>0.05</speed>
  <fix>3d</fix>
</trkpt>
<trkpt lat="-27.273772" lon="151.2899054">
  <ele>346.27</ele>
  <time>2026-09-01T19:57:54Z</time>
  <course>182.23</course>
  <speed>0.08062257748298549</speed>
  <fix>3d</fix>
</trkpt>
<trkpt lat="-27.2737723" lon="151.2899057">
  <ele>346.58</ele>
  <time>2026-09-01T19:57:54Z</time>
  <course>273.91</course>
  <speed>0.05</speed>
  <fix>3d</fix>
</trkpt>
<trkpt lat="-27.273772" lon="151.2899054">
  <ele>346.22</ele>
  <time>2026-09-01T19:57:54Z</time>
  <course>182.22</course>
  <speed>0.08062257748298549</speed>
  <fix>3d</fix>
</trkpt>
<trkpt lat="-27.2737723" lon="151.2899056">
  <ele>346.47</ele>
  <time>2026-09-01T19:57:54Z</time>
  <course>281.86</course>
  <speed>0.05</speed>
  <fix>3d</fix>
</trkpt>
<trkpt lat="-27.273772" lon="151.2899053">
  <ele>346.17</ele>
  <time>2026-09-01T19:57:54Z</time>
  <course>182.22</course>
  <speed>0.08062257748298549</speed>
  <fix>3d</fix>
</trkpt>
<trkpt lat="-27.2737723" lon="151.2899055">
  <ele>346.37</ele>
  <time>2026-09-01T19:57:54Z</time>
  <course>289.53</course>
  <speed>0.05</speed>
  <fix>3d</fix>
</trkpt>
<trkpt lat="-27.273772" lon="151.2899053">
  <ele>346.12</ele>
  <time>2026-09-01T19:57:54Z</time>
  <course>182.22</course>
  <speed>0.07211102550927978</speed>
  <fix>3d</fix>
</trkpt>
<trkpt lat="-27.2737723" lon="151.2899055">
  <ele>346.37</ele>
  <time>2026-09-01T19:57:54Z</time>
  <course>289.53</course>
  <speed>0.05</speed>
  <fix>3d</fix>
</trkpt>
<trkpt lat="-27.273772" lon="151.2899052">
  <ele>346.07</ele>
  <time>2026-09-01T19:57:54Z</time>
  <course>182.22</course>
  <speed>0.07810249675906654</speed>
  <fix>3d</fix>
</trkpt>
<trkpt lat="-27.2737723" lon="151.2899055">
  <ele>346.37</ele>
  <time>2026-09-01T19:57:55Z</time>
  <course>289.53</course>
  <speed>0.05</speed>
  <fix>3d</fix>
</trkpt>
<trkpt lat="-27.273772" lon="151.2899052">
  <ele>346.02</ele>
  <time>2026-09-01T19:57:55Z</time>
  <course>182.22</course>
  <speed>0.07810249675906654</speed>
  <fix>3d</fix>
</trkpt>
<trkpt lat="-27.2737723" lon="151.2899054">
  <ele>346.27</ele>
  <time>2026-09-01T19:57:55Z</time>
  <course>296.86</course>
  <speed>0.05</speed>
  <fix>3d</fix>
</trkpt>
<trkpt lat="-27.273772" lon="151.2899051">
  <ele>345.97</ele>
  <time>2026-09-01T19:57:55Z</time>
  <course>182.22</course>
  <speed>0.07810249675906654</speed>
  <fix>3d</fix>
</trkpt>
<trkpt lat="-27.2737723" lon="151.2899054">
  <ele>346.27</ele>
  <time>2026-09-01T19:57:55Z</time>
  <course>296.86</course>
  <speed>0.05</speed>
  <fix>3d</fix>
</trkpt>
<trkpt lat="-27.273772" lon="151.2899051">
  <ele>345.92</ele>
  <time>2026-09-01T19:57:55Z</time>
  <course>182.22</course>
  <speed>0.07071067811865475</speed>
  <fix>3d</fix>
</trkpt>
<trkpt lat="-27.2737722" lon="151.2899053">
  <ele>346.16</ele>
  <time>2026-09-01T19:57:55Z</time>
  <course>303.93</course>
  <speed>0.05</speed>
  <fix>3d</fix>
</trkpt>
<trkpt lat="-27.2737719" lon="151.289905">
  <ele>345.87</ele>
  <time>2026-09-01T19:57:55Z</time>
  <course>182.22</course>
  <speed>0.07071067811865475</speed>
  <fix>3d</fix>
</trkpt>
<trkpt lat="-27.2737722" lon="151.2899053">
  <ele>346.16</ele>
  <time>2026-09-01T19:57:55Z</time>
  <course>303.93</course>
  <speed>0.05</speed>
  <fix>3d</fix>
</trkpt>
<trkpt lat="-27.2737719" lon="151.289905">
  <ele>345.82</ele>
  <time>2026-09-01T19:57:55Z</time>
  <course>182.21</course>
  <speed>0.07071067811865475</speed>
  <fix>3d</fix>
</trkpt>
<trkpt lat="-27.2737722" lon="151.2899052">
  <ele>346.07</ele>
  <time>2026-09-01T19:57:55Z</time>
  <course>310.92</course>
  <speed>0.05</speed>
  <fix>3d</fix>
</trkpt>
<trkpt lat="-27.2737719" lon="151.289905">
  <ele>345.77</ele>
  <time>2026-09-01T19:57:55Z</time>
  <course>182.21</course>
  <speed>0.07810249675906654</speed>
  <fix>3d</fix>
</trkpt>
<trkpt lat="-27.2737722" lon="151.2899052">
  <ele>346.07</ele>
  <time>2026-09-01T19:57:55Z</time>
  <course>310.92</course>
  <speed>0.05</speed>
  <fix>3d</fix>
</trkpt>
<trkpt lat="-27.2737718" lon="151.2899049">
  <ele>345.72</ele>
  <time>2026-09-01T19:57:55Z</time>
  <course>182.2</course>
  <speed>0.07211102550927978</speed>
  <fix>3d</fix>
</trkpt>
<trkpt lat="-27.2737721" lon="151.2899052">
  <ele>345.97</ele>
  <time>2026-09-01T19:57:55Z</time>
  <course>318.05</course>
  <speed>0.05</speed>
  <fix>3d</fix>
</trkpt>
<trkpt lat="-27.2737718" lon="151.2899049">
  <ele>345.67</ele>
  <time>2026-09-01T19:57:55Z</time>
  <course>182.2</course>
  <speed>0.07211102550927978</speed>
  <fix>3d</fix>
</trkpt>
<trkpt lat="-27.2737721" lon="151.2899052">
  <ele>345.97</ele>
  <time>2026-09-01T19:57:55Z</time>
  <course>318.05</course>
  <speed>0.05</speed>
  <fix>3d</fix>
</trkpt>
<trkpt lat="-27.2737718" lon="151.2899049">
  <ele>345.62</ele>
  <time>2026-09-01T19:57:55Z</time>
  <course>182.21</course>
  <speed>0.07211102550927978</speed>
  <fix>3d</fix>
</trkpt>
<trkpt lat="-27.273772" lon="151.2899051">
  <ele>345.87</ele>
  <time>2026-09-01T19:57:55Z</time>
  <course>325.37</course>
  <speed>0.04</speed>
  <fix>3d</fix>
</trkpt>
<trkpt lat="-27.2737717" lon="151.2899049">
  <ele>345.57</ele>
  <time>2026-09-01T19:57:55Z</time>
  <course>182.21</course>
  <speed>0.0670820393249937</speed>
  <fix>3d</fix>
</trkpt>
<trkpt lat="-27.273772" lon="151.2899051">
  <ele>345.87</ele>
  <time>2026-09-01T19:57:55Z</time>
  <course>325.37</course>
  <speed>0.04</speed>
  <fix>3d</fix>
</trkpt>
<trkpt lat="-27.2737717" lon="151.2899049">
  <ele>345.52</ele>
  <time>2026-09-01T19:57:55Z</time>
  <course>182.22</course>
  <speed>0.0670820393249937</speed>
  <fix>3d</fix>
</trkpt>
<trkpt lat="-27.273772" lon="151.2899051">
  <ele>345.77</ele>
  <time>2026-09-01T19:57:55Z</time>
  <course>332.86</course>
  <speed>0.04</speed>
  <fix>3d</fix>
</trkpt>
<trkpt lat="-27.2737717" lon="151.2899048">
  <ele>345.47</ele>
  <time>2026-09-01T19:57:55Z</time>
  <course>182.23</course>
  <speed>0.0670820393249937</speed>
  <fix>3d</fix>
</trkpt>
<trkpt lat="-27.273772" lon="151.2899051">
  <ele>345.77</ele>
  <time>2026-09-01T19:57:55Z</time>
  <course>332.86</course>
  <speed>0.04</speed>
  <fix>3d</fix>
</trkpt>
<trkpt lat="-27.2737717" lon="151.2899048">
  <ele>345.41</ele>
  <time>2026-09-01T19:57:55Z</time>
  <course>182.24</course>
  <speed>0.053851648071345036</speed>
  <fix>3d</fix>
</trkpt>
<trkpt lat="-27.2737719" lon="151.289905">
  <ele>345.66</ele>
  <time>2026-09-01T19:57:55Z</time>
  <course>340.8</course>
  <speed>0.04</speed>
  <fix>3d</fix>
</trkpt>
<trkpt lat="-27.2737716" lon="151.2899048">
  <ele>345.36</ele>
  <time>2026-09-01T19:57:55Z</time>
  <course>182.25</course>
  <speed>0.053851648071345036</speed>
  <fix>3d</fix>
</trkpt>
<trkpt lat="-27.2737719" lon="151.289905">
  <ele>345.66</ele>
  <time>2026-09-01T19:57:55Z</time>
  <course>340.8</course>
  <speed>0.04</speed>
  <fix>3d</fix>
</trkpt>
<trkpt lat="-27.2737716" lon="151.2899048">
  <ele>345.31</ele>
  <time>2026-09-01T19:57:55Z</time>
  <course>182.25</course>
  <speed>0.053851648071345036</speed>
  <fix>3d</fix>
</trkpt>
<trkpt lat="-27.2737718" lon="151.289905">
  <ele>345.57</ele>
  <time>2026-09-01T19:57:55Z</time>
  <course>348.95</course>
  <speed>0.04</speed>
  <fix>3d</fix>
</trkpt>
<trkpt lat="-27.2737716" lon="151.2899048">
  <ele>345.26</ele>
  <time>2026-09-01T19:57:55Z</time>
  <course>182.25</course>
  <speed>0.05099019513592785</speed>
  <fix>3d</fix>
</trkpt>
<trkpt lat="-27.2737718" lon="151.289905">
  <ele>345.57</ele>
  <time>2026-09-01T19:57:55Z</time>
  <course>348.95</course>
  <speed>0.04</speed>
  <fix>3d</fix>
</trkpt>
<trkpt lat="-27.2737715" lon="151.2899048">
  <ele>345.21</ele>
  <time>2026-09-01T19:57:55Z</time>
  <course>182.25</course>
  <speed>0.05099019513592785</speed>
  <fix>3d</fix>
</trkpt>
<trkpt lat="-27.2737717" lon="151.289905">
  <ele>345.47</ele>
  <time>2026-09-01T19:57:55Z</time>
  <course>356.8</course>
  <speed>0.04</speed>
  <fix>3d</fix>
</trkpt>
<trkpt lat="-27.2737715" lon="151.2899048">
  <ele>345.16</ele>
  <time>2026-09-01T19:57:55Z</time>
  <course>182.21</course>
  <speed>0.05099019513592785</speed>
  <fix>3d</fix>
</trkpt>
<trkpt lat="-27.2737717" lon="151.289905">
  <ele>345.37</ele>
  <time>2026-09-01T19:57:55Z</time>
  <course>1.9</course>
  <speed>0.03</speed>
  <fix>3d</fix>
</trkpt>
<trkpt lat="-27.2737715" lon="151.2899048">
  <ele>345.11</ele>
  <time>2026-09-01T19:57:55Z</time>
  <course>182.15</course>
  <speed>0.05099019513592785</speed>
  <fix>3d</fix>
</trkpt>
<trkpt lat="-27.2737717" lon="151.289905">
  <ele>345.37</ele>
  <time>2026-09-01T19:57:55Z</time>
  <course>1.9</course>
  <speed>0.03</speed>
  <fix>3d</fix>
</trkpt>
<trkpt lat="-27.2737714" lon="151.2899048">
  <ele>345.06</ele>
  <time>2026-09-01T19:57:55Z</time>
  <course>182.08</course>
  <speed>0.05099019513592785</speed>
  <fix>3d</fix>
</trkpt>
<trkpt lat="-27.2737716" lon="151.289905">
  <ele>345.28</ele>
  <time>2026-09-01T19:57:55Z</time>
  <course>3.08</course>
  <speed>0.03</speed>
  <fix>3d</fix>
</trkpt>
<trkpt lat="-27.2737714" lon="151.2899048">
  <ele>345.01</ele>
  <time>2026-09-01T19:57:55Z</time>
  <course>182.01</course>
  <speed>0.05099019513592785</speed>
  <fix>3d</fix>
</trkpt>
<trkpt lat="-27.2737716" lon="151.289905">
  <ele>345.28</ele>
  <time>2026-09-01T19:57:55Z</time>
  <course>3.08</course>
  <speed>0.03</speed>
  <fix>3d</fix>
</trkpt>
<trkpt lat="-27.2737714" lon="151.2899048">
  <ele>344.96</ele>
  <time>2026-09-01T19:57:55Z</time>
  <course>181.96</course>
  <speed>0.05099019513592785</speed>
  <fix>3d</fix>
</trkpt>
<trkpt lat="-27.2737715" lon="151.289905">
  <ele>345.18</ele>
  <time>2026-09-01T19:57:55Z</time>
  <course>2.97</course>
  <speed>0.03</speed>
  <fix>3d</fix>
</trkpt>
<trkpt lat="-27.2737714" lon="151.2899048">
  <ele>344.92</ele>
  <time>2026-09-01T19:57:55Z</time>
  <course>181.93</course>
  <speed>0.05099019513592785</speed>
  <fix>3d</fix>
</trkpt>
<trkpt lat="-27.2737715" lon="151.289905">
  <ele>345.18</ele>
  <time>2026-09-01T19:57:55Z</time>
  <course>2.97</course>
  <speed>0.03</speed>
  <fix>3d</fix>
</trkpt>
<trkpt lat="-27.2737713" lon="151.2899048">
  <ele>344.87</ele>
  <time>2026-09-01T19:57:55Z</time>
  <course>181.92</course>
  <speed>0.0412310562561766</speed>
  <fix>3d</fix>
</trkpt>
<trkpt lat="-27.2737715" lon="151.289905">
  <ele>345.08</ele>
  <time>2026-09-01T19:57:55Z</time>
  <course>2.89</course>
  <speed>0.03</speed>
  <fix>3d</fix>
</trkpt>
<trkpt lat="-27.2737713" lon="151.2899048">
  <ele>344.82</ele>
  <time>2026-09-01T19:57:55Z</time>
  <course>181.91</course>
  <speed>0.044721359549995794</speed>
  <fix>3d</fix>
</trkpt>
<trkpt lat="-27.2737715" lon="151.289905">
  <ele>345.08</ele>
  <time>2026-09-01T19:57:55Z</time>
  <course>2.89</course>
  <speed>0.03</speed>
  <fix>3d</fix>
</trkpt>
<trkpt lat="-27.2737713" lon="151.2899048">
  <ele>344.77</ele>
  <time>2026-09-01T19:57:55Z</time>
  <course>181.92</course>
  <speed>0.044721359549995794</speed>
  <fix>3d</fix>
</trkpt>
<trkpt lat="-27.2737714" lon="151.289905">
  <ele>344.97</ele>
  <time>2026-09-01T19:57:55Z</time>
  <course>2.94</course>
  <speed>0.02</speed>
  <fix>3d</fix>
</trkpt>
<trkpt lat="-27.2737713" lon="151.2899048">
  <ele>344.72</ele>
  <time>2026-09-01T19:57:55Z</time>
  <course>181.93</course>
  <speed>0.044721359549995794</speed>
  <fix>3d</fix>
</trkpt>
<trkpt lat="-27.2737714" lon="151.289905">
  <ele>344.97</ele>
  <time>2026-09-01T19:57:55Z</time>
  <course>2.94</course>
  <speed>0.02</speed>
  <fix>3d</fix>
</trkpt>
<trkpt lat="-27.2737712" lon="151.2899048">
  <ele>344.67</ele>
  <time>2026-09-01T19:57:55Z</time>
  <course>181.94</course>
  <speed>0.03605551275463989</speed>
  <fix>3d</fix>
</trkpt>
<trkpt lat="-27.2737714" lon="151.289905">
  <ele>344.97</ele>
  <time>2026-09-01T19:57:55Z</time>
  <course>2.94</course>
  <speed>0.02</speed>
  <fix>3d</fix>
</trkpt>
<trkpt lat="-27.2737712" lon="151.2899048">
  <ele>344.62</ele>
  <time>2026-09-01T19:57:55Z</time>
  <course>181.94</course>
  <speed>0.03605551275463989</speed>
  <fix>3d</fix>
</trkpt>
<trkpt lat="-27.2737714" lon="151.289905">
  <ele>344.88</ele>
  <time>2026-09-01T19:57:55Z</time>
  <course>3.05</course>
  <speed>0.02</speed>
  <fix>3d</fix>
</trkpt>
<trkpt lat="-27.2737712" lon="151.2899048">
  <ele>344.57</ele>
  <time>2026-09-01T19:57:55Z</time>
  <course>181.94</course>
  <speed>0.03605551275463989</speed>
  <fix>3d</fix>
</trkpt>
<trkpt lat="-27.2737714" lon="151.289905">
  <ele>344.88</ele>
  <time>2026-09-01T19:57:55Z</time>
  <course>3.05</course>
  <speed>0.02</speed>
  <fix>3d</fix>
</trkpt>
<trkpt lat="-27.2737712" lon="151.2899048">
  <ele>344.52</ele>
  <time>2026-09-01T19:57:55Z</time>
  <course>181.94</course>
  <speed>0.03605551275463989</speed>
  <fix>3d</fix>
</trkpt>
<trkpt lat="-27.2737713" lon="151.289905">
  <ele>344.78</ele>
  <time>2026-09-01T19:57:55Z</time>
  <course>3.36</course>
  <speed>0.01</speed>
  <fix>3d</fix>
</trkpt>
<trkpt lat="-27.2737712" lon="151.2899048">
  <ele>344.47</ele>
  <time>2026-09-01T19:57:55Z</time>
  <course>181.95</course>
  <speed>0.03605551275463989</speed>
  <fix>3d</fix>
</trkpt>
<trkpt lat="-27.2737713" lon="151.289905">
  <ele>344.78</ele>
  <time>2026-09-01T19:57:55Z</time>
  <course>3.36</course>
  <speed>0.01</speed>
  <fix>3d</fix>
</trkpt>
<trkpt lat="-27.2737712" lon="151.2899048">
  <ele>344.42</ele>
  <time>2026-09-01T19:57:55Z</time>
  <course>181.97</course>
  <speed>0.03605551275463989</speed>
  <fix>3d</fix>
</trkpt>
<trkpt lat="-27.2737713" lon="151.289905">
  <ele>344.68</ele>
  <time>2026-09-01T19:57:55Z</time>
  <course>4.54</course>
  <speed>0.01</speed>
  <fix>3d</fix>
</trkpt>
<trkpt lat="-27.2737712" lon="151.2899048">
  <ele>344.37</ele>
  <time>2026-09-01T19:57:55Z</time>
  <course>181.98</course>
  <speed>0.0282842712474619</speed>
  <fix>3d</fix>
</trkpt>
<trkpt lat="-27.2737713" lon="151.289905">
  <ele>344.68</ele>
  <time>2026-09-01T19:57:55Z</time>
  <course>4.54</course>
  <speed>0.01</speed>
  <fix>3d</fix>
</trkpt>
<trkpt lat="-27.2737711" lon="151.2899048">
  <ele>344.32</ele>
  <time>2026-09-01T19:57:55Z</time>
  <course>181.99</course>
  <speed>0.0282842712474619</speed>
  <fix>3d</fix>
</trkpt>
<trkpt lat="-27.2737713" lon="151.289905">
  <ele>344.58</ele>
  <time>2026-09-01T19:57:55Z</time>
  <course>6.14</course>
  <speed>0.01</speed>
  <fix>3d</fix>
</trkpt>
<trkpt lat="-27.2737711" lon="151.2899048">
  <ele>344.27</ele>
  <time>2026-09-01T19:57:55Z</time>
  <course>182.01</course>
  <speed>0.0282842712474619</speed>
  <fix>3d</fix>
</trkpt>
<trkpt lat="-27.2737713" lon="151.289905">
  <ele>344.58</ele>
  <time>2026-09-01T19:57:55Z</time>
  <course>6.14</course>
  <speed>0.01</speed>
  <fix>3d</fix>
</trkpt>
<trkpt lat="-27.2737711" lon="151.2899048">
  <ele>344.22</ele>
  <time>2026-09-01T19:57:55Z</time>
  <course>182.02</course>
  <speed>0.0282842712474619</speed>
  <fix>3d</fix>
</trkpt>
<trkpt lat="-27.2737713" lon="151.289905">
  <ele>344.47</ele>
  <time>2026-09-01T19:57:55Z</time>
  <course>8.94</course>
  <speed>0.0</speed>
  <fix>3d</fix>
</trkpt>
<trkpt lat="-27.2737711" lon="151.2899048">
  <ele>344.17</ele>
  <time>2026-09-01T19:57:55Z</time>
  <course>182.03</course>
  <speed>0.0282842712474619</speed>
  <fix>3d</fix>
</trkpt>
<trkpt lat="-27.2737713" lon="151.289905">
  <ele>344.47</ele>
  <time>2026-09-01T19:57:55Z</time>
  <course>8.94</course>
  <speed>0.0</speed>
  <fix>3d</fix>
</trkpt>
<trkpt lat="-27.2737711" lon="151.2899048">
  <ele>344.12</ele>
  <time>2026-09-01T19:57:55Z</time>
  <course>182.03</course>
  <speed>0.022360679774997897</speed>
  <fix>3d</fix>
</trkpt>
<trkpt lat="-27.2737713" lon="151.289905">
  <ele>344.38</ele>
  <time>2026-09-01T19:57:55Z</time>
  <course>16.49</course>
  <speed>0.0</speed>
  <fix>3d</fix>
</trkpt>
<trkpt lat="-27.2737711" lon="151.2899048">
  <ele>344.07</ele>
  <time>2026-09-01T19:57:55Z</time>
  <course>182.01</course>
  <speed>0.022360679774997897</speed>
  <fix>3d</fix>
</trkpt>
<trkpt lat="-27.2737713" lon="151.289905">
  <ele>344.28</ele>
  <time>2026-09-01T19:57:55Z</time>
  <course>37.52</course>
  <speed>0.0</speed>
  <fix>3d</fix>
</trkpt>
<trkpt lat="-27.2737711" lon="151.2899048">
  <ele>344.02</ele>
  <time>2026-09-01T19:57:55Z</time>
  <course>181.97</course>
  <speed>0.022360679774997897</speed>
  <fix>3d</fix>
</trkpt>
<trkpt lat="-27.2737713" lon="151.289905">
  <ele>344.28</ele>
  <time>2026-09-01T19:57:55Z</time>
  <course>37.52</course>
  <speed>0.0</speed>
  <fix>3d</fix>
</trkpt>
<trkpt lat="-27.2737711" lon="151.2899048">
  <ele>343.97</ele>
  <time>2026-09-01T19:57:55Z</time>
  <course>181.93</course>
  <speed>0.022360679774997897</speed>
  <fix>3d</fix>
</trkpt>
<trkpt lat="-27.2737713" lon="151.289905">
  <ele>344.18</ele>
  <time>2026-09-01T19:57:55Z</time>
  <course>194.63</course>
  <speed>0.0</speed>
  <fix>3d</fix>
</trkpt>
<trkpt lat="-27.2737712" lon="151.2899048">
  <ele>343.92</ele>
  <time>2026-09-01T19:57:55Z</time>
  <course>181.88</course>
  <speed>0.022360679774997897</speed>
  <fix>3d</fix>
</trkpt>
<trkpt lat="-27.2737713" lon="151.289905">
  <ele>344.18</ele>
  <time>2026-09-01T19:57:55Z</time>
  <course>194.63</course>
  <speed>0.0</speed>
  <fix>3d</fix>
</trkpt>
<trkpt lat="-27.2737712" lon="151.2899048">
  <ele>343.87</ele>
  <time>2026-09-01T19:57:55Z</time>
  <course>181.84</course>
  <speed>0.022360679774997897</speed>
  <fix>3d</fix>
</trkpt>
<trkpt lat="-27.2737713" lon="151.289905">
  <ele>344.08</ele>
  <time>2026-09-01T19:57:55Z</time>
  <course>206.83</course>
  <speed>0.0</speed>
  <fix>3d</fix>
</trkpt>
<trkpt lat="-27.2737712" lon="151.2899048">
  <ele>343.82</ele>
  <time>2026-09-01T19:57:55Z</time>
  <course>181.8</course>
  <speed>0.022360679774997897</speed>
  <fix>3d</fix>
</trkpt>
<trkpt lat="-27.2737713" lon="151.289905">
  <ele>344.08</ele>
  <time>2026-09-01T19:57:55Z</time>
  <course>206.83</course>
  <speed>0.0</speed>
  <fix>3d</fix>
</trkpt>
<trkpt lat="-27.2737712" lon="151.2899048">
  <ele>343.77</ele>
  <time>2026-09-01T19:57:55Z</time>
  <course>181.77</course>
  <speed>0.022360679774997897</speed>
  <fix>3d</fix>
</trkpt>
<trkpt lat="-27.2737713" lon="151.289905">
  <ele>343.97</ele>
  <time>2026-09-01T19:57:55Z</time>
  <course>207.97</course>
  <speed>0.0</speed>
  <fix>3d</fix>
</trkpt>
<trkpt lat="-27.2737712" lon="151.2899048">
  <ele>343.72</ele>
  <time>2026-09-01T19:57:55Z</time>
  <course>181.77</course>
  <speed>0.022360679774997897</speed>
  <fix>3d</fix>
</trkpt>
<trkpt lat="-27.2737713" lon="151.289905">
  <ele>343.97</ele>
  <time>2026-09-01T19:57:55Z</time>
  <course>207.97</course>
  <speed>0.0</speed>
  <fix>3d</fix>
</trkpt>
<trkpt lat="-27.2737712" lon="151.2899048">
  <ele>343.67</ele>
  <time>2026-09-01T19:57:55Z</time>
  <course>181.78</course>
  <speed>0.022360679774997897</speed>
  <fix>3d</fix>
</trkpt>
<trkpt lat="-27.2737713" lon="151.289905">
  <ele>343.88</ele>
  <time>2026-09-01T19:57:55Z</time>
  <course>208.7</course>
  <speed>0.0</speed>
  <fix>3d</fix>
</trkpt>
<trkpt lat="-27.2737712" lon="151.2899048">
  <ele>343.62</ele>
  <time>2026-09-01T19:57:55Z</time>
  <course>181.79</course>
  <speed>0.022360679774997897</speed>
  <fix>3d</fix>
</trkpt>
<trkpt lat="-27.2737713" lon="151.289905">
  <ele>343.88</ele>
  <time>2026-09-01T19:57:55Z</time>
  <course>208.7</course>
  <speed>0.0</speed>
  <fix>3d</fix>
</trkpt>
<trkpt lat="-27.2737712" lon="151.2899048">
  <ele>343.57</ele>
  <time>2026-09-01T19:57:55Z</time>
  <course>181.81</course>
  <speed>0.022360679774997897</speed>
  <fix>3d</fix>
</trkpt>
<trkpt lat="-27.2737713" lon="151.289905">
  <ele>343.78</ele>
  <time>2026-09-01T19:57:55Z</time>
  <course>208.93</course>
  <speed>0.0</speed>
  <fix>3d</fix>
</trkpt>
<trkpt lat="-27.2737712" lon="151.2899048">
  <ele>343.52</ele>
  <time>2026-09-01T19:57:55Z</time>
  <course>181.83</course>
  <speed>0.022360679774997897</speed>
  <fix>3d</fix>
</trkpt>
<trkpt lat="-27.2737713" lon="151.289905">
  <ele>343.78</ele>
  <time>2026-09-01T19:57:55Z</time>
  <course>208.93</course>
  <speed>0.0</speed>
  <fix>3d</fix>
</trkpt>
<trkpt lat="-27.2737712" lon="151.2899048">
  <ele>343.47</ele>
  <time>2026-09-01T19:57:55Z</time>
  <course>181.84</course>
  <speed>0.022360679774997897</speed>
  <fix>3d</fix>
</trkpt>
<trkpt lat="-27.2737713" lon="151.289905">
  <ele>343.68</ele>
  <time>2026-09-01T19:57:55Z</time>
  <course>208.56</course>
  <speed>0.0</speed>
  <fix>3d</fix>
</trkpt>
<trkpt lat="-27.2737712" lon="151.2899048">
  <ele>343.42</ele>
  <time>2026-09-01T19:57:55Z</time>
  <course>181.84</course>
  <speed>0.022360679774997897</speed>
  <fix>3d</fix>
</trkpt>
<trkpt lat="-27.2737713" lon="151.289905">
  <ele>343.68</ele>
  <time>2026-09-01T19:57:55Z</time>
  <course>208.56</course>
  <speed>0.0</speed>
  <fix>3d</fix>
</trkpt>
<trkpt lat="-27.2737712" lon="151.2899048">
  <ele>343.37</ele>
  <time>2026-09-01T19:57:55Z</time>
  <course>181.83</course>
  <speed>0.022360679774997897</speed>
  <fix>3d</fix>
</trkpt>
<trkpt lat="-27.2737713" lon="151.289905">
  <ele>343.58</ele>
  <time>2026-09-01T19:57:55Z</time>
  <course>207.15</course>
  <speed>0.01</speed>
  <fix>3d</fix>
</trkpt>
<trkpt lat="-27.2737712" lon="151.2899048">
  <ele>343.33</ele>
  <time>2026-09-01T19:57:55Z</time>
  <course>181.83</course>
  <speed>0.022360679774997897</speed>
  <fix>3d</fix>
</trkpt>
<trkpt lat="-27.2737713" lon="151.289905">
  <ele>343.58</ele>
  <time>2026-09-01T19:57:55Z</time>
  <course>207.15</course>
  <speed>0.01</speed>
  <fix>3d</fix>
</trkpt>
<trkpt lat="-27.2737712" lon="151.2899048">
  <ele>343.28</ele>
  <time>2026-09-01T19:57:55Z</time>
  <course>181.82</course>
  <speed>0.022360679774997897</speed>
  <fix>3d</fix>
</trkpt>
<trkpt lat="-27.2737713" lon="151.289905">
  <ele>343.58</ele>
  <time>2026-09-01T19:57:55Z</time>
  <course>207.15</course>
  <speed>0.01</speed>
  <fix>3d</fix>
</trkpt>
<trkpt lat="-27.2737712" lon="151.2899048">
  <ele>343.23</ele>
  <time>2026-09-01T19:57:55Z</time>
  <course>181.82</course>
  <speed>0.02</speed>
  <fix>3d</fix>
</trkpt>
<trkpt lat="-27.2737713" lon="151.289905">
  <ele>343.47</ele>
  <time>2026-09-01T19:57:55Z</time>
  <course>205.09</course>
  <speed>0.01</speed>
  <fix>3d</fix>
</trkpt>
<trkpt lat="-27.2737712" lon="151.2899048">
  <ele>343.18</ele>
  <time>2026-09-01T19:57:55Z</time>
  <course>181.82</course>
  <speed>0.02</speed>
  <fix>3d</fix>
</trkpt>
<trkpt lat="-27.2737713" lon="151.289905">
  <ele>343.47</ele>
  <time>2026-09-01T19:57:55Z</time>
  <course>205.09</course>
  <speed>0.01</speed>
  <fix>3d</fix>
</trkpt>
<trkpt lat="-27.2737712" lon="151.2899048">
  <ele>343.13</ele>
  <time>2026-09-01T19:57:55Z</time>
  <course>181.81</course>
  <speed>0.02</speed>
  <fix>3d</fix>
</trkpt>
<trkpt lat="-27.2737713" lon="151.289905">
  <ele>343.38</ele>
  <time>2026-09-01T19:57:55Z</time>
  <course>202.68</course>
  <speed>0.01</speed>
  <fix>3d</fix>
</trkpt>
<trkpt lat="-27.2737712" lon="151.2899048">
  <ele>343.08</ele>
  <time>2026-09-01T19:57:55Z</time>
  <course>181.81</course>
  <speed>0.02</speed>
  <fix>3d</fix>
</trkpt>
<trkpt lat="-27.2737713" lon="151.289905">
  <ele>343.28</ele>
  <time>2026-09-01T19:57:55Z</time>
  <course>200.45</course>
  <speed>0.01</speed>
  <fix>3d</fix>
</trkpt>
<trkpt lat="-27.2737712" lon="151.2899048">
  <ele>343.03</ele>
  <time>2026-09-01T19:57:55Z</time>
  <course>181.81</course>
  <speed>0.02</speed>
  <fix>3d</fix>
</trkpt>
<trkpt lat="-27.2737713" lon="151.289905">
  <ele>343.28</ele>
  <time>2026-09-01T19:57:55Z</time>
  <course>200.45</course>
  <speed>0.01</speed>
  <fix>3d</fix>
</trkpt>
<trkpt lat="-27.2737712" lon="151.2899048">
  <ele>342.98</ele>
  <time>2026-09-01T19:57:55Z</time>
  <course>181.81</course>
  <speed>0.02</speed>
  <fix>3d</fix>
</trkpt>
<trkpt lat="-27.2737713" lon="151.289905">
  <ele>343.17</ele>
  <time>2026-09-01T19:57:55Z</time>
  <course>198.89</course>
  <speed>0.01</speed>
  <fix>3d</fix>
</trkpt>
<trkpt lat="-27.2737712" lon="151.2899048">
  <ele>342.93</ele>
  <time>2026-09-01T19:57:55Z</time>
  <course>181.81</course>
  <speed>0.022360679774997897</speed>
  <fix>3d</fix>
</trkpt>
<trkpt lat="-27.2737713" lon="151.289905">
  <ele>343.17</ele>
  <time>2026-09-01T19:57:55Z</time>
  <course>198.89</course>
  <speed>0.01</speed>
  <fix>3d</fix>
</trkpt>
<trkpt lat="-27.2737712" lon="151.2899048">
  <ele>342.91</ele>
  <time>2026-09-01T19:57:55Z</time>
  <course>181.81</course>
  <speed>0.0282842712474619</speed>
  <fix>3d</fix>
</trkpt>
<trkpt lat="-27.2737713" lon="151.289905">
  <ele>343.08</ele>
  <time>2026-09-01T19:57:55Z</time>
  <course>198.28</course>
  <speed>0.0</speed>
  <fix>3d</fix>
</trkpt>
<trkpt lat="-27.2737712" lon="151.2899048">
  <ele>342.92</ele>
  <time>2026-09-01T19:57:55Z</time>
  <course>181.81</course>
  <speed>0.0282842712474619</speed>
  <fix>3d</fix>
</trkpt>
<trkpt lat="-27.2737713" lon="151.289905">
  <ele>343.08</ele>
  <time>2026-09-01T19:57:55Z</time>
  <course>198.28</course>
  <speed>0.0</speed>
  <fix>3d</fix>
</trkpt>
<trkpt lat="-27.2737712" lon="151.2899048">
  <ele>342.94</ele>
  <time>2026-09-01T19:57:55Z</time>
  <course>181.81</course>
  <speed>0.0282842712474619</speed>
  <fix>3d</fix>
</trkpt>
<trkpt lat="-27.2737713" lon="151.289905">
  <ele>343.06</ele>
  <time>2026-09-01T19:57:55Z</time>
  <course>18.04</course>
  <speed>0.0</speed>
  <fix>3d</fix>
</trkpt>
<trkpt lat="-27.2737712" lon="151.2899048">
  <ele>342.95</ele>
  <time>2026-09-01T19:57:55Z</time>
  <course>181.81</course>
  <speed>0.0282842712474619</speed>
  <fix>3d</fix>
</trkpt>
<trkpt lat="-27.2737713" lon="151.289905">
  <ele>343.06</ele>
  <time>2026-09-01T19:57:55Z</time>
  <course>18.04</course>
  <speed>0.0</speed>
  <fix>3d</fix>
</trkpt>
<trkpt lat="-27.2737712" lon="151.2899048">
  <ele>342.95</ele>
  <time>2026-09-01T19:57:55Z</time>
  <course>181.81</course>
  <speed>0.0282842712474619</speed>
  <fix>3d</fix>
</trkpt>
<trkpt lat="-27.2737713" lon="151.289905">
  <ele>343.07</ele>
  <time>2026-09-01T19:57:55Z</time>
  <course>18.04</course>
  <speed>0.0</speed>
  <fix>3d</fix>
</trkpt>
<trkpt lat="-27.2737712" lon="151.2899048">
  <ele>342.95</ele>
  <time>2026-09-01T19:57:55Z</time>
  <course>181.81</course>
  <speed>0.0282842712474619</speed>
  <fix>3d</fix>
</trkpt>
<trkpt lat="-27.2737713" lon="151.289905">
  <ele>343.07</ele>
  <time>2026-09-01T19:57:55Z</time>
  <course>18.04</course>
  <speed>0.0</speed>
  <fix>3d</fix>
</trkpt>
<trkpt lat="-27.2737712" lon="151.2899048">
  <ele>342.95</ele>
  <time>2026-09-01T19:57:55Z</time>
  <course>181.81</course>
  <speed>0.0282842712474619</speed>
  <fix>3d</fix>
</trkpt>
<trkpt lat="-27.2737713" lon="151.289905">
  <ele>343.08</ele>
  <time>2026-09-01T19:57:55Z</time>
  <course>198.04</course>
  <speed>0.0</speed>
  <fix>3d</fix>
</trkpt>
<trkpt lat="-27.2737712" lon="151.2899048">
  <ele>342.95</ele>
  <time>2026-09-01T19:57:55Z</time>
  <course>181.81</course>
  <speed>0.0282842712474619</speed>
  <fix>3d</fix>
</trkpt>
<trkpt lat="-27.2737713" lon="151.289905">
  <ele>343.08</ele>
  <time>2026-09-01T19:57:55Z</time>
  <course>198.04</course>
  <speed>0.0</speed>
  <fix>3d</fix>
</trkpt>
<trkpt lat="-27.2737712" lon="151.2899048">
  <ele>342.95</ele>
  <time>2026-09-01T19:57:55Z</time>
  <course>181.81</course>
  <speed>0.0282842712474619</speed>
  <fix>3d</fix>
</trkpt>
<trkpt lat="-27.2737713" lon="151.289905">
  <ele>343.08</ele>
  <time>2026-09-01T19:57:55Z</time>
  <course>198.04</course>
  <speed>0.0</speed>
  <fix>3d</fix>
</trkpt>
<trkpt lat="-27.2737712" lon="151.2899048">
  <ele>342.95</ele>
  <time>2026-09-01T19:57:55Z</time>
  <course>181.81</course>
  <speed>0.0282842712474619</speed>
  <fix>3d</fix>
</trkpt>
<trkpt lat="-27.2737713" lon="151.289905">
  <ele>343.08</ele>
  <time>2026-09-01T19:57:55Z</time>
  <course>198.04</course>
  <speed>0.0</speed>
  <fix>3d</fix>
</trkpt>
<trkpt lat="-27.2737712" lon="151.2899048">
  <ele>342.95</ele>
  <time>2026-09-01T19:57:55Z</time>
  <course>181.81</course>
  <speed>0.0282842712474619</speed>
  <fix>3d</fix>
</trkpt>
<trkpt lat="-27.2737713" lon="151.289905">
  <ele>343.08</ele>
  <time>2026-09-01T19:57:55Z</time>
  <course>18.05</course>
  <speed>0.0</speed>
  <fix>3d</fix>
</trkpt>
<trkpt lat="-27.2737712" lon="151.2899048">
  <ele>342.95</ele>
  <time>2026-09-01T19:57:55Z</time>
  <course>181.81</course>
  <speed>0.0282842712474619</speed>
  <fix>3d</fix>
</trkpt>
<trkpt lat="-27.2737713" lon="151.289905">
  <ele>343.08</ele>
  <time>2026-09-01T19:57:55Z</time>
  <course>18.05</course>
  <speed>0.0</speed>
  <fix>3d</fix>
</trkpt>
<trkpt lat="-27.2737712" lon="151.2899048">
  <ele>342.95</ele>
  <time>2026-09-01T19:57:55Z</time>
  <course>181.81</course>
  <speed>0.0282842712474619</speed>
  <fix>3d</fix>
</trkpt>
<trkpt lat="-27.2737713" lon="151.289905">
  <ele>343.08</ele>
  <time>2026-09-01T19:57:55Z</time>
  <course>18.07</course>
  <speed>0.0</speed>
  <fix>3d</fix>
</trkpt>
<trkpt lat="-27.2737712" lon="151.2899048">
  <ele>342.95</ele>
  <time>2026-09-01T19:57:55Z</time>
  <course>181.81</course>
  <speed>0.0282842712474619</speed>
  <fix>3d</fix>
</trkpt>
<trkpt lat="-27.2737713" lon="151.289905">
  <ele>343.08</ele>
  <time>2026-09-01T19:57:55Z</time>
  <course>18.07</course>
  <speed>0.0</speed>
  <fix>3d</fix>
</trkpt>
<trkpt lat="-27.2737712" lon="151.2899048">
  <ele>342.95</ele>
  <time>2026-09-01T19:57:55Z</time>
  <course>181.81</course>
  <speed>0.0282842712474619</speed>
  <fix>3d</fix>
</trkpt>
<trkpt lat="-27.2737713" lon="151.289905">
  <ele>343.08</ele>
  <time>2026-09-01T19:57:55Z</time>
  <course>198.16</course>
  <speed>0.0</speed>
  <fix>3d</fix>
</trkpt>
<trkpt lat="-27.2737712" lon="151.2899048">
  <ele>342.95</ele>
  <time>2026-09-01T19:57:55Z</time>
  <course>181.81</course>
  <speed>0.0282842712474619</speed>
  <fix>3d</fix>
</trkpt>
<trkpt lat="-27.2737713" lon="151.289905">
  <ele>343.08</ele>
  <time>2026-09-01T19:57:55Z</time>
  <course>198.16</course>
  <speed>0.0</speed>
  <fix>3d</fix>
</trkpt>
<trkpt lat="-27.2737711" lon="151.2899048">
  <ele>342.95</ele>
  <time>2026-09-01T19:57:55Z</time>
  <course>181.81</course>
  <speed>0.0282842712474619</speed>
  <fix>3d</fix>
</trkpt>
<trkpt lat="-27.2737713" lon="151.289905">
  <ele>343.08</ele>
  <time>2026-09-01T19:57:55Z</time>
  <course>200.69</course>
  <speed>0.0</speed>
  <fix>3d</fix>
</trkpt>
<trkpt lat="-27.2737711" lon="151.2899048">
  <ele>342.95</ele>
  <time>2026-09-01T19:57:55Z</time>
  <course>181.81</course>
  <speed>0.0282842712474619</speed>
  <fix>3d</fix>
</trkpt>
<trkpt lat="-27.2737713" lon="151.289905">
  <ele>343.08</ele>
  <time>2026-09-01T19:57:55Z</time>
  <course>200.69</course>
  <speed>0.0</speed>
  <fix>3d</fix>
</trkpt>
<trkpt lat="-27.2737711" lon="151.2899048">
  <ele>342.95</ele>
  <time>2026-09-01T19:57:55Z</time>
  <course>181.81</course>
  <speed>0.0282842712474619</speed>
  <fix>3d</fix>
</trkpt>
<trkpt lat="-27.2737713" lon="151.289905">
  <ele>343.08</ele>
  <time>2026-09-01T19:57:55Z</time>
  <course>17.93</course>
  <speed>0.0</speed>
  <fix>3d</fix>
</trkpt>
<trkpt lat="-27.2737711" lon="151.2899048">
  <ele>342.94</ele>
  <time>2026-09-01T19:57:55Z</time>
  <course>181.81</course>
  <speed>0.0282842712474619</speed>
  <fix>3d</fix>
</trkpt>
<trkpt lat="-27.2737713" lon="151.289905">
  <ele>343.08</ele>
  <time>2026-09-01T19:57:55Z</time>
  <course>17.93</course>
  <speed>0.0</speed>
  <fix>3d</fix>
</trkpt>
<trkpt lat="-27.2737711" lon="151.2899048">
  <ele>342.94</ele>
  <time>2026-09-01T19:57:55Z</time>
  <course>181.81</course>
  <speed>0.0282842712474619</speed>
  <fix>3d</fix>
</trkpt>
<trkpt lat="-27.2737713" lon="151.289905">
  <ele>343.08</ele>
  <time>2026-09-01T19:57:55Z</time>
  <course>210.85</course>
  <speed>0.0</speed>
  <fix>3d</fix>
</trkpt>
<trkpt lat="-27.2737711" lon="151.2899048">
  <ele>342.94</ele>
  <time>2026-09-01T19:57:55Z</time>
  <course>181.81</course>
  <speed>0.0282842712474619</speed>
  <fix>3d</fix>
</trkpt>
<trkpt lat="-27.2737713" lon="151.289905">
  <ele>343.08</ele>
  <time>2026-09-01T19:57:55Z</time>
  <course>210.85</course>
  <speed>0.0</speed>
  <fix>3d</fix>
</trkpt>
<trkpt lat="-27.2737711" lon="151.2899048">
  <ele>342.94</ele>
  <time>2026-09-01T19:57:55Z</time>
  <course>181.81</course>
  <speed>0.0282842712474619</speed>
  <fix>3d</fix>
</trkpt>
<trkpt lat="-27.2737713" lon="151.289905">
  <ele>343.08</ele>
  <time>2026-09-01T19:57:55Z</time>
  <course>221.04</course>
  <speed>0.0</speed>
  <fix>3d</fix>
</trkpt>
<trkpt lat="-27.2737711" lon="151.2899048">
  <ele>342.94</ele>
  <time>2026-09-01T19:57:55Z</time>
  <course>181.81</course>
  <speed>0.0282842712474619</speed>
  <fix>3d</fix>
</trkpt>
<trkpt lat="-27.2737713" lon="151.289905">
  <ele>343.08</ele>
  <time>2026-09-01T19:57:55Z</time>
  <course>221.04</course>
  <speed>0.0</speed>
  <fix>3d</fix>
</trkpt>
<trkpt lat="-27.2737711" lon="151.2899048">
  <ele>342.94</ele>
  <time>2026-09-01T19:57:55Z</time>
  <course>181.81</course>
  <speed>0.0282842712474619</speed>
  <fix>3d</fix>
</trkpt>
<trkpt lat="-27.2737713" lon="151.289905">
  <ele>343.08</ele>
  <time>2026-09-01T19:57:55Z</time>
  <course>320.1</course>
  <speed>0.0</speed>
  <fix>3d</fix>
</trkpt>
<trkpt lat="-27.2737711" lon="151.2899048">
  <ele>342.94</ele>
  <time>2026-09-01T19:57:55Z</time>
  <course>181.81</course>
  <speed>0.0282842712474619</speed>
  <fix>3d</fix>
</trkpt>
<trkpt lat="-27.2737713" lon="151.289905">
  <ele>343.08</ele>
  <time>2026-09-01T19:57:55Z</time>
  <course>320.1</course>
  <speed>0.0</speed>
  <fix>3d</fix>
</trkpt>
<trkpt lat="-27.2737711" lon="151.2899048">
  <ele>342.94</ele>
  <time>2026-09-01T19:57:55Z</time>
  <course>181.81</course>
  <speed>0.0282842712474619</speed>
  <fix>3d</fix>
</trkpt>
<trkpt lat="-27.2737713" lon="151.289905">
  <ele>343.08</ele>
  <time>2026-09-01T19:57:55Z</time>
  <course>313.8</course>
  <speed>0.0</speed>
  <fix>3d</fix>
</trkpt>
<trkpt lat="-27.2737711" lon="151.2899048">
  <ele>342.94</ele>
  <time>2026-09-01T19:57:55Z</time>
  <course>181.81</course>
  <speed>0.0282842712474619</speed>
  <fix>3d</fix>
</trkpt>
<trkpt lat="-27.2737713" lon="151.289905">
  <ele>343.08</ele>
  <time>2026-09-01T19:57:55Z</time>
  <course>313.8</course>
  <speed>0.0</speed>
  <fix>3d</fix>
</trkpt>
<trkpt lat="-27.2737711" lon="151.2899048">
  <ele>342.94</ele>
  <time>2026-09-01T19:57:55Z</time>
  <course>181.81</course>
  <speed>0.0282842712474619</speed>
  <fix>3d</fix>
</trkpt>
<trkpt lat="-27.2737713" lon="151.289905">
  <ele>343.08</ele>
  <time>2026-09-01T19:57:55Z</time>
  <course>314.76</course>
  <speed>0.0</speed>
  <fix>3d</fix>
</trkpt>
<trkpt lat="-27.2737711" lon="151.2899048">
  <ele>342.94</ele>
  <time>2026-09-01T19:57:55Z</time>
  <course>181.81</course>
  <speed>0.0282842712474619</speed>
  <fix>3d</fix>
</trkpt>
<trkpt lat="-27.2737713" lon="151.289905">
  <ele>343.08</ele>
  <time>2026-09-01T19:57:55Z</time>
  <course>314.76</course>
  <speed>0.0</speed>
  <fix>3d</fix>
</trkpt>
<trkpt lat="-27.2737711" lon="151.2899048">
  <ele>342.94</ele>
  <time>2026-09-01T19:57:55Z</time>
  <course>181.82</course>
  <speed>0.0282842712474619</speed>
  <fix>3d</fix>
</trkpt>
<trkpt lat="-27.2737713" lon="151.289905">
  <ele>343.08</ele>
  <time>2026-09-01T19:57:55Z</time>
  <course>317.44</course>
  <speed>0.0</speed>
  <fix>3d</fix>
</trkpt>
<trkpt lat="-27.2737711" lon="151.2899048">
  <ele>342.94</ele>
  <time>2026-09-01T19:57:55Z</time>
  <course>181.82</course>
  <speed>0.0282842712474619</speed>
  <fix>3d</fix>
</trkpt>
<trkpt lat="-27.2737713" lon="151.289905">
  <ele>343.08</ele>
  <time>2026-09-01T19:57:55Z</time>
  <course>317.44</course>
  <speed>0.0</speed>
  <fix>3d</fix>
</trkpt>
<trkpt lat="-27.2737711" lon="151.2899048">
  <ele>342.94</ele>
  <time>2026-09-01T19:57:55Z</time>
  <course>181.82</course>
  <speed>0.0282842712474619</speed>
  <fix>3d</fix>
</trkpt>
<trkpt lat="-27.2737713" lon="151.289905">
  <ele>343.08</ele>
  <time>2026-09-01T19:57:55Z</time>
  <course>316.38</course>
  <speed>0.0</speed>
  <fix>3d</fix>
</trkpt>
<trkpt lat="-27.2737711" lon="151.2899048">
  <ele>342.94</ele>
  <time>2026-09-01T19:57:55Z</time>
  <course>181.82</course>
  <speed>0.0282842712474619</speed>
  <fix>3d</fix>
</trkpt>
<trkpt lat="-27.2737713" lon="151.289905">
  <ele>343.08</ele>
  <time>2026-09-01T19:57:55Z</time>
  <course>316.38</course>
  <speed>0.0</speed>
  <fix>3d</fix>
</trkpt>
<trkpt lat="-27.2737711" lon="151.2899048">
  <ele>342.94</ele>
  <time>2026-09-01T19:57:55Z</time>
  <course>181.82</course>
  <speed>0.0282842712474619</speed>
  <fix>3d</fix>
</trkpt>
<trkpt lat="-27.2737713" lon="151.289905">
  <ele>343.08</ele>
  <time>2026-09-01T19:57:55Z</time>
  <course>340.54</course>
  <speed>0.0</speed>
  <fix>3d</fix>
</trkpt>
<trkpt lat="-27.2737711" lon="151.2899048">
  <ele>342.94</ele>
  <time>2026-09-01T19:57:55Z</time>
  <course>181.82</course>
  <speed>0.0282842712474619</speed>
  <fix>3d</fix>
</trkpt>
<trkpt lat="-27.2737713" lon="151.289905">
  <ele>343.08</ele>
  <time>2026-09-01T19:57:55Z</time>
  <course>340.54</course>
  <speed>0.0</speed>
  <fix>3d</fix>
</trkpt>
<trkpt lat="-27.2737711" lon="151.2899048">
  <ele>342.94</ele>
  <time>2026-09-01T19:57:55Z</time>
  <course>181.82</course>
  <speed>0.0282842712474619</speed>
  <fix>3d</fix>
</trkpt>
<trkpt lat="-27.2737713" lon="151.289905">
  <ele>343.08</ele>
  <time>2026-09-01T19:57:55Z</time>
  <course>338.72</course>
  <speed>0.0</speed>
  <fix>3d</fix>
</trkpt>
<trkpt lat="-27.2737711" lon="151.2899048">
  <ele>342.94</ele>
  <time>2026-09-01T19:57:55Z</time>
  <course>181.82</course>
  <speed>0.0282842712474619</speed>
  <fix>3d</fix>
</trkpt>
<trkpt lat="-27.2737713" lon="151.289905">
  <ele>343.08</ele>
  <time>2026-09-01T19:57:55Z</time>
  <course>338.72</course>
  <speed>0.0</speed>
  <fix>3d</fix>
</trkpt>
<trkpt lat="-27.2737711" lon="151.2899048">
  <ele>342.94</ele>
  <time>2026-09-01T19:57:55Z</time>
  <course>181.82</course>
  <speed>0.0282842712474619</speed>
  <fix>3d</fix>
</trkpt>
<trkpt lat="-27.2737713" lon="151.289905">
  <ele>343.08</ele>
  <time>2026-09-01T19:57:55Z</time>
  <course>314.62</course>
  <speed>0.0</speed>
  <fix>3d</fix>
</trkpt>
<trkpt lat="-27.2737711" lon="151.2899048">
  <ele>342.94</ele>
  <time>2026-09-01T19:57:55Z</time>
  <course>181.82</course>
  <speed>0.0282842712474619</speed>
  <fix>3d</fix>
</trkpt>
<trkpt lat="-27.2737713" lon="151.289905">
  <ele>343.08</ele>
  <time>2026-09-01T19:57:55Z</time>
  <course>314.62</course>
  <speed>0.0</speed>
  <fix>3d</fix>
</trkpt>
<trkpt lat="-27.2737711" lon="151.2899048">
  <ele>342.95</ele>
  <time>2026-09-01T19:57:55Z</time>
  <course>181.82</course>
  <speed>0.0282842712474619</speed>
  <fix>3d</fix>
</trkpt>
<trkpt lat="-27.2737713" lon="151.289905">
  <ele>343.08</ele>
  <time>2026-09-01T19:57:55Z</time>
  <course>338.25</course>
  <speed>0.0</speed>
  <fix>3d</fix>
</trkpt>
<trkpt lat="-27.2737711" lon="151.2899048">
  <ele>342.95</ele>
  <time>2026-09-01T19:57:55Z</time>
  <course>181.82</course>
  <speed>0.0282842712474619</speed>
  <fix>3d</fix>
</trkpt>
<trkpt lat="-27.2737713" lon="151.289905">
  <ele>343.08</ele>
  <time>2026-09-01T19:57:55Z</time>
  <course>338.25</course>
  <speed>0.0</speed>
  <fix>3d</fix>
</trkpt>
<trkpt lat="-27.2737711" lon="151.2899048">
  <ele>342.95</ele>
  <time>2026-09-01T19:57:55Z</time>
  <course>181.82</course>
  <speed>0.0282842712474619</speed>
  <fix>3d</fix>
</trkpt>
<trkpt lat="-27.2737713" lon="151.289905">
  <ele>343.08</ele>
  <time>2026-09-01T19:57:55Z</time>
  <course>341.76</course>
  <speed>0.0</speed>
  <fix>3d</fix>
</trkpt>
<trkpt lat="-27.2737711" lon="151.2899048">
  <ele>342.95</ele>
  <time>2026-09-01T19:57:55Z</time>
  <course>181.82</course>
  <speed>0.0282842712474619</speed>
  <fix>3d</fix>
</trkpt>
<trkpt lat="-27.2737713" lon="151.289905">
  <ele>343.08</ele>
  <time>2026-09-01T19:57:55Z</time>
  <course>341.76</course>
  <speed>0.0</speed>
  <fix>3d</fix>
</trkpt>
<trkpt lat="-27.2737711" lon="151.2899048">
  <ele>342.95</ele>
  <time>2026-09-01T19:57:55Z</time>
  <course>181.82</course>
  <speed>0.0282842712474619</speed>
  <fix>3d</fix>
</trkpt>
<trkpt lat="-27.2737713" lon="151.289905">
  <ele>343.08</ele>
  <time>2026-09-01T19:57:55Z</time>
  <course>315.78</course>
  <speed>0.0</speed>
  <fix>3d</fix>
</trkpt>
<trkpt lat="-27.2737711" lon="151.2899048">
  <ele>342.95</ele>
  <time>2026-09-01T19:57:55Z</time>
  <course>181.82</course>
  <speed>0.0282842712474619</speed>
  <fix>3d</fix>
</trkpt>
<trkpt lat="-27.2737713" lon="151.289905">
  <ele>343.08</ele>
  <time>2026-09-01T19:57:55Z</time>
  <course>315.78</course>
  <speed>0.0</speed>
  <fix>3d</fix>
</trkpt>
<trkpt lat="-27.2737711" lon="151.2899048">
  <ele>342.95</ele>
  <time>2026-09-01T19:57:55Z</time>
  <course>181.82</course>
  <speed>0.0282842712474619</speed>
  <fix>3d</fix>
</trkpt>
<trkpt lat="-27.2737713" lon="151.289905">
  <ele>343.08</ele>
  <time>2026-09-01T19:57:55Z</time>
  <course>352.33</course>
  <speed>0.0</speed>
  <fix>3d</fix>
</trkpt>
<trkpt lat="-27.2737711" lon="151.2899048">
  <ele>342.94</ele>
  <time>2026-09-01T19:57:55Z</time>
  <course>181.82</course>
  <speed>0.0282842712474619</speed>
  <fix>3d</fix>
</trkpt>
<trkpt lat="-27.2737713" lon="151.289905">
  <ele>343.08</ele>
  <time>2026-09-01T19:57:55Z</time>
  <course>352.33</course>
  <speed>0.0</speed>
  <fix>3d</fix>
</trkpt>
<trkpt lat="-27.2737711" lon="151.2899048">
  <ele>342.94</ele>
  <time>2026-09-01T19:57:55Z</time>
  <course>181.82</course>
  <speed>0.0282842712474619</speed>
  <fix>3d</fix>
</trkpt>
<trkpt lat="-27.2737713" lon="151.289905">
  <ele>343.08</ele>
  <time>2026-09-01T19:57:55Z</time>
  <course>348.54</course>
  <speed>0.0</speed>
  <fix>3d</fix>
</trkpt>
<trkpt lat="-27.2737711" lon="151.2899048">
  <ele>342.94</ele>
  <time>2026-09-01T19:57:55Z</time>
  <course>181.82</course>
  <speed>0.0282842712474619</speed>
  <fix>3d</fix>
</trkpt>
<trkpt lat="-27.2737713" lon="151.289905">
  <ele>343.08</ele>
  <time>2026-09-01T19:57:55Z</time>
  <course>348.54</course>
  <speed>0.0</speed>
  <fix>3d</fix>
</trkpt>
<trkpt lat="-27.2737711" lon="151.2899048">
  <ele>342.94</ele>
  <time>2026-09-01T19:57:55Z</time>
  <course>181.82</course>
  <speed>0.0282842712474619</speed>
  <fix>3d</fix>
</trkpt>
<trkpt lat="-27.2737713" lon="151.289905">
  <ele>343.08</ele>
  <time>2026-09-01T19:57:55Z</time>
  <course>325.09</course>
  <speed>0.0</speed>
  <fix>3d</fix>
</trkpt>
<trkpt lat="-27.2737711" lon="151.2899048">
  <ele>342.94</ele>
  <time>2026-09-01T19:57:55Z</time>
  <course>181.82</course>
  <speed>0.0282842712474619</speed>
  <fix>3d</fix>
</trkpt>
<trkpt lat="-27.2737713" lon="151.289905">
  <ele>343.08</ele>
  <time>2026-09-01T19:57:55Z</time>
  <course>325.09</course>
  <speed>0.0</speed>
  <fix>3d</fix>
</trkpt>
<trkpt lat="-27.2737711" lon="151.2899048">
  <ele>342.94</ele>
  <time>2026-09-01T19:57:55Z</time>
  <course>181.82</course>
  <speed>0.0282842712474619</speed>
  <fix>3d</fix>
</trkpt>
<trkpt lat="-27.2737713" lon="151.289905">
  <ele>343.08</ele>
  <time>2026-09-01T19:57:55Z</time>
  <course>325.28</course>
  <speed>0.0</speed>
  <fix>3d</fix>
</trkpt>
<trkpt lat="-27.2737711" lon="151.2899048">
  <ele>342.94</ele>
  <time>2026-09-01T19:57:55Z</time>
  <course>181.82</course>
  <speed>0.0282842712474619</speed>
  <fix>3d</fix>
</trkpt>
<trkpt lat="-27.2737713" lon="151.289905">
  <ele>343.08</ele>
  <time>2026-09-01T19:57:55Z</time>
  <course>325.28</course>
  <speed>0.0</speed>
  <fix>3d</fix>
</trkpt>
<trkpt lat="-27.2737711" lon="151.2899048">
  <ele>342.94</ele>
  <time>2026-09-01T19:57:55Z</time>
  <course>181.82</course>
  <speed>0.0282842712474619</speed>
  <fix>3d</fix>
</trkpt>
<trkpt lat="-27.2737713" lon="151.289905">
  <ele>343.08</ele>
  <time>2026-09-01T19:57:55Z</time>
  <course>337.67</course>
  <speed>0.0</speed>
  <fix>3d</fix>
</trkpt>
<trkpt lat="-27.2737711" lon="151.2899048">
  <ele>342.94</ele>
  <time>2026-09-01T19:57:55Z</time>
  <course>181.82</course>
  <speed>0.0282842712474619</speed>
  <fix>3d</fix>
</trkpt>
<trkpt lat="-27.2737713" lon="151.289905">
  <ele>343.08</ele>
  <time>2026-09-01T19:57:55Z</time>
  <course>337.67</course>
  <speed>0.0</speed>
  <fix>3d</fix>
</trkpt>
<trkpt lat="-27.2737711" lon="151.2899048">
  <ele>342.94</ele>
  <time>2026-09-01T19:57:55Z</time>
  <course>181.82</course>
  <speed>0.0282842712474619</speed>
  <fix>3d</fix>
</trkpt>
<trkpt lat="-27.2737713" lon="151.289905">
  <ele>343.08</ele>
  <time>2026-09-01T19:57:55Z</time>
  <course>324.85</course>
  <speed>0.0</speed>
  <fix>3d</fix>
</trkpt>
<trkpt lat="-27.2737711" lon="151.2899048">
  <ele>342.94</ele>
  <time>2026-09-01T19:57:55Z</time>
  <course>181.82</course>
  <speed>0.0282842712474619</speed>
  <fix>3d</fix>
</trkpt>
<trkpt lat="-27.2737713" lon="151.289905">
  <ele>343.08</ele>
  <time>2026-09-01T19:57:55Z</time>
  <course>324.85</course>
  <speed>0.0</speed>
  <fix>3d</fix>
</trkpt>
<trkpt lat="-27.2737711" lon="151.2899048">
  <ele>342.94</ele>
  <time>2026-09-01T19:57:55Z</time>
  <course>181.82</course>
  <speed>0.0282842712474619</speed>
  <fix>3d</fix>
</trkpt>
<trkpt lat="-27.2737713" lon="151.289905">
  <ele>343.08</ele>
  <time>2026-09-01T19:57:55Z</time>
  <course>333.76</course>
  <speed>0.0</speed>
  <fix>3d</fix>
</trkpt>
<trkpt lat="-27.2737711" lon="151.2899048">
  <ele>342.94</ele>
  <time>2026-09-01T19:57:55Z</time>
  <course>181.82</course>
  <speed>0.0282842712474619</speed>
  <fix>3d</fix>
</trkpt>
<trkpt lat="-27.2737713" lon="151.289905">
  <ele>343.08</ele>
  <time>2026-09-01T19:57:55Z</time>
  <course>333.76</course>
  <speed>0.0</speed>
  <fix>3d</fix>
</trkpt>
<trkpt lat="-27.2737711" lon="151.2899048">
  <ele>342.94</ele>
  <time>2026-09-01T19:57:55Z</time>
  <course>181.82</course>
  <speed>0.0282842712474619</speed>
  <fix>3d</fix>
</trkpt>
<trkpt lat="-27.2737713" lon="151.289905">
  <ele>343.08</ele>
  <time>2026-09-01T19:57:55Z</time>
  <course>326.92</course>
  <speed>0.0</speed>
  <fix>3d</fix>
</trkpt>
<trkpt lat="-27.2737711" lon="151.2899048">
  <ele>343.07</ele>
  <time>2026-09-01T19:57:55Z</time>
  <course>181.82</course>
  <speed>0.0282842712474619</speed>
  <fix>3d</fix>
</trkpt>
<trkpt lat="-27.2737713" lon="151.289905">
  <ele>343.08</ele>
  <time>2026-09-01T19:57:55Z</time>
  <course>326.92</course>
  <speed>0.0</speed>
  <fix>3d</fix>
</trkpt>
<trkpt lat="-27.2737711" lon="151.2899048">
  <ele>343.07</ele>
  <time>2026-09-01T19:57:55Z</time>
  <course>181.82</course>
  <speed>0.0282842712474619</speed>
  <fix>3d</fix>
</trkpt>
<trkpt lat="-27.2737713" lon="151.289905">
  <ele>343.08</ele>
  <time>2026-09-01T19:57:55Z</time>
  <course>164.7</course>
  <speed>0.0</speed>
  <fix>3d</fix>
</trkpt>
<trkpt lat="-27.2737712" lon="151.2899048">
  <ele>343.07</ele>
  <time>2026-09-01T19:57:55Z</time>
  <course>181.82</course>
  <speed>0.0282842712474619</speed>
  <fix>3d</fix>
</trkpt>
<trkpt lat="-27.2737713" lon="151.289905">
  <ele>343.08</ele>
  <time>2026-09-01T19:57:55Z</time>
  <course>164.7</course>
  <speed>0.0</speed>
  <fix>3d</fix>
</trkpt>
<trkpt lat="-27.2737711" lon="151.2899048">
  <ele>343.07</ele>
  <time>2026-09-01T19:57:55Z</time>
  <course>181.82</course>
  <speed>0.0282842712474619</speed>
  <fix>3d</fix>
</trkpt>
<trkpt lat="-27.2737713" lon="151.289905">
  <ele>343.08</ele>
  <time>2026-09-01T19:57:55Z</time>
  <course>162.5</course>
  <speed>0.0</speed>
  <fix>3d</fix>
</trkpt>
<trkpt lat="-27.2737712" lon="151.2899048">
  <ele>343.08</ele>
  <time>2026-09-01T19:57:55Z</time>
  <course>181.82</course>
  <speed>0.0282842712474619</speed>
  <fix>3d</fix>
</trkpt>
<trkpt lat="-27.2737713" lon="151.289905">
  <ele>343.08</ele>
  <time>2026-09-01T19:57:55Z</time>
  <course>162.5</course>
  <speed>0.0</speed>
  <fix>3d</fix>
</trkpt>
<trkpt lat="-27.2737711" lon="151.2899048">
  <ele>343.08</ele>
  <time>2026-09-01T19:57:55Z</time>
  <course>181.82</course>
  <speed>0.0282842712474619</speed>
  <fix>3d</fix>
</trkpt>
<trkpt lat="-27.2737713" lon="151.289905">
  <ele>343.08</ele>
  <time>2026-09-01T19:57:55Z</time>
  <course>343.78</course>
  <speed>0.0</speed>
  <fix>3d</fix>
</trkpt>
<trkpt lat="-27.2737712" lon="151.2899048">
  <ele>343.08</ele>
  <time>2026-09-01T19:57:55Z</time>
  <course>181.82</course>
  <speed>0.0282842712474619</speed>
  <fix>3d</fix>
</trkpt>
<trkpt lat="-27.2737713" lon="151.289905">
  <ele>343.08</ele>
  <time>2026-09-01T19:57:55Z</time>
  <course>343.78</course>
  <speed>0.0</speed>
  <fix>3d</fix>
</trkpt>
<trkpt lat="-27.2737712" lon="151.2899048">
  <ele>343.08</ele>
  <time>2026-09-01T19:57:55Z</time>
  <course>181.81</course>
  <speed>0.0282842712474619</speed>
  <fix>3d</fix>
</trkpt>
<trkpt lat="-27.2737713" lon="151.289905">
  <ele>343.08</ele>
  <time>2026-09-01T19:57:55Z</time>
  <course>342.17</course>
  <speed>0.0</speed>
  <fix>3d</fix>
</trkpt>
<trkpt lat="-27.2737712" lon="151.2899048">
  <ele>343.08</ele>
  <time>2026-09-01T19:57:55Z</time>
  <course>181.81</course>
  <speed>0.0282842712474619</speed>
  <fix>3d</fix>
</trkpt>
<trkpt lat="-27.2737713" lon="151.289905">
  <ele>343.08</ele>
  <time>2026-09-01T19:57:55Z</time>
  <course>342.17</course>
  <speed>0.0</speed>
  <fix>3d</fix>
</trkpt>
<trkpt lat="-27.2737712" lon="151.2899048">
  <ele>343.08</ele>
  <time>2026-09-01T19:57:55Z</time>
  <course>181.81</course>
  <speed>0.0282842712474619</speed>
  <fix>3d</fix>
</trkpt>
<trkpt lat="-27.2737713" lon="151.289905">
  <ele>343.08</ele>
  <time>2026-09-01T19:57:55Z</time>
  <course>163.31</course>
  <speed>0.0</speed>
  <fix>3d</fix>
</trkpt>
<trkpt lat="-27.2737712" lon="151.2899048">
  <ele>343.08</ele>
  <time>2026-09-01T19:57:55Z</time>
  <course>181.81</course>
  <speed>0.0282842712474619</speed>
  <fix>3d</fix>
</trkpt>
<trkpt lat="-27.2737713" lon="151.289905">
  <ele>343.08</ele>
  <time>2026-09-01T19:57:55Z</time>
  <course>163.31</course>
  <speed>0.0</speed>
  <fix>3d</fix>
</trkpt>
<trkpt lat="-27.2737712" lon="151.2899048">
  <ele>343.09</ele>
  <time>2026-09-01T19:57:55Z</time>
  <course>181.81</course>
  <speed>0.0282842712474619</speed>
  <fix>3d</fix>
</trkpt>
<trkpt lat="-27.2737713" lon="151.289905">
  <ele>343.08</ele>
  <time>2026-09-01T19:57:55Z</time>
  <course>161.53</course>
  <speed>0.0</speed>
  <fix>3d</fix>
</trkpt>
<trkpt lat="-27.2737712" lon="151.2899048">
  <ele>343.09</ele>
  <time>2026-09-01T19:57:55Z</time>
  <course>181.81</course>
  <speed>0.0282842712474619</speed>
  <fix>3d</fix>
</trkpt>
<trkpt lat="-27.2737713" lon="151.289905">
  <ele>343.08</ele>
  <time>2026-09-01T19:57:55Z</time>
  <course>161.53</course>
  <speed>0.0</speed>
  <fix>3d</fix>
</trkpt>
<trkpt lat="-27.2737712" lon="151.2899048">
  <ele>343.1</ele>
  <time>2026-09-01T19:57:55Z</time>
  <course>181.81</course>
  <speed>0.0282842712474619</speed>
  <fix>3d</fix>
</trkpt>
<trkpt lat="-27.2737713" lon="151.289905">
  <ele>343.08</ele>
  <time>2026-09-01T19:57:55Z</time>
  <course>343.03</course>
  <speed>0.0</speed>
  <fix>3d</fix>
</trkpt>
<trkpt lat="-27.2737712" lon="151.2899048">
  <ele>343.1</ele>
  <time>2026-09-01T19:57:55Z</time>
  <course>181.81</course>
  <speed>0.0282842712474619</speed>
  <fix>3d</fix>
</trkpt>
<trkpt lat="-27.2737713" lon="151.289905">
  <ele>343.08</ele>
  <time>2026-09-01T19:57:55Z</time>
  <course>343.03</course>
  <speed>0.0</speed>
  <fix>3d</fix>
</trkpt>
<trkpt lat="-27.2737712" lon="151.2899048">
  <ele>343.11</ele>
  <time>2026-09-01T19:57:55Z</time>
  <course>181.81</course>
  <speed>0.0282842712474619</speed>
  <fix>3d</fix>
</trkpt>
<trkpt lat="-27.2737713" lon="151.289905">
  <ele>343.08</ele>
  <time>2026-09-01T19:57:55Z</time>
  <course>338.55</course>
  <speed>0.0</speed>
  <fix>3d</fix>
</trkpt>
<trkpt lat="-27.2737712" lon="151.2899048">
  <ele>343.12</ele>
  <time>2026-09-01T19:57:55Z</time>
  <course>181.8</course>
  <speed>0.0282842712474619</speed>
  <fix>3d</fix>
</trkpt>
<trkpt lat="-27.2737713" lon="151.289905">
  <ele>343.08</ele>
  <time>2026-09-01T19:57:55Z</time>
  <course>338.55</course>
  <speed>0.0</speed>
  <fix>3d</fix>
</trkpt>
<trkpt lat="-27.2737712" lon="151.2899048">
  <ele>343.12</ele>
  <time>2026-09-01T19:57:55Z</time>
  <course>181.8</course>
  <speed>0.0282842712474619</speed>
  <fix>3d</fix>
</trkpt>
<trkpt lat="-27.2737713" lon="151.289905">
  <ele>343.08</ele>
  <time>2026-09-01T19:57:55Z</time>
  <course>162.8</course>
  <speed>0.0</speed>
  <fix>3d</fix>
</trkpt>
<trkpt lat="-27.2737712" lon="151.2899048">
  <ele>343.13</ele>
  <time>2026-09-01T19:57:55Z</time>
  <course>181.8</course>
  <speed>0.0282842712474619</speed>
  <fix>3d</fix>
</trkpt>
<trkpt lat="-27.2737713" lon="151.289905">
  <ele>343.08</ele>
  <time>2026-09-01T19:57:55Z</time>
  <course>162.8</course>
  <speed>0.0</speed>
  <fix>3d</fix>
</trkpt>
<trkpt lat="-27.2737712" lon="151.2899048">
  <ele>343.14</ele>
  <time>2026-09-01T19:57:55Z</time>
  <course>181.8</course>
  <speed>0.0282842712474619</speed>
  <fix>3d</fix>
</trkpt>
<trkpt lat="-27.2737713" lon="151.289905">
  <ele>343.08</ele>
  <time>2026-09-01T19:57:55Z</time>
  <course>346.69</course>
  <speed>0.0</speed>
  <fix>3d</fix>
</trkpt>
<trkpt lat="-27.2737712" lon="151.2899048">
  <ele>343.15</ele>
  <time>2026-09-01T19:57:55Z</time>
  <course>181.8</course>
  <speed>0.0282842712474619</speed>
  <fix>3d</fix>
</trkpt>
<trkpt lat="-27.2737713" lon="151.289905">
  <ele>343.08</ele>
  <time>2026-09-01T19:57:55Z</time>
  <course>346.69</course>
  <speed>0.0</speed>
  <fix>3d</fix>
</trkpt>
<trkpt lat="-27.2737712" lon="151.2899048">
  <ele>343.15</ele>
  <time>2026-09-01T19:57:55Z</time>
  <course>181.8</course>
  <speed>0.0282842712474619</speed>
  <fix>3d</fix>
</trkpt>
<trkpt lat="-27.2737713" lon="151.289905">
  <ele>343.08</ele>
  <time>2026-09-01T19:57:55Z</time>
  <course>342.57</course>
  <speed>0.0</speed>
  <fix>3d</fix>
</trkpt>
<trkpt lat="-27.2737712" lon="151.2899048">
  <ele>343.16</ele>
  <time>2026-09-01T19:57:55Z</time>
  <course>181.8</course>
  <speed>0.0282842712474619</speed>
  <fix>3d</fix>
</trkpt>
<trkpt lat="-27.2737713" lon="151.289905">
  <ele>343.08</ele>
  <time>2026-09-01T19:57:55Z</time>
  <course>342.57</course>
  <speed>0.0</speed>
  <fix>3d</fix>
</trkpt>
<trkpt lat="-27.2737712" lon="151.2899048">
  <ele>343.16</ele>
  <time>2026-09-01T19:57:55Z</time>
  <course>181.8</course>
  <speed>0.0282842712474619</speed>
  <fix>3d</fix>
</trkpt>
<trkpt lat="-27.2737713" lon="151.289905">
  <ele>343.08</ele>
  <time>2026-09-01T19:57:55Z</time>
  <course>164.02</course>
  <speed>0.0</speed>
  <fix>3d</fix>
</trkpt>
<trkpt lat="-27.2737712" lon="151.2899048">
  <ele>343.17</ele>
  <time>2026-09-01T19:57:55Z</time>
  <course>181.79</course>
  <speed>0.0282842712474619</speed>
  <fix>3d</fix>
</trkpt>
<trkpt lat="-27.2737713" lon="151.289905">
  <ele>343.08</ele>
  <time>2026-09-01T19:57:55Z</time>
  <course>343.42</course>
  <speed>0.0</speed>
  <fix>3d</fix>
</trkpt>
<trkpt lat="-27.2737712" lon="151.2899048">
  <ele>343.17</ele>
  <time>2026-09-01T19:57:55Z</time>
  <course>181.78</course>
  <speed>0.01414213562373095</speed>
  <fix>3d</fix>
</trkpt>
<trkpt lat="-27.2737713" lon="151.289905">
  <ele>343.08</ele>
  <time>2026-09-01T19:57:55Z</time>
  <course>163.1</course>
  <speed>0.0</speed>
  <fix>3d</fix>
</trkpt>
<trkpt lat="-27.2737712" lon="151.2899048">
  <ele>343.17</ele>
  <time>2026-09-01T19:57:55Z</time>
  <course>181.78</course>
  <speed>0.01414213562373095</speed>
  <fix>3d</fix>
</trkpt>
<trkpt lat="-27.2737713" lon="151.289905">
  <ele>343.08</ele>
  <time>2026-09-01T19:57:55Z</time>
  <course>163.1</course>
  <speed>0.0</speed>
  <fix>3d</fix>
</trkpt>
<trkpt lat="-27.2737712" lon="151.2899048">
  <ele>343.17</ele>
  <time>2026-09-01T19:57:55Z</time>
  <course>181.78</course>
  <speed>0.01414213562373095</speed>
  <fix>3d</fix>
</trkpt>
<trkpt lat="-27.2737713" lon="151.289905">
  <ele>343.08</ele>
  <time>2026-09-01T19:57:55Z</time>
  <course>160.24</course>
  <speed>0.0</speed>
  <fix>3d</fix>
</trkpt>
<trkpt lat="-27.2737712" lon="151.2899048">
  <ele>343.17</ele>
  <time>2026-09-01T19:57:56Z</time>
  <course>181.78</course>
  <speed>0.01414213562373095</speed>
  <fix>3d</fix>
</trkpt>
<trkpt lat="-27.2737713" lon="151.289905">
  <ele>343.08</ele>
  <time>2026-09-01T19:57:56Z</time>
  <course>160.24</course>
  <speed>0.0</speed>
  <fix>3d</fix>
</trkpt>
<trkpt lat="-27.2737712" lon="151.2899048">
  <ele>343.17</ele>
  <time>2026-09-01T19:57:56Z</time>
  <course>181.78</course>
  <speed>0.01414213562373095</speed>
  <fix>3d</fix>
</trkpt>
<trkpt lat="-27.2737713" lon="151.289905">
  <ele>343.08</ele>
  <time>2026-09-01T19:57:56Z</time>
  <course>342.87</course>
  <speed>0.0</speed>
  <fix>3d</fix>
</trkpt>
<trkpt lat="-27.2737712" lon="151.2899048">
  <ele>343.17</ele>
  <time>2026-09-01T19:57:56Z</time>
  <course>181.78</course>
  <speed>0.01414213562373095</speed>
  <fix>3d</fix>
</trkpt>
<trkpt lat="-27.2737713" lon="151.289905">
  <ele>343.08</ele>
  <time>2026-09-01T19:57:56Z</time>
  <course>342.87</course>
  <speed>0.0</speed>
  <fix>3d</fix>
</trkpt>
<trkpt lat="-27.2737712" lon="151.2899048">
  <ele>343.17</ele>
  <time>2026-09-01T19:57:56Z</time>
  <course>181.78</course>
  <speed>0.01414213562373095</speed>
  <fix>3d</fix>
</trkpt>
<trkpt lat="-27.2737713" lon="151.289905">
  <ele>343.08</ele>
  <time>2026-09-01T19:57:56Z</time>
  <course>170.53</course>
  <speed>0.0</speed>
  <fix>3d</fix>
</trkpt>
<trkpt lat="-27.2737712" lon="151.2899048">
  <ele>343.17</ele>
  <time>2026-09-01T19:57:56Z</time>
  <course>181.78</course>
  <speed>0.01414213562373095</speed>
  <fix>3d</fix>
</trkpt>
<trkpt lat="-27.2737713" lon="151.289905">
  <ele>343.08</ele>
  <time>2026-09-01T19:57:56Z</time>
  <course>170.53</course>
  <speed>0.0</speed>
  <fix>3d</fix>
</trkpt>
<trkpt lat="-27.2737712" lon="151.2899048">
  <ele>343.17</ele>
  <time>2026-09-01T19:57:56Z</time>
  <course>181.77</course>
  <speed>0.01414213562373095</speed>
  <fix>3d</fix>
</trkpt>
<trkpt lat="-27.2737713" lon="151.289905">
  <ele>343.08</ele>
  <time>2026-09-01T19:57:56Z</time>
  <course>162.36</course>
  <speed>0.0</speed>
  <fix>3d</fix>
</trkpt>
<trkpt lat="-27.2737712" lon="151.2899048">
  <ele>343.17</ele>
  <time>2026-09-01T19:57:56Z</time>
  <course>181.77</course>
  <speed>0.01414213562373095</speed>
  <fix>3d</fix>
</trkpt>
<trkpt lat="-27.2737713" lon="151.289905">
  <ele>343.08</ele>
  <time>2026-09-01T19:57:56Z</time>
  <course>162.36</course>
  <speed>0.0</speed>
  <fix>3d</fix>
</trkpt>
<trkpt lat="-27.2737712" lon="151.2899048">
  <ele>343.18</ele>
  <time>2026-09-01T19:57:56Z</time>
  <course>181.77</course>
  <speed>0.01414213562373095</speed>
  <fix>3d</fix>
</trkpt>
<trkpt lat="-27.2737713" lon="151.289905">
  <ele>343.08</ele>
  <time>2026-09-01T19:57:56Z</time>
  <course>345.0</course>
  <speed>0.0</speed>
  <fix>3d</fix>
</trkpt>
<trkpt lat="-27.2737712" lon="151.2899048">
  <ele>343.18</ele>
  <time>2026-09-01T19:57:56Z</time>
  <course>181.77</course>
  <speed>0.01414213562373095</speed>
  <fix>3d</fix>
</trkpt>
<trkpt lat="-27.2737713" lon="151.289905">
  <ele>343.08</ele>
  <time>2026-09-01T19:57:56Z</time>
  <course>345.0</course>
  <speed>0.0</speed>
  <fix>3d</fix>
</trkpt>
<trkpt lat="-27.2737712" lon="151.2899048">
  <ele>343.18</ele>
  <time>2026-09-01T19:57:56Z</time>
  <course>181.77</course>
  <speed>0.01414213562373095</speed>
  <fix>3d</fix>
</trkpt>
<trkpt lat="-27.2737713" lon="151.289905">
  <ele>343.08</ele>
  <time>2026-09-01T19:57:56Z</time>
  <course>330.52</course>
  <speed>0.0</speed>
  <fix>3d</fix>
</trkpt>
<trkpt lat="-27.2737712" lon="151.2899048">
  <ele>343.19</ele>
  <time>2026-09-01T19:57:56Z</time>
  <course>181.77</course>
  <speed>0.01414213562373095</speed>
  <fix>3d</fix>
</trkpt>
<trkpt lat="-27.2737713" lon="151.289905">
  <ele>343.08</ele>
  <time>2026-09-01T19:57:56Z</time>
  <course>330.52</course>
  <speed>0.0</speed>
  <fix>3d</fix>
</trkpt>
<trkpt lat="-27.2737712" lon="151.2899048">
  <ele>343.19</ele>
  <time>2026-09-01T19:57:56Z</time>
  <course>181.77</course>
  <speed>0.01414213562373095</speed>
  <fix>3d</fix>
</trkpt>
<trkpt lat="-27.2737713" lon="151.289905">
  <ele>343.08</ele>
  <time>2026-09-01T19:57:56Z</time>
  <course>213.08</course>
  <speed>0.0</speed>
  <fix>3d</fix>
</trkpt>
<trkpt lat="-27.2737712" lon="151.2899048">
  <ele>343.2</ele>
  <time>2026-09-01T19:57:56Z</time>
  <course>181.76</course>
  <speed>0.01414213562373095</speed>
  <fix>3d</fix>
</trkpt>
<trkpt lat="-27.2737713" lon="151.289905">
  <ele>343.08</ele>
  <time>2026-09-01T19:57:56Z</time>
  <course>213.08</course>
  <speed>0.0</speed>
  <fix>3d</fix>
</trkpt>
<trkpt lat="-27.2737712" lon="151.2899048">
  <ele>343.2</ele>
  <time>2026-09-01T19:57:56Z</time>
  <course>181.76</course>
  <speed>0.01414213562373095</speed>
  <fix>3d</fix>
</trkpt>
<trkpt lat="-27.2737713" lon="151.289905">
  <ele>343.08</ele>
  <time>2026-09-01T19:57:56Z</time>
  <course>203.93</course>
  <speed>0.0</speed>
  <fix>3d</fix>
</trkpt>
<trkpt lat="-27.2737712" lon="151.2899048">
  <ele>343.2</ele>
  <time>2026-09-01T19:57:56Z</time>
  <course>181.76</course>
  <speed>0.01414213562373095</speed>
  <fix>3d</fix>
</trkpt>
<trkpt lat="-27.2737713" lon="151.289905">
  <ele>343.08</ele>
  <time>2026-09-01T19:57:56Z</time>
  <course>203.93</course>
  <speed>0.0</speed>
  <fix>3d</fix>
</trkpt>
<trkpt lat="-27.2737712" lon="151.2899048">
  <ele>343.21</ele>
  <time>2026-09-01T19:57:56Z</time>
  <course>181.76</course>
  <speed>0.01414213562373095</speed>
  <fix>3d</fix>
</trkpt>
<trkpt lat="-27.2737713" lon="151.289905">
  <ele>343.08</ele>
  <time>2026-09-01T19:57:56Z</time>
  <course>217.63</course>
  <speed>0.0</speed>
  <fix>3d</fix>
</trkpt>
<trkpt lat="-27.2737712" lon="151.2899048">
  <ele>343.21</ele>
  <time>2026-09-01T19:57:56Z</time>
  <course>181.76</course>
  <speed>0.01414213562373095</speed>
  <fix>3d</fix>
</trkpt>
<trkpt lat="-27.2737713" lon="151.289905">
  <ele>343.08</ele>
  <time>2026-09-01T19:57:56Z</time>
  <course>217.63</course>
  <speed>0.0</speed>
  <fix>3d</fix>
</trkpt>
<trkpt lat="-27.2737712" lon="151.2899048">
  <ele>343.21</ele>
  <time>2026-09-01T19:57:56Z</time>
  <course>181.76</course>
  <speed>0.01414213562373095</speed>
  <fix>3d</fix>
</trkpt>
<trkpt lat="-27.2737713" lon="151.289905">
  <ele>343.08</ele>
  <time>2026-09-01T19:57:56Z</time>
  <course>228.88</course>
  <speed>0.0</speed>
  <fix>3d</fix>
</trkpt>
<trkpt lat="-27.2737712" lon="151.2899048">
  <ele>343.21</ele>
  <time>2026-09-01T19:57:56Z</time>
  <course>181.76</course>
  <speed>0.01414213562373095</speed>
  <fix>3d</fix>
</trkpt>
<trkpt lat="-27.2737713" lon="151.289905">
  <ele>343.08</ele>
  <time>2026-09-01T19:57:56Z</time>
  <course>228.88</course>
  <speed>0.0</speed>
  <fix>3d</fix>
</trkpt>
<trkpt lat="-27.2737712" lon="151.2899048">
  <ele>343.21</ele>
  <time>2026-09-01T19:57:56Z</time>
  <course>181.76</course>
  <speed>0.01414213562373095</speed>
  <fix>3d</fix>
</trkpt>
<trkpt lat="-27.2737713" lon="151.289905">
  <ele>343.08</ele>
  <time>2026-09-01T19:57:56Z</time>
  <course>230.26</course>
  <speed>0.0</speed>
  <fix>3d</fix>
</trkpt>
<trkpt lat="-27.2737712" lon="151.2899048">
  <ele>343.21</ele>
  <time>2026-09-01T19:57:56Z</time>
  <course>181.75</course>
  <speed>0.01414213562373095</speed>
  <fix>3d</fix>
</trkpt>
<trkpt lat="-27.2737713" lon="151.289905">
  <ele>343.08</ele>
  <time>2026-09-01T19:57:56Z</time>
  <course>230.26</course>
  <speed>0.0</speed>
  <fix>3d</fix>
</trkpt>
<trkpt lat="-27.2737712" lon="151.2899048">
  <ele>343.21</ele>
  <time>2026-09-01T19:57:56Z</time>
  <course>181.75</course>
  <speed>0.01414213562373095</speed>
  <fix>3d</fix>
</trkpt>
<trkpt lat="-27.2737713" lon="151.289905">
  <ele>343.08</ele>
  <time>2026-09-01T19:57:56Z</time>
  <course>230.61</course>
  <speed>0.0</speed>
  <fix>3d</fix>
</trkpt>
<trkpt lat="-27.2737712" lon="151.2899048">
  <ele>343.21</ele>
  <time>2026-09-01T19:57:56Z</time>
  <course>181.75</course>
  <speed>0.01414213562373095</speed>
  <fix>3d</fix>
</trkpt>
<trkpt lat="-27.2737713" lon="151.289905">
  <ele>343.08</ele>
  <time>2026-09-01T19:57:56Z</time>
  <course>230.61</course>
  <speed>0.0</speed>
  <fix>3d</fix>
</trkpt>
<trkpt lat="-27.2737712" lon="151.2899048">
  <ele>343.21</ele>
  <time>2026-09-01T19:57:56Z</time>
  <course>181.75</course>
  <speed>0.01414213562373095</speed>
  <fix>3d</fix>
</trkpt>
<trkpt lat="-27.2737713" lon="151.289905">
  <ele>343.08</ele>
  <time>2026-09-01T19:57:56Z</time>
  <course>231.04</course>
  <speed>0.0</speed>
  <fix>3d</fix>
</trkpt>
<trkpt lat="-27.2737712" lon="151.2899048">
  <ele>343.21</ele>
  <time>2026-09-01T19:57:56Z</time>
  <course>181.75</course>
  <speed>0.01414213562373095</speed>
  <fix>3d</fix>
</trkpt>
<trkpt lat="-27.2737713" lon="151.289905">
  <ele>343.08</ele>
  <time>2026-09-01T19:57:56Z</time>
  <course>231.04</course>
  <speed>0.0</speed>
  <fix>3d</fix>
</trkpt>
<trkpt lat="-27.2737712" lon="151.2899048">
  <ele>343.21</ele>
  <time>2026-09-01T19:57:56Z</time>
  <course>181.75</course>
  <speed>0.01414213562373095</speed>
  <fix>3d</fix>
</trkpt>
<trkpt lat="-27.2737713" lon="151.289905">
  <ele>343.08</ele>
  <time>2026-09-01T19:57:56Z</time>
  <course>231.1</course>
  <speed>0.0</speed>
  <fix>3d</fix>
</trkpt>
<trkpt lat="-27.2737712" lon="151.2899048">
  <ele>343.08</ele>
  <time>2026-09-01T19:57:56Z</time>
  <course>181.75</course>
  <speed>0.01414213562373095</speed>
  <fix>3d</fix>
</trkpt>
<trkpt lat="-27.2737713" lon="151.289905">
  <ele>343.08</ele>
  <time>2026-09-01T19:57:56Z</time>
  <course>231.1</course>
  <speed>0.0</speed>
  <fix>3d</fix>
</trkpt>
<trkpt lat="-27.2737712" lon="151.2899048">
  <ele>343.08</ele>
  <time>2026-09-01T19:57:56Z</time>
  <course>181.74</course>
  <speed>0.022360679774997897</speed>
  <fix>3d</fix>
</trkpt>
<trkpt lat="-27.2737713" lon="151.289905">
  <ele>343.08</ele>
  <time>2026-09-01T19:57:56Z</time>
  <course>231.01</course>
  <speed>0.0</speed>
  <fix>3d</fix>
</trkpt>
<trkpt lat="-27.2737712" lon="151.2899048">
  <ele>343.08</ele>
  <time>2026-09-01T19:57:56Z</time>
  <course>181.74</course>
  <speed>0.01414213562373095</speed>
  <fix>3d</fix>
</trkpt>
<trkpt lat="-27.2737713" lon="151.289905">
  <ele>343.08</ele>
  <time>2026-09-01T19:57:56Z</time>
  <course>231.01</course>
  <speed>0.0</speed>
  <fix>3d</fix>
</trkpt>
<trkpt lat="-27.2737712" lon="151.2899048">
  <ele>343.07</ele>
  <time>2026-09-01T19:57:56Z</time>
  <course>181.74</course>
  <speed>0.022360679774997897</speed>
  <fix>3d</fix>
</trkpt>
<trkpt lat="-27.2737713" lon="151.289905">
  <ele>343.08</ele>
  <time>2026-09-01T19:57:56Z</time>
  <course>230.84</course>
  <speed>0.0</speed>
  <fix>3d</fix>
</trkpt>
<trkpt lat="-27.2737712" lon="151.2899048">
  <ele>343.07</ele>
  <time>2026-09-01T19:57:56Z</time>
  <course>181.74</course>
  <speed>0.022360679774997897</speed>
  <fix>3d</fix>
</trkpt>
<trkpt lat="-27.2737713" lon="151.289905">
  <ele>343.08</ele>
  <time>2026-09-01T19:57:56Z</time>
  <course>230.84</course>
  <speed>0.0</speed>
  <fix>3d</fix>
</trkpt>
<trkpt lat="-27.2737712" lon="151.2899048">
  <ele>343.07</ele>
  <time>2026-09-01T19:57:56Z</time>
  <course>181.74</course>
  <speed>0.022360679774997897</speed>
  <fix>3d</fix>
</trkpt>
<trkpt lat="-27.2737713" lon="151.289905">
  <ele>343.08</ele>
  <time>2026-09-01T19:57:56Z</time>
  <course>230.75</course>
  <speed>0.0</speed>
  <fix>3d</fix>
</trkpt>
<trkpt lat="-27.2737712" lon="151.2899048">
  <ele>343.08</ele>
  <time>2026-09-01T19:57:56Z</time>
  <course>181.74</course>
  <speed>0.022360679774997897</speed>
  <fix>3d</fix>
</trkpt>
<trkpt lat="-27.2737713" lon="151.289905">
  <ele>343.08</ele>
  <time>2026-09-01T19:57:56Z</time>
  <course>230.75</course>
  <speed>0.0</speed>
  <fix>3d</fix>
</trkpt>
<trkpt lat="-27.2737712" lon="151.2899048">
  <ele>343.08</ele>
  <time>2026-09-01T19:57:56Z</time>
  <course>181.74</course>
  <speed>0.022360679774997897</speed>
  <fix>3d</fix>
</trkpt>
<trkpt lat="-27.2737713" lon="151.289905">
  <ele>343.08</ele>
  <time>2026-09-01T19:57:56Z</time>
  <course>230.74</course>
  <speed>0.0</speed>
  <fix>3d</fix>
</trkpt>
<trkpt lat="-27.2737712" lon="151.2899048">
  <ele>343.07</ele>
  <time>2026-09-01T19:57:56Z</time>
  <course>181.73</course>
  <speed>0.022360679774997897</speed>
  <fix>3d</fix>
</trkpt>
<trkpt lat="-27.2737713" lon="151.289905">
  <ele>343.08</ele>
  <time>2026-09-01T19:57:56Z</time>
  <course>230.74</course>
  <speed>0.0</speed>
  <fix>3d</fix>
</trkpt>
<trkpt lat="-27.2737712" lon="151.2899048">
  <ele>343.07</ele>
  <time>2026-09-01T19:57:56Z</time>
  <course>181.73</course>
  <speed>0.0282842712474619</speed>
  <fix>3d</fix>
</trkpt>
<trkpt lat="-27.2737713" lon="151.289905">
  <ele>343.08</ele>
  <time>2026-09-01T19:57:56Z</time>
  <course>230.74</course>
  <speed>0.0</speed>
  <fix>3d</fix>
</trkpt>
<trkpt lat="-27.2737712" lon="151.2899048">
  <ele>343.07</ele>
  <time>2026-09-01T19:57:56Z</time>
  <course>181.73</course>
  <speed>0.022360679774997897</speed>
  <fix>3d</fix>
</trkpt>
<trkpt lat="-27.2737713" lon="151.289905">
  <ele>343.08</ele>
  <time>2026-09-01T19:57:56Z</time>
  <course>230.74</course>
  <speed>0.0</speed>
  <fix>3d</fix>
</trkpt>
<trkpt lat="-27.2737712" lon="151.2899048">
  <ele>343.07</ele>
  <time>2026-09-01T19:57:56Z</time>
  <course>181.73</course>
  <speed>0.0282842712474619</speed>
  <fix>3d</fix>
</trkpt>
<trkpt lat="-27.2737713" lon="151.289905">
  <ele>343.08</ele>
  <time>2026-09-01T19:57:56Z</time>
  <course>230.74</course>
  <speed>0.0</speed>
  <fix>3d</fix>
</trkpt>
<trkpt lat="-27.2737712" lon="151.2899048">
  <ele>343.07</ele>
  <time>2026-09-01T19:57:56Z</time>
  <course>181.73</course>
  <speed>0.0282842712474619</speed>
  <fix>3d</fix>
</trkpt>
<trkpt lat="-27.2737713" lon="151.289905">
  <ele>343.08</ele>
  <time>2026-09-01T19:57:56Z</time>
  <course>230.74</course>
  <speed>0.0</speed>
  <fix>3d</fix>
</trkpt>
<trkpt lat="-27.2737712" lon="151.2899048">
  <ele>343.07</ele>
  <time>2026-09-01T19:57:56Z</time>
  <course>181.73</course>
  <speed>0.0282842712474619</speed>
  <fix>3d</fix>
</trkpt>
<trkpt lat="-27.2737713" lon="151.289905">
  <ele>343.08</ele>
  <time>2026-09-01T19:57:56Z</time>
  <course>230.74</course>
  <speed>0.0</speed>
  <fix>3d</fix>
</trkpt>
<trkpt lat="-27.2737712" lon="151.2899048">
  <ele>343.07</ele>
  <time>2026-09-01T19:57:56Z</time>
  <course>181.73</course>
  <speed>0.0282842712474619</speed>
  <fix>3d</fix>
</trkpt>
<trkpt lat="-27.2737713" lon="151.289905">
  <ele>343.08</ele>
  <time>2026-09-01T19:57:56Z</time>
  <course>230.74</course>
  <speed>0.0</speed>
  <fix>3d</fix>
</trkpt>
<trkpt lat="-27.2737712" lon="151.2899048">
  <ele>343.08</ele>
  <time>2026-09-01T19:57:56Z</time>
  <course>181.72</course>
  <speed>0.0282842712474619</speed>
  <fix>3d</fix>
</trkpt>
<trkpt lat="-27.2737713" lon="151.289905">
  <ele>343.08</ele>
  <time>2026-09-01T19:57:56Z</time>
  <course>230.56</course>
  <speed>0.0</speed>
  <fix>3d</fix>
</trkpt>
<trkpt lat="-27.2737712" lon="151.2899048">
  <ele>343.08</ele>
  <time>2026-09-01T19:57:56Z</time>
  <course>181.72</course>
  <speed>0.0282842712474619</speed>
  <fix>3d</fix>
</trkpt>
<trkpt lat="-27.2737713" lon="151.289905">
  <ele>343.08</ele>
  <time>2026-09-01T19:57:56Z</time>
  <course>230.56</course>
  <speed>0.0</speed>
  <fix>3d</fix>
</trkpt>
<trkpt lat="-27.2737712" lon="151.2899048">
  <ele>343.08</ele>
  <time>2026-09-01T19:57:56Z</time>
  <course>181.72</course>
  <speed>0.0282842712474619</speed>
  <fix>3d</fix>
</trkpt>
<trkpt lat="-27.2737712" lon="151.2899048">
  <ele>343.08</ele>
  <time>2026-09-01T19:57:56Z</time>
  <course>181.72</course>
  <speed>0.0282842712474619</speed>
  <fix>3d</fix>
</trkpt>
<trkpt lat="-27.2737713" lon="151.289905">
  <ele>343.08</ele>
  <time>2026-09-01T19:57:56Z</time>
  <course>309.98</course>
  <speed>0.0</speed>
  <fix>3d</fix>
</trkpt>
<trkpt lat="-27.2737712" lon="151.2899048">
  <ele>343.08</ele>
  <time>2026-09-01T19:57:56Z</time>
  <course>181.72</course>
  <speed>0.0282842712474619</speed>
  <fix>3d</fix>
</trkpt>
<trkpt lat="-27.2737712" lon="151.2899048">
  <ele>343.08</ele>
  <time>2026-09-01T19:57:56Z</time>
  <course>181.72</course>
  <speed>0.0282842712474619</speed>
  <fix>3d</fix>
</trkpt>
<trkpt lat="-27.2737713" lon="151.289905">
  <ele>343.08</ele>
  <time>2026-09-01T19:57:56Z</time>
  <course>309.98</course>
  <speed>0.0</speed>
  <fix>3d</fix>
</trkpt>
<trkpt lat="-27.2737712" lon="151.2899048">
  <ele>343.08</ele>
  <time>2026-09-01T19:57:56Z</time>
  <course>181.72</course>
  <speed>0.0282842712474619</speed>
  <fix>3d</fix>
</trkpt>
<trkpt lat="-27.2737712" lon="151.2899048">
  <ele>343.08</ele>
  <time>2026-09-01T19:57:56Z</time>
  <course>181.72</course>
  <speed>0.0282842712474619</speed>
  <fix>3d</fix>
</trkpt>
<trkpt lat="-27.2737713" lon="151.289905">
  <ele>343.08</ele>
  <time>2026-09-01T19:57:56Z</time>
  <course>314.14</course>
  <speed>0.0</speed>
  <fix>3d</fix>
</trkpt>
<trkpt lat="-27.2737712" lon="151.2899048">
  <ele>343.08</ele>
  <time>2026-09-01T19:57:56Z</time>
  <course>181.72</course>
  <speed>0.0282842712474619</speed>
  <fix>3d</fix>
</trkpt>
<trkpt lat="-27.2737712" lon="151.2899048">
  <ele>343.08</ele>
  <time>2026-09-01T19:57:56Z</time>
  <course>181.72</course>
  <speed>0.0282842712474619</speed>
  <fix>3d</fix>
</trkpt>
<trkpt lat="-27.2737713" lon="151.289905">
  <ele>343.08</ele>
  <time>2026-09-01T19:57:56Z</time>
  <course>314.14</course>
  <speed>0.0</speed>
  <fix>3d</fix>
</trkpt>
<trkpt lat="-27.2737712" lon="151.2899048">
  <ele>343.08</ele>
  <time>2026-09-01T19:57:56Z</time>
  <course>181.72</course>
  <speed>0.0282842712474619</speed>
  <fix>3d</fix>
</trkpt>
<trkpt lat="-27.2737712" lon="151.2899048">
  <ele>343.08</ele>
  <time>2026-09-01T19:57:56Z</time>
  <course>181.71</course>
  <speed>0.0282842712474619</speed>
  <fix>3d</fix>
</trkpt>
<trkpt lat="-27.2737713" lon="151.289905">
  <ele>343.08</ele>
  <time>2026-09-01T19:57:56Z</time>
  <course>319.82</course>
  <speed>0.0</speed>
  <fix>3d</fix>
</trkpt>
<trkpt lat="-27.2737712" lon="151.2899048">
  <ele>343.08</ele>
  <time>2026-09-01T19:57:56Z</time>
  <course>181.71</course>
  <speed>0.0282842712474619</speed>
  <fix>3d</fix>
</trkpt>
<trkpt lat="-27.2737712" lon="151.2899048">
  <ele>343.08</ele>
  <time>2026-09-01T19:57:56Z</time>
  <course>181.71</course>
  <speed>0.0282842712474619</speed>
  <fix>3d</fix>
</trkpt>
<trkpt lat="-27.2737713" lon="151.289905">
  <ele>343.08</ele>
  <time>2026-09-01T19:57:56Z</time>
  <course>319.82</course>
  <speed>0.0</speed>
  <fix>3d</fix>
</trkpt>
<trkpt lat="-27.2737712" lon="151.2899048">
  <ele>343.08</ele>
  <time>2026-09-01T19:57:56Z</time>
  <course>181.71</course>
  <speed>0.0282842712474619</speed>
  <fix>3d</fix>
</trkpt>
<trkpt lat="-27.2737712" lon="151.2899048">
  <ele>343.08</ele>
  <time>2026-09-01T19:57:56Z</time>
  <course>181.71</course>
  <speed>0.0282842712474619</speed>
  <fix>3d</fix>
</trkpt>
<trkpt lat="-27.2737713" lon="151.289905">
  <ele>343.08</ele>
  <time>2026-09-01T19:57:56Z</time>
  <course>123.12</course>
  <speed>0.0</speed>
  <fix>3d</fix>
</trkpt>
<trkpt lat="-27.2737712" lon="151.2899048">
  <ele>343.08</ele>
  <time>2026-09-01T19:57:56Z</time>
  <course>181.71</course>
  <speed>0.0282842712474619</speed>
  <fix>3d</fix>
</trkpt>
<trkpt lat="-27.2737712" lon="151.2899048">
  <ele>343.08</ele>
  <time>2026-09-01T19:57:56Z</time>
  <course>181.71</course>
  <speed>0.0282842712474619</speed>
  <fix>3d</fix>
</trkpt>
<trkpt lat="-27.2737713" lon="151.289905">
  <ele>343.08</ele>
  <time>2026-09-01T19:57:56Z</time>
  <course>123.12</course>
  <speed>0.0</speed>
  <fix>3d</fix>
</trkpt>
<trkpt lat="-27.2737712" lon="151.2899048">
  <ele>343.07</ele>
  <time>2026-09-01T19:57:56Z</time>
  <course>181.71</course>
  <speed>0.0282842712474619</speed>
  <fix>3d</fix>
</trkpt>
<trkpt lat="-27.2737712" lon="151.2899048">
  <ele>343.07</ele>
  <time>2026-09-01T19:57:56Z</time>
  <course>181.71</course>
  <speed>0.0282842712474619</speed>
  <fix>3d</fix>
</trkpt>
<trkpt lat="-27.2737713" lon="151.289905">
  <ele>343.08</ele>
  <time>2026-09-01T19:57:56Z</time>
  <course>135.11</course>
  <speed>0.0</speed>
  <fix>3d</fix>
</trkpt>
<trkpt lat="-27.2737712" lon="151.2899048">
  <ele>343.07</ele>
  <time>2026-09-01T19:57:56Z</time>
  <course>181.71</course>
  <speed>0.0282842712474619</speed>
  <fix>3d</fix>
</trkpt>
<trkpt lat="-27.2737712" lon="151.2899048">
  <ele>343.07</ele>
  <time>2026-09-01T19:57:56Z</time>
  <course>181.71</course>
  <speed>0.0282842712474619</speed>
  <fix>3d</fix>
</trkpt>
<trkpt lat="-27.2737713" lon="151.289905">
  <ele>343.08</ele>
  <time>2026-09-01T19:57:56Z</time>
  <course>135.11</course>
  <speed>0.0</speed>
  <fix>3d</fix>
</trkpt>
<trkpt lat="-27.2737712" lon="151.2899048">
  <ele>343.07</ele>
  <time>2026-09-01T19:57:56Z</time>
  <course>181.71</course>
  <speed>0.0282842712474619</speed>
  <fix>3d</fix>
</trkpt>
<trkpt lat="-27.2737712" lon="151.2899048">
  <ele>343.07</ele>
  <time>2026-09-01T19:57:56Z</time>
  <course>181.7</course>
  <speed>0.0282842712474619</speed>
  <fix>3d</fix>
</trkpt>
<trkpt lat="-27.2737713" lon="151.289905">
  <ele>343.08</ele>
  <time>2026-09-01T19:57:56Z</time>
  <course>152.93</course>
  <speed>0.0</speed>
  <fix>3d</fix>
</trkpt>
<trkpt lat="-27.2737712" lon="151.2899048">
  <ele>343.07</ele>
  <time>2026-09-01T19:57:56Z</time>
  <course>181.7</course>
  <speed>0.0282842712474619</speed>
  <fix>3d</fix>
</trkpt>
<trkpt lat="-27.2737712" lon="151.2899048">
  <ele>343.08</ele>
  <time>2026-09-01T19:57:56Z</time>
  <course>181.7</course>
  <speed>0.0282842712474619</speed>
  <fix>3d</fix>
</trkpt>
<trkpt lat="-27.2737713" lon="151.289905">
  <ele>343.08</ele>
  <time>2026-09-01T19:57:56Z</time>
  <course>152.93</course>
  <speed>0.0</speed>
  <fix>3d</fix>
</trkpt>
<trkpt lat="-27.2737712" lon="151.2899048">
  <ele>343.09</ele>
  <time>2026-09-01T19:57:56Z</time>
  <course>181.7</course>
  <speed>0.0282842712474619</speed>
  <fix>3d</fix>
</trkpt>
<trkpt lat="-27.2737712" lon="151.2899048">
  <ele>343.11</ele>
  <time>2026-09-01T19:57:56Z</time>
  <course>181.7</course>
  <speed>0.0282842712474619</speed>
  <fix>3d</fix>
</trkpt>
<trkpt lat="-27.2737713" lon="151.289905">
  <ele>343.09</ele>
  <time>2026-09-01T19:57:56Z</time>
  <course>180.82</course>
  <speed>0.0</speed>
  <fix>3d</fix>
</trkpt>
<trkpt lat="-27.2737712" lon="151.2899048">
  <ele>343.12</ele>
  <time>2026-09-01T19:57:56Z</time>
  <course>181.7</course>
  <speed>0.0282842712474619</speed>
  <fix>3d</fix>
</trkpt>
<trkpt lat="-27.2737712" lon="151.2899048">
  <ele>343.16</ele>
  <time>2026-09-01T19:57:56Z</time>
  <course>181.7</course>
  <speed>0.022360679774997897</speed>
  <fix>3d</fix>
</trkpt>
<trkpt lat="-27.2737713" lon="151.289905">
  <ele>343.09</ele>
  <time>2026-09-01T19:57:56Z</time>
  <course>180.82</course>
  <speed>0.0</speed>
  <fix>3d</fix>
</trkpt>
<trkpt lat="-27.2737712" lon="151.2899048">
  <ele>343.18</ele>
  <time>2026-09-01T19:57:56Z</time>
  <course>181.7</course>
  <speed>0.022360679774997897</speed>
  <fix>3d</fix>
</trkpt>
<trkpt lat="-27.2737712" lon="151.2899048">
  <ele>343.24</ele>
  <time>2026-09-01T19:57:56Z</time>
  <course>181.71</course>
  <speed>0.02</speed>
  <fix>3d</fix>
</trkpt>
<trkpt lat="-27.2737713" lon="151.289905">
  <ele>343.18</ele>
  <time>2026-09-01T19:57:56Z</time>
  <course>174.89</course>
  <speed>0.0</speed>
  <fix>3d</fix>
</trkpt>
<trkpt lat="-27.2737712" lon="151.2899048">
  <ele>343.27</ele>
  <time>2026-09-01T19:57:56Z</time>
  <course>181.71</course>
  <speed>0.01</speed>
  <fix>3d</fix>
</trkpt>
<trkpt lat="-27.2737712" lon="151.2899048">
  <ele>343.37</ele>
  <time>2026-09-01T19:57:56Z</time>
  <course>181.72</course>
  <speed>0.022360679774997897</speed>
  <fix>3d</fix>
</trkpt>
<trkpt lat="-27.2737713" lon="151.289905">
  <ele>343.18</ele>
  <time>2026-09-01T19:57:56Z</time>
  <course>174.89</course>
  <speed>0.0</speed>
  <fix>3d</fix>
</trkpt>
<trkpt lat="-27.2737712" lon="151.2899048">
  <ele>343.42</ele>
  <time>2026-09-01T19:57:56Z</time>
  <course>181.73</course>
  <speed>0.0316227766016838</speed>
  <fix>3d</fix>
</trkpt>
<trkpt lat="-27.2737712" lon="151.2899048">
  <ele>343.58</ele>
  <time>2026-09-01T19:57:56Z</time>
  <course>181.74</course>
  <speed>0.06082762530298219</speed>
  <fix>3d</fix>
</trkpt>
<trkpt lat="-27.2737713" lon="151.289905">
  <ele>343.4</ele>
  <time>2026-09-01T19:57:56Z</time>
  <course>174.63</course>
  <speed>0.05</speed>
  <fix>3d</fix>
</trkpt>
<trkpt lat="-27.2737712" lon="151.2899048">
  <ele>343.64</ele>
  <time>2026-09-01T19:57:56Z</time>
  <course>181.74</course>
  <speed>0.07071067811865475</speed>
  <fix>3d</fix>
</trkpt>
<trkpt lat="-27.2737713" lon="151.2899048">
  <ele>343.82</ele>
  <time>2026-09-01T19:57:56Z</time>
  <course>181.74</course>
  <speed>0.1004987562112089</speed>
  <fix>3d</fix>
</trkpt>
<trkpt lat="-27.2737713" lon="151.289905">
  <ele>343.4</ele>
  <time>2026-09-01T19:57:56Z</time>
  <course>174.63</course>
  <speed>0.05</speed>
  <fix>3d</fix>
</trkpt>
<trkpt lat="-27.2737713" lon="151.2899048">
  <ele>343.83</ele>
  <time>2026-09-01T19:57:56Z</time>
  <course>181.74</course>
  <speed>0.11045361017187261</speed>
  <fix>3d</fix>
</trkpt>
<trkpt lat="-27.2737714" lon="151.2899048">
  <ele>344.09</ele>
  <time>2026-09-01T19:57:56Z</time>
  <course>181.72</course>
  <speed>0.15033296378372907</speed>
  <fix>3d</fix>
</trkpt>
<trkpt lat="-27.2737715" lon="151.289905">
  <ele>343.82</ele>
  <time>2026-09-01T19:57:56Z</time>
  <course>175.45</course>
  <speed>0.13</speed>
  <fix>3d</fix>
</trkpt>
<trkpt lat="-27.2737714" lon="151.2899048">
  <ele>344.1</ele>
  <time>2026-09-01T19:57:56Z</time>
  <course>181.72</course>
  <speed>0.15033296378372907</speed>
  <fix>3d</fix>
</trkpt>
<trkpt lat="-27.2737716" lon="151.2899048">
  <ele>344.37</ele>
  <time>2026-09-01T19:57:56Z</time>
  <course>181.68</course>
  <speed>0.19026297590440447</speed>
  <fix>3d</fix>
</trkpt>
<trkpt lat="-27.2737715" lon="151.289905">
  <ele>343.82</ele>
  <time>2026-09-01T19:57:56Z</time>
  <course>175.45</course>
  <speed>0.13</speed>
  <fix>3d</fix>
</trkpt>
<trkpt lat="-27.2737716" lon="151.2899048">
  <ele>344.38</ele>
  <time>2026-09-01T19:57:56Z</time>
  <course>181.68</course>
  <speed>0.2002498439450079</speed>
  <fix>3d</fix>
</trkpt>
<trkpt lat="-27.2737718" lon="151.2899048">
  <ele>344.67</ele>
  <time>2026-09-01T19:57:56Z</time>
  <course>181.64</course>
  <speed>0.24020824298928628</speed>
  <fix>3d</fix>
</trkpt>
<trkpt lat="-27.2737719" lon="151.289905">
  <ele>344.36</ele>
  <time>2026-09-01T19:57:56Z</time>
  <course>176.39</course>
  <speed>0.22</speed>
  <fix>3d</fix>
</trkpt>
<trkpt lat="-27.2737719" lon="151.2899048">
  <ele>344.74</ele>
  <time>2026-09-01T19:57:56Z</time>
  <course>181.63</course>
  <speed>0.2501999200639361</speed>
  <fix>3d</fix>
</trkpt>
<trkpt lat="-27.2737721" lon="151.2899048">
  <ele>344.98</ele>
  <time>2026-09-01T19:57:56Z</time>
  <course>181.6</course>
  <speed>0.280178514522438</speed>
  <fix>3d</fix>
</trkpt>
<trkpt lat="-27.2737719" lon="151.289905">
  <ele>344.36</ele>
  <time>2026-09-01T19:57:56Z</time>
  <course>176.39</course>
  <speed>0.22</speed>
  <fix>3d</fix>
</trkpt>
<trkpt lat="-27.2737721" lon="151.2899048">
  <ele>345.06</ele>
  <time>2026-09-01T19:57:56Z</time>
  <course>181.59</course>
  <speed>0.29017236257093815</speed>
  <fix>3d</fix>
</trkpt>
<trkpt lat="-27.2737724" lon="151.2899048">
  <ele>345.3</ele>
  <time>2026-09-01T19:57:56Z</time>
  <course>179.14</course>
  <speed>0.32015621187164245</speed>
  <fix>3d</fix>
</trkpt>
<trkpt lat="-27.2737723" lon="151.289905">
  <ele>344.96</ele>
  <time>2026-09-01T19:57:56Z</time>
  <course>177.19</course>
  <speed>0.31</speed>
  <fix>3d</fix>
</trkpt>
<trkpt lat="-27.2737724" lon="151.2899048">
  <ele>345.31</ele>
  <time>2026-09-01T19:57:56Z</time>
  <course>179.17</course>
  <speed>0.32015621187164245</speed>
  <fix>3d</fix>
</trkpt>
<trkpt lat="-27.2737727" lon="151.2899048">
  <ele>345.62</ele>
  <time>2026-09-01T19:57:56Z</time>
  <course>179.99</course>
  <speed>0.36</speed>
  <fix>3d</fix>
</trkpt>
<trkpt lat="-27.2737723" lon="151.289905">
  <ele>344.96</ele>
  <time>2026-09-01T19:57:56Z</time>
  <course>177.19</course>
  <speed>0.31</speed>
  <fix>3d</fix>
</trkpt>
<trkpt lat="-27.2737727" lon="151.2899048">
  <ele>345.63</ele>
  <time>2026-09-01T19:57:56Z</time>
  <course>180.02</course>
  <speed>0.36013886210738216</speed>
  <fix>3d</fix>
</trkpt>
<trkpt lat="-27.2737731" lon="151.2899048">
  <ele>345.94</ele>
  <time>2026-09-01T19:57:56Z</time>
  <course>180.56</course>
  <speed>0.3901281840626232</speed>
  <fix>3d</fix>
</trkpt>
<trkpt lat="-27.2737729" lon="151.289905">
  <ele>345.59</ele>
  <time>2026-09-01T19:57:56Z</time>
  <course>177.77</course>
  <speed>0.38</speed>
  <fix>3d</fix>
</trkpt>
<trkpt lat="-27.2737731" lon="151.2899048">
  <ele>346.02</ele>
  <time>2026-09-01T19:57:56Z</time>
  <course>180.62</course>
  <speed>0.3901281840626232</speed>
  <fix>3d</fix>
</trkpt>
<trkpt lat="-27.2737734" lon="151.2899048">
  <ele>346.27</ele>
  <time>2026-09-01T19:57:56Z</time>
  <course>180.59</course>
  <speed>0.41012193308819755</speed>
  <fix>3d</fix>
</trkpt>
<trkpt lat="-27.2737729" lon="151.289905">
  <ele>345.59</ele>
  <time>2026-09-01T19:57:56Z</time>
  <course>177.77</course>
  <speed>0.38</speed>
  <fix>3d</fix>
</trkpt>
<trkpt lat="-27.2737735" lon="151.2899049">
  <ele>346.34</ele>
  <time>2026-09-01T19:57:56Z</time>
  <course>180.54</course>
  <speed>0.41012193308819755</speed>
  <fix>3d</fix>
</trkpt>
<trkpt lat="-27.2737738" lon="151.2899048">
  <ele>346.57</ele>
  <time>2026-09-01T19:57:56Z</time>
  <course>180.26</course>
  <speed>0.4201190307520001</speed>
  <fix>3d</fix>
</trkpt>
<trkpt lat="-27.2737737" lon="151.289905">
  <ele>346.23</ele>
  <time>2026-09-01T19:57:56Z</time>
  <course>178.04</course>
  <speed>0.43</speed>
  <fix>3d</fix>
</trkpt>
<trkpt lat="-27.2737739" lon="151.2899049">
  <ele>346.65</ele>
  <time>2026-09-01T19:57:56Z</time>
  <course>180.14</course>
  <speed>0.4301162633521314</speed>
  <fix>3d</fix>
</trkpt>
<trkpt lat="-27.2737743" lon="151.2899049">
  <ele>346.87</ele>
  <time>2026-09-01T19:57:56Z</time>
  <course>179.77</course>
  <speed>0.4301162633521314</speed>
  <fix>3d</fix>
</trkpt>
<trkpt lat="-27.2737737" lon="151.289905">
  <ele>346.23</ele>
  <time>2026-09-01T19:57:56Z</time>
  <course>178.04</course>
  <speed>0.43</speed>
  <fix>3d</fix>
</trkpt>
<trkpt lat="-27.2737744" lon="151.2899049">
  <ele>346.94</ele>
  <time>2026-09-01T19:57:56Z</time>
  <course>179.64</course>
  <speed>0.4301162633521314</speed>
  <fix>3d</fix>
</trkpt>
<trkpt lat="-27.2737747" lon="151.2899049">
  <ele>347.14</ele>
  <time>2026-09-01T19:57:56Z</time>
  <course>179.32</course>
  <speed>0.4301162633521314</speed>
  <fix>3d</fix>
</trkpt>
<trkpt lat="-27.2737745" lon="151.289905">
  <ele>346.82</ele>
  <time>2026-09-01T19:57:56Z</time>
  <course>177.95</course>
  <speed>0.45</speed>
  <fix>3d</fix>
</trkpt>
<trkpt lat="-27.2737748" lon="151.2899049">
  <ele>347.19</ele>
  <time>2026-09-01T19:57:56Z</time>
  <course>179.22</course>
  <speed>0.4301162633521314</speed>
  <fix>3d</fix>
</trkpt>
<trkpt lat="-27.2737751" lon="151.2899049">
  <ele>347.38</ele>
  <time>2026-09-01T19:57:56Z</time>
  <course>178.95</course>
  <speed>0.42</speed>
  <fix>3d</fix>
</trkpt>
<trkpt lat="-27.2737745" lon="151.289905">
  <ele>346.82</ele>
  <time>2026-09-01T19:57:56Z</time>
  <course>177.95</course>
  <speed>0.45</speed>
  <fix>3d</fix>
</trkpt>
<trkpt lat="-27.2737752" lon="151.2899049">
  <ele>347.43</ele>
  <time>2026-09-01T19:57:56Z</time>
  <course>178.88</course>
  <speed>0.42</speed>
  <fix>3d</fix>
</trkpt>
<trkpt lat="-27.2737755" lon="151.2899049">
  <ele>347.6</ele>
  <time>2026-09-01T19:57:56Z</time>
  <course>178.72</course>
  <speed>0.4</speed>
  <fix>3d</fix>
</trkpt>
<trkpt lat="-27.2737754" lon="151.289905">
  <ele>347.33</ele>
  <time>2026-09-01T19:57:56Z</time>
  <course>177.53</course>
  <speed>0.44</speed>
  <fix>3d</fix>
</trkpt>
<trkpt lat="-27.2737756" lon="151.2899049">
  <ele>347.65</ele>
  <time>2026-09-01T19:57:56Z</time>
  <course>178.67</course>
  <speed>0.4</speed>
  <fix>3d</fix>
</trkpt>
<trkpt lat="-27.2737758" lon="151.2899049">
  <ele>347.78</ele>
  <time>2026-09-01T19:57:56Z</time>
  <course>178.58</course>
  <speed>0.38</speed>
  <fix>3d</fix>
</trkpt>
<trkpt lat="-27.2737754" lon="151.289905">
  <ele>347.33</ele>
  <time>2026-09-01T19:57:56Z</time>
  <course>177.53</course>
  <speed>0.44</speed>
  <fix>3d</fix>
</trkpt>
<trkpt lat="-27.2737759" lon="151.2899049">
  <ele>347.82</ele>
  <time>2026-09-01T19:57:56Z</time>
  <course>178.57</course>
  <speed>0.37</speed>
  <fix>3d</fix>
</trkpt>
<trkpt lat="-27.2737762" lon="151.2899049">
  <ele>347.94</ele>
  <time>2026-09-01T19:57:56Z</time>
  <course>178.55</course>
  <speed>0.35</speed>
  <fix>3d</fix>
</trkpt>
<trkpt lat="-27.2737761" lon="151.2899051">
  <ele>347.72</ele>
  <time>2026-09-01T19:57:56Z</time>
  <course>176.8</course>
  <speed>0.4</speed>
  <fix>3d</fix>
</trkpt>
<trkpt lat="-27.2737763" lon="151.2899049">
  <ele>347.97</ele>
  <time>2026-09-01T19:57:56Z</time>
  <course>178.56</course>
  <speed>0.34</speed>
  <fix>3d</fix>
</trkpt>
<trkpt lat="-27.2737765" lon="151.2899049">
  <ele>348.06</ele>
  <time>2026-09-01T19:57:56Z</time>
  <course>178.58</course>
  <speed>0.31</speed>
  <fix>3d</fix>
</trkpt>
<trkpt lat="-27.2737761" lon="151.2899051">
  <ele>347.72</ele>
  <time>2026-09-01T19:57:56Z</time>
  <course>176.8</course>
  <speed>0.4</speed>
  <fix>3d</fix>
</trkpt>
<trkpt lat="-27.2737765" lon="151.2899049">
  <ele>348.06</ele>
  <time>2026-09-01T19:57:56Z</time>
  <course>178.58</course>
  <speed>0.31</speed>
  <fix>3d</fix>
</trkpt>
<trkpt lat="-27.2737768" lon="151.2899049">
  <ele>348.14</ele>
  <time>2026-09-01T19:57:56Z</time>
  <course>178.67</course>
  <speed>0.28</speed>
  <fix>3d</fix>
</trkpt>
<trkpt lat="-27.2737768" lon="151.2899051">
  <ele>348.0</ele>
  <time>2026-09-01T19:57:56Z</time>
  <course>175.64</course>
  <speed>0.34</speed>
  <fix>3d</fix>
</trkpt>
<trkpt lat="-27.2737768" lon="151.2899049">
  <ele>348.15</ele>
  <time>2026-09-01T19:57:56Z</time>
  <course>178.67</course>
  <speed>0.27</speed>
  <fix>3d</fix>
</trkpt>
<trkpt lat="-27.2737771" lon="151.289905">
  <ele>348.2</ele>
  <time>2026-09-01T19:57:56Z</time>
  <course>178.78</course>
  <speed>0.23</speed>
  <fix>3d</fix>
</trkpt>
<trkpt lat="-27.2737768" lon="151.2899051">
  <ele>348.0</ele>
  <time>2026-09-01T19:57:56Z</time>
  <course>175.64</course>
  <speed>0.34</speed>
  <fix>3d</fix>
</trkpt>
<trkpt lat="-27.2737771" lon="151.289905">
  <ele>348.21</ele>
  <time>2026-09-01T19:57:56Z</time>
  <course>178.81</course>
  <speed>0.22</speed>
  <fix>3d</fix>
</trkpt>
<trkpt lat="-27.2737773" lon="151.289905">
  <ele>348.23</ele>
  <time>2026-09-01T19:57:56Z</time>
  <course>178.91</course>
  <speed>0.19</speed>
  <fix>3d</fix>
</trkpt>
<trkpt lat="-27.2737773" lon="151.2899052">
  <ele>348.14</ele>
  <time>2026-09-01T19:57:56Z</time>
  <course>173.55</course>
  <speed>0.25</speed>
  <fix>3d</fix>
</trkpt>
<trkpt lat="-27.2737773" lon="151.289905">
  <ele>348.23</ele>
  <time>2026-09-01T19:57:56Z</time>
  <course>178.95</course>
  <speed>0.18</speed>
  <fix>3d</fix>
</trkpt>
<trkpt lat="-27.2737775" lon="151.289905">
  <ele>348.23</ele>
  <time>2026-09-01T19:57:56Z</time>
  <course>179.04</course>
  <speed>0.14</speed>
  <fix>3d</fix>
</trkpt>
<trkpt lat="-27.2737773" lon="151.2899052">
  <ele>348.14</ele>
  <time>2026-09-01T19:57:56Z</time>
  <course>173.55</course>
  <speed>0.25</speed>
  <fix>3d</fix>
</trkpt>
<trkpt lat="-27.2737775" lon="151.289905">
  <ele>348.23</ele>
  <time>2026-09-01T19:57:56Z</time>
  <course>179.06</course>
  <speed>0.13</speed>
  <fix>3d</fix>
</trkpt>
<trkpt lat="-27.2737776" lon="151.289905">
  <ele>348.22</ele>
  <time>2026-09-01T19:57:56Z</time>
  <course>179.15</course>
  <speed>0.09</speed>
  <fix>3d</fix>
</trkpt>
<trkpt lat="-27.2737777" lon="151.2899052">
  <ele>348.18</ele>
  <time>2026-09-01T19:57:56Z</time>
  <course>168.9</course>
  <speed>0.16</speed>
  <fix>3d</fix>
</trkpt>
<trkpt lat="-27.2737776" lon="151.2899051">
  <ele>348.21</ele>
  <time>2026-09-01T19:57:56Z</time>
  <course>179.17</course>
  <speed>0.08</speed>
  <fix>3d</fix>
</trkpt>
<trkpt lat="-27.2737777" lon="151.2899051">
  <ele>348.19</ele>
  <time>2026-09-01T19:57:56Z</time>
  <course>179.22</course>
  <speed>0.04</speed>
  <fix>3d</fix>
</trkpt>
<trkpt lat="-27.2737777" lon="151.2899052">
  <ele>348.18</ele>
  <time>2026-09-01T19:57:56Z</time>
  <course>168.9</course>
  <speed>0.16</speed>
  <fix>3d</fix>
</trkpt>
<trkpt lat="-27.2737777" lon="151.2899051">
  <ele>348.18</ele>
  <time>2026-09-01T19:57:56Z</time>
  <course>179.24</course>
  <speed>0.02</speed>
  <fix>3d</fix>
</trkpt>
<trkpt lat="-27.2737777" lon="151.2899051">
  <ele>348.15</ele>
  <time>2026-09-01T19:57:56Z</time>
  <course>179.25</course>
  <speed>0.01</speed>
  <fix>3d</fix>
</trkpt>
<trkpt lat="-27.2737779" lon="151.2899053">
  <ele>348.14</ele>
  <time>2026-09-01T19:57:56Z</time>
  <course>150.99</course>
  <speed>0.06</speed>
  <fix>3d</fix>
</trkpt>
<trkpt lat="-27.2737777" lon="151.2899051">
  <ele>348.14</ele>
  <time>2026-09-01T19:57:56Z</time>
  <course>179.25</course>
  <speed>0.02</speed>
  <fix>3d</fix>
</trkpt>
<trkpt lat="-27.2737777" lon="151.2899051">
  <ele>348.1</ele>
  <time>2026-09-01T19:57:56Z</time>
  <course>179.21</course>
  <speed>0.07</speed>
  <fix>3d</fix>
</trkpt>
<trkpt lat="-27.2737779" lon="151.2899053">
  <ele>348.14</ele>
  <time>2026-09-01T19:57:56Z</time>
  <course>150.99</course>
  <speed>0.06</speed>
  <fix>3d</fix>
</trkpt>
<trkpt lat="-27.2737777" lon="151.2899051">
  <ele>348.08</ele>
  <time>2026-09-01T19:57:56Z</time>
  <course>179.19</course>
  <speed>0.08</speed>
  <fix>3d</fix>
</trkpt>
<trkpt lat="-27.2737777" lon="151.2899052">
  <ele>348.05</ele>
  <time>2026-09-01T19:57:56Z</time>
  <course>179.11</course>
  <speed>0.12</speed>
  <fix>3d</fix>
</trkpt>
<trkpt lat="-27.2737779" lon="151.2899053">
  <ele>348.05</ele>
  <time>2026-09-01T19:57:56Z</time>
  <course>32.9</course>
  <speed>0.05</speed>
  <fix>3d</fix>
</trkpt>
<trkpt lat="-27.2737777" lon="151.2899052">
  <ele>348.04</ele>
  <time>2026-09-01T19:57:56Z</time>
  <course>179.08</course>
  <speed>0.13</speed>
  <fix>3d</fix>
</trkpt>
<trkpt lat="-27.2737776" lon="151.2899052">
  <ele>348.0</ele>
  <time>2026-09-01T19:57:56Z</time>
  <course>178.97</course>
  <speed>0.17</speed>
  <fix>3d</fix>
</trkpt>
<trkpt lat="-27.2737779" lon="151.2899053">
  <ele>348.05</ele>
  <time>2026-09-01T19:57:56Z</time>
  <course>32.9</course>
  <speed>0.05</speed>
  <fix>3d</fix>
</trkpt>
<trkpt lat="-27.2737776" lon="151.2899052">
  <ele>348.0</ele>
  <time>2026-09-01T19:57:56Z</time>
  <course>178.97</course>
  <speed>0.17</speed>
  <fix>3d</fix>
</trkpt>
<trkpt lat="-27.2737774" lon="151.2899052">
  <ele>347.96</ele>
  <time>2026-09-01T19:57:56Z</time>
  <course>178.83</course>
  <speed>0.22</speed>
  <fix>3d</fix>
</trkpt>
<trkpt lat="-27.2737777" lon="151.2899054">
  <ele>347.96</ele>
  <time>2026-09-01T19:57:56Z</time>
  <course>8.88</course>
  <speed>0.15</speed>
  <fix>3d</fix>
</trkpt>
<trkpt lat="-27.2737774" lon="151.2899052">
  <ele>347.96</ele>
  <time>2026-09-01T19:57:56Z</time>
  <course>178.83</course>
  <speed>0.22</speed>
  <fix>3d</fix>
</trkpt>
<trkpt lat="-27.2737772" lon="151.2899052">
  <ele>347.93</ele>
  <time>2026-09-01T19:57:56Z</time>
  <course>178.73</course>
  <speed>0.27</speed>
  <fix>3d</fix>
</trkpt>
<trkpt lat="-27.2737777" lon="151.2899054">
  <ele>347.96</ele>
  <time>2026-09-01T19:57:56Z</time>
  <course>8.88</course>
  <speed>0.15</speed>
  <fix>3d</fix>
</trkpt>
<trkpt lat="-27.2737772" lon="151.2899052">
  <ele>347.92</ele>
  <time>2026-09-01T19:57:56Z</time>
  <course>178.72</course>
  <speed>0.28</speed>
  <fix>3d</fix>
</trkpt>
<trkpt lat="-27.273777" lon="151.2899052">
  <ele>347.9</ele>
  <time>2026-09-01T19:57:56Z</time>
  <course>178.68</course>
  <speed>0.31</speed>
  <fix>3d</fix>
</trkpt>
<trkpt lat="-27.2737774" lon="151.2899055">
  <ele>347.89</ele>
  <time>2026-09-01T19:57:56Z</time>
  <course>4.14</course>
  <speed>0.24</speed>
  <fix>3d</fix>
</trkpt>
<trkpt lat="-27.273777" lon="151.2899052">
  <ele>347.9</ele>
  <time>2026-09-01T19:57:56Z</time>
  <course>178.68</course>
  <speed>0.3101612483854165</speed>
  <fix>3d</fix>
</trkpt>
<trkpt lat="-27.2737767" lon="151.2899053">
  <ele>347.88</ele>
  <time>2026-09-01T19:57:56Z</time>
  <course>178.69</course>
  <speed>0.340147027033899</speed>
  <fix>3d</fix>
</trkpt>
<trkpt lat="-27.2737774" lon="151.2899055">
  <ele>347.89</ele>
  <time>2026-09-01T19:57:56Z</time>
  <course>4.14</course>
  <speed>0.24</speed>
  <fix>3d</fix>
</trkpt>
<trkpt lat="-27.2737767" lon="151.2899053">
  <ele>347.88</ele>
  <time>2026-09-01T19:57:56Z</time>
  <course>178.69</course>
  <speed>0.340147027033899</speed>
  <fix>3d</fix>
</trkpt>
<trkpt lat="-27.2737764" lon="151.2899053">
  <ele>347.88</ele>
  <time>2026-09-01T19:57:56Z</time>
  <course>178.73</course>
  <speed>0.37013511046643494</speed>
  <fix>3d</fix>
</trkpt>
<trkpt lat="-27.273777" lon="151.2899055">
  <ele>347.84</ele>
  <time>2026-09-01T19:57:56Z</time>
  <course>2.44</course>
  <speed>0.32</speed>
  <fix>3d</fix>
</trkpt>
<trkpt lat="-27.2737763" lon="151.2899053">
  <ele>347.88</ele>
  <time>2026-09-01T19:57:56Z</time>
  <course>178.75</course>
  <speed>0.38013155617496425</speed>
  <fix>3d</fix>
</trkpt>
<trkpt lat="-27.2737761" lon="151.2899053">
  <ele>347.88</ele>
  <time>2026-09-01T19:57:56Z</time>
  <course>178.81</course>
  <speed>0.3901281840626232</speed>
  <fix>3d</fix>
</trkpt>
<trkpt lat="-27.273777" lon="151.2899055">
  <ele>347.84</ele>
  <time>2026-09-01T19:57:56Z</time>
  <course>2.44</course>
  <speed>0.32</speed>
  <fix>3d</fix>
</trkpt>
<trkpt lat="-27.273776" lon="151.2899053">
  <ele>347.88</ele>
  <time>2026-09-01T19:57:56Z</time>
  <course>178.83</course>
  <speed>0.4001249804748511</speed>
  <fix>3d</fix>
</trkpt>
<trkpt lat="-27.2737757" lon="151.2899053">
  <ele>347.89</ele>
  <time>2026-09-01T19:57:56Z</time>
  <course>178.88</course>
  <speed>0.41012193308819755</speed>
  <fix>3d</fix>
</trkpt>
<trkpt lat="-27.2737763" lon="151.2899056">
  <ele>347.84</ele>
  <time>2026-09-01T19:57:56Z</time>
  <course>1.45</course>
  <speed>0.37</speed>
  <fix>3d</fix>
</trkpt>
<trkpt lat="-27.2737756" lon="151.2899053">
  <ele>347.89</ele>
  <time>2026-09-01T19:57:56Z</time>
  <course>178.9</course>
  <speed>0.4201190307520001</speed>
  <fix>3d</fix>
</trkpt>
<trkpt lat="-27.2737754" lon="151.2899053">
  <ele>347.9</ele>
  <time>2026-09-01T19:57:56Z</time>
  <course>178.93</course>
  <speed>0.4301162633521314</speed>
  <fix>3d</fix>
</trkpt>
<trkpt lat="-27.2737763" lon="151.2899056">
  <ele>347.84</ele>
  <time>2026-09-01T19:57:56Z</time>
  <course>1.45</course>
  <speed>0.37</speed>
  <fix>3d</fix>
</trkpt>
<trkpt lat="-27.2737753" lon="151.2899053">
  <ele>347.9</ele>
  <time>2026-09-01T19:57:56Z</time>
  <course>178.93</course>
  <speed>0.4301162633521314</speed>
  <fix>3d</fix>
</trkpt>
<trkpt lat="-27.273775" lon="151.2899053">
  <ele>347.92</ele>
  <time>2026-09-01T19:57:56Z</time>
  <course>178.94</course>
  <speed>0.44011362169330775</speed>
  <fix>3d</fix>
</trkpt>
<trkpt lat="-27.2737756" lon="151.2899056">
  <ele>347.87</ele>
  <time>2026-09-01T19:57:56Z</time>
  <course>0.43</course>
  <speed>0.41</speed>
  <fix>3d</fix>
</trkpt>
<trkpt lat="-27.2737749" lon="151.2899054">
  <ele>347.92</ele>
  <time>2026-09-01T19:57:56Z</time>
  <course>178.94</course>
  <speed>0.44011362169330775</speed>
  <fix>3d</fix>
</trkpt>
<trkpt lat="-27.2737746" lon="151.2899054">
  <ele>347.94</ele>
  <time>2026-09-01T19:57:56Z</time>
  <course>178.92</course>
  <speed>0.45044422518220834</speed>
  <fix>3d</fix>
</trkpt>
<trkpt lat="-27.2737756" lon="151.2899056">
  <ele>347.87</ele>
  <time>2026-09-01T19:57:56Z</time>
  <course>0.43</course>
  <speed>0.41</speed>
  <fix>3d</fix>
</trkpt>
<trkpt lat="-27.2737745" lon="151.2899054">
  <ele>347.95</ele>
  <time>2026-09-01T19:57:56Z</time>
  <course>178.91</course>
  <speed>0.45044422518220834</speed>
  <fix>3d</fix>
</trkpt>
<trkpt lat="-27.2737743" lon="151.2899054">
  <ele>347.96</ele>
  <time>2026-09-01T19:57:56Z</time>
  <course>178.91</course>
  <speed>0.45044422518220834</speed>
  <fix>3d</fix>
</trkpt>
<trkpt lat="-27.2737749" lon="151.2899056">
  <ele>347.91</ele>
  <time>2026-09-01T19:57:56Z</time>
  <course>359.63</course>
  <speed>0.43</speed>
  <fix>3d</fix>
</trkpt>
<trkpt lat="-27.2737742" lon="151.2899054">
  <ele>347.96</ele>
  <time>2026-09-01T19:57:56Z</time>
  <course>178.91</course>
  <speed>0.45044422518220834</speed>
  <fix>3d</fix>
</trkpt>
<trkpt lat="-27.2737739" lon="151.2899054">
  <ele>347.99</ele>
  <time>2026-09-01T19:57:56Z</time>
  <course>178.95</course>
  <speed>0.450111097397076</speed>
  <fix>3d</fix>
</trkpt>
<trkpt lat="-27.2737749" lon="151.2899056">
  <ele>347.91</ele>
  <time>2026-09-01T19:57:56Z</time>
  <course>359.63</course>
  <speed>0.43</speed>
  <fix>3d</fix>
</trkpt>
<trkpt lat="-27.2737739" lon="151.2899054">
  <ele>347.99</ele>
  <time>2026-09-01T19:57:56Z</time>
  <course>178.95</course>
  <speed>0.450111097397076</speed>
  <fix>3d</fix>
</trkpt>
<trkpt lat="-27.2737735" lon="151.2899054">
  <ele>348.01</ele>
  <time>2026-09-01T19:57:56Z</time>
  <course>179.02</course>
  <speed>0.450111097397076</speed>
  <fix>3d</fix>
</trkpt>
<trkpt lat="-27.2737741" lon="151.2899056">
  <ele>347.96</ele>
  <time>2026-09-01T19:57:56Z</time>
  <course>359.42</course>
  <speed>0.43</speed>
  <fix>3d</fix>
</trkpt>
<trkpt lat="-27.2737734" lon="151.2899054">
  <ele>348.02</ele>
  <time>2026-09-01T19:57:56Z</time>
  <course>179.05</course>
  <speed>0.450111097397076</speed>
  <fix>3d</fix>
</trkpt>
<trkpt lat="-27.2737731" lon="151.2899054">
  <ele>348.03</ele>
  <time>2026-09-01T19:57:56Z</time>
  <course>179.11</course>
  <speed>0.450111097397076</speed>
  <fix>3d</fix>
</trkpt>
<trkpt lat="-27.2737741" lon="151.2899056">
  <ele>347.96</ele>
  <time>2026-09-01T19:57:56Z</time>
  <course>359.42</course>
  <speed>0.43</speed>
  <fix>3d</fix>
</trkpt>
<trkpt lat="-27.273773" lon="151.2899054">
  <ele>348.03</ele>
  <time>2026-09-01T19:57:56Z</time>
  <course>179.14</course>
  <speed>0.450111097397076</speed>
  <fix>3d</fix>
</trkpt>
<trkpt lat="-27.2737727" lon="151.2899054">
  <ele>348.04</ele>
  <time>2026-09-01T19:57:56Z</time>
  <course>179.21</course>
  <speed>0.44011362169330775</speed>
  <fix>3d</fix>
</trkpt>
<trkpt lat="-27.2737733" lon="151.2899056">
  <ele>348.01</ele>
  <time>2026-09-01T19:57:56Z</time>
  <course>359.56</course>
  <speed>0.43</speed>
  <fix>3d</fix>
</trkpt>
<trkpt lat="-27.2737726" lon="151.2899054">
  <ele>348.05</ele>
  <time>2026-09-01T19:57:56Z</time>
  <course>179.23</course>
  <speed>0.44011362169330775</speed>
  <fix>3d</fix>
</trkpt>
<trkpt lat="-27.2737724" lon="151.2899054">
  <ele>348.06</ele>
  <time>2026-09-01T19:57:56Z</time>
  <course>179.3</course>
  <speed>0.44011362169330775</speed>
  <fix>3d</fix>
</trkpt>
<trkpt lat="-27.2737733" lon="151.2899056">
  <ele>348.01</ele>
  <time>2026-09-01T19:57:56Z</time>
  <course>359.56</course>
  <speed>0.43</speed>
  <fix>3d</fix>
</trkpt>
<trkpt lat="-27.2737723" lon="151.2899054">
  <ele>348.06</ele>
  <time>2026-09-01T19:57:56Z</time>
  <course>179.33</course>
  <speed>0.43</speed>
  <fix>3d</fix>
</trkpt>
<trkpt lat="-27.273772" lon="151.2899054">
  <ele>348.07</ele>
  <time>2026-09-01T19:57:56Z</time>
  <course>179.38</course>
  <speed>0.43</speed>
  <fix>3d</fix>
</trkpt>
<trkpt lat="-27.2737725" lon="151.2899056">
  <ele>348.03</ele>
  <time>2026-09-01T19:57:56Z</time>
  <course>359.74</course>
  <speed>0.42</speed>
  <fix>3d</fix>
</trkpt>
<trkpt lat="-27.2737719" lon="151.2899054">
  <ele>348.07</ele>
  <time>2026-09-01T19:57:56Z</time>
  <course>179.4</course>
  <speed>0.42</speed>
  <fix>3d</fix>
</trkpt>
<trkpt lat="-27.2737716" lon="151.2899054">
  <ele>348.08</ele>
  <time>2026-09-01T19:57:56Z</time>
  <course>179.44</course>
  <speed>0.42</speed>
  <fix>3d</fix>
</trkpt>
<trkpt lat="-27.2737725" lon="151.2899056">
  <ele>348.03</ele>
  <time>2026-09-01T19:57:56Z</time>
  <course>359.74</course>
  <speed>0.42</speed>
  <fix>3d</fix>
</trkpt>
<trkpt lat="-27.2737716" lon="151.2899054">
  <ele>348.08</ele>
  <time>2026-09-01T19:57:56Z</time>
  <course>179.44</course>
  <speed>0.41</speed>
  <fix>3d</fix>
</trkpt>
<trkpt lat="-27.2737713" lon="151.2899054">
  <ele>348.08</ele>
  <time>2026-09-01T19:57:56Z</time>
  <course>179.47</course>
  <speed>0.4</speed>
  <fix>3d</fix>
</trkpt>
<trkpt lat="-27.2737718" lon="151.2899056">
  <ele>348.06</ele>
  <time>2026-09-01T19:57:56Z</time>
  <course>359.88</course>
  <speed>0.4</speed>
  <fix>3d</fix>
</trkpt>
<trkpt lat="-27.2737713" lon="151.2899054">
  <ele>348.08</ele>
  <time>2026-09-01T19:57:56Z</time>
  <course>179.47</course>
  <speed>0.4</speed>
  <fix>3d</fix>
</trkpt>
<trkpt lat="-27.2737709" lon="151.2899054">
  <ele>348.08</ele>
  <time>2026-09-01T19:57:56Z</time>
  <course>179.47</course>
  <speed>0.39</speed>
  <fix>3d</fix>
</trkpt>
<trkpt lat="-27.2737718" lon="151.2899056">
  <ele>348.06</ele>
  <time>2026-09-01T19:57:56Z</time>
  <course>359.88</course>
  <speed>0.4</speed>
  <fix>3d</fix>
</trkpt>
<trkpt lat="-27.2737709" lon="151.2899054">
  <ele>348.08</ele>
  <time>2026-09-01T19:57:56Z</time>
  <course>179.47</course>
  <speed>0.39</speed>
  <fix>3d</fix>
</trkpt>
<trkpt lat="-27.2737706" lon="151.2899054">
  <ele>348.08</ele>
  <time>2026-09-01T19:57:56Z</time>
  <course>179.47</course>
  <speed>0.37</speed>
  <fix>3d</fix>
</trkpt>
<trkpt lat="-27.273771" lon="151.2899056">
  <ele>348.07</ele>
  <time>2026-09-01T19:57:56Z</time>
  <course>359.93</course>
  <speed>0.37</speed>
  <fix>3d</fix>
</trkpt>
<trkpt lat="-27.2737706" lon="151.2899054">
  <ele>348.08</ele>
  <time>2026-09-01T19:57:56Z</time>
  <course>179.47</course>
  <speed>0.37</speed>
  <fix>3d</fix>
</trkpt>
<trkpt lat="-27.2737703" lon="151.2899055">
  <ele>348.08</ele>
  <time>2026-09-01T19:57:56Z</time>
  <course>179.44</course>
  <speed>0.36</speed>
  <fix>3d</fix>
</trkpt>
<trkpt lat="-27.273771" lon="151.2899056">
  <ele>348.07</ele>
  <time>2026-09-01T19:57:56Z</time>
  <course>359.93</course>
  <speed>0.37</speed>
  <fix>3d</fix>
</trkpt>
<trkpt lat="-27.2737703" lon="151.2899055">
  <ele>348.08</ele>
  <time>2026-09-01T19:57:56Z</time>
  <course>179.44</course>
  <speed>0.36</speed>
  <fix>3d</fix>
</trkpt>
<trkpt lat="-27.27377" lon="151.2899055">
  <ele>348.07</ele>
  <time>2026-09-01T19:57:56Z</time>
  <course>179.41</course>
  <speed>0.34</speed>
  <fix>3d</fix>
</trkpt>
<trkpt lat="-27.2737704" lon="151.2899056">
  <ele>348.06</ele>
  <time>2026-09-01T19:57:56Z</time>
  <course>359.76</course>
  <speed>0.34</speed>
  <fix>3d</fix>
</trkpt>
<trkpt lat="-27.27377" lon="151.2899055">
  <ele>348.07</ele>
  <time>2026-09-01T19:57:56Z</time>
  <course>179.41</course>
  <speed>0.34</speed>
  <fix>3d</fix>
</trkpt>
<trkpt lat="-27.2737697" lon="151.2899055">
  <ele>348.06</ele>
  <time>2026-09-01T19:57:56Z</time>
  <course>179.36</course>
  <speed>0.33</speed>
  <fix>3d</fix>
</trkpt>
<trkpt lat="-27.2737704" lon="151.2899056">
  <ele>348.06</ele>
  <time>2026-09-01T19:57:56Z</time>
  <course>359.76</course>
  <speed>0.34</speed>
  <fix>3d</fix>
</trkpt>
<trkpt lat="-27.2737697" lon="151.2899055">
  <ele>348.06</ele>
  <time>2026-09-01T19:57:56Z</time>
  <course>179.36</course>
  <speed>0.33</speed>
  <fix>3d</fix>
</trkpt>
<trkpt lat="-27.2737694" lon="151.2899055">
  <ele>348.06</ele>
  <time>2026-09-01T19:57:56Z</time>
  <course>179.32</course>
  <speed>0.31</speed>
  <fix>3d</fix>
</trkpt>
<trkpt lat="-27.2737698" lon="151.2899056">
  <ele>348.06</ele>
  <time>2026-09-01T19:57:56Z</time>
  <course>359.28</course>
  <speed>0.31</speed>
  <fix>3d</fix>
</trkpt>
<trkpt lat="-27.2737693" lon="151.2899055">
  <ele>348.05</ele>
  <time>2026-09-01T19:57:56Z</time>
  <course>179.31</course>
  <speed>0.31</speed>
  <fix>3d</fix>
</trkpt>
<trkpt lat="-27.2737692" lon="151.2899055">
  <ele>348.05</ele>
  <time>2026-09-01T19:57:56Z</time>
  <course>179.28</course>
  <speed>0.3</speed>
  <fix>3d</fix>
</trkpt>
<trkpt lat="-27.2737698" lon="151.2899056">
  <ele>348.06</ele>
  <time>2026-09-01T19:57:56Z</time>
  <course>359.28</course>
  <speed>0.31</speed>
  <fix>3d</fix>
</trkpt>
<trkpt lat="-27.2737691" lon="151.2899055">
  <ele>348.05</ele>
  <time>2026-09-01T19:57:56Z</time>
  <course>179.27</course>
  <speed>0.29017236257093815</speed>
  <fix>3d</fix>
</trkpt>
<trkpt lat="-27.2737689" lon="151.2899055">
  <ele>348.04</ele>
  <time>2026-09-01T19:57:56Z</time>
  <course>179.25</course>
  <speed>0.280178514522438</speed>
  <fix>3d</fix>
</trkpt>
<trkpt lat="-27.2737692" lon="151.2899056">
  <ele>348.05</ele>
  <time>2026-09-01T19:57:56Z</time>
  <course>358.47</course>
  <speed>0.28</speed>
  <fix>3d</fix>
</trkpt>
<trkpt lat="-27.2737688" lon="151.2899055">
  <ele>348.04</ele>
  <time>2026-09-01T19:57:56Z</time>
  <course>179.24</course>
  <speed>0.280178514522438</speed>
  <fix>3d</fix>
</trkpt>
<trkpt lat="-27.2737687" lon="151.2899055">
  <ele>348.04</ele>
  <time>2026-09-01T19:57:56Z</time>
  <course>179.22</course>
  <speed>0.2601922366251538</speed>
  <fix>3d</fix>
</trkpt>
<trkpt lat="-27.2737692" lon="151.2899056">
  <ele>348.05</ele>
  <time>2026-09-01T19:57:56Z</time>
  <course>358.47</course>
  <speed>0.28</speed>
  <fix>3d</fix>
</trkpt>
<trkpt lat="-27.2737686" lon="151.2899055">
  <ele>348.04</ele>
  <time>2026-09-01T19:57:56Z</time>
  <course>179.21</course>
  <speed>0.2601922366251538</speed>
  <fix>3d</fix>
</trkpt>
<trkpt lat="-27.2737685" lon="151.2899055">
  <ele>348.04</ele>
  <time>2026-09-01T19:57:56Z</time>
  <course>179.2</course>
  <speed>0.2501999200639361</speed>
  <fix>3d</fix>
</trkpt>
<trkpt lat="-27.2737688" lon="151.2899056">
  <ele>348.04</ele>
  <time>2026-09-01T19:57:56Z</time>
  <course>357.28</course>
  <speed>0.25</speed>
  <fix>3d</fix>
</trkpt>
<trkpt lat="-27.2737684" lon="151.2899055">
  <ele>348.03</ele>
  <time>2026-09-01T19:57:56Z</time>
  <course>179.2</course>
  <speed>0.24020824298928628</speed>
  <fix>3d</fix>
</trkpt>
<trkpt lat="-27.2737683" lon="151.2899055">
  <ele>348.03</ele>
  <time>2026-09-01T19:57:56Z</time>
  <course>179.18</course>
  <speed>0.23021728866442676</speed>
  <fix>3d</fix>
</trkpt>
<trkpt lat="-27.2737688" lon="151.2899056">
  <ele>348.04</ele>
  <time>2026-09-01T19:57:56Z</time>
  <course>357.28</course>
  <speed>0.25</speed>
  <fix>3d</fix>
</trkpt>
<trkpt lat="-27.2737682" lon="151.2899055">
  <ele>348.03</ele>
  <time>2026-09-01T19:57:56Z</time>
  <course>179.18</course>
  <speed>0.23021728866442676</speed>
  <fix>3d</fix>
</trkpt>
<trkpt lat="-27.2737681" lon="151.2899055">
  <ele>348.03</ele>
  <time>2026-09-01T19:57:56Z</time>
  <course>179.17</course>
  <speed>0.2109502310972899</speed>
  <fix>3d</fix>
</trkpt>
<trkpt lat="-27.2737684" lon="151.2899056">
  <ele>348.04</ele>
  <time>2026-09-01T19:57:56Z</time>
  <course>355.67</course>
  <speed>0.21</speed>
  <fix>3d</fix>
</trkpt>
<trkpt lat="-27.273768" lon="151.2899055">
  <ele>348.03</ele>
  <time>2026-09-01T19:57:56Z</time>
  <course>179.16</course>
  <speed>0.2109502310972899</speed>
  <fix>3d</fix>
</trkpt>
<trkpt lat="-27.2737679" lon="151.2899055">
  <ele>348.03</ele>
  <time>2026-09-01T19:57:56Z</time>
  <course>179.14</course>
  <speed>0.2009975124224178</speed>
  <fix>3d</fix>
</trkpt>
<trkpt lat="-27.2737684" lon="151.2899056">
  <ele>348.04</ele>
  <time>2026-09-01T19:57:56Z</time>
  <course>355.67</course>
  <speed>0.21</speed>
  <fix>3d</fix>
</trkpt>
<trkpt lat="-27.2737679" lon="151.2899055">
  <ele>348.03</ele>
  <time>2026-09-01T19:57:56Z</time>
  <course>179.14</course>
  <speed>0.191049731745428</speed>
  <fix>3d</fix>
</trkpt>
<trkpt lat="-27.2737677" lon="151.2899055">
  <ele>348.03</ele>
  <time>2026-09-01T19:57:56Z</time>
  <course>179.14</course>
  <speed>0.18110770276274835</speed>
  <fix>3d</fix>
</trkpt>
<trkpt lat="-27.273768" lon="151.2899055">
  <ele>348.04</ele>
  <time>2026-09-01T19:57:56Z</time>
  <course>353.42</course>
  <speed>0.18</speed>
  <fix>3d</fix>
</trkpt>
<trkpt lat="-27.2737677" lon="151.2899055">
  <ele>348.03</ele>
  <time>2026-09-01T19:57:56Z</time>
  <course>179.14</course>
  <speed>0.18110770276274835</speed>
  <fix>3d</fix>
</trkpt>
<trkpt lat="-27.2737676" lon="151.2899055">
  <ele>348.03</ele>
  <time>2026-09-01T19:57:56Z</time>
  <course>179.13</course>
  <speed>0.16124515496597097</speed>
  <fix>3d</fix>
</trkpt>
<trkpt lat="-27.273768" lon="151.2899055">
  <ele>348.04</ele>
  <time>2026-09-01T19:57:56Z</time>
  <course>353.42</course>
  <speed>0.18</speed>
  <fix>3d</fix>
</trkpt>
<trkpt lat="-27.2737676" lon="151.2899055">
  <ele>348.03</ele>
  <time>2026-09-01T19:57:56Z</time>
  <course>179.13</course>
  <speed>0.16124515496597097</speed>
  <fix>3d</fix>
</trkpt>
<trkpt lat="-27.2737675" lon="151.2899055">
  <ele>348.03</ele>
  <time>2026-09-01T19:57:56Z</time>
  <course>179.13</course>
  <speed>0.1414213562373095</speed>
  <fix>3d</fix>
</trkpt>
<trkpt lat="-27.2737677" lon="151.2899055">
  <ele>348.04</ele>
  <time>2026-09-01T19:57:56Z</time>
  <course>350.17</course>
  <speed>0.15</speed>
  <fix>3d</fix>
</trkpt>
<trkpt lat="-27.2737675" lon="151.2899055">
  <ele>348.03</ele>
  <time>2026-09-01T19:57:56Z</time>
  <course>179.13</course>
  <speed>0.1414213562373095</speed>
  <fix>3d</fix>
</trkpt>
<trkpt lat="-27.2737674" lon="151.2899054">
  <ele>348.04</ele>
  <time>2026-09-01T19:57:56Z</time>
  <course>179.12</course>
  <speed>0.13341664064126335</speed>
  <fix>3d</fix>
</trkpt>
<trkpt lat="-27.2737677" lon="151.2899055">
  <ele>348.04</ele>
  <time>2026-09-01T19:57:56Z</time>
  <course>350.17</course>
  <speed>0.15</speed>
  <fix>3d</fix>
</trkpt>
<trkpt lat="-27.2737673" lon="151.2899054">
  <ele>348.04</ele>
  <time>2026-09-01T19:57:56Z</time>
  <course>179.12</course>
  <speed>0.12369316876852982</speed>
  <fix>3d</fix>
</trkpt>
<trkpt lat="-27.2737673" lon="151.2899054">
  <ele>348.04</ele>
  <time>2026-09-01T19:57:56Z</time>
  <course>179.12</course>
  <speed>0.11401754250991379</speed>
  <fix>3d</fix>
</trkpt>
<trkpt lat="-27.2737675" lon="151.2899054">
  <ele>348.05</ele>
  <time>2026-09-01T19:57:56Z</time>
  <course>345.15</course>
  <speed>0.11</speed>
  <fix>3d</fix>
</trkpt>
<trkpt lat="-27.2737673" lon="151.2899054">
  <ele>348.04</ele>
  <time>2026-09-01T19:57:56Z</time>
  <course>179.12</course>
  <speed>0.11401754250991379</speed>
  <fix>3d</fix>
</trkpt>
<trkpt lat="-27.2737672" lon="151.2899054">
  <ele>348.04</ele>
  <time>2026-09-01T19:57:56Z</time>
  <course>179.11</course>
  <speed>0.09486832980505139</speed>
  <fix>3d</fix>
</trkpt>
<trkpt lat="-27.2737675" lon="151.2899054">
  <ele>348.05</ele>
  <time>2026-09-01T19:57:56Z</time>
  <course>345.15</course>
  <speed>0.11</speed>
  <fix>3d</fix>
</trkpt>
<trkpt lat="-27.2737671" lon="151.2899053">
  <ele>348.05</ele>
  <time>2026-09-01T19:57:56Z</time>
  <course>179.11</course>
  <speed>0.07615773105863909</speed>
  <fix>3d</fix>
</trkpt>
<trkpt lat="-27.2737672" lon="151.2899053">
  <ele>348.06</ele>
  <time>2026-09-01T19:57:56Z</time>
  <course>336.42</course>
  <speed>0.08</speed>
  <fix>3d</fix>
</trkpt>
<trkpt lat="-27.2737671" lon="151.2899053">
  <ele>348.05</ele>
  <time>2026-09-01T19:57:56Z</time>
  <course>179.11</course>
  <speed>0.0670820393249937</speed>
  <fix>3d</fix>
</trkpt>
<trkpt lat="-27.2737672" lon="151.2899053">
  <ele>348.06</ele>
  <time>2026-09-01T19:57:56Z</time>
  <course>336.42</course>
  <speed>0.08</speed>
  <fix>3d</fix>
</trkpt>
<trkpt lat="-27.2737671" lon="151.2899053">
  <ele>348.05</ele>
  <time>2026-09-01T19:57:56Z</time>
  <course>179.11</course>
  <speed>0.0565685424949238</speed>
  <fix>3d</fix>
</trkpt>
<trkpt lat="-27.2737672" lon="151.2899052">
  <ele>348.07</ele>
  <time>2026-09-01T19:57:56Z</time>
  <course>319.06</course>
  <speed>0.05</speed>
  <fix>3d</fix>
</trkpt>
<trkpt lat="-27.273767" lon="151.2899052">
  <ele>348.04</ele>
  <time>2026-09-01T19:57:56Z</time>
  <course>179.1</course>
  <speed>0.044721359549995794</speed>
  <fix>3d</fix>
</trkpt>
<trkpt lat="-27.2737672" lon="151.2899052">
  <ele>348.07</ele>
  <time>2026-09-01T19:57:56Z</time>
  <course>319.06</course>
  <speed>0.05</speed>
  <fix>3d</fix>
</trkpt>
<trkpt lat="-27.273767" lon="151.2899052">
  <ele>348.03</ele>
  <time>2026-09-01T19:57:56Z</time>
  <course>179.1</course>
  <speed>0.04</speed>
  <fix>3d</fix>
</trkpt>
<trkpt lat="-27.2737672" lon="151.2899052">
  <ele>348.06</ele>
  <time>2026-09-01T19:57:56Z</time>
  <course>279.67</course>
  <speed>0.03</speed>
  <fix>3d</fix>
</trkpt>
<trkpt lat="-27.2737671" lon="151.2899051">
  <ele>348.01</ele>
  <time>2026-09-01T19:57:56Z</time>
  <course>179.09</course>
  <speed>0.03</speed>
  <fix>3d</fix>
</trkpt>
<trkpt lat="-27.2737672" lon="151.2899052">
  <ele>348.06</ele>
  <time>2026-09-01T19:57:56Z</time>
  <course>279.67</course>
  <speed>0.03</speed>
  <fix>3d</fix>
</trkpt>
<trkpt lat="-27.2737671" lon="151.2899051">
  <ele>347.99</ele>
  <time>2026-09-01T19:57:56Z</time>
  <course>179.1</course>
  <speed>0.03605551275463989</speed>
  <fix>3d</fix>
</trkpt>
<trkpt lat="-27.2737672" lon="151.2899051">
  <ele>348.03</ele>
  <time>2026-09-01T19:57:56Z</time>
  <course>231.6</course>
  <speed>0.04</speed>
  <fix>3d</fix>
</trkpt>
<trkpt lat="-27.2737671" lon="151.2899051">
  <ele>347.95</ele>
  <time>2026-09-01T19:57:56Z</time>
  <course>179.1</course>
  <speed>0.04242640687119285</speed>
  <fix>3d</fix>
</trkpt>
<trkpt lat="-27.2737672" lon="151.2899051">
  <ele>348.03</ele>
  <time>2026-09-01T19:57:56Z</time>
  <course>231.6</course>
  <speed>0.04</speed>
  <fix>3d</fix>
</trkpt>
<trkpt lat="-27.2737672" lon="151.289905">
  <ele>347.91</ele>
  <time>2026-09-01T19:57:56Z</time>
  <course>179.1</course>
  <speed>0.05830951894845301</speed>
  <fix>3d</fix>
</trkpt>
<trkpt lat="-27.2737672" lon="151.2899051">
  <ele>347.97</ele>
  <time>2026-09-01T19:57:56Z</time>
  <course>208.84</course>
  <speed>0.06</speed>
  <fix>3d</fix>
</trkpt>
<trkpt lat="-27.2737672" lon="151.289905">
  <ele>347.87</ele>
  <time>2026-09-01T19:57:56Z</time>
  <course>179.11</course>
  <speed>0.0670820393249937</speed>
  <fix>3d</fix>
</trkpt>
<trkpt lat="-27.2737672" lon="151.2899051">
  <ele>347.97</ele>
  <time>2026-09-01T19:57:56Z</time>
  <course>208.84</course>
  <speed>0.06</speed>
  <fix>3d</fix>
</trkpt>
<trkpt lat="-27.2737672" lon="151.289905">
  <ele>347.82</ele>
  <time>2026-09-01T19:57:56Z</time>
  <course>179.11</course>
  <speed>0.07615773105863909</speed>
  <fix>3d</fix>
</trkpt>
<trkpt lat="-27.2737672" lon="151.289905">
  <ele>347.89</ele>
  <time>2026-09-01T19:57:56Z</time>
  <course>198.63</course>
  <speed>0.08</speed>
  <fix>3d</fix>
</trkpt>
<trkpt lat="-27.2737673" lon="151.289905">
  <ele>347.77</ele>
  <time>2026-09-01T19:57:56Z</time>
  <course>179.12</course>
  <speed>0.0854400374531753</speed>
  <fix>3d</fix>
</trkpt>
<trkpt lat="-27.2737672" lon="151.289905">
  <ele>347.89</ele>
  <time>2026-09-01T19:57:56Z</time>
  <course>198.63</course>
  <speed>0.08</speed>
  <fix>3d</fix>
</trkpt>
<trkpt lat="-27.2737674" lon="151.2899049">
  <ele>347.71</ele>
  <time>2026-09-01T19:57:56Z</time>
  <course>179.13</course>
  <speed>0.0824621125123532</speed>
  <fix>3d</fix>
</trkpt>
<trkpt lat="-27.2737674" lon="151.289905">
  <ele>347.79</ele>
  <time>2026-09-01T19:57:56Z</time>
  <course>192.96</course>
  <speed>0.1</speed>
  <fix>3d</fix>
</trkpt>
<trkpt lat="-27.2737675" lon="151.2899049">
  <ele>347.66</ele>
  <time>2026-09-01T19:57:56Z</time>
  <course>179.13</course>
  <speed>0.09219544457292887</speed>
  <fix>3d</fix>
</trkpt>
<trkpt lat="-27.2737674" lon="151.289905">
  <ele>347.79</ele>
  <time>2026-09-01T19:57:56Z</time>
  <course>192.96</course>
  <speed>0.1</speed>
  <fix>3d</fix>
</trkpt>
<trkpt lat="-27.2737676" lon="151.2899049">
  <ele>347.6</ele>
  <time>2026-09-01T19:57:56Z</time>
  <course>179.13</course>
  <speed>0.09219544457292887</speed>
  <fix>3d</fix>
</trkpt>
<trkpt lat="-27.2737676" lon="151.2899049">
  <ele>347.68</ele>
  <time>2026-09-01T19:57:56Z</time>
  <course>189.24</course>
  <speed>0.11</speed>
  <fix>3d</fix>
</trkpt>
<trkpt lat="-27.2737677" lon="151.2899049">
  <ele>347.54</ele>
  <time>2026-09-01T19:57:56Z</time>
  <course>179.12</course>
  <speed>0.1019803902718557</speed>
  <fix>3d</fix>
</trkpt>
<trkpt lat="-27.2737676" lon="151.2899049">
  <ele>347.68</ele>
  <time>2026-09-01T19:57:56Z</time>
  <course>189.24</course>
  <speed>0.11</speed>
  <fix>3d</fix>
</trkpt>
<trkpt lat="-27.2737678" lon="151.2899049">
  <ele>347.49</ele>
  <time>2026-09-01T19:57:56Z</time>
  <course>179.12</course>
  <speed>0.1019803902718557</speed>
  <fix>3d</fix>
</trkpt>
<trkpt lat="-27.2737678" lon="151.2899048">
  <ele>347.56</ele>
  <time>2026-09-01T19:57:56Z</time>
  <course>186.53</course>
  <speed>0.12</speed>
  <fix>3d</fix>
</trkpt>
<trkpt lat="-27.2737679" lon="151.2899048">
  <ele>347.43</ele>
  <time>2026-09-01T19:57:56Z</time>
  <course>179.11</course>
  <speed>0.1019803902718557</speed>
  <fix>3d</fix>
</trkpt>
<trkpt lat="-27.2737678" lon="151.2899048">
  <ele>347.56</ele>
  <time>2026-09-01T19:57:56Z</time>
  <course>186.53</course>
  <speed>0.12</speed>
  <fix>3d</fix>
</trkpt>
<trkpt lat="-27.273768" lon="151.2899048">
  <ele>347.38</ele>
  <time>2026-09-01T19:57:56Z</time>
  <course>179.11</course>
  <speed>0.1019803902718557</speed>
  <fix>3d</fix>
</trkpt>
<trkpt lat="-27.2737681" lon="151.2899048">
  <ele>347.45</ele>
  <time>2026-09-01T19:57:56Z</time>
  <course>184.38</course>
  <speed>0.13</speed>
  <fix>3d</fix>
</trkpt>
<trkpt lat="-27.2737681" lon="151.2899048">
  <ele>347.32</ele>
  <time>2026-09-01T19:57:56Z</time>
  <course>179.1</course>
  <speed>0.1004987562112089</speed>
  <fix>3d</fix>
</trkpt>
<trkpt lat="-27.2737681" lon="151.2899048">
  <ele>347.45</ele>
  <time>2026-09-01T19:57:56Z</time>
  <course>184.38</course>
  <speed>0.13</speed>
  <fix>3d</fix>
</trkpt>
<trkpt lat="-27.2737682" lon="151.2899048">
  <ele>347.27</ele>
  <time>2026-09-01T19:57:56Z</time>
  <course>179.1</course>
  <speed>0.1004987562112089</speed>
  <fix>3d</fix>
</trkpt>
<trkpt lat="-27.2737683" lon="151.2899048">
  <ele>347.34</ele>
  <time>2026-09-01T19:57:56Z</time>
  <course>182.46</course>
  <speed>0.13</speed>
  <fix>3d</fix>
</trkpt>
<trkpt lat="-27.2737683" lon="151.2899048">
  <ele>347.22</ele>
  <time>2026-09-01T19:57:56Z</time>
  <course>179.08</course>
  <speed>0.09055385138137417</speed>
  <fix>3d</fix>
</trkpt>
<trkpt lat="-27.2737683" lon="151.2899048">
  <ele>347.34</ele>
  <time>2026-09-01T19:57:56Z</time>
  <course>182.46</course>
  <speed>0.13</speed>
  <fix>3d</fix>
</trkpt>
<trkpt lat="-27.2737684" lon="151.2899048">
  <ele>347.17</ele>
  <time>2026-09-01T19:57:56Z</time>
  <course>179.08</course>
  <speed>0.09055385138137417</speed>
  <fix>3d</fix>
</trkpt>
<trkpt lat="-27.2737685" lon="151.2899048">
  <ele>347.24</ele>
  <time>2026-09-01T19:57:56Z</time>
  <course>180.54</course>
  <speed>0.12</speed>
  <fix>3d</fix>
</trkpt>
<trkpt lat="-27.2737685" lon="151.2899048">
  <ele>347.13</ele>
  <time>2026-09-01T19:57:56Z</time>
  <course>179.07</course>
  <speed>0.09055385138137417</speed>
  <fix>3d</fix>
</trkpt>
<trkpt lat="-27.2737685" lon="151.2899048">
  <ele>347.24</ele>
  <time>2026-09-01T19:57:56Z</time>
  <course>180.54</course>
  <speed>0.12</speed>
  <fix>3d</fix>
</trkpt>
<trkpt lat="-27.2737686" lon="151.2899048">
  <ele>347.08</ele>
  <time>2026-09-01T19:57:56Z</time>
  <course>179.06</course>
  <speed>0.08062257748298549</speed>
  <fix>3d</fix>
</trkpt>
<trkpt lat="-27.2737688" lon="151.2899048">
  <ele>347.15</ele>
  <time>2026-09-01T19:57:56Z</time>
  <course>178.49</course>
  <speed>0.12</speed>
  <fix>3d</fix>
</trkpt>
<trkpt lat="-27.2737687" lon="151.2899048">
  <ele>347.03</ele>
  <time>2026-09-01T19:57:56Z</time>
  <course>179.06</course>
  <speed>0.08062257748298549</speed>
  <fix>3d</fix>
</trkpt>
<trkpt lat="-27.2737688" lon="151.2899048">
  <ele>347.15</ele>
  <time>2026-09-01T19:57:56Z</time>
  <course>178.49</course>
  <speed>0.12</speed>
  <fix>3d</fix>
</trkpt>
<trkpt lat="-27.2737688" lon="151.2899048">
  <ele>346.99</ele>
  <time>2026-09-01T19:57:56Z</time>
  <course>179.06</course>
  <speed>0.07071067811865475</speed>
  <fix>3d</fix>
</trkpt>
<trkpt lat="-27.273769" lon="151.2899048">
  <ele>347.05</ele>
  <time>2026-09-01T19:57:56Z</time>
  <course>176.02</course>
  <speed>0.11</speed>
  <fix>3d</fix>
</trkpt>
<trkpt lat="-27.2737689" lon="151.2899048">
  <ele>346.94</ele>
  <time>2026-09-01T19:57:56Z</time>
  <course>179.06</course>
  <speed>0.06</speed>
  <fix>3d</fix>
</trkpt>
<trkpt lat="-27.273769" lon="151.2899048">
  <ele>347.05</ele>
  <time>2026-09-01T19:57:56Z</time>
  <course>176.02</course>
  <speed>0.11</speed>
  <fix>3d</fix>
</trkpt>
<trkpt lat="-27.273769" lon="151.2899048">
  <ele>346.9</ele>
  <time>2026-09-01T19:57:56Z</time>
  <course>179.07</course>
  <speed>0.06</speed>
  <fix>3d</fix>
</trkpt>
<trkpt lat="-27.2737691" lon="151.2899048">
  <ele>346.96</ele>
  <time>2026-09-01T19:57:56Z</time>
  <course>172.72</course>
  <speed>0.1</speed>
  <fix>3d</fix>
</trkpt>
<trkpt lat="-27.2737691" lon="151.2899048">
  <ele>346.85</ele>
  <time>2026-09-01T19:57:56Z</time>
  <course>179.07</course>
  <speed>0.05</speed>
  <fix>3d</fix>
</trkpt>
<trkpt lat="-27.2737691" lon="151.2899048">
  <ele>346.96</ele>
  <time>2026-09-01T19:57:56Z</time>
  <course>172.72</course>
  <speed>0.1</speed>
  <fix>3d</fix>
</trkpt>
<trkpt lat="-27.2737691" lon="151.2899048">
  <ele>346.8</ele>
  <time>2026-09-01T19:57:56Z</time>
  <course>179.07</course>
  <speed>0.04</speed>
  <fix>3d</fix>
</trkpt>
<trkpt lat="-27.2737693" lon="151.2899048">
  <ele>346.87</ele>
  <time>2026-09-01T19:57:56Z</time>
  <course>168.5</course>
  <speed>0.08</speed>
  <fix>3d</fix>
</trkpt>
<trkpt lat="-27.2737692" lon="151.2899048">
  <ele>346.76</ele>
  <time>2026-09-01T19:57:56Z</time>
  <course>179.07</course>
  <speed>0.03</speed>
  <fix>3d</fix>
</trkpt>
<trkpt lat="-27.2737693" lon="151.2899048">
  <ele>346.87</ele>
  <time>2026-09-01T19:57:56Z</time>
  <course>168.5</course>
  <speed>0.08</speed>
  <fix>3d</fix>
</trkpt>
<trkpt lat="-27.2737692" lon="151.2899048">
  <ele>346.71</ele>
  <time>2026-09-01T19:57:56Z</time>
  <course>179.07</course>
  <speed>0.02</speed>
  <fix>3d</fix>
</trkpt>
<trkpt lat="-27.2737695" lon="151.2899048">
  <ele>346.78</ele>
  <time>2026-09-01T19:57:56Z</time>
  <course>162.93</course>
  <speed>0.07</speed>
  <fix>3d</fix>
</trkpt>
<trkpt lat="-27.2737693" lon="151.2899048">
  <ele>346.66</ele>
  <time>2026-09-01T19:57:56Z</time>
  <course>179.07</course>
  <speed>0.02</speed>
  <fix>3d</fix>
</trkpt>
<trkpt lat="-27.2737695" lon="151.2899048">
  <ele>346.78</ele>
  <time>2026-09-01T19:57:56Z</time>
  <course>162.93</course>
  <speed>0.07</speed>
  <fix>3d</fix>
</trkpt>
<trkpt lat="-27.2737693" lon="151.2899048">
  <ele>346.61</ele>
  <time>2026-09-01T19:57:56Z</time>
  <course>179.06</course>
  <speed>0.01</speed>
  <fix>3d</fix>
</trkpt>
<trkpt lat="-27.2737696" lon="151.2899048">
  <ele>346.69</ele>
  <time>2026-09-01T19:57:56Z</time>
  <course>154.77</course>
  <speed>0.06</speed>
  <fix>3d</fix>
</trkpt>
<trkpt lat="-27.2737694" lon="151.2899048">
  <ele>346.57</ele>
  <time>2026-09-01T19:57:56Z</time>
  <course>179.05</course>
  <speed>0.0</speed>
  <fix>3d</fix>
</trkpt>
<trkpt lat="-27.2737696" lon="151.2899048">
  <ele>346.69</ele>
  <time>2026-09-01T19:57:56Z</time>
  <course>154.77</course>
  <speed>0.06</speed>
  <fix>3d</fix>
</trkpt>
<trkpt lat="-27.2737694" lon="151.2899048">
  <ele>346.52</ele>
  <time>2026-09-01T19:57:56Z</time>
  <course>179.04</course>
  <speed>0.0</speed>
  <fix>3d</fix>
</trkpt>
<trkpt lat="-27.2737697" lon="151.2899049">
  <ele>346.59</ele>
  <time>2026-09-01T19:57:56Z</time>
  <course>141.84</course>
  <speed>0.04</speed>
  <fix>3d</fix>
</trkpt>
<trkpt lat="-27.2737694" lon="151.2899048">
  <ele>346.47</ele>
  <time>2026-09-01T19:57:56Z</time>
  <course>179.02</course>
  <speed>0.01</speed>
  <fix>3d</fix>
</trkpt>
<trkpt lat="-27.2737697" lon="151.2899049">
  <ele>346.59</ele>
  <time>2026-09-01T19:57:56Z</time>
  <course>141.84</course>
  <speed>0.04</speed>
  <fix>3d</fix>
</trkpt>
<trkpt lat="-27.2737694" lon="151.2899048">
  <ele>346.42</ele>
  <time>2026-09-01T19:57:56Z</time>
  <course>179.0</course>
  <speed>0.02</speed>
  <fix>3d</fix>
</trkpt>
<trkpt lat="-27.2737697" lon="151.289905">
  <ele>346.49</ele>
  <time>2026-09-01T19:57:56Z</time>
  <course>122.02</course>
  <speed>0.03</speed>
  <fix>3d</fix>
</trkpt>
<trkpt lat="-27.2737694" lon="151.2899048">
  <ele>346.36</ele>
  <time>2026-09-01T19:57:56Z</time>
  <course>178.96</course>
  <speed>0.03</speed>
  <fix>3d</fix>
</trkpt>
<trkpt lat="-27.2737697" lon="151.289905">
  <ele>346.49</ele>
  <time>2026-09-01T19:57:56Z</time>
  <course>122.02</course>
  <speed>0.03</speed>
  <fix>3d</fix>
</trkpt>
<trkpt lat="-27.2737694" lon="151.2899048">
  <ele>346.31</ele>
  <time>2026-09-01T19:57:56Z</time>
  <course>178.92</course>
  <speed>0.04</speed>
  <fix>3d</fix>
</trkpt>
<trkpt lat="-27.2737698" lon="151.2899051">
  <ele>346.39</ele>
  <time>2026-09-01T19:57:56Z</time>
  <course>93.82</course>
  <speed>0.03</speed>
  <fix>3d</fix>
</trkpt>
<trkpt lat="-27.2737695" lon="151.2899049">
  <ele>346.26</ele>
  <time>2026-09-01T19:57:56Z</time>
  <course>178.88</course>
  <speed>0.04</speed>
  <fix>3d</fix>
</trkpt>
<trkpt lat="-27.2737698" lon="151.2899051">
  <ele>346.39</ele>
  <time>2026-09-01T19:57:56Z</time>
  <course>93.82</course>
  <speed>0.03</speed>
  <fix>3d</fix>
</trkpt>
<trkpt lat="-27.2737695" lon="151.2899049">
  <ele>346.21</ele>
  <time>2026-09-01T19:57:56Z</time>
  <course>178.83</course>
  <speed>0.05</speed>
  <fix>3d</fix>
</trkpt>
<trkpt lat="-27.2737698" lon="151.2899051">
  <ele>346.28</ele>
  <time>2026-09-01T19:57:56Z</time>
  <course>63.3</course>
  <speed>0.03</speed>
  <fix>3d</fix>
</trkpt>
<trkpt lat="-27.2737695" lon="151.2899049">
  <ele>346.16</ele>
  <time>2026-09-01T19:57:56Z</time>
  <course>178.79</course>
  <speed>0.06</speed>
  <fix>3d</fix>
</trkpt>
<trkpt lat="-27.2737698" lon="151.2899051">
  <ele>346.28</ele>
  <time>2026-09-01T19:57:56Z</time>
  <course>63.3</course>
  <speed>0.03</speed>
  <fix>3d</fix>
</trkpt>
<trkpt lat="-27.2737694" lon="151.2899049">
  <ele>346.11</ele>
  <time>2026-09-01T19:57:56Z</time>
  <course>178.75</course>
  <speed>0.07071067811865475</speed>
  <fix>3d</fix>
</trkpt>
<trkpt lat="-27.2737697" lon="151.2899052">
  <ele>346.19</ele>
  <time>2026-09-01T19:57:56Z</time>
  <course>41.27</course>
  <speed>0.04</speed>
  <fix>3d</fix>
</trkpt>
<trkpt lat="-27.2737694" lon="151.2899049">
  <ele>346.06</ele>
  <time>2026-09-01T19:57:56Z</time>
  <course>178.73</course>
  <speed>0.07071067811865475</speed>
  <fix>3d</fix>
</trkpt>
<trkpt lat="-27.2737697" lon="151.2899052">
  <ele>346.19</ele>
  <time>2026-09-01T19:57:56Z</time>
  <course>41.27</course>
  <speed>0.04</speed>
  <fix>3d</fix>
</trkpt>
<trkpt lat="-27.2737694" lon="151.2899049">
  <ele>346.01</ele>
  <time>2026-09-01T19:57:56Z</time>
  <course>178.73</course>
  <speed>0.08062257748298549</speed>
  <fix>3d</fix>
</trkpt>
<trkpt lat="-27.2737697" lon="151.2899052">
  <ele>346.09</ele>
  <time>2026-09-01T19:57:56Z</time>
  <course>27.89</course>
  <speed>0.05</speed>
  <fix>3d</fix>
</trkpt>
<trkpt lat="-27.2737693" lon="151.2899049">
  <ele>345.96</ele>
  <time>2026-09-01T19:57:56Z</time>
  <course>178.74</course>
  <speed>0.09055385138137417</speed>
  <fix>3d</fix>
</trkpt>
<trkpt lat="-27.2737697" lon="151.2899052">
  <ele>346.09</ele>
  <time>2026-09-01T19:57:56Z</time>
  <course>27.89</course>
  <speed>0.05</speed>
  <fix>3d</fix>
</trkpt>
<trkpt lat="-27.2737693" lon="151.2899049">
  <ele>345.91</ele>
  <time>2026-09-01T19:57:56Z</time>
  <course>178.75</course>
  <speed>0.09055385138137417</speed>
  <fix>3d</fix>
</trkpt>
<trkpt lat="-27.2737696" lon="151.2899052">
  <ele>345.99</ele>
  <time>2026-09-01T19:57:56Z</time>
  <course>19.82</course>
  <speed>0.06</speed>
  <fix>3d</fix>
</trkpt>
<trkpt lat="-27.2737692" lon="151.289905">
  <ele>345.86</ele>
  <time>2026-09-01T19:57:56Z</time>
  <course>178.76</course>
  <speed>0.1004987562112089</speed>
  <fix>3d</fix>
</trkpt>
<trkpt lat="-27.2737696" lon="151.2899052">
  <ele>345.99</ele>
  <time>2026-09-01T19:57:56Z</time>
  <course>19.82</course>
  <speed>0.06</speed>
  <fix>3d</fix>
</trkpt>
<trkpt lat="-27.2737691" lon="151.289905">
  <ele>345.81</ele>
  <time>2026-09-01T19:57:56Z</time>
  <course>178.76</course>
  <speed>0.1019803902718557</speed>
  <fix>3d</fix>
</trkpt>
<trkpt lat="-27.2737695" lon="151.2899053">
  <ele>345.89</ele>
  <time>2026-09-01T19:57:56Z</time>
  <course>14.73</course>
  <speed>0.07</speed>
  <fix>3d</fix>
</trkpt>
<trkpt lat="-27.2737691" lon="151.289905">
  <ele>345.76</ele>
  <time>2026-09-01T19:57:56Z</time>
  <course>178.76</course>
  <speed>0.1019803902718557</speed>
  <fix>3d</fix>
</trkpt>
<trkpt lat="-27.2737695" lon="151.2899053">
  <ele>345.89</ele>
  <time>2026-09-01T19:57:56Z</time>
  <course>14.73</course>
  <speed>0.07</speed>
  <fix>3d</fix>
</trkpt>
<trkpt lat="-27.273769" lon="151.289905">
  <ele>345.71</ele>
  <time>2026-09-01T19:57:56Z</time>
  <course>178.76</course>
  <speed>0.1118033988749895</speed>
  <fix>3d</fix>
</trkpt>
<trkpt lat="-27.2737694" lon="151.2899053">
  <ele>345.78</ele>
  <time>2026-09-01T19:57:56Z</time>
  <course>11.35</course>
  <speed>0.08</speed>
  <fix>3d</fix>
</trkpt>
<trkpt lat="-27.273769" lon="151.289905">
  <ele>345.66</ele>
  <time>2026-09-01T19:57:56Z</time>
  <course>178.76</course>
  <speed>0.1118033988749895</speed>
  <fix>3d</fix>
</trkpt>
<trkpt lat="-27.2737694" lon="151.2899053">
  <ele>345.78</ele>
  <time>2026-09-01T19:57:56Z</time>
  <course>11.35</course>
  <speed>0.08</speed>
  <fix>3d</fix>
</trkpt>
<trkpt lat="-27.2737689" lon="151.289905">
  <ele>345.6</ele>
  <time>2026-09-01T19:57:56Z</time>
  <course>178.75</course>
  <speed>0.1118033988749895</speed>
  <fix>3d</fix>
</trkpt>
<trkpt lat="-27.2737692" lon="151.2899053">
  <ele>345.69</ele>
  <time>2026-09-01T19:57:56Z</time>
  <course>9.22</course>
  <speed>0.09</speed>
  <fix>3d</fix>
</trkpt>
<trkpt lat="-27.2737688" lon="151.289905">
  <ele>345.55</ele>
  <time>2026-09-01T19:57:56Z</time>
  <course>178.75</course>
  <speed>0.12165525060596438</speed>
  <fix>3d</fix>
</trkpt>
<trkpt lat="-27.2737692" lon="151.2899053">
  <ele>345.69</ele>
  <time>2026-09-01T19:57:56Z</time>
  <course>9.22</course>
  <speed>0.09</speed>
  <fix>3d</fix>
</trkpt>
<trkpt lat="-27.2737687" lon="151.289905">
  <ele>345.5</ele>
  <time>2026-09-01T19:57:56Z</time>
  <course>178.74</course>
  <speed>0.12165525060596438</speed>
  <fix>3d</fix>
</trkpt>
<trkpt lat="-27.2737691" lon="151.2899054">
  <ele>345.59</ele>
  <time>2026-09-01T19:57:56Z</time>
  <course>7.61</course>
  <speed>0.09</speed>
  <fix>3d</fix>
</trkpt>
<trkpt lat="-27.2737686" lon="151.289905">
  <ele>345.45</ele>
  <time>2026-09-01T19:57:56Z</time>
  <course>178.75</course>
  <speed>0.12165525060596438</speed>
  <fix>3d</fix>
</trkpt>
<trkpt lat="-27.2737691" lon="151.2899054">
  <ele>345.59</ele>
  <time>2026-09-01T19:57:56Z</time>
  <course>7.61</course>
  <speed>0.09</speed>
  <fix>3d</fix>
</trkpt>
<trkpt lat="-27.2737686" lon="151.289905">
  <ele>345.4</ele>
  <time>2026-09-01T19:57:56Z</time>
  <course>178.76</course>
  <speed>0.12369316876852982</speed>
  <fix>3d</fix>
</trkpt>
<trkpt lat="-27.2737689" lon="151.2899055">
  <ele>345.49</ele>
  <time>2026-09-01T19:57:56Z</time>
  <course>5.91</course>
  <speed>0.09</speed>
  <fix>3d</fix>
</trkpt>
<trkpt lat="-27.2737685" lon="151.289905">
  <ele>345.35</ele>
  <time>2026-09-01T19:57:56Z</time>
  <course>178.77</course>
  <speed>0.12369316876852982</speed>
  <fix>3d</fix>
</trkpt>
<trkpt lat="-27.2737689" lon="151.2899055">
  <ele>345.49</ele>
  <time>2026-09-01T19:57:56Z</time>
  <course>5.91</course>
  <speed>0.09</speed>
  <fix>3d</fix>
</trkpt>
<trkpt lat="-27.2737684" lon="151.289905">
  <ele>345.3</ele>
  <time>2026-09-01T19:57:56Z</time>
  <course>178.78</course>
  <speed>0.12369316876852982</speed>
  <fix>3d</fix>
</trkpt>
<trkpt lat="-27.2737687" lon="151.2899055">
  <ele>345.39</ele>
  <time>2026-09-01T19:57:56Z</time>
  <course>4.41</course>
  <speed>0.1</speed>
  <fix>3d</fix>
</trkpt>
<trkpt lat="-27.2737683" lon="151.2899051">
  <ele>345.25</ele>
  <time>2026-09-01T19:57:56Z</time>
  <course>178.8</course>
  <speed>0.12369316876852982</speed>
  <fix>3d</fix>
</trkpt>
<trkpt lat="-27.2737687" lon="151.2899055">
  <ele>345.39</ele>
  <time>2026-09-01T19:57:56Z</time>
  <course>4.41</course>
  <speed>0.1</speed>
  <fix>3d</fix>
</trkpt>
<trkpt lat="-27.2737682" lon="151.2899051">
  <ele>345.2</ele>
  <time>2026-09-01T19:57:56Z</time>
  <course>178.8</course>
  <speed>0.12369316876852982</speed>
  <fix>3d</fix>
</trkpt>
<trkpt lat="-27.2737685" lon="151.2899055">
  <ele>345.3</ele>
  <time>2026-09-01T19:57:56Z</time>
  <course>3.45</course>
  <speed>0.1</speed>
  <fix>3d</fix>
</trkpt>
<trkpt lat="-27.2737681" lon="151.2899051">
  <ele>345.15</ele>
  <time>2026-09-01T19:57:56Z</time>
  <course>178.81</course>
  <speed>0.12369316876852982</speed>
  <fix>3d</fix>
</trkpt>
<trkpt lat="-27.2737685" lon="151.2899055">
  <ele>345.3</ele>
  <time>2026-09-01T19:57:56Z</time>
  <course>3.45</course>
  <speed>0.1</speed>
  <fix>3d</fix>
</trkpt>
<trkpt lat="-27.2737681" lon="151.2899051">
  <ele>345.1</ele>
  <time>2026-09-01T19:57:56Z</time>
  <course>178.8</course>
  <speed>0.12369316876852982</speed>
  <fix>3d</fix>
</trkpt>
<trkpt lat="-27.2737684" lon="151.2899055">
  <ele>345.2</ele>
  <time>2026-09-01T19:57:56Z</time>
  <course>2.92</course>
  <speed>0.1</speed>
  <fix>3d</fix>
</trkpt>
<trkpt lat="-27.273768" lon="151.2899051">
  <ele>345.05</ele>
  <time>2026-09-01T19:57:56Z</time>
  <course>178.81</course>
  <speed>0.12369316876852982</speed>
  <fix>3d</fix>
</trkpt>
<trkpt lat="-27.2737684" lon="151.2899055">
  <ele>345.2</ele>
  <time>2026-09-01T19:57:56Z</time>
  <course>2.92</course>
  <speed>0.1</speed>
  <fix>3d</fix>
</trkpt>
<trkpt lat="-27.2737679" lon="151.2899051">
  <ele>345.0</ele>
  <time>2026-09-01T19:57:56Z</time>
  <course>178.8</course>
  <speed>0.12369316876852982</speed>
  <fix>3d</fix>
</trkpt>
<trkpt lat="-27.2737682" lon="151.2899055">
  <ele>345.09</ele>
  <time>2026-09-01T19:57:56Z</time>
  <course>2.59</course>
  <speed>0.1</speed>
  <fix>3d</fix>
</trkpt>
<trkpt lat="-27.2737678" lon="151.2899051">
  <ele>344.96</ele>
  <time>2026-09-01T19:57:56Z</time>
  <course>178.81</course>
  <speed>0.12369316876852982</speed>
  <fix>3d</fix>
</trkpt>
<trkpt lat="-27.2737682" lon="151.2899055">
  <ele>345.09</ele>
  <time>2026-09-01T19:57:56Z</time>
  <course>2.59</course>
  <speed>0.1</speed>
  <fix>3d</fix>
</trkpt>
<trkpt lat="-27.2737677" lon="151.2899051">
  <ele>344.91</ele>
  <time>2026-09-01T19:57:56Z</time>
  <course>178.81</course>
  <speed>0.11401754250991379</speed>
  <fix>3d</fix>
</trkpt>
<trkpt lat="-27.2737679" lon="151.2899055">
  <ele>345.0</ele>
  <time>2026-09-01T19:57:56Z</time>
  <course>2.43</course>
  <speed>0.09</speed>
  <fix>3d</fix>
</trkpt>
<trkpt lat="-27.2737676" lon="151.2899051">
  <ele>344.86</ele>
  <time>2026-09-01T19:57:56Z</time>
  <course>178.81</course>
  <speed>0.11401754250991379</speed>
  <fix>3d</fix>
</trkpt>
<trkpt lat="-27.2737679" lon="151.2899055">
  <ele>345.0</ele>
  <time>2026-09-01T19:57:56Z</time>
  <course>2.43</course>
  <speed>0.09</speed>
  <fix>3d</fix>
</trkpt>
<trkpt lat="-27.2737676" lon="151.2899051">
  <ele>344.81</ele>
  <time>2026-09-01T19:57:57Z</time>
  <course>178.8</course>
  <speed>0.11401754250991379</speed>
  <fix>3d</fix>
</trkpt>
<trkpt lat="-27.2737678" lon="151.2899055">
  <ele>344.9</ele>
  <time>2026-09-01T19:57:57Z</time>
  <course>2.49</course>
  <speed>0.09</speed>
  <fix>3d</fix>
</trkpt>
<trkpt lat="-27.2737675" lon="151.2899052">
  <ele>344.76</ele>
  <time>2026-09-01T19:57:57Z</time>
  <course>178.79</course>
  <speed>0.1044030650891055</speed>
  <fix>3d</fix>
</trkpt>
<trkpt lat="-27.2737678" lon="151.2899055">
  <ele>344.9</ele>
  <time>2026-09-01T19:57:57Z</time>
  <course>2.49</course>
  <speed>0.09</speed>
  <fix>3d</fix>
</trkpt>
<trkpt lat="-27.2737674" lon="151.2899052">
  <ele>344.71</ele>
  <time>2026-09-01T19:57:57Z</time>
  <course>178.78</course>
  <speed>0.1044030650891055</speed>
  <fix>3d</fix>
</trkpt>
<trkpt lat="-27.2737676" lon="151.2899055">
  <ele>344.81</ele>
  <time>2026-09-01T19:57:57Z</time>
  <course>2.6</course>
  <speed>0.08</speed>
  <fix>3d</fix>
</trkpt>
<trkpt lat="-27.2737673" lon="151.2899052">
  <ele>344.66</ele>
  <time>2026-09-01T19:57:57Z</time>
  <course>178.77</course>
  <speed>0.1044030650891055</speed>
  <fix>3d</fix>
</trkpt>
<trkpt lat="-27.2737676" lon="151.2899055">
  <ele>344.81</ele>
  <time>2026-09-01T19:57:57Z</time>
  <course>2.6</course>
  <speed>0.08</speed>
  <fix>3d</fix>
</trkpt>
<trkpt lat="-27.2737673" lon="151.2899052">
  <ele>344.61</ele>
  <time>2026-09-01T19:57:57Z</time>
  <course>178.76</course>
  <speed>0.1044030650891055</speed>
  <fix>3d</fix>
</trkpt>
<trkpt lat="-27.2737675" lon="151.2899056">
  <ele>344.71</ele>
  <time>2026-09-01T19:57:57Z</time>
  <course>2.31</course>
  <speed>0.08</speed>
  <fix>3d</fix>
</trkpt>
<trkpt lat="-27.2737672" lon="151.2899052">
  <ele>344.56</ele>
  <time>2026-09-01T19:57:57Z</time>
  <course>178.77</course>
  <speed>0.09486832980505139</speed>
  <fix>3d</fix>
</trkpt>
<trkpt lat="-27.2737675" lon="151.2899056">
  <ele>344.71</ele>
  <time>2026-09-01T19:57:57Z</time>
  <course>2.31</course>
  <speed>0.08</speed>
  <fix>3d</fix>
</trkpt>
<trkpt lat="-27.2737671" lon="151.2899052">
  <ele>344.51</ele>
  <time>2026-09-01T19:57:57Z</time>
  <course>178.78</course>
  <speed>0.09486832980505139</speed>
  <fix>3d</fix>
</trkpt>
<trkpt lat="-27.2737673" lon="151.2899056">
  <ele>344.61</ele>
  <time>2026-09-01T19:57:57Z</time>
  <course>1.61</course>
  <speed>0.07</speed>
  <fix>3d</fix>
</trkpt>
<trkpt lat="-27.2737671" lon="151.2899052">
  <ele>344.46</ele>
  <time>2026-09-01T19:57:57Z</time>
  <course>178.79</course>
  <speed>0.0854400374531753</speed>
  <fix>3d</fix>
</trkpt>
<trkpt lat="-27.2737673" lon="151.2899056">
  <ele>344.61</ele>
  <time>2026-09-01T19:57:57Z</time>
  <course>1.61</course>
  <speed>0.07</speed>
  <fix>3d</fix>
</trkpt>
<trkpt lat="-27.273767" lon="151.2899052">
  <ele>344.41</ele>
  <time>2026-09-01T19:57:57Z</time>
  <course>178.81</course>
  <speed>0.0854400374531753</speed>
  <fix>3d</fix>
</trkpt>
<trkpt lat="-27.2737672" lon="151.2899056">
  <ele>344.51</ele>
  <time>2026-09-01T19:57:57Z</time>
  <course>0.82</course>
  <speed>0.06</speed>
  <fix>3d</fix>
</trkpt>
<trkpt lat="-27.2737669" lon="151.2899052">
  <ele>344.36</ele>
  <time>2026-09-01T19:57:57Z</time>
  <course>178.82</course>
  <speed>0.0854400374531753</speed>
  <fix>3d</fix>
</trkpt>
<trkpt lat="-27.2737672" lon="151.2899056">
  <ele>344.51</ele>
  <time>2026-09-01T19:57:57Z</time>
  <course>0.82</course>
  <speed>0.06</speed>
  <fix>3d</fix>
</trkpt>
<trkpt lat="-27.2737669" lon="151.2899052">
  <ele>344.31</ele>
  <time>2026-09-01T19:57:57Z</time>
  <course>178.82</course>
  <speed>0.07615773105863909</speed>
  <fix>3d</fix>
</trkpt>
<trkpt lat="-27.2737671" lon="151.2899056">
  <ele>344.4</ele>
  <time>2026-09-01T19:57:57Z</time>
  <course>359.54</course>
  <speed>0.05</speed>
  <fix>3d</fix>
</trkpt>
<trkpt lat="-27.2737669" lon="151.2899052">
  <ele>344.26</ele>
  <time>2026-09-01T19:57:57Z</time>
  <course>178.82</course>
  <speed>0.07615773105863909</speed>
  <fix>3d</fix>
</trkpt>
<trkpt lat="-27.2737671" lon="151.2899056">
  <ele>344.4</ele>
  <time>2026-09-01T19:57:57Z</time>
  <course>359.54</course>
  <speed>0.05</speed>
  <fix>3d</fix>
</trkpt>
<trkpt lat="-27.2737668" lon="151.2899052">
  <ele>344.21</ele>
  <time>2026-09-01T19:57:57Z</time>
  <course>178.83</course>
  <speed>0.0670820393249937</speed>
  <fix>3d</fix>
</trkpt>
<trkpt lat="-27.273767" lon="151.2899056">
  <ele>344.31</ele>
  <time>2026-09-01T19:57:57Z</time>
  <course>357.84</course>
  <speed>0.05</speed>
  <fix>3d</fix>
</trkpt>
<trkpt lat="-27.2737668" lon="151.2899052">
  <ele>344.16</ele>
  <time>2026-09-01T19:57:57Z</time>
  <course>178.84</course>
  <speed>0.0670820393249937</speed>
  <fix>3d</fix>
</trkpt>
<trkpt lat="-27.273767" lon="151.2899056">
  <ele>344.31</ele>
  <time>2026-09-01T19:57:57Z</time>
  <course>357.84</course>
  <speed>0.05</speed>
  <fix>3d</fix>
</trkpt>
<trkpt lat="-27.2737667" lon="151.2899052">
  <ele>344.11</ele>
  <time>2026-09-01T19:57:57Z</time>
  <course>178.86</course>
  <speed>0.05830951894845301</speed>
  <fix>3d</fix>
</trkpt>
<trkpt lat="-27.2737669" lon="151.2899056">
  <ele>344.21</ele>
  <time>2026-09-01T19:57:57Z</time>
  <course>356.67</course>
  <speed>0.04</speed>
  <fix>3d</fix>
</trkpt>
<trkpt lat="-27.2737667" lon="151.2899052">
  <ele>344.06</ele>
  <time>2026-09-01T19:57:57Z</time>
  <course>178.87</course>
  <speed>0.05830951894845301</speed>
  <fix>3d</fix>
</trkpt>
<trkpt lat="-27.2737669" lon="151.2899056">
  <ele>344.21</ele>
  <time>2026-09-01T19:57:57Z</time>
  <course>356.67</course>
  <speed>0.04</speed>
  <fix>3d</fix>
</trkpt>
<trkpt lat="-27.2737667" lon="151.2899052">
  <ele>344.01</ele>
  <time>2026-09-01T19:57:57Z</time>
  <course>178.88</course>
  <speed>0.05</speed>
  <fix>3d</fix>
</trkpt>
<trkpt lat="-27.2737668" lon="151.2899056">
  <ele>344.11</ele>
  <time>2026-09-01T19:57:57Z</time>
  <course>355.82</course>
  <speed>0.03</speed>
  <fix>3d</fix>
</trkpt>
<trkpt lat="-27.2737667" lon="151.2899052">
  <ele>343.96</ele>
  <time>2026-09-01T19:57:57Z</time>
  <course>178.88</course>
  <speed>0.05</speed>
  <fix>3d</fix>
</trkpt>
<trkpt lat="-27.2737668" lon="151.2899056">
  <ele>344.11</ele>
  <time>2026-09-01T19:57:57Z</time>
  <course>355.82</course>
  <speed>0.03</speed>
  <fix>3d</fix>
</trkpt>
<trkpt lat="-27.2737666" lon="151.2899052">
  <ele>343.91</ele>
  <time>2026-09-01T19:57:57Z</time>
  <course>178.89</course>
  <speed>0.05</speed>
  <fix>3d</fix>
</trkpt>
<trkpt lat="-27.2737668" lon="151.2899056">
  <ele>344.01</ele>
  <time>2026-09-01T19:57:57Z</time>
  <course>354.43</course>
  <speed>0.02</speed>
  <fix>3d</fix>
</trkpt>
<trkpt lat="-27.2737666" lon="151.2899052">
  <ele>343.86</ele>
  <time>2026-09-01T19:57:57Z</time>
  <course>178.88</course>
  <speed>0.03605551275463989</speed>
  <fix>3d</fix>
</trkpt>
<trkpt lat="-27.2737668" lon="151.2899056">
  <ele>344.01</ele>
  <time>2026-09-01T19:57:57Z</time>
  <course>354.43</course>
  <speed>0.02</speed>
  <fix>3d</fix>
</trkpt>
<trkpt lat="-27.2737666" lon="151.2899052">
  <ele>343.81</ele>
  <time>2026-09-01T19:57:57Z</time>
  <course>178.88</course>
  <speed>0.03605551275463989</speed>
  <fix>3d</fix>
</trkpt>
<trkpt lat="-27.2737668" lon="151.2899056">
  <ele>343.9</ele>
  <time>2026-09-01T19:57:57Z</time>
  <course>351.78</course>
  <speed>0.01</speed>
  <fix>3d</fix>
</trkpt>
<trkpt lat="-27.2737666" lon="151.2899053">
  <ele>343.76</ele>
  <time>2026-09-01T19:57:57Z</time>
  <course>178.87</course>
  <speed>0.0282842712474619</speed>
  <fix>3d</fix>
</trkpt>
<trkpt lat="-27.2737668" lon="151.2899056">
  <ele>343.9</ele>
  <time>2026-09-01T19:57:57Z</time>
  <course>351.78</course>
  <speed>0.01</speed>
  <fix>3d</fix>
</trkpt>
<trkpt lat="-27.2737666" lon="151.2899053">
  <ele>343.71</ele>
  <time>2026-09-01T19:57:57Z</time>
  <course>178.86</course>
  <speed>0.0282842712474619</speed>
  <fix>3d</fix>
</trkpt>
<trkpt lat="-27.2737668" lon="151.2899056">
  <ele>343.81</ele>
  <time>2026-09-01T19:57:57Z</time>
  <course>346.41</course>
  <speed>0.0</speed>
  <fix>3d</fix>
</trkpt>
<trkpt lat="-27.2737666" lon="151.2899053">
  <ele>343.66</ele>
  <time>2026-09-01T19:57:57Z</time>
  <course>178.86</course>
  <speed>0.0282842712474619</speed>
  <fix>3d</fix>
</trkpt>
<trkpt lat="-27.2737668" lon="151.2899056">
  <ele>343.81</ele>
  <time>2026-09-01T19:57:57Z</time>
  <course>346.41</course>
  <speed>0.0</speed>
  <fix>3d</fix>
</trkpt>
<trkpt lat="-27.2737666" lon="151.2899053">
  <ele>343.61</ele>
  <time>2026-09-01T19:57:57Z</time>
  <course>178.87</course>
  <speed>0.022360679774997897</speed>
  <fix>3d</fix>
</trkpt>
<trkpt lat="-27.2737668" lon="151.2899056">
  <ele>343.71</ele>
  <time>2026-09-01T19:57:57Z</time>
  <course>334.21</course>
  <speed>0.0</speed>
  <fix>3d</fix>
</trkpt>
<trkpt lat="-27.2737666" lon="151.2899053">
  <ele>343.56</ele>
  <time>2026-09-01T19:57:57Z</time>
  <course>178.92</course>
  <speed>0.022360679774997897</speed>
  <fix>3d</fix>
</trkpt>
<trkpt lat="-27.2737668" lon="151.2899056">
  <ele>343.71</ele>
  <time>2026-09-01T19:57:57Z</time>
  <course>334.21</course>
  <speed>0.0</speed>
  <fix>3d</fix>
</trkpt>
<trkpt lat="-27.2737666" lon="151.2899053">
  <ele>343.51</ele>
  <time>2026-09-01T19:57:57Z</time>
  <course>179.0</course>
  <speed>0.022360679774997897</speed>
  <fix>3d</fix>
</trkpt>
<trkpt lat="-27.2737668" lon="151.2899056">
  <ele>343.61</ele>
  <time>2026-09-01T19:57:57Z</time>
  <course>141.47</course>
  <speed>0.0</speed>
  <fix>3d</fix>
</trkpt>
<trkpt lat="-27.2737666" lon="151.2899053">
  <ele>343.46</ele>
  <time>2026-09-01T19:57:57Z</time>
  <course>179.08</course>
  <speed>0.01414213562373095</speed>
  <fix>3d</fix>
</trkpt>
<trkpt lat="-27.2737668" lon="151.2899056">
  <ele>343.61</ele>
  <time>2026-09-01T19:57:57Z</time>
  <course>141.47</course>
  <speed>0.0</speed>
  <fix>3d</fix>
</trkpt>
<trkpt lat="-27.2737666" lon="151.2899053">
  <ele>343.41</ele>
  <time>2026-09-01T19:57:57Z</time>
  <course>179.16</course>
  <speed>0.01414213562373095</speed>
  <fix>3d</fix>
</trkpt>
<trkpt lat="-27.2737668" lon="151.2899056">
  <ele>343.51</ele>
  <time>2026-09-01T19:57:57Z</time>
  <course>133.22</course>
  <speed>0.01</speed>
  <fix>3d</fix>
</trkpt>
<trkpt lat="-27.2737666" lon="151.2899053">
  <ele>343.36</ele>
  <time>2026-09-01T19:57:57Z</time>
  <course>179.21</course>
  <speed>0.01</speed>
  <fix>3d</fix>
</trkpt>
<trkpt lat="-27.2737668" lon="151.2899056">
  <ele>343.51</ele>
  <time>2026-09-01T19:57:57Z</time>
  <course>133.22</course>
  <speed>0.01</speed>
  <fix>3d</fix>
</trkpt>
<trkpt lat="-27.2737666" lon="151.2899053">
  <ele>343.31</ele>
  <time>2026-09-01T19:57:57Z</time>
  <course>179.25</course>
  <speed>0.01</speed>
  <fix>3d</fix>
</trkpt>
<trkpt lat="-27.2737668" lon="151.2899056">
  <ele>343.4</ele>
  <time>2026-09-01T19:57:57Z</time>
  <course>131.94</course>
  <speed>0.01</speed>
  <fix>3d</fix>
</trkpt>
<trkpt lat="-27.2737666" lon="151.2899053">
  <ele>343.26</ele>
  <time>2026-09-01T19:57:57Z</time>
  <course>179.26</course>
  <speed>0.01</speed>
  <fix>3d</fix>
</trkpt>
<trkpt lat="-27.2737668" lon="151.2899056">
  <ele>343.4</ele>
  <time>2026-09-01T19:57:57Z</time>
  <course>131.94</course>
  <speed>0.01</speed>
  <fix>3d</fix>
</trkpt>
<trkpt lat="-27.2737666" lon="151.2899053">
  <ele>343.21</ele>
  <time>2026-09-01T19:57:57Z</time>
  <course>179.25</course>
  <speed>0.01</speed>
  <fix>3d</fix>
</trkpt>
<trkpt lat="-27.2737668" lon="151.2899056">
  <ele>343.31</ele>
  <time>2026-09-01T19:57:57Z</time>
  <course>133.33</course>
  <speed>0.02</speed>
  <fix>3d</fix>
</trkpt>
<trkpt lat="-27.2737666" lon="151.2899054">
  <ele>343.16</ele>
  <time>2026-09-01T19:57:57Z</time>
  <course>179.24</course>
  <speed>0.0</speed>
  <fix>3d</fix>
</trkpt>
<trkpt lat="-27.2737668" lon="151.2899056">
  <ele>343.31</ele>
  <time>2026-09-01T19:57:57Z</time>
  <course>133.33</course>
  <speed>0.02</speed>
  <fix>3d</fix>
</trkpt>
<trkpt lat="-27.2737666" lon="151.2899054">
  <ele>343.11</ele>
  <time>2026-09-01T19:57:57Z</time>
  <course>179.21</course>
  <speed>0.0</speed>
  <fix>3d</fix>
</trkpt>
<trkpt lat="-27.2737668" lon="151.2899056">
  <ele>343.21</ele>
  <time>2026-09-01T19:57:57Z</time>
  <course>134.11</course>
  <speed>0.02</speed>
  <fix>3d</fix>
</trkpt>
<trkpt lat="-27.2737667" lon="151.2899054">
  <ele>343.06</ele>
  <time>2026-09-01T19:57:57Z</time>
  <course>179.19</course>
  <speed>0.0</speed>
  <fix>3d</fix>
</trkpt>
<trkpt lat="-27.2737668" lon="151.2899056">
  <ele>343.21</ele>
  <time>2026-09-01T19:57:57Z</time>
  <course>134.11</course>
  <speed>0.02</speed>
  <fix>3d</fix>
</trkpt>
<trkpt lat="-27.2737667" lon="151.2899054">
  <ele>343.02</ele>
  <time>2026-09-01T19:57:57Z</time>
  <course>179.17</course>
  <speed>0.01</speed>
  <fix>3d</fix>
</trkpt>
<trkpt lat="-27.2737668" lon="151.2899056">
  <ele>343.11</ele>
  <time>2026-09-01T19:57:57Z</time>
  <course>134.85</course>
  <speed>0.02</speed>
  <fix>3d</fix>
</trkpt>
<trkpt lat="-27.2737667" lon="151.2899054">
  <ele>343.01</ele>
  <time>2026-09-01T19:57:57Z</time>
  <course>179.17</course>
  <speed>0.0282842712474619</speed>
  <fix>3d</fix>
</trkpt>
<trkpt lat="-27.2737668" lon="151.2899056">
  <ele>343.11</ele>
  <time>2026-09-01T19:57:57Z</time>
  <course>134.85</course>
  <speed>0.02</speed>
  <fix>3d</fix>
</trkpt>
<trkpt lat="-27.2737666" lon="151.2899054">
  <ele>343.02</ele>
  <time>2026-09-01T19:57:57Z</time>
  <course>179.18</course>
  <speed>0.03605551275463989</speed>
  <fix>3d</fix>
</trkpt>
<trkpt lat="-27.2737668" lon="151.2899057">
  <ele>343.06</ele>
  <time>2026-09-01T19:57:57Z</time>
  <course>135.8</course>
  <speed>0.0</speed>
  <fix>3d</fix>
</trkpt>
<trkpt lat="-27.2737666" lon="151.2899054">
  <ele>343.03</ele>
  <time>2026-09-01T19:57:57Z</time>
  <course>179.18</course>
  <speed>0.03605551275463989</speed>
  <fix>3d</fix>
</trkpt>
<trkpt lat="-27.2737668" lon="151.2899057">
  <ele>343.06</ele>
  <time>2026-09-01T19:57:57Z</time>
  <course>135.8</course>
  <speed>0.0</speed>
  <fix>3d</fix>
</trkpt>
<trkpt lat="-27.2737666" lon="151.2899054">
  <ele>343.04</ele>
  <time>2026-09-01T19:57:57Z</time>
  <course>179.18</course>
  <speed>0.0282842712474619</speed>
  <fix>3d</fix>
</trkpt>
<trkpt lat="-27.2737668" lon="151.2899057">
  <ele>343.07</ele>
  <time>2026-09-01T19:57:57Z</time>
  <course>315.78</course>
  <speed>0.0</speed>
  <fix>3d</fix>
</trkpt>
<trkpt lat="-27.2737666" lon="151.2899054">
  <ele>343.04</ele>
  <time>2026-09-01T19:57:57Z</time>
  <course>179.18</course>
  <speed>0.0282842712474619</speed>
  <fix>3d</fix>
</trkpt>
<trkpt lat="-27.2737668" lon="151.2899057">
  <ele>343.07</ele>
  <time>2026-09-01T19:57:57Z</time>
  <course>315.78</course>
  <speed>0.0</speed>
  <fix>3d</fix>
</trkpt>
<trkpt lat="-27.2737666" lon="151.2899054">
  <ele>343.03</ele>
  <time>2026-09-01T19:57:57Z</time>
  <course>179.18</course>
  <speed>0.0282842712474619</speed>
  <fix>3d</fix>
</trkpt>
<trkpt lat="-27.2737668" lon="151.2899057">
  <ele>343.08</ele>
  <time>2026-09-01T19:57:57Z</time>
  <course>315.85</course>
  <speed>0.0</speed>
  <fix>3d</fix>
</trkpt>
<trkpt lat="-27.2737666" lon="151.2899054">
  <ele>343.03</ele>
  <time>2026-09-01T19:57:57Z</time>
  <course>179.18</course>
  <speed>0.0282842712474619</speed>
  <fix>3d</fix>
</trkpt>
<trkpt lat="-27.2737668" lon="151.2899057">
  <ele>343.08</ele>
  <time>2026-09-01T19:57:57Z</time>
  <course>315.85</course>
  <speed>0.0</speed>
  <fix>3d</fix>
</trkpt>
<trkpt lat="-27.2737666" lon="151.2899054">
  <ele>343.03</ele>
  <time>2026-09-01T19:57:57Z</time>
  <course>179.19</course>
  <speed>0.0282842712474619</speed>
  <fix>3d</fix>
</trkpt>
<trkpt lat="-27.2737668" lon="151.2899057">
  <ele>343.08</ele>
  <time>2026-09-01T19:57:57Z</time>
  <course>135.79</course>
  <speed>0.0</speed>
  <fix>3d</fix>
</trkpt>
<trkpt lat="-27.2737666" lon="151.2899054">
  <ele>343.03</ele>
  <time>2026-09-01T19:57:57Z</time>
  <course>179.19</course>
  <speed>0.0282842712474619</speed>
  <fix>3d</fix>
</trkpt>
<trkpt lat="-27.2737668" lon="151.2899057">
  <ele>343.08</ele>
  <time>2026-09-01T19:57:57Z</time>
  <course>135.79</course>
  <speed>0.0</speed>
  <fix>3d</fix>
</trkpt>
<trkpt lat="-27.2737666" lon="151.2899054">
  <ele>343.03</ele>
  <time>2026-09-01T19:57:57Z</time>
  <course>179.19</course>
  <speed>0.0282842712474619</speed>
  <fix>3d</fix>
</trkpt>
<trkpt lat="-27.2737668" lon="151.2899057">
  <ele>343.08</ele>
  <time>2026-09-01T19:57:57Z</time>
  <course>315.75</course>
  <speed>0.0</speed>
  <fix>3d</fix>
</trkpt>
<trkpt lat="-27.2737666" lon="151.2899054">
  <ele>343.04</ele>
  <time>2026-09-01T19:57:57Z</time>
  <course>179.19</course>
  <speed>0.0282842712474619</speed>
  <fix>3d</fix>
</trkpt>
<trkpt lat="-27.2737668" lon="151.2899057">
  <ele>343.08</ele>
  <time>2026-09-01T19:57:57Z</time>
  <course>315.75</course>
  <speed>0.0</speed>
  <fix>3d</fix>
</trkpt>
<trkpt lat="-27.2737666" lon="151.2899054">
  <ele>343.04</ele>
  <time>2026-09-01T19:57:57Z</time>
  <course>179.2</course>
  <speed>0.0282842712474619</speed>
  <fix>3d</fix>
</trkpt>
<trkpt lat="-27.2737668" lon="151.2899057">
  <ele>343.08</ele>
  <time>2026-09-01T19:57:57Z</time>
  <course>315.78</course>
  <speed>0.0</speed>
  <fix>3d</fix>
</trkpt>
<trkpt lat="-27.2737666" lon="151.2899054">
  <ele>343.04</ele>
  <time>2026-09-01T19:57:57Z</time>
  <course>179.2</course>
  <speed>0.0282842712474619</speed>
  <fix>3d</fix>
</trkpt>
<trkpt lat="-27.2737668" lon="151.2899057">
  <ele>343.08</ele>
  <time>2026-09-01T19:57:57Z</time>
  <course>315.78</course>
  <speed>0.0</speed>
  <fix>3d</fix>
</trkpt>
<trkpt lat="-27.2737666" lon="151.2899054">
  <ele>343.04</ele>
  <time>2026-09-01T19:57:57Z</time>
  <course>179.2</course>
  <speed>0.0282842712474619</speed>
  <fix>3d</fix>
</trkpt>
<trkpt lat="-27.2737668" lon="151.2899057">
  <ele>343.08</ele>
  <time>2026-09-01T19:57:57Z</time>
  <course>135.76</course>
  <speed>0.0</speed>
  <fix>3d</fix>
</trkpt>
<trkpt lat="-27.2737666" lon="151.2899054">
  <ele>343.04</ele>
  <time>2026-09-01T19:57:57Z</time>
  <course>179.2</course>
  <speed>0.0282842712474619</speed>
  <fix>3d</fix>
</trkpt>
<trkpt lat="-27.2737668" lon="151.2899057">
  <ele>343.08</ele>
  <time>2026-09-01T19:57:57Z</time>
  <course>135.76</course>
  <speed>0.0</speed>
  <fix>3d</fix>
</trkpt>
<trkpt lat="-27.2737666" lon="151.2899054">
  <ele>343.04</ele>
  <time>2026-09-01T19:57:57Z</time>
  <course>179.21</course>
  <speed>0.0282842712474619</speed>
  <fix>3d</fix>
</trkpt>
<trkpt lat="-27.2737668" lon="151.2899057">
  <ele>343.08</ele>
  <time>2026-09-01T19:57:57Z</time>
  <course>135.74</course>
  <speed>0.0</speed>
  <fix>3d</fix>
</trkpt>
<trkpt lat="-27.2737666" lon="151.2899054">
  <ele>343.04</ele>
  <time>2026-09-01T19:57:57Z</time>
  <course>179.21</course>
  <speed>0.0282842712474619</speed>
  <fix>3d</fix>
</trkpt>
<trkpt lat="-27.2737668" lon="151.2899057">
  <ele>343.08</ele>
  <time>2026-09-01T19:57:57Z</time>
  <course>135.74</course>
  <speed>0.0</speed>
  <fix>3d</fix>
</trkpt>
<trkpt lat="-27.2737666" lon="151.2899054">
  <ele>343.04</ele>
  <time>2026-09-01T19:57:57Z</time>
  <course>179.21</course>
  <speed>0.0282842712474619</speed>
  <fix>3d</fix>
</trkpt>
<trkpt lat="-27.2737668" lon="151.2899057">
  <ele>343.08</ele>
  <time>2026-09-01T19:57:57Z</time>
  <course>315.96</course>
  <speed>0.0</speed>
  <fix>3d</fix>
</trkpt>
<trkpt lat="-27.2737666" lon="151.2899054">
  <ele>343.04</ele>
  <time>2026-09-01T19:57:57Z</time>
  <course>179.22</course>
  <speed>0.0282842712474619</speed>
  <fix>3d</fix>
</trkpt>
<trkpt lat="-27.2737668" lon="151.2899057">
  <ele>343.08</ele>
  <time>2026-09-01T19:57:57Z</time>
  <course>315.96</course>
  <speed>0.0</speed>
  <fix>3d</fix>
</trkpt>
<trkpt lat="-27.2737666" lon="151.2899054">
  <ele>343.04</ele>
  <time>2026-09-01T19:57:57Z</time>
  <course>179.22</course>
  <speed>0.0282842712474619</speed>
  <fix>3d</fix>
</trkpt>
<trkpt lat="-27.2737668" lon="151.2899057">
  <ele>343.08</ele>
  <time>2026-09-01T19:57:57Z</time>
  <course>318.01</course>
  <speed>0.0</speed>
  <fix>3d</fix>
</trkpt>
<trkpt lat="-27.2737666" lon="151.2899054">
  <ele>343.04</ele>
  <time>2026-09-01T19:57:57Z</time>
  <course>179.22</course>
  <speed>0.0282842712474619</speed>
  <fix>3d</fix>
</trkpt>
<trkpt lat="-27.2737668" lon="151.2899057">
  <ele>343.08</ele>
  <time>2026-09-01T19:57:57Z</time>
  <course>318.01</course>
  <speed>0.0</speed>
  <fix>3d</fix>
</trkpt>
<trkpt lat="-27.2737666" lon="151.2899054">
  <ele>343.05</ele>
  <time>2026-09-01T19:57:57Z</time>
  <course>179.23</course>
  <speed>0.0282842712474619</speed>
  <fix>3d</fix>
</trkpt>
<trkpt lat="-27.2737668" lon="151.2899057">
  <ele>343.08</ele>
  <time>2026-09-01T19:57:57Z</time>
  <course>134.34</course>
  <speed>0.0</speed>
  <fix>3d</fix>
</trkpt>
<trkpt lat="-27.2737666" lon="151.2899054">
  <ele>343.05</ele>
  <time>2026-09-01T19:57:57Z</time>
  <course>179.23</course>
  <speed>0.0282842712474619</speed>
  <fix>3d</fix>
</trkpt>
<trkpt lat="-27.2737668" lon="151.2899057">
  <ele>343.08</ele>
  <time>2026-09-01T19:57:57Z</time>
  <course>134.34</course>
  <speed>0.0</speed>
  <fix>3d</fix>
</trkpt>
<trkpt lat="-27.2737666" lon="151.2899054">
  <ele>343.05</ele>
  <time>2026-09-01T19:57:57Z</time>
  <course>179.23</course>
  <speed>0.0282842712474619</speed>
  <fix>3d</fix>
</trkpt>
<trkpt lat="-27.2737668" lon="151.2899057">
  <ele>343.08</ele>
  <time>2026-09-01T19:57:57Z</time>
  <course>294.86</course>
  <speed>0.0</speed>
  <fix>3d</fix>
</trkpt>
<trkpt lat="-27.2737666" lon="151.2899054">
  <ele>343.05</ele>
  <time>2026-09-01T19:57:57Z</time>
  <course>179.24</course>
  <speed>0.0282842712474619</speed>
  <fix>3d</fix>
</trkpt>
<trkpt lat="-27.2737668" lon="151.2899057">
  <ele>343.08</ele>
  <time>2026-09-01T19:57:57Z</time>
  <course>294.86</course>
  <speed>0.0</speed>
  <fix>3d</fix>
</trkpt>
<trkpt lat="-27.2737666" lon="151.2899054">
  <ele>343.05</ele>
  <time>2026-09-01T19:57:57Z</time>
  <course>179.24</course>
  <speed>0.0282842712474619</speed>
  <fix>3d</fix>
</trkpt>
<trkpt lat="-27.2737668" lon="151.2899057">
  <ele>343.08</ele>
  <time>2026-09-01T19:57:57Z</time>
  <course>304.3</course>
  <speed>0.0</speed>
  <fix>3d</fix>
</trkpt>
<trkpt lat="-27.2737666" lon="151.2899054">
  <ele>343.05</ele>
  <time>2026-09-01T19:57:57Z</time>
  <course>179.24</course>
  <speed>0.0282842712474619</speed>
  <fix>3d</fix>
</trkpt>
<trkpt lat="-27.2737668" lon="151.2899057">
  <ele>343.08</ele>
  <time>2026-09-01T19:57:57Z</time>
  <course>304.3</course>
  <speed>0.0</speed>
  <fix>3d</fix>
</trkpt>
<trkpt lat="-27.2737666" lon="151.2899054">
  <ele>343.05</ele>
  <time>2026-09-01T19:57:57Z</time>
  <course>179.25</course>
  <speed>0.0282842712474619</speed>
  <fix>3d</fix>
</trkpt>
<trkpt lat="-27.2737668" lon="151.2899057">
  <ele>343.08</ele>
  <time>2026-09-01T19:57:57Z</time>
  <course>319.53</course>
  <speed>0.0</speed>
  <fix>3d</fix>
</trkpt>
<trkpt lat="-27.2737666" lon="151.2899054">
  <ele>343.05</ele>
  <time>2026-09-01T19:57:57Z</time>
  <course>179.25</course>
  <speed>0.0282842712474619</speed>
  <fix>3d</fix>
</trkpt>
<trkpt lat="-27.2737668" lon="151.2899057">
  <ele>343.08</ele>
  <time>2026-09-01T19:57:57Z</time>
  <course>319.53</course>
  <speed>0.0</speed>
  <fix>3d</fix>
</trkpt>
<trkpt lat="-27.2737666" lon="151.2899054">
  <ele>343.05</ele>
  <time>2026-09-01T19:57:57Z</time>
  <course>179.26</course>
  <speed>0.0282842712474619</speed>
  <fix>3d</fix>
</trkpt>
<trkpt lat="-27.2737668" lon="151.2899057">
  <ele>343.08</ele>
  <time>2026-09-01T19:57:57Z</time>
  <course>322.08</course>
  <speed>0.0</speed>
  <fix>3d</fix>
</trkpt>
<trkpt lat="-27.2737666" lon="151.2899054">
  <ele>343.05</ele>
  <time>2026-09-01T19:57:57Z</time>
  <course>179.26</course>
  <speed>0.0282842712474619</speed>
  <fix>3d</fix>
</trkpt>
<trkpt lat="-27.2737668" lon="151.2899057">
  <ele>343.08</ele>
  <time>2026-09-01T19:57:57Z</time>
  <course>322.08</course>
  <speed>0.0</speed>
  <fix>3d</fix>
</trkpt>
<trkpt lat="-27.2737666" lon="151.2899054">
  <ele>343.05</ele>
  <time>2026-09-01T19:57:57Z</time>
  <course>179.26</course>
  <speed>0.0282842712474619</speed>
  <fix>3d</fix>
</trkpt>
<trkpt lat="-27.2737668" lon="151.2899057">
  <ele>343.08</ele>
  <time>2026-09-01T19:57:57Z</time>
  <course>313.37</course>
  <speed>0.0</speed>
  <fix>3d</fix>
</trkpt>
<trkpt lat="-27.2737666" lon="151.2899054">
  <ele>343.05</ele>
  <time>2026-09-01T19:57:57Z</time>
  <course>179.27</course>
  <speed>0.0282842712474619</speed>
  <fix>3d</fix>
</trkpt>
<trkpt lat="-27.2737668" lon="151.2899057">
  <ele>343.08</ele>
  <time>2026-09-01T19:57:57Z</time>
  <course>313.37</course>
  <speed>0.0</speed>
  <fix>3d</fix>
</trkpt>
<trkpt lat="-27.2737666" lon="151.2899054">
  <ele>343.05</ele>
  <time>2026-09-01T19:57:57Z</time>
  <course>179.27</course>
  <speed>0.0282842712474619</speed>
  <fix>3d</fix>
</trkpt>
<trkpt lat="-27.2737668" lon="151.2899057">
  <ele>343.08</ele>
  <time>2026-09-01T19:57:57Z</time>
  <course>128.93</course>
  <speed>0.0</speed>
  <fix>3d</fix>
</trkpt>
<trkpt lat="-27.2737666" lon="151.2899054">
  <ele>343.05</ele>
  <time>2026-09-01T19:57:57Z</time>
  <course>179.28</course>
  <speed>0.0282842712474619</speed>
  <fix>3d</fix>
</trkpt>
<trkpt lat="-27.2737668" lon="151.2899057">
  <ele>343.08</ele>
  <time>2026-09-01T19:57:57Z</time>
  <course>128.93</course>
  <speed>0.0</speed>
  <fix>3d</fix>
</trkpt>
<trkpt lat="-27.2737666" lon="151.2899054">
  <ele>343.05</ele>
  <time>2026-09-01T19:57:57Z</time>
  <course>179.28</course>
  <speed>0.0282842712474619</speed>
  <fix>3d</fix>
</trkpt>
<trkpt lat="-27.2737668" lon="151.2899057">
  <ele>343.08</ele>
  <time>2026-09-01T19:57:57Z</time>
  <course>129.53</course>
  <speed>0.0</speed>
  <fix>3d</fix>
</trkpt>
<trkpt lat="-27.2737666" lon="151.2899054">
  <ele>343.05</ele>
  <time>2026-09-01T19:57:57Z</time>
  <course>179.29</course>
  <speed>0.0282842712474619</speed>
  <fix>3d</fix>
</trkpt>
<trkpt lat="-27.2737668" lon="151.2899057">
  <ele>343.08</ele>
  <time>2026-09-01T19:57:57Z</time>
  <course>129.53</course>
  <speed>0.0</speed>
  <fix>3d</fix>
</trkpt>
<trkpt lat="-27.2737666" lon="151.2899054">
  <ele>343.05</ele>
  <time>2026-09-01T19:57:57Z</time>
  <course>179.29</course>
  <speed>0.0282842712474619</speed>
  <fix>3d</fix>
</trkpt>
<trkpt lat="-27.2737668" lon="151.2899057">
  <ele>343.08</ele>
  <time>2026-09-01T19:57:57Z</time>
  <course>130.38</course>
  <speed>0.0</speed>
  <fix>3d</fix>
</trkpt>
<trkpt lat="-27.2737666" lon="151.2899054">
  <ele>343.05</ele>
  <time>2026-09-01T19:57:57Z</time>
  <course>179.29</course>
  <speed>0.0282842712474619</speed>
  <fix>3d</fix>
</trkpt>
<trkpt lat="-27.2737668" lon="151.2899057">
  <ele>343.08</ele>
  <time>2026-09-01T19:57:57Z</time>
  <course>130.38</course>
  <speed>0.0</speed>
  <fix>3d</fix>
</trkpt>
<trkpt lat="-27.2737666" lon="151.2899054">
  <ele>343.05</ele>
  <time>2026-09-01T19:57:57Z</time>
  <course>179.3</course>
  <speed>0.0282842712474619</speed>
  <fix>3d</fix>
</trkpt>
<trkpt lat="-27.2737668" lon="151.2899057">
  <ele>343.08</ele>
  <time>2026-09-01T19:57:57Z</time>
  <course>309.71</course>
  <speed>0.0</speed>
  <fix>3d</fix>
</trkpt>
<trkpt lat="-27.2737666" lon="151.2899054">
  <ele>343.05</ele>
  <time>2026-09-01T19:57:57Z</time>
  <course>179.3</course>
  <speed>0.0282842712474619</speed>
  <fix>3d</fix>
</trkpt>
<trkpt lat="-27.2737668" lon="151.2899057">
  <ele>343.08</ele>
  <time>2026-09-01T19:57:57Z</time>
  <course>309.71</course>
  <speed>0.0</speed>
  <fix>3d</fix>
</trkpt>
<trkpt lat="-27.2737666" lon="151.2899054">
  <ele>343.05</ele>
  <time>2026-09-01T19:57:57Z</time>
  <course>179.31</course>
  <speed>0.0282842712474619</speed>
  <fix>3d</fix>
</trkpt>
<trkpt lat="-27.2737668" lon="151.2899057">
  <ele>343.08</ele>
  <time>2026-09-01T19:57:57Z</time>
  <course>311.09</course>
  <speed>0.0</speed>
  <fix>3d</fix>
</trkpt>
<trkpt lat="-27.2737666" lon="151.2899054">
  <ele>343.05</ele>
  <time>2026-09-01T19:57:57Z</time>
  <course>179.31</course>
  <speed>0.0282842712474619</speed>
  <fix>3d</fix>
</trkpt>
<trkpt lat="-27.2737668" lon="151.2899057">
  <ele>343.08</ele>
  <time>2026-09-01T19:57:57Z</time>
  <course>311.09</course>
  <speed>0.0</speed>
  <fix>3d</fix>
</trkpt>
<trkpt lat="-27.2737666" lon="151.2899054">
  <ele>343.05</ele>
  <time>2026-09-01T19:57:57Z</time>
  <course>179.32</course>
  <speed>0.0282842712474619</speed>
  <fix>3d</fix>
</trkpt>
<trkpt lat="-27.2737668" lon="151.2899057">
  <ele>343.08</ele>
  <time>2026-09-01T19:57:57Z</time>
  <course>129.83</course>
  <speed>0.0</speed>
  <fix>3d</fix>
</trkpt>
<trkpt lat="-27.2737666" lon="151.2899054">
  <ele>343.05</ele>
  <time>2026-09-01T19:57:57Z</time>
  <course>179.32</course>
  <speed>0.0282842712474619</speed>
  <fix>3d</fix>
</trkpt>
<trkpt lat="-27.2737668" lon="151.2899057">
  <ele>343.08</ele>
  <time>2026-09-01T19:57:57Z</time>
  <course>129.83</course>
  <speed>0.0</speed>
  <fix>3d</fix>
</trkpt>
<trkpt lat="-27.2737666" lon="151.2899054">
  <ele>343.05</ele>
  <time>2026-09-01T19:57:57Z</time>
  <course>179.33</course>
  <speed>0.0282842712474619</speed>
  <fix>3d</fix>
</trkpt>
<trkpt lat="-27.2737668" lon="151.2899057">
  <ele>343.08</ele>
  <time>2026-09-01T19:57:57Z</time>
  <course>303.05</course>
  <speed>0.0</speed>
  <fix>3d</fix>
</trkpt>
<trkpt lat="-27.2737666" lon="151.2899054">
  <ele>343.05</ele>
  <time>2026-09-01T19:57:57Z</time>
  <course>179.33</course>
  <speed>0.0282842712474619</speed>
  <fix>3d</fix>
</trkpt>
<trkpt lat="-27.2737668" lon="151.2899057">
  <ele>343.08</ele>
  <time>2026-09-01T19:57:57Z</time>
  <course>303.05</course>
  <speed>0.0</speed>
  <fix>3d</fix>
</trkpt>
<trkpt lat="-27.2737666" lon="151.2899054">
  <ele>343.05</ele>
  <time>2026-09-01T19:57:57Z</time>
  <course>179.34</course>
  <speed>0.0282842712474619</speed>
  <fix>3d</fix>
</trkpt>
<trkpt lat="-27.2737668" lon="151.2899057">
  <ele>343.08</ele>
  <time>2026-09-01T19:57:57Z</time>
  <course>309.95</course>
  <speed>0.0</speed>
  <fix>3d</fix>
</trkpt>
<trkpt lat="-27.2737666" lon="151.2899054">
  <ele>343.05</ele>
  <time>2026-09-01T19:57:57Z</time>
  <course>179.34</course>
  <speed>0.0282842712474619</speed>
  <fix>3d</fix>
</trkpt>
<trkpt lat="-27.2737668" lon="151.2899057">
  <ele>343.08</ele>
  <time>2026-09-01T19:57:57Z</time>
  <course>309.95</course>
  <speed>0.0</speed>
  <fix>3d</fix>
</trkpt>
<trkpt lat="-27.2737666" lon="151.2899054">
  <ele>343.05</ele>
  <time>2026-09-01T19:57:57Z</time>
  <course>179.34</course>
  <speed>0.0282842712474619</speed>
  <fix>3d</fix>
</trkpt>
<trkpt lat="-27.2737668" lon="151.2899057">
  <ele>343.08</ele>
  <time>2026-09-01T19:57:57Z</time>
  <course>128.99</course>
  <speed>0.0</speed>
  <fix>3d</fix>
</trkpt>
<trkpt lat="-27.2737666" lon="151.2899054">
  <ele>343.05</ele>
  <time>2026-09-01T19:57:57Z</time>
  <course>179.35</course>
  <speed>0.0282842712474619</speed>
  <fix>3d</fix>
</trkpt>
<trkpt lat="-27.2737668" lon="151.2899057">
  <ele>343.08</ele>
  <time>2026-09-01T19:57:57Z</time>
  <course>128.99</course>
  <speed>0.0</speed>
  <fix>3d</fix>
</trkpt>
<trkpt lat="-27.2737666" lon="151.2899054">
  <ele>343.06</ele>
  <time>2026-09-01T19:57:57Z</time>
  <course>179.35</course>
  <speed>0.0282842712474619</speed>
  <fix>3d</fix>
</trkpt>
<trkpt lat="-27.2737668" lon="151.2899057">
  <ele>343.08</ele>
  <time>2026-09-01T19:57:57Z</time>
  <course>130.09</course>
  <speed>0.0</speed>
  <fix>3d</fix>
</trkpt>
<trkpt lat="-27.2737666" lon="151.2899054">
  <ele>343.06</ele>
  <time>2026-09-01T19:57:57Z</time>
  <course>179.36</course>
  <speed>0.0282842712474619</speed>
  <fix>3d</fix>
</trkpt>
<trkpt lat="-27.2737668" lon="151.2899057">
  <ele>343.08</ele>
  <time>2026-09-01T19:57:57Z</time>
  <course>130.09</course>
  <speed>0.0</speed>
  <fix>3d</fix>
</trkpt>
<trkpt lat="-27.2737666" lon="151.2899054">
  <ele>343.06</ele>
  <time>2026-09-01T19:57:57Z</time>
  <course>179.36</course>
  <speed>0.0282842712474619</speed>
  <fix>3d</fix>
</trkpt>
<trkpt lat="-27.2737668" lon="151.2899057">
  <ele>343.08</ele>
  <time>2026-09-01T19:57:57Z</time>
  <course>309.46</course>
  <speed>0.0</speed>
  <fix>3d</fix>
</trkpt>
<trkpt lat="-27.2737666" lon="151.2899054">
  <ele>343.06</ele>
  <time>2026-09-01T19:57:57Z</time>
  <course>179.37</course>
  <speed>0.0282842712474619</speed>
  <fix>3d</fix>
</trkpt>
<trkpt lat="-27.2737668" lon="151.2899057">
  <ele>343.08</ele>
  <time>2026-09-01T19:57:57Z</time>
  <course>309.46</course>
  <speed>0.0</speed>
  <fix>3d</fix>
</trkpt>
<trkpt lat="-27.2737666" lon="151.2899054">
  <ele>343.06</ele>
  <time>2026-09-01T19:57:57Z</time>
  <course>179.37</course>
  <speed>0.0282842712474619</speed>
  <fix>3d</fix>
</trkpt>
<trkpt lat="-27.2737668" lon="151.2899057">
  <ele>343.08</ele>
  <time>2026-09-01T19:57:57Z</time>
  <course>310.29</course>
  <speed>0.0</speed>
  <fix>3d</fix>
</trkpt>
<trkpt lat="-27.2737666" lon="151.2899054">
  <ele>343.06</ele>
  <time>2026-09-01T19:57:57Z</time>
  <course>179.38</course>
  <speed>0.0282842712474619</speed>
  <fix>3d</fix>
</trkpt>
<trkpt lat="-27.2737668" lon="151.2899057">
  <ele>343.08</ele>
  <time>2026-09-01T19:57:57Z</time>
  <course>310.29</course>
  <speed>0.0</speed>
  <fix>3d</fix>
</trkpt>
<trkpt lat="-27.2737666" lon="151.2899054">
  <ele>343.06</ele>
  <time>2026-09-01T19:57:57Z</time>
  <course>179.38</course>
  <speed>0.0282842712474619</speed>
  <fix>3d</fix>
</trkpt>
<trkpt lat="-27.2737668" lon="151.2899057">
  <ele>343.08</ele>
  <time>2026-09-01T19:57:57Z</time>
  <course>129.67</course>
  <speed>0.0</speed>
  <fix>3d</fix>
</trkpt>
<trkpt lat="-27.2737666" lon="151.2899054">
  <ele>343.06</ele>
  <time>2026-09-01T19:57:57Z</time>
  <course>179.39</course>
  <speed>0.0282842712474619</speed>
  <fix>3d</fix>
</trkpt>
<trkpt lat="-27.2737668" lon="151.2899057">
  <ele>343.08</ele>
  <time>2026-09-01T19:57:57Z</time>
  <course>129.67</course>
  <speed>0.0</speed>
  <fix>3d</fix>
</trkpt>
<trkpt lat="-27.2737666" lon="151.2899054">
  <ele>343.06</ele>
  <time>2026-09-01T19:57:57Z</time>
  <course>179.39</course>
  <speed>0.0282842712474619</speed>
  <fix>3d</fix>
</trkpt>
<trkpt lat="-27.2737668" lon="151.2899057">
  <ele>343.08</ele>
  <time>2026-09-01T19:57:57Z</time>
  <course>130.78</course>
  <speed>0.0</speed>
  <fix>3d</fix>
</trkpt>
<trkpt lat="-27.2737666" lon="151.2899054">
  <ele>343.06</ele>
  <time>2026-09-01T19:57:57Z</time>
  <course>179.4</course>
  <speed>0.0282842712474619</speed>
  <fix>3d</fix>
</trkpt>
<trkpt lat="-27.2737668" lon="151.2899057">
  <ele>343.08</ele>
  <time>2026-09-01T19:57:57Z</time>
  <course>130.78</course>
  <speed>0.0</speed>
  <fix>3d</fix>
</trkpt>
<trkpt lat="-27.2737666" lon="151.2899054">
  <ele>343.06</ele>
  <time>2026-09-01T19:57:57Z</time>
  <course>179.38</course>
  <speed>0.0282842712474619</speed>
  <fix>3d</fix>
</trkpt>
<trkpt lat="-27.2737668" lon="151.2899057">
  <ele>343.08</ele>
  <time>2026-09-01T19:57:57Z</time>
  <course>309.78</course>
  <speed>0.0</speed>
  <fix>3d</fix>
</trkpt>
<trkpt lat="-27.2737666" lon="151.2899054">
  <ele>343.06</ele>
  <time>2026-09-01T19:57:57Z</time>
  <course>179.32</course>
  <speed>0.0282842712474619</speed>
  <fix>3d</fix>
</trkpt>
<trkpt lat="-27.2737668" lon="151.2899057">
  <ele>343.08</ele>
  <time>2026-09-01T19:57:57Z</time>
  <course>309.78</course>
  <speed>0.0</speed>
  <fix>3d</fix>
</trkpt>
<trkpt lat="-27.2737666" lon="151.2899054">
  <ele>343.06</ele>
  <time>2026-09-01T19:57:57Z</time>
  <course>179.22</course>
  <speed>0.0282842712474619</speed>
  <fix>3d</fix>
</trkpt>
<trkpt lat="-27.2737668" lon="151.2899057">
  <ele>343.08</ele>
  <time>2026-09-01T19:57:57Z</time>
  <course>315.71</course>
  <speed>0.0</speed>
  <fix>3d</fix>
</trkpt>
<trkpt lat="-27.2737666" lon="151.2899054">
  <ele>343.07</ele>
  <time>2026-09-01T19:57:57Z</time>
  <course>179.12</course>
  <speed>0.0282842712474619</speed>
  <fix>3d</fix>
</trkpt>
<trkpt lat="-27.2737668" lon="151.2899057">
  <ele>343.08</ele>
  <time>2026-09-01T19:57:57Z</time>
  <course>315.71</course>
  <speed>0.0</speed>
  <fix>3d</fix>
</trkpt>
<trkpt lat="-27.2737666" lon="151.2899054">
  <ele>343.07</ele>
  <time>2026-09-01T19:57:57Z</time>
  <course>179.03</course>
  <speed>0.0282842712474619</speed>
  <fix>3d</fix>
</trkpt>
<trkpt lat="-27.2737668" lon="151.2899057">
  <ele>343.08</ele>
  <time>2026-09-01T19:57:57Z</time>
  <course>130.04</course>
  <speed>0.0</speed>
  <fix>3d</fix>
</trkpt>
<trkpt lat="-27.2737666" lon="151.2899054">
  <ele>343.07</ele>
  <time>2026-09-01T19:57:57Z</time>
  <course>178.94</course>
  <speed>0.0282842712474619</speed>
  <fix>3d</fix>
</trkpt>
<trkpt lat="-27.2737668" lon="151.2899057">
  <ele>343.08</ele>
  <time>2026-09-01T19:57:57Z</time>
  <course>130.04</course>
  <speed>0.0</speed>
  <fix>3d</fix>
</trkpt>
<trkpt lat="-27.2737666" lon="151.2899054">
  <ele>343.07</ele>
  <time>2026-09-01T19:57:57Z</time>
  <course>178.87</course>
  <speed>0.0282842712474619</speed>
  <fix>3d</fix>
</trkpt>
<trkpt lat="-27.2737668" lon="151.2899057">
  <ele>343.08</ele>
  <time>2026-09-01T19:57:57Z</time>
  <course>307.32</course>
  <speed>0.0</speed>
  <fix>3d</fix>
</trkpt>
<trkpt lat="-27.2737666" lon="151.2899054">
  <ele>343.07</ele>
  <time>2026-09-01T19:57:57Z</time>
  <course>178.8</course>
  <speed>0.0282842712474619</speed>
  <fix>3d</fix>
</trkpt>
<trkpt lat="-27.2737668" lon="151.2899057">
  <ele>343.08</ele>
  <time>2026-09-01T19:57:57Z</time>
  <course>307.32</course>
  <speed>0.0</speed>
  <fix>3d</fix>
</trkpt>
<trkpt lat="-27.2737666" lon="151.2899054">
  <ele>343.07</ele>
  <time>2026-09-01T19:57:57Z</time>
  <course>178.74</course>
  <speed>0.0282842712474619</speed>
  <fix>3d</fix>
</trkpt>
<trkpt lat="-27.2737668" lon="151.2899057">
  <ele>343.08</ele>
  <time>2026-09-01T19:57:57Z</time>
  <course>308.95</course>
  <speed>0.0</speed>
  <fix>3d</fix>
</trkpt>
<trkpt lat="-27.2737666" lon="151.2899054">
  <ele>343.07</ele>
  <time>2026-09-01T19:57:57Z</time>
  <course>178.69</course>
  <speed>0.0282842712474619</speed>
  <fix>3d</fix>
</trkpt>
<trkpt lat="-27.2737668" lon="151.2899057">
  <ele>343.08</ele>
  <time>2026-09-01T19:57:57Z</time>
  <course>308.95</course>
  <speed>0.0</speed>
  <fix>3d</fix>
</trkpt>
<trkpt lat="-27.2737666" lon="151.2899054">
  <ele>343.07</ele>
  <time>2026-09-01T19:57:57Z</time>
  <course>178.64</course>
  <speed>0.0282842712474619</speed>
  <fix>3d</fix>
</trkpt>
<trkpt lat="-27.2737668" lon="151.2899057">
  <ele>343.08</ele>
  <time>2026-09-01T19:57:57Z</time>
  <course>134.41</course>
  <speed>0.0</speed>
  <fix>3d</fix>
</trkpt>
<trkpt lat="-27.2737666" lon="151.2899054">
  <ele>343.07</ele>
  <time>2026-09-01T19:57:57Z</time>
  <course>178.6</course>
  <speed>0.0282842712474619</speed>
  <fix>3d</fix>
</trkpt>
<trkpt lat="-27.2737668" lon="151.2899057">
  <ele>343.08</ele>
  <time>2026-09-01T19:57:57Z</time>
  <course>134.41</course>
  <speed>0.0</speed>
  <fix>3d</fix>
</trkpt>
<trkpt lat="-27.2737666" lon="151.2899054">
  <ele>343.07</ele>
  <time>2026-09-01T19:57:57Z</time>
  <course>178.55</course>
  <speed>0.0282842712474619</speed>
  <fix>3d</fix>
</trkpt>
<trkpt lat="-27.2737668" lon="151.2899057">
  <ele>343.08</ele>
  <time>2026-09-01T19:57:57Z</time>
  <course>143.35</course>
  <speed>0.0</speed>
  <fix>3d</fix>
</trkpt>
<trkpt lat="-27.2737666" lon="151.2899054">
  <ele>343.08</ele>
  <time>2026-09-01T19:57:57Z</time>
  <course>178.51</course>
  <speed>0.0282842712474619</speed>
  <fix>3d</fix>
</trkpt>
<trkpt lat="-27.2737668" lon="151.2899057">
  <ele>343.08</ele>
  <time>2026-09-01T19:57:57Z</time>
  <course>143.35</course>
  <speed>0.0</speed>
  <fix>3d</fix>
</trkpt>
<trkpt lat="-27.2737666" lon="151.2899054">
  <ele>343.07</ele>
  <time>2026-09-01T19:57:57Z</time>
  <course>178.47</course>
  <speed>0.0282842712474619</speed>
  <fix>3d</fix>
</trkpt>
<trkpt lat="-27.2737668" lon="151.2899057">
  <ele>343.08</ele>
  <time>2026-09-01T19:57:57Z</time>
  <course>274.05</course>
  <speed>0.0</speed>
  <fix>3d</fix>
</trkpt>
<trkpt lat="-27.2737666" lon="151.2899054">
  <ele>343.08</ele>
  <time>2026-09-01T19:57:57Z</time>
  <course>178.44</course>
  <speed>0.0282842712474619</speed>
  <fix>3d</fix>
</trkpt>
<trkpt lat="-27.2737668" lon="151.2899057">
  <ele>343.08</ele>
  <time>2026-09-01T19:57:57Z</time>
  <course>274.05</course>
  <speed>0.0</speed>
  <fix>3d</fix>
</trkpt>
<trkpt lat="-27.2737666" lon="151.2899054">
  <ele>343.08</ele>
  <time>2026-09-01T19:57:57Z</time>
  <course>178.4</course>
  <speed>0.0282842712474619</speed>
  <fix>3d</fix>
</trkpt>
<trkpt lat="-27.2737668" lon="151.2899057">
  <ele>343.08</ele>
  <time>2026-09-01T19:57:57Z</time>
  <course>220.53</course>
  <speed>0.0</speed>
  <fix>3d</fix>
</trkpt>
<trkpt lat="-27.2737666" lon="151.2899054">
  <ele>343.08</ele>
  <time>2026-09-01T19:57:57Z</time>
  <course>178.37</course>
  <speed>0.0282842712474619</speed>
  <fix>3d</fix>
</trkpt>
<trkpt lat="-27.2737668" lon="151.2899057">
  <ele>343.08</ele>
  <time>2026-09-01T19:57:57Z</time>
  <course>220.53</course>
  <speed>0.0</speed>
  <fix>3d</fix>
</trkpt>
<trkpt lat="-27.2737666" lon="151.2899054">
  <ele>343.09</ele>
  <time>2026-09-01T19:57:57Z</time>
  <course>178.34</course>
  <speed>0.0282842712474619</speed>
  <fix>3d</fix>
</trkpt>
<trkpt lat="-27.2737668" lon="151.2899057">
  <ele>343.08</ele>
  <time>2026-09-01T19:57:57Z</time>
  <course>174.37</course>
  <speed>0.0</speed>
  <fix>3d</fix>
</trkpt>
<trkpt lat="-27.2737666" lon="151.2899054">
  <ele>343.09</ele>
  <time>2026-09-01T19:57:57Z</time>
  <course>178.31</course>
  <speed>0.0282842712474619</speed>
  <fix>3d</fix>
</trkpt>
<trkpt lat="-27.2737668" lon="151.2899057">
  <ele>343.08</ele>
  <time>2026-09-01T19:57:57Z</time>
  <course>174.37</course>
  <speed>0.0</speed>
  <fix>3d</fix>
</trkpt>
<trkpt lat="-27.2737666" lon="151.2899054">
  <ele>343.1</ele>
  <time>2026-09-01T19:57:57Z</time>
  <course>178.29</course>
  <speed>0.0282842712474619</speed>
  <fix>3d</fix>
</trkpt>
<trkpt lat="-27.2737668" lon="151.2899057">
  <ele>343.08</ele>
  <time>2026-09-01T19:57:57Z</time>
  <course>179.51</course>
  <speed>0.0</speed>
  <fix>3d</fix>
</trkpt>
<trkpt lat="-27.2737666" lon="151.2899054">
  <ele>343.1</ele>
  <time>2026-09-01T19:57:57Z</time>
  <course>178.26</course>
  <speed>0.0282842712474619</speed>
  <fix>3d</fix>
</trkpt>
<trkpt lat="-27.2737668" lon="151.2899057">
  <ele>343.08</ele>
  <time>2026-09-01T19:57:57Z</time>
  <course>179.51</course>
  <speed>0.0</speed>
  <fix>3d</fix>
</trkpt>
<trkpt lat="-27.2737666" lon="151.2899054">
  <ele>343.1</ele>
  <time>2026-09-01T19:57:57Z</time>
  <course>178.24</course>
  <speed>0.0282842712474619</speed>
  <fix>3d</fix>
</trkpt>
<trkpt lat="-27.2737668" lon="151.2899057">
  <ele>343.08</ele>
  <time>2026-09-01T19:57:57Z</time>
  <course>182.85</course>
  <speed>0.0</speed>
  <fix>3d</fix>
</trkpt>
<trkpt lat="-27.2737666" lon="151.2899054">
  <ele>343.11</ele>
  <time>2026-09-01T19:57:57Z</time>
  <course>178.22</course>
  <speed>0.022360679774997897</speed>
  <fix>3d</fix>
</trkpt>
<trkpt lat="-27.2737668" lon="151.2899057">
  <ele>343.08</ele>
  <time>2026-09-01T19:57:57Z</time>
  <course>182.85</course>
  <speed>0.0</speed>
  <fix>3d</fix>
</trkpt>
<trkpt lat="-27.2737666" lon="151.2899054">
  <ele>343.11</ele>
  <time>2026-09-01T19:57:57Z</time>
  <course>178.2</course>
  <speed>0.022360679774997897</speed>
  <fix>3d</fix>
</trkpt>
<trkpt lat="-27.2737668" lon="151.2899057">
  <ele>343.08</ele>
  <time>2026-09-01T19:57:57Z</time>
  <course>183.6</course>
  <speed>0.0</speed>
  <fix>3d</fix>
</trkpt>
<trkpt lat="-27.2737666" lon="151.2899054">
  <ele>343.11</ele>
  <time>2026-09-01T19:57:57Z</time>
  <course>178.18</course>
  <speed>0.022360679774997897</speed>
  <fix>3d</fix>
</trkpt>
<trkpt lat="-27.2737668" lon="151.2899057">
  <ele>343.08</ele>
  <time>2026-09-01T19:57:57Z</time>
  <course>183.6</course>
  <speed>0.0</speed>
  <fix>3d</fix>
</trkpt>
<trkpt lat="-27.2737666" lon="151.2899054">
  <ele>343.1</ele>
  <time>2026-09-01T19:57:57Z</time>
  <course>178.16</course>
  <speed>0.022360679774997897</speed>
  <fix>3d</fix>
</trkpt>
<trkpt lat="-27.2737668" lon="151.2899057">
  <ele>343.08</ele>
  <time>2026-09-01T19:57:57Z</time>
  <course>183.76</course>
  <speed>0.0</speed>
  <fix>3d</fix>
</trkpt>
<trkpt lat="-27.2737666" lon="151.2899054">
  <ele>343.1</ele>
  <time>2026-09-01T19:57:57Z</time>
  <course>178.14</course>
  <speed>0.022360679774997897</speed>
  <fix>3d</fix>
</trkpt>
<trkpt lat="-27.2737668" lon="151.2899057">
  <ele>343.08</ele>
  <time>2026-09-01T19:57:57Z</time>
  <course>183.76</course>
  <speed>0.0</speed>
  <fix>3d</fix>
</trkpt>
<trkpt lat="-27.2737666" lon="151.2899054">
  <ele>343.1</ele>
  <time>2026-09-01T19:57:57Z</time>
  <course>178.13</course>
  <speed>0.022360679774997897</speed>
  <fix>3d</fix>
</trkpt>
<trkpt lat="-27.2737668" lon="151.2899057">
  <ele>343.08</ele>
  <time>2026-09-01T19:57:57Z</time>
  <course>183.8</course>
  <speed>0.0</speed>
  <fix>3d</fix>
</trkpt>
<trkpt lat="-27.2737666" lon="151.2899054">
  <ele>343.1</ele>
  <time>2026-09-01T19:57:57Z</time>
  <course>178.13</course>
  <speed>0.022360679774997897</speed>
  <fix>3d</fix>
</trkpt>
<trkpt lat="-27.2737666" lon="151.2899054">
  <ele>343.1</ele>
  <time>2026-09-01T19:57:57Z</time>
  <course>178.11</course>
  <speed>0.022360679774997897</speed>
  <fix>3d</fix>
</trkpt>
<trkpt lat="-27.2737668" lon="151.2899057">
  <ele>343.08</ele>
  <time>2026-09-01T19:57:57Z</time>
  <course>183.8</course>
  <speed>0.0</speed>
  <fix>3d</fix>
</trkpt>
<trkpt lat="-27.2737666" lon="151.2899054">
  <ele>343.1</ele>
  <time>2026-09-01T19:57:57Z</time>
  <course>178.09</course>
  <speed>0.022360679774997897</speed>
  <fix>3d</fix>
</trkpt>
<trkpt lat="-27.2737668" lon="151.2899057">
  <ele>343.08</ele>
  <time>2026-09-01T19:57:57Z</time>
  <course>183.81</course>
  <speed>0.0</speed>
  <fix>3d</fix>
</trkpt>
<trkpt lat="-27.2737666" lon="151.2899054">
  <ele>343.1</ele>
  <time>2026-09-01T19:57:57Z</time>
  <course>178.08</course>
  <speed>0.022360679774997897</speed>
  <fix>3d</fix>
</trkpt>
<trkpt lat="-27.2737668" lon="151.2899057">
  <ele>343.08</ele>
  <time>2026-09-01T19:57:57Z</time>
  <course>183.81</course>
  <speed>0.0</speed>
  <fix>3d</fix>
</trkpt>
<trkpt lat="-27.2737666" lon="151.2899054">
  <ele>343.11</ele>
  <time>2026-09-01T19:57:57Z</time>
  <course>178.07</course>
  <speed>0.022360679774997897</speed>
  <fix>3d</fix>
</trkpt>
<trkpt lat="-27.2737668" lon="151.2899057">
  <ele>343.08</ele>
  <time>2026-09-01T19:57:57Z</time>
  <course>183.81</course>
  <speed>0.0</speed>
  <fix>3d</fix>
</trkpt>
<trkpt lat="-27.2737666" lon="151.2899054">
  <ele>343.11</ele>
  <time>2026-09-01T19:57:57Z</time>
  <course>178.05</course>
  <speed>0.022360679774997897</speed>
  <fix>3d</fix>
</trkpt>
<trkpt lat="-27.2737668" lon="151.2899057">
  <ele>343.08</ele>
  <time>2026-09-01T19:57:57Z</time>
  <course>183.81</course>
  <speed>0.0</speed>
  <fix>3d</fix>
</trkpt>
<trkpt lat="-27.2737666" lon="151.2899054">
  <ele>343.08</ele>
  <time>2026-09-01T19:57:57Z</time>
  <course>178.04</course>
  <speed>0.022360679774997897</speed>
  <fix>3d</fix>
</trkpt>
<trkpt lat="-27.2737668" lon="151.2899057">
  <ele>343.08</ele>
  <time>2026-09-01T19:57:57Z</time>
  <course>179.75</course>
  <speed>0.0</speed>
  <fix>3d</fix>
</trkpt>
<trkpt lat="-27.2737666" lon="151.2899054">
  <ele>343.08</ele>
  <time>2026-09-01T19:57:57Z</time>
  <course>178.03</course>
  <speed>0.022360679774997897</speed>
  <fix>3d</fix>
</trkpt>
<trkpt lat="-27.2737668" lon="151.2899057">
  <ele>343.08</ele>
  <time>2026-09-01T19:57:57Z</time>
  <course>179.75</course>
  <speed>0.0</speed>
  <fix>3d</fix>
</trkpt>
<trkpt lat="-27.2737666" lon="151.2899054">
  <ele>343.08</ele>
  <time>2026-09-01T19:57:57Z</time>
  <course>178.02</course>
  <speed>0.03605551275463989</speed>
  <fix>3d</fix>
</trkpt>
<trkpt lat="-27.2737668" lon="151.2899057">
  <ele>343.08</ele>
  <time>2026-09-01T19:57:57Z</time>
  <course>179.56</course>
  <speed>0.03</speed>
  <fix>3d</fix>
</trkpt>
<trkpt lat="-27.2737667" lon="151.2899054">
  <ele>343.08</ele>
  <time>2026-09-01T19:57:57Z</time>
  <course>178.0</course>
  <speed>0.05099019513592785</speed>
  <fix>3d</fix>
</trkpt>
<trkpt lat="-27.2737668" lon="151.2899057">
  <ele>343.08</ele>
  <time>2026-09-01T19:57:57Z</time>
  <course>179.56</course>
  <speed>0.03</speed>
  <fix>3d</fix>
</trkpt>
<trkpt lat="-27.2737668" lon="151.2899054">
  <ele>343.08</ele>
  <time>2026-09-01T19:57:57Z</time>
  <course>177.99</course>
  <speed>0.03605551275463989</speed>
  <fix>3d</fix>
</trkpt>
<trkpt lat="-27.2737669" lon="151.2899057">
  <ele>343.08</ele>
  <time>2026-09-01T19:57:57Z</time>
  <course>179.69</course>
  <speed>0.05</speed>
  <fix>3d</fix>
</trkpt>
<trkpt lat="-27.2737668" lon="151.2899054">
  <ele>343.08</ele>
  <time>2026-09-01T19:57:57Z</time>
  <course>177.98</course>
  <speed>0.022360679774997897</speed>
  <fix>3d</fix>
</trkpt>
<trkpt lat="-27.2737669" lon="151.2899057">
  <ele>343.08</ele>
  <time>2026-09-01T19:57:57Z</time>
  <course>179.69</course>
  <speed>0.05</speed>
  <fix>3d</fix>
</trkpt>
<trkpt lat="-27.2737668" lon="151.2899054">
  <ele>343.08</ele>
  <time>2026-09-01T19:57:57Z</time>
  <course>177.98</course>
  <speed>0.022360679774997897</speed>
  <fix>3d</fix>
</trkpt>
<trkpt lat="-27.2737668" lon="151.2899054">
  <ele>343.08</ele>
  <time>2026-09-01T19:57:57Z</time>
  <course>177.97</course>
  <speed>0.0632455532033676</speed>
  <fix>3d</fix>
</trkpt>
<trkpt lat="-27.273767" lon="151.2899057">
  <ele>343.08</ele>
  <time>2026-09-01T19:57:57Z</time>
  <course>180.24</course>
  <speed>0.0</speed>
  <fix>3d</fix>
</trkpt>
<trkpt lat="-27.2737668" lon="151.2899054">
  <ele>343.08</ele>
  <time>2026-09-01T19:57:57Z</time>
  <course>177.97</course>
  <speed>0.0632455532033676</speed>
  <fix>3d</fix>
</trkpt>
<trkpt lat="-27.2737667" lon="151.2899054">
  <ele>343.08</ele>
  <time>2026-09-01T19:57:57Z</time>
  <course>177.96</course>
  <speed>0.09219544457292887</speed>
  <fix>3d</fix>
</trkpt>
<trkpt lat="-27.273767" lon="151.2899057">
  <ele>343.08</ele>
  <time>2026-09-01T19:57:57Z</time>
  <course>180.24</course>
  <speed>0.0</speed>
  <fix>3d</fix>
</trkpt>
<trkpt lat="-27.2737667" lon="151.2899054">
  <ele>343.08</ele>
  <time>2026-09-01T19:57:57Z</time>
  <course>177.96</course>
  <speed>0.09219544457292887</speed>
  <fix>3d</fix>
</trkpt>
<trkpt lat="-27.2737666" lon="151.2899054">
  <ele>343.08</ele>
  <time>2026-09-01T19:57:57Z</time>
  <course>177.95</course>
  <speed>0.0824621125123532</speed>
  <fix>3d</fix>
</trkpt>
<trkpt lat="-27.2737669" lon="151.2899057">
  <ele>343.08</ele>
  <time>2026-09-01T19:57:57Z</time>
  <course>359.6</course>
  <speed>0.05</speed>
  <fix>3d</fix>
</trkpt>
<trkpt lat="-27.2737666" lon="151.2899054">
  <ele>343.08</ele>
  <time>2026-09-01T19:57:57Z</time>
  <course>177.95</course>
  <speed>0.0824621125123532</speed>
  <fix>3d</fix>
</trkpt>
<trkpt lat="-27.2737666" lon="151.2899054">
  <ele>343.08</ele>
  <time>2026-09-01T19:57:57Z</time>
  <course>177.94</course>
  <speed>0.053851648071345036</speed>
  <fix>3d</fix>
</trkpt>
<trkpt lat="-27.2737669" lon="151.2899057">
  <ele>343.08</ele>
  <time>2026-09-01T19:57:57Z</time>
  <course>359.6</course>
  <speed>0.05</speed>
  <fix>3d</fix>
</trkpt>
<trkpt lat="-27.2737666" lon="151.2899054">
  <ele>343.08</ele>
  <time>2026-09-01T19:57:57Z</time>
  <course>177.94</course>
  <speed>0.044721359549995794</speed>
  <fix>3d</fix>
</trkpt>
<trkpt lat="-27.2737666" lon="151.2899054">
  <ele>343.08</ele>
  <time>2026-09-01T19:57:57Z</time>
  <course>177.94</course>
  <speed>0.0282842712474619</speed>
  <fix>3d</fix>
</trkpt>
<trkpt lat="-27.2737668" lon="151.2899057">
  <ele>343.08</ele>
  <time>2026-09-01T19:57:57Z</time>
  <course>359.46</course>
  <speed>0.03</speed>
  <fix>3d</fix>
</trkpt>
<trkpt lat="-27.2737666" lon="151.2899054">
  <ele>343.08</ele>
  <time>2026-09-01T19:57:57Z</time>
  <course>177.93</course>
  <speed>0.022360679774997897</speed>
  <fix>3d</fix>
</trkpt>
<trkpt lat="-27.2737666" lon="151.2899054">
  <ele>343.08</ele>
  <time>2026-09-01T19:57:57Z</time>
  <course>177.93</course>
  <speed>0.022360679774997897</speed>
  <fix>3d</fix>
</trkpt>
<trkpt lat="-27.2737668" lon="151.2899057">
  <ele>343.08</ele>
  <time>2026-09-01T19:57:57Z</time>
  <course>359.46</course>
  <speed>0.03</speed>
  <fix>3d</fix>
</trkpt>
<trkpt lat="-27.2737666" lon="151.2899054">
  <ele>343.08</ele>
  <time>2026-09-01T19:57:57Z</time>
  <course>177.93</course>
  <speed>0.02</speed>
  <fix>3d</fix>
</trkpt>
<trkpt lat="-27.2737666" lon="151.2899054">
  <ele>343.09</ele>
  <time>2026-09-01T19:57:57Z</time>
  <course>177.92</course>
  <speed>0.02</speed>
  <fix>3d</fix>
</trkpt>
<trkpt lat="-27.2737668" lon="151.2899057">
  <ele>343.08</ele>
  <time>2026-09-01T19:57:57Z</time>
  <course>215.39</course>
  <speed>0.0</speed>
  <fix>3d</fix>
</trkpt>
<trkpt lat="-27.2737666" lon="151.2899054">
  <ele>343.09</ele>
  <time>2026-09-01T19:57:57Z</time>
  <course>177.92</course>
  <speed>0.022360679774997897</speed>
  <fix>3d</fix>
</trkpt>
<trkpt lat="-27.2737666" lon="151.2899055">
  <ele>343.09</ele>
  <time>2026-09-01T19:57:57Z</time>
  <course>177.92</course>
  <speed>0.022360679774997897</speed>
  <fix>3d</fix>
</trkpt>
<trkpt lat="-27.2737668" lon="151.2899057">
  <ele>343.08</ele>
  <time>2026-09-01T19:57:57Z</time>
  <course>215.39</course>
  <speed>0.0</speed>
  <fix>3d</fix>
</trkpt>
<trkpt lat="-27.2737666" lon="151.2899055">
  <ele>343.09</ele>
  <time>2026-09-01T19:57:57Z</time>
  <course>177.91</course>
  <speed>0.022360679774997897</speed>
  <fix>3d</fix>
</trkpt>
<trkpt lat="-27.2737666" lon="151.2899055">
  <ele>343.1</ele>
  <time>2026-09-01T19:57:57Z</time>
  <course>177.91</course>
  <speed>0.022360679774997897</speed>
  <fix>3d</fix>
</trkpt>
<trkpt lat="-27.2737668" lon="151.2899057">
  <ele>343.08</ele>
  <time>2026-09-01T19:57:57Z</time>
  <course>179.39</course>
  <speed>0.0</speed>
  <fix>3d</fix>
</trkpt>
<trkpt lat="-27.2737666" lon="151.2899055">
  <ele>343.11</ele>
  <time>2026-09-01T19:57:57Z</time>
  <course>177.91</course>
  <speed>0.022360679774997897</speed>
  <fix>3d</fix>
</trkpt>
<trkpt lat="-27.2737666" lon="151.2899055">
  <ele>343.14</ele>
  <time>2026-09-01T19:57:57Z</time>
  <course>177.9</course>
  <speed>0.022360679774997897</speed>
  <fix>3d</fix>
</trkpt>
<trkpt lat="-27.2737668" lon="151.2899057">
  <ele>343.08</ele>
  <time>2026-09-01T19:57:57Z</time>
  <course>179.39</course>
  <speed>0.0</speed>
  <fix>3d</fix>
</trkpt>
<trkpt lat="-27.2737666" lon="151.2899055">
  <ele>343.15</ele>
  <time>2026-09-01T19:57:57Z</time>
  <course>177.9</course>
  <speed>0.022360679774997897</speed>
  <fix>3d</fix>
</trkpt>
<trkpt lat="-27.2737666" lon="151.2899055">
  <ele>343.19</ele>
  <time>2026-09-01T19:57:57Z</time>
  <course>177.89</course>
  <speed>0.022360679774997897</speed>
  <fix>3d</fix>
</trkpt>
<trkpt lat="-27.2737668" lon="151.2899057">
  <ele>343.13</ele>
  <time>2026-09-01T19:57:57Z</time>
  <course>177.05</course>
  <speed>0.0</speed>
  <fix>3d</fix>
</trkpt>
<trkpt lat="-27.2737666" lon="151.2899055">
  <ele>343.19</ele>
  <time>2026-09-01T19:57:57Z</time>
  <course>177.89</course>
  <speed>0.022360679774997897</speed>
  <fix>3d</fix>
</trkpt>
<trkpt lat="-27.2737666" lon="151.2899055">
  <ele>343.26</ele>
  <time>2026-09-01T19:57:57Z</time>
  <course>177.92</course>
  <speed>0.01</speed>
  <fix>3d</fix>
</trkpt>
<trkpt lat="-27.2737668" lon="151.2899057">
  <ele>343.13</ele>
  <time>2026-09-01T19:57:57Z</time>
  <course>177.05</course>
  <speed>0.0</speed>
  <fix>3d</fix>
</trkpt>
<trkpt lat="-27.2737666" lon="151.2899055">
  <ele>343.29</ele>
  <time>2026-09-01T19:57:57Z</time>
  <course>177.94</course>
  <speed>0.0</speed>
  <fix>3d</fix>
</trkpt>
<trkpt lat="-27.2737666" lon="151.2899055">
  <ele>343.39</ele>
  <time>2026-09-01T19:57:57Z</time>
  <course>178.02</course>
  <speed>0.03</speed>
  <fix>3d</fix>
</trkpt>
<trkpt lat="-27.2737668" lon="151.2899057">
  <ele>343.26</ele>
  <time>2026-09-01T19:57:57Z</time>
  <course>154.44</course>
  <speed>0.03</speed>
  <fix>3d</fix>
</trkpt>
<trkpt lat="-27.2737667" lon="151.2899055">
  <ele>343.43</ele>
  <time>2026-09-01T19:57:57Z</time>
  <course>178.05</course>
  <speed>0.0412310562561766</speed>
  <fix>3d</fix>
</trkpt>
<trkpt lat="-27.2737667" lon="151.2899055">
  <ele>343.58</ele>
  <time>2026-09-01T19:57:57Z</time>
  <course>178.1</course>
  <speed>0.0824621125123532</speed>
  <fix>3d</fix>
</trkpt>
<trkpt lat="-27.2737668" lon="151.2899057">
  <ele>343.26</ele>
  <time>2026-09-01T19:57:57Z</time>
  <course>154.44</course>
  <speed>0.03</speed>
  <fix>3d</fix>
</trkpt>
<trkpt lat="-27.2737667" lon="151.2899055">
  <ele>343.66</ele>
  <time>2026-09-01T19:57:57Z</time>
  <course>178.11</course>
  <speed>0.1044030650891055</speed>
  <fix>3d</fix>
</trkpt>
<trkpt lat="-27.2737668" lon="151.2899056">
  <ele>343.83</ele>
  <time>2026-09-01T19:57:57Z</time>
  <course>178.09</course>
  <speed>0.14560219778561037</speed>
  <fix>3d</fix>
</trkpt>
<trkpt lat="-27.2737669" lon="151.2899057">
  <ele>343.56</ele>
  <time>2026-09-01T19:57:57Z</time>
  <course>158.08</course>
  <speed>0.11</speed>
  <fix>3d</fix>
</trkpt>
<trkpt lat="-27.2737669" lon="151.2899056">
  <ele>343.91</ele>
  <time>2026-09-01T19:57:57Z</time>
  <course>178.07</course>
  <speed>0.1649242250247064</speed>
  <fix>3d</fix>
</trkpt>
<trkpt lat="-27.273767" lon="151.2899056">
  <ele>344.09</ele>
  <time>2026-09-01T19:57:57Z</time>
  <course>177.99</course>
  <speed>0.196468827043885</speed>
  <fix>3d</fix>
</trkpt>
<trkpt lat="-27.2737669" lon="151.2899057">
  <ele>343.56</ele>
  <time>2026-09-01T19:57:57Z</time>
  <course>158.08</course>
  <speed>0.11</speed>
  <fix>3d</fix>
</trkpt>
<trkpt lat="-27.2737671" lon="151.2899057">
  <ele>344.16</ele>
  <time>2026-09-01T19:57:57Z</time>
  <course>177.95</course>
  <speed>0.20615528128088303</speed>
  <fix>3d</fix>
</trkpt>
<trkpt lat="-27.2737672" lon="151.2899057">
  <ele>344.36</ele>
  <time>2026-09-01T19:57:57Z</time>
  <course>177.82</course>
  <speed>0.24738633753705963</speed>
  <fix>3d</fix>
</trkpt>
<trkpt lat="-27.2737672" lon="151.2899058">
  <ele>344.03</ele>
  <time>2026-09-01T19:57:57Z</time>
  <course>161.83</course>
  <speed>0.22</speed>
  <fix>3d</fix>
</trkpt>
<trkpt lat="-27.2737673" lon="151.2899058">
  <ele>344.44</ele>
  <time>2026-09-01T19:57:57Z</time>
  <course>177.76</course>
  <speed>0.2570992026436488</speed>
  <fix>3d</fix>
</trkpt>
<trkpt lat="-27.2737675" lon="151.2899058">
  <ele>344.64</ele>
  <time>2026-09-01T19:57:57Z</time>
  <course>177.63</course>
  <speed>0.29832867780352595</speed>
  <fix>3d</fix>
</trkpt>
<trkpt lat="-27.2737672" lon="151.2899058">
  <ele>344.03</ele>
  <time>2026-09-01T19:57:57Z</time>
  <course>161.83</course>
  <speed>0.22</speed>
  <fix>3d</fix>
</trkpt>
<trkpt lat="-27.2737676" lon="151.2899058">
  <ele>344.71</ele>
  <time>2026-09-01T19:57:57Z</time>
  <course>177.59</course>
  <speed>0.3080584360149873</speed>
  <fix>3d</fix>
</trkpt>
<trkpt lat="-27.2737678" lon="151.2899059">
  <ele>344.93</ele>
  <time>2026-09-01T19:57:57Z</time>
  <course>177.47</course>
  <speed>0.33734255586865997</speed>
  <fix>3d</fix>
</trkpt>
<trkpt lat="-27.2737677" lon="151.2899059">
  <ele>344.57</ele>
  <time>2026-09-01T19:57:57Z</time>
  <course>164.81</course>
  <speed>0.32</speed>
  <fix>3d</fix>
</trkpt>
<trkpt lat="-27.2737678" lon="151.2899059">
  <ele>344.94</ele>
  <time>2026-09-01T19:57:57Z</time>
  <course>177.46</course>
  <speed>0.33734255586865997</speed>
  <fix>3d</fix>
</trkpt>
<trkpt lat="-27.2737681" lon="151.289906">
  <ele>345.23</ele>
  <time>2026-09-01T19:57:57Z</time>
  <course>176.87</course>
  <speed>0.37656340767525465</speed>
  <fix>3d</fix>
</trkpt>
<trkpt lat="-27.2737677" lon="151.2899059">
  <ele>344.57</ele>
  <time>2026-09-01T19:57:57Z</time>
  <course>164.81</course>
  <speed>0.32</speed>
  <fix>3d</fix>
</trkpt>
<trkpt lat="-27.2737681" lon="151.289906">
  <ele>345.24</ele>
  <time>2026-09-01T19:57:57Z</time>
  <course>176.89</course>
  <speed>0.37656340767525465</speed>
  <fix>3d</fix>
</trkpt>
<trkpt lat="-27.2737685" lon="151.2899061">
  <ele>345.54</ele>
  <time>2026-09-01T19:57:57Z</time>
  <course>177.56</course>
  <speed>0.40607881008493907</speed>
  <fix>3d</fix>
</trkpt>
<trkpt lat="-27.2737683" lon="151.2899062">
  <ele>345.15</ele>
  <time>2026-09-01T19:57:57Z</time>
  <course>167.36</course>
  <speed>0.4</speed>
  <fix>3d</fix>
</trkpt>
<trkpt lat="-27.2737686" lon="151.2899061">
  <ele>345.64</ele>
  <time>2026-09-01T19:57:57Z</time>
  <course>177.76</course>
  <speed>0.4159326868617084</speed>
  <fix>3d</fix>
</trkpt>
<trkpt lat="-27.2737689" lon="151.2899062">
  <ele>345.85</ele>
  <time>2026-09-01T19:57:57Z</time>
  <course>178.02</course>
  <speed>0.4242640687119285</speed>
  <fix>3d</fix>
</trkpt>
<trkpt lat="-27.2737683" lon="151.2899062">
  <ele>345.15</ele>
  <time>2026-09-01T19:57:57Z</time>
  <course>167.36</course>
  <speed>0.4</speed>
  <fix>3d</fix>
</trkpt>
<trkpt lat="-27.2737689" lon="151.2899062">
  <ele>345.86</ele>
  <time>2026-09-01T19:57:57Z</time>
  <course>178.03</course>
  <speed>0.4242640687119285</speed>
  <fix>3d</fix>
</trkpt>
<trkpt lat="-27.2737693" lon="151.2899062">
  <ele>346.16</ele>
  <time>2026-09-01T19:57:57Z</time>
  <course>178.08</course>
  <speed>0.4440720662234904</speed>
  <fix>3d</fix>
</trkpt>
<trkpt lat="-27.2737691" lon="151.2899064">
  <ele>345.75</ele>
  <time>2026-09-01T19:57:57Z</time>
  <course>169.42</course>
  <speed>0.45</speed>
  <fix>3d</fix>
</trkpt>
<trkpt lat="-27.2737693" lon="151.2899062">
  <ele>346.18</ele>
  <time>2026-09-01T19:57:57Z</time>
  <course>178.07</course>
  <speed>0.4440720662234904</speed>
  <fix>3d</fix>
</trkpt>
<trkpt lat="-27.2737697" lon="151.2899063">
  <ele>346.45</ele>
  <time>2026-09-01T19:57:57Z</time>
  <course>177.82</course>
  <speed>0.45276925690687087</speed>
  <fix>3d</fix>
</trkpt>
<trkpt lat="-27.2737691" lon="151.2899064">
  <ele>345.75</ele>
  <time>2026-09-01T19:57:57Z</time>
  <course>169.42</course>
  <speed>0.45</speed>
  <fix>3d</fix>
</trkpt>
<trkpt lat="-27.2737699" lon="151.2899063">
  <ele>346.55</ele>
  <time>2026-09-01T19:57:57Z</time>
  <course>177.71</course>
  <speed>0.46270941205037097</speed>
  <fix>3d</fix>
</trkpt>
<trkpt lat="-27.2737702" lon="151.2899064">
  <ele>346.74</ele>
  <time>2026-09-01T19:57:57Z</time>
  <course>177.47</course>
  <speed>0.46270941205037097</speed>
  <fix>3d</fix>
</trkpt>
<trkpt lat="-27.2737699" lon="151.2899065">
  <ele>346.35</ele>
  <time>2026-09-01T19:57:57Z</time>
  <course>170.91</course>
  <speed>0.48</speed>
  <fix>3d</fix>
</trkpt>
<trkpt lat="-27.2737703" lon="151.2899064">
  <ele>346.85</ele>
  <time>2026-09-01T19:57:57Z</time>
  <course>177.33</course>
  <speed>0.46270941205037097</speed>
  <fix>3d</fix>
</trkpt>
<trkpt lat="-27.2737706" lon="151.2899065">
  <ele>347.01</ele>
  <time>2026-09-01T19:57:57Z</time>
  <course>177.14</course>
  <speed>0.46270941205037097</speed>
  <fix>3d</fix>
</trkpt>
<trkpt lat="-27.2737699" lon="151.2899065">
  <ele>346.35</ele>
  <time>2026-09-01T19:57:57Z</time>
  <course>170.91</course>
  <speed>0.48</speed>
  <fix>3d</fix>
</trkpt>
<trkpt lat="-27.2737707" lon="151.2899065">
  <ele>347.09</ele>
  <time>2026-09-01T19:57:57Z</time>
  <course>177.06</course>
  <speed>0.45177427992306074</speed>
  <fix>3d</fix>
</trkpt>
<trkpt lat="-27.273771" lon="151.2899065">
  <ele>347.26</ele>
  <time>2026-09-01T19:57:57Z</time>
  <course>176.92</course>
  <speed>0.45177427992306074</speed>
  <fix>3d</fix>
</trkpt>
<trkpt lat="-27.2737708" lon="151.2899066">
  <ele>346.89</ele>
  <time>2026-09-01T19:57:57Z</time>
  <course>171.84</course>
  <speed>0.48</speed>
  <fix>3d</fix>
</trkpt>
<trkpt lat="-27.273771" lon="151.2899065">
  <ele>347.27</ele>
  <time>2026-09-01T19:57:57Z</time>
  <course>176.91</course>
  <speed>0.45177427992306074</speed>
  <fix>3d</fix>
</trkpt>
<trkpt lat="-27.2737714" lon="151.2899066">
  <ele>347.48</ele>
  <time>2026-09-01T19:57:57Z</time>
  <course>176.79</course>
  <speed>0.43185645763378366</speed>
  <fix>3d</fix>
</trkpt>
<trkpt lat="-27.2737708" lon="151.2899066">
  <ele>346.89</ele>
  <time>2026-09-01T19:57:57Z</time>
  <course>171.84</course>
  <speed>0.48</speed>
  <fix>3d</fix>
</trkpt>
<trkpt lat="-27.2737715" lon="151.2899066">
  <ele>347.49</ele>
  <time>2026-09-01T19:57:57Z</time>
  <course>176.79</course>
  <speed>0.43185645763378366</speed>
  <fix>3d</fix>
</trkpt>
<trkpt lat="-27.2737718" lon="151.2899066">
  <ele>347.68</ele>
  <time>2026-09-01T19:57:57Z</time>
  <course>176.76</course>
  <speed>0.41109609582188933</speed>
  <fix>3d</fix>
</trkpt>
<trkpt lat="-27.2737716" lon="151.2899067">
  <ele>347.35</ele>
  <time>2026-09-01T19:57:57Z</time>
  <course>172.29</course>
  <speed>0.46</speed>
  <fix>3d</fix>
</trkpt>
<trkpt lat="-27.2737719" lon="151.2899067">
  <ele>347.73</ele>
  <time>2026-09-01T19:57:57Z</time>
  <course>176.76</course>
  <speed>0.4011234224026316</speed>
  <fix>3d</fix>
</trkpt>
<trkpt lat="-27.2737722" lon="151.2899067">
  <ele>347.85</ele>
  <time>2026-09-01T19:57:57Z</time>
  <course>176.79</course>
  <speed>0.38118237105091834</speed>
  <fix>3d</fix>
</trkpt>
<trkpt lat="-27.2737716" lon="151.2899067">
  <ele>347.35</ele>
  <time>2026-09-01T19:57:57Z</time>
  <course>172.29</course>
  <speed>0.46</speed>
  <fix>3d</fix>
</trkpt>
<trkpt lat="-27.2737723" lon="151.2899067">
  <ele>347.89</ele>
  <time>2026-09-01T19:57:57Z</time>
  <course>176.81</course>
  <speed>0.3712142238654117</speed>
  <fix>3d</fix>
</trkpt>
<trkpt lat="-27.2737725" lon="151.2899067">
  <ele>347.99</ele>
  <time>2026-09-01T19:57:57Z</time>
  <course>176.89</course>
  <speed>0.34132096331752027</speed>
  <fix>3d</fix>
</trkpt>
<trkpt lat="-27.2737724" lon="151.2899069">
  <ele>347.71</ele>
  <time>2026-09-01T19:57:57Z</time>
  <course>172.36</course>
  <speed>0.4</speed>
  <fix>3d</fix>
</trkpt>
<trkpt lat="-27.2737726" lon="151.2899068">
  <ele>348.02</ele>
  <time>2026-09-01T19:57:57Z</time>
  <course>176.92</course>
  <speed>0.3306055050963308</speed>
  <fix>3d</fix>
</trkpt>
<trkpt lat="-27.2737729" lon="151.2899068">
  <ele>348.09</ele>
  <time>2026-09-01T19:57:57Z</time>
  <course>177.01</course>
  <speed>0.31064449134018135</speed>
  <fix>3d</fix>
</trkpt>
<trkpt lat="-27.2737724" lon="151.2899069">
  <ele>347.71</ele>
  <time>2026-09-01T19:57:57Z</time>
  <course>172.36</course>
  <speed>0.4</speed>
  <fix>3d</fix>
</trkpt>
<trkpt lat="-27.2737729" lon="151.2899068">
  <ele>348.11</ele>
  <time>2026-09-01T19:57:57Z</time>
  <course>177.04</course>
  <speed>0.30066592756745814</speed>
  <fix>3d</fix>
</trkpt>
<trkpt lat="-27.2737731" lon="151.2899068">
  <ele>348.17</ele>
  <time>2026-09-01T19:57:57Z</time>
  <course>177.15</course>
  <speed>0.260768096208106</speed>
  <fix>3d</fix>
</trkpt>
<trkpt lat="-27.2737731" lon="151.289907">
  <ele>347.95</ele>
  <time>2026-09-01T19:57:57Z</time>
  <course>172.1</course>
  <speed>0.33</speed>
  <fix>3d</fix>
</trkpt>
<trkpt lat="-27.2737731" lon="151.2899068">
  <ele>348.17</ele>
  <time>2026-09-01T19:57:57Z</time>
  <course>177.15</course>
  <speed>0.260768096208106</speed>
  <fix>3d</fix>
</trkpt>
<trkpt lat="-27.2737734" lon="151.2899069">
  <ele>348.22</ele>
  <time>2026-09-01T19:57:57Z</time>
  <course>177.28</course>
  <speed>0.22022715545545238</speed>
  <fix>3d</fix>
</trkpt>
<trkpt lat="-27.2737731" lon="151.289907">
  <ele>347.95</ele>
  <time>2026-09-01T19:57:57Z</time>
  <course>172.1</course>
  <speed>0.33</speed>
  <fix>3d</fix>
</trkpt>
<trkpt lat="-27.2737734" lon="151.2899069">
  <ele>348.22</ele>
  <time>2026-09-01T19:57:57Z</time>
  <course>177.29</course>
  <speed>0.22022715545545238</speed>
  <fix>3d</fix>
</trkpt>
<trkpt lat="-27.2737736" lon="151.2899069">
  <ele>348.24</ele>
  <time>2026-09-01T19:57:57Z</time>
  <course>177.4</course>
  <speed>0.17029386365926402</speed>
  <fix>3d</fix>
</trkpt>
<trkpt lat="-27.2737736" lon="151.2899071">
  <ele>348.07</ele>
  <time>2026-09-01T19:57:57Z</time>
  <course>171.46</course>
  <speed>0.24</speed>
  <fix>3d</fix>
</trkpt>
<trkpt lat="-27.2737736" lon="151.2899069">
  <ele>348.24</ele>
  <time>2026-09-01T19:57:57Z</time>
  <course>177.44</course>
  <speed>0.15</speed>
  <fix>3d</fix>
</trkpt>
<trkpt lat="-27.2737737" lon="151.2899069">
  <ele>348.24</ele>
  <time>2026-09-01T19:57:57Z</time>
  <course>177.5</course>
  <speed>0.12</speed>
  <fix>3d</fix>
</trkpt>
<trkpt lat="-27.2737736" lon="151.2899071">
  <ele>348.07</ele>
  <time>2026-09-01T19:57:57Z</time>
  <course>171.46</course>
  <speed>0.24</speed>
  <fix>3d</fix>
</trkpt>
<trkpt lat="-27.2737738" lon="151.2899069">
  <ele>348.23</ele>
  <time>2026-09-01T19:57:57Z</time>
  <course>177.52</course>
  <speed>0.1</speed>
  <fix>3d</fix>
</trkpt>
<trkpt lat="-27.2737738" lon="151.2899069">
  <ele>348.22</ele>
  <time>2026-09-01T19:57:57Z</time>
  <course>177.56</course>
  <speed>0.07</speed>
  <fix>3d</fix>
</trkpt>
<trkpt lat="-27.2737739" lon="151.2899071">
  <ele>348.09</ele>
  <time>2026-09-01T19:57:57Z</time>
  <course>170.04</course>
  <speed>0.14</speed>
  <fix>3d</fix>
</trkpt>
<trkpt lat="-27.2737739" lon="151.2899069">
  <ele>348.21</ele>
  <time>2026-09-01T19:57:57Z</time>
  <course>177.57</course>
  <speed>0.05</speed>
  <fix>3d</fix>
</trkpt>
<trkpt lat="-27.2737739" lon="151.289907">
  <ele>348.18</ele>
  <time>2026-09-01T19:57:57Z</time>
  <course>177.58</course>
  <speed>0.01414213562373095</speed>
  <fix>3d</fix>
</trkpt>
<trkpt lat="-27.2737739" lon="151.2899071">
  <ele>348.09</ele>
  <time>2026-09-01T19:57:57Z</time>
  <course>170.04</course>
  <speed>0.14</speed>
  <fix>3d</fix>
</trkpt>
<trkpt lat="-27.2737739" lon="151.289907">
  <ele>348.17</ele>
  <time>2026-09-01T19:57:57Z</time>
  <course>177.58</course>
  <speed>0.01</speed>
  <fix>3d</fix>
</trkpt>
<trkpt lat="-27.2737739" lon="151.289907">
  <ele>348.14</ele>
  <time>2026-09-01T19:57:57Z</time>
  <course>177.56</course>
  <speed>0.044721359549995794</speed>
  <fix>3d</fix>
</trkpt>
<trkpt lat="-27.2737741" lon="151.2899071">
  <ele>348.03</ele>
  <time>2026-09-01T19:57:57Z</time>
  <course>163.06</course>
  <speed>0.03</speed>
  <fix>3d</fix>
</trkpt>
<trkpt lat="-27.2737739" lon="151.289907">
  <ele>348.12</ele>
  <time>2026-09-01T19:57:57Z</time>
  <course>177.54</course>
  <speed>0.0632455532033676</speed>
  <fix>3d</fix>
</trkpt>
<trkpt lat="-27.2737738" lon="151.2899069">
  <ele>348.09</ele>
  <time>2026-09-01T19:57:57Z</time>
  <course>177.54</course>
  <speed>0.1019803902718557</speed>
  <fix>3d</fix>
</trkpt>
<trkpt lat="-27.2737741" lon="151.2899071">
  <ele>348.03</ele>
  <time>2026-09-01T19:57:57Z</time>
  <course>163.06</course>
  <speed>0.03</speed>
  <fix>3d</fix>
</trkpt>
<trkpt lat="-27.2737738" lon="151.2899069">
  <ele>348.08</ele>
  <time>2026-09-01T19:57:57Z</time>
  <course>177.54</course>
  <speed>0.1118033988749895</speed>
  <fix>3d</fix>
</trkpt>
<trkpt lat="-27.2737737" lon="151.2899069">
  <ele>348.05</ele>
  <time>2026-09-01T19:57:57Z</time>
  <course>177.57</course>
  <speed>0.15297058540778355</speed>
  <fix>3d</fix>
</trkpt>
<trkpt lat="-27.2737741" lon="151.2899071">
  <ele>347.95</ele>
  <time>2026-09-01T19:57:57Z</time>
  <course>358.33</course>
  <speed>0.07</speed>
  <fix>3d</fix>
</trkpt>
<trkpt lat="-27.2737737" lon="151.2899069">
  <ele>348.04</ele>
  <time>2026-09-01T19:57:57Z</time>
  <course>177.57</course>
  <speed>0.15297058540778355</speed>
  <fix>3d</fix>
</trkpt>
<trkpt lat="-27.2737736" lon="151.2899069">
  <ele>348.0</ele>
  <time>2026-09-01T19:57:57Z</time>
  <course>177.63</course>
  <speed>0.20223748416156684</speed>
  <fix>3d</fix>
</trkpt>
<trkpt lat="-27.2737741" lon="151.2899071">
  <ele>347.95</ele>
  <time>2026-09-01T19:57:57Z</time>
  <course>358.33</course>
  <speed>0.07</speed>
  <fix>3d</fix>
</trkpt>
<trkpt lat="-27.2737736" lon="151.2899069">
  <ele>348.0</ele>
  <time>2026-09-01T19:57:57Z</time>
  <course>177.63</course>
  <speed>0.21213203435596426</speed>
  <fix>3d</fix>
</trkpt>
<trkpt lat="-27.2737734" lon="151.2899069">
  <ele>347.96</ele>
  <time>2026-09-01T19:57:57Z</time>
  <course>177.71</course>
  <speed>0.25317977802344327</speed>
  <fix>3d</fix>
</trkpt>
<trkpt lat="-27.2737739" lon="151.2899071">
  <ele>347.87</ele>
  <time>2026-09-01T19:57:57Z</time>
  <course>356.55</course>
  <speed>0.18</speed>
  <fix>3d</fix>
</trkpt>
<trkpt lat="-27.2737734" lon="151.2899069">
  <ele>347.95</ele>
  <time>2026-09-01T19:57:57Z</time>
  <course>177.73</course>
  <speed>0.27294688127912364</speed>
  <fix>3d</fix>
</trkpt>
<trkpt lat="-27.2737733" lon="151.2899069">
  <ele>347.93</ele>
  <time>2026-09-01T19:57:57Z</time>
  <course>177.77</course>
  <speed>0.304138126514911</speed>
  <fix>3d</fix>
</trkpt>
<trkpt lat="-27.2737739" lon="151.2899071">
  <ele>347.87</ele>
  <time>2026-09-01T19:57:57Z</time>
  <course>356.55</course>
  <speed>0.18</speed>
  <fix>3d</fix>
</trkpt>
<trkpt lat="-27.2737733" lon="151.2899069">
  <ele>347.93</ele>
  <time>2026-09-01T19:57:58Z</time>
  <course>177.77</course>
  <speed>0.304138126514911</speed>
  <fix>3d</fix>
</trkpt>
<trkpt lat="-27.273773" lon="151.2899069">
  <ele>347.91</ele>
  <time>2026-09-01T19:57:58Z</time>
  <course>177.8</course>
  <speed>0.34365680554879163</speed>
  <fix>3d</fix>
</trkpt>
<trkpt lat="-27.2737735" lon="151.2899071">
  <ele>347.8</ele>
  <time>2026-09-01T19:57:58Z</time>
  <course>355.58</course>
  <speed>0.28</speed>
  <fix>3d</fix>
</trkpt>
<trkpt lat="-27.273773" lon="151.2899069">
  <ele>347.9</ele>
  <time>2026-09-01T19:57:58Z</time>
  <course>177.8</course>
  <speed>0.34365680554879163</speed>
  <fix>3d</fix>
</trkpt>
<trkpt lat="-27.2737727" lon="151.2899069">
  <ele>347.89</ele>
  <time>2026-09-01T19:57:58Z</time>
  <course>177.8</course>
  <speed>0.37483329627982626</speed>
  <fix>3d</fix>
</trkpt>
<trkpt lat="-27.2737735" lon="151.2899071">
  <ele>347.8</ele>
  <time>2026-09-01T19:57:58Z</time>
  <course>355.58</course>
  <speed>0.28</speed>
  <fix>3d</fix>
</trkpt>
<trkpt lat="-27.2737726" lon="151.2899069">
  <ele>347.89</ele>
  <time>2026-09-01T19:57:58Z</time>
  <course>177.8</course>
  <speed>0.38470768123342686</speed>
  <fix>3d</fix>
</trkpt>
<trkpt lat="-27.2737724" lon="151.2899068">
  <ele>347.89</ele>
  <time>2026-09-01T19:57:58Z</time>
  <course>177.78</course>
  <speed>0.4044749683231337</speed>
  <fix>3d</fix>
</trkpt>
<trkpt lat="-27.2737729" lon="151.2899071">
  <ele>347.77</ele>
  <time>2026-09-01T19:57:58Z</time>
  <course>354.69</course>
  <speed>0.35</speed>
  <fix>3d</fix>
</trkpt>
<trkpt lat="-27.2737723" lon="151.2899068">
  <ele>347.89</ele>
  <time>2026-09-01T19:57:58Z</time>
  <course>177.77</course>
  <speed>0.4143669871020132</speed>
  <fix>3d</fix>
</trkpt>
<trkpt lat="-27.273772" lon="151.2899068">
  <ele>347.89</ele>
  <time>2026-09-01T19:57:58Z</time>
  <course>177.75</course>
  <speed>0.42579337712087534</speed>
  <fix>3d</fix>
</trkpt>
<trkpt lat="-27.2737729" lon="151.2899071">
  <ele>347.77</ele>
  <time>2026-09-01T19:57:58Z</time>
  <course>354.69</course>
  <speed>0.35</speed>
  <fix>3d</fix>
</trkpt>
<trkpt lat="-27.2737719" lon="151.2899068">
  <ele>347.89</ele>
  <time>2026-09-01T19:57:58Z</time>
  <course>177.73</course>
  <speed>0.4356604182158393</speed>
  <fix>3d</fix>
</trkpt>
<trkpt lat="-27.2737717" lon="151.2899068">
  <ele>347.9</ele>
  <time>2026-09-01T19:57:58Z</time>
  <course>177.71</course>
  <speed>0.44553338819890925</speed>
  <fix>3d</fix>
</trkpt>
<trkpt lat="-27.2737722" lon="151.2899071">
  <ele>347.76</ele>
  <time>2026-09-01T19:57:58Z</time>
  <course>354.03</course>
  <speed>0.4</speed>
  <fix>3d</fix>
</trkpt>
<trkpt lat="-27.2737716" lon="151.2899068">
  <ele>347.9</ele>
  <time>2026-09-01T19:57:58Z</time>
  <course>177.71</course>
  <speed>0.44553338819890925</speed>
  <fix>3d</fix>
</trkpt>
<trkpt lat="-27.2737713" lon="151.2899067">
  <ele>347.91</ele>
  <time>2026-09-01T19:57:58Z</time>
  <course>177.7</course>
  <speed>0.455411901469428</speed>
  <fix>3d</fix>
</trkpt>
<trkpt lat="-27.2737722" lon="151.2899071">
  <ele>347.76</ele>
  <time>2026-09-01T19:57:58Z</time>
  <course>354.03</course>
  <speed>0.4</speed>
  <fix>3d</fix>
</trkpt>
<trkpt lat="-27.2737712" lon="151.2899067">
  <ele>347.92</ele>
  <time>2026-09-01T19:57:58Z</time>
  <course>177.7</course>
  <speed>0.46529560496527367</speed>
  <fix>3d</fix>
</trkpt>
<trkpt lat="-27.2737709" lon="151.2899067">
  <ele>347.93</ele>
  <time>2026-09-01T19:57:58Z</time>
  <course>177.71</course>
  <speed>0.46529560496527367</speed>
  <fix>3d</fix>
</trkpt>
<trkpt lat="-27.2737715" lon="151.289907">
  <ele>347.78</ele>
  <time>2026-09-01T19:57:58Z</time>
  <course>353.69</course>
  <speed>0.43</speed>
  <fix>3d</fix>
</trkpt>
<trkpt lat="-27.2737708" lon="151.2899067">
  <ele>347.93</ele>
  <time>2026-09-01T19:57:58Z</time>
  <course>177.71</course>
  <speed>0.4751841748206689</speed>
  <fix>3d</fix>
</trkpt>
<trkpt lat="-27.2737705" lon="151.2899066">
  <ele>347.95</ele>
  <time>2026-09-01T19:57:58Z</time>
  <course>177.74</course>
  <speed>0.4751841748206689</speed>
  <fix>3d</fix>
</trkpt>
<trkpt lat="-27.2737715" lon="151.289907">
  <ele>347.78</ele>
  <time>2026-09-01T19:57:58Z</time>
  <course>353.69</course>
  <speed>0.43</speed>
  <fix>3d</fix>
</trkpt>
<trkpt lat="-27.2737704" lon="151.2899066">
  <ele>347.95</ele>
  <time>2026-09-01T19:57:58Z</time>
  <course>177.75</course>
  <speed>0.4751841748206689</speed>
  <fix>3d</fix>
</trkpt>
<trkpt lat="-27.2737701" lon="151.2899066">
  <ele>347.97</ele>
  <time>2026-09-01T19:57:58Z</time>
  <course>177.78</course>
  <speed>0.4751841748206689</speed>
  <fix>3d</fix>
</trkpt>
<trkpt lat="-27.2737707" lon="151.2899069">
  <ele>347.83</ele>
  <time>2026-09-01T19:57:58Z</time>
  <course>353.54</course>
  <speed>0.45</speed>
  <fix>3d</fix>
</trkpt>
<trkpt lat="-27.27377" lon="151.2899066">
  <ele>347.97</ele>
  <time>2026-09-01T19:57:58Z</time>
  <course>177.79</course>
  <speed>0.4751841748206689</speed>
  <fix>3d</fix>
</trkpt>
<trkpt lat="-27.2737697" lon="151.2899066">
  <ele>347.99</ele>
  <time>2026-09-01T19:57:58Z</time>
  <course>177.82</course>
  <speed>0.4751841748206689</speed>
  <fix>3d</fix>
</trkpt>
<trkpt lat="-27.2737707" lon="151.2899069">
  <ele>347.83</ele>
  <time>2026-09-01T19:57:58Z</time>
  <course>353.54</course>
  <speed>0.45</speed>
  <fix>3d</fix>
</trkpt>
<trkpt lat="-27.2737696" lon="151.2899065">
  <ele>347.99</ele>
  <time>2026-09-01T19:57:58Z</time>
  <course>177.83</course>
  <speed>0.4751841748206689</speed>
  <fix>3d</fix>
</trkpt>
<trkpt lat="-27.2737693" lon="151.2899065">
  <ele>348.01</ele>
  <time>2026-09-01T19:57:58Z</time>
  <course>177.86</course>
  <speed>0.4751841748206689</speed>
  <fix>3d</fix>
</trkpt>
<trkpt lat="-27.2737699" lon="151.2899068">
  <ele>347.88</ele>
  <time>2026-09-01T19:57:58Z</time>
  <course>353.4</course>
  <speed>0.46</speed>
  <fix>3d</fix>
</trkpt>
<trkpt lat="-27.2737692" lon="151.2899065">
  <ele>348.01</ele>
  <time>2026-09-01T19:57:58Z</time>
  <course>177.86</course>
  <speed>0.4751841748206689</speed>
  <fix>3d</fix>
</trkpt>
<trkpt lat="-27.2737689" lon="151.2899065">
  <ele>348.02</ele>
  <time>2026-09-01T19:57:58Z</time>
  <course>177.88</course>
  <speed>0.46529560496527367</speed>
  <fix>3d</fix>
</trkpt>
<trkpt lat="-27.2737699" lon="151.2899068">
  <ele>347.88</ele>
  <time>2026-09-01T19:57:58Z</time>
  <course>353.4</course>
  <speed>0.46</speed>
  <fix>3d</fix>
</trkpt>
<trkpt lat="-27.2737689" lon="151.2899065">
  <ele>348.03</ele>
  <time>2026-09-01T19:57:58Z</time>
  <course>177.88</course>
  <speed>0.46529560496527367</speed>
  <fix>3d</fix>
</trkpt>
<trkpt lat="-27.2737685" lon="151.2899064">
  <ele>348.04</ele>
  <time>2026-09-01T19:57:58Z</time>
  <course>177.89</course>
  <speed>0.46529560496527367</speed>
  <fix>3d</fix>
</trkpt>
<trkpt lat="-27.2737691" lon="151.2899067">
  <ele>347.91</ele>
  <time>2026-09-01T19:57:58Z</time>
  <course>353.1</course>
  <speed>0.45</speed>
  <fix>3d</fix>
</trkpt>
<trkpt lat="-27.2737684" lon="151.2899064">
  <ele>348.04</ele>
  <time>2026-09-01T19:57:58Z</time>
  <course>177.88</course>
  <speed>0.46529560496527367</speed>
  <fix>3d</fix>
</trkpt>
<trkpt lat="-27.2737681" lon="151.2899064">
  <ele>348.05</ele>
  <time>2026-09-01T19:57:58Z</time>
  <course>177.87</course>
  <speed>0.455411901469428</speed>
  <fix>3d</fix>
</trkpt>
<trkpt lat="-27.2737691" lon="151.2899067">
  <ele>347.91</ele>
  <time>2026-09-01T19:57:58Z</time>
  <course>353.1</course>
  <speed>0.45</speed>
  <fix>3d</fix>
</trkpt>
<trkpt lat="-27.273768" lon="151.2899064">
  <ele>348.06</ele>
  <time>2026-09-01T19:57:58Z</time>
  <course>177.86</course>
  <speed>0.455411901469428</speed>
  <fix>3d</fix>
</trkpt>
<trkpt lat="-27.2737677" lon="151.2899063">
  <ele>348.06</ele>
  <time>2026-09-01T19:57:58Z</time>
  <course>177.83</course>
  <speed>0.44553338819890925</speed>
  <fix>3d</fix>
</trkpt>
<trkpt lat="-27.2737683" lon="151.2899066">
  <ele>347.95</ele>
  <time>2026-09-01T19:57:58Z</time>
  <course>352.58</course>
  <speed>0.44</speed>
  <fix>3d</fix>
</trkpt>
<trkpt lat="-27.2737676" lon="151.2899063">
  <ele>348.07</ele>
  <time>2026-09-01T19:57:58Z</time>
  <course>177.82</course>
  <speed>0.44553338819890925</speed>
  <fix>3d</fix>
</trkpt>
<trkpt lat="-27.2737674" lon="151.2899063">
  <ele>348.07</ele>
  <time>2026-09-01T19:57:58Z</time>
  <course>177.78</course>
  <speed>0.4356604182158393</speed>
  <fix>3d</fix>
</trkpt>
<trkpt lat="-27.2737683" lon="151.2899066">
  <ele>347.95</ele>
  <time>2026-09-01T19:57:58Z</time>
  <course>352.58</course>
  <speed>0.44</speed>
  <fix>3d</fix>
</trkpt>
<trkpt lat="-27.2737673" lon="151.2899063">
  <ele>348.07</ele>
  <time>2026-09-01T19:57:58Z</time>
  <course>177.77</course>
  <speed>0.42579337712087534</speed>
  <fix>3d</fix>
</trkpt>
<trkpt lat="-27.273767" lon="151.2899062">
  <ele>348.07</ele>
  <time>2026-09-01T19:57:58Z</time>
  <course>177.73</course>
  <speed>0.4159326868617084</speed>
  <fix>3d</fix>
</trkpt>
<trkpt lat="-27.2737675" lon="151.2899065">
  <ele>347.97</ele>
  <time>2026-09-01T19:57:58Z</time>
  <course>351.87</course>
  <speed>0.42</speed>
  <fix>3d</fix>
</trkpt>
<trkpt lat="-27.2737669" lon="151.2899062">
  <ele>348.08</ele>
  <time>2026-09-01T19:57:58Z</time>
  <course>177.71</course>
  <speed>0.4159326868617084</speed>
  <fix>3d</fix>
</trkpt>
<trkpt lat="-27.2737666" lon="151.2899062">
  <ele>348.08</ele>
  <time>2026-09-01T19:57:58Z</time>
  <course>177.67</course>
  <speed>0.40607881008493907</speed>
  <fix>3d</fix>
</trkpt>
<trkpt lat="-27.2737675" lon="151.2899065">
  <ele>347.97</ele>
  <time>2026-09-01T19:57:58Z</time>
  <course>351.87</course>
  <speed>0.42</speed>
  <fix>3d</fix>
</trkpt>
<trkpt lat="-27.2737665" lon="151.2899062">
  <ele>348.08</ele>
  <time>2026-09-01T19:57:58Z</time>
  <course>177.65</course>
  <speed>0.40607881008493907</speed>
  <fix>3d</fix>
</trkpt>
<trkpt lat="-27.2737663" lon="151.2899061">
  <ele>348.08</ele>
  <time>2026-09-01T19:57:58Z</time>
  <course>177.61</course>
  <speed>0.396232255123179</speed>
  <fix>3d</fix>
</trkpt>
<trkpt lat="-27.2737667" lon="151.2899063">
  <ele>347.98</ele>
  <time>2026-09-01T19:57:58Z</time>
  <course>350.93</course>
  <speed>0.39</speed>
  <fix>3d</fix>
</trkpt>
<trkpt lat="-27.2737662" lon="151.2899061">
  <ele>348.08</ele>
  <time>2026-09-01T19:57:58Z</time>
  <course>177.6</course>
  <speed>0.38639358172723315</speed>
  <fix>3d</fix>
</trkpt>
<trkpt lat="-27.273766" lon="151.2899061">
  <ele>348.07</ele>
  <time>2026-09-01T19:57:58Z</time>
  <course>177.57</course>
  <speed>0.37656340767525465</speed>
  <fix>3d</fix>
</trkpt>
<trkpt lat="-27.2737667" lon="151.2899063">
  <ele>347.98</ele>
  <time>2026-09-01T19:57:58Z</time>
  <course>350.93</course>
  <speed>0.39</speed>
  <fix>3d</fix>
</trkpt>
<trkpt lat="-27.2737659" lon="151.2899061">
  <ele>348.07</ele>
  <time>2026-09-01T19:57:58Z</time>
  <course>177.56</course>
  <speed>0.366742416417845</speed>
  <fix>3d</fix>
</trkpt>
<trkpt lat="-27.2737657" lon="151.289906">
  <ele>348.07</ele>
  <time>2026-09-01T19:57:58Z</time>
  <course>177.53</course>
  <speed>0.356931365951495</speed>
  <fix>3d</fix>
</trkpt>
<trkpt lat="-27.2737661" lon="151.2899062">
  <ele>347.98</ele>
  <time>2026-09-01T19:57:58Z</time>
  <course>349.71</course>
  <speed>0.36</speed>
  <fix>3d</fix>
</trkpt>
<trkpt lat="-27.2737656" lon="151.289906">
  <ele>348.07</ele>
  <time>2026-09-01T19:57:58Z</time>
  <course>177.52</course>
  <speed>0.356931365951495</speed>
  <fix>3d</fix>
</trkpt>
<trkpt lat="-27.2737654" lon="151.289906">
  <ele>348.06</ele>
  <time>2026-09-01T19:57:58Z</time>
  <course>177.5</course>
  <speed>0.34713109915419565</speed>
  <fix>3d</fix>
</trkpt>
<trkpt lat="-27.2737661" lon="151.2899062">
  <ele>347.98</ele>
  <time>2026-09-01T19:57:58Z</time>
  <course>349.71</course>
  <speed>0.36</speed>
  <fix>3d</fix>
</trkpt>
<trkpt lat="-27.2737654" lon="151.289906">
  <ele>348.06</ele>
  <time>2026-09-01T19:57:58Z</time>
  <course>177.5</course>
  <speed>0.34713109915419565</speed>
  <fix>3d</fix>
</trkpt>
<trkpt lat="-27.2737651" lon="151.2899059">
  <ele>348.06</ele>
  <time>2026-09-01T19:57:58Z</time>
  <course>177.48</course>
  <speed>0.3298484500494128</speed>
  <fix>3d</fix>
</trkpt>
<trkpt lat="-27.2737655" lon="151.2899061">
  <ele>347.98</ele>
  <time>2026-09-01T19:57:58Z</time>
  <course>348.22</course>
  <speed>0.33</speed>
  <fix>3d</fix>
</trkpt>
<trkpt lat="-27.2737651" lon="151.2899059">
  <ele>348.06</ele>
  <time>2026-09-01T19:57:58Z</time>
  <course>177.48</course>
  <speed>0.3298484500494128</speed>
  <fix>3d</fix>
</trkpt>
<trkpt lat="-27.2737648" lon="151.2899059">
  <ele>348.05</ele>
  <time>2026-09-01T19:57:58Z</time>
  <course>177.46</course>
  <speed>0.31048349392520047</speed>
  <fix>3d</fix>
</trkpt>
<trkpt lat="-27.2737655" lon="151.2899061">
  <ele>347.98</ele>
  <time>2026-09-01T19:57:58Z</time>
  <course>348.22</course>
  <speed>0.33</speed>
  <fix>3d</fix>
</trkpt>
<trkpt lat="-27.2737647" lon="151.2899058">
  <ele>348.05</ele>
  <time>2026-09-01T19:57:58Z</time>
  <course>177.46</course>
  <speed>0.31048349392520047</speed>
  <fix>3d</fix>
</trkpt>
<trkpt lat="-27.2737646" lon="151.2899058">
  <ele>348.05</ele>
  <time>2026-09-01T19:57:58Z</time>
  <course>177.45</course>
  <speed>0.30083217912982646</speed>
  <fix>3d</fix>
</trkpt>
<trkpt lat="-27.2737649" lon="151.2899059">
  <ele>347.97</ele>
  <time>2026-09-01T19:57:58Z</time>
  <course>346.51</course>
  <speed>0.3</speed>
  <fix>3d</fix>
</trkpt>
<trkpt lat="-27.2737645" lon="151.2899058">
  <ele>348.05</ele>
  <time>2026-09-01T19:57:58Z</time>
  <course>177.45</course>
  <speed>0.29120439557122074</speed>
  <fix>3d</fix>
</trkpt>
<trkpt lat="-27.2737643" lon="151.2899057">
  <ele>348.05</ele>
  <time>2026-09-01T19:57:58Z</time>
  <course>177.44</course>
  <speed>0.2816025568065745</speed>
  <fix>3d</fix>
</trkpt>
<trkpt lat="-27.2737649" lon="151.2899059">
  <ele>347.97</ele>
  <time>2026-09-01T19:57:58Z</time>
  <course>346.51</course>
  <speed>0.3</speed>
  <fix>3d</fix>
</trkpt>
<trkpt lat="-27.2737643" lon="151.2899057">
  <ele>348.05</ele>
  <time>2026-09-01T19:57:58Z</time>
  <course>177.43</course>
  <speed>0.2816025568065745</speed>
  <fix>3d</fix>
</trkpt>
<trkpt lat="-27.2737641" lon="151.2899057">
  <ele>348.04</ele>
  <time>2026-09-01T19:57:58Z</time>
  <course>177.43</course>
  <speed>0.26248809496813374</speed>
  <fix>3d</fix>
</trkpt>
<trkpt lat="-27.2737644" lon="151.2899058">
  <ele>347.97</ele>
  <time>2026-09-01T19:57:58Z</time>
  <course>344.58</course>
  <speed>0.27</speed>
  <fix>3d</fix>
</trkpt>
<trkpt lat="-27.2737641" lon="151.2899057">
  <ele>348.04</ele>
  <time>2026-09-01T19:57:58Z</time>
  <course>177.43</course>
  <speed>0.26248809496813374</speed>
  <fix>3d</fix>
</trkpt>
<trkpt lat="-27.2737639" lon="151.2899056">
  <ele>348.04</ele>
  <time>2026-09-01T19:57:58Z</time>
  <course>177.41</course>
  <speed>0.2529822128134704</speed>
  <fix>3d</fix>
</trkpt>
<trkpt lat="-27.2737644" lon="151.2899058">
  <ele>347.97</ele>
  <time>2026-09-01T19:57:58Z</time>
  <course>344.58</course>
  <speed>0.27</speed>
  <fix>3d</fix>
</trkpt>
<trkpt lat="-27.2737638" lon="151.2899056">
  <ele>348.04</ele>
  <time>2026-09-01T19:57:58Z</time>
  <course>177.41</course>
  <speed>0.24351591323771843</speed>
  <fix>3d</fix>
</trkpt>
<trkpt lat="-27.2737637" lon="151.2899055">
  <ele>348.04</ele>
  <time>2026-09-01T19:57:58Z</time>
  <course>177.4</course>
  <speed>0.2340939982143925</speed>
  <fix>3d</fix>
</trkpt>
<trkpt lat="-27.273764" lon="151.2899057">
  <ele>347.97</ele>
  <time>2026-09-01T19:57:58Z</time>
  <course>342.29</course>
  <speed>0.23</speed>
  <fix>3d</fix>
</trkpt>
<trkpt lat="-27.2737636" lon="151.2899055">
  <ele>348.04</ele>
  <time>2026-09-01T19:57:58Z</time>
  <course>177.39</course>
  <speed>0.22472205054244232</speed>
  <fix>3d</fix>
</trkpt>
<trkpt lat="-27.2737635" lon="151.2899055">
  <ele>348.04</ele>
  <time>2026-09-01T19:57:58Z</time>
  <course>177.38</course>
  <speed>0.21540659228538014</speed>
  <fix>3d</fix>
</trkpt>
<trkpt lat="-27.273764" lon="151.2899057">
  <ele>347.97</ele>
  <time>2026-09-01T19:57:58Z</time>
  <course>342.29</course>
  <speed>0.23</speed>
  <fix>3d</fix>
</trkpt>
<trkpt lat="-27.2737635" lon="151.2899054">
  <ele>348.04</ele>
  <time>2026-09-01T19:57:58Z</time>
  <course>177.37</course>
  <speed>0.20615528128088303</speed>
  <fix>3d</fix>
</trkpt>
<trkpt lat="-27.2737634" lon="151.2899054">
  <ele>348.05</ele>
  <time>2026-09-01T19:57:58Z</time>
  <course>177.36</course>
  <speed>0.19313207915827968</speed>
  <fix>3d</fix>
</trkpt>
<trkpt lat="-27.2737636" lon="151.2899055">
  <ele>347.97</ele>
  <time>2026-09-01T19:57:58Z</time>
  <course>339.39</course>
  <speed>0.2</speed>
  <fix>3d</fix>
</trkpt>
<trkpt lat="-27.2737633" lon="151.2899054">
  <ele>348.05</ele>
  <time>2026-09-01T19:57:58Z</time>
  <course>177.36</course>
  <speed>0.19313207915827968</speed>
  <fix>3d</fix>
</trkpt>
<trkpt lat="-27.2737632" lon="151.2899053">
  <ele>348.05</ele>
  <time>2026-09-01T19:57:58Z</time>
  <course>177.34</course>
  <speed>0.18384776310850234</speed>
  <fix>3d</fix>
</trkpt>
<trkpt lat="-27.2737636" lon="151.2899055">
  <ele>347.97</ele>
  <time>2026-09-01T19:57:58Z</time>
  <course>339.39</course>
  <speed>0.2</speed>
  <fix>3d</fix>
</trkpt>
<trkpt lat="-27.2737632" lon="151.2899053">
  <ele>348.05</ele>
  <time>2026-09-01T19:57:58Z</time>
  <course>177.34</course>
  <speed>0.17464249196572978</speed>
  <fix>3d</fix>
</trkpt>
<trkpt lat="-27.2737631" lon="151.2899053">
  <ele>348.05</ele>
  <time>2026-09-01T19:57:58Z</time>
  <course>177.34</course>
  <speed>0.16552945357246848</speed>
  <fix>3d</fix>
</trkpt>
<trkpt lat="-27.2737632" lon="151.2899054">
  <ele>347.97</ele>
  <time>2026-09-01T19:57:58Z</time>
  <course>335.89</course>
  <speed>0.17</speed>
  <fix>3d</fix>
</trkpt>
<trkpt lat="-27.2737631" lon="151.2899053">
  <ele>348.05</ele>
  <time>2026-09-01T19:57:58Z</time>
  <course>177.34</course>
  <speed>0.16552945357246848</speed>
  <fix>3d</fix>
</trkpt>
<trkpt lat="-27.273763" lon="151.2899052">
  <ele>348.05</ele>
  <time>2026-09-01T19:57:58Z</time>
  <course>177.32</course>
  <speed>0.147648230602334</speed>
  <fix>3d</fix>
</trkpt>
<trkpt lat="-27.2737632" lon="151.2899054">
  <ele>347.97</ele>
  <time>2026-09-01T19:57:58Z</time>
  <course>335.89</course>
  <speed>0.17</speed>
  <fix>3d</fix>
</trkpt>
<trkpt lat="-27.273763" lon="151.2899052">
  <ele>348.05</ele>
  <time>2026-09-01T19:57:58Z</time>
  <course>177.32</course>
  <speed>0.147648230602334</speed>
  <fix>3d</fix>
</trkpt>
<trkpt lat="-27.2737629" lon="151.2899051">
  <ele>348.06</ele>
  <time>2026-09-01T19:57:58Z</time>
  <course>177.32</course>
  <speed>0.13892443989449804</speed>
  <fix>3d</fix>
</trkpt>
<trkpt lat="-27.273763" lon="151.2899052">
  <ele>347.97</ele>
  <time>2026-09-01T19:57:58Z</time>
  <course>331.4</course>
  <speed>0.13</speed>
  <fix>3d</fix>
</trkpt>
<trkpt lat="-27.2737628" lon="151.2899051">
  <ele>348.06</ele>
  <time>2026-09-01T19:57:58Z</time>
  <course>177.32</course>
  <speed>0.130384048104053</speed>
  <fix>3d</fix>
</trkpt>
<trkpt lat="-27.2737628" lon="151.2899051">
  <ele>348.06</ele>
  <time>2026-09-01T19:57:58Z</time>
  <course>177.31</course>
  <speed>0.11661903789690602</speed>
  <fix>3d</fix>
</trkpt>
<trkpt lat="-27.273763" lon="151.2899052">
  <ele>347.97</ele>
  <time>2026-09-01T19:57:58Z</time>
  <course>331.4</course>
  <speed>0.13</speed>
  <fix>3d</fix>
</trkpt>
<trkpt lat="-27.2737627" lon="151.289905">
  <ele>348.06</ele>
  <time>2026-09-01T19:57:58Z</time>
  <course>177.31</course>
  <speed>0.1</speed>
  <fix>3d</fix>
</trkpt>
<trkpt lat="-27.2737628" lon="151.2899051">
  <ele>347.98</ele>
  <time>2026-09-01T19:57:58Z</time>
  <course>324.68</course>
  <speed>0.1</speed>
  <fix>3d</fix>
</trkpt>
<trkpt lat="-27.2737626" lon="151.289905">
  <ele>348.07</ele>
  <time>2026-09-01T19:57:58Z</time>
  <course>177.3</course>
  <speed>0.09219544457292887</speed>
  <fix>3d</fix>
</trkpt>
<trkpt lat="-27.2737628" lon="151.2899051">
  <ele>347.98</ele>
  <time>2026-09-01T19:57:58Z</time>
  <course>324.68</course>
  <speed>0.1</speed>
  <fix>3d</fix>
</trkpt>
<trkpt lat="-27.2737626" lon="151.2899049">
  <ele>348.07</ele>
  <time>2026-09-01T19:57:58Z</time>
  <course>177.3</course>
  <speed>0.07810249675906654</speed>
  <fix>3d</fix>
</trkpt>
<trkpt lat="-27.2737627" lon="151.2899049">
  <ele>347.99</ele>
  <time>2026-09-01T19:57:58Z</time>
  <course>312.98</course>
  <speed>0.07</speed>
  <fix>3d</fix>
</trkpt>
<trkpt lat="-27.2737626" lon="151.2899048">
  <ele>348.06</ele>
  <time>2026-09-01T19:57:58Z</time>
  <course>177.3</course>
  <speed>0.05830951894845301</speed>
  <fix>3d</fix>
</trkpt>
<trkpt lat="-27.2737627" lon="151.2899049">
  <ele>347.99</ele>
  <time>2026-09-01T19:57:58Z</time>
  <course>312.98</course>
  <speed>0.07</speed>
  <fix>3d</fix>
</trkpt>
<trkpt lat="-27.2737625" lon="151.2899048">
  <ele>348.04</ele>
  <time>2026-09-01T19:57:58Z</time>
  <course>177.31</course>
  <speed>0.05099019513592785</speed>
  <fix>3d</fix>
</trkpt>
<trkpt lat="-27.2737626" lon="151.2899048">
  <ele>347.97</ele>
  <time>2026-09-01T19:57:58Z</time>
  <course>289.18</course>
  <speed>0.05</speed>
  <fix>3d</fix>
</trkpt>
<trkpt lat="-27.2737626" lon="151.2899048">
  <ele>348.02</ele>
  <time>2026-09-01T19:57:58Z</time>
  <course>177.31</course>
  <speed>0.04</speed>
  <fix>3d</fix>
</trkpt>
<trkpt lat="-27.2737626" lon="151.2899048">
  <ele>347.97</ele>
  <time>2026-09-01T19:57:58Z</time>
  <course>289.18</course>
  <speed>0.05</speed>
  <fix>3d</fix>
</trkpt>
<trkpt lat="-27.2737626" lon="151.2899047">
  <ele>348.0</ele>
  <time>2026-09-01T19:57:58Z</time>
  <course>177.32</course>
  <speed>0.0412310562561766</speed>
  <fix>3d</fix>
</trkpt>
<trkpt lat="-27.2737626" lon="151.2899047">
  <ele>347.94</ele>
  <time>2026-09-01T19:57:58Z</time>
  <course>246.2</course>
  <speed>0.04</speed>
  <fix>3d</fix>
</trkpt>
<trkpt lat="-27.2737626" lon="151.2899047">
  <ele>347.96</ele>
  <time>2026-09-01T19:57:58Z</time>
  <course>177.33</course>
  <speed>0.03605551275463989</speed>
  <fix>3d</fix>
</trkpt>
<trkpt lat="-27.2737626" lon="151.2899047">
  <ele>347.94</ele>
  <time>2026-09-01T19:57:58Z</time>
  <course>246.2</course>
  <speed>0.04</speed>
  <fix>3d</fix>
</trkpt>
<trkpt lat="-27.2737626" lon="151.2899046">
  <ele>347.92</ele>
  <time>2026-09-01T19:57:58Z</time>
  <course>177.34</course>
  <speed>0.05</speed>
  <fix>3d</fix>
</trkpt>
<trkpt lat="-27.2737627" lon="151.2899047">
  <ele>347.88</ele>
  <time>2026-09-01T19:57:58Z</time>
  <course>210.81</course>
  <speed>0.05</speed>
  <fix>3d</fix>
</trkpt>
<trkpt lat="-27.2737626" lon="151.2899046">
  <ele>347.88</ele>
  <time>2026-09-01T19:57:58Z</time>
  <course>177.34</course>
  <speed>0.053851648071345036</speed>
  <fix>3d</fix>
</trkpt>
<trkpt lat="-27.2737627" lon="151.2899047">
  <ele>347.88</ele>
  <time>2026-09-01T19:57:58Z</time>
  <course>210.81</course>
  <speed>0.05</speed>
  <fix>3d</fix>
</trkpt>
<trkpt lat="-27.2737627" lon="151.2899046">
  <ele>347.83</ele>
  <time>2026-09-01T19:57:58Z</time>
  <course>177.34</course>
  <speed>0.0632455532033676</speed>
  <fix>3d</fix>
</trkpt>
<trkpt lat="-27.2737627" lon="151.2899047">
  <ele>347.8</ele>
  <time>2026-09-01T19:57:58Z</time>
  <course>194.05</course>
  <speed>0.07</speed>
  <fix>3d</fix>
</trkpt>
<trkpt lat="-27.2737627" lon="151.2899046">
  <ele>347.77</ele>
  <time>2026-09-01T19:57:58Z</time>
  <course>177.33</course>
  <speed>0.07071067811865475</speed>
  <fix>3d</fix>
</trkpt>
<trkpt lat="-27.2737627" lon="151.2899047">
  <ele>347.8</ele>
  <time>2026-09-01T19:57:58Z</time>
  <course>194.05</course>
  <speed>0.07</speed>
  <fix>3d</fix>
</trkpt>
<trkpt lat="-27.2737628" lon="151.2899046">
  <ele>347.72</ele>
  <time>2026-09-01T19:57:58Z</time>
  <course>177.33</course>
  <speed>0.08062257748298549</speed>
  <fix>3d</fix>
</trkpt>
<trkpt lat="-27.2737629" lon="151.2899047">
  <ele>347.69</ele>
  <time>2026-09-01T19:57:58Z</time>
  <course>185.66</course>
  <speed>0.09</speed>
  <fix>3d</fix>
</trkpt>
<trkpt lat="-27.2737629" lon="151.2899046">
  <ele>347.66</ele>
  <time>2026-09-01T19:57:58Z</time>
  <course>177.32</course>
  <speed>0.08062257748298549</speed>
  <fix>3d</fix>
</trkpt>
<trkpt lat="-27.2737629" lon="151.2899047">
  <ele>347.69</ele>
  <time>2026-09-01T19:57:58Z</time>
  <course>185.66</course>
  <speed>0.09</speed>
  <fix>3d</fix>
</trkpt>
<trkpt lat="-27.273763" lon="151.2899046">
  <ele>347.6</ele>
  <time>2026-09-01T19:57:58Z</time>
  <course>177.31</course>
  <speed>0.09</speed>
  <fix>3d</fix>
</trkpt>
<trkpt lat="-27.273763" lon="151.2899047">
  <ele>347.58</ele>
  <time>2026-09-01T19:57:58Z</time>
  <course>180.7</course>
  <speed>0.1</speed>
  <fix>3d</fix>
</trkpt>
<trkpt lat="-27.2737631" lon="151.2899046">
  <ele>347.54</ele>
  <time>2026-09-01T19:57:58Z</time>
  <course>177.29</course>
  <speed>0.09</speed>
  <fix>3d</fix>
</trkpt>
<trkpt lat="-27.273763" lon="151.2899047">
  <ele>347.58</ele>
  <time>2026-09-01T19:57:58Z</time>
  <course>180.7</course>
  <speed>0.1</speed>
  <fix>3d</fix>
</trkpt>
<trkpt lat="-27.2737632" lon="151.2899046">
  <ele>347.49</ele>
  <time>2026-09-01T19:57:58Z</time>
  <course>177.29</course>
  <speed>0.09</speed>
  <fix>3d</fix>
</trkpt>
<trkpt lat="-27.2737633" lon="151.2899047">
  <ele>347.47</ele>
  <time>2026-09-01T19:57:58Z</time>
  <course>177.33</course>
  <speed>0.11</speed>
  <fix>3d</fix>
</trkpt>
<trkpt lat="-27.2737633" lon="151.2899046">
  <ele>347.43</ele>
  <time>2026-09-01T19:57:58Z</time>
  <course>177.28</course>
  <speed>0.1</speed>
  <fix>3d</fix>
</trkpt>
<trkpt lat="-27.2737633" lon="151.2899047">
  <ele>347.47</ele>
  <time>2026-09-01T19:57:58Z</time>
  <course>177.33</course>
  <speed>0.11</speed>
  <fix>3d</fix>
</trkpt>
<trkpt lat="-27.2737634" lon="151.2899046">
  <ele>347.38</ele>
  <time>2026-09-01T19:57:58Z</time>
  <course>177.27</course>
  <speed>0.1</speed>
  <fix>3d</fix>
</trkpt>
<trkpt lat="-27.2737635" lon="151.2899047">
  <ele>347.36</ele>
  <time>2026-09-01T19:57:58Z</time>
  <course>174.75</course>
  <speed>0.12</speed>
  <fix>3d</fix>
</trkpt>
<trkpt lat="-27.2737635" lon="151.2899046">
  <ele>347.33</ele>
  <time>2026-09-01T19:57:58Z</time>
  <course>177.27</course>
  <speed>0.1</speed>
  <fix>3d</fix>
</trkpt>
<trkpt lat="-27.2737635" lon="151.2899047">
  <ele>347.36</ele>
  <time>2026-09-01T19:57:58Z</time>
  <course>174.75</course>
  <speed>0.12</speed>
  <fix>3d</fix>
</trkpt>
<trkpt lat="-27.2737636" lon="151.2899046">
  <ele>347.28</ele>
  <time>2026-09-01T19:57:58Z</time>
  <course>177.28</course>
  <speed>0.09</speed>
  <fix>3d</fix>
</trkpt>
<trkpt lat="-27.2737636" lon="151.2899047">
  <ele>347.25</ele>
  <time>2026-09-01T19:57:58Z</time>
  <course>172.63</course>
  <speed>0.12</speed>
  <fix>3d</fix>
</trkpt>
<trkpt lat="-27.2737637" lon="151.2899046">
  <ele>347.23</ele>
  <time>2026-09-01T19:57:58Z</time>
  <course>177.28</course>
  <speed>0.09</speed>
  <fix>3d</fix>
</trkpt>
<trkpt lat="-27.2737636" lon="151.2899047">
  <ele>347.25</ele>
  <time>2026-09-01T19:57:58Z</time>
  <course>172.63</course>
  <speed>0.12</speed>
  <fix>3d</fix>
</trkpt>
<trkpt lat="-27.2737638" lon="151.2899046">
  <ele>347.18</ele>
  <time>2026-09-01T19:57:58Z</time>
  <course>177.29</course>
  <speed>0.09</speed>
  <fix>3d</fix>
</trkpt>
<trkpt lat="-27.2737639" lon="151.2899047">
  <ele>347.15</ele>
  <time>2026-09-01T19:57:58Z</time>
  <course>170.72</course>
  <speed>0.12</speed>
  <fix>3d</fix>
</trkpt>
<trkpt lat="-27.2737639" lon="151.2899046">
  <ele>347.13</ele>
  <time>2026-09-01T19:57:58Z</time>
  <course>177.29</course>
  <speed>0.09</speed>
  <fix>3d</fix>
</trkpt>
<trkpt lat="-27.2737639" lon="151.2899047">
  <ele>347.15</ele>
  <time>2026-09-01T19:57:58Z</time>
  <course>170.72</course>
  <speed>0.12</speed>
  <fix>3d</fix>
</trkpt>
<trkpt lat="-27.273764" lon="151.2899046">
  <ele>347.09</ele>
  <time>2026-09-01T19:57:58Z</time>
  <course>177.3</course>
  <speed>0.08</speed>
  <fix>3d</fix>
</trkpt>
<trkpt lat="-27.2737642" lon="151.2899047">
  <ele>347.06</ele>
  <time>2026-09-01T19:57:58Z</time>
  <course>168.66</course>
  <speed>0.12</speed>
  <fix>3d</fix>
</trkpt>
<trkpt lat="-27.2737641" lon="151.2899047">
  <ele>347.04</ele>
  <time>2026-09-01T19:57:58Z</time>
  <course>177.3</course>
  <speed>0.08</speed>
  <fix>3d</fix>
</trkpt>
<trkpt lat="-27.2737642" lon="151.2899047">
  <ele>347.06</ele>
  <time>2026-09-01T19:57:58Z</time>
  <course>168.66</course>
  <speed>0.12</speed>
  <fix>3d</fix>
</trkpt>
<trkpt lat="-27.2737642" lon="151.2899047">
  <ele>347.0</ele>
  <time>2026-09-01T19:57:58Z</time>
  <course>177.31</course>
  <speed>0.07</speed>
  <fix>3d</fix>
</trkpt>
<trkpt lat="-27.2737644" lon="151.2899047">
  <ele>346.96</ele>
  <time>2026-09-01T19:57:58Z</time>
  <course>166.27</course>
  <speed>0.11</speed>
  <fix>3d</fix>
</trkpt>
<trkpt lat="-27.2737643" lon="151.2899047">
  <ele>346.95</ele>
  <time>2026-09-01T19:57:58Z</time>
  <course>177.31</course>
  <speed>0.06</speed>
  <fix>3d</fix>
</trkpt>
<trkpt lat="-27.2737644" lon="151.2899047">
  <ele>346.96</ele>
  <time>2026-09-01T19:57:58Z</time>
  <course>166.27</course>
  <speed>0.11</speed>
  <fix>3d</fix>
</trkpt>
<trkpt lat="-27.2737644" lon="151.2899047">
  <ele>346.91</ele>
  <time>2026-09-01T19:57:58Z</time>
  <course>177.31</course>
  <speed>0.06</speed>
  <fix>3d</fix>
</trkpt>
<trkpt lat="-27.2737645" lon="151.2899047">
  <ele>346.87</ele>
  <time>2026-09-01T19:57:58Z</time>
  <course>163.55</course>
  <speed>0.1</speed>
  <fix>3d</fix>
</trkpt>
<trkpt lat="-27.2737644" lon="151.2899047">
  <ele>346.86</ele>
  <time>2026-09-01T19:57:58Z</time>
  <course>177.31</course>
  <speed>0.05</speed>
  <fix>3d</fix>
</trkpt>
<trkpt lat="-27.2737645" lon="151.2899047">
  <ele>346.87</ele>
  <time>2026-09-01T19:57:58Z</time>
  <course>163.55</course>
  <speed>0.1</speed>
  <fix>3d</fix>
</trkpt>
<trkpt lat="-27.2737645" lon="151.2899047">
  <ele>346.81</ele>
  <time>2026-09-01T19:57:58Z</time>
  <course>177.3</course>
  <speed>0.04</speed>
  <fix>3d</fix>
</trkpt>
<trkpt lat="-27.2737647" lon="151.2899048">
  <ele>346.78</ele>
  <time>2026-09-01T19:57:58Z</time>
  <course>160.29</course>
  <speed>0.09</speed>
  <fix>3d</fix>
</trkpt>
<trkpt lat="-27.2737646" lon="151.2899047">
  <ele>346.77</ele>
  <time>2026-09-01T19:57:58Z</time>
  <course>177.29</course>
  <speed>0.03</speed>
  <fix>3d</fix>
</trkpt>
<trkpt lat="-27.2737647" lon="151.2899048">
  <ele>346.78</ele>
  <time>2026-09-01T19:57:58Z</time>
  <course>160.29</course>
  <speed>0.09</speed>
  <fix>3d</fix>
</trkpt>
<trkpt lat="-27.2737646" lon="151.2899047">
  <ele>346.72</ele>
  <time>2026-09-01T19:57:58Z</time>
  <course>177.29</course>
  <speed>0.03</speed>
  <fix>3d</fix>
</trkpt>
<trkpt lat="-27.2737648" lon="151.2899049">
  <ele>346.69</ele>
  <time>2026-09-01T19:57:58Z</time>
  <course>155.82</course>
  <speed>0.07</speed>
  <fix>3d</fix>
</trkpt>
<trkpt lat="-27.2737647" lon="151.2899048">
  <ele>346.67</ele>
  <time>2026-09-01T19:57:58Z</time>
  <course>177.28</course>
  <speed>0.02</speed>
  <fix>3d</fix>
</trkpt>
<trkpt lat="-27.2737648" lon="151.2899049">
  <ele>346.69</ele>
  <time>2026-09-01T19:57:58Z</time>
  <course>155.82</course>
  <speed>0.07</speed>
  <fix>3d</fix>
</trkpt>
<trkpt lat="-27.2737647" lon="151.2899048">
  <ele>346.62</ele>
  <time>2026-09-01T19:57:58Z</time>
  <course>177.27</course>
  <speed>0.01</speed>
  <fix>3d</fix>
</trkpt>
<trkpt lat="-27.2737649" lon="151.289905">
  <ele>346.59</ele>
  <time>2026-09-01T19:57:58Z</time>
  <course>149.1</course>
  <speed>0.06</speed>
  <fix>3d</fix>
</trkpt>
<trkpt lat="-27.2737647" lon="151.2899048">
  <ele>346.57</ele>
  <time>2026-09-01T19:57:58Z</time>
  <course>177.26</course>
  <speed>0.0</speed>
  <fix>3d</fix>
</trkpt>
<trkpt lat="-27.2737649" lon="151.289905">
  <ele>346.59</ele>
  <time>2026-09-01T19:57:58Z</time>
  <course>149.1</course>
  <speed>0.06</speed>
  <fix>3d</fix>
</trkpt>
<trkpt lat="-27.2737648" lon="151.2899048">
  <ele>346.52</ele>
  <time>2026-09-01T19:57:58Z</time>
  <course>177.24</course>
  <speed>0.0</speed>
  <fix>3d</fix>
</trkpt>
<trkpt lat="-27.273765" lon="151.289905">
  <ele>346.5</ele>
  <time>2026-09-01T19:57:58Z</time>
  <course>139.18</course>
  <speed>0.05</speed>
  <fix>3d</fix>
</trkpt>
<trkpt lat="-27.2737648" lon="151.2899048">
  <ele>346.47</ele>
  <time>2026-09-01T19:57:58Z</time>
  <course>177.23</course>
  <speed>0.01</speed>
  <fix>3d</fix>
</trkpt>
<trkpt lat="-27.273765" lon="151.289905">
  <ele>346.5</ele>
  <time>2026-09-01T19:57:58Z</time>
  <course>139.18</course>
  <speed>0.05</speed>
  <fix>3d</fix>
</trkpt>
<trkpt lat="-27.2737648" lon="151.2899048">
  <ele>346.42</ele>
  <time>2026-09-01T19:57:58Z</time>
  <course>177.21</course>
  <speed>0.02</speed>
  <fix>3d</fix>
</trkpt>
<trkpt lat="-27.2737651" lon="151.2899051">
  <ele>346.4</ele>
  <time>2026-09-01T19:57:58Z</time>
  <course>123.91</course>
  <speed>0.03</speed>
  <fix>3d</fix>
</trkpt>
<trkpt lat="-27.2737648" lon="151.2899049">
  <ele>346.37</ele>
  <time>2026-09-01T19:57:58Z</time>
  <course>177.19</course>
  <speed>0.02</speed>
  <fix>3d</fix>
</trkpt>
<trkpt lat="-27.2737651" lon="151.2899051">
  <ele>346.4</ele>
  <time>2026-09-01T19:57:58Z</time>
  <course>123.91</course>
  <speed>0.03</speed>
  <fix>3d</fix>
</trkpt>
<trkpt lat="-27.2737648" lon="151.2899049">
  <ele>346.32</ele>
  <time>2026-09-01T19:57:58Z</time>
  <course>177.16</course>
  <speed>0.0316227766016838</speed>
  <fix>3d</fix>
</trkpt>
<trkpt lat="-27.2737651" lon="151.2899052">
  <ele>346.3</ele>
  <time>2026-09-01T19:57:58Z</time>
  <course>97.54</course>
  <speed>0.02</speed>
  <fix>3d</fix>
</trkpt>
<trkpt lat="-27.2737648" lon="151.2899049">
  <ele>346.27</ele>
  <time>2026-09-01T19:57:58Z</time>
  <course>177.13</course>
  <speed>0.0412310562561766</speed>
  <fix>3d</fix>
</trkpt>
<trkpt lat="-27.2737651" lon="151.2899052">
  <ele>346.3</ele>
  <time>2026-09-01T19:57:58Z</time>
  <course>97.54</course>
  <speed>0.02</speed>
  <fix>3d</fix>
</trkpt>
<trkpt lat="-27.2737648" lon="151.2899049">
  <ele>346.22</ele>
  <time>2026-09-01T19:57:58Z</time>
  <course>177.1</course>
  <speed>0.05099019513592785</speed>
  <fix>3d</fix>
</trkpt>
<trkpt lat="-27.2737651" lon="151.2899052">
  <ele>346.2</ele>
  <time>2026-09-01T19:57:58Z</time>
  <course>59.07</course>
  <speed>0.02</speed>
  <fix>3d</fix>
</trkpt>
<trkpt lat="-27.2737647" lon="151.2899049">
  <ele>346.17</ele>
  <time>2026-09-01T19:57:58Z</time>
  <course>177.06</course>
  <speed>0.0632455532033676</speed>
  <fix>3d</fix>
</trkpt>
<trkpt lat="-27.2737651" lon="151.2899052">
  <ele>346.2</ele>
  <time>2026-09-01T19:57:58Z</time>
  <course>59.07</course>
  <speed>0.02</speed>
  <fix>3d</fix>
</trkpt>
<trkpt lat="-27.2737647" lon="151.2899049">
  <ele>346.11</ele>
  <time>2026-09-01T19:57:58Z</time>
  <course>177.02</course>
  <speed>0.0632455532033676</speed>
  <fix>3d</fix>
</trkpt>
<trkpt lat="-27.2737651" lon="151.2899052">
  <ele>346.09</ele>
  <time>2026-09-01T19:57:58Z</time>
  <course>29.48</course>
  <speed>0.03</speed>
  <fix>3d</fix>
</trkpt>
<trkpt lat="-27.2737648" lon="151.289905">
  <ele>346.06</ele>
  <time>2026-09-01T19:57:58Z</time>
  <course>176.98</course>
  <speed>0.07280109889280519</speed>
  <fix>3d</fix>
</trkpt>
<trkpt lat="-27.2737651" lon="151.2899052">
  <ele>346.09</ele>
  <time>2026-09-01T19:57:58Z</time>
  <course>29.48</course>
  <speed>0.03</speed>
  <fix>3d</fix>
</trkpt>
<trkpt lat="-27.2737647" lon="151.289905">
  <ele>346.01</ele>
  <time>2026-09-01T19:57:58Z</time>
  <course>176.95</course>
  <speed>0.07615773105863909</speed>
  <fix>3d</fix>
</trkpt>
<trkpt lat="-27.2737651" lon="151.2899052">
  <ele>346.0</ele>
  <time>2026-09-01T19:57:58Z</time>
  <course>13.41</course>
  <speed>0.04</speed>
  <fix>3d</fix>
</trkpt>
<trkpt lat="-27.2737647" lon="151.289905">
  <ele>345.96</ele>
  <time>2026-09-01T19:57:58Z</time>
  <course>176.93</course>
  <speed>0.0854400374531753</speed>
  <fix>3d</fix>
</trkpt>
<trkpt lat="-27.2737651" lon="151.2899052">
  <ele>346.0</ele>
  <time>2026-09-01T19:57:58Z</time>
  <course>13.41</course>
  <speed>0.04</speed>
  <fix>3d</fix>
</trkpt>
<trkpt lat="-27.2737647" lon="151.289905">
  <ele>345.91</ele>
  <time>2026-09-01T19:57:58Z</time>
  <course>176.92</course>
  <speed>0.08944271909999159</speed>
  <fix>3d</fix>
</trkpt>
<trkpt lat="-27.273765" lon="151.2899052">
  <ele>345.9</ele>
  <time>2026-09-01T19:57:58Z</time>
  <course>3.9</course>
  <speed>0.05</speed>
  <fix>3d</fix>
</trkpt>
<trkpt lat="-27.2737646" lon="151.289905">
  <ele>345.86</ele>
  <time>2026-09-01T19:57:58Z</time>
  <course>176.92</course>
  <speed>0.09848857801796104</speed>
  <fix>3d</fix>
</trkpt>
<trkpt lat="-27.273765" lon="151.2899052">
  <ele>345.9</ele>
  <time>2026-09-01T19:57:58Z</time>
  <course>3.9</course>
  <speed>0.05</speed>
  <fix>3d</fix>
</trkpt>
<trkpt lat="-27.2737646" lon="151.289905">
  <ele>345.82</ele>
  <time>2026-09-01T19:57:58Z</time>
  <course>176.92</course>
  <speed>0.09848857801796104</speed>
  <fix>3d</fix>
</trkpt>
<trkpt lat="-27.2737649" lon="151.2899052">
  <ele>345.8</ele>
  <time>2026-09-01T19:57:58Z</time>
  <course>358.58</course>
  <speed>0.06</speed>
  <fix>3d</fix>
</trkpt>
<trkpt lat="-27.2737645" lon="151.289905">
  <ele>345.77</ele>
  <time>2026-09-01T19:57:58Z</time>
  <course>176.96</course>
  <speed>0.10770329614269007</speed>
  <fix>3d</fix>
</trkpt>
<trkpt lat="-27.2737649" lon="151.2899052">
  <ele>345.8</ele>
  <time>2026-09-01T19:57:58Z</time>
  <course>358.58</course>
  <speed>0.06</speed>
  <fix>3d</fix>
</trkpt>
<trkpt lat="-27.2737644" lon="151.2899049">
  <ele>345.72</ele>
  <time>2026-09-01T19:57:58Z</time>
  <course>177.01</course>
  <speed>0.10770329614269007</speed>
  <fix>3d</fix>
</trkpt>
<trkpt lat="-27.2737648" lon="151.2899052">
  <ele>345.7</ele>
  <time>2026-09-01T19:57:58Z</time>
  <course>357.0</course>
  <speed>0.07</speed>
  <fix>3d</fix>
</trkpt>
<trkpt lat="-27.2737644" lon="151.2899049">
  <ele>345.67</ele>
  <time>2026-09-01T19:57:58Z</time>
  <course>177.07</course>
  <speed>0.11704699910719625</speed>
  <fix>3d</fix>
</trkpt>
<trkpt lat="-27.2737648" lon="151.2899052">
  <ele>345.7</ele>
  <time>2026-09-01T19:57:58Z</time>
  <course>357.0</course>
  <speed>0.07</speed>
  <fix>3d</fix>
</trkpt>
<trkpt lat="-27.2737643" lon="151.2899049">
  <ele>345.62</ele>
  <time>2026-09-01T19:57:58Z</time>
  <course>177.13</course>
  <speed>0.11704699910719625</speed>
  <fix>3d</fix>
</trkpt>
<trkpt lat="-27.2737646" lon="151.2899052">
  <ele>345.6</ele>
  <time>2026-09-01T19:57:58Z</time>
  <course>357.03</course>
  <speed>0.08</speed>
  <fix>3d</fix>
</trkpt>
<trkpt lat="-27.2737642" lon="151.2899049">
  <ele>345.57</ele>
  <time>2026-09-01T19:57:58Z</time>
  <course>177.17</course>
  <speed>0.11704699910719625</speed>
  <fix>3d</fix>
</trkpt>
<trkpt lat="-27.2737646" lon="151.2899052">
  <ele>345.6</ele>
  <time>2026-09-01T19:57:58Z</time>
  <course>357.03</course>
  <speed>0.08</speed>
  <fix>3d</fix>
</trkpt>
<trkpt lat="-27.2737641" lon="151.2899049">
  <ele>345.52</ele>
  <time>2026-09-01T19:57:58Z</time>
  <course>177.18</course>
  <speed>0.11704699910719625</speed>
  <fix>3d</fix>
</trkpt>
<trkpt lat="-27.2737645" lon="151.2899052">
  <ele>345.51</ele>
  <time>2026-09-01T19:57:58Z</time>
  <course>357.11</course>
  <speed>0.09</speed>
  <fix>3d</fix>
</trkpt>
<trkpt lat="-27.2737641" lon="151.2899049">
  <ele>345.47</ele>
  <time>2026-09-01T19:57:58Z</time>
  <course>177.2</course>
  <speed>0.1264911064067352</speed>
  <fix>3d</fix>
</trkpt>
<trkpt lat="-27.2737645" lon="151.2899052">
  <ele>345.51</ele>
  <time>2026-09-01T19:57:58Z</time>
  <course>357.11</course>
  <speed>0.09</speed>
  <fix>3d</fix>
</trkpt>
<trkpt lat="-27.273764" lon="151.2899049">
  <ele>345.43</ele>
  <time>2026-09-01T19:57:58Z</time>
  <course>177.2</course>
  <speed>0.1264911064067352</speed>
  <fix>3d</fix>
</trkpt>
<trkpt lat="-27.2737642" lon="151.2899052">
  <ele>345.4</ele>
  <time>2026-09-01T19:57:58Z</time>
  <course>357.2</course>
  <speed>0.09</speed>
  <fix>3d</fix>
</trkpt>
<trkpt lat="-27.2737639" lon="151.2899049">
  <ele>345.38</ele>
  <time>2026-09-01T19:57:58Z</time>
  <course>177.2</course>
  <speed>0.1264911064067352</speed>
  <fix>3d</fix>
</trkpt>
<trkpt lat="-27.2737642" lon="151.2899052">
  <ele>345.4</ele>
  <time>2026-09-01T19:57:58Z</time>
  <course>357.2</course>
  <speed>0.09</speed>
  <fix>3d</fix>
</trkpt>
<trkpt lat="-27.2737638" lon="151.2899049">
  <ele>345.33</ele>
  <time>2026-09-01T19:57:58Z</time>
  <course>177.2</course>
  <speed>0.1264911064067352</speed>
  <fix>3d</fix>
</trkpt>
<trkpt lat="-27.2737641" lon="151.2899052">
  <ele>345.31</ele>
  <time>2026-09-01T19:57:58Z</time>
  <course>357.18</course>
  <speed>0.09</speed>
  <fix>3d</fix>
</trkpt>
<trkpt lat="-27.2737637" lon="151.2899049">
  <ele>345.28</ele>
  <time>2026-09-01T19:57:58Z</time>
  <course>177.19</course>
  <speed>0.1264911064067352</speed>
  <fix>3d</fix>
</trkpt>
<trkpt lat="-27.2737641" lon="151.2899052">
  <ele>345.31</ele>
  <time>2026-09-01T19:57:58Z</time>
  <course>357.18</course>
  <speed>0.09</speed>
  <fix>3d</fix>
</trkpt>
<trkpt lat="-27.2737636" lon="151.2899048">
  <ele>345.23</ele>
  <time>2026-09-01T19:57:58Z</time>
  <course>177.19</course>
  <speed>0.1264911064067352</speed>
  <fix>3d</fix>
</trkpt>
<trkpt lat="-27.273764" lon="151.2899052">
  <ele>345.21</ele>
  <time>2026-09-01T19:57:58Z</time>
  <course>357.14</course>
  <speed>0.1</speed>
  <fix>3d</fix>
</trkpt>
<trkpt lat="-27.2737636" lon="151.2899048">
  <ele>345.18</ele>
  <time>2026-09-01T19:57:58Z</time>
  <course>177.19</course>
  <speed>0.1264911064067352</speed>
  <fix>3d</fix>
</trkpt>
<trkpt lat="-27.273764" lon="151.2899052">
  <ele>345.21</ele>
  <time>2026-09-01T19:57:58Z</time>
  <course>357.14</course>
  <speed>0.1</speed>
  <fix>3d</fix>
</trkpt>
<trkpt lat="-27.2737635" lon="151.2899048">
  <ele>345.12</ele>
  <time>2026-09-01T19:57:58Z</time>
  <course>177.18</course>
  <speed>0.1264911064067352</speed>
  <fix>3d</fix>
</trkpt>
<trkpt lat="-27.2737638" lon="151.2899052">
  <ele>345.11</ele>
  <time>2026-09-01T19:57:58Z</time>
  <course>357.09</course>
  <speed>0.1</speed>
  <fix>3d</fix>
</trkpt>
<trkpt lat="-27.2737634" lon="151.2899048">
  <ele>345.07</ele>
  <time>2026-09-01T19:57:58Z</time>
  <course>177.17</course>
  <speed>0.1264911064067352</speed>
  <fix>3d</fix>
</trkpt>
<trkpt lat="-27.2737638" lon="151.2899052">
  <ele>345.11</ele>
  <time>2026-09-01T19:57:58Z</time>
  <course>357.09</course>
  <speed>0.1</speed>
  <fix>3d</fix>
</trkpt>
<trkpt lat="-27.2737633" lon="151.2899048">
  <ele>345.02</ele>
  <time>2026-09-01T19:57:58Z</time>
  <course>177.15</course>
  <speed>0.11704699910719625</speed>
  <fix>3d</fix>
</trkpt>
<trkpt lat="-27.2737636" lon="151.2899052">
  <ele>345.0</ele>
  <time>2026-09-01T19:57:58Z</time>
  <course>357.01</course>
  <speed>0.09</speed>
  <fix>3d</fix>
</trkpt>
<trkpt lat="-27.2737632" lon="151.2899048">
  <ele>344.97</ele>
  <time>2026-09-01T19:57:58Z</time>
  <course>177.14</course>
  <speed>0.11704699910719625</speed>
  <fix>3d</fix>
</trkpt>
<trkpt lat="-27.2737636" lon="151.2899052">
  <ele>345.0</ele>
  <time>2026-09-01T19:57:58Z</time>
  <course>357.01</course>
  <speed>0.09</speed>
  <fix>3d</fix>
</trkpt>
<trkpt lat="-27.2737632" lon="151.2899048">
  <ele>344.92</ele>
  <time>2026-09-01T19:57:58Z</time>
  <course>177.12</course>
  <speed>0.11704699910719625</speed>
  <fix>3d</fix>
</trkpt>
<trkpt lat="-27.2737634" lon="151.2899052">
  <ele>344.9</ele>
  <time>2026-09-01T19:57:58Z</time>
  <course>356.9</course>
  <speed>0.09</speed>
  <fix>3d</fix>
</trkpt>
<trkpt lat="-27.2737631" lon="151.2899048">
  <ele>344.87</ele>
  <time>2026-09-01T19:57:58Z</time>
  <course>177.11</course>
  <speed>0.11704699910719625</speed>
  <fix>3d</fix>
</trkpt>
<trkpt lat="-27.2737634" lon="151.2899052">
  <ele>344.9</ele>
  <time>2026-09-01T19:57:58Z</time>
  <course>356.9</course>
  <speed>0.09</speed>
  <fix>3d</fix>
</trkpt>
<trkpt lat="-27.273763" lon="151.2899048">
  <ele>344.82</ele>
  <time>2026-09-01T19:57:58Z</time>
  <course>177.1</course>
  <speed>0.10770329614269007</speed>
  <fix>3d</fix>
</trkpt>
<trkpt lat="-27.2737632" lon="151.2899052">
  <ele>344.8</ele>
  <time>2026-09-01T19:57:58Z</time>
  <course>356.69</course>
  <speed>0.09</speed>
  <fix>3d</fix>
</trkpt>
<trkpt lat="-27.2737629" lon="151.2899048">
  <ele>344.77</ele>
  <time>2026-09-01T19:57:58Z</time>
  <course>177.1</course>
  <speed>0.10770329614269007</speed>
  <fix>3d</fix>
</trkpt>
<trkpt lat="-27.2737632" lon="151.2899052">
  <ele>344.8</ele>
  <time>2026-09-01T19:57:58Z</time>
  <course>356.69</course>
  <speed>0.09</speed>
  <fix>3d</fix>
</trkpt>
<trkpt lat="-27.2737628" lon="151.2899048">
  <ele>344.72</ele>
  <time>2026-09-01T19:57:58Z</time>
  <course>177.09</course>
  <speed>0.10770329614269007</speed>
  <fix>3d</fix>
</trkpt>
<trkpt lat="-27.273763" lon="151.2899052">
  <ele>344.7</ele>
  <time>2026-09-01T19:57:58Z</time>
  <course>356.54</course>
  <speed>0.08</speed>
  <fix>3d</fix>
</trkpt>
<trkpt lat="-27.2737628" lon="151.2899048">
  <ele>344.66</ele>
  <time>2026-09-01T19:57:58Z</time>
  <course>177.1</course>
  <speed>0.09848857801796104</speed>
  <fix>3d</fix>
</trkpt>
<trkpt lat="-27.273763" lon="151.2899052">
  <ele>344.7</ele>
  <time>2026-09-01T19:57:58Z</time>
  <course>356.54</course>
  <speed>0.08</speed>
  <fix>3d</fix>
</trkpt>
<trkpt lat="-27.2737627" lon="151.2899048">
  <ele>344.61</ele>
  <time>2026-09-01T19:57:58Z</time>
  <course>177.12</course>
  <speed>0.09486832980505139</speed>
  <fix>3d</fix>
</trkpt>
<trkpt lat="-27.2737629" lon="151.2899052">
  <ele>344.59</ele>
  <time>2026-09-01T19:57:58Z</time>
  <course>356.6</course>
  <speed>0.07</speed>
  <fix>3d</fix>
</trkpt>
<trkpt lat="-27.2737626" lon="151.2899048">
  <ele>344.56</ele>
  <time>2026-09-01T19:57:58Z</time>
  <course>177.15</course>
  <speed>0.09486832980505139</speed>
  <fix>3d</fix>
</trkpt>
<trkpt lat="-27.2737629" lon="151.2899052">
  <ele>344.59</ele>
  <time>2026-09-01T19:57:58Z</time>
  <course>356.6</course>
  <speed>0.07</speed>
  <fix>3d</fix>
</trkpt>
<trkpt lat="-27.2737626" lon="151.2899048">
  <ele>344.51</ele>
  <time>2026-09-01T19:57:58Z</time>
  <course>177.17</course>
  <speed>0.0854400374531753</speed>
  <fix>3d</fix>
</trkpt>
<trkpt lat="-27.2737628" lon="151.2899052">
  <ele>344.5</ele>
  <time>2026-09-01T19:57:58Z</time>
  <course>356.54</course>
  <speed>0.07</speed>
  <fix>3d</fix>
</trkpt>
<trkpt lat="-27.2737625" lon="151.2899048">
  <ele>344.46</ele>
  <time>2026-09-01T19:57:58Z</time>
  <course>177.19</course>
  <speed>0.0854400374531753</speed>
  <fix>3d</fix>
</trkpt>
<trkpt lat="-27.2737628" lon="151.2899052">
  <ele>344.5</ele>
  <time>2026-09-01T19:57:58Z</time>
  <course>356.54</course>
  <speed>0.07</speed>
  <fix>3d</fix>
</trkpt>
<trkpt lat="-27.2737625" lon="151.2899048">
  <ele>344.41</ele>
  <time>2026-09-01T19:57:58Z</time>
  <course>177.2</course>
  <speed>0.0854400374531753</speed>
  <fix>3d</fix>
</trkpt>
<trkpt lat="-27.2737627" lon="151.2899052">
  <ele>344.4</ele>
  <time>2026-09-01T19:57:58Z</time>
  <course>356.3</course>
  <speed>0.06</speed>
  <fix>3d</fix>
</trkpt>
<trkpt lat="-27.2737624" lon="151.2899048">
  <ele>344.36</ele>
  <time>2026-09-01T19:57:58Z</time>
  <course>177.19</course>
  <speed>0.07615773105863909</speed>
  <fix>3d</fix>
</trkpt>
<trkpt lat="-27.2737627" lon="151.2899052">
  <ele>344.4</ele>
  <time>2026-09-01T19:57:58Z</time>
  <course>356.3</course>
  <speed>0.06</speed>
  <fix>3d</fix>
</trkpt>
<trkpt lat="-27.2737624" lon="151.2899048">
  <ele>344.32</ele>
  <time>2026-09-01T19:57:58Z</time>
  <course>177.18</course>
  <speed>0.07615773105863909</speed>
  <fix>3d</fix>
</trkpt>
<trkpt lat="-27.2737625" lon="151.2899052">
  <ele>344.3</ele>
  <time>2026-09-01T19:57:58Z</time>
  <course>356.15</course>
  <speed>0.05</speed>
  <fix>3d</fix>
</trkpt>
<trkpt lat="-27.2737623" lon="151.2899049">
  <ele>344.27</ele>
  <time>2026-09-01T19:57:58Z</time>
  <course>177.17</course>
  <speed>0.07615773105863909</speed>
  <fix>3d</fix>
</trkpt>
<trkpt lat="-27.2737625" lon="151.2899052">
  <ele>344.3</ele>
  <time>2026-09-01T19:57:58Z</time>
  <course>356.15</course>
  <speed>0.05</speed>
  <fix>3d</fix>
</trkpt>
<trkpt lat="-27.2737623" lon="151.2899049">
  <ele>344.22</ele>
  <time>2026-09-01T19:57:58Z</time>
  <course>177.17</course>
  <speed>0.0670820393249937</speed>
  <fix>3d</fix>
</trkpt>
<trkpt lat="-27.2737624" lon="151.2899052">
  <ele>344.21</ele>
  <time>2026-09-01T19:57:58Z</time>
  <course>356.03</course>
  <speed>0.05</speed>
  <fix>3d</fix>
</trkpt>
<trkpt lat="-27.2737622" lon="151.2899049">
  <ele>344.17</ele>
  <time>2026-09-01T19:57:58Z</time>
  <course>177.17</course>
  <speed>0.0670820393249937</speed>
  <fix>3d</fix>
</trkpt>
<trkpt lat="-27.2737624" lon="151.2899052">
  <ele>344.21</ele>
  <time>2026-09-01T19:57:58Z</time>
  <course>356.03</course>
  <speed>0.05</speed>
  <fix>3d</fix>
</trkpt>
<trkpt lat="-27.2737622" lon="151.2899049">
  <ele>344.12</ele>
  <time>2026-09-01T19:57:58Z</time>
  <course>177.17</course>
  <speed>0.05830951894845301</speed>
  <fix>3d</fix>
</trkpt>
<trkpt lat="-27.2737624" lon="151.2899052">
  <ele>344.11</ele>
  <time>2026-09-01T19:57:58Z</time>
  <course>355.83</course>
  <speed>0.04</speed>
  <fix>3d</fix>
</trkpt>
<trkpt lat="-27.2737622" lon="151.2899049">
  <ele>344.07</ele>
  <time>2026-09-01T19:57:58Z</time>
  <course>177.18</course>
  <speed>0.05830951894845301</speed>
  <fix>3d</fix>
</trkpt>
<trkpt lat="-27.2737624" lon="151.2899052">
  <ele>344.11</ele>
  <time>2026-09-01T19:57:58Z</time>
  <course>355.83</course>
  <speed>0.04</speed>
  <fix>3d</fix>
</trkpt>
<trkpt lat="-27.2737621" lon="151.2899049">
  <ele>344.02</ele>
  <time>2026-09-01T19:57:58Z</time>
  <course>177.2</course>
  <speed>0.05830951894845301</speed>
  <fix>3d</fix>
</trkpt>
<trkpt lat="-27.2737623" lon="151.2899052">
  <ele>344.01</ele>
  <time>2026-09-01T19:57:58Z</time>
  <course>355.55</course>
  <speed>0.03</speed>
  <fix>3d</fix>
</trkpt>
<trkpt lat="-27.2737621" lon="151.2899049">
  <ele>343.97</ele>
  <time>2026-09-01T19:57:58Z</time>
  <course>177.21</course>
  <speed>0.05</speed>
  <fix>3d</fix>
</trkpt>
<trkpt lat="-27.2737623" lon="151.2899052">
  <ele>344.01</ele>
  <time>2026-09-01T19:57:58Z</time>
  <course>355.55</course>
  <speed>0.03</speed>
  <fix>3d</fix>
</trkpt>
<trkpt lat="-27.2737621" lon="151.2899049">
  <ele>343.92</ele>
  <time>2026-09-01T19:57:58Z</time>
  <course>177.21</course>
  <speed>0.05</speed>
  <fix>3d</fix>
</trkpt>
<trkpt lat="-27.2737623" lon="151.2899052">
  <ele>343.9</ele>
  <time>2026-09-01T19:57:58Z</time>
  <course>354.97</course>
  <speed>0.02</speed>
  <fix>3d</fix>
</trkpt>
<trkpt lat="-27.2737621" lon="151.2899049">
  <ele>343.87</ele>
  <time>2026-09-01T19:57:58Z</time>
  <course>177.22</course>
  <speed>0.05</speed>
  <fix>3d</fix>
</trkpt>
<trkpt lat="-27.2737623" lon="151.2899052">
  <ele>343.9</ele>
  <time>2026-09-01T19:57:58Z</time>
  <course>354.97</course>
  <speed>0.02</speed>
  <fix>3d</fix>
</trkpt>
<trkpt lat="-27.2737621" lon="151.2899049">
  <ele>343.82</ele>
  <time>2026-09-01T19:57:58Z</time>
  <course>177.22</course>
  <speed>0.04242640687119285</speed>
  <fix>3d</fix>
</trkpt>
<trkpt lat="-27.2737622" lon="151.2899052">
  <ele>343.81</ele>
  <time>2026-09-01T19:57:58Z</time>
  <course>353.91</course>
  <speed>0.02</speed>
  <fix>3d</fix>
</trkpt>
<trkpt lat="-27.273762" lon="151.2899049">
  <ele>343.77</ele>
  <time>2026-09-01T19:57:58Z</time>
  <course>177.22</course>
  <speed>0.03605551275463989</speed>
  <fix>3d</fix>
</trkpt>
<trkpt lat="-27.2737622" lon="151.2899052">
  <ele>343.81</ele>
  <time>2026-09-01T19:57:58Z</time>
  <course>353.91</course>
  <speed>0.02</speed>
  <fix>3d</fix>
</trkpt>
<trkpt lat="-27.273762" lon="151.2899049">
  <ele>343.72</ele>
  <time>2026-09-01T19:57:58Z</time>
  <course>177.24</course>
  <speed>0.0282842712474619</speed>
  <fix>3d</fix>
</trkpt>
<trkpt lat="-27.2737622" lon="151.2899052">
  <ele>343.71</ele>
  <time>2026-09-01T19:57:58Z</time>
  <course>352.58</course>
  <speed>0.01</speed>
  <fix>3d</fix>
</trkpt>
<trkpt lat="-27.273762" lon="151.2899049">
  <ele>343.67</ele>
  <time>2026-09-01T19:57:58Z</time>
  <course>177.26</course>
  <speed>0.0282842712474619</speed>
  <fix>3d</fix>
</trkpt>
<trkpt lat="-27.2737622" lon="151.2899052">
  <ele>343.71</ele>
  <time>2026-09-01T19:57:58Z</time>
  <course>352.58</course>
  <speed>0.01</speed>
  <fix>3d</fix>
</trkpt>
<trkpt lat="-27.273762" lon="151.2899049">
  <ele>343.62</ele>
  <time>2026-09-01T19:57:58Z</time>
  <course>177.27</course>
  <speed>0.0282842712474619</speed>
  <fix>3d</fix>
</trkpt>
<trkpt lat="-27.2737622" lon="151.2899052">
  <ele>343.61</ele>
  <time>2026-09-01T19:57:58Z</time>
  <course>348.49</course>
  <speed>0.0</speed>
  <fix>3d</fix>
</trkpt>
<trkpt lat="-27.273762" lon="151.2899049">
  <ele>343.57</ele>
  <time>2026-09-01T19:57:58Z</time>
  <course>177.28</course>
  <speed>0.0282842712474619</speed>
  <fix>3d</fix>
</trkpt>
<trkpt lat="-27.2737622" lon="151.2899052">
  <ele>343.61</ele>
  <time>2026-09-01T19:57:58Z</time>
  <course>348.49</course>
  <speed>0.0</speed>
  <fix>3d</fix>
</trkpt>
<trkpt lat="-27.273762" lon="151.2899049">
  <ele>343.51</ele>
  <time>2026-09-01T19:57:58Z</time>
  <course>177.31</course>
  <speed>0.022360679774997897</speed>
  <fix>3d</fix>
</trkpt>
<trkpt lat="-27.2737622" lon="151.2899052">
  <ele>343.51</ele>
  <time>2026-09-01T19:57:58Z</time>
  <course>333.98</course>
  <speed>0.0</speed>
  <fix>3d</fix>
</trkpt>
<trkpt lat="-27.273762" lon="151.2899049">
  <ele>343.46</ele>
  <time>2026-09-01T19:57:58Z</time>
  <course>177.34</course>
  <speed>0.022360679774997897</speed>
  <fix>3d</fix>
</trkpt>
<trkpt lat="-27.2737622" lon="151.2899052">
  <ele>343.51</ele>
  <time>2026-09-01T19:57:58Z</time>
  <course>333.98</course>
  <speed>0.0</speed>
  <fix>3d</fix>
</trkpt>
<trkpt lat="-27.273762" lon="151.2899049">
  <ele>343.41</ele>
  <time>2026-09-01T19:57:58Z</time>
  <course>177.38</course>
  <speed>0.022360679774997897</speed>
  <fix>3d</fix>
</trkpt>
<trkpt lat="-27.2737622" lon="151.2899052">
  <ele>343.4</ele>
  <time>2026-09-01T19:57:58Z</time>
  <course>154.59</course>
  <speed>0.0</speed>
  <fix>3d</fix>
</trkpt>
<trkpt lat="-27.273762" lon="151.2899049">
  <ele>343.36</ele>
  <time>2026-09-01T19:57:58Z</time>
  <course>177.41</course>
  <speed>0.022360679774997897</speed>
  <fix>3d</fix>
</trkpt>
<trkpt lat="-27.2737622" lon="151.2899052">
  <ele>343.4</ele>
  <time>2026-09-01T19:57:58Z</time>
  <course>154.59</course>
  <speed>0.0</speed>
  <fix>3d</fix>
</trkpt>
<trkpt lat="-27.273762" lon="151.2899049">
  <ele>343.31</ele>
  <time>2026-09-01T19:57:58Z</time>
  <course>177.43</course>
  <speed>0.02</speed>
  <fix>3d</fix>
</trkpt>
<trkpt lat="-27.2737622" lon="151.2899052">
  <ele>343.31</ele>
  <time>2026-09-01T19:57:58Z</time>
  <course>152.35</course>
  <speed>0.0</speed>
  <fix>3d</fix>
</trkpt>
<trkpt lat="-27.273762" lon="151.2899049">
  <ele>343.26</ele>
  <time>2026-09-01T19:57:58Z</time>
  <course>177.44</course>
  <speed>0.01</speed>
  <fix>3d</fix>
</trkpt>
<trkpt lat="-27.2737622" lon="151.2899052">
  <ele>343.31</ele>
  <time>2026-09-01T19:57:58Z</time>
  <course>152.35</course>
  <speed>0.0</speed>
  <fix>3d</fix>
</trkpt>
<trkpt lat="-27.273762" lon="151.2899049">
  <ele>343.22</ele>
  <time>2026-09-01T19:57:58Z</time>
  <course>177.45</course>
  <speed>0.01</speed>
  <fix>3d</fix>
</trkpt>
<trkpt lat="-27.2737622" lon="151.2899052">
  <ele>343.21</ele>
  <time>2026-09-01T19:57:58Z</time>
  <course>153.78</course>
  <speed>0.01</speed>
  <fix>3d</fix>
</trkpt>
<trkpt lat="-27.273762" lon="151.2899049">
  <ele>343.17</ele>
  <time>2026-09-01T19:57:58Z</time>
  <course>177.45</course>
  <speed>0.01</speed>
  <fix>3d</fix>
</trkpt>
<trkpt lat="-27.2737622" lon="151.2899052">
  <ele>343.21</ele>
  <time>2026-09-01T19:57:58Z</time>
  <course>153.78</course>
  <speed>0.01</speed>
  <fix>3d</fix>
</trkpt>
<trkpt lat="-27.273762" lon="151.2899049">
  <ele>343.12</ele>
  <time>2026-09-01T19:57:58Z</time>
  <course>177.45</course>
  <speed>0.022360679774997897</speed>
  <fix>3d</fix>
</trkpt>
<trkpt lat="-27.2737622" lon="151.2899052">
  <ele>343.11</ele>
  <time>2026-09-01T19:57:58Z</time>
  <course>155.47</course>
  <speed>0.01</speed>
  <fix>3d</fix>
</trkpt>
<trkpt lat="-27.273762" lon="151.2899049">
  <ele>343.12</ele>
  <time>2026-09-01T19:57:58Z</time>
  <course>177.45</course>
  <speed>0.0282842712474619</speed>
  <fix>3d</fix>
</trkpt>
<trkpt lat="-27.2737622" lon="151.2899052">
  <ele>343.11</ele>
  <time>2026-09-01T19:57:58Z</time>
  <course>155.47</course>
  <speed>0.01</speed>
  <fix>3d</fix>
</trkpt>
<trkpt lat="-27.273762" lon="151.2899049">
  <ele>343.13</ele>
  <time>2026-09-01T19:57:58Z</time>
  <course>177.45</course>
  <speed>0.03605551275463989</speed>
  <fix>3d</fix>
</trkpt>
<trkpt lat="-27.2737622" lon="151.2899052">
  <ele>343.06</ele>
  <time>2026-09-01T19:57:58Z</time>
  <course>156.44</course>
  <speed>0.0</speed>
  <fix>3d</fix>
</trkpt>
<trkpt lat="-27.273762" lon="151.2899049">
  <ele>343.14</ele>
  <time>2026-09-01T19:57:58Z</time>
  <course>177.46</course>
  <speed>0.0282842712474619</speed>
  <fix>3d</fix>
</trkpt>
<trkpt lat="-27.2737622" lon="151.2899052">
  <ele>343.06</ele>
  <time>2026-09-01T19:57:58Z</time>
  <course>156.44</course>
  <speed>0.0</speed>
  <fix>3d</fix>
</trkpt>
<trkpt lat="-27.273762" lon="151.2899049">
  <ele>343.14</ele>
  <time>2026-09-01T19:57:58Z</time>
  <course>177.46</course>
  <speed>0.0282842712474619</speed>
  <fix>3d</fix>
</trkpt>
<trkpt lat="-27.2737622" lon="151.2899052">
  <ele>343.07</ele>
  <time>2026-09-01T19:57:58Z</time>
  <course>336.44</course>
  <speed>0.0</speed>
  <fix>3d</fix>
</trkpt>
<trkpt lat="-27.273762" lon="151.2899049">
  <ele>343.14</ele>
  <time>2026-09-01T19:57:58Z</time>
  <course>177.46</course>
  <speed>0.0282842712474619</speed>
  <fix>3d</fix>
</trkpt>
<trkpt lat="-27.2737622" lon="151.2899052">
  <ele>343.07</ele>
  <time>2026-09-01T19:57:58Z</time>
  <course>336.44</course>
  <speed>0.0</speed>
  <fix>3d</fix>
</trkpt>
<trkpt lat="-27.273762" lon="151.2899049">
  <ele>343.13</ele>
  <time>2026-09-01T19:57:58Z</time>
  <course>177.47</course>
  <speed>0.0282842712474619</speed>
  <fix>3d</fix>
</trkpt>
<trkpt lat="-27.2737622" lon="151.2899052">
  <ele>343.08</ele>
  <time>2026-09-01T19:57:58Z</time>
  <course>336.43</course>
  <speed>0.0</speed>
  <fix>3d</fix>
</trkpt>
<trkpt lat="-27.273762" lon="151.2899049">
  <ele>343.13</ele>
  <time>2026-09-01T19:57:58Z</time>
  <course>177.47</course>
  <speed>0.0282842712474619</speed>
  <fix>3d</fix>
</trkpt>
<trkpt lat="-27.2737622" lon="151.2899052">
  <ele>343.08</ele>
  <time>2026-09-01T19:57:58Z</time>
  <course>336.43</course>
  <speed>0.0</speed>
  <fix>3d</fix>
</trkpt>
<trkpt lat="-27.273762" lon="151.2899049">
  <ele>343.13</ele>
  <time>2026-09-01T19:57:58Z</time>
  <course>177.47</course>
  <speed>0.0282842712474619</speed>
  <fix>3d</fix>
</trkpt>
<trkpt lat="-27.2737622" lon="151.2899052">
  <ele>343.08</ele>
  <time>2026-09-01T19:57:58Z</time>
  <course>156.44</course>
  <speed>0.0</speed>
  <fix>3d</fix>
</trkpt>
<trkpt lat="-27.273762" lon="151.2899049">
  <ele>343.13</ele>
  <time>2026-09-01T19:57:58Z</time>
  <course>177.47</course>
  <speed>0.0282842712474619</speed>
  <fix>3d</fix>
</trkpt>
<trkpt lat="-27.2737622" lon="151.2899052">
  <ele>343.08</ele>
  <time>2026-09-01T19:57:58Z</time>
  <course>156.44</course>
  <speed>0.0</speed>
  <fix>3d</fix>
</trkpt>
<trkpt lat="-27.273762" lon="151.2899049">
  <ele>343.13</ele>
  <time>2026-09-01T19:57:58Z</time>
  <course>177.48</course>
  <speed>0.0282842712474619</speed>
  <fix>3d</fix>
</trkpt>
<trkpt lat="-27.2737622" lon="151.2899052">
  <ele>343.08</ele>
  <time>2026-09-01T19:57:58Z</time>
  <course>336.44</course>
  <speed>0.0</speed>
  <fix>3d</fix>
</trkpt>
<trkpt lat="-27.273762" lon="151.2899049">
  <ele>343.13</ele>
  <time>2026-09-01T19:57:58Z</time>
  <course>177.48</course>
  <speed>0.0282842712474619</speed>
  <fix>3d</fix>
</trkpt>
<trkpt lat="-27.2737622" lon="151.2899052">
  <ele>343.08</ele>
  <time>2026-09-01T19:57:58Z</time>
  <course>336.44</course>
  <speed>0.0</speed>
  <fix>3d</fix>
</trkpt>
<trkpt lat="-27.273762" lon="151.2899049">
  <ele>343.13</ele>
  <time>2026-09-01T19:57:58Z</time>
  <course>177.48</course>
  <speed>0.0282842712474619</speed>
  <fix>3d</fix>
</trkpt>
<trkpt lat="-27.2737622" lon="151.2899052">
  <ele>343.08</ele>
  <time>2026-09-01T19:57:58Z</time>
  <course>336.43</course>
  <speed>0.0</speed>
  <fix>3d</fix>
</trkpt>
<trkpt lat="-27.273762" lon="151.2899049">
  <ele>343.13</ele>
  <time>2026-09-01T19:57:58Z</time>
  <course>177.49</course>
  <speed>0.0282842712474619</speed>
  <fix>3d</fix>
</trkpt>
<trkpt lat="-27.2737622" lon="151.2899052">
  <ele>343.08</ele>
  <time>2026-09-01T19:57:58Z</time>
  <course>336.43</course>
  <speed>0.0</speed>
  <fix>3d</fix>
</trkpt>
<trkpt lat="-27.273762" lon="151.2899049">
  <ele>343.13</ele>
  <time>2026-09-01T19:57:58Z</time>
  <course>177.49</course>
  <speed>0.0282842712474619</speed>
  <fix>3d</fix>
</trkpt>
<trkpt lat="-27.2737622" lon="151.2899052">
  <ele>343.08</ele>
  <time>2026-09-01T19:57:58Z</time>
  <course>156.46</course>
  <speed>0.0</speed>
  <fix>3d</fix>
</trkpt>
<trkpt lat="-27.273762" lon="151.2899049">
  <ele>343.13</ele>
  <time>2026-09-01T19:57:58Z</time>
  <course>177.49</course>
  <speed>0.0282842712474619</speed>
  <fix>3d</fix>
</trkpt>
<trkpt lat="-27.2737622" lon="151.2899052">
  <ele>343.08</ele>
  <time>2026-09-01T19:57:58Z</time>
  <course>156.46</course>
  <speed>0.0</speed>
  <fix>3d</fix>
</trkpt>
<trkpt lat="-27.273762" lon="151.2899049">
  <ele>343.13</ele>
  <time>2026-09-01T19:57:58Z</time>
  <course>177.5</course>
  <speed>0.0282842712474619</speed>
  <fix>3d</fix>
</trkpt>
<trkpt lat="-27.2737622" lon="151.2899052">
  <ele>343.08</ele>
  <time>2026-09-01T19:57:58Z</time>
  <course>156.12</course>
  <speed>0.0</speed>
  <fix>3d</fix>
</trkpt>
<trkpt lat="-27.273762" lon="151.2899049">
  <ele>343.13</ele>
  <time>2026-09-01T19:57:58Z</time>
  <course>177.5</course>
  <speed>0.0282842712474619</speed>
  <fix>3d</fix>
</trkpt>
<trkpt lat="-27.2737622" lon="151.2899052">
  <ele>343.08</ele>
  <time>2026-09-01T19:57:58Z</time>
  <course>156.12</course>
  <speed>0.0</speed>
  <fix>3d</fix>
</trkpt>
<trkpt lat="-27.273762" lon="151.2899049">
  <ele>343.13</ele>
  <time>2026-09-01T19:57:58Z</time>
  <course>177.5</course>
  <speed>0.0282842712474619</speed>
  <fix>3d</fix>
</trkpt>
<trkpt lat="-27.2737622" lon="151.2899052">
  <ele>343.08</ele>
  <time>2026-09-01T19:57:58Z</time>
  <course>337.47</course>
  <speed>0.0</speed>
  <fix>3d</fix>
</trkpt>
<trkpt lat="-27.273762" lon="151.2899049">
  <ele>343.13</ele>
  <time>2026-09-01T19:57:58Z</time>
  <course>177.51</course>
  <speed>0.0282842712474619</speed>
  <fix>3d</fix>
</trkpt>
<trkpt lat="-27.2737622" lon="151.2899052">
  <ele>343.08</ele>
  <time>2026-09-01T19:57:58Z</time>
  <course>337.47</course>
  <speed>0.0</speed>
  <fix>3d</fix>
</trkpt>
<trkpt lat="-27.273762" lon="151.2899049">
  <ele>343.13</ele>
  <time>2026-09-01T19:57:58Z</time>
  <course>177.51</course>
  <speed>0.0282842712474619</speed>
  <fix>3d</fix>
</trkpt>
<trkpt lat="-27.2737622" lon="151.2899052">
  <ele>343.08</ele>
  <time>2026-09-01T19:57:58Z</time>
  <course>338.76</course>
  <speed>0.0</speed>
  <fix>3d</fix>
</trkpt>
<trkpt lat="-27.273762" lon="151.2899049">
  <ele>343.13</ele>
  <time>2026-09-01T19:57:58Z</time>
  <course>177.51</course>
  <speed>0.0282842712474619</speed>
  <fix>3d</fix>
</trkpt>
<trkpt lat="-27.2737622" lon="151.2899052">
  <ele>343.08</ele>
  <time>2026-09-01T19:57:58Z</time>
  <course>338.76</course>
  <speed>0.0</speed>
  <fix>3d</fix>
</trkpt>
<trkpt lat="-27.273762" lon="151.2899049">
  <ele>343.13</ele>
  <time>2026-09-01T19:57:58Z</time>
  <course>177.52</course>
  <speed>0.0282842712474619</speed>
  <fix>3d</fix>
</trkpt>
<trkpt lat="-27.2737622" lon="151.2899052">
  <ele>343.08</ele>
  <time>2026-09-01T19:57:58Z</time>
  <course>156.39</course>
  <speed>0.0</speed>
  <fix>3d</fix>
</trkpt>
<trkpt lat="-27.273762" lon="151.2899049">
  <ele>343.14</ele>
  <time>2026-09-01T19:57:58Z</time>
  <course>177.52</course>
  <speed>0.0282842712474619</speed>
  <fix>3d</fix>
</trkpt>
<trkpt lat="-27.2737622" lon="151.2899052">
  <ele>343.08</ele>
  <time>2026-09-01T19:57:58Z</time>
  <course>156.39</course>
  <speed>0.0</speed>
  <fix>3d</fix>
</trkpt>
<trkpt lat="-27.273762" lon="151.2899049">
  <ele>343.14</ele>
  <time>2026-09-01T19:57:58Z</time>
  <course>177.52</course>
  <speed>0.0282842712474619</speed>
  <fix>3d</fix>
</trkpt>
<trkpt lat="-27.2737622" lon="151.2899052">
  <ele>343.08</ele>
  <time>2026-09-01T19:57:58Z</time>
  <course>295.29</course>
  <speed>0.0</speed>
  <fix>3d</fix>
</trkpt>
<trkpt lat="-27.273762" lon="151.2899049">
  <ele>343.14</ele>
  <time>2026-09-01T19:57:58Z</time>
  <course>177.53</course>
  <speed>0.0282842712474619</speed>
  <fix>3d</fix>
</trkpt>
<trkpt lat="-27.2737622" lon="151.2899052">
  <ele>343.08</ele>
  <time>2026-09-01T19:57:58Z</time>
  <course>295.29</course>
  <speed>0.0</speed>
  <fix>3d</fix>
</trkpt>
<trkpt lat="-27.273762" lon="151.2899049">
  <ele>343.14</ele>
  <time>2026-09-01T19:57:58Z</time>
  <course>177.53</course>
  <speed>0.0282842712474619</speed>
  <fix>3d</fix>
</trkpt>
<trkpt lat="-27.2737622" lon="151.2899052">
  <ele>343.08</ele>
  <time>2026-09-01T19:57:58Z</time>
  <course>305.58</course>
  <speed>0.0</speed>
  <fix>3d</fix>
</trkpt>
<trkpt lat="-27.273762" lon="151.2899049">
  <ele>343.13</ele>
  <time>2026-09-01T19:57:58Z</time>
  <course>177.54</course>
  <speed>0.0282842712474619</speed>
  <fix>3d</fix>
</trkpt>
<trkpt lat="-27.2737622" lon="151.2899052">
  <ele>343.08</ele>
  <time>2026-09-01T19:57:58Z</time>
  <course>305.58</course>
  <speed>0.0</speed>
  <fix>3d</fix>
</trkpt>
<trkpt lat="-27.273762" lon="151.2899049">
  <ele>343.13</ele>
  <time>2026-09-01T19:57:58Z</time>
  <course>177.54</course>
  <speed>0.0282842712474619</speed>
  <fix>3d</fix>
</trkpt>
<trkpt lat="-27.2737622" lon="151.2899052">
  <ele>343.08</ele>
  <time>2026-09-01T19:57:58Z</time>
  <course>319.18</course>
  <speed>0.0</speed>
  <fix>3d</fix>
</trkpt>
<trkpt lat="-27.273762" lon="151.2899049">
  <ele>343.13</ele>
  <time>2026-09-01T19:57:59Z</time>
  <course>177.55</course>
  <speed>0.0282842712474619</speed>
  <fix>3d</fix>
</trkpt>
<trkpt lat="-27.2737622" lon="151.2899052">
  <ele>343.08</ele>
  <time>2026-09-01T19:57:59Z</time>
  <course>319.18</course>
  <speed>0.0</speed>
  <fix>3d</fix>
</trkpt>
<trkpt lat="-27.273762" lon="151.2899049">
  <ele>343.13</ele>
  <time>2026-09-01T19:57:59Z</time>
  <course>177.55</course>
  <speed>0.0282842712474619</speed>
  <fix>3d</fix>
</trkpt>
<trkpt lat="-27.2737622" lon="151.2899052">
  <ele>343.08</ele>
  <time>2026-09-01T19:57:59Z</time>
  <course>319.75</course>
  <speed>0.0</speed>
  <fix>3d</fix>
</trkpt>
<trkpt lat="-27.273762" lon="151.2899049">
  <ele>343.13</ele>
  <time>2026-09-01T19:57:59Z</time>
  <course>177.55</course>
  <speed>0.0282842712474619</speed>
  <fix>3d</fix>
</trkpt>
<trkpt lat="-27.2737622" lon="151.2899052">
  <ele>343.08</ele>
  <time>2026-09-01T19:57:59Z</time>
  <course>319.75</course>
  <speed>0.0</speed>
  <fix>3d</fix>
</trkpt>
<trkpt lat="-27.273762" lon="151.2899049">
  <ele>343.13</ele>
  <time>2026-09-01T19:57:59Z</time>
  <course>177.56</course>
  <speed>0.0282842712474619</speed>
  <fix>3d</fix>
</trkpt>
<trkpt lat="-27.2737622" lon="151.2899052">
  <ele>343.08</ele>
  <time>2026-09-01T19:57:59Z</time>
  <course>311.87</course>
  <speed>0.0</speed>
  <fix>3d</fix>
</trkpt>
<trkpt lat="-27.273762" lon="151.2899049">
  <ele>343.13</ele>
  <time>2026-09-01T19:57:59Z</time>
  <course>177.56</course>
  <speed>0.0282842712474619</speed>
  <fix>3d</fix>
</trkpt>
<trkpt lat="-27.2737622" lon="151.2899052">
  <ele>343.08</ele>
  <time>2026-09-01T19:57:59Z</time>
  <course>311.87</course>
  <speed>0.0</speed>
  <fix>3d</fix>
</trkpt>
<trkpt lat="-27.273762" lon="151.2899049">
  <ele>343.13</ele>
  <time>2026-09-01T19:57:59Z</time>
  <course>177.57</course>
  <speed>0.0282842712474619</speed>
  <fix>3d</fix>
</trkpt>
<trkpt lat="-27.2737622" lon="151.2899052">
  <ele>343.08</ele>
  <time>2026-09-01T19:57:59Z</time>
  <course>147.13</course>
  <speed>0.0</speed>
  <fix>3d</fix>
</trkpt>
<trkpt lat="-27.273762" lon="151.2899049">
  <ele>343.13</ele>
  <time>2026-09-01T19:57:59Z</time>
  <course>177.57</course>
  <speed>0.0282842712474619</speed>
  <fix>3d</fix>
</trkpt>
<trkpt lat="-27.2737622" lon="151.2899052">
  <ele>343.08</ele>
  <time>2026-09-01T19:57:59Z</time>
  <course>147.13</course>
  <speed>0.0</speed>
  <fix>3d</fix>
</trkpt>
<trkpt lat="-27.273762" lon="151.2899049">
  <ele>343.13</ele>
  <time>2026-09-01T19:57:59Z</time>
  <course>177.57</course>
  <speed>0.0282842712474619</speed>
  <fix>3d</fix>
</trkpt>
<trkpt lat="-27.2737622" lon="151.2899052">
  <ele>343.08</ele>
  <time>2026-09-01T19:57:59Z</time>
  <course>144.39</course>
  <speed>0.0</speed>
  <fix>3d</fix>
</trkpt>
<trkpt lat="-27.273762" lon="151.2899049">
  <ele>343.14</ele>
  <time>2026-09-01T19:57:59Z</time>
  <course>177.58</course>
  <speed>0.0282842712474619</speed>
  <fix>3d</fix>
</trkpt>
<trkpt lat="-27.2737622" lon="151.2899052">
  <ele>343.08</ele>
  <time>2026-09-01T19:57:59Z</time>
  <course>144.39</course>
  <speed>0.0</speed>
  <fix>3d</fix>
</trkpt>
<trkpt lat="-27.273762" lon="151.2899049">
  <ele>343.13</ele>
  <time>2026-09-01T19:57:59Z</time>
  <course>177.58</course>
  <speed>0.0282842712474619</speed>
  <fix>3d</fix>
</trkpt>
<trkpt lat="-27.2737622" lon="151.2899052">
  <ele>343.08</ele>
  <time>2026-09-01T19:57:59Z</time>
  <course>143.67</course>
  <speed>0.0</speed>
  <fix>3d</fix>
</trkpt>
<trkpt lat="-27.273762" lon="151.2899049">
  <ele>343.13</ele>
  <time>2026-09-01T19:57:59Z</time>
  <course>177.59</course>
  <speed>0.0282842712474619</speed>
  <fix>3d</fix>
</trkpt>
<trkpt lat="-27.2737622" lon="151.2899052">
  <ele>343.08</ele>
  <time>2026-09-01T19:57:59Z</time>
  <course>143.67</course>
  <speed>0.0</speed>
  <fix>3d</fix>
</trkpt>
<trkpt lat="-27.273762" lon="151.2899049">
  <ele>343.13</ele>
  <time>2026-09-01T19:57:59Z</time>
  <course>177.59</course>
  <speed>0.0282842712474619</speed>
  <fix>3d</fix>
</trkpt>
<trkpt lat="-27.2737622" lon="151.2899052">
  <ele>343.08</ele>
  <time>2026-09-01T19:57:59Z</time>
  <course>324.2</course>
  <speed>0.0</speed>
  <fix>3d</fix>
</trkpt>
<trkpt lat="-27.273762" lon="151.2899049">
  <ele>343.13</ele>
  <time>2026-09-01T19:57:59Z</time>
  <course>177.6</course>
  <speed>0.0282842712474619</speed>
  <fix>3d</fix>
</trkpt>
<trkpt lat="-27.2737622" lon="151.2899052">
  <ele>343.08</ele>
  <time>2026-09-01T19:57:59Z</time>
  <course>324.2</course>
  <speed>0.0</speed>
  <fix>3d</fix>
</trkpt>
<trkpt lat="-27.273762" lon="151.2899049">
  <ele>343.13</ele>
  <time>2026-09-01T19:57:59Z</time>
  <course>177.6</course>
  <speed>0.0282842712474619</speed>
  <fix>3d</fix>
</trkpt>
<trkpt lat="-27.2737622" lon="151.2899052">
  <ele>343.08</ele>
  <time>2026-09-01T19:57:59Z</time>
  <course>323.29</course>
  <speed>0.0</speed>
  <fix>3d</fix>
</trkpt>
<trkpt lat="-27.273762" lon="151.2899049">
  <ele>343.13</ele>
  <time>2026-09-01T19:57:59Z</time>
  <course>177.61</course>
  <speed>0.0282842712474619</speed>
  <fix>3d</fix>
</trkpt>
<trkpt lat="-27.2737622" lon="151.2899052">
  <ele>343.08</ele>
  <time>2026-09-01T19:57:59Z</time>
  <course>323.29</course>
  <speed>0.0</speed>
  <fix>3d</fix>
</trkpt>
<trkpt lat="-27.273762" lon="151.2899049">
  <ele>343.13</ele>
  <time>2026-09-01T19:57:59Z</time>
  <course>177.61</course>
  <speed>0.0282842712474619</speed>
  <fix>3d</fix>
</trkpt>
<trkpt lat="-27.2737622" lon="151.2899052">
  <ele>343.08</ele>
  <time>2026-09-01T19:57:59Z</time>
  <course>144.09</course>
  <speed>0.0</speed>
  <fix>3d</fix>
</trkpt>
<trkpt lat="-27.273762" lon="151.2899049">
  <ele>343.12</ele>
  <time>2026-09-01T19:57:59Z</time>
  <course>177.62</course>
  <speed>0.0282842712474619</speed>
  <fix>3d</fix>
</trkpt>
<trkpt lat="-27.2737622" lon="151.2899052">
  <ele>343.08</ele>
  <time>2026-09-01T19:57:59Z</time>
  <course>144.09</course>
  <speed>0.0</speed>
  <fix>3d</fix>
</trkpt>
<trkpt lat="-27.273762" lon="151.2899049">
  <ele>343.12</ele>
  <time>2026-09-01T19:57:59Z</time>
  <course>177.62</course>
  <speed>0.0282842712474619</speed>
  <fix>3d</fix>
</trkpt>
<trkpt lat="-27.2737622" lon="151.2899052">
  <ele>343.08</ele>
  <time>2026-09-01T19:57:59Z</time>
  <course>139.98</course>
  <speed>0.0</speed>
  <fix>3d</fix>
</trkpt>
<trkpt lat="-27.273762" lon="151.2899049">
  <ele>343.12</ele>
  <time>2026-09-01T19:57:59Z</time>
  <course>177.63</course>
  <speed>0.0282842712474619</speed>
  <fix>3d</fix>
</trkpt>
<trkpt lat="-27.2737622" lon="151.2899052">
  <ele>343.08</ele>
  <time>2026-09-01T19:57:59Z</time>
  <course>139.98</course>
  <speed>0.0</speed>
  <fix>3d</fix>
</trkpt>
<trkpt lat="-27.273762" lon="151.2899049">
  <ele>343.12</ele>
  <time>2026-09-01T19:57:59Z</time>
  <course>177.63</course>
  <speed>0.0282842712474619</speed>
  <fix>3d</fix>
</trkpt>
<trkpt lat="-27.2737622" lon="151.2899052">
  <ele>343.08</ele>
  <time>2026-09-01T19:57:59Z</time>
  <course>323.98</course>
  <speed>0.0</speed>
  <fix>3d</fix>
</trkpt>
<trkpt lat="-27.273762" lon="151.2899049">
  <ele>343.12</ele>
  <time>2026-09-01T19:57:59Z</time>
  <course>177.63</course>
  <speed>0.0282842712474619</speed>
  <fix>3d</fix>
</trkpt>
<trkpt lat="-27.2737622" lon="151.2899052">
  <ele>343.08</ele>
  <time>2026-09-01T19:57:59Z</time>
  <course>323.98</course>
  <speed>0.0</speed>
  <fix>3d</fix>
</trkpt>
<trkpt lat="-27.273762" lon="151.2899049">
  <ele>343.12</ele>
  <time>2026-09-01T19:57:59Z</time>
  <course>177.64</course>
  <speed>0.0282842712474619</speed>
  <fix>3d</fix>
</trkpt>
<trkpt lat="-27.2737622" lon="151.2899052">
  <ele>343.08</ele>
  <time>2026-09-01T19:57:59Z</time>
  <course>145.21</course>
  <speed>0.0</speed>
  <fix>3d</fix>
</trkpt>
<trkpt lat="-27.273762" lon="151.2899049">
  <ele>343.13</ele>
  <time>2026-09-01T19:57:59Z</time>
  <course>177.64</course>
  <speed>0.0282842712474619</speed>
  <fix>3d</fix>
</trkpt>
<trkpt lat="-27.2737622" lon="151.2899052">
  <ele>343.08</ele>
  <time>2026-09-01T19:57:59Z</time>
  <course>145.21</course>
  <speed>0.0</speed>
  <fix>3d</fix>
</trkpt>
<trkpt lat="-27.273762" lon="151.2899049">
  <ele>343.13</ele>
  <time>2026-09-01T19:57:59Z</time>
  <course>177.65</course>
  <speed>0.0282842712474619</speed>
  <fix>3d</fix>
</trkpt>
<trkpt lat="-27.2737622" lon="151.2899052">
  <ele>343.08</ele>
  <time>2026-09-01T19:57:59Z</time>
  <course>143.87</course>
  <speed>0.0</speed>
  <fix>3d</fix>
</trkpt>
<trkpt lat="-27.273762" lon="151.2899049">
  <ele>343.13</ele>
  <time>2026-09-01T19:57:59Z</time>
  <course>177.65</course>
  <speed>0.0282842712474619</speed>
  <fix>3d</fix>
</trkpt>
<trkpt lat="-27.2737622" lon="151.2899052">
  <ele>343.08</ele>
  <time>2026-09-01T19:57:59Z</time>
  <course>143.87</course>
  <speed>0.0</speed>
  <fix>3d</fix>
</trkpt>
<trkpt lat="-27.273762" lon="151.2899049">
  <ele>343.13</ele>
  <time>2026-09-01T19:57:59Z</time>
  <course>177.66</course>
  <speed>0.0282842712474619</speed>
  <fix>3d</fix>
</trkpt>
<trkpt lat="-27.2737622" lon="151.2899052">
  <ele>343.08</ele>
  <time>2026-09-01T19:57:59Z</time>
  <course>324.47</course>
  <speed>0.0</speed>
  <fix>3d</fix>
</trkpt>
<trkpt lat="-27.273762" lon="151.2899049">
  <ele>343.13</ele>
  <time>2026-09-01T19:57:59Z</time>
  <course>177.66</course>
  <speed>0.0282842712474619</speed>
  <fix>3d</fix>
</trkpt>
<trkpt lat="-27.2737622" lon="151.2899052">
  <ele>343.08</ele>
  <time>2026-09-01T19:57:59Z</time>
  <course>324.47</course>
  <speed>0.0</speed>
  <fix>3d</fix>
</trkpt>
<trkpt lat="-27.273762" lon="151.2899049">
  <ele>343.13</ele>
  <time>2026-09-01T19:57:59Z</time>
  <course>177.67</course>
  <speed>0.0282842712474619</speed>
  <fix>3d</fix>
</trkpt>
<trkpt lat="-27.2737622" lon="151.2899052">
  <ele>343.08</ele>
  <time>2026-09-01T19:57:59Z</time>
  <course>323.73</course>
  <speed>0.0</speed>
  <fix>3d</fix>
</trkpt>
<trkpt lat="-27.273762" lon="151.2899049">
  <ele>343.13</ele>
  <time>2026-09-01T19:57:59Z</time>
  <course>177.67</course>
  <speed>0.0282842712474619</speed>
  <fix>3d</fix>
</trkpt>
<trkpt lat="-27.2737622" lon="151.2899052">
  <ele>343.08</ele>
  <time>2026-09-01T19:57:59Z</time>
  <course>323.73</course>
  <speed>0.0</speed>
  <fix>3d</fix>
</trkpt>
<trkpt lat="-27.273762" lon="151.2899049">
  <ele>343.13</ele>
  <time>2026-09-01T19:57:59Z</time>
  <course>177.68</course>
  <speed>0.0282842712474619</speed>
  <fix>3d</fix>
</trkpt>
<trkpt lat="-27.2737622" lon="151.2899052">
  <ele>343.08</ele>
  <time>2026-09-01T19:57:59Z</time>
  <course>144.25</course>
  <speed>0.0</speed>
  <fix>3d</fix>
</trkpt>
<trkpt lat="-27.273762" lon="151.2899049">
  <ele>343.13</ele>
  <time>2026-09-01T19:57:59Z</time>
  <course>177.68</course>
  <speed>0.0282842712474619</speed>
  <fix>3d</fix>
</trkpt>
<trkpt lat="-27.2737622" lon="151.2899052">
  <ele>343.08</ele>
  <time>2026-09-01T19:57:59Z</time>
  <course>144.25</course>
  <speed>0.0</speed>
  <fix>3d</fix>
</trkpt>
<trkpt lat="-27.273762" lon="151.2899049">
  <ele>343.13</ele>
  <time>2026-09-01T19:57:59Z</time>
  <course>177.68</course>
  <speed>0.0282842712474619</speed>
  <fix>3d</fix>
</trkpt>
<trkpt lat="-27.2737622" lon="151.2899052">
  <ele>343.08</ele>
  <time>2026-09-01T19:57:59Z</time>
  <course>143.45</course>
  <speed>0.0</speed>
  <fix>3d</fix>
</trkpt>
<trkpt lat="-27.273762" lon="151.2899049">
  <ele>343.13</ele>
  <time>2026-09-01T19:57:59Z</time>
  <course>177.69</course>
  <speed>0.0282842712474619</speed>
  <fix>3d</fix>
</trkpt>
<trkpt lat="-27.2737622" lon="151.2899052">
  <ele>343.08</ele>
  <time>2026-09-01T19:57:59Z</time>
  <course>143.45</course>
  <speed>0.0</speed>
  <fix>3d</fix>
</trkpt>
<trkpt lat="-27.273762" lon="151.2899049">
  <ele>343.12</ele>
  <time>2026-09-01T19:57:59Z</time>
  <course>177.68</course>
  <speed>0.0282842712474619</speed>
  <fix>3d</fix>
</trkpt>
<trkpt lat="-27.2737622" lon="151.2899052">
  <ele>343.08</ele>
  <time>2026-09-01T19:57:59Z</time>
  <course>324.12</course>
  <speed>0.0</speed>
  <fix>3d</fix>
</trkpt>
<trkpt lat="-27.273762" lon="151.2899049">
  <ele>343.12</ele>
  <time>2026-09-01T19:57:59Z</time>
  <course>177.62</course>
  <speed>0.0282842712474619</speed>
  <fix>3d</fix>
</trkpt>
<trkpt lat="-27.2737622" lon="151.2899052">
  <ele>343.08</ele>
  <time>2026-09-01T19:57:59Z</time>
  <course>324.12</course>
  <speed>0.0</speed>
  <fix>3d</fix>
</trkpt>
<trkpt lat="-27.273762" lon="151.2899049">
  <ele>343.12</ele>
  <time>2026-09-01T19:57:59Z</time>
  <course>177.54</course>
  <speed>0.0282842712474619</speed>
  <fix>3d</fix>
</trkpt>
<trkpt lat="-27.2737622" lon="151.2899052">
  <ele>343.08</ele>
  <time>2026-09-01T19:57:59Z</time>
  <course>322.26</course>
  <speed>0.0</speed>
  <fix>3d</fix>
</trkpt>
<trkpt lat="-27.273762" lon="151.2899049">
  <ele>343.12</ele>
  <time>2026-09-01T19:57:59Z</time>
  <course>177.45</course>
  <speed>0.0282842712474619</speed>
  <fix>3d</fix>
</trkpt>
<trkpt lat="-27.2737622" lon="151.2899052">
  <ele>343.08</ele>
  <time>2026-09-01T19:57:59Z</time>
  <course>322.26</course>
  <speed>0.0</speed>
  <fix>3d</fix>
</trkpt>
<trkpt lat="-27.273762" lon="151.2899049">
  <ele>343.12</ele>
  <time>2026-09-01T19:57:59Z</time>
  <course>177.37</course>
  <speed>0.0282842712474619</speed>
  <fix>3d</fix>
</trkpt>
<trkpt lat="-27.2737622" lon="151.2899052">
  <ele>343.08</ele>
  <time>2026-09-01T19:57:59Z</time>
  <course>144.01</course>
  <speed>0.0</speed>
  <fix>3d</fix>
</trkpt>
<trkpt lat="-27.273762" lon="151.2899049">
  <ele>343.12</ele>
  <time>2026-09-01T19:57:59Z</time>
  <course>177.3</course>
  <speed>0.0282842712474619</speed>
  <fix>3d</fix>
</trkpt>
<trkpt lat="-27.2737622" lon="151.2899052">
  <ele>343.08</ele>
  <time>2026-09-01T19:57:59Z</time>
  <course>144.01</course>
  <speed>0.0</speed>
  <fix>3d</fix>
</trkpt>
<trkpt lat="-27.273762" lon="151.2899049">
  <ele>343.12</ele>
  <time>2026-09-01T19:57:59Z</time>
  <course>177.24</course>
  <speed>0.0282842712474619</speed>
  <fix>3d</fix>
</trkpt>
<trkpt lat="-27.2737622" lon="151.2899052">
  <ele>343.08</ele>
  <time>2026-09-01T19:57:59Z</time>
  <course>325.98</course>
  <speed>0.0</speed>
  <fix>3d</fix>
</trkpt>
<trkpt lat="-27.273762" lon="151.2899049">
  <ele>343.07</ele>
  <time>2026-09-01T19:57:59Z</time>
  <course>177.19</course>
  <speed>0.0282842712474619</speed>
  <fix>3d</fix>
</trkpt>
<trkpt lat="-27.2737622" lon="151.2899052">
  <ele>343.08</ele>
  <time>2026-09-01T19:57:59Z</time>
  <course>325.98</course>
  <speed>0.0</speed>
  <fix>3d</fix>
</trkpt>
<trkpt lat="-27.273762" lon="151.2899049">
  <ele>343.07</ele>
  <time>2026-09-01T19:57:59Z</time>
  <course>177.14</course>
  <speed>0.0282842712474619</speed>
  <fix>3d</fix>
</trkpt>
<trkpt lat="-27.2737622" lon="151.2899052">
  <ele>343.08</ele>
  <time>2026-09-01T19:57:59Z</time>
  <course>323.91</course>
  <speed>0.0</speed>
  <fix>3d</fix>
</trkpt>
<trkpt lat="-27.273762" lon="151.2899049">
  <ele>343.07</ele>
  <time>2026-09-01T19:57:59Z</time>
  <course>177.09</course>
  <speed>0.0282842712474619</speed>
  <fix>3d</fix>
</trkpt>
<trkpt lat="-27.2737622" lon="151.2899052">
  <ele>343.08</ele>
  <time>2026-09-01T19:57:59Z</time>
  <course>323.91</course>
  <speed>0.0</speed>
  <fix>3d</fix>
</trkpt>
<trkpt lat="-27.273762" lon="151.2899049">
  <ele>343.08</ele>
  <time>2026-09-01T19:57:59Z</time>
  <course>177.05</course>
  <speed>0.0282842712474619</speed>
  <fix>3d</fix>
</trkpt>
<trkpt lat="-27.2737622" lon="151.2899052">
  <ele>343.08</ele>
  <time>2026-09-01T19:57:59Z</time>
  <course>323.91</course>
  <speed>0.0</speed>
  <fix>3d</fix>
</trkpt>
<trkpt lat="-27.273762" lon="151.2899049">
  <ele>343.08</ele>
  <time>2026-09-01T19:57:59Z</time>
  <course>177.0</course>
  <speed>0.0282842712474619</speed>
  <fix>3d</fix>
</trkpt>
<trkpt lat="-27.2737622" lon="151.2899052">
  <ele>343.08</ele>
  <time>2026-09-01T19:57:59Z</time>
  <course>144.59</course>
  <speed>0.0</speed>
  <fix>3d</fix>
</trkpt>
<trkpt lat="-27.273762" lon="151.2899049">
  <ele>343.08</ele>
  <time>2026-09-01T19:57:59Z</time>
  <course>176.96</course>
  <speed>0.0282842712474619</speed>
  <fix>3d</fix>
</trkpt>
<trkpt lat="-27.2737622" lon="151.2899052">
  <ele>343.08</ele>
  <time>2026-09-01T19:57:59Z</time>
  <course>143.78</course>
  <speed>0.0</speed>
  <fix>3d</fix>
</trkpt>
<trkpt lat="-27.273762" lon="151.2899049">
  <ele>343.08</ele>
  <time>2026-09-01T19:57:59Z</time>
  <course>176.92</course>
  <speed>0.0282842712474619</speed>
  <fix>3d</fix>
</trkpt>
<trkpt lat="-27.2737622" lon="151.2899052">
  <ele>343.08</ele>
  <time>2026-09-01T19:57:59Z</time>
  <course>143.78</course>
  <speed>0.0</speed>
  <fix>3d</fix>
</trkpt>
<trkpt lat="-26.9720619" lon="149.6127921">
  <ele>339.29</ele>
  <time>2026-09-01T19:58:00Z</time>
  <course>310.27</course>
  <speed>0.0</speed>
  <fix>3d</fix>
</trkpt>
<trkpt lat="-26.9720619" lon="149.6127921">
  <ele>339.29</ele>
  <time>2026-09-01T19:58:00Z</time>
  <course>310.27</course>
  <speed>0.0</speed>
  <fix>3d</fix>
</trkpt>
<trkpt lat="-27.274439" lon="151.290064">
  <ele>-0.01</ele>
  <time>2026-09-01T19:58:00Z</time>
  <course>0.22</course>
  <speed>0.0</speed>
  <fix>3d</fix>
</trkpt>
<trkpt lat="-27.274439" lon="151.290064">
  <ele>343.1</ele>
  <time>2026-09-01T19:58:00Z</time>
  <course>294.58</course>
  <speed>0.0</speed>
  <fix>3d</fix>
</trkpt>
<trkpt lat="-27.274439" lon="151.290064">
  <ele>0.02</ele>
  <time>2026-09-01T19:58:00Z</time>
  <course>1.2</course>
  <speed>0.0</speed>
  <fix>3d</fix>
</trkpt>
<trkpt lat="-27.274439" lon="151.290064">
  <ele>343.1</ele>
  <time>2026-09-01T19:58:00Z</time>
  <course>294.58</course>
  <speed>0.0</speed>
  <fix>3d</fix>
</trkpt>
<trkpt lat="-27.274439" lon="151.290064">
  <ele>-0.08</ele>
  <time>2026-09-01T19:58:00Z</time>
  <course>2.1</course>
  <speed>0.0</speed>
  <fix>3d</fix>
</trkpt>
<trkpt lat="-27.274439" lon="151.290064">
  <ele>343.1</ele>
  <time>2026-09-01T19:58:00Z</time>
  <course>273.33</course>
  <speed>0.0</speed>
  <fix>3d</fix>
</trkpt>
<trkpt lat="-27.274439" lon="151.290064">
  <ele>0.22</ele>
  <time>2026-09-01T19:58:00Z</time>
  <course>2.92</course>
  <speed>0.0</speed>
  <fix>3d</fix>
</trkpt>
<trkpt lat="-27.274439" lon="151.290064">
  <ele>343.1</ele>
  <time>2026-09-01T19:58:00Z</time>
  <course>273.33</course>
  <speed>0.0</speed>
  <fix>3d</fix>
</trkpt>
<trkpt lat="-27.274439" lon="151.290064">
  <ele>0.09</ele>
  <time>2026-09-01T19:58:00Z</time>
  <course>3.66</course>
  <speed>0.0</speed>
  <fix>3d</fix>
</trkpt>
<trkpt lat="-27.274439" lon="151.290064">
  <ele>343.1</ele>
  <time>2026-09-01T19:58:00Z</time>
  <course>270.44</course>
  <speed>0.0</speed>
  <fix>3d</fix>
</trkpt>
<trkpt lat="-27.274439" lon="151.290064">
  <ele>0.08</ele>
  <time>2026-09-01T19:58:00Z</time>
  <course>4.34</course>
  <speed>0.0</speed>
  <fix>3d</fix>
</trkpt>
<trkpt lat="-27.274439" lon="151.290064">
  <ele>343.1</ele>
  <time>2026-09-01T19:58:00Z</time>
  <course>270.44</course>
  <speed>0.0</speed>
  <fix>3d</fix>
</trkpt>
<trkpt lat="-27.274439" lon="151.290064">
  <ele>0.09</ele>
  <time>2026-09-01T19:58:00Z</time>
  <course>4.95</course>
  <speed>0.0</speed>
  <fix>3d</fix>
</trkpt>
<trkpt lat="-27.274439" lon="151.290064">
  <ele>343.1</ele>
  <time>2026-09-01T19:58:00Z</time>
  <course>270.05</course>
  <speed>0.0</speed>
  <fix>3d</fix>
</trkpt>
<trkpt lat="-27.274439" lon="151.290064">
  <ele>-0.05</ele>
  <time>2026-09-01T19:58:00Z</time>
  <course>5.5</course>
  <speed>0.0</speed>
  <fix>3d</fix>
</trkpt>
<trkpt lat="-27.274439" lon="151.290064">
  <ele>343.1</ele>
  <time>2026-09-01T19:58:00Z</time>
  <course>270.05</course>
  <speed>0.0</speed>
  <fix>3d</fix>
</trkpt>
<trkpt lat="-27.274439" lon="151.290064">
  <ele>343.06</ele>
  <time>2026-09-01T19:58:00Z</time>
  <course>5.98</course>
  <speed>0.0</speed>
  <fix>3d</fix>
</trkpt>
<trkpt lat="-27.274439" lon="151.290064">
  <ele>343.1</ele>
  <time>2026-09-01T19:58:00Z</time>
  <course>270.0</course>
  <speed>0.0</speed>
  <fix>3d</fix>
</trkpt>
<trkpt lat="-27.274439" lon="151.290064">
  <ele>343.18</ele>
  <time>2026-09-01T19:58:00Z</time>
  <course>6.44</course>
  <speed>0.0</speed>
  <fix>3d</fix>
</trkpt>
<trkpt lat="-27.274439" lon="151.290064">
  <ele>343.1</ele>
  <time>2026-09-01T19:58:00Z</time>
  <course>270.0</course>
  <speed>0.0</speed>
  <fix>3d</fix>
</trkpt>
<trkpt lat="-27.274439" lon="151.290064">
  <ele>342.91</ele>
  <time>2026-09-01T19:58:00Z</time>
  <course>6.85</course>
  <speed>0.0</speed>
  <fix>3d</fix>
</trkpt>
<trkpt lat="-27.274439" lon="151.290064">
  <ele>343.1</ele>
  <time>2026-09-01T19:58:00Z</time>
  <course>270.0</course>
  <speed>0.0</speed>
  <fix>3d</fix>
</trkpt>
<trkpt lat="-27.274439" lon="151.290064">
  <ele>343.06</ele>
  <time>2026-09-01T19:58:00Z</time>
  <course>7.22</course>
  <speed>0.0</speed>
  <fix>3d</fix>
</trkpt>
<trkpt lat="-27.274439" lon="151.290064">
  <ele>343.1</ele>
  <time>2026-09-01T19:58:00Z</time>
  <course>270.0</course>
  <speed>0.0</speed>
  <fix>3d</fix>
</trkpt>
<trkpt lat="-27.274439" lon="151.290064">
  <ele>343.13</ele>
  <time>2026-09-01T19:58:00Z</time>
  <course>7.56</course>
  <speed>0.0</speed>
  <fix>3d</fix>
</trkpt>
<trkpt lat="-27.274439" lon="151.290064">
  <ele>343.1</ele>
  <time>2026-09-01T19:58:00Z</time>
  <course>270.0</course>
  <speed>0.0</speed>
  <fix>3d</fix>
</trkpt>
<trkpt lat="-27.274439" lon="151.290064">
  <ele>343.04</ele>
  <time>2026-09-01T19:58:00Z</time>
  <course>7.87</course>
  <speed>0.0</speed>
  <fix>3d</fix>
</trkpt>
<trkpt lat="-27.274439" lon="151.290064">
  <ele>343.1</ele>
  <time>2026-09-01T19:58:00Z</time>
  <course>270.0</course>
  <speed>0.0</speed>
  <fix>3d</fix>
</trkpt>
<trkpt lat="-27.274439" lon="151.290064">
  <ele>342.88</ele>
  <time>2026-09-01T19:58:00Z</time>
  <course>8.14</course>
  <speed>0.0</speed>
  <fix>3d</fix>
</trkpt>
<trkpt lat="-27.274439" lon="151.290064">
  <ele>343.1</ele>
  <time>2026-09-01T19:58:00Z</time>
  <course>270.0</course>
  <speed>0.0</speed>
  <fix>3d</fix>
</trkpt>
<trkpt lat="-27.274439" lon="151.290064">
  <ele>343.02</ele>
  <time>2026-09-01T19:58:00Z</time>
  <course>8.39</course>
  <speed>0.0</speed>
  <fix>3d</fix>
</trkpt>
<trkpt lat="-27.274439" lon="151.290064">
  <ele>343.1</ele>
  <time>2026-09-01T19:58:00Z</time>
  <course>270.0</course>
  <speed>0.0</speed>
  <fix>3d</fix>
</trkpt>
<trkpt lat="-27.274439" lon="151.290064">
  <ele>343.23</ele>
  <time>2026-09-01T19:58:00Z</time>
  <course>8.63</course>
  <speed>0.0</speed>
  <fix>3d</fix>
</trkpt>
<trkpt lat="-27.274439" lon="151.290064">
  <ele>343.1</ele>
  <time>2026-09-01T19:58:00Z</time>
  <course>270.0</course>
  <speed>0.0</speed>
  <fix>3d</fix>
</trkpt>
<trkpt lat="-27.274439" lon="151.290064">
  <ele>343.17</ele>
  <time>2026-09-01T19:58:00Z</time>
  <course>8.83</course>
  <speed>0.0</speed>
  <fix>3d</fix>
</trkpt>
<trkpt lat="-27.274439" lon="151.290064">
  <ele>343.1</ele>
  <time>2026-09-01T19:58:00Z</time>
  <course>270.0</course>
  <speed>0.0</speed>
  <fix>3d</fix>
</trkpt>
<trkpt lat="-27.274439" lon="151.290064">
  <ele>343.04</ele>
  <time>2026-09-01T19:58:00Z</time>
  <course>9.01</course>
  <speed>0.0</speed>
  <fix>3d</fix>
</trkpt>
<trkpt lat="-27.274439" lon="151.290064">
  <ele>343.1</ele>
  <time>2026-09-01T19:58:00Z</time>
  <course>270.0</course>
  <speed>0.0</speed>
  <fix>3d</fix>
</trkpt>
<trkpt lat="-27.274439" lon="151.290064">
  <ele>342.89</ele>
  <time>2026-09-01T19:58:00Z</time>
  <course>9.18</course>
  <speed>0.0</speed>
  <fix>3d</fix>
</trkpt>
<trkpt lat="-27.274439" lon="151.290064">
  <ele>343.1</ele>
  <time>2026-09-01T19:58:00Z</time>
  <course>270.0</course>
  <speed>0.0</speed>
  <fix>3d</fix>
</trkpt>
<trkpt lat="-27.274439" lon="151.290064">
  <ele>343.08</ele>
  <time>2026-09-01T19:58:00Z</time>
  <course>9.33</course>
  <speed>0.0</speed>
  <fix>3d</fix>
</trkpt>
<trkpt lat="-27.274439" lon="151.290064">
  <ele>343.1</ele>
  <time>2026-09-01T19:58:00Z</time>
  <course>270.0</course>
  <speed>0.0</speed>
  <fix>3d</fix>
</trkpt>
<trkpt lat="-27.274439" lon="151.290064">
  <ele>343.19</ele>
  <time>2026-09-01T19:58:00Z</time>
  <course>9.47</course>
  <speed>0.0</speed>
  <fix>3d</fix>
</trkpt>
<trkpt lat="-27.274439" lon="151.290064">
  <ele>343.1</ele>
  <time>2026-09-01T19:58:00Z</time>
  <course>270.0</course>
  <speed>0.0</speed>
  <fix>3d</fix>
</trkpt>
<trkpt lat="-27.274439" lon="151.290064">
  <ele>342.88</ele>
  <time>2026-09-01T19:58:00Z</time>
  <course>9.59</course>
  <speed>0.0</speed>
  <fix>3d</fix>
</trkpt>
<trkpt lat="-27.274439" lon="151.290064">
  <ele>343.1</ele>
  <time>2026-09-01T19:58:00Z</time>
  <course>270.0</course>
  <speed>0.0</speed>
  <fix>3d</fix>
</trkpt>
<trkpt lat="-27.274439" lon="151.290064">
  <ele>343.17</ele>
  <time>2026-09-01T19:58:00Z</time>
  <course>9.7</course>
  <speed>0.0</speed>
  <fix>3d</fix>
</trkpt>
<trkpt lat="-27.274439" lon="151.290064">
  <ele>343.1</ele>
  <time>2026-09-01T19:58:00Z</time>
  <course>270.0</course>
  <speed>0.0</speed>
  <fix>3d</fix>
</trkpt>
<trkpt lat="-27.274439" lon="151.290064">
  <ele>342.89</ele>
  <time>2026-09-01T19:58:00Z</time>
  <course>9.8</course>
  <speed>0.0</speed>
  <fix>3d</fix>
</trkpt>
<trkpt lat="-27.274439" lon="151.290064">
  <ele>343.1</ele>
  <time>2026-09-01T19:58:00Z</time>
  <course>270.0</course>
  <speed>0.0</speed>
  <fix>3d</fix>
</trkpt>
<trkpt lat="-27.274439" lon="151.290064">
  <ele>342.99</ele>
  <time>2026-09-01T19:58:00Z</time>
  <course>9.9</course>
  <speed>0.0</speed>
  <fix>3d</fix>
</trkpt>
<trkpt lat="-27.274439" lon="151.290064">
  <ele>343.1</ele>
  <time>2026-09-01T19:58:00Z</time>
  <course>270.0</course>
  <speed>0.0</speed>
  <fix>3d</fix>
</trkpt>
<trkpt lat="-27.274439" lon="151.290064">
  <ele>342.87</ele>
  <time>2026-09-01T19:58:00Z</time>
  <course>9.98</course>
  <speed>0.0</speed>
  <fix>3d</fix>
</trkpt>
<trkpt lat="-27.274439" lon="151.290064">
  <ele>343.1</ele>
  <time>2026-09-01T19:58:00Z</time>
  <course>270.0</course>
  <speed>0.0</speed>
  <fix>3d</fix>
</trkpt>
<trkpt lat="-27.274439" lon="151.290064">
  <ele>343.09</ele>
  <time>2026-09-01T19:58:00Z</time>
  <course>10.06</course>
  <speed>0.0</speed>
  <fix>3d</fix>
</trkpt>
<trkpt lat="-27.274439" lon="151.290064">
  <ele>343.1</ele>
  <time>2026-09-01T19:58:00Z</time>
  <course>270.0</course>
  <speed>0.0</speed>
  <fix>3d</fix>
</trkpt>
<trkpt lat="-27.274439" lon="151.290064">
  <ele>343.18</ele>
  <time>2026-09-01T19:58:00Z</time>
  <course>10.13</course>
  <speed>0.0</speed>
  <fix>3d</fix>
</trkpt>
<trkpt lat="-27.274439" lon="151.290064">
  <ele>343.1</ele>
  <time>2026-09-01T19:58:00Z</time>
  <course>270.0</course>
  <speed>0.0</speed>
  <fix>3d</fix>
</trkpt>
<trkpt lat="-27.274439" lon="151.290064">
  <ele>343.05</ele>
  <time>2026-09-01T19:58:00Z</time>
  <course>10.2</course>
  <speed>0.0</speed>
  <fix>3d</fix>
</trkpt>
<trkpt lat="-27.274439" lon="151.290064">
  <ele>343.1</ele>
  <time>2026-09-01T19:58:00Z</time>
  <course>270.0</course>
  <speed>0.0</speed>
  <fix>3d</fix>
</trkpt>
<trkpt lat="-27.274439" lon="151.290064">
  <ele>342.96</ele>
  <time>2026-09-01T19:58:00Z</time>
  <course>10.25</course>
  <speed>0.0</speed>
  <fix>3d</fix>
</trkpt>
<trkpt lat="-27.274439" lon="151.290064">
  <ele>343.1</ele>
  <time>2026-09-01T19:58:00Z</time>
  <course>270.0</course>
  <speed>0.0</speed>
  <fix>3d</fix>
</trkpt>
<trkpt lat="-27.274439" lon="151.290064">
  <ele>343.1</ele>
  <time>2026-09-01T19:58:00Z</time>
  <course>10.31</course>
  <speed>0.0</speed>
  <fix>3d</fix>
</trkpt>
<trkpt lat="-27.274439" lon="151.290064">
  <ele>343.1</ele>
  <time>2026-09-01T19:58:00Z</time>
  <course>270.0</course>
  <speed>0.0</speed>
  <fix>3d</fix>
</trkpt>
<trkpt lat="-27.274439" lon="151.290064">
  <ele>343.22</ele>
  <time>2026-09-01T19:58:00Z</time>
  <course>10.35</course>
  <speed>0.0</speed>
  <fix>3d</fix>
</trkpt>
<trkpt lat="-27.274439" lon="151.290064">
  <ele>343.1</ele>
  <time>2026-09-01T19:58:00Z</time>
  <course>270.0</course>
  <speed>0.0</speed>
  <fix>3d</fix>
</trkpt>
<trkpt lat="-27.274439" lon="151.290064">
  <ele>343.17</ele>
  <time>2026-09-01T19:58:00Z</time>
  <course>10.4</course>
  <speed>0.0</speed>
  <fix>3d</fix>
</trkpt>
<trkpt lat="-27.274439" lon="151.290064">
  <ele>343.1</ele>
  <time>2026-09-01T19:58:00Z</time>
  <course>270.0</course>
  <speed>0.0</speed>
  <fix>3d</fix>
</trkpt>
<trkpt lat="-27.274439" lon="151.290064">
  <ele>343.08</ele>
  <time>2026-09-01T19:58:00Z</time>
  <course>10.44</course>
  <speed>0.0</speed>
  <fix>3d</fix>
</trkpt>
<trkpt lat="-27.274439" lon="151.290064">
  <ele>343.1</ele>
  <time>2026-09-01T19:58:00Z</time>
  <course>270.0</course>
  <speed>0.0</speed>
  <fix>3d</fix>
</trkpt>
<trkpt lat="-27.274439" lon="151.290064">
  <ele>343.04</ele>
  <time>2026-09-01T19:58:00Z</time>
  <course>10.47</course>
  <speed>0.0</speed>
  <fix>3d</fix>
</trkpt>
<trkpt lat="-27.274439" lon="151.290064">
  <ele>343.1</ele>
  <time>2026-09-01T19:58:00Z</time>
  <course>270.0</course>
  <speed>0.0</speed>
  <fix>3d</fix>
</trkpt>
<trkpt lat="-27.274439" lon="151.290064">
  <ele>343.18</ele>
  <time>2026-09-01T19:58:00Z</time>
  <course>10.5</course>
  <speed>0.0</speed>
  <fix>3d</fix>
</trkpt>
<trkpt lat="-27.274439" lon="151.290064">
  <ele>343.1</ele>
  <time>2026-09-01T19:58:00Z</time>
  <course>270.0</course>
  <speed>0.0</speed>
  <fix>3d</fix>
</trkpt>
<trkpt lat="-27.274439" lon="151.290064">
  <ele>343.12</ele>
  <time>2026-09-01T19:58:00Z</time>
  <course>10.53</course>
  <speed>0.0</speed>
  <fix>3d</fix>
</trkpt>
<trkpt lat="-27.274439" lon="151.290064">
  <ele>343.1</ele>
  <time>2026-09-01T19:58:00Z</time>
  <course>270.0</course>
  <speed>0.0</speed>
  <fix>3d</fix>
</trkpt>
<trkpt lat="-27.274439" lon="151.290064">
  <ele>343.04</ele>
  <time>2026-09-01T19:58:00Z</time>
  <course>10.56</course>
  <speed>0.0</speed>
  <fix>3d</fix>
</trkpt>
<trkpt lat="-27.274439" lon="151.290064">
  <ele>343.1</ele>
  <time>2026-09-01T19:58:00Z</time>
  <course>270.0</course>
  <speed>0.0</speed>
  <fix>3d</fix>
</trkpt>
<trkpt lat="-27.274439" lon="151.290064">
  <ele>343.07</ele>
  <time>2026-09-01T19:58:00Z</time>
  <course>10.58</course>
  <speed>0.0</speed>
  <fix>3d</fix>
</trkpt>
<trkpt lat="-27.274439" lon="151.290064">
  <ele>343.1</ele>
  <time>2026-09-01T19:58:00Z</time>
  <course>270.0</course>
  <speed>0.0</speed>
  <fix>3d</fix>
</trkpt>
<trkpt lat="-27.274439" lon="151.290064">
  <ele>343.04</ele>
  <time>2026-09-01T19:58:00Z</time>
  <course>10.6</course>
  <speed>0.0</speed>
  <fix>3d</fix>
</trkpt>
<trkpt lat="-27.274439" lon="151.290064">
  <ele>343.1</ele>
  <time>2026-09-01T19:58:00Z</time>
  <course>270.0</course>
  <speed>0.0</speed>
  <fix>3d</fix>
</trkpt>
<trkpt lat="-27.274439" lon="151.290064">
  <ele>343.01</ele>
  <time>2026-09-01T19:58:00Z</time>
  <course>10.62</course>
  <speed>0.0</speed>
  <fix>3d</fix>
</trkpt>
<trkpt lat="-27.274439" lon="151.290064">
  <ele>343.1</ele>
  <time>2026-09-01T19:58:00Z</time>
  <course>270.0</course>
  <speed>0.0</speed>
  <fix>3d</fix>
</trkpt>
<trkpt lat="-27.274439" lon="151.290064">
  <ele>343.2</ele>
  <time>2026-09-01T19:58:00Z</time>
  <course>10.64</course>
  <speed>0.0</speed>
  <fix>3d</fix>
</trkpt>
<trkpt lat="-27.274439" lon="151.290064">
  <ele>343.1</ele>
  <time>2026-09-01T19:58:00Z</time>
  <course>270.0</course>
  <speed>0.0</speed>
  <fix>3d</fix>
</trkpt>
<trkpt lat="-27.274439" lon="151.290064">
  <ele>343.24</ele>
  <time>2026-09-01T19:58:00Z</time>
  <course>10.65</course>
  <speed>0.0</speed>
  <fix>3d</fix>
</trkpt>
<trkpt lat="-27.274439" lon="151.290064">
  <ele>343.1</ele>
  <time>2026-09-01T19:58:00Z</time>
  <course>270.0</course>
  <speed>0.0</speed>
  <fix>3d</fix>
</trkpt>
<trkpt lat="-27.274439" lon="151.290064">
  <ele>342.88</ele>
  <time>2026-09-01T19:58:00Z</time>
  <course>10.67</course>
  <speed>0.0</speed>
  <fix>3d</fix>
</trkpt>
<trkpt lat="-27.274439" lon="151.290064">
  <ele>343.1</ele>
  <time>2026-09-01T19:58:00Z</time>
  <course>270.0</course>
  <speed>0.0</speed>
  <fix>3d</fix>
</trkpt>
<trkpt lat="-27.274439" lon="151.290064">
  <ele>343.21</ele>
  <time>2026-09-01T19:58:00Z</time>
  <course>10.68</course>
  <speed>0.0</speed>
  <fix>3d</fix>
</trkpt>
<trkpt lat="-27.274439" lon="151.290064">
  <ele>343.1</ele>
  <time>2026-09-01T19:58:00Z</time>
  <course>270.0</course>
  <speed>0.0</speed>
  <fix>3d</fix>
</trkpt>
<trkpt lat="-27.274439" lon="151.290064">
  <ele>343.02</ele>
  <time>2026-09-01T19:58:00Z</time>
  <course>10.69</course>
  <speed>0.0</speed>
  <fix>3d</fix>
</trkpt>
<trkpt lat="-27.274439" lon="151.290064">
  <ele>343.1</ele>
  <time>2026-09-01T19:58:00Z</time>
  <course>270.0</course>
  <speed>0.0</speed>
  <fix>3d</fix>
</trkpt>
<trkpt lat="-27.274439" lon="151.290064">
  <ele>342.93</ele>
  <time>2026-09-01T19:58:00Z</time>
  <course>10.7</course>
  <speed>0.0</speed>
  <fix>3d</fix>
</trkpt>
<trkpt lat="-27.274439" lon="151.290064">
  <ele>343.1</ele>
  <time>2026-09-01T19:58:00Z</time>
  <course>270.0</course>
  <speed>0.0</speed>
  <fix>3d</fix>
</trkpt>
<trkpt lat="-27.274439" lon="151.290064">
  <ele>343.07</ele>
  <time>2026-09-01T19:58:00Z</time>
  <course>10.71</course>
  <speed>0.0</speed>
  <fix>3d</fix>
</trkpt>
<trkpt lat="-27.274439" lon="151.290064">
  <ele>343.1</ele>
  <time>2026-09-01T19:58:00Z</time>
  <course>270.0</course>
  <speed>0.0</speed>
  <fix>3d</fix>
</trkpt>
<trkpt lat="-27.274439" lon="151.290064">
  <ele>342.94</ele>
  <time>2026-09-01T19:58:00Z</time>
  <course>10.72</course>
  <speed>0.0</speed>
  <fix>3d</fix>
</trkpt>
<trkpt lat="-27.274439" lon="151.290064">
  <ele>343.1</ele>
  <time>2026-09-01T19:58:00Z</time>
  <course>270.0</course>
  <speed>0.0</speed>
  <fix>3d</fix>
</trkpt>
<trkpt lat="-27.274439" lon="151.290064">
  <ele>343.11</ele>
  <time>2026-09-01T19:58:00Z</time>
  <course>10.73</course>
  <speed>0.0</speed>
  <fix>3d</fix>
</trkpt>
<trkpt lat="-27.274439" lon="151.290064">
  <ele>343.1</ele>
  <time>2026-09-01T19:58:00Z</time>
  <course>270.0</course>
  <speed>0.0</speed>
  <fix>3d</fix>
</trkpt>
<trkpt lat="-27.274439" lon="151.290064">
  <ele>343.24</ele>
  <time>2026-09-01T19:58:00Z</time>
  <course>10.73</course>
  <speed>0.0</speed>
  <fix>3d</fix>
</trkpt>
<trkpt lat="-27.274439" lon="151.290064">
  <ele>343.1</ele>
  <time>2026-09-01T19:58:00Z</time>
  <course>270.0</course>
  <speed>0.0</speed>
  <fix>3d</fix>
</trkpt>
<trkpt lat="-27.274439" lon="151.290064">
  <ele>343.18</ele>
  <time>2026-09-01T19:58:00Z</time>
  <course>10.74</course>
  <speed>0.0</speed>
  <fix>3d</fix>
</trkpt>
<trkpt lat="-27.274439" lon="151.290064">
  <ele>343.1</ele>
  <time>2026-09-01T19:58:00Z</time>
  <course>270.0</course>
  <speed>0.0</speed>
  <fix>3d</fix>
</trkpt>
<trkpt lat="-27.274439" lon="151.290064">
  <ele>342.89</ele>
  <time>2026-09-01T19:58:00Z</time>
  <course>10.75</course>
  <speed>0.0</speed>
  <fix>3d</fix>
</trkpt>
<trkpt lat="-27.274439" lon="151.290064">
  <ele>343.1</ele>
  <time>2026-09-01T19:58:00Z</time>
  <course>270.0</course>
  <speed>0.0</speed>
  <fix>3d</fix>
</trkpt>
<trkpt lat="-27.274439" lon="151.290064">
  <ele>343.23</ele>
  <time>2026-09-01T19:58:00Z</time>
  <course>10.75</course>
  <speed>0.0</speed>
  <fix>3d</fix>
</trkpt>
<trkpt lat="-27.274439" lon="151.290064">
  <ele>343.1</ele>
  <time>2026-09-01T19:58:00Z</time>
  <course>270.0</course>
  <speed>0.0</speed>
  <fix>3d</fix>
</trkpt>
<trkpt lat="-27.274439" lon="151.290064">
  <ele>343.23</ele>
  <time>2026-09-01T19:58:00Z</time>
  <course>10.76</course>
  <speed>0.0</speed>
  <fix>3d</fix>
</trkpt>
<trkpt lat="-27.274439" lon="151.290064">
  <ele>343.1</ele>
  <time>2026-09-01T19:58:00Z</time>
  <course>270.0</course>
  <speed>0.0</speed>
  <fix>3d</fix>
</trkpt>
<trkpt lat="-27.274439" lon="151.290064">
  <ele>342.99</ele>
  <time>2026-09-01T19:58:00Z</time>
  <course>10.76</course>
  <speed>0.0</speed>
  <fix>3d</fix>
</trkpt>
<trkpt lat="-27.274439" lon="151.290064">
  <ele>343.1</ele>
  <time>2026-09-01T19:58:00Z</time>
  <course>270.0</course>
  <speed>0.0</speed>
  <fix>3d</fix>
</trkpt>
<trkpt lat="-27.274439" lon="151.290064">
  <ele>343.13</ele>
  <time>2026-09-01T19:58:00Z</time>
  <course>10.76</course>
  <speed>0.0</speed>
  <fix>3d</fix>
</trkpt>
<trkpt lat="-27.274439" lon="151.290064">
  <ele>343.1</ele>
  <time>2026-09-01T19:58:00Z</time>
  <course>270.0</course>
  <speed>0.0</speed>
  <fix>3d</fix>
</trkpt>
<trkpt lat="-27.274439" lon="151.290064">
  <ele>343.07</ele>
  <time>2026-09-01T19:58:00Z</time>
  <course>10.77</course>
  <speed>0.0</speed>
  <fix>3d</fix>
</trkpt>
<trkpt lat="-27.274439" lon="151.290064">
  <ele>343.1</ele>
  <time>2026-09-01T19:58:00Z</time>
  <course>270.0</course>
  <speed>0.0</speed>
  <fix>3d</fix>
</trkpt>
<trkpt lat="-27.274439" lon="151.290064">
  <ele>343.19</ele>
  <time>2026-09-01T19:58:00Z</time>
  <course>10.77</course>
  <speed>0.0</speed>
  <fix>3d</fix>
</trkpt>
<trkpt lat="-27.274439" lon="151.290064">
  <ele>343.1</ele>
  <time>2026-09-01T19:58:00Z</time>
  <course>270.0</course>
  <speed>0.0</speed>
  <fix>3d</fix>
</trkpt>
<trkpt lat="-27.274439" lon="151.290064">
  <ele>342.93</ele>
  <time>2026-09-01T19:58:00Z</time>
  <course>10.77</course>
  <speed>0.0</speed>
  <fix>3d</fix>
</trkpt>
<trkpt lat="-27.274439" lon="151.290064">
  <ele>343.1</ele>
  <time>2026-09-01T19:58:00Z</time>
  <course>270.0</course>
  <speed>0.0</speed>
  <fix>3d</fix>
</trkpt>
<trkpt lat="-27.274439" lon="151.290064">
  <ele>343.19</ele>
  <time>2026-09-01T19:58:00Z</time>
  <course>10.78</course>
  <speed>0.0</speed>
  <fix>3d</fix>
</trkpt>
<trkpt lat="-27.274439" lon="151.290064">
  <ele>343.1</ele>
  <time>2026-09-01T19:58:00Z</time>
  <course>270.0</course>
  <speed>0.0</speed>
  <fix>3d</fix>
</trkpt>
<trkpt lat="-27.274439" lon="151.290064">
  <ele>343.1</ele>
  <time>2026-09-01T19:58:00Z</time>
  <course>10.78</course>
  <speed>0.0</speed>
  <fix>3d</fix>
</trkpt>
<trkpt lat="-27.274439" lon="151.290064">
  <ele>343.1</ele>
  <time>2026-09-01T19:58:00Z</time>
  <course>270.0</course>
  <speed>0.0</speed>
  <fix>3d</fix>
</trkpt>
<trkpt lat="-27.274439" lon="151.290064">
  <ele>343.01</ele>
  <time>2026-09-01T19:58:00Z</time>
  <course>10.78</course>
  <speed>0.0</speed>
  <fix>3d</fix>
</trkpt>
<trkpt lat="-27.274439" lon="151.290064">
  <ele>343.1</ele>
  <time>2026-09-01T19:58:00Z</time>
  <course>270.0</course>
  <speed>0.0</speed>
  <fix>3d</fix>
</trkpt>
<trkpt lat="-27.274439" lon="151.290064">
  <ele>343.11</ele>
  <time>2026-09-01T19:58:00Z</time>
  <course>10.78</course>
  <speed>0.0</speed>
  <fix>3d</fix>
</trkpt>
<trkpt lat="-27.274439" lon="151.290064">
  <ele>343.1</ele>
  <time>2026-09-01T19:58:00Z</time>
  <course>270.0</course>
  <speed>0.0</speed>
  <fix>3d</fix>
</trkpt>
<trkpt lat="-27.274439" lon="151.290064">
  <ele>342.96</ele>
  <time>2026-09-01T19:58:00Z</time>
  <course>10.78</course>
  <speed>0.0</speed>
  <fix>3d</fix>
</trkpt>
<trkpt lat="-27.274439" lon="151.290064">
  <ele>343.1</ele>
  <time>2026-09-01T19:58:00Z</time>
  <course>270.0</course>
  <speed>0.0</speed>
  <fix>3d</fix>
</trkpt>
<trkpt lat="-27.274439" lon="151.290064">
  <ele>343.19</ele>
  <time>2026-09-01T19:58:00Z</time>
  <course>10.79</course>
  <speed>0.0</speed>
  <fix>3d</fix>
</trkpt>
<trkpt lat="-27.274439" lon="151.290064">
  <ele>343.1</ele>
  <time>2026-09-01T19:58:00Z</time>
  <course>270.0</course>
  <speed>0.0</speed>
  <fix>3d</fix>
</trkpt>
<trkpt lat="-27.274439" lon="151.290064">
  <ele>343.0</ele>
  <time>2026-09-01T19:58:00Z</time>
  <course>10.79</course>
  <speed>0.0</speed>
  <fix>3d</fix>
</trkpt>
<trkpt lat="-27.274439" lon="151.290064">
  <ele>343.1</ele>
  <time>2026-09-01T19:58:00Z</time>
  <course>270.0</course>
  <speed>0.0</speed>
  <fix>3d</fix>
</trkpt>
<trkpt lat="-27.274439" lon="151.290064">
  <ele>343.2</ele>
  <time>2026-09-01T19:58:00Z</time>
  <course>10.79</course>
  <speed>0.0</speed>
  <fix>3d</fix>
</trkpt>
<trkpt lat="-27.274439" lon="151.290064">
  <ele>343.1</ele>
  <time>2026-09-01T19:58:00Z</time>
  <course>270.0</course>
  <speed>0.0</speed>
  <fix>3d</fix>
</trkpt>
<trkpt lat="-27.274439" lon="151.290064">
  <ele>343.2</ele>
  <time>2026-09-01T19:58:00Z</time>
  <course>10.79</course>
  <speed>0.0</speed>
  <fix>3d</fix>
</trkpt>
<trkpt lat="-27.274439" lon="151.290064">
  <ele>343.1</ele>
  <time>2026-09-01T19:58:00Z</time>
  <course>270.0</course>
  <speed>0.0</speed>
  <fix>3d</fix>
</trkpt>
<trkpt lat="-27.274439" lon="151.290064">
  <ele>343.13</ele>
  <time>2026-09-01T19:58:00Z</time>
  <course>10.79</course>
  <speed>0.0</speed>
  <fix>3d</fix>
</trkpt>
<trkpt lat="-27.274439" lon="151.290064">
  <ele>343.1</ele>
  <time>2026-09-01T19:58:00Z</time>
  <course>270.0</course>
  <speed>0.0</speed>
  <fix>3d</fix>
</trkpt>
<trkpt lat="-27.274439" lon="151.290064">
  <ele>343.1</ele>
  <time>2026-09-01T19:58:00Z</time>
  <course>10.79</course>
  <speed>0.0</speed>
  <fix>3d</fix>
</trkpt>
<trkpt lat="-27.274439" lon="151.290064">
  <ele>343.1</ele>
  <time>2026-09-01T19:58:00Z</time>
  <course>270.0</course>
  <speed>0.0</speed>
  <fix>3d</fix>
</trkpt>
<trkpt lat="-27.274439" lon="151.290064">
  <ele>343.12</ele>
  <time>2026-09-01T19:58:00Z</time>
  <course>10.79</course>
  <speed>0.0</speed>
  <fix>3d</fix>
</trkpt>
<trkpt lat="-27.274439" lon="151.290064">
  <ele>343.1</ele>
  <time>2026-09-01T19:58:00Z</time>
  <course>270.0</course>
  <speed>0.0</speed>
  <fix>3d</fix>
</trkpt>
<trkpt lat="-27.274439" lon="151.290064">
  <ele>342.94</ele>
  <time>2026-09-01T19:58:00Z</time>
  <course>10.79</course>
  <speed>0.0</speed>
  <fix>3d</fix>
</trkpt>
<trkpt lat="-27.274439" lon="151.290064">
  <ele>343.1</ele>
  <time>2026-09-01T19:58:00Z</time>
  <course>270.0</course>
  <speed>0.0</speed>
  <fix>3d</fix>
</trkpt>
<trkpt lat="-27.274439" lon="151.290064">
  <ele>343.25</ele>
  <time>2026-09-01T19:58:00Z</time>
  <course>10.79</course>
  <speed>0.0</speed>
  <fix>3d</fix>
</trkpt>
<trkpt lat="-27.274439" lon="151.290064">
  <ele>343.1</ele>
  <time>2026-09-01T19:58:00Z</time>
  <course>270.0</course>
  <speed>0.0</speed>
  <fix>3d</fix>
</trkpt>
<trkpt lat="-27.274439" lon="151.290064">
  <ele>342.93</ele>
  <time>2026-09-01T19:58:00Z</time>
  <course>10.79</course>
  <speed>0.0</speed>
  <fix>3d</fix>
</trkpt>
<trkpt lat="-27.274439" lon="151.290064">
  <ele>343.1</ele>
  <time>2026-09-01T19:58:00Z</time>
  <course>270.0</course>
  <speed>0.0</speed>
  <fix>3d</fix>
</trkpt>
<trkpt lat="-27.274439" lon="151.290064">
  <ele>343.08</ele>
  <time>2026-09-01T19:58:00Z</time>
  <course>10.79</course>
  <speed>0.0</speed>
  <fix>3d</fix>
</trkpt>
<trkpt lat="-27.274439" lon="151.290064">
  <ele>343.1</ele>
  <time>2026-09-01T19:58:00Z</time>
  <course>270.0</course>
  <speed>0.0</speed>
  <fix>3d</fix>
</trkpt>
<trkpt lat="-27.274439" lon="151.290064">
  <ele>343.23</ele>
  <time>2026-09-01T19:58:00Z</time>
  <course>10.8</course>
  <speed>0.0</speed>
  <fix>3d</fix>
</trkpt>
<trkpt lat="-27.274439" lon="151.290064">
  <ele>343.1</ele>
  <time>2026-09-01T19:58:00Z</time>
  <course>270.0</course>
  <speed>0.0</speed>
  <fix>3d</fix>
</trkpt>
<trkpt lat="-27.274439" lon="151.290064">
  <ele>343.01</ele>
  <time>2026-09-01T19:58:00Z</time>
  <course>10.8</course>
  <speed>0.0</speed>
  <fix>3d</fix>
</trkpt>
<trkpt lat="-27.274439" lon="151.290064">
  <ele>343.1</ele>
  <time>2026-09-01T19:58:00Z</time>
  <course>270.0</course>
  <speed>0.0</speed>
  <fix>3d</fix>
</trkpt>
<trkpt lat="-27.274439" lon="151.290064">
  <ele>343.1</ele>
  <time>2026-09-01T19:58:00Z</time>
  <course>10.8</course>
  <speed>0.0</speed>
  <fix>3d</fix>
</trkpt>
<trkpt lat="-27.274439" lon="151.290064">
  <ele>343.1</ele>
  <time>2026-09-01T19:58:00Z</time>
  <course>270.0</course>
  <speed>0.0</speed>
  <fix>3d</fix>
</trkpt>
<trkpt lat="-27.274439" lon="151.290064">
  <ele>342.99</ele>
  <time>2026-09-01T19:58:00Z</time>
  <course>10.8</course>
  <speed>0.0</speed>
  <fix>3d</fix>
</trkpt>
<trkpt lat="-27.274439" lon="151.290064">
  <ele>343.1</ele>
  <time>2026-09-01T19:58:00Z</time>
  <course>270.0</course>
  <speed>0.0</speed>
  <fix>3d</fix>
</trkpt>
<trkpt lat="-27.274439" lon="151.290064">
  <ele>342.87</ele>
  <time>2026-09-01T19:58:00Z</time>
  <course>10.8</course>
  <speed>0.0</speed>
  <fix>3d</fix>
</trkpt>
<trkpt lat="-27.274439" lon="151.290064">
  <ele>343.1</ele>
  <time>2026-09-01T19:58:00Z</time>
  <course>270.0</course>
  <speed>0.0</speed>
  <fix>3d</fix>
</trkpt>
<trkpt lat="-27.274439" lon="151.290064">
  <ele>343.1</ele>
  <time>2026-09-01T19:58:00Z</time>
  <course>10.8</course>
  <speed>0.0</speed>
  <fix>3d</fix>
</trkpt>
<trkpt lat="-27.274439" lon="151.290064">
  <ele>343.1</ele>
  <time>2026-09-01T19:58:00Z</time>
  <course>270.0</course>
  <speed>0.0</speed>
  <fix>3d</fix>
</trkpt>
<trkpt lat="-27.274439" lon="151.290064">
  <ele>342.99</ele>
  <time>2026-09-01T19:58:00Z</time>
  <course>10.8</course>
  <speed>0.0</speed>
  <fix>3d</fix>
</trkpt>
<trkpt lat="-27.274439" lon="151.290064">
  <ele>343.1</ele>
  <time>2026-09-01T19:58:00Z</time>
  <course>270.0</course>
  <speed>0.0</speed>
  <fix>3d</fix>
</trkpt>
<trkpt lat="-27.274439" lon="151.290064">
  <ele>342.91</ele>
  <time>2026-09-01T19:58:00Z</time>
  <course>10.8</course>
  <speed>0.0</speed>
  <fix>3d</fix>
</trkpt>
<trkpt lat="-27.274439" lon="151.290064">
  <ele>343.1</ele>
  <time>2026-09-01T19:58:00Z</time>
  <course>270.0</course>
  <speed>0.0</speed>
  <fix>3d</fix>
</trkpt>
<trkpt lat="-27.274439" lon="151.290064">
  <ele>342.9</ele>
  <time>2026-09-01T19:58:00Z</time>
  <course>10.8</course>
  <speed>0.0</speed>
  <fix>3d</fix>
</trkpt>
<trkpt lat="-27.274439" lon="151.290064">
  <ele>343.1</ele>
  <time>2026-09-01T19:58:00Z</time>
  <course>270.0</course>
  <speed>0.0</speed>
  <fix>3d</fix>
</trkpt>
<trkpt lat="-27.274439" lon="151.290064">
  <ele>342.87</ele>
  <time>2026-09-01T19:58:00Z</time>
  <course>10.8</course>
  <speed>0.0</speed>
  <fix>3d</fix>
</trkpt>
<trkpt lat="-27.274439" lon="151.290064">
  <ele>343.1</ele>
  <time>2026-09-01T19:58:00Z</time>
  <course>270.0</course>
  <speed>0.0</speed>
  <fix>3d</fix>
</trkpt>
<trkpt lat="-27.274439" lon="151.290064">
  <ele>343.12</ele>
  <time>2026-09-01T19:58:00Z</time>
  <course>10.8</course>
  <speed>0.0</speed>
  <fix>3d</fix>
</trkpt>
<trkpt lat="-27.274439" lon="151.290064">
  <ele>343.1</ele>
  <time>2026-09-01T19:58:00Z</time>
  <course>270.0</course>
  <speed>0.0</speed>
  <fix>3d</fix>
</trkpt>
<trkpt lat="-27.274439" lon="151.290064">
  <ele>342.99</ele>
  <time>2026-09-01T19:58:00Z</time>
  <course>10.8</course>
  <speed>0.0</speed>
  <fix>3d</fix>
</trkpt>
<trkpt lat="-27.274439" lon="151.290064">
  <ele>343.1</ele>
  <time>2026-09-01T19:58:00Z</time>
  <course>270.0</course>
  <speed>0.0</speed>
  <fix>3d</fix>
</trkpt>
<trkpt lat="-27.274439" lon="151.290064">
  <ele>343.13</ele>
  <time>2026-09-01T19:58:00Z</time>
  <course>10.8</course>
  <speed>0.0</speed>
  <fix>3d</fix>
</trkpt>
<trkpt lat="-27.274439" lon="151.290064">
  <ele>343.1</ele>
  <time>2026-09-01T19:58:00Z</time>
  <course>270.0</course>
  <speed>0.0</speed>
  <fix>3d</fix>
</trkpt>
<trkpt lat="-27.274439" lon="151.290064">
  <ele>343.0</ele>
  <time>2026-09-01T19:58:00Z</time>
  <course>10.8</course>
  <speed>0.0</speed>
  <fix>3d</fix>
</trkpt>
<trkpt lat="-27.274439" lon="151.290064">
  <ele>343.1</ele>
  <time>2026-09-01T19:58:00Z</time>
  <course>270.0</course>
  <speed>0.0</speed>
  <fix>3d</fix>
</trkpt>
<trkpt lat="-27.274439" lon="151.290064">
  <ele>343.17</ele>
  <time>2026-09-01T19:58:00Z</time>
  <course>10.8</course>
  <speed>0.0</speed>
  <fix>3d</fix>
</trkpt>
<trkpt lat="-27.274439" lon="151.290064">
  <ele>343.1</ele>
  <time>2026-09-01T19:58:00Z</time>
  <course>270.0</course>
  <speed>0.0</speed>
  <fix>3d</fix>
</trkpt>
<trkpt lat="-27.274439" lon="151.290064">
  <ele>343.0</ele>
  <time>2026-09-01T19:58:00Z</time>
  <course>10.8</course>
  <speed>0.0</speed>
  <fix>3d</fix>
</trkpt>
<trkpt lat="-27.274439" lon="151.290064">
  <ele>343.1</ele>
  <time>2026-09-01T19:58:00Z</time>
  <course>270.0</course>
  <speed>0.0</speed>
  <fix>3d</fix>
</trkpt>
<trkpt lat="-27.274439" lon="151.290064">
  <ele>342.99</ele>
  <time>2026-09-01T19:58:00Z</time>
  <course>10.8</course>
  <speed>0.0</speed>
  <fix>3d</fix>
</trkpt>
<trkpt lat="-27.274439" lon="151.290064">
  <ele>343.1</ele>
  <time>2026-09-01T19:58:00Z</time>
  <course>270.0</course>
  <speed>0.0</speed>
  <fix>3d</fix>
</trkpt>
<trkpt lat="-27.274439" lon="151.290064">
  <ele>343.17</ele>
  <time>2026-09-01T19:58:00Z</time>
  <course>10.8</course>
  <speed>0.0</speed>
  <fix>3d</fix>
</trkpt>
<trkpt lat="-27.274439" lon="151.290064">
  <ele>343.1</ele>
  <time>2026-09-01T19:58:00Z</time>
  <course>270.0</course>
  <speed>0.0</speed>
  <fix>3d</fix>
</trkpt>
<trkpt lat="-27.274439" lon="151.290064">
  <ele>343.16</ele>
  <time>2026-09-01T19:58:00Z</time>
  <course>10.8</course>
  <speed>0.0</speed>
  <fix>3d</fix>
</trkpt>
<trkpt lat="-27.274439" lon="151.290064">
  <ele>343.1</ele>
  <time>2026-09-01T19:58:00Z</time>
  <course>270.0</course>
  <speed>0.0</speed>
  <fix>3d</fix>
</trkpt>
<trkpt lat="-27.274439" lon="151.290064">
  <ele>342.87</ele>
  <time>2026-09-01T19:58:00Z</time>
  <course>10.8</course>
  <speed>0.0</speed>
  <fix>3d</fix>
</trkpt>
<trkpt lat="-27.274439" lon="151.290064">
  <ele>343.1</ele>
  <time>2026-09-01T19:58:00Z</time>
  <course>270.0</course>
  <speed>0.0</speed>
  <fix>3d</fix>
</trkpt>
<trkpt lat="-27.274439" lon="151.290064">
  <ele>343.19</ele>
  <time>2026-09-01T19:58:00Z</time>
  <course>10.8</course>
  <speed>0.0</speed>
  <fix>3d</fix>
</trkpt>
<trkpt lat="-27.274439" lon="151.290064">
  <ele>343.1</ele>
  <time>2026-09-01T19:58:00Z</time>
  <course>270.0</course>
  <speed>0.0</speed>
  <fix>3d</fix>
</trkpt>
<trkpt lat="-27.274439" lon="151.290064">
  <ele>343.16</ele>
  <time>2026-09-01T19:58:00Z</time>
  <course>10.8</course>
  <speed>0.0</speed>
  <fix>3d</fix>
</trkpt>
<trkpt lat="-27.274439" lon="151.290064">
  <ele>343.1</ele>
  <time>2026-09-01T19:58:00Z</time>
  <course>270.0</course>
  <speed>0.0</speed>
  <fix>3d</fix>
</trkpt>
<trkpt lat="-27.274439" lon="151.290064">
  <ele>343.21</ele>
  <time>2026-09-01T19:58:00Z</time>
  <course>10.8</course>
  <speed>0.0</speed>
  <fix>3d</fix>
</trkpt>
<trkpt lat="-27.274439" lon="151.290064">
  <ele>343.1</ele>
  <time>2026-09-01T19:58:00Z</time>
  <course>270.0</course>
  <speed>0.0</speed>
  <fix>3d</fix>
</trkpt>
<trkpt lat="-27.274439" lon="151.290064">
  <ele>343.22</ele>
  <time>2026-09-01T19:58:00Z</time>
  <course>10.8</course>
  <speed>0.0</speed>
  <fix>3d</fix>
</trkpt>
<trkpt lat="-27.274439" lon="151.290064">
  <ele>343.1</ele>
  <time>2026-09-01T19:58:00Z</time>
  <course>270.0</course>
  <speed>0.0</speed>
  <fix>3d</fix>
</trkpt>
<trkpt lat="-27.274439" lon="151.290064">
  <ele>343.24</ele>
  <time>2026-09-01T19:58:00Z</time>
  <course>10.8</course>
  <speed>0.0</speed>
  <fix>3d</fix>
</trkpt>
<trkpt lat="-27.274439" lon="151.290064">
  <ele>343.1</ele>
  <time>2026-09-01T19:58:00Z</time>
  <course>270.0</course>
  <speed>0.0</speed>
  <fix>3d</fix>
</trkpt>
<trkpt lat="-27.274439" lon="151.290064">
  <ele>343.0</ele>
  <time>2026-09-01T19:58:00Z</time>
  <course>10.8</course>
  <speed>0.0</speed>
  <fix>3d</fix>
</trkpt>
<trkpt lat="-27.274439" lon="151.290064">
  <ele>343.1</ele>
  <time>2026-09-01T19:58:00Z</time>
  <course>270.0</course>
  <speed>0.0</speed>
  <fix>3d</fix>
</trkpt>
<trkpt lat="-27.274439" lon="151.290064">
  <ele>343.1</ele>
  <time>2026-09-01T19:58:00Z</time>
  <course>10.8</course>
  <speed>0.0</speed>
  <fix>3d</fix>
</trkpt>
<trkpt lat="-27.274439" lon="151.290064">
  <ele>343.1</ele>
  <time>2026-09-01T19:58:00Z</time>
  <course>270.0</course>
  <speed>0.0</speed>
  <fix>3d</fix>
</trkpt>
<trkpt lat="-27.274439" lon="151.290064">
  <ele>343.05</ele>
  <time>2026-09-01T19:58:00Z</time>
  <course>10.8</course>
  <speed>0.0</speed>
  <fix>3d</fix>
</trkpt>
<trkpt lat="-27.274439" lon="151.290064">
  <ele>343.1</ele>
  <time>2026-09-01T19:58:00Z</time>
  <course>270.0</course>
  <speed>0.0</speed>
  <fix>3d</fix>
</trkpt>
<trkpt lat="-27.274439" lon="151.290064">
  <ele>342.87</ele>
  <time>2026-09-01T19:58:00Z</time>
  <course>10.8</course>
  <speed>0.0</speed>
  <fix>3d</fix>
</trkpt>
<trkpt lat="-27.274439" lon="151.290064">
  <ele>343.1</ele>
  <time>2026-09-01T19:58:00Z</time>
  <course>270.0</course>
  <speed>0.0</speed>
  <fix>3d</fix>
</trkpt>
<trkpt lat="-27.274439" lon="151.290064">
  <ele>342.92</ele>
  <time>2026-09-01T19:58:00Z</time>
  <course>10.8</course>
  <speed>0.0</speed>
  <fix>3d</fix>
</trkpt>
<trkpt lat="-27.274439" lon="151.290064">
  <ele>343.1</ele>
  <time>2026-09-01T19:58:00Z</time>
  <course>270.0</course>
  <speed>0.0</speed>
  <fix>3d</fix>
</trkpt>
<trkpt lat="-27.274439" lon="151.290064">
  <ele>342.96</ele>
  <time>2026-09-01T19:58:00Z</time>
  <course>10.8</course>
  <speed>0.0</speed>
  <fix>3d</fix>
</trkpt>
<trkpt lat="-27.274439" lon="151.290064">
  <ele>343.1</ele>
  <time>2026-09-01T19:58:00Z</time>
  <course>270.0</course>
  <speed>0.0</speed>
  <fix>3d</fix>
</trkpt>
<trkpt lat="-27.274439" lon="151.290064">
  <ele>343.15</ele>
  <time>2026-09-01T19:58:00Z</time>
  <course>10.8</course>
  <speed>0.0</speed>
  <fix>3d</fix>
</trkpt>
<trkpt lat="-27.274439" lon="151.290064">
  <ele>343.1</ele>
  <time>2026-09-01T19:58:00Z</time>
  <course>270.0</course>
  <speed>0.0</speed>
  <fix>3d</fix>
</trkpt>
<trkpt lat="-27.274439" lon="151.290064">
  <ele>343.16</ele>
  <time>2026-09-01T19:58:00Z</time>
  <course>10.8</course>
  <speed>0.0</speed>
  <fix>3d</fix>
</trkpt>
<trkpt lat="-27.274439" lon="151.290064">
  <ele>343.1</ele>
  <time>2026-09-01T19:58:00Z</time>
  <course>270.0</course>
  <speed>0.0</speed>
  <fix>3d</fix>
</trkpt>
<trkpt lat="-27.274439" lon="151.290064">
  <ele>343.2</ele>
  <time>2026-09-01T19:58:00Z</time>
  <course>10.81</course>
  <speed>0.0</speed>
  <fix>3d</fix>
</trkpt>
<trkpt lat="-27.274439" lon="151.290064">
  <ele>343.1</ele>
  <time>2026-09-01T19:58:00Z</time>
  <course>270.0</course>
  <speed>0.0</speed>
  <fix>3d</fix>
</trkpt>
<trkpt lat="-27.274439" lon="151.290064">
  <ele>343.13</ele>
  <time>2026-09-01T19:58:00Z</time>
  <course>10.82</course>
  <speed>0.0</speed>
  <fix>3d</fix>
</trkpt>
<trkpt lat="-27.274439" lon="151.290064">
  <ele>343.1</ele>
  <time>2026-09-01T19:58:00Z</time>
  <course>270.0</course>
  <speed>0.0</speed>
  <fix>3d</fix>
</trkpt>
<trkpt lat="-27.274439" lon="151.290064">
  <ele>343.0</ele>
  <time>2026-09-01T19:58:00Z</time>
  <course>10.83</course>
  <speed>0.0</speed>
  <fix>3d</fix>
</trkpt>
<trkpt lat="-27.274439" lon="151.290064">
  <ele>343.1</ele>
  <time>2026-09-01T19:58:00Z</time>
  <course>270.0</course>
  <speed>0.0</speed>
  <fix>3d</fix>
</trkpt>
<trkpt lat="-27.274439" lon="151.290064">
  <ele>343.34</ele>
  <time>2026-09-01T19:58:00Z</time>
  <course>10.84</course>
  <speed>0.0</speed>
  <fix>3d</fix>
</trkpt>
<trkpt lat="-27.274439" lon="151.290064">
  <ele>343.1</ele>
  <time>2026-09-01T19:58:00Z</time>
  <course>270.0</course>
  <speed>0.0</speed>
  <fix>3d</fix>
</trkpt>
<trkpt lat="-27.274439" lon="151.290064">
  <ele>343.09</ele>
  <time>2026-09-01T19:58:00Z</time>
  <course>10.85</course>
  <speed>0.0</speed>
  <fix>3d</fix>
</trkpt>
<trkpt lat="-27.274439" lon="151.290064">
  <ele>343.1</ele>
  <time>2026-09-01T19:58:00Z</time>
  <course>270.0</course>
  <speed>0.0</speed>
  <fix>3d</fix>
</trkpt>
<trkpt lat="-27.274439" lon="151.290064">
  <ele>343.23</ele>
  <time>2026-09-01T19:58:00Z</time>
  <course>10.85</course>
  <speed>0.0</speed>
  <fix>3d</fix>
</trkpt>
<trkpt lat="-27.274439" lon="151.290064">
  <ele>343.1</ele>
  <time>2026-09-01T19:58:00Z</time>
  <course>270.0</course>
  <speed>0.0</speed>
  <fix>3d</fix>
</trkpt>
<trkpt lat="-27.274439" lon="151.290064">
  <ele>343.05</ele>
  <time>2026-09-01T19:58:00Z</time>
  <course>10.86</course>
  <speed>0.0</speed>
  <fix>3d</fix>
</trkpt>
<trkpt lat="-27.274439" lon="151.290064">
  <ele>343.1</ele>
  <time>2026-09-01T19:58:00Z</time>
  <course>270.0</course>
  <speed>0.0</speed>
  <fix>3d</fix>
</trkpt>
<trkpt lat="-27.274439" lon="151.290064">
  <ele>343.12</ele>
  <time>2026-09-01T19:58:00Z</time>
  <course>10.87</course>
  <speed>0.0</speed>
  <fix>3d</fix>
</trkpt>
<trkpt lat="-27.274439" lon="151.290064">
  <ele>343.1</ele>
  <time>2026-09-01T19:58:00Z</time>
  <course>270.0</course>
  <speed>0.0</speed>
  <fix>3d</fix>
</trkpt>
<trkpt lat="-27.274439" lon="151.290064">
  <ele>343.25</ele>
  <time>2026-09-01T19:58:00Z</time>
  <course>10.88</course>
  <speed>0.0</speed>
  <fix>3d</fix>
</trkpt>
<trkpt lat="-27.274439" lon="151.290064">
  <ele>343.1</ele>
  <time>2026-09-01T19:58:00Z</time>
  <course>270.0</course>
  <speed>0.0</speed>
  <fix>3d</fix>
</trkpt>
<trkpt lat="-27.274439" lon="151.290064">
  <ele>343.31</ele>
  <time>2026-09-01T19:58:00Z</time>
  <course>10.89</course>
  <speed>0.0</speed>
  <fix>3d</fix>
</trkpt>
<trkpt lat="-27.274439" lon="151.290064">
  <ele>343.1</ele>
  <time>2026-09-01T19:58:00Z</time>
  <course>270.0</course>
  <speed>0.0</speed>
  <fix>3d</fix>
</trkpt>
<trkpt lat="-27.274439" lon="151.290064">
  <ele>342.97</ele>
  <time>2026-09-01T19:58:00Z</time>
  <course>10.89</course>
  <speed>0.0</speed>
  <fix>3d</fix>
</trkpt>
<trkpt lat="-27.274439" lon="151.290064">
  <ele>343.1</ele>
  <time>2026-09-01T19:58:00Z</time>
  <course>270.0</course>
  <speed>0.0</speed>
  <fix>3d</fix>
</trkpt>
<trkpt lat="-27.274439" lon="151.290064">
  <ele>343.16</ele>
  <time>2026-09-01T19:58:00Z</time>
  <course>10.9</course>
  <speed>0.0</speed>
  <fix>3d</fix>
</trkpt>
<trkpt lat="-27.274439" lon="151.290064">
  <ele>343.1</ele>
  <time>2026-09-01T19:58:00Z</time>
  <course>270.0</course>
  <speed>0.0</speed>
  <fix>3d</fix>
</trkpt>
<trkpt lat="-27.274439" lon="151.290064">
  <ele>343.05</ele>
  <time>2026-09-01T19:58:00Z</time>
  <course>10.91</course>
  <speed>0.0</speed>
  <fix>3d</fix>
</trkpt>
<trkpt lat="-27.274439" lon="151.290064">
  <ele>343.1</ele>
  <time>2026-09-01T19:58:00Z</time>
  <course>270.0</course>
  <speed>0.0</speed>
  <fix>3d</fix>
</trkpt>
<trkpt lat="-27.274439" lon="151.290064">
  <ele>343.27</ele>
  <time>2026-09-01T19:58:00Z</time>
  <course>10.92</course>
  <speed>0.0</speed>
  <fix>3d</fix>
</trkpt>
<trkpt lat="-27.274439" lon="151.290064">
  <ele>343.1</ele>
  <time>2026-09-01T19:58:00Z</time>
  <course>270.0</course>
  <speed>0.0</speed>
  <fix>3d</fix>
</trkpt>
<trkpt lat="-27.274439" lon="151.290064">
  <ele>343.09</ele>
  <time>2026-09-01T19:58:00Z</time>
  <course>10.92</course>
  <speed>0.0</speed>
  <fix>3d</fix>
</trkpt>
<trkpt lat="-27.274439" lon="151.290064">
  <ele>343.1</ele>
  <time>2026-09-01T19:58:00Z</time>
  <course>270.0</course>
  <speed>0.0</speed>
  <fix>3d</fix>
</trkpt>
<trkpt lat="-27.274439" lon="151.290064">
  <ele>343.12</ele>
  <time>2026-09-01T19:58:00Z</time>
  <course>10.93</course>
  <speed>0.0</speed>
  <fix>3d</fix>
</trkpt>
<trkpt lat="-27.274439" lon="151.290064">
  <ele>343.1</ele>
  <time>2026-09-01T19:58:00Z</time>
  <course>270.0</course>
  <speed>0.0</speed>
  <fix>3d</fix>
</trkpt>
<trkpt lat="-27.274439" lon="151.290064">
  <ele>342.95</ele>
  <time>2026-09-01T19:58:00Z</time>
  <course>10.94</course>
  <speed>0.0</speed>
  <fix>3d</fix>
</trkpt>
<trkpt lat="-27.274439" lon="151.290064">
  <ele>343.1</ele>
  <time>2026-09-01T19:58:00Z</time>
  <course>270.0</course>
  <speed>0.0</speed>
  <fix>3d</fix>
</trkpt>
<trkpt lat="-27.274439" lon="151.290064">
  <ele>343.19</ele>
  <time>2026-09-01T19:58:00Z</time>
  <course>10.95</course>
  <speed>0.0</speed>
  <fix>3d</fix>
</trkpt>
<trkpt lat="-27.274439" lon="151.290064">
  <ele>343.1</ele>
  <time>2026-09-01T19:58:00Z</time>
  <course>270.0</course>
  <speed>0.0</speed>
  <fix>3d</fix>
</trkpt>
<trkpt lat="-27.274439" lon="151.290064">
  <ele>343.02</ele>
  <time>2026-09-01T19:58:00Z</time>
  <course>10.95</course>
  <speed>0.0</speed>
  <fix>3d</fix>
</trkpt>
<trkpt lat="-27.274439" lon="151.290064">
  <ele>343.1</ele>
  <time>2026-09-01T19:58:00Z</time>
  <course>270.0</course>
  <speed>0.0</speed>
  <fix>3d</fix>
</trkpt>
<trkpt lat="-27.274439" lon="151.290064">
  <ele>343.25</ele>
  <time>2026-09-01T19:58:00Z</time>
  <course>10.96</course>
  <speed>0.0</speed>
  <fix>3d</fix>
</trkpt>
<trkpt lat="-27.274439" lon="151.290064">
  <ele>343.1</ele>
  <time>2026-09-01T19:58:00Z</time>
  <course>270.0</course>
  <speed>0.0</speed>
  <fix>3d</fix>
</trkpt>
<trkpt lat="-27.274439" lon="151.290064">
  <ele>342.94</ele>
  <time>2026-09-01T19:58:00Z</time>
  <course>10.97</course>
  <speed>0.0</speed>
  <fix>3d</fix>
</trkpt>
<trkpt lat="-27.274439" lon="151.290064">
  <ele>343.1</ele>
  <time>2026-09-01T19:58:00Z</time>
  <course>270.0</course>
  <speed>0.0</speed>
  <fix>3d</fix>
</trkpt>
<trkpt lat="-27.274439" lon="151.290064">
  <ele>343.12</ele>
  <time>2026-09-01T19:58:00Z</time>
  <course>10.97</course>
  <speed>0.0</speed>
  <fix>3d</fix>
</trkpt>
<trkpt lat="-27.274439" lon="151.290064">
  <ele>343.1</ele>
  <time>2026-09-01T19:58:00Z</time>
  <course>270.0</course>
  <speed>0.0</speed>
  <fix>3d</fix>
</trkpt>
<trkpt lat="-27.274439" lon="151.290064">
  <ele>343.01</ele>
  <time>2026-09-01T19:58:00Z</time>
  <course>10.98</course>
  <speed>0.0</speed>
  <fix>3d</fix>
</trkpt>
<trkpt lat="-27.274439" lon="151.290064">
  <ele>343.1</ele>
  <time>2026-09-01T19:58:00Z</time>
  <course>270.0</course>
  <speed>0.0</speed>
  <fix>3d</fix>
</trkpt>
<trkpt lat="-27.274439" lon="151.290064">
  <ele>343.13</ele>
  <time>2026-09-01T19:58:00Z</time>
  <course>10.98</course>
  <speed>0.0</speed>
  <fix>3d</fix>
</trkpt>
<trkpt lat="-27.274439" lon="151.290064">
  <ele>343.1</ele>
  <time>2026-09-01T19:58:00Z</time>
  <course>270.0</course>
  <speed>0.0</speed>
  <fix>3d</fix>
</trkpt>
<trkpt lat="-27.274439" lon="151.290064">
  <ele>343.18</ele>
  <time>2026-09-01T19:58:00Z</time>
  <course>10.99</course>
  <speed>0.0</speed>
  <fix>3d</fix>
</trkpt>
<trkpt lat="-27.274439" lon="151.290064">
  <ele>343.1</ele>
  <time>2026-09-01T19:58:00Z</time>
  <course>270.0</course>
  <speed>0.0</speed>
  <fix>3d</fix>
</trkpt>
<trkpt lat="-27.274439" lon="151.290064">
  <ele>342.97</ele>
  <time>2026-09-01T19:58:00Z</time>
  <course>11.0</course>
  <speed>0.0</speed>
  <fix>3d</fix>
</trkpt>
<trkpt lat="-27.274439" lon="151.290064">
  <ele>343.1</ele>
  <time>2026-09-01T19:58:00Z</time>
  <course>270.0</course>
  <speed>0.0</speed>
  <fix>3d</fix>
</trkpt>
<trkpt lat="-27.274439" lon="151.290064">
  <ele>343.14</ele>
  <time>2026-09-01T19:58:00Z</time>
  <course>11.0</course>
  <speed>0.0</speed>
  <fix>3d</fix>
</trkpt>
<trkpt lat="-27.274439" lon="151.290064">
  <ele>343.1</ele>
  <time>2026-09-01T19:58:00Z</time>
  <course>270.0</course>
  <speed>0.0</speed>
  <fix>3d</fix>
</trkpt>
<trkpt lat="-27.274439" lon="151.290064">
  <ele>342.96</ele>
  <time>2026-09-01T19:58:00Z</time>
  <course>11.01</course>
  <speed>0.0</speed>
  <fix>3d</fix>
</trkpt>
<trkpt lat="-27.274439" lon="151.290064">
  <ele>343.1</ele>
  <time>2026-09-01T19:58:00Z</time>
  <course>270.0</course>
  <speed>0.0</speed>
  <fix>3d</fix>
</trkpt>
<trkpt lat="-27.274439" lon="151.290064">
  <ele>343.3</ele>
  <time>2026-09-01T19:58:00Z</time>
  <course>11.01</course>
  <speed>0.0</speed>
  <fix>3d</fix>
</trkpt>
<trkpt lat="-27.274439" lon="151.290064">
  <ele>343.1</ele>
  <time>2026-09-01T19:58:00Z</time>
  <course>270.0</course>
  <speed>0.0</speed>
  <fix>3d</fix>
</trkpt>
<trkpt lat="-27.274439" lon="151.290064">
  <ele>343.22</ele>
  <time>2026-09-01T19:58:00Z</time>
  <course>11.02</course>
  <speed>0.0</speed>
  <fix>3d</fix>
</trkpt>
<trkpt lat="-27.274439" lon="151.290064">
  <ele>343.1</ele>
  <time>2026-09-01T19:58:00Z</time>
  <course>270.0</course>
  <speed>0.0</speed>
  <fix>3d</fix>
</trkpt>
<trkpt lat="-27.274439" lon="151.290064">
  <ele>343.08</ele>
  <time>2026-09-01T19:58:00Z</time>
  <course>11.02</course>
  <speed>0.0</speed>
  <fix>3d</fix>
</trkpt>
<trkpt lat="-27.274439" lon="151.290064">
  <ele>343.1</ele>
  <time>2026-09-01T19:58:00Z</time>
  <course>270.0</course>
  <speed>0.0</speed>
  <fix>3d</fix>
</trkpt>
<trkpt lat="-27.274439" lon="151.290064">
  <ele>343.23</ele>
  <time>2026-09-01T19:58:00Z</time>
  <course>11.03</course>
  <speed>0.0</speed>
  <fix>3d</fix>
</trkpt>
<trkpt lat="-27.274439" lon="151.290064">
  <ele>343.1</ele>
  <time>2026-09-01T19:58:00Z</time>
  <course>270.0</course>
  <speed>0.0</speed>
  <fix>3d</fix>
</trkpt>
<trkpt lat="-27.274439" lon="151.290064">
  <ele>343.33</ele>
  <time>2026-09-01T19:58:00Z</time>
  <course>11.04</course>
  <speed>0.0</speed>
  <fix>3d</fix>
</trkpt>
<trkpt lat="-27.274439" lon="151.290064">
  <ele>343.1</ele>
  <time>2026-09-01T19:58:00Z</time>
  <course>270.0</course>
  <speed>0.0</speed>
  <fix>3d</fix>
</trkpt>
<trkpt lat="-27.274439" lon="151.290064">
  <ele>343.05</ele>
  <time>2026-09-01T19:58:00Z</time>
  <course>11.04</course>
  <speed>0.0</speed>
  <fix>3d</fix>
</trkpt>
<trkpt lat="-27.274439" lon="151.290064">
  <ele>343.1</ele>
  <time>2026-09-01T19:58:00Z</time>
  <course>270.0</course>
  <speed>0.0</speed>
  <fix>3d</fix>
</trkpt>
<trkpt lat="-27.274439" lon="151.290064">
  <ele>343.16</ele>
  <time>2026-09-01T19:58:00Z</time>
  <course>11.05</course>
  <speed>0.0</speed>
  <fix>3d</fix>
</trkpt>
<trkpt lat="-27.274439" lon="151.290064">
  <ele>343.1</ele>
  <time>2026-09-01T19:58:00Z</time>
  <course>270.0</course>
  <speed>0.0</speed>
  <fix>3d</fix>
</trkpt>
<trkpt lat="-27.274439" lon="151.290064">
  <ele>343.16</ele>
  <time>2026-09-01T19:58:00Z</time>
  <course>11.05</course>
  <speed>0.0</speed>
  <fix>3d</fix>
</trkpt>
<trkpt lat="-27.274439" lon="151.290064">
  <ele>343.1</ele>
  <time>2026-09-01T19:58:00Z</time>
  <course>270.0</course>
  <speed>0.0</speed>
  <fix>3d</fix>
</trkpt>
<trkpt lat="-27.274439" lon="151.290064">
  <ele>343.08</ele>
  <time>2026-09-01T19:58:00Z</time>
  <course>11.06</course>
  <speed>0.0</speed>
  <fix>3d</fix>
</trkpt>
<trkpt lat="-27.274439" lon="151.290064">
  <ele>343.1</ele>
  <time>2026-09-01T19:58:00Z</time>
  <course>270.0</course>
  <speed>0.0</speed>
  <fix>3d</fix>
</trkpt>
<trkpt lat="-27.274439" lon="151.290064">
  <ele>343.17</ele>
  <time>2026-09-01T19:58:00Z</time>
  <course>11.06</course>
  <speed>0.0</speed>
  <fix>3d</fix>
</trkpt>
<trkpt lat="-27.274439" lon="151.290064">
  <ele>343.1</ele>
  <time>2026-09-01T19:58:00Z</time>
  <course>270.0</course>
  <speed>0.0</speed>
  <fix>3d</fix>
</trkpt>
<trkpt lat="-27.274439" lon="151.290064">
  <ele>343.22</ele>
  <time>2026-09-01T19:58:00Z</time>
  <course>11.07</course>
  <speed>0.0</speed>
  <fix>3d</fix>
</trkpt>
<trkpt lat="-27.274439" lon="151.290064">
  <ele>343.1</ele>
  <time>2026-09-01T19:58:00Z</time>
  <course>270.0</course>
  <speed>0.0</speed>
  <fix>3d</fix>
</trkpt>
<trkpt lat="-27.274439" lon="151.290064">
  <ele>343.01</ele>
  <time>2026-09-01T19:58:00Z</time>
  <course>11.07</course>
  <speed>0.0</speed>
  <fix>3d</fix>
</trkpt>
<trkpt lat="-27.274439" lon="151.290064">
  <ele>343.1</ele>
  <time>2026-09-01T19:58:00Z</time>
  <course>270.0</course>
  <speed>0.0</speed>
  <fix>3d</fix>
</trkpt>
<trkpt lat="-27.274439" lon="151.290064">
  <ele>343.26</ele>
  <time>2026-09-01T19:58:00Z</time>
  <course>11.08</course>
  <speed>0.0</speed>
  <fix>3d</fix>
</trkpt>
<trkpt lat="-27.274439" lon="151.290064">
  <ele>343.1</ele>
  <time>2026-09-01T19:58:00Z</time>
  <course>270.0</course>
  <speed>0.0</speed>
  <fix>3d</fix>
</trkpt>
<trkpt lat="-27.274439" lon="151.290064">
  <ele>343.28</ele>
  <time>2026-09-01T19:58:00Z</time>
  <course>11.08</course>
  <speed>0.0</speed>
  <fix>3d</fix>
</trkpt>
<trkpt lat="-27.274439" lon="151.290064">
  <ele>343.1</ele>
  <time>2026-09-01T19:58:00Z</time>
  <course>270.0</course>
  <speed>0.0</speed>
  <fix>3d</fix>
</trkpt>
<trkpt lat="-27.274439" lon="151.290064">
  <ele>343.34</ele>
  <time>2026-09-01T19:58:00Z</time>
  <course>11.09</course>
  <speed>0.0</speed>
  <fix>3d</fix>
</trkpt>
<trkpt lat="-27.274439" lon="151.290064">
  <ele>343.1</ele>
  <time>2026-09-01T19:58:00Z</time>
  <course>270.0</course>
  <speed>0.0</speed>
  <fix>3d</fix>
</trkpt>
<trkpt lat="-27.274439" lon="151.290064">
  <ele>343.1</ele>
  <time>2026-09-01T19:58:00Z</time>
  <course>11.09</course>
  <speed>0.0</speed>
  <fix>3d</fix>
</trkpt>
<trkpt lat="-27.274439" lon="151.290064">
  <ele>343.1</ele>
  <time>2026-09-01T19:58:00Z</time>
  <course>270.0</course>
  <speed>0.0</speed>
  <fix>3d</fix>
</trkpt>
<trkpt lat="-27.274439" lon="151.290064">
  <ele>342.96</ele>
  <time>2026-09-01T19:58:00Z</time>
  <course>11.09</course>
  <speed>0.0</speed>
  <fix>3d</fix>
</trkpt>
<trkpt lat="-27.274439" lon="151.290064">
  <ele>343.1</ele>
  <time>2026-09-01T19:58:00Z</time>
  <course>270.0</course>
  <speed>0.0</speed>
  <fix>3d</fix>
</trkpt>
<trkpt lat="-27.274439" lon="151.290064">
  <ele>343.03</ele>
  <time>2026-09-01T19:58:00Z</time>
  <course>11.1</course>
  <speed>0.0</speed>
  <fix>3d</fix>
</trkpt>
<trkpt lat="-27.274439" lon="151.290064">
  <ele>343.1</ele>
  <time>2026-09-01T19:58:00Z</time>
  <course>270.0</course>
  <speed>0.0</speed>
  <fix>3d</fix>
</trkpt>
<trkpt lat="-27.274439" lon="151.290064">
  <ele>343.23</ele>
  <time>2026-09-01T19:58:00Z</time>
  <course>11.1</course>
  <speed>0.0</speed>
  <fix>3d</fix>
</trkpt>
<trkpt lat="-27.274439" lon="151.290064">
  <ele>343.1</ele>
  <time>2026-09-01T19:58:00Z</time>
  <course>270.0</course>
  <speed>0.0</speed>
  <fix>3d</fix>
</trkpt>
<trkpt lat="-27.274439" lon="151.290064">
  <ele>343.14</ele>
  <time>2026-09-01T19:58:00Z</time>
  <course>11.11</course>
  <speed>0.0</speed>
  <fix>3d</fix>
</trkpt>
<trkpt lat="-27.274439" lon="151.290064">
  <ele>343.1</ele>
  <time>2026-09-01T19:58:00Z</time>
  <course>270.0</course>
  <speed>0.0</speed>
  <fix>3d</fix>
</trkpt>
<trkpt lat="-27.274439" lon="151.290064">
  <ele>343.13</ele>
  <time>2026-09-01T19:58:00Z</time>
  <course>11.11</course>
  <speed>0.0</speed>
  <fix>3d</fix>
</trkpt>
<trkpt lat="-27.274439" lon="151.290064">
  <ele>343.1</ele>
  <time>2026-09-01T19:58:00Z</time>
  <course>270.0</course>
  <speed>0.0</speed>
  <fix>3d</fix>
</trkpt>
<trkpt lat="-27.274439" lon="151.290064">
  <ele>343.03</ele>
  <time>2026-09-01T19:58:00Z</time>
  <course>11.12</course>
  <speed>0.0</speed>
  <fix>3d</fix>
</trkpt>
<trkpt lat="-27.274439" lon="151.290064">
  <ele>343.1</ele>
  <time>2026-09-01T19:58:00Z</time>
  <course>270.0</course>
  <speed>0.0</speed>
  <fix>3d</fix>
</trkpt>
<trkpt lat="-27.274439" lon="151.290064">
  <ele>343.15</ele>
  <time>2026-09-01T19:58:00Z</time>
  <course>11.12</course>
  <speed>0.0</speed>
  <fix>3d</fix>
</trkpt>
<trkpt lat="-27.274439" lon="151.290064">
  <ele>343.1</ele>
  <time>2026-09-01T19:58:00Z</time>
  <course>270.0</course>
  <speed>0.0</speed>
  <fix>3d</fix>
</trkpt>
<trkpt lat="-27.274439" lon="151.290064">
  <ele>343.14</ele>
  <time>2026-09-01T19:58:00Z</time>
  <course>11.13</course>
  <speed>0.0</speed>
  <fix>3d</fix>
</trkpt>
<trkpt lat="-27.274439" lon="151.290064">
  <ele>343.1</ele>
  <time>2026-09-01T19:58:00Z</time>
  <course>270.0</course>
  <speed>0.0</speed>
  <fix>3d</fix>
</trkpt>
<trkpt lat="-27.274439" lon="151.290064">
  <ele>343.17</ele>
  <time>2026-09-01T19:58:00Z</time>
  <course>11.13</course>
  <speed>0.0</speed>
  <fix>3d</fix>
</trkpt>
<trkpt lat="-27.274439" lon="151.290064">
  <ele>343.1</ele>
  <time>2026-09-01T19:58:00Z</time>
  <course>270.0</course>
  <speed>0.0</speed>
  <fix>3d</fix>
</trkpt>
<trkpt lat="-27.274439" lon="151.290064">
  <ele>342.95</ele>
  <time>2026-09-01T19:58:00Z</time>
  <course>11.13</course>
  <speed>0.0</speed>
  <fix>3d</fix>
</trkpt>
<trkpt lat="-27.274439" lon="151.290064">
  <ele>343.1</ele>
  <time>2026-09-01T19:58:00Z</time>
  <course>270.0</course>
  <speed>0.0</speed>
  <fix>3d</fix>
</trkpt>
<trkpt lat="-27.274439" lon="151.290064">
  <ele>343.06</ele>
  <time>2026-09-01T19:58:01Z</time>
  <course>11.14</course>
  <speed>0.0</speed>
  <fix>3d</fix>
</trkpt>
<trkpt lat="-27.274439" lon="151.290064">
  <ele>343.1</ele>
  <time>2026-09-01T19:58:01Z</time>
  <course>270.0</course>
  <speed>0.0</speed>
  <fix>3d</fix>
</trkpt>
<trkpt lat="-27.274439" lon="151.290064">
  <ele>343.11</ele>
  <time>2026-09-01T19:58:01Z</time>
  <course>11.14</course>
  <speed>0.0</speed>
  <fix>3d</fix>
</trkpt>
<trkpt lat="-27.274439" lon="151.290064">
  <ele>343.1</ele>
  <time>2026-09-01T19:58:01Z</time>
  <course>270.0</course>
  <speed>0.0</speed>
  <fix>3d</fix>
</trkpt>
<trkpt lat="-27.274439" lon="151.290064">
  <ele>343.3</ele>
  <time>2026-09-01T19:58:01Z</time>
  <course>11.15</course>
  <speed>0.0</speed>
  <fix>3d</fix>
</trkpt>
<trkpt lat="-27.274439" lon="151.290064">
  <ele>343.1</ele>
  <time>2026-09-01T19:58:01Z</time>
  <course>270.0</course>
  <speed>0.0</speed>
  <fix>3d</fix>
</trkpt>
<trkpt lat="-27.274439" lon="151.290064">
  <ele>343.03</ele>
  <time>2026-09-01T19:58:01Z</time>
  <course>11.15</course>
  <speed>0.0</speed>
  <fix>3d</fix>
</trkpt>
<trkpt lat="-27.274439" lon="151.290064">
  <ele>343.1</ele>
  <time>2026-09-01T19:58:01Z</time>
  <course>270.0</course>
  <speed>0.0</speed>
  <fix>3d</fix>
</trkpt>
<trkpt lat="-27.274439" lon="151.290064">
  <ele>343.13</ele>
  <time>2026-09-01T19:58:01Z</time>
  <course>11.15</course>
  <speed>0.0</speed>
  <fix>3d</fix>
</trkpt>
<trkpt lat="-27.274439" lon="151.290064">
  <ele>343.1</ele>
  <time>2026-09-01T19:58:01Z</time>
  <course>270.0</course>
  <speed>0.0</speed>
  <fix>3d</fix>
</trkpt>
<trkpt lat="-27.274439" lon="151.290064">
  <ele>343.02</ele>
  <time>2026-09-01T19:58:01Z</time>
  <course>11.16</course>
  <speed>0.0</speed>
  <fix>3d</fix>
</trkpt>
<trkpt lat="-27.274439" lon="151.290064">
  <ele>343.1</ele>
  <time>2026-09-01T19:58:01Z</time>
  <course>270.0</course>
  <speed>0.0</speed>
  <fix>3d</fix>
</trkpt>
<trkpt lat="-27.274439" lon="151.290064">
  <ele>343.17</ele>
  <time>2026-09-01T19:58:01Z</time>
  <course>11.16</course>
  <speed>0.0</speed>
  <fix>3d</fix>
</trkpt>
<trkpt lat="-27.274439" lon="151.290064">
  <ele>343.1</ele>
  <time>2026-09-01T19:58:01Z</time>
  <course>270.0</course>
  <speed>0.0</speed>
  <fix>3d</fix>
</trkpt>
<trkpt lat="-27.274439" lon="151.290064">
  <ele>343.26</ele>
  <time>2026-09-01T19:58:01Z</time>
  <course>11.17</course>
  <speed>0.0</speed>
  <fix>3d</fix>
</trkpt>
<trkpt lat="-27.274439" lon="151.290064">
  <ele>343.1</ele>
  <time>2026-09-01T19:58:01Z</time>
  <course>270.0</course>
  <speed>0.0</speed>
  <fix>3d</fix>
</trkpt>
<trkpt lat="-27.274439" lon="151.290064">
  <ele>343.29</ele>
  <time>2026-09-01T19:58:01Z</time>
  <course>11.17</course>
  <speed>0.0</speed>
  <fix>3d</fix>
</trkpt>
<trkpt lat="-27.274439" lon="151.290064">
  <ele>343.1</ele>
  <time>2026-09-01T19:58:01Z</time>
  <course>270.0</course>
  <speed>0.0</speed>
  <fix>3d</fix>
</trkpt>
<trkpt lat="-27.274439" lon="151.290064">
  <ele>343.13</ele>
  <time>2026-09-01T19:58:01Z</time>
  <course>11.17</course>
  <speed>0.0</speed>
  <fix>3d</fix>
</trkpt>
<trkpt lat="-27.274439" lon="151.290064">
  <ele>343.1</ele>
  <time>2026-09-01T19:58:01Z</time>
  <course>270.0</course>
  <speed>0.0</speed>
  <fix>3d</fix>
</trkpt>
<trkpt lat="-27.274439" lon="151.290064">
  <ele>343.1</ele>
  <time>2026-09-01T19:58:01Z</time>
  <course>11.18</course>
  <speed>0.0</speed>
  <fix>3d</fix>
</trkpt>
<trkpt lat="-27.274439" lon="151.290064">
  <ele>343.1</ele>
  <time>2026-09-01T19:58:01Z</time>
  <course>270.0</course>
  <speed>0.0</speed>
  <fix>3d</fix>
</trkpt>
<trkpt lat="-27.274439" lon="151.290064">
  <ele>343.2</ele>
  <time>2026-09-01T19:58:01Z</time>
  <course>11.18</course>
  <speed>0.0</speed>
  <fix>3d</fix>
</trkpt>
<trkpt lat="-27.274439" lon="151.290064">
  <ele>343.1</ele>
  <time>2026-09-01T19:58:01Z</time>
  <course>270.0</course>
  <speed>0.0</speed>
  <fix>3d</fix>
</trkpt>
<trkpt lat="-27.274439" lon="151.290064">
  <ele>343.09</ele>
  <time>2026-09-01T19:58:01Z</time>
  <course>11.18</course>
  <speed>0.0</speed>
  <fix>3d</fix>
</trkpt>
<trkpt lat="-27.274439" lon="151.290064">
  <ele>343.1</ele>
  <time>2026-09-01T19:58:01Z</time>
  <course>270.0</course>
  <speed>0.0</speed>
  <fix>3d</fix>
</trkpt>
<trkpt lat="-27.274439" lon="151.290064">
  <ele>343.11</ele>
  <time>2026-09-01T19:58:01Z</time>
  <course>11.19</course>
  <speed>0.0</speed>
  <fix>3d</fix>
</trkpt>
<trkpt lat="-27.274439" lon="151.290064">
  <ele>343.1</ele>
  <time>2026-09-01T19:58:01Z</time>
  <course>270.0</course>
  <speed>0.0</speed>
  <fix>3d</fix>
</trkpt>
<trkpt lat="-27.274439" lon="151.290064">
  <ele>343.21</ele>
  <time>2026-09-01T19:58:01Z</time>
  <course>11.19</course>
  <speed>0.0</speed>
  <fix>3d</fix>
</trkpt>
<trkpt lat="-27.274439" lon="151.290064">
  <ele>343.1</ele>
  <time>2026-09-01T19:58:01Z</time>
  <course>270.0</course>
  <speed>0.0</speed>
  <fix>3d</fix>
</trkpt>
<trkpt lat="-27.274439" lon="151.290064">
  <ele>343.22</ele>
  <time>2026-09-01T19:58:01Z</time>
  <course>11.19</course>
  <speed>0.0</speed>
  <fix>3d</fix>
</trkpt>
<trkpt lat="-27.274439" lon="151.290064">
  <ele>343.1</ele>
  <time>2026-09-01T19:58:01Z</time>
  <course>270.0</course>
  <speed>0.0</speed>
  <fix>3d</fix>
</trkpt>
<trkpt lat="-27.274439" lon="151.290064">
  <ele>342.98</ele>
  <time>2026-09-01T19:58:01Z</time>
  <course>11.2</course>
  <speed>0.0</speed>
  <fix>3d</fix>
</trkpt>
<trkpt lat="-27.274439" lon="151.290064">
  <ele>343.1</ele>
  <time>2026-09-01T19:58:01Z</time>
  <course>270.0</course>
  <speed>0.0</speed>
  <fix>3d</fix>
</trkpt>
<trkpt lat="-27.274439" lon="151.290064">
  <ele>343.15</ele>
  <time>2026-09-01T19:58:01Z</time>
  <course>11.2</course>
  <speed>0.0</speed>
  <fix>3d</fix>
</trkpt>
<trkpt lat="-27.274439" lon="151.290064">
  <ele>343.1</ele>
  <time>2026-09-01T19:58:01Z</time>
  <course>270.0</course>
  <speed>0.0</speed>
  <fix>3d</fix>
</trkpt>
<trkpt lat="-27.274439" lon="151.290064">
  <ele>343.28</ele>
  <time>2026-09-01T19:58:01Z</time>
  <course>11.2</course>
  <speed>0.0</speed>
  <fix>3d</fix>
</trkpt>
<trkpt lat="-27.274439" lon="151.290064">
  <ele>343.1</ele>
  <time>2026-09-01T19:58:01Z</time>
  <course>270.0</course>
  <speed>0.0</speed>
  <fix>3d</fix>
</trkpt>
<trkpt lat="-27.274439" lon="151.290064">
  <ele>343.3</ele>
  <time>2026-09-01T19:58:01Z</time>
  <course>11.2</course>
  <speed>0.0</speed>
  <fix>3d</fix>
</trkpt>
<trkpt lat="-27.274439" lon="151.290064">
  <ele>343.1</ele>
  <time>2026-09-01T19:58:01Z</time>
  <course>270.0</course>
  <speed>0.0</speed>
  <fix>3d</fix>
</trkpt>
<trkpt lat="-27.274439" lon="151.290064">
  <ele>343.33</ele>
  <time>2026-09-01T19:58:01Z</time>
  <course>11.2</course>
  <speed>0.0</speed>
  <fix>3d</fix>
</trkpt>
<trkpt lat="-27.274439" lon="151.290064">
  <ele>343.1</ele>
  <time>2026-09-01T19:58:01Z</time>
  <course>270.0</course>
  <speed>0.0</speed>
  <fix>3d</fix>
</trkpt>
<trkpt lat="-27.274439" lon="151.290064">
  <ele>342.96</ele>
  <time>2026-09-01T19:58:01Z</time>
  <course>11.21</course>
  <speed>0.0</speed>
  <fix>3d</fix>
</trkpt>
<trkpt lat="-27.274439" lon="151.290064">
  <ele>343.1</ele>
  <time>2026-09-01T19:58:01Z</time>
  <course>270.0</course>
  <speed>0.0</speed>
  <fix>3d</fix>
</trkpt>
<trkpt lat="-27.274439" lon="151.290064">
  <ele>342.97</ele>
  <time>2026-09-01T19:58:01Z</time>
  <course>11.21</course>
  <speed>0.0</speed>
  <fix>3d</fix>
</trkpt>
<trkpt lat="-27.274439" lon="151.290064">
  <ele>343.1</ele>
  <time>2026-09-01T19:58:01Z</time>
  <course>270.0</course>
  <speed>0.0</speed>
  <fix>3d</fix>
</trkpt>
<trkpt lat="-27.274439" lon="151.290064">
  <ele>342.83</ele>
  <time>2026-09-01T19:58:01Z</time>
  <course>11.21</course>
  <speed>0.0</speed>
  <fix>3d</fix>
</trkpt>
<trkpt lat="-27.274439" lon="151.290064">
  <ele>343.1</ele>
  <time>2026-09-01T19:58:01Z</time>
  <course>270.0</course>
  <speed>0.0</speed>
  <fix>3d</fix>
</trkpt>
<trkpt lat="-27.274439" lon="151.290064">
  <ele>342.84</ele>
  <time>2026-09-01T19:58:01Z</time>
  <course>11.21</course>
  <speed>0.0</speed>
  <fix>3d</fix>
</trkpt>
<trkpt lat="-27.274439" lon="151.290064">
  <ele>343.1</ele>
  <time>2026-09-01T19:58:01Z</time>
  <course>270.0</course>
  <speed>0.0</speed>
  <fix>3d</fix>
</trkpt>
<trkpt lat="-27.274439" lon="151.290064">
  <ele>342.75</ele>
  <time>2026-09-01T19:58:01Z</time>
  <course>11.21</course>
  <speed>0.0</speed>
  <fix>3d</fix>
</trkpt>
<trkpt lat="-27.274439" lon="151.290064">
  <ele>343.1</ele>
  <time>2026-09-01T19:58:01Z</time>
  <course>270.0</course>
  <speed>0.0</speed>
  <fix>3d</fix>
</trkpt>
<trkpt lat="-27.274439" lon="151.290064">
  <ele>343.03</ele>
  <time>2026-09-01T19:58:01Z</time>
  <course>11.21</course>
  <speed>0.0</speed>
  <fix>3d</fix>
</trkpt>
<trkpt lat="-27.274439" lon="151.290064">
  <ele>343.1</ele>
  <time>2026-09-01T19:58:01Z</time>
  <course>270.0</course>
  <speed>0.0</speed>
  <fix>3d</fix>
</trkpt>
<trkpt lat="-27.274439" lon="151.290064">
  <ele>342.8</ele>
  <time>2026-09-01T19:58:01Z</time>
  <course>11.21</course>
  <speed>0.0</speed>
  <fix>3d</fix>
</trkpt>
<trkpt lat="-27.274439" lon="151.290064">
  <ele>343.1</ele>
  <time>2026-09-01T19:58:01Z</time>
  <course>270.0</course>
  <speed>0.0</speed>
  <fix>3d</fix>
</trkpt>
<trkpt lat="-27.274439" lon="151.290064">
  <ele>343.05</ele>
  <time>2026-09-01T19:58:01Z</time>
  <course>11.21</course>
  <speed>0.0</speed>
  <fix>3d</fix>
</trkpt>
<trkpt lat="-27.274439" lon="151.290064">
  <ele>343.1</ele>
  <time>2026-09-01T19:58:01Z</time>
  <course>270.0</course>
  <speed>0.0</speed>
  <fix>3d</fix>
</trkpt>
<trkpt lat="-27.274439" lon="151.290064">
  <ele>343.03</ele>
  <time>2026-09-01T19:58:01Z</time>
  <course>11.21</course>
  <speed>0.0</speed>
  <fix>3d</fix>
</trkpt>
<trkpt lat="-27.274439" lon="151.290064">
  <ele>343.1</ele>
  <time>2026-09-01T19:58:01Z</time>
  <course>270.0</course>
  <speed>0.0</speed>
  <fix>3d</fix>
</trkpt>
<trkpt lat="-27.274439" lon="151.290064">
  <ele>342.88</ele>
  <time>2026-09-01T19:58:01Z</time>
  <course>11.21</course>
  <speed>0.0</speed>
  <fix>3d</fix>
</trkpt>
<trkpt lat="-27.274439" lon="151.290064">
  <ele>343.1</ele>
  <time>2026-09-01T19:58:01Z</time>
  <course>270.0</course>
  <speed>0.0</speed>
  <fix>3d</fix>
</trkpt>
<trkpt lat="-27.274439" lon="151.290064">
  <ele>342.83</ele>
  <time>2026-09-01T19:58:01Z</time>
  <course>11.22</course>
  <speed>0.0</speed>
  <fix>3d</fix>
</trkpt>
<trkpt lat="-27.274439" lon="151.290064">
  <ele>343.1</ele>
  <time>2026-09-01T19:58:01Z</time>
  <course>270.0</course>
  <speed>0.0</speed>
  <fix>3d</fix>
</trkpt>
<trkpt lat="-27.274439" lon="151.290064">
  <ele>342.87</ele>
  <time>2026-09-01T19:58:01Z</time>
  <course>11.22</course>
  <speed>0.0</speed>
  <fix>3d</fix>
</trkpt>
<trkpt lat="-27.274439" lon="151.290064">
  <ele>343.1</ele>
  <time>2026-09-01T19:58:01Z</time>
  <course>270.0</course>
  <speed>0.0</speed>
  <fix>3d</fix>
</trkpt>
<trkpt lat="-27.274439" lon="151.290064">
  <ele>342.78</ele>
  <time>2026-09-01T19:58:01Z</time>
  <course>11.22</course>
  <speed>0.0</speed>
  <fix>3d</fix>
</trkpt>
<trkpt lat="-27.274439" lon="151.290064">
  <ele>343.1</ele>
  <time>2026-09-01T19:58:01Z</time>
  <course>270.0</course>
  <speed>0.0</speed>
  <fix>3d</fix>
</trkpt>
<trkpt lat="-27.274439" lon="151.290064">
  <ele>342.8</ele>
  <time>2026-09-01T19:58:01Z</time>
  <course>11.22</course>
  <speed>0.0</speed>
  <fix>3d</fix>
</trkpt>
<trkpt lat="-27.274439" lon="151.290064">
  <ele>343.1</ele>
  <time>2026-09-01T19:58:01Z</time>
  <course>270.0</course>
  <speed>0.0</speed>
  <fix>3d</fix>
</trkpt>
<trkpt lat="-27.274439" lon="151.290064">
  <ele>342.9</ele>
  <time>2026-09-01T19:58:01Z</time>
  <course>11.22</course>
  <speed>0.0</speed>
  <fix>3d</fix>
</trkpt>
<trkpt lat="-27.274439" lon="151.290064">
  <ele>343.1</ele>
  <time>2026-09-01T19:58:01Z</time>
  <course>270.0</course>
  <speed>0.0</speed>
  <fix>3d</fix>
</trkpt>
<trkpt lat="-27.274439" lon="151.290064">
  <ele>342.82</ele>
  <time>2026-09-01T19:58:01Z</time>
  <course>11.22</course>
  <speed>0.0</speed>
  <fix>3d</fix>
</trkpt>
<trkpt lat="-27.274439" lon="151.290064">
  <ele>343.1</ele>
  <time>2026-09-01T19:58:01Z</time>
  <course>270.0</course>
  <speed>0.0</speed>
  <fix>3d</fix>
</trkpt>
<trkpt lat="-27.274439" lon="151.290064">
  <ele>342.8</ele>
  <time>2026-09-01T19:58:01Z</time>
  <course>11.22</course>
  <speed>0.0</speed>
  <fix>3d</fix>
</trkpt>
<trkpt lat="-27.274439" lon="151.290064">
  <ele>343.1</ele>
  <time>2026-09-01T19:58:01Z</time>
  <course>270.0</course>
  <speed>0.0</speed>
  <fix>3d</fix>
</trkpt>
<trkpt lat="-27.274439" lon="151.290064">
  <ele>342.8</ele>
  <time>2026-09-01T19:58:01Z</time>
  <course>11.22</course>
  <speed>0.0</speed>
  <fix>3d</fix>
</trkpt>
<trkpt lat="-27.274439" lon="151.290064">
  <ele>343.1</ele>
  <time>2026-09-01T19:58:01Z</time>
  <course>270.0</course>
  <speed>0.0</speed>
  <fix>3d</fix>
</trkpt>
<trkpt lat="-27.274439" lon="151.290064">
  <ele>342.83</ele>
  <time>2026-09-01T19:58:01Z</time>
  <course>11.22</course>
  <speed>0.0</speed>
  <fix>3d</fix>
</trkpt>
<trkpt lat="-27.274439" lon="151.290064">
  <ele>343.1</ele>
  <time>2026-09-01T19:58:01Z</time>
  <course>270.0</course>
  <speed>0.0</speed>
  <fix>3d</fix>
</trkpt>
<trkpt lat="-27.274439" lon="151.290064">
  <ele>343.04</ele>
  <time>2026-09-01T19:58:01Z</time>
  <course>11.22</course>
  <speed>0.0</speed>
  <fix>3d</fix>
</trkpt>
<trkpt lat="-27.274439" lon="151.290064">
  <ele>343.1</ele>
  <time>2026-09-01T19:58:01Z</time>
  <course>270.0</course>
  <speed>0.0</speed>
  <fix>3d</fix>
</trkpt>
<trkpt lat="-27.274439" lon="151.290064">
  <ele>342.99</ele>
  <time>2026-09-01T19:58:01Z</time>
  <course>11.22</course>
  <speed>0.0</speed>
  <fix>3d</fix>
</trkpt>
<trkpt lat="-27.274439" lon="151.290064">
  <ele>343.1</ele>
  <time>2026-09-01T19:58:01Z</time>
  <course>270.0</course>
  <speed>0.0</speed>
  <fix>3d</fix>
</trkpt>
<trkpt lat="-27.274439" lon="151.290064">
  <ele>342.99</ele>
  <time>2026-09-01T19:58:01Z</time>
  <course>11.22</course>
  <speed>0.0</speed>
  <fix>3d</fix>
</trkpt>
<trkpt lat="-27.274439" lon="151.290064">
  <ele>343.1</ele>
  <time>2026-09-01T19:58:01Z</time>
  <course>270.0</course>
  <speed>0.0</speed>
  <fix>3d</fix>
</trkpt>
<trkpt lat="-27.274439" lon="151.290064">
  <ele>342.95</ele>
  <time>2026-09-01T19:58:01Z</time>
  <course>11.23</course>
  <speed>0.0</speed>
  <fix>3d</fix>
</trkpt>
<trkpt lat="-27.274439" lon="151.290064">
  <ele>343.1</ele>
  <time>2026-09-01T19:58:01Z</time>
  <course>270.0</course>
  <speed>0.0</speed>
  <fix>3d</fix>
</trkpt>
<trkpt lat="-27.274439" lon="151.290064">
  <ele>343.0</ele>
  <time>2026-09-01T19:58:01Z</time>
  <course>11.23</course>
  <speed>0.0</speed>
  <fix>3d</fix>
</trkpt>
<trkpt lat="-27.274439" lon="151.290064">
  <ele>343.1</ele>
  <time>2026-09-01T19:58:01Z</time>
  <course>270.0</course>
  <speed>0.0</speed>
  <fix>3d</fix>
</trkpt>
<trkpt lat="-27.274439" lon="151.290064">
  <ele>343.01</ele>
  <time>2026-09-01T19:58:01Z</time>
  <course>11.23</course>
  <speed>0.0</speed>
  <fix>3d</fix>
</trkpt>
<trkpt lat="-27.274439" lon="151.290064">
  <ele>343.1</ele>
  <time>2026-09-01T19:58:01Z</time>
  <course>270.0</course>
  <speed>0.0</speed>
  <fix>3d</fix>
</trkpt>
<trkpt lat="-27.274439" lon="151.290064">
  <ele>342.8</ele>
  <time>2026-09-01T19:58:01Z</time>
  <course>11.23</course>
  <speed>0.0</speed>
  <fix>3d</fix>
</trkpt>
<trkpt lat="-27.274439" lon="151.290064">
  <ele>343.1</ele>
  <time>2026-09-01T19:58:01Z</time>
  <course>270.0</course>
  <speed>0.0</speed>
  <fix>3d</fix>
</trkpt>
<trkpt lat="-27.274439" lon="151.290064">
  <ele>342.93</ele>
  <time>2026-09-01T19:58:01Z</time>
  <course>11.23</course>
  <speed>0.0</speed>
  <fix>3d</fix>
</trkpt>
<trkpt lat="-27.274439" lon="151.290064">
  <ele>343.1</ele>
  <time>2026-09-01T19:58:01Z</time>
  <course>270.0</course>
  <speed>0.0</speed>
  <fix>3d</fix>
</trkpt>
<trkpt lat="-27.274439" lon="151.290064">
  <ele>342.7</ele>
  <time>2026-09-01T19:58:01Z</time>
  <course>11.23</course>
  <speed>0.0</speed>
  <fix>3d</fix>
</trkpt>
<trkpt lat="-27.274439" lon="151.290064">
  <ele>343.1</ele>
  <time>2026-09-01T19:58:01Z</time>
  <course>270.0</course>
  <speed>0.0</speed>
  <fix>3d</fix>
</trkpt>
<trkpt lat="-27.274439" lon="151.290064">
  <ele>342.98</ele>
  <time>2026-09-01T19:58:01Z</time>
  <course>11.23</course>
  <speed>0.0</speed>
  <fix>3d</fix>
</trkpt>
<trkpt lat="-27.274439" lon="151.290064">
  <ele>343.1</ele>
  <time>2026-09-01T19:58:01Z</time>
  <course>270.0</course>
  <speed>0.0</speed>
  <fix>3d</fix>
</trkpt>
<trkpt lat="-27.274439" lon="151.290064">
  <ele>342.89</ele>
  <time>2026-09-01T19:58:01Z</time>
  <course>11.23</course>
  <speed>0.0</speed>
  <fix>3d</fix>
</trkpt>
<trkpt lat="-27.274439" lon="151.290064">
  <ele>343.1</ele>
  <time>2026-09-01T19:58:01Z</time>
  <course>270.0</course>
  <speed>0.0</speed>
  <fix>3d</fix>
</trkpt>
<trkpt lat="-27.274439" lon="151.290064">
  <ele>342.96</ele>
  <time>2026-09-01T19:58:01Z</time>
  <course>11.23</course>
  <speed>0.0</speed>
  <fix>3d</fix>
</trkpt>
<trkpt lat="-27.274439" lon="151.290064">
  <ele>343.1</ele>
  <time>2026-09-01T19:58:01Z</time>
  <course>270.0</course>
  <speed>0.0</speed>
  <fix>3d</fix>
</trkpt>
<trkpt lat="-27.274439" lon="151.290064">
  <ele>342.7</ele>
  <time>2026-09-01T19:58:01Z</time>
  <course>11.23</course>
  <speed>0.0</speed>
  <fix>3d</fix>
</trkpt>
<trkpt lat="-27.274439" lon="151.290064">
  <ele>343.1</ele>
  <time>2026-09-01T19:58:01Z</time>
  <course>270.0</course>
  <speed>0.0</speed>
  <fix>3d</fix>
</trkpt>
<trkpt lat="-27.274439" lon="151.290064">
  <ele>342.96</ele>
  <time>2026-09-01T19:58:01Z</time>
  <course>11.23</course>
  <speed>0.0</speed>
  <fix>3d</fix>
</trkpt>
<trkpt lat="-27.274439" lon="151.290064">
  <ele>343.1</ele>
  <time>2026-09-01T19:58:01Z</time>
  <course>270.0</course>
  <speed>0.0</speed>
  <fix>3d</fix>
</trkpt>
<trkpt lat="-27.274439" lon="151.290064">
  <ele>343.0</ele>
  <time>2026-09-01T19:58:01Z</time>
  <course>11.24</course>
  <speed>0.0</speed>
  <fix>3d</fix>
</trkpt>
<trkpt lat="-27.274439" lon="151.290064">
  <ele>343.1</ele>
  <time>2026-09-01T19:58:01Z</time>
  <course>270.0</course>
  <speed>0.0</speed>
  <fix>3d</fix>
</trkpt>
<trkpt lat="-27.274439" lon="151.290064">
  <ele>342.98</ele>
  <time>2026-09-01T19:58:01Z</time>
  <course>11.24</course>
  <speed>0.0</speed>
  <fix>3d</fix>
</trkpt>
<trkpt lat="-27.274439" lon="151.290064">
  <ele>343.1</ele>
  <time>2026-09-01T19:58:01Z</time>
  <course>270.0</course>
  <speed>0.0</speed>
  <fix>3d</fix>
</trkpt>
<trkpt lat="-27.274439" lon="151.290064">
  <ele>343.08</ele>
  <time>2026-09-01T19:58:01Z</time>
  <course>11.24</course>
  <speed>0.0</speed>
  <fix>3d</fix>
</trkpt>
<trkpt lat="-27.274439" lon="151.290064">
  <ele>343.1</ele>
  <time>2026-09-01T19:58:01Z</time>
  <course>270.0</course>
  <speed>0.0</speed>
  <fix>3d</fix>
</trkpt>
<trkpt lat="-27.274439" lon="151.290064">
  <ele>342.82</ele>
  <time>2026-09-01T19:58:01Z</time>
  <course>11.24</course>
  <speed>0.0</speed>
  <fix>3d</fix>
</trkpt>
<trkpt lat="-27.274439" lon="151.290064">
  <ele>343.1</ele>
  <time>2026-09-01T19:58:01Z</time>
  <course>270.0</course>
  <speed>0.0</speed>
  <fix>3d</fix>
</trkpt>
<trkpt lat="-27.274439" lon="151.290064">
  <ele>342.78</ele>
  <time>2026-09-01T19:58:01Z</time>
  <course>11.24</course>
  <speed>0.0</speed>
  <fix>3d</fix>
</trkpt>
<trkpt lat="-27.274439" lon="151.290064">
  <ele>343.1</ele>
  <time>2026-09-01T19:58:01Z</time>
  <course>270.0</course>
  <speed>0.0</speed>
  <fix>3d</fix>
</trkpt>
<trkpt lat="-27.274439" lon="151.290064">
  <ele>342.98</ele>
  <time>2026-09-01T19:58:01Z</time>
  <course>11.24</course>
  <speed>0.0</speed>
  <fix>3d</fix>
</trkpt>
<trkpt lat="-27.274439" lon="151.290064">
  <ele>343.1</ele>
  <time>2026-09-01T19:58:01Z</time>
  <course>270.0</course>
  <speed>0.0</speed>
  <fix>3d</fix>
</trkpt>
<trkpt lat="-27.274439" lon="151.290064">
  <ele>342.9</ele>
  <time>2026-09-01T19:58:01Z</time>
  <course>11.24</course>
  <speed>0.0</speed>
  <fix>3d</fix>
</trkpt>
<trkpt lat="-27.274439" lon="151.290064">
  <ele>343.1</ele>
  <time>2026-09-01T19:58:01Z</time>
  <course>270.0</course>
  <speed>0.0</speed>
  <fix>3d</fix>
</trkpt>
<trkpt lat="-27.274439" lon="151.290064">
  <ele>343.0</ele>
  <time>2026-09-01T19:58:01Z</time>
  <course>11.24</course>
  <speed>0.0</speed>
  <fix>3d</fix>
</trkpt>
<trkpt lat="-27.274439" lon="151.290064">
  <ele>343.1</ele>
  <time>2026-09-01T19:58:01Z</time>
  <course>270.0</course>
  <speed>0.0</speed>
  <fix>3d</fix>
</trkpt>
<trkpt lat="-27.274439" lon="151.290064">
  <ele>342.9</ele>
  <time>2026-09-01T19:58:01Z</time>
  <course>11.24</course>
  <speed>0.0</speed>
  <fix>3d</fix>
</trkpt>
<trkpt lat="-27.274439" lon="151.290064">
  <ele>343.1</ele>
  <time>2026-09-01T19:58:01Z</time>
  <course>270.0</course>
  <speed>0.0</speed>
  <fix>3d</fix>
</trkpt>
<trkpt lat="-27.274439" lon="151.290064">
  <ele>342.91</ele>
  <time>2026-09-01T19:58:01Z</time>
  <course>11.24</course>
  <speed>0.0</speed>
  <fix>3d</fix>
</trkpt>
<trkpt lat="-27.274439" lon="151.290064">
  <ele>343.1</ele>
  <time>2026-09-01T19:58:01Z</time>
  <course>270.0</course>
  <speed>0.0</speed>
  <fix>3d</fix>
</trkpt>
<trkpt lat="-27.274439" lon="151.290064">
  <ele>342.83</ele>
  <time>2026-09-01T19:58:01Z</time>
  <course>11.24</course>
  <speed>0.0</speed>
  <fix>3d</fix>
</trkpt>
<trkpt lat="-27.274439" lon="151.290064">
  <ele>343.1</ele>
  <time>2026-09-01T19:58:01Z</time>
  <course>270.0</course>
  <speed>0.0</speed>
  <fix>3d</fix>
</trkpt>
<trkpt lat="-27.274439" lon="151.290064">
  <ele>342.74</ele>
  <time>2026-09-01T19:58:01Z</time>
  <course>11.24</course>
  <speed>0.0</speed>
  <fix>3d</fix>
</trkpt>
<trkpt lat="-27.274439" lon="151.290064">
  <ele>343.1</ele>
  <time>2026-09-01T19:58:01Z</time>
  <course>270.0</course>
  <speed>0.0</speed>
  <fix>3d</fix>
</trkpt>
<trkpt lat="-27.274439" lon="151.290064">
  <ele>342.89</ele>
  <time>2026-09-01T19:58:01Z</time>
  <course>11.24</course>
  <speed>0.0</speed>
  <fix>3d</fix>
</trkpt>
<trkpt lat="-27.274439" lon="151.290064">
  <ele>343.1</ele>
  <time>2026-09-01T19:58:01Z</time>
  <course>270.0</course>
  <speed>0.0</speed>
  <fix>3d</fix>
</trkpt>
<trkpt lat="-27.274439" lon="151.290064">
  <ele>342.87</ele>
  <time>2026-09-01T19:58:01Z</time>
  <course>11.24</course>
  <speed>0.0</speed>
  <fix>3d</fix>
</trkpt>
<trkpt lat="-27.274439" lon="151.290064">
  <ele>343.1</ele>
  <time>2026-09-01T19:58:01Z</time>
  <course>270.0</course>
  <speed>0.0</speed>
  <fix>3d</fix>
</trkpt>
<trkpt lat="-27.274439" lon="151.290064">
  <ele>342.92</ele>
  <time>2026-09-01T19:58:01Z</time>
  <course>11.25</course>
  <speed>0.0</speed>
  <fix>3d</fix>
</trkpt>
<trkpt lat="-27.274439" lon="151.290064">
  <ele>343.1</ele>
  <time>2026-09-01T19:58:01Z</time>
  <course>270.0</course>
  <speed>0.0</speed>
  <fix>3d</fix>
</trkpt>
<trkpt lat="-27.274439" lon="151.290064">
  <ele>343.01</ele>
  <time>2026-09-01T19:58:01Z</time>
  <course>11.25</course>
  <speed>0.0</speed>
  <fix>3d</fix>
</trkpt>
<trkpt lat="-27.274439" lon="151.290064">
  <ele>343.1</ele>
  <time>2026-09-01T19:58:01Z</time>
  <course>270.0</course>
  <speed>0.0</speed>
  <fix>3d</fix>
</trkpt>
<trkpt lat="-27.274439" lon="151.290064">
  <ele>342.9</ele>
  <time>2026-09-01T19:58:01Z</time>
  <course>11.24</course>
  <speed>0.0</speed>
  <fix>3d</fix>
</trkpt>
<trkpt lat="-27.274439" lon="151.290064">
  <ele>343.1</ele>
  <time>2026-09-01T19:58:01Z</time>
  <course>270.0</course>
  <speed>0.0</speed>
  <fix>3d</fix>
</trkpt>
<trkpt lat="-27.274439" lon="151.290064">
  <ele>342.71</ele>
  <time>2026-09-01T19:58:01Z</time>
  <course>11.24</course>
  <speed>0.0</speed>
  <fix>3d</fix>
</trkpt>
<trkpt lat="-27.274439" lon="151.290064">
  <ele>343.1</ele>
  <time>2026-09-01T19:58:01Z</time>
  <course>270.0</course>
  <speed>0.0</speed>
  <fix>3d</fix>
</trkpt>
<trkpt lat="-27.274439" lon="151.290064">
  <ele>343.05</ele>
  <time>2026-09-01T19:58:01Z</time>
  <course>11.24</course>
  <speed>0.0</speed>
  <fix>3d</fix>
</trkpt>
<trkpt lat="-27.274439" lon="151.290064">
  <ele>343.1</ele>
  <time>2026-09-01T19:58:01Z</time>
  <course>270.0</course>
  <speed>0.0</speed>
  <fix>3d</fix>
</trkpt>
<trkpt lat="-27.274439" lon="151.290064">
  <ele>343.0</ele>
  <time>2026-09-01T19:58:01Z</time>
  <course>11.24</course>
  <speed>0.0</speed>
  <fix>3d</fix>
</trkpt>
<trkpt lat="-27.274439" lon="151.290064">
  <ele>343.1</ele>
  <time>2026-09-01T19:58:01Z</time>
  <course>270.0</course>
  <speed>0.0</speed>
  <fix>3d</fix>
</trkpt>
<trkpt lat="-27.274439" lon="151.290064">
  <ele>342.8</ele>
  <time>2026-09-01T19:58:01Z</time>
  <course>11.23</course>
  <speed>0.0</speed>
  <fix>3d</fix>
</trkpt>
<trkpt lat="-27.274439" lon="151.290064">
  <ele>343.1</ele>
  <time>2026-09-01T19:58:01Z</time>
  <course>270.0</course>
  <speed>0.0</speed>
  <fix>3d</fix>
</trkpt>
<trkpt lat="-27.274439" lon="151.290064">
  <ele>342.85</ele>
  <time>2026-09-01T19:58:01Z</time>
  <course>11.23</course>
  <speed>0.0</speed>
  <fix>3d</fix>
</trkpt>
<trkpt lat="-27.274439" lon="151.290064">
  <ele>343.1</ele>
  <time>2026-09-01T19:58:01Z</time>
  <course>270.0</course>
  <speed>0.0</speed>
  <fix>3d</fix>
</trkpt>
<trkpt lat="-27.274439" lon="151.290064">
  <ele>342.96</ele>
  <time>2026-09-01T19:58:01Z</time>
  <course>11.23</course>
  <speed>0.0</speed>
  <fix>3d</fix>
</trkpt>
<trkpt lat="-27.274439" lon="151.290064">
  <ele>343.1</ele>
  <time>2026-09-01T19:58:01Z</time>
  <course>270.0</course>
  <speed>0.0</speed>
  <fix>3d</fix>
</trkpt>
<trkpt lat="-27.274439" lon="151.290064">
  <ele>342.82</ele>
  <time>2026-09-01T19:58:01Z</time>
  <course>11.23</course>
  <speed>0.0</speed>
  <fix>3d</fix>
</trkpt>
<trkpt lat="-27.274439" lon="151.290064">
  <ele>343.1</ele>
  <time>2026-09-01T19:58:01Z</time>
  <course>270.0</course>
  <speed>0.0</speed>
  <fix>3d</fix>
</trkpt>
<trkpt lat="-27.274439" lon="151.290064">
  <ele>342.75</ele>
  <time>2026-09-01T19:58:01Z</time>
  <course>11.23</course>
  <speed>0.0</speed>
  <fix>3d</fix>
</trkpt>
<trkpt lat="-27.274439" lon="151.290064">
  <ele>343.1</ele>
  <time>2026-09-01T19:58:01Z</time>
  <course>270.0</course>
  <speed>0.0</speed>
  <fix>3d</fix>
</trkpt>
<trkpt lat="-27.274439" lon="151.290064">
  <ele>343.08</ele>
  <time>2026-09-01T19:58:01Z</time>
  <course>11.22</course>
  <speed>0.0</speed>
  <fix>3d</fix>
</trkpt>
<trkpt lat="-27.274439" lon="151.290064">
  <ele>343.1</ele>
  <time>2026-09-01T19:58:01Z</time>
  <course>270.0</course>
  <speed>0.0</speed>
  <fix>3d</fix>
</trkpt>
<trkpt lat="-27.274439" lon="151.290064">
  <ele>343.03</ele>
  <time>2026-09-01T19:58:01Z</time>
  <course>11.22</course>
  <speed>0.0</speed>
  <fix>3d</fix>
</trkpt>
<trkpt lat="-27.274439" lon="151.290064">
  <ele>343.1</ele>
  <time>2026-09-01T19:58:01Z</time>
  <course>270.0</course>
  <speed>0.0</speed>
  <fix>3d</fix>
</trkpt>
<trkpt lat="-27.274439" lon="151.290064">
  <ele>342.94</ele>
  <time>2026-09-01T19:58:01Z</time>
  <course>11.22</course>
  <speed>0.0</speed>
  <fix>3d</fix>
</trkpt>
<trkpt lat="-27.274439" lon="151.290064">
  <ele>343.1</ele>
  <time>2026-09-01T19:58:01Z</time>
  <course>270.0</course>
  <speed>0.0</speed>
  <fix>3d</fix>
</trkpt>
<trkpt lat="-27.274439" lon="151.290064">
  <ele>342.93</ele>
  <time>2026-09-01T19:58:01Z</time>
  <course>11.22</course>
  <speed>0.0</speed>
  <fix>3d</fix>
</trkpt>
<trkpt lat="-27.274439" lon="151.290064">
  <ele>343.1</ele>
  <time>2026-09-01T19:58:01Z</time>
  <course>270.0</course>
  <speed>0.0</speed>
  <fix>3d</fix>
</trkpt>
<trkpt lat="-27.274439" lon="151.290064">
  <ele>343.08</ele>
  <time>2026-09-01T19:58:01Z</time>
  <course>11.22</course>
  <speed>0.0</speed>
  <fix>3d</fix>
</trkpt>
<trkpt lat="-27.274439" lon="151.290064">
  <ele>343.1</ele>
  <time>2026-09-01T19:58:01Z</time>
  <course>270.0</course>
  <speed>0.0</speed>
  <fix>3d</fix>
</trkpt>
<trkpt lat="-27.274439" lon="151.290064">
  <ele>342.85</ele>
  <time>2026-09-01T19:58:01Z</time>
  <course>11.21</course>
  <speed>0.0</speed>
  <fix>3d</fix>
</trkpt>
<trkpt lat="-27.274439" lon="151.290064">
  <ele>343.1</ele>
  <time>2026-09-01T19:58:01Z</time>
  <course>270.0</course>
  <speed>0.0</speed>
  <fix>3d</fix>
</trkpt>
<trkpt lat="-27.274439" lon="151.290064">
  <ele>342.86</ele>
  <time>2026-09-01T19:58:01Z</time>
  <course>11.21</course>
  <speed>0.0</speed>
  <fix>3d</fix>
</trkpt>
<trkpt lat="-27.274439" lon="151.290064">
  <ele>343.1</ele>
  <time>2026-09-01T19:58:01Z</time>
  <course>270.0</course>
  <speed>0.0</speed>
  <fix>3d</fix>
</trkpt>
<trkpt lat="-27.274439" lon="151.290064">
  <ele>342.83</ele>
  <time>2026-09-01T19:58:01Z</time>
  <course>11.21</course>
  <speed>0.0</speed>
  <fix>3d</fix>
</trkpt>
<trkpt lat="-27.274439" lon="151.290064">
  <ele>343.1</ele>
  <time>2026-09-01T19:58:01Z</time>
  <course>270.0</course>
  <speed>0.0</speed>
  <fix>3d</fix>
</trkpt>
<trkpt lat="-27.274439" lon="151.290064">
  <ele>343.14</ele>
  <time>2026-09-01T19:58:01Z</time>
  <course>11.21</course>
  <speed>0.0</speed>
  <fix>3d</fix>
</trkpt>
<trkpt lat="-27.274439" lon="151.290064">
  <ele>343.1</ele>
  <time>2026-09-01T19:58:01Z</time>
  <course>270.0</course>
  <speed>0.0</speed>
  <fix>3d</fix>
</trkpt>
<trkpt lat="-27.274439" lon="151.290064">
  <ele>343.03</ele>
  <time>2026-09-01T19:58:01Z</time>
  <course>11.21</course>
  <speed>0.0</speed>
  <fix>3d</fix>
</trkpt>
<trkpt lat="-27.274439" lon="151.290064">
  <ele>343.1</ele>
  <time>2026-09-01T19:58:01Z</time>
  <course>270.0</course>
  <speed>0.0</speed>
  <fix>3d</fix>
</trkpt>
<trkpt lat="-27.274439" lon="151.290064">
  <ele>342.82</ele>
  <time>2026-09-01T19:58:01Z</time>
  <course>11.2</course>
  <speed>0.0</speed>
  <fix>3d</fix>
</trkpt>
<trkpt lat="-27.274439" lon="151.290064">
  <ele>343.1</ele>
  <time>2026-09-01T19:58:01Z</time>
  <course>270.0</course>
  <speed>0.0</speed>
  <fix>3d</fix>
</trkpt>
<trkpt lat="-27.274439" lon="151.290064">
  <ele>342.93</ele>
  <time>2026-09-01T19:58:01Z</time>
  <course>11.2</course>
  <speed>0.0</speed>
  <fix>3d</fix>
</trkpt>
<trkpt lat="-27.274439" lon="151.290064">
  <ele>343.1</ele>
  <time>2026-09-01T19:58:01Z</time>
  <course>270.0</course>
  <speed>0.0</speed>
  <fix>3d</fix>
</trkpt>
<trkpt lat="-27.274439" lon="151.290064">
  <ele>342.82</ele>
  <time>2026-09-01T19:58:01Z</time>
  <course>11.2</course>
  <speed>0.0</speed>
  <fix>3d</fix>
</trkpt>
<trkpt lat="-27.274439" lon="151.290064">
  <ele>343.1</ele>
  <time>2026-09-01T19:58:01Z</time>
  <course>270.0</course>
  <speed>0.0</speed>
  <fix>3d</fix>
</trkpt>
<trkpt lat="-27.274439" lon="151.290064">
  <ele>342.83</ele>
  <time>2026-09-01T19:58:01Z</time>
  <course>11.2</course>
  <speed>0.0</speed>
  <fix>3d</fix>
</trkpt>
<trkpt lat="-27.274439" lon="151.290064">
  <ele>343.1</ele>
  <time>2026-09-01T19:58:01Z</time>
  <course>270.0</course>
  <speed>0.0</speed>
  <fix>3d</fix>
</trkpt>
<trkpt lat="-27.274439" lon="151.290064">
  <ele>342.9</ele>
  <time>2026-09-01T19:58:01Z</time>
  <course>11.2</course>
  <speed>0.0</speed>
  <fix>3d</fix>
</trkpt>
<trkpt lat="-27.274439" lon="151.290064">
  <ele>343.1</ele>
  <time>2026-09-01T19:58:01Z</time>
  <course>270.0</course>
  <speed>0.0</speed>
  <fix>3d</fix>
</trkpt>
<trkpt lat="-27.274439" lon="151.290064">
  <ele>342.83</ele>
  <time>2026-09-01T19:58:01Z</time>
  <course>11.2</course>
  <speed>0.0</speed>
  <fix>3d</fix>
</trkpt>
<trkpt lat="-27.274439" lon="151.290064">
  <ele>343.1</ele>
  <time>2026-09-01T19:58:01Z</time>
  <course>270.0</course>
  <speed>0.0</speed>
  <fix>3d</fix>
</trkpt>
<trkpt lat="-27.274439" lon="151.290064">
  <ele>343.04</ele>
  <time>2026-09-01T19:58:01Z</time>
  <course>11.19</course>
  <speed>0.0</speed>
  <fix>3d</fix>
</trkpt>
<trkpt lat="-27.274439" lon="151.290064">
  <ele>343.1</ele>
  <time>2026-09-01T19:58:01Z</time>
  <course>270.0</course>
  <speed>0.0</speed>
  <fix>3d</fix>
</trkpt>
<trkpt lat="-27.274439" lon="151.290064">
  <ele>342.98</ele>
  <time>2026-09-01T19:58:01Z</time>
  <course>11.19</course>
  <speed>0.0</speed>
  <fix>3d</fix>
</trkpt>
<trkpt lat="-27.274439" lon="151.290064">
  <ele>343.1</ele>
  <time>2026-09-01T19:58:01Z</time>
  <course>270.0</course>
  <speed>0.0</speed>
  <fix>3d</fix>
</trkpt>
<trkpt lat="-27.274439" lon="151.290064">
  <ele>342.99</ele>
  <time>2026-09-01T19:58:01Z</time>
  <course>11.19</course>
  <speed>0.0</speed>
  <fix>3d</fix>
</trkpt>
<trkpt lat="-27.274439" lon="151.290064">
  <ele>343.1</ele>
  <time>2026-09-01T19:58:01Z</time>
  <course>270.0</course>
  <speed>0.0</speed>
  <fix>3d</fix>
</trkpt>
<trkpt lat="-27.274439" lon="151.290064">
  <ele>342.98</ele>
  <time>2026-09-01T19:58:01Z</time>
  <course>11.19</course>
  <speed>0.0</speed>
  <fix>3d</fix>
</trkpt>
<trkpt lat="-27.274439" lon="151.290064">
  <ele>343.1</ele>
  <time>2026-09-01T19:58:01Z</time>
  <course>270.0</course>
  <speed>0.0</speed>
  <fix>3d</fix>
</trkpt>
<trkpt lat="-27.274439" lon="151.290064">
  <ele>342.9</ele>
  <time>2026-09-01T19:58:01Z</time>
  <course>11.19</course>
  <speed>0.0</speed>
  <fix>3d</fix>
</trkpt>
<trkpt lat="-27.274439" lon="151.290064">
  <ele>343.1</ele>
  <time>2026-09-01T19:58:01Z</time>
  <course>270.0</course>
  <speed>0.0</speed>
  <fix>3d</fix>
</trkpt>
<trkpt lat="-27.274439" lon="151.290064">
  <ele>343.03</ele>
  <time>2026-09-01T19:58:01Z</time>
  <course>11.19</course>
  <speed>0.0</speed>
  <fix>3d</fix>
</trkpt>
<trkpt lat="-27.274439" lon="151.290064">
  <ele>343.1</ele>
  <time>2026-09-01T19:58:01Z</time>
  <course>270.0</course>
  <speed>0.0</speed>
  <fix>3d</fix>
</trkpt>
<trkpt lat="-27.274439" lon="151.290064">
  <ele>343.11</ele>
  <time>2026-09-01T19:58:01Z</time>
  <course>11.18</course>
  <speed>0.0</speed>
  <fix>3d</fix>
</trkpt>
<trkpt lat="-27.274439" lon="151.290064">
  <ele>343.1</ele>
  <time>2026-09-01T19:58:01Z</time>
  <course>270.0</course>
  <speed>0.0</speed>
  <fix>3d</fix>
</trkpt>
<trkpt lat="-27.274439" lon="151.290064">
  <ele>342.98</ele>
  <time>2026-09-01T19:58:01Z</time>
  <course>11.18</course>
  <speed>0.0</speed>
  <fix>3d</fix>
</trkpt>
<trkpt lat="-27.274439" lon="151.290064">
  <ele>343.1</ele>
  <time>2026-09-01T19:58:01Z</time>
  <course>270.0</course>
  <speed>0.0</speed>
  <fix>3d</fix>
</trkpt>
<trkpt lat="-27.274439" lon="151.290064">
  <ele>343.06</ele>
  <time>2026-09-01T19:58:01Z</time>
  <course>11.18</course>
  <speed>0.0</speed>
  <fix>3d</fix>
</trkpt>
<trkpt lat="-27.274439" lon="151.290064">
  <ele>343.1</ele>
  <time>2026-09-01T19:58:01Z</time>
  <course>270.0</course>
  <speed>0.0</speed>
  <fix>3d</fix>
</trkpt>
<trkpt lat="-27.274439" lon="151.290064">
  <ele>342.9</ele>
  <time>2026-09-01T19:58:01Z</time>
  <course>11.18</course>
  <speed>0.0</speed>
  <fix>3d</fix>
</trkpt>
<trkpt lat="-27.274439" lon="151.290064">
  <ele>343.1</ele>
  <time>2026-09-01T19:58:01Z</time>
  <course>270.0</course>
  <speed>0.0</speed>
  <fix>3d</fix>
</trkpt>
<trkpt lat="-27.274439" lon="151.290064">
  <ele>342.79</ele>
  <time>2026-09-01T19:58:01Z</time>
  <course>11.18</course>
  <speed>0.0</speed>
  <fix>3d</fix>
</trkpt>
<trkpt lat="-27.274439" lon="151.290064">
  <ele>343.1</ele>
  <time>2026-09-01T19:58:01Z</time>
  <course>270.0</course>
  <speed>0.0</speed>
  <fix>3d</fix>
</trkpt>
<trkpt lat="-27.274439" lon="151.290064">
  <ele>343.08</ele>
  <time>2026-09-01T19:58:01Z</time>
  <course>11.18</course>
  <speed>0.0</speed>
  <fix>3d</fix>
</trkpt>
<trkpt lat="-27.274439" lon="151.290064">
  <ele>343.1</ele>
  <time>2026-09-01T19:58:01Z</time>
  <course>270.0</course>
  <speed>0.0</speed>
  <fix>3d</fix>
</trkpt>
<trkpt lat="-27.274439" lon="151.290064">
  <ele>342.99</ele>
  <time>2026-09-01T19:58:01Z</time>
  <course>11.17</course>
  <speed>0.0</speed>
  <fix>3d</fix>
</trkpt>
<trkpt lat="-27.274439" lon="151.290064">
  <ele>343.1</ele>
  <time>2026-09-01T19:58:01Z</time>
  <course>270.0</course>
  <speed>0.0</speed>
  <fix>3d</fix>
</trkpt>
<trkpt lat="-27.274439" lon="151.290064">
  <ele>342.95</ele>
  <time>2026-09-01T19:58:01Z</time>
  <course>11.17</course>
  <speed>0.0</speed>
  <fix>3d</fix>
</trkpt>
<trkpt lat="-27.274439" lon="151.290064">
  <ele>343.1</ele>
  <time>2026-09-01T19:58:01Z</time>
  <course>270.0</course>
  <speed>0.0</speed>
  <fix>3d</fix>
</trkpt>
<trkpt lat="-27.274439" lon="151.290064">
  <ele>342.8</ele>
  <time>2026-09-01T19:58:01Z</time>
  <course>11.17</course>
  <speed>0.0</speed>
  <fix>3d</fix>
</trkpt>
<trkpt lat="-27.274439" lon="151.290064">
  <ele>343.1</ele>
  <time>2026-09-01T19:58:01Z</time>
  <course>270.0</course>
  <speed>0.0</speed>
  <fix>3d</fix>
</trkpt>
<trkpt lat="-27.274439" lon="151.290064">
  <ele>343.01</ele>
  <time>2026-09-01T19:58:01Z</time>
  <course>11.17</course>
  <speed>0.0</speed>
  <fix>3d</fix>
</trkpt>
<trkpt lat="-27.274439" lon="151.290064">
  <ele>343.1</ele>
  <time>2026-09-01T19:58:01Z</time>
  <course>270.0</course>
  <speed>0.0</speed>
  <fix>3d</fix>
</trkpt>
<trkpt lat="-27.274439" lon="151.290064">
  <ele>342.78</ele>
  <time>2026-09-01T19:58:01Z</time>
  <course>11.17</course>
  <speed>0.0</speed>
  <fix>3d</fix>
</trkpt>
<trkpt lat="-27.274439" lon="151.290064">
  <ele>343.1</ele>
  <time>2026-09-01T19:58:01Z</time>
  <course>270.0</course>
  <speed>0.0</speed>
  <fix>3d</fix>
</trkpt>
<trkpt lat="-27.274439" lon="151.290064">
  <ele>342.81</ele>
  <time>2026-09-01T19:58:01Z</time>
  <course>11.17</course>
  <speed>0.0</speed>
  <fix>3d</fix>
</trkpt>
<trkpt lat="-27.274439" lon="151.290064">
  <ele>343.1</ele>
  <time>2026-09-01T19:58:01Z</time>
  <course>270.0</course>
  <speed>0.0</speed>
  <fix>3d</fix>
</trkpt>
<trkpt lat="-27.274439" lon="151.290064">
  <ele>342.85</ele>
  <time>2026-09-01T19:58:01Z</time>
  <course>11.17</course>
  <speed>0.0</speed>
  <fix>3d</fix>
</trkpt>
<trkpt lat="-27.274439" lon="151.290064">
  <ele>343.1</ele>
  <time>2026-09-01T19:58:01Z</time>
  <course>270.0</course>
  <speed>0.0</speed>
  <fix>3d</fix>
</trkpt>
<trkpt lat="-27.274439" lon="151.290064">
  <ele>342.78</ele>
  <time>2026-09-01T19:58:01Z</time>
  <course>11.17</course>
  <speed>0.0</speed>
  <fix>3d</fix>
</trkpt>
<trkpt lat="-27.274439" lon="151.290064">
  <ele>343.1</ele>
  <time>2026-09-01T19:58:01Z</time>
  <course>270.0</course>
  <speed>0.0</speed>
  <fix>3d</fix>
</trkpt>
<trkpt lat="-27.274439" lon="151.290064">
  <ele>342.79</ele>
  <time>2026-09-01T19:58:01Z</time>
  <course>11.16</course>
  <speed>0.0</speed>
  <fix>3d</fix>
</trkpt>
<trkpt lat="-27.274439" lon="151.290064">
  <ele>343.1</ele>
  <time>2026-09-01T19:58:01Z</time>
  <course>270.0</course>
  <speed>0.0</speed>
  <fix>3d</fix>
</trkpt>
<trkpt lat="-27.274439" lon="151.290064">
  <ele>342.9</ele>
  <time>2026-09-01T19:58:01Z</time>
  <course>11.16</course>
  <speed>0.0</speed>
  <fix>3d</fix>
</trkpt>
<trkpt lat="-27.274439" lon="151.290064">
  <ele>343.1</ele>
  <time>2026-09-01T19:58:01Z</time>
  <course>270.0</course>
  <speed>0.0</speed>
  <fix>3d</fix>
</trkpt>
<trkpt lat="-27.274439" lon="151.290064">
  <ele>342.98</ele>
  <time>2026-09-01T19:58:01Z</time>
  <course>11.16</course>
  <speed>0.0</speed>
  <fix>3d</fix>
</trkpt>
<trkpt lat="-27.274439" lon="151.290064">
  <ele>343.1</ele>
  <time>2026-09-01T19:58:01Z</time>
  <course>270.0</course>
  <speed>0.0</speed>
  <fix>3d</fix>
</trkpt>
<trkpt lat="-27.274439" lon="151.290064">
  <ele>342.77</ele>
  <time>2026-09-01T19:58:01Z</time>
  <course>11.16</course>
  <speed>0.0</speed>
  <fix>3d</fix>
</trkpt>
<trkpt lat="-27.274439" lon="151.290064">
  <ele>343.1</ele>
  <time>2026-09-01T19:58:01Z</time>
  <course>270.0</course>
  <speed>0.0</speed>
  <fix>3d</fix>
</trkpt>
<trkpt lat="-27.274439" lon="151.290064">
  <ele>342.95</ele>
  <time>2026-09-01T19:58:01Z</time>
  <course>11.16</course>
  <speed>0.0</speed>
  <fix>3d</fix>
</trkpt>
<trkpt lat="-27.274439" lon="151.290064">
  <ele>343.1</ele>
  <time>2026-09-01T19:58:01Z</time>
  <course>270.0</course>
  <speed>0.0</speed>
  <fix>3d</fix>
</trkpt>
<trkpt lat="-27.274439" lon="151.290064">
  <ele>343.04</ele>
  <time>2026-09-01T19:58:01Z</time>
  <course>11.16</course>
  <speed>0.0</speed>
  <fix>3d</fix>
</trkpt>
<trkpt lat="-27.274439" lon="151.290064">
  <ele>343.1</ele>
  <time>2026-09-01T19:58:01Z</time>
  <course>270.0</course>
  <speed>0.0</speed>
  <fix>3d</fix>
</trkpt>
<trkpt lat="-27.274439" lon="151.290064">
  <ele>342.83</ele>
  <time>2026-09-01T19:58:01Z</time>
  <course>11.16</course>
  <speed>0.0</speed>
  <fix>3d</fix>
</trkpt>
<trkpt lat="-27.274439" lon="151.290064">
  <ele>343.1</ele>
  <time>2026-09-01T19:58:01Z</time>
  <course>270.0</course>
  <speed>0.0</speed>
  <fix>3d</fix>
</trkpt>
<trkpt lat="-27.274439" lon="151.290064">
  <ele>342.87</ele>
  <time>2026-09-01T19:58:01Z</time>
  <course>11.15</course>
  <speed>0.0</speed>
  <fix>3d</fix>
</trkpt>
<trkpt lat="-27.274439" lon="151.290064">
  <ele>343.1</ele>
  <time>2026-09-01T19:58:01Z</time>
  <course>270.0</course>
  <speed>0.0</speed>
  <fix>3d</fix>
</trkpt>
<trkpt lat="-27.274439" lon="151.290064">
  <ele>342.76</ele>
  <time>2026-09-01T19:58:01Z</time>
  <course>11.15</course>
  <speed>0.0</speed>
  <fix>3d</fix>
</trkpt>
<trkpt lat="-27.274439" lon="151.290064">
  <ele>343.1</ele>
  <time>2026-09-01T19:58:01Z</time>
  <course>270.0</course>
  <speed>0.0</speed>
  <fix>3d</fix>
</trkpt>
<trkpt lat="-27.274439" lon="151.290064">
  <ele>343.01</ele>
  <time>2026-09-01T19:58:01Z</time>
  <course>11.14</course>
  <speed>0.0</speed>
  <fix>3d</fix>
</trkpt>
<trkpt lat="-27.274439" lon="151.290064">
  <ele>343.1</ele>
  <time>2026-09-01T19:58:01Z</time>
  <course>270.0</course>
  <speed>0.0</speed>
  <fix>3d</fix>
</trkpt>
<trkpt lat="-27.274439" lon="151.290064">
  <ele>343.08</ele>
  <time>2026-09-01T19:58:01Z</time>
  <course>11.14</course>
  <speed>0.0</speed>
  <fix>3d</fix>
</trkpt>
<trkpt lat="-27.274439" lon="151.290064">
  <ele>343.1</ele>
  <time>2026-09-01T19:58:01Z</time>
  <course>270.0</course>
  <speed>0.0</speed>
  <fix>3d</fix>
</trkpt>
<trkpt lat="-27.274439" lon="151.290064">
  <ele>342.82</ele>
  <time>2026-09-01T19:58:01Z</time>
  <course>11.14</course>
  <speed>0.0</speed>
  <fix>3d</fix>
</trkpt>
<trkpt lat="-27.274439" lon="151.290064">
  <ele>343.1</ele>
  <time>2026-09-01T19:58:01Z</time>
  <course>270.0</course>
  <speed>0.0</speed>
  <fix>3d</fix>
</trkpt>
<trkpt lat="-27.274439" lon="151.290064">
  <ele>343.12</ele>
  <time>2026-09-01T19:58:01Z</time>
  <course>11.13</course>
  <speed>0.0</speed>
  <fix>3d</fix>
</trkpt>
<trkpt lat="-27.274439" lon="151.290064">
  <ele>343.1</ele>
  <time>2026-09-01T19:58:01Z</time>
  <course>270.0</course>
  <speed>0.0</speed>
  <fix>3d</fix>
</trkpt>
<trkpt lat="-27.274439" lon="151.290064">
  <ele>342.85</ele>
  <time>2026-09-01T19:58:01Z</time>
  <course>11.13</course>
  <speed>0.0</speed>
  <fix>3d</fix>
</trkpt>
<trkpt lat="-27.274439" lon="151.290064">
  <ele>343.1</ele>
  <time>2026-09-01T19:58:01Z</time>
  <course>270.0</course>
  <speed>0.0</speed>
  <fix>3d</fix>
</trkpt>
<trkpt lat="-27.274439" lon="151.290064">
  <ele>343.01</ele>
  <time>2026-09-01T19:58:01Z</time>
  <course>11.12</course>
  <speed>0.0</speed>
  <fix>3d</fix>
</trkpt>
<trkpt lat="-27.274439" lon="151.290064">
  <ele>343.1</ele>
  <time>2026-09-01T19:58:01Z</time>
  <course>270.0</course>
  <speed>0.0</speed>
  <fix>3d</fix>
</trkpt>
<trkpt lat="-27.274439" lon="151.290064">
  <ele>343.01</ele>
  <time>2026-09-01T19:58:01Z</time>
  <course>11.12</course>
  <speed>0.0</speed>
  <fix>3d</fix>
</trkpt>
<trkpt lat="-27.274439" lon="151.290064">
  <ele>343.1</ele>
  <time>2026-09-01T19:58:01Z</time>
  <course>270.0</course>
  <speed>0.0</speed>
  <fix>3d</fix>
</trkpt>
<trkpt lat="-27.274439" lon="151.290064">
  <ele>342.82</ele>
  <time>2026-09-01T19:58:01Z</time>
  <course>11.12</course>
  <speed>0.0</speed>
  <fix>3d</fix>
</trkpt>
<trkpt lat="-27.274439" lon="151.290064">
  <ele>343.1</ele>
  <time>2026-09-01T19:58:01Z</time>
  <course>270.0</course>
  <speed>0.0</speed>
  <fix>3d</fix>
</trkpt>
<trkpt lat="-27.274439" lon="151.290064">
  <ele>343.05</ele>
  <time>2026-09-01T19:58:01Z</time>
  <course>11.11</course>
  <speed>0.0</speed>
  <fix>3d</fix>
</trkpt>
<trkpt lat="-27.274439" lon="151.290064">
  <ele>343.1</ele>
  <time>2026-09-01T19:58:01Z</time>
  <course>270.0</course>
  <speed>0.0</speed>
  <fix>3d</fix>
</trkpt>
<trkpt lat="-27.274439" lon="151.290064">
  <ele>342.9</ele>
  <time>2026-09-01T19:58:01Z</time>
  <course>11.11</course>
  <speed>0.0</speed>
  <fix>3d</fix>
</trkpt>
<trkpt lat="-27.274439" lon="151.290064">
  <ele>343.1</ele>
  <time>2026-09-01T19:58:01Z</time>
  <course>270.0</course>
  <speed>0.0</speed>
  <fix>3d</fix>
</trkpt>
<trkpt lat="-27.274439" lon="151.290064">
  <ele>342.98</ele>
  <time>2026-09-01T19:58:01Z</time>
  <course>11.11</course>
  <speed>0.0</speed>
  <fix>3d</fix>
</trkpt>
<trkpt lat="-27.274439" lon="151.290064">
  <ele>343.1</ele>
  <time>2026-09-01T19:58:01Z</time>
  <course>270.0</course>
  <speed>0.0</speed>
  <fix>3d</fix>
</trkpt>
<trkpt lat="-27.274439" lon="151.290064">
  <ele>342.84</ele>
  <time>2026-09-01T19:58:01Z</time>
  <course>11.1</course>
  <speed>0.0</speed>
  <fix>3d</fix>
</trkpt>
<trkpt lat="-27.274439" lon="151.290064">
  <ele>343.1</ele>
  <time>2026-09-01T19:58:01Z</time>
  <course>270.0</course>
  <speed>0.0</speed>
  <fix>3d</fix>
</trkpt>
<trkpt lat="-27.274439" lon="151.290064">
  <ele>343.0</ele>
  <time>2026-09-01T19:58:01Z</time>
  <course>11.1</course>
  <speed>0.0</speed>
  <fix>3d</fix>
</trkpt>
<trkpt lat="-27.274439" lon="151.290064">
  <ele>343.1</ele>
  <time>2026-09-01T19:58:01Z</time>
  <course>270.0</course>
  <speed>0.0</speed>
  <fix>3d</fix>
</trkpt>
<trkpt lat="-27.274439" lon="151.290064">
  <ele>343.0</ele>
  <time>2026-09-01T19:58:01Z</time>
  <course>11.1</course>
  <speed>0.0</speed>
  <fix>3d</fix>
</trkpt>
<trkpt lat="-27.274439" lon="151.290064">
  <ele>343.1</ele>
  <time>2026-09-01T19:58:01Z</time>
  <course>270.0</course>
  <speed>0.0</speed>
  <fix>3d</fix>
</trkpt>
<trkpt lat="-27.274439" lon="151.290064">
  <ele>342.78</ele>
  <time>2026-09-01T19:58:01Z</time>
  <course>11.09</course>
  <speed>0.0</speed>
  <fix>3d</fix>
</trkpt>
<trkpt lat="-27.274439" lon="151.290064">
  <ele>343.1</ele>
  <time>2026-09-01T19:58:01Z</time>
  <course>270.0</course>
  <speed>0.0</speed>
  <fix>3d</fix>
</trkpt>
<trkpt lat="-27.274439" lon="151.290064">
  <ele>343.06</ele>
  <time>2026-09-01T19:58:01Z</time>
  <course>11.09</course>
  <speed>0.0</speed>
  <fix>3d</fix>
</trkpt>
<trkpt lat="-27.274439" lon="151.290064">
  <ele>343.1</ele>
  <time>2026-09-01T19:58:01Z</time>
  <course>270.0</course>
  <speed>0.0</speed>
  <fix>3d</fix>
</trkpt>
<trkpt lat="-27.274439" lon="151.290064">
  <ele>343.03</ele>
  <time>2026-09-01T19:58:01Z</time>
  <course>11.09</course>
  <speed>0.0</speed>
  <fix>3d</fix>
</trkpt>
<trkpt lat="-27.274439" lon="151.290064">
  <ele>343.1</ele>
  <time>2026-09-01T19:58:01Z</time>
  <course>270.0</course>
  <speed>0.0</speed>
  <fix>3d</fix>
</trkpt>
<trkpt lat="-27.274439" lon="151.290064">
  <ele>343.15</ele>
  <time>2026-09-01T19:58:01Z</time>
  <course>11.08</course>
  <speed>0.0</speed>
  <fix>3d</fix>
</trkpt>
<trkpt lat="-27.274439" lon="151.290064">
  <ele>343.1</ele>
  <time>2026-09-01T19:58:01Z</time>
  <course>270.0</course>
  <speed>0.0</speed>
  <fix>3d</fix>
</trkpt>
<trkpt lat="-27.274439" lon="151.290064">
  <ele>342.95</ele>
  <time>2026-09-01T19:58:01Z</time>
  <course>11.08</course>
  <speed>0.0</speed>
  <fix>3d</fix>
</trkpt>
<trkpt lat="-27.274439" lon="151.290064">
  <ele>343.1</ele>
  <time>2026-09-01T19:58:01Z</time>
  <course>270.0</course>
  <speed>0.0</speed>
  <fix>3d</fix>
</trkpt>
<trkpt lat="-27.274439" lon="151.290064">
  <ele>343.03</ele>
  <time>2026-09-01T19:58:01Z</time>
  <course>11.08</course>
  <speed>0.0</speed>
  <fix>3d</fix>
</trkpt>
<trkpt lat="-27.274439" lon="151.290064">
  <ele>343.1</ele>
  <time>2026-09-01T19:58:01Z</time>
  <course>270.0</course>
  <speed>0.0</speed>
  <fix>3d</fix>
</trkpt>
<trkpt lat="-27.274439" lon="151.290064">
  <ele>343.12</ele>
  <time>2026-09-01T19:58:01Z</time>
  <course>11.07</course>
  <speed>0.0</speed>
  <fix>3d</fix>
</trkpt>
<trkpt lat="-27.274439" lon="151.290064">
  <ele>343.1</ele>
  <time>2026-09-01T19:58:01Z</time>
  <course>270.0</course>
  <speed>0.0</speed>
  <fix>3d</fix>
</trkpt>
<trkpt lat="-27.274439" lon="151.290064">
  <ele>343.16</ele>
  <time>2026-09-01T19:58:01Z</time>
  <course>11.07</course>
  <speed>0.0</speed>
  <fix>3d</fix>
</trkpt>
<trkpt lat="-27.274439" lon="151.290064">
  <ele>343.1</ele>
  <time>2026-09-01T19:58:01Z</time>
  <course>270.0</course>
  <speed>0.0</speed>
  <fix>3d</fix>
</trkpt>
<trkpt lat="-27.274439" lon="151.290064">
  <ele>342.97</ele>
  <time>2026-09-01T19:58:01Z</time>
  <course>11.07</course>
  <speed>0.0</speed>
  <fix>3d</fix>
</trkpt>
<trkpt lat="-27.274439" lon="151.290064">
  <ele>343.1</ele>
  <time>2026-09-01T19:58:01Z</time>
  <course>270.0</course>
  <speed>0.0</speed>
  <fix>3d</fix>
</trkpt>
<trkpt lat="-27.274439" lon="151.290064">
  <ele>343.14</ele>
  <time>2026-09-01T19:58:01Z</time>
  <course>11.06</course>
  <speed>0.0</speed>
  <fix>3d</fix>
</trkpt>
<trkpt lat="-27.274439" lon="151.290064">
  <ele>343.1</ele>
  <time>2026-09-01T19:58:01Z</time>
  <course>270.0</course>
  <speed>0.0</speed>
  <fix>3d</fix>
</trkpt>
<trkpt lat="-27.274439" lon="151.290064">
  <ele>342.86</ele>
  <time>2026-09-01T19:58:01Z</time>
  <course>11.06</course>
  <speed>0.0</speed>
  <fix>3d</fix>
</trkpt>
<trkpt lat="-27.274439" lon="151.290064">
  <ele>343.1</ele>
  <time>2026-09-01T19:58:01Z</time>
  <course>270.0</course>
  <speed>0.0</speed>
  <fix>3d</fix>
</trkpt>
<trkpt lat="-27.274439" lon="151.290064">
  <ele>342.92</ele>
  <time>2026-09-01T19:58:01Z</time>
  <course>11.06</course>
  <speed>0.0</speed>
  <fix>3d</fix>
</trkpt>
<trkpt lat="-27.274439" lon="151.290064">
  <ele>343.1</ele>
  <time>2026-09-01T19:58:01Z</time>
  <course>270.0</course>
  <speed>0.0</speed>
  <fix>3d</fix>
</trkpt>
<trkpt lat="-27.274439" lon="151.290064">
  <ele>343.12</ele>
  <time>2026-09-01T19:58:01Z</time>
  <course>11.05</course>
  <speed>0.0</speed>
  <fix>3d</fix>
</trkpt>
<trkpt lat="-27.274439" lon="151.290064">
  <ele>343.1</ele>
  <time>2026-09-01T19:58:01Z</time>
  <course>270.0</course>
  <speed>0.0</speed>
  <fix>3d</fix>
</trkpt>
<trkpt lat="-27.274439" lon="151.290064">
  <ele>343.03</ele>
  <time>2026-09-01T19:58:01Z</time>
  <course>11.05</course>
  <speed>0.0</speed>
  <fix>3d</fix>
</trkpt>
<trkpt lat="-27.274439" lon="151.290064">
  <ele>343.1</ele>
  <time>2026-09-01T19:58:01Z</time>
  <course>270.0</course>
  <speed>0.0</speed>
  <fix>3d</fix>
</trkpt>
<trkpt lat="-27.274439" lon="151.290064">
  <ele>343.07</ele>
  <time>2026-09-01T19:58:01Z</time>
  <course>11.05</course>
  <speed>0.0</speed>
  <fix>3d</fix>
</trkpt>
<trkpt lat="-27.274439" lon="151.290064">
  <ele>343.1</ele>
  <time>2026-09-01T19:58:01Z</time>
  <course>270.0</course>
  <speed>0.0</speed>
  <fix>3d</fix>
</trkpt>
<trkpt lat="-27.274439" lon="151.290064">
  <ele>343.03</ele>
  <time>2026-09-01T19:58:01Z</time>
  <course>11.05</course>
  <speed>0.0</speed>
  <fix>3d</fix>
</trkpt>
<trkpt lat="-27.274439" lon="151.290064">
  <ele>343.1</ele>
  <time>2026-09-01T19:58:01Z</time>
  <course>270.0</course>
  <speed>0.0</speed>
  <fix>3d</fix>
</trkpt>
<trkpt lat="-27.274439" lon="151.290064">
  <ele>342.88</ele>
  <time>2026-09-01T19:58:01Z</time>
  <course>11.04</course>
  <speed>0.0</speed>
  <fix>3d</fix>
</trkpt>
<trkpt lat="-27.274439" lon="151.290064">
  <ele>343.1</ele>
  <time>2026-09-01T19:58:01Z</time>
  <course>270.0</course>
  <speed>0.0</speed>
  <fix>3d</fix>
</trkpt>
<trkpt lat="-27.274439" lon="151.290064">
  <ele>343.0</ele>
  <time>2026-09-01T19:58:01Z</time>
  <course>11.04</course>
  <speed>0.0</speed>
  <fix>3d</fix>
</trkpt>
<trkpt lat="-27.274439" lon="151.290064">
  <ele>343.1</ele>
  <time>2026-09-01T19:58:01Z</time>
  <course>270.0</course>
  <speed>0.0</speed>
  <fix>3d</fix>
</trkpt>
<trkpt lat="-27.274439" lon="151.290064">
  <ele>343.1</ele>
  <time>2026-09-01T19:58:01Z</time>
  <course>11.04</course>
  <speed>0.0</speed>
  <fix>3d</fix>
</trkpt>
<trkpt lat="-27.274439" lon="151.290064">
  <ele>343.1</ele>
  <time>2026-09-01T19:58:01Z</time>
  <course>270.0</course>
  <speed>0.0</speed>
  <fix>3d</fix>
</trkpt>
<trkpt lat="-27.274439" lon="151.290064">
  <ele>343.04</ele>
  <time>2026-09-01T19:58:01Z</time>
  <course>11.04</course>
  <speed>0.0</speed>
  <fix>3d</fix>
</trkpt>
<trkpt lat="-27.274439" lon="151.290064">
  <ele>343.1</ele>
  <time>2026-09-01T19:58:01Z</time>
  <course>270.0</course>
  <speed>0.0</speed>
  <fix>3d</fix>
</trkpt>
<trkpt lat="-27.274439" lon="151.290064">
  <ele>343.22</ele>
  <time>2026-09-01T19:58:01Z</time>
  <course>11.03</course>
  <speed>0.0</speed>
  <fix>3d</fix>
</trkpt>
<trkpt lat="-27.274439" lon="151.290064">
  <ele>343.1</ele>
  <time>2026-09-01T19:58:01Z</time>
  <course>270.0</course>
  <speed>0.0</speed>
  <fix>3d</fix>
</trkpt>
<trkpt lat="-27.274439" lon="151.290064">
  <ele>343.05</ele>
  <time>2026-09-01T19:58:01Z</time>
  <course>11.03</course>
  <speed>0.0</speed>
  <fix>3d</fix>
</trkpt>
<trkpt lat="-27.274439" lon="151.290064">
  <ele>343.1</ele>
  <time>2026-09-01T19:58:01Z</time>
  <course>270.0</course>
  <speed>0.0</speed>
  <fix>3d</fix>
</trkpt>
<trkpt lat="-27.274439" lon="151.290064">
  <ele>343.07</ele>
  <time>2026-09-01T19:58:01Z</time>
  <course>11.03</course>
  <speed>0.0</speed>
  <fix>3d</fix>
</trkpt>
<trkpt lat="-27.274439" lon="151.290064">
  <ele>343.1</ele>
  <time>2026-09-01T19:58:01Z</time>
  <course>270.0</course>
  <speed>0.0</speed>
  <fix>3d</fix>
</trkpt>
<trkpt lat="-27.274439" lon="151.290064">
  <ele>343.08</ele>
  <time>2026-09-01T19:58:01Z</time>
  <course>11.03</course>
  <speed>0.0</speed>
  <fix>3d</fix>
</trkpt>
<trkpt lat="-27.274439" lon="151.290064">
  <ele>343.1</ele>
  <time>2026-09-01T19:58:01Z</time>
  <course>270.0</course>
  <speed>0.0</speed>
  <fix>3d</fix>
</trkpt>
<trkpt lat="-27.274439" lon="151.290064">
  <ele>342.89</ele>
  <time>2026-09-01T19:58:01Z</time>
  <course>11.02</course>
  <speed>0.0</speed>
  <fix>3d</fix>
</trkpt>
<trkpt lat="-27.274439" lon="151.290064">
  <ele>343.1</ele>
  <time>2026-09-01T19:58:01Z</time>
  <course>270.0</course>
  <speed>0.0</speed>
  <fix>3d</fix>
</trkpt>
<trkpt lat="-27.274439" lon="151.290064">
  <ele>342.99</ele>
  <time>2026-09-01T19:58:01Z</time>
  <course>11.02</course>
  <speed>0.0</speed>
  <fix>3d</fix>
</trkpt>
<trkpt lat="-27.274439" lon="151.290064">
  <ele>343.1</ele>
  <time>2026-09-01T19:58:01Z</time>
  <course>270.0</course>
  <speed>0.0</speed>
  <fix>3d</fix>
</trkpt>
<trkpt lat="-27.274439" lon="151.290064">
  <ele>342.89</ele>
  <time>2026-09-01T19:58:01Z</time>
  <course>11.02</course>
  <speed>0.0</speed>
  <fix>3d</fix>
</trkpt>
<trkpt lat="-27.274439" lon="151.290064">
  <ele>343.1</ele>
  <time>2026-09-01T19:58:01Z</time>
  <course>270.0</course>
  <speed>0.0</speed>
  <fix>3d</fix>
</trkpt>
<trkpt lat="-27.274439" lon="151.290064">
  <ele>343.19</ele>
  <time>2026-09-01T19:58:01Z</time>
  <course>11.02</course>
  <speed>0.0</speed>
  <fix>3d</fix>
</trkpt>
<trkpt lat="-27.274439" lon="151.290064">
  <ele>343.1</ele>
  <time>2026-09-01T19:58:01Z</time>
  <course>270.0</course>
  <speed>0.0</speed>
  <fix>3d</fix>
</trkpt>
<trkpt lat="-27.274439" lon="151.290064">
  <ele>343.02</ele>
  <time>2026-09-01T19:58:01Z</time>
  <course>11.01</course>
  <speed>0.0</speed>
  <fix>3d</fix>
</trkpt>
<trkpt lat="-27.274439" lon="151.290064">
  <ele>343.1</ele>
  <time>2026-09-01T19:58:01Z</time>
  <course>270.0</course>
  <speed>0.0</speed>
  <fix>3d</fix>
</trkpt>
<trkpt lat="-27.274439" lon="151.290064">
  <ele>343.2</ele>
  <time>2026-09-01T19:58:01Z</time>
  <course>11.01</course>
  <speed>0.0</speed>
  <fix>3d</fix>
</trkpt>
<trkpt lat="-27.274439" lon="151.290064">
  <ele>343.1</ele>
  <time>2026-09-01T19:58:01Z</time>
  <course>270.0</course>
  <speed>0.0</speed>
  <fix>3d</fix>
</trkpt>
<trkpt lat="-27.274439" lon="151.290064">
  <ele>343.22</ele>
  <time>2026-09-01T19:58:01Z</time>
  <course>11.01</course>
  <speed>0.0</speed>
  <fix>3d</fix>
</trkpt>
<trkpt lat="-27.274439" lon="151.290064">
  <ele>343.1</ele>
  <time>2026-09-01T19:58:01Z</time>
  <course>270.0</course>
  <speed>0.0</speed>
  <fix>3d</fix>
</trkpt>
<trkpt lat="-27.274439" lon="151.290064">
  <ele>343.04</ele>
  <time>2026-09-01T19:58:01Z</time>
  <course>11.01</course>
  <speed>0.0</speed>
  <fix>3d</fix>
</trkpt>
<trkpt lat="-27.274439" lon="151.290064">
  <ele>343.1</ele>
  <time>2026-09-01T19:58:01Z</time>
  <course>270.0</course>
  <speed>0.0</speed>
  <fix>3d</fix>
</trkpt>
<trkpt lat="-27.274439" lon="151.290064">
  <ele>343.14</ele>
  <time>2026-09-01T19:58:01Z</time>
  <course>11.0</course>
  <speed>0.0</speed>
  <fix>3d</fix>
</trkpt>
<trkpt lat="-27.274439" lon="151.290064">
  <ele>343.1</ele>
  <time>2026-09-01T19:58:01Z</time>
  <course>270.0</course>
  <speed>0.0</speed>
  <fix>3d</fix>
</trkpt>
<trkpt lat="-27.274439" lon="151.290064">
  <ele>342.98</ele>
  <time>2026-09-01T19:58:01Z</time>
  <course>11.0</course>
  <speed>0.0</speed>
  <fix>3d</fix>
</trkpt>
<trkpt lat="-27.274439" lon="151.290064">
  <ele>343.1</ele>
  <time>2026-09-01T19:58:01Z</time>
  <course>270.0</course>
  <speed>0.0</speed>
  <fix>3d</fix>
</trkpt>
<trkpt lat="-27.274439" lon="151.290064">
  <ele>342.95</ele>
  <time>2026-09-01T19:58:01Z</time>
  <course>11.0</course>
  <speed>0.0</speed>
  <fix>3d</fix>
</trkpt>
<trkpt lat="-27.274439" lon="151.290064">
  <ele>343.1</ele>
  <time>2026-09-01T19:58:01Z</time>
  <course>270.0</course>
  <speed>0.0</speed>
  <fix>3d</fix>
</trkpt>
<trkpt lat="-27.274439" lon="151.290064">
  <ele>343.13</ele>
  <time>2026-09-01T19:58:01Z</time>
  <course>11.0</course>
  <speed>0.0</speed>
  <fix>3d</fix>
</trkpt>
<trkpt lat="-27.274439" lon="151.290064">
  <ele>343.1</ele>
  <time>2026-09-01T19:58:01Z</time>
  <course>270.0</course>
  <speed>0.0</speed>
  <fix>3d</fix>
</trkpt>
<trkpt lat="-27.274439" lon="151.290064">
  <ele>342.97</ele>
  <time>2026-09-01T19:58:01Z</time>
  <course>10.99</course>
  <speed>0.0</speed>
  <fix>3d</fix>
</trkpt>
<trkpt lat="-27.274439" lon="151.290064">
  <ele>343.1</ele>
  <time>2026-09-01T19:58:01Z</time>
  <course>270.0</course>
  <speed>0.0</speed>
  <fix>3d</fix>
</trkpt>
<trkpt lat="-27.274439" lon="151.290064">
  <ele>342.98</ele>
  <time>2026-09-01T19:58:01Z</time>
  <course>10.99</course>
  <speed>0.0</speed>
  <fix>3d</fix>
</trkpt>
<trkpt lat="-27.274439" lon="151.290064">
  <ele>343.1</ele>
  <time>2026-09-01T19:58:01Z</time>
  <course>270.0</course>
  <speed>0.0</speed>
  <fix>3d</fix>
</trkpt>
<trkpt lat="-27.274439" lon="151.290064">
  <ele>343.1</ele>
  <time>2026-09-01T19:58:01Z</time>
  <course>10.99</course>
  <speed>0.0</speed>
  <fix>3d</fix>
</trkpt>
<trkpt lat="-27.274439" lon="151.290064">
  <ele>343.1</ele>
  <time>2026-09-01T19:58:01Z</time>
  <course>270.0</course>
  <speed>0.0</speed>
  <fix>3d</fix>
</trkpt>
<trkpt lat="-27.274439" lon="151.290064">
  <ele>342.83</ele>
  <time>2026-09-01T19:58:01Z</time>
  <course>10.98</course>
  <speed>0.0</speed>
  <fix>3d</fix>
</trkpt>
<trkpt lat="-27.274439" lon="151.290064">
  <ele>343.1</ele>
  <time>2026-09-01T19:58:01Z</time>
  <course>270.0</course>
  <speed>0.0</speed>
  <fix>3d</fix>
</trkpt>
<trkpt lat="-27.274439" lon="151.290064">
  <ele>342.9</ele>
  <time>2026-09-01T19:58:01Z</time>
  <course>10.98</course>
  <speed>0.0</speed>
  <fix>3d</fix>
</trkpt>
<trkpt lat="-27.274439" lon="151.290064">
  <ele>343.1</ele>
  <time>2026-09-01T19:58:01Z</time>
  <course>270.0</course>
  <speed>0.0</speed>
  <fix>3d</fix>
</trkpt>
<trkpt lat="-27.274439" lon="151.290064">
  <ele>342.92</ele>
  <time>2026-09-01T19:58:01Z</time>
  <course>10.97</course>
  <speed>0.0</speed>
  <fix>3d</fix>
</trkpt>
<trkpt lat="-27.274439" lon="151.290064">
  <ele>343.1</ele>
  <time>2026-09-01T19:58:01Z</time>
  <course>270.0</course>
  <speed>0.0</speed>
  <fix>3d</fix>
</trkpt>
<trkpt lat="-27.274439" lon="151.290064">
  <ele>342.88</ele>
  <time>2026-09-01T19:58:01Z</time>
  <course>10.97</course>
  <speed>0.0</speed>
  <fix>3d</fix>
</trkpt>
<trkpt lat="-27.274439" lon="151.290064">
  <ele>343.1</ele>
  <time>2026-09-01T19:58:01Z</time>
  <course>270.0</course>
  <speed>0.0</speed>
  <fix>3d</fix>
</trkpt>
<trkpt lat="-27.274439" lon="151.290064">
  <ele>342.89</ele>
  <time>2026-09-01T19:58:01Z</time>
  <course>10.96</course>
  <speed>0.0</speed>
  <fix>3d</fix>
</trkpt>
<trkpt lat="-27.274439" lon="151.290064">
  <ele>343.1</ele>
  <time>2026-09-01T19:58:01Z</time>
  <course>270.0</course>
  <speed>0.0</speed>
  <fix>3d</fix>
</trkpt>
<trkpt lat="-27.274439" lon="151.290064">
  <ele>343.05</ele>
  <time>2026-09-01T19:58:01Z</time>
  <course>10.96</course>
  <speed>0.0</speed>
  <fix>3d</fix>
</trkpt>
<trkpt lat="-27.274439" lon="151.290064">
  <ele>343.1</ele>
  <time>2026-09-01T19:58:01Z</time>
  <course>270.0</course>
  <speed>0.0</speed>
  <fix>3d</fix>
</trkpt>
<trkpt lat="-27.274439" lon="151.290064">
  <ele>343.06</ele>
  <time>2026-09-01T19:58:01Z</time>
  <course>10.96</course>
  <speed>0.0</speed>
  <fix>3d</fix>
</trkpt>
<trkpt lat="-27.274439" lon="151.290064">
  <ele>343.1</ele>
  <time>2026-09-01T19:58:01Z</time>
  <course>270.0</course>
  <speed>0.0</speed>
  <fix>3d</fix>
</trkpt>
<trkpt lat="-27.274439" lon="151.290064">
  <ele>343.18</ele>
  <time>2026-09-01T19:58:01Z</time>
  <course>10.95</course>
  <speed>0.0</speed>
  <fix>3d</fix>
</trkpt>
<trkpt lat="-27.274439" lon="151.290064">
  <ele>343.1</ele>
  <time>2026-09-01T19:58:01Z</time>
  <course>270.0</course>
  <speed>0.0</speed>
  <fix>3d</fix>
</trkpt>
<trkpt lat="-27.274439" lon="151.290064">
  <ele>342.98</ele>
  <time>2026-09-01T19:58:01Z</time>
  <course>10.95</course>
  <speed>0.0</speed>
  <fix>3d</fix>
</trkpt>
<trkpt lat="-27.274439" lon="151.290064">
  <ele>343.1</ele>
  <time>2026-09-01T19:58:01Z</time>
  <course>270.0</course>
  <speed>0.0</speed>
  <fix>3d</fix>
</trkpt>
<trkpt lat="-27.274439" lon="151.290064">
  <ele>343.05</ele>
  <time>2026-09-01T19:58:02Z</time>
  <course>10.94</course>
  <speed>0.0</speed>
  <fix>3d</fix>
</trkpt>
<trkpt lat="-27.274439" lon="151.290064">
  <ele>343.1</ele>
  <time>2026-09-01T19:58:02Z</time>
  <course>270.0</course>
  <speed>0.0</speed>
  <fix>3d</fix>
</trkpt>
<trkpt lat="-27.274439" lon="151.290064">
  <ele>343.02</ele>
  <time>2026-09-01T19:58:02Z</time>
  <course>10.94</course>
  <speed>0.0</speed>
  <fix>3d</fix>
</trkpt>
<trkpt lat="-27.274439" lon="151.290064">
  <ele>343.1</ele>
  <time>2026-09-01T19:58:02Z</time>
  <course>270.0</course>
  <speed>0.0</speed>
  <fix>3d</fix>
</trkpt>
<trkpt lat="-27.274439" lon="151.290064">
  <ele>343.12</ele>
  <time>2026-09-01T19:58:02Z</time>
  <course>10.94</course>
  <speed>0.0</speed>
  <fix>3d</fix>
</trkpt>
<trkpt lat="-27.274439" lon="151.290064">
  <ele>343.1</ele>
  <time>2026-09-01T19:58:02Z</time>
  <course>270.0</course>
  <speed>0.0</speed>
  <fix>3d</fix>
</trkpt>
<trkpt lat="-27.274439" lon="151.290064">
  <ele>343.0</ele>
  <time>2026-09-01T19:58:02Z</time>
  <course>10.93</course>
  <speed>0.0</speed>
  <fix>3d</fix>
</trkpt>
<trkpt lat="-27.274439" lon="151.290064">
  <ele>343.1</ele>
  <time>2026-09-01T19:58:02Z</time>
  <course>270.0</course>
  <speed>0.0</speed>
  <fix>3d</fix>
</trkpt>
<trkpt lat="-27.274439" lon="151.290064">
  <ele>342.9</ele>
  <time>2026-09-01T19:58:02Z</time>
  <course>10.93</course>
  <speed>0.0</speed>
  <fix>3d</fix>
</trkpt>
<trkpt lat="-27.274439" lon="151.290064">
  <ele>343.1</ele>
  <time>2026-09-01T19:58:02Z</time>
  <course>270.0</course>
  <speed>0.0</speed>
  <fix>3d</fix>
</trkpt>
<trkpt lat="-27.274439" lon="151.290064">
  <ele>342.85</ele>
  <time>2026-09-01T19:58:02Z</time>
  <course>10.93</course>
  <speed>0.0</speed>
  <fix>3d</fix>
</trkpt>
<trkpt lat="-27.274439" lon="151.290064">
  <ele>343.1</ele>
  <time>2026-09-01T19:58:02Z</time>
  <course>270.0</course>
  <speed>0.0</speed>
  <fix>3d</fix>
</trkpt>
<trkpt lat="-27.274439" lon="151.290064">
  <ele>343.1</ele>
  <time>2026-09-01T19:58:02Z</time>
  <course>10.92</course>
  <speed>0.0</speed>
  <fix>3d</fix>
</trkpt>
<trkpt lat="-27.274439" lon="151.290064">
  <ele>343.1</ele>
  <time>2026-09-01T19:58:02Z</time>
  <course>270.0</course>
  <speed>0.0</speed>
  <fix>3d</fix>
</trkpt>
<trkpt lat="-27.274439" lon="151.290064">
  <ele>342.96</ele>
  <time>2026-09-01T19:58:02Z</time>
  <course>10.92</course>
  <speed>0.0</speed>
  <fix>3d</fix>
</trkpt>
<trkpt lat="-27.274439" lon="151.290064">
  <ele>343.1</ele>
  <time>2026-09-01T19:58:02Z</time>
  <course>270.0</course>
  <speed>0.0</speed>
  <fix>3d</fix>
</trkpt>
<trkpt lat="-27.274439" lon="151.290064">
  <ele>343.02</ele>
  <time>2026-09-01T19:58:02Z</time>
  <course>10.92</course>
  <speed>0.0</speed>
  <fix>3d</fix>
</trkpt>
<trkpt lat="-27.274439" lon="151.290064">
  <ele>343.1</ele>
  <time>2026-09-01T19:58:02Z</time>
  <course>270.0</course>
  <speed>0.0</speed>
  <fix>3d</fix>
</trkpt>
<trkpt lat="-27.274439" lon="151.290064">
  <ele>342.99</ele>
  <time>2026-09-01T19:58:02Z</time>
  <course>10.91</course>
  <speed>0.0</speed>
  <fix>3d</fix>
</trkpt>
<trkpt lat="-27.274439" lon="151.290064">
  <ele>343.1</ele>
  <time>2026-09-01T19:58:02Z</time>
  <course>270.0</course>
  <speed>0.0</speed>
  <fix>3d</fix>
</trkpt>
<trkpt lat="-27.274439" lon="151.290064">
  <ele>343.2</ele>
  <time>2026-09-01T19:58:02Z</time>
  <course>10.91</course>
  <speed>0.0</speed>
  <fix>3d</fix>
</trkpt>
<trkpt lat="-27.274439" lon="151.290064">
  <ele>343.1</ele>
  <time>2026-09-01T19:58:02Z</time>
  <course>270.0</course>
  <speed>0.0</speed>
  <fix>3d</fix>
</trkpt>
<trkpt lat="-27.274439" lon="151.290064">
  <ele>343.09</ele>
  <time>2026-09-01T19:58:02Z</time>
  <course>10.91</course>
  <speed>0.0</speed>
  <fix>3d</fix>
</trkpt>
<trkpt lat="-27.274439" lon="151.290064">
  <ele>343.1</ele>
  <time>2026-09-01T19:58:02Z</time>
  <course>270.0</course>
  <speed>0.0</speed>
  <fix>3d</fix>
</trkpt>
<trkpt lat="-27.274439" lon="151.290064">
  <ele>343.12</ele>
  <time>2026-09-01T19:58:02Z</time>
  <course>10.9</course>
  <speed>0.0</speed>
  <fix>3d</fix>
</trkpt>
<trkpt lat="-27.274439" lon="151.290064">
  <ele>343.1</ele>
  <time>2026-09-01T19:58:02Z</time>
  <course>270.0</course>
  <speed>0.0</speed>
  <fix>3d</fix>
</trkpt>
<trkpt lat="-27.274439" lon="151.290064">
  <ele>343.19</ele>
  <time>2026-09-01T19:58:02Z</time>
  <course>10.9</course>
  <speed>0.0</speed>
  <fix>3d</fix>
</trkpt>
<trkpt lat="-27.274439" lon="151.290064">
  <ele>343.1</ele>
  <time>2026-09-01T19:58:02Z</time>
  <course>270.0</course>
  <speed>0.0</speed>
  <fix>3d</fix>
</trkpt>
<trkpt lat="-27.274439" lon="151.290064">
  <ele>343.14</ele>
  <time>2026-09-01T19:58:02Z</time>
  <course>10.9</course>
  <speed>0.0</speed>
  <fix>3d</fix>
</trkpt>
<trkpt lat="-27.274439" lon="151.290064">
  <ele>343.1</ele>
  <time>2026-09-01T19:58:02Z</time>
  <course>270.0</course>
  <speed>0.0</speed>
  <fix>3d</fix>
</trkpt>
<trkpt lat="-27.274439" lon="151.290064">
  <ele>342.91</ele>
  <time>2026-09-01T19:58:02Z</time>
  <course>10.89</course>
  <speed>0.0</speed>
  <fix>3d</fix>
</trkpt>
<trkpt lat="-27.274439" lon="151.290064">
  <ele>343.1</ele>
  <time>2026-09-01T19:58:02Z</time>
  <course>270.0</course>
  <speed>0.0</speed>
  <fix>3d</fix>
</trkpt>
<trkpt lat="-27.274439" lon="151.290064">
  <ele>342.99</ele>
  <time>2026-09-01T19:58:02Z</time>
  <course>10.89</course>
  <speed>0.0</speed>
  <fix>3d</fix>
</trkpt>
<trkpt lat="-27.274439" lon="151.290064">
  <ele>343.1</ele>
  <time>2026-09-01T19:58:02Z</time>
  <course>270.0</course>
  <speed>0.0</speed>
  <fix>3d</fix>
</trkpt>
<trkpt lat="-27.274439" lon="151.290064">
  <ele>342.97</ele>
  <time>2026-09-01T19:58:02Z</time>
  <course>10.89</course>
  <speed>0.0</speed>
  <fix>3d</fix>
</trkpt>
<trkpt lat="-27.274439" lon="151.290064">
  <ele>343.1</ele>
  <time>2026-09-01T19:58:02Z</time>
  <course>270.0</course>
  <speed>0.0</speed>
  <fix>3d</fix>
</trkpt>
<trkpt lat="-27.274439" lon="151.290064">
  <ele>342.85</ele>
  <time>2026-09-01T19:58:02Z</time>
  <course>10.88</course>
  <speed>0.0</speed>
  <fix>3d</fix>
</trkpt>
<trkpt lat="-27.274439" lon="151.290064">
  <ele>343.1</ele>
  <time>2026-09-01T19:58:02Z</time>
  <course>270.0</course>
  <speed>0.0</speed>
  <fix>3d</fix>
</trkpt>
<trkpt lat="-27.274439" lon="151.290064">
  <ele>342.87</ele>
  <time>2026-09-01T19:58:02Z</time>
  <course>10.88</course>
  <speed>0.0</speed>
  <fix>3d</fix>
</trkpt>
<trkpt lat="-27.274439" lon="151.290064">
  <ele>343.1</ele>
  <time>2026-09-01T19:58:02Z</time>
  <course>270.0</course>
  <speed>0.0</speed>
  <fix>3d</fix>
</trkpt>
<trkpt lat="-27.274439" lon="151.290064">
  <ele>343.13</ele>
  <time>2026-09-01T19:58:02Z</time>
  <course>10.88</course>
  <speed>0.0</speed>
  <fix>3d</fix>
</trkpt>
<trkpt lat="-27.274439" lon="151.290064">
  <ele>343.1</ele>
  <time>2026-09-01T19:58:02Z</time>
  <course>270.0</course>
  <speed>0.0</speed>
  <fix>3d</fix>
</trkpt>
<trkpt lat="-27.274439" lon="151.290064">
  <ele>343.08</ele>
  <time>2026-09-01T19:58:02Z</time>
  <course>10.88</course>
  <speed>0.0</speed>
  <fix>3d</fix>
</trkpt>
<trkpt lat="-27.274439" lon="151.290064">
  <ele>343.1</ele>
  <time>2026-09-01T19:58:02Z</time>
  <course>270.0</course>
  <speed>0.0</speed>
  <fix>3d</fix>
</trkpt>
<trkpt lat="-27.274439" lon="151.290064">
  <ele>342.88</ele>
  <time>2026-09-01T19:58:02Z</time>
  <course>10.87</course>
  <speed>0.0</speed>
  <fix>3d</fix>
</trkpt>
<trkpt lat="-27.274439" lon="151.290064">
  <ele>343.1</ele>
  <time>2026-09-01T19:58:02Z</time>
  <course>270.0</course>
  <speed>0.0</speed>
  <fix>3d</fix>
</trkpt>
<trkpt lat="-27.274439" lon="151.290064">
  <ele>342.83</ele>
  <time>2026-09-01T19:58:02Z</time>
  <course>10.87</course>
  <speed>0.0</speed>
  <fix>3d</fix>
</trkpt>
<trkpt lat="-27.274439" lon="151.290064">
  <ele>343.1</ele>
  <time>2026-09-01T19:58:02Z</time>
  <course>270.0</course>
  <speed>0.0</speed>
  <fix>3d</fix>
</trkpt>
<trkpt lat="-27.274439" lon="151.290064">
  <ele>343.0</ele>
  <time>2026-09-01T19:58:02Z</time>
  <course>10.87</course>
  <speed>0.0</speed>
  <fix>3d</fix>
</trkpt>
<trkpt lat="-27.274439" lon="151.290064">
  <ele>343.1</ele>
  <time>2026-09-01T19:58:02Z</time>
  <course>270.0</course>
  <speed>0.0</speed>
  <fix>3d</fix>
</trkpt>
<trkpt lat="-27.274439" lon="151.290064">
  <ele>342.82</ele>
  <time>2026-09-01T19:58:02Z</time>
  <course>10.86</course>
  <speed>0.0</speed>
  <fix>3d</fix>
</trkpt>
<trkpt lat="-27.274439" lon="151.290064">
  <ele>343.1</ele>
  <time>2026-09-01T19:58:02Z</time>
  <course>270.0</course>
  <speed>0.0</speed>
  <fix>3d</fix>
</trkpt>
<trkpt lat="-27.274439" lon="151.290064">
  <ele>342.88</ele>
  <time>2026-09-01T19:58:02Z</time>
  <course>10.86</course>
  <speed>0.0</speed>
  <fix>3d</fix>
</trkpt>
<trkpt lat="-27.274439" lon="151.290064">
  <ele>343.1</ele>
  <time>2026-09-01T19:58:02Z</time>
  <course>270.0</course>
  <speed>0.0</speed>
  <fix>3d</fix>
</trkpt>
<trkpt lat="-27.274439" lon="151.290064">
  <ele>342.86</ele>
  <time>2026-09-01T19:58:02Z</time>
  <course>10.86</course>
  <speed>0.0</speed>
  <fix>3d</fix>
</trkpt>
<trkpt lat="-27.274439" lon="151.290064">
  <ele>343.1</ele>
  <time>2026-09-01T19:58:02Z</time>
  <course>270.0</course>
  <speed>0.0</speed>
  <fix>3d</fix>
</trkpt>
<trkpt lat="-27.274439" lon="151.290064">
  <ele>343.15</ele>
  <time>2026-09-01T19:58:02Z</time>
  <course>10.86</course>
  <speed>0.0</speed>
  <fix>3d</fix>
</trkpt>
<trkpt lat="-27.274439" lon="151.290064">
  <ele>343.1</ele>
  <time>2026-09-01T19:58:02Z</time>
  <course>270.0</course>
  <speed>0.0</speed>
  <fix>3d</fix>
</trkpt>
<trkpt lat="-27.274439" lon="151.290064">
  <ele>342.9</ele>
  <time>2026-09-01T19:58:02Z</time>
  <course>10.85</course>
  <speed>0.0</speed>
  <fix>3d</fix>
</trkpt>
<trkpt lat="-27.274439" lon="151.290064">
  <ele>343.1</ele>
  <time>2026-09-01T19:58:02Z</time>
  <course>270.0</course>
  <speed>0.0</speed>
  <fix>3d</fix>
</trkpt>
<trkpt lat="-27.274439" lon="151.290064">
  <ele>342.84</ele>
  <time>2026-09-01T19:58:02Z</time>
  <course>10.85</course>
  <speed>0.0</speed>
  <fix>3d</fix>
</trkpt>
<trkpt lat="-27.274439" lon="151.290064">
  <ele>343.1</ele>
  <time>2026-09-01T19:58:02Z</time>
  <course>270.0</course>
  <speed>0.0</speed>
  <fix>3d</fix>
</trkpt>
<trkpt lat="-27.274439" lon="151.290064">
  <ele>342.85</ele>
  <time>2026-09-01T19:58:02Z</time>
  <course>10.85</course>
  <speed>0.0</speed>
  <fix>3d</fix>
</trkpt>
<trkpt lat="-27.274439" lon="151.290064">
  <ele>343.1</ele>
  <time>2026-09-01T19:58:02Z</time>
  <course>270.0</course>
  <speed>0.0</speed>
  <fix>3d</fix>
</trkpt>
<trkpt lat="-27.274439" lon="151.290064">
  <ele>342.89</ele>
  <time>2026-09-01T19:58:02Z</time>
  <course>10.85</course>
  <speed>0.0</speed>
  <fix>3d</fix>
</trkpt>
<trkpt lat="-27.274439" lon="151.290064">
  <ele>343.1</ele>
  <time>2026-09-01T19:58:02Z</time>
  <course>270.0</course>
  <speed>0.0</speed>
  <fix>3d</fix>
</trkpt>
<trkpt lat="-27.274439" lon="151.290064">
  <ele>343.01</ele>
  <time>2026-09-01T19:58:02Z</time>
  <course>10.84</course>
  <speed>0.0</speed>
  <fix>3d</fix>
</trkpt>
<trkpt lat="-27.274439" lon="151.290064">
  <ele>343.1</ele>
  <time>2026-09-01T19:58:02Z</time>
  <course>270.0</course>
  <speed>0.0</speed>
  <fix>3d</fix>
</trkpt>
<trkpt lat="-27.274439" lon="151.290064">
  <ele>342.97</ele>
  <time>2026-09-01T19:58:02Z</time>
  <course>10.84</course>
  <speed>0.0</speed>
  <fix>3d</fix>
</trkpt>
<trkpt lat="-27.274439" lon="151.290064">
  <ele>343.1</ele>
  <time>2026-09-01T19:58:02Z</time>
  <course>270.0</course>
  <speed>0.0</speed>
  <fix>3d</fix>
</trkpt>
<trkpt lat="-27.274439" lon="151.290064">
  <ele>343.12</ele>
  <time>2026-09-01T19:58:02Z</time>
  <course>10.84</course>
  <speed>0.0</speed>
  <fix>3d</fix>
</trkpt>
<trkpt lat="-27.274439" lon="151.290064">
  <ele>343.1</ele>
  <time>2026-09-01T19:58:02Z</time>
  <course>270.0</course>
  <speed>0.0</speed>
  <fix>3d</fix>
</trkpt>
<trkpt lat="-27.274439" lon="151.290064">
  <ele>343.0</ele>
  <time>2026-09-01T19:58:02Z</time>
  <course>10.69</course>
  <speed>0.0</speed>
  <fix>3d</fix>
</trkpt>
<trkpt lat="-27.274439" lon="151.290064">
  <ele>343.1</ele>
  <time>2026-09-01T19:58:02Z</time>
  <course>270.0</course>
  <speed>0.0</speed>
  <fix>3d</fix>
</trkpt>
<trkpt lat="-27.274439" lon="151.290064">
  <ele>343.0</ele>
  <time>2026-09-01T19:58:02Z</time>
  <course>10.69</course>
  <speed>0.0</speed>
  <fix>3d</fix>
</trkpt>
<trkpt lat="-27.274439" lon="151.290064">
  <ele>343.1</ele>
  <time>2026-09-01T19:58:02Z</time>
  <course>270.0</course>
  <speed>0.0</speed>
  <fix>3d</fix>
</trkpt>
<trkpt lat="-27.274439" lon="151.290064">
  <ele>343.0</ele>
  <time>2026-09-01T19:58:02Z</time>
  <course>10.69</course>
  <speed>0.0</speed>
  <fix>3d</fix>
</trkpt>
<trkpt lat="-27.274439" lon="151.290064">
  <ele>343.1</ele>
  <time>2026-09-01T19:58:02Z</time>
  <course>270.0</course>
  <speed>0.0</speed>
  <fix>3d</fix>
</trkpt>
<trkpt lat="-27.274439" lon="151.290064">
  <ele>342.99</ele>
  <time>2026-09-01T19:58:02Z</time>
  <course>10.69</course>
  <speed>0.0</speed>
  <fix>3d</fix>
</trkpt>
<trkpt lat="-27.274439" lon="151.290064">
  <ele>343.1</ele>
  <time>2026-09-01T19:58:02Z</time>
  <course>270.0</course>
  <speed>0.0</speed>
  <fix>3d</fix>
</trkpt>
<trkpt lat="-27.274439" lon="151.290064">
  <ele>342.99</ele>
  <time>2026-09-01T19:58:02Z</time>
  <course>10.69</course>
  <speed>0.0</speed>
  <fix>3d</fix>
</trkpt>
<trkpt lat="-27.274439" lon="151.290064">
  <ele>343.1</ele>
  <time>2026-09-01T19:58:02Z</time>
  <course>270.0</course>
  <speed>0.0</speed>
  <fix>3d</fix>
</trkpt>
<trkpt lat="-27.274439" lon="151.290064">
  <ele>342.99</ele>
  <time>2026-09-01T19:58:02Z</time>
  <course>10.69</course>
  <speed>0.0</speed>
  <fix>3d</fix>
</trkpt>
<trkpt lat="-27.274439" lon="151.290064">
  <ele>343.1</ele>
  <time>2026-09-01T19:58:02Z</time>
  <course>270.0</course>
  <speed>0.0</speed>
  <fix>3d</fix>
</trkpt>
<trkpt lat="-27.274439" lon="151.290064">
  <ele>342.98</ele>
  <time>2026-09-01T19:58:02Z</time>
  <course>10.69</course>
  <speed>0.0</speed>
  <fix>3d</fix>
</trkpt>
<trkpt lat="-27.274439" lon="151.290064">
  <ele>343.1</ele>
  <time>2026-09-01T19:58:02Z</time>
  <course>270.0</course>
  <speed>0.0</speed>
  <fix>3d</fix>
</trkpt>
<trkpt lat="-27.274439" lon="151.290064">
  <ele>342.98</ele>
  <time>2026-09-01T19:58:02Z</time>
  <course>10.69</course>
  <speed>0.0</speed>
  <fix>3d</fix>
</trkpt>
<trkpt lat="-27.274439" lon="151.290064">
  <ele>343.1</ele>
  <time>2026-09-01T19:58:02Z</time>
  <course>270.0</course>
  <speed>0.0</speed>
  <fix>3d</fix>
</trkpt>
<trkpt lat="-27.274439" lon="151.290064">
  <ele>342.97</ele>
  <time>2026-09-01T19:58:02Z</time>
  <course>10.69</course>
  <speed>0.0</speed>
  <fix>3d</fix>
</trkpt>
<trkpt lat="-27.274439" lon="151.290064">
  <ele>343.1</ele>
  <time>2026-09-01T19:58:02Z</time>
  <course>270.0</course>
  <speed>0.0</speed>
  <fix>3d</fix>
</trkpt>
<trkpt lat="-27.274439" lon="151.290064">
  <ele>342.97</ele>
  <time>2026-09-01T19:58:02Z</time>
  <course>10.69</course>
  <speed>0.0</speed>
  <fix>3d</fix>
</trkpt>
<trkpt lat="-27.274439" lon="151.290064">
  <ele>343.1</ele>
  <time>2026-09-01T19:58:02Z</time>
  <course>270.0</course>
  <speed>0.0</speed>
  <fix>3d</fix>
</trkpt>
<trkpt lat="-27.274439" lon="151.290064">
  <ele>342.97</ele>
  <time>2026-09-01T19:58:02Z</time>
  <course>10.69</course>
  <speed>0.01</speed>
  <fix>3d</fix>
</trkpt>
<trkpt lat="-27.274439" lon="151.290064">
  <ele>343.1</ele>
  <time>2026-09-01T19:58:02Z</time>
  <course>270.0</course>
  <speed>0.0</speed>
  <fix>3d</fix>
</trkpt>
<trkpt lat="-27.274439" lon="151.290064">
  <ele>343.09</ele>
  <time>2026-09-01T19:58:02Z</time>
  <course>10.69</course>
  <speed>0.01</speed>
  <fix>3d</fix>
</trkpt>
<trkpt lat="-27.274439" lon="151.290064">
  <ele>343.1</ele>
  <time>2026-09-01T19:58:02Z</time>
  <course>270.0</course>
  <speed>0.0</speed>
  <fix>3d</fix>
</trkpt>
<trkpt lat="-27.274439" lon="151.290064">
  <ele>343.09</ele>
  <time>2026-09-01T19:58:02Z</time>
  <course>10.69</course>
  <speed>0.01</speed>
  <fix>3d</fix>
</trkpt>
<trkpt lat="-27.274439" lon="151.290064">
  <ele>343.1</ele>
  <time>2026-09-01T19:58:02Z</time>
  <course>270.0</course>
  <speed>0.0</speed>
  <fix>3d</fix>
</trkpt>
<trkpt lat="-27.274439" lon="151.290064">
  <ele>343.09</ele>
  <time>2026-09-01T19:58:02Z</time>
  <course>10.69</course>
  <speed>0.01</speed>
  <fix>3d</fix>
</trkpt>
<trkpt lat="-27.274439" lon="151.290064">
  <ele>343.1</ele>
  <time>2026-09-01T19:58:02Z</time>
  <course>270.0</course>
  <speed>0.0</speed>
  <fix>3d</fix>
</trkpt>
<trkpt lat="-27.274439" lon="151.290064">
  <ele>343.09</ele>
  <time>2026-09-01T19:58:02Z</time>
  <course>10.69</course>
  <speed>0.01</speed>
  <fix>3d</fix>
</trkpt>
<trkpt lat="-27.274439" lon="151.290064">
  <ele>343.1</ele>
  <time>2026-09-01T19:58:02Z</time>
  <course>270.0</course>
  <speed>0.0</speed>
  <fix>3d</fix>
</trkpt>
<trkpt lat="-27.274439" lon="151.290064">
  <ele>343.09</ele>
  <time>2026-09-01T19:58:02Z</time>
  <course>10.69</course>
  <speed>0.01</speed>
  <fix>3d</fix>
</trkpt>
<trkpt lat="-27.274439" lon="151.290064">
  <ele>343.09</ele>
  <time>2026-09-01T19:58:02Z</time>
  <course>10.69</course>
  <speed>0.01414213562373095</speed>
  <fix>3d</fix>
</trkpt>
<trkpt lat="-27.274439" lon="151.290064">
  <ele>343.1</ele>
  <time>2026-09-01T19:58:02Z</time>
  <course>270.0</course>
  <speed>0.0</speed>
  <fix>3d</fix>
</trkpt>
<trkpt lat="-27.274439" lon="151.290064">
  <ele>343.09</ele>
  <time>2026-09-01T19:58:02Z</time>
  <course>10.69</course>
  <speed>0.01414213562373095</speed>
  <fix>3d</fix>
</trkpt>
<trkpt lat="-27.274439" lon="151.290064">
  <ele>343.09</ele>
  <time>2026-09-01T19:58:02Z</time>
  <course>10.69</course>
  <speed>0.01414213562373095</speed>
  <fix>3d</fix>
</trkpt>
<trkpt lat="-27.274439" lon="151.290064">
  <ele>343.1</ele>
  <time>2026-09-01T19:58:02Z</time>
  <course>145.14</course>
  <speed>0.0</speed>
  <fix>3d</fix>
</trkpt>
<trkpt lat="-27.274439" lon="151.290064">
  <ele>343.09</ele>
  <time>2026-09-01T19:58:02Z</time>
  <course>10.69</course>
  <speed>0.01414213562373095</speed>
  <fix>3d</fix>
</trkpt>
<trkpt lat="-27.274439" lon="151.290064">
  <ele>343.08</ele>
  <time>2026-09-01T19:58:02Z</time>
  <course>10.69</course>
  <speed>0.01414213562373095</speed>
  <fix>3d</fix>
</trkpt>
<trkpt lat="-27.274439" lon="151.290064">
  <ele>343.1</ele>
  <time>2026-09-01T19:58:02Z</time>
  <course>145.14</course>
  <speed>0.0</speed>
  <fix>3d</fix>
</trkpt>
<trkpt lat="-27.274439" lon="151.290064">
  <ele>343.08</ele>
  <time>2026-09-01T19:58:02Z</time>
  <course>10.69</course>
  <speed>0.01414213562373095</speed>
  <fix>3d</fix>
</trkpt>
<trkpt lat="-27.274439" lon="151.290064">
  <ele>343.08</ele>
  <time>2026-09-01T19:58:02Z</time>
  <course>10.69</course>
  <speed>0.01414213562373095</speed>
  <fix>3d</fix>
</trkpt>
<trkpt lat="-27.274439" lon="151.290064">
  <ele>343.1</ele>
  <time>2026-09-01T19:58:02Z</time>
  <course>144.54</course>
  <speed>0.0</speed>
  <fix>3d</fix>
</trkpt>
<trkpt lat="-27.274439" lon="151.290064">
  <ele>343.08</ele>
  <time>2026-09-01T19:58:02Z</time>
  <course>10.69</course>
  <speed>0.01414213562373095</speed>
  <fix>3d</fix>
</trkpt>
<trkpt lat="-27.274439" lon="151.290064">
  <ele>343.08</ele>
  <time>2026-09-01T19:58:02Z</time>
  <course>10.69</course>
  <speed>0.01414213562373095</speed>
  <fix>3d</fix>
</trkpt>
<trkpt lat="-27.274439" lon="151.290064">
  <ele>343.1</ele>
  <time>2026-09-01T19:58:02Z</time>
  <course>144.54</course>
  <speed>0.0</speed>
  <fix>3d</fix>
</trkpt>
<trkpt lat="-27.274439" lon="151.290064">
  <ele>343.08</ele>
  <time>2026-09-01T19:58:02Z</time>
  <course>10.69</course>
  <speed>0.01414213562373095</speed>
  <fix>3d</fix>
</trkpt>
<trkpt lat="-27.274439" lon="151.290064">
  <ele>343.08</ele>
  <time>2026-09-01T19:58:02Z</time>
  <course>10.69</course>
  <speed>0.01414213562373095</speed>
  <fix>3d</fix>
</trkpt>
<trkpt lat="-27.274439" lon="151.290064">
  <ele>343.1</ele>
  <time>2026-09-01T19:58:02Z</time>
  <course>324.63</course>
  <speed>0.0</speed>
  <fix>3d</fix>
</trkpt>
<trkpt lat="-27.274439" lon="151.290064">
  <ele>343.08</ele>
  <time>2026-09-01T19:58:02Z</time>
  <course>10.69</course>
  <speed>0.01414213562373095</speed>
  <fix>3d</fix>
</trkpt>
<trkpt lat="-27.274439" lon="151.290064">
  <ele>343.08</ele>
  <time>2026-09-01T19:58:02Z</time>
  <course>10.69</course>
  <speed>0.01414213562373095</speed>
  <fix>3d</fix>
</trkpt>
<trkpt lat="-27.274439" lon="151.290064">
  <ele>343.1</ele>
  <time>2026-09-01T19:58:02Z</time>
  <course>324.63</course>
  <speed>0.0</speed>
  <fix>3d</fix>
</trkpt>
<trkpt lat="-27.274439" lon="151.290064">
  <ele>343.08</ele>
  <time>2026-09-01T19:58:02Z</time>
  <course>10.69</course>
  <speed>0.01414213562373095</speed>
  <fix>3d</fix>
</trkpt>
<trkpt lat="-27.274439" lon="151.290064">
  <ele>343.08</ele>
  <time>2026-09-01T19:58:02Z</time>
  <course>10.69</course>
  <speed>0.01414213562373095</speed>
  <fix>3d</fix>
</trkpt>
<trkpt lat="-27.274439" lon="151.290064">
  <ele>343.1</ele>
  <time>2026-09-01T19:58:02Z</time>
  <course>324.26</course>
  <speed>0.0</speed>
  <fix>3d</fix>
</trkpt>
<trkpt lat="-27.274439" lon="151.290064">
  <ele>343.08</ele>
  <time>2026-09-01T19:58:02Z</time>
  <course>10.69</course>
  <speed>0.01414213562373095</speed>
  <fix>3d</fix>
</trkpt>
<trkpt lat="-27.274439" lon="151.290064">
  <ele>343.09</ele>
  <time>2026-09-01T19:58:02Z</time>
  <course>10.69</course>
  <speed>0.01414213562373095</speed>
  <fix>3d</fix>
</trkpt>
<trkpt lat="-27.274439" lon="151.290064">
  <ele>343.1</ele>
  <time>2026-09-01T19:58:02Z</time>
  <course>324.26</course>
  <speed>0.0</speed>
  <fix>3d</fix>
</trkpt>
<trkpt lat="-27.274439" lon="151.290064">
  <ele>343.1</ele>
  <time>2026-09-01T19:58:02Z</time>
  <course>10.69</course>
  <speed>0.01414213562373095</speed>
  <fix>3d</fix>
</trkpt>
<trkpt lat="-27.274439" lon="151.290064">
  <ele>343.12</ele>
  <time>2026-09-01T19:58:02Z</time>
  <course>10.69</course>
  <speed>0.01414213562373095</speed>
  <fix>3d</fix>
</trkpt>
<trkpt lat="-27.274439" lon="151.290064">
  <ele>343.1</ele>
  <time>2026-09-01T19:58:02Z</time>
  <course>6.03</course>
  <speed>0.0</speed>
  <fix>3d</fix>
</trkpt>
<trkpt lat="-27.274439" lon="151.290064">
  <ele>343.14</ele>
  <time>2026-09-01T19:58:02Z</time>
  <course>10.69</course>
  <speed>0.01414213562373095</speed>
  <fix>3d</fix>
</trkpt>
<trkpt lat="-27.274439" lon="151.290064">
  <ele>343.17</ele>
  <time>2026-09-01T19:58:02Z</time>
  <course>10.69</course>
  <speed>0.01414213562373095</speed>
  <fix>3d</fix>
</trkpt>
<trkpt lat="-27.274439" lon="151.290064">
  <ele>343.1</ele>
  <time>2026-09-01T19:58:02Z</time>
  <course>6.03</course>
  <speed>0.0</speed>
  <fix>3d</fix>
</trkpt>
<trkpt lat="-27.274439" lon="151.290064">
  <ele>343.19</ele>
  <time>2026-09-01T19:58:02Z</time>
  <course>10.69</course>
  <speed>0.01414213562373095</speed>
  <fix>3d</fix>
</trkpt>
<trkpt lat="-27.274439" lon="151.290064">
  <ele>343.24</ele>
  <time>2026-09-01T19:58:02Z</time>
  <course>10.69</course>
  <speed>0.01</speed>
  <fix>3d</fix>
</trkpt>
<trkpt lat="-27.274439" lon="151.290064">
  <ele>343.15</ele>
  <time>2026-09-01T19:58:02Z</time>
  <course>7.57</course>
  <speed>0.0</speed>
  <fix>3d</fix>
</trkpt>
<trkpt lat="-27.274439" lon="151.290064">
  <ele>343.24</ele>
  <time>2026-09-01T19:58:02Z</time>
  <course>10.69</course>
  <speed>0.01</speed>
  <fix>3d</fix>
</trkpt>
<trkpt lat="-27.274439" lon="151.290064">
  <ele>343.36</ele>
  <time>2026-09-01T19:58:02Z</time>
  <course>10.72</course>
  <speed>0.0316227766016838</speed>
  <fix>3d</fix>
</trkpt>
<trkpt lat="-27.274439" lon="151.290064">
  <ele>343.15</ele>
  <time>2026-09-01T19:58:02Z</time>
  <course>7.57</course>
  <speed>0.0</speed>
  <fix>3d</fix>
</trkpt>
<trkpt lat="-27.274439" lon="151.290064">
  <ele>343.36</ele>
  <time>2026-09-01T19:58:02Z</time>
  <course>10.72</course>
  <speed>0.0316227766016838</speed>
  <fix>3d</fix>
</trkpt>
<trkpt lat="-27.274439" lon="151.290064">
  <ele>343.55</ele>
  <time>2026-09-01T19:58:02Z</time>
  <course>10.73</course>
  <speed>0.07071067811865475</speed>
  <fix>3d</fix>
</trkpt>
<trkpt lat="-27.274439" lon="151.290064">
  <ele>343.28</ele>
  <time>2026-09-01T19:58:02Z</time>
  <course>357.81</course>
  <speed>0.02</speed>
  <fix>3d</fix>
</trkpt>
<trkpt lat="-27.274439" lon="151.290064">
  <ele>343.62</ele>
  <time>2026-09-01T19:58:02Z</time>
  <course>10.73</course>
  <speed>0.08062257748298549</speed>
  <fix>3d</fix>
</trkpt>
<trkpt lat="-27.2744389" lon="151.290064">
  <ele>343.78</ele>
  <time>2026-09-01T19:58:02Z</time>
  <course>10.72</course>
  <speed>0.12041594578792296</speed>
  <fix>3d</fix>
</trkpt>
<trkpt lat="-27.274439" lon="151.290064">
  <ele>343.28</ele>
  <time>2026-09-01T19:58:02Z</time>
  <course>357.81</course>
  <speed>0.02</speed>
  <fix>3d</fix>
</trkpt>
<trkpt lat="-27.2744389" lon="151.290064">
  <ele>343.85</ele>
  <time>2026-09-01T19:58:02Z</time>
  <course>10.71</course>
  <speed>0.130384048104053</speed>
  <fix>3d</fix>
</trkpt>
<trkpt lat="-27.2744388" lon="151.290064">
  <ele>344.03</ele>
  <time>2026-09-01T19:58:02Z</time>
  <course>10.68</course>
  <speed>0.16124515496597097</speed>
  <fix>3d</fix>
</trkpt>
<trkpt lat="-27.2744389" lon="151.290064">
  <ele>343.59</ele>
  <time>2026-09-01T19:58:02Z</time>
  <course>358.78</course>
  <speed>0.09</speed>
  <fix>3d</fix>
</trkpt>
<trkpt lat="-27.2744387" lon="151.290064">
  <ele>344.1</ele>
  <time>2026-09-01T19:58:02Z</time>
  <course>10.67</course>
  <speed>0.1711724276862369</speed>
  <fix>3d</fix>
</trkpt>
<trkpt lat="-27.2744386" lon="151.290064">
  <ele>344.3</ele>
  <time>2026-09-01T19:58:02Z</time>
  <course>10.62</course>
  <speed>0.2109502310972899</speed>
  <fix>3d</fix>
</trkpt>
<trkpt lat="-27.2744389" lon="151.290064">
  <ele>343.59</ele>
  <time>2026-09-01T19:58:02Z</time>
  <course>358.78</course>
  <speed>0.09</speed>
  <fix>3d</fix>
</trkpt>
<trkpt lat="-27.2744385" lon="151.290064">
  <ele>344.37</ele>
  <time>2026-09-01T19:58:02Z</time>
  <course>10.6</course>
  <speed>0.22090722034374521</speed>
  <fix>3d</fix>
</trkpt>
<trkpt lat="-27.2744384" lon="151.290064">
  <ele>344.57</ele>
  <time>2026-09-01T19:58:02Z</time>
  <course>10.56</course>
  <speed>0.25079872407968906</speed>
  <fix>3d</fix>
</trkpt>
<trkpt lat="-27.2744387" lon="151.290064">
  <ele>344.06</ele>
  <time>2026-09-01T19:58:02Z</time>
  <course>0.27</course>
  <speed>0.18</speed>
  <fix>3d</fix>
</trkpt>
<trkpt lat="-27.2744383" lon="151.290064">
  <ele>344.66</ele>
  <time>2026-09-01T19:58:02Z</time>
  <course>10.54</course>
  <speed>0.261725046566048</speed>
  <fix>3d</fix>
</trkpt>
<trkpt lat="-27.2744381" lon="151.2900641">
  <ele>344.86</ele>
  <time>2026-09-01T19:58:02Z</time>
  <course>10.5</course>
  <speed>0.291547594742265</speed>
  <fix>3d</fix>
</trkpt>
<trkpt lat="-27.2744387" lon="151.290064">
  <ele>344.06</ele>
  <time>2026-09-01T19:58:02Z</time>
  <course>0.27</course>
  <speed>0.18</speed>
  <fix>3d</fix>
</trkpt>
<trkpt lat="-27.274438" lon="151.2900641">
  <ele>344.95</ele>
  <time>2026-09-01T19:58:02Z</time>
  <course>10.48</course>
  <speed>0.3014962686336267</speed>
  <fix>3d</fix>
</trkpt>
<trkpt lat="-27.2744378" lon="151.2900641">
  <ele>345.17</ele>
  <time>2026-09-01T19:58:02Z</time>
  <course>10.28</course>
  <speed>0.3313608305156178</speed>
  <fix>3d</fix>
</trkpt>
<trkpt lat="-27.2744383" lon="151.290064">
  <ele>344.62</ele>
  <time>2026-09-01T19:58:02Z</time>
  <course>1.47</course>
  <speed>0.26</speed>
  <fix>3d</fix>
</trkpt>
<trkpt lat="-27.2744378" lon="151.2900641">
  <ele>345.25</ele>
  <time>2026-09-01T19:58:02Z</time>
  <course>10.27</course>
  <speed>0.3313608305156178</speed>
  <fix>3d</fix>
</trkpt>
<trkpt lat="-27.2744375" lon="151.2900641">
  <ele>345.48</ele>
  <time>2026-09-01T19:58:02Z</time>
  <course>10.25</course>
  <speed>0.3622154055254967</speed>
  <fix>3d</fix>
</trkpt>
<trkpt lat="-27.2744383" lon="151.290064">
  <ele>344.62</ele>
  <time>2026-09-01T19:58:02Z</time>
  <course>1.47</course>
  <speed>0.26</speed>
  <fix>3d</fix>
</trkpt>
<trkpt lat="-27.2744374" lon="151.2900641">
  <ele>345.59</ele>
  <time>2026-09-01T19:58:02Z</time>
  <course>10.24</course>
  <speed>0.3721558813185679</speed>
  <fix>3d</fix>
</trkpt>
<trkpt lat="-27.2744372" lon="151.2900641">
  <ele>345.8</ele>
  <time>2026-09-01T19:58:02Z</time>
  <course>10.23</course>
  <speed>0.3920459156782532</speed>
  <fix>3d</fix>
</trkpt>
<trkpt lat="-27.2744378" lon="151.290064">
  <ele>345.22</ele>
  <time>2026-09-01T19:58:02Z</time>
  <course>2.47</course>
  <speed>0.34</speed>
  <fix>3d</fix>
</trkpt>
<trkpt lat="-27.2744371" lon="151.2900641">
  <ele>345.91</ele>
  <time>2026-09-01T19:58:02Z</time>
  <course>10.23</course>
  <speed>0.4019950248448356</speed>
  <fix>3d</fix>
</trkpt>
<trkpt lat="-27.2744368" lon="151.2900641">
  <ele>346.13</ele>
  <time>2026-09-01T19:58:02Z</time>
  <course>10.23</course>
  <speed>0.4119465984809196</speed>
  <fix>3d</fix>
</trkpt>
<trkpt lat="-27.2744378" lon="151.290064">
  <ele>345.22</ele>
  <time>2026-09-01T19:58:02Z</time>
  <course>2.47</course>
  <speed>0.34</speed>
  <fix>3d</fix>
</trkpt>
<trkpt lat="-27.2744368" lon="151.2900641">
  <ele>346.14</ele>
  <time>2026-09-01T19:58:02Z</time>
  <course>10.23</course>
  <speed>0.4119465984809196</speed>
  <fix>3d</fix>
</trkpt>
<trkpt lat="-27.2744364" lon="151.2900642">
  <ele>346.45</ele>
  <time>2026-09-01T19:58:02Z</time>
  <course>10.24</course>
  <speed>0.43289721643826723</speed>
  <fix>3d</fix>
</trkpt>
<trkpt lat="-27.2744371" lon="151.290064">
  <ele>345.84</ele>
  <time>2026-09-01T19:58:02Z</time>
  <course>3.28</course>
  <speed>0.4</speed>
  <fix>3d</fix>
</trkpt>
<trkpt lat="-27.2744364" lon="151.2900642">
  <ele>346.46</ele>
  <time>2026-09-01T19:58:02Z</time>
  <course>10.24</course>
  <speed>0.43289721643826723</speed>
  <fix>3d</fix>
</trkpt>
<trkpt lat="-27.274436" lon="151.2900642">
  <ele>346.77</ele>
  <time>2026-09-01T19:58:02Z</time>
  <course>10.25</course>
  <speed>0.4428317965096906</speed>
  <fix>3d</fix>
</trkpt>
<trkpt lat="-27.2744371" lon="151.290064">
  <ele>345.84</ele>
  <time>2026-09-01T19:58:02Z</time>
  <course>3.28</course>
  <speed>0.4</speed>
  <fix>3d</fix>
</trkpt>
<trkpt lat="-27.2744359" lon="151.2900642">
  <ele>346.87</ele>
  <time>2026-09-01T19:58:02Z</time>
  <course>10.25</course>
  <speed>0.4428317965096906</speed>
  <fix>3d</fix>
</trkpt>
<trkpt lat="-27.2744356" lon="151.2900642">
  <ele>347.09</ele>
  <time>2026-09-01T19:58:02Z</time>
  <course>10.26</course>
  <speed>0.45276925690687087</speed>
  <fix>3d</fix>
</trkpt>
<trkpt lat="-27.2744363" lon="151.290064">
  <ele>346.47</ele>
  <time>2026-09-01T19:58:02Z</time>
  <course>3.92</course>
  <speed>0.45</speed>
  <fix>3d</fix>
</trkpt>
<trkpt lat="-27.2744355" lon="151.2900642">
  <ele>347.18</ele>
  <time>2026-09-01T19:58:02Z</time>
  <course>10.26</course>
  <speed>0.45276925690687087</speed>
  <fix>3d</fix>
</trkpt>
<trkpt lat="-27.2744352" lon="151.2900642">
  <ele>347.4</ele>
  <time>2026-09-01T19:58:02Z</time>
  <course>10.27</course>
  <speed>0.45276925690687087</speed>
  <fix>3d</fix>
</trkpt>
<trkpt lat="-27.2744363" lon="151.290064">
  <ele>346.47</ele>
  <time>2026-09-01T19:58:02Z</time>
  <course>3.92</course>
  <speed>0.45</speed>
  <fix>3d</fix>
</trkpt>
<trkpt lat="-27.2744351" lon="151.2900642">
  <ele>347.48</ele>
  <time>2026-09-01T19:58:02Z</time>
  <course>10.28</course>
  <speed>0.45276925690687087</speed>
  <fix>3d</fix>
</trkpt>
<trkpt lat="-27.2744348" lon="151.2900643">
  <ele>347.7</ele>
  <time>2026-09-01T19:58:02Z</time>
  <course>10.29</course>
  <speed>0.44181444068749043</speed>
  <fix>3d</fix>
</trkpt>
<trkpt lat="-27.2744355" lon="151.2900641">
  <ele>347.11</ele>
  <time>2026-09-01T19:58:02Z</time>
  <course>4.43</course>
  <speed>0.47</speed>
  <fix>3d</fix>
</trkpt>
<trkpt lat="-27.2744347" lon="151.2900643">
  <ele>347.8</ele>
  <time>2026-09-01T19:58:02Z</time>
  <course>10.29</course>
  <speed>0.44181444068749043</speed>
  <fix>3d</fix>
</trkpt>
<trkpt lat="-27.2744344" lon="151.2900643">
  <ele>348.0</ele>
  <time>2026-09-01T19:58:02Z</time>
  <course>10.31</course>
  <speed>0.43185645763378366</speed>
  <fix>3d</fix>
</trkpt>
<trkpt lat="-27.2744355" lon="151.2900641">
  <ele>347.11</ele>
  <time>2026-09-01T19:58:02Z</time>
  <course>4.43</course>
  <speed>0.47</speed>
  <fix>3d</fix>
</trkpt>
<trkpt lat="-27.2744343" lon="151.2900643">
  <ele>348.07</ele>
  <time>2026-09-01T19:58:02Z</time>
  <course>10.31</course>
  <speed>0.43185645763378366</speed>
  <fix>3d</fix>
</trkpt>
<trkpt lat="-27.274434" lon="151.2900643">
  <ele>348.28</ele>
  <time>2026-09-01T19:58:02Z</time>
  <course>10.33</course>
  <speed>0.4219004621945798</speed>
  <fix>3d</fix>
</trkpt>
<trkpt lat="-27.2744347" lon="151.2900642">
  <ele>347.71</ele>
  <time>2026-09-01T19:58:02Z</time>
  <course>4.9</course>
  <speed>0.46</speed>
  <fix>3d</fix>
</trkpt>
<trkpt lat="-27.2744339" lon="151.2900643">
  <ele>348.36</ele>
  <time>2026-09-01T19:58:02Z</time>
  <course>10.33</course>
  <speed>0.4119465984809196</speed>
  <fix>3d</fix>
</trkpt>
<trkpt lat="-27.2744336" lon="151.2900643">
  <ele>348.56</ele>
  <time>2026-09-01T19:58:02Z</time>
  <course>10.35</course>
  <speed>0.3920459156782532</speed>
  <fix>3d</fix>
</trkpt>
<trkpt lat="-27.2744347" lon="151.2900642">
  <ele>347.71</ele>
  <time>2026-09-01T19:58:02Z</time>
  <course>4.9</course>
  <speed>0.46</speed>
  <fix>3d</fix>
</trkpt>
<trkpt lat="-27.2744335" lon="151.2900643">
  <ele>348.63</ele>
  <time>2026-09-01T19:58:02Z</time>
  <course>10.35</course>
  <speed>0.3920459156782532</speed>
  <fix>3d</fix>
</trkpt>
<trkpt lat="-27.2744333" lon="151.2900644">
  <ele>348.83</ele>
  <time>2026-09-01T19:58:02Z</time>
  <course>10.37</course>
  <speed>0.3712142238654117</speed>
  <fix>3d</fix>
</trkpt>
<trkpt lat="-27.2744339" lon="151.2900642">
  <ele>348.29</ele>
  <time>2026-09-01T19:58:02Z</time>
  <course>5.42</course>
  <speed>0.44</speed>
  <fix>3d</fix>
</trkpt>
<trkpt lat="-27.2744332" lon="151.2900644">
  <ele>348.91</ele>
  <time>2026-09-01T19:58:02Z</time>
  <course>10.38</course>
  <speed>0.36124783736376886</speed>
  <fix>3d</fix>
</trkpt>
<trkpt lat="-27.2744329" lon="151.2900644">
  <ele>349.1</ele>
  <time>2026-09-01T19:58:02Z</time>
  <course>10.39</course>
  <speed>0.34132096331752027</speed>
  <fix>3d</fix>
</trkpt>
<trkpt lat="-27.2744339" lon="151.2900642">
  <ele>348.29</ele>
  <time>2026-09-01T19:58:02Z</time>
  <course>5.42</course>
  <speed>0.44</speed>
  <fix>3d</fix>
</trkpt>
<trkpt lat="-27.2744328" lon="151.2900644">
  <ele>349.17</ele>
  <time>2026-09-01T19:58:02Z</time>
  <course>10.4</course>
  <speed>0.3313608305156178</speed>
  <fix>3d</fix>
</trkpt>
<trkpt lat="-27.2744326" lon="151.2900644">
  <ele>349.36</ele>
  <time>2026-09-01T19:58:02Z</time>
  <course>10.41</course>
  <speed>0.31144823004794875</speed>
  <fix>3d</fix>
</trkpt>
<trkpt lat="-27.2744331" lon="151.2900643">
  <ele>348.83</ele>
  <time>2026-09-01T19:58:02Z</time>
  <course>6.07</course>
  <speed>0.39</speed>
  <fix>3d</fix>
</trkpt>
<trkpt lat="-27.2744326" lon="151.2900644">
  <ele>349.36</ele>
  <time>2026-09-01T19:58:02Z</time>
  <course>10.41</course>
  <speed>0.31144823004794875</speed>
  <fix>3d</fix>
</trkpt>
<trkpt lat="-27.2744323" lon="151.2900644">
  <ele>349.61</ele>
  <time>2026-09-01T19:58:02Z</time>
  <course>10.43</course>
  <speed>0.280713376952364</speed>
  <fix>3d</fix>
</trkpt>
<trkpt lat="-27.2744331" lon="151.2900643">
  <ele>348.83</ele>
  <time>2026-09-01T19:58:02Z</time>
  <course>6.07</course>
  <speed>0.39</speed>
  <fix>3d</fix>
</trkpt>
<trkpt lat="-27.2744323" lon="151.2900644">
  <ele>349.63</ele>
  <time>2026-09-01T19:58:02Z</time>
  <course>10.43</course>
  <speed>0.280713376952364</speed>
  <fix>3d</fix>
</trkpt>
<trkpt lat="-27.2744321" lon="151.2900644">
  <ele>349.86</ele>
  <time>2026-09-01T19:58:02Z</time>
  <course>10.45</course>
  <speed>0.24083189157584592</speed>
  <fix>3d</fix>
</trkpt>
<trkpt lat="-27.2744325" lon="151.2900644">
  <ele>349.35</ele>
  <time>2026-09-01T19:58:02Z</time>
  <course>6.99</course>
  <speed>0.33</speed>
  <fix>3d</fix>
</trkpt>
<trkpt lat="-27.274432" lon="151.2900645">
  <ele>349.93</ele>
  <time>2026-09-01T19:58:02Z</time>
  <course>10.46</course>
  <speed>0.2308679276123039</speed>
  <fix>3d</fix>
</trkpt>
<trkpt lat="-27.2744319" lon="151.2900645">
  <ele>350.1</ele>
  <time>2026-09-01T19:58:02Z</time>
  <course>10.47</course>
  <speed>0.2109502310972899</speed>
  <fix>3d</fix>
</trkpt>
<trkpt lat="-27.2744325" lon="151.2900644">
  <ele>349.35</ele>
  <time>2026-09-01T19:58:02Z</time>
  <course>6.99</course>
  <speed>0.33</speed>
  <fix>3d</fix>
</trkpt>
<trkpt lat="-27.2744318" lon="151.2900645">
  <ele>350.18</ele>
  <time>2026-09-01T19:58:02Z</time>
  <course>10.48</course>
  <speed>0.2009975124224178</speed>
  <fix>3d</fix>
</trkpt>
<trkpt lat="-27.2744317" lon="151.2900645">
  <ele>350.35</ele>
  <time>2026-09-01T19:58:02Z</time>
  <course>10.5</course>
  <speed>0.17029386365926402</speed>
  <fix>3d</fix>
</trkpt>
<trkpt lat="-27.2744319" lon="151.2900645">
  <ele>349.85</ele>
  <time>2026-09-01T19:58:02Z</time>
  <course>8.39</course>
  <speed>0.26</speed>
  <fix>3d</fix>
</trkpt>
<trkpt lat="-27.2744316" lon="151.2900645">
  <ele>350.41</ele>
  <time>2026-09-01T19:58:02Z</time>
  <course>10.51</course>
  <speed>0.16031219541881397</speed>
  <fix>3d</fix>
</trkpt>
<trkpt lat="-27.2744315" lon="151.2900645">
  <ele>350.59</ele>
  <time>2026-09-01T19:58:02Z</time>
  <course>10.52</course>
  <speed>0.130384048104053</speed>
  <fix>3d</fix>
</trkpt>
<trkpt lat="-27.2744319" lon="151.2900645">
  <ele>349.85</ele>
  <time>2026-09-01T19:58:02Z</time>
  <course>8.39</course>
  <speed>0.26</speed>
  <fix>3d</fix>
</trkpt>
<trkpt lat="-27.2744315" lon="151.2900645">
  <ele>350.66</ele>
  <time>2026-09-01T19:58:02Z</time>
  <course>10.53</course>
  <speed>0.12041594578792296</speed>
  <fix>3d</fix>
</trkpt>
<trkpt lat="-27.2744314" lon="151.2900645">
  <ele>350.83</ele>
  <time>2026-09-01T19:58:02Z</time>
  <course>10.55</course>
  <speed>0.1004987562112089</speed>
  <fix>3d</fix>
</trkpt>
<trkpt lat="-27.2744315" lon="151.2900646">
  <ele>350.34</ele>
  <time>2026-09-01T19:58:02Z</time>
  <course>10.81</course>
  <speed>0.19</speed>
  <fix>3d</fix>
</trkpt>
<trkpt lat="-27.2744314" lon="151.2900645">
  <ele>350.9</ele>
  <time>2026-09-01T19:58:02Z</time>
  <course>10.55</course>
  <speed>0.09055385138137417</speed>
  <fix>3d</fix>
</trkpt>
<trkpt lat="-27.2744313" lon="151.2900645">
  <ele>351.07</ele>
  <time>2026-09-01T19:58:02Z</time>
  <course>10.57</course>
  <speed>0.06</speed>
  <fix>3d</fix>
</trkpt>
<trkpt lat="-27.2744315" lon="151.2900646">
  <ele>350.34</ele>
  <time>2026-09-01T19:58:02Z</time>
  <course>10.81</course>
  <speed>0.19</speed>
  <fix>3d</fix>
</trkpt>
<trkpt lat="-27.2744313" lon="151.2900646">
  <ele>351.13</ele>
  <time>2026-09-01T19:58:02Z</time>
  <course>10.58</course>
  <speed>0.05</speed>
  <fix>3d</fix>
</trkpt>
<trkpt lat="-27.2744312" lon="151.2900646">
  <ele>351.32</ele>
  <time>2026-09-01T19:58:02Z</time>
  <course>10.6</course>
  <speed>0.03</speed>
  <fix>3d</fix>
</trkpt>
<trkpt lat="-27.2744312" lon="151.2900646">
  <ele>350.81</ele>
  <time>2026-09-01T19:58:02Z</time>
  <course>15.96</course>
  <speed>0.11</speed>
  <fix>3d</fix>
</trkpt>
<trkpt lat="-27.2744312" lon="151.2900646">
  <ele>351.38</ele>
  <time>2026-09-01T19:58:02Z</time>
  <course>10.61</course>
  <speed>0.02</speed>
  <fix>3d</fix>
</trkpt>
<trkpt lat="-27.2744312" lon="151.2900646">
  <ele>351.55</ele>
  <time>2026-09-01T19:58:02Z</time>
  <course>10.64</course>
  <speed>0.0</speed>
  <fix>3d</fix>
</trkpt>
<trkpt lat="-27.2744312" lon="151.2900646">
  <ele>350.81</ele>
  <time>2026-09-01T19:58:02Z</time>
  <course>15.96</course>
  <speed>0.11</speed>
  <fix>3d</fix>
</trkpt>
<trkpt lat="-27.2744312" lon="151.2900646">
  <ele>351.62</ele>
  <time>2026-09-01T19:58:02Z</time>
  <course>10.65</course>
  <speed>0.01</speed>
  <fix>3d</fix>
</trkpt>
<trkpt lat="-27.2744312" lon="151.2900646">
  <ele>351.79</ele>
  <time>2026-09-01T19:58:02Z</time>
  <course>10.68</course>
  <speed>0.03</speed>
  <fix>3d</fix>
</trkpt>
<trkpt lat="-27.2744311" lon="151.2900647">
  <ele>351.28</ele>
  <time>2026-09-01T19:58:02Z</time>
  <course>33.91</course>
  <speed>0.04</speed>
  <fix>3d</fix>
</trkpt>
<trkpt lat="-27.2744312" lon="151.2900646">
  <ele>351.86</ele>
  <time>2026-09-01T19:58:02Z</time>
  <course>10.69</course>
  <speed>0.03</speed>
  <fix>3d</fix>
</trkpt>
<trkpt lat="-27.2744312" lon="151.2900646">
  <ele>352.04</ele>
  <time>2026-09-01T19:58:02Z</time>
  <course>10.73</course>
  <speed>0.06</speed>
  <fix>3d</fix>
</trkpt>
<trkpt lat="-27.2744311" lon="151.2900647">
  <ele>351.28</ele>
  <time>2026-09-01T19:58:02Z</time>
  <course>33.91</course>
  <speed>0.04</speed>
  <fix>3d</fix>
</trkpt>
<trkpt lat="-27.2744312" lon="151.2900646">
  <ele>352.04</ele>
  <time>2026-09-01T19:58:02Z</time>
  <course>10.73</course>
  <speed>0.06</speed>
  <fix>3d</fix>
</trkpt>
<trkpt lat="-27.2744313" lon="151.2900646">
  <ele>352.28</ele>
  <time>2026-09-01T19:58:02Z</time>
  <course>10.79</course>
  <speed>0.08</speed>
  <fix>3d</fix>
</trkpt>
<trkpt lat="-27.2744311" lon="151.2900647">
  <ele>351.76</ele>
  <time>2026-09-01T19:58:02Z</time>
  <course>137.76</course>
  <speed>0.03</speed>
  <fix>3d</fix>
</trkpt>
<trkpt lat="-27.2744313" lon="151.2900646">
  <ele>352.28</ele>
  <time>2026-09-01T19:58:02Z</time>
  <course>10.8</course>
  <speed>0.08</speed>
  <fix>3d</fix>
</trkpt>
<trkpt lat="-27.2744313" lon="151.2900646">
  <ele>352.52</ele>
  <time>2026-09-01T19:58:02Z</time>
  <course>10.87</course>
  <speed>0.1004987562112089</speed>
  <fix>3d</fix>
</trkpt>
<trkpt lat="-27.2744311" lon="151.2900647">
  <ele>351.76</ele>
  <time>2026-09-01T19:58:02Z</time>
  <course>137.76</course>
  <speed>0.03</speed>
  <fix>3d</fix>
</trkpt>
<trkpt lat="-27.2744313" lon="151.2900646">
  <ele>352.59</ele>
  <time>2026-09-01T19:58:02Z</time>
  <course>10.89</course>
  <speed>0.11045361017187261</speed>
  <fix>3d</fix>
</trkpt>
<trkpt lat="-27.2744314" lon="151.2900646">
  <ele>352.77</ele>
  <time>2026-09-01T19:58:02Z</time>
  <course>10.95</course>
  <speed>0.12041594578792296</speed>
  <fix>3d</fix>
</trkpt>
<trkpt lat="-27.2744311" lon="151.2900647">
  <ele>352.23</ele>
  <time>2026-09-01T19:58:02Z</time>
  <course>170.07</course>
  <speed>0.08</speed>
  <fix>3d</fix>
</trkpt>
<trkpt lat="-27.2744314" lon="151.2900646">
  <ele>352.83</ele>
  <time>2026-09-01T19:58:02Z</time>
  <course>10.97</course>
  <speed>0.130384048104053</speed>
  <fix>3d</fix>
</trkpt>
<trkpt lat="-27.2744315" lon="151.2900646">
  <ele>353.01</ele>
  <time>2026-09-01T19:58:02Z</time>
  <course>11.05</course>
  <speed>0.1414213562373095</speed>
  <fix>3d</fix>
</trkpt>
<trkpt lat="-27.2744311" lon="151.2900647">
  <ele>352.23</ele>
  <time>2026-09-01T19:58:02Z</time>
  <course>170.07</course>
  <speed>0.08</speed>
  <fix>3d</fix>
</trkpt>
<trkpt lat="-27.2744315" lon="151.2900646">
  <ele>353.08</ele>
  <time>2026-09-01T19:58:02Z</time>
  <course>11.07</course>
  <speed>0.15132745950421556</speed>
  <fix>3d</fix>
</trkpt>
<trkpt lat="-27.2744316" lon="151.2900646">
  <ele>353.26</ele>
  <time>2026-09-01T19:58:02Z</time>
  <course>11.14</course>
  <speed>0.16124515496597097</speed>
  <fix>3d</fix>
</trkpt>
<trkpt lat="-27.2744312" lon="151.2900647">
  <ele>352.71</ele>
  <time>2026-09-01T19:58:02Z</time>
  <course>178.17</course>
  <speed>0.12</speed>
  <fix>3d</fix>
</trkpt>
<trkpt lat="-27.2744316" lon="151.2900646">
  <ele>353.32</ele>
  <time>2026-09-01T19:58:02Z</time>
  <course>11.17</course>
  <speed>0.16124515496597097</speed>
  <fix>3d</fix>
</trkpt>
<trkpt lat="-27.2744317" lon="151.2900646">
  <ele>353.5</ele>
  <time>2026-09-01T19:58:02Z</time>
  <course>11.23</course>
  <speed>0.17262676501632068</speed>
  <fix>3d</fix>
</trkpt>
<trkpt lat="-27.2744312" lon="151.2900647">
  <ele>352.71</ele>
  <time>2026-09-01T19:58:02Z</time>
  <course>178.17</course>
  <speed>0.12</speed>
  <fix>3d</fix>
</trkpt>
<trkpt lat="-27.2744317" lon="151.2900646">
  <ele>353.52</ele>
  <time>2026-09-01T19:58:02Z</time>
  <course>11.24</course>
  <speed>0.17262676501632068</speed>
  <fix>3d</fix>
</trkpt>
<trkpt lat="-27.2744319" lon="151.2900646">
  <ele>353.75</ele>
  <time>2026-09-01T19:58:02Z</time>
  <course>11.29</course>
  <speed>0.1824828759089466</speed>
  <fix>3d</fix>
</trkpt>
<trkpt lat="-27.2744315" lon="151.2900647">
  <ele>353.2</ele>
  <time>2026-09-01T19:58:02Z</time>
  <course>182.67</course>
  <speed>0.16</speed>
  <fix>3d</fix>
</trkpt>
<trkpt lat="-27.2744319" lon="151.2900646">
  <ele>353.81</ele>
  <time>2026-09-01T19:58:02Z</time>
  <course>11.29</course>
  <speed>0.19235384061671343</speed>
  <fix>3d</fix>
</trkpt>
<trkpt lat="-27.274432" lon="151.2900646">
  <ele>353.99</ele>
  <time>2026-09-01T19:58:02Z</time>
  <course>11.27</course>
  <speed>0.19235384061671343</speed>
  <fix>3d</fix>
</trkpt>
<trkpt lat="-27.2744315" lon="151.2900647">
  <ele>353.2</ele>
  <time>2026-09-01T19:58:02Z</time>
  <course>182.67</course>
  <speed>0.16</speed>
  <fix>3d</fix>
</trkpt>
<trkpt lat="-27.2744321" lon="151.2900646">
  <ele>354.07</ele>
  <time>2026-09-01T19:58:02Z</time>
  <course>11.26</course>
  <speed>0.20223748416156684</speed>
  <fix>3d</fix>
</trkpt>
<trkpt lat="-27.2744322" lon="151.2900646">
  <ele>354.24</ele>
  <time>2026-09-01T19:58:02Z</time>
  <course>11.21</course>
  <speed>0.20223748416156684</speed>
  <fix>3d</fix>
</trkpt>
<trkpt lat="-27.2744318" lon="151.2900647">
  <ele>353.69</ele>
  <time>2026-09-01T19:58:02Z</time>
  <course>184.6</course>
  <speed>0.18</speed>
  <fix>3d</fix>
</trkpt>
<trkpt lat="-27.2744323" lon="151.2900646">
  <ele>354.31</ele>
  <time>2026-09-01T19:58:02Z</time>
  <course>11.19</course>
  <speed>0.20223748416156684</speed>
  <fix>3d</fix>
</trkpt>
<trkpt lat="-27.2744324" lon="151.2900646">
  <ele>354.49</ele>
  <time>2026-09-01T19:58:02Z</time>
  <course>11.15</course>
  <speed>0.21213203435596426</speed>
  <fix>3d</fix>
</trkpt>
<trkpt lat="-27.2744318" lon="151.2900647">
  <ele>353.69</ele>
  <time>2026-09-01T19:58:02Z</time>
  <course>184.6</course>
  <speed>0.18</speed>
  <fix>3d</fix>
</trkpt>
<trkpt lat="-27.2744324" lon="151.2900646">
  <ele>354.56</ele>
  <time>2026-09-01T19:58:02Z</time>
  <course>11.13</course>
  <speed>0.21213203435596426</speed>
  <fix>3d</fix>
</trkpt>
<trkpt lat="-27.2744326" lon="151.2900646">
  <ele>354.74</ele>
  <time>2026-09-01T19:58:02Z</time>
  <course>11.09</course>
  <speed>0.2220360331117452</speed>
  <fix>3d</fix>
</trkpt>
<trkpt lat="-27.2744322" lon="151.2900647">
  <ele>354.18</ele>
  <time>2026-09-01T19:58:02Z</time>
  <course>184.81</course>
  <speed>0.2</speed>
  <fix>3d</fix>
</trkpt>
<trkpt lat="-27.2744326" lon="151.2900646">
  <ele>354.75</ele>
  <time>2026-09-01T19:58:02Z</time>
  <course>11.09</course>
  <speed>0.2220360331117452</speed>
  <fix>3d</fix>
</trkpt>
<trkpt lat="-27.2744328" lon="151.2900646">
  <ele>354.99</ele>
  <time>2026-09-01T19:58:02Z</time>
  <course>11.05</course>
  <speed>0.2220360331117452</speed>
  <fix>3d</fix>
</trkpt>
<trkpt lat="-27.2744322" lon="151.2900647">
  <ele>354.18</ele>
  <time>2026-09-01T19:58:02Z</time>
  <course>184.81</course>
  <speed>0.2</speed>
  <fix>3d</fix>
</trkpt>
<trkpt lat="-27.2744328" lon="151.2900646">
  <ele>354.99</ele>
  <time>2026-09-01T19:58:02Z</time>
  <course>11.05</course>
  <speed>0.2220360331117452</speed>
  <fix>3d</fix>
</trkpt>
<trkpt lat="-27.2744329" lon="151.2900646">
  <ele>355.23</ele>
  <time>2026-09-01T19:58:02Z</time>
  <course>11.03</course>
  <speed>0.22090722034374521</speed>
  <fix>3d</fix>
</trkpt>
<trkpt lat="-27.2744326" lon="151.2900647">
  <ele>354.68</ele>
  <time>2026-09-01T19:58:02Z</time>
  <course>185.02</course>
  <speed>0.22</speed>
  <fix>3d</fix>
</trkpt>
<trkpt lat="-27.274433" lon="151.2900646">
  <ele>355.31</ele>
  <time>2026-09-01T19:58:02Z</time>
  <course>11.03</course>
  <speed>0.2308679276123039</speed>
  <fix>3d</fix>
</trkpt>
<trkpt lat="-27.2744332" lon="151.2900645">
  <ele>355.49</ele>
  <time>2026-09-01T19:58:02Z</time>
  <course>11.03</course>
  <speed>0.2308679276123039</speed>
  <fix>3d</fix>
</trkpt>
<trkpt lat="-27.2744326" lon="151.2900647">
  <ele>354.68</ele>
  <time>2026-09-01T19:58:02Z</time>
  <course>185.02</course>
  <speed>0.22</speed>
  <fix>3d</fix>
</trkpt>
<trkpt lat="-27.2744332" lon="151.2900645">
  <ele>355.55</ele>
  <time>2026-09-01T19:58:02Z</time>
  <course>11.03</course>
  <speed>0.2308679276123039</speed>
  <fix>3d</fix>
</trkpt>
<trkpt lat="-27.2744334" lon="151.2900645">
  <ele>355.74</ele>
  <time>2026-09-01T19:58:02Z</time>
  <course>11.03</course>
  <speed>0.2308679276123039</speed>
  <fix>3d</fix>
</trkpt>
<trkpt lat="-27.274433" lon="151.2900647">
  <ele>355.18</ele>
  <time>2026-09-01T19:58:02Z</time>
  <course>185.27</course>
  <speed>0.23</speed>
  <fix>3d</fix>
</trkpt>
<trkpt lat="-27.2744334" lon="151.2900645">
  <ele>355.81</ele>
  <time>2026-09-01T19:58:02Z</time>
  <course>11.03</course>
  <speed>0.23194827009486402</speed>
  <fix>3d</fix>
</trkpt>
<trkpt lat="-27.2744336" lon="151.2900645">
  <ele>355.99</ele>
  <time>2026-09-01T19:58:02Z</time>
  <course>11.03</course>
  <speed>0.23194827009486402</speed>
  <fix>3d</fix>
</trkpt>
<trkpt lat="-27.274433" lon="151.2900647">
  <ele>355.18</ele>
  <time>2026-09-01T19:58:02Z</time>
  <course>185.27</course>
  <speed>0.23</speed>
  <fix>3d</fix>
</trkpt>
<trkpt lat="-27.2744336" lon="151.2900645">
  <ele>356.06</ele>
  <time>2026-09-01T19:58:02Z</time>
  <course>11.02</course>
  <speed>0.23194827009486402</speed>
  <fix>3d</fix>
</trkpt>
<trkpt lat="-27.2744338" lon="151.2900645">
  <ele>356.24</ele>
  <time>2026-09-01T19:58:02Z</time>
  <course>11.01</course>
  <speed>0.2308679276123039</speed>
  <fix>3d</fix>
</trkpt>
<trkpt lat="-27.2744334" lon="151.2900647">
  <ele>355.68</ele>
  <time>2026-09-01T19:58:02Z</time>
  <course>185.51</course>
  <speed>0.23</speed>
  <fix>3d</fix>
</trkpt>
<trkpt lat="-27.2744338" lon="151.2900645">
  <ele>356.31</ele>
  <time>2026-09-01T19:58:02Z</time>
  <course>11.0</course>
  <speed>0.2308679276123039</speed>
  <fix>3d</fix>
</trkpt>
<trkpt lat="-27.274434" lon="151.2900645">
  <ele>356.48</ele>
  <time>2026-09-01T19:58:02Z</time>
  <course>10.98</course>
  <speed>0.2308679276123039</speed>
  <fix>3d</fix>
</trkpt>
<trkpt lat="-27.2744334" lon="151.2900647">
  <ele>355.68</ele>
  <time>2026-09-01T19:58:02Z</time>
  <course>185.51</course>
  <speed>0.23</speed>
  <fix>3d</fix>
</trkpt>
<trkpt lat="-27.274434" lon="151.2900645">
  <ele>356.54</ele>
  <time>2026-09-01T19:58:02Z</time>
  <course>10.98</course>
  <speed>0.2308679276123039</speed>
  <fix>3d</fix>
</trkpt>
<trkpt lat="-27.2744342" lon="151.2900645">
  <ele>356.72</ele>
  <time>2026-09-01T19:58:02Z</time>
  <course>10.96</course>
  <speed>0.23021728866442676</speed>
  <fix>3d</fix>
</trkpt>
<trkpt lat="-27.2744338" lon="151.2900646">
  <ele>356.17</ele>
  <time>2026-09-01T19:58:02Z</time>
  <course>185.93</course>
  <speed>0.23</speed>
  <fix>3d</fix>
</trkpt>
<trkpt lat="-27.2744342" lon="151.2900645">
  <ele>356.78</ele>
  <time>2026-09-01T19:58:02Z</time>
  <course>10.96</course>
  <speed>0.2308679276123039</speed>
  <fix>3d</fix>
</trkpt>
<trkpt lat="-27.2744344" lon="151.2900645">
  <ele>356.94</ele>
  <time>2026-09-01T19:58:02Z</time>
  <course>10.94</course>
  <speed>0.2308679276123039</speed>
  <fix>3d</fix>
</trkpt>
<trkpt lat="-27.2744338" lon="151.2900646">
  <ele>356.17</ele>
  <time>2026-09-01T19:58:02Z</time>
  <course>185.93</course>
  <speed>0.23</speed>
  <fix>3d</fix>
</trkpt>
<trkpt lat="-27.2744344" lon="151.2900645">
  <ele>356.99</ele>
  <time>2026-09-01T19:58:02Z</time>
  <course>10.94</course>
  <speed>0.23021728866442676</speed>
  <fix>3d</fix>
</trkpt>
<trkpt lat="-27.2744346" lon="151.2900645">
  <ele>357.16</ele>
  <time>2026-09-01T19:58:02Z</time>
  <course>10.92</course>
  <speed>0.2308679276123039</speed>
  <fix>3d</fix>
</trkpt>
<trkpt lat="-27.2744342" lon="151.2900646">
  <ele>356.65</ele>
  <time>2026-09-01T19:58:02Z</time>
  <course>186.48</course>
  <speed>0.23</speed>
  <fix>3d</fix>
</trkpt>
<trkpt lat="-27.2744348" lon="151.2900645">
  <ele>357.35</ele>
  <time>2026-09-01T19:58:02Z</time>
  <course>10.88</course>
  <speed>0.24083189157584592</speed>
  <fix>3d</fix>
</trkpt>
<trkpt lat="-27.2744342" lon="151.2900646">
  <ele>356.65</ele>
  <time>2026-09-01T19:58:02Z</time>
  <course>186.48</course>
  <speed>0.23</speed>
  <fix>3d</fix>
</trkpt>
<trkpt lat="-27.274435" lon="151.2900645">
  <ele>357.53</ele>
  <time>2026-09-01T19:58:02Z</time>
  <course>10.84</course>
  <speed>0.25079872407968906</speed>
  <fix>3d</fix>
</trkpt>
<trkpt lat="-27.2744347" lon="151.2900646">
  <ele>357.09</ele>
  <time>2026-09-01T19:58:02Z</time>
  <course>187.05</course>
  <speed>0.24</speed>
  <fix>3d</fix>
</trkpt>
<trkpt lat="-27.2744353" lon="151.2900644">
  <ele>357.69</ele>
  <time>2026-09-01T19:58:02Z</time>
  <course>10.81</course>
  <speed>0.25079872407968906</speed>
  <fix>3d</fix>
</trkpt>
<trkpt lat="-27.2744347" lon="151.2900646">
  <ele>357.09</ele>
  <time>2026-09-01T19:58:02Z</time>
  <course>187.05</course>
  <speed>0.24</speed>
  <fix>3d</fix>
</trkpt>
<trkpt lat="-27.2744355" lon="151.2900644">
  <ele>357.83</ele>
  <time>2026-09-01T19:58:02Z</time>
  <course>10.81</course>
  <speed>0.2109502310972899</speed>
  <fix>3d</fix>
</trkpt>
<trkpt lat="-27.2744351" lon="151.2900645">
  <ele>357.47</ele>
  <time>2026-09-01T19:58:02Z</time>
  <course>187.44</course>
  <speed>0.25</speed>
  <fix>3d</fix>
</trkpt>
<trkpt lat="-27.2744356" lon="151.2900644">
  <ele>357.95</ele>
  <time>2026-09-01T19:58:02Z</time>
  <course>10.81</course>
  <speed>0.13</speed>
  <fix>3d</fix>
</trkpt>
<trkpt lat="-27.2744351" lon="151.2900645">
  <ele>357.47</ele>
  <time>2026-09-01T19:58:02Z</time>
  <course>187.44</course>
  <speed>0.25</speed>
  <fix>3d</fix>
</trkpt>
<trkpt lat="-27.2744357" lon="151.2900644">
  <ele>358.04</ele>
  <time>2026-09-01T19:58:02Z</time>
  <course>10.71</course>
  <speed>0.01414213562373095</speed>
  <fix>3d</fix>
</trkpt>
<trkpt lat="-27.2744355" lon="151.2900644">
  <ele>357.76</ele>
  <time>2026-09-01T19:58:02Z</time>
  <course>188.16</course>
  <speed>0.19</speed>
  <fix>3d</fix>
</trkpt>
<trkpt lat="-27.2744357" lon="151.2900644">
  <ele>358.1</ele>
  <time>2026-09-01T19:58:02Z</time>
  <course>10.54</course>
  <speed>0.21377558326431947</speed>
  <fix>3d</fix>
</trkpt>
<trkpt lat="-27.2744355" lon="151.2900644">
  <ele>357.76</ele>
  <time>2026-09-01T19:58:02Z</time>
  <course>188.16</course>
  <speed>0.19</speed>
  <fix>3d</fix>
</trkpt>
<trkpt lat="-27.2744354" lon="151.2900644">
  <ele>358.15</ele>
  <time>2026-09-01T19:58:02Z</time>
  <course>10.37</course>
  <speed>0.48662100242385753</speed>
  <fix>3d</fix>
</trkpt>
<trkpt lat="-27.2744357" lon="151.2900644">
  <ele>357.97</ele>
  <time>2026-09-01T19:58:02Z</time>
  <course>357.5</course>
  <speed>0.03</speed>
  <fix>3d</fix>
</trkpt>
<trkpt lat="-27.2744348" lon="151.2900645">
  <ele>358.19</ele>
  <time>2026-09-01T19:58:02Z</time>
  <course>10.27</course>
  <speed>0.8203657720797473</speed>
  <fix>3d</fix>
</trkpt>
<trkpt lat="-27.2744357" lon="151.2900644">
  <ele>357.97</ele>
  <time>2026-09-01T19:58:02Z</time>
  <course>357.5</course>
  <speed>0.03</speed>
  <fix>3d</fix>
</trkpt>
<trkpt lat="-27.2744339" lon="151.2900647">
  <ele>358.22</ele>
  <time>2026-09-01T19:58:02Z</time>
  <course>10.05</course>
  <speed>1.213424904969401</speed>
  <fix>3d</fix>
</trkpt>
<trkpt lat="-27.2744353" lon="151.2900644">
  <ele>358.09</ele>
  <time>2026-09-01T19:58:02Z</time>
  <course>5.59</course>
  <speed>0.5</speed>
  <fix>3d</fix>
</trkpt>
<trkpt lat="-27.2744326" lon="151.2900649">
  <ele>358.24</ele>
  <time>2026-09-01T19:58:02Z</time>
  <course>9.92</course>
  <speed>1.6871573726241424</speed>
  <fix>3d</fix>
</trkpt>
<trkpt lat="-27.2744353" lon="151.2900644">
  <ele>358.09</ele>
  <time>2026-09-01T19:58:02Z</time>
  <course>5.59</course>
  <speed>0.5</speed>
  <fix>3d</fix>
</trkpt>
<trkpt lat="-27.2744309" lon="151.2900651">
  <ele>358.26</ele>
  <time>2026-09-01T19:58:02Z</time>
  <course>9.86</course>
  <speed>2.203361068912674</speed>
  <fix>3d</fix>
</trkpt>
<trkpt lat="-27.2744338" lon="151.2900646">
  <ele>358.16</ele>
  <time>2026-09-01T19:58:02Z</time>
  <course>5.72</course>
  <speed>1.23</speed>
  <fix>3d</fix>
</trkpt>
<trkpt lat="-27.2744287" lon="151.2900655">
  <ele>358.3</ele>
  <time>2026-09-01T19:58:02Z</time>
  <course>9.74</course>
  <speed>2.76904315603784</speed>
  <fix>3d</fix>
</trkpt>
<trkpt lat="-27.2744338" lon="151.2900646">
  <ele>358.16</ele>
  <time>2026-09-01T19:58:02Z</time>
  <course>5.72</course>
  <speed>1.23</speed>
  <fix>3d</fix>
</trkpt>
<trkpt lat="-27.274426" lon="151.2900658">
  <ele>358.34</ele>
  <time>2026-09-01T19:58:02Z</time>
  <course>9.56</course>
  <speed>3.344622549705721</speed>
  <fix>3d</fix>
</trkpt>
<trkpt lat="-27.2744308" lon="151.2900649">
  <ele>358.21</ele>
  <time>2026-09-01T19:58:02Z</time>
  <course>6.01</course>
  <speed>2.2</speed>
  <fix>3d</fix>
</trkpt>
<trkpt lat="-27.2744228" lon="151.2900663">
  <ele>358.4</ele>
  <time>2026-09-01T19:58:02Z</time>
  <course>9.48</course>
  <speed>3.8905141048452707</speed>
  <fix>3d</fix>
</trkpt>
<trkpt lat="-27.2744308" lon="151.2900649">
  <ele>358.21</ele>
  <time>2026-09-01T19:58:02Z</time>
  <course>6.01</course>
  <speed>2.2</speed>
  <fix>3d</fix>
</trkpt>
<trkpt lat="-27.2744192" lon="151.2900668">
  <ele>358.48</ele>
  <time>2026-09-01T19:58:02Z</time>
  <course>9.44</course>
  <speed>4.367150100465978</speed>
  <fix>3d</fix>
</trkpt>
<trkpt lat="-27.2744258" lon="151.2900655">
  <ele>358.29</ele>
  <time>2026-09-01T19:58:02Z</time>
  <course>6.5</course>
  <speed>3.31</speed>
  <fix>3d</fix>
</trkpt>
<trkpt lat="-27.2744151" lon="151.2900674">
  <ele>358.58</ele>
  <time>2026-09-01T19:58:02Z</time>
  <course>9.53</course>
  <speed>4.764714052280578</speed>
  <fix>3d</fix>
</trkpt>
<trkpt lat="-27.2744258" lon="151.2900655">
  <ele>358.29</ele>
  <time>2026-09-01T19:58:02Z</time>
  <course>6.5</course>
  <speed>3.31</speed>
  <fix>3d</fix>
</trkpt>
<trkpt lat="-27.2744108" lon="151.2900681">
  <ele>358.7</ele>
  <time>2026-09-01T19:58:02Z</time>
  <course>9.72</course>
  <speed>5.094801271884901</speed>
  <fix>3d</fix>
</trkpt>
<trkpt lat="-27.274419" lon="151.2900664">
  <ele>358.44</ele>
  <time>2026-09-01T19:58:02Z</time>
  <course>7.21</course>
  <speed>4.32</speed>
  <fix>3d</fix>
</trkpt>
<trkpt lat="-27.2744062" lon="151.2900689">
  <ele>358.85</ele>
  <time>2026-09-01T19:58:02Z</time>
  <course>10.13</course>
  <speed>5.359552220101974</speed>
  <fix>3d</fix>
</trkpt>
<trkpt lat="-27.274419" lon="151.2900664">
  <ele>358.44</ele>
  <time>2026-09-01T19:58:02Z</time>
  <course>7.21</course>
  <speed>4.32</speed>
  <fix>3d</fix>
</trkpt>
<trkpt lat="-27.2744014" lon="151.2900697">
  <ele>359.02</ele>
  <time>2026-09-01T19:58:02Z</time>
  <course>10.6</course>
  <speed>5.538519657814712</speed>
  <fix>3d</fix>
</trkpt>
<trkpt lat="-27.2744106" lon="151.2900677">
  <ele>358.66</ele>
  <time>2026-09-01T19:58:02Z</time>
  <course>8.41</course>
  <speed>5.07</speed>
  <fix>3d</fix>
</trkpt>
<trkpt lat="-27.2743965" lon="151.2900707">
  <ele>359.21</ele>
  <time>2026-09-01T19:58:02Z</time>
  <course>11.24</course>
  <speed>5.642632364419996</speed>
  <fix>3d</fix>
</trkpt>
<trkpt lat="-27.2744106" lon="151.2900677">
  <ele>358.66</ele>
  <time>2026-09-01T19:58:02Z</time>
  <course>8.41</course>
  <speed>5.07</speed>
  <fix>3d</fix>
</trkpt>
<trkpt lat="-27.2743916" lon="151.2900719">
  <ele>359.42</ele>
  <time>2026-09-01T19:58:02Z</time>
  <course>11.94</course>
  <speed>5.673314727740741</speed>
  <fix>3d</fix>
</trkpt>
<trkpt lat="-27.2744012" lon="151.2900694">
  <ele>358.99</ele>
  <time>2026-09-01T19:58:02Z</time>
  <course>10.3</course>
  <speed>5.53</speed>
  <fix>3d</fix>
</trkpt>
<trkpt lat="-27.2743867" lon="151.2900732">
  <ele>359.65</ele>
  <time>2026-09-01T19:58:02Z</time>
  <course>12.72</course>
  <speed>5.624811107939537</speed>
  <fix>3d</fix>
</trkpt>
<trkpt lat="-27.2744012" lon="151.2900694">
  <ele>358.99</ele>
  <time>2026-09-01T19:58:02Z</time>
  <course>10.3</course>
  <speed>5.53</speed>
  <fix>3d</fix>
</trkpt>
<trkpt lat="-27.2743819" lon="151.2900746">
  <ele>359.9</ele>
  <time>2026-09-01T19:58:02Z</time>
  <course>13.51</course>
  <speed>5.531600130161254</speed>
  <fix>3d</fix>
</trkpt>
<trkpt lat="-27.2743913" lon="151.2900717">
  <ele>359.4</ele>
  <time>2026-09-01T19:58:02Z</time>
  <course>12.86</course>
  <speed>5.68</speed>
  <fix>3d</fix>
</trkpt>
<trkpt lat="-27.2743772" lon="151.2900762">
  <ele>360.16</ele>
  <time>2026-09-01T19:58:02Z</time>
  <course>14.29</course>
  <speed>5.417388669829774</speed>
  <fix>3d</fix>
</trkpt>
<trkpt lat="-27.2743913" lon="151.2900717">
  <ele>359.4</ele>
  <time>2026-09-01T19:58:02Z</time>
  <course>12.86</course>
  <speed>5.68</speed>
  <fix>3d</fix>
</trkpt>
<trkpt lat="-27.2743726" lon="151.2900778">
  <ele>360.43</ele>
  <time>2026-09-01T19:58:02Z</time>
  <course>15.02</course>
  <speed>5.306844636881695</speed>
  <fix>3d</fix>
</trkpt>
<trkpt lat="-27.2743814" lon="151.2900745">
  <ele>359.87</ele>
  <time>2026-09-01T19:58:02Z</time>
  <course>15.82</course>
  <speed>5.58</speed>
  <fix>3d</fix>
</trkpt>
<trkpt lat="-27.2743682" lon="151.2900796">
  <ele>360.7</ele>
  <time>2026-09-01T19:58:02Z</time>
  <course>15.71</course>
  <speed>5.206006146750116</speed>
  <fix>3d</fix>
</trkpt>
<trkpt lat="-27.2743814" lon="151.2900745">
  <ele>359.87</ele>
  <time>2026-09-01T19:58:02Z</time>
  <course>15.82</course>
  <speed>5.58</speed>
  <fix>3d</fix>
</trkpt>
<trkpt lat="-27.2743638" lon="151.2900814">
  <ele>360.98</ele>
  <time>2026-09-01T19:58:02Z</time>
  <course>16.38</course>
  <speed>5.1140981609664085</speed>
  <fix>3d</fix>
</trkpt>
<trkpt lat="-27.274372" lon="151.2900779">
  <ele>360.4</ele>
  <time>2026-09-01T19:58:02Z</time>
  <course>18.84</course>
  <speed>5.38</speed>
  <fix>3d</fix>
</trkpt>
<trkpt lat="-27.2743596" lon="151.2900833">
  <ele>361.27</ele>
  <time>2026-09-01T19:58:02Z</time>
  <course>17.0</course>
  <speed>5.025146764025902</speed>
  <fix>3d</fix>
</trkpt>
<trkpt lat="-27.274372" lon="151.2900779">
  <ele>360.4</ele>
  <time>2026-09-01T19:58:02Z</time>
  <course>18.84</course>
  <speed>5.38</speed>
  <fix>3d</fix>
</trkpt>
<trkpt lat="-27.2743555" lon="151.2900854">
  <ele>361.55</ele>
  <time>2026-09-01T19:58:02Z</time>
  <course>17.59</course>
  <speed>4.966538029654057</speed>
  <fix>3d</fix>
</trkpt>
<trkpt lat="-27.2743631" lon="151.2900816">
  <ele>360.95</ele>
  <time>2026-09-01T19:58:02Z</time>
  <course>21.71</course>
  <speed>5.18</speed>
  <fix>3d</fix>
</trkpt>
<trkpt lat="-27.2743515" lon="151.2900875">
  <ele>361.84</ele>
  <time>2026-09-01T19:58:02Z</time>
  <course>18.19</course>
  <speed>4.910570231653346</speed>
  <fix>3d</fix>
</trkpt>
<trkpt lat="-27.2743631" lon="151.2900816">
  <ele>360.95</ele>
  <time>2026-09-01T19:58:02Z</time>
  <course>21.71</course>
  <speed>5.18</speed>
  <fix>3d</fix>
</trkpt>
<trkpt lat="-27.2743475" lon="151.2900897">
  <ele>362.12</ele>
  <time>2026-09-01T19:58:02Z</time>
  <course>18.85</course>
  <speed>4.8839737919034745</speed>
  <fix>3d</fix>
</trkpt>
<trkpt lat="-27.2743546" lon="151.2900856">
  <ele>361.52</ele>
  <time>2026-09-01T19:58:02Z</time>
  <course>24.41</course>
  <speed>5.03</speed>
  <fix>3d</fix>
</trkpt>
<trkpt lat="-27.2743436" lon="151.290092">
  <ele>362.41</ele>
  <time>2026-09-01T19:58:02Z</time>
  <course>19.55</course>
  <speed>4.854791447631916</speed>
  <fix>3d</fix>
</trkpt>
<trkpt lat="-27.2743546" lon="151.2900856">
  <ele>361.52</ele>
  <time>2026-09-01T19:58:02Z</time>
  <course>24.41</course>
  <speed>5.03</speed>
  <fix>3d</fix>
</trkpt>
<trkpt lat="-27.2743397" lon="151.2900943">
  <ele>362.68</ele>
  <time>2026-09-01T19:58:02Z</time>
  <course>20.22</course>
  <speed>4.827463101878667</speed>
  <fix>3d</fix>
</trkpt>
<trkpt lat="-27.2743465" lon="151.29009">
  <ele>362.09</ele>
  <time>2026-09-01T19:58:02Z</time>
  <course>26.9</course>
  <speed>4.94</speed>
  <fix>3d</fix>
</trkpt>
<trkpt lat="-27.2743359" lon="151.2900967">
  <ele>362.96</ele>
  <time>2026-09-01T19:58:02Z</time>
  <course>20.84</course>
  <speed>4.796926099076366</speed>
  <fix>3d</fix>
</trkpt>
<trkpt lat="-27.2743465" lon="151.29009">
  <ele>362.09</ele>
  <time>2026-09-01T19:58:02Z</time>
  <course>26.9</course>
  <speed>4.94</speed>
  <fix>3d</fix>
</trkpt>
<trkpt lat="-27.2743322" lon="151.2900992">
  <ele>363.23</ele>
  <time>2026-09-01T19:58:02Z</time>
  <course>21.4</course>
  <speed>4.762740807560285</speed>
  <fix>3d</fix>
</trkpt>
<trkpt lat="-27.2743387" lon="151.2900947">
  <ele>362.65</ele>
  <time>2026-09-01T19:58:02Z</time>
  <course>29.13</course>
  <speed>4.87</speed>
  <fix>3d</fix>
</trkpt>
<trkpt lat="-27.2743285" lon="151.2901018">
  <ele>363.49</ele>
  <time>2026-09-01T19:58:02Z</time>
  <course>21.92</course>
  <speed>4.721440458165283</speed>
  <fix>3d</fix>
</trkpt>
<trkpt lat="-27.2743387" lon="151.2900947">
  <ele>362.65</ele>
  <time>2026-09-01T19:58:02Z</time>
  <course>29.13</course>
  <speed>4.87</speed>
  <fix>3d</fix>
</trkpt>
<trkpt lat="-27.2743249" lon="151.2901043">
  <ele>363.76</ele>
  <time>2026-09-01T19:58:02Z</time>
  <course>22.42</course>
  <speed>4.676152264415692</speed>
  <fix>3d</fix>
</trkpt>
<trkpt lat="-27.2743313" lon="151.2900996">
  <ele>363.2</ele>
  <time>2026-09-01T19:58:02Z</time>
  <course>31.15</course>
  <speed>4.8</speed>
  <fix>3d</fix>
</trkpt>
<trkpt lat="-27.2743214" lon="151.2901069">
  <ele>364.02</ele>
  <time>2026-09-01T19:58:02Z</time>
  <course>22.9</course>
  <speed>4.6321485295702685</speed>
  <fix>3d</fix>
</trkpt>
<trkpt lat="-27.2743313" lon="151.2900996">
  <ele>363.2</ele>
  <time>2026-09-01T19:58:02Z</time>
  <course>31.15</course>
  <speed>4.8</speed>
  <fix>3d</fix>
</trkpt>
<trkpt lat="-27.274318" lon="151.2901096">
  <ele>364.27</ele>
  <time>2026-09-01T19:58:02Z</time>
  <course>23.37</course>
  <speed>4.589466199897326</speed>
  <fix>3d</fix>
</trkpt>
<trkpt lat="-27.274324" lon="151.2901046">
  <ele>363.72</ele>
  <time>2026-09-01T19:58:02Z</time>
  <course>33.08</course>
  <speed>4.71</speed>
  <fix>3d</fix>
</trkpt>
<trkpt lat="-27.2743146" lon="151.2901123">
  <ele>364.52</ele>
  <time>2026-09-01T19:58:02Z</time>
  <course>23.84</course>
  <speed>4.548142477979335</speed>
  <fix>3d</fix>
</trkpt>
<trkpt lat="-27.274324" lon="151.2901046">
  <ele>363.72</ele>
  <time>2026-09-01T19:58:02Z</time>
  <course>33.08</course>
  <speed>4.71</speed>
  <fix>3d</fix>
</trkpt>
<trkpt lat="-27.2743113" lon="151.2901151">
  <ele>364.78</ele>
  <time>2026-09-01T19:58:02Z</time>
  <course>24.31</course>
  <speed>4.494196257396866</speed>
  <fix>3d</fix>
</trkpt>
<trkpt lat="-27.2743171" lon="151.2901099">
  <ele>364.23</ele>
  <time>2026-09-01T19:58:02Z</time>
  <course>34.99</course>
  <speed>4.62</speed>
  <fix>3d</fix>
</trkpt>
<trkpt lat="-27.274308" lon="151.2901179">
  <ele>365.03</ele>
  <time>2026-09-01T19:58:02Z</time>
  <course>24.78</course>
  <speed>4.449460641471053</speed>
  <fix>3d</fix>
</trkpt>
<trkpt lat="-27.2743171" lon="151.2901099">
  <ele>364.23</ele>
  <time>2026-09-01T19:58:02Z</time>
  <course>34.99</course>
  <speed>4.62</speed>
  <fix>3d</fix>
</trkpt>
<trkpt lat="-27.2743049" lon="151.2901207">
  <ele>365.27</ele>
  <time>2026-09-01T19:58:02Z</time>
  <course>25.23</course>
  <speed>4.412266991014937</speed>
  <fix>3d</fix>
</trkpt>
<trkpt lat="-27.2743104" lon="151.2901154">
  <ele>364.73</ele>
  <time>2026-09-01T19:58:02Z</time>
  <course>36.89</course>
  <speed>4.52</speed>
  <fix>3d</fix>
</trkpt>
<trkpt lat="-27.2743018" lon="151.2901235">
  <ele>365.51</ele>
  <time>2026-09-01T19:58:02Z</time>
  <course>25.69</course>
  <speed>4.370102973615152</speed>
  <fix>3d</fix>
</trkpt>
<trkpt lat="-27.2743104" lon="151.2901154">
  <ele>364.73</ele>
  <time>2026-09-01T19:58:02Z</time>
  <course>36.89</course>
  <speed>4.52</speed>
  <fix>3d</fix>
</trkpt>
<trkpt lat="-27.2742988" lon="151.2901263">
  <ele>365.76</ele>
  <time>2026-09-01T19:58:02Z</time>
  <course>26.14</course>
  <speed>4.329214709390145</speed>
  <fix>3d</fix>
</trkpt>
<trkpt lat="-27.274304" lon="151.290121">
  <ele>365.22</ele>
  <time>2026-09-01T19:58:02Z</time>
  <course>38.79</course>
  <speed>4.43</speed>
  <fix>3d</fix>
</trkpt>
<trkpt lat="-27.2742959" lon="151.2901292">
  <ele>366.0</ele>
  <time>2026-09-01T19:58:02Z</time>
  <course>26.59</course>
  <speed>4.290314673773941</speed>
  <fix>3d</fix>
</trkpt>
<trkpt lat="-27.274304" lon="151.290121">
  <ele>365.22</ele>
  <time>2026-09-01T19:58:02Z</time>
  <course>38.79</course>
  <speed>4.43</speed>
  <fix>3d</fix>
</trkpt>
<trkpt lat="-27.274293" lon="151.2901322">
  <ele>366.24</ele>
  <time>2026-09-01T19:58:02Z</time>
  <course>27.02</course>
  <speed>4.259131366839957</speed>
  <fix>3d</fix>
</trkpt>
<trkpt lat="-27.2742979" lon="151.2901266">
  <ele>365.71</ele>
  <time>2026-09-01T19:58:02Z</time>
  <course>40.66</course>
  <speed>4.34</speed>
  <fix>3d</fix>
</trkpt>
<trkpt lat="-27.2742902" lon="151.2901351">
  <ele>366.48</ele>
  <time>2026-09-01T19:58:02Z</time>
  <course>27.45</course>
  <speed>4.229089736574527</speed>
  <fix>3d</fix>
</trkpt>
<trkpt lat="-27.2742979" lon="151.2901266">
  <ele>365.71</ele>
  <time>2026-09-01T19:58:02Z</time>
  <course>40.66</course>
  <speed>4.34</speed>
  <fix>3d</fix>
</trkpt>
<trkpt lat="-27.2742874" lon="151.2901381">
  <ele>366.73</ele>
  <time>2026-09-01T19:58:02Z</time>
  <course>27.87</course>
  <speed>4.200238088489747</speed>
  <fix>3d</fix>
</trkpt>
<trkpt lat="-27.2742922" lon="151.2901324">
  <ele>366.19</ele>
  <time>2026-09-01T19:58:02Z</time>
  <course>42.47</course>
  <speed>4.27</speed>
  <fix>3d</fix>
</trkpt>
<trkpt lat="-27.2742848" lon="151.2901411">
  <ele>366.97</ele>
  <time>2026-09-01T19:58:02Z</time>
  <course>28.29</course>
  <speed>4.1723135069167565</speed>
  <fix>3d</fix>
</trkpt>
<trkpt lat="-27.2742922" lon="151.2901324">
  <ele>366.19</ele>
  <time>2026-09-01T19:58:02Z</time>
  <course>42.47</course>
  <speed>4.27</speed>
  <fix>3d</fix>
</trkpt>
<trkpt lat="-27.2742821" lon="151.2901441">
  <ele>367.22</ele>
  <time>2026-09-01T19:58:02Z</time>
  <course>28.71</course>
  <speed>4.152071772019362</speed>
  <fix>3d</fix>
</trkpt>
<trkpt lat="-27.2742867" lon="151.2901383">
  <ele>366.68</ele>
  <time>2026-09-01T19:58:02Z</time>
  <course>44.21</course>
  <speed>4.2</speed>
  <fix>3d</fix>
</trkpt>
<trkpt lat="-27.2742795" lon="151.2901471">
  <ele>367.47</ele>
  <time>2026-09-01T19:58:02Z</time>
  <course>29.11</course>
  <speed>4.125639344392575</speed>
  <fix>3d</fix>
</trkpt>
<trkpt lat="-27.2742867" lon="151.2901383">
  <ele>366.68</ele>
  <time>2026-09-01T19:58:02Z</time>
  <course>44.21</course>
  <speed>4.2</speed>
  <fix>3d</fix>
</trkpt>
<trkpt lat="-27.274277" lon="151.2901501">
  <ele>367.71</ele>
  <time>2026-09-01T19:58:02Z</time>
  <course>29.5</course>
  <speed>4.114134173796475</speed>
  <fix>3d</fix>
</trkpt>
<trkpt lat="-27.2742814" lon="151.2901443">
  <ele>367.17</ele>
  <time>2026-09-01T19:58:02Z</time>
  <course>45.84</course>
  <speed>4.15</speed>
  <fix>3d</fix>
</trkpt>
<trkpt lat="-27.2742745" lon="151.2901532">
  <ele>367.96</ele>
  <time>2026-09-01T19:58:02Z</time>
  <course>29.88</course>
  <speed>4.095900389413786</speed>
  <fix>3d</fix>
</trkpt>
<trkpt lat="-27.2742814" lon="151.2901443">
  <ele>367.17</ele>
  <time>2026-09-01T19:58:02Z</time>
  <course>45.84</course>
  <speed>4.15</speed>
  <fix>3d</fix>
</trkpt>
<trkpt lat="-27.2742721" lon="151.2901563">
  <ele>368.21</ele>
  <time>2026-09-01T19:58:02Z</time>
  <course>30.26</course>
  <speed>4.084801096748776</speed>
  <fix>3d</fix>
</trkpt>
<trkpt lat="-27.2742762" lon="151.2901503">
  <ele>367.67</ele>
  <time>2026-09-01T19:58:02Z</time>
  <course>47.35</course>
  <speed>4.11</speed>
  <fix>3d</fix>
</trkpt>
<trkpt lat="-27.2742697" lon="151.2901594">
  <ele>368.45</ele>
  <time>2026-09-01T19:58:02Z</time>
  <course>30.63</course>
  <speed>4.074162490623072</speed>
  <fix>3d</fix>
</trkpt>
<trkpt lat="-27.2742762" lon="151.2901503">
  <ele>367.67</ele>
  <time>2026-09-01T19:58:02Z</time>
  <course>47.35</course>
  <speed>4.11</speed>
  <fix>3d</fix>
</trkpt>
<trkpt lat="-27.2742673" lon="151.2901626">
  <ele>368.7</ele>
  <time>2026-09-01T19:58:02Z</time>
  <course>30.99</course>
  <speed>4.071719538475115</speed>
  <fix>3d</fix>
</trkpt>
<trkpt lat="-27.2742713" lon="151.2901564">
  <ele>368.17</ele>
  <time>2026-09-01T19:58:02Z</time>
  <course>48.72</course>
  <speed>4.08</speed>
  <fix>3d</fix>
</trkpt>
<trkpt lat="-27.2742649" lon="151.2901657">
  <ele>368.95</ele>
  <time>2026-09-01T19:58:02Z</time>
  <course>31.34</course>
  <speed>4.0683411852989915</speed>
  <fix>3d</fix>
</trkpt>
<trkpt lat="-27.2742713" lon="151.2901564">
  <ele>368.17</ele>
  <time>2026-09-01T19:58:02Z</time>
  <course>48.72</course>
  <speed>4.08</speed>
  <fix>3d</fix>
</trkpt>
<trkpt lat="-27.2742626" lon="151.2901689">
  <ele>369.2</ele>
  <time>2026-09-01T19:58:02Z</time>
  <course>31.69</course>
  <speed>4.065279818167502</speed>
  <fix>3d</fix>
</trkpt>
<trkpt lat="-27.2742665" lon="151.2901627">
  <ele>368.67</ele>
  <time>2026-09-01T19:58:02Z</time>
  <course>49.94</course>
  <speed>4.06</speed>
  <fix>3d</fix>
</trkpt>
<trkpt lat="-27.2742603" lon="151.2901721">
  <ele>369.45</ele>
  <time>2026-09-01T19:58:02Z</time>
  <course>32.02</course>
  <speed>4.068673002343639</speed>
  <fix>3d</fix>
</trkpt>
<trkpt lat="-27.2742665" lon="151.2901627">
  <ele>368.67</ele>
  <time>2026-09-01T19:58:02Z</time>
  <course>49.94</course>
  <speed>4.06</speed>
  <fix>3d</fix>
</trkpt>
<trkpt lat="-27.274258" lon="151.2901753">
  <ele>369.7</ele>
  <time>2026-09-01T19:58:02Z</time>
  <course>32.34</course>
  <speed>4.072259814893937</speed>
  <fix>3d</fix>
</trkpt>
<trkpt lat="-27.2742619" lon="151.2901691">
  <ele>369.17</ele>
  <time>2026-09-01T19:58:02Z</time>
  <course>51.01</course>
  <speed>4.06</speed>
  <fix>3d</fix>
</trkpt>
<trkpt lat="-27.2742558" lon="151.2901786">
  <ele>369.95</ele>
  <time>2026-09-01T19:58:02Z</time>
  <course>32.66</course>
  <speed>4.076039744654117</speed>
  <fix>3d</fix>
</trkpt>
<trkpt lat="-27.2742619" lon="151.2901691">
  <ele>369.17</ele>
  <time>2026-09-01T19:58:02Z</time>
  <course>51.01</course>
  <speed>4.06</speed>
  <fix>3d</fix>
</trkpt>
<trkpt lat="-27.2742535" lon="151.2901818">
  <ele>370.2</ele>
  <time>2026-09-01T19:58:02Z</time>
  <course>32.97</course>
  <speed>4.080012254883556</speed>
  <fix>3d</fix>
</trkpt>
<trkpt lat="-27.2742573" lon="151.2901755">
  <ele>369.67</ele>
  <time>2026-09-01T19:58:02Z</time>
  <course>51.94</course>
  <speed>4.06</speed>
  <fix>3d</fix>
</trkpt>
<trkpt lat="-27.2742513" lon="151.2901851">
  <ele>370.45</ele>
  <time>2026-09-01T19:58:03Z</time>
  <course>33.28</course>
  <speed>4.098158122864465</speed>
  <fix>3d</fix>
</trkpt>
<trkpt lat="-27.2742573" lon="151.2901755">
  <ele>369.67</ele>
  <time>2026-09-01T19:58:03Z</time>
  <course>51.94</course>
  <speed>4.06</speed>
  <fix>3d</fix>
</trkpt>
<trkpt lat="-27.2742491" lon="151.2901884">
  <ele>370.7</ele>
  <time>2026-09-01T19:58:03Z</time>
  <course>33.57</course>
  <speed>4.108381676524225</speed>
  <fix>3d</fix>
</trkpt>
<trkpt lat="-27.2742529" lon="151.290182">
  <ele>370.17</ele>
  <time>2026-09-01T19:58:03Z</time>
  <course>52.72</course>
  <speed>4.07</speed>
  <fix>3d</fix>
</trkpt>
<trkpt lat="-27.2742469" lon="151.2901918">
  <ele>370.95</ele>
  <time>2026-09-01T19:58:03Z</time>
  <course>33.86</course>
  <speed>4.118701251608327</speed>
  <fix>3d</fix>
</trkpt>
<trkpt lat="-27.2742529" lon="151.290182">
  <ele>370.17</ele>
  <time>2026-09-01T19:58:03Z</time>
  <course>52.72</course>
  <speed>4.07</speed>
  <fix>3d</fix>
</trkpt>
<trkpt lat="-27.2742447" lon="151.2901951">
  <ele>371.19</ele>
  <time>2026-09-01T19:58:03Z</time>
  <course>34.14</course>
  <speed>4.126814752324122</speed>
  <fix>3d</fix>
</trkpt>
<trkpt lat="-27.2742485" lon="151.2901886">
  <ele>370.67</ele>
  <time>2026-09-01T19:58:03Z</time>
  <course>53.35</course>
  <speed>4.09</speed>
  <fix>3d</fix>
</trkpt>
<trkpt lat="-27.2742425" lon="151.2901985">
  <ele>371.43</ele>
  <time>2026-09-01T19:58:03Z</time>
  <course>34.41</course>
  <speed>4.1430664971733195</speed>
  <fix>3d</fix>
</trkpt>
<trkpt lat="-27.2742485" lon="151.2901886">
  <ele>370.67</ele>
  <time>2026-09-01T19:58:03Z</time>
  <course>53.35</course>
  <speed>4.09</speed>
  <fix>3d</fix>
</trkpt>
<trkpt lat="-27.2742403" lon="151.2902019">
  <ele>371.65</ele>
  <time>2026-09-01T19:58:03Z</time>
  <course>34.67</course>
  <speed>4.159350910899439</speed>
  <fix>3d</fix>
</trkpt>
<trkpt lat="-27.2742441" lon="151.2901953">
  <ele>371.16</ele>
  <time>2026-09-01T19:58:03Z</time>
  <course>53.8</course>
  <speed>4.12</speed>
  <fix>3d</fix>
</trkpt>
<trkpt lat="-27.2742381" lon="151.2902053">
  <ele>371.86</ele>
  <time>2026-09-01T19:58:03Z</time>
  <course>34.92</course>
  <speed>4.173296059471458</speed>
  <fix>3d</fix>
</trkpt>
<trkpt lat="-27.2742441" lon="151.2901953">
  <ele>371.16</ele>
  <time>2026-09-01T19:58:03Z</time>
  <course>53.8</course>
  <speed>4.12</speed>
  <fix>3d</fix>
</trkpt>
<trkpt lat="-27.2742359" lon="151.2902087">
  <ele>372.06</ele>
  <time>2026-09-01T19:58:03Z</time>
  <course>35.15</course>
  <speed>4.181447117924606</speed>
  <fix>3d</fix>
</trkpt>
<trkpt lat="-27.2742397" lon="151.290202">
  <ele>371.62</ele>
  <time>2026-09-01T19:58:03Z</time>
  <course>54.09</course>
  <speed>4.15</speed>
  <fix>3d</fix>
</trkpt>
<trkpt lat="-27.2742337" lon="151.2902121">
  <ele>372.25</ele>
  <time>2026-09-01T19:58:03Z</time>
  <course>35.37</course>
  <speed>4.18960618674357</speed>
  <fix>3d</fix>
</trkpt>
<trkpt lat="-27.2742397" lon="151.290202">
  <ele>371.62</ele>
  <time>2026-09-01T19:58:03Z</time>
  <course>54.09</course>
  <speed>4.15</speed>
  <fix>3d</fix>
</trkpt>
<trkpt lat="-27.2742315" lon="151.2902156">
  <ele>372.41</ele>
  <time>2026-09-01T19:58:03Z</time>
  <course>35.57</course>
  <speed>4.197773219219923</speed>
  <fix>3d</fix>
</trkpt>
<trkpt lat="-27.2742354" lon="151.2902089">
  <ele>372.04</ele>
  <time>2026-09-01T19:58:03Z</time>
  <course>54.28</course>
  <speed>4.17</speed>
  <fix>3d</fix>
</trkpt>
<trkpt lat="-27.2742293" lon="151.290219">
  <ele>372.55</ele>
  <time>2026-09-01T19:58:03Z</time>
  <course>35.76</course>
  <speed>4.205948168962618</speed>
  <fix>3d</fix>
</trkpt>
<trkpt lat="-27.2742354" lon="151.2902089">
  <ele>372.04</ele>
  <time>2026-09-01T19:58:03Z</time>
  <course>54.28</course>
  <speed>4.17</speed>
  <fix>3d</fix>
</trkpt>
<trkpt lat="-27.2742271" lon="151.2902225">
  <ele>372.66</ele>
  <time>2026-09-01T19:58:03Z</time>
  <course>35.93</course>
  <speed>4.19201622134266</speed>
  <fix>3d</fix>
</trkpt>
<trkpt lat="-27.274231" lon="151.2902158">
  <ele>372.38</ele>
  <time>2026-09-01T19:58:03Z</time>
  <course>54.43</course>
  <speed>4.19</speed>
  <fix>3d</fix>
</trkpt>
<trkpt lat="-27.2742249" lon="151.2902259">
  <ele>372.76</ele>
  <time>2026-09-01T19:58:03Z</time>
  <course>36.09</course>
  <speed>4.174841314349565</speed>
  <fix>3d</fix>
</trkpt>
<trkpt lat="-27.274231" lon="151.2902158">
  <ele>372.38</ele>
  <time>2026-09-01T19:58:03Z</time>
  <course>54.43</course>
  <speed>4.19</speed>
  <fix>3d</fix>
</trkpt>
<trkpt lat="-27.2742228" lon="151.2902293">
  <ele>372.85</ele>
  <time>2026-09-01T19:58:03Z</time>
  <course>36.25</course>
  <speed>4.1552376586664685</speed>
  <fix>3d</fix>
</trkpt>
<trkpt lat="-27.2742266" lon="151.2902227">
  <ele>372.65</ele>
  <time>2026-09-01T19:58:03Z</time>
  <course>54.68</course>
  <speed>4.18</speed>
  <fix>3d</fix>
</trkpt>
<trkpt lat="-27.2742206" lon="151.2902328">
  <ele>372.91</ele>
  <time>2026-09-01T19:58:03Z</time>
  <course>36.4</course>
  <speed>4.116114672843797</speed>
  <fix>3d</fix>
</trkpt>
<trkpt lat="-27.2742266" lon="151.2902227">
  <ele>372.65</ele>
  <time>2026-09-01T19:58:03Z</time>
  <course>54.68</course>
  <speed>4.18</speed>
  <fix>3d</fix>
</trkpt>
<trkpt lat="-27.2742185" lon="151.2902362">
  <ele>372.96</ele>
  <time>2026-09-01T19:58:03Z</time>
  <course>36.55</course>
  <speed>4.090990100208017</speed>
  <fix>3d</fix>
</trkpt>
<trkpt lat="-27.2742223" lon="151.2902296">
  <ele>372.84</ele>
  <time>2026-09-01T19:58:03Z</time>
  <course>55.11</course>
  <speed>4.14</speed>
  <fix>3d</fix>
</trkpt>
<trkpt lat="-27.2742165" lon="151.2902396">
  <ele>373.0</ele>
  <time>2026-09-01T19:58:03Z</time>
  <course>36.7</course>
  <speed>4.065956222095855</speed>
  <fix>3d</fix>
</trkpt>
<trkpt lat="-27.2742223" lon="151.2902296">
  <ele>372.84</ele>
  <time>2026-09-01T19:58:03Z</time>
  <course>55.11</course>
  <speed>4.14</speed>
  <fix>3d</fix>
</trkpt>
<trkpt lat="-27.2742144" lon="151.290243">
  <ele>373.03</ele>
  <time>2026-09-01T19:58:03Z</time>
  <course>36.86</course>
  <speed>4.046541733381728</speed>
  <fix>3d</fix>
</trkpt>
<trkpt lat="-27.2742181" lon="151.2902364">
  <ele>372.95</ele>
  <time>2026-09-01T19:58:03Z</time>
  <course>55.62</course>
  <speed>4.09</speed>
  <fix>3d</fix>
</trkpt>
<trkpt lat="-27.2742124" lon="151.2902464">
  <ele>373.04</ele>
  <time>2026-09-01T19:58:03Z</time>
  <course>37.01</course>
  <speed>4.021653888638355</speed>
  <fix>3d</fix>
</trkpt>
<trkpt lat="-27.2742181" lon="151.2902364">
  <ele>372.95</ele>
  <time>2026-09-01T19:58:03Z</time>
  <course>55.62</course>
  <speed>4.09</speed>
  <fix>3d</fix>
</trkpt>
<trkpt lat="-27.2742104" lon="151.2902498">
  <ele>373.05</ele>
  <time>2026-09-01T19:58:03Z</time>
  <course>37.16</course>
  <speed>4.010698193581761</speed>
  <fix>3d</fix>
</trkpt>
<trkpt lat="-27.274214" lon="151.2902432">
  <ele>373.02</ele>
  <time>2026-09-01T19:58:03Z</time>
  <course>56.13</course>
  <speed>4.04</speed>
  <fix>3d</fix>
</trkpt>
<trkpt lat="-27.2742084" lon="151.2902531">
  <ele>373.06</ele>
  <time>2026-09-01T19:58:03Z</time>
  <course>37.3</course>
  <speed>3.991415788915006</speed>
  <fix>3d</fix>
</trkpt>
<trkpt lat="-27.274214" lon="151.2902432">
  <ele>373.02</ele>
  <time>2026-09-01T19:58:03Z</time>
  <course>56.13</course>
  <speed>4.04</speed>
  <fix>3d</fix>
</trkpt>
<trkpt lat="-27.2742065" lon="151.2902565">
  <ele>373.05</ele>
  <time>2026-09-01T19:58:03Z</time>
  <course>37.44</course>
  <speed>3.9859879578342934</speed>
  <fix>3d</fix>
</trkpt>
<trkpt lat="-27.2742099" lon="151.2902499">
  <ele>373.04</ele>
  <time>2026-09-01T19:58:03Z</time>
  <course>56.57</course>
  <speed>4.0</speed>
  <fix>3d</fix>
</trkpt>
<trkpt lat="-27.2742045" lon="151.2902599">
  <ele>373.04</ele>
  <time>2026-09-01T19:58:03Z</time>
  <course>37.57</course>
  <speed>3.9751855302614496</speed>
  <fix>3d</fix>
</trkpt>
<trkpt lat="-27.2742099" lon="151.2902499">
  <ele>373.04</ele>
  <time>2026-09-01T19:58:03Z</time>
  <course>56.57</course>
  <speed>4.0</speed>
  <fix>3d</fix>
</trkpt>
<trkpt lat="-27.2742026" lon="151.2902632">
  <ele>373.03</ele>
  <time>2026-09-01T19:58:03Z</time>
  <course>37.69</course>
  <speed>3.969811078628302</speed>
  <fix>3d</fix>
</trkpt>
<trkpt lat="-27.274206" lon="151.2902568">
  <ele>373.04</ele>
  <time>2026-09-01T19:58:03Z</time>
  <course>56.92</course>
  <speed>3.97</speed>
  <fix>3d</fix>
</trkpt>
<trkpt lat="-27.2742006" lon="151.2902666">
  <ele>373.02</ele>
  <time>2026-09-01T19:58:03Z</time>
  <course>37.81</course>
  <speed>3.969811078628302</speed>
  <fix>3d</fix>
</trkpt>
<trkpt lat="-27.274206" lon="151.2902568">
  <ele>373.04</ele>
  <time>2026-09-01T19:58:03Z</time>
  <course>56.92</course>
  <speed>3.97</speed>
  <fix>3d</fix>
</trkpt>
<trkpt lat="-27.2741987" lon="151.29027">
  <ele>373.0</ele>
  <time>2026-09-01T19:58:03Z</time>
  <course>37.92</course>
  <speed>3.964454565258631</speed>
  <fix>3d</fix>
</trkpt>
<trkpt lat="-27.2742022" lon="151.2902635">
  <ele>373.02</ele>
  <time>2026-09-01T19:58:03Z</time>
  <course>57.16</course>
  <speed>3.96</speed>
  <fix>3d</fix>
</trkpt>
<trkpt lat="-27.2741968" lon="151.2902734">
  <ele>372.99</ele>
  <time>2026-09-01T19:58:03Z</time>
  <course>38.02</course>
  <speed>3.964454565258631</speed>
  <fix>3d</fix>
</trkpt>
<trkpt lat="-27.2742022" lon="151.2902635">
  <ele>373.02</ele>
  <time>2026-09-01T19:58:03Z</time>
  <course>57.16</course>
  <speed>3.96</speed>
  <fix>3d</fix>
</trkpt>
<trkpt lat="-27.2741948" lon="151.2902767">
  <ele>372.98</ele>
  <time>2026-09-01T19:58:03Z</time>
  <course>38.11</course>
  <speed>3.964454565258631</speed>
  <fix>3d</fix>
</trkpt>
<trkpt lat="-27.2741983" lon="151.2902702">
  <ele>373.0</ele>
  <time>2026-09-01T19:58:03Z</time>
  <course>57.3</course>
  <speed>3.96</speed>
  <fix>3d</fix>
</trkpt>
<trkpt lat="-27.2741929" lon="151.2902801">
  <ele>372.96</ele>
  <time>2026-09-01T19:58:03Z</time>
  <course>38.2</course>
  <speed>3.964454565258631</speed>
  <fix>3d</fix>
</trkpt>
<trkpt lat="-27.2741983" lon="151.2902702">
  <ele>373.0</ele>
  <time>2026-09-01T19:58:03Z</time>
  <course>57.3</course>
  <speed>3.96</speed>
  <fix>3d</fix>
</trkpt>
<trkpt lat="-27.274191" lon="151.2902835">
  <ele>372.95</ele>
  <time>2026-09-01T19:58:03Z</time>
  <course>38.29</course>
  <speed>3.9782533855952416</speed>
  <fix>3d</fix>
</trkpt>
<trkpt lat="-27.2741945" lon="151.290277">
  <ele>372.97</ele>
  <time>2026-09-01T19:58:03Z</time>
  <course>57.34</course>
  <speed>3.96</speed>
  <fix>3d</fix>
</trkpt>
<trkpt lat="-27.2741891" lon="151.2902869">
  <ele>372.94</ele>
  <time>2026-09-01T19:58:03Z</time>
  <course>38.37</course>
  <speed>3.983616447400528</speed>
  <fix>3d</fix>
</trkpt>
<trkpt lat="-27.2741945" lon="151.290277">
  <ele>372.97</ele>
  <time>2026-09-01T19:58:03Z</time>
  <course>57.34</course>
  <speed>3.96</speed>
  <fix>3d</fix>
</trkpt>
<trkpt lat="-27.2741871" lon="151.2902902">
  <ele>372.93</ele>
  <time>2026-09-01T19:58:03Z</time>
  <course>38.45</course>
  <speed>3.983616447400528</speed>
  <fix>3d</fix>
</trkpt>
<trkpt lat="-27.2741906" lon="151.2902837">
  <ele>372.95</ele>
  <time>2026-09-01T19:58:03Z</time>
  <course>57.27</course>
  <speed>3.97</speed>
  <fix>3d</fix>
</trkpt>
<trkpt lat="-27.2741852" lon="151.2902937">
  <ele>372.93</ele>
  <time>2026-09-01T19:58:03Z</time>
  <course>38.53</course>
  <speed>3.997424170637887</speed>
  <fix>3d</fix>
</trkpt>
<trkpt lat="-27.2741906" lon="151.2902837">
  <ele>372.95</ele>
  <time>2026-09-01T19:58:03Z</time>
  <course>57.27</course>
  <speed>3.97</speed>
  <fix>3d</fix>
</trkpt>
<trkpt lat="-27.2741832" lon="151.2902971">
  <ele>372.92</ele>
  <time>2026-09-01T19:58:03Z</time>
  <course>38.6</course>
  <speed>4.008216561015635</speed>
  <fix>3d</fix>
</trkpt>
<trkpt lat="-27.2741867" lon="151.2902905">
  <ele>372.94</ele>
  <time>2026-09-01T19:58:03Z</time>
  <course>57.13</course>
  <speed>3.98</speed>
  <fix>3d</fix>
</trkpt>
<trkpt lat="-27.2741812" lon="151.2903005">
  <ele>372.92</ele>
  <time>2026-09-01T19:58:03Z</time>
  <course>38.67</course>
  <speed>4.022039283746492</speed>
  <fix>3d</fix>
</trkpt>
<trkpt lat="-27.2741867" lon="151.2902905">
  <ele>372.94</ele>
  <time>2026-09-01T19:58:03Z</time>
  <course>57.13</course>
  <speed>3.98</speed>
  <fix>3d</fix>
</trkpt>
<trkpt lat="-27.2741792" lon="151.2903039">
  <ele>372.91</ele>
  <time>2026-09-01T19:58:03Z</time>
  <course>38.74</course>
  <speed>4.032914578812697</speed>
  <fix>3d</fix>
</trkpt>
<trkpt lat="-27.2741828" lon="151.2902973">
  <ele>372.93</ele>
  <time>2026-09-01T19:58:03Z</time>
  <course>56.9</course>
  <speed>4.0</speed>
  <fix>3d</fix>
</trkpt>
<trkpt lat="-27.2741772" lon="151.2903072">
  <ele>372.91</ele>
  <time>2026-09-01T19:58:03Z</time>
  <course>38.81</course>
  <speed>4.038378387422358</speed>
  <fix>3d</fix>
</trkpt>
<trkpt lat="-27.2741828" lon="151.2902973">
  <ele>372.93</ele>
  <time>2026-09-01T19:58:03Z</time>
  <course>56.9</course>
  <speed>4.0</speed>
  <fix>3d</fix>
</trkpt>
<trkpt lat="-27.2741752" lon="151.2903106">
  <ele>372.91</ele>
  <time>2026-09-01T19:58:03Z</time>
  <course>38.87</course>
  <speed>4.057708713054697</speed>
  <fix>3d</fix>
</trkpt>
<trkpt lat="-27.2741789" lon="151.290304">
  <ele>372.93</ele>
  <time>2026-09-01T19:58:03Z</time>
  <course>56.61</course>
  <speed>4.02</speed>
  <fix>3d</fix>
</trkpt>
<trkpt lat="-27.2741732" lon="151.2903141">
  <ele>372.91</ele>
  <time>2026-09-01T19:58:03Z</time>
  <course>38.93</course>
  <speed>4.068734446974882</speed>
  <fix>3d</fix>
</trkpt>
<trkpt lat="-27.2741789" lon="151.290304">
  <ele>372.93</ele>
  <time>2026-09-01T19:58:03Z</time>
  <course>56.61</course>
  <speed>4.02</speed>
  <fix>3d</fix>
</trkpt>
<trkpt lat="-27.2741712" lon="151.2903175">
  <ele>372.91</ele>
  <time>2026-09-01T19:58:03Z</time>
  <course>38.99</course>
  <speed>4.08814138698749</speed>
  <fix>3d</fix>
</trkpt>
<trkpt lat="-27.2741749" lon="151.2903109">
  <ele>372.93</ele>
  <time>2026-09-01T19:58:03Z</time>
  <course>56.27</course>
  <speed>4.05</speed>
  <fix>3d</fix>
</trkpt>
<trkpt lat="-27.2741691" lon="151.2903209">
  <ele>372.91</ele>
  <time>2026-09-01T19:58:03Z</time>
  <course>39.05</course>
  <speed>4.099280424659918</speed>
  <fix>3d</fix>
</trkpt>
<trkpt lat="-27.2741749" lon="151.2903109">
  <ele>372.93</ele>
  <time>2026-09-01T19:58:03Z</time>
  <course>56.27</course>
  <speed>4.05</speed>
  <fix>3d</fix>
</trkpt>
<trkpt lat="-27.274167" lon="151.2903243">
  <ele>372.92</ele>
  <time>2026-09-01T19:58:03Z</time>
  <course>39.1</course>
  <speed>4.110486589200845</speed>
  <fix>3d</fix>
</trkpt>
<trkpt lat="-27.2741708" lon="151.2903177">
  <ele>372.94</ele>
  <time>2026-09-01T19:58:03Z</time>
  <course>55.89</course>
  <speed>4.08</speed>
  <fix>3d</fix>
</trkpt>
<trkpt lat="-27.2741649" lon="151.2903278">
  <ele>372.92</ele>
  <time>2026-09-01T19:58:03Z</time>
  <course>39.15</course>
  <speed>4.130012106519787</speed>
  <fix>3d</fix>
</trkpt>
<trkpt lat="-27.2741708" lon="151.2903177">
  <ele>372.94</ele>
  <time>2026-09-01T19:58:03Z</time>
  <course>55.89</course>
  <speed>4.08</speed>
  <fix>3d</fix>
</trkpt>
<trkpt lat="-27.2741628" lon="151.2903312">
  <ele>372.92</ele>
  <time>2026-09-01T19:58:03Z</time>
  <course>39.2</course>
  <speed>4.141328289329403</speed>
  <fix>3d</fix>
</trkpt>
<trkpt lat="-27.2741667" lon="151.2903245">
  <ele>372.95</ele>
  <time>2026-09-01T19:58:03Z</time>
  <course>55.48</course>
  <speed>4.11</speed>
  <fix>3d</fix>
</trkpt>
<trkpt lat="-27.2741607" lon="151.2903346">
  <ele>372.93</ele>
  <time>2026-09-01T19:58:03Z</time>
  <course>39.25</course>
  <speed>4.152709958569224</speed>
  <fix>3d</fix>
</trkpt>
<trkpt lat="-27.2741667" lon="151.2903245">
  <ele>372.95</ele>
  <time>2026-09-01T19:58:03Z</time>
  <course>55.48</course>
  <speed>4.11</speed>
  <fix>3d</fix>
</trkpt>
<trkpt lat="-27.2741585" lon="151.290338">
  <ele>372.93</ele>
  <time>2026-09-01T19:58:03Z</time>
  <course>39.3</course>
  <speed>4.172349458039199</speed>
  <fix>3d</fix>
</trkpt>
<trkpt lat="-27.2741624" lon="151.2903314">
  <ele>372.96</ele>
  <time>2026-09-01T19:58:03Z</time>
  <course>55.04</course>
  <speed>4.14</speed>
  <fix>3d</fix>
</trkpt>
<trkpt lat="-27.2741564" lon="151.2903414">
  <ele>372.93</ele>
  <time>2026-09-01T19:58:03Z</time>
  <course>39.34</course>
  <speed>4.183837950972767</speed>
  <fix>3d</fix>
</trkpt>
<trkpt lat="-27.2741624" lon="151.2903314">
  <ele>372.96</ele>
  <time>2026-09-01T19:58:03Z</time>
  <course>55.04</course>
  <speed>4.14</speed>
  <fix>3d</fix>
</trkpt>
<trkpt lat="-27.2741542" lon="151.2903449">
  <ele>372.94</ele>
  <time>2026-09-01T19:58:03Z</time>
  <course>39.39</course>
  <speed>4.195390327490399</speed>
  <fix>3d</fix>
</trkpt>
<trkpt lat="-27.2741581" lon="151.2903383">
  <ele>372.97</ele>
  <time>2026-09-01T19:58:03Z</time>
  <course>54.6</course>
  <speed>4.17</speed>
  <fix>3d</fix>
</trkpt>
<trkpt lat="-27.274152" lon="151.2903483">
  <ele>372.94</ele>
  <time>2026-09-01T19:58:03Z</time>
  <course>39.43</course>
  <speed>4.220959606534987</speed>
  <fix>3d</fix>
</trkpt>
<trkpt lat="-27.2741581" lon="151.2903383">
  <ele>372.97</ele>
  <time>2026-09-01T19:58:03Z</time>
  <course>54.6</course>
  <speed>4.17</speed>
  <fix>3d</fix>
</trkpt>
<trkpt lat="-27.2741498" lon="151.2903517">
  <ele>372.95</ele>
  <time>2026-09-01T19:58:03Z</time>
  <course>39.47</course>
  <speed>4.232646925979061</speed>
  <fix>3d</fix>
</trkpt>
<trkpt lat="-27.2741537" lon="151.2903451">
  <ele>372.98</ele>
  <time>2026-09-01T19:58:03Z</time>
  <course>54.16</course>
  <speed>4.21</speed>
  <fix>3d</fix>
</trkpt>
<trkpt lat="-27.2741475" lon="151.2903552">
  <ele>372.95</ele>
  <time>2026-09-01T19:58:03Z</time>
  <course>39.51</course>
  <speed>4.244396305718871</speed>
  <fix>3d</fix>
</trkpt>
<trkpt lat="-27.2741537" lon="151.2903451">
  <ele>372.98</ele>
  <time>2026-09-01T19:58:03Z</time>
  <course>54.16</course>
  <speed>4.21</speed>
  <fix>3d</fix>
</trkpt>
<trkpt lat="-27.2741452" lon="151.2903586">
  <ele>372.95</ele>
  <time>2026-09-01T19:58:03Z</time>
  <course>39.55</course>
  <speed>4.2642701602970705</speed>
  <fix>3d</fix>
</trkpt>
<trkpt lat="-27.2741492" lon="151.2903521">
  <ele>372.99</ele>
  <time>2026-09-01T19:58:03Z</time>
  <course>53.72</course>
  <speed>4.24</speed>
  <fix>3d</fix>
</trkpt>
<trkpt lat="-27.2741429" lon="151.2903621">
  <ele>372.95</ele>
  <time>2026-09-01T19:58:03Z</time>
  <course>39.6</course>
  <speed>4.276119736396539</speed>
  <fix>3d</fix>
</trkpt>
<trkpt lat="-27.2741492" lon="151.2903521">
  <ele>372.99</ele>
  <time>2026-09-01T19:58:03Z</time>
  <course>53.72</course>
  <speed>4.24</speed>
  <fix>3d</fix>
</trkpt>
<trkpt lat="-27.2741406" lon="151.2903655">
  <ele>372.95</ele>
  <time>2026-09-01T19:58:03Z</time>
  <course>39.64</course>
  <speed>4.288029850642367</speed>
  <fix>3d</fix>
</trkpt>
<trkpt lat="-27.2741447" lon="151.290359">
  <ele>373.0</ele>
  <time>2026-09-01T19:58:03Z</time>
  <course>53.3</course>
  <speed>4.27</speed>
  <fix>3d</fix>
</trkpt>
<trkpt lat="-27.2741383" lon="151.290369">
  <ele>372.95</ele>
  <time>2026-09-01T19:58:03Z</time>
  <course>39.68</course>
  <speed>4.3</speed>
  <fix>3d</fix>
</trkpt>
<trkpt lat="-27.2741447" lon="151.290359">
  <ele>373.0</ele>
  <time>2026-09-01T19:58:03Z</time>
  <course>53.3</course>
  <speed>4.27</speed>
  <fix>3d</fix>
</trkpt>
<trkpt lat="-27.2741359" lon="151.2903725">
  <ele>372.95</ele>
  <time>2026-09-01T19:58:03Z</time>
  <course>39.72</course>
  <speed>4.3120296844989365</speed>
  <fix>3d</fix>
</trkpt>
<trkpt lat="-27.27414" lon="151.2903659">
  <ele>373.01</ele>
  <time>2026-09-01T19:58:03Z</time>
  <course>52.9</course>
  <speed>4.3</speed>
  <fix>3d</fix>
</trkpt>
<trkpt lat="-27.2741336" lon="151.2903759">
  <ele>372.95</ele>
  <time>2026-09-01T19:58:03Z</time>
  <course>39.75</course>
  <speed>4.332078023304751</speed>
  <fix>3d</fix>
</trkpt>
<trkpt lat="-27.27414" lon="151.2903659">
  <ele>373.01</ele>
  <time>2026-09-01T19:58:03Z</time>
  <course>52.9</course>
  <speed>4.3</speed>
  <fix>3d</fix>
</trkpt>
<trkpt lat="-27.2741312" lon="151.2903794">
  <ele>372.95</ele>
  <time>2026-09-01T19:58:03Z</time>
  <course>39.79</course>
  <speed>4.344203033929238</speed>
  <fix>3d</fix>
</trkpt>
<trkpt lat="-27.2741353" lon="151.2903729">
  <ele>373.01</ele>
  <time>2026-09-01T19:58:03Z</time>
  <course>52.52</course>
  <speed>4.33</speed>
  <fix>3d</fix>
</trkpt>
<trkpt lat="-27.2741288" lon="151.2903829">
  <ele>372.95</ele>
  <time>2026-09-01T19:58:03Z</time>
  <course>39.83</course>
  <speed>4.350287346831241</speed>
  <fix>3d</fix>
</trkpt>
<trkpt lat="-27.2741353" lon="151.2903729">
  <ele>373.01</ele>
  <time>2026-09-01T19:58:03Z</time>
  <course>52.52</course>
  <speed>4.33</speed>
  <fix>3d</fix>
</trkpt>
<trkpt lat="-27.2741264" lon="151.2903863">
  <ele>372.95</ele>
  <time>2026-09-01T19:58:03Z</time>
  <course>39.87</course>
  <speed>4.362499283667563</speed>
  <fix>3d</fix>
</trkpt>
<trkpt lat="-27.2741306" lon="151.2903799">
  <ele>373.02</ele>
  <time>2026-09-01T19:58:03Z</time>
  <course>52.17</course>
  <speed>4.36</speed>
  <fix>3d</fix>
</trkpt>
<trkpt lat="-27.2741239" lon="151.2903898">
  <ele>372.95</ele>
  <time>2026-09-01T19:58:03Z</time>
  <course>39.91</course>
  <speed>4.368626786531438</speed>
  <fix>3d</fix>
</trkpt>
<trkpt lat="-27.2741306" lon="151.2903799">
  <ele>373.02</ele>
  <time>2026-09-01T19:58:03Z</time>
  <course>52.17</course>
  <speed>4.36</speed>
  <fix>3d</fix>
</trkpt>
<trkpt lat="-27.2741215" lon="151.2903933">
  <ele>372.95</ele>
  <time>2026-09-01T19:58:03Z</time>
  <course>39.95</course>
  <speed>4.38092455995307</speed>
  <fix>3d</fix>
</trkpt>
<trkpt lat="-27.2741257" lon="151.2903868">
  <ele>373.03</ele>
  <time>2026-09-01T19:58:03Z</time>
  <course>51.84</course>
  <speed>4.38</speed>
  <fix>3d</fix>
</trkpt>
<trkpt lat="-27.274119" lon="151.2903968">
  <ele>372.96</ele>
  <time>2026-09-01T19:58:03Z</time>
  <course>39.99</course>
  <speed>4.387094710625701</speed>
  <fix>3d</fix>
</trkpt>
<trkpt lat="-27.2741257" lon="151.2903868">
  <ele>373.03</ele>
  <time>2026-09-01T19:58:03Z</time>
  <course>51.84</course>
  <speed>4.38</speed>
  <fix>3d</fix>
</trkpt>
<trkpt lat="-27.2741166" lon="151.2904003">
  <ele>372.96</ele>
  <time>2026-09-01T19:58:03Z</time>
  <course>40.03</course>
  <speed>4.393278957680698</speed>
  <fix>3d</fix>
</trkpt>
<trkpt lat="-27.2741208" lon="151.2903938">
  <ele>373.03</ele>
  <time>2026-09-01T19:58:03Z</time>
  <course>51.55</course>
  <speed>4.4</speed>
  <fix>3d</fix>
</trkpt>
<trkpt lat="-27.2741141" lon="151.2904037">
  <ele>372.96</ele>
  <time>2026-09-01T19:58:03Z</time>
  <course>40.06</course>
  <speed>4.399477241673151</speed>
  <fix>3d</fix>
</trkpt>
<trkpt lat="-27.2741208" lon="151.2903938">
  <ele>373.03</ele>
  <time>2026-09-01T19:58:03Z</time>
  <course>51.55</course>
  <speed>4.4</speed>
  <fix>3d</fix>
</trkpt>
<trkpt lat="-27.2741116" lon="151.2904072">
  <ele>372.97</ele>
  <time>2026-09-01T19:58:03Z</time>
  <course>40.1</course>
  <speed>4.397863117469665</speed>
  <fix>3d</fix>
</trkpt>
<trkpt lat="-27.2741159" lon="151.2904007">
  <ele>373.04</ele>
  <time>2026-09-01T19:58:03Z</time>
  <course>51.27</course>
  <speed>4.42</speed>
  <fix>3d</fix>
</trkpt>
<trkpt lat="-27.2741091" lon="151.2904107">
  <ele>372.97</ele>
  <time>2026-09-01T19:58:03Z</time>
  <course>40.15</course>
  <speed>4.404100362162516</speed>
  <fix>3d</fix>
</trkpt>
<trkpt lat="-27.2741159" lon="151.2904007">
  <ele>373.04</ele>
  <time>2026-09-01T19:58:03Z</time>
  <course>51.27</course>
  <speed>4.42</speed>
  <fix>3d</fix>
</trkpt>
<trkpt lat="-27.2741066" lon="151.2904142">
  <ele>372.97</ele>
  <time>2026-09-01T19:58:03Z</time>
  <course>40.19</course>
  <speed>4.410351459917906</speed>
  <fix>3d</fix>
</trkpt>
<trkpt lat="-27.2741108" lon="151.2904078">
  <ele>373.04</ele>
  <time>2026-09-01T19:58:03Z</time>
  <course>51.02</course>
  <speed>4.43</speed>
  <fix>3d</fix>
</trkpt>
<trkpt lat="-27.2741041" lon="151.2904176">
  <ele>372.97</ele>
  <time>2026-09-01T19:58:03Z</time>
  <course>40.23</course>
  <speed>4.416616351914665</speed>
  <fix>3d</fix>
</trkpt>
<trkpt lat="-27.2741108" lon="151.2904078">
  <ele>373.04</ele>
  <time>2026-09-01T19:58:03Z</time>
  <course>51.02</course>
  <speed>4.43</speed>
  <fix>3d</fix>
</trkpt>
<trkpt lat="-27.2741015" lon="151.2904211">
  <ele>372.98</ele>
  <time>2026-09-01T19:58:03Z</time>
  <course>40.27</course>
  <speed>4.415121742375854</speed>
  <fix>3d</fix>
</trkpt>
<trkpt lat="-27.2741059" lon="151.2904147">
  <ele>373.05</ele>
  <time>2026-09-01T19:58:03Z</time>
  <course>50.79</course>
  <speed>4.44</speed>
  <fix>3d</fix>
</trkpt>
<trkpt lat="-27.274099" lon="151.2904246">
  <ele>372.98</ele>
  <time>2026-09-01T19:58:03Z</time>
  <course>40.32</course>
  <speed>4.415121742375854</speed>
  <fix>3d</fix>
</trkpt>
<trkpt lat="-27.2741059" lon="151.2904147">
  <ele>373.05</ele>
  <time>2026-09-01T19:58:03Z</time>
  <course>50.79</course>
  <speed>4.44</speed>
  <fix>3d</fix>
</trkpt>
<trkpt lat="-27.2740965" lon="151.290428">
  <ele>372.98</ele>
  <time>2026-09-01T19:58:03Z</time>
  <course>40.36</course>
  <speed>4.413671940686122</speed>
  <fix>3d</fix>
</trkpt>
<trkpt lat="-27.2741008" lon="151.2904217">
  <ele>373.05</ele>
  <time>2026-09-01T19:58:03Z</time>
  <course>50.59</course>
  <speed>4.44</speed>
  <fix>3d</fix>
</trkpt>
<trkpt lat="-27.2740939" lon="151.2904315">
  <ele>372.98</ele>
  <time>2026-09-01T19:58:03Z</time>
  <course>40.4</course>
  <speed>4.413671940686122</speed>
  <fix>3d</fix>
</trkpt>
<trkpt lat="-27.2741008" lon="151.2904217">
  <ele>373.05</ele>
  <time>2026-09-01T19:58:03Z</time>
  <course>50.59</course>
  <speed>4.44</speed>
  <fix>3d</fix>
</trkpt>
<trkpt lat="-27.2740914" lon="151.2904349">
  <ele>372.98</ele>
  <time>2026-09-01T19:58:03Z</time>
  <course>40.44</course>
  <speed>4.405927825101087</speed>
  <fix>3d</fix>
</trkpt>
<trkpt lat="-27.2740957" lon="151.2904286">
  <ele>373.06</ele>
  <time>2026-09-01T19:58:03Z</time>
  <course>50.41</course>
  <speed>4.44</speed>
  <fix>3d</fix>
</trkpt>
<trkpt lat="-27.2740888" lon="151.2904384">
  <ele>372.98</ele>
  <time>2026-09-01T19:58:03Z</time>
  <course>40.48</course>
  <speed>4.404543109109048</speed>
  <fix>3d</fix>
</trkpt>
<trkpt lat="-27.2740957" lon="151.2904286">
  <ele>373.06</ele>
  <time>2026-09-01T19:58:03Z</time>
  <course>50.41</course>
  <speed>4.44</speed>
  <fix>3d</fix>
</trkpt>
<trkpt lat="-27.2740863" lon="151.2904418">
  <ele>372.98</ele>
  <time>2026-09-01T19:58:03Z</time>
  <course>40.52</course>
  <speed>4.404543109109048</speed>
  <fix>3d</fix>
</trkpt>
<trkpt lat="-27.2740906" lon="151.2904355">
  <ele>373.06</ele>
  <time>2026-09-01T19:58:03Z</time>
  <course>50.25</course>
  <speed>4.44</speed>
  <fix>3d</fix>
</trkpt>
<trkpt lat="-27.2740837" lon="151.2904452">
  <ele>372.98</ele>
  <time>2026-09-01T19:58:03Z</time>
  <course>40.56</course>
  <speed>4.39682840238279</speed>
  <fix>3d</fix>
</trkpt>
<trkpt lat="-27.2740906" lon="151.2904355">
  <ele>373.06</ele>
  <time>2026-09-01T19:58:03Z</time>
  <course>50.25</course>
  <speed>4.44</speed>
  <fix>3d</fix>
</trkpt>
<trkpt lat="-27.2740812" lon="151.2904487">
  <ele>372.98</ele>
  <time>2026-09-01T19:58:03Z</time>
  <course>40.61</course>
  <speed>4.38912291921746</speed>
  <fix>3d</fix>
</trkpt>
<trkpt lat="-27.2740855" lon="151.2904424">
  <ele>373.06</ele>
  <time>2026-09-01T19:58:03Z</time>
  <course>50.11</course>
  <speed>4.43</speed>
  <fix>3d</fix>
</trkpt>
<trkpt lat="-27.2740786" lon="151.2904521">
  <ele>372.98</ele>
  <time>2026-09-01T19:58:03Z</time>
  <course>40.65</course>
  <speed>4.3750428569329465</speed>
  <fix>3d</fix>
</trkpt>
<trkpt lat="-27.2740855" lon="151.2904424">
  <ele>373.06</ele>
  <time>2026-09-01T19:58:03Z</time>
  <course>50.11</course>
  <speed>4.43</speed>
  <fix>3d</fix>
</trkpt>
<trkpt lat="-27.2740761" lon="151.2904555">
  <ele>372.98</ele>
  <time>2026-09-01T19:58:03Z</time>
  <course>40.69</course>
  <speed>4.36734473106944</speed>
  <fix>3d</fix>
</trkpt>
<trkpt lat="-27.2740804" lon="151.2904492">
  <ele>373.06</ele>
  <time>2026-09-01T19:58:03Z</time>
  <course>49.99</course>
  <speed>4.41</speed>
  <fix>3d</fix>
</trkpt>
<trkpt lat="-27.2740736" lon="151.2904589">
  <ele>372.98</ele>
  <time>2026-09-01T19:58:03Z</time>
  <course>40.73</course>
  <speed>4.359655949728143</speed>
  <fix>3d</fix>
</trkpt>
<trkpt lat="-27.2740804" lon="151.2904492">
  <ele>373.06</ele>
  <time>2026-09-01T19:58:03Z</time>
  <course>49.99</course>
  <speed>4.41</speed>
  <fix>3d</fix>
</trkpt>
<trkpt lat="-27.274071" lon="151.2904622">
  <ele>372.98</ele>
  <time>2026-09-01T19:58:03Z</time>
  <course>40.76</course>
  <speed>4.3455724594119935</speed>
  <fix>3d</fix>
</trkpt>
<trkpt lat="-27.2740753" lon="151.2904561">
  <ele>373.06</ele>
  <time>2026-09-01T19:58:03Z</time>
  <course>49.89</course>
  <speed>4.4</speed>
  <fix>3d</fix>
</trkpt>
<trkpt lat="-27.2740685" lon="151.2904656">
  <ele>372.98</ele>
  <time>2026-09-01T19:58:03Z</time>
  <course>40.81</course>
  <speed>4.337891192734092</speed>
  <fix>3d</fix>
</trkpt>
<trkpt lat="-27.2740753" lon="151.2904561">
  <ele>373.06</ele>
  <time>2026-09-01T19:58:03Z</time>
  <course>49.89</course>
  <speed>4.4</speed>
  <fix>3d</fix>
</trkpt>
<trkpt lat="-27.274066" lon="151.290469">
  <ele>372.98</ele>
  <time>2026-09-01T19:58:03Z</time>
  <course>40.85</course>
  <speed>4.323806193621541</speed>
  <fix>3d</fix>
</trkpt>
<trkpt lat="-27.2740702" lon="151.2904629">
  <ele>373.06</ele>
  <time>2026-09-01T19:58:03Z</time>
  <course>49.81</course>
  <speed>4.38</speed>
  <fix>3d</fix>
</trkpt>
<trkpt lat="-27.2740635" lon="151.2904723">
  <ele>372.97</ele>
  <time>2026-09-01T19:58:03Z</time>
  <course>40.88</course>
  <speed>4.29563732174866</speed>
  <fix>3d</fix>
</trkpt>
<trkpt lat="-27.2740702" lon="151.2904629">
  <ele>373.06</ele>
  <time>2026-09-01T19:58:03Z</time>
  <course>49.81</course>
  <speed>4.38</speed>
  <fix>3d</fix>
</trkpt>
<trkpt lat="-27.2740609" lon="151.2904756">
  <ele>372.97</ele>
  <time>2026-09-01T19:58:03Z</time>
  <course>40.91</course>
  <speed>4.266204402041702</speed>
  <fix>3d</fix>
</trkpt>
<trkpt lat="-27.2740652" lon="151.2904696">
  <ele>373.06</ele>
  <time>2026-09-01T19:58:03Z</time>
  <course>49.75</course>
  <speed>4.35</speed>
  <fix>3d</fix>
</trkpt>
<trkpt lat="-27.2740584" lon="151.290479">
  <ele>372.97</ele>
  <time>2026-09-01T19:58:03Z</time>
  <course>40.94</course>
  <speed>4.223943654927229</speed>
  <fix>3d</fix>
</trkpt>
<trkpt lat="-27.2740652" lon="151.2904696">
  <ele>373.06</ele>
  <time>2026-09-01T19:58:03Z</time>
  <course>49.75</course>
  <speed>4.35</speed>
  <fix>3d</fix>
</trkpt>
<trkpt lat="-27.274056" lon="151.2904822">
  <ele>372.97</ele>
  <time>2026-09-01T19:58:03Z</time>
  <course>40.94</course>
  <speed>4.174014853830781</speed>
  <fix>3d</fix>
</trkpt>
<trkpt lat="-27.2740602" lon="151.2904763">
  <ele>373.07</ele>
  <time>2026-09-01T19:58:03Z</time>
  <course>49.7</course>
  <speed>4.29</speed>
  <fix>3d</fix>
</trkpt>
<trkpt lat="-27.2740535" lon="151.2904855">
  <ele>372.98</ele>
  <time>2026-09-01T19:58:03Z</time>
  <course>40.94</course>
  <speed>4.11</speed>
  <fix>3d</fix>
</trkpt>
<trkpt lat="-27.2740602" lon="151.2904763">
  <ele>373.07</ele>
  <time>2026-09-01T19:58:03Z</time>
  <course>49.7</course>
  <speed>4.29</speed>
  <fix>3d</fix>
</trkpt>
<trkpt lat="-27.2740512" lon="151.2904886">
  <ele>372.98</ele>
  <time>2026-09-01T19:58:03Z</time>
  <course>40.91</course>
  <speed>4.031897816165484</speed>
  <fix>3d</fix>
</trkpt>
<trkpt lat="-27.2740552" lon="151.2904828">
  <ele>373.07</ele>
  <time>2026-09-01T19:58:03Z</time>
  <course>49.66</course>
  <speed>4.2</speed>
  <fix>3d</fix>
</trkpt>
<trkpt lat="-27.2740488" lon="151.2904917">
  <ele>372.99</ele>
  <time>2026-09-01T19:58:03Z</time>
  <course>40.88</course>
  <speed>3.9397081110153325</speed>
  <fix>3d</fix>
</trkpt>
<trkpt lat="-27.2740552" lon="151.2904828">
  <ele>373.07</ele>
  <time>2026-09-01T19:58:03Z</time>
  <course>49.66</course>
  <speed>4.2</speed>
  <fix>3d</fix>
</trkpt>
<trkpt lat="-27.2740465" lon="151.2904947">
  <ele>372.99</ele>
  <time>2026-09-01T19:58:03Z</time>
  <course>40.82</course>
  <speed>3.8475186809163127</speed>
  <fix>3d</fix>
</trkpt>
<trkpt lat="-27.2740504" lon="151.2904892">
  <ele>373.07</ele>
  <time>2026-09-01T19:58:03Z</time>
  <course>49.64</course>
  <speed>4.05</speed>
  <fix>3d</fix>
</trkpt>
<trkpt lat="-27.2740443" lon="151.2904977">
  <ele>373.0</ele>
  <time>2026-09-01T19:58:03Z</time>
  <course>40.76</course>
  <speed>3.741243108914469</speed>
  <fix>3d</fix>
</trkpt>
<trkpt lat="-27.2740504" lon="151.2904892">
  <ele>373.07</ele>
  <time>2026-09-01T19:58:03Z</time>
  <course>49.64</course>
  <speed>4.05</speed>
  <fix>3d</fix>
</trkpt>
<trkpt lat="-27.2740422" lon="151.2905006">
  <ele>373.0</ele>
  <time>2026-09-01T19:58:03Z</time>
  <course>40.68</course>
  <speed>3.6272992708074145</speed>
  <fix>3d</fix>
</trkpt>
<trkpt lat="-27.2740458" lon="151.2904953">
  <ele>373.09</ele>
  <time>2026-09-01T19:58:03Z</time>
  <course>49.65</course>
  <speed>3.87</speed>
  <fix>3d</fix>
</trkpt>
<trkpt lat="-27.2740401" lon="151.2905033">
  <ele>373.01</ele>
  <time>2026-09-01T19:58:03Z</time>
  <course>40.6</course>
  <speed>3.521022578740443</speed>
  <fix>3d</fix>
</trkpt>
<trkpt lat="-27.2740458" lon="151.2904953">
  <ele>373.09</ele>
  <time>2026-09-01T19:58:03Z</time>
  <course>49.65</course>
  <speed>3.87</speed>
  <fix>3d</fix>
</trkpt>
<trkpt lat="-27.274038" lon="151.290506">
  <ele>373.01</ele>
  <time>2026-09-01T19:58:03Z</time>
  <course>40.52</course>
  <speed>3.4224260401066373</speed>
  <fix>3d</fix>
</trkpt>
<trkpt lat="-27.2740414" lon="151.2905011">
  <ele>373.1</ele>
  <time>2026-09-01T19:58:03Z</time>
  <course>49.67</course>
  <speed>3.66</speed>
  <fix>3d</fix>
</trkpt>
<trkpt lat="-27.274036" lon="151.2905087">
  <ele>373.01</ele>
  <time>2026-09-01T19:58:03Z</time>
  <course>40.44</course>
  <speed>3.3443235489408014</speed>
  <fix>3d</fix>
</trkpt>
<trkpt lat="-27.2740414" lon="151.2905011">
  <ele>373.1</ele>
  <time>2026-09-01T19:58:03Z</time>
  <course>49.67</course>
  <speed>3.66</speed>
  <fix>3d</fix>
</trkpt>
<trkpt lat="-27.2740341" lon="151.2905113">
  <ele>373.0</ele>
  <time>2026-09-01T19:58:03Z</time>
  <course>40.37</course>
  <speed>3.280304863880795</speed>
  <fix>3d</fix>
</trkpt>
<trkpt lat="-27.2740372" lon="151.2905066">
  <ele>373.1</ele>
  <time>2026-09-01T19:58:03Z</time>
  <course>49.72</course>
  <speed>3.46</speed>
  <fix>3d</fix>
</trkpt>
<trkpt lat="-27.2740322" lon="151.2905138">
  <ele>373.0</ele>
  <time>2026-09-01T19:58:03Z</time>
  <course>40.32</course>
  <speed>3.2239727045990945</speed>
  <fix>3d</fix>
</trkpt>
<trkpt lat="-27.2740372" lon="151.2905066">
  <ele>373.1</ele>
  <time>2026-09-01T19:58:03Z</time>
  <course>49.72</course>
  <speed>3.46</speed>
  <fix>3d</fix>
</trkpt>
<trkpt lat="-27.2740303" lon="151.2905163">
  <ele>372.99</ele>
  <time>2026-09-01T19:58:03Z</time>
  <course>40.27</course>
  <speed>3.159952531289038</speed>
  <fix>3d</fix>
</trkpt>
<trkpt lat="-27.2740333" lon="151.2905118">
  <ele>373.09</ele>
  <time>2026-09-01T19:58:03Z</time>
  <course>49.78</course>
  <speed>3.31</speed>
  <fix>3d</fix>
</trkpt>
<trkpt lat="-27.2740285" lon="151.2905187">
  <ele>372.98</ele>
  <time>2026-09-01T19:58:03Z</time>
  <course>40.24</course>
  <speed>3.1036269105676992</speed>
  <fix>3d</fix>
</trkpt>
<trkpt lat="-27.2740333" lon="151.2905118">
  <ele>373.09</ele>
  <time>2026-09-01T19:58:03Z</time>
  <course>49.78</course>
  <speed>3.31</speed>
  <fix>3d</fix>
</trkpt>
<trkpt lat="-27.2740266" lon="151.2905211">
  <ele>372.97</ele>
  <time>2026-09-01T19:58:03Z</time>
  <course>40.21</course>
  <speed>3.025524747874325</speed>
  <fix>3d</fix>
</trkpt>
<trkpt lat="-27.2740295" lon="151.2905168">
  <ele>373.08</ele>
  <time>2026-09-01T19:58:03Z</time>
  <course>49.85</course>
  <speed>3.18</speed>
  <fix>3d</fix>
</trkpt>
<trkpt lat="-27.2740249" lon="151.2905235">
  <ele>372.96</ele>
  <time>2026-09-01T19:58:03Z</time>
  <course>40.18</course>
  <speed>2.9410542327539626</speed>
  <fix>3d</fix>
</trkpt>
<trkpt lat="-27.2740295" lon="151.2905168">
  <ele>373.08</ele>
  <time>2026-09-01T19:58:03Z</time>
  <course>49.85</course>
  <speed>3.18</speed>
  <fix>3d</fix>
</trkpt>
<trkpt lat="-27.2740232" lon="151.2905257">
  <ele>372.96</ele>
  <time>2026-09-01T19:58:03Z</time>
  <course>40.15</course>
  <speed>2.8488769717206113</speed>
  <fix>3d</fix>
</trkpt>
<trkpt lat="-27.2740259" lon="151.2905217">
  <ele>373.07</ele>
  <time>2026-09-01T19:58:03Z</time>
  <course>49.93</course>
  <speed>3.04</speed>
  <fix>3d</fix>
</trkpt>
<trkpt lat="-27.2740216" lon="151.2905279">
  <ele>372.95</ele>
  <time>2026-09-01T19:58:03Z</time>
  <course>40.11</course>
  <speed>2.7426264783962107</speed>
  <fix>3d</fix>
</trkpt>
<trkpt lat="-27.2740259" lon="151.2905217">
  <ele>373.07</ele>
  <time>2026-09-01T19:58:03Z</time>
  <course>49.93</course>
  <speed>3.04</speed>
  <fix>3d</fix>
</trkpt>
<trkpt lat="-27.27402" lon="151.29053">
  <ele>372.95</ele>
  <time>2026-09-01T19:58:03Z</time>
  <course>40.08</course>
  <speed>2.636380093992518</speed>
  <fix>3d</fix>
</trkpt>
<trkpt lat="-27.2740225" lon="151.2905263">
  <ele>373.05</ele>
  <time>2026-09-01T19:58:03Z</time>
  <course>50.02</course>
  <speed>2.86</speed>
  <fix>3d</fix>
</trkpt>
<trkpt lat="-27.2740185" lon="151.2905321">
  <ele>372.94</ele>
  <time>2026-09-01T19:58:03Z</time>
  <course>40.03</course>
  <speed>2.5301383361389553</speed>
  <fix>3d</fix>
</trkpt>
<trkpt lat="-27.2740225" lon="151.2905263">
  <ele>373.05</ele>
  <time>2026-09-01T19:58:03Z</time>
  <course>50.02</course>
  <speed>2.86</speed>
  <fix>3d</fix>
</trkpt>
<trkpt lat="-27.274017" lon="151.290534">
  <ele>372.94</ele>
  <time>2026-09-01T19:58:03Z</time>
  <course>39.98</course>
  <speed>2.4239018131929355</speed>
  <fix>3d</fix>
</trkpt>
<trkpt lat="-27.2740193" lon="151.2905305">
  <ele>373.04</ele>
  <time>2026-09-01T19:58:03Z</time>
  <course>50.14</course>
  <speed>2.66</speed>
  <fix>3d</fix>
</trkpt>
<trkpt lat="-27.2740156" lon="151.2905359">
  <ele>372.94</ele>
  <time>2026-09-01T19:58:03Z</time>
  <course>39.93</course>
  <speed>2.317671245021606</speed>
  <fix>3d</fix>
</trkpt>
<trkpt lat="-27.2740193" lon="151.2905305">
  <ele>373.04</ele>
  <time>2026-09-01T19:58:03Z</time>
  <course>50.14</course>
  <speed>2.66</speed>
  <fix>3d</fix>
</trkpt>
<trkpt lat="-27.2740143" lon="151.2905378">
  <ele>372.94</ele>
  <time>2026-09-01T19:58:03Z</time>
  <course>39.87</course>
  <speed>2.211447489767731</speed>
  <fix>3d</fix>
</trkpt>
<trkpt lat="-27.2740164" lon="151.2905344">
  <ele>373.04</ele>
  <time>2026-09-01T19:58:03Z</time>
  <course>50.29</course>
  <speed>2.44</speed>
  <fix>3d</fix>
</trkpt>
<trkpt lat="-27.274013" lon="151.2905395">
  <ele>372.94</ele>
  <time>2026-09-01T19:58:03Z</time>
  <course>39.82</course>
  <speed>2.0911719202399404</speed>
  <fix>3d</fix>
</trkpt>
<trkpt lat="-27.2740164" lon="151.2905344">
  <ele>373.04</ele>
  <time>2026-09-01T19:58:03Z</time>
  <course>50.29</course>
  <speed>2.44</speed>
  <fix>3d</fix>
</trkpt>
<trkpt lat="-27.2740118" lon="151.2905411">
  <ele>372.94</ele>
  <time>2026-09-01T19:58:03Z</time>
  <course>39.78</course>
  <speed>1.9990247622278219</speed>
  <fix>3d</fix>
</trkpt>
<trkpt lat="-27.2740137" lon="151.2905381">
  <ele>373.03</ele>
  <time>2026-09-01T19:58:03Z</time>
  <course>50.48</course>
  <speed>2.22</speed>
  <fix>3d</fix>
</trkpt>
<trkpt lat="-27.2740107" lon="151.2905426">
  <ele>372.94</ele>
  <time>2026-09-01T19:58:03Z</time>
  <course>39.72</course>
  <speed>1.892828571212935</speed>
  <fix>3d</fix>
</trkpt>
<trkpt lat="-27.2740137" lon="151.2905381">
  <ele>373.03</ele>
  <time>2026-09-01T19:58:03Z</time>
  <course>50.48</course>
  <speed>2.22</speed>
  <fix>3d</fix>
</trkpt>
<trkpt lat="-27.2740096" lon="151.2905441">
  <ele>372.94</ele>
  <time>2026-09-01T19:58:03Z</time>
  <course>39.55</course>
  <speed>1.8428510520386612</speed>
  <fix>3d</fix>
</trkpt>
<trkpt lat="-27.2740113" lon="151.2905415">
  <ele>373.03</ele>
  <time>2026-09-01T19:58:03Z</time>
  <course>50.68</course>
  <speed>2.01</speed>
  <fix>3d</fix>
</trkpt>
<trkpt lat="-27.2740085" lon="151.2905456">
  <ele>372.94</ele>
  <time>2026-09-01T19:58:03Z</time>
  <course>39.29</course>
  <speed>1.8476471524617464</speed>
  <fix>3d</fix>
</trkpt>
<trkpt lat="-27.2740113" lon="151.2905415">
  <ele>373.03</ele>
  <time>2026-09-01T19:58:03Z</time>
  <course>50.68</course>
  <speed>2.01</speed>
  <fix>3d</fix>
</trkpt>
<trkpt lat="-27.2740074" lon="151.290547">
  <ele>372.94</ele>
  <time>2026-09-01T19:58:03Z</time>
  <course>38.99</course>
  <speed>1.9231484602078956</speed>
  <fix>3d</fix>
</trkpt>
<trkpt lat="-27.2740091" lon="151.2905445">
  <ele>373.03</ele>
  <time>2026-09-01T19:58:03Z</time>
  <course>50.42</course>
  <speed>1.89</speed>
  <fix>3d</fix>
</trkpt>
<trkpt lat="-27.2740062" lon="151.2905486">
  <ele>372.94</ele>
  <time>2026-09-01T19:58:03Z</time>
  <course>38.59</course>
  <speed>2.068671071001864</speed>
  <fix>3d</fix>
</trkpt>
<trkpt lat="-27.2740091" lon="151.2905445">
  <ele>373.03</ele>
  <time>2026-09-01T19:58:03Z</time>
  <course>50.42</course>
  <speed>1.89</speed>
  <fix>3d</fix>
</trkpt>
<trkpt lat="-27.2740049" lon="151.2905502">
  <ele>372.95</ele>
  <time>2026-09-01T19:58:03Z</time>
  <course>38.21</course>
  <speed>2.278464395157405</speed>
  <fix>3d</fix>
</trkpt>
<trkpt lat="-27.2740069" lon="151.2905475">
  <ele>373.03</ele>
  <time>2026-09-01T19:58:03Z</time>
  <course>48.95</course>
  <speed>1.96</speed>
  <fix>3d</fix>
</trkpt>
<trkpt lat="-27.2740034" lon="151.290552">
  <ele>372.95</ele>
  <time>2026-09-01T19:58:03Z</time>
  <course>37.79</course>
  <speed>2.5529003114105335</speed>
  <fix>3d</fix>
</trkpt>
<trkpt lat="-27.2740069" lon="151.2905475">
  <ele>373.03</ele>
  <time>2026-09-01T19:58:03Z</time>
  <course>48.95</course>
  <speed>1.96</speed>
  <fix>3d</fix>
</trkpt>
<trkpt lat="-27.2740016" lon="151.2905539">
  <ele>372.96</ele>
  <time>2026-09-01T19:58:03Z</time>
  <course>37.45</course>
  <speed>2.906286290096005</speed>
  <fix>3d</fix>
</trkpt>
<trkpt lat="-27.2740043" lon="151.2905506">
  <ele>373.03</ele>
  <time>2026-09-01T19:58:03Z</time>
  <course>46.5</course>
  <speed>2.31</speed>
  <fix>3d</fix>
</trkpt>
<trkpt lat="-27.2739996" lon="151.2905561">
  <ele>372.97</ele>
  <time>2026-09-01T19:58:03Z</time>
  <course>37.11</course>
  <speed>3.3248759375351136</speed>
  <fix>3d</fix>
</trkpt>
<trkpt lat="-27.2740043" lon="151.2905506">
  <ele>373.03</ele>
  <time>2026-09-01T19:58:03Z</time>
  <course>46.5</course>
  <speed>2.31</speed>
  <fix>3d</fix>
</trkpt>
<trkpt lat="-27.2739972" lon="151.2905586">
  <ele>372.98</ele>
  <time>2026-09-01T19:58:03Z</time>
  <course>36.85</course>
  <speed>3.808674310045426</speed>
  <fix>3d</fix>
</trkpt>
<trkpt lat="-27.274001" lon="151.2905543">
  <ele>373.05</ele>
  <time>2026-09-01T19:58:03Z</time>
  <course>43.97</course>
  <speed>2.93</speed>
  <fix>3d</fix>
</trkpt>
<trkpt lat="-27.2739944" lon="151.2905613">
  <ele>372.99</ele>
  <time>2026-09-01T19:58:03Z</time>
  <course>36.61</course>
  <speed>4.357441910111941</speed>
  <fix>3d</fix>
</trkpt>
<trkpt lat="-27.274001" lon="151.2905543">
  <ele>373.05</ele>
  <time>2026-09-01T19:58:03Z</time>
  <course>43.97</course>
  <speed>2.93</speed>
  <fix>3d</fix>
</trkpt>
<trkpt lat="-27.2739913" lon="151.2905644">
  <ele>373.01</ele>
  <time>2026-09-01T19:58:03Z</time>
  <course>36.33</course>
  <speed>4.922154000028849</speed>
  <fix>3d</fix>
</trkpt>
<trkpt lat="-27.2739966" lon="151.2905589">
  <ele>373.07</ele>
  <time>2026-09-01T19:58:03Z</time>
  <course>41.85</course>
  <speed>3.82</speed>
  <fix>3d</fix>
</trkpt>
<trkpt lat="-27.2739877" lon="151.2905677">
  <ele>373.02</ele>
  <time>2026-09-01T19:58:03Z</time>
  <course>36.08</course>
  <speed>5.48</speed>
  <fix>3d</fix>
</trkpt>
<trkpt lat="-27.2739966" lon="151.2905589">
  <ele>373.07</ele>
  <time>2026-09-01T19:58:03Z</time>
  <course>41.85</course>
  <speed>3.82</speed>
  <fix>3d</fix>
</trkpt>
<trkpt lat="-27.2739837" lon="151.2905714">
  <ele>373.03</ele>
  <time>2026-09-01T19:58:03Z</time>
  <course>35.64</course>
  <speed>5.994731019820656</speed>
  <fix>3d</fix>
</trkpt>
<trkpt lat="-27.2739907" lon="151.2905647">
  <ele>373.09</ele>
  <time>2026-09-01T19:58:03Z</time>
  <course>40.28</course>
  <speed>4.9</speed>
  <fix>3d</fix>
</trkpt>
<trkpt lat="-27.2739794" lon="151.2905754">
  <ele>373.04</ele>
  <time>2026-09-01T19:58:03Z</time>
  <course>34.97</course>
  <speed>6.447084612443053</speed>
  <fix>3d</fix>
</trkpt>
<trkpt lat="-27.2739907" lon="151.2905647">
  <ele>373.09</ele>
  <time>2026-09-01T19:58:03Z</time>
  <course>40.28</course>
  <speed>4.9</speed>
  <fix>3d</fix>
</trkpt>
<trkpt lat="-27.2739747" lon="151.2905796">
  <ele>373.05</ele>
  <time>2026-09-01T19:58:03Z</time>
  <course>34.27</course>
  <speed>6.859154466842105</speed>
  <fix>3d</fix>
</trkpt>
<trkpt lat="-27.2739831" lon="151.2905718">
  <ele>373.11</ele>
  <time>2026-09-01T19:58:03Z</time>
  <course>39.23</course>
  <speed>5.96</speed>
  <fix>3d</fix>
</trkpt>
<trkpt lat="-27.2739698" lon="151.290584">
  <ele>373.06</ele>
  <time>2026-09-01T19:58:03Z</time>
  <course>33.35</course>
  <speed>7.289231783939923</speed>
  <fix>3d</fix>
</trkpt>
<trkpt lat="-27.2739831" lon="151.2905718">
  <ele>373.11</ele>
  <time>2026-09-01T19:58:03Z</time>
  <course>39.23</course>
  <speed>5.96</speed>
  <fix>3d</fix>
</trkpt>
<trkpt lat="-27.2739644" lon="151.2905886">
  <ele>373.07</ele>
  <time>2026-09-01T19:58:03Z</time>
  <course>32.46</course>
  <speed>7.7340093095366775</speed>
  <fix>3d</fix>
</trkpt>
<trkpt lat="-27.2739741" lon="151.29058">
  <ele>373.13</ele>
  <time>2026-09-01T19:58:03Z</time>
  <course>38.21</course>
  <speed>6.87</speed>
  <fix>3d</fix>
</trkpt>
<trkpt lat="-27.2739585" lon="151.2905935">
  <ele>373.08</ele>
  <time>2026-09-01T19:58:03Z</time>
  <course>31.58</course>
  <speed>8.195523168169315</speed>
  <fix>3d</fix>
</trkpt>
<trkpt lat="-27.2739741" lon="151.29058">
  <ele>373.13</ele>
  <time>2026-09-01T19:58:03Z</time>
  <course>38.21</course>
  <speed>6.87</speed>
  <fix>3d</fix>
</trkpt>
<trkpt lat="-27.2739523" lon="151.2905983">
  <ele>373.09</ele>
  <time>2026-09-01T19:58:03Z</time>
  <course>30.74</course>
  <speed>8.651410289657981</speed>
  <fix>3d</fix>
</trkpt>
<trkpt lat="-27.2739636" lon="151.2905889">
  <ele>373.15</ele>
  <time>2026-09-01T19:58:03Z</time>
  <course>36.55</course>
  <speed>7.75</speed>
  <fix>3d</fix>
</trkpt>
<trkpt lat="-27.2739457" lon="151.2906033">
  <ele>373.1</ele>
  <time>2026-09-01T19:58:03Z</time>
  <course>29.82</course>
  <speed>9.105921150548143</speed>
  <fix>3d</fix>
</trkpt>
<trkpt lat="-27.2739636" lon="151.2905889">
  <ele>373.15</ele>
  <time>2026-09-01T19:58:03Z</time>
  <course>36.55</course>
  <speed>7.75</speed>
  <fix>3d</fix>
</trkpt>
<trkpt lat="-27.2739386" lon="151.2906082">
  <ele>373.11</ele>
  <time>2026-09-01T19:58:03Z</time>
  <course>28.84</course>
  <speed>9.552989061021686</speed>
  <fix>3d</fix>
</trkpt>
<trkpt lat="-27.2739517" lon="151.2905985">
  <ele>373.16</ele>
  <time>2026-09-01T19:58:03Z</time>
  <course>34.21</course>
  <speed>8.66</speed>
  <fix>3d</fix>
</trkpt>
<trkpt lat="-27.2739311" lon="151.2906133">
  <ele>373.13</ele>
  <time>2026-09-01T19:58:03Z</time>
  <course>27.87</course>
  <speed>9.999779997579946</speed>
  <fix>3d</fix>
</trkpt>
<trkpt lat="-27.2739517" lon="151.2905985">
  <ele>373.16</ele>
  <time>2026-09-01T19:58:03Z</time>
  <course>34.21</course>
  <speed>8.66</speed>
  <fix>3d</fix>
</trkpt>
<trkpt lat="-27.2739231" lon="151.2906183">
  <ele>373.14</ele>
  <time>2026-09-01T19:58:03Z</time>
  <course>26.8</course>
  <speed>10.44782273969079</speed>
  <fix>3d</fix>
</trkpt>
<trkpt lat="-27.2739379" lon="151.2906085">
  <ele>373.19</ele>
  <time>2026-09-01T19:58:03Z</time>
  <course>31.39</course>
  <speed>9.57</speed>
  <fix>3d</fix>
</trkpt>
<trkpt lat="-27.2739145" lon="151.2906233">
  <ele>373.15</ele>
  <time>2026-09-01T19:58:03Z</time>
  <course>25.47</course>
  <speed>10.898669643584945</speed>
  <fix>3d</fix>
</trkpt>
<trkpt lat="-27.2739379" lon="151.2906085">
  <ele>373.19</ele>
  <time>2026-09-01T19:58:03Z</time>
  <course>31.39</course>
  <speed>9.57</speed>
  <fix>3d</fix>
</trkpt>
<trkpt lat="-27.2739055" lon="151.2906282">
  <ele>373.17</ele>
  <time>2026-09-01T19:58:03Z</time>
  <course>24.22</course>
  <speed>11.335784048754633</speed>
  <fix>3d</fix>
</trkpt>
<trkpt lat="-27.2739223" lon="151.2906186">
  <ele>373.22</ele>
  <time>2026-09-01T19:58:03Z</time>
  <course>28.31</course>
  <speed>10.47</speed>
  <fix>3d</fix>
</trkpt>
<trkpt lat="-27.2738961" lon="151.2906329">
  <ele>373.18</ele>
  <time>2026-09-01T19:58:03Z</time>
  <course>23.0</course>
  <speed>11.765211430314373</speed>
  <fix>3d</fix>
</trkpt>
<trkpt lat="-27.2739223" lon="151.2906186">
  <ele>373.22</ele>
  <time>2026-09-01T19:58:03Z</time>
  <course>28.31</course>
  <speed>10.47</speed>
  <fix>3d</fix>
</trkpt>
<trkpt lat="-27.2738862" lon="151.2906376">
  <ele>373.19</ele>
  <time>2026-09-01T19:58:03Z</time>
  <course>21.83</course>
  <speed>12.187194098725104</speed>
  <fix>3d</fix>
</trkpt>
<trkpt lat="-27.2739047" lon="151.2906285">
  <ele>373.24</ele>
  <time>2026-09-01T19:58:03Z</time>
  <course>25.11</course>
  <speed>11.35</speed>
  <fix>3d</fix>
</trkpt>
<trkpt lat="-27.2738758" lon="151.2906421">
  <ele>373.19</ele>
  <time>2026-09-01T19:58:03Z</time>
  <course>20.56</course>
  <speed>12.62071709531594</speed>
  <fix>3d</fix>
</trkpt>
<trkpt lat="-27.2739047" lon="151.2906285">
  <ele>373.24</ele>
  <time>2026-09-01T19:58:03Z</time>
  <course>25.11</course>
  <speed>11.35</speed>
  <fix>3d</fix>
</trkpt>
<trkpt lat="-27.273865" lon="151.2906464">
  <ele>373.2</ele>
  <time>2026-09-01T19:58:03Z</time>
  <course>19.2</course>
  <speed>13.02873746761366</speed>
  <fix>3d</fix>
</trkpt>
<trkpt lat="-27.2738854" lon="151.290638">
  <ele>373.26</ele>
  <time>2026-09-01T19:58:03Z</time>
  <course>21.89</course>
  <speed>12.22</speed>
  <fix>3d</fix>
</trkpt>
<trkpt lat="-27.2738537" lon="151.2906505">
  <ele>373.2</ele>
  <time>2026-09-01T19:58:03Z</time>
  <course>17.85</course>
  <speed>13.43973586049964</speed>
  <fix>3d</fix>
</trkpt>
<trkpt lat="-27.2738854" lon="151.290638">
  <ele>373.26</ele>
  <time>2026-09-01T19:58:03Z</time>
  <course>21.89</course>
  <speed>12.22</speed>
  <fix>3d</fix>
</trkpt>
<trkpt lat="-27.2738422" lon="151.2906543">
  <ele>373.2</ele>
  <time>2026-09-01T19:58:03Z</time>
  <course>16.56</course>
  <speed>13.8378069071656</speed>
  <fix>3d</fix>
</trkpt>
<trkpt lat="-27.2738641" lon="151.2906468">
  <ele>373.27</ele>
  <time>2026-09-01T19:58:03Z</time>
  <course>18.76</course>
  <speed>13.07</speed>
  <fix>3d</fix>
</trkpt>
<trkpt lat="-27.2738302" lon="151.290658">
  <ele>373.2</ele>
  <time>2026-09-01T19:58:03Z</time>
  <course>15.31</course>
  <speed>14.236923825040297</speed>
  <fix>3d</fix>
</trkpt>
<trkpt lat="-27.2738641" lon="151.2906468">
  <ele>373.27</ele>
  <time>2026-09-01T19:58:03Z</time>
  <course>18.76</course>
  <speed>13.07</speed>
  <fix>3d</fix>
</trkpt>
<trkpt lat="-27.2738176" lon="151.2906614">
  <ele>373.2</ele>
  <time>2026-09-01T19:58:03Z</time>
  <course>14.01</course>
  <speed>14.62344692608415</speed>
  <fix>3d</fix>
</trkpt>
<trkpt lat="-27.2738409" lon="151.2906549">
  <ele>373.27</ele>
  <time>2026-09-01T19:58:03Z</time>
  <course>15.71</course>
  <speed>13.89</speed>
  <fix>3d</fix>
</trkpt>
<trkpt lat="-27.2738046" lon="151.2906646">
  <ele>373.2</ele>
  <time>2026-09-01T19:58:03Z</time>
  <course>12.8</course>
  <speed>15.01663411021258</speed>
  <fix>3d</fix>
</trkpt>
<trkpt lat="-27.2738409" lon="151.2906549">
  <ele>373.27</ele>
  <time>2026-09-01T19:58:03Z</time>
  <course>15.71</course>
  <speed>13.89</speed>
  <fix>3d</fix>
</trkpt>
<trkpt lat="-27.2737911" lon="151.2906675">
  <ele>373.19</ele>
  <time>2026-09-01T19:58:03Z</time>
  <course>11.48</course>
  <speed>15.395064144069034</speed>
  <fix>3d</fix>
</trkpt>
<trkpt lat="-27.273816" lon="151.290662">
  <ele>373.26</ele>
  <time>2026-09-01T19:58:03Z</time>
  <course>12.79</course>
  <speed>14.69</speed>
  <fix>3d</fix>
</trkpt>
<trkpt lat="-27.2737772" lon="151.2906701">
  <ele>373.19</ele>
  <time>2026-09-01T19:58:03Z</time>
  <course>10.14</course>
  <speed>15.770621420857202</speed>
  <fix>3d</fix>
</trkpt>
<trkpt lat="-27.273816" lon="151.290662">
  <ele>373.26</ele>
  <time>2026-09-01T19:58:03Z</time>
  <course>12.79</course>
  <speed>14.69</speed>
  <fix>3d</fix>
</trkpt>
<trkpt lat="-27.273763" lon="151.2906724">
  <ele>373.18</ele>
  <time>2026-09-01T19:58:03Z</time>
  <course>8.87</course>
  <speed>16.133347451784456</speed>
  <fix>3d</fix>
</trkpt>
<trkpt lat="-27.2737894" lon="151.290668">
  <ele>373.26</ele>
  <time>2026-09-01T19:58:03Z</time>
  <course>10.01</course>
  <speed>15.46</speed>
  <fix>3d</fix>
</trkpt>
<trkpt lat="-27.2737484" lon="151.2906743">
  <ele>373.17</ele>
  <time>2026-09-01T19:58:03Z</time>
  <course>7.65</course>
  <speed>16.483161104593986</speed>
  <fix>3d</fix>
</trkpt>
<trkpt lat="-27.2737894" lon="151.290668">
  <ele>373.26</ele>
  <time>2026-09-01T19:58:03Z</time>
  <course>10.01</course>
  <speed>15.46</speed>
  <fix>3d</fix>
</trkpt>
<trkpt lat="-27.273733" lon="151.290676">
  <ele>373.16</ele>
  <time>2026-09-01T19:58:03Z</time>
  <course>6.33</course>
  <speed>16.848266973193414</speed>
  <fix>3d</fix>
</trkpt>
<trkpt lat="-27.2737612" lon="151.2906729">
  <ele>373.25</ele>
  <time>2026-09-01T19:58:03Z</time>
  <course>7.35</course>
  <speed>16.2</speed>
  <fix>3d</fix>
</trkpt>
<trkpt lat="-27.2737178" lon="151.2906773">
  <ele>373.14</ele>
  <time>2026-09-01T19:58:03Z</time>
  <course>5.07</course>
  <speed>17.182726791752234</speed>
  <fix>3d</fix>
</trkpt>
<trkpt lat="-27.2737612" lon="151.2906729">
  <ele>373.25</ele>
  <time>2026-09-01T19:58:03Z</time>
  <course>7.35</course>
  <speed>16.2</speed>
  <fix>3d</fix>
</trkpt>
<trkpt lat="-27.2737022" lon="151.2906782">
  <ele>373.13</ele>
  <time>2026-09-01T19:58:03Z</time>
  <course>3.81</course>
  <speed>17.513994404475525</speed>
  <fix>3d</fix>
</trkpt>
<trkpt lat="-27.2737316" lon="151.2906764">
  <ele>373.22</ele>
  <time>2026-09-01T19:58:03Z</time>
  <course>4.79</course>
  <speed>16.91</speed>
  <fix>3d</fix>
</trkpt>
<trkpt lat="-27.2736863" lon="151.2906788">
  <ele>373.12</ele>
  <time>2026-09-01T19:58:03Z</time>
  <course>2.52</course>
  <speed>17.84305186900492</speed>
  <fix>3d</fix>
</trkpt>
<trkpt lat="-27.2737316" lon="151.2906764">
  <ele>373.22</ele>
  <time>2026-09-01T19:58:03Z</time>
  <course>4.79</course>
  <speed>16.91</speed>
  <fix>3d</fix>
</trkpt>
<trkpt lat="-27.27367" lon="151.2906789">
  <ele>373.11</ele>
  <time>2026-09-01T19:58:03Z</time>
  <course>1.17</course>
  <speed>18.160134911393143</speed>
  <fix>3d</fix>
</trkpt>
<trkpt lat="-27.2737007" lon="151.2906785">
  <ele>373.2</ele>
  <time>2026-09-01T19:58:03Z</time>
  <course>2.29</course>
  <speed>17.58</speed>
  <fix>3d</fix>
</trkpt>
<trkpt lat="-27.2736534" lon="151.2906787">
  <ele>373.1</ele>
  <time>2026-09-01T19:58:03Z</time>
  <course>359.69</course>
  <speed>18.456773824263006</speed>
  <fix>3d</fix>
</trkpt>
<trkpt lat="-27.2737007" lon="151.2906785">
  <ele>373.2</ele>
  <time>2026-09-01T19:58:03Z</time>
  <course>2.29</course>
  <speed>17.58</speed>
  <fix>3d</fix>
</trkpt>
<trkpt lat="-27.2736366" lon="151.2906779">
  <ele>373.09</ele>
  <time>2026-09-01T19:58:03Z</time>
  <course>358.16</course>
  <speed>18.765606838042835</speed>
  <fix>3d</fix>
</trkpt>
<trkpt lat="-27.2736686" lon="151.2906792">
  <ele>373.18</ele>
  <time>2026-09-01T19:58:03Z</time>
  <course>359.73</course>
  <speed>18.21</speed>
  <fix>3d</fix>
</trkpt>
<trkpt lat="-27.2736196" lon="151.2906768">
  <ele>373.09</ele>
  <time>2026-09-01T19:58:03Z</time>
  <course>356.57</course>
  <speed>19.04914958731754</speed>
  <fix>3d</fix>
</trkpt>
<trkpt lat="-27.2736686" lon="151.2906792">
  <ele>373.18</ele>
  <time>2026-09-01T19:58:03Z</time>
  <course>359.73</course>
  <speed>18.21</speed>
  <fix>3d</fix>
</trkpt>
<trkpt lat="-27.2736024" lon="151.290675">
  <ele>373.09</ele>
  <time>2026-09-01T19:58:03Z</time>
  <course>354.87</course>
  <speed>19.33008018607269</speed>
  <fix>3d</fix>
</trkpt>
<trkpt lat="-27.2736353" lon="151.2906782">
  <ele>373.16</ele>
  <time>2026-09-01T19:58:03Z</time>
  <course>356.96</course>
  <speed>18.81</speed>
  <fix>3d</fix>
</trkpt>
<trkpt lat="-27.2735849" lon="151.2906727">
  <ele>373.09</ele>
  <time>2026-09-01T19:58:03Z</time>
  <course>353.16</course>
  <speed>19.60268604043844</speed>
  <fix>3d</fix>
</trkpt>
<trkpt lat="-27.2736353" lon="151.2906782">
  <ele>373.16</ele>
  <time>2026-09-01T19:58:03Z</time>
  <course>356.96</course>
  <speed>18.81</speed>
  <fix>3d</fix>
</trkpt>
<trkpt lat="-27.2735674" lon="151.2906697">
  <ele>373.1</ele>
  <time>2026-09-01T19:58:03Z</time>
  <course>351.37</course>
  <speed>19.871009033262503</speed>
  <fix>3d</fix>
</trkpt>
<trkpt lat="-27.2736011" lon="151.2906752">
  <ele>373.15</ele>
  <time>2026-09-01T19:58:03Z</time>
  <course>353.85</course>
  <speed>19.38</speed>
  <fix>3d</fix>
</trkpt>
<trkpt lat="-27.2735496" lon="151.290666">
  <ele>373.11</ele>
  <time>2026-09-01T19:58:03Z</time>
  <course>349.46</course>
  <speed>20.131589604400343</speed>
  <fix>3d</fix>
</trkpt>
<trkpt lat="-27.2736011" lon="151.2906752">
  <ele>373.15</ele>
  <time>2026-09-01T19:58:03Z</time>
  <course>353.85</course>
  <speed>19.38</speed>
  <fix>3d</fix>
</trkpt>
<trkpt lat="-27.2735318" lon="151.2906615">
  <ele>373.12</ele>
  <time>2026-09-01T19:58:03Z</time>
  <course>347.44</course>
  <speed>20.378233485756315</speed>
  <fix>3d</fix>
</trkpt>
<trkpt lat="-27.2735662" lon="151.2906697">
  <ele>373.16</ele>
  <time>2026-09-01T19:58:03Z</time>
  <course>350.31</course>
  <speed>19.91</speed>
  <fix>3d</fix>
</trkpt>
<trkpt lat="-27.273514" lon="151.2906562">
  <ele>373.14</ele>
  <time>2026-09-01T19:58:03Z</time>
  <course>345.25</course>
  <speed>20.62334841872192</speed>
  <fix>3d</fix>
</trkpt>
<trkpt lat="-27.2735662" lon="151.2906697">
  <ele>373.16</ele>
  <time>2026-09-01T19:58:03Z</time>
  <course>350.31</course>
  <speed>19.91</speed>
  <fix>3d</fix>
</trkpt>
<trkpt lat="-27.2734961" lon="151.2906501">
  <ele>373.16</ele>
  <time>2026-09-01T19:58:03Z</time>
  <course>343.1</course>
  <speed>20.874522749035485</speed>
  <fix>3d</fix>
</trkpt>
<trkpt lat="-27.2735307" lon="151.2906614">
  <ele>373.18</ele>
  <time>2026-09-01T19:58:03Z</time>
  <course>346.33</course>
  <speed>20.42</speed>
  <fix>3d</fix>
</trkpt>
<trkpt lat="-27.2734782" lon="151.2906431">
  <ele>373.19</ele>
  <time>2026-09-01T19:58:03Z</time>
  <course>340.87</course>
  <speed>21.09904737186018</speed>
  <fix>3d</fix>
</trkpt>
<trkpt lat="-27.2735307" lon="151.2906614">
  <ele>373.18</ele>
  <time>2026-09-01T19:58:03Z</time>
  <course>346.33</course>
  <speed>20.42</speed>
  <fix>3d</fix>
</trkpt>
<trkpt lat="-27.2734604" lon="151.2906353">
  <ele>373.21</ele>
  <time>2026-09-01T19:58:03Z</time>
  <course>338.54</course>
  <speed>21.332463523934592</speed>
  <fix>3d</fix>
</trkpt>
<trkpt lat="-27.273495" lon="151.29065">
  <ele>373.22</ele>
  <time>2026-09-01T19:58:03Z</time>
  <course>341.93</course>
  <speed>20.89</speed>
  <fix>3d</fix>
</trkpt>
<trkpt lat="-27.2734428" lon="151.2906264">
  <ele>373.25</ele>
  <time>2026-09-01T19:58:03Z</time>
  <course>336.23</course>
  <speed>21.54749405383373</speed>
  <fix>3d</fix>
</trkpt>
<trkpt lat="-27.273495" lon="151.29065">
  <ele>373.22</ele>
  <time>2026-09-01T19:58:03Z</time>
  <course>341.93</course>
  <speed>20.89</speed>
  <fix>3d</fix>
</trkpt>
<trkpt lat="-27.2734254" lon="151.2906167">
  <ele>373.28</ele>
  <time>2026-09-01T19:58:03Z</time>
  <course>333.86</course>
  <speed>21.76619397138599</speed>
  <fix>3d</fix>
</trkpt>
<trkpt lat="-27.2734594" lon="151.2906351">
  <ele>373.28</ele>
  <time>2026-09-01T19:58:03Z</time>
  <course>337.21</course>
  <speed>21.35</speed>
  <fix>3d</fix>
</trkpt>
<trkpt lat="-27.2734081" lon="151.290606">
  <ele>373.32</ele>
  <time>2026-09-01T19:58:03Z</time>
  <course>331.49</course>
  <speed>21.977415680648168</speed>
  <fix>3d</fix>
</trkpt>
<trkpt lat="-27.2734594" lon="151.2906351">
  <ele>373.28</ele>
  <time>2026-09-01T19:58:03Z</time>
  <course>337.21</course>
  <speed>21.35</speed>
  <fix>3d</fix>
</trkpt>
<trkpt lat="-27.2733916" lon="151.2905947">
  <ele>373.36</ele>
  <time>2026-09-01T19:58:03Z</time>
  <course>329.15</course>
  <speed>22.17467023430112</speed>
  <fix>3d</fix>
</trkpt>
<trkpt lat="-27.2734243" lon="151.2906165">
  <ele>373.34</ele>
  <time>2026-09-01T19:58:03Z</time>
  <course>332.3</course>
  <speed>21.78</speed>
  <fix>3d</fix>
</trkpt>
<trkpt lat="-27.2733744" lon="151.2905817">
  <ele>373.41</ele>
  <time>2026-09-01T19:58:03Z</time>
  <course>326.63</course>
  <speed>22.382533368678356</speed>
  <fix>3d</fix>
</trkpt>
<trkpt lat="-27.2734243" lon="151.2906165">
  <ele>373.34</ele>
  <time>2026-09-01T19:58:03Z</time>
  <course>332.3</course>
  <speed>21.78</speed>
  <fix>3d</fix>
</trkpt>
<trkpt lat="-27.2733584" lon="151.2905684">
  <ele>373.46</ele>
  <time>2026-09-01T19:58:03Z</time>
  <course>324.26</course>
  <speed>22.566745445455798</speed>
  <fix>3d</fix>
</trkpt>
<trkpt lat="-27.2733902" lon="151.2905941">
  <ele>373.42</ele>
  <time>2026-09-01T19:58:03Z</time>
  <course>327.32</course>
  <speed>22.19</speed>
  <fix>3d</fix>
</trkpt>
<trkpt lat="-27.2733426" lon="151.2905541">
  <ele>373.51</ele>
  <time>2026-09-01T19:58:03Z</time>
  <course>321.85</course>
  <speed>22.756548508066857</speed>
  <fix>3d</fix>
</trkpt>
<trkpt lat="-27.2733902" lon="151.2905941">
  <ele>373.42</ele>
  <time>2026-09-01T19:58:03Z</time>
  <course>327.32</course>
  <speed>22.19</speed>
  <fix>3d</fix>
</trkpt>
<trkpt lat="-27.2733272" lon="151.290539">
  <ele>373.56</ele>
  <time>2026-09-01T19:58:03Z</time>
  <course>319.52</course>
  <speed>22.929845180462948</speed>
  <fix>3d</fix>
</trkpt>
<trkpt lat="-27.2733573" lon="151.2905681">
  <ele>373.52</ele>
  <time>2026-09-01T19:58:03Z</time>
  <course>322.34</course>
  <speed>22.58</speed>
  <fix>3d</fix>
</trkpt>
<trkpt lat="-27.2733123" lon="151.290523">
  <ele>373.62</ele>
  <time>2026-09-01T19:58:03Z</time>
  <course>317.22</course>
  <speed>23.108249609176372</speed>
  <fix>3d</fix>
</trkpt>
<trkpt lat="-27.2733573" lon="151.2905681">
  <ele>373.52</ele>
  <time>2026-09-01T19:58:03Z</time>
  <course>322.34</course>
  <speed>22.58</speed>
  <fix>3d</fix>
</trkpt>
<trkpt lat="-27.2732979" lon="151.2905062">
  <ele>373.67</ele>
  <time>2026-09-01T19:58:03Z</time>
  <course>314.99</course>
  <speed>23.26219465140811</speed>
  <fix>3d</fix>
</trkpt>
<trkpt lat="-27.2733261" lon="151.2905385">
  <ele>373.62</ele>
  <time>2026-09-01T19:58:03Z</time>
  <course>317.46</course>
  <speed>22.95</speed>
  <fix>3d</fix>
</trkpt>
<trkpt lat="-27.273284" lon="151.2904886">
  <ele>373.72</ele>
  <time>2026-09-01T19:58:03Z</time>
  <course>312.78</course>
  <speed>23.42430361825085</speed>
  <fix>3d</fix>
</trkpt>
<trkpt lat="-27.2733261" lon="151.2905385">
  <ele>373.62</ele>
  <time>2026-09-01T19:58:03Z</time>
  <course>317.46</course>
  <speed>22.95</speed>
  <fix>3d</fix>
</trkpt>
<trkpt lat="-27.2732706" lon="151.2904704">
  <ele>373.77</ele>
  <time>2026-09-01T19:58:03Z</time>
  <course>310.72</course>
  <speed>23.57832267147093</speed>
  <fix>3d</fix>
</trkpt>
<trkpt lat="-27.2732966" lon="151.2905055">
  <ele>373.72</ele>
  <time>2026-09-01T19:58:03Z</time>
  <course>312.76</course>
  <speed>23.3</speed>
  <fix>3d</fix>
</trkpt>
<trkpt lat="-27.2732578" lon="151.2904515">
  <ele>373.83</ele>
  <time>2026-09-01T19:58:03Z</time>
  <course>308.7</course>
  <speed>23.734211594236704</speed>
  <fix>3d</fix>
</trkpt>
<trkpt lat="-27.2732966" lon="151.2905055">
  <ele>373.72</ele>
  <time>2026-09-01T19:58:04Z</time>
  <course>312.76</course>
  <speed>23.3</speed>
  <fix>3d</fix>
</trkpt>
<trkpt lat="-27.2732455" lon="151.2904319">
  <ele>373.87</ele>
  <time>2026-09-01T19:58:04Z</time>
  <course>306.72</course>
  <speed>23.877472646827595</speed>
  <fix>3d</fix>
</trkpt>
<trkpt lat="-27.2732693" lon="151.2904694">
  <ele>373.82</ele>
  <time>2026-09-01T19:58:04Z</time>
  <course>308.28</course>
  <speed>23.62</speed>
  <fix>3d</fix>
</trkpt>
<trkpt lat="-27.2732337" lon="151.2904117">
  <ele>373.92</ele>
  <time>2026-09-01T19:58:04Z</time>
  <course>304.8</course>
  <speed>24.019577431753454</speed>
  <fix>3d</fix>
</trkpt>
<trkpt lat="-27.2732693" lon="151.2904694">
  <ele>373.82</ele>
  <time>2026-09-01T19:58:04Z</time>
  <course>308.28</course>
  <speed>23.62</speed>
  <fix>3d</fix>
</trkpt>
<trkpt lat="-27.2732225" lon="151.290391">
  <ele>373.96</ele>
  <time>2026-09-01T19:58:04Z</time>
  <course>302.94</course>
  <speed>24.157750309165795</speed>
  <fix>3d</fix>
</trkpt>
<trkpt lat="-27.2732441" lon="151.2904306">
  <ele>373.91</ele>
  <time>2026-09-01T19:58:04Z</time>
  <course>304.1</course>
  <speed>23.93</speed>
  <fix>3d</fix>
</trkpt>
<trkpt lat="-27.2732118" lon="151.2903697">
  <ele>374.0</ele>
  <time>2026-09-01T19:58:04Z</time>
  <course>301.23</course>
  <speed>24.300347734137468</speed>
  <fix>3d</fix>
</trkpt>
<trkpt lat="-27.2732441" lon="151.2904306">
  <ele>373.91</ele>
  <time>2026-09-01T19:58:04Z</time>
  <course>304.1</course>
  <speed>23.93</speed>
  <fix>3d</fix>
</trkpt>
<trkpt lat="-27.2732016" lon="151.2903479">
  <ele>374.04</ele>
  <time>2026-09-01T19:58:04Z</time>
  <course>299.59</course>
  <speed>24.417903267889322</speed>
  <fix>3d</fix>
</trkpt>
<trkpt lat="-27.2732211" lon="151.2903894">
  <ele>374.0</ele>
  <time>2026-09-01T19:58:04Z</time>
  <course>300.23</course>
  <speed>24.22</speed>
  <fix>3d</fix>
</trkpt>
<trkpt lat="-27.273192" lon="151.2903257">
  <ele>374.07</ele>
  <time>2026-09-01T19:58:04Z</time>
  <course>297.96</course>
  <speed>24.543064193372434</speed>
  <fix>3d</fix>
</trkpt>
<trkpt lat="-27.2732211" lon="151.2903894">
  <ele>374.0</ele>
  <time>2026-09-01T19:58:04Z</time>
  <course>300.23</course>
  <speed>24.22</speed>
  <fix>3d</fix>
</trkpt>
<trkpt lat="-27.2731829" lon="151.2903031">
  <ele>374.1</ele>
  <time>2026-09-01T19:58:04Z</time>
  <course>296.45</course>
  <speed>24.659618812950047</speed>
  <fix>3d</fix>
</trkpt>
<trkpt lat="-27.2732003" lon="151.2903461">
  <ele>374.07</ele>
  <time>2026-09-01T19:58:04Z</time>
  <course>296.68</course>
  <speed>24.48</speed>
  <fix>3d</fix>
</trkpt>
<trkpt lat="-27.2731742" lon="151.2902801">
  <ele>374.12</ele>
  <time>2026-09-01T19:58:04Z</time>
  <course>295.0</course>
  <speed>24.760745142260966</speed>
  <fix>3d</fix>
</trkpt>
<trkpt lat="-27.2732003" lon="151.2903461">
  <ele>374.07</ele>
  <time>2026-09-01T19:58:04Z</time>
  <course>296.68</course>
  <speed>24.48</speed>
  <fix>3d</fix>
</trkpt>
<trkpt lat="-27.2731661" lon="151.2902567">
  <ele>374.14</ele>
  <time>2026-09-01T19:58:04Z</time>
  <course>293.65</course>
  <speed>24.84784095248519</speed>
  <fix>3d</fix>
</trkpt>
<trkpt lat="-27.2731815" lon="151.290301">
  <ele>374.13</ele>
  <time>2026-09-01T19:58:04Z</time>
  <course>293.46</course>
  <speed>24.72</speed>
  <fix>3d</fix>
</trkpt>
<trkpt lat="-27.2731584" lon="151.2902331">
  <ele>374.16</ele>
  <time>2026-09-01T19:58:04Z</time>
  <course>292.38</course>
  <speed>24.905591741614977</speed>
  <fix>3d</fix>
</trkpt>
<trkpt lat="-27.2731815" lon="151.290301">
  <ele>374.13</ele>
  <time>2026-09-01T19:58:04Z</time>
  <course>293.46</course>
  <speed>24.72</speed>
  <fix>3d</fix>
</trkpt>
<trkpt lat="-27.2731512" lon="151.2902093">
  <ele>374.17</ele>
  <time>2026-09-01T19:58:04Z</time>
  <course>291.15</course>
  <speed>24.944674782405965</speed>
  <fix>3d</fix>
</trkpt>
<trkpt lat="-27.2731648" lon="151.2902543">
  <ele>374.17</ele>
  <time>2026-09-01T19:58:04Z</time>
  <course>290.57</course>
  <speed>24.91</speed>
  <fix>3d</fix>
</trkpt>
<trkpt lat="-27.2731444" lon="151.2901852">
  <ele>374.17</ele>
  <time>2026-09-01T19:58:04Z</time>
  <course>289.99</course>
  <speed>24.965868701088695</speed>
  <fix>3d</fix>
</trkpt>
<trkpt lat="-27.2731648" lon="151.2902543">
  <ele>374.17</ele>
  <time>2026-09-01T19:58:04Z</time>
  <course>290.57</course>
  <speed>24.91</speed>
  <fix>3d</fix>
</trkpt>
<trkpt lat="-27.273138" lon="151.2901609">
  <ele>374.17</ele>
  <time>2026-09-01T19:58:04Z</time>
  <course>288.79</course>
  <speed>25.002471877796403</speed>
  <fix>3d</fix>
</trkpt>
<trkpt lat="-27.27315" lon="151.2902067">
  <ele>374.19</ele>
  <time>2026-09-01T19:58:04Z</time>
  <course>288.0</course>
  <speed>25.01</speed>
  <fix>3d</fix>
</trkpt>
<trkpt lat="-27.2731321" lon="151.2901365">
  <ele>374.16</ele>
  <time>2026-09-01T19:58:04Z</time>
  <course>287.67</course>
  <speed>25.033996884237244</speed>
  <fix>3d</fix>
</trkpt>
<trkpt lat="-27.27315" lon="151.2902067">
  <ele>374.19</ele>
  <time>2026-09-01T19:58:04Z</time>
  <course>288.0</course>
  <speed>25.01</speed>
  <fix>3d</fix>
</trkpt>
<trkpt lat="-27.2731265" lon="151.290112">
  <ele>374.15</ele>
  <time>2026-09-01T19:58:04Z</time>
  <course>286.67</course>
  <speed>25.059074204766624</speed>
  <fix>3d</fix>
</trkpt>
<trkpt lat="-27.273137" lon="151.2901583">
  <ele>374.19</ele>
  <time>2026-09-01T19:58:04Z</time>
  <course>285.71</course>
  <speed>25.08</speed>
  <fix>3d</fix>
</trkpt>
<trkpt lat="-27.2731212" lon="151.2900873">
  <ele>374.14</ele>
  <time>2026-09-01T19:58:04Z</time>
  <course>285.77</course>
  <speed>25.08840369573162</speed>
  <fix>3d</fix>
</trkpt>
<trkpt lat="-27.273137" lon="151.2901583">
  <ele>374.19</ele>
  <time>2026-09-01T19:58:04Z</time>
  <course>285.71</course>
  <speed>25.08</speed>
  <fix>3d</fix>
</trkpt>
<trkpt lat="-27.2731163" lon="151.2900625">
  <ele>374.12</ele>
  <time>2026-09-01T19:58:04Z</time>
  <course>284.81</course>
  <speed>25.118385696537107</speed>
  <fix>3d</fix>
</trkpt>
<trkpt lat="-27.2731255" lon="151.2901092">
  <ele>374.17</ele>
  <time>2026-09-01T19:58:04Z</time>
  <course>283.68</course>
  <speed>25.13</speed>
  <fix>3d</fix>
</trkpt>
<trkpt lat="-27.2731118" lon="151.2900378">
  <ele>374.1</ele>
  <time>2026-09-01T19:58:04Z</time>
  <course>283.95</course>
  <speed>25.138217916153085</speed>
  <fix>3d</fix>
</trkpt>
<trkpt lat="-27.2731255" lon="151.2901092">
  <ele>374.17</ele>
  <time>2026-09-01T19:58:04Z</time>
  <course>283.68</course>
  <speed>25.13</speed>
  <fix>3d</fix>
</trkpt>
<trkpt lat="-27.2731074" lon="151.2900123">
  <ele>374.08</ele>
  <time>2026-09-01T19:58:04Z</time>
  <course>283.12</course>
  <speed>25.166567107970845</speed>
  <fix>3d</fix>
</trkpt>
<trkpt lat="-27.2731155" lon="151.2900596">
  <ele>374.14</ele>
  <time>2026-09-01T19:58:04Z</time>
  <course>281.9</course>
  <speed>25.19</speed>
  <fix>3d</fix>
</trkpt>
<trkpt lat="-27.2731034" lon="151.2899872">
  <ele>374.06</ele>
  <time>2026-09-01T19:58:04Z</time>
  <course>282.34</course>
  <speed>25.184624277522982</speed>
  <fix>3d</fix>
</trkpt>
<trkpt lat="-27.2731155" lon="151.2900596">
  <ele>374.14</ele>
  <time>2026-09-01T19:58:04Z</time>
  <course>281.9</course>
  <speed>25.19</speed>
  <fix>3d</fix>
</trkpt>
<trkpt lat="-27.2730997" lon="151.2899621">
  <ele>374.04</ele>
  <time>2026-09-01T19:58:04Z</time>
  <course>281.6</course>
  <speed>25.19790665908579</speed>
  <fix>3d</fix>
</trkpt>
<trkpt lat="-27.2731068" lon="151.2900096">
  <ele>374.1</ele>
  <time>2026-09-01T19:58:04Z</time>
  <course>280.35</course>
  <speed>25.23</speed>
  <fix>3d</fix>
</trkpt>
<trkpt lat="-27.2730962" lon="151.2899369">
  <ele>374.01</ele>
  <time>2026-09-01T19:58:04Z</time>
  <course>280.91</course>
  <speed>25.20897657581521</speed>
  <fix>3d</fix>
</trkpt>
<trkpt lat="-27.2731068" lon="151.2900096">
  <ele>374.1</ele>
  <time>2026-09-01T19:58:04Z</time>
  <course>280.35</course>
  <speed>25.23</speed>
  <fix>3d</fix>
</trkpt>
<trkpt lat="-27.2730929" lon="151.2899116">
  <ele>373.99</ele>
  <time>2026-09-01T19:58:04Z</time>
  <course>280.3</course>
  <speed>25.22539395133404</speed>
  <fix>3d</fix>
</trkpt>
<trkpt lat="-27.2730992" lon="151.2899593">
  <ele>374.05</ele>
  <time>2026-09-01T19:58:04Z</time>
  <course>279.01</course>
  <speed>25.26</speed>
  <fix>3d</fix>
</trkpt>
<trkpt lat="-27.2730899" lon="151.2898863">
  <ele>373.96</ele>
  <time>2026-09-01T19:58:04Z</time>
  <course>279.73</course>
  <speed>25.226773475813353</speed>
  <fix>3d</fix>
</trkpt>
<trkpt lat="-27.2730992" lon="151.2899593">
  <ele>374.05</ele>
  <time>2026-09-01T19:58:04Z</time>
  <course>279.01</course>
  <speed>25.26</speed>
  <fix>3d</fix>
</trkpt>
<trkpt lat="-27.273087" lon="151.289861">
  <ele>373.94</ele>
  <time>2026-09-01T19:58:04Z</time>
  <course>279.21</course>
  <speed>25.24231764319592</speed>
  <fix>3d</fix>
</trkpt>
<trkpt lat="-27.2730926" lon="151.2899087">
  <ele>374.0</ele>
  <time>2026-09-01T19:58:04Z</time>
  <course>277.89</course>
  <speed>25.29</speed>
  <fix>3d</fix>
</trkpt>
<trkpt lat="-27.2730843" lon="151.2898356">
  <ele>373.91</ele>
  <time>2026-09-01T19:58:04Z</time>
  <course>278.68</course>
  <speed>25.241800648923604</speed>
  <fix>3d</fix>
</trkpt>
<trkpt lat="-27.2730926" lon="151.2899087">
  <ele>374.0</ele>
  <time>2026-09-01T19:58:04Z</time>
  <course>277.89</course>
  <speed>25.29</speed>
  <fix>3d</fix>
</trkpt>
<trkpt lat="-27.2730817" lon="151.2898102">
  <ele>373.89</ele>
  <time>2026-09-01T19:58:04Z</time>
  <course>278.21</course>
  <speed>25.253482928103203</speed>
  <fix>3d</fix>
</trkpt>
<trkpt lat="-27.2730867" lon="151.2898581">
  <ele>373.95</ele>
  <time>2026-09-01T19:58:04Z</time>
  <course>276.96</course>
  <speed>25.3</speed>
  <fix>3d</fix>
</trkpt>
<trkpt lat="-27.2730793" lon="151.2897848">
  <ele>373.87</ele>
  <time>2026-09-01T19:58:04Z</time>
  <course>277.79</course>
  <speed>25.248399949303717</speed>
  <fix>3d</fix>
</trkpt>
<trkpt lat="-27.2730867" lon="151.2898581">
  <ele>373.95</ele>
  <time>2026-09-01T19:58:04Z</time>
  <course>276.96</course>
  <speed>25.3</speed>
  <fix>3d</fix>
</trkpt>
<trkpt lat="-27.273077" lon="151.2897593">
  <ele>373.84</ele>
  <time>2026-09-01T19:58:04Z</time>
  <course>277.45</course>
  <speed>25.257034663633814</speed>
  <fix>3d</fix>
</trkpt>
<trkpt lat="-27.2730815" lon="151.2898073">
  <ele>373.9</ele>
  <time>2026-09-01T19:58:04Z</time>
  <course>276.2</course>
  <speed>25.31</speed>
  <fix>3d</fix>
</trkpt>
<trkpt lat="-27.2730747" lon="151.2897339">
  <ele>373.8</ele>
  <time>2026-09-01T19:58:04Z</time>
  <course>277.11</course>
  <speed>25.25011881160166</speed>
  <fix>3d</fix>
</trkpt>
<trkpt lat="-27.2730815" lon="151.2898073">
  <ele>373.9</ele>
  <time>2026-09-01T19:58:04Z</time>
  <course>276.2</course>
  <speed>25.31</speed>
  <fix>3d</fix>
</trkpt>
<trkpt lat="-27.2730726" lon="151.2897084">
  <ele>373.74</ele>
  <time>2026-09-01T19:58:04Z</time>
  <course>276.76</course>
  <speed>25.24529659164257</speed>
  <fix>3d</fix>
</trkpt>
<trkpt lat="-27.2730768" lon="151.2897563">
  <ele>373.85</ele>
  <time>2026-09-01T19:58:04Z</time>
  <course>275.65</course>
  <speed>25.32</speed>
  <fix>3d</fix>
</trkpt>
<trkpt lat="-27.2730704" lon="151.289683">
  <ele>373.67</ele>
  <time>2026-09-01T19:58:04Z</time>
  <course>276.42</course>
  <speed>25.242450356492732</speed>
  <fix>3d</fix>
</trkpt>
<trkpt lat="-27.2730768" lon="151.2897563">
  <ele>373.85</ele>
  <time>2026-09-01T19:58:04Z</time>
  <course>275.65</course>
  <speed>25.32</speed>
  <fix>3d</fix>
</trkpt>
<trkpt lat="-27.2730683" lon="151.2896575">
  <ele>373.59</ele>
  <time>2026-09-01T19:58:04Z</time>
  <course>276.17</course>
  <speed>25.23963945859766</speed>
  <fix>3d</fix>
</trkpt>
<trkpt lat="-27.2730725" lon="151.2897053">
  <ele>373.76</ele>
  <time>2026-09-01T19:58:04Z</time>
  <course>275.36</course>
  <speed>25.31</speed>
  <fix>3d</fix>
</trkpt>
<trkpt lat="-27.2730662" lon="151.2896321">
  <ele>373.49</ele>
  <time>2026-09-01T19:58:04Z</time>
  <course>275.97</course>
  <speed>25.227827889059334</speed>
  <fix>3d</fix>
</trkpt>
<trkpt lat="-27.2730725" lon="151.2897053">
  <ele>373.76</ele>
  <time>2026-09-01T19:58:04Z</time>
  <course>275.36</course>
  <speed>25.31</speed>
  <fix>3d</fix>
</trkpt>
<trkpt lat="-27.2730642" lon="151.2896067">
  <ele>373.38</ele>
  <time>2026-09-01T19:58:04Z</time>
  <course>275.84</course>
  <speed>25.22598858320522</speed>
  <fix>3d</fix>
</trkpt>
<trkpt lat="-27.2730683" lon="151.2896544">
  <ele>373.61</ele>
  <time>2026-09-01T19:58:04Z</time>
  <course>275.22</course>
  <speed>25.29</speed>
  <fix>3d</fix>
</trkpt>
<trkpt lat="-27.2730621" lon="151.2895812">
  <ele>373.24</ele>
  <time>2026-09-01T19:58:04Z</time>
  <course>275.77</course>
  <speed>25.22416500104612</speed>
  <fix>3d</fix>
</trkpt>
<trkpt lat="-27.2730683" lon="151.2896544">
  <ele>373.61</ele>
  <time>2026-09-01T19:58:04Z</time>
  <course>275.22</course>
  <speed>25.29</speed>
  <fix>3d</fix>
</trkpt>
<trkpt lat="-27.2730601" lon="151.2895557">
  <ele>373.09</ele>
  <time>2026-09-01T19:58:04Z</time>
  <course>275.73</course>
  <speed>25.232316580131915</speed>
  <fix>3d</fix>
</trkpt>
<trkpt lat="-27.2730642" lon="151.2896035">
  <ele>373.4</ele>
  <time>2026-09-01T19:58:04Z</time>
  <course>275.14</course>
  <speed>25.29</speed>
  <fix>3d</fix>
</trkpt>
<trkpt lat="-27.2730581" lon="151.2895303">
  <ele>372.92</ele>
  <time>2026-09-01T19:58:04Z</time>
  <course>275.65</course>
  <speed>25.240485336062775</speed>
  <fix>3d</fix>
</trkpt>
<trkpt lat="-27.2730642" lon="151.2896035">
  <ele>373.4</ele>
  <time>2026-09-01T19:58:04Z</time>
  <course>275.14</course>
  <speed>25.29</speed>
  <fix>3d</fix>
</trkpt>
<trkpt lat="-27.2730562" lon="151.289505">
  <ele>372.73</ele>
  <time>2026-09-01T19:58:04Z</time>
  <course>275.64</course>
  <speed>25.268593154348743</speed>
  <fix>3d</fix>
</trkpt>
<trkpt lat="-27.2730601" lon="151.2895525">
  <ele>373.13</ele>
  <time>2026-09-01T19:58:04Z</time>
  <course>275.06</course>
  <speed>25.29</speed>
  <fix>3d</fix>
</trkpt>
<trkpt lat="-27.2730542" lon="151.2894795">
  <ele>372.53</ele>
  <time>2026-09-01T19:58:04Z</time>
  <course>275.6</course>
  <speed>25.297596723799675</speed>
  <fix>3d</fix>
</trkpt>
<trkpt lat="-27.2730601" lon="151.2895525">
  <ele>373.13</ele>
  <time>2026-09-01T19:58:04Z</time>
  <course>275.06</course>
  <speed>25.29</speed>
  <fix>3d</fix>
</trkpt>
<trkpt lat="-27.2730522" lon="151.2894539">
  <ele>372.31</ele>
  <time>2026-09-01T19:58:04Z</time>
  <course>275.53</course>
  <speed>25.336568433787555</speed>
  <fix>3d</fix>
</trkpt>
<trkpt lat="-27.2730561" lon="151.2895016">
  <ele>372.78</ele>
  <time>2026-09-01T19:58:04Z</time>
  <course>274.98</course>
  <speed>25.32</speed>
  <fix>3d</fix>
</trkpt>
<trkpt lat="-27.2730503" lon="151.2894284">
  <ele>372.1</ele>
  <time>2026-09-01T19:58:04Z</time>
  <course>275.5</course>
  <speed>25.37554728473851</speed>
  <fix>3d</fix>
</trkpt>
<trkpt lat="-27.2730561" lon="151.2895016">
  <ele>372.78</ele>
  <time>2026-09-01T19:58:04Z</time>
  <course>274.98</course>
  <speed>25.32</speed>
  <fix>3d</fix>
</trkpt>
<trkpt lat="-27.2730483" lon="151.2894025">
  <ele>371.87</ele>
  <time>2026-09-01T19:58:04Z</time>
  <course>275.48</course>
  <speed>25.425359387823804</speed>
  <fix>3d</fix>
</trkpt>
<trkpt lat="-27.2730522" lon="151.2894506">
  <ele>372.38</ele>
  <time>2026-09-01T19:58:04Z</time>
  <course>274.92</course>
  <speed>25.39</speed>
  <fix>3d</fix>
</trkpt>
<trkpt lat="-27.2730463" lon="151.2893768">
  <ele>371.64</ele>
  <time>2026-09-01T19:58:04Z</time>
  <course>275.45</course>
  <speed>25.485134882907722</speed>
  <fix>3d</fix>
</trkpt>
<trkpt lat="-27.2730522" lon="151.2894506">
  <ele>372.38</ele>
  <time>2026-09-01T19:58:04Z</time>
  <course>274.92</course>
  <speed>25.39</speed>
  <fix>3d</fix>
</trkpt>
<trkpt lat="-27.2730444" lon="151.289351">
  <ele>371.42</ele>
  <time>2026-09-01T19:58:04Z</time>
  <course>275.46</course>
  <speed>25.544911430654835</speed>
  <fix>3d</fix>
</trkpt>
<trkpt lat="-27.2730483" lon="151.2893993">
  <ele>371.95</ele>
  <time>2026-09-01T19:58:04Z</time>
  <course>274.88</course>
  <speed>25.48</speed>
  <fix>3d</fix>
</trkpt>
<trkpt lat="-27.2730424" lon="151.289325">
  <ele>371.19</ele>
  <time>2026-09-01T19:58:04Z</time>
  <course>275.47</course>
  <speed>25.605550179599735</speed>
  <fix>3d</fix>
</trkpt>
<trkpt lat="-27.2730483" lon="151.2893993">
  <ele>371.95</ele>
  <time>2026-09-01T19:58:04Z</time>
  <course>274.88</course>
  <speed>25.48</speed>
  <fix>3d</fix>
</trkpt>
<trkpt lat="-27.2730405" lon="151.2892991">
  <ele>370.96</ele>
  <time>2026-09-01T19:58:04Z</time>
  <course>275.46</course>
  <speed>25.666189822410338</speed>
  <fix>3d</fix>
</trkpt>
<trkpt lat="-27.2730444" lon="151.2893479">
  <ele>371.5</ele>
  <time>2026-09-01T19:58:04Z</time>
  <course>274.88</course>
  <speed>25.59</speed>
  <fix>3d</fix>
</trkpt>
<trkpt lat="-27.2730385" lon="151.2892732">
  <ele>370.74</ele>
  <time>2026-09-01T19:58:04Z</time>
  <course>275.47</course>
  <speed>25.736792729475834</speed>
  <fix>3d</fix>
</trkpt>
<trkpt lat="-27.2730444" lon="151.2893479">
  <ele>371.5</ele>
  <time>2026-09-01T19:58:04Z</time>
  <course>274.88</course>
  <speed>25.59</speed>
  <fix>3d</fix>
</trkpt>
<trkpt lat="-27.2730365" lon="151.2892472">
  <ele>370.53</ele>
  <time>2026-09-01T19:58:04Z</time>
  <course>275.52</course>
  <speed>25.818228056936828</speed>
  <fix>3d</fix>
</trkpt>
<trkpt lat="-27.2730405" lon="151.2892963">
  <ele>371.06</ele>
  <time>2026-09-01T19:58:04Z</time>
  <course>274.9</course>
  <speed>25.72</speed>
  <fix>3d</fix>
</trkpt>
<trkpt lat="-27.2730345" lon="151.2892211">
  <ele>370.33</ele>
  <time>2026-09-01T19:58:04Z</time>
  <course>275.54</course>
  <speed>25.88970837997215</speed>
  <fix>3d</fix>
</trkpt>
<trkpt lat="-27.2730405" lon="151.2892963">
  <ele>371.06</ele>
  <time>2026-09-01T19:58:04Z</time>
  <course>274.9</course>
  <speed>25.72</speed>
  <fix>3d</fix>
</trkpt>
<trkpt lat="-27.2730324" lon="151.2891949">
  <ele>370.14</ele>
  <time>2026-09-01T19:58:04Z</time>
  <course>275.55</course>
  <speed>25.961196043325895</speed>
  <fix>3d</fix>
</trkpt>
<trkpt lat="-27.2730364" lon="151.2892442">
  <ele>370.64</ele>
  <time>2026-09-01T19:58:04Z</time>
  <course>274.95</course>
  <speed>25.86</speed>
  <fix>3d</fix>
</trkpt>
<trkpt lat="-27.2730304" lon="151.2891686">
  <ele>369.96</ele>
  <time>2026-09-01T19:58:04Z</time>
  <course>275.53</course>
  <speed>26.041766453142156</speed>
  <fix>3d</fix>
</trkpt>
<trkpt lat="-27.2730364" lon="151.2892442">
  <ele>370.64</ele>
  <time>2026-09-01T19:58:04Z</time>
  <course>274.95</course>
  <speed>25.86</speed>
  <fix>3d</fix>
</trkpt>
<trkpt lat="-27.2730283" lon="151.2891423">
  <ele>369.8</ele>
  <time>2026-09-01T19:58:04Z</time>
  <course>275.54</course>
  <speed>26.113262913699618</speed>
  <fix>3d</fix>
</trkpt>
<trkpt lat="-27.2730324" lon="151.2891919">
  <ele>370.26</ele>
  <time>2026-09-01T19:58:04Z</time>
  <course>275.01</course>
  <speed>26.01</speed>
  <fix>3d</fix>
</trkpt>
<trkpt lat="-27.2730262" lon="151.2891159">
  <ele>369.64</ele>
  <time>2026-09-01T19:58:04Z</time>
  <course>275.6</course>
  <speed>26.18476656378666</speed>
  <fix>3d</fix>
</trkpt>
<trkpt lat="-27.2730324" lon="151.2891919">
  <ele>370.26</ele>
  <time>2026-09-01T19:58:04Z</time>
  <course>275.01</course>
  <speed>26.01</speed>
  <fix>3d</fix>
</trkpt>
<trkpt lat="-27.2730241" lon="151.2890894">
  <ele>369.5</ele>
  <time>2026-09-01T19:58:04Z</time>
  <course>275.65</course>
  <speed>26.2562773446656</speed>
  <fix>3d</fix>
</trkpt>
<trkpt lat="-27.2730283" lon="151.2891394">
  <ele>369.91</ele>
  <time>2026-09-01T19:58:04Z</time>
  <course>275.07</course>
  <speed>26.15</speed>
  <fix>3d</fix>
</trkpt>
<trkpt lat="-27.273022" lon="151.2890628">
  <ele>369.37</ele>
  <time>2026-09-01T19:58:04Z</time>
  <course>275.65</course>
  <speed>26.328701069365348</speed>
  <fix>3d</fix>
</trkpt>
<trkpt lat="-27.2730283" lon="151.2891394">
  <ele>369.91</ele>
  <time>2026-09-01T19:58:04Z</time>
  <course>275.07</course>
  <speed>26.15</speed>
  <fix>3d</fix>
</trkpt>
<trkpt lat="-27.2730199" lon="151.2890362">
  <ele>369.25</ele>
  <time>2026-09-01T19:58:04Z</time>
  <course>275.62</course>
  <speed>26.389361492844046</speed>
  <fix>3d</fix>
</trkpt>
<trkpt lat="-27.2730241" lon="151.2890866">
  <ele>369.62</ele>
  <time>2026-09-01T19:58:04Z</time>
  <course>275.14</course>
  <speed>26.29</speed>
  <fix>3d</fix>
</trkpt>
<trkpt lat="-27.2730177" lon="151.2890095">
  <ele>369.14</ele>
  <time>2026-09-01T19:58:04Z</time>
  <course>275.61</course>
  <speed>26.450022684300293</speed>
  <fix>3d</fix>
</trkpt>
<trkpt lat="-27.2730241" lon="151.2890866">
  <ele>369.62</ele>
  <time>2026-09-01T19:58:04Z</time>
  <course>275.14</course>
  <speed>26.29</speed>
  <fix>3d</fix>
</trkpt>
<trkpt lat="-27.2730156" lon="151.2889828">
  <ele>369.04</ele>
  <time>2026-09-01T19:58:04Z</time>
  <course>275.66</course>
  <speed>26.51068463846228</speed>
  <fix>3d</fix>
</trkpt>
<trkpt lat="-27.2730198" lon="151.2890336">
  <ele>369.37</ele>
  <time>2026-09-01T19:58:04Z</time>
  <course>275.2</course>
  <speed>26.42</speed>
  <fix>3d</fix>
</trkpt>
<trkpt lat="-27.2730134" lon="151.2889562">
  <ele>368.94</ele>
  <time>2026-09-01T19:58:04Z</time>
  <course>275.7</course>
  <speed>26.57134735010628</speed>
  <fix>3d</fix>
</trkpt>
<trkpt lat="-27.2730198" lon="151.2890336">
  <ele>369.37</ele>
  <time>2026-09-01T19:58:04Z</time>
  <course>275.2</course>
  <speed>26.42</speed>
  <fix>3d</fix>
</trkpt>
<trkpt lat="-27.2730112" lon="151.2889294">
  <ele>368.86</ele>
  <time>2026-09-01T19:58:04Z</time>
  <course>275.78</course>
  <speed>26.62205288853585</speed>
  <fix>3d</fix>
</trkpt>
<trkpt lat="-27.2730155" lon="151.2889803">
  <ele>369.16</ele>
  <time>2026-09-01T19:58:04Z</time>
  <course>275.23</course>
  <speed>26.53</speed>
  <fix>3d</fix>
</trkpt>
<trkpt lat="-27.273009" lon="151.2889025">
  <ele>368.79</ele>
  <time>2026-09-01T19:58:04Z</time>
  <course>275.88</course>
  <speed>26.663722545811193</speed>
  <fix>3d</fix>
</trkpt>
<trkpt lat="-27.2730155" lon="151.2889803">
  <ele>369.16</ele>
  <time>2026-09-01T19:58:04Z</time>
  <course>275.23</course>
  <speed>26.53</speed>
  <fix>3d</fix>
</trkpt>
<trkpt lat="-27.2730068" lon="151.2888756">
  <ele>368.74</ele>
  <time>2026-09-01T19:58:04Z</time>
  <course>275.91</course>
  <speed>26.70540207523564</speed>
  <fix>3d</fix>
</trkpt>
<trkpt lat="-27.2730112" lon="151.2889268">
  <ele>368.99</ele>
  <time>2026-09-01T19:58:04Z</time>
  <course>275.26</course>
  <speed>26.64</speed>
  <fix>3d</fix>
</trkpt>
<trkpt lat="-27.2730046" lon="151.2888485">
  <ele>368.69</ele>
  <time>2026-09-01T19:58:04Z</time>
  <course>275.92</course>
  <speed>26.7470914306584</speed>
  <fix>3d</fix>
</trkpt>
<trkpt lat="-27.2730112" lon="151.2889268">
  <ele>368.99</ele>
  <time>2026-09-01T19:58:04Z</time>
  <course>275.26</course>
  <speed>26.64</speed>
  <fix>3d</fix>
</trkpt>
<trkpt lat="-27.2730023" lon="151.2888215">
  <ele>368.66</ele>
  <time>2026-09-01T19:58:04Z</time>
  <course>275.88</course>
  <speed>26.778834926112822</speed>
  <fix>3d</fix>
</trkpt>
<trkpt lat="-27.2730067" lon="151.2888731">
  <ele>368.87</ele>
  <time>2026-09-01T19:58:04Z</time>
  <course>275.33</course>
  <speed>26.73</speed>
  <fix>3d</fix>
</trkpt>
<trkpt lat="-27.2730001" lon="151.2887945">
  <ele>368.63</ele>
  <time>2026-09-01T19:58:04Z</time>
  <course>275.85</course>
  <speed>26.809643787264314</speed>
  <fix>3d</fix>
</trkpt>
<trkpt lat="-27.2730067" lon="151.2888731">
  <ele>368.87</ele>
  <time>2026-09-01T19:58:04Z</time>
  <course>275.33</course>
  <speed>26.73</speed>
  <fix>3d</fix>
</trkpt>
<trkpt lat="-27.2729978" lon="151.2887675">
  <ele>368.61</ele>
  <time>2026-09-01T19:58:04Z</time>
  <course>275.88</course>
  <speed>26.83144796689139</speed>
  <fix>3d</fix>
</trkpt>
<trkpt lat="-27.2730022" lon="151.2888193">
  <ele>368.78</ele>
  <time>2026-09-01T19:58:04Z</time>
  <course>275.4</course>
  <speed>26.8</speed>
  <fix>3d</fix>
</trkpt>
<trkpt lat="-27.2729955" lon="151.2887404">
  <ele>368.6</ele>
  <time>2026-09-01T19:58:04Z</time>
  <course>275.97</course>
  <speed>26.85230902548233</speed>
  <fix>3d</fix>
</trkpt>
<trkpt lat="-27.2730022" lon="151.2888193">
  <ele>368.78</ele>
  <time>2026-09-01T19:58:04Z</time>
  <course>275.4</course>
  <speed>26.8</speed>
  <fix>3d</fix>
</trkpt>
<trkpt lat="-27.2729932" lon="151.2887134">
  <ele>368.6</ele>
  <time>2026-09-01T19:58:04Z</time>
  <course>276.01</course>
  <speed>26.87413068361468</speed>
  <fix>3d</fix>
</trkpt>
<trkpt lat="-27.2729977" lon="151.2887653">
  <ele>368.74</ele>
  <time>2026-09-01T19:58:04Z</time>
  <course>275.46</course>
  <speed>26.85</speed>
  <fix>3d</fix>
</trkpt>
<trkpt lat="-27.2729909" lon="151.2886863">
  <ele>368.6</ele>
  <time>2026-09-01T19:58:04Z</time>
  <course>276.06</course>
  <speed>26.885046029345013</speed>
  <fix>3d</fix>
</trkpt>
<trkpt lat="-27.2729977" lon="151.2887653">
  <ele>368.74</ele>
  <time>2026-09-01T19:58:04Z</time>
  <course>275.46</course>
  <speed>26.85</speed>
  <fix>3d</fix>
</trkpt>
<trkpt lat="-27.2729885" lon="151.2886592">
  <ele>368.61</ele>
  <time>2026-09-01T19:58:04Z</time>
  <course>276.06</course>
  <speed>26.906885735811198</speed>
  <fix>3d</fix>
</trkpt>
<trkpt lat="-27.272993" lon="151.2887112">
  <ele>368.73</ele>
  <time>2026-09-01T19:58:04Z</time>
  <course>275.52</course>
  <speed>26.89</speed>
  <fix>3d</fix>
</trkpt>
<trkpt lat="-27.2729862" lon="151.2886321">
  <ele>368.62</ele>
  <time>2026-09-01T19:58:04Z</time>
  <course>276.06</course>
  <speed>26.917810089232745</speed>
  <fix>3d</fix>
</trkpt>
<trkpt lat="-27.272993" lon="151.2887112">
  <ele>368.73</ele>
  <time>2026-09-01T19:58:04Z</time>
  <course>275.52</course>
  <speed>26.89</speed>
  <fix>3d</fix>
</trkpt>
<trkpt lat="-27.2729838" lon="151.288605">
  <ele>368.64</ele>
  <time>2026-09-01T19:58:04Z</time>
  <course>276.12</course>
  <speed>26.917810089232745</speed>
  <fix>3d</fix>
</trkpt>
<trkpt lat="-27.2729883" lon="151.288657">
  <ele>368.74</ele>
  <time>2026-09-01T19:58:04Z</time>
  <course>275.58</course>
  <speed>26.92</speed>
  <fix>3d</fix>
</trkpt>
<trkpt lat="-27.2729814" lon="151.2885777">
  <ele>368.68</ele>
  <time>2026-09-01T19:58:04Z</time>
  <course>276.11</course>
  <speed>26.9187852623405</speed>
  <fix>3d</fix>
</trkpt>
<trkpt lat="-27.2729883" lon="151.288657">
  <ele>368.74</ele>
  <time>2026-09-01T19:58:04Z</time>
  <course>275.58</course>
  <speed>26.92</speed>
  <fix>3d</fix>
</trkpt>
<trkpt lat="-27.2729791" lon="151.2885506">
  <ele>368.71</ele>
  <time>2026-09-01T19:58:04Z</time>
  <course>276.14</course>
  <speed>26.919764114865494</speed>
  <fix>3d</fix>
</trkpt>
<trkpt lat="-27.2729836" lon="151.2886027">
  <ele>368.77</ele>
  <time>2026-09-01T19:58:04Z</time>
  <course>275.63</course>
  <speed>26.94</speed>
  <fix>3d</fix>
</trkpt>
<trkpt lat="-27.2729767" lon="151.2885235">
  <ele>368.75</ele>
  <time>2026-09-01T19:58:04Z</time>
  <course>276.21</course>
  <speed>26.920746646406375</speed>
  <fix>3d</fix>
</trkpt>
<trkpt lat="-27.2729836" lon="151.2886027">
  <ele>368.77</ele>
  <time>2026-09-01T19:58:04Z</time>
  <course>275.63</course>
  <speed>26.94</speed>
  <fix>3d</fix>
</trkpt>
<trkpt lat="-27.2729743" lon="151.2884963">
  <ele>368.8</ele>
  <time>2026-09-01T19:58:04Z</time>
  <course>276.2</course>
  <speed>26.92173285656033</speed>
  <fix>3d</fix>
</trkpt>
<trkpt lat="-27.2729789" lon="151.2885486">
  <ele>368.84</ele>
  <time>2026-09-01T19:58:04Z</time>
  <course>275.67</course>
  <speed>26.94</speed>
  <fix>3d</fix>
</trkpt>
<trkpt lat="-27.2729719" lon="151.2884692">
  <ele>368.84</ele>
  <time>2026-09-01T19:58:04Z</time>
  <course>276.16</course>
  <speed>26.922722744923107</speed>
  <fix>3d</fix>
</trkpt>
<trkpt lat="-27.2729789" lon="151.2885486">
  <ele>368.84</ele>
  <time>2026-09-01T19:58:04Z</time>
  <course>275.67</course>
  <speed>26.94</speed>
  <fix>3d</fix>
</trkpt>
<trkpt lat="-27.2729695" lon="151.2884421">
  <ele>368.89</ele>
  <time>2026-09-01T19:58:04Z</time>
  <course>276.21</course>
  <speed>26.912772060863595</speed>
  <fix>3d</fix>
</trkpt>
<trkpt lat="-27.2729741" lon="151.2884944">
  <ele>368.92</ele>
  <time>2026-09-01T19:58:04Z</time>
  <course>275.7</course>
  <speed>26.93</speed>
  <fix>3d</fix>
</trkpt>
<trkpt lat="-27.2729671" lon="151.2884152">
  <ele>368.95</ele>
  <time>2026-09-01T19:58:04Z</time>
  <course>276.26</course>
  <speed>26.90381571450414</speed>
  <fix>3d</fix>
</trkpt>
<trkpt lat="-27.2729741" lon="151.2884944">
  <ele>368.92</ele>
  <time>2026-09-01T19:58:04Z</time>
  <course>275.7</course>
  <speed>26.93</speed>
  <fix>3d</fix>
</trkpt>
<trkpt lat="-27.2729646" lon="151.2883881">
  <ele>369.0</ele>
  <time>2026-09-01T19:58:04Z</time>
  <course>276.27</course>
  <speed>26.89386547151599</speed>
  <fix>3d</fix>
</trkpt>
<trkpt lat="-27.2729692" lon="151.2884402">
  <ele>369.02</ele>
  <time>2026-09-01T19:58:04Z</time>
  <course>275.73</course>
  <speed>26.92</speed>
  <fix>3d</fix>
</trkpt>
<trkpt lat="-27.2729622" lon="151.288361">
  <ele>369.06</ele>
  <time>2026-09-01T19:58:04Z</time>
  <course>276.28</course>
  <speed>26.884913985356174</speed>
  <fix>3d</fix>
</trkpt>
<trkpt lat="-27.2729692" lon="151.2884402">
  <ele>369.02</ele>
  <time>2026-09-01T19:58:04Z</time>
  <course>275.73</course>
  <speed>26.92</speed>
  <fix>3d</fix>
</trkpt>
<trkpt lat="-27.2729598" lon="151.2883339">
  <ele>369.12</ele>
  <time>2026-09-01T19:58:04Z</time>
  <course>276.26</course>
  <speed>26.87496418602265</speed>
  <fix>3d</fix>
</trkpt>
<trkpt lat="-27.2729644" lon="151.2883861">
  <ele>369.12</ele>
  <time>2026-09-01T19:58:04Z</time>
  <course>275.76</course>
  <speed>26.9</speed>
  <fix>3d</fix>
</trkpt>
<trkpt lat="-27.2729574" lon="151.2883068">
  <ele>369.18</ele>
  <time>2026-09-01T19:58:04Z</time>
  <course>276.27</course>
  <speed>26.855064699233182</speed>
  <fix>3d</fix>
</trkpt>
<trkpt lat="-27.2729644" lon="151.2883861">
  <ele>369.12</ele>
  <time>2026-09-01T19:58:04Z</time>
  <course>275.76</course>
  <speed>26.9</speed>
  <fix>3d</fix>
</trkpt>
<trkpt lat="-27.2729549" lon="151.2882795">
  <ele>369.25</ele>
  <time>2026-09-01T19:58:04Z</time>
  <course>276.29</course>
  <speed>26.845115011860166</speed>
  <fix>3d</fix>
</trkpt>
<trkpt lat="-27.2729595" lon="151.2883321">
  <ele>369.24</ele>
  <time>2026-09-01T19:58:04Z</time>
  <course>275.78</course>
  <speed>26.87</speed>
  <fix>3d</fix>
</trkpt>
<trkpt lat="-27.2729525" lon="151.2882525">
  <ele>369.31</ele>
  <time>2026-09-01T19:58:04Z</time>
  <course>276.3</course>
  <speed>26.826220382305067</speed>
  <fix>3d</fix>
</trkpt>
<trkpt lat="-27.2729595" lon="151.2883321">
  <ele>369.24</ele>
  <time>2026-09-01T19:58:04Z</time>
  <course>275.78</course>
  <speed>26.87</speed>
  <fix>3d</fix>
</trkpt>
<trkpt lat="-27.27295" lon="151.2882256">
  <ele>369.38</ele>
  <time>2026-09-01T19:58:04Z</time>
  <course>276.27</course>
  <speed>26.80531663681666</speed>
  <fix>3d</fix>
</trkpt>
<trkpt lat="-27.2729547" lon="151.2882781">
  <ele>369.36</ele>
  <time>2026-09-01T19:58:04Z</time>
  <course>275.8</course>
  <speed>26.84</speed>
  <fix>3d</fix>
</trkpt>
<trkpt lat="-27.2729476" lon="151.2881987">
  <ele>369.44</ele>
  <time>2026-09-01T19:58:04Z</time>
  <course>276.34</course>
  <speed>26.776474749301855</speed>
  <fix>3d</fix>
</trkpt>
<trkpt lat="-27.2729547" lon="151.2882781">
  <ele>369.36</ele>
  <time>2026-09-01T19:58:04Z</time>
  <course>275.8</course>
  <speed>26.84</speed>
  <fix>3d</fix>
</trkpt>
<trkpt lat="-27.2729452" lon="151.288172">
  <ele>369.51</ele>
  <time>2026-09-01T19:58:04Z</time>
  <course>276.33</course>
  <speed>26.746627824830554</speed>
  <fix>3d</fix>
</trkpt>
<trkpt lat="-27.2729498" lon="151.2882242">
  <ele>369.48</ele>
  <time>2026-09-01T19:58:04Z</time>
  <course>275.81</course>
  <speed>26.8</speed>
  <fix>3d</fix>
</trkpt>
<trkpt lat="-27.2729428" lon="151.2881452">
  <ele>369.57</ele>
  <time>2026-09-01T19:58:04Z</time>
  <course>276.31</course>
  <speed>26.716781243256083</speed>
  <fix>3d</fix>
</trkpt>
<trkpt lat="-27.2729498" lon="151.2882242">
  <ele>369.48</ele>
  <time>2026-09-01T19:58:04Z</time>
  <course>275.81</course>
  <speed>26.8</speed>
  <fix>3d</fix>
</trkpt>
<trkpt lat="-27.2729403" lon="151.2881185">
  <ele>369.63</ele>
  <time>2026-09-01T19:58:04Z</time>
  <course>276.33</course>
  <speed>26.686935005728927</speed>
  <fix>3d</fix>
</trkpt>
<trkpt lat="-27.2729449" lon="151.2881704">
  <ele>369.61</ele>
  <time>2026-09-01T19:58:04Z</time>
  <course>275.82</course>
  <speed>26.76</speed>
  <fix>3d</fix>
</trkpt>
<trkpt lat="-27.2729379" lon="151.2880918">
  <ele>369.7</ele>
  <time>2026-09-01T19:58:04Z</time>
  <course>276.4</course>
  <speed>26.657089113404712</speed>
  <fix>3d</fix>
</trkpt>
<trkpt lat="-27.2729449" lon="151.2881704">
  <ele>369.61</ele>
  <time>2026-09-01T19:58:04Z</time>
  <course>275.82</course>
  <speed>26.76</speed>
  <fix>3d</fix>
</trkpt>
<trkpt lat="-27.2729355" lon="151.2880651">
  <ele>369.77</ele>
  <time>2026-09-01T19:58:04Z</time>
  <course>276.41</course>
  <speed>26.62724356744423</speed>
  <fix>3d</fix>
</trkpt>
<trkpt lat="-27.27294" lon="151.2881165">
  <ele>369.73</ele>
  <time>2026-09-01T19:58:04Z</time>
  <course>275.83</course>
  <speed>26.71</speed>
  <fix>3d</fix>
</trkpt>
<trkpt lat="-27.272933" lon="151.2880385">
  <ele>369.83</ele>
  <time>2026-09-01T19:58:04Z</time>
  <course>276.39</course>
  <speed>26.598415366333388</speed>
  <fix>3d</fix>
</trkpt>
<trkpt lat="-27.27294" lon="151.2881165">
  <ele>369.73</ele>
  <time>2026-09-01T19:58:04Z</time>
  <course>275.83</course>
  <speed>26.71</speed>
  <fix>3d</fix>
</trkpt>
<trkpt lat="-27.2729306" lon="151.2880119">
  <ele>369.9</ele>
  <time>2026-09-01T19:58:04Z</time>
  <course>276.41</course>
  <speed>26.567553519283628</speed>
  <fix>3d</fix>
</trkpt>
<trkpt lat="-27.2729351" lon="151.2880628">
  <ele>369.86</ele>
  <time>2026-09-01T19:58:04Z</time>
  <course>275.85</course>
  <speed>26.66</speed>
  <fix>3d</fix>
</trkpt>
<trkpt lat="-27.2729282" lon="151.2879852">
  <ele>369.96</ele>
  <time>2026-09-01T19:58:04Z</time>
  <course>276.47</course>
  <speed>26.538728304121882</speed>
  <fix>3d</fix>
</trkpt>
<trkpt lat="-27.2729351" lon="151.2880628">
  <ele>369.86</ele>
  <time>2026-09-01T19:58:04Z</time>
  <course>275.85</course>
  <speed>26.66</speed>
  <fix>3d</fix>
</trkpt>
<trkpt lat="-27.2729257" lon="151.2879587">
  <ele>370.03</ele>
  <time>2026-09-01T19:58:04Z</time>
  <course>276.46</course>
  <speed>26.50990946797065</speed>
  <fix>3d</fix>
</trkpt>
<trkpt lat="-27.2729302" lon="151.2880092">
  <ele>369.99</ele>
  <time>2026-09-01T19:58:04Z</time>
  <course>275.86</course>
  <speed>26.61</speed>
  <fix>3d</fix>
</trkpt>
<trkpt lat="-27.2729233" lon="151.2879321">
  <ele>370.09</ele>
  <time>2026-09-01T19:58:04Z</time>
  <course>276.49</course>
  <speed>26.481097031656372</speed>
  <fix>3d</fix>
</trkpt>
<trkpt lat="-27.2729302" lon="151.2880092">
  <ele>369.99</ele>
  <time>2026-09-01T19:58:04Z</time>
  <course>275.86</course>
  <speed>26.61</speed>
  <fix>3d</fix>
</trkpt>
<trkpt lat="-27.2729208" lon="151.2879055">
  <ele>370.14</ele>
  <time>2026-09-01T19:58:04Z</time>
  <course>276.52</course>
  <speed>26.461203676325837</speed>
  <fix>3d</fix>
</trkpt>
<trkpt lat="-27.2729253" lon="151.2879558">
  <ele>370.11</ele>
  <time>2026-09-01T19:58:04Z</time>
  <course>275.89</course>
  <speed>26.56</speed>
  <fix>3d</fix>
</trkpt>
<trkpt lat="-27.2729184" lon="151.287879">
  <ele>370.2</ele>
  <time>2026-09-01T19:58:04Z</time>
  <course>276.58</course>
  <speed>26.432398680407346</speed>
  <fix>3d</fix>
</trkpt>
<trkpt lat="-27.2729253" lon="151.2879558">
  <ele>370.11</ele>
  <time>2026-09-01T19:58:04Z</time>
  <course>275.89</course>
  <speed>26.56</speed>
  <fix>3d</fix>
</trkpt>
<trkpt lat="-27.2729159" lon="151.2878525">
  <ele>370.26</ele>
  <time>2026-09-01T19:58:04Z</time>
  <course>276.61</course>
  <speed>26.413545767276304</speed>
  <fix>3d</fix>
</trkpt>
<trkpt lat="-27.2729204" lon="151.2879024">
  <ele>370.23</ele>
  <time>2026-09-01T19:58:04Z</time>
  <course>275.92</course>
  <speed>26.52</speed>
  <fix>3d</fix>
</trkpt>
<trkpt lat="-27.2729134" lon="151.287826">
  <ele>370.31</ele>
  <time>2026-09-01T19:58:04Z</time>
  <course>276.59</course>
  <speed>26.38475317299747</speed>
  <fix>3d</fix>
</trkpt>
<trkpt lat="-27.2729204" lon="151.2879024">
  <ele>370.23</ele>
  <time>2026-09-01T19:58:04Z</time>
  <course>275.92</course>
  <speed>26.52</speed>
  <fix>3d</fix>
</trkpt>
<trkpt lat="-27.2729109" lon="151.2877995">
  <ele>370.37</ele>
  <time>2026-09-01T19:58:04Z</time>
  <course>276.55</course>
  <speed>26.364862980869066</speed>
  <fix>3d</fix>
</trkpt>
<trkpt lat="-27.2729155" lon="151.2878491">
  <ele>370.34</ele>
  <time>2026-09-01T19:58:04Z</time>
  <course>275.96</course>
  <speed>26.47</speed>
  <fix>3d</fix>
</trkpt>
<trkpt lat="-27.2729084" lon="151.287773">
  <ele>370.42</ele>
  <time>2026-09-01T19:58:04Z</time>
  <course>276.53</course>
  <speed>26.344972955006046</speed>
  <fix>3d</fix>
</trkpt>
<trkpt lat="-27.2729155" lon="151.2878491">
  <ele>370.34</ele>
  <time>2026-09-01T19:58:04Z</time>
  <course>275.96</course>
  <speed>26.47</speed>
  <fix>3d</fix>
</trkpt>
<trkpt lat="-27.2729059" lon="151.2877463">
  <ele>370.47</ele>
  <time>2026-09-01T19:58:04Z</time>
  <course>276.57</course>
  <speed>26.32508309578528</speed>
  <fix>3d</fix>
</trkpt>
<trkpt lat="-27.2729106" lon="151.287796">
  <ele>370.45</ele>
  <time>2026-09-01T19:58:04Z</time>
  <course>275.99</course>
  <speed>26.43</speed>
  <fix>3d</fix>
</trkpt>
<trkpt lat="-27.2729034" lon="151.2877199">
  <ele>370.52</ele>
  <time>2026-09-01T19:58:04Z</time>
  <course>276.61</course>
  <speed>26.295248620235558</speed>
  <fix>3d</fix>
</trkpt>
<trkpt lat="-27.2729106" lon="151.287796">
  <ele>370.45</ele>
  <time>2026-09-01T19:58:04Z</time>
  <course>275.99</course>
  <speed>26.43</speed>
  <fix>3d</fix>
</trkpt>
<trkpt lat="-27.272901" lon="151.2876935">
  <ele>370.57</ele>
  <time>2026-09-01T19:58:04Z</time>
  <course>276.65</course>
  <speed>26.27641147493318</speed>
  <fix>3d</fix>
</trkpt>
<trkpt lat="-27.2729056" lon="151.2877429">
  <ele>370.56</ele>
  <time>2026-09-01T19:58:04Z</time>
  <course>276.01</course>
  <speed>26.39</speed>
  <fix>3d</fix>
</trkpt>
<trkpt lat="-27.2728985" lon="151.2876671">
  <ele>370.62</ele>
  <time>2026-09-01T19:58:04Z</time>
  <course>276.56</course>
  <speed>26.256522999056823</speed>
  <fix>3d</fix>
</trkpt>
<trkpt lat="-27.2729056" lon="151.2877429">
  <ele>370.56</ele>
  <time>2026-09-01T19:58:04Z</time>
  <course>276.01</course>
  <speed>26.39</speed>
  <fix>3d</fix>
</trkpt>
<trkpt lat="-27.272896" lon="151.2876407">
  <ele>370.67</ele>
  <time>2026-09-01T19:58:04Z</time>
  <course>276.5</course>
  <speed>26.23558080165179</speed>
  <fix>3d</fix>
</trkpt>
<trkpt lat="-27.2729006" lon="151.2876899">
  <ele>370.65</ele>
  <time>2026-09-01T19:58:04Z</time>
  <course>276.02</course>
  <speed>26.34</speed>
  <fix>3d</fix>
</trkpt>
<trkpt lat="-27.2728935" lon="151.2876143">
  <ele>370.71</ele>
  <time>2026-09-01T19:58:04Z</time>
  <course>276.54</course>
  <speed>26.20469614401205</speed>
  <fix>3d</fix>
</trkpt>
<trkpt lat="-27.2729006" lon="151.2876899">
  <ele>370.65</ele>
  <time>2026-09-01T19:58:04Z</time>
  <course>276.02</course>
  <speed>26.34</speed>
  <fix>3d</fix>
</trkpt>
<trkpt lat="-27.2728911" lon="151.2875879">
  <ele>370.76</ele>
  <time>2026-09-01T19:58:04Z</time>
  <course>276.53</course>
  <speed>26.18480666340693</speed>
  <fix>3d</fix>
</trkpt>
<trkpt lat="-27.2728957" lon="151.287637">
  <ele>370.74</ele>
  <time>2026-09-01T19:58:04Z</time>
  <course>276.01</course>
  <speed>26.3</speed>
  <fix>3d</fix>
</trkpt>
<trkpt lat="-27.2728886" lon="151.2875616">
  <ele>370.81</ele>
  <time>2026-09-01T19:58:04Z</time>
  <course>276.6</course>
  <speed>26.163868215537246</speed>
  <fix>3d</fix>
</trkpt>
<trkpt lat="-27.2728957" lon="151.287637">
  <ele>370.74</ele>
  <time>2026-09-01T19:58:04Z</time>
  <course>276.01</course>
  <speed>26.3</speed>
  <fix>3d</fix>
</trkpt>
<trkpt lat="-27.2728861" lon="151.2875353">
  <ele>370.85</ele>
  <time>2026-09-01T19:58:04Z</time>
  <course>276.62</course>
  <speed>26.14397827416478</speed>
  <fix>3d</fix>
</trkpt>
<trkpt lat="-27.2728907" lon="151.2875842">
  <ele>370.84</ele>
  <time>2026-09-01T19:58:04Z</time>
  <course>275.99</course>
  <speed>26.25</speed>
  <fix>3d</fix>
</trkpt>
<trkpt lat="-27.2728837" lon="151.287509">
  <ele>370.89</ele>
  <time>2026-09-01T19:58:04Z</time>
  <course>276.63</course>
  <speed>26.124088500845346</speed>
  <fix>3d</fix>
</trkpt>
<trkpt lat="-27.2728907" lon="151.2875842">
  <ele>370.84</ele>
  <time>2026-09-01T19:58:04Z</time>
  <course>275.99</course>
  <speed>26.25</speed>
  <fix>3d</fix>
</trkpt>
<trkpt lat="-27.2728812" lon="151.2874827">
  <ele>370.94</ele>
  <time>2026-09-01T19:58:04Z</time>
  <course>276.61</course>
  <speed>26.104198895963076</speed>
  <fix>3d</fix>
</trkpt>
<trkpt lat="-27.2728858" lon="151.2875314">
  <ele>370.93</ele>
  <time>2026-09-01T19:58:04Z</time>
  <course>275.99</course>
  <speed>26.21</speed>
  <fix>3d</fix>
</trkpt>
<trkpt lat="-27.2728787" lon="151.2874564">
  <ele>370.98</ele>
  <time>2026-09-01T19:58:04Z</time>
  <course>276.61</course>
  <speed>26.084309459903285</speed>
  <fix>3d</fix>
</trkpt>
<trkpt lat="-27.2728858" lon="151.2875314">
  <ele>370.93</ele>
  <time>2026-09-01T19:58:04Z</time>
  <course>275.99</course>
  <speed>26.21</speed>
  <fix>3d</fix>
</trkpt>
<trkpt lat="-27.2728763" lon="151.2874302">
  <ele>371.03</ele>
  <time>2026-09-01T19:58:04Z</time>
  <course>276.64</course>
  <speed>26.06337084876014</speed>
  <fix>3d</fix>
</trkpt>
<trkpt lat="-27.2728809" lon="151.2874787">
  <ele>371.02</ele>
  <time>2026-09-01T19:58:04Z</time>
  <course>275.98</course>
  <speed>26.16</speed>
  <fix>3d</fix>
</trkpt>
<trkpt lat="-27.2728738" lon="151.2874039">
  <ele>371.07</ele>
  <time>2026-09-01T19:58:04Z</time>
  <course>276.66</course>
  <speed>26.043480950134143</speed>
  <fix>3d</fix>
</trkpt>
<trkpt lat="-27.2728809" lon="151.2874787">
  <ele>371.02</ele>
  <time>2026-09-01T19:58:04Z</time>
  <course>275.98</course>
  <speed>26.16</speed>
  <fix>3d</fix>
</trkpt>
<trkpt lat="-27.2728714" lon="151.2873777">
  <ele>371.11</ele>
  <time>2026-09-01T19:58:04Z</time>
  <course>276.68</course>
  <speed>26.024642168529425</speed>
  <fix>3d</fix>
</trkpt>
<trkpt lat="-27.272876" lon="151.2874261">
  <ele>371.1</ele>
  <time>2026-09-01T19:58:04Z</time>
  <course>275.98</course>
  <speed>26.12</speed>
  <fix>3d</fix>
</trkpt>
<trkpt lat="-27.2728689" lon="151.2873515">
  <ele>371.15</ele>
  <time>2026-09-01T19:58:04Z</time>
  <course>276.66</course>
  <speed>26.014697768761412</speed>
  <fix>3d</fix>
</trkpt>
<trkpt lat="-27.272876" lon="151.2874261">
  <ele>371.1</ele>
  <time>2026-09-01T19:58:04Z</time>
  <course>275.98</course>
  <speed>26.12</speed>
  <fix>3d</fix>
</trkpt>
<trkpt lat="-27.2728665" lon="151.2873253">
  <ele>371.19</ele>
  <time>2026-09-01T19:58:04Z</time>
  <course>276.58</course>
  <speed>25.99375694277378</speed>
  <fix>3d</fix>
</trkpt>
<trkpt lat="-27.2728711" lon="151.2873737">
  <ele>371.19</ele>
  <time>2026-09-01T19:58:04Z</time>
  <course>275.99</course>
  <speed>26.08</speed>
  <fix>3d</fix>
</trkpt>
<trkpt lat="-27.272864" lon="151.2872992">
  <ele>371.23</ele>
  <time>2026-09-01T19:58:04Z</time>
  <course>276.53</course>
  <speed>25.983812268410503</speed>
  <fix>3d</fix>
</trkpt>
<trkpt lat="-27.2728711" lon="151.2873737">
  <ele>371.19</ele>
  <time>2026-09-01T19:58:04Z</time>
  <course>275.99</course>
  <speed>26.08</speed>
  <fix>3d</fix>
</trkpt>
<trkpt lat="-27.2728616" lon="151.287273">
  <ele>371.27</ele>
  <time>2026-09-01T19:58:04Z</time>
  <course>276.56</course>
  <speed>25.96287349273959</speed>
  <fix>3d</fix>
</trkpt>
<trkpt lat="-27.2728662" lon="151.2873212">
  <ele>371.27</ele>
  <time>2026-09-01T19:58:04Z</time>
  <course>275.98</course>
  <speed>26.05</speed>
  <fix>3d</fix>
</trkpt>
<trkpt lat="-27.2728592" lon="151.2872469">
  <ele>371.3</ele>
  <time>2026-09-01T19:58:04Z</time>
  <course>276.55</course>
  <speed>25.951882398007278</speed>
  <fix>3d</fix>
</trkpt>
<trkpt lat="-27.2728662" lon="151.2873212">
  <ele>371.27</ele>
  <time>2026-09-01T19:58:04Z</time>
  <course>275.98</course>
  <speed>26.05</speed>
  <fix>3d</fix>
</trkpt>
<trkpt lat="-27.2728568" lon="151.2872207">
  <ele>371.34</ele>
  <time>2026-09-01T19:58:04Z</time>
  <course>276.56</course>
  <speed>25.930948690705478</speed>
  <fix>3d</fix>
</trkpt>
<trkpt lat="-27.2728613" lon="151.2872689">
  <ele>371.34</ele>
  <time>2026-09-01T19:58:04Z</time>
  <course>275.96</course>
  <speed>26.01</speed>
  <fix>3d</fix>
</trkpt>
<trkpt lat="-27.2728544" lon="151.2871948">
  <ele>371.38</ele>
  <time>2026-09-01T19:58:04Z</time>
  <course>276.59</course>
  <speed>25.911057485174165</speed>
  <fix>3d</fix>
</trkpt>
<trkpt lat="-27.2728613" lon="151.2872689">
  <ele>371.34</ele>
  <time>2026-09-01T19:58:04Z</time>
  <course>275.96</course>
  <speed>26.01</speed>
  <fix>3d</fix>
</trkpt>
<trkpt lat="-27.2728519" lon="151.2871687">
  <ele>371.41</ele>
  <time>2026-09-01T19:58:04Z</time>
  <course>276.59</course>
  <speed>25.901111945242814</speed>
  <fix>3d</fix>
</trkpt>
<trkpt lat="-27.2728565" lon="151.2872166">
  <ele>371.41</ele>
  <time>2026-09-01T19:58:04Z</time>
  <course>275.94</course>
  <speed>25.97</speed>
  <fix>3d</fix>
</trkpt>
<trkpt lat="-27.2728495" lon="151.2871427">
  <ele>371.45</ele>
  <time>2026-09-01T19:58:04Z</time>
  <course>276.62</course>
  <speed>25.881220991290192</speed>
  <fix>3d</fix>
</trkpt>
<trkpt lat="-27.2728565" lon="151.2872166">
  <ele>371.41</ele>
  <time>2026-09-01T19:58:04Z</time>
  <course>275.94</course>
  <speed>25.97</speed>
  <fix>3d</fix>
</trkpt>
<trkpt lat="-27.2728471" lon="151.2871166">
  <ele>371.49</ele>
  <time>2026-09-01T19:58:04Z</time>
  <course>276.59</course>
  <speed>25.86028808810915</speed>
  <fix>3d</fix>
</trkpt>
<trkpt lat="-27.2728516" lon="151.2871645">
  <ele>371.48</ele>
  <time>2026-09-01T19:58:04Z</time>
  <course>275.93</course>
  <speed>25.94</speed>
  <fix>3d</fix>
</trkpt>
<trkpt lat="-27.2728447" lon="151.2870902">
  <ele>371.52</ele>
  <time>2026-09-01T19:58:04Z</time>
  <course>276.58</course>
  <speed>25.840396668782</speed>
  <fix>3d</fix>
</trkpt>
<trkpt lat="-27.2728516" lon="151.2871645">
  <ele>371.48</ele>
  <time>2026-09-01T19:58:04Z</time>
  <course>275.93</course>
  <speed>25.94</speed>
  <fix>3d</fix>
</trkpt>
<trkpt lat="-27.2728423" lon="151.2870641">
  <ele>371.56</ele>
  <time>2026-09-01T19:58:04Z</time>
  <course>276.61</course>
  <speed>25.82050541720669</speed>
  <fix>3d</fix>
</trkpt>
<trkpt lat="-27.2728469" lon="151.2871124">
  <ele>371.55</ele>
  <time>2026-09-01T19:58:04Z</time>
  <course>275.93</course>
  <speed>25.89</speed>
  <fix>3d</fix>
</trkpt>
<trkpt lat="-27.2728399" lon="151.2870382">
  <ele>371.59</ele>
  <time>2026-09-01T19:58:04Z</time>
  <course>276.63</course>
  <speed>25.81055985444717</speed>
  <fix>3d</fix>
</trkpt>
<trkpt lat="-27.2728469" lon="151.2871124">
  <ele>371.55</ele>
  <time>2026-09-01T19:58:04Z</time>
  <course>275.93</course>
  <speed>25.89</speed>
  <fix>3d</fix>
</trkpt>
<trkpt lat="-27.2728375" lon="151.2870122">
  <ele>371.62</ele>
  <time>2026-09-01T19:58:04Z</time>
  <course>276.59</course>
  <speed>25.790668855227462</speed>
  <fix>3d</fix>
</trkpt>
<trkpt lat="-27.2728421" lon="151.2870605">
  <ele>371.62</ele>
  <time>2026-09-01T19:58:04Z</time>
  <course>275.92</course>
  <speed>25.85</speed>
  <fix>3d</fix>
</trkpt>
<trkpt lat="-27.272835" lon="151.2869862">
  <ele>371.65</ele>
  <time>2026-09-01T19:58:04Z</time>
  <course>276.58</course>
  <speed>25.780723418864724</speed>
  <fix>3d</fix>
</trkpt>
<trkpt lat="-27.2728421" lon="151.2870605">
  <ele>371.62</ele>
  <time>2026-09-01T19:58:04Z</time>
  <course>275.92</course>
  <speed>25.85</speed>
  <fix>3d</fix>
</trkpt>
<trkpt lat="-27.2728326" lon="151.2869602">
  <ele>371.67</ele>
  <time>2026-09-01T19:58:04Z</time>
  <course>276.59</course>
  <speed>25.78176875235677</speed>
  <fix>3d</fix>
</trkpt>
<trkpt lat="-27.2728373" lon="151.2870084">
  <ele>371.68</ele>
  <time>2026-09-01T19:58:04Z</time>
  <course>275.93</course>
  <speed>25.82</speed>
  <fix>3d</fix>
</trkpt>
<trkpt lat="-27.2728302" lon="151.2869342">
  <ele>371.69</ele>
  <time>2026-09-01T19:58:04Z</time>
  <course>276.58</course>
  <speed>25.76187881347166</speed>
  <fix>3d</fix>
</trkpt>
<trkpt lat="-27.2728373" lon="151.2870084">
  <ele>371.68</ele>
  <time>2026-09-01T19:58:04Z</time>
  <course>275.93</course>
  <speed>25.82</speed>
  <fix>3d</fix>
</trkpt>
<trkpt lat="-27.2728278" lon="151.2869082">
  <ele>371.71</ele>
  <time>2026-09-01T19:58:04Z</time>
  <course>276.57</course>
  <speed>25.751933907961167</speed>
  <fix>3d</fix>
</trkpt>
<trkpt lat="-27.2728325" lon="151.2869564">
  <ele>371.72</ele>
  <time>2026-09-01T19:58:04Z</time>
  <course>275.95</course>
  <speed>25.79</speed>
  <fix>3d</fix>
</trkpt>
<trkpt lat="-27.2728254" lon="151.2868822">
  <ele>371.73</ele>
  <time>2026-09-01T19:58:04Z</time>
  <course>276.63</course>
  <speed>25.741989045137906</speed>
  <fix>3d</fix>
</trkpt>
<trkpt lat="-27.2728325" lon="151.2869564">
  <ele>371.72</ele>
  <time>2026-09-01T19:58:04Z</time>
  <course>275.95</course>
  <speed>25.79</speed>
  <fix>3d</fix>
</trkpt>
<trkpt lat="-27.272823" lon="151.2868562">
  <ele>371.75</ele>
  <time>2026-09-01T19:58:04Z</time>
  <course>276.67</course>
  <speed>25.741989045137906</speed>
  <fix>3d</fix>
</trkpt>
<trkpt lat="-27.2728277" lon="151.2869045">
  <ele>371.77</ele>
  <time>2026-09-01T19:58:04Z</time>
  <course>275.96</course>
  <speed>25.76</speed>
  <fix>3d</fix>
</trkpt>
<trkpt lat="-27.2728206" lon="151.2868302">
  <ele>371.77</ele>
  <time>2026-09-01T19:58:04Z</time>
  <course>276.63</course>
  <speed>25.73204422505138</speed>
  <fix>3d</fix>
</trkpt>
<trkpt lat="-27.2728277" lon="151.2869045">
  <ele>371.77</ele>
  <time>2026-09-01T19:58:04Z</time>
  <course>275.96</course>
  <speed>25.76</speed>
  <fix>3d</fix>
</trkpt>
<trkpt lat="-27.2728182" lon="151.2868042">
  <ele>371.78</ele>
  <time>2026-09-01T19:58:04Z</time>
  <course>276.64</course>
  <speed>25.73204422505138</speed>
  <fix>3d</fix>
</trkpt>
<trkpt lat="-27.2728229" lon="151.2868528">
  <ele>371.81</ele>
  <time>2026-09-01T19:58:04Z</time>
  <course>275.96</course>
  <speed>25.74</speed>
  <fix>3d</fix>
</trkpt>
<trkpt lat="-27.2728157" lon="151.2867782">
  <ele>371.8</ele>
  <time>2026-09-01T19:58:04Z</time>
  <course>276.63</course>
  <speed>25.72315105114457</speed>
  <fix>3d</fix>
</trkpt>
<trkpt lat="-27.2728229" lon="151.2868528">
  <ele>371.81</ele>
  <time>2026-09-01T19:58:04Z</time>
  <course>275.96</course>
  <speed>25.74</speed>
  <fix>3d</fix>
</trkpt>
<trkpt lat="-27.2728133" lon="151.2867523">
  <ele>371.81</ele>
  <time>2026-09-01T19:58:04Z</time>
  <course>276.65</course>
  <speed>25.72315105114457</speed>
  <fix>3d</fix>
</trkpt>
<trkpt lat="-27.272818" lon="151.2868011">
  <ele>371.84</ele>
  <time>2026-09-01T19:58:04Z</time>
  <course>275.98</course>
  <speed>25.72</speed>
  <fix>3d</fix>
</trkpt>
<trkpt lat="-27.2728109" lon="151.2867263">
  <ele>371.83</ele>
  <time>2026-09-01T19:58:04Z</time>
  <course>276.67</course>
  <speed>25.712154713286868</speed>
  <fix>3d</fix>
</trkpt>
<trkpt lat="-27.272818" lon="151.2868011">
  <ele>371.84</ele>
  <time>2026-09-01T19:58:04Z</time>
  <course>275.98</course>
  <speed>25.72</speed>
  <fix>3d</fix>
</trkpt>
<trkpt lat="-27.2728085" lon="151.2867004">
  <ele>371.84</ele>
  <time>2026-09-01T19:58:04Z</time>
  <course>276.68</course>
  <speed>25.71320672339411</speed>
  <fix>3d</fix>
</trkpt>
<trkpt lat="-27.2728132" lon="151.2867494">
  <ele>371.87</ele>
  <time>2026-09-01T19:58:04Z</time>
  <course>275.98</course>
  <speed>25.7</speed>
  <fix>3d</fix>
</trkpt>
<trkpt lat="-27.2728061" lon="151.2866745">
  <ele>371.85</ele>
  <time>2026-09-01T19:58:04Z</time>
  <course>276.7</course>
  <speed>25.70326243884227</speed>
  <fix>3d</fix>
</trkpt>
<trkpt lat="-27.2728132" lon="151.2867494">
  <ele>371.87</ele>
  <time>2026-09-01T19:58:04Z</time>
  <course>275.98</course>
  <speed>25.7</speed>
  <fix>3d</fix>
</trkpt>
<trkpt lat="-27.2728037" lon="151.2866488">
  <ele>371.86</ele>
  <time>2026-09-01T19:58:04Z</time>
  <course>276.75</course>
  <speed>25.704318703284084</speed>
  <fix>3d</fix>
</trkpt>
<trkpt lat="-27.2728084" lon="151.2866977">
  <ele>371.9</ele>
  <time>2026-09-01T19:58:04Z</time>
  <course>275.99</course>
  <speed>25.68</speed>
  <fix>3d</fix>
</trkpt>
<trkpt lat="-27.2728012" lon="151.2866229">
  <ele>371.87</ele>
  <time>2026-09-01T19:58:04Z</time>
  <course>276.75</course>
  <speed>25.694374870776677</speed>
  <fix>3d</fix>
</trkpt>
<trkpt lat="-27.2728084" lon="151.2866977">
  <ele>371.9</ele>
  <time>2026-09-01T19:58:04Z</time>
  <course>275.99</course>
  <speed>25.68</speed>
  <fix>3d</fix>
</trkpt>
<trkpt lat="-27.2727988" lon="151.286597">
  <ele>371.88</ele>
  <time>2026-09-01T19:58:04Z</time>
  <course>276.76</course>
  <speed>25.694374870776677</speed>
  <fix>3d</fix>
</trkpt>
<trkpt lat="-27.2728036" lon="151.2866462">
  <ele>371.93</ele>
  <time>2026-09-01T19:58:04Z</time>
  <course>276.01</course>
  <speed>25.67</speed>
  <fix>3d</fix>
</trkpt>
<trkpt lat="-27.2727964" lon="151.2865712">
  <ele>371.89</ele>
  <time>2026-09-01T19:58:04Z</time>
  <course>276.74</course>
  <speed>25.684431081883048</speed>
  <fix>3d</fix>
</trkpt>
<trkpt lat="-27.2728036" lon="151.2866462">
  <ele>371.93</ele>
  <time>2026-09-01T19:58:04Z</time>
  <course>276.01</course>
  <speed>25.67</speed>
  <fix>3d</fix>
</trkpt>
<trkpt lat="-27.2727939" lon="151.2865451">
  <ele>371.91</ele>
  <time>2026-09-01T19:58:04Z</time>
  <course>276.73</course>
  <speed>25.684431081883048</speed>
  <fix>3d</fix>
</trkpt>
<trkpt lat="-27.2727987" lon="151.2865946">
  <ele>371.96</ele>
  <time>2026-09-01T19:58:04Z</time>
  <course>276.02</course>
  <speed>25.65</speed>
  <fix>3d</fix>
</trkpt>
<trkpt lat="-27.2727915" lon="151.2865193">
  <ele>371.92</ele>
  <time>2026-09-01T19:58:04Z</time>
  <course>276.77</course>
  <speed>25.684431081883048</speed>
  <fix>3d</fix>
</trkpt>
<trkpt lat="-27.2727987" lon="151.2865946">
  <ele>371.96</ele>
  <time>2026-09-01T19:58:04Z</time>
  <course>276.02</course>
  <speed>25.65</speed>
  <fix>3d</fix>
</trkpt>
<trkpt lat="-27.2727891" lon="151.2864935">
  <ele>371.93</ele>
  <time>2026-09-01T19:58:04Z</time>
  <course>276.79</course>
  <speed>25.67448733665387</speed>
  <fix>3d</fix>
</trkpt>
<trkpt lat="-27.2727939" lon="151.2865431">
  <ele>371.97</ele>
  <time>2026-09-01T19:58:04Z</time>
  <course>276.02</course>
  <speed>25.64</speed>
  <fix>3d</fix>
</trkpt>
<trkpt lat="-27.2727866" lon="151.2864677">
  <ele>371.94</ele>
  <time>2026-09-01T19:58:04Z</time>
  <course>276.78</course>
  <speed>25.664543635139903</speed>
  <fix>3d</fix>
</trkpt>
<trkpt lat="-27.2727939" lon="151.2865431">
  <ele>371.97</ele>
  <time>2026-09-01T19:58:04Z</time>
  <course>276.02</course>
  <speed>25.64</speed>
  <fix>3d</fix>
</trkpt>
<trkpt lat="-27.2727842" lon="151.2864419">
  <ele>371.95</ele>
  <time>2026-09-01T19:58:04Z</time>
  <course>276.72</course>
  <speed>25.664543635139903</speed>
  <fix>3d</fix>
</trkpt>
<trkpt lat="-27.2727891" lon="151.2864914">
  <ele>372.0</ele>
  <time>2026-09-01T19:58:04Z</time>
  <course>276.02</course>
  <speed>25.63</speed>
  <fix>3d</fix>
</trkpt>
<trkpt lat="-27.2727818" lon="151.2864161">
  <ele>371.96</ele>
  <time>2026-09-01T19:58:04Z</time>
  <course>276.74</course>
  <speed>25.654599977391968</speed>
  <fix>3d</fix>
</trkpt>
<trkpt lat="-27.2727891" lon="151.2864914">
  <ele>372.0</ele>
  <time>2026-09-01T19:58:04Z</time>
  <course>276.02</course>
  <speed>25.63</speed>
  <fix>3d</fix>
</trkpt>
<trkpt lat="-27.2727794" lon="151.2863901">
  <ele>371.97</ele>
  <time>2026-09-01T19:58:04Z</time>
  <course>276.72</course>
  <speed>25.654599977391968</speed>
  <fix>3d</fix>
</trkpt>
<trkpt lat="-27.2727842" lon="151.2864398">
  <ele>372.02</ele>
  <time>2026-09-01T19:58:04Z</time>
  <course>276.02</course>
  <speed>25.62</speed>
  <fix>3d</fix>
</trkpt>
<trkpt lat="-27.2727769" lon="151.2863643">
  <ele>371.98</ele>
  <time>2026-09-01T19:58:04Z</time>
  <course>276.73</course>
  <speed>25.643597641516685</speed>
  <fix>3d</fix>
</trkpt>
<trkpt lat="-27.2727842" lon="151.2864398">
  <ele>372.02</ele>
  <time>2026-09-01T19:58:04Z</time>
  <course>276.02</course>
  <speed>25.62</speed>
  <fix>3d</fix>
</trkpt>
<trkpt lat="-27.2727745" lon="151.2863385">
  <ele>372.0</ele>
  <time>2026-09-01T19:58:04Z</time>
  <course>276.76</course>
  <speed>25.634712793397938</speed>
  <fix>3d</fix>
</trkpt>
<trkpt lat="-27.2727794" lon="151.2863884">
  <ele>372.04</ele>
  <time>2026-09-01T19:58:04Z</time>
  <course>276.01</course>
  <speed>25.61</speed>
  <fix>3d</fix>
</trkpt>
<trkpt lat="-27.2727721" lon="151.2863127">
  <ele>372.01</ele>
  <time>2026-09-01T19:58:04Z</time>
  <course>276.79</course>
  <speed>25.6247692672539</speed>
  <fix>3d</fix>
</trkpt>
<trkpt lat="-27.2727794" lon="151.2863884">
  <ele>372.04</ele>
  <time>2026-09-01T19:58:04Z</time>
  <course>276.01</course>
  <speed>25.61</speed>
  <fix>3d</fix>
</trkpt>
<trkpt lat="-27.2727697" lon="151.2862869">
  <ele>372.02</ele>
  <time>2026-09-01T19:58:04Z</time>
  <course>276.76</course>
  <speed>25.6247692672539</speed>
  <fix>3d</fix>
</trkpt>
<trkpt lat="-27.2727746" lon="151.2863369">
  <ele>372.07</ele>
  <time>2026-09-01T19:58:04Z</time>
  <course>276.01</course>
  <speed>25.59</speed>
  <fix>3d</fix>
</trkpt>
<trkpt lat="-27.2727673" lon="151.2862612">
  <ele>372.03</ele>
  <time>2026-09-01T19:58:04Z</time>
  <course>276.75</course>
  <speed>25.614825785080015</speed>
  <fix>3d</fix>
</trkpt>
<trkpt lat="-27.2727746" lon="151.2863369">
  <ele>372.07</ele>
  <time>2026-09-01T19:58:04Z</time>
  <course>276.01</course>
  <speed>25.59</speed>
  <fix>3d</fix>
</trkpt>
<trkpt lat="-27.2727649" lon="151.2862354">
  <ele>372.04</ele>
  <time>2026-09-01T19:58:04Z</time>
  <course>276.68</course>
  <speed>25.60488234692751</speed>
  <fix>3d</fix>
</trkpt>
<trkpt lat="-27.2727698" lon="151.2862855">
  <ele>372.09</ele>
  <time>2026-09-01T19:58:04Z</time>
  <course>276.02</course>
  <speed>25.57</speed>
  <fix>3d</fix>
</trkpt>
<trkpt lat="-27.2727624" lon="151.2862096">
  <ele>372.05</ele>
  <time>2026-09-01T19:58:04Z</time>
  <course>276.66</course>
  <speed>25.60382198032161</speed>
  <fix>3d</fix>
</trkpt>
<trkpt lat="-27.2727698" lon="151.2862855">
  <ele>372.09</ele>
  <time>2026-09-01T19:58:04Z</time>
  <course>276.02</course>
  <speed>25.57</speed>
  <fix>3d</fix>
</trkpt>
<trkpt lat="-27.27276" lon="151.2861839">
  <ele>372.06</ele>
  <time>2026-09-01T19:58:04Z</time>
  <course>276.69</course>
  <speed>25.602765475627827</speed>
  <fix>3d</fix>
</trkpt>
<trkpt lat="-27.2727649" lon="151.2862342">
  <ele>372.11</ele>
  <time>2026-09-01T19:58:04Z</time>
  <course>276.02</course>
  <speed>25.56</speed>
  <fix>3d</fix>
</trkpt>
<trkpt lat="-27.2727576" lon="151.2861582">
  <ele>372.07</ele>
  <time>2026-09-01T19:58:04Z</time>
  <course>276.73</course>
  <speed>25.592821259095295</speed>
  <fix>3d</fix>
</trkpt>
<trkpt lat="-27.2727649" lon="151.2862342">
  <ele>372.11</ele>
  <time>2026-09-01T19:58:04Z</time>
  <course>276.02</course>
  <speed>25.56</speed>
  <fix>3d</fix>
</trkpt>
<trkpt lat="-27.2727552" lon="151.2861324">
  <ele>372.08</ele>
  <time>2026-09-01T19:58:04Z</time>
  <course>276.73</course>
  <speed>25.592821259095295</speed>
  <fix>3d</fix>
</trkpt>
<trkpt lat="-27.2727601" lon="151.2861828">
  <ele>372.13</ele>
  <time>2026-09-01T19:58:04Z</time>
  <course>276.0</course>
  <speed>25.55</speed>
  <fix>3d</fix>
</trkpt>
<trkpt lat="-27.2727528" lon="151.2861069">
  <ele>372.08</ele>
  <time>2026-09-01T19:58:04Z</time>
  <course>276.69</course>
  <speed>25.58287708605113</speed>
  <fix>3d</fix>
</trkpt>
<trkpt lat="-27.2727601" lon="151.2861828">
  <ele>372.13</ele>
  <time>2026-09-01T19:58:04Z</time>
  <course>276.0</course>
  <speed>25.55</speed>
  <fix>3d</fix>
</trkpt>
<trkpt lat="-27.2727504" lon="151.2860812">
  <ele>372.09</ele>
  <time>2026-09-01T19:58:04Z</time>
  <course>276.68</course>
  <speed>25.58287708605113</speed>
  <fix>3d</fix>
</trkpt>
<trkpt lat="-27.2727553" lon="151.2861314">
  <ele>372.14</ele>
  <time>2026-09-01T19:58:04Z</time>
  <course>276.0</course>
  <speed>25.54</speed>
  <fix>3d</fix>
</trkpt>
<trkpt lat="-27.272748" lon="151.2860555">
  <ele>372.1</ele>
  <time>2026-09-01T19:58:04Z</time>
  <course>276.7</course>
  <speed>25.57293295654607</speed>
  <fix>3d</fix>
</trkpt>
<trkpt lat="-27.2727553" lon="151.2861314">
  <ele>372.14</ele>
  <time>2026-09-01T19:58:04Z</time>
  <course>276.0</course>
  <speed>25.54</speed>
  <fix>3d</fix>
</trkpt>
<trkpt lat="-27.2727456" lon="151.2860299">
  <ele>372.11</ele>
  <time>2026-09-01T19:58:04Z</time>
  <course>276.69</course>
  <speed>25.57293295654607</speed>
  <fix>3d</fix>
</trkpt>
<trkpt lat="-27.2727505" lon="151.2860801">
  <ele>372.15</ele>
  <time>2026-09-01T19:58:04Z</time>
  <course>276.0</course>
  <speed>25.53</speed>
  <fix>3d</fix>
</trkpt>
<trkpt lat="-27.2727432" lon="151.286004">
  <ele>372.11</ele>
  <time>2026-09-01T19:58:04Z</time>
  <course>276.69</course>
  <speed>25.562988870630917</speed>
  <fix>3d</fix>
</trkpt>
<trkpt lat="-27.2727505" lon="151.2860801">
  <ele>372.15</ele>
  <time>2026-09-01T19:58:04Z</time>
  <course>276.0</course>
  <speed>25.53</speed>
  <fix>3d</fix>
</trkpt>
<trkpt lat="-27.2727408" lon="151.2859783">
  <ele>372.12</ele>
  <time>2026-09-01T19:58:04Z</time>
  <course>276.77</course>
  <speed>25.553044828356562</speed>
  <fix>3d</fix>
</trkpt>
<trkpt lat="-27.2727457" lon="151.2860288">
  <ele>372.16</ele>
  <time>2026-09-01T19:58:04Z</time>
  <course>275.99</course>
  <speed>25.52</speed>
  <fix>3d</fix>
</trkpt>
<trkpt lat="-27.2727384" lon="151.2859526">
  <ele>372.12</ele>
  <time>2026-09-01T19:58:04Z</time>
  <course>276.79</course>
  <speed>25.554103388692784</speed>
  <fix>3d</fix>
</trkpt>
<trkpt lat="-27.2727457" lon="151.2860288">
  <ele>372.16</ele>
  <time>2026-09-01T19:58:04Z</time>
  <course>275.99</course>
  <speed>25.52</speed>
  <fix>3d</fix>
</trkpt>
<trkpt lat="-27.272736" lon="151.285927">
  <ele>372.12</ele>
  <time>2026-09-01T19:58:04Z</time>
  <course>276.77</course>
  <speed>25.554103388692784</speed>
  <fix>3d</fix>
</trkpt>
<trkpt lat="-27.272741" lon="151.2859775">
  <ele>372.17</ele>
  <time>2026-09-01T19:58:04Z</time>
  <course>276.0</course>
  <speed>25.51</speed>
  <fix>3d</fix>
</trkpt>
<trkpt lat="-27.2727336" lon="151.2859013">
  <ele>372.12</ele>
  <time>2026-09-01T19:58:04Z</time>
  <course>276.79</course>
  <speed>25.545222645340164</speed>
  <fix>3d</fix>
</trkpt>
<trkpt lat="-27.272741" lon="151.2859775">
  <ele>372.17</ele>
  <time>2026-09-01T19:58:04Z</time>
  <course>276.0</course>
  <speed>25.51</speed>
  <fix>3d</fix>
</trkpt>
<trkpt lat="-27.2727312" lon="151.2858757">
  <ele>372.12</ele>
  <time>2026-09-01T19:58:04Z</time>
  <course>276.8</course>
  <speed>25.54628935873075</speed>
  <fix>3d</fix>
</trkpt>
<trkpt lat="-27.2727361" lon="151.2859262">
  <ele>372.18</ele>
  <time>2026-09-01T19:58:04Z</time>
  <course>276.03</course>
  <speed>25.51</speed>
  <fix>3d</fix>
</trkpt>
<trkpt lat="-27.2727287" lon="151.28585">
  <ele>372.12</ele>
  <time>2026-09-01T19:58:04Z</time>
  <course>276.82</course>
  <speed>25.5374176454864</speed>
  <fix>3d</fix>
</trkpt>
<trkpt lat="-27.2727361" lon="151.2859262">
  <ele>372.18</ele>
  <time>2026-09-01T19:58:04Z</time>
  <course>276.03</course>
  <speed>25.51</speed>
  <fix>3d</fix>
</trkpt>
<trkpt lat="-27.2727263" lon="151.2858244">
  <ele>372.13</ele>
  <time>2026-09-01T19:58:04Z</time>
  <course>276.86</course>
  <speed>25.538492516199934</speed>
  <fix>3d</fix>
</trkpt>
<trkpt lat="-27.2727312" lon="151.2858748">
  <ele>372.18</ele>
  <time>2026-09-01T19:58:04Z</time>
  <course>276.06</course>
  <speed>25.5</speed>
  <fix>3d</fix>
</trkpt>
<trkpt lat="-27.2727238" lon="151.2857987">
  <ele>372.13</ele>
  <time>2026-09-01T19:58:04Z</time>
  <course>276.86</course>
  <speed>25.529629844555128</speed>
  <fix>3d</fix>
</trkpt>
<trkpt lat="-27.2727312" lon="151.2858748">
  <ele>372.18</ele>
  <time>2026-09-01T19:58:04Z</time>
  <course>276.06</course>
  <speed>25.5</speed>
  <fix>3d</fix>
</trkpt>
<trkpt lat="-27.2727214" lon="151.2857731">
  <ele>372.12</ele>
  <time>2026-09-01T19:58:04Z</time>
  <course>276.91</course>
  <speed>25.530712876846977</speed>
  <fix>3d</fix>
</trkpt>
<trkpt lat="-27.2727264" lon="151.2858236">
  <ele>372.19</ele>
  <time>2026-09-01T19:58:04Z</time>
  <course>276.1</course>
  <speed>25.49</speed>
  <fix>3d</fix>
</trkpt>
<trkpt lat="-27.2727189" lon="151.2857475">
  <ele>372.12</ele>
  <time>2026-09-01T19:58:04Z</time>
  <course>276.94</course>
  <speed>25.521859258290725</speed>
  <fix>3d</fix>
</trkpt>
<trkpt lat="-27.2727264" lon="151.2858236">
  <ele>372.19</ele>
  <time>2026-09-01T19:58:04Z</time>
  <course>276.1</course>
  <speed>25.49</speed>
  <fix>3d</fix>
</trkpt>
<trkpt lat="-27.2727164" lon="151.2857219">
  <ele>372.12</ele>
  <time>2026-09-01T19:58:04Z</time>
  <course>276.91</course>
  <speed>25.52295045640296</speed>
  <fix>3d</fix>
</trkpt>
<trkpt lat="-27.2727215" lon="151.2857723">
  <ele>372.19</ele>
  <time>2026-09-01T19:58:04Z</time>
  <course>276.15</course>
  <speed>25.49</speed>
  <fix>3d</fix>
</trkpt>
<trkpt lat="-27.272714" lon="151.2856962">
  <ele>372.12</ele>
  <time>2026-09-01T19:58:04Z</time>
  <course>276.87</course>
  <speed>25.52295045640296</speed>
  <fix>3d</fix>
</trkpt>
<trkpt lat="-27.2727215" lon="151.2857723">
  <ele>372.19</ele>
  <time>2026-09-01T19:58:04Z</time>
  <course>276.15</course>
  <speed>25.49</speed>
  <fix>3d</fix>
</trkpt>
<trkpt lat="-27.2727115" lon="151.2856704">
  <ele>372.11</ele>
  <time>2026-09-01T19:58:04Z</time>
  <course>276.83</course>
  <speed>25.514105902421896</speed>
  <fix>3d</fix>
</trkpt>
<trkpt lat="-27.2727166" lon="151.2857212">
  <ele>372.19</ele>
  <time>2026-09-01T19:58:04Z</time>
  <course>276.18</course>
  <speed>25.49</speed>
  <fix>3d</fix>
</trkpt>
<trkpt lat="-27.272709" lon="151.2856448">
  <ele>372.11</ele>
  <time>2026-09-01T19:58:04Z</time>
  <course>276.64</course>
  <speed>25.515205270583266</speed>
  <fix>3d</fix>
</trkpt>
<trkpt lat="-27.2727166" lon="151.2857212">
  <ele>372.19</ele>
  <time>2026-09-01T19:58:04Z</time>
  <course>276.18</course>
  <speed>25.49</speed>
  <fix>3d</fix>
</trkpt>
<trkpt lat="-27.2727065" lon="151.2856192">
  <ele>372.12</ele>
  <time>2026-09-01T19:58:04Z</time>
  <course>276.14</course>
  <speed>25.521859258290725</speed>
  <fix>3d</fix>
</trkpt>
<trkpt lat="-27.2727117" lon="151.2856699">
  <ele>372.19</ele>
  <time>2026-09-01T19:58:04Z</time>
  <course>276.21</course>
  <speed>25.49</speed>
  <fix>3d</fix>
</trkpt>
<trkpt lat="-27.2727041" lon="151.2855936">
  <ele>372.12</ele>
  <time>2026-09-01T19:58:04Z</time>
  <course>275.45</course>
  <speed>25.51797209811156</speed>
  <fix>3d</fix>
</trkpt>
<trkpt lat="-27.2727117" lon="151.2856699">
  <ele>372.19</ele>
  <time>2026-09-01T19:58:04Z</time>
  <course>276.21</course>
  <speed>25.49</speed>
  <fix>3d</fix>
</trkpt>
<trkpt lat="-27.2727019" lon="151.2855682">
  <ele>372.13</ele>
  <time>2026-09-01T19:58:04Z</time>
  <course>274.78</course>
  <speed>25.512195123117102</speed>
  <fix>3d</fix>
</trkpt>
<trkpt lat="-27.2727067" lon="151.2856186">
  <ele>372.2</ele>
  <time>2026-09-01T19:58:04Z</time>
  <course>276.06</course>
  <speed>25.49</speed>
  <fix>3d</fix>
</trkpt>
<trkpt lat="-27.2726999" lon="151.2855425">
  <ele>372.15</ele>
  <time>2026-09-01T19:58:04Z</time>
  <course>274.24</course>
  <speed>25.516161545185437</speed>
  <fix>3d</fix>
</trkpt>
<trkpt lat="-27.2727067" lon="151.2856186">
  <ele>372.2</ele>
  <time>2026-09-01T19:58:04Z</time>
  <course>276.06</course>
  <speed>25.49</speed>
  <fix>3d</fix>
</trkpt>
<trkpt lat="-27.2726985" lon="151.2855168">
  <ele>372.17</ele>
  <time>2026-09-01T19:58:04Z</time>
  <course>273.61</course>
  <speed>25.537856213864156</speed>
  <fix>3d</fix>
</trkpt>
<trkpt lat="-27.2727022" lon="151.2855674">
  <ele>372.22</ele>
  <time>2026-09-01T19:58:04Z</time>
  <course>275.14</course>
  <speed>25.48</speed>
  <fix>3d</fix>
</trkpt>
<trkpt lat="-27.2726976" lon="151.285491">
  <ele>372.18</ele>
  <time>2026-09-01T19:58:04Z</time>
  <course>272.74</course>
  <speed>25.558523040269755</speed>
  <fix>3d</fix>
</trkpt>
<trkpt lat="-27.2727022" lon="151.2855674">
  <ele>372.22</ele>
  <time>2026-09-01T19:58:04Z</time>
  <course>275.14</course>
  <speed>25.48</speed>
  <fix>3d</fix>
</trkpt>
<trkpt lat="-27.2726974" lon="151.285465">
  <ele>372.19</ele>
  <time>2026-09-01T19:58:04Z</time>
  <course>271.18</course>
  <speed>25.60103318227606</speed>
  <fix>3d</fix>
</trkpt>
<trkpt lat="-27.2726989" lon="151.2855161">
  <ele>372.25</ele>
  <time>2026-09-01T19:58:04Z</time>
  <course>272.93</course>
  <speed>25.49</speed>
  <fix>3d</fix>
</trkpt>
<trkpt lat="-27.2726982" lon="151.2854392">
  <ele>372.2</ele>
  <time>2026-09-01T19:58:04Z</time>
  <course>268.98</course>
  <speed>25.653982147027392</speed>
  <fix>3d</fix>
</trkpt>
<trkpt lat="-27.2726989" lon="151.2855161">
  <ele>372.25</ele>
  <time>2026-09-01T19:58:04Z</time>
  <course>272.93</course>
  <speed>25.49</speed>
  <fix>3d</fix>
</trkpt>
<trkpt lat="-27.2726999" lon="151.2854133">
  <ele>372.21</ele>
  <time>2026-09-01T19:58:04Z</time>
  <course>266.3</course>
  <speed>25.73663925224115</speed>
  <fix>3d</fix>
</trkpt>
<trkpt lat="-27.2726979" lon="151.2854645">
  <ele>372.27</ele>
  <time>2026-09-01T19:58:04Z</time>
  <course>269.28</course>
  <speed>25.53</speed>
  <fix>3d</fix>
</trkpt>
<trkpt lat="-27.2727028" lon="151.2853876">
  <ele>372.24</ele>
  <time>2026-09-01T19:58:04Z</time>
  <course>263.27</course>
  <speed>25.819310602725242</speed>
  <fix>3d</fix>
</trkpt>
<trkpt lat="-27.2726979" lon="151.2854645">
  <ele>372.27</ele>
  <time>2026-09-01T19:58:04Z</time>
  <course>269.28</course>
  <speed>25.53</speed>
  <fix>3d</fix>
</trkpt>
<trkpt lat="-27.272707" lon="151.2853619">
  <ele>372.3</ele>
  <time>2026-09-01T19:58:04Z</time>
  <course>260.12</course>
  <speed>25.90633320252019</speed>
  <fix>3d</fix>
</trkpt>
<trkpt lat="-27.2727004" lon="151.2854128">
  <ele>372.3</ele>
  <time>2026-09-01T19:58:04Z</time>
  <course>264.17</course>
  <speed>25.64</speed>
  <fix>3d</fix>
</trkpt>
<trkpt lat="-27.2727125" lon="151.2853365">
  <ele>372.38</ele>
  <time>2026-09-01T19:58:04Z</time>
  <course>256.85</course>
  <speed>25.977669256497975</speed>
  <fix>3d</fix>
</trkpt>
<trkpt lat="-27.2727004" lon="151.2854128">
  <ele>372.3</ele>
  <time>2026-09-01T19:58:04Z</time>
  <course>264.17</course>
  <speed>25.64</speed>
  <fix>3d</fix>
</trkpt>
<trkpt lat="-27.2727192" lon="151.2853114">
  <ele>372.48</ele>
  <time>2026-09-01T19:58:04Z</time>
  <course>253.71</course>
  <speed>26.025621990646062</speed>
  <fix>3d</fix>
</trkpt>
<trkpt lat="-27.2727075" lon="151.2853615">
  <ele>372.39</ele>
  <time>2026-09-01T19:58:04Z</time>
  <course>258.08</course>
  <speed>25.78</speed>
  <fix>3d</fix>
</trkpt>
<trkpt lat="-27.2727272" lon="151.2852867">
  <ele>372.61</ele>
  <time>2026-09-01T19:58:04Z</time>
  <course>250.72</course>
  <speed>26.078040570564344</speed>
  <fix>3d</fix>
</trkpt>
<trkpt lat="-27.2727075" lon="151.2853615">
  <ele>372.39</ele>
  <time>2026-09-01T19:58:05Z</time>
  <course>258.08</course>
  <speed>25.78</speed>
  <fix>3d</fix>
</trkpt>
<trkpt lat="-27.2727363" lon="151.2852625">
  <ele>372.76</ele>
  <time>2026-09-01T19:58:05Z</time>
  <course>247.68</course>
  <speed>26.10606442955353</speed>
  <fix>3d</fix>
</trkpt>
<trkpt lat="-27.2727196" lon="151.2853111">
  <ele>372.57</ele>
  <time>2026-09-01T19:58:05Z</time>
  <course>251.77</course>
  <speed>25.9</speed>
  <fix>3d</fix>
</trkpt>
<trkpt lat="-27.2727465" lon="151.2852388">
  <ele>372.92</ele>
  <time>2026-09-01T19:58:05Z</time>
  <course>244.63</course>
  <speed>26.132900719208347</speed>
  <fix>3d</fix>
</trkpt>
<trkpt lat="-27.2727196" lon="151.2853111">
  <ele>372.57</ele>
  <time>2026-09-01T19:58:05Z</time>
  <course>251.77</course>
  <speed>25.9</speed>
  <fix>3d</fix>
</trkpt>
<trkpt lat="-27.2727578" lon="151.2852157">
  <ele>373.09</ele>
  <time>2026-09-01T19:58:05Z</time>
  <course>241.69</course>
  <speed>26.150191203889886</speed>
  <fix>3d</fix>
</trkpt>
<trkpt lat="-27.2727365" lon="151.2852622">
  <ele>372.84</ele>
  <time>2026-09-01T19:58:05Z</time>
  <course>245.66</course>
  <speed>25.98</speed>
  <fix>3d</fix>
</trkpt>
<trkpt lat="-27.2727701" lon="151.2851934">
  <ele>373.27</ele>
  <time>2026-09-01T19:58:05Z</time>
  <course>238.75</course>
  <speed>26.179795644733364</speed>
  <fix>3d</fix>
</trkpt>
<trkpt lat="-27.2727365" lon="151.2852622">
  <ele>372.84</ele>
  <time>2026-09-01T19:58:05Z</time>
  <course>245.66</course>
  <speed>25.98</speed>
  <fix>3d</fix>
</trkpt>
<trkpt lat="-27.2727835" lon="151.2851717">
  <ele>373.45</ele>
  <time>2026-09-01T19:58:05Z</time>
  <course>235.64</course>
  <speed>26.195270565504757</speed>
  <fix>3d</fix>
</trkpt>
<trkpt lat="-27.2727579" lon="151.2852156">
  <ele>373.16</ele>
  <time>2026-09-01T19:58:05Z</time>
  <course>239.69</course>
  <speed>26.04</speed>
  <fix>3d</fix>
</trkpt>
<trkpt lat="-27.2727979" lon="151.2851509">
  <ele>373.64</ele>
  <time>2026-09-01T19:58:05Z</time>
  <course>232.5</course>
  <speed>26.216120994533117</speed>
  <fix>3d</fix>
</trkpt>
<trkpt lat="-27.2727579" lon="151.2852156">
  <ele>373.16</ele>
  <time>2026-09-01T19:58:05Z</time>
  <course>239.69</course>
  <speed>26.04</speed>
  <fix>3d</fix>
</trkpt>
<trkpt lat="-27.2728133" lon="151.285131">
  <ele>373.83</ele>
  <time>2026-09-01T19:58:05Z</time>
  <course>229.47</course>
  <speed>26.237158763860084</speed>
  <fix>3d</fix>
</trkpt>
<trkpt lat="-27.2727837" lon="151.2851716">
  <ele>373.52</ele>
  <time>2026-09-01T19:58:05Z</time>
  <course>233.63</course>
  <speed>26.09</speed>
  <fix>3d</fix>
</trkpt>
<trkpt lat="-27.2728296" lon="151.285112">
  <ele>374.03</ele>
  <time>2026-09-01T19:58:05Z</time>
  <course>226.48</course>
  <speed>26.25604120959594</speed>
  <fix>3d</fix>
</trkpt>
<trkpt lat="-27.2727837" lon="151.2851716">
  <ele>373.52</ele>
  <time>2026-09-01T19:58:05Z</time>
  <course>233.63</course>
  <speed>26.09</speed>
  <fix>3d</fix>
</trkpt>
<trkpt lat="-27.2728468" lon="151.285094">
  <ele>374.22</ele>
  <time>2026-09-01T19:58:05Z</time>
  <course>223.49</course>
  <speed>26.262416111241556</speed>
  <fix>3d</fix>
</trkpt>
<trkpt lat="-27.2728134" lon="151.2851308">
  <ele>373.9</ele>
  <time>2026-09-01T19:58:05Z</time>
  <course>227.51</course>
  <speed>26.15</speed>
  <fix>3d</fix>
</trkpt>
<trkpt lat="-27.2728649" lon="151.2850771">
  <ele>374.42</ele>
  <time>2026-09-01T19:58:05Z</time>
  <course>220.45</course>
  <speed>26.284194870682267</speed>
  <fix>3d</fix>
</trkpt>
<trkpt lat="-27.2728134" lon="151.2851308">
  <ele>373.9</ele>
  <time>2026-09-01T19:58:05Z</time>
  <course>227.51</course>
  <speed>26.15</speed>
  <fix>3d</fix>
</trkpt>
<trkpt lat="-27.2728837" lon="151.2850612">
  <ele>374.61</ele>
  <time>2026-09-01T19:58:05Z</time>
  <course>217.48</course>
  <speed>26.285939207112232</speed>
  <fix>3d</fix>
</trkpt>
<trkpt lat="-27.2728469" lon="151.2850938">
  <ele>374.28</ele>
  <time>2026-09-01T19:58:05Z</time>
  <course>221.44</course>
  <speed>26.2</speed>
  <fix>3d</fix>
</trkpt>
<trkpt lat="-27.2729032" lon="151.2850464">
  <ele>374.81</ele>
  <time>2026-09-01T19:58:05Z</time>
  <course>214.61</course>
  <speed>26.28465902384887</speed>
  <fix>3d</fix>
</trkpt>
<trkpt lat="-27.2728469" lon="151.2850938">
  <ele>374.28</ele>
  <time>2026-09-01T19:58:05Z</time>
  <course>221.44</course>
  <speed>26.2</speed>
  <fix>3d</fix>
</trkpt>
<trkpt lat="-27.2729233" lon="151.2850327">
  <ele>375.0</ele>
  <time>2026-09-01T19:58:05Z</time>
  <course>211.81</course>
  <speed>26.270629988639403</speed>
  <fix>3d</fix>
</trkpt>
<trkpt lat="-27.2728838" lon="151.2850609">
  <ele>374.66</ele>
  <time>2026-09-01T19:58:05Z</time>
  <course>215.46</course>
  <speed>26.23</speed>
  <fix>3d</fix>
</trkpt>
<trkpt lat="-27.2729442" lon="151.2850201">
  <ele>375.19</ele>
  <time>2026-09-01T19:58:05Z</time>
  <course>209.04</course>
  <speed>26.26060166865946</speed>
  <fix>3d</fix>
</trkpt>
<trkpt lat="-27.2728838" lon="151.2850609">
  <ele>374.66</ele>
  <time>2026-09-01T19:58:05Z</time>
  <course>215.46</course>
  <speed>26.23</speed>
  <fix>3d</fix>
</trkpt>
<trkpt lat="-27.2729655" lon="151.2850088">
  <ele>375.37</ele>
  <time>2026-09-01T19:58:05Z</time>
  <course>206.27</course>
  <speed>26.25483764946948</speed>
  <fix>3d</fix>
</trkpt>
<trkpt lat="-27.2729236" lon="151.2850323">
  <ele>375.04</ele>
  <time>2026-09-01T19:58:05Z</time>
  <course>209.65</course>
  <speed>26.24</speed>
  <fix>3d</fix>
</trkpt>
<trkpt lat="-27.2729872" lon="151.2849986">
  <ele>375.55</ele>
  <time>2026-09-01T19:58:05Z</time>
  <course>203.53</course>
  <speed>26.238004878420156</speed>
  <fix>3d</fix>
</trkpt>
<trkpt lat="-27.2729236" lon="151.2850323">
  <ele>375.04</ele>
  <time>2026-09-01T19:58:05Z</time>
  <course>209.65</course>
  <speed>26.24</speed>
  <fix>3d</fix>
</trkpt>
<trkpt lat="-27.2730092" lon="151.2849895">
  <ele>375.71</ele>
  <time>2026-09-01T19:58:05Z</time>
  <course>200.88</course>
  <speed>26.221655172776565</speed>
  <fix>3d</fix>
</trkpt>
<trkpt lat="-27.2729656" lon="151.2850085">
  <ele>375.4</ele>
  <time>2026-09-01T19:58:05Z</time>
  <course>204.06</course>
  <speed>26.23</speed>
  <fix>3d</fix>
</trkpt>
<trkpt lat="-27.2730317" lon="151.2849817">
  <ele>375.87</ele>
  <time>2026-09-01T19:58:05Z</time>
  <course>198.2</course>
  <speed>26.207054393807784</speed>
  <fix>3d</fix>
</trkpt>
<trkpt lat="-27.2729656" lon="151.2850085">
  <ele>375.4</ele>
  <time>2026-09-01T19:58:05Z</time>
  <course>204.06</course>
  <speed>26.23</speed>
  <fix>3d</fix>
</trkpt>
<trkpt lat="-27.2730544" lon="151.2849751">
  <ele>376.01</ele>
  <time>2026-09-01T19:58:05Z</time>
  <course>195.56</course>
  <speed>26.191800243587686</speed>
  <fix>3d</fix>
</trkpt>
<trkpt lat="-27.2730095" lon="151.2849891">
  <ele>375.73</ele>
  <time>2026-09-01T19:58:05Z</time>
  <course>198.59</course>
  <speed>26.21</speed>
  <fix>3d</fix>
</trkpt>
<trkpt lat="-27.2730774" lon="151.2849696">
  <ele>376.13</ele>
  <time>2026-09-01T19:58:05Z</time>
  <course>192.87</course>
  <speed>26.181896417181093</speed>
  <fix>3d</fix>
</trkpt>
<trkpt lat="-27.2730095" lon="151.2849891">
  <ele>375.73</ele>
  <time>2026-09-01T19:58:05Z</time>
  <course>198.59</course>
  <speed>26.21</speed>
  <fix>3d</fix>
</trkpt>
<trkpt lat="-27.2731005" lon="151.2849653">
  <ele>376.25</ele>
  <time>2026-09-01T19:58:05Z</time>
  <course>190.13</course>
  <speed>26.16606198876705</speed>
  <fix>3d</fix>
</trkpt>
<trkpt lat="-27.2730549" lon="151.2849746">
  <ele>376.02</ele>
  <time>2026-09-01T19:58:05Z</time>
  <course>193.22</course>
  <speed>26.19</speed>
  <fix>3d</fix>
</trkpt>
<trkpt lat="-27.2731239" lon="151.2849623">
  <ele>376.36</ele>
  <time>2026-09-01T19:58:05Z</time>
  <course>187.45</course>
  <speed>26.15399395885837</speed>
  <fix>3d</fix>
</trkpt>
<trkpt lat="-27.2730549" lon="151.2849746">
  <ele>376.02</ele>
  <time>2026-09-01T19:58:05Z</time>
  <course>193.22</course>
  <speed>26.19</speed>
  <fix>3d</fix>
</trkpt>
<trkpt lat="-27.2731473" lon="151.2849606">
  <ele>376.45</ele>
  <time>2026-09-01T19:58:05Z</time>
  <course>184.81</course>
  <speed>26.14357473644337</speed>
  <fix>3d</fix>
</trkpt>
<trkpt lat="-27.2731011" lon="151.284965">
  <ele>376.26</ele>
  <time>2026-09-01T19:58:05Z</time>
  <course>187.86</course>
  <speed>26.17</speed>
  <fix>3d</fix>
</trkpt>
<trkpt lat="-27.2731707" lon="151.28496">
  <ele>376.53</ele>
  <time>2026-09-01T19:58:05Z</time>
  <course>182.19</course>
  <speed>26.13015499379979</speed>
  <fix>3d</fix>
</trkpt>
<trkpt lat="-27.2731011" lon="151.284965">
  <ele>376.26</ele>
  <time>2026-09-01T19:58:05Z</time>
  <course>187.86</course>
  <speed>26.17</speed>
  <fix>3d</fix>
</trkpt>
<trkpt lat="-27.2731942" lon="151.2849606">
  <ele>376.6</ele>
  <time>2026-09-01T19:58:05Z</time>
  <course>179.47</course>
  <speed>26.112380205565326</speed>
  <fix>3d</fix>
</trkpt>
<trkpt lat="-27.2731479" lon="151.2849602">
  <ele>376.45</ele>
  <time>2026-09-01T19:58:05Z</time>
  <course>182.49</course>
  <speed>26.14</speed>
  <fix>3d</fix>
</trkpt>
<trkpt lat="-27.2732175" lon="151.2849625">
  <ele>376.65</ele>
  <time>2026-09-01T19:58:05Z</time>
  <course>176.78</course>
  <speed>26.100967415021227</speed>
  <fix>3d</fix>
</trkpt>
<trkpt lat="-27.2731479" lon="151.2849602">
  <ele>376.45</ele>
  <time>2026-09-01T19:58:05Z</time>
  <course>182.49</course>
  <speed>26.14</speed>
  <fix>3d</fix>
</trkpt>
<trkpt lat="-27.2732408" lon="151.2849656">
  <ele>376.69</ele>
  <time>2026-09-01T19:58:05Z</time>
  <course>174.16</course>
  <speed>26.0851777835613</speed>
  <fix>3d</fix>
</trkpt>
<trkpt lat="-27.2731948" lon="151.2849603">
  <ele>376.59</ele>
  <time>2026-09-01T19:58:05Z</time>
  <course>177.16</course>
  <speed>26.11</speed>
  <fix>3d</fix>
</trkpt>
<trkpt lat="-27.2732639" lon="151.2849699">
  <ele>376.72</ele>
  <time>2026-09-01T19:58:05Z</time>
  <course>171.46</course>
  <speed>26.064727123068064</speed>
  <fix>3d</fix>
</trkpt>
<trkpt lat="-27.2731948" lon="151.2849603">
  <ele>376.59</ele>
  <time>2026-09-01T19:58:05Z</time>
  <course>177.16</course>
  <speed>26.11</speed>
  <fix>3d</fix>
</trkpt>
<trkpt lat="-27.2732867" lon="151.2849754">
  <ele>376.74</ele>
  <time>2026-09-01T19:58:05Z</time>
  <course>168.7</course>
  <speed>26.04677523226244</speed>
  <fix>3d</fix>
</trkpt>
<trkpt lat="-27.2732413" lon="151.2849653">
  <ele>376.68</ele>
  <time>2026-09-01T19:58:05Z</time>
  <course>171.85</course>
  <speed>26.08</speed>
  <fix>3d</fix>
</trkpt>
<trkpt lat="-27.2733093" lon="151.2849821">
  <ele>376.74</ele>
  <time>2026-09-01T19:58:05Z</time>
  <course>165.98</course>
  <speed>26.0372079916415</speed>
  <fix>3d</fix>
</trkpt>
<trkpt lat="-27.2732413" lon="151.2849653">
  <ele>376.68</ele>
  <time>2026-09-01T19:58:05Z</time>
  <course>171.85</course>
  <speed>26.08</speed>
  <fix>3d</fix>
</trkpt>
<trkpt lat="-27.2733316" lon="151.2849901">
  <ele>376.74</ele>
  <time>2026-09-01T19:58:05Z</time>
  <course>163.21</course>
  <speed>26.027101260032783</speed>
  <fix>3d</fix>
</trkpt>
<trkpt lat="-27.2732873" lon="151.2849752">
  <ele>376.73</ele>
  <time>2026-09-01T19:58:05Z</time>
  <course>166.47</course>
  <speed>26.05</speed>
  <fix>3d</fix>
</trkpt>
<trkpt lat="-27.2733535" lon="151.2849992">
  <ele>376.72</ele>
  <time>2026-09-01T19:58:05Z</time>
  <course>160.39</course>
  <speed>26.023345288413633</speed>
  <fix>3d</fix>
</trkpt>
<trkpt lat="-27.2732873" lon="151.2849752">
  <ele>376.73</ele>
  <time>2026-09-01T19:58:05Z</time>
  <course>166.47</course>
  <speed>26.05</speed>
  <fix>3d</fix>
</trkpt>
<trkpt lat="-27.2733749" lon="151.2850095">
  <ele>376.7</ele>
  <time>2026-09-01T19:58:05Z</time>
  <course>157.56</course>
  <speed>26.020847411258533</speed>
  <fix>3d</fix>
</trkpt>
<trkpt lat="-27.2733322" lon="151.28499">
  <ele>376.74</ele>
  <time>2026-09-01T19:58:05Z</time>
  <course>160.99</course>
  <speed>26.02</speed>
  <fix>3d</fix>
</trkpt>
<trkpt lat="-27.2733959" lon="151.285021">
  <ele>376.67</ele>
  <time>2026-09-01T19:58:05Z</time>
  <course>154.73</course>
  <speed>26.017459522405332</speed>
  <fix>3d</fix>
</trkpt>
<trkpt lat="-27.2733322" lon="151.28499">
  <ele>376.74</ele>
  <time>2026-09-01T19:58:05Z</time>
  <course>160.99</course>
  <speed>26.02</speed>
  <fix>3d</fix>
</trkpt>
<trkpt lat="-27.2734162" lon="151.2850335">
  <ele>376.63</ele>
  <time>2026-09-01T19:58:05Z</time>
  <course>151.93</course>
  <speed>26.001184588399045</speed>
  <fix>3d</fix>
</trkpt>
<trkpt lat="-27.2733756" lon="151.2850095">
  <ele>376.7</ele>
  <time>2026-09-01T19:58:05Z</time>
  <course>155.43</course>
  <speed>26.01</speed>
  <fix>3d</fix>
</trkpt>
<trkpt lat="-27.2734361" lon="151.2850473">
  <ele>376.58</ele>
  <time>2026-09-01T19:58:05Z</time>
  <course>149.08</course>
  <speed>26.00562439165805</speed>
  <fix>3d</fix>
</trkpt>
<trkpt lat="-27.2733756" lon="151.2850095">
  <ele>376.7</ele>
  <time>2026-09-01T19:58:05Z</time>
  <course>155.43</course>
  <speed>26.01</speed>
  <fix>3d</fix>
</trkpt>
<trkpt lat="-27.2734553" lon="151.2850621">
  <ele>376.53</ele>
  <time>2026-09-01T19:58:05Z</time>
  <course>146.2</course>
  <speed>26.005295614547435</speed>
  <fix>3d</fix>
</trkpt>
<trkpt lat="-27.273417" lon="151.2850336">
  <ele>376.63</ele>
  <time>2026-09-01T19:58:05Z</time>
  <course>149.79</course>
  <speed>26.0</speed>
  <fix>3d</fix>
</trkpt>
<trkpt lat="-27.2734739" lon="151.285078">
  <ele>376.47</ele>
  <time>2026-09-01T19:58:05Z</time>
  <course>143.31</course>
  <speed>26.00303059260593</speed>
  <fix>3d</fix>
</trkpt>
<trkpt lat="-27.273417" lon="151.2850336">
  <ele>376.63</ele>
  <time>2026-09-01T19:58:05Z</time>
  <course>149.79</course>
  <speed>26.0</speed>
  <fix>3d</fix>
</trkpt>
<trkpt lat="-27.2734919" lon="151.2850951">
  <ele>376.41</ele>
  <time>2026-09-01T19:58:05Z</time>
  <course>140.41</course>
  <speed>26.007387412041215</speed>
  <fix>3d</fix>
</trkpt>
<trkpt lat="-27.2734563" lon="151.2850624">
  <ele>376.53</ele>
  <time>2026-09-01T19:58:05Z</time>
  <course>144.08</course>
  <speed>25.99</speed>
  <fix>3d</fix>
</trkpt>
<trkpt lat="-27.2735089" lon="151.285113">
  <ele>376.33</ele>
  <time>2026-09-01T19:58:05Z</time>
  <course>137.45</course>
  <speed>26.01488227918781</speed>
  <fix>3d</fix>
</trkpt>
<trkpt lat="-27.2734563" lon="151.2850624">
  <ele>376.53</ele>
  <time>2026-09-01T19:58:05Z</time>
  <course>144.08</course>
  <speed>25.99</speed>
  <fix>3d</fix>
</trkpt>
<trkpt lat="-27.2735253" lon="151.2851321">
  <ele>376.25</ele>
  <time>2026-09-01T19:58:05Z</time>
  <course>134.36</course>
  <speed>26.021683266076387</speed>
  <fix>3d</fix>
</trkpt>
<trkpt lat="-27.2734927" lon="151.2850953">
  <ele>376.41</ele>
  <time>2026-09-01T19:58:05Z</time>
  <course>138.31</course>
  <speed>26.0</speed>
  <fix>3d</fix>
</trkpt>
<trkpt lat="-27.2735405" lon="151.285152">
  <ele>376.17</ele>
  <time>2026-09-01T19:58:05Z</time>
  <course>131.35</course>
  <speed>26.03099882832005</speed>
  <fix>3d</fix>
</trkpt>
<trkpt lat="-27.2734927" lon="151.2850953">
  <ele>376.41</ele>
  <time>2026-09-01T19:58:05Z</time>
  <course>138.31</course>
  <speed>26.0</speed>
  <fix>3d</fix>
</trkpt>
<trkpt lat="-27.2735549" lon="151.2851727">
  <ele>376.09</ele>
  <time>2026-09-01T19:58:05Z</time>
  <course>128.33</course>
  <speed>26.039358671057936</speed>
  <fix>3d</fix>
</trkpt>
<trkpt lat="-27.2735259" lon="151.2851322">
  <ele>376.27</ele>
  <time>2026-09-01T19:58:05Z</time>
  <course>132.39</course>
  <speed>26.0</speed>
  <fix>3d</fix>
</trkpt>
<trkpt lat="-27.2735683" lon="151.2851943">
  <ele>376.01</ele>
  <time>2026-09-01T19:58:05Z</time>
  <course>125.28</course>
  <speed>26.043939794124853</speed>
  <fix>3d</fix>
</trkpt>
<trkpt lat="-27.2735259" lon="151.2851322">
  <ele>376.27</ele>
  <time>2026-09-01T19:58:05Z</time>
  <course>132.39</course>
  <speed>26.0</speed>
  <fix>3d</fix>
</trkpt>
<trkpt lat="-27.2735806" lon="151.2852166">
  <ele>375.92</ele>
  <time>2026-09-01T19:58:05Z</time>
  <course>122.3</course>
  <speed>26.054452594518274</speed>
  <fix>3d</fix>
</trkpt>
<trkpt lat="-27.2735555" lon="151.2851728">
  <ele>376.11</ele>
  <time>2026-09-01T19:58:05Z</time>
  <course>126.38</course>
  <speed>26.01</speed>
  <fix>3d</fix>
</trkpt>
<trkpt lat="-27.2735919" lon="151.2852396">
  <ele>375.83</ele>
  <time>2026-09-01T19:58:05Z</time>
  <course>119.29</course>
  <speed>26.060963144135712</speed>
  <fix>3d</fix>
</trkpt>
<trkpt lat="-27.2735555" lon="151.2851728">
  <ele>376.11</ele>
  <time>2026-09-01T19:58:05Z</time>
  <course>126.38</course>
  <speed>26.01</speed>
  <fix>3d</fix>
</trkpt>
<trkpt lat="-27.2736021" lon="151.2852632">
  <ele>375.74</ele>
  <time>2026-09-01T19:58:05Z</time>
  <course>116.21</course>
  <speed>26.067276420830773</speed>
  <fix>3d</fix>
</trkpt>
<trkpt lat="-27.2735812" lon="151.2852167">
  <ele>375.95</ele>
  <time>2026-09-01T19:58:05Z</time>
  <course>120.36</course>
  <speed>26.03</speed>
  <fix>3d</fix>
</trkpt>
<trkpt lat="-27.2736111" lon="151.2852875">
  <ele>375.65</ele>
  <time>2026-09-01T19:58:05Z</time>
  <course>113.25</course>
  <speed>26.06920788976911</speed>
  <fix>3d</fix>
</trkpt>
<trkpt lat="-27.2735812" lon="151.2852167">
  <ele>375.95</ele>
  <time>2026-09-01T19:58:05Z</time>
  <course>120.36</course>
  <speed>26.03</speed>
  <fix>3d</fix>
</trkpt>
<trkpt lat="-27.2736191" lon="151.2853122">
  <ele>375.56</ele>
  <time>2026-09-01T19:58:05Z</time>
  <course>110.3</course>
  <speed>26.07309916369744</speed>
  <fix>3d</fix>
</trkpt>
<trkpt lat="-27.2736027" lon="151.2852634">
  <ele>375.78</ele>
  <time>2026-09-01T19:58:05Z</time>
  <course>114.35</course>
  <speed>26.03</speed>
  <fix>3d</fix>
</trkpt>
<trkpt lat="-27.2736259" lon="151.2853373">
  <ele>375.47</ele>
  <time>2026-09-01T19:58:05Z</time>
  <course>107.39</course>
  <speed>26.067061591211235</speed>
  <fix>3d</fix>
</trkpt>
<trkpt lat="-27.2736027" lon="151.2852634">
  <ele>375.78</ele>
  <time>2026-09-01T19:58:05Z</time>
  <course>114.35</course>
  <speed>26.03</speed>
  <fix>3d</fix>
</trkpt>
<trkpt lat="-27.2736315" lon="151.2853628">
  <ele>375.38</ele>
  <time>2026-09-01T19:58:05Z</time>
  <course>104.47</course>
  <speed>26.054537032923847</speed>
  <fix>3d</fix>
</trkpt>
<trkpt lat="-27.2736197" lon="151.2853124">
  <ele>375.61</ele>
  <time>2026-09-01T19:58:05Z</time>
  <course>108.38</course>
  <speed>26.04</speed>
  <fix>3d</fix>
</trkpt>
<trkpt lat="-27.273636" lon="151.2853886">
  <ele>375.3</ele>
  <time>2026-09-01T19:58:05Z</time>
  <course>101.65</course>
  <speed>26.042446121668373</speed>
  <fix>3d</fix>
</trkpt>
<trkpt lat="-27.2736197" lon="151.2853124">
  <ele>375.61</ele>
  <time>2026-09-01T19:58:05Z</time>
  <course>108.38</course>
  <speed>26.04</speed>
  <fix>3d</fix>
</trkpt>
<trkpt lat="-27.2736393" lon="151.2854146">
  <ele>375.22</ele>
  <time>2026-09-01T19:58:05Z</time>
  <course>98.98</course>
  <speed>26.01587976601983</speed>
  <fix>3d</fix>
</trkpt>
<trkpt lat="-27.2736321" lon="151.285363">
  <ele>375.43</ele>
  <time>2026-09-01T19:58:05Z</time>
  <course>102.49</course>
  <speed>26.02</speed>
  <fix>3d</fix>
</trkpt>
<trkpt lat="-27.2736415" lon="151.2854407">
  <ele>375.13</ele>
  <time>2026-09-01T19:58:05Z</time>
  <course>96.41</course>
  <speed>25.994495571178142</speed>
  <fix>3d</fix>
</trkpt>
<trkpt lat="-27.2736321" lon="151.285363">
  <ele>375.43</ele>
  <time>2026-09-01T19:58:05Z</time>
  <course>102.49</course>
  <speed>26.02</speed>
  <fix>3d</fix>
</trkpt>
<trkpt lat="-27.2736427" lon="151.2854666">
  <ele>375.05</ele>
  <time>2026-09-01T19:58:05Z</time>
  <course>93.98</course>
  <speed>25.95917178956216</speed>
  <fix>3d</fix>
</trkpt>
<trkpt lat="-27.2736399" lon="151.2854148">
  <ele>375.27</ele>
  <time>2026-09-01T19:58:05Z</time>
  <course>96.84</course>
  <speed>25.99</speed>
  <fix>3d</fix>
</trkpt>
<trkpt lat="-27.2736429" lon="151.2854927">
  <ele>374.96</ele>
  <time>2026-09-01T19:58:05Z</time>
  <course>91.68</course>
  <speed>25.923086236017504</speed>
  <fix>3d</fix>
</trkpt>
<trkpt lat="-27.2736399" lon="151.2854148">
  <ele>375.27</ele>
  <time>2026-09-01T19:58:05Z</time>
  <course>96.84</course>
  <speed>25.99</speed>
  <fix>3d</fix>
</trkpt>
<trkpt lat="-27.2736422" lon="151.2855188">
  <ele>374.87</ele>
  <time>2026-09-01T19:58:05Z</time>
  <course>89.42</course>
  <speed>25.880092735537097</speed>
  <fix>3d</fix>
</trkpt>
<trkpt lat="-27.2736434" lon="151.2854672">
  <ele>375.1</ele>
  <time>2026-09-01T19:58:05Z</time>
  <course>91.65</course>
  <speed>25.93</speed>
  <fix>3d</fix>
</trkpt>
<trkpt lat="-27.2736406" lon="151.2855448">
  <ele>374.78</ele>
  <time>2026-09-01T19:58:05Z</time>
  <course>87.32</course>
  <speed>25.823642268278114</speed>
  <fix>3d</fix>
</trkpt>
<trkpt lat="-27.2736434" lon="151.2854672">
  <ele>375.1</ele>
  <time>2026-09-01T19:58:05Z</time>
  <course>91.65</course>
  <speed>25.93</speed>
  <fix>3d</fix>
</trkpt>
<trkpt lat="-27.2736381" lon="151.2855707">
  <ele>374.69</ele>
  <time>2026-09-01T19:58:05Z</time>
  <course>85.42</course>
  <speed>25.774716293297974</speed>
  <fix>3d</fix>
</trkpt>
<trkpt lat="-27.2736428" lon="151.2855197">
  <ele>374.93</ele>
  <time>2026-09-01T19:58:05Z</time>
  <course>86.9</course>
  <speed>25.86</speed>
  <fix>3d</fix>
</trkpt>
<trkpt lat="-27.2736347" lon="151.2855966">
  <ele>374.58</ele>
  <time>2026-09-01T19:58:05Z</time>
  <course>83.63</course>
  <speed>25.71705465250638</speed>
  <fix>3d</fix>
</trkpt>
<trkpt lat="-27.2736428" lon="151.2855197">
  <ele>374.93</ele>
  <time>2026-09-01T19:58:05Z</time>
  <course>86.9</course>
  <speed>25.86</speed>
  <fix>3d</fix>
</trkpt>
<trkpt lat="-27.2736307" lon="151.2856221">
  <ele>374.47</ele>
  <time>2026-09-01T19:58:05Z</time>
  <course>81.99</course>
  <speed>25.662153066334866</speed>
  <fix>3d</fix>
</trkpt>
<trkpt lat="-27.2736386" lon="151.2855717">
  <ele>374.74</ele>
  <time>2026-09-01T19:58:05Z</time>
  <course>82.67</course>
  <speed>25.76</speed>
  <fix>3d</fix>
</trkpt>
<trkpt lat="-27.2736261" lon="151.2856475">
  <ele>374.35</ele>
  <time>2026-09-01T19:58:05Z</time>
  <course>80.46</course>
  <speed>25.595640253761967</speed>
  <fix>3d</fix>
</trkpt>
<trkpt lat="-27.2736386" lon="151.2855717">
  <ele>374.74</ele>
  <time>2026-09-01T19:58:05Z</time>
  <course>82.67</course>
  <speed>25.76</speed>
  <fix>3d</fix>
</trkpt>
<trkpt lat="-27.2736207" lon="151.2856734">
  <ele>374.21</ele>
  <time>2026-09-01T19:58:05Z</time>
  <course>78.93</course>
  <speed>25.541452582028295</speed>
  <fix>3d</fix>
</trkpt>
<trkpt lat="-27.2736311" lon="151.2856229">
  <ele>374.53</ele>
  <time>2026-09-01T19:58:05Z</time>
  <course>79.05</course>
  <speed>25.66</speed>
  <fix>3d</fix>
</trkpt>
<trkpt lat="-27.2736149" lon="151.2856981">
  <ele>374.06</ele>
  <time>2026-09-01T19:58:05Z</time>
  <course>77.54</course>
  <speed>25.477021018949603</speed>
  <fix>3d</fix>
</trkpt>
<trkpt lat="-27.2736311" lon="151.2856229">
  <ele>374.53</ele>
  <time>2026-09-01T19:58:05Z</time>
  <course>79.05</course>
  <speed>25.66</speed>
  <fix>3d</fix>
</trkpt>
<trkpt lat="-27.2736086" lon="151.2857228">
  <ele>373.9</ele>
  <time>2026-09-01T19:58:05Z</time>
  <course>76.27</course>
  <speed>25.422651317280028</speed>
  <fix>3d</fix>
</trkpt>
<trkpt lat="-27.2736212" lon="151.2856734">
  <ele>374.28</ele>
  <time>2026-09-01T19:58:05Z</time>
  <course>75.94</course>
  <speed>25.54</speed>
  <fix>3d</fix>
</trkpt>
<trkpt lat="-27.2736018" lon="151.2857473">
  <ele>373.73</ele>
  <time>2026-09-01T19:58:05Z</time>
  <course>75.04</course>
  <speed>25.375027093581593</speed>
  <fix>3d</fix>
</trkpt>
<trkpt lat="-27.2736212" lon="151.2856734">
  <ele>374.28</ele>
  <time>2026-09-01T19:58:05Z</time>
  <course>75.94</course>
  <speed>25.54</speed>
  <fix>3d</fix>
</trkpt>
<trkpt lat="-27.2735947" lon="151.2857716">
  <ele>373.54</ele>
  <time>2026-09-01T19:58:05Z</time>
  <course>73.82</course>
  <speed>25.33144291192272</speed>
  <fix>3d</fix>
</trkpt>
<trkpt lat="-27.2736091" lon="151.285723">
  <ele>373.97</ele>
  <time>2026-09-01T19:58:05Z</time>
  <course>73.25</course>
  <speed>25.43</speed>
  <fix>3d</fix>
</trkpt>
<trkpt lat="-27.273587" lon="151.2857959">
  <ele>373.35</ele>
  <time>2026-09-01T19:58:05Z</time>
  <course>72.63</course>
  <speed>25.29082837710145</speed>
  <fix>3d</fix>
</trkpt>
<trkpt lat="-27.2736091" lon="151.285723">
  <ele>373.97</ele>
  <time>2026-09-01T19:58:05Z</time>
  <course>73.25</course>
  <speed>25.43</speed>
  <fix>3d</fix>
</trkpt>
<trkpt lat="-27.2735792" lon="151.2858192">
  <ele>373.14</ele>
  <time>2026-09-01T19:58:05Z</time>
  <course>71.57</course>
  <speed>25.263570610663887</speed>
  <fix>3d</fix>
</trkpt>
<trkpt lat="-27.273595" lon="151.2857718">
  <ele>373.62</ele>
  <time>2026-09-01T19:58:05Z</time>
  <course>70.91</course>
  <speed>25.34</speed>
  <fix>3d</fix>
</trkpt>
<trkpt lat="-27.2735709" lon="151.2858429">
  <ele>372.93</ele>
  <time>2026-09-01T19:58:05Z</time>
  <course>70.53</course>
  <speed>25.23637057898778</speed>
  <fix>3d</fix>
</trkpt>
<trkpt lat="-27.273595" lon="151.2857718">
  <ele>373.62</ele>
  <time>2026-09-01T19:58:05Z</time>
  <course>70.91</course>
  <speed>25.34</speed>
  <fix>3d</fix>
</trkpt>
<trkpt lat="-27.2735622" lon="151.2858665">
  <ele>372.7</ele>
  <time>2026-09-01T19:58:05Z</time>
  <course>69.51</course>
  <speed>25.221439292792155</speed>
  <fix>3d</fix>
</trkpt>
<trkpt lat="-27.2735793" lon="151.2858198">
  <ele>373.22</ele>
  <time>2026-09-01T19:58:05Z</time>
  <course>68.81</course>
  <speed>25.27</speed>
  <fix>3d</fix>
</trkpt>
<trkpt lat="-27.2735532" lon="151.2858898">
  <ele>372.47</ele>
  <time>2026-09-01T19:58:05Z</time>
  <course>68.49</course>
  <speed>25.204959829366917</speed>
  <fix>3d</fix>
</trkpt>
<trkpt lat="-27.2735793" lon="151.2858198">
  <ele>373.22</ele>
  <time>2026-09-01T19:58:05Z</time>
  <course>68.81</course>
  <speed>25.27</speed>
  <fix>3d</fix>
</trkpt>
<trkpt lat="-27.273544" lon="151.2859129">
  <ele>372.24</ele>
  <time>2026-09-01T19:58:05Z</time>
  <course>67.49</course>
  <speed>25.199365071366383</speed>
  <fix>3d</fix>
</trkpt>
<trkpt lat="-27.2735622" lon="151.2858671">
  <ele>372.78</ele>
  <time>2026-09-01T19:58:05Z</time>
  <course>66.9</course>
  <speed>25.23</speed>
  <fix>3d</fix>
</trkpt>
<trkpt lat="-27.2735344" lon="151.2859358">
  <ele>372.01</ele>
  <time>2026-09-01T19:58:05Z</time>
  <course>66.5</course>
  <speed>25.19974801461316</speed>
  <fix>3d</fix>
</trkpt>
<trkpt lat="-27.2735622" lon="151.2858671">
  <ele>372.78</ele>
  <time>2026-09-01T19:58:05Z</time>
  <course>66.9</course>
  <speed>25.23</speed>
  <fix>3d</fix>
</trkpt>
<trkpt lat="-27.2735246" lon="151.2859586">
  <ele>371.78</ele>
  <time>2026-09-01T19:58:05Z</time>
  <course>65.65</course>
  <speed>25.205168120843787</speed>
  <fix>3d</fix>
</trkpt>
<trkpt lat="-27.2735438" lon="151.2859137">
  <ele>372.33</ele>
  <time>2026-09-01T19:58:05Z</time>
  <course>65.16</course>
  <speed>25.22</speed>
  <fix>3d</fix>
</trkpt>
<trkpt lat="-27.2735146" lon="151.285981">
  <ele>371.56</ele>
  <time>2026-09-01T19:58:05Z</time>
  <course>64.88</course>
  <speed>25.21928825323982</speed>
  <fix>3d</fix>
</trkpt>
<trkpt lat="-27.2735438" lon="151.2859137">
  <ele>372.33</ele>
  <time>2026-09-01T19:58:05Z</time>
  <course>65.16</course>
  <speed>25.22</speed>
  <fix>3d</fix>
</trkpt>
<trkpt lat="-27.2735042" lon="151.2860035">
  <ele>371.35</ele>
  <time>2026-09-01T19:58:05Z</time>
  <course>64.04</course>
  <speed>25.228089503567247</speed>
  <fix>3d</fix>
</trkpt>
<trkpt lat="-27.2735242" lon="151.2859597">
  <ele>371.87</ele>
  <time>2026-09-01T19:58:05Z</time>
  <course>63.58</course>
  <speed>25.24</speed>
  <fix>3d</fix>
</trkpt>
<trkpt lat="-27.2734936" lon="151.2860259">
  <ele>371.14</ele>
  <time>2026-09-01T19:58:05Z</time>
  <course>63.26</course>
  <speed>25.244486526764614</speed>
  <fix>3d</fix>
</trkpt>
<trkpt lat="-27.2735242" lon="151.2859597">
  <ele>371.87</ele>
  <time>2026-09-01T19:58:05Z</time>
  <course>63.58</course>
  <speed>25.24</speed>
  <fix>3d</fix>
</trkpt>
<trkpt lat="-27.2734828" lon="151.2860481">
  <ele>370.95</ele>
  <time>2026-09-01T19:58:05Z</time>
  <course>62.51</course>
  <speed>25.27191524202311</speed>
  <fix>3d</fix>
</trkpt>
<trkpt lat="-27.2735034" lon="151.2860051">
  <ele>371.43</ele>
  <time>2026-09-01T19:58:05Z</time>
  <course>62.16</course>
  <speed>25.28</speed>
  <fix>3d</fix>
</trkpt>
<trkpt lat="-27.2734717" lon="151.2860705">
  <ele>370.77</ele>
  <time>2026-09-01T19:58:05Z</time>
  <course>61.88</course>
  <speed>25.30083002591022</speed>
  <fix>3d</fix>
</trkpt>
<trkpt lat="-27.2735034" lon="151.2860051">
  <ele>371.43</ele>
  <time>2026-09-01T19:58:05Z</time>
  <course>62.16</course>
  <speed>25.28</speed>
  <fix>3d</fix>
</trkpt>
<trkpt lat="-27.2734604" lon="151.2860926">
  <ele>370.59</ele>
  <time>2026-09-01T19:58:05Z</time>
  <course>61.3</course>
  <speed>25.321937129690532</speed>
  <fix>3d</fix>
</trkpt>
<trkpt lat="-27.2734818" lon="151.2860501">
  <ele>371.03</ele>
  <time>2026-09-01T19:58:05Z</time>
  <course>60.93</course>
  <speed>25.33</speed>
  <fix>3d</fix>
</trkpt>
<trkpt lat="-27.273449" lon="151.2861147">
  <ele>370.43</ele>
  <time>2026-09-01T19:58:05Z</time>
  <course>60.77</course>
  <speed>25.343403480984946</speed>
  <fix>3d</fix>
</trkpt>
<trkpt lat="-27.2734818" lon="151.2860501">
  <ele>371.03</ele>
  <time>2026-09-01T19:58:05Z</time>
  <course>60.93</course>
  <speed>25.33</speed>
  <fix>3d</fix>
</trkpt>
<trkpt lat="-27.2734371" lon="151.2861374">
  <ele>370.28</ele>
  <time>2026-09-01T19:58:05Z</time>
  <course>60.29</course>
  <speed>25.369834449597814</speed>
  <fix>3d</fix>
</trkpt>
<trkpt lat="-27.2734592" lon="151.2860948">
  <ele>370.67</ele>
  <time>2026-09-01T19:58:05Z</time>
  <course>59.9</course>
  <speed>25.39</speed>
  <fix>3d</fix>
</trkpt>
<trkpt lat="-27.2734253" lon="151.2861593">
  <ele>370.15</ele>
  <time>2026-09-01T19:58:05Z</time>
  <course>59.84</course>
  <speed>25.390567146087932</speed>
  <fix>3d</fix>
</trkpt>
<trkpt lat="-27.2734592" lon="151.2860948">
  <ele>370.67</ele>
  <time>2026-09-01T19:58:05Z</time>
  <course>59.9</course>
  <speed>25.39</speed>
  <fix>3d</fix>
</trkpt>
<trkpt lat="-27.2734136" lon="151.286181">
  <ele>370.03</ele>
  <time>2026-09-01T19:58:05Z</time>
  <course>59.44</course>
  <speed>25.406967548292734</speed>
  <fix>3d</fix>
</trkpt>
<trkpt lat="-27.273436" lon="151.286139">
  <ele>370.37</ele>
  <time>2026-09-01T19:58:05Z</time>
  <course>59.06</course>
  <speed>25.45</speed>
  <fix>3d</fix>
</trkpt>
<trkpt lat="-27.2734016" lon="151.2862028">
  <ele>369.94</ele>
  <time>2026-09-01T19:58:05Z</time>
  <course>59.1</course>
  <speed>25.42212028922843</speed>
  <fix>3d</fix>
</trkpt>
<trkpt lat="-27.273436" lon="151.286139">
  <ele>370.37</ele>
  <time>2026-09-01T19:58:05Z</time>
  <course>59.06</course>
  <speed>25.45</speed>
  <fix>3d</fix>
</trkpt>
<trkpt lat="-27.2733895" lon="151.2862246">
  <ele>369.85</ele>
  <time>2026-09-01T19:58:05Z</time>
  <course>58.86</course>
  <speed>25.444189906538586</speed>
  <fix>3d</fix>
</trkpt>
<trkpt lat="-27.2734122" lon="151.286183">
  <ele>370.13</ele>
  <time>2026-09-01T19:58:05Z</time>
  <course>58.38</course>
  <speed>25.5</speed>
  <fix>3d</fix>
</trkpt>
<trkpt lat="-27.2733773" lon="151.2862464">
  <ele>369.77</ele>
  <time>2026-09-01T19:58:05Z</time>
  <course>58.76</course>
  <speed>25.450620817575356</speed>
  <fix>3d</fix>
</trkpt>
<trkpt lat="-27.2734122" lon="151.286183">
  <ele>370.13</ele>
  <time>2026-09-01T19:58:05Z</time>
  <course>58.38</course>
  <speed>25.5</speed>
  <fix>3d</fix>
</trkpt>
<trkpt lat="-27.273365" lon="151.2862684">
  <ele>369.71</ele>
  <time>2026-09-01T19:58:05Z</time>
  <course>58.72</course>
  <speed>25.46659380443329</speed>
  <fix>3d</fix>
</trkpt>
<trkpt lat="-27.2733881" lon="151.2862268">
  <ele>369.95</ele>
  <time>2026-09-01T19:58:05Z</time>
  <course>57.9</course>
  <speed>25.53</speed>
  <fix>3d</fix>
</trkpt>
<trkpt lat="-27.2733528" lon="151.2862901">
  <ele>369.66</ele>
  <time>2026-09-01T19:58:05Z</time>
  <course>58.74</course>
  <speed>25.469731054724548</speed>
  <fix>3d</fix>
</trkpt>
<trkpt lat="-27.2733881" lon="151.2862268">
  <ele>369.95</ele>
  <time>2026-09-01T19:58:05Z</time>
  <course>57.9</course>
  <speed>25.53</speed>
  <fix>3d</fix>
</trkpt>
<trkpt lat="-27.2733406" lon="151.286312">
  <ele>369.61</ele>
  <time>2026-09-01T19:58:05Z</time>
  <course>58.71</course>
  <speed>25.48552922738706</speed>
  <fix>3d</fix>
</trkpt>
<trkpt lat="-27.2733636" lon="151.2862705">
  <ele>369.81</ele>
  <time>2026-09-01T19:58:05Z</time>
  <course>57.7</course>
  <speed>25.56</speed>
  <fix>3d</fix>
</trkpt>
<trkpt lat="-27.2733285" lon="151.2863338">
  <ele>369.58</ele>
  <time>2026-09-01T19:58:05Z</time>
  <course>58.68</course>
  <speed>25.48892504598811</speed>
  <fix>3d</fix>
</trkpt>
<trkpt lat="-27.2733636" lon="151.2862705">
  <ele>369.81</ele>
  <time>2026-09-01T19:58:05Z</time>
  <course>57.7</course>
  <speed>25.56</speed>
  <fix>3d</fix>
</trkpt>
<trkpt lat="-27.2733165" lon="151.2863558">
  <ele>369.56</ele>
  <time>2026-09-01T19:58:05Z</time>
  <course>58.79</course>
  <speed>25.494165999302663</speed>
  <fix>3d</fix>
</trkpt>
<trkpt lat="-27.2733391" lon="151.2863142">
  <ele>369.72</ele>
  <time>2026-09-01T19:58:05Z</time>
  <course>57.87</course>
  <speed>25.58</speed>
  <fix>3d</fix>
</trkpt>
<trkpt lat="-27.2733045" lon="151.2863778">
  <ele>369.54</ele>
  <time>2026-09-01T19:58:05Z</time>
  <course>59.0</course>
  <speed>25.50527788517506</speed>
  <fix>3d</fix>
</trkpt>
<trkpt lat="-27.2733391" lon="151.2863142">
  <ele>369.72</ele>
  <time>2026-09-01T19:58:05Z</time>
  <course>57.87</course>
  <speed>25.58</speed>
  <fix>3d</fix>
</trkpt>
<trkpt lat="-27.2732928" lon="151.2864">
  <ele>369.53</ele>
  <time>2026-09-01T19:58:05Z</time>
  <course>59.24</course>
  <speed>25.511230860152555</speed>
  <fix>3d</fix>
</trkpt>
<trkpt lat="-27.2733148" lon="151.2863581">
  <ele>369.66</ele>
  <time>2026-09-01T19:58:05Z</time>
  <course>58.43</course>
  <speed>25.6</speed>
  <fix>3d</fix>
</trkpt>
<trkpt lat="-27.2732815" lon="151.2864217">
  <ele>369.52</ele>
  <time>2026-09-01T19:58:05Z</time>
  <course>59.61</course>
  <speed>25.50916697973495</speed>
  <fix>3d</fix>
</trkpt>
<trkpt lat="-27.2733148" lon="151.2863581">
  <ele>369.66</ele>
  <time>2026-09-01T19:58:05Z</time>
  <course>58.43</course>
  <speed>25.6</speed>
  <fix>3d</fix>
</trkpt>
<trkpt lat="-27.2732702" lon="151.286444">
  <ele>369.53</ele>
  <time>2026-09-01T19:58:05Z</time>
  <course>60.1</course>
  <speed>25.515928358576335</speed>
  <fix>3d</fix>
</trkpt>
<trkpt lat="-27.2732911" lon="151.2864024">
  <ele>369.63</ele>
  <time>2026-09-01T19:58:05Z</time>
  <course>59.34</course>
  <speed>25.61</speed>
  <fix>3d</fix>
</trkpt>
<trkpt lat="-27.273259" lon="151.2864665">
  <ele>369.54</ele>
  <time>2026-09-01T19:58:05Z</time>
  <course>60.63</course>
  <speed>25.520427112413305</speed>
  <fix>3d</fix>
</trkpt>
<trkpt lat="-27.2732911" lon="151.2864024">
  <ele>369.63</ele>
  <time>2026-09-01T19:58:05Z</time>
  <course>59.34</course>
  <speed>25.61</speed>
  <fix>3d</fix>
</trkpt>
<trkpt lat="-27.2732481" lon="151.2864893">
  <ele>369.56</ele>
  <time>2026-09-01T19:58:05Z</time>
  <course>61.25</course>
  <speed>25.528503677262403</speed>
  <fix>3d</fix>
</trkpt>
<trkpt lat="-27.273268" lon="151.2864472">
  <ele>369.64</ele>
  <time>2026-09-01T19:58:05Z</time>
  <course>60.56</course>
  <speed>25.62</speed>
  <fix>3d</fix>
</trkpt>
<trkpt lat="-27.2732375" lon="151.2865123">
  <ele>369.58</ele>
  <time>2026-09-01T19:58:05Z</time>
  <course>61.97</course>
  <speed>25.52761054231281</speed>
  <fix>3d</fix>
</trkpt>
<trkpt lat="-27.273268" lon="151.2864472">
  <ele>369.64</ele>
  <time>2026-09-01T19:58:05Z</time>
  <course>60.56</course>
  <speed>25.62</speed>
  <fix>3d</fix>
</trkpt>
<trkpt lat="-27.273227" lon="151.2865356">
  <ele>369.61</ele>
  <time>2026-09-01T19:58:05Z</time>
  <course>62.72</course>
  <speed>25.53228936072909</speed>
  <fix>3d</fix>
</trkpt>
<trkpt lat="-27.2732459" lon="151.2864927">
  <ele>369.67</ele>
  <time>2026-09-01T19:58:05Z</time>
  <course>62.06</course>
  <speed>25.62</speed>
  <fix>3d</fix>
</trkpt>
<trkpt lat="-27.273217" lon="151.286559">
  <ele>369.65</ele>
  <time>2026-09-01T19:58:05Z</time>
  <course>63.65</course>
  <speed>25.543570619629513</speed>
  <fix>3d</fix>
</trkpt>
<trkpt lat="-27.2732459" lon="151.2864927">
  <ele>369.67</ele>
  <time>2026-09-01T19:58:05Z</time>
  <course>62.06</course>
  <speed>25.62</speed>
  <fix>3d</fix>
</trkpt>
<trkpt lat="-27.2732073" lon="151.2865826">
  <ele>369.69</ele>
  <time>2026-09-01T19:58:05Z</time>
  <course>64.51</course>
  <speed>25.55341464462235</speed>
  <fix>3d</fix>
</trkpt>
<trkpt lat="-27.2732249" lon="151.2865389">
  <ele>369.73</ele>
  <time>2026-09-01T19:58:05Z</time>
  <course>63.76</course>
  <speed>25.63</speed>
  <fix>3d</fix>
</trkpt>
<trkpt lat="-27.2731977" lon="151.2866071">
  <ele>369.74</ele>
  <time>2026-09-01T19:58:05Z</time>
  <course>65.4</course>
  <speed>25.558804745136264</speed>
  <fix>3d</fix>
</trkpt>
<trkpt lat="-27.2732249" lon="151.2865389">
  <ele>369.73</ele>
  <time>2026-09-01T19:58:05Z</time>
  <course>63.76</course>
  <speed>25.63</speed>
  <fix>3d</fix>
</trkpt>
<trkpt lat="-27.2731887" lon="151.2866308">
  <ele>369.79</ele>
  <time>2026-09-01T19:58:05Z</time>
  <course>66.41</course>
  <speed>25.56324118729861</speed>
  <fix>3d</fix>
</trkpt>
<trkpt lat="-27.2732052" lon="151.2865858">
  <ele>369.82</ele>
  <time>2026-09-01T19:58:05Z</time>
  <course>65.65</course>
  <speed>25.63</speed>
  <fix>3d</fix>
</trkpt>
<trkpt lat="-27.2731802" lon="151.286655">
  <ele>369.84</ele>
  <time>2026-09-01T19:58:05Z</time>
  <course>67.42</course>
  <speed>25.565054273363085</speed>
  <fix>3d</fix>
</trkpt>
<trkpt lat="-27.2732052" lon="151.2865858">
  <ele>369.82</ele>
  <time>2026-09-01T19:58:05Z</time>
  <course>65.65</course>
  <speed>25.63</speed>
  <fix>3d</fix>
</trkpt>
<trkpt lat="-27.273172" lon="151.2866793">
  <ele>369.91</ele>
  <time>2026-09-01T19:58:05Z</time>
  <course>68.39</course>
  <speed>25.56665406344757</speed>
  <fix>3d</fix>
</trkpt>
<trkpt lat="-27.2731869" lon="151.2866333">
  <ele>369.92</ele>
  <time>2026-09-01T19:58:05Z</time>
  <course>67.7</course>
  <speed>25.63</speed>
  <fix>3d</fix>
</trkpt>
<trkpt lat="-27.2731642" lon="151.2867038">
  <ele>369.97</ele>
  <time>2026-09-01T19:58:05Z</time>
  <course>69.34</course>
  <speed>25.564604436603357</speed>
  <fix>3d</fix>
</trkpt>
<trkpt lat="-27.2731869" lon="151.2866333">
  <ele>369.92</ele>
  <time>2026-09-01T19:58:05Z</time>
  <course>67.7</course>
  <speed>25.63</speed>
  <fix>3d</fix>
</trkpt>
<trkpt lat="-27.2731569" lon="151.2867284">
  <ele>370.04</ele>
  <time>2026-09-01T19:58:05Z</time>
  <course>70.38</course>
  <speed>25.565367198614613</speed>
  <fix>3d</fix>
</trkpt>
<trkpt lat="-27.2731703" lon="151.2866816">
  <ele>370.04</ele>
  <time>2026-09-01T19:58:05Z</time>
  <course>69.85</course>
  <speed>25.63</speed>
  <fix>3d</fix>
</trkpt>
<trkpt lat="-27.2731499" lon="151.2867534">
  <ele>370.12</ele>
  <time>2026-09-01T19:58:05Z</time>
  <course>71.51</course>
  <speed>25.569172845440267</speed>
  <fix>3d</fix>
</trkpt>
<trkpt lat="-27.2731703" lon="151.2866816">
  <ele>370.04</ele>
  <time>2026-09-01T19:58:05Z</time>
  <course>69.85</course>
  <speed>25.63</speed>
  <fix>3d</fix>
</trkpt>
<trkpt lat="-27.2731434" lon="151.2867783">
  <ele>370.19</ele>
  <time>2026-09-01T19:58:05Z</time>
  <course>72.67</course>
  <speed>25.5632314076292</speed>
  <fix>3d</fix>
</trkpt>
<trkpt lat="-27.2731553" lon="151.2867306">
  <ele>370.18</ele>
  <time>2026-09-01T19:58:05Z</time>
  <course>72.03</course>
  <speed>25.62</speed>
  <fix>3d</fix>
</trkpt>
<trkpt lat="-27.2731373" lon="151.2868033">
  <ele>370.27</ele>
  <time>2026-09-01T19:58:05Z</time>
  <course>73.8</course>
  <speed>25.56158445793218</speed>
  <fix>3d</fix>
</trkpt>
<trkpt lat="-27.2731553" lon="151.2867306">
  <ele>370.18</ele>
  <time>2026-09-01T19:58:05Z</time>
  <course>72.03</course>
  <speed>25.62</speed>
  <fix>3d</fix>
</trkpt>
<trkpt lat="-27.2731316" lon="151.2868285">
  <ele>370.35</ele>
  <time>2026-09-01T19:58:05Z</time>
  <course>74.88</course>
  <speed>25.56257029330188</speed>
  <fix>3d</fix>
</trkpt>
<trkpt lat="-27.2731419" lon="151.2867801">
  <ele>370.34</ele>
  <time>2026-09-01T19:58:05Z</time>
  <course>74.25</course>
  <speed>25.61</speed>
  <fix>3d</fix>
</trkpt>
<trkpt lat="-27.2731264" lon="151.2868537">
  <ele>370.42</ele>
  <time>2026-09-01T19:58:05Z</time>
  <course>75.98</course>
  <speed>25.56123627683137</speed>
  <fix>3d</fix>
</trkpt>
<trkpt lat="-27.2731419" lon="151.2867801">
  <ele>370.34</ele>
  <time>2026-09-01T19:58:05Z</time>
  <course>74.25</course>
  <speed>25.61</speed>
  <fix>3d</fix>
</trkpt>
<trkpt lat="-27.2731217" lon="151.2868791">
  <ele>370.5</ele>
  <time>2026-09-01T19:58:05Z</time>
  <course>77.14</course>
  <speed>25.55014285674348</speed>
  <fix>3d</fix>
</trkpt>
<trkpt lat="-27.2731303" lon="151.2868302">
  <ele>370.49</ele>
  <time>2026-09-01T19:58:05Z</time>
  <course>76.49</course>
  <speed>25.6</speed>
  <fix>3d</fix>
</trkpt>
<trkpt lat="-27.2731174" lon="151.2869046">
  <ele>370.57</ele>
  <time>2026-09-01T19:58:05Z</time>
  <course>78.22</course>
  <speed>25.54702526714216</speed>
  <fix>3d</fix>
</trkpt>
<trkpt lat="-27.2731303" lon="151.2868302">
  <ele>370.49</ele>
  <time>2026-09-01T19:58:05Z</time>
  <course>76.49</course>
  <speed>25.6</speed>
  <fix>3d</fix>
</trkpt>
<trkpt lat="-27.2731135" lon="151.2869301">
  <ele>370.65</ele>
  <time>2026-09-01T19:58:05Z</time>
  <course>79.25</course>
  <speed>25.53733345515933</speed>
  <fix>3d</fix>
</trkpt>
<trkpt lat="-27.2731205" lon="151.2868807">
  <ele>370.65</ele>
  <time>2026-09-01T19:58:05Z</time>
  <course>78.76</course>
  <speed>25.59</speed>
  <fix>3d</fix>
</trkpt>
<trkpt lat="-27.2731101" lon="151.2869557">
  <ele>370.73</ele>
  <time>2026-09-01T19:58:05Z</time>
  <course>80.37</course>
  <speed>25.53549686221124</speed>
  <fix>3d</fix>
</trkpt>
<trkpt lat="-27.2731205" lon="151.2868807">
  <ele>370.65</ele>
  <time>2026-09-01T19:58:05Z</time>
  <course>78.76</course>
  <speed>25.59</speed>
  <fix>3d</fix>
</trkpt>
<trkpt lat="-27.2731071" lon="151.2869814">
  <ele>370.8</ele>
  <time>2026-09-01T19:58:05Z</time>
  <course>81.5</course>
  <speed>25.523389273370416</speed>
  <fix>3d</fix>
</trkpt>
<trkpt lat="-27.2731124" lon="151.2869316">
  <ele>370.8</ele>
  <time>2026-09-01T19:58:05Z</time>
  <course>81.01</course>
  <speed>25.57</speed>
  <fix>3d</fix>
</trkpt>
<trkpt lat="-27.2731046" lon="151.2870071">
  <ele>370.88</ele>
  <time>2026-09-01T19:58:05Z</time>
  <course>82.56</course>
  <speed>25.51083103311219</speed>
  <fix>3d</fix>
</trkpt>
<trkpt lat="-27.2731124" lon="151.2869316">
  <ele>370.8</ele>
  <time>2026-09-01T19:58:05Z</time>
  <course>81.01</course>
  <speed>25.57</speed>
  <fix>3d</fix>
</trkpt>
<trkpt lat="-27.2731024" lon="151.2870328">
  <ele>370.96</ele>
  <time>2026-09-01T19:58:05Z</time>
  <course>83.59</course>
  <speed>25.51089571144063</speed>
  <fix>3d</fix>
</trkpt>
<trkpt lat="-27.2731061" lon="151.2869827">
  <ele>370.96</ele>
  <time>2026-09-01T19:58:05Z</time>
  <course>83.22</course>
  <speed>25.55</speed>
  <fix>3d</fix>
</trkpt>
<trkpt lat="-27.2731008" lon="151.2870585">
  <ele>371.03</ele>
  <time>2026-09-01T19:58:05Z</time>
  <course>84.64</course>
  <speed>25.49838034071968</speed>
  <fix>3d</fix>
</trkpt>
<trkpt lat="-27.2731061" lon="151.2869827">
  <ele>370.96</ele>
  <time>2026-09-01T19:58:05Z</time>
  <course>83.22</course>
  <speed>25.55</speed>
  <fix>3d</fix>
</trkpt>
<trkpt lat="-27.2730995" lon="151.2870843">
  <ele>371.1</ele>
  <time>2026-09-01T19:58:05Z</time>
  <course>85.67</course>
  <speed>25.48462281455231</speed>
  <fix>3d</fix>
</trkpt>
<trkpt lat="-27.2731015" lon="151.2870342">
  <ele>371.11</ele>
  <time>2026-09-01T19:58:05Z</time>
  <course>85.37</course>
  <speed>25.53</speed>
  <fix>3d</fix>
</trkpt>
<trkpt lat="-27.2730986" lon="151.2871095">
  <ele>371.16</ele>
  <time>2026-09-01T19:58:05Z</time>
  <course>86.69</course>
  <speed>25.469348244507554</speed>
  <fix>3d</fix>
</trkpt>
<trkpt lat="-27.2731015" lon="151.2870342">
  <ele>371.11</ele>
  <time>2026-09-01T19:58:05Z</time>
  <course>85.37</course>
  <speed>25.53</speed>
  <fix>3d</fix>
</trkpt>
<trkpt lat="-27.2730981" lon="151.2871361">
  <ele>371.22</ele>
  <time>2026-09-01T19:58:05Z</time>
  <course>87.69</course>
  <speed>25.461038863329986</speed>
  <fix>3d</fix>
</trkpt>
<trkpt lat="-27.2730987" lon="151.2870858">
  <ele>371.24</ele>
  <time>2026-09-01T19:58:05Z</time>
  <course>87.42</course>
  <speed>25.51</speed>
  <fix>3d</fix>
</trkpt>
<trkpt lat="-27.273098" lon="151.2871617">
  <ele>371.28</ele>
  <time>2026-09-01T19:58:05Z</time>
  <course>88.64</course>
  <speed>25.45070922390966</speed>
  <fix>3d</fix>
</trkpt>
<trkpt lat="-27.2730987" lon="151.2870858">
  <ele>371.24</ele>
  <time>2026-09-01T19:58:05Z</time>
  <course>87.42</course>
  <speed>25.51</speed>
  <fix>3d</fix>
</trkpt>
<trkpt lat="-27.2730983" lon="151.2871874">
  <ele>371.33</ele>
  <time>2026-09-01T19:58:05Z</time>
  <course>89.51</course>
  <speed>25.437077269214715</speed>
  <fix>3d</fix>
</trkpt>
<trkpt lat="-27.2730974" lon="151.2871373">
  <ele>371.36</ele>
  <time>2026-09-01T19:58:05Z</time>
  <course>89.42</course>
  <speed>25.49</speed>
  <fix>3d</fix>
</trkpt>
<trkpt lat="-27.2730989" lon="151.2872131">
  <ele>371.38</ele>
  <time>2026-09-01T19:58:05Z</time>
  <course>90.49</course>
  <speed>25.429669679333234</speed>
  <fix>3d</fix>
</trkpt>
<trkpt lat="-27.2730974" lon="151.2871373">
  <ele>371.36</ele>
  <time>2026-09-01T19:58:05Z</time>
  <course>89.42</course>
  <speed>25.49</speed>
  <fix>3d</fix>
</trkpt>
<trkpt lat="-27.2730999" lon="151.2872388">
  <ele>371.43</ele>
  <time>2026-09-01T19:58:05Z</time>
  <course>91.44</course>
  <speed>25.41803493584821</speed>
  <fix>3d</fix>
</trkpt>
<trkpt lat="-27.2730977" lon="151.2871888">
  <ele>371.46</ele>
  <time>2026-09-01T19:58:05Z</time>
  <course>91.33</course>
  <speed>25.46</speed>
  <fix>3d</fix>
</trkpt>
<trkpt lat="-27.2731013" lon="151.2872647">
  <ele>371.47</ele>
  <time>2026-09-01T19:58:05Z</time>
  <course>92.4</course>
  <speed>25.402440827605524</speed>
  <fix>3d</fix>
</trkpt>
<trkpt lat="-27.2730977" lon="151.2871888">
  <ele>371.46</ele>
  <time>2026-09-01T19:58:05Z</time>
  <course>91.33</course>
  <speed>25.46</speed>
  <fix>3d</fix>
</trkpt>
<trkpt lat="-27.273103" lon="151.2872903">
  <ele>371.5</ele>
  <time>2026-09-01T19:58:05Z</time>
  <course>93.24</course>
  <speed>25.392038122214608</speed>
  <fix>3d</fix>
</trkpt>
<trkpt lat="-27.2730994" lon="151.2872401">
  <ele>371.55</ele>
  <time>2026-09-01T19:58:05Z</time>
  <course>93.14</course>
  <speed>25.44</speed>
  <fix>3d</fix>
</trkpt>
<trkpt lat="-27.2731051" lon="151.2873159">
  <ele>371.54</ele>
  <time>2026-09-01T19:58:05Z</time>
  <course>94.09</course>
  <speed>25.37543891246021</speed>
  <fix>3d</fix>
</trkpt>
<trkpt lat="-27.2730994" lon="151.2872401">
  <ele>371.55</ele>
  <time>2026-09-01T19:58:05Z</time>
  <course>93.14</course>
  <speed>25.44</speed>
  <fix>3d</fix>
</trkpt>
<trkpt lat="-27.2731075" lon="151.2873414">
  <ele>371.57</ele>
  <time>2026-09-01T19:58:05Z</time>
  <course>94.98</course>
  <speed>25.37397288561647</speed>
  <fix>3d</fix>
</trkpt>
<trkpt lat="-27.2731026" lon="151.2872914">
  <ele>371.62</ele>
  <time>2026-09-01T19:58:05Z</time>
  <course>94.89</course>
  <speed>25.42</speed>
  <fix>3d</fix>
</trkpt>
<trkpt lat="-27.2731102" lon="151.2873669">
  <ele>371.59</ele>
  <time>2026-09-01T19:58:05Z</time>
  <course>95.83</course>
  <speed>25.356565224809138</speed>
  <fix>3d</fix>
</trkpt>
<trkpt lat="-27.2731026" lon="151.2872914">
  <ele>371.62</ele>
  <time>2026-09-01T19:58:05Z</time>
  <course>94.89</course>
  <speed>25.42</speed>
  <fix>3d</fix>
</trkpt>
<trkpt lat="-27.2731132" lon="151.2873923">
  <ele>371.61</ele>
  <time>2026-09-01T19:58:05Z</time>
  <course>96.61</course>
  <speed>25.361106048435662</speed>
  <fix>3d</fix>
</trkpt>
<trkpt lat="-27.2731072" lon="151.2873426">
  <ele>371.67</ele>
  <time>2026-09-01T19:58:05Z</time>
  <course>96.54</course>
  <speed>25.4</speed>
  <fix>3d</fix>
</trkpt>
<trkpt lat="-27.2731165" lon="151.2874177">
  <ele>371.63</ele>
  <time>2026-09-01T19:58:05Z</time>
  <course>97.39</course>
  <speed>25.350238657653698</speed>
  <fix>3d</fix>
</trkpt>
<trkpt lat="-27.2731072" lon="151.2873426">
  <ele>371.67</ele>
  <time>2026-09-01T19:58:05Z</time>
  <course>96.54</course>
  <speed>25.4</speed>
  <fix>3d</fix>
</trkpt>
<trkpt lat="-27.2731201" lon="151.287443">
  <ele>371.65</ele>
  <time>2026-09-01T19:58:05Z</time>
  <course>98.17</course>
  <speed>25.342142766546004</speed>
  <fix>3d</fix>
</trkpt>
<trkpt lat="-27.273113" lon="151.2873935">
  <ele>371.72</ele>
  <time>2026-09-01T19:58:05Z</time>
  <course>98.11</course>
  <speed>25.39</speed>
  <fix>3d</fix>
</trkpt>
<trkpt lat="-27.273124" lon="151.2874683">
  <ele>371.66</ele>
  <time>2026-09-01T19:58:05Z</time>
  <course>98.93</course>
  <speed>25.33644213381192</speed>
  <fix>3d</fix>
</trkpt>
<trkpt lat="-27.273113" lon="151.2873935">
  <ele>371.72</ele>
  <time>2026-09-01T19:58:05Z</time>
  <course>98.11</course>
  <speed>25.39</speed>
  <fix>3d</fix>
</trkpt>
<trkpt lat="-27.2731282" lon="151.2874935">
  <ele>371.67</ele>
  <time>2026-09-01T19:58:05Z</time>
  <course>99.65</course>
  <speed>25.33087049431977</speed>
  <fix>3d</fix>
</trkpt>
<trkpt lat="-27.2731201" lon="151.2874441">
  <ele>371.75</ele>
  <time>2026-09-01T19:58:05Z</time>
  <course>99.6</course>
  <speed>25.38</speed>
  <fix>3d</fix>
</trkpt>
<trkpt lat="-27.2731326" lon="151.2875186">
  <ele>371.69</ele>
  <time>2026-09-01T19:58:05Z</time>
  <course>100.35</course>
  <speed>25.3267487056669</speed>
  <fix>3d</fix>
</trkpt>
<trkpt lat="-27.2731201" lon="151.2874441">
  <ele>371.75</ele>
  <time>2026-09-01T19:58:05Z</time>
  <course>99.6</course>
  <speed>25.38</speed>
  <fix>3d</fix>
</trkpt>
<trkpt lat="-27.2731373" lon="151.2875437">
  <ele>371.69</ele>
  <time>2026-09-01T19:58:05Z</time>
  <course>101.04</course>
  <speed>25.323745773483036</speed>
  <fix>3d</fix>
</trkpt>
<trkpt lat="-27.2731282" lon="151.2874945">
  <ele>371.78</ele>
  <time>2026-09-01T19:58:05Z</time>
  <course>100.99</course>
  <speed>25.36</speed>
  <fix>3d</fix>
</trkpt>
<trkpt lat="-27.2731422" lon="151.2875687">
  <ele>371.7</ele>
  <time>2026-09-01T19:58:05Z</time>
  <course>101.65</course>
  <speed>25.323763543359824</speed>
  <fix>3d</fix>
</trkpt>
<trkpt lat="-27.2731282" lon="151.2874945">
  <ele>371.78</ele>
  <time>2026-09-01T19:58:05Z</time>
  <course>100.99</course>
  <speed>25.36</speed>
  <fix>3d</fix>
</trkpt>
<trkpt lat="-27.2731474" lon="151.2875936">
  <ele>371.71</ele>
  <time>2026-09-01T19:58:05Z</time>
  <course>102.28</course>
  <speed>25.317513700993626</speed>
  <fix>3d</fix>
</trkpt>
<trkpt lat="-27.2731375" lon="151.2875448">
  <ele>371.81</ele>
  <time>2026-09-01T19:58:05Z</time>
  <course>102.28</course>
  <speed>25.35</speed>
  <fix>3d</fix>
</trkpt>
<trkpt lat="-27.2731528" lon="151.2876185">
  <ele>371.72</ele>
  <time>2026-09-01T19:58:05Z</time>
  <course>102.86</course>
  <speed>25.313494424910996</speed>
  <fix>3d</fix>
</trkpt>
<trkpt lat="-27.2731375" lon="151.2875448">
  <ele>371.81</ele>
  <time>2026-09-01T19:58:05Z</time>
  <course>102.28</course>
  <speed>25.35</speed>
  <fix>3d</fix>
</trkpt>
<trkpt lat="-27.2731583" lon="151.2876433">
  <ele>371.73</ele>
  <time>2026-09-01T19:58:05Z</time>
  <course>103.43</course>
  <speed>25.306720451295146</speed>
  <fix>3d</fix>
</trkpt>
<trkpt lat="-27.2731476" lon="151.2875948">
  <ele>371.83</ele>
  <time>2026-09-01T19:58:05Z</time>
  <course>103.45</course>
  <speed>25.35</speed>
  <fix>3d</fix>
</trkpt>
<trkpt lat="-27.2731641" lon="151.2876681">
  <ele>371.73</ele>
  <time>2026-09-01T19:58:05Z</time>
  <course>103.97</course>
  <speed>25.3114934367769</speed>
  <fix>3d</fix>
</trkpt>
<trkpt lat="-27.2731476" lon="151.2875948">
  <ele>371.83</ele>
  <time>2026-09-01T19:58:05Z</time>
  <course>103.45</course>
  <speed>25.35</speed>
  <fix>3d</fix>
</trkpt>
<trkpt lat="-27.27317" lon="151.2876928">
  <ele>371.73</ele>
  <time>2026-09-01T19:58:05Z</time>
  <course>104.48</course>
  <speed>25.31280505989014</speed>
  <fix>3d</fix>
</trkpt>
<trkpt lat="-27.2731586" lon="151.2876446">
  <ele>371.84</ele>
  <time>2026-09-01T19:58:05Z</time>
  <course>104.48</course>
  <speed>25.34</speed>
  <fix>3d</fix>
</trkpt>
<trkpt lat="-27.2731761" lon="151.2877175">
  <ele>371.73</ele>
  <time>2026-09-01T19:58:05Z</time>
  <course>104.94</course>
  <speed>25.300581020996336</speed>
  <fix>3d</fix>
</trkpt>
<trkpt lat="-27.2731586" lon="151.2876446">
  <ele>371.84</ele>
  <time>2026-09-01T19:58:05Z</time>
  <course>104.48</course>
  <speed>25.34</speed>
  <fix>3d</fix>
</trkpt>
<trkpt lat="-27.2731824" lon="151.2877421">
  <ele>371.73</ele>
  <time>2026-09-01T19:58:05Z</time>
  <course>105.35</course>
  <speed>25.308846279512622</speed>
  <fix>3d</fix>
</trkpt>
<trkpt lat="-27.2731704" lon="151.2876941">
  <ele>371.85</ele>
  <time>2026-09-01T19:58:05Z</time>
  <course>105.41</course>
  <speed>25.33</speed>
  <fix>3d</fix>
</trkpt>
<trkpt lat="-27.2731888" lon="151.2877667">
  <ele>371.73</ele>
  <time>2026-09-01T19:58:05Z</time>
  <course>105.74</course>
  <speed>25.30588073946449</speed>
  <fix>3d</fix>
</trkpt>
<trkpt lat="-27.2731704" lon="151.2876941">
  <ele>371.85</ele>
  <time>2026-09-01T19:58:05Z</time>
  <course>105.41</course>
  <speed>25.33</speed>
  <fix>3d</fix>
</trkpt>
<trkpt lat="-27.2731953" lon="151.287791">
  <ele>371.74</ele>
  <time>2026-09-01T19:58:05Z</time>
  <course>106.14</course>
  <speed>25.307785363401518</speed>
  <fix>3d</fix>
</trkpt>
<trkpt lat="-27.2731828" lon="151.2877433">
  <ele>371.86</ele>
  <time>2026-09-01T19:58:05Z</time>
  <course>106.21</course>
  <speed>25.33</speed>
  <fix>3d</fix>
</trkpt>
<trkpt lat="-27.2732021" lon="151.2878159">
  <ele>371.74</ele>
  <time>2026-09-01T19:58:05Z</time>
  <course>106.5</course>
  <speed>25.307573965119612</speed>
  <fix>3d</fix>
</trkpt>
<trkpt lat="-27.2731828" lon="151.2877433">
  <ele>371.86</ele>
  <time>2026-09-01T19:58:05Z</time>
  <course>106.21</course>
  <speed>25.33</speed>
  <fix>3d</fix>
</trkpt>
<trkpt lat="-27.2732089" lon="151.2878404">
  <ele>371.75</ele>
  <time>2026-09-01T19:58:05Z</time>
  <course>106.86</course>
  <speed>25.302094774939093</speed>
  <fix>3d</fix>
</trkpt>
<trkpt lat="-27.2731957" lon="151.2877924">
  <ele>371.86</ele>
  <time>2026-09-01T19:58:05Z</time>
  <course>106.91</course>
  <speed>25.32</speed>
  <fix>3d</fix>
</trkpt>
<trkpt lat="-27.2732157" lon="151.2878647">
  <ele>371.76</ele>
  <time>2026-09-01T19:58:05Z</time>
  <course>107.2</course>
  <speed>25.306682911831807</speed>
  <fix>3d</fix>
</trkpt>
<trkpt lat="-27.2731957" lon="151.2877924">
  <ele>371.86</ele>
  <time>2026-09-01T19:58:05Z</time>
  <course>106.91</course>
  <speed>25.32</speed>
  <fix>3d</fix>
</trkpt>
<trkpt lat="-27.2732227" lon="151.2878892">
  <ele>371.76</ele>
  <time>2026-09-01T19:58:05Z</time>
  <course>107.5</course>
  <speed>25.299189710344482</speed>
  <fix>3d</fix>
</trkpt>
<trkpt lat="-27.2732092" lon="151.2878413">
  <ele>371.87</ele>
  <time>2026-09-01T19:58:05Z</time>
  <course>107.49</course>
  <speed>25.32</speed>
  <fix>3d</fix>
</trkpt>
<trkpt lat="-27.2732298" lon="151.2879135">
  <ele>371.77</ele>
  <time>2026-09-01T19:58:05Z</time>
  <course>107.68</course>
  <speed>25.304928373737795</speed>
  <fix>3d</fix>
</trkpt>
<trkpt lat="-27.2732092" lon="151.2878413">
  <ele>371.87</ele>
  <time>2026-09-01T19:58:05Z</time>
  <course>107.49</course>
  <speed>25.32</speed>
  <fix>3d</fix>
</trkpt>
<trkpt lat="-27.2732369" lon="151.2879379">
  <ele>371.79</ele>
  <time>2026-09-01T19:58:05Z</time>
  <course>107.95</course>
  <speed>25.301440670444045</speed>
  <fix>3d</fix>
</trkpt>
<trkpt lat="-27.2732231" lon="151.28789">
  <ele>371.89</ele>
  <time>2026-09-01T19:58:05Z</time>
  <course>107.97</course>
  <speed>25.32</speed>
  <fix>3d</fix>
</trkpt>
<trkpt lat="-27.2732441" lon="151.2879622">
  <ele>371.8</ele>
  <time>2026-09-01T19:58:05Z</time>
  <course>108.21</course>
  <speed>25.301385337566003</speed>
  <fix>3d</fix>
</trkpt>
<trkpt lat="-27.2732231" lon="151.28789">
  <ele>371.89</ele>
  <time>2026-09-01T19:58:05Z</time>
  <course>107.97</course>
  <speed>25.32</speed>
  <fix>3d</fix>
</trkpt>
<trkpt lat="-27.2732514" lon="151.2879865">
  <ele>371.81</ele>
  <time>2026-09-01T19:58:05Z</time>
  <course>108.36</course>
  <speed>25.3109660029008</speed>
  <fix>3d</fix>
</trkpt>
<trkpt lat="-27.2732373" lon="151.2879386">
  <ele>371.91</ele>
  <time>2026-09-01T19:58:05Z</time>
  <course>108.34</course>
  <speed>25.31</speed>
  <fix>3d</fix>
</trkpt>
<trkpt lat="-27.2732587" lon="151.2880107">
  <ele>371.82</ele>
  <time>2026-09-01T19:58:05Z</time>
  <course>108.52</course>
  <speed>25.308008613875568</speed>
  <fix>3d</fix>
</trkpt>
<trkpt lat="-27.2732373" lon="151.2879386">
  <ele>371.91</ele>
  <time>2026-09-01T19:58:05Z</time>
  <course>108.34</course>
  <speed>25.31</speed>
  <fix>3d</fix>
</trkpt>
<trkpt lat="-27.273266" lon="151.288035">
  <ele>371.83</ele>
  <time>2026-09-01T19:58:05Z</time>
  <course>108.63</course>
  <speed>25.311404544197067</speed>
  <fix>3d</fix>
</trkpt>
<trkpt lat="-27.2732517" lon="151.2879871">
  <ele>371.93</ele>
  <time>2026-09-01T19:58:05Z</time>
  <course>108.62</course>
  <speed>25.31</speed>
  <fix>3d</fix>
</trkpt>
<trkpt lat="-27.2732734" lon="151.2880593">
  <ele>371.84</ele>
  <time>2026-09-01T19:58:05Z</time>
  <course>108.75</course>
  <speed>25.302167891309235</speed>
  <fix>3d</fix>
</trkpt>
<trkpt lat="-27.2732517" lon="151.2879871">
  <ele>371.93</ele>
  <time>2026-09-01T19:58:05Z</time>
  <course>108.62</course>
  <speed>25.31</speed>
  <fix>3d</fix>
</trkpt>
<trkpt lat="-27.2732808" lon="151.2880835">
  <ele>371.86</ele>
  <time>2026-09-01T19:58:05Z</time>
  <course>108.85</course>
  <speed>25.289731117589998</speed>
  <fix>3d</fix>
</trkpt>
<trkpt lat="-27.2732663" lon="151.2880356">
  <ele>371.96</ele>
  <time>2026-09-01T19:58:05Z</time>
  <course>108.83</course>
  <speed>25.31</speed>
  <fix>3d</fix>
</trkpt>
<trkpt lat="-27.2732882" lon="151.2881077">
  <ele>371.87</ele>
  <time>2026-09-01T19:58:05Z</time>
  <course>108.95</course>
  <speed>25.261357841572966</speed>
  <fix>3d</fix>
</trkpt>
<trkpt lat="-27.2732663" lon="151.2880356">
  <ele>371.96</ele>
  <time>2026-09-01T19:58:05Z</time>
  <course>108.83</course>
  <speed>25.31</speed>
  <fix>3d</fix>
</trkpt>
<trkpt lat="-27.2732956" lon="151.2881318">
  <ele>371.89</ele>
  <time>2026-09-01T19:58:05Z</time>
  <course>109.07</course>
  <speed>25.18245619474002</speed>
  <fix>3d</fix>
</trkpt>
<trkpt lat="-27.2732811" lon="151.288084">
  <ele>371.98</ele>
  <time>2026-09-01T19:58:05Z</time>
  <course>108.96</course>
  <speed>25.28</speed>
  <fix>3d</fix>
</trkpt>
<trkpt lat="-27.2733029" lon="151.2881558">
  <ele>371.9</ele>
  <time>2026-09-01T19:58:05Z</time>
  <course>109.17</course>
  <speed>25.03706252738128</speed>
  <fix>3d</fix>
</trkpt>
<trkpt lat="-27.2732811" lon="151.288084">
  <ele>371.98</ele>
  <time>2026-09-01T19:58:05Z</time>
  <course>108.96</course>
  <speed>25.28</speed>
  <fix>3d</fix>
</trkpt>
<trkpt lat="-27.2733103" lon="151.2881797">
  <ele>371.93</ele>
  <time>2026-09-01T19:58:05Z</time>
  <course>109.22</course>
  <speed>24.872766231362366</speed>
  <fix>3d</fix>
</trkpt>
<trkpt lat="-27.2732958" lon="151.2881323">
  <ele>372.01</ele>
  <time>2026-09-01T19:58:05Z</time>
  <course>109.02</course>
  <speed>25.15</speed>
  <fix>3d</fix>
</trkpt>
<trkpt lat="-27.2733175" lon="151.2882034">
  <ele>371.96</ele>
  <time>2026-09-01T19:58:05Z</time>
  <course>109.29</course>
  <speed>24.71792871581274</speed>
  <fix>3d</fix>
</trkpt>
<trkpt lat="-27.2732958" lon="151.2881323">
  <ele>372.01</ele>
  <time>2026-09-01T19:58:05Z</time>
  <course>109.02</course>
  <speed>25.15</speed>
  <fix>3d</fix>
</trkpt>
<trkpt lat="-27.2733248" lon="151.2882268">
  <ele>372.0</ele>
  <time>2026-09-01T19:58:05Z</time>
  <course>109.32</course>
  <speed>24.55982491794272</speed>
  <fix>3d</fix>
</trkpt>
<trkpt lat="-27.2733105" lon="151.2881801">
  <ele>372.06</ele>
  <time>2026-09-01T19:58:05Z</time>
  <course>109.06</course>
  <speed>24.88</speed>
  <fix>3d</fix>
</trkpt>
<trkpt lat="-27.2733319" lon="151.2882501">
  <ele>372.03</ele>
  <time>2026-09-01T19:58:05Z</time>
  <course>109.34</course>
  <speed>24.404993341527465</speed>
  <fix>3d</fix>
</trkpt>
<trkpt lat="-27.2733105" lon="151.2881801">
  <ele>372.06</ele>
  <time>2026-09-01T19:58:05Z</time>
  <course>109.06</course>
  <speed>24.88</speed>
  <fix>3d</fix>
</trkpt>
<trkpt lat="-27.2733391" lon="151.2882732">
  <ele>372.08</ele>
  <time>2026-09-01T19:58:05Z</time>
  <course>109.34</course>
  <speed>24.269062610657215</speed>
  <fix>3d</fix>
</trkpt>
<trkpt lat="-27.273325" lon="151.2882273">
  <ele>372.13</ele>
  <time>2026-09-01T19:58:05Z</time>
  <course>109.09</course>
  <speed>24.57</speed>
  <fix>3d</fix>
</trkpt>
<trkpt lat="-27.2733461" lon="151.288296">
  <ele>372.12</ele>
  <time>2026-09-01T19:58:05Z</time>
  <course>109.3</course>
  <speed>24.13313282605472</speed>
  <fix>3d</fix>
</trkpt>
<trkpt lat="-27.273325" lon="151.2882273">
  <ele>372.13</ele>
  <time>2026-09-01T19:58:05Z</time>
  <course>109.09</course>
  <speed>24.57</speed>
  <fix>3d</fix>
</trkpt>
<trkpt lat="-27.2733531" lon="151.2883189">
  <ele>372.17</ele>
  <time>2026-09-01T19:58:05Z</time>
  <course>109.29</course>
  <speed>23.99392631479892</speed>
  <fix>3d</fix>
</trkpt>
<trkpt lat="-27.2733394" lon="151.288274">
  <ele>372.21</ele>
  <time>2026-09-01T19:58:05Z</time>
  <course>109.11</course>
  <speed>24.29</speed>
  <fix>3d</fix>
</trkpt>
<trkpt lat="-27.2733602" lon="151.2883416">
  <ele>372.22</ele>
  <time>2026-09-01T19:58:05Z</time>
  <course>109.31</course>
  <speed>23.80092855331489</speed>
  <fix>3d</fix>
</trkpt>
<trkpt lat="-27.2733394" lon="151.288274">
  <ele>372.21</ele>
  <time>2026-09-01T19:58:05Z</time>
  <course>109.11</course>
  <speed>24.29</speed>
  <fix>3d</fix>
</trkpt>
<trkpt lat="-27.2733671" lon="151.2883641">
  <ele>372.28</ele>
  <time>2026-09-01T19:58:05Z</time>
  <course>109.3</course>
  <speed>23.544691546078916</speed>
  <fix>3d</fix>
</trkpt>
<trkpt lat="-27.2733536" lon="151.2883201">
  <ele>372.3</ele>
  <time>2026-09-01T19:58:05Z</time>
  <course>109.1</course>
  <speed>24.0</speed>
  <fix>3d</fix>
</trkpt>
<trkpt lat="-27.273374" lon="151.2883866">
  <ele>372.36</ele>
  <time>2026-09-01T19:58:05Z</time>
  <course>109.28</course>
  <speed>23.231401163080974</speed>
  <fix>3d</fix>
</trkpt>
<trkpt lat="-27.2733536" lon="151.2883201">
  <ele>372.3</ele>
  <time>2026-09-01T19:58:05Z</time>
  <course>109.1</course>
  <speed>24.0</speed>
  <fix>3d</fix>
</trkpt>
<trkpt lat="-27.2733807" lon="151.2884085">
  <ele>372.45</ele>
  <time>2026-09-01T19:58:05Z</time>
  <course>109.23</course>
  <speed>22.87054437480665</speed>
  <fix>3d</fix>
</trkpt>
<trkpt lat="-27.2733676" lon="151.2883655">
  <ele>372.41</ele>
  <time>2026-09-01T19:58:05Z</time>
  <course>109.05</course>
  <speed>23.56</speed>
  <fix>3d</fix>
</trkpt>
<trkpt lat="-27.2733873" lon="151.2884302">
  <ele>372.56</ele>
  <time>2026-09-01T19:58:05Z</time>
  <course>109.16</course>
  <speed>22.506507947702595</speed>
  <fix>3d</fix>
</trkpt>
<trkpt lat="-27.2733676" lon="151.2883655">
  <ele>372.41</ele>
  <time>2026-09-01T19:58:05Z</time>
  <course>109.05</course>
  <speed>23.56</speed>
  <fix>3d</fix>
</trkpt>
<trkpt lat="-27.2733937" lon="151.2884515">
  <ele>372.68</ele>
  <time>2026-09-01T19:58:05Z</time>
  <course>109.06</course>
  <speed>22.148823896541327</speed>
  <fix>3d</fix>
</trkpt>
<trkpt lat="-27.2733812" lon="151.28841">
  <ele>372.58</ele>
  <time>2026-09-01T19:58:05Z</time>
  <course>108.91</course>
  <speed>22.93</speed>
  <fix>3d</fix>
</trkpt>
<trkpt lat="-27.2734001" lon="151.2884727">
  <ele>372.79</ele>
  <time>2026-09-01T19:58:05Z</time>
  <course>108.94</course>
  <speed>21.807141032239873</speed>
  <fix>3d</fix>
</trkpt>
<trkpt lat="-27.2733812" lon="151.28841">
  <ele>372.58</ele>
  <time>2026-09-01T19:58:05Z</time>
  <course>108.91</course>
  <speed>22.93</speed>
  <fix>3d</fix>
</trkpt>
<trkpt lat="-27.2734062" lon="151.2884934">
  <ele>372.9</ele>
  <time>2026-09-01T19:58:05Z</time>
  <course>108.81</course>
  <speed>21.484515354086998</speed>
  <fix>3d</fix>
</trkpt>
<trkpt lat="-27.2733943" lon="151.2884532">
  <ele>372.79</ele>
  <time>2026-09-01T19:58:05Z</time>
  <course>108.68</course>
  <speed>22.22</speed>
  <fix>3d</fix>
</trkpt>
<trkpt lat="-27.2734123" lon="151.2885138">
  <ele>372.99</ele>
  <time>2026-09-01T19:58:05Z</time>
  <course>108.66</course>
  <speed>21.171502072361328</speed>
  <fix>3d</fix>
</trkpt>
<trkpt lat="-27.2733943" lon="151.2884532">
  <ele>372.79</ele>
  <time>2026-09-01T19:58:05Z</time>
  <course>108.68</course>
  <speed>22.22</speed>
  <fix>3d</fix>
</trkpt>
<trkpt lat="-27.2734182" lon="151.288534">
  <ele>373.06</ele>
  <time>2026-09-01T19:58:05Z</time>
  <course>108.51</course>
  <speed>20.86813120526129</speed>
  <fix>3d</fix>
</trkpt>
<trkpt lat="-27.2734068" lon="151.2884951">
  <ele>373.01</ele>
  <time>2026-09-01T19:58:05Z</time>
  <course>108.41</course>
  <speed>21.56</speed>
  <fix>3d</fix>
</trkpt>
<trkpt lat="-27.273424" lon="151.2885539">
  <ele>373.14</ele>
  <time>2026-09-01T19:58:05Z</time>
  <course>108.37</course>
  <speed>20.577524146505088</speed>
  <fix>3d</fix>
</trkpt>
<trkpt lat="-27.2734068" lon="151.2884951">
  <ele>373.01</ele>
  <time>2026-09-01T19:58:05Z</time>
  <course>108.41</course>
  <speed>21.56</speed>
  <fix>3d</fix>
</trkpt>
<trkpt lat="-27.2734296" lon="151.2885736">
  <ele>373.2</ele>
  <time>2026-09-01T19:58:05Z</time>
  <course>108.25</course>
  <speed>20.296571138987982</speed>
  <fix>3d</fix>
</trkpt>
<trkpt lat="-27.2734187" lon="151.288536">
  <ele>373.19</ele>
  <time>2026-09-01T19:58:05Z</time>
  <course>108.12</course>
  <speed>20.94</speed>
  <fix>3d</fix>
</trkpt>
<trkpt lat="-27.2734351" lon="151.288593">
  <ele>373.26</ele>
  <time>2026-09-01T19:58:05Z</time>
  <course>108.13</course>
  <speed>20.03138537395754</speed>
  <fix>3d</fix>
</trkpt>
<trkpt lat="-27.2734187" lon="151.288536">
  <ele>373.19</ele>
  <time>2026-09-01T19:58:05Z</time>
  <course>108.12</course>
  <speed>20.94</speed>
  <fix>3d</fix>
</trkpt>
<trkpt lat="-27.2734406" lon="151.2886122">
  <ele>373.3</ele>
  <time>2026-09-01T19:58:05Z</time>
  <course>108.01</course>
  <speed>19.763261370532952</speed>
  <fix>3d</fix>
</trkpt>
<trkpt lat="-27.2734302" lon="151.2885758">
  <ele>373.33</ele>
  <time>2026-09-01T19:58:05Z</time>
  <course>107.82</course>
  <speed>20.37</speed>
  <fix>3d</fix>
</trkpt>
<trkpt lat="-27.2734459" lon="151.2886311">
  <ele>373.35</ele>
  <time>2026-09-01T19:58:05Z</time>
  <course>107.91</course>
  <speed>19.51080982429996</speed>
  <fix>3d</fix>
</trkpt>
<trkpt lat="-27.2734302" lon="151.2885758">
  <ele>373.33</ele>
  <time>2026-09-01T19:58:05Z</time>
  <course>107.82</course>
  <speed>20.37</speed>
  <fix>3d</fix>
</trkpt>
<trkpt lat="-27.2734511" lon="151.2886499">
  <ele>373.38</ele>
  <time>2026-09-01T19:58:05Z</time>
  <course>107.82</course>
  <speed>19.25842413075379</speed>
  <fix>3d</fix>
</trkpt>
<trkpt lat="-27.2734412" lon="151.2886145">
  <ele>373.43</ele>
  <time>2026-09-01T19:58:05Z</time>
  <course>107.55</course>
  <speed>19.83</speed>
  <fix>3d</fix>
</trkpt>
<trkpt lat="-27.2734562" lon="151.2886684">
  <ele>373.41</ele>
  <time>2026-09-01T19:58:05Z</time>
  <course>107.72</course>
  <speed>19.015656707040122</speed>
  <fix>3d</fix>
</trkpt>
<trkpt lat="-27.2734412" lon="151.2886145">
  <ele>373.43</ele>
  <time>2026-09-01T19:58:05Z</time>
  <course>107.55</course>
  <speed>19.83</speed>
  <fix>3d</fix>
</trkpt>
<trkpt lat="-27.2734613" lon="151.2886867">
  <ele>373.44</ele>
  <time>2026-09-01T19:58:05Z</time>
  <course>107.63</course>
  <speed>18.78842728915861</speed>
  <fix>3d</fix>
</trkpt>
<trkpt lat="-27.2734517" lon="151.2886522">
  <ele>373.51</ele>
  <time>2026-09-01T19:58:05Z</time>
  <course>107.31</course>
  <speed>19.32</speed>
  <fix>3d</fix>
</trkpt>
<trkpt lat="-27.2734662" lon="151.2887048">
  <ele>373.46</ele>
  <time>2026-09-01T19:58:06Z</time>
  <course>107.54</course>
  <speed>18.558289253053474</speed>
  <fix>3d</fix>
</trkpt>
<trkpt lat="-27.2734517" lon="151.2886522">
  <ele>373.51</ele>
  <time>2026-09-01T19:58:06Z</time>
  <course>107.31</course>
  <speed>19.32</speed>
  <fix>3d</fix>
</trkpt>
<trkpt lat="-27.273471" lon="151.2887226">
  <ele>373.48</ele>
  <time>2026-09-01T19:58:06Z</time>
  <course>107.47</course>
  <speed>18.343622870087575</speed>
  <fix>3d</fix>
</trkpt>
<trkpt lat="-27.2734618" lon="151.288689">
  <ele>373.57</ele>
  <time>2026-09-01T19:58:06Z</time>
  <course>107.11</course>
  <speed>18.84</speed>
  <fix>3d</fix>
</trkpt>
<trkpt lat="-27.2734758" lon="151.2887403">
  <ele>373.49</ele>
  <time>2026-09-01T19:58:06Z</time>
  <course>107.4</course>
  <speed>18.13853908119394</speed>
  <fix>3d</fix>
</trkpt>
<trkpt lat="-27.2734618" lon="151.288689">
  <ele>373.57</ele>
  <time>2026-09-01T19:58:06Z</time>
  <course>107.11</course>
  <speed>18.84</speed>
  <fix>3d</fix>
</trkpt>
<trkpt lat="-27.2734806" lon="151.2887579">
  <ele>373.5</ele>
  <time>2026-09-01T19:58:06Z</time>
  <course>107.34</course>
  <speed>17.933479863094057</speed>
  <fix>3d</fix>
</trkpt>
<trkpt lat="-27.2734716" lon="151.288725">
  <ele>373.6</ele>
  <time>2026-09-01T19:58:06Z</time>
  <course>106.94</course>
  <speed>18.39</speed>
  <fix>3d</fix>
</trkpt>
<trkpt lat="-27.2734852" lon="151.2887752">
  <ele>373.5</ele>
  <time>2026-09-01T19:58:06Z</time>
  <course>107.28</course>
  <speed>17.72844606839528</speed>
  <fix>3d</fix>
</trkpt>
<trkpt lat="-27.2734716" lon="151.288725">
  <ele>373.6</ele>
  <time>2026-09-01T19:58:06Z</time>
  <course>106.94</course>
  <speed>18.39</speed>
  <fix>3d</fix>
</trkpt>
<trkpt lat="-27.2734898" lon="151.2887925">
  <ele>373.49</ele>
  <time>2026-09-01T19:58:06Z</time>
  <course>107.22</course>
  <speed>17.535897467765942</speed>
  <fix>3d</fix>
</trkpt>
<trkpt lat="-27.2734811" lon="151.2887601">
  <ele>373.62</ele>
  <time>2026-09-01T19:58:06Z</time>
  <course>106.8</course>
  <speed>17.96</speed>
  <fix>3d</fix>
</trkpt>
<trkpt lat="-27.2734944" lon="151.2888094">
  <ele>373.49</ele>
  <time>2026-09-01T19:58:06Z</time>
  <course>107.16</course>
  <speed>17.343361842503317</speed>
  <fix>3d</fix>
</trkpt>
<trkpt lat="-27.2734811" lon="151.2887601">
  <ele>373.62</ele>
  <time>2026-09-01T19:58:06Z</time>
  <course>106.8</course>
  <speed>17.96</speed>
  <fix>3d</fix>
</trkpt>
<trkpt lat="-27.2734988" lon="151.2888262">
  <ele>373.48</ele>
  <time>2026-09-01T19:58:06Z</time>
  <course>107.1</course>
  <speed>17.163289311784034</speed>
  <fix>3d</fix>
</trkpt>
<trkpt lat="-27.2734903" lon="151.2887945">
  <ele>373.61</ele>
  <time>2026-09-01T19:58:06Z</time>
  <course>106.69</course>
  <speed>17.56</speed>
  <fix>3d</fix>
</trkpt>
<trkpt lat="-27.2735032" lon="151.2888428">
  <ele>373.46</ele>
  <time>2026-09-01T19:58:06Z</time>
  <course>107.04</course>
  <speed>16.9928014170707</speed>
  <fix>3d</fix>
</trkpt>
<trkpt lat="-27.2734903" lon="151.2887945">
  <ele>373.61</ele>
  <time>2026-09-01T19:58:06Z</time>
  <course>106.69</course>
  <speed>17.56</speed>
  <fix>3d</fix>
</trkpt>
<trkpt lat="-27.2735076" lon="151.2888593">
  <ele>373.43</ele>
  <time>2026-09-01T19:58:06Z</time>
  <course>106.99</course>
  <speed>16.822321480699387</speed>
  <fix>3d</fix>
</trkpt>
<trkpt lat="-27.2734993" lon="151.2888281">
  <ele>373.59</ele>
  <time>2026-09-01T19:58:06Z</time>
  <course>106.59</course>
  <speed>17.19</speed>
  <fix>3d</fix>
</trkpt>
<trkpt lat="-27.2735119" lon="151.2888755">
  <ele>373.4</ele>
  <time>2026-09-01T19:58:06Z</time>
  <course>106.94</course>
  <speed>16.66143451207008</speed>
  <fix>3d</fix>
</trkpt>
<trkpt lat="-27.2734993" lon="151.2888281">
  <ele>373.59</ele>
  <time>2026-09-01T19:58:06Z</time>
  <course>106.59</course>
  <speed>17.19</speed>
  <fix>3d</fix>
</trkpt>
<trkpt lat="-27.2735161" lon="151.2888917">
  <ele>373.36</ele>
  <time>2026-09-01T19:58:06Z</time>
  <course>106.9</course>
  <speed>16.503405709125616</speed>
  <fix>3d</fix>
</trkpt>
<trkpt lat="-27.273508" lon="151.2888611">
  <ele>373.55</ele>
  <time>2026-09-01T19:58:06Z</time>
  <course>106.5</course>
  <speed>16.84</speed>
  <fix>3d</fix>
</trkpt>
<trkpt lat="-27.2735203" lon="151.2889077">
  <ele>373.31</ele>
  <time>2026-09-01T19:58:06Z</time>
  <course>106.86</course>
  <speed>16.354965606811895</speed>
  <fix>3d</fix>
</trkpt>
<trkpt lat="-27.273508" lon="151.2888611">
  <ele>373.55</ele>
  <time>2026-09-01T19:58:06Z</time>
  <course>106.5</course>
  <speed>16.84</speed>
  <fix>3d</fix>
</trkpt>
<trkpt lat="-27.2735245" lon="151.2889235">
  <ele>373.26</ele>
  <time>2026-09-01T19:58:06Z</time>
  <course>106.82</course>
  <speed>16.21611852448051</speed>
  <fix>3d</fix>
</trkpt>
<trkpt lat="-27.2735165" lon="151.2888934">
  <ele>373.48</ele>
  <time>2026-09-01T19:58:06Z</time>
  <course>106.41</course>
  <speed>16.51</speed>
  <fix>3d</fix>
</trkpt>
<trkpt lat="-27.2735286" lon="151.2889392">
  <ele>373.19</ele>
  <time>2026-09-01T19:58:06Z</time>
  <course>106.77</course>
  <speed>16.077278998636555</speed>
  <fix>3d</fix>
</trkpt>
<trkpt lat="-27.2735165" lon="151.2888934">
  <ele>373.48</ele>
  <time>2026-09-01T19:58:06Z</time>
  <course>106.41</course>
  <speed>16.51</speed>
  <fix>3d</fix>
</trkpt>
<trkpt lat="-27.2735327" lon="151.2889549">
  <ele>373.11</ele>
  <time>2026-09-01T19:58:06Z</time>
  <course>106.73</course>
  <speed>15.950865180296649</speed>
  <fix>3d</fix>
</trkpt>
<trkpt lat="-27.2735247" lon="151.2889253">
  <ele>373.38</ele>
  <time>2026-09-01T19:58:06Z</time>
  <course>106.34</course>
  <speed>16.22</speed>
  <fix>3d</fix>
</trkpt>
<trkpt lat="-27.2735367" lon="151.2889704">
  <ele>373.03</ele>
  <time>2026-09-01T19:58:06Z</time>
  <course>106.68</course>
  <speed>15.831225473727548</speed>
  <fix>3d</fix>
</trkpt>
<trkpt lat="-27.2735247" lon="151.2889253">
  <ele>373.38</ele>
  <time>2026-09-01T19:58:06Z</time>
  <course>106.34</course>
  <speed>16.22</speed>
  <fix>3d</fix>
</trkpt>
<trkpt lat="-27.2735407" lon="151.2889857">
  <ele>372.94</ele>
  <time>2026-09-01T19:58:06Z</time>
  <course>106.65</course>
  <speed>15.714413765712038</speed>
  <fix>3d</fix>
</trkpt>
<trkpt lat="-27.2735329" lon="151.2889564">
  <ele>373.24</ele>
  <time>2026-09-01T19:58:06Z</time>
  <course>106.26</course>
  <speed>15.95</speed>
  <fix>3d</fix>
</trkpt>
<trkpt lat="-27.2735446" lon="151.289001">
  <ele>372.83</ele>
  <time>2026-09-01T19:58:06Z</time>
  <course>106.61</course>
  <speed>15.61001281229455</speed>
  <fix>3d</fix>
</trkpt>
<trkpt lat="-27.2735329" lon="151.2889564">
  <ele>373.24</ele>
  <time>2026-09-01T19:58:06Z</time>
  <course>106.26</course>
  <speed>15.95</speed>
  <fix>3d</fix>
</trkpt>
<trkpt lat="-27.2735485" lon="151.2890161">
  <ele>372.73</ele>
  <time>2026-09-01T19:58:06Z</time>
  <course>106.57</course>
  <speed>15.512401490420496</speed>
  <fix>3d</fix>
</trkpt>
<trkpt lat="-27.2735408" lon="151.2889871">
  <ele>373.07</ele>
  <time>2026-09-01T19:58:06Z</time>
  <course>106.19</course>
  <speed>15.71</speed>
  <fix>3d</fix>
</trkpt>
<trkpt lat="-27.2735524" lon="151.2890312">
  <ele>372.62</ele>
  <time>2026-09-01T19:58:06Z</time>
  <course>106.53</course>
  <speed>15.414801328593242</speed>
  <fix>3d</fix>
</trkpt>
<trkpt lat="-27.2735408" lon="151.2889871">
  <ele>373.07</ele>
  <time>2026-09-01T19:58:06Z</time>
  <course>106.19</course>
  <speed>15.71</speed>
  <fix>3d</fix>
</trkpt>
<trkpt lat="-27.2735563" lon="151.2890462">
  <ele>372.52</ele>
  <time>2026-09-01T19:58:06Z</time>
  <course>106.48</course>
  <speed>15.32960534390889</speed>
  <fix>3d</fix>
</trkpt>
<trkpt lat="-27.2735486" lon="151.2890174">
  <ele>372.87</ele>
  <time>2026-09-01T19:58:06Z</time>
  <course>106.11</course>
  <speed>15.5</speed>
  <fix>3d</fix>
</trkpt>
<trkpt lat="-27.27356" lon="151.2890609">
  <ele>372.41</ele>
  <time>2026-09-01T19:58:06Z</time>
  <course>106.43</course>
  <speed>15.244412090992554</speed>
  <fix>3d</fix>
</trkpt>
<trkpt lat="-27.2735486" lon="151.2890174">
  <ele>372.87</ele>
  <time>2026-09-01T19:58:06Z</time>
  <course>106.11</course>
  <speed>15.5</speed>
  <fix>3d</fix>
</trkpt>
<trkpt lat="-27.2735638" lon="151.2890758">
  <ele>372.31</ele>
  <time>2026-09-01T19:58:06Z</time>
  <course>106.38</course>
  <speed>15.159221615900996</speed>
  <fix>3d</fix>
</trkpt>
<trkpt lat="-27.2735562" lon="151.2890473">
  <ele>372.66</ele>
  <time>2026-09-01T19:58:06Z</time>
  <course>106.03</course>
  <speed>15.31</speed>
  <fix>3d</fix>
</trkpt>
<trkpt lat="-27.2735676" lon="151.2890905">
  <ele>372.22</ele>
  <time>2026-09-01T19:58:06Z</time>
  <course>106.33</course>
  <speed>15.071257412704488</speed>
  <fix>3d</fix>
</trkpt>
<trkpt lat="-27.2735562" lon="151.2890473">
  <ele>372.66</ele>
  <time>2026-09-01T19:58:06Z</time>
  <course>106.03</course>
  <speed>15.31</speed>
  <fix>3d</fix>
</trkpt>
<trkpt lat="-27.2735713" lon="151.2891051">
  <ele>372.13</ele>
  <time>2026-09-01T19:58:06Z</time>
  <course>106.29</course>
  <speed>14.99568604632679</speed>
  <fix>3d</fix>
</trkpt>
<trkpt lat="-27.2735638" lon="151.289077">
  <ele>372.46</ele>
  <time>2026-09-01T19:58:06Z</time>
  <course>105.95</course>
  <speed>15.14</speed>
  <fix>3d</fix>
</trkpt>
<trkpt lat="-27.273575" lon="151.2891198">
  <ele>372.05</ele>
  <time>2026-09-01T19:58:06Z</time>
  <course>106.25</course>
  <speed>14.910509716304134</speed>
  <fix>3d</fix>
</trkpt>
<trkpt lat="-27.2735638" lon="151.289077">
  <ele>372.46</ele>
  <time>2026-09-01T19:58:06Z</time>
  <course>105.95</course>
  <speed>15.14</speed>
  <fix>3d</fix>
</trkpt>
<trkpt lat="-27.2735787" lon="151.2891343">
  <ele>371.97</ele>
  <time>2026-09-01T19:58:06Z</time>
  <course>106.21</course>
  <speed>14.825336421140669</speed>
  <fix>3d</fix>
</trkpt>
<trkpt lat="-27.2735712" lon="151.2891062">
  <ele>372.27</ele>
  <time>2026-09-01T19:58:06Z</time>
  <course>105.87</course>
  <speed>14.97</speed>
  <fix>3d</fix>
</trkpt>
<trkpt lat="-27.2735823" lon="151.2891487">
  <ele>371.9</ele>
  <time>2026-09-01T19:58:06Z</time>
  <course>106.18</course>
  <speed>14.749779659371185</speed>
  <fix>3d</fix>
</trkpt>
<trkpt lat="-27.2735712" lon="151.2891062">
  <ele>372.27</ele>
  <time>2026-09-01T19:58:06Z</time>
  <course>105.87</course>
  <speed>14.97</speed>
  <fix>3d</fix>
</trkpt>
<trkpt lat="-27.2735859" lon="151.289163">
  <ele>371.85</ele>
  <time>2026-09-01T19:58:06Z</time>
  <course>106.15</course>
  <speed>14.664613871493513</speed>
  <fix>3d</fix>
</trkpt>
<trkpt lat="-27.2735785" lon="151.2891352">
  <ele>372.12</ele>
  <time>2026-09-01T19:58:06Z</time>
  <course>105.8</course>
  <speed>14.81</speed>
  <fix>3d</fix>
</trkpt>
<trkpt lat="-27.2735895" lon="151.2891773">
  <ele>371.8</ele>
  <time>2026-09-01T19:58:06Z</time>
  <course>106.12</course>
  <speed>14.57945129282992</speed>
  <fix>3d</fix>
</trkpt>
<trkpt lat="-27.2735785" lon="151.2891352">
  <ele>372.12</ele>
  <time>2026-09-01T19:58:06Z</time>
  <course>105.8</course>
  <speed>14.81</speed>
  <fix>3d</fix>
</trkpt>
<trkpt lat="-27.273593" lon="151.2891915">
  <ele>371.76</ele>
  <time>2026-09-01T19:58:06Z</time>
  <course>106.1</course>
  <speed>14.494291979948521</speed>
  <fix>3d</fix>
</trkpt>
<trkpt lat="-27.2735857" lon="151.2891638">
  <ele>371.99</ele>
  <time>2026-09-01T19:58:06Z</time>
  <course>105.73</course>
  <speed>14.65</speed>
  <fix>3d</fix>
</trkpt>
<trkpt lat="-27.2735966" lon="151.2892056">
  <ele>371.73</ele>
  <time>2026-09-01T19:58:06Z</time>
  <course>106.07</course>
  <speed>14.421490907669707</speed>
  <fix>3d</fix>
</trkpt>
<trkpt lat="-27.2735857" lon="151.2891638">
  <ele>371.99</ele>
  <time>2026-09-01T19:58:06Z</time>
  <course>105.73</course>
  <speed>14.65</speed>
  <fix>3d</fix>
</trkpt>
<trkpt lat="-27.2736" lon="151.2892196">
  <ele>371.7</ele>
  <time>2026-09-01T19:58:06Z</time>
  <course>106.05</course>
  <speed>14.336334957024407</speed>
  <fix>3d</fix>
</trkpt>
<trkpt lat="-27.2735927" lon="151.2891922">
  <ele>371.9</ele>
  <time>2026-09-01T19:58:06Z</time>
  <course>105.68</course>
  <speed>14.48</speed>
  <fix>3d</fix>
</trkpt>
<trkpt lat="-27.2736035" lon="151.2892335">
  <ele>371.68</ele>
  <time>2026-09-01T19:58:06Z</time>
  <course>106.03</course>
  <speed>14.24156241428587</speed>
  <fix>3d</fix>
</trkpt>
<trkpt lat="-27.2735927" lon="151.2891922">
  <ele>371.9</ele>
  <time>2026-09-01T19:58:06Z</time>
  <course>105.68</course>
  <speed>14.48</speed>
  <fix>3d</fix>
</trkpt>
<trkpt lat="-27.273607" lon="151.2892474">
  <ele>371.67</ele>
  <time>2026-09-01T19:58:06Z</time>
  <course>106.02</course>
  <speed>14.156411974790787</speed>
  <fix>3d</fix>
</trkpt>
<trkpt lat="-27.2735998" lon="151.2892203">
  <ele>371.84</ele>
  <time>2026-09-01T19:58:06Z</time>
  <course>105.63</course>
  <speed>14.31</speed>
  <fix>3d</fix>
</trkpt>
<trkpt lat="-27.2736104" lon="151.2892612">
  <ele>371.66</ele>
  <time>2026-09-01T19:58:06Z</time>
  <course>106.01</course>
  <speed>14.07399019468182</speed>
  <fix>3d</fix>
</trkpt>
<trkpt lat="-27.2735998" lon="151.2892203">
  <ele>371.84</ele>
  <time>2026-09-01T19:58:06Z</time>
  <course>105.63</course>
  <speed>14.31</speed>
  <fix>3d</fix>
</trkpt>
<trkpt lat="-27.2736138" lon="151.2892748">
  <ele>371.66</ele>
  <time>2026-09-01T19:58:06Z</time>
  <course>106.0</course>
  <speed>13.988841982094156</speed>
  <fix>3d</fix>
</trkpt>
<trkpt lat="-27.2736067" lon="151.289248">
  <ele>371.82</ele>
  <time>2026-09-01T19:58:06Z</time>
  <course>105.59</course>
  <speed>14.14</speed>
  <fix>3d</fix>
</trkpt>
<trkpt lat="-27.2736172" lon="151.2892884">
  <ele>371.67</ele>
  <time>2026-09-01T19:58:06Z</time>
  <course>105.99</course>
  <speed>13.894074276467647</speed>
  <fix>3d</fix>
</trkpt>
<trkpt lat="-27.2736067" lon="151.289248">
  <ele>371.82</ele>
  <time>2026-09-01T19:58:06Z</time>
  <course>105.59</course>
  <speed>14.14</speed>
  <fix>3d</fix>
</trkpt>
<trkpt lat="-27.2736205" lon="151.289302">
  <ele>371.68</ele>
  <time>2026-09-01T19:58:06Z</time>
  <course>105.98</course>
  <speed>13.811650878877586</speed>
  <fix>3d</fix>
</trkpt>
<trkpt lat="-27.2736135" lon="151.2892754">
  <ele>371.81</ele>
  <time>2026-09-01T19:58:06Z</time>
  <course>105.55</course>
  <speed>13.97</speed>
  <fix>3d</fix>
</trkpt>
<trkpt lat="-27.2736238" lon="151.2893154">
  <ele>371.69</ele>
  <time>2026-09-01T19:58:06Z</time>
  <course>105.98</course>
  <speed>13.716883756888809</speed>
  <fix>3d</fix>
</trkpt>
<trkpt lat="-27.2736135" lon="151.2892754">
  <ele>371.81</ele>
  <time>2026-09-01T19:58:06Z</time>
  <course>105.55</course>
  <speed>13.97</speed>
  <fix>3d</fix>
</trkpt>
<trkpt lat="-27.2736271" lon="151.2893287">
  <ele>371.71</ele>
  <time>2026-09-01T19:58:06Z</time>
  <course>105.98</course>
  <speed>13.631742368457527</speed>
  <fix>3d</fix>
</trkpt>
<trkpt lat="-27.2736202" lon="151.2893024">
  <ele>371.82</ele>
  <time>2026-09-01T19:58:06Z</time>
  <course>105.53</course>
  <speed>13.79</speed>
  <fix>3d</fix>
</trkpt>
<trkpt lat="-27.2736304" lon="151.2893419">
  <ele>371.73</ele>
  <time>2026-09-01T19:58:06Z</time>
  <course>105.97</course>
  <speed>13.539693497269427</speed>
  <fix>3d</fix>
</trkpt>
<trkpt lat="-27.2736202" lon="151.2893024">
  <ele>371.82</ele>
  <time>2026-09-01T19:58:06Z</time>
  <course>105.53</course>
  <speed>13.79</speed>
  <fix>3d</fix>
</trkpt>
<trkpt lat="-27.2736336" lon="151.2893551">
  <ele>371.75</ele>
  <time>2026-09-01T19:58:06Z</time>
  <course>105.97</course>
  <speed>13.444928411858502</speed>
  <fix>3d</fix>
</trkpt>
<trkpt lat="-27.2736267" lon="151.289329">
  <ele>371.84</ele>
  <time>2026-09-01T19:58:06Z</time>
  <course>105.51</course>
  <speed>13.61</speed>
  <fix>3d</fix>
</trkpt>
<trkpt lat="-27.2736369" lon="151.2893682">
  <ele>371.77</ele>
  <time>2026-09-01T19:58:06Z</time>
  <course>105.98</course>
  <speed>13.352879839195738</speed>
  <fix>3d</fix>
</trkpt>
<trkpt lat="-27.2736267" lon="151.289329">
  <ele>371.84</ele>
  <time>2026-09-01T19:58:06Z</time>
  <course>105.51</course>
  <speed>13.61</speed>
  <fix>3d</fix>
</trkpt>
<trkpt lat="-27.2736401" lon="151.2893811">
  <ele>371.8</ele>
  <time>2026-09-01T19:58:06Z</time>
  <course>105.98</course>
  <speed>13.258114496413132</speed>
  <fix>3d</fix>
</trkpt>
<trkpt lat="-27.2736332" lon="151.2893553">
  <ele>371.89</ele>
  <time>2026-09-01T19:58:06Z</time>
  <course>105.5</course>
  <speed>13.43</speed>
  <fix>3d</fix>
</trkpt>
<trkpt lat="-27.2736432" lon="151.289394">
  <ele>371.82</ele>
  <time>2026-09-01T19:58:06Z</time>
  <course>105.98</course>
  <speed>13.163350637280768</speed>
  <fix>3d</fix>
</trkpt>
<trkpt lat="-27.2736332" lon="151.2893553">
  <ele>371.89</ele>
  <time>2026-09-01T19:58:06Z</time>
  <course>105.5</course>
  <speed>13.43</speed>
  <fix>3d</fix>
</trkpt>
<trkpt lat="-27.2736464" lon="151.2894069">
  <ele>371.84</ele>
  <time>2026-09-01T19:58:06Z</time>
  <course>105.99</course>
  <speed>13.061676768317305</speed>
  <fix>3d</fix>
</trkpt>
<trkpt lat="-27.2736396" lon="151.2893814">
  <ele>371.93</ele>
  <time>2026-09-01T19:58:06Z</time>
  <course>105.5</course>
  <speed>13.24</speed>
  <fix>3d</fix>
</trkpt>
<trkpt lat="-27.2736495" lon="151.2894195">
  <ele>371.87</ele>
  <time>2026-09-01T19:58:06Z</time>
  <course>106.0</course>
  <speed>12.966911737187079</speed>
  <fix>3d</fix>
</trkpt>
<trkpt lat="-27.2736396" lon="151.2893814">
  <ele>371.93</ele>
  <time>2026-09-01T19:58:06Z</time>
  <course>105.5</course>
  <speed>13.24</speed>
  <fix>3d</fix>
</trkpt>
<trkpt lat="-27.2736526" lon="151.2894321">
  <ele>371.89</ele>
  <time>2026-09-01T19:58:06Z</time>
  <course>106.0</course>
  <speed>12.862523080640129</speed>
  <fix>3d</fix>
</trkpt>
<trkpt lat="-27.2736459" lon="151.2894069">
  <ele>371.98</ele>
  <time>2026-09-01T19:58:06Z</time>
  <course>105.5</course>
  <speed>13.05</speed>
  <fix>3d</fix>
</trkpt>
<trkpt lat="-27.2736557" lon="151.2894446">
  <ele>371.91</ele>
  <time>2026-09-01T19:58:06Z</time>
  <course>106.01</course>
  <speed>12.760850285149496</speed>
  <fix>3d</fix>
</trkpt>
<trkpt lat="-27.2736459" lon="151.2894069">
  <ele>371.98</ele>
  <time>2026-09-01T19:58:06Z</time>
  <course>105.5</course>
  <speed>13.05</speed>
  <fix>3d</fix>
</trkpt>
<trkpt lat="-27.2736587" lon="151.2894569">
  <ele>371.94</ele>
  <time>2026-09-01T19:58:06Z</time>
  <course>106.02</course>
  <speed>12.656460800713603</speed>
  <fix>3d</fix>
</trkpt>
<trkpt lat="-27.2736522" lon="151.2894322">
  <ele>372.03</ele>
  <time>2026-09-01T19:58:06Z</time>
  <course>105.5</course>
  <speed>12.86</speed>
  <fix>3d</fix>
</trkpt>
<trkpt lat="-27.2736618" lon="151.2894692">
  <ele>371.96</ele>
  <time>2026-09-01T19:58:06Z</time>
  <course>106.03</course>
  <speed>12.552071542179801</speed>
  <fix>3d</fix>
</trkpt>
<trkpt lat="-27.2736522" lon="151.2894322">
  <ele>372.03</ele>
  <time>2026-09-01T19:58:06Z</time>
  <course>105.5</course>
  <speed>12.86</speed>
  <fix>3d</fix>
</trkpt>
<trkpt lat="-27.2736648" lon="151.2894814">
  <ele>371.99</ele>
  <time>2026-09-01T19:58:06Z</time>
  <course>106.04</course>
  <speed>12.438058530172626</speed>
  <fix>3d</fix>
</trkpt>
<trkpt lat="-27.2736583" lon="151.2894571">
  <ele>372.08</ele>
  <time>2026-09-01T19:58:06Z</time>
  <course>105.51</course>
  <speed>12.65</speed>
  <fix>3d</fix>
</trkpt>
<trkpt lat="-27.2736677" lon="151.2894934">
  <ele>372.02</ele>
  <time>2026-09-01T19:58:06Z</time>
  <course>106.06</course>
  <speed>12.314422438750425</speed>
  <fix>3d</fix>
</trkpt>
<trkpt lat="-27.2736583" lon="151.2894571">
  <ele>372.08</ele>
  <time>2026-09-01T19:58:06Z</time>
  <course>105.51</course>
  <speed>12.65</speed>
  <fix>3d</fix>
</trkpt>
<trkpt lat="-27.2736707" lon="151.2895053">
  <ele>372.05</ele>
  <time>2026-09-01T19:58:06Z</time>
  <course>106.07</course>
  <speed>12.1880679354851</speed>
  <fix>3d</fix>
</trkpt>
<trkpt lat="-27.2736644" lon="151.2894815">
  <ele>372.13</ele>
  <time>2026-09-01T19:58:06Z</time>
  <course>105.52</course>
  <speed>12.43</speed>
  <fix>3d</fix>
</trkpt>
<trkpt lat="-27.2736736" lon="151.2895171">
  <ele>372.07</ele>
  <time>2026-09-01T19:58:06Z</time>
  <course>106.08</course>
  <speed>12.064431192559391</speed>
  <fix>3d</fix>
</trkpt>
<trkpt lat="-27.2736644" lon="151.2894815">
  <ele>372.13</ele>
  <time>2026-09-01T19:58:06Z</time>
  <course>105.52</course>
  <speed>12.43</speed>
  <fix>3d</fix>
</trkpt>
<trkpt lat="-27.2736765" lon="151.2895288">
  <ele>372.11</ele>
  <time>2026-09-01T19:58:06Z</time>
  <course>106.1</course>
  <speed>11.928453378372234</speed>
  <fix>3d</fix>
</trkpt>
<trkpt lat="-27.2736703" lon="151.2895055">
  <ele>372.19</ele>
  <time>2026-09-01T19:58:06Z</time>
  <course>105.53</course>
  <speed>12.19</speed>
  <fix>3d</fix>
</trkpt>
<trkpt lat="-27.2736793" lon="151.2895404">
  <ele>372.14</ele>
  <time>2026-09-01T19:58:06Z</time>
  <course>106.11</course>
  <speed>11.785571687449023</speed>
  <fix>3d</fix>
</trkpt>
<trkpt lat="-27.2736703" lon="151.2895055">
  <ele>372.19</ele>
  <time>2026-09-01T19:58:06Z</time>
  <course>105.53</course>
  <speed>12.19</speed>
  <fix>3d</fix>
</trkpt>
<trkpt lat="-27.2736821" lon="151.2895518">
  <ele>372.17</ele>
  <time>2026-09-01T19:58:06Z</time>
  <course>106.12</course>
  <speed>11.63996993123264</speed>
  <fix>3d</fix>
</trkpt>
<trkpt lat="-27.273676" lon="151.289529">
  <ele>372.25</ele>
  <time>2026-09-01T19:58:06Z</time>
  <course>105.54</course>
  <speed>11.93</speed>
  <fix>3d</fix>
</trkpt>
<trkpt lat="-27.2736849" lon="151.289563">
  <ele>372.2</ele>
  <time>2026-09-01T19:58:06Z</time>
  <course>106.14</course>
  <speed>11.503990611957226</speed>
  <fix>3d</fix>
</trkpt>
<trkpt lat="-27.273676" lon="151.289529">
  <ele>372.25</ele>
  <time>2026-09-01T19:58:06Z</time>
  <course>105.54</course>
  <speed>11.93</speed>
  <fix>3d</fix>
</trkpt>
<trkpt lat="-27.2736877" lon="151.2895742">
  <ele>372.22</ele>
  <time>2026-09-01T19:58:06Z</time>
  <course>106.15</course>
  <speed>11.358388970272149</speed>
  <fix>3d</fix>
</trkpt>
<trkpt lat="-27.2736818" lon="151.289552">
  <ele>372.31</ele>
  <time>2026-09-01T19:58:06Z</time>
  <course>105.56</course>
  <speed>11.66</speed>
  <fix>3d</fix>
</trkpt>
<trkpt lat="-27.2736904" lon="151.2895852">
  <ele>372.25</ele>
  <time>2026-09-01T19:58:06Z</time>
  <course>106.16</course>
  <speed>11.212787343029385</speed>
  <fix>3d</fix>
</trkpt>
<trkpt lat="-27.2736818" lon="151.289552">
  <ele>372.31</ele>
  <time>2026-09-01T19:58:06Z</time>
  <course>105.56</course>
  <speed>11.66</speed>
  <fix>3d</fix>
</trkpt>
<trkpt lat="-27.2736931" lon="151.289596">
  <ele>372.27</ele>
  <time>2026-09-01T19:58:06Z</time>
  <course>106.17</course>
  <speed>11.069909665394746</speed>
  <fix>3d</fix>
</trkpt>
<trkpt lat="-27.2736873" lon="151.2895744">
  <ele>372.36</ele>
  <time>2026-09-01T19:58:06Z</time>
  <course>105.58</course>
  <speed>11.37</speed>
  <fix>3d</fix>
</trkpt>
<trkpt lat="-27.2736957" lon="151.2896067">
  <ele>372.29</ele>
  <time>2026-09-01T19:58:06Z</time>
  <course>106.18</course>
  <speed>10.924307758389086</speed>
  <fix>3d</fix>
</trkpt>
<trkpt lat="-27.2736873" lon="151.2895744">
  <ele>372.36</ele>
  <time>2026-09-01T19:58:06Z</time>
  <course>105.58</course>
  <speed>11.37</speed>
  <fix>3d</fix>
</trkpt>
<trkpt lat="-27.2736984" lon="151.2896173">
  <ele>372.3</ele>
  <time>2026-09-01T19:58:06Z</time>
  <course>106.2</course>
  <speed>10.778705859239317</speed>
  <fix>3d</fix>
</trkpt>
<trkpt lat="-27.2736927" lon="151.2895962">
  <ele>372.41</ele>
  <time>2026-09-01T19:58:06Z</time>
  <course>105.6</course>
  <speed>11.08</speed>
  <fix>3d</fix>
</trkpt>
<trkpt lat="-27.2737009" lon="151.2896277">
  <ele>372.32</ele>
  <time>2026-09-01T19:58:06Z</time>
  <course>106.2</course>
  <speed>10.633103968268156</speed>
  <fix>3d</fix>
</trkpt>
<trkpt lat="-27.2736927" lon="151.2895962">
  <ele>372.41</ele>
  <time>2026-09-01T19:58:06Z</time>
  <course>105.6</course>
  <speed>11.08</speed>
  <fix>3d</fix>
</trkpt>
<trkpt lat="-27.2737035" lon="151.2896379">
  <ele>372.33</ele>
  <time>2026-09-01T19:58:06Z</time>
  <course>106.21</course>
  <speed>10.497123415488645</speed>
  <fix>3d</fix>
</trkpt>
<trkpt lat="-27.273698" lon="151.2896175">
  <ele>372.44</ele>
  <time>2026-09-01T19:58:06Z</time>
  <course>105.61</course>
  <speed>10.8</speed>
  <fix>3d</fix>
</trkpt>
<trkpt lat="-27.273706" lon="151.2896481">
  <ele>372.34</ele>
  <time>2026-09-01T19:58:06Z</time>
  <course>106.22</course>
  <speed>10.35425033500736</speed>
  <fix>3d</fix>
</trkpt>
<trkpt lat="-27.273698" lon="151.2896175">
  <ele>372.44</ele>
  <time>2026-09-01T19:58:06Z</time>
  <course>105.61</course>
  <speed>10.8</speed>
  <fix>3d</fix>
</trkpt>
<trkpt lat="-27.2737085" lon="151.2896581">
  <ele>372.35</ele>
  <time>2026-09-01T19:58:06Z</time>
  <course>106.22</course>
  <speed>10.199029365581804</speed>
  <fix>3d</fix>
</trkpt>
<trkpt lat="-27.2737032" lon="151.2896383">
  <ele>372.47</ele>
  <time>2026-09-01T19:58:06Z</time>
  <course>105.63</course>
  <speed>10.52</speed>
  <fix>3d</fix>
</trkpt>
<trkpt lat="-27.2737109" lon="151.289668">
  <ele>372.37</ele>
  <time>2026-09-01T19:58:06Z</time>
  <course>106.23</course>
  <speed>10.041075639591607</speed>
  <fix>3d</fix>
</trkpt>
<trkpt lat="-27.2737032" lon="151.2896383">
  <ele>372.47</ele>
  <time>2026-09-01T19:58:06Z</time>
  <course>105.63</course>
  <speed>10.52</speed>
  <fix>3d</fix>
</trkpt>
<trkpt lat="-27.2737134" lon="151.2896779">
  <ele>372.39</ele>
  <time>2026-09-01T19:58:06Z</time>
  <course>106.23</course>
  <speed>9.885853529159736</speed>
  <fix>3d</fix>
</trkpt>
<trkpt lat="-27.2737082" lon="151.2896585">
  <ele>372.5</ele>
  <time>2026-09-01T19:58:06Z</time>
  <course>105.65</course>
  <speed>10.22</speed>
  <fix>3d</fix>
</trkpt>
<trkpt lat="-27.2737158" lon="151.2896874">
  <ele>372.41</ele>
  <time>2026-09-01T19:58:06Z</time>
  <course>106.24</course>
  <speed>9.7113953683289</speed>
  <fix>3d</fix>
</trkpt>
<trkpt lat="-27.2737082" lon="151.2896585">
  <ele>372.5</ele>
  <time>2026-09-01T19:58:06Z</time>
  <course>105.65</course>
  <speed>10.22</speed>
  <fix>3d</fix>
</trkpt>
<trkpt lat="-27.2737181" lon="151.2896968">
  <ele>372.44</ele>
  <time>2026-09-01T19:58:06Z</time>
  <course>106.25</course>
  <speed>9.543819989920179</speed>
  <fix>3d</fix>
</trkpt>
<trkpt lat="-27.2737131" lon="151.2896781">
  <ele>372.53</ele>
  <time>2026-09-01T19:58:06Z</time>
  <course>105.66</course>
  <speed>9.91</speed>
  <fix>3d</fix>
</trkpt>
<trkpt lat="-27.2737204" lon="151.289706">
  <ele>372.47</ele>
  <time>2026-09-01T19:58:06Z</time>
  <course>106.26</course>
  <speed>9.357008068822</speed>
  <fix>3d</fix>
</trkpt>
<trkpt lat="-27.2737131" lon="151.2896781">
  <ele>372.53</ele>
  <time>2026-09-01T19:58:06Z</time>
  <course>105.66</course>
  <speed>9.91</speed>
  <fix>3d</fix>
</trkpt>
<trkpt lat="-27.2737226" lon="151.2897149">
  <ele>372.51</ele>
  <time>2026-09-01T19:58:06Z</time>
  <course>106.27</course>
  <speed>9.179814812946937</speed>
  <fix>3d</fix>
</trkpt>
<trkpt lat="-27.2737178" lon="151.2896971">
  <ele>372.58</ele>
  <time>2026-09-01T19:58:06Z</time>
  <course>105.67</course>
  <speed>9.57</speed>
  <fix>3d</fix>
</trkpt>
<trkpt lat="-27.2737248" lon="151.2897238">
  <ele>372.55</ele>
  <time>2026-09-01T19:58:06Z</time>
  <course>106.28</course>
  <speed>8.983384662809447</speed>
  <fix>3d</fix>
</trkpt>
<trkpt lat="-27.2737178" lon="151.2896971">
  <ele>372.58</ele>
  <time>2026-09-01T19:58:06Z</time>
  <course>105.67</course>
  <speed>9.57</speed>
  <fix>3d</fix>
</trkpt>
<trkpt lat="-27.2737269" lon="151.2897324">
  <ele>372.59</ele>
  <time>2026-09-01T19:58:06Z</time>
  <course>106.29</course>
  <speed>8.793838752217374</speed>
  <fix>3d</fix>
</trkpt>
<trkpt lat="-27.2737224" lon="151.2897154">
  <ele>372.65</ele>
  <time>2026-09-01T19:58:06Z</time>
  <course>105.68</course>
  <speed>9.22</speed>
  <fix>3d</fix>
</trkpt>
<trkpt lat="-27.273729" lon="151.2897408">
  <ele>372.63</ele>
  <time>2026-09-01T19:58:06Z</time>
  <course>106.3</course>
  <speed>8.597406585709436</speed>
  <fix>3d</fix>
</trkpt>
<trkpt lat="-27.2737224" lon="151.2897154">
  <ele>372.65</ele>
  <time>2026-09-01T19:58:06Z</time>
  <course>105.68</course>
  <speed>9.22</speed>
  <fix>3d</fix>
</trkpt>
<trkpt lat="-27.2737311" lon="151.2897491">
  <ele>372.67</ele>
  <time>2026-09-01T19:58:06Z</time>
  <course>106.31</course>
  <speed>8.410594509307888</speed>
  <fix>3d</fix>
</trkpt>
<trkpt lat="-27.2737268" lon="151.289733">
  <ele>372.72</ele>
  <time>2026-09-01T19:58:06Z</time>
  <course>105.69</course>
  <speed>8.84</speed>
  <fix>3d</fix>
</trkpt>
<trkpt lat="-27.2737331" lon="151.2897572">
  <ele>372.71</ele>
  <time>2026-09-01T19:58:06Z</time>
  <course>106.32</course>
  <speed>8.214164595380348</speed>
  <fix>3d</fix>
</trkpt>
<trkpt lat="-27.2737268" lon="151.289733">
  <ele>372.72</ele>
  <time>2026-09-01T19:58:06Z</time>
  <course>105.69</course>
  <speed>8.84</speed>
  <fix>3d</fix>
</trkpt>
<trkpt lat="-27.2737351" lon="151.2897651">
  <ele>372.74</ele>
  <time>2026-09-01T19:58:06Z</time>
  <course>106.32</course>
  <speed>8.014998440424053</speed>
  <fix>3d</fix>
</trkpt>
<trkpt lat="-27.273731" lon="151.2897499">
  <ele>372.8</ele>
  <time>2026-09-01T19:58:06Z</time>
  <course>105.69</course>
  <speed>8.46</speed>
  <fix>3d</fix>
</trkpt>
<trkpt lat="-27.273737" lon="151.2897728">
  <ele>372.78</ele>
  <time>2026-09-01T19:58:06Z</time>
  <course>106.33</course>
  <speed>7.818567643756752</speed>
  <fix>3d</fix>
</trkpt>
<trkpt lat="-27.273731" lon="151.2897499">
  <ele>372.8</ele>
  <time>2026-09-01T19:58:06Z</time>
  <course>105.69</course>
  <speed>8.46</speed>
  <fix>3d</fix>
</trkpt>
<trkpt lat="-27.2737389" lon="151.2897804">
  <ele>372.82</ele>
  <time>2026-09-01T19:58:06Z</time>
  <course>106.34</course>
  <speed>7.619402863742014</speed>
  <fix>3d</fix>
</trkpt>
<trkpt lat="-27.273735" lon="151.2897659">
  <ele>372.88</ele>
  <time>2026-09-01T19:58:06Z</time>
  <course>105.69</course>
  <speed>8.07</speed>
  <fix>3d</fix>
</trkpt>
<trkpt lat="-27.2737407" lon="151.2897877">
  <ele>372.85</ele>
  <time>2026-09-01T19:58:06Z</time>
  <course>106.34</course>
  <speed>7.42297110327125</speed>
  <fix>3d</fix>
</trkpt>
<trkpt lat="-27.273735" lon="151.2897659">
  <ele>372.88</ele>
  <time>2026-09-01T19:58:06Z</time>
  <course>105.69</course>
  <speed>8.07</speed>
  <fix>3d</fix>
</trkpt>
<trkpt lat="-27.2737425" lon="151.2897949">
  <ele>372.87</ele>
  <time>2026-09-01T19:58:06Z</time>
  <course>106.35</course>
  <speed>7.233429338840603</speed>
  <fix>3d</fix>
</trkpt>
<trkpt lat="-27.2737388" lon="151.2897813">
  <ele>372.95</ele>
  <time>2026-09-01T19:58:06Z</time>
  <course>105.69</course>
  <speed>7.68</speed>
  <fix>3d</fix>
</trkpt>
<trkpt lat="-27.2737442" lon="151.2898019">
  <ele>372.89</ele>
  <time>2026-09-01T19:58:06Z</time>
  <course>106.35</course>
  <speed>7.03699509734091</speed>
  <fix>3d</fix>
</trkpt>
<trkpt lat="-27.2737388" lon="151.2897813">
  <ele>372.95</ele>
  <time>2026-09-01T19:58:06Z</time>
  <course>105.69</course>
  <speed>7.68</speed>
  <fix>3d</fix>
</trkpt>
<trkpt lat="-27.2737459" lon="151.2898087">
  <ele>372.91</ele>
  <time>2026-09-01T19:58:06Z</time>
  <course>106.36</course>
  <speed>6.850182479321263</speed>
  <fix>3d</fix>
</trkpt>
<trkpt lat="-27.2737425" lon="151.2897959">
  <ele>373.0</ele>
  <time>2026-09-01T19:58:06Z</time>
  <course>105.68</course>
  <speed>7.29</speed>
  <fix>3d</fix>
</trkpt>
<trkpt lat="-27.2737475" lon="151.2898153">
  <ele>372.91</ele>
  <time>2026-09-01T19:58:06Z</time>
  <course>106.36</course>
  <speed>6.660645614353012</speed>
  <fix>3d</fix>
</trkpt>
<trkpt lat="-27.2737425" lon="151.2897959">
  <ele>373.0</ele>
  <time>2026-09-01T19:58:06Z</time>
  <course>105.68</course>
  <speed>7.29</speed>
  <fix>3d</fix>
</trkpt>
<trkpt lat="-27.2737491" lon="151.2898217">
  <ele>372.89</ele>
  <time>2026-09-01T19:58:06Z</time>
  <course>106.35</course>
  <speed>6.4545875158680746</speed>
  <fix>3d</fix>
</trkpt>
<trkpt lat="-27.2737459" lon="151.2898097">
  <ele>373.03</ele>
  <time>2026-09-01T19:58:06Z</time>
  <course>105.67</course>
  <speed>6.9</speed>
  <fix>3d</fix>
</trkpt>
<trkpt lat="-27.2737507" lon="151.2898279">
  <ele>372.8</ele>
  <time>2026-09-01T19:58:06Z</time>
  <course>106.36</course>
  <speed>6.109828148156051</speed>
  <fix>3d</fix>
</trkpt>
<trkpt lat="-27.2737459" lon="151.2898097">
  <ele>373.03</ele>
  <time>2026-09-01T19:58:06Z</time>
  <course>105.67</course>
  <speed>6.9</speed>
  <fix>3d</fix>
</trkpt>
<trkpt lat="-27.2737521" lon="151.2898336">
  <ele>372.67</ele>
  <time>2026-09-01T19:58:06Z</time>
  <course>106.42</course>
  <speed>5.619475064452194</speed>
  <fix>3d</fix>
</trkpt>
<trkpt lat="-27.2737492" lon="151.2898227">
  <ele>372.99</ele>
  <time>2026-09-01T19:58:06Z</time>
  <course>105.65</course>
  <speed>6.44</speed>
  <fix>3d</fix>
</trkpt>
<trkpt lat="-27.2737534" lon="151.2898389">
  <ele>372.5</ele>
  <time>2026-09-01T19:58:06Z</time>
  <course>106.53</course>
  <speed>5.056332663106731</speed>
  <fix>3d</fix>
</trkpt>
<trkpt lat="-27.2737492" lon="151.2898227">
  <ele>372.99</ele>
  <time>2026-09-01T19:58:06Z</time>
  <course>105.65</course>
  <speed>6.44</speed>
  <fix>3d</fix>
</trkpt>
<trkpt lat="-27.2737545" lon="151.2898436">
  <ele>372.33</ele>
  <time>2026-09-01T19:58:06Z</time>
  <course>106.66</course>
  <speed>4.45467170507547</speed>
  <fix>3d</fix>
</trkpt>
<trkpt lat="-27.2737521" lon="151.2898345">
  <ele>372.79</ele>
  <time>2026-09-01T19:58:06Z</time>
  <course>105.62</course>
  <speed>5.64</speed>
  <fix>3d</fix>
</trkpt>
<trkpt lat="-27.2737555" lon="151.2898477">
  <ele>372.15</ele>
  <time>2026-09-01T19:58:06Z</time>
  <course>106.8</course>
  <speed>3.8503246616356908</speed>
  <fix>3d</fix>
</trkpt>
<trkpt lat="-27.2737521" lon="151.2898345">
  <ele>372.79</ele>
  <time>2026-09-01T19:58:06Z</time>
  <course>105.62</course>
  <speed>5.64</speed>
  <fix>3d</fix>
</trkpt>
<trkpt lat="-27.2737564" lon="151.2898512">
  <ele>371.97</ele>
  <time>2026-09-01T19:58:06Z</time>
  <course>106.94</course>
  <speed>3.267935127875093</speed>
  <fix>3d</fix>
</trkpt>
<trkpt lat="-27.2737545" lon="151.2898444">
  <ele>372.46</ele>
  <time>2026-09-01T19:58:06Z</time>
  <course>105.58</course>
  <speed>4.52</speed>
  <fix>3d</fix>
</trkpt>
<trkpt lat="-27.2737571" lon="151.2898542">
  <ele>371.81</ele>
  <time>2026-09-01T19:58:06Z</time>
  <course>107.06</course>
  <speed>2.717130839691015</speed>
  <fix>3d</fix>
</trkpt>
<trkpt lat="-27.2737545" lon="151.2898444">
  <ele>372.46</ele>
  <time>2026-09-01T19:58:06Z</time>
  <course>105.58</course>
  <speed>4.52</speed>
  <fix>3d</fix>
</trkpt>
<trkpt lat="-27.2737577" lon="151.2898567">
  <ele>371.68</ele>
  <time>2026-09-01T19:58:06Z</time>
  <course>107.16</course>
  <speed>2.2198423367437607</speed>
  <fix>3d</fix>
</trkpt>
<trkpt lat="-27.2737565" lon="151.2898521">
  <ele>372.11</ele>
  <time>2026-09-01T19:58:06Z</time>
  <course>105.56</course>
  <speed>3.35</speed>
  <fix>3d</fix>
</trkpt>
<trkpt lat="-27.2737582" lon="151.2898587">
  <ele>371.56</ele>
  <time>2026-09-01T19:58:06Z</time>
  <course>107.24</course>
  <speed>1.7637743619862492</speed>
  <fix>3d</fix>
</trkpt>
<trkpt lat="-27.2737565" lon="151.2898521">
  <ele>372.11</ele>
  <time>2026-09-01T19:58:06Z</time>
  <course>105.56</course>
  <speed>3.35</speed>
  <fix>3d</fix>
</trkpt>
<trkpt lat="-27.2737586" lon="151.2898603">
  <ele>371.47</ele>
  <time>2026-09-01T19:58:06Z</time>
  <course>107.3</course>
  <speed>1.370875632579411</speed>
  <fix>3d</fix>
</trkpt>
<trkpt lat="-27.2737578" lon="151.2898576">
  <ele>371.81</ele>
  <time>2026-09-01T19:58:06Z</time>
  <course>105.66</course>
  <speed>2.3</speed>
  <fix>3d</fix>
</trkpt>
<trkpt lat="-27.2737589" lon="151.2898616">
  <ele>371.41</ele>
  <time>2026-09-01T19:58:06Z</time>
  <course>107.34</course>
  <speed>1.0288342918079665</speed>
  <fix>3d</fix>
</trkpt>
<trkpt lat="-27.2737578" lon="151.2898576">
  <ele>371.81</ele>
  <time>2026-09-01T19:58:06Z</time>
  <course>105.66</course>
  <speed>2.3</speed>
  <fix>3d</fix>
</trkpt>
<trkpt lat="-27.2737591" lon="151.2898625">
  <ele>371.38</ele>
  <time>2026-09-01T19:58:06Z</time>
  <course>107.37</course>
  <speed>0.7528612089887484</speed>
  <fix>3d</fix>
</trkpt>
<trkpt lat="-27.2737587" lon="151.2898612">
  <ele>371.6</ele>
  <time>2026-09-01T19:58:06Z</time>
  <course>106.09</course>
  <speed>1.45</speed>
  <fix>3d</fix>
</trkpt>
<trkpt lat="-27.2737593" lon="151.2898632">
  <ele>371.37</ele>
  <time>2026-09-01T19:58:06Z</time>
  <course>107.38</course>
  <speed>0.5249761899362675</speed>
  <fix>3d</fix>
</trkpt>
<trkpt lat="-27.2737587" lon="151.2898612">
  <ele>371.6</ele>
  <time>2026-09-01T19:58:06Z</time>
  <course>106.09</course>
  <speed>1.45</speed>
  <fix>3d</fix>
</trkpt>
<trkpt lat="-27.2737594" lon="151.2898637">
  <ele>371.39</ele>
  <time>2026-09-01T19:58:06Z</time>
  <course>107.38</course>
  <speed>0.3640054944640259</speed>
  <fix>3d</fix>
</trkpt>
<trkpt lat="-27.2737593" lon="151.2898634">
  <ele>371.51</ele>
  <time>2026-09-01T19:58:06Z</time>
  <course>107.28</course>
  <speed>0.82</speed>
  <fix>3d</fix>
</trkpt>
<trkpt lat="-27.2737596" lon="151.2898641">
  <ele>371.43</ele>
  <time>2026-09-01T19:58:06Z</time>
  <course>107.38</course>
  <speed>0.24166091947189144</speed>
  <fix>3d</fix>
</trkpt>
<trkpt lat="-27.2737593" lon="151.2898634">
  <ele>371.51</ele>
  <time>2026-09-01T19:58:06Z</time>
  <course>107.28</course>
  <speed>0.82</speed>
  <fix>3d</fix>
</trkpt>
<trkpt lat="-27.2737597" lon="151.2898643">
  <ele>371.49</ele>
  <time>2026-09-01T19:58:06Z</time>
  <course>107.38</course>
  <speed>0.16124515496597097</speed>
  <fix>3d</fix>
</trkpt>
<trkpt lat="-27.2737597" lon="151.2898645">
  <ele>371.52</ele>
  <time>2026-09-01T19:58:06Z</time>
  <course>110.34</course>
  <speed>0.42</speed>
  <fix>3d</fix>
</trkpt>
<trkpt lat="-27.2737598" lon="151.2898645">
  <ele>371.57</ele>
  <time>2026-09-01T19:58:06Z</time>
  <course>107.38</course>
  <speed>0.12041594578792296</speed>
  <fix>3d</fix>
</trkpt>
<trkpt lat="-27.2737597" lon="151.2898645">
  <ele>371.52</ele>
  <time>2026-09-01T19:58:06Z</time>
  <course>110.34</course>
  <speed>0.42</speed>
  <fix>3d</fix>
</trkpt>
<trkpt lat="-27.2737598" lon="151.2898647">
  <ele>371.64</ele>
  <time>2026-09-01T19:58:06Z</time>
  <course>107.39</course>
  <speed>0.09219544457292887</speed>
  <fix>3d</fix>
</trkpt>
<trkpt lat="-27.2737599" lon="151.2898651">
  <ele>371.62</ele>
  <time>2026-09-01T19:58:06Z</time>
  <course>117.27</course>
  <speed>0.2</speed>
  <fix>3d</fix>
</trkpt>
<trkpt lat="-27.2737599" lon="151.2898648">
  <ele>371.72</ele>
  <time>2026-09-01T19:58:06Z</time>
  <course>107.41</course>
  <speed>0.08062257748298549</speed>
  <fix>3d</fix>
</trkpt>
<trkpt lat="-27.2737599" lon="151.2898651">
  <ele>371.62</ele>
  <time>2026-09-01T19:58:06Z</time>
  <course>117.27</course>
  <speed>0.2</speed>
  <fix>3d</fix>
</trkpt>
<trkpt lat="-27.27376" lon="151.2898649">
  <ele>371.8</ele>
  <time>2026-09-01T19:58:06Z</time>
  <course>107.43</course>
  <speed>0.07615773105863909</speed>
  <fix>3d</fix>
</trkpt>
<trkpt lat="-27.27376" lon="151.2898654">
  <ele>371.76</ele>
  <time>2026-09-01T19:58:06Z</time>
  <course>128.31</course>
  <speed>0.11</speed>
  <fix>3d</fix>
</trkpt>
<trkpt lat="-27.2737601" lon="151.289865">
  <ele>371.86</ele>
  <time>2026-09-01T19:58:06Z</time>
  <course>107.46</course>
  <speed>0.07280109889280519</speed>
  <fix>3d</fix>
</trkpt>
<trkpt lat="-27.27376" lon="151.2898654">
  <ele>371.76</ele>
  <time>2026-09-01T19:58:06Z</time>
  <course>128.31</course>
  <speed>0.11</speed>
  <fix>3d</fix>
</trkpt>
<trkpt lat="-27.2737601" lon="151.289865">
  <ele>371.92</ele>
  <time>2026-09-01T19:58:06Z</time>
  <course>107.49</course>
  <speed>0.06082762530298219</speed>
  <fix>3d</fix>
</trkpt>
<trkpt lat="-27.2737601" lon="151.2898655">
  <ele>371.91</ele>
  <time>2026-09-01T19:58:06Z</time>
  <course>139.42</course>
  <speed>0.07</speed>
  <fix>3d</fix>
</trkpt>
<trkpt lat="-27.2737602" lon="151.2898651">
  <ele>371.97</ele>
  <time>2026-09-01T19:58:06Z</time>
  <course>107.5</course>
  <speed>0.06082762530298219</speed>
  <fix>3d</fix>
</trkpt>
<trkpt lat="-27.2737601" lon="151.2898655">
  <ele>371.91</ele>
  <time>2026-09-01T19:58:06Z</time>
  <course>139.42</course>
  <speed>0.07</speed>
  <fix>3d</fix>
</trkpt>
<trkpt lat="-27.2737603" lon="151.2898652">
  <ele>372.01</ele>
  <time>2026-09-01T19:58:06Z</time>
  <course>107.5</course>
  <speed>0.07071067811865475</speed>
  <fix>3d</fix>
</trkpt>
<trkpt lat="-27.2737602" lon="151.2898656">
  <ele>372.04</ele>
  <time>2026-09-01T19:58:06Z</time>
  <course>146.67</course>
  <speed>0.06</speed>
  <fix>3d</fix>
</trkpt>
<trkpt lat="-27.2737603" lon="151.2898652">
  <ele>372.04</ele>
  <time>2026-09-01T19:58:06Z</time>
  <course>107.48</course>
  <speed>0.07071067811865475</speed>
  <fix>3d</fix>
</trkpt>
<trkpt lat="-27.2737602" lon="151.2898656">
  <ele>372.04</ele>
  <time>2026-09-01T19:58:06Z</time>
  <course>146.67</course>
  <speed>0.06</speed>
  <fix>3d</fix>
</trkpt>
<trkpt lat="-27.2737604" lon="151.2898653">
  <ele>372.05</ele>
  <time>2026-09-01T19:58:06Z</time>
  <course>107.44</course>
  <speed>0.07280109889280519</speed>
  <fix>3d</fix>
</trkpt>
<trkpt lat="-27.2737603" lon="151.2898657">
  <ele>372.13</ele>
  <time>2026-09-01T19:58:06Z</time>
  <course>146.4</course>
  <speed>0.05</speed>
  <fix>3d</fix>
</trkpt>
<trkpt lat="-27.2737605" lon="151.2898654">
  <ele>372.05</ele>
  <time>2026-09-01T19:58:06Z</time>
  <course>107.4</course>
  <speed>0.08062257748298549</speed>
  <fix>3d</fix>
</trkpt>
<trkpt lat="-27.2737603" lon="151.2898657">
  <ele>372.13</ele>
  <time>2026-09-01T19:58:06Z</time>
  <course>146.4</course>
  <speed>0.05</speed>
  <fix>3d</fix>
</trkpt>
<trkpt lat="-27.2737605" lon="151.2898655">
  <ele>372.05</ele>
  <time>2026-09-01T19:58:06Z</time>
  <course>107.35</course>
  <speed>0.09433981132056603</speed>
  <fix>3d</fix>
</trkpt>
<trkpt lat="-27.2737604" lon="151.2898657">
  <ele>372.16</ele>
  <time>2026-09-01T19:58:06Z</time>
  <course>136.62</course>
  <speed>0.06</speed>
  <fix>3d</fix>
</trkpt>
<trkpt lat="-27.2737606" lon="151.2898656">
  <ele>372.03</ele>
  <time>2026-09-01T19:58:06Z</time>
  <course>107.3</course>
  <speed>0.1131370849898476</speed>
  <fix>3d</fix>
</trkpt>
<trkpt lat="-27.2737604" lon="151.2898657">
  <ele>372.16</ele>
  <time>2026-09-01T19:58:06Z</time>
  <course>136.62</course>
  <speed>0.06</speed>
  <fix>3d</fix>
</trkpt>
<trkpt lat="-27.2737607" lon="151.2898657">
  <ele>372.02</ele>
  <time>2026-09-01T19:58:06Z</time>
  <course>107.27</course>
  <speed>0.14212670403551894</speed>
  <fix>3d</fix>
</trkpt>
<trkpt lat="-27.2737605" lon="151.2898659">
  <ele>372.16</ele>
  <time>2026-09-01T19:58:06Z</time>
  <course>123.79</course>
  <speed>0.09</speed>
  <fix>3d</fix>
</trkpt>
<trkpt lat="-27.2737607" lon="151.2898659">
  <ele>372.0</ele>
  <time>2026-09-01T19:58:06Z</time>
  <course>107.26</course>
  <speed>0.17204650534085253</speed>
  <fix>3d</fix>
</trkpt>
<trkpt lat="-27.2737605" lon="151.2898659">
  <ele>372.16</ele>
  <time>2026-09-01T19:58:06Z</time>
  <course>123.79</course>
  <speed>0.09</speed>
  <fix>3d</fix>
</trkpt>
<trkpt lat="-27.2737608" lon="151.2898661">
  <ele>371.97</ele>
  <time>2026-09-01T19:58:06Z</time>
  <course>107.26</course>
  <speed>0.2109502310972899</speed>
  <fix>3d</fix>
</trkpt>
<trkpt lat="-27.2737606" lon="151.289866">
  <ele>372.14</ele>
  <time>2026-09-01T19:58:06Z</time>
  <course>114.73</course>
  <speed>0.13</speed>
  <fix>3d</fix>
</trkpt>
<trkpt lat="-27.2737609" lon="151.2898663">
  <ele>371.95</ele>
  <time>2026-09-01T19:58:06Z</time>
  <course>107.27</course>
  <speed>0.25059928172283336</speed>
  <fix>3d</fix>
</trkpt>
<trkpt lat="-27.2737606" lon="151.289866">
  <ele>372.14</ele>
  <time>2026-09-01T19:58:06Z</time>
  <course>114.73</course>
  <speed>0.13</speed>
  <fix>3d</fix>
</trkpt>
<trkpt lat="-27.273761" lon="151.2898666">
  <ele>371.93</ele>
  <time>2026-09-01T19:58:06Z</time>
  <course>107.28</course>
  <speed>0.2906888370749727</speed>
  <fix>3d</fix>
</trkpt>
<trkpt lat="-27.2737607" lon="151.2898664">
  <ele>372.09</ele>
  <time>2026-09-01T19:58:06Z</time>
  <course>109.6</course>
  <speed>0.21</speed>
  <fix>3d</fix>
</trkpt>
<trkpt lat="-27.2737611" lon="151.2898669">
  <ele>371.91</ele>
  <time>2026-09-01T19:58:06Z</time>
  <course>107.3</course>
  <speed>0.340147027033899</speed>
  <fix>3d</fix>
</trkpt>
<trkpt lat="-27.2737607" lon="151.2898664">
  <ele>372.09</ele>
  <time>2026-09-01T19:58:06Z</time>
  <course>109.6</course>
  <speed>0.21</speed>
  <fix>3d</fix>
</trkpt>
<trkpt lat="-27.2737612" lon="151.2898673">
  <ele>371.9</ele>
  <time>2026-09-01T19:58:06Z</time>
  <course>107.32</course>
  <speed>0.3992492955535426</speed>
  <fix>3d</fix>
</trkpt>
<trkpt lat="-27.2737609" lon="151.2898669">
  <ele>372.05</ele>
  <time>2026-09-01T19:58:06Z</time>
  <course>106.78</course>
  <speed>0.3</speed>
  <fix>3d</fix>
</trkpt>
<trkpt lat="-27.2737613" lon="151.2898677">
  <ele>371.89</ele>
  <time>2026-09-01T19:58:06Z</time>
  <course>107.33</course>
  <speed>0.45310043036836767</speed>
  <fix>3d</fix>
</trkpt>
<trkpt lat="-27.2737609" lon="151.2898669">
  <ele>372.05</ele>
  <time>2026-09-01T19:58:06Z</time>
  <course>106.78</course>
  <speed>0.3</speed>
  <fix>3d</fix>
</trkpt>
<trkpt lat="-27.2737615" lon="151.2898682">
  <ele>371.88</ele>
  <time>2026-09-01T19:58:06Z</time>
  <course>107.33</course>
  <speed>0.5126402247190519</speed>
  <fix>3d</fix>
</trkpt>
<trkpt lat="-27.2737611" lon="151.2898675">
  <ele>372.01</ele>
  <time>2026-09-01T19:58:06Z</time>
  <course>105.19</course>
  <speed>0.4</speed>
  <fix>3d</fix>
</trkpt>
<trkpt lat="-27.2737616" lon="151.2898687">
  <ele>371.88</ele>
  <time>2026-09-01T19:58:06Z</time>
  <course>107.33</course>
  <speed>0.5724508712544685</speed>
  <fix>3d</fix>
</trkpt>
<trkpt lat="-27.2737611" lon="151.2898675">
  <ele>372.01</ele>
  <time>2026-09-01T19:58:06Z</time>
  <course>105.19</course>
  <speed>0.4</speed>
  <fix>3d</fix>
</trkpt>
<trkpt lat="-27.2737618" lon="151.2898693">
  <ele>371.89</ele>
  <time>2026-09-01T19:58:06Z</time>
  <course>107.32</course>
  <speed>0.6229767250869008</speed>
  <fix>3d</fix>
</trkpt>
<trkpt lat="-27.2737612" lon="151.2898684">
  <ele>371.99</ele>
  <time>2026-09-01T19:58:06Z</time>
  <course>104.26</course>
  <speed>0.52</speed>
  <fix>3d</fix>
</trkpt>
<trkpt lat="-27.2737619" lon="151.28987">
  <ele>371.89</ele>
  <time>2026-09-01T19:58:06Z</time>
  <course>107.31</course>
  <speed>0.6862215385719105</speed>
  <fix>3d</fix>
</trkpt>
<trkpt lat="-27.2737612" lon="151.2898684">
  <ele>371.99</ele>
  <time>2026-09-01T19:58:06Z</time>
  <course>104.26</course>
  <speed>0.52</speed>
  <fix>3d</fix>
</trkpt>
<trkpt lat="-27.2737621" lon="151.2898707">
  <ele>371.9</ele>
  <time>2026-09-01T19:58:06Z</time>
  <course>107.3</course>
  <speed>0.7463243262818117</speed>
  <fix>3d</fix>
</trkpt>
<trkpt lat="-27.2737615" lon="151.2898696">
  <ele>371.99</ele>
  <time>2026-09-01T19:58:06Z</time>
  <course>103.7</course>
  <speed>0.64</speed>
  <fix>3d</fix>
</trkpt>
<trkpt lat="-27.2737623" lon="151.2898714">
  <ele>371.91</ele>
  <time>2026-09-01T19:58:06Z</time>
  <course>107.29</course>
  <speed>0.796994353806851</speed>
  <fix>3d</fix>
</trkpt>
<trkpt lat="-27.2737615" lon="151.2898696">
  <ele>371.99</ele>
  <time>2026-09-01T19:58:06Z</time>
  <course>103.7</course>
  <speed>0.64</speed>
  <fix>3d</fix>
</trkpt>
<trkpt lat="-27.2737625" lon="151.2898723">
  <ele>371.92</ele>
  <time>2026-09-01T19:58:06Z</time>
  <course>107.28</course>
  <speed>0.8572630868059116</speed>
  <fix>3d</fix>
</trkpt>
<trkpt lat="-27.2737618" lon="151.289871">
  <ele>372.0</ele>
  <time>2026-09-01T19:58:06Z</time>
  <course>103.35</course>
  <speed>0.76</speed>
  <fix>3d</fix>
</trkpt>
<trkpt lat="-27.2737627" lon="151.2898732">
  <ele>371.93</ele>
  <time>2026-09-01T19:58:06Z</time>
  <course>107.28</course>
  <speed>0.9109335870413386</speed>
  <fix>3d</fix>
</trkpt>
<trkpt lat="-27.2737618" lon="151.289871">
  <ele>372.0</ele>
  <time>2026-09-01T19:58:06Z</time>
  <course>103.35</course>
  <speed>0.76</speed>
  <fix>3d</fix>
</trkpt>
<trkpt lat="-27.2737629" lon="151.2898741">
  <ele>371.94</ele>
  <time>2026-09-01T19:58:06Z</time>
  <course>107.27</course>
  <speed>0.9616652224137046</speed>
  <fix>3d</fix>
</trkpt>
<trkpt lat="-27.2737621" lon="151.2898726">
  <ele>372.02</ele>
  <time>2026-09-01T19:58:06Z</time>
  <course>103.13</course>
  <speed>0.87</speed>
  <fix>3d</fix>
</trkpt>
<trkpt lat="-27.2737631" lon="151.2898751">
  <ele>371.95</ele>
  <time>2026-09-01T19:58:06Z</time>
  <course>107.27</course>
  <speed>1.0124228365658294</speed>
  <fix>3d</fix>
</trkpt>
<trkpt lat="-27.2737621" lon="151.2898726">
  <ele>372.02</ele>
  <time>2026-09-01T19:58:06Z</time>
  <course>103.13</course>
  <speed>0.87</speed>
  <fix>3d</fix>
</trkpt>
<trkpt lat="-27.2737633" lon="151.2898761">
  <ele>371.96</ele>
  <time>2026-09-01T19:58:06Z</time>
  <course>107.27</course>
  <speed>1.053612832116238</speed>
  <fix>3d</fix>
</trkpt>
<trkpt lat="-27.2737624" lon="151.2898744">
  <ele>372.03</ele>
  <time>2026-09-01T19:58:06Z</time>
  <course>103.02</course>
  <speed>0.98</speed>
  <fix>3d</fix>
</trkpt>
<trkpt lat="-27.2737635" lon="151.2898772">
  <ele>371.97</ele>
  <time>2026-09-01T19:58:06Z</time>
  <course>107.26</course>
  <speed>1.094805918873295</speed>
  <fix>3d</fix>
</trkpt>
<trkpt lat="-27.2737624" lon="151.2898744">
  <ele>372.03</ele>
  <time>2026-09-01T19:58:06Z</time>
  <course>103.02</course>
  <speed>0.98</speed>
  <fix>3d</fix>
</trkpt>
<trkpt lat="-27.2737637" lon="151.2898783">
  <ele>371.97</ele>
  <time>2026-09-01T19:58:06Z</time>
  <course>107.26</course>
  <speed>1.136001760562016</speed>
  <fix>3d</fix>
</trkpt>
<trkpt lat="-27.2737629" lon="151.2898765">
  <ele>372.05</ele>
  <time>2026-09-01T19:58:06Z</time>
  <course>102.99</course>
  <speed>1.07</speed>
  <fix>3d</fix>
</trkpt>
<trkpt lat="-27.273764" lon="151.2898795">
  <ele>371.98</ele>
  <time>2026-09-01T19:58:06Z</time>
  <course>107.26</course>
  <speed>1.1772000679578642</speed>
  <fix>3d</fix>
</trkpt>
<trkpt lat="-27.2737629" lon="151.2898765">
  <ele>372.05</ele>
  <time>2026-09-01T19:58:06Z</time>
  <course>102.99</course>
  <speed>1.07</speed>
  <fix>3d</fix>
</trkpt>
<trkpt lat="-27.2737642" lon="151.2898807">
  <ele>371.98</ele>
  <time>2026-09-01T19:58:06Z</time>
  <course>107.26</course>
  <speed>1.2060265337047937</speed>
  <fix>3d</fix>
</trkpt>
<trkpt lat="-27.2737634" lon="151.2898787">
  <ele>372.06</ele>
  <time>2026-09-01T19:58:06Z</time>
  <course>103.01</course>
  <speed>1.16</speed>
  <fix>3d</fix>
</trkpt>
<trkpt lat="-27.2737645" lon="151.2898819">
  <ele>371.99</ele>
  <time>2026-09-01T19:58:06Z</time>
  <course>107.26</course>
  <speed>1.2376186811776881</speed>
  <fix>3d</fix>
</trkpt>
<trkpt lat="-27.2737634" lon="151.2898787">
  <ele>372.06</ele>
  <time>2026-09-01T19:58:06Z</time>
  <course>103.01</course>
  <speed>1.16</speed>
  <fix>3d</fix>
</trkpt>
<trkpt lat="-27.2737648" lon="151.2898832">
  <ele>371.99</ele>
  <time>2026-09-01T19:58:06Z</time>
  <course>107.26</course>
  <speed>1.25686116973992</speed>
  <fix>3d</fix>
</trkpt>
<trkpt lat="-27.2737639" lon="151.2898811">
  <ele>372.07</ele>
  <time>2026-09-01T19:58:06Z</time>
  <course>103.07</course>
  <speed>1.23</speed>
  <fix>3d</fix>
</trkpt>
<trkpt lat="-27.273765" lon="151.2898844">
  <ele>371.98</ele>
  <time>2026-09-01T19:58:06Z</time>
  <course>107.26</course>
  <speed>1.2788275880665072</speed>
  <fix>3d</fix>
</trkpt>
<trkpt lat="-27.2737639" lon="151.2898811">
  <ele>372.07</ele>
  <time>2026-09-01T19:58:06Z</time>
  <course>103.07</course>
  <speed>1.23</speed>
  <fix>3d</fix>
</trkpt>
<trkpt lat="-27.2737653" lon="151.2898857">
  <ele>371.98</ele>
  <time>2026-09-01T19:58:06Z</time>
  <course>107.26</course>
  <speed>1.2884486796143648</speed>
  <fix>3d</fix>
</trkpt>
<trkpt lat="-27.2737644" lon="151.2898835">
  <ele>372.06</ele>
  <time>2026-09-01T19:58:06Z</time>
  <course>103.16</course>
  <speed>1.28</speed>
  <fix>3d</fix>
</trkpt>
<trkpt lat="-27.2737656" lon="151.289887">
  <ele>371.98</ele>
  <time>2026-09-01T19:58:06Z</time>
  <course>107.26</course>
  <speed>1.3008074415531299</speed>
  <fix>3d</fix>
</trkpt>
<trkpt lat="-27.2737644" lon="151.2898835">
  <ele>372.06</ele>
  <time>2026-09-01T19:58:06Z</time>
  <course>103.16</course>
  <speed>1.28</speed>
  <fix>3d</fix>
</trkpt>
<trkpt lat="-27.2737658" lon="151.2898883">
  <ele>371.98</ele>
  <time>2026-09-01T19:58:06Z</time>
  <course>107.25</course>
  <speed>1.3008074415531299</speed>
  <fix>3d</fix>
</trkpt>
<trkpt lat="-27.2737649" lon="151.2898861">
  <ele>372.05</ele>
  <time>2026-09-01T19:58:06Z</time>
  <course>103.27</course>
  <speed>1.32</speed>
  <fix>3d</fix>
</trkpt>
<trkpt lat="-27.2737661" lon="151.2898896">
  <ele>371.97</ele>
  <time>2026-09-01T19:58:06Z</time>
  <course>107.25</course>
  <speed>1.3008074415531299</speed>
  <fix>3d</fix>
</trkpt>
<trkpt lat="-27.2737649" lon="151.2898861">
  <ele>372.05</ele>
  <time>2026-09-01T19:58:06Z</time>
  <course>103.27</course>
  <speed>1.32</speed>
  <fix>3d</fix>
</trkpt>
<trkpt lat="-27.2737664" lon="151.2898909">
  <ele>371.96</ele>
  <time>2026-09-01T19:58:06Z</time>
  <course>107.25</course>
  <speed>1.3008074415531299</speed>
  <fix>3d</fix>
</trkpt>
<trkpt lat="-27.2737655" lon="151.2898887">
  <ele>372.04</ele>
  <time>2026-09-01T19:58:06Z</time>
  <course>103.42</course>
  <speed>1.33</speed>
  <fix>3d</fix>
</trkpt>
<trkpt lat="-27.2737667" lon="151.2898922">
  <ele>371.94</ele>
  <time>2026-09-01T19:58:06Z</time>
  <course>107.25</course>
  <speed>1.2912009913255178</speed>
  <fix>3d</fix>
</trkpt>
<trkpt lat="-27.2737655" lon="151.2898887">
  <ele>372.04</ele>
  <time>2026-09-01T19:58:06Z</time>
  <course>103.42</course>
  <speed>1.33</speed>
  <fix>3d</fix>
</trkpt>
<trkpt lat="-27.2737669" lon="151.2898935">
  <ele>371.91</ele>
  <time>2026-09-01T19:58:06Z</time>
  <course>107.25</course>
  <speed>1.2912009913255178</speed>
  <fix>3d</fix>
</trkpt>
<trkpt lat="-27.273766" lon="151.2898913">
  <ele>372.02</ele>
  <time>2026-09-01T19:58:06Z</time>
  <course>103.59</course>
  <speed>1.33</speed>
  <fix>3d</fix>
</trkpt>
<trkpt lat="-27.2737672" lon="151.2898948">
  <ele>371.87</ele>
  <time>2026-09-01T19:58:06Z</time>
  <course>107.25</course>
  <speed>1.2816005617976296</speed>
  <fix>3d</fix>
</trkpt>
<trkpt lat="-27.273766" lon="151.2898913">
  <ele>372.02</ele>
  <time>2026-09-01T19:58:06Z</time>
  <course>103.59</course>
  <speed>1.33</speed>
  <fix>3d</fix>
</trkpt>
<trkpt lat="-27.2737675" lon="151.289896">
  <ele>371.81</ele>
  <time>2026-09-01T19:58:06Z</time>
  <course>107.25</course>
  <speed>1.2692123541787639</speed>
  <fix>3d</fix>
</trkpt>
<trkpt lat="-27.2737666" lon="151.289894">
  <ele>371.97</ele>
  <time>2026-09-01T19:58:06Z</time>
  <course>103.79</course>
  <speed>1.32</speed>
  <fix>3d</fix>
</trkpt>
<trkpt lat="-27.2737678" lon="151.2898973">
  <ele>371.72</ele>
  <time>2026-09-01T19:58:06Z</time>
  <course>107.25</course>
  <speed>1.2404031602668546</speed>
  <fix>3d</fix>
</trkpt>
<trkpt lat="-27.2737666" lon="151.289894">
  <ele>371.97</ele>
  <time>2026-09-01T19:58:06Z</time>
  <course>103.79</course>
  <speed>1.32</speed>
  <fix>3d</fix>
</trkpt>
<trkpt lat="-27.273768" lon="151.2898985">
  <ele>371.62</ele>
  <time>2026-09-01T19:58:06Z</time>
  <course>107.25</course>
  <speed>1.1992080720208649</speed>
  <fix>3d</fix>
</trkpt>
<trkpt lat="-27.2737672" lon="151.2898966">
  <ele>371.86</ele>
  <time>2026-09-01T19:58:06Z</time>
  <course>104.01</course>
  <speed>1.29</speed>
  <fix>3d</fix>
</trkpt>
<trkpt lat="-27.2737683" lon="151.2898997">
  <ele>371.5</ele>
  <time>2026-09-01T19:58:06Z</time>
  <course>107.25</course>
  <speed>1.158015543937127</speed>
  <fix>3d</fix>
</trkpt>
<trkpt lat="-27.2737672" lon="151.2898966">
  <ele>371.86</ele>
  <time>2026-09-01T19:58:06Z</time>
  <course>104.01</course>
  <speed>1.29</speed>
  <fix>3d</fix>
</trkpt>
<trkpt lat="-27.2737686" lon="151.2899009">
  <ele>371.37</ele>
  <time>2026-09-01T19:58:06Z</time>
  <course>107.24</course>
  <speed>1.1168258592994702</speed>
  <fix>3d</fix>
</trkpt>
<trkpt lat="-27.2737677" lon="151.2898991">
  <ele>371.68</ele>
  <time>2026-09-01T19:58:06Z</time>
  <course>104.23</course>
  <speed>1.24</speed>
  <fix>3d</fix>
</trkpt>
<trkpt lat="-27.2737688" lon="151.289902">
  <ele>371.23</ele>
  <time>2026-09-01T19:58:06Z</time>
  <course>107.24</course>
  <speed>1.0660675400742676</speed>
  <fix>3d</fix>
</trkpt>
<trkpt lat="-27.2737677" lon="151.2898991">
  <ele>371.68</ele>
  <time>2026-09-01T19:58:06Z</time>
  <course>104.23</course>
  <speed>1.24</speed>
  <fix>3d</fix>
</trkpt>
<trkpt lat="-27.273769" lon="151.289903">
  <ele>371.08</ele>
  <time>2026-09-01T19:58:06Z</time>
  <course>107.24</course>
  <speed>1.015332457867865</speed>
  <fix>3d</fix>
</trkpt>
<trkpt lat="-27.2737683" lon="151.2899014">
  <ele>371.44</ele>
  <time>2026-09-01T19:58:06Z</time>
  <course>104.5</course>
  <speed>1.15</speed>
  <fix>3d</fix>
</trkpt>
<trkpt lat="-27.2737693" lon="151.289904">
  <ele>370.92</ele>
  <time>2026-09-01T19:58:06Z</time>
  <course>107.25</course>
  <speed>0.9521029356114811</speed>
  <fix>3d</fix>
</trkpt>
<trkpt lat="-27.2737683" lon="151.2899014">
  <ele>371.44</ele>
  <time>2026-09-01T19:58:06Z</time>
  <course>104.5</course>
  <speed>1.15</speed>
  <fix>3d</fix>
</trkpt>
<trkpt lat="-27.2737695" lon="151.289905">
  <ele>370.75</ele>
  <time>2026-09-01T19:58:06Z</time>
  <course>107.25</course>
  <speed>0.8918520056601319</speed>
  <fix>3d</fix>
</trkpt>
<trkpt lat="-27.2737688" lon="151.2899036">
  <ele>371.14</ele>
  <time>2026-09-01T19:58:06Z</time>
  <course>104.85</course>
  <speed>1.04</speed>
  <fix>3d</fix>
</trkpt>
<trkpt lat="-27.2737697" lon="151.2899058">
  <ele>370.58</ele>
  <time>2026-09-01T19:58:06Z</time>
  <course>107.26</course>
  <speed>0.8221921916437787</speed>
  <fix>3d</fix>
</trkpt>
<trkpt lat="-27.2737688" lon="151.2899036">
  <ele>371.14</ele>
  <time>2026-09-01T19:58:06Z</time>
  <course>104.85</course>
  <speed>1.04</speed>
  <fix>3d</fix>
</trkpt>
<trkpt lat="-27.2737699" lon="151.2899067">
  <ele>370.42</ele>
  <time>2026-09-01T19:58:06Z</time>
  <course>107.27</course>
  <speed>0.7589466384404111</speed>
  <fix>3d</fix>
</trkpt>
<trkpt lat="-27.2737692" lon="151.2899055">
  <ele>370.82</ele>
  <time>2026-09-01T19:58:06Z</time>
  <course>105.31</course>
  <speed>0.92</speed>
  <fix>3d</fix>
</trkpt>
<trkpt lat="-27.2737701" lon="151.2899074">
  <ele>370.25</ele>
  <time>2026-09-01T19:58:06Z</time>
  <course>107.29</course>
  <speed>0.6894925670375279</speed>
  <fix>3d</fix>
</trkpt>
<trkpt lat="-27.2737692" lon="151.2899055">
  <ele>370.82</ele>
  <time>2026-09-01T19:58:06Z</time>
  <course>105.31</course>
  <speed>0.92</speed>
  <fix>3d</fix>
</trkpt>
<trkpt lat="-27.2737702" lon="151.2899081">
  <ele>370.09</ele>
  <time>2026-09-01T19:58:06Z</time>
  <course>107.31</course>
  <speed>0.6262587324740471</speed>
  <fix>3d</fix>
</trkpt>
<trkpt lat="-27.2737697" lon="151.2899072">
  <ele>370.49</ele>
  <time>2026-09-01T19:58:06Z</time>
  <course>105.91</course>
  <speed>0.79</speed>
  <fix>3d</fix>
</trkpt>
<trkpt lat="-27.2737704" lon="151.2899087">
  <ele>369.92</ele>
  <time>2026-09-01T19:58:06Z</time>
  <course>107.33</course>
  <speed>0.5571355310873648</speed>
  <fix>3d</fix>
</trkpt>
<trkpt lat="-27.2737697" lon="151.2899072">
  <ele>370.49</ele>
  <time>2026-09-01T19:58:06Z</time>
  <course>105.91</course>
  <speed>0.79</speed>
  <fix>3d</fix>
</trkpt>
<trkpt lat="-27.2737705" lon="151.2899092">
  <ele>369.77</ele>
  <time>2026-09-01T19:58:06Z</time>
  <course>107.35</course>
  <speed>0.4939635614091387</speed>
  <fix>3d</fix>
</trkpt>
<trkpt lat="-27.27377" lon="151.2899086">
  <ele>370.16</ele>
  <time>2026-09-01T19:58:06Z</time>
  <course>106.73</course>
  <speed>0.66</speed>
  <fix>3d</fix>
</trkpt>
<trkpt lat="-27.2737707" lon="151.2899097">
  <ele>369.61</ele>
  <time>2026-09-01T19:58:06Z</time>
  <course>107.37</course>
  <speed>0.4346262762420146</speed>
  <fix>3d</fix>
</trkpt>
<trkpt lat="-27.27377" lon="151.2899086">
  <ele>370.16</ele>
  <time>2026-09-01T19:58:06Z</time>
  <course>106.73</course>
  <speed>0.66</speed>
  <fix>3d</fix>
</trkpt>
<trkpt lat="-27.2737708" lon="151.2899102">
  <ele>369.46</ele>
  <time>2026-09-01T19:58:06Z</time>
  <course>107.39</course>
  <speed>0.3716180835212409</speed>
  <fix>3d</fix>
</trkpt>
<trkpt lat="-27.2737703" lon="151.2899098">
  <ele>369.85</ele>
  <time>2026-09-01T19:58:06Z</time>
  <course>107.85</course>
  <speed>0.53</speed>
  <fix>3d</fix>
</trkpt>
<trkpt lat="-27.2737709" lon="151.2899105">
  <ele>369.31</ele>
  <time>2026-09-01T19:58:06Z</time>
  <course>107.41</course>
  <speed>0.31304951684997057</speed>
  <fix>3d</fix>
</trkpt>
<trkpt lat="-27.2737703" lon="151.2899098">
  <ele>369.85</ele>
  <time>2026-09-01T19:58:06Z</time>
  <course>107.85</course>
  <speed>0.53</speed>
  <fix>3d</fix>
</trkpt>
<trkpt lat="-27.273771" lon="151.2899108">
  <ele>369.17</ele>
  <time>2026-09-01T19:58:06Z</time>
  <course>107.43</course>
  <speed>0.2641968962724581</speed>
  <fix>3d</fix>
</trkpt>
<trkpt lat="-27.2737706" lon="151.2899107">
  <ele>369.55</ele>
  <time>2026-09-01T19:58:06Z</time>
  <course>109.46</course>
  <speed>0.41</speed>
  <fix>3d</fix>
</trkpt>
<trkpt lat="-27.2737711" lon="151.2899111">
  <ele>369.02</ele>
  <time>2026-09-01T19:58:06Z</time>
  <course>107.46</course>
  <speed>0.2109502310972899</speed>
  <fix>3d</fix>
</trkpt>
<trkpt lat="-27.2737706" lon="151.2899107">
  <ele>369.55</ele>
  <time>2026-09-01T19:58:06Z</time>
  <course>109.46</course>
  <speed>0.41</speed>
  <fix>3d</fix>
</trkpt>
<trkpt lat="-27.2737712" lon="151.2899113">
  <ele>368.88</ele>
  <time>2026-09-01T19:58:06Z</time>
  <course>107.5</course>
  <speed>0.16401219466856726</speed>
  <fix>3d</fix>
</trkpt>
<trkpt lat="-27.2737709" lon="151.2899113">
  <ele>369.27</ele>
  <time>2026-09-01T19:58:06Z</time>
  <course>111.94</course>
  <speed>0.3</speed>
  <fix>3d</fix>
</trkpt>
<trkpt lat="-27.2737712" lon="151.2899115">
  <ele>368.74</ele>
  <time>2026-09-01T19:58:06Z</time>
  <course>107.56</course>
  <speed>0.12041594578792296</speed>
  <fix>3d</fix>
</trkpt>
<trkpt lat="-27.2737709" lon="151.2899113">
  <ele>369.27</ele>
  <time>2026-09-01T19:58:06Z</time>
  <course>111.94</course>
  <speed>0.3</speed>
  <fix>3d</fix>
</trkpt>
<trkpt lat="-27.2737713" lon="151.2899116">
  <ele>368.6</ele>
  <time>2026-09-01T19:58:06Z</time>
  <course>107.64</course>
  <speed>0.08062257748298549</speed>
  <fix>3d</fix>
</trkpt>
<trkpt lat="-27.273771" lon="151.2899117">
  <ele>368.99</ele>
  <time>2026-09-01T19:58:06Z</time>
  <course>116.0</course>
  <speed>0.19</speed>
  <fix>3d</fix>
</trkpt>
<trkpt lat="-27.2737713" lon="151.2899116">
  <ele>368.46</ele>
  <time>2026-09-01T19:58:06Z</time>
  <course>107.79</course>
  <speed>0.05099019513592785</speed>
  <fix>3d</fix>
</trkpt>
<trkpt lat="-27.273771" lon="151.2899117">
  <ele>368.99</ele>
  <time>2026-09-01T19:58:06Z</time>
  <course>116.0</course>
  <speed>0.19</speed>
  <fix>3d</fix>
</trkpt>
<trkpt lat="-27.2737714" lon="151.2899117">
  <ele>368.32</ele>
  <time>2026-09-01T19:58:06Z</time>
  <course>108.1</course>
  <speed>0.022360679774997897</speed>
  <fix>3d</fix>
</trkpt>
<trkpt lat="-27.2737711" lon="151.289912">
  <ele>368.71</ele>
  <time>2026-09-01T19:58:06Z</time>
  <course>122.19</course>
  <speed>0.1</speed>
  <fix>3d</fix>
</trkpt>
<trkpt lat="-27.2737713" lon="151.2899117">
  <ele>368.18</ele>
  <time>2026-09-01T19:58:06Z</time>
  <course>108.62</course>
  <speed>0.04</speed>
  <fix>3d</fix>
</trkpt>
<trkpt lat="-27.2737711" lon="151.289912">
  <ele>368.71</ele>
  <time>2026-09-01T19:58:06Z</time>
  <course>122.19</course>
  <speed>0.1</speed>
  <fix>3d</fix>
</trkpt>
<trkpt lat="-27.2737713" lon="151.2899117">
  <ele>368.04</ele>
  <time>2026-09-01T19:58:06Z</time>
  <course>109.02</course>
  <speed>0.07</speed>
  <fix>3d</fix>
</trkpt>
<trkpt lat="-27.2737712" lon="151.2899122">
  <ele>368.44</ele>
  <time>2026-09-01T19:58:06Z</time>
  <course>122.39</course>
  <speed>0.02</speed>
  <fix>3d</fix>
</trkpt>
<trkpt lat="-27.2737713" lon="151.2899116">
  <ele>367.9</ele>
  <time>2026-09-01T19:58:06Z</time>
  <course>109.24</course>
  <speed>0.1004987562112089</speed>
  <fix>3d</fix>
</trkpt>
<trkpt lat="-27.2737712" lon="151.2899122">
  <ele>368.44</ele>
  <time>2026-09-01T19:58:07Z</time>
  <course>122.39</course>
  <speed>0.02</speed>
  <fix>3d</fix>
</trkpt>
<trkpt lat="-27.2737713" lon="151.2899116">
  <ele>367.76</ele>
  <time>2026-09-01T19:58:07Z</time>
  <course>109.29</course>
  <speed>0.12369316876852982</speed>
  <fix>3d</fix>
</trkpt>
<trkpt lat="-27.2737712" lon="151.2899122">
  <ele>368.15</ele>
  <time>2026-09-01T19:58:07Z</time>
  <course>306.01</course>
  <speed>0.04</speed>
  <fix>3d</fix>
</trkpt>
<trkpt lat="-27.2737713" lon="151.2899115">
  <ele>367.61</ele>
  <time>2026-09-01T19:58:07Z</time>
  <course>109.21</course>
  <speed>0.14560219778561037</speed>
  <fix>3d</fix>
</trkpt>
<trkpt lat="-27.2737712" lon="151.2899122">
  <ele>368.15</ele>
  <time>2026-09-01T19:58:07Z</time>
  <course>306.01</course>
  <speed>0.04</speed>
  <fix>3d</fix>
</trkpt>
<trkpt lat="-27.2737712" lon="151.2899115">
  <ele>367.46</ele>
  <time>2026-09-01T19:58:07Z</time>
  <course>109.06</course>
  <speed>0.15811388300841897</speed>
  <fix>3d</fix>
</trkpt>
<trkpt lat="-27.2737711" lon="151.289912">
  <ele>367.88</ele>
  <time>2026-09-01T19:58:07Z</time>
  <course>298.6</course>
  <speed>0.09</speed>
  <fix>3d</fix>
</trkpt>
<trkpt lat="-27.2737712" lon="151.2899113">
  <ele>367.32</ele>
  <time>2026-09-01T19:58:07Z</time>
  <course>108.88</course>
  <speed>0.18027756377319945</speed>
  <fix>3d</fix>
</trkpt>
<trkpt lat="-27.2737711" lon="151.289912">
  <ele>367.88</ele>
  <time>2026-09-01T19:58:07Z</time>
  <course>298.6</course>
  <speed>0.09</speed>
  <fix>3d</fix>
</trkpt>
<trkpt lat="-27.2737711" lon="151.2899112">
  <ele>367.17</ele>
  <time>2026-09-01T19:58:07Z</time>
  <course>108.71</course>
  <speed>0.18973665961010278</speed>
  <fix>3d</fix>
</trkpt>
<trkpt lat="-27.2737711" lon="151.2899119">
  <ele>367.59</ele>
  <time>2026-09-01T19:58:07Z</time>
  <course>296.21</course>
  <speed>0.13</speed>
  <fix>3d</fix>
</trkpt>
<trkpt lat="-27.273771" lon="151.289911">
  <ele>367.02</ele>
  <time>2026-09-01T19:58:07Z</time>
  <course>108.58</course>
  <speed>0.19924858845171275</speed>
  <fix>3d</fix>
</trkpt>
<trkpt lat="-27.2737711" lon="151.2899119">
  <ele>367.59</ele>
  <time>2026-09-01T19:58:07Z</time>
  <course>296.21</course>
  <speed>0.13</speed>
  <fix>3d</fix>
</trkpt>
<trkpt lat="-27.273771" lon="151.2899109">
  <ele>366.87</ele>
  <time>2026-09-01T19:58:07Z</time>
  <course>108.5</course>
  <speed>0.21189620100417092</speed>
  <fix>3d</fix>
</trkpt>
<trkpt lat="-27.273771" lon="151.2899117">
  <ele>367.3</ele>
  <time>2026-09-01T19:58:07Z</time>
  <course>294.98</course>
  <speed>0.16</speed>
  <fix>3d</fix>
</trkpt>
<trkpt lat="-27.2737709" lon="151.2899107">
  <ele>366.72</ele>
  <time>2026-09-01T19:58:07Z</time>
  <course>108.48</course>
  <speed>0.22135943621178655</speed>
  <fix>3d</fix>
</trkpt>
<trkpt lat="-27.273771" lon="151.2899117">
  <ele>367.3</ele>
  <time>2026-09-01T19:58:07Z</time>
  <course>294.98</course>
  <speed>0.16</speed>
  <fix>3d</fix>
</trkpt>
<trkpt lat="-27.2737708" lon="151.2899106">
  <ele>366.57</ele>
  <time>2026-09-01T19:58:07Z</time>
  <course>108.5</course>
  <speed>0.2308679276123039</speed>
  <fix>3d</fix>
</trkpt>
<trkpt lat="-27.2737709" lon="151.2899113">
  <ele>367.01</ele>
  <time>2026-09-01T19:58:07Z</time>
  <course>294.34</course>
  <speed>0.18</speed>
  <fix>3d</fix>
</trkpt>
<trkpt lat="-27.2737707" lon="151.2899104">
  <ele>366.42</ele>
  <time>2026-09-01T19:58:07Z</time>
  <course>108.57</course>
  <speed>0.2340939982143925</speed>
  <fix>3d</fix>
</trkpt>
<trkpt lat="-27.2737709" lon="151.2899113">
  <ele>367.01</ele>
  <time>2026-09-01T19:58:07Z</time>
  <course>294.34</course>
  <speed>0.18</speed>
  <fix>3d</fix>
</trkpt>
<trkpt lat="-27.2737707" lon="151.2899102">
  <ele>366.26</ele>
  <time>2026-09-01T19:58:07Z</time>
  <course>108.66</course>
  <speed>0.2340939982143925</speed>
  <fix>3d</fix>
</trkpt>
<trkpt lat="-27.2737707" lon="151.289911">
  <ele>366.71</ele>
  <time>2026-09-01T19:58:07Z</time>
  <course>294.15</course>
  <speed>0.2</speed>
  <fix>3d</fix>
</trkpt>
<trkpt lat="-27.2737706" lon="151.28991">
  <ele>366.11</ele>
  <time>2026-09-01T19:58:07Z</time>
  <course>108.76</course>
  <speed>0.24351591323771843</speed>
  <fix>3d</fix>
</trkpt>
<trkpt lat="-27.2737707" lon="151.289911">
  <ele>366.71</ele>
  <time>2026-09-01T19:58:07Z</time>
  <course>294.15</course>
  <speed>0.2</speed>
  <fix>3d</fix>
</trkpt>
<trkpt lat="-27.2737705" lon="151.2899098">
  <ele>365.96</ele>
  <time>2026-09-01T19:58:07Z</time>
  <course>108.85</course>
  <speed>0.24351591323771843</speed>
  <fix>3d</fix>
</trkpt>
<trkpt lat="-27.2737706" lon="151.2899105">
  <ele>366.41</ele>
  <time>2026-09-01T19:58:07Z</time>
  <course>294.3</course>
  <speed>0.21</speed>
  <fix>3d</fix>
</trkpt>
<trkpt lat="-27.2737704" lon="151.2899096">
  <ele>365.81</ele>
  <time>2026-09-01T19:58:07Z</time>
  <course>108.94</course>
  <speed>0.24351591323771843</speed>
  <fix>3d</fix>
</trkpt>
<trkpt lat="-27.2737706" lon="151.2899105">
  <ele>366.41</ele>
  <time>2026-09-01T19:58:07Z</time>
  <course>294.3</course>
  <speed>0.21</speed>
  <fix>3d</fix>
</trkpt>
<trkpt lat="-27.2737703" lon="151.2899094">
  <ele>365.66</ele>
  <time>2026-09-01T19:58:07Z</time>
  <course>109.01</course>
  <speed>0.24351591323771843</speed>
  <fix>3d</fix>
</trkpt>
<trkpt lat="-27.2737704" lon="151.2899102">
  <ele>366.12</ele>
  <time>2026-09-01T19:58:07Z</time>
  <course>294.68</course>
  <speed>0.22</speed>
  <fix>3d</fix>
</trkpt>
<trkpt lat="-27.2737703" lon="151.2899092">
  <ele>365.51</ele>
  <time>2026-09-01T19:58:07Z</time>
  <course>109.07</course>
  <speed>0.24351591323771843</speed>
  <fix>3d</fix>
</trkpt>
<trkpt lat="-27.2737704" lon="151.2899102">
  <ele>366.12</ele>
  <time>2026-09-01T19:58:07Z</time>
  <course>294.68</course>
  <speed>0.22</speed>
  <fix>3d</fix>
</trkpt>
<trkpt lat="-27.2737702" lon="151.289909">
  <ele>365.36</ele>
  <time>2026-09-01T19:58:07Z</time>
  <course>109.11</course>
  <speed>0.24351591323771843</speed>
  <fix>3d</fix>
</trkpt>
<trkpt lat="-27.2737703" lon="151.2899097">
  <ele>365.82</ele>
  <time>2026-09-01T19:58:07Z</time>
  <course>295.25</course>
  <speed>0.22</speed>
  <fix>3d</fix>
</trkpt>
<trkpt lat="-27.2737701" lon="151.2899088">
  <ele>365.22</ele>
  <time>2026-09-01T19:58:07Z</time>
  <course>109.13</course>
  <speed>0.24351591323771843</speed>
  <fix>3d</fix>
</trkpt>
<trkpt lat="-27.2737703" lon="151.2899097">
  <ele>365.82</ele>
  <time>2026-09-01T19:58:07Z</time>
  <course>295.25</course>
  <speed>0.22</speed>
  <fix>3d</fix>
</trkpt>
<trkpt lat="-27.27377" lon="151.2899086">
  <ele>365.07</ele>
  <time>2026-09-01T19:58:07Z</time>
  <course>109.12</course>
  <speed>0.2340939982143925</speed>
  <fix>3d</fix>
</trkpt>
<trkpt lat="-27.2737701" lon="151.2899094">
  <ele>365.52</ele>
  <time>2026-09-01T19:58:07Z</time>
  <course>295.69</course>
  <speed>0.22</speed>
  <fix>3d</fix>
</trkpt>
<trkpt lat="-27.2737699" lon="151.2899084">
  <ele>364.91</ele>
  <time>2026-09-01T19:58:07Z</time>
  <course>109.11</course>
  <speed>0.2340939982143925</speed>
  <fix>3d</fix>
</trkpt>
<trkpt lat="-27.2737701" lon="151.2899094">
  <ele>365.52</ele>
  <time>2026-09-01T19:58:07Z</time>
  <course>295.69</course>
  <speed>0.22</speed>
  <fix>3d</fix>
</trkpt>
<trkpt lat="-27.2737699" lon="151.2899083">
  <ele>364.76</ele>
  <time>2026-09-01T19:58:07Z</time>
  <course>109.1</course>
  <speed>0.2308679276123039</speed>
  <fix>3d</fix>
</trkpt>
<trkpt lat="-27.2737699" lon="151.289909">
  <ele>365.22</ele>
  <time>2026-09-01T19:58:07Z</time>
  <course>296.01</course>
  <speed>0.21</speed>
  <fix>3d</fix>
</trkpt>
<trkpt lat="-27.2737698" lon="151.2899081">
  <ele>364.61</ele>
  <time>2026-09-01T19:58:07Z</time>
  <course>109.1</course>
  <speed>0.2308679276123039</speed>
  <fix>3d</fix>
</trkpt>
<trkpt lat="-27.2737699" lon="151.289909">
  <ele>365.22</ele>
  <time>2026-09-01T19:58:07Z</time>
  <course>296.01</course>
  <speed>0.21</speed>
  <fix>3d</fix>
</trkpt>
<trkpt lat="-27.2737697" lon="151.2899079">
  <ele>364.46</ele>
  <time>2026-09-01T19:58:07Z</time>
  <course>109.1</course>
  <speed>0.22135943621178655</speed>
  <fix>3d</fix>
</trkpt>
<trkpt lat="-27.2737697" lon="151.2899086">
  <ele>364.91</ele>
  <time>2026-09-01T19:58:07Z</time>
  <course>296.5</course>
  <speed>0.21</speed>
  <fix>3d</fix>
</trkpt>
<trkpt lat="-27.2737696" lon="151.2899077">
  <ele>364.31</ele>
  <time>2026-09-01T19:58:07Z</time>
  <course>109.12</course>
  <speed>0.21189620100417092</speed>
  <fix>3d</fix>
</trkpt>
<trkpt lat="-27.2737696" lon="151.2899082">
  <ele>364.62</ele>
  <time>2026-09-01T19:58:07Z</time>
  <course>297.3</course>
  <speed>0.2</speed>
  <fix>3d</fix>
</trkpt>
<trkpt lat="-27.2737696" lon="151.2899075">
  <ele>364.16</ele>
  <time>2026-09-01T19:58:07Z</time>
  <course>109.15</course>
  <speed>0.21189620100417092</speed>
  <fix>3d</fix>
</trkpt>
<trkpt lat="-27.2737696" lon="151.2899082">
  <ele>364.62</ele>
  <time>2026-09-01T19:58:07Z</time>
  <course>297.3</course>
  <speed>0.2</speed>
  <fix>3d</fix>
</trkpt>
<trkpt lat="-27.2737695" lon="151.2899074">
  <ele>364.01</ele>
  <time>2026-09-01T19:58:07Z</time>
  <course>109.19</course>
  <speed>0.20248456731316586</speed>
  <fix>3d</fix>
</trkpt>
<trkpt lat="-27.2737694" lon="151.2899078">
  <ele>364.32</ele>
  <time>2026-09-01T19:58:07Z</time>
  <course>298.18</course>
  <speed>0.19</speed>
  <fix>3d</fix>
</trkpt>
<trkpt lat="-27.2737694" lon="151.2899072">
  <ele>363.86</ele>
  <time>2026-09-01T19:58:07Z</time>
  <course>109.24</course>
  <speed>0.20248456731316586</speed>
  <fix>3d</fix>
</trkpt>
<trkpt lat="-27.2737694" lon="151.2899078">
  <ele>364.32</ele>
  <time>2026-09-01T19:58:07Z</time>
  <course>298.18</course>
  <speed>0.19</speed>
  <fix>3d</fix>
</trkpt>
<trkpt lat="-27.2737693" lon="151.289907">
  <ele>363.71</ele>
  <time>2026-09-01T19:58:07Z</time>
  <course>109.31</course>
  <speed>0.18973665961010278</speed>
  <fix>3d</fix>
</trkpt>
<trkpt lat="-27.2737692" lon="151.2899075">
  <ele>364.02</ele>
  <time>2026-09-01T19:58:07Z</time>
  <course>299.31</course>
  <speed>0.18</speed>
  <fix>3d</fix>
</trkpt>
<trkpt lat="-27.2737693" lon="151.2899069">
  <ele>363.56</ele>
  <time>2026-09-01T19:58:07Z</time>
  <course>109.38</course>
  <speed>0.18973665961010278</speed>
  <fix>3d</fix>
</trkpt>
<trkpt lat="-27.2737692" lon="151.2899075">
  <ele>364.02</ele>
  <time>2026-09-01T19:58:07Z</time>
  <course>299.31</course>
  <speed>0.18</speed>
  <fix>3d</fix>
</trkpt>
<trkpt lat="-27.2737692" lon="151.2899068">
  <ele>363.41</ele>
  <time>2026-09-01T19:58:07Z</time>
  <course>109.45</course>
  <speed>0.18027756377319945</speed>
  <fix>3d</fix>
</trkpt>
<trkpt lat="-27.2737692" lon="151.2899075">
  <ele>364.02</ele>
  <time>2026-09-01T19:58:07Z</time>
  <course>299.31</course>
  <speed>0.18</speed>
  <fix>3d</fix>
</trkpt>
<trkpt lat="-27.2737691" lon="151.2899066">
  <ele>363.26</ele>
  <time>2026-09-01T19:58:07Z</time>
  <course>109.51</course>
  <speed>0.1708800749063506</speed>
  <fix>3d</fix>
</trkpt>
<trkpt lat="-27.2737691" lon="151.2899072">
  <ele>363.72</ele>
  <time>2026-09-01T19:58:07Z</time>
  <course>300.79</course>
  <speed>0.17</speed>
  <fix>3d</fix>
</trkpt>
<trkpt lat="-27.273769" lon="151.2899065">
  <ele>363.11</ele>
  <time>2026-09-01T19:58:07Z</time>
  <course>109.57</course>
  <speed>0.1676305461424021</speed>
  <fix>3d</fix>
</trkpt>
<trkpt lat="-27.2737691" lon="151.2899072">
  <ele>363.72</ele>
  <time>2026-09-01T19:58:07Z</time>
  <course>300.79</course>
  <speed>0.17</speed>
  <fix>3d</fix>
</trkpt>
<trkpt lat="-27.273769" lon="151.2899064">
  <ele>362.96</ele>
  <time>2026-09-01T19:58:07Z</time>
  <course>109.6</course>
  <speed>0.15811388300841897</speed>
  <fix>3d</fix>
</trkpt>
<trkpt lat="-27.2737689" lon="151.2899069">
  <ele>363.41</ele>
  <time>2026-09-01T19:58:07Z</time>
  <course>302.49</course>
  <speed>0.16</speed>
  <fix>3d</fix>
</trkpt>
<trkpt lat="-27.2737689" lon="151.2899062">
  <ele>362.82</ele>
  <time>2026-09-01T19:58:07Z</time>
  <course>109.61</course>
  <speed>0.14866068747318506</speed>
  <fix>3d</fix>
</trkpt>
<trkpt lat="-27.2737689" lon="151.2899069">
  <ele>363.41</ele>
  <time>2026-09-01T19:58:07Z</time>
  <course>302.49</course>
  <speed>0.16</speed>
  <fix>3d</fix>
</trkpt>
<trkpt lat="-27.2737688" lon="151.2899061">
  <ele>362.67</ele>
  <time>2026-09-01T19:58:07Z</time>
  <course>109.61</course>
  <speed>0.14866068747318506</speed>
  <fix>3d</fix>
</trkpt>
<trkpt lat="-27.2737688" lon="151.2899066">
  <ele>363.12</ele>
  <time>2026-09-01T19:58:07Z</time>
  <course>304.22</course>
  <speed>0.14</speed>
  <fix>3d</fix>
</trkpt>
<trkpt lat="-27.2737688" lon="151.289906">
  <ele>362.52</ele>
  <time>2026-09-01T19:58:07Z</time>
  <course>109.61</course>
  <speed>0.1392838827718412</speed>
  <fix>3d</fix>
</trkpt>
<trkpt lat="-27.2737688" lon="151.2899066">
  <ele>363.12</ele>
  <time>2026-09-01T19:58:07Z</time>
  <course>304.22</course>
  <speed>0.14</speed>
  <fix>3d</fix>
</trkpt>
<trkpt lat="-27.2737687" lon="151.2899059">
  <ele>362.37</ele>
  <time>2026-09-01T19:58:07Z</time>
  <course>109.63</course>
  <speed>0.13</speed>
  <fix>3d</fix>
</trkpt>
<trkpt lat="-27.2737686" lon="151.2899064">
  <ele>362.82</ele>
  <time>2026-09-01T19:58:07Z</time>
  <course>306.24</course>
  <speed>0.13</speed>
  <fix>3d</fix>
</trkpt>
<trkpt lat="-27.2737687" lon="151.2899058">
  <ele>362.22</ele>
  <time>2026-09-01T19:58:07Z</time>
  <course>109.67</course>
  <speed>0.1264911064067352</speed>
  <fix>3d</fix>
</trkpt>
<trkpt lat="-27.2737686" lon="151.2899064">
  <ele>362.82</ele>
  <time>2026-09-01T19:58:07Z</time>
  <course>306.24</course>
  <speed>0.13</speed>
  <fix>3d</fix>
</trkpt>
<trkpt lat="-27.2737686" lon="151.2899057">
  <ele>362.07</ele>
  <time>2026-09-01T19:58:07Z</time>
  <course>109.73</course>
  <speed>0.11704699910719625</speed>
  <fix>3d</fix>
</trkpt>
<trkpt lat="-27.2737685" lon="151.2899062">
  <ele>362.52</ele>
  <time>2026-09-01T19:58:07Z</time>
  <course>309.36</course>
  <speed>0.12</speed>
  <fix>3d</fix>
</trkpt>
<trkpt lat="-27.2737685" lon="151.2899057">
  <ele>361.92</ele>
  <time>2026-09-01T19:58:07Z</time>
  <course>109.8</course>
  <speed>0.1118033988749895</speed>
  <fix>3d</fix>
</trkpt>
<trkpt lat="-27.2737685" lon="151.2899062">
  <ele>362.52</ele>
  <time>2026-09-01T19:58:07Z</time>
  <course>309.36</course>
  <speed>0.12</speed>
  <fix>3d</fix>
</trkpt>
<trkpt lat="-27.2737685" lon="151.2899056">
  <ele>361.76</ele>
  <time>2026-09-01T19:58:07Z</time>
  <course>109.88</course>
  <speed>0.10295630140987001</speed>
  <fix>3d</fix>
</trkpt>
<trkpt lat="-27.2737683" lon="151.2899059">
  <ele>362.22</ele>
  <time>2026-09-01T19:58:07Z</time>
  <course>313.17</course>
  <speed>0.11</speed>
  <fix>3d</fix>
</trkpt>
<trkpt lat="-27.2737684" lon="151.2899055">
  <ele>361.61</ele>
  <time>2026-09-01T19:58:07Z</time>
  <course>109.97</course>
  <speed>0.10295630140987001</speed>
  <fix>3d</fix>
</trkpt>
<trkpt lat="-27.2737683" lon="151.2899059">
  <ele>362.22</ele>
  <time>2026-09-01T19:58:07Z</time>
  <course>313.17</course>
  <speed>0.11</speed>
  <fix>3d</fix>
</trkpt>
<trkpt lat="-27.2737683" lon="151.2899055">
  <ele>361.46</ele>
  <time>2026-09-01T19:58:07Z</time>
  <course>110.06</course>
  <speed>0.08944271909999159</speed>
  <fix>3d</fix>
</trkpt>
<trkpt lat="-27.2737682" lon="151.2899058">
  <ele>361.91</ele>
  <time>2026-09-01T19:58:07Z</time>
  <course>318.01</course>
  <speed>0.09</speed>
  <fix>3d</fix>
</trkpt>
<trkpt lat="-27.2737683" lon="151.2899054">
  <ele>361.31</ele>
  <time>2026-09-01T19:58:07Z</time>
  <course>110.15</course>
  <speed>0.08062257748298549</speed>
  <fix>3d</fix>
</trkpt>
<trkpt lat="-27.2737682" lon="151.2899058">
  <ele>361.91</ele>
  <time>2026-09-01T19:58:07Z</time>
  <course>318.01</course>
  <speed>0.09</speed>
  <fix>3d</fix>
</trkpt>
<trkpt lat="-27.2737682" lon="151.2899054">
  <ele>361.15</ele>
  <time>2026-09-01T19:58:07Z</time>
  <course>110.23</course>
  <speed>0.07211102550927978</speed>
  <fix>3d</fix>
</trkpt>
<trkpt lat="-27.2737681" lon="151.2899057">
  <ele>361.62</ele>
  <time>2026-09-01T19:58:07Z</time>
  <course>324.42</course>
  <speed>0.08</speed>
  <fix>3d</fix>
</trkpt>
<trkpt lat="-27.2737681" lon="151.2899053">
  <ele>361.0</ele>
  <time>2026-09-01T19:58:07Z</time>
  <course>110.3</course>
  <speed>0.07211102550927978</speed>
  <fix>3d</fix>
</trkpt>
<trkpt lat="-27.2737679" lon="151.2899056">
  <ele>361.32</ele>
  <time>2026-09-01T19:58:07Z</time>
  <course>332.07</course>
  <speed>0.07</speed>
  <fix>3d</fix>
</trkpt>
<trkpt lat="-27.2737681" lon="151.2899053">
  <ele>360.85</ele>
  <time>2026-09-01T19:58:07Z</time>
  <course>110.37</course>
  <speed>0.06403124237432849</speed>
  <fix>3d</fix>
</trkpt>
<trkpt lat="-27.2737679" lon="151.2899056">
  <ele>361.32</ele>
  <time>2026-09-01T19:58:07Z</time>
  <course>332.07</course>
  <speed>0.07</speed>
  <fix>3d</fix>
</trkpt>
<trkpt lat="-27.273768" lon="151.2899053">
  <ele>360.7</ele>
  <time>2026-09-01T19:58:07Z</time>
  <course>110.44</course>
  <speed>0.0565685424949238</speed>
  <fix>3d</fix>
</trkpt>
<trkpt lat="-27.2737678" lon="151.2899056">
  <ele>361.02</ele>
  <time>2026-09-01T19:58:07Z</time>
  <course>341.33</course>
  <speed>0.07</speed>
  <fix>3d</fix>
</trkpt>
<trkpt lat="-27.2737679" lon="151.2899053">
  <ele>360.55</ele>
  <time>2026-09-01T19:58:07Z</time>
  <course>110.5</course>
  <speed>0.0565685424949238</speed>
  <fix>3d</fix>
</trkpt>
<trkpt lat="-27.2737678" lon="151.2899056">
  <ele>361.02</ele>
  <time>2026-09-01T19:58:07Z</time>
  <course>341.33</course>
  <speed>0.07</speed>
  <fix>3d</fix>
</trkpt>
<trkpt lat="-27.2737679" lon="151.2899053">
  <ele>360.4</ele>
  <time>2026-09-01T19:58:07Z</time>
  <course>110.56</course>
  <speed>0.05</speed>
  <fix>3d</fix>
</trkpt>
<trkpt lat="-27.2737677" lon="151.2899056">
  <ele>360.72</ele>
  <time>2026-09-01T19:58:07Z</time>
  <course>352.14</course>
  <speed>0.06</speed>
  <fix>3d</fix>
</trkpt>
<trkpt lat="-27.2737678" lon="151.2899053">
  <ele>360.25</ele>
  <time>2026-09-01T19:58:07Z</time>
  <course>110.6</course>
  <speed>0.03605551275463989</speed>
  <fix>3d</fix>
</trkpt>
<trkpt lat="-27.2737677" lon="151.2899056">
  <ele>360.72</ele>
  <time>2026-09-01T19:58:07Z</time>
  <course>352.14</course>
  <speed>0.06</speed>
  <fix>3d</fix>
</trkpt>
<trkpt lat="-27.2737678" lon="151.2899053">
  <ele>360.11</ele>
  <time>2026-09-01T19:58:07Z</time>
  <course>110.57</course>
  <speed>0.0282842712474619</speed>
  <fix>3d</fix>
</trkpt>
<trkpt lat="-27.2737676" lon="151.2899056">
  <ele>360.41</ele>
  <time>2026-09-01T19:58:07Z</time>
  <course>2.44</course>
  <speed>0.05</speed>
  <fix>3d</fix>
</trkpt>
<trkpt lat="-27.2737677" lon="151.2899053">
  <ele>359.96</ele>
  <time>2026-09-01T19:58:07Z</time>
  <course>110.38</course>
  <speed>0.022360679774997897</speed>
  <fix>3d</fix>
</trkpt>
<trkpt lat="-27.2737676" lon="151.2899056">
  <ele>360.41</ele>
  <time>2026-09-01T19:58:07Z</time>
  <course>2.44</course>
  <speed>0.05</speed>
  <fix>3d</fix>
</trkpt>
<trkpt lat="-27.2737677" lon="151.2899053">
  <ele>359.81</ele>
  <time>2026-09-01T19:58:07Z</time>
  <course>110.0</course>
  <speed>0.022360679774997897</speed>
  <fix>3d</fix>
</trkpt>
<trkpt lat="-27.2737675" lon="151.2899056">
  <ele>360.12</ele>
  <time>2026-09-01T19:58:07Z</time>
  <course>11.48</course>
  <speed>0.03</speed>
  <fix>3d</fix>
</trkpt>
<trkpt lat="-27.2737677" lon="151.2899053">
  <ele>359.66</ele>
  <time>2026-09-01T19:58:07Z</time>
  <course>109.48</course>
  <speed>0.04242640687119285</speed>
  <fix>3d</fix>
</trkpt>
<trkpt lat="-27.2737675" lon="151.2899056">
  <ele>360.12</ele>
  <time>2026-09-01T19:58:07Z</time>
  <course>11.48</course>
  <speed>0.03</speed>
  <fix>3d</fix>
</trkpt>
<trkpt lat="-27.2737677" lon="151.2899053">
  <ele>359.52</ele>
  <time>2026-09-01T19:58:07Z</time>
  <course>108.91</course>
  <speed>0.05830951894845301</speed>
  <fix>3d</fix>
</trkpt>
<trkpt lat="-27.2737675" lon="151.2899056">
  <ele>359.82</ele>
  <time>2026-09-01T19:58:07Z</time>
  <course>168.09</course>
  <speed>0.01</speed>
  <fix>3d</fix>
</trkpt>
<trkpt lat="-27.2737677" lon="151.2899053">
  <ele>359.37</ele>
  <time>2026-09-01T19:58:07Z</time>
  <course>108.41</course>
  <speed>0.07615773105863909</speed>
  <fix>3d</fix>
</trkpt>
<trkpt lat="-27.2737675" lon="151.2899056">
  <ele>359.82</ele>
  <time>2026-09-01T19:58:07Z</time>
  <course>168.09</course>
  <speed>0.01</speed>
  <fix>3d</fix>
</trkpt>
<trkpt lat="-27.2737677" lon="151.2899053">
  <ele>359.23</ele>
  <time>2026-09-01T19:58:07Z</time>
  <course>108.01</course>
  <speed>0.09848857801796104</speed>
  <fix>3d</fix>
</trkpt>
<trkpt lat="-27.2737675" lon="151.2899056">
  <ele>359.82</ele>
  <time>2026-09-01T19:58:07Z</time>
  <course>168.09</course>
  <speed>0.01</speed>
  <fix>3d</fix>
</trkpt>
<trkpt lat="-27.2737678" lon="151.2899053">
  <ele>359.08</ele>
  <time>2026-09-01T19:58:07Z</time>
  <course>107.74</course>
  <speed>0.10770329614269007</speed>
  <fix>3d</fix>
</trkpt>
<trkpt lat="-27.2737675" lon="151.2899056">
  <ele>359.52</ele>
  <time>2026-09-01T19:58:07Z</time>
  <course>184.37</course>
  <speed>0.05</speed>
  <fix>3d</fix>
</trkpt>
<trkpt lat="-27.2737679" lon="151.2899053">
  <ele>358.93</ele>
  <time>2026-09-01T19:58:07Z</time>
  <course>107.62</course>
  <speed>0.1264911064067352</speed>
  <fix>3d</fix>
</trkpt>
<trkpt lat="-27.2737675" lon="151.2899056">
  <ele>359.52</ele>
  <time>2026-09-01T19:58:07Z</time>
  <course>184.37</course>
  <speed>0.05</speed>
  <fix>3d</fix>
</trkpt>
<trkpt lat="-27.273768" lon="151.2899053">
  <ele>358.78</ele>
  <time>2026-09-01T19:58:07Z</time>
  <course>107.62</course>
  <speed>0.1392838827718412</speed>
  <fix>3d</fix>
</trkpt>
<trkpt lat="-27.2737676" lon="151.2899056">
  <ele>359.22</ele>
  <time>2026-09-01T19:58:07Z</time>
  <course>186.99</course>
  <speed>0.08</speed>
  <fix>3d</fix>
</trkpt>
<trkpt lat="-27.2737681" lon="151.2899052">
  <ele>358.63</ele>
  <time>2026-09-01T19:58:07Z</time>
  <course>107.7</course>
  <speed>0.15811388300841897</speed>
  <fix>3d</fix>
</trkpt>
<trkpt lat="-27.2737676" lon="151.2899056">
  <ele>359.22</ele>
  <time>2026-09-01T19:58:07Z</time>
  <course>186.99</course>
  <speed>0.08</speed>
  <fix>3d</fix>
</trkpt>
<trkpt lat="-27.2737682" lon="151.2899052">
  <ele>358.48</ele>
  <time>2026-09-01T19:58:07Z</time>
  <course>107.83</course>
  <speed>0.1676305461424021</speed>
  <fix>3d</fix>
</trkpt>
<trkpt lat="-27.2737678" lon="151.2899055">
  <ele>358.91</ele>
  <time>2026-09-01T19:58:07Z</time>
  <course>188.37</course>
  <speed>0.12</speed>
  <fix>3d</fix>
</trkpt>
<trkpt lat="-27.2737683" lon="151.2899052">
  <ele>358.33</ele>
  <time>2026-09-01T19:58:07Z</time>
  <course>107.98</course>
  <speed>0.18027756377319945</speed>
  <fix>3d</fix>
</trkpt>
<trkpt lat="-27.2737678" lon="151.2899055">
  <ele>358.91</ele>
  <time>2026-09-01T19:58:07Z</time>
  <course>188.37</course>
  <speed>0.12</speed>
  <fix>3d</fix>
</trkpt>
<trkpt lat="-27.2737685" lon="151.2899052">
  <ele>358.17</ele>
  <time>2026-09-01T19:58:07Z</time>
  <course>108.11</course>
  <speed>0.18973665961010278</speed>
  <fix>3d</fix>
</trkpt>
<trkpt lat="-27.273768" lon="151.2899055">
  <ele>358.61</ele>
  <time>2026-09-01T19:58:07Z</time>
  <course>189.06</course>
  <speed>0.14</speed>
  <fix>3d</fix>
</trkpt>
<trkpt lat="-27.2737686" lon="151.2899051">
  <ele>358.02</ele>
  <time>2026-09-01T19:58:07Z</time>
  <course>108.21</course>
  <speed>0.19924858845171275</speed>
  <fix>3d</fix>
</trkpt>
<trkpt lat="-27.2737683" lon="151.2899054">
  <ele>358.31</ele>
  <time>2026-09-01T19:58:07Z</time>
  <course>189.33</course>
  <speed>0.16</speed>
  <fix>3d</fix>
</trkpt>
<trkpt lat="-27.2737688" lon="151.2899051">
  <ele>357.87</ele>
  <time>2026-09-01T19:58:07Z</time>
  <course>108.27</course>
  <speed>0.19924858845171275</speed>
  <fix>3d</fix>
</trkpt>
<trkpt lat="-27.2737683" lon="151.2899054">
  <ele>358.31</ele>
  <time>2026-09-01T19:58:07Z</time>
  <course>189.33</course>
  <speed>0.16</speed>
  <fix>3d</fix>
</trkpt>
<trkpt lat="-27.2737689" lon="151.2899051">
  <ele>357.73</ele>
  <time>2026-09-01T19:58:07Z</time>
  <course>108.29</course>
  <speed>0.208806130178211</speed>
  <fix>3d</fix>
</trkpt>
<trkpt lat="-27.2737686" lon="151.2899053">
  <ele>358.01</ele>
  <time>2026-09-01T19:58:07Z</time>
  <course>189.31</course>
  <speed>0.18</speed>
  <fix>3d</fix>
</trkpt>
<trkpt lat="-27.2737691" lon="151.289905">
  <ele>357.58</ele>
  <time>2026-09-01T19:58:07Z</time>
  <course>108.28</course>
  <speed>0.208806130178211</speed>
  <fix>3d</fix>
</trkpt>
<trkpt lat="-27.2737686" lon="151.2899053">
  <ele>358.01</ele>
  <time>2026-09-01T19:58:07Z</time>
  <course>189.31</course>
  <speed>0.18</speed>
  <fix>3d</fix>
</trkpt>
<trkpt lat="-27.2737693" lon="151.289905">
  <ele>357.43</ele>
  <time>2026-09-01T19:58:07Z</time>
  <course>108.25</course>
  <speed>0.21840329667841554</speed>
  <fix>3d</fix>
</trkpt>
<trkpt lat="-27.273769" lon="151.2899053">
  <ele>357.7</ele>
  <time>2026-09-01T19:58:07Z</time>
  <course>189.05</course>
  <speed>0.19</speed>
  <fix>3d</fix>
</trkpt>
<trkpt lat="-27.2737695" lon="151.289905">
  <ele>357.27</ele>
  <time>2026-09-01T19:58:07Z</time>
  <course>108.2</course>
  <speed>0.21840329667841554</speed>
  <fix>3d</fix>
</trkpt>
<trkpt lat="-27.273769" lon="151.2899053">
  <ele>357.7</ele>
  <time>2026-09-01T19:58:07Z</time>
  <course>189.05</course>
  <speed>0.19</speed>
  <fix>3d</fix>
</trkpt>
<trkpt lat="-27.2737696" lon="151.2899049">
  <ele>357.12</ele>
  <time>2026-09-01T19:58:07Z</time>
  <course>108.16</course>
  <speed>0.21840329667841554</speed>
  <fix>3d</fix>
</trkpt>
<trkpt lat="-27.2737693" lon="151.2899052">
  <ele>357.4</ele>
  <time>2026-09-01T19:58:07Z</time>
  <course>188.74</course>
  <speed>0.2</speed>
  <fix>3d</fix>
</trkpt>
<trkpt lat="-27.2737698" lon="151.2899049">
  <ele>356.97</ele>
  <time>2026-09-01T19:58:07Z</time>
  <course>108.11</course>
  <speed>0.21840329667841554</speed>
  <fix>3d</fix>
</trkpt>
<trkpt lat="-27.2737693" lon="151.2899052">
  <ele>357.4</ele>
  <time>2026-09-01T19:58:07Z</time>
  <course>188.74</course>
  <speed>0.2</speed>
  <fix>3d</fix>
</trkpt>
<trkpt lat="-27.27377" lon="151.2899049">
  <ele>356.81</ele>
  <time>2026-09-01T19:58:07Z</time>
  <course>108.07</course>
  <speed>0.21840329667841554</speed>
  <fix>3d</fix>
</trkpt>
<trkpt lat="-27.2737697" lon="151.2899052">
  <ele>357.09</ele>
  <time>2026-09-01T19:58:07Z</time>
  <course>188.34</course>
  <speed>0.2</speed>
  <fix>3d</fix>
</trkpt>
<trkpt lat="-27.2737702" lon="151.2899048">
  <ele>356.66</ele>
  <time>2026-09-01T19:58:07Z</time>
  <course>108.04</course>
  <speed>0.21840329667841554</speed>
  <fix>3d</fix>
</trkpt>
<trkpt lat="-27.2737697" lon="151.2899052">
  <ele>357.09</ele>
  <time>2026-09-01T19:58:07Z</time>
  <course>188.34</course>
  <speed>0.2</speed>
  <fix>3d</fix>
</trkpt>
<trkpt lat="-27.2737703" lon="151.2899048">
  <ele>356.51</ele>
  <time>2026-09-01T19:58:07Z</time>
  <course>108.02</course>
  <speed>0.21840329667841554</speed>
  <fix>3d</fix>
</trkpt>
<trkpt lat="-27.27377" lon="151.2899051">
  <ele>356.79</ele>
  <time>2026-09-01T19:58:07Z</time>
  <course>187.87</course>
  <speed>0.2</speed>
  <fix>3d</fix>
</trkpt>
<trkpt lat="-27.2737705" lon="151.2899048">
  <ele>356.36</ele>
  <time>2026-09-01T19:58:07Z</time>
  <course>108.01</course>
  <speed>0.20615528128088303</speed>
  <fix>3d</fix>
</trkpt>
<trkpt lat="-27.27377" lon="151.2899051">
  <ele>356.79</ele>
  <time>2026-09-01T19:58:07Z</time>
  <course>187.87</course>
  <speed>0.2</speed>
  <fix>3d</fix>
</trkpt>
<trkpt lat="-27.2737707" lon="151.2899047">
  <ele>356.2</ele>
  <time>2026-09-01T19:58:07Z</time>
  <course>108.0</course>
  <speed>0.20615528128088303</speed>
  <fix>3d</fix>
</trkpt>
<trkpt lat="-27.2737703" lon="151.2899051">
  <ele>356.49</ele>
  <time>2026-09-01T19:58:07Z</time>
  <course>187.42</course>
  <speed>0.19</speed>
  <fix>3d</fix>
</trkpt>
<trkpt lat="-27.2737708" lon="151.2899047">
  <ele>356.05</ele>
  <time>2026-09-01T19:58:07Z</time>
  <course>107.99</course>
  <speed>0.196468827043885</speed>
  <fix>3d</fix>
</trkpt>
<trkpt lat="-27.2737703" lon="151.2899051">
  <ele>356.49</ele>
  <time>2026-09-01T19:58:07Z</time>
  <course>187.42</course>
  <speed>0.19</speed>
  <fix>3d</fix>
</trkpt>
<trkpt lat="-27.273771" lon="151.2899047">
  <ele>355.9</ele>
  <time>2026-09-01T19:58:07Z</time>
  <course>107.97</course>
  <speed>0.18681541692269404</speed>
  <fix>3d</fix>
</trkpt>
<trkpt lat="-27.2737707" lon="151.289905">
  <ele>356.19</ele>
  <time>2026-09-01T19:58:07Z</time>
  <course>186.89</course>
  <speed>0.18</speed>
  <fix>3d</fix>
</trkpt>
<trkpt lat="-27.2737711" lon="151.2899047">
  <ele>355.75</ele>
  <time>2026-09-01T19:58:07Z</time>
  <course>107.96</course>
  <speed>0.18681541692269404</speed>
  <fix>3d</fix>
</trkpt>
<trkpt lat="-27.2737707" lon="151.289905">
  <ele>356.19</ele>
  <time>2026-09-01T19:58:07Z</time>
  <course>186.89</course>
  <speed>0.18</speed>
  <fix>3d</fix>
</trkpt>
<trkpt lat="-27.2737713" lon="151.2899047">
  <ele>355.6</ele>
  <time>2026-09-01T19:58:07Z</time>
  <course>107.94</course>
  <speed>0.1772004514666935</speed>
  <fix>3d</fix>
</trkpt>
<trkpt lat="-27.273771" lon="151.289905">
  <ele>355.89</ele>
  <time>2026-09-01T19:58:07Z</time>
  <course>186.27</course>
  <speed>0.17</speed>
  <fix>3d</fix>
</trkpt>
<trkpt lat="-27.2737714" lon="151.2899047">
  <ele>355.45</ele>
  <time>2026-09-01T19:58:07Z</time>
  <course>107.92</course>
  <speed>0.1649242250247064</speed>
  <fix>3d</fix>
</trkpt>
<trkpt lat="-27.273771" lon="151.289905">
  <ele>355.89</ele>
  <time>2026-09-01T19:58:07Z</time>
  <course>186.27</course>
  <speed>0.17</speed>
  <fix>3d</fix>
</trkpt>
<trkpt lat="-27.2737716" lon="151.2899046">
  <ele>355.3</ele>
  <time>2026-09-01T19:58:07Z</time>
  <course>107.9</course>
  <speed>0.15524174696260024</speed>
  <fix>3d</fix>
</trkpt>
<trkpt lat="-27.2737713" lon="151.289905">
  <ele>355.59</ele>
  <time>2026-09-01T19:58:07Z</time>
  <course>185.46</course>
  <speed>0.15</speed>
  <fix>3d</fix>
</trkpt>
<trkpt lat="-27.2737717" lon="151.2899046">
  <ele>355.16</ele>
  <time>2026-09-01T19:58:07Z</time>
  <course>107.87</course>
  <speed>0.14560219778561037</speed>
  <fix>3d</fix>
</trkpt>
<trkpt lat="-27.2737713" lon="151.289905">
  <ele>355.59</ele>
  <time>2026-09-01T19:58:07Z</time>
  <course>185.46</course>
  <speed>0.15</speed>
  <fix>3d</fix>
</trkpt>
<trkpt lat="-27.2737718" lon="151.2899046">
  <ele>355.01</ele>
  <time>2026-09-01T19:58:07Z</time>
  <course>107.85</course>
  <speed>0.14560219778561037</speed>
  <fix>3d</fix>
</trkpt>
<trkpt lat="-27.2737716" lon="151.2899049">
  <ele>355.29</ele>
  <time>2026-09-01T19:58:07Z</time>
  <course>184.28</course>
  <speed>0.14</speed>
  <fix>3d</fix>
</trkpt>
<trkpt lat="-27.2737719" lon="151.2899046">
  <ele>354.86</ele>
  <time>2026-09-01T19:58:07Z</time>
  <course>107.83</course>
  <speed>0.13341664064126335</speed>
  <fix>3d</fix>
</trkpt>
<trkpt lat="-27.2737716" lon="151.2899049">
  <ele>355.29</ele>
  <time>2026-09-01T19:58:07Z</time>
  <course>184.28</course>
  <speed>0.14</speed>
  <fix>3d</fix>
</trkpt>
<trkpt lat="-27.273772" lon="151.2899046">
  <ele>354.71</ele>
  <time>2026-09-01T19:58:07Z</time>
  <course>107.81</course>
  <speed>0.11401754250991379</speed>
  <fix>3d</fix>
</trkpt>
<trkpt lat="-27.2737719" lon="151.2899048">
  <ele>354.99</ele>
  <time>2026-09-01T19:58:07Z</time>
  <course>182.65</course>
  <speed>0.12</speed>
  <fix>3d</fix>
</trkpt>
<trkpt lat="-27.2737721" lon="151.2899046">
  <ele>354.56</ele>
  <time>2026-09-01T19:58:07Z</time>
  <course>107.8</course>
  <speed>0.1044030650891055</speed>
  <fix>3d</fix>
</trkpt>
<trkpt lat="-27.2737719" lon="151.2899048">
  <ele>354.99</ele>
  <time>2026-09-01T19:58:07Z</time>
  <course>182.65</course>
  <speed>0.12</speed>
  <fix>3d</fix>
</trkpt>
<trkpt lat="-27.2737722" lon="151.2899046">
  <ele>354.41</ele>
  <time>2026-09-01T19:58:07Z</time>
  <course>107.78</course>
  <speed>0.09486832980505139</speed>
  <fix>3d</fix>
</trkpt>
<trkpt lat="-27.2737721" lon="151.2899048">
  <ele>354.69</ele>
  <time>2026-09-01T19:58:07Z</time>
  <course>180.37</course>
  <speed>0.1</speed>
  <fix>3d</fix>
</trkpt>
<trkpt lat="-27.2737723" lon="151.2899046">
  <ele>354.27</ele>
  <time>2026-09-01T19:58:07Z</time>
  <course>107.76</course>
  <speed>0.0824621125123532</speed>
  <fix>3d</fix>
</trkpt>
<trkpt lat="-27.2737721" lon="151.2899048">
  <ele>354.69</ele>
  <time>2026-09-01T19:58:07Z</time>
  <course>180.37</course>
  <speed>0.1</speed>
  <fix>3d</fix>
</trkpt>
<trkpt lat="-27.2737723" lon="151.2899046">
  <ele>354.12</ele>
  <time>2026-09-01T19:58:07Z</time>
  <course>107.73</course>
  <speed>0.07280109889280519</speed>
  <fix>3d</fix>
</trkpt>
<trkpt lat="-27.2737722" lon="151.2899048">
  <ele>354.39</ele>
  <time>2026-09-01T19:58:07Z</time>
  <course>177.02</course>
  <speed>0.08</speed>
  <fix>3d</fix>
</trkpt>
<trkpt lat="-27.2737724" lon="151.2899046">
  <ele>353.97</ele>
  <time>2026-09-01T19:58:07Z</time>
  <course>107.69</course>
  <speed>0.0632455532033676</speed>
  <fix>3d</fix>
</trkpt>
<trkpt lat="-27.2737722" lon="151.2899048">
  <ele>354.39</ele>
  <time>2026-09-01T19:58:07Z</time>
  <course>177.02</course>
  <speed>0.08</speed>
  <fix>3d</fix>
</trkpt>
<trkpt lat="-27.2737724" lon="151.2899046">
  <ele>353.83</ele>
  <time>2026-09-01T19:58:07Z</time>
  <course>107.64</course>
  <speed>0.0632455532033676</speed>
  <fix>3d</fix>
</trkpt>
<trkpt lat="-27.2737723" lon="151.2899048">
  <ele>354.1</ele>
  <time>2026-09-01T19:58:07Z</time>
  <course>172.13</course>
  <speed>0.06</speed>
  <fix>3d</fix>
</trkpt>
<trkpt lat="-27.2737725" lon="151.2899046">
  <ele>353.68</ele>
  <time>2026-09-01T19:58:07Z</time>
  <course>107.58</course>
  <speed>0.053851648071345036</speed>
  <fix>3d</fix>
</trkpt>
<trkpt lat="-27.2737723" lon="151.2899048">
  <ele>354.1</ele>
  <time>2026-09-01T19:58:07Z</time>
  <course>172.13</course>
  <speed>0.06</speed>
  <fix>3d</fix>
</trkpt>
<trkpt lat="-27.2737725" lon="151.2899046">
  <ele>353.54</ele>
  <time>2026-09-01T19:58:07Z</time>
  <course>107.51</course>
  <speed>0.0412310562561766</speed>
  <fix>3d</fix>
</trkpt>
<trkpt lat="-27.2737724" lon="151.2899048">
  <ele>353.81</ele>
  <time>2026-09-01T19:58:07Z</time>
  <course>165.02</course>
  <speed>0.04</speed>
  <fix>3d</fix>
</trkpt>
<trkpt lat="-27.2737725" lon="151.2899046">
  <ele>353.4</ele>
  <time>2026-09-01T19:58:07Z</time>
  <course>107.44</course>
  <speed>0.0316227766016838</speed>
  <fix>3d</fix>
</trkpt>
<trkpt lat="-27.2737724" lon="151.2899048">
  <ele>353.81</ele>
  <time>2026-09-01T19:58:07Z</time>
  <course>165.02</course>
  <speed>0.04</speed>
  <fix>3d</fix>
</trkpt>
<trkpt lat="-27.2737725" lon="151.2899046">
  <ele>353.27</ele>
  <time>2026-09-01T19:58:07Z</time>
  <course>107.35</course>
  <speed>0.022360679774997897</speed>
  <fix>3d</fix>
</trkpt>
<trkpt lat="-27.2737725" lon="151.2899048">
  <ele>353.53</ele>
  <time>2026-09-01T19:58:07Z</time>
  <course>154.07</course>
  <speed>0.03</speed>
  <fix>3d</fix>
</trkpt>
<trkpt lat="-27.2737726" lon="151.2899046">
  <ele>353.13</ele>
  <time>2026-09-01T19:58:07Z</time>
  <course>107.25</course>
  <speed>0.022360679774997897</speed>
  <fix>3d</fix>
</trkpt>
<trkpt lat="-27.2737725" lon="151.2899048">
  <ele>353.53</ele>
  <time>2026-09-01T19:58:07Z</time>
  <course>154.07</course>
  <speed>0.03</speed>
  <fix>3d</fix>
</trkpt>
<trkpt lat="-27.2737726" lon="151.2899046">
  <ele>353.0</ele>
  <time>2026-09-01T19:58:07Z</time>
  <course>107.15</course>
  <speed>0.022360679774997897</speed>
  <fix>3d</fix>
</trkpt>
<trkpt lat="-27.2737726" lon="151.2899048">
  <ele>353.25</ele>
  <time>2026-09-01T19:58:07Z</time>
  <course>136.21</course>
  <speed>0.01</speed>
  <fix>3d</fix>
</trkpt>
<trkpt lat="-27.2737726" lon="151.2899046">
  <ele>352.86</ele>
  <time>2026-09-01T19:58:07Z</time>
  <course>107.04</course>
  <speed>0.022360679774997897</speed>
  <fix>3d</fix>
</trkpt>
<trkpt lat="-27.2737726" lon="151.2899048">
  <ele>353.25</ele>
  <time>2026-09-01T19:58:07Z</time>
  <course>136.21</course>
  <speed>0.01</speed>
  <fix>3d</fix>
</trkpt>
<trkpt lat="-27.2737726" lon="151.2899046">
  <ele>352.74</ele>
  <time>2026-09-01T19:58:07Z</time>
  <course>106.92</course>
  <speed>0.022360679774997897</speed>
  <fix>3d</fix>
</trkpt>
<trkpt lat="-27.2737726" lon="151.2899049">
  <ele>352.99</ele>
  <time>2026-09-01T19:58:07Z</time>
  <course>110.03</course>
  <speed>0.01</speed>
  <fix>3d</fix>
</trkpt>
<trkpt lat="-27.2737726" lon="151.2899046">
  <ele>352.61</ele>
  <time>2026-09-01T19:58:07Z</time>
  <course>106.78</course>
  <speed>0.02</speed>
  <fix>3d</fix>
</trkpt>
<trkpt lat="-27.2737726" lon="151.2899049">
  <ele>352.99</ele>
  <time>2026-09-01T19:58:07Z</time>
  <course>110.03</course>
  <speed>0.01</speed>
  <fix>3d</fix>
</trkpt>
<trkpt lat="-27.2737726" lon="151.2899046">
  <ele>352.49</ele>
  <time>2026-09-01T19:58:07Z</time>
  <course>106.64</course>
  <speed>0.02</speed>
  <fix>3d</fix>
</trkpt>
<trkpt lat="-27.2737726" lon="151.289905">
  <ele>352.74</ele>
  <time>2026-09-01T19:58:07Z</time>
  <course>83.88</course>
  <speed>0.01</speed>
  <fix>3d</fix>
</trkpt>
<trkpt lat="-27.2737726" lon="151.2899046">
  <ele>352.37</ele>
  <time>2026-09-01T19:58:07Z</time>
  <course>106.49</course>
  <speed>0.02</speed>
  <fix>3d</fix>
</trkpt>
<trkpt lat="-27.2737726" lon="151.289905">
  <ele>352.74</ele>
  <time>2026-09-01T19:58:07Z</time>
  <course>83.88</course>
  <speed>0.01</speed>
  <fix>3d</fix>
</trkpt>
<trkpt lat="-27.2737726" lon="151.2899046">
  <ele>352.25</ele>
  <time>2026-09-01T19:58:07Z</time>
  <course>106.35</course>
  <speed>0.03</speed>
  <fix>3d</fix>
</trkpt>
<trkpt lat="-27.2737726" lon="151.289905">
  <ele>352.5</ele>
  <time>2026-09-01T19:58:07Z</time>
  <course>65.32</course>
  <speed>0.0</speed>
  <fix>3d</fix>
</trkpt>
<trkpt lat="-27.2737726" lon="151.2899046">
  <ele>352.14</ele>
  <time>2026-09-01T19:58:07Z</time>
  <course>106.22</course>
  <speed>0.03</speed>
  <fix>3d</fix>
</trkpt>
<trkpt lat="-27.2737726" lon="151.289905">
  <ele>352.5</ele>
  <time>2026-09-01T19:58:07Z</time>
  <course>65.32</course>
  <speed>0.0</speed>
  <fix>3d</fix>
</trkpt>
<trkpt lat="-27.2737726" lon="151.2899046">
  <ele>352.03</ele>
  <time>2026-09-01T19:58:07Z</time>
  <course>106.12</course>
  <speed>0.0316227766016838</speed>
  <fix>3d</fix>
</trkpt>
<trkpt lat="-27.2737726" lon="151.289905">
  <ele>352.27</ele>
  <time>2026-09-01T19:58:07Z</time>
  <course>41.22</course>
  <speed>0.0</speed>
  <fix>3d</fix>
</trkpt>
<trkpt lat="-27.2737726" lon="151.2899046">
  <ele>351.92</ele>
  <time>2026-09-01T19:58:07Z</time>
  <course>106.03</course>
  <speed>0.03</speed>
  <fix>3d</fix>
</trkpt>
<trkpt lat="-27.2737726" lon="151.289905">
  <ele>352.27</ele>
  <time>2026-09-01T19:58:07Z</time>
  <course>41.22</course>
  <speed>0.0</speed>
  <fix>3d</fix>
</trkpt>
<trkpt lat="-27.2737726" lon="151.2899046">
  <ele>351.82</ele>
  <time>2026-09-01T19:58:07Z</time>
  <course>105.97</course>
  <speed>0.0316227766016838</speed>
  <fix>3d</fix>
</trkpt>
<trkpt lat="-27.2737726" lon="151.289905">
  <ele>352.05</ele>
  <time>2026-09-01T19:58:07Z</time>
  <course>328.67</course>
  <speed>0.0</speed>
  <fix>3d</fix>
</trkpt>
<trkpt lat="-27.2737726" lon="151.2899046">
  <ele>351.71</ele>
  <time>2026-09-01T19:58:07Z</time>
  <course>105.94</course>
  <speed>0.0316227766016838</speed>
  <fix>3d</fix>
</trkpt>
<trkpt lat="-27.2737726" lon="151.289905">
  <ele>352.05</ele>
  <time>2026-09-01T19:58:07Z</time>
  <course>328.67</course>
  <speed>0.0</speed>
  <fix>3d</fix>
</trkpt>
<trkpt lat="-27.2737726" lon="151.2899046">
  <ele>351.61</ele>
  <time>2026-09-01T19:58:07Z</time>
  <course>105.92</course>
  <speed>0.0412310562561766</speed>
  <fix>3d</fix>
</trkpt>
<trkpt lat="-27.2737726" lon="151.289905">
  <ele>351.84</ele>
  <time>2026-09-01T19:58:07Z</time>
  <course>295.77</course>
  <speed>0.0</speed>
  <fix>3d</fix>
</trkpt>
<trkpt lat="-27.2737726" lon="151.2899046">
  <ele>351.51</ele>
  <time>2026-09-01T19:58:07Z</time>
  <course>105.92</course>
  <speed>0.0412310562561766</speed>
  <fix>3d</fix>
</trkpt>
<trkpt lat="-27.2737726" lon="151.289905">
  <ele>351.84</ele>
  <time>2026-09-01T19:58:07Z</time>
  <course>295.77</course>
  <speed>0.0</speed>
  <fix>3d</fix>
</trkpt>
<trkpt lat="-27.2737726" lon="151.2899046">
  <ele>351.41</ele>
  <time>2026-09-01T19:58:07Z</time>
  <course>105.91</course>
  <speed>0.0412310562561766</speed>
  <fix>3d</fix>
</trkpt>
<trkpt lat="-27.2737726" lon="151.289905">
  <ele>351.64</ele>
  <time>2026-09-01T19:58:07Z</time>
  <course>284.68</course>
  <speed>0.0</speed>
  <fix>3d</fix>
</trkpt>
<trkpt lat="-27.2737726" lon="151.2899046">
  <ele>351.31</ele>
  <time>2026-09-01T19:58:07Z</time>
  <course>105.89</course>
  <speed>0.0412310562561766</speed>
  <fix>3d</fix>
</trkpt>
<trkpt lat="-27.2737726" lon="151.289905">
  <ele>351.64</ele>
  <time>2026-09-01T19:58:07Z</time>
  <course>284.68</course>
  <speed>0.0</speed>
  <fix>3d</fix>
</trkpt>
<trkpt lat="-27.2737726" lon="151.2899046">
  <ele>351.22</ele>
  <time>2026-09-01T19:58:07Z</time>
  <course>105.87</course>
  <speed>0.0412310562561766</speed>
  <fix>3d</fix>
</trkpt>
<trkpt lat="-27.2737726" lon="151.289905">
  <ele>351.44</ele>
  <time>2026-09-01T19:58:07Z</time>
  <course>279.56</course>
  <speed>0.01</speed>
  <fix>3d</fix>
</trkpt>
<trkpt lat="-27.2737726" lon="151.2899046">
  <ele>351.12</ele>
  <time>2026-09-01T19:58:07Z</time>
  <course>105.83</course>
  <speed>0.0412310562561766</speed>
  <fix>3d</fix>
</trkpt>
<trkpt lat="-27.2737726" lon="151.289905">
  <ele>351.44</ele>
  <time>2026-09-01T19:58:07Z</time>
  <course>279.56</course>
  <speed>0.01</speed>
  <fix>3d</fix>
</trkpt>
<trkpt lat="-27.2737726" lon="151.2899046">
  <ele>351.03</ele>
  <time>2026-09-01T19:58:07Z</time>
  <course>105.8</course>
  <speed>0.0412310562561766</speed>
  <fix>3d</fix>
</trkpt>
<trkpt lat="-27.2737726" lon="151.289905">
  <ele>351.26</ele>
  <time>2026-09-01T19:58:07Z</time>
  <course>276.94</course>
  <speed>0.01</speed>
  <fix>3d</fix>
</trkpt>
<trkpt lat="-27.2737726" lon="151.2899046">
  <ele>350.94</ele>
  <time>2026-09-01T19:58:07Z</time>
  <course>105.76</course>
  <speed>0.0412310562561766</speed>
  <fix>3d</fix>
</trkpt>
<trkpt lat="-27.2737726" lon="151.289905">
  <ele>351.26</ele>
  <time>2026-09-01T19:58:07Z</time>
  <course>276.94</course>
  <speed>0.01</speed>
  <fix>3d</fix>
</trkpt>
<trkpt lat="-27.2737726" lon="151.2899046">
  <ele>350.85</ele>
  <time>2026-09-01T19:58:07Z</time>
  <course>105.72</course>
  <speed>0.0412310562561766</speed>
  <fix>3d</fix>
</trkpt>
<trkpt lat="-27.2737726" lon="151.289905">
  <ele>351.08</ele>
  <time>2026-09-01T19:58:07Z</time>
  <course>274.68</course>
  <speed>0.01</speed>
  <fix>3d</fix>
</trkpt>
<trkpt lat="-27.2737727" lon="151.2899046">
  <ele>350.76</ele>
  <time>2026-09-01T19:58:07Z</time>
  <course>105.68</course>
  <speed>0.0412310562561766</speed>
  <fix>3d</fix>
</trkpt>
<trkpt lat="-27.2737726" lon="151.289905">
  <ele>351.08</ele>
  <time>2026-09-01T19:58:07Z</time>
  <course>274.68</course>
  <speed>0.01</speed>
  <fix>3d</fix>
</trkpt>
<trkpt lat="-27.2737727" lon="151.2899046">
  <ele>350.67</ele>
  <time>2026-09-01T19:58:07Z</time>
  <course>105.63</course>
  <speed>0.0412310562561766</speed>
  <fix>3d</fix>
</trkpt>
<trkpt lat="-27.2737726" lon="151.289905">
  <ele>350.9</ele>
  <time>2026-09-01T19:58:07Z</time>
  <course>272.26</course>
  <speed>0.01</speed>
  <fix>3d</fix>
</trkpt>
<trkpt lat="-27.2737727" lon="151.2899046">
  <ele>350.59</ele>
  <time>2026-09-01T19:58:07Z</time>
  <course>105.59</course>
  <speed>0.0412310562561766</speed>
  <fix>3d</fix>
</trkpt>
<trkpt lat="-27.2737726" lon="151.289905">
  <ele>350.9</ele>
  <time>2026-09-01T19:58:07Z</time>
  <course>272.26</course>
  <speed>0.01</speed>
  <fix>3d</fix>
</trkpt>
<trkpt lat="-27.2737727" lon="151.2899046">
  <ele>350.5</ele>
  <time>2026-09-01T19:58:07Z</time>
  <course>105.54</course>
  <speed>0.044721359549995794</speed>
  <fix>3d</fix>
</trkpt>
<trkpt lat="-27.2737726" lon="151.2899049">
  <ele>350.72</ele>
  <time>2026-09-01T19:58:07Z</time>
  <course>269.43</course>
  <speed>0.01</speed>
  <fix>3d</fix>
</trkpt>
<trkpt lat="-27.2737727" lon="151.2899046">
  <ele>350.42</ele>
  <time>2026-09-01T19:58:07Z</time>
  <course>105.48</course>
  <speed>0.044721359549995794</speed>
  <fix>3d</fix>
</trkpt>
<trkpt lat="-27.2737726" lon="151.2899049">
  <ele>350.72</ele>
  <time>2026-09-01T19:58:07Z</time>
  <course>269.43</course>
  <speed>0.01</speed>
  <fix>3d</fix>
</trkpt>
<trkpt lat="-27.2737727" lon="151.2899045">
  <ele>350.34</ele>
  <time>2026-09-01T19:58:07Z</time>
  <course>105.43</course>
  <speed>0.044721359549995794</speed>
  <fix>3d</fix>
</trkpt>
<trkpt lat="-27.2737726" lon="151.2899048">
  <ele>350.56</ele>
  <time>2026-09-01T19:58:07Z</time>
  <course>266.54</course>
  <speed>0.01</speed>
  <fix>3d</fix>
</trkpt>
<trkpt lat="-27.2737727" lon="151.2899045">
  <ele>350.26</ele>
  <time>2026-09-01T19:58:07Z</time>
  <course>105.39</course>
  <speed>0.044721359549995794</speed>
  <fix>3d</fix>
</trkpt>
<trkpt lat="-27.2737726" lon="151.2899048">
  <ele>350.56</ele>
  <time>2026-09-01T19:58:07Z</time>
  <course>266.54</course>
  <speed>0.01</speed>
  <fix>3d</fix>
</trkpt>
<trkpt lat="-27.2737727" lon="151.2899045">
  <ele>350.18</ele>
  <time>2026-09-01T19:58:07Z</time>
  <course>105.36</course>
  <speed>0.044721359549995794</speed>
  <fix>3d</fix>
</trkpt>
<trkpt lat="-27.2737726" lon="151.2899048">
  <ele>350.4</ele>
  <time>2026-09-01T19:58:07Z</time>
  <course>264.29</course>
  <speed>0.01</speed>
  <fix>3d</fix>
</trkpt>
<trkpt lat="-27.2737727" lon="151.2899045">
  <ele>350.1</ele>
  <time>2026-09-01T19:58:07Z</time>
  <course>105.33</course>
  <speed>0.044721359549995794</speed>
  <fix>3d</fix>
</trkpt>
<trkpt lat="-27.2737726" lon="151.2899048">
  <ele>350.4</ele>
  <time>2026-09-01T19:58:07Z</time>
  <course>264.29</course>
  <speed>0.01</speed>
  <fix>3d</fix>
</trkpt>
<trkpt lat="-27.2737727" lon="151.2899045">
  <ele>350.03</ele>
  <time>2026-09-01T19:58:07Z</time>
  <course>105.31</course>
  <speed>0.044721359549995794</speed>
  <fix>3d</fix>
</trkpt>
<trkpt lat="-27.2737726" lon="151.2899047">
  <ele>350.25</ele>
  <time>2026-09-01T19:58:07Z</time>
  <course>262.58</course>
  <speed>0.01</speed>
  <fix>3d</fix>
</trkpt>
<trkpt lat="-27.2737727" lon="151.2899045">
  <ele>349.96</ele>
  <time>2026-09-01T19:58:07Z</time>
  <course>105.3</course>
  <speed>0.044721359549995794</speed>
  <fix>3d</fix>
</trkpt>
<trkpt lat="-27.2737726" lon="151.2899047">
  <ele>350.25</ele>
  <time>2026-09-01T19:58:07Z</time>
  <course>262.58</course>
  <speed>0.01</speed>
  <fix>3d</fix>
</trkpt>
<trkpt lat="-27.2737727" lon="151.2899045">
  <ele>349.89</ele>
  <time>2026-09-01T19:58:07Z</time>
  <course>105.29</course>
  <speed>0.044721359549995794</speed>
  <fix>3d</fix>
</trkpt>
<trkpt lat="-27.2737726" lon="151.2899047">
  <ele>350.1</ele>
  <time>2026-09-01T19:58:07Z</time>
  <course>262.19</course>
  <speed>0.01</speed>
  <fix>3d</fix>
</trkpt>
<trkpt lat="-27.2737727" lon="151.2899044">
  <ele>349.82</ele>
  <time>2026-09-01T19:58:07Z</time>
  <course>105.31</course>
  <speed>0.0412310562561766</speed>
  <fix>3d</fix>
</trkpt>
<trkpt lat="-27.2737726" lon="151.2899047">
  <ele>350.1</ele>
  <time>2026-09-01T19:58:07Z</time>
  <course>262.19</course>
  <speed>0.01</speed>
  <fix>3d</fix>
</trkpt>
<trkpt lat="-27.2737727" lon="151.2899044">
  <ele>349.75</ele>
  <time>2026-09-01T19:58:07Z</time>
  <course>105.35</course>
  <speed>0.0412310562561766</speed>
  <fix>3d</fix>
</trkpt>
<trkpt lat="-27.2737726" lon="151.2899047">
  <ele>349.96</ele>
  <time>2026-09-01T19:58:07Z</time>
  <course>272.27</course>
  <speed>0.01</speed>
  <fix>3d</fix>
</trkpt>
<trkpt lat="-27.2737727" lon="151.2899044">
  <ele>349.69</ele>
  <time>2026-09-01T19:58:07Z</time>
  <course>105.42</course>
  <speed>0.0412310562561766</speed>
  <fix>3d</fix>
</trkpt>
<trkpt lat="-27.2737726" lon="151.2899047">
  <ele>349.96</ele>
  <time>2026-09-01T19:58:07Z</time>
  <course>272.27</course>
  <speed>0.01</speed>
  <fix>3d</fix>
</trkpt>
<trkpt lat="-27.2737727" lon="151.2899044">
  <ele>349.62</ele>
  <time>2026-09-01T19:58:07Z</time>
  <course>105.53</course>
  <speed>0.03</speed>
  <fix>3d</fix>
</trkpt>
<trkpt lat="-27.2737726" lon="151.2899047">
  <ele>349.82</ele>
  <time>2026-09-01T19:58:07Z</time>
  <course>309.62</course>
  <speed>0.01</speed>
  <fix>3d</fix>
</trkpt>
<trkpt lat="-27.2737727" lon="151.2899044">
  <ele>349.56</ele>
  <time>2026-09-01T19:58:07Z</time>
  <course>105.65</course>
  <speed>0.03</speed>
  <fix>3d</fix>
</trkpt>
<trkpt lat="-27.2737726" lon="151.2899047">
  <ele>349.82</ele>
  <time>2026-09-01T19:58:07Z</time>
  <course>309.62</course>
  <speed>0.01</speed>
  <fix>3d</fix>
</trkpt>
<trkpt lat="-27.2737727" lon="151.2899044">
  <ele>349.49</ele>
  <time>2026-09-01T19:58:07Z</time>
  <course>105.77</course>
  <speed>0.03</speed>
  <fix>3d</fix>
</trkpt>
<trkpt lat="-27.2737726" lon="151.2899047">
  <ele>349.69</ele>
  <time>2026-09-01T19:58:07Z</time>
  <course>346.34</course>
  <speed>0.01</speed>
  <fix>3d</fix>
</trkpt>
<trkpt lat="-27.2737727" lon="151.2899044">
  <ele>349.43</ele>
  <time>2026-09-01T19:58:07Z</time>
  <course>105.89</course>
  <speed>0.022360679774997897</speed>
  <fix>3d</fix>
</trkpt>
<trkpt lat="-27.2737726" lon="151.2899047">
  <ele>349.69</ele>
  <time>2026-09-01T19:58:07Z</time>
  <course>346.34</course>
  <speed>0.01</speed>
  <fix>3d</fix>
</trkpt>
<trkpt lat="-27.2737727" lon="151.2899044">
  <ele>349.36</ele>
  <time>2026-09-01T19:58:07Z</time>
  <course>105.99</course>
  <speed>0.022360679774997897</speed>
  <fix>3d</fix>
</trkpt>
<trkpt lat="-27.2737726" lon="151.2899047">
  <ele>349.56</ele>
  <time>2026-09-01T19:58:07Z</time>
  <course>1.69</course>
  <speed>0.03</speed>
  <fix>3d</fix>
</trkpt>
<trkpt lat="-27.2737727" lon="151.2899044">
  <ele>349.3</ele>
  <time>2026-09-01T19:58:07Z</time>
  <course>106.08</course>
  <speed>0.0282842712474619</speed>
  <fix>3d</fix>
</trkpt>
<trkpt lat="-27.2737726" lon="151.2899047">
  <ele>349.56</ele>
  <time>2026-09-01T19:58:07Z</time>
  <course>1.69</course>
  <speed>0.03</speed>
  <fix>3d</fix>
</trkpt>
<trkpt lat="-27.2737726" lon="151.2899044">
  <ele>349.24</ele>
  <time>2026-09-01T19:58:07Z</time>
  <course>106.13</course>
  <speed>0.03605551275463989</speed>
  <fix>3d</fix>
</trkpt>
<trkpt lat="-27.2737725" lon="151.2899047">
  <ele>349.44</ele>
  <time>2026-09-01T19:58:07Z</time>
  <course>8.4</course>
  <speed>0.04</speed>
  <fix>3d</fix>
</trkpt>
<trkpt lat="-27.2737726" lon="151.2899044">
  <ele>349.18</ele>
  <time>2026-09-01T19:58:07Z</time>
  <course>106.17</course>
  <speed>0.0316227766016838</speed>
  <fix>3d</fix>
</trkpt>
<trkpt lat="-27.2737725" lon="151.2899047">
  <ele>349.44</ele>
  <time>2026-09-01T19:58:07Z</time>
  <course>8.4</course>
  <speed>0.04</speed>
  <fix>3d</fix>
</trkpt>
<trkpt lat="-27.2737725" lon="151.2899045">
  <ele>349.12</ele>
  <time>2026-09-01T19:58:07Z</time>
  <course>106.18</course>
  <speed>0.0412310562561766</speed>
  <fix>3d</fix>
</trkpt>
<trkpt lat="-27.2737724" lon="151.2899047">
  <ele>349.32</ele>
  <time>2026-09-01T19:58:07Z</time>
  <course>11.93</course>
  <speed>0.05</speed>
  <fix>3d</fix>
</trkpt>
<trkpt lat="-27.2737725" lon="151.2899045">
  <ele>349.06</ele>
  <time>2026-09-01T19:58:07Z</time>
  <course>106.19</course>
  <speed>0.05099019513592785</speed>
  <fix>3d</fix>
</trkpt>
<trkpt lat="-27.2737724" lon="151.2899047">
  <ele>349.32</ele>
  <time>2026-09-01T19:58:07Z</time>
  <course>11.93</course>
  <speed>0.05</speed>
  <fix>3d</fix>
</trkpt>
<trkpt lat="-27.2737724" lon="151.2899045">
  <ele>349.01</ele>
  <time>2026-09-01T19:58:07Z</time>
  <course>106.18</course>
  <speed>0.05</speed>
  <fix>3d</fix>
</trkpt>
<trkpt lat="-27.2737723" lon="151.2899047">
  <ele>349.2</ele>
  <time>2026-09-01T19:58:07Z</time>
  <course>14.08</course>
  <speed>0.07</speed>
  <fix>3d</fix>
</trkpt>
<trkpt lat="-27.2737723" lon="151.2899045">
  <ele>348.95</ele>
  <time>2026-09-01T19:58:07Z</time>
  <course>106.18</course>
  <speed>0.06</speed>
  <fix>3d</fix>
</trkpt>
<trkpt lat="-27.2737723" lon="151.2899047">
  <ele>349.2</ele>
  <time>2026-09-01T19:58:07Z</time>
  <course>14.08</course>
  <speed>0.07</speed>
  <fix>3d</fix>
</trkpt>
<trkpt lat="-27.2737723" lon="151.2899045">
  <ele>348.9</ele>
  <time>2026-09-01T19:58:07Z</time>
  <course>106.18</course>
  <speed>0.06</speed>
  <fix>3d</fix>
</trkpt>
<trkpt lat="-27.2737721" lon="151.2899047">
  <ele>349.09</ele>
  <time>2026-09-01T19:58:07Z</time>
  <course>15.29</course>
  <speed>0.08</speed>
  <fix>3d</fix>
</trkpt>
<trkpt lat="-27.2737722" lon="151.2899045">
  <ele>348.84</ele>
  <time>2026-09-01T19:58:07Z</time>
  <course>106.2</course>
  <speed>0.07</speed>
  <fix>3d</fix>
</trkpt>
<trkpt lat="-27.2737721" lon="151.2899047">
  <ele>349.09</ele>
  <time>2026-09-01T19:58:07Z</time>
  <course>15.29</course>
  <speed>0.08</speed>
  <fix>3d</fix>
</trkpt>
<trkpt lat="-27.2737721" lon="151.2899045">
  <ele>348.79</ele>
  <time>2026-09-01T19:58:07Z</time>
  <course>106.22</course>
  <speed>0.07</speed>
  <fix>3d</fix>
</trkpt>
<trkpt lat="-27.273772" lon="151.2899047">
  <ele>348.98</ele>
  <time>2026-09-01T19:58:07Z</time>
  <course>16.14</course>
  <speed>0.09</speed>
  <fix>3d</fix>
</trkpt>
<trkpt lat="-27.273772" lon="151.2899045">
  <ele>348.74</ele>
  <time>2026-09-01T19:58:07Z</time>
  <course>106.24</course>
  <speed>0.07</speed>
  <fix>3d</fix>
</trkpt>
<trkpt lat="-27.273772" lon="151.2899047">
  <ele>348.98</ele>
  <time>2026-09-01T19:58:07Z</time>
  <course>16.14</course>
  <speed>0.09</speed>
  <fix>3d</fix>
</trkpt>
<trkpt lat="-27.2737719" lon="151.2899045">
  <ele>348.69</ele>
  <time>2026-09-01T19:58:07Z</time>
  <course>106.27</course>
  <speed>0.08</speed>
  <fix>3d</fix>
</trkpt>
<trkpt lat="-27.2737719" lon="151.2899048">
  <ele>348.88</ele>
  <time>2026-09-01T19:58:07Z</time>
  <course>17.15</course>
  <speed>0.1</speed>
  <fix>3d</fix>
</trkpt>
<trkpt lat="-27.2737719" lon="151.2899046">
  <ele>348.64</ele>
  <time>2026-09-01T19:58:07Z</time>
  <course>106.29</course>
  <speed>0.08</speed>
  <fix>3d</fix>
</trkpt>
<trkpt lat="-27.2737719" lon="151.2899048">
  <ele>348.88</ele>
  <time>2026-09-01T19:58:07Z</time>
  <course>17.15</course>
  <speed>0.1</speed>
  <fix>3d</fix>
</trkpt>
<trkpt lat="-27.2737718" lon="151.2899046">
  <ele>348.59</ele>
  <time>2026-09-01T19:58:07Z</time>
  <course>106.31</course>
  <speed>0.08</speed>
  <fix>3d</fix>
</trkpt>
<trkpt lat="-27.2737717" lon="151.2899048">
  <ele>348.78</ele>
  <time>2026-09-01T19:58:07Z</time>
  <course>18.35</course>
  <speed>0.1</speed>
  <fix>3d</fix>
</trkpt>
<trkpt lat="-27.2737717" lon="151.2899046">
  <ele>348.54</ele>
  <time>2026-09-01T19:58:07Z</time>
  <course>106.33</course>
  <speed>0.08</speed>
  <fix>3d</fix>
</trkpt>
<trkpt lat="-27.2737717" lon="151.2899048">
  <ele>348.78</ele>
  <time>2026-09-01T19:58:07Z</time>
  <course>18.35</course>
  <speed>0.1</speed>
  <fix>3d</fix>
</trkpt>
<trkpt lat="-27.2737716" lon="151.2899046">
  <ele>348.49</ele>
  <time>2026-09-01T19:58:07Z</time>
  <course>106.35</course>
  <speed>0.08</speed>
  <fix>3d</fix>
</trkpt>
<trkpt lat="-27.2737715" lon="151.2899049">
  <ele>348.68</ele>
  <time>2026-09-01T19:58:07Z</time>
  <course>19.45</course>
  <speed>0.11</speed>
  <fix>3d</fix>
</trkpt>
<trkpt lat="-27.2737715" lon="151.2899047">
  <ele>348.44</ele>
  <time>2026-09-01T19:58:07Z</time>
  <course>106.36</course>
  <speed>0.08</speed>
  <fix>3d</fix>
</trkpt>
<trkpt lat="-27.2737715" lon="151.2899049">
  <ele>348.68</ele>
  <time>2026-09-01T19:58:07Z</time>
  <course>19.45</course>
  <speed>0.11</speed>
  <fix>3d</fix>
</trkpt>
<trkpt lat="-27.2737714" lon="151.2899047">
  <ele>348.39</ele>
  <time>2026-09-01T19:58:07Z</time>
  <course>106.38</course>
  <speed>0.08</speed>
  <fix>3d</fix>
</trkpt>
<trkpt lat="-27.2737713" lon="151.289905">
  <ele>348.58</ele>
  <time>2026-09-01T19:58:07Z</time>
  <course>20.38</course>
  <speed>0.11</speed>
  <fix>3d</fix>
</trkpt>
<trkpt lat="-27.2737713" lon="151.2899048">
  <ele>348.34</ele>
  <time>2026-09-01T19:58:07Z</time>
  <course>106.38</course>
  <speed>0.08</speed>
  <fix>3d</fix>
</trkpt>
<trkpt lat="-27.2737713" lon="151.289905">
  <ele>348.58</ele>
  <time>2026-09-01T19:58:07Z</time>
  <course>20.38</course>
  <speed>0.11</speed>
  <fix>3d</fix>
</trkpt>
<trkpt lat="-27.2737712" lon="151.2899048">
  <ele>348.29</ele>
  <time>2026-09-01T19:58:07Z</time>
  <course>106.39</course>
  <speed>0.08</speed>
  <fix>3d</fix>
</trkpt>
<trkpt lat="-27.2737711" lon="151.2899051">
  <ele>348.47</ele>
  <time>2026-09-01T19:58:07Z</time>
  <course>21.42</course>
  <speed>0.11</speed>
  <fix>3d</fix>
</trkpt>
<trkpt lat="-27.2737711" lon="151.2899048">
  <ele>348.24</ele>
  <time>2026-09-01T19:58:07Z</time>
  <course>106.41</course>
  <speed>0.08</speed>
  <fix>3d</fix>
</trkpt>
<trkpt lat="-27.2737711" lon="151.2899051">
  <ele>348.47</ele>
  <time>2026-09-01T19:58:07Z</time>
  <course>21.42</course>
  <speed>0.11</speed>
  <fix>3d</fix>
</trkpt>
<trkpt lat="-27.273771" lon="151.2899049">
  <ele>348.19</ele>
  <time>2026-09-01T19:58:07Z</time>
  <course>106.42</course>
  <speed>0.08</speed>
  <fix>3d</fix>
</trkpt>
<trkpt lat="-27.2737709" lon="151.2899052">
  <ele>348.38</ele>
  <time>2026-09-01T19:58:07Z</time>
  <course>22.69</course>
  <speed>0.1</speed>
  <fix>3d</fix>
</trkpt>
<trkpt lat="-27.2737709" lon="151.2899049">
  <ele>348.14</ele>
  <time>2026-09-01T19:58:07Z</time>
  <course>106.43</course>
  <speed>0.08062257748298549</speed>
  <fix>3d</fix>
</trkpt>
<trkpt lat="-27.2737709" lon="151.2899052">
  <ele>348.38</ele>
  <time>2026-09-01T19:58:07Z</time>
  <course>22.69</course>
  <speed>0.1</speed>
  <fix>3d</fix>
</trkpt>
<trkpt lat="-27.2737709" lon="151.2899049">
  <ele>348.09</ele>
  <time>2026-09-01T19:58:07Z</time>
  <course>106.44</course>
  <speed>0.07071067811865475</speed>
  <fix>3d</fix>
</trkpt>
<trkpt lat="-27.2737708" lon="151.2899052">
  <ele>348.28</ele>
  <time>2026-09-01T19:58:07Z</time>
  <course>24.14</course>
  <speed>0.1</speed>
  <fix>3d</fix>
</trkpt>
<trkpt lat="-27.2737708" lon="151.289905">
  <ele>348.04</ele>
  <time>2026-09-01T19:58:07Z</time>
  <course>106.45</course>
  <speed>0.07071067811865475</speed>
  <fix>3d</fix>
</trkpt>
<trkpt lat="-27.2737708" lon="151.2899052">
  <ele>348.28</ele>
  <time>2026-09-01T19:58:07Z</time>
  <course>24.14</course>
  <speed>0.1</speed>
  <fix>3d</fix>
</trkpt>
<trkpt lat="-27.2737707" lon="151.289905">
  <ele>347.99</ele>
  <time>2026-09-01T19:58:07Z</time>
  <course>106.45</course>
  <speed>0.06</speed>
  <fix>3d</fix>
</trkpt>
<trkpt lat="-27.2737706" lon="151.2899053">
  <ele>348.18</ele>
  <time>2026-09-01T19:58:07Z</time>
  <course>25.8</course>
  <speed>0.09</speed>
  <fix>3d</fix>
</trkpt>
<trkpt lat="-27.2737706" lon="151.2899051">
  <ele>347.94</ele>
  <time>2026-09-01T19:58:07Z</time>
  <course>106.46</course>
  <speed>0.06</speed>
  <fix>3d</fix>
</trkpt>
<trkpt lat="-27.2737706" lon="151.2899053">
  <ele>348.18</ele>
  <time>2026-09-01T19:58:07Z</time>
  <course>25.8</course>
  <speed>0.09</speed>
  <fix>3d</fix>
</trkpt>
<trkpt lat="-27.2737706" lon="151.2899051">
  <ele>347.89</ele>
  <time>2026-09-01T19:58:07Z</time>
  <course>106.46</course>
  <speed>0.06</speed>
  <fix>3d</fix>
</trkpt>
<trkpt lat="-27.2737704" lon="151.2899054">
  <ele>348.07</ele>
  <time>2026-09-01T19:58:07Z</time>
  <course>28.09</course>
  <speed>0.09</speed>
  <fix>3d</fix>
</trkpt>
<trkpt lat="-27.2737705" lon="151.2899051">
  <ele>347.84</ele>
  <time>2026-09-01T19:58:07Z</time>
  <course>106.46</course>
  <speed>0.05</speed>
  <fix>3d</fix>
</trkpt>
<trkpt lat="-27.2737704" lon="151.2899054">
  <ele>348.07</ele>
  <time>2026-09-01T19:58:07Z</time>
  <course>28.09</course>
  <speed>0.09</speed>
  <fix>3d</fix>
</trkpt>
<trkpt lat="-27.2737704" lon="151.2899052">
  <ele>347.79</ele>
  <time>2026-09-01T19:58:07Z</time>
  <course>106.48</course>
  <speed>0.05</speed>
  <fix>3d</fix>
</trkpt>
<trkpt lat="-27.2737703" lon="151.2899055">
  <ele>347.97</ele>
  <time>2026-09-01T19:58:07Z</time>
  <course>30.98</course>
  <speed>0.08</speed>
  <fix>3d</fix>
</trkpt>
<trkpt lat="-27.2737704" lon="151.2899052">
  <ele>347.73</ele>
  <time>2026-09-01T19:58:07Z</time>
  <course>106.5</course>
  <speed>0.04</speed>
  <fix>3d</fix>
</trkpt>
<trkpt lat="-27.2737703" lon="151.2899055">
  <ele>347.97</ele>
  <time>2026-09-01T19:58:07Z</time>
  <course>30.98</course>
  <speed>0.08</speed>
  <fix>3d</fix>
</trkpt>
<trkpt lat="-27.2737703" lon="151.2899053">
  <ele>347.68</ele>
  <time>2026-09-01T19:58:07Z</time>
  <course>106.51</course>
  <speed>0.04</speed>
  <fix>3d</fix>
</trkpt>
<trkpt lat="-27.2737702" lon="151.2899056">
  <ele>347.87</ele>
  <time>2026-09-01T19:58:07Z</time>
  <course>34.18</course>
  <speed>0.07</speed>
  <fix>3d</fix>
</trkpt>
<trkpt lat="-27.2737703" lon="151.2899053">
  <ele>347.63</ele>
  <time>2026-09-01T19:58:07Z</time>
  <course>106.53</course>
  <speed>0.03</speed>
  <fix>3d</fix>
</trkpt>
<trkpt lat="-27.2737702" lon="151.2899056">
  <ele>347.87</ele>
  <time>2026-09-01T19:58:07Z</time>
  <course>34.18</course>
  <speed>0.07</speed>
  <fix>3d</fix>
</trkpt>
<trkpt lat="-27.2737702" lon="151.2899053">
  <ele>347.58</ele>
  <time>2026-09-01T19:58:07Z</time>
  <course>106.55</course>
  <speed>0.03</speed>
  <fix>3d</fix>
</trkpt>
<trkpt lat="-27.2737701" lon="151.2899057">
  <ele>347.77</ele>
  <time>2026-09-01T19:58:07Z</time>
  <course>38.57</course>
  <speed>0.06</speed>
  <fix>3d</fix>
</trkpt>
<trkpt lat="-27.2737702" lon="151.2899054">
  <ele>347.53</ele>
  <time>2026-09-01T19:58:07Z</time>
  <course>106.57</course>
  <speed>0.02</speed>
  <fix>3d</fix>
</trkpt>
<trkpt lat="-27.2737701" lon="151.2899057">
  <ele>347.77</ele>
  <time>2026-09-01T19:58:07Z</time>
  <course>38.57</course>
  <speed>0.06</speed>
  <fix>3d</fix>
</trkpt>
<trkpt lat="-27.2737702" lon="151.2899054">
  <ele>347.48</ele>
  <time>2026-09-01T19:58:07Z</time>
  <course>106.59</course>
  <speed>0.01</speed>
  <fix>3d</fix>
</trkpt>
<trkpt lat="-27.27377" lon="151.2899057">
  <ele>347.66</ele>
  <time>2026-09-01T19:58:07Z</time>
  <course>44.66</course>
  <speed>0.05</speed>
  <fix>3d</fix>
</trkpt>
<trkpt lat="-27.2737701" lon="151.2899054">
  <ele>347.43</ele>
  <time>2026-09-01T19:58:07Z</time>
  <course>106.61</course>
  <speed>0.01</speed>
  <fix>3d</fix>
</trkpt>
<trkpt lat="-27.27377" lon="151.2899057">
  <ele>347.66</ele>
  <time>2026-09-01T19:58:07Z</time>
  <course>44.66</course>
  <speed>0.05</speed>
  <fix>3d</fix>
</trkpt>
<trkpt lat="-27.2737701" lon="151.2899055">
  <ele>347.38</ele>
  <time>2026-09-01T19:58:07Z</time>
  <course>106.64</course>
  <speed>0.0</speed>
  <fix>3d</fix>
</trkpt>
<trkpt lat="-27.27377" lon="151.2899058">
  <ele>347.57</ele>
  <time>2026-09-01T19:58:07Z</time>
  <course>52.26</course>
  <speed>0.04</speed>
  <fix>3d</fix>
</trkpt>
<trkpt lat="-27.2737701" lon="151.2899055">
  <ele>347.33</ele>
  <time>2026-09-01T19:58:07Z</time>
  <course>106.66</course>
  <speed>0.0</speed>
  <fix>3d</fix>
</trkpt>
<trkpt lat="-27.27377" lon="151.2899058">
  <ele>347.57</ele>
  <time>2026-09-01T19:58:07Z</time>
  <course>52.26</course>
  <speed>0.04</speed>
  <fix>3d</fix>
</trkpt>
<trkpt lat="-27.2737701" lon="151.2899055">
  <ele>347.28</ele>
  <time>2026-09-01T19:58:07Z</time>
  <course>106.67</course>
  <speed>0.0</speed>
  <fix>3d</fix>
</trkpt>
<trkpt lat="-27.2737699" lon="151.2899059">
  <ele>347.47</ele>
  <time>2026-09-01T19:58:07Z</time>
  <course>61.55</course>
  <speed>0.03</speed>
  <fix>3d</fix>
</trkpt>
<trkpt lat="-27.2737701" lon="151.2899056">
  <ele>347.23</ele>
  <time>2026-09-01T19:58:08Z</time>
  <course>106.68</course>
  <speed>0.0</speed>
  <fix>3d</fix>
</trkpt>
<trkpt lat="-27.2737699" lon="151.2899059">
  <ele>347.47</ele>
  <time>2026-09-01T19:58:08Z</time>
  <course>61.55</course>
  <speed>0.03</speed>
  <fix>3d</fix>
</trkpt>
<trkpt lat="-27.2737701" lon="151.2899056">
  <ele>347.18</ele>
  <time>2026-09-01T19:58:08Z</time>
  <course>106.69</course>
  <speed>0.01</speed>
  <fix>3d</fix>
</trkpt>
<trkpt lat="-27.2737699" lon="151.289906">
  <ele>347.37</ele>
  <time>2026-09-01T19:58:08Z</time>
  <course>74.25</course>
  <speed>0.02</speed>
  <fix>3d</fix>
</trkpt>
<trkpt lat="-27.2737701" lon="151.2899056">
  <ele>347.13</ele>
  <time>2026-09-01T19:58:08Z</time>
  <course>106.71</course>
  <speed>0.01414213562373095</speed>
  <fix>3d</fix>
</trkpt>
<trkpt lat="-27.2737699" lon="151.289906">
  <ele>347.37</ele>
  <time>2026-09-01T19:58:08Z</time>
  <course>74.25</course>
  <speed>0.02</speed>
  <fix>3d</fix>
</trkpt>
<trkpt lat="-27.2737701" lon="151.2899056">
  <ele>347.08</ele>
  <time>2026-09-01T19:58:08Z</time>
  <course>106.74</course>
  <speed>0.01414213562373095</speed>
  <fix>3d</fix>
</trkpt>
<trkpt lat="-27.2737699" lon="151.289906">
  <ele>347.27</ele>
  <time>2026-09-01T19:58:08Z</time>
  <course>92.37</course>
  <speed>0.02</speed>
  <fix>3d</fix>
</trkpt>
<trkpt lat="-27.2737701" lon="151.2899057">
  <ele>347.03</ele>
  <time>2026-09-01T19:58:08Z</time>
  <course>106.77</course>
  <speed>0.022360679774997897</speed>
  <fix>3d</fix>
</trkpt>
<trkpt lat="-27.2737699" lon="151.289906">
  <ele>347.27</ele>
  <time>2026-09-01T19:58:08Z</time>
  <course>92.37</course>
  <speed>0.02</speed>
  <fix>3d</fix>
</trkpt>
<trkpt lat="-27.2737701" lon="151.2899057">
  <ele>346.98</ele>
  <time>2026-09-01T19:58:08Z</time>
  <course>106.81</course>
  <speed>0.022360679774997897</speed>
  <fix>3d</fix>
</trkpt>
<trkpt lat="-27.2737699" lon="151.2899061">
  <ele>347.16</ele>
  <time>2026-09-01T19:58:08Z</time>
  <course>112.6</course>
  <speed>0.02</speed>
  <fix>3d</fix>
</trkpt>
<trkpt lat="-27.2737701" lon="151.2899057">
  <ele>346.93</ele>
  <time>2026-09-01T19:58:08Z</time>
  <course>106.85</course>
  <speed>0.022360679774997897</speed>
  <fix>3d</fix>
</trkpt>
<trkpt lat="-27.2737699" lon="151.2899061">
  <ele>347.16</ele>
  <time>2026-09-01T19:58:08Z</time>
  <course>112.6</course>
  <speed>0.02</speed>
  <fix>3d</fix>
</trkpt>
<trkpt lat="-27.2737701" lon="151.2899057">
  <ele>346.88</ele>
  <time>2026-09-01T19:58:08Z</time>
  <course>106.88</course>
  <speed>0.022360679774997897</speed>
  <fix>3d</fix>
</trkpt>
<trkpt lat="-27.2737699" lon="151.2899061">
  <ele>347.07</ele>
  <time>2026-09-01T19:58:08Z</time>
  <course>130.62</course>
  <speed>0.02</speed>
  <fix>3d</fix>
</trkpt>
<trkpt lat="-27.2737701" lon="151.2899057">
  <ele>346.83</ele>
  <time>2026-09-01T19:58:08Z</time>
  <course>106.92</course>
  <speed>0.0316227766016838</speed>
  <fix>3d</fix>
</trkpt>
<trkpt lat="-27.2737699" lon="151.2899061">
  <ele>347.07</ele>
  <time>2026-09-01T19:58:08Z</time>
  <course>130.62</course>
  <speed>0.02</speed>
  <fix>3d</fix>
</trkpt>
<trkpt lat="-27.2737701" lon="151.2899058">
  <ele>346.78</ele>
  <time>2026-09-01T19:58:08Z</time>
  <course>106.94</course>
  <speed>0.03605551275463989</speed>
  <fix>3d</fix>
</trkpt>
<trkpt lat="-27.2737699" lon="151.2899061">
  <ele>346.97</ele>
  <time>2026-09-01T19:58:08Z</time>
  <course>144.23</course>
  <speed>0.02</speed>
  <fix>3d</fix>
</trkpt>
<trkpt lat="-27.2737701" lon="151.2899058">
  <ele>346.73</ele>
  <time>2026-09-01T19:58:08Z</time>
  <course>106.96</course>
  <speed>0.03605551275463989</speed>
  <fix>3d</fix>
</trkpt>
<trkpt lat="-27.2737699" lon="151.2899061">
  <ele>346.97</ele>
  <time>2026-09-01T19:58:08Z</time>
  <course>144.23</course>
  <speed>0.02</speed>
  <fix>3d</fix>
</trkpt>
<trkpt lat="-27.2737701" lon="151.2899058">
  <ele>346.69</ele>
  <time>2026-09-01T19:58:08Z</time>
  <course>106.98</course>
  <speed>0.03605551275463989</speed>
  <fix>3d</fix>
</trkpt>
<trkpt lat="-27.2737699" lon="151.2899062">
  <ele>346.87</ele>
  <time>2026-09-01T19:58:08Z</time>
  <course>153.33</course>
  <speed>0.02</speed>
  <fix>3d</fix>
</trkpt>
<trkpt lat="-27.2737701" lon="151.2899058">
  <ele>346.64</ele>
  <time>2026-09-01T19:58:08Z</time>
  <course>106.99</course>
  <speed>0.03605551275463989</speed>
  <fix>3d</fix>
</trkpt>
<trkpt lat="-27.2737699" lon="151.2899062">
  <ele>346.87</ele>
  <time>2026-09-01T19:58:08Z</time>
  <course>153.33</course>
  <speed>0.02</speed>
  <fix>3d</fix>
</trkpt>
<trkpt lat="-27.2737701" lon="151.2899058">
  <ele>346.59</ele>
  <time>2026-09-01T19:58:08Z</time>
  <course>106.99</course>
  <speed>0.03605551275463989</speed>
  <fix>3d</fix>
</trkpt>
<trkpt lat="-27.2737699" lon="151.2899062">
  <ele>346.77</ele>
  <time>2026-09-01T19:58:08Z</time>
  <course>160.04</course>
  <speed>0.02</speed>
  <fix>3d</fix>
</trkpt>
<trkpt lat="-27.2737701" lon="151.2899058">
  <ele>346.54</ele>
  <time>2026-09-01T19:58:08Z</time>
  <course>106.98</course>
  <speed>0.03605551275463989</speed>
  <fix>3d</fix>
</trkpt>
<trkpt lat="-27.2737699" lon="151.2899062">
  <ele>346.77</ele>
  <time>2026-09-01T19:58:08Z</time>
  <course>160.04</course>
  <speed>0.02</speed>
  <fix>3d</fix>
</trkpt>
<trkpt lat="-27.2737701" lon="151.2899058">
  <ele>346.49</ele>
  <time>2026-09-01T19:58:08Z</time>
  <course>106.98</course>
  <speed>0.03605551275463989</speed>
  <fix>3d</fix>
</trkpt>
<trkpt lat="-27.27377" lon="151.2899062">
  <ele>346.66</ele>
  <time>2026-09-01T19:58:08Z</time>
  <course>166.72</course>
  <speed>0.02</speed>
  <fix>3d</fix>
</trkpt>
<trkpt lat="-27.2737701" lon="151.2899059">
  <ele>346.44</ele>
  <time>2026-09-01T19:58:08Z</time>
  <course>106.98</course>
  <speed>0.03605551275463989</speed>
  <fix>3d</fix>
</trkpt>
<trkpt lat="-27.27377" lon="151.2899062">
  <ele>346.66</ele>
  <time>2026-09-01T19:58:08Z</time>
  <course>166.72</course>
  <speed>0.02</speed>
  <fix>3d</fix>
</trkpt>
<trkpt lat="-27.2737702" lon="151.2899059">
  <ele>346.39</ele>
  <time>2026-09-01T19:58:08Z</time>
  <course>106.98</course>
  <speed>0.04242640687119285</speed>
  <fix>3d</fix>
</trkpt>
<trkpt lat="-27.27377" lon="151.2899062">
  <ele>346.57</ele>
  <time>2026-09-01T19:58:08Z</time>
  <course>174.25</course>
  <speed>0.02</speed>
  <fix>3d</fix>
</trkpt>
<trkpt lat="-27.2737702" lon="151.2899059">
  <ele>346.34</ele>
  <time>2026-09-01T19:58:08Z</time>
  <course>106.99</course>
  <speed>0.04242640687119285</speed>
  <fix>3d</fix>
</trkpt>
<trkpt lat="-27.27377" lon="151.2899062">
  <ele>346.57</ele>
  <time>2026-09-01T19:58:08Z</time>
  <course>174.25</course>
  <speed>0.02</speed>
  <fix>3d</fix>
</trkpt>
<trkpt lat="-27.2737702" lon="151.2899059">
  <ele>346.29</ele>
  <time>2026-09-01T19:58:08Z</time>
  <course>107.01</course>
  <speed>0.04242640687119285</speed>
  <fix>3d</fix>
</trkpt>
<trkpt lat="-27.2737701" lon="151.2899062">
  <ele>346.47</ele>
  <time>2026-09-01T19:58:08Z</time>
  <course>181.3</course>
  <speed>0.02</speed>
  <fix>3d</fix>
</trkpt>
<trkpt lat="-27.2737702" lon="151.2899059">
  <ele>346.24</ele>
  <time>2026-09-01T19:58:08Z</time>
  <course>107.02</course>
  <speed>0.04242640687119285</speed>
  <fix>3d</fix>
</trkpt>
<trkpt lat="-27.2737701" lon="151.2899062">
  <ele>346.47</ele>
  <time>2026-09-01T19:58:08Z</time>
  <course>181.3</course>
  <speed>0.02</speed>
  <fix>3d</fix>
</trkpt>
<trkpt lat="-27.2737702" lon="151.2899059">
  <ele>346.19</ele>
  <time>2026-09-01T19:58:08Z</time>
  <course>107.04</course>
  <speed>0.04242640687119285</speed>
  <fix>3d</fix>
</trkpt>
<trkpt lat="-27.2737701" lon="151.2899062">
  <ele>346.37</ele>
  <time>2026-09-01T19:58:08Z</time>
  <course>186.04</course>
  <speed>0.03</speed>
  <fix>3d</fix>
</trkpt>
<trkpt lat="-27.2737703" lon="151.2899059">
  <ele>346.14</ele>
  <time>2026-09-01T19:58:08Z</time>
  <course>107.07</course>
  <speed>0.05</speed>
  <fix>3d</fix>
</trkpt>
<trkpt lat="-27.2737701" lon="151.2899062">
  <ele>346.37</ele>
  <time>2026-09-01T19:58:08Z</time>
  <course>186.04</course>
  <speed>0.03</speed>
  <fix>3d</fix>
</trkpt>
<trkpt lat="-27.2737703" lon="151.2899059">
  <ele>346.09</ele>
  <time>2026-09-01T19:58:08Z</time>
  <course>107.09</course>
  <speed>0.05</speed>
  <fix>3d</fix>
</trkpt>
<trkpt lat="-27.2737702" lon="151.2899062">
  <ele>346.27</ele>
  <time>2026-09-01T19:58:08Z</time>
  <course>188.4</course>
  <speed>0.03</speed>
  <fix>3d</fix>
</trkpt>
<trkpt lat="-27.2737703" lon="151.2899059">
  <ele>346.04</ele>
  <time>2026-09-01T19:58:08Z</time>
  <course>107.11</course>
  <speed>0.05</speed>
  <fix>3d</fix>
</trkpt>
<trkpt lat="-27.2737702" lon="151.2899062">
  <ele>346.27</ele>
  <time>2026-09-01T19:58:08Z</time>
  <course>188.4</course>
  <speed>0.03</speed>
  <fix>3d</fix>
</trkpt>
<trkpt lat="-27.2737703" lon="151.2899059">
  <ele>345.99</ele>
  <time>2026-09-01T19:58:08Z</time>
  <course>107.12</course>
  <speed>0.05</speed>
  <fix>3d</fix>
</trkpt>
<trkpt lat="-27.2737702" lon="151.2899062">
  <ele>346.16</ele>
  <time>2026-09-01T19:58:08Z</time>
  <course>190.49</course>
  <speed>0.03</speed>
  <fix>3d</fix>
</trkpt>
<trkpt lat="-27.2737704" lon="151.2899059">
  <ele>345.94</ele>
  <time>2026-09-01T19:58:08Z</time>
  <course>107.13</course>
  <speed>0.05</speed>
  <fix>3d</fix>
</trkpt>
<trkpt lat="-27.2737702" lon="151.2899062">
  <ele>346.16</ele>
  <time>2026-09-01T19:58:08Z</time>
  <course>190.49</course>
  <speed>0.03</speed>
  <fix>3d</fix>
</trkpt>
<trkpt lat="-27.2737704" lon="151.2899059">
  <ele>345.89</ele>
  <time>2026-09-01T19:58:08Z</time>
  <course>107.14</course>
  <speed>0.05</speed>
  <fix>3d</fix>
</trkpt>
<trkpt lat="-27.2737703" lon="151.2899062">
  <ele>346.06</ele>
  <time>2026-09-01T19:58:08Z</time>
  <course>193.57</course>
  <speed>0.03</speed>
  <fix>3d</fix>
</trkpt>
<trkpt lat="-27.2737704" lon="151.2899059">
  <ele>345.84</ele>
  <time>2026-09-01T19:58:08Z</time>
  <course>107.15</course>
  <speed>0.05</speed>
  <fix>3d</fix>
</trkpt>
<trkpt lat="-27.2737703" lon="151.2899062">
  <ele>346.06</ele>
  <time>2026-09-01T19:58:08Z</time>
  <course>193.57</course>
  <speed>0.03</speed>
  <fix>3d</fix>
</trkpt>
<trkpt lat="-27.2737704" lon="151.2899059">
  <ele>345.79</ele>
  <time>2026-09-01T19:58:08Z</time>
  <course>107.16</course>
  <speed>0.0565685424949238</speed>
  <fix>3d</fix>
</trkpt>
<trkpt lat="-27.2737704" lon="151.2899062">
  <ele>345.96</ele>
  <time>2026-09-01T19:58:08Z</time>
  <course>197.52</course>
  <speed>0.03</speed>
  <fix>3d</fix>
</trkpt>
<trkpt lat="-27.2737705" lon="151.2899059">
  <ele>345.74</ele>
  <time>2026-09-01T19:58:08Z</time>
  <course>107.16</course>
  <speed>0.05</speed>
  <fix>3d</fix>
</trkpt>
<trkpt lat="-27.2737704" lon="151.2899062">
  <ele>345.96</ele>
  <time>2026-09-01T19:58:08Z</time>
  <course>197.52</course>
  <speed>0.03</speed>
  <fix>3d</fix>
</trkpt>
<trkpt lat="-27.2737705" lon="151.2899059">
  <ele>345.69</ele>
  <time>2026-09-01T19:58:08Z</time>
  <course>107.17</course>
  <speed>0.05</speed>
  <fix>3d</fix>
</trkpt>
<trkpt lat="-27.2737704" lon="151.2899062">
  <ele>345.86</ele>
  <time>2026-09-01T19:58:08Z</time>
  <course>202.05</course>
  <speed>0.03</speed>
  <fix>3d</fix>
</trkpt>
<trkpt lat="-27.2737705" lon="151.2899059">
  <ele>345.64</ele>
  <time>2026-09-01T19:58:08Z</time>
  <course>107.17</course>
  <speed>0.05</speed>
  <fix>3d</fix>
</trkpt>
<trkpt lat="-27.2737704" lon="151.2899062">
  <ele>345.86</ele>
  <time>2026-09-01T19:58:08Z</time>
  <course>202.05</course>
  <speed>0.03</speed>
  <fix>3d</fix>
</trkpt>
<trkpt lat="-27.2737705" lon="151.2899059">
  <ele>345.59</ele>
  <time>2026-09-01T19:58:08Z</time>
  <course>107.17</course>
  <speed>0.05</speed>
  <fix>3d</fix>
</trkpt>
<trkpt lat="-27.2737705" lon="151.2899062">
  <ele>345.76</ele>
  <time>2026-09-01T19:58:08Z</time>
  <course>206.59</course>
  <speed>0.03</speed>
  <fix>3d</fix>
</trkpt>
<trkpt lat="-27.2737706" lon="151.2899059">
  <ele>345.54</ele>
  <time>2026-09-01T19:58:08Z</time>
  <course>107.17</course>
  <speed>0.05</speed>
  <fix>3d</fix>
</trkpt>
<trkpt lat="-27.2737705" lon="151.2899062">
  <ele>345.76</ele>
  <time>2026-09-01T19:58:08Z</time>
  <course>206.59</course>
  <speed>0.03</speed>
  <fix>3d</fix>
</trkpt>
<trkpt lat="-27.2737706" lon="151.2899058">
  <ele>345.49</ele>
  <time>2026-09-01T19:58:08Z</time>
  <course>107.17</course>
  <speed>0.05</speed>
  <fix>3d</fix>
</trkpt>
<trkpt lat="-27.2737705" lon="151.2899062">
  <ele>345.65</ele>
  <time>2026-09-01T19:58:08Z</time>
  <course>210.88</course>
  <speed>0.02</speed>
  <fix>3d</fix>
</trkpt>
<trkpt lat="-27.2737706" lon="151.2899058">
  <ele>345.43</ele>
  <time>2026-09-01T19:58:08Z</time>
  <course>107.18</course>
  <speed>0.05</speed>
  <fix>3d</fix>
</trkpt>
<trkpt lat="-27.2737705" lon="151.2899062">
  <ele>345.65</ele>
  <time>2026-09-01T19:58:08Z</time>
  <course>210.88</course>
  <speed>0.02</speed>
  <fix>3d</fix>
</trkpt>
<trkpt lat="-27.2737706" lon="151.2899058">
  <ele>345.38</ele>
  <time>2026-09-01T19:58:08Z</time>
  <course>107.19</course>
  <speed>0.044721359549995794</speed>
  <fix>3d</fix>
</trkpt>
<trkpt lat="-27.2737706" lon="151.2899062">
  <ele>345.55</ele>
  <time>2026-09-01T19:58:08Z</time>
  <course>214.79</course>
  <speed>0.02</speed>
  <fix>3d</fix>
</trkpt>
<trkpt lat="-27.2737706" lon="151.2899058">
  <ele>345.34</ele>
  <time>2026-09-01T19:58:08Z</time>
  <course>107.19</course>
  <speed>0.044721359549995794</speed>
  <fix>3d</fix>
</trkpt>
<trkpt lat="-27.2737706" lon="151.2899062">
  <ele>345.55</ele>
  <time>2026-09-01T19:58:08Z</time>
  <course>214.79</course>
  <speed>0.02</speed>
  <fix>3d</fix>
</trkpt>
<trkpt lat="-27.2737707" lon="151.2899058">
  <ele>345.29</ele>
  <time>2026-09-01T19:58:08Z</time>
  <course>107.2</course>
  <speed>0.044721359549995794</speed>
  <fix>3d</fix>
</trkpt>
<trkpt lat="-27.2737706" lon="151.2899061">
  <ele>345.45</ele>
  <time>2026-09-01T19:58:08Z</time>
  <course>218.29</course>
  <speed>0.02</speed>
  <fix>3d</fix>
</trkpt>
<trkpt lat="-27.2737707" lon="151.2899058">
  <ele>345.24</ele>
  <time>2026-09-01T19:58:08Z</time>
  <course>107.2</course>
  <speed>0.044721359549995794</speed>
  <fix>3d</fix>
</trkpt>
<trkpt lat="-27.2737706" lon="151.2899061">
  <ele>345.45</ele>
  <time>2026-09-01T19:58:08Z</time>
  <course>218.29</course>
  <speed>0.02</speed>
  <fix>3d</fix>
</trkpt>
<trkpt lat="-27.2737707" lon="151.2899058">
  <ele>345.19</ele>
  <time>2026-09-01T19:58:08Z</time>
  <course>107.2</course>
  <speed>0.044721359549995794</speed>
  <fix>3d</fix>
</trkpt>
<trkpt lat="-27.2737706" lon="151.2899061">
  <ele>345.34</ele>
  <time>2026-09-01T19:58:08Z</time>
  <course>223.23</course>
  <speed>0.02</speed>
  <fix>3d</fix>
</trkpt>
<trkpt lat="-27.2737707" lon="151.2899058">
  <ele>345.14</ele>
  <time>2026-09-01T19:58:08Z</time>
  <course>107.21</course>
  <speed>0.044721359549995794</speed>
  <fix>3d</fix>
</trkpt>
<trkpt lat="-27.2737706" lon="151.2899061">
  <ele>345.34</ele>
  <time>2026-09-01T19:58:08Z</time>
  <course>223.23</course>
  <speed>0.02</speed>
  <fix>3d</fix>
</trkpt>
<trkpt lat="-27.2737707" lon="151.2899058">
  <ele>345.09</ele>
  <time>2026-09-01T19:58:08Z</time>
  <course>107.21</course>
  <speed>0.0412310562561766</speed>
  <fix>3d</fix>
</trkpt>
<trkpt lat="-27.2737707" lon="151.2899061">
  <ele>345.25</ele>
  <time>2026-09-01T19:58:08Z</time>
  <course>232.02</course>
  <speed>0.01</speed>
  <fix>3d</fix>
</trkpt>
<trkpt lat="-27.2737707" lon="151.2899058">
  <ele>345.04</ele>
  <time>2026-09-01T19:58:08Z</time>
  <course>107.22</course>
  <speed>0.0412310562561766</speed>
  <fix>3d</fix>
</trkpt>
<trkpt lat="-27.2737707" lon="151.2899061">
  <ele>345.25</ele>
  <time>2026-09-01T19:58:08Z</time>
  <course>232.02</course>
  <speed>0.01</speed>
  <fix>3d</fix>
</trkpt>
<trkpt lat="-27.2737707" lon="151.2899058">
  <ele>344.98</ele>
  <time>2026-09-01T19:58:08Z</time>
  <course>107.23</course>
  <speed>0.0412310562561766</speed>
  <fix>3d</fix>
</trkpt>
<trkpt lat="-27.2737707" lon="151.289906">
  <ele>345.15</ele>
  <time>2026-09-01T19:58:08Z</time>
  <course>244.75</course>
  <speed>0.01</speed>
  <fix>3d</fix>
</trkpt>
<trkpt lat="-27.2737707" lon="151.2899058">
  <ele>344.93</ele>
  <time>2026-09-01T19:58:08Z</time>
  <course>107.24</course>
  <speed>0.0316227766016838</speed>
  <fix>3d</fix>
</trkpt>
<trkpt lat="-27.2737707" lon="151.289906">
  <ele>345.15</ele>
  <time>2026-09-01T19:58:08Z</time>
  <course>244.75</course>
  <speed>0.01</speed>
  <fix>3d</fix>
</trkpt>
<trkpt lat="-27.2737707" lon="151.2899057">
  <ele>344.88</ele>
  <time>2026-09-01T19:58:08Z</time>
  <course>107.25</course>
  <speed>0.0316227766016838</speed>
  <fix>3d</fix>
</trkpt>
<trkpt lat="-27.2737707" lon="151.289906">
  <ele>345.05</ele>
  <time>2026-09-01T19:58:08Z</time>
  <course>261.68</course>
  <speed>0.01</speed>
  <fix>3d</fix>
</trkpt>
<trkpt lat="-27.2737707" lon="151.2899057">
  <ele>344.83</ele>
  <time>2026-09-01T19:58:08Z</time>
  <course>107.27</course>
  <speed>0.03</speed>
  <fix>3d</fix>
</trkpt>
<trkpt lat="-27.2737707" lon="151.289906">
  <ele>345.05</ele>
  <time>2026-09-01T19:58:08Z</time>
  <course>261.68</course>
  <speed>0.01</speed>
  <fix>3d</fix>
</trkpt>
<trkpt lat="-27.2737707" lon="151.2899057">
  <ele>344.79</ele>
  <time>2026-09-01T19:58:08Z</time>
  <course>107.28</course>
  <speed>0.03</speed>
  <fix>3d</fix>
</trkpt>
<trkpt lat="-27.2737707" lon="151.289906">
  <ele>344.95</ele>
  <time>2026-09-01T19:58:08Z</time>
  <course>281.2</course>
  <speed>0.01</speed>
  <fix>3d</fix>
</trkpt>
<trkpt lat="-27.2737707" lon="151.2899057">
  <ele>344.74</ele>
  <time>2026-09-01T19:58:08Z</time>
  <course>107.28</course>
  <speed>0.03</speed>
  <fix>3d</fix>
</trkpt>
<trkpt lat="-27.2737707" lon="151.289906">
  <ele>344.95</ele>
  <time>2026-09-01T19:58:08Z</time>
  <course>281.2</course>
  <speed>0.01</speed>
  <fix>3d</fix>
</trkpt>
<trkpt lat="-27.2737707" lon="151.2899057">
  <ele>344.69</ele>
  <time>2026-09-01T19:58:08Z</time>
  <course>107.24</course>
  <speed>0.03</speed>
  <fix>3d</fix>
</trkpt>
<trkpt lat="-27.2737707" lon="151.289906">
  <ele>344.84</ele>
  <time>2026-09-01T19:58:08Z</time>
  <course>291.43</course>
  <speed>0.01</speed>
  <fix>3d</fix>
</trkpt>
<trkpt lat="-27.2737707" lon="151.2899057">
  <ele>344.64</ele>
  <time>2026-09-01T19:58:08Z</time>
  <course>107.19</course>
  <speed>0.03</speed>
  <fix>3d</fix>
</trkpt>
<trkpt lat="-27.2737707" lon="151.289906">
  <ele>344.84</ele>
  <time>2026-09-01T19:58:08Z</time>
  <course>291.43</course>
  <speed>0.01</speed>
  <fix>3d</fix>
</trkpt>
<trkpt lat="-27.2737707" lon="151.2899057">
  <ele>344.59</ele>
  <time>2026-09-01T19:58:08Z</time>
  <course>107.14</course>
  <speed>0.03</speed>
  <fix>3d</fix>
</trkpt>
<trkpt lat="-27.2737707" lon="151.2899059">
  <ele>344.75</ele>
  <time>2026-09-01T19:58:08Z</time>
  <course>291.52</course>
  <speed>0.01</speed>
  <fix>3d</fix>
</trkpt>
<trkpt lat="-27.2737707" lon="151.2899057">
  <ele>344.54</ele>
  <time>2026-09-01T19:58:08Z</time>
  <course>107.1</course>
  <speed>0.03</speed>
  <fix>3d</fix>
</trkpt>
<trkpt lat="-27.2737707" lon="151.2899059">
  <ele>344.75</ele>
  <time>2026-09-01T19:58:08Z</time>
  <course>291.52</course>
  <speed>0.01</speed>
  <fix>3d</fix>
</trkpt>
<trkpt lat="-27.2737707" lon="151.2899057">
  <ele>344.49</ele>
  <time>2026-09-01T19:58:08Z</time>
  <course>107.06</course>
  <speed>0.03</speed>
  <fix>3d</fix>
</trkpt>
<trkpt lat="-27.2737707" lon="151.2899058">
  <ele>344.64</ele>
  <time>2026-09-01T19:58:08Z</time>
  <course>291.65</course>
  <speed>0.01</speed>
  <fix>3d</fix>
</trkpt>
<trkpt lat="-27.2737707" lon="151.2899057">
  <ele>344.44</ele>
  <time>2026-09-01T19:58:08Z</time>
  <course>107.05</course>
  <speed>0.0316227766016838</speed>
  <fix>3d</fix>
</trkpt>
<trkpt lat="-27.2737707" lon="151.2899058">
  <ele>344.64</ele>
  <time>2026-09-01T19:58:08Z</time>
  <course>291.65</course>
  <speed>0.01</speed>
  <fix>3d</fix>
</trkpt>
<trkpt lat="-27.2737707" lon="151.2899057">
  <ele>344.39</ele>
  <time>2026-09-01T19:58:08Z</time>
  <course>107.05</course>
  <speed>0.0316227766016838</speed>
  <fix>3d</fix>
</trkpt>
<trkpt lat="-27.2737707" lon="151.2899058">
  <ele>344.53</ele>
  <time>2026-09-01T19:58:08Z</time>
  <course>291.68</course>
  <speed>0.01</speed>
  <fix>3d</fix>
</trkpt>
<trkpt lat="-27.2737707" lon="151.2899056">
  <ele>344.33</ele>
  <time>2026-09-01T19:58:08Z</time>
  <course>107.05</course>
  <speed>0.0316227766016838</speed>
  <fix>3d</fix>
</trkpt>
<trkpt lat="-27.2737707" lon="151.2899058">
  <ele>344.53</ele>
  <time>2026-09-01T19:58:08Z</time>
  <course>291.68</course>
  <speed>0.01</speed>
  <fix>3d</fix>
</trkpt>
<trkpt lat="-27.2737707" lon="151.2899056">
  <ele>344.28</ele>
  <time>2026-09-01T19:58:08Z</time>
  <course>107.06</course>
  <speed>0.0316227766016838</speed>
  <fix>3d</fix>
</trkpt>
<trkpt lat="-27.2737707" lon="151.2899058">
  <ele>344.44</ele>
  <time>2026-09-01T19:58:08Z</time>
  <course>290.89</course>
  <speed>0.01</speed>
  <fix>3d</fix>
</trkpt>
<trkpt lat="-27.2737707" lon="151.2899056">
  <ele>344.23</ele>
  <time>2026-09-01T19:58:08Z</time>
  <course>107.06</course>
  <speed>0.0316227766016838</speed>
  <fix>3d</fix>
</trkpt>
<trkpt lat="-27.2737707" lon="151.2899058">
  <ele>344.44</ele>
  <time>2026-09-01T19:58:08Z</time>
  <course>290.89</course>
  <speed>0.01</speed>
  <fix>3d</fix>
</trkpt>
<trkpt lat="-27.2737707" lon="151.2899056">
  <ele>344.19</ele>
  <time>2026-09-01T19:58:08Z</time>
  <course>107.06</course>
  <speed>0.0316227766016838</speed>
  <fix>3d</fix>
</trkpt>
<trkpt lat="-27.2737707" lon="151.2899058">
  <ele>344.34</ele>
  <time>2026-09-01T19:58:08Z</time>
  <course>290.17</course>
  <speed>0.01</speed>
  <fix>3d</fix>
</trkpt>
<trkpt lat="-27.2737707" lon="151.2899056">
  <ele>344.14</ele>
  <time>2026-09-01T19:58:08Z</time>
  <course>107.06</course>
  <speed>0.0316227766016838</speed>
  <fix>3d</fix>
</trkpt>
<trkpt lat="-27.2737707" lon="151.2899058">
  <ele>344.34</ele>
  <time>2026-09-01T19:58:08Z</time>
  <course>290.17</course>
  <speed>0.01</speed>
  <fix>3d</fix>
</trkpt>
<trkpt lat="-27.2737707" lon="151.2899056">
  <ele>344.08</ele>
  <time>2026-09-01T19:58:08Z</time>
  <course>107.05</course>
  <speed>0.0316227766016838</speed>
  <fix>3d</fix>
</trkpt>
<trkpt lat="-27.2737707" lon="151.2899058">
  <ele>344.24</ele>
  <time>2026-09-01T19:58:08Z</time>
  <course>290.24</course>
  <speed>0.0</speed>
  <fix>3d</fix>
</trkpt>
<trkpt lat="-27.2737707" lon="151.2899056">
  <ele>344.03</ele>
  <time>2026-09-01T19:58:08Z</time>
  <course>107.04</course>
  <speed>0.0316227766016838</speed>
  <fix>3d</fix>
</trkpt>
<trkpt lat="-27.2737707" lon="151.2899058">
  <ele>344.24</ele>
  <time>2026-09-01T19:58:08Z</time>
  <course>290.24</course>
  <speed>0.0</speed>
  <fix>3d</fix>
</trkpt>
<trkpt lat="-27.2737707" lon="151.2899055">
  <ele>343.98</ele>
  <time>2026-09-01T19:58:08Z</time>
  <course>107.04</course>
  <speed>0.0316227766016838</speed>
  <fix>3d</fix>
</trkpt>
<trkpt lat="-27.2737707" lon="151.2899057">
  <ele>344.14</ele>
  <time>2026-09-01T19:58:08Z</time>
  <course>291.15</course>
  <speed>0.0</speed>
  <fix>3d</fix>
</trkpt>
<trkpt lat="-27.2737707" lon="151.2899055">
  <ele>343.93</ele>
  <time>2026-09-01T19:58:08Z</time>
  <course>107.05</course>
  <speed>0.0316227766016838</speed>
  <fix>3d</fix>
</trkpt>
<trkpt lat="-27.2737707" lon="151.2899057">
  <ele>344.14</ele>
  <time>2026-09-01T19:58:08Z</time>
  <course>291.15</course>
  <speed>0.0</speed>
  <fix>3d</fix>
</trkpt>
<trkpt lat="-27.2737707" lon="151.2899055">
  <ele>343.88</ele>
  <time>2026-09-01T19:58:08Z</time>
  <course>107.05</course>
  <speed>0.0316227766016838</speed>
  <fix>3d</fix>
</trkpt>
<trkpt lat="-27.2737707" lon="151.2899057">
  <ele>344.03</ele>
  <time>2026-09-01T19:58:08Z</time>
  <course>292.13</course>
  <speed>0.0</speed>
  <fix>3d</fix>
</trkpt>
<trkpt lat="-27.2737707" lon="151.2899055">
  <ele>343.83</ele>
  <time>2026-09-01T19:58:08Z</time>
  <course>107.06</course>
  <speed>0.0316227766016838</speed>
  <fix>3d</fix>
</trkpt>
<trkpt lat="-27.2737707" lon="151.2899057">
  <ele>344.03</ele>
  <time>2026-09-01T19:58:08Z</time>
  <course>292.13</course>
  <speed>0.0</speed>
  <fix>3d</fix>
</trkpt>
<trkpt lat="-27.2737707" lon="151.2899055">
  <ele>343.78</ele>
  <time>2026-09-01T19:58:08Z</time>
  <course>107.07</course>
  <speed>0.0316227766016838</speed>
  <fix>3d</fix>
</trkpt>
<trkpt lat="-27.2737707" lon="151.2899057">
  <ele>343.94</ele>
  <time>2026-09-01T19:58:08Z</time>
  <course>291.98</course>
  <speed>0.0</speed>
  <fix>3d</fix>
</trkpt>
<trkpt lat="-27.2737707" lon="151.2899055">
  <ele>343.73</ele>
  <time>2026-09-01T19:58:08Z</time>
  <course>107.07</course>
  <speed>0.0316227766016838</speed>
  <fix>3d</fix>
</trkpt>
<trkpt lat="-27.2737707" lon="151.2899057">
  <ele>343.94</ele>
  <time>2026-09-01T19:58:08Z</time>
  <course>291.98</course>
  <speed>0.0</speed>
  <fix>3d</fix>
</trkpt>
<trkpt lat="-27.2737707" lon="151.2899055">
  <ele>343.68</ele>
  <time>2026-09-01T19:58:08Z</time>
  <course>107.06</course>
  <speed>0.0316227766016838</speed>
  <fix>3d</fix>
</trkpt>
<trkpt lat="-27.2737707" lon="151.2899057">
  <ele>343.84</ele>
  <time>2026-09-01T19:58:08Z</time>
  <course>292.65</course>
  <speed>0.0</speed>
  <fix>3d</fix>
</trkpt>
<trkpt lat="-27.2737707" lon="151.2899055">
  <ele>343.63</ele>
  <time>2026-09-01T19:58:08Z</time>
  <course>107.06</course>
  <speed>0.0316227766016838</speed>
  <fix>3d</fix>
</trkpt>
<trkpt lat="-27.2737707" lon="151.2899057">
  <ele>343.84</ele>
  <time>2026-09-01T19:58:08Z</time>
  <course>292.65</course>
  <speed>0.0</speed>
  <fix>3d</fix>
</trkpt>
<trkpt lat="-27.2737708" lon="151.2899055">
  <ele>343.58</ele>
  <time>2026-09-01T19:58:08Z</time>
  <course>107.05</course>
  <speed>0.0316227766016838</speed>
  <fix>3d</fix>
</trkpt>
<trkpt lat="-27.2737707" lon="151.2899057">
  <ele>343.74</ele>
  <time>2026-09-01T19:58:08Z</time>
  <course>302.12</course>
  <speed>0.0</speed>
  <fix>3d</fix>
</trkpt>
<trkpt lat="-27.2737708" lon="151.2899055">
  <ele>343.53</ele>
  <time>2026-09-01T19:58:08Z</time>
  <course>107.04</course>
  <speed>0.022360679774997897</speed>
  <fix>3d</fix>
</trkpt>
<trkpt lat="-27.2737707" lon="151.2899057">
  <ele>343.74</ele>
  <time>2026-09-01T19:58:08Z</time>
  <course>302.12</course>
  <speed>0.0</speed>
  <fix>3d</fix>
</trkpt>
<trkpt lat="-27.2737708" lon="151.2899055">
  <ele>343.48</ele>
  <time>2026-09-01T19:58:08Z</time>
  <course>107.03</course>
  <speed>0.022360679774997897</speed>
  <fix>3d</fix>
</trkpt>
<trkpt lat="-27.2737707" lon="151.2899057">
  <ele>343.64</ele>
  <time>2026-09-01T19:58:08Z</time>
  <course>119.51</course>
  <speed>0.0</speed>
  <fix>3d</fix>
</trkpt>
<trkpt lat="-27.2737708" lon="151.2899055">
  <ele>343.43</ele>
  <time>2026-09-01T19:58:08Z</time>
  <course>107.01</course>
  <speed>0.0282842712474619</speed>
  <fix>3d</fix>
</trkpt>
<trkpt lat="-27.2737707" lon="151.2899057">
  <ele>343.64</ele>
  <time>2026-09-01T19:58:08Z</time>
  <course>119.51</course>
  <speed>0.0</speed>
  <fix>3d</fix>
</trkpt>
<trkpt lat="-27.2737708" lon="151.2899055">
  <ele>343.38</ele>
  <time>2026-09-01T19:58:08Z</time>
  <course>107.0</course>
  <speed>0.0282842712474619</speed>
  <fix>3d</fix>
</trkpt>
<trkpt lat="-27.2737707" lon="151.2899057">
  <ele>343.53</ele>
  <time>2026-09-01T19:58:08Z</time>
  <course>127.05</course>
  <speed>0.0</speed>
  <fix>3d</fix>
</trkpt>
<trkpt lat="-27.2737708" lon="151.2899055">
  <ele>343.33</ele>
  <time>2026-09-01T19:58:08Z</time>
  <course>107.0</course>
  <speed>0.0282842712474619</speed>
  <fix>3d</fix>
</trkpt>
<trkpt lat="-27.2737707" lon="151.2899057">
  <ele>343.53</ele>
  <time>2026-09-01T19:58:08Z</time>
  <course>127.05</course>
  <speed>0.0</speed>
  <fix>3d</fix>
</trkpt>
<trkpt lat="-27.2737708" lon="151.2899055">
  <ele>343.28</ele>
  <time>2026-09-01T19:58:08Z</time>
  <course>107.0</course>
  <speed>0.0282842712474619</speed>
  <fix>3d</fix>
</trkpt>
<trkpt lat="-27.2737707" lon="151.2899057">
  <ele>343.44</ele>
  <time>2026-09-01T19:58:08Z</time>
  <course>129.03</course>
  <speed>0.0</speed>
  <fix>3d</fix>
</trkpt>
<trkpt lat="-27.2737708" lon="151.2899055">
  <ele>343.23</ele>
  <time>2026-09-01T19:58:08Z</time>
  <course>107.0</course>
  <speed>0.0282842712474619</speed>
  <fix>3d</fix>
</trkpt>
<trkpt lat="-27.2737707" lon="151.2899057">
  <ele>343.44</ele>
  <time>2026-09-01T19:58:08Z</time>
  <course>129.03</course>
  <speed>0.0</speed>
  <fix>3d</fix>
</trkpt>
<trkpt lat="-27.2737708" lon="151.2899055">
  <ele>343.18</ele>
  <time>2026-09-01T19:58:08Z</time>
  <course>107.01</course>
  <speed>0.0282842712474619</speed>
  <fix>3d</fix>
</trkpt>
<trkpt lat="-27.2737707" lon="151.2899057">
  <ele>343.34</ele>
  <time>2026-09-01T19:58:08Z</time>
  <course>127.19</course>
  <speed>0.0</speed>
  <fix>3d</fix>
</trkpt>
<trkpt lat="-27.2737708" lon="151.2899055">
  <ele>343.13</ele>
  <time>2026-09-01T19:58:08Z</time>
  <course>107.02</course>
  <speed>0.0282842712474619</speed>
  <fix>3d</fix>
</trkpt>
<trkpt lat="-27.2737707" lon="151.2899057">
  <ele>343.34</ele>
  <time>2026-09-01T19:58:08Z</time>
  <course>127.19</course>
  <speed>0.0</speed>
  <fix>3d</fix>
</trkpt>
<trkpt lat="-27.2737708" lon="151.2899055">
  <ele>343.08</ele>
  <time>2026-09-01T19:58:08Z</time>
  <course>107.03</course>
  <speed>0.0282842712474619</speed>
  <fix>3d</fix>
</trkpt>
<trkpt lat="-27.2737707" lon="151.2899057">
  <ele>343.24</ele>
  <time>2026-09-01T19:58:08Z</time>
  <course>125.09</course>
  <speed>0.0</speed>
  <fix>3d</fix>
</trkpt>
<trkpt lat="-27.2737708" lon="151.2899055">
  <ele>343.03</ele>
  <time>2026-09-01T19:58:08Z</time>
  <course>107.05</course>
  <speed>0.0282842712474619</speed>
  <fix>3d</fix>
</trkpt>
<trkpt lat="-27.2737707" lon="151.2899057">
  <ele>343.24</ele>
  <time>2026-09-01T19:58:08Z</time>
  <course>125.09</course>
  <speed>0.0</speed>
  <fix>3d</fix>
</trkpt>
<trkpt lat="-27.2737708" lon="151.2899055">
  <ele>342.98</ele>
  <time>2026-09-01T19:58:08Z</time>
  <course>107.06</course>
  <speed>0.0282842712474619</speed>
  <fix>3d</fix>
</trkpt>
<trkpt lat="-27.2737707" lon="151.2899057">
  <ele>343.14</ele>
  <time>2026-09-01T19:58:08Z</time>
  <course>122.36</course>
  <speed>0.0</speed>
  <fix>3d</fix>
</trkpt>
<trkpt lat="-27.2737708" lon="151.2899055">
  <ele>342.95</ele>
  <time>2026-09-01T19:58:08Z</time>
  <course>107.07</course>
  <speed>0.0316227766016838</speed>
  <fix>3d</fix>
</trkpt>
<trkpt lat="-27.2737707" lon="151.2899057">
  <ele>343.14</ele>
  <time>2026-09-01T19:58:08Z</time>
  <course>122.36</course>
  <speed>0.0</speed>
  <fix>3d</fix>
</trkpt>
<trkpt lat="-27.2737708" lon="151.2899055">
  <ele>342.95</ele>
  <time>2026-09-01T19:58:08Z</time>
  <course>107.07</course>
  <speed>0.0316227766016838</speed>
  <fix>3d</fix>
</trkpt>
<trkpt lat="-27.2737707" lon="151.2899057">
  <ele>343.07</ele>
  <time>2026-09-01T19:58:08Z</time>
  <course>120.5</course>
  <speed>0.0</speed>
  <fix>3d</fix>
</trkpt>
<trkpt lat="-27.2737708" lon="151.2899055">
  <ele>342.96</ele>
  <time>2026-09-01T19:58:08Z</time>
  <course>107.07</course>
  <speed>0.0316227766016838</speed>
  <fix>3d</fix>
</trkpt>
<trkpt lat="-27.2737707" lon="151.2899057">
  <ele>343.07</ele>
  <time>2026-09-01T19:58:08Z</time>
  <course>120.5</course>
  <speed>0.0</speed>
  <fix>3d</fix>
</trkpt>
<trkpt lat="-27.2737708" lon="151.2899055">
  <ele>342.97</ele>
  <time>2026-09-01T19:58:08Z</time>
  <course>107.07</course>
  <speed>0.0316227766016838</speed>
  <fix>3d</fix>
</trkpt>
<trkpt lat="-27.2737707" lon="151.2899057">
  <ele>343.07</ele>
  <time>2026-09-01T19:58:08Z</time>
  <course>299.78</course>
  <speed>0.0</speed>
  <fix>3d</fix>
</trkpt>
<trkpt lat="-27.2737708" lon="151.2899055">
  <ele>342.97</ele>
  <time>2026-09-01T19:58:08Z</time>
  <course>107.07</course>
  <speed>0.0316227766016838</speed>
  <fix>3d</fix>
</trkpt>
<trkpt lat="-27.2737707" lon="151.2899057">
  <ele>343.07</ele>
  <time>2026-09-01T19:58:08Z</time>
  <course>299.78</course>
  <speed>0.0</speed>
  <fix>3d</fix>
</trkpt>
<trkpt lat="-27.2737708" lon="151.2899054">
  <ele>342.97</ele>
  <time>2026-09-01T19:58:08Z</time>
  <course>107.07</course>
  <speed>0.0316227766016838</speed>
  <fix>3d</fix>
</trkpt>
<trkpt lat="-27.2737707" lon="151.2899057">
  <ele>343.08</ele>
  <time>2026-09-01T19:58:08Z</time>
  <course>299.75</course>
  <speed>0.0</speed>
  <fix>3d</fix>
</trkpt>
<trkpt lat="-27.2737708" lon="151.2899054">
  <ele>342.97</ele>
  <time>2026-09-01T19:58:08Z</time>
  <course>107.07</course>
  <speed>0.0316227766016838</speed>
  <fix>3d</fix>
</trkpt>
<trkpt lat="-27.2737707" lon="151.2899057">
  <ele>343.08</ele>
  <time>2026-09-01T19:58:08Z</time>
  <course>299.75</course>
  <speed>0.0</speed>
  <fix>3d</fix>
</trkpt>
<trkpt lat="-27.2737708" lon="151.2899054">
  <ele>342.96</ele>
  <time>2026-09-01T19:58:08Z</time>
  <course>107.07</course>
  <speed>0.0316227766016838</speed>
  <fix>3d</fix>
</trkpt>
<trkpt lat="-27.2737707" lon="151.2899057">
  <ele>343.08</ele>
  <time>2026-09-01T19:58:08Z</time>
  <course>119.78</course>
  <speed>0.0</speed>
  <fix>3d</fix>
</trkpt>
<trkpt lat="-27.2737708" lon="151.2899054">
  <ele>342.96</ele>
  <time>2026-09-01T19:58:08Z</time>
  <course>107.07</course>
  <speed>0.0316227766016838</speed>
  <fix>3d</fix>
</trkpt>
<trkpt lat="-27.2737707" lon="151.2899057">
  <ele>343.08</ele>
  <time>2026-09-01T19:58:08Z</time>
  <course>119.78</course>
  <speed>0.0</speed>
  <fix>3d</fix>
</trkpt>
<trkpt lat="-27.2737708" lon="151.2899054">
  <ele>342.96</ele>
  <time>2026-09-01T19:58:08Z</time>
  <course>107.07</course>
  <speed>0.0316227766016838</speed>
  <fix>3d</fix>
</trkpt>
<trkpt lat="-27.2737707" lon="151.2899057">
  <ele>343.08</ele>
  <time>2026-09-01T19:58:08Z</time>
  <course>119.79</course>
  <speed>0.0</speed>
  <fix>3d</fix>
</trkpt>
<trkpt lat="-27.2737708" lon="151.2899054">
  <ele>342.96</ele>
  <time>2026-09-01T19:58:08Z</time>
  <course>107.07</course>
  <speed>0.0316227766016838</speed>
  <fix>3d</fix>
</trkpt>
<trkpt lat="-27.2737707" lon="151.2899057">
  <ele>343.08</ele>
  <time>2026-09-01T19:58:08Z</time>
  <course>119.79</course>
  <speed>0.0</speed>
  <fix>3d</fix>
</trkpt>
<trkpt lat="-27.2737708" lon="151.2899054">
  <ele>342.96</ele>
  <time>2026-09-01T19:58:08Z</time>
  <course>107.07</course>
  <speed>0.0316227766016838</speed>
  <fix>3d</fix>
</trkpt>
<trkpt lat="-27.2737707" lon="151.2899057">
  <ele>343.08</ele>
  <time>2026-09-01T19:58:08Z</time>
  <course>299.69</course>
  <speed>0.0</speed>
  <fix>3d</fix>
</trkpt>
<trkpt lat="-27.2737708" lon="151.2899054">
  <ele>342.96</ele>
  <time>2026-09-01T19:58:08Z</time>
  <course>107.07</course>
  <speed>0.0316227766016838</speed>
  <fix>3d</fix>
</trkpt>
<trkpt lat="-27.2737707" lon="151.2899057">
  <ele>343.08</ele>
  <time>2026-09-01T19:58:08Z</time>
  <course>299.69</course>
  <speed>0.0</speed>
  <fix>3d</fix>
</trkpt>
<trkpt lat="-27.2737708" lon="151.2899054">
  <ele>342.97</ele>
  <time>2026-09-01T19:58:08Z</time>
  <course>107.07</course>
  <speed>0.0316227766016838</speed>
  <fix>3d</fix>
</trkpt>
<trkpt lat="-27.2737707" lon="151.2899057">
  <ele>343.08</ele>
  <time>2026-09-01T19:58:08Z</time>
  <course>121.14</course>
  <speed>0.0</speed>
  <fix>3d</fix>
</trkpt>
<trkpt lat="-27.2737708" lon="151.2899054">
  <ele>342.97</ele>
  <time>2026-09-01T19:58:08Z</time>
  <course>107.07</course>
  <speed>0.0316227766016838</speed>
  <fix>3d</fix>
</trkpt>
<trkpt lat="-27.2737707" lon="151.2899057">
  <ele>343.08</ele>
  <time>2026-09-01T19:58:08Z</time>
  <course>121.14</course>
  <speed>0.0</speed>
  <fix>3d</fix>
</trkpt>
<trkpt lat="-27.2737708" lon="151.2899054">
  <ele>342.97</ele>
  <time>2026-09-01T19:58:08Z</time>
  <course>107.07</course>
  <speed>0.0316227766016838</speed>
  <fix>3d</fix>
</trkpt>
<trkpt lat="-27.2737707" lon="151.2899057">
  <ele>343.08</ele>
  <time>2026-09-01T19:58:08Z</time>
  <course>119.85</course>
  <speed>0.0</speed>
  <fix>3d</fix>
</trkpt>
<trkpt lat="-27.2737708" lon="151.2899054">
  <ele>342.97</ele>
  <time>2026-09-01T19:58:08Z</time>
  <course>107.07</course>
  <speed>0.0316227766016838</speed>
  <fix>3d</fix>
</trkpt>
<trkpt lat="-27.2737707" lon="151.2899057">
  <ele>343.08</ele>
  <time>2026-09-01T19:58:08Z</time>
  <course>119.85</course>
  <speed>0.0</speed>
  <fix>3d</fix>
</trkpt>
<trkpt lat="-27.2737708" lon="151.2899054">
  <ele>342.97</ele>
  <time>2026-09-01T19:58:08Z</time>
  <course>107.07</course>
  <speed>0.0316227766016838</speed>
  <fix>3d</fix>
</trkpt>
<trkpt lat="-27.2737707" lon="151.2899057">
  <ele>343.08</ele>
  <time>2026-09-01T19:58:08Z</time>
  <course>299.69</course>
  <speed>0.0</speed>
  <fix>3d</fix>
</trkpt>
<trkpt lat="-27.2737708" lon="151.2899054">
  <ele>342.97</ele>
  <time>2026-09-01T19:58:08Z</time>
  <course>107.07</course>
  <speed>0.0316227766016838</speed>
  <fix>3d</fix>
</trkpt>
<trkpt lat="-27.2737707" lon="151.2899057">
  <ele>343.08</ele>
  <time>2026-09-01T19:58:08Z</time>
  <course>299.69</course>
  <speed>0.0</speed>
  <fix>3d</fix>
</trkpt>
<trkpt lat="-27.2737708" lon="151.2899054">
  <ele>342.98</ele>
  <time>2026-09-01T19:58:08Z</time>
  <course>107.07</course>
  <speed>0.0316227766016838</speed>
  <fix>3d</fix>
</trkpt>
<trkpt lat="-27.2737707" lon="151.2899057">
  <ele>343.08</ele>
  <time>2026-09-01T19:58:08Z</time>
  <course>298.1</course>
  <speed>0.0</speed>
  <fix>3d</fix>
</trkpt>
<trkpt lat="-27.2737708" lon="151.2899054">
  <ele>342.98</ele>
  <time>2026-09-01T19:58:08Z</time>
  <course>107.07</course>
  <speed>0.0316227766016838</speed>
  <fix>3d</fix>
</trkpt>
<trkpt lat="-27.2737707" lon="151.2899057">
  <ele>343.08</ele>
  <time>2026-09-01T19:58:08Z</time>
  <course>298.1</course>
  <speed>0.0</speed>
  <fix>3d</fix>
</trkpt>
<trkpt lat="-27.2737708" lon="151.2899054">
  <ele>342.98</ele>
  <time>2026-09-01T19:58:08Z</time>
  <course>107.07</course>
  <speed>0.0316227766016838</speed>
  <fix>3d</fix>
</trkpt>
<trkpt lat="-27.2737707" lon="151.2899057">
  <ele>343.08</ele>
  <time>2026-09-01T19:58:08Z</time>
  <course>136.35</course>
  <speed>0.0</speed>
  <fix>3d</fix>
</trkpt>
<trkpt lat="-27.2737708" lon="151.2899054">
  <ele>342.98</ele>
  <time>2026-09-01T19:58:08Z</time>
  <course>107.07</course>
  <speed>0.0316227766016838</speed>
  <fix>3d</fix>
</trkpt>
<trkpt lat="-27.2737707" lon="151.2899057">
  <ele>343.08</ele>
  <time>2026-09-01T19:58:08Z</time>
  <course>136.35</course>
  <speed>0.0</speed>
  <fix>3d</fix>
</trkpt>
<trkpt lat="-27.2737708" lon="151.2899054">
  <ele>342.98</ele>
  <time>2026-09-01T19:58:08Z</time>
  <course>107.07</course>
  <speed>0.0316227766016838</speed>
  <fix>3d</fix>
</trkpt>
<trkpt lat="-27.2737707" lon="151.2899057">
  <ele>343.08</ele>
  <time>2026-09-01T19:58:08Z</time>
  <course>217.08</course>
  <speed>0.0</speed>
  <fix>3d</fix>
</trkpt>
<trkpt lat="-27.2737708" lon="151.2899054">
  <ele>342.99</ele>
  <time>2026-09-01T19:58:08Z</time>
  <course>107.07</course>
  <speed>0.0316227766016838</speed>
  <fix>3d</fix>
</trkpt>
<trkpt lat="-27.2737707" lon="151.2899057">
  <ele>343.08</ele>
  <time>2026-09-01T19:58:08Z</time>
  <course>217.08</course>
  <speed>0.0</speed>
  <fix>3d</fix>
</trkpt>
<trkpt lat="-27.2737708" lon="151.2899054">
  <ele>342.99</ele>
  <time>2026-09-01T19:58:08Z</time>
  <course>107.07</course>
  <speed>0.0316227766016838</speed>
  <fix>3d</fix>
</trkpt>
<trkpt lat="-27.2737707" lon="151.2899057">
  <ele>343.08</ele>
  <time>2026-09-01T19:58:08Z</time>
  <course>262.0</course>
  <speed>0.0</speed>
  <fix>3d</fix>
</trkpt>
<trkpt lat="-27.2737708" lon="151.2899054">
  <ele>342.99</ele>
  <time>2026-09-01T19:58:08Z</time>
  <course>107.07</course>
  <speed>0.0316227766016838</speed>
  <fix>3d</fix>
</trkpt>
<trkpt lat="-27.2737707" lon="151.2899057">
  <ele>343.08</ele>
  <time>2026-09-01T19:58:08Z</time>
  <course>262.0</course>
  <speed>0.0</speed>
  <fix>3d</fix>
</trkpt>
<trkpt lat="-27.2737708" lon="151.2899054">
  <ele>342.99</ele>
  <time>2026-09-01T19:58:08Z</time>
  <course>107.07</course>
  <speed>0.0316227766016838</speed>
  <fix>3d</fix>
</trkpt>
<trkpt lat="-27.2737707" lon="151.2899057">
  <ele>343.08</ele>
  <time>2026-09-01T19:58:08Z</time>
  <course>263.14</course>
  <speed>0.0</speed>
  <fix>3d</fix>
</trkpt>
<trkpt lat="-27.2737708" lon="151.2899054">
  <ele>342.99</ele>
  <time>2026-09-01T19:58:08Z</time>
  <course>107.07</course>
  <speed>0.0316227766016838</speed>
  <fix>3d</fix>
</trkpt>
<trkpt lat="-27.2737707" lon="151.2899057">
  <ele>343.08</ele>
  <time>2026-09-01T19:58:08Z</time>
  <course>263.14</course>
  <speed>0.0</speed>
  <fix>3d</fix>
</trkpt>
<trkpt lat="-27.2737708" lon="151.2899054">
  <ele>342.98</ele>
  <time>2026-09-01T19:58:08Z</time>
  <course>107.07</course>
  <speed>0.0316227766016838</speed>
  <fix>3d</fix>
</trkpt>
<trkpt lat="-27.2737707" lon="151.2899057">
  <ele>343.08</ele>
  <time>2026-09-01T19:58:08Z</time>
  <course>268.5</course>
  <speed>0.0</speed>
  <fix>3d</fix>
</trkpt>
<trkpt lat="-27.2737708" lon="151.2899054">
  <ele>342.98</ele>
  <time>2026-09-01T19:58:08Z</time>
  <course>107.07</course>
  <speed>0.0316227766016838</speed>
  <fix>3d</fix>
</trkpt>
<trkpt lat="-27.2737707" lon="151.2899057">
  <ele>343.08</ele>
  <time>2026-09-01T19:58:08Z</time>
  <course>268.5</course>
  <speed>0.0</speed>
  <fix>3d</fix>
</trkpt>
<trkpt lat="-27.2737708" lon="151.2899054">
  <ele>342.98</ele>
  <time>2026-09-01T19:58:08Z</time>
  <course>107.07</course>
  <speed>0.0316227766016838</speed>
  <fix>3d</fix>
</trkpt>
<trkpt lat="-27.2737707" lon="151.2899057">
  <ele>343.08</ele>
  <time>2026-09-01T19:58:08Z</time>
  <course>253.89</course>
  <speed>0.0</speed>
  <fix>3d</fix>
</trkpt>
<trkpt lat="-27.2737708" lon="151.2899054">
  <ele>342.98</ele>
  <time>2026-09-01T19:58:08Z</time>
  <course>107.07</course>
  <speed>0.0316227766016838</speed>
  <fix>3d</fix>
</trkpt>
<trkpt lat="-27.2737707" lon="151.2899057">
  <ele>343.08</ele>
  <time>2026-09-01T19:58:08Z</time>
  <course>253.89</course>
  <speed>0.0</speed>
  <fix>3d</fix>
</trkpt>
<trkpt lat="-27.2737708" lon="151.2899054">
  <ele>342.98</ele>
  <time>2026-09-01T19:58:08Z</time>
  <course>107.07</course>
  <speed>0.0316227766016838</speed>
  <fix>3d</fix>
</trkpt>
<trkpt lat="-27.2737707" lon="151.2899057">
  <ele>343.08</ele>
  <time>2026-09-01T19:58:08Z</time>
  <course>254.59</course>
  <speed>0.0</speed>
  <fix>3d</fix>
</trkpt>
<trkpt lat="-27.2737708" lon="151.2899054">
  <ele>342.98</ele>
  <time>2026-09-01T19:58:08Z</time>
  <course>107.07</course>
  <speed>0.0316227766016838</speed>
  <fix>3d</fix>
</trkpt>
<trkpt lat="-27.2737707" lon="151.2899057">
  <ele>343.08</ele>
  <time>2026-09-01T19:58:08Z</time>
  <course>254.59</course>
  <speed>0.0</speed>
  <fix>3d</fix>
</trkpt>
<trkpt lat="-27.2737708" lon="151.2899054">
  <ele>342.98</ele>
  <time>2026-09-01T19:58:08Z</time>
  <course>107.07</course>
  <speed>0.0316227766016838</speed>
  <fix>3d</fix>
</trkpt>
<trkpt lat="-27.2737707" lon="151.2899057">
  <ele>343.08</ele>
  <time>2026-09-01T19:58:08Z</time>
  <course>241.32</course>
  <speed>0.0</speed>
  <fix>3d</fix>
</trkpt>
<trkpt lat="-27.2737708" lon="151.2899054">
  <ele>342.98</ele>
  <time>2026-09-01T19:58:08Z</time>
  <course>107.07</course>
  <speed>0.0316227766016838</speed>
  <fix>3d</fix>
</trkpt>
<trkpt lat="-27.2737707" lon="151.2899057">
  <ele>343.08</ele>
  <time>2026-09-01T19:58:08Z</time>
  <course>241.32</course>
  <speed>0.0</speed>
  <fix>3d</fix>
</trkpt>
<trkpt lat="-27.2737708" lon="151.2899054">
  <ele>342.98</ele>
  <time>2026-09-01T19:58:08Z</time>
  <course>107.07</course>
  <speed>0.0316227766016838</speed>
  <fix>3d</fix>
</trkpt>
<trkpt lat="-27.2737707" lon="151.2899057">
  <ele>343.08</ele>
  <time>2026-09-01T19:58:08Z</time>
  <course>246.88</course>
  <speed>0.0</speed>
  <fix>3d</fix>
</trkpt>
<trkpt lat="-27.2737708" lon="151.2899054">
  <ele>342.98</ele>
  <time>2026-09-01T19:58:08Z</time>
  <course>107.07</course>
  <speed>0.0316227766016838</speed>
  <fix>3d</fix>
</trkpt>
<trkpt lat="-27.2737707" lon="151.2899057">
  <ele>343.08</ele>
  <time>2026-09-01T19:58:08Z</time>
  <course>246.88</course>
  <speed>0.0</speed>
  <fix>3d</fix>
</trkpt>
<trkpt lat="-27.2737708" lon="151.2899054">
  <ele>342.98</ele>
  <time>2026-09-01T19:58:08Z</time>
  <course>107.07</course>
  <speed>0.0316227766016838</speed>
  <fix>3d</fix>
</trkpt>
<trkpt lat="-27.2737707" lon="151.2899057">
  <ele>343.08</ele>
  <time>2026-09-01T19:58:08Z</time>
  <course>254.38</course>
  <speed>0.0</speed>
  <fix>3d</fix>
</trkpt>
<trkpt lat="-27.2737708" lon="151.2899054">
  <ele>342.99</ele>
  <time>2026-09-01T19:58:08Z</time>
  <course>107.07</course>
  <speed>0.0316227766016838</speed>
  <fix>3d</fix>
</trkpt>
<trkpt lat="-27.2737707" lon="151.2899057">
  <ele>343.08</ele>
  <time>2026-09-01T19:58:08Z</time>
  <course>254.38</course>
  <speed>0.0</speed>
  <fix>3d</fix>
</trkpt>
<trkpt lat="-27.2737708" lon="151.2899054">
  <ele>342.99</ele>
  <time>2026-09-01T19:58:08Z</time>
  <course>107.07</course>
  <speed>0.0316227766016838</speed>
  <fix>3d</fix>
</trkpt>
<trkpt lat="-27.2737707" lon="151.2899057">
  <ele>343.08</ele>
  <time>2026-09-01T19:58:08Z</time>
  <course>261.72</course>
  <speed>0.0</speed>
  <fix>3d</fix>
</trkpt>
<trkpt lat="-27.2737708" lon="151.2899054">
  <ele>342.99</ele>
  <time>2026-09-01T19:58:08Z</time>
  <course>107.07</course>
  <speed>0.0316227766016838</speed>
  <fix>3d</fix>
</trkpt>
<trkpt lat="-27.2737707" lon="151.2899057">
  <ele>343.08</ele>
  <time>2026-09-01T19:58:08Z</time>
  <course>261.72</course>
  <speed>0.0</speed>
  <fix>3d</fix>
</trkpt>
<trkpt lat="-27.2737708" lon="151.2899054">
  <ele>342.99</ele>
  <time>2026-09-01T19:58:08Z</time>
  <course>107.07</course>
  <speed>0.0316227766016838</speed>
  <fix>3d</fix>
</trkpt>
<trkpt lat="-27.2737707" lon="151.2899057">
  <ele>343.08</ele>
  <time>2026-09-01T19:58:08Z</time>
  <course>267.71</course>
  <speed>0.0</speed>
  <fix>3d</fix>
</trkpt>
<trkpt lat="-27.2737708" lon="151.2899054">
  <ele>342.99</ele>
  <time>2026-09-01T19:58:08Z</time>
  <course>107.07</course>
  <speed>0.0316227766016838</speed>
  <fix>3d</fix>
</trkpt>
<trkpt lat="-27.2737707" lon="151.2899057">
  <ele>343.08</ele>
  <time>2026-09-01T19:58:08Z</time>
  <course>267.71</course>
  <speed>0.0</speed>
  <fix>3d</fix>
</trkpt>
<trkpt lat="-27.2737708" lon="151.2899054">
  <ele>342.99</ele>
  <time>2026-09-01T19:58:08Z</time>
  <course>107.07</course>
  <speed>0.0316227766016838</speed>
  <fix>3d</fix>
</trkpt>
<trkpt lat="-27.2737707" lon="151.2899057">
  <ele>343.08</ele>
  <time>2026-09-01T19:58:08Z</time>
  <course>264.78</course>
  <speed>0.0</speed>
  <fix>3d</fix>
</trkpt>
<trkpt lat="-27.2737708" lon="151.2899054">
  <ele>342.98</ele>
  <time>2026-09-01T19:58:08Z</time>
  <course>107.07</course>
  <speed>0.0316227766016838</speed>
  <fix>3d</fix>
</trkpt>
<trkpt lat="-27.2737707" lon="151.2899057">
  <ele>343.08</ele>
  <time>2026-09-01T19:58:08Z</time>
  <course>264.78</course>
  <speed>0.0</speed>
  <fix>3d</fix>
</trkpt>
<trkpt lat="-27.2737708" lon="151.2899054">
  <ele>342.98</ele>
  <time>2026-09-01T19:58:08Z</time>
  <course>107.07</course>
  <speed>0.0316227766016838</speed>
  <fix>3d</fix>
</trkpt>
<trkpt lat="-27.2737707" lon="151.2899057">
  <ele>343.08</ele>
  <time>2026-09-01T19:58:08Z</time>
  <course>269.61</course>
  <speed>0.0</speed>
  <fix>3d</fix>
</trkpt>
<trkpt lat="-27.2737708" lon="151.2899054">
  <ele>342.98</ele>
  <time>2026-09-01T19:58:08Z</time>
  <course>107.07</course>
  <speed>0.0316227766016838</speed>
  <fix>3d</fix>
</trkpt>
<trkpt lat="-27.2737707" lon="151.2899057">
  <ele>343.08</ele>
  <time>2026-09-01T19:58:08Z</time>
  <course>269.61</course>
  <speed>0.0</speed>
  <fix>3d</fix>
</trkpt>
<trkpt lat="-27.2737708" lon="151.2899054">
  <ele>342.99</ele>
  <time>2026-09-01T19:58:08Z</time>
  <course>107.07</course>
  <speed>0.0316227766016838</speed>
  <fix>3d</fix>
</trkpt>
<trkpt lat="-27.2737707" lon="151.2899057">
  <ele>343.08</ele>
  <time>2026-09-01T19:58:08Z</time>
  <course>256.77</course>
  <speed>0.0</speed>
  <fix>3d</fix>
</trkpt>
<trkpt lat="-27.2737708" lon="151.2899054">
  <ele>342.99</ele>
  <time>2026-09-01T19:58:08Z</time>
  <course>107.07</course>
  <speed>0.0316227766016838</speed>
  <fix>3d</fix>
</trkpt>
<trkpt lat="-27.2737707" lon="151.2899057">
  <ele>343.08</ele>
  <time>2026-09-01T19:58:08Z</time>
  <course>256.77</course>
  <speed>0.0</speed>
  <fix>3d</fix>
</trkpt>
<trkpt lat="-27.2737708" lon="151.2899054">
  <ele>342.99</ele>
  <time>2026-09-01T19:58:08Z</time>
  <course>107.07</course>
  <speed>0.0316227766016838</speed>
  <fix>3d</fix>
</trkpt>
<trkpt lat="-27.2737707" lon="151.2899057">
  <ele>343.08</ele>
  <time>2026-09-01T19:58:08Z</time>
  <course>252.22</course>
  <speed>0.0</speed>
  <fix>3d</fix>
</trkpt>
<trkpt lat="-27.2737708" lon="151.2899054">
  <ele>342.99</ele>
  <time>2026-09-01T19:58:08Z</time>
  <course>107.07</course>
  <speed>0.0316227766016838</speed>
  <fix>3d</fix>
</trkpt>
<trkpt lat="-27.2737707" lon="151.2899057">
  <ele>343.08</ele>
  <time>2026-09-01T19:58:08Z</time>
  <course>252.22</course>
  <speed>0.0</speed>
  <fix>3d</fix>
</trkpt>
<trkpt lat="-27.2737708" lon="151.2899054">
  <ele>342.99</ele>
  <time>2026-09-01T19:58:08Z</time>
  <course>107.07</course>
  <speed>0.0316227766016838</speed>
  <fix>3d</fix>
</trkpt>
<trkpt lat="-27.2737707" lon="151.2899057">
  <ele>343.08</ele>
  <time>2026-09-01T19:58:08Z</time>
  <course>240.97</course>
  <speed>0.0</speed>
  <fix>3d</fix>
</trkpt>
<trkpt lat="-27.2737708" lon="151.2899054">
  <ele>342.99</ele>
  <time>2026-09-01T19:58:08Z</time>
  <course>107.07</course>
  <speed>0.0316227766016838</speed>
  <fix>3d</fix>
</trkpt>
<trkpt lat="-27.2737707" lon="151.2899057">
  <ele>343.08</ele>
  <time>2026-09-01T19:58:08Z</time>
  <course>240.97</course>
  <speed>0.0</speed>
  <fix>3d</fix>
</trkpt>
<trkpt lat="-27.2737708" lon="151.2899054">
  <ele>342.99</ele>
  <time>2026-09-01T19:58:08Z</time>
  <course>107.07</course>
  <speed>0.0316227766016838</speed>
  <fix>3d</fix>
</trkpt>
<trkpt lat="-27.2737707" lon="151.2899057">
  <ele>343.08</ele>
  <time>2026-09-01T19:58:08Z</time>
  <course>250.36</course>
  <speed>0.0</speed>
  <fix>3d</fix>
</trkpt>
<trkpt lat="-27.2737708" lon="151.2899054">
  <ele>342.99</ele>
  <time>2026-09-01T19:58:08Z</time>
  <course>107.07</course>
  <speed>0.0316227766016838</speed>
  <fix>3d</fix>
</trkpt>
<trkpt lat="-27.2737707" lon="151.2899057">
  <ele>343.08</ele>
  <time>2026-09-01T19:58:08Z</time>
  <course>250.36</course>
  <speed>0.0</speed>
  <fix>3d</fix>
</trkpt>
<trkpt lat="-27.2737708" lon="151.2899054">
  <ele>342.99</ele>
  <time>2026-09-01T19:58:08Z</time>
  <course>107.07</course>
  <speed>0.0316227766016838</speed>
  <fix>3d</fix>
</trkpt>
<trkpt lat="-27.2737707" lon="151.2899057">
  <ele>343.08</ele>
  <time>2026-09-01T19:58:08Z</time>
  <course>261.99</course>
  <speed>0.0</speed>
  <fix>3d</fix>
</trkpt>
<trkpt lat="-27.2737708" lon="151.2899054">
  <ele>342.99</ele>
  <time>2026-09-01T19:58:08Z</time>
  <course>107.07</course>
  <speed>0.0316227766016838</speed>
  <fix>3d</fix>
</trkpt>
<trkpt lat="-27.2737707" lon="151.2899057">
  <ele>343.08</ele>
  <time>2026-09-01T19:58:08Z</time>
  <course>261.99</course>
  <speed>0.0</speed>
  <fix>3d</fix>
</trkpt>
<trkpt lat="-27.2737708" lon="151.2899054">
  <ele>342.99</ele>
  <time>2026-09-01T19:58:08Z</time>
  <course>107.07</course>
  <speed>0.0316227766016838</speed>
  <fix>3d</fix>
</trkpt>
<trkpt lat="-27.2737707" lon="151.2899057">
  <ele>343.08</ele>
  <time>2026-09-01T19:58:08Z</time>
  <course>275.76</course>
  <speed>0.0</speed>
  <fix>3d</fix>
</trkpt>
<trkpt lat="-27.2737708" lon="151.2899054">
  <ele>342.99</ele>
  <time>2026-09-01T19:58:08Z</time>
  <course>107.07</course>
  <speed>0.0316227766016838</speed>
  <fix>3d</fix>
</trkpt>
<trkpt lat="-27.2737707" lon="151.2899057">
  <ele>343.08</ele>
  <time>2026-09-01T19:58:08Z</time>
  <course>275.76</course>
  <speed>0.0</speed>
  <fix>3d</fix>
</trkpt>
<trkpt lat="-27.2737708" lon="151.2899054">
  <ele>342.99</ele>
  <time>2026-09-01T19:58:08Z</time>
  <course>107.07</course>
  <speed>0.0316227766016838</speed>
  <fix>3d</fix>
</trkpt>
<trkpt lat="-27.2737707" lon="151.2899057">
  <ele>343.08</ele>
  <time>2026-09-01T19:58:08Z</time>
  <course>282.05</course>
  <speed>0.0</speed>
  <fix>3d</fix>
</trkpt>
<trkpt lat="-27.2737708" lon="151.2899054">
  <ele>342.99</ele>
  <time>2026-09-01T19:58:08Z</time>
  <course>107.07</course>
  <speed>0.0316227766016838</speed>
  <fix>3d</fix>
</trkpt>
<trkpt lat="-27.2737707" lon="151.2899057">
  <ele>343.08</ele>
  <time>2026-09-01T19:58:08Z</time>
  <course>282.05</course>
  <speed>0.0</speed>
  <fix>3d</fix>
</trkpt>
<trkpt lat="-27.2737708" lon="151.2899054">
  <ele>342.99</ele>
  <time>2026-09-01T19:58:08Z</time>
  <course>107.07</course>
  <speed>0.0316227766016838</speed>
  <fix>3d</fix>
</trkpt>
<trkpt lat="-27.2737707" lon="151.2899057">
  <ele>343.08</ele>
  <time>2026-09-01T19:58:08Z</time>
  <course>78.08</course>
  <speed>0.0</speed>
  <fix>3d</fix>
</trkpt>
<trkpt lat="-27.2737708" lon="151.2899054">
  <ele>343.08</ele>
  <time>2026-09-01T19:58:08Z</time>
  <course>107.07</course>
  <speed>0.0316227766016838</speed>
  <fix>3d</fix>
</trkpt>
<trkpt lat="-27.2737707" lon="151.2899057">
  <ele>343.08</ele>
  <time>2026-09-01T19:58:08Z</time>
  <course>78.08</course>
  <speed>0.0</speed>
  <fix>3d</fix>
</trkpt>
<trkpt lat="-27.2737708" lon="151.2899054">
  <ele>343.07</ele>
  <time>2026-09-01T19:58:08Z</time>
  <course>107.07</course>
  <speed>0.0316227766016838</speed>
  <fix>3d</fix>
</trkpt>
<trkpt lat="-27.2737707" lon="151.2899057">
  <ele>343.08</ele>
  <time>2026-09-01T19:58:08Z</time>
  <course>78.29</course>
  <speed>0.0</speed>
  <fix>3d</fix>
</trkpt>
<trkpt lat="-27.2737708" lon="151.2899054">
  <ele>343.08</ele>
  <time>2026-09-01T19:58:08Z</time>
  <course>107.07</course>
  <speed>0.0316227766016838</speed>
  <fix>3d</fix>
</trkpt>
<trkpt lat="-27.2737707" lon="151.2899057">
  <ele>343.08</ele>
  <time>2026-09-01T19:58:08Z</time>
  <course>78.29</course>
  <speed>0.0</speed>
  <fix>3d</fix>
</trkpt>
<trkpt lat="-27.2737708" lon="151.2899054">
  <ele>343.07</ele>
  <time>2026-09-01T19:58:08Z</time>
  <course>107.08</course>
  <speed>0.0316227766016838</speed>
  <fix>3d</fix>
</trkpt>
<trkpt lat="-27.2737707" lon="151.2899057">
  <ele>343.08</ele>
  <time>2026-09-01T19:58:08Z</time>
  <course>79.61</course>
  <speed>0.0</speed>
  <fix>3d</fix>
</trkpt>
<trkpt lat="-27.2737708" lon="151.2899054">
  <ele>343.07</ele>
  <time>2026-09-01T19:58:08Z</time>
  <course>107.08</course>
  <speed>0.022360679774997897</speed>
  <fix>3d</fix>
</trkpt>
<trkpt lat="-27.2737707" lon="151.2899057">
  <ele>343.08</ele>
  <time>2026-09-01T19:58:08Z</time>
  <course>79.61</course>
  <speed>0.0</speed>
  <fix>3d</fix>
</trkpt>
<trkpt lat="-27.2737708" lon="151.2899054">
  <ele>343.07</ele>
  <time>2026-09-01T19:58:08Z</time>
  <course>107.08</course>
  <speed>0.0316227766016838</speed>
  <fix>3d</fix>
</trkpt>
<trkpt lat="-27.2737707" lon="151.2899057">
  <ele>343.08</ele>
  <time>2026-09-01T19:58:08Z</time>
  <course>258.32</course>
  <speed>0.0</speed>
  <fix>3d</fix>
</trkpt>
<trkpt lat="-27.2737708" lon="151.2899054">
  <ele>343.07</ele>
  <time>2026-09-01T19:58:08Z</time>
  <course>107.08</course>
  <speed>0.022360679774997897</speed>
  <fix>3d</fix>
</trkpt>
<trkpt lat="-27.2737707" lon="151.2899057">
  <ele>343.08</ele>
  <time>2026-09-01T19:58:08Z</time>
  <course>258.32</course>
  <speed>0.0</speed>
  <fix>3d</fix>
</trkpt>
<trkpt lat="-27.2737708" lon="151.2899054">
  <ele>343.07</ele>
  <time>2026-09-01T19:58:08Z</time>
  <course>107.09</course>
  <speed>0.022360679774997897</speed>
  <fix>3d</fix>
</trkpt>
<trkpt lat="-27.2737707" lon="151.2899057">
  <ele>343.08</ele>
  <time>2026-09-01T19:58:08Z</time>
  <course>77.96</course>
  <speed>0.0</speed>
  <fix>3d</fix>
</trkpt>
<trkpt lat="-27.2737708" lon="151.2899054">
  <ele>343.07</ele>
  <time>2026-09-01T19:58:08Z</time>
  <course>107.09</course>
  <speed>0.022360679774997897</speed>
  <fix>3d</fix>
</trkpt>
<trkpt lat="-27.2737707" lon="151.2899057">
  <ele>343.08</ele>
  <time>2026-09-01T19:58:08Z</time>
  <course>77.96</course>
  <speed>0.0</speed>
  <fix>3d</fix>
</trkpt>
<trkpt lat="-27.2737708" lon="151.2899054">
  <ele>343.07</ele>
  <time>2026-09-01T19:58:08Z</time>
  <course>107.09</course>
  <speed>0.022360679774997897</speed>
  <fix>3d</fix>
</trkpt>
<trkpt lat="-27.2737707" lon="151.2899057">
  <ele>343.08</ele>
  <time>2026-09-01T19:58:08Z</time>
  <course>78.35</course>
  <speed>0.0</speed>
  <fix>3d</fix>
</trkpt>
<trkpt lat="-27.2737708" lon="151.2899054">
  <ele>343.07</ele>
  <time>2026-09-01T19:58:08Z</time>
  <course>107.09</course>
  <speed>0.022360679774997897</speed>
  <fix>3d</fix>
</trkpt>
<trkpt lat="-27.2737707" lon="151.2899057">
  <ele>343.08</ele>
  <time>2026-09-01T19:58:08Z</time>
  <course>78.35</course>
  <speed>0.0</speed>
  <fix>3d</fix>
</trkpt>
<trkpt lat="-27.2737708" lon="151.2899054">
  <ele>343.07</ele>
  <time>2026-09-01T19:58:08Z</time>
  <course>107.1</course>
  <speed>0.022360679774997897</speed>
  <fix>3d</fix>
</trkpt>
<trkpt lat="-27.2737707" lon="151.2899057">
  <ele>343.08</ele>
  <time>2026-09-01T19:58:08Z</time>
  <course>258.17</course>
  <speed>0.0</speed>
  <fix>3d</fix>
</trkpt>
<trkpt lat="-27.2737708" lon="151.2899054">
  <ele>343.07</ele>
  <time>2026-09-01T19:58:08Z</time>
  <course>107.1</course>
  <speed>0.022360679774997897</speed>
  <fix>3d</fix>
</trkpt>
<trkpt lat="-27.2737707" lon="151.2899057">
  <ele>343.08</ele>
  <time>2026-09-01T19:58:08Z</time>
  <course>258.17</course>
  <speed>0.0</speed>
  <fix>3d</fix>
</trkpt>
<trkpt lat="-27.2737708" lon="151.2899054">
  <ele>343.07</ele>
  <time>2026-09-01T19:58:08Z</time>
  <course>107.1</course>
  <speed>0.022360679774997897</speed>
  <fix>3d</fix>
</trkpt>
<trkpt lat="-27.2737707" lon="151.2899057">
  <ele>343.08</ele>
  <time>2026-09-01T19:58:08Z</time>
  <course>258.39</course>
  <speed>0.0</speed>
  <fix>3d</fix>
</trkpt>
<trkpt lat="-27.2737708" lon="151.2899054">
  <ele>343.07</ele>
  <time>2026-09-01T19:58:08Z</time>
  <course>107.11</course>
  <speed>0.022360679774997897</speed>
  <fix>3d</fix>
</trkpt>
<trkpt lat="-27.2737707" lon="151.2899057">
  <ele>343.08</ele>
  <time>2026-09-01T19:58:08Z</time>
  <course>258.39</course>
  <speed>0.0</speed>
  <fix>3d</fix>
</trkpt>
<trkpt lat="-27.2737708" lon="151.2899054">
  <ele>343.07</ele>
  <time>2026-09-01T19:58:08Z</time>
  <course>107.11</course>
  <speed>0.022360679774997897</speed>
  <fix>3d</fix>
</trkpt>
<trkpt lat="-27.2737707" lon="151.2899057">
  <ele>343.08</ele>
  <time>2026-09-01T19:58:08Z</time>
  <course>78.24</course>
  <speed>0.0</speed>
  <fix>3d</fix>
</trkpt>
<trkpt lat="-27.2737708" lon="151.2899054">
  <ele>343.07</ele>
  <time>2026-09-01T19:58:08Z</time>
  <course>107.11</course>
  <speed>0.022360679774997897</speed>
  <fix>3d</fix>
</trkpt>
<trkpt lat="-27.2737707" lon="151.2899057">
  <ele>343.08</ele>
  <time>2026-09-01T19:58:08Z</time>
  <course>78.24</course>
  <speed>0.0</speed>
  <fix>3d</fix>
</trkpt>
<trkpt lat="-27.2737708" lon="151.2899054">
  <ele>343.07</ele>
  <time>2026-09-01T19:58:08Z</time>
  <course>107.11</course>
  <speed>0.022360679774997897</speed>
  <fix>3d</fix>
</trkpt>
<trkpt lat="-27.2737707" lon="151.2899057">
  <ele>343.08</ele>
  <time>2026-09-01T19:58:08Z</time>
  <course>78.48</course>
  <speed>0.0</speed>
  <fix>3d</fix>
</trkpt>
<trkpt lat="-27.2737708" lon="151.2899054">
  <ele>343.07</ele>
  <time>2026-09-01T19:58:08Z</time>
  <course>107.12</course>
  <speed>0.022360679774997897</speed>
  <fix>3d</fix>
</trkpt>
<trkpt lat="-27.2737707" lon="151.2899057">
  <ele>343.08</ele>
  <time>2026-09-01T19:58:08Z</time>
  <course>78.48</course>
  <speed>0.0</speed>
  <fix>3d</fix>
</trkpt>
<trkpt lat="-27.2737708" lon="151.2899054">
  <ele>343.07</ele>
  <time>2026-09-01T19:58:08Z</time>
  <course>107.12</course>
  <speed>0.022360679774997897</speed>
  <fix>3d</fix>
</trkpt>
<trkpt lat="-27.2737707" lon="151.2899057">
  <ele>343.08</ele>
  <time>2026-09-01T19:58:08Z</time>
  <course>258.28</course>
  <speed>0.0</speed>
  <fix>3d</fix>
</trkpt>
<trkpt lat="-27.2737708" lon="151.2899054">
  <ele>343.07</ele>
  <time>2026-09-01T19:58:08Z</time>
  <course>107.12</course>
  <speed>0.022360679774997897</speed>
  <fix>3d</fix>
</trkpt>
<trkpt lat="-27.2737707" lon="151.2899057">
  <ele>343.08</ele>
  <time>2026-09-01T19:58:08Z</time>
  <course>258.28</course>
  <speed>0.0</speed>
  <fix>3d</fix>
</trkpt>
<trkpt lat="-27.2737708" lon="151.2899054">
  <ele>343.08</ele>
  <time>2026-09-01T19:58:08Z</time>
  <course>107.12</course>
  <speed>0.022360679774997897</speed>
  <fix>3d</fix>
</trkpt>
<trkpt lat="-27.2737707" lon="151.2899057">
  <ele>343.08</ele>
  <time>2026-09-01T19:58:08Z</time>
  <course>258.83</course>
  <speed>0.0</speed>
  <fix>3d</fix>
</trkpt>
<trkpt lat="-27.2737708" lon="151.2899054">
  <ele>343.08</ele>
  <time>2026-09-01T19:58:08Z</time>
  <course>107.13</course>
  <speed>0.022360679774997897</speed>
  <fix>3d</fix>
</trkpt>
<trkpt lat="-27.2737707" lon="151.2899057">
  <ele>343.08</ele>
  <time>2026-09-01T19:58:08Z</time>
  <course>258.83</course>
  <speed>0.0</speed>
  <fix>3d</fix>
</trkpt>
<trkpt lat="-27.2737708" lon="151.2899054">
  <ele>343.07</ele>
  <time>2026-09-01T19:58:08Z</time>
  <course>107.13</course>
  <speed>0.022360679774997897</speed>
  <fix>3d</fix>
</trkpt>
<trkpt lat="-27.2737707" lon="151.2899057">
  <ele>343.08</ele>
  <time>2026-09-01T19:58:08Z</time>
  <course>78.31</course>
  <speed>0.0</speed>
  <fix>3d</fix>
</trkpt>
<trkpt lat="-27.2737708" lon="151.2899054">
  <ele>343.07</ele>
  <time>2026-09-01T19:58:08Z</time>
  <course>107.13</course>
  <speed>0.022360679774997897</speed>
  <fix>3d</fix>
</trkpt>
<trkpt lat="-27.2737707" lon="151.2899057">
  <ele>343.08</ele>
  <time>2026-09-01T19:58:08Z</time>
  <course>78.31</course>
  <speed>0.0</speed>
  <fix>3d</fix>
</trkpt>
<trkpt lat="-27.2737708" lon="151.2899054">
  <ele>343.07</ele>
  <time>2026-09-01T19:58:08Z</time>
  <course>107.14</course>
  <speed>0.022360679774997897</speed>
  <fix>3d</fix>
</trkpt>
<trkpt lat="-27.2737707" lon="151.2899057">
  <ele>343.08</ele>
  <time>2026-09-01T19:58:08Z</time>
  <course>257.74</course>
  <speed>0.0</speed>
  <fix>3d</fix>
</trkpt>
<trkpt lat="-27.2737708" lon="151.2899054">
  <ele>343.07</ele>
  <time>2026-09-01T19:58:08Z</time>
  <course>107.14</course>
  <speed>0.022360679774997897</speed>
  <fix>3d</fix>
</trkpt>
<trkpt lat="-27.2737707" lon="151.2899057">
  <ele>343.08</ele>
  <time>2026-09-01T19:58:08Z</time>
  <course>257.74</course>
  <speed>0.0</speed>
  <fix>3d</fix>
</trkpt>
<trkpt lat="-27.2737708" lon="151.2899054">
  <ele>343.08</ele>
  <time>2026-09-01T19:58:08Z</time>
  <course>107.14</course>
  <speed>0.022360679774997897</speed>
  <fix>3d</fix>
</trkpt>
<trkpt lat="-27.2737707" lon="151.2899057">
  <ele>343.08</ele>
  <time>2026-09-01T19:58:08Z</time>
  <course>258.34</course>
  <speed>0.0</speed>
  <fix>3d</fix>
</trkpt>
<trkpt lat="-27.2737708" lon="151.2899054">
  <ele>343.08</ele>
  <time>2026-09-01T19:58:08Z</time>
  <course>107.15</course>
  <speed>0.022360679774997897</speed>
  <fix>3d</fix>
</trkpt>
<trkpt lat="-27.2737707" lon="151.2899057">
  <ele>343.08</ele>
  <time>2026-09-01T19:58:08Z</time>
  <course>258.34</course>
  <speed>0.0</speed>
  <fix>3d</fix>
</trkpt>
<trkpt lat="-27.2737708" lon="151.2899054">
  <ele>343.08</ele>
  <time>2026-09-01T19:58:08Z</time>
  <course>107.15</course>
  <speed>0.022360679774997897</speed>
  <fix>3d</fix>
</trkpt>
<trkpt lat="-27.2737707" lon="151.2899057">
  <ele>343.08</ele>
  <time>2026-09-01T19:58:08Z</time>
  <course>78.14</course>
  <speed>0.0</speed>
  <fix>3d</fix>
</trkpt>
<trkpt lat="-27.2737708" lon="151.2899054">
  <ele>343.08</ele>
  <time>2026-09-01T19:58:08Z</time>
  <course>107.15</course>
  <speed>0.022360679774997897</speed>
  <fix>3d</fix>
</trkpt>
<trkpt lat="-27.2737707" lon="151.2899057">
  <ele>343.08</ele>
  <time>2026-09-01T19:58:08Z</time>
  <course>78.14</course>
  <speed>0.0</speed>
  <fix>3d</fix>
</trkpt>
<trkpt lat="-27.2737708" lon="151.2899054">
  <ele>343.08</ele>
  <time>2026-09-01T19:58:08Z</time>
  <course>107.15</course>
  <speed>0.022360679774997897</speed>
  <fix>3d</fix>
</trkpt>
<trkpt lat="-27.2737707" lon="151.2899057">
  <ele>343.08</ele>
  <time>2026-09-01T19:58:08Z</time>
  <course>78.38</course>
  <speed>0.0</speed>
  <fix>3d</fix>
</trkpt>
<trkpt lat="-27.2737708" lon="151.2899054">
  <ele>343.08</ele>
  <time>2026-09-01T19:58:08Z</time>
  <course>107.16</course>
  <speed>0.022360679774997897</speed>
  <fix>3d</fix>
</trkpt>
<trkpt lat="-27.2737707" lon="151.2899057">
  <ele>343.08</ele>
  <time>2026-09-01T19:58:08Z</time>
  <course>78.38</course>
  <speed>0.0</speed>
  <fix>3d</fix>
</trkpt>
<trkpt lat="-27.2737708" lon="151.2899054">
  <ele>343.08</ele>
  <time>2026-09-01T19:58:08Z</time>
  <course>107.16</course>
  <speed>0.022360679774997897</speed>
  <fix>3d</fix>
</trkpt>
<trkpt lat="-27.2737707" lon="151.2899057">
  <ele>343.08</ele>
  <time>2026-09-01T19:58:08Z</time>
  <course>258.22</course>
  <speed>0.0</speed>
  <fix>3d</fix>
</trkpt>
<trkpt lat="-27.2737708" lon="151.2899054">
  <ele>343.08</ele>
  <time>2026-09-01T19:58:09Z</time>
  <course>107.17</course>
  <speed>0.022360679774997897</speed>
  <fix>3d</fix>
</trkpt>
<trkpt lat="-27.2737707" lon="151.2899057">
  <ele>343.08</ele>
  <time>2026-09-01T19:58:09Z</time>
  <course>78.27</course>
  <speed>0.0</speed>
  <fix>3d</fix>
</trkpt>
<trkpt lat="-27.2737708" lon="151.2899054">
  <ele>343.08</ele>
  <time>2026-09-01T19:58:09Z</time>
  <course>107.19</course>
  <speed>0.022360679774997897</speed>
  <fix>3d</fix>
</trkpt>
<trkpt lat="-27.2737707" lon="151.2899057">
  <ele>343.08</ele>
  <time>2026-09-01T19:58:09Z</time>
  <course>258.3</course>
  <speed>0.0</speed>
  <fix>3d</fix>
</trkpt>
<trkpt lat="-27.2737708" lon="151.2899054">
  <ele>343.08</ele>
  <time>2026-09-01T19:58:09Z</time>
  <course>107.19</course>
  <speed>0.022360679774997897</speed>
  <fix>3d</fix>
</trkpt>
<trkpt lat="-27.2737707" lon="151.2899057">
  <ele>343.08</ele>
  <time>2026-09-01T19:58:09Z</time>
  <course>258.3</course>
  <speed>0.0</speed>
  <fix>3d</fix>
</trkpt>
<trkpt lat="-27.2737708" lon="151.2899054">
  <ele>343.08</ele>
  <time>2026-09-01T19:58:09Z</time>
  <course>107.19</course>
  <speed>0.022360679774997897</speed>
  <fix>3d</fix>
</trkpt>
<trkpt lat="-27.2737707" lon="151.2899057">
  <ele>343.08</ele>
  <time>2026-09-01T19:58:09Z</time>
  <course>76.62</course>
  <speed>0.0</speed>
  <fix>3d</fix>
</trkpt>
<trkpt lat="-27.2737708" lon="151.2899054">
  <ele>343.08</ele>
  <time>2026-09-01T19:58:09Z</time>
  <course>107.2</course>
  <speed>0.022360679774997897</speed>
  <fix>3d</fix>
</trkpt>
<trkpt lat="-27.2737707" lon="151.2899057">
  <ele>343.08</ele>
  <time>2026-09-01T19:58:09Z</time>
  <course>76.62</course>
  <speed>0.0</speed>
  <fix>3d</fix>
</trkpt>
<trkpt lat="-27.2737708" lon="151.2899054">
  <ele>343.08</ele>
  <time>2026-09-01T19:58:09Z</time>
  <course>107.2</course>
  <speed>0.022360679774997897</speed>
  <fix>3d</fix>
</trkpt>
<trkpt lat="-27.2737707" lon="151.2899057">
  <ele>343.08</ele>
  <time>2026-09-01T19:58:09Z</time>
  <course>78.3</course>
  <speed>0.0</speed>
  <fix>3d</fix>
</trkpt>
<trkpt lat="-27.2737708" lon="151.2899054">
  <ele>343.08</ele>
  <time>2026-09-01T19:58:09Z</time>
  <course>107.2</course>
  <speed>0.022360679774997897</speed>
  <fix>3d</fix>
</trkpt>
<trkpt lat="-27.2737707" lon="151.2899057">
  <ele>343.08</ele>
  <time>2026-09-01T19:58:09Z</time>
  <course>78.3</course>
  <speed>0.0</speed>
  <fix>3d</fix>
</trkpt>
<trkpt lat="-27.2737708" lon="151.2899054">
  <ele>343.08</ele>
  <time>2026-09-01T19:58:09Z</time>
  <course>107.21</course>
  <speed>0.022360679774997897</speed>
  <fix>3d</fix>
</trkpt>
<trkpt lat="-27.2737707" lon="151.2899057">
  <ele>343.08</ele>
  <time>2026-09-01T19:58:09Z</time>
  <course>259.26</course>
  <speed>0.0</speed>
  <fix>3d</fix>
</trkpt>
<trkpt lat="-27.2737708" lon="151.2899054">
  <ele>343.08</ele>
  <time>2026-09-01T19:58:09Z</time>
  <course>107.21</course>
  <speed>0.022360679774997897</speed>
  <fix>3d</fix>
</trkpt>
<trkpt lat="-27.2737707" lon="151.2899057">
  <ele>343.08</ele>
  <time>2026-09-01T19:58:09Z</time>
  <course>259.26</course>
  <speed>0.0</speed>
  <fix>3d</fix>
</trkpt>
<trkpt lat="-27.2737708" lon="151.2899054">
  <ele>343.08</ele>
  <time>2026-09-01T19:58:09Z</time>
  <course>107.21</course>
  <speed>0.022360679774997897</speed>
  <fix>3d</fix>
</trkpt>
<trkpt lat="-27.2737707" lon="151.2899057">
  <ele>343.08</ele>
  <time>2026-09-01T19:58:09Z</time>
  <course>260.29</course>
  <speed>0.0</speed>
  <fix>3d</fix>
</trkpt>
<trkpt lat="-27.2737708" lon="151.2899054">
  <ele>343.08</ele>
  <time>2026-09-01T19:58:09Z</time>
  <course>107.22</course>
  <speed>0.022360679774997897</speed>
  <fix>3d</fix>
</trkpt>
<trkpt lat="-27.2737707" lon="151.2899057">
  <ele>343.08</ele>
  <time>2026-09-01T19:58:09Z</time>
  <course>260.29</course>
  <speed>0.0</speed>
  <fix>3d</fix>
</trkpt>
<trkpt lat="-27.2737708" lon="151.2899054">
  <ele>343.08</ele>
  <time>2026-09-01T19:58:09Z</time>
  <course>107.22</course>
  <speed>0.022360679774997897</speed>
  <fix>3d</fix>
</trkpt>
<trkpt lat="-27.2737707" lon="151.2899057">
  <ele>343.08</ele>
  <time>2026-09-01T19:58:09Z</time>
  <course>74.11</course>
  <speed>0.0</speed>
  <fix>3d</fix>
</trkpt>
<trkpt lat="-27.2737708" lon="151.2899054">
  <ele>343.08</ele>
  <time>2026-09-01T19:58:09Z</time>
  <course>107.22</course>
  <speed>0.022360679774997897</speed>
  <fix>3d</fix>
</trkpt>
<trkpt lat="-27.2737707" lon="151.2899057">
  <ele>343.08</ele>
  <time>2026-09-01T19:58:09Z</time>
  <course>74.11</course>
  <speed>0.0</speed>
  <fix>3d</fix>
</trkpt>
<trkpt lat="-27.2737708" lon="151.2899054">
  <ele>343.08</ele>
  <time>2026-09-01T19:58:09Z</time>
  <course>107.23</course>
  <speed>0.022360679774997897</speed>
  <fix>3d</fix>
</trkpt>
<trkpt lat="-27.2737707" lon="151.2899057">
  <ele>343.08</ele>
  <time>2026-09-01T19:58:09Z</time>
  <course>77.53</course>
  <speed>0.0</speed>
  <fix>3d</fix>
</trkpt>
<trkpt lat="-27.2737708" lon="151.2899054">
  <ele>343.08</ele>
  <time>2026-09-01T19:58:09Z</time>
  <course>107.23</course>
  <speed>0.022360679774997897</speed>
  <fix>3d</fix>
</trkpt>
<trkpt lat="-27.2737707" lon="151.2899057">
  <ele>343.08</ele>
  <time>2026-09-01T19:58:09Z</time>
  <course>77.53</course>
  <speed>0.0</speed>
  <fix>3d</fix>
</trkpt>
<trkpt lat="-27.2737708" lon="151.2899054">
  <ele>343.08</ele>
  <time>2026-09-01T19:58:09Z</time>
  <course>107.23</course>
  <speed>0.022360679774997897</speed>
  <fix>3d</fix>
</trkpt>
<trkpt lat="-27.2737707" lon="151.2899057">
  <ele>343.08</ele>
  <time>2026-09-01T19:58:09Z</time>
  <course>78.79</course>
  <speed>0.0</speed>
  <fix>3d</fix>
</trkpt>
<trkpt lat="-27.2737708" lon="151.2899054">
  <ele>343.08</ele>
  <time>2026-09-01T19:58:09Z</time>
  <course>107.24</course>
  <speed>0.022360679774997897</speed>
  <fix>3d</fix>
</trkpt>
<trkpt lat="-27.2737707" lon="151.2899057">
  <ele>343.08</ele>
  <time>2026-09-01T19:58:09Z</time>
  <course>78.79</course>
  <speed>0.0</speed>
  <fix>3d</fix>
</trkpt>
<trkpt lat="-27.2737708" lon="151.2899054">
  <ele>343.08</ele>
  <time>2026-09-01T19:58:09Z</time>
  <course>107.24</course>
  <speed>0.022360679774997897</speed>
  <fix>3d</fix>
</trkpt>
<trkpt lat="-27.2737707" lon="151.2899057">
  <ele>343.08</ele>
  <time>2026-09-01T19:58:09Z</time>
  <course>78.94</course>
  <speed>0.0</speed>
  <fix>3d</fix>
</trkpt>
<trkpt lat="-27.2737708" lon="151.2899054">
  <ele>343.08</ele>
  <time>2026-09-01T19:58:09Z</time>
  <course>107.24</course>
  <speed>0.022360679774997897</speed>
  <fix>3d</fix>
</trkpt>
<trkpt lat="-27.2737707" lon="151.2899057">
  <ele>343.08</ele>
  <time>2026-09-01T19:58:09Z</time>
  <course>78.94</course>
  <speed>0.0</speed>
  <fix>3d</fix>
</trkpt>
<trkpt lat="-27.2737708" lon="151.2899054">
  <ele>343.09</ele>
  <time>2026-09-01T19:58:09Z</time>
  <course>107.25</course>
  <speed>0.022360679774997897</speed>
  <fix>3d</fix>
</trkpt>
<trkpt lat="-27.2737707" lon="151.2899057">
  <ele>343.08</ele>
  <time>2026-09-01T19:58:09Z</time>
  <course>78.97</course>
  <speed>0.0</speed>
  <fix>3d</fix>
</trkpt>
<trkpt lat="-27.2737708" lon="151.2899054">
  <ele>343.08</ele>
  <time>2026-09-01T19:58:09Z</time>
  <course>107.25</course>
  <speed>0.022360679774997897</speed>
  <fix>3d</fix>
</trkpt>
<trkpt lat="-27.2737707" lon="151.2899057">
  <ele>343.08</ele>
  <time>2026-09-01T19:58:09Z</time>
  <course>78.97</course>
  <speed>0.0</speed>
  <fix>3d</fix>
</trkpt>
<trkpt lat="-27.2737708" lon="151.2899054">
  <ele>343.08</ele>
  <time>2026-09-01T19:58:09Z</time>
  <course>107.25</course>
  <speed>0.022360679774997897</speed>
  <fix>3d</fix>
</trkpt>
<trkpt lat="-27.2737707" lon="151.2899057">
  <ele>343.08</ele>
  <time>2026-09-01T19:58:09Z</time>
  <course>78.97</course>
  <speed>0.0</speed>
  <fix>3d</fix>
</trkpt>
<trkpt lat="-27.2737708" lon="151.2899054">
  <ele>343.08</ele>
  <time>2026-09-01T19:58:09Z</time>
  <course>107.26</course>
  <speed>0.022360679774997897</speed>
  <fix>3d</fix>
</trkpt>
<trkpt lat="-27.2737707" lon="151.2899057">
  <ele>343.08</ele>
  <time>2026-09-01T19:58:09Z</time>
  <course>78.97</course>
  <speed>0.0</speed>
  <fix>3d</fix>
</trkpt>
<trkpt lat="-27.2737708" lon="151.2899054">
  <ele>343.08</ele>
  <time>2026-09-01T19:58:09Z</time>
  <course>107.26</course>
  <speed>0.022360679774997897</speed>
  <fix>3d</fix>
</trkpt>
<trkpt lat="-27.2737707" lon="151.2899057">
  <ele>343.08</ele>
  <time>2026-09-01T19:58:09Z</time>
  <course>78.97</course>
  <speed>0.0</speed>
  <fix>3d</fix>
</trkpt>
<trkpt lat="-27.2737708" lon="151.2899054">
  <ele>343.08</ele>
  <time>2026-09-01T19:58:09Z</time>
  <course>107.26</course>
  <speed>0.022360679774997897</speed>
  <fix>3d</fix>
</trkpt>
<trkpt lat="-27.2737707" lon="151.2899057">
  <ele>343.08</ele>
  <time>2026-09-01T19:58:09Z</time>
  <course>78.97</course>
  <speed>0.0</speed>
  <fix>3d</fix>
</trkpt>
<trkpt lat="-27.2737708" lon="151.2899054">
  <ele>343.08</ele>
  <time>2026-09-01T19:58:09Z</time>
  <course>107.27</course>
  <speed>0.022360679774997897</speed>
  <fix>3d</fix>
</trkpt>
<trkpt lat="-27.2737707" lon="151.2899057">
  <ele>343.08</ele>
  <time>2026-09-01T19:58:09Z</time>
  <course>78.97</course>
  <speed>0.0</speed>
  <fix>3d</fix>
</trkpt>
<trkpt lat="-27.2737708" lon="151.2899054">
  <ele>343.08</ele>
  <time>2026-09-01T19:58:09Z</time>
  <course>107.27</course>
  <speed>0.022360679774997897</speed>
  <fix>3d</fix>
</trkpt>
<trkpt lat="-27.2737707" lon="151.2899057">
  <ele>343.08</ele>
  <time>2026-09-01T19:58:09Z</time>
  <course>78.97</course>
  <speed>0.0</speed>
  <fix>3d</fix>
</trkpt>
<trkpt lat="-27.2737708" lon="151.2899054">
  <ele>343.08</ele>
  <time>2026-09-01T19:58:09Z</time>
  <course>107.28</course>
  <speed>0.022360679774997897</speed>
  <fix>3d</fix>
</trkpt>
<trkpt lat="-27.2737707" lon="151.2899057">
  <ele>343.08</ele>
  <time>2026-09-01T19:58:09Z</time>
  <course>78.97</course>
  <speed>0.0</speed>
  <fix>3d</fix>
</trkpt>
<trkpt lat="-27.2737708" lon="151.2899054">
  <ele>343.08</ele>
  <time>2026-09-01T19:58:09Z</time>
  <course>107.28</course>
  <speed>0.022360679774997897</speed>
  <fix>3d</fix>
</trkpt>
<trkpt lat="-27.2737707" lon="151.2899057">
  <ele>343.08</ele>
  <time>2026-09-01T19:58:09Z</time>
  <course>78.97</course>
  <speed>0.0</speed>
  <fix>3d</fix>
</trkpt>
<trkpt lat="-27.2737708" lon="151.2899054">
  <ele>343.08</ele>
  <time>2026-09-01T19:58:09Z</time>
  <course>107.28</course>
  <speed>0.022360679774997897</speed>
  <fix>3d</fix>
</trkpt>
<trkpt lat="-27.2737707" lon="151.2899057">
  <ele>343.08</ele>
  <time>2026-09-01T19:58:09Z</time>
  <course>78.97</course>
  <speed>0.0</speed>
  <fix>3d</fix>
</trkpt>
<trkpt lat="-27.2737708" lon="151.2899054">
  <ele>343.08</ele>
  <time>2026-09-01T19:58:09Z</time>
  <course>107.29</course>
  <speed>0.022360679774997897</speed>
  <fix>3d</fix>
</trkpt>
<trkpt lat="-27.2737707" lon="151.2899057">
  <ele>343.08</ele>
  <time>2026-09-01T19:58:09Z</time>
  <course>78.97</course>
  <speed>0.0</speed>
  <fix>3d</fix>
</trkpt>
<trkpt lat="-27.2737708" lon="151.2899054">
  <ele>343.09</ele>
  <time>2026-09-01T19:58:09Z</time>
  <course>107.29</course>
  <speed>0.022360679774997897</speed>
  <fix>3d</fix>
</trkpt>
<trkpt lat="-27.2737707" lon="151.2899057">
  <ele>343.08</ele>
  <time>2026-09-01T19:58:09Z</time>
  <course>78.97</course>
  <speed>0.0</speed>
  <fix>3d</fix>
</trkpt>
<trkpt lat="-27.2737708" lon="151.2899054">
  <ele>343.09</ele>
  <time>2026-09-01T19:58:09Z</time>
  <course>107.29</course>
  <speed>0.022360679774997897</speed>
  <fix>3d</fix>
</trkpt>
<trkpt lat="-27.2737707" lon="151.2899057">
  <ele>343.08</ele>
  <time>2026-09-01T19:58:09Z</time>
  <course>78.97</course>
  <speed>0.0</speed>
  <fix>3d</fix>
</trkpt>
<trkpt lat="-27.2737708" lon="151.2899054">
  <ele>343.08</ele>
  <time>2026-09-01T19:58:09Z</time>
  <course>107.3</course>
  <speed>0.022360679774997897</speed>
  <fix>3d</fix>
</trkpt>
<trkpt lat="-27.2737707" lon="151.2899057">
  <ele>343.08</ele>
  <time>2026-09-01T19:58:09Z</time>
  <course>78.97</course>
  <speed>0.0</speed>
  <fix>3d</fix>
</trkpt>
<trkpt lat="-27.2737708" lon="151.2899054">
  <ele>343.08</ele>
  <time>2026-09-01T19:58:09Z</time>
  <course>107.3</course>
  <speed>0.022360679774997897</speed>
  <fix>3d</fix>
</trkpt>
<trkpt lat="-27.2737707" lon="151.2899057">
  <ele>343.08</ele>
  <time>2026-09-01T19:58:09Z</time>
  <course>78.97</course>
  <speed>0.0</speed>
  <fix>3d</fix>
</trkpt>
<trkpt lat="-27.2737708" lon="151.2899054">
  <ele>343.08</ele>
  <time>2026-09-01T19:58:09Z</time>
  <course>107.31</course>
  <speed>0.022360679774997897</speed>
  <fix>3d</fix>
</trkpt>
<trkpt lat="-27.2737707" lon="151.2899057">
  <ele>343.08</ele>
  <time>2026-09-01T19:58:09Z</time>
  <course>78.97</course>
  <speed>0.0</speed>
  <fix>3d</fix>
</trkpt>
<trkpt lat="-27.2737708" lon="151.2899054">
  <ele>343.08</ele>
  <time>2026-09-01T19:58:09Z</time>
  <course>107.31</course>
  <speed>0.022360679774997897</speed>
  <fix>3d</fix>
</trkpt>
<trkpt lat="-27.2737707" lon="151.2899057">
  <ele>343.08</ele>
  <time>2026-09-01T19:58:09Z</time>
  <course>78.97</course>
  <speed>0.0</speed>
  <fix>3d</fix>
</trkpt>
<trkpt lat="-27.2737708" lon="151.2899054">
  <ele>343.07</ele>
  <time>2026-09-01T19:58:09Z</time>
  <course>107.31</course>
  <speed>0.022360679774997897</speed>
  <fix>3d</fix>
</trkpt>
<trkpt lat="-27.2737707" lon="151.2899057">
  <ele>343.08</ele>
  <time>2026-09-01T19:58:09Z</time>
  <course>78.97</course>
  <speed>0.0</speed>
  <fix>3d</fix>
</trkpt>
<trkpt lat="-27.2737708" lon="151.2899054">
  <ele>343.07</ele>
  <time>2026-09-01T19:58:09Z</time>
  <course>107.32</course>
  <speed>0.022360679774997897</speed>
  <fix>3d</fix>
</trkpt>
<trkpt lat="-27.2737707" lon="151.2899057">
  <ele>343.08</ele>
  <time>2026-09-01T19:58:09Z</time>
  <course>78.97</course>
  <speed>0.0</speed>
  <fix>3d</fix>
</trkpt>
<trkpt lat="-27.2737708" lon="151.2899054">
  <ele>343.07</ele>
  <time>2026-09-01T19:58:09Z</time>
  <course>107.32</course>
  <speed>0.022360679774997897</speed>
  <fix>3d</fix>
</trkpt>
<trkpt lat="-27.2737707" lon="151.2899057">
  <ele>343.08</ele>
  <time>2026-09-01T19:58:09Z</time>
  <course>78.97</course>
  <speed>0.0</speed>
  <fix>3d</fix>
</trkpt>
<trkpt lat="-27.2737708" lon="151.2899054">
  <ele>343.07</ele>
  <time>2026-09-01T19:58:09Z</time>
  <course>107.32</course>
  <speed>0.022360679774997897</speed>
  <fix>3d</fix>
</trkpt>
<trkpt lat="-27.2737707" lon="151.2899057">
  <ele>343.08</ele>
  <time>2026-09-01T19:58:09Z</time>
  <course>78.97</course>
  <speed>0.0</speed>
  <fix>3d</fix>
</trkpt>
<trkpt lat="-27.2737708" lon="151.2899054">
  <ele>343.07</ele>
  <time>2026-09-01T19:58:09Z</time>
  <course>107.33</course>
  <speed>0.022360679774997897</speed>
  <fix>3d</fix>
</trkpt>
<trkpt lat="-27.2737707" lon="151.2899057">
  <ele>343.08</ele>
  <time>2026-09-01T19:58:09Z</time>
  <course>78.97</course>
  <speed>0.0</speed>
  <fix>3d</fix>
</trkpt>
<trkpt lat="-27.2737708" lon="151.2899054">
  <ele>343.06</ele>
  <time>2026-09-01T19:58:09Z</time>
  <course>107.33</course>
  <speed>0.022360679774997897</speed>
  <fix>3d</fix>
</trkpt>
<trkpt lat="-27.2737707" lon="151.2899057">
  <ele>343.08</ele>
  <time>2026-09-01T19:58:09Z</time>
  <course>78.97</course>
  <speed>0.0</speed>
  <fix>3d</fix>
</trkpt>
<trkpt lat="-27.2737708" lon="151.2899054">
  <ele>343.06</ele>
  <time>2026-09-01T19:58:09Z</time>
  <course>107.34</course>
  <speed>0.022360679774997897</speed>
  <fix>3d</fix>
</trkpt>
<trkpt lat="-27.2737707" lon="151.2899057">
  <ele>343.08</ele>
  <time>2026-09-01T19:58:09Z</time>
  <course>78.97</course>
  <speed>0.0</speed>
  <fix>3d</fix>
</trkpt>
<trkpt lat="-27.2737708" lon="151.2899054">
  <ele>343.06</ele>
  <time>2026-09-01T19:58:09Z</time>
  <course>107.34</course>
  <speed>0.022360679774997897</speed>
  <fix>3d</fix>
</trkpt>
<trkpt lat="-27.2737707" lon="151.2899057">
  <ele>343.08</ele>
  <time>2026-09-01T19:58:09Z</time>
  <course>78.97</course>
  <speed>0.0</speed>
  <fix>3d</fix>
</trkpt>
<trkpt lat="-27.2737708" lon="151.2899054">
  <ele>343.06</ele>
  <time>2026-09-01T19:58:09Z</time>
  <course>107.34</course>
  <speed>0.022360679774997897</speed>
  <fix>3d</fix>
</trkpt>
<trkpt lat="-27.2737707" lon="151.2899057">
  <ele>343.08</ele>
  <time>2026-09-01T19:58:09Z</time>
  <course>256.97</course>
  <speed>0.0</speed>
  <fix>3d</fix>
</trkpt>
<trkpt lat="-27.2737708" lon="151.2899054">
  <ele>343.06</ele>
  <time>2026-09-01T19:58:09Z</time>
  <course>107.35</course>
  <speed>0.022360679774997897</speed>
  <fix>3d</fix>
</trkpt>
<trkpt lat="-27.2737707" lon="151.2899057">
  <ele>343.08</ele>
  <time>2026-09-01T19:58:09Z</time>
  <course>256.97</course>
  <speed>0.0</speed>
  <fix>3d</fix>
</trkpt>
<trkpt lat="-27.2737708" lon="151.2899054">
  <ele>343.06</ele>
  <time>2026-09-01T19:58:09Z</time>
  <course>107.35</course>
  <speed>0.022360679774997897</speed>
  <fix>3d</fix>
</trkpt>
<trkpt lat="-27.2737707" lon="151.2899057">
  <ele>343.08</ele>
  <time>2026-09-01T19:58:09Z</time>
  <course>255.77</course>
  <speed>0.0</speed>
  <fix>3d</fix>
</trkpt>
<trkpt lat="-27.2737708" lon="151.2899054">
  <ele>343.06</ele>
  <time>2026-09-01T19:58:09Z</time>
  <course>107.35</course>
  <speed>0.022360679774997897</speed>
  <fix>3d</fix>
</trkpt>
<trkpt lat="-27.2737708" lon="151.2899054">
  <ele>343.06</ele>
  <time>2026-09-01T19:58:09Z</time>
  <course>107.36</course>
  <speed>0.022360679774997897</speed>
  <fix>3d</fix>
</trkpt>
<trkpt lat="-27.2737707" lon="151.2899057">
  <ele>343.08</ele>
  <time>2026-09-01T19:58:09Z</time>
  <course>255.77</course>
  <speed>0.0</speed>
  <fix>3d</fix>
</trkpt>
<trkpt lat="-27.2737708" lon="151.2899054">
  <ele>343.06</ele>
  <time>2026-09-01T19:58:09Z</time>
  <course>107.36</course>
  <speed>0.022360679774997897</speed>
  <fix>3d</fix>
</trkpt>
<trkpt lat="-27.2737708" lon="151.2899054">
  <ele>343.06</ele>
  <time>2026-09-01T19:58:09Z</time>
  <course>107.36</course>
  <speed>0.022360679774997897</speed>
  <fix>3d</fix>
</trkpt>
<trkpt lat="-27.2737707" lon="151.2899057">
  <ele>343.08</ele>
  <time>2026-09-01T19:58:09Z</time>
  <course>254.37</course>
  <speed>0.0</speed>
  <fix>3d</fix>
</trkpt>
<trkpt lat="-27.2737708" lon="151.2899054">
  <ele>343.06</ele>
  <time>2026-09-01T19:58:09Z</time>
  <course>107.36</course>
  <speed>0.022360679774997897</speed>
  <fix>3d</fix>
</trkpt>
<trkpt lat="-27.2737708" lon="151.2899054">
  <ele>343.06</ele>
  <time>2026-09-01T19:58:09Z</time>
  <course>107.36</course>
  <speed>0.022360679774997897</speed>
  <fix>3d</fix>
</trkpt>
<trkpt lat="-27.2737707" lon="151.2899057">
  <ele>343.08</ele>
  <time>2026-09-01T19:58:09Z</time>
  <course>254.37</course>
  <speed>0.0</speed>
  <fix>3d</fix>
</trkpt>
<trkpt lat="-27.2737708" lon="151.2899054">
  <ele>343.06</ele>
  <time>2026-09-01T19:58:09Z</time>
  <course>107.36</course>
  <speed>0.022360679774997897</speed>
  <fix>3d</fix>
</trkpt>
<trkpt lat="-27.2737708" lon="151.2899054">
  <ele>343.06</ele>
  <time>2026-09-01T19:58:09Z</time>
  <course>107.37</course>
  <speed>0.022360679774997897</speed>
  <fix>3d</fix>
</trkpt>
<trkpt lat="-27.2737707" lon="151.2899057">
  <ele>343.08</ele>
  <time>2026-09-01T19:58:09Z</time>
  <course>74.19</course>
  <speed>0.0</speed>
  <fix>3d</fix>
</trkpt>
<trkpt lat="-27.2737708" lon="151.2899054">
  <ele>343.05</ele>
  <time>2026-09-01T19:58:09Z</time>
  <course>107.37</course>
  <speed>0.022360679774997897</speed>
  <fix>3d</fix>
</trkpt>
<trkpt lat="-27.2737708" lon="151.2899054">
  <ele>343.05</ele>
  <time>2026-09-01T19:58:09Z</time>
  <course>107.37</course>
  <speed>0.022360679774997897</speed>
  <fix>3d</fix>
</trkpt>
<trkpt lat="-27.2737707" lon="151.2899057">
  <ele>343.08</ele>
  <time>2026-09-01T19:58:09Z</time>
  <course>74.19</course>
  <speed>0.0</speed>
  <fix>3d</fix>
</trkpt>
<trkpt lat="-27.2737708" lon="151.2899054">
  <ele>343.05</ele>
  <time>2026-09-01T19:58:09Z</time>
  <course>107.37</course>
  <speed>0.022360679774997897</speed>
  <fix>3d</fix>
</trkpt>
<trkpt lat="-27.2737708" lon="151.2899054">
  <ele>343.05</ele>
  <time>2026-09-01T19:58:09Z</time>
  <course>107.37</course>
  <speed>0.022360679774997897</speed>
  <fix>3d</fix>
</trkpt>
<trkpt lat="-27.2737707" lon="151.2899057">
  <ele>343.08</ele>
  <time>2026-09-01T19:58:09Z</time>
  <course>86.22</course>
  <speed>0.0</speed>
  <fix>3d</fix>
</trkpt>
<trkpt lat="-27.2737708" lon="151.2899054">
  <ele>343.05</ele>
  <time>2026-09-01T19:58:09Z</time>
  <course>107.38</course>
  <speed>0.022360679774997897</speed>
  <fix>3d</fix>
</trkpt>
<trkpt lat="-27.2737708" lon="151.2899054">
  <ele>343.06</ele>
  <time>2026-09-01T19:58:09Z</time>
  <course>107.38</course>
  <speed>0.022360679774997897</speed>
  <fix>3d</fix>
</trkpt>
<trkpt lat="-27.2737707" lon="151.2899057">
  <ele>343.08</ele>
  <time>2026-09-01T19:58:09Z</time>
  <course>86.22</course>
  <speed>0.0</speed>
  <fix>3d</fix>
</trkpt>
<trkpt lat="-27.2737708" lon="151.2899054">
  <ele>343.06</ele>
  <time>2026-09-01T19:58:09Z</time>
  <course>107.38</course>
  <speed>0.022360679774997897</speed>
  <fix>3d</fix>
</trkpt>
<trkpt lat="-27.2737708" lon="151.2899054">
  <ele>343.09</ele>
  <time>2026-09-01T19:58:09Z</time>
  <course>107.38</course>
  <speed>0.022360679774997897</speed>
  <fix>3d</fix>
</trkpt>
<trkpt lat="-27.2737707" lon="151.2899057">
  <ele>343.09</ele>
  <time>2026-09-01T19:58:09Z</time>
  <course>106.16</course>
  <speed>0.0</speed>
  <fix>3d</fix>
</trkpt>
<trkpt lat="-27.2737708" lon="151.2899054">
  <ele>343.1</ele>
  <time>2026-09-01T19:58:09Z</time>
  <course>107.38</course>
  <speed>0.022360679774997897</speed>
  <fix>3d</fix>
</trkpt>
<trkpt lat="-27.2737708" lon="151.2899054">
  <ele>343.14</ele>
  <time>2026-09-01T19:58:09Z</time>
  <course>107.39</course>
  <speed>0.022360679774997897</speed>
  <fix>3d</fix>
</trkpt>
<trkpt lat="-27.2737707" lon="151.2899057">
  <ele>343.09</ele>
  <time>2026-09-01T19:58:09Z</time>
  <course>106.16</course>
  <speed>0.0</speed>
  <fix>3d</fix>
</trkpt>
<trkpt lat="-27.2737708" lon="151.2899054">
  <ele>343.15</ele>
  <time>2026-09-01T19:58:09Z</time>
  <course>107.39</course>
  <speed>0.022360679774997897</speed>
  <fix>3d</fix>
</trkpt>
<trkpt lat="-27.2737708" lon="151.2899054">
  <ele>343.2</ele>
  <time>2026-09-01T19:58:09Z</time>
  <course>107.39</course>
  <speed>0.01414213562373095</speed>
  <fix>3d</fix>
</trkpt>
<trkpt lat="-27.2737707" lon="151.2899057">
  <ele>343.16</ele>
  <time>2026-09-01T19:58:09Z</time>
  <course>103.43</course>
  <speed>0.0</speed>
  <fix>3d</fix>
</trkpt>
<trkpt lat="-27.2737708" lon="151.2899054">
  <ele>343.23</ele>
  <time>2026-09-01T19:58:09Z</time>
  <course>107.39</course>
  <speed>0.01414213562373095</speed>
  <fix>3d</fix>
</trkpt>
<trkpt lat="-27.2737708" lon="151.2899054">
  <ele>343.32</ele>
  <time>2026-09-01T19:58:09Z</time>
  <course>107.39</course>
  <speed>0.02</speed>
  <fix>3d</fix>
</trkpt>
<trkpt lat="-27.2737707" lon="151.2899057">
  <ele>343.16</ele>
  <time>2026-09-01T19:58:09Z</time>
  <course>103.43</course>
  <speed>0.0</speed>
  <fix>3d</fix>
</trkpt>
<trkpt lat="-27.2737708" lon="151.2899054">
  <ele>343.32</ele>
  <time>2026-09-01T19:58:09Z</time>
  <course>107.39</course>
  <speed>0.02</speed>
  <fix>3d</fix>
</trkpt>
<trkpt lat="-27.2737708" lon="151.2899055">
  <ele>343.5</ele>
  <time>2026-09-01T19:58:09Z</time>
  <course>107.38</course>
  <speed>0.05</speed>
  <fix>3d</fix>
</trkpt>
<trkpt lat="-27.2737707" lon="151.2899057">
  <ele>343.37</ele>
  <time>2026-09-01T19:58:09Z</time>
  <course>102.39</course>
  <speed>0.04</speed>
  <fix>3d</fix>
</trkpt>
<trkpt lat="-27.2737708" lon="151.2899055">
  <ele>343.51</ele>
  <time>2026-09-01T19:58:09Z</time>
  <course>107.38</course>
  <speed>0.05</speed>
  <fix>3d</fix>
</trkpt>
<trkpt lat="-27.2737708" lon="151.2899056">
  <ele>343.74</ele>
  <time>2026-09-01T19:58:09Z</time>
  <course>107.37</course>
  <speed>0.09848857801796104</speed>
  <fix>3d</fix>
</trkpt>
<trkpt lat="-27.2737707" lon="151.2899057">
  <ele>343.37</ele>
  <time>2026-09-01T19:58:09Z</time>
  <course>102.39</course>
  <speed>0.04</speed>
  <fix>3d</fix>
</trkpt>
<trkpt lat="-27.2737708" lon="151.2899056">
  <ele>343.81</ele>
  <time>2026-09-01T19:58:09Z</time>
  <course>107.36</course>
  <speed>0.1118033988749895</speed>
  <fix>3d</fix>
</trkpt>
<trkpt lat="-27.2737709" lon="151.2899057">
  <ele>344.0</ele>
  <time>2026-09-01T19:58:09Z</time>
  <course>107.35</course>
  <speed>0.15231546211727817</speed>
  <fix>3d</fix>
</trkpt>
<trkpt lat="-27.2737707" lon="151.2899059">
  <ele>343.76</ele>
  <time>2026-09-01T19:58:09Z</time>
  <course>102.99</course>
  <speed>0.13</speed>
  <fix>3d</fix>
</trkpt>
<trkpt lat="-27.2737709" lon="151.2899058">
  <ele>344.07</ele>
  <time>2026-09-01T19:58:09Z</time>
  <course>107.34</course>
  <speed>0.1615549442140351</speed>
  <fix>3d</fix>
</trkpt>
<trkpt lat="-27.2737709" lon="151.2899059">
  <ele>344.26</ele>
  <time>2026-09-01T19:58:09Z</time>
  <course>107.32</course>
  <speed>0.20248456731316586</speed>
  <fix>3d</fix>
</trkpt>
<trkpt lat="-27.2737707" lon="151.2899059">
  <ele>343.76</ele>
  <time>2026-09-01T19:58:09Z</time>
  <course>102.99</course>
  <speed>0.13</speed>
  <fix>3d</fix>
</trkpt>
<trkpt lat="-27.2737709" lon="151.289906">
  <ele>344.34</ele>
  <time>2026-09-01T19:58:09Z</time>
  <course>107.31</course>
  <speed>0.22135943621178655</speed>
  <fix>3d</fix>
</trkpt>
<trkpt lat="-27.273771" lon="151.2899062">
  <ele>344.54</ele>
  <time>2026-09-01T19:58:09Z</time>
  <course>107.29</course>
  <speed>0.26570660511172844</speed>
  <fix>3d</fix>
</trkpt>
<trkpt lat="-27.2737707" lon="151.2899063">
  <ele>344.28</ele>
  <time>2026-09-01T19:58:09Z</time>
  <course>103.59</course>
  <speed>0.23</speed>
  <fix>3d</fix>
</trkpt>
<trkpt lat="-27.273771" lon="151.2899063">
  <ele>344.62</ele>
  <time>2026-09-01T19:58:09Z</time>
  <course>107.29</course>
  <speed>0.2751363298439521</speed>
  <fix>3d</fix>
</trkpt>
<trkpt lat="-27.273771" lon="151.2899065">
  <ele>344.84</ele>
  <time>2026-09-01T19:58:09Z</time>
  <course>107.27</course>
  <speed>0.32572994949804657</speed>
  <fix>3d</fix>
</trkpt>
<trkpt lat="-27.2737707" lon="151.2899063">
  <ele>344.28</ele>
  <time>2026-09-01T19:58:09Z</time>
  <course>103.59</course>
  <speed>0.23</speed>
  <fix>3d</fix>
</trkpt>
<trkpt lat="-27.273771" lon="151.2899066">
  <ele>344.92</ele>
  <time>2026-09-01T19:58:09Z</time>
  <course>107.26</course>
  <speed>0.33837848631377265</speed>
  <fix>3d</fix>
</trkpt>
<trkpt lat="-27.2737711" lon="151.2899069">
  <ele>345.14</ele>
  <time>2026-09-01T19:58:09Z</time>
  <course>107.09</course>
  <speed>0.3889730067755345</speed>
  <fix>3d</fix>
</trkpt>
<trkpt lat="-27.2737709" lon="151.2899069">
  <ele>344.85</ele>
  <time>2026-09-01T19:58:09Z</time>
  <course>103.99</course>
  <speed>0.35</speed>
  <fix>3d</fix>
</trkpt>
<trkpt lat="-27.2737711" lon="151.289907">
  <ele>345.22</ele>
  <time>2026-09-01T19:58:09Z</time>
  <course>107.0</course>
  <speed>0.3984971769034255</speed>
  <fix>3d</fix>
</trkpt>
<trkpt lat="-27.2737712" lon="151.2899073">
  <ele>345.45</ele>
  <time>2026-09-01T19:58:09Z</time>
  <course>106.78</course>
  <speed>0.44922154890432403</speed>
  <fix>3d</fix>
</trkpt>
<trkpt lat="-27.2737709" lon="151.2899069">
  <ele>344.85</ele>
  <time>2026-09-01T19:58:09Z</time>
  <course>103.99</course>
  <speed>0.35</speed>
  <fix>3d</fix>
</trkpt>
<trkpt lat="-27.2737712" lon="151.2899075">
  <ele>345.53</ele>
  <time>2026-09-01T19:58:09Z</time>
  <course>106.72</course>
  <speed>0.4617358552246078</speed>
  <fix>3d</fix>
</trkpt>
<trkpt lat="-27.2737713" lon="151.2899078">
  <ele>345.76</ele>
  <time>2026-09-01T19:58:09Z</time>
  <course>106.64</course>
  <speed>0.5124451190127582</speed>
  <fix>3d</fix>
</trkpt>
<trkpt lat="-27.2737711" lon="151.2899077">
  <ele>345.46</ele>
  <time>2026-09-01T19:58:09Z</time>
  <course>104.32</course>
  <speed>0.47</speed>
  <fix>3d</fix>
</trkpt>
<trkpt lat="-27.2737713" lon="151.289908">
  <ele>345.84</ele>
  <time>2026-09-01T19:58:09Z</time>
  <course>106.63</course>
  <speed>0.5220153254455275</speed>
  <fix>3d</fix>
</trkpt>
<trkpt lat="-27.2737714" lon="151.2899084">
  <ele>346.08</ele>
  <time>2026-09-01T19:58:09Z</time>
  <course>106.67</course>
  <speed>0.5661271941887265</speed>
  <fix>3d</fix>
</trkpt>
<trkpt lat="-27.2737711" lon="151.2899077">
  <ele>345.46</ele>
  <time>2026-09-01T19:58:09Z</time>
  <course>104.32</course>
  <speed>0.47</speed>
  <fix>3d</fix>
</trkpt>
<trkpt lat="-27.2737715" lon="151.2899086">
  <ele>346.16</ele>
  <time>2026-09-01T19:58:09Z</time>
  <course>106.7</course>
  <speed>0.5852349955359812</speed>
  <fix>3d</fix>
</trkpt>
<trkpt lat="-27.2737716" lon="151.289909">
  <ele>346.39</ele>
  <time>2026-09-01T19:58:09Z</time>
  <course>106.81</course>
  <speed>0.626418390534633</speed>
  <fix>3d</fix>
</trkpt>
<trkpt lat="-27.2737713" lon="151.2899087">
  <ele>346.09</ele>
  <time>2026-09-01T19:58:09Z</time>
  <course>104.58</course>
  <speed>0.59</speed>
  <fix>3d</fix>
</trkpt>
<trkpt lat="-27.2737716" lon="151.289909">
  <ele>346.41</ele>
  <time>2026-09-01T19:58:09Z</time>
  <course>106.82</course>
  <speed>0.626418390534633</speed>
  <fix>3d</fix>
</trkpt>
<trkpt lat="-27.2737717" lon="151.2899097">
  <ele>346.71</ele>
  <time>2026-09-01T19:58:09Z</time>
  <course>106.97</course>
  <speed>0.6800735254367721</speed>
  <fix>3d</fix>
</trkpt>
<trkpt lat="-27.2737713" lon="151.2899087">
  <ele>346.09</ele>
  <time>2026-09-01T19:58:09Z</time>
  <course>104.58</course>
  <speed>0.59</speed>
  <fix>3d</fix>
</trkpt>
<trkpt lat="-27.2737717" lon="151.2899097">
  <ele>346.73</ele>
  <time>2026-09-01T19:58:09Z</time>
  <course>106.98</course>
  <speed>0.6800735254367721</speed>
  <fix>3d</fix>
</trkpt>
<trkpt lat="-27.2737719" lon="151.2899104">
  <ele>347.02</ele>
  <time>2026-09-01T19:58:09Z</time>
  <course>107.11</course>
  <speed>0.7308214556237386</speed>
  <fix>3d</fix>
</trkpt>
<trkpt lat="-27.2737716" lon="151.28991">
  <ele>346.72</ele>
  <time>2026-09-01T19:58:09Z</time>
  <course>104.83</course>
  <speed>0.7</speed>
  <fix>3d</fix>
</trkpt>
<trkpt lat="-27.273772" lon="151.2899106">
  <ele>347.11</ele>
  <time>2026-09-01T19:58:09Z</time>
  <course>107.13</course>
  <speed>0.7404052944165107</speed>
  <fix>3d</fix>
</trkpt>
<trkpt lat="-27.2737721" lon="151.2899112">
  <ele>347.33</ele>
  <time>2026-09-01T19:58:09Z</time>
  <course>107.18</course>
  <speed>0.7720103626247513</speed>
  <fix>3d</fix>
</trkpt>
<trkpt lat="-27.2737716" lon="151.28991">
  <ele>346.72</ele>
  <time>2026-09-01T19:58:09Z</time>
  <course>104.83</course>
  <speed>0.7</speed>
  <fix>3d</fix>
</trkpt>
<trkpt lat="-27.2737721" lon="151.2899114">
  <ele>347.41</ele>
  <time>2026-09-01T19:58:09Z</time>
  <course>107.2</course>
  <speed>0.7844743462982074</speed>
  <fix>3d</fix>
</trkpt>
<trkpt lat="-27.2737723" lon="151.289912">
  <ele>347.63</ele>
  <time>2026-09-01T19:58:09Z</time>
  <course>107.23</course>
  <speed>0.8132035415564789</speed>
  <fix>3d</fix>
</trkpt>
<trkpt lat="-27.273772" lon="151.2899115">
  <ele>347.33</ele>
  <time>2026-09-01T19:58:09Z</time>
  <course>105.04</course>
  <speed>0.8</speed>
  <fix>3d</fix>
</trkpt>
<trkpt lat="-27.2737723" lon="151.2899122">
  <ele>347.71</ele>
  <time>2026-09-01T19:58:09Z</time>
  <course>107.23</course>
  <speed>0.8256512580987205</speed>
  <fix>3d</fix>
</trkpt>
<trkpt lat="-27.2737725" lon="151.2899128">
  <ele>347.92</ele>
  <time>2026-09-01T19:58:09Z</time>
  <course>107.23</course>
  <speed>0.8544003745317531</speed>
  <fix>3d</fix>
</trkpt>
<trkpt lat="-27.273772" lon="151.2899115">
  <ele>347.33</ele>
  <time>2026-09-01T19:58:09Z</time>
  <course>105.04</course>
  <speed>0.8</speed>
  <fix>3d</fix>
</trkpt>
<trkpt lat="-27.2737725" lon="151.2899131">
  <ele>348.0</ele>
  <time>2026-09-01T19:58:09Z</time>
  <course>107.22</course>
  <speed>0.8668333173107734</speed>
  <fix>3d</fix>
</trkpt>
<trkpt lat="-27.2737727" lon="151.2899137">
  <ele>348.21</ele>
  <time>2026-09-01T19:58:09Z</time>
  <course>107.22</course>
  <speed>0.8984430978086481</speed>
  <fix>3d</fix>
</trkpt>
<trkpt lat="-27.2737724" lon="151.2899131">
  <ele>347.91</ele>
  <time>2026-09-01T19:58:09Z</time>
  <course>105.21</course>
  <speed>0.88</speed>
  <fix>3d</fix>
</trkpt>
<trkpt lat="-27.2737727" lon="151.289914">
  <ele>348.28</ele>
  <time>2026-09-01T19:58:09Z</time>
  <course>107.21</course>
  <speed>0.9080198235721508</speed>
  <fix>3d</fix>
</trkpt>
<trkpt lat="-27.2737729" lon="151.2899146">
  <ele>348.49</ele>
  <time>2026-09-01T19:58:09Z</time>
  <course>107.18</course>
  <speed>0.9272000862812729</speed>
  <fix>3d</fix>
</trkpt>
<trkpt lat="-27.2737724" lon="151.2899131">
  <ele>347.91</ele>
  <time>2026-09-01T19:58:09Z</time>
  <course>105.21</course>
  <speed>0.88</speed>
  <fix>3d</fix>
</trkpt>
<trkpt lat="-27.273773" lon="151.2899149">
  <ele>348.56</ele>
  <time>2026-09-01T19:58:09Z</time>
  <course>107.18</course>
  <speed>0.9396275858019496</speed>
  <fix>3d</fix>
</trkpt>
<trkpt lat="-27.2737731" lon="151.2899156">
  <ele>348.76</ele>
  <time>2026-09-01T19:58:09Z</time>
  <course>107.17</course>
  <speed>0.9588013350011565</speed>
  <fix>3d</fix>
</trkpt>
<trkpt lat="-27.2737727" lon="151.2899149">
  <ele>348.47</ele>
  <time>2026-09-01T19:58:09Z</time>
  <course>105.32</course>
  <speed>0.95</speed>
  <fix>3d</fix>
</trkpt>
<trkpt lat="-27.2737732" lon="151.2899158">
  <ele>348.83</ele>
  <time>2026-09-01T19:58:09Z</time>
  <course>107.15</course>
  <speed>0.9712363255150623</speed>
  <fix>3d</fix>
</trkpt>
<trkpt lat="-27.2737734" lon="151.2899166">
  <ele>349.03</ele>
  <time>2026-09-01T19:58:09Z</time>
  <course>107.13</course>
  <speed>0.9904039579888603</speed>
  <fix>3d</fix>
</trkpt>
<trkpt lat="-27.2737727" lon="151.2899149">
  <ele>348.47</ele>
  <time>2026-09-01T19:58:09Z</time>
  <course>105.32</course>
  <speed>0.95</speed>
  <fix>3d</fix>
</trkpt>
<trkpt lat="-27.2737734" lon="151.2899168">
  <ele>349.1</ele>
  <time>2026-09-01T19:58:09Z</time>
  <course>107.12</course>
  <speed>1.0</speed>
  <fix>3d</fix>
</trkpt>
<trkpt lat="-27.2737736" lon="151.2899176">
  <ele>349.29</ele>
  <time>2026-09-01T19:58:09Z</time>
  <course>107.12</course>
  <speed>1.0220078277586722</speed>
  <fix>3d</fix>
</trkpt>
<trkpt lat="-27.2737732" lon="151.2899168">
  <ele>349.01</ele>
  <time>2026-09-01T19:58:09Z</time>
  <course>105.38</course>
  <speed>1.01</speed>
  <fix>3d</fix>
</trkpt>
<trkpt lat="-27.2737736" lon="151.2899176">
  <ele>349.29</ele>
  <time>2026-09-01T19:58:09Z</time>
  <course>107.11</course>
  <speed>1.0220078277586722</speed>
  <fix>3d</fix>
</trkpt>
<trkpt lat="-27.2737739" lon="151.2899186">
  <ele>349.54</ele>
  <time>2026-09-01T19:58:09Z</time>
  <course>107.09</course>
  <speed>1.0508092119885513</speed>
  <fix>3d</fix>
</trkpt>
<trkpt lat="-27.2737732" lon="151.2899168">
  <ele>349.01</ele>
  <time>2026-09-01T19:58:09Z</time>
  <course>105.38</course>
  <speed>1.01</speed>
  <fix>3d</fix>
</trkpt>
<trkpt lat="-27.2737739" lon="151.2899186">
  <ele>349.55</ele>
  <time>2026-09-01T19:58:09Z</time>
  <course>107.09</course>
  <speed>1.053612832116238</speed>
  <fix>3d</fix>
</trkpt>
<trkpt lat="-27.2737741" lon="151.2899197">
  <ele>349.79</ele>
  <time>2026-09-01T19:58:09Z</time>
  <course>107.11</course>
  <speed>1.072800074571213</speed>
  <fix>3d</fix>
</trkpt>
<trkpt lat="-27.2737737" lon="151.2899189">
  <ele>349.52</ele>
  <time>2026-09-01T19:58:09Z</time>
  <course>105.43</course>
  <speed>1.07</speed>
  <fix>3d</fix>
</trkpt>
<trkpt lat="-27.2737741" lon="151.2899197">
  <ele>349.8</ele>
  <time>2026-09-01T19:58:09Z</time>
  <course>107.1</course>
  <speed>1.072800074571213</speed>
  <fix>3d</fix>
</trkpt>
<trkpt lat="-27.2737744" lon="151.2899208">
  <ele>350.04</ele>
  <time>2026-09-01T19:58:09Z</time>
  <course>107.1</course>
  <speed>1.1044002897500524</speed>
  <fix>3d</fix>
</trkpt>
<trkpt lat="-27.2737737" lon="151.2899189">
  <ele>349.52</ele>
  <time>2026-09-01T19:58:09Z</time>
  <course>105.43</course>
  <speed>1.07</speed>
  <fix>3d</fix>
</trkpt>
<trkpt lat="-27.2737744" lon="151.2899211">
  <ele>350.1</ele>
  <time>2026-09-01T19:58:09Z</time>
  <course>107.11</course>
  <speed>1.1044002897500524</speed>
  <fix>3d</fix>
</trkpt>
<trkpt lat="-27.2737746" lon="151.2899219">
  <ele>350.28</ele>
  <time>2026-09-01T19:58:09Z</time>
  <course>107.13</course>
  <speed>1.1236102527122116</speed>
  <fix>3d</fix>
</trkpt>
<trkpt lat="-27.2737743" lon="151.2899211">
  <ele>350.01</ele>
  <time>2026-09-01T19:58:09Z</time>
  <course>105.48</course>
  <speed>1.12</speed>
  <fix>3d</fix>
</trkpt>
<trkpt lat="-27.2737747" lon="151.2899222">
  <ele>350.35</ele>
  <time>2026-09-01T19:58:09Z</time>
  <course>107.13</course>
  <speed>1.136001760562016</speed>
  <fix>3d</fix>
</trkpt>
<trkpt lat="-27.2737749" lon="151.289923">
  <ele>350.52</ele>
  <time>2026-09-01T19:58:09Z</time>
  <course>107.14</course>
  <speed>1.1456002793295748</speed>
  <fix>3d</fix>
</trkpt>
<trkpt lat="-27.2737743" lon="151.2899211">
  <ele>350.01</ele>
  <time>2026-09-01T19:58:09Z</time>
  <course>105.48</course>
  <speed>1.12</speed>
  <fix>3d</fix>
</trkpt>
<trkpt lat="-27.273775" lon="151.2899233">
  <ele>350.59</ele>
  <time>2026-09-01T19:58:09Z</time>
  <course>107.14</course>
  <speed>1.1552056094046634</speed>
  <fix>3d</fix>
</trkpt>
<trkpt lat="-27.2737752" lon="151.2899242">
  <ele>350.76</ele>
  <time>2026-09-01T19:58:09Z</time>
  <course>107.16</course>
  <speed>1.1676043850551436</speed>
  <fix>3d</fix>
</trkpt>
<trkpt lat="-27.2737748" lon="151.2899233">
  <ele>350.5</ele>
  <time>2026-09-01T19:58:09Z</time>
  <course>105.52</course>
  <speed>1.17</speed>
  <fix>3d</fix>
</trkpt>
<trkpt lat="-27.2737753" lon="151.2899245">
  <ele>350.83</ele>
  <time>2026-09-01T19:58:09Z</time>
  <course>107.16</course>
  <speed>1.1772000679578642</speed>
  <fix>3d</fix>
</trkpt>
<trkpt lat="-27.2737755" lon="151.2899253">
  <ele>351.0</ele>
  <time>2026-09-01T19:58:09Z</time>
  <course>107.16</course>
  <speed>1.1964113005150028</speed>
  <fix>3d</fix>
</trkpt>
<trkpt lat="-27.2737748" lon="151.2899233">
  <ele>350.5</ele>
  <time>2026-09-01T19:58:09Z</time>
  <course>105.52</course>
  <speed>1.17</speed>
  <fix>3d</fix>
</trkpt>
<trkpt lat="-27.2737755" lon="151.2899257">
  <ele>351.06</ele>
  <time>2026-09-01T19:58:09Z</time>
  <course>107.17</course>
  <speed>1.1964113005150028</speed>
  <fix>3d</fix>
</trkpt>
<trkpt lat="-27.2737758" lon="151.2899265">
  <ele>351.24</ele>
  <time>2026-09-01T19:58:09Z</time>
  <course>107.18</course>
  <speed>1.218400590938793</speed>
  <fix>3d</fix>
</trkpt>
<trkpt lat="-27.2737754" lon="151.2899256">
  <ele>350.97</ele>
  <time>2026-09-01T19:58:09Z</time>
  <course>105.56</course>
  <speed>1.22</speed>
  <fix>3d</fix>
</trkpt>
<trkpt lat="-27.2737758" lon="151.2899268">
  <ele>351.3</ele>
  <time>2026-09-01T19:58:09Z</time>
  <course>107.18</course>
  <speed>1.218400590938793</speed>
  <fix>3d</fix>
</trkpt>
<trkpt lat="-27.2737761" lon="151.2899278">
  <ele>351.48</ele>
  <time>2026-09-01T19:58:09Z</time>
  <course>107.17</course>
  <speed>1.2404031602668546</speed>
  <fix>3d</fix>
</trkpt>
<trkpt lat="-27.2737754" lon="151.2899256">
  <ele>350.97</ele>
  <time>2026-09-01T19:58:09Z</time>
  <course>105.56</course>
  <speed>1.22</speed>
  <fix>3d</fix>
</trkpt>
<trkpt lat="-27.2737761" lon="151.2899281">
  <ele>351.54</ele>
  <time>2026-09-01T19:58:09Z</time>
  <course>107.17</course>
  <speed>1.25</speed>
  <fix>3d</fix>
</trkpt>
<trkpt lat="-27.2737764" lon="151.289929">
  <ele>351.72</ele>
  <time>2026-09-01T19:58:09Z</time>
  <course>107.18</course>
  <speed>1.2596031120952345</speed>
  <fix>3d</fix>
</trkpt>
<trkpt lat="-27.273776" lon="151.2899281">
  <ele>351.46</ele>
  <time>2026-09-01T19:58:09Z</time>
  <course>105.6</course>
  <speed>1.27</speed>
  <fix>3d</fix>
</trkpt>
<trkpt lat="-27.2737764" lon="151.2899293">
  <ele>351.78</ele>
  <time>2026-09-01T19:58:09Z</time>
  <course>107.18</course>
  <speed>1.2692123541787639</speed>
  <fix>3d</fix>
</trkpt>
<trkpt lat="-27.2737767" lon="151.2899303">
  <ele>351.96</ele>
  <time>2026-09-01T19:58:09Z</time>
  <course>107.18</course>
  <speed>1.2816005617976296</speed>
  <fix>3d</fix>
</trkpt>
<trkpt lat="-27.273776" lon="151.2899281">
  <ele>351.46</ele>
  <time>2026-09-01T19:58:09Z</time>
  <course>105.6</course>
  <speed>1.27</speed>
  <fix>3d</fix>
</trkpt>
<trkpt lat="-27.2737767" lon="151.2899306">
  <ele>352.02</ele>
  <time>2026-09-01T19:58:09Z</time>
  <course>107.18</course>
  <speed>1.2912009913255178</speed>
  <fix>3d</fix>
</trkpt>
<trkpt lat="-27.273777" lon="151.2899316">
  <ele>352.2</ele>
  <time>2026-09-01T19:58:09Z</time>
  <course>107.18</course>
  <speed>1.3104197800704933</speed>
  <fix>3d</fix>
</trkpt>
<trkpt lat="-27.2737766" lon="151.2899306">
  <ele>351.94</ele>
  <time>2026-09-01T19:58:09Z</time>
  <course>105.64</course>
  <speed>1.31</speed>
  <fix>3d</fix>
</trkpt>
<trkpt lat="-27.273777" lon="151.2899316">
  <ele>352.21</ele>
  <time>2026-09-01T19:58:09Z</time>
  <course>107.18</course>
  <speed>1.3104197800704933</speed>
  <fix>3d</fix>
</trkpt>
<trkpt lat="-27.2737773" lon="151.2899329">
  <ele>352.44</ele>
  <time>2026-09-01T19:58:09Z</time>
  <course>107.17</course>
  <speed>1.3324038426843419</speed>
  <fix>3d</fix>
</trkpt>
<trkpt lat="-27.2737766" lon="151.2899306">
  <ele>351.94</ele>
  <time>2026-09-01T19:58:09Z</time>
  <course>105.64</course>
  <speed>1.31</speed>
  <fix>3d</fix>
</trkpt>
<trkpt lat="-27.2737773" lon="151.2899329">
  <ele>352.45</ele>
  <time>2026-09-01T19:58:09Z</time>
  <course>107.17</course>
  <speed>1.3324038426843419</speed>
  <fix>3d</fix>
</trkpt>
<trkpt lat="-27.2737776" lon="151.2899342">
  <ele>352.69</ele>
  <time>2026-09-01T19:58:09Z</time>
  <course>107.18</course>
  <speed>1.354400236266961</speed>
  <fix>3d</fix>
</trkpt>
<trkpt lat="-27.2737773" lon="151.2899332">
  <ele>352.43</ele>
  <time>2026-09-01T19:58:09Z</time>
  <course>105.69</course>
  <speed>1.36</speed>
  <fix>3d</fix>
</trkpt>
<trkpt lat="-27.2737777" lon="151.2899346">
  <ele>352.76</ele>
  <time>2026-09-01T19:58:09Z</time>
  <course>107.18</course>
  <speed>1.3640014662748718</speed>
  <fix>3d</fix>
</trkpt>
<trkpt lat="-27.273778" lon="151.2899356">
  <ele>352.93</ele>
  <time>2026-09-01T19:58:09Z</time>
  <course>107.18</course>
  <speed>1.373608386695422</speed>
  <fix>3d</fix>
</trkpt>
<trkpt lat="-27.2737773" lon="151.2899332">
  <ele>352.43</ele>
  <time>2026-09-01T19:58:09Z</time>
  <course>105.69</course>
  <speed>1.36</speed>
  <fix>3d</fix>
</trkpt>
<trkpt lat="-27.2737781" lon="151.2899359">
  <ele>353.0</ele>
  <time>2026-09-01T19:58:09Z</time>
  <course>107.18</course>
  <speed>1.386001443000692</speed>
  <fix>3d</fix>
</trkpt>
<trkpt lat="-27.2737783" lon="151.2899369">
  <ele>353.18</ele>
  <time>2026-09-01T19:58:09Z</time>
  <course>107.19</course>
  <speed>1.4052046114356442</speed>
  <fix>3d</fix>
</trkpt>
<trkpt lat="-27.2737779" lon="151.2899359">
  <ele>352.93</ele>
  <time>2026-09-01T19:58:09Z</time>
  <course>105.73</course>
  <speed>1.41</speed>
  <fix>3d</fix>
</trkpt>
<trkpt lat="-27.2737783" lon="151.289937">
  <ele>353.19</ele>
  <time>2026-09-01T19:58:09Z</time>
  <course>107.19</course>
  <speed>1.4052046114356442</speed>
  <fix>3d</fix>
</trkpt>
<trkpt lat="-27.2737786" lon="151.2899383">
  <ele>353.43</ele>
  <time>2026-09-01T19:58:09Z</time>
  <course>107.19</course>
  <speed>1.4272000560538105</speed>
  <fix>3d</fix>
</trkpt>
<trkpt lat="-27.2737779" lon="151.2899359">
  <ele>352.93</ele>
  <time>2026-09-01T19:58:09Z</time>
  <course>105.73</course>
  <speed>1.41</speed>
  <fix>3d</fix>
</trkpt>
<trkpt lat="-27.2737787" lon="151.2899387">
  <ele>353.5</ele>
  <time>2026-09-01T19:58:09Z</time>
  <course>107.19</course>
  <speed>1.4368020044529448</speed>
  <fix>3d</fix>
</trkpt>
<trkpt lat="-27.273779" lon="151.2899398">
  <ele>353.68</ele>
  <time>2026-09-01T19:58:09Z</time>
  <course>107.2</course>
  <speed>1.4492066795319432</speed>
  <fix>3d</fix>
</trkpt>
<trkpt lat="-27.2737786" lon="151.2899387">
  <ele>353.42</ele>
  <time>2026-09-01T19:58:09Z</time>
  <course>105.8</course>
  <speed>1.45</speed>
  <fix>3d</fix>
</trkpt>
<trkpt lat="-27.2737791" lon="151.2899402">
  <ele>353.75</ele>
  <time>2026-09-01T19:58:09Z</time>
  <course>107.2</course>
  <speed>1.458800877433243</speed>
  <fix>3d</fix>
</trkpt>
<trkpt lat="-27.2737794" lon="151.2899412">
  <ele>353.93</ele>
  <time>2026-09-01T19:58:09Z</time>
  <course>107.2</course>
  <speed>1.4780054127099804</speed>
  <fix>3d</fix>
</trkpt>
<trkpt lat="-27.2737786" lon="151.2899387">
  <ele>353.42</ele>
  <time>2026-09-01T19:58:09Z</time>
  <course>105.8</course>
  <speed>1.45</speed>
  <fix>3d</fix>
</trkpt>
<trkpt lat="-27.2737795" lon="151.2899416">
  <ele>354.0</ele>
  <time>2026-09-01T19:58:09Z</time>
  <course>107.2</course>
  <speed>1.4780054127099804</speed>
  <fix>3d</fix>
</trkpt>
<trkpt lat="-27.2737797" lon="151.2899427">
  <ele>354.18</ele>
  <time>2026-09-01T19:58:09Z</time>
  <course>107.2</course>
  <speed>1.5</speed>
  <fix>3d</fix>
</trkpt>
<trkpt lat="-27.2737794" lon="151.2899416">
  <ele>353.92</ele>
  <time>2026-09-01T19:58:09Z</time>
  <course>105.86</course>
  <speed>1.5</speed>
  <fix>3d</fix>
</trkpt>
<trkpt lat="-27.2737798" lon="151.2899431">
  <ele>354.25</ele>
  <time>2026-09-01T19:58:09Z</time>
  <course>107.2</course>
  <speed>1.509602596712128</speed>
  <fix>3d</fix>
</trkpt>
<trkpt lat="-27.2737801" lon="151.2899442">
  <ele>354.44</ele>
  <time>2026-09-01T19:58:09Z</time>
  <course>107.2</course>
  <speed>1.5220052562327109</speed>
  <fix>3d</fix>
</trkpt>
<trkpt lat="-27.2737794" lon="151.2899416">
  <ele>353.92</ele>
  <time>2026-09-01T19:58:09Z</time>
  <course>105.86</course>
  <speed>1.5</speed>
  <fix>3d</fix>
</trkpt>
<trkpt lat="-27.2737802" lon="151.2899446">
  <ele>354.5</ele>
  <time>2026-09-01T19:58:09Z</time>
  <course>107.2</course>
  <speed>1.5316004700965586</speed>
  <fix>3d</fix>
</trkpt>
<trkpt lat="-27.2737805" lon="151.2899457">
  <ele>354.69</ele>
  <time>2026-09-01T19:58:09Z</time>
  <course>107.21</course>
  <speed>1.5508062419270823</speed>
  <fix>3d</fix>
</trkpt>
<trkpt lat="-27.2737801" lon="151.2899445">
  <ele>354.43</ele>
  <time>2026-09-01T19:58:09Z</time>
  <course>105.91</course>
  <speed>1.55</speed>
  <fix>3d</fix>
</trkpt>
<trkpt lat="-27.2737806" lon="151.2899461">
  <ele>354.76</ele>
  <time>2026-09-01T19:58:09Z</time>
  <course>107.21</course>
  <speed>1.5536087023443192</speed>
  <fix>3d</fix>
</trkpt>
<trkpt lat="-27.2737809" lon="151.2899473">
  <ele>354.94</ele>
  <time>2026-09-01T19:58:09Z</time>
  <course>107.2</course>
  <speed>1.572800050864699</speed>
  <fix>3d</fix>
</trkpt>
<trkpt lat="-27.2737801" lon="151.2899445">
  <ele>354.43</ele>
  <time>2026-09-01T19:58:09Z</time>
  <course>105.91</course>
  <speed>1.55</speed>
  <fix>3d</fix>
</trkpt>
<trkpt lat="-27.2737809" lon="151.2899473">
  <ele>354.95</ele>
  <time>2026-09-01T19:58:09Z</time>
  <course>107.2</course>
  <speed>1.572800050864699</speed>
  <fix>3d</fix>
</trkpt>
<trkpt lat="-27.2737813" lon="151.2899488">
  <ele>355.2</ele>
  <time>2026-09-01T19:58:09Z</time>
  <course>107.2</course>
  <speed>1.5948040632002414</speed>
  <fix>3d</fix>
</trkpt>
<trkpt lat="-27.2737809" lon="151.2899476">
  <ele>354.93</ele>
  <time>2026-09-01T19:58:09Z</time>
  <course>105.95</course>
  <speed>1.6</speed>
  <fix>3d</fix>
</trkpt>
<trkpt lat="-27.2737813" lon="151.2899489">
  <ele>355.2</ele>
  <time>2026-09-01T19:58:09Z</time>
  <course>107.2</course>
  <speed>1.5948040632002414</speed>
  <fix>3d</fix>
</trkpt>
<trkpt lat="-27.2737817" lon="151.2899504">
  <ele>355.45</ele>
  <time>2026-09-01T19:58:09Z</time>
  <course>107.2</course>
  <speed>1.6168178623456633</speed>
  <fix>3d</fix>
</trkpt>
<trkpt lat="-27.2737809" lon="151.2899476">
  <ele>354.93</ele>
  <time>2026-09-01T19:58:09Z</time>
  <course>105.95</course>
  <speed>1.6</speed>
  <fix>3d</fix>
</trkpt>
<trkpt lat="-27.2737818" lon="151.2899509">
  <ele>355.52</ele>
  <time>2026-09-01T19:58:09Z</time>
  <course>107.2</course>
  <speed>1.6264070831129578</speed>
  <fix>3d</fix>
</trkpt>
<trkpt lat="-27.2737821" lon="151.289952">
  <ele>355.71</ele>
  <time>2026-09-01T19:58:09Z</time>
  <course>107.21</course>
  <speed>1.645600194457937</speed>
  <fix>3d</fix>
</trkpt>
<trkpt lat="-27.2737817" lon="151.2899507">
  <ele>355.44</ele>
  <time>2026-09-01T19:58:09Z</time>
  <course>106.01</course>
  <speed>1.64</speed>
  <fix>3d</fix>
</trkpt>
<trkpt lat="-27.2737822" lon="151.2899524">
  <ele>355.77</ele>
  <time>2026-09-01T19:58:09Z</time>
  <course>107.21</course>
  <speed>1.6484234892769516</speed>
  <fix>3d</fix>
</trkpt>
<trkpt lat="-27.2737825" lon="151.2899537">
  <ele>355.96</ele>
  <time>2026-09-01T19:58:09Z</time>
  <course>107.21</course>
  <speed>1.6676030702778164</speed>
  <fix>3d</fix>
</trkpt>
<trkpt lat="-27.2737817" lon="151.2899507">
  <ele>355.44</ele>
  <time>2026-09-01T19:58:09Z</time>
  <course>106.01</course>
  <speed>1.64</speed>
  <fix>3d</fix>
</trkpt>
<trkpt lat="-27.2737826" lon="151.2899541">
  <ele>356.03</ele>
  <time>2026-09-01T19:58:09Z</time>
  <course>107.21</course>
  <speed>1.6772000476985445</speed>
  <fix>3d</fix>
</trkpt>
<trkpt lat="-27.2737829" lon="151.2899553">
  <ele>356.21</ele>
  <time>2026-09-01T19:58:09Z</time>
  <course>107.22</course>
  <speed>1.6896153408394468</speed>
  <fix>3d</fix>
</trkpt>
<trkpt lat="-27.2737825" lon="151.289954">
  <ele>355.94</ele>
  <time>2026-09-01T19:58:09Z</time>
  <course>106.07</course>
  <speed>1.69</speed>
  <fix>3d</fix>
</trkpt>
<trkpt lat="-27.2737831" lon="151.2899558">
  <ele>356.28</ele>
  <time>2026-09-01T19:58:09Z</time>
  <course>107.22</course>
  <speed>1.6992056967889437</speed>
  <fix>3d</fix>
</trkpt>
<trkpt lat="-27.2737834" lon="151.289957">
  <ele>356.46</ele>
  <time>2026-09-01T19:58:09Z</time>
  <course>107.22</course>
  <speed>1.7212204972053988</speed>
  <fix>3d</fix>
</trkpt>
<trkpt lat="-27.2737825" lon="151.289954">
  <ele>355.94</ele>
  <time>2026-09-01T19:58:09Z</time>
  <course>106.07</course>
  <speed>1.69</speed>
  <fix>3d</fix>
</trkpt>
<trkpt lat="-27.2737835" lon="151.2899575">
  <ele>356.53</ele>
  <time>2026-09-01T19:58:09Z</time>
  <course>107.22</course>
  <speed>1.7212204972053988</speed>
  <fix>3d</fix>
</trkpt>
<trkpt lat="-27.2737838" lon="151.2899587">
  <ele>356.72</ele>
  <time>2026-09-01T19:58:09Z</time>
  <course>107.23</course>
  <speed>1.7404022523543228</speed>
  <fix>3d</fix>
</trkpt>
<trkpt lat="-27.2737834" lon="151.2899574">
  <ele>356.45</ele>
  <time>2026-09-01T19:58:09Z</time>
  <course>106.11</course>
  <speed>1.74</speed>
  <fix>3d</fix>
</trkpt>
<trkpt lat="-27.2737838" lon="151.2899588">
  <ele>356.73</ele>
  <time>2026-09-01T19:58:09Z</time>
  <course>107.23</course>
  <speed>1.7404022523543228</speed>
  <fix>3d</fix>
</trkpt>
<trkpt lat="-27.2737843" lon="151.2899605">
  <ele>356.97</ele>
  <time>2026-09-01T19:58:09Z</time>
  <course>107.23</course>
  <speed>1.7624131184259835</speed>
  <fix>3d</fix>
</trkpt>
<trkpt lat="-27.2737834" lon="151.2899574">
  <ele>356.45</ele>
  <time>2026-09-01T19:58:09Z</time>
  <course>106.11</course>
  <speed>1.74</speed>
  <fix>3d</fix>
</trkpt>
<trkpt lat="-27.2737844" lon="151.2899609">
  <ele>357.03</ele>
  <time>2026-09-01T19:58:09Z</time>
  <course>107.24</course>
  <speed>1.772004514666935</speed>
  <fix>3d</fix>
</trkpt>
<trkpt lat="-27.2737847" lon="151.2899622">
  <ele>357.22</ele>
  <time>2026-09-01T19:58:09Z</time>
  <course>107.24</course>
  <speed>1.794017837146554</speed>
  <fix>3d</fix>
</trkpt>
<trkpt lat="-27.2737843" lon="151.2899608">
  <ele>356.95</ele>
  <time>2026-09-01T19:58:09Z</time>
  <course>106.13</course>
  <speed>1.79</speed>
  <fix>3d</fix>
</trkpt>
<trkpt lat="-27.2737848" lon="151.2899627">
  <ele>357.29</ele>
  <time>2026-09-01T19:58:09Z</time>
  <course>107.24</course>
  <speed>1.794017837146554</speed>
  <fix>3d</fix>
</trkpt>
<trkpt lat="-27.2737852" lon="151.289964">
  <ele>357.47</ele>
  <time>2026-09-01T19:58:09Z</time>
  <course>107.25</course>
  <speed>1.8160396471443017</speed>
  <fix>3d</fix>
</trkpt>
<trkpt lat="-27.2737843" lon="151.2899608">
  <ele>356.95</ele>
  <time>2026-09-01T19:58:09Z</time>
  <course>106.13</course>
  <speed>1.79</speed>
  <fix>3d</fix>
</trkpt>
<trkpt lat="-27.2737853" lon="151.2899645">
  <ele>357.54</ele>
  <time>2026-09-01T19:58:09Z</time>
  <course>107.25</course>
  <speed>1.8256231812726305</speed>
  <fix>3d</fix>
</trkpt>
<trkpt lat="-27.2737856" lon="151.2899658">
  <ele>357.73</ele>
  <time>2026-09-01T19:58:09Z</time>
  <course>107.25</course>
  <speed>1.8352111595127139</speed>
  <fix>3d</fix>
</trkpt>
<trkpt lat="-27.2737852" lon="151.2899643">
  <ele>357.44</ele>
  <time>2026-09-01T19:58:09Z</time>
  <course>106.13</course>
  <speed>1.84</speed>
  <fix>3d</fix>
</trkpt>
<trkpt lat="-27.2737857" lon="151.2899659">
  <ele>357.73</ele>
  <time>2026-09-01T19:58:09Z</time>
  <course>107.25</course>
  <speed>1.8352111595127139</speed>
  <fix>3d</fix>
</trkpt>
<trkpt lat="-27.2737861" lon="151.2899676">
  <ele>357.97</ele>
  <time>2026-09-01T19:58:09Z</time>
  <course>107.25</course>
  <speed>1.866815470259447</speed>
  <fix>3d</fix>
</trkpt>
<trkpt lat="-27.2737852" lon="151.2899643">
  <ele>357.44</ele>
  <time>2026-09-01T19:58:09Z</time>
  <course>106.13</course>
  <speed>1.84</speed>
  <fix>3d</fix>
</trkpt>
<trkpt lat="-27.2737861" lon="151.2899677">
  <ele>357.98</ele>
  <time>2026-09-01T19:58:09Z</time>
  <course>107.25</course>
  <speed>1.866815470259447</speed>
  <fix>3d</fix>
</trkpt>
<trkpt lat="-27.2737866" lon="151.2899695">
  <ele>358.22</ele>
  <time>2026-09-01T19:58:09Z</time>
  <course>107.26</course>
  <speed>1.8888356201639147</speed>
  <fix>3d</fix>
</trkpt>
<trkpt lat="-27.2737861" lon="151.2899679">
  <ele>357.94</ele>
  <time>2026-09-01T19:58:09Z</time>
  <course>106.14</course>
  <speed>1.89</speed>
  <fix>3d</fix>
</trkpt>
<trkpt lat="-27.2737867" lon="151.28997">
  <ele>358.29</ele>
  <time>2026-09-01T19:58:09Z</time>
  <course>107.26</course>
  <speed>1.8984203960134858</speed>
  <fix>3d</fix>
</trkpt>
<trkpt lat="-27.2737871" lon="151.2899714">
  <ele>358.47</ele>
  <time>2026-09-01T19:58:09Z</time>
  <course>107.25</course>
  <speed>1.9108636790728952</speed>
  <fix>3d</fix>
</trkpt>
<trkpt lat="-27.2737861" lon="151.2899679">
  <ele>357.94</ele>
  <time>2026-09-01T19:58:09Z</time>
  <course>106.14</course>
  <speed>1.89</speed>
  <fix>3d</fix>
</trkpt>
<trkpt lat="-27.2737872" lon="151.2899719">
  <ele>358.54</ele>
  <time>2026-09-01T19:58:09Z</time>
  <course>107.25</course>
  <speed>1.9204426573058617</speed>
  <fix>3d</fix>
</trkpt>
<trkpt lat="-27.2737876" lon="151.2899732">
  <ele>358.72</ele>
  <time>2026-09-01T19:58:09Z</time>
  <course>107.25</course>
  <speed>1.9396133635340833</speed>
  <fix>3d</fix>
</trkpt>
<trkpt lat="-27.2737871" lon="151.2899717">
  <ele>358.43</ele>
  <time>2026-09-01T19:58:09Z</time>
  <course>106.18</course>
  <speed>1.94</speed>
  <fix>3d</fix>
</trkpt>
<trkpt lat="-27.2737877" lon="151.2899738">
  <ele>358.79</ele>
  <time>2026-09-01T19:58:09Z</time>
  <course>107.25</course>
  <speed>1.9424726510301247</speed>
  <fix>3d</fix>
</trkpt>
<trkpt lat="-27.2737881" lon="151.2899752">
  <ele>358.97</ele>
  <time>2026-09-01T19:58:09Z</time>
  <course>107.24</course>
  <speed>1.9616319736382766</speed>
  <fix>3d</fix>
</trkpt>
<trkpt lat="-27.2737871" lon="151.2899717">
  <ele>358.43</ele>
  <time>2026-09-01T19:58:09Z</time>
  <course>106.18</course>
  <speed>1.94</speed>
  <fix>3d</fix>
</trkpt>
<trkpt lat="-27.2737882" lon="151.2899757">
  <ele>359.04</ele>
  <time>2026-09-01T19:58:09Z</time>
  <course>107.24</course>
  <speed>1.974082065163452</speed>
  <fix>3d</fix>
</trkpt>
<trkpt lat="-27.2737886" lon="151.2899771">
  <ele>359.22</ele>
  <time>2026-09-01T19:58:09Z</time>
  <course>107.24</course>
  <speed>1.9836582366930045</speed>
  <fix>3d</fix>
</trkpt>
<trkpt lat="-27.2737881" lon="151.2899755">
  <ele>358.92</ele>
  <time>2026-09-01T19:58:09Z</time>
  <course>106.24</course>
  <speed>1.99</speed>
  <fix>3d</fix>
</trkpt>
<trkpt lat="-27.2737887" lon="151.2899776">
  <ele>359.29</ele>
  <time>2026-09-01T19:58:09Z</time>
  <course>107.24</course>
  <speed>1.9932385707686877</speed>
  <fix>3d</fix>
</trkpt>
<trkpt lat="-27.2737891" lon="151.2899791">
  <ele>359.47</ele>
  <time>2026-09-01T19:58:09Z</time>
  <course>107.24</course>
  <speed>2.0152667317256046</speed>
  <fix>3d</fix>
</trkpt>
<trkpt lat="-27.2737881" lon="151.2899755">
  <ele>358.92</ele>
  <time>2026-09-01T19:58:09Z</time>
  <course>106.24</course>
  <speed>1.99</speed>
  <fix>3d</fix>
</trkpt>
<trkpt lat="-27.2737892" lon="151.2899796">
  <ele>359.54</ele>
  <time>2026-09-01T19:58:09Z</time>
  <course>107.24</course>
  <speed>2.0152667317256046</speed>
  <fix>3d</fix>
</trkpt>
<trkpt lat="-27.2737896" lon="151.2899811">
  <ele>359.72</ele>
  <time>2026-09-01T19:58:09Z</time>
  <course>107.24</course>
  <speed>2.0373021376320204</speed>
  <fix>3d</fix>
</trkpt>
<trkpt lat="-27.2737891" lon="151.2899794">
  <ele>359.42</ele>
  <time>2026-09-01T19:58:09Z</time>
  <course>106.29</course>
  <speed>2.04</speed>
  <fix>3d</fix>
</trkpt>
<trkpt lat="-27.2737898" lon="151.2899816">
  <ele>359.78</ele>
  <time>2026-09-01T19:58:09Z</time>
  <course>107.24</course>
  <speed>2.0468756679388225</speed>
  <fix>3d</fix>
</trkpt>
<trkpt lat="-27.2737901" lon="151.2899831">
  <ele>359.97</ele>
  <time>2026-09-01T19:58:09Z</time>
  <course>107.24</course>
  <speed>2.068912757948</speed>
  <fix>3d</fix>
</trkpt>
<trkpt lat="-27.2737891" lon="151.2899794">
  <ele>359.42</ele>
  <time>2026-09-01T19:58:09Z</time>
  <course>106.29</course>
  <speed>2.04</speed>
  <fix>3d</fix>
</trkpt>
<trkpt lat="-27.2737903" lon="151.2899837">
  <ele>360.03</ele>
  <time>2026-09-01T19:58:09Z</time>
  <course>107.24</course>
  <speed>2.068912757948</speed>
  <fix>3d</fix>
</trkpt>
<trkpt lat="-27.2737907" lon="151.2899851">
  <ele>360.21</ele>
  <time>2026-09-01T19:58:09Z</time>
  <course>107.25</course>
  <speed>2.08806130178211</speed>
  <fix>3d</fix>
</trkpt>
<trkpt lat="-27.2737901" lon="151.2899834">
  <ele>359.91</ele>
  <time>2026-09-01T19:58:09Z</time>
  <course>106.34</course>
  <speed>2.09</speed>
  <fix>3d</fix>
</trkpt>
<trkpt lat="-27.2737908" lon="151.2899857">
  <ele>360.28</ele>
  <time>2026-09-01T19:58:09Z</time>
  <course>107.25</course>
  <speed>2.100523744212381</speed>
  <fix>3d</fix>
</trkpt>
<trkpt lat="-27.2737912" lon="151.2899872">
  <ele>360.46</ele>
  <time>2026-09-01T19:58:09Z</time>
  <course>107.25</course>
  <speed>2.1196697856034086</speed>
  <fix>3d</fix>
</trkpt>
<trkpt lat="-27.2737901" lon="151.2899834">
  <ele>359.91</ele>
  <time>2026-09-01T19:58:09Z</time>
  <course>106.34</course>
  <speed>2.09</speed>
  <fix>3d</fix>
</trkpt>
<trkpt lat="-27.2737912" lon="151.2899873">
  <ele>360.47</ele>
  <time>2026-09-01T19:58:09Z</time>
  <course>107.25</course>
  <speed>2.1196697856034086</speed>
  <fix>3d</fix>
</trkpt>
<trkpt lat="-27.2737918" lon="151.2899893">
  <ele>360.71</ele>
  <time>2026-09-01T19:58:09Z</time>
  <course>107.25</course>
  <speed>2.1417049283222935</speed>
  <fix>3d</fix>
</trkpt>
<trkpt lat="-27.2737912" lon="151.2899875">
  <ele>360.4</ele>
  <time>2026-09-01T19:58:09Z</time>
  <course>106.38</course>
  <speed>2.14</speed>
  <fix>3d</fix>
</trkpt>
<trkpt lat="-27.2737918" lon="151.2899894">
  <ele>360.71</ele>
  <time>2026-09-01T19:58:09Z</time>
  <course>107.25</course>
  <speed>2.1417049283222935</speed>
  <fix>3d</fix>
</trkpt>
<trkpt lat="-27.2737923" lon="151.2899914">
  <ele>360.95</ele>
  <time>2026-09-01T19:58:09Z</time>
  <course>107.26</course>
  <speed>2.173315439599139</speed>
  <fix>3d</fix>
</trkpt>
<trkpt lat="-27.2737912" lon="151.2899875">
  <ele>360.4</ele>
  <time>2026-09-01T19:58:09Z</time>
  <course>106.38</course>
  <speed>2.14</speed>
  <fix>3d</fix>
</trkpt>
<trkpt lat="-27.2737925" lon="151.289992">
  <ele>361.02</ele>
  <time>2026-09-01T19:58:09Z</time>
  <course>107.26</course>
  <speed>2.173315439599139</speed>
  <fix>3d</fix>
</trkpt>
<trkpt lat="-27.2737929" lon="151.2899936">
  <ele>361.2</ele>
  <time>2026-09-01T19:58:09Z</time>
  <course>107.26</course>
  <speed>2.195358740616212</speed>
  <fix>3d</fix>
</trkpt>
<trkpt lat="-27.2737923" lon="151.2899917">
  <ele>360.9</ele>
  <time>2026-09-01T19:58:09Z</time>
  <course>106.42</course>
  <speed>2.19</speed>
  <fix>3d</fix>
</trkpt>
<trkpt lat="-27.273793" lon="151.2899941">
  <ele>361.26</ele>
  <time>2026-09-01T19:58:09Z</time>
  <course>107.26</course>
  <speed>2.2049263026232873</speed>
  <fix>3d</fix>
</trkpt>
<trkpt lat="-27.2737935" lon="151.2899957">
  <ele>361.44</ele>
  <time>2026-09-01T19:58:09Z</time>
  <course>107.26</course>
  <speed>2.226971037081533</speed>
  <fix>3d</fix>
</trkpt>
<trkpt lat="-27.2737923" lon="151.2899917">
  <ele>360.9</ele>
  <time>2026-09-01T19:58:09Z</time>
  <course>106.42</course>
  <speed>2.19</speed>
  <fix>3d</fix>
</trkpt>
<trkpt lat="-27.2737936" lon="151.2899963">
  <ele>361.51</ele>
  <time>2026-09-01T19:58:09Z</time>
  <course>107.26</course>
  <speed>2.226971037081533</speed>
  <fix>3d</fix>
</trkpt>
<trkpt lat="-27.273794" lon="151.2899979">
  <ele>361.69</ele>
  <time>2026-09-01T19:58:09Z</time>
  <course>107.27</course>
  <speed>2.249022009674427</speed>
  <fix>3d</fix>
</trkpt>
<trkpt lat="-27.2737934" lon="151.2899961">
  <ele>361.4</ele>
  <time>2026-09-01T19:58:09Z</time>
  <course>106.46</course>
  <speed>2.24</speed>
  <fix>3d</fix>
</trkpt>
<trkpt lat="-27.2737942" lon="151.2899985">
  <ele>361.76</ele>
  <time>2026-09-01T19:58:09Z</time>
  <course>107.27</course>
  <speed>2.2585836269662454</speed>
  <fix>3d</fix>
</trkpt>
<trkpt lat="-27.2737946" lon="151.2900001">
  <ele>361.94</ele>
  <time>2026-09-01T19:58:09Z</time>
  <course>107.27</course>
  <speed>2.2806358762415364</speed>
  <fix>3d</fix>
</trkpt>
<trkpt lat="-27.2737934" lon="151.2899961">
  <ele>361.4</ele>
  <time>2026-09-01T19:58:09Z</time>
  <course>106.46</course>
  <speed>2.24</speed>
  <fix>3d</fix>
</trkpt>
<trkpt lat="-27.2737948" lon="151.2900007">
  <ele>362.01</ele>
  <time>2026-09-01T19:58:09Z</time>
  <course>107.27</course>
  <speed>2.2901964981197573</speed>
  <fix>3d</fix>
</trkpt>
<trkpt lat="-27.2737952" lon="151.2900024">
  <ele>362.19</ele>
  <time>2026-09-01T19:58:09Z</time>
  <course>107.27</course>
  <speed>2.2997608571327586</speed>
  <fix>3d</fix>
</trkpt>
<trkpt lat="-27.2737946" lon="151.2900005">
  <ele>361.89</ele>
  <time>2026-09-01T19:58:09Z</time>
  <course>106.51</course>
  <speed>2.3</speed>
  <fix>3d</fix>
</trkpt>
<trkpt lat="-27.2737954" lon="151.290003">
  <ele>362.25</ele>
  <time>2026-09-01T19:58:09Z</time>
  <course>107.27</course>
  <speed>2.3122499864850257</speed>
  <fix>3d</fix>
</trkpt>
<trkpt lat="-27.2737958" lon="151.2900047">
  <ele>362.44</ele>
  <time>2026-09-01T19:58:09Z</time>
  <course>107.27</course>
  <speed>2.3313729860320507</speed>
  <fix>3d</fix>
</trkpt>
<trkpt lat="-27.2737946" lon="151.2900005">
  <ele>361.89</ele>
  <time>2026-09-01T19:58:09Z</time>
  <course>106.51</course>
  <speed>2.3</speed>
  <fix>3d</fix>
</trkpt>
<trkpt lat="-27.2737961" lon="151.2900057">
  <ele>362.55</ele>
  <time>2026-09-01T19:58:09Z</time>
  <course>107.27</course>
  <speed>2.3438643305447524</speed>
  <fix>3d</fix>
</trkpt>
<trkpt lat="-27.2737964" lon="151.290007">
  <ele>362.69</ele>
  <time>2026-09-01T19:58:09Z</time>
  <course>107.26</course>
  <speed>2.3629853998702575</speed>
  <fix>3d</fix>
</trkpt>
<trkpt lat="-27.2737958" lon="151.290005">
  <ele>362.39</ele>
  <time>2026-09-01T19:58:09Z</time>
  <course>106.55</course>
  <speed>2.36</speed>
  <fix>3d</fix>
</trkpt>
<trkpt lat="-27.2737967" lon="151.290008">
  <ele>362.8</ele>
  <time>2026-09-01T19:58:09Z</time>
  <course>107.26</course>
  <speed>2.375478899085403</speed>
  <fix>3d</fix>
</trkpt>
<trkpt lat="-27.2737971" lon="151.2900093">
  <ele>362.94</ele>
  <time>2026-09-01T19:58:09Z</time>
  <course>107.26</course>
  <speed>2.39459808736247</speed>
  <fix>3d</fix>
</trkpt>
<trkpt lat="-27.2737958" lon="151.290005">
  <ele>362.39</ele>
  <time>2026-09-01T19:58:09Z</time>
  <course>106.55</course>
  <speed>2.36</speed>
  <fix>3d</fix>
</trkpt>
<trkpt lat="-27.2737971" lon="151.2900094">
  <ele>362.95</ele>
  <time>2026-09-01T19:58:09Z</time>
  <course>107.26</course>
  <speed>2.39459808736247</speed>
  <fix>3d</fix>
</trkpt>
<trkpt lat="-27.2737977" lon="151.2900117">
  <ele>363.19</ele>
  <time>2026-09-01T19:58:09Z</time>
  <course>107.26</course>
  <speed>2.416650574659067</speed>
  <fix>3d</fix>
</trkpt>
<trkpt lat="-27.273797" lon="151.2900096">
  <ele>362.89</ele>
  <time>2026-09-01T19:58:09Z</time>
  <course>106.59</course>
  <speed>2.41</speed>
  <fix>3d</fix>
</trkpt>
<trkpt lat="-27.2737977" lon="151.2900118">
  <ele>363.2</ele>
  <time>2026-09-01T19:58:09Z</time>
  <course>107.26</course>
  <speed>2.426211037811839</speed>
  <fix>3d</fix>
</trkpt>
<trkpt lat="-27.2737983" lon="151.2900141">
  <ele>363.44</ele>
  <time>2026-09-01T19:58:09Z</time>
  <course>107.27</course>
  <speed>2.44826469157238</speed>
  <fix>3d</fix>
</trkpt>
<trkpt lat="-27.273797" lon="151.2900096">
  <ele>362.89</ele>
  <time>2026-09-01T19:58:09Z</time>
  <course>106.59</course>
  <speed>2.41</speed>
  <fix>3d</fix>
</trkpt>
<trkpt lat="-27.2737984" lon="151.2900142">
  <ele>363.45</ele>
  <time>2026-09-01T19:58:09Z</time>
  <course>107.27</course>
  <speed>2.44826469157238</speed>
  <fix>3d</fix>
</trkpt>
<trkpt lat="-27.273799" lon="151.2900165">
  <ele>363.69</ele>
  <time>2026-09-01T19:58:09Z</time>
  <course>107.27</course>
  <speed>2.47987902930768</speed>
  <fix>3d</fix>
</trkpt>
<trkpt lat="-27.2737983" lon="151.2900144">
  <ele>363.39</ele>
  <time>2026-09-01T19:58:09Z</time>
  <course>106.63</course>
  <speed>2.47</speed>
  <fix>3d</fix>
</trkpt>
<trkpt lat="-27.2737992" lon="151.2900172">
  <ele>363.76</ele>
  <time>2026-09-01T19:58:09Z</time>
  <course>107.27</course>
  <speed>2.4894376875109767</speed>
  <fix>3d</fix>
</trkpt>
<trkpt lat="-27.2737996" lon="151.2900189">
  <ele>363.94</ele>
  <time>2026-09-01T19:58:09Z</time>
  <course>107.28</course>
  <speed>2.5114935795259363</speed>
  <fix>3d</fix>
</trkpt>
<trkpt lat="-27.2737983" lon="151.2900144">
  <ele>363.39</ele>
  <time>2026-09-01T19:58:09Z</time>
  <course>106.63</course>
  <speed>2.47</speed>
  <fix>3d</fix>
</trkpt>
<trkpt lat="-27.2737998" lon="151.2900196">
  <ele>364.01</ele>
  <time>2026-09-01T19:58:09Z</time>
  <course>107.28</course>
  <speed>2.5210513679812236</speed>
  <fix>3d</fix>
</trkpt>
<trkpt lat="-27.2738003" lon="151.2900214">
  <ele>364.19</ele>
  <time>2026-09-01T19:58:09Z</time>
  <course>107.28</course>
  <speed>2.5431083343027288</speed>
  <fix>3d</fix>
</trkpt>
<trkpt lat="-27.2737995" lon="151.2900192">
  <ele>363.89</ele>
  <time>2026-09-01T19:58:09Z</time>
  <course>106.67</course>
  <speed>2.53</speed>
  <fix>3d</fix>
</trkpt>
<trkpt lat="-27.2738005" lon="151.2900221">
  <ele>364.26</ele>
  <time>2026-09-01T19:58:09Z</time>
  <course>107.28</course>
  <speed>2.55266527378738</speed>
  <fix>3d</fix>
</trkpt>
<trkpt lat="-27.273801" lon="151.2900239">
  <ele>364.45</ele>
  <time>2026-09-01T19:58:09Z</time>
  <course>107.27</course>
  <speed>2.5747232861027998</speed>
  <fix>3d</fix>
</trkpt>
<trkpt lat="-27.2737995" lon="151.2900192">
  <ele>363.89</ele>
  <time>2026-09-01T19:58:09Z</time>
  <course>106.67</course>
  <speed>2.53</speed>
  <fix>3d</fix>
</trkpt>
<trkpt lat="-27.2738012" lon="151.2900246">
  <ele>364.51</ele>
  <time>2026-09-01T19:58:09Z</time>
  <course>107.27</course>
  <speed>2.5842793966597344</speed>
  <fix>3d</fix>
</trkpt>
<trkpt lat="-27.2738017" lon="151.2900265">
  <ele>364.7</ele>
  <time>2026-09-01T19:58:09Z</time>
  <course>107.26</course>
  <speed>2.606338427756457</speed>
  <fix>3d</fix>
</trkpt>
<trkpt lat="-27.2738009" lon="151.2900242">
  <ele>364.39</ele>
  <time>2026-09-01T19:58:09Z</time>
  <course>106.71</course>
  <speed>2.6</speed>
  <fix>3d</fix>
</trkpt>
<trkpt lat="-27.2738018" lon="151.2900272">
  <ele>364.76</ele>
  <time>2026-09-01T19:58:09Z</time>
  <course>107.26</course>
  <speed>2.615893728728291</speed>
  <fix>3d</fix>
</trkpt>
<trkpt lat="-27.2738023" lon="151.2900291">
  <ele>364.95</ele>
  <time>2026-09-01T19:58:09Z</time>
  <course>107.26</course>
  <speed>2.637953752437673</speed>
  <fix>3d</fix>
</trkpt>
<trkpt lat="-27.2738009" lon="151.2900242">
  <ele>364.39</ele>
  <time>2026-09-01T19:58:09Z</time>
  <course>106.71</course>
  <speed>2.6</speed>
  <fix>3d</fix>
</trkpt>
<trkpt lat="-27.2738025" lon="151.2900298">
  <ele>365.01</ele>
  <time>2026-09-01T19:58:09Z</time>
  <course>107.26</course>
  <speed>2.647508262498911</speed>
  <fix>3d</fix>
</trkpt>
<trkpt lat="-27.273803" lon="151.2900317">
  <ele>365.2</ele>
  <time>2026-09-01T19:58:09Z</time>
  <course>107.26</course>
  <speed>2.669569253643741</speed>
  <fix>3d</fix>
</trkpt>
<trkpt lat="-27.2738023" lon="151.2900293">
  <ele>364.89</ele>
  <time>2026-09-01T19:58:09Z</time>
  <course>106.73</course>
  <speed>2.66</speed>
  <fix>3d</fix>
</trkpt>
<trkpt lat="-27.2738032" lon="151.2900324">
  <ele>365.26</ele>
  <time>2026-09-01T19:58:09Z</time>
  <course>107.26</course>
  <speed>2.679122990831141</speed>
  <fix>3d</fix>
</trkpt>
<trkpt lat="-27.2738037" lon="151.2900343">
  <ele>365.45</ele>
  <time>2026-09-01T19:58:09Z</time>
  <course>107.27</course>
  <speed>2.701184925176357</speed>
  <fix>3d</fix>
</trkpt>
<trkpt lat="-27.2738023" lon="151.2900293">
  <ele>364.89</ele>
  <time>2026-09-01T19:58:09Z</time>
  <course>106.73</course>
  <speed>2.66</speed>
  <fix>3d</fix>
</trkpt>
<trkpt lat="-27.2738039" lon="151.290035">
  <ele>365.51</ele>
  <time>2026-09-01T19:58:09Z</time>
  <course>107.27</course>
  <speed>2.710737906917598</speed>
  <fix>3d</fix>
</trkpt>
<trkpt lat="-27.2738045" lon="151.290037">
  <ele>365.69</ele>
  <time>2026-09-01T19:58:09Z</time>
  <course>107.27</course>
  <speed>2.7423530042647686</speed>
  <fix>3d</fix>
</trkpt>
<trkpt lat="-27.2738037" lon="151.2900345">
  <ele>365.38</ele>
  <time>2026-09-01T19:58:09Z</time>
  <course>106.75</course>
  <speed>2.72</speed>
  <fix>3d</fix>
</trkpt>
<trkpt lat="-27.2738045" lon="151.290037">
  <ele>365.7</ele>
  <time>2026-09-01T19:58:09Z</time>
  <course>107.27</course>
  <speed>2.7423530042647686</speed>
  <fix>3d</fix>
</trkpt>
<trkpt lat="-27.2738052" lon="151.2900397">
  <ele>365.94</ele>
  <time>2026-09-01T19:58:09Z</time>
  <course>107.27</course>
  <speed>2.7739682766751317</speed>
  <fix>3d</fix>
</trkpt>
<trkpt lat="-27.2738037" lon="151.2900345">
  <ele>365.38</ele>
  <time>2026-09-01T19:58:09Z</time>
  <course>106.75</course>
  <speed>2.72</speed>
  <fix>3d</fix>
</trkpt>
<trkpt lat="-27.2738052" lon="151.2900397">
  <ele>365.95</ele>
  <time>2026-09-01T19:58:09Z</time>
  <course>107.27</course>
  <speed>2.7739682766751317</speed>
  <fix>3d</fix>
</trkpt>
<trkpt lat="-27.2738059" lon="151.2900424">
  <ele>366.19</ele>
  <time>2026-09-01T19:58:09Z</time>
  <course>107.28</course>
  <speed>2.805583718230486</speed>
  <fix>3d</fix>
</trkpt>
<trkpt lat="-27.2738051" lon="151.2900399">
  <ele>365.88</ele>
  <time>2026-09-01T19:58:09Z</time>
  <course>106.76</course>
  <speed>2.79</speed>
  <fix>3d</fix>
</trkpt>
<trkpt lat="-27.2738061" lon="151.2900431">
  <ele>366.26</ele>
  <time>2026-09-01T19:58:09Z</time>
  <course>107.28</course>
  <speed>2.8151376520518494</speed>
  <fix>3d</fix>
</trkpt>
<trkpt lat="-27.2738067" lon="151.2900452">
  <ele>366.44</ele>
  <time>2026-09-01T19:58:09Z</time>
  <course>107.28</course>
  <speed>2.837199323276389</speed>
  <fix>3d</fix>
</trkpt>
<trkpt lat="-27.2738051" lon="151.2900399">
  <ele>365.88</ele>
  <time>2026-09-01T19:58:09Z</time>
  <course>106.76</course>
  <speed>2.79</speed>
  <fix>3d</fix>
</trkpt>
<trkpt lat="-27.2738069" lon="151.2900459">
  <ele>366.51</ele>
  <time>2026-09-01T19:58:09Z</time>
  <course>107.28</course>
  <speed>2.8467525357852934</speed>
  <fix>3d</fix>
</trkpt>
<trkpt lat="-27.2738074" lon="151.290048">
  <ele>366.69</ele>
  <time>2026-09-01T19:58:09Z</time>
  <course>107.28</course>
  <speed>2.8783675929248513</speed>
  <fix>3d</fix>
</trkpt>
<trkpt lat="-27.2738065" lon="151.2900453">
  <ele>366.38</ele>
  <time>2026-09-01T19:58:09Z</time>
  <course>106.77</course>
  <speed>2.86</speed>
  <fix>3d</fix>
</trkpt>
<trkpt lat="-27.2738076" lon="151.2900487">
  <ele>366.76</ele>
  <time>2026-09-01T19:58:09Z</time>
  <course>107.28</course>
  <speed>2.890882218285622</speed>
  <fix>3d</fix>
</trkpt>
<trkpt lat="-27.2738082" lon="151.2900508">
  <ele>366.94</ele>
  <time>2026-09-01T19:58:09Z</time>
  <course>107.27</course>
  <speed>2.9099828178186895</speed>
  <fix>3d</fix>
</trkpt>
<trkpt lat="-27.2738065" lon="151.2900453">
  <ele>366.38</ele>
  <time>2026-09-01T19:58:09Z</time>
  <course>106.77</course>
  <speed>2.86</speed>
  <fix>3d</fix>
</trkpt>
<trkpt lat="-27.2738084" lon="151.2900515">
  <ele>367.01</ele>
  <time>2026-09-01T19:58:09Z</time>
  <course>107.27</course>
  <speed>2.922498930709813</speed>
  <fix>3d</fix>
</trkpt>
<trkpt lat="-27.273809" lon="151.2900536">
  <ele>367.2</ele>
  <time>2026-09-01T19:58:09Z</time>
  <course>107.27</course>
  <speed>2.9511523173160685</speed>
  <fix>3d</fix>
</trkpt>
<trkpt lat="-27.273808" lon="151.2900509">
  <ele>366.88</ele>
  <time>2026-09-01T19:58:09Z</time>
  <course>106.79</course>
  <speed>2.93</speed>
  <fix>3d</fix>
</trkpt>
<trkpt lat="-27.2738092" lon="151.2900544">
  <ele>367.26</ele>
  <time>2026-09-01T19:58:09Z</time>
  <course>107.27</course>
  <speed>2.9636632737205484</speed>
  <fix>3d</fix>
</trkpt>
<trkpt lat="-27.2738097" lon="151.2900565">
  <ele>367.45</ele>
  <time>2026-09-01T19:58:09Z</time>
  <course>107.27</course>
  <speed>2.982767171604247</speed>
  <fix>3d</fix>
</trkpt>
<trkpt lat="-27.273808" lon="151.2900509">
  <ele>366.88</ele>
  <time>2026-09-01T19:58:09Z</time>
  <course>106.79</course>
  <speed>2.93</speed>
  <fix>3d</fix>
</trkpt>
<trkpt lat="-27.2738098" lon="151.2900566">
  <ele>367.46</ele>
  <time>2026-09-01T19:58:09Z</time>
  <course>107.27</course>
  <speed>2.98573274088623</speed>
  <fix>3d</fix>
</trkpt>
<trkpt lat="-27.2738105" lon="151.2900595">
  <ele>367.7</ele>
  <time>2026-09-01T19:58:09Z</time>
  <course>107.27</course>
  <speed>3.026896099967754</speed>
  <fix>3d</fix>
</trkpt>
<trkpt lat="-27.2738096" lon="151.2900566">
  <ele>367.37</ele>
  <time>2026-09-01T19:58:09Z</time>
  <course>106.81</course>
  <speed>3.01</speed>
  <fix>3d</fix>
</trkpt>
<trkpt lat="-27.2738107" lon="151.2900602">
  <ele>367.76</ele>
  <time>2026-09-01T19:58:09Z</time>
  <course>107.27</course>
  <speed>3.036445290137795</speed>
  <fix>3d</fix>
</trkpt>
<trkpt lat="-27.2738113" lon="151.2900624">
  <ele>367.95</ele>
  <time>2026-09-01T19:58:09Z</time>
  <course>107.27</course>
  <speed>3.058512710452582</speed>
  <fix>3d</fix>
</trkpt>
<trkpt lat="-27.2738096" lon="151.2900566">
  <ele>367.37</ele>
  <time>2026-09-01T19:58:09Z</time>
  <course>106.81</course>
  <speed>3.01</speed>
  <fix>3d</fix>
</trkpt>
<trkpt lat="-27.2738115" lon="151.2900632">
  <ele>368.01</ele>
  <time>2026-09-01T19:58:09Z</time>
  <course>107.27</course>
  <speed>3.0680612770934026</speed>
  <fix>3d</fix>
</trkpt>
<trkpt lat="-27.2738121" lon="151.2900654">
  <ele>368.2</ele>
  <time>2026-09-01T19:58:09Z</time>
  <course>107.27</course>
  <speed>3.0996774025694998</speed>
  <fix>3d</fix>
</trkpt>
<trkpt lat="-27.2738112" lon="151.2900626">
  <ele>367.87</ele>
  <time>2026-09-01T19:58:09Z</time>
  <course>106.83</course>
  <speed>3.08</speed>
  <fix>3d</fix>
</trkpt>
<trkpt lat="-27.2738123" lon="151.2900662">
  <ele>368.26</ele>
  <time>2026-09-01T19:58:09Z</time>
  <course>107.27</course>
  <speed>3.109228200052225</speed>
  <fix>3d</fix>
</trkpt>
<trkpt lat="-27.2738129" lon="151.2900685">
  <ele>368.45</ele>
  <time>2026-09-01T19:58:09Z</time>
  <course>107.26</course>
  <speed>3.1408438356594552</speed>
  <fix>3d</fix>
</trkpt>
<trkpt lat="-27.2738112" lon="151.2900626">
  <ele>367.87</ele>
  <time>2026-09-01T19:58:09Z</time>
  <course>106.83</course>
  <speed>3.08</speed>
  <fix>3d</fix>
</trkpt>
<trkpt lat="-27.273813" lon="151.2900686">
  <ele>368.46</ele>
  <time>2026-09-01T19:58:09Z</time>
  <course>107.26</course>
  <speed>3.1408438356594552</speed>
  <fix>3d</fix>
</trkpt>
<trkpt lat="-27.2738138" lon="151.2900716">
  <ele>368.7</ele>
  <time>2026-09-01T19:58:09Z</time>
  <course>107.26</course>
  <speed>3.172459613612126</speed>
  <fix>3d</fix>
</trkpt>
<trkpt lat="-27.2738128" lon="151.2900686">
  <ele>368.36</ele>
  <time>2026-09-01T19:58:09Z</time>
  <course>106.86</course>
  <speed>3.16</speed>
  <fix>3d</fix>
</trkpt>
<trkpt lat="-27.2738138" lon="151.2900717">
  <ele>368.71</ele>
  <time>2026-09-01T19:58:09Z</time>
  <course>107.26</course>
  <speed>3.182011942152323</speed>
  <fix>3d</fix>
</trkpt>
<trkpt lat="-27.2738146" lon="151.2900747">
  <ele>368.95</ele>
  <time>2026-09-01T19:58:09Z</time>
  <course>107.26</course>
  <speed>3.2165975812961123</speed>
  <fix>3d</fix>
</trkpt>
<trkpt lat="-27.2738128" lon="151.2900686">
  <ele>368.36</ele>
  <time>2026-09-01T19:58:09Z</time>
  <course>106.86</course>
  <speed>3.16</speed>
  <fix>3d</fix>
</trkpt>
<trkpt lat="-27.2738149" lon="151.2900755">
  <ele>369.02</ele>
  <time>2026-09-01T19:58:09Z</time>
  <course>107.26</course>
  <speed>3.226143208228674</speed>
  <fix>3d</fix>
</trkpt>
<trkpt lat="-27.2738155" lon="151.2900778">
  <ele>369.2</ele>
  <time>2026-09-01T19:58:09Z</time>
  <course>107.26</course>
  <speed>3.257759966602819</speed>
  <fix>3d</fix>
</trkpt>
<trkpt lat="-27.2738145" lon="151.2900748">
  <ele>368.86</ele>
  <time>2026-09-01T19:58:09Z</time>
  <course>106.88</course>
  <speed>3.24</speed>
  <fix>3d</fix>
</trkpt>
<trkpt lat="-27.2738157" lon="151.2900787">
  <ele>369.26</ele>
  <time>2026-09-01T19:58:09Z</time>
  <course>107.26</course>
  <speed>3.2673077602209433</speed>
  <fix>3d</fix>
</trkpt>
<trkpt lat="-27.2738163" lon="151.290081">
  <ele>369.45</ele>
  <time>2026-09-01T19:58:09Z</time>
  <course>107.26</course>
  <speed>3.29892406702549</speed>
  <fix>3d</fix>
</trkpt>
<trkpt lat="-27.2738145" lon="151.2900748">
  <ele>368.86</ele>
  <time>2026-09-01T19:58:09Z</time>
  <course>106.88</course>
  <speed>3.24</speed>
  <fix>3d</fix>
</trkpt>
<trkpt lat="-27.2738165" lon="151.2900818">
  <ele>369.51</ele>
  <time>2026-09-01T19:58:09Z</time>
  <course>107.26</course>
  <speed>3.3084739684634066</speed>
  <fix>3d</fix>
</trkpt>
<trkpt lat="-27.2738172" lon="151.2900842">
  <ele>369.69</ele>
  <time>2026-09-01T19:58:09Z</time>
  <course>107.26</course>
  <speed>3.340089819151575</speed>
  <fix>3d</fix>
</trkpt>
<trkpt lat="-27.2738162" lon="151.2900811">
  <ele>369.35</ele>
  <time>2026-09-01T19:58:09Z</time>
  <course>106.91</course>
  <speed>3.32</speed>
  <fix>3d</fix>
</trkpt>
<trkpt lat="-27.2738175" lon="151.2900851">
  <ele>369.76</ele>
  <time>2026-09-01T19:58:09Z</time>
  <course>107.26</course>
  <speed>3.352610922848042</speed>
  <fix>3d</fix>
</trkpt>
<trkpt lat="-27.2738181" lon="151.2900875">
  <ele>369.95</ele>
  <time>2026-09-01T19:58:09Z</time>
  <course>107.25</course>
  <speed>3.3842281246984514</speed>
  <fix>3d</fix>
</trkpt>
<trkpt lat="-27.2738162" lon="151.2900811">
  <ele>369.35</ele>
  <time>2026-09-01T19:58:09Z</time>
  <course>106.91</course>
  <speed>3.32</speed>
  <fix>3d</fix>
</trkpt>
<trkpt lat="-27.2738183" lon="151.2900884">
  <ele>370.01</ele>
  <time>2026-09-01T19:58:09Z</time>
  <course>107.25</course>
  <speed>3.3937737107827326</speed>
  <fix>3d</fix>
</trkpt>
<trkpt lat="-27.273819" lon="151.2900908">
  <ele>370.19</ele>
  <time>2026-09-01T19:58:09Z</time>
  <course>107.25</course>
  <speed>3.425390488688844</speed>
  <fix>3d</fix>
</trkpt>
<trkpt lat="-27.273818" lon="151.2900876">
  <ele>369.84</ele>
  <time>2026-09-01T19:58:09Z</time>
  <course>106.94</course>
  <speed>3.41</speed>
  <fix>3d</fix>
</trkpt>
<trkpt lat="-27.2738192" lon="151.2900917">
  <ele>370.26</ele>
  <time>2026-09-01T19:58:09Z</time>
  <course>107.25</course>
  <speed>3.4349381362697056</speed>
  <fix>3d</fix>
</trkpt>
<trkpt lat="-27.2738199" lon="151.2900942">
  <ele>370.44</ele>
  <time>2026-09-01T19:58:09Z</time>
  <course>107.25</course>
  <speed>3.466554485364394</speed>
  <fix>3d</fix>
</trkpt>
<trkpt lat="-27.273818" lon="151.2900876">
  <ele>369.84</ele>
  <time>2026-09-01T19:58:09Z</time>
  <course>106.94</course>
  <speed>3.41</speed>
  <fix>3d</fix>
</trkpt>
<trkpt lat="-27.2738201" lon="151.2900951">
  <ele>370.51</ele>
  <time>2026-09-01T19:58:09Z</time>
  <course>107.25</course>
  <speed>3.4790803382503253</speed>
  <fix>3d</fix>
</trkpt>
<trkpt lat="-27.2738208" lon="151.2900975">
  <ele>370.69</ele>
  <time>2026-09-01T19:58:09Z</time>
  <course>107.25</course>
  <speed>3.5106979363083917</speed>
  <fix>3d</fix>
</trkpt>
<trkpt lat="-27.2738198" lon="151.2900943">
  <ele>370.34</ele>
  <time>2026-09-01T19:58:09Z</time>
  <course>106.97</course>
  <speed>3.5</speed>
  <fix>3d</fix>
</trkpt>
<trkpt lat="-27.2738211" lon="151.2900985">
  <ele>370.76</ele>
  <time>2026-09-01T19:58:09Z</time>
  <course>107.25</course>
  <speed>3.529787529016442</speed>
  <fix>3d</fix>
</trkpt>
<trkpt lat="-27.2738218" lon="151.290101">
  <ele>370.94</ele>
  <time>2026-09-01T19:58:09Z</time>
  <course>107.25</course>
  <speed>3.5614042174400815</speed>
  <fix>3d</fix>
</trkpt>
<trkpt lat="-27.2738198" lon="151.2900943">
  <ele>370.34</ele>
  <time>2026-09-01T19:58:09Z</time>
  <course>106.97</course>
  <speed>3.5</speed>
  <fix>3d</fix>
</trkpt>
<trkpt lat="-27.2738218" lon="151.2901011">
  <ele>370.95</ele>
  <time>2026-09-01T19:58:09Z</time>
  <course>107.25</course>
  <speed>3.5614042174400815</speed>
  <fix>3d</fix>
</trkpt>
<trkpt lat="-27.2738227" lon="151.2901044">
  <ele>371.19</ele>
  <time>2026-09-01T19:58:09Z</time>
  <course>107.25</course>
  <speed>3.605551275463989</speed>
  <fix>3d</fix>
</trkpt>
<trkpt lat="-27.2738216" lon="151.2901012">
  <ele>370.83</ele>
  <time>2026-09-01T19:58:09Z</time>
  <course>107.0</course>
  <speed>3.59</speed>
  <fix>3d</fix>
</trkpt>
<trkpt lat="-27.2738227" lon="151.2901045">
  <ele>371.2</ele>
  <time>2026-09-01T19:58:09Z</time>
  <course>107.25</course>
  <speed>3.605551275463989</speed>
  <fix>3d</fix>
</trkpt>
<trkpt lat="-27.2738237" lon="151.290108">
  <ele>371.44</ele>
  <time>2026-09-01T19:58:09Z</time>
  <course>107.25</course>
  <speed>3.6562549145266114</speed>
  <fix>3d</fix>
</trkpt>
<trkpt lat="-27.2738216" lon="151.2901012">
  <ele>370.83</ele>
  <time>2026-09-01T19:58:09Z</time>
  <course>107.0</course>
  <speed>3.59</speed>
  <fix>3d</fix>
</trkpt>
<trkpt lat="-27.2738237" lon="151.2901082">
  <ele>371.46</ele>
  <time>2026-09-01T19:58:09Z</time>
  <course>107.25</course>
  <speed>3.6562549145266114</speed>
  <fix>3d</fix>
</trkpt>
<trkpt lat="-27.2738246" lon="151.2901115">
  <ele>371.69</ele>
  <time>2026-09-01T19:58:09Z</time>
  <course>107.25</course>
  <speed>3.7004053831979</speed>
  <fix>3d</fix>
</trkpt>
<trkpt lat="-27.2738236" lon="151.2901082">
  <ele>371.32</ele>
  <time>2026-09-01T19:58:09Z</time>
  <course>107.04</course>
  <speed>3.68</speed>
  <fix>3d</fix>
</trkpt>
<trkpt lat="-27.2738249" lon="151.2901125">
  <ele>371.76</ele>
  <time>2026-09-01T19:58:09Z</time>
  <course>107.25</course>
  <speed>3.7099460912525397</speed>
  <fix>3d</fix>
</trkpt>
<trkpt lat="-27.2738256" lon="151.2901152">
  <ele>371.94</ele>
  <time>2026-09-01T19:58:09Z</time>
  <course>107.24</course>
  <speed>3.7511065034200244</speed>
  <fix>3d</fix>
</trkpt>
<trkpt lat="-27.2738236" lon="151.2901082">
  <ele>371.32</ele>
  <time>2026-09-01T19:58:09Z</time>
  <course>107.04</course>
  <speed>3.68</speed>
  <fix>3d</fix>
</trkpt>
<trkpt lat="-27.2738259" lon="151.2901161">
  <ele>372.0</ele>
  <time>2026-09-01T19:58:09Z</time>
  <course>107.24</course>
  <speed>3.7636418533117624</speed>
  <fix>3d</fix>
</trkpt>
<trkpt lat="-27.2738266" lon="151.2901188">
  <ele>372.19</ele>
  <time>2026-09-01T19:58:09Z</time>
  <course>107.24</course>
  <speed>3.8047996005046048</speed>
  <fix>3d</fix>
</trkpt>
<trkpt lat="-27.2738256" lon="151.2901155">
  <ele>371.82</ele>
  <time>2026-09-01T19:58:09Z</time>
  <course>107.07</course>
  <speed>3.78</speed>
  <fix>3d</fix>
</trkpt>
<trkpt lat="-27.2738269" lon="151.2901197">
  <ele>372.24</ele>
  <time>2026-09-01T19:58:09Z</time>
  <course>107.24</course>
  <speed>3.814341358609635</speed>
  <fix>3d</fix>
</trkpt>
<trkpt lat="-27.2738276" lon="151.2901226">
  <ele>372.43</ele>
  <time>2026-09-01T19:58:09Z</time>
  <course>107.24</course>
  <speed>3.8459589181373217</speed>
  <fix>3d</fix>
</trkpt>
<trkpt lat="-27.2738256" lon="151.2901155">
  <ele>371.82</ele>
  <time>2026-09-01T19:58:09Z</time>
  <course>107.07</course>
  <speed>3.78</speed>
  <fix>3d</fix>
</trkpt>
<trkpt lat="-27.2738279" lon="151.2901236">
  <ele>372.5</ele>
  <time>2026-09-01T19:58:09Z</time>
  <course>107.24</course>
  <speed>3.8680356771880997</speed>
  <fix>3d</fix>
</trkpt>
<trkpt lat="-27.2738287" lon="151.2901263">
  <ele>372.68</ele>
  <time>2026-09-01T19:58:09Z</time>
  <course>107.24</course>
  <speed>3.899653830790625</speed>
  <fix>3d</fix>
</trkpt>
<trkpt lat="-27.2738276" lon="151.2901229">
  <ele>372.31</ele>
  <time>2026-09-01T19:58:09Z</time>
  <course>107.11</course>
  <speed>3.88</speed>
  <fix>3d</fix>
</trkpt>
<trkpt lat="-27.273829" lon="151.2901273">
  <ele>372.75</ele>
  <time>2026-09-01T19:58:09Z</time>
  <course>107.24</course>
  <speed>3.9187370414458784</speed>
  <fix>3d</fix>
</trkpt>
<trkpt lat="-27.2738297" lon="151.2901301">
  <ele>372.93</ele>
  <time>2026-09-01T19:58:09Z</time>
  <course>107.24</course>
  <speed>3.953353007258522</speed>
  <fix>3d</fix>
</trkpt>
<trkpt lat="-27.2738276" lon="151.2901229">
  <ele>372.31</ele>
  <time>2026-09-01T19:58:09Z</time>
  <course>107.11</course>
  <speed>3.88</speed>
  <fix>3d</fix>
</trkpt>
<trkpt lat="-27.27383" lon="151.2901311">
  <ele>372.99</ele>
  <time>2026-09-01T19:58:09Z</time>
  <course>107.23</course>
  <speed>3.9724299867964947</speed>
  <fix>3d</fix>
</trkpt>
<trkpt lat="-27.2738308" lon="151.290134">
  <ele>373.17</ele>
  <time>2026-09-01T19:58:09Z</time>
  <course>107.24</course>
  <speed>4.004047951760818</speed>
  <fix>3d</fix>
</trkpt>
<trkpt lat="-27.2738296" lon="151.2901305">
  <ele>372.8</ele>
  <time>2026-09-01T19:58:09Z</time>
  <course>107.14</course>
  <speed>3.99</speed>
  <fix>3d</fix>
</trkpt>
<trkpt lat="-27.2738311" lon="151.290135">
  <ele>373.24</ele>
  <time>2026-09-01T19:58:09Z</time>
  <course>107.23</course>
  <speed>4.0261271713645606</speed>
  <fix>3d</fix>
</trkpt>
<trkpt lat="-27.2738319" lon="151.2901379">
  <ele>373.42</ele>
  <time>2026-09-01T19:58:09Z</time>
  <course>107.23</course>
  <speed>4.06728410613274</speed>
  <fix>3d</fix>
</trkpt>
<trkpt lat="-27.2738296" lon="151.2901305">
  <ele>372.8</ele>
  <time>2026-09-01T19:58:09Z</time>
  <course>107.14</course>
  <speed>3.99</speed>
  <fix>3d</fix>
</trkpt>
<trkpt lat="-27.273833" lon="151.2901419">
  <ele>373.66</ele>
  <time>2026-09-01T19:58:09Z</time>
  <course>107.23</course>
  <speed>4.12098289246631</speed>
  <fix>3d</fix>
</trkpt>
<trkpt lat="-27.2738317" lon="151.2901383">
  <ele>373.29</ele>
  <time>2026-09-01T19:58:09Z</time>
  <course>107.18</course>
  <speed>4.1</speed>
  <fix>3d</fix>
</trkpt>
<trkpt lat="-27.2738341" lon="151.290146">
  <ele>373.91</ele>
  <time>2026-09-01T19:58:09Z</time>
  <course>107.22</course>
  <speed>4.1716783193338385</speed>
  <fix>3d</fix>
</trkpt>
<trkpt lat="-27.2738317" lon="151.2901383">
  <ele>373.29</ele>
  <time>2026-09-01T19:58:09Z</time>
  <course>107.18</course>
  <speed>4.1</speed>
  <fix>3d</fix>
</trkpt>
<trkpt lat="-27.2738352" lon="151.29015">
  <ele>374.15</ele>
  <time>2026-09-01T19:58:09Z</time>
  <course>107.21</course>
  <speed>4.234914402913003</speed>
  <fix>3d</fix>
</trkpt>
<trkpt lat="-27.273834" lon="151.2901463">
  <ele>373.78</ele>
  <time>2026-09-01T19:58:09Z</time>
  <course>107.22</course>
  <speed>4.21</speed>
  <fix>3d</fix>
</trkpt>
<trkpt lat="-27.2738363" lon="151.2901542">
  <ele>374.38</ele>
  <time>2026-09-01T19:58:09Z</time>
  <course>107.21</course>
  <speed>4.288612829342373</speed>
  <fix>3d</fix>
</trkpt>
<trkpt lat="-27.273834" lon="151.2901463">
  <ele>373.78</ele>
  <time>2026-09-01T19:58:09Z</time>
  <course>107.22</course>
  <speed>4.21</speed>
  <fix>3d</fix>
</trkpt>
<trkpt lat="-27.2738375" lon="151.2901584">
  <ele>374.6</ele>
  <time>2026-09-01T19:58:09Z</time>
  <course>107.21</course>
  <speed>4.342315050753458</speed>
  <fix>3d</fix>
</trkpt>
<trkpt lat="-27.2738362" lon="151.2901546">
  <ele>374.25</ele>
  <time>2026-09-01T19:58:09Z</time>
  <course>107.26</course>
  <speed>4.32</speed>
  <fix>3d</fix>
</trkpt>
<trkpt lat="-27.2738387" lon="151.2901626">
  <ele>374.8</ele>
  <time>2026-09-01T19:58:09Z</time>
  <course>107.2</course>
  <speed>4.402544718682594</speed>
  <fix>3d</fix>
</trkpt>
<trkpt lat="-27.2738362" lon="151.2901546">
  <ele>374.25</ele>
  <time>2026-09-01T19:58:09Z</time>
  <course>107.26</course>
  <speed>4.32</speed>
  <fix>3d</fix>
</trkpt>
<trkpt lat="-27.2738398" lon="151.2901669">
  <ele>374.98</ele>
  <time>2026-09-01T19:58:09Z</time>
  <course>107.2</course>
  <speed>4.456242812055914</speed>
  <fix>3d</fix>
</trkpt>
<trkpt lat="-27.2738386" lon="151.2901631">
  <ele>374.66</ele>
  <time>2026-09-01T19:58:09Z</time>
  <course>107.31</course>
  <speed>4.43</speed>
  <fix>3d</fix>
</trkpt>
<trkpt lat="-27.273841" lon="151.2901713">
  <ele>375.13</ele>
  <time>2026-09-01T19:58:09Z</time>
  <course>107.19</course>
  <speed>4.4973992484546</speed>
  <fix>3d</fix>
</trkpt>
<trkpt lat="-27.2738386" lon="151.2901631">
  <ele>374.66</ele>
  <time>2026-09-01T19:58:09Z</time>
  <course>107.31</course>
  <speed>4.43</speed>
  <fix>3d</fix>
</trkpt>
<trkpt lat="-27.2738422" lon="151.2901757">
  <ele>375.26</ele>
  <time>2026-09-01T19:58:10Z</time>
  <course>107.19</course>
  <speed>4.529017553509812</speed>
  <fix>3d</fix>
</trkpt>
<trkpt lat="-27.273841" lon="151.2901717">
  <ele>375.0</ele>
  <time>2026-09-01T19:58:10Z</time>
  <course>107.34</course>
  <speed>4.52</speed>
  <fix>3d</fix>
</trkpt>
<trkpt lat="-27.2738435" lon="151.2901802">
  <ele>375.36</ele>
  <time>2026-09-01T19:58:10Z</time>
  <course>107.19</course>
  <speed>4.541563607393383</speed>
  <fix>3d</fix>
</trkpt>
<trkpt lat="-27.273841" lon="151.2901717">
  <ele>375.0</ele>
  <time>2026-09-01T19:58:10Z</time>
  <course>107.34</course>
  <speed>4.52</speed>
  <fix>3d</fix>
</trkpt>
<trkpt lat="-27.2738447" lon="151.2901846">
  <ele>375.44</ele>
  <time>2026-09-01T19:58:10Z</time>
  <course>107.19</course>
  <speed>4.541563607393383</speed>
  <fix>3d</fix>
</trkpt>
<trkpt lat="-27.2738434" lon="151.2901805">
  <ele>375.24</ele>
  <time>2026-09-01T19:58:10Z</time>
  <course>107.37</course>
  <speed>4.57</speed>
  <fix>3d</fix>
</trkpt>
<trkpt lat="-27.2738459" lon="151.290189">
  <ele>375.48</ele>
  <time>2026-09-01T19:58:10Z</time>
  <course>107.19</course>
  <speed>4.541563607393383</speed>
  <fix>3d</fix>
</trkpt>
<trkpt lat="-27.2738434" lon="151.2901805">
  <ele>375.24</ele>
  <time>2026-09-01T19:58:10Z</time>
  <course>107.37</course>
  <speed>4.57</speed>
  <fix>3d</fix>
</trkpt>
<trkpt lat="-27.2738472" lon="151.2901934">
  <ele>375.5</ele>
  <time>2026-09-01T19:58:10Z</time>
  <course>107.19</course>
  <speed>4.5320304500300965</speed>
  <fix>3d</fix>
</trkpt>
<trkpt lat="-27.2738459" lon="151.2901893">
  <ele>375.36</ele>
  <time>2026-09-01T19:58:10Z</time>
  <course>107.38</course>
  <speed>4.57</speed>
  <fix>3d</fix>
</trkpt>
<trkpt lat="-27.2738484" lon="151.2901978">
  <ele>375.5</ele>
  <time>2026-09-01T19:58:10Z</time>
  <course>107.19</course>
  <speed>4.5320304500300965</speed>
  <fix>3d</fix>
</trkpt>
<trkpt lat="-27.2738459" lon="151.2901893">
  <ele>375.36</ele>
  <time>2026-09-01T19:58:10Z</time>
  <course>107.38</course>
  <speed>4.57</speed>
  <fix>3d</fix>
</trkpt>
<trkpt lat="-27.2738496" lon="151.2902022">
  <ele>375.46</ele>
  <time>2026-09-01T19:58:10Z</time>
  <course>107.18</course>
  <speed>4.5320304500300965</speed>
  <fix>3d</fix>
</trkpt>
<trkpt lat="-27.2738484" lon="151.2901982">
  <ele>375.38</ele>
  <time>2026-09-01T19:58:10Z</time>
  <course>107.39</course>
  <speed>4.56</speed>
  <fix>3d</fix>
</trkpt>
<trkpt lat="-27.2738508" lon="151.2902066">
  <ele>375.4</ele>
  <time>2026-09-01T19:58:10Z</time>
  <course>107.18</course>
  <speed>4.5320304500300965</speed>
  <fix>3d</fix>
</trkpt>
<trkpt lat="-27.2738484" lon="151.2901982">
  <ele>375.38</ele>
  <time>2026-09-01T19:58:10Z</time>
  <course>107.39</course>
  <speed>4.56</speed>
  <fix>3d</fix>
</trkpt>
<trkpt lat="-27.2738521" lon="151.290211">
  <ele>375.31</ele>
  <time>2026-09-01T19:58:10Z</time>
  <course>107.17</course>
  <speed>4.5541190146942805</speed>
  <fix>3d</fix>
</trkpt>
<trkpt lat="-27.2738508" lon="151.290207">
  <ele>375.3</ele>
  <time>2026-09-01T19:58:10Z</time>
  <course>107.4</course>
  <speed>4.56</speed>
  <fix>3d</fix>
</trkpt>
<trkpt lat="-27.2738535" lon="151.2902166">
  <ele>374.94</ele>
  <time>2026-09-01T19:58:10Z</time>
  <course>109.45</course>
  <speed>4.567187318251793</speed>
  <fix>3d</fix>
</trkpt>
<trkpt lat="-27.2738508" lon="151.290207">
  <ele>375.3</ele>
  <time>2026-09-01T19:58:10Z</time>
  <course>107.4</course>
  <speed>4.56</speed>
  <fix>3d</fix>
</trkpt>
<trkpt lat="-27.2738547" lon="151.2902211">
  <ele>375.07</ele>
  <time>2026-09-01T19:58:10Z</time>
  <course>109.44</course>
  <speed>4.611333863428238</speed>
  <fix>3d</fix>
</trkpt>
<trkpt lat="-27.2738533" lon="151.2902158">
  <ele>375.11</ele>
  <time>2026-09-01T19:58:10Z</time>
  <course>107.43</course>
  <speed>4.61</speed>
  <fix>3d</fix>
</trkpt>
<trkpt lat="-27.273856" lon="151.2902255">
  <ele>374.78</ele>
  <time>2026-09-01T19:58:10Z</time>
  <course>109.43</course>
  <speed>4.611333863428238</speed>
  <fix>3d</fix>
</trkpt>
<trkpt lat="-27.2738533" lon="151.2902158">
  <ele>375.11</ele>
  <time>2026-09-01T19:58:10Z</time>
  <course>107.43</course>
  <speed>4.61</speed>
  <fix>3d</fix>
</trkpt>
<trkpt lat="-27.2738573" lon="151.2902302">
  <ele>374.59</ele>
  <time>2026-09-01T19:58:10Z</time>
  <course>109.43</course>
  <speed>4.6966477406763225</speed>
  <fix>3d</fix>
</trkpt>
<trkpt lat="-27.2738558" lon="151.2902248">
  <ele>374.85</ele>
  <time>2026-09-01T19:58:10Z</time>
  <course>107.47</course>
  <speed>4.7</speed>
  <fix>3d</fix>
</trkpt>
<trkpt lat="-27.2738585" lon="151.2902347">
  <ele>374.66</ele>
  <time>2026-09-01T19:58:10Z</time>
  <course>109.42</course>
  <speed>4.6966477406763225</speed>
  <fix>3d</fix>
</trkpt>
<trkpt lat="-27.2738558" lon="151.2902248">
  <ele>374.85</ele>
  <time>2026-09-01T19:58:10Z</time>
  <course>107.47</course>
  <speed>4.7</speed>
  <fix>3d</fix>
</trkpt>
<trkpt lat="-27.2738599" lon="151.2902395">
  <ele>374.47</ele>
  <time>2026-09-01T19:58:10Z</time>
  <course>109.42</course>
  <speed>4.832659723175221</speed>
  <fix>3d</fix>
</trkpt>
<trkpt lat="-27.2738584" lon="151.290234">
  <ele>374.55</ele>
  <time>2026-09-01T19:58:10Z</time>
  <course>107.53</course>
  <speed>4.83</speed>
  <fix>3d</fix>
</trkpt>
<trkpt lat="-27.2738612" lon="151.2902442">
  <ele>374.03</ele>
  <time>2026-09-01T19:58:10Z</time>
  <course>109.42</course>
  <speed>4.832659723175221</speed>
  <fix>3d</fix>
</trkpt>
<trkpt lat="-27.2738584" lon="151.290234">
  <ele>374.55</ele>
  <time>2026-09-01T19:58:10Z</time>
  <course>107.53</course>
  <speed>4.83</speed>
  <fix>3d</fix>
</trkpt>
<trkpt lat="-27.2738626" lon="151.2902492">
  <ele>373.91</ele>
  <time>2026-09-01T19:58:10Z</time>
  <course>109.42</course>
  <speed>4.981214711292819</speed>
  <fix>3d</fix>
</trkpt>
<trkpt lat="-27.273861" lon="151.2902435">
  <ele>374.22</ele>
  <time>2026-09-01T19:58:10Z</time>
  <course>107.6</course>
  <speed>4.98</speed>
  <fix>3d</fix>
</trkpt>
<trkpt lat="-27.2738639" lon="151.290254">
  <ele>373.72</ele>
  <time>2026-09-01T19:58:10Z</time>
  <course>109.41</course>
  <speed>4.981214711292819</speed>
  <fix>3d</fix>
</trkpt>
<trkpt lat="-27.273861" lon="151.2902435">
  <ele>374.22</ele>
  <time>2026-09-01T19:58:10Z</time>
  <course>107.6</course>
  <speed>4.98</speed>
  <fix>3d</fix>
</trkpt>
<trkpt lat="-27.2738654" lon="151.2902591">
  <ele>373.68</ele>
  <time>2026-09-01T19:58:10Z</time>
  <course>109.41</course>
  <speed>5.151863740434135</speed>
  <fix>3d</fix>
</trkpt>
<trkpt lat="-27.2738638" lon="151.2902532">
  <ele>373.87</ele>
  <time>2026-09-01T19:58:10Z</time>
  <course>107.66</course>
  <speed>5.15</speed>
  <fix>3d</fix>
</trkpt>
<trkpt lat="-27.2738668" lon="151.2902641">
  <ele>373.41</ele>
  <time>2026-09-01T19:58:10Z</time>
  <course>109.41</course>
  <speed>5.151863740434135</speed>
  <fix>3d</fix>
</trkpt>
<trkpt lat="-27.2738638" lon="151.2902532">
  <ele>373.87</ele>
  <time>2026-09-01T19:58:10Z</time>
  <course>107.66</course>
  <speed>5.15</speed>
  <fix>3d</fix>
</trkpt>
<trkpt lat="-27.2738683" lon="151.2902694">
  <ele>373.2</ele>
  <time>2026-09-01T19:58:10Z</time>
  <course>109.41</course>
  <speed>5.3225275950435424</speed>
  <fix>3d</fix>
</trkpt>
<trkpt lat="-27.2738666" lon="151.2902633">
  <ele>373.51</ele>
  <time>2026-09-01T19:58:10Z</time>
  <course>107.73</course>
  <speed>5.33</speed>
  <fix>3d</fix>
</trkpt>
<trkpt lat="-27.2738698" lon="151.2902745">
  <ele>373.19</ele>
  <time>2026-09-01T19:58:10Z</time>
  <course>109.41</course>
  <speed>5.3225275950435424</speed>
  <fix>3d</fix>
</trkpt>
<trkpt lat="-27.2738666" lon="151.2902633">
  <ele>373.51</ele>
  <time>2026-09-01T19:58:10Z</time>
  <course>107.73</course>
  <speed>5.33</speed>
  <fix>3d</fix>
</trkpt>
<trkpt lat="-27.2738714" lon="151.2902801">
  <ele>372.8</ele>
  <time>2026-09-01T19:58:10Z</time>
  <course>109.42</course>
  <speed>5.502726596879041</speed>
  <fix>3d</fix>
</trkpt>
<trkpt lat="-27.2738696" lon="151.2902738">
  <ele>373.15</ele>
  <time>2026-09-01T19:58:10Z</time>
  <course>107.79</course>
  <speed>5.5</speed>
  <fix>3d</fix>
</trkpt>
<trkpt lat="-27.2738729" lon="151.2902854">
  <ele>372.61</ele>
  <time>2026-09-01T19:58:10Z</time>
  <course>109.42</course>
  <speed>5.502726596879041</speed>
  <fix>3d</fix>
</trkpt>
<trkpt lat="-27.2738696" lon="151.2902738">
  <ele>373.15</ele>
  <time>2026-09-01T19:58:10Z</time>
  <course>107.79</course>
  <speed>5.5</speed>
  <fix>3d</fix>
</trkpt>
<trkpt lat="-27.2738745" lon="151.290291">
  <ele>372.48</ele>
  <time>2026-09-01T19:58:10Z</time>
  <course>109.42</course>
  <speed>5.673411672001248</speed>
  <fix>3d</fix>
</trkpt>
<trkpt lat="-27.2738727" lon="151.2902845">
  <ele>372.78</ele>
  <time>2026-09-01T19:58:10Z</time>
  <course>107.84</course>
  <speed>5.67</speed>
  <fix>3d</fix>
</trkpt>
<trkpt lat="-27.2738761" lon="151.2902965">
  <ele>372.4</ele>
  <time>2026-09-01T19:58:10Z</time>
  <course>109.42</course>
  <speed>5.673411672001248</speed>
  <fix>3d</fix>
</trkpt>
<trkpt lat="-27.2738727" lon="151.2902845">
  <ele>372.78</ele>
  <time>2026-09-01T19:58:10Z</time>
  <course>107.84</course>
  <speed>5.67</speed>
  <fix>3d</fix>
</trkpt>
<trkpt lat="-27.2738778" lon="151.2903023">
  <ele>372.08</ele>
  <time>2026-09-01T19:58:10Z</time>
  <course>109.42</course>
  <speed>5.841035867035914</speed>
  <fix>3d</fix>
</trkpt>
<trkpt lat="-27.2738759" lon="151.2902956">
  <ele>372.42</ele>
  <time>2026-09-01T19:58:10Z</time>
  <course>107.9</course>
  <speed>5.85</speed>
  <fix>3d</fix>
</trkpt>
<trkpt lat="-27.2738794" lon="151.2903079">
  <ele>372.07</ele>
  <time>2026-09-01T19:58:10Z</time>
  <course>109.42</course>
  <speed>5.841035867035914</speed>
  <fix>3d</fix>
</trkpt>
<trkpt lat="-27.2738759" lon="151.2902956">
  <ele>372.42</ele>
  <time>2026-09-01T19:58:10Z</time>
  <course>107.9</course>
  <speed>5.85</speed>
  <fix>3d</fix>
</trkpt>
<trkpt lat="-27.273881" lon="151.2903139">
  <ele>371.75</ele>
  <time>2026-09-01T19:58:10Z</time>
  <course>109.42</course>
  <speed>6.0117302002002715</speed>
  <fix>3d</fix>
</trkpt>
<trkpt lat="-27.2738791" lon="151.290307">
  <ele>372.06</ele>
  <time>2026-09-01T19:58:10Z</time>
  <course>107.94</course>
  <speed>6.01</speed>
  <fix>3d</fix>
</trkpt>
<trkpt lat="-27.2738827" lon="151.2903197">
  <ele>371.76</ele>
  <time>2026-09-01T19:58:10Z</time>
  <course>109.42</course>
  <speed>6.0117302002002715</speed>
  <fix>3d</fix>
</trkpt>
<trkpt lat="-27.2738791" lon="151.290307">
  <ele>372.06</ele>
  <time>2026-09-01T19:58:10Z</time>
  <course>107.94</course>
  <speed>6.01</speed>
  <fix>3d</fix>
</trkpt>
<trkpt lat="-27.2738846" lon="151.2903258">
  <ele>371.51</ele>
  <time>2026-09-01T19:58:10Z</time>
  <course>109.42</course>
  <speed>6.1698379233169485</speed>
  <fix>3d</fix>
</trkpt>
<trkpt lat="-27.2738826" lon="151.2903187">
  <ele>371.7</ele>
  <time>2026-09-01T19:58:10Z</time>
  <course>107.99</course>
  <speed>6.17</speed>
  <fix>3d</fix>
</trkpt>
<trkpt lat="-27.2738863" lon="151.2903317">
  <ele>371.51</ele>
  <time>2026-09-01T19:58:10Z</time>
  <course>109.42</course>
  <speed>6.1698379233169485</speed>
  <fix>3d</fix>
</trkpt>
<trkpt lat="-27.2738826" lon="151.2903187">
  <ele>371.7</ele>
  <time>2026-09-01T19:58:10Z</time>
  <course>107.99</course>
  <speed>6.17</speed>
  <fix>3d</fix>
</trkpt>
<trkpt lat="-27.2738881" lon="151.2903381">
  <ele>371.21</ele>
  <time>2026-09-01T19:58:10Z</time>
  <course>109.42</course>
  <speed>6.331034670573207</speed>
  <fix>3d</fix>
</trkpt>
<trkpt lat="-27.273886" lon="151.2903308">
  <ele>371.34</ele>
  <time>2026-09-01T19:58:10Z</time>
  <course>108.03</course>
  <speed>6.33</speed>
  <fix>3d</fix>
</trkpt>
<trkpt lat="-27.2738898" lon="151.2903441">
  <ele>370.9</ele>
  <time>2026-09-01T19:58:10Z</time>
  <course>109.42</course>
  <speed>6.331034670573207</speed>
  <fix>3d</fix>
</trkpt>
<trkpt lat="-27.273886" lon="151.2903308">
  <ele>371.34</ele>
  <time>2026-09-01T19:58:10Z</time>
  <course>108.03</course>
  <speed>6.33</speed>
  <fix>3d</fix>
</trkpt>
<trkpt lat="-27.2738916" lon="151.2903505">
  <ele>370.75</ele>
  <time>2026-09-01T19:58:10Z</time>
  <course>109.42</course>
  <speed>6.479637335530438</speed>
  <fix>3d</fix>
</trkpt>
<trkpt lat="-27.2738895" lon="151.2903431">
  <ele>370.99</ele>
  <time>2026-09-01T19:58:10Z</time>
  <course>108.07</course>
  <speed>6.48</speed>
  <fix>3d</fix>
</trkpt>
<trkpt lat="-27.2738934" lon="151.2903568">
  <ele>370.53</ele>
  <time>2026-09-01T19:58:10Z</time>
  <course>109.42</course>
  <speed>6.479637335530438</speed>
  <fix>3d</fix>
</trkpt>
<trkpt lat="-27.2738895" lon="151.2903431">
  <ele>370.99</ele>
  <time>2026-09-01T19:58:10Z</time>
  <course>108.07</course>
  <speed>6.48</speed>
  <fix>3d</fix>
</trkpt>
<trkpt lat="-27.2738954" lon="151.2903633">
  <ele>370.52</ele>
  <time>2026-09-01T19:58:10Z</time>
  <course>109.42</course>
  <speed>6.637748112123569</speed>
  <fix>3d</fix>
</trkpt>
<trkpt lat="-27.2738932" lon="151.2903557">
  <ele>370.63</ele>
  <time>2026-09-01T19:58:10Z</time>
  <course>108.1</course>
  <speed>6.63</speed>
  <fix>3d</fix>
</trkpt>
<trkpt lat="-27.2738972" lon="151.2903697">
  <ele>370.18</ele>
  <time>2026-09-01T19:58:10Z</time>
  <course>109.42</course>
  <speed>6.637748112123569</speed>
  <fix>3d</fix>
</trkpt>
<trkpt lat="-27.2738932" lon="151.2903557">
  <ele>370.63</ele>
  <time>2026-09-01T19:58:10Z</time>
  <course>108.1</course>
  <speed>6.63</speed>
  <fix>3d</fix>
</trkpt>
<trkpt lat="-27.2738992" lon="151.2903764">
  <ele>369.9</ele>
  <time>2026-09-01T19:58:10Z</time>
  <course>109.42</course>
  <speed>6.786353954812555</speed>
  <fix>3d</fix>
</trkpt>
<trkpt lat="-27.273897" lon="151.2903686">
  <ele>370.27</ele>
  <time>2026-09-01T19:58:10Z</time>
  <course>108.14</course>
  <speed>6.78</speed>
  <fix>3d</fix>
</trkpt>
<trkpt lat="-27.2739011" lon="151.2903829">
  <ele>369.86</ele>
  <time>2026-09-01T19:58:10Z</time>
  <course>109.42</course>
  <speed>6.786353954812555</speed>
  <fix>3d</fix>
</trkpt>
<trkpt lat="-27.273897" lon="151.2903686">
  <ele>370.27</ele>
  <time>2026-09-01T19:58:10Z</time>
  <course>108.14</course>
  <speed>6.78</speed>
  <fix>3d</fix>
</trkpt>
<trkpt lat="-27.2739031" lon="151.2903897">
  <ele>369.61</ele>
  <time>2026-09-01T19:58:10Z</time>
  <course>109.42</course>
  <speed>6.925460273512512</speed>
  <fix>3d</fix>
</trkpt>
<trkpt lat="-27.2739008" lon="151.2903818">
  <ele>369.91</ele>
  <time>2026-09-01T19:58:10Z</time>
  <course>108.17</course>
  <speed>6.93</speed>
  <fix>3d</fix>
</trkpt>
<trkpt lat="-27.273905" lon="151.2903964">
  <ele>369.64</ele>
  <time>2026-09-01T19:58:10Z</time>
  <course>109.43</course>
  <speed>6.925460273512512</speed>
  <fix>3d</fix>
</trkpt>
<trkpt lat="-27.2739008" lon="151.2903818">
  <ele>369.91</ele>
  <time>2026-09-01T19:58:10Z</time>
  <course>108.17</course>
  <speed>6.93</speed>
  <fix>3d</fix>
</trkpt>
<trkpt lat="-27.273907" lon="151.2904033">
  <ele>369.28</ele>
  <time>2026-09-01T19:58:10Z</time>
  <course>109.43</course>
  <speed>7.074072377350969</speed>
  <fix>3d</fix>
</trkpt>
<trkpt lat="-27.2739047" lon="151.2903952">
  <ele>369.56</ele>
  <time>2026-09-01T19:58:10Z</time>
  <course>108.2</course>
  <speed>7.07</speed>
  <fix>3d</fix>
</trkpt>
<trkpt lat="-27.273909" lon="151.2904101">
  <ele>369.15</ele>
  <time>2026-09-01T19:58:10Z</time>
  <course>109.43</course>
  <speed>7.074072377350969</speed>
  <fix>3d</fix>
</trkpt>
<trkpt lat="-27.2739047" lon="151.2903952">
  <ele>369.56</ele>
  <time>2026-09-01T19:58:10Z</time>
  <course>108.2</course>
  <speed>7.07</speed>
  <fix>3d</fix>
</trkpt>
<trkpt lat="-27.2739112" lon="151.2904172">
  <ele>369.14</ele>
  <time>2026-09-01T19:58:10Z</time>
  <course>109.43</course>
  <speed>7.210062413044702</speed>
  <fix>3d</fix>
</trkpt>
<trkpt lat="-27.2739088" lon="151.2904089">
  <ele>369.2</ele>
  <time>2026-09-01T19:58:10Z</time>
  <course>108.23</course>
  <speed>7.22</speed>
  <fix>3d</fix>
</trkpt>
<trkpt lat="-27.2739132" lon="151.2904241">
  <ele>368.64</ele>
  <time>2026-09-01T19:58:10Z</time>
  <course>109.42</course>
  <speed>7.210062413044702</speed>
  <fix>3d</fix>
</trkpt>
<trkpt lat="-27.2739088" lon="151.2904089">
  <ele>369.2</ele>
  <time>2026-09-01T19:58:10Z</time>
  <course>108.23</course>
  <speed>7.22</speed>
  <fix>3d</fix>
</trkpt>
<trkpt lat="-27.2739153" lon="151.2904313">
  <ele>368.46</ele>
  <time>2026-09-01T19:58:10Z</time>
  <course>109.42</course>
  <speed>7.35867515249858</speed>
  <fix>3d</fix>
</trkpt>
<trkpt lat="-27.2739129" lon="151.2904229">
  <ele>368.85</ele>
  <time>2026-09-01T19:58:10Z</time>
  <course>108.25</course>
  <speed>7.36</speed>
  <fix>3d</fix>
</trkpt>
<trkpt lat="-27.2739174" lon="151.2904383">
  <ele>368.55</ele>
  <time>2026-09-01T19:58:10Z</time>
  <course>109.42</course>
  <speed>7.35867515249858</speed>
  <fix>3d</fix>
</trkpt>
<trkpt lat="-27.2739129" lon="151.2904229">
  <ele>368.85</ele>
  <time>2026-09-01T19:58:10Z</time>
  <course>108.25</course>
  <speed>7.36</speed>
  <fix>3d</fix>
</trkpt>
<trkpt lat="-27.2739196" lon="151.2904458">
  <ele>368.46</ele>
  <time>2026-09-01T19:58:10Z</time>
  <course>109.42</course>
  <speed>7.497793008612601</speed>
  <fix>3d</fix>
</trkpt>
<trkpt lat="-27.2739171" lon="151.2904372">
  <ele>368.49</ele>
  <time>2026-09-01T19:58:10Z</time>
  <course>108.28</course>
  <speed>7.5</speed>
  <fix>3d</fix>
</trkpt>
<trkpt lat="-27.2739217" lon="151.290453">
  <ele>367.98</ele>
  <time>2026-09-01T19:58:10Z</time>
  <course>109.42</course>
  <speed>7.497793008612601</speed>
  <fix>3d</fix>
</trkpt>
<trkpt lat="-27.2739171" lon="151.2904372">
  <ele>368.49</ele>
  <time>2026-09-01T19:58:10Z</time>
  <course>108.28</course>
  <speed>7.5</speed>
  <fix>3d</fix>
</trkpt>
<trkpt lat="-27.2739238" lon="151.2904605">
  <ele>367.79</ele>
  <time>2026-09-01T19:58:10Z</time>
  <course>109.42</course>
  <speed>7.636916917185888</speed>
  <fix>3d</fix>
</trkpt>
<trkpt lat="-27.2739213" lon="151.2904518">
  <ele>368.12</ele>
  <time>2026-09-01T19:58:10Z</time>
  <course>108.3</course>
  <speed>7.64</speed>
  <fix>3d</fix>
</trkpt>
<trkpt lat="-27.273926" lon="151.2904679">
  <ele>367.76</ele>
  <time>2026-09-01T19:58:10Z</time>
  <course>109.42</course>
  <speed>7.636916917185888</speed>
  <fix>3d</fix>
</trkpt>
<trkpt lat="-27.2739213" lon="151.2904518">
  <ele>368.12</ele>
  <time>2026-09-01T19:58:10Z</time>
  <course>108.3</course>
  <speed>7.64</speed>
  <fix>3d</fix>
</trkpt>
<trkpt lat="-27.2739283" lon="151.2904755">
  <ele>367.53</ele>
  <time>2026-09-01T19:58:10Z</time>
  <course>109.42</course>
  <speed>7.7729016461035965</speed>
  <fix>3d</fix>
</trkpt>
<trkpt lat="-27.2739257" lon="151.2904666">
  <ele>367.76</ele>
  <time>2026-09-01T19:58:10Z</time>
  <course>108.32</course>
  <speed>7.77</speed>
  <fix>3d</fix>
</trkpt>
<trkpt lat="-27.2739305" lon="151.290483">
  <ele>367.29</ele>
  <time>2026-09-01T19:58:10Z</time>
  <course>109.42</course>
  <speed>7.7729016461035965</speed>
  <fix>3d</fix>
</trkpt>
<trkpt lat="-27.2739257" lon="151.2904666">
  <ele>367.76</ele>
  <time>2026-09-01T19:58:10Z</time>
  <course>108.32</course>
  <speed>7.77</speed>
  <fix>3d</fix>
</trkpt>
<trkpt lat="-27.2739327" lon="151.2904907">
  <ele>367.05</ele>
  <time>2026-09-01T19:58:10Z</time>
  <course>109.42</course>
  <speed>7.912028816934377</speed>
  <fix>3d</fix>
</trkpt>
<trkpt lat="-27.2739301" lon="151.2904816">
  <ele>367.4</ele>
  <time>2026-09-01T19:58:10Z</time>
  <course>108.34</course>
  <speed>7.91</speed>
  <fix>3d</fix>
</trkpt>
<trkpt lat="-27.273935" lon="151.2904983">
  <ele>367.16</ele>
  <time>2026-09-01T19:58:10Z</time>
  <course>109.41</course>
  <speed>7.912028816934377</speed>
  <fix>3d</fix>
</trkpt>
<trkpt lat="-27.2739301" lon="151.2904816">
  <ele>367.4</ele>
  <time>2026-09-01T19:58:10Z</time>
  <course>108.34</course>
  <speed>7.91</speed>
  <fix>3d</fix>
</trkpt>
<trkpt lat="-27.2739374" lon="151.2905061">
  <ele>366.88</ele>
  <time>2026-09-01T19:58:10Z</time>
  <course>109.41</course>
  <speed>8.048012176929157</speed>
  <fix>3d</fix>
</trkpt>
<trkpt lat="-27.2739347" lon="151.2904969">
  <ele>367.03</ele>
  <time>2026-09-01T19:58:10Z</time>
  <course>108.36</course>
  <speed>8.05</speed>
  <fix>3d</fix>
</trkpt>
<trkpt lat="-27.2739397" lon="151.2905139">
  <ele>366.68</ele>
  <time>2026-09-01T19:58:10Z</time>
  <course>109.41</course>
  <speed>8.048012176929157</speed>
  <fix>3d</fix>
</trkpt>
<trkpt lat="-27.2739347" lon="151.2904969">
  <ele>367.03</ele>
  <time>2026-09-01T19:58:10Z</time>
  <course>108.36</course>
  <speed>8.05</speed>
  <fix>3d</fix>
</trkpt>
<trkpt lat="-27.273942" lon="151.2905219">
  <ele>366.45</ele>
  <time>2026-09-01T19:58:10Z</time>
  <course>109.4</course>
  <speed>8.177652474885441</speed>
  <fix>3d</fix>
</trkpt>
<trkpt lat="-27.2739393" lon="151.2905125">
  <ele>366.66</ele>
  <time>2026-09-01T19:58:10Z</time>
  <course>108.37</course>
  <speed>8.18</speed>
  <fix>3d</fix>
</trkpt>
<trkpt lat="-27.2739443" lon="151.2905297">
  <ele>366.22</ele>
  <time>2026-09-01T19:58:10Z</time>
  <course>109.4</course>
  <speed>8.177652474885441</speed>
  <fix>3d</fix>
</trkpt>
<trkpt lat="-27.2739393" lon="151.2905125">
  <ele>366.66</ele>
  <time>2026-09-01T19:58:10Z</time>
  <course>108.37</course>
  <speed>8.18</speed>
  <fix>3d</fix>
</trkpt>
<trkpt lat="-27.2739467" lon="151.2905378">
  <ele>366.02</ele>
  <time>2026-09-01T19:58:10Z</time>
  <course>109.4</course>
  <speed>8.31363338138025</speed>
  <fix>3d</fix>
</trkpt>
<trkpt lat="-27.2739439" lon="151.2905283">
  <ele>366.3</ele>
  <time>2026-09-01T19:58:10Z</time>
  <course>108.39</course>
  <speed>8.31</speed>
  <fix>3d</fix>
</trkpt>
<trkpt lat="-27.273949" lon="151.2905458">
  <ele>366.11</ele>
  <time>2026-09-01T19:58:10Z</time>
  <course>109.39</course>
  <speed>8.31363338138025</speed>
  <fix>3d</fix>
</trkpt>
<trkpt lat="-27.2739439" lon="151.2905283">
  <ele>366.3</ele>
  <time>2026-09-01T19:58:10Z</time>
  <course>108.39</course>
  <speed>8.31</speed>
  <fix>3d</fix>
</trkpt>
<trkpt lat="-27.2739515" lon="151.290554">
  <ele>365.71</ele>
  <time>2026-09-01T19:58:10Z</time>
  <course>109.39</course>
  <speed>8.440124406666053</speed>
  <fix>3d</fix>
</trkpt>
<trkpt lat="-27.2739487" lon="151.2905443">
  <ele>365.93</ele>
  <time>2026-09-01T19:58:10Z</time>
  <course>108.4</course>
  <speed>8.45</speed>
  <fix>3d</fix>
</trkpt>
<trkpt lat="-27.2739539" lon="151.2905621">
  <ele>365.53</ele>
  <time>2026-09-01T19:58:10Z</time>
  <course>109.38</course>
  <speed>8.440124406666053</speed>
  <fix>3d</fix>
</trkpt>
<trkpt lat="-27.2739487" lon="151.2905443">
  <ele>365.93</ele>
  <time>2026-09-01T19:58:10Z</time>
  <course>108.4</course>
  <speed>8.45</speed>
  <fix>3d</fix>
</trkpt>
<trkpt lat="-27.2739564" lon="151.2905705">
  <ele>365.53</ele>
  <time>2026-09-01T19:58:10Z</time>
  <course>109.39</course>
  <speed>8.566615434347453</speed>
  <fix>3d</fix>
</trkpt>
<trkpt lat="-27.2739535" lon="151.2905607">
  <ele>365.57</ele>
  <time>2026-09-01T19:58:10Z</time>
  <course>108.41</course>
  <speed>8.57</speed>
  <fix>3d</fix>
</trkpt>
<trkpt lat="-27.2739588" lon="151.2905787">
  <ele>365.22</ele>
  <time>2026-09-01T19:58:10Z</time>
  <course>109.39</course>
  <speed>8.566615434347453</speed>
  <fix>3d</fix>
</trkpt>
<trkpt lat="-27.2739535" lon="151.2905607">
  <ele>365.57</ele>
  <time>2026-09-01T19:58:10Z</time>
  <course>108.41</course>
  <speed>8.57</speed>
  <fix>3d</fix>
</trkpt>
<trkpt lat="-27.2739613" lon="151.2905872">
  <ele>365.11</ele>
  <time>2026-09-01T19:58:10Z</time>
  <course>109.41</course>
  <speed>8.683616758010455</speed>
  <fix>3d</fix>
</trkpt>
<trkpt lat="-27.2739584" lon="151.2905773">
  <ele>365.22</ele>
  <time>2026-09-01T19:58:10Z</time>
  <course>108.42</course>
  <speed>8.68</speed>
  <fix>3d</fix>
</trkpt>
<trkpt lat="-27.2739638" lon="151.2905955">
  <ele>364.87</ele>
  <time>2026-09-01T19:58:10Z</time>
  <course>109.43</course>
  <speed>8.683616758010455</speed>
  <fix>3d</fix>
</trkpt>
<trkpt lat="-27.2739584" lon="151.2905773">
  <ele>365.22</ele>
  <time>2026-09-01T19:58:10Z</time>
  <course>108.42</course>
  <speed>8.68</speed>
  <fix>3d</fix>
</trkpt>
<trkpt lat="-27.2739663" lon="151.2906041">
  <ele>364.7</ele>
  <time>2026-09-01T19:58:10Z</time>
  <course>109.45</course>
  <speed>8.75950911866641</speed>
  <fix>3d</fix>
</trkpt>
<trkpt lat="-27.2739634" lon="151.2905941">
  <ele>364.89</ele>
  <time>2026-09-01T19:58:10Z</time>
  <course>108.43</course>
  <speed>8.76</speed>
  <fix>3d</fix>
</trkpt>
<trkpt lat="-27.2739688" lon="151.2906125">
  <ele>364.57</ele>
  <time>2026-09-01T19:58:10Z</time>
  <course>109.48</course>
  <speed>8.75950911866641</speed>
  <fix>3d</fix>
</trkpt>
<trkpt lat="-27.2739634" lon="151.2905941">
  <ele>364.89</ele>
  <time>2026-09-01T19:58:10Z</time>
  <course>108.43</course>
  <speed>8.76</speed>
  <fix>3d</fix>
</trkpt>
<trkpt lat="-27.2739714" lon="151.290621">
  <ele>364.34</ele>
  <time>2026-09-01T19:58:10Z</time>
  <course>109.51</course>
  <speed>8.800619296390455</speed>
  <fix>3d</fix>
</trkpt>
<trkpt lat="-27.2739684" lon="151.2906109">
  <ele>364.61</ele>
  <time>2026-09-01T19:58:10Z</time>
  <course>108.44</course>
  <speed>8.81</speed>
  <fix>3d</fix>
</trkpt>
<trkpt lat="-27.2739739" lon="151.2906294">
  <ele>364.5</ele>
  <time>2026-09-01T19:58:10Z</time>
  <course>109.53</course>
  <speed>8.800619296390455</speed>
  <fix>3d</fix>
</trkpt>
<trkpt lat="-27.2739684" lon="151.2906109">
  <ele>364.61</ele>
  <time>2026-09-01T19:58:10Z</time>
  <course>108.44</course>
  <speed>8.81</speed>
  <fix>3d</fix>
</trkpt>
<trkpt lat="-27.2739764" lon="151.2906379">
  <ele>364.03</ele>
  <time>2026-09-01T19:58:10Z</time>
  <course>109.55</course>
  <speed>8.800619296390455</speed>
  <fix>3d</fix>
</trkpt>
<trkpt lat="-27.2739734" lon="151.2906278">
  <ele>364.37</ele>
  <time>2026-09-01T19:58:10Z</time>
  <course>108.45</course>
  <speed>8.81</speed>
  <fix>3d</fix>
</trkpt>
<trkpt lat="-27.2739789" lon="151.2906463">
  <ele>364.05</ele>
  <time>2026-09-01T19:58:10Z</time>
  <course>109.58</course>
  <speed>8.800619296390455</speed>
  <fix>3d</fix>
</trkpt>
<trkpt lat="-27.2739734" lon="151.2906278">
  <ele>364.37</ele>
  <time>2026-09-01T19:58:10Z</time>
  <course>108.45</course>
  <speed>8.81</speed>
  <fix>3d</fix>
</trkpt>
<trkpt lat="-27.2739813" lon="151.2906547">
  <ele>363.88</ele>
  <time>2026-09-01T19:58:10Z</time>
  <course>109.6</course>
  <speed>8.772160509247422</speed>
  <fix>3d</fix>
</trkpt>
<trkpt lat="-27.2739784" lon="151.2906447">
  <ele>364.18</ele>
  <time>2026-09-01T19:58:10Z</time>
  <course>108.47</course>
  <speed>8.77</speed>
  <fix>3d</fix>
</trkpt>
<trkpt lat="-27.2739838" lon="151.2906632">
  <ele>363.93</ele>
  <time>2026-09-01T19:58:10Z</time>
  <course>109.61</course>
  <speed>8.772160509247422</speed>
  <fix>3d</fix>
</trkpt>
<trkpt lat="-27.2739784" lon="151.2906447">
  <ele>364.18</ele>
  <time>2026-09-01T19:58:10Z</time>
  <course>108.47</course>
  <speed>8.77</speed>
  <fix>3d</fix>
</trkpt>
<trkpt lat="-27.2739863" lon="151.2906715">
  <ele>363.95</ele>
  <time>2026-09-01T19:58:10Z</time>
  <course>109.63</course>
  <speed>8.70891497260135</speed>
  <fix>3d</fix>
</trkpt>
<trkpt lat="-27.2739834" lon="151.2906615">
  <ele>364.04</ele>
  <time>2026-09-01T19:58:10Z</time>
  <course>108.48</course>
  <speed>8.71</speed>
  <fix>3d</fix>
</trkpt>
<trkpt lat="-27.2739888" lon="151.2906798">
  <ele>364.06</ele>
  <time>2026-09-01T19:58:10Z</time>
  <course>109.65</course>
  <speed>8.70891497260135</speed>
  <fix>3d</fix>
</trkpt>
<trkpt lat="-27.2739834" lon="151.2906615">
  <ele>364.04</ele>
  <time>2026-09-01T19:58:10Z</time>
  <course>108.48</course>
  <speed>8.71</speed>
  <fix>3d</fix>
</trkpt>
<trkpt lat="-27.2739912" lon="151.290688">
  <ele>364.04</ele>
  <time>2026-09-01T19:58:10Z</time>
  <course>109.66</course>
  <speed>8.623531759088035</speed>
  <fix>3d</fix>
</trkpt>
<trkpt lat="-27.2739883" lon="151.2906781">
  <ele>363.97</ele>
  <time>2026-09-01T19:58:10Z</time>
  <course>108.5</course>
  <speed>8.63</speed>
  <fix>3d</fix>
</trkpt>
<trkpt lat="-27.2739937" lon="151.2906962">
  <ele>364.07</ele>
  <time>2026-09-01T19:58:10Z</time>
  <course>109.68</course>
  <speed>8.623531759088035</speed>
  <fix>3d</fix>
</trkpt>
<trkpt lat="-27.2739883" lon="151.2906781">
  <ele>363.97</ele>
  <time>2026-09-01T19:58:10Z</time>
  <course>108.5</course>
  <speed>8.63</speed>
  <fix>3d</fix>
</trkpt>
<trkpt lat="-27.2739961" lon="151.2907044">
  <ele>364.03</ele>
  <time>2026-09-01T19:58:10Z</time>
  <course>109.69</course>
  <speed>8.519178364138176</speed>
  <fix>3d</fix>
</trkpt>
<trkpt lat="-27.2739932" lon="151.2906946">
  <ele>363.95</ele>
  <time>2026-09-01T19:58:10Z</time>
  <course>108.51</course>
  <speed>8.52</speed>
  <fix>3d</fix>
</trkpt>
<trkpt lat="-27.2739985" lon="151.2907125">
  <ele>363.8</ele>
  <time>2026-09-01T19:58:10Z</time>
  <course>109.7</course>
  <speed>8.519178364138176</speed>
  <fix>3d</fix>
</trkpt>
<trkpt lat="-27.2739932" lon="151.2906946">
  <ele>363.95</ele>
  <time>2026-09-01T19:58:10Z</time>
  <course>108.51</course>
  <speed>8.52</speed>
  <fix>3d</fix>
</trkpt>
<trkpt lat="-27.2740009" lon="151.2907204">
  <ele>363.95</ele>
  <time>2026-09-01T19:58:10Z</time>
  <course>109.71</course>
  <speed>8.414826201413788</speed>
  <fix>3d</fix>
</trkpt>
<trkpt lat="-27.2739981" lon="151.2907108">
  <ele>363.98</ele>
  <time>2026-09-01T19:58:10Z</time>
  <course>108.52</course>
  <speed>8.42</speed>
  <fix>3d</fix>
</trkpt>
<trkpt lat="-27.2740033" lon="151.2907285">
  <ele>363.83</ele>
  <time>2026-09-01T19:58:10Z</time>
  <course>109.72</course>
  <speed>8.414826201413788</speed>
  <fix>3d</fix>
</trkpt>
<trkpt lat="-27.2739981" lon="151.2907108">
  <ele>363.98</ele>
  <time>2026-09-01T19:58:10Z</time>
  <course>108.52</course>
  <speed>8.42</speed>
  <fix>3d</fix>
</trkpt>
<trkpt lat="-27.2740056" lon="151.2907363">
  <ele>363.9</ele>
  <time>2026-09-01T19:58:10Z</time>
  <course>109.73</course>
  <speed>8.310475317332937</speed>
  <fix>3d</fix>
</trkpt>
<trkpt lat="-27.2740028" lon="151.2907268">
  <ele>364.06</ele>
  <time>2026-09-01T19:58:10Z</time>
  <course>108.54</course>
  <speed>8.31</speed>
  <fix>3d</fix>
</trkpt>
<trkpt lat="-27.274008" lon="151.2907444">
  <ele>364.03</ele>
  <time>2026-09-01T19:58:10Z</time>
  <course>109.73</course>
  <speed>8.310475317332937</speed>
  <fix>3d</fix>
</trkpt>
<trkpt lat="-27.2740028" lon="151.2907268">
  <ele>364.06</ele>
  <time>2026-09-01T19:58:10Z</time>
  <course>108.54</course>
  <speed>8.31</speed>
  <fix>3d</fix>
</trkpt>
<trkpt lat="-27.2740103" lon="151.2907521">
  <ele>364.12</ele>
  <time>2026-09-01T19:58:10Z</time>
  <course>109.74</course>
  <speed>8.21560709868723</speed>
  <fix>3d</fix>
</trkpt>
<trkpt lat="-27.2740075" lon="151.2907427">
  <ele>364.18</ele>
  <time>2026-09-01T19:58:10Z</time>
  <course>108.55</course>
  <speed>8.22</speed>
  <fix>3d</fix>
</trkpt>
<trkpt lat="-27.2740126" lon="151.29076">
  <ele>364.28</ele>
  <time>2026-09-01T19:58:10Z</time>
  <course>109.75</course>
  <speed>8.21560709868723</speed>
  <fix>3d</fix>
</trkpt>
<trkpt lat="-27.2740075" lon="151.2907427">
  <ele>364.18</ele>
  <time>2026-09-01T19:58:10Z</time>
  <course>108.55</course>
  <speed>8.22</speed>
  <fix>3d</fix>
</trkpt>
<trkpt lat="-27.2740149" lon="151.2907677">
  <ele>364.44</ele>
  <time>2026-09-01T19:58:10Z</time>
  <course>109.75</course>
  <speed>8.133400272948577</speed>
  <fix>3d</fix>
</trkpt>
<trkpt lat="-27.2740122" lon="151.2907584">
  <ele>364.33</ele>
  <time>2026-09-01T19:58:10Z</time>
  <course>108.56</course>
  <speed>8.13</speed>
  <fix>3d</fix>
</trkpt>
<trkpt lat="-27.2740173" lon="151.2907755">
  <ele>364.37</ele>
  <time>2026-09-01T19:58:10Z</time>
  <course>109.76</course>
  <speed>8.133400272948577</speed>
  <fix>3d</fix>
</trkpt>
<trkpt lat="-27.2740122" lon="151.2907584">
  <ele>364.33</ele>
  <time>2026-09-01T19:58:10Z</time>
  <course>108.56</course>
  <speed>8.13</speed>
  <fix>3d</fix>
</trkpt>
<trkpt lat="-27.2740196" lon="151.2907833">
  <ele>364.53</ele>
  <time>2026-09-01T19:58:10Z</time>
  <course>109.77</course>
  <speed>0.0</speed>
  <fix>3d</fix>
</trkpt>
<trkpt lat="-27.2740169" lon="151.2907739">
  <ele>364.53</ele>
  <time>2026-09-01T19:58:10Z</time>
  <course>108.57</course>
  <speed>8.06</speed>
  <fix>3d</fix>
</trkpt>
<trkpt lat="-27.2740267" lon="151.2908069">
  <ele>364.77</ele>
  <time>2026-09-01T19:58:10Z</time>
  <course>109.77</course>
  <speed>0.0</speed>
  <fix>3d</fix>
</trkpt>
<trkpt lat="-27.2740169" lon="151.2907739">
  <ele>364.53</ele>
  <time>2026-09-01T19:58:10Z</time>
  <course>108.57</course>
  <speed>8.06</speed>
  <fix>3d</fix>
</trkpt>
<trkpt lat="-27.274029" lon="151.2908147">
  <ele>364.68</ele>
  <time>2026-09-01T19:58:10Z</time>
  <course>109.77</course>
  <speed>0.0</speed>
  <fix>3d</fix>
</trkpt>
<trkpt lat="-27.2740214" lon="151.2907893">
  <ele>364.76</ele>
  <time>2026-09-01T19:58:10Z</time>
  <course>108.58</course>
  <speed>8.01</speed>
  <fix>3d</fix>
</trkpt>
<trkpt lat="-27.274036" lon="151.2908383">
  <ele>365.07</ele>
  <time>2026-09-01T19:58:10Z</time>
  <course>109.78</course>
  <speed>0.0</speed>
  <fix>3d</fix>
</trkpt>
<trkpt lat="-27.2740214" lon="151.2907893">
  <ele>364.76</ele>
  <time>2026-09-01T19:58:10Z</time>
  <course>108.58</course>
  <speed>8.01</speed>
  <fix>3d</fix>
</trkpt>
<trkpt lat="-27.274036" lon="151.2908383">
  <ele>365.25</ele>
  <time>2026-09-01T19:58:10Z</time>
  <course>109.78</course>
  <speed>0.0</speed>
  <fix>3d</fix>
</trkpt>
<trkpt lat="-27.2740261" lon="151.2908046">
  <ele>365.03</ele>
  <time>2026-09-01T19:58:10Z</time>
  <course>108.59</course>
  <speed>7.98</speed>
  <fix>3d</fix>
</trkpt>
<trkpt lat="-27.2740407" lon="151.2908537">
  <ele>365.08</ele>
  <time>2026-09-01T19:58:10Z</time>
  <course>109.78</course>
  <speed>0.0</speed>
  <fix>3d</fix>
</trkpt>
<trkpt lat="-27.2740261" lon="151.2908046">
  <ele>365.03</ele>
  <time>2026-09-01T19:58:10Z</time>
  <course>108.59</course>
  <speed>7.98</speed>
  <fix>3d</fix>
</trkpt>
<trkpt lat="-27.2740407" lon="151.2908537">
  <ele>365.19</ele>
  <time>2026-09-01T19:58:10Z</time>
  <course>109.78</course>
  <speed>0.0</speed>
  <fix>3d</fix>
</trkpt>
<trkpt lat="-27.2740306" lon="151.2908199">
  <ele>365.32</ele>
  <time>2026-09-01T19:58:10Z</time>
  <course>108.6</course>
  <speed>7.96</speed>
  <fix>3d</fix>
</trkpt>
<trkpt lat="-27.2740454" lon="151.2908694">
  <ele>365.45</ele>
  <time>2026-09-01T19:58:10Z</time>
  <course>109.78</course>
  <speed>0.0</speed>
  <fix>3d</fix>
</trkpt>
<trkpt lat="-27.2740306" lon="151.2908199">
  <ele>365.32</ele>
  <time>2026-09-01T19:58:10Z</time>
  <course>108.6</course>
  <speed>7.96</speed>
  <fix>3d</fix>
</trkpt>
<trkpt lat="-27.2740454" lon="151.2908694">
  <ele>365.64</ele>
  <time>2026-09-01T19:58:10Z</time>
  <course>109.78</course>
  <speed>0.0</speed>
  <fix>3d</fix>
</trkpt>
<trkpt lat="-27.2740352" lon="151.2908352">
  <ele>365.64</ele>
  <time>2026-09-01T19:58:10Z</time>
  <course>108.61</course>
  <speed>7.96</speed>
  <fix>3d</fix>
</trkpt>
<trkpt lat="-27.2740501" lon="151.2908848">
  <ele>365.73</ele>
  <time>2026-09-01T19:58:10Z</time>
  <course>109.79</course>
  <speed>0.0</speed>
  <fix>3d</fix>
</trkpt>
<trkpt lat="-27.2740352" lon="151.2908352">
  <ele>365.64</ele>
  <time>2026-09-01T19:58:10Z</time>
  <course>108.61</course>
  <speed>7.96</speed>
  <fix>3d</fix>
</trkpt>
<trkpt lat="-27.2740501" lon="151.2908848">
  <ele>366.06</ele>
  <time>2026-09-01T19:58:10Z</time>
  <course>109.79</course>
  <speed>0.0</speed>
  <fix>3d</fix>
</trkpt>
<trkpt lat="-27.2740398" lon="151.2908504">
  <ele>365.99</ele>
  <time>2026-09-01T19:58:10Z</time>
  <course>108.63</course>
  <speed>7.98</speed>
  <fix>3d</fix>
</trkpt>
<trkpt lat="-27.2740545" lon="151.2908997">
  <ele>366.31</ele>
  <time>2026-09-01T19:58:10Z</time>
  <course>109.79</course>
  <speed>0.0</speed>
  <fix>3d</fix>
</trkpt>
<trkpt lat="-27.2740398" lon="151.2908504">
  <ele>365.99</ele>
  <time>2026-09-01T19:58:10Z</time>
  <course>108.63</course>
  <speed>7.98</speed>
  <fix>3d</fix>
</trkpt>
<trkpt lat="-27.2740545" lon="151.2908997">
  <ele>366.36</ele>
  <time>2026-09-01T19:58:10Z</time>
  <course>109.79</course>
  <speed>0.0</speed>
  <fix>3d</fix>
</trkpt>
<trkpt lat="-27.2740444" lon="151.2908657">
  <ele>366.36</ele>
  <time>2026-09-01T19:58:10Z</time>
  <course>108.64</course>
  <speed>8.02</speed>
  <fix>3d</fix>
</trkpt>
<trkpt lat="-27.2740597" lon="151.2909169">
  <ele>366.7</ele>
  <time>2026-09-01T19:58:10Z</time>
  <course>109.79</course>
  <speed>0.0</speed>
  <fix>3d</fix>
</trkpt>
<trkpt lat="-27.2740444" lon="151.2908657">
  <ele>366.36</ele>
  <time>2026-09-01T19:58:10Z</time>
  <course>108.64</course>
  <speed>8.02</speed>
  <fix>3d</fix>
</trkpt>
<trkpt lat="-27.2740597" lon="151.2909169">
  <ele>366.94</ele>
  <time>2026-09-01T19:58:10Z</time>
  <course>109.8</course>
  <speed>0.0</speed>
  <fix>3d</fix>
</trkpt>
<trkpt lat="-27.274049" lon="151.2908811">
  <ele>366.76</ele>
  <time>2026-09-01T19:58:10Z</time>
  <course>108.66</course>
  <speed>8.09</speed>
  <fix>3d</fix>
</trkpt>
<trkpt lat="-27.2740646" lon="151.2909332">
  <ele>367.19</ele>
  <time>2026-09-01T19:58:10Z</time>
  <course>109.8</course>
  <speed>0.0</speed>
  <fix>3d</fix>
</trkpt>
<trkpt lat="-27.274049" lon="151.2908811">
  <ele>366.76</ele>
  <time>2026-09-01T19:58:10Z</time>
  <course>108.66</course>
  <speed>8.09</speed>
  <fix>3d</fix>
</trkpt>
<trkpt lat="-27.2740646" lon="151.2909332">
  <ele>367.3</ele>
  <time>2026-09-01T19:58:10Z</time>
  <course>109.8</course>
  <speed>0.0</speed>
  <fix>3d</fix>
</trkpt>
<trkpt lat="-27.2740536" lon="151.2908967">
  <ele>367.16</ele>
  <time>2026-09-01T19:58:10Z</time>
  <course>108.67</course>
  <speed>8.17</speed>
  <fix>3d</fix>
</trkpt>
<trkpt lat="-27.2740698" lon="151.2909504">
  <ele>367.34</ele>
  <time>2026-09-01T19:58:10Z</time>
  <course>109.8</course>
  <speed>0.0</speed>
  <fix>3d</fix>
</trkpt>
<trkpt lat="-27.2740536" lon="151.2908967">
  <ele>367.16</ele>
  <time>2026-09-01T19:58:10Z</time>
  <course>108.67</course>
  <speed>8.17</speed>
  <fix>3d</fix>
</trkpt>
<trkpt lat="-27.2740698" lon="151.2909504">
  <ele>367.72</ele>
  <time>2026-09-01T19:58:10Z</time>
  <course>109.8</course>
  <speed>0.0</speed>
  <fix>3d</fix>
</trkpt>
<trkpt lat="-27.2740584" lon="151.2909125">
  <ele>367.59</ele>
  <time>2026-09-01T19:58:10Z</time>
  <course>108.68</course>
  <speed>8.26</speed>
  <fix>3d</fix>
</trkpt>
<trkpt lat="-27.2740745" lon="151.2909664">
  <ele>367.87</ele>
  <time>2026-09-01T19:58:10Z</time>
  <course>109.81</course>
  <speed>0.0</speed>
  <fix>3d</fix>
</trkpt>
<trkpt lat="-27.2740584" lon="151.2909125">
  <ele>367.59</ele>
  <time>2026-09-01T19:58:10Z</time>
  <course>108.68</course>
  <speed>8.26</speed>
  <fix>3d</fix>
</trkpt>
<trkpt lat="-27.2740745" lon="151.2909664">
  <ele>368.09</ele>
  <time>2026-09-01T19:58:10Z</time>
  <course>109.81</course>
  <speed>0.0</speed>
  <fix>3d</fix>
</trkpt>
<trkpt lat="-27.2740584" lon="151.2909125">
  <ele>367.59</ele>
  <time>2026-09-01T19:58:10Z</time>
  <course>108.68</course>
  <speed>8.26</speed>
  <fix>3d</fix>
</trkpt>
<trkpt lat="-27.2740798" lon="151.2909839">
  <ele>368.4</ele>
  <time>2026-09-01T19:58:10Z</time>
  <course>109.81</course>
  <speed>0.0</speed>
  <fix>3d</fix>
</trkpt>
<trkpt lat="-27.2740632" lon="151.2909284">
  <ele>368.02</ele>
  <time>2026-09-01T19:58:10Z</time>
  <course>108.7</course>
  <speed>8.37</speed>
  <fix>3d</fix>
</trkpt>
<trkpt lat="-27.2740798" lon="151.2909839">
  <ele>368.6</ele>
  <time>2026-09-01T19:58:10Z</time>
  <course>109.82</course>
  <speed>0.0</speed>
  <fix>3d</fix>
</trkpt>
<trkpt lat="-27.274068" lon="151.2909446">
  <ele>368.46</ele>
  <time>2026-09-01T19:58:10Z</time>
  <course>108.72</course>
  <speed>8.49</speed>
  <fix>3d</fix>
</trkpt>
<trkpt lat="-27.2740848" lon="151.2910002">
  <ele>368.68</ele>
  <time>2026-09-01T19:58:10Z</time>
  <course>109.82</course>
  <speed>0.0</speed>
  <fix>3d</fix>
</trkpt>
<trkpt lat="-27.274068" lon="151.2909446">
  <ele>368.46</ele>
  <time>2026-09-01T19:58:10Z</time>
  <course>108.72</course>
  <speed>8.49</speed>
  <fix>3d</fix>
</trkpt>
<trkpt lat="-27.2740848" lon="151.2910002">
  <ele>369.12</ele>
  <time>2026-09-01T19:58:10Z</time>
  <course>109.83</course>
  <speed>0.0</speed>
  <fix>3d</fix>
</trkpt>
<trkpt lat="-27.274073" lon="151.290961">
  <ele>368.9</ele>
  <time>2026-09-01T19:58:10Z</time>
  <course>108.73</course>
  <speed>8.62</speed>
  <fix>3d</fix>
</trkpt>
<trkpt lat="-27.2740901" lon="151.2910176">
  <ele>369.18</ele>
  <time>2026-09-01T19:58:10Z</time>
  <course>109.84</course>
  <speed>0.0</speed>
  <fix>3d</fix>
</trkpt>
<trkpt lat="-27.274073" lon="151.290961">
  <ele>368.9</ele>
  <time>2026-09-01T19:58:10Z</time>
  <course>108.73</course>
  <speed>8.62</speed>
  <fix>3d</fix>
</trkpt>
<trkpt lat="-27.2740901" lon="151.2910176">
  <ele>369.56</ele>
  <time>2026-09-01T19:58:10Z</time>
  <course>109.85</course>
  <speed>0.0</speed>
  <fix>3d</fix>
</trkpt>
<trkpt lat="-27.274078" lon="151.2909776">
  <ele>369.34</ele>
  <time>2026-09-01T19:58:10Z</time>
  <course>108.75</course>
  <speed>8.76</speed>
  <fix>3d</fix>
</trkpt>
<trkpt lat="-27.2740956" lon="151.2910356">
  <ele>369.55</ele>
  <time>2026-09-01T19:58:10Z</time>
  <course>109.85</course>
  <speed>0.0</speed>
  <fix>3d</fix>
</trkpt>
<trkpt lat="-27.274078" lon="151.2909776">
  <ele>369.34</ele>
  <time>2026-09-01T19:58:10Z</time>
  <course>108.75</course>
  <speed>8.76</speed>
  <fix>3d</fix>
</trkpt>
<trkpt lat="-27.2740956" lon="151.2910356">
  <ele>369.85</ele>
  <time>2026-09-01T19:58:10Z</time>
  <course>109.86</course>
  <speed>0.0</speed>
  <fix>3d</fix>
</trkpt>
<trkpt lat="-27.2740831" lon="151.2909945">
  <ele>369.77</ele>
  <time>2026-09-01T19:58:10Z</time>
  <course>108.76</course>
  <speed>8.9</speed>
  <fix>3d</fix>
</trkpt>
<trkpt lat="-27.2741013" lon="151.2910544">
  <ele>370.27</ele>
  <time>2026-09-01T19:58:10Z</time>
  <course>109.86</course>
  <speed>0.0</speed>
  <fix>3d</fix>
</trkpt>
<trkpt lat="-27.2740831" lon="151.2909945">
  <ele>369.77</ele>
  <time>2026-09-01T19:58:10Z</time>
  <course>108.76</course>
  <speed>8.9</speed>
  <fix>3d</fix>
</trkpt>
<trkpt lat="-27.2741013" lon="151.2910544">
  <ele>370.44</ele>
  <time>2026-09-01T19:58:10Z</time>
  <course>109.87</course>
  <speed>0.0</speed>
  <fix>3d</fix>
</trkpt>
<trkpt lat="-27.2740882" lon="151.2910117">
  <ele>370.2</ele>
  <time>2026-09-01T19:58:10Z</time>
  <course>108.76</course>
  <speed>9.04</speed>
  <fix>3d</fix>
</trkpt>
<trkpt lat="-27.274107" lon="151.291073">
  <ele>370.42</ele>
  <time>2026-09-01T19:58:10Z</time>
  <course>109.88</course>
  <speed>0.0</speed>
  <fix>3d</fix>
</trkpt>
<trkpt lat="-27.2740882" lon="151.2910117">
  <ele>370.2</ele>
  <time>2026-09-01T19:58:10Z</time>
  <course>108.76</course>
  <speed>9.04</speed>
  <fix>3d</fix>
</trkpt>
<trkpt lat="-27.274107" lon="151.291073">
  <ele>370.87</ele>
  <time>2026-09-01T19:58:10Z</time>
  <course>109.89</course>
  <speed>0.0</speed>
  <fix>3d</fix>
</trkpt>
<trkpt lat="-27.2740935" lon="151.2910291">
  <ele>370.62</ele>
  <time>2026-09-01T19:58:10Z</time>
  <course>108.77</course>
  <speed>9.17</speed>
  <fix>3d</fix>
</trkpt>
<trkpt lat="-27.2741126" lon="151.2910915">
  <ele>371.11</ele>
  <time>2026-09-01T19:58:10Z</time>
  <course>109.9</course>
  <speed>0.0</speed>
  <fix>3d</fix>
</trkpt>
<trkpt lat="-27.2740935" lon="151.2910291">
  <ele>370.62</ele>
  <time>2026-09-01T19:58:10Z</time>
  <course>108.77</course>
  <speed>9.17</speed>
  <fix>3d</fix>
</trkpt>
<trkpt lat="-27.2741126" lon="151.2910915">
  <ele>371.07</ele>
  <time>2026-09-01T19:58:10Z</time>
  <course>109.9</course>
  <speed>0.0</speed>
  <fix>3d</fix>
</trkpt>
<trkpt lat="-27.2740989" lon="151.2910468">
  <ele>371.03</ele>
  <time>2026-09-01T19:58:10Z</time>
  <course>108.78</course>
  <speed>9.31</speed>
  <fix>3d</fix>
</trkpt>
<trkpt lat="-27.2741186" lon="151.291111">
  <ele>371.19</ele>
  <time>2026-09-01T19:58:10Z</time>
  <course>109.91</course>
  <speed>0.0</speed>
  <fix>3d</fix>
</trkpt>
<trkpt lat="-27.2740989" lon="151.2910468">
  <ele>371.03</ele>
  <time>2026-09-01T19:58:10Z</time>
  <course>108.78</course>
  <speed>9.31</speed>
  <fix>3d</fix>
</trkpt>
<trkpt lat="-27.2741186" lon="151.291111">
  <ele>371.59</ele>
  <time>2026-09-01T19:58:10Z</time>
  <course>109.92</course>
  <speed>0.0</speed>
  <fix>3d</fix>
</trkpt>
<trkpt lat="-27.2741043" lon="151.2910647">
  <ele>371.43</ele>
  <time>2026-09-01T19:58:10Z</time>
  <course>108.78</course>
  <speed>9.44</speed>
  <fix>3d</fix>
</trkpt>
<trkpt lat="-27.2741243" lon="151.2911299">
  <ele>371.78</ele>
  <time>2026-09-01T19:58:10Z</time>
  <course>109.93</course>
  <speed>0.0</speed>
  <fix>3d</fix>
</trkpt>
<trkpt lat="-27.2741043" lon="151.2910647">
  <ele>371.43</ele>
  <time>2026-09-01T19:58:10Z</time>
  <course>108.78</course>
  <speed>9.44</speed>
  <fix>3d</fix>
</trkpt>
<trkpt lat="-27.2741243" lon="151.2911299">
  <ele>371.99</ele>
  <time>2026-09-01T19:58:10Z</time>
  <course>109.93</course>
  <speed>0.0</speed>
  <fix>3d</fix>
</trkpt>
<trkpt lat="-27.2741098" lon="151.2910829">
  <ele>371.83</ele>
  <time>2026-09-01T19:58:10Z</time>
  <course>108.78</course>
  <speed>9.58</speed>
  <fix>3d</fix>
</trkpt>
<trkpt lat="-27.2741302" lon="151.291149">
  <ele>372.23</ele>
  <time>2026-09-01T19:58:10Z</time>
  <course>109.94</course>
  <speed>0.0</speed>
  <fix>3d</fix>
</trkpt>
<trkpt lat="-27.2741098" lon="151.2910829">
  <ele>371.83</ele>
  <time>2026-09-01T19:58:10Z</time>
  <course>108.78</course>
  <speed>9.58</speed>
  <fix>3d</fix>
</trkpt>
<trkpt lat="-27.2741302" lon="151.291149">
  <ele>372.36</ele>
  <time>2026-09-01T19:58:10Z</time>
  <course>109.95</course>
  <speed>0.0</speed>
  <fix>3d</fix>
</trkpt>
<trkpt lat="-27.2741098" lon="151.2910829">
  <ele>371.83</ele>
  <time>2026-09-01T19:58:10Z</time>
  <course>108.78</course>
  <speed>9.58</speed>
  <fix>3d</fix>
</trkpt>
<trkpt lat="-27.2741363" lon="151.2911689">
  <ele>372.36</ele>
  <time>2026-09-01T19:58:10Z</time>
  <course>109.96</course>
  <speed>0.0</speed>
  <fix>3d</fix>
</trkpt>
<trkpt lat="-27.2741154" lon="151.2911014">
  <ele>372.22</ele>
  <time>2026-09-01T19:58:10Z</time>
  <course>108.78</course>
  <speed>9.71</speed>
  <fix>3d</fix>
</trkpt>
<trkpt lat="-27.2741363" lon="151.2911689">
  <ele>372.67</ele>
  <time>2026-09-01T19:58:10Z</time>
  <course>109.97</course>
  <speed>0.0</speed>
  <fix>3d</fix>
</trkpt>
<trkpt lat="-27.2741154" lon="151.2911014">
  <ele>372.22</ele>
  <time>2026-09-01T19:58:10Z</time>
  <course>108.78</course>
  <speed>9.71</speed>
  <fix>3d</fix>
</trkpt>
<trkpt lat="-27.2741422" lon="151.2911882">
  <ele>372.78</ele>
  <time>2026-09-01T19:58:10Z</time>
  <course>109.97</course>
  <speed>0.0</speed>
  <fix>3d</fix>
</trkpt>
<trkpt lat="-27.2741211" lon="151.2911202">
  <ele>372.61</ele>
  <time>2026-09-01T19:58:10Z</time>
  <course>108.77</course>
  <speed>9.84</speed>
  <fix>3d</fix>
</trkpt>
<trkpt lat="-27.2741422" lon="151.2911882">
  <ele>373.08</ele>
  <time>2026-09-01T19:58:10Z</time>
  <course>109.98</course>
  <speed>0.0</speed>
  <fix>3d</fix>
</trkpt>
<trkpt lat="-27.2741211" lon="151.2911202">
  <ele>372.61</ele>
  <time>2026-09-01T19:58:10Z</time>
  <course>108.77</course>
  <speed>9.84</speed>
  <fix>3d</fix>
</trkpt>
<trkpt lat="-27.2741486" lon="151.2912088">
  <ele>373.14</ele>
  <time>2026-09-01T19:58:10Z</time>
  <course>109.99</course>
  <speed>0.0</speed>
  <fix>3d</fix>
</trkpt>
<trkpt lat="-27.2741268" lon="151.2911391">
  <ele>372.99</ele>
  <time>2026-09-01T19:58:10Z</time>
  <course>108.76</course>
  <speed>9.97</speed>
  <fix>3d</fix>
</trkpt>
<trkpt lat="-27.2741486" lon="151.2912088">
  <ele>373.28</ele>
  <time>2026-09-01T19:58:10Z</time>
  <course>109.99</course>
  <speed>0.0</speed>
  <fix>3d</fix>
</trkpt>
<trkpt lat="-27.2741268" lon="151.2911391">
  <ele>372.99</ele>
  <time>2026-09-01T19:58:10Z</time>
  <course>108.76</course>
  <speed>9.97</speed>
  <fix>3d</fix>
</trkpt>
<trkpt lat="-27.2741547" lon="151.2912285">
  <ele>373.66</ele>
  <time>2026-09-01T19:58:10Z</time>
  <course>110.0</course>
  <speed>0.0</speed>
  <fix>3d</fix>
</trkpt>
<trkpt lat="-27.2741326" lon="151.2911583">
  <ele>373.36</ele>
  <time>2026-09-01T19:58:10Z</time>
  <course>108.75</course>
  <speed>10.1</speed>
  <fix>3d</fix>
</trkpt>
<trkpt lat="-27.2741547" lon="151.2912285">
  <ele>373.84</ele>
  <time>2026-09-01T19:58:10Z</time>
  <course>110.01</course>
  <speed>0.0</speed>
  <fix>3d</fix>
</trkpt>
<trkpt lat="-27.2741326" lon="151.2911583">
  <ele>373.36</ele>
  <time>2026-09-01T19:58:10Z</time>
  <course>108.75</course>
  <speed>10.1</speed>
  <fix>3d</fix>
</trkpt>
<trkpt lat="-27.2741611" lon="151.2912492">
  <ele>374.06</ele>
  <time>2026-09-01T19:58:10Z</time>
  <course>110.02</course>
  <speed>0.0</speed>
  <fix>3d</fix>
</trkpt>
<trkpt lat="-27.2741385" lon="151.2911778">
  <ele>373.72</ele>
  <time>2026-09-01T19:58:10Z</time>
  <course>108.73</course>
  <speed>10.22</speed>
  <fix>3d</fix>
</trkpt>
<trkpt lat="-27.2741611" lon="151.2912492">
  <ele>374.09</ele>
  <time>2026-09-01T19:58:10Z</time>
  <course>110.02</course>
  <speed>0.0</speed>
  <fix>3d</fix>
</trkpt>
<trkpt lat="-27.2741444" lon="151.2911975">
  <ele>374.09</ele>
  <time>2026-09-01T19:58:10Z</time>
  <course>108.7</course>
  <speed>10.35</speed>
  <fix>3d</fix>
</trkpt>
<trkpt lat="-27.2741675" lon="151.2912698">
  <ele>374.48</ele>
  <time>2026-09-01T19:58:10Z</time>
  <course>110.03</course>
  <speed>0.0</speed>
  <fix>3d</fix>
</trkpt>
<trkpt lat="-27.2741444" lon="151.2911975">
  <ele>374.09</ele>
  <time>2026-09-01T19:58:10Z</time>
  <course>108.7</course>
  <speed>10.35</speed>
  <fix>3d</fix>
</trkpt>
<trkpt lat="-27.2741675" lon="151.2912698">
  <ele>374.7</ele>
  <time>2026-09-01T19:58:10Z</time>
  <course>110.04</course>
  <speed>0.0</speed>
  <fix>3d</fix>
</trkpt>
<trkpt lat="-27.2741504" lon="151.2912174">
  <ele>374.44</ele>
  <time>2026-09-01T19:58:10Z</time>
  <course>108.68</course>
  <speed>10.47</speed>
  <fix>3d</fix>
</trkpt>
<trkpt lat="-27.2741741" lon="151.291291">
  <ele>374.55</ele>
  <time>2026-09-01T19:58:10Z</time>
  <course>110.05</course>
  <speed>0.0</speed>
  <fix>3d</fix>
</trkpt>
<trkpt lat="-27.2741504" lon="151.2912174">
  <ele>374.44</ele>
  <time>2026-09-01T19:58:10Z</time>
  <course>108.68</course>
  <speed>10.47</speed>
  <fix>3d</fix>
</trkpt>
<trkpt lat="-27.2741741" lon="151.291291">
  <ele>374.88</ele>
  <time>2026-09-01T19:58:10Z</time>
  <course>110.07</course>
  <speed>0.0</speed>
  <fix>3d</fix>
</trkpt>
<trkpt lat="-27.2741565" lon="151.2912376">
  <ele>374.78</ele>
  <time>2026-09-01T19:58:10Z</time>
  <course>108.66</course>
  <speed>10.58</speed>
  <fix>3d</fix>
</trkpt>
<trkpt lat="-27.2741806" lon="151.2913122">
  <ele>375.14</ele>
  <time>2026-09-01T19:58:10Z</time>
  <course>110.08</course>
  <speed>0.0</speed>
  <fix>3d</fix>
</trkpt>
<trkpt lat="-27.2741565" lon="151.2912376">
  <ele>374.78</ele>
  <time>2026-09-01T19:58:10Z</time>
  <course>108.66</course>
  <speed>10.58</speed>
  <fix>3d</fix>
</trkpt>
<trkpt lat="-27.2741806" lon="151.2913122">
  <ele>375.28</ele>
  <time>2026-09-01T19:58:10Z</time>
  <course>110.09</course>
  <speed>0.0</speed>
  <fix>3d</fix>
</trkpt>
<trkpt lat="-27.2741626" lon="151.2912579">
  <ele>375.12</ele>
  <time>2026-09-01T19:58:10Z</time>
  <course>108.63</course>
  <speed>10.68</speed>
  <fix>3d</fix>
</trkpt>
<trkpt lat="-27.2741872" lon="151.2913332">
  <ele>375.51</ele>
  <time>2026-09-01T19:58:10Z</time>
  <course>110.1</course>
  <speed>0.0</speed>
  <fix>3d</fix>
</trkpt>
<trkpt lat="-27.2741626" lon="151.2912579">
  <ele>375.12</ele>
  <time>2026-09-01T19:58:10Z</time>
  <course>108.63</course>
  <speed>10.68</speed>
  <fix>3d</fix>
</trkpt>
<trkpt lat="-27.2741872" lon="151.2913332">
  <ele>375.49</ele>
  <time>2026-09-01T19:58:10Z</time>
  <course>110.11</course>
  <speed>0.0</speed>
  <fix>3d</fix>
</trkpt>
<trkpt lat="-27.2741687" lon="151.2912784">
  <ele>375.41</ele>
  <time>2026-09-01T19:58:10Z</time>
  <course>108.6</course>
  <speed>10.75</speed>
  <fix>3d</fix>
</trkpt>
<trkpt lat="-27.2741938" lon="151.2913543">
  <ele>375.56</ele>
  <time>2026-09-01T19:58:10Z</time>
  <course>110.12</course>
  <speed>0.0</speed>
  <fix>3d</fix>
</trkpt>
<trkpt lat="-27.2741687" lon="151.2912784">
  <ele>375.41</ele>
  <time>2026-09-01T19:58:10Z</time>
  <course>108.6</course>
  <speed>10.75</speed>
  <fix>3d</fix>
</trkpt>
<trkpt lat="-27.2741938" lon="151.2913543">
  <ele>375.75</ele>
  <time>2026-09-01T19:58:10Z</time>
  <course>110.13</course>
  <speed>0.0</speed>
  <fix>3d</fix>
</trkpt>
<trkpt lat="-27.2741749" lon="151.2912991">
  <ele>375.68</ele>
  <time>2026-09-01T19:58:10Z</time>
  <course>108.57</course>
  <speed>10.8</speed>
  <fix>3d</fix>
</trkpt>
<trkpt lat="-27.2742005" lon="151.2913756">
  <ele>375.68</ele>
  <time>2026-09-01T19:58:10Z</time>
  <course>110.13</course>
  <speed>0.0</speed>
  <fix>3d</fix>
</trkpt>
<trkpt lat="-27.2741749" lon="151.2912991">
  <ele>375.68</ele>
  <time>2026-09-01T19:58:10Z</time>
  <course>108.57</course>
  <speed>10.8</speed>
  <fix>3d</fix>
</trkpt>
<trkpt lat="-27.2742005" lon="151.2913756">
  <ele>375.94</ele>
  <time>2026-09-01T19:58:10Z</time>
  <course>110.14</course>
  <speed>0.0</speed>
  <fix>3d</fix>
</trkpt>
<trkpt lat="-27.2741749" lon="151.2912991">
  <ele>375.68</ele>
  <time>2026-09-01T19:58:10Z</time>
  <course>108.57</course>
  <speed>10.8</speed>
  <fix>3d</fix>
</trkpt>
<trkpt lat="-27.2742072" lon="151.2913973">
  <ele>375.98</ele>
  <time>2026-09-01T19:58:10Z</time>
  <course>110.14</course>
  <speed>0.0</speed>
  <fix>3d</fix>
</trkpt>
<trkpt lat="-27.2741811" lon="151.2913199">
  <ele>375.91</ele>
  <time>2026-09-01T19:58:10Z</time>
  <course>108.54</course>
  <speed>10.82</speed>
  <fix>3d</fix>
</trkpt>
<trkpt lat="-27.2742072" lon="151.2913973">
  <ele>376.26</ele>
  <time>2026-09-01T19:58:10Z</time>
  <course>110.15</course>
  <speed>0.0</speed>
  <fix>3d</fix>
</trkpt>
<trkpt lat="-27.2741811" lon="151.2913199">
  <ele>375.91</ele>
  <time>2026-09-01T19:58:10Z</time>
  <course>108.54</course>
  <speed>10.82</speed>
  <fix>3d</fix>
</trkpt>
<trkpt lat="-27.2742137" lon="151.2914181">
  <ele>376.21</ele>
  <time>2026-09-01T19:58:10Z</time>
  <course>110.15</course>
  <speed>0.0</speed>
  <fix>3d</fix>
</trkpt>
<trkpt lat="-27.2741873" lon="151.2913407">
  <ele>376.09</ele>
  <time>2026-09-01T19:58:10Z</time>
  <course>108.5</course>
  <speed>10.82</speed>
  <fix>3d</fix>
</trkpt>
<trkpt lat="-27.2742137" lon="151.2914181">
  <ele>376.36</ele>
  <time>2026-09-01T19:58:10Z</time>
  <course>110.16</course>
  <speed>0.0</speed>
  <fix>3d</fix>
</trkpt>
<trkpt lat="-27.2741873" lon="151.2913407">
  <ele>376.09</ele>
  <time>2026-09-01T19:58:10Z</time>
  <course>108.5</course>
  <speed>10.82</speed>
  <fix>3d</fix>
</trkpt>
<trkpt lat="-27.2742137" lon="151.2914181">
  <ele>376.31</ele>
  <time>2026-09-01T19:58:10Z</time>
  <course>110.16</course>
  <speed>0.0</speed>
  <fix>3d</fix>
</trkpt>
<trkpt lat="-27.2741935" lon="151.2913614">
  <ele>376.24</ele>
  <time>2026-09-01T19:58:10Z</time>
  <course>108.47</course>
  <speed>10.8</speed>
  <fix>3d</fix>
</trkpt>
<trkpt lat="-27.2742202" lon="151.291439">
  <ele>376.21</ele>
  <time>2026-09-01T19:58:10Z</time>
  <course>110.16</course>
  <speed>0.0</speed>
  <fix>3d</fix>
</trkpt>
<trkpt lat="-27.2741935" lon="151.2913614">
  <ele>376.24</ele>
  <time>2026-09-01T19:58:10Z</time>
  <course>108.47</course>
  <speed>10.8</speed>
  <fix>3d</fix>
</trkpt>
<trkpt lat="-27.2742202" lon="151.291439">
  <ele>376.46</ele>
  <time>2026-09-01T19:58:10Z</time>
  <course>110.16</course>
  <speed>0.0</speed>
  <fix>3d</fix>
</trkpt>
<trkpt lat="-27.2741996" lon="151.2913821">
  <ele>376.33</ele>
  <time>2026-09-01T19:58:10Z</time>
  <course>108.43</course>
  <speed>10.75</speed>
  <fix>3d</fix>
</trkpt>
<trkpt lat="-27.2742266" lon="151.2914595">
  <ele>376.19</ele>
  <time>2026-09-01T19:58:10Z</time>
  <course>110.16</course>
  <speed>0.0</speed>
  <fix>3d</fix>
</trkpt>
<trkpt lat="-27.2741996" lon="151.2913821">
  <ele>376.33</ele>
  <time>2026-09-01T19:58:10Z</time>
  <course>108.43</course>
  <speed>10.75</speed>
  <fix>3d</fix>
</trkpt>
<trkpt lat="-27.2742266" lon="151.2914595">
  <ele>376.33</ele>
  <time>2026-09-01T19:58:10Z</time>
  <course>110.16</course>
  <speed>0.0</speed>
  <fix>3d</fix>
</trkpt>
<trkpt lat="-27.2742057" lon="151.2914026">
  <ele>376.38</ele>
  <time>2026-09-01T19:58:10Z</time>
  <course>108.39</course>
  <speed>10.69</speed>
  <fix>3d</fix>
</trkpt>
<trkpt lat="-27.2742329" lon="151.2914795">
  <ele>376.38</ele>
  <time>2026-09-01T19:58:10Z</time>
  <course>110.16</course>
  <speed>0.0</speed>
  <fix>3d</fix>
</trkpt>
<trkpt lat="-27.2742057" lon="151.2914026">
  <ele>376.38</ele>
  <time>2026-09-01T19:58:10Z</time>
  <course>108.39</course>
  <speed>10.69</speed>
  <fix>3d</fix>
</trkpt>
<trkpt lat="-27.2742329" lon="151.2914795">
  <ele>376.39</ele>
  <time>2026-09-01T19:58:10Z</time>
  <course>110.16</course>
  <speed>0.0</speed>
  <fix>3d</fix>
</trkpt>
<trkpt lat="-27.2742117" lon="151.291423">
  <ele>376.38</ele>
  <time>2026-09-01T19:58:10Z</time>
  <course>108.35</course>
  <speed>10.62</speed>
  <fix>3d</fix>
</trkpt>
<trkpt lat="-27.2742392" lon="151.2914998">
  <ele>376.36</ele>
  <time>2026-09-01T19:58:10Z</time>
  <course>110.16</course>
  <speed>0.0</speed>
  <fix>3d</fix>
</trkpt>
<trkpt lat="-27.2742117" lon="151.291423">
  <ele>376.38</ele>
  <time>2026-09-01T19:58:10Z</time>
  <course>108.35</course>
  <speed>10.62</speed>
  <fix>3d</fix>
</trkpt>
<trkpt lat="-27.2742392" lon="151.2914998">
  <ele>376.16</ele>
  <time>2026-09-01T19:58:10Z</time>
  <course>110.15</course>
  <speed>0.0</speed>
  <fix>3d</fix>
</trkpt>
<trkpt lat="-27.2742177" lon="151.2914434">
  <ele>376.34</ele>
  <time>2026-09-01T19:58:10Z</time>
  <course>108.31</course>
  <speed>10.55</speed>
  <fix>3d</fix>
</trkpt>
<trkpt lat="-27.2742452" lon="151.2915193">
  <ele>376.09</ele>
  <time>2026-09-01T19:58:10Z</time>
  <course>110.15</course>
  <speed>0.0</speed>
  <fix>3d</fix>
</trkpt>
<trkpt lat="-27.2742177" lon="151.2914434">
  <ele>376.34</ele>
  <time>2026-09-01T19:58:10Z</time>
  <course>108.31</course>
  <speed>10.55</speed>
  <fix>3d</fix>
</trkpt>
<trkpt lat="-27.2742452" lon="151.2915193">
  <ele>376.1</ele>
  <time>2026-09-01T19:58:10Z</time>
  <course>110.15</course>
  <speed>0.0</speed>
  <fix>3d</fix>
</trkpt>
<trkpt lat="-27.2742236" lon="151.2914635">
  <ele>376.26</ele>
  <time>2026-09-01T19:58:10Z</time>
  <course>108.27</course>
  <speed>10.47</speed>
  <fix>3d</fix>
</trkpt>
<trkpt lat="-27.2742514" lon="151.2915395">
  <ele>375.97</ele>
  <time>2026-09-01T19:58:10Z</time>
  <course>110.14</course>
  <speed>0.0</speed>
  <fix>3d</fix>
</trkpt>
<trkpt lat="-27.2742294" lon="151.2914836">
  <ele>376.16</ele>
  <time>2026-09-01T19:58:10Z</time>
  <course>108.22</course>
  <speed>10.4</speed>
  <fix>3d</fix>
</trkpt>
<trkpt lat="-27.2742514" lon="151.2915395">
  <ele>375.98</ele>
  <time>2026-09-01T19:58:10Z</time>
  <course>110.13</course>
  <speed>0.0</speed>
  <fix>3d</fix>
</trkpt>
<trkpt lat="-27.2742294" lon="151.2914836">
  <ele>376.16</ele>
  <time>2026-09-01T19:58:10Z</time>
  <course>108.22</course>
  <speed>10.4</speed>
  <fix>3d</fix>
</trkpt>
<trkpt lat="-27.2742574" lon="151.2915588">
  <ele>376.03</ele>
  <time>2026-09-01T19:58:10Z</time>
  <course>110.13</course>
  <speed>0.0</speed>
  <fix>3d</fix>
</trkpt>
<trkpt lat="-27.2742353" lon="151.2915035">
  <ele>376.02</ele>
  <time>2026-09-01T19:58:10Z</time>
  <course>108.18</course>
  <speed>10.34</speed>
  <fix>3d</fix>
</trkpt>
<trkpt lat="-27.2742574" lon="151.2915588">
  <ele>375.93</ele>
  <time>2026-09-01T19:58:10Z</time>
  <course>110.12</course>
  <speed>0.0</speed>
  <fix>3d</fix>
</trkpt>
<trkpt lat="-27.2742353" lon="151.2915035">
  <ele>376.02</ele>
  <time>2026-09-01T19:58:10Z</time>
  <course>108.18</course>
  <speed>10.34</speed>
  <fix>3d</fix>
</trkpt>
<trkpt lat="-26.9720619" lon="149.6127921">
  <ele>339.29</ele>
  <time>2026-09-01T19:58:11Z</time>
  <course>310.27</course>
  <speed>0.0</speed>
  <fix>3d</fix>
</trkpt>
<trkpt lat="-26.9720619" lon="149.6127921">
  <ele>339.29</ele>
  <time>2026-09-01T19:58:11Z</time>
  <course>310.27</course>
  <speed>0.0</speed>
  <fix>3d</fix>
</trkpt>
<trkpt lat="-27.274439" lon="151.290064">
  <ele>-0.01</ele>
  <time>2026-09-01T19:58:11Z</time>
  <course>0.22</course>
  <speed>0.0</speed>
  <fix>3d</fix>
</trkpt>
<trkpt lat="-27.274439" lon="151.290064">
  <ele>343.1</ele>
  <time>2026-09-01T19:58:11Z</time>
  <course>294.58</course>
  <speed>0.0</speed>
  <fix>3d</fix>
</trkpt>
<trkpt lat="-27.274439" lon="151.290064">
  <ele>0.02</ele>
  <time>2026-09-01T19:58:11Z</time>
  <course>1.2</course>
  <speed>0.0</speed>
  <fix>3d</fix>
</trkpt>
<trkpt lat="-27.274439" lon="151.290064">
  <ele>343.1</ele>
  <time>2026-09-01T19:58:11Z</time>
  <course>294.58</course>
  <speed>0.0</speed>
  <fix>3d</fix>
</trkpt>
<trkpt lat="-27.274439" lon="151.290064">
  <ele>-0.08</ele>
  <time>2026-09-01T19:58:11Z</time>
  <course>2.1</course>
  <speed>0.0</speed>
  <fix>3d</fix>
</trkpt>
<trkpt lat="-27.274439" lon="151.290064">
  <ele>343.1</ele>
  <time>2026-09-01T19:58:11Z</time>
  <course>273.33</course>
  <speed>0.0</speed>
  <fix>3d</fix>
</trkpt>
<trkpt lat="-27.274439" lon="151.290064">
  <ele>0.22</ele>
  <time>2026-09-01T19:58:11Z</time>
  <course>2.92</course>
  <speed>0.0</speed>
  <fix>3d</fix>
</trkpt>
<trkpt lat="-27.274439" lon="151.290064">
  <ele>343.1</ele>
  <time>2026-09-01T19:58:11Z</time>
  <course>273.33</course>
  <speed>0.0</speed>
  <fix>3d</fix>
</trkpt>
<trkpt lat="-27.274439" lon="151.290064">
  <ele>0.09</ele>
  <time>2026-09-01T19:58:11Z</time>
  <course>3.66</course>
  <speed>0.0</speed>
  <fix>3d</fix>
</trkpt>
<trkpt lat="-27.274439" lon="151.290064">
  <ele>343.1</ele>
  <time>2026-09-01T19:58:11Z</time>
  <course>270.44</course>
  <speed>0.0</speed>
  <fix>3d</fix>
</trkpt>
<trkpt lat="-27.274439" lon="151.290064">
  <ele>0.08</ele>
  <time>2026-09-01T19:58:11Z</time>
  <course>4.34</course>
  <speed>0.0</speed>
  <fix>3d</fix>
</trkpt>
<trkpt lat="-27.274439" lon="151.290064">
  <ele>343.1</ele>
  <time>2026-09-01T19:58:11Z</time>
  <course>270.44</course>
  <speed>0.0</speed>
  <fix>3d</fix>
</trkpt>
<trkpt lat="-27.274439" lon="151.290064">
  <ele>0.09</ele>
  <time>2026-09-01T19:58:11Z</time>
  <course>4.95</course>
  <speed>0.0</speed>
  <fix>3d</fix>
</trkpt>
<trkpt lat="-27.274439" lon="151.290064">
  <ele>343.1</ele>
  <time>2026-09-01T19:58:11Z</time>
  <course>270.05</course>
  <speed>0.0</speed>
  <fix>3d</fix>
</trkpt>
<trkpt lat="-27.274439" lon="151.290064">
  <ele>-0.05</ele>
  <time>2026-09-01T19:58:11Z</time>
  <course>5.5</course>
  <speed>0.0</speed>
  <fix>3d</fix>
</trkpt>
<trkpt lat="-27.274439" lon="151.290064">
  <ele>343.1</ele>
  <time>2026-09-01T19:58:11Z</time>
  <course>270.05</course>
  <speed>0.0</speed>
  <fix>3d</fix>
</trkpt>
<trkpt lat="-27.274439" lon="151.290064">
  <ele>343.06</ele>
  <time>2026-09-01T19:58:11Z</time>
  <course>5.98</course>
  <speed>0.0</speed>
  <fix>3d</fix>
</trkpt>
<trkpt lat="-27.274439" lon="151.290064">
  <ele>343.1</ele>
  <time>2026-09-01T19:58:11Z</time>
  <course>270.0</course>
  <speed>0.0</speed>
  <fix>3d</fix>
</trkpt>
<trkpt lat="-27.274439" lon="151.290064">
  <ele>343.18</ele>
  <time>2026-09-01T19:58:11Z</time>
  <course>6.44</course>
  <speed>0.0</speed>
  <fix>3d</fix>
</trkpt>
<trkpt lat="-27.274439" lon="151.290064">
  <ele>343.1</ele>
  <time>2026-09-01T19:58:11Z</time>
  <course>270.0</course>
  <speed>0.0</speed>
  <fix>3d</fix>
</trkpt>
<trkpt lat="-27.274439" lon="151.290064">
  <ele>342.91</ele>
  <time>2026-09-01T19:58:11Z</time>
  <course>6.85</course>
  <speed>0.0</speed>
  <fix>3d</fix>
</trkpt>
<trkpt lat="-27.274439" lon="151.290064">
  <ele>343.1</ele>
  <time>2026-09-01T19:58:11Z</time>
  <course>270.0</course>
  <speed>0.0</speed>
  <fix>3d</fix>
</trkpt>
<trkpt lat="-27.274439" lon="151.290064">
  <ele>343.06</ele>
  <time>2026-09-01T19:58:11Z</time>
  <course>7.35</course>
  <speed>0.0</speed>
  <fix>3d</fix>
</trkpt>
<trkpt lat="-27.274439" lon="151.290064">
  <ele>343.1</ele>
  <time>2026-09-01T19:58:11Z</time>
  <course>270.0</course>
  <speed>0.0</speed>
  <fix>3d</fix>
</trkpt>
<trkpt lat="-27.274439" lon="151.290064">
  <ele>343.13</ele>
  <time>2026-09-01T19:58:11Z</time>
  <course>7.56</course>
  <speed>0.0</speed>
  <fix>3d</fix>
</trkpt>
<trkpt lat="-27.274439" lon="151.290064">
  <ele>343.1</ele>
  <time>2026-09-01T19:58:11Z</time>
  <course>270.0</course>
  <speed>0.0</speed>
  <fix>3d</fix>
</trkpt>
<trkpt lat="-27.274439" lon="151.290064">
  <ele>343.04</ele>
  <time>2026-09-01T19:58:11Z</time>
  <course>7.87</course>
  <speed>0.0</speed>
  <fix>3d</fix>
</trkpt>
<trkpt lat="-27.274439" lon="151.290064">
  <ele>343.1</ele>
  <time>2026-09-01T19:58:11Z</time>
  <course>270.0</course>
  <speed>0.0</speed>
  <fix>3d</fix>
</trkpt>
<trkpt lat="-27.274439" lon="151.290064">
  <ele>342.88</ele>
  <time>2026-09-01T19:58:11Z</time>
  <course>8.14</course>
  <speed>0.0</speed>
  <fix>3d</fix>
</trkpt>
<trkpt lat="-27.274439" lon="151.290064">
  <ele>343.1</ele>
  <time>2026-09-01T19:58:11Z</time>
  <course>270.0</course>
  <speed>0.0</speed>
  <fix>3d</fix>
</trkpt>
<trkpt lat="-27.274439" lon="151.290064">
  <ele>343.02</ele>
  <time>2026-09-01T19:58:11Z</time>
  <course>8.39</course>
  <speed>0.0</speed>
  <fix>3d</fix>
</trkpt>
<trkpt lat="-27.274439" lon="151.290064">
  <ele>343.1</ele>
  <time>2026-09-01T19:58:11Z</time>
  <course>270.0</course>
  <speed>0.0</speed>
  <fix>3d</fix>
</trkpt>
<trkpt lat="-27.274439" lon="151.290064">
  <ele>343.23</ele>
  <time>2026-09-01T19:58:11Z</time>
  <course>8.63</course>
  <speed>0.0</speed>
  <fix>3d</fix>
</trkpt>
<trkpt lat="-27.274439" lon="151.290064">
  <ele>343.1</ele>
  <time>2026-09-01T19:58:11Z</time>
  <course>270.0</course>
  <speed>0.0</speed>
  <fix>3d</fix>
</trkpt>
<trkpt lat="-27.274439" lon="151.290064">
  <ele>343.17</ele>
  <time>2026-09-01T19:58:11Z</time>
  <course>8.83</course>
  <speed>0.0</speed>
  <fix>3d</fix>
</trkpt>
<trkpt lat="-27.274439" lon="151.290064">
  <ele>343.1</ele>
  <time>2026-09-01T19:58:11Z</time>
  <course>270.0</course>
  <speed>0.0</speed>
  <fix>3d</fix>
</trkpt>
<trkpt lat="-27.274439" lon="151.290064">
  <ele>343.04</ele>
  <time>2026-09-01T19:58:11Z</time>
  <course>9.01</course>
  <speed>0.0</speed>
  <fix>3d</fix>
</trkpt>
<trkpt lat="-27.274439" lon="151.290064">
  <ele>343.1</ele>
  <time>2026-09-01T19:58:11Z</time>
  <course>270.0</course>
  <speed>0.0</speed>
  <fix>3d</fix>
</trkpt>
<trkpt lat="-27.274439" lon="151.290064">
  <ele>342.89</ele>
  <time>2026-09-01T19:58:11Z</time>
  <course>9.18</course>
  <speed>0.0</speed>
  <fix>3d</fix>
</trkpt>
<trkpt lat="-27.274439" lon="151.290064">
  <ele>343.1</ele>
  <time>2026-09-01T19:58:11Z</time>
  <course>270.0</course>
  <speed>0.0</speed>
  <fix>3d</fix>
</trkpt>
<trkpt lat="-27.274439" lon="151.290064">
  <ele>343.08</ele>
  <time>2026-09-01T19:58:11Z</time>
  <course>9.33</course>
  <speed>0.0</speed>
  <fix>3d</fix>
</trkpt>
<trkpt lat="-27.274439" lon="151.290064">
  <ele>343.1</ele>
  <time>2026-09-01T19:58:11Z</time>
  <course>270.0</course>
  <speed>0.0</speed>
  <fix>3d</fix>
</trkpt>
<trkpt lat="-27.274439" lon="151.290064">
  <ele>343.19</ele>
  <time>2026-09-01T19:58:11Z</time>
  <course>9.47</course>
  <speed>0.0</speed>
  <fix>3d</fix>
</trkpt>
<trkpt lat="-27.274439" lon="151.290064">
  <ele>343.1</ele>
  <time>2026-09-01T19:58:11Z</time>
  <course>270.0</course>
  <speed>0.0</speed>
  <fix>3d</fix>
</trkpt>
<trkpt lat="-27.274439" lon="151.290064">
  <ele>342.88</ele>
  <time>2026-09-01T19:58:11Z</time>
  <course>9.59</course>
  <speed>0.0</speed>
  <fix>3d</fix>
</trkpt>
<trkpt lat="-27.274439" lon="151.290064">
  <ele>343.1</ele>
  <time>2026-09-01T19:58:11Z</time>
  <course>270.0</course>
  <speed>0.0</speed>
  <fix>3d</fix>
</trkpt>
<trkpt lat="-27.274439" lon="151.290064">
  <ele>343.17</ele>
  <time>2026-09-01T19:58:11Z</time>
  <course>9.7</course>
  <speed>0.0</speed>
  <fix>3d</fix>
</trkpt>
<trkpt lat="-27.274439" lon="151.290064">
  <ele>343.1</ele>
  <time>2026-09-01T19:58:11Z</time>
  <course>270.0</course>
  <speed>0.0</speed>
  <fix>3d</fix>
</trkpt>
<trkpt lat="-27.274439" lon="151.290064">
  <ele>342.89</ele>
  <time>2026-09-01T19:58:11Z</time>
  <course>9.8</course>
  <speed>0.0</speed>
  <fix>3d</fix>
</trkpt>
<trkpt lat="-27.274439" lon="151.290064">
  <ele>343.1</ele>
  <time>2026-09-01T19:58:11Z</time>
  <course>270.0</course>
  <speed>0.0</speed>
  <fix>3d</fix>
</trkpt>
<trkpt lat="-27.274439" lon="151.290064">
  <ele>342.99</ele>
  <time>2026-09-01T19:58:11Z</time>
  <course>9.9</course>
  <speed>0.0</speed>
  <fix>3d</fix>
</trkpt>
<trkpt lat="-27.274439" lon="151.290064">
  <ele>343.1</ele>
  <time>2026-09-01T19:58:11Z</time>
  <course>270.0</course>
  <speed>0.0</speed>
  <fix>3d</fix>
</trkpt>
<trkpt lat="-27.274439" lon="151.290064">
  <ele>342.87</ele>
  <time>2026-09-01T19:58:11Z</time>
  <course>9.98</course>
  <speed>0.0</speed>
  <fix>3d</fix>
</trkpt>
<trkpt lat="-27.274439" lon="151.290064">
  <ele>343.1</ele>
  <time>2026-09-01T19:58:11Z</time>
  <course>270.0</course>
  <speed>0.0</speed>
  <fix>3d</fix>
</trkpt>
<trkpt lat="-27.274439" lon="151.290064">
  <ele>343.09</ele>
  <time>2026-09-01T19:58:11Z</time>
  <course>10.06</course>
  <speed>0.0</speed>
  <fix>3d</fix>
</trkpt>
<trkpt lat="-27.274439" lon="151.290064">
  <ele>343.1</ele>
  <time>2026-09-01T19:58:11Z</time>
  <course>270.0</course>
  <speed>0.0</speed>
  <fix>3d</fix>
</trkpt>
<trkpt lat="-27.274439" lon="151.290064">
  <ele>343.18</ele>
  <time>2026-09-01T19:58:11Z</time>
  <course>10.13</course>
  <speed>0.0</speed>
  <fix>3d</fix>
</trkpt>
<trkpt lat="-27.274439" lon="151.290064">
  <ele>343.1</ele>
  <time>2026-09-01T19:58:11Z</time>
  <course>270.0</course>
  <speed>0.0</speed>
  <fix>3d</fix>
</trkpt>
<trkpt lat="-27.274439" lon="151.290064">
  <ele>343.05</ele>
  <time>2026-09-01T19:58:11Z</time>
  <course>10.2</course>
  <speed>0.0</speed>
  <fix>3d</fix>
</trkpt>
<trkpt lat="-27.274439" lon="151.290064">
  <ele>343.1</ele>
  <time>2026-09-01T19:58:11Z</time>
  <course>270.0</course>
  <speed>0.0</speed>
  <fix>3d</fix>
</trkpt>
<trkpt lat="-27.274439" lon="151.290064">
  <ele>342.96</ele>
  <time>2026-09-01T19:58:11Z</time>
  <course>10.25</course>
  <speed>0.0</speed>
  <fix>3d</fix>
</trkpt>
<trkpt lat="-27.274439" lon="151.290064">
  <ele>343.1</ele>
  <time>2026-09-01T19:58:11Z</time>
  <course>270.0</course>
  <speed>0.0</speed>
  <fix>3d</fix>
</trkpt>
<trkpt lat="-27.274439" lon="151.290064">
  <ele>343.1</ele>
  <time>2026-09-01T19:58:11Z</time>
  <course>10.31</course>
  <speed>0.0</speed>
  <fix>3d</fix>
</trkpt>
<trkpt lat="-27.274439" lon="151.290064">
  <ele>343.1</ele>
  <time>2026-09-01T19:58:11Z</time>
  <course>270.0</course>
  <speed>0.0</speed>
  <fix>3d</fix>
</trkpt>
<trkpt lat="-27.274439" lon="151.290064">
  <ele>343.22</ele>
  <time>2026-09-01T19:58:11Z</time>
  <course>10.35</course>
  <speed>0.0</speed>
  <fix>3d</fix>
</trkpt>
<trkpt lat="-27.274439" lon="151.290064">
  <ele>343.1</ele>
  <time>2026-09-01T19:58:11Z</time>
  <course>270.0</course>
  <speed>0.0</speed>
  <fix>3d</fix>
</trkpt>
<trkpt lat="-27.274439" lon="151.290064">
  <ele>343.17</ele>
  <time>2026-09-01T19:58:11Z</time>
  <course>10.4</course>
  <speed>0.0</speed>
  <fix>3d</fix>
</trkpt>
<trkpt lat="-27.274439" lon="151.290064">
  <ele>343.1</ele>
  <time>2026-09-01T19:58:11Z</time>
  <course>270.0</course>
  <speed>0.0</speed>
  <fix>3d</fix>
</trkpt>
<trkpt lat="-27.274439" lon="151.290064">
  <ele>343.08</ele>
  <time>2026-09-01T19:58:11Z</time>
  <course>10.44</course>
  <speed>0.0</speed>
  <fix>3d</fix>
</trkpt>
<trkpt lat="-27.274439" lon="151.290064">
  <ele>343.1</ele>
  <time>2026-09-01T19:58:11Z</time>
  <course>270.0</course>
  <speed>0.0</speed>
  <fix>3d</fix>
</trkpt>
<trkpt lat="-27.274439" lon="151.290064">
  <ele>343.04</ele>
  <time>2026-09-01T19:58:11Z</time>
  <course>10.47</course>
  <speed>0.0</speed>
  <fix>3d</fix>
</trkpt>
<trkpt lat="-27.274439" lon="151.290064">
  <ele>343.1</ele>
  <time>2026-09-01T19:58:11Z</time>
  <course>270.0</course>
  <speed>0.0</speed>
  <fix>3d</fix>
</trkpt>
<trkpt lat="-27.274439" lon="151.290064">
  <ele>343.18</ele>
  <time>2026-09-01T19:58:11Z</time>
  <course>10.5</course>
  <speed>0.0</speed>
  <fix>3d</fix>
</trkpt>
<trkpt lat="-27.274439" lon="151.290064">
  <ele>343.1</ele>
  <time>2026-09-01T19:58:11Z</time>
  <course>270.0</course>
  <speed>0.0</speed>
  <fix>3d</fix>
</trkpt>
<trkpt lat="-27.274439" lon="151.290064">
  <ele>343.12</ele>
  <time>2026-09-01T19:58:11Z</time>
  <course>10.53</course>
  <speed>0.0</speed>
  <fix>3d</fix>
</trkpt>
<trkpt lat="-27.274439" lon="151.290064">
  <ele>343.1</ele>
  <time>2026-09-01T19:58:11Z</time>
  <course>270.0</course>
  <speed>0.0</speed>
  <fix>3d</fix>
</trkpt>
<trkpt lat="-27.274439" lon="151.290064">
  <ele>343.04</ele>
  <time>2026-09-01T19:58:11Z</time>
  <course>10.56</course>
  <speed>0.0</speed>
  <fix>3d</fix>
</trkpt>
<trkpt lat="-27.274439" lon="151.290064">
  <ele>343.1</ele>
  <time>2026-09-01T19:58:11Z</time>
  <course>270.0</course>
  <speed>0.0</speed>
  <fix>3d</fix>
</trkpt>
<trkpt lat="-27.274439" lon="151.290064">
  <ele>343.07</ele>
  <time>2026-09-01T19:58:11Z</time>
  <course>10.58</course>
  <speed>0.0</speed>
  <fix>3d</fix>
</trkpt>
<trkpt lat="-27.274439" lon="151.290064">
  <ele>343.1</ele>
  <time>2026-09-01T19:58:11Z</time>
  <course>270.0</course>
  <speed>0.0</speed>
  <fix>3d</fix>
</trkpt>
<trkpt lat="-27.274439" lon="151.290064">
  <ele>343.04</ele>
  <time>2026-09-01T19:58:11Z</time>
  <course>10.6</course>
  <speed>0.0</speed>
  <fix>3d</fix>
</trkpt>
<trkpt lat="-27.274439" lon="151.290064">
  <ele>343.1</ele>
  <time>2026-09-01T19:58:11Z</time>
  <course>270.0</course>
  <speed>0.0</speed>
  <fix>3d</fix>
</trkpt>
<trkpt lat="-27.274439" lon="151.290064">
  <ele>343.01</ele>
  <time>2026-09-01T19:58:11Z</time>
  <course>10.62</course>
  <speed>0.0</speed>
  <fix>3d</fix>
</trkpt>
<trkpt lat="-27.274439" lon="151.290064">
  <ele>343.1</ele>
  <time>2026-09-01T19:58:11Z</time>
  <course>270.0</course>
  <speed>0.0</speed>
  <fix>3d</fix>
</trkpt>
<trkpt lat="-27.274439" lon="151.290064">
  <ele>343.2</ele>
  <time>2026-09-01T19:58:11Z</time>
  <course>10.64</course>
  <speed>0.0</speed>
  <fix>3d</fix>
</trkpt>
<trkpt lat="-27.274439" lon="151.290064">
  <ele>343.1</ele>
  <time>2026-09-01T19:58:11Z</time>
  <course>270.0</course>
  <speed>0.0</speed>
  <fix>3d</fix>
</trkpt>
<trkpt lat="-27.274439" lon="151.290064">
  <ele>343.24</ele>
  <time>2026-09-01T19:58:11Z</time>
  <course>10.65</course>
  <speed>0.0</speed>
  <fix>3d</fix>
</trkpt>
<trkpt lat="-27.274439" lon="151.290064">
  <ele>343.1</ele>
  <time>2026-09-01T19:58:11Z</time>
  <course>270.0</course>
  <speed>0.0</speed>
  <fix>3d</fix>
</trkpt>
<trkpt lat="-27.274439" lon="151.290064">
  <ele>342.88</ele>
  <time>2026-09-01T19:58:11Z</time>
  <course>10.67</course>
  <speed>0.0</speed>
  <fix>3d</fix>
</trkpt>
<trkpt lat="-27.274439" lon="151.290064">
  <ele>343.1</ele>
  <time>2026-09-01T19:58:11Z</time>
  <course>270.0</course>
  <speed>0.0</speed>
  <fix>3d</fix>
</trkpt>
<trkpt lat="-27.274439" lon="151.290064">
  <ele>343.21</ele>
  <time>2026-09-01T19:58:11Z</time>
  <course>10.68</course>
  <speed>0.0</speed>
  <fix>3d</fix>
</trkpt>
<trkpt lat="-27.274439" lon="151.290064">
  <ele>343.1</ele>
  <time>2026-09-01T19:58:11Z</time>
  <course>270.0</course>
  <speed>0.0</speed>
  <fix>3d</fix>
</trkpt>
<trkpt lat="-27.274439" lon="151.290064">
  <ele>343.02</ele>
  <time>2026-09-01T19:58:11Z</time>
  <course>10.69</course>
  <speed>0.0</speed>
  <fix>3d</fix>
</trkpt>
<trkpt lat="-27.274439" lon="151.290064">
  <ele>343.1</ele>
  <time>2026-09-01T19:58:11Z</time>
  <course>270.0</course>
  <speed>0.0</speed>
  <fix>3d</fix>
</trkpt>
<trkpt lat="-27.274439" lon="151.290064">
  <ele>342.93</ele>
  <time>2026-09-01T19:58:11Z</time>
  <course>10.7</course>
  <speed>0.0</speed>
  <fix>3d</fix>
</trkpt>
<trkpt lat="-27.274439" lon="151.290064">
  <ele>343.1</ele>
  <time>2026-09-01T19:58:11Z</time>
  <course>270.0</course>
  <speed>0.0</speed>
  <fix>3d</fix>
</trkpt>
<trkpt lat="-27.274439" lon="151.290064">
  <ele>343.07</ele>
  <time>2026-09-01T19:58:11Z</time>
  <course>10.71</course>
  <speed>0.0</speed>
  <fix>3d</fix>
</trkpt>
<trkpt lat="-27.274439" lon="151.290064">
  <ele>343.1</ele>
  <time>2026-09-01T19:58:11Z</time>
  <course>270.0</course>
  <speed>0.0</speed>
  <fix>3d</fix>
</trkpt>
<trkpt lat="-27.274439" lon="151.290064">
  <ele>342.94</ele>
  <time>2026-09-01T19:58:11Z</time>
  <course>10.72</course>
  <speed>0.0</speed>
  <fix>3d</fix>
</trkpt>
<trkpt lat="-27.274439" lon="151.290064">
  <ele>343.1</ele>
  <time>2026-09-01T19:58:11Z</time>
  <course>270.0</course>
  <speed>0.0</speed>
  <fix>3d</fix>
</trkpt>
<trkpt lat="-27.274439" lon="151.290064">
  <ele>343.11</ele>
  <time>2026-09-01T19:58:11Z</time>
  <course>10.73</course>
  <speed>0.0</speed>
  <fix>3d</fix>
</trkpt>
<trkpt lat="-27.274439" lon="151.290064">
  <ele>343.1</ele>
  <time>2026-09-01T19:58:11Z</time>
  <course>270.0</course>
  <speed>0.0</speed>
  <fix>3d</fix>
</trkpt>
<trkpt lat="-27.274439" lon="151.290064">
  <ele>343.24</ele>
  <time>2026-09-01T19:58:11Z</time>
  <course>10.73</course>
  <speed>0.0</speed>
  <fix>3d</fix>
</trkpt>
<trkpt lat="-27.274439" lon="151.290064">
  <ele>343.1</ele>
  <time>2026-09-01T19:58:11Z</time>
  <course>270.0</course>
  <speed>0.0</speed>
  <fix>3d</fix>
</trkpt>
<trkpt lat="-27.274439" lon="151.290064">
  <ele>343.18</ele>
  <time>2026-09-01T19:58:11Z</time>
  <course>10.74</course>
  <speed>0.0</speed>
  <fix>3d</fix>
</trkpt>
<trkpt lat="-27.274439" lon="151.290064">
  <ele>343.1</ele>
  <time>2026-09-01T19:58:11Z</time>
  <course>270.0</course>
  <speed>0.0</speed>
  <fix>3d</fix>
</trkpt>
<trkpt lat="-27.274439" lon="151.290064">
  <ele>342.89</ele>
  <time>2026-09-01T19:58:11Z</time>
  <course>10.75</course>
  <speed>0.0</speed>
  <fix>3d</fix>
</trkpt>
<trkpt lat="-27.274439" lon="151.290064">
  <ele>343.1</ele>
  <time>2026-09-01T19:58:11Z</time>
  <course>270.0</course>
  <speed>0.0</speed>
  <fix>3d</fix>
</trkpt>
<trkpt lat="-27.274439" lon="151.290064">
  <ele>343.23</ele>
  <time>2026-09-01T19:58:11Z</time>
  <course>10.75</course>
  <speed>0.0</speed>
  <fix>3d</fix>
</trkpt>
<trkpt lat="-27.274439" lon="151.290064">
  <ele>343.1</ele>
  <time>2026-09-01T19:58:11Z</time>
  <course>270.0</course>
  <speed>0.0</speed>
  <fix>3d</fix>
</trkpt>
<trkpt lat="-27.274439" lon="151.290064">
  <ele>343.23</ele>
  <time>2026-09-01T19:58:11Z</time>
  <course>10.76</course>
  <speed>0.0</speed>
  <fix>3d</fix>
</trkpt>
<trkpt lat="-27.274439" lon="151.290064">
  <ele>343.1</ele>
  <time>2026-09-01T19:58:11Z</time>
  <course>270.0</course>
  <speed>0.0</speed>
  <fix>3d</fix>
</trkpt>
<trkpt lat="-27.274439" lon="151.290064">
  <ele>342.99</ele>
  <time>2026-09-01T19:58:11Z</time>
  <course>10.76</course>
  <speed>0.0</speed>
  <fix>3d</fix>
</trkpt>
<trkpt lat="-27.274439" lon="151.290064">
  <ele>343.1</ele>
  <time>2026-09-01T19:58:11Z</time>
  <course>270.0</course>
  <speed>0.0</speed>
  <fix>3d</fix>
</trkpt>
<trkpt lat="-27.274439" lon="151.290064">
  <ele>343.13</ele>
  <time>2026-09-01T19:58:11Z</time>
  <course>10.76</course>
  <speed>0.0</speed>
  <fix>3d</fix>
</trkpt>
<trkpt lat="-27.274439" lon="151.290064">
  <ele>343.1</ele>
  <time>2026-09-01T19:58:11Z</time>
  <course>270.0</course>
  <speed>0.0</speed>
  <fix>3d</fix>
</trkpt>
<trkpt lat="-27.274439" lon="151.290064">
  <ele>343.07</ele>
  <time>2026-09-01T19:58:11Z</time>
  <course>10.77</course>
  <speed>0.0</speed>
  <fix>3d</fix>
</trkpt>
<trkpt lat="-27.274439" lon="151.290064">
  <ele>343.1</ele>
  <time>2026-09-01T19:58:11Z</time>
  <course>270.0</course>
  <speed>0.0</speed>
  <fix>3d</fix>
</trkpt>
<trkpt lat="-27.274439" lon="151.290064">
  <ele>343.19</ele>
  <time>2026-09-01T19:58:11Z</time>
  <course>10.77</course>
  <speed>0.0</speed>
  <fix>3d</fix>
</trkpt>
<trkpt lat="-27.274439" lon="151.290064">
  <ele>343.1</ele>
  <time>2026-09-01T19:58:11Z</time>
  <course>270.0</course>
  <speed>0.0</speed>
  <fix>3d</fix>
</trkpt>
<trkpt lat="-27.274439" lon="151.290064">
  <ele>342.93</ele>
  <time>2026-09-01T19:58:11Z</time>
  <course>10.77</course>
  <speed>0.0</speed>
  <fix>3d</fix>
</trkpt>
<trkpt lat="-27.274439" lon="151.290064">
  <ele>343.1</ele>
  <time>2026-09-01T19:58:11Z</time>
  <course>270.0</course>
  <speed>0.0</speed>
  <fix>3d</fix>
</trkpt>
<trkpt lat="-27.274439" lon="151.290064">
  <ele>343.19</ele>
  <time>2026-09-01T19:58:11Z</time>
  <course>10.78</course>
  <speed>0.0</speed>
  <fix>3d</fix>
</trkpt>
<trkpt lat="-27.274439" lon="151.290064">
  <ele>343.1</ele>
  <time>2026-09-01T19:58:11Z</time>
  <course>270.0</course>
  <speed>0.0</speed>
  <fix>3d</fix>
</trkpt>
<trkpt lat="-27.274439" lon="151.290064">
  <ele>343.1</ele>
  <time>2026-09-01T19:58:11Z</time>
  <course>10.78</course>
  <speed>0.0</speed>
  <fix>3d</fix>
</trkpt>
<trkpt lat="-27.274439" lon="151.290064">
  <ele>343.1</ele>
  <time>2026-09-01T19:58:11Z</time>
  <course>270.0</course>
  <speed>0.0</speed>
  <fix>3d</fix>
</trkpt>
<trkpt lat="-27.274439" lon="151.290064">
  <ele>343.01</ele>
  <time>2026-09-01T19:58:11Z</time>
  <course>10.78</course>
  <speed>0.0</speed>
  <fix>3d</fix>
</trkpt>
<trkpt lat="-27.274439" lon="151.290064">
  <ele>343.1</ele>
  <time>2026-09-01T19:58:11Z</time>
  <course>270.0</course>
  <speed>0.0</speed>
  <fix>3d</fix>
</trkpt>
<trkpt lat="-27.274439" lon="151.290064">
  <ele>343.11</ele>
  <time>2026-09-01T19:58:11Z</time>
  <course>10.78</course>
  <speed>0.0</speed>
  <fix>3d</fix>
</trkpt>
<trkpt lat="-27.274439" lon="151.290064">
  <ele>343.1</ele>
  <time>2026-09-01T19:58:11Z</time>
  <course>270.0</course>
  <speed>0.0</speed>
  <fix>3d</fix>
</trkpt>
<trkpt lat="-27.274439" lon="151.290064">
  <ele>342.96</ele>
  <time>2026-09-01T19:58:11Z</time>
  <course>10.78</course>
  <speed>0.0</speed>
  <fix>3d</fix>
</trkpt>
<trkpt lat="-27.274439" lon="151.290064">
  <ele>343.1</ele>
  <time>2026-09-01T19:58:11Z</time>
  <course>270.0</course>
  <speed>0.0</speed>
  <fix>3d</fix>
</trkpt>
<trkpt lat="-27.274439" lon="151.290064">
  <ele>343.19</ele>
  <time>2026-09-01T19:58:11Z</time>
  <course>10.79</course>
  <speed>0.0</speed>
  <fix>3d</fix>
</trkpt>
<trkpt lat="-27.274439" lon="151.290064">
  <ele>343.1</ele>
  <time>2026-09-01T19:58:11Z</time>
  <course>270.0</course>
  <speed>0.0</speed>
  <fix>3d</fix>
</trkpt>
<trkpt lat="-27.274439" lon="151.290064">
  <ele>343.0</ele>
  <time>2026-09-01T19:58:11Z</time>
  <course>10.79</course>
  <speed>0.0</speed>
  <fix>3d</fix>
</trkpt>
<trkpt lat="-27.274439" lon="151.290064">
  <ele>343.1</ele>
  <time>2026-09-01T19:58:11Z</time>
  <course>270.0</course>
  <speed>0.0</speed>
  <fix>3d</fix>
</trkpt>
<trkpt lat="-27.274439" lon="151.290064">
  <ele>343.2</ele>
  <time>2026-09-01T19:58:11Z</time>
  <course>10.79</course>
  <speed>0.0</speed>
  <fix>3d</fix>
</trkpt>
<trkpt lat="-27.274439" lon="151.290064">
  <ele>343.1</ele>
  <time>2026-09-01T19:58:11Z</time>
  <course>270.0</course>
  <speed>0.0</speed>
  <fix>3d</fix>
</trkpt>
<trkpt lat="-27.274439" lon="151.290064">
  <ele>343.2</ele>
  <time>2026-09-01T19:58:11Z</time>
  <course>10.79</course>
  <speed>0.0</speed>
  <fix>3d</fix>
</trkpt>
<trkpt lat="-27.274439" lon="151.290064">
  <ele>343.1</ele>
  <time>2026-09-01T19:58:11Z</time>
  <course>270.0</course>
  <speed>0.0</speed>
  <fix>3d</fix>
</trkpt>
<trkpt lat="-27.274439" lon="151.290064">
  <ele>343.13</ele>
  <time>2026-09-01T19:58:11Z</time>
  <course>10.79</course>
  <speed>0.0</speed>
  <fix>3d</fix>
</trkpt>
<trkpt lat="-27.274439" lon="151.290064">
  <ele>343.1</ele>
  <time>2026-09-01T19:58:11Z</time>
  <course>270.0</course>
  <speed>0.0</speed>
  <fix>3d</fix>
</trkpt>
<trkpt lat="-27.274439" lon="151.290064">
  <ele>343.1</ele>
  <time>2026-09-01T19:58:11Z</time>
  <course>10.79</course>
  <speed>0.0</speed>
  <fix>3d</fix>
</trkpt>
<trkpt lat="-27.274439" lon="151.290064">
  <ele>343.1</ele>
  <time>2026-09-01T19:58:11Z</time>
  <course>270.0</course>
  <speed>0.0</speed>
  <fix>3d</fix>
</trkpt>
<trkpt lat="-27.274439" lon="151.290064">
  <ele>343.12</ele>
  <time>2026-09-01T19:58:11Z</time>
  <course>10.79</course>
  <speed>0.0</speed>
  <fix>3d</fix>
</trkpt>
<trkpt lat="-27.274439" lon="151.290064">
  <ele>343.1</ele>
  <time>2026-09-01T19:58:11Z</time>
  <course>270.0</course>
  <speed>0.0</speed>
  <fix>3d</fix>
</trkpt>
<trkpt lat="-27.274439" lon="151.290064">
  <ele>342.94</ele>
  <time>2026-09-01T19:58:11Z</time>
  <course>10.79</course>
  <speed>0.0</speed>
  <fix>3d</fix>
</trkpt>
<trkpt lat="-27.274439" lon="151.290064">
  <ele>343.1</ele>
  <time>2026-09-01T19:58:11Z</time>
  <course>270.0</course>
  <speed>0.0</speed>
  <fix>3d</fix>
</trkpt>
<trkpt lat="-27.274439" lon="151.290064">
  <ele>343.25</ele>
  <time>2026-09-01T19:58:11Z</time>
  <course>10.79</course>
  <speed>0.0</speed>
  <fix>3d</fix>
</trkpt>
<trkpt lat="-27.274439" lon="151.290064">
  <ele>343.1</ele>
  <time>2026-09-01T19:58:11Z</time>
  <course>270.0</course>
  <speed>0.0</speed>
  <fix>3d</fix>
</trkpt>
<trkpt lat="-27.274439" lon="151.290064">
  <ele>342.93</ele>
  <time>2026-09-01T19:58:11Z</time>
  <course>10.79</course>
  <speed>0.0</speed>
  <fix>3d</fix>
</trkpt>
<trkpt lat="-27.274439" lon="151.290064">
  <ele>343.1</ele>
  <time>2026-09-01T19:58:11Z</time>
  <course>270.0</course>
  <speed>0.0</speed>
  <fix>3d</fix>
</trkpt>
<trkpt lat="-27.274439" lon="151.290064">
  <ele>343.08</ele>
  <time>2026-09-01T19:58:11Z</time>
  <course>10.79</course>
  <speed>0.0</speed>
  <fix>3d</fix>
</trkpt>
<trkpt lat="-27.274439" lon="151.290064">
  <ele>343.1</ele>
  <time>2026-09-01T19:58:11Z</time>
  <course>270.0</course>
  <speed>0.0</speed>
  <fix>3d</fix>
</trkpt>
<trkpt lat="-27.274439" lon="151.290064">
  <ele>343.23</ele>
  <time>2026-09-01T19:58:11Z</time>
  <course>10.8</course>
  <speed>0.0</speed>
  <fix>3d</fix>
</trkpt>
<trkpt lat="-27.274439" lon="151.290064">
  <ele>343.1</ele>
  <time>2026-09-01T19:58:11Z</time>
  <course>270.0</course>
  <speed>0.0</speed>
  <fix>3d</fix>
</trkpt>
<trkpt lat="-27.274439" lon="151.290064">
  <ele>343.01</ele>
  <time>2026-09-01T19:58:11Z</time>
  <course>10.8</course>
  <speed>0.0</speed>
  <fix>3d</fix>
</trkpt>
<trkpt lat="-27.274439" lon="151.290064">
  <ele>343.1</ele>
  <time>2026-09-01T19:58:11Z</time>
  <course>270.0</course>
  <speed>0.0</speed>
  <fix>3d</fix>
</trkpt>
<trkpt lat="-27.274439" lon="151.290064">
  <ele>343.1</ele>
  <time>2026-09-01T19:58:11Z</time>
  <course>10.8</course>
  <speed>0.0</speed>
  <fix>3d</fix>
</trkpt>
<trkpt lat="-27.274439" lon="151.290064">
  <ele>343.1</ele>
  <time>2026-09-01T19:58:11Z</time>
  <course>270.0</course>
  <speed>0.0</speed>
  <fix>3d</fix>
</trkpt>
<trkpt lat="-27.274439" lon="151.290064">
  <ele>342.99</ele>
  <time>2026-09-01T19:58:11Z</time>
  <course>10.8</course>
  <speed>0.0</speed>
  <fix>3d</fix>
</trkpt>
<trkpt lat="-27.274439" lon="151.290064">
  <ele>343.1</ele>
  <time>2026-09-01T19:58:11Z</time>
  <course>270.0</course>
  <speed>0.0</speed>
  <fix>3d</fix>
</trkpt>
<trkpt lat="-27.274439" lon="151.290064">
  <ele>342.87</ele>
  <time>2026-09-01T19:58:11Z</time>
  <course>10.8</course>
  <speed>0.0</speed>
  <fix>3d</fix>
</trkpt>
<trkpt lat="-27.274439" lon="151.290064">
  <ele>343.1</ele>
  <time>2026-09-01T19:58:11Z</time>
  <course>270.0</course>
  <speed>0.0</speed>
  <fix>3d</fix>
</trkpt>
<trkpt lat="-27.274439" lon="151.290064">
  <ele>343.1</ele>
  <time>2026-09-01T19:58:11Z</time>
  <course>10.8</course>
  <speed>0.0</speed>
  <fix>3d</fix>
</trkpt>
<trkpt lat="-27.274439" lon="151.290064">
  <ele>343.1</ele>
  <time>2026-09-01T19:58:11Z</time>
  <course>270.0</course>
  <speed>0.0</speed>
  <fix>3d</fix>
</trkpt>
<trkpt lat="-27.274439" lon="151.290064">
  <ele>342.99</ele>
  <time>2026-09-01T19:58:11Z</time>
  <course>10.8</course>
  <speed>0.0</speed>
  <fix>3d</fix>
</trkpt>
<trkpt lat="-27.274439" lon="151.290064">
  <ele>343.1</ele>
  <time>2026-09-01T19:58:11Z</time>
  <course>270.0</course>
  <speed>0.0</speed>
  <fix>3d</fix>
</trkpt>
<trkpt lat="-27.274439" lon="151.290064">
  <ele>342.91</ele>
  <time>2026-09-01T19:58:11Z</time>
  <course>10.8</course>
  <speed>0.0</speed>
  <fix>3d</fix>
</trkpt>
<trkpt lat="-27.274439" lon="151.290064">
  <ele>343.1</ele>
  <time>2026-09-01T19:58:11Z</time>
  <course>270.0</course>
  <speed>0.0</speed>
  <fix>3d</fix>
</trkpt>
<trkpt lat="-27.274439" lon="151.290064">
  <ele>342.9</ele>
  <time>2026-09-01T19:58:11Z</time>
  <course>10.8</course>
  <speed>0.0</speed>
  <fix>3d</fix>
</trkpt>
<trkpt lat="-27.274439" lon="151.290064">
  <ele>343.1</ele>
  <time>2026-09-01T19:58:11Z</time>
  <course>270.0</course>
  <speed>0.0</speed>
  <fix>3d</fix>
</trkpt>
<trkpt lat="-27.274439" lon="151.290064">
  <ele>342.87</ele>
  <time>2026-09-01T19:58:11Z</time>
  <course>10.8</course>
  <speed>0.0</speed>
  <fix>3d</fix>
</trkpt>
<trkpt lat="-27.274439" lon="151.290064">
  <ele>343.1</ele>
  <time>2026-09-01T19:58:11Z</time>
  <course>270.0</course>
  <speed>0.0</speed>
  <fix>3d</fix>
</trkpt>
<trkpt lat="-27.274439" lon="151.290064">
  <ele>343.12</ele>
  <time>2026-09-01T19:58:11Z</time>
  <course>10.8</course>
  <speed>0.0</speed>
  <fix>3d</fix>
</trkpt>
<trkpt lat="-27.274439" lon="151.290064">
  <ele>343.1</ele>
  <time>2026-09-01T19:58:11Z</time>
  <course>270.0</course>
  <speed>0.0</speed>
  <fix>3d</fix>
</trkpt>
<trkpt lat="-27.274439" lon="151.290064">
  <ele>342.99</ele>
  <time>2026-09-01T19:58:11Z</time>
  <course>10.8</course>
  <speed>0.0</speed>
  <fix>3d</fix>
</trkpt>
<trkpt lat="-27.274439" lon="151.290064">
  <ele>343.1</ele>
  <time>2026-09-01T19:58:11Z</time>
  <course>270.0</course>
  <speed>0.0</speed>
  <fix>3d</fix>
</trkpt>
<trkpt lat="-27.274439" lon="151.290064">
  <ele>343.13</ele>
  <time>2026-09-01T19:58:11Z</time>
  <course>10.8</course>
  <speed>0.0</speed>
  <fix>3d</fix>
</trkpt>
<trkpt lat="-27.274439" lon="151.290064">
  <ele>343.1</ele>
  <time>2026-09-01T19:58:11Z</time>
  <course>270.0</course>
  <speed>0.0</speed>
  <fix>3d</fix>
</trkpt>
<trkpt lat="-27.274439" lon="151.290064">
  <ele>343.0</ele>
  <time>2026-09-01T19:58:11Z</time>
  <course>10.8</course>
  <speed>0.0</speed>
  <fix>3d</fix>
</trkpt>
<trkpt lat="-27.274439" lon="151.290064">
  <ele>343.1</ele>
  <time>2026-09-01T19:58:11Z</time>
  <course>270.0</course>
  <speed>0.0</speed>
  <fix>3d</fix>
</trkpt>
<trkpt lat="-27.274439" lon="151.290064">
  <ele>343.17</ele>
  <time>2026-09-01T19:58:11Z</time>
  <course>10.8</course>
  <speed>0.0</speed>
  <fix>3d</fix>
</trkpt>
<trkpt lat="-27.274439" lon="151.290064">
  <ele>343.1</ele>
  <time>2026-09-01T19:58:11Z</time>
  <course>270.0</course>
  <speed>0.0</speed>
  <fix>3d</fix>
</trkpt>
<trkpt lat="-27.274439" lon="151.290064">
  <ele>343.0</ele>
  <time>2026-09-01T19:58:11Z</time>
  <course>10.8</course>
  <speed>0.0</speed>
  <fix>3d</fix>
</trkpt>
<trkpt lat="-27.274439" lon="151.290064">
  <ele>343.1</ele>
  <time>2026-09-01T19:58:11Z</time>
  <course>270.0</course>
  <speed>0.0</speed>
  <fix>3d</fix>
</trkpt>
<trkpt lat="-27.274439" lon="151.290064">
  <ele>342.99</ele>
  <time>2026-09-01T19:58:11Z</time>
  <course>10.8</course>
  <speed>0.0</speed>
  <fix>3d</fix>
</trkpt>
<trkpt lat="-27.274439" lon="151.290064">
  <ele>343.1</ele>
  <time>2026-09-01T19:58:11Z</time>
  <course>270.0</course>
  <speed>0.0</speed>
  <fix>3d</fix>
</trkpt>
<trkpt lat="-27.274439" lon="151.290064">
  <ele>343.17</ele>
  <time>2026-09-01T19:58:11Z</time>
  <course>10.8</course>
  <speed>0.0</speed>
  <fix>3d</fix>
</trkpt>
<trkpt lat="-27.274439" lon="151.290064">
  <ele>343.1</ele>
  <time>2026-09-01T19:58:11Z</time>
  <course>270.0</course>
  <speed>0.0</speed>
  <fix>3d</fix>
</trkpt>
<trkpt lat="-27.274439" lon="151.290064">
  <ele>343.16</ele>
  <time>2026-09-01T19:58:12Z</time>
  <course>10.8</course>
  <speed>0.0</speed>
  <fix>3d</fix>
</trkpt>
<trkpt lat="-27.274439" lon="151.290064">
  <ele>343.1</ele>
  <time>2026-09-01T19:58:12Z</time>
  <course>270.0</course>
  <speed>0.0</speed>
  <fix>3d</fix>
</trkpt>
<trkpt lat="-27.274439" lon="151.290064">
  <ele>342.87</ele>
  <time>2026-09-01T19:58:12Z</time>
  <course>10.8</course>
  <speed>0.0</speed>
  <fix>3d</fix>
</trkpt>
<trkpt lat="-27.274439" lon="151.290064">
  <ele>343.1</ele>
  <time>2026-09-01T19:58:12Z</time>
  <course>270.0</course>
  <speed>0.0</speed>
  <fix>3d</fix>
</trkpt>
<trkpt lat="-27.274439" lon="151.290064">
  <ele>343.19</ele>
  <time>2026-09-01T19:58:12Z</time>
  <course>10.8</course>
  <speed>0.0</speed>
  <fix>3d</fix>
</trkpt>
<trkpt lat="-27.274439" lon="151.290064">
  <ele>343.1</ele>
  <time>2026-09-01T19:58:12Z</time>
  <course>270.0</course>
  <speed>0.0</speed>
  <fix>3d</fix>
</trkpt>
<trkpt lat="-27.274439" lon="151.290064">
  <ele>343.16</ele>
  <time>2026-09-01T19:58:12Z</time>
  <course>10.8</course>
  <speed>0.0</speed>
  <fix>3d</fix>
</trkpt>
<trkpt lat="-27.274439" lon="151.290064">
  <ele>343.1</ele>
  <time>2026-09-01T19:58:12Z</time>
  <course>270.0</course>
  <speed>0.0</speed>
  <fix>3d</fix>
</trkpt>
<trkpt lat="-27.274439" lon="151.290064">
  <ele>343.21</ele>
  <time>2026-09-01T19:58:12Z</time>
  <course>10.8</course>
  <speed>0.0</speed>
  <fix>3d</fix>
</trkpt>
<trkpt lat="-27.274439" lon="151.290064">
  <ele>343.1</ele>
  <time>2026-09-01T19:58:12Z</time>
  <course>270.0</course>
  <speed>0.0</speed>
  <fix>3d</fix>
</trkpt>
<trkpt lat="-27.274439" lon="151.290064">
  <ele>343.22</ele>
  <time>2026-09-01T19:58:12Z</time>
  <course>10.8</course>
  <speed>0.0</speed>
  <fix>3d</fix>
</trkpt>
<trkpt lat="-27.274439" lon="151.290064">
  <ele>343.1</ele>
  <time>2026-09-01T19:58:12Z</time>
  <course>270.0</course>
  <speed>0.0</speed>
  <fix>3d</fix>
</trkpt>
<trkpt lat="-27.274439" lon="151.290064">
  <ele>343.24</ele>
  <time>2026-09-01T19:58:12Z</time>
  <course>10.8</course>
  <speed>0.0</speed>
  <fix>3d</fix>
</trkpt>
<trkpt lat="-27.274439" lon="151.290064">
  <ele>343.1</ele>
  <time>2026-09-01T19:58:12Z</time>
  <course>270.0</course>
  <speed>0.0</speed>
  <fix>3d</fix>
</trkpt>
<trkpt lat="-27.274439" lon="151.290064">
  <ele>343.0</ele>
  <time>2026-09-01T19:58:12Z</time>
  <course>10.8</course>
  <speed>0.0</speed>
  <fix>3d</fix>
</trkpt>
<trkpt lat="-27.274439" lon="151.290064">
  <ele>343.1</ele>
  <time>2026-09-01T19:58:12Z</time>
  <course>270.0</course>
  <speed>0.0</speed>
  <fix>3d</fix>
</trkpt>
<trkpt lat="-27.274439" lon="151.290064">
  <ele>343.1</ele>
  <time>2026-09-01T19:58:12Z</time>
  <course>10.8</course>
  <speed>0.0</speed>
  <fix>3d</fix>
</trkpt>
<trkpt lat="-27.274439" lon="151.290064">
  <ele>343.1</ele>
  <time>2026-09-01T19:58:12Z</time>
  <course>270.0</course>
  <speed>0.0</speed>
  <fix>3d</fix>
</trkpt>
<trkpt lat="-27.274439" lon="151.290064">
  <ele>343.05</ele>
  <time>2026-09-01T19:58:12Z</time>
  <course>10.8</course>
  <speed>0.0</speed>
  <fix>3d</fix>
</trkpt>
<trkpt lat="-27.274439" lon="151.290064">
  <ele>343.1</ele>
  <time>2026-09-01T19:58:12Z</time>
  <course>270.0</course>
  <speed>0.0</speed>
  <fix>3d</fix>
</trkpt>
<trkpt lat="-27.274439" lon="151.290064">
  <ele>342.87</ele>
  <time>2026-09-01T19:58:12Z</time>
  <course>10.8</course>
  <speed>0.0</speed>
  <fix>3d</fix>
</trkpt>
<trkpt lat="-27.274439" lon="151.290064">
  <ele>343.1</ele>
  <time>2026-09-01T19:58:12Z</time>
  <course>270.0</course>
  <speed>0.0</speed>
  <fix>3d</fix>
</trkpt>
<trkpt lat="-27.274439" lon="151.290064">
  <ele>342.92</ele>
  <time>2026-09-01T19:58:12Z</time>
  <course>10.8</course>
  <speed>0.0</speed>
  <fix>3d</fix>
</trkpt>
<trkpt lat="-27.274439" lon="151.290064">
  <ele>343.1</ele>
  <time>2026-09-01T19:58:12Z</time>
  <course>270.0</course>
  <speed>0.0</speed>
  <fix>3d</fix>
</trkpt>
<trkpt lat="-27.274439" lon="151.290064">
  <ele>342.96</ele>
  <time>2026-09-01T19:58:12Z</time>
  <course>10.8</course>
  <speed>0.0</speed>
  <fix>3d</fix>
</trkpt>
<trkpt lat="-27.274439" lon="151.290064">
  <ele>343.1</ele>
  <time>2026-09-01T19:58:12Z</time>
  <course>270.0</course>
  <speed>0.0</speed>
  <fix>3d</fix>
</trkpt>
<trkpt lat="-27.274439" lon="151.290064">
  <ele>343.15</ele>
  <time>2026-09-01T19:58:12Z</time>
  <course>10.8</course>
  <speed>0.0</speed>
  <fix>3d</fix>
</trkpt>
<trkpt lat="-27.274439" lon="151.290064">
  <ele>343.1</ele>
  <time>2026-09-01T19:58:12Z</time>
  <course>270.0</course>
  <speed>0.0</speed>
  <fix>3d</fix>
</trkpt>
<trkpt lat="-27.274439" lon="151.290064">
  <ele>343.16</ele>
  <time>2026-09-01T19:58:12Z</time>
  <course>10.8</course>
  <speed>0.0</speed>
  <fix>3d</fix>
</trkpt>
<trkpt lat="-27.274439" lon="151.290064">
  <ele>343.1</ele>
  <time>2026-09-01T19:58:12Z</time>
  <course>270.0</course>
  <speed>0.0</speed>
  <fix>3d</fix>
</trkpt>
<trkpt lat="-27.274439" lon="151.290064">
  <ele>343.2</ele>
  <time>2026-09-01T19:58:12Z</time>
  <course>10.81</course>
  <speed>0.0</speed>
  <fix>3d</fix>
</trkpt>
<trkpt lat="-27.274439" lon="151.290064">
  <ele>343.1</ele>
  <time>2026-09-01T19:58:12Z</time>
  <course>270.0</course>
  <speed>0.0</speed>
  <fix>3d</fix>
</trkpt>
<trkpt lat="-27.274439" lon="151.290064">
  <ele>343.13</ele>
  <time>2026-09-01T19:58:12Z</time>
  <course>10.82</course>
  <speed>0.0</speed>
  <fix>3d</fix>
</trkpt>
<trkpt lat="-27.274439" lon="151.290064">
  <ele>343.1</ele>
  <time>2026-09-01T19:58:12Z</time>
  <course>270.0</course>
  <speed>0.0</speed>
  <fix>3d</fix>
</trkpt>
<trkpt lat="-27.274439" lon="151.290064">
  <ele>343.0</ele>
  <time>2026-09-01T19:58:12Z</time>
  <course>10.83</course>
  <speed>0.0</speed>
  <fix>3d</fix>
</trkpt>
<trkpt lat="-27.274439" lon="151.290064">
  <ele>343.1</ele>
  <time>2026-09-01T19:58:12Z</time>
  <course>270.0</course>
  <speed>0.0</speed>
  <fix>3d</fix>
</trkpt>
<trkpt lat="-27.274439" lon="151.290064">
  <ele>343.34</ele>
  <time>2026-09-01T19:58:12Z</time>
  <course>10.84</course>
  <speed>0.0</speed>
  <fix>3d</fix>
</trkpt>
<trkpt lat="-27.274439" lon="151.290064">
  <ele>343.1</ele>
  <time>2026-09-01T19:58:12Z</time>
  <course>270.0</course>
  <speed>0.0</speed>
  <fix>3d</fix>
</trkpt>
<trkpt lat="-27.274439" lon="151.290064">
  <ele>343.09</ele>
  <time>2026-09-01T19:58:12Z</time>
  <course>10.85</course>
  <speed>0.0</speed>
  <fix>3d</fix>
</trkpt>
<trkpt lat="-27.274439" lon="151.290064">
  <ele>343.1</ele>
  <time>2026-09-01T19:58:12Z</time>
  <course>270.0</course>
  <speed>0.0</speed>
  <fix>3d</fix>
</trkpt>
<trkpt lat="-27.274439" lon="151.290064">
  <ele>343.23</ele>
  <time>2026-09-01T19:58:12Z</time>
  <course>10.85</course>
  <speed>0.0</speed>
  <fix>3d</fix>
</trkpt>
<trkpt lat="-27.274439" lon="151.290064">
  <ele>343.1</ele>
  <time>2026-09-01T19:58:12Z</time>
  <course>270.0</course>
  <speed>0.0</speed>
  <fix>3d</fix>
</trkpt>
<trkpt lat="-27.274439" lon="151.290064">
  <ele>343.05</ele>
  <time>2026-09-01T19:58:12Z</time>
  <course>10.86</course>
  <speed>0.0</speed>
  <fix>3d</fix>
</trkpt>
<trkpt lat="-27.274439" lon="151.290064">
  <ele>343.1</ele>
  <time>2026-09-01T19:58:12Z</time>
  <course>270.0</course>
  <speed>0.0</speed>
  <fix>3d</fix>
</trkpt>
<trkpt lat="-27.274439" lon="151.290064">
  <ele>343.12</ele>
  <time>2026-09-01T19:58:12Z</time>
  <course>10.87</course>
  <speed>0.0</speed>
  <fix>3d</fix>
</trkpt>
<trkpt lat="-27.274439" lon="151.290064">
  <ele>343.1</ele>
  <time>2026-09-01T19:58:12Z</time>
  <course>270.0</course>
  <speed>0.0</speed>
  <fix>3d</fix>
</trkpt>
<trkpt lat="-27.274439" lon="151.290064">
  <ele>343.25</ele>
  <time>2026-09-01T19:58:12Z</time>
  <course>10.88</course>
  <speed>0.0</speed>
  <fix>3d</fix>
</trkpt>
<trkpt lat="-27.274439" lon="151.290064">
  <ele>343.1</ele>
  <time>2026-09-01T19:58:12Z</time>
  <course>270.0</course>
  <speed>0.0</speed>
  <fix>3d</fix>
</trkpt>
<trkpt lat="-27.274439" lon="151.290064">
  <ele>343.31</ele>
  <time>2026-09-01T19:58:12Z</time>
  <course>10.89</course>
  <speed>0.0</speed>
  <fix>3d</fix>
</trkpt>
<trkpt lat="-27.274439" lon="151.290064">
  <ele>343.1</ele>
  <time>2026-09-01T19:58:12Z</time>
  <course>270.0</course>
  <speed>0.0</speed>
  <fix>3d</fix>
</trkpt>
<trkpt lat="-27.274439" lon="151.290064">
  <ele>342.97</ele>
  <time>2026-09-01T19:58:12Z</time>
  <course>10.89</course>
  <speed>0.0</speed>
  <fix>3d</fix>
</trkpt>
<trkpt lat="-27.274439" lon="151.290064">
  <ele>343.1</ele>
  <time>2026-09-01T19:58:12Z</time>
  <course>270.0</course>
  <speed>0.0</speed>
  <fix>3d</fix>
</trkpt>
<trkpt lat="-27.274439" lon="151.290064">
  <ele>343.16</ele>
  <time>2026-09-01T19:58:12Z</time>
  <course>10.9</course>
  <speed>0.0</speed>
  <fix>3d</fix>
</trkpt>
<trkpt lat="-27.274439" lon="151.290064">
  <ele>343.1</ele>
  <time>2026-09-01T19:58:12Z</time>
  <course>270.0</course>
  <speed>0.0</speed>
  <fix>3d</fix>
</trkpt>
<trkpt lat="-27.274439" lon="151.290064">
  <ele>343.05</ele>
  <time>2026-09-01T19:58:12Z</time>
  <course>10.91</course>
  <speed>0.0</speed>
  <fix>3d</fix>
</trkpt>
<trkpt lat="-27.274439" lon="151.290064">
  <ele>343.1</ele>
  <time>2026-09-01T19:58:12Z</time>
  <course>270.0</course>
  <speed>0.0</speed>
  <fix>3d</fix>
</trkpt>
<trkpt lat="-27.274439" lon="151.290064">
  <ele>343.27</ele>
  <time>2026-09-01T19:58:12Z</time>
  <course>10.92</course>
  <speed>0.0</speed>
  <fix>3d</fix>
</trkpt>
<trkpt lat="-27.274439" lon="151.290064">
  <ele>343.1</ele>
  <time>2026-09-01T19:58:12Z</time>
  <course>270.0</course>
  <speed>0.0</speed>
  <fix>3d</fix>
</trkpt>
<trkpt lat="-27.274439" lon="151.290064">
  <ele>343.09</ele>
  <time>2026-09-01T19:58:12Z</time>
  <course>10.92</course>
  <speed>0.0</speed>
  <fix>3d</fix>
</trkpt>
<trkpt lat="-27.274439" lon="151.290064">
  <ele>343.1</ele>
  <time>2026-09-01T19:58:12Z</time>
  <course>270.0</course>
  <speed>0.0</speed>
  <fix>3d</fix>
</trkpt>
<trkpt lat="-27.274439" lon="151.290064">
  <ele>343.12</ele>
  <time>2026-09-01T19:58:12Z</time>
  <course>10.93</course>
  <speed>0.0</speed>
  <fix>3d</fix>
</trkpt>
<trkpt lat="-27.274439" lon="151.290064">
  <ele>343.1</ele>
  <time>2026-09-01T19:58:12Z</time>
  <course>270.0</course>
  <speed>0.0</speed>
  <fix>3d</fix>
</trkpt>
<trkpt lat="-27.274439" lon="151.290064">
  <ele>342.95</ele>
  <time>2026-09-01T19:58:12Z</time>
  <course>10.94</course>
  <speed>0.0</speed>
  <fix>3d</fix>
</trkpt>
<trkpt lat="-27.274439" lon="151.290064">
  <ele>343.1</ele>
  <time>2026-09-01T19:58:12Z</time>
  <course>270.0</course>
  <speed>0.0</speed>
  <fix>3d</fix>
</trkpt>
<trkpt lat="-27.274439" lon="151.290064">
  <ele>343.19</ele>
  <time>2026-09-01T19:58:12Z</time>
  <course>10.95</course>
  <speed>0.0</speed>
  <fix>3d</fix>
</trkpt>
<trkpt lat="-27.274439" lon="151.290064">
  <ele>343.1</ele>
  <time>2026-09-01T19:58:12Z</time>
  <course>270.0</course>
  <speed>0.0</speed>
  <fix>3d</fix>
</trkpt>
<trkpt lat="-27.274439" lon="151.290064">
  <ele>343.02</ele>
  <time>2026-09-01T19:58:12Z</time>
  <course>10.95</course>
  <speed>0.0</speed>
  <fix>3d</fix>
</trkpt>
<trkpt lat="-27.274439" lon="151.290064">
  <ele>343.1</ele>
  <time>2026-09-01T19:58:12Z</time>
  <course>270.0</course>
  <speed>0.0</speed>
  <fix>3d</fix>
</trkpt>
<trkpt lat="-27.274439" lon="151.290064">
  <ele>343.25</ele>
  <time>2026-09-01T19:58:12Z</time>
  <course>10.96</course>
  <speed>0.0</speed>
  <fix>3d</fix>
</trkpt>
<trkpt lat="-27.274439" lon="151.290064">
  <ele>343.1</ele>
  <time>2026-09-01T19:58:12Z</time>
  <course>270.0</course>
  <speed>0.0</speed>
  <fix>3d</fix>
</trkpt>
<trkpt lat="-27.274439" lon="151.290064">
  <ele>342.94</ele>
  <time>2026-09-01T19:58:12Z</time>
  <course>10.97</course>
  <speed>0.0</speed>
  <fix>3d</fix>
</trkpt>
<trkpt lat="-27.274439" lon="151.290064">
  <ele>343.1</ele>
  <time>2026-09-01T19:58:12Z</time>
  <course>270.0</course>
  <speed>0.0</speed>
  <fix>3d</fix>
</trkpt>
<trkpt lat="-27.274439" lon="151.290064">
  <ele>343.12</ele>
  <time>2026-09-01T19:58:12Z</time>
  <course>10.97</course>
  <speed>0.0</speed>
  <fix>3d</fix>
</trkpt>
<trkpt lat="-27.274439" lon="151.290064">
  <ele>343.1</ele>
  <time>2026-09-01T19:58:12Z</time>
  <course>270.0</course>
  <speed>0.0</speed>
  <fix>3d</fix>
</trkpt>
<trkpt lat="-27.274439" lon="151.290064">
  <ele>343.01</ele>
  <time>2026-09-01T19:58:12Z</time>
  <course>10.98</course>
  <speed>0.0</speed>
  <fix>3d</fix>
</trkpt>
<trkpt lat="-27.274439" lon="151.290064">
  <ele>343.1</ele>
  <time>2026-09-01T19:58:12Z</time>
  <course>270.0</course>
  <speed>0.0</speed>
  <fix>3d</fix>
</trkpt>
<trkpt lat="-27.274439" lon="151.290064">
  <ele>343.13</ele>
  <time>2026-09-01T19:58:12Z</time>
  <course>10.98</course>
  <speed>0.0</speed>
  <fix>3d</fix>
</trkpt>
<trkpt lat="-27.274439" lon="151.290064">
  <ele>343.1</ele>
  <time>2026-09-01T19:58:12Z</time>
  <course>270.0</course>
  <speed>0.0</speed>
  <fix>3d</fix>
</trkpt>
<trkpt lat="-27.274439" lon="151.290064">
  <ele>343.18</ele>
  <time>2026-09-01T19:58:12Z</time>
  <course>10.99</course>
  <speed>0.0</speed>
  <fix>3d</fix>
</trkpt>
<trkpt lat="-27.274439" lon="151.290064">
  <ele>343.1</ele>
  <time>2026-09-01T19:58:12Z</time>
  <course>270.0</course>
  <speed>0.0</speed>
  <fix>3d</fix>
</trkpt>
<trkpt lat="-27.274439" lon="151.290064">
  <ele>342.97</ele>
  <time>2026-09-01T19:58:12Z</time>
  <course>11.0</course>
  <speed>0.0</speed>
  <fix>3d</fix>
</trkpt>
<trkpt lat="-27.274439" lon="151.290064">
  <ele>343.1</ele>
  <time>2026-09-01T19:58:12Z</time>
  <course>270.0</course>
  <speed>0.0</speed>
  <fix>3d</fix>
</trkpt>
<trkpt lat="-27.274439" lon="151.290064">
  <ele>343.14</ele>
  <time>2026-09-01T19:58:12Z</time>
  <course>11.0</course>
  <speed>0.0</speed>
  <fix>3d</fix>
</trkpt>
<trkpt lat="-27.274439" lon="151.290064">
  <ele>343.1</ele>
  <time>2026-09-01T19:58:12Z</time>
  <course>270.0</course>
  <speed>0.0</speed>
  <fix>3d</fix>
</trkpt>
<trkpt lat="-27.274439" lon="151.290064">
  <ele>342.96</ele>
  <time>2026-09-01T19:58:12Z</time>
  <course>11.01</course>
  <speed>0.0</speed>
  <fix>3d</fix>
</trkpt>
<trkpt lat="-27.274439" lon="151.290064">
  <ele>343.1</ele>
  <time>2026-09-01T19:58:12Z</time>
  <course>270.0</course>
  <speed>0.0</speed>
  <fix>3d</fix>
</trkpt>
<trkpt lat="-27.274439" lon="151.290064">
  <ele>343.3</ele>
  <time>2026-09-01T19:58:12Z</time>
  <course>11.01</course>
  <speed>0.0</speed>
  <fix>3d</fix>
</trkpt>
<trkpt lat="-27.274439" lon="151.290064">
  <ele>343.1</ele>
  <time>2026-09-01T19:58:12Z</time>
  <course>270.0</course>
  <speed>0.0</speed>
  <fix>3d</fix>
</trkpt>
<trkpt lat="-27.274439" lon="151.290064">
  <ele>343.22</ele>
  <time>2026-09-01T19:58:12Z</time>
  <course>11.02</course>
  <speed>0.0</speed>
  <fix>3d</fix>
</trkpt>
<trkpt lat="-27.274439" lon="151.290064">
  <ele>343.1</ele>
  <time>2026-09-01T19:58:12Z</time>
  <course>270.0</course>
  <speed>0.0</speed>
  <fix>3d</fix>
</trkpt>
<trkpt lat="-27.274439" lon="151.290064">
  <ele>343.08</ele>
  <time>2026-09-01T19:58:12Z</time>
  <course>11.02</course>
  <speed>0.0</speed>
  <fix>3d</fix>
</trkpt>
<trkpt lat="-27.274439" lon="151.290064">
  <ele>343.1</ele>
  <time>2026-09-01T19:58:12Z</time>
  <course>270.0</course>
  <speed>0.0</speed>
  <fix>3d</fix>
</trkpt>
<trkpt lat="-27.274439" lon="151.290064">
  <ele>343.23</ele>
  <time>2026-09-01T19:58:12Z</time>
  <course>11.03</course>
  <speed>0.0</speed>
  <fix>3d</fix>
</trkpt>
<trkpt lat="-27.274439" lon="151.290064">
  <ele>343.1</ele>
  <time>2026-09-01T19:58:12Z</time>
  <course>270.0</course>
  <speed>0.0</speed>
  <fix>3d</fix>
</trkpt>
<trkpt lat="-27.274439" lon="151.290064">
  <ele>343.33</ele>
  <time>2026-09-01T19:58:12Z</time>
  <course>11.04</course>
  <speed>0.0</speed>
  <fix>3d</fix>
</trkpt>
<trkpt lat="-27.274439" lon="151.290064">
  <ele>343.1</ele>
  <time>2026-09-01T19:58:12Z</time>
  <course>270.0</course>
  <speed>0.0</speed>
  <fix>3d</fix>
</trkpt>
<trkpt lat="-27.274439" lon="151.290064">
  <ele>343.05</ele>
  <time>2026-09-01T19:58:12Z</time>
  <course>11.04</course>
  <speed>0.0</speed>
  <fix>3d</fix>
</trkpt>
<trkpt lat="-27.274439" lon="151.290064">
  <ele>343.1</ele>
  <time>2026-09-01T19:58:12Z</time>
  <course>270.0</course>
  <speed>0.0</speed>
  <fix>3d</fix>
</trkpt>
<trkpt lat="-27.274439" lon="151.290064">
  <ele>343.16</ele>
  <time>2026-09-01T19:58:12Z</time>
  <course>11.05</course>
  <speed>0.0</speed>
  <fix>3d</fix>
</trkpt>
<trkpt lat="-27.274439" lon="151.290064">
  <ele>343.1</ele>
  <time>2026-09-01T19:58:12Z</time>
  <course>270.0</course>
  <speed>0.0</speed>
  <fix>3d</fix>
</trkpt>
<trkpt lat="-27.274439" lon="151.290064">
  <ele>343.16</ele>
  <time>2026-09-01T19:58:12Z</time>
  <course>11.05</course>
  <speed>0.0</speed>
  <fix>3d</fix>
</trkpt>
<trkpt lat="-27.274439" lon="151.290064">
  <ele>343.1</ele>
  <time>2026-09-01T19:58:12Z</time>
  <course>270.0</course>
  <speed>0.0</speed>
  <fix>3d</fix>
</trkpt>
<trkpt lat="-27.274439" lon="151.290064">
  <ele>343.08</ele>
  <time>2026-09-01T19:58:12Z</time>
  <course>11.06</course>
  <speed>0.0</speed>
  <fix>3d</fix>
</trkpt>
<trkpt lat="-27.274439" lon="151.290064">
  <ele>343.1</ele>
  <time>2026-09-01T19:58:12Z</time>
  <course>270.0</course>
  <speed>0.0</speed>
  <fix>3d</fix>
</trkpt>
<trkpt lat="-27.274439" lon="151.290064">
  <ele>343.17</ele>
  <time>2026-09-01T19:58:12Z</time>
  <course>11.06</course>
  <speed>0.0</speed>
  <fix>3d</fix>
</trkpt>
<trkpt lat="-27.274439" lon="151.290064">
  <ele>343.1</ele>
  <time>2026-09-01T19:58:12Z</time>
  <course>270.0</course>
  <speed>0.0</speed>
  <fix>3d</fix>
</trkpt>
<trkpt lat="-27.274439" lon="151.290064">
  <ele>343.22</ele>
  <time>2026-09-01T19:58:12Z</time>
  <course>11.07</course>
  <speed>0.0</speed>
  <fix>3d</fix>
</trkpt>
<trkpt lat="-27.274439" lon="151.290064">
  <ele>343.1</ele>
  <time>2026-09-01T19:58:12Z</time>
  <course>270.0</course>
  <speed>0.0</speed>
  <fix>3d</fix>
</trkpt>
<trkpt lat="-27.274439" lon="151.290064">
  <ele>343.01</ele>
  <time>2026-09-01T19:58:12Z</time>
  <course>11.07</course>
  <speed>0.0</speed>
  <fix>3d</fix>
</trkpt>
<trkpt lat="-27.274439" lon="151.290064">
  <ele>343.1</ele>
  <time>2026-09-01T19:58:12Z</time>
  <course>270.0</course>
  <speed>0.0</speed>
  <fix>3d</fix>
</trkpt>
<trkpt lat="-27.274439" lon="151.290064">
  <ele>343.26</ele>
  <time>2026-09-01T19:58:12Z</time>
  <course>11.08</course>
  <speed>0.0</speed>
  <fix>3d</fix>
</trkpt>
<trkpt lat="-27.274439" lon="151.290064">
  <ele>343.1</ele>
  <time>2026-09-01T19:58:12Z</time>
  <course>270.0</course>
  <speed>0.0</speed>
  <fix>3d</fix>
</trkpt>
<trkpt lat="-27.274439" lon="151.290064">
  <ele>343.28</ele>
  <time>2026-09-01T19:58:12Z</time>
  <course>11.08</course>
  <speed>0.0</speed>
  <fix>3d</fix>
</trkpt>
<trkpt lat="-27.274439" lon="151.290064">
  <ele>343.1</ele>
  <time>2026-09-01T19:58:12Z</time>
  <course>270.0</course>
  <speed>0.0</speed>
  <fix>3d</fix>
</trkpt>
<trkpt lat="-27.274439" lon="151.290064">
  <ele>343.34</ele>
  <time>2026-09-01T19:58:12Z</time>
  <course>11.09</course>
  <speed>0.0</speed>
  <fix>3d</fix>
</trkpt>
<trkpt lat="-27.274439" lon="151.290064">
  <ele>343.1</ele>
  <time>2026-09-01T19:58:12Z</time>
  <course>270.0</course>
  <speed>0.0</speed>
  <fix>3d</fix>
</trkpt>
<trkpt lat="-27.274439" lon="151.290064">
  <ele>343.1</ele>
  <time>2026-09-01T19:58:12Z</time>
  <course>11.09</course>
  <speed>0.0</speed>
  <fix>3d</fix>
</trkpt>
<trkpt lat="-27.274439" lon="151.290064">
  <ele>343.1</ele>
  <time>2026-09-01T19:58:12Z</time>
  <course>270.0</course>
  <speed>0.0</speed>
  <fix>3d</fix>
</trkpt>
<trkpt lat="-27.274439" lon="151.290064">
  <ele>342.96</ele>
  <time>2026-09-01T19:58:12Z</time>
  <course>11.09</course>
  <speed>0.0</speed>
  <fix>3d</fix>
</trkpt>
<trkpt lat="-27.274439" lon="151.290064">
  <ele>343.1</ele>
  <time>2026-09-01T19:58:12Z</time>
  <course>270.0</course>
  <speed>0.0</speed>
  <fix>3d</fix>
</trkpt>
<trkpt lat="-27.274439" lon="151.290064">
  <ele>343.03</ele>
  <time>2026-09-01T19:58:12Z</time>
  <course>11.1</course>
  <speed>0.0</speed>
  <fix>3d</fix>
</trkpt>
<trkpt lat="-27.274439" lon="151.290064">
  <ele>343.1</ele>
  <time>2026-09-01T19:58:12Z</time>
  <course>270.0</course>
  <speed>0.0</speed>
  <fix>3d</fix>
</trkpt>
<trkpt lat="-27.274439" lon="151.290064">
  <ele>343.23</ele>
  <time>2026-09-01T19:58:12Z</time>
  <course>11.1</course>
  <speed>0.0</speed>
  <fix>3d</fix>
</trkpt>
<trkpt lat="-27.274439" lon="151.290064">
  <ele>343.1</ele>
  <time>2026-09-01T19:58:12Z</time>
  <course>270.0</course>
  <speed>0.0</speed>
  <fix>3d</fix>
</trkpt>
<trkpt lat="-27.274439" lon="151.290064">
  <ele>343.14</ele>
  <time>2026-09-01T19:58:12Z</time>
  <course>11.11</course>
  <speed>0.0</speed>
  <fix>3d</fix>
</trkpt>
<trkpt lat="-27.274439" lon="151.290064">
  <ele>343.1</ele>
  <time>2026-09-01T19:58:12Z</time>
  <course>270.0</course>
  <speed>0.0</speed>
  <fix>3d</fix>
</trkpt>
<trkpt lat="-27.274439" lon="151.290064">
  <ele>343.13</ele>
  <time>2026-09-01T19:58:12Z</time>
  <course>11.11</course>
  <speed>0.0</speed>
  <fix>3d</fix>
</trkpt>
<trkpt lat="-27.274439" lon="151.290064">
  <ele>343.1</ele>
  <time>2026-09-01T19:58:12Z</time>
  <course>270.0</course>
  <speed>0.0</speed>
  <fix>3d</fix>
</trkpt>
<trkpt lat="-27.274439" lon="151.290064">
  <ele>343.03</ele>
  <time>2026-09-01T19:58:12Z</time>
  <course>11.12</course>
  <speed>0.0</speed>
  <fix>3d</fix>
</trkpt>
<trkpt lat="-27.274439" lon="151.290064">
  <ele>343.1</ele>
  <time>2026-09-01T19:58:12Z</time>
  <course>270.0</course>
  <speed>0.0</speed>
  <fix>3d</fix>
</trkpt>
<trkpt lat="-27.274439" lon="151.290064">
  <ele>343.15</ele>
  <time>2026-09-01T19:58:12Z</time>
  <course>11.12</course>
  <speed>0.0</speed>
  <fix>3d</fix>
</trkpt>
<trkpt lat="-27.274439" lon="151.290064">
  <ele>343.1</ele>
  <time>2026-09-01T19:58:12Z</time>
  <course>270.0</course>
  <speed>0.0</speed>
  <fix>3d</fix>
</trkpt>
<trkpt lat="-27.274439" lon="151.290064">
  <ele>343.14</ele>
  <time>2026-09-01T19:58:12Z</time>
  <course>11.13</course>
  <speed>0.0</speed>
  <fix>3d</fix>
</trkpt>
<trkpt lat="-27.274439" lon="151.290064">
  <ele>343.1</ele>
  <time>2026-09-01T19:58:12Z</time>
  <course>270.0</course>
  <speed>0.0</speed>
  <fix>3d</fix>
</trkpt>
<trkpt lat="-27.274439" lon="151.290064">
  <ele>343.17</ele>
  <time>2026-09-01T19:58:12Z</time>
  <course>11.13</course>
  <speed>0.0</speed>
  <fix>3d</fix>
</trkpt>
<trkpt lat="-27.274439" lon="151.290064">
  <ele>343.1</ele>
  <time>2026-09-01T19:58:12Z</time>
  <course>270.0</course>
  <speed>0.0</speed>
  <fix>3d</fix>
</trkpt>
<trkpt lat="-27.274439" lon="151.290064">
  <ele>342.95</ele>
  <time>2026-09-01T19:58:12Z</time>
  <course>11.13</course>
  <speed>0.0</speed>
  <fix>3d</fix>
</trkpt>
<trkpt lat="-27.274439" lon="151.290064">
  <ele>343.1</ele>
  <time>2026-09-01T19:58:12Z</time>
  <course>270.0</course>
  <speed>0.0</speed>
  <fix>3d</fix>
</trkpt>
<trkpt lat="-27.274439" lon="151.290064">
  <ele>343.06</ele>
  <time>2026-09-01T19:58:12Z</time>
  <course>11.14</course>
  <speed>0.0</speed>
  <fix>3d</fix>
</trkpt>
<trkpt lat="-27.274439" lon="151.290064">
  <ele>343.1</ele>
  <time>2026-09-01T19:58:12Z</time>
  <course>270.0</course>
  <speed>0.0</speed>
  <fix>3d</fix>
</trkpt>
<trkpt lat="-27.274439" lon="151.290064">
  <ele>343.11</ele>
  <time>2026-09-01T19:58:12Z</time>
  <course>11.14</course>
  <speed>0.0</speed>
  <fix>3d</fix>
</trkpt>
<trkpt lat="-27.274439" lon="151.290064">
  <ele>343.1</ele>
  <time>2026-09-01T19:58:12Z</time>
  <course>270.0</course>
  <speed>0.0</speed>
  <fix>3d</fix>
</trkpt>
<trkpt lat="-27.274439" lon="151.290064">
  <ele>343.3</ele>
  <time>2026-09-01T19:58:12Z</time>
  <course>11.15</course>
  <speed>0.0</speed>
  <fix>3d</fix>
</trkpt>
<trkpt lat="-27.274439" lon="151.290064">
  <ele>343.1</ele>
  <time>2026-09-01T19:58:12Z</time>
  <course>270.0</course>
  <speed>0.0</speed>
  <fix>3d</fix>
</trkpt>
<trkpt lat="-27.274439" lon="151.290064">
  <ele>343.03</ele>
  <time>2026-09-01T19:58:12Z</time>
  <course>11.15</course>
  <speed>0.0</speed>
  <fix>3d</fix>
</trkpt>
<trkpt lat="-27.274439" lon="151.290064">
  <ele>343.1</ele>
  <time>2026-09-01T19:58:12Z</time>
  <course>270.0</course>
  <speed>0.0</speed>
  <fix>3d</fix>
</trkpt>
<trkpt lat="-27.274439" lon="151.290064">
  <ele>343.13</ele>
  <time>2026-09-01T19:58:12Z</time>
  <course>11.15</course>
  <speed>0.0</speed>
  <fix>3d</fix>
</trkpt>
<trkpt lat="-27.274439" lon="151.290064">
  <ele>343.1</ele>
  <time>2026-09-01T19:58:12Z</time>
  <course>270.0</course>
  <speed>0.0</speed>
  <fix>3d</fix>
</trkpt>
<trkpt lat="-27.274439" lon="151.290064">
  <ele>343.02</ele>
  <time>2026-09-01T19:58:12Z</time>
  <course>11.16</course>
  <speed>0.0</speed>
  <fix>3d</fix>
</trkpt>
<trkpt lat="-27.274439" lon="151.290064">
  <ele>343.1</ele>
  <time>2026-09-01T19:58:12Z</time>
  <course>270.0</course>
  <speed>0.0</speed>
  <fix>3d</fix>
</trkpt>
<trkpt lat="-27.274439" lon="151.290064">
  <ele>343.17</ele>
  <time>2026-09-01T19:58:12Z</time>
  <course>11.16</course>
  <speed>0.0</speed>
  <fix>3d</fix>
</trkpt>
<trkpt lat="-27.274439" lon="151.290064">
  <ele>343.1</ele>
  <time>2026-09-01T19:58:12Z</time>
  <course>270.0</course>
  <speed>0.0</speed>
  <fix>3d</fix>
</trkpt>
<trkpt lat="-27.274439" lon="151.290064">
  <ele>343.26</ele>
  <time>2026-09-01T19:58:12Z</time>
  <course>11.17</course>
  <speed>0.0</speed>
  <fix>3d</fix>
</trkpt>
<trkpt lat="-27.274439" lon="151.290064">
  <ele>343.1</ele>
  <time>2026-09-01T19:58:12Z</time>
  <course>270.0</course>
  <speed>0.0</speed>
  <fix>3d</fix>
</trkpt>
<trkpt lat="-27.274439" lon="151.290064">
  <ele>343.29</ele>
  <time>2026-09-01T19:58:12Z</time>
  <course>11.17</course>
  <speed>0.0</speed>
  <fix>3d</fix>
</trkpt>
<trkpt lat="-27.274439" lon="151.290064">
  <ele>343.1</ele>
  <time>2026-09-01T19:58:12Z</time>
  <course>270.0</course>
  <speed>0.0</speed>
  <fix>3d</fix>
</trkpt>
<trkpt lat="-27.274439" lon="151.290064">
  <ele>343.13</ele>
  <time>2026-09-01T19:58:12Z</time>
  <course>11.17</course>
  <speed>0.0</speed>
  <fix>3d</fix>
</trkpt>
<trkpt lat="-27.274439" lon="151.290064">
  <ele>343.1</ele>
  <time>2026-09-01T19:58:12Z</time>
  <course>270.0</course>
  <speed>0.0</speed>
  <fix>3d</fix>
</trkpt>
<trkpt lat="-27.274439" lon="151.290064">
  <ele>343.1</ele>
  <time>2026-09-01T19:58:12Z</time>
  <course>11.18</course>
  <speed>0.0</speed>
  <fix>3d</fix>
</trkpt>
<trkpt lat="-27.274439" lon="151.290064">
  <ele>343.1</ele>
  <time>2026-09-01T19:58:12Z</time>
  <course>270.0</course>
  <speed>0.0</speed>
  <fix>3d</fix>
</trkpt>
<trkpt lat="-27.274439" lon="151.290064">
  <ele>343.2</ele>
  <time>2026-09-01T19:58:12Z</time>
  <course>11.18</course>
  <speed>0.0</speed>
  <fix>3d</fix>
</trkpt>
<trkpt lat="-27.274439" lon="151.290064">
  <ele>343.1</ele>
  <time>2026-09-01T19:58:12Z</time>
  <course>270.0</course>
  <speed>0.0</speed>
  <fix>3d</fix>
</trkpt>
<trkpt lat="-27.274439" lon="151.290064">
  <ele>343.09</ele>
  <time>2026-09-01T19:58:12Z</time>
  <course>11.18</course>
  <speed>0.0</speed>
  <fix>3d</fix>
</trkpt>
<trkpt lat="-27.274439" lon="151.290064">
  <ele>343.1</ele>
  <time>2026-09-01T19:58:12Z</time>
  <course>270.0</course>
  <speed>0.0</speed>
  <fix>3d</fix>
</trkpt>
<trkpt lat="-27.274439" lon="151.290064">
  <ele>343.11</ele>
  <time>2026-09-01T19:58:12Z</time>
  <course>11.19</course>
  <speed>0.0</speed>
  <fix>3d</fix>
</trkpt>
<trkpt lat="-27.274439" lon="151.290064">
  <ele>343.1</ele>
  <time>2026-09-01T19:58:12Z</time>
  <course>270.0</course>
  <speed>0.0</speed>
  <fix>3d</fix>
</trkpt>
<trkpt lat="-27.274439" lon="151.290064">
  <ele>343.21</ele>
  <time>2026-09-01T19:58:12Z</time>
  <course>11.19</course>
  <speed>0.0</speed>
  <fix>3d</fix>
</trkpt>
<trkpt lat="-27.274439" lon="151.290064">
  <ele>343.1</ele>
  <time>2026-09-01T19:58:12Z</time>
  <course>270.0</course>
  <speed>0.0</speed>
  <fix>3d</fix>
</trkpt>
<trkpt lat="-27.274439" lon="151.290064">
  <ele>343.22</ele>
  <time>2026-09-01T19:58:12Z</time>
  <course>11.19</course>
  <speed>0.0</speed>
  <fix>3d</fix>
</trkpt>
<trkpt lat="-27.274439" lon="151.290064">
  <ele>343.1</ele>
  <time>2026-09-01T19:58:12Z</time>
  <course>270.0</course>
  <speed>0.0</speed>
  <fix>3d</fix>
</trkpt>
<trkpt lat="-27.274439" lon="151.290064">
  <ele>342.98</ele>
  <time>2026-09-01T19:58:12Z</time>
  <course>11.2</course>
  <speed>0.0</speed>
  <fix>3d</fix>
</trkpt>
<trkpt lat="-27.274439" lon="151.290064">
  <ele>343.1</ele>
  <time>2026-09-01T19:58:12Z</time>
  <course>270.0</course>
  <speed>0.0</speed>
  <fix>3d</fix>
</trkpt>
<trkpt lat="-27.274439" lon="151.290064">
  <ele>343.15</ele>
  <time>2026-09-01T19:58:12Z</time>
  <course>11.2</course>
  <speed>0.0</speed>
  <fix>3d</fix>
</trkpt>
<trkpt lat="-27.274439" lon="151.290064">
  <ele>343.1</ele>
  <time>2026-09-01T19:58:12Z</time>
  <course>270.0</course>
  <speed>0.0</speed>
  <fix>3d</fix>
</trkpt>
<trkpt lat="-27.274439" lon="151.290064">
  <ele>343.28</ele>
  <time>2026-09-01T19:58:12Z</time>
  <course>11.2</course>
  <speed>0.0</speed>
  <fix>3d</fix>
</trkpt>
<trkpt lat="-27.274439" lon="151.290064">
  <ele>343.1</ele>
  <time>2026-09-01T19:58:12Z</time>
  <course>270.0</course>
  <speed>0.0</speed>
  <fix>3d</fix>
</trkpt>
<trkpt lat="-27.274439" lon="151.290064">
  <ele>343.3</ele>
  <time>2026-09-01T19:58:12Z</time>
  <course>11.2</course>
  <speed>0.0</speed>
  <fix>3d</fix>
</trkpt>
<trkpt lat="-27.274439" lon="151.290064">
  <ele>343.1</ele>
  <time>2026-09-01T19:58:12Z</time>
  <course>270.0</course>
  <speed>0.0</speed>
  <fix>3d</fix>
</trkpt>
<trkpt lat="-27.274439" lon="151.290064">
  <ele>343.33</ele>
  <time>2026-09-01T19:58:12Z</time>
  <course>11.2</course>
  <speed>0.0</speed>
  <fix>3d</fix>
</trkpt>
<trkpt lat="-27.274439" lon="151.290064">
  <ele>343.1</ele>
  <time>2026-09-01T19:58:12Z</time>
  <course>270.0</course>
  <speed>0.0</speed>
  <fix>3d</fix>
</trkpt>
<trkpt lat="-27.274439" lon="151.290064">
  <ele>342.96</ele>
  <time>2026-09-01T19:58:12Z</time>
  <course>11.21</course>
  <speed>0.0</speed>
  <fix>3d</fix>
</trkpt>
<trkpt lat="-27.274439" lon="151.290064">
  <ele>343.1</ele>
  <time>2026-09-01T19:58:12Z</time>
  <course>270.0</course>
  <speed>0.0</speed>
  <fix>3d</fix>
</trkpt>
<trkpt lat="-27.274439" lon="151.290064">
  <ele>342.97</ele>
  <time>2026-09-01T19:58:12Z</time>
  <course>11.21</course>
  <speed>0.0</speed>
  <fix>3d</fix>
</trkpt>
<trkpt lat="-27.274439" lon="151.290064">
  <ele>343.1</ele>
  <time>2026-09-01T19:58:12Z</time>
  <course>270.0</course>
  <speed>0.0</speed>
  <fix>3d</fix>
</trkpt>
<trkpt lat="-27.274439" lon="151.290064">
  <ele>342.83</ele>
  <time>2026-09-01T19:58:12Z</time>
  <course>11.21</course>
  <speed>0.0</speed>
  <fix>3d</fix>
</trkpt>
<trkpt lat="-27.274439" lon="151.290064">
  <ele>343.1</ele>
  <time>2026-09-01T19:58:12Z</time>
  <course>270.0</course>
  <speed>0.0</speed>
  <fix>3d</fix>
</trkpt>
<trkpt lat="-27.274439" lon="151.290064">
  <ele>342.84</ele>
  <time>2026-09-01T19:58:12Z</time>
  <course>11.21</course>
  <speed>0.0</speed>
  <fix>3d</fix>
</trkpt>
<trkpt lat="-27.274439" lon="151.290064">
  <ele>343.1</ele>
  <time>2026-09-01T19:58:12Z</time>
  <course>270.0</course>
  <speed>0.0</speed>
  <fix>3d</fix>
</trkpt>
<trkpt lat="-27.274439" lon="151.290064">
  <ele>342.75</ele>
  <time>2026-09-01T19:58:12Z</time>
  <course>11.21</course>
  <speed>0.0</speed>
  <fix>3d</fix>
</trkpt>
<trkpt lat="-27.274439" lon="151.290064">
  <ele>343.1</ele>
  <time>2026-09-01T19:58:12Z</time>
  <course>270.0</course>
  <speed>0.0</speed>
  <fix>3d</fix>
</trkpt>
<trkpt lat="-27.274439" lon="151.290064">
  <ele>343.03</ele>
  <time>2026-09-01T19:58:12Z</time>
  <course>11.21</course>
  <speed>0.0</speed>
  <fix>3d</fix>
</trkpt>
<trkpt lat="-27.274439" lon="151.290064">
  <ele>343.1</ele>
  <time>2026-09-01T19:58:12Z</time>
  <course>270.0</course>
  <speed>0.0</speed>
  <fix>3d</fix>
</trkpt>
<trkpt lat="-27.274439" lon="151.290064">
  <ele>342.8</ele>
  <time>2026-09-01T19:58:12Z</time>
  <course>11.21</course>
  <speed>0.0</speed>
  <fix>3d</fix>
</trkpt>
<trkpt lat="-27.274439" lon="151.290064">
  <ele>343.1</ele>
  <time>2026-09-01T19:58:12Z</time>
  <course>270.0</course>
  <speed>0.0</speed>
  <fix>3d</fix>
</trkpt>
<trkpt lat="-27.274439" lon="151.290064">
  <ele>343.05</ele>
  <time>2026-09-01T19:58:12Z</time>
  <course>11.21</course>
  <speed>0.0</speed>
  <fix>3d</fix>
</trkpt>
<trkpt lat="-27.274439" lon="151.290064">
  <ele>343.1</ele>
  <time>2026-09-01T19:58:12Z</time>
  <course>270.0</course>
  <speed>0.0</speed>
  <fix>3d</fix>
</trkpt>
<trkpt lat="-27.274439" lon="151.290064">
  <ele>343.03</ele>
  <time>2026-09-01T19:58:12Z</time>
  <course>11.21</course>
  <speed>0.0</speed>
  <fix>3d</fix>
</trkpt>
<trkpt lat="-27.274439" lon="151.290064">
  <ele>343.1</ele>
  <time>2026-09-01T19:58:12Z</time>
  <course>270.0</course>
  <speed>0.0</speed>
  <fix>3d</fix>
</trkpt>
<trkpt lat="-27.274439" lon="151.290064">
  <ele>342.88</ele>
  <time>2026-09-01T19:58:12Z</time>
  <course>11.21</course>
  <speed>0.0</speed>
  <fix>3d</fix>
</trkpt>
<trkpt lat="-27.274439" lon="151.290064">
  <ele>343.1</ele>
  <time>2026-09-01T19:58:12Z</time>
  <course>270.0</course>
  <speed>0.0</speed>
  <fix>3d</fix>
</trkpt>
<trkpt lat="-27.274439" lon="151.290064">
  <ele>342.83</ele>
  <time>2026-09-01T19:58:12Z</time>
  <course>11.22</course>
  <speed>0.0</speed>
  <fix>3d</fix>
</trkpt>
<trkpt lat="-27.274439" lon="151.290064">
  <ele>343.1</ele>
  <time>2026-09-01T19:58:12Z</time>
  <course>270.0</course>
  <speed>0.0</speed>
  <fix>3d</fix>
</trkpt>
<trkpt lat="-27.274439" lon="151.290064">
  <ele>342.87</ele>
  <time>2026-09-01T19:58:12Z</time>
  <course>11.22</course>
  <speed>0.0</speed>
  <fix>3d</fix>
</trkpt>
<trkpt lat="-27.274439" lon="151.290064">
  <ele>343.1</ele>
  <time>2026-09-01T19:58:12Z</time>
  <course>270.0</course>
  <speed>0.0</speed>
  <fix>3d</fix>
</trkpt>
<trkpt lat="-27.274439" lon="151.290064">
  <ele>342.78</ele>
  <time>2026-09-01T19:58:12Z</time>
  <course>11.22</course>
  <speed>0.0</speed>
  <fix>3d</fix>
</trkpt>
<trkpt lat="-27.274439" lon="151.290064">
  <ele>343.1</ele>
  <time>2026-09-01T19:58:12Z</time>
  <course>270.0</course>
  <speed>0.0</speed>
  <fix>3d</fix>
</trkpt>
<trkpt lat="-27.274439" lon="151.290064">
  <ele>342.8</ele>
  <time>2026-09-01T19:58:12Z</time>
  <course>11.22</course>
  <speed>0.0</speed>
  <fix>3d</fix>
</trkpt>
<trkpt lat="-27.274439" lon="151.290064">
  <ele>343.1</ele>
  <time>2026-09-01T19:58:12Z</time>
  <course>270.0</course>
  <speed>0.0</speed>
  <fix>3d</fix>
</trkpt>
<trkpt lat="-27.274439" lon="151.290064">
  <ele>342.9</ele>
  <time>2026-09-01T19:58:12Z</time>
  <course>11.22</course>
  <speed>0.0</speed>
  <fix>3d</fix>
</trkpt>
<trkpt lat="-27.274439" lon="151.290064">
  <ele>343.1</ele>
  <time>2026-09-01T19:58:12Z</time>
  <course>270.0</course>
  <speed>0.0</speed>
  <fix>3d</fix>
</trkpt>
<trkpt lat="-27.274439" lon="151.290064">
  <ele>342.82</ele>
  <time>2026-09-01T19:58:12Z</time>
  <course>11.22</course>
  <speed>0.0</speed>
  <fix>3d</fix>
</trkpt>
<trkpt lat="-27.274439" lon="151.290064">
  <ele>343.1</ele>
  <time>2026-09-01T19:58:12Z</time>
  <course>270.0</course>
  <speed>0.0</speed>
  <fix>3d</fix>
</trkpt>
<trkpt lat="-27.274439" lon="151.290064">
  <ele>342.8</ele>
  <time>2026-09-01T19:58:12Z</time>
  <course>11.22</course>
  <speed>0.0</speed>
  <fix>3d</fix>
</trkpt>
<trkpt lat="-27.274439" lon="151.290064">
  <ele>343.1</ele>
  <time>2026-09-01T19:58:12Z</time>
  <course>270.0</course>
  <speed>0.0</speed>
  <fix>3d</fix>
</trkpt>
<trkpt lat="-27.274439" lon="151.290064">
  <ele>342.8</ele>
  <time>2026-09-01T19:58:12Z</time>
  <course>11.22</course>
  <speed>0.0</speed>
  <fix>3d</fix>
</trkpt>
<trkpt lat="-27.274439" lon="151.290064">
  <ele>343.1</ele>
  <time>2026-09-01T19:58:12Z</time>
  <course>270.0</course>
  <speed>0.0</speed>
  <fix>3d</fix>
</trkpt>
<trkpt lat="-27.274439" lon="151.290064">
  <ele>342.83</ele>
  <time>2026-09-01T19:58:12Z</time>
  <course>11.22</course>
  <speed>0.0</speed>
  <fix>3d</fix>
</trkpt>
<trkpt lat="-27.274439" lon="151.290064">
  <ele>343.1</ele>
  <time>2026-09-01T19:58:12Z</time>
  <course>270.0</course>
  <speed>0.0</speed>
  <fix>3d</fix>
</trkpt>
<trkpt lat="-27.274439" lon="151.290064">
  <ele>343.04</ele>
  <time>2026-09-01T19:58:12Z</time>
  <course>11.22</course>
  <speed>0.0</speed>
  <fix>3d</fix>
</trkpt>
<trkpt lat="-27.274439" lon="151.290064">
  <ele>343.1</ele>
  <time>2026-09-01T19:58:12Z</time>
  <course>270.0</course>
  <speed>0.0</speed>
  <fix>3d</fix>
</trkpt>
<trkpt lat="-27.274439" lon="151.290064">
  <ele>342.99</ele>
  <time>2026-09-01T19:58:12Z</time>
  <course>11.22</course>
  <speed>0.0</speed>
  <fix>3d</fix>
</trkpt>
<trkpt lat="-27.274439" lon="151.290064">
  <ele>343.1</ele>
  <time>2026-09-01T19:58:12Z</time>
  <course>270.0</course>
  <speed>0.0</speed>
  <fix>3d</fix>
</trkpt>
<trkpt lat="-27.274439" lon="151.290064">
  <ele>342.99</ele>
  <time>2026-09-01T19:58:12Z</time>
  <course>11.22</course>
  <speed>0.0</speed>
  <fix>3d</fix>
</trkpt>
<trkpt lat="-27.274439" lon="151.290064">
  <ele>343.1</ele>
  <time>2026-09-01T19:58:12Z</time>
  <course>270.0</course>
  <speed>0.0</speed>
  <fix>3d</fix>
</trkpt>
<trkpt lat="-27.274439" lon="151.290064">
  <ele>342.95</ele>
  <time>2026-09-01T19:58:12Z</time>
  <course>11.23</course>
  <speed>0.0</speed>
  <fix>3d</fix>
</trkpt>
<trkpt lat="-27.274439" lon="151.290064">
  <ele>343.1</ele>
  <time>2026-09-01T19:58:12Z</time>
  <course>270.0</course>
  <speed>0.0</speed>
  <fix>3d</fix>
</trkpt>
<trkpt lat="-27.274439" lon="151.290064">
  <ele>343.0</ele>
  <time>2026-09-01T19:58:12Z</time>
  <course>11.23</course>
  <speed>0.0</speed>
  <fix>3d</fix>
</trkpt>
<trkpt lat="-27.274439" lon="151.290064">
  <ele>343.1</ele>
  <time>2026-09-01T19:58:12Z</time>
  <course>270.0</course>
  <speed>0.0</speed>
  <fix>3d</fix>
</trkpt>
<trkpt lat="-27.274439" lon="151.290064">
  <ele>343.01</ele>
  <time>2026-09-01T19:58:12Z</time>
  <course>11.23</course>
  <speed>0.0</speed>
  <fix>3d</fix>
</trkpt>
<trkpt lat="-27.274439" lon="151.290064">
  <ele>343.1</ele>
  <time>2026-09-01T19:58:12Z</time>
  <course>270.0</course>
  <speed>0.0</speed>
  <fix>3d</fix>
</trkpt>
<trkpt lat="-27.274439" lon="151.290064">
  <ele>342.8</ele>
  <time>2026-09-01T19:58:12Z</time>
  <course>11.23</course>
  <speed>0.0</speed>
  <fix>3d</fix>
</trkpt>
<trkpt lat="-27.274439" lon="151.290064">
  <ele>343.1</ele>
  <time>2026-09-01T19:58:12Z</time>
  <course>270.0</course>
  <speed>0.0</speed>
  <fix>3d</fix>
</trkpt>
<trkpt lat="-27.274439" lon="151.290064">
  <ele>342.93</ele>
  <time>2026-09-01T19:58:12Z</time>
  <course>11.23</course>
  <speed>0.0</speed>
  <fix>3d</fix>
</trkpt>
<trkpt lat="-27.274439" lon="151.290064">
  <ele>343.1</ele>
  <time>2026-09-01T19:58:12Z</time>
  <course>270.0</course>
  <speed>0.0</speed>
  <fix>3d</fix>
</trkpt>
<trkpt lat="-27.274439" lon="151.290064">
  <ele>342.7</ele>
  <time>2026-09-01T19:58:12Z</time>
  <course>11.23</course>
  <speed>0.0</speed>
  <fix>3d</fix>
</trkpt>
<trkpt lat="-27.274439" lon="151.290064">
  <ele>343.1</ele>
  <time>2026-09-01T19:58:12Z</time>
  <course>270.0</course>
  <speed>0.0</speed>
  <fix>3d</fix>
</trkpt>
<trkpt lat="-27.274439" lon="151.290064">
  <ele>342.98</ele>
  <time>2026-09-01T19:58:12Z</time>
  <course>11.23</course>
  <speed>0.0</speed>
  <fix>3d</fix>
</trkpt>
<trkpt lat="-27.274439" lon="151.290064">
  <ele>343.1</ele>
  <time>2026-09-01T19:58:12Z</time>
  <course>270.0</course>
  <speed>0.0</speed>
  <fix>3d</fix>
</trkpt>
<trkpt lat="-27.274439" lon="151.290064">
  <ele>342.89</ele>
  <time>2026-09-01T19:58:12Z</time>
  <course>11.23</course>
  <speed>0.0</speed>
  <fix>3d</fix>
</trkpt>
<trkpt lat="-27.274439" lon="151.290064">
  <ele>343.1</ele>
  <time>2026-09-01T19:58:12Z</time>
  <course>270.0</course>
  <speed>0.0</speed>
  <fix>3d</fix>
</trkpt>
<trkpt lat="-27.274439" lon="151.290064">
  <ele>342.96</ele>
  <time>2026-09-01T19:58:12Z</time>
  <course>11.23</course>
  <speed>0.0</speed>
  <fix>3d</fix>
</trkpt>
<trkpt lat="-27.274439" lon="151.290064">
  <ele>343.1</ele>
  <time>2026-09-01T19:58:12Z</time>
  <course>270.0</course>
  <speed>0.0</speed>
  <fix>3d</fix>
</trkpt>
<trkpt lat="-27.274439" lon="151.290064">
  <ele>342.7</ele>
  <time>2026-09-01T19:58:12Z</time>
  <course>11.23</course>
  <speed>0.0</speed>
  <fix>3d</fix>
</trkpt>
<trkpt lat="-27.274439" lon="151.290064">
  <ele>343.1</ele>
  <time>2026-09-01T19:58:12Z</time>
  <course>270.0</course>
  <speed>0.0</speed>
  <fix>3d</fix>
</trkpt>
<trkpt lat="-27.274439" lon="151.290064">
  <ele>342.96</ele>
  <time>2026-09-01T19:58:12Z</time>
  <course>11.23</course>
  <speed>0.0</speed>
  <fix>3d</fix>
</trkpt>
<trkpt lat="-27.274439" lon="151.290064">
  <ele>343.1</ele>
  <time>2026-09-01T19:58:12Z</time>
  <course>270.0</course>
  <speed>0.0</speed>
  <fix>3d</fix>
</trkpt>
<trkpt lat="-27.274439" lon="151.290064">
  <ele>343.0</ele>
  <time>2026-09-01T19:58:12Z</time>
  <course>11.24</course>
  <speed>0.0</speed>
  <fix>3d</fix>
</trkpt>
<trkpt lat="-27.274439" lon="151.290064">
  <ele>343.1</ele>
  <time>2026-09-01T19:58:12Z</time>
  <course>270.0</course>
  <speed>0.0</speed>
  <fix>3d</fix>
</trkpt>
<trkpt lat="-27.274439" lon="151.290064">
  <ele>342.98</ele>
  <time>2026-09-01T19:58:12Z</time>
  <course>11.24</course>
  <speed>0.0</speed>
  <fix>3d</fix>
</trkpt>
<trkpt lat="-27.274439" lon="151.290064">
  <ele>343.1</ele>
  <time>2026-09-01T19:58:12Z</time>
  <course>270.0</course>
  <speed>0.0</speed>
  <fix>3d</fix>
</trkpt>
<trkpt lat="-27.274439" lon="151.290064">
  <ele>343.08</ele>
  <time>2026-09-01T19:58:12Z</time>
  <course>11.24</course>
  <speed>0.0</speed>
  <fix>3d</fix>
</trkpt>
<trkpt lat="-27.274439" lon="151.290064">
  <ele>343.1</ele>
  <time>2026-09-01T19:58:12Z</time>
  <course>270.0</course>
  <speed>0.0</speed>
  <fix>3d</fix>
</trkpt>
<trkpt lat="-27.274439" lon="151.290064">
  <ele>342.82</ele>
  <time>2026-09-01T19:58:12Z</time>
  <course>11.24</course>
  <speed>0.0</speed>
  <fix>3d</fix>
</trkpt>
<trkpt lat="-27.274439" lon="151.290064">
  <ele>343.1</ele>
  <time>2026-09-01T19:58:12Z</time>
  <course>270.0</course>
  <speed>0.0</speed>
  <fix>3d</fix>
</trkpt>
<trkpt lat="-27.274439" lon="151.290064">
  <ele>342.78</ele>
  <time>2026-09-01T19:58:12Z</time>
  <course>11.24</course>
  <speed>0.0</speed>
  <fix>3d</fix>
</trkpt>
<trkpt lat="-27.274439" lon="151.290064">
  <ele>343.1</ele>
  <time>2026-09-01T19:58:12Z</time>
  <course>270.0</course>
  <speed>0.0</speed>
  <fix>3d</fix>
</trkpt>
<trkpt lat="-27.274439" lon="151.290064">
  <ele>342.98</ele>
  <time>2026-09-01T19:58:12Z</time>
  <course>11.24</course>
  <speed>0.0</speed>
  <fix>3d</fix>
</trkpt>
<trkpt lat="-27.274439" lon="151.290064">
  <ele>343.1</ele>
  <time>2026-09-01T19:58:12Z</time>
  <course>270.0</course>
  <speed>0.0</speed>
  <fix>3d</fix>
</trkpt>
<trkpt lat="-27.274439" lon="151.290064">
  <ele>342.9</ele>
  <time>2026-09-01T19:58:12Z</time>
  <course>11.24</course>
  <speed>0.0</speed>
  <fix>3d</fix>
</trkpt>
<trkpt lat="-27.274439" lon="151.290064">
  <ele>343.1</ele>
  <time>2026-09-01T19:58:12Z</time>
  <course>270.0</course>
  <speed>0.0</speed>
  <fix>3d</fix>
</trkpt>
<trkpt lat="-27.274439" lon="151.290064">
  <ele>343.0</ele>
  <time>2026-09-01T19:58:12Z</time>
  <course>11.24</course>
  <speed>0.0</speed>
  <fix>3d</fix>
</trkpt>
<trkpt lat="-27.274439" lon="151.290064">
  <ele>343.1</ele>
  <time>2026-09-01T19:58:12Z</time>
  <course>270.0</course>
  <speed>0.0</speed>
  <fix>3d</fix>
</trkpt>
<trkpt lat="-27.274439" lon="151.290064">
  <ele>342.9</ele>
  <time>2026-09-01T19:58:12Z</time>
  <course>11.24</course>
  <speed>0.0</speed>
  <fix>3d</fix>
</trkpt>
<trkpt lat="-27.274439" lon="151.290064">
  <ele>343.1</ele>
  <time>2026-09-01T19:58:12Z</time>
  <course>270.0</course>
  <speed>0.0</speed>
  <fix>3d</fix>
</trkpt>
<trkpt lat="-27.274439" lon="151.290064">
  <ele>342.91</ele>
  <time>2026-09-01T19:58:12Z</time>
  <course>11.24</course>
  <speed>0.0</speed>
  <fix>3d</fix>
</trkpt>
<trkpt lat="-27.274439" lon="151.290064">
  <ele>343.1</ele>
  <time>2026-09-01T19:58:12Z</time>
  <course>270.0</course>
  <speed>0.0</speed>
  <fix>3d</fix>
</trkpt>
<trkpt lat="-27.274439" lon="151.290064">
  <ele>342.83</ele>
  <time>2026-09-01T19:58:12Z</time>
  <course>11.24</course>
  <speed>0.0</speed>
  <fix>3d</fix>
</trkpt>
<trkpt lat="-27.274439" lon="151.290064">
  <ele>343.1</ele>
  <time>2026-09-01T19:58:12Z</time>
  <course>270.0</course>
  <speed>0.0</speed>
  <fix>3d</fix>
</trkpt>
<trkpt lat="-27.274439" lon="151.290064">
  <ele>342.74</ele>
  <time>2026-09-01T19:58:12Z</time>
  <course>11.24</course>
  <speed>0.0</speed>
  <fix>3d</fix>
</trkpt>
<trkpt lat="-27.274439" lon="151.290064">
  <ele>343.1</ele>
  <time>2026-09-01T19:58:12Z</time>
  <course>270.0</course>
  <speed>0.0</speed>
  <fix>3d</fix>
</trkpt>
<trkpt lat="-27.274439" lon="151.290064">
  <ele>342.89</ele>
  <time>2026-09-01T19:58:12Z</time>
  <course>11.24</course>
  <speed>0.0</speed>
  <fix>3d</fix>
</trkpt>
<trkpt lat="-27.274439" lon="151.290064">
  <ele>343.1</ele>
  <time>2026-09-01T19:58:12Z</time>
  <course>270.0</course>
  <speed>0.0</speed>
  <fix>3d</fix>
</trkpt>
<trkpt lat="-27.274439" lon="151.290064">
  <ele>342.87</ele>
  <time>2026-09-01T19:58:12Z</time>
  <course>11.24</course>
  <speed>0.0</speed>
  <fix>3d</fix>
</trkpt>
<trkpt lat="-27.274439" lon="151.290064">
  <ele>343.1</ele>
  <time>2026-09-01T19:58:12Z</time>
  <course>270.0</course>
  <speed>0.0</speed>
  <fix>3d</fix>
</trkpt>
<trkpt lat="-27.274439" lon="151.290064">
  <ele>342.92</ele>
  <time>2026-09-01T19:58:12Z</time>
  <course>11.25</course>
  <speed>0.0</speed>
  <fix>3d</fix>
</trkpt>
<trkpt lat="-27.274439" lon="151.290064">
  <ele>343.1</ele>
  <time>2026-09-01T19:58:12Z</time>
  <course>270.0</course>
  <speed>0.0</speed>
  <fix>3d</fix>
</trkpt>
<trkpt lat="-27.274439" lon="151.290064">
  <ele>343.01</ele>
  <time>2026-09-01T19:58:12Z</time>
  <course>11.25</course>
  <speed>0.0</speed>
  <fix>3d</fix>
</trkpt>
<trkpt lat="-27.274439" lon="151.290064">
  <ele>343.1</ele>
  <time>2026-09-01T19:58:12Z</time>
  <course>270.0</course>
  <speed>0.0</speed>
  <fix>3d</fix>
</trkpt>
<trkpt lat="-27.274439" lon="151.290064">
  <ele>342.9</ele>
  <time>2026-09-01T19:58:12Z</time>
  <course>11.24</course>
  <speed>0.0</speed>
  <fix>3d</fix>
</trkpt>
<trkpt lat="-27.274439" lon="151.290064">
  <ele>343.1</ele>
  <time>2026-09-01T19:58:12Z</time>
  <course>270.0</course>
  <speed>0.0</speed>
  <fix>3d</fix>
</trkpt>
<trkpt lat="-27.274439" lon="151.290064">
  <ele>342.71</ele>
  <time>2026-09-01T19:58:12Z</time>
  <course>11.24</course>
  <speed>0.0</speed>
  <fix>3d</fix>
</trkpt>
<trkpt lat="-27.274439" lon="151.290064">
  <ele>343.1</ele>
  <time>2026-09-01T19:58:12Z</time>
  <course>270.0</course>
  <speed>0.0</speed>
  <fix>3d</fix>
</trkpt>
<trkpt lat="-27.274439" lon="151.290064">
  <ele>343.05</ele>
  <time>2026-09-01T19:58:12Z</time>
  <course>11.24</course>
  <speed>0.0</speed>
  <fix>3d</fix>
</trkpt>
<trkpt lat="-27.274439" lon="151.290064">
  <ele>343.1</ele>
  <time>2026-09-01T19:58:12Z</time>
  <course>270.0</course>
  <speed>0.0</speed>
  <fix>3d</fix>
</trkpt>
<trkpt lat="-27.274439" lon="151.290064">
  <ele>343.0</ele>
  <time>2026-09-01T19:58:12Z</time>
  <course>11.24</course>
  <speed>0.0</speed>
  <fix>3d</fix>
</trkpt>
<trkpt lat="-27.274439" lon="151.290064">
  <ele>343.1</ele>
  <time>2026-09-01T19:58:12Z</time>
  <course>270.0</course>
  <speed>0.0</speed>
  <fix>3d</fix>
</trkpt>
<trkpt lat="-27.274439" lon="151.290064">
  <ele>342.8</ele>
  <time>2026-09-01T19:58:12Z</time>
  <course>11.23</course>
  <speed>0.0</speed>
  <fix>3d</fix>
</trkpt>
<trkpt lat="-27.274439" lon="151.290064">
  <ele>343.1</ele>
  <time>2026-09-01T19:58:12Z</time>
  <course>270.0</course>
  <speed>0.0</speed>
  <fix>3d</fix>
</trkpt>
<trkpt lat="-27.274439" lon="151.290064">
  <ele>342.85</ele>
  <time>2026-09-01T19:58:12Z</time>
  <course>11.23</course>
  <speed>0.0</speed>
  <fix>3d</fix>
</trkpt>
<trkpt lat="-27.274439" lon="151.290064">
  <ele>343.1</ele>
  <time>2026-09-01T19:58:12Z</time>
  <course>270.0</course>
  <speed>0.0</speed>
  <fix>3d</fix>
</trkpt>
<trkpt lat="-27.274439" lon="151.290064">
  <ele>342.96</ele>
  <time>2026-09-01T19:58:12Z</time>
  <course>11.23</course>
  <speed>0.0</speed>
  <fix>3d</fix>
</trkpt>
<trkpt lat="-27.274439" lon="151.290064">
  <ele>343.1</ele>
  <time>2026-09-01T19:58:12Z</time>
  <course>270.0</course>
  <speed>0.0</speed>
  <fix>3d</fix>
</trkpt>
<trkpt lat="-27.274439" lon="151.290064">
  <ele>342.82</ele>
  <time>2026-09-01T19:58:12Z</time>
  <course>11.23</course>
  <speed>0.0</speed>
  <fix>3d</fix>
</trkpt>
<trkpt lat="-27.274439" lon="151.290064">
  <ele>343.1</ele>
  <time>2026-09-01T19:58:12Z</time>
  <course>270.0</course>
  <speed>0.0</speed>
  <fix>3d</fix>
</trkpt>
<trkpt lat="-27.274439" lon="151.290064">
  <ele>342.75</ele>
  <time>2026-09-01T19:58:12Z</time>
  <course>11.23</course>
  <speed>0.0</speed>
  <fix>3d</fix>
</trkpt>
<trkpt lat="-27.274439" lon="151.290064">
  <ele>343.1</ele>
  <time>2026-09-01T19:58:12Z</time>
  <course>270.0</course>
  <speed>0.0</speed>
  <fix>3d</fix>
</trkpt>
<trkpt lat="-27.274439" lon="151.290064">
  <ele>343.08</ele>
  <time>2026-09-01T19:58:12Z</time>
  <course>11.22</course>
  <speed>0.0</speed>
  <fix>3d</fix>
</trkpt>
<trkpt lat="-27.274439" lon="151.290064">
  <ele>343.1</ele>
  <time>2026-09-01T19:58:12Z</time>
  <course>270.0</course>
  <speed>0.0</speed>
  <fix>3d</fix>
</trkpt>
<trkpt lat="-27.274439" lon="151.290064">
  <ele>343.03</ele>
  <time>2026-09-01T19:58:12Z</time>
  <course>11.22</course>
  <speed>0.0</speed>
  <fix>3d</fix>
</trkpt>
<trkpt lat="-27.274439" lon="151.290064">
  <ele>343.1</ele>
  <time>2026-09-01T19:58:12Z</time>
  <course>270.0</course>
  <speed>0.0</speed>
  <fix>3d</fix>
</trkpt>
<trkpt lat="-27.274439" lon="151.290064">
  <ele>342.94</ele>
  <time>2026-09-01T19:58:12Z</time>
  <course>11.22</course>
  <speed>0.0</speed>
  <fix>3d</fix>
</trkpt>
<trkpt lat="-27.274439" lon="151.290064">
  <ele>343.1</ele>
  <time>2026-09-01T19:58:12Z</time>
  <course>270.0</course>
  <speed>0.0</speed>
  <fix>3d</fix>
</trkpt>
<trkpt lat="-27.274439" lon="151.290064">
  <ele>342.93</ele>
  <time>2026-09-01T19:58:12Z</time>
  <course>11.22</course>
  <speed>0.0</speed>
  <fix>3d</fix>
</trkpt>
<trkpt lat="-27.274439" lon="151.290064">
  <ele>343.1</ele>
  <time>2026-09-01T19:58:12Z</time>
  <course>270.0</course>
  <speed>0.0</speed>
  <fix>3d</fix>
</trkpt>
<trkpt lat="-27.274439" lon="151.290064">
  <ele>343.08</ele>
  <time>2026-09-01T19:58:12Z</time>
  <course>11.22</course>
  <speed>0.0</speed>
  <fix>3d</fix>
</trkpt>
<trkpt lat="-27.274439" lon="151.290064">
  <ele>343.1</ele>
  <time>2026-09-01T19:58:12Z</time>
  <course>270.0</course>
  <speed>0.0</speed>
  <fix>3d</fix>
</trkpt>
<trkpt lat="-27.274439" lon="151.290064">
  <ele>342.85</ele>
  <time>2026-09-01T19:58:12Z</time>
  <course>11.21</course>
  <speed>0.0</speed>
  <fix>3d</fix>
</trkpt>
<trkpt lat="-27.274439" lon="151.290064">
  <ele>343.1</ele>
  <time>2026-09-01T19:58:12Z</time>
  <course>270.0</course>
  <speed>0.0</speed>
  <fix>3d</fix>
</trkpt>
<trkpt lat="-27.274439" lon="151.290064">
  <ele>342.86</ele>
  <time>2026-09-01T19:58:12Z</time>
  <course>11.21</course>
  <speed>0.0</speed>
  <fix>3d</fix>
</trkpt>
<trkpt lat="-27.274439" lon="151.290064">
  <ele>343.1</ele>
  <time>2026-09-01T19:58:12Z</time>
  <course>270.0</course>
  <speed>0.0</speed>
  <fix>3d</fix>
</trkpt>
<trkpt lat="-27.274439" lon="151.290064">
  <ele>342.83</ele>
  <time>2026-09-01T19:58:12Z</time>
  <course>11.21</course>
  <speed>0.0</speed>
  <fix>3d</fix>
</trkpt>
<trkpt lat="-27.274439" lon="151.290064">
  <ele>343.1</ele>
  <time>2026-09-01T19:58:12Z</time>
  <course>270.0</course>
  <speed>0.0</speed>
  <fix>3d</fix>
</trkpt>
<trkpt lat="-27.274439" lon="151.290064">
  <ele>343.14</ele>
  <time>2026-09-01T19:58:12Z</time>
  <course>11.21</course>
  <speed>0.0</speed>
  <fix>3d</fix>
</trkpt>
<trkpt lat="-27.274439" lon="151.290064">
  <ele>343.1</ele>
  <time>2026-09-01T19:58:12Z</time>
  <course>270.0</course>
  <speed>0.0</speed>
  <fix>3d</fix>
</trkpt>
<trkpt lat="-27.274439" lon="151.290064">
  <ele>343.03</ele>
  <time>2026-09-01T19:58:12Z</time>
  <course>11.21</course>
  <speed>0.0</speed>
  <fix>3d</fix>
</trkpt>
<trkpt lat="-27.274439" lon="151.290064">
  <ele>343.1</ele>
  <time>2026-09-01T19:58:12Z</time>
  <course>270.0</course>
  <speed>0.0</speed>
  <fix>3d</fix>
</trkpt>
<trkpt lat="-27.274439" lon="151.290064">
  <ele>342.82</ele>
  <time>2026-09-01T19:58:12Z</time>
  <course>11.2</course>
  <speed>0.0</speed>
  <fix>3d</fix>
</trkpt>
<trkpt lat="-27.274439" lon="151.290064">
  <ele>343.1</ele>
  <time>2026-09-01T19:58:12Z</time>
  <course>270.0</course>
  <speed>0.0</speed>
  <fix>3d</fix>
</trkpt>
<trkpt lat="-27.274439" lon="151.290064">
  <ele>342.93</ele>
  <time>2026-09-01T19:58:12Z</time>
  <course>11.2</course>
  <speed>0.0</speed>
  <fix>3d</fix>
</trkpt>
<trkpt lat="-27.274439" lon="151.290064">
  <ele>343.1</ele>
  <time>2026-09-01T19:58:12Z</time>
  <course>270.0</course>
  <speed>0.0</speed>
  <fix>3d</fix>
</trkpt>
<trkpt lat="-27.274439" lon="151.290064">
  <ele>342.82</ele>
  <time>2026-09-01T19:58:12Z</time>
  <course>11.2</course>
  <speed>0.0</speed>
  <fix>3d</fix>
</trkpt>
<trkpt lat="-27.274439" lon="151.290064">
  <ele>343.1</ele>
  <time>2026-09-01T19:58:12Z</time>
  <course>270.0</course>
  <speed>0.0</speed>
  <fix>3d</fix>
</trkpt>
<trkpt lat="-27.274439" lon="151.290064">
  <ele>342.83</ele>
  <time>2026-09-01T19:58:12Z</time>
  <course>11.2</course>
  <speed>0.0</speed>
  <fix>3d</fix>
</trkpt>
<trkpt lat="-27.274439" lon="151.290064">
  <ele>343.1</ele>
  <time>2026-09-01T19:58:12Z</time>
  <course>270.0</course>
  <speed>0.0</speed>
  <fix>3d</fix>
</trkpt>
<trkpt lat="-27.274439" lon="151.290064">
  <ele>342.9</ele>
  <time>2026-09-01T19:58:12Z</time>
  <course>11.2</course>
  <speed>0.0</speed>
  <fix>3d</fix>
</trkpt>
<trkpt lat="-27.274439" lon="151.290064">
  <ele>343.1</ele>
  <time>2026-09-01T19:58:12Z</time>
  <course>270.0</course>
  <speed>0.0</speed>
  <fix>3d</fix>
</trkpt>
<trkpt lat="-27.274439" lon="151.290064">
  <ele>342.83</ele>
  <time>2026-09-01T19:58:12Z</time>
  <course>11.2</course>
  <speed>0.0</speed>
  <fix>3d</fix>
</trkpt>
<trkpt lat="-27.274439" lon="151.290064">
  <ele>343.1</ele>
  <time>2026-09-01T19:58:12Z</time>
  <course>270.0</course>
  <speed>0.0</speed>
  <fix>3d</fix>
</trkpt>
<trkpt lat="-27.274439" lon="151.290064">
  <ele>343.04</ele>
  <time>2026-09-01T19:58:12Z</time>
  <course>11.19</course>
  <speed>0.0</speed>
  <fix>3d</fix>
</trkpt>
<trkpt lat="-27.274439" lon="151.290064">
  <ele>343.1</ele>
  <time>2026-09-01T19:58:12Z</time>
  <course>270.0</course>
  <speed>0.0</speed>
  <fix>3d</fix>
</trkpt>
<trkpt lat="-27.274439" lon="151.290064">
  <ele>342.98</ele>
  <time>2026-09-01T19:58:12Z</time>
  <course>11.19</course>
  <speed>0.0</speed>
  <fix>3d</fix>
</trkpt>
<trkpt lat="-27.274439" lon="151.290064">
  <ele>343.1</ele>
  <time>2026-09-01T19:58:12Z</time>
  <course>270.0</course>
  <speed>0.0</speed>
  <fix>3d</fix>
</trkpt>
<trkpt lat="-27.274439" lon="151.290064">
  <ele>342.99</ele>
  <time>2026-09-01T19:58:12Z</time>
  <course>11.19</course>
  <speed>0.0</speed>
  <fix>3d</fix>
</trkpt>
<trkpt lat="-27.274439" lon="151.290064">
  <ele>343.1</ele>
  <time>2026-09-01T19:58:12Z</time>
  <course>270.0</course>
  <speed>0.0</speed>
  <fix>3d</fix>
</trkpt>
<trkpt lat="-27.274439" lon="151.290064">
  <ele>342.98</ele>
  <time>2026-09-01T19:58:12Z</time>
  <course>11.19</course>
  <speed>0.0</speed>
  <fix>3d</fix>
</trkpt>
<trkpt lat="-27.274439" lon="151.290064">
  <ele>343.1</ele>
  <time>2026-09-01T19:58:12Z</time>
  <course>270.0</course>
  <speed>0.0</speed>
  <fix>3d</fix>
</trkpt>
<trkpt lat="-27.274439" lon="151.290064">
  <ele>342.9</ele>
  <time>2026-09-01T19:58:12Z</time>
  <course>11.19</course>
  <speed>0.0</speed>
  <fix>3d</fix>
</trkpt>
<trkpt lat="-27.274439" lon="151.290064">
  <ele>343.1</ele>
  <time>2026-09-01T19:58:12Z</time>
  <course>270.0</course>
  <speed>0.0</speed>
  <fix>3d</fix>
</trkpt>
<trkpt lat="-27.274439" lon="151.290064">
  <ele>343.03</ele>
  <time>2026-09-01T19:58:12Z</time>
  <course>11.19</course>
  <speed>0.0</speed>
  <fix>3d</fix>
</trkpt>
<trkpt lat="-27.274439" lon="151.290064">
  <ele>343.1</ele>
  <time>2026-09-01T19:58:12Z</time>
  <course>270.0</course>
  <speed>0.0</speed>
  <fix>3d</fix>
</trkpt>
<trkpt lat="-27.274439" lon="151.290064">
  <ele>343.11</ele>
  <time>2026-09-01T19:58:12Z</time>
  <course>11.18</course>
  <speed>0.0</speed>
  <fix>3d</fix>
</trkpt>
<trkpt lat="-27.274439" lon="151.290064">
  <ele>343.1</ele>
  <time>2026-09-01T19:58:12Z</time>
  <course>270.0</course>
  <speed>0.0</speed>
  <fix>3d</fix>
</trkpt>
<trkpt lat="-27.274439" lon="151.290064">
  <ele>342.98</ele>
  <time>2026-09-01T19:58:12Z</time>
  <course>11.18</course>
  <speed>0.0</speed>
  <fix>3d</fix>
</trkpt>
<trkpt lat="-27.274439" lon="151.290064">
  <ele>343.1</ele>
  <time>2026-09-01T19:58:12Z</time>
  <course>270.0</course>
  <speed>0.0</speed>
  <fix>3d</fix>
</trkpt>
<trkpt lat="-27.274439" lon="151.290064">
  <ele>343.06</ele>
  <time>2026-09-01T19:58:12Z</time>
  <course>11.18</course>
  <speed>0.0</speed>
  <fix>3d</fix>
</trkpt>
<trkpt lat="-27.274439" lon="151.290064">
  <ele>343.1</ele>
  <time>2026-09-01T19:58:12Z</time>
  <course>270.0</course>
  <speed>0.0</speed>
  <fix>3d</fix>
</trkpt>
<trkpt lat="-27.274439" lon="151.290064">
  <ele>342.9</ele>
  <time>2026-09-01T19:58:12Z</time>
  <course>11.18</course>
  <speed>0.0</speed>
  <fix>3d</fix>
</trkpt>
<trkpt lat="-27.274439" lon="151.290064">
  <ele>343.1</ele>
  <time>2026-09-01T19:58:12Z</time>
  <course>270.0</course>
  <speed>0.0</speed>
  <fix>3d</fix>
</trkpt>
<trkpt lat="-27.274439" lon="151.290064">
  <ele>342.79</ele>
  <time>2026-09-01T19:58:12Z</time>
  <course>11.18</course>
  <speed>0.0</speed>
  <fix>3d</fix>
</trkpt>
<trkpt lat="-27.274439" lon="151.290064">
  <ele>343.1</ele>
  <time>2026-09-01T19:58:12Z</time>
  <course>270.0</course>
  <speed>0.0</speed>
  <fix>3d</fix>
</trkpt>
<trkpt lat="-27.274439" lon="151.290064">
  <ele>343.08</ele>
  <time>2026-09-01T19:58:12Z</time>
  <course>11.18</course>
  <speed>0.0</speed>
  <fix>3d</fix>
</trkpt>
<trkpt lat="-27.274439" lon="151.290064">
  <ele>343.1</ele>
  <time>2026-09-01T19:58:12Z</time>
  <course>270.0</course>
  <speed>0.0</speed>
  <fix>3d</fix>
</trkpt>
<trkpt lat="-27.274439" lon="151.290064">
  <ele>342.99</ele>
  <time>2026-09-01T19:58:12Z</time>
  <course>11.17</course>
  <speed>0.0</speed>
  <fix>3d</fix>
</trkpt>
<trkpt lat="-27.274439" lon="151.290064">
  <ele>343.1</ele>
  <time>2026-09-01T19:58:12Z</time>
  <course>270.0</course>
  <speed>0.0</speed>
  <fix>3d</fix>
</trkpt>
<trkpt lat="-27.274439" lon="151.290064">
  <ele>342.95</ele>
  <time>2026-09-01T19:58:12Z</time>
  <course>11.17</course>
  <speed>0.0</speed>
  <fix>3d</fix>
</trkpt>
<trkpt lat="-27.274439" lon="151.290064">
  <ele>343.1</ele>
  <time>2026-09-01T19:58:12Z</time>
  <course>270.0</course>
  <speed>0.0</speed>
  <fix>3d</fix>
</trkpt>
<trkpt lat="-27.274439" lon="151.290064">
  <ele>342.8</ele>
  <time>2026-09-01T19:58:12Z</time>
  <course>11.17</course>
  <speed>0.0</speed>
  <fix>3d</fix>
</trkpt>
<trkpt lat="-27.274439" lon="151.290064">
  <ele>343.1</ele>
  <time>2026-09-01T19:58:12Z</time>
  <course>270.0</course>
  <speed>0.0</speed>
  <fix>3d</fix>
</trkpt>
<trkpt lat="-27.274439" lon="151.290064">
  <ele>343.01</ele>
  <time>2026-09-01T19:58:12Z</time>
  <course>11.17</course>
  <speed>0.0</speed>
  <fix>3d</fix>
</trkpt>
<trkpt lat="-27.274439" lon="151.290064">
  <ele>343.1</ele>
  <time>2026-09-01T19:58:12Z</time>
  <course>270.0</course>
  <speed>0.0</speed>
  <fix>3d</fix>
</trkpt>
<trkpt lat="-27.274439" lon="151.290064">
  <ele>342.78</ele>
  <time>2026-09-01T19:58:12Z</time>
  <course>11.17</course>
  <speed>0.0</speed>
  <fix>3d</fix>
</trkpt>
<trkpt lat="-27.274439" lon="151.290064">
  <ele>343.1</ele>
  <time>2026-09-01T19:58:12Z</time>
  <course>270.0</course>
  <speed>0.0</speed>
  <fix>3d</fix>
</trkpt>
<trkpt lat="-27.274439" lon="151.290064">
  <ele>342.81</ele>
  <time>2026-09-01T19:58:12Z</time>
  <course>11.17</course>
  <speed>0.0</speed>
  <fix>3d</fix>
</trkpt>
<trkpt lat="-27.274439" lon="151.290064">
  <ele>343.1</ele>
  <time>2026-09-01T19:58:12Z</time>
  <course>270.0</course>
  <speed>0.0</speed>
  <fix>3d</fix>
</trkpt>
<trkpt lat="-27.274439" lon="151.290064">
  <ele>342.85</ele>
  <time>2026-09-01T19:58:12Z</time>
  <course>11.17</course>
  <speed>0.0</speed>
  <fix>3d</fix>
</trkpt>
<trkpt lat="-27.274439" lon="151.290064">
  <ele>343.1</ele>
  <time>2026-09-01T19:58:12Z</time>
  <course>270.0</course>
  <speed>0.0</speed>
  <fix>3d</fix>
</trkpt>
<trkpt lat="-27.274439" lon="151.290064">
  <ele>342.78</ele>
  <time>2026-09-01T19:58:12Z</time>
  <course>11.17</course>
  <speed>0.0</speed>
  <fix>3d</fix>
</trkpt>
<trkpt lat="-27.274439" lon="151.290064">
  <ele>343.1</ele>
  <time>2026-09-01T19:58:12Z</time>
  <course>270.0</course>
  <speed>0.0</speed>
  <fix>3d</fix>
</trkpt>
<trkpt lat="-27.274439" lon="151.290064">
  <ele>342.79</ele>
  <time>2026-09-01T19:58:12Z</time>
  <course>11.16</course>
  <speed>0.0</speed>
  <fix>3d</fix>
</trkpt>
<trkpt lat="-27.274439" lon="151.290064">
  <ele>343.1</ele>
  <time>2026-09-01T19:58:12Z</time>
  <course>270.0</course>
  <speed>0.0</speed>
  <fix>3d</fix>
</trkpt>
<trkpt lat="-27.274439" lon="151.290064">
  <ele>342.9</ele>
  <time>2026-09-01T19:58:12Z</time>
  <course>11.16</course>
  <speed>0.0</speed>
  <fix>3d</fix>
</trkpt>
<trkpt lat="-27.274439" lon="151.290064">
  <ele>343.1</ele>
  <time>2026-09-01T19:58:12Z</time>
  <course>270.0</course>
  <speed>0.0</speed>
  <fix>3d</fix>
</trkpt>
<trkpt lat="-27.274439" lon="151.290064">
  <ele>342.98</ele>
  <time>2026-09-01T19:58:12Z</time>
  <course>11.16</course>
  <speed>0.0</speed>
  <fix>3d</fix>
</trkpt>
<trkpt lat="-27.274439" lon="151.290064">
  <ele>343.1</ele>
  <time>2026-09-01T19:58:12Z</time>
  <course>270.0</course>
  <speed>0.0</speed>
  <fix>3d</fix>
</trkpt>
<trkpt lat="-27.274439" lon="151.290064">
  <ele>342.77</ele>
  <time>2026-09-01T19:58:12Z</time>
  <course>11.16</course>
  <speed>0.0</speed>
  <fix>3d</fix>
</trkpt>
<trkpt lat="-27.274439" lon="151.290064">
  <ele>343.1</ele>
  <time>2026-09-01T19:58:12Z</time>
  <course>270.0</course>
  <speed>0.0</speed>
  <fix>3d</fix>
</trkpt>
<trkpt lat="-27.274439" lon="151.290064">
  <ele>342.95</ele>
  <time>2026-09-01T19:58:12Z</time>
  <course>11.16</course>
  <speed>0.0</speed>
  <fix>3d</fix>
</trkpt>
<trkpt lat="-27.274439" lon="151.290064">
  <ele>343.1</ele>
  <time>2026-09-01T19:58:12Z</time>
  <course>270.0</course>
  <speed>0.0</speed>
  <fix>3d</fix>
</trkpt>
<trkpt lat="-27.274439" lon="151.290064">
  <ele>343.04</ele>
  <time>2026-09-01T19:58:12Z</time>
  <course>11.16</course>
  <speed>0.0</speed>
  <fix>3d</fix>
</trkpt>
<trkpt lat="-27.274439" lon="151.290064">
  <ele>343.1</ele>
  <time>2026-09-01T19:58:12Z</time>
  <course>270.0</course>
  <speed>0.0</speed>
  <fix>3d</fix>
</trkpt>
<trkpt lat="-27.274439" lon="151.290064">
  <ele>342.83</ele>
  <time>2026-09-01T19:58:12Z</time>
  <course>11.16</course>
  <speed>0.0</speed>
  <fix>3d</fix>
</trkpt>
<trkpt lat="-27.274439" lon="151.290064">
  <ele>343.1</ele>
  <time>2026-09-01T19:58:12Z</time>
  <course>270.0</course>
  <speed>0.0</speed>
  <fix>3d</fix>
</trkpt>
<trkpt lat="-27.274439" lon="151.290064">
  <ele>342.87</ele>
  <time>2026-09-01T19:58:12Z</time>
  <course>11.15</course>
  <speed>0.0</speed>
  <fix>3d</fix>
</trkpt>
<trkpt lat="-27.274439" lon="151.290064">
  <ele>343.1</ele>
  <time>2026-09-01T19:58:12Z</time>
  <course>270.0</course>
  <speed>0.0</speed>
  <fix>3d</fix>
</trkpt>
<trkpt lat="-27.274439" lon="151.290064">
  <ele>342.76</ele>
  <time>2026-09-01T19:58:12Z</time>
  <course>11.15</course>
  <speed>0.0</speed>
  <fix>3d</fix>
</trkpt>
<trkpt lat="-27.274439" lon="151.290064">
  <ele>343.1</ele>
  <time>2026-09-01T19:58:12Z</time>
  <course>270.0</course>
  <speed>0.0</speed>
  <fix>3d</fix>
</trkpt>
<trkpt lat="-27.274439" lon="151.290064">
  <ele>343.01</ele>
  <time>2026-09-01T19:58:13Z</time>
  <course>11.14</course>
  <speed>0.0</speed>
  <fix>3d</fix>
</trkpt>
<trkpt lat="-27.274439" lon="151.290064">
  <ele>343.1</ele>
  <time>2026-09-01T19:58:13Z</time>
  <course>270.0</course>
  <speed>0.0</speed>
  <fix>3d</fix>
</trkpt>
<trkpt lat="-27.274439" lon="151.290064">
  <ele>343.08</ele>
  <time>2026-09-01T19:58:13Z</time>
  <course>11.14</course>
  <speed>0.0</speed>
  <fix>3d</fix>
</trkpt>
<trkpt lat="-27.274439" lon="151.290064">
  <ele>343.1</ele>
  <time>2026-09-01T19:58:13Z</time>
  <course>270.0</course>
  <speed>0.0</speed>
  <fix>3d</fix>
</trkpt>
<trkpt lat="-27.274439" lon="151.290064">
  <ele>342.82</ele>
  <time>2026-09-01T19:58:13Z</time>
  <course>11.14</course>
  <speed>0.0</speed>
  <fix>3d</fix>
</trkpt>
<trkpt lat="-27.274439" lon="151.290064">
  <ele>343.1</ele>
  <time>2026-09-01T19:58:13Z</time>
  <course>270.0</course>
  <speed>0.0</speed>
  <fix>3d</fix>
</trkpt>
<trkpt lat="-27.274439" lon="151.290064">
  <ele>343.12</ele>
  <time>2026-09-01T19:58:13Z</time>
  <course>11.13</course>
  <speed>0.0</speed>
  <fix>3d</fix>
</trkpt>
<trkpt lat="-27.274439" lon="151.290064">
  <ele>343.1</ele>
  <time>2026-09-01T19:58:13Z</time>
  <course>270.0</course>
  <speed>0.0</speed>
  <fix>3d</fix>
</trkpt>
<trkpt lat="-27.274439" lon="151.290064">
  <ele>342.85</ele>
  <time>2026-09-01T19:58:13Z</time>
  <course>11.13</course>
  <speed>0.0</speed>
  <fix>3d</fix>
</trkpt>
<trkpt lat="-27.274439" lon="151.290064">
  <ele>343.1</ele>
  <time>2026-09-01T19:58:13Z</time>
  <course>270.0</course>
  <speed>0.0</speed>
  <fix>3d</fix>
</trkpt>
<trkpt lat="-27.274439" lon="151.290064">
  <ele>343.01</ele>
  <time>2026-09-01T19:58:13Z</time>
  <course>11.12</course>
  <speed>0.0</speed>
  <fix>3d</fix>
</trkpt>
<trkpt lat="-27.274439" lon="151.290064">
  <ele>343.1</ele>
  <time>2026-09-01T19:58:13Z</time>
  <course>270.0</course>
  <speed>0.0</speed>
  <fix>3d</fix>
</trkpt>
<trkpt lat="-27.274439" lon="151.290064">
  <ele>343.01</ele>
  <time>2026-09-01T19:58:13Z</time>
  <course>11.12</course>
  <speed>0.0</speed>
  <fix>3d</fix>
</trkpt>
<trkpt lat="-27.274439" lon="151.290064">
  <ele>343.1</ele>
  <time>2026-09-01T19:58:13Z</time>
  <course>270.0</course>
  <speed>0.0</speed>
  <fix>3d</fix>
</trkpt>
<trkpt lat="-27.274439" lon="151.290064">
  <ele>342.82</ele>
  <time>2026-09-01T19:58:13Z</time>
  <course>11.12</course>
  <speed>0.0</speed>
  <fix>3d</fix>
</trkpt>
<trkpt lat="-27.274439" lon="151.290064">
  <ele>343.1</ele>
  <time>2026-09-01T19:58:13Z</time>
  <course>270.0</course>
  <speed>0.0</speed>
  <fix>3d</fix>
</trkpt>
<trkpt lat="-27.274439" lon="151.290064">
  <ele>343.05</ele>
  <time>2026-09-01T19:58:13Z</time>
  <course>11.11</course>
  <speed>0.0</speed>
  <fix>3d</fix>
</trkpt>
<trkpt lat="-27.274439" lon="151.290064">
  <ele>343.1</ele>
  <time>2026-09-01T19:58:13Z</time>
  <course>270.0</course>
  <speed>0.0</speed>
  <fix>3d</fix>
</trkpt>
<trkpt lat="-27.274439" lon="151.290064">
  <ele>342.9</ele>
  <time>2026-09-01T19:58:13Z</time>
  <course>11.11</course>
  <speed>0.0</speed>
  <fix>3d</fix>
</trkpt>
<trkpt lat="-27.274439" lon="151.290064">
  <ele>343.1</ele>
  <time>2026-09-01T19:58:13Z</time>
  <course>270.0</course>
  <speed>0.0</speed>
  <fix>3d</fix>
</trkpt>
<trkpt lat="-27.274439" lon="151.290064">
  <ele>342.98</ele>
  <time>2026-09-01T19:58:13Z</time>
  <course>11.11</course>
  <speed>0.0</speed>
  <fix>3d</fix>
</trkpt>
<trkpt lat="-27.274439" lon="151.290064">
  <ele>343.1</ele>
  <time>2026-09-01T19:58:13Z</time>
  <course>270.0</course>
  <speed>0.0</speed>
  <fix>3d</fix>
</trkpt>
<trkpt lat="-27.274439" lon="151.290064">
  <ele>342.84</ele>
  <time>2026-09-01T19:58:13Z</time>
  <course>11.1</course>
  <speed>0.0</speed>
  <fix>3d</fix>
</trkpt>
<trkpt lat="-27.274439" lon="151.290064">
  <ele>343.1</ele>
  <time>2026-09-01T19:58:13Z</time>
  <course>270.0</course>
  <speed>0.0</speed>
  <fix>3d</fix>
</trkpt>
<trkpt lat="-27.274439" lon="151.290064">
  <ele>343.0</ele>
  <time>2026-09-01T19:58:13Z</time>
  <course>11.1</course>
  <speed>0.0</speed>
  <fix>3d</fix>
</trkpt>
<trkpt lat="-27.274439" lon="151.290064">
  <ele>343.1</ele>
  <time>2026-09-01T19:58:13Z</time>
  <course>270.0</course>
  <speed>0.0</speed>
  <fix>3d</fix>
</trkpt>
<trkpt lat="-27.274439" lon="151.290064">
  <ele>343.0</ele>
  <time>2026-09-01T19:58:13Z</time>
  <course>11.1</course>
  <speed>0.0</speed>
  <fix>3d</fix>
</trkpt>
<trkpt lat="-27.274439" lon="151.290064">
  <ele>343.1</ele>
  <time>2026-09-01T19:58:13Z</time>
  <course>270.0</course>
  <speed>0.0</speed>
  <fix>3d</fix>
</trkpt>
<trkpt lat="-27.274439" lon="151.290064">
  <ele>342.78</ele>
  <time>2026-09-01T19:58:13Z</time>
  <course>11.09</course>
  <speed>0.0</speed>
  <fix>3d</fix>
</trkpt>
<trkpt lat="-27.274439" lon="151.290064">
  <ele>343.1</ele>
  <time>2026-09-01T19:58:13Z</time>
  <course>270.0</course>
  <speed>0.0</speed>
  <fix>3d</fix>
</trkpt>
<trkpt lat="-27.274439" lon="151.290064">
  <ele>343.06</ele>
  <time>2026-09-01T19:58:13Z</time>
  <course>11.09</course>
  <speed>0.0</speed>
  <fix>3d</fix>
</trkpt>
<trkpt lat="-27.274439" lon="151.290064">
  <ele>343.1</ele>
  <time>2026-09-01T19:58:13Z</time>
  <course>270.0</course>
  <speed>0.0</speed>
  <fix>3d</fix>
</trkpt>
<trkpt lat="-27.274439" lon="151.290064">
  <ele>343.03</ele>
  <time>2026-09-01T19:58:13Z</time>
  <course>11.09</course>
  <speed>0.0</speed>
  <fix>3d</fix>
</trkpt>
<trkpt lat="-27.274439" lon="151.290064">
  <ele>343.1</ele>
  <time>2026-09-01T19:58:13Z</time>
  <course>270.0</course>
  <speed>0.0</speed>
  <fix>3d</fix>
</trkpt>
<trkpt lat="-27.274439" lon="151.290064">
  <ele>343.15</ele>
  <time>2026-09-01T19:58:13Z</time>
  <course>11.08</course>
  <speed>0.0</speed>
  <fix>3d</fix>
</trkpt>
<trkpt lat="-27.274439" lon="151.290064">
  <ele>343.1</ele>
  <time>2026-09-01T19:58:13Z</time>
  <course>270.0</course>
  <speed>0.0</speed>
  <fix>3d</fix>
</trkpt>
<trkpt lat="-27.274439" lon="151.290064">
  <ele>342.95</ele>
  <time>2026-09-01T19:58:13Z</time>
  <course>11.08</course>
  <speed>0.0</speed>
  <fix>3d</fix>
</trkpt>
<trkpt lat="-27.274439" lon="151.290064">
  <ele>343.1</ele>
  <time>2026-09-01T19:58:13Z</time>
  <course>270.0</course>
  <speed>0.0</speed>
  <fix>3d</fix>
</trkpt>
<trkpt lat="-27.274439" lon="151.290064">
  <ele>343.03</ele>
  <time>2026-09-01T19:58:13Z</time>
  <course>11.08</course>
  <speed>0.0</speed>
  <fix>3d</fix>
</trkpt>
<trkpt lat="-27.274439" lon="151.290064">
  <ele>343.1</ele>
  <time>2026-09-01T19:58:13Z</time>
  <course>270.0</course>
  <speed>0.0</speed>
  <fix>3d</fix>
</trkpt>
<trkpt lat="-27.274439" lon="151.290064">
  <ele>343.12</ele>
  <time>2026-09-01T19:58:13Z</time>
  <course>11.07</course>
  <speed>0.0</speed>
  <fix>3d</fix>
</trkpt>
<trkpt lat="-27.274439" lon="151.290064">
  <ele>343.1</ele>
  <time>2026-09-01T19:58:13Z</time>
  <course>270.0</course>
  <speed>0.0</speed>
  <fix>3d</fix>
</trkpt>
<trkpt lat="-27.274439" lon="151.290064">
  <ele>343.16</ele>
  <time>2026-09-01T19:58:13Z</time>
  <course>11.07</course>
  <speed>0.0</speed>
  <fix>3d</fix>
</trkpt>
<trkpt lat="-27.274439" lon="151.290064">
  <ele>343.1</ele>
  <time>2026-09-01T19:58:13Z</time>
  <course>270.0</course>
  <speed>0.0</speed>
  <fix>3d</fix>
</trkpt>
<trkpt lat="-27.274439" lon="151.290064">
  <ele>342.97</ele>
  <time>2026-09-01T19:58:13Z</time>
  <course>11.07</course>
  <speed>0.0</speed>
  <fix>3d</fix>
</trkpt>
<trkpt lat="-27.274439" lon="151.290064">
  <ele>343.1</ele>
  <time>2026-09-01T19:58:13Z</time>
  <course>270.0</course>
  <speed>0.0</speed>
  <fix>3d</fix>
</trkpt>
<trkpt lat="-27.274439" lon="151.290064">
  <ele>343.14</ele>
  <time>2026-09-01T19:58:13Z</time>
  <course>11.06</course>
  <speed>0.0</speed>
  <fix>3d</fix>
</trkpt>
<trkpt lat="-27.274439" lon="151.290064">
  <ele>343.1</ele>
  <time>2026-09-01T19:58:13Z</time>
  <course>270.0</course>
  <speed>0.0</speed>
  <fix>3d</fix>
</trkpt>
<trkpt lat="-27.274439" lon="151.290064">
  <ele>342.86</ele>
  <time>2026-09-01T19:58:13Z</time>
  <course>11.06</course>
  <speed>0.0</speed>
  <fix>3d</fix>
</trkpt>
<trkpt lat="-27.274439" lon="151.290064">
  <ele>343.1</ele>
  <time>2026-09-01T19:58:13Z</time>
  <course>270.0</course>
  <speed>0.0</speed>
  <fix>3d</fix>
</trkpt>
<trkpt lat="-27.274439" lon="151.290064">
  <ele>342.92</ele>
  <time>2026-09-01T19:58:13Z</time>
  <course>11.06</course>
  <speed>0.0</speed>
  <fix>3d</fix>
</trkpt>
<trkpt lat="-27.274439" lon="151.290064">
  <ele>343.1</ele>
  <time>2026-09-01T19:58:13Z</time>
  <course>270.0</course>
  <speed>0.0</speed>
  <fix>3d</fix>
</trkpt>
<trkpt lat="-27.274439" lon="151.290064">
  <ele>343.12</ele>
  <time>2026-09-01T19:58:13Z</time>
  <course>11.05</course>
  <speed>0.0</speed>
  <fix>3d</fix>
</trkpt>
<trkpt lat="-27.274439" lon="151.290064">
  <ele>343.1</ele>
  <time>2026-09-01T19:58:13Z</time>
  <course>270.0</course>
  <speed>0.0</speed>
  <fix>3d</fix>
</trkpt>
<trkpt lat="-27.274439" lon="151.290064">
  <ele>343.03</ele>
  <time>2026-09-01T19:58:13Z</time>
  <course>11.05</course>
  <speed>0.0</speed>
  <fix>3d</fix>
</trkpt>
<trkpt lat="-27.274439" lon="151.290064">
  <ele>343.1</ele>
  <time>2026-09-01T19:58:13Z</time>
  <course>270.0</course>
  <speed>0.0</speed>
  <fix>3d</fix>
</trkpt>
<trkpt lat="-27.274439" lon="151.290064">
  <ele>343.07</ele>
  <time>2026-09-01T19:58:13Z</time>
  <course>11.05</course>
  <speed>0.0</speed>
  <fix>3d</fix>
</trkpt>
<trkpt lat="-27.274439" lon="151.290064">
  <ele>343.1</ele>
  <time>2026-09-01T19:58:13Z</time>
  <course>270.0</course>
  <speed>0.0</speed>
  <fix>3d</fix>
</trkpt>
<trkpt lat="-27.274439" lon="151.290064">
  <ele>343.03</ele>
  <time>2026-09-01T19:58:13Z</time>
  <course>11.05</course>
  <speed>0.0</speed>
  <fix>3d</fix>
</trkpt>
<trkpt lat="-27.274439" lon="151.290064">
  <ele>343.1</ele>
  <time>2026-09-01T19:58:13Z</time>
  <course>270.0</course>
  <speed>0.0</speed>
  <fix>3d</fix>
</trkpt>
<trkpt lat="-27.274439" lon="151.290064">
  <ele>342.88</ele>
  <time>2026-09-01T19:58:13Z</time>
  <course>11.04</course>
  <speed>0.0</speed>
  <fix>3d</fix>
</trkpt>
<trkpt lat="-27.274439" lon="151.290064">
  <ele>343.1</ele>
  <time>2026-09-01T19:58:13Z</time>
  <course>270.0</course>
  <speed>0.0</speed>
  <fix>3d</fix>
</trkpt>
<trkpt lat="-27.274439" lon="151.290064">
  <ele>343.0</ele>
  <time>2026-09-01T19:58:13Z</time>
  <course>11.04</course>
  <speed>0.0</speed>
  <fix>3d</fix>
</trkpt>
<trkpt lat="-27.274439" lon="151.290064">
  <ele>343.1</ele>
  <time>2026-09-01T19:58:13Z</time>
  <course>270.0</course>
  <speed>0.0</speed>
  <fix>3d</fix>
</trkpt>
<trkpt lat="-27.274439" lon="151.290064">
  <ele>343.1</ele>
  <time>2026-09-01T19:58:13Z</time>
  <course>11.04</course>
  <speed>0.0</speed>
  <fix>3d</fix>
</trkpt>
<trkpt lat="-27.274439" lon="151.290064">
  <ele>343.1</ele>
  <time>2026-09-01T19:58:13Z</time>
  <course>270.0</course>
  <speed>0.0</speed>
  <fix>3d</fix>
</trkpt>
<trkpt lat="-27.274439" lon="151.290064">
  <ele>343.04</ele>
  <time>2026-09-01T19:58:13Z</time>
  <course>11.04</course>
  <speed>0.0</speed>
  <fix>3d</fix>
</trkpt>
<trkpt lat="-27.274439" lon="151.290064">
  <ele>343.1</ele>
  <time>2026-09-01T19:58:13Z</time>
  <course>270.0</course>
  <speed>0.0</speed>
  <fix>3d</fix>
</trkpt>
<trkpt lat="-27.274439" lon="151.290064">
  <ele>343.22</ele>
  <time>2026-09-01T19:58:13Z</time>
  <course>11.03</course>
  <speed>0.0</speed>
  <fix>3d</fix>
</trkpt>
<trkpt lat="-27.274439" lon="151.290064">
  <ele>343.1</ele>
  <time>2026-09-01T19:58:13Z</time>
  <course>270.0</course>
  <speed>0.0</speed>
  <fix>3d</fix>
</trkpt>
<trkpt lat="-27.274439" lon="151.290064">
  <ele>343.05</ele>
  <time>2026-09-01T19:58:13Z</time>
  <course>11.03</course>
  <speed>0.0</speed>
  <fix>3d</fix>
</trkpt>
<trkpt lat="-27.274439" lon="151.290064">
  <ele>343.1</ele>
  <time>2026-09-01T19:58:13Z</time>
  <course>270.0</course>
  <speed>0.0</speed>
  <fix>3d</fix>
</trkpt>
<trkpt lat="-27.274439" lon="151.290064">
  <ele>343.07</ele>
  <time>2026-09-01T19:58:13Z</time>
  <course>11.03</course>
  <speed>0.0</speed>
  <fix>3d</fix>
</trkpt>
<trkpt lat="-27.274439" lon="151.290064">
  <ele>343.1</ele>
  <time>2026-09-01T19:58:13Z</time>
  <course>270.0</course>
  <speed>0.0</speed>
  <fix>3d</fix>
</trkpt>
<trkpt lat="-27.274439" lon="151.290064">
  <ele>343.08</ele>
  <time>2026-09-01T19:58:13Z</time>
  <course>11.03</course>
  <speed>0.0</speed>
  <fix>3d</fix>
</trkpt>
<trkpt lat="-27.274439" lon="151.290064">
  <ele>343.1</ele>
  <time>2026-09-01T19:58:13Z</time>
  <course>270.0</course>
  <speed>0.0</speed>
  <fix>3d</fix>
</trkpt>
<trkpt lat="-27.274439" lon="151.290064">
  <ele>342.89</ele>
  <time>2026-09-01T19:58:13Z</time>
  <course>11.02</course>
  <speed>0.0</speed>
  <fix>3d</fix>
</trkpt>
<trkpt lat="-27.274439" lon="151.290064">
  <ele>343.1</ele>
  <time>2026-09-01T19:58:13Z</time>
  <course>270.0</course>
  <speed>0.0</speed>
  <fix>3d</fix>
</trkpt>
<trkpt lat="-27.274439" lon="151.290064">
  <ele>342.99</ele>
  <time>2026-09-01T19:58:13Z</time>
  <course>11.02</course>
  <speed>0.0</speed>
  <fix>3d</fix>
</trkpt>
<trkpt lat="-27.274439" lon="151.290064">
  <ele>343.1</ele>
  <time>2026-09-01T19:58:13Z</time>
  <course>270.0</course>
  <speed>0.0</speed>
  <fix>3d</fix>
</trkpt>
<trkpt lat="-27.274439" lon="151.290064">
  <ele>342.89</ele>
  <time>2026-09-01T19:58:13Z</time>
  <course>11.02</course>
  <speed>0.0</speed>
  <fix>3d</fix>
</trkpt>
<trkpt lat="-27.274439" lon="151.290064">
  <ele>343.1</ele>
  <time>2026-09-01T19:58:13Z</time>
  <course>270.0</course>
  <speed>0.0</speed>
  <fix>3d</fix>
</trkpt>
<trkpt lat="-27.274439" lon="151.290064">
  <ele>343.19</ele>
  <time>2026-09-01T19:58:13Z</time>
  <course>11.02</course>
  <speed>0.0</speed>
  <fix>3d</fix>
</trkpt>
<trkpt lat="-27.274439" lon="151.290064">
  <ele>343.1</ele>
  <time>2026-09-01T19:58:13Z</time>
  <course>270.0</course>
  <speed>0.0</speed>
  <fix>3d</fix>
</trkpt>
<trkpt lat="-27.274439" lon="151.290064">
  <ele>343.02</ele>
  <time>2026-09-01T19:58:13Z</time>
  <course>11.01</course>
  <speed>0.0</speed>
  <fix>3d</fix>
</trkpt>
<trkpt lat="-27.274439" lon="151.290064">
  <ele>343.1</ele>
  <time>2026-09-01T19:58:13Z</time>
  <course>270.0</course>
  <speed>0.0</speed>
  <fix>3d</fix>
</trkpt>
<trkpt lat="-27.274439" lon="151.290064">
  <ele>343.2</ele>
  <time>2026-09-01T19:58:13Z</time>
  <course>11.01</course>
  <speed>0.0</speed>
  <fix>3d</fix>
</trkpt>
<trkpt lat="-27.274439" lon="151.290064">
  <ele>343.1</ele>
  <time>2026-09-01T19:58:13Z</time>
  <course>270.0</course>
  <speed>0.0</speed>
  <fix>3d</fix>
</trkpt>
<trkpt lat="-27.274439" lon="151.290064">
  <ele>343.22</ele>
  <time>2026-09-01T19:58:13Z</time>
  <course>11.01</course>
  <speed>0.0</speed>
  <fix>3d</fix>
</trkpt>
<trkpt lat="-27.274439" lon="151.290064">
  <ele>343.1</ele>
  <time>2026-09-01T19:58:13Z</time>
  <course>270.0</course>
  <speed>0.0</speed>
  <fix>3d</fix>
</trkpt>
<trkpt lat="-27.274439" lon="151.290064">
  <ele>343.04</ele>
  <time>2026-09-01T19:58:13Z</time>
  <course>11.01</course>
  <speed>0.0</speed>
  <fix>3d</fix>
</trkpt>
<trkpt lat="-27.274439" lon="151.290064">
  <ele>343.1</ele>
  <time>2026-09-01T19:58:13Z</time>
  <course>270.0</course>
  <speed>0.0</speed>
  <fix>3d</fix>
</trkpt>
<trkpt lat="-27.274439" lon="151.290064">
  <ele>343.14</ele>
  <time>2026-09-01T19:58:13Z</time>
  <course>11.0</course>
  <speed>0.0</speed>
  <fix>3d</fix>
</trkpt>
<trkpt lat="-27.274439" lon="151.290064">
  <ele>343.1</ele>
  <time>2026-09-01T19:58:13Z</time>
  <course>270.0</course>
  <speed>0.0</speed>
  <fix>3d</fix>
</trkpt>
<trkpt lat="-27.274439" lon="151.290064">
  <ele>342.98</ele>
  <time>2026-09-01T19:58:13Z</time>
  <course>11.0</course>
  <speed>0.0</speed>
  <fix>3d</fix>
</trkpt>
<trkpt lat="-27.274439" lon="151.290064">
  <ele>343.1</ele>
  <time>2026-09-01T19:58:13Z</time>
  <course>270.0</course>
  <speed>0.0</speed>
  <fix>3d</fix>
</trkpt>
<trkpt lat="-27.274439" lon="151.290064">
  <ele>342.95</ele>
  <time>2026-09-01T19:58:13Z</time>
  <course>11.0</course>
  <speed>0.0</speed>
  <fix>3d</fix>
</trkpt>
<trkpt lat="-27.274439" lon="151.290064">
  <ele>343.1</ele>
  <time>2026-09-01T19:58:13Z</time>
  <course>270.0</course>
  <speed>0.0</speed>
  <fix>3d</fix>
</trkpt>
<trkpt lat="-27.274439" lon="151.290064">
  <ele>343.13</ele>
  <time>2026-09-01T19:58:13Z</time>
  <course>11.0</course>
  <speed>0.0</speed>
  <fix>3d</fix>
</trkpt>
<trkpt lat="-27.274439" lon="151.290064">
  <ele>343.1</ele>
  <time>2026-09-01T19:58:13Z</time>
  <course>270.0</course>
  <speed>0.0</speed>
  <fix>3d</fix>
</trkpt>
<trkpt lat="-27.274439" lon="151.290064">
  <ele>342.97</ele>
  <time>2026-09-01T19:58:13Z</time>
  <course>10.99</course>
  <speed>0.0</speed>
  <fix>3d</fix>
</trkpt>
<trkpt lat="-27.274439" lon="151.290064">
  <ele>343.1</ele>
  <time>2026-09-01T19:58:13Z</time>
  <course>270.0</course>
  <speed>0.0</speed>
  <fix>3d</fix>
</trkpt>
<trkpt lat="-27.274439" lon="151.290064">
  <ele>342.98</ele>
  <time>2026-09-01T19:58:13Z</time>
  <course>10.99</course>
  <speed>0.0</speed>
  <fix>3d</fix>
</trkpt>
<trkpt lat="-27.274439" lon="151.290064">
  <ele>343.1</ele>
  <time>2026-09-01T19:58:13Z</time>
  <course>270.0</course>
  <speed>0.0</speed>
  <fix>3d</fix>
</trkpt>
<trkpt lat="-27.274439" lon="151.290064">
  <ele>343.1</ele>
  <time>2026-09-01T19:58:13Z</time>
  <course>10.99</course>
  <speed>0.0</speed>
  <fix>3d</fix>
</trkpt>
<trkpt lat="-27.274439" lon="151.290064">
  <ele>343.1</ele>
  <time>2026-09-01T19:58:13Z</time>
  <course>270.0</course>
  <speed>0.0</speed>
  <fix>3d</fix>
</trkpt>
<trkpt lat="-27.274439" lon="151.290064">
  <ele>342.83</ele>
  <time>2026-09-01T19:58:13Z</time>
  <course>10.98</course>
  <speed>0.0</speed>
  <fix>3d</fix>
</trkpt>
<trkpt lat="-27.274439" lon="151.290064">
  <ele>343.1</ele>
  <time>2026-09-01T19:58:13Z</time>
  <course>270.0</course>
  <speed>0.0</speed>
  <fix>3d</fix>
</trkpt>
<trkpt lat="-27.274439" lon="151.290064">
  <ele>342.9</ele>
  <time>2026-09-01T19:58:13Z</time>
  <course>10.98</course>
  <speed>0.0</speed>
  <fix>3d</fix>
</trkpt>
<trkpt lat="-27.274439" lon="151.290064">
  <ele>343.1</ele>
  <time>2026-09-01T19:58:13Z</time>
  <course>270.0</course>
  <speed>0.0</speed>
  <fix>3d</fix>
</trkpt>
<trkpt lat="-27.274439" lon="151.290064">
  <ele>342.92</ele>
  <time>2026-09-01T19:58:13Z</time>
  <course>10.97</course>
  <speed>0.0</speed>
  <fix>3d</fix>
</trkpt>
<trkpt lat="-27.274439" lon="151.290064">
  <ele>343.1</ele>
  <time>2026-09-01T19:58:13Z</time>
  <course>270.0</course>
  <speed>0.0</speed>
  <fix>3d</fix>
</trkpt>
<trkpt lat="-27.274439" lon="151.290064">
  <ele>342.88</ele>
  <time>2026-09-01T19:58:13Z</time>
  <course>10.97</course>
  <speed>0.0</speed>
  <fix>3d</fix>
</trkpt>
<trkpt lat="-27.274439" lon="151.290064">
  <ele>343.1</ele>
  <time>2026-09-01T19:58:13Z</time>
  <course>270.0</course>
  <speed>0.0</speed>
  <fix>3d</fix>
</trkpt>
<trkpt lat="-27.274439" lon="151.290064">
  <ele>342.89</ele>
  <time>2026-09-01T19:58:13Z</time>
  <course>10.96</course>
  <speed>0.0</speed>
  <fix>3d</fix>
</trkpt>
<trkpt lat="-27.274439" lon="151.290064">
  <ele>343.1</ele>
  <time>2026-09-01T19:58:13Z</time>
  <course>270.0</course>
  <speed>0.0</speed>
  <fix>3d</fix>
</trkpt>
<trkpt lat="-27.274439" lon="151.290064">
  <ele>343.05</ele>
  <time>2026-09-01T19:58:13Z</time>
  <course>10.96</course>
  <speed>0.0</speed>
  <fix>3d</fix>
</trkpt>
<trkpt lat="-27.274439" lon="151.290064">
  <ele>343.1</ele>
  <time>2026-09-01T19:58:13Z</time>
  <course>270.0</course>
  <speed>0.0</speed>
  <fix>3d</fix>
</trkpt>
<trkpt lat="-27.274439" lon="151.290064">
  <ele>343.06</ele>
  <time>2026-09-01T19:58:13Z</time>
  <course>10.96</course>
  <speed>0.0</speed>
  <fix>3d</fix>
</trkpt>
<trkpt lat="-27.274439" lon="151.290064">
  <ele>343.1</ele>
  <time>2026-09-01T19:58:13Z</time>
  <course>270.0</course>
  <speed>0.0</speed>
  <fix>3d</fix>
</trkpt>
<trkpt lat="-27.274439" lon="151.290064">
  <ele>343.18</ele>
  <time>2026-09-01T19:58:13Z</time>
  <course>10.95</course>
  <speed>0.0</speed>
  <fix>3d</fix>
</trkpt>
<trkpt lat="-27.274439" lon="151.290064">
  <ele>343.1</ele>
  <time>2026-09-01T19:58:13Z</time>
  <course>270.0</course>
  <speed>0.0</speed>
  <fix>3d</fix>
</trkpt>
<trkpt lat="-27.274439" lon="151.290064">
  <ele>342.98</ele>
  <time>2026-09-01T19:58:13Z</time>
  <course>10.95</course>
  <speed>0.0</speed>
  <fix>3d</fix>
</trkpt>
<trkpt lat="-27.274439" lon="151.290064">
  <ele>343.1</ele>
  <time>2026-09-01T19:58:13Z</time>
  <course>270.0</course>
  <speed>0.0</speed>
  <fix>3d</fix>
</trkpt>
<trkpt lat="-27.274439" lon="151.290064">
  <ele>343.05</ele>
  <time>2026-09-01T19:58:13Z</time>
  <course>10.94</course>
  <speed>0.0</speed>
  <fix>3d</fix>
</trkpt>
<trkpt lat="-27.274439" lon="151.290064">
  <ele>343.1</ele>
  <time>2026-09-01T19:58:13Z</time>
  <course>270.0</course>
  <speed>0.0</speed>
  <fix>3d</fix>
</trkpt>
<trkpt lat="-27.274439" lon="151.290064">
  <ele>343.02</ele>
  <time>2026-09-01T19:58:13Z</time>
  <course>10.94</course>
  <speed>0.0</speed>
  <fix>3d</fix>
</trkpt>
<trkpt lat="-27.274439" lon="151.290064">
  <ele>343.1</ele>
  <time>2026-09-01T19:58:13Z</time>
  <course>270.0</course>
  <speed>0.0</speed>
  <fix>3d</fix>
</trkpt>
<trkpt lat="-27.274439" lon="151.290064">
  <ele>343.12</ele>
  <time>2026-09-01T19:58:13Z</time>
  <course>10.94</course>
  <speed>0.0</speed>
  <fix>3d</fix>
</trkpt>
<trkpt lat="-27.274439" lon="151.290064">
  <ele>343.1</ele>
  <time>2026-09-01T19:58:13Z</time>
  <course>270.0</course>
  <speed>0.0</speed>
  <fix>3d</fix>
</trkpt>
<trkpt lat="-27.274439" lon="151.290064">
  <ele>343.0</ele>
  <time>2026-09-01T19:58:13Z</time>
  <course>10.93</course>
  <speed>0.0</speed>
  <fix>3d</fix>
</trkpt>
<trkpt lat="-27.274439" lon="151.290064">
  <ele>343.1</ele>
  <time>2026-09-01T19:58:13Z</time>
  <course>270.0</course>
  <speed>0.0</speed>
  <fix>3d</fix>
</trkpt>
<trkpt lat="-27.274439" lon="151.290064">
  <ele>342.9</ele>
  <time>2026-09-01T19:58:13Z</time>
  <course>10.93</course>
  <speed>0.0</speed>
  <fix>3d</fix>
</trkpt>
<trkpt lat="-27.274439" lon="151.290064">
  <ele>343.1</ele>
  <time>2026-09-01T19:58:13Z</time>
  <course>270.0</course>
  <speed>0.0</speed>
  <fix>3d</fix>
</trkpt>
<trkpt lat="-27.274439" lon="151.290064">
  <ele>342.85</ele>
  <time>2026-09-01T19:58:13Z</time>
  <course>10.93</course>
  <speed>0.0</speed>
  <fix>3d</fix>
</trkpt>
<trkpt lat="-27.274439" lon="151.290064">
  <ele>343.1</ele>
  <time>2026-09-01T19:58:13Z</time>
  <course>270.0</course>
  <speed>0.0</speed>
  <fix>3d</fix>
</trkpt>
<trkpt lat="-27.274439" lon="151.290064">
  <ele>343.1</ele>
  <time>2026-09-01T19:58:13Z</time>
  <course>10.92</course>
  <speed>0.0</speed>
  <fix>3d</fix>
</trkpt>
<trkpt lat="-27.274439" lon="151.290064">
  <ele>343.1</ele>
  <time>2026-09-01T19:58:13Z</time>
  <course>270.0</course>
  <speed>0.0</speed>
  <fix>3d</fix>
</trkpt>
<trkpt lat="-27.274439" lon="151.290064">
  <ele>342.96</ele>
  <time>2026-09-01T19:58:13Z</time>
  <course>10.92</course>
  <speed>0.0</speed>
  <fix>3d</fix>
</trkpt>
<trkpt lat="-27.274439" lon="151.290064">
  <ele>343.1</ele>
  <time>2026-09-01T19:58:13Z</time>
  <course>270.0</course>
  <speed>0.0</speed>
  <fix>3d</fix>
</trkpt>
<trkpt lat="-27.274439" lon="151.290064">
  <ele>343.02</ele>
  <time>2026-09-01T19:58:13Z</time>
  <course>10.92</course>
  <speed>0.0</speed>
  <fix>3d</fix>
</trkpt>
<trkpt lat="-27.274439" lon="151.290064">
  <ele>343.1</ele>
  <time>2026-09-01T19:58:13Z</time>
  <course>270.0</course>
  <speed>0.0</speed>
  <fix>3d</fix>
</trkpt>
<trkpt lat="-27.274439" lon="151.290064">
  <ele>342.99</ele>
  <time>2026-09-01T19:58:13Z</time>
  <course>10.91</course>
  <speed>0.0</speed>
  <fix>3d</fix>
</trkpt>
<trkpt lat="-27.274439" lon="151.290064">
  <ele>343.1</ele>
  <time>2026-09-01T19:58:13Z</time>
  <course>270.0</course>
  <speed>0.0</speed>
  <fix>3d</fix>
</trkpt>
<trkpt lat="-27.274439" lon="151.290064">
  <ele>343.2</ele>
  <time>2026-09-01T19:58:13Z</time>
  <course>10.91</course>
  <speed>0.0</speed>
  <fix>3d</fix>
</trkpt>
<trkpt lat="-27.274439" lon="151.290064">
  <ele>343.1</ele>
  <time>2026-09-01T19:58:13Z</time>
  <course>270.0</course>
  <speed>0.0</speed>
  <fix>3d</fix>
</trkpt>
<trkpt lat="-27.274439" lon="151.290064">
  <ele>343.09</ele>
  <time>2026-09-01T19:58:13Z</time>
  <course>10.91</course>
  <speed>0.0</speed>
  <fix>3d</fix>
</trkpt>
<trkpt lat="-27.274439" lon="151.290064">
  <ele>343.1</ele>
  <time>2026-09-01T19:58:13Z</time>
  <course>270.0</course>
  <speed>0.0</speed>
  <fix>3d</fix>
</trkpt>
<trkpt lat="-27.274439" lon="151.290064">
  <ele>343.12</ele>
  <time>2026-09-01T19:58:13Z</time>
  <course>10.9</course>
  <speed>0.0</speed>
  <fix>3d</fix>
</trkpt>
<trkpt lat="-27.274439" lon="151.290064">
  <ele>343.1</ele>
  <time>2026-09-01T19:58:13Z</time>
  <course>270.0</course>
  <speed>0.0</speed>
  <fix>3d</fix>
</trkpt>
<trkpt lat="-27.274439" lon="151.290064">
  <ele>343.19</ele>
  <time>2026-09-01T19:58:13Z</time>
  <course>10.9</course>
  <speed>0.0</speed>
  <fix>3d</fix>
</trkpt>
<trkpt lat="-27.274439" lon="151.290064">
  <ele>343.1</ele>
  <time>2026-09-01T19:58:13Z</time>
  <course>270.0</course>
  <speed>0.0</speed>
  <fix>3d</fix>
</trkpt>
<trkpt lat="-27.274439" lon="151.290064">
  <ele>343.14</ele>
  <time>2026-09-01T19:58:13Z</time>
  <course>10.9</course>
  <speed>0.0</speed>
  <fix>3d</fix>
</trkpt>
<trkpt lat="-27.274439" lon="151.290064">
  <ele>343.1</ele>
  <time>2026-09-01T19:58:13Z</time>
  <course>270.0</course>
  <speed>0.0</speed>
  <fix>3d</fix>
</trkpt>
<trkpt lat="-27.274439" lon="151.290064">
  <ele>342.91</ele>
  <time>2026-09-01T19:58:13Z</time>
  <course>10.89</course>
  <speed>0.0</speed>
  <fix>3d</fix>
</trkpt>
<trkpt lat="-27.274439" lon="151.290064">
  <ele>343.1</ele>
  <time>2026-09-01T19:58:13Z</time>
  <course>270.0</course>
  <speed>0.0</speed>
  <fix>3d</fix>
</trkpt>
<trkpt lat="-27.274439" lon="151.290064">
  <ele>342.99</ele>
  <time>2026-09-01T19:58:13Z</time>
  <course>10.89</course>
  <speed>0.0</speed>
  <fix>3d</fix>
</trkpt>
<trkpt lat="-27.274439" lon="151.290064">
  <ele>343.1</ele>
  <time>2026-09-01T19:58:13Z</time>
  <course>270.0</course>
  <speed>0.0</speed>
  <fix>3d</fix>
</trkpt>
<trkpt lat="-27.274439" lon="151.290064">
  <ele>342.97</ele>
  <time>2026-09-01T19:58:13Z</time>
  <course>10.89</course>
  <speed>0.0</speed>
  <fix>3d</fix>
</trkpt>
<trkpt lat="-27.274439" lon="151.290064">
  <ele>343.1</ele>
  <time>2026-09-01T19:58:13Z</time>
  <course>270.0</course>
  <speed>0.0</speed>
  <fix>3d</fix>
</trkpt>
<trkpt lat="-27.274439" lon="151.290064">
  <ele>342.85</ele>
  <time>2026-09-01T19:58:13Z</time>
  <course>10.88</course>
  <speed>0.0</speed>
  <fix>3d</fix>
</trkpt>
<trkpt lat="-27.274439" lon="151.290064">
  <ele>343.1</ele>
  <time>2026-09-01T19:58:13Z</time>
  <course>270.0</course>
  <speed>0.0</speed>
  <fix>3d</fix>
</trkpt>
<trkpt lat="-27.274439" lon="151.290064">
  <ele>342.87</ele>
  <time>2026-09-01T19:58:13Z</time>
  <course>10.88</course>
  <speed>0.0</speed>
  <fix>3d</fix>
</trkpt>
<trkpt lat="-27.274439" lon="151.290064">
  <ele>343.1</ele>
  <time>2026-09-01T19:58:13Z</time>
  <course>270.0</course>
  <speed>0.0</speed>
  <fix>3d</fix>
</trkpt>
<trkpt lat="-27.274439" lon="151.290064">
  <ele>343.13</ele>
  <time>2026-09-01T19:58:13Z</time>
  <course>10.88</course>
  <speed>0.0</speed>
  <fix>3d</fix>
</trkpt>
<trkpt lat="-27.274439" lon="151.290064">
  <ele>343.1</ele>
  <time>2026-09-01T19:58:13Z</time>
  <course>270.0</course>
  <speed>0.0</speed>
  <fix>3d</fix>
</trkpt>
<trkpt lat="-27.274439" lon="151.290064">
  <ele>343.08</ele>
  <time>2026-09-01T19:58:13Z</time>
  <course>10.88</course>
  <speed>0.0</speed>
  <fix>3d</fix>
</trkpt>
<trkpt lat="-27.274439" lon="151.290064">
  <ele>343.1</ele>
  <time>2026-09-01T19:58:13Z</time>
  <course>270.0</course>
  <speed>0.0</speed>
  <fix>3d</fix>
</trkpt>
<trkpt lat="-27.274439" lon="151.290064">
  <ele>342.88</ele>
  <time>2026-09-01T19:58:13Z</time>
  <course>10.87</course>
  <speed>0.0</speed>
  <fix>3d</fix>
</trkpt>
<trkpt lat="-27.274439" lon="151.290064">
  <ele>343.1</ele>
  <time>2026-09-01T19:58:13Z</time>
  <course>270.0</course>
  <speed>0.0</speed>
  <fix>3d</fix>
</trkpt>
<trkpt lat="-27.274439" lon="151.290064">
  <ele>342.83</ele>
  <time>2026-09-01T19:58:13Z</time>
  <course>10.87</course>
  <speed>0.0</speed>
  <fix>3d</fix>
</trkpt>
<trkpt lat="-27.274439" lon="151.290064">
  <ele>343.1</ele>
  <time>2026-09-01T19:58:13Z</time>
  <course>270.0</course>
  <speed>0.0</speed>
  <fix>3d</fix>
</trkpt>
<trkpt lat="-27.274439" lon="151.290064">
  <ele>343.0</ele>
  <time>2026-09-01T19:58:13Z</time>
  <course>10.87</course>
  <speed>0.0</speed>
  <fix>3d</fix>
</trkpt>
<trkpt lat="-27.274439" lon="151.290064">
  <ele>343.1</ele>
  <time>2026-09-01T19:58:13Z</time>
  <course>270.0</course>
  <speed>0.0</speed>
  <fix>3d</fix>
</trkpt>
<trkpt lat="-27.274439" lon="151.290064">
  <ele>342.82</ele>
  <time>2026-09-01T19:58:13Z</time>
  <course>10.86</course>
  <speed>0.0</speed>
  <fix>3d</fix>
</trkpt>
<trkpt lat="-27.274439" lon="151.290064">
  <ele>343.1</ele>
  <time>2026-09-01T19:58:13Z</time>
  <course>270.0</course>
  <speed>0.0</speed>
  <fix>3d</fix>
</trkpt>
<trkpt lat="-27.274439" lon="151.290064">
  <ele>342.88</ele>
  <time>2026-09-01T19:58:13Z</time>
  <course>10.86</course>
  <speed>0.0</speed>
  <fix>3d</fix>
</trkpt>
<trkpt lat="-27.274439" lon="151.290064">
  <ele>343.1</ele>
  <time>2026-09-01T19:58:13Z</time>
  <course>270.0</course>
  <speed>0.0</speed>
  <fix>3d</fix>
</trkpt>
<trkpt lat="-27.274439" lon="151.290064">
  <ele>342.86</ele>
  <time>2026-09-01T19:58:13Z</time>
  <course>10.86</course>
  <speed>0.0</speed>
  <fix>3d</fix>
</trkpt>
<trkpt lat="-27.274439" lon="151.290064">
  <ele>343.1</ele>
  <time>2026-09-01T19:58:13Z</time>
  <course>270.0</course>
  <speed>0.0</speed>
  <fix>3d</fix>
</trkpt>
<trkpt lat="-27.274439" lon="151.290064">
  <ele>343.15</ele>
  <time>2026-09-01T19:58:13Z</time>
  <course>10.86</course>
  <speed>0.0</speed>
  <fix>3d</fix>
</trkpt>
<trkpt lat="-27.274439" lon="151.290064">
  <ele>343.1</ele>
  <time>2026-09-01T19:58:13Z</time>
  <course>270.0</course>
  <speed>0.0</speed>
  <fix>3d</fix>
</trkpt>
<trkpt lat="-27.274439" lon="151.290064">
  <ele>342.9</ele>
  <time>2026-09-01T19:58:13Z</time>
  <course>10.85</course>
  <speed>0.0</speed>
  <fix>3d</fix>
</trkpt>
<trkpt lat="-27.274439" lon="151.290064">
  <ele>343.1</ele>
  <time>2026-09-01T19:58:13Z</time>
  <course>270.0</course>
  <speed>0.0</speed>
  <fix>3d</fix>
</trkpt>
<trkpt lat="-27.274439" lon="151.290064">
  <ele>342.84</ele>
  <time>2026-09-01T19:58:13Z</time>
  <course>10.85</course>
  <speed>0.0</speed>
  <fix>3d</fix>
</trkpt>
<trkpt lat="-27.274439" lon="151.290064">
  <ele>343.1</ele>
  <time>2026-09-01T19:58:13Z</time>
  <course>270.0</course>
  <speed>0.0</speed>
  <fix>3d</fix>
</trkpt>
<trkpt lat="-27.274439" lon="151.290064">
  <ele>342.85</ele>
  <time>2026-09-01T19:58:13Z</time>
  <course>10.85</course>
  <speed>0.0</speed>
  <fix>3d</fix>
</trkpt>
<trkpt lat="-27.274439" lon="151.290064">
  <ele>343.1</ele>
  <time>2026-09-01T19:58:13Z</time>
  <course>270.0</course>
  <speed>0.0</speed>
  <fix>3d</fix>
</trkpt>
<trkpt lat="-27.274439" lon="151.290064">
  <ele>342.89</ele>
  <time>2026-09-01T19:58:13Z</time>
  <course>10.85</course>
  <speed>0.0</speed>
  <fix>3d</fix>
</trkpt>
<trkpt lat="-27.274439" lon="151.290064">
  <ele>343.1</ele>
  <time>2026-09-01T19:58:13Z</time>
  <course>270.0</course>
  <speed>0.0</speed>
  <fix>3d</fix>
</trkpt>
<trkpt lat="-27.274439" lon="151.290064">
  <ele>343.01</ele>
  <time>2026-09-01T19:58:13Z</time>
  <course>10.84</course>
  <speed>0.0</speed>
  <fix>3d</fix>
</trkpt>
<trkpt lat="-27.274439" lon="151.290064">
  <ele>343.1</ele>
  <time>2026-09-01T19:58:13Z</time>
  <course>270.0</course>
  <speed>0.0</speed>
  <fix>3d</fix>
</trkpt>
<trkpt lat="-27.274439" lon="151.290064">
  <ele>342.97</ele>
  <time>2026-09-01T19:58:13Z</time>
  <course>10.84</course>
  <speed>0.0</speed>
  <fix>3d</fix>
</trkpt>
<trkpt lat="-27.274439" lon="151.290064">
  <ele>343.1</ele>
  <time>2026-09-01T19:58:13Z</time>
  <course>270.0</course>
  <speed>0.0</speed>
  <fix>3d</fix>
</trkpt>
<trkpt lat="-27.274439" lon="151.290064">
  <ele>343.12</ele>
  <time>2026-09-01T19:58:13Z</time>
  <course>10.84</course>
  <speed>0.0</speed>
  <fix>3d</fix>
</trkpt>
<trkpt lat="-27.274439" lon="151.290064">
  <ele>343.1</ele>
  <time>2026-09-01T19:58:13Z</time>
  <course>270.0</course>
  <speed>0.0</speed>
  <fix>3d</fix>
</trkpt>
<trkpt lat="-27.274439" lon="151.290064">
  <ele>343.0</ele>
  <time>2026-09-01T19:58:13Z</time>
  <course>10.69</course>
  <speed>0.0</speed>
  <fix>3d</fix>
</trkpt>
<trkpt lat="-27.274439" lon="151.290064">
  <ele>343.1</ele>
  <time>2026-09-01T19:58:13Z</time>
  <course>270.0</course>
  <speed>0.0</speed>
  <fix>3d</fix>
</trkpt>
<trkpt lat="-27.274439" lon="151.290064">
  <ele>343.0</ele>
  <time>2026-09-01T19:58:13Z</time>
  <course>10.69</course>
  <speed>0.0</speed>
  <fix>3d</fix>
</trkpt>
<trkpt lat="-27.274439" lon="151.290064">
  <ele>343.1</ele>
  <time>2026-09-01T19:58:13Z</time>
  <course>270.0</course>
  <speed>0.0</speed>
  <fix>3d</fix>
</trkpt>
<trkpt lat="-27.274439" lon="151.290064">
  <ele>343.0</ele>
  <time>2026-09-01T19:58:13Z</time>
  <course>10.69</course>
  <speed>0.0</speed>
  <fix>3d</fix>
</trkpt>
<trkpt lat="-27.274439" lon="151.290064">
  <ele>343.1</ele>
  <time>2026-09-01T19:58:13Z</time>
  <course>270.0</course>
  <speed>0.0</speed>
  <fix>3d</fix>
</trkpt>
<trkpt lat="-27.274439" lon="151.290064">
  <ele>342.99</ele>
  <time>2026-09-01T19:58:13Z</time>
  <course>10.69</course>
  <speed>0.0</speed>
  <fix>3d</fix>
</trkpt>
<trkpt lat="-27.274439" lon="151.290064">
  <ele>343.1</ele>
  <time>2026-09-01T19:58:13Z</time>
  <course>270.0</course>
  <speed>0.0</speed>
  <fix>3d</fix>
</trkpt>
<trkpt lat="-27.274439" lon="151.290064">
  <ele>342.99</ele>
  <time>2026-09-01T19:58:13Z</time>
  <course>10.69</course>
  <speed>0.0</speed>
  <fix>3d</fix>
</trkpt>
<trkpt lat="-27.274439" lon="151.290064">
  <ele>343.1</ele>
  <time>2026-09-01T19:58:13Z</time>
  <course>270.0</course>
  <speed>0.0</speed>
  <fix>3d</fix>
</trkpt>
<trkpt lat="-27.274439" lon="151.290064">
  <ele>342.99</ele>
  <time>2026-09-01T19:58:13Z</time>
  <course>10.69</course>
  <speed>0.0</speed>
  <fix>3d</fix>
</trkpt>
<trkpt lat="-27.274439" lon="151.290064">
  <ele>343.1</ele>
  <time>2026-09-01T19:58:13Z</time>
  <course>270.0</course>
  <speed>0.0</speed>
  <fix>3d</fix>
</trkpt>
<trkpt lat="-27.274439" lon="151.290064">
  <ele>342.98</ele>
  <time>2026-09-01T19:58:13Z</time>
  <course>10.69</course>
  <speed>0.0</speed>
  <fix>3d</fix>
</trkpt>
<trkpt lat="-27.274439" lon="151.290064">
  <ele>343.1</ele>
  <time>2026-09-01T19:58:13Z</time>
  <course>270.0</course>
  <speed>0.0</speed>
  <fix>3d</fix>
</trkpt>
<trkpt lat="-27.274439" lon="151.290064">
  <ele>342.98</ele>
  <time>2026-09-01T19:58:13Z</time>
  <course>10.69</course>
  <speed>0.0</speed>
  <fix>3d</fix>
</trkpt>
<trkpt lat="-27.274439" lon="151.290064">
  <ele>343.1</ele>
  <time>2026-09-01T19:58:13Z</time>
  <course>270.0</course>
  <speed>0.0</speed>
  <fix>3d</fix>
</trkpt>
<trkpt lat="-27.274439" lon="151.290064">
  <ele>342.97</ele>
  <time>2026-09-01T19:58:13Z</time>
  <course>10.69</course>
  <speed>0.0</speed>
  <fix>3d</fix>
</trkpt>
<trkpt lat="-27.274439" lon="151.290064">
  <ele>343.1</ele>
  <time>2026-09-01T19:58:13Z</time>
  <course>270.0</course>
  <speed>0.0</speed>
  <fix>3d</fix>
</trkpt>
<trkpt lat="-27.274439" lon="151.290064">
  <ele>342.97</ele>
  <time>2026-09-01T19:58:13Z</time>
  <course>10.69</course>
  <speed>0.0</speed>
  <fix>3d</fix>
</trkpt>
<trkpt lat="-27.274439" lon="151.290064">
  <ele>343.1</ele>
  <time>2026-09-01T19:58:13Z</time>
  <course>270.0</course>
  <speed>0.0</speed>
  <fix>3d</fix>
</trkpt>
<trkpt lat="-27.274439" lon="151.290064">
  <ele>342.97</ele>
  <time>2026-09-01T19:58:13Z</time>
  <course>10.69</course>
  <speed>0.01</speed>
  <fix>3d</fix>
</trkpt>
<trkpt lat="-27.274439" lon="151.290064">
  <ele>343.1</ele>
  <time>2026-09-01T19:58:13Z</time>
  <course>270.0</course>
  <speed>0.0</speed>
  <fix>3d</fix>
</trkpt>
<trkpt lat="-27.274439" lon="151.290064">
  <ele>343.09</ele>
  <time>2026-09-01T19:58:13Z</time>
  <course>10.69</course>
  <speed>0.01</speed>
  <fix>3d</fix>
</trkpt>
<trkpt lat="-27.274439" lon="151.290064">
  <ele>343.1</ele>
  <time>2026-09-01T19:58:13Z</time>
  <course>270.0</course>
  <speed>0.0</speed>
  <fix>3d</fix>
</trkpt>
<trkpt lat="-27.274439" lon="151.290064">
  <ele>343.09</ele>
  <time>2026-09-01T19:58:13Z</time>
  <course>10.69</course>
  <speed>0.01</speed>
  <fix>3d</fix>
</trkpt>
<trkpt lat="-27.274439" lon="151.290064">
  <ele>343.1</ele>
  <time>2026-09-01T19:58:13Z</time>
  <course>270.0</course>
  <speed>0.0</speed>
  <fix>3d</fix>
</trkpt>
<trkpt lat="-27.274439" lon="151.290064">
  <ele>343.09</ele>
  <time>2026-09-01T19:58:13Z</time>
  <course>10.69</course>
  <speed>0.01</speed>
  <fix>3d</fix>
</trkpt>
<trkpt lat="-27.274439" lon="151.290064">
  <ele>343.1</ele>
  <time>2026-09-01T19:58:13Z</time>
  <course>270.0</course>
  <speed>0.0</speed>
  <fix>3d</fix>
</trkpt>
<trkpt lat="-27.274439" lon="151.290064">
  <ele>343.09</ele>
  <time>2026-09-01T19:58:13Z</time>
  <course>10.69</course>
  <speed>0.01</speed>
  <fix>3d</fix>
</trkpt>
<trkpt lat="-27.274439" lon="151.290064">
  <ele>343.1</ele>
  <time>2026-09-01T19:58:13Z</time>
  <course>143.0</course>
  <speed>0.0</speed>
  <fix>3d</fix>
</trkpt>
<trkpt lat="-27.274439" lon="151.290064">
  <ele>343.09</ele>
  <time>2026-09-01T19:58:13Z</time>
  <course>10.69</course>
  <speed>0.01414213562373095</speed>
  <fix>3d</fix>
</trkpt>
<trkpt lat="-27.274439" lon="151.290064">
  <ele>343.1</ele>
  <time>2026-09-01T19:58:13Z</time>
  <course>143.0</course>
  <speed>0.0</speed>
  <fix>3d</fix>
</trkpt>
<trkpt lat="-27.274439" lon="151.290064">
  <ele>343.09</ele>
  <time>2026-09-01T19:58:13Z</time>
  <course>10.69</course>
  <speed>0.01414213562373095</speed>
  <fix>3d</fix>
</trkpt>
<trkpt lat="-27.274439" lon="151.290064">
  <ele>343.1</ele>
  <time>2026-09-01T19:58:13Z</time>
  <course>141.02</course>
  <speed>0.0</speed>
  <fix>3d</fix>
</trkpt>
<trkpt lat="-27.274439" lon="151.290064">
  <ele>343.09</ele>
  <time>2026-09-01T19:58:13Z</time>
  <course>10.69</course>
  <speed>0.01414213562373095</speed>
  <fix>3d</fix>
</trkpt>
<trkpt lat="-27.274439" lon="151.290064">
  <ele>343.1</ele>
  <time>2026-09-01T19:58:13Z</time>
  <course>141.02</course>
  <speed>0.0</speed>
  <fix>3d</fix>
</trkpt>
<trkpt lat="-27.274439" lon="151.290064">
  <ele>343.09</ele>
  <time>2026-09-01T19:58:13Z</time>
  <course>10.69</course>
  <speed>0.01414213562373095</speed>
  <fix>3d</fix>
</trkpt>
<trkpt lat="-27.274439" lon="151.290064">
  <ele>343.1</ele>
  <time>2026-09-01T19:58:13Z</time>
  <course>139.03</course>
  <speed>0.0</speed>
  <fix>3d</fix>
</trkpt>
<trkpt lat="-27.274439" lon="151.290064">
  <ele>343.09</ele>
  <time>2026-09-01T19:58:13Z</time>
  <course>10.69</course>
  <speed>0.01414213562373095</speed>
  <fix>3d</fix>
</trkpt>
<trkpt lat="-27.274439" lon="151.290064">
  <ele>343.1</ele>
  <time>2026-09-01T19:58:13Z</time>
  <course>139.03</course>
  <speed>0.0</speed>
  <fix>3d</fix>
</trkpt>
<trkpt lat="-27.274439" lon="151.290064">
  <ele>343.09</ele>
  <time>2026-09-01T19:58:13Z</time>
  <course>10.69</course>
  <speed>0.01414213562373095</speed>
  <fix>3d</fix>
</trkpt>
<trkpt lat="-27.274439" lon="151.290064">
  <ele>343.1</ele>
  <time>2026-09-01T19:58:13Z</time>
  <course>321.68</course>
  <speed>0.0</speed>
  <fix>3d</fix>
</trkpt>
<trkpt lat="-27.274439" lon="151.290064">
  <ele>343.08</ele>
  <time>2026-09-01T19:58:13Z</time>
  <course>10.69</course>
  <speed>0.01414213562373095</speed>
  <fix>3d</fix>
</trkpt>
<trkpt lat="-27.274439" lon="151.290064">
  <ele>343.1</ele>
  <time>2026-09-01T19:58:13Z</time>
  <course>321.68</course>
  <speed>0.0</speed>
  <fix>3d</fix>
</trkpt>
<trkpt lat="-27.274439" lon="151.290064">
  <ele>343.09</ele>
  <time>2026-09-01T19:58:13Z</time>
  <course>10.69</course>
  <speed>0.01414213562373095</speed>
  <fix>3d</fix>
</trkpt>
<trkpt lat="-27.274439" lon="151.290064">
  <ele>343.1</ele>
  <time>2026-09-01T19:58:13Z</time>
  <course>320.43</course>
  <speed>0.0</speed>
  <fix>3d</fix>
</trkpt>
<trkpt lat="-27.274439" lon="151.290064">
  <ele>343.1</ele>
  <time>2026-09-01T19:58:13Z</time>
  <course>10.69</course>
  <speed>0.01414213562373095</speed>
  <fix>3d</fix>
</trkpt>
<trkpt lat="-27.274439" lon="151.290064">
  <ele>343.1</ele>
  <time>2026-09-01T19:58:13Z</time>
  <course>320.43</course>
  <speed>0.0</speed>
  <fix>3d</fix>
</trkpt>
<trkpt lat="-27.274439" lon="151.290064">
  <ele>343.14</ele>
  <time>2026-09-01T19:58:13Z</time>
  <course>10.69</course>
  <speed>0.01414213562373095</speed>
  <fix>3d</fix>
</trkpt>
<trkpt lat="-27.274439" lon="151.290064">
  <ele>343.1</ele>
  <time>2026-09-01T19:58:13Z</time>
  <course>7.19</course>
  <speed>0.0</speed>
  <fix>3d</fix>
</trkpt>
<trkpt lat="-27.274439" lon="151.290064">
  <ele>343.19</ele>
  <time>2026-09-01T19:58:13Z</time>
  <course>10.69</course>
  <speed>0.01414213562373095</speed>
  <fix>3d</fix>
</trkpt>
<trkpt lat="-27.274439" lon="151.290064">
  <ele>343.1</ele>
  <time>2026-09-01T19:58:13Z</time>
  <course>7.19</course>
  <speed>0.0</speed>
  <fix>3d</fix>
</trkpt>
<trkpt lat="-27.274439" lon="151.290064">
  <ele>343.27</ele>
  <time>2026-09-01T19:58:13Z</time>
  <course>10.69</course>
  <speed>0.01</speed>
  <fix>3d</fix>
</trkpt>
<trkpt lat="-27.274439" lon="151.290064">
  <ele>343.15</ele>
  <time>2026-09-01T19:58:13Z</time>
  <course>7.77</course>
  <speed>0.0</speed>
  <fix>3d</fix>
</trkpt>
<trkpt lat="-27.274439" lon="151.290064">
  <ele>343.42</ele>
  <time>2026-09-01T19:58:13Z</time>
  <course>10.71</course>
  <speed>0.0316227766016838</speed>
  <fix>3d</fix>
</trkpt>
<trkpt lat="-27.274439" lon="151.290064">
  <ele>343.15</ele>
  <time>2026-09-01T19:58:13Z</time>
  <course>7.77</course>
  <speed>0.0</speed>
  <fix>3d</fix>
</trkpt>
<trkpt lat="-27.274439" lon="151.290064">
  <ele>343.62</ele>
  <time>2026-09-01T19:58:13Z</time>
  <course>10.72</course>
  <speed>0.07280109889280519</speed>
  <fix>3d</fix>
</trkpt>
<trkpt lat="-27.274439" lon="151.290064">
  <ele>343.31</ele>
  <time>2026-09-01T19:58:13Z</time>
  <course>2.04</course>
  <speed>0.02</speed>
  <fix>3d</fix>
</trkpt>
<trkpt lat="-27.2744389" lon="151.290064">
  <ele>343.87</ele>
  <time>2026-09-01T19:58:13Z</time>
  <course>10.71</course>
  <speed>0.12165525060596438</speed>
  <fix>3d</fix>
</trkpt>
<trkpt lat="-27.274439" lon="151.290064">
  <ele>343.31</ele>
  <time>2026-09-01T19:58:13Z</time>
  <course>2.04</course>
  <speed>0.02</speed>
  <fix>3d</fix>
</trkpt>
<trkpt lat="-27.2744388" lon="151.290064">
  <ele>344.12</ele>
  <time>2026-09-01T19:58:13Z</time>
  <course>10.68</course>
  <speed>0.16278820596099705</speed>
  <fix>3d</fix>
</trkpt>
<trkpt lat="-27.2744389" lon="151.290064">
  <ele>343.65</ele>
  <time>2026-09-01T19:58:13Z</time>
  <course>2.39</course>
  <speed>0.09</speed>
  <fix>3d</fix>
</trkpt>
<trkpt lat="-27.2744386" lon="151.2900641">
  <ele>344.38</ele>
  <time>2026-09-01T19:58:13Z</time>
  <course>10.64</course>
  <speed>0.20223748416156684</speed>
  <fix>3d</fix>
</trkpt>
<trkpt lat="-27.2744389" lon="151.290064">
  <ele>343.65</ele>
  <time>2026-09-01T19:58:13Z</time>
  <course>2.39</course>
  <speed>0.09</speed>
  <fix>3d</fix>
</trkpt>
<trkpt lat="-27.2744384" lon="151.2900641">
  <ele>344.66</ele>
  <time>2026-09-01T19:58:13Z</time>
  <course>10.6</course>
  <speed>0.24331050121192876</speed>
  <fix>3d</fix>
</trkpt>
<trkpt lat="-27.2744387" lon="151.290064">
  <ele>344.15</ele>
  <time>2026-09-01T19:58:13Z</time>
  <course>3.27</course>
  <speed>0.18</speed>
  <fix>3d</fix>
</trkpt>
<trkpt lat="-27.2744381" lon="151.2900641">
  <ele>344.95</ele>
  <time>2026-09-01T19:58:13Z</time>
  <course>10.57</course>
  <speed>0.282842712474619</speed>
  <fix>3d</fix>
</trkpt>
<trkpt lat="-27.2744387" lon="151.290064">
  <ele>344.15</ele>
  <time>2026-09-01T19:58:13Z</time>
  <course>3.27</course>
  <speed>0.18</speed>
  <fix>3d</fix>
</trkpt>
<trkpt lat="-27.2744379" lon="151.2900641">
  <ele>345.26</ele>
  <time>2026-09-01T19:58:13Z</time>
  <course>10.39</course>
  <speed>0.3125699921617557</speed>
  <fix>3d</fix>
</trkpt>
<trkpt lat="-27.2744383" lon="151.290064">
  <ele>344.71</ele>
  <time>2026-09-01T19:58:13Z</time>
  <course>4.02</course>
  <speed>0.26</speed>
  <fix>3d</fix>
</trkpt>
<trkpt lat="-27.2744375" lon="151.2900642">
  <ele>345.57</ele>
  <time>2026-09-01T19:58:13Z</time>
  <course>10.37</course>
  <speed>0.34365680554879163</speed>
  <fix>3d</fix>
</trkpt>
<trkpt lat="-27.2744383" lon="151.290064">
  <ele>344.71</ele>
  <time>2026-09-01T19:58:13Z</time>
  <course>4.02</course>
  <speed>0.26</speed>
  <fix>3d</fix>
</trkpt>
<trkpt lat="-27.2744372" lon="151.2900642">
  <ele>345.89</ele>
  <time>2026-09-01T19:58:13Z</time>
  <course>10.36</course>
  <speed>0.37336309405188944</speed>
  <fix>3d</fix>
</trkpt>
<trkpt lat="-27.2744378" lon="151.290064">
  <ele>345.31</ele>
  <time>2026-09-01T19:58:13Z</time>
  <course>4.69</course>
  <speed>0.33</speed>
  <fix>3d</fix>
</trkpt>
<trkpt lat="-27.2744369" lon="151.2900642">
  <ele>346.21</ele>
  <time>2026-09-01T19:58:13Z</time>
  <course>10.36</course>
  <speed>0.39319206502675</speed>
  <fix>3d</fix>
</trkpt>
<trkpt lat="-27.2744378" lon="151.290064">
  <ele>345.31</ele>
  <time>2026-09-01T19:58:13Z</time>
  <course>4.69</course>
  <speed>0.33</speed>
  <fix>3d</fix>
</trkpt>
<trkpt lat="-27.2744365" lon="151.2900643">
  <ele>346.53</ele>
  <time>2026-09-01T19:58:13Z</time>
  <course>10.36</course>
  <speed>0.4143669871020132</speed>
  <fix>3d</fix>
</trkpt>
<trkpt lat="-27.2744371" lon="151.2900641">
  <ele>345.94</ele>
  <time>2026-09-01T19:58:13Z</time>
  <course>5.25</course>
  <speed>0.39</speed>
  <fix>3d</fix>
</trkpt>
<trkpt lat="-27.2744361" lon="151.2900643">
  <ele>346.84</ele>
  <time>2026-09-01T19:58:13Z</time>
  <course>10.36</course>
  <speed>0.4242640687119285</speed>
  <fix>3d</fix>
</trkpt>
<trkpt lat="-27.2744371" lon="151.2900641">
  <ele>345.94</ele>
  <time>2026-09-01T19:58:13Z</time>
  <course>5.25</course>
  <speed>0.39</speed>
  <fix>3d</fix>
</trkpt>
<trkpt lat="-27.2744357" lon="151.2900643">
  <ele>347.16</ele>
  <time>2026-09-01T19:58:13Z</time>
  <course>10.37</course>
  <speed>0.4341658669218482</speed>
  <fix>3d</fix>
</trkpt>
<trkpt lat="-27.2744364" lon="151.2900641">
  <ele>346.57</ele>
  <time>2026-09-01T19:58:13Z</time>
  <course>5.7</course>
  <speed>0.43</speed>
  <fix>3d</fix>
</trkpt>
<trkpt lat="-27.2744353" lon="151.2900644">
  <ele>347.46</ele>
  <time>2026-09-01T19:58:13Z</time>
  <course>10.38</course>
  <speed>0.4341658669218482</speed>
  <fix>3d</fix>
</trkpt>
<trkpt lat="-27.2744364" lon="151.2900641">
  <ele>346.57</ele>
  <time>2026-09-01T19:58:13Z</time>
  <course>5.7</course>
  <speed>0.43</speed>
  <fix>3d</fix>
</trkpt>
<trkpt lat="-27.2744349" lon="151.2900644">
  <ele>347.76</ele>
  <time>2026-09-01T19:58:13Z</time>
  <course>10.39</course>
  <speed>0.422965719651132</speed>
  <fix>3d</fix>
</trkpt>
<trkpt lat="-27.2744355" lon="151.2900642">
  <ele>347.2</ele>
  <time>2026-09-01T19:58:13Z</time>
  <course>6.12</course>
  <speed>0.45</speed>
  <fix>3d</fix>
</trkpt>
<trkpt lat="-27.2744345" lon="151.2900644">
  <ele>348.06</ele>
  <time>2026-09-01T19:58:13Z</time>
  <course>10.4</course>
  <speed>0.41303752856126763</speed>
  <fix>3d</fix>
</trkpt>
<trkpt lat="-27.2744355" lon="151.2900642">
  <ele>347.2</ele>
  <time>2026-09-01T19:58:13Z</time>
  <course>6.12</course>
  <speed>0.45</speed>
  <fix>3d</fix>
</trkpt>
<trkpt lat="-27.2744341" lon="151.2900645">
  <ele>348.34</ele>
  <time>2026-09-01T19:58:13Z</time>
  <course>10.42</course>
  <speed>0.40311288741492746</speed>
  <fix>3d</fix>
</trkpt>
<trkpt lat="-27.2744348" lon="151.2900643">
  <ele>347.8</ele>
  <time>2026-09-01T19:58:13Z</time>
  <course>6.56</course>
  <speed>0.44</speed>
  <fix>3d</fix>
</trkpt>
<trkpt lat="-27.2744338" lon="151.2900645">
  <ele>348.62</ele>
  <time>2026-09-01T19:58:13Z</time>
  <course>10.44</course>
  <speed>0.383275357934736</speed>
  <fix>3d</fix>
</trkpt>
<trkpt lat="-27.2744348" lon="151.2900643">
  <ele>347.8</ele>
  <time>2026-09-01T19:58:13Z</time>
  <course>6.56</course>
  <speed>0.44</speed>
  <fix>3d</fix>
</trkpt>
<trkpt lat="-27.2744334" lon="151.2900645">
  <ele>348.89</ele>
  <time>2026-09-01T19:58:13Z</time>
  <course>10.46</course>
  <speed>0.3522782990761707</speed>
  <fix>3d</fix>
</trkpt>
<trkpt lat="-27.274434" lon="151.2900644">
  <ele>348.38</ele>
  <time>2026-09-01T19:58:13Z</time>
  <course>7.08</course>
  <speed>0.42</speed>
  <fix>3d</fix>
</trkpt>
<trkpt lat="-27.2744331" lon="151.2900646">
  <ele>349.16</ele>
  <time>2026-09-01T19:58:13Z</time>
  <course>10.48</course>
  <speed>0.33241540277189324</speed>
  <fix>3d</fix>
</trkpt>
<trkpt lat="-27.274434" lon="151.2900644">
  <ele>348.38</ele>
  <time>2026-09-01T19:58:13Z</time>
  <course>7.08</course>
  <speed>0.42</speed>
  <fix>3d</fix>
</trkpt>
<trkpt lat="-27.2744328" lon="151.2900646">
  <ele>349.42</ele>
  <time>2026-09-01T19:58:13Z</time>
  <course>10.49</course>
  <speed>0.3014962686336267</speed>
  <fix>3d</fix>
</trkpt>
<trkpt lat="-27.2744333" lon="151.2900645">
  <ele>348.93</ele>
  <time>2026-09-01T19:58:13Z</time>
  <course>7.77</course>
  <speed>0.37</speed>
  <fix>3d</fix>
</trkpt>
<trkpt lat="-27.2744325" lon="151.2900646">
  <ele>349.67</ele>
  <time>2026-09-01T19:58:13Z</time>
  <course>10.51</course>
  <speed>0.261725046566048</speed>
  <fix>3d</fix>
</trkpt>
<trkpt lat="-27.2744333" lon="151.2900645">
  <ele>348.93</ele>
  <time>2026-09-01T19:58:13Z</time>
  <course>7.77</course>
  <speed>0.37</speed>
  <fix>3d</fix>
</trkpt>
<trkpt lat="-27.2744323" lon="151.2900647">
  <ele>349.93</ele>
  <time>2026-09-01T19:58:13Z</time>
  <course>10.53</course>
  <speed>0.23194827009486402</speed>
  <fix>3d</fix>
</trkpt>
<trkpt lat="-27.2744327" lon="151.2900646">
  <ele>349.45</ele>
  <time>2026-09-01T19:58:13Z</time>
  <course>8.75</course>
  <speed>0.32</speed>
  <fix>3d</fix>
</trkpt>
<trkpt lat="-27.2744321" lon="151.2900647">
  <ele>350.17</ele>
  <time>2026-09-01T19:58:13Z</time>
  <course>10.55</course>
  <speed>0.2009975124224178</speed>
  <fix>3d</fix>
</trkpt>
<trkpt lat="-27.2744327" lon="151.2900646">
  <ele>349.45</ele>
  <time>2026-09-01T19:58:13Z</time>
  <course>8.75</course>
  <speed>0.32</speed>
  <fix>3d</fix>
</trkpt>
<trkpt lat="-27.2744319" lon="151.2900647">
  <ele>350.42</ele>
  <time>2026-09-01T19:58:13Z</time>
  <course>10.57</course>
  <speed>0.16124515496597097</speed>
  <fix>3d</fix>
</trkpt>
<trkpt lat="-27.2744322" lon="151.2900647">
  <ele>349.96</ele>
  <time>2026-09-01T19:58:13Z</time>
  <course>10.24</course>
  <speed>0.25</speed>
  <fix>3d</fix>
</trkpt>
<trkpt lat="-27.2744318" lon="151.2900647">
  <ele>350.67</ele>
  <time>2026-09-01T19:58:13Z</time>
  <course>10.59</course>
  <speed>0.12041594578792296</speed>
  <fix>3d</fix>
</trkpt>
<trkpt lat="-27.2744322" lon="151.2900647">
  <ele>349.96</ele>
  <time>2026-09-01T19:58:13Z</time>
  <course>10.24</course>
  <speed>0.25</speed>
  <fix>3d</fix>
</trkpt>
<trkpt lat="-27.2744317" lon="151.2900648">
  <ele>350.91</ele>
  <time>2026-09-01T19:58:13Z</time>
  <course>10.61</course>
  <speed>0.09055385138137417</speed>
  <fix>3d</fix>
</trkpt>
<trkpt lat="-27.2744318" lon="151.2900648">
  <ele>350.45</ele>
  <time>2026-09-01T19:58:13Z</time>
  <course>12.89</course>
  <speed>0.18</speed>
  <fix>3d</fix>
</trkpt>
<trkpt lat="-27.2744316" lon="151.2900648">
  <ele>351.16</ele>
  <time>2026-09-01T19:58:13Z</time>
  <course>10.63</course>
  <speed>0.05099019513592785</speed>
  <fix>3d</fix>
</trkpt>
<trkpt lat="-27.2744318" lon="151.2900648">
  <ele>350.45</ele>
  <time>2026-09-01T19:58:13Z</time>
  <course>12.89</course>
  <speed>0.18</speed>
  <fix>3d</fix>
</trkpt>
<trkpt lat="-27.2744315" lon="151.2900648">
  <ele>351.41</ele>
  <time>2026-09-01T19:58:13Z</time>
  <course>10.66</course>
  <speed>0.02</speed>
  <fix>3d</fix>
</trkpt>
<trkpt lat="-27.2744315" lon="151.2900649">
  <ele>350.93</ele>
  <time>2026-09-01T19:58:13Z</time>
  <course>18.59</course>
  <speed>0.11</speed>
  <fix>3d</fix>
</trkpt>
<trkpt lat="-27.2744315" lon="151.2900649">
  <ele>351.65</ele>
  <time>2026-09-01T19:58:13Z</time>
  <course>10.7</course>
  <speed>0.0</speed>
  <fix>3d</fix>
</trkpt>
<trkpt lat="-27.2744315" lon="151.2900649">
  <ele>350.93</ele>
  <time>2026-09-01T19:58:13Z</time>
  <course>18.59</course>
  <speed>0.11</speed>
  <fix>3d</fix>
</trkpt>
<trkpt lat="-27.2744315" lon="151.2900649">
  <ele>351.89</ele>
  <time>2026-09-01T19:58:13Z</time>
  <course>10.74</course>
  <speed>0.03</speed>
  <fix>3d</fix>
</trkpt>
<trkpt lat="-27.2744314" lon="151.290065">
  <ele>351.4</ele>
  <time>2026-09-01T19:58:13Z</time>
  <course>38.86</course>
  <speed>0.04</speed>
  <fix>3d</fix>
</trkpt>
<trkpt lat="-27.2744315" lon="151.2900649">
  <ele>352.13</ele>
  <time>2026-09-01T19:58:13Z</time>
  <course>10.79</course>
  <speed>0.06</speed>
  <fix>3d</fix>
</trkpt>
<trkpt lat="-27.2744314" lon="151.290065">
  <ele>351.4</ele>
  <time>2026-09-01T19:58:13Z</time>
  <course>38.86</course>
  <speed>0.04</speed>
  <fix>3d</fix>
</trkpt>
<trkpt lat="-27.2744316" lon="151.2900649">
  <ele>352.38</ele>
  <time>2026-09-01T19:58:13Z</time>
  <course>10.84</course>
  <speed>0.08</speed>
  <fix>3d</fix>
</trkpt>
<trkpt lat="-27.2744314" lon="151.290065">
  <ele>351.88</ele>
  <time>2026-09-01T19:58:13Z</time>
  <course>141.61</course>
  <speed>0.03</speed>
  <fix>3d</fix>
</trkpt>
<trkpt lat="-27.2744316" lon="151.2900649">
  <ele>352.63</ele>
  <time>2026-09-01T19:58:13Z</time>
  <course>10.9</course>
  <speed>0.1004987562112089</speed>
  <fix>3d</fix>
</trkpt>
<trkpt lat="-27.2744314" lon="151.290065">
  <ele>351.88</ele>
  <time>2026-09-01T19:58:13Z</time>
  <course>141.61</course>
  <speed>0.03</speed>
  <fix>3d</fix>
</trkpt>
<trkpt lat="-27.2744317" lon="151.2900649">
  <ele>352.87</ele>
  <time>2026-09-01T19:58:13Z</time>
  <course>10.97</course>
  <speed>0.12041594578792296</speed>
  <fix>3d</fix>
</trkpt>
<trkpt lat="-27.2744315" lon="151.2900651">
  <ele>352.35</ele>
  <time>2026-09-01T19:58:13Z</time>
  <course>171.69</course>
  <speed>0.08</speed>
  <fix>3d</fix>
</trkpt>
<trkpt lat="-27.2744318" lon="151.2900649">
  <ele>353.12</ele>
  <time>2026-09-01T19:58:13Z</time>
  <course>11.04</course>
  <speed>0.1414213562373095</speed>
  <fix>3d</fix>
</trkpt>
<trkpt lat="-27.2744315" lon="151.2900651">
  <ele>352.35</ele>
  <time>2026-09-01T19:58:13Z</time>
  <course>171.69</course>
  <speed>0.08</speed>
  <fix>3d</fix>
</trkpt>
<trkpt lat="-27.2744319" lon="151.2900649">
  <ele>353.36</ele>
  <time>2026-09-01T19:58:13Z</time>
  <course>11.11</course>
  <speed>0.16124515496597097</speed>
  <fix>3d</fix>
</trkpt>
<trkpt lat="-27.2744316" lon="151.2900651">
  <ele>352.83</ele>
  <time>2026-09-01T19:58:13Z</time>
  <course>179.72</course>
  <speed>0.12</speed>
  <fix>3d</fix>
</trkpt>
<trkpt lat="-27.2744321" lon="151.2900649">
  <ele>353.6</ele>
  <time>2026-09-01T19:58:13Z</time>
  <course>11.18</course>
  <speed>0.17262676501632068</speed>
  <fix>3d</fix>
</trkpt>
<trkpt lat="-27.2744316" lon="151.2900651">
  <ele>352.83</ele>
  <time>2026-09-01T19:58:13Z</time>
  <course>179.72</course>
  <speed>0.12</speed>
  <fix>3d</fix>
</trkpt>
<trkpt lat="-27.2744322" lon="151.2900649">
  <ele>353.85</ele>
  <time>2026-09-01T19:58:13Z</time>
  <course>11.19</course>
  <speed>0.191049731745428</speed>
  <fix>3d</fix>
</trkpt>
<trkpt lat="-27.2744318" lon="151.2900651">
  <ele>353.32</ele>
  <time>2026-09-01T19:58:13Z</time>
  <course>184.07</course>
  <speed>0.16</speed>
  <fix>3d</fix>
</trkpt>
<trkpt lat="-27.2744324" lon="151.2900649">
  <ele>354.09</ele>
  <time>2026-09-01T19:58:13Z</time>
  <course>11.15</course>
  <speed>0.19235384061671343</speed>
  <fix>3d</fix>
</trkpt>
<trkpt lat="-27.2744318" lon="151.2900651">
  <ele>353.32</ele>
  <time>2026-09-01T19:58:13Z</time>
  <course>184.07</course>
  <speed>0.16</speed>
  <fix>3d</fix>
</trkpt>
<trkpt lat="-27.2744325" lon="151.2900649">
  <ele>354.34</ele>
  <time>2026-09-01T19:58:13Z</time>
  <course>11.08</course>
  <speed>0.2009975124224178</speed>
  <fix>3d</fix>
</trkpt>
<trkpt lat="-27.2744321" lon="151.2900651">
  <ele>353.8</ele>
  <time>2026-09-01T19:58:13Z</time>
  <course>185.64</course>
  <speed>0.18</speed>
  <fix>3d</fix>
</trkpt>
<trkpt lat="-27.2744327" lon="151.2900649">
  <ele>354.58</ele>
  <time>2026-09-01T19:58:13Z</time>
  <course>11.01</course>
  <speed>0.2109502310972899</speed>
  <fix>3d</fix>
</trkpt>
<trkpt lat="-27.2744321" lon="151.2900651">
  <ele>353.8</ele>
  <time>2026-09-01T19:58:13Z</time>
  <course>185.64</course>
  <speed>0.18</speed>
  <fix>3d</fix>
</trkpt>
<trkpt lat="-27.2744329" lon="151.2900649">
  <ele>354.83</ele>
  <time>2026-09-01T19:58:13Z</time>
  <course>10.96</course>
  <speed>0.22022715545545238</speed>
  <fix>3d</fix>
</trkpt>
<trkpt lat="-27.2744324" lon="151.2900651">
  <ele>354.29</ele>
  <time>2026-09-01T19:58:13Z</time>
  <course>186.15</course>
  <speed>0.2</speed>
  <fix>3d</fix>
</trkpt>
<trkpt lat="-27.2744331" lon="151.2900649">
  <ele>355.08</ele>
  <time>2026-09-01T19:58:13Z</time>
  <course>10.91</course>
  <speed>0.22022715545545238</speed>
  <fix>3d</fix>
</trkpt>
<trkpt lat="-27.2744324" lon="151.2900651">
  <ele>354.29</ele>
  <time>2026-09-01T19:58:13Z</time>
  <course>186.15</course>
  <speed>0.2</speed>
  <fix>3d</fix>
</trkpt>
<trkpt lat="-27.2744333" lon="151.2900649">
  <ele>355.32</ele>
  <time>2026-09-01T19:58:13Z</time>
  <course>10.87</course>
  <speed>0.23021728866442676</speed>
  <fix>3d</fix>
</trkpt>
<trkpt lat="-27.2744329" lon="151.290065">
  <ele>354.78</ele>
  <time>2026-09-01T19:58:13Z</time>
  <course>186.91</course>
  <speed>0.22</speed>
  <fix>3d</fix>
</trkpt>
<trkpt lat="-27.2744335" lon="151.2900649">
  <ele>355.57</ele>
  <time>2026-09-01T19:58:13Z</time>
  <course>10.82</course>
  <speed>0.23021728866442676</speed>
  <fix>3d</fix>
</trkpt>
<trkpt lat="-27.2744329" lon="151.290065">
  <ele>354.78</ele>
  <time>2026-09-01T19:58:13Z</time>
  <course>186.91</course>
  <speed>0.22</speed>
  <fix>3d</fix>
</trkpt>
<trkpt lat="-27.2744337" lon="151.2900649">
  <ele>355.82</ele>
  <time>2026-09-01T19:58:13Z</time>
  <course>10.79</course>
  <speed>0.23021728866442676</speed>
  <fix>3d</fix>
</trkpt>
<trkpt lat="-27.2744333" lon="151.290065">
  <ele>355.28</ele>
  <time>2026-09-01T19:58:13Z</time>
  <course>187.44</course>
  <speed>0.23</speed>
  <fix>3d</fix>
</trkpt>
<trkpt lat="-27.2744339" lon="151.2900649">
  <ele>356.07</ele>
  <time>2026-09-01T19:58:13Z</time>
  <course>10.75</course>
  <speed>0.24</speed>
  <fix>3d</fix>
</trkpt>
<trkpt lat="-27.2744333" lon="151.290065">
  <ele>355.28</ele>
  <time>2026-09-01T19:58:13Z</time>
  <course>187.44</course>
  <speed>0.23</speed>
  <fix>3d</fix>
</trkpt>
<trkpt lat="-27.2744341" lon="151.2900649">
  <ele>356.33</ele>
  <time>2026-09-01T19:58:13Z</time>
  <course>10.7</course>
  <speed>0.24020824298928628</speed>
  <fix>3d</fix>
</trkpt>
<trkpt lat="-27.2744336" lon="151.2900649">
  <ele>355.78</ele>
  <time>2026-09-01T19:58:13Z</time>
  <course>187.98</course>
  <speed>0.23</speed>
  <fix>3d</fix>
</trkpt>
<trkpt lat="-27.2744343" lon="151.2900649">
  <ele>356.58</ele>
  <time>2026-09-01T19:58:13Z</time>
  <course>10.68</course>
  <speed>0.24083189157584592</speed>
  <fix>3d</fix>
</trkpt>
<trkpt lat="-27.2744336" lon="151.2900649">
  <ele>355.78</ele>
  <time>2026-09-01T19:58:13Z</time>
  <course>187.98</course>
  <speed>0.23</speed>
  <fix>3d</fix>
</trkpt>
<trkpt lat="-27.2744345" lon="151.2900649">
  <ele>356.83</ele>
  <time>2026-09-01T19:58:13Z</time>
  <course>10.64</course>
  <speed>0.23</speed>
  <fix>3d</fix>
</trkpt>
<trkpt lat="-27.2744341" lon="151.2900648">
  <ele>356.28</ele>
  <time>2026-09-01T19:58:13Z</time>
  <course>188.88</course>
  <speed>0.23</speed>
  <fix>3d</fix>
</trkpt>
<trkpt lat="-27.2744347" lon="151.2900649">
  <ele>357.08</ele>
  <time>2026-09-01T19:58:13Z</time>
  <course>10.56</course>
  <speed>0.23</speed>
  <fix>3d</fix>
</trkpt>
<trkpt lat="-27.2744341" lon="151.2900648">
  <ele>356.28</ele>
  <time>2026-09-01T19:58:13Z</time>
  <course>188.88</course>
  <speed>0.23</speed>
  <fix>3d</fix>
</trkpt>
<trkpt lat="-27.2744349" lon="151.2900649">
  <ele>357.33</ele>
  <time>2026-09-01T19:58:13Z</time>
  <course>10.45</course>
  <speed>0.23021728866442676</speed>
  <fix>3d</fix>
</trkpt>
<trkpt lat="-27.2744346" lon="151.2900647">
  <ele>356.78</ele>
  <time>2026-09-01T19:58:13Z</time>
  <course>189.93</course>
  <speed>0.23</speed>
  <fix>3d</fix>
</trkpt>
<trkpt lat="-27.2744351" lon="151.2900649">
  <ele>357.58</ele>
  <time>2026-09-01T19:58:13Z</time>
  <course>10.33</course>
  <speed>0.23</speed>
  <fix>3d</fix>
</trkpt>
<trkpt lat="-27.2744346" lon="151.2900647">
  <ele>356.78</ele>
  <time>2026-09-01T19:58:13Z</time>
  <course>189.93</course>
  <speed>0.23</speed>
  <fix>3d</fix>
</trkpt>
<trkpt lat="-27.2744353" lon="151.2900649">
  <ele>357.83</ele>
  <time>2026-09-01T19:58:13Z</time>
  <course>10.22</course>
  <speed>0.22022715545545238</speed>
  <fix>3d</fix>
</trkpt>
<trkpt lat="-27.2744349" lon="151.2900647">
  <ele>357.28</ele>
  <time>2026-09-01T19:58:13Z</time>
  <course>190.21</course>
  <speed>0.23</speed>
  <fix>3d</fix>
</trkpt>
<trkpt lat="-27.2744355" lon="151.2900649">
  <ele>358.08</ele>
  <time>2026-09-01T19:58:14Z</time>
  <course>10.14</course>
  <speed>0.22</speed>
  <fix>3d</fix>
</trkpt>
<trkpt lat="-27.2744349" lon="151.2900647">
  <ele>357.28</ele>
  <time>2026-09-01T19:58:14Z</time>
  <course>190.21</course>
  <speed>0.23</speed>
  <fix>3d</fix>
</trkpt>
<trkpt lat="-27.2744357" lon="151.2900648">
  <ele>358.34</ele>
  <time>2026-09-01T19:58:14Z</time>
  <course>10.09</course>
  <speed>0.21</speed>
  <fix>3d</fix>
</trkpt>
<trkpt lat="-27.2744354" lon="151.2900646">
  <ele>357.78</ele>
  <time>2026-09-01T19:58:14Z</time>
  <course>190.27</course>
  <speed>0.22</speed>
  <fix>3d</fix>
</trkpt>
<trkpt lat="-27.2744359" lon="151.2900648">
  <ele>358.59</ele>
  <time>2026-09-01T19:58:14Z</time>
  <course>10.05</course>
  <speed>0.21</speed>
  <fix>3d</fix>
</trkpt>
<trkpt lat="-27.2744354" lon="151.2900646">
  <ele>357.78</ele>
  <time>2026-09-01T19:58:14Z</time>
  <course>190.27</course>
  <speed>0.22</speed>
  <fix>3d</fix>
</trkpt>
<trkpt lat="-27.2744361" lon="151.2900647">
  <ele>358.84</ele>
  <time>2026-09-01T19:58:14Z</time>
  <course>10.04</course>
  <speed>0.2</speed>
  <fix>3d</fix>
</trkpt>
<trkpt lat="-27.2744358" lon="151.2900645">
  <ele>358.28</ele>
  <time>2026-09-01T19:58:14Z</time>
  <course>190.4</course>
  <speed>0.21</speed>
  <fix>3d</fix>
</trkpt>
<trkpt lat="-27.2744363" lon="151.2900647">
  <ele>359.09</ele>
  <time>2026-09-01T19:58:14Z</time>
  <course>10.04</course>
  <speed>0.2</speed>
  <fix>3d</fix>
</trkpt>
<trkpt lat="-27.2744358" lon="151.2900645">
  <ele>358.28</ele>
  <time>2026-09-01T19:58:14Z</time>
  <course>190.4</course>
  <speed>0.21</speed>
  <fix>3d</fix>
</trkpt>
<trkpt lat="-27.2744364" lon="151.2900647">
  <ele>359.34</ele>
  <time>2026-09-01T19:58:14Z</time>
  <course>10.05</course>
  <speed>0.19026297590440447</speed>
  <fix>3d</fix>
</trkpt>
<trkpt lat="-27.2744361" lon="151.2900644">
  <ele>358.79</ele>
  <time>2026-09-01T19:58:14Z</time>
  <course>190.36</course>
  <speed>0.2</speed>
  <fix>3d</fix>
</trkpt>
<trkpt lat="-27.2744366" lon="151.2900646">
  <ele>359.59</ele>
  <time>2026-09-01T19:58:14Z</time>
  <course>10.07</course>
  <speed>0.19</speed>
  <fix>3d</fix>
</trkpt>
<trkpt lat="-27.2744361" lon="151.2900644">
  <ele>358.79</ele>
  <time>2026-09-01T19:58:14Z</time>
  <course>190.36</course>
  <speed>0.2</speed>
  <fix>3d</fix>
</trkpt>
<trkpt lat="-27.2744368" lon="151.2900646">
  <ele>359.84</ele>
  <time>2026-09-01T19:58:14Z</time>
  <course>10.11</course>
  <speed>0.18</speed>
  <fix>3d</fix>
</trkpt>
<trkpt lat="-27.2744365" lon="151.2900644">
  <ele>359.29</ele>
  <time>2026-09-01T19:58:14Z</time>
  <course>190.37</course>
  <speed>0.19</speed>
  <fix>3d</fix>
</trkpt>
<trkpt lat="-27.2744369" lon="151.2900645">
  <ele>360.09</ele>
  <time>2026-09-01T19:58:14Z</time>
  <course>10.15</course>
  <speed>0.18</speed>
  <fix>3d</fix>
</trkpt>
<trkpt lat="-27.2744365" lon="151.2900644">
  <ele>359.29</ele>
  <time>2026-09-01T19:58:14Z</time>
  <course>190.37</course>
  <speed>0.19</speed>
  <fix>3d</fix>
</trkpt>
<trkpt lat="-27.2744371" lon="151.2900645">
  <ele>360.34</ele>
  <time>2026-09-01T19:58:14Z</time>
  <course>10.19</course>
  <speed>0.17029386365926402</speed>
  <fix>3d</fix>
</trkpt>
<trkpt lat="-27.2744368" lon="151.2900643">
  <ele>359.79</ele>
  <time>2026-09-01T19:58:14Z</time>
  <course>190.54</course>
  <speed>0.18</speed>
  <fix>3d</fix>
</trkpt>
<trkpt lat="-27.2744372" lon="151.2900645">
  <ele>360.59</ele>
  <time>2026-09-01T19:58:14Z</time>
  <course>10.2</course>
  <speed>0.17029386365926402</speed>
  <fix>3d</fix>
</trkpt>
<trkpt lat="-27.2744368" lon="151.2900643">
  <ele>359.79</ele>
  <time>2026-09-01T19:58:14Z</time>
  <course>190.54</course>
  <speed>0.18</speed>
  <fix>3d</fix>
</trkpt>
<trkpt lat="-27.2744374" lon="151.2900644">
  <ele>360.84</ele>
  <time>2026-09-01T19:58:14Z</time>
  <course>10.2</course>
  <speed>0.16</speed>
  <fix>3d</fix>
</trkpt>
<trkpt lat="-27.2744371" lon="151.2900642">
  <ele>360.28</ele>
  <time>2026-09-01T19:58:14Z</time>
  <course>190.79</course>
  <speed>0.16</speed>
  <fix>3d</fix>
</trkpt>
<trkpt lat="-27.2744375" lon="151.2900644">
  <ele>361.09</ele>
  <time>2026-09-01T19:58:14Z</time>
  <course>10.2</course>
  <speed>0.16</speed>
  <fix>3d</fix>
</trkpt>
<trkpt lat="-27.2744371" lon="151.2900642">
  <ele>360.28</ele>
  <time>2026-09-01T19:58:14Z</time>
  <course>190.79</course>
  <speed>0.16</speed>
  <fix>3d</fix>
</trkpt>
<trkpt lat="-27.2744377" lon="151.2900644">
  <ele>361.34</ele>
  <time>2026-09-01T19:58:14Z</time>
  <course>10.21</course>
  <speed>0.16</speed>
  <fix>3d</fix>
</trkpt>
<trkpt lat="-27.2744374" lon="151.2900642">
  <ele>360.78</ele>
  <time>2026-09-01T19:58:14Z</time>
  <course>190.96</course>
  <speed>0.15</speed>
  <fix>3d</fix>
</trkpt>
<trkpt lat="-27.2744378" lon="151.2900643">
  <ele>361.59</ele>
  <time>2026-09-01T19:58:14Z</time>
  <course>10.22</course>
  <speed>0.15033296378372907</speed>
  <fix>3d</fix>
</trkpt>
<trkpt lat="-27.2744374" lon="151.2900642">
  <ele>360.78</ele>
  <time>2026-09-01T19:58:14Z</time>
  <course>190.96</course>
  <speed>0.15</speed>
  <fix>3d</fix>
</trkpt>
<trkpt lat="-27.2744379" lon="151.2900643">
  <ele>361.84</ele>
  <time>2026-09-01T19:58:14Z</time>
  <course>10.22</course>
  <speed>0.140356688476182</speed>
  <fix>3d</fix>
</trkpt>
<trkpt lat="-27.2744377" lon="151.2900641">
  <ele>361.28</ele>
  <time>2026-09-01T19:58:14Z</time>
  <course>191.36</course>
  <speed>0.14</speed>
  <fix>3d</fix>
</trkpt>
<trkpt lat="-27.274438" lon="151.2900642">
  <ele>362.08</ele>
  <time>2026-09-01T19:58:14Z</time>
  <course>10.21</course>
  <speed>0.130384048104053</speed>
  <fix>3d</fix>
</trkpt>
<trkpt lat="-27.2744377" lon="151.2900641">
  <ele>361.28</ele>
  <time>2026-09-01T19:58:14Z</time>
  <course>191.36</course>
  <speed>0.14</speed>
  <fix>3d</fix>
</trkpt>
<trkpt lat="-27.2744382" lon="151.2900642">
  <ele>362.33</ele>
  <time>2026-09-01T19:58:14Z</time>
  <course>10.22</course>
  <speed>0.130384048104053</speed>
  <fix>3d</fix>
</trkpt>
<trkpt lat="-27.2744379" lon="151.2900641">
  <ele>361.78</ele>
  <time>2026-09-01T19:58:14Z</time>
  <course>191.35</course>
  <speed>0.13</speed>
  <fix>3d</fix>
</trkpt>
<trkpt lat="-27.2744383" lon="151.2900642">
  <ele>362.58</ele>
  <time>2026-09-01T19:58:14Z</time>
  <course>10.25</course>
  <speed>0.12041594578792296</speed>
  <fix>3d</fix>
</trkpt>
<trkpt lat="-27.2744379" lon="151.2900641">
  <ele>361.78</ele>
  <time>2026-09-01T19:58:14Z</time>
  <course>191.35</course>
  <speed>0.13</speed>
  <fix>3d</fix>
</trkpt>
<trkpt lat="-27.2744384" lon="151.2900641">
  <ele>362.83</ele>
  <time>2026-09-01T19:58:14Z</time>
  <course>10.29</course>
  <speed>0.12041594578792296</speed>
  <fix>3d</fix>
</trkpt>
<trkpt lat="-27.2744382" lon="151.290064">
  <ele>362.28</ele>
  <time>2026-09-01T19:58:14Z</time>
  <course>191.39</course>
  <speed>0.12</speed>
  <fix>3d</fix>
</trkpt>
<trkpt lat="-27.2744385" lon="151.2900641">
  <ele>363.08</ele>
  <time>2026-09-01T19:58:14Z</time>
  <course>10.33</course>
  <speed>0.11045361017187261</speed>
  <fix>3d</fix>
</trkpt>
<trkpt lat="-27.2744382" lon="151.290064">
  <ele>362.28</ele>
  <time>2026-09-01T19:58:14Z</time>
  <course>191.39</course>
  <speed>0.12</speed>
  <fix>3d</fix>
</trkpt>
<trkpt lat="-27.2744386" lon="151.2900641">
  <ele>363.33</ele>
  <time>2026-09-01T19:58:14Z</time>
  <course>10.34</course>
  <speed>0.11045361017187261</speed>
  <fix>3d</fix>
</trkpt>
<trkpt lat="-27.2744384" lon="151.290064">
  <ele>362.78</ele>
  <time>2026-09-01T19:58:14Z</time>
  <course>192.08</course>
  <speed>0.1</speed>
  <fix>3d</fix>
</trkpt>
<trkpt lat="-27.2744387" lon="151.2900641">
  <ele>363.58</ele>
  <time>2026-09-01T19:58:14Z</time>
  <course>10.35</course>
  <speed>0.1004987562112089</speed>
  <fix>3d</fix>
</trkpt>
<trkpt lat="-27.2744384" lon="151.290064">
  <ele>362.78</ele>
  <time>2026-09-01T19:58:14Z</time>
  <course>192.08</course>
  <speed>0.1</speed>
  <fix>3d</fix>
</trkpt>
<trkpt lat="-27.2744387" lon="151.290064">
  <ele>363.83</ele>
  <time>2026-09-01T19:58:14Z</time>
  <course>10.37</course>
  <speed>0.09055385138137417</speed>
  <fix>3d</fix>
</trkpt>
<trkpt lat="-27.2744385" lon="151.2900639">
  <ele>363.28</ele>
  <time>2026-09-01T19:58:14Z</time>
  <course>193.08</course>
  <speed>0.09</speed>
  <fix>3d</fix>
</trkpt>
<trkpt lat="-27.2744388" lon="151.290064">
  <ele>364.09</ele>
  <time>2026-09-01T19:58:14Z</time>
  <course>10.37</course>
  <speed>0.09055385138137417</speed>
  <fix>3d</fix>
</trkpt>
<trkpt lat="-27.2744385" lon="151.2900639">
  <ele>363.28</ele>
  <time>2026-09-01T19:58:14Z</time>
  <course>193.08</course>
  <speed>0.09</speed>
  <fix>3d</fix>
</trkpt>
<trkpt lat="-27.2744389" lon="151.290064">
  <ele>364.34</ele>
  <time>2026-09-01T19:58:14Z</time>
  <course>10.36</course>
  <speed>0.08062257748298549</speed>
  <fix>3d</fix>
</trkpt>
<trkpt lat="-27.2744387" lon="151.2900639">
  <ele>363.78</ele>
  <time>2026-09-01T19:58:14Z</time>
  <course>194.41</course>
  <speed>0.08</speed>
  <fix>3d</fix>
</trkpt>
<trkpt lat="-27.2744389" lon="151.290064">
  <ele>364.59</ele>
  <time>2026-09-01T19:58:14Z</time>
  <course>10.36</course>
  <speed>0.08</speed>
  <fix>3d</fix>
</trkpt>
<trkpt lat="-27.2744387" lon="151.2900639">
  <ele>363.78</ele>
  <time>2026-09-01T19:58:14Z</time>
  <course>194.41</course>
  <speed>0.08</speed>
  <fix>3d</fix>
</trkpt>
<trkpt lat="-27.274439" lon="151.2900639">
  <ele>364.84</ele>
  <time>2026-09-01T19:58:14Z</time>
  <course>10.36</course>
  <speed>0.07</speed>
  <fix>3d</fix>
</trkpt>
<trkpt lat="-27.2744388" lon="151.2900639">
  <ele>364.28</ele>
  <time>2026-09-01T19:58:14Z</time>
  <course>195.76</course>
  <speed>0.06</speed>
  <fix>3d</fix>
</trkpt>
<trkpt lat="-27.274439" lon="151.2900639">
  <ele>365.09</ele>
  <time>2026-09-01T19:58:14Z</time>
  <course>10.36</course>
  <speed>0.07</speed>
  <fix>3d</fix>
</trkpt>
<trkpt lat="-27.2744388" lon="151.2900639">
  <ele>364.28</ele>
  <time>2026-09-01T19:58:14Z</time>
  <course>195.76</course>
  <speed>0.06</speed>
  <fix>3d</fix>
</trkpt>
<trkpt lat="-27.2744391" lon="151.2900639">
  <ele>365.34</ele>
  <time>2026-09-01T19:58:14Z</time>
  <course>10.35</course>
  <speed>0.06</speed>
  <fix>3d</fix>
</trkpt>
<trkpt lat="-27.2744389" lon="151.2900638">
  <ele>364.79</ele>
  <time>2026-09-01T19:58:14Z</time>
  <course>197.45</course>
  <speed>0.05</speed>
  <fix>3d</fix>
</trkpt>
<trkpt lat="-27.2744391" lon="151.2900639">
  <ele>365.59</ele>
  <time>2026-09-01T19:58:14Z</time>
  <course>10.35</course>
  <speed>0.06</speed>
  <fix>3d</fix>
</trkpt>
<trkpt lat="-27.2744389" lon="151.2900638">
  <ele>364.79</ele>
  <time>2026-09-01T19:58:14Z</time>
  <course>197.45</course>
  <speed>0.05</speed>
  <fix>3d</fix>
</trkpt>
<trkpt lat="-27.2744392" lon="151.2900639">
  <ele>365.84</ele>
  <time>2026-09-01T19:58:14Z</time>
  <course>10.35</course>
  <speed>0.05</speed>
  <fix>3d</fix>
</trkpt>
<trkpt lat="-27.274439" lon="151.2900637">
  <ele>365.29</ele>
  <time>2026-09-01T19:58:14Z</time>
  <course>200.55</course>
  <speed>0.04</speed>
  <fix>3d</fix>
</trkpt>
<trkpt lat="-27.2744392" lon="151.2900639">
  <ele>366.09</ele>
  <time>2026-09-01T19:58:14Z</time>
  <course>10.36</course>
  <speed>0.05</speed>
  <fix>3d</fix>
</trkpt>
<trkpt lat="-27.274439" lon="151.2900637">
  <ele>365.29</ele>
  <time>2026-09-01T19:58:14Z</time>
  <course>200.55</course>
  <speed>0.04</speed>
  <fix>3d</fix>
</trkpt>
<trkpt lat="-27.2744392" lon="151.2900638">
  <ele>366.34</ele>
  <time>2026-09-01T19:58:14Z</time>
  <course>10.37</course>
  <speed>0.04</speed>
  <fix>3d</fix>
</trkpt>
<trkpt lat="-27.274439" lon="151.2900637">
  <ele>365.79</ele>
  <time>2026-09-01T19:58:14Z</time>
  <course>206.54</course>
  <speed>0.03</speed>
  <fix>3d</fix>
</trkpt>
<trkpt lat="-27.2744392" lon="151.2900638">
  <ele>366.59</ele>
  <time>2026-09-01T19:58:14Z</time>
  <course>10.38</course>
  <speed>0.04</speed>
  <fix>3d</fix>
</trkpt>
<trkpt lat="-27.274439" lon="151.2900637">
  <ele>365.79</ele>
  <time>2026-09-01T19:58:14Z</time>
  <course>206.54</course>
  <speed>0.03</speed>
  <fix>3d</fix>
</trkpt>
<trkpt lat="-27.2744393" lon="151.2900638">
  <ele>366.84</ele>
  <time>2026-09-01T19:58:14Z</time>
  <course>10.38</course>
  <speed>0.04</speed>
  <fix>3d</fix>
</trkpt>
<trkpt lat="-27.2744391" lon="151.2900637">
  <ele>366.29</ele>
  <time>2026-09-01T19:58:14Z</time>
  <course>214.82</course>
  <speed>0.02</speed>
  <fix>3d</fix>
</trkpt>
<trkpt lat="-27.2744393" lon="151.2900638">
  <ele>367.09</ele>
  <time>2026-09-01T19:58:14Z</time>
  <course>10.37</course>
  <speed>0.03</speed>
  <fix>3d</fix>
</trkpt>
<trkpt lat="-27.2744391" lon="151.2900637">
  <ele>366.29</ele>
  <time>2026-09-01T19:58:14Z</time>
  <course>214.82</course>
  <speed>0.02</speed>
  <fix>3d</fix>
</trkpt>
<trkpt lat="-27.2744393" lon="151.2900638">
  <ele>367.34</ele>
  <time>2026-09-01T19:58:14Z</time>
  <course>10.35</course>
  <speed>0.03</speed>
  <fix>3d</fix>
</trkpt>
<trkpt lat="-27.2744391" lon="151.2900637">
  <ele>366.79</ele>
  <time>2026-09-01T19:58:14Z</time>
  <course>224.3</course>
  <speed>0.01</speed>
  <fix>3d</fix>
</trkpt>
<trkpt lat="-27.2744393" lon="151.2900638">
  <ele>367.6</ele>
  <time>2026-09-01T19:58:14Z</time>
  <course>10.35</course>
  <speed>0.03</speed>
  <fix>3d</fix>
</trkpt>
<trkpt lat="-27.2744391" lon="151.2900637">
  <ele>366.79</ele>
  <time>2026-09-01T19:58:14Z</time>
  <course>224.3</course>
  <speed>0.01</speed>
  <fix>3d</fix>
</trkpt>
<trkpt lat="-27.2744393" lon="151.2900638">
  <ele>367.85</ele>
  <time>2026-09-01T19:58:14Z</time>
  <course>10.35</course>
  <speed>0.02</speed>
  <fix>3d</fix>
</trkpt>
<trkpt lat="-27.2744392" lon="151.2900637">
  <ele>367.29</ele>
  <time>2026-09-01T19:58:14Z</time>
  <course>243.53</course>
  <speed>0.01</speed>
  <fix>3d</fix>
</trkpt>
<trkpt lat="-27.2744393" lon="151.2900638">
  <ele>368.1</ele>
  <time>2026-09-01T19:58:14Z</time>
  <course>10.36</course>
  <speed>0.02</speed>
  <fix>3d</fix>
</trkpt>
<trkpt lat="-27.2744392" lon="151.2900637">
  <ele>367.29</ele>
  <time>2026-09-01T19:58:14Z</time>
  <course>243.53</course>
  <speed>0.01</speed>
  <fix>3d</fix>
</trkpt>
<trkpt lat="-27.2744393" lon="151.2900638">
  <ele>368.35</ele>
  <time>2026-09-01T19:58:14Z</time>
  <course>10.38</course>
  <speed>0.02</speed>
  <fix>3d</fix>
</trkpt>
<trkpt lat="-27.2744392" lon="151.2900637">
  <ele>367.79</ele>
  <time>2026-09-01T19:58:14Z</time>
  <course>283.28</course>
  <speed>0.0</speed>
  <fix>3d</fix>
</trkpt>
<trkpt lat="-27.2744393" lon="151.2900638">
  <ele>368.6</ele>
  <time>2026-09-01T19:58:14Z</time>
  <course>10.41</course>
  <speed>0.02</speed>
  <fix>3d</fix>
</trkpt>
<trkpt lat="-27.2744392" lon="151.2900637">
  <ele>367.79</ele>
  <time>2026-09-01T19:58:14Z</time>
  <course>283.28</course>
  <speed>0.0</speed>
  <fix>3d</fix>
</trkpt>
<trkpt lat="-27.2744393" lon="151.2900638">
  <ele>368.85</ele>
  <time>2026-09-01T19:58:14Z</time>
  <course>10.42</course>
  <speed>0.01</speed>
  <fix>3d</fix>
</trkpt>
<trkpt lat="-27.2744392" lon="151.2900636">
  <ele>368.29</ele>
  <time>2026-09-01T19:58:14Z</time>
  <course>313.64</course>
  <speed>0.01</speed>
  <fix>3d</fix>
</trkpt>
<trkpt lat="-27.2744393" lon="151.2900638">
  <ele>369.1</ele>
  <time>2026-09-01T19:58:14Z</time>
  <course>10.43</course>
  <speed>0.01</speed>
  <fix>3d</fix>
</trkpt>
<trkpt lat="-27.2744392" lon="151.2900636">
  <ele>368.29</ele>
  <time>2026-09-01T19:58:14Z</time>
  <course>313.64</course>
  <speed>0.01</speed>
  <fix>3d</fix>
</trkpt>
<trkpt lat="-27.2744393" lon="151.2900637">
  <ele>369.35</ele>
  <time>2026-09-01T19:58:14Z</time>
  <course>10.43</course>
  <speed>0.01</speed>
  <fix>3d</fix>
</trkpt>
<trkpt lat="-27.2744392" lon="151.2900636">
  <ele>368.78</ele>
  <time>2026-09-01T19:58:14Z</time>
  <course>328.12</course>
  <speed>0.01</speed>
  <fix>3d</fix>
</trkpt>
<trkpt lat="-27.2744393" lon="151.2900637">
  <ele>369.59</ele>
  <time>2026-09-01T19:58:14Z</time>
  <course>10.43</course>
  <speed>0.01</speed>
  <fix>3d</fix>
</trkpt>
<trkpt lat="-27.2744392" lon="151.2900636">
  <ele>368.78</ele>
  <time>2026-09-01T19:58:14Z</time>
  <course>328.12</course>
  <speed>0.01</speed>
  <fix>3d</fix>
</trkpt>
<trkpt lat="-27.2744393" lon="151.2900637">
  <ele>369.84</ele>
  <time>2026-09-01T19:58:14Z</time>
  <course>10.42</course>
  <speed>0.01</speed>
  <fix>3d</fix>
</trkpt>
<trkpt lat="-27.2744392" lon="151.2900636">
  <ele>369.28</ele>
  <time>2026-09-01T19:58:14Z</time>
  <course>335.06</course>
  <speed>0.01</speed>
  <fix>3d</fix>
</trkpt>
<trkpt lat="-27.2744393" lon="151.2900637">
  <ele>370.09</ele>
  <time>2026-09-01T19:58:14Z</time>
  <course>10.41</course>
  <speed>0.01</speed>
  <fix>3d</fix>
</trkpt>
<trkpt lat="-27.2744392" lon="151.2900636">
  <ele>369.28</ele>
  <time>2026-09-01T19:58:14Z</time>
  <course>335.06</course>
  <speed>0.01</speed>
  <fix>3d</fix>
</trkpt>
<trkpt lat="-27.2744393" lon="151.2900637">
  <ele>370.34</ele>
  <time>2026-09-01T19:58:14Z</time>
  <course>10.4</course>
  <speed>0.01</speed>
  <fix>3d</fix>
</trkpt>
<trkpt lat="-27.2744392" lon="151.2900636">
  <ele>369.78</ele>
  <time>2026-09-01T19:58:14Z</time>
  <course>338.14</course>
  <speed>0.02</speed>
  <fix>3d</fix>
</trkpt>
<trkpt lat="-27.2744393" lon="151.2900637">
  <ele>370.59</ele>
  <time>2026-09-01T19:58:14Z</time>
  <course>10.4</course>
  <speed>0.01</speed>
  <fix>3d</fix>
</trkpt>
<trkpt lat="-27.2744392" lon="151.2900636">
  <ele>369.78</ele>
  <time>2026-09-01T19:58:14Z</time>
  <course>338.14</course>
  <speed>0.02</speed>
  <fix>3d</fix>
</trkpt>
<trkpt lat="-27.2744393" lon="151.2900637">
  <ele>370.83</ele>
  <time>2026-09-01T19:58:14Z</time>
  <course>10.4</course>
  <speed>0.01</speed>
  <fix>3d</fix>
</trkpt>
<trkpt lat="-27.2744391" lon="151.2900636">
  <ele>370.27</ele>
  <time>2026-09-01T19:58:14Z</time>
  <course>340.88</course>
  <speed>0.02</speed>
  <fix>3d</fix>
</trkpt>
<trkpt lat="-27.2744393" lon="151.2900637">
  <ele>371.08</ele>
  <time>2026-09-01T19:58:14Z</time>
  <course>10.41</course>
  <speed>0.01</speed>
  <fix>3d</fix>
</trkpt>
<trkpt lat="-27.2744391" lon="151.2900636">
  <ele>370.27</ele>
  <time>2026-09-01T19:58:14Z</time>
  <course>340.88</course>
  <speed>0.02</speed>
  <fix>3d</fix>
</trkpt>
<trkpt lat="-27.2744393" lon="151.2900637">
  <ele>371.33</ele>
  <time>2026-09-01T19:58:14Z</time>
  <course>10.41</course>
  <speed>0.0</speed>
  <fix>3d</fix>
</trkpt>
<trkpt lat="-27.2744391" lon="151.2900636">
  <ele>370.77</ele>
  <time>2026-09-01T19:58:14Z</time>
  <course>342.64</course>
  <speed>0.02</speed>
  <fix>3d</fix>
</trkpt>
<trkpt lat="-27.2744393" lon="151.2900637">
  <ele>371.58</ele>
  <time>2026-09-01T19:58:14Z</time>
  <course>10.41</course>
  <speed>0.01</speed>
  <fix>3d</fix>
</trkpt>
<trkpt lat="-27.2744391" lon="151.2900636">
  <ele>370.77</ele>
  <time>2026-09-01T19:58:14Z</time>
  <course>342.64</course>
  <speed>0.02</speed>
  <fix>3d</fix>
</trkpt>
<trkpt lat="-27.2744393" lon="151.2900637">
  <ele>371.83</ele>
  <time>2026-09-01T19:58:14Z</time>
  <course>10.4</course>
  <speed>0.01</speed>
  <fix>3d</fix>
</trkpt>
<trkpt lat="-27.274439" lon="151.2900636">
  <ele>371.27</ele>
  <time>2026-09-01T19:58:14Z</time>
  <course>343.63</course>
  <speed>0.02</speed>
  <fix>3d</fix>
</trkpt>
<trkpt lat="-27.2744393" lon="151.2900637">
  <ele>372.07</ele>
  <time>2026-09-01T19:58:14Z</time>
  <course>10.4</course>
  <speed>0.01</speed>
  <fix>3d</fix>
</trkpt>
<trkpt lat="-27.274439" lon="151.2900636">
  <ele>371.27</ele>
  <time>2026-09-01T19:58:14Z</time>
  <course>343.63</course>
  <speed>0.02</speed>
  <fix>3d</fix>
</trkpt>
<trkpt lat="-27.2744392" lon="151.2900637">
  <ele>372.32</ele>
  <time>2026-09-01T19:58:14Z</time>
  <course>10.41</course>
  <speed>0.01</speed>
  <fix>3d</fix>
</trkpt>
<trkpt lat="-27.274439" lon="151.2900635">
  <ele>371.77</ele>
  <time>2026-09-01T19:58:14Z</time>
  <course>346.6</course>
  <speed>0.03</speed>
  <fix>3d</fix>
</trkpt>
<trkpt lat="-27.2744392" lon="151.2900637">
  <ele>372.57</ele>
  <time>2026-09-01T19:58:14Z</time>
  <course>10.42</course>
  <speed>0.01</speed>
  <fix>3d</fix>
</trkpt>
<trkpt lat="-27.274439" lon="151.2900635">
  <ele>371.77</ele>
  <time>2026-09-01T19:58:14Z</time>
  <course>346.6</course>
  <speed>0.03</speed>
  <fix>3d</fix>
</trkpt>
<trkpt lat="-27.2744392" lon="151.2900637">
  <ele>372.82</ele>
  <time>2026-09-01T19:58:14Z</time>
  <course>10.43</course>
  <speed>0.01</speed>
  <fix>3d</fix>
</trkpt>
<trkpt lat="-27.2744389" lon="151.2900635">
  <ele>372.27</ele>
  <time>2026-09-01T19:58:14Z</time>
  <course>349.97</course>
  <speed>0.03</speed>
  <fix>3d</fix>
</trkpt>
<trkpt lat="-27.2744392" lon="151.2900637">
  <ele>373.07</ele>
  <time>2026-09-01T19:58:14Z</time>
  <course>10.44</course>
  <speed>0.01</speed>
  <fix>3d</fix>
</trkpt>
<trkpt lat="-27.2744389" lon="151.2900635">
  <ele>372.27</ele>
  <time>2026-09-01T19:58:14Z</time>
  <course>349.97</course>
  <speed>0.03</speed>
  <fix>3d</fix>
</trkpt>
<trkpt lat="-27.2744391" lon="151.2900637">
  <ele>373.32</ele>
  <time>2026-09-01T19:58:14Z</time>
  <course>10.45</course>
  <speed>0.01414213562373095</speed>
  <fix>3d</fix>
</trkpt>
<trkpt lat="-27.2744389" lon="151.2900635">
  <ele>372.77</ele>
  <time>2026-09-01T19:58:14Z</time>
  <course>351.71</course>
  <speed>0.03</speed>
  <fix>3d</fix>
</trkpt>
<trkpt lat="-27.2744391" lon="151.2900637">
  <ele>373.57</ele>
  <time>2026-09-01T19:58:14Z</time>
  <course>10.45</course>
  <speed>0.07280109889280519</speed>
  <fix>3d</fix>
</trkpt>
<trkpt lat="-27.2744389" lon="151.2900635">
  <ele>372.77</ele>
  <time>2026-09-01T19:58:14Z</time>
  <course>351.71</course>
  <speed>0.03</speed>
  <fix>3d</fix>
</trkpt>
<trkpt lat="-27.2744389" lon="151.2900637">
  <ele>373.82</ele>
  <time>2026-09-01T19:58:14Z</time>
  <course>10.43</course>
  <speed>0.194164878389476</speed>
  <fix>3d</fix>
</trkpt>
<trkpt lat="-27.2744388" lon="151.2900635">
  <ele>373.27</ele>
  <time>2026-09-01T19:58:14Z</time>
  <course>359.97</course>
  <speed>0.07</speed>
  <fix>3d</fix>
</trkpt>
<trkpt lat="-27.2744386" lon="151.2900637">
  <ele>374.06</ele>
  <time>2026-09-01T19:58:14Z</time>
  <course>10.38</course>
  <speed>0.366742416417845</speed>
  <fix>3d</fix>
</trkpt>
<trkpt lat="-27.2744388" lon="151.2900635">
  <ele>373.27</ele>
  <time>2026-09-01T19:58:14Z</time>
  <course>359.97</course>
  <speed>0.07</speed>
  <fix>3d</fix>
</trkpt>
<trkpt lat="-27.2744382" lon="151.2900638">
  <ele>374.29</ele>
  <time>2026-09-01T19:58:14Z</time>
  <course>10.33</course>
  <speed>0.61</speed>
  <fix>3d</fix>
</trkpt>
<trkpt lat="-27.2744385" lon="151.2900635">
  <ele>373.77</ele>
  <time>2026-09-01T19:58:14Z</time>
  <course>5.76</course>
  <speed>0.25</speed>
  <fix>3d</fix>
</trkpt>
<trkpt lat="-27.2744375" lon="151.2900639">
  <ele>374.51</ele>
  <time>2026-09-01T19:58:14Z</time>
  <course>10.31</course>
  <speed>0.9060905032059435</speed>
  <fix>3d</fix>
</trkpt>
<trkpt lat="-27.2744385" lon="151.2900635">
  <ele>373.77</ele>
  <time>2026-09-01T19:58:14Z</time>
  <course>5.76</course>
  <speed>0.25</speed>
  <fix>3d</fix>
</trkpt>
<trkpt lat="-27.2744365" lon="151.290064">
  <ele>374.71</ele>
  <time>2026-09-01T19:58:14Z</time>
  <course>10.28</course>
  <speed>1.2692123541787639</speed>
  <fix>3d</fix>
</trkpt>
<trkpt lat="-27.2744377" lon="151.2900635">
  <ele>374.24</ele>
  <time>2026-09-01T19:58:14Z</time>
  <course>7.45</course>
  <speed>0.66</speed>
  <fix>3d</fix>
</trkpt>
<trkpt lat="-27.2744351" lon="151.2900643">
  <ele>374.88</ele>
  <time>2026-09-01T19:58:14Z</time>
  <course>10.25</course>
  <speed>1.6851409436602032</speed>
  <fix>3d</fix>
</trkpt>
<trkpt lat="-27.2744377" lon="151.2900635">
  <ele>374.24</ele>
  <time>2026-09-01T19:58:14Z</time>
  <course>7.45</course>
  <speed>0.66</speed>
  <fix>3d</fix>
</trkpt>
<trkpt lat="-27.2744334" lon="151.2900646">
  <ele>375.02</ele>
  <time>2026-09-01T19:58:14Z</time>
  <course>10.11</course>
  <speed>2.183323155192561</speed>
  <fix>3d</fix>
</trkpt>
<trkpt lat="-27.274436" lon="151.2900637">
  <ele>374.65</ele>
  <time>2026-09-01T19:58:14Z</time>
  <course>7.93</course>
  <speed>1.31</speed>
  <fix>3d</fix>
</trkpt>
<trkpt lat="-27.2744312" lon="151.290065">
  <ele>375.13</ele>
  <time>2026-09-01T19:58:14Z</time>
  <course>9.94</course>
  <speed>2.7389048906451645</speed>
  <fix>3d</fix>
</trkpt>
<trkpt lat="-27.274436" lon="151.2900637">
  <ele>374.65</ele>
  <time>2026-09-01T19:58:14Z</time>
  <course>7.93</course>
  <speed>1.31</speed>
  <fix>3d</fix>
</trkpt>
<trkpt lat="-27.2744285" lon="151.2900654">
  <ele>375.21</ele>
  <time>2026-09-01T19:58:14Z</time>
  <course>9.61</course>
  <speed>3.3241540277189325</speed>
  <fix>3d</fix>
</trkpt>
<trkpt lat="-27.2744329" lon="151.2900642">
  <ele>374.97</ele>
  <time>2026-09-01T19:58:14Z</time>
  <course>8.07</course>
  <speed>2.22</speed>
  <fix>3d</fix>
</trkpt>
<trkpt lat="-27.2744252" lon="151.2900659">
  <ele>375.26</ele>
  <time>2026-09-01T19:58:14Z</time>
  <course>9.24</course>
  <speed>3.9193494358120198</speed>
  <fix>3d</fix>
</trkpt>
<trkpt lat="-27.2744329" lon="151.2900642">
  <ele>374.97</ele>
  <time>2026-09-01T19:58:14Z</time>
  <course>8.07</course>
  <speed>2.22</speed>
  <fix>3d</fix>
</trkpt>
<trkpt lat="-27.2744214" lon="151.2900665">
  <ele>375.28</ele>
  <time>2026-09-01T19:58:14Z</time>
  <course>8.73</course>
  <speed>4.532824726370964</speed>
  <fix>3d</fix>
</trkpt>
<trkpt lat="-27.2744279" lon="151.2900651">
  <ele>375.16</ele>
  <time>2026-09-01T19:58:14Z</time>
  <course>8.13</course>
  <speed>3.33</speed>
  <fix>3d</fix>
</trkpt>
<trkpt lat="-27.2744171" lon="151.2900672">
  <ele>375.28</ele>
  <time>2026-09-01T19:58:14Z</time>
  <course>8.3</course>
  <speed>5.136535797597443</speed>
  <fix>3d</fix>
</trkpt>
<trkpt lat="-27.2744279" lon="151.2900651">
  <ele>375.16</ele>
  <time>2026-09-01T19:58:14Z</time>
  <course>8.13</course>
  <speed>3.33</speed>
  <fix>3d</fix>
</trkpt>
<trkpt lat="-27.2744123" lon="151.2900679">
  <ele>375.27</ele>
  <time>2026-09-01T19:58:14Z</time>
  <course>8.08</course>
  <speed>5.737464596840664</speed>
  <fix>3d</fix>
</trkpt>
<trkpt lat="-27.2744209" lon="151.2900662">
  <ele>375.25</ele>
  <time>2026-09-01T19:58:14Z</time>
  <course>7.99</course>
  <speed>4.53</speed>
  <fix>3d</fix>
</trkpt>
<trkpt lat="-27.2744069" lon="151.2900687">
  <ele>375.25</ele>
  <time>2026-09-01T19:58:14Z</time>
  <course>7.94</course>
  <speed>6.33997634064986</speed>
  <fix>3d</fix>
</trkpt>
<trkpt lat="-27.2744209" lon="151.2900662">
  <ele>375.25</ele>
  <time>2026-09-01T19:58:14Z</time>
  <course>7.99</course>
  <speed>4.53</speed>
  <fix>3d</fix>
</trkpt>
<trkpt lat="-27.2744011" lon="151.2900695">
  <ele>375.23</ele>
  <time>2026-09-01T19:58:14Z</time>
  <course>7.83</course>
  <speed>6.930007215003459</speed>
  <fix>3d</fix>
</trkpt>
<trkpt lat="-27.2744118" lon="151.2900676">
  <ele>375.25</ele>
  <time>2026-09-01T19:58:14Z</time>
  <course>7.71</course>
  <speed>5.74</speed>
  <fix>3d</fix>
</trkpt>
<trkpt lat="-27.2743946" lon="151.2900704">
  <ele>375.21</ele>
  <time>2026-09-01T19:58:14Z</time>
  <course>7.69</course>
  <speed>7.521515804676608</speed>
  <fix>3d</fix>
</trkpt>
<trkpt lat="-27.2744118" lon="151.2900676">
  <ele>375.25</ele>
  <time>2026-09-01T19:58:14Z</time>
  <course>7.71</course>
  <speed>5.74</speed>
  <fix>3d</fix>
</trkpt>
<trkpt lat="-27.2743877" lon="151.2900713">
  <ele>375.19</ele>
  <time>2026-09-01T19:58:14Z</time>
  <course>7.34</course>
  <speed>8.111874012828356</speed>
  <fix>3d</fix>
</trkpt>
<trkpt lat="-27.2744005" lon="151.2900693">
  <ele>375.21</ele>
  <time>2026-09-01T19:58:14Z</time>
  <course>7.37</course>
  <speed>6.94</speed>
  <fix>3d</fix>
</trkpt>
<trkpt lat="-27.2743802" lon="151.2900723">
  <ele>375.17</ele>
  <time>2026-09-01T19:58:14Z</time>
  <course>7.02</course>
  <speed>8.68251115749355</speed>
  <fix>3d</fix>
</trkpt>
<trkpt lat="-27.2744005" lon="151.2900693">
  <ele>375.21</ele>
  <time>2026-09-01T19:58:14Z</time>
  <course>7.37</course>
  <speed>6.94</speed>
  <fix>3d</fix>
</trkpt>
<trkpt lat="-27.2743722" lon="151.2900733">
  <ele>375.15</ele>
  <time>2026-09-01T19:58:14Z</time>
  <course>6.77</course>
  <speed>9.250929683010243</speed>
  <fix>3d</fix>
</trkpt>
<trkpt lat="-27.274387" lon="151.2900712">
  <ele>375.16</ele>
  <time>2026-09-01T19:58:14Z</time>
  <course>7.0</course>
  <speed>8.12</speed>
  <fix>3d</fix>
</trkpt>
<trkpt lat="-27.2743637" lon="151.2900743">
  <ele>375.14</ele>
  <time>2026-09-01T19:58:14Z</time>
  <course>6.49</course>
  <speed>9.810739013958123</speed>
  <fix>3d</fix>
</trkpt>
<trkpt lat="-27.274387" lon="151.2900712">
  <ele>375.16</ele>
  <time>2026-09-01T19:58:14Z</time>
  <course>7.0</course>
  <speed>8.12</speed>
  <fix>3d</fix>
</trkpt>
<trkpt lat="-27.2743547" lon="151.2900754">
  <ele>375.13</ele>
  <time>2026-09-01T19:58:14Z</time>
  <course>6.15</course>
  <speed>10.338684635871239</speed>
  <fix>3d</fix>
</trkpt>
<trkpt lat="-27.2743715" lon="151.2900733">
  <ele>375.12</ele>
  <time>2026-09-01T19:58:14Z</time>
  <course>6.6</course>
  <speed>9.26</speed>
  <fix>3d</fix>
</trkpt>
<trkpt lat="-27.2743452" lon="151.2900765">
  <ele>375.13</ele>
  <time>2026-09-01T19:58:14Z</time>
  <course>5.97</course>
  <speed>10.82602881947023</speed>
  <fix>3d</fix>
</trkpt>
<trkpt lat="-27.2743715" lon="151.2900733">
  <ele>375.12</ele>
  <time>2026-09-01T19:58:14Z</time>
  <course>6.6</course>
  <speed>9.26</speed>
  <fix>3d</fix>
</trkpt>
<trkpt lat="-27.2743354" lon="151.2900776">
  <ele>375.12</ele>
  <time>2026-09-01T19:58:14Z</time>
  <course>5.77</course>
  <speed>11.304627371125507</speed>
  <fix>3d</fix>
</trkpt>
<trkpt lat="-27.274354" lon="151.2900755">
  <ele>375.09</ele>
  <time>2026-09-01T19:58:14Z</time>
  <course>6.12</course>
  <speed>10.34</speed>
  <fix>3d</fix>
</trkpt>
<trkpt lat="-27.2743251" lon="151.2900787">
  <ele>375.12</ele>
  <time>2026-09-01T19:58:14Z</time>
  <course>5.51</course>
  <speed>11.761551768367982</speed>
  <fix>3d</fix>
</trkpt>
<trkpt lat="-27.274354" lon="151.2900755">
  <ele>375.09</ele>
  <time>2026-09-01T19:58:14Z</time>
  <course>6.12</course>
  <speed>10.34</speed>
  <fix>3d</fix>
</trkpt>
<trkpt lat="-27.2743144" lon="151.2900798">
  <ele>375.12</ele>
  <time>2026-09-01T19:58:14Z</time>
  <course>5.15</course>
  <speed>12.217827139062003</speed>
  <fix>3d</fix>
</trkpt>
<trkpt lat="-27.2743346" lon="151.2900777">
  <ele>375.08</ele>
  <time>2026-09-01T19:58:14Z</time>
  <course>5.62</course>
  <speed>11.33</speed>
  <fix>3d</fix>
</trkpt>
<trkpt lat="-27.2743033" lon="151.2900809">
  <ele>375.11</ele>
  <time>2026-09-01T19:58:14Z</time>
  <course>4.85</course>
  <speed>12.675243587402965</speed>
  <fix>3d</fix>
</trkpt>
<trkpt lat="-27.2743346" lon="151.2900777">
  <ele>375.08</ele>
  <time>2026-09-01T19:58:14Z</time>
  <course>5.62</course>
  <speed>11.33</speed>
  <fix>3d</fix>
</trkpt>
<trkpt lat="-27.2742918" lon="151.290082">
  <ele>375.11</ele>
  <time>2026-09-01T19:58:14Z</time>
  <course>4.62</course>
  <speed>13.131248988576829</speed>
  <fix>3d</fix>
</trkpt>
<trkpt lat="-27.2743135" lon="151.29008">
  <ele>375.08</ele>
  <time>2026-09-01T19:58:14Z</time>
  <course>5.11</course>
  <speed>12.26</speed>
  <fix>3d</fix>
</trkpt>
<trkpt lat="-27.2742798" lon="151.290083">
  <ele>375.11</ele>
  <time>2026-09-01T19:58:14Z</time>
  <course>4.34</course>
  <speed>13.56839342000371</speed>
  <fix>3d</fix>
</trkpt>
<trkpt lat="-27.2743135" lon="151.29008">
  <ele>375.08</ele>
  <time>2026-09-01T19:58:14Z</time>
  <course>5.11</course>
  <speed>12.26</speed>
  <fix>3d</fix>
</trkpt>
<trkpt lat="-27.2742675" lon="151.290084">
  <ele>375.1</ele>
  <time>2026-09-01T19:58:14Z</time>
  <course>4.11</course>
  <speed>14.01500981091344</speed>
  <fix>3d</fix>
</trkpt>
<trkpt lat="-27.2742907" lon="151.2900821">
  <ele>375.07</ele>
  <time>2026-09-01T19:58:14Z</time>
  <course>4.58</course>
  <speed>13.17</speed>
  <fix>3d</fix>
</trkpt>
<trkpt lat="-27.2742547" lon="151.290085">
  <ele>375.09</ele>
  <time>2026-09-01T19:58:14Z</time>
  <course>3.85</course>
  <speed>14.441942390135752</speed>
  <fix>3d</fix>
</trkpt>
<trkpt lat="-27.2742907" lon="151.2900821">
  <ele>375.07</ele>
  <time>2026-09-01T19:58:14Z</time>
  <course>4.58</course>
  <speed>13.17</speed>
  <fix>3d</fix>
</trkpt>
<trkpt lat="-27.2742416" lon="151.290086">
  <ele>375.08</ele>
  <time>2026-09-01T19:58:14Z</time>
  <course>3.56</course>
  <speed>14.868490172172828</speed>
  <fix>3d</fix>
</trkpt>
<trkpt lat="-27.2742663" lon="151.2900842">
  <ele>375.06</ele>
  <time>2026-09-01T19:58:14Z</time>
  <course>4.07</course>
  <speed>14.06</speed>
  <fix>3d</fix>
</trkpt>
<trkpt lat="-27.274228" lon="151.2900869">
  <ele>375.07</ele>
  <time>2026-09-01T19:58:14Z</time>
  <course>3.31</course>
  <speed>15.295335890394824</speed>
  <fix>3d</fix>
</trkpt>
<trkpt lat="-27.2742663" lon="151.2900842">
  <ele>375.06</ele>
  <time>2026-09-01T19:58:14Z</time>
  <course>4.07</course>
  <speed>14.06</speed>
  <fix>3d</fix>
</trkpt>
<trkpt lat="-27.2742141" lon="151.2900878">
  <ele>375.05</ele>
  <time>2026-09-01T19:58:14Z</time>
  <course>3.08</course>
  <speed>15.701952107938682</speed>
  <fix>3d</fix>
</trkpt>
<trkpt lat="-27.2742403" lon="151.2900861">
  <ele>375.03</ele>
  <time>2026-09-01T19:58:14Z</time>
  <course>3.56</course>
  <speed>14.93</speed>
  <fix>3d</fix>
</trkpt>
<trkpt lat="-27.2741998" lon="151.2900886">
  <ele>375.03</ele>
  <time>2026-09-01T19:58:14Z</time>
  <course>2.96</course>
  <speed>16.08940645269427</speed>
  <fix>3d</fix>
</trkpt>
<trkpt lat="-27.2742403" lon="151.2900861">
  <ele>375.03</ele>
  <time>2026-09-01T19:58:14Z</time>
  <course>3.56</course>
  <speed>14.93</speed>
  <fix>3d</fix>
</trkpt>
<trkpt lat="-27.2741852" lon="151.2900894">
  <ele>375.01</ele>
  <time>2026-09-01T19:58:14Z</time>
  <course>2.93</course>
  <speed>16.467088388661793</speed>
  <fix>3d</fix>
</trkpt>
<trkpt lat="-27.2742128" lon="151.2900879">
  <ele>375.01</ele>
  <time>2026-09-01T19:58:14Z</time>
  <course>3.06</course>
  <speed>15.75</speed>
  <fix>3d</fix>
</trkpt>
<trkpt lat="-27.2741704" lon="151.2900901">
  <ele>374.99</ele>
  <time>2026-09-01T19:58:14Z</time>
  <course>2.75</course>
  <speed>16.834978467464698</speed>
  <fix>3d</fix>
</trkpt>
<trkpt lat="-27.2742128" lon="151.2900879">
  <ele>375.01</ele>
  <time>2026-09-01T19:58:14Z</time>
  <course>3.06</course>
  <speed>15.75</speed>
  <fix>3d</fix>
</trkpt>
<trkpt lat="-27.2741551" lon="151.2900908">
  <ele>374.97</ele>
  <time>2026-09-01T19:58:14Z</time>
  <course>2.48</course>
  <speed>17.18306724656573</speed>
  <fix>3d</fix>
</trkpt>
<trkpt lat="-27.2741838" lon="151.2900895">
  <ele>374.97</ele>
  <time>2026-09-01T19:58:14Z</time>
  <course>2.63</course>
  <speed>16.53</speed>
  <fix>3d</fix>
</trkpt>
<trkpt lat="-27.2741395" lon="151.2900915">
  <ele>374.95</ele>
  <time>2026-09-01T19:58:14Z</time>
  <course>2.21</course>
  <speed>17.530966887197067</speed>
  <fix>3d</fix>
</trkpt>
<trkpt lat="-27.2741838" lon="151.2900895">
  <ele>374.97</ele>
  <time>2026-09-01T19:58:14Z</time>
  <course>2.63</course>
  <speed>16.53</speed>
  <fix>3d</fix>
</trkpt>
<trkpt lat="-27.2741235" lon="151.2900921">
  <ele>374.92</ele>
  <time>2026-09-01T19:58:14Z</time>
  <course>2.0</course>
  <speed>17.859420483319163</speed>
  <fix>3d</fix>
</trkpt>
<trkpt lat="-27.2741535" lon="151.290091">
  <ele>374.94</ele>
  <time>2026-09-01T19:58:14Z</time>
  <course>2.24</course>
  <speed>17.26</speed>
  <fix>3d</fix>
</trkpt>
<trkpt lat="-27.2741072" lon="151.2900927">
  <ele>374.9</ele>
  <time>2026-09-01T19:58:14Z</time>
  <course>1.83</course>
  <speed>18.177728130874883</speed>
  <fix>3d</fix>
</trkpt>
<trkpt lat="-27.2741535" lon="151.290091">
  <ele>374.94</ele>
  <time>2026-09-01T19:58:14Z</time>
  <course>2.24</course>
  <speed>17.26</speed>
  <fix>3d</fix>
</trkpt>
<trkpt lat="-27.2740908" lon="151.2900932">
  <ele>374.89</ele>
  <time>2026-09-01T19:58:14Z</time>
  <course>1.63</course>
  <speed>18.4762360885544</speed>
  <fix>3d</fix>
</trkpt>
<trkpt lat="-27.2741219" lon="151.2900923">
  <ele>374.9</ele>
  <time>2026-09-01T19:58:14Z</time>
  <course>1.86</course>
  <speed>17.93</speed>
  <fix>3d</fix>
</trkpt>
<trkpt lat="-27.2740741" lon="151.2900937">
  <ele>374.87</ele>
  <time>2026-09-01T19:58:14Z</time>
  <course>1.46</course>
  <speed>18.764927391279723</speed>
  <fix>3d</fix>
</trkpt>
<trkpt lat="-27.2741219" lon="151.2900923">
  <ele>374.9</ele>
  <time>2026-09-01T19:58:14Z</time>
  <course>1.86</course>
  <speed>17.93</speed>
  <fix>3d</fix>
</trkpt>
<trkpt lat="-27.2740572" lon="151.2900941">
  <ele>374.86</ele>
  <time>2026-09-01T19:58:14Z</time>
  <course>1.22</course>
  <speed>19.033793631328464</speed>
  <fix>3d</fix>
</trkpt>
<trkpt lat="-27.2740891" lon="151.2900934">
  <ele>374.86</ele>
  <time>2026-09-01T19:58:14Z</time>
  <course>1.49</course>
  <speed>18.55</speed>
  <fix>3d</fix>
</trkpt>
<trkpt lat="-27.2740401" lon="151.2900945">
  <ele>374.86</ele>
  <time>2026-09-01T19:58:14Z</time>
  <course>0.98</course>
  <speed>19.292822499572218</speed>
  <fix>3d</fix>
</trkpt>
<trkpt lat="-27.2740891" lon="151.2900934">
  <ele>374.86</ele>
  <time>2026-09-01T19:58:14Z</time>
  <course>1.49</course>
  <speed>18.55</speed>
  <fix>3d</fix>
</trkpt>
<trkpt lat="-27.2740227" lon="151.2900948">
  <ele>374.86</ele>
  <time>2026-09-01T19:58:14Z</time>
  <course>0.9</course>
  <speed>19.5420060382756</speed>
  <fix>3d</fix>
</trkpt>
<trkpt lat="-27.2740552" lon="151.2900943">
  <ele>374.84</ele>
  <time>2026-09-01T19:58:14Z</time>
  <course>1.13</course>
  <speed>19.12</speed>
  <fix>3d</fix>
</trkpt>
<trkpt lat="-27.2740051" lon="151.2900951">
  <ele>374.86</ele>
  <time>2026-09-01T19:58:14Z</time>
  <course>0.81</course>
  <speed>19.7713378404194</speed>
  <fix>3d</fix>
</trkpt>
<trkpt lat="-27.2740552" lon="151.2900943">
  <ele>374.84</ele>
  <time>2026-09-01T19:58:14Z</time>
  <course>1.13</course>
  <speed>19.12</speed>
  <fix>3d</fix>
</trkpt>
<trkpt lat="-27.2739872" lon="151.2900953">
  <ele>374.87</ele>
  <time>2026-09-01T19:58:14Z</time>
  <course>0.77</course>
  <speed>20.000902479638263</speed>
  <fix>3d</fix>
</trkpt>
<trkpt lat="-27.2740203" lon="151.2900949">
  <ele>374.84</ele>
  <time>2026-09-01T19:58:14Z</time>
  <course>0.8</course>
  <speed>19.64</speed>
  <fix>3d</fix>
</trkpt>
<trkpt lat="-27.2739692" lon="151.2900955">
  <ele>374.88</ele>
  <time>2026-09-01T19:58:14Z</time>
  <course>0.63</course>
  <speed>20.220556372167408</speed>
  <fix>3d</fix>
</trkpt>
<trkpt lat="-27.2740203" lon="151.2900949">
  <ele>374.84</ele>
  <time>2026-09-01T19:58:14Z</time>
  <course>0.8</course>
  <speed>19.64</speed>
  <fix>3d</fix>
</trkpt>
<trkpt lat="-27.273951" lon="151.2900956">
  <ele>374.9</ele>
  <time>2026-09-01T19:58:14Z</time>
  <course>0.47</course>
  <speed>20.420352592450502</speed>
  <fix>3d</fix>
</trkpt>
<trkpt lat="-27.2739846" lon="151.2900953">
  <ele>374.86</ele>
  <time>2026-09-01T19:58:14Z</time>
  <course>0.52</course>
  <speed>20.11</speed>
  <fix>3d</fix>
</trkpt>
<trkpt lat="-27.2739326" lon="151.2900957">
  <ele>374.92</ele>
  <time>2026-09-01T19:58:14Z</time>
  <course>0.26</course>
  <speed>20.620155188552776</speed>
  <fix>3d</fix>
</trkpt>
<trkpt lat="-27.2739846" lon="151.2900953">
  <ele>374.86</ele>
  <time>2026-09-01T19:58:14Z</time>
  <course>0.52</course>
  <speed>20.11</speed>
  <fix>3d</fix>
</trkpt>
<trkpt lat="-27.273914" lon="151.2900958">
  <ele>374.94</ele>
  <time>2026-09-01T19:58:14Z</time>
  <course>0.07</course>
  <speed>20.810038443020712</speed>
  <fix>3d</fix>
</trkpt>
<trkpt lat="-27.2739481" lon="151.2900957">
  <ele>374.88</ele>
  <time>2026-09-01T19:58:14Z</time>
  <course>0.29</course>
  <speed>20.54</speed>
  <fix>3d</fix>
</trkpt>
<trkpt lat="-27.2738952" lon="151.2900958">
  <ele>374.96</ele>
  <time>2026-09-01T19:58:14Z</time>
  <course>359.95</course>
  <speed>20.99</speed>
  <fix>3d</fix>
</trkpt>
<trkpt lat="-27.2739481" lon="151.2900957">
  <ele>374.88</ele>
  <time>2026-09-01T19:58:14Z</time>
  <course>0.29</course>
  <speed>20.54</speed>
  <fix>3d</fix>
</trkpt>
<trkpt lat="-27.2738762" lon="151.2900958">
  <ele>374.98</ele>
  <time>2026-09-01T19:58:14Z</time>
  <course>359.87</course>
  <speed>21.16000945179373</speed>
  <fix>3d</fix>
</trkpt>
<trkpt lat="-27.2739108" lon="151.2900958">
  <ele>374.92</ele>
  <time>2026-09-01T19:58:14Z</time>
  <course>0.06</course>
  <speed>20.93</speed>
  <fix>3d</fix>
</trkpt>
<trkpt lat="-27.2738571" lon="151.2900958">
  <ele>375.01</ele>
  <time>2026-09-01T19:58:14Z</time>
  <course>359.83</course>
  <speed>21.330084388018722</speed>
  <fix>3d</fix>
</trkpt>
<trkpt lat="-27.2739108" lon="151.2900958">
  <ele>374.92</ele>
  <time>2026-09-01T19:58:14Z</time>
  <course>0.06</course>
  <speed>20.93</speed>
  <fix>3d</fix>
</trkpt>
<trkpt lat="-27.2738379" lon="151.2900957">
  <ele>375.03</ele>
  <time>2026-09-01T19:58:14Z</time>
  <course>359.76</course>
  <speed>21.490188458922365</speed>
  <fix>3d</fix>
</trkpt>
<trkpt lat="-27.2738729" lon="151.2900957">
  <ele>374.98</ele>
  <time>2026-09-01T19:58:14Z</time>
  <course>359.85</course>
  <speed>21.29</speed>
  <fix>3d</fix>
</trkpt>
<trkpt lat="-27.2738185" lon="151.2900956">
  <ele>375.06</ele>
  <time>2026-09-01T19:58:14Z</time>
  <course>359.73</course>
  <speed>21.640332714632645</speed>
  <fix>3d</fix>
</trkpt>
<trkpt lat="-27.2738729" lon="151.2900957">
  <ele>374.98</ele>
  <time>2026-09-01T19:58:14Z</time>
  <course>359.85</course>
  <speed>21.29</speed>
  <fix>3d</fix>
</trkpt>
<trkpt lat="-27.2737989" lon="151.2900955">
  <ele>375.09</ele>
  <time>2026-09-01T19:58:14Z</time>
  <course>359.61</course>
  <speed>21.7804499494386</speed>
  <fix>3d</fix>
</trkpt>
<trkpt lat="-27.2738344" lon="151.2900956">
  <ele>375.04</ele>
  <time>2026-09-01T19:58:14Z</time>
  <course>359.68</course>
  <speed>21.62</speed>
  <fix>3d</fix>
</trkpt>
<trkpt lat="-27.2737792" lon="151.2900953">
  <ele>375.12</ele>
  <time>2026-09-01T19:58:14Z</time>
  <course>359.61</course>
  <speed>21.920583933828038</speed>
  <fix>3d</fix>
</trkpt>
<trkpt lat="-27.2738344" lon="151.2900956">
  <ele>375.04</ele>
  <time>2026-09-01T19:58:14Z</time>
  <course>359.68</course>
  <speed>21.62</speed>
  <fix>3d</fix>
</trkpt>
<trkpt lat="-27.2737594" lon="151.2900951">
  <ele>375.15</ele>
  <time>2026-09-01T19:58:14Z</time>
  <course>359.6</course>
  <speed>22.050655319060247</speed>
  <fix>3d</fix>
</trkpt>
<trkpt lat="-27.2737953" lon="151.2900953">
  <ele>375.1</ele>
  <time>2026-09-01T19:58:14Z</time>
  <course>359.55</course>
  <speed>21.91</speed>
  <fix>3d</fix>
</trkpt>
<trkpt lat="-27.2737395" lon="151.2900949">
  <ele>375.18</ele>
  <time>2026-09-01T19:58:14Z</time>
  <course>359.53</course>
  <speed>22.180730375711256</speed>
  <fix>3d</fix>
</trkpt>
<trkpt lat="-27.2737953" lon="151.2900953">
  <ele>375.1</ele>
  <time>2026-09-01T19:58:14Z</time>
  <course>359.55</course>
  <speed>21.91</speed>
  <fix>3d</fix>
</trkpt>
<trkpt lat="-27.2737193" lon="151.2900947">
  <ele>375.21</ele>
  <time>2026-09-01T19:58:14Z</time>
  <course>359.47</course>
  <speed>22.300809402351298</speed>
  <fix>3d</fix>
</trkpt>
<trkpt lat="-27.2737556" lon="151.290095">
  <ele>375.17</ele>
  <time>2026-09-01T19:58:14Z</time>
  <course>359.46</course>
  <speed>22.19</speed>
  <fix>3d</fix>
</trkpt>
<trkpt lat="-27.2736992" lon="151.2900945">
  <ele>375.24</ele>
  <time>2026-09-01T19:58:14Z</time>
  <course>359.39</course>
  <speed>22.41098391414353</speed>
  <fix>3d</fix>
</trkpt>
<trkpt lat="-27.2737556" lon="151.290095">
  <ele>375.17</ele>
  <time>2026-09-01T19:58:14Z</time>
  <course>359.46</course>
  <speed>22.19</speed>
  <fix>3d</fix>
</trkpt>
<trkpt lat="-27.2736789" lon="151.2900943">
  <ele>375.28</ele>
  <time>2026-09-01T19:58:14Z</time>
  <course>359.32</course>
  <speed>22.52117448091906</speed>
  <fix>3d</fix>
</trkpt>
<trkpt lat="-27.2737155" lon="151.2900945">
  <ele>375.23</ele>
  <time>2026-09-01T19:58:14Z</time>
  <course>359.39</course>
  <speed>22.43</speed>
  <fix>3d</fix>
</trkpt>
<trkpt lat="-27.2736586" lon="151.290094">
  <ele>375.31</ele>
  <time>2026-09-01T19:58:14Z</time>
  <course>359.31</course>
  <speed>22.631272611145842</speed>
  <fix>3d</fix>
</trkpt>
<trkpt lat="-27.2737155" lon="151.2900945">
  <ele>375.23</ele>
  <time>2026-09-01T19:58:14Z</time>
  <course>359.39</course>
  <speed>22.43</speed>
  <fix>3d</fix>
</trkpt>
<trkpt lat="-27.2736382" lon="151.2900937">
  <ele>375.34</ele>
  <time>2026-09-01T19:58:14Z</time>
  <course>359.31</course>
  <speed>22.731374793443532</speed>
  <fix>3d</fix>
</trkpt>
<trkpt lat="-27.273675" lon="151.290094">
  <ele>375.3</ele>
  <time>2026-09-01T19:58:14Z</time>
  <course>359.33</course>
  <speed>22.66</speed>
  <fix>3d</fix>
</trkpt>
<trkpt lat="-27.2736176" lon="151.2900935">
  <ele>375.37</ele>
  <time>2026-09-01T19:58:14Z</time>
  <course>359.29</course>
  <speed>22.831480460101574</speed>
  <fix>3d</fix>
</trkpt>
<trkpt lat="-27.273675" lon="151.290094">
  <ele>375.3</ele>
  <time>2026-09-01T19:58:14Z</time>
  <course>359.33</course>
  <speed>22.66</speed>
  <fix>3d</fix>
</trkpt>
<trkpt lat="-27.273597" lon="151.2900932">
  <ele>375.39</ele>
  <time>2026-09-01T19:58:14Z</time>
  <course>359.24</course>
  <speed>22.921590258967637</speed>
  <fix>3d</fix>
</trkpt>
<trkpt lat="-27.273634" lon="151.2900935">
  <ele>375.37</ele>
  <time>2026-09-01T19:58:14Z</time>
  <course>359.27</course>
  <speed>22.86</speed>
  <fix>3d</fix>
</trkpt>
<trkpt lat="-27.2735763" lon="151.2900929">
  <ele>375.42</ele>
  <time>2026-09-01T19:58:14Z</time>
  <course>359.16</course>
  <speed>23.021583351281464</speed>
  <fix>3d</fix>
</trkpt>
<trkpt lat="-27.273634" lon="151.2900935">
  <ele>375.37</ele>
  <time>2026-09-01T19:58:14Z</time>
  <course>359.27</course>
  <speed>22.86</speed>
  <fix>3d</fix>
</trkpt>
<trkpt lat="-27.2735555" lon="151.2900926">
  <ele>375.44</ele>
  <time>2026-09-01T19:58:14Z</time>
  <course>359.17</course>
  <speed>23.11169617315008</speed>
  <fix>3d</fix>
</trkpt>
<trkpt lat="-27.2735928" lon="151.2900929">
  <ele>375.42</ele>
  <time>2026-09-01T19:58:14Z</time>
  <course>359.23</course>
  <speed>23.05</speed>
  <fix>3d</fix>
</trkpt>
<trkpt lat="-27.2735346" lon="151.2900923">
  <ele>375.47</ele>
  <time>2026-09-01T19:58:14Z</time>
  <course>359.18</course>
  <speed>23.19169032218221</speed>
  <fix>3d</fix>
</trkpt>
<trkpt lat="-27.2735928" lon="151.2900929">
  <ele>375.42</ele>
  <time>2026-09-01T19:58:14Z</time>
  <course>359.23</course>
  <speed>23.05</speed>
  <fix>3d</fix>
</trkpt>
<trkpt lat="-27.2735137" lon="151.2900919">
  <ele>375.49</ele>
  <time>2026-09-01T19:58:14Z</time>
  <course>359.12</course>
  <speed>23.271806977542592</speed>
  <fix>3d</fix>
</trkpt>
<trkpt lat="-27.2735512" lon="151.2900922">
  <ele>375.47</ele>
  <time>2026-09-01T19:58:14Z</time>
  <course>359.21</course>
  <speed>23.23</speed>
  <fix>3d</fix>
</trkpt>
<trkpt lat="-27.2734927" lon="151.2900916">
  <ele>375.51</ele>
  <time>2026-09-01T19:58:14Z</time>
  <course>359.12</course>
  <speed>23.36180001626587</speed>
  <fix>3d</fix>
</trkpt>
<trkpt lat="-27.2735512" lon="151.2900922">
  <ele>375.47</ele>
  <time>2026-09-01T19:58:14Z</time>
  <course>359.21</course>
  <speed>23.23</speed>
  <fix>3d</fix>
</trkpt>
<trkpt lat="-27.2734715" lon="151.2900913">
  <ele>375.52</ele>
  <time>2026-09-01T19:58:14Z</time>
  <course>359.11</course>
  <speed>23.441793873336568</speed>
  <fix>3d</fix>
</trkpt>
<trkpt lat="-27.2735093" lon="151.2900915">
  <ele>375.52</ele>
  <time>2026-09-01T19:58:14Z</time>
  <course>359.18</course>
  <speed>23.4</speed>
  <fix>3d</fix>
</trkpt>
<trkpt lat="-27.2734504" lon="151.2900909">
  <ele>375.54</ele>
  <time>2026-09-01T19:58:14Z</time>
  <course>359.12</course>
  <speed>23.51191400120373</speed>
  <fix>3d</fix>
</trkpt>
<trkpt lat="-27.2735093" lon="151.2900915">
  <ele>375.52</ele>
  <time>2026-09-01T19:58:14Z</time>
  <course>359.18</course>
  <speed>23.4</speed>
  <fix>3d</fix>
</trkpt>
<trkpt lat="-27.2734291" lon="151.2900906">
  <ele>375.55</ele>
  <time>2026-09-01T19:58:14Z</time>
  <course>359.18</course>
  <speed>23.5819083197268</speed>
  <fix>3d</fix>
</trkpt>
<trkpt lat="-27.2734671" lon="151.2900909">
  <ele>375.56</ele>
  <time>2026-09-01T19:58:14Z</time>
  <course>359.17</course>
  <speed>23.55</speed>
  <fix>3d</fix>
</trkpt>
<trkpt lat="-27.2734078" lon="151.2900903">
  <ele>375.57</ele>
  <time>2026-09-01T19:58:14Z</time>
  <course>359.19</course>
  <speed>23.651777945854302</speed>
  <fix>3d</fix>
</trkpt>
<trkpt lat="-27.2734671" lon="151.2900909">
  <ele>375.56</ele>
  <time>2026-09-01T19:58:14Z</time>
  <course>359.17</course>
  <speed>23.55</speed>
  <fix>3d</fix>
</trkpt>
<trkpt lat="-27.2733864" lon="151.2900899">
  <ele>375.58</ele>
  <time>2026-09-01T19:58:14Z</time>
  <course>359.15</course>
  <speed>23.72177269935786</speed>
  <fix>3d</fix>
</trkpt>
<trkpt lat="-27.2734247" lon="151.2900902">
  <ele>375.59</ele>
  <time>2026-09-01T19:58:14Z</time>
  <course>359.17</course>
  <speed>23.69</speed>
  <fix>3d</fix>
</trkpt>
<trkpt lat="-27.273365" lon="151.2900896">
  <ele>375.59</ele>
  <time>2026-09-01T19:58:14Z</time>
  <course>359.13</course>
  <speed>23.791767483732688</speed>
  <fix>3d</fix>
</trkpt>
<trkpt lat="-27.2734247" lon="151.2900902">
  <ele>375.59</ele>
  <time>2026-09-01T19:58:14Z</time>
  <course>359.17</course>
  <speed>23.69</speed>
  <fix>3d</fix>
</trkpt>
<trkpt lat="-27.2733435" lon="151.2900893">
  <ele>375.6</ele>
  <time>2026-09-01T19:58:14Z</time>
  <course>359.11</course>
  <speed>23.851763037561813</speed>
  <fix>3d</fix>
</trkpt>
<trkpt lat="-27.2733821" lon="151.2900895">
  <ele>375.62</ele>
  <time>2026-09-01T19:58:14Z</time>
  <course>359.19</course>
  <speed>23.82</speed>
  <fix>3d</fix>
</trkpt>
<trkpt lat="-27.273322" lon="151.2900889">
  <ele>375.61</ele>
  <time>2026-09-01T19:58:14Z</time>
  <course>359.05</course>
  <speed>23.911881983649888</speed>
  <fix>3d</fix>
</trkpt>
<trkpt lat="-27.2733821" lon="151.2900895">
  <ele>375.62</ele>
  <time>2026-09-01T19:58:14Z</time>
  <course>359.19</course>
  <speed>23.82</speed>
  <fix>3d</fix>
</trkpt>
<trkpt lat="-27.2733006" lon="151.2900886">
  <ele>375.61</ele>
  <time>2026-09-01T19:58:14Z</time>
  <course>359.06</course>
  <speed>23.971877273171575</speed>
  <fix>3d</fix>
</trkpt>
<trkpt lat="-27.2733392" lon="151.2900888">
  <ele>375.65</ele>
  <time>2026-09-01T19:58:14Z</time>
  <course>359.19</course>
  <speed>23.94</speed>
  <fix>3d</fix>
</trkpt>
<trkpt lat="-27.273279" lon="151.2900882">
  <ele>375.62</ele>
  <time>2026-09-01T19:58:14Z</time>
  <course>359.14</course>
  <speed>24.031872586213503</speed>
  <fix>3d</fix>
</trkpt>
<trkpt lat="-27.2733392" lon="151.2900888">
  <ele>375.65</ele>
  <time>2026-09-01T19:58:14Z</time>
  <course>359.19</course>
  <speed>23.94</speed>
  <fix>3d</fix>
</trkpt>
<trkpt lat="-27.2732573" lon="151.2900879">
  <ele>375.62</ele>
  <time>2026-09-01T19:58:14Z</time>
  <course>359.22</course>
  <speed>24.091745474332075</speed>
  <fix>3d</fix>
</trkpt>
<trkpt lat="-27.2732961" lon="151.2900882">
  <ele>375.66</ele>
  <time>2026-09-01T19:58:14Z</time>
  <course>359.19</course>
  <speed>24.06</speed>
  <fix>3d</fix>
</trkpt>
<trkpt lat="-27.2732355" lon="151.2900876">
  <ele>375.62</ele>
  <time>2026-09-01T19:58:14Z</time>
  <course>359.22</course>
  <speed>24.141741859277676</speed>
  <fix>3d</fix>
</trkpt>
<trkpt lat="-27.2732961" lon="151.2900882">
  <ele>375.66</ele>
  <time>2026-09-01T19:58:14Z</time>
  <course>359.19</course>
  <speed>24.06</speed>
  <fix>3d</fix>
</trkpt>
<trkpt lat="-27.2732138" lon="151.2900872">
  <ele>375.62</ele>
  <time>2026-09-01T19:58:14Z</time>
  <course>359.21</course>
  <speed>24.201737540928754</speed>
  <fix>3d</fix>
</trkpt>
<trkpt lat="-27.2732527" lon="151.2900875">
  <ele>375.68</ele>
  <time>2026-09-01T19:58:14Z</time>
  <course>359.2</course>
  <speed>24.17</speed>
  <fix>3d</fix>
</trkpt>
<trkpt lat="-27.2731918" lon="151.2900869">
  <ele>375.62</ele>
  <time>2026-09-01T19:58:14Z</time>
  <course>359.26</course>
  <speed>24.251616440971517</speed>
  <fix>3d</fix>
</trkpt>
<trkpt lat="-27.2732527" lon="151.2900875">
  <ele>375.68</ele>
  <time>2026-09-01T19:58:14Z</time>
  <course>359.2</course>
  <speed>24.17</speed>
  <fix>3d</fix>
</trkpt>
<trkpt lat="-27.2731699" lon="151.2900866">
  <ele>375.62</ele>
  <time>2026-09-01T19:58:14Z</time>
  <course>359.29</course>
  <speed>24.311612451665972</speed>
  <fix>3d</fix>
</trkpt>
<trkpt lat="-27.2732091" lon="151.2900868">
  <ele>375.69</ele>
  <time>2026-09-01T19:58:14Z</time>
  <course>359.23</course>
  <speed>24.27</speed>
  <fix>3d</fix>
</trkpt>
<trkpt lat="-27.2731478" lon="151.2900863">
  <ele>375.62</ele>
  <time>2026-09-01T19:58:14Z</time>
  <course>359.33</course>
  <speed>24.361496259466495</speed>
  <fix>3d</fix>
</trkpt>
<trkpt lat="-27.2732091" lon="151.2900868">
  <ele>375.69</ele>
  <time>2026-09-01T19:58:14Z</time>
  <course>359.23</course>
  <speed>24.27</speed>
  <fix>3d</fix>
</trkpt>
<trkpt lat="-27.2731258" lon="151.2900859">
  <ele>375.62</ele>
  <time>2026-09-01T19:58:14Z</time>
  <course>359.36</course>
  <speed>24.411384639139172</speed>
  <fix>3d</fix>
</trkpt>
<trkpt lat="-27.2731654" lon="151.2900862">
  <ele>375.69</ele>
  <time>2026-09-01T19:58:14Z</time>
  <course>359.26</course>
  <speed>24.37</speed>
  <fix>3d</fix>
</trkpt>
<trkpt lat="-27.2731038" lon="151.2900856">
  <ele>375.61</ele>
  <time>2026-09-01T19:58:14Z</time>
  <course>359.4</course>
  <speed>24.461277562711235</speed>
  <fix>3d</fix>
</trkpt>
<trkpt lat="-27.2731654" lon="151.2900862">
  <ele>375.69</ele>
  <time>2026-09-01T19:58:14Z</time>
  <course>359.26</course>
  <speed>24.37</speed>
  <fix>3d</fix>
</trkpt>
<trkpt lat="-27.2730817" lon="151.2900854">
  <ele>375.61</ele>
  <time>2026-09-01T19:58:14Z</time>
  <course>359.35</course>
  <speed>24.511274956639856</speed>
  <fix>3d</fix>
</trkpt>
<trkpt lat="-27.2731215" lon="151.2900856">
  <ele>375.69</ele>
  <time>2026-09-01T19:58:14Z</time>
  <course>359.3</course>
  <speed>24.47</speed>
  <fix>3d</fix>
</trkpt>
<trkpt lat="-27.2730596" lon="151.2900851">
  <ele>375.61</ele>
  <time>2026-09-01T19:58:14Z</time>
  <course>359.33</course>
  <speed>24.5611726104435</speed>
  <fix>3d</fix>
</trkpt>
<trkpt lat="-27.2731215" lon="151.2900856">
  <ele>375.69</ele>
  <time>2026-09-01T19:58:14Z</time>
  <course>359.3</course>
  <speed>24.47</speed>
  <fix>3d</fix>
</trkpt>
<trkpt lat="-27.2730375" lon="151.2900848">
  <ele>375.6</ele>
  <time>2026-09-01T19:58:14Z</time>
  <course>359.42</course>
  <speed>24.601170703850663</speed>
  <fix>3d</fix>
</trkpt>
<trkpt lat="-27.2730774" lon="151.2900849">
  <ele>375.69</ele>
  <time>2026-09-01T19:58:14Z</time>
  <course>359.34</course>
  <speed>24.57</speed>
  <fix>3d</fix>
</trkpt>
<trkpt lat="-27.2730153" lon="151.2900845">
  <ele>375.6</ele>
  <time>2026-09-01T19:58:14Z</time>
  <course>359.46</course>
  <speed>24.651072998958888</speed>
  <fix>3d</fix>
</trkpt>
<trkpt lat="-27.2730774" lon="151.2900849">
  <ele>375.69</ele>
  <time>2026-09-01T19:58:14Z</time>
  <course>359.34</course>
  <speed>24.57</speed>
  <fix>3d</fix>
</trkpt>
<trkpt lat="-27.2729931" lon="151.2900842">
  <ele>375.56</ele>
  <time>2026-09-01T19:58:14Z</time>
  <course>359.46</course>
  <speed>24.701070826990478</speed>
  <fix>3d</fix>
</trkpt>
<trkpt lat="-27.2730332" lon="151.2900844">
  <ele>375.68</ele>
  <time>2026-09-01T19:58:14Z</time>
  <course>359.37</course>
  <speed>24.66</speed>
  <fix>3d</fix>
</trkpt>
<trkpt lat="-27.2729709" lon="151.290084">
  <ele>375.5</ele>
  <time>2026-09-01T19:58:14Z</time>
  <course>359.49</course>
  <speed>24.740978153662397</speed>
  <fix>3d</fix>
</trkpt>
<trkpt lat="-27.2730332" lon="151.2900844">
  <ele>375.68</ele>
  <time>2026-09-01T19:58:14Z</time>
  <course>359.37</course>
  <speed>24.66</speed>
  <fix>3d</fix>
</trkpt>
<trkpt lat="-27.2729486" lon="151.2900837">
  <ele>375.41</ele>
  <time>2026-09-01T19:58:14Z</time>
  <course>359.5</course>
  <speed>24.780976574784134</speed>
  <fix>3d</fix>
</trkpt>
<trkpt lat="-27.2729889" lon="151.2900839">
  <ele>375.63</ele>
  <time>2026-09-01T19:58:14Z</time>
  <course>359.41</course>
  <speed>24.74</speed>
  <fix>3d</fix>
</trkpt>
<trkpt lat="-27.2729262" lon="151.2900835">
  <ele>375.3</ele>
  <time>2026-09-01T19:58:14Z</time>
  <course>359.47</course>
  <speed>24.820888380555598</speed>
  <fix>3d</fix>
</trkpt>
<trkpt lat="-27.2729889" lon="151.2900839">
  <ele>375.63</ele>
  <time>2026-09-01T19:58:14Z</time>
  <course>359.41</course>
  <speed>24.74</speed>
  <fix>3d</fix>
</trkpt>
<trkpt lat="-27.2729039" lon="151.2900832">
  <ele>375.19</ele>
  <time>2026-09-01T19:58:14Z</time>
  <course>359.46</course>
  <speed>24.87088659457077</speed>
  <fix>3d</fix>
</trkpt>
<trkpt lat="-27.2729444" lon="151.2900834">
  <ele>375.48</ele>
  <time>2026-09-01T19:58:14Z</time>
  <course>359.44</course>
  <speed>24.82</speed>
  <fix>3d</fix>
</trkpt>
<trkpt lat="-27.2728815" lon="151.290083">
  <ele>375.06</ele>
  <time>2026-09-01T19:58:14Z</time>
  <course>359.48</course>
  <speed>24.92088481575243</speed>
  <fix>3d</fix>
</trkpt>
<trkpt lat="-27.2729444" lon="151.2900834">
  <ele>375.48</ele>
  <time>2026-09-01T19:58:14Z</time>
  <course>359.44</course>
  <speed>24.82</speed>
  <fix>3d</fix>
</trkpt>
<trkpt lat="-27.272859" lon="151.2900827">
  <ele>374.91</ele>
  <time>2026-09-01T19:58:14Z</time>
  <course>359.57</course>
  <speed>24.970800948307605</speed>
  <fix>3d</fix>
</trkpt>
<trkpt lat="-27.2728997" lon="151.2900829">
  <ele>375.26</ele>
  <time>2026-09-01T19:58:14Z</time>
  <course>359.46</course>
  <speed>24.9</speed>
  <fix>3d</fix>
</trkpt>
<trkpt lat="-27.2728367" lon="151.2900825">
  <ele>374.75</ele>
  <time>2026-09-01T19:58:14Z</time>
  <course>359.61</course>
  <speed>25.030799028396995</speed>
  <fix>3d</fix>
</trkpt>
<trkpt lat="-27.2728997" lon="151.2900829">
  <ele>375.26</ele>
  <time>2026-09-01T19:58:14Z</time>
  <course>359.46</course>
  <speed>24.9</speed>
  <fix>3d</fix>
</trkpt>
<trkpt lat="-27.2728142" lon="151.2900823">
  <ele>374.58</ele>
  <time>2026-09-01T19:58:14Z</time>
  <course>359.61</course>
  <speed>25.090719399809963</speed>
  <fix>3d</fix>
</trkpt>
<trkpt lat="-27.2728549" lon="151.2900824">
  <ele>374.99</ele>
  <time>2026-09-01T19:58:14Z</time>
  <course>359.48</course>
  <speed>25.0</speed>
  <fix>3d</fix>
</trkpt>
<trkpt lat="-27.2727916" lon="151.2900821">
  <ele>374.4</ele>
  <time>2026-09-01T19:58:14Z</time>
  <course>359.65</course>
  <speed>25.160717398357306</speed>
  <fix>3d</fix>
</trkpt>
<trkpt lat="-27.2728549" lon="151.2900824">
  <ele>374.99</ele>
  <time>2026-09-01T19:58:14Z</time>
  <course>359.48</course>
  <speed>25.0</speed>
  <fix>3d</fix>
</trkpt>
<trkpt lat="-27.2727689" lon="151.2900819">
  <ele>374.22</ele>
  <time>2026-09-01T19:58:14Z</time>
  <course>359.67</course>
  <speed>25.22064233916337</speed>
  <fix>3d</fix>
</trkpt>
<trkpt lat="-27.2728099" lon="151.290082">
  <ele>374.66</ele>
  <time>2026-09-01T19:58:14Z</time>
  <course>359.51</course>
  <speed>25.12</speed>
  <fix>3d</fix>
</trkpt>
<trkpt lat="-27.272746" lon="151.2900816">
  <ele>374.04</ele>
  <time>2026-09-01T19:58:14Z</time>
  <course>359.68</course>
  <speed>25.290571365629525</speed>
  <fix>3d</fix>
</trkpt>
<trkpt lat="-27.2728099" lon="151.290082">
  <ele>374.66</ele>
  <time>2026-09-01T19:58:14Z</time>
  <course>359.51</course>
  <speed>25.12</speed>
  <fix>3d</fix>
</trkpt>
<trkpt lat="-27.2727232" lon="151.2900815">
  <ele>373.85</ele>
  <time>2026-09-01T19:58:14Z</time>
  <course>359.59</course>
  <speed>25.360569788551675</speed>
  <fix>3d</fix>
</trkpt>
<trkpt lat="-27.2727645" lon="151.2900816">
  <ele>374.31</ele>
  <time>2026-09-01T19:58:14Z</time>
  <course>359.55</course>
  <speed>25.25</speed>
  <fix>3d</fix>
</trkpt>
<trkpt lat="-27.2727004" lon="151.2900813">
  <ele>373.67</ele>
  <time>2026-09-01T19:58:14Z</time>
  <course>359.6</course>
  <speed>25.430503337527554</speed>
  <fix>3d</fix>
</trkpt>
<trkpt lat="-27.2727645" lon="151.2900816">
  <ele>374.31</ele>
  <time>2026-09-01T19:58:14Z</time>
  <course>359.55</course>
  <speed>25.25</speed>
  <fix>3d</fix>
</trkpt>
<trkpt lat="-27.2726767" lon="151.2900811">
  <ele>373.48</ele>
  <time>2026-09-01T19:58:14Z</time>
  <course>359.69</course>
  <speed>25.510501759079535</speed>
  <fix>3d</fix>
</trkpt>
<trkpt lat="-27.272719" lon="151.2900812">
  <ele>373.94</ele>
  <time>2026-09-01T19:58:14Z</time>
  <course>359.58</course>
  <speed>25.38</speed>
  <fix>3d</fix>
</trkpt>
<trkpt lat="-27.2726538" lon="151.2900809">
  <ele>373.3</ele>
  <time>2026-09-01T19:58:14Z</time>
  <course>359.74</course>
  <speed>25.58050038603624</speed>
  <fix>3d</fix>
</trkpt>
<trkpt lat="-27.272719" lon="151.2900812">
  <ele>373.94</ele>
  <time>2026-09-01T19:58:14Z</time>
  <course>359.58</course>
  <speed>25.38</speed>
  <fix>3d</fix>
</trkpt>
<trkpt lat="-27.2726309" lon="151.2900807">
  <ele>373.12</ele>
  <time>2026-09-01T19:58:14Z</time>
  <course>359.71</course>
  <speed>25.65043859274145</speed>
  <fix>3d</fix>
</trkpt>
<trkpt lat="-27.2726733" lon="151.2900809">
  <ele>373.57</ele>
  <time>2026-09-01T19:58:14Z</time>
  <course>359.59</course>
  <speed>25.52</speed>
  <fix>3d</fix>
</trkpt>
<trkpt lat="-27.2726078" lon="151.2900805">
  <ele>372.95</ele>
  <time>2026-09-01T19:58:14Z</time>
  <course>359.73</course>
  <speed>25.720381023616273</speed>
  <fix>3d</fix>
</trkpt>
<trkpt lat="-27.2726733" lon="151.2900809">
  <ele>373.57</ele>
  <time>2026-09-01T19:58:14Z</time>
  <course>359.59</course>
  <speed>25.52</speed>
  <fix>3d</fix>
</trkpt>
<trkpt lat="-27.2725847" lon="151.2900804">
  <ele>372.79</ele>
  <time>2026-09-01T19:58:14Z</time>
  <course>359.68</course>
  <speed>25.780436381101076</speed>
  <fix>3d</fix>
</trkpt>
<trkpt lat="-27.2726273" lon="151.2900805">
  <ele>373.22</ele>
  <time>2026-09-01T19:58:14Z</time>
  <course>359.61</course>
  <speed>25.66</speed>
  <fix>3d</fix>
</trkpt>
<trkpt lat="-27.2725615" lon="151.2900802">
  <ele>372.63</ele>
  <time>2026-09-01T19:58:14Z</time>
  <course>359.68</course>
  <speed>25.850435199431363</speed>
  <fix>3d</fix>
</trkpt>
<trkpt lat="-27.2726273" lon="151.2900805">
  <ele>373.22</ele>
  <time>2026-09-01T19:58:14Z</time>
  <course>359.61</course>
  <speed>25.66</speed>
  <fix>3d</fix>
</trkpt>
<trkpt lat="-27.2725386" lon="151.29008">
  <ele>372.48</ele>
  <time>2026-09-01T19:58:14Z</time>
  <course>359.73</course>
  <speed>25.920434024143965</speed>
  <fix>3d</fix>
</trkpt>
<trkpt lat="-27.272581" lon="151.2900801">
  <ele>372.89</ele>
  <time>2026-09-01T19:58:14Z</time>
  <course>359.62</course>
  <speed>25.8</speed>
  <fix>3d</fix>
</trkpt>
<trkpt lat="-27.2725153" lon="151.2900799">
  <ele>372.34</ele>
  <time>2026-09-01T19:58:14Z</time>
  <course>359.71</course>
  <speed>25.980433021795463</speed>
  <fix>3d</fix>
</trkpt>
<trkpt lat="-27.272581" lon="151.2900801">
  <ele>372.89</ele>
  <time>2026-09-01T19:58:14Z</time>
  <course>359.62</course>
  <speed>25.8</speed>
  <fix>3d</fix>
</trkpt>
<trkpt lat="-27.2724919" lon="151.2900797">
  <ele>372.21</ele>
  <time>2026-09-01T19:58:14Z</time>
  <course>359.71</course>
  <speed>26.0304321900348</speed>
  <fix>3d</fix>
</trkpt>
<trkpt lat="-27.2725346" lon="151.2900798">
  <ele>372.58</ele>
  <time>2026-09-01T19:58:14Z</time>
  <course>359.62</course>
  <speed>25.93</speed>
  <fix>3d</fix>
</trkpt>
<trkpt lat="-27.2724684" lon="151.2900795">
  <ele>372.08</ele>
  <time>2026-09-01T19:58:14Z</time>
  <course>359.7</course>
  <speed>26.090490604816154</speed>
  <fix>3d</fix>
</trkpt>
<trkpt lat="-27.2725346" lon="151.2900798">
  <ele>372.58</ele>
  <time>2026-09-01T19:58:14Z</time>
  <course>359.62</course>
  <speed>25.93</speed>
  <fix>3d</fix>
</trkpt>
<trkpt lat="-27.272445" lon="151.2900793">
  <ele>371.97</ele>
  <time>2026-09-01T19:58:14Z</time>
  <course>359.73</course>
  <speed>26.15048947916654</speed>
  <fix>3d</fix>
</trkpt>
<trkpt lat="-27.2724879" lon="151.2900795">
  <ele>372.31</ele>
  <time>2026-09-01T19:58:14Z</time>
  <course>359.62</course>
  <speed>26.05</speed>
  <fix>3d</fix>
</trkpt>
<trkpt lat="-27.2724214" lon="151.2900792">
  <ele>371.86</ele>
  <time>2026-09-01T19:58:14Z</time>
  <course>359.73</course>
  <speed>26.200429385794422</speed>
  <fix>3d</fix>
</trkpt>
<trkpt lat="-27.2724879" lon="151.2900795">
  <ele>372.31</ele>
  <time>2026-09-01T19:58:14Z</time>
  <course>359.62</course>
  <speed>26.05</speed>
  <fix>3d</fix>
</trkpt>
<trkpt lat="-27.2723979" lon="151.290079">
  <ele>371.76</ele>
  <time>2026-09-01T19:58:14Z</time>
  <course>359.75</course>
  <speed>26.24042873125361</speed>
  <fix>3d</fix>
</trkpt>
<trkpt lat="-27.2724411" lon="151.2900791">
  <ele>372.07</ele>
  <time>2026-09-01T19:58:14Z</time>
  <course>359.62</course>
  <speed>26.16</speed>
  <fix>3d</fix>
</trkpt>
<trkpt lat="-27.2723742" lon="151.2900788">
  <ele>371.68</ele>
  <time>2026-09-01T19:58:14Z</time>
  <course>359.73</course>
  <speed>26.290427915878432</speed>
  <fix>3d</fix>
</trkpt>
<trkpt lat="-27.2724411" lon="151.2900791">
  <ele>372.07</ele>
  <time>2026-09-01T19:58:14Z</time>
  <course>359.62</course>
  <speed>26.16</speed>
  <fix>3d</fix>
</trkpt>
<trkpt lat="-27.2723507" lon="151.2900786">
  <ele>371.6</ele>
  <time>2026-09-01T19:58:15Z</time>
  <course>359.67</course>
  <speed>26.330486132997997</speed>
  <fix>3d</fix>
</trkpt>
<trkpt lat="-27.272394" lon="151.2900788">
  <ele>371.87</ele>
  <time>2026-09-01T19:58:15Z</time>
  <course>359.62</course>
  <speed>26.25</speed>
  <fix>3d</fix>
</trkpt>
<trkpt lat="-27.2723271" lon="151.2900785">
  <ele>371.54</ele>
  <time>2026-09-01T19:58:15Z</time>
  <course>359.62</course>
  <speed>26.370485395608476</speed>
  <fix>3d</fix>
</trkpt>
<trkpt lat="-27.272394" lon="151.2900788">
  <ele>371.87</ele>
  <time>2026-09-01T19:58:15Z</time>
  <course>359.62</course>
  <speed>26.25</speed>
  <fix>3d</fix>
</trkpt>
<trkpt lat="-27.2723033" lon="151.2900783">
  <ele>371.48</ele>
  <time>2026-09-01T19:58:15Z</time>
  <course>359.64</course>
  <speed>26.400547342810906</speed>
  <fix>3d</fix>
</trkpt>
<trkpt lat="-27.2723467" lon="151.2900784">
  <ele>371.71</ele>
  <time>2026-09-01T19:58:15Z</time>
  <course>359.62</course>
  <speed>26.33</speed>
  <fix>3d</fix>
</trkpt>
<trkpt lat="-27.2722795" lon="151.2900781">
  <ele>371.42</ele>
  <time>2026-09-01T19:58:15Z</time>
  <course>359.66</course>
  <speed>26.43054672154929</speed>
  <fix>3d</fix>
</trkpt>
<trkpt lat="-27.2723467" lon="151.2900784">
  <ele>371.71</ele>
  <time>2026-09-01T19:58:15Z</time>
  <course>359.62</course>
  <speed>26.33</speed>
  <fix>3d</fix>
</trkpt>
<trkpt lat="-27.2722555" lon="151.2900779">
  <ele>371.37</ele>
  <time>2026-09-01T19:58:15Z</time>
  <course>359.72</course>
  <speed>26.450483927520118</speed>
  <fix>3d</fix>
</trkpt>
<trkpt lat="-27.2722993" lon="151.2900781">
  <ele>371.58</ele>
  <time>2026-09-01T19:58:15Z</time>
  <course>359.61</course>
  <speed>26.4</speed>
  <fix>3d</fix>
</trkpt>
<trkpt lat="-27.2722317" lon="151.2900777">
  <ele>371.33</ele>
  <time>2026-09-01T19:58:15Z</time>
  <course>359.64</course>
  <speed>26.480483379273878</speed>
  <fix>3d</fix>
</trkpt>
<trkpt lat="-27.2722993" lon="151.2900781">
  <ele>371.58</ele>
  <time>2026-09-01T19:58:15Z</time>
  <course>359.61</course>
  <speed>26.4</speed>
  <fix>3d</fix>
</trkpt>
<trkpt lat="-27.2722079" lon="151.2900775">
  <ele>371.3</ele>
  <time>2026-09-01T19:58:15Z</time>
  <course>359.68</course>
  <speed>26.50048301446598</speed>
  <fix>3d</fix>
</trkpt>
<trkpt lat="-27.2722517" lon="151.2900777">
  <ele>371.48</ele>
  <time>2026-09-01T19:58:15Z</time>
  <course>359.61</course>
  <speed>26.45</speed>
  <fix>3d</fix>
</trkpt>
<trkpt lat="-27.2721833" lon="151.2900773">
  <ele>371.27</ele>
  <time>2026-09-01T19:58:15Z</time>
  <course>359.73</course>
  <speed>26.520482650208308</speed>
  <fix>3d</fix>
</trkpt>
<trkpt lat="-27.2722517" lon="151.2900777">
  <ele>371.48</ele>
  <time>2026-09-01T19:58:15Z</time>
  <course>359.61</course>
  <speed>26.45</speed>
  <fix>3d</fix>
</trkpt>
<trkpt lat="-27.2721596" lon="151.2900772">
  <ele>371.25</ele>
  <time>2026-09-01T19:58:15Z</time>
  <course>359.77</course>
  <speed>26.540482286499618</speed>
  <fix>3d</fix>
</trkpt>
<trkpt lat="-27.2722042" lon="151.2900773">
  <ele>371.41</ele>
  <time>2026-09-01T19:58:15Z</time>
  <course>359.61</course>
  <speed>26.5</speed>
  <fix>3d</fix>
</trkpt>
<trkpt lat="-27.2721357" lon="151.290077">
  <ele>371.23</ele>
  <time>2026-09-01T19:58:15Z</time>
  <course>359.76</course>
  <speed>26.560423565899697</speed>
  <fix>3d</fix>
</trkpt>
<trkpt lat="-27.2722042" lon="151.2900773">
  <ele>371.41</ele>
  <time>2026-09-01T19:58:15Z</time>
  <course>359.61</course>
  <speed>26.5</speed>
  <fix>3d</fix>
</trkpt>
<trkpt lat="-27.2721118" lon="151.2900768">
  <ele>371.23</ele>
  <time>2026-09-01T19:58:15Z</time>
  <course>359.75</course>
  <speed>26.570423406487148</speed>
  <fix>3d</fix>
</trkpt>
<trkpt lat="-27.2721565" lon="151.290077">
  <ele>371.37</ele>
  <time>2026-09-01T19:58:15Z</time>
  <course>359.62</course>
  <speed>26.53</speed>
  <fix>3d</fix>
</trkpt>
<trkpt lat="-27.2720879" lon="151.2900767">
  <ele>371.23</ele>
  <time>2026-09-01T19:58:15Z</time>
  <course>359.77</course>
  <speed>26.58042324719454</speed>
  <fix>3d</fix>
</trkpt>
<trkpt lat="-27.2721565" lon="151.290077">
  <ele>371.37</ele>
  <time>2026-09-01T19:58:15Z</time>
  <course>359.62</course>
  <speed>26.53</speed>
  <fix>3d</fix>
</trkpt>
<trkpt lat="-27.272064" lon="151.2900765">
  <ele>371.23</ele>
  <time>2026-09-01T19:58:15Z</time>
  <course>359.76</course>
  <speed>26.58042324719454</speed>
  <fix>3d</fix>
</trkpt>
<trkpt lat="-27.2721088" lon="151.2900766">
  <ele>371.35</ele>
  <time>2026-09-01T19:58:15Z</time>
  <course>359.63</course>
  <speed>26.56</speed>
  <fix>3d</fix>
</trkpt>
<trkpt lat="-27.2720399" lon="151.2900763">
  <ele>371.23</ele>
  <time>2026-09-01T19:58:15Z</time>
  <course>359.65</course>
  <speed>26.590423088021748</speed>
  <fix>3d</fix>
</trkpt>
<trkpt lat="-27.2721088" lon="151.2900766">
  <ele>371.35</ele>
  <time>2026-09-01T19:58:15Z</time>
  <course>359.63</course>
  <speed>26.56</speed>
  <fix>3d</fix>
</trkpt>
<trkpt lat="-27.272016" lon="151.2900761">
  <ele>371.24</ele>
  <time>2026-09-01T19:58:15Z</time>
  <course>359.68</course>
  <speed>26.590481379621544</speed>
  <fix>3d</fix>
</trkpt>
<trkpt lat="-27.2720611" lon="151.2900763">
  <ele>371.35</ele>
  <time>2026-09-01T19:58:15Z</time>
  <course>359.63</course>
  <speed>26.57</speed>
  <fix>3d</fix>
</trkpt>
<trkpt lat="-27.2719921" lon="151.2900759">
  <ele>371.26</ele>
  <time>2026-09-01T19:58:15Z</time>
  <course>359.73</course>
  <speed>26.590543431829293</speed>
  <fix>3d</fix>
</trkpt>
<trkpt lat="-27.2720611" lon="151.2900763">
  <ele>371.35</ele>
  <time>2026-09-01T19:58:15Z</time>
  <course>359.63</course>
  <speed>26.57</speed>
  <fix>3d</fix>
</trkpt>
<trkpt lat="-27.2719682" lon="151.2900758">
  <ele>371.28</ele>
  <time>2026-09-01T19:58:15Z</time>
  <course>359.77</course>
  <speed>26.590543431829293</speed>
  <fix>3d</fix>
</trkpt>
<trkpt lat="-27.2720134" lon="151.290076">
  <ele>371.36</ele>
  <time>2026-09-01T19:58:15Z</time>
  <course>359.62</course>
  <speed>26.57</speed>
  <fix>3d</fix>
</trkpt>
<trkpt lat="-27.2719443" lon="151.2900756">
  <ele>371.29</ele>
  <time>2026-09-01T19:58:15Z</time>
  <course>359.75</course>
  <speed>26.580543636276516</speed>
  <fix>3d</fix>
</trkpt>
<trkpt lat="-27.2720134" lon="151.290076">
  <ele>371.36</ele>
  <time>2026-09-01T19:58:15Z</time>
  <course>359.62</course>
  <speed>26.57</speed>
  <fix>3d</fix>
</trkpt>
<trkpt lat="-27.2719204" lon="151.2900754">
  <ele>371.31</ele>
  <time>2026-09-01T19:58:15Z</time>
  <course>359.7</course>
  <speed>26.580543636276516</speed>
  <fix>3d</fix>
</trkpt>
<trkpt lat="-27.2719656" lon="151.2900756">
  <ele>371.39</ele>
  <time>2026-09-01T19:58:15Z</time>
  <course>359.6</course>
  <speed>26.57</speed>
  <fix>3d</fix>
</trkpt>
<trkpt lat="-27.2718965" lon="151.2900752">
  <ele>371.33</ele>
  <time>2026-09-01T19:58:15Z</time>
  <course>359.7</course>
  <speed>26.570481741963203</speed>
  <fix>3d</fix>
</trkpt>
<trkpt lat="-27.2719656" lon="151.2900756">
  <ele>371.39</ele>
  <time>2026-09-01T19:58:15Z</time>
  <course>359.6</course>
  <speed>26.57</speed>
  <fix>3d</fix>
</trkpt>
<trkpt lat="-27.2718733" lon="151.290075">
  <ele>371.36</ele>
  <time>2026-09-01T19:58:15Z</time>
  <course>359.74</course>
  <speed>26.560481923338667</speed>
  <fix>3d</fix>
</trkpt>
<trkpt lat="-27.2719179" lon="151.2900752">
  <ele>371.43</ele>
  <time>2026-09-01T19:58:15Z</time>
  <course>359.6</course>
  <speed>26.56</speed>
  <fix>3d</fix>
</trkpt>
<trkpt lat="-27.2718496" lon="151.2900749">
  <ele>371.38</ele>
  <time>2026-09-01T19:58:15Z</time>
  <course>359.79</course>
  <speed>26.550544250542213</speed>
  <fix>3d</fix>
</trkpt>
<trkpt lat="-27.2719179" lon="151.2900752">
  <ele>371.43</ele>
  <time>2026-09-01T19:58:15Z</time>
  <course>359.6</course>
  <speed>26.56</speed>
  <fix>3d</fix>
</trkpt>
<trkpt lat="-27.2718257" lon="151.2900747">
  <ele>371.41</ele>
  <time>2026-09-01T19:58:15Z</time>
  <course>359.8</course>
  <speed>26.550482104850754</speed>
  <fix>3d</fix>
</trkpt>
<trkpt lat="-27.2718702" lon="151.2900748">
  <ele>371.47</ele>
  <time>2026-09-01T19:58:15Z</time>
  <course>359.61</course>
  <speed>26.54</speed>
  <fix>3d</fix>
</trkpt>
<trkpt lat="-27.2718019" lon="151.2900745">
  <ele>371.44</ele>
  <time>2026-09-01T19:58:15Z</time>
  <course>359.85</course>
  <speed>26.540423885085183</speed>
  <fix>3d</fix>
</trkpt>
<trkpt lat="-27.2718702" lon="151.2900748">
  <ele>371.47</ele>
  <time>2026-09-01T19:58:15Z</time>
  <course>359.61</course>
  <speed>26.54</speed>
  <fix>3d</fix>
</trkpt>
<trkpt lat="-27.271778" lon="151.2900743">
  <ele>371.47</ele>
  <time>2026-09-01T19:58:15Z</time>
  <course>359.81</course>
  <speed>26.530369390568236</speed>
  <fix>3d</fix>
</trkpt>
<trkpt lat="-27.2718226" lon="151.2900745">
  <ele>371.52</ele>
  <time>2026-09-01T19:58:15Z</time>
  <course>359.62</course>
  <speed>26.53</speed>
  <fix>3d</fix>
</trkpt>
<trkpt lat="-27.271754" lon="151.2900742">
  <ele>371.5</ele>
  <time>2026-09-01T19:58:15Z</time>
  <course>359.79</course>
  <speed>26.52036952985384</speed>
  <fix>3d</fix>
</trkpt>
<trkpt lat="-27.2718226" lon="151.2900745">
  <ele>371.52</ele>
  <time>2026-09-01T19:58:15Z</time>
  <course>359.62</course>
  <speed>26.53</speed>
  <fix>3d</fix>
</trkpt>
<trkpt lat="-27.2717301" lon="151.290074">
  <ele>371.53</ele>
  <time>2026-09-01T19:58:15Z</time>
  <course>359.81</course>
  <speed>26.500369808740405</speed>
  <fix>3d</fix>
</trkpt>
<trkpt lat="-27.2717748" lon="151.2900742">
  <ele>371.58</ele>
  <time>2026-09-01T19:58:15Z</time>
  <course>359.64</course>
  <speed>26.51</speed>
  <fix>3d</fix>
</trkpt>
<trkpt lat="-27.2717063" lon="151.2900739">
  <ele>371.57</ele>
  <time>2026-09-01T19:58:15Z</time>
  <course>359.85</course>
  <speed>26.49031898637689</speed>
  <fix>3d</fix>
</trkpt>
<trkpt lat="-27.2717748" lon="151.2900742">
  <ele>371.58</ele>
  <time>2026-09-01T19:58:15Z</time>
  <course>359.64</course>
  <speed>26.51</speed>
  <fix>3d</fix>
</trkpt>
<trkpt lat="-27.2716816" lon="151.2900737">
  <ele>371.6</ele>
  <time>2026-09-01T19:58:15Z</time>
  <course>359.82</course>
  <speed>26.480319106838575</speed>
  <fix>3d</fix>
</trkpt>
<trkpt lat="-27.2717272" lon="151.2900738">
  <ele>371.65</ele>
  <time>2026-09-01T19:58:15Z</time>
  <course>359.66</course>
  <speed>26.48</speed>
  <fix>3d</fix>
</trkpt>
<trkpt lat="-27.271658" lon="151.2900736">
  <ele>371.64</ele>
  <time>2026-09-01T19:58:15Z</time>
  <course>359.8</course>
  <speed>26.460319348035085</speed>
  <fix>3d</fix>
</trkpt>
<trkpt lat="-27.2717272" lon="151.2900738">
  <ele>371.65</ele>
  <time>2026-09-01T19:58:15Z</time>
  <course>359.66</course>
  <speed>26.48</speed>
  <fix>3d</fix>
</trkpt>
<trkpt lat="-27.2716341" lon="151.2900734">
  <ele>371.68</ele>
  <time>2026-09-01T19:58:15Z</time>
  <course>359.77</course>
  <speed>26.450319468770125</speed>
  <fix>3d</fix>
</trkpt>
<trkpt lat="-27.2716796" lon="151.2900735">
  <ele>371.72</ele>
  <time>2026-09-01T19:58:15Z</time>
  <course>359.66</course>
  <speed>26.45</speed>
  <fix>3d</fix>
</trkpt>
<trkpt lat="-27.2716103" lon="151.2900732">
  <ele>371.71</ele>
  <time>2026-09-01T19:58:15Z</time>
  <course>359.78</course>
  <speed>26.44031958959649</speed>
  <fix>3d</fix>
</trkpt>
<trkpt lat="-27.2716796" lon="151.2900735">
  <ele>371.72</ele>
  <time>2026-09-01T19:58:15Z</time>
  <course>359.66</course>
  <speed>26.45</speed>
  <fix>3d</fix>
</trkpt>
<trkpt lat="-27.2715865" lon="151.2900731">
  <ele>371.74</ele>
  <time>2026-09-01T19:58:15Z</time>
  <course>359.77</course>
  <speed>26.43037078816716</speed>
  <fix>3d</fix>
</trkpt>
<trkpt lat="-27.2716322" lon="151.2900732">
  <ele>371.79</ele>
  <time>2026-09-01T19:58:15Z</time>
  <course>359.66</course>
  <speed>26.42</speed>
  <fix>3d</fix>
</trkpt>
<trkpt lat="-27.2715625" lon="151.2900729">
  <ele>371.78</ele>
  <time>2026-09-01T19:58:15Z</time>
  <course>359.74</course>
  <speed>26.410371068956984</speed>
  <fix>3d</fix>
</trkpt>
<trkpt lat="-27.2716322" lon="151.2900732">
  <ele>371.79</ele>
  <time>2026-09-01T19:58:15Z</time>
  <course>359.66</course>
  <speed>26.42</speed>
  <fix>3d</fix>
</trkpt>
<trkpt lat="-27.2715388" lon="151.2900728">
  <ele>371.82</ele>
  <time>2026-09-01T19:58:15Z</time>
  <course>359.73</course>
  <speed>26.400426132924444</speed>
  <fix>3d</fix>
</trkpt>
<trkpt lat="-27.2715848" lon="151.2900729">
  <ele>371.86</ele>
  <time>2026-09-01T19:58:15Z</time>
  <course>359.65</course>
  <speed>26.38</speed>
  <fix>3d</fix>
</trkpt>
<trkpt lat="-27.271515" lon="151.2900726">
  <ele>371.85</ele>
  <time>2026-09-01T19:58:15Z</time>
  <course>359.75</course>
  <speed>26.380485211610495</speed>
  <fix>3d</fix>
</trkpt>
<trkpt lat="-27.2715848" lon="151.2900729">
  <ele>371.86</ele>
  <time>2026-09-01T19:58:15Z</time>
  <course>359.65</course>
  <speed>26.38</speed>
  <fix>3d</fix>
</trkpt>
<trkpt lat="-27.2714913" lon="151.2900724">
  <ele>371.89</ele>
  <time>2026-09-01T19:58:15Z</time>
  <course>359.74</course>
  <speed>26.360485579746058</speed>
  <fix>3d</fix>
</trkpt>
<trkpt lat="-27.2715374" lon="151.2900725">
  <ele>371.93</ele>
  <time>2026-09-01T19:58:15Z</time>
  <course>359.62</course>
  <speed>26.35</speed>
  <fix>3d</fix>
</trkpt>
<trkpt lat="-27.2714676" lon="151.2900722">
  <ele>371.92</ele>
  <time>2026-09-01T19:58:15Z</time>
  <course>359.79</course>
  <speed>26.340485948440666</speed>
  <fix>3d</fix>
</trkpt>
<trkpt lat="-27.2715374" lon="151.2900725">
  <ele>371.93</ele>
  <time>2026-09-01T19:58:15Z</time>
  <course>359.62</course>
  <speed>26.35</speed>
  <fix>3d</fix>
</trkpt>
<trkpt lat="-27.2714439" lon="151.290072">
  <ele>371.96</ele>
  <time>2026-09-01T19:58:15Z</time>
  <course>359.83</course>
  <speed>26.320486317695575</speed>
  <fix>3d</fix>
</trkpt>
<trkpt lat="-27.2714901" lon="151.2900722">
  <ele>372.0</ele>
  <time>2026-09-01T19:58:15Z</time>
  <course>359.6</course>
  <speed>26.31</speed>
  <fix>3d</fix>
</trkpt>
<trkpt lat="-27.2714203" lon="151.2900718">
  <ele>371.99</ele>
  <time>2026-09-01T19:58:15Z</time>
  <course>359.84</course>
  <speed>26.31048650253355</speed>
  <fix>3d</fix>
</trkpt>
<trkpt lat="-27.2714901" lon="151.2900722">
  <ele>372.0</ele>
  <time>2026-09-01T19:58:15Z</time>
  <course>359.6</course>
  <speed>26.31</speed>
  <fix>3d</fix>
</trkpt>
<trkpt lat="-27.2713966" lon="151.2900717">
  <ele>372.03</ele>
  <time>2026-09-01T19:58:15Z</time>
  <course>359.83</course>
  <speed>26.290427915878432</speed>
  <fix>3d</fix>
</trkpt>
<trkpt lat="-27.2714428" lon="151.2900718">
  <ele>372.06</ele>
  <time>2026-09-01T19:58:15Z</time>
  <course>359.59</course>
  <speed>26.27</speed>
  <fix>3d</fix>
</trkpt>
<trkpt lat="-27.271373" lon="151.2900715">
  <ele>372.06</ele>
  <time>2026-09-01T19:58:15Z</time>
  <course>359.76</course>
  <speed>26.270428241656056</speed>
  <fix>3d</fix>
</trkpt>
<trkpt lat="-27.2714428" lon="151.2900718">
  <ele>372.06</ele>
  <time>2026-09-01T19:58:15Z</time>
  <course>359.59</course>
  <speed>26.27</speed>
  <fix>3d</fix>
</trkpt>
<trkpt lat="-27.2713494" lon="151.2900713">
  <ele>372.1</ele>
  <time>2026-09-01T19:58:15Z</time>
  <course>359.79</course>
  <speed>26.260428404730945</speed>
  <fix>3d</fix>
</trkpt>
<trkpt lat="-27.2713957" lon="151.2900715">
  <ele>372.13</ele>
  <time>2026-09-01T19:58:15Z</time>
  <course>359.61</course>
  <speed>26.24</speed>
  <fix>3d</fix>
</trkpt>
<trkpt lat="-27.2713258" lon="151.2900711">
  <ele>372.13</ele>
  <time>2026-09-01T19:58:15Z</time>
  <course>359.8</course>
  <speed>26.24037347295194</speed>
  <fix>3d</fix>
</trkpt>
<trkpt lat="-27.2713957" lon="151.2900715">
  <ele>372.13</ele>
  <time>2026-09-01T19:58:15Z</time>
  <course>359.61</course>
  <speed>26.24</speed>
  <fix>3d</fix>
</trkpt>
<trkpt lat="-27.2713023" lon="151.290071">
  <ele>372.16</ele>
  <time>2026-09-01T19:58:15Z</time>
  <course>359.79</course>
  <speed>26.220373757824277</speed>
  <fix>3d</fix>
</trkpt>
<trkpt lat="-27.2713486" lon="151.2900711">
  <ele>372.2</ele>
  <time>2026-09-01T19:58:15Z</time>
  <course>359.62</course>
  <speed>26.2</speed>
  <fix>3d</fix>
</trkpt>
<trkpt lat="-27.2712787" lon="151.2900708">
  <ele>372.19</ele>
  <time>2026-09-01T19:58:15Z</time>
  <course>359.83</course>
  <speed>26.200374043131525</speed>
  <fix>3d</fix>
</trkpt>
<trkpt lat="-27.2713486" lon="151.2900711">
  <ele>372.2</ele>
  <time>2026-09-01T19:58:15Z</time>
  <course>359.62</course>
  <speed>26.2</speed>
  <fix>3d</fix>
</trkpt>
<trkpt lat="-27.2712552" lon="151.2900707">
  <ele>372.22</ele>
  <time>2026-09-01T19:58:15Z</time>
  <course>359.82</course>
  <speed>26.18032276348021</speed>
  <fix>3d</fix>
</trkpt>
<trkpt lat="-27.2713015" lon="151.2900708">
  <ele>372.26</ele>
  <time>2026-09-01T19:58:15Z</time>
  <course>359.63</course>
  <speed>26.16</speed>
  <fix>3d</fix>
</trkpt>
<trkpt lat="-27.2712318" lon="151.2900705">
  <ele>372.25</ele>
  <time>2026-09-01T19:58:15Z</time>
  <course>359.86</course>
  <speed>26.160323010238233</speed>
  <fix>3d</fix>
</trkpt>
<trkpt lat="-27.2713015" lon="151.2900708">
  <ele>372.26</ele>
  <time>2026-09-01T19:58:15Z</time>
  <course>359.63</course>
  <speed>26.16</speed>
  <fix>3d</fix>
</trkpt>
<trkpt lat="-27.2712089" lon="151.2900704">
  <ele>372.27</ele>
  <time>2026-09-01T19:58:15Z</time>
  <course>359.85</course>
  <speed>26.140323257373847</speed>
  <fix>3d</fix>
</trkpt>
<trkpt lat="-27.2712544" lon="151.2900704">
  <ele>372.32</ele>
  <time>2026-09-01T19:58:15Z</time>
  <course>359.65</course>
  <speed>26.12</speed>
  <fix>3d</fix>
</trkpt>
<trkpt lat="-27.2711846" lon="151.2900702">
  <ele>372.3</ele>
  <time>2026-09-01T19:58:15Z</time>
  <course>359.85</course>
  <speed>26.110323628787143</speed>
  <fix>3d</fix>
</trkpt>
<trkpt lat="-27.2712544" lon="151.2900704">
  <ele>372.32</ele>
  <time>2026-09-01T19:58:15Z</time>
  <course>359.65</course>
  <speed>26.12</speed>
  <fix>3d</fix>
</trkpt>
<trkpt lat="-27.2711615" lon="151.29007">
  <ele>372.33</ele>
  <time>2026-09-01T19:58:15Z</time>
  <course>359.85</course>
  <speed>26.090275966344244</speed>
  <fix>3d</fix>
</trkpt>
<trkpt lat="-27.2712075" lon="151.2900701">
  <ele>372.37</ele>
  <time>2026-09-01T19:58:15Z</time>
  <course>359.66</course>
  <speed>26.08</speed>
  <fix>3d</fix>
</trkpt>
<trkpt lat="-27.2711382" lon="151.2900699">
  <ele>372.36</ele>
  <time>2026-09-01T19:58:15Z</time>
  <course>359.81</course>
  <speed>26.07027617805381</speed>
  <fix>3d</fix>
</trkpt>
<trkpt lat="-27.2712075" lon="151.2900701">
  <ele>372.37</ele>
  <time>2026-09-01T19:58:15Z</time>
  <course>359.66</course>
  <speed>26.08</speed>
  <fix>3d</fix>
</trkpt>
<trkpt lat="-27.271115" lon="151.2900697">
  <ele>372.39</ele>
  <time>2026-09-01T19:58:15Z</time>
  <course>359.82</course>
  <speed>26.040324498746173</speed>
  <fix>3d</fix>
</trkpt>
<trkpt lat="-27.2711607" lon="151.2900698">
  <ele>372.43</ele>
  <time>2026-09-01T19:58:15Z</time>
  <course>359.67</course>
  <speed>26.05</speed>
  <fix>3d</fix>
</trkpt>
<trkpt lat="-27.2710917" lon="151.2900696">
  <ele>372.41</ele>
  <time>2026-09-01T19:58:15Z</time>
  <course>359.82</course>
  <speed>26.020324748165617</speed>
  <fix>3d</fix>
</trkpt>
<trkpt lat="-27.2711607" lon="151.2900698">
  <ele>372.43</ele>
  <time>2026-09-01T19:58:15Z</time>
  <course>359.67</course>
  <speed>26.05</speed>
  <fix>3d</fix>
</trkpt>
<trkpt lat="-27.2710684" lon="151.2900694">
  <ele>372.43</ele>
  <time>2026-09-01T19:58:15Z</time>
  <course>359.85</course>
  <speed>25.99032512301453</speed>
  <fix>3d</fix>
</trkpt>
<trkpt lat="-27.271114" lon="151.2900695">
  <ele>372.48</ele>
  <time>2026-09-01T19:58:15Z</time>
  <course>359.66</course>
  <speed>26.01</speed>
  <fix>3d</fix>
</trkpt>
<trkpt lat="-27.2710452" lon="151.2900693">
  <ele>372.46</ele>
  <time>2026-09-01T19:58:15Z</time>
  <course>359.84</course>
  <speed>25.96032549872979</speed>
  <fix>3d</fix>
</trkpt>
<trkpt lat="-27.271114" lon="151.2900695">
  <ele>372.48</ele>
  <time>2026-09-01T19:58:15Z</time>
  <course>359.66</course>
  <speed>26.01</speed>
  <fix>3d</fix>
</trkpt>
<trkpt lat="-27.271022" lon="151.2900691">
  <ele>372.48</ele>
  <time>2026-09-01T19:58:15Z</time>
  <course>359.88</course>
  <speed>25.940277562123345</speed>
  <fix>3d</fix>
</trkpt>
<trkpt lat="-27.2710673" lon="151.2900692">
  <ele>372.53</ele>
  <time>2026-09-01T19:58:15Z</time>
  <course>359.66</course>
  <speed>25.97</speed>
  <fix>3d</fix>
</trkpt>
<trkpt lat="-27.2709989" lon="151.290069">
  <ele>372.5</ele>
  <time>2026-09-01T19:58:15Z</time>
  <course>359.91</course>
  <speed>25.920277776289357</speed>
  <fix>3d</fix>
</trkpt>
<trkpt lat="-27.2710673" lon="151.2900692">
  <ele>372.53</ele>
  <time>2026-09-01T19:58:15Z</time>
  <course>359.66</course>
  <speed>25.97</speed>
  <fix>3d</fix>
</trkpt>
<trkpt lat="-27.2709757" lon="151.2900689">
  <ele>372.52</ele>
  <time>2026-09-01T19:58:15Z</time>
  <course>359.88</course>
  <speed>25.900277990786122</speed>
  <fix>3d</fix>
</trkpt>
<trkpt lat="-27.2710207" lon="151.2900689">
  <ele>372.57</ele>
  <time>2026-09-01T19:58:15Z</time>
  <course>359.67</course>
  <speed>25.94</speed>
  <fix>3d</fix>
</trkpt>
<trkpt lat="-27.2709525" lon="151.2900687">
  <ele>372.54</ele>
  <time>2026-09-01T19:58:15Z</time>
  <course>359.83</course>
  <speed>25.880278205614403</speed>
  <fix>3d</fix>
</trkpt>
<trkpt lat="-27.2710207" lon="151.2900689">
  <ele>372.57</ele>
  <time>2026-09-01T19:58:15Z</time>
  <course>359.67</course>
  <speed>25.94</speed>
  <fix>3d</fix>
</trkpt>
<trkpt lat="-27.2709294" lon="151.2900686">
  <ele>372.55</ele>
  <time>2026-09-01T19:58:15Z</time>
  <course>359.82</course>
  <speed>25.86027842077498</speed>
  <fix>3d</fix>
</trkpt>
<trkpt lat="-27.270974" lon="151.2900686">
  <ele>372.62</ele>
  <time>2026-09-01T19:58:15Z</time>
  <course>359.68</course>
  <speed>25.91</speed>
  <fix>3d</fix>
</trkpt>
<trkpt lat="-27.2709062" lon="151.2900684">
  <ele>372.57</ele>
  <time>2026-09-01T19:58:15Z</time>
  <course>359.83</course>
  <speed>25.850326883813285</speed>
  <fix>3d</fix>
</trkpt>
<trkpt lat="-27.270974" lon="151.2900686">
  <ele>372.62</ele>
  <time>2026-09-01T19:58:15Z</time>
  <course>359.68</course>
  <speed>25.91</speed>
  <fix>3d</fix>
</trkpt>
<trkpt lat="-27.270883" lon="151.2900683">
  <ele>372.58</ele>
  <time>2026-09-01T19:58:15Z</time>
  <course>359.84</course>
  <speed>25.83032713691408</speed>
  <fix>3d</fix>
</trkpt>
<trkpt lat="-27.2709275" lon="151.2900683">
  <ele>372.65</ele>
  <time>2026-09-01T19:58:15Z</time>
  <course>359.66</course>
  <speed>25.89</speed>
  <fix>3d</fix>
</trkpt>
<trkpt lat="-27.2708599" lon="151.2900681">
  <ele>372.6</ele>
  <time>2026-09-01T19:58:15Z</time>
  <course>359.79</course>
  <speed>25.82032726361151</speed>
  <fix>3d</fix>
</trkpt>
<trkpt lat="-27.2709275" lon="151.2900683">
  <ele>372.65</ele>
  <time>2026-09-01T19:58:15Z</time>
  <course>359.66</course>
  <speed>25.89</speed>
  <fix>3d</fix>
</trkpt>
<trkpt lat="-27.2708367" lon="151.2900679">
  <ele>372.61</ele>
  <time>2026-09-01T19:58:15Z</time>
  <course>359.78</course>
  <speed>25.810379694998677</speed>
  <fix>3d</fix>
</trkpt>
<trkpt lat="-27.270881" lon="151.290068">
  <ele>372.68</ele>
  <time>2026-09-01T19:58:15Z</time>
  <course>359.65</course>
  <speed>25.86</speed>
  <fix>3d</fix>
</trkpt>
<trkpt lat="-27.2708136" lon="151.2900678">
  <ele>372.63</ele>
  <time>2026-09-01T19:58:15Z</time>
  <course>359.78</course>
  <speed>25.790436211898395</speed>
  <fix>3d</fix>
</trkpt>
<trkpt lat="-27.270881" lon="151.290068">
  <ele>372.68</ele>
  <time>2026-09-01T19:58:15Z</time>
  <course>359.65</course>
  <speed>25.86</speed>
  <fix>3d</fix>
</trkpt>
<trkpt lat="-27.2707904" lon="151.2900676">
  <ele>372.64</ele>
  <time>2026-09-01T19:58:15Z</time>
  <course>359.81</course>
  <speed>25.780496504140487</speed>
  <fix>3d</fix>
</trkpt>
<trkpt lat="-27.2708346" lon="151.2900677">
  <ele>372.71</ele>
  <time>2026-09-01T19:58:15Z</time>
  <course>359.63</course>
  <speed>25.84</speed>
  <fix>3d</fix>
</trkpt>
<trkpt lat="-27.2707673" lon="151.2900674">
  <ele>372.66</ele>
  <time>2026-09-01T19:58:15Z</time>
  <course>359.85</course>
  <speed>25.760496889617638</speed>
  <fix>3d</fix>
</trkpt>
<trkpt lat="-27.2708346" lon="151.2900677">
  <ele>372.71</ele>
  <time>2026-09-01T19:58:15Z</time>
  <course>359.63</course>
  <speed>25.84</speed>
  <fix>3d</fix>
</trkpt>
<trkpt lat="-27.2707442" lon="151.2900672">
  <ele>372.67</ele>
  <time>2026-09-01T19:58:15Z</time>
  <course>359.86</course>
  <speed>25.750497082580754</speed>
  <fix>3d</fix>
</trkpt>
<trkpt lat="-27.2707881" lon="151.2900674">
  <ele>372.73</ele>
  <time>2026-09-01T19:58:15Z</time>
  <course>359.6</course>
  <speed>25.82</speed>
  <fix>3d</fix>
</trkpt>
<trkpt lat="-27.2707211" lon="151.290067">
  <ele>372.68</ele>
  <time>2026-09-01T19:58:15Z</time>
  <course>359.85</course>
  <speed>25.730437229087265</speed>
  <fix>3d</fix>
</trkpt>
<trkpt lat="-27.2707881" lon="151.2900674">
  <ele>372.73</ele>
  <time>2026-09-01T19:58:15Z</time>
  <course>359.6</course>
  <speed>25.82</speed>
  <fix>3d</fix>
</trkpt>
<trkpt lat="-27.2706979" lon="151.2900669">
  <ele>372.7</ele>
  <time>2026-09-01T19:58:15Z</time>
  <course>359.77</course>
  <speed>25.710437569205236</speed>
  <fix>3d</fix>
</trkpt>
<trkpt lat="-27.2707417" lon="151.290067">
  <ele>372.76</ele>
  <time>2026-09-01T19:58:15Z</time>
  <course>359.59</course>
  <speed>25.79</speed>
  <fix>3d</fix>
</trkpt>
<trkpt lat="-27.2706748" lon="151.2900667">
  <ele>372.71</ele>
  <time>2026-09-01T19:58:15Z</time>
  <course>359.71</course>
  <speed>25.70043773946273</speed>
  <fix>3d</fix>
</trkpt>
<trkpt lat="-27.2707417" lon="151.290067">
  <ele>372.76</ele>
  <time>2026-09-01T19:58:15Z</time>
  <course>359.59</course>
  <speed>25.79</speed>
  <fix>3d</fix>
</trkpt>
<trkpt lat="-27.2706517" lon="151.2900665">
  <ele>372.72</ele>
  <time>2026-09-01T19:58:15Z</time>
  <course>359.75</course>
  <speed>25.69049824351408</speed>
  <fix>3d</fix>
</trkpt>
<trkpt lat="-27.2706954" lon="151.2900666">
  <ele>372.78</ele>
  <time>2026-09-01T19:58:15Z</time>
  <course>359.6</course>
  <speed>25.77</speed>
  <fix>3d</fix>
</trkpt>
<trkpt lat="-27.2706287" lon="151.2900663">
  <ele>372.73</ele>
  <time>2026-09-01T19:58:15Z</time>
  <course>359.82</course>
  <speed>25.6804380803755</speed>
  <fix>3d</fix>
</trkpt>
<trkpt lat="-27.2706954" lon="151.2900666">
  <ele>372.78</ele>
  <time>2026-09-01T19:58:15Z</time>
  <course>359.6</course>
  <speed>25.77</speed>
  <fix>3d</fix>
</trkpt>
<trkpt lat="-27.2706056" lon="151.2900661">
  <ele>372.74</ele>
  <time>2026-09-01T19:58:15Z</time>
  <course>359.79</course>
  <speed>25.670438251031086</speed>
  <fix>3d</fix>
</trkpt>
<trkpt lat="-27.2706492" lon="151.2900662">
  <ele>372.81</ele>
  <time>2026-09-01T19:58:15Z</time>
  <course>359.59</course>
  <speed>25.74</speed>
  <fix>3d</fix>
</trkpt>
<trkpt lat="-27.2705827" lon="151.290066">
  <ele>372.75</ele>
  <time>2026-09-01T19:58:15Z</time>
  <course>359.8</course>
  <speed>25.670438251031086</speed>
  <fix>3d</fix>
</trkpt>
<trkpt lat="-27.2706492" lon="151.2900662">
  <ele>372.81</ele>
  <time>2026-09-01T19:58:15Z</time>
  <course>359.59</course>
  <speed>25.74</speed>
  <fix>3d</fix>
</trkpt>
<trkpt lat="-27.2705592" lon="151.2900658">
  <ele>372.76</ele>
  <time>2026-09-01T19:58:15Z</time>
  <course>359.8</course>
  <speed>25.660381914539</speed>
  <fix>3d</fix>
</trkpt>
<trkpt lat="-27.2706029" lon="151.2900659">
  <ele>372.82</ele>
  <time>2026-09-01T19:58:15Z</time>
  <course>359.6</course>
  <speed>25.73</speed>
  <fix>3d</fix>
</trkpt>
<trkpt lat="-27.2705361" lon="151.2900656">
  <ele>372.77</ele>
  <time>2026-09-01T19:58:15Z</time>
  <course>359.8</course>
  <speed>25.650382063431334</speed>
  <fix>3d</fix>
</trkpt>
<trkpt lat="-27.2706029" lon="151.2900659">
  <ele>372.82</ele>
  <time>2026-09-01T19:58:15Z</time>
  <course>359.6</course>
  <speed>25.73</speed>
  <fix>3d</fix>
</trkpt>
<trkpt lat="-27.2705131" lon="151.2900655">
  <ele>372.78</ele>
  <time>2026-09-01T19:58:15Z</time>
  <course>359.81</course>
  <speed>25.650382063431334</speed>
  <fix>3d</fix>
</trkpt>
<trkpt lat="-27.2705567" lon="151.2900656">
  <ele>372.84</ele>
  <time>2026-09-01T19:58:15Z</time>
  <course>359.61</course>
  <speed>25.71</speed>
  <fix>3d</fix>
</trkpt>
<trkpt lat="-27.27049" lon="151.2900653">
  <ele>372.79</ele>
  <time>2026-09-01T19:58:15Z</time>
  <course>359.81</course>
  <speed>25.640382212439814</speed>
  <fix>3d</fix>
</trkpt>
<trkpt lat="-27.2705567" lon="151.2900656">
  <ele>372.84</ele>
  <time>2026-09-01T19:58:15Z</time>
  <course>359.61</course>
  <speed>25.71</speed>
  <fix>3d</fix>
</trkpt>
<trkpt lat="-27.270467" lon="151.2900651">
  <ele>372.8</ele>
  <time>2026-09-01T19:58:15Z</time>
  <course>359.85</course>
  <speed>25.620382510805726</speed>
  <fix>3d</fix>
</trkpt>
<trkpt lat="-27.2705106" lon="151.2900652">
  <ele>372.86</ele>
  <time>2026-09-01T19:58:15Z</time>
  <course>359.61</course>
  <speed>25.7</speed>
  <fix>3d</fix>
</trkpt>
<trkpt lat="-27.2704439" lon="151.290065">
  <ele>372.81</ele>
  <time>2026-09-01T19:58:15Z</time>
  <course>359.88</course>
  <speed>25.610329947113136</speed>
  <fix>3d</fix>
</trkpt>
<trkpt lat="-27.2705106" lon="151.2900652">
  <ele>372.86</ele>
  <time>2026-09-01T19:58:15Z</time>
  <course>359.61</course>
  <speed>25.7</speed>
  <fix>3d</fix>
</trkpt>
<trkpt lat="-27.2704209" lon="151.2900648">
  <ele>372.82</ele>
  <time>2026-09-01T19:58:15Z</time>
  <course>359.91</course>
  <speed>25.61028113863649</speed>
  <fix>3d</fix>
</trkpt>
<trkpt lat="-27.2704644" lon="151.2900649">
  <ele>372.88</ele>
  <time>2026-09-01T19:58:15Z</time>
  <course>359.62</course>
  <speed>25.68</speed>
  <fix>3d</fix>
</trkpt>
<trkpt lat="-27.2703979" lon="151.2900647">
  <ele>372.83</ele>
  <time>2026-09-01T19:58:15Z</time>
  <course>359.89</course>
  <speed>25.600281248455065</speed>
  <fix>3d</fix>
</trkpt>
<trkpt lat="-27.2704644" lon="151.2900649">
  <ele>372.88</ele>
  <time>2026-09-01T19:58:15Z</time>
  <course>359.62</course>
  <speed>25.68</speed>
  <fix>3d</fix>
</trkpt>
<trkpt lat="-27.2703749" lon="151.2900645">
  <ele>372.84</ele>
  <time>2026-09-01T19:58:15Z</time>
  <course>359.89</course>
  <speed>25.590281358359466</speed>
  <fix>3d</fix>
</trkpt>
<trkpt lat="-27.2704183" lon="151.2900645">
  <ele>372.89</ele>
  <time>2026-09-01T19:58:15Z</time>
  <course>359.65</course>
  <speed>25.66</speed>
  <fix>3d</fix>
</trkpt>
<trkpt lat="-27.2703519" lon="151.2900644">
  <ele>372.85</ele>
  <time>2026-09-01T19:58:15Z</time>
  <course>359.9</course>
  <speed>25.580236511807314</speed>
  <fix>3d</fix>
</trkpt>
<trkpt lat="-27.2704183" lon="151.2900645">
  <ele>372.89</ele>
  <time>2026-09-01T19:58:15Z</time>
  <course>359.65</course>
  <speed>25.66</speed>
  <fix>3d</fix>
</trkpt>
<trkpt lat="-27.2703288" lon="151.2900642">
  <ele>372.85</ele>
  <time>2026-09-01T19:58:15Z</time>
  <course>359.88</course>
  <speed>25.570236604302277</speed>
  <fix>3d</fix>
</trkpt>
<trkpt lat="-27.2703722" lon="151.2900642">
  <ele>372.9</ele>
  <time>2026-09-01T19:58:15Z</time>
  <course>359.67</course>
  <speed>25.65</speed>
  <fix>3d</fix>
</trkpt>
<trkpt lat="-27.2703058" lon="151.2900641">
  <ele>372.86</ele>
  <time>2026-09-01T19:58:15Z</time>
  <course>359.85</course>
  <speed>25.56023669686961</speed>
  <fix>3d</fix>
</trkpt>
<trkpt lat="-27.2703722" lon="151.2900642">
  <ele>372.9</ele>
  <time>2026-09-01T19:58:15Z</time>
  <course>359.67</course>
  <speed>25.65</speed>
  <fix>3d</fix>
</trkpt>
<trkpt lat="-27.2702828" lon="151.2900639">
  <ele>372.87</ele>
  <time>2026-09-01T19:58:15Z</time>
  <course>359.86</course>
  <speed>25.55023678950941</speed>
  <fix>3d</fix>
</trkpt>
<trkpt lat="-27.2703261" lon="151.2900639">
  <ele>372.91</ele>
  <time>2026-09-01T19:58:15Z</time>
  <course>359.68</course>
  <speed>25.63</speed>
  <fix>3d</fix>
</trkpt>
<trkpt lat="-27.2702599" lon="151.2900638">
  <ele>372.88</ele>
  <time>2026-09-01T19:58:15Z</time>
  <course>359.86</course>
  <speed>25.55023678950941</speed>
  <fix>3d</fix>
</trkpt>
<trkpt lat="-27.2703261" lon="151.2900639">
  <ele>372.91</ele>
  <time>2026-09-01T19:58:15Z</time>
  <course>359.68</course>
  <speed>25.63</speed>
  <fix>3d</fix>
</trkpt>
<trkpt lat="-27.2702369" lon="151.2900637">
  <ele>372.89</ele>
  <time>2026-09-01T19:58:15Z</time>
  <course>359.89</course>
  <speed>25.54023688222175</speed>
  <fix>3d</fix>
</trkpt>
<trkpt lat="-27.27028" lon="151.2900636">
  <ele>372.94</ele>
  <time>2026-09-01T19:58:15Z</time>
  <course>359.69</course>
  <speed>25.61</speed>
  <fix>3d</fix>
</trkpt>
<trkpt lat="-27.2702139" lon="151.2900635">
  <ele>372.9</ele>
  <time>2026-09-01T19:58:15Z</time>
  <course>359.91</course>
  <speed>25.54023688222175</speed>
  <fix>3d</fix>
</trkpt>
<trkpt lat="-27.27028" lon="151.2900636">
  <ele>372.94</ele>
  <time>2026-09-01T19:58:15Z</time>
  <course>359.69</course>
  <speed>25.61</speed>
  <fix>3d</fix>
</trkpt>
<trkpt lat="-27.2701909" lon="151.2900634">
  <ele>372.9</ele>
  <time>2026-09-01T19:58:15Z</time>
  <course>359.92</course>
  <speed>25.53019584727074</speed>
  <fix>3d</fix>
</trkpt>
<trkpt lat="-27.270234" lon="151.2900634">
  <ele>372.95</ele>
  <time>2026-09-01T19:58:15Z</time>
  <course>359.69</course>
  <speed>25.6</speed>
  <fix>3d</fix>
</trkpt>
<trkpt lat="-27.2701679" lon="151.2900633">
  <ele>372.91</ele>
  <time>2026-09-01T19:58:15Z</time>
  <course>359.93</course>
  <speed>25.53019584727074</speed>
  <fix>3d</fix>
</trkpt>
<trkpt lat="-27.270234" lon="151.2900634">
  <ele>372.95</ele>
  <time>2026-09-01T19:58:15Z</time>
  <course>359.69</course>
  <speed>25.6</speed>
  <fix>3d</fix>
</trkpt>
<trkpt lat="-27.2701449" lon="151.2900631">
  <ele>372.91</ele>
  <time>2026-09-01T19:58:15Z</time>
  <course>359.94</course>
  <speed>25.52015869856612</speed>
  <fix>3d</fix>
</trkpt>
<trkpt lat="-27.270188" lon="151.2900631">
  <ele>372.96</ele>
  <time>2026-09-01T19:58:15Z</time>
  <course>359.7</course>
  <speed>25.58</speed>
  <fix>3d</fix>
</trkpt>
<trkpt lat="-27.270122" lon="151.290063">
  <ele>372.91</ele>
  <time>2026-09-01T19:58:15Z</time>
  <course>359.9</course>
  <speed>25.52015869856612</speed>
  <fix>3d</fix>
</trkpt>
<trkpt lat="-27.270188" lon="151.2900631">
  <ele>372.96</ele>
  <time>2026-09-01T19:58:15Z</time>
  <course>359.7</course>
  <speed>25.58</speed>
  <fix>3d</fix>
</trkpt>
<trkpt lat="-27.2700992" lon="151.2900629">
  <ele>372.92</ele>
  <time>2026-09-01T19:58:15Z</time>
  <course>359.92</course>
  <speed>25.51012544069511</speed>
  <fix>3d</fix>
</trkpt>
<trkpt lat="-27.2701421" lon="151.2900628">
  <ele>372.97</ele>
  <time>2026-09-01T19:58:15Z</time>
  <course>359.72</course>
  <speed>25.57</speed>
  <fix>3d</fix>
</trkpt>
<trkpt lat="-27.2700762" lon="151.2900628">
  <ele>372.92</ele>
  <time>2026-09-01T19:58:15Z</time>
  <course>359.93</course>
  <speed>25.510096040587538</speed>
  <fix>3d</fix>
</trkpt>
<trkpt lat="-27.2701421" lon="151.2900628">
  <ele>372.97</ele>
  <time>2026-09-01T19:58:15Z</time>
  <course>359.72</course>
  <speed>25.57</speed>
  <fix>3d</fix>
</trkpt>
<trkpt lat="-27.2700533" lon="151.2900627">
  <ele>372.93</ele>
  <time>2026-09-01T19:58:15Z</time>
  <course>359.91</course>
  <speed>25.500096078250372</speed>
  <fix>3d</fix>
</trkpt>
<trkpt lat="-27.2700961" lon="151.2900626">
  <ele>372.98</ele>
  <time>2026-09-01T19:58:15Z</time>
  <course>359.75</course>
  <speed>25.56</speed>
  <fix>3d</fix>
</trkpt>
<trkpt lat="-27.2700303" lon="151.2900626">
  <ele>372.93</ele>
  <time>2026-09-01T19:58:15Z</time>
  <course>359.93</course>
  <speed>25.500070588137596</speed>
  <fix>3d</fix>
</trkpt>
<trkpt lat="-27.2700961" lon="151.2900626">
  <ele>372.98</ele>
  <time>2026-09-01T19:58:15Z</time>
  <course>359.75</course>
  <speed>25.56</speed>
  <fix>3d</fix>
</trkpt>
<trkpt lat="-27.2700071" lon="151.2900625">
  <ele>372.94</ele>
  <time>2026-09-01T19:58:15Z</time>
  <course>359.96</course>
  <speed>25.49004903879159</speed>
  <fix>3d</fix>
</trkpt>
<trkpt lat="-27.2700502" lon="151.2900624">
  <ele>373.0</ele>
  <time>2026-09-01T19:58:15Z</time>
  <course>359.77</course>
  <speed>25.55</speed>
  <fix>3d</fix>
</trkpt>
<trkpt lat="-27.2699842" lon="151.2900624">
  <ele>372.95</ele>
  <time>2026-09-01T19:58:15Z</time>
  <course>359.98</course>
  <speed>25.49004903879159</speed>
  <fix>3d</fix>
</trkpt>
<trkpt lat="-27.2700502" lon="151.2900624">
  <ele>373.0</ele>
  <time>2026-09-01T19:58:15Z</time>
  <course>359.77</course>
  <speed>25.55</speed>
  <fix>3d</fix>
</trkpt>
<trkpt lat="-27.2699612" lon="151.2900623">
  <ele>372.96</ele>
  <time>2026-09-01T19:58:15Z</time>
  <course>0.02</course>
  <speed>25.490031384837483</speed>
  <fix>3d</fix>
</trkpt>
<trkpt lat="-27.2700043" lon="151.2900622">
  <ele>373.01</ele>
  <time>2026-09-01T19:58:15Z</time>
  <course>359.79</course>
  <speed>25.54</speed>
  <fix>3d</fix>
</trkpt>
<trkpt lat="-27.2699381" lon="151.2900623">
  <ele>372.96</ele>
  <time>2026-09-01T19:58:15Z</time>
  <course>0.08</course>
  <speed>25.480017660904394</speed>
  <fix>3d</fix>
</trkpt>
<trkpt lat="-27.2700043" lon="151.2900622">
  <ele>373.01</ele>
  <time>2026-09-01T19:58:15Z</time>
  <course>359.79</course>
  <speed>25.54</speed>
  <fix>3d</fix>
</trkpt>
<trkpt lat="-27.2699152" lon="151.2900622">
  <ele>372.97</ele>
  <time>2026-09-01T19:58:15Z</time>
  <course>0.13</course>
  <speed>25.480001962323318</speed>
  <fix>3d</fix>
</trkpt>
<trkpt lat="-27.2699585" lon="151.290062">
  <ele>373.03</ele>
  <time>2026-09-01T19:58:15Z</time>
  <course>359.83</course>
  <speed>25.53</speed>
  <fix>3d</fix>
</trkpt>
<trkpt lat="-27.2698923" lon="151.2900622">
  <ele>372.97</ele>
  <time>2026-09-01T19:58:15Z</time>
  <course>0.28</course>
  <speed>25.47</speed>
  <fix>3d</fix>
</trkpt>
<trkpt lat="-27.2699585" lon="151.290062">
  <ele>373.03</ele>
  <time>2026-09-01T19:58:15Z</time>
  <course>359.83</course>
  <speed>25.53</speed>
  <fix>3d</fix>
</trkpt>
<trkpt lat="-27.2698693" lon="151.2900622">
  <ele>372.98</ele>
  <time>2026-09-01T19:58:15Z</time>
  <course>0.58</course>
  <speed>25.47004907729861</speed>
  <fix>3d</fix>
</trkpt>
<trkpt lat="-27.2699127" lon="151.2900619">
  <ele>373.04</ele>
  <time>2026-09-01T19:58:15Z</time>
  <course>359.9</course>
  <speed>25.52</speed>
  <fix>3d</fix>
</trkpt>
<trkpt lat="-27.2698464" lon="151.2900623">
  <ele>372.99</ele>
  <time>2026-09-01T19:58:15Z</time>
  <course>0.91</course>
  <speed>25.460384914608024</speed>
  <fix>3d</fix>
</trkpt>
<trkpt lat="-27.2699127" lon="151.2900619">
  <ele>373.04</ele>
  <time>2026-09-01T19:58:15Z</time>
  <course>359.9</course>
  <speed>25.52</speed>
  <fix>3d</fix>
</trkpt>
<trkpt lat="-27.2698234" lon="151.2900624">
  <ele>372.99</ele>
  <time>2026-09-01T19:58:15Z</time>
  <course>1.13</course>
  <speed>25.461539623518448</speed>
  <fix>3d</fix>
</trkpt>
<trkpt lat="-27.2698668" lon="151.2900618">
  <ele>373.06</ele>
  <time>2026-09-01T19:58:15Z</time>
  <course>0.08</course>
  <speed>25.5</speed>
  <fix>3d</fix>
</trkpt>
<trkpt lat="-27.2698005" lon="151.2900627">
  <ele>373.0</ele>
  <time>2026-09-01T19:58:15Z</time>
  <course>1.34</course>
  <speed>25.454156831448962</speed>
  <fix>3d</fix>
</trkpt>
<trkpt lat="-27.2698668" lon="151.2900618">
  <ele>373.06</ele>
  <time>2026-09-01T19:58:15Z</time>
  <course>0.08</course>
  <speed>25.5</speed>
  <fix>3d</fix>
</trkpt>
<trkpt lat="-27.2697776" lon="151.2900632">
  <ele>373.0</ele>
  <time>2026-09-01T19:58:15Z</time>
  <course>1.75</course>
  <speed>25.459624899043583</speed>
  <fix>3d</fix>
</trkpt>
<trkpt lat="-27.2698209" lon="151.2900621">
  <ele>373.07</ele>
  <time>2026-09-01T19:58:15Z</time>
  <course>0.59</course>
  <speed>25.49</speed>
  <fix>3d</fix>
</trkpt>
<trkpt lat="-27.2697546" lon="151.2900641">
  <ele>373.01</ele>
  <time>2026-09-01T19:58:15Z</time>
  <course>2.43</course>
  <speed>25.460041241129208</speed>
  <fix>3d</fix>
</trkpt>
<trkpt lat="-27.2698209" lon="151.2900621">
  <ele>373.07</ele>
  <time>2026-09-01T19:58:15Z</time>
  <course>0.59</course>
  <speed>25.49</speed>
  <fix>3d</fix>
</trkpt>
<trkpt lat="-27.2697317" lon="151.2900653">
  <ele>373.0</ele>
  <time>2026-09-01T19:58:15Z</time>
  <course>3.18</course>
  <speed>25.459075002835434</speed>
  <fix>3d</fix>
</trkpt>
<trkpt lat="-27.269775" lon="151.290063">
  <ele>373.08</ele>
  <time>2026-09-01T19:58:15Z</time>
  <course>1.56</course>
  <speed>25.48</speed>
  <fix>3d</fix>
</trkpt>
<trkpt lat="-27.2697088" lon="151.2900669">
  <ele>372.99</ele>
  <time>2026-09-01T19:58:15Z</time>
  <course>3.98</course>
  <speed>25.47171176030382</speed>
  <fix>3d</fix>
</trkpt>
<trkpt lat="-27.269775" lon="151.290063">
  <ele>373.08</ele>
  <time>2026-09-01T19:58:15Z</time>
  <course>1.56</course>
  <speed>25.48</speed>
  <fix>3d</fix>
</trkpt>
<trkpt lat="-27.2696859" lon="151.2900691">
  <ele>372.97</ele>
  <time>2026-09-01T19:58:15Z</time>
  <course>4.88</course>
  <speed>25.48292761830948</speed>
  <fix>3d</fix>
</trkpt>
<trkpt lat="-27.2697293" lon="151.2900651">
  <ele>373.07</ele>
  <time>2026-09-01T19:58:15Z</time>
  <course>3.17</course>
  <speed>25.48</speed>
  <fix>3d</fix>
</trkpt>
<trkpt lat="-27.2696631" lon="151.290072">
  <ele>372.93</ele>
  <time>2026-09-01T19:58:15Z</time>
  <course>6.04</course>
  <speed>25.51148956842779</speed>
  <fix>3d</fix>
</trkpt>
<trkpt lat="-27.2697293" lon="151.2900651">
  <ele>373.07</ele>
  <time>2026-09-01T19:58:15Z</time>
  <course>3.17</course>
  <speed>25.48</speed>
  <fix>3d</fix>
</trkpt>
<trkpt lat="-27.2696403" lon="151.2900756">
  <ele>372.87</ele>
  <time>2026-09-01T19:58:15Z</time>
  <course>7.67</course>
  <speed>25.548254343496737</speed>
  <fix>3d</fix>
</trkpt>
<trkpt lat="-27.2696837" lon="151.290069">
  <ele>373.03</ele>
  <time>2026-09-01T19:58:15Z</time>
  <course>5.6</course>
  <speed>25.5</speed>
  <fix>3d</fix>
</trkpt>
<trkpt lat="-27.2696179" lon="151.29008">
  <ele>372.81</ele>
  <time>2026-09-01T19:58:15Z</time>
  <course>9.71</course>
  <speed>25.60693851283281</speed>
  <fix>3d</fix>
</trkpt>
<trkpt lat="-27.2696837" lon="151.290069">
  <ele>373.03</ele>
  <time>2026-09-01T19:58:15Z</time>
  <course>5.6</course>
  <speed>25.5</speed>
  <fix>3d</fix>
</trkpt>
<trkpt lat="-27.2695953" lon="151.2900855">
  <ele>372.75</ele>
  <time>2026-09-01T19:58:15Z</time>
  <course>12.13</course>
  <speed>25.6827588081966</speed>
  <fix>3d</fix>
</trkpt>
<trkpt lat="-27.2696382" lon="151.2900755">
  <ele>372.94</ele>
  <time>2026-09-01T19:58:15Z</time>
  <course>9.03</course>
  <speed>25.56</speed>
  <fix>3d</fix>
</trkpt>
<trkpt lat="-27.269573" lon="151.2900922">
  <ele>372.7</ele>
  <time>2026-09-01T19:58:15Z</time>
  <course>14.68</course>
  <speed>25.756802984842665</speed>
  <fix>3d</fix>
</trkpt>
<trkpt lat="-27.2696382" lon="151.2900755">
  <ele>372.94</ele>
  <time>2026-09-01T19:58:15Z</time>
  <course>9.03</course>
  <speed>25.56</speed>
  <fix>3d</fix>
</trkpt>
<trkpt lat="-27.2695508" lon="151.2901">
  <ele>372.65</ele>
  <time>2026-09-01T19:58:15Z</time>
  <course>17.3</course>
  <speed>25.8335150531243</speed>
  <fix>3d</fix>
</trkpt>
<trkpt lat="-27.269593" lon="151.2900855">
  <ele>372.83</ele>
  <time>2026-09-01T19:58:15Z</time>
  <course>13.53</course>
  <speed>25.69</speed>
  <fix>3d</fix>
</trkpt>
<trkpt lat="-27.2695288" lon="151.2901091">
  <ele>372.6</ele>
  <time>2026-09-01T19:58:15Z</time>
  <course>19.98</course>
  <speed>25.910223850827688</speed>
  <fix>3d</fix>
</trkpt>
<trkpt lat="-27.269593" lon="151.2900855">
  <ele>372.83</ele>
  <time>2026-09-01T19:58:15Z</time>
  <course>13.53</course>
  <speed>25.69</speed>
  <fix>3d</fix>
</trkpt>
<trkpt lat="-27.2695073" lon="151.2901192">
  <ele>372.56</ele>
  <time>2026-09-01T19:58:15Z</time>
  <course>22.56</course>
  <speed>25.97700521615223</speed>
  <fix>3d</fix>
</trkpt>
<trkpt lat="-27.2695486" lon="151.2901">
  <ele>372.72</ele>
  <time>2026-09-01T19:58:15Z</time>
  <course>18.71</course>
  <speed>25.84</speed>
  <fix>3d</fix>
</trkpt>
<trkpt lat="-27.2694862" lon="151.2901305">
  <ele>372.53</ele>
  <time>2026-09-01T19:58:15Z</time>
  <course>25.09</course>
  <speed>26.032696748512244</speed>
  <fix>3d</fix>
</trkpt>
<trkpt lat="-27.2695486" lon="151.2901">
  <ele>372.72</ele>
  <time>2026-09-01T19:58:15Z</time>
  <course>18.71</course>
  <speed>25.84</speed>
  <fix>3d</fix>
</trkpt>
<trkpt lat="-27.2694655" lon="151.2901428">
  <ele>372.5</ele>
  <time>2026-09-01T19:58:15Z</time>
  <course>27.6</course>
  <speed>26.087368590948376</speed>
  <fix>3d</fix>
</trkpt>
<trkpt lat="-27.2695053" lon="151.290119">
  <ele>372.64</ele>
  <time>2026-09-01T19:58:15Z</time>
  <course>24.03</course>
  <speed>25.99</speed>
  <fix>3d</fix>
</trkpt>
<trkpt lat="-27.2694452" lon="151.2901561">
  <ele>372.46</ele>
  <time>2026-09-01T19:58:15Z</time>
  <course>30.11</course>
  <speed>26.13001722157871</speed>
  <fix>3d</fix>
</trkpt>
<trkpt lat="-27.2695053" lon="151.290119">
  <ele>372.64</ele>
  <time>2026-09-01T19:58:15Z</time>
  <course>24.03</course>
  <speed>25.99</speed>
  <fix>3d</fix>
</trkpt>
<trkpt lat="-27.2694255" lon="151.2901705">
  <ele>372.42</ele>
  <time>2026-09-01T19:58:15Z</time>
  <course>32.57</course>
  <speed>26.181371239872064</speed>
  <fix>3d</fix>
</trkpt>
<trkpt lat="-27.2694635" lon="151.2901427">
  <ele>372.56</ele>
  <time>2026-09-01T19:58:15Z</time>
  <course>29.22</course>
  <speed>26.1</speed>
  <fix>3d</fix>
</trkpt>
<trkpt lat="-27.2694063" lon="151.2901858">
  <ele>372.37</ele>
  <time>2026-09-01T19:58:15Z</time>
  <course>35.01</course>
  <speed>26.224019524092792</speed>
  <fix>3d</fix>
</trkpt>
<trkpt lat="-27.2694635" lon="151.2901427">
  <ele>372.56</ele>
  <time>2026-09-01T19:58:15Z</time>
  <course>29.22</course>
  <speed>26.1</speed>
  <fix>3d</fix>
</trkpt>
<trkpt lat="-27.2693877" lon="151.2902021">
  <ele>372.31</ele>
  <time>2026-09-01T19:58:15Z</time>
  <course>37.53</course>
  <speed>26.264700645543247</speed>
  <fix>3d</fix>
</trkpt>
<trkpt lat="-27.2694235" lon="151.2901704">
  <ele>372.49</ele>
  <time>2026-09-01T19:58:15Z</time>
  <course>34.27</course>
  <speed>26.2</speed>
  <fix>3d</fix>
</trkpt>
<trkpt lat="-27.2693697" lon="151.2902193">
  <ele>372.25</ele>
  <time>2026-09-01T19:58:15Z</time>
  <course>40.08</course>
  <speed>26.30444259055873</speed>
  <fix>3d</fix>
</trkpt>
<trkpt lat="-27.2694235" lon="151.2901704">
  <ele>372.49</ele>
  <time>2026-09-01T19:58:15Z</time>
  <course>34.27</course>
  <speed>26.2</speed>
  <fix>3d</fix>
</trkpt>
<trkpt lat="-27.2693524" lon="151.2902375">
  <ele>372.18</ele>
  <time>2026-09-01T19:58:15Z</time>
  <course>42.66</course>
  <speed>26.34744010335729</speed>
  <fix>3d</fix>
</trkpt>
<trkpt lat="-27.2693857" lon="151.2902023">
  <ele>372.39</ele>
  <time>2026-09-01T19:58:15Z</time>
  <course>39.35</course>
  <speed>26.29</speed>
  <fix>3d</fix>
</trkpt>
<trkpt lat="-27.2693357" lon="151.2902567">
  <ele>372.1</ele>
  <time>2026-09-01T19:58:15Z</time>
  <course>45.27</course>
  <speed>26.381148572418148</speed>
  <fix>3d</fix>
</trkpt>
<trkpt lat="-27.2693857" lon="151.2902023">
  <ele>372.39</ele>
  <time>2026-09-01T19:58:15Z</time>
  <course>39.35</course>
  <speed>26.29</speed>
  <fix>3d</fix>
</trkpt>
<trkpt lat="-27.2693199" lon="151.2902766">
  <ele>372.02</ele>
  <time>2026-09-01T19:58:15Z</time>
  <course>47.96</course>
  <speed>26.406751030749692</speed>
  <fix>3d</fix>
</trkpt>
<trkpt lat="-27.2693505" lon="151.2902379">
  <ele>372.25</ele>
  <time>2026-09-01T19:58:15Z</time>
  <course>44.52</course>
  <speed>26.37</speed>
  <fix>3d</fix>
</trkpt>
<trkpt lat="-27.269305" lon="151.2902973">
  <ele>371.93</ele>
  <time>2026-09-01T19:58:15Z</time>
  <course>50.69</course>
  <speed>26.43529837168478</speed>
  <fix>3d</fix>
</trkpt>
<trkpt lat="-27.2693505" lon="151.2902379">
  <ele>372.25</ele>
  <time>2026-09-01T19:58:15Z</time>
  <course>44.52</course>
  <speed>26.37</speed>
  <fix>3d</fix>
</trkpt>
<trkpt lat="-27.2692909" lon="151.2903189">
  <ele>371.84</ele>
  <time>2026-09-01T19:58:15Z</time>
  <course>53.35</course>
  <speed>26.458155642447945</speed>
  <fix>3d</fix>
</trkpt>
<trkpt lat="-27.2693183" lon="151.290277">
  <ele>372.09</ele>
  <time>2026-09-01T19:58:15Z</time>
  <course>49.81</course>
  <speed>26.44</speed>
  <fix>3d</fix>
</trkpt>
<trkpt lat="-27.2692777" lon="151.2903411">
  <ele>371.74</ele>
  <time>2026-09-01T19:58:15Z</time>
  <course>56.1</course>
  <speed>26.478748082188478</speed>
  <fix>3d</fix>
</trkpt>
<trkpt lat="-27.2693183" lon="151.290277">
  <ele>372.09</ele>
  <time>2026-09-01T19:58:15Z</time>
  <course>49.81</course>
  <speed>26.44</speed>
  <fix>3d</fix>
</trkpt>
<trkpt lat="-27.2692655" lon="151.2903641">
  <ele>371.63</ele>
  <time>2026-09-01T19:58:15Z</time>
  <course>58.97</course>
  <speed>26.489984899957946</speed>
  <fix>3d</fix>
</trkpt>
<trkpt lat="-27.2692894" lon="151.2903194">
  <ele>371.91</ele>
  <time>2026-09-01T19:58:15Z</time>
  <course>55.2</course>
  <speed>26.48</speed>
  <fix>3d</fix>
</trkpt>
<trkpt lat="-27.2692544" lon="151.2903876">
  <ele>371.53</ele>
  <time>2026-09-01T19:58:15Z</time>
  <course>61.78</course>
  <speed>26.493042482885954</speed>
  <fix>3d</fix>
</trkpt>
<trkpt lat="-27.2692894" lon="151.2903194">
  <ele>371.91</ele>
  <time>2026-09-01T19:58:15Z</time>
  <course>55.2</course>
  <speed>26.48</speed>
  <fix>3d</fix>
</trkpt>
<trkpt lat="-27.2692442" lon="151.2904118">
  <ele>371.42</ele>
  <time>2026-09-01T19:58:15Z</time>
  <course>64.58</course>
  <speed>26.49298775147869</speed>
  <fix>3d</fix>
</trkpt>
<trkpt lat="-27.2692641" lon="151.2903648">
  <ele>371.7</ele>
  <time>2026-09-01T19:58:15Z</time>
  <course>60.73</course>
  <speed>26.51</speed>
  <fix>3d</fix>
</trkpt>
<trkpt lat="-27.2692351" lon="151.2904366">
  <ele>371.31</ele>
  <time>2026-09-01T19:58:15Z</time>
  <course>67.44</course>
  <speed>26.490092487569765</speed>
  <fix>3d</fix>
</trkpt>
<trkpt lat="-27.2692641" lon="151.2903648">
  <ele>371.7</ele>
  <time>2026-09-01T19:58:15Z</time>
  <course>60.73</course>
  <speed>26.51</speed>
  <fix>3d</fix>
</trkpt>
<trkpt lat="-27.2692271" lon="151.2904619">
  <ele>371.19</ele>
  <time>2026-09-01T19:58:15Z</time>
  <course>70.38</course>
  <speed>26.485439396015312</speed>
  <fix>3d</fix>
</trkpt>
<trkpt lat="-27.2692429" lon="151.2904128">
  <ele>371.48</ele>
  <time>2026-09-01T19:58:15Z</time>
  <course>66.38</course>
  <speed>26.52</speed>
  <fix>3d</fix>
</trkpt>
<trkpt lat="-27.2692203" lon="151.2904875">
  <ele>371.08</ele>
  <time>2026-09-01T19:58:15Z</time>
  <course>73.35</course>
  <speed>26.480638209831728</speed>
  <fix>3d</fix>
</trkpt>
<trkpt lat="-27.2692429" lon="151.2904128">
  <ele>371.48</ele>
  <time>2026-09-01T19:58:15Z</time>
  <course>66.38</course>
  <speed>26.52</speed>
  <fix>3d</fix>
</trkpt>
<trkpt lat="-27.2692147" lon="151.2905138">
  <ele>370.96</ele>
  <time>2026-09-01T19:58:15Z</time>
  <course>76.33</course>
  <speed>26.47132221858213</speed>
  <fix>3d</fix>
</trkpt>
<trkpt lat="-27.2692261" lon="151.2904629">
  <ele>371.25</ele>
  <time>2026-09-01T19:58:15Z</time>
  <course>72.13</course>
  <speed>26.51</speed>
  <fix>3d</fix>
</trkpt>
<trkpt lat="-27.2692103" lon="151.2905401">
  <ele>370.85</ele>
  <time>2026-09-01T19:58:15Z</time>
  <course>79.35</course>
  <speed>26.46113565212196</speed>
  <fix>3d</fix>
</trkpt>
<trkpt lat="-27.2692261" lon="151.2904629">
  <ele>371.25</ele>
  <time>2026-09-01T19:58:15Z</time>
  <course>72.13</course>
  <speed>26.51</speed>
  <fix>3d</fix>
</trkpt>
<trkpt lat="-27.2692071" lon="151.2905665">
  <ele>370.74</ele>
  <time>2026-09-01T19:58:15Z</time>
  <course>82.38</course>
  <speed>26.441310481895563</speed>
  <fix>3d</fix>
</trkpt>
<trkpt lat="-27.2692138" lon="151.2905147">
  <ele>371.02</ele>
  <time>2026-09-01T19:58:15Z</time>
  <course>78.03</course>
  <speed>26.5</speed>
  <fix>3d</fix>
</trkpt>
<trkpt lat="-27.2692052" lon="151.290593">
  <ele>370.63</ele>
  <time>2026-09-01T19:58:15Z</time>
  <course>85.45</course>
  <speed>26.413004372846345</speed>
  <fix>3d</fix>
</trkpt>
<trkpt lat="-27.2692138" lon="151.2905147">
  <ele>371.02</ele>
  <time>2026-09-01T19:58:15Z</time>
  <course>78.03</course>
  <speed>26.5</speed>
  <fix>3d</fix>
</trkpt>
<trkpt lat="-27.2692046" lon="151.2906195">
  <ele>370.52</ele>
  <time>2026-09-01T19:58:15Z</time>
  <course>88.52</course>
  <speed>26.390121257773714</speed>
  <fix>3d</fix>
</trkpt>
<trkpt lat="-27.2692064" lon="151.2905675">
  <ele>370.79</ele>
  <time>2026-09-01T19:58:15Z</time>
  <course>84.04</course>
  <speed>26.47</speed>
  <fix>3d</fix>
</trkpt>
<trkpt lat="-27.2692052" lon="151.290646">
  <ele>370.41</ele>
  <time>2026-09-01T19:58:15Z</time>
  <course>91.59</course>
  <speed>26.352724716810595</speed>
  <fix>3d</fix>
</trkpt>
<trkpt lat="-27.2692064" lon="151.2905675">
  <ele>370.79</ele>
  <time>2026-09-01T19:58:15Z</time>
  <course>84.04</course>
  <speed>26.47</speed>
  <fix>3d</fix>
</trkpt>
<trkpt lat="-27.2692071" lon="151.2906724">
  <ele>370.31</ele>
  <time>2026-09-01T19:58:15Z</time>
  <course>94.74</course>
  <speed>26.32135444843217</speed>
  <fix>3d</fix>
</trkpt>
<trkpt lat="-27.269204" lon="151.2906209">
  <ele>370.57</ele>
  <time>2026-09-01T19:58:15Z</time>
  <course>90.15</course>
  <speed>26.44</speed>
  <fix>3d</fix>
</trkpt>
<trkpt lat="-27.2692103" lon="151.2906986">
  <ele>370.21</ele>
  <time>2026-09-01T19:58:15Z</time>
  <course>97.9</course>
  <speed>26.28082951506668</speed>
  <fix>3d</fix>
</trkpt>
<trkpt lat="-27.269204" lon="151.2906209">
  <ele>370.57</ele>
  <time>2026-09-01T19:58:15Z</time>
  <course>90.15</course>
  <speed>26.44</speed>
  <fix>3d</fix>
</trkpt>
<trkpt lat="-27.2692147" lon="151.2907246">
  <ele>370.11</ele>
  <time>2026-09-01T19:58:15Z</time>
  <course>100.98</course>
  <speed>26.245374830624918</speed>
  <fix>3d</fix>
</trkpt>
<trkpt lat="-27.2692067" lon="151.2906742">
  <ele>370.34</ele>
  <time>2026-09-01T19:58:15Z</time>
  <course>96.35</course>
  <speed>26.39</speed>
  <fix>3d</fix>
</trkpt>
<trkpt lat="-27.2692203" lon="151.2907502">
  <ele>370.01</ele>
  <time>2026-09-01T19:58:15Z</time>
  <course>104.09</course>
  <speed>26.21268776756783</speed>
  <fix>3d</fix>
</trkpt>
<trkpt lat="-27.2692067" lon="151.2906742">
  <ele>370.34</ele>
  <time>2026-09-01T19:58:15Z</time>
  <course>96.35</course>
  <speed>26.39</speed>
  <fix>3d</fix>
</trkpt>
<trkpt lat="-27.2692272" lon="151.2907754">
  <ele>369.92</ele>
  <time>2026-09-01T19:58:15Z</time>
  <course>107.27</course>
  <speed>26.16865491384683</speed>
  <fix>3d</fix>
</trkpt>
<trkpt lat="-27.2692145" lon="151.2907268">
  <ele>370.14</ele>
  <time>2026-09-01T19:58:15Z</time>
  <course>102.61</course>
  <speed>26.33</speed>
  <fix>3d</fix>
</trkpt>
<trkpt lat="-27.2692353" lon="151.2908001">
  <ele>369.83</ele>
  <time>2026-09-01T19:58:15Z</time>
  <course>110.44</course>
  <speed>26.13129350032256</speed>
  <fix>3d</fix>
</trkpt>
<trkpt lat="-27.2692145" lon="151.2907268">
  <ele>370.14</ele>
  <time>2026-09-01T19:58:15Z</time>
  <course>102.61</course>
  <speed>26.33</speed>
  <fix>3d</fix>
</trkpt>
<trkpt lat="-27.2692445" lon="151.2908243">
  <ele>369.74</ele>
  <time>2026-09-01T19:58:15Z</time>
  <course>113.53</course>
  <speed>26.102423259153547</speed>
  <fix>3d</fix>
</trkpt>
<trkpt lat="-27.2692273" lon="151.290778">
  <ele>369.94</ele>
  <time>2026-09-01T19:58:15Z</time>
  <course>108.89</course>
  <speed>26.26</speed>
  <fix>3d</fix>
</trkpt>
<trkpt lat="-27.269255" lon="151.2908478">
  <ele>369.65</ele>
  <time>2026-09-01T19:58:15Z</time>
  <course>116.66</course>
  <speed>26.06262649849397</speed>
  <fix>3d</fix>
</trkpt>
<trkpt lat="-27.2692273" lon="151.290778">
  <ele>369.94</ele>
  <time>2026-09-01T19:58:15Z</time>
  <course>108.89</course>
  <speed>26.26</speed>
  <fix>3d</fix>
</trkpt>
<trkpt lat="-27.2692665" lon="151.2908707">
  <ele>369.55</ele>
  <time>2026-09-01T19:58:15Z</time>
  <course>119.79</course>
  <speed>26.024150322344823</speed>
  <fix>3d</fix>
</trkpt>
<trkpt lat="-27.2692449" lon="151.2908271">
  <ele>369.75</ele>
  <time>2026-09-01T19:58:15Z</time>
  <course>115.18</course>
  <speed>26.2</speed>
  <fix>3d</fix>
</trkpt>
<trkpt lat="-27.2692792" lon="151.2908927">
  <ele>369.47</ele>
  <time>2026-09-01T19:58:15Z</time>
  <course>122.93</course>
  <speed>25.988260811374047</speed>
  <fix>3d</fix>
</trkpt>
<trkpt lat="-27.2692449" lon="151.2908271">
  <ele>369.75</ele>
  <time>2026-09-01T19:58:15Z</time>
  <course>115.18</course>
  <speed>26.2</speed>
  <fix>3d</fix>
</trkpt>
<trkpt lat="-27.2692928" lon="151.290914">
  <ele>369.38</ele>
  <time>2026-09-01T19:58:15Z</time>
  <course>125.96</course>
  <speed>25.94263864760098</speed>
  <fix>3d</fix>
</trkpt>
<trkpt lat="-27.2692672" lon="151.2908736">
  <ele>369.57</ele>
  <time>2026-09-01T19:58:15Z</time>
  <course>121.46</course>
  <speed>26.13</speed>
  <fix>3d</fix>
</trkpt>
<trkpt lat="-27.2693074" lon="151.2909343">
  <ele>369.29</ele>
  <time>2026-09-01T19:58:15Z</time>
  <course>128.99</course>
  <speed>25.90159261512697</speed>
  <fix>3d</fix>
</trkpt>
<trkpt lat="-27.2692672" lon="151.2908736">
  <ele>369.57</ele>
  <time>2026-09-01T19:58:15Z</time>
  <course>121.46</course>
  <speed>26.13</speed>
  <fix>3d</fix>
</trkpt>
<trkpt lat="-27.2693229" lon="151.2909538">
  <ele>369.21</ele>
  <time>2026-09-01T19:58:15Z</time>
  <course>131.92</course>
  <speed>25.857706781538074</speed>
  <fix>3d</fix>
</trkpt>
<trkpt lat="-27.2692938" lon="151.290917">
  <ele>369.39</ele>
  <time>2026-09-01T19:58:15Z</time>
  <course>127.67</course>
  <speed>26.05</speed>
  <fix>3d</fix>
</trkpt>
<trkpt lat="-27.2693393" lon="151.2909723">
  <ele>369.13</ele>
  <time>2026-09-01T19:58:15Z</time>
  <course>134.8</course>
  <speed>25.806979676048883</speed>
  <fix>3d</fix>
</trkpt>
<trkpt lat="-27.2692938" lon="151.290917">
  <ele>369.39</ele>
  <time>2026-09-01T19:58:15Z</time>
  <course>127.67</course>
  <speed>26.05</speed>
  <fix>3d</fix>
</trkpt>
<trkpt lat="-27.2693566" lon="151.2909899">
  <ele>369.04</ele>
  <time>2026-09-01T19:58:15Z</time>
  <course>137.65</course>
  <speed>25.75964479568769</speed>
  <fix>3d</fix>
</trkpt>
<trkpt lat="-27.2693243" lon="151.2909568">
  <ele>369.21</ele>
  <time>2026-09-01T19:58:15Z</time>
  <course>133.75</course>
  <speed>25.96</speed>
  <fix>3d</fix>
</trkpt>
<trkpt lat="-27.2693745" lon="151.2910063">
  <ele>368.95</ele>
  <time>2026-09-01T19:58:15Z</time>
  <course>140.41</course>
  <speed>25.70175091311874</speed>
  <fix>3d</fix>
</trkpt>
<trkpt lat="-27.2693243" lon="151.2909568">
  <ele>369.21</ele>
  <time>2026-09-01T19:58:15Z</time>
  <course>133.75</course>
  <speed>25.96</speed>
  <fix>3d</fix>
</trkpt>
<trkpt lat="-27.269393" lon="151.2910218">
  <ele>368.86</ele>
  <time>2026-09-01T19:58:15Z</time>
  <course>143.03</course>
  <speed>25.646149808499523</speed>
  <fix>3d</fix>
</trkpt>
<trkpt lat="-27.2693582" lon="151.2909927">
  <ele>369.04</ele>
  <time>2026-09-01T19:58:15Z</time>
  <course>139.6</course>
  <speed>25.86</speed>
  <fix>3d</fix>
</trkpt>
<trkpt lat="-27.2694122" lon="151.2910362">
  <ele>368.77</ele>
  <time>2026-09-01T19:58:15Z</time>
  <course>145.54</course>
  <speed>25.588515001851906</speed>
  <fix>3d</fix>
</trkpt>
<trkpt lat="-27.2693582" lon="151.2909927">
  <ele>369.04</ele>
  <time>2026-09-01T19:58:15Z</time>
  <course>139.6</course>
  <speed>25.86</speed>
  <fix>3d</fix>
</trkpt>
<trkpt lat="-27.2694318" lon="151.2910497">
  <ele>368.67</ele>
  <time>2026-09-01T19:58:15Z</time>
  <course>147.93</course>
  <speed>25.525113124137178</speed>
  <fix>3d</fix>
</trkpt>
<trkpt lat="-27.2693949" lon="151.2910245">
  <ele>368.86</ele>
  <time>2026-09-01T19:58:15Z</time>
  <course>145.13</course>
  <speed>25.75</speed>
  <fix>3d</fix>
</trkpt>
<trkpt lat="-27.2694519" lon="151.2910621">
  <ele>368.57</ele>
  <time>2026-09-01T19:58:15Z</time>
  <course>150.29</course>
  <speed>25.452962499481274</speed>
  <fix>3d</fix>
</trkpt>
<trkpt lat="-27.2693949" lon="151.2910245">
  <ele>368.86</ele>
  <time>2026-09-01T19:58:15Z</time>
  <course>145.13</course>
  <speed>25.75</speed>
  <fix>3d</fix>
</trkpt>
<trkpt lat="-27.2694723" lon="151.2910735">
  <ele>368.45</ele>
  <time>2026-09-01T19:58:15Z</time>
  <course>152.53</course>
  <speed>25.393676378185177</speed>
  <fix>3d</fix>
</trkpt>
<trkpt lat="-27.2694339" lon="151.2910522">
  <ele>368.66</ele>
  <time>2026-09-01T19:58:15Z</time>
  <course>150.28</course>
  <speed>25.63</speed>
  <fix>3d</fix>
</trkpt>
<trkpt lat="-27.2694931" lon="151.291084">
  <ele>368.33</ele>
  <time>2026-09-01T19:58:15Z</time>
  <course>154.61</course>
  <speed>25.3270329884888</speed>
  <fix>3d</fix>
</trkpt>
<trkpt lat="-27.2694339" lon="151.2910522">
  <ele>368.66</ele>
  <time>2026-09-01T19:58:15Z</time>
  <course>150.28</course>
  <speed>25.63</speed>
  <fix>3d</fix>
</trkpt>
<trkpt lat="-27.2695142" lon="151.2910937">
  <ele>368.2</ele>
  <time>2026-09-01T19:58:15Z</time>
  <course>156.62</course>
  <speed>25.255256878519372</speed>
  <fix>3d</fix>
</trkpt>
<trkpt lat="-27.2694747" lon="151.2910759">
  <ele>368.45</ele>
  <time>2026-09-01T19:58:15Z</time>
  <course>155.03</course>
  <speed>25.49</speed>
  <fix>3d</fix>
</trkpt>
<trkpt lat="-27.2695355" lon="151.2911024">
  <ele>368.06</ele>
  <time>2026-09-01T19:58:15Z</time>
  <course>158.55</course>
  <speed>25.17847493395897</speed>
  <fix>3d</fix>
</trkpt>
<trkpt lat="-27.2694747" lon="151.2910759">
  <ele>368.45</ele>
  <time>2026-09-01T19:58:15Z</time>
  <course>155.03</course>
  <speed>25.49</speed>
  <fix>3d</fix>
</trkpt>
<trkpt lat="-27.269557" lon="151.2911103">
  <ele>367.9</ele>
  <time>2026-09-01T19:58:15Z</time>
  <course>160.33</course>
  <speed>25.114356452037544</speed>
  <fix>3d</fix>
</trkpt>
<trkpt lat="-27.2695169" lon="151.2910958">
  <ele>368.2</ele>
  <time>2026-09-01T19:58:15Z</time>
  <course>159.34</course>
  <speed>25.35</speed>
  <fix>3d</fix>
</trkpt>
<trkpt lat="-27.2695787" lon="151.2911174">
  <ele>367.73</ele>
  <time>2026-09-01T19:58:15Z</time>
  <course>162.06</course>
  <speed>25.03656925379354</speed>
  <fix>3d</fix>
</trkpt>
<trkpt lat="-27.2695169" lon="151.2910958">
  <ele>368.2</ele>
  <time>2026-09-01T19:58:15Z</time>
  <course>159.34</course>
  <speed>25.35</speed>
  <fix>3d</fix>
</trkpt>
<trkpt lat="-27.2696005" lon="151.2911238">
  <ele>367.55</ele>
  <time>2026-09-01T19:58:15Z</time>
  <course>163.7</course>
  <speed>24.97519169095605</speed>
  <fix>3d</fix>
</trkpt>
<trkpt lat="-27.26956" lon="151.2911122">
  <ele>367.9</ele>
  <time>2026-09-01T19:58:15Z</time>
  <course>163.2</course>
  <speed>25.2</speed>
  <fix>3d</fix>
</trkpt>
<trkpt lat="-27.2696224" lon="151.2911294">
  <ele>367.35</ele>
  <time>2026-09-01T19:58:15Z</time>
  <course>165.27</course>
  <speed>24.911820487471406</speed>
  <fix>3d</fix>
</trkpt>
<trkpt lat="-27.26956" lon="151.2911122">
  <ele>367.9</ele>
  <time>2026-09-01T19:58:15Z</time>
  <course>163.2</course>
  <speed>25.2</speed>
  <fix>3d</fix>
</trkpt>
<trkpt lat="-27.2696443" lon="151.2911343">
  <ele>367.14</ele>
  <time>2026-09-01T19:58:15Z</time>
  <course>166.82</course>
  <speed>24.853452476466927</speed>
  <fix>3d</fix>
</trkpt>
<trkpt lat="-27.2696036" lon="151.2911254">
  <ele>367.55</ele>
  <time>2026-09-01T19:58:15Z</time>
  <course>166.67</course>
  <speed>25.06</speed>
  <fix>3d</fix>
</trkpt>
<trkpt lat="-27.2696663" lon="151.2911386">
  <ele>366.92</ele>
  <time>2026-09-01T19:58:15Z</time>
  <course>168.27</course>
  <speed>24.797558347547042</speed>
  <fix>3d</fix>
</trkpt>
<trkpt lat="-27.2696036" lon="151.2911254">
  <ele>367.55</ele>
  <time>2026-09-01T19:58:15Z</time>
  <course>166.67</course>
  <speed>25.06</speed>
  <fix>3d</fix>
</trkpt>
<trkpt lat="-27.2696884" lon="151.2911423">
  <ele>366.68</ele>
  <time>2026-09-01T19:58:15Z</time>
  <course>169.64</course>
  <speed>24.750353532828576</speed>
  <fix>3d</fix>
</trkpt>
<trkpt lat="-27.2696475" lon="151.2911356">
  <ele>367.15</ele>
  <time>2026-09-01T19:58:15Z</time>
  <course>169.82</course>
  <speed>24.93</speed>
  <fix>3d</fix>
</trkpt>
<trkpt lat="-27.2697105" lon="151.2911453">
  <ele>366.43</ele>
  <time>2026-09-01T19:58:15Z</time>
  <course>170.99</course>
  <speed>24.7025524996912</speed>
  <fix>3d</fix>
</trkpt>
<trkpt lat="-27.2696475" lon="151.2911356">
  <ele>367.15</ele>
  <time>2026-09-01T19:58:15Z</time>
  <course>169.82</course>
  <speed>24.93</speed>
  <fix>3d</fix>
</trkpt>
<trkpt lat="-27.2697326" lon="151.2911477">
  <ele>366.16</ele>
  <time>2026-09-01T19:58:15Z</time>
  <course>172.37</course>
  <speed>24.66869473644684</speed>
  <fix>3d</fix>
</trkpt>
<trkpt lat="-27.2696917" lon="151.2911432">
  <ele>366.69</ele>
  <time>2026-09-01T19:58:15Z</time>
  <course>172.69</course>
  <speed>24.82</speed>
  <fix>3d</fix>
</trkpt>
<trkpt lat="-27.2697547" lon="151.2911496">
  <ele>365.89</ele>
  <time>2026-09-01T19:58:15Z</time>
  <course>173.7</course>
  <speed>24.648782931414686</speed>
  <fix>3d</fix>
</trkpt>
<trkpt lat="-27.2696917" lon="151.2911432">
  <ele>366.69</ele>
  <time>2026-09-01T19:58:15Z</time>
  <course>172.69</course>
  <speed>24.82</speed>
  <fix>3d</fix>
</trkpt>
<trkpt lat="-27.2697769" lon="151.291151">
  <ele>365.6</ele>
  <time>2026-09-01T19:58:15Z</time>
  <course>175.02</course>
  <speed>24.621137260492254</speed>
  <fix>3d</fix>
</trkpt>
<trkpt lat="-27.2697359" lon="151.2911484">
  <ele>366.18</ele>
  <time>2026-09-01T19:58:15Z</time>
  <course>175.34</course>
  <speed>24.73</speed>
  <fix>3d</fix>
</trkpt>
<trkpt lat="-27.2697988" lon="151.2911518">
  <ele>365.32</ele>
  <time>2026-09-01T19:58:15Z</time>
  <course>176.3</course>
  <speed>24.615283869986143</speed>
  <fix>3d</fix>
</trkpt>
<trkpt lat="-27.2697359" lon="151.2911484">
  <ele>366.18</ele>
  <time>2026-09-01T19:58:15Z</time>
  <course>175.34</course>
  <speed>24.73</speed>
  <fix>3d</fix>
</trkpt>
<trkpt lat="-27.269821" lon="151.2911521">
  <ele>365.02</ele>
  <time>2026-09-01T19:58:15Z</time>
  <course>177.54</course>
  <speed>24.61000203169435</speed>
  <fix>3d</fix>
</trkpt>
<trkpt lat="-27.2697802" lon="151.2911514">
  <ele>365.63</ele>
  <time>2026-09-01T19:58:15Z</time>
  <course>177.84</course>
  <speed>24.68</speed>
  <fix>3d</fix>
</trkpt>
<trkpt lat="-27.2698431" lon="151.2911518">
  <ele>364.73</ele>
  <time>2026-09-01T19:58:15Z</time>
  <course>178.79</course>
  <speed>24.614487603848264</speed>
  <fix>3d</fix>
</trkpt>
<trkpt lat="-27.2697802" lon="151.2911514">
  <ele>365.63</ele>
  <time>2026-09-01T19:58:15Z</time>
  <course>177.84</course>
  <speed>24.68</speed>
  <fix>3d</fix>
</trkpt>
<trkpt lat="-27.2698653" lon="151.2911511">
  <ele>364.44</ele>
  <time>2026-09-01T19:58:15Z</time>
  <course>179.95</course>
  <speed>24.627945509116266</speed>
  <fix>3d</fix>
</trkpt>
<trkpt lat="-27.2698245" lon="151.2911522">
  <ele>365.06</ele>
  <time>2026-09-01T19:58:15Z</time>
  <course>180.21</course>
  <speed>24.66</speed>
  <fix>3d</fix>
</trkpt>
<trkpt lat="-27.2698878" lon="151.2911499">
  <ele>364.14</ele>
  <time>2026-09-01T19:58:15Z</time>
  <course>181.12</course>
  <speed>24.650359023754604</speed>
  <fix>3d</fix>
</trkpt>
<trkpt lat="-27.2698245" lon="151.2911522">
  <ele>365.06</ele>
  <time>2026-09-01T19:58:15Z</time>
  <course>180.21</course>
  <speed>24.66</speed>
  <fix>3d</fix>
</trkpt>
<trkpt lat="-27.26991" lon="151.2911483">
  <ele>363.86</ele>
  <time>2026-09-01T19:58:15Z</time>
  <course>182.2</course>
  <speed>24.678689187231967</speed>
  <fix>3d</fix>
</trkpt>
<trkpt lat="-27.2698688" lon="151.2911511">
  <ele>364.48</ele>
  <time>2026-09-01T19:58:15Z</time>
  <course>182.44</course>
  <speed>24.67</speed>
  <fix>3d</fix>
</trkpt>
<trkpt lat="-27.2699321" lon="151.2911463">
  <ele>363.58</ele>
  <time>2026-09-01T19:58:15Z</time>
  <course>183.23</course>
  <speed>24.702682040620612</speed>
  <fix>3d</fix>
</trkpt>
<trkpt lat="-27.2698688" lon="151.2911511">
  <ele>364.48</ele>
  <time>2026-09-01T19:58:15Z</time>
  <course>182.44</course>
  <speed>24.67</speed>
  <fix>3d</fix>
</trkpt>
<trkpt lat="-27.2699542" lon="151.2911438">
  <ele>363.31</ele>
  <time>2026-09-01T19:58:15Z</time>
  <course>184.17</course>
  <speed>24.740187954015223</speed>
  <fix>3d</fix>
</trkpt>
<trkpt lat="-27.269913" lon="151.291148">
  <ele>363.92</ele>
  <time>2026-09-01T19:58:15Z</time>
  <course>184.5</course>
  <speed>24.7</speed>
  <fix>3d</fix>
</trkpt>
<trkpt lat="-27.2699764" lon="151.2911409">
  <ele>363.04</ele>
  <time>2026-09-01T19:58:15Z</time>
  <course>185.09</course>
  <speed>24.772325284478242</speed>
  <fix>3d</fix>
</trkpt>
<trkpt lat="-27.269913" lon="151.291148">
  <ele>363.92</ele>
  <time>2026-09-01T19:58:15Z</time>
  <course>184.5</course>
  <speed>24.7</speed>
  <fix>3d</fix>
</trkpt>
<trkpt lat="-27.2699985" lon="151.2911377">
  <ele>362.78</ele>
  <time>2026-09-01T19:58:15Z</time>
  <course>185.96</course>
  <speed>24.81714326831354</speed>
  <fix>3d</fix>
</trkpt>
<trkpt lat="-27.2699574" lon="151.2911433">
  <ele>363.38</ele>
  <time>2026-09-01T19:58:15Z</time>
  <course>186.34</course>
  <speed>24.76</speed>
  <fix>3d</fix>
</trkpt>
<trkpt lat="-27.2700207" lon="151.2911341">
  <ele>362.54</ele>
  <time>2026-09-01T19:58:15Z</time>
  <course>186.77</course>
  <speed>24.86236111072317</speed>
  <fix>3d</fix>
</trkpt>
<trkpt lat="-27.2699574" lon="151.2911433">
  <ele>363.38</ele>
  <time>2026-09-01T19:58:15Z</time>
  <course>186.34</course>
  <speed>24.76</speed>
  <fix>3d</fix>
</trkpt>
<trkpt lat="-27.2700429" lon="151.2911302">
  <ele>362.3</ele>
  <time>2026-09-01T19:58:15Z</time>
  <course>187.51</course>
  <speed>24.908412233620993</speed>
  <fix>3d</fix>
</trkpt>
<trkpt lat="-27.2700017" lon="151.2911371">
  <ele>362.87</ele>
  <time>2026-09-01T19:58:15Z</time>
  <course>187.98</course>
  <speed>24.83</speed>
  <fix>3d</fix>
</trkpt>
<trkpt lat="-27.270065" lon="151.291126">
  <ele>362.08</ele>
  <time>2026-09-01T19:58:15Z</time>
  <course>188.25</course>
  <speed>24.943015054319318</speed>
  <fix>3d</fix>
</trkpt>
<trkpt lat="-27.2700017" lon="151.2911371">
  <ele>362.87</ele>
  <time>2026-09-01T19:58:16Z</time>
  <course>187.98</course>
  <speed>24.83</speed>
  <fix>3d</fix>
</trkpt>
<trkpt lat="-27.2700872" lon="151.2911215">
  <ele>361.88</ele>
  <time>2026-09-01T19:58:16Z</time>
  <course>188.92</course>
  <speed>24.994769452827526</speed>
  <fix>3d</fix>
</trkpt>
<trkpt lat="-27.2700458" lon="151.2911295">
  <ele>362.4</ele>
  <time>2026-09-01T19:58:16Z</time>
  <course>189.38</course>
  <speed>24.9</speed>
  <fix>3d</fix>
</trkpt>
<trkpt lat="-27.2701094" lon="151.2911168">
  <ele>361.68</ele>
  <time>2026-09-01T19:58:16Z</time>
  <course>189.48</course>
  <speed>25.03701659543325</speed>
  <fix>3d</fix>
</trkpt>
<trkpt lat="-27.2700458" lon="151.2911295">
  <ele>362.4</ele>
  <time>2026-09-01T19:58:16Z</time>
  <course>189.38</course>
  <speed>24.9</speed>
  <fix>3d</fix>
</trkpt>
<trkpt lat="-27.2701316" lon="151.2911119">
  <ele>361.5</ele>
  <time>2026-09-01T19:58:16Z</time>
  <course>190.04</course>
  <speed>25.085216762069248</speed>
  <fix>3d</fix>
</trkpt>
<trkpt lat="-27.2700899" lon="151.2911207">
  <ele>361.98</ele>
  <time>2026-09-01T19:58:16Z</time>
  <course>190.55</course>
  <speed>24.98</speed>
  <fix>3d</fix>
</trkpt>
<trkpt lat="-27.2701537" lon="151.2911068">
  <ele>361.33</ele>
  <time>2026-09-01T19:58:16Z</time>
  <course>190.51</course>
  <speed>25.123096942853202</speed>
  <fix>3d</fix>
</trkpt>
<trkpt lat="-27.2700899" lon="151.2911207">
  <ele>361.98</ele>
  <time>2026-09-01T19:58:16Z</time>
  <course>190.55</course>
  <speed>24.98</speed>
  <fix>3d</fix>
</trkpt>
<trkpt lat="-27.2701759" lon="151.2911015">
  <ele>361.17</ele>
  <time>2026-09-01T19:58:16Z</time>
  <course>190.96</course>
  <speed>25.165843915911104</speed>
  <fix>3d</fix>
</trkpt>
<trkpt lat="-27.270134" lon="151.291111">
  <ele>361.62</ele>
  <time>2026-09-01T19:58:16Z</time>
  <course>191.51</course>
  <speed>25.06</speed>
  <fix>3d</fix>
</trkpt>
<trkpt lat="-27.2701981" lon="151.291096">
  <ele>361.03</ele>
  <time>2026-09-01T19:58:16Z</time>
  <course>191.36</course>
  <speed>25.195477768837804</speed>
  <fix>3d</fix>
</trkpt>
<trkpt lat="-27.270134" lon="151.291111">
  <ele>361.62</ele>
  <time>2026-09-01T19:58:16Z</time>
  <course>191.51</course>
  <speed>25.06</speed>
  <fix>3d</fix>
</trkpt>
<trkpt lat="-27.2702203" lon="151.2910904">
  <ele>360.89</ele>
  <time>2026-09-01T19:58:16Z</time>
  <course>191.72</course>
  <speed>25.23122668440835</speed>
  <fix>3d</fix>
</trkpt>
<trkpt lat="-27.2701781" lon="151.2911006">
  <ele>361.31</ele>
  <time>2026-09-01T19:58:16Z</time>
  <course>192.26</course>
  <speed>25.12</speed>
  <fix>3d</fix>
</trkpt>
<trkpt lat="-27.2702424" lon="151.2910847">
  <ele>360.77</ele>
  <time>2026-09-01T19:58:16Z</time>
  <course>192.05</course>
  <speed>25.257751285496497</speed>
  <fix>3d</fix>
</trkpt>
<trkpt lat="-27.2701781" lon="151.2911006">
  <ele>361.31</ele>
  <time>2026-09-01T19:58:16Z</time>
  <course>192.26</course>
  <speed>25.12</speed>
  <fix>3d</fix>
</trkpt>
<trkpt lat="-27.2702644" lon="151.291079">
  <ele>360.67</ele>
  <time>2026-09-01T19:58:16Z</time>
  <course>192.36</course>
  <speed>25.287740112552566</speed>
  <fix>3d</fix>
</trkpt>
<trkpt lat="-27.2702222" lon="151.2910895">
  <ele>361.05</ele>
  <time>2026-09-01T19:58:16Z</time>
  <course>192.84</course>
  <speed>25.18</speed>
  <fix>3d</fix>
</trkpt>
<trkpt lat="-27.2702865" lon="151.2910731">
  <ele>360.57</ele>
  <time>2026-09-01T19:58:16Z</time>
  <course>192.59</course>
  <speed>25.31801729993879</speed>
  <fix>3d</fix>
</trkpt>
<trkpt lat="-27.2702222" lon="151.2910895">
  <ele>361.05</ele>
  <time>2026-09-01T19:58:16Z</time>
  <course>192.84</course>
  <speed>25.18</speed>
  <fix>3d</fix>
</trkpt>
<trkpt lat="-27.2703087" lon="151.2910671">
  <ele>360.48</ele>
  <time>2026-09-01T19:58:16Z</time>
  <course>192.81</course>
  <speed>25.334200204466686</speed>
  <fix>3d</fix>
</trkpt>
<trkpt lat="-27.2702664" lon="151.2910779">
  <ele>360.83</ele>
  <time>2026-09-01T19:58:16Z</time>
  <course>193.27</course>
  <speed>25.24</speed>
  <fix>3d</fix>
</trkpt>
<trkpt lat="-27.2703308" lon="151.291061">
  <ele>360.41</ele>
  <time>2026-09-01T19:58:16Z</time>
  <course>192.96</course>
  <speed>25.35559307135213</speed>
  <fix>3d</fix>
</trkpt>
<trkpt lat="-27.2702664" lon="151.2910779">
  <ele>360.83</ele>
  <time>2026-09-01T19:58:16Z</time>
  <course>193.27</course>
  <speed>25.24</speed>
  <fix>3d</fix>
</trkpt>
<trkpt lat="-27.2703531" lon="151.2910549">
  <ele>360.35</ele>
  <time>2026-09-01T19:58:16Z</time>
  <course>193.1</course>
  <speed>25.377070358888947</speed>
  <fix>3d</fix>
</trkpt>
<trkpt lat="-27.2703105" lon="151.291066">
  <ele>360.66</ele>
  <time>2026-09-01T19:58:16Z</time>
  <course>193.58</course>
  <speed>25.29</speed>
  <fix>3d</fix>
</trkpt>
<trkpt lat="-27.2703753" lon="151.2910488">
  <ele>360.3</ele>
  <time>2026-09-01T19:58:16Z</time>
  <course>193.26</course>
  <speed>25.39388312172835</speed>
  <fix>3d</fix>
</trkpt>
<trkpt lat="-27.2703105" lon="151.291066">
  <ele>360.66</ele>
  <time>2026-09-01T19:58:16Z</time>
  <course>193.58</course>
  <speed>25.29</speed>
  <fix>3d</fix>
</trkpt>
<trkpt lat="-27.2703974" lon="151.2910426">
  <ele>360.25</ele>
  <time>2026-09-01T19:58:16Z</time>
  <course>193.37</course>
  <speed>25.410724114042875</speed>
  <fix>3d</fix>
</trkpt>
<trkpt lat="-27.2703547" lon="151.2910539">
  <ele>360.53</ele>
  <time>2026-09-01T19:58:16Z</time>
  <course>193.77</course>
  <speed>25.32</speed>
  <fix>3d</fix>
</trkpt>
<trkpt lat="-27.2704196" lon="151.2910364">
  <ele>360.22</ele>
  <time>2026-09-01T19:58:16Z</time>
  <course>193.43</course>
  <speed>25.417883468141085</speed>
  <fix>3d</fix>
</trkpt>
<trkpt lat="-27.2703547" lon="151.2910539">
  <ele>360.53</ele>
  <time>2026-09-01T19:58:16Z</time>
  <course>193.77</course>
  <speed>25.32</speed>
  <fix>3d</fix>
</trkpt>
<trkpt lat="-27.2704417" lon="151.2910302">
  <ele>360.2</ele>
  <time>2026-09-01T19:58:16Z</time>
  <course>193.43</course>
  <speed>25.42998623672455</speed>
  <fix>3d</fix>
</trkpt>
<trkpt lat="-27.270399" lon="151.2910417">
  <ele>360.44</ele>
  <time>2026-09-01T19:58:16Z</time>
  <course>193.88</course>
  <speed>25.35</speed>
  <fix>3d</fix>
</trkpt>
<trkpt lat="-27.2704639" lon="151.291024">
  <ele>360.18</ele>
  <time>2026-09-01T19:58:16Z</time>
  <course>193.48</course>
  <speed>25.432382900546305</speed>
  <fix>3d</fix>
</trkpt>
<trkpt lat="-27.270399" lon="151.2910417">
  <ele>360.44</ele>
  <time>2026-09-01T19:58:16Z</time>
  <course>193.88</course>
  <speed>25.35</speed>
  <fix>3d</fix>
</trkpt>
<trkpt lat="-27.2704862" lon="151.2910177">
  <ele>360.17</ele>
  <time>2026-09-01T19:58:16Z</time>
  <course>193.49</course>
  <speed>25.442091109026396</speed>
  <fix>3d</fix>
</trkpt>
<trkpt lat="-27.2704432" lon="151.2910293">
  <ele>360.38</ele>
  <time>2026-09-01T19:58:16Z</time>
  <course>193.94</course>
  <speed>25.37</speed>
  <fix>3d</fix>
</trkpt>
<trkpt lat="-27.2705084" lon="151.2910115">
  <ele>360.17</ele>
  <time>2026-09-01T19:58:16Z</time>
  <course>193.52</course>
  <speed>25.442091109026396</speed>
  <fix>3d</fix>
</trkpt>
<trkpt lat="-27.2704432" lon="151.2910293">
  <ele>360.38</ele>
  <time>2026-09-01T19:58:16Z</time>
  <course>193.94</course>
  <speed>25.37</speed>
  <fix>3d</fix>
</trkpt>
<trkpt lat="-27.2705306" lon="151.2910053">
  <ele>360.18</ele>
  <time>2026-09-01T19:58:16Z</time>
  <course>193.55</course>
  <speed>25.439695359811207</speed>
  <fix>3d</fix>
</trkpt>
<trkpt lat="-27.2704875" lon="151.2910169">
  <ele>360.36</ele>
  <time>2026-09-01T19:58:16Z</time>
  <course>193.93</course>
  <speed>25.39</speed>
  <fix>3d</fix>
</trkpt>
<trkpt lat="-27.2705528" lon="151.2909991">
  <ele>360.18</ele>
  <time>2026-09-01T19:58:16Z</time>
  <course>193.56</course>
  <speed>25.439695359811207</speed>
  <fix>3d</fix>
</trkpt>
<trkpt lat="-27.2704875" lon="151.2910169">
  <ele>360.36</ele>
  <time>2026-09-01T19:58:16Z</time>
  <course>193.93</course>
  <speed>25.39</speed>
  <fix>3d</fix>
</trkpt>
<trkpt lat="-27.270575" lon="151.2909929">
  <ele>360.2</ele>
  <time>2026-09-01T19:58:16Z</time>
  <course>193.51</course>
  <speed>25.437303316192935</speed>
  <fix>3d</fix>
</trkpt>
<trkpt lat="-27.2705318" lon="151.2910046">
  <ele>360.36</ele>
  <time>2026-09-01T19:58:16Z</time>
  <course>193.9</course>
  <speed>25.39</speed>
  <fix>3d</fix>
</trkpt>
<trkpt lat="-27.2705972" lon="151.2909868">
  <ele>360.22</ele>
  <time>2026-09-01T19:58:16Z</time>
  <course>193.47</course>
  <speed>25.432530349927823</speed>
  <fix>3d</fix>
</trkpt>
<trkpt lat="-27.2705318" lon="151.2910046">
  <ele>360.36</ele>
  <time>2026-09-01T19:58:16Z</time>
  <course>193.9</course>
  <speed>25.39</speed>
  <fix>3d</fix>
</trkpt>
<trkpt lat="-27.2706193" lon="151.2909806">
  <ele>360.24</ele>
  <time>2026-09-01T19:58:16Z</time>
  <course>193.37</course>
  <speed>25.42777221858022</speed>
  <fix>3d</fix>
</trkpt>
<trkpt lat="-27.270576" lon="151.2909923">
  <ele>360.38</ele>
  <time>2026-09-01T19:58:16Z</time>
  <course>193.84</course>
  <speed>25.38</speed>
  <fix>3d</fix>
</trkpt>
<trkpt lat="-27.2706415" lon="151.2909745">
  <ele>360.27</ele>
  <time>2026-09-01T19:58:16Z</time>
  <course>193.32</course>
  <speed>25.432744641504975</speed>
  <fix>3d</fix>
</trkpt>
<trkpt lat="-27.270576" lon="151.2909923">
  <ele>360.38</ele>
  <time>2026-09-01T19:58:16Z</time>
  <course>193.84</course>
  <speed>25.38</speed>
  <fix>3d</fix>
</trkpt>
<trkpt lat="-27.2706637" lon="151.2909684">
  <ele>360.3</ele>
  <time>2026-09-01T19:58:16Z</time>
  <course>193.31</course>
  <speed>25.425660266746274</speed>
  <fix>3d</fix>
</trkpt>
<trkpt lat="-27.2706203" lon="151.2909801">
  <ele>360.42</ele>
  <time>2026-09-01T19:58:16Z</time>
  <course>193.74</course>
  <speed>25.38</speed>
  <fix>3d</fix>
</trkpt>
<trkpt lat="-27.2706859" lon="151.2909623">
  <ele>360.33</ele>
  <time>2026-09-01T19:58:16Z</time>
  <course>193.3</course>
  <speed>25.420955922230778</speed>
  <fix>3d</fix>
</trkpt>
<trkpt lat="-27.2706203" lon="151.2909801">
  <ele>360.42</ele>
  <time>2026-09-01T19:58:16Z</time>
  <course>193.74</course>
  <speed>25.38</speed>
  <fix>3d</fix>
</trkpt>
<trkpt lat="-27.2707081" lon="151.2909563">
  <ele>360.36</ele>
  <time>2026-09-01T19:58:16Z</time>
  <course>193.26</course>
  <speed>25.4162664449364</speed>
  <fix>3d</fix>
</trkpt>
<trkpt lat="-27.2706646" lon="151.290968">
  <ele>360.47</ele>
  <time>2026-09-01T19:58:16Z</time>
  <course>193.61</course>
  <speed>25.37</speed>
  <fix>3d</fix>
</trkpt>
<trkpt lat="-27.2707301" lon="151.2909503">
  <ele>360.39</ele>
  <time>2026-09-01T19:58:16Z</time>
  <course>193.15</course>
  <speed>25.40926012303389</speed>
  <fix>3d</fix>
</trkpt>
<trkpt lat="-27.2706646" lon="151.290968">
  <ele>360.47</ele>
  <time>2026-09-01T19:58:16Z</time>
  <course>193.61</course>
  <speed>25.37</speed>
  <fix>3d</fix>
</trkpt>
<trkpt lat="-27.2707523" lon="151.2909444">
  <ele>360.43</ele>
  <time>2026-09-01T19:58:16Z</time>
  <course>193.08</course>
  <speed>25.404607849758282</speed>
  <fix>3d</fix>
</trkpt>
<trkpt lat="-27.2707089" lon="151.290956">
  <ele>360.53</ele>
  <time>2026-09-01T19:58:16Z</time>
  <course>193.49</course>
  <speed>25.37</speed>
  <fix>3d</fix>
</trkpt>
<trkpt lat="-27.2707745" lon="151.2909384">
  <ele>360.47</ele>
  <time>2026-09-01T19:58:16Z</time>
  <course>193.05</course>
  <speed>25.397657372285344</speed>
  <fix>3d</fix>
</trkpt>
<trkpt lat="-27.2707089" lon="151.290956">
  <ele>360.53</ele>
  <time>2026-09-01T19:58:16Z</time>
  <course>193.49</course>
  <speed>25.37</speed>
  <fix>3d</fix>
</trkpt>
<trkpt lat="-27.2707966" lon="151.2909325">
  <ele>360.51</ele>
  <time>2026-09-01T19:58:16Z</time>
  <course>192.98</course>
  <speed>25.393042354156776</speed>
  <fix>3d</fix>
</trkpt>
<trkpt lat="-27.2707532" lon="151.2909441">
  <ele>360.59</ele>
  <time>2026-09-01T19:58:16Z</time>
  <course>193.38</course>
  <speed>25.36</speed>
  <fix>3d</fix>
</trkpt>
<trkpt lat="-27.270819" lon="151.2909266">
  <ele>360.55</ele>
  <time>2026-09-01T19:58:16Z</time>
  <course>192.91</course>
  <speed>25.376414246303593</speed>
  <fix>3d</fix>
</trkpt>
<trkpt lat="-27.2707532" lon="151.2909441">
  <ele>360.59</ele>
  <time>2026-09-01T19:58:16Z</time>
  <course>193.38</course>
  <speed>25.36</speed>
  <fix>3d</fix>
</trkpt>
<trkpt lat="-27.2708412" lon="151.2909207">
  <ele>360.59</ele>
  <time>2026-09-01T19:58:16Z</time>
  <course>192.93</course>
  <speed>25.37183477795802</speed>
  <fix>3d</fix>
</trkpt>
<trkpt lat="-27.2707975" lon="151.2909323">
  <ele>360.66</ele>
  <time>2026-09-01T19:58:16Z</time>
  <course>193.25</course>
  <speed>25.34</speed>
  <fix>3d</fix>
</trkpt>
<trkpt lat="-27.2708633" lon="151.2909149">
  <ele>360.63</ele>
  <time>2026-09-01T19:58:16Z</time>
  <course>192.89</course>
  <speed>25.367270251250922</speed>
  <fix>3d</fix>
</trkpt>
<trkpt lat="-27.2707975" lon="151.2909323">
  <ele>360.66</ele>
  <time>2026-09-01T19:58:16Z</time>
  <course>193.25</course>
  <speed>25.34</speed>
  <fix>3d</fix>
</trkpt>
<trkpt lat="-27.2708855" lon="151.2909091">
  <ele>360.66</ele>
  <time>2026-09-01T19:58:16Z</time>
  <course>192.82</course>
  <speed>25.36272067424944</speed>
  <fix>3d</fix>
</trkpt>
<trkpt lat="-27.2708418" lon="151.2909206">
  <ele>360.73</ele>
  <time>2026-09-01T19:58:16Z</time>
  <course>193.13</course>
  <speed>25.33</speed>
  <fix>3d</fix>
</trkpt>
<trkpt lat="-27.2709077" lon="151.2909033">
  <ele>360.7</ele>
  <time>2026-09-01T19:58:16Z</time>
  <course>192.77</course>
  <speed>25.35818605500007</speed>
  <fix>3d</fix>
</trkpt>
<trkpt lat="-27.2708418" lon="151.2909206">
  <ele>360.73</ele>
  <time>2026-09-01T19:58:16Z</time>
  <course>193.13</course>
  <speed>25.33</speed>
  <fix>3d</fix>
</trkpt>
<trkpt lat="-27.2709298" lon="151.2908975">
  <ele>360.74</ele>
  <time>2026-09-01T19:58:16Z</time>
  <course>192.72</course>
  <speed>25.343924321225394</speed>
  <fix>3d</fix>
</trkpt>
<trkpt lat="-27.2708862" lon="151.290909">
  <ele>360.8</ele>
  <time>2026-09-01T19:58:16Z</time>
  <course>193.04</course>
  <speed>25.32</speed>
  <fix>3d</fix>
</trkpt>
<trkpt lat="-27.270952" lon="151.2908918">
  <ele>360.78</ele>
  <time>2026-09-01T19:58:16Z</time>
  <course>192.68</course>
  <speed>25.33941790965215</speed>
  <fix>3d</fix>
</trkpt>
<trkpt lat="-27.2708862" lon="151.290909">
  <ele>360.8</ele>
  <time>2026-09-01T19:58:16Z</time>
  <course>193.04</course>
  <speed>25.32</speed>
  <fix>3d</fix>
</trkpt>
<trkpt lat="-27.2709741" lon="151.290886">
  <ele>360.82</ele>
  <time>2026-09-01T19:58:16Z</time>
  <course>192.65</course>
  <speed>25.32742584630345</speed>
  <fix>3d</fix>
</trkpt>
<trkpt lat="-27.2709306" lon="151.2908974">
  <ele>360.88</ele>
  <time>2026-09-01T19:58:16Z</time>
  <course>192.94</course>
  <speed>25.31</speed>
  <fix>3d</fix>
</trkpt>
<trkpt lat="-27.2709963" lon="151.2908803">
  <ele>360.86</ele>
  <time>2026-09-01T19:58:16Z</time>
  <course>192.6</course>
  <speed>25.325181144465677</speed>
  <fix>3d</fix>
</trkpt>
<trkpt lat="-27.2709306" lon="151.2908974">
  <ele>360.88</ele>
  <time>2026-09-01T19:58:16Z</time>
  <course>192.94</course>
  <speed>25.31</speed>
  <fix>3d</fix>
</trkpt>
<trkpt lat="-27.2710185" lon="151.2908746">
  <ele>360.89</ele>
  <time>2026-09-01T19:58:16Z</time>
  <course>192.58</course>
  <speed>25.320702991820745</speed>
  <fix>3d</fix>
</trkpt>
<trkpt lat="-27.2709749" lon="151.290886">
  <ele>360.96</ele>
  <time>2026-09-01T19:58:16Z</time>
  <course>192.86</course>
  <speed>25.3</speed>
  <fix>3d</fix>
</trkpt>
<trkpt lat="-27.2710406" lon="151.2908689">
  <ele>360.93</ele>
  <time>2026-09-01T19:58:16Z</time>
  <course>192.55</course>
  <speed>25.316239847181095</speed>
  <fix>3d</fix>
</trkpt>
<trkpt lat="-27.2709749" lon="151.290886">
  <ele>360.96</ele>
  <time>2026-09-01T19:58:16Z</time>
  <course>192.86</course>
  <speed>25.3</speed>
  <fix>3d</fix>
</trkpt>
<trkpt lat="-27.2710628" lon="151.2908633">
  <ele>360.96</ele>
  <time>2026-09-01T19:58:16Z</time>
  <course>192.47</course>
  <speed>25.314013905345</speed>
  <fix>3d</fix>
</trkpt>
<trkpt lat="-27.2710192" lon="151.2908746">
  <ele>361.03</ele>
  <time>2026-09-01T19:58:16Z</time>
  <course>192.78</course>
  <speed>25.29</speed>
  <fix>3d</fix>
</trkpt>
<trkpt lat="-27.271085" lon="151.2908576">
  <ele>361.0</ele>
  <time>2026-09-01T19:58:16Z</time>
  <course>192.37</course>
  <speed>25.299822133762127</speed>
  <fix>3d</fix>
</trkpt>
<trkpt lat="-27.2710192" lon="151.2908746">
  <ele>361.03</ele>
  <time>2026-09-01T19:58:16Z</time>
  <course>192.78</course>
  <speed>25.29</speed>
  <fix>3d</fix>
</trkpt>
<trkpt lat="-27.2711073" lon="151.290852">
  <ele>361.03</ele>
  <time>2026-09-01T19:58:16Z</time>
  <course>192.31</course>
  <speed>25.293186829658296</speed>
  <fix>3d</fix>
</trkpt>
<trkpt lat="-27.2710635" lon="151.2908633">
  <ele>361.1</ele>
  <time>2026-09-01T19:58:16Z</time>
  <course>192.7</course>
  <speed>25.28</speed>
  <fix>3d</fix>
</trkpt>
<trkpt lat="-27.2711294" lon="151.2908463">
  <ele>361.07</ele>
  <time>2026-09-01T19:58:16Z</time>
  <course>192.28</course>
  <speed>25.290982582730944</speed>
  <fix>3d</fix>
</trkpt>
<trkpt lat="-27.2710635" lon="151.2908633">
  <ele>361.1</ele>
  <time>2026-09-01T19:58:16Z</time>
  <course>192.7</course>
  <speed>25.28</speed>
  <fix>3d</fix>
</trkpt>
<trkpt lat="-27.2711516" lon="151.2908408">
  <ele>361.1</ele>
  <time>2026-09-01T19:58:16Z</time>
  <course>192.23</course>
  <speed>25.28658537644021</speed>
  <fix>3d</fix>
</trkpt>
<trkpt lat="-27.2711078" lon="151.2908522">
  <ele>361.17</ele>
  <time>2026-09-01T19:58:16Z</time>
  <course>192.61</course>
  <speed>25.27</speed>
  <fix>3d</fix>
</trkpt>
<trkpt lat="-27.2711737" lon="151.2908352">
  <ele>361.13</ele>
  <time>2026-09-01T19:58:16Z</time>
  <course>192.2</course>
  <speed>25.282203226775945</speed>
  <fix>3d</fix>
</trkpt>
<trkpt lat="-27.2711078" lon="151.2908522">
  <ele>361.17</ele>
  <time>2026-09-01T19:58:16Z</time>
  <course>192.61</course>
  <speed>25.27</speed>
  <fix>3d</fix>
</trkpt>
<trkpt lat="-27.2711957" lon="151.2908298">
  <ele>361.17</ele>
  <time>2026-09-01T19:58:16Z</time>
  <course>192.19</course>
  <speed>25.277836141568763</speed>
  <fix>3d</fix>
</trkpt>
<trkpt lat="-27.2711521" lon="151.290841">
  <ele>361.24</ele>
  <time>2026-09-01T19:58:16Z</time>
  <course>192.51</course>
  <speed>25.26</speed>
  <fix>3d</fix>
</trkpt>
<trkpt lat="-27.2712178" lon="151.2908242">
  <ele>361.21</ele>
  <time>2026-09-01T19:58:16Z</time>
  <course>192.2</course>
  <speed>25.275658250577766</speed>
  <fix>3d</fix>
</trkpt>
<trkpt lat="-27.2711521" lon="151.290841">
  <ele>361.24</ele>
  <time>2026-09-01T19:58:16Z</time>
  <course>192.51</course>
  <speed>25.26</speed>
  <fix>3d</fix>
</trkpt>
<trkpt lat="-27.2712399" lon="151.2908188">
  <ele>361.24</ele>
  <time>2026-09-01T19:58:16Z</time>
  <course>192.14</course>
  <speed>25.271313776691546</speed>
  <fix>3d</fix>
</trkpt>
<trkpt lat="-27.2711964" lon="151.2908301">
  <ele>361.31</ele>
  <time>2026-09-01T19:58:16Z</time>
  <course>192.43</course>
  <speed>25.26</speed>
  <fix>3d</fix>
</trkpt>
<trkpt lat="-27.2712621" lon="151.2908133">
  <ele>361.28</ele>
  <time>2026-09-01T19:58:16Z</time>
  <course>192.14</course>
  <speed>25.25938439471556</speed>
  <fix>3d</fix>
</trkpt>
<trkpt lat="-27.2711964" lon="151.2908301">
  <ele>361.31</ele>
  <time>2026-09-01T19:58:16Z</time>
  <course>192.43</course>
  <speed>25.26</speed>
  <fix>3d</fix>
</trkpt>
<trkpt lat="-27.2712844" lon="151.2908078">
  <ele>361.31</ele>
  <time>2026-09-01T19:58:16Z</time>
  <course>192.05</course>
  <speed>25.257220749718286</speed>
  <fix>3d</fix>
</trkpt>
<trkpt lat="-27.2712407" lon="151.2908191">
  <ele>361.38</ele>
  <time>2026-09-01T19:58:16Z</time>
  <course>192.36</course>
  <speed>25.25</speed>
  <fix>3d</fix>
</trkpt>
<trkpt lat="-27.2713065" lon="151.2908023">
  <ele>361.34</ele>
  <time>2026-09-01T19:58:16Z</time>
  <course>191.93</course>
  <speed>25.252904783410564</speed>
  <fix>3d</fix>
</trkpt>
<trkpt lat="-27.2712407" lon="151.2908191">
  <ele>361.38</ele>
  <time>2026-09-01T19:58:16Z</time>
  <course>192.36</course>
  <speed>25.25</speed>
  <fix>3d</fix>
</trkpt>
<trkpt lat="-27.2713287" lon="151.2907969">
  <ele>361.37</ele>
  <time>2026-09-01T19:58:16Z</time>
  <course>191.93</course>
  <speed>25.2486039218013</speed>
  <fix>3d</fix>
</trkpt>
<trkpt lat="-27.271285" lon="151.2908082">
  <ele>361.45</ele>
  <time>2026-09-01T19:58:16Z</time>
  <course>192.3</course>
  <speed>25.24</speed>
  <fix>3d</fix>
</trkpt>
<trkpt lat="-27.2713508" lon="151.2907915">
  <ele>361.4</ele>
  <time>2026-09-01T19:58:16Z</time>
  <course>191.91</course>
  <speed>25.246459157671993</speed>
  <fix>3d</fix>
</trkpt>
<trkpt lat="-27.271285" lon="151.2908082">
  <ele>361.45</ele>
  <time>2026-09-01T19:58:16Z</time>
  <course>192.3</course>
  <speed>25.24</speed>
  <fix>3d</fix>
</trkpt>
<trkpt lat="-27.2713729" lon="151.2907861">
  <ele>361.43</ele>
  <time>2026-09-01T19:58:16Z</time>
  <course>191.86</course>
  <speed>25.244318172610644</speed>
  <fix>3d</fix>
</trkpt>
<trkpt lat="-27.2713294" lon="151.2907973">
  <ele>361.51</ele>
  <time>2026-09-01T19:58:16Z</time>
  <course>192.24</course>
  <speed>25.24</speed>
  <fix>3d</fix>
</trkpt>
<trkpt lat="-27.2713951" lon="151.2907807">
  <ele>361.46</ele>
  <time>2026-09-01T19:58:16Z</time>
  <course>191.83</course>
  <speed>25.24004754353684</speed>
  <fix>3d</fix>
</trkpt>
<trkpt lat="-27.2713294" lon="151.2907973">
  <ele>361.51</ele>
  <time>2026-09-01T19:58:16Z</time>
  <course>192.24</course>
  <speed>25.24</speed>
  <fix>3d</fix>
</trkpt>
<trkpt lat="-27.2714172" lon="151.2907754">
  <ele>361.49</ele>
  <time>2026-09-01T19:58:16Z</time>
  <course>191.83</course>
  <speed>25.235792042256172</speed>
  <fix>3d</fix>
</trkpt>
<trkpt lat="-27.2713738" lon="151.2907865">
  <ele>361.57</ele>
  <time>2026-09-01T19:58:16Z</time>
  <course>192.17</course>
  <speed>25.24</speed>
  <fix>3d</fix>
</trkpt>
<trkpt lat="-27.2714394" lon="151.29077">
  <ele>361.52</ele>
  <time>2026-09-01T19:58:16Z</time>
  <course>191.81</course>
  <speed>25.243442712910614</speed>
  <fix>3d</fix>
</trkpt>
<trkpt lat="-27.2713738" lon="151.2907865">
  <ele>361.57</ele>
  <time>2026-09-01T19:58:16Z</time>
  <course>192.17</course>
  <speed>25.24</speed>
  <fix>3d</fix>
</trkpt>
<trkpt lat="-27.2714616" lon="151.2907647">
  <ele>361.55</ele>
  <time>2026-09-01T19:58:16Z</time>
  <course>191.74</course>
  <speed>25.2413252425462</speed>
  <fix>3d</fix>
</trkpt>
<trkpt lat="-27.2714182" lon="151.2907758">
  <ele>361.62</ele>
  <time>2026-09-01T19:58:16Z</time>
  <course>192.1</course>
  <speed>25.25</speed>
  <fix>3d</fix>
</trkpt>
<trkpt lat="-27.2714838" lon="151.2907594">
  <ele>361.58</ele>
  <time>2026-09-01T19:58:16Z</time>
  <course>191.68</course>
  <speed>25.239211556623555</speed>
  <fix>3d</fix>
</trkpt>
<trkpt lat="-27.2714182" lon="151.2907758">
  <ele>361.62</ele>
  <time>2026-09-01T19:58:16Z</time>
  <course>192.1</course>
  <speed>25.25</speed>
  <fix>3d</fix>
</trkpt>
<trkpt lat="-27.271506" lon="151.2907541">
  <ele>361.61</ele>
  <time>2026-09-01T19:58:16Z</time>
  <course>191.69</course>
  <speed>25.246877034595784</speed>
  <fix>3d</fix>
</trkpt>
<trkpt lat="-27.2714625" lon="151.2907651">
  <ele>361.68</ele>
  <time>2026-09-01T19:58:16Z</time>
  <course>192.04</course>
  <speed>25.25</speed>
  <fix>3d</fix>
</trkpt>
<trkpt lat="-27.2715281" lon="151.2907487">
  <ele>361.64</ele>
  <time>2026-09-01T19:58:16Z</time>
  <course>191.71</course>
  <speed>25.24267022325491</speed>
  <fix>3d</fix>
</trkpt>
<trkpt lat="-27.2714625" lon="151.2907651">
  <ele>361.68</ele>
  <time>2026-09-01T19:58:16Z</time>
  <course>192.04</course>
  <speed>25.25</speed>
  <fix>3d</fix>
</trkpt>
<trkpt lat="-27.2715503" lon="151.2907435">
  <ele>361.66</ele>
  <time>2026-09-01T19:58:16Z</time>
  <course>191.71</course>
  <speed>25.24267022325491</speed>
  <fix>3d</fix>
</trkpt>
<trkpt lat="-27.2715069" lon="151.2907545">
  <ele>361.73</ele>
  <time>2026-09-01T19:58:16Z</time>
  <course>191.99</course>
  <speed>25.25</speed>
  <fix>3d</fix>
</trkpt>
<trkpt lat="-27.2715725" lon="151.2907382">
  <ele>361.69</ele>
  <time>2026-09-01T19:58:16Z</time>
  <course>191.67</course>
  <speed>25.24057249746923</speed>
  <fix>3d</fix>
</trkpt>
<trkpt lat="-27.2715069" lon="151.2907545">
  <ele>361.73</ele>
  <time>2026-09-01T19:58:16Z</time>
  <course>191.99</course>
  <speed>25.25</speed>
  <fix>3d</fix>
</trkpt>
<trkpt lat="-27.2715947" lon="151.2907329">
  <ele>361.72</ele>
  <time>2026-09-01T19:58:16Z</time>
  <course>191.63</course>
  <speed>25.238478559532865</speed>
  <fix>3d</fix>
</trkpt>
<trkpt lat="-27.2715513" lon="151.2907439">
  <ele>361.78</ele>
  <time>2026-09-01T19:58:16Z</time>
  <course>191.95</course>
  <speed>25.25</speed>
  <fix>3d</fix>
</trkpt>
<trkpt lat="-27.2716169" lon="151.2907276">
  <ele>361.74</ele>
  <time>2026-09-01T19:58:16Z</time>
  <course>191.59</course>
  <speed>25.238478559532865</speed>
  <fix>3d</fix>
</trkpt>
<trkpt lat="-27.2715513" lon="151.2907439">
  <ele>361.78</ele>
  <time>2026-09-01T19:58:16Z</time>
  <course>191.95</course>
  <speed>25.25</speed>
  <fix>3d</fix>
</trkpt>
<trkpt lat="-27.2716391" lon="151.2907224">
  <ele>361.77</ele>
  <time>2026-09-01T19:58:16Z</time>
  <course>191.56</course>
  <speed>25.236388410388678</speed>
  <fix>3d</fix>
</trkpt>
<trkpt lat="-27.2715957" lon="151.2907333">
  <ele>361.84</ele>
  <time>2026-09-01T19:58:16Z</time>
  <course>191.93</course>
  <speed>25.25</speed>
  <fix>3d</fix>
</trkpt>
<trkpt lat="-27.2716613" lon="151.2907171">
  <ele>361.79</ele>
  <time>2026-09-01T19:58:16Z</time>
  <course>191.52</course>
  <speed>25.244082474908847</speed>
  <fix>3d</fix>
</trkpt>
<trkpt lat="-27.2715957" lon="151.2907333">
  <ele>361.84</ele>
  <time>2026-09-01T19:58:16Z</time>
  <course>191.93</course>
  <speed>25.25</speed>
  <fix>3d</fix>
</trkpt>
<trkpt lat="-27.2716835" lon="151.2907119">
  <ele>361.81</ele>
  <time>2026-09-01T19:58:16Z</time>
  <course>191.54</course>
  <speed>25.25178211532802</speed>
  <fix>3d</fix>
</trkpt>
<trkpt lat="-27.27164" lon="151.2907228">
  <ele>361.89</ele>
  <time>2026-09-01T19:58:16Z</time>
  <course>191.89</course>
  <speed>25.26</speed>
  <fix>3d</fix>
</trkpt>
<trkpt lat="-27.2717057" lon="151.2907066">
  <ele>361.83</ele>
  <time>2026-09-01T19:58:16Z</time>
  <course>191.55</course>
  <speed>25.23992274156163</speed>
  <fix>3d</fix>
</trkpt>
<trkpt lat="-27.27164" lon="151.2907228">
  <ele>361.89</ele>
  <time>2026-09-01T19:58:16Z</time>
  <course>191.89</course>
  <speed>25.26</speed>
  <fix>3d</fix>
</trkpt>
<trkpt lat="-27.2717279" lon="151.2907014">
  <ele>361.85</ele>
  <time>2026-09-01T19:58:16Z</time>
  <course>191.59</course>
  <speed>25.249704948771182</speed>
  <fix>3d</fix>
</trkpt>
<trkpt lat="-27.2716844" lon="151.2907123">
  <ele>361.93</ele>
  <time>2026-09-01T19:58:16Z</time>
  <course>191.85</course>
  <speed>25.26</speed>
  <fix>3d</fix>
</trkpt>
<trkpt lat="-27.2717503" lon="151.2906961">
  <ele>361.87</ele>
  <time>2026-09-01T19:58:16Z</time>
  <course>191.54</course>
  <speed>25.247631572090086</speed>
  <fix>3d</fix>
</trkpt>
<trkpt lat="-27.2716844" lon="151.2907123">
  <ele>361.93</ele>
  <time>2026-09-01T19:58:16Z</time>
  <course>191.85</course>
  <speed>25.26</speed>
  <fix>3d</fix>
</trkpt>
<trkpt lat="-27.2717725" lon="151.2906909">
  <ele>361.88</ele>
  <time>2026-09-01T19:58:16Z</time>
  <course>191.51</course>
  <speed>25.247631572090086</speed>
  <fix>3d</fix>
</trkpt>
<trkpt lat="-27.2717289" lon="151.2907018">
  <ele>361.97</ele>
  <time>2026-09-01T19:58:16Z</time>
  <course>191.83</course>
  <speed>25.27</speed>
  <fix>3d</fix>
</trkpt>
<trkpt lat="-27.2717947" lon="151.2906857">
  <ele>361.9</ele>
  <time>2026-09-01T19:58:16Z</time>
  <course>191.55</course>
  <speed>25.25741475289979</speed>
  <fix>3d</fix>
</trkpt>
<trkpt lat="-27.2717289" lon="151.2907018">
  <ele>361.97</ele>
  <time>2026-09-01T19:58:16Z</time>
  <course>191.83</course>
  <speed>25.27</speed>
  <fix>3d</fix>
</trkpt>
<trkpt lat="-27.2718169" lon="151.2906805">
  <ele>361.92</ele>
  <time>2026-09-01T19:58:16Z</time>
  <course>191.58</course>
  <speed>25.25534596872512</speed>
  <fix>3d</fix>
</trkpt>
<trkpt lat="-27.2717733" lon="151.2906913">
  <ele>362.0</ele>
  <time>2026-09-01T19:58:16Z</time>
  <course>191.83</course>
  <speed>25.28</speed>
  <fix>3d</fix>
</trkpt>
<trkpt lat="-27.2718391" lon="151.2906752">
  <ele>361.94</ele>
  <time>2026-09-01T19:58:16Z</time>
  <course>191.56</course>
  <speed>25.25534596872512</speed>
  <fix>3d</fix>
</trkpt>
<trkpt lat="-27.2717733" lon="151.2906913">
  <ele>362.0</ele>
  <time>2026-09-01T19:58:16Z</time>
  <course>191.83</course>
  <speed>25.28</speed>
  <fix>3d</fix>
</trkpt>
<trkpt lat="-27.2718613" lon="151.29067">
  <ele>361.96</ele>
  <time>2026-09-01T19:58:16Z</time>
  <course>191.51</course>
  <speed>25.25534596872512</speed>
  <fix>3d</fix>
</trkpt>
<trkpt lat="-27.2718178" lon="151.2906808">
  <ele>362.03</ele>
  <time>2026-09-01T19:58:16Z</time>
  <course>191.82</course>
  <speed>25.28</speed>
  <fix>3d</fix>
</trkpt>
<trkpt lat="-27.2718835" lon="151.2906648">
  <ele>361.98</ele>
  <time>2026-09-01T19:58:16Z</time>
  <course>191.45</course>
  <speed>25.253280974954524</speed>
  <fix>3d</fix>
</trkpt>
<trkpt lat="-27.2718178" lon="151.2906808">
  <ele>362.03</ele>
  <time>2026-09-01T19:58:16Z</time>
  <course>191.82</course>
  <speed>25.28</speed>
  <fix>3d</fix>
</trkpt>
<trkpt lat="-27.2719057" lon="151.2906596">
  <ele>362.0</ele>
  <time>2026-09-01T19:58:16Z</time>
  <course>191.43</course>
  <speed>25.25121977251792</speed>
  <fix>3d</fix>
</trkpt>
<trkpt lat="-27.2718624" lon="151.2906704">
  <ele>362.08</ele>
  <time>2026-09-01T19:58:16Z</time>
  <course>191.8</course>
  <speed>25.29</speed>
  <fix>3d</fix>
</trkpt>
<trkpt lat="-27.271928" lon="151.2906544">
  <ele>362.02</ele>
  <time>2026-09-01T19:58:16Z</time>
  <course>191.45</course>
  <speed>25.261005522346096</speed>
  <fix>3d</fix>
</trkpt>
<trkpt lat="-27.2718624" lon="151.2906704">
  <ele>362.08</ele>
  <time>2026-09-01T19:58:16Z</time>
  <course>191.8</course>
  <speed>25.29</speed>
  <fix>3d</fix>
</trkpt>
<trkpt lat="-27.2719502" lon="151.2906492">
  <ele>362.04</ele>
  <time>2026-09-01T19:58:16Z</time>
  <course>191.49</course>
  <speed>25.258948909247984</speed>
  <fix>3d</fix>
</trkpt>
<trkpt lat="-27.2719068" lon="151.2906599">
  <ele>362.11</ele>
  <time>2026-09-01T19:58:16Z</time>
  <course>191.78</course>
  <speed>25.29</speed>
  <fix>3d</fix>
</trkpt>
<trkpt lat="-27.2719724" lon="151.290644">
  <ele>362.06</ele>
  <time>2026-09-01T19:58:16Z</time>
  <course>191.49</course>
  <speed>25.258948909247984</speed>
  <fix>3d</fix>
</trkpt>
<trkpt lat="-27.2719068" lon="151.2906599">
  <ele>362.11</ele>
  <time>2026-09-01T19:58:16Z</time>
  <course>191.78</course>
  <speed>25.29</speed>
  <fix>3d</fix>
</trkpt>
<trkpt lat="-27.2719947" lon="151.2906388">
  <ele>362.08</ele>
  <time>2026-09-01T19:58:16Z</time>
  <course>191.45</course>
  <speed>25.258948909247984</speed>
  <fix>3d</fix>
</trkpt>
<trkpt lat="-27.2719513" lon="151.2906495">
  <ele>362.15</ele>
  <time>2026-09-01T19:58:16Z</time>
  <course>191.76</course>
  <speed>25.29</speed>
  <fix>3d</fix>
</trkpt>
<trkpt lat="-27.2720169" lon="151.2906336">
  <ele>362.09</ele>
  <time>2026-09-01T19:58:16Z</time>
  <course>191.39</course>
  <speed>25.258948909247984</speed>
  <fix>3d</fix>
</trkpt>
<trkpt lat="-27.2719513" lon="151.2906495">
  <ele>362.15</ele>
  <time>2026-09-01T19:58:16Z</time>
  <course>191.76</course>
  <speed>25.29</speed>
  <fix>3d</fix>
</trkpt>
<trkpt lat="-27.2720392" lon="151.2906284">
  <ele>362.11</ele>
  <time>2026-09-01T19:58:16Z</time>
  <course>191.45</course>
  <speed>25.268735623295438</speed>
  <fix>3d</fix>
</trkpt>
<trkpt lat="-27.2719958" lon="151.2906391">
  <ele>362.18</ele>
  <time>2026-09-01T19:58:16Z</time>
  <course>191.75</course>
  <speed>25.29</speed>
  <fix>3d</fix>
</trkpt>
<trkpt lat="-27.2720614" lon="151.2906232">
  <ele>362.12</ele>
  <time>2026-09-01T19:58:16Z</time>
  <course>191.48</course>
  <speed>25.266683597179902</speed>
  <fix>3d</fix>
</trkpt>
<trkpt lat="-27.2719958" lon="151.2906391">
  <ele>362.18</ele>
  <time>2026-09-01T19:58:16Z</time>
  <course>191.75</course>
  <speed>25.29</speed>
  <fix>3d</fix>
</trkpt>
<trkpt lat="-27.2720837" lon="151.290618">
  <ele>362.13</ele>
  <time>2026-09-01T19:58:16Z</time>
  <course>191.46</course>
  <speed>25.25689608799941</speed>
  <fix>3d</fix>
</trkpt>
<trkpt lat="-27.2720403" lon="151.2906286">
  <ele>362.21</ele>
  <time>2026-09-01T19:58:16Z</time>
  <course>191.75</course>
  <speed>25.3</speed>
  <fix>3d</fix>
</trkpt>
<trkpt lat="-27.2721059" lon="151.2906128">
  <ele>362.15</ele>
  <time>2026-09-01T19:58:16Z</time>
  <course>191.5</course>
  <speed>25.266683597179902</speed>
  <fix>3d</fix>
</trkpt>
<trkpt lat="-27.2720403" lon="151.2906286">
  <ele>362.21</ele>
  <time>2026-09-01T19:58:16Z</time>
  <course>191.75</course>
  <speed>25.3</speed>
  <fix>3d</fix>
</trkpt>
<trkpt lat="-27.2721281" lon="151.2906076">
  <ele>362.17</ele>
  <time>2026-09-01T19:58:16Z</time>
  <course>191.45</course>
  <speed>25.266683597179902</speed>
  <fix>3d</fix>
</trkpt>
<trkpt lat="-27.2720848" lon="151.2906183">
  <ele>362.24</ele>
  <time>2026-09-01T19:58:16Z</time>
  <course>191.74</course>
  <speed>25.3</speed>
  <fix>3d</fix>
</trkpt>
<trkpt lat="-27.2721504" lon="151.2906024">
  <ele>362.19</ele>
  <time>2026-09-01T19:58:16Z</time>
  <course>191.37</course>
  <speed>25.266683597179902</speed>
  <fix>3d</fix>
</trkpt>
<trkpt lat="-27.2720848" lon="151.2906183">
  <ele>362.24</ele>
  <time>2026-09-01T19:58:16Z</time>
  <course>191.74</course>
  <speed>25.3</speed>
  <fix>3d</fix>
</trkpt>
<trkpt lat="-27.2721727" lon="151.2905973">
  <ele>362.2</ele>
  <time>2026-09-01T19:58:16Z</time>
  <course>191.36</course>
  <speed>25.27647127270735</speed>
  <fix>3d</fix>
</trkpt>
<trkpt lat="-27.2721293" lon="151.2906079">
  <ele>362.27</ele>
  <time>2026-09-01T19:58:16Z</time>
  <course>191.75</course>
  <speed>25.3</speed>
  <fix>3d</fix>
</trkpt>
<trkpt lat="-27.2721949" lon="151.2905921">
  <ele>362.22</ele>
  <time>2026-09-01T19:58:16Z</time>
  <course>191.41</course>
  <speed>25.27647127270735</speed>
  <fix>3d</fix>
</trkpt>
<trkpt lat="-27.2721293" lon="151.2906079">
  <ele>362.27</ele>
  <time>2026-09-01T19:58:16Z</time>
  <course>191.75</course>
  <speed>25.3</speed>
  <fix>3d</fix>
</trkpt>
<trkpt lat="-27.272217" lon="151.2905869">
  <ele>362.24</ele>
  <time>2026-09-01T19:58:16Z</time>
  <course>191.48</course>
  <speed>25.266683597179902</speed>
  <fix>3d</fix>
</trkpt>
<trkpt lat="-27.2721738" lon="151.2905974">
  <ele>362.3</ele>
  <time>2026-09-01T19:58:16Z</time>
  <course>191.74</course>
  <speed>25.31</speed>
  <fix>3d</fix>
</trkpt>
<trkpt lat="-27.2722392" lon="151.2905817">
  <ele>362.26</ele>
  <time>2026-09-01T19:58:16Z</time>
  <course>191.47</course>
  <speed>25.27647127270735</speed>
  <fix>3d</fix>
</trkpt>
<trkpt lat="-27.2721738" lon="151.2905974">
  <ele>362.3</ele>
  <time>2026-09-01T19:58:16Z</time>
  <course>191.74</course>
  <speed>25.31</speed>
  <fix>3d</fix>
</trkpt>
<trkpt lat="-27.2722615" lon="151.2905765">
  <ele>362.27</ele>
  <time>2026-09-01T19:58:16Z</time>
  <course>191.41</course>
  <speed>25.27647127270735</speed>
  <fix>3d</fix>
</trkpt>
<trkpt lat="-27.2722183" lon="151.2905869">
  <ele>362.34</ele>
  <time>2026-09-01T19:58:16Z</time>
  <course>191.75</course>
  <speed>25.31</speed>
  <fix>3d</fix>
</trkpt>
<trkpt lat="-27.2722837" lon="151.2905713">
  <ele>362.29</ele>
  <time>2026-09-01T19:58:16Z</time>
  <course>191.4</course>
  <speed>25.27647127270735</speed>
  <fix>3d</fix>
</trkpt>
<trkpt lat="-27.2722183" lon="151.2905869">
  <ele>362.34</ele>
  <time>2026-09-01T19:58:16Z</time>
  <course>191.75</course>
  <speed>25.31</speed>
  <fix>3d</fix>
</trkpt>
<trkpt lat="-27.2723062" lon="151.290566">
  <ele>362.31</ele>
  <time>2026-09-01T19:58:16Z</time>
  <course>191.46</course>
  <speed>25.28625911438859</speed>
  <fix>3d</fix>
</trkpt>
<trkpt lat="-27.2722629" lon="151.2905765">
  <ele>362.37</ele>
  <time>2026-09-01T19:58:16Z</time>
  <course>191.76</course>
  <speed>25.32</speed>
  <fix>3d</fix>
</trkpt>
<trkpt lat="-27.2723285" lon="151.2905608">
  <ele>362.32</ele>
  <time>2026-09-01T19:58:16Z</time>
  <course>191.52</course>
  <speed>25.28625911438859</speed>
  <fix>3d</fix>
</trkpt>
<trkpt lat="-27.2722629" lon="151.2905765">
  <ele>362.37</ele>
  <time>2026-09-01T19:58:16Z</time>
  <course>191.76</course>
  <speed>25.32</speed>
  <fix>3d</fix>
</trkpt>
<trkpt lat="-27.2723509" lon="151.2905556">
  <ele>362.33</ele>
  <time>2026-09-01T19:58:16Z</time>
  <course>191.55</course>
  <speed>25.288309552044</speed>
  <fix>3d</fix>
</trkpt>
<trkpt lat="-27.2723075" lon="151.290566">
  <ele>362.4</ele>
  <time>2026-09-01T19:58:16Z</time>
  <course>191.76</course>
  <speed>25.32</speed>
  <fix>3d</fix>
</trkpt>
<trkpt lat="-27.2723732" lon="151.2905503">
  <ele>362.34</ele>
  <time>2026-09-01T19:58:16Z</time>
  <course>191.52</course>
  <speed>25.288309552044</speed>
  <fix>3d</fix>
</trkpt>
<trkpt lat="-27.2723075" lon="151.290566">
  <ele>362.4</ele>
  <time>2026-09-01T19:58:16Z</time>
  <course>191.76</course>
  <speed>25.32</speed>
  <fix>3d</fix>
</trkpt>
<trkpt lat="-27.2723955" lon="151.2905451">
  <ele>362.36</ele>
  <time>2026-09-01T19:58:16Z</time>
  <course>191.52</course>
  <speed>25.290363777533926</speed>
  <fix>3d</fix>
</trkpt>
<trkpt lat="-27.272352" lon="151.2905557">
  <ele>362.42</ele>
  <time>2026-09-01T19:58:16Z</time>
  <course>191.78</course>
  <speed>25.33</speed>
  <fix>3d</fix>
</trkpt>
<trkpt lat="-27.2724178" lon="151.2905399">
  <ele>362.38</ele>
  <time>2026-09-01T19:58:16Z</time>
  <course>191.51</course>
  <speed>25.290363777533926</speed>
  <fix>3d</fix>
</trkpt>
<trkpt lat="-27.272352" lon="151.2905557">
  <ele>362.42</ele>
  <time>2026-09-01T19:58:16Z</time>
  <course>191.78</course>
  <speed>25.33</speed>
  <fix>3d</fix>
</trkpt>
<trkpt lat="-27.27244" lon="151.2905347">
  <ele>362.39</ele>
  <time>2026-09-01T19:58:16Z</time>
  <course>191.47</course>
  <speed>25.300150197182624</speed>
  <fix>3d</fix>
</trkpt>
<trkpt lat="-27.2723966" lon="151.2905452">
  <ele>362.45</ele>
  <time>2026-09-01T19:58:16Z</time>
  <course>191.8</course>
  <speed>25.33</speed>
  <fix>3d</fix>
</trkpt>
<trkpt lat="-27.2724623" lon="151.2905294">
  <ele>362.4</ele>
  <time>2026-09-01T19:58:16Z</time>
  <course>191.44</course>
  <speed>25.300150197182624</speed>
  <fix>3d</fix>
</trkpt>
<trkpt lat="-27.2723966" lon="151.2905452">
  <ele>362.45</ele>
  <time>2026-09-01T19:58:16Z</time>
  <course>191.8</course>
  <speed>25.33</speed>
  <fix>3d</fix>
</trkpt>
<trkpt lat="-27.2724846" lon="151.2905242">
  <ele>362.41</ele>
  <time>2026-09-01T19:58:16Z</time>
  <course>191.38</course>
  <speed>25.29809676635774</speed>
  <fix>3d</fix>
</trkpt>
<trkpt lat="-27.2724411" lon="151.2905347">
  <ele>362.48</ele>
  <time>2026-09-01T19:58:16Z</time>
  <course>191.81</course>
  <speed>25.33</speed>
  <fix>3d</fix>
</trkpt>
<trkpt lat="-27.2725069" lon="151.290519">
  <ele>362.42</ele>
  <time>2026-09-01T19:58:16Z</time>
  <course>191.33</course>
  <speed>25.30583529544125</speed>
  <fix>3d</fix>
</trkpt>
<trkpt lat="-27.2724411" lon="151.2905347">
  <ele>362.48</ele>
  <time>2026-09-01T19:58:16Z</time>
  <course>191.81</course>
  <speed>25.33</speed>
  <fix>3d</fix>
</trkpt>
<trkpt lat="-27.2725291" lon="151.2905138">
  <ele>362.43</ele>
  <time>2026-09-01T19:58:16Z</time>
  <course>191.32</course>
  <speed>25.30379022992405</speed>
  <fix>3d</fix>
</trkpt>
<trkpt lat="-27.2724857" lon="151.2905242">
  <ele>362.51</ele>
  <time>2026-09-01T19:58:16Z</time>
  <course>191.79</course>
  <speed>25.34</speed>
  <fix>3d</fix>
</trkpt>
<trkpt lat="-27.2725514" lon="151.2905086">
  <ele>362.44</ele>
  <time>2026-09-01T19:58:16Z</time>
  <course>191.39</course>
  <speed>25.31357935970336</speed>
  <fix>3d</fix>
</trkpt>
<trkpt lat="-27.2724857" lon="151.2905242">
  <ele>362.51</ele>
  <time>2026-09-01T19:58:16Z</time>
  <course>191.79</course>
  <speed>25.34</speed>
  <fix>3d</fix>
</trkpt>
<trkpt lat="-27.2725737" lon="151.2905034">
  <ele>362.44</ele>
  <time>2026-09-01T19:58:16Z</time>
  <course>191.49</course>
  <speed>25.311538870641588</speed>
  <fix>3d</fix>
</trkpt>
<trkpt lat="-27.2725302" lon="151.2905137">
  <ele>362.52</ele>
  <time>2026-09-01T19:58:16Z</time>
  <course>191.77</course>
  <speed>25.34</speed>
  <fix>3d</fix>
</trkpt>
<trkpt lat="-27.272596" lon="151.2904982">
  <ele>362.45</ele>
  <time>2026-09-01T19:58:16Z</time>
  <course>191.51</course>
  <speed>25.31357935970336</speed>
  <fix>3d</fix>
</trkpt>
<trkpt lat="-27.2725302" lon="151.2905137">
  <ele>362.52</ele>
  <time>2026-09-01T19:58:16Z</time>
  <course>191.77</course>
  <speed>25.34</speed>
  <fix>3d</fix>
</trkpt>
<trkpt lat="-27.2726183" lon="151.290493">
  <ele>362.46</ele>
  <time>2026-09-01T19:58:16Z</time>
  <course>191.46</course>
  <speed>25.31357935970336</speed>
  <fix>3d</fix>
</trkpt>
<trkpt lat="-27.2725748" lon="151.2905033">
  <ele>362.53</ele>
  <time>2026-09-01T19:58:16Z</time>
  <course>191.75</course>
  <speed>25.35</speed>
  <fix>3d</fix>
</trkpt>
<trkpt lat="-27.2726406" lon="151.2904877">
  <ele>362.47</ele>
  <time>2026-09-01T19:58:16Z</time>
  <course>191.38</course>
  <speed>25.311538870641588</speed>
  <fix>3d</fix>
</trkpt>
<trkpt lat="-27.2725748" lon="151.2905033">
  <ele>362.53</ele>
  <time>2026-09-01T19:58:16Z</time>
  <course>191.75</course>
  <speed>25.35</speed>
  <fix>3d</fix>
</trkpt>
<trkpt lat="-27.2726627" lon="151.2904826">
  <ele>362.48</ele>
  <time>2026-09-01T19:58:16Z</time>
  <course>191.38</course>
  <speed>25.311538870641588</speed>
  <fix>3d</fix>
</trkpt>
<trkpt lat="-27.2726193" lon="151.2904929">
  <ele>362.56</ele>
  <time>2026-09-01T19:58:16Z</time>
  <course>191.75</course>
  <speed>25.35</speed>
  <fix>3d</fix>
</trkpt>
<trkpt lat="-27.272685" lon="151.2904774">
  <ele>362.49</ele>
  <time>2026-09-01T19:58:16Z</time>
  <course>191.44</course>
  <speed>25.311538870641588</speed>
  <fix>3d</fix>
</trkpt>
<trkpt lat="-27.2726193" lon="151.2904929">
  <ele>362.56</ele>
  <time>2026-09-01T19:58:16Z</time>
  <course>191.75</course>
  <speed>25.35</speed>
  <fix>3d</fix>
</trkpt>
<trkpt lat="-27.2727073" lon="151.2904722">
  <ele>362.5</ele>
  <time>2026-09-01T19:58:16Z</time>
  <course>191.43</course>
  <speed>25.321328954065585</speed>
  <fix>3d</fix>
</trkpt>
<trkpt lat="-27.272664" lon="151.2904825">
  <ele>362.57</ele>
  <time>2026-09-01T19:58:16Z</time>
  <course>191.75</course>
  <speed>25.35</speed>
  <fix>3d</fix>
</trkpt>
<trkpt lat="-27.2727296" lon="151.290467">
  <ele>362.51</ele>
  <time>2026-09-01T19:58:16Z</time>
  <course>191.38</course>
  <speed>25.321328954065585</speed>
  <fix>3d</fix>
</trkpt>
<trkpt lat="-27.272664" lon="151.2904825">
  <ele>362.57</ele>
  <time>2026-09-01T19:58:16Z</time>
  <course>191.75</course>
  <speed>25.35</speed>
  <fix>3d</fix>
</trkpt>
<trkpt lat="-27.2727519" lon="151.2904618">
  <ele>362.52</ele>
  <time>2026-09-01T19:58:16Z</time>
  <course>191.36</course>
  <speed>25.321328954065585</speed>
  <fix>3d</fix>
</trkpt>
<trkpt lat="-27.2727087" lon="151.290472">
  <ele>362.59</ele>
  <time>2026-09-01T19:58:16Z</time>
  <course>191.75</course>
  <speed>25.36</speed>
  <fix>3d</fix>
</trkpt>
<trkpt lat="-27.2727744" lon="151.2904565">
  <ele>362.53</ele>
  <time>2026-09-01T19:58:16Z</time>
  <course>191.36</course>
  <speed>25.3192930391036</speed>
  <fix>3d</fix>
</trkpt>
<trkpt lat="-27.2727087" lon="151.290472">
  <ele>362.59</ele>
  <time>2026-09-01T19:58:16Z</time>
  <course>191.75</course>
  <speed>25.36</speed>
  <fix>3d</fix>
</trkpt>
<trkpt lat="-27.2727967" lon="151.2904513">
  <ele>362.54</ele>
  <time>2026-09-01T19:58:16Z</time>
  <course>191.38</course>
  <speed>25.3192930391036</speed>
  <fix>3d</fix>
</trkpt>
<trkpt lat="-27.2727534" lon="151.2904615">
  <ele>362.61</ele>
  <time>2026-09-01T19:58:16Z</time>
  <course>191.74</course>
  <speed>25.36</speed>
  <fix>3d</fix>
</trkpt>
<trkpt lat="-27.272819" lon="151.2904461">
  <ele>362.55</ele>
  <time>2026-09-01T19:58:16Z</time>
  <course>191.41</course>
  <speed>25.329084073452005</speed>
  <fix>3d</fix>
</trkpt>
<trkpt lat="-27.2727534" lon="151.2904615">
  <ele>362.61</ele>
  <time>2026-09-01T19:58:16Z</time>
  <course>191.74</course>
  <speed>25.36</speed>
  <fix>3d</fix>
</trkpt>
<trkpt lat="-27.2728421" lon="151.2904407">
  <ele>362.56</ele>
  <time>2026-09-01T19:58:16Z</time>
  <course>191.39</course>
  <speed>25.329084073452005</speed>
  <fix>3d</fix>
</trkpt>
<trkpt lat="-27.272798" lon="151.290451">
  <ele>362.64</ele>
  <time>2026-09-01T19:58:16Z</time>
  <course>191.74</course>
  <speed>25.36</speed>
  <fix>3d</fix>
</trkpt>
<trkpt lat="-27.2728642" lon="151.2904355">
  <ele>362.57</ele>
  <time>2026-09-01T19:58:16Z</time>
  <course>191.37</course>
  <speed>25.331119201488118</speed>
  <fix>3d</fix>
</trkpt>
<trkpt lat="-27.272798" lon="151.290451">
  <ele>362.64</ele>
  <time>2026-09-01T19:58:16Z</time>
  <course>191.74</course>
  <speed>25.36</speed>
  <fix>3d</fix>
</trkpt>
<trkpt lat="-27.2728865" lon="151.2904303">
  <ele>362.57</ele>
  <time>2026-09-01T19:58:16Z</time>
  <course>191.36</course>
  <speed>25.331119201488118</speed>
  <fix>3d</fix>
</trkpt>
<trkpt lat="-27.2728426" lon="151.2904406">
  <ele>362.65</ele>
  <time>2026-09-01T19:58:16Z</time>
  <course>191.73</course>
  <speed>25.36</speed>
  <fix>3d</fix>
</trkpt>
<trkpt lat="-27.2729088" lon="151.2904251">
  <ele>362.58</ele>
  <time>2026-09-01T19:58:16Z</time>
  <course>191.36</course>
  <speed>25.331119201488118</speed>
  <fix>3d</fix>
</trkpt>
<trkpt lat="-27.2728426" lon="151.2904406">
  <ele>362.65</ele>
  <time>2026-09-01T19:58:16Z</time>
  <course>191.73</course>
  <speed>25.36</speed>
  <fix>3d</fix>
</trkpt>
<trkpt lat="-27.2729312" lon="151.2904199">
  <ele>362.59</ele>
  <time>2026-09-01T19:58:16Z</time>
  <course>191.33</course>
  <speed>25.338875271013904</speed>
  <fix>3d</fix>
</trkpt>
<trkpt lat="-27.2728872" lon="151.2904303">
  <ele>362.66</ele>
  <time>2026-09-01T19:58:16Z</time>
  <course>191.73</course>
  <speed>25.36</speed>
  <fix>3d</fix>
</trkpt>
<trkpt lat="-27.2729537" lon="151.2904146">
  <ele>362.61</ele>
  <time>2026-09-01T19:58:16Z</time>
  <course>191.34</course>
  <speed>25.338875271013904</speed>
  <fix>3d</fix>
</trkpt>
<trkpt lat="-27.2728872" lon="151.2904303">
  <ele>362.66</ele>
  <time>2026-09-01T19:58:16Z</time>
  <course>191.73</course>
  <speed>25.36</speed>
  <fix>3d</fix>
</trkpt>
<trkpt lat="-27.2729755" lon="151.2904096">
  <ele>362.62</ele>
  <time>2026-09-01T19:58:16Z</time>
  <course>191.37</course>
  <speed>25.338875271013904</speed>
  <fix>3d</fix>
</trkpt>
<trkpt lat="-27.2729318" lon="151.2904198">
  <ele>362.69</ele>
  <time>2026-09-01T19:58:16Z</time>
  <course>191.72</course>
  <speed>25.37</speed>
  <fix>3d</fix>
</trkpt>
<trkpt lat="-27.2729978" lon="151.2904043">
  <ele>362.64</ele>
  <time>2026-09-01T19:58:16Z</time>
  <course>191.37</course>
  <speed>25.338875271013904</speed>
  <fix>3d</fix>
</trkpt>
<trkpt lat="-27.2729318" lon="151.2904198">
  <ele>362.69</ele>
  <time>2026-09-01T19:58:16Z</time>
  <course>191.72</course>
  <speed>25.37</speed>
  <fix>3d</fix>
</trkpt>
<trkpt lat="-27.2730201" lon="151.2903991">
  <ele>362.64</ele>
  <time>2026-09-01T19:58:16Z</time>
  <course>191.43</course>
  <speed>25.338875271013904</speed>
  <fix>3d</fix>
</trkpt>
<trkpt lat="-27.2729764" lon="151.2904093">
  <ele>362.72</ele>
  <time>2026-09-01T19:58:16Z</time>
  <course>191.72</course>
  <speed>25.36</speed>
  <fix>3d</fix>
</trkpt>
<trkpt lat="-27.2730424" lon="151.2903939">
  <ele>362.65</ele>
  <time>2026-09-01T19:58:16Z</time>
  <course>191.44</course>
  <speed>25.338875271013904</speed>
  <fix>3d</fix>
</trkpt>
<trkpt lat="-27.2729764" lon="151.2904093">
  <ele>362.72</ele>
  <time>2026-09-01T19:58:16Z</time>
  <course>191.72</course>
  <speed>25.36</speed>
  <fix>3d</fix>
</trkpt>
<trkpt lat="-27.2730646" lon="151.2903887">
  <ele>362.66</ele>
  <time>2026-09-01T19:58:16Z</time>
  <course>191.39</course>
  <speed>25.331119201488118</speed>
  <fix>3d</fix>
</trkpt>
<trkpt lat="-27.273021" lon="151.2903989">
  <ele>362.74</ele>
  <time>2026-09-01T19:58:16Z</time>
  <course>191.72</course>
  <speed>25.36</speed>
  <fix>3d</fix>
</trkpt>
<trkpt lat="-27.2730868" lon="151.2903836">
  <ele>362.67</ele>
  <time>2026-09-01T19:58:16Z</time>
  <course>191.35</course>
  <speed>25.329084073452005</speed>
  <fix>3d</fix>
</trkpt>
<trkpt lat="-27.273021" lon="151.2903989">
  <ele>362.74</ele>
  <time>2026-09-01T19:58:16Z</time>
  <course>191.72</course>
  <speed>25.36</speed>
  <fix>3d</fix>
</trkpt>
<trkpt lat="-27.2731089" lon="151.2903784">
  <ele>362.68</ele>
  <time>2026-09-01T19:58:16Z</time>
  <course>191.42</course>
  <speed>25.3192930391036</speed>
  <fix>3d</fix>
</trkpt>
<trkpt lat="-27.2730656" lon="151.2903886">
  <ele>362.76</ele>
  <time>2026-09-01T19:58:16Z</time>
  <course>191.73</course>
  <speed>25.36</speed>
  <fix>3d</fix>
</trkpt>
<trkpt lat="-27.2731309" lon="151.2903732">
  <ele>362.68</ele>
  <time>2026-09-01T19:58:16Z</time>
  <course>191.51</course>
  <speed>25.311538870641588</speed>
  <fix>3d</fix>
</trkpt>
<trkpt lat="-27.2730656" lon="151.2903886">
  <ele>362.76</ele>
  <time>2026-09-01T19:58:16Z</time>
  <course>191.73</course>
  <speed>25.36</speed>
  <fix>3d</fix>
</trkpt>
<trkpt lat="-27.273153" lon="151.2903681">
  <ele>362.69</ele>
  <time>2026-09-01T19:58:16Z</time>
  <course>191.48</course>
  <speed>25.301748951406502</speed>
  <fix>3d</fix>
</trkpt>
<trkpt lat="-27.2731102" lon="151.2903782">
  <ele>362.78</ele>
  <time>2026-09-01T19:58:16Z</time>
  <course>191.73</course>
  <speed>25.36</speed>
  <fix>3d</fix>
</trkpt>
<trkpt lat="-27.2731752" lon="151.2903629">
  <ele>362.69</ele>
  <time>2026-09-01T19:58:16Z</time>
  <course>191.49</course>
  <speed>25.301748951406502</speed>
  <fix>3d</fix>
</trkpt>
<trkpt lat="-27.2731102" lon="151.2903782">
  <ele>362.78</ele>
  <time>2026-09-01T19:58:16Z</time>
  <course>191.73</course>
  <speed>25.36</speed>
  <fix>3d</fix>
</trkpt>
<trkpt lat="-27.2731973" lon="151.2903577">
  <ele>362.7</ele>
  <time>2026-09-01T19:58:16Z</time>
  <course>191.44</course>
  <speed>25.294001265122134</speed>
  <fix>3d</fix>
</trkpt>
<trkpt lat="-27.2731548" lon="151.2903677">
  <ele>362.79</ele>
  <time>2026-09-01T19:58:16Z</time>
  <course>191.75</course>
  <speed>25.36</speed>
  <fix>3d</fix>
</trkpt>
<trkpt lat="-27.2732196" lon="151.2903525">
  <ele>362.71</ele>
  <time>2026-09-01T19:58:16Z</time>
  <course>191.49</course>
  <speed>25.294001265122134</speed>
  <fix>3d</fix>
</trkpt>
<trkpt lat="-27.2731548" lon="151.2903677">
  <ele>362.79</ele>
  <time>2026-09-01T19:58:16Z</time>
  <course>191.75</course>
  <speed>25.36</speed>
  <fix>3d</fix>
</trkpt>
<trkpt lat="-27.2732418" lon="151.2903473">
  <ele>362.71</ele>
  <time>2026-09-01T19:58:16Z</time>
  <course>191.73</course>
  <speed>25.296047122030746</speed>
  <fix>3d</fix>
</trkpt>
<trkpt lat="-27.2731994" lon="151.2903572">
  <ele>362.8</ele>
  <time>2026-09-01T19:58:16Z</time>
  <course>191.77</course>
  <speed>25.36</speed>
  <fix>3d</fix>
</trkpt>
<trkpt lat="-27.273264" lon="151.290342">
  <ele>362.72</ele>
  <time>2026-09-01T19:58:16Z</time>
  <course>192.27</course>
  <speed>25.304268414637086</speed>
  <fix>3d</fix>
</trkpt>
<trkpt lat="-27.2731994" lon="151.2903572">
  <ele>362.8</ele>
  <time>2026-09-01T19:58:16Z</time>
  <course>191.77</course>
  <speed>25.36</speed>
  <fix>3d</fix>
</trkpt>
<trkpt lat="-27.2732869" lon="151.2903365">
  <ele>362.74</ele>
  <time>2026-09-01T19:58:16Z</time>
  <course>193.05</course>
  <speed>25.30208291821051</speed>
  <fix>3d</fix>
</trkpt>
<trkpt lat="-27.2732442" lon="151.2903467">
  <ele>362.81</ele>
  <time>2026-09-01T19:58:16Z</time>
  <course>191.83</course>
  <speed>25.37</speed>
  <fix>3d</fix>
</trkpt>
<trkpt lat="-27.273309" lon="151.290331">
  <ele>362.76</ele>
  <time>2026-09-01T19:58:16Z</time>
  <course>193.8</course>
  <speed>25.29674287334241</speed>
  <fix>3d</fix>
</trkpt>
<trkpt lat="-27.2732442" lon="151.2903467">
  <ele>362.81</ele>
  <time>2026-09-01T19:58:16Z</time>
  <course>191.83</course>
  <speed>25.37</speed>
  <fix>3d</fix>
</trkpt>
<trkpt lat="-27.2733309" lon="151.2903251">
  <ele>362.79</ele>
  <time>2026-09-01T19:58:16Z</time>
  <course>194.51</course>
  <speed>25.30378825393542</speed>
  <fix>3d</fix>
</trkpt>
<trkpt lat="-27.2732887" lon="151.290336">
  <ele>362.83</ele>
  <time>2026-09-01T19:58:16Z</time>
  <course>192.33</course>
  <speed>25.38</speed>
  <fix>3d</fix>
</trkpt>
<trkpt lat="-27.2733529" lon="151.2903187">
  <ele>362.83</ele>
  <time>2026-09-01T19:58:16Z</time>
  <course>195.28</course>
  <speed>25.31280505989014</speed>
  <fix>3d</fix>
</trkpt>
<trkpt lat="-27.2732887" lon="151.290336">
  <ele>362.83</ele>
  <time>2026-09-01T19:58:16Z</time>
  <course>192.33</course>
  <speed>25.38</speed>
  <fix>3d</fix>
</trkpt>
<trkpt lat="-27.2733747" lon="151.2903115">
  <ele>362.88</ele>
  <time>2026-09-01T19:58:16Z</time>
  <course>196.37</course>
  <speed>25.336238868466644</speed>
  <fix>3d</fix>
</trkpt>
<trkpt lat="-27.2733331" lon="151.2903244">
  <ele>362.89</ele>
  <time>2026-09-01T19:58:16Z</time>
  <course>194.0</course>
  <speed>25.38</speed>
  <fix>3d</fix>
</trkpt>
<trkpt lat="-27.2733964" lon="151.2903035">
  <ele>362.94</ele>
  <time>2026-09-01T19:58:16Z</time>
  <course>198.13</course>
  <speed>25.370920361705448</speed>
  <fix>3d</fix>
</trkpt>
<trkpt lat="-27.2733331" lon="151.2903244">
  <ele>362.89</ele>
  <time>2026-09-01T19:58:16Z</time>
  <course>194.0</course>
  <speed>25.38</speed>
  <fix>3d</fix>
</trkpt>
<trkpt lat="-27.2734179" lon="151.2902944">
  <ele>363.0</ele>
  <time>2026-09-01T19:58:16Z</time>
  <course>200.62</course>
  <speed>25.416234969011438</speed>
  <fix>3d</fix>
</trkpt>
<trkpt lat="-27.2733771" lon="151.2903107">
  <ele>362.97</ele>
  <time>2026-09-01T19:58:16Z</time>
  <course>197.17</course>
  <speed>25.4</speed>
  <fix>3d</fix>
</trkpt>
<trkpt lat="-27.2734389" lon="151.2902842">
  <ele>363.09</ele>
  <time>2026-09-01T19:58:16Z</time>
  <course>203.61</course>
  <speed>25.478245622491357</speed>
  <fix>3d</fix>
</trkpt>
<trkpt lat="-27.2733771" lon="151.2903107">
  <ele>362.97</ele>
  <time>2026-09-01T19:58:16Z</time>
  <course>197.17</course>
  <speed>25.4</speed>
  <fix>3d</fix>
</trkpt>
<trkpt lat="-27.2734594" lon="151.2902727">
  <ele>363.21</ele>
  <time>2026-09-01T19:58:16Z</time>
  <course>206.84</course>
  <speed>25.54788640964258</speed>
  <fix>3d</fix>
</trkpt>
<trkpt lat="-27.2734201" lon="151.2902937">
  <ele>363.1</ele>
  <time>2026-09-01T19:58:16Z</time>
  <course>201.93</course>
  <speed>25.46</speed>
  <fix>3d</fix>
</trkpt>
<trkpt lat="-27.2734793" lon="151.2902598">
  <ele>363.36</ele>
  <time>2026-09-01T19:58:16Z</time>
  <course>210.18</course>
  <speed>25.5950092791544</speed>
  <fix>3d</fix>
</trkpt>
<trkpt lat="-27.2734201" lon="151.2902937">
  <ele>363.1</ele>
  <time>2026-09-01T19:58:16Z</time>
  <course>201.93</course>
  <speed>25.46</speed>
  <fix>3d</fix>
</trkpt>
<trkpt lat="-27.2734985" lon="151.2902456">
  <ele>363.55</ele>
  <time>2026-09-01T19:58:16Z</time>
  <course>213.61</course>
  <speed>25.61674842754248</speed>
  <fix>3d</fix>
</trkpt>
<trkpt lat="-27.2734617" lon="151.2902719">
  <ele>363.31</ele>
  <time>2026-09-01T19:58:16Z</time>
  <course>208.08</course>
  <speed>25.55</speed>
  <fix>3d</fix>
</trkpt>
<trkpt lat="-27.273517" lon="151.2902301">
  <ele>363.78</ele>
  <time>2026-09-01T19:58:16Z</time>
  <course>216.94</course>
  <speed>25.64374387643115</speed>
  <fix>3d</fix>
</trkpt>
<trkpt lat="-27.2734617" lon="151.2902719">
  <ele>363.31</ele>
  <time>2026-09-01T19:58:16Z</time>
  <course>208.08</course>
  <speed>25.55</speed>
  <fix>3d</fix>
</trkpt>
<trkpt lat="-27.2735346" lon="151.2902135">
  <ele>364.04</ele>
  <time>2026-09-01T19:58:16Z</time>
  <course>220.09</course>
  <speed>25.63552613074286</speed>
  <fix>3d</fix>
</trkpt>
<trkpt lat="-27.2735009" lon="151.290245">
  <ele>363.65</ele>
  <time>2026-09-01T19:58:16Z</time>
  <course>214.86</course>
  <speed>25.61</speed>
  <fix>3d</fix>
</trkpt>
<trkpt lat="-27.273551" lon="151.2901963">
  <ele>364.34</ele>
  <time>2026-09-01T19:58:16Z</time>
  <course>223.1</course>
  <speed>25.604345334337296</speed>
  <fix>3d</fix>
</trkpt>
<trkpt lat="-27.2735009" lon="151.290245">
  <ele>363.65</ele>
  <time>2026-09-01T19:58:16Z</time>
  <course>214.86</course>
  <speed>25.61</speed>
  <fix>3d</fix>
</trkpt>
<trkpt lat="-27.2735668" lon="151.2901779">
  <ele>364.66</ele>
  <time>2026-09-01T19:58:16Z</time>
  <course>226.07</course>
  <speed>25.575269304544967</speed>
  <fix>3d</fix>
</trkpt>
<trkpt lat="-27.273537" lon="151.290213">
  <ele>364.14</ele>
  <time>2026-09-01T19:58:16Z</time>
  <course>221.52</course>
  <speed>25.62</speed>
  <fix>3d</fix>
</trkpt>
<trkpt lat="-27.2735818" lon="151.2901583">
  <ele>365.02</ele>
  <time>2026-09-01T19:58:16Z</time>
  <course>228.92</course>
  <speed>25.544347711382258</speed>
  <fix>3d</fix>
</trkpt>
<trkpt lat="-27.273537" lon="151.290213">
  <ele>364.14</ele>
  <time>2026-09-01T19:58:16Z</time>
  <course>221.52</course>
  <speed>25.62</speed>
  <fix>3d</fix>
</trkpt>
<trkpt lat="-27.2735959" lon="151.290138">
  <ele>365.4</ele>
  <time>2026-09-01T19:58:16Z</time>
  <course>231.62</course>
  <speed>25.509835358151566</speed>
  <fix>3d</fix>
</trkpt>
<trkpt lat="-27.2735696" lon="151.2901766">
  <ele>364.76</ele>
  <time>2026-09-01T19:58:16Z</time>
  <course>227.79</course>
  <speed>25.56</speed>
  <fix>3d</fix>
</trkpt>
<trkpt lat="-27.2736091" lon="151.290117">
  <ele>365.79</ele>
  <time>2026-09-01T19:58:16Z</time>
  <course>234.22</course>
  <speed>25.469277571222943</speed>
  <fix>3d</fix>
</trkpt>
<trkpt lat="-27.2735696" lon="151.2901766">
  <ele>364.76</ele>
  <time>2026-09-01T19:58:16Z</time>
  <course>227.79</course>
  <speed>25.56</speed>
  <fix>3d</fix>
</trkpt>
<trkpt lat="-27.2736215" lon="151.2900952">
  <ele>366.2</ele>
  <time>2026-09-01T19:58:16Z</time>
  <course>236.65</course>
  <speed>25.428143856758403</speed>
  <fix>3d</fix>
</trkpt>
<trkpt lat="-27.2735987" lon="151.2901365">
  <ele>365.47</ele>
  <time>2026-09-01T19:58:16Z</time>
  <course>233.66</course>
  <speed>25.48</speed>
  <fix>3d</fix>
</trkpt>
<trkpt lat="-27.2736329" lon="151.2900729">
  <ele>366.61</ele>
  <time>2026-09-01T19:58:16Z</time>
  <course>239.01</course>
  <speed>25.374540389926278</speed>
  <fix>3d</fix>
</trkpt>
<trkpt lat="-27.2735987" lon="151.2901365">
  <ele>365.47</ele>
  <time>2026-09-01T19:58:16Z</time>
  <course>233.66</course>
  <speed>25.48</speed>
  <fix>3d</fix>
</trkpt>
<trkpt lat="-27.2736435" lon="151.2900502">
  <ele>367.03</ele>
  <time>2026-09-01T19:58:16Z</time>
  <course>241.01</course>
  <speed>25.317491976892185</speed>
  <fix>3d</fix>
</trkpt>
<trkpt lat="-27.273624" lon="151.2900937">
  <ele>366.27</ele>
  <time>2026-09-01T19:58:16Z</time>
  <course>239.03</course>
  <speed>25.39</speed>
  <fix>3d</fix>
</trkpt>
<trkpt lat="-27.2736536" lon="151.2900264">
  <ele>367.47</ele>
  <time>2026-09-01T19:58:16Z</time>
  <course>242.74</course>
  <speed>25.259843625802596</speed>
  <fix>3d</fix>
</trkpt>
<trkpt lat="-27.273624" lon="151.2900937">
  <ele>366.27</ele>
  <time>2026-09-01T19:58:16Z</time>
  <course>239.03</course>
  <speed>25.39</speed>
  <fix>3d</fix>
</trkpt>
<trkpt lat="-27.2736626" lon="151.2900032">
  <ele>367.88</ele>
  <time>2026-09-01T19:58:16Z</time>
  <course>244.32</course>
  <speed>25.200198411917317</speed>
  <fix>3d</fix>
</trkpt>
<trkpt lat="-27.2736458" lon="151.2900487">
  <ele>367.09</ele>
  <time>2026-09-01T19:58:16Z</time>
  <course>243.73</course>
  <speed>25.28</speed>
  <fix>3d</fix>
</trkpt>
<trkpt lat="-27.2736711" lon="151.2899796">
  <ele>368.29</ele>
  <time>2026-09-01T19:58:16Z</time>
  <course>245.64</course>
  <speed>25.140837297114828</speed>
  <fix>3d</fix>
</trkpt>
<trkpt lat="-27.2736458" lon="151.2900487">
  <ele>367.09</ele>
  <time>2026-09-01T19:58:16Z</time>
  <course>243.73</course>
  <speed>25.28</speed>
  <fix>3d</fix>
</trkpt>
<trkpt lat="-27.273679" lon="151.2899558">
  <ele>368.68</ele>
  <time>2026-09-01T19:58:16Z</time>
  <course>246.67</course>
  <speed>25.076574726226067</speed>
  <fix>3d</fix>
</trkpt>
<trkpt lat="-27.2736644" lon="151.2900022">
  <ele>367.91</ele>
  <time>2026-09-01T19:58:16Z</time>
  <course>247.53</course>
  <speed>25.16</speed>
  <fix>3d</fix>
</trkpt>
<trkpt lat="-27.2736865" lon="151.2899319">
  <ele>369.05</ele>
  <time>2026-09-01T19:58:16Z</time>
  <course>247.51</course>
  <speed>25.013936115693586</speed>
  <fix>3d</fix>
</trkpt>
<trkpt lat="-27.2736644" lon="151.2900022">
  <ele>367.91</ele>
  <time>2026-09-01T19:58:16Z</time>
  <course>247.53</course>
  <speed>25.16</speed>
  <fix>3d</fix>
</trkpt>
<trkpt lat="-27.2736937" lon="151.289908">
  <ele>369.39</ele>
  <time>2026-09-01T19:58:16Z</time>
  <course>248.31</course>
  <speed>24.95751590202839</speed>
  <fix>3d</fix>
</trkpt>
<trkpt lat="-27.2736805" lon="151.2899549">
  <ele>368.69</ele>
  <time>2026-09-01T19:58:16Z</time>
  <course>250.29</course>
  <speed>25.04</speed>
  <fix>3d</fix>
</trkpt>
<trkpt lat="-27.2737007" lon="151.2898838">
  <ele>369.69</ele>
  <time>2026-09-01T19:58:16Z</time>
  <course>249.11</course>
  <speed>24.910736641054996</speed>
  <fix>3d</fix>
</trkpt>
<trkpt lat="-27.2736805" lon="151.2899549">
  <ele>368.69</ele>
  <time>2026-09-01T19:58:16Z</time>
  <course>250.29</course>
  <speed>25.04</speed>
  <fix>3d</fix>
</trkpt>
<trkpt lat="-27.2737073" lon="151.2898598">
  <ele>369.96</ele>
  <time>2026-09-01T19:58:16Z</time>
  <course>249.9</course>
  <speed>24.85656653683288</speed>
  <fix>3d</fix>
</trkpt>
<trkpt lat="-27.2736949" lon="151.2899071">
  <ele>369.38</ele>
  <time>2026-09-01T19:58:16Z</time>
  <course>252.13</course>
  <speed>24.92</speed>
  <fix>3d</fix>
</trkpt>
<trkpt lat="-27.2737137" lon="151.2898357">
  <ele>370.18</ele>
  <time>2026-09-01T19:58:16Z</time>
  <course>250.64</course>
  <speed>24.810401044723157</speed>
  <fix>3d</fix>
</trkpt>
<trkpt lat="-27.2736949" lon="151.2899071">
  <ele>369.38</ele>
  <time>2026-09-01T19:58:16Z</time>
  <course>252.13</course>
  <speed>24.92</speed>
  <fix>3d</fix>
</trkpt>
<trkpt lat="-27.2737199" lon="151.2898117">
  <ele>370.35</ele>
  <time>2026-09-01T19:58:16Z</time>
  <course>251.33</course>
  <speed>24.769012899185142</speed>
  <fix>3d</fix>
</trkpt>
<trkpt lat="-27.2737081" lon="151.2898591">
  <ele>369.94</ele>
  <time>2026-09-01T19:58:16Z</time>
  <course>253.41</course>
  <speed>24.82</speed>
  <fix>3d</fix>
</trkpt>
<trkpt lat="-27.2737258" lon="151.2897876">
  <ele>370.49</ele>
  <time>2026-09-01T19:58:16Z</time>
  <course>252.03</course>
  <speed>24.73655190199313</speed>
  <fix>3d</fix>
</trkpt>
<trkpt lat="-27.2737081" lon="151.2898591">
  <ele>369.94</ele>
  <time>2026-09-01T19:58:16Z</time>
  <course>253.41</course>
  <speed>24.82</speed>
  <fix>3d</fix>
</trkpt>
<trkpt lat="-27.2737316" lon="151.2897635">
  <ele>370.59</ele>
  <time>2026-09-01T19:58:16Z</time>
  <course>252.78</course>
  <speed>24.706225935986257</speed>
  <fix>3d</fix>
</trkpt>
<trkpt lat="-27.2737204" lon="151.2898109">
  <ele>370.33</ele>
  <time>2026-09-01T19:58:16Z</time>
  <course>254.48</course>
  <speed>24.74</speed>
  <fix>3d</fix>
</trkpt>
<trkpt lat="-27.2737371" lon="151.2897393">
  <ele>370.66</ele>
  <time>2026-09-01T19:58:16Z</time>
  <course>253.48</course>
  <speed>24.685299268998136</speed>
  <fix>3d</fix>
</trkpt>
<trkpt lat="-27.2737204" lon="151.2898109">
  <ele>370.33</ele>
  <time>2026-09-01T19:58:16Z</time>
  <course>254.48</course>
  <speed>24.74</speed>
  <fix>3d</fix>
</trkpt>
<trkpt lat="-27.2737424" lon="151.2897151">
  <ele>370.71</ele>
  <time>2026-09-01T19:58:16Z</time>
  <course>254.15</course>
  <speed>24.666754954796954</speed>
  <fix>3d</fix>
</trkpt>
<trkpt lat="-27.2737319" lon="151.2897627">
  <ele>370.57</ele>
  <time>2026-09-01T19:58:16Z</time>
  <course>255.55</course>
  <speed>24.67</speed>
  <fix>3d</fix>
</trkpt>
<trkpt lat="-27.2737475" lon="151.2896909">
  <ele>370.72</ele>
  <time>2026-09-01T19:58:16Z</time>
  <course>254.88</course>
  <speed>24.670087150231147</speed>
  <fix>3d</fix>
</trkpt>
<trkpt lat="-27.2737319" lon="151.2897627">
  <ele>370.57</ele>
  <time>2026-09-01T19:58:16Z</time>
  <course>255.55</course>
  <speed>24.67</speed>
  <fix>3d</fix>
</trkpt>
<trkpt lat="-27.2737523" lon="151.2896665">
  <ele>370.73</ele>
  <time>2026-09-01T19:58:16Z</time>
  <course>255.63</course>
  <speed>24.661842996824063</speed>
  <fix>3d</fix>
</trkpt>
<trkpt lat="-27.2737426" lon="151.2897143">
  <ele>370.69</ele>
  <time>2026-09-01T19:58:16Z</time>
  <course>256.67</course>
  <speed>24.64</speed>
  <fix>3d</fix>
</trkpt>
<trkpt lat="-27.2737569" lon="151.2896422">
  <ele>370.71</ele>
  <time>2026-09-01T19:58:16Z</time>
  <course>256.34</course>
  <speed>24.676020748897095</speed>
  <fix>3d</fix>
</trkpt>
<trkpt lat="-27.2737426" lon="151.2897143">
  <ele>370.69</ele>
  <time>2026-09-01T19:58:16Z</time>
  <course>256.67</course>
  <speed>24.64</speed>
  <fix>3d</fix>
</trkpt>
<trkpt lat="-27.2737613" lon="151.2896177">
  <ele>370.69</ele>
  <time>2026-09-01T19:58:16Z</time>
  <course>257.04</course>
  <speed>24.69698969510252</speed>
  <fix>3d</fix>
</trkpt>
<trkpt lat="-27.2737523" lon="151.2896658">
  <ele>370.71</ele>
  <time>2026-09-01T19:58:16Z</time>
  <course>257.86</course>
  <speed>24.64</speed>
  <fix>3d</fix>
</trkpt>
<trkpt lat="-27.2737654" lon="151.2895932">
  <ele>370.66</ele>
  <time>2026-09-01T19:58:16Z</time>
  <course>257.72</course>
  <speed>24.720469251209614</speed>
  <fix>3d</fix>
</trkpt>
<trkpt lat="-27.2737523" lon="151.2896658">
  <ele>370.71</ele>
  <time>2026-09-01T19:58:16Z</time>
  <course>257.86</course>
  <speed>24.64</speed>
  <fix>3d</fix>
</trkpt>
<trkpt lat="-27.2737694" lon="151.2895686">
  <ele>370.63</ele>
  <time>2026-09-01T19:58:16Z</time>
  <course>258.38</course>
  <speed>24.7464522709822</speed>
  <fix>3d</fix>
</trkpt>
<trkpt lat="-27.2737612" lon="151.2896169">
  <ele>370.68</ele>
  <time>2026-09-01T19:58:16Z</time>
  <course>259.05</course>
  <speed>24.67</speed>
  <fix>3d</fix>
</trkpt>
<trkpt lat="-27.273773" lon="151.2895446">
  <ele>370.59</ele>
  <time>2026-09-01T19:58:16Z</time>
  <course>259.02</course>
  <speed>24.776571594956394</speed>
  <fix>3d</fix>
</trkpt>
<trkpt lat="-27.2737612" lon="151.2896169">
  <ele>370.68</ele>
  <time>2026-09-01T19:58:16Z</time>
  <course>259.05</course>
  <speed>24.67</speed>
  <fix>3d</fix>
</trkpt>
<trkpt lat="-27.2737766" lon="151.289519">
  <ele>370.55</ele>
  <time>2026-09-01T19:58:16Z</time>
  <course>259.6</course>
  <speed>24.81886379349385</speed>
  <fix>3d</fix>
</trkpt>
<trkpt lat="-27.2737691" lon="151.2895677">
  <ele>370.61</ele>
  <time>2026-09-01T19:58:16Z</time>
  <course>260.2</course>
  <speed>24.73</speed>
  <fix>3d</fix>
</trkpt>
<trkpt lat="-27.2737799" lon="151.2894944">
  <ele>370.51</ele>
  <time>2026-09-01T19:58:16Z</time>
  <course>260.12</course>
  <speed>24.856488086614327</speed>
  <fix>3d</fix>
</trkpt>
<trkpt lat="-27.2737691" lon="151.2895677">
  <ele>370.61</ele>
  <time>2026-09-01T19:58:16Z</time>
  <course>260.2</course>
  <speed>24.73</speed>
  <fix>3d</fix>
</trkpt>
<trkpt lat="-27.273783" lon="151.2894696">
  <ele>370.47</ele>
  <time>2026-09-01T19:58:16Z</time>
  <course>260.59</course>
  <speed>24.908683224931824</speed>
  <fix>3d</fix>
</trkpt>
<trkpt lat="-27.2737763" lon="151.2895183">
  <ele>370.53</ele>
  <time>2026-09-01T19:58:16Z</time>
  <course>261.28</course>
  <speed>24.8</speed>
  <fix>3d</fix>
</trkpt>
<trkpt lat="-27.273786" lon="151.2894446">
  <ele>370.43</ele>
  <time>2026-09-01T19:58:16Z</time>
  <course>261.15</course>
  <speed>24.942642201659392</speed>
  <fix>3d</fix>
</trkpt>
<trkpt lat="-27.2737763" lon="151.2895183">
  <ele>370.53</ele>
  <time>2026-09-01T19:58:16Z</time>
  <course>261.28</course>
  <speed>24.8</speed>
  <fix>3d</fix>
</trkpt>
<trkpt lat="-27.2737887" lon="151.2894196">
  <ele>370.39</ele>
  <time>2026-09-01T19:58:16Z</time>
  <course>261.68</course>
  <speed>24.990526204944146</speed>
  <fix>3d</fix>
</trkpt>
<trkpt lat="-27.2737827" lon="151.2894686">
  <ele>370.45</ele>
  <time>2026-09-01T19:58:16Z</time>
  <course>262.25</course>
  <speed>24.89</speed>
  <fix>3d</fix>
</trkpt>
<trkpt lat="-27.2737914" lon="151.2893943">
  <ele>370.36</ele>
  <time>2026-09-01T19:58:16Z</time>
  <course>262.19</course>
  <speed>25.039668528157478</speed>
  <fix>3d</fix>
</trkpt>
<trkpt lat="-27.2737827" lon="151.2894686">
  <ele>370.45</ele>
  <time>2026-09-01T19:58:16Z</time>
  <course>262.25</course>
  <speed>24.89</speed>
  <fix>3d</fix>
</trkpt>
<trkpt lat="-27.2737939" lon="151.2893691">
  <ele>370.33</ele>
  <time>2026-09-01T19:58:16Z</time>
  <course>262.58</course>
  <speed>25.081216078970332</speed>
  <fix>3d</fix>
</trkpt>
<trkpt lat="-27.2737884" lon="151.2894186">
  <ele>370.37</ele>
  <time>2026-09-01T19:58:16Z</time>
  <course>263.1</course>
  <speed>24.98</speed>
  <fix>3d</fix>
</trkpt>
<trkpt lat="-27.2737962" lon="151.2893439">
  <ele>370.31</ele>
  <time>2026-09-01T19:58:16Z</time>
  <course>262.95</course>
  <speed>25.125926848576157</speed>
  <fix>3d</fix>
</trkpt>
<trkpt lat="-27.2737884" lon="151.2894186">
  <ele>370.37</ele>
  <time>2026-09-01T19:58:16Z</time>
  <course>263.1</course>
  <speed>24.98</speed>
  <fix>3d</fix>
</trkpt>
<trkpt lat="-27.2737985" lon="151.2893187">
  <ele>370.29</ele>
  <time>2026-09-01T19:58:16Z</time>
  <course>263.35</course>
  <speed>25.171479892926442</speed>
  <fix>3d</fix>
</trkpt>
<trkpt lat="-27.2737935" lon="151.2893684">
  <ele>370.31</ele>
  <time>2026-09-01T19:58:16Z</time>
  <course>263.85</course>
  <speed>25.08</speed>
  <fix>3d</fix>
</trkpt>
<trkpt lat="-27.2738006" lon="151.2892933">
  <ele>370.28</ele>
  <time>2026-09-01T19:58:16Z</time>
  <course>263.72</course>
  <speed>25.20976993151663</speed>
  <fix>3d</fix>
</trkpt>
<trkpt lat="-27.2737935" lon="151.2893684">
  <ele>370.31</ele>
  <time>2026-09-01T19:58:16Z</time>
  <course>263.85</course>
  <speed>25.08</speed>
  <fix>3d</fix>
</trkpt>
<trkpt lat="-27.2738026" lon="151.2892679">
  <ele>370.27</ele>
  <time>2026-09-01T19:58:16Z</time>
  <course>264.03</course>
  <speed>25.2595170183438</speed>
  <fix>3d</fix>
</trkpt>
<trkpt lat="-27.273798" lon="151.2893178">
  <ele>370.27</ele>
  <time>2026-09-01T19:58:16Z</time>
  <course>264.5</course>
  <speed>25.17</speed>
  <fix>3d</fix>
</trkpt>
<trkpt lat="-27.2738045" lon="151.2892425">
  <ele>370.27</ele>
  <time>2026-09-01T19:58:16Z</time>
  <course>264.31</course>
  <speed>25.300665999139234</speed>
  <fix>3d</fix>
</trkpt>
<trkpt lat="-27.273798" lon="151.2893178">
  <ele>370.27</ele>
  <time>2026-09-01T19:58:16Z</time>
  <course>264.5</course>
  <speed>25.17</speed>
  <fix>3d</fix>
</trkpt>
<trkpt lat="-27.2738063" lon="151.289217">
  <ele>370.27</ele>
  <time>2026-09-01T19:58:16Z</time>
  <course>264.58</course>
  <speed>25.333081139095576</speed>
  <fix>3d</fix>
</trkpt>
<trkpt lat="-27.2738022" lon="151.2892671">
  <ele>370.26</ele>
  <time>2026-09-01T19:58:16Z</time>
  <course>265.04</course>
  <speed>25.27</speed>
  <fix>3d</fix>
</trkpt>
<trkpt lat="-27.2738081" lon="151.2891914">
  <ele>370.28</ele>
  <time>2026-09-01T19:58:16Z</time>
  <course>264.83</course>
  <speed>25.366611914088963</speed>
  <fix>3d</fix>
</trkpt>
<trkpt lat="-27.2738022" lon="151.2892671">
  <ele>370.26</ele>
  <time>2026-09-01T19:58:16Z</time>
  <course>265.04</course>
  <speed>25.27</speed>
  <fix>3d</fix>
</trkpt>
<trkpt lat="-27.2738098" lon="151.2891659">
  <ele>370.3</ele>
  <time>2026-09-01T19:58:17Z</time>
  <course>265.06</course>
  <speed>25.400413382462894</speed>
  <fix>3d</fix>
</trkpt>
<trkpt lat="-27.2738059" lon="151.2892161">
  <ele>370.27</ele>
  <time>2026-09-01T19:58:17Z</time>
  <course>265.48</course>
  <speed>25.35</speed>
  <fix>3d</fix>
</trkpt>
<trkpt lat="-27.2738114" lon="151.2891402">
  <ele>370.31</ele>
  <time>2026-09-01T19:58:17Z</time>
  <course>265.28</course>
  <speed>25.435198053091703</speed>
  <fix>3d</fix>
</trkpt>
<trkpt lat="-27.2738059" lon="151.2892161">
  <ele>370.27</ele>
  <time>2026-09-01T19:58:17Z</time>
  <course>265.48</course>
  <speed>25.35</speed>
  <fix>3d</fix>
</trkpt>
<trkpt lat="-27.273813" lon="151.2891146">
  <ele>370.34</ele>
  <time>2026-09-01T19:58:17Z</time>
  <course>265.47</course>
  <speed>25.460903361821238</speed>
  <fix>3d</fix>
</trkpt>
<trkpt lat="-27.2738093" lon="151.2891649">
  <ele>370.3</ele>
  <time>2026-09-01T19:58:17Z</time>
  <course>265.84</course>
  <speed>25.42</speed>
  <fix>3d</fix>
</trkpt>
<trkpt lat="-27.2738145" lon="151.2890889">
  <ele>370.36</ele>
  <time>2026-09-01T19:58:17Z</time>
  <course>265.58</course>
  <speed>25.487428273562635</speed>
  <fix>3d</fix>
</trkpt>
<trkpt lat="-27.2738093" lon="151.2891649">
  <ele>370.3</ele>
  <time>2026-09-01T19:58:17Z</time>
  <course>265.84</course>
  <speed>25.42</speed>
  <fix>3d</fix>
</trkpt>
<trkpt lat="-27.2738159" lon="151.2890632">
  <ele>370.4</ele>
  <time>2026-09-01T19:58:17Z</time>
  <course>265.75</course>
  <speed>25.514711442616786</speed>
  <fix>3d</fix>
</trkpt>
<trkpt lat="-27.2738125" lon="151.2891136">
  <ele>370.35</ele>
  <time>2026-09-01T19:58:17Z</time>
  <course>266.13</course>
  <speed>25.48</speed>
  <fix>3d</fix>
</trkpt>
<trkpt lat="-27.2738174" lon="151.2890374">
  <ele>370.43</ele>
  <time>2026-09-01T19:58:17Z</time>
  <course>265.86</course>
  <speed>25.53208373791689</speed>
  <fix>3d</fix>
</trkpt>
<trkpt lat="-27.2738125" lon="151.2891136">
  <ele>370.35</ele>
  <time>2026-09-01T19:58:17Z</time>
  <course>266.13</course>
  <speed>25.48</speed>
  <fix>3d</fix>
</trkpt>
<trkpt lat="-27.2738188" lon="151.2890116">
  <ele>370.47</ele>
  <time>2026-09-01T19:58:17Z</time>
  <course>265.97</course>
  <speed>25.56012715148342</speed>
  <fix>3d</fix>
</trkpt>
<trkpt lat="-27.2738156" lon="151.289062">
  <ele>370.41</ele>
  <time>2026-09-01T19:58:17Z</time>
  <course>266.34</course>
  <speed>25.53</speed>
  <fix>3d</fix>
</trkpt>
<trkpt lat="-27.2738202" lon="151.2889858">
  <ele>370.51</ele>
  <time>2026-09-01T19:58:17Z</time>
  <course>266.07</course>
  <speed>25.57884477453976</speed>
  <fix>3d</fix>
</trkpt>
<trkpt lat="-27.2738156" lon="151.289062">
  <ele>370.41</ele>
  <time>2026-09-01T19:58:17Z</time>
  <course>266.34</course>
  <speed>25.53</speed>
  <fix>3d</fix>
</trkpt>
<trkpt lat="-27.2738215" lon="151.28896">
  <ele>370.55</ele>
  <time>2026-09-01T19:58:17Z</time>
  <course>266.16</course>
  <speed>25.59697247722863</speed>
  <fix>3d</fix>
</trkpt>
<trkpt lat="-27.2738185" lon="151.2890105">
  <ele>370.49</ele>
  <time>2026-09-01T19:58:17Z</time>
  <course>266.48</course>
  <speed>25.58</speed>
  <fix>3d</fix>
</trkpt>
<trkpt lat="-27.2738229" lon="151.2889342">
  <ele>370.59</ele>
  <time>2026-09-01T19:58:17Z</time>
  <course>266.22</course>
  <speed>25.606350774758983</speed>
  <fix>3d</fix>
</trkpt>
<trkpt lat="-27.2738185" lon="151.2890105">
  <ele>370.49</ele>
  <time>2026-09-01T19:58:17Z</time>
  <course>266.48</course>
  <speed>25.58</speed>
  <fix>3d</fix>
</trkpt>
<trkpt lat="-27.2738242" lon="151.2889083">
  <ele>370.64</ele>
  <time>2026-09-01T19:58:17Z</time>
  <course>266.23</course>
  <speed>25.625120487521613</speed>
  <fix>3d</fix>
</trkpt>
<trkpt lat="-27.2738212" lon="151.2889588">
  <ele>370.58</ele>
  <time>2026-09-01T19:58:17Z</time>
  <course>266.57</course>
  <speed>25.62</speed>
  <fix>3d</fix>
</trkpt>
<trkpt lat="-27.2738255" lon="151.2888824">
  <ele>370.68</ele>
  <time>2026-09-01T19:58:17Z</time>
  <course>266.23</course>
  <speed>25.634511893149046</speed>
  <fix>3d</fix>
</trkpt>
<trkpt lat="-27.2738212" lon="151.2889588">
  <ele>370.58</ele>
  <time>2026-09-01T19:58:17Z</time>
  <course>266.57</course>
  <speed>25.62</speed>
  <fix>3d</fix>
</trkpt>
<trkpt lat="-27.2738268" lon="151.2888567">
  <ele>370.73</ele>
  <time>2026-09-01T19:58:17Z</time>
  <course>266.27</course>
  <speed>25.64390765854533</speed>
  <fix>3d</fix>
</trkpt>
<trkpt lat="-27.2738239" lon="151.2889071">
  <ele>370.68</ele>
  <time>2026-09-01T19:58:17Z</time>
  <course>266.63</course>
  <speed>25.65</speed>
  <fix>3d</fix>
</trkpt>
<trkpt lat="-27.2738282" lon="151.2888304">
  <ele>370.79</ele>
  <time>2026-09-01T19:58:17Z</time>
  <course>266.28</course>
  <speed>25.65447719210041</speed>
  <fix>3d</fix>
</trkpt>
<trkpt lat="-27.2738239" lon="151.2889071">
  <ele>370.68</ele>
  <time>2026-09-01T19:58:17Z</time>
  <course>266.63</course>
  <speed>25.65</speed>
  <fix>3d</fix>
</trkpt>
<trkpt lat="-27.2738295" lon="151.2888045">
  <ele>370.85</ele>
  <time>2026-09-01T19:58:17Z</time>
  <course>266.31</course>
  <speed>25.66445986184007</speed>
  <fix>3d</fix>
</trkpt>
<trkpt lat="-27.2738266" lon="151.2888554">
  <ele>370.78</ele>
  <time>2026-09-01T19:58:17Z</time>
  <course>266.65</course>
  <speed>25.67</speed>
  <fix>3d</fix>
</trkpt>
<trkpt lat="-27.2738308" lon="151.2887786">
  <ele>370.91</ele>
  <time>2026-09-01T19:58:17Z</time>
  <course>266.34</course>
  <speed>25.66445986184007</speed>
  <fix>3d</fix>
</trkpt>
<trkpt lat="-27.2738266" lon="151.2888554">
  <ele>370.78</ele>
  <time>2026-09-01T19:58:17Z</time>
  <course>266.65</course>
  <speed>25.67</speed>
  <fix>3d</fix>
</trkpt>
<trkpt lat="-27.2738322" lon="151.2887526">
  <ele>370.97</ele>
  <time>2026-09-01T19:58:17Z</time>
  <course>266.35</course>
  <speed>25.66445986184007</speed>
  <fix>3d</fix>
</trkpt>
<trkpt lat="-27.2738293" lon="151.2888035">
  <ele>370.89</ele>
  <time>2026-09-01T19:58:17Z</time>
  <course>266.64</course>
  <speed>25.69</speed>
  <fix>3d</fix>
</trkpt>
<trkpt lat="-27.2738335" lon="151.2887267">
  <ele>371.03</ele>
  <time>2026-09-01T19:58:17Z</time>
  <course>266.27</course>
  <speed>25.675032619258733</speed>
  <fix>3d</fix>
</trkpt>
<trkpt lat="-27.2738293" lon="151.2888035">
  <ele>370.89</ele>
  <time>2026-09-01T19:58:17Z</time>
  <course>266.64</course>
  <speed>25.69</speed>
  <fix>3d</fix>
</trkpt>
<trkpt lat="-27.2738349" lon="151.2887007">
  <ele>371.09</ele>
  <time>2026-09-01T19:58:17Z</time>
  <course>266.3</course>
  <speed>25.675626574632993</speed>
  <fix>3d</fix>
</trkpt>
<trkpt lat="-27.273832" lon="151.2887516">
  <ele>371.01</ele>
  <time>2026-09-01T19:58:17Z</time>
  <course>266.61</course>
  <speed>25.7</speed>
  <fix>3d</fix>
</trkpt>
<trkpt lat="-27.2738362" lon="151.2886748">
  <ele>371.16</ele>
  <time>2026-09-01T19:58:17Z</time>
  <course>266.33</course>
  <speed>25.676224410921478</speed>
  <fix>3d</fix>
</trkpt>
<trkpt lat="-27.273832" lon="151.2887516">
  <ele>371.01</ele>
  <time>2026-09-01T19:58:17Z</time>
  <course>266.61</course>
  <speed>25.7</speed>
  <fix>3d</fix>
</trkpt>
<trkpt lat="-27.2738376" lon="151.2886488">
  <ele>371.22</ele>
  <time>2026-09-01T19:58:17Z</time>
  <course>266.27</course>
  <speed>25.686206415117045</speed>
  <fix>3d</fix>
</trkpt>
<trkpt lat="-27.2738347" lon="151.2886998">
  <ele>371.14</ele>
  <time>2026-09-01T19:58:17Z</time>
  <course>266.56</course>
  <speed>25.71</speed>
  <fix>3d</fix>
</trkpt>
<trkpt lat="-27.273839" lon="151.2886228">
  <ele>371.28</ele>
  <time>2026-09-01T19:58:17Z</time>
  <course>266.25</course>
  <speed>25.676826127853104</speed>
  <fix>3d</fix>
</trkpt>
<trkpt lat="-27.2738347" lon="151.2886998">
  <ele>371.14</ele>
  <time>2026-09-01T19:58:17Z</time>
  <course>266.56</course>
  <speed>25.71</speed>
  <fix>3d</fix>
</trkpt>
<trkpt lat="-27.2738404" lon="151.2885968">
  <ele>371.35</ele>
  <time>2026-09-01T19:58:17Z</time>
  <course>266.2</course>
  <speed>25.67743172515507</speed>
  <fix>3d</fix>
</trkpt>
<trkpt lat="-27.2738376" lon="151.288648">
  <ele>371.27</ele>
  <time>2026-09-01T19:58:17Z</time>
  <course>266.51</course>
  <speed>25.71</speed>
  <fix>3d</fix>
</trkpt>
<trkpt lat="-27.2738418" lon="151.2885709">
  <ele>371.41</ele>
  <time>2026-09-01T19:58:17Z</time>
  <course>266.18</course>
  <speed>25.66805991889531</speed>
  <fix>3d</fix>
</trkpt>
<trkpt lat="-27.2738376" lon="151.288648">
  <ele>371.27</ele>
  <time>2026-09-01T19:58:17Z</time>
  <course>266.51</course>
  <speed>25.71</speed>
  <fix>3d</fix>
</trkpt>
<trkpt lat="-27.2738432" lon="151.2885449">
  <ele>371.47</ele>
  <time>2026-09-01T19:58:17Z</time>
  <course>266.17</course>
  <speed>25.668673514616994</speed>
  <fix>3d</fix>
</trkpt>
<trkpt lat="-27.2738404" lon="151.2885961">
  <ele>371.39</ele>
  <time>2026-09-01T19:58:17Z</time>
  <course>266.46</course>
  <speed>25.7</speed>
  <fix>3d</fix>
</trkpt>
<trkpt lat="-27.2738446" lon="151.288519">
  <ele>371.54</ele>
  <time>2026-09-01T19:58:17Z</time>
  <course>266.16</course>
  <speed>25.65993180037702</speed>
  <fix>3d</fix>
</trkpt>
<trkpt lat="-27.2738404" lon="151.2885961">
  <ele>371.39</ele>
  <time>2026-09-01T19:58:17Z</time>
  <course>266.46</course>
  <speed>25.7</speed>
  <fix>3d</fix>
</trkpt>
<trkpt lat="-27.2738461" lon="151.288493">
  <ele>371.59</ele>
  <time>2026-09-01T19:58:17Z</time>
  <course>266.17</course>
  <speed>25.660557281555676</speed>
  <fix>3d</fix>
</trkpt>
<trkpt lat="-27.2738433" lon="151.2885442">
  <ele>371.52</ele>
  <time>2026-09-01T19:58:17Z</time>
  <course>266.4</course>
  <speed>25.69</speed>
  <fix>3d</fix>
</trkpt>
<trkpt lat="-27.2738476" lon="151.2884671">
  <ele>371.65</ele>
  <time>2026-09-01T19:58:17Z</time>
  <course>266.15</course>
  <speed>25.66118664442469</speed>
  <fix>3d</fix>
</trkpt>
<trkpt lat="-27.2738433" lon="151.2885442">
  <ele>371.52</ele>
  <time>2026-09-01T19:58:17Z</time>
  <course>266.4</course>
  <speed>25.69</speed>
  <fix>3d</fix>
</trkpt>
<trkpt lat="-27.273849" lon="151.2884412">
  <ele>371.71</ele>
  <time>2026-09-01T19:58:17Z</time>
  <course>266.12</course>
  <speed>25.652477463200313</speed>
  <fix>3d</fix>
</trkpt>
<trkpt lat="-27.2738462" lon="151.2884923">
  <ele>371.65</ele>
  <time>2026-09-01T19:58:17Z</time>
  <course>266.34</course>
  <speed>25.69</speed>
  <fix>3d</fix>
</trkpt>
<trkpt lat="-27.2738505" lon="151.2884153">
  <ele>371.76</ele>
  <time>2026-09-01T19:58:17Z</time>
  <course>266.14</course>
  <speed>25.653118718783492</speed>
  <fix>3d</fix>
</trkpt>
<trkpt lat="-27.2738462" lon="151.2884923">
  <ele>371.65</ele>
  <time>2026-09-01T19:58:17Z</time>
  <course>266.34</course>
  <speed>25.69</speed>
  <fix>3d</fix>
</trkpt>
<trkpt lat="-27.273852" lon="151.2883895">
  <ele>371.82</ele>
  <time>2026-09-01T19:58:17Z</time>
  <course>266.11</course>
  <speed>25.64378482205776</speed>
  <fix>3d</fix>
</trkpt>
<trkpt lat="-27.2738492" lon="151.2884404">
  <ele>371.76</ele>
  <time>2026-09-01T19:58:17Z</time>
  <course>266.28</course>
  <speed>25.68</speed>
  <fix>3d</fix>
</trkpt>
<trkpt lat="-27.2738535" lon="151.2883637">
  <ele>371.88</ele>
  <time>2026-09-01T19:58:17Z</time>
  <course>266.06</course>
  <speed>25.634455328717245</speed>
  <fix>3d</fix>
</trkpt>
<trkpt lat="-27.2738492" lon="151.2884404">
  <ele>371.76</ele>
  <time>2026-09-01T19:58:17Z</time>
  <course>266.28</course>
  <speed>25.68</speed>
  <fix>3d</fix>
</trkpt>
<trkpt lat="-27.273855" lon="151.288338">
  <ele>371.93</ele>
  <time>2026-09-01T19:58:17Z</time>
  <course>266.0</course>
  <speed>25.614497847898562</speed>
  <fix>3d</fix>
</trkpt>
<trkpt lat="-27.2738522" lon="151.2883887">
  <ele>371.88</ele>
  <time>2026-09-01T19:58:17Z</time>
  <course>266.22</course>
  <speed>25.66</speed>
  <fix>3d</fix>
</trkpt>
<trkpt lat="-27.2738565" lon="151.2883125">
  <ele>371.98</ele>
  <time>2026-09-01T19:58:17Z</time>
  <course>265.9</course>
  <speed>25.595853179763317</speed>
  <fix>3d</fix>
</trkpt>
<trkpt lat="-27.2738522" lon="151.2883887">
  <ele>371.88</ele>
  <time>2026-09-01T19:58:17Z</time>
  <course>266.22</course>
  <speed>25.66</speed>
  <fix>3d</fix>
</trkpt>
<trkpt lat="-27.2738581" lon="151.2882868">
  <ele>372.03</ele>
  <time>2026-09-01T19:58:17Z</time>
  <course>265.86</course>
  <speed>25.586537475789882</speed>
  <fix>3d</fix>
</trkpt>
<trkpt lat="-27.2738552" lon="151.2883369">
  <ele>371.99</ele>
  <time>2026-09-01T19:58:17Z</time>
  <course>266.16</course>
  <speed>25.65</speed>
  <fix>3d</fix>
</trkpt>
<trkpt lat="-27.2738596" lon="151.2882611">
  <ele>372.08</ele>
  <time>2026-09-01T19:58:17Z</time>
  <course>265.89</course>
  <speed>25.577226198319472</speed>
  <fix>3d</fix>
</trkpt>
<trkpt lat="-27.2738552" lon="151.2883369">
  <ele>371.99</ele>
  <time>2026-09-01T19:58:17Z</time>
  <course>266.16</course>
  <speed>25.65</speed>
  <fix>3d</fix>
</trkpt>
<trkpt lat="-27.2738612" lon="151.2882354">
  <ele>372.13</ele>
  <time>2026-09-01T19:58:17Z</time>
  <course>265.88</course>
  <speed>25.557942014176337</speed>
  <fix>3d</fix>
</trkpt>
<trkpt lat="-27.2738583" lon="151.2882852">
  <ele>372.09</ele>
  <time>2026-09-01T19:58:17Z</time>
  <course>266.1</course>
  <speed>25.64</speed>
  <fix>3d</fix>
</trkpt>
<trkpt lat="-27.2738627" lon="151.2882095">
  <ele>372.18</ele>
  <time>2026-09-01T19:58:17Z</time>
  <course>265.87</course>
  <speed>25.53866284675061</speed>
  <fix>3d</fix>
</trkpt>
<trkpt lat="-27.2738583" lon="151.2882852">
  <ele>372.09</ele>
  <time>2026-09-01T19:58:17Z</time>
  <course>266.1</course>
  <speed>25.64</speed>
  <fix>3d</fix>
</trkpt>
<trkpt lat="-27.2738643" lon="151.2881838">
  <ele>372.23</ele>
  <time>2026-09-01T19:58:17Z</time>
  <course>265.89</course>
  <speed>25.5293654445229</speed>
  <fix>3d</fix>
</trkpt>
<trkpt lat="-27.2738615" lon="151.2882335">
  <ele>372.19</ele>
  <time>2026-09-01T19:58:17Z</time>
  <course>266.04</course>
  <speed>25.62</speed>
  <fix>3d</fix>
</trkpt>
<trkpt lat="-27.2738659" lon="151.2881581">
  <ele>372.28</ele>
  <time>2026-09-01T19:58:17Z</time>
  <course>265.91</course>
  <speed>25.519388707412254</speed>
  <fix>3d</fix>
</trkpt>
<trkpt lat="-27.2738615" lon="151.2882335">
  <ele>372.19</ele>
  <time>2026-09-01T19:58:17Z</time>
  <course>266.04</course>
  <speed>25.62</speed>
  <fix>3d</fix>
</trkpt>
<trkpt lat="-27.2738675" lon="151.2881324">
  <ele>372.32</ele>
  <time>2026-09-01T19:58:17Z</time>
  <course>265.88</course>
  <speed>25.510096040587538</speed>
  <fix>3d</fix>
</trkpt>
<trkpt lat="-27.2738647" lon="151.288182">
  <ele>372.28</ele>
  <time>2026-09-01T19:58:17Z</time>
  <course>266.0</course>
  <speed>25.61</speed>
  <fix>3d</fix>
</trkpt>
<trkpt lat="-27.2738691" lon="151.2881065">
  <ele>372.36</ele>
  <time>2026-09-01T19:58:17Z</time>
  <course>265.79</course>
  <speed>25.500807830341373</speed>
  <fix>3d</fix>
</trkpt>
<trkpt lat="-27.2738647" lon="151.288182">
  <ele>372.28</ele>
  <time>2026-09-01T19:58:17Z</time>
  <course>266.0</course>
  <speed>25.61</speed>
  <fix>3d</fix>
</trkpt>
<trkpt lat="-27.2738707" lon="151.2880809">
  <ele>372.4</ele>
  <time>2026-09-01T19:58:17Z</time>
  <course>265.78</course>
  <speed>25.481548226118445</speed>
  <fix>3d</fix>
</trkpt>
<trkpt lat="-27.2738679" lon="151.2881304">
  <ele>372.38</ele>
  <time>2026-09-01T19:58:17Z</time>
  <course>265.96</course>
  <speed>25.59</speed>
  <fix>3d</fix>
</trkpt>
<trkpt lat="-27.2738723" lon="151.2880552">
  <ele>372.43</ele>
  <time>2026-09-01T19:58:17Z</time>
  <course>265.74</course>
  <speed>25.482244799075296</speed>
  <fix>3d</fix>
</trkpt>
<trkpt lat="-27.2738679" lon="151.2881304">
  <ele>372.38</ele>
  <time>2026-09-01T19:58:17Z</time>
  <course>265.96</course>
  <speed>25.59</speed>
  <fix>3d</fix>
</trkpt>
<trkpt lat="-27.273874" lon="151.2880296">
  <ele>372.47</ele>
  <time>2026-09-01T19:58:17Z</time>
  <course>265.69</course>
  <speed>25.472969987812572</speed>
  <fix>3d</fix>
</trkpt>
<trkpt lat="-27.2738711" lon="151.2880788">
  <ele>372.46</ele>
  <time>2026-09-01T19:58:17Z</time>
  <course>265.92</course>
  <speed>25.58</speed>
  <fix>3d</fix>
</trkpt>
<trkpt lat="-27.2738756" lon="151.2880039">
  <ele>372.5</ele>
  <time>2026-09-01T19:58:17Z</time>
  <course>265.67</course>
  <speed>25.46369965264278</speed>
  <fix>3d</fix>
</trkpt>
<trkpt lat="-27.2738711" lon="151.2880788">
  <ele>372.46</ele>
  <time>2026-09-01T19:58:17Z</time>
  <course>265.92</course>
  <speed>25.58</speed>
  <fix>3d</fix>
</trkpt>
<trkpt lat="-27.2738773" lon="151.2879783">
  <ele>372.53</ele>
  <time>2026-09-01T19:58:17Z</time>
  <course>265.65</course>
  <speed>25.45514682731176</speed>
  <fix>3d</fix>
</trkpt>
<trkpt lat="-27.2738744" lon="151.2880271">
  <ele>372.53</ele>
  <time>2026-09-01T19:58:17Z</time>
  <course>265.87</course>
  <speed>25.56</speed>
  <fix>3d</fix>
</trkpt>
<trkpt lat="-27.2738789" lon="151.2879526">
  <ele>372.56</ele>
  <time>2026-09-01T19:58:17Z</time>
  <course>265.65</course>
  <speed>25.445889648428487</speed>
  <fix>3d</fix>
</trkpt>
<trkpt lat="-27.2738744" lon="151.2880271">
  <ele>372.53</ele>
  <time>2026-09-01T19:58:17Z</time>
  <course>265.87</course>
  <speed>25.56</speed>
  <fix>3d</fix>
</trkpt>
<trkpt lat="-27.2738806" lon="151.2879269">
  <ele>372.59</ele>
  <time>2026-09-01T19:58:17Z</time>
  <course>265.65</course>
  <speed>25.435915552619687</speed>
  <fix>3d</fix>
</trkpt>
<trkpt lat="-27.2738778" lon="151.2879755">
  <ele>372.6</ele>
  <time>2026-09-01T19:58:17Z</time>
  <course>265.82</course>
  <speed>25.55</speed>
  <fix>3d</fix>
</trkpt>
<trkpt lat="-27.2738823" lon="151.2879013">
  <ele>372.61</ele>
  <time>2026-09-01T19:58:17Z</time>
  <course>265.63</course>
  <speed>25.4266631707741</speed>
  <fix>3d</fix>
</trkpt>
<trkpt lat="-27.2738778" lon="151.2879755">
  <ele>372.6</ele>
  <time>2026-09-01T19:58:17Z</time>
  <course>265.82</course>
  <speed>25.55</speed>
  <fix>3d</fix>
</trkpt>
<trkpt lat="-27.273884" lon="151.2878756">
  <ele>372.64</ele>
  <time>2026-09-01T19:58:17Z</time>
  <course>265.59</course>
  <speed>25.4266631707741</speed>
  <fix>3d</fix>
</trkpt>
<trkpt lat="-27.2738811" lon="151.287924">
  <ele>372.66</ele>
  <time>2026-09-01T19:58:17Z</time>
  <course>265.78</course>
  <speed>25.54</speed>
  <fix>3d</fix>
</trkpt>
<trkpt lat="-27.2738857" lon="151.2878499">
  <ele>372.66</ele>
  <time>2026-09-01T19:58:17Z</time>
  <course>265.56</course>
  <speed>25.417415289521472</speed>
  <fix>3d</fix>
</trkpt>
<trkpt lat="-27.2738811" lon="151.287924">
  <ele>372.66</ele>
  <time>2026-09-01T19:58:17Z</time>
  <course>265.78</course>
  <speed>25.54</speed>
  <fix>3d</fix>
</trkpt>
<trkpt lat="-27.2738874" lon="151.2878242">
  <ele>372.69</ele>
  <time>2026-09-01T19:58:17Z</time>
  <course>265.54</course>
  <speed>25.418145093613735</speed>
  <fix>3d</fix>
</trkpt>
<trkpt lat="-27.2738845" lon="151.2878726">
  <ele>372.71</ele>
  <time>2026-09-01T19:58:17Z</time>
  <course>265.75</course>
  <speed>25.52</speed>
  <fix>3d</fix>
</trkpt>
<trkpt lat="-27.2738891" lon="151.2877985">
  <ele>372.71</ele>
  <time>2026-09-01T19:58:17Z</time>
  <course>265.52</course>
  <speed>25.41887881083664</speed>
  <fix>3d</fix>
</trkpt>
<trkpt lat="-27.2738845" lon="151.2878726">
  <ele>372.71</ele>
  <time>2026-09-01T19:58:17Z</time>
  <course>265.75</course>
  <speed>25.52</speed>
  <fix>3d</fix>
</trkpt>
<trkpt lat="-27.2738908" lon="151.287773">
  <ele>372.74</ele>
  <time>2026-09-01T19:58:17Z</time>
  <course>265.56</course>
  <speed>25.419616440851346</speed>
  <fix>3d</fix>
</trkpt>
<trkpt lat="-27.2738879" lon="151.2878211">
  <ele>372.76</ele>
  <time>2026-09-01T19:58:17Z</time>
  <course>265.71</course>
  <speed>25.51</speed>
  <fix>3d</fix>
</trkpt>
<trkpt lat="-27.2738925" lon="151.2877473">
  <ele>372.76</ele>
  <time>2026-09-01T19:58:17Z</time>
  <course>265.57</course>
  <speed>25.409643838511393</speed>
  <fix>3d</fix>
</trkpt>
<trkpt lat="-27.2738879" lon="151.2878211">
  <ele>372.76</ele>
  <time>2026-09-01T19:58:17Z</time>
  <course>265.71</course>
  <speed>25.51</speed>
  <fix>3d</fix>
</trkpt>
<trkpt lat="-27.2738943" lon="151.2877216">
  <ele>372.78</ele>
  <time>2026-09-01T19:58:17Z</time>
  <course>265.62</course>
  <speed>25.409643838511393</speed>
  <fix>3d</fix>
</trkpt>
<trkpt lat="-27.2738913" lon="151.2877697">
  <ele>372.81</ele>
  <time>2026-09-01T19:58:17Z</time>
  <course>265.68</course>
  <speed>25.5</speed>
  <fix>3d</fix>
</trkpt>
<trkpt lat="-27.273896" lon="151.2876958">
  <ele>372.8</ele>
  <time>2026-09-01T19:58:17Z</time>
  <course>265.6</course>
  <speed>25.409643838511393</speed>
  <fix>3d</fix>
</trkpt>
<trkpt lat="-27.2738913" lon="151.2877697">
  <ele>372.81</ele>
  <time>2026-09-01T19:58:17Z</time>
  <course>265.68</course>
  <speed>25.5</speed>
  <fix>3d</fix>
</trkpt>
<trkpt lat="-27.2738977" lon="151.2876699">
  <ele>372.83</ele>
  <time>2026-09-01T19:58:17Z</time>
  <course>265.5</course>
  <speed>25.41038567200427</speed>
  <fix>3d</fix>
</trkpt>
<trkpt lat="-27.2738948" lon="151.2877183">
  <ele>372.86</ele>
  <time>2026-09-01T19:58:17Z</time>
  <course>265.66</course>
  <speed>25.49</speed>
  <fix>3d</fix>
</trkpt>
<trkpt lat="-27.2738995" lon="151.2876442">
  <ele>372.85</ele>
  <time>2026-09-01T19:58:17Z</time>
  <course>265.42</course>
  <speed>25.400413382462894</speed>
  <fix>3d</fix>
</trkpt>
<trkpt lat="-27.2738948" lon="151.2877183">
  <ele>372.86</ele>
  <time>2026-09-01T19:58:17Z</time>
  <course>265.66</course>
  <speed>25.49</speed>
  <fix>3d</fix>
</trkpt>
<trkpt lat="-27.2739012" lon="151.2876185">
  <ele>372.88</ele>
  <time>2026-09-01T19:58:17Z</time>
  <course>265.41</course>
  <speed>25.401159422357082</speed>
  <fix>3d</fix>
</trkpt>
<trkpt lat="-27.2738983" lon="151.287667">
  <ele>372.91</ele>
  <time>2026-09-01T19:58:17Z</time>
  <course>265.64</course>
  <speed>25.48</speed>
  <fix>3d</fix>
</trkpt>
<trkpt lat="-27.273903" lon="151.2875928">
  <ele>372.9</ele>
  <time>2026-09-01T19:58:17Z</time>
  <course>265.5</course>
  <speed>25.39193769683598</speed>
  <fix>3d</fix>
</trkpt>
<trkpt lat="-27.2738983" lon="151.287667">
  <ele>372.91</ele>
  <time>2026-09-01T19:58:17Z</time>
  <course>265.64</course>
  <speed>25.48</speed>
  <fix>3d</fix>
</trkpt>
<trkpt lat="-27.2739047" lon="151.2875671">
  <ele>372.92</ele>
  <time>2026-09-01T19:58:17Z</time>
  <course>265.57</course>
  <speed>25.39193769683598</speed>
  <fix>3d</fix>
</trkpt>
<trkpt lat="-27.2739017" lon="151.2876156">
  <ele>372.96</ele>
  <time>2026-09-01T19:58:17Z</time>
  <course>265.61</course>
  <speed>25.47</speed>
  <fix>3d</fix>
</trkpt>
<trkpt lat="-27.2739065" lon="151.2875414">
  <ele>372.94</ele>
  <time>2026-09-01T19:58:17Z</time>
  <course>265.51</course>
  <speed>25.39193769683598</speed>
  <fix>3d</fix>
</trkpt>
<trkpt lat="-27.2739017" lon="151.2876156">
  <ele>372.96</ele>
  <time>2026-09-01T19:58:17Z</time>
  <course>265.61</course>
  <speed>25.47</speed>
  <fix>3d</fix>
</trkpt>
<trkpt lat="-27.2739083" lon="151.2875157">
  <ele>372.95</ele>
  <time>2026-09-01T19:58:17Z</time>
  <course>265.5</course>
  <speed>25.39193769683598</speed>
  <fix>3d</fix>
</trkpt>
<trkpt lat="-27.2739052" lon="151.2875643">
  <ele>373.01</ele>
  <time>2026-09-01T19:58:17Z</time>
  <course>265.58</course>
  <speed>25.46</speed>
  <fix>3d</fix>
</trkpt>
<trkpt lat="-27.27391" lon="151.28749">
  <ele>372.97</ele>
  <time>2026-09-01T19:58:17Z</time>
  <course>265.54</course>
  <speed>25.39193769683598</speed>
  <fix>3d</fix>
</trkpt>
<trkpt lat="-27.2739052" lon="151.2875643">
  <ele>373.01</ele>
  <time>2026-09-01T19:58:17Z</time>
  <course>265.58</course>
  <speed>25.46</speed>
  <fix>3d</fix>
</trkpt>
<trkpt lat="-27.2739118" lon="151.2874643">
  <ele>372.98</ele>
  <time>2026-09-01T19:58:17Z</time>
  <course>265.55</course>
  <speed>25.39269186202991</speed>
  <fix>3d</fix>
</trkpt>
<trkpt lat="-27.2739088" lon="151.2875129">
  <ele>373.04</ele>
  <time>2026-09-01T19:58:17Z</time>
  <course>265.58</course>
  <speed>25.45</speed>
  <fix>3d</fix>
</trkpt>
<trkpt lat="-27.2739135" lon="151.2874387">
  <ele>372.99</ele>
  <time>2026-09-01T19:58:17Z</time>
  <course>265.54</course>
  <speed>25.39193769683598</speed>
  <fix>3d</fix>
</trkpt>
<trkpt lat="-27.2739088" lon="151.2875129">
  <ele>373.04</ele>
  <time>2026-09-01T19:58:17Z</time>
  <course>265.58</course>
  <speed>25.45</speed>
  <fix>3d</fix>
</trkpt>
<trkpt lat="-27.2739153" lon="151.2874128">
  <ele>373.0</ele>
  <time>2026-09-01T19:58:17Z</time>
  <course>265.54</course>
  <speed>25.39193769683598</speed>
  <fix>3d</fix>
</trkpt>
<trkpt lat="-27.2739123" lon="151.2874615">
  <ele>373.07</ele>
  <time>2026-09-01T19:58:17Z</time>
  <course>265.58</course>
  <speed>25.44</speed>
  <fix>3d</fix>
</trkpt>
<trkpt lat="-27.2739171" lon="151.2873871">
  <ele>373.01</ele>
  <time>2026-09-01T19:58:17Z</time>
  <course>265.55</course>
  <speed>25.39193769683598</speed>
  <fix>3d</fix>
</trkpt>
<trkpt lat="-27.2739123" lon="151.2874615">
  <ele>373.07</ele>
  <time>2026-09-01T19:58:17Z</time>
  <course>265.58</course>
  <speed>25.44</speed>
  <fix>3d</fix>
</trkpt>
<trkpt lat="-27.2739188" lon="151.2873614">
  <ele>373.02</ele>
  <time>2026-09-01T19:58:17Z</time>
  <course>265.55</course>
  <speed>25.3819660389025</speed>
  <fix>3d</fix>
</trkpt>
<trkpt lat="-27.2739158" lon="151.2874103">
  <ele>373.1</ele>
  <time>2026-09-01T19:58:17Z</time>
  <course>265.57</course>
  <speed>25.43</speed>
  <fix>3d</fix>
</trkpt>
<trkpt lat="-27.2739206" lon="151.2873357">
  <ele>373.04</ele>
  <time>2026-09-01T19:58:17Z</time>
  <course>265.53</course>
  <speed>25.382720500371903</speed>
  <fix>3d</fix>
</trkpt>
<trkpt lat="-27.2739158" lon="151.2874103">
  <ele>373.1</ele>
  <time>2026-09-01T19:58:17Z</time>
  <course>265.57</course>
  <speed>25.43</speed>
  <fix>3d</fix>
</trkpt>
<trkpt lat="-27.2739224" lon="151.28731">
  <ele>373.05</ele>
  <time>2026-09-01T19:58:17Z</time>
  <course>265.46</course>
  <speed>25.38347887898741</speed>
  <fix>3d</fix>
</trkpt>
<trkpt lat="-27.2739193" lon="151.2873591">
  <ele>373.13</ele>
  <time>2026-09-01T19:58:17Z</time>
  <course>265.57</course>
  <speed>25.42</speed>
  <fix>3d</fix>
</trkpt>
<trkpt lat="-27.2739241" lon="151.2872844">
  <ele>373.07</ele>
  <time>2026-09-01T19:58:17Z</time>
  <course>265.5</course>
  <speed>25.384241174397943</speed>
  <fix>3d</fix>
</trkpt>
<trkpt lat="-27.2739193" lon="151.2873591">
  <ele>373.13</ele>
  <time>2026-09-01T19:58:17Z</time>
  <course>265.57</course>
  <speed>25.42</speed>
  <fix>3d</fix>
</trkpt>
<trkpt lat="-27.2739259" lon="151.2872587">
  <ele>373.08</ele>
  <time>2026-09-01T19:58:17Z</time>
  <course>265.49</course>
  <speed>25.384241174397943</speed>
  <fix>3d</fix>
</trkpt>
<trkpt lat="-27.2739229" lon="151.2873078">
  <ele>373.16</ele>
  <time>2026-09-01T19:58:17Z</time>
  <course>265.54</course>
  <speed>25.41</speed>
  <fix>3d</fix>
</trkpt>
<trkpt lat="-27.2739277" lon="151.2872332">
  <ele>373.1</ele>
  <time>2026-09-01T19:58:17Z</time>
  <course>265.45</course>
  <speed>25.38500738625065</speed>
  <fix>3d</fix>
</trkpt>
<trkpt lat="-27.2739229" lon="151.2873078">
  <ele>373.16</ele>
  <time>2026-09-01T19:58:17Z</time>
  <course>265.54</course>
  <speed>25.41</speed>
  <fix>3d</fix>
</trkpt>
<trkpt lat="-27.2739295" lon="151.2872075">
  <ele>373.11</ele>
  <time>2026-09-01T19:58:17Z</time>
  <course>265.43</course>
  <speed>25.38500738625065</speed>
  <fix>3d</fix>
</trkpt>
<trkpt lat="-27.2739265" lon="151.2872567">
  <ele>373.19</ele>
  <time>2026-09-01T19:58:17Z</time>
  <course>265.52</course>
  <speed>25.4</speed>
  <fix>3d</fix>
</trkpt>
<trkpt lat="-27.2739313" lon="151.2871819">
  <ele>373.13</ele>
  <time>2026-09-01T19:58:17Z</time>
  <course>265.46</course>
  <speed>25.385777514190895</speed>
  <fix>3d</fix>
</trkpt>
<trkpt lat="-27.2739265" lon="151.2872567">
  <ele>373.19</ele>
  <time>2026-09-01T19:58:17Z</time>
  <course>265.52</course>
  <speed>25.4</speed>
  <fix>3d</fix>
</trkpt>
<trkpt lat="-27.2739331" lon="151.2871562">
  <ele>373.14</ele>
  <time>2026-09-01T19:58:17Z</time>
  <course>265.46</course>
  <speed>25.385777514190895</speed>
  <fix>3d</fix>
</trkpt>
<trkpt lat="-27.27393" lon="151.2872055">
  <ele>373.22</ele>
  <time>2026-09-01T19:58:17Z</time>
  <course>265.49</course>
  <speed>25.4</speed>
  <fix>3d</fix>
</trkpt>
<trkpt lat="-27.2739349" lon="151.2871304">
  <ele>373.15</ele>
  <time>2026-09-01T19:58:17Z</time>
  <course>265.46</course>
  <speed>25.385777514190895</speed>
  <fix>3d</fix>
</trkpt>
<trkpt lat="-27.27393" lon="151.2872055">
  <ele>373.22</ele>
  <time>2026-09-01T19:58:17Z</time>
  <course>265.49</course>
  <speed>25.4</speed>
  <fix>3d</fix>
</trkpt>
<trkpt lat="-27.2739367" lon="151.2871047">
  <ele>373.16</ele>
  <time>2026-09-01T19:58:17Z</time>
  <course>265.48</course>
  <speed>25.386551557862287</speed>
  <fix>3d</fix>
</trkpt>
<trkpt lat="-27.2739336" lon="151.2871544">
  <ele>373.25</ele>
  <time>2026-09-01T19:58:17Z</time>
  <course>265.47</course>
  <speed>25.39</speed>
  <fix>3d</fix>
</trkpt>
<trkpt lat="-27.2739385" lon="151.2870791">
  <ele>373.17</ele>
  <time>2026-09-01T19:58:17Z</time>
  <course>265.51</course>
  <speed>25.386551557862287</speed>
  <fix>3d</fix>
</trkpt>
<trkpt lat="-27.2739336" lon="151.2871544">
  <ele>373.25</ele>
  <time>2026-09-01T19:58:17Z</time>
  <course>265.47</course>
  <speed>25.39</speed>
  <fix>3d</fix>
</trkpt>
<trkpt lat="-27.2739404" lon="151.2870534">
  <ele>373.18</ele>
  <time>2026-09-01T19:58:17Z</time>
  <course>265.49</course>
  <speed>25.386551557862287</speed>
  <fix>3d</fix>
</trkpt>
<trkpt lat="-27.2739372" lon="151.2871032">
  <ele>373.27</ele>
  <time>2026-09-01T19:58:17Z</time>
  <course>265.47</course>
  <speed>25.38</speed>
  <fix>3d</fix>
</trkpt>
<trkpt lat="-27.2739422" lon="151.2870278">
  <ele>373.19</ele>
  <time>2026-09-01T19:58:17Z</time>
  <course>265.51</course>
  <speed>25.385777514190895</speed>
  <fix>3d</fix>
</trkpt>
<trkpt lat="-27.2739372" lon="151.2871032">
  <ele>373.27</ele>
  <time>2026-09-01T19:58:17Z</time>
  <course>265.47</course>
  <speed>25.38</speed>
  <fix>3d</fix>
</trkpt>
<trkpt lat="-27.273944" lon="151.2870021">
  <ele>373.2</ele>
  <time>2026-09-01T19:58:17Z</time>
  <course>265.47</course>
  <speed>25.385777514190895</speed>
  <fix>3d</fix>
</trkpt>
<trkpt lat="-27.2739408" lon="151.2870521">
  <ele>373.28</ele>
  <time>2026-09-01T19:58:17Z</time>
  <course>265.47</course>
  <speed>25.37</speed>
  <fix>3d</fix>
</trkpt>
<trkpt lat="-27.2739458" lon="151.2869765">
  <ele>373.2</ele>
  <time>2026-09-01T19:58:17Z</time>
  <course>265.5</course>
  <speed>25.386551557862287</speed>
  <fix>3d</fix>
</trkpt>
<trkpt lat="-27.2739408" lon="151.2870521">
  <ele>373.28</ele>
  <time>2026-09-01T19:58:17Z</time>
  <course>265.47</course>
  <speed>25.37</speed>
  <fix>3d</fix>
</trkpt>
<trkpt lat="-27.2739476" lon="151.2869508">
  <ele>373.21</ele>
  <time>2026-09-01T19:58:17Z</time>
  <course>265.52</course>
  <speed>25.386551557862287</speed>
  <fix>3d</fix>
</trkpt>
<trkpt lat="-27.2739444" lon="151.287001">
  <ele>373.3</ele>
  <time>2026-09-01T19:58:17Z</time>
  <course>265.47</course>
  <speed>25.37</speed>
  <fix>3d</fix>
</trkpt>
<trkpt lat="-27.2739494" lon="151.2869252">
  <ele>373.22</ele>
  <time>2026-09-01T19:58:17Z</time>
  <course>265.57</course>
  <speed>25.386551557862287</speed>
  <fix>3d</fix>
</trkpt>
<trkpt lat="-27.2739444" lon="151.287001">
  <ele>373.3</ele>
  <time>2026-09-01T19:58:17Z</time>
  <course>265.47</course>
  <speed>25.37</speed>
  <fix>3d</fix>
</trkpt>
<trkpt lat="-27.2739512" lon="151.2868995">
  <ele>373.22</ele>
  <time>2026-09-01T19:58:17Z</time>
  <course>265.63</course>
  <speed>25.395747675545998</speed>
  <fix>3d</fix>
</trkpt>
<trkpt lat="-27.273948" lon="151.2869498">
  <ele>373.32</ele>
  <time>2026-09-01T19:58:17Z</time>
  <course>265.47</course>
  <speed>25.36</speed>
  <fix>3d</fix>
</trkpt>
<trkpt lat="-27.273953" lon="151.2868739">
  <ele>373.22</ele>
  <time>2026-09-01T19:58:17Z</time>
  <course>265.61</course>
  <speed>25.394977849960807</speed>
  <fix>3d</fix>
</trkpt>
<trkpt lat="-27.273948" lon="151.2869498">
  <ele>373.32</ele>
  <time>2026-09-01T19:58:17Z</time>
  <course>265.47</course>
  <speed>25.36</speed>
  <fix>3d</fix>
</trkpt>
<trkpt lat="-27.2739548" lon="151.2868482">
  <ele>373.23</ele>
  <time>2026-09-01T19:58:17Z</time>
  <course>265.49</course>
  <speed>25.394977849960807</speed>
  <fix>3d</fix>
</trkpt>
<trkpt lat="-27.2739516" lon="151.2868985">
  <ele>373.33</ele>
  <time>2026-09-01T19:58:17Z</time>
  <course>265.49</course>
  <speed>25.36</speed>
  <fix>3d</fix>
</trkpt>
<trkpt lat="-27.2739566" lon="151.2868226">
  <ele>373.23</ele>
  <time>2026-09-01T19:58:17Z</time>
  <course>265.49</course>
  <speed>25.395747675545998</speed>
  <fix>3d</fix>
</trkpt>
<trkpt lat="-27.2739516" lon="151.2868985">
  <ele>373.33</ele>
  <time>2026-09-01T19:58:17Z</time>
  <course>265.49</course>
  <speed>25.36</speed>
  <fix>3d</fix>
</trkpt>
<trkpt lat="-27.2739584" lon="151.2867969">
  <ele>373.23</ele>
  <time>2026-09-01T19:58:17Z</time>
  <course>265.55</course>
  <speed>25.405717860355768</speed>
  <fix>3d</fix>
</trkpt>
<trkpt lat="-27.2739552" lon="151.2868475">
  <ele>373.34</ele>
  <time>2026-09-01T19:58:17Z</time>
  <course>265.51</course>
  <speed>25.36</speed>
  <fix>3d</fix>
</trkpt>
<trkpt lat="-27.2739602" lon="151.2867713">
  <ele>373.23</ele>
  <time>2026-09-01T19:58:17Z</time>
  <course>265.6</course>
  <speed>25.404948336889014</speed>
  <fix>3d</fix>
</trkpt>
<trkpt lat="-27.2739552" lon="151.2868475">
  <ele>373.34</ele>
  <time>2026-09-01T19:58:17Z</time>
  <course>265.51</course>
  <speed>25.36</speed>
  <fix>3d</fix>
</trkpt>
<trkpt lat="-27.2739619" lon="151.2867457">
  <ele>373.23</ele>
  <time>2026-09-01T19:58:17Z</time>
  <course>265.59</course>
  <speed>25.404948336889014</speed>
  <fix>3d</fix>
</trkpt>
<trkpt lat="-27.2739587" lon="151.2867964">
  <ele>373.34</ele>
  <time>2026-09-01T19:58:17Z</time>
  <course>265.52</course>
  <speed>25.36</speed>
  <fix>3d</fix>
</trkpt>
<trkpt lat="-27.2739637" lon="151.28672">
  <ele>373.22</ele>
  <time>2026-09-01T19:58:17Z</time>
  <course>265.56</course>
  <speed>25.404948336889014</speed>
  <fix>3d</fix>
</trkpt>
<trkpt lat="-27.2739587" lon="151.2867964">
  <ele>373.34</ele>
  <time>2026-09-01T19:58:17Z</time>
  <course>265.52</course>
  <speed>25.36</speed>
  <fix>3d</fix>
</trkpt>
<trkpt lat="-27.2739655" lon="151.2866944">
  <ele>373.22</ele>
  <time>2026-09-01T19:58:17Z</time>
  <course>265.57</course>
  <speed>25.404948336889014</speed>
  <fix>3d</fix>
</trkpt>
<trkpt lat="-27.2739623" lon="151.2867453">
  <ele>373.34</ele>
  <time>2026-09-01T19:58:17Z</time>
  <course>265.53</course>
  <speed>25.36</speed>
  <fix>3d</fix>
</trkpt>
<trkpt lat="-27.2739673" lon="151.2866688">
  <ele>373.22</ele>
  <time>2026-09-01T19:58:17Z</time>
  <course>265.57</course>
  <speed>25.404948336889014</speed>
  <fix>3d</fix>
</trkpt>
<trkpt lat="-27.2739623" lon="151.2867453">
  <ele>373.34</ele>
  <time>2026-09-01T19:58:17Z</time>
  <course>265.53</course>
  <speed>25.36</speed>
  <fix>3d</fix>
</trkpt>
<trkpt lat="-27.2739691" lon="151.2866432">
  <ele>373.22</ele>
  <time>2026-09-01T19:58:17Z</time>
  <course>265.57</course>
  <speed>25.404948336889014</speed>
  <fix>3d</fix>
</trkpt>
<trkpt lat="-27.2739658" lon="151.2866942">
  <ele>373.33</ele>
  <time>2026-09-01T19:58:17Z</time>
  <course>265.53</course>
  <speed>25.36</speed>
  <fix>3d</fix>
</trkpt>
<trkpt lat="-27.2739708" lon="151.2866176">
  <ele>373.23</ele>
  <time>2026-09-01T19:58:17Z</time>
  <course>265.54</course>
  <speed>25.404182726472428</speed>
  <fix>3d</fix>
</trkpt>
<trkpt lat="-27.2739658" lon="151.2866942">
  <ele>373.33</ele>
  <time>2026-09-01T19:58:17Z</time>
  <course>265.53</course>
  <speed>25.36</speed>
  <fix>3d</fix>
</trkpt>
<trkpt lat="-27.2739726" lon="151.2865918">
  <ele>373.22</ele>
  <time>2026-09-01T19:58:17Z</time>
  <course>265.56</course>
  <speed>25.404182726472428</speed>
  <fix>3d</fix>
</trkpt>
<trkpt lat="-27.2739694" lon="151.2866431">
  <ele>373.33</ele>
  <time>2026-09-01T19:58:17Z</time>
  <course>265.54</course>
  <speed>25.36</speed>
  <fix>3d</fix>
</trkpt>
<trkpt lat="-27.2739744" lon="151.2865662">
  <ele>373.22</ele>
  <time>2026-09-01T19:58:17Z</time>
  <course>265.59</course>
  <speed>25.404182726472428</speed>
  <fix>3d</fix>
</trkpt>
<trkpt lat="-27.2739694" lon="151.2866431">
  <ele>373.33</ele>
  <time>2026-09-01T19:58:17Z</time>
  <course>265.54</course>
  <speed>25.36</speed>
  <fix>3d</fix>
</trkpt>
<trkpt lat="-27.2739762" lon="151.2865406">
  <ele>373.22</ele>
  <time>2026-09-01T19:58:17Z</time>
  <course>265.62</course>
  <speed>25.404182726472428</speed>
  <fix>3d</fix>
</trkpt>
<trkpt lat="-27.2739729" lon="151.286592">
  <ele>373.34</ele>
  <time>2026-09-01T19:58:17Z</time>
  <course>265.55</course>
  <speed>25.36</speed>
  <fix>3d</fix>
</trkpt>
<trkpt lat="-27.2739779" lon="151.2865151">
  <ele>373.22</ele>
  <time>2026-09-01T19:58:17Z</time>
  <course>265.67</course>
  <speed>25.404182726472428</speed>
  <fix>3d</fix>
</trkpt>
<trkpt lat="-27.2739729" lon="151.286592">
  <ele>373.34</ele>
  <time>2026-09-01T19:58:17Z</time>
  <course>265.55</course>
  <speed>25.36</speed>
  <fix>3d</fix>
</trkpt>
<trkpt lat="-27.2739797" lon="151.2864895">
  <ele>373.22</ele>
  <time>2026-09-01T19:58:17Z</time>
  <course>265.68</course>
  <speed>25.404948336889014</speed>
  <fix>3d</fix>
</trkpt>
<trkpt lat="-27.2739764" lon="151.2865409">
  <ele>373.34</ele>
  <time>2026-09-01T19:58:17Z</time>
  <course>265.55</course>
  <speed>25.36</speed>
  <fix>3d</fix>
</trkpt>
<trkpt lat="-27.2739815" lon="151.2864639">
  <ele>373.22</ele>
  <time>2026-09-01T19:58:17Z</time>
  <course>265.66</course>
  <speed>25.404182726472428</speed>
  <fix>3d</fix>
</trkpt>
<trkpt lat="-27.2739764" lon="151.2865409">
  <ele>373.34</ele>
  <time>2026-09-01T19:58:17Z</time>
  <course>265.55</course>
  <speed>25.36</speed>
  <fix>3d</fix>
</trkpt>
<trkpt lat="-27.2739833" lon="151.2864384">
  <ele>373.22</ele>
  <time>2026-09-01T19:58:17Z</time>
  <course>265.7</course>
  <speed>25.404182726472428</speed>
  <fix>3d</fix>
</trkpt>
<trkpt lat="-27.27398" lon="151.2864898">
  <ele>373.33</ele>
  <time>2026-09-01T19:58:17Z</time>
  <course>265.55</course>
  <speed>25.36</speed>
  <fix>3d</fix>
</trkpt>
<trkpt lat="-27.273985" lon="151.2864128">
  <ele>373.21</ele>
  <time>2026-09-01T19:58:17Z</time>
  <course>265.66</course>
  <speed>25.404182726472428</speed>
  <fix>3d</fix>
</trkpt>
<trkpt lat="-27.27398" lon="151.2864898">
  <ele>373.33</ele>
  <time>2026-09-01T19:58:17Z</time>
  <course>265.55</course>
  <speed>25.36</speed>
  <fix>3d</fix>
</trkpt>
<trkpt lat="-27.2739868" lon="151.2863872">
  <ele>373.21</ele>
  <time>2026-09-01T19:58:17Z</time>
  <course>265.66</course>
  <speed>25.404182726472428</speed>
  <fix>3d</fix>
</trkpt>
<trkpt lat="-27.2739835" lon="151.2864386">
  <ele>373.33</ele>
  <time>2026-09-01T19:58:17Z</time>
  <course>265.57</course>
  <speed>25.37</speed>
  <fix>3d</fix>
</trkpt>
<trkpt lat="-27.2739886" lon="151.2863617">
  <ele>373.21</ele>
  <time>2026-09-01T19:58:17Z</time>
  <course>265.68</course>
  <speed>25.404182726472428</speed>
  <fix>3d</fix>
</trkpt>
<trkpt lat="-27.2739835" lon="151.2864386">
  <ele>373.33</ele>
  <time>2026-09-01T19:58:17Z</time>
  <course>265.57</course>
  <speed>25.37</speed>
  <fix>3d</fix>
</trkpt>
<trkpt lat="-27.2739903" lon="151.2863361">
  <ele>373.21</ele>
  <time>2026-09-01T19:58:17Z</time>
  <course>265.68</course>
  <speed>25.404182726472428</speed>
  <fix>3d</fix>
</trkpt>
<trkpt lat="-27.273987" lon="151.2863874">
  <ele>373.32</ele>
  <time>2026-09-01T19:58:17Z</time>
  <course>265.57</course>
  <speed>25.37</speed>
  <fix>3d</fix>
</trkpt>
<trkpt lat="-27.2739921" lon="151.2863105">
  <ele>373.2</ele>
  <time>2026-09-01T19:58:17Z</time>
  <course>265.64</course>
  <speed>25.41415353695653</speed>
  <fix>3d</fix>
</trkpt>
<trkpt lat="-27.273987" lon="151.2863874">
  <ele>373.32</ele>
  <time>2026-09-01T19:58:17Z</time>
  <course>265.57</course>
  <speed>25.37</speed>
  <fix>3d</fix>
</trkpt>
<trkpt lat="-27.2739938" lon="151.286285">
  <ele>373.2</ele>
  <time>2026-09-01T19:58:17Z</time>
  <course>265.62</course>
  <speed>25.41415353695653</speed>
  <fix>3d</fix>
</trkpt>
<trkpt lat="-27.2739905" lon="151.2863363">
  <ele>373.32</ele>
  <time>2026-09-01T19:58:17Z</time>
  <course>265.59</course>
  <speed>25.37</speed>
  <fix>3d</fix>
</trkpt>
<trkpt lat="-27.2739956" lon="151.2862594">
  <ele>373.19</ele>
  <time>2026-09-01T19:58:17Z</time>
  <course>265.66</course>
  <speed>25.41415353695653</speed>
  <fix>3d</fix>
</trkpt>
<trkpt lat="-27.2739905" lon="151.2863363">
  <ele>373.32</ele>
  <time>2026-09-01T19:58:17Z</time>
  <course>265.59</course>
  <speed>25.37</speed>
  <fix>3d</fix>
</trkpt>
<trkpt lat="-27.2739974" lon="151.2862338">
  <ele>373.19</ele>
  <time>2026-09-01T19:58:17Z</time>
  <course>265.67</course>
  <speed>25.414918847007954</speed>
  <fix>3d</fix>
</trkpt>
<trkpt lat="-27.273994" lon="151.2862851">
  <ele>373.31</ele>
  <time>2026-09-01T19:58:17Z</time>
  <course>265.59</course>
  <speed>25.38</speed>
  <fix>3d</fix>
</trkpt>
<trkpt lat="-27.2739991" lon="151.2862082">
  <ele>373.18</ele>
  <time>2026-09-01T19:58:17Z</time>
  <course>265.63</course>
  <speed>25.414918847007954</speed>
  <fix>3d</fix>
</trkpt>
<trkpt lat="-27.273994" lon="151.2862851">
  <ele>373.31</ele>
  <time>2026-09-01T19:58:17Z</time>
  <course>265.59</course>
  <speed>25.38</speed>
  <fix>3d</fix>
</trkpt>
<trkpt lat="-27.2740009" lon="151.2861826">
  <ele>373.18</ele>
  <time>2026-09-01T19:58:17Z</time>
  <course>265.64</course>
  <speed>25.414918847007954</speed>
  <fix>3d</fix>
</trkpt>
<trkpt lat="-27.2739975" lon="151.2862339">
  <ele>373.3</ele>
  <time>2026-09-01T19:58:17Z</time>
  <course>265.58</course>
  <speed>25.39</speed>
  <fix>3d</fix>
</trkpt>
<trkpt lat="-27.2740027" lon="151.2861571">
  <ele>373.17</ele>
  <time>2026-09-01T19:58:17Z</time>
  <course>265.6</course>
  <speed>25.415688068592594</speed>
  <fix>3d</fix>
</trkpt>
<trkpt lat="-27.2739975" lon="151.2862339">
  <ele>373.3</ele>
  <time>2026-09-01T19:58:17Z</time>
  <course>265.58</course>
  <speed>25.39</speed>
  <fix>3d</fix>
</trkpt>
<trkpt lat="-27.2740044" lon="151.2861315">
  <ele>373.17</ele>
  <time>2026-09-01T19:58:17Z</time>
  <course>265.57</course>
  <speed>25.416461201355315</speed>
  <fix>3d</fix>
</trkpt>
<trkpt lat="-27.2740011" lon="151.2861828">
  <ele>373.3</ele>
  <time>2026-09-01T19:58:17Z</time>
  <course>265.56</course>
  <speed>25.39</speed>
  <fix>3d</fix>
</trkpt>
<trkpt lat="-27.2740062" lon="151.2861059">
  <ele>373.17</ele>
  <time>2026-09-01T19:58:17Z</time>
  <course>265.59</course>
  <speed>25.406491296517114</speed>
  <fix>3d</fix>
</trkpt>
<trkpt lat="-27.2740011" lon="151.2861828">
  <ele>373.3</ele>
  <time>2026-09-01T19:58:17Z</time>
  <course>265.56</course>
  <speed>25.39</speed>
  <fix>3d</fix>
</trkpt>
<trkpt lat="-27.274008" lon="151.2860805">
  <ele>373.17</ele>
  <time>2026-09-01T19:58:17Z</time>
  <course>265.66</course>
  <speed>25.407268645015744</speed>
  <fix>3d</fix>
</trkpt>
<trkpt lat="-27.2740046" lon="151.2861317">
  <ele>373.3</ele>
  <time>2026-09-01T19:58:17Z</time>
  <course>265.53</course>
  <speed>25.39</speed>
  <fix>3d</fix>
</trkpt>
<trkpt lat="-27.2740098" lon="151.286055">
  <ele>373.17</ele>
  <time>2026-09-01T19:58:17Z</time>
  <course>265.69</course>
  <speed>25.407268645015744</speed>
  <fix>3d</fix>
</trkpt>
<trkpt lat="-27.2740046" lon="151.2861317">
  <ele>373.3</ele>
  <time>2026-09-01T19:58:17Z</time>
  <course>265.53</course>
  <speed>25.39</speed>
  <fix>3d</fix>
</trkpt>
<trkpt lat="-27.2740116" lon="151.2860294">
  <ele>373.17</ele>
  <time>2026-09-01T19:58:17Z</time>
  <course>265.63</course>
  <speed>25.396521415343482</speed>
  <fix>3d</fix>
</trkpt>
<trkpt lat="-27.2740082" lon="151.2860805">
  <ele>373.3</ele>
  <time>2026-09-01T19:58:17Z</time>
  <course>265.51</course>
  <speed>25.39</speed>
  <fix>3d</fix>
</trkpt>
<trkpt lat="-27.2740134" lon="151.2860038">
  <ele>373.17</ele>
  <time>2026-09-01T19:58:17Z</time>
  <course>265.58</course>
  <speed>25.39729906899551</speed>
  <fix>3d</fix>
</trkpt>
<trkpt lat="-27.2740082" lon="151.2860805">
  <ele>373.3</ele>
  <time>2026-09-01T19:58:17Z</time>
  <course>265.51</course>
  <speed>25.39</speed>
  <fix>3d</fix>
</trkpt>
<trkpt lat="-27.2740152" lon="151.2859778">
  <ele>373.18</ele>
  <time>2026-09-01T19:58:17Z</time>
  <course>265.54</course>
  <speed>25.39729906899551</speed>
  <fix>3d</fix>
</trkpt>
<trkpt lat="-27.2740117" lon="151.2860294">
  <ele>373.3</ele>
  <time>2026-09-01T19:58:17Z</time>
  <course>265.51</course>
  <speed>25.39</speed>
  <fix>3d</fix>
</trkpt>
<trkpt lat="-27.274017" lon="151.2859523">
  <ele>373.18</ele>
  <time>2026-09-01T19:58:17Z</time>
  <course>265.55</course>
  <speed>25.388111390964077</speed>
  <fix>3d</fix>
</trkpt>
<trkpt lat="-27.2740117" lon="151.2860294">
  <ele>373.3</ele>
  <time>2026-09-01T19:58:17Z</time>
  <course>265.51</course>
  <speed>25.39</speed>
  <fix>3d</fix>
</trkpt>
<trkpt lat="-27.2740188" lon="151.2859268">
  <ele>373.18</ele>
  <time>2026-09-01T19:58:17Z</time>
  <course>265.56</course>
  <speed>25.388111390964077</speed>
  <fix>3d</fix>
</trkpt>
<trkpt lat="-27.2740153" lon="151.2859782">
  <ele>373.3</ele>
  <time>2026-09-01T19:58:17Z</time>
  <course>265.5</course>
  <speed>25.38</speed>
  <fix>3d</fix>
</trkpt>
<trkpt lat="-27.2740206" lon="151.2859014">
  <ele>373.18</ele>
  <time>2026-09-01T19:58:17Z</time>
  <course>265.54</course>
  <speed>25.378142169985573</speed>
  <fix>3d</fix>
</trkpt>
<trkpt lat="-27.2740153" lon="151.2859782">
  <ele>373.3</ele>
  <time>2026-09-01T19:58:17Z</time>
  <course>265.5</course>
  <speed>25.38</speed>
  <fix>3d</fix>
</trkpt>
<trkpt lat="-27.2740224" lon="151.285876">
  <ele>373.18</ele>
  <time>2026-09-01T19:58:17Z</time>
  <course>265.59</course>
  <speed>25.368959379525208</speed>
  <fix>3d</fix>
</trkpt>
<trkpt lat="-27.2740189" lon="151.285927">
  <ele>373.3</ele>
  <time>2026-09-01T19:58:17Z</time>
  <course>265.48</course>
  <speed>25.38</speed>
  <fix>3d</fix>
</trkpt>
<trkpt lat="-27.2740241" lon="151.2858506">
  <ele>373.18</ele>
  <time>2026-09-01T19:58:17Z</time>
  <course>265.61</course>
  <speed>25.358990516185774</speed>
  <fix>3d</fix>
</trkpt>
<trkpt lat="-27.2740189" lon="151.285927">
  <ele>373.3</ele>
  <time>2026-09-01T19:58:17Z</time>
  <course>265.48</course>
  <speed>25.38</speed>
  <fix>3d</fix>
</trkpt>
<trkpt lat="-27.2740259" lon="151.2858252">
  <ele>373.18</ele>
  <time>2026-09-01T19:58:17Z</time>
  <course>265.58</course>
  <speed>25.35820380074267</speed>
  <fix>3d</fix>
</trkpt>
<trkpt lat="-27.2740225" lon="151.2858758">
  <ele>373.3</ele>
  <time>2026-09-01T19:58:17Z</time>
  <course>265.47</course>
  <speed>25.38</speed>
  <fix>3d</fix>
</trkpt>
<trkpt lat="-27.2740277" lon="151.2857998">
  <ele>373.18</ele>
  <time>2026-09-01T19:58:17Z</time>
  <course>265.54</course>
  <speed>25.349021677374452</speed>
  <fix>3d</fix>
</trkpt>
<trkpt lat="-27.2740225" lon="151.2858758">
  <ele>373.3</ele>
  <time>2026-09-01T19:58:17Z</time>
  <course>265.47</course>
  <speed>25.38</speed>
  <fix>3d</fix>
</trkpt>
<trkpt lat="-27.2740295" lon="151.2857744">
  <ele>373.18</ele>
  <time>2026-09-01T19:58:17Z</time>
  <course>265.55</course>
  <speed>25.349021677374452</speed>
  <fix>3d</fix>
</trkpt>
<trkpt lat="-27.2740261" lon="151.2858246">
  <ele>373.3</ele>
  <time>2026-09-01T19:58:17Z</time>
  <course>265.47</course>
  <speed>25.39</speed>
  <fix>3d</fix>
</trkpt>
<trkpt lat="-27.2740313" lon="151.285749">
  <ele>373.18</ele>
  <time>2026-09-01T19:58:17Z</time>
  <course>265.56</course>
  <speed>25.349021677374452</speed>
  <fix>3d</fix>
</trkpt>
<trkpt lat="-27.2740261" lon="151.2858246">
  <ele>373.3</ele>
  <time>2026-09-01T19:58:17Z</time>
  <course>265.47</course>
  <speed>25.39</speed>
  <fix>3d</fix>
</trkpt>
<trkpt lat="-27.2740331" lon="151.2857235">
  <ele>373.18</ele>
  <time>2026-09-01T19:58:17Z</time>
  <course>265.58</course>
  <speed>25.3390528631202</speed>
  <fix>3d</fix>
</trkpt>
<trkpt lat="-27.2740297" lon="151.2857734">
  <ele>373.3</ele>
  <time>2026-09-01T19:58:17Z</time>
  <course>265.46</course>
  <speed>25.39</speed>
  <fix>3d</fix>
</trkpt>
<trkpt lat="-27.2740349" lon="151.2856981">
  <ele>373.17</ele>
  <time>2026-09-01T19:58:17Z</time>
  <course>265.55</course>
  <speed>25.33826552864264</speed>
  <fix>3d</fix>
</trkpt>
<trkpt lat="-27.2740297" lon="151.2857734">
  <ele>373.3</ele>
  <time>2026-09-01T19:58:17Z</time>
  <course>265.46</course>
  <speed>25.39</speed>
  <fix>3d</fix>
</trkpt>
<trkpt lat="-27.2740367" lon="151.2856726">
  <ele>373.17</ele>
  <time>2026-09-01T19:58:17Z</time>
  <course>265.52</course>
  <speed>25.33826552864264</speed>
  <fix>3d</fix>
</trkpt>
<trkpt lat="-27.2740333" lon="151.2857222">
  <ele>373.29</ele>
  <time>2026-09-01T19:58:17Z</time>
  <course>265.46</course>
  <speed>25.39</speed>
  <fix>3d</fix>
</trkpt>
<trkpt lat="-27.2740385" lon="151.2856471">
  <ele>373.16</ele>
  <time>2026-09-01T19:58:17Z</time>
  <course>265.51</course>
  <speed>25.3390528631202</speed>
  <fix>3d</fix>
</trkpt>
<trkpt lat="-27.2740333" lon="151.2857222">
  <ele>373.29</ele>
  <time>2026-09-01T19:58:17Z</time>
  <course>265.46</course>
  <speed>25.39</speed>
  <fix>3d</fix>
</trkpt>
<trkpt lat="-27.2740403" lon="151.2856215">
  <ele>373.16</ele>
  <time>2026-09-01T19:58:17Z</time>
  <course>265.5</course>
  <speed>25.3390528631202</speed>
  <fix>3d</fix>
</trkpt>
<trkpt lat="-27.2740369" lon="151.2856711">
  <ele>373.28</ele>
  <time>2026-09-01T19:58:17Z</time>
  <course>265.47</course>
  <speed>25.39</speed>
  <fix>3d</fix>
</trkpt>
<trkpt lat="-27.2740421" lon="151.285596">
  <ele>373.15</ele>
  <time>2026-09-01T19:58:17Z</time>
  <course>265.56</course>
  <speed>25.3390528631202</speed>
  <fix>3d</fix>
</trkpt>
<trkpt lat="-27.2740369" lon="151.2856711">
  <ele>373.28</ele>
  <time>2026-09-01T19:58:17Z</time>
  <course>265.47</course>
  <speed>25.39</speed>
  <fix>3d</fix>
</trkpt>
<trkpt lat="-27.2740439" lon="151.2855705">
  <ele>373.15</ele>
  <time>2026-09-01T19:58:17Z</time>
  <course>265.58</course>
  <speed>25.339844119488976</speed>
  <fix>3d</fix>
</trkpt>
<trkpt lat="-27.2740405" lon="151.28562">
  <ele>373.27</ele>
  <time>2026-09-01T19:58:17Z</time>
  <course>265.45</course>
  <speed>25.4</speed>
  <fix>3d</fix>
</trkpt>
<trkpt lat="-27.2740457" lon="151.2855452">
  <ele>373.14</ele>
  <time>2026-09-01T19:58:17Z</time>
  <course>265.62</course>
  <speed>25.3390528631202</speed>
  <fix>3d</fix>
</trkpt>
<trkpt lat="-27.2740405" lon="151.28562">
  <ele>373.27</ele>
  <time>2026-09-01T19:58:17Z</time>
  <course>265.45</course>
  <speed>25.4</speed>
  <fix>3d</fix>
</trkpt>
<trkpt lat="-27.2740475" lon="151.2855196">
  <ele>373.14</ele>
  <time>2026-09-01T19:58:17Z</time>
  <course>265.61</course>
  <speed>25.349021677374452</speed>
  <fix>3d</fix>
</trkpt>
<trkpt lat="-27.2740441" lon="151.2855688">
  <ele>373.26</ele>
  <time>2026-09-01T19:58:17Z</time>
  <course>265.45</course>
  <speed>25.4</speed>
  <fix>3d</fix>
</trkpt>
<trkpt lat="-27.2740493" lon="151.2854941">
  <ele>373.13</ele>
  <time>2026-09-01T19:58:17Z</time>
  <course>265.6</course>
  <speed>25.33826552864264</speed>
  <fix>3d</fix>
</trkpt>
<trkpt lat="-27.2740441" lon="151.2855688">
  <ele>373.26</ele>
  <time>2026-09-01T19:58:17Z</time>
  <course>265.45</course>
  <speed>25.4</speed>
  <fix>3d</fix>
</trkpt>
<trkpt lat="-27.2740511" lon="151.2854685">
  <ele>373.13</ele>
  <time>2026-09-01T19:58:17Z</time>
  <course>265.6</course>
  <speed>25.33826552864264</speed>
  <fix>3d</fix>
</trkpt>
<trkpt lat="-27.2740478" lon="151.2855176">
  <ele>373.25</ele>
  <time>2026-09-01T19:58:17Z</time>
  <course>265.46</course>
  <speed>25.41</speed>
  <fix>3d</fix>
</trkpt>
<trkpt lat="-27.2740529" lon="151.2854428">
  <ele>373.13</ele>
  <time>2026-09-01T19:58:17Z</time>
  <course>265.61</course>
  <speed>25.33826552864264</speed>
  <fix>3d</fix>
</trkpt>
<trkpt lat="-27.2740478" lon="151.2855176">
  <ele>373.25</ele>
  <time>2026-09-01T19:58:17Z</time>
  <course>265.46</course>
  <speed>25.41</speed>
  <fix>3d</fix>
</trkpt>
<trkpt lat="-27.2740547" lon="151.2854172">
  <ele>373.13</ele>
  <time>2026-09-01T19:58:17Z</time>
  <course>265.62</course>
  <speed>25.34823465253547</speed>
  <fix>3d</fix>
</trkpt>
<trkpt lat="-27.2740514" lon="151.2854664">
  <ele>373.24</ele>
  <time>2026-09-01T19:58:17Z</time>
  <course>265.47</course>
  <speed>25.41</speed>
  <fix>3d</fix>
</trkpt>
<trkpt lat="-27.2740565" lon="151.2853917">
  <ele>373.13</ele>
  <time>2026-09-01T19:58:17Z</time>
  <course>265.62</course>
  <speed>25.347451548429873</speed>
  <fix>3d</fix>
</trkpt>
<trkpt lat="-27.2740514" lon="151.2854664">
  <ele>373.24</ele>
  <time>2026-09-01T19:58:17Z</time>
  <course>265.47</course>
  <speed>25.41</speed>
  <fix>3d</fix>
</trkpt>
<trkpt lat="-27.2740583" lon="151.2853661">
  <ele>373.14</ele>
  <time>2026-09-01T19:58:17Z</time>
  <course>265.59</course>
  <speed>25.347451548429873</speed>
  <fix>3d</fix>
</trkpt>
<trkpt lat="-27.274055" lon="151.2854152">
  <ele>373.24</ele>
  <time>2026-09-01T19:58:17Z</time>
  <course>265.48</course>
  <speed>25.41</speed>
  <fix>3d</fix>
</trkpt>
<trkpt lat="-27.2740601" lon="151.2853405">
  <ele>373.14</ele>
  <time>2026-09-01T19:58:17Z</time>
  <course>265.6</course>
  <speed>25.337482116421906</speed>
  <fix>3d</fix>
</trkpt>
<trkpt lat="-27.274055" lon="151.2854152">
  <ele>373.24</ele>
  <time>2026-09-01T19:58:17Z</time>
  <course>265.48</course>
  <speed>25.41</speed>
  <fix>3d</fix>
</trkpt>
<trkpt lat="-27.2740619" lon="151.285315">
  <ele>373.14</ele>
  <time>2026-09-01T19:58:17Z</time>
  <course>265.64</course>
  <speed>25.337482116421906</speed>
  <fix>3d</fix>
</trkpt>
<trkpt lat="-27.2740586" lon="151.2853639">
  <ele>373.24</ele>
  <time>2026-09-01T19:58:17Z</time>
  <course>265.49</course>
  <speed>25.41</speed>
  <fix>3d</fix>
</trkpt>
<trkpt lat="-27.2740637" lon="151.2852894">
  <ele>373.14</ele>
  <time>2026-09-01T19:58:17Z</time>
  <course>265.64</course>
  <speed>25.336702626821825</speed>
  <fix>3d</fix>
</trkpt>
<trkpt lat="-27.2740586" lon="151.2853639">
  <ele>373.24</ele>
  <time>2026-09-01T19:58:17Z</time>
  <course>265.49</course>
  <speed>25.41</speed>
  <fix>3d</fix>
</trkpt>
<trkpt lat="-27.2740655" lon="151.2852636">
  <ele>373.15</ele>
  <time>2026-09-01T19:58:17Z</time>
  <course>265.57</course>
  <speed>25.336702626821825</speed>
  <fix>3d</fix>
</trkpt>
<trkpt lat="-27.2740621" lon="151.2853126">
  <ele>373.24</ele>
  <time>2026-09-01T19:58:17Z</time>
  <course>265.5</course>
  <speed>25.4</speed>
  <fix>3d</fix>
</trkpt>
<trkpt lat="-27.2740673" lon="151.285238">
  <ele>373.15</ele>
  <time>2026-09-01T19:58:17Z</time>
  <course>265.55</course>
  <speed>25.337482116421906</speed>
  <fix>3d</fix>
</trkpt>
<trkpt lat="-27.2740621" lon="151.2853126">
  <ele>373.24</ele>
  <time>2026-09-01T19:58:17Z</time>
  <course>265.5</course>
  <speed>25.4</speed>
  <fix>3d</fix>
</trkpt>
<trkpt lat="-27.2740691" lon="151.2852124">
  <ele>373.14</ele>
  <time>2026-09-01T19:58:17Z</time>
  <course>265.61</course>
  <speed>25.337482116421906</speed>
  <fix>3d</fix>
</trkpt>
<trkpt lat="-27.2740657" lon="151.2852615">
  <ele>373.25</ele>
  <time>2026-09-01T19:58:17Z</time>
  <course>265.5</course>
  <speed>25.4</speed>
  <fix>3d</fix>
</trkpt>
<trkpt lat="-27.2740709" lon="151.2851868">
  <ele>373.14</ele>
  <time>2026-09-01T19:58:17Z</time>
  <course>265.62</course>
  <speed>25.347451548429873</speed>
  <fix>3d</fix>
</trkpt>
<trkpt lat="-27.2740657" lon="151.2852615">
  <ele>373.25</ele>
  <time>2026-09-01T19:58:17Z</time>
  <course>265.5</course>
  <speed>25.4</speed>
  <fix>3d</fix>
</trkpt>
<trkpt lat="-27.2740727" lon="151.2851612">
  <ele>373.13</ele>
  <time>2026-09-01T19:58:17Z</time>
  <course>265.62</course>
  <speed>25.347451548429873</speed>
  <fix>3d</fix>
</trkpt>
<trkpt lat="-27.2740693" lon="151.2852103">
  <ele>373.24</ele>
  <time>2026-09-01T19:58:17Z</time>
  <course>265.49</course>
  <speed>25.4</speed>
  <fix>3d</fix>
</trkpt>
<trkpt lat="-27.2740744" lon="151.2851355">
  <ele>373.13</ele>
  <time>2026-09-01T19:58:17Z</time>
  <course>265.6</course>
  <speed>25.347451548429873</speed>
  <fix>3d</fix>
</trkpt>
<trkpt lat="-27.2740693" lon="151.2852103">
  <ele>373.24</ele>
  <time>2026-09-01T19:58:17Z</time>
  <course>265.49</course>
  <speed>25.4</speed>
  <fix>3d</fix>
</trkpt>
<trkpt lat="-27.2740762" lon="151.2851099">
  <ele>373.12</ele>
  <time>2026-09-01T19:58:17Z</time>
  <course>265.59</course>
  <speed>25.357421004510694</speed>
  <fix>3d</fix>
</trkpt>
<trkpt lat="-27.2740729" lon="151.285159">
  <ele>373.23</ele>
  <time>2026-09-01T19:58:17Z</time>
  <course>265.48</course>
  <speed>25.4</speed>
  <fix>3d</fix>
</trkpt>
<trkpt lat="-27.274078" lon="151.2850843">
  <ele>373.12</ele>
  <time>2026-09-01T19:58:17Z</time>
  <course>265.61</course>
  <speed>25.357421004510694</speed>
  <fix>3d</fix>
</trkpt>
<trkpt lat="-27.2740729" lon="151.285159">
  <ele>373.23</ele>
  <time>2026-09-01T19:58:17Z</time>
  <course>265.48</course>
  <speed>25.4</speed>
  <fix>3d</fix>
</trkpt>
<trkpt lat="-27.2740798" lon="151.2850586">
  <ele>373.11</ele>
  <time>2026-09-01T19:58:17Z</time>
  <course>265.67</course>
  <speed>25.36739048463598</speed>
  <fix>3d</fix>
</trkpt>
<trkpt lat="-27.2740765" lon="151.2851079">
  <ele>373.22</ele>
  <time>2026-09-01T19:58:17Z</time>
  <course>265.49</course>
  <speed>25.41</speed>
  <fix>3d</fix>
</trkpt>
<trkpt lat="-27.2740816" lon="151.285033">
  <ele>373.11</ele>
  <time>2026-09-01T19:58:17Z</time>
  <course>265.71</course>
  <speed>25.366611914088963</speed>
  <fix>3d</fix>
</trkpt>
<trkpt lat="-27.2740765" lon="151.2851079">
  <ele>373.22</ele>
  <time>2026-09-01T19:58:17Z</time>
  <course>265.49</course>
  <speed>25.41</speed>
  <fix>3d</fix>
</trkpt>
<trkpt lat="-27.2740834" lon="151.2850075">
  <ele>373.11</ele>
  <time>2026-09-01T19:58:17Z</time>
  <course>265.71</course>
  <speed>25.366611914088963</speed>
  <fix>3d</fix>
</trkpt>
<trkpt lat="-27.27408" lon="151.2850566">
  <ele>373.21</ele>
  <time>2026-09-01T19:58:17Z</time>
  <course>265.5</course>
  <speed>25.41</speed>
  <fix>3d</fix>
</trkpt>
<trkpt lat="-27.2740852" lon="151.2849819">
  <ele>373.1</ele>
  <time>2026-09-01T19:58:17Z</time>
  <course>265.68</course>
  <speed>25.376581724101456</speed>
  <fix>3d</fix>
</trkpt>
<trkpt lat="-27.27408" lon="151.2850566">
  <ele>373.21</ele>
  <time>2026-09-01T19:58:17Z</time>
  <course>265.5</course>
  <speed>25.41</speed>
  <fix>3d</fix>
</trkpt>
<trkpt lat="-27.274087" lon="151.2849562">
  <ele>373.1</ele>
  <time>2026-09-01T19:58:17Z</time>
  <course>265.65</course>
  <speed>25.376581724101456</speed>
  <fix>3d</fix>
</trkpt>
<trkpt lat="-27.2740836" lon="151.2850055">
  <ele>373.2</ele>
  <time>2026-09-01T19:58:17Z</time>
  <course>265.51</course>
  <speed>25.41</speed>
  <fix>3d</fix>
</trkpt>
<trkpt lat="-27.2740887" lon="151.2849306">
  <ele>373.09</ele>
  <time>2026-09-01T19:58:17Z</time>
  <course>265.62</course>
  <speed>25.376581724101456</speed>
  <fix>3d</fix>
</trkpt>
<trkpt lat="-27.2740836" lon="151.2850055">
  <ele>373.2</ele>
  <time>2026-09-01T19:58:17Z</time>
  <course>265.51</course>
  <speed>25.41</speed>
  <fix>3d</fix>
</trkpt>
<trkpt lat="-27.2740905" lon="151.2849047">
  <ele>373.09</ele>
  <time>2026-09-01T19:58:17Z</time>
  <course>265.57</course>
  <speed>25.387329516906657</speed>
  <fix>3d</fix>
</trkpt>
<trkpt lat="-27.2740871" lon="151.2849542">
  <ele>373.19</ele>
  <time>2026-09-01T19:58:17Z</time>
  <course>265.52</course>
  <speed>25.41</speed>
  <fix>3d</fix>
</trkpt>
<trkpt lat="-27.2740923" lon="151.2848791">
  <ele>373.09</ele>
  <time>2026-09-01T19:58:17Z</time>
  <course>265.61</course>
  <speed>25.387329516906657</speed>
  <fix>3d</fix>
</trkpt>
<trkpt lat="-27.2740871" lon="151.2849542">
  <ele>373.19</ele>
  <time>2026-09-01T19:58:17Z</time>
  <course>265.52</course>
  <speed>25.41</speed>
  <fix>3d</fix>
</trkpt>
<trkpt lat="-27.2740941" lon="151.2848534">
  <ele>373.08</ele>
  <time>2026-09-01T19:58:17Z</time>
  <course>265.68</course>
  <speed>25.388111390964077</speed>
  <fix>3d</fix>
</trkpt>
<trkpt lat="-27.2740908" lon="151.2849031">
  <ele>373.19</ele>
  <time>2026-09-01T19:58:17Z</time>
  <course>265.5</course>
  <speed>25.41</speed>
  <fix>3d</fix>
</trkpt>
<trkpt lat="-27.2740959" lon="151.2848278">
  <ele>373.08</ele>
  <time>2026-09-01T19:58:17Z</time>
  <course>265.65</course>
  <speed>25.398080636142566</speed>
  <fix>3d</fix>
</trkpt>
<trkpt lat="-27.2740908" lon="151.2849031">
  <ele>373.19</ele>
  <time>2026-09-01T19:58:17Z</time>
  <course>265.5</course>
  <speed>25.41</speed>
  <fix>3d</fix>
</trkpt>
<trkpt lat="-27.2740977" lon="151.2848021">
  <ele>373.08</ele>
  <time>2026-09-01T19:58:17Z</time>
  <course>265.63</course>
  <speed>25.398866116423388</speed>
  <fix>3d</fix>
</trkpt>
<trkpt lat="-27.2740944" lon="151.2848518">
  <ele>373.18</ele>
  <time>2026-09-01T19:58:17Z</time>
  <course>265.48</course>
  <speed>25.42</speed>
  <fix>3d</fix>
</trkpt>
<trkpt lat="-27.2740995" lon="151.2847765">
  <ele>373.08</ele>
  <time>2026-09-01T19:58:17Z</time>
  <course>265.65</course>
  <speed>25.398866116423388</speed>
  <fix>3d</fix>
</trkpt>
<trkpt lat="-27.2740944" lon="151.2848518">
  <ele>373.18</ele>
  <time>2026-09-01T19:58:17Z</time>
  <course>265.48</course>
  <speed>25.42</speed>
  <fix>3d</fix>
</trkpt>
<trkpt lat="-27.2741014" lon="151.2847508">
  <ele>373.08</ele>
  <time>2026-09-01T19:58:17Z</time>
  <course>265.6</course>
  <speed>25.398866116423388</speed>
  <fix>3d</fix>
</trkpt>
<trkpt lat="-27.274098" lon="151.2848005">
  <ele>373.18</ele>
  <time>2026-09-01T19:58:17Z</time>
  <course>265.46</course>
  <speed>25.42</speed>
  <fix>3d</fix>
</trkpt>
<trkpt lat="-27.2741032" lon="151.2847252">
  <ele>373.08</ele>
  <time>2026-09-01T19:58:17Z</time>
  <course>265.6</course>
  <speed>25.39965550947493</speed>
  <fix>3d</fix>
</trkpt>
<trkpt lat="-27.274098" lon="151.2848005">
  <ele>373.18</ele>
  <time>2026-09-01T19:58:17Z</time>
  <course>265.46</course>
  <speed>25.42</speed>
  <fix>3d</fix>
</trkpt>
<trkpt lat="-27.274105" lon="151.2846995">
  <ele>373.08</ele>
  <time>2026-09-01T19:58:17Z</time>
  <course>265.61</course>
  <speed>25.398866116423388</speed>
  <fix>3d</fix>
</trkpt>
<trkpt lat="-27.2741016" lon="151.2847492">
  <ele>373.18</ele>
  <time>2026-09-01T19:58:17Z</time>
  <course>265.44</course>
  <speed>25.42</speed>
  <fix>3d</fix>
</trkpt>
<trkpt lat="-27.2741068" lon="151.2846738">
  <ele>373.08</ele>
  <time>2026-09-01T19:58:17Z</time>
  <course>265.65</course>
  <speed>25.408835077586694</speed>
  <fix>3d</fix>
</trkpt>
<trkpt lat="-27.2741016" lon="151.2847492">
  <ele>373.18</ele>
  <time>2026-09-01T19:58:17Z</time>
  <course>265.44</course>
  <speed>25.42</speed>
  <fix>3d</fix>
</trkpt>
<trkpt lat="-27.2741086" lon="151.2846482">
  <ele>373.08</ele>
  <time>2026-09-01T19:58:17Z</time>
  <course>265.66</course>
  <speed>25.408835077586694</speed>
  <fix>3d</fix>
</trkpt>
<trkpt lat="-27.2741052" lon="151.2846981">
  <ele>373.18</ele>
  <time>2026-09-01T19:58:17Z</time>
  <course>265.43</course>
  <speed>25.42</speed>
  <fix>3d</fix>
</trkpt>
<trkpt lat="-27.2741104" lon="151.2846225">
  <ele>373.08</ele>
  <time>2026-09-01T19:58:17Z</time>
  <course>265.71</course>
  <speed>25.408835077586694</speed>
  <fix>3d</fix>
</trkpt>
<trkpt lat="-27.2741052" lon="151.2846981">
  <ele>373.18</ele>
  <time>2026-09-01T19:58:17Z</time>
  <course>265.43</course>
  <speed>25.42</speed>
  <fix>3d</fix>
</trkpt>
<trkpt lat="-27.2741122" lon="151.2845969">
  <ele>373.08</ele>
  <time>2026-09-01T19:58:17Z</time>
  <course>265.68</course>
  <speed>25.408049905492547</speed>
  <fix>3d</fix>
</trkpt>
<trkpt lat="-27.2741088" lon="151.2846468">
  <ele>373.18</ele>
  <time>2026-09-01T19:58:17Z</time>
  <course>265.44</course>
  <speed>25.42</speed>
  <fix>3d</fix>
</trkpt>
<trkpt lat="-27.2741141" lon="151.284571">
  <ele>373.08</ele>
  <time>2026-09-01T19:58:17Z</time>
  <course>265.62</course>
  <speed>25.408049905492547</speed>
  <fix>3d</fix>
</trkpt>
<trkpt lat="-27.2741088" lon="151.2846468">
  <ele>373.18</ele>
  <time>2026-09-01T19:58:17Z</time>
  <course>265.44</course>
  <speed>25.42</speed>
  <fix>3d</fix>
</trkpt>
<trkpt lat="-27.2741159" lon="151.2845454">
  <ele>373.09</ele>
  <time>2026-09-01T19:58:17Z</time>
  <course>265.6</course>
  <speed>25.408049905492547</speed>
  <fix>3d</fix>
</trkpt>
<trkpt lat="-27.2741125" lon="151.2845957">
  <ele>373.18</ele>
  <time>2026-09-01T19:58:17Z</time>
  <course>265.45</course>
  <speed>25.42</speed>
  <fix>3d</fix>
</trkpt>
<trkpt lat="-27.2741177" lon="151.2845198">
  <ele>373.09</ele>
  <time>2026-09-01T19:58:17Z</time>
  <course>265.62</course>
  <speed>25.408049905492547</speed>
  <fix>3d</fix>
</trkpt>
<trkpt lat="-27.2741125" lon="151.2845957">
  <ele>373.18</ele>
  <time>2026-09-01T19:58:17Z</time>
  <course>265.45</course>
  <speed>25.42</speed>
  <fix>3d</fix>
</trkpt>
<trkpt lat="-27.2741195" lon="151.2844941">
  <ele>373.09</ele>
  <time>2026-09-01T19:58:17Z</time>
  <course>265.66</course>
  <speed>25.408049905492547</speed>
  <fix>3d</fix>
</trkpt>
<trkpt lat="-27.2741161" lon="151.2845444">
  <ele>373.18</ele>
  <time>2026-09-01T19:58:17Z</time>
  <course>265.46</course>
  <speed>25.41</speed>
  <fix>3d</fix>
</trkpt>
<trkpt lat="-27.2741213" lon="151.2844687">
  <ele>373.09</ele>
  <time>2026-09-01T19:58:17Z</time>
  <course>265.72</course>
  <speed>25.407268645015744</speed>
  <fix>3d</fix>
</trkpt>
<trkpt lat="-27.2741161" lon="151.2845444">
  <ele>373.18</ele>
  <time>2026-09-01T19:58:17Z</time>
  <course>265.46</course>
  <speed>25.41</speed>
  <fix>3d</fix>
</trkpt>
<trkpt lat="-27.2741231" lon="151.284443">
  <ele>373.09</ele>
  <time>2026-09-01T19:58:17Z</time>
  <course>265.72</course>
  <speed>25.407268645015744</speed>
  <fix>3d</fix>
</trkpt>
<trkpt lat="-27.2741197" lon="151.2844933">
  <ele>373.18</ele>
  <time>2026-09-01T19:58:17Z</time>
  <course>265.47</course>
  <speed>25.41</speed>
  <fix>3d</fix>
</trkpt>
<trkpt lat="-27.2741248" lon="151.2844174">
  <ele>373.09</ele>
  <time>2026-09-01T19:58:17Z</time>
  <course>265.71</course>
  <speed>25.407268645015744</speed>
  <fix>3d</fix>
</trkpt>
<trkpt lat="-27.2741197" lon="151.2844933">
  <ele>373.18</ele>
  <time>2026-09-01T19:58:17Z</time>
  <course>265.47</course>
  <speed>25.41</speed>
  <fix>3d</fix>
</trkpt>
<trkpt lat="-27.2741266" lon="151.2843917">
  <ele>373.09</ele>
  <time>2026-09-01T19:58:17Z</time>
  <course>265.73</course>
  <speed>25.406491296517114</speed>
  <fix>3d</fix>
</trkpt>
<trkpt lat="-27.2741233" lon="151.284442">
  <ele>373.18</ele>
  <time>2026-09-01T19:58:17Z</time>
  <course>265.48</course>
  <speed>25.4</speed>
  <fix>3d</fix>
</trkpt>
<trkpt lat="-27.2741284" lon="151.2843659">
  <ele>373.1</ele>
  <time>2026-09-01T19:58:17Z</time>
  <course>265.76</course>
  <speed>25.415688068592594</speed>
  <fix>3d</fix>
</trkpt>
<trkpt lat="-27.2741233" lon="151.284442">
  <ele>373.18</ele>
  <time>2026-09-01T19:58:17Z</time>
  <course>265.48</course>
  <speed>25.4</speed>
  <fix>3d</fix>
</trkpt>
<trkpt lat="-27.2741302" lon="151.2843402">
  <ele>373.1</ele>
  <time>2026-09-01T19:58:17Z</time>
  <course>265.74</course>
  <speed>25.415688068592594</speed>
  <fix>3d</fix>
</trkpt>
<trkpt lat="-27.2741269" lon="151.2843909">
  <ele>373.18</ele>
  <time>2026-09-01T19:58:17Z</time>
  <course>265.5</course>
  <speed>25.4</speed>
  <fix>3d</fix>
</trkpt>
<trkpt lat="-27.274132" lon="151.2843145">
  <ele>373.1</ele>
  <time>2026-09-01T19:58:17Z</time>
  <course>265.68</course>
  <speed>25.415688068592594</speed>
  <fix>3d</fix>
</trkpt>
<trkpt lat="-27.2741269" lon="151.2843909">
  <ele>373.18</ele>
  <time>2026-09-01T19:58:17Z</time>
  <course>265.5</course>
  <speed>25.4</speed>
  <fix>3d</fix>
</trkpt>
<trkpt lat="-27.2741338" lon="151.2842889">
  <ele>373.09</ele>
  <time>2026-09-01T19:58:17Z</time>
  <course>265.66</course>
  <speed>25.426431129830235</speed>
  <fix>3d</fix>
</trkpt>
<trkpt lat="-27.2741304" lon="151.2843397">
  <ele>373.18</ele>
  <time>2026-09-01T19:58:17Z</time>
  <course>265.51</course>
  <speed>25.4</speed>
  <fix>3d</fix>
</trkpt>
<trkpt lat="-27.2741356" lon="151.2842632">
  <ele>373.09</ele>
  <time>2026-09-01T19:58:17Z</time>
  <course>265.71</course>
  <speed>25.426431129830235</speed>
  <fix>3d</fix>
</trkpt>
<trkpt lat="-27.2741304" lon="151.2843397">
  <ele>373.18</ele>
  <time>2026-09-01T19:58:17Z</time>
  <course>265.51</course>
  <speed>25.4</speed>
  <fix>3d</fix>
</trkpt>
<trkpt lat="-27.2741374" lon="151.2842376">
  <ele>373.09</ele>
  <time>2026-09-01T19:58:17Z</time>
  <course>265.72</course>
  <speed>25.426431129830235</speed>
  <fix>3d</fix>
</trkpt>
<trkpt lat="-27.274134" lon="151.2842885">
  <ele>373.17</ele>
  <time>2026-09-01T19:58:17Z</time>
  <course>265.51</course>
  <speed>25.4</speed>
  <fix>3d</fix>
</trkpt>
<trkpt lat="-27.2741392" lon="151.2842119">
  <ele>373.09</ele>
  <time>2026-09-01T19:58:18Z</time>
  <course>265.72</course>
  <speed>25.426431129830235</speed>
  <fix>3d</fix>
</trkpt>
<trkpt lat="-27.274134" lon="151.2842885">
  <ele>373.17</ele>
  <time>2026-09-01T19:58:18Z</time>
  <course>265.51</course>
  <speed>25.4</speed>
  <fix>3d</fix>
</trkpt>
<trkpt lat="-27.274141" lon="151.2841863">
  <ele>373.09</ele>
  <time>2026-09-01T19:58:18Z</time>
  <course>265.66</course>
  <speed>25.426431129830235</speed>
  <fix>3d</fix>
</trkpt>
<trkpt lat="-27.2741376" lon="151.2842372">
  <ele>373.16</ele>
  <time>2026-09-01T19:58:18Z</time>
  <course>265.5</course>
  <speed>25.41</speed>
  <fix>3d</fix>
</trkpt>
<trkpt lat="-27.2741427" lon="151.2841607">
  <ele>373.09</ele>
  <time>2026-09-01T19:58:18Z</time>
  <course>265.67</course>
  <speed>25.437177516383375</speed>
  <fix>3d</fix>
</trkpt>
<trkpt lat="-27.2741376" lon="151.2842372">
  <ele>373.16</ele>
  <time>2026-09-01T19:58:18Z</time>
  <course>265.5</course>
  <speed>25.41</speed>
  <fix>3d</fix>
</trkpt>
<trkpt lat="-27.2741445" lon="151.2841352">
  <ele>373.09</ele>
  <time>2026-09-01T19:58:18Z</time>
  <course>265.69</course>
  <speed>25.427207868737767</speed>
  <fix>3d</fix>
</trkpt>
<trkpt lat="-27.2741412" lon="151.2841859">
  <ele>373.16</ele>
  <time>2026-09-01T19:58:18Z</time>
  <course>265.5</course>
  <speed>25.41</speed>
  <fix>3d</fix>
</trkpt>
<trkpt lat="-27.2741463" lon="151.2841096">
  <ele>373.09</ele>
  <time>2026-09-01T19:58:18Z</time>
  <course>265.69</course>
  <speed>25.427207868737767</speed>
  <fix>3d</fix>
</trkpt>
<trkpt lat="-27.2741412" lon="151.2841859">
  <ele>373.16</ele>
  <time>2026-09-01T19:58:18Z</time>
  <course>265.5</course>
  <speed>25.41</speed>
  <fix>3d</fix>
</trkpt>
<trkpt lat="-27.2741481" lon="151.2840842">
  <ele>373.1</ele>
  <time>2026-09-01T19:58:18Z</time>
  <course>265.72</course>
  <speed>25.4172382449392</speed>
  <fix>3d</fix>
</trkpt>
<trkpt lat="-27.2741447" lon="151.2841348">
  <ele>373.15</ele>
  <time>2026-09-01T19:58:18Z</time>
  <course>265.49</course>
  <speed>25.41</speed>
  <fix>3d</fix>
</trkpt>
<trkpt lat="-27.2741499" lon="151.2840587">
  <ele>373.1</ele>
  <time>2026-09-01T19:58:18Z</time>
  <course>265.7</course>
  <speed>25.4172382449392</speed>
  <fix>3d</fix>
</trkpt>
<trkpt lat="-27.2741447" lon="151.2841348">
  <ele>373.15</ele>
  <time>2026-09-01T19:58:18Z</time>
  <course>265.49</course>
  <speed>25.41</speed>
  <fix>3d</fix>
</trkpt>
<trkpt lat="-27.2741517" lon="151.2840333">
  <ele>373.1</ele>
  <time>2026-09-01T19:58:18Z</time>
  <course>265.69</course>
  <speed>25.407268645015744</speed>
  <fix>3d</fix>
</trkpt>
<trkpt lat="-27.2741483" lon="151.2840835">
  <ele>373.15</ele>
  <time>2026-09-01T19:58:18Z</time>
  <course>265.49</course>
  <speed>25.41</speed>
  <fix>3d</fix>
</trkpt>
<trkpt lat="-27.2741534" lon="151.2840078">
  <ele>373.1</ele>
  <time>2026-09-01T19:58:18Z</time>
  <course>265.69</course>
  <speed>25.396521415343482</speed>
  <fix>3d</fix>
</trkpt>
<trkpt lat="-27.2741483" lon="151.2840835">
  <ele>373.15</ele>
  <time>2026-09-01T19:58:18Z</time>
  <course>265.49</course>
  <speed>25.41</speed>
  <fix>3d</fix>
</trkpt>
<trkpt lat="-27.2741552" lon="151.2839824">
  <ele>373.1</ele>
  <time>2026-09-01T19:58:18Z</time>
  <course>265.66</course>
  <speed>25.386551557862287</speed>
  <fix>3d</fix>
</trkpt>
<trkpt lat="-27.2741519" lon="151.2840324">
  <ele>373.15</ele>
  <time>2026-09-01T19:58:18Z</time>
  <course>265.5</course>
  <speed>25.41</speed>
  <fix>3d</fix>
</trkpt>
<trkpt lat="-27.274157" lon="151.2839569">
  <ele>373.1</ele>
  <time>2026-09-01T19:58:18Z</time>
  <course>265.66</course>
  <speed>25.386551557862287</speed>
  <fix>3d</fix>
</trkpt>
<trkpt lat="-27.2741519" lon="151.2840324">
  <ele>373.15</ele>
  <time>2026-09-01T19:58:18Z</time>
  <course>265.5</course>
  <speed>25.41</speed>
  <fix>3d</fix>
</trkpt>
<trkpt lat="-27.2741588" lon="151.2839314">
  <ele>373.09</ele>
  <time>2026-09-01T19:58:18Z</time>
  <course>265.66</course>
  <speed>25.3773599887774</speed>
  <fix>3d</fix>
</trkpt>
<trkpt lat="-27.2741555" lon="151.2839811">
  <ele>373.15</ele>
  <time>2026-09-01T19:58:18Z</time>
  <course>265.5</course>
  <speed>25.41</speed>
  <fix>3d</fix>
</trkpt>
<trkpt lat="-27.2741606" lon="151.283906">
  <ele>373.09</ele>
  <time>2026-09-01T19:58:18Z</time>
  <course>265.68</course>
  <speed>25.3773599887774</speed>
  <fix>3d</fix>
</trkpt>
<trkpt lat="-27.2741555" lon="151.2839811">
  <ele>373.15</ele>
  <time>2026-09-01T19:58:18Z</time>
  <course>265.5</course>
  <speed>25.41</speed>
  <fix>3d</fix>
</trkpt>
<trkpt lat="-27.2741624" lon="151.2838805">
  <ele>373.08</ele>
  <time>2026-09-01T19:58:18Z</time>
  <course>265.7</course>
  <speed>25.3773599887774</speed>
  <fix>3d</fix>
</trkpt>
<trkpt lat="-27.2741591" lon="151.28393">
  <ele>373.14</ele>
  <time>2026-09-01T19:58:18Z</time>
  <course>265.49</course>
  <speed>25.41</speed>
  <fix>3d</fix>
</trkpt>
<trkpt lat="-27.2741642" lon="151.283855">
  <ele>373.07</ele>
  <time>2026-09-01T19:58:18Z</time>
  <course>265.72</course>
  <speed>25.36739048463598</speed>
  <fix>3d</fix>
</trkpt>
<trkpt lat="-27.2741591" lon="151.28393">
  <ele>373.14</ele>
  <time>2026-09-01T19:58:18Z</time>
  <course>265.49</course>
  <speed>25.41</speed>
  <fix>3d</fix>
</trkpt>
<trkpt lat="-27.274166" lon="151.2838293">
  <ele>373.07</ele>
  <time>2026-09-01T19:58:18Z</time>
  <course>265.76</course>
  <speed>25.36739048463598</speed>
  <fix>3d</fix>
</trkpt>
<trkpt lat="-27.2741627" lon="151.2838787">
  <ele>373.12</ele>
  <time>2026-09-01T19:58:18Z</time>
  <course>265.48</course>
  <speed>25.42</speed>
  <fix>3d</fix>
</trkpt>
<trkpt lat="-27.2741677" lon="151.2838038">
  <ele>373.05</ele>
  <time>2026-09-01T19:58:18Z</time>
  <course>265.73</course>
  <speed>25.376581724101456</speed>
  <fix>3d</fix>
</trkpt>
<trkpt lat="-27.2741627" lon="151.2838787">
  <ele>373.12</ele>
  <time>2026-09-01T19:58:18Z</time>
  <course>265.48</course>
  <speed>25.42</speed>
  <fix>3d</fix>
</trkpt>
<trkpt lat="-27.2741695" lon="151.2837782">
  <ele>373.04</ele>
  <time>2026-09-01T19:58:18Z</time>
  <course>265.68</course>
  <speed>25.376581724101456</speed>
  <fix>3d</fix>
</trkpt>
<trkpt lat="-27.2741662" lon="151.2838276">
  <ele>373.11</ele>
  <time>2026-09-01T19:58:18Z</time>
  <course>265.49</course>
  <speed>25.42</speed>
  <fix>3d</fix>
</trkpt>
<trkpt lat="-27.2741713" lon="151.2837526">
  <ele>373.04</ele>
  <time>2026-09-01T19:58:18Z</time>
  <course>265.69</course>
  <speed>25.3773599887774</speed>
  <fix>3d</fix>
</trkpt>
<trkpt lat="-27.2741662" lon="151.2838276">
  <ele>373.11</ele>
  <time>2026-09-01T19:58:18Z</time>
  <course>265.49</course>
  <speed>25.42</speed>
  <fix>3d</fix>
</trkpt>
<trkpt lat="-27.2741731" lon="151.283727">
  <ele>373.03</ele>
  <time>2026-09-01T19:58:18Z</time>
  <course>265.69</course>
  <speed>25.387329516906657</speed>
  <fix>3d</fix>
</trkpt>
<trkpt lat="-27.2741698" lon="151.2837762">
  <ele>373.09</ele>
  <time>2026-09-01T19:58:18Z</time>
  <course>265.49</course>
  <speed>25.43</speed>
  <fix>3d</fix>
</trkpt>
<trkpt lat="-27.2741749" lon="151.2837014">
  <ele>373.03</ele>
  <time>2026-09-01T19:58:18Z</time>
  <course>265.69</course>
  <speed>25.387329516906657</speed>
  <fix>3d</fix>
</trkpt>
<trkpt lat="-27.2741698" lon="151.2837762">
  <ele>373.09</ele>
  <time>2026-09-01T19:58:18Z</time>
  <course>265.49</course>
  <speed>25.43</speed>
  <fix>3d</fix>
</trkpt>
<trkpt lat="-27.2741767" lon="151.2836757">
  <ele>373.02</ele>
  <time>2026-09-01T19:58:18Z</time>
  <course>265.68</course>
  <speed>25.388111390964077</speed>
  <fix>3d</fix>
</trkpt>
<trkpt lat="-27.2741734" lon="151.2837248">
  <ele>373.08</ele>
  <time>2026-09-01T19:58:18Z</time>
  <course>265.49</course>
  <speed>25.43</speed>
  <fix>3d</fix>
</trkpt>
<trkpt lat="-27.2741785" lon="151.28365">
  <ele>373.02</ele>
  <time>2026-09-01T19:58:18Z</time>
  <course>265.63</course>
  <speed>25.398080636142566</speed>
  <fix>3d</fix>
</trkpt>
<trkpt lat="-27.2741734" lon="151.2837248">
  <ele>373.08</ele>
  <time>2026-09-01T19:58:18Z</time>
  <course>265.49</course>
  <speed>25.43</speed>
  <fix>3d</fix>
</trkpt>
<trkpt lat="-27.2741803" lon="151.2836243">
  <ele>373.01</ele>
  <time>2026-09-01T19:58:18Z</time>
  <course>265.64</course>
  <speed>25.398080636142566</speed>
  <fix>3d</fix>
</trkpt>
<trkpt lat="-27.274177" lon="151.2836736">
  <ele>373.07</ele>
  <time>2026-09-01T19:58:18Z</time>
  <course>265.48</course>
  <speed>25.44</speed>
  <fix>3d</fix>
</trkpt>
<trkpt lat="-27.2741821" lon="151.2835986">
  <ele>373.01</ele>
  <time>2026-09-01T19:58:18Z</time>
  <course>265.69</course>
  <speed>25.408049905492547</speed>
  <fix>3d</fix>
</trkpt>
<trkpt lat="-27.274177" lon="151.2836736">
  <ele>373.07</ele>
  <time>2026-09-01T19:58:18Z</time>
  <course>265.48</course>
  <speed>25.44</speed>
  <fix>3d</fix>
</trkpt>
<trkpt lat="-27.2741839" lon="151.2835729">
  <ele>373.01</ele>
  <time>2026-09-01T19:58:18Z</time>
  <course>265.71</course>
  <speed>25.408049905492547</speed>
  <fix>3d</fix>
</trkpt>
<trkpt lat="-27.2741806" lon="151.2836224">
  <ele>373.07</ele>
  <time>2026-09-01T19:58:18Z</time>
  <course>265.47</course>
  <speed>25.44</speed>
  <fix>3d</fix>
</trkpt>
<trkpt lat="-27.2741858" lon="151.2835472">
  <ele>373.01</ele>
  <time>2026-09-01T19:58:18Z</time>
  <course>265.7</course>
  <speed>25.408049905492547</speed>
  <fix>3d</fix>
</trkpt>
<trkpt lat="-27.2741806" lon="151.2836224">
  <ele>373.07</ele>
  <time>2026-09-01T19:58:18Z</time>
  <course>265.47</course>
  <speed>25.44</speed>
  <fix>3d</fix>
</trkpt>
<trkpt lat="-27.2741876" lon="151.2835216">
  <ele>373.01</ele>
  <time>2026-09-01T19:58:18Z</time>
  <course>265.68</course>
  <speed>25.407268645015744</speed>
  <fix>3d</fix>
</trkpt>
<trkpt lat="-27.2741842" lon="151.2835711">
  <ele>373.07</ele>
  <time>2026-09-01T19:58:18Z</time>
  <course>265.47</course>
  <speed>25.44</speed>
  <fix>3d</fix>
</trkpt>
<trkpt lat="-27.2741893" lon="151.2834959">
  <ele>373.01</ele>
  <time>2026-09-01T19:58:18Z</time>
  <course>265.68</course>
  <speed>25.4172382449392</speed>
  <fix>3d</fix>
</trkpt>
<trkpt lat="-27.2741842" lon="151.2835711">
  <ele>373.07</ele>
  <time>2026-09-01T19:58:18Z</time>
  <course>265.47</course>
  <speed>25.44</speed>
  <fix>3d</fix>
</trkpt>
<trkpt lat="-27.2741912" lon="151.2834702">
  <ele>373.01</ele>
  <time>2026-09-01T19:58:18Z</time>
  <course>265.67</course>
  <speed>25.41801919898559</speed>
  <fix>3d</fix>
</trkpt>
<trkpt lat="-27.2741878" lon="151.2835198">
  <ele>373.07</ele>
  <time>2026-09-01T19:58:18Z</time>
  <course>265.48</course>
  <speed>25.44</speed>
  <fix>3d</fix>
</trkpt>
<trkpt lat="-27.274193" lon="151.2834445">
  <ele>373.01</ele>
  <time>2026-09-01T19:58:18Z</time>
  <course>265.69</course>
  <speed>25.41801919898559</speed>
  <fix>3d</fix>
</trkpt>
<trkpt lat="-27.2741878" lon="151.2835198">
  <ele>373.07</ele>
  <time>2026-09-01T19:58:18Z</time>
  <course>265.48</course>
  <speed>25.44</speed>
  <fix>3d</fix>
</trkpt>
<trkpt lat="-27.2741948" lon="151.2834189">
  <ele>373.01</ele>
  <time>2026-09-01T19:58:18Z</time>
  <course>265.65</course>
  <speed>25.41801919898559</speed>
  <fix>3d</fix>
</trkpt>
<trkpt lat="-27.2741914" lon="151.2834686">
  <ele>373.07</ele>
  <time>2026-09-01T19:58:18Z</time>
  <course>265.47</course>
  <speed>25.44</speed>
  <fix>3d</fix>
</trkpt>
<trkpt lat="-27.2741966" lon="151.2833932">
  <ele>373.01</ele>
  <time>2026-09-01T19:58:18Z</time>
  <course>265.63</course>
  <speed>25.418804063134047</speed>
  <fix>3d</fix>
</trkpt>
<trkpt lat="-27.2741914" lon="151.2834686">
  <ele>373.07</ele>
  <time>2026-09-01T19:58:18Z</time>
  <course>265.47</course>
  <speed>25.44</speed>
  <fix>3d</fix>
</trkpt>
<trkpt lat="-27.2741984" lon="151.2833675">
  <ele>373.0</ele>
  <time>2026-09-01T19:58:18Z</time>
  <course>265.68</course>
  <speed>25.418804063134047</speed>
  <fix>3d</fix>
</trkpt>
<trkpt lat="-27.274195" lon="151.2834174">
  <ele>373.07</ele>
  <time>2026-09-01T19:58:18Z</time>
  <course>265.45</course>
  <speed>25.44</speed>
  <fix>3d</fix>
</trkpt>
<trkpt lat="-27.2742002" lon="151.2833419">
  <ele>373.0</ele>
  <time>2026-09-01T19:58:18Z</time>
  <course>265.71</course>
  <speed>25.418804063134047</speed>
  <fix>3d</fix>
</trkpt>
<trkpt lat="-27.274195" lon="151.2834174">
  <ele>373.07</ele>
  <time>2026-09-01T19:58:18Z</time>
  <course>265.45</course>
  <speed>25.44</speed>
  <fix>3d</fix>
</trkpt>
<trkpt lat="-27.274202" lon="151.2833162">
  <ele>373.0</ele>
  <time>2026-09-01T19:58:18Z</time>
  <course>265.77</course>
  <speed>25.428773073036773</speed>
  <fix>3d</fix>
</trkpt>
<trkpt lat="-27.2741987" lon="151.2833661">
  <ele>373.07</ele>
  <time>2026-09-01T19:58:18Z</time>
  <course>265.45</course>
  <speed>25.44</speed>
  <fix>3d</fix>
</trkpt>
<trkpt lat="-27.2742038" lon="151.2832908">
  <ele>372.99</ele>
  <time>2026-09-01T19:58:18Z</time>
  <course>265.74</course>
  <speed>25.428773073036773</speed>
  <fix>3d</fix>
</trkpt>
<trkpt lat="-27.2741987" lon="151.2833661">
  <ele>373.07</ele>
  <time>2026-09-01T19:58:18Z</time>
  <course>265.45</course>
  <speed>25.44</speed>
  <fix>3d</fix>
</trkpt>
<trkpt lat="-27.2742056" lon="151.2832651">
  <ele>372.99</ele>
  <time>2026-09-01T19:58:18Z</time>
  <course>265.73</course>
  <speed>25.428773073036773</speed>
  <fix>3d</fix>
</trkpt>
<trkpt lat="-27.2742023" lon="151.2833149">
  <ele>373.06</ele>
  <time>2026-09-01T19:58:18Z</time>
  <course>265.45</course>
  <speed>25.44</speed>
  <fix>3d</fix>
</trkpt>
<trkpt lat="-27.2742074" lon="151.2832395">
  <ele>372.99</ele>
  <time>2026-09-01T19:58:18Z</time>
  <course>265.74</course>
  <speed>25.428773073036773</speed>
  <fix>3d</fix>
</trkpt>
<trkpt lat="-27.2742023" lon="151.2833149">
  <ele>373.06</ele>
  <time>2026-09-01T19:58:18Z</time>
  <course>265.45</course>
  <speed>25.44</speed>
  <fix>3d</fix>
</trkpt>
<trkpt lat="-27.2742093" lon="151.2832138">
  <ele>373.0</ele>
  <time>2026-09-01T19:58:18Z</time>
  <course>265.71</course>
  <speed>25.429561537706462</speed>
  <fix>3d</fix>
</trkpt>
<trkpt lat="-27.2742059" lon="151.2832636">
  <ele>373.06</ele>
  <time>2026-09-01T19:58:18Z</time>
  <course>265.44</course>
  <speed>25.44</speed>
  <fix>3d</fix>
</trkpt>
<trkpt lat="-27.2742111" lon="151.2831879">
  <ele>373.0</ele>
  <time>2026-09-01T19:58:18Z</time>
  <course>265.69</course>
  <speed>25.429561537706462</speed>
  <fix>3d</fix>
</trkpt>
<trkpt lat="-27.2742059" lon="151.2832636">
  <ele>373.06</ele>
  <time>2026-09-01T19:58:18Z</time>
  <course>265.44</course>
  <speed>25.44</speed>
  <fix>3d</fix>
</trkpt>
<trkpt lat="-27.2742129" lon="151.2831623">
  <ele>373.0</ele>
  <time>2026-09-01T19:58:18Z</time>
  <course>265.72</course>
  <speed>25.429561537706462</speed>
  <fix>3d</fix>
</trkpt>
<trkpt lat="-27.2742095" lon="151.2832122">
  <ele>373.06</ele>
  <time>2026-09-01T19:58:18Z</time>
  <course>265.43</course>
  <speed>25.44</speed>
  <fix>3d</fix>
</trkpt>
<trkpt lat="-27.2742148" lon="151.2831364">
  <ele>373.01</ele>
  <time>2026-09-01T19:58:18Z</time>
  <course>265.7</course>
  <speed>25.430353910238843</speed>
  <fix>3d</fix>
</trkpt>
<trkpt lat="-27.2742095" lon="151.2832122">
  <ele>373.06</ele>
  <time>2026-09-01T19:58:18Z</time>
  <course>265.43</course>
  <speed>25.44</speed>
  <fix>3d</fix>
</trkpt>
<trkpt lat="-27.2742166" lon="151.2831108">
  <ele>373.01</ele>
  <time>2026-09-01T19:58:18Z</time>
  <course>265.71</course>
  <speed>25.430353910238843</speed>
  <fix>3d</fix>
</trkpt>
<trkpt lat="-27.2742132" lon="151.2831608">
  <ele>373.07</ele>
  <time>2026-09-01T19:58:18Z</time>
  <course>265.41</course>
  <speed>25.44</speed>
  <fix>3d</fix>
</trkpt>
<trkpt lat="-27.2742184" lon="151.2830851">
  <ele>373.01</ele>
  <time>2026-09-01T19:58:18Z</time>
  <course>265.69</course>
  <speed>25.430353910238843</speed>
  <fix>3d</fix>
</trkpt>
<trkpt lat="-27.2742132" lon="151.2831608">
  <ele>373.07</ele>
  <time>2026-09-01T19:58:18Z</time>
  <course>265.41</course>
  <speed>25.44</speed>
  <fix>3d</fix>
</trkpt>
<trkpt lat="-27.2742203" lon="151.2830595">
  <ele>373.01</ele>
  <time>2026-09-01T19:58:18Z</time>
  <course>265.66</course>
  <speed>25.430353910238843</speed>
  <fix>3d</fix>
</trkpt>
<trkpt lat="-27.2742168" lon="151.2831097">
  <ele>373.08</ele>
  <time>2026-09-01T19:58:18Z</time>
  <course>265.4</course>
  <speed>25.44</speed>
  <fix>3d</fix>
</trkpt>
<trkpt lat="-27.2742221" lon="151.2830338">
  <ele>373.01</ele>
  <time>2026-09-01T19:58:18Z</time>
  <course>265.66</course>
  <speed>25.430353910238843</speed>
  <fix>3d</fix>
</trkpt>
<trkpt lat="-27.2742168" lon="151.2831097">
  <ele>373.08</ele>
  <time>2026-09-01T19:58:18Z</time>
  <course>265.4</course>
  <speed>25.44</speed>
  <fix>3d</fix>
</trkpt>
<trkpt lat="-27.2742239" lon="151.2830082">
  <ele>373.01</ele>
  <time>2026-09-01T19:58:18Z</time>
  <course>265.64</course>
  <speed>25.430353910238843</speed>
  <fix>3d</fix>
</trkpt>
<trkpt lat="-27.2742205" lon="151.2830584">
  <ele>373.09</ele>
  <time>2026-09-01T19:58:18Z</time>
  <course>265.4</course>
  <speed>25.44</speed>
  <fix>3d</fix>
</trkpt>
<trkpt lat="-27.2742258" lon="151.2829825">
  <ele>373.0</ele>
  <time>2026-09-01T19:58:18Z</time>
  <course>265.69</course>
  <speed>25.431150190268628</speed>
  <fix>3d</fix>
</trkpt>
<trkpt lat="-27.2742205" lon="151.2830584">
  <ele>373.09</ele>
  <time>2026-09-01T19:58:18Z</time>
  <course>265.4</course>
  <speed>25.44</speed>
  <fix>3d</fix>
</trkpt>
<trkpt lat="-27.2742276" lon="151.2829569">
  <ele>373.0</ele>
  <time>2026-09-01T19:58:18Z</time>
  <course>265.69</course>
  <speed>25.430353910238843</speed>
  <fix>3d</fix>
</trkpt>
<trkpt lat="-27.2742242" lon="151.2830071">
  <ele>373.08</ele>
  <time>2026-09-01T19:58:18Z</time>
  <course>265.4</course>
  <speed>25.44</speed>
  <fix>3d</fix>
</trkpt>
<trkpt lat="-27.2742294" lon="151.2829313">
  <ele>373.0</ele>
  <time>2026-09-01T19:58:18Z</time>
  <course>265.7</course>
  <speed>25.430353910238843</speed>
  <fix>3d</fix>
</trkpt>
<trkpt lat="-27.2742242" lon="151.2830071">
  <ele>373.08</ele>
  <time>2026-09-01T19:58:18Z</time>
  <course>265.4</course>
  <speed>25.44</speed>
  <fix>3d</fix>
</trkpt>
<trkpt lat="-27.2742313" lon="151.2829056">
  <ele>372.99</ele>
  <time>2026-09-01T19:58:18Z</time>
  <course>265.7</course>
  <speed>25.430353910238843</speed>
  <fix>3d</fix>
</trkpt>
<trkpt lat="-27.2742278" lon="151.2829559">
  <ele>373.08</ele>
  <time>2026-09-01T19:58:18Z</time>
  <course>265.41</course>
  <speed>25.44</speed>
  <fix>3d</fix>
</trkpt>
<trkpt lat="-27.2742331" lon="151.28288">
  <ele>372.99</ele>
  <time>2026-09-01T19:58:18Z</time>
  <course>265.67</course>
  <speed>25.429561537706462</speed>
  <fix>3d</fix>
</trkpt>
<trkpt lat="-27.2742278" lon="151.2829559">
  <ele>373.08</ele>
  <time>2026-09-01T19:58:18Z</time>
  <course>265.41</course>
  <speed>25.44</speed>
  <fix>3d</fix>
</trkpt>
<trkpt lat="-27.2742349" lon="151.2828544">
  <ele>372.99</ele>
  <time>2026-09-01T19:58:18Z</time>
  <course>265.65</course>
  <speed>25.439530262958865</speed>
  <fix>3d</fix>
</trkpt>
<trkpt lat="-27.2742315" lon="151.2829047">
  <ele>373.08</ele>
  <time>2026-09-01T19:58:18Z</time>
  <course>265.42</course>
  <speed>25.44</speed>
  <fix>3d</fix>
</trkpt>
<trkpt lat="-27.2742367" lon="151.2828287">
  <ele>372.99</ele>
  <time>2026-09-01T19:58:18Z</time>
  <course>265.63</course>
  <speed>25.439530262958865</speed>
  <fix>3d</fix>
</trkpt>
<trkpt lat="-27.2742315" lon="151.2829047">
  <ele>373.08</ele>
  <time>2026-09-01T19:58:18Z</time>
  <course>265.42</course>
  <speed>25.44</speed>
  <fix>3d</fix>
</trkpt>
<trkpt lat="-27.2742386" lon="151.2828031">
  <ele>372.99</ele>
  <time>2026-09-01T19:58:18Z</time>
  <course>265.65</course>
  <speed>25.439530262958865</speed>
  <fix>3d</fix>
</trkpt>
<trkpt lat="-27.2742351" lon="151.2828534">
  <ele>373.08</ele>
  <time>2026-09-01T19:58:18Z</time>
  <course>265.43</course>
  <speed>25.44</speed>
  <fix>3d</fix>
</trkpt>
<trkpt lat="-27.2742404" lon="151.2827775">
  <ele>373.0</ele>
  <time>2026-09-01T19:58:18Z</time>
  <course>265.68</course>
  <speed>25.439530262958865</speed>
  <fix>3d</fix>
</trkpt>
<trkpt lat="-27.2742351" lon="151.2828534">
  <ele>373.08</ele>
  <time>2026-09-01T19:58:18Z</time>
  <course>265.43</course>
  <speed>25.44</speed>
  <fix>3d</fix>
</trkpt>
<trkpt lat="-27.2742422" lon="151.2827521">
  <ele>373.0</ele>
  <time>2026-09-01T19:58:18Z</time>
  <course>265.65</course>
  <speed>25.44949901275072</speed>
  <fix>3d</fix>
</trkpt>
<trkpt lat="-27.2742388" lon="151.2828022">
  <ele>373.08</ele>
  <time>2026-09-01T19:58:18Z</time>
  <course>265.43</course>
  <speed>25.44</speed>
  <fix>3d</fix>
</trkpt>
<trkpt lat="-27.274244" lon="151.2827264">
  <ele>373.0</ele>
  <time>2026-09-01T19:58:18Z</time>
  <course>265.63</course>
  <speed>25.439530262958865</speed>
  <fix>3d</fix>
</trkpt>
<trkpt lat="-27.2742388" lon="151.2828022">
  <ele>373.08</ele>
  <time>2026-09-01T19:58:18Z</time>
  <course>265.43</course>
  <speed>25.44</speed>
  <fix>3d</fix>
</trkpt>
<trkpt lat="-27.2742458" lon="151.2827008">
  <ele>373.01</ele>
  <time>2026-09-01T19:58:18Z</time>
  <course>265.68</course>
  <speed>25.439530262958865</speed>
  <fix>3d</fix>
</trkpt>
<trkpt lat="-27.2742424" lon="151.2827509">
  <ele>373.08</ele>
  <time>2026-09-01T19:58:18Z</time>
  <course>265.43</course>
  <speed>25.45</speed>
  <fix>3d</fix>
</trkpt>
<trkpt lat="-27.2742476" lon="151.2826752">
  <ele>373.01</ele>
  <time>2026-09-01T19:58:18Z</time>
  <course>265.71</course>
  <speed>25.439530262958865</speed>
  <fix>3d</fix>
</trkpt>
<trkpt lat="-27.2742424" lon="151.2827509">
  <ele>373.08</ele>
  <time>2026-09-01T19:58:18Z</time>
  <course>265.43</course>
  <speed>25.45</speed>
  <fix>3d</fix>
</trkpt>
<trkpt lat="-27.2742495" lon="151.2826493">
  <ele>373.01</ele>
  <time>2026-09-01T19:58:18Z</time>
  <course>265.7</course>
  <speed>25.439530262958865</speed>
  <fix>3d</fix>
</trkpt>
<trkpt lat="-27.274246" lon="151.2826995">
  <ele>373.08</ele>
  <time>2026-09-01T19:58:18Z</time>
  <course>265.43</course>
  <speed>25.45</speed>
  <fix>3d</fix>
</trkpt>
<trkpt lat="-27.2742513" lon="151.2826237">
  <ele>373.02</ele>
  <time>2026-09-01T19:58:18Z</time>
  <course>265.74</course>
  <speed>25.43874210726623</speed>
  <fix>3d</fix>
</trkpt>
<trkpt lat="-27.274246" lon="151.2826995">
  <ele>373.08</ele>
  <time>2026-09-01T19:58:18Z</time>
  <course>265.43</course>
  <speed>25.45</speed>
  <fix>3d</fix>
</trkpt>
<trkpt lat="-27.2742531" lon="151.282598">
  <ele>373.02</ele>
  <time>2026-09-01T19:58:18Z</time>
  <course>265.7</course>
  <speed>25.43874210726623</speed>
  <fix>3d</fix>
</trkpt>
<trkpt lat="-27.2742497" lon="151.2826481">
  <ele>373.09</ele>
  <time>2026-09-01T19:58:18Z</time>
  <course>265.44</course>
  <speed>25.44</speed>
  <fix>3d</fix>
</trkpt>
<trkpt lat="-27.274255" lon="151.2825715">
  <ele>373.02</ele>
  <time>2026-09-01T19:58:18Z</time>
  <course>265.68</course>
  <speed>25.43874210726623</speed>
  <fix>3d</fix>
</trkpt>
<trkpt lat="-27.2742533" lon="151.2825969">
  <ele>373.09</ele>
  <time>2026-09-01T19:58:18Z</time>
  <course>265.44</course>
  <speed>25.44</speed>
  <fix>3d</fix>
</trkpt>
<trkpt lat="-27.2742568" lon="151.2825461">
  <ele>373.02</ele>
  <time>2026-09-01T19:58:18Z</time>
  <course>265.77</course>
  <speed>25.428773073036773</speed>
  <fix>3d</fix>
</trkpt>
<trkpt lat="-27.2742533" lon="151.2825969">
  <ele>373.09</ele>
  <time>2026-09-01T19:58:18Z</time>
  <course>265.44</course>
  <speed>25.44</speed>
  <fix>3d</fix>
</trkpt>
<trkpt lat="-27.2742586" lon="151.2825205">
  <ele>373.02</ele>
  <time>2026-09-01T19:58:18Z</time>
  <course>265.71</course>
  <speed>25.428773073036773</speed>
  <fix>3d</fix>
</trkpt>
<trkpt lat="-27.2742569" lon="151.2825457">
  <ele>373.09</ele>
  <time>2026-09-01T19:58:18Z</time>
  <course>265.44</course>
  <speed>25.44</speed>
  <fix>3d</fix>
</trkpt>
<trkpt lat="-27.2742604" lon="151.2824948">
  <ele>373.02</ele>
  <time>2026-09-01T19:58:18Z</time>
  <course>265.67</course>
  <speed>25.428773073036773</speed>
  <fix>3d</fix>
</trkpt>
<trkpt lat="-27.2742569" lon="151.2825457">
  <ele>373.09</ele>
  <time>2026-09-01T19:58:18Z</time>
  <course>265.44</course>
  <speed>25.44</speed>
  <fix>3d</fix>
</trkpt>
<trkpt lat="-27.2742622" lon="151.2824692">
  <ele>373.02</ele>
  <time>2026-09-01T19:58:18Z</time>
  <course>265.68</course>
  <speed>25.428773073036773</speed>
  <fix>3d</fix>
</trkpt>
<trkpt lat="-27.2742606" lon="151.2824944">
  <ele>373.09</ele>
  <time>2026-09-01T19:58:18Z</time>
  <course>265.44</course>
  <speed>25.44</speed>
  <fix>3d</fix>
</trkpt>
<trkpt lat="-27.274264" lon="151.2824433">
  <ele>373.02</ele>
  <time>2026-09-01T19:58:18Z</time>
  <course>265.68</course>
  <speed>25.428773073036773</speed>
  <fix>3d</fix>
</trkpt>
<trkpt lat="-27.2742606" lon="151.2824944">
  <ele>373.09</ele>
  <time>2026-09-01T19:58:18Z</time>
  <course>265.44</course>
  <speed>25.44</speed>
  <fix>3d</fix>
</trkpt>
<trkpt lat="-27.2742658" lon="151.2824183">
  <ele>373.02</ele>
  <time>2026-09-01T19:58:18Z</time>
  <course>265.73</course>
  <speed>25.428773073036773</speed>
  <fix>3d</fix>
</trkpt>
<trkpt lat="-27.2742606" lon="151.2824944">
  <ele>373.09</ele>
  <time>2026-09-01T19:58:18Z</time>
  <course>265.44</course>
  <speed>25.44</speed>
  <fix>3d</fix>
</trkpt>
<trkpt lat="-27.2742676" lon="151.2823927">
  <ele>373.02</ele>
  <time>2026-09-01T19:58:18Z</time>
  <course>265.76</course>
  <speed>25.428773073036773</speed>
  <fix>3d</fix>
</trkpt>
<trkpt lat="-27.2742642" lon="151.2824432">
  <ele>373.09</ele>
  <time>2026-09-01T19:58:18Z</time>
  <course>265.43</course>
  <speed>25.43</speed>
  <fix>3d</fix>
</trkpt>
<trkpt lat="-27.2742694" lon="151.2823671">
  <ele>373.03</ele>
  <time>2026-09-01T19:58:18Z</time>
  <course>265.73</course>
  <speed>25.427988516593288</speed>
  <fix>3d</fix>
</trkpt>
<trkpt lat="-27.2742642" lon="151.2824432">
  <ele>373.09</ele>
  <time>2026-09-01T19:58:18Z</time>
  <course>265.43</course>
  <speed>25.43</speed>
  <fix>3d</fix>
</trkpt>
<trkpt lat="-27.2742712" lon="151.2823415">
  <ele>373.03</ele>
  <time>2026-09-01T19:58:18Z</time>
  <course>265.71</course>
  <speed>25.41801919898559</speed>
  <fix>3d</fix>
</trkpt>
<trkpt lat="-27.2742678" lon="151.282392">
  <ele>373.09</ele>
  <time>2026-09-01T19:58:18Z</time>
  <course>265.44</course>
  <speed>25.43</speed>
  <fix>3d</fix>
</trkpt>
<trkpt lat="-27.274273" lon="151.2823159">
  <ele>373.04</ele>
  <time>2026-09-01T19:58:18Z</time>
  <course>265.67</course>
  <speed>25.418804063134047</speed>
  <fix>3d</fix>
</trkpt>
<trkpt lat="-27.2742678" lon="151.282392">
  <ele>373.09</ele>
  <time>2026-09-01T19:58:18Z</time>
  <course>265.44</course>
  <speed>25.43</speed>
  <fix>3d</fix>
</trkpt>
<trkpt lat="-27.2742749" lon="151.2822902">
  <ele>373.04</ele>
  <time>2026-09-01T19:58:18Z</time>
  <course>265.67</course>
  <speed>25.418804063134047</speed>
  <fix>3d</fix>
</trkpt>
<trkpt lat="-27.2742715" lon="151.2823407">
  <ele>373.1</ele>
  <time>2026-09-01T19:58:18Z</time>
  <course>265.44</course>
  <speed>25.42</speed>
  <fix>3d</fix>
</trkpt>
<trkpt lat="-27.2742767" lon="151.2822646">
  <ele>373.04</ele>
  <time>2026-09-01T19:58:18Z</time>
  <course>265.68</course>
  <speed>25.419592837022392</speed>
  <fix>3d</fix>
</trkpt>
<trkpt lat="-27.2742715" lon="151.2823407">
  <ele>373.1</ele>
  <time>2026-09-01T19:58:18Z</time>
  <course>265.44</course>
  <speed>25.42</speed>
  <fix>3d</fix>
</trkpt>
<trkpt lat="-27.2742785" lon="151.2822392">
  <ele>373.04</ele>
  <time>2026-09-01T19:58:18Z</time>
  <course>265.68</course>
  <speed>25.409624160935554</speed>
  <fix>3d</fix>
</trkpt>
<trkpt lat="-27.274275" lon="151.2822896">
  <ele>373.1</ele>
  <time>2026-09-01T19:58:18Z</time>
  <course>265.42</course>
  <speed>25.42</speed>
  <fix>3d</fix>
</trkpt>
<trkpt lat="-27.2742803" lon="151.2822135">
  <ele>373.04</ele>
  <time>2026-09-01T19:58:18Z</time>
  <course>265.67</course>
  <speed>25.410417155174763</speed>
  <fix>3d</fix>
</trkpt>
<trkpt lat="-27.274275" lon="151.2822896">
  <ele>373.1</ele>
  <time>2026-09-01T19:58:18Z</time>
  <course>265.42</course>
  <speed>25.42</speed>
  <fix>3d</fix>
</trkpt>
<trkpt lat="-27.2742822" lon="151.2821879">
  <ele>373.04</ele>
  <time>2026-09-01T19:58:18Z</time>
  <course>265.69</course>
  <speed>25.410417155174763</speed>
  <fix>3d</fix>
</trkpt>
<trkpt lat="-27.2742787" lon="151.2822383">
  <ele>373.1</ele>
  <time>2026-09-01T19:58:18Z</time>
  <course>265.4</course>
  <speed>25.41</speed>
  <fix>3d</fix>
</trkpt>
<trkpt lat="-27.274284" lon="151.2821622">
  <ele>373.04</ele>
  <time>2026-09-01T19:58:18Z</time>
  <course>265.66</course>
  <speed>25.410417155174763</speed>
  <fix>3d</fix>
</trkpt>
<trkpt lat="-27.2742787" lon="151.2822383">
  <ele>373.1</ele>
  <time>2026-09-01T19:58:18Z</time>
  <course>265.4</course>
  <speed>25.41</speed>
  <fix>3d</fix>
</trkpt>
<trkpt lat="-27.2742858" lon="151.2821366">
  <ele>373.03</ele>
  <time>2026-09-01T19:58:18Z</time>
  <course>265.69</course>
  <speed>25.42118211256117</speed>
  <fix>3d</fix>
</trkpt>
<trkpt lat="-27.2742824" lon="151.282187">
  <ele>373.1</ele>
  <time>2026-09-01T19:58:18Z</time>
  <course>265.39</course>
  <speed>25.41</speed>
  <fix>3d</fix>
</trkpt>
<trkpt lat="-27.2742877" lon="151.2821107">
  <ele>373.03</ele>
  <time>2026-09-01T19:58:18Z</time>
  <course>265.73</course>
  <speed>25.42118211256117</speed>
  <fix>3d</fix>
</trkpt>
<trkpt lat="-27.2742824" lon="151.282187">
  <ele>373.1</ele>
  <time>2026-09-01T19:58:18Z</time>
  <course>265.39</course>
  <speed>25.41</speed>
  <fix>3d</fix>
</trkpt>
<trkpt lat="-27.2742895" lon="151.282085">
  <ele>373.02</ele>
  <time>2026-09-01T19:58:18Z</time>
  <course>265.69</course>
  <speed>25.431150190268628</speed>
  <fix>3d</fix>
</trkpt>
<trkpt lat="-27.2742861" lon="151.2821358">
  <ele>373.1</ele>
  <time>2026-09-01T19:58:18Z</time>
  <course>265.38</course>
  <speed>25.41</speed>
  <fix>3d</fix>
</trkpt>
<trkpt lat="-27.2742914" lon="151.2820594">
  <ele>373.02</ele>
  <time>2026-09-01T19:58:18Z</time>
  <course>265.63</course>
  <speed>25.431150190268628</speed>
  <fix>3d</fix>
</trkpt>
<trkpt lat="-27.2742861" lon="151.2821358">
  <ele>373.1</ele>
  <time>2026-09-01T19:58:18Z</time>
  <course>265.38</course>
  <speed>25.41</speed>
  <fix>3d</fix>
</trkpt>
<trkpt lat="-27.2742933" lon="151.2820329">
  <ele>373.02</ele>
  <time>2026-09-01T19:58:18Z</time>
  <course>265.57</course>
  <speed>25.42198261347844</speed>
  <fix>3d</fix>
</trkpt>
<trkpt lat="-27.2742897" lon="151.2820846">
  <ele>373.09</ele>
  <time>2026-09-01T19:58:18Z</time>
  <course>265.38</course>
  <speed>25.41</speed>
  <fix>3d</fix>
</trkpt>
<trkpt lat="-27.2742951" lon="151.2820075">
  <ele>373.01</ele>
  <time>2026-09-01T19:58:18Z</time>
  <course>265.59</course>
  <speed>25.42198261347844</speed>
  <fix>3d</fix>
</trkpt>
<trkpt lat="-27.2742934" lon="151.2820334">
  <ele>373.08</ele>
  <time>2026-09-01T19:58:18Z</time>
  <course>265.35</course>
  <speed>25.42</speed>
  <fix>3d</fix>
</trkpt>
<trkpt lat="-27.274297" lon="151.2819818">
  <ele>373.02</ele>
  <time>2026-09-01T19:58:18Z</time>
  <course>265.58</course>
  <speed>25.42278702266925</speed>
  <fix>3d</fix>
</trkpt>
<trkpt lat="-27.2742934" lon="151.2820334">
  <ele>373.08</ele>
  <time>2026-09-01T19:58:18Z</time>
  <course>265.35</course>
  <speed>25.42</speed>
  <fix>3d</fix>
</trkpt>
<trkpt lat="-27.2742988" lon="151.2819562">
  <ele>373.01</ele>
  <time>2026-09-01T19:58:18Z</time>
  <course>265.53</course>
  <speed>25.423595339762628</speed>
  <fix>3d</fix>
</trkpt>
<trkpt lat="-27.2742971" lon="151.2819822">
  <ele>373.08</ele>
  <time>2026-09-01T19:58:18Z</time>
  <course>265.32</course>
  <speed>25.42</speed>
  <fix>3d</fix>
</trkpt>
<trkpt lat="-27.2743007" lon="151.2819306">
  <ele>373.01</ele>
  <time>2026-09-01T19:58:18Z</time>
  <course>265.52</course>
  <speed>25.423595339762628</speed>
  <fix>3d</fix>
</trkpt>
<trkpt lat="-27.2742971" lon="151.2819822">
  <ele>373.08</ele>
  <time>2026-09-01T19:58:18Z</time>
  <course>265.32</course>
  <speed>25.42</speed>
  <fix>3d</fix>
</trkpt>
<trkpt lat="-27.2743026" lon="151.2819047">
  <ele>373.01</ele>
  <time>2026-09-01T19:58:18Z</time>
  <course>265.56</course>
  <speed>25.42440756438584</speed>
  <fix>3d</fix>
</trkpt>
<trkpt lat="-27.2743009" lon="151.2819309">
  <ele>373.08</ele>
  <time>2026-09-01T19:58:18Z</time>
  <course>265.3</course>
  <speed>25.42</speed>
  <fix>3d</fix>
</trkpt>
<trkpt lat="-27.2743045" lon="151.2818791">
  <ele>373.01</ele>
  <time>2026-09-01T19:58:18Z</time>
  <course>265.63</course>
  <speed>25.42440756438584</speed>
  <fix>3d</fix>
</trkpt>
<trkpt lat="-27.2743009" lon="151.2819309">
  <ele>373.08</ele>
  <time>2026-09-01T19:58:18Z</time>
  <course>265.3</course>
  <speed>25.42</speed>
  <fix>3d</fix>
</trkpt>
<trkpt lat="-27.2743063" lon="151.2818535">
  <ele>373.01</ele>
  <time>2026-09-01T19:58:18Z</time>
  <course>265.69</course>
  <speed>25.423595339762628</speed>
  <fix>3d</fix>
</trkpt>
<trkpt lat="-27.2743046" lon="151.2818798">
  <ele>373.07</ele>
  <time>2026-09-01T19:58:18Z</time>
  <course>265.29</course>
  <speed>25.42</speed>
  <fix>3d</fix>
</trkpt>
<trkpt lat="-27.2743082" lon="151.2818279">
  <ele>373.01</ele>
  <time>2026-09-01T19:58:18Z</time>
  <course>265.6</course>
  <speed>25.423595339762628</speed>
  <fix>3d</fix>
</trkpt>
<trkpt lat="-27.2743046" lon="151.2818798">
  <ele>373.07</ele>
  <time>2026-09-01T19:58:18Z</time>
  <course>265.29</course>
  <speed>25.42</speed>
  <fix>3d</fix>
</trkpt>
<trkpt lat="-27.2743101" lon="151.2818022">
  <ele>373.01</ele>
  <time>2026-09-01T19:58:18Z</time>
  <course>265.56</course>
  <speed>25.423595339762628</speed>
  <fix>3d</fix>
</trkpt>
<trkpt lat="-27.2743083" lon="151.2818285">
  <ele>373.07</ele>
  <time>2026-09-01T19:58:18Z</time>
  <course>265.3</course>
  <speed>25.42</speed>
  <fix>3d</fix>
</trkpt>
<trkpt lat="-27.2743119" lon="151.2817766">
  <ele>373.01</ele>
  <time>2026-09-01T19:58:18Z</time>
  <course>265.53</course>
  <speed>25.42278702266925</speed>
  <fix>3d</fix>
</trkpt>
<trkpt lat="-27.2743083" lon="151.2818285">
  <ele>373.07</ele>
  <time>2026-09-01T19:58:18Z</time>
  <course>265.3</course>
  <speed>25.42</speed>
  <fix>3d</fix>
</trkpt>
<trkpt lat="-27.2743138" lon="151.281751">
  <ele>373.02</ele>
  <time>2026-09-01T19:58:18Z</time>
  <course>265.5</course>
  <speed>25.423595339762628</speed>
  <fix>3d</fix>
</trkpt>
<trkpt lat="-27.2743121" lon="151.2817774">
  <ele>373.07</ele>
  <time>2026-09-01T19:58:18Z</time>
  <course>265.3</course>
  <speed>25.42</speed>
  <fix>3d</fix>
</trkpt>
<trkpt lat="-27.2743156" lon="151.281726">
  <ele>373.02</ele>
  <time>2026-09-01T19:58:18Z</time>
  <course>265.56</course>
  <speed>25.423595339762628</speed>
  <fix>3d</fix>
</trkpt>
<trkpt lat="-27.2743121" lon="151.2817774">
  <ele>373.07</ele>
  <time>2026-09-01T19:58:18Z</time>
  <course>265.3</course>
  <speed>25.42</speed>
  <fix>3d</fix>
</trkpt>
<trkpt lat="-27.2743175" lon="151.2817006">
  <ele>373.02</ele>
  <time>2026-09-01T19:58:18Z</time>
  <course>265.58</course>
  <speed>25.423595339762628</speed>
  <fix>3d</fix>
</trkpt>
<trkpt lat="-27.2743121" lon="151.2817774">
  <ele>373.07</ele>
  <time>2026-09-01T19:58:18Z</time>
  <course>265.3</course>
  <speed>25.42</speed>
  <fix>3d</fix>
</trkpt>
<trkpt lat="-27.2743193" lon="151.281675">
  <ele>373.02</ele>
  <time>2026-09-01T19:58:18Z</time>
  <course>265.56</course>
  <speed>25.433562471663304</speed>
  <fix>3d</fix>
</trkpt>
<trkpt lat="-27.2743158" lon="151.2817261">
  <ele>373.07</ele>
  <time>2026-09-01T19:58:18Z</time>
  <course>265.3</course>
  <speed>25.42</speed>
  <fix>3d</fix>
</trkpt>
<trkpt lat="-27.2743212" lon="151.2816494">
  <ele>373.02</ele>
  <time>2026-09-01T19:58:18Z</time>
  <course>265.55</course>
  <speed>25.423595339762628</speed>
  <fix>3d</fix>
</trkpt>
<trkpt lat="-27.2743158" lon="151.2817261">
  <ele>373.07</ele>
  <time>2026-09-01T19:58:18Z</time>
  <course>265.3</course>
  <speed>25.42</speed>
  <fix>3d</fix>
</trkpt>
<trkpt lat="-27.2743231" lon="151.2816238">
  <ele>373.02</ele>
  <time>2026-09-01T19:58:18Z</time>
  <course>265.51</course>
  <speed>25.433562471663304</speed>
  <fix>3d</fix>
</trkpt>
<trkpt lat="-27.2743196" lon="151.281675">
  <ele>373.07</ele>
  <time>2026-09-01T19:58:18Z</time>
  <course>265.3</course>
  <speed>25.42</speed>
  <fix>3d</fix>
</trkpt>
<trkpt lat="-27.274325" lon="151.281598">
  <ele>373.02</ele>
  <time>2026-09-01T19:58:18Z</time>
  <course>265.54</course>
  <speed>25.434374377994832</speed>
  <fix>3d</fix>
</trkpt>
<trkpt lat="-27.2743196" lon="151.281675">
  <ele>373.07</ele>
  <time>2026-09-01T19:58:18Z</time>
  <course>265.3</course>
  <speed>25.42</speed>
  <fix>3d</fix>
</trkpt>
<trkpt lat="-27.2743269" lon="151.2815724">
  <ele>373.02</ele>
  <time>2026-09-01T19:58:18Z</time>
  <course>265.6</course>
  <speed>25.423595339762628</speed>
  <fix>3d</fix>
</trkpt>
<trkpt lat="-27.2743233" lon="151.2816237">
  <ele>373.06</ele>
  <time>2026-09-01T19:58:18Z</time>
  <course>265.29</course>
  <speed>25.42</speed>
  <fix>3d</fix>
</trkpt>
<trkpt lat="-27.2743287" lon="151.2815468">
  <ele>373.02</ele>
  <time>2026-09-01T19:58:18Z</time>
  <course>265.61</course>
  <speed>25.423595339762628</speed>
  <fix>3d</fix>
</trkpt>
<trkpt lat="-27.2743233" lon="151.2816237">
  <ele>373.06</ele>
  <time>2026-09-01T19:58:18Z</time>
  <course>265.29</course>
  <speed>25.42</speed>
  <fix>3d</fix>
</trkpt>
<trkpt lat="-27.2743307" lon="151.2815203">
  <ele>373.02</ele>
  <time>2026-09-01T19:58:18Z</time>
  <course>265.58</course>
  <speed>25.423595339762628</speed>
  <fix>3d</fix>
</trkpt>
<trkpt lat="-27.2743271" lon="151.2815724">
  <ele>373.06</ele>
  <time>2026-09-01T19:58:18Z</time>
  <course>265.29</course>
  <speed>25.42</speed>
  <fix>3d</fix>
</trkpt>
<trkpt lat="-27.2743325" lon="151.2814947">
  <ele>373.02</ele>
  <time>2026-09-01T19:58:18Z</time>
  <course>265.58</course>
  <speed>25.42278702266925</speed>
  <fix>3d</fix>
</trkpt>
<trkpt lat="-27.2743308" lon="151.2815211">
  <ele>373.06</ele>
  <time>2026-09-01T19:58:18Z</time>
  <course>265.3</course>
  <speed>25.42</speed>
  <fix>3d</fix>
</trkpt>
<trkpt lat="-27.2743344" lon="151.2814693">
  <ele>373.02</ele>
  <time>2026-09-01T19:58:18Z</time>
  <course>265.56</course>
  <speed>25.42278702266925</speed>
  <fix>3d</fix>
</trkpt>
<trkpt lat="-27.2743308" lon="151.2815211">
  <ele>373.06</ele>
  <time>2026-09-01T19:58:18Z</time>
  <course>265.3</course>
  <speed>25.42</speed>
  <fix>3d</fix>
</trkpt>
<trkpt lat="-27.2743362" lon="151.2814437">
  <ele>373.02</ele>
  <time>2026-09-01T19:58:18Z</time>
  <course>265.55</course>
  <speed>25.42278702266925</speed>
  <fix>3d</fix>
</trkpt>
<trkpt lat="-27.2743345" lon="151.28147">
  <ele>373.05</ele>
  <time>2026-09-01T19:58:18Z</time>
  <course>265.31</course>
  <speed>25.42</speed>
  <fix>3d</fix>
</trkpt>
<trkpt lat="-27.2743381" lon="151.2814181">
  <ele>373.01</ele>
  <time>2026-09-01T19:58:18Z</time>
  <course>265.6</course>
  <speed>25.42198261347844</speed>
  <fix>3d</fix>
</trkpt>
<trkpt lat="-27.2743345" lon="151.28147">
  <ele>373.05</ele>
  <time>2026-09-01T19:58:18Z</time>
  <course>265.31</course>
  <speed>25.42</speed>
  <fix>3d</fix>
</trkpt>
<trkpt lat="-27.2743399" lon="151.2813925">
  <ele>373.01</ele>
  <time>2026-09-01T19:58:18Z</time>
  <course>265.64</course>
  <speed>25.42198261347844</speed>
  <fix>3d</fix>
</trkpt>
<trkpt lat="-27.2743382" lon="151.2814187">
  <ele>373.04</ele>
  <time>2026-09-01T19:58:18Z</time>
  <course>265.33</course>
  <speed>25.42</speed>
  <fix>3d</fix>
</trkpt>
<trkpt lat="-27.2743418" lon="151.2813667">
  <ele>373.01</ele>
  <time>2026-09-01T19:58:18Z</time>
  <course>265.65</course>
  <speed>25.42118211256117</speed>
  <fix>3d</fix>
</trkpt>
<trkpt lat="-27.2743382" lon="151.2814187">
  <ele>373.04</ele>
  <time>2026-09-01T19:58:18Z</time>
  <course>265.33</course>
  <speed>25.42</speed>
  <fix>3d</fix>
</trkpt>
<trkpt lat="-27.2743437" lon="151.2813411">
  <ele>373.0</ele>
  <time>2026-09-01T19:58:18Z</time>
  <course>265.66</course>
  <speed>25.42118211256117</speed>
  <fix>3d</fix>
</trkpt>
<trkpt lat="-27.274342" lon="151.2813676">
  <ele>373.04</ele>
  <time>2026-09-01T19:58:18Z</time>
  <course>265.34</course>
  <speed>25.42</speed>
  <fix>3d</fix>
</trkpt>
<trkpt lat="-27.2743455" lon="151.2813155">
  <ele>373.0</ele>
  <time>2026-09-01T19:58:18Z</time>
  <course>265.64</course>
  <speed>25.410417155174763</speed>
  <fix>3d</fix>
</trkpt>
<trkpt lat="-27.274342" lon="151.2813676">
  <ele>373.04</ele>
  <time>2026-09-01T19:58:18Z</time>
  <course>265.34</course>
  <speed>25.42</speed>
  <fix>3d</fix>
</trkpt>
<trkpt lat="-27.2743473" lon="151.2812899">
  <ele>373.0</ele>
  <time>2026-09-01T19:58:18Z</time>
  <course>265.62</course>
  <speed>25.42038552028667</speed>
  <fix>3d</fix>
</trkpt>
<trkpt lat="-27.2743457" lon="151.2813163">
  <ele>373.03</ele>
  <time>2026-09-01T19:58:18Z</time>
  <course>265.36</course>
  <speed>25.42</speed>
  <fix>3d</fix>
</trkpt>
<trkpt lat="-27.2743492" lon="151.2812643">
  <ele>372.99</ele>
  <time>2026-09-01T19:58:18Z</time>
  <course>265.66</course>
  <speed>25.42038552028667</speed>
  <fix>3d</fix>
</trkpt>
<trkpt lat="-27.2743457" lon="151.2813163">
  <ele>373.03</ele>
  <time>2026-09-01T19:58:18Z</time>
  <course>265.36</course>
  <speed>25.42</speed>
  <fix>3d</fix>
</trkpt>
<trkpt lat="-27.274351" lon="151.2812387">
  <ele>372.98</ele>
  <time>2026-09-01T19:58:18Z</time>
  <course>265.67</course>
  <speed>25.42038552028667</speed>
  <fix>3d</fix>
</trkpt>
<trkpt lat="-27.2743493" lon="151.2812652">
  <ele>373.02</ele>
  <time>2026-09-01T19:58:18Z</time>
  <course>265.37</course>
  <speed>25.43</speed>
  <fix>3d</fix>
</trkpt>
<trkpt lat="-27.2743529" lon="151.2812131">
  <ele>372.98</ele>
  <time>2026-09-01T19:58:18Z</time>
  <course>265.68</course>
  <speed>25.42038552028667</speed>
  <fix>3d</fix>
</trkpt>
<trkpt lat="-27.2743493" lon="151.2812652">
  <ele>373.02</ele>
  <time>2026-09-01T19:58:18Z</time>
  <course>265.37</course>
  <speed>25.43</speed>
  <fix>3d</fix>
</trkpt>
<trkpt lat="-27.2743547" lon="151.2811875">
  <ele>372.97</ele>
  <time>2026-09-01T19:58:18Z</time>
  <course>265.7</course>
  <speed>25.419592837022392</speed>
  <fix>3d</fix>
</trkpt>
<trkpt lat="-27.274353" lon="151.2812139">
  <ele>373.01</ele>
  <time>2026-09-01T19:58:18Z</time>
  <course>265.38</course>
  <speed>25.43</speed>
  <fix>3d</fix>
</trkpt>
<trkpt lat="-27.2743565" lon="151.2811619">
  <ele>372.96</ele>
  <time>2026-09-01T19:58:18Z</time>
  <course>265.69</course>
  <speed>25.429561537706462</speed>
  <fix>3d</fix>
</trkpt>
<trkpt lat="-27.274353" lon="151.2812139">
  <ele>373.01</ele>
  <time>2026-09-01T19:58:18Z</time>
  <course>265.38</course>
  <speed>25.43</speed>
  <fix>3d</fix>
</trkpt>
<trkpt lat="-27.2743583" lon="151.2811363">
  <ele>372.95</ele>
  <time>2026-09-01T19:58:18Z</time>
  <course>265.68</course>
  <speed>25.428773073036773</speed>
  <fix>3d</fix>
</trkpt>
<trkpt lat="-27.2743567" lon="151.2811626">
  <ele>373.0</ele>
  <time>2026-09-01T19:58:18Z</time>
  <course>265.4</course>
  <speed>25.44</speed>
  <fix>3d</fix>
</trkpt>
<trkpt lat="-27.2743602" lon="151.2811106">
  <ele>372.95</ele>
  <time>2026-09-01T19:58:18Z</time>
  <course>265.67</course>
  <speed>25.428773073036773</speed>
  <fix>3d</fix>
</trkpt>
<trkpt lat="-27.2743567" lon="151.2811626">
  <ele>373.0</ele>
  <time>2026-09-01T19:58:18Z</time>
  <course>265.4</course>
  <speed>25.44</speed>
  <fix>3d</fix>
</trkpt>
<trkpt lat="-27.274362" lon="151.281085">
  <ele>372.95</ele>
  <time>2026-09-01T19:58:18Z</time>
  <course>265.73</course>
  <speed>25.427988516593288</speed>
  <fix>3d</fix>
</trkpt>
<trkpt lat="-27.2743604" lon="151.2811113">
  <ele>372.99</ele>
  <time>2026-09-01T19:58:18Z</time>
  <course>265.42</course>
  <speed>25.44</speed>
  <fix>3d</fix>
</trkpt>
<trkpt lat="-27.2743638" lon="151.2810594">
  <ele>372.94</ele>
  <time>2026-09-01T19:58:18Z</time>
  <course>265.74</course>
  <speed>25.427988516593288</speed>
  <fix>3d</fix>
</trkpt>
<trkpt lat="-27.2743604" lon="151.2811113">
  <ele>372.99</ele>
  <time>2026-09-01T19:58:18Z</time>
  <course>265.42</course>
  <speed>25.44</speed>
  <fix>3d</fix>
</trkpt>
<trkpt lat="-27.2743656" lon="151.2810338">
  <ele>372.95</ele>
  <time>2026-09-01T19:58:18Z</time>
  <course>265.78</course>
  <speed>25.427207868737767</speed>
  <fix>3d</fix>
</trkpt>
<trkpt lat="-27.274364" lon="151.2810599">
  <ele>372.99</ele>
  <time>2026-09-01T19:58:18Z</time>
  <course>265.45</course>
  <speed>25.44</speed>
  <fix>3d</fix>
</trkpt>
<trkpt lat="-27.2743674" lon="151.2810088">
  <ele>372.95</ele>
  <time>2026-09-01T19:58:18Z</time>
  <course>265.84</course>
  <speed>25.426431129830235</speed>
  <fix>3d</fix>
</trkpt>
<trkpt lat="-27.274364" lon="151.2810599">
  <ele>372.99</ele>
  <time>2026-09-01T19:58:18Z</time>
  <course>265.45</course>
  <speed>25.44</speed>
  <fix>3d</fix>
</trkpt>
<trkpt lat="-27.2743692" lon="151.2809823">
  <ele>372.95</ele>
  <time>2026-09-01T19:58:18Z</time>
  <course>265.82</course>
  <speed>25.425658300228925</speed>
  <fix>3d</fix>
</trkpt>
<trkpt lat="-27.2743676" lon="151.2810087">
  <ele>372.99</ele>
  <time>2026-09-01T19:58:18Z</time>
  <course>265.48</course>
  <speed>25.44</speed>
  <fix>3d</fix>
</trkpt>
<trkpt lat="-27.274371" lon="151.280957">
  <ele>372.96</ele>
  <time>2026-09-01T19:58:18Z</time>
  <course>265.82</course>
  <speed>25.414918847007954</speed>
  <fix>3d</fix>
</trkpt>
<trkpt lat="-27.2743676" lon="151.2810087">
  <ele>372.99</ele>
  <time>2026-09-01T19:58:18Z</time>
  <course>265.48</course>
  <speed>25.44</speed>
  <fix>3d</fix>
</trkpt>
<trkpt lat="-27.2743727" lon="151.2809314">
  <ele>372.97</ele>
  <time>2026-09-01T19:58:18Z</time>
  <course>265.83</course>
  <speed>25.414918847007954</speed>
  <fix>3d</fix>
</trkpt>
<trkpt lat="-27.2743712" lon="151.2809575">
  <ele>373.0</ele>
  <time>2026-09-01T19:58:18Z</time>
  <course>265.52</course>
  <speed>25.44</speed>
  <fix>3d</fix>
</trkpt>
<trkpt lat="-27.2743745" lon="151.280906">
  <ele>372.97</ele>
  <time>2026-09-01T19:58:18Z</time>
  <course>265.84</course>
  <speed>25.404182726472428</speed>
  <fix>3d</fix>
</trkpt>
<trkpt lat="-27.2743712" lon="151.2809575">
  <ele>373.0</ele>
  <time>2026-09-01T19:58:18Z</time>
  <course>265.52</course>
  <speed>25.44</speed>
  <fix>3d</fix>
</trkpt>
<trkpt lat="-27.2743763" lon="151.2808805">
  <ele>372.98</ele>
  <time>2026-09-01T19:58:18Z</time>
  <course>265.82</course>
  <speed>25.394211938943883</speed>
  <fix>3d</fix>
</trkpt>
<trkpt lat="-27.2743747" lon="151.2809062">
  <ele>373.01</ele>
  <time>2026-09-01T19:58:18Z</time>
  <course>265.54</course>
  <speed>25.44</speed>
  <fix>3d</fix>
</trkpt>
<trkpt lat="-27.274378" lon="151.2808551">
  <ele>372.98</ele>
  <time>2026-09-01T19:58:18Z</time>
  <course>265.87</course>
  <speed>25.384241174397943</speed>
  <fix>3d</fix>
</trkpt>
<trkpt lat="-27.2743747" lon="151.2809062">
  <ele>373.01</ele>
  <time>2026-09-01T19:58:18Z</time>
  <course>265.54</course>
  <speed>25.44</speed>
  <fix>3d</fix>
</trkpt>
<trkpt lat="-27.2743798" lon="151.2808294">
  <ele>372.99</ele>
  <time>2026-09-01T19:58:18Z</time>
  <course>265.89</course>
  <speed>25.38347887898741</speed>
  <fix>3d</fix>
</trkpt>
<trkpt lat="-27.2743783" lon="151.2808549">
  <ele>373.01</ele>
  <time>2026-09-01T19:58:18Z</time>
  <course>265.55</course>
  <speed>25.43</speed>
  <fix>3d</fix>
</trkpt>
<trkpt lat="-27.2743815" lon="151.280804">
  <ele>372.99</ele>
  <time>2026-09-01T19:58:18Z</time>
  <course>265.91</course>
  <speed>25.373507837900537</speed>
  <fix>3d</fix>
</trkpt>
<trkpt lat="-27.2743783" lon="151.2808549">
  <ele>373.01</ele>
  <time>2026-09-01T19:58:18Z</time>
  <course>265.55</course>
  <speed>25.43</speed>
  <fix>3d</fix>
</trkpt>
<trkpt lat="-27.2743833" lon="151.2807785">
  <ele>372.99</ele>
  <time>2026-09-01T19:58:18Z</time>
  <course>265.84</course>
  <speed>25.372749161255665</speed>
  <fix>3d</fix>
</trkpt>
<trkpt lat="-27.2743818" lon="151.2808037">
  <ele>373.02</ele>
  <time>2026-09-01T19:58:18Z</time>
  <course>265.57</course>
  <speed>25.43</speed>
  <fix>3d</fix>
</trkpt>
<trkpt lat="-27.274385" lon="151.2807531">
  <ele>372.99</ele>
  <time>2026-09-01T19:58:18Z</time>
  <course>265.81</course>
  <speed>25.362777844707786</speed>
  <fix>3d</fix>
</trkpt>
<trkpt lat="-27.2743818" lon="151.2808037">
  <ele>373.02</ele>
  <time>2026-09-01T19:58:18Z</time>
  <course>265.57</course>
  <speed>25.43</speed>
  <fix>3d</fix>
</trkpt>
<trkpt lat="-27.2743868" lon="151.2807276">
  <ele>372.98</ele>
  <time>2026-09-01T19:58:18Z</time>
  <course>265.82</course>
  <speed>25.363536819615675</speed>
  <fix>3d</fix>
</trkpt>
<trkpt lat="-27.2743853" lon="151.2807525">
  <ele>373.02</ele>
  <time>2026-09-01T19:58:18Z</time>
  <course>265.58</course>
  <speed>25.43</speed>
  <fix>3d</fix>
</trkpt>
<trkpt lat="-27.2743885" lon="151.2807022">
  <ele>372.98</ele>
  <time>2026-09-01T19:58:18Z</time>
  <course>265.86</course>
  <speed>25.35280655075489</speed>
  <fix>3d</fix>
</trkpt>
<trkpt lat="-27.2743853" lon="151.2807525">
  <ele>373.02</ele>
  <time>2026-09-01T19:58:18Z</time>
  <course>265.58</course>
  <speed>25.43</speed>
  <fix>3d</fix>
</trkpt>
<trkpt lat="-27.2743903" lon="151.2806767">
  <ele>372.98</ele>
  <time>2026-09-01T19:58:18Z</time>
  <course>265.84</course>
  <speed>25.35280655075489</speed>
  <fix>3d</fix>
</trkpt>
<trkpt lat="-27.2743889" lon="151.2807012">
  <ele>373.01</ele>
  <time>2026-09-01T19:58:18Z</time>
  <course>265.58</course>
  <speed>25.43</speed>
  <fix>3d</fix>
</trkpt>
<trkpt lat="-27.274392" lon="151.2806512">
  <ele>372.97</ele>
  <time>2026-09-01T19:58:18Z</time>
  <course>265.81</course>
  <speed>25.35280655075489</speed>
  <fix>3d</fix>
</trkpt>
<trkpt lat="-27.2743889" lon="151.2807012">
  <ele>373.01</ele>
  <time>2026-09-01T19:58:18Z</time>
  <course>265.58</course>
  <speed>25.43</speed>
  <fix>3d</fix>
</trkpt>
<trkpt lat="-27.2743938" lon="151.2806257">
  <ele>372.96</ele>
  <time>2026-09-01T19:58:18Z</time>
  <course>265.84</course>
  <speed>25.35280655075489</speed>
  <fix>3d</fix>
</trkpt>
<trkpt lat="-27.2743924" lon="151.28065">
  <ele>373.0</ele>
  <time>2026-09-01T19:58:18Z</time>
  <course>265.59</course>
  <speed>25.44</speed>
  <fix>3d</fix>
</trkpt>
<trkpt lat="-27.2743955" lon="151.2806002">
  <ele>372.96</ele>
  <time>2026-09-01T19:58:18Z</time>
  <course>265.87</course>
  <speed>25.35280655075489</speed>
  <fix>3d</fix>
</trkpt>
<trkpt lat="-27.2743924" lon="151.28065">
  <ele>373.0</ele>
  <time>2026-09-01T19:58:18Z</time>
  <course>265.59</course>
  <speed>25.44</speed>
  <fix>3d</fix>
</trkpt>
<trkpt lat="-27.2743973" lon="151.2805746">
  <ele>372.95</ele>
  <time>2026-09-01T19:58:18Z</time>
  <course>265.87</course>
  <speed>25.35280655075489</speed>
  <fix>3d</fix>
</trkpt>
<trkpt lat="-27.2743959" lon="151.2805987">
  <ele>372.99</ele>
  <time>2026-09-01T19:58:18Z</time>
  <course>265.59</course>
  <speed>25.44</speed>
  <fix>3d</fix>
</trkpt>
<trkpt lat="-27.274399" lon="151.2805491">
  <ele>372.95</ele>
  <time>2026-09-01T19:58:18Z</time>
  <course>265.87</course>
  <speed>25.353565824159723</speed>
  <fix>3d</fix>
</trkpt>
<trkpt lat="-27.2743959" lon="151.2805987">
  <ele>372.99</ele>
  <time>2026-09-01T19:58:18Z</time>
  <course>265.59</course>
  <speed>25.44</speed>
  <fix>3d</fix>
</trkpt>
<trkpt lat="-27.2744008" lon="151.2805235">
  <ele>372.94</ele>
  <time>2026-09-01T19:58:18Z</time>
  <course>265.92</course>
  <speed>25.35280655075489</speed>
  <fix>3d</fix>
</trkpt>
<trkpt lat="-27.2743994" lon="151.2805473">
  <ele>372.99</ele>
  <time>2026-09-01T19:58:18Z</time>
  <course>265.59</course>
  <speed>25.44</speed>
  <fix>3d</fix>
</trkpt>
<trkpt lat="-27.2744025" lon="151.2804979">
  <ele>372.94</ele>
  <time>2026-09-01T19:58:18Z</time>
  <course>265.95</course>
  <speed>25.35205119906474</speed>
  <fix>3d</fix>
</trkpt>
<trkpt lat="-27.2743994" lon="151.2805473">
  <ele>372.99</ele>
  <time>2026-09-01T19:58:18Z</time>
  <course>265.59</course>
  <speed>25.44</speed>
  <fix>3d</fix>
</trkpt>
<trkpt lat="-27.2744043" lon="151.2804723">
  <ele>372.94</ele>
  <time>2026-09-01T19:58:18Z</time>
  <course>265.93</course>
  <speed>25.361271655814107</speed>
  <fix>3d</fix>
</trkpt>
<trkpt lat="-27.2744029" lon="151.2804959">
  <ele>372.99</ele>
  <time>2026-09-01T19:58:18Z</time>
  <course>265.61</course>
  <speed>25.45</speed>
  <fix>3d</fix>
</trkpt>
<trkpt lat="-27.274406" lon="151.2804466">
  <ele>372.94</ele>
  <time>2026-09-01T19:58:18Z</time>
  <course>265.91</course>
  <speed>25.361271655814107</speed>
  <fix>3d</fix>
</trkpt>
<trkpt lat="-27.2744029" lon="151.2804959">
  <ele>372.99</ele>
  <time>2026-09-01T19:58:18Z</time>
  <course>265.61</course>
  <speed>25.45</speed>
  <fix>3d</fix>
</trkpt>
<trkpt lat="-27.2744078" lon="151.280421">
  <ele>372.94</ele>
  <time>2026-09-01T19:58:18Z</time>
  <course>265.96</course>
  <speed>25.37049664472495</speed>
  <fix>3d</fix>
</trkpt>
<trkpt lat="-27.2744064" lon="151.2804447">
  <ele>372.99</ele>
  <time>2026-09-01T19:58:18Z</time>
  <course>265.64</course>
  <speed>25.45</speed>
  <fix>3d</fix>
</trkpt>
<trkpt lat="-27.2744095" lon="151.2803953">
  <ele>372.94</ele>
  <time>2026-09-01T19:58:18Z</time>
  <course>265.95</course>
  <speed>25.37049664472495</speed>
  <fix>3d</fix>
</trkpt>
<trkpt lat="-27.2744064" lon="151.2804447">
  <ele>372.99</ele>
  <time>2026-09-01T19:58:18Z</time>
  <course>265.64</course>
  <speed>25.45</speed>
  <fix>3d</fix>
</trkpt>
<trkpt lat="-27.2744112" lon="151.2803697">
  <ele>372.94</ele>
  <time>2026-09-01T19:58:18Z</time>
  <course>265.92</course>
  <speed>25.38046886879752</speed>
  <fix>3d</fix>
</trkpt>
<trkpt lat="-27.2744099" lon="151.2803934">
  <ele>372.99</ele>
  <time>2026-09-01T19:58:18Z</time>
  <course>265.65</course>
  <speed>25.45</speed>
  <fix>3d</fix>
</trkpt>
<trkpt lat="-27.2744129" lon="151.280344">
  <ele>372.94</ele>
  <time>2026-09-01T19:58:18Z</time>
  <course>265.88</course>
  <speed>25.38046886879752</speed>
  <fix>3d</fix>
</trkpt>
<trkpt lat="-27.2744099" lon="151.2803934">
  <ele>372.99</ele>
  <time>2026-09-01T19:58:18Z</time>
  <course>265.65</course>
  <speed>25.45</speed>
  <fix>3d</fix>
</trkpt>
<trkpt lat="-27.2744147" lon="151.2803185">
  <ele>372.93</ele>
  <time>2026-09-01T19:58:18Z</time>
  <course>265.88</course>
  <speed>25.39044111471874</speed>
  <fix>3d</fix>
</trkpt>
<trkpt lat="-27.2744133" lon="151.2803421">
  <ele>372.99</ele>
  <time>2026-09-01T19:58:18Z</time>
  <course>265.65</course>
  <speed>25.45</speed>
  <fix>3d</fix>
</trkpt>
<trkpt lat="-27.2744164" lon="151.2802924">
  <ele>372.93</ele>
  <time>2026-09-01T19:58:18Z</time>
  <course>265.92</course>
  <speed>25.39044111471874</speed>
  <fix>3d</fix>
</trkpt>
<trkpt lat="-27.2744133" lon="151.2803421">
  <ele>372.99</ele>
  <time>2026-09-01T19:58:18Z</time>
  <course>265.65</course>
  <speed>25.45</speed>
  <fix>3d</fix>
</trkpt>
<trkpt lat="-27.2744181" lon="151.2802667">
  <ele>372.94</ele>
  <time>2026-09-01T19:58:18Z</time>
  <course>265.97</course>
  <speed>25.39044111471874</speed>
  <fix>3d</fix>
</trkpt>
<trkpt lat="-27.2744168" lon="151.2802908">
  <ele>372.99</ele>
  <time>2026-09-01T19:58:18Z</time>
  <course>265.65</course>
  <speed>25.45</speed>
  <fix>3d</fix>
</trkpt>
<trkpt lat="-27.2744199" lon="151.2802411">
  <ele>372.94</ele>
  <time>2026-09-01T19:58:18Z</time>
  <course>265.97</course>
  <speed>25.391187447616545</speed>
  <fix>3d</fix>
</trkpt>
<trkpt lat="-27.2744168" lon="151.2802908">
  <ele>372.99</ele>
  <time>2026-09-01T19:58:18Z</time>
  <course>265.65</course>
  <speed>25.45</speed>
  <fix>3d</fix>
</trkpt>
<trkpt lat="-27.2744216" lon="151.2802154">
  <ele>372.94</ele>
  <time>2026-09-01T19:58:18Z</time>
  <course>265.92</course>
  <speed>25.401159422357082</speed>
  <fix>3d</fix>
</trkpt>
<trkpt lat="-27.2744202" lon="151.2802395">
  <ele>372.99</ele>
  <time>2026-09-01T19:58:18Z</time>
  <course>265.64</course>
  <speed>25.45</speed>
  <fix>3d</fix>
</trkpt>
<trkpt lat="-27.2744234" lon="151.2801897">
  <ele>372.95</ele>
  <time>2026-09-01T19:58:18Z</time>
  <course>265.91</course>
  <speed>25.401909377052743</speed>
  <fix>3d</fix>
</trkpt>
<trkpt lat="-27.2744202" lon="151.2802395">
  <ele>372.99</ele>
  <time>2026-09-01T19:58:18Z</time>
  <course>265.64</course>
  <speed>25.45</speed>
  <fix>3d</fix>
</trkpt>
<trkpt lat="-27.2744251" lon="151.2801641">
  <ele>372.95</ele>
  <time>2026-09-01T19:58:18Z</time>
  <course>265.89</course>
  <speed>25.401909377052743</speed>
  <fix>3d</fix>
</trkpt>
<trkpt lat="-27.2744237" lon="151.2801883">
  <ele>373.01</ele>
  <time>2026-09-01T19:58:18Z</time>
  <course>265.62</course>
  <speed>25.45</speed>
  <fix>3d</fix>
</trkpt>
<trkpt lat="-27.2744269" lon="151.2801384">
  <ele>372.96</ele>
  <time>2026-09-01T19:58:18Z</time>
  <course>265.89</course>
  <speed>25.39269186202991</speed>
  <fix>3d</fix>
</trkpt>
<trkpt lat="-27.2744237" lon="151.2801883">
  <ele>373.01</ele>
  <time>2026-09-01T19:58:18Z</time>
  <course>265.62</course>
  <speed>25.45</speed>
  <fix>3d</fix>
</trkpt>
<trkpt lat="-27.2744286" lon="151.2801128">
  <ele>372.96</ele>
  <time>2026-09-01T19:58:18Z</time>
  <course>265.91</course>
  <speed>25.39269186202991</speed>
  <fix>3d</fix>
</trkpt>
<trkpt lat="-27.2744272" lon="151.280137">
  <ele>373.02</ele>
  <time>2026-09-01T19:58:18Z</time>
  <course>265.61</course>
  <speed>25.44</speed>
  <fix>3d</fix>
</trkpt>
<trkpt lat="-27.2744304" lon="151.2800871">
  <ele>372.96</ele>
  <time>2026-09-01T19:58:18Z</time>
  <course>265.92</course>
  <speed>25.39269186202991</speed>
  <fix>3d</fix>
</trkpt>
<trkpt lat="-27.2744272" lon="151.280137">
  <ele>373.02</ele>
  <time>2026-09-01T19:58:18Z</time>
  <course>265.61</course>
  <speed>25.44</speed>
  <fix>3d</fix>
</trkpt>
<trkpt lat="-27.2744321" lon="151.2800615">
  <ele>372.96</ele>
  <time>2026-09-01T19:58:18Z</time>
  <course>265.9</course>
  <speed>25.402663246203144</speed>
  <fix>3d</fix>
</trkpt>
<trkpt lat="-27.2744307" lon="151.2800857">
  <ele>373.03</ele>
  <time>2026-09-01T19:58:18Z</time>
  <course>265.6</course>
  <speed>25.44</speed>
  <fix>3d</fix>
</trkpt>
<trkpt lat="-27.2744339" lon="151.2800358">
  <ele>372.95</ele>
  <time>2026-09-01T19:58:18Z</time>
  <course>265.85</course>
  <speed>25.402663246203144</speed>
  <fix>3d</fix>
</trkpt>
<trkpt lat="-27.2744307" lon="151.2800857">
  <ele>373.03</ele>
  <time>2026-09-01T19:58:18Z</time>
  <course>265.6</course>
  <speed>25.44</speed>
  <fix>3d</fix>
</trkpt>
<trkpt lat="-27.2744356" lon="151.2800102">
  <ele>372.95</ele>
  <time>2026-09-01T19:58:18Z</time>
  <course>265.84</course>
  <speed>25.403421029459793</speed>
  <fix>3d</fix>
</trkpt>
<trkpt lat="-27.2744343" lon="151.2800343">
  <ele>373.03</ele>
  <time>2026-09-01T19:58:18Z</time>
  <course>265.59</course>
  <speed>25.43</speed>
  <fix>3d</fix>
</trkpt>
<trkpt lat="-27.2744374" lon="151.2799845">
  <ele>372.95</ele>
  <time>2026-09-01T19:58:18Z</time>
  <course>265.87</course>
  <speed>25.393449942849433</speed>
  <fix>3d</fix>
</trkpt>
<trkpt lat="-27.2744343" lon="151.2800343">
  <ele>373.03</ele>
  <time>2026-09-01T19:58:18Z</time>
  <course>265.59</course>
  <speed>25.43</speed>
  <fix>3d</fix>
</trkpt>
<trkpt lat="-27.2744392" lon="151.2799589">
  <ele>372.95</ele>
  <time>2026-09-01T19:58:18Z</time>
  <course>265.87</course>
  <speed>25.403421029459793</speed>
  <fix>3d</fix>
</trkpt>
<trkpt lat="-27.2744378" lon="151.279983">
  <ele>373.03</ele>
  <time>2026-09-01T19:58:18Z</time>
  <course>265.57</course>
  <speed>25.43</speed>
  <fix>3d</fix>
</trkpt>
<trkpt lat="-27.2744409" lon="151.2799332">
  <ele>372.95</ele>
  <time>2026-09-01T19:58:18Z</time>
  <course>265.95</course>
  <speed>25.393449942849433</speed>
  <fix>3d</fix>
</trkpt>
<trkpt lat="-27.2744378" lon="151.279983">
  <ele>373.03</ele>
  <time>2026-09-01T19:58:18Z</time>
  <course>265.57</course>
  <speed>25.43</speed>
  <fix>3d</fix>
</trkpt>
<trkpt lat="-27.2744427" lon="151.2799076">
  <ele>372.95</ele>
  <time>2026-09-01T19:58:18Z</time>
  <course>265.99</course>
  <speed>25.403421029459793</speed>
  <fix>3d</fix>
</trkpt>
<trkpt lat="-27.2744413" lon="151.2799317">
  <ele>373.03</ele>
  <time>2026-09-01T19:58:18Z</time>
  <course>265.58</course>
  <speed>25.43</speed>
  <fix>3d</fix>
</trkpt>
<trkpt lat="-27.2744444" lon="151.2798819">
  <ele>372.95</ele>
  <time>2026-09-01T19:58:18Z</time>
  <course>266.01</course>
  <speed>25.401909377052743</speed>
  <fix>3d</fix>
</trkpt>
<trkpt lat="-27.2744413" lon="151.2799317">
  <ele>373.03</ele>
  <time>2026-09-01T19:58:18Z</time>
  <course>265.58</course>
  <speed>25.43</speed>
  <fix>3d</fix>
</trkpt>
<trkpt lat="-27.2744462" lon="151.2798563">
  <ele>372.96</ele>
  <time>2026-09-01T19:58:18Z</time>
  <course>266.09</course>
  <speed>25.399671257715127</speed>
  <fix>3d</fix>
</trkpt>
<trkpt lat="-27.2744448" lon="151.2798806">
  <ele>373.04</ele>
  <time>2026-09-01T19:58:18Z</time>
  <course>265.64</course>
  <speed>25.42</speed>
  <fix>3d</fix>
</trkpt>
<trkpt lat="-27.2744479" lon="151.2798307">
  <ele>372.96</ele>
  <time>2026-09-01T19:58:18Z</time>
  <course>266.18</course>
  <speed>25.396019373122236</speed>
  <fix>3d</fix>
</trkpt>
<trkpt lat="-27.2744448" lon="151.2798806">
  <ele>373.04</ele>
  <time>2026-09-01T19:58:18Z</time>
  <course>265.64</course>
  <speed>25.42</speed>
  <fix>3d</fix>
</trkpt>
<trkpt lat="-27.2744495" lon="151.279805">
  <ele>372.97</ele>
  <time>2026-09-01T19:58:18Z</time>
  <course>266.27</course>
  <speed>25.39107126530899</speed>
  <fix>3d</fix>
</trkpt>
<trkpt lat="-27.2744482" lon="151.2798293">
  <ele>373.05</ele>
  <time>2026-09-01T19:58:18Z</time>
  <course>265.83</course>
  <speed>25.42</speed>
  <fix>3d</fix>
</trkpt>
<trkpt lat="-27.2744511" lon="151.2797796">
  <ele>372.97</ele>
  <time>2026-09-01T19:58:18Z</time>
  <course>266.41</course>
  <speed>25.394969974386658</speed>
  <fix>3d</fix>
</trkpt>
<trkpt lat="-27.2744482" lon="151.2798293">
  <ele>373.05</ele>
  <time>2026-09-01T19:58:18Z</time>
  <course>265.83</course>
  <speed>25.42</speed>
  <fix>3d</fix>
</trkpt>
<trkpt lat="-27.2744526" lon="151.2797539">
  <ele>372.97</ele>
  <time>2026-09-01T19:58:18Z</time>
  <course>266.48</course>
  <speed>25.39919093199624</speed>
  <fix>3d</fix>
</trkpt>
<trkpt lat="-27.2744514" lon="151.279778">
  <ele>373.06</ele>
  <time>2026-09-01T19:58:18Z</time>
  <course>266.16</course>
  <speed>25.41</speed>
  <fix>3d</fix>
</trkpt>
<trkpt lat="-27.274454" lon="151.2797283">
  <ele>372.97</ele>
  <time>2026-09-01T19:58:18Z</time>
  <course>266.55</course>
  <speed>25.39316640358189</speed>
  <fix>3d</fix>
</trkpt>
<trkpt lat="-27.2744514" lon="151.279778">
  <ele>373.06</ele>
  <time>2026-09-01T19:58:18Z</time>
  <course>266.16</course>
  <speed>25.41</speed>
  <fix>3d</fix>
</trkpt>
<trkpt lat="-27.2744553" lon="151.2797026">
  <ele>372.97</ele>
  <time>2026-09-01T19:58:18Z</time>
  <course>266.7</course>
  <speed>25.397519563925922</speed>
  <fix>3d</fix>
</trkpt>
<trkpt lat="-27.2744543" lon="151.2797268">
  <ele>373.06</ele>
  <time>2026-09-01T19:58:18Z</time>
  <course>266.6</course>
  <speed>25.41</speed>
  <fix>3d</fix>
</trkpt>
<trkpt lat="-27.2744565" lon="151.2796767">
  <ele>372.96</ele>
  <time>2026-09-01T19:58:18Z</time>
  <course>266.92</course>
  <speed>25.401767655027474</speed>
  <fix>3d</fix>
</trkpt>
<trkpt lat="-27.2744543" lon="151.2797268">
  <ele>373.06</ele>
  <time>2026-09-01T19:58:18Z</time>
  <course>266.6</course>
  <speed>25.41</speed>
  <fix>3d</fix>
</trkpt>
<trkpt lat="-27.2744576" lon="151.2796511">
  <ele>372.95</ele>
  <time>2026-09-01T19:58:18Z</time>
  <course>267.12</course>
  <speed>25.396964385532378</speed>
  <fix>3d</fix>
</trkpt>
<trkpt lat="-27.2744568" lon="151.2796755">
  <ele>373.05</ele>
  <time>2026-09-01T19:58:18Z</time>
  <course>267.06</course>
  <speed>25.41</speed>
  <fix>3d</fix>
</trkpt>
<trkpt lat="-27.2744586" lon="151.2796254">
  <ele>372.94</ele>
  <time>2026-09-01T19:58:18Z</time>
  <course>267.31</course>
  <speed>25.402545148075223</speed>
  <fix>3d</fix>
</trkpt>
<trkpt lat="-27.2744568" lon="151.2796755">
  <ele>373.05</ele>
  <time>2026-09-01T19:58:18Z</time>
  <course>267.06</course>
  <speed>25.41</speed>
  <fix>3d</fix>
</trkpt>
<trkpt lat="-27.2744596" lon="151.2795997">
  <ele>372.92</ele>
  <time>2026-09-01T19:58:18Z</time>
  <course>267.54</course>
  <speed>25.39852948499184</speed>
  <fix>3d</fix>
</trkpt>
<trkpt lat="-27.274459" lon="151.2796242">
  <ele>373.03</ele>
  <time>2026-09-01T19:58:18Z</time>
  <course>267.52</course>
  <speed>25.41</speed>
  <fix>3d</fix>
</trkpt>
<trkpt lat="-27.2744605" lon="151.2795738">
  <ele>372.9</ele>
  <time>2026-09-01T19:58:18Z</time>
  <course>267.8</course>
  <speed>25.40490110195275</speed>
  <fix>3d</fix>
</trkpt>
<trkpt lat="-27.274459" lon="151.2796242">
  <ele>373.03</ele>
  <time>2026-09-01T19:58:18Z</time>
  <course>267.52</course>
  <speed>25.41</speed>
  <fix>3d</fix>
</trkpt>
<trkpt lat="-27.2744612" lon="151.2795481">
  <ele>372.88</ele>
  <time>2026-09-01T19:58:18Z</time>
  <course>268.0</course>
  <speed>25.401978269418308</speed>
  <fix>3d</fix>
</trkpt>
<trkpt lat="-27.2744608" lon="151.2795729">
  <ele>373.0</ele>
  <time>2026-09-01T19:58:18Z</time>
  <course>267.97</course>
  <speed>25.41</speed>
  <fix>3d</fix>
</trkpt>
<trkpt lat="-27.2744619" lon="151.2795225">
  <ele>372.85</ele>
  <time>2026-09-01T19:58:18Z</time>
  <course>268.16</course>
  <speed>25.409100731824413</speed>
  <fix>3d</fix>
</trkpt>
<trkpt lat="-27.2744608" lon="151.2795729">
  <ele>373.0</ele>
  <time>2026-09-01T19:58:18Z</time>
  <course>267.97</course>
  <speed>25.41</speed>
  <fix>3d</fix>
</trkpt>
<trkpt lat="-27.2744625" lon="151.2794968">
  <ele>372.81</ele>
  <time>2026-09-01T19:58:18Z</time>
  <course>268.36</course>
  <speed>25.406851438145576</speed>
  <fix>3d</fix>
</trkpt>
<trkpt lat="-27.2744622" lon="151.2795216">
  <ele>372.95</ele>
  <time>2026-09-01T19:58:18Z</time>
  <course>268.41</course>
  <speed>25.42</speed>
  <fix>3d</fix>
</trkpt>
<trkpt lat="-27.274463" lon="151.279471">
  <ele>372.78</ele>
  <time>2026-09-01T19:58:18Z</time>
  <course>268.57</course>
  <speed>25.414724078769773</speed>
  <fix>3d</fix>
</trkpt>
<trkpt lat="-27.2744622" lon="151.2795216">
  <ele>372.95</ele>
  <time>2026-09-01T19:58:18Z</time>
  <course>268.41</course>
  <speed>25.42</speed>
  <fix>3d</fix>
</trkpt>
<trkpt lat="-27.2744635" lon="151.2794453">
  <ele>372.74</ele>
  <time>2026-09-01T19:58:18Z</time>
  <course>268.75</course>
  <speed>25.423146933454166</speed>
  <fix>3d</fix>
</trkpt>
<trkpt lat="-27.2744633" lon="151.2794702">
  <ele>372.88</ele>
  <time>2026-09-01T19:58:18Z</time>
  <course>268.82</course>
  <speed>25.42</speed>
  <fix>3d</fix>
</trkpt>
<trkpt lat="-27.2744638" lon="151.2794196">
  <ele>372.69</ele>
  <time>2026-09-01T19:58:18Z</time>
  <course>269.03</course>
  <speed>25.432013290339402</speed>
  <fix>3d</fix>
</trkpt>
<trkpt lat="-27.2744633" lon="151.2794702">
  <ele>372.88</ele>
  <time>2026-09-01T19:58:18Z</time>
  <course>268.82</course>
  <speed>25.42</speed>
  <fix>3d</fix>
</trkpt>
<trkpt lat="-27.2744641" lon="151.2793938">
  <ele>372.64</ele>
  <time>2026-09-01T19:58:18Z</time>
  <course>269.25</course>
  <speed>25.431040088836323</speed>
  <fix>3d</fix>
</trkpt>
<trkpt lat="-27.2744641" lon="151.2794187">
  <ele>372.78</ele>
  <time>2026-09-01T19:58:18Z</time>
  <course>269.22</course>
  <speed>25.43</speed>
  <fix>3d</fix>
</trkpt>
<trkpt lat="-27.2744643" lon="151.2793681">
  <ele>372.58</ele>
  <time>2026-09-01T19:58:18Z</time>
  <course>269.41</course>
  <speed>25.4503850658492</speed>
  <fix>3d</fix>
</trkpt>
<trkpt lat="-27.2744641" lon="151.2794187">
  <ele>372.78</ele>
  <time>2026-09-01T19:58:18Z</time>
  <course>269.22</course>
  <speed>25.43</speed>
  <fix>3d</fix>
</trkpt>
<trkpt lat="-27.2744644" lon="151.2793423">
  <ele>372.52</ele>
  <time>2026-09-01T19:58:18Z</time>
  <course>269.59</course>
  <speed>25.450070726817245</speed>
  <fix>3d</fix>
</trkpt>
<trkpt lat="-27.2744645" lon="151.2793673">
  <ele>372.68</ele>
  <time>2026-09-01T19:58:18Z</time>
  <course>269.62</course>
  <speed>25.45</speed>
  <fix>3d</fix>
</trkpt>
<trkpt lat="-27.2744644" lon="151.2793165">
  <ele>372.46</ele>
  <time>2026-09-01T19:58:18Z</time>
  <course>269.76</course>
  <speed>25.460001963864812</speed>
  <fix>3d</fix>
</trkpt>
<trkpt lat="-27.2744645" lon="151.2793673">
  <ele>372.68</ele>
  <time>2026-09-01T19:58:18Z</time>
  <course>269.62</course>
  <speed>25.45</speed>
  <fix>3d</fix>
</trkpt>
<trkpt lat="-27.2744644" lon="151.2792907">
  <ele>372.4</ele>
  <time>2026-09-01T19:58:18Z</time>
  <course>269.97</course>
  <speed>25.470125637695624</speed>
  <fix>3d</fix>
</trkpt>
<trkpt lat="-27.2744647" lon="151.2793158">
  <ele>372.57</ele>
  <time>2026-09-01T19:58:18Z</time>
  <course>269.98</course>
  <speed>25.46</speed>
  <fix>3d</fix>
</trkpt>
<trkpt lat="-27.2744643" lon="151.2792649">
  <ele>372.34</ele>
  <time>2026-09-01T19:58:18Z</time>
  <course>270.14</course>
  <speed>25.480384612481814</speed>
  <fix>3d</fix>
</trkpt>
<trkpt lat="-27.2744647" lon="151.2793158">
  <ele>372.57</ele>
  <time>2026-09-01T19:58:18Z</time>
  <course>269.98</course>
  <speed>25.46</speed>
  <fix>3d</fix>
</trkpt>
<trkpt lat="-27.2744642" lon="151.2792394">
  <ele>372.27</ele>
  <time>2026-09-01T19:58:18Z</time>
  <course>270.32</course>
  <speed>25.490784609344608</speed>
  <fix>3d</fix>
</trkpt>
<trkpt lat="-27.2744646" lon="151.2792643">
  <ele>372.44</ele>
  <time>2026-09-01T19:58:18Z</time>
  <course>270.29</course>
  <speed>25.47</speed>
  <fix>3d</fix>
</trkpt>
<trkpt lat="-27.274464" lon="151.2792135">
  <ele>372.2</ele>
  <time>2026-09-01T19:58:18Z</time>
  <course>270.54</course>
  <speed>25.491429932430233</speed>
  <fix>3d</fix>
</trkpt>
<trkpt lat="-27.2744646" lon="151.2792643">
  <ele>372.44</ele>
  <time>2026-09-01T19:58:18Z</time>
  <course>270.29</course>
  <speed>25.47</speed>
  <fix>3d</fix>
</trkpt>
<trkpt lat="-27.2744637" lon="151.2791878">
  <ele>372.14</ele>
  <time>2026-09-01T19:58:19Z</time>
  <course>270.66</course>
  <speed>25.492008551701062</speed>
  <fix>3d</fix>
</trkpt>
<trkpt lat="-27.2744643" lon="151.2792128">
  <ele>372.31</ele>
  <time>2026-09-01T19:58:19Z</time>
  <course>270.57</course>
  <speed>25.48</speed>
  <fix>3d</fix>
</trkpt>
<trkpt lat="-27.2744635" lon="151.2791619">
  <ele>372.07</ele>
  <time>2026-09-01T19:58:19Z</time>
  <course>270.81</course>
  <speed>25.512830105654686</speed>
  <fix>3d</fix>
</trkpt>
<trkpt lat="-27.2744643" lon="151.2792128">
  <ele>372.31</ele>
  <time>2026-09-01T19:58:19Z</time>
  <course>270.57</course>
  <speed>25.48</speed>
  <fix>3d</fix>
</trkpt>
<trkpt lat="-27.2744632" lon="151.2791359">
  <ele>372.0</ele>
  <time>2026-09-01T19:58:19Z</time>
  <course>270.97</course>
  <speed>25.51362381160309</speed>
  <fix>3d</fix>
</trkpt>
<trkpt lat="-27.2744637" lon="151.2791613">
  <ele>372.18</ele>
  <time>2026-09-01T19:58:19Z</time>
  <course>270.82</course>
  <speed>25.49</speed>
  <fix>3d</fix>
</trkpt>
<trkpt lat="-27.2744628" lon="151.2791101">
  <ele>371.93</ele>
  <time>2026-09-01T19:58:19Z</time>
  <course>271.06</course>
  <speed>25.514515476489063</speed>
  <fix>3d</fix>
</trkpt>
<trkpt lat="-27.2744637" lon="151.2791613">
  <ele>372.18</ele>
  <time>2026-09-01T19:58:19Z</time>
  <course>270.82</course>
  <speed>25.49</speed>
  <fix>3d</fix>
</trkpt>
<trkpt lat="-27.2744624" lon="151.2790843">
  <ele>371.85</ele>
  <time>2026-09-01T19:58:19Z</time>
  <course>271.17</course>
  <speed>25.525297255859723</speed>
  <fix>3d</fix>
</trkpt>
<trkpt lat="-27.274463" lon="151.2791098">
  <ele>372.03</ele>
  <time>2026-09-01T19:58:19Z</time>
  <course>271.05</course>
  <speed>25.5</speed>
  <fix>3d</fix>
</trkpt>
<trkpt lat="-27.2744619" lon="151.2790584">
  <ele>371.77</ele>
  <time>2026-09-01T19:58:19Z</time>
  <course>271.27</course>
  <speed>25.536141055374834</speed>
  <fix>3d</fix>
</trkpt>
<trkpt lat="-27.274463" lon="151.2791098">
  <ele>372.03</ele>
  <time>2026-09-01T19:58:19Z</time>
  <course>271.05</course>
  <speed>25.5</speed>
  <fix>3d</fix>
</trkpt>
<trkpt lat="-27.2744614" lon="151.2790326">
  <ele>371.69</ele>
  <time>2026-09-01T19:58:19Z</time>
  <course>271.38</course>
  <speed>25.53704955549877</speed>
  <fix>3d</fix>
</trkpt>
<trkpt lat="-27.2744621" lon="151.2790583">
  <ele>371.87</ele>
  <time>2026-09-01T19:58:19Z</time>
  <course>271.24</course>
  <speed>25.52</speed>
  <fix>3d</fix>
</trkpt>
<trkpt lat="-27.2744609" lon="151.2790068">
  <ele>371.61</ele>
  <time>2026-09-01T19:58:19Z</time>
  <course>271.5</course>
  <speed>25.547768982829012</speed>
  <fix>3d</fix>
</trkpt>
<trkpt lat="-27.2744621" lon="151.2790583">
  <ele>371.87</ele>
  <time>2026-09-01T19:58:19Z</time>
  <course>271.24</course>
  <speed>25.52</speed>
  <fix>3d</fix>
</trkpt>
<trkpt lat="-27.2744603" lon="151.278981">
  <ele>371.52</ele>
  <time>2026-09-01T19:58:19Z</time>
  <course>271.61</course>
  <speed>25.54852637629028</speed>
  <fix>3d</fix>
</trkpt>
<trkpt lat="-27.274461" lon="151.2790067">
  <ele>371.71</ele>
  <time>2026-09-01T19:58:19Z</time>
  <course>271.4</course>
  <speed>25.53</speed>
  <fix>3d</fix>
</trkpt>
<trkpt lat="-27.2744597" lon="151.2789552">
  <ele>371.43</ele>
  <time>2026-09-01T19:58:19Z</time>
  <course>271.71</course>
  <speed>25.559315327293103</speed>
  <fix>3d</fix>
</trkpt>
<trkpt lat="-27.274461" lon="151.2790067">
  <ele>371.71</ele>
  <time>2026-09-01T19:58:19Z</time>
  <course>271.4</course>
  <speed>25.53</speed>
  <fix>3d</fix>
</trkpt>
<trkpt lat="-27.2744591" lon="151.2789293">
  <ele>371.34</ele>
  <time>2026-09-01T19:58:19Z</time>
  <course>271.77</course>
  <speed>25.56014280085305</speed>
  <fix>3d</fix>
</trkpt>
<trkpt lat="-27.2744598" lon="151.278955">
  <ele>371.54</ele>
  <time>2026-09-01T19:58:19Z</time>
  <course>271.54</course>
  <speed>25.54</speed>
  <fix>3d</fix>
</trkpt>
<trkpt lat="-27.2744584" lon="151.2789035">
  <ele>371.25</ele>
  <time>2026-09-01T19:58:19Z</time>
  <course>271.81</course>
  <speed>25.56071399628735</speed>
  <fix>3d</fix>
</trkpt>
<trkpt lat="-27.2744598" lon="151.278955">
  <ele>371.54</ele>
  <time>2026-09-01T19:58:19Z</time>
  <course>271.54</course>
  <speed>25.54</speed>
  <fix>3d</fix>
</trkpt>
<trkpt lat="-27.2744578" lon="151.2788777">
  <ele>371.16</ele>
  <time>2026-09-01T19:58:19Z</time>
  <course>271.87</course>
  <speed>25.5613008276183</speed>
  <fix>3d</fix>
</trkpt>
<trkpt lat="-27.2744585" lon="151.2789033">
  <ele>371.36</ele>
  <time>2026-09-01T19:58:19Z</time>
  <course>271.65</course>
  <speed>25.54</speed>
  <fix>3d</fix>
</trkpt>
<trkpt lat="-27.2744571" lon="151.2788517">
  <ele>371.07</ele>
  <time>2026-09-01T19:58:19Z</time>
  <course>271.95</course>
  <speed>25.561903293769028</speed>
  <fix>3d</fix>
</trkpt>
<trkpt lat="-27.2744585" lon="151.2789033">
  <ele>371.36</ele>
  <time>2026-09-01T19:58:19Z</time>
  <course>271.65</course>
  <speed>25.54</speed>
  <fix>3d</fix>
</trkpt>
<trkpt lat="-27.2744564" lon="151.2788258">
  <ele>370.98</ele>
  <time>2026-09-01T19:58:19Z</time>
  <course>271.97</course>
  <speed>25.572205614690336</speed>
  <fix>3d</fix>
</trkpt>
<trkpt lat="-27.2744572" lon="151.2788517">
  <ele>371.18</ele>
  <time>2026-09-01T19:58:19Z</time>
  <course>271.74</course>
  <speed>25.55</speed>
  <fix>3d</fix>
</trkpt>
<trkpt lat="-27.2744557" lon="151.2788">
  <ele>370.88</ele>
  <time>2026-09-01T19:58:19Z</time>
  <course>272.02</course>
  <speed>25.57283128634763</speed>
  <fix>3d</fix>
</trkpt>
<trkpt lat="-27.2744572" lon="151.2788517">
  <ele>371.18</ele>
  <time>2026-09-01T19:58:19Z</time>
  <course>271.74</course>
  <speed>25.55</speed>
  <fix>3d</fix>
</trkpt>
<trkpt lat="-27.2744549" lon="151.2787741">
  <ele>370.79</ele>
  <time>2026-09-01T19:58:19Z</time>
  <course>272.05</course>
  <speed>25.57283128634763</speed>
  <fix>3d</fix>
</trkpt>
<trkpt lat="-27.2744558" lon="151.2788">
  <ele>371.0</ele>
  <time>2026-09-01T19:58:19Z</time>
  <course>271.8</course>
  <speed>25.55</speed>
  <fix>3d</fix>
</trkpt>
<trkpt lat="-27.2744542" lon="151.2787483">
  <ele>370.69</ele>
  <time>2026-09-01T19:58:19Z</time>
  <course>272.16</course>
  <speed>25.573149981963507</speed>
  <fix>3d</fix>
</trkpt>
<trkpt lat="-27.2744558" lon="151.2788">
  <ele>371.0</ele>
  <time>2026-09-01T19:58:19Z</time>
  <course>271.8</course>
  <speed>25.55</speed>
  <fix>3d</fix>
</trkpt>
<trkpt lat="-27.2744535" lon="151.2787226">
  <ele>370.6</ele>
  <time>2026-09-01T19:58:19Z</time>
  <course>272.21</course>
  <speed>25.57347258391007</speed>
  <fix>3d</fix>
</trkpt>
<trkpt lat="-27.2744543" lon="151.2787485">
  <ele>370.81</ele>
  <time>2026-09-01T19:58:19Z</time>
  <course>271.83</course>
  <speed>25.56</speed>
  <fix>3d</fix>
</trkpt>
<trkpt lat="-27.2744528" lon="151.2786971">
  <ele>370.5</ele>
  <time>2026-09-01T19:58:19Z</time>
  <course>272.2</course>
  <speed>25.573799092039494</speed>
  <fix>3d</fix>
</trkpt>
<trkpt lat="-27.2744543" lon="151.2787485">
  <ele>370.81</ele>
  <time>2026-09-01T19:58:19Z</time>
  <course>271.83</course>
  <speed>25.56</speed>
  <fix>3d</fix>
</trkpt>
<trkpt lat="-27.274452" lon="151.2786713">
  <ele>370.4</ele>
  <time>2026-09-01T19:58:19Z</time>
  <course>272.17</course>
  <speed>25.57347258391007</speed>
  <fix>3d</fix>
</trkpt>
<trkpt lat="-27.2744528" lon="151.2786969">
  <ele>370.62</ele>
  <time>2026-09-01T19:58:19Z</time>
  <course>271.86</course>
  <speed>25.56</speed>
  <fix>3d</fix>
</trkpt>
<trkpt lat="-27.2744513" lon="151.2786456">
  <ele>370.3</ele>
  <time>2026-09-01T19:58:19Z</time>
  <course>272.14</course>
  <speed>25.57347258391007</speed>
  <fix>3d</fix>
</trkpt>
<trkpt lat="-27.2744528" lon="151.2786969">
  <ele>370.62</ele>
  <time>2026-09-01T19:58:19Z</time>
  <course>271.86</course>
  <speed>25.56</speed>
  <fix>3d</fix>
</trkpt>
<trkpt lat="-27.2744506" lon="151.2786199">
  <ele>370.2</ele>
  <time>2026-09-01T19:58:19Z</time>
  <course>272.13</course>
  <speed>25.56315512607941</speed>
  <fix>3d</fix>
</trkpt>
<trkpt lat="-27.2744513" lon="151.2786452">
  <ele>370.43</ele>
  <time>2026-09-01T19:58:19Z</time>
  <course>271.85</course>
  <speed>25.57</speed>
  <fix>3d</fix>
</trkpt>
<trkpt lat="-27.2744498" lon="151.278594">
  <ele>370.1</ele>
  <time>2026-09-01T19:58:19Z</time>
  <course>272.16</course>
  <speed>25.56315512607941</speed>
  <fix>3d</fix>
</trkpt>
<trkpt lat="-27.2744513" lon="151.2786452">
  <ele>370.43</ele>
  <time>2026-09-01T19:58:19Z</time>
  <course>271.85</course>
  <speed>25.57</speed>
  <fix>3d</fix>
</trkpt>
<trkpt lat="-27.2744491" lon="151.2785683">
  <ele>369.99</ele>
  <time>2026-09-01T19:58:19Z</time>
  <course>272.18</course>
  <speed>25.562836305856205</speed>
  <fix>3d</fix>
</trkpt>
<trkpt lat="-27.2744498" lon="151.2785936">
  <ele>370.22</ele>
  <time>2026-09-01T19:58:19Z</time>
  <course>271.83</course>
  <speed>25.57</speed>
  <fix>3d</fix>
</trkpt>
<trkpt lat="-27.2744484" lon="151.2785426">
  <ele>369.89</ele>
  <time>2026-09-01T19:58:19Z</time>
  <course>272.17</course>
  <speed>25.552526293891177</speed>
  <fix>3d</fix>
</trkpt>
<trkpt lat="-27.2744498" lon="151.2785936">
  <ele>370.22</ele>
  <time>2026-09-01T19:58:19Z</time>
  <course>271.83</course>
  <speed>25.57</speed>
  <fix>3d</fix>
</trkpt>
<trkpt lat="-27.2744477" lon="151.2785169">
  <ele>369.79</ele>
  <time>2026-09-01T19:58:19Z</time>
  <course>272.17</course>
  <speed>25.552215168161055</speed>
  <fix>3d</fix>
</trkpt>
<trkpt lat="-27.2744484" lon="151.2785419">
  <ele>370.03</ele>
  <time>2026-09-01T19:58:19Z</time>
  <course>271.79</course>
  <speed>25.57</speed>
  <fix>3d</fix>
</trkpt>
<trkpt lat="-27.274447" lon="151.2784912">
  <ele>369.69</ele>
  <time>2026-09-01T19:58:19Z</time>
  <course>272.2</course>
  <speed>25.551907952244974</speed>
  <fix>3d</fix>
</trkpt>
<trkpt lat="-27.2744484" lon="151.2785419">
  <ele>370.03</ele>
  <time>2026-09-01T19:58:19Z</time>
  <course>271.79</course>
  <speed>25.57</speed>
  <fix>3d</fix>
</trkpt>
<trkpt lat="-27.2744463" lon="151.2784654">
  <ele>369.59</ele>
  <time>2026-09-01T19:58:19Z</time>
  <course>272.12</course>
  <speed>25.541609189712382</speed>
  <fix>3d</fix>
</trkpt>
<trkpt lat="-27.274447" lon="151.2784902">
  <ele>369.82</ele>
  <time>2026-09-01T19:58:19Z</time>
  <course>271.74</course>
  <speed>25.57</speed>
  <fix>3d</fix>
</trkpt>
<trkpt lat="-27.2744456" lon="151.2784397">
  <ele>369.48</ele>
  <time>2026-09-01T19:58:19Z</time>
  <course>272.08</course>
  <speed>25.541014075404288</speed>
  <fix>3d</fix>
</trkpt>
<trkpt lat="-27.274447" lon="151.2784902">
  <ele>369.82</ele>
  <time>2026-09-01T19:58:19Z</time>
  <course>271.74</course>
  <speed>25.57</speed>
  <fix>3d</fix>
</trkpt>
<trkpt lat="-27.2744449" lon="151.278414">
  <ele>369.37</ele>
  <time>2026-09-01T19:58:19Z</time>
  <course>272.04</course>
  <speed>25.530438695799962</speed>
  <fix>3d</fix>
</trkpt>
<trkpt lat="-27.2744456" lon="151.2784385">
  <ele>369.61</ele>
  <time>2026-09-01T19:58:19Z</time>
  <course>271.68</course>
  <speed>25.57</speed>
  <fix>3d</fix>
</trkpt>
<trkpt lat="-27.2744443" lon="151.2783882">
  <ele>369.26</ele>
  <time>2026-09-01T19:58:19Z</time>
  <course>272.06</course>
  <speed>25.529874656958267</speed>
  <fix>3d</fix>
</trkpt>
<trkpt lat="-27.2744456" lon="151.2784385">
  <ele>369.61</ele>
  <time>2026-09-01T19:58:19Z</time>
  <course>271.68</course>
  <speed>25.57</speed>
  <fix>3d</fix>
</trkpt>
<trkpt lat="-27.2744437" lon="151.2783625">
  <ele>369.15</ele>
  <time>2026-09-01T19:58:19Z</time>
  <course>271.99</course>
  <speed>25.529326273914865</speed>
  <fix>3d</fix>
</trkpt>
<trkpt lat="-27.2744443" lon="151.2783868">
  <ele>369.4</ele>
  <time>2026-09-01T19:58:19Z</time>
  <course>271.59</course>
  <speed>25.57</speed>
  <fix>3d</fix>
</trkpt>
<trkpt lat="-27.2744431" lon="151.2783367">
  <ele>369.04</ele>
  <time>2026-09-01T19:58:19Z</time>
  <course>271.91</course>
  <speed>25.51879699358886</speed>
  <fix>3d</fix>
</trkpt>
<trkpt lat="-27.2744443" lon="151.2783868">
  <ele>369.4</ele>
  <time>2026-09-01T19:58:19Z</time>
  <course>271.59</course>
  <speed>25.57</speed>
  <fix>3d</fix>
</trkpt>
<trkpt lat="-27.2744425" lon="151.278311">
  <ele>368.94</ele>
  <time>2026-09-01T19:58:19Z</time>
  <course>271.88</course>
  <speed>25.518279722583184</speed>
  <fix>3d</fix>
</trkpt>
<trkpt lat="-27.2744431" lon="151.2783351">
  <ele>369.19</ele>
  <time>2026-09-01T19:58:19Z</time>
  <course>271.5</course>
  <speed>25.56</speed>
  <fix>3d</fix>
</trkpt>
<trkpt lat="-27.2744419" lon="151.2782852">
  <ele>368.83</ele>
  <time>2026-09-01T19:58:19Z</time>
  <course>271.86</course>
  <speed>25.51777811644266</speed>
  <fix>3d</fix>
</trkpt>
<trkpt lat="-27.2744431" lon="151.2783351">
  <ele>369.19</ele>
  <time>2026-09-01T19:58:19Z</time>
  <course>271.5</course>
  <speed>25.56</speed>
  <fix>3d</fix>
</trkpt>
<trkpt lat="-27.2744414" lon="151.2782594">
  <ele>368.72</ele>
  <time>2026-09-01T19:58:19Z</time>
  <course>271.77</course>
  <speed>25.517055080866996</speed>
  <fix>3d</fix>
</trkpt>
<trkpt lat="-27.2744419" lon="151.2782834">
  <ele>368.96</ele>
  <time>2026-09-01T19:58:19Z</time>
  <course>271.4</course>
  <speed>25.56</speed>
  <fix>3d</fix>
</trkpt>
<trkpt lat="-27.2744408" lon="151.2782336">
  <ele>368.61</ele>
  <time>2026-09-01T19:58:19Z</time>
  <course>271.71</course>
  <speed>25.51659264086802</speed>
  <fix>3d</fix>
</trkpt>
<trkpt lat="-27.2744419" lon="151.2782834">
  <ele>368.96</ele>
  <time>2026-09-01T19:58:19Z</time>
  <course>271.4</course>
  <speed>25.56</speed>
  <fix>3d</fix>
</trkpt>
<trkpt lat="-27.2744403" lon="151.2782078">
  <ele>368.5</ele>
  <time>2026-09-01T19:58:19Z</time>
  <course>271.69</course>
  <speed>25.50593068288236</speed>
  <fix>3d</fix>
</trkpt>
<trkpt lat="-27.2744408" lon="151.2782318">
  <ele>368.75</ele>
  <time>2026-09-01T19:58:19Z</time>
  <course>271.3</course>
  <speed>25.56</speed>
  <fix>3d</fix>
</trkpt>
<trkpt lat="-27.2744398" lon="151.278182">
  <ele>368.39</ele>
  <time>2026-09-01T19:58:19Z</time>
  <course>271.73</course>
  <speed>25.505507248435585</speed>
  <fix>3d</fix>
</trkpt>
<trkpt lat="-27.2744408" lon="151.2782318">
  <ele>368.75</ele>
  <time>2026-09-01T19:58:19Z</time>
  <course>271.3</course>
  <speed>25.56</speed>
  <fix>3d</fix>
</trkpt>
<trkpt lat="-27.2744394" lon="151.2781563">
  <ele>368.27</ele>
  <time>2026-09-01T19:58:19Z</time>
  <course>271.69</course>
  <speed>25.505301409706963</speed>
  <fix>3d</fix>
</trkpt>
<trkpt lat="-27.2744397" lon="151.2781802">
  <ele>368.52</ele>
  <time>2026-09-01T19:58:19Z</time>
  <course>271.2</course>
  <speed>25.55</speed>
  <fix>3d</fix>
</trkpt>
<trkpt lat="-27.2744389" lon="151.2781305">
  <ele>368.16</ele>
  <time>2026-09-01T19:58:19Z</time>
  <course>271.63</course>
  <speed>25.5049014897137</speed>
  <fix>3d</fix>
</trkpt>
<trkpt lat="-27.2744397" lon="151.2781802">
  <ele>368.52</ele>
  <time>2026-09-01T19:58:19Z</time>
  <course>271.2</course>
  <speed>25.55</speed>
  <fix>3d</fix>
</trkpt>
<trkpt lat="-27.2744385" lon="151.2781047">
  <ele>368.04</ele>
  <time>2026-09-01T19:58:19Z</time>
  <course>271.57</course>
  <speed>25.504517246950584</speed>
  <fix>3d</fix>
</trkpt>
<trkpt lat="-27.2744388" lon="151.2781286">
  <ele>368.29</ele>
  <time>2026-09-01T19:58:19Z</time>
  <course>271.12</course>
  <speed>25.55</speed>
  <fix>3d</fix>
</trkpt>
<trkpt lat="-27.274438" lon="151.2780788">
  <ele>367.93</ele>
  <time>2026-09-01T19:58:19Z</time>
  <course>271.53</course>
  <speed>25.504148682126207</speed>
  <fix>3d</fix>
</trkpt>
<trkpt lat="-27.2744388" lon="151.2781286">
  <ele>368.29</ele>
  <time>2026-09-01T19:58:19Z</time>
  <course>271.12</course>
  <speed>25.55</speed>
  <fix>3d</fix>
</trkpt>
<trkpt lat="-27.2744376" lon="151.2780528">
  <ele>367.81</ele>
  <time>2026-09-01T19:58:19Z</time>
  <course>271.43</course>
  <speed>25.503795795920258</speed>
  <fix>3d</fix>
</trkpt>
<trkpt lat="-27.2744379" lon="151.278077">
  <ele>368.06</ele>
  <time>2026-09-01T19:58:19Z</time>
  <course>271.03</course>
  <speed>25.54</speed>
  <fix>3d</fix>
</trkpt>
<trkpt lat="-27.2744372" lon="151.278027">
  <ele>367.7</ele>
  <time>2026-09-01T19:58:19Z</time>
  <course>271.4</course>
  <speed>25.49345994564096</speed>
  <fix>3d</fix>
</trkpt>
<trkpt lat="-27.2744379" lon="151.278077">
  <ele>368.06</ele>
  <time>2026-09-01T19:58:19Z</time>
  <course>271.03</course>
  <speed>25.54</speed>
  <fix>3d</fix>
</trkpt>
<trkpt lat="-27.2744368" lon="151.2780012">
  <ele>367.59</ele>
  <time>2026-09-01T19:58:19Z</time>
  <course>271.33</course>
  <speed>25.4929833483647</speed>
  <fix>3d</fix>
</trkpt>
<trkpt lat="-27.2744372" lon="151.2780254">
  <ele>367.83</ele>
  <time>2026-09-01T19:58:19Z</time>
  <course>270.93</course>
  <speed>25.54</speed>
  <fix>3d</fix>
</trkpt>
<trkpt lat="-27.2744365" lon="151.2779753">
  <ele>367.47</ele>
  <time>2026-09-01T19:58:19Z</time>
  <course>271.31</course>
  <speed>25.492685225373965</speed>
  <fix>3d</fix>
</trkpt>
<trkpt lat="-27.2744372" lon="151.2780254">
  <ele>367.83</ele>
  <time>2026-09-01T19:58:19Z</time>
  <course>270.93</course>
  <speed>25.54</speed>
  <fix>3d</fix>
</trkpt>
<trkpt lat="-27.2744362" lon="151.2779495">
  <ele>367.35</ele>
  <time>2026-09-01T19:58:19Z</time>
  <course>271.25</course>
  <speed>25.49240278985094</speed>
  <fix>3d</fix>
</trkpt>
<trkpt lat="-27.2744365" lon="151.2779737">
  <ele>367.6</ele>
  <time>2026-09-01T19:58:19Z</time>
  <course>270.83</course>
  <speed>25.53</speed>
  <fix>3d</fix>
</trkpt>
<trkpt lat="-27.2744359" lon="151.2779236">
  <ele>367.23</ele>
  <time>2026-09-01T19:58:19Z</time>
  <course>271.21</course>
  <speed>25.502135204723544</speed>
  <fix>3d</fix>
</trkpt>
<trkpt lat="-27.2744365" lon="151.2779737">
  <ele>367.6</ele>
  <time>2026-09-01T19:58:19Z</time>
  <course>270.83</course>
  <speed>25.53</speed>
  <fix>3d</fix>
</trkpt>
<trkpt lat="-27.2744356" lon="151.2778977">
  <ele>367.11</ele>
  <time>2026-09-01T19:58:19Z</time>
  <course>271.19</course>
  <speed>25.501764644824092</speed>
  <fix>3d</fix>
</trkpt>
<trkpt lat="-27.2744359" lon="151.2779221">
  <ele>367.37</ele>
  <time>2026-09-01T19:58:19Z</time>
  <course>270.72</course>
  <speed>25.53</speed>
  <fix>3d</fix>
</trkpt>
<trkpt lat="-27.2744353" lon="151.2778718">
  <ele>367.0</ele>
  <time>2026-09-01T19:58:19Z</time>
  <course>271.14</course>
  <speed>25.501648966292354</speed>
  <fix>3d</fix>
</trkpt>
<trkpt lat="-27.2744359" lon="151.2779221">
  <ele>367.37</ele>
  <time>2026-09-01T19:58:19Z</time>
  <course>270.72</course>
  <speed>25.53</speed>
  <fix>3d</fix>
</trkpt>
<trkpt lat="-27.2744351" lon="151.277846">
  <ele>366.88</ele>
  <time>2026-09-01T19:58:19Z</time>
  <course>271.09</course>
  <speed>25.501325455748376</speed>
  <fix>3d</fix>
</trkpt>
<trkpt lat="-27.2744353" lon="151.2778705">
  <ele>367.13</ele>
  <time>2026-09-01T19:58:19Z</time>
  <course>270.62</course>
  <speed>25.52</speed>
  <fix>3d</fix>
</trkpt>
<trkpt lat="-27.2744349" lon="151.2778201">
  <ele>366.76</ele>
  <time>2026-09-01T19:58:19Z</time>
  <course>271.0</course>
  <speed>25.50112938675462</speed>
  <fix>3d</fix>
</trkpt>
<trkpt lat="-27.2744353" lon="151.2778705">
  <ele>367.13</ele>
  <time>2026-09-01T19:58:19Z</time>
  <course>270.62</course>
  <speed>25.52</speed>
  <fix>3d</fix>
</trkpt>
<trkpt lat="-27.2744347" lon="151.2777942">
  <ele>366.64</ele>
  <time>2026-09-01T19:58:19Z</time>
  <course>270.9</course>
  <speed>25.50094900194893</speed>
  <fix>3d</fix>
</trkpt>
<trkpt lat="-27.2744349" lon="151.2778187">
  <ele>366.89</ele>
  <time>2026-09-01T19:58:19Z</time>
  <course>270.52</course>
  <speed>25.51</speed>
  <fix>3d</fix>
</trkpt>
<trkpt lat="-27.2744345" lon="151.2777683">
  <ele>366.52</ele>
  <time>2026-09-01T19:58:19Z</time>
  <course>270.86</course>
  <speed>25.500707833313175</speed>
  <fix>3d</fix>
</trkpt>
<trkpt lat="-27.2744349" lon="151.2778187">
  <ele>366.89</ele>
  <time>2026-09-01T19:58:19Z</time>
  <course>270.52</course>
  <speed>25.51</speed>
  <fix>3d</fix>
</trkpt>
<trkpt lat="-27.2744343" lon="151.2777425">
  <ele>366.4</ele>
  <time>2026-09-01T19:58:19Z</time>
  <course>270.84</course>
  <speed>25.50056666037051</speed>
  <fix>3d</fix>
</trkpt>
<trkpt lat="-27.2744345" lon="151.2777672">
  <ele>366.65</ele>
  <time>2026-09-01T19:58:19Z</time>
  <course>270.42</course>
  <speed>25.51</speed>
  <fix>3d</fix>
</trkpt>
<trkpt lat="-27.2744342" lon="151.2777166">
  <ele>366.28</ele>
  <time>2026-09-01T19:58:19Z</time>
  <course>270.82</course>
  <speed>25.50044117265425</speed>
  <fix>3d</fix>
</trkpt>
<trkpt lat="-27.2744345" lon="151.2777672">
  <ele>366.65</ele>
  <time>2026-09-01T19:58:19Z</time>
  <course>270.42</course>
  <speed>25.51</speed>
  <fix>3d</fix>
</trkpt>
<trkpt lat="-27.2744341" lon="151.2776908">
  <ele>366.16</ele>
  <time>2026-09-01T19:58:19Z</time>
  <course>270.75</course>
  <speed>25.500282351377997</speed>
  <fix>3d</fix>
</trkpt>
<trkpt lat="-27.2744342" lon="151.2777157">
  <ele>366.41</ele>
  <time>2026-09-01T19:58:19Z</time>
  <course>270.3</course>
  <speed>25.5</speed>
  <fix>3d</fix>
</trkpt>
<trkpt lat="-27.274434" lon="151.2776649">
  <ele>366.03</ele>
  <time>2026-09-01T19:58:19Z</time>
  <course>270.69</course>
  <speed>25.50019607767752</speed>
  <fix>3d</fix>
</trkpt>
<trkpt lat="-27.2744342" lon="151.2777157">
  <ele>366.41</ele>
  <time>2026-09-01T19:58:19Z</time>
  <course>270.3</course>
  <speed>25.5</speed>
  <fix>3d</fix>
</trkpt>
<trkpt lat="-27.2744339" lon="151.2776391">
  <ele>365.91</ele>
  <time>2026-09-01T19:58:19Z</time>
  <course>270.66</course>
  <speed>25.5001254898873</speed>
  <fix>3d</fix>
</trkpt>
<trkpt lat="-27.274434" lon="151.2776642">
  <ele>366.16</ele>
  <time>2026-09-01T19:58:19Z</time>
  <course>270.2</course>
  <speed>25.49</speed>
  <fix>3d</fix>
</trkpt>
<trkpt lat="-27.2744338" lon="151.2776133">
  <ele>365.78</ele>
  <time>2026-09-01T19:58:19Z</time>
  <course>270.64</course>
  <speed>25.500070588137596</speed>
  <fix>3d</fix>
</trkpt>
<trkpt lat="-27.274434" lon="151.2776642">
  <ele>366.16</ele>
  <time>2026-09-01T19:58:19Z</time>
  <course>270.2</course>
  <speed>25.49</speed>
  <fix>3d</fix>
</trkpt>
<trkpt lat="-27.2744338" lon="151.2775875">
  <ele>365.66</ele>
  <time>2026-09-01T19:58:19Z</time>
  <course>270.62</course>
  <speed>25.50003137252972</speed>
  <fix>3d</fix>
</trkpt>
<trkpt lat="-27.2744338" lon="151.2776127">
  <ele>365.91</ele>
  <time>2026-09-01T19:58:19Z</time>
  <course>270.11</course>
  <speed>25.48</speed>
  <fix>3d</fix>
</trkpt>
<trkpt lat="-27.2744338" lon="151.2775616">
  <ele>365.54</ele>
  <time>2026-09-01T19:58:19Z</time>
  <course>270.59</course>
  <speed>25.49001765397584</speed>
  <fix>3d</fix>
</trkpt>
<trkpt lat="-27.2744338" lon="151.2776127">
  <ele>365.91</ele>
  <time>2026-09-01T19:58:19Z</time>
  <course>270.11</course>
  <speed>25.48</speed>
  <fix>3d</fix>
</trkpt>
<trkpt lat="-27.2744338" lon="151.2775359">
  <ele>365.42</ele>
  <time>2026-09-01T19:58:19Z</time>
  <course>270.53</course>
  <speed>25.490001961553475</speed>
  <fix>3d</fix>
</trkpt>
<trkpt lat="-27.2744338" lon="151.2775611">
  <ele>365.66</ele>
  <time>2026-09-01T19:58:19Z</time>
  <course>270.03</course>
  <speed>25.48</speed>
  <fix>3d</fix>
</trkpt>
<trkpt lat="-27.2744338" lon="151.2775103">
  <ele>365.3</ele>
  <time>2026-09-01T19:58:19Z</time>
  <course>270.46</course>
  <speed>25.48</speed>
  <fix>3d</fix>
</trkpt>
<trkpt lat="-27.2744338" lon="151.2775611">
  <ele>365.66</ele>
  <time>2026-09-01T19:58:19Z</time>
  <course>270.03</course>
  <speed>25.48</speed>
  <fix>3d</fix>
</trkpt>
<trkpt lat="-27.2744338" lon="151.2774845">
  <ele>365.17</ele>
  <time>2026-09-01T19:58:19Z</time>
  <course>270.44</course>
  <speed>25.48</speed>
  <fix>3d</fix>
</trkpt>
<trkpt lat="-27.2744338" lon="151.2775097">
  <ele>365.43</ele>
  <time>2026-09-01T19:58:19Z</time>
  <course>269.97</course>
  <speed>25.46</speed>
  <fix>3d</fix>
</trkpt>
<trkpt lat="-27.2744338" lon="151.2774587">
  <ele>365.05</ele>
  <time>2026-09-01T19:58:19Z</time>
  <course>270.44</course>
  <speed>25.480001962323318</speed>
  <fix>3d</fix>
</trkpt>
<trkpt lat="-27.2744338" lon="151.2775097">
  <ele>365.43</ele>
  <time>2026-09-01T19:58:19Z</time>
  <course>269.97</course>
  <speed>25.46</speed>
  <fix>3d</fix>
</trkpt>
<trkpt lat="-27.2744338" lon="151.2774325">
  <ele>364.92</ele>
  <time>2026-09-01T19:58:19Z</time>
  <course>270.44</course>
  <speed>25.480007849292356</speed>
  <fix>3d</fix>
</trkpt>
<trkpt lat="-27.2744338" lon="151.2774582">
  <ele>365.18</ele>
  <time>2026-09-01T19:58:19Z</time>
  <course>269.92</course>
  <speed>25.46</speed>
  <fix>3d</fix>
</trkpt>
<trkpt lat="-27.2744339" lon="151.2774067">
  <ele>364.79</ele>
  <time>2026-09-01T19:58:19Z</time>
  <course>270.38</course>
  <speed>25.480017660904394</speed>
  <fix>3d</fix>
</trkpt>
<trkpt lat="-27.2744338" lon="151.2774582">
  <ele>365.18</ele>
  <time>2026-09-01T19:58:19Z</time>
  <course>269.92</course>
  <speed>25.46</speed>
  <fix>3d</fix>
</trkpt>
<trkpt lat="-27.2744339" lon="151.277381">
  <ele>364.66</ele>
  <time>2026-09-01T19:58:19Z</time>
  <course>270.35</course>
  <speed>25.480031397154914</speed>
  <fix>3d</fix>
</trkpt>
<trkpt lat="-27.2744339" lon="151.2774068">
  <ele>364.92</ele>
  <time>2026-09-01T19:58:19Z</time>
  <course>269.88</course>
  <speed>25.45</speed>
  <fix>3d</fix>
</trkpt>
<trkpt lat="-27.2744339" lon="151.2773552">
  <ele>364.53</ele>
  <time>2026-09-01T19:58:19Z</time>
  <course>270.31</course>
  <speed>25.480049058037544</speed>
  <fix>3d</fix>
</trkpt>
<trkpt lat="-27.2744339" lon="151.2774068">
  <ele>364.92</ele>
  <time>2026-09-01T19:58:19Z</time>
  <course>269.88</course>
  <speed>25.45</speed>
  <fix>3d</fix>
</trkpt>
<trkpt lat="-27.2744339" lon="151.2773294">
  <ele>364.4</ele>
  <time>2026-09-01T19:58:19Z</time>
  <course>270.31</course>
  <speed>25.47004907729861</speed>
  <fix>3d</fix>
</trkpt>
<trkpt lat="-27.2744339" lon="151.2773552">
  <ele>364.66</ele>
  <time>2026-09-01T19:58:19Z</time>
  <course>269.84</course>
  <speed>25.45</speed>
  <fix>3d</fix>
</trkpt>
<trkpt lat="-27.274434" lon="151.2773036">
  <ele>364.27</ele>
  <time>2026-09-01T19:58:19Z</time>
  <course>270.29</course>
  <speed>25.470070671280045</speed>
  <fix>3d</fix>
</trkpt>
<trkpt lat="-27.2744339" lon="151.2773552">
  <ele>364.66</ele>
  <time>2026-09-01T19:58:19Z</time>
  <course>269.84</course>
  <speed>25.45</speed>
  <fix>3d</fix>
</trkpt>
<trkpt lat="-27.274434" lon="151.2772778">
  <ele>364.15</ele>
  <time>2026-09-01T19:58:19Z</time>
  <course>270.27</course>
  <speed>25.470070671280045</speed>
  <fix>3d</fix>
</trkpt>
<trkpt lat="-27.274434" lon="151.2773037">
  <ele>364.41</ele>
  <time>2026-09-01T19:58:19Z</time>
  <course>269.81</course>
  <speed>25.44</speed>
  <fix>3d</fix>
</trkpt>
<trkpt lat="-27.2744341" lon="151.2772522">
  <ele>364.02</ele>
  <time>2026-09-01T19:58:19Z</time>
  <course>270.3</course>
  <speed>25.470096191416317</speed>
  <fix>3d</fix>
</trkpt>
<trkpt lat="-27.274434" lon="151.2773037">
  <ele>364.41</ele>
  <time>2026-09-01T19:58:19Z</time>
  <course>269.81</course>
  <speed>25.44</speed>
  <fix>3d</fix>
</trkpt>
<trkpt lat="-27.2744342" lon="151.2772265">
  <ele>363.9</ele>
  <time>2026-09-01T19:58:19Z</time>
  <course>270.28</course>
  <speed>25.470096191416317</speed>
  <fix>3d</fix>
</trkpt>
<trkpt lat="-27.2744342" lon="151.2772524">
  <ele>364.15</ele>
  <time>2026-09-01T19:58:19Z</time>
  <course>269.78</course>
  <speed>25.44</speed>
  <fix>3d</fix>
</trkpt>
<trkpt lat="-27.2744343" lon="151.2772009">
  <ele>363.77</ele>
  <time>2026-09-01T19:58:19Z</time>
  <course>270.25</course>
  <speed>25.460096229197564</speed>
  <fix>3d</fix>
</trkpt>
<trkpt lat="-27.2744342" lon="151.2772524">
  <ele>364.15</ele>
  <time>2026-09-01T19:58:19Z</time>
  <course>269.78</course>
  <speed>25.44</speed>
  <fix>3d</fix>
</trkpt>
<trkpt lat="-27.2744343" lon="151.2771753">
  <ele>363.64</ele>
  <time>2026-09-01T19:58:19Z</time>
  <course>270.25</course>
  <speed>25.450096267008497</speed>
  <fix>3d</fix>
</trkpt>
<trkpt lat="-27.2744343" lon="151.277201">
  <ele>363.9</ele>
  <time>2026-09-01T19:58:19Z</time>
  <course>269.78</course>
  <speed>25.44</speed>
  <fix>3d</fix>
</trkpt>
<trkpt lat="-27.2744344" lon="151.2771497">
  <ele>363.51</ele>
  <time>2026-09-01T19:58:19Z</time>
  <course>270.25</course>
  <speed>25.44007075461859</speed>
  <fix>3d</fix>
</trkpt>
<trkpt lat="-27.2744343" lon="151.277201">
  <ele>363.9</ele>
  <time>2026-09-01T19:58:19Z</time>
  <course>269.78</course>
  <speed>25.44</speed>
  <fix>3d</fix>
</trkpt>
<trkpt lat="-27.2744345" lon="151.2771241">
  <ele>363.38</ele>
  <time>2026-09-01T19:58:19Z</time>
  <course>270.24</course>
  <speed>25.4300707824418</speed>
  <fix>3d</fix>
</trkpt>
<trkpt lat="-27.2744346" lon="151.2771495">
  <ele>363.64</ele>
  <time>2026-09-01T19:58:19Z</time>
  <course>269.79</course>
  <speed>25.43</speed>
  <fix>3d</fix>
</trkpt>
<trkpt lat="-27.2744345" lon="151.2770985">
  <ele>363.25</ele>
  <time>2026-09-01T19:58:19Z</time>
  <course>270.23</course>
  <speed>25.430049154494373</speed>
  <fix>3d</fix>
</trkpt>
<trkpt lat="-27.2744346" lon="151.2771495">
  <ele>363.64</ele>
  <time>2026-09-01T19:58:19Z</time>
  <course>269.79</course>
  <speed>25.43</speed>
  <fix>3d</fix>
</trkpt>
<trkpt lat="-27.2744346" lon="151.2770729">
  <ele>363.11</ele>
  <time>2026-09-01T19:58:19Z</time>
  <course>270.27</course>
  <speed>25.42004917383127</speed>
  <fix>3d</fix>
</trkpt>
<trkpt lat="-27.2744347" lon="151.2770982">
  <ele>363.38</ele>
  <time>2026-09-01T19:58:19Z</time>
  <course>269.8</course>
  <speed>25.43</speed>
  <fix>3d</fix>
</trkpt>
<trkpt lat="-27.2744347" lon="151.2770473">
  <ele>362.98</ele>
  <time>2026-09-01T19:58:19Z</time>
  <course>270.26</course>
  <speed>25.42004917383127</speed>
  <fix>3d</fix>
</trkpt>
<trkpt lat="-27.2744347" lon="151.2770982">
  <ele>363.38</ele>
  <time>2026-09-01T19:58:19Z</time>
  <course>269.8</course>
  <speed>25.43</speed>
  <fix>3d</fix>
</trkpt>
<trkpt lat="-27.2744347" lon="151.2770218">
  <ele>362.85</ele>
  <time>2026-09-01T19:58:19Z</time>
  <course>270.22</course>
  <speed>25.410031483648346</speed>
  <fix>3d</fix>
</trkpt>
<trkpt lat="-27.2744349" lon="151.2770468">
  <ele>363.11</ele>
  <time>2026-09-01T19:58:19Z</time>
  <course>269.82</course>
  <speed>25.42</speed>
  <fix>3d</fix>
</trkpt>
<trkpt lat="-27.2744348" lon="151.2769962">
  <ele>362.72</ele>
  <time>2026-09-01T19:58:19Z</time>
  <course>270.22</course>
  <speed>25.400031496043468</speed>
  <fix>3d</fix>
</trkpt>
<trkpt lat="-27.2744349" lon="151.2770468">
  <ele>363.11</ele>
  <time>2026-09-01T19:58:19Z</time>
  <course>269.82</course>
  <speed>25.42</speed>
  <fix>3d</fix>
</trkpt>
<trkpt lat="-27.2744348" lon="151.2769708">
  <ele>362.59</ele>
  <time>2026-09-01T19:58:19Z</time>
  <course>270.22</course>
  <speed>25.390031508448352</speed>
  <fix>3d</fix>
</trkpt>
<trkpt lat="-27.274435" lon="151.2769953">
  <ele>362.85</ele>
  <time>2026-09-01T19:58:19Z</time>
  <course>269.82</course>
  <speed>25.42</speed>
  <fix>3d</fix>
</trkpt>
<trkpt lat="-27.2744349" lon="151.2769452">
  <ele>362.46</ele>
  <time>2026-09-01T19:58:19Z</time>
  <course>270.26</course>
  <speed>25.380031520863014</speed>
  <fix>3d</fix>
</trkpt>
<trkpt lat="-27.274435" lon="151.2769953">
  <ele>362.85</ele>
  <time>2026-09-01T19:58:19Z</time>
  <course>269.82</course>
  <speed>25.42</speed>
  <fix>3d</fix>
</trkpt>
<trkpt lat="-27.274435" lon="151.2769197">
  <ele>362.33</ele>
  <time>2026-09-01T19:58:19Z</time>
  <course>270.23</course>
  <speed>25.380031520863014</speed>
  <fix>3d</fix>
</trkpt>
<trkpt lat="-27.2744351" lon="151.276944">
  <ele>362.59</ele>
  <time>2026-09-01T19:58:19Z</time>
  <course>269.83</course>
  <speed>25.41</speed>
  <fix>3d</fix>
</trkpt>
<trkpt lat="-27.274435" lon="151.2768941">
  <ele>362.2</ele>
  <time>2026-09-01T19:58:19Z</time>
  <course>270.19</course>
  <speed>25.37003153328746</speed>
  <fix>3d</fix>
</trkpt>
<trkpt lat="-27.2744351" lon="151.276944">
  <ele>362.59</ele>
  <time>2026-09-01T19:58:19Z</time>
  <course>269.83</course>
  <speed>25.41</speed>
  <fix>3d</fix>
</trkpt>
<trkpt lat="-27.2744351" lon="151.2768683">
  <ele>362.07</ele>
  <time>2026-09-01T19:58:19Z</time>
  <course>270.17</course>
  <speed>25.37004927074443</speed>
  <fix>3d</fix>
</trkpt>
<trkpt lat="-27.2744353" lon="151.2768927">
  <ele>362.33</ele>
  <time>2026-09-01T19:58:19Z</time>
  <course>269.82</course>
  <speed>25.41</speed>
  <fix>3d</fix>
</trkpt>
<trkpt lat="-27.2744352" lon="151.2768427">
  <ele>361.93</ele>
  <time>2026-09-01T19:58:19Z</time>
  <course>270.14</course>
  <speed>25.36004929017292</speed>
  <fix>3d</fix>
</trkpt>
<trkpt lat="-27.2744353" lon="151.2768927">
  <ele>362.33</ele>
  <time>2026-09-01T19:58:19Z</time>
  <course>269.82</course>
  <speed>25.41</speed>
  <fix>3d</fix>
</trkpt>
<trkpt lat="-27.2744352" lon="151.2768171">
  <ele>361.8</ele>
  <time>2026-09-01T19:58:19Z</time>
  <course>270.17</course>
  <speed>25.36004929017292</speed>
  <fix>3d</fix>
</trkpt>
<trkpt lat="-27.2744354" lon="151.2768413">
  <ele>362.06</ele>
  <time>2026-09-01T19:58:19Z</time>
  <course>269.81</course>
  <speed>25.4</speed>
  <fix>3d</fix>
</trkpt>
<trkpt lat="-27.2744353" lon="151.2767915">
  <ele>361.66</ele>
  <time>2026-09-01T19:58:19Z</time>
  <course>270.25</course>
  <speed>25.350071005817718</speed>
  <fix>3d</fix>
</trkpt>
<trkpt lat="-27.2744354" lon="151.2768413">
  <ele>362.06</ele>
  <time>2026-09-01T19:58:19Z</time>
  <course>269.81</course>
  <speed>25.4</speed>
  <fix>3d</fix>
</trkpt>
<trkpt lat="-27.2744354" lon="151.2767659">
  <ele>361.51</ele>
  <time>2026-09-01T19:58:19Z</time>
  <course>270.41</course>
  <speed>25.350071005817718</speed>
  <fix>3d</fix>
</trkpt>
<trkpt lat="-27.2744355" lon="151.2767899">
  <ele>361.78</ele>
  <time>2026-09-01T19:58:19Z</time>
  <course>269.8</course>
  <speed>25.39</speed>
  <fix>3d</fix>
</trkpt>
<trkpt lat="-27.2744354" lon="151.2767403">
  <ele>361.37</ele>
  <time>2026-09-01T19:58:19Z</time>
  <course>270.7</course>
  <speed>25.34001775847839</speed>
  <fix>3d</fix>
</trkpt>
<trkpt lat="-27.2744355" lon="151.2767899">
  <ele>361.78</ele>
  <time>2026-09-01T19:58:19Z</time>
  <course>269.8</course>
  <speed>25.39</speed>
  <fix>3d</fix>
</trkpt>
<trkpt lat="-27.2744355" lon="151.2767145">
  <ele>361.21</ele>
  <time>2026-09-01T19:58:19Z</time>
  <course>271.05</course>
  <speed>25.34003157061964</speed>
  <fix>3d</fix>
</trkpt>
<trkpt lat="-27.2744357" lon="151.2767385">
  <ele>361.5</ele>
  <time>2026-09-01T19:58:19Z</time>
  <course>269.91</course>
  <speed>25.39</speed>
  <fix>3d</fix>
</trkpt>
<trkpt lat="-27.2744354" lon="151.2766889">
  <ele>361.05</ele>
  <time>2026-09-01T19:58:19Z</time>
  <course>271.36</course>
  <speed>25.34078925369137</speed>
  <fix>3d</fix>
</trkpt>
<trkpt lat="-27.2744357" lon="151.2767385">
  <ele>361.5</ele>
  <time>2026-09-01T19:58:19Z</time>
  <course>269.91</course>
  <speed>25.39</speed>
  <fix>3d</fix>
</trkpt>
<trkpt lat="-27.2744351" lon="151.2766633">
  <ele>360.88</ele>
  <time>2026-09-01T19:58:19Z</time>
  <course>271.65</course>
  <speed>25.34364811940065</speed>
  <fix>3d</fix>
</trkpt>
<trkpt lat="-27.2744356" lon="151.2766872">
  <ele>361.19</ele>
  <time>2026-09-01T19:58:19Z</time>
  <course>270.46</course>
  <speed>25.39</speed>
  <fix>3d</fix>
</trkpt>
<trkpt lat="-27.2744347" lon="151.2766376">
  <ele>360.72</ele>
  <time>2026-09-01T19:58:19Z</time>
  <course>272.03</course>
  <speed>25.36138994613663</speed>
  <fix>3d</fix>
</trkpt>
<trkpt lat="-27.2744356" lon="151.2766872">
  <ele>361.19</ele>
  <time>2026-09-01T19:58:19Z</time>
  <course>270.46</course>
  <speed>25.39</speed>
  <fix>3d</fix>
</trkpt>
<trkpt lat="-27.2744338" lon="151.276612">
  <ele>360.55</ele>
  <time>2026-09-01T19:58:19Z</time>
  <course>272.54</course>
  <speed>25.377915596045312</speed>
  <fix>3d</fix>
</trkpt>
<trkpt lat="-27.2744348" lon="151.2766358">
  <ele>360.86</ele>
  <time>2026-09-01T19:58:19Z</time>
  <course>271.72</course>
  <speed>25.41</speed>
  <fix>3d</fix>
</trkpt>
<trkpt lat="-27.2744326" lon="151.2765864">
  <ele>360.39</ele>
  <time>2026-09-01T19:58:19Z</time>
  <course>273.34</course>
  <speed>25.40627087945022</speed>
  <fix>3d</fix>
</trkpt>
<trkpt lat="-27.2744348" lon="151.2766358">
  <ele>360.86</ele>
  <time>2026-09-01T19:58:19Z</time>
  <course>271.72</course>
  <speed>25.41</speed>
  <fix>3d</fix>
</trkpt>
<trkpt lat="-27.2744308" lon="151.2765607">
  <ele>360.25</ele>
  <time>2026-09-01T19:58:19Z</time>
  <course>274.46</course>
  <speed>25.43330493663771</speed>
  <fix>3d</fix>
</trkpt>
<trkpt lat="-27.2744327" lon="151.2765845">
  <ele>360.55</ele>
  <time>2026-09-01T19:58:19Z</time>
  <course>273.79</course>
  <speed>25.46</speed>
  <fix>3d</fix>
</trkpt>
<trkpt lat="-27.2744285" lon="151.2765351">
  <ele>360.12</ele>
  <time>2026-09-01T19:58:19Z</time>
  <course>275.72</course>
  <speed>25.463797831431194</speed>
  <fix>3d</fix>
</trkpt>
<trkpt lat="-27.2744327" lon="151.2765845">
  <ele>360.55</ele>
  <time>2026-09-01T19:58:19Z</time>
  <course>273.79</course>
  <speed>25.46</speed>
  <fix>3d</fix>
</trkpt>
<trkpt lat="-27.2744255" lon="151.2765096">
  <ele>360.01</ele>
  <time>2026-09-01T19:58:19Z</time>
  <course>277.23</course>
  <speed>25.499860783933705</speed>
  <fix>3d</fix>
</trkpt>
<trkpt lat="-27.2744286" lon="151.2765332">
  <ele>360.28</ele>
  <time>2026-09-01T19:58:19Z</time>
  <course>276.59</course>
  <speed>25.52</speed>
  <fix>3d</fix>
</trkpt>
<trkpt lat="-27.2744219" lon="151.2764841">
  <ele>359.93</ele>
  <time>2026-09-01T19:58:19Z</time>
  <course>278.99</course>
  <speed>25.527965057951644</speed>
  <fix>3d</fix>
</trkpt>
<trkpt lat="-27.2744286" lon="151.2765332">
  <ele>360.28</ele>
  <time>2026-09-01T19:58:19Z</time>
  <course>276.59</course>
  <speed>25.52</speed>
  <fix>3d</fix>
</trkpt>
<trkpt lat="-27.2744175" lon="151.2764589">
  <ele>359.88</ele>
  <time>2026-09-01T19:58:19Z</time>
  <course>280.85</course>
  <speed>25.552084063731478</speed>
  <fix>3d</fix>
</trkpt>
<trkpt lat="-27.274422" lon="151.2764821">
  <ele>360.1</ele>
  <time>2026-09-01T19:58:19Z</time>
  <course>280.01</course>
  <speed>25.58</speed>
  <fix>3d</fix>
</trkpt>
<trkpt lat="-27.2744124" lon="151.2764337">
  <ele>359.86</ele>
  <time>2026-09-01T19:58:19Z</time>
  <course>282.83</course>
  <speed>25.563254878829493</speed>
  <fix>3d</fix>
</trkpt>
<trkpt lat="-27.274422" lon="151.2764821">
  <ele>360.1</ele>
  <time>2026-09-01T19:58:19Z</time>
  <course>280.01</course>
  <speed>25.58</speed>
  <fix>3d</fix>
</trkpt>
<trkpt lat="-27.2744065" lon="151.2764088">
  <ele>359.86</ele>
  <time>2026-09-01T19:58:19Z</time>
  <course>284.78</course>
  <speed>25.565672297047072</speed>
  <fix>3d</fix>
</trkpt>
<trkpt lat="-27.2744124" lon="151.2764315">
  <ele>360.01</ele>
  <time>2026-09-01T19:58:19Z</time>
  <course>283.89</course>
  <speed>25.63</speed>
  <fix>3d</fix>
</trkpt>
<trkpt lat="-27.2743997" lon="151.276384">
  <ele>359.88</ele>
  <time>2026-09-01T19:58:19Z</time>
  <course>286.77</course>
  <speed>25.58613100881022</speed>
  <fix>3d</fix>
</trkpt>
<trkpt lat="-27.2744124" lon="151.2764315">
  <ele>360.01</ele>
  <time>2026-09-01T19:58:19Z</time>
  <course>283.89</course>
  <speed>25.63</speed>
  <fix>3d</fix>
</trkpt>
<trkpt lat="-27.2743922" lon="151.2763596">
  <ele>359.94</ele>
  <time>2026-09-01T19:58:19Z</time>
  <course>288.86</course>
  <speed>25.578318943980662</speed>
  <fix>3d</fix>
</trkpt>
<trkpt lat="-27.2743998" lon="151.2763817">
  <ele>360.03</ele>
  <time>2026-09-01T19:58:19Z</time>
  <course>288.04</course>
  <speed>25.65</speed>
  <fix>3d</fix>
</trkpt>
<trkpt lat="-27.2743838" lon="151.2763353">
  <ele>360.03</ele>
  <time>2026-09-01T19:58:19Z</time>
  <course>291.01</course>
  <speed>25.564678758005158</speed>
  <fix>3d</fix>
</trkpt>
<trkpt lat="-27.2743998" lon="151.2763817">
  <ele>360.03</ele>
  <time>2026-09-01T19:58:19Z</time>
  <course>288.04</course>
  <speed>25.65</speed>
  <fix>3d</fix>
</trkpt>
<trkpt lat="-27.2743747" lon="151.2763115">
  <ele>360.14</ele>
  <time>2026-09-01T19:58:19Z</time>
  <course>293.33</course>
  <speed>25.550029354190574</speed>
  <fix>3d</fix>
</trkpt>
<trkpt lat="-27.2743839" lon="151.276333">
  <ele>360.18</ele>
  <time>2026-09-01T19:58:19Z</time>
  <course>292.29</course>
  <speed>25.64</speed>
  <fix>3d</fix>
</trkpt>
<trkpt lat="-27.2743648" lon="151.2762882">
  <ele>360.27</ele>
  <time>2026-09-01T19:58:19Z</time>
  <course>295.65</course>
  <speed>25.54076936977428</speed>
  <fix>3d</fix>
</trkpt>
<trkpt lat="-27.2743839" lon="151.276333">
  <ele>360.18</ele>
  <time>2026-09-01T19:58:19Z</time>
  <course>292.29</course>
  <speed>25.64</speed>
  <fix>3d</fix>
</trkpt>
<trkpt lat="-27.2743541" lon="151.2762653">
  <ele>360.42</ele>
  <time>2026-09-01T19:58:19Z</time>
  <course>298.02</course>
  <speed>25.528480174111422</speed>
  <fix>3d</fix>
</trkpt>
<trkpt lat="-27.2743648" lon="151.2762858">
  <ele>360.41</ele>
  <time>2026-09-01T19:58:19Z</time>
  <course>296.73</course>
  <speed>25.61</speed>
  <fix>3d</fix>
</trkpt>
<trkpt lat="-27.2743425" lon="151.2762429">
  <ele>360.58</ele>
  <time>2026-09-01T19:58:19Z</time>
  <course>300.67</course>
  <speed>25.53227369428739</speed>
  <fix>3d</fix>
</trkpt>
<trkpt lat="-27.2743648" lon="151.2762858">
  <ele>360.41</ele>
  <time>2026-09-01T19:58:19Z</time>
  <course>296.73</course>
  <speed>25.61</speed>
  <fix>3d</fix>
</trkpt>
<trkpt lat="-27.2743299" lon="151.2762212">
  <ele>360.76</ele>
  <time>2026-09-01T19:58:19Z</time>
  <course>303.64</course>
  <speed>25.54552211249557</speed>
  <fix>3d</fix>
</trkpt>
<trkpt lat="-27.2743424" lon="151.2762406">
  <ele>360.72</ele>
  <time>2026-09-01T19:58:19Z</time>
  <course>301.77</course>
  <speed>25.59</speed>
  <fix>3d</fix>
</trkpt>
<trkpt lat="-27.2743164" lon="151.2762002">
  <ele>360.95</ele>
  <time>2026-09-01T19:58:19Z</time>
  <course>306.87</course>
  <speed>25.556621451201252</speed>
  <fix>3d</fix>
</trkpt>
<trkpt lat="-27.2743424" lon="151.2762406">
  <ele>360.72</ele>
  <time>2026-09-01T19:58:19Z</time>
  <course>301.77</course>
  <speed>25.59</speed>
  <fix>3d</fix>
</trkpt>
<trkpt lat="-27.2743018" lon="151.2761802">
  <ele>361.16</ele>
  <time>2026-09-01T19:58:19Z</time>
  <course>310.3</course>
  <speed>25.57741581942945</speed>
  <fix>3d</fix>
</trkpt>
<trkpt lat="-27.2743162" lon="151.2761981">
  <ele>361.09</ele>
  <time>2026-09-01T19:58:19Z</time>
  <course>307.83</course>
  <speed>25.59</speed>
  <fix>3d</fix>
</trkpt>
<trkpt lat="-27.2742861" lon="151.2761612">
  <ele>361.39</ele>
  <time>2026-09-01T19:58:19Z</time>
  <course>313.94</course>
  <speed>25.60433752316197</speed>
  <fix>3d</fix>
</trkpt>
<trkpt lat="-27.2743162" lon="151.2761981">
  <ele>361.09</ele>
  <time>2026-09-01T19:58:19Z</time>
  <course>307.83</course>
  <speed>25.59</speed>
  <fix>3d</fix>
</trkpt>
<trkpt lat="-27.2742693" lon="151.2761433">
  <ele>361.64</ele>
  <time>2026-09-01T19:58:19Z</time>
  <course>317.88</course>
  <speed>25.62430486862034</speed>
  <fix>3d</fix>
</trkpt>
<trkpt lat="-27.2742859" lon="151.2761593">
  <ele>361.53</ele>
  <time>2026-09-01T19:58:19Z</time>
  <course>314.83</course>
  <speed>25.61</speed>
  <fix>3d</fix>
</trkpt>
<trkpt lat="-27.2742515" lon="151.2761268">
  <ele>361.92</ele>
  <time>2026-09-01T19:58:19Z</time>
  <course>321.79</course>
  <speed>25.622749657286978</speed>
  <fix>3d</fix>
</trkpt>
<trkpt lat="-27.2742859" lon="151.2761593">
  <ele>361.53</ele>
  <time>2026-09-01T19:58:19Z</time>
  <course>314.83</course>
  <speed>25.61</speed>
  <fix>3d</fix>
</trkpt>
<trkpt lat="-27.2742328" lon="151.2761117">
  <ele>362.23</ele>
  <time>2026-09-01T19:58:19Z</time>
  <course>325.59</course>
  <speed>25.616332680538015</speed>
  <fix>3d</fix>
</trkpt>
<trkpt lat="-27.2742514" lon="151.2761251">
  <ele>362.06</ele>
  <time>2026-09-01T19:58:19Z</time>
  <course>322.43</course>
  <speed>25.62</speed>
  <fix>3d</fix>
</trkpt>
<trkpt lat="-27.2742133" lon="151.276098">
  <ele>362.57</ele>
  <time>2026-09-01T19:58:19Z</time>
  <course>329.57</course>
  <speed>25.600986309124888</speed>
  <fix>3d</fix>
</trkpt>
<trkpt lat="-27.2742514" lon="151.2761251">
  <ele>362.06</ele>
  <time>2026-09-01T19:58:19Z</time>
  <course>322.43</course>
  <speed>25.62</speed>
  <fix>3d</fix>
</trkpt>
<trkpt lat="-27.2741928" lon="151.2760858">
  <ele>362.94</ele>
  <time>2026-09-01T19:58:19Z</time>
  <course>333.36</course>
  <speed>25.56648587506699</speed>
  <fix>3d</fix>
</trkpt>
<trkpt lat="-27.2742131" lon="151.2760964">
  <ele>362.69</ele>
  <time>2026-09-01T19:58:19Z</time>
  <course>330.24</course>
  <speed>25.59</speed>
  <fix>3d</fix>
</trkpt>
<trkpt lat="-27.2741718" lon="151.2760753">
  <ele>363.33</ele>
  <time>2026-09-01T19:58:19Z</time>
  <course>337.08</course>
  <speed>25.538680467087566</speed>
  <fix>3d</fix>
</trkpt>
<trkpt lat="-27.2742131" lon="151.2760964">
  <ele>362.69</ele>
  <time>2026-09-01T19:58:19Z</time>
  <course>330.24</course>
  <speed>25.59</speed>
  <fix>3d</fix>
</trkpt>
<trkpt lat="-27.2741503" lon="151.2760664">
  <ele>363.74</ele>
  <time>2026-09-01T19:58:19Z</time>
  <course>340.85</course>
  <speed>25.504362371955118</speed>
  <fix>3d</fix>
</trkpt>
<trkpt lat="-27.2741718" lon="151.2760738">
  <ele>363.43</ele>
  <time>2026-09-01T19:58:19Z</time>
  <course>337.93</course>
  <speed>25.54</speed>
  <fix>3d</fix>
</trkpt>
<trkpt lat="-27.2741286" lon="151.2760591">
  <ele>364.16</ele>
  <time>2026-09-01T19:58:19Z</time>
  <course>344.49</course>
  <speed>25.452025459676094</speed>
  <fix>3d</fix>
</trkpt>
<trkpt lat="-27.2741718" lon="151.2760738">
  <ele>363.43</ele>
  <time>2026-09-01T19:58:19Z</time>
  <course>337.93</course>
  <speed>25.54</speed>
  <fix>3d</fix>
</trkpt>
<trkpt lat="-27.2741063" lon="151.2760534">
  <ele>364.6</ele>
  <time>2026-09-01T19:58:19Z</time>
  <course>348.1</course>
  <speed>25.414617840919817</speed>
  <fix>3d</fix>
</trkpt>
<trkpt lat="-27.2741283" lon="151.2760577">
  <ele>364.24</ele>
  <time>2026-09-01T19:58:19Z</time>
  <course>345.46</course>
  <speed>25.46</speed>
  <fix>3d</fix>
</trkpt>
<trkpt lat="-27.2740838" lon="151.2760493">
  <ele>365.06</ele>
  <time>2026-09-01T19:58:19Z</time>
  <course>351.66</course>
  <speed>25.36646013932571</speed>
  <fix>3d</fix>
</trkpt>
<trkpt lat="-27.2741283" lon="151.2760577">
  <ele>364.24</ele>
  <time>2026-09-01T19:58:19Z</time>
  <course>345.46</course>
  <speed>25.46</speed>
  <fix>3d</fix>
</trkpt>
<trkpt lat="-27.2740611" lon="151.2760469">
  <ele>365.53</ele>
  <time>2026-09-01T19:58:19Z</time>
  <course>355.15</course>
  <speed>25.324462481956058</speed>
  <fix>3d</fix>
</trkpt>
<trkpt lat="-27.2740835" lon="151.2760481">
  <ele>365.12</ele>
  <time>2026-09-01T19:58:19Z</time>
  <course>352.82</course>
  <speed>25.36</speed>
  <fix>3d</fix>
</trkpt>
<trkpt lat="-27.2740382" lon="151.276046">
  <ele>366.01</ele>
  <time>2026-09-01T19:58:19Z</time>
  <course>358.52</course>
  <speed>25.28001780062664</speed>
  <fix>3d</fix>
</trkpt>
<trkpt lat="-27.2740835" lon="151.2760481">
  <ele>365.12</ele>
  <time>2026-09-01T19:58:19Z</time>
  <course>352.82</course>
  <speed>25.36</speed>
  <fix>3d</fix>
</trkpt>
<trkpt lat="-27.2740155" lon="151.2760465">
  <ele>366.48</ele>
  <time>2026-09-01T19:58:19Z</time>
  <course>1.78</course>
  <speed>25.234621059171864</speed>
  <fix>3d</fix>
</trkpt>
<trkpt lat="-27.2740382" lon="151.2760448">
  <ele>366.04</ele>
  <time>2026-09-01T19:58:19Z</time>
  <course>359.86</course>
  <speed>25.27</speed>
  <fix>3d</fix>
</trkpt>
<trkpt lat="-27.2739929" lon="151.2760486">
  <ele>366.96</ele>
  <time>2026-09-01T19:58:19Z</time>
  <course>4.94</course>
  <speed>25.19974801461316</speed>
  <fix>3d</fix>
</trkpt>
<trkpt lat="-27.2740382" lon="151.2760448">
  <ele>366.04</ele>
  <time>2026-09-01T19:58:19Z</time>
  <course>359.86</course>
  <speed>25.27</speed>
  <fix>3d</fix>
</trkpt>
<trkpt lat="-27.2739705" lon="151.2760522">
  <ele>367.44</ele>
  <time>2026-09-01T19:58:19Z</time>
  <course>7.92</course>
  <speed>25.163219189920834</speed>
  <fix>3d</fix>
</trkpt>
<trkpt lat="-27.2739928" lon="151.2760477">
  <ele>366.98</ele>
  <time>2026-09-01T19:58:19Z</time>
  <course>6.48</course>
  <speed>25.2</speed>
  <fix>3d</fix>
</trkpt>
<trkpt lat="-27.2739484" lon="151.276057">
  <ele>367.91</ele>
  <time>2026-09-01T19:58:19Z</time>
  <course>10.77</course>
  <speed>25.126101965884004</speed>
  <fix>3d</fix>
</trkpt>
<trkpt lat="-27.2739928" lon="151.2760477">
  <ele>366.98</ele>
  <time>2026-09-01T19:58:19Z</time>
  <course>6.48</course>
  <speed>25.2</speed>
  <fix>3d</fix>
</trkpt>
<trkpt lat="-27.2739265" lon="151.2760631">
  <ele>368.36</ele>
  <time>2026-09-01T19:58:19Z</time>
  <course>13.61</course>
  <speed>25.08790943861206</speed>
  <fix>3d</fix>
</trkpt>
<trkpt lat="-27.2739482" lon="151.2760562">
  <ele>367.9</ele>
  <time>2026-09-01T19:58:19Z</time>
  <course>12.63</course>
  <speed>25.12</speed>
  <fix>3d</fix>
</trkpt>
<trkpt lat="-27.2739049" lon="151.2760704">
  <ele>368.81</ele>
  <time>2026-09-01T19:58:19Z</time>
  <course>16.32</course>
  <speed>25.057888977326083</speed>
  <fix>3d</fix>
</trkpt>
<trkpt lat="-27.2739482" lon="151.2760562">
  <ele>367.9</ele>
  <time>2026-09-01T19:58:19Z</time>
  <course>12.63</course>
  <speed>25.12</speed>
  <fix>3d</fix>
</trkpt>
<trkpt lat="-27.2738838" lon="151.2760789">
  <ele>369.24</ele>
  <time>2026-09-01T19:58:19Z</time>
  <course>18.89</course>
  <speed>25.035243158395723</speed>
  <fix>3d</fix>
</trkpt>
<trkpt lat="-27.2739048" lon="151.2760697">
  <ele>368.78</ele>
  <time>2026-09-01T19:58:19Z</time>
  <course>18.36</course>
  <speed>25.06</speed>
  <fix>3d</fix>
</trkpt>
<trkpt lat="-27.273863" lon="151.2760885">
  <ele>369.65</ele>
  <time>2026-09-01T19:58:19Z</time>
  <course>21.4</course>
  <speed>25.012268989437963</speed>
  <fix>3d</fix>
</trkpt>
<trkpt lat="-27.2739048" lon="151.2760697">
  <ele>368.78</ele>
  <time>2026-09-01T19:58:19Z</time>
  <course>18.36</course>
  <speed>25.06</speed>
  <fix>3d</fix>
</trkpt>
<trkpt lat="-27.2738426" lon="151.2760991">
  <ele>370.04</ele>
  <time>2026-09-01T19:58:19Z</time>
  <course>23.83</course>
  <speed>24.986342269327857</speed>
  <fix>3d</fix>
</trkpt>
<trkpt lat="-27.2738629" lon="151.2760879">
  <ele>369.61</ele>
  <time>2026-09-01T19:58:19Z</time>
  <course>23.67</course>
  <speed>25.02</speed>
  <fix>3d</fix>
</trkpt>
<trkpt lat="-27.2738227" lon="151.2761106">
  <ele>370.41</ele>
  <time>2026-09-01T19:58:19Z</time>
  <course>26.1</course>
  <speed>24.956974976947826</speed>
  <fix>3d</fix>
</trkpt>
<trkpt lat="-27.2738629" lon="151.2760879">
  <ele>369.61</ele>
  <time>2026-09-01T19:58:19Z</time>
  <course>23.67</course>
  <speed>25.02</speed>
  <fix>3d</fix>
</trkpt>
<trkpt lat="-27.2738032" lon="151.2761231">
  <ele>370.76</ele>
  <time>2026-09-01T19:58:19Z</time>
  <course>28.27</course>
  <speed>24.927336400024775</speed>
  <fix>3d</fix>
</trkpt>
<trkpt lat="-27.2738226" lon="151.2761102">
  <ele>370.36</ele>
  <time>2026-09-01T19:58:19Z</time>
  <course>28.56</course>
  <speed>24.97</speed>
  <fix>3d</fix>
</trkpt>
<trkpt lat="-27.2737842" lon="151.2761364">
  <ele>371.08</ele>
  <time>2026-09-01T19:58:19Z</time>
  <course>30.19</course>
  <speed>24.88836073348343</speed>
  <fix>3d</fix>
</trkpt>
<trkpt lat="-27.2738226" lon="151.2761102">
  <ele>370.36</ele>
  <time>2026-09-01T19:58:19Z</time>
  <course>28.56</course>
  <speed>24.97</speed>
  <fix>3d</fix>
</trkpt>
<trkpt lat="-27.2737656" lon="151.2761504">
  <ele>371.37</ele>
  <time>2026-09-01T19:58:19Z</time>
  <course>32.09</course>
  <speed>24.84813473884911</speed>
  <fix>3d</fix>
</trkpt>
<trkpt lat="-27.2737841" lon="151.276136">
  <ele>371.02</ele>
  <time>2026-09-01T19:58:19Z</time>
  <course>32.94</course>
  <speed>24.91</speed>
  <fix>3d</fix>
</trkpt>
<trkpt lat="-27.2737475" lon="151.2761651">
  <ele>371.64</ele>
  <time>2026-09-01T19:58:19Z</time>
  <course>33.97</course>
  <speed>24.810008061264305</speed>
  <fix>3d</fix>
</trkpt>
<trkpt lat="-27.2737841" lon="151.276136">
  <ele>371.02</ele>
  <time>2026-09-01T19:58:19Z</time>
  <course>32.94</course>
  <speed>24.91</speed>
  <fix>3d</fix>
</trkpt>
<trkpt lat="-27.2737299" lon="151.2761805">
  <ele>371.87</ele>
  <time>2026-09-01T19:58:19Z</time>
  <course>35.66</course>
  <speed>24.775415233654513</speed>
  <fix>3d</fix>
</trkpt>
<trkpt lat="-27.2737474" lon="151.2761648">
  <ele>371.58</ele>
  <time>2026-09-01T19:58:19Z</time>
  <course>36.82</course>
  <speed>24.83</speed>
  <fix>3d</fix>
</trkpt>
<trkpt lat="-27.2737126" lon="151.2761964">
  <ele>372.07</ele>
  <time>2026-09-01T19:58:19Z</time>
  <course>37.37</course>
  <speed>24.731409179422027</speed>
  <fix>3d</fix>
</trkpt>
<trkpt lat="-27.2737474" lon="151.2761648">
  <ele>371.58</ele>
  <time>2026-09-01T19:58:19Z</time>
  <course>36.82</course>
  <speed>24.83</speed>
  <fix>3d</fix>
</trkpt>
<trkpt lat="-27.2736959" lon="151.2762128">
  <ele>372.24</ele>
  <time>2026-09-01T19:58:19Z</time>
  <course>39.04</course>
  <speed>24.69743711400031</speed>
  <fix>3d</fix>
</trkpt>
<trkpt lat="-27.2737127" lon="151.2761961">
  <ele>372.01</ele>
  <time>2026-09-01T19:58:19Z</time>
  <course>40.36</course>
  <speed>24.75</speed>
  <fix>3d</fix>
</trkpt>
<trkpt lat="-27.2736796" lon="151.2762298">
  <ele>372.38</ele>
  <time>2026-09-01T19:58:19Z</time>
  <course>40.66</course>
  <speed>24.663464882290974</speed>
  <fix>3d</fix>
</trkpt>
<trkpt lat="-27.2737127" lon="151.2761961">
  <ele>372.01</ele>
  <time>2026-09-01T19:58:19Z</time>
  <course>40.36</course>
  <speed>24.75</speed>
  <fix>3d</fix>
</trkpt>
<trkpt lat="-27.2736637" lon="151.2762473">
  <ele>372.49</ele>
  <time>2026-09-01T19:58:19Z</time>
  <course>42.27</course>
  <speed>24.62882254595213</speed>
  <fix>3d</fix>
</trkpt>
<trkpt lat="-27.2736797" lon="151.2762295">
  <ele>372.32</ele>
  <time>2026-09-01T19:58:19Z</time>
  <course>43.7</course>
  <speed>24.68</speed>
  <fix>3d</fix>
</trkpt>
<trkpt lat="-27.2736484" lon="151.2762653">
  <ele>372.56</ele>
  <time>2026-09-01T19:58:19Z</time>
  <course>43.85</course>
  <speed>24.606381286162335</speed>
  <fix>3d</fix>
</trkpt>
<trkpt lat="-27.2736797" lon="151.2762295">
  <ele>372.32</ele>
  <time>2026-09-01T19:58:19Z</time>
  <course>43.7</course>
  <speed>24.68</speed>
  <fix>3d</fix>
</trkpt>
<trkpt lat="-27.2736333" lon="151.2762838">
  <ele>372.6</ele>
  <time>2026-09-01T19:58:19Z</time>
  <course>45.36</course>
  <speed>24.5731662591535</speed>
  <fix>3d</fix>
</trkpt>
<trkpt lat="-27.2736486" lon="151.2762649">
  <ele>372.51</ele>
  <time>2026-09-01T19:58:19Z</time>
  <course>46.89</course>
  <speed>24.61</speed>
  <fix>3d</fix>
</trkpt>
<trkpt lat="-27.273619" lon="151.2763025">
  <ele>372.62</ele>
  <time>2026-09-01T19:58:19Z</time>
  <course>46.93</course>
  <speed>24.542379672721225</speed>
  <fix>3d</fix>
</trkpt>
<trkpt lat="-27.2736486" lon="151.2762649">
  <ele>372.51</ele>
  <time>2026-09-01T19:58:19Z</time>
  <course>46.89</course>
  <speed>24.61</speed>
  <fix>3d</fix>
</trkpt>
<trkpt lat="-27.273605" lon="151.2763216">
  <ele>372.6</ele>
  <time>2026-09-01T19:58:19Z</time>
  <course>48.56</course>
  <speed>24.514634404779528</speed>
  <fix>3d</fix>
</trkpt>
<trkpt lat="-27.2736193" lon="151.2763021">
  <ele>372.56</ele>
  <time>2026-09-01T19:58:19Z</time>
  <course>49.97</course>
  <speed>24.56</speed>
  <fix>3d</fix>
</trkpt>
<trkpt lat="-27.2735916" lon="151.2763411">
  <ele>372.56</ele>
  <time>2026-09-01T19:58:19Z</time>
  <course>50.13</course>
  <speed>24.49206402082111</speed>
  <fix>3d</fix>
</trkpt>
<trkpt lat="-27.2736193" lon="151.2763021">
  <ele>372.56</ele>
  <time>2026-09-01T19:58:19Z</time>
  <course>49.97</course>
  <speed>24.56</speed>
  <fix>3d</fix>
</trkpt>
<trkpt lat="-27.2735787" lon="151.276361">
  <ele>372.5</ele>
  <time>2026-09-01T19:58:19Z</time>
  <course>51.67</course>
  <speed>24.47711175772174</speed>
  <fix>3d</fix>
</trkpt>
<trkpt lat="-27.2735918" lon="151.276341">
  <ele>372.51</ele>
  <time>2026-09-01T19:58:19Z</time>
  <course>53.02</course>
  <speed>24.52</speed>
  <fix>3d</fix>
</trkpt>
<trkpt lat="-27.2735662" lon="151.2763813">
  <ele>372.41</ele>
  <time>2026-09-01T19:58:19Z</time>
  <course>53.22</course>
  <speed>24.46534283430339</speed>
  <fix>3d</fix>
</trkpt>
<trkpt lat="-27.2735918" lon="151.276341">
  <ele>372.51</ele>
  <time>2026-09-01T19:58:19Z</time>
  <course>53.02</course>
  <speed>24.52</speed>
  <fix>3d</fix>
</trkpt>
<trkpt lat="-27.2735542" lon="151.2764019">
  <ele>372.29</ele>
  <time>2026-09-01T19:58:19Z</time>
  <course>54.8</course>
  <speed>24.47078666491946</speed>
  <fix>3d</fix>
</trkpt>
<trkpt lat="-27.2735663" lon="151.2763814">
  <ele>372.36</ele>
  <time>2026-09-01T19:58:19Z</time>
  <course>56.06</course>
  <speed>24.5</speed>
  <fix>3d</fix>
</trkpt>
<trkpt lat="-27.2735427" lon="151.2764229">
  <ele>372.17</ele>
  <time>2026-09-01T19:58:19Z</time>
  <course>56.35</course>
  <speed>24.476278311867596</speed>
  <fix>3d</fix>
</trkpt>
<trkpt lat="-27.2735663" lon="151.2763814">
  <ele>372.36</ele>
  <time>2026-09-01T19:58:19Z</time>
  <course>56.06</course>
  <speed>24.5</speed>
  <fix>3d</fix>
</trkpt>
<trkpt lat="-27.2735317" lon="151.2764443">
  <ele>372.02</ele>
  <time>2026-09-01T19:58:19Z</time>
  <course>57.87</course>
  <speed>24.49347872393793</speed>
  <fix>3d</fix>
</trkpt>
<trkpt lat="-27.2735427" lon="151.2764232">
  <ele>372.12</ele>
  <time>2026-09-01T19:58:19Z</time>
  <course>59.07</course>
  <speed>24.51</speed>
  <fix>3d</fix>
</trkpt>
<trkpt lat="-27.2735211" lon="151.276466">
  <ele>371.86</ele>
  <time>2026-09-01T19:58:19Z</time>
  <course>59.4</course>
  <speed>24.510050999538944</speed>
  <fix>3d</fix>
</trkpt>
<trkpt lat="-27.2735427" lon="151.2764232">
  <ele>372.12</ele>
  <time>2026-09-01T19:58:19Z</time>
  <course>59.07</course>
  <speed>24.51</speed>
  <fix>3d</fix>
</trkpt>
<trkpt lat="-27.2735111" lon="151.276488">
  <ele>371.69</ele>
  <time>2026-09-01T19:58:19Z</time>
  <course>60.92</course>
  <speed>24.538624655835953</speed>
  <fix>3d</fix>
</trkpt>
<trkpt lat="-27.273521" lon="151.2764664">
  <ele>371.82</ele>
  <time>2026-09-01T19:58:19Z</time>
  <course>62.05</course>
  <speed>24.55</speed>
  <fix>3d</fix>
</trkpt>
<trkpt lat="-27.2735015" lon="151.2765103">
  <ele>371.51</ele>
  <time>2026-09-01T19:58:19Z</time>
  <course>62.44</course>
  <speed>24.569647942125666</speed>
  <fix>3d</fix>
</trkpt>
<trkpt lat="-27.273521" lon="151.2764664">
  <ele>371.82</ele>
  <time>2026-09-01T19:58:19Z</time>
  <course>62.05</course>
  <speed>24.55</speed>
  <fix>3d</fix>
</trkpt>
<trkpt lat="-27.2734924" lon="151.2765329">
  <ele>371.32</ele>
  <time>2026-09-01T19:58:19Z</time>
  <course>63.94</course>
  <speed>24.611422145012263</speed>
  <fix>3d</fix>
</trkpt>
<trkpt lat="-27.2735013" lon="151.2765108">
  <ele>371.47</ele>
  <time>2026-09-01T19:58:19Z</time>
  <course>64.95</course>
  <speed>24.61</speed>
  <fix>3d</fix>
</trkpt>
<trkpt lat="-27.2734838" lon="151.2765558">
  <ele>371.13</ele>
  <time>2026-09-01T19:58:19Z</time>
  <course>65.44</course>
  <speed>24.65532396866851</speed>
  <fix>3d</fix>
</trkpt>
<trkpt lat="-27.2735013" lon="151.2765108">
  <ele>371.47</ele>
  <time>2026-09-01T19:58:19Z</time>
  <course>64.95</course>
  <speed>24.61</speed>
  <fix>3d</fix>
</trkpt>
<trkpt lat="-27.2734757" lon="151.276579">
  <ele>370.94</ele>
  <time>2026-09-01T19:58:19Z</time>
  <course>66.89</course>
  <speed>24.70521402457384</speed>
  <fix>3d</fix>
</trkpt>
<trkpt lat="-27.2734836" lon="151.2765565">
  <ele>371.1</ele>
  <time>2026-09-01T19:58:19Z</time>
  <course>67.82</course>
  <speed>24.7</speed>
  <fix>3d</fix>
</trkpt>
<trkpt lat="-27.2734681" lon="151.2766025">
  <ele>370.75</ele>
  <time>2026-09-01T19:58:19Z</time>
  <course>68.28</course>
  <speed>24.757936101379695</speed>
  <fix>3d</fix>
</trkpt>
<trkpt lat="-27.2734836" lon="151.2765565">
  <ele>371.1</ele>
  <time>2026-09-01T19:58:19Z</time>
  <course>67.82</course>
  <speed>24.7</speed>
  <fix>3d</fix>
</trkpt>
<trkpt lat="-27.2734609" lon="151.2766262">
  <ele>370.55</ele>
  <time>2026-09-01T19:58:19Z</time>
  <course>69.59</course>
  <speed>24.82108982297111</speed>
  <fix>3d</fix>
</trkpt>
<trkpt lat="-27.2734678" lon="151.2766032">
  <ele>370.72</ele>
  <time>2026-09-01T19:58:19Z</time>
  <course>70.57</course>
  <speed>24.8</speed>
  <fix>3d</fix>
</trkpt>
<trkpt lat="-27.2734542" lon="151.2766502">
  <ele>370.36</ele>
  <time>2026-09-01T19:58:19Z</time>
  <course>70.81</course>
  <speed>24.873940178427702</speed>
  <fix>3d</fix>
</trkpt>
<trkpt lat="-27.2734678" lon="151.2766032">
  <ele>370.72</ele>
  <time>2026-09-01T19:58:19Z</time>
  <course>70.57</course>
  <speed>24.8</speed>
  <fix>3d</fix>
</trkpt>
<trkpt lat="-27.2734479" lon="151.2766743">
  <ele>370.18</ele>
  <time>2026-09-01T19:58:19Z</time>
  <course>72.08</course>
  <speed>24.933864521970918</speed>
  <fix>3d</fix>
</trkpt>
<trkpt lat="-27.2734539" lon="151.276651">
  <ele>370.34</ele>
  <time>2026-09-01T19:58:19Z</time>
  <course>73.08</course>
  <speed>24.91</speed>
  <fix>3d</fix>
</trkpt>
<trkpt lat="-27.273442" lon="151.2766987">
  <ele>370.0</ele>
  <time>2026-09-01T19:58:19Z</time>
  <course>73.31</course>
  <speed>24.98976790608508</speed>
  <fix>3d</fix>
</trkpt>
<trkpt lat="-27.2734539" lon="151.276651">
  <ele>370.34</ele>
  <time>2026-09-01T19:58:19Z</time>
  <course>73.08</course>
  <speed>24.91</speed>
  <fix>3d</fix>
</trkpt>
<trkpt lat="-27.2734365" lon="151.2767232">
  <ele>369.83</ele>
  <time>2026-09-01T19:58:19Z</time>
  <course>74.43</course>
  <speed>25.049888223303512</speed>
  <fix>3d</fix>
</trkpt>
<trkpt lat="-27.2734417" lon="151.2766995">
  <ele>369.99</ele>
  <time>2026-09-01T19:58:19Z</time>
  <course>75.35</course>
  <speed>25.03</speed>
  <fix>3d</fix>
</trkpt>
<trkpt lat="-27.2734315" lon="151.2767477">
  <ele>369.66</ele>
  <time>2026-09-01T19:58:19Z</time>
  <course>75.48</course>
  <speed>25.10320497466409</speed>
  <fix>3d</fix>
</trkpt>
<trkpt lat="-27.2734417" lon="151.2766995">
  <ele>369.99</ele>
  <time>2026-09-01T19:58:19Z</time>
  <course>75.35</course>
  <speed>25.03</speed>
  <fix>3d</fix>
</trkpt>
<trkpt lat="-27.2734267" lon="151.2767725">
  <ele>369.51</ele>
  <time>2026-09-01T19:58:19Z</time>
  <course>76.45</course>
  <speed>25.168013429748484</speed>
  <fix>3d</fix>
</trkpt>
<trkpt lat="-27.2734312" lon="151.2767488">
  <ele>369.66</ele>
  <time>2026-09-01T19:58:19Z</time>
  <course>77.41</course>
  <speed>25.15</speed>
  <fix>3d</fix>
</trkpt>
<trkpt lat="-27.2734223" lon="151.2767975">
  <ele>369.37</ele>
  <time>2026-09-01T19:58:19Z</time>
  <course>77.28</course>
  <speed>25.21756927223558</speed>
  <fix>3d</fix>
</trkpt>
<trkpt lat="-27.2734312" lon="151.2767488">
  <ele>369.66</ele>
  <time>2026-09-01T19:58:19Z</time>
  <course>77.41</course>
  <speed>25.15</speed>
  <fix>3d</fix>
</trkpt>
<trkpt lat="-27.2734182" lon="151.2768226">
  <ele>369.24</ele>
  <time>2026-09-01T19:58:19Z</time>
  <course>78.17</course>
  <speed>25.277662075437277</speed>
  <fix>3d</fix>
</trkpt>
<trkpt lat="-27.2734219" lon="151.2767988">
  <ele>369.38</ele>
  <time>2026-09-01T19:58:19Z</time>
  <course>79.18</course>
  <speed>25.26</speed>
  <fix>3d</fix>
</trkpt>
<trkpt lat="-27.2734143" lon="151.276848">
  <ele>369.12</ele>
  <time>2026-09-01T19:58:19Z</time>
  <course>79.06</course>
  <speed>25.324101168649598</speed>
  <fix>3d</fix>
</trkpt>
<trkpt lat="-27.2734219" lon="151.2767988">
  <ele>369.38</ele>
  <time>2026-09-01T19:58:19Z</time>
  <course>79.18</course>
  <speed>25.26</speed>
  <fix>3d</fix>
</trkpt>
<trkpt lat="-27.2734108" lon="151.2768734">
  <ele>369.01</ele>
  <time>2026-09-01T19:58:19Z</time>
  <course>79.81</course>
  <speed>25.38064222985699</speed>
  <fix>3d</fix>
</trkpt>
<trkpt lat="-27.273414" lon="151.2768492">
  <ele>369.13</ele>
  <time>2026-09-01T19:58:19Z</time>
  <course>80.66</course>
  <speed>25.36</speed>
  <fix>3d</fix>
</trkpt>
<trkpt lat="-27.2734074" lon="151.276899">
  <ele>368.91</ele>
  <time>2026-09-01T19:58:19Z</time>
  <course>80.51</course>
  <speed>25.423321970191072</speed>
  <fix>3d</fix>
</trkpt>
<trkpt lat="-27.273414" lon="151.2768492">
  <ele>369.13</ele>
  <time>2026-09-01T19:58:19Z</time>
  <course>80.66</course>
  <speed>25.36</speed>
  <fix>3d</fix>
</trkpt>
<trkpt lat="-27.2734042" lon="151.2769245">
  <ele>368.81</ele>
  <time>2026-09-01T19:58:19Z</time>
  <course>81.12</course>
  <speed>25.472575448901903</speed>
  <fix>3d</fix>
</trkpt>
<trkpt lat="-27.2734071" lon="151.2769">
  <ele>368.93</ele>
  <time>2026-09-01T19:58:19Z</time>
  <course>81.9</course>
  <speed>25.46</speed>
  <fix>3d</fix>
</trkpt>
<trkpt lat="-27.2734013" lon="151.2769501">
  <ele>368.73</ele>
  <time>2026-09-01T19:58:19Z</time>
  <course>81.65</course>
  <speed>25.506503092348822</speed>
  <fix>3d</fix>
</trkpt>
<trkpt lat="-27.2734071" lon="151.2769">
  <ele>368.93</ele>
  <time>2026-09-01T19:58:20Z</time>
  <course>81.9</course>
  <speed>25.46</speed>
  <fix>3d</fix>
</trkpt>
<trkpt lat="-27.2733985" lon="151.2769757">
  <ele>368.66</ele>
  <time>2026-09-01T19:58:20Z</time>
  <course>82.14</course>
  <speed>25.554349923251817</speed>
  <fix>3d</fix>
</trkpt>
<trkpt lat="-27.2734011" lon="151.2769511">
  <ele>368.77</ele>
  <time>2026-09-01T19:58:20Z</time>
  <course>82.88</course>
  <speed>25.54</speed>
  <fix>3d</fix>
</trkpt>
<trkpt lat="-27.2733959" lon="151.2770014">
  <ele>368.6</ele>
  <time>2026-09-01T19:58:20Z</time>
  <course>82.61</course>
  <speed>25.586984972833356</speed>
  <fix>3d</fix>
</trkpt>
<trkpt lat="-27.2734011" lon="151.2769511">
  <ele>368.77</ele>
  <time>2026-09-01T19:58:20Z</time>
  <course>82.88</course>
  <speed>25.54</speed>
  <fix>3d</fix>
</trkpt>
<trkpt lat="-27.2733934" lon="151.2770272">
  <ele>368.55</ele>
  <time>2026-09-01T19:58:20Z</time>
  <course>83.11</course>
  <speed>25.61060912981181</speed>
  <fix>3d</fix>
</trkpt>
<trkpt lat="-27.2733957" lon="151.2770024">
  <ele>368.64</ele>
  <time>2026-09-01T19:58:20Z</time>
  <course>83.67</course>
  <speed>25.61</speed>
  <fix>3d</fix>
</trkpt>
<trkpt lat="-27.2733911" lon="151.2770529">
  <ele>368.51</ele>
  <time>2026-09-01T19:58:20Z</time>
  <course>83.57</course>
  <speed>25.637133225070233</speed>
  <fix>3d</fix>
</trkpt>
<trkpt lat="-27.2733957" lon="151.2770024">
  <ele>368.64</ele>
  <time>2026-09-01T19:58:20Z</time>
  <course>83.67</course>
  <speed>25.61</speed>
  <fix>3d</fix>
</trkpt>
<trkpt lat="-27.2733888" lon="151.2770788">
  <ele>368.48</ele>
  <time>2026-09-01T19:58:20Z</time>
  <course>83.95</course>
  <speed>25.6662443688203</speed>
  <fix>3d</fix>
</trkpt>
<trkpt lat="-27.2733909" lon="151.277054">
  <ele>368.56</ele>
  <time>2026-09-01T19:58:20Z</time>
  <course>84.29</course>
  <speed>25.66</speed>
  <fix>3d</fix>
</trkpt>
<trkpt lat="-27.2733867" lon="151.2771046">
  <ele>368.46</ele>
  <time>2026-09-01T19:58:20Z</time>
  <course>84.22</course>
  <speed>25.686805951694346</speed>
  <fix>3d</fix>
</trkpt>
<trkpt lat="-27.2733909" lon="151.277054">
  <ele>368.56</ele>
  <time>2026-09-01T19:58:20Z</time>
  <course>84.29</course>
  <speed>25.66</speed>
  <fix>3d</fix>
</trkpt>
<trkpt lat="-27.2733846" lon="151.2771305">
  <ele>368.45</ele>
  <time>2026-09-01T19:58:20Z</time>
  <course>84.43</course>
  <speed>25.708648350312</speed>
  <fix>3d</fix>
</trkpt>
<trkpt lat="-27.2733865" lon="151.2771056">
  <ele>368.52</ele>
  <time>2026-09-01T19:58:20Z</time>
  <course>84.78</course>
  <speed>25.71</speed>
  <fix>3d</fix>
</trkpt>
<trkpt lat="-27.2733826" lon="151.2771564">
  <ele>368.45</ele>
  <time>2026-09-01T19:58:20Z</time>
  <course>84.7</course>
  <speed>25.723394021784916</speed>
  <fix>3d</fix>
</trkpt>
<trkpt lat="-27.2733865" lon="151.2771056">
  <ele>368.52</ele>
  <time>2026-09-01T19:58:20Z</time>
  <course>84.78</course>
  <speed>25.71</speed>
  <fix>3d</fix>
</trkpt>
<trkpt lat="-27.2733807" lon="151.2771823">
  <ele>368.45</ele>
  <time>2026-09-01T19:58:20Z</time>
  <course>84.89</course>
  <speed>25.738286656263664</speed>
  <fix>3d</fix>
</trkpt>
<trkpt lat="-27.2733824" lon="151.2771574">
  <ele>368.51</ele>
  <time>2026-09-01T19:58:20Z</time>
  <course>85.13</course>
  <speed>25.74</speed>
  <fix>3d</fix>
</trkpt>
<trkpt lat="-27.2733788" lon="151.2772082">
  <ele>368.46</ele>
  <time>2026-09-01T19:58:20Z</time>
  <course>85.02</course>
  <speed>25.75413170735911</speed>
  <fix>3d</fix>
</trkpt>
<trkpt lat="-27.2733824" lon="151.2771574">
  <ele>368.51</ele>
  <time>2026-09-01T19:58:20Z</time>
  <course>85.13</course>
  <speed>25.74</speed>
  <fix>3d</fix>
</trkpt>
<trkpt lat="-27.2733769" lon="151.2772342">
  <ele>368.48</ele>
  <time>2026-09-01T19:58:20Z</time>
  <course>85.13</course>
  <speed>25.761694431849783</speed>
  <fix>3d</fix>
</trkpt>
<trkpt lat="-27.2733786" lon="151.2772093">
  <ele>368.53</ele>
  <time>2026-09-01T19:58:20Z</time>
  <course>85.36</course>
  <speed>25.76</speed>
  <fix>3d</fix>
</trkpt>
<trkpt lat="-27.2733751" lon="151.2772602">
  <ele>368.51</ele>
  <time>2026-09-01T19:58:20Z</time>
  <course>85.25</course>
  <speed>25.760110636408378</speed>
  <fix>3d</fix>
</trkpt>
<trkpt lat="-27.2733786" lon="151.2772093">
  <ele>368.53</ele>
  <time>2026-09-01T19:58:20Z</time>
  <course>85.36</course>
  <speed>25.76</speed>
  <fix>3d</fix>
</trkpt>
<trkpt lat="-27.2733732" lon="151.2772859">
  <ele>368.54</ele>
  <time>2026-09-01T19:58:20Z</time>
  <course>85.41</course>
  <speed>25.768511792495897</speed>
  <fix>3d</fix>
</trkpt>
<trkpt lat="-27.273375" lon="151.2772612">
  <ele>368.58</ele>
  <time>2026-09-01T19:58:20Z</time>
  <course>85.49</course>
  <speed>25.78</speed>
  <fix>3d</fix>
</trkpt>
<trkpt lat="-27.2733714" lon="151.2773119">
  <ele>368.58</ele>
  <time>2026-09-01T19:58:20Z</time>
  <course>85.51</course>
  <speed>25.777703543954416</speed>
  <fix>3d</fix>
</trkpt>
<trkpt lat="-27.273375" lon="151.2772612">
  <ele>368.58</ele>
  <time>2026-09-01T19:58:20Z</time>
  <course>85.49</course>
  <speed>25.78</speed>
  <fix>3d</fix>
</trkpt>
<trkpt lat="-27.2733697" lon="151.2773379">
  <ele>368.63</ele>
  <time>2026-09-01T19:58:20Z</time>
  <course>85.56</course>
  <speed>25.776929607693777</speed>
  <fix>3d</fix>
</trkpt>
<trkpt lat="-27.2733714" lon="151.2773131">
  <ele>368.65</ele>
  <time>2026-09-01T19:58:20Z</time>
  <course>85.56</course>
  <speed>25.79</speed>
  <fix>3d</fix>
</trkpt>
<trkpt lat="-27.2733679" lon="151.2773639">
  <ele>368.68</ele>
  <time>2026-09-01T19:58:20Z</time>
  <course>85.55</course>
  <speed>25.776929607693777</speed>
  <fix>3d</fix>
</trkpt>
<trkpt lat="-27.2733714" lon="151.2773131">
  <ele>368.65</ele>
  <time>2026-09-01T19:58:20Z</time>
  <course>85.56</course>
  <speed>25.79</speed>
  <fix>3d</fix>
</trkpt>
<trkpt lat="-27.2733661" lon="151.2773901">
  <ele>368.73</ele>
  <time>2026-09-01T19:58:20Z</time>
  <course>85.56</course>
  <speed>25.776929607693777</speed>
  <fix>3d</fix>
</trkpt>
<trkpt lat="-27.2733678" lon="151.2773652">
  <ele>368.74</ele>
  <time>2026-09-01T19:58:20Z</time>
  <course>85.58</course>
  <speed>25.79</speed>
  <fix>3d</fix>
</trkpt>
<trkpt lat="-27.2733643" lon="151.277416">
  <ele>368.79</ele>
  <time>2026-09-01T19:58:20Z</time>
  <course>85.61</course>
  <speed>25.777703543954416</speed>
  <fix>3d</fix>
</trkpt>
<trkpt lat="-27.2733678" lon="151.2773652">
  <ele>368.74</ele>
  <time>2026-09-01T19:58:20Z</time>
  <course>85.58</course>
  <speed>25.79</speed>
  <fix>3d</fix>
</trkpt>
<trkpt lat="-27.2733625" lon="151.277442">
  <ele>368.85</ele>
  <time>2026-09-01T19:58:20Z</time>
  <course>85.61</course>
  <speed>25.768511792495897</speed>
  <fix>3d</fix>
</trkpt>
<trkpt lat="-27.2733642" lon="151.2774173">
  <ele>368.86</ele>
  <time>2026-09-01T19:58:20Z</time>
  <course>85.55</course>
  <speed>25.78</speed>
  <fix>3d</fix>
</trkpt>
<trkpt lat="-27.2733606" lon="151.2774689">
  <ele>368.91</ele>
  <time>2026-09-01T19:58:20Z</time>
  <course>85.58</course>
  <speed>25.768511792495897</speed>
  <fix>3d</fix>
</trkpt>
<trkpt lat="-27.2733642" lon="151.2774173">
  <ele>368.86</ele>
  <time>2026-09-01T19:58:20Z</time>
  <course>85.55</course>
  <speed>25.78</speed>
  <fix>3d</fix>
</trkpt>
<trkpt lat="-27.2733588" lon="151.2774946">
  <ele>368.98</ele>
  <time>2026-09-01T19:58:20Z</time>
  <course>85.56</course>
  <speed>25.760110636408378</speed>
  <fix>3d</fix>
</trkpt>
<trkpt lat="-27.2733606" lon="151.2774692">
  <ele>368.98</ele>
  <time>2026-09-01T19:58:20Z</time>
  <course>85.5</course>
  <speed>25.77</speed>
  <fix>3d</fix>
</trkpt>
<trkpt lat="-27.273357" lon="151.2775206">
  <ele>369.06</ele>
  <time>2026-09-01T19:58:20Z</time>
  <course>85.61</course>
  <speed>25.75172615573566</speed>
  <fix>3d</fix>
</trkpt>
<trkpt lat="-27.2733606" lon="151.2774692">
  <ele>368.98</ele>
  <time>2026-09-01T19:58:20Z</time>
  <course>85.5</course>
  <speed>25.77</speed>
  <fix>3d</fix>
</trkpt>
<trkpt lat="-27.2733551" lon="151.2775465">
  <ele>369.13</ele>
  <time>2026-09-01T19:58:20Z</time>
  <course>85.56</course>
  <speed>25.742556205629615</speed>
  <fix>3d</fix>
</trkpt>
<trkpt lat="-27.2733569" lon="151.2775211">
  <ele>369.12</ele>
  <time>2026-09-01T19:58:20Z</time>
  <course>85.43</course>
  <speed>25.75</speed>
  <fix>3d</fix>
</trkpt>
<trkpt lat="-27.2733533" lon="151.2775725">
  <ele>369.21</ele>
  <time>2026-09-01T19:58:20Z</time>
  <course>85.47</course>
  <speed>25.7341970925848</speed>
  <fix>3d</fix>
</trkpt>
<trkpt lat="-27.2733569" lon="151.2775211">
  <ele>369.12</ele>
  <time>2026-09-01T19:58:20Z</time>
  <course>85.43</course>
  <speed>25.75</speed>
  <fix>3d</fix>
</trkpt>
<trkpt lat="-27.2733514" lon="151.2775987">
  <ele>369.28</ele>
  <time>2026-09-01T19:58:20Z</time>
  <course>85.45</course>
  <speed>25.725854699115438</speed>
  <fix>3d</fix>
</trkpt>
<trkpt lat="-27.2733532" lon="151.277573">
  <ele>369.26</ele>
  <time>2026-09-01T19:58:20Z</time>
  <course>85.34</course>
  <speed>25.73</speed>
  <fix>3d</fix>
</trkpt>
<trkpt lat="-27.2733495" lon="151.2776239">
  <ele>369.35</ele>
  <time>2026-09-01T19:58:20Z</time>
  <course>85.48</course>
  <speed>25.718355312888885</speed>
  <fix>3d</fix>
</trkpt>
<trkpt lat="-27.2733532" lon="151.277573">
  <ele>369.26</ele>
  <time>2026-09-01T19:58:20Z</time>
  <course>85.34</course>
  <speed>25.73</speed>
  <fix>3d</fix>
</trkpt>
<trkpt lat="-27.2733476" lon="151.2776499">
  <ele>369.43</ele>
  <time>2026-09-01T19:58:20Z</time>
  <course>85.44</course>
  <speed>25.709220135974565</speed>
  <fix>3d</fix>
</trkpt>
<trkpt lat="-27.2733494" lon="151.2776247">
  <ele>369.41</ele>
  <time>2026-09-01T19:58:20Z</time>
  <course>85.24</course>
  <speed>25.71</speed>
  <fix>3d</fix>
</trkpt>
<trkpt lat="-27.2733457" lon="151.2776757">
  <ele>369.5</ele>
  <time>2026-09-01T19:58:20Z</time>
  <course>85.35</course>
  <speed>25.690963391823203</speed>
  <fix>3d</fix>
</trkpt>
<trkpt lat="-27.2733494" lon="151.2776247">
  <ele>369.41</ele>
  <time>2026-09-01T19:58:20Z</time>
  <course>85.24</course>
  <speed>25.71</speed>
  <fix>3d</fix>
</trkpt>
<trkpt lat="-27.2733437" lon="151.2777016">
  <ele>369.57</ele>
  <time>2026-09-01T19:58:20Z</time>
  <course>85.29</course>
  <speed>25.682688722172376</speed>
  <fix>3d</fix>
</trkpt>
<trkpt lat="-27.2733455" lon="151.2776765">
  <ele>369.56</ele>
  <time>2026-09-01T19:58:20Z</time>
  <course>85.14</course>
  <speed>25.69</speed>
  <fix>3d</fix>
</trkpt>
<trkpt lat="-27.2733417" lon="151.2777275">
  <ele>369.64</ele>
  <time>2026-09-01T19:58:20Z</time>
  <course>85.24</course>
  <speed>25.67443086029367</speed>
  <fix>3d</fix>
</trkpt>
<trkpt lat="-27.2733455" lon="151.2776765">
  <ele>369.56</ele>
  <time>2026-09-01T19:58:20Z</time>
  <course>85.14</course>
  <speed>25.69</speed>
  <fix>3d</fix>
</trkpt>
<trkpt lat="-27.2733397" lon="151.2777533">
  <ele>369.7</ele>
  <time>2026-09-01T19:58:20Z</time>
  <course>85.23</course>
  <speed>25.656227314240883</speed>
  <fix>3d</fix>
</trkpt>
<trkpt lat="-27.2733416" lon="151.2777282">
  <ele>369.7</ele>
  <time>2026-09-01T19:58:20Z</time>
  <course>85.03</course>
  <speed>25.66</speed>
  <fix>3d</fix>
</trkpt>
<trkpt lat="-27.2733377" lon="151.2777791">
  <ele>369.77</ele>
  <time>2026-09-01T19:58:20Z</time>
  <course>85.21</course>
  <speed>25.648003820960415</speed>
  <fix>3d</fix>
</trkpt>
<trkpt lat="-27.2733416" lon="151.2777282">
  <ele>369.7</ele>
  <time>2026-09-01T19:58:20Z</time>
  <course>85.03</course>
  <speed>25.66</speed>
  <fix>3d</fix>
</trkpt>
<trkpt lat="-27.2733357" lon="151.277805">
  <ele>369.84</ele>
  <time>2026-09-01T19:58:20Z</time>
  <course>85.13</course>
  <speed>25.629836129011828</speed>
  <fix>3d</fix>
</trkpt>
<trkpt lat="-27.2733376" lon="151.2777798">
  <ele>369.83</ele>
  <time>2026-09-01T19:58:20Z</time>
  <course>84.93</course>
  <speed>25.64</speed>
  <fix>3d</fix>
</trkpt>
<trkpt lat="-27.2733337" lon="151.2778306">
  <ele>369.91</ele>
  <time>2026-09-01T19:58:20Z</time>
  <course>85.06</course>
  <speed>25.62164709771798</speed>
  <fix>3d</fix>
</trkpt>
<trkpt lat="-27.2733376" lon="151.2777798">
  <ele>369.83</ele>
  <time>2026-09-01T19:58:20Z</time>
  <course>84.93</course>
  <speed>25.64</speed>
  <fix>3d</fix>
</trkpt>
<trkpt lat="-27.2733316" lon="151.2778564">
  <ele>369.97</ele>
  <time>2026-09-01T19:58:20Z</time>
  <course>84.99</course>
  <speed>25.613474969242265</speed>
  <fix>3d</fix>
</trkpt>
<trkpt lat="-27.2733335" lon="151.2778314">
  <ele>369.96</ele>
  <time>2026-09-01T19:58:20Z</time>
  <course>84.83</course>
  <speed>25.61</speed>
  <fix>3d</fix>
</trkpt>
<trkpt lat="-27.2733295" lon="151.2778822">
  <ele>370.03</ele>
  <time>2026-09-01T19:58:20Z</time>
  <course>85.01</course>
  <speed>25.595360907789523</speed>
  <fix>3d</fix>
</trkpt>
<trkpt lat="-27.2733335" lon="151.2778314">
  <ele>369.96</ele>
  <time>2026-09-01T19:58:20Z</time>
  <course>84.83</course>
  <speed>25.61</speed>
  <fix>3d</fix>
</trkpt>
<trkpt lat="-27.2733274" lon="151.277908">
  <ele>370.09</ele>
  <time>2026-09-01T19:58:20Z</time>
  <course>84.99</course>
  <speed>25.587223374176418</speed>
  <fix>3d</fix>
</trkpt>
<trkpt lat="-27.2733293" lon="151.277883">
  <ele>370.09</ele>
  <time>2026-09-01T19:58:20Z</time>
  <course>84.73</course>
  <speed>25.59</speed>
  <fix>3d</fix>
</trkpt>
<trkpt lat="-27.2733252" lon="151.277934">
  <ele>370.16</ele>
  <time>2026-09-01T19:58:20Z</time>
  <course>84.92</course>
  <speed>25.578182108977174</speed>
  <fix>3d</fix>
</trkpt>
<trkpt lat="-27.2733293" lon="151.277883">
  <ele>370.09</ele>
  <time>2026-09-01T19:58:20Z</time>
  <course>84.73</course>
  <speed>25.59</speed>
  <fix>3d</fix>
</trkpt>
<trkpt lat="-27.2733231" lon="151.2779598">
  <ele>370.22</ele>
  <time>2026-09-01T19:58:20Z</time>
  <course>84.94</course>
  <speed>25.570070394897233</speed>
  <fix>3d</fix>
</trkpt>
<trkpt lat="-27.273325" lon="151.2779346">
  <ele>370.22</ele>
  <time>2026-09-01T19:58:20Z</time>
  <course>84.65</course>
  <speed>25.56</speed>
  <fix>3d</fix>
</trkpt>
<trkpt lat="-27.273321" lon="151.2779855">
  <ele>370.28</ele>
  <time>2026-09-01T19:58:20Z</time>
  <course>84.93</course>
  <speed>25.55108608259148</speed>
  <fix>3d</fix>
</trkpt>
<trkpt lat="-27.273325" lon="151.2779346">
  <ele>370.22</ele>
  <time>2026-09-01T19:58:20Z</time>
  <course>84.65</course>
  <speed>25.56</speed>
  <fix>3d</fix>
</trkpt>
<trkpt lat="-27.2733187" lon="151.2780121">
  <ele>370.34</ele>
  <time>2026-09-01T19:58:20Z</time>
  <course>84.85</course>
  <speed>25.541129575647197</speed>
  <fix>3d</fix>
</trkpt>
<trkpt lat="-27.2733207" lon="151.2779861">
  <ele>370.33</ele>
  <time>2026-09-01T19:58:20Z</time>
  <course>84.58</course>
  <speed>25.54</speed>
  <fix>3d</fix>
</trkpt>
<trkpt lat="-27.2733166" lon="151.2780376">
  <ele>370.39</ele>
  <time>2026-09-01T19:58:20Z</time>
  <course>84.79</course>
  <speed>25.533045255119884</speed>
  <fix>3d</fix>
</trkpt>
<trkpt lat="-27.2733207" lon="151.2779861">
  <ele>370.33</ele>
  <time>2026-09-01T19:58:20Z</time>
  <course>84.58</course>
  <speed>25.54</speed>
  <fix>3d</fix>
</trkpt>
<trkpt lat="-27.2733144" lon="151.2780633">
  <ele>370.44</ele>
  <time>2026-09-01T19:58:20Z</time>
  <course>84.74</course>
  <speed>25.524031813175597</speed>
  <fix>3d</fix>
</trkpt>
<trkpt lat="-27.2733164" lon="151.2780374">
  <ele>370.44</ele>
  <time>2026-09-01T19:58:20Z</time>
  <course>84.53</course>
  <speed>25.52</speed>
  <fix>3d</fix>
</trkpt>
<trkpt lat="-27.2733122" lon="151.278089">
  <ele>370.49</ele>
  <time>2026-09-01T19:58:20Z</time>
  <course>84.67</course>
  <speed>25.515023025660785</speed>
  <fix>3d</fix>
</trkpt>
<trkpt lat="-27.2733164" lon="151.2780374">
  <ele>370.44</ele>
  <time>2026-09-01T19:58:20Z</time>
  <course>84.53</course>
  <speed>25.52</speed>
  <fix>3d</fix>
</trkpt>
<trkpt lat="-27.27331" lon="151.2781147">
  <ele>370.55</ele>
  <time>2026-09-01T19:58:20Z</time>
  <course>84.63</course>
  <speed>25.50697355626496</speed>
  <fix>3d</fix>
</trkpt>
<trkpt lat="-27.273312" lon="151.2780887">
  <ele>370.55</ele>
  <time>2026-09-01T19:58:20Z</time>
  <course>84.46</course>
  <speed>25.5</speed>
  <fix>3d</fix>
</trkpt>
<trkpt lat="-27.2733077" lon="151.2781406">
  <ele>370.59</ele>
  <time>2026-09-01T19:58:20Z</time>
  <course>84.6</course>
  <speed>25.48898781827164</speed>
  <fix>3d</fix>
</trkpt>
<trkpt lat="-27.273312" lon="151.2780887">
  <ele>370.55</ele>
  <time>2026-09-01T19:58:20Z</time>
  <course>84.46</course>
  <speed>25.5</speed>
  <fix>3d</fix>
</trkpt>
<trkpt lat="-27.2733055" lon="151.2781663">
  <ele>370.64</ele>
  <time>2026-09-01T19:58:20Z</time>
  <course>84.54</course>
  <speed>25.480001962323318</speed>
  <fix>3d</fix>
</trkpt>
<trkpt lat="-27.2733076" lon="151.27814">
  <ele>370.64</ele>
  <time>2026-09-01T19:58:20Z</time>
  <course>84.4</course>
  <speed>25.47</speed>
  <fix>3d</fix>
</trkpt>
<trkpt lat="-27.2733033" lon="151.2781919">
  <ele>370.68</ele>
  <time>2026-09-01T19:58:20Z</time>
  <course>84.58</course>
  <speed>25.47102078833905</speed>
  <fix>3d</fix>
</trkpt>
<trkpt lat="-27.2733076" lon="151.27814">
  <ele>370.64</ele>
  <time>2026-09-01T19:58:20Z</time>
  <course>84.4</course>
  <speed>25.47</speed>
  <fix>3d</fix>
</trkpt>
<trkpt lat="-27.273301" lon="151.2782175">
  <ele>370.73</ele>
  <time>2026-09-01T19:58:20Z</time>
  <course>84.57</course>
  <speed>25.462044301273217</speed>
  <fix>3d</fix>
</trkpt>
<trkpt lat="-27.2733031" lon="151.2781911">
  <ele>370.73</ele>
  <time>2026-09-01T19:58:20Z</time>
  <course>84.33</course>
  <speed>25.46</speed>
  <fix>3d</fix>
</trkpt>
<trkpt lat="-27.2732987" lon="151.2782431">
  <ele>370.77</ele>
  <time>2026-09-01T19:58:20Z</time>
  <course>84.45</course>
  <speed>25.453072506084606</speed>
  <fix>3d</fix>
</trkpt>
<trkpt lat="-27.2733031" lon="151.2781911">
  <ele>370.73</ele>
  <time>2026-09-01T19:58:20Z</time>
  <course>84.33</course>
  <speed>25.46</speed>
  <fix>3d</fix>
</trkpt>
<trkpt lat="-27.2732965" lon="151.2782687">
  <ele>370.81</ele>
  <time>2026-09-01T19:58:20Z</time>
  <course>84.44</course>
  <speed>25.445093829656045</speed>
  <fix>3d</fix>
</trkpt>
<trkpt lat="-27.2732985" lon="151.2782424">
  <ele>370.82</ele>
  <time>2026-09-01T19:58:20Z</time>
  <course>84.27</course>
  <speed>25.44</speed>
  <fix>3d</fix>
</trkpt>
<trkpt lat="-27.2732942" lon="151.2782943">
  <ele>370.85</ele>
  <time>2026-09-01T19:58:20Z</time>
  <course>84.44</course>
  <speed>25.4361357128004</speed>
  <fix>3d</fix>
</trkpt>
<trkpt lat="-27.2732985" lon="151.2782424">
  <ele>370.82</ele>
  <time>2026-09-01T19:58:20Z</time>
  <course>84.27</course>
  <speed>25.44</speed>
  <fix>3d</fix>
</trkpt>
<trkpt lat="-27.2732919" lon="151.2783199">
  <ele>370.89</ele>
  <time>2026-09-01T19:58:20Z</time>
  <course>84.4</course>
  <speed>25.437132306924852</speed>
  <fix>3d</fix>
</trkpt>
<trkpt lat="-27.273294" lon="151.2782935">
  <ele>370.9</ele>
  <time>2026-09-01T19:58:20Z</time>
  <course>84.2</course>
  <speed>25.42</speed>
  <fix>3d</fix>
</trkpt>
<trkpt lat="-27.2732896" lon="151.2783446">
  <ele>370.93</ele>
  <time>2026-09-01T19:58:20Z</time>
  <course>84.42</course>
  <speed>25.428183183231944</speed>
  <fix>3d</fix>
</trkpt>
<trkpt lat="-27.273294" lon="151.2782935">
  <ele>370.9</ele>
  <time>2026-09-01T19:58:20Z</time>
  <course>84.2</course>
  <speed>25.42</speed>
  <fix>3d</fix>
</trkpt>
<trkpt lat="-27.2732873" lon="151.2783701">
  <ele>370.96</ele>
  <time>2026-09-01T19:58:20Z</time>
  <course>84.43</course>
  <speed>25.419238776957897</speed>
  <fix>3d</fix>
</trkpt>
<trkpt lat="-27.2732893" lon="151.2783446">
  <ele>370.97</ele>
  <time>2026-09-01T19:58:20Z</time>
  <course>84.15</course>
  <speed>25.41</speed>
  <fix>3d</fix>
</trkpt>
<trkpt lat="-27.2732849" lon="151.2783957">
  <ele>371.0</ele>
  <time>2026-09-01T19:58:20Z</time>
  <course>84.4</course>
  <speed>25.410299093084287</speed>
  <fix>3d</fix>
</trkpt>
<trkpt lat="-27.2732893" lon="151.2783446">
  <ele>370.97</ele>
  <time>2026-09-01T19:58:20Z</time>
  <course>84.15</course>
  <speed>25.41</speed>
  <fix>3d</fix>
</trkpt>
<trkpt lat="-27.2732826" lon="151.2784213">
  <ele>371.03</ele>
  <time>2026-09-01T19:58:20Z</time>
  <course>84.38</course>
  <speed>25.40136413659707</speed>
  <fix>3d</fix>
</trkpt>
<trkpt lat="-27.2732846" lon="151.2783958">
  <ele>371.04</ele>
  <time>2026-09-01T19:58:20Z</time>
  <course>84.1</course>
  <speed>25.4</speed>
  <fix>3d</fix>
</trkpt>
<trkpt lat="-27.2732803" lon="151.2784468">
  <ele>371.07</ele>
  <time>2026-09-01T19:58:20Z</time>
  <course>84.35</course>
  <speed>25.40136413659707</speed>
  <fix>3d</fix>
</trkpt>
<trkpt lat="-27.2732846" lon="151.2783958">
  <ele>371.04</ele>
  <time>2026-09-01T19:58:20Z</time>
  <course>84.1</course>
  <speed>25.4</speed>
  <fix>3d</fix>
</trkpt>
<trkpt lat="-27.2732779" lon="151.2784726">
  <ele>371.1</ele>
  <time>2026-09-01T19:58:20Z</time>
  <course>84.31</course>
  <speed>25.402381778093172</speed>
  <fix>3d</fix>
</trkpt>
<trkpt lat="-27.2732799" lon="151.2784469">
  <ele>371.1</ele>
  <time>2026-09-01T19:58:20Z</time>
  <course>84.06</course>
  <speed>25.39</speed>
  <fix>3d</fix>
</trkpt>
<trkpt lat="-27.2732755" lon="151.278498">
  <ele>371.13</ele>
  <time>2026-09-01T19:58:20Z</time>
  <course>84.27</course>
  <speed>25.393455849883843</speed>
  <fix>3d</fix>
</trkpt>
<trkpt lat="-27.2732799" lon="151.2784469">
  <ele>371.1</ele>
  <time>2026-09-01T19:58:20Z</time>
  <course>84.06</course>
  <speed>25.39</speed>
  <fix>3d</fix>
</trkpt>
<trkpt lat="-27.2732732" lon="151.2785235">
  <ele>371.16</ele>
  <time>2026-09-01T19:58:20Z</time>
  <course>84.24</course>
  <speed>25.37458768137918</speed>
  <fix>3d</fix>
</trkpt>
<trkpt lat="-27.2732752" lon="151.278498">
  <ele>371.17</ele>
  <time>2026-09-01T19:58:20Z</time>
  <course>84.02</course>
  <speed>25.38</speed>
  <fix>3d</fix>
</trkpt>
<trkpt lat="-27.2732707" lon="151.2785497">
  <ele>371.2</ele>
  <time>2026-09-01T19:58:20Z</time>
  <course>84.21</course>
  <speed>25.366706526468903</speed>
  <fix>3d</fix>
</trkpt>
<trkpt lat="-27.2732752" lon="151.278498">
  <ele>371.17</ele>
  <time>2026-09-01T19:58:20Z</time>
  <course>84.02</course>
  <speed>25.38</speed>
  <fix>3d</fix>
</trkpt>
<trkpt lat="-27.2732683" lon="151.2785749">
  <ele>371.23</ele>
  <time>2026-09-01T19:58:20Z</time>
  <course>84.24</course>
  <speed>25.35676043977227</speed>
  <fix>3d</fix>
</trkpt>
<trkpt lat="-27.2732704" lon="151.278549">
  <ele>371.23</ele>
  <time>2026-09-01T19:58:20Z</time>
  <course>83.97</course>
  <speed>25.37</speed>
  <fix>3d</fix>
</trkpt>
<trkpt lat="-27.2732659" lon="151.2786002">
  <ele>371.26</ele>
  <time>2026-09-01T19:58:20Z</time>
  <course>84.21</course>
  <speed>25.337908358820783</speed>
  <fix>3d</fix>
</trkpt>
<trkpt lat="-27.2732704" lon="151.278549">
  <ele>371.23</ele>
  <time>2026-09-01T19:58:20Z</time>
  <course>83.97</course>
  <speed>25.37</speed>
  <fix>3d</fix>
</trkpt>
<trkpt lat="-27.2732635" lon="151.2786256">
  <ele>371.29</ele>
  <time>2026-09-01T19:58:20Z</time>
  <course>84.18</course>
  <speed>25.32900708673753</speed>
  <fix>3d</fix>
</trkpt>
<trkpt lat="-27.2732656" lon="151.2785999">
  <ele>371.28</ele>
  <time>2026-09-01T19:58:20Z</time>
  <course>83.92</course>
  <speed>25.36</speed>
  <fix>3d</fix>
</trkpt>
<trkpt lat="-27.2732611" lon="151.2786509">
  <ele>371.31</ele>
  <time>2026-09-01T19:58:20Z</time>
  <course>84.17</course>
  <speed>25.319061988944217</speed>
  <fix>3d</fix>
</trkpt>
<trkpt lat="-27.2732656" lon="151.2785999">
  <ele>371.28</ele>
  <time>2026-09-01T19:58:20Z</time>
  <course>83.92</course>
  <speed>25.36</speed>
  <fix>3d</fix>
</trkpt>
<trkpt lat="-27.2732587" lon="151.2786765">
  <ele>371.34</ele>
  <time>2026-09-01T19:58:20Z</time>
  <course>84.16</course>
  <speed>25.30911693441713</speed>
  <fix>3d</fix>
</trkpt>
<trkpt lat="-27.2732608" lon="151.2786509">
  <ele>371.33</ele>
  <time>2026-09-01T19:58:20Z</time>
  <course>83.89</course>
  <speed>25.35</speed>
  <fix>3d</fix>
</trkpt>
<trkpt lat="-27.2732563" lon="151.2787018">
  <ele>371.36</ele>
  <time>2026-09-01T19:58:20Z</time>
  <course>84.14</course>
  <speed>25.300221342905285</speed>
  <fix>3d</fix>
</trkpt>
<trkpt lat="-27.2732608" lon="151.2786509">
  <ele>371.33</ele>
  <time>2026-09-01T19:58:20Z</time>
  <course>83.89</course>
  <speed>25.35</speed>
  <fix>3d</fix>
</trkpt>
<trkpt lat="-27.2732539" lon="151.2787272">
  <ele>371.38</ele>
  <time>2026-09-01T19:58:20Z</time>
  <course>84.1</course>
  <speed>25.300221342905285</speed>
  <fix>3d</fix>
</trkpt>
<trkpt lat="-27.2732559" lon="151.2787018">
  <ele>371.38</ele>
  <time>2026-09-01T19:58:20Z</time>
  <course>83.87</course>
  <speed>25.35</speed>
  <fix>3d</fix>
</trkpt>
<trkpt lat="-27.2732514" lon="151.2787525">
  <ele>371.39</ele>
  <time>2026-09-01T19:58:20Z</time>
  <course>84.12</course>
  <speed>25.291330530440664</speed>
  <fix>3d</fix>
</trkpt>
<trkpt lat="-27.2732559" lon="151.2787018">
  <ele>371.38</ele>
  <time>2026-09-01T19:58:20Z</time>
  <course>83.87</course>
  <speed>25.35</speed>
  <fix>3d</fix>
</trkpt>
<trkpt lat="-27.273249" lon="151.2787779">
  <ele>371.41</ele>
  <time>2026-09-01T19:58:20Z</time>
  <course>84.1</course>
  <speed>25.29238818300874</speed>
  <fix>3d</fix>
</trkpt>
<trkpt lat="-27.2732511" lon="151.2787527">
  <ele>371.41</ele>
  <time>2026-09-01T19:58:20Z</time>
  <course>83.84</course>
  <speed>25.35</speed>
  <fix>3d</fix>
</trkpt>
<trkpt lat="-27.2732466" lon="151.2788032">
  <ele>371.43</ele>
  <time>2026-09-01T19:58:20Z</time>
  <course>84.05</course>
  <speed>25.28350648149896</speed>
  <fix>3d</fix>
</trkpt>
<trkpt lat="-27.2732511" lon="151.2787527">
  <ele>371.41</ele>
  <time>2026-09-01T19:58:20Z</time>
  <course>83.84</course>
  <speed>25.35</speed>
  <fix>3d</fix>
</trkpt>
<trkpt lat="-27.2732441" lon="151.2788286">
  <ele>371.44</ele>
  <time>2026-09-01T19:58:20Z</time>
  <course>84.08</course>
  <speed>25.284572371309743</speed>
  <fix>3d</fix>
</trkpt>
<trkpt lat="-27.2732462" lon="151.2788037">
  <ele>371.44</ele>
  <time>2026-09-01T19:58:20Z</time>
  <course>83.81</course>
  <speed>25.34</speed>
  <fix>3d</fix>
</trkpt>
<trkpt lat="-27.2732417" lon="151.278854">
  <ele>371.45</ele>
  <time>2026-09-01T19:58:20Z</time>
  <course>84.03</course>
  <speed>25.284572371309743</speed>
  <fix>3d</fix>
</trkpt>
<trkpt lat="-27.2732462" lon="151.2788037">
  <ele>371.44</ele>
  <time>2026-09-01T19:58:20Z</time>
  <course>83.81</course>
  <speed>25.34</speed>
  <fix>3d</fix>
</trkpt>
<trkpt lat="-27.2732392" lon="151.2788794">
  <ele>371.46</ele>
  <time>2026-09-01T19:58:20Z</time>
  <course>83.96</course>
  <speed>25.275699792488435</speed>
  <fix>3d</fix>
</trkpt>
<trkpt lat="-27.2732413" lon="151.2788546">
  <ele>371.47</ele>
  <time>2026-09-01T19:58:20Z</time>
  <course>83.77</course>
  <speed>25.34</speed>
  <fix>3d</fix>
</trkpt>
<trkpt lat="-27.2732367" lon="151.2789048">
  <ele>371.47</ele>
  <time>2026-09-01T19:58:20Z</time>
  <course>83.98</course>
  <speed>25.286715880082173</speed>
  <fix>3d</fix>
</trkpt>
<trkpt lat="-27.2732413" lon="151.2788546">
  <ele>371.47</ele>
  <time>2026-09-01T19:58:20Z</time>
  <course>83.77</course>
  <speed>25.34</speed>
  <fix>3d</fix>
</trkpt>
<trkpt lat="-27.2732343" lon="151.2789302">
  <ele>371.48</ele>
  <time>2026-09-01T19:58:20Z</time>
  <course>83.98</course>
  <speed>25.28779349804961</speed>
  <fix>3d</fix>
</trkpt>
<trkpt lat="-27.2732363" lon="151.2789055">
  <ele>371.5</ele>
  <time>2026-09-01T19:58:20Z</time>
  <course>83.74</course>
  <speed>25.35</speed>
  <fix>3d</fix>
</trkpt>
<trkpt lat="-27.2732318" lon="151.2789556">
  <ele>371.49</ele>
  <time>2026-09-01T19:58:20Z</time>
  <course>83.95</course>
  <speed>25.288875024405492</speed>
  <fix>3d</fix>
</trkpt>
<trkpt lat="-27.2732363" lon="151.2789055">
  <ele>371.5</ele>
  <time>2026-09-01T19:58:20Z</time>
  <course>83.74</course>
  <speed>25.35</speed>
  <fix>3d</fix>
</trkpt>
<trkpt lat="-27.2732293" lon="151.278981">
  <ele>371.5</ele>
  <time>2026-09-01T19:58:20Z</time>
  <course>83.95</course>
  <speed>25.289960458648405</speed>
  <fix>3d</fix>
</trkpt>
<trkpt lat="-27.2732313" lon="151.2789565">
  <ele>371.52</ele>
  <time>2026-09-01T19:58:20Z</time>
  <course>83.69</course>
  <speed>25.36</speed>
  <fix>3d</fix>
</trkpt>
<trkpt lat="-27.2732267" lon="151.2790064">
  <ele>371.51</ele>
  <time>2026-09-01T19:58:20Z</time>
  <course>83.97</course>
  <speed>25.291049800275196</speed>
  <fix>3d</fix>
</trkpt>
<trkpt lat="-27.2732313" lon="151.2789565">
  <ele>371.52</ele>
  <time>2026-09-01T19:58:20Z</time>
  <course>83.69</course>
  <speed>25.36</speed>
  <fix>3d</fix>
</trkpt>
<trkpt lat="-27.2732243" lon="151.2790312">
  <ele>371.52</ele>
  <time>2026-09-01T19:58:20Z</time>
  <course>83.93</course>
  <speed>25.291049800275196</speed>
  <fix>3d</fix>
</trkpt>
<trkpt lat="-27.2732263" lon="151.2790076">
  <ele>371.53</ele>
  <time>2026-09-01T19:58:20Z</time>
  <course>83.66</course>
  <speed>25.36</speed>
  <fix>3d</fix>
</trkpt>
<trkpt lat="-27.2732217" lon="151.2790575">
  <ele>371.53</ele>
  <time>2026-09-01T19:58:20Z</time>
  <course>83.85</course>
  <speed>25.291049800275196</speed>
  <fix>3d</fix>
</trkpt>
<trkpt lat="-27.2732263" lon="151.2790076">
  <ele>371.53</ele>
  <time>2026-09-01T19:58:20Z</time>
  <course>83.66</course>
  <speed>25.36</speed>
  <fix>3d</fix>
</trkpt>
<trkpt lat="-27.2732192" lon="151.2790829">
  <ele>371.54</ele>
  <time>2026-09-01T19:58:20Z</time>
  <course>83.86</course>
  <speed>25.292143048780982</speed>
  <fix>3d</fix>
</trkpt>
<trkpt lat="-27.2732213" lon="151.2790585">
  <ele>371.56</ele>
  <time>2026-09-01T19:58:20Z</time>
  <course>83.64</course>
  <speed>25.36</speed>
  <fix>3d</fix>
</trkpt>
<trkpt lat="-27.2732167" lon="151.2791082">
  <ele>371.55</ele>
  <time>2026-09-01T19:58:20Z</time>
  <course>83.88</course>
  <speed>25.292143048780982</speed>
  <fix>3d</fix>
</trkpt>
<trkpt lat="-27.2732213" lon="151.2790585">
  <ele>371.56</ele>
  <time>2026-09-01T19:58:20Z</time>
  <course>83.64</course>
  <speed>25.36</speed>
  <fix>3d</fix>
</trkpt>
<trkpt lat="-27.2732141" lon="151.2791336">
  <ele>371.56</ele>
  <time>2026-09-01T19:58:20Z</time>
  <course>83.95</course>
  <speed>25.293240203659156</speed>
  <fix>3d</fix>
</trkpt>
<trkpt lat="-27.2732162" lon="151.2791095">
  <ele>371.59</ele>
  <time>2026-09-01T19:58:20Z</time>
  <course>83.61</course>
  <speed>25.37</speed>
  <fix>3d</fix>
</trkpt>
<trkpt lat="-27.2732116" lon="151.2791591">
  <ele>371.57</ele>
  <time>2026-09-01T19:58:20Z</time>
  <course>83.93</course>
  <speed>25.303179642092413</speed>
  <fix>3d</fix>
</trkpt>
<trkpt lat="-27.2732162" lon="151.2791095">
  <ele>371.59</ele>
  <time>2026-09-01T19:58:20Z</time>
  <course>83.61</course>
  <speed>25.37</speed>
  <fix>3d</fix>
</trkpt>
<trkpt lat="-27.2732091" lon="151.2791846">
  <ele>371.58</ele>
  <time>2026-09-01T19:58:20Z</time>
  <course>83.89</course>
  <speed>25.293240203659156</speed>
  <fix>3d</fix>
</trkpt>
<trkpt lat="-27.2732111" lon="151.2791604">
  <ele>371.61</ele>
  <time>2026-09-01T19:58:20Z</time>
  <course>83.6</course>
  <speed>25.37</speed>
  <fix>3d</fix>
</trkpt>
<trkpt lat="-27.2732065" lon="151.2792104">
  <ele>371.59</ele>
  <time>2026-09-01T19:58:20Z</time>
  <course>83.89</course>
  <speed>25.304280270341614</speed>
  <fix>3d</fix>
</trkpt>
<trkpt lat="-27.2732111" lon="151.2791604">
  <ele>371.61</ele>
  <time>2026-09-01T19:58:20Z</time>
  <course>83.6</course>
  <speed>25.37</speed>
  <fix>3d</fix>
</trkpt>
<trkpt lat="-27.2732039" lon="151.2792358">
  <ele>371.6</ele>
  <time>2026-09-01T19:58:20Z</time>
  <course>83.92</course>
  <speed>25.304280270341614</speed>
  <fix>3d</fix>
</trkpt>
<trkpt lat="-27.273206" lon="151.2792114">
  <ele>371.63</ele>
  <time>2026-09-01T19:58:20Z</time>
  <course>83.6</course>
  <speed>25.37</speed>
  <fix>3d</fix>
</trkpt>
<trkpt lat="-27.2732014" lon="151.2792614">
  <ele>371.61</ele>
  <time>2026-09-01T19:58:20Z</time>
  <course>83.91</course>
  <speed>25.314219324324423</speed>
  <fix>3d</fix>
</trkpt>
<trkpt lat="-27.273206" lon="151.2792114">
  <ele>371.63</ele>
  <time>2026-09-01T19:58:20Z</time>
  <course>83.6</course>
  <speed>25.37</speed>
  <fix>3d</fix>
</trkpt>
<trkpt lat="-27.2731988" lon="151.2792869">
  <ele>371.62</ele>
  <time>2026-09-01T19:58:20Z</time>
  <course>83.9</course>
  <speed>25.314219324324423</speed>
  <fix>3d</fix>
</trkpt>
<trkpt lat="-27.273201" lon="151.2792623">
  <ele>371.66</ele>
  <time>2026-09-01T19:58:20Z</time>
  <course>83.6</course>
  <speed>25.37</speed>
  <fix>3d</fix>
</trkpt>
<trkpt lat="-27.2731963" lon="151.2793125">
  <ele>371.63</ele>
  <time>2026-09-01T19:58:20Z</time>
  <course>83.85</course>
  <speed>25.314219324324423</speed>
  <fix>3d</fix>
</trkpt>
<trkpt lat="-27.273201" lon="151.2792623">
  <ele>371.66</ele>
  <time>2026-09-01T19:58:20Z</time>
  <course>83.6</course>
  <speed>25.37</speed>
  <fix>3d</fix>
</trkpt>
<trkpt lat="-27.2731937" lon="151.2793381">
  <ele>371.64</ele>
  <time>2026-09-01T19:58:20Z</time>
  <course>83.84</course>
  <speed>25.314219324324423</speed>
  <fix>3d</fix>
</trkpt>
<trkpt lat="-27.2731959" lon="151.2793133">
  <ele>371.68</ele>
  <time>2026-09-01T19:58:20Z</time>
  <course>83.59</course>
  <speed>25.37</speed>
  <fix>3d</fix>
</trkpt>
<trkpt lat="-27.2731912" lon="151.2793636">
  <ele>371.65</ele>
  <time>2026-09-01T19:58:20Z</time>
  <course>83.81</course>
  <speed>25.325262091437477</speed>
  <fix>3d</fix>
</trkpt>
<trkpt lat="-27.2731959" lon="151.2793133">
  <ele>371.68</ele>
  <time>2026-09-01T19:58:20Z</time>
  <course>83.59</course>
  <speed>25.37</speed>
  <fix>3d</fix>
</trkpt>
<trkpt lat="-27.2731886" lon="151.2793892">
  <ele>371.67</ele>
  <time>2026-09-01T19:58:20Z</time>
  <course>83.81</course>
  <speed>25.325262091437477</speed>
  <fix>3d</fix>
</trkpt>
<trkpt lat="-27.2731908" lon="151.2793642">
  <ele>371.71</ele>
  <time>2026-09-01T19:58:20Z</time>
  <course>83.58</course>
  <speed>25.37</speed>
  <fix>3d</fix>
</trkpt>
<trkpt lat="-27.2731861" lon="151.2794148">
  <ele>371.68</ele>
  <time>2026-09-01T19:58:20Z</time>
  <course>83.88</course>
  <speed>25.325262091437477</speed>
  <fix>3d</fix>
</trkpt>
<trkpt lat="-27.2731908" lon="151.2793642">
  <ele>371.71</ele>
  <time>2026-09-01T19:58:20Z</time>
  <course>83.58</course>
  <speed>25.37</speed>
  <fix>3d</fix>
</trkpt>
<trkpt lat="-27.2731835" lon="151.2794403">
  <ele>371.69</ele>
  <time>2026-09-01T19:58:20Z</time>
  <course>83.89</course>
  <speed>25.335200808361478</speed>
  <fix>3d</fix>
</trkpt>
<trkpt lat="-27.2731857" lon="151.2794151">
  <ele>371.73</ele>
  <time>2026-09-01T19:58:20Z</time>
  <course>83.57</course>
  <speed>25.37</speed>
  <fix>3d</fix>
</trkpt>
<trkpt lat="-27.2731809" lon="151.2794659">
  <ele>371.7</ele>
  <time>2026-09-01T19:58:20Z</time>
  <course>83.88</course>
  <speed>25.335200808361478</speed>
  <fix>3d</fix>
</trkpt>
<trkpt lat="-27.2731857" lon="151.2794151">
  <ele>371.73</ele>
  <time>2026-09-01T19:58:20Z</time>
  <course>83.57</course>
  <speed>25.37</speed>
  <fix>3d</fix>
</trkpt>
<trkpt lat="-27.2731784" lon="151.2794914">
  <ele>371.71</ele>
  <time>2026-09-01T19:58:20Z</time>
  <course>83.84</course>
  <speed>25.335200808361478</speed>
  <fix>3d</fix>
</trkpt>
<trkpt lat="-27.2731806" lon="151.2794662">
  <ele>371.76</ele>
  <time>2026-09-01T19:58:20Z</time>
  <course>83.57</course>
  <speed>25.37</speed>
  <fix>3d</fix>
</trkpt>
<trkpt lat="-27.2731758" lon="151.2795169">
  <ele>371.72</ele>
  <time>2026-09-01T19:58:20Z</time>
  <course>83.84</course>
  <speed>25.336307939397958</speed>
  <fix>3d</fix>
</trkpt>
<trkpt lat="-27.2731806" lon="151.2794662">
  <ele>371.76</ele>
  <time>2026-09-01T19:58:20Z</time>
  <course>83.57</course>
  <speed>25.37</speed>
  <fix>3d</fix>
</trkpt>
<trkpt lat="-27.2731733" lon="151.2795425">
  <ele>371.73</ele>
  <time>2026-09-01T19:58:20Z</time>
  <course>83.88</course>
  <speed>25.346246270404617</speed>
  <fix>3d</fix>
</trkpt>
<trkpt lat="-27.2731755" lon="151.2795172">
  <ele>371.78</ele>
  <time>2026-09-01T19:58:20Z</time>
  <course>83.57</course>
  <speed>25.36</speed>
  <fix>3d</fix>
</trkpt>
<trkpt lat="-27.2731707" lon="151.279568">
  <ele>371.73</ele>
  <time>2026-09-01T19:58:20Z</time>
  <course>83.95</course>
  <speed>25.34513957349614</speed>
  <fix>3d</fix>
</trkpt>
<trkpt lat="-27.2731755" lon="151.2795172">
  <ele>371.78</ele>
  <time>2026-09-01T19:58:20Z</time>
  <course>83.57</course>
  <speed>25.36</speed>
  <fix>3d</fix>
</trkpt>
<trkpt lat="-27.2731682" lon="151.2795936">
  <ele>371.74</ele>
  <time>2026-09-01T19:58:20Z</time>
  <course>83.95</course>
  <speed>25.353976019551645</speed>
  <fix>3d</fix>
</trkpt>
<trkpt lat="-27.2731704" lon="151.2795681">
  <ele>371.8</ele>
  <time>2026-09-01T19:58:20Z</time>
  <course>83.59</course>
  <speed>25.37</speed>
  <fix>3d</fix>
</trkpt>
<trkpt lat="-27.2731656" lon="151.2796191">
  <ele>371.75</ele>
  <time>2026-09-01T19:58:20Z</time>
  <course>83.92</course>
  <speed>25.353976019551645</speed>
  <fix>3d</fix>
</trkpt>
<trkpt lat="-27.2731704" lon="151.2795681">
  <ele>371.8</ele>
  <time>2026-09-01T19:58:20Z</time>
  <course>83.59</course>
  <speed>25.37</speed>
  <fix>3d</fix>
</trkpt>
<trkpt lat="-27.2731631" lon="151.2796447">
  <ele>371.76</ele>
  <time>2026-09-01T19:58:20Z</time>
  <course>83.94</course>
  <speed>25.363915312900726</speed>
  <fix>3d</fix>
</trkpt>
<trkpt lat="-27.2731653" lon="151.2796191">
  <ele>371.82</ele>
  <time>2026-09-01T19:58:20Z</time>
  <course>83.61</course>
  <speed>25.37</speed>
  <fix>3d</fix>
</trkpt>
<trkpt lat="-27.2731605" lon="151.2796702">
  <ele>371.77</ele>
  <time>2026-09-01T19:58:20Z</time>
  <course>83.95</course>
  <speed>25.362817272535004</speed>
  <fix>3d</fix>
</trkpt>
<trkpt lat="-27.2731653" lon="151.2796191">
  <ele>371.82</ele>
  <time>2026-09-01T19:58:20Z</time>
  <course>83.61</course>
  <speed>25.37</speed>
  <fix>3d</fix>
</trkpt>
<trkpt lat="-27.273158" lon="151.2796958">
  <ele>371.78</ele>
  <time>2026-09-01T19:58:20Z</time>
  <course>84.01</course>
  <speed>25.362817272535004</speed>
  <fix>3d</fix>
</trkpt>
<trkpt lat="-27.2731603" lon="151.27967">
  <ele>371.84</ele>
  <time>2026-09-01T19:58:20Z</time>
  <course>83.63</course>
  <speed>25.37</speed>
  <fix>3d</fix>
</trkpt>
<trkpt lat="-27.2731555" lon="151.2797213">
  <ele>371.79</ele>
  <time>2026-09-01T19:58:20Z</time>
  <course>84.06</course>
  <speed>25.362817272535004</speed>
  <fix>3d</fix>
</trkpt>
<trkpt lat="-27.2731603" lon="151.27967">
  <ele>371.84</ele>
  <time>2026-09-01T19:58:20Z</time>
  <course>83.63</course>
  <speed>25.37</speed>
  <fix>3d</fix>
</trkpt>
<trkpt lat="-27.2731529" lon="151.279747">
  <ele>371.8</ele>
  <time>2026-09-01T19:58:20Z</time>
  <course>84.06</course>
  <speed>25.36172312757948</speed>
  <fix>3d</fix>
</trkpt>
<trkpt lat="-27.2731552" lon="151.2797211">
  <ele>371.87</ele>
  <time>2026-09-01T19:58:20Z</time>
  <course>83.65</course>
  <speed>25.37</speed>
  <fix>3d</fix>
</trkpt>
<trkpt lat="-27.2731504" lon="151.2797726">
  <ele>371.81</ele>
  <time>2026-09-01T19:58:20Z</time>
  <course>83.99</course>
  <speed>25.36172312757948</speed>
  <fix>3d</fix>
</trkpt>
<trkpt lat="-27.2731552" lon="151.2797211">
  <ele>371.87</ele>
  <time>2026-09-01T19:58:20Z</time>
  <course>83.65</course>
  <speed>25.37</speed>
  <fix>3d</fix>
</trkpt>
<trkpt lat="-27.2731479" lon="151.2797981">
  <ele>371.83</ele>
  <time>2026-09-01T19:58:20Z</time>
  <course>83.95</course>
  <speed>25.36172312757948</speed>
  <fix>3d</fix>
</trkpt>
<trkpt lat="-27.2731501" lon="151.279772">
  <ele>371.89</ele>
  <time>2026-09-01T19:58:20Z</time>
  <course>83.67</course>
  <speed>25.37</speed>
  <fix>3d</fix>
</trkpt>
<trkpt lat="-27.2731453" lon="151.2798236">
  <ele>371.84</ele>
  <time>2026-09-01T19:58:20Z</time>
  <course>83.94</course>
  <speed>25.36172312757948</speed>
  <fix>3d</fix>
</trkpt>
<trkpt lat="-27.2731501" lon="151.279772">
  <ele>371.89</ele>
  <time>2026-09-01T19:58:20Z</time>
  <course>83.67</course>
  <speed>25.37</speed>
  <fix>3d</fix>
</trkpt>
<trkpt lat="-27.2731428" lon="151.2798491">
  <ele>371.85</ele>
  <time>2026-09-01T19:58:20Z</time>
  <course>83.94</course>
  <speed>25.362817272535004</speed>
  <fix>3d</fix>
</trkpt>
<trkpt lat="-27.2731452" lon="151.279823">
  <ele>371.92</ele>
  <time>2026-09-01T19:58:20Z</time>
  <course>83.67</course>
  <speed>25.36</speed>
  <fix>3d</fix>
</trkpt>
<trkpt lat="-27.2731403" lon="151.2798747">
  <ele>371.86</ele>
  <time>2026-09-01T19:58:20Z</time>
  <course>83.97</course>
  <speed>25.362817272535004</speed>
  <fix>3d</fix>
</trkpt>
<trkpt lat="-27.2731452" lon="151.279823">
  <ele>371.92</ele>
  <time>2026-09-01T19:58:20Z</time>
  <course>83.67</course>
  <speed>25.36</speed>
  <fix>3d</fix>
</trkpt>
<trkpt lat="-27.2731378" lon="151.2799002">
  <ele>371.87</ele>
  <time>2026-09-01T19:58:20Z</time>
  <course>84.0</course>
  <speed>25.362817272535004</speed>
  <fix>3d</fix>
</trkpt>
<trkpt lat="-27.2731402" lon="151.2798739">
  <ele>371.94</ele>
  <time>2026-09-01T19:58:20Z</time>
  <course>83.65</course>
  <speed>25.36</speed>
  <fix>3d</fix>
</trkpt>
<trkpt lat="-27.2731352" lon="151.2799258">
  <ele>371.87</ele>
  <time>2026-09-01T19:58:20Z</time>
  <course>84.03</course>
  <speed>25.362817272535004</speed>
  <fix>3d</fix>
</trkpt>
<trkpt lat="-27.2731402" lon="151.2798739">
  <ele>371.94</ele>
  <time>2026-09-01T19:58:20Z</time>
  <course>83.65</course>
  <speed>25.36</speed>
  <fix>3d</fix>
</trkpt>
<trkpt lat="-27.2731327" lon="151.2799513">
  <ele>371.88</ele>
  <time>2026-09-01T19:58:20Z</time>
  <course>84.01</course>
  <speed>25.362817272535004</speed>
  <fix>3d</fix>
</trkpt>
<trkpt lat="-27.2731351" lon="151.2799248">
  <ele>371.96</ele>
  <time>2026-09-01T19:58:20Z</time>
  <course>83.65</course>
  <speed>25.36</speed>
  <fix>3d</fix>
</trkpt>
<trkpt lat="-27.2731302" lon="151.2799767">
  <ele>371.88</ele>
  <time>2026-09-01T19:58:20Z</time>
  <course>84.0</course>
  <speed>25.362817272535004</speed>
  <fix>3d</fix>
</trkpt>
<trkpt lat="-27.2731351" lon="151.2799248">
  <ele>371.96</ele>
  <time>2026-09-01T19:58:20Z</time>
  <course>83.65</course>
  <speed>25.36</speed>
  <fix>3d</fix>
</trkpt>
<trkpt lat="-27.2731277" lon="151.2800021">
  <ele>371.88</ele>
  <time>2026-09-01T19:58:20Z</time>
  <course>84.02</course>
  <speed>25.362817272535004</speed>
  <fix>3d</fix>
</trkpt>
<trkpt lat="-27.2731301" lon="151.2799758">
  <ele>371.97</ele>
  <time>2026-09-01T19:58:20Z</time>
  <course>83.66</course>
  <speed>25.37</speed>
  <fix>3d</fix>
</trkpt>
<trkpt lat="-27.2731252" lon="151.2800275">
  <ele>371.89</ele>
  <time>2026-09-01T19:58:20Z</time>
  <course>84.08</course>
  <speed>25.351782974773197</speed>
  <fix>3d</fix>
</trkpt>
<trkpt lat="-27.2731301" lon="151.2799758">
  <ele>371.97</ele>
  <time>2026-09-01T19:58:20Z</time>
  <course>83.66</course>
  <speed>25.37</speed>
  <fix>3d</fix>
</trkpt>
<trkpt lat="-27.2731227" lon="151.2800528">
  <ele>371.89</ele>
  <time>2026-09-01T19:58:20Z</time>
  <course>84.09</course>
  <speed>25.34184286905749</speed>
  <fix>3d</fix>
</trkpt>
<trkpt lat="-27.273125" lon="151.2800269">
  <ele>371.98</ele>
  <time>2026-09-01T19:58:20Z</time>
  <course>83.66</course>
  <speed>25.37</speed>
  <fix>3d</fix>
</trkpt>
<trkpt lat="-27.2731202" lon="151.2800782">
  <ele>371.9</ele>
  <time>2026-09-01T19:58:20Z</time>
  <course>84.05</course>
  <speed>25.340751764697117</speed>
  <fix>3d</fix>
</trkpt>
<trkpt lat="-27.273125" lon="151.2800269">
  <ele>371.98</ele>
  <time>2026-09-01T19:58:20Z</time>
  <course>83.66</course>
  <speed>25.37</speed>
  <fix>3d</fix>
</trkpt>
<trkpt lat="-27.2731177" lon="151.2801035">
  <ele>371.9</ele>
  <time>2026-09-01T19:58:20Z</time>
  <course>84.09</course>
  <speed>25.340751764697117</speed>
  <fix>3d</fix>
</trkpt>
<trkpt lat="-27.27312" lon="151.2800779">
  <ele>371.99</ele>
  <time>2026-09-01T19:58:20Z</time>
  <course>83.67</course>
  <speed>25.37</speed>
  <fix>3d</fix>
</trkpt>
<trkpt lat="-27.2731152" lon="151.2801289">
  <ele>371.9</ele>
  <time>2026-09-01T19:58:20Z</time>
  <course>84.12</course>
  <speed>25.330811277967392</speed>
  <fix>3d</fix>
</trkpt>
<trkpt lat="-27.27312" lon="151.2800779">
  <ele>371.99</ele>
  <time>2026-09-01T19:58:20Z</time>
  <course>83.67</course>
  <speed>25.37</speed>
  <fix>3d</fix>
</trkpt>
<trkpt lat="-27.2731127" lon="151.2801542">
  <ele>371.9</ele>
  <time>2026-09-01T19:58:20Z</time>
  <course>84.13</course>
  <speed>25.330811277967392</speed>
  <fix>3d</fix>
</trkpt>
<trkpt lat="-27.273115" lon="151.2801289">
  <ele>372.01</ele>
  <time>2026-09-01T19:58:20Z</time>
  <course>83.68</course>
  <speed>25.37</speed>
  <fix>3d</fix>
</trkpt>
<trkpt lat="-27.2731102" lon="151.2801796">
  <ele>371.9</ele>
  <time>2026-09-01T19:58:20Z</time>
  <course>84.08</course>
  <speed>25.320870838105076</speed>
  <fix>3d</fix>
</trkpt>
<trkpt lat="-27.273115" lon="151.2801289">
  <ele>372.01</ele>
  <time>2026-09-01T19:58:20Z</time>
  <course>83.68</course>
  <speed>25.37</speed>
  <fix>3d</fix>
</trkpt>
<trkpt lat="-27.2731077" lon="151.280205">
  <ele>371.91</ele>
  <time>2026-09-01T19:58:20Z</time>
  <course>84.06</course>
  <speed>25.32196279911966</speed>
  <fix>3d</fix>
</trkpt>
<trkpt lat="-27.27311" lon="151.2801798">
  <ele>372.02</ele>
  <time>2026-09-01T19:58:20Z</time>
  <course>83.67</course>
  <speed>25.37</speed>
  <fix>3d</fix>
</trkpt>
<trkpt lat="-27.2731052" lon="151.2802304">
  <ele>371.91</ele>
  <time>2026-09-01T19:58:20Z</time>
  <course>84.03</course>
  <speed>25.323058662017903</speed>
  <fix>3d</fix>
</trkpt>
<trkpt lat="-27.27311" lon="151.2801798">
  <ele>372.02</ele>
  <time>2026-09-01T19:58:20Z</time>
  <course>83.67</course>
  <speed>25.37</speed>
  <fix>3d</fix>
</trkpt>
<trkpt lat="-27.2731027" lon="151.2802556">
  <ele>371.91</ele>
  <time>2026-09-01T19:58:20Z</time>
  <course>84.02</course>
  <speed>25.323058662017903</speed>
  <fix>3d</fix>
</trkpt>
<trkpt lat="-27.273105" lon="151.2802308">
  <ele>372.02</ele>
  <time>2026-09-01T19:58:20Z</time>
  <course>83.66</course>
  <speed>25.38</speed>
  <fix>3d</fix>
</trkpt>
<trkpt lat="-27.2731002" lon="151.280281">
  <ele>371.91</ele>
  <time>2026-09-01T19:58:20Z</time>
  <course>84.07</course>
  <speed>25.324158426293263</speed>
  <fix>3d</fix>
</trkpt>
<trkpt lat="-27.273105" lon="151.2802308">
  <ele>372.02</ele>
  <time>2026-09-01T19:58:20Z</time>
  <course>83.66</course>
  <speed>25.38</speed>
  <fix>3d</fix>
</trkpt>
<trkpt lat="-27.2730977" lon="151.2803064">
  <ele>371.91</ele>
  <time>2026-09-01T19:58:20Z</time>
  <course>84.08</course>
  <speed>25.332998243397878</speed>
  <fix>3d</fix>
</trkpt>
<trkpt lat="-27.2730999" lon="151.2802818">
  <ele>372.03</ele>
  <time>2026-09-01T19:58:20Z</time>
  <course>83.65</course>
  <speed>25.39</speed>
  <fix>3d</fix>
</trkpt>
<trkpt lat="-27.2730952" lon="151.2803318">
  <ele>371.91</ele>
  <time>2026-09-01T19:58:20Z</time>
  <course>84.07</course>
  <speed>25.332998243397878</speed>
  <fix>3d</fix>
</trkpt>
<trkpt lat="-27.2730999" lon="151.2802818">
  <ele>372.03</ele>
  <time>2026-09-01T19:58:20Z</time>
  <course>83.65</course>
  <speed>25.39</speed>
  <fix>3d</fix>
</trkpt>
<trkpt lat="-27.2730926" lon="151.2803572">
  <ele>371.91</ele>
  <time>2026-09-01T19:58:20Z</time>
  <course>84.11</course>
  <speed>25.332998243397878</speed>
  <fix>3d</fix>
</trkpt>
<trkpt lat="-27.2730948" lon="151.2803328">
  <ele>372.04</ele>
  <time>2026-09-01T19:58:20Z</time>
  <course>83.65</course>
  <speed>25.4</speed>
  <fix>3d</fix>
</trkpt>
<trkpt lat="-27.2730901" lon="151.2803829">
  <ele>371.91</ele>
  <time>2026-09-01T19:58:20Z</time>
  <course>84.07</course>
  <speed>25.332998243397878</speed>
  <fix>3d</fix>
</trkpt>
<trkpt lat="-27.2730948" lon="151.2803328">
  <ele>372.04</ele>
  <time>2026-09-01T19:58:20Z</time>
  <course>83.65</course>
  <speed>25.4</speed>
  <fix>3d</fix>
</trkpt>
<trkpt lat="-27.2730876" lon="151.2804083">
  <ele>371.9</ele>
  <time>2026-09-01T19:58:20Z</time>
  <course>84.01</course>
  <speed>25.332998243397878</speed>
  <fix>3d</fix>
</trkpt>
<trkpt lat="-27.2730898" lon="151.2803837">
  <ele>372.04</ele>
  <time>2026-09-01T19:58:20Z</time>
  <course>83.65</course>
  <speed>25.4</speed>
  <fix>3d</fix>
</trkpt>
<trkpt lat="-27.2730851" lon="151.2804338">
  <ele>371.91</ele>
  <time>2026-09-01T19:58:20Z</time>
  <course>83.98</course>
  <speed>25.334097576191656</speed>
  <fix>3d</fix>
</trkpt>
<trkpt lat="-27.2730898" lon="151.2803837">
  <ele>372.04</ele>
  <time>2026-09-01T19:58:20Z</time>
  <course>83.65</course>
  <speed>25.4</speed>
  <fix>3d</fix>
</trkpt>
<trkpt lat="-27.2730825" lon="151.2804595">
  <ele>371.91</ele>
  <time>2026-09-01T19:58:20Z</time>
  <course>83.99</course>
  <speed>25.334097576191656</speed>
  <fix>3d</fix>
</trkpt>
<trkpt lat="-27.2730848" lon="151.2804348">
  <ele>372.04</ele>
  <time>2026-09-01T19:58:20Z</time>
  <course>83.64</course>
  <speed>25.4</speed>
  <fix>3d</fix>
</trkpt>
<trkpt lat="-27.27308" lon="151.2804849">
  <ele>371.93</ele>
  <time>2026-09-01T19:58:20Z</time>
  <course>84.03</course>
  <speed>25.325262091437477</speed>
  <fix>3d</fix>
</trkpt>
<trkpt lat="-27.2730848" lon="151.2804348">
  <ele>372.04</ele>
  <time>2026-09-01T19:58:20Z</time>
  <course>83.64</course>
  <speed>25.4</speed>
  <fix>3d</fix>
</trkpt>
<trkpt lat="-27.2730774" lon="151.2805104">
  <ele>371.94</ele>
  <time>2026-09-01T19:58:20Z</time>
  <course>84.05</course>
  <speed>25.325262091437477</speed>
  <fix>3d</fix>
</trkpt>
<trkpt lat="-27.2730797" lon="151.2804858">
  <ele>372.06</ele>
  <time>2026-09-01T19:58:20Z</time>
  <course>83.62</course>
  <speed>25.4</speed>
  <fix>3d</fix>
</trkpt>
<trkpt lat="-27.2730749" lon="151.2805359">
  <ele>371.95</ele>
  <time>2026-09-01T19:58:20Z</time>
  <course>84.07</course>
  <speed>25.325262091437477</speed>
  <fix>3d</fix>
</trkpt>
<trkpt lat="-27.2730797" lon="151.2804858">
  <ele>372.06</ele>
  <time>2026-09-01T19:58:20Z</time>
  <course>83.62</course>
  <speed>25.4</speed>
  <fix>3d</fix>
</trkpt>
<trkpt lat="-27.2730724" lon="151.2805614">
  <ele>371.96</ele>
  <time>2026-09-01T19:58:20Z</time>
  <course>84.04</course>
  <speed>25.325262091437477</speed>
  <fix>3d</fix>
</trkpt>
<trkpt lat="-27.2730746" lon="151.2805369">
  <ele>372.09</ele>
  <time>2026-09-01T19:58:20Z</time>
  <course>83.62</course>
  <speed>25.4</speed>
  <fix>3d</fix>
</trkpt>
<trkpt lat="-27.2730698" lon="151.2805869">
  <ele>371.97</ele>
  <time>2026-09-01T19:58:20Z</time>
  <course>84.01</course>
  <speed>25.325262091437477</speed>
  <fix>3d</fix>
</trkpt>
<trkpt lat="-27.2730746" lon="151.2805369">
  <ele>372.09</ele>
  <time>2026-09-01T19:58:20Z</time>
  <course>83.62</course>
  <speed>25.4</speed>
  <fix>3d</fix>
</trkpt>
<trkpt lat="-27.2730673" lon="151.2806124">
  <ele>371.97</ele>
  <time>2026-09-01T19:58:20Z</time>
  <course>84.02</course>
  <speed>25.32636965694057</speed>
  <fix>3d</fix>
</trkpt>
<trkpt lat="-27.2730696" lon="151.2805881">
  <ele>372.11</ele>
  <time>2026-09-01T19:58:20Z</time>
  <course>83.61</course>
  <speed>25.39</speed>
  <fix>3d</fix>
</trkpt>
<trkpt lat="-27.2730647" lon="151.2806379">
  <ele>371.98</ele>
  <time>2026-09-01T19:58:20Z</time>
  <course>83.99</course>
  <speed>25.32636965694057</speed>
  <fix>3d</fix>
</trkpt>
<trkpt lat="-27.2730696" lon="151.2805881">
  <ele>372.11</ele>
  <time>2026-09-01T19:58:20Z</time>
  <course>83.61</course>
  <speed>25.39</speed>
  <fix>3d</fix>
</trkpt>
<trkpt lat="-27.2730622" lon="151.2806634">
  <ele>371.99</ele>
  <time>2026-09-01T19:58:20Z</time>
  <course>84.02</course>
  <speed>25.32636965694057</speed>
  <fix>3d</fix>
</trkpt>
<trkpt lat="-27.2730645" lon="151.280639">
  <ele>372.12</ele>
  <time>2026-09-01T19:58:20Z</time>
  <course>83.59</course>
  <speed>25.39</speed>
  <fix>3d</fix>
</trkpt>
<trkpt lat="-27.2730596" lon="151.280689">
  <ele>371.99</ele>
  <time>2026-09-01T19:58:20Z</time>
  <course>83.97</course>
  <speed>25.32636965694057</speed>
  <fix>3d</fix>
</trkpt>
<trkpt lat="-27.2730645" lon="151.280639">
  <ele>372.12</ele>
  <time>2026-09-01T19:58:20Z</time>
  <course>83.59</course>
  <speed>25.39</speed>
  <fix>3d</fix>
</trkpt>
<trkpt lat="-27.2730571" lon="151.2807145">
  <ele>372.0</ele>
  <time>2026-09-01T19:58:20Z</time>
  <course>83.97</course>
  <speed>25.32748112229086</speed>
  <fix>3d</fix>
</trkpt>
<trkpt lat="-27.2730594" lon="151.28069">
  <ele>372.13</ele>
  <time>2026-09-01T19:58:20Z</time>
  <course>83.58</course>
  <speed>25.39</speed>
  <fix>3d</fix>
</trkpt>
<trkpt lat="-27.2730545" lon="151.28074">
  <ele>372.0</ele>
  <time>2026-09-01T19:58:20Z</time>
  <course>83.95</course>
  <speed>25.338533896024845</speed>
  <fix>3d</fix>
</trkpt>
<trkpt lat="-27.2730594" lon="151.28069">
  <ele>372.13</ele>
  <time>2026-09-01T19:58:20Z</time>
  <course>83.58</course>
  <speed>25.39</speed>
  <fix>3d</fix>
</trkpt>
<trkpt lat="-27.273052" lon="151.2807655">
  <ele>372.0</ele>
  <time>2026-09-01T19:58:20Z</time>
  <course>83.97</course>
  <speed>25.338533896024845</speed>
  <fix>3d</fix>
</trkpt>
<trkpt lat="-27.2730543" lon="151.2807411">
  <ele>372.13</ele>
  <time>2026-09-01T19:58:20Z</time>
  <course>83.56</course>
  <speed>25.39</speed>
  <fix>3d</fix>
</trkpt>
<trkpt lat="-27.2730494" lon="151.2807909">
  <ele>372.01</ele>
  <time>2026-09-01T19:58:20Z</time>
  <course>83.93</course>
  <speed>25.339652720587942</speed>
  <fix>3d</fix>
</trkpt>
<trkpt lat="-27.2730543" lon="151.2807411">
  <ele>372.13</ele>
  <time>2026-09-01T19:58:20Z</time>
  <course>83.56</course>
  <speed>25.39</speed>
  <fix>3d</fix>
</trkpt>
<trkpt lat="-27.2730468" lon="151.2808164">
  <ele>372.01</ele>
  <time>2026-09-01T19:58:20Z</time>
  <course>83.88</course>
  <speed>25.350712021558685</speed>
  <fix>3d</fix>
</trkpt>
<trkpt lat="-27.2730491" lon="151.280792">
  <ele>372.14</ele>
  <time>2026-09-01T19:58:20Z</time>
  <course>83.53</course>
  <speed>25.4</speed>
  <fix>3d</fix>
</trkpt>
<trkpt lat="-27.2730443" lon="151.280842">
  <ele>372.01</ele>
  <time>2026-09-01T19:58:20Z</time>
  <course>83.9</course>
  <speed>25.351838197653436</speed>
  <fix>3d</fix>
</trkpt>
<trkpt lat="-27.2730491" lon="151.280792">
  <ele>372.14</ele>
  <time>2026-09-01T19:58:20Z</time>
  <course>83.53</course>
  <speed>25.4</speed>
  <fix>3d</fix>
</trkpt>
<trkpt lat="-27.2730417" lon="151.2808675">
  <ele>372.02</ele>
  <time>2026-09-01T19:58:20Z</time>
  <course>83.9</course>
  <speed>25.351838197653436</speed>
  <fix>3d</fix>
</trkpt>
<trkpt lat="-27.273044" lon="151.2808431">
  <ele>372.15</ele>
  <time>2026-09-01T19:58:20Z</time>
  <course>83.5</course>
  <speed>25.4</speed>
  <fix>3d</fix>
</trkpt>
<trkpt lat="-27.273039" lon="151.2808933">
  <ele>372.02</ele>
  <time>2026-09-01T19:58:20Z</time>
  <course>83.9</course>
  <speed>25.352968268035205</speed>
  <fix>3d</fix>
</trkpt>
<trkpt lat="-27.273044" lon="151.2808431">
  <ele>372.15</ele>
  <time>2026-09-01T19:58:20Z</time>
  <course>83.5</course>
  <speed>25.4</speed>
  <fix>3d</fix>
</trkpt>
<trkpt lat="-27.2730365" lon="151.2809188">
  <ele>372.02</ele>
  <time>2026-09-01T19:58:20Z</time>
  <course>83.93</course>
  <speed>25.352968268035205</speed>
  <fix>3d</fix>
</trkpt>
<trkpt lat="-27.2730388" lon="151.2808941">
  <ele>372.15</ele>
  <time>2026-09-01T19:58:20Z</time>
  <course>83.48</course>
  <speed>25.4</speed>
  <fix>3d</fix>
</trkpt>
<trkpt lat="-27.2730339" lon="151.2809443">
  <ele>372.03</ele>
  <time>2026-09-01T19:58:20Z</time>
  <course>83.97</course>
  <speed>25.352968268035205</speed>
  <fix>3d</fix>
</trkpt>
<trkpt lat="-27.2730388" lon="151.2808941">
  <ele>372.15</ele>
  <time>2026-09-01T19:58:20Z</time>
  <course>83.48</course>
  <speed>25.4</speed>
  <fix>3d</fix>
</trkpt>
<trkpt lat="-27.2730313" lon="151.2809699">
  <ele>372.03</ele>
  <time>2026-09-01T19:58:20Z</time>
  <course>83.94</course>
  <speed>25.36290401353914</speed>
  <fix>3d</fix>
</trkpt>
<trkpt lat="-27.2730337" lon="151.2809451">
  <ele>372.16</ele>
  <time>2026-09-01T19:58:20Z</time>
  <course>83.47</course>
  <speed>25.4</speed>
  <fix>3d</fix>
</trkpt>
<trkpt lat="-27.2730287" lon="151.2809954">
  <ele>372.03</ele>
  <time>2026-09-01T19:58:20Z</time>
  <course>83.92</course>
  <speed>25.36290401353914</speed>
  <fix>3d</fix>
</trkpt>
<trkpt lat="-27.2730337" lon="151.2809451">
  <ele>372.16</ele>
  <time>2026-09-01T19:58:20Z</time>
  <course>83.47</course>
  <speed>25.4</speed>
  <fix>3d</fix>
</trkpt>
<trkpt lat="-27.2730261" lon="151.2810209">
  <ele>372.04</ele>
  <time>2026-09-01T19:58:20Z</time>
  <course>83.93</course>
  <speed>25.36290401353914</speed>
  <fix>3d</fix>
</trkpt>
<trkpt lat="-27.2730285" lon="151.280996">
  <ele>372.17</ele>
  <time>2026-09-01T19:58:20Z</time>
  <course>83.47</course>
  <speed>25.4</speed>
  <fix>3d</fix>
</trkpt>
<trkpt lat="-27.2730235" lon="151.2810465">
  <ele>372.04</ele>
  <time>2026-09-01T19:58:20Z</time>
  <course>83.89</course>
  <speed>25.372839809528614</speed>
  <fix>3d</fix>
</trkpt>
<trkpt lat="-27.2730285" lon="151.280996">
  <ele>372.17</ele>
  <time>2026-09-01T19:58:20Z</time>
  <course>83.47</course>
  <speed>25.4</speed>
  <fix>3d</fix>
</trkpt>
<trkpt lat="-27.2730209" lon="151.281072">
  <ele>372.04</ele>
  <time>2026-09-01T19:58:20Z</time>
  <course>83.9</course>
  <speed>25.36290401353914</speed>
  <fix>3d</fix>
</trkpt>
<trkpt lat="-27.2730233" lon="151.2810471">
  <ele>372.17</ele>
  <time>2026-09-01T19:58:20Z</time>
  <course>83.47</course>
  <speed>25.4</speed>
  <fix>3d</fix>
</trkpt>
<trkpt lat="-27.2730183" lon="151.2810975">
  <ele>372.04</ele>
  <time>2026-09-01T19:58:20Z</time>
  <course>83.94</course>
  <speed>25.372839809528614</speed>
  <fix>3d</fix>
</trkpt>
<trkpt lat="-27.2730233" lon="151.2810471">
  <ele>372.17</ele>
  <time>2026-09-01T19:58:20Z</time>
  <course>83.47</course>
  <speed>25.4</speed>
  <fix>3d</fix>
</trkpt>
<trkpt lat="-27.2730157" lon="151.281123">
  <ele>372.03</ele>
  <time>2026-09-01T19:58:20Z</time>
  <course>83.91</course>
  <speed>25.371710624236595</speed>
  <fix>3d</fix>
</trkpt>
<trkpt lat="-27.2730181" lon="151.2810981">
  <ele>372.18</ele>
  <time>2026-09-01T19:58:20Z</time>
  <course>83.48</course>
  <speed>25.4</speed>
  <fix>3d</fix>
</trkpt>
<trkpt lat="-27.2730131" lon="151.2811486">
  <ele>372.03</ele>
  <time>2026-09-01T19:58:20Z</time>
  <course>83.9</course>
  <speed>25.371710624236595</speed>
  <fix>3d</fix>
</trkpt>
<trkpt lat="-27.2730181" lon="151.2810981">
  <ele>372.18</ele>
  <time>2026-09-01T19:58:20Z</time>
  <course>83.48</course>
  <speed>25.4</speed>
  <fix>3d</fix>
</trkpt>
<trkpt lat="-27.2730105" lon="151.2811743">
  <ele>372.03</ele>
  <time>2026-09-01T19:58:20Z</time>
  <course>83.89</course>
  <speed>25.371710624236595</speed>
  <fix>3d</fix>
</trkpt>
<trkpt lat="-27.2730129" lon="151.2811492">
  <ele>372.18</ele>
  <time>2026-09-01T19:58:20Z</time>
  <course>83.49</course>
  <speed>25.4</speed>
  <fix>3d</fix>
</trkpt>
<trkpt lat="-27.2730079" lon="151.2811998">
  <ele>372.03</ele>
  <time>2026-09-01T19:58:20Z</time>
  <course>83.9</course>
  <speed>25.371710624236595</speed>
  <fix>3d</fix>
</trkpt>
<trkpt lat="-27.2730129" lon="151.2811492">
  <ele>372.18</ele>
  <time>2026-09-01T19:58:20Z</time>
  <course>83.49</course>
  <speed>25.4</speed>
  <fix>3d</fix>
</trkpt>
<trkpt lat="-27.2730053" lon="151.2812254">
  <ele>372.03</ele>
  <time>2026-09-01T19:58:20Z</time>
  <course>83.89</course>
  <speed>25.371710624236595</speed>
  <fix>3d</fix>
</trkpt>
<trkpt lat="-27.2730078" lon="151.2812003">
  <ele>372.18</ele>
  <time>2026-09-01T19:58:20Z</time>
  <course>83.49</course>
  <speed>25.41</speed>
  <fix>3d</fix>
</trkpt>
<trkpt lat="-27.2730028" lon="151.2812509">
  <ele>372.03</ele>
  <time>2026-09-01T19:58:20Z</time>
  <course>83.87</course>
  <speed>25.370585330259924</speed>
  <fix>3d</fix>
</trkpt>
<trkpt lat="-27.2730078" lon="151.2812003">
  <ele>372.18</ele>
  <time>2026-09-01T19:58:20Z</time>
  <course>83.49</course>
  <speed>25.41</speed>
  <fix>3d</fix>
</trkpt>
<trkpt lat="-27.2730002" lon="151.2812765">
  <ele>372.03</ele>
  <time>2026-09-01T19:58:20Z</time>
  <course>83.87</course>
  <speed>25.380522059248506</speed>
  <fix>3d</fix>
</trkpt>
<trkpt lat="-27.2730026" lon="151.2812513">
  <ele>372.17</ele>
  <time>2026-09-01T19:58:20Z</time>
  <course>83.5</course>
  <speed>25.41</speed>
  <fix>3d</fix>
</trkpt>
<trkpt lat="-27.2729976" lon="151.2813021">
  <ele>372.02</ele>
  <time>2026-09-01T19:58:20Z</time>
  <course>83.9</course>
  <speed>25.380522059248506</speed>
  <fix>3d</fix>
</trkpt>
<trkpt lat="-27.2730026" lon="151.2812513">
  <ele>372.17</ele>
  <time>2026-09-01T19:58:20Z</time>
  <course>83.5</course>
  <speed>25.41</speed>
  <fix>3d</fix>
</trkpt>
<trkpt lat="-27.272995" lon="151.2813275">
  <ele>372.02</ele>
  <time>2026-09-01T19:58:20Z</time>
  <course>83.89</course>
  <speed>25.380522059248506</speed>
  <fix>3d</fix>
</trkpt>
<trkpt lat="-27.2729974" lon="151.2813023">
  <ele>372.17</ele>
  <time>2026-09-01T19:58:20Z</time>
  <course>83.49</course>
  <speed>25.41</speed>
  <fix>3d</fix>
</trkpt>
<trkpt lat="-27.2729924" lon="151.2813531">
  <ele>372.03</ele>
  <time>2026-09-01T19:58:20Z</time>
  <course>83.87</course>
  <speed>25.3915832511484</speed>
  <fix>3d</fix>
</trkpt>
<trkpt lat="-27.2729974" lon="151.2813023">
  <ele>372.17</ele>
  <time>2026-09-01T19:58:20Z</time>
  <course>83.49</course>
  <speed>25.41</speed>
  <fix>3d</fix>
</trkpt>
<trkpt lat="-27.2729898" lon="151.2813787">
  <ele>372.03</ele>
  <time>2026-09-01T19:58:20Z</time>
  <course>83.87</course>
  <speed>25.3915832511484</speed>
  <fix>3d</fix>
</trkpt>
<trkpt lat="-27.2729923" lon="151.2813534">
  <ele>372.17</ele>
  <time>2026-09-01T19:58:20Z</time>
  <course>83.48</course>
  <speed>25.41</speed>
  <fix>3d</fix>
</trkpt>
<trkpt lat="-27.2729872" lon="151.2814044">
  <ele>372.03</ele>
  <time>2026-09-01T19:58:20Z</time>
  <course>83.85</course>
  <speed>25.392711552727093</speed>
  <fix>3d</fix>
</trkpt>
<trkpt lat="-27.2729923" lon="151.2813534">
  <ele>372.17</ele>
  <time>2026-09-01T19:58:20Z</time>
  <course>83.48</course>
  <speed>25.41</speed>
  <fix>3d</fix>
</trkpt>
<trkpt lat="-27.2729846" lon="151.2814302">
  <ele>372.03</ele>
  <time>2026-09-01T19:58:20Z</time>
  <course>83.82</course>
  <speed>25.403779246403477</speed>
  <fix>3d</fix>
</trkpt>
<trkpt lat="-27.2729871" lon="151.2814043">
  <ele>372.17</ele>
  <time>2026-09-01T19:58:20Z</time>
  <course>83.46</course>
  <speed>25.41</speed>
  <fix>3d</fix>
</trkpt>
<trkpt lat="-27.272982" lon="151.2814558">
  <ele>372.04</ele>
  <time>2026-09-01T19:58:20Z</time>
  <course>83.8</course>
  <speed>25.404914878818232</speed>
  <fix>3d</fix>
</trkpt>
<trkpt lat="-27.2729871" lon="151.2814043">
  <ele>372.17</ele>
  <time>2026-09-01T19:58:20Z</time>
  <course>83.46</course>
  <speed>25.41</speed>
  <fix>3d</fix>
</trkpt>
<trkpt lat="-27.2729794" lon="151.2814814">
  <ele>372.04</ele>
  <time>2026-09-01T19:58:20Z</time>
  <course>83.84</course>
  <speed>25.404914878818232</speed>
  <fix>3d</fix>
</trkpt>
<trkpt lat="-27.2729819" lon="151.2814554">
  <ele>372.18</ele>
  <time>2026-09-01T19:58:20Z</time>
  <course>83.43</course>
  <speed>25.41</speed>
  <fix>3d</fix>
</trkpt>
<trkpt lat="-27.2729767" lon="151.2815071">
  <ele>372.04</ele>
  <time>2026-09-01T19:58:20Z</time>
  <course>83.85</course>
  <speed>25.41484998972058</speed>
  <fix>3d</fix>
</trkpt>
<trkpt lat="-27.2729819" lon="151.2814554">
  <ele>372.18</ele>
  <time>2026-09-01T19:58:20Z</time>
  <course>83.43</course>
  <speed>25.41</speed>
  <fix>3d</fix>
</trkpt>
<trkpt lat="-27.2729741" lon="151.2815327">
  <ele>372.05</ele>
  <time>2026-09-01T19:58:20Z</time>
  <course>83.86</course>
  <speed>25.41484998972058</speed>
  <fix>3d</fix>
</trkpt>
<trkpt lat="-27.2729767" lon="151.2815064">
  <ele>372.18</ele>
  <time>2026-09-01T19:58:20Z</time>
  <course>83.43</course>
  <speed>25.41</speed>
  <fix>3d</fix>
</trkpt>
<trkpt lat="-27.2729715" lon="151.2815583">
  <ele>372.05</ele>
  <time>2026-09-01T19:58:20Z</time>
  <course>83.88</course>
  <speed>25.42365040665876</speed>
  <fix>3d</fix>
</trkpt>
<trkpt lat="-27.2729767" lon="151.2815064">
  <ele>372.18</ele>
  <time>2026-09-01T19:58:20Z</time>
  <course>83.43</course>
  <speed>25.41</speed>
  <fix>3d</fix>
</trkpt>
<trkpt lat="-27.2729689" lon="151.2815839">
  <ele>372.06</ele>
  <time>2026-09-01T19:58:20Z</time>
  <course>83.88</course>
  <speed>25.42365040665876</speed>
  <fix>3d</fix>
</trkpt>
<trkpt lat="-27.2729714" lon="151.2815574">
  <ele>372.19</ele>
  <time>2026-09-01T19:58:20Z</time>
  <course>83.44</course>
  <speed>25.41</speed>
  <fix>3d</fix>
</trkpt>
<trkpt lat="-27.2729663" lon="151.2816095">
  <ele>372.07</ele>
  <time>2026-09-01T19:58:20Z</time>
  <course>83.84</course>
  <speed>25.42365040665876</speed>
  <fix>3d</fix>
</trkpt>
<trkpt lat="-27.2729714" lon="151.2815574">
  <ele>372.19</ele>
  <time>2026-09-01T19:58:20Z</time>
  <course>83.44</course>
  <speed>25.41</speed>
  <fix>3d</fix>
</trkpt>
<trkpt lat="-27.2729637" lon="151.2816351">
  <ele>372.07</ele>
  <time>2026-09-01T19:58:20Z</time>
  <course>83.83</course>
  <speed>25.42365040665876</speed>
  <fix>3d</fix>
</trkpt>
<trkpt lat="-27.2729662" lon="151.2816085">
  <ele>372.2</ele>
  <time>2026-09-01T19:58:20Z</time>
  <course>83.44</course>
  <speed>25.41</speed>
  <fix>3d</fix>
</trkpt>
<trkpt lat="-27.2729611" lon="151.2816606">
  <ele>372.08</ele>
  <time>2026-09-01T19:58:20Z</time>
  <course>83.82</course>
  <speed>25.42365040665876</speed>
  <fix>3d</fix>
</trkpt>
<trkpt lat="-27.2729662" lon="151.2816085">
  <ele>372.2</ele>
  <time>2026-09-01T19:58:20Z</time>
  <course>83.44</course>
  <speed>25.41</speed>
  <fix>3d</fix>
</trkpt>
<trkpt lat="-27.2729585" lon="151.2816862">
  <ele>372.09</ele>
  <time>2026-09-01T19:58:20Z</time>
  <course>83.87</course>
  <speed>25.42365040665876</speed>
  <fix>3d</fix>
</trkpt>
<trkpt lat="-27.272961" lon="151.2816596">
  <ele>372.21</ele>
  <time>2026-09-01T19:58:20Z</time>
  <course>83.44</course>
  <speed>25.41</speed>
  <fix>3d</fix>
</trkpt>
<trkpt lat="-27.2729559" lon="151.2817118">
  <ele>372.09</ele>
  <time>2026-09-01T19:58:20Z</time>
  <course>83.89</course>
  <speed>25.42365040665876</speed>
  <fix>3d</fix>
</trkpt>
<trkpt lat="-27.272961" lon="151.2816596">
  <ele>372.21</ele>
  <time>2026-09-01T19:58:20Z</time>
  <course>83.44</course>
  <speed>25.41</speed>
  <fix>3d</fix>
</trkpt>
<trkpt lat="-27.2729532" lon="151.2817374">
  <ele>372.09</ele>
  <time>2026-09-01T19:58:20Z</time>
  <course>83.86</course>
  <speed>25.42365040665876</speed>
  <fix>3d</fix>
</trkpt>
<trkpt lat="-27.2729558" lon="151.2817107">
  <ele>372.22</ele>
  <time>2026-09-01T19:58:20Z</time>
  <course>83.44</course>
  <speed>25.4</speed>
  <fix>3d</fix>
</trkpt>
<trkpt lat="-27.2729506" lon="151.2817629">
  <ele>372.1</ele>
  <time>2026-09-01T19:58:20Z</time>
  <course>83.86</course>
  <speed>25.424785151501283</speed>
  <fix>3d</fix>
</trkpt>
<trkpt lat="-27.2729558" lon="151.2817107">
  <ele>372.22</ele>
  <time>2026-09-01T19:58:20Z</time>
  <course>83.44</course>
  <speed>25.4</speed>
  <fix>3d</fix>
</trkpt>
<trkpt lat="-27.272948" lon="151.2817885">
  <ele>372.1</ele>
  <time>2026-09-01T19:58:20Z</time>
  <course>83.86</course>
  <speed>25.42365040665876</speed>
  <fix>3d</fix>
</trkpt>
<trkpt lat="-27.2729506" lon="151.2817617">
  <ele>372.22</ele>
  <time>2026-09-01T19:58:20Z</time>
  <course>83.43</course>
  <speed>25.4</speed>
  <fix>3d</fix>
</trkpt>
<trkpt lat="-27.2729454" lon="151.281814">
  <ele>372.1</ele>
  <time>2026-09-01T19:58:20Z</time>
  <course>83.85</course>
  <speed>25.42365040665876</speed>
  <fix>3d</fix>
</trkpt>
<trkpt lat="-27.2729506" lon="151.2817617">
  <ele>372.22</ele>
  <time>2026-09-01T19:58:20Z</time>
  <course>83.43</course>
  <speed>25.4</speed>
  <fix>3d</fix>
</trkpt>
<trkpt lat="-27.2729428" lon="151.2818396">
  <ele>372.11</ele>
  <time>2026-09-01T19:58:20Z</time>
  <course>83.86</course>
  <speed>25.42365040665876</speed>
  <fix>3d</fix>
</trkpt>
<trkpt lat="-27.2729454" lon="151.2818127">
  <ele>372.22</ele>
  <time>2026-09-01T19:58:20Z</time>
  <course>83.43</course>
  <speed>25.4</speed>
  <fix>3d</fix>
</trkpt>
<trkpt lat="-27.2729402" lon="151.2818651">
  <ele>372.11</ele>
  <time>2026-09-01T19:58:20Z</time>
  <course>83.83</course>
  <speed>25.42365040665876</speed>
  <fix>3d</fix>
</trkpt>
<trkpt lat="-27.2729454" lon="151.2818127">
  <ele>372.22</ele>
  <time>2026-09-01T19:58:20Z</time>
  <course>83.43</course>
  <speed>25.4</speed>
  <fix>3d</fix>
</trkpt>
<trkpt lat="-27.2729376" lon="151.2818907">
  <ele>372.11</ele>
  <time>2026-09-01T19:58:20Z</time>
  <course>83.87</course>
  <speed>25.42365040665876</speed>
  <fix>3d</fix>
</trkpt>
<trkpt lat="-27.2729401" lon="151.2818636">
  <ele>372.22</ele>
  <time>2026-09-01T19:58:20Z</time>
  <course>83.43</course>
  <speed>25.4</speed>
  <fix>3d</fix>
</trkpt>
<trkpt lat="-27.272935" lon="151.2819161">
  <ele>372.11</ele>
  <time>2026-09-01T19:58:20Z</time>
  <course>83.89</course>
  <speed>25.413714801264295</speed>
  <fix>3d</fix>
</trkpt>
<trkpt lat="-27.2729401" lon="151.2818636">
  <ele>372.22</ele>
  <time>2026-09-01T19:58:20Z</time>
  <course>83.43</course>
  <speed>25.4</speed>
  <fix>3d</fix>
</trkpt>
<trkpt lat="-27.2729324" lon="151.2819415">
  <ele>372.11</ele>
  <time>2026-09-01T19:58:20Z</time>
  <course>83.86</course>
  <speed>25.413714801264295</speed>
  <fix>3d</fix>
</trkpt>
<trkpt lat="-27.2729348" lon="151.2819146">
  <ele>372.22</ele>
  <time>2026-09-01T19:58:20Z</time>
  <course>83.43</course>
  <speed>25.4</speed>
  <fix>3d</fix>
</trkpt>
<trkpt lat="-27.2729298" lon="151.281967">
  <ele>372.11</ele>
  <time>2026-09-01T19:58:21Z</time>
  <course>83.88</course>
  <speed>25.403779246403477</speed>
  <fix>3d</fix>
</trkpt>
<trkpt lat="-27.2729348" lon="151.2819146">
  <ele>372.22</ele>
  <time>2026-09-01T19:58:21Z</time>
  <course>83.43</course>
  <speed>25.4</speed>
  <fix>3d</fix>
</trkpt>
<trkpt lat="-27.2729272" lon="151.2819924">
  <ele>372.11</ele>
  <time>2026-09-01T19:58:21Z</time>
  <course>83.89</course>
  <speed>25.393843742135616</speed>
  <fix>3d</fix>
</trkpt>
<trkpt lat="-27.2729297" lon="151.2819657">
  <ele>372.22</ele>
  <time>2026-09-01T19:58:21Z</time>
  <course>83.44</course>
  <speed>25.4</speed>
  <fix>3d</fix>
</trkpt>
<trkpt lat="-27.2729246" lon="151.2820178">
  <ele>372.11</ele>
  <time>2026-09-01T19:58:21Z</time>
  <course>83.93</course>
  <speed>25.38390828852011</speed>
  <fix>3d</fix>
</trkpt>
<trkpt lat="-27.2729297" lon="151.2819657">
  <ele>372.22</ele>
  <time>2026-09-01T19:58:21Z</time>
  <course>83.44</course>
  <speed>25.4</speed>
  <fix>3d</fix>
</trkpt>
<trkpt lat="-27.272922" lon="151.2820431">
  <ele>372.11</ele>
  <time>2026-09-01T19:58:21Z</time>
  <course>83.95</course>
  <speed>25.38277565594433</speed>
  <fix>3d</fix>
</trkpt>
<trkpt lat="-27.2729245" lon="151.2820166">
  <ele>372.22</ele>
  <time>2026-09-01T19:58:21Z</time>
  <course>83.45</course>
  <speed>25.4</speed>
  <fix>3d</fix>
</trkpt>
<trkpt lat="-27.2729194" lon="151.2820685">
  <ele>372.11</ele>
  <time>2026-09-01T19:58:21Z</time>
  <course>83.95</course>
  <speed>25.372839809528614</speed>
  <fix>3d</fix>
</trkpt>
<trkpt lat="-27.2729245" lon="151.2820166">
  <ele>372.22</ele>
  <time>2026-09-01T19:58:21Z</time>
  <course>83.45</course>
  <speed>25.4</speed>
  <fix>3d</fix>
</trkpt>
<trkpt lat="-27.2729168" lon="151.2820939">
  <ele>372.11</ele>
  <time>2026-09-01T19:58:21Z</time>
  <course>83.9</course>
  <speed>25.372839809528614</speed>
  <fix>3d</fix>
</trkpt>
<trkpt lat="-27.2729193" lon="151.2820677">
  <ele>372.21</ele>
  <time>2026-09-01T19:58:21Z</time>
  <course>83.46</course>
  <speed>25.4</speed>
  <fix>3d</fix>
</trkpt>
<trkpt lat="-27.2729142" lon="151.2821193">
  <ele>372.11</ele>
  <time>2026-09-01T19:58:21Z</time>
  <course>83.91</course>
  <speed>25.36290401353914</speed>
  <fix>3d</fix>
</trkpt>
<trkpt lat="-27.2729193" lon="151.2820677">
  <ele>372.21</ele>
  <time>2026-09-01T19:58:21Z</time>
  <course>83.46</course>
  <speed>25.4</speed>
  <fix>3d</fix>
</trkpt>
<trkpt lat="-27.2729116" lon="151.2821447">
  <ele>372.11</ele>
  <time>2026-09-01T19:58:21Z</time>
  <course>83.92</course>
  <speed>25.364037533484293</speed>
  <fix>3d</fix>
</trkpt>
<trkpt lat="-27.2729141" lon="151.2821187">
  <ele>372.2</ele>
  <time>2026-09-01T19:58:21Z</time>
  <course>83.46</course>
  <speed>25.4</speed>
  <fix>3d</fix>
</trkpt>
<trkpt lat="-27.272909" lon="151.2821701">
  <ele>372.11</ele>
  <time>2026-09-01T19:58:21Z</time>
  <course>83.92</course>
  <speed>25.35410223218326</speed>
  <fix>3d</fix>
</trkpt>
<trkpt lat="-27.2729141" lon="151.2821187">
  <ele>372.2</ele>
  <time>2026-09-01T19:58:21Z</time>
  <course>83.46</course>
  <speed>25.4</speed>
  <fix>3d</fix>
</trkpt>
<trkpt lat="-27.2729064" lon="151.2821955">
  <ele>372.1</ele>
  <time>2026-09-01T19:58:21Z</time>
  <course>83.96</course>
  <speed>25.35410223218326</speed>
  <fix>3d</fix>
</trkpt>
<trkpt lat="-27.2729089" lon="151.2821698">
  <ele>372.19</ele>
  <time>2026-09-01T19:58:21Z</time>
  <course>83.45</course>
  <speed>25.4</speed>
  <fix>3d</fix>
</trkpt>
<trkpt lat="-27.2729038" lon="151.2822209">
  <ele>372.1</ele>
  <time>2026-09-01T19:58:21Z</time>
  <course>83.96</course>
  <speed>25.343032573076176</speed>
  <fix>3d</fix>
</trkpt>
<trkpt lat="-27.2729089" lon="151.2821698">
  <ele>372.19</ele>
  <time>2026-09-01T19:58:21Z</time>
  <course>83.45</course>
  <speed>25.4</speed>
  <fix>3d</fix>
</trkpt>
<trkpt lat="-27.2729012" lon="151.2822463">
  <ele>372.1</ele>
  <time>2026-09-01T19:58:21Z</time>
  <course>83.96</course>
  <speed>25.343032573076176</speed>
  <fix>3d</fix>
</trkpt>
<trkpt lat="-27.2729037" lon="151.2822208">
  <ele>372.18</ele>
  <time>2026-09-01T19:58:21Z</time>
  <course>83.45</course>
  <speed>25.39</speed>
  <fix>3d</fix>
</trkpt>
<trkpt lat="-27.2728986" lon="151.2822718">
  <ele>372.1</ele>
  <time>2026-09-01T19:58:21Z</time>
  <course>83.94</course>
  <speed>25.343032573076176</speed>
  <fix>3d</fix>
</trkpt>
<trkpt lat="-27.2729037" lon="151.2822208">
  <ele>372.18</ele>
  <time>2026-09-01T19:58:21Z</time>
  <course>83.45</course>
  <speed>25.39</speed>
  <fix>3d</fix>
</trkpt>
<trkpt lat="-27.2728961" lon="151.2822972">
  <ele>372.09</ele>
  <time>2026-09-01T19:58:21Z</time>
  <course>83.89</course>
  <speed>25.343032573076176</speed>
  <fix>3d</fix>
</trkpt>
<trkpt lat="-27.2728984" lon="151.2822718">
  <ele>372.18</ele>
  <time>2026-09-01T19:58:21Z</time>
  <course>83.46</course>
  <speed>25.39</speed>
  <fix>3d</fix>
</trkpt>
<trkpt lat="-27.2728935" lon="151.2823227">
  <ele>372.09</ele>
  <time>2026-09-01T19:58:21Z</time>
  <course>83.94</course>
  <speed>25.343032573076176</speed>
  <fix>3d</fix>
</trkpt>
<trkpt lat="-27.2728984" lon="151.2822718">
  <ele>372.18</ele>
  <time>2026-09-01T19:58:21Z</time>
  <course>83.46</course>
  <speed>25.39</speed>
  <fix>3d</fix>
</trkpt>
<trkpt lat="-27.2728909" lon="151.2823481">
  <ele>372.08</ele>
  <time>2026-09-01T19:58:21Z</time>
  <course>83.98</course>
  <speed>25.343032573076176</speed>
  <fix>3d</fix>
</trkpt>
<trkpt lat="-27.2728933" lon="151.2823227">
  <ele>372.16</ele>
  <time>2026-09-01T19:58:21Z</time>
  <course>83.46</course>
  <speed>25.4</speed>
  <fix>3d</fix>
</trkpt>
<trkpt lat="-27.2728883" lon="151.2823736">
  <ele>372.07</ele>
  <time>2026-09-01T19:58:21Z</time>
  <course>84.0</course>
  <speed>25.351838197653436</speed>
  <fix>3d</fix>
</trkpt>
<trkpt lat="-27.2728933" lon="151.2823227">
  <ele>372.16</ele>
  <time>2026-09-01T19:58:21Z</time>
  <course>83.46</course>
  <speed>25.4</speed>
  <fix>3d</fix>
</trkpt>
<trkpt lat="-27.2728857" lon="151.282399">
  <ele>372.07</ele>
  <time>2026-09-01T19:58:21Z</time>
  <course>84.02</course>
  <speed>25.351838197653436</speed>
  <fix>3d</fix>
</trkpt>
<trkpt lat="-27.2728881" lon="151.2823737">
  <ele>372.15</ele>
  <time>2026-09-01T19:58:21Z</time>
  <course>83.48</course>
  <speed>25.41</speed>
  <fix>3d</fix>
</trkpt>
<trkpt lat="-27.2728831" lon="151.2824245">
  <ele>372.06</ele>
  <time>2026-09-01T19:58:21Z</time>
  <course>84.02</course>
  <speed>25.350712021558685</speed>
  <fix>3d</fix>
</trkpt>
<trkpt lat="-27.2728881" lon="151.2823737">
  <ele>372.15</ele>
  <time>2026-09-01T19:58:21Z</time>
  <course>83.48</course>
  <speed>25.41</speed>
  <fix>3d</fix>
</trkpt>
<trkpt lat="-27.2728805" lon="151.28245">
  <ele>372.05</ele>
  <time>2026-09-01T19:58:21Z</time>
  <course>84.02</course>
  <speed>25.350712021558685</speed>
  <fix>3d</fix>
</trkpt>
<trkpt lat="-27.272883" lon="151.2824248">
  <ele>372.14</ele>
  <time>2026-09-01T19:58:21Z</time>
  <course>83.5</course>
  <speed>25.41</speed>
  <fix>3d</fix>
</trkpt>
<trkpt lat="-27.272878" lon="151.2824755">
  <ele>372.05</ele>
  <time>2026-09-01T19:58:21Z</time>
  <course>84.02</course>
  <speed>25.36064865101049</speed>
  <fix>3d</fix>
</trkpt>
<trkpt lat="-27.272883" lon="151.2824248">
  <ele>372.14</ele>
  <time>2026-09-01T19:58:21Z</time>
  <course>83.5</course>
  <speed>25.41</speed>
  <fix>3d</fix>
</trkpt>
<trkpt lat="-27.2728754" lon="151.2825007">
  <ele>372.05</ele>
  <time>2026-09-01T19:58:21Z</time>
  <course>83.93</course>
  <speed>25.36064865101049</speed>
  <fix>3d</fix>
</trkpt>
<trkpt lat="-27.2728777" lon="151.2824758">
  <ele>372.13</ele>
  <time>2026-09-01T19:58:21Z</time>
  <course>83.51</course>
  <speed>25.41</speed>
  <fix>3d</fix>
</trkpt>
<trkpt lat="-27.2728728" lon="151.2825262">
  <ele>372.05</ele>
  <time>2026-09-01T19:58:21Z</time>
  <course>83.93</course>
  <speed>25.36064865101049</speed>
  <fix>3d</fix>
</trkpt>
<trkpt lat="-27.2728777" lon="151.2824758">
  <ele>372.13</ele>
  <time>2026-09-01T19:58:21Z</time>
  <course>83.51</course>
  <speed>25.41</speed>
  <fix>3d</fix>
</trkpt>
<trkpt lat="-27.2728702" lon="151.2825517">
  <ele>372.05</ele>
  <time>2026-09-01T19:58:21Z</time>
  <course>83.97</course>
  <speed>25.3617743858745</speed>
  <fix>3d</fix>
</trkpt>
<trkpt lat="-27.2728726" lon="151.2825269">
  <ele>372.13</ele>
  <time>2026-09-01T19:58:21Z</time>
  <course>83.5</course>
  <speed>25.42</speed>
  <fix>3d</fix>
</trkpt>
<trkpt lat="-27.2728676" lon="151.2825777">
  <ele>372.04</ele>
  <time>2026-09-01T19:58:21Z</time>
  <course>83.93</course>
  <speed>25.3617743858745</speed>
  <fix>3d</fix>
</trkpt>
<trkpt lat="-27.2728726" lon="151.2825269">
  <ele>372.13</ele>
  <time>2026-09-01T19:58:21Z</time>
  <course>83.5</course>
  <speed>25.42</speed>
  <fix>3d</fix>
</trkpt>
<trkpt lat="-27.272865" lon="151.2826032">
  <ele>372.04</ele>
  <time>2026-09-01T19:58:21Z</time>
  <course>83.9</course>
  <speed>25.36290401353914</speed>
  <fix>3d</fix>
</trkpt>
<trkpt lat="-27.2728674" lon="151.2825779">
  <ele>372.13</ele>
  <time>2026-09-01T19:58:21Z</time>
  <course>83.48</course>
  <speed>25.42</speed>
  <fix>3d</fix>
</trkpt>
<trkpt lat="-27.2728624" lon="151.2826287">
  <ele>372.04</ele>
  <time>2026-09-01T19:58:21Z</time>
  <course>83.9</course>
  <speed>25.364037533484293</speed>
  <fix>3d</fix>
</trkpt>
<trkpt lat="-27.2728674" lon="151.2825779">
  <ele>372.13</ele>
  <time>2026-09-01T19:58:21Z</time>
  <course>83.48</course>
  <speed>25.42</speed>
  <fix>3d</fix>
</trkpt>
<trkpt lat="-27.2728598" lon="151.2826542">
  <ele>372.03</ele>
  <time>2026-09-01T19:58:21Z</time>
  <course>83.92</course>
  <speed>25.364037533484293</speed>
  <fix>3d</fix>
</trkpt>
<trkpt lat="-27.2728623" lon="151.2826289">
  <ele>372.12</ele>
  <time>2026-09-01T19:58:21Z</time>
  <course>83.46</course>
  <speed>25.43</speed>
  <fix>3d</fix>
</trkpt>
<trkpt lat="-27.2728572" lon="151.2826797">
  <ele>372.03</ele>
  <time>2026-09-01T19:58:21Z</time>
  <course>83.88</course>
  <speed>25.365174945188137</speed>
  <fix>3d</fix>
</trkpt>
<trkpt lat="-27.2728623" lon="151.2826289">
  <ele>372.12</ele>
  <time>2026-09-01T19:58:21Z</time>
  <course>83.46</course>
  <speed>25.43</speed>
  <fix>3d</fix>
</trkpt>
<trkpt lat="-27.2728546" lon="151.2827052">
  <ele>372.03</ele>
  <time>2026-09-01T19:58:21Z</time>
  <course>83.89</course>
  <speed>25.365174945188137</speed>
  <fix>3d</fix>
</trkpt>
<trkpt lat="-27.272857" lon="151.2826801">
  <ele>372.12</ele>
  <time>2026-09-01T19:58:21Z</time>
  <course>83.43</course>
  <speed>25.43</speed>
  <fix>3d</fix>
</trkpt>
<trkpt lat="-27.272852" lon="151.2827307">
  <ele>372.02</ele>
  <time>2026-09-01T19:58:21Z</time>
  <course>83.91</course>
  <speed>25.36631624812716</speed>
  <fix>3d</fix>
</trkpt>
<trkpt lat="-27.272857" lon="151.2826801">
  <ele>372.12</ele>
  <time>2026-09-01T19:58:21Z</time>
  <course>83.43</course>
  <speed>25.43</speed>
  <fix>3d</fix>
</trkpt>
<trkpt lat="-27.2728494" lon="151.2827562">
  <ele>372.03</ele>
  <time>2026-09-01T19:58:21Z</time>
  <course>83.89</course>
  <speed>25.36631624812716</speed>
  <fix>3d</fix>
</trkpt>
<trkpt lat="-27.2728518" lon="151.2827313">
  <ele>372.12</ele>
  <time>2026-09-01T19:58:21Z</time>
  <course>83.41</course>
  <speed>25.42</speed>
  <fix>3d</fix>
</trkpt>
<trkpt lat="-27.2728467" lon="151.2827817">
  <ele>372.03</ele>
  <time>2026-09-01T19:58:21Z</time>
  <course>83.86</course>
  <speed>25.36631624812716</speed>
  <fix>3d</fix>
</trkpt>
<trkpt lat="-27.2728518" lon="151.2827313">
  <ele>372.12</ele>
  <time>2026-09-01T19:58:21Z</time>
  <course>83.41</course>
  <speed>25.42</speed>
  <fix>3d</fix>
</trkpt>
<trkpt lat="-27.2728441" lon="151.2828072">
  <ele>372.03</ele>
  <time>2026-09-01T19:58:21Z</time>
  <course>83.82</course>
  <speed>25.36631624812716</speed>
  <fix>3d</fix>
</trkpt>
<trkpt lat="-27.2728466" lon="151.2827823">
  <ele>372.12</ele>
  <time>2026-09-01T19:58:21Z</time>
  <course>83.4</course>
  <speed>25.42</speed>
  <fix>3d</fix>
</trkpt>
<trkpt lat="-27.2728415" lon="151.2828327">
  <ele>372.03</ele>
  <time>2026-09-01T19:58:21Z</time>
  <course>83.81</course>
  <speed>25.36631624812716</speed>
  <fix>3d</fix>
</trkpt>
<trkpt lat="-27.2728466" lon="151.2827823">
  <ele>372.12</ele>
  <time>2026-09-01T19:58:21Z</time>
  <course>83.4</course>
  <speed>25.42</speed>
  <fix>3d</fix>
</trkpt>
<trkpt lat="-27.2728389" lon="151.2828582">
  <ele>372.03</ele>
  <time>2026-09-01T19:58:21Z</time>
  <course>83.84</course>
  <speed>25.35638183968683</speed>
  <fix>3d</fix>
</trkpt>
<trkpt lat="-27.2728413" lon="151.2828333">
  <ele>372.12</ele>
  <time>2026-09-01T19:58:21Z</time>
  <course>83.39</course>
  <speed>25.42</speed>
  <fix>3d</fix>
</trkpt>
<trkpt lat="-27.2728362" lon="151.2828838">
  <ele>372.03</ele>
  <time>2026-09-01T19:58:21Z</time>
  <course>83.85</course>
  <speed>25.35638183968683</speed>
  <fix>3d</fix>
</trkpt>
<trkpt lat="-27.2728413" lon="151.2828333">
  <ele>372.12</ele>
  <time>2026-09-01T19:58:21Z</time>
  <course>83.39</course>
  <speed>25.42</speed>
  <fix>3d</fix>
</trkpt>
<trkpt lat="-27.2728336" lon="151.2829093">
  <ele>372.03</ele>
  <time>2026-09-01T19:58:21Z</time>
  <course>83.88</course>
  <speed>25.36631624812716</speed>
  <fix>3d</fix>
</trkpt>
<trkpt lat="-27.2728361" lon="151.2828844">
  <ele>372.13</ele>
  <time>2026-09-01T19:58:21Z</time>
  <course>83.39</course>
  <speed>25.42</speed>
  <fix>3d</fix>
</trkpt>
<trkpt lat="-27.272831" lon="151.2829348">
  <ele>372.03</ele>
  <time>2026-09-01T19:58:21Z</time>
  <course>83.88</course>
  <speed>25.36631624812716</speed>
  <fix>3d</fix>
</trkpt>
<trkpt lat="-27.2728361" lon="151.2828844">
  <ele>372.13</ele>
  <time>2026-09-01T19:58:21Z</time>
  <course>83.39</course>
  <speed>25.42</speed>
  <fix>3d</fix>
</trkpt>
<trkpt lat="-27.2728284" lon="151.2829603">
  <ele>372.03</ele>
  <time>2026-09-01T19:58:21Z</time>
  <course>83.89</course>
  <speed>25.365174945188137</speed>
  <fix>3d</fix>
</trkpt>
<trkpt lat="-27.2728308" lon="151.2829353">
  <ele>372.13</ele>
  <time>2026-09-01T19:58:21Z</time>
  <course>83.39</course>
  <speed>25.42</speed>
  <fix>3d</fix>
</trkpt>
<trkpt lat="-27.2728258" lon="151.2829858">
  <ele>372.03</ele>
  <time>2026-09-01T19:58:21Z</time>
  <course>83.93</course>
  <speed>25.37510985197897</speed>
  <fix>3d</fix>
</trkpt>
<trkpt lat="-27.2728308" lon="151.2829353">
  <ele>372.13</ele>
  <time>2026-09-01T19:58:21Z</time>
  <course>83.39</course>
  <speed>25.42</speed>
  <fix>3d</fix>
</trkpt>
<trkpt lat="-27.2728232" lon="151.2830113">
  <ele>372.02</ele>
  <time>2026-09-01T19:58:21Z</time>
  <course>83.98</course>
  <speed>25.37397288561647</speed>
  <fix>3d</fix>
</trkpt>
<trkpt lat="-27.2728256" lon="151.2829864">
  <ele>372.13</ele>
  <time>2026-09-01T19:58:21Z</time>
  <course>83.41</course>
  <speed>25.42</speed>
  <fix>3d</fix>
</trkpt>
<trkpt lat="-27.2728206" lon="151.2830367">
  <ele>372.02</ele>
  <time>2026-09-01T19:58:21Z</time>
  <course>83.95</course>
  <speed>25.37397288561647</speed>
  <fix>3d</fix>
</trkpt>
<trkpt lat="-27.2728256" lon="151.2829864">
  <ele>372.13</ele>
  <time>2026-09-01T19:58:21Z</time>
  <course>83.41</course>
  <speed>25.42</speed>
  <fix>3d</fix>
</trkpt>
<trkpt lat="-27.272818" lon="151.2830622">
  <ele>372.01</ele>
  <time>2026-09-01T19:58:21Z</time>
  <course>83.95</course>
  <speed>25.38277565594433</speed>
  <fix>3d</fix>
</trkpt>
<trkpt lat="-27.2728204" lon="151.2830374">
  <ele>372.12</ele>
  <time>2026-09-01T19:58:21Z</time>
  <course>83.44</course>
  <speed>25.42</speed>
  <fix>3d</fix>
</trkpt>
<trkpt lat="-27.2728154" lon="151.2830877">
  <ele>372.01</ele>
  <time>2026-09-01T19:58:21Z</time>
  <course>83.96</course>
  <speed>25.38277565594433</speed>
  <fix>3d</fix>
</trkpt>
<trkpt lat="-27.2728204" lon="151.2830374">
  <ele>372.12</ele>
  <time>2026-09-01T19:58:21Z</time>
  <course>83.44</course>
  <speed>25.42</speed>
  <fix>3d</fix>
</trkpt>
<trkpt lat="-27.2728128" lon="151.2831133">
  <ele>372.01</ele>
  <time>2026-09-01T19:58:21Z</time>
  <course>83.93</course>
  <speed>25.38277565594433</speed>
  <fix>3d</fix>
</trkpt>
<trkpt lat="-27.2728151" lon="151.2830885">
  <ele>372.12</ele>
  <time>2026-09-01T19:58:21Z</time>
  <course>83.46</course>
  <speed>25.43</speed>
  <fix>3d</fix>
</trkpt>
<trkpt lat="-27.2728102" lon="151.2831391">
  <ele>372.0</ele>
  <time>2026-09-01T19:58:21Z</time>
  <course>83.92</course>
  <speed>25.381646912680825</speed>
  <fix>3d</fix>
</trkpt>
<trkpt lat="-27.2728151" lon="151.2830885">
  <ele>372.12</ele>
  <time>2026-09-01T19:58:21Z</time>
  <course>83.46</course>
  <speed>25.43</speed>
  <fix>3d</fix>
</trkpt>
<trkpt lat="-27.2728076" lon="151.2831646">
  <ele>372.0</ele>
  <time>2026-09-01T19:58:21Z</time>
  <course>83.91</course>
  <speed>25.392711552727093</speed>
  <fix>3d</fix>
</trkpt>
<trkpt lat="-27.27281" lon="151.2831396">
  <ele>372.12</ele>
  <time>2026-09-01T19:58:21Z</time>
  <course>83.46</course>
  <speed>25.43</speed>
  <fix>3d</fix>
</trkpt>
<trkpt lat="-27.272805" lon="151.2831901">
  <ele>372.0</ele>
  <time>2026-09-01T19:58:21Z</time>
  <course>83.89</course>
  <speed>25.392711552727093</speed>
  <fix>3d</fix>
</trkpt>
<trkpt lat="-27.27281" lon="151.2831396">
  <ele>372.12</ele>
  <time>2026-09-01T19:58:21Z</time>
  <course>83.46</course>
  <speed>25.43</speed>
  <fix>3d</fix>
</trkpt>
<trkpt lat="-27.2728024" lon="151.2832157">
  <ele>372.0</ele>
  <time>2026-09-01T19:58:21Z</time>
  <course>83.88</course>
  <speed>25.392711552727093</speed>
  <fix>3d</fix>
</trkpt>
<trkpt lat="-27.2728047" lon="151.2831907">
  <ele>372.12</ele>
  <time>2026-09-01T19:58:21Z</time>
  <course>83.46</course>
  <speed>25.43</speed>
  <fix>3d</fix>
</trkpt>
<trkpt lat="-27.2727998" lon="151.2832412">
  <ele>372.0</ele>
  <time>2026-09-01T19:58:21Z</time>
  <course>83.9</course>
  <speed>25.403779246403477</speed>
  <fix>3d</fix>
</trkpt>
<trkpt lat="-27.2728047" lon="151.2831907">
  <ele>372.12</ele>
  <time>2026-09-01T19:58:21Z</time>
  <course>83.46</course>
  <speed>25.43</speed>
  <fix>3d</fix>
</trkpt>
<trkpt lat="-27.2727971" lon="151.2832668">
  <ele>372.0</ele>
  <time>2026-09-01T19:58:21Z</time>
  <course>83.93</course>
  <speed>25.404914878818232</speed>
  <fix>3d</fix>
</trkpt>
<trkpt lat="-27.2727995" lon="151.2832419">
  <ele>372.12</ele>
  <time>2026-09-01T19:58:21Z</time>
  <course>83.44</course>
  <speed>25.44</speed>
  <fix>3d</fix>
</trkpt>
<trkpt lat="-27.2727945" lon="151.2832926">
  <ele>372.0</ele>
  <time>2026-09-01T19:58:21Z</time>
  <course>83.95</course>
  <speed>25.41484998972058</speed>
  <fix>3d</fix>
</trkpt>
<trkpt lat="-27.2727995" lon="151.2832419">
  <ele>372.12</ele>
  <time>2026-09-01T19:58:21Z</time>
  <course>83.44</course>
  <speed>25.44</speed>
  <fix>3d</fix>
</trkpt>
<trkpt lat="-27.2727919" lon="151.2833181">
  <ele>372.0</ele>
  <time>2026-09-01T19:58:21Z</time>
  <course>84.0</course>
  <speed>25.41484998972058</speed>
  <fix>3d</fix>
</trkpt>
<trkpt lat="-27.2727943" lon="151.283293">
  <ele>372.12</ele>
  <time>2026-09-01T19:58:21Z</time>
  <course>83.42</course>
  <speed>25.45</speed>
  <fix>3d</fix>
</trkpt>
<trkpt lat="-27.2727893" lon="151.2833437">
  <ele>372.0</ele>
  <time>2026-09-01T19:58:21Z</time>
  <course>83.94</course>
  <speed>25.424785151501283</speed>
  <fix>3d</fix>
</trkpt>
<trkpt lat="-27.2727943" lon="151.283293">
  <ele>372.12</ele>
  <time>2026-09-01T19:58:21Z</time>
  <course>83.42</course>
  <speed>25.45</speed>
  <fix>3d</fix>
</trkpt>
<trkpt lat="-27.2727866" lon="151.2833693">
  <ele>372.0</ele>
  <time>2026-09-01T19:58:21Z</time>
  <course>83.88</course>
  <speed>25.424785151501283</speed>
  <fix>3d</fix>
</trkpt>
<trkpt lat="-27.272789" lon="151.2833441">
  <ele>372.12</ele>
  <time>2026-09-01T19:58:21Z</time>
  <course>83.42</course>
  <speed>25.45</speed>
  <fix>3d</fix>
</trkpt>
<trkpt lat="-27.272784" lon="151.2833949">
  <ele>372.0</ele>
  <time>2026-09-01T19:58:21Z</time>
  <course>83.9</course>
  <speed>25.424785151501283</speed>
  <fix>3d</fix>
</trkpt>
<trkpt lat="-27.272789" lon="151.2833441">
  <ele>372.12</ele>
  <time>2026-09-01T19:58:21Z</time>
  <course>83.42</course>
  <speed>25.45</speed>
  <fix>3d</fix>
</trkpt>
<trkpt lat="-27.2727814" lon="151.2834205">
  <ele>372.01</ele>
  <time>2026-09-01T19:58:21Z</time>
  <course>83.9</course>
  <speed>25.424785151501283</speed>
  <fix>3d</fix>
</trkpt>
<trkpt lat="-27.2727838" lon="151.2833951">
  <ele>372.12</ele>
  <time>2026-09-01T19:58:21Z</time>
  <course>83.42</course>
  <speed>25.45</speed>
  <fix>3d</fix>
</trkpt>
<trkpt lat="-27.2727788" lon="151.2834462">
  <ele>372.01</ele>
  <time>2026-09-01T19:58:21Z</time>
  <course>83.93</course>
  <speed>25.424785151501283</speed>
  <fix>3d</fix>
</trkpt>
<trkpt lat="-27.2727838" lon="151.2833951">
  <ele>372.12</ele>
  <time>2026-09-01T19:58:21Z</time>
  <course>83.42</course>
  <speed>25.45</speed>
  <fix>3d</fix>
</trkpt>
<trkpt lat="-27.2727761" lon="151.2834718">
  <ele>372.01</ele>
  <time>2026-09-01T19:58:21Z</time>
  <course>83.92</course>
  <speed>25.434720364100723</speed>
  <fix>3d</fix>
</trkpt>
<trkpt lat="-27.2727786" lon="151.2834462">
  <ele>372.13</ele>
  <time>2026-09-01T19:58:21Z</time>
  <course>83.42</course>
  <speed>25.45</speed>
  <fix>3d</fix>
</trkpt>
<trkpt lat="-27.2727735" lon="151.2834974">
  <ele>372.01</ele>
  <time>2026-09-01T19:58:21Z</time>
  <course>83.95</course>
  <speed>25.433586062527635</speed>
  <fix>3d</fix>
</trkpt>
<trkpt lat="-27.2727786" lon="151.2834462">
  <ele>372.13</ele>
  <time>2026-09-01T19:58:21Z</time>
  <course>83.42</course>
  <speed>25.45</speed>
  <fix>3d</fix>
</trkpt>
<trkpt lat="-27.2727709" lon="151.283523">
  <ele>372.02</ele>
  <time>2026-09-01T19:58:21Z</time>
  <course>83.86</course>
  <speed>25.433586062527635</speed>
  <fix>3d</fix>
</trkpt>
<trkpt lat="-27.2727733" lon="151.2834973">
  <ele>372.13</ele>
  <time>2026-09-01T19:58:21Z</time>
  <course>83.42</course>
  <speed>25.44</speed>
  <fix>3d</fix>
</trkpt>
<trkpt lat="-27.2727683" lon="151.2835486">
  <ele>372.02</ele>
  <time>2026-09-01T19:58:21Z</time>
  <course>83.86</course>
  <speed>25.434720364100723</speed>
  <fix>3d</fix>
</trkpt>
<trkpt lat="-27.2727733" lon="151.2834973">
  <ele>372.13</ele>
  <time>2026-09-01T19:58:21Z</time>
  <course>83.42</course>
  <speed>25.44</speed>
  <fix>3d</fix>
</trkpt>
<trkpt lat="-27.2727657" lon="151.283574">
  <ele>372.02</ele>
  <time>2026-09-01T19:58:21Z</time>
  <course>83.86</course>
  <speed>25.434720364100723</speed>
  <fix>3d</fix>
</trkpt>
<trkpt lat="-27.2727681" lon="151.2835484">
  <ele>372.13</ele>
  <time>2026-09-01T19:58:21Z</time>
  <course>83.42</course>
  <speed>25.44</speed>
  <fix>3d</fix>
</trkpt>
<trkpt lat="-27.2727631" lon="151.2835996">
  <ele>372.02</ele>
  <time>2026-09-01T19:58:21Z</time>
  <course>83.87</course>
  <speed>25.434720364100723</speed>
  <fix>3d</fix>
</trkpt>
<trkpt lat="-27.2727681" lon="151.2835484">
  <ele>372.13</ele>
  <time>2026-09-01T19:58:21Z</time>
  <course>83.42</course>
  <speed>25.44</speed>
  <fix>3d</fix>
</trkpt>
<trkpt lat="-27.2727604" lon="151.2836251">
  <ele>372.02</ele>
  <time>2026-09-01T19:58:21Z</time>
  <course>83.9</course>
  <speed>25.424785151501283</speed>
  <fix>3d</fix>
</trkpt>
<trkpt lat="-27.2727628" lon="151.2835995">
  <ele>372.14</ele>
  <time>2026-09-01T19:58:21Z</time>
  <course>83.41</course>
  <speed>25.44</speed>
  <fix>3d</fix>
</trkpt>
<trkpt lat="-27.2727578" lon="151.2836507">
  <ele>372.02</ele>
  <time>2026-09-01T19:58:21Z</time>
  <course>83.87</course>
  <speed>25.434720364100723</speed>
  <fix>3d</fix>
</trkpt>
<trkpt lat="-27.2727628" lon="151.2835995">
  <ele>372.14</ele>
  <time>2026-09-01T19:58:21Z</time>
  <course>83.41</course>
  <speed>25.44</speed>
  <fix>3d</fix>
</trkpt>
<trkpt lat="-27.2727552" lon="151.2836765">
  <ele>372.03</ele>
  <time>2026-09-01T19:58:21Z</time>
  <course>83.9</course>
  <speed>25.424785151501283</speed>
  <fix>3d</fix>
</trkpt>
<trkpt lat="-27.2727576" lon="151.2836505">
  <ele>372.14</ele>
  <time>2026-09-01T19:58:21Z</time>
  <course>83.42</course>
  <speed>25.43</speed>
  <fix>3d</fix>
</trkpt>
<trkpt lat="-27.2727525" lon="151.2837021">
  <ele>372.03</ele>
  <time>2026-09-01T19:58:21Z</time>
  <course>83.85</course>
  <speed>25.424785151501283</speed>
  <fix>3d</fix>
</trkpt>
<trkpt lat="-27.2727576" lon="151.2836505">
  <ele>372.14</ele>
  <time>2026-09-01T19:58:21Z</time>
  <course>83.42</course>
  <speed>25.43</speed>
  <fix>3d</fix>
</trkpt>
<trkpt lat="-27.2727499" lon="151.2837276">
  <ele>372.04</ele>
  <time>2026-09-01T19:58:21Z</time>
  <course>83.83</course>
  <speed>25.424785151501283</speed>
  <fix>3d</fix>
</trkpt>
<trkpt lat="-27.2727524" lon="151.2837016">
  <ele>372.15</ele>
  <time>2026-09-01T19:58:21Z</time>
  <course>83.42</course>
  <speed>25.43</speed>
  <fix>3d</fix>
</trkpt>
<trkpt lat="-27.2727473" lon="151.2837532">
  <ele>372.04</ele>
  <time>2026-09-01T19:58:21Z</time>
  <course>83.88</course>
  <speed>25.425923778694845</speed>
  <fix>3d</fix>
</trkpt>
<trkpt lat="-27.2727524" lon="151.2837016">
  <ele>372.15</ele>
  <time>2026-09-01T19:58:21Z</time>
  <course>83.42</course>
  <speed>25.43</speed>
  <fix>3d</fix>
</trkpt>
<trkpt lat="-27.2727447" lon="151.2837787">
  <ele>372.04</ele>
  <time>2026-09-01T19:58:21Z</time>
  <course>83.89</course>
  <speed>25.41484998972058</speed>
  <fix>3d</fix>
</trkpt>
<trkpt lat="-27.2727472" lon="151.2837528">
  <ele>372.16</ele>
  <time>2026-09-01T19:58:21Z</time>
  <course>83.42</course>
  <speed>25.42</speed>
  <fix>3d</fix>
</trkpt>
<trkpt lat="-27.2727421" lon="151.2838043">
  <ele>372.05</ele>
  <time>2026-09-01T19:58:21Z</time>
  <course>83.88</course>
  <speed>25.41484998972058</speed>
  <fix>3d</fix>
</trkpt>
<trkpt lat="-27.2727472" lon="151.2837528">
  <ele>372.16</ele>
  <time>2026-09-01T19:58:21Z</time>
  <course>83.42</course>
  <speed>25.42</speed>
  <fix>3d</fix>
</trkpt>
<trkpt lat="-27.2727394" lon="151.2838298">
  <ele>372.06</ele>
  <time>2026-09-01T19:58:21Z</time>
  <course>83.92</course>
  <speed>25.41484998972058</speed>
  <fix>3d</fix>
</trkpt>
<trkpt lat="-27.2727419" lon="151.2838039">
  <ele>372.17</ele>
  <time>2026-09-01T19:58:21Z</time>
  <course>83.42</course>
  <speed>25.42</speed>
  <fix>3d</fix>
</trkpt>
<trkpt lat="-27.2727368" lon="151.2838553">
  <ele>372.06</ele>
  <time>2026-09-01T19:58:21Z</time>
  <course>83.93</course>
  <speed>25.41484998972058</speed>
  <fix>3d</fix>
</trkpt>
<trkpt lat="-27.2727419" lon="151.2838039">
  <ele>372.17</ele>
  <time>2026-09-01T19:58:21Z</time>
  <course>83.42</course>
  <speed>25.42</speed>
  <fix>3d</fix>
</trkpt>
<trkpt lat="-27.2727342" lon="151.2838809">
  <ele>372.07</ele>
  <time>2026-09-01T19:58:21Z</time>
  <course>83.91</course>
  <speed>25.404914878818232</speed>
  <fix>3d</fix>
</trkpt>
<trkpt lat="-27.2727366" lon="151.283855">
  <ele>372.18</ele>
  <time>2026-09-01T19:58:21Z</time>
  <course>83.43</course>
  <speed>25.41</speed>
  <fix>3d</fix>
</trkpt>
<trkpt lat="-27.2727316" lon="151.2839064">
  <ele>372.07</ele>
  <time>2026-09-01T19:58:21Z</time>
  <course>83.87</course>
  <speed>25.404914878818232</speed>
  <fix>3d</fix>
</trkpt>
<trkpt lat="-27.2727366" lon="151.283855">
  <ele>372.18</ele>
  <time>2026-09-01T19:58:21Z</time>
  <course>83.43</course>
  <speed>25.41</speed>
  <fix>3d</fix>
</trkpt>
<trkpt lat="-27.272729" lon="151.2839319">
  <ele>372.07</ele>
  <time>2026-09-01T19:58:21Z</time>
  <course>83.9</course>
  <speed>25.404914878818232</speed>
  <fix>3d</fix>
</trkpt>
<trkpt lat="-27.2727315" lon="151.283906">
  <ele>372.19</ele>
  <time>2026-09-01T19:58:21Z</time>
  <course>83.43</course>
  <speed>25.41</speed>
  <fix>3d</fix>
</trkpt>
<trkpt lat="-27.2727264" lon="151.2839575">
  <ele>372.07</ele>
  <time>2026-09-01T19:58:21Z</time>
  <course>83.97</course>
  <speed>25.393843742135616</speed>
  <fix>3d</fix>
</trkpt>
<trkpt lat="-27.2727315" lon="151.283906">
  <ele>372.19</ele>
  <time>2026-09-01T19:58:21Z</time>
  <course>83.43</course>
  <speed>25.41</speed>
  <fix>3d</fix>
</trkpt>
<trkpt lat="-27.2727238" lon="151.283983">
  <ele>372.07</ele>
  <time>2026-09-01T19:58:21Z</time>
  <course>83.94</course>
  <speed>25.393843742135616</speed>
  <fix>3d</fix>
</trkpt>
<trkpt lat="-27.2727263" lon="151.2839569">
  <ele>372.19</ele>
  <time>2026-09-01T19:58:21Z</time>
  <course>83.43</course>
  <speed>25.4</speed>
  <fix>3d</fix>
</trkpt>
<trkpt lat="-27.2727211" lon="151.2840087">
  <ele>372.07</ele>
  <time>2026-09-01T19:58:21Z</time>
  <course>83.95</course>
  <speed>25.393843742135616</speed>
  <fix>3d</fix>
</trkpt>
<trkpt lat="-27.2727263" lon="151.2839569">
  <ele>372.19</ele>
  <time>2026-09-01T19:58:21Z</time>
  <course>83.43</course>
  <speed>25.4</speed>
  <fix>3d</fix>
</trkpt>
<trkpt lat="-27.2727185" lon="151.2840342">
  <ele>372.07</ele>
  <time>2026-09-01T19:58:21Z</time>
  <course>83.91</course>
  <speed>25.392711552727093</speed>
  <fix>3d</fix>
</trkpt>
<trkpt lat="-27.2727211" lon="151.2840079">
  <ele>372.19</ele>
  <time>2026-09-01T19:58:21Z</time>
  <course>83.45</course>
  <speed>25.4</speed>
  <fix>3d</fix>
</trkpt>
<trkpt lat="-27.2727159" lon="151.2840598">
  <ele>372.08</ele>
  <time>2026-09-01T19:58:21Z</time>
  <course>83.89</course>
  <speed>25.38390828852011</speed>
  <fix>3d</fix>
</trkpt>
<trkpt lat="-27.2727211" lon="151.2840079">
  <ele>372.19</ele>
  <time>2026-09-01T19:58:21Z</time>
  <course>83.45</course>
  <speed>25.4</speed>
  <fix>3d</fix>
</trkpt>
<trkpt lat="-27.2727133" lon="151.2840851">
  <ele>372.08</ele>
  <time>2026-09-01T19:58:21Z</time>
  <course>83.91</course>
  <speed>25.38390828852011</speed>
  <fix>3d</fix>
</trkpt>
<trkpt lat="-27.2727159" lon="151.2840589">
  <ele>372.19</ele>
  <time>2026-09-01T19:58:21Z</time>
  <course>83.46</course>
  <speed>25.39</speed>
  <fix>3d</fix>
</trkpt>
<trkpt lat="-27.2727107" lon="151.2841106">
  <ele>372.08</ele>
  <time>2026-09-01T19:58:21Z</time>
  <course>83.9</course>
  <speed>25.38277565594433</speed>
  <fix>3d</fix>
</trkpt>
<trkpt lat="-27.2727159" lon="151.2840589">
  <ele>372.19</ele>
  <time>2026-09-01T19:58:21Z</time>
  <course>83.46</course>
  <speed>25.39</speed>
  <fix>3d</fix>
</trkpt>
<trkpt lat="-27.2727081" lon="151.2841362">
  <ele>372.09</ele>
  <time>2026-09-01T19:58:21Z</time>
  <course>83.88</course>
  <speed>25.38390828852011</speed>
  <fix>3d</fix>
</trkpt>
<trkpt lat="-27.2727107" lon="151.2841098">
  <ele>372.2</ele>
  <time>2026-09-01T19:58:21Z</time>
  <course>83.45</course>
  <speed>25.38</speed>
  <fix>3d</fix>
</trkpt>
<trkpt lat="-27.2727055" lon="151.2841617">
  <ele>372.09</ele>
  <time>2026-09-01T19:58:21Z</time>
  <course>83.91</course>
  <speed>25.37397288561647</speed>
  <fix>3d</fix>
</trkpt>
<trkpt lat="-27.2727107" lon="151.2841098">
  <ele>372.2</ele>
  <time>2026-09-01T19:58:21Z</time>
  <course>83.45</course>
  <speed>25.38</speed>
  <fix>3d</fix>
</trkpt>
<trkpt lat="-27.2727029" lon="151.2841872">
  <ele>372.09</ele>
  <time>2026-09-01T19:58:21Z</time>
  <course>83.91</course>
  <speed>25.372839809528614</speed>
  <fix>3d</fix>
</trkpt>
<trkpt lat="-27.2727055" lon="151.2841609">
  <ele>372.2</ele>
  <time>2026-09-01T19:58:21Z</time>
  <course>83.45</course>
  <speed>25.38</speed>
  <fix>3d</fix>
</trkpt>
<trkpt lat="-27.2727003" lon="151.2842129">
  <ele>372.09</ele>
  <time>2026-09-01T19:58:21Z</time>
  <course>83.93</course>
  <speed>25.372839809528614</speed>
  <fix>3d</fix>
</trkpt>
<trkpt lat="-27.2727055" lon="151.2841609">
  <ele>372.2</ele>
  <time>2026-09-01T19:58:21Z</time>
  <course>83.45</course>
  <speed>25.38</speed>
  <fix>3d</fix>
</trkpt>
<trkpt lat="-27.2726977" lon="151.2842385">
  <ele>372.09</ele>
  <time>2026-09-01T19:58:21Z</time>
  <course>83.91</course>
  <speed>25.372839809528614</speed>
  <fix>3d</fix>
</trkpt>
<trkpt lat="-27.2727002" lon="151.2842118">
  <ele>372.2</ele>
  <time>2026-09-01T19:58:21Z</time>
  <course>83.45</course>
  <speed>25.38</speed>
  <fix>3d</fix>
</trkpt>
<trkpt lat="-27.2726951" lon="151.2842639">
  <ele>372.08</ele>
  <time>2026-09-01T19:58:21Z</time>
  <course>83.92</course>
  <speed>25.37397288561647</speed>
  <fix>3d</fix>
</trkpt>
<trkpt lat="-27.2727002" lon="151.2842118">
  <ele>372.2</ele>
  <time>2026-09-01T19:58:21Z</time>
  <course>83.45</course>
  <speed>25.38</speed>
  <fix>3d</fix>
</trkpt>
<trkpt lat="-27.2726925" lon="151.2842893">
  <ele>372.08</ele>
  <time>2026-09-01T19:58:21Z</time>
  <course>83.95</course>
  <speed>25.372839809528614</speed>
  <fix>3d</fix>
</trkpt>
<trkpt lat="-27.2726951" lon="151.2842628">
  <ele>372.19</ele>
  <time>2026-09-01T19:58:21Z</time>
  <course>83.45</course>
  <speed>25.38</speed>
  <fix>3d</fix>
</trkpt>
<trkpt lat="-27.2726899" lon="151.2843146">
  <ele>372.08</ele>
  <time>2026-09-01T19:58:21Z</time>
  <course>83.96</course>
  <speed>25.36290401353914</speed>
  <fix>3d</fix>
</trkpt>
<trkpt lat="-27.2726951" lon="151.2842628">
  <ele>372.19</ele>
  <time>2026-09-01T19:58:21Z</time>
  <course>83.45</course>
  <speed>25.38</speed>
  <fix>3d</fix>
</trkpt>
<trkpt lat="-27.2726874" lon="151.28434">
  <ele>372.08</ele>
  <time>2026-09-01T19:58:21Z</time>
  <course>83.97</course>
  <speed>25.36290401353914</speed>
  <fix>3d</fix>
</trkpt>
<trkpt lat="-27.2726898" lon="151.284314">
  <ele>372.18</ele>
  <time>2026-09-01T19:58:21Z</time>
  <course>83.45</course>
  <speed>25.38</speed>
  <fix>3d</fix>
</trkpt>
<trkpt lat="-27.2726848" lon="151.2843654">
  <ele>372.08</ele>
  <time>2026-09-01T19:58:21Z</time>
  <course>83.98</course>
  <speed>25.36290401353914</speed>
  <fix>3d</fix>
</trkpt>
<trkpt lat="-27.2726898" lon="151.284314">
  <ele>372.18</ele>
  <time>2026-09-01T19:58:21Z</time>
  <course>83.45</course>
  <speed>25.38</speed>
  <fix>3d</fix>
</trkpt>
<trkpt lat="-27.2726822" lon="151.2843907">
  <ele>372.07</ele>
  <time>2026-09-01T19:58:21Z</time>
  <course>83.97</course>
  <speed>25.352968268035205</speed>
  <fix>3d</fix>
</trkpt>
<trkpt lat="-27.2726847" lon="151.2843649">
  <ele>372.18</ele>
  <time>2026-09-01T19:58:21Z</time>
  <course>83.45</course>
  <speed>25.39</speed>
  <fix>3d</fix>
</trkpt>
<trkpt lat="-27.2726796" lon="151.2844161">
  <ele>372.07</ele>
  <time>2026-09-01T19:58:21Z</time>
  <course>83.97</course>
  <speed>25.352968268035205</speed>
  <fix>3d</fix>
</trkpt>
<trkpt lat="-27.2726847" lon="151.2843649">
  <ele>372.18</ele>
  <time>2026-09-01T19:58:21Z</time>
  <course>83.45</course>
  <speed>25.39</speed>
  <fix>3d</fix>
</trkpt>
<trkpt lat="-27.272677" lon="151.2844415">
  <ele>372.06</ele>
  <time>2026-09-01T19:58:21Z</time>
  <course>83.99</course>
  <speed>25.352968268035205</speed>
  <fix>3d</fix>
</trkpt>
<trkpt lat="-27.2726795" lon="151.2844159">
  <ele>372.16</ele>
  <time>2026-09-01T19:58:21Z</time>
  <course>83.45</course>
  <speed>25.4</speed>
  <fix>3d</fix>
</trkpt>
<trkpt lat="-27.2726744" lon="151.2844668">
  <ele>372.05</ele>
  <time>2026-09-01T19:58:21Z</time>
  <course>84.01</course>
  <speed>25.351838197653436</speed>
  <fix>3d</fix>
</trkpt>
<trkpt lat="-27.2726795" lon="151.2844159">
  <ele>372.16</ele>
  <time>2026-09-01T19:58:21Z</time>
  <course>83.45</course>
  <speed>25.4</speed>
  <fix>3d</fix>
</trkpt>
<trkpt lat="-27.2726719" lon="151.2844922">
  <ele>372.05</ele>
  <time>2026-09-01T19:58:21Z</time>
  <course>84.02</course>
  <speed>25.351838197653436</speed>
  <fix>3d</fix>
</trkpt>
<trkpt lat="-27.2726743" lon="151.2844668">
  <ele>372.15</ele>
  <time>2026-09-01T19:58:21Z</time>
  <course>83.46</course>
  <speed>25.4</speed>
  <fix>3d</fix>
</trkpt>
<trkpt lat="-27.2726693" lon="151.2845176">
  <ele>372.04</ele>
  <time>2026-09-01T19:58:21Z</time>
  <course>83.99</course>
  <speed>25.351838197653436</speed>
  <fix>3d</fix>
</trkpt>
<trkpt lat="-27.2726743" lon="151.2844668">
  <ele>372.15</ele>
  <time>2026-09-01T19:58:21Z</time>
  <course>83.46</course>
  <speed>25.4</speed>
  <fix>3d</fix>
</trkpt>
<trkpt lat="-27.2726667" lon="151.284543">
  <ele>372.04</ele>
  <time>2026-09-01T19:58:21Z</time>
  <course>84.02</course>
  <speed>25.351838197653436</speed>
  <fix>3d</fix>
</trkpt>
<trkpt lat="-27.2726691" lon="151.2845179">
  <ele>372.15</ele>
  <time>2026-09-01T19:58:21Z</time>
  <course>83.47</course>
  <speed>25.41</speed>
  <fix>3d</fix>
</trkpt>
<trkpt lat="-27.2726641" lon="151.2845684">
  <ele>372.04</ele>
  <time>2026-09-01T19:58:21Z</time>
  <course>84.02</course>
  <speed>25.351838197653436</speed>
  <fix>3d</fix>
</trkpt>
<trkpt lat="-27.2726691" lon="151.2845179">
  <ele>372.15</ele>
  <time>2026-09-01T19:58:21Z</time>
  <course>83.47</course>
  <speed>25.41</speed>
  <fix>3d</fix>
</trkpt>
<trkpt lat="-27.2726615" lon="151.2845938">
  <ele>372.03</ele>
  <time>2026-09-01T19:58:21Z</time>
  <course>83.99</course>
  <speed>25.351838197653436</speed>
  <fix>3d</fix>
</trkpt>
<trkpt lat="-27.2726639" lon="151.2845689">
  <ele>372.14</ele>
  <time>2026-09-01T19:58:21Z</time>
  <course>83.47</course>
  <speed>25.41</speed>
  <fix>3d</fix>
</trkpt>
<trkpt lat="-27.272659" lon="151.2846193">
  <ele>372.03</ele>
  <time>2026-09-01T19:58:21Z</time>
  <course>83.95</course>
  <speed>25.341902059632385</speed>
  <fix>3d</fix>
</trkpt>
<trkpt lat="-27.2726639" lon="151.2845689">
  <ele>372.14</ele>
  <time>2026-09-01T19:58:21Z</time>
  <course>83.47</course>
  <speed>25.41</speed>
  <fix>3d</fix>
</trkpt>
<trkpt lat="-27.2726564" lon="151.2846447">
  <ele>372.03</ele>
  <time>2026-09-01T19:58:21Z</time>
  <course>83.91</course>
  <speed>25.341902059632385</speed>
  <fix>3d</fix>
</trkpt>
<trkpt lat="-27.2726587" lon="151.28462">
  <ele>372.13</ele>
  <time>2026-09-01T19:58:21Z</time>
  <course>83.46</course>
  <speed>25.41</speed>
  <fix>3d</fix>
</trkpt>
<trkpt lat="-27.2726538" lon="151.2846701">
  <ele>372.03</ele>
  <time>2026-09-01T19:58:21Z</time>
  <course>83.92</course>
  <speed>25.343032573076176</speed>
  <fix>3d</fix>
</trkpt>
<trkpt lat="-27.2726587" lon="151.28462">
  <ele>372.13</ele>
  <time>2026-09-01T19:58:21Z</time>
  <course>83.46</course>
  <speed>25.41</speed>
  <fix>3d</fix>
</trkpt>
<trkpt lat="-27.2726512" lon="151.2846956">
  <ele>372.02</ele>
  <time>2026-09-01T19:58:21Z</time>
  <course>83.98</course>
  <speed>25.343032573076176</speed>
  <fix>3d</fix>
</trkpt>
<trkpt lat="-27.2726534" lon="151.284671">
  <ele>372.12</ele>
  <time>2026-09-01T19:58:21Z</time>
  <course>83.45</course>
  <speed>25.42</speed>
  <fix>3d</fix>
</trkpt>
<trkpt lat="-27.2726486" lon="151.2847212">
  <ele>372.02</ele>
  <time>2026-09-01T19:58:21Z</time>
  <course>84.04</course>
  <speed>25.352968268035205</speed>
  <fix>3d</fix>
</trkpt>
<trkpt lat="-27.2726534" lon="151.284671">
  <ele>372.12</ele>
  <time>2026-09-01T19:58:21Z</time>
  <course>83.45</course>
  <speed>25.42</speed>
  <fix>3d</fix>
</trkpt>
<trkpt lat="-27.272646" lon="151.2847467">
  <ele>372.02</ele>
  <time>2026-09-01T19:58:21Z</time>
  <course>84.19</course>
  <speed>25.341902059632385</speed>
  <fix>3d</fix>
</trkpt>
<trkpt lat="-27.2726483" lon="151.284722">
  <ele>372.12</ele>
  <time>2026-09-01T19:58:21Z</time>
  <course>83.44</course>
  <speed>25.42</speed>
  <fix>3d</fix>
</trkpt>
<trkpt lat="-27.2726434" lon="151.2847722">
  <ele>372.02</ele>
  <time>2026-09-01T19:58:21Z</time>
  <course>84.49</course>
  <speed>25.348471354304582</speed>
  <fix>3d</fix>
</trkpt>
<trkpt lat="-27.2726483" lon="151.284722">
  <ele>372.12</ele>
  <time>2026-09-01T19:58:21Z</time>
  <course>83.44</course>
  <speed>25.42</speed>
  <fix>3d</fix>
</trkpt>
<trkpt lat="-27.2726409" lon="151.2847977">
  <ele>372.02</ele>
  <time>2026-09-01T19:58:21Z</time>
  <course>84.83</course>
  <speed>25.358464070207404</speed>
  <fix>3d</fix>
</trkpt>
<trkpt lat="-27.272643" lon="151.2847732">
  <ele>372.12</ele>
  <time>2026-09-01T19:58:21Z</time>
  <course>83.57</course>
  <speed>25.43</speed>
  <fix>3d</fix>
</trkpt>
<trkpt lat="-27.2726384" lon="151.2848233">
  <ele>372.03</ele>
  <time>2026-09-01T19:58:21Z</time>
  <course>85.14</course>
  <speed>25.362590561691444</speed>
  <fix>3d</fix>
</trkpt>
<trkpt lat="-27.272643" lon="151.2847732">
  <ele>372.12</ele>
  <time>2026-09-01T19:58:21Z</time>
  <course>83.57</course>
  <speed>25.43</speed>
  <fix>3d</fix>
</trkpt>
<trkpt lat="-27.2726362" lon="151.2848488">
  <ele>372.04</ele>
  <time>2026-09-01T19:58:21Z</time>
  <course>85.34</course>
  <speed>25.36004929017292</speed>
  <fix>3d</fix>
</trkpt>
<trkpt lat="-27.2726381" lon="151.2848244">
  <ele>372.14</ele>
  <time>2026-09-01T19:58:21Z</time>
  <course>84.13</course>
  <speed>25.43</speed>
  <fix>3d</fix>
</trkpt>
<trkpt lat="-27.2726341" lon="151.2848745">
  <ele>372.06</ele>
  <time>2026-09-01T19:58:21Z</time>
  <course>85.55</course>
  <speed>25.35464060088409</speed>
  <fix>3d</fix>
</trkpt>
<trkpt lat="-27.2726381" lon="151.2848244">
  <ele>372.14</ele>
  <time>2026-09-01T19:58:21Z</time>
  <course>84.13</course>
  <speed>25.43</speed>
  <fix>3d</fix>
</trkpt>
<trkpt lat="-27.2726324" lon="151.2849001">
  <ele>372.07</ele>
  <time>2026-09-01T19:58:21Z</time>
  <course>85.89</course>
  <speed>25.36045149440364</speed>
  <fix>3d</fix>
</trkpt>
<trkpt lat="-27.2726339" lon="151.2848756">
  <ele>372.16</ele>
  <time>2026-09-01T19:58:21Z</time>
  <course>85.23</course>
  <speed>25.43</speed>
  <fix>3d</fix>
</trkpt>
<trkpt lat="-27.272631" lon="151.2849258">
  <ele>372.09</ele>
  <time>2026-09-01T19:58:21Z</time>
  <course>86.37</course>
  <speed>25.367563935072678</speed>
  <fix>3d</fix>
</trkpt>
<trkpt lat="-27.2726339" lon="151.2848756">
  <ele>372.16</ele>
  <time>2026-09-01T19:58:21Z</time>
  <course>85.23</course>
  <speed>25.43</speed>
  <fix>3d</fix>
</trkpt>
<trkpt lat="-27.2726299" lon="151.2849515">
  <ele>372.12</ele>
  <time>2026-09-01T19:58:21Z</time>
  <course>86.93</course>
  <speed>25.378928267363854</speed>
  <fix>3d</fix>
</trkpt>
<trkpt lat="-27.2726307" lon="151.2849268">
  <ele>372.2</ele>
  <time>2026-09-01T19:58:21Z</time>
  <course>86.78</course>
  <speed>25.44</speed>
  <fix>3d</fix>
</trkpt>
<trkpt lat="-27.2726292" lon="151.2849772">
  <ele>372.15</ele>
  <time>2026-09-01T19:58:21Z</time>
  <course>87.64</course>
  <speed>25.37617977552965</speed>
  <fix>3d</fix>
</trkpt>
<trkpt lat="-27.2726307" lon="151.2849268">
  <ele>372.2</ele>
  <time>2026-09-01T19:58:21Z</time>
  <course>86.78</course>
  <speed>25.44</speed>
  <fix>3d</fix>
</trkpt>
<trkpt lat="-27.2726288" lon="151.2850029">
  <ele>372.19</ele>
  <time>2026-09-01T19:58:21Z</time>
  <course>88.41</course>
  <speed>25.380443258540623</speed>
  <fix>3d</fix>
</trkpt>
<trkpt lat="-27.2726288" lon="151.2849782">
  <ele>372.25</ele>
  <time>2026-09-01T19:58:21Z</time>
  <course>88.58</course>
  <speed>25.45</speed>
  <fix>3d</fix>
</trkpt>
<trkpt lat="-27.2726288" lon="151.2850287">
  <ele>372.23</ele>
  <time>2026-09-01T19:58:21Z</time>
  <course>89.23</course>
  <speed>25.38113472640654</speed>
  <fix>3d</fix>
</trkpt>
<trkpt lat="-27.2726288" lon="151.2849782">
  <ele>372.25</ele>
  <time>2026-09-01T19:58:21Z</time>
  <course>88.58</course>
  <speed>25.45</speed>
  <fix>3d</fix>
</trkpt>
<trkpt lat="-27.2726292" lon="151.2850545">
  <ele>372.28</ele>
  <time>2026-09-01T19:58:21Z</time>
  <course>90.12</course>
  <speed>25.387817944833305</speed>
  <fix>3d</fix>
</trkpt>
<trkpt lat="-27.2726284" lon="151.2850297">
  <ele>372.33</ele>
  <time>2026-09-01T19:58:21Z</time>
  <course>90.39</course>
  <speed>25.46</speed>
  <fix>3d</fix>
</trkpt>
<trkpt lat="-27.2726299" lon="151.2850803">
  <ele>372.33</ele>
  <time>2026-09-01T19:58:21Z</time>
  <course>91.0</course>
  <speed>25.390096494499584</speed>
  <fix>3d</fix>
</trkpt>
<trkpt lat="-27.2726284" lon="151.2850297">
  <ele>372.33</ele>
  <time>2026-09-01T19:58:21Z</time>
  <course>90.39</course>
  <speed>25.46</speed>
  <fix>3d</fix>
</trkpt>
<trkpt lat="-27.2726308" lon="151.285106">
  <ele>372.38</ele>
  <time>2026-09-01T19:58:21Z</time>
  <course>91.82</course>
  <speed>25.387534342665102</speed>
  <fix>3d</fix>
</trkpt>
<trkpt lat="-27.2726293" lon="151.2850811">
  <ele>372.43</ele>
  <time>2026-09-01T19:58:21Z</time>
  <course>92.13</course>
  <speed>25.46</speed>
  <fix>3d</fix>
</trkpt>
<trkpt lat="-27.2726322" lon="151.2851318">
  <ele>372.43</ele>
  <time>2026-09-01T19:58:21Z</time>
  <course>92.63</course>
  <speed>25.389692790579407</speed>
  <fix>3d</fix>
</trkpt>
<trkpt lat="-27.2726293" lon="151.2850811">
  <ele>372.43</ele>
  <time>2026-09-01T19:58:21Z</time>
  <course>92.13</course>
  <speed>25.46</speed>
  <fix>3d</fix>
</trkpt>
<trkpt lat="-27.2726339" lon="151.2851575">
  <ele>372.49</ele>
  <time>2026-09-01T19:58:21Z</time>
  <course>93.41</course>
  <speed>25.387004549572207</speed>
  <fix>3d</fix>
</trkpt>
<trkpt lat="-27.2726317" lon="151.2851324">
  <ele>372.54</ele>
  <time>2026-09-01T19:58:21Z</time>
  <course>93.81</course>
  <speed>25.45</speed>
  <fix>3d</fix>
</trkpt>
<trkpt lat="-27.2726359" lon="151.2851832">
  <ele>372.54</ele>
  <time>2026-09-01T19:58:21Z</time>
  <course>94.1</course>
  <speed>25.39844286565615</speed>
  <fix>3d</fix>
</trkpt>
<trkpt lat="-27.2726317" lon="151.2851324">
  <ele>372.54</ele>
  <time>2026-09-01T19:58:21Z</time>
  <course>93.81</course>
  <speed>25.45</speed>
  <fix>3d</fix>
</trkpt>
<trkpt lat="-27.2726382" lon="151.2852089">
  <ele>372.59</ele>
  <time>2026-09-01T19:58:21Z</time>
  <course>94.83</course>
  <speed>25.393733478951063</speed>
  <fix>3d</fix>
</trkpt>
<trkpt lat="-27.2726354" lon="151.2851837">
  <ele>372.65</ele>
  <time>2026-09-01T19:58:21Z</time>
  <course>95.41</course>
  <speed>25.45</speed>
  <fix>3d</fix>
</trkpt>
<trkpt lat="-27.2726408" lon="151.2852345">
  <ele>372.63</ele>
  <time>2026-09-01T19:58:21Z</time>
  <course>95.59</course>
  <speed>25.402332570061358</speed>
  <fix>3d</fix>
</trkpt>
<trkpt lat="-27.2726354" lon="151.2851837">
  <ele>372.65</ele>
  <time>2026-09-01T19:58:21Z</time>
  <course>95.41</course>
  <speed>25.45</speed>
  <fix>3d</fix>
</trkpt>
<trkpt lat="-27.2726437" lon="151.2852598">
  <ele>372.67</ele>
  <time>2026-09-01T19:58:21Z</time>
  <course>96.35</course>
  <speed>25.39407804981311</speed>
  <fix>3d</fix>
</trkpt>
<trkpt lat="-27.2726403" lon="151.2852348">
  <ele>372.74</ele>
  <time>2026-09-01T19:58:21Z</time>
  <course>96.94</course>
  <speed>25.44</speed>
  <fix>3d</fix>
</trkpt>
<trkpt lat="-27.2726469" lon="151.2852854">
  <ele>372.71</ele>
  <time>2026-09-01T19:58:21Z</time>
  <course>97.08</course>
  <speed>25.399842519196845</speed>
  <fix>3d</fix>
</trkpt>
<trkpt lat="-27.2726403" lon="151.2852348">
  <ele>372.74</ele>
  <time>2026-09-01T19:58:21Z</time>
  <course>96.94</course>
  <speed>25.44</speed>
  <fix>3d</fix>
</trkpt>
<trkpt lat="-27.2726504" lon="151.2853108">
  <ele>372.75</ele>
  <time>2026-09-01T19:58:21Z</time>
  <course>97.79</course>
  <speed>25.3899586451022</speed>
  <fix>3d</fix>
</trkpt>
<trkpt lat="-27.2726464" lon="151.2852858">
  <ele>372.81</ele>
  <time>2026-09-01T19:58:21Z</time>
  <course>98.42</course>
  <speed>25.43</speed>
  <fix>3d</fix>
</trkpt>
<trkpt lat="-27.2726541" lon="151.2853362">
  <ele>372.78</ele>
  <time>2026-09-01T19:58:21Z</time>
  <course>98.43</course>
  <speed>25.392364994226117</speed>
  <fix>3d</fix>
</trkpt>
<trkpt lat="-27.2726464" lon="151.2852858">
  <ele>372.81</ele>
  <time>2026-09-01T19:58:21Z</time>
  <course>98.42</course>
  <speed>25.43</speed>
  <fix>3d</fix>
</trkpt>
<trkpt lat="-27.2726582" lon="151.2853618">
  <ele>372.81</ele>
  <time>2026-09-01T19:58:21Z</time>
  <course>99.14</course>
  <speed>25.38697697639481</speed>
  <fix>3d</fix>
</trkpt>
<trkpt lat="-27.2726464" lon="151.2852858">
  <ele>372.81</ele>
  <time>2026-09-01T19:58:21Z</time>
  <course>98.42</course>
  <speed>25.43</speed>
  <fix>3d</fix>
</trkpt>
<trkpt lat="-27.2726624" lon="151.2853868">
  <ele>372.84</ele>
  <time>2026-09-01T19:58:21Z</time>
  <course>99.83</course>
  <speed>25.37939518585894</speed>
  <fix>3d</fix>
</trkpt>
<trkpt lat="-27.2726537" lon="151.2853366">
  <ele>372.88</ele>
  <time>2026-09-01T19:58:21Z</time>
  <course>99.85</course>
  <speed>25.42</speed>
  <fix>3d</fix>
</trkpt>
<trkpt lat="-27.272667" lon="151.2854119">
  <ele>372.86</ele>
  <time>2026-09-01T19:58:21Z</time>
  <course>100.54</course>
  <speed>25.36298089736299</speed>
  <fix>3d</fix>
</trkpt>
<trkpt lat="-27.2726621" lon="151.2853872">
  <ele>372.94</ele>
  <time>2026-09-01T19:58:21Z</time>
  <course>101.17</course>
  <speed>25.41</speed>
  <fix>3d</fix>
</trkpt>
<trkpt lat="-27.2726717" lon="151.2854369">
  <ele>372.88</ele>
  <time>2026-09-01T19:58:21Z</time>
  <course>101.2</course>
  <speed>25.35702072405195</speed>
  <fix>3d</fix>
</trkpt>
<trkpt lat="-27.2726621" lon="151.2853872">
  <ele>372.94</ele>
  <time>2026-09-01T19:58:21Z</time>
  <course>101.17</course>
  <speed>25.41</speed>
  <fix>3d</fix>
</trkpt>
<trkpt lat="-27.2726767" lon="151.2854619">
  <ele>372.89</ele>
  <time>2026-09-01T19:58:21Z</time>
  <course>101.76</course>
  <speed>25.351412189461954</speed>
  <fix>3d</fix>
</trkpt>
<trkpt lat="-27.2726714" lon="151.2854375">
  <ele>372.98</ele>
  <time>2026-09-01T19:58:21Z</time>
  <course>102.36</course>
  <speed>25.41</speed>
  <fix>3d</fix>
</trkpt>
<trkpt lat="-27.2726819" lon="151.2854869">
  <ele>372.9</ele>
  <time>2026-09-01T19:58:21Z</time>
  <course>102.34</course>
  <speed>25.35559307135213</speed>
  <fix>3d</fix>
</trkpt>
<trkpt lat="-27.2726714" lon="151.2854375">
  <ele>372.98</ele>
  <time>2026-09-01T19:58:21Z</time>
  <course>102.36</course>
  <speed>25.41</speed>
  <fix>3d</fix>
</trkpt>
<trkpt lat="-27.2726873" lon="151.2855119">
  <ele>372.91</ele>
  <time>2026-09-01T19:58:21Z</time>
  <course>102.9</course>
  <speed>25.349826429386063</speed>
  <fix>3d</fix>
</trkpt>
<trkpt lat="-27.2726816" lon="151.2854875">
  <ele>373.0</ele>
  <time>2026-09-01T19:58:21Z</time>
  <course>103.46</course>
  <speed>25.4</speed>
  <fix>3d</fix>
</trkpt>
<trkpt lat="-27.2726929" lon="151.2855369">
  <ele>372.92</ele>
  <time>2026-09-01T19:58:21Z</time>
  <course>103.41</course>
  <speed>25.362953298068422</speed>
  <fix>3d</fix>
</trkpt>
<trkpt lat="-27.2726816" lon="151.2854875">
  <ele>373.0</ele>
  <time>2026-09-01T19:58:21Z</time>
  <course>103.46</course>
  <speed>25.4</speed>
  <fix>3d</fix>
</trkpt>
<trkpt lat="-27.2726987" lon="151.2855619">
  <ele>372.92</ele>
  <time>2026-09-01T19:58:21Z</time>
  <course>103.93</course>
  <speed>25.365624376308975</speed>
  <fix>3d</fix>
</trkpt>
<trkpt lat="-27.2726927" lon="151.2855373">
  <ele>373.01</ele>
  <time>2026-09-01T19:58:21Z</time>
  <course>104.46</course>
  <speed>25.4</speed>
  <fix>3d</fix>
</trkpt>
<trkpt lat="-27.2727047" lon="151.2855868">
  <ele>372.92</ele>
  <time>2026-09-01T19:58:21Z</time>
  <course>104.45</course>
  <speed>25.376942290197217</speed>
  <fix>3d</fix>
</trkpt>
<trkpt lat="-27.2726927" lon="151.2855373">
  <ele>373.01</ele>
  <time>2026-09-01T19:58:21Z</time>
  <course>104.46</course>
  <speed>25.4</speed>
  <fix>3d</fix>
</trkpt>
<trkpt lat="-27.2727109" lon="151.2856116">
  <ele>372.91</ele>
  <time>2026-09-01T19:58:21Z</time>
  <course>104.9</course>
  <speed>25.37738560214586</speed>
  <fix>3d</fix>
</trkpt>
<trkpt lat="-27.2727044" lon="151.2855869">
  <ele>373.02</ele>
  <time>2026-09-01T19:58:21Z</time>
  <course>105.38</course>
  <speed>25.4</speed>
  <fix>3d</fix>
</trkpt>
<trkpt lat="-27.2727172" lon="151.2856364">
  <ele>372.91</ele>
  <time>2026-09-01T19:58:21Z</time>
  <course>105.36</course>
  <speed>25.395600012600607</speed>
  <fix>3d</fix>
</trkpt>
<trkpt lat="-27.2727044" lon="151.2855869">
  <ele>373.02</ele>
  <time>2026-09-01T19:58:21Z</time>
  <course>105.38</course>
  <speed>25.4</speed>
  <fix>3d</fix>
</trkpt>
<trkpt lat="-27.2727236" lon="151.2856612">
  <ele>372.91</ele>
  <time>2026-09-01T19:58:21Z</time>
  <course>105.77</course>
  <speed>25.402529401616686</speed>
  <fix>3d</fix>
</trkpt>
<trkpt lat="-27.2727168" lon="151.2856363">
  <ele>373.01</ele>
  <time>2026-09-01T19:58:21Z</time>
  <course>106.2</course>
  <speed>25.4</speed>
  <fix>3d</fix>
</trkpt>
<trkpt lat="-27.2727302" lon="151.2856859">
  <ele>372.9</ele>
  <time>2026-09-01T19:58:21Z</time>
  <course>106.17</course>
  <speed>25.39804126305806</speed>
  <fix>3d</fix>
</trkpt>
<trkpt lat="-27.2727168" lon="151.2856363">
  <ele>373.01</ele>
  <time>2026-09-01T19:58:21Z</time>
  <course>106.2</course>
  <speed>25.4</speed>
  <fix>3d</fix>
</trkpt>
<trkpt lat="-27.272737" lon="151.2857105">
  <ele>372.89</ele>
  <time>2026-09-01T19:58:21Z</time>
  <course>106.51</course>
  <speed>25.41065131003139</speed>
  <fix>3d</fix>
</trkpt>
<trkpt lat="-27.2727298" lon="151.2856855">
  <ele>372.99</ele>
  <time>2026-09-01T19:58:21Z</time>
  <course>106.92</course>
  <speed>25.4</speed>
  <fix>3d</fix>
</trkpt>
<trkpt lat="-27.2727438" lon="151.285735">
  <ele>372.88</ele>
  <time>2026-09-01T19:58:21Z</time>
  <course>106.86</course>
  <speed>25.40847889976887</speed>
  <fix>3d</fix>
</trkpt>
<trkpt lat="-27.2727298" lon="151.2856855">
  <ele>372.99</ele>
  <time>2026-09-01T19:58:21Z</time>
  <course>106.92</course>
  <speed>25.4</speed>
  <fix>3d</fix>
</trkpt>
<trkpt lat="-27.2727507" lon="151.2857595">
  <ele>372.87</ele>
  <time>2026-09-01T19:58:21Z</time>
  <course>107.21</course>
  <speed>25.413386236391247</speed>
  <fix>3d</fix>
</trkpt>
<trkpt lat="-27.2727433" lon="151.2857346">
  <ele>372.97</ele>
  <time>2026-09-01T19:58:21Z</time>
  <course>107.54</course>
  <speed>25.41</speed>
  <fix>3d</fix>
</trkpt>
<trkpt lat="-27.2727576" lon="151.2857836">
  <ele>372.87</ele>
  <time>2026-09-01T19:58:21Z</time>
  <course>107.53</course>
  <speed>25.406192158605744</speed>
  <fix>3d</fix>
</trkpt>
<trkpt lat="-27.2727433" lon="151.2857346">
  <ele>372.97</ele>
  <time>2026-09-01T19:58:21Z</time>
  <course>107.54</course>
  <speed>25.41</speed>
  <fix>3d</fix>
</trkpt>
<trkpt lat="-27.2727647" lon="151.2858079">
  <ele>372.86</ele>
  <time>2026-09-01T19:58:21Z</time>
  <course>107.81</course>
  <speed>25.402663246203144</speed>
  <fix>3d</fix>
</trkpt>
<trkpt lat="-27.2727573" lon="151.2857834">
  <ele>372.96</ele>
  <time>2026-09-01T19:58:21Z</time>
  <course>108.04</course>
  <speed>25.41</speed>
  <fix>3d</fix>
</trkpt>
<trkpt lat="-27.2727718" lon="151.2858322">
  <ele>372.85</ele>
  <time>2026-09-01T19:58:21Z</time>
  <course>108.09</course>
  <speed>25.39942125324906</speed>
  <fix>3d</fix>
</trkpt>
<trkpt lat="-27.2727573" lon="151.2857834">
  <ele>372.96</ele>
  <time>2026-09-01T19:58:21Z</time>
  <course>108.04</course>
  <speed>25.41</speed>
  <fix>3d</fix>
</trkpt>
<trkpt lat="-27.2727791" lon="151.2858565">
  <ele>372.85</ele>
  <time>2026-09-01T19:58:21Z</time>
  <course>108.34</course>
  <speed>25.39326682410123</speed>
  <fix>3d</fix>
</trkpt>
<trkpt lat="-27.2727573" lon="151.2857834">
  <ele>372.96</ele>
  <time>2026-09-01T19:58:21Z</time>
  <course>108.04</course>
  <speed>25.41</speed>
  <fix>3d</fix>
</trkpt>
<trkpt lat="-27.2727864" lon="151.2858808">
  <ele>372.85</ele>
  <time>2026-09-01T19:58:21Z</time>
  <course>108.51</course>
  <speed>25.371426842020533</speed>
  <fix>3d</fix>
</trkpt>
<trkpt lat="-27.2727716" lon="151.2858323">
  <ele>372.94</ele>
  <time>2026-09-01T19:58:21Z</time>
  <course>108.45</course>
  <speed>25.4</speed>
  <fix>3d</fix>
</trkpt>
<trkpt lat="-27.2727936" lon="151.2859048">
  <ele>372.84</ele>
  <time>2026-09-01T19:58:21Z</time>
  <course>108.69</course>
  <speed>25.368649944370315</speed>
  <fix>3d</fix>
</trkpt>
<trkpt lat="-27.2727716" lon="151.2858323">
  <ele>372.94</ele>
  <time>2026-09-01T19:58:21Z</time>
  <course>108.45</course>
  <speed>25.4</speed>
  <fix>3d</fix>
</trkpt>
<trkpt lat="-27.2728009" lon="151.2859288">
  <ele>372.84</ele>
  <time>2026-09-01T19:58:21Z</time>
  <course>108.89</course>
  <speed>25.35947357497785</speed>
  <fix>3d</fix>
</trkpt>
<trkpt lat="-27.2727862" lon="151.285881">
  <ele>372.93</ele>
  <time>2026-09-01T19:58:21Z</time>
  <course>108.76</course>
  <speed>25.4</speed>
  <fix>3d</fix>
</trkpt>
<trkpt lat="-27.2728085" lon="151.2859536">
  <ele>372.83</ele>
  <time>2026-09-01T19:58:21Z</time>
  <course>109.05</course>
  <speed>25.35034516530298</speed>
  <fix>3d</fix>
</trkpt>
<trkpt lat="-27.2727862" lon="151.285881">
  <ele>372.93</ele>
  <time>2026-09-01T19:58:21Z</time>
  <course>108.76</course>
  <speed>25.4</speed>
  <fix>3d</fix>
</trkpt>
<trkpt lat="-27.2728158" lon="151.2859773">
  <ele>372.82</ele>
  <time>2026-09-01T19:58:21Z</time>
  <course>109.15</course>
  <speed>25.337987291811476</speed>
  <fix>3d</fix>
</trkpt>
<trkpt lat="-27.272801" lon="151.2859296">
  <ele>372.91</ele>
  <time>2026-09-01T19:58:21Z</time>
  <course>108.97</course>
  <speed>25.4</speed>
  <fix>3d</fix>
</trkpt>
<trkpt lat="-27.2728232" lon="151.2860013">
  <ele>372.81</ele>
  <time>2026-09-01T19:58:21Z</time>
  <course>109.24</course>
  <speed>25.33510015768637</speed>
  <fix>3d</fix>
</trkpt>
<trkpt lat="-27.272801" lon="151.2859296">
  <ele>372.91</ele>
  <time>2026-09-01T19:58:21Z</time>
  <course>108.97</course>
  <speed>25.4</speed>
  <fix>3d</fix>
</trkpt>
<trkpt lat="-27.2728306" lon="151.2860253">
  <ele>372.8</ele>
  <time>2026-09-01T19:58:21Z</time>
  <course>109.38</course>
  <speed>25.328941943950202</speed>
  <fix>3d</fix>
</trkpt>
<trkpt lat="-27.2728159" lon="151.2859781">
  <ele>372.9</ele>
  <time>2026-09-01T19:58:21Z</time>
  <course>109.11</course>
  <speed>25.41</speed>
  <fix>3d</fix>
</trkpt>
<trkpt lat="-27.272838" lon="151.2860493">
  <ele>372.79</ele>
  <time>2026-09-01T19:58:21Z</time>
  <course>109.43</course>
  <speed>25.319498415253015</speed>
  <fix>3d</fix>
</trkpt>
<trkpt lat="-27.2728159" lon="151.2859781">
  <ele>372.9</ele>
  <time>2026-09-01T19:58:21Z</time>
  <course>109.11</course>
  <speed>25.41</speed>
  <fix>3d</fix>
</trkpt>
<trkpt lat="-27.2728455" lon="151.2860735">
  <ele>372.78</ele>
  <time>2026-09-01T19:58:21Z</time>
  <course>109.48</course>
  <speed>25.319498415253015</speed>
  <fix>3d</fix>
</trkpt>
<trkpt lat="-27.2728309" lon="151.2860266">
  <ele>372.89</ele>
  <time>2026-09-01T19:58:21Z</time>
  <course>109.19</course>
  <speed>25.41</speed>
  <fix>3d</fix>
</trkpt>
<trkpt lat="-27.2728527" lon="151.2860969">
  <ele>372.77</ele>
  <time>2026-09-01T19:58:21Z</time>
  <course>109.5</course>
  <speed>25.319498415253015</speed>
  <fix>3d</fix>
</trkpt>
<trkpt lat="-27.2728459" lon="151.2860752">
  <ele>372.87</ele>
  <time>2026-09-01T19:58:21Z</time>
  <course>109.21</course>
  <speed>25.42</speed>
  <fix>3d</fix>
</trkpt>
<trkpt lat="-27.2728602" lon="151.2861211">
  <ele>372.77</ele>
  <time>2026-09-01T19:58:21Z</time>
  <course>109.52</course>
  <speed>25.325654976722713</speed>
  <fix>3d</fix>
</trkpt>
<trkpt lat="-27.2728459" lon="151.2860752">
  <ele>372.87</ele>
  <time>2026-09-01T19:58:21Z</time>
  <course>109.21</course>
  <speed>25.42</speed>
  <fix>3d</fix>
</trkpt>
<trkpt lat="-27.2728677" lon="151.2861453">
  <ele>372.76</ele>
  <time>2026-09-01T19:58:21Z</time>
  <course>109.54</course>
  <speed>25.33181793713195</speed>
  <fix>3d</fix>
</trkpt>
<trkpt lat="-27.272861" lon="151.2861237">
  <ele>372.85</ele>
  <time>2026-09-01T19:58:21Z</time>
  <course>109.17</course>
  <speed>25.43</speed>
  <fix>3d</fix>
</trkpt>
<trkpt lat="-27.2728751" lon="151.2861696">
  <ele>372.75</ele>
  <time>2026-09-01T19:58:21Z</time>
  <course>109.52</course>
  <speed>25.344163036091764</speed>
  <fix>3d</fix>
</trkpt>
<trkpt lat="-27.272861" lon="151.2861237">
  <ele>372.85</ele>
  <time>2026-09-01T19:58:21Z</time>
  <course>109.17</course>
  <speed>25.43</speed>
  <fix>3d</fix>
</trkpt>
<trkpt lat="-27.2728826" lon="151.2861939">
  <ele>372.75</ele>
  <time>2026-09-01T19:58:21Z</time>
  <course>109.53</course>
  <speed>25.3532739503205</speed>
  <fix>3d</fix>
</trkpt>
<trkpt lat="-27.2728759" lon="151.2861722">
  <ele>372.84</ele>
  <time>2026-09-01T19:58:21Z</time>
  <course>109.08</course>
  <speed>25.44</speed>
  <fix>3d</fix>
</trkpt>
<trkpt lat="-27.2728901" lon="151.2862183">
  <ele>372.74</ele>
  <time>2026-09-01T19:58:21Z</time>
  <course>109.44</course>
  <speed>25.365679569055505</speed>
  <fix>3d</fix>
</trkpt>
<trkpt lat="-27.2728759" lon="151.2861722">
  <ele>372.84</ele>
  <time>2026-09-01T19:58:21Z</time>
  <course>109.08</course>
  <speed>25.44</speed>
  <fix>3d</fix>
</trkpt>
<trkpt lat="-27.2728975" lon="151.2862426">
  <ele>372.74</ele>
  <time>2026-09-01T19:58:21Z</time>
  <course>109.33</course>
  <speed>25.37487339869896</speed>
  <fix>3d</fix>
</trkpt>
<trkpt lat="-27.2728908" lon="151.2862209">
  <ele>372.83</ele>
  <time>2026-09-01T19:58:21Z</time>
  <course>108.95</course>
  <speed>25.45</speed>
  <fix>3d</fix>
</trkpt>
<trkpt lat="-27.2729049" lon="151.2862671">
  <ele>372.74</ele>
  <time>2026-09-01T19:58:21Z</time>
  <course>109.24</course>
  <speed>25.380894389284236</speed>
  <fix>3d</fix>
</trkpt>
<trkpt lat="-27.2728908" lon="151.2862209">
  <ele>372.83</ele>
  <time>2026-09-01T19:58:21Z</time>
  <course>108.95</course>
  <speed>25.45</speed>
  <fix>3d</fix>
</trkpt>
<trkpt lat="-27.2729122" lon="151.2862913">
  <ele>372.75</ele>
  <time>2026-09-01T19:58:21Z</time>
  <course>109.14</course>
  <speed>25.38699273249985</speed>
  <fix>3d</fix>
</trkpt>
<trkpt lat="-27.2729056" lon="151.2862695">
  <ele>372.83</ele>
  <time>2026-09-01T19:58:21Z</time>
  <course>108.78</course>
  <speed>25.46</speed>
  <fix>3d</fix>
</trkpt>
<trkpt lat="-27.2729195" lon="151.2863158">
  <ele>372.75</ele>
  <time>2026-09-01T19:58:21Z</time>
  <course>109.06</course>
  <speed>25.393168372615495</speed>
  <fix>3d</fix>
</trkpt>
<trkpt lat="-27.2729056" lon="151.2862695">
  <ele>372.83</ele>
  <time>2026-09-01T19:58:21Z</time>
  <course>108.78</course>
  <speed>25.46</speed>
  <fix>3d</fix>
</trkpt>
<trkpt lat="-27.2729268" lon="151.2863403">
  <ele>372.76</ele>
  <time>2026-09-01T19:58:21Z</time>
  <course>109.0</course>
  <speed>25.405739509016463</speed>
  <fix>3d</fix>
</trkpt>
<trkpt lat="-27.2729203" lon="151.2863183">
  <ele>372.83</ele>
  <time>2026-09-01T19:58:21Z</time>
  <course>108.56</course>
  <speed>25.46</speed>
  <fix>3d</fix>
</trkpt>
<trkpt lat="-27.2729341" lon="151.2863649">
  <ele>372.76</ele>
  <time>2026-09-01T19:58:21Z</time>
  <course>108.88</course>
  <speed>25.418438189629196</speed>
  <fix>3d</fix>
</trkpt>
<trkpt lat="-27.2729203" lon="151.2863183">
  <ele>372.83</ele>
  <time>2026-09-01T19:58:21Z</time>
  <course>108.56</course>
  <speed>25.46</speed>
  <fix>3d</fix>
</trkpt>
<trkpt lat="-27.2729413" lon="151.2863896">
  <ele>372.76</ele>
  <time>2026-09-01T19:58:21Z</time>
  <course>108.77</course>
  <speed>25.421764297546307</speed>
  <fix>3d</fix>
</trkpt>
<trkpt lat="-27.2729203" lon="151.2863183">
  <ele>372.83</ele>
  <time>2026-09-01T19:58:21Z</time>
  <course>108.56</course>
  <speed>25.46</speed>
  <fix>3d</fix>
</trkpt>
<trkpt lat="-27.2729485" lon="151.2864141">
  <ele>372.77</ele>
  <time>2026-09-01T19:58:21Z</time>
  <course>108.66</course>
  <speed>25.43161025181064</speed>
  <fix>3d</fix>
</trkpt>
<trkpt lat="-27.2729348" lon="151.2863672">
  <ele>372.84</ele>
  <time>2026-09-01T19:58:21Z</time>
  <course>108.32</course>
  <speed>25.46</speed>
  <fix>3d</fix>
</trkpt>
<trkpt lat="-27.2729555" lon="151.2864386">
  <ele>372.77</ele>
  <time>2026-09-01T19:58:21Z</time>
  <course>108.6</course>
  <speed>25.425675998879555</speed>
  <fix>3d</fix>
</trkpt>
<trkpt lat="-27.2729348" lon="151.2863672">
  <ele>372.84</ele>
  <time>2026-09-01T19:58:21Z</time>
  <course>108.32</course>
  <speed>25.46</speed>
  <fix>3d</fix>
</trkpt>
<trkpt lat="-27.2729628" lon="151.2864638">
  <ele>372.78</ele>
  <time>2026-09-01T19:58:21Z</time>
  <course>108.56</course>
  <speed>25.429362949157813</speed>
  <fix>3d</fix>
</trkpt>
<trkpt lat="-27.2729491" lon="151.2864162">
  <ele>372.84</ele>
  <time>2026-09-01T19:58:21Z</time>
  <course>108.05</course>
  <speed>25.46</speed>
  <fix>3d</fix>
</trkpt>
<trkpt lat="-27.2729697" lon="151.2864881">
  <ele>372.78</ele>
  <time>2026-09-01T19:58:21Z</time>
  <course>108.42</course>
  <speed>25.430125835315877</speed>
  <fix>3d</fix>
</trkpt>
<trkpt lat="-27.2729491" lon="151.2864162">
  <ele>372.84</ele>
  <time>2026-09-01T19:58:21Z</time>
  <course>108.05</course>
  <speed>25.46</speed>
  <fix>3d</fix>
</trkpt>
<trkpt lat="-27.2729765" lon="151.2865124">
  <ele>372.79</ele>
  <time>2026-09-01T19:58:21Z</time>
  <course>108.27</course>
  <speed>25.411975523362994</speed>
  <fix>3d</fix>
</trkpt>
<trkpt lat="-27.2729632" lon="151.2864652">
  <ele>372.85</ele>
  <time>2026-09-01T19:58:21Z</time>
  <course>107.79</course>
  <speed>25.47</speed>
  <fix>3d</fix>
</trkpt>
<trkpt lat="-27.2729833" lon="151.2865367">
  <ele>372.8</ele>
  <time>2026-09-01T19:58:21Z</time>
  <course>108.14</course>
  <speed>25.403495822425697</speed>
  <fix>3d</fix>
</trkpt>
<trkpt lat="-27.2729632" lon="151.2864652">
  <ele>372.85</ele>
  <time>2026-09-01T19:58:21Z</time>
  <course>107.79</course>
  <speed>25.47</speed>
  <fix>3d</fix>
</trkpt>
<trkpt lat="-27.27299" lon="151.2865609">
  <ele>372.81</ele>
  <time>2026-09-01T19:58:21Z</time>
  <course>108.01</course>
  <speed>25.382641706489103</speed>
  <fix>3d</fix>
</trkpt>
<trkpt lat="-27.272977" lon="151.2865142">
  <ele>372.87</ele>
  <time>2026-09-01T19:58:21Z</time>
  <course>107.53</course>
  <speed>25.46</speed>
  <fix>3d</fix>
</trkpt>
<trkpt lat="-27.2729968" lon="151.2865854">
  <ele>372.82</ele>
  <time>2026-09-01T19:58:21Z</time>
  <course>107.81</course>
  <speed>25.37446354112733</speed>
  <fix>3d</fix>
</trkpt>
<trkpt lat="-27.272977" lon="151.2865142">
  <ele>372.87</ele>
  <time>2026-09-01T19:58:21Z</time>
  <course>107.53</course>
  <speed>25.46</speed>
  <fix>3d</fix>
</trkpt>
<trkpt lat="-27.2730034" lon="151.2866096">
  <ele>372.82</ele>
  <time>2026-09-01T19:58:21Z</time>
  <course>107.64</course>
  <speed>25.36642860159861</speed>
  <fix>3d</fix>
</trkpt>
<trkpt lat="-27.2729907" lon="151.2865633">
  <ele>372.88</ele>
  <time>2026-09-01T19:58:21Z</time>
  <course>107.25</course>
  <speed>25.45</speed>
  <fix>3d</fix>
</trkpt>
<trkpt lat="-27.27301" lon="151.286634">
  <ele>372.83</ele>
  <time>2026-09-01T19:58:21Z</time>
  <course>107.53</course>
  <speed>25.346068728700317</speed>
  <fix>3d</fix>
</trkpt>
<trkpt lat="-27.2729907" lon="151.2865633">
  <ele>372.88</ele>
  <time>2026-09-01T19:58:21Z</time>
  <course>107.25</course>
  <speed>25.45</speed>
  <fix>3d</fix>
</trkpt>
<trkpt lat="-27.2730165" lon="151.2866582">
  <ele>372.84</ele>
  <time>2026-09-01T19:58:21Z</time>
  <course>107.44</course>
  <speed>25.33833656734396</speed>
  <fix>3d</fix>
</trkpt>
<trkpt lat="-27.2730041" lon="151.2866125">
  <ele>372.9</ele>
  <time>2026-09-01T19:58:21Z</time>
  <course>106.97</course>
  <speed>25.45</speed>
  <fix>3d</fix>
</trkpt>
<trkpt lat="-27.2730229" lon="151.2866826">
  <ele>372.84</ele>
  <time>2026-09-01T19:58:21Z</time>
  <course>107.32</course>
  <speed>25.330748113705603</speed>
  <fix>3d</fix>
</trkpt>
<trkpt lat="-27.2730041" lon="151.2866125">
  <ele>372.9</ele>
  <time>2026-09-01T19:58:21Z</time>
  <course>106.97</course>
  <speed>25.45</speed>
  <fix>3d</fix>
</trkpt>
<trkpt lat="-27.2730294" lon="151.2867071">
  <ele>372.85</ele>
  <time>2026-09-01T19:58:21Z</time>
  <course>107.18</course>
  <speed>25.323303496976852</speed>
  <fix>3d</fix>
</trkpt>
<trkpt lat="-27.2730174" lon="151.2866617">
  <ele>372.91</ele>
  <time>2026-09-01T19:58:21Z</time>
  <course>106.68</course>
  <speed>25.45</speed>
  <fix>3d</fix>
</trkpt>
<trkpt lat="-27.2730358" lon="151.2867316">
  <ele>372.85</ele>
  <time>2026-09-01T19:58:21Z</time>
  <course>107.07</course>
  <speed>25.325601671036367</speed>
  <fix>3d</fix>
</trkpt>
<trkpt lat="-27.2730174" lon="151.2866617">
  <ele>372.91</ele>
  <time>2026-09-01T19:58:21Z</time>
  <course>106.68</course>
  <speed>25.45</speed>
  <fix>3d</fix>
</trkpt>
<trkpt lat="-27.2730421" lon="151.2867563">
  <ele>372.86</ele>
  <time>2026-09-01T19:58:21Z</time>
  <course>106.93</course>
  <speed>25.32805756468506</speed>
  <fix>3d</fix>
</trkpt>
<trkpt lat="-27.2730304" lon="151.2867109">
  <ele>372.92</ele>
  <time>2026-09-01T19:58:21Z</time>
  <course>106.4</course>
  <speed>25.44</speed>
  <fix>3d</fix>
</trkpt>
<trkpt lat="-27.2730483" lon="151.2867803">
  <ele>372.86</ele>
  <time>2026-09-01T19:58:21Z</time>
  <course>106.69</course>
  <speed>25.330671132048593</speed>
  <fix>3d</fix>
</trkpt>
<trkpt lat="-27.2730432" lon="151.2867602">
  <ele>372.93</ele>
  <time>2026-09-01T19:58:21Z</time>
  <course>106.12</course>
  <speed>25.44</speed>
  <fix>3d</fix>
</trkpt>
<trkpt lat="-27.2730546" lon="151.286805">
  <ele>372.85</ele>
  <time>2026-09-01T19:58:21Z</time>
  <course>106.54</course>
  <speed>25.34306216699158</speed>
  <fix>3d</fix>
</trkpt>
<trkpt lat="-27.2730432" lon="151.2867602">
  <ele>372.93</ele>
  <time>2026-09-01T19:58:21Z</time>
  <course>106.12</course>
  <speed>25.44</speed>
  <fix>3d</fix>
</trkpt>
<trkpt lat="-27.2730608" lon="151.2868298">
  <ele>372.85</ele>
  <time>2026-09-01T19:58:21Z</time>
  <course>106.45</course>
  <speed>25.35562462255663</speed>
  <fix>3d</fix>
</trkpt>
<trkpt lat="-27.2730558" lon="151.2868097">
  <ele>372.93</ele>
  <time>2026-09-01T19:58:21Z</time>
  <course>105.82</course>
  <speed>25.44</speed>
  <fix>3d</fix>
</trkpt>
<trkpt lat="-27.273067" lon="151.2868549">
  <ele>372.86</ele>
  <time>2026-09-01T19:58:21Z</time>
  <course>106.35</course>
  <speed>25.36835824408036</speed>
  <fix>3d</fix>
</trkpt>
<trkpt lat="-27.2730558" lon="151.2868097">
  <ele>372.93</ele>
  <time>2026-09-01T19:58:21Z</time>
  <course>105.82</course>
  <speed>25.44</speed>
  <fix>3d</fix>
</trkpt>
<trkpt lat="-27.2730732" lon="151.2868799">
  <ele>372.86</ele>
  <time>2026-09-01T19:58:21Z</time>
  <course>106.25</course>
  <speed>25.383920107028384</speed>
  <fix>3d</fix>
</trkpt>
<trkpt lat="-27.2730558" lon="151.2868097">
  <ele>372.93</ele>
  <time>2026-09-01T19:58:21Z</time>
  <course>105.82</course>
  <speed>25.44</speed>
  <fix>3d</fix>
</trkpt>
<trkpt lat="-27.2730793" lon="151.286905">
  <ele>372.87</ele>
  <time>2026-09-01T19:58:21Z</time>
  <course>106.1</course>
  <speed>25.387323608446795</speed>
  <fix>3d</fix>
</trkpt>
<trkpt lat="-27.2730681" lon="151.2868593">
  <ele>372.93</ele>
  <time>2026-09-01T19:58:21Z</time>
  <course>105.53</course>
  <speed>25.44</speed>
  <fix>3d</fix>
</trkpt>
<trkpt lat="-27.2730853" lon="151.2869298">
  <ele>372.88</ele>
  <time>2026-09-01T19:58:21Z</time>
  <course>105.94</course>
  <speed>25.393497199086227</speed>
  <fix>3d</fix>
</trkpt>
<trkpt lat="-27.2730681" lon="151.2868593">
  <ele>372.93</ele>
  <time>2026-09-01T19:58:21Z</time>
  <course>105.53</course>
  <speed>25.44</speed>
  <fix>3d</fix>
</trkpt>
<trkpt lat="-27.2730912" lon="151.2869545">
  <ele>372.88</ele>
  <time>2026-09-01T19:58:21Z</time>
  <course>105.74</course>
  <speed>25.384942387171176</speed>
  <fix>3d</fix>
</trkpt>
<trkpt lat="-27.2730802" lon="151.2869089">
  <ele>372.94</ele>
  <time>2026-09-01T19:58:21Z</time>
  <course>105.25</course>
  <speed>25.44</speed>
  <fix>3d</fix>
</trkpt>
<trkpt lat="-27.2730973" lon="151.2869799">
  <ele>372.89</ele>
  <time>2026-09-01T19:58:21Z</time>
  <course>105.66</course>
  <speed>25.369479695098203</speed>
  <fix>3d</fix>
</trkpt>
<trkpt lat="-27.2730802" lon="151.2869089">
  <ele>372.94</ele>
  <time>2026-09-01T19:58:21Z</time>
  <course>105.25</course>
  <speed>25.44</speed>
  <fix>3d</fix>
</trkpt>
<trkpt lat="-27.273103" lon="151.2870043">
  <ele>372.9</ele>
  <time>2026-09-01T19:58:21Z</time>
  <course>105.57</course>
  <speed>25.356695368284882</speed>
  <fix>3d</fix>
</trkpt>
<trkpt lat="-27.2730922" lon="151.2869586">
  <ele>372.95</ele>
  <time>2026-09-01T19:58:21Z</time>
  <course>104.97</course>
  <speed>25.44</speed>
  <fix>3d</fix>
</trkpt>
<trkpt lat="-27.2731087" lon="151.2870288">
  <ele>372.91</ele>
  <time>2026-09-01T19:58:21Z</time>
  <course>105.44</course>
  <speed>25.34400323547959</speed>
  <fix>3d</fix>
</trkpt>
<trkpt lat="-27.2730922" lon="151.2869586">
  <ele>372.95</ele>
  <time>2026-09-01T19:58:21Z</time>
  <course>104.97</course>
  <speed>25.44</speed>
  <fix>3d</fix>
</trkpt>
<trkpt lat="-27.2731144" lon="151.2870535">
  <ele>372.91</ele>
  <time>2026-09-01T19:58:21Z</time>
  <course>105.32</course>
  <speed>25.343594851559633</speed>
  <fix>3d</fix>
</trkpt>
<trkpt lat="-27.273104" lon="151.2870083">
  <ele>372.97</ele>
  <time>2026-09-01T19:58:21Z</time>
  <course>104.72</course>
  <speed>25.43</speed>
  <fix>3d</fix>
</trkpt>
<trkpt lat="-27.2731201" lon="151.2870782">
  <ele>372.92</ele>
  <time>2026-09-01T19:58:22Z</time>
  <course>105.21</course>
  <speed>25.33357061292387</speed>
  <fix>3d</fix>
</trkpt>
<trkpt lat="-27.273104" lon="151.2870083">
  <ele>372.97</ele>
  <time>2026-09-01T19:58:22Z</time>
  <course>104.72</course>
  <speed>25.43</speed>
  <fix>3d</fix>
</trkpt>
<trkpt lat="-27.2731258" lon="151.2871031">
  <ele>372.92</ele>
  <time>2026-09-01T19:58:22Z</time>
  <course>105.11</course>
  <speed>25.333292324528212</speed>
  <fix>3d</fix>
</trkpt>
<trkpt lat="-27.2731155" lon="151.2870581">
  <ele>372.98</ele>
  <time>2026-09-01T19:58:22Z</time>
  <course>104.51</course>
  <speed>25.43</speed>
  <fix>3d</fix>
</trkpt>
<trkpt lat="-27.2731314" lon="151.2871279">
  <ele>372.92</ele>
  <time>2026-09-01T19:58:22Z</time>
  <course>104.95</course>
  <speed>25.323390373328767</speed>
  <fix>3d</fix>
</trkpt>
<trkpt lat="-27.2731155" lon="151.2870581">
  <ele>372.98</ele>
  <time>2026-09-01T19:58:22Z</time>
  <course>104.51</course>
  <speed>25.43</speed>
  <fix>3d</fix>
</trkpt>
<trkpt lat="-27.273137" lon="151.2871528">
  <ele>372.93</ele>
  <time>2026-09-01T19:58:22Z</time>
  <course>104.85</course>
  <speed>25.32324228845904</speed>
  <fix>3d</fix>
</trkpt>
<trkpt lat="-27.2731268" lon="151.2871078">
  <ele>372.99</ele>
  <time>2026-09-01T19:58:22Z</time>
  <course>104.33</course>
  <speed>25.43</speed>
  <fix>3d</fix>
</trkpt>
<trkpt lat="-27.2731426" lon="151.2871776">
  <ele>372.94</ele>
  <time>2026-09-01T19:58:22Z</time>
  <course>104.8</course>
  <speed>25.32559969674953</speed>
  <fix>3d</fix>
</trkpt>
<trkpt lat="-27.2731268" lon="151.2871078">
  <ele>372.99</ele>
  <time>2026-09-01T19:58:22Z</time>
  <course>104.33</course>
  <speed>25.43</speed>
  <fix>3d</fix>
</trkpt>
<trkpt lat="-27.2731481" lon="151.2872025">
  <ele>372.94</ele>
  <time>2026-09-01T19:58:22Z</time>
  <course>104.73</course>
  <speed>25.32557008242855</speed>
  <fix>3d</fix>
</trkpt>
<trkpt lat="-27.2731381" lon="151.2871576">
  <ele>373.0</ele>
  <time>2026-09-01T19:58:22Z</time>
  <course>104.15</course>
  <speed>25.42</speed>
  <fix>3d</fix>
</trkpt>
<trkpt lat="-27.2731536" lon="151.2872274">
  <ele>372.95</ele>
  <time>2026-09-01T19:58:22Z</time>
  <course>104.68</course>
  <speed>25.328018082747807</speed>
  <fix>3d</fix>
</trkpt>
<trkpt lat="-27.2731381" lon="151.2871576">
  <ele>373.0</ele>
  <time>2026-09-01T19:58:22Z</time>
  <course>104.15</course>
  <speed>25.42</speed>
  <fix>3d</fix>
</trkpt>
<trkpt lat="-27.2731591" lon="151.2872523">
  <ele>372.95</ele>
  <time>2026-09-01T19:58:22Z</time>
  <course>104.57</course>
  <speed>25.33050532460811</speed>
  <fix>3d</fix>
</trkpt>
<trkpt lat="-27.2731492" lon="151.2872075">
  <ele>373.01</ele>
  <time>2026-09-01T19:58:22Z</time>
  <course>103.98</course>
  <speed>25.42</speed>
  <fix>3d</fix>
</trkpt>
<trkpt lat="-27.2731646" lon="151.2872772">
  <ele>372.95</ele>
  <time>2026-09-01T19:58:22Z</time>
  <course>104.51</course>
  <speed>25.342742550876373</speed>
  <fix>3d</fix>
</trkpt>
<trkpt lat="-27.2731492" lon="151.2872075">
  <ele>373.01</ele>
  <time>2026-09-01T19:58:22Z</time>
  <course>103.98</course>
  <speed>25.42</speed>
  <fix>3d</fix>
</trkpt>
<trkpt lat="-27.27317" lon="151.2873022">
  <ele>372.95</ele>
  <time>2026-09-01T19:58:22Z</time>
  <course>104.45</course>
  <speed>25.345311203455363</speed>
  <fix>3d</fix>
</trkpt>
<trkpt lat="-27.2731601" lon="151.2872573">
  <ele>373.02</ele>
  <time>2026-09-01T19:58:22Z</time>
  <course>103.83</course>
  <speed>25.42</speed>
  <fix>3d</fix>
</trkpt>
<trkpt lat="-27.2731754" lon="151.2873271">
  <ele>372.96</ele>
  <time>2026-09-01T19:58:22Z</time>
  <course>104.36</course>
  <speed>25.347919046738333</speed>
  <fix>3d</fix>
</trkpt>
<trkpt lat="-27.2731601" lon="151.2872573">
  <ele>373.02</ele>
  <time>2026-09-01T19:58:22Z</time>
  <course>103.83</course>
  <speed>25.42</speed>
  <fix>3d</fix>
</trkpt>
<trkpt lat="-27.2731808" lon="151.2873521">
  <ele>372.96</ele>
  <time>2026-09-01T19:58:22Z</time>
  <course>104.35</course>
  <speed>25.352918964095633</speed>
  <fix>3d</fix>
</trkpt>
<trkpt lat="-27.273171" lon="151.2873072">
  <ele>373.02</ele>
  <time>2026-09-01T19:58:22Z</time>
  <course>103.68</course>
  <speed>25.42</speed>
  <fix>3d</fix>
</trkpt>
<trkpt lat="-27.2731861" lon="151.2873771">
  <ele>372.96</ele>
  <time>2026-09-01T19:58:22Z</time>
  <course>104.26</course>
  <speed>25.357937613299704</speed>
  <fix>3d</fix>
</trkpt>
<trkpt lat="-27.273171" lon="151.2873072">
  <ele>373.02</ele>
  <time>2026-09-01T19:58:22Z</time>
  <course>103.68</course>
  <speed>25.42</speed>
  <fix>3d</fix>
</trkpt>
<trkpt lat="-27.2731915" lon="151.2874021">
  <ele>372.96</ele>
  <time>2026-09-01T19:58:22Z</time>
  <course>104.17</course>
  <speed>25.36297498323097</speed>
  <fix>3d</fix>
</trkpt>
<trkpt lat="-27.2731818" lon="151.2873572">
  <ele>373.02</ele>
  <time>2026-09-01T19:58:22Z</time>
  <course>103.56</course>
  <speed>25.43</speed>
  <fix>3d</fix>
</trkpt>
<trkpt lat="-27.2731968" lon="151.2874271">
  <ele>372.96</ele>
  <time>2026-09-01T19:58:22Z</time>
  <course>104.08</course>
  <speed>25.36803106273721</speed>
  <fix>3d</fix>
</trkpt>
<trkpt lat="-27.2731818" lon="151.2873572">
  <ele>373.02</ele>
  <time>2026-09-01T19:58:22Z</time>
  <course>103.56</course>
  <speed>25.43</speed>
  <fix>3d</fix>
</trkpt>
<trkpt lat="-27.2732021" lon="151.287452">
  <ele>372.95</ele>
  <time>2026-09-01T19:58:22Z</time>
  <course>104.06</course>
  <speed>25.363379112413234</speed>
  <fix>3d</fix>
</trkpt>
<trkpt lat="-27.2731925" lon="151.2874072">
  <ele>373.02</ele>
  <time>2026-09-01T19:58:22Z</time>
  <course>103.46</course>
  <speed>25.43</speed>
  <fix>3d</fix>
</trkpt>
<trkpt lat="-27.2732072" lon="151.2874762">
  <ele>372.95</ele>
  <time>2026-09-01T19:58:22Z</time>
  <course>103.93</course>
  <speed>25.358742082366785</speed>
  <fix>3d</fix>
</trkpt>
<trkpt lat="-27.2731925" lon="151.2874072">
  <ele>373.02</ele>
  <time>2026-09-01T19:58:22Z</time>
  <course>103.46</course>
  <speed>25.43</speed>
  <fix>3d</fix>
</trkpt>
<trkpt lat="-27.2732126" lon="151.2875021">
  <ele>372.95</ele>
  <time>2026-09-01T19:58:22Z</time>
  <course>103.93</course>
  <speed>25.363850259769315</speed>
  <fix>3d</fix>
</trkpt>
<trkpt lat="-27.273203" lon="151.2874573">
  <ele>373.02</ele>
  <time>2026-09-01T19:58:22Z</time>
  <course>103.36</course>
  <speed>25.43</speed>
  <fix>3d</fix>
</trkpt>
<trkpt lat="-27.2732178" lon="151.2875269">
  <ele>372.95</ele>
  <time>2026-09-01T19:58:22Z</time>
  <course>103.95</course>
  <speed>25.368977117731806</speed>
  <fix>3d</fix>
</trkpt>
<trkpt lat="-27.273203" lon="151.2874573">
  <ele>373.02</ele>
  <time>2026-09-01T19:58:22Z</time>
  <course>103.36</course>
  <speed>25.43</speed>
  <fix>3d</fix>
</trkpt>
<trkpt lat="-27.2732231" lon="151.2875519">
  <ele>372.95</ele>
  <time>2026-09-01T19:58:22Z</time>
  <course>103.94</course>
  <speed>25.376414246303593</speed>
  <fix>3d</fix>
</trkpt>
<trkpt lat="-27.2732136" lon="151.2875073">
  <ele>373.02</ele>
  <time>2026-09-01T19:58:22Z</time>
  <course>103.27</course>
  <speed>25.44</speed>
  <fix>3d</fix>
</trkpt>
<trkpt lat="-27.2732283" lon="151.287577">
  <ele>372.95</ele>
  <time>2026-09-01T19:58:22Z</time>
  <course>103.9</course>
  <speed>25.383857074920666</speed>
  <fix>3d</fix>
</trkpt>
<trkpt lat="-27.2732136" lon="151.2875073">
  <ele>373.02</ele>
  <time>2026-09-01T19:58:22Z</time>
  <course>103.27</course>
  <speed>25.44</speed>
  <fix>3d</fix>
</trkpt>
<trkpt lat="-27.2732335" lon="151.2876021">
  <ele>372.95</ele>
  <time>2026-09-01T19:58:22Z</time>
  <course>103.83</course>
  <speed>25.391305598570547</speed>
  <fix>3d</fix>
</trkpt>
<trkpt lat="-27.2732241" lon="151.2875574">
  <ele>373.01</ele>
  <time>2026-09-01T19:58:22Z</time>
  <course>103.2</course>
  <speed>25.44</speed>
  <fix>3d</fix>
</trkpt>
<trkpt lat="-27.2732388" lon="151.2876274">
  <ele>372.95</ele>
  <time>2026-09-01T19:58:22Z</time>
  <course>103.82</course>
  <speed>25.389023218706154</speed>
  <fix>3d</fix>
</trkpt>
<trkpt lat="-27.2732241" lon="151.2875574">
  <ele>373.01</ele>
  <time>2026-09-01T19:58:22Z</time>
  <course>103.2</course>
  <speed>25.44</speed>
  <fix>3d</fix>
</trkpt>
<trkpt lat="-27.273244" lon="151.2876524">
  <ele>372.95</ele>
  <time>2026-09-01T19:58:22Z</time>
  <course>103.84</course>
  <speed>25.3987598122428</speed>
  <fix>3d</fix>
</trkpt>
<trkpt lat="-27.2732345" lon="151.2876074">
  <ele>373.01</ele>
  <time>2026-09-01T19:58:22Z</time>
  <course>103.15</course>
  <speed>25.44</speed>
  <fix>3d</fix>
</trkpt>
<trkpt lat="-27.2732492" lon="151.2876774">
  <ele>372.95</ele>
  <time>2026-09-01T19:58:22Z</time>
  <course>103.83</course>
  <speed>25.396482039841658</speed>
  <fix>3d</fix>
</trkpt>
<trkpt lat="-27.2732345" lon="151.2876074">
  <ele>373.01</ele>
  <time>2026-09-01T19:58:22Z</time>
  <course>103.15</course>
  <speed>25.44</speed>
  <fix>3d</fix>
</trkpt>
<trkpt lat="-27.2732543" lon="151.2877024">
  <ele>372.95</ele>
  <time>2026-09-01T19:58:22Z</time>
  <course>103.79</course>
  <speed>25.396482039841658</speed>
  <fix>3d</fix>
</trkpt>
<trkpt lat="-27.2732449" lon="151.2876575">
  <ele>373.01</ele>
  <time>2026-09-01T19:58:22Z</time>
  <course>103.12</course>
  <speed>25.45</speed>
  <fix>3d</fix>
</trkpt>
<trkpt lat="-27.2732595" lon="151.2877273">
  <ele>372.95</ele>
  <time>2026-09-01T19:58:22Z</time>
  <course>103.71</course>
  <speed>25.396482039841658</speed>
  <fix>3d</fix>
</trkpt>
<trkpt lat="-27.2732449" lon="151.2876575">
  <ele>373.01</ele>
  <time>2026-09-01T19:58:22Z</time>
  <course>103.12</course>
  <speed>25.45</speed>
  <fix>3d</fix>
</trkpt>
<trkpt lat="-27.2732647" lon="151.2877524">
  <ele>372.95</ele>
  <time>2026-09-01T19:58:22Z</time>
  <course>103.71</course>
  <speed>25.394208001038347</speed>
  <fix>3d</fix>
</trkpt>
<trkpt lat="-27.2732552" lon="151.2877076">
  <ele>373.01</ele>
  <time>2026-09-01T19:58:22Z</time>
  <course>103.1</course>
  <speed>25.45</speed>
  <fix>3d</fix>
</trkpt>
<trkpt lat="-27.2732699" lon="151.2877775">
  <ele>372.95</ele>
  <time>2026-09-01T19:58:22Z</time>
  <course>103.75</course>
  <speed>25.394208001038347</speed>
  <fix>3d</fix>
</trkpt>
<trkpt lat="-27.2732552" lon="151.2877076">
  <ele>373.01</ele>
  <time>2026-09-01T19:58:22Z</time>
  <course>103.1</course>
  <speed>25.45</speed>
  <fix>3d</fix>
</trkpt>
<trkpt lat="-27.2732751" lon="151.2878027">
  <ele>372.95</ele>
  <time>2026-09-01T19:58:22Z</time>
  <course>103.77</course>
  <speed>25.40394654379512</speed>
  <fix>3d</fix>
</trkpt>
<trkpt lat="-27.2732656" lon="151.2877576">
  <ele>373.01</ele>
  <time>2026-09-01T19:58:22Z</time>
  <course>103.09</course>
  <speed>25.44</speed>
  <fix>3d</fix>
</trkpt>
<trkpt lat="-27.2732803" lon="151.2878278">
  <ele>372.95</ele>
  <time>2026-09-01T19:58:22Z</time>
  <course>103.68</course>
  <speed>25.40394654379512</speed>
  <fix>3d</fix>
</trkpt>
<trkpt lat="-27.2732656" lon="151.2877576">
  <ele>373.01</ele>
  <time>2026-09-01T19:58:22Z</time>
  <course>103.09</course>
  <speed>25.44</speed>
  <fix>3d</fix>
</trkpt>
<trkpt lat="-27.2732855" lon="151.287853">
  <ele>372.96</ele>
  <time>2026-09-01T19:58:22Z</time>
  <course>103.62</course>
  <speed>25.41368528962299</speed>
  <fix>3d</fix>
</trkpt>
<trkpt lat="-27.2732759" lon="151.2878077">
  <ele>373.01</ele>
  <time>2026-09-01T19:58:22Z</time>
  <course>103.08</course>
  <speed>25.44</speed>
  <fix>3d</fix>
</trkpt>
<trkpt lat="-27.2732907" lon="151.2878782">
  <ele>372.96</ele>
  <time>2026-09-01T19:58:22Z</time>
  <course>103.66</course>
  <speed>25.423424238288593</speed>
  <fix>3d</fix>
</trkpt>
<trkpt lat="-27.2732759" lon="151.2878077">
  <ele>373.01</ele>
  <time>2026-09-01T19:58:22Z</time>
  <course>103.08</course>
  <speed>25.44</speed>
  <fix>3d</fix>
</trkpt>
<trkpt lat="-27.2732959" lon="151.2879034">
  <ele>372.96</ele>
  <time>2026-09-01T19:58:22Z</time>
  <course>103.72</course>
  <speed>25.423424238288593</speed>
  <fix>3d</fix>
</trkpt>
<trkpt lat="-27.2732863" lon="151.2878578">
  <ele>373.01</ele>
  <time>2026-09-01T19:58:22Z</time>
  <course>103.07</course>
  <speed>25.44</speed>
  <fix>3d</fix>
</trkpt>
<trkpt lat="-27.273301" lon="151.2879286">
  <ele>372.97</ele>
  <time>2026-09-01T19:58:22Z</time>
  <course>103.72</course>
  <speed>25.435433945580723</speed>
  <fix>3d</fix>
</trkpt>
<trkpt lat="-27.2732863" lon="151.2878578">
  <ele>373.01</ele>
  <time>2026-09-01T19:58:22Z</time>
  <course>103.07</course>
  <speed>25.44</speed>
  <fix>3d</fix>
</trkpt>
<trkpt lat="-27.2733063" lon="151.2879538">
  <ele>372.97</ele>
  <time>2026-09-01T19:58:22Z</time>
  <course>103.7</course>
  <speed>25.435433945580723</speed>
  <fix>3d</fix>
</trkpt>
<trkpt lat="-27.2732967" lon="151.287908">
  <ele>373.02</ele>
  <time>2026-09-01T19:58:22Z</time>
  <course>103.07</course>
  <speed>25.44</speed>
  <fix>3d</fix>
</trkpt>
<trkpt lat="-27.2733115" lon="151.2879789">
  <ele>372.97</ele>
  <time>2026-09-01T19:58:22Z</time>
  <course>103.73</course>
  <speed>25.447445844327877</speed>
  <fix>3d</fix>
</trkpt>
<trkpt lat="-27.2732967" lon="151.287908">
  <ele>373.02</ele>
  <time>2026-09-01T19:58:22Z</time>
  <course>103.07</course>
  <speed>25.44</speed>
  <fix>3d</fix>
</trkpt>
<trkpt lat="-27.2733167" lon="151.2880042">
  <ele>372.97</ele>
  <time>2026-09-01T19:58:22Z</time>
  <course>103.74</course>
  <speed>25.459459931428242</speed>
  <fix>3d</fix>
</trkpt>
<trkpt lat="-27.273307" lon="151.2879582">
  <ele>373.03</ele>
  <time>2026-09-01T19:58:22Z</time>
  <course>103.08</course>
  <speed>25.44</speed>
  <fix>3d</fix>
</trkpt>
<trkpt lat="-27.2733219" lon="151.2880293">
  <ele>372.97</ele>
  <time>2026-09-01T19:58:22Z</time>
  <course>103.75</course>
  <speed>25.459459931428242</speed>
  <fix>3d</fix>
</trkpt>
<trkpt lat="-27.273307" lon="151.2879582">
  <ele>373.03</ele>
  <time>2026-09-01T19:58:22Z</time>
  <course>103.08</course>
  <speed>25.44</speed>
  <fix>3d</fix>
</trkpt>
<trkpt lat="-27.2733271" lon="151.2880545">
  <ele>372.97</ele>
  <time>2026-09-01T19:58:22Z</time>
  <course>103.78</course>
  <speed>25.46173992483624</speed>
  <fix>3d</fix>
</trkpt>
<trkpt lat="-27.2733174" lon="151.2880083">
  <ele>373.04</ele>
  <time>2026-09-01T19:58:22Z</time>
  <course>103.1</course>
  <speed>25.44</speed>
  <fix>3d</fix>
</trkpt>
<trkpt lat="-27.2733323" lon="151.2880796">
  <ele>372.97</ele>
  <time>2026-09-01T19:58:22Z</time>
  <course>103.8</course>
  <speed>25.45200385038475</speed>
  <fix>3d</fix>
</trkpt>
<trkpt lat="-27.2733174" lon="151.2880083">
  <ele>373.04</ele>
  <time>2026-09-01T19:58:22Z</time>
  <course>103.1</course>
  <speed>25.44</speed>
  <fix>3d</fix>
</trkpt>
<trkpt lat="-27.2733376" lon="151.2881048">
  <ele>372.98</ele>
  <time>2026-09-01T19:58:22Z</time>
  <course>103.84</course>
  <speed>25.383857074920666</speed>
  <fix>3d</fix>
</trkpt>
<trkpt lat="-27.2733277" lon="151.2880583">
  <ele>373.04</ele>
  <time>2026-09-01T19:58:22Z</time>
  <course>103.13</course>
  <speed>25.43</speed>
  <fix>3d</fix>
</trkpt>
<trkpt lat="-27.2733428" lon="151.2881298">
  <ele>372.99</ele>
  <time>2026-09-01T19:58:22Z</time>
  <course>103.87</course>
  <speed>25.26476004239898</speed>
  <fix>3d</fix>
</trkpt>
<trkpt lat="-27.2733277" lon="151.2880583">
  <ele>373.04</ele>
  <time>2026-09-01T19:58:22Z</time>
  <course>103.13</course>
  <speed>25.43</speed>
  <fix>3d</fix>
</trkpt>
<trkpt lat="-27.273348" lon="151.2881547">
  <ele>373.01</ele>
  <time>2026-09-01T19:58:22Z</time>
  <course>103.91</course>
  <speed>25.104447813086825</speed>
  <fix>3d</fix>
</trkpt>
<trkpt lat="-27.2733381" lon="151.2881083">
  <ele>373.05</ele>
  <time>2026-09-01T19:58:22Z</time>
  <course>103.18</course>
  <speed>25.33</speed>
  <fix>3d</fix>
</trkpt>
<trkpt lat="-27.2733531" lon="151.2881792">
  <ele>373.03</ele>
  <time>2026-09-01T19:58:22Z</time>
  <course>103.93</course>
  <speed>24.95387745421541</speed>
  <fix>3d</fix>
</trkpt>
<trkpt lat="-27.2733381" lon="151.2881083">
  <ele>373.05</ele>
  <time>2026-09-01T19:58:22Z</time>
  <course>103.18</course>
  <speed>25.33</speed>
  <fix>3d</fix>
</trkpt>
<trkpt lat="-27.2733583" lon="151.2882036">
  <ele>373.07</ele>
  <time>2026-09-01T19:58:22Z</time>
  <course>104.0</course>
  <speed>24.80563242491511</speed>
  <fix>3d</fix>
</trkpt>
<trkpt lat="-27.2733485" lon="151.2881579">
  <ele>373.08</ele>
  <time>2026-09-01T19:58:22Z</time>
  <course>103.26</course>
  <speed>25.08</speed>
  <fix>3d</fix>
</trkpt>
<trkpt lat="-27.2733634" lon="151.2882278">
  <ele>373.1</ele>
  <time>2026-09-01T19:58:22Z</time>
  <course>104.07</course>
  <speed>24.669466958165106</speed>
  <fix>3d</fix>
</trkpt>
<trkpt lat="-27.2733485" lon="151.2881579">
  <ele>373.08</ele>
  <time>2026-09-01T19:58:22Z</time>
  <course>103.26</course>
  <speed>25.08</speed>
  <fix>3d</fix>
</trkpt>
<trkpt lat="-27.2733685" lon="151.2882518">
  <ele>373.15</ele>
  <time>2026-09-01T19:58:22Z</time>
  <course>104.14</course>
  <speed>24.53334465579449</speed>
  <fix>3d</fix>
</trkpt>
<trkpt lat="-27.2733588" lon="151.288207">
  <ele>373.13</ele>
  <time>2026-09-01T19:58:22Z</time>
  <course>103.37</course>
  <speed>24.8</speed>
  <fix>3d</fix>
</trkpt>
<trkpt lat="-27.2733736" lon="151.2882757">
  <ele>373.2</ele>
  <time>2026-09-01T19:58:22Z</time>
  <course>104.21</course>
  <speed>24.406984656036474</speed>
  <fix>3d</fix>
</trkpt>
<trkpt lat="-27.2733588" lon="151.288207">
  <ele>373.13</ele>
  <time>2026-09-01T19:58:22Z</time>
  <course>103.37</course>
  <speed>24.8</speed>
  <fix>3d</fix>
</trkpt>
<trkpt lat="-27.2733788" lon="151.2882996">
  <ele>373.25</ele>
  <time>2026-09-01T19:58:22Z</time>
  <course>104.29</course>
  <speed>24.26360443132883</speed>
  <fix>3d</fix>
</trkpt>
<trkpt lat="-27.2733691" lon="151.2882555">
  <ele>373.21</ele>
  <time>2026-09-01T19:58:22Z</time>
  <course>103.52</course>
  <speed>24.53</speed>
  <fix>3d</fix>
</trkpt>
<trkpt lat="-27.2733839" lon="151.2883233">
  <ele>373.3</ele>
  <time>2026-09-01T19:58:22Z</time>
  <course>104.39</course>
  <speed>24.066977375648985</speed>
  <fix>3d</fix>
</trkpt>
<trkpt lat="-27.2733691" lon="151.2882555">
  <ele>373.21</ele>
  <time>2026-09-01T19:58:22Z</time>
  <course>103.52</course>
  <speed>24.53</speed>
  <fix>3d</fix>
</trkpt>
<trkpt lat="-27.2733891" lon="151.2883468">
  <ele>373.37</ele>
  <time>2026-09-01T19:58:22Z</time>
  <course>104.48</course>
  <speed>23.821880698215246</speed>
  <fix>3d</fix>
</trkpt>
<trkpt lat="-27.2733794" lon="151.2883034">
  <ele>373.3</ele>
  <time>2026-09-01T19:58:22Z</time>
  <course>103.7</course>
  <speed>24.25</speed>
  <fix>3d</fix>
</trkpt>
<trkpt lat="-27.2733942" lon="151.2883701">
  <ele>373.46</ele>
  <time>2026-09-01T19:58:22Z</time>
  <course>104.61</course>
  <speed>23.49686149254832</speed>
  <fix>3d</fix>
</trkpt>
<trkpt lat="-27.2733794" lon="151.2883034">
  <ele>373.3</ele>
  <time>2026-09-01T19:58:22Z</time>
  <course>103.7</course>
  <speed>24.25</speed>
  <fix>3d</fix>
</trkpt>
<trkpt lat="-27.2733993" lon="151.288393">
  <ele>373.56</ele>
  <time>2026-09-01T19:58:22Z</time>
  <course>104.77</course>
  <speed>23.13076955053593</speed>
  <fix>3d</fix>
</trkpt>
<trkpt lat="-27.2733897" lon="151.2883505">
  <ele>373.43</ele>
  <time>2026-09-01T19:58:22Z</time>
  <course>103.93</course>
  <speed>23.8</speed>
  <fix>3d</fix>
</trkpt>
<trkpt lat="-27.2734044" lon="151.2884155">
  <ele>373.69</ele>
  <time>2026-09-01T19:58:22Z</time>
  <course>104.91</course>
  <speed>22.7551576571115</speed>
  <fix>3d</fix>
</trkpt>
<trkpt lat="-27.2733897" lon="151.2883505">
  <ele>373.43</ele>
  <time>2026-09-01T19:58:22Z</time>
  <course>103.93</course>
  <speed>23.8</speed>
  <fix>3d</fix>
</trkpt>
<trkpt lat="-27.2734095" lon="151.2884377">
  <ele>373.82</ele>
  <time>2026-09-01T19:58:22Z</time>
  <course>105.05</course>
  <speed>22.39658009607717</speed>
  <fix>3d</fix>
</trkpt>
<trkpt lat="-27.2734" lon="151.2883967">
  <ele>373.62</ele>
  <time>2026-09-01T19:58:22Z</time>
  <course>104.23</course>
  <speed>23.14</speed>
  <fix>3d</fix>
</trkpt>
<trkpt lat="-27.2734145" lon="151.2884595">
  <ele>373.95</ele>
  <time>2026-09-01T19:58:22Z</time>
  <course>105.17</course>
  <speed>22.047795808198153</speed>
  <fix>3d</fix>
</trkpt>
<trkpt lat="-27.2734" lon="151.2883967">
  <ele>373.62</ele>
  <time>2026-09-01T19:58:22Z</time>
  <course>104.23</course>
  <speed>23.14</speed>
  <fix>3d</fix>
</trkpt>
<trkpt lat="-27.2734195" lon="151.2884811">
  <ele>374.07</ele>
  <time>2026-09-01T19:58:22Z</time>
  <course>105.3</course>
  <speed>21.71846219233765</speed>
  <fix>3d</fix>
</trkpt>
<trkpt lat="-27.2734102" lon="151.2884414">
  <ele>373.87</ele>
  <time>2026-09-01T19:58:22Z</time>
  <course>104.55</course>
  <speed>22.41</speed>
  <fix>3d</fix>
</trkpt>
<trkpt lat="-27.2734245" lon="151.2885022">
  <ele>374.18</ele>
  <time>2026-09-01T19:58:22Z</time>
  <course>105.42</course>
  <speed>21.401460230554363</speed>
  <fix>3d</fix>
</trkpt>
<trkpt lat="-27.2734102" lon="151.2884414">
  <ele>373.87</ele>
  <time>2026-09-01T19:58:22Z</time>
  <course>104.55</course>
  <speed>22.41</speed>
  <fix>3d</fix>
</trkpt>
<trkpt lat="-27.2734295" lon="151.2885231">
  <ele>374.27</ele>
  <time>2026-09-01T19:58:22Z</time>
  <course>105.54</course>
  <speed>21.101310385850446</speed>
  <fix>3d</fix>
</trkpt>
<trkpt lat="-27.2734203" lon="151.2884844">
  <ele>374.12</ele>
  <time>2026-09-01T19:58:22Z</time>
  <course>104.82</course>
  <speed>21.72</speed>
  <fix>3d</fix>
</trkpt>
<trkpt lat="-27.2734344" lon="151.2885436">
  <ele>374.35</ele>
  <time>2026-09-01T19:58:22Z</time>
  <course>105.65</course>
  <speed>20.80384579831335</speed>
  <fix>3d</fix>
</trkpt>
<trkpt lat="-27.2734203" lon="151.2884844">
  <ele>374.12</ele>
  <time>2026-09-01T19:58:22Z</time>
  <course>104.82</course>
  <speed>21.72</speed>
  <fix>3d</fix>
</trkpt>
<trkpt lat="-27.2734393" lon="151.2885639">
  <ele>374.42</ele>
  <time>2026-09-01T19:58:22Z</time>
  <course>105.75</course>
  <speed>20.52315765178448</speed>
  <fix>3d</fix>
</trkpt>
<trkpt lat="-27.2734302" lon="151.2885263">
  <ele>374.32</ele>
  <time>2026-09-01T19:58:22Z</time>
  <course>105.08</course>
  <speed>21.09</speed>
  <fix>3d</fix>
</trkpt>
<trkpt lat="-27.2734441" lon="151.2885838">
  <ele>374.48</ele>
  <time>2026-09-01T19:58:22Z</time>
  <course>105.86</course>
  <speed>20.252172722945062</speed>
  <fix>3d</fix>
</trkpt>
<trkpt lat="-27.2734302" lon="151.2885263">
  <ele>374.32</ele>
  <time>2026-09-01T19:58:22Z</time>
  <course>105.08</course>
  <speed>21.09</speed>
  <fix>3d</fix>
</trkpt>
<trkpt lat="-27.2734489" lon="151.2886035">
  <ele>374.54</ele>
  <time>2026-09-01T19:58:22Z</time>
  <course>105.97</course>
  <speed>19.981241202688086</speed>
  <fix>3d</fix>
</trkpt>
<trkpt lat="-27.27344" lon="151.2885668">
  <ele>374.47</ele>
  <time>2026-09-01T19:58:22Z</time>
  <course>105.31</course>
  <speed>20.51</speed>
  <fix>3d</fix>
</trkpt>
<trkpt lat="-27.2734537" lon="151.2886227">
  <ele>374.58</ele>
  <time>2026-09-01T19:58:22Z</time>
  <course>106.07</course>
  <speed>19.729635070117236</speed>
  <fix>3d</fix>
</trkpt>
<trkpt lat="-27.27344" lon="151.2885668">
  <ele>374.47</ele>
  <time>2026-09-01T19:58:22Z</time>
  <course>105.31</course>
  <speed>20.51</speed>
  <fix>3d</fix>
</trkpt>
<trkpt lat="-27.2734584" lon="151.2886418">
  <ele>374.62</ele>
  <time>2026-09-01T19:58:22Z</time>
  <course>106.16</course>
  <speed>19.47806971955897</speed>
  <fix>3d</fix>
</trkpt>
<trkpt lat="-27.2734497" lon="151.2886062">
  <ele>374.59</ele>
  <time>2026-09-01T19:58:22Z</time>
  <course>105.52</course>
  <speed>19.96</speed>
  <fix>3d</fix>
</trkpt>
<trkpt lat="-27.2734631" lon="151.2886606">
  <ele>374.65</ele>
  <time>2026-09-01T19:58:22Z</time>
  <course>106.25</course>
  <speed>19.226546751822074</speed>
  <fix>3d</fix>
</trkpt>
<trkpt lat="-27.2734497" lon="151.2886062">
  <ele>374.59</ele>
  <time>2026-09-01T19:58:22Z</time>
  <course>105.52</course>
  <speed>19.96</speed>
  <fix>3d</fix>
</trkpt>
<trkpt lat="-27.2734677" lon="151.2886791">
  <ele>374.67</ele>
  <time>2026-09-01T19:58:22Z</time>
  <course>106.32</course>
  <speed>18.991600775079494</speed>
  <fix>3d</fix>
</trkpt>
<trkpt lat="-27.2734592" lon="151.2886446">
  <ele>374.67</ele>
  <time>2026-09-01T19:58:22Z</time>
  <course>105.7</course>
  <speed>19.45</speed>
  <fix>3d</fix>
</trkpt>
<trkpt lat="-27.2734724" lon="151.2886975">
  <ele>374.69</ele>
  <time>2026-09-01T19:58:22Z</time>
  <course>106.39</course>
  <speed>18.749765331864822</speed>
  <fix>3d</fix>
</trkpt>
<trkpt lat="-27.2734592" lon="151.2886446">
  <ele>374.67</ele>
  <time>2026-09-01T19:58:22Z</time>
  <course>105.7</course>
  <speed>19.45</speed>
  <fix>3d</fix>
</trkpt>
<trkpt lat="-27.2734769" lon="151.2887155">
  <ele>374.7</ele>
  <time>2026-09-01T19:58:22Z</time>
  <course>106.45</course>
  <speed>18.524470302818376</speed>
  <fix>3d</fix>
</trkpt>
<trkpt lat="-27.2734685" lon="151.2886819">
  <ele>374.72</ele>
  <time>2026-09-01T19:58:22Z</time>
  <course>105.84</course>
  <speed>18.96</speed>
  <fix>3d</fix>
</trkpt>
<trkpt lat="-27.2734814" lon="151.2887333">
  <ele>374.71</ele>
  <time>2026-09-01T19:58:22Z</time>
  <course>106.51</course>
  <speed>18.30880116228258</speed>
  <fix>3d</fix>
</trkpt>
<trkpt lat="-27.2734685" lon="151.2886819">
  <ele>374.72</ele>
  <time>2026-09-01T19:58:22Z</time>
  <course>105.84</course>
  <speed>18.96</speed>
  <fix>3d</fix>
</trkpt>
<trkpt lat="-27.273486" lon="151.288751">
  <ele>374.71</ele>
  <time>2026-09-01T19:58:22Z</time>
  <course>106.56</course>
  <speed>18.095880746733496</speed>
  <fix>3d</fix>
</trkpt>
<trkpt lat="-27.2734778" lon="151.2887183">
  <ele>374.76</ele>
  <time>2026-09-01T19:58:22Z</time>
  <course>105.96</course>
  <speed>18.51</speed>
  <fix>3d</fix>
</trkpt>
<trkpt lat="-27.2734904" lon="151.2887684">
  <ele>374.71</ele>
  <time>2026-09-01T19:58:22Z</time>
  <course>106.61</course>
  <speed>17.88022650863238</speed>
  <fix>3d</fix>
</trkpt>
<trkpt lat="-27.2734778" lon="151.2887183">
  <ele>374.76</ele>
  <time>2026-09-01T19:58:22Z</time>
  <course>105.96</course>
  <speed>18.51</speed>
  <fix>3d</fix>
</trkpt>
<trkpt lat="-27.2734948" lon="151.2887856">
  <ele>374.71</ele>
  <time>2026-09-01T19:58:22Z</time>
  <course>106.65</course>
  <speed>17.6838033239459</speed>
  <fix>3d</fix>
</trkpt>
<trkpt lat="-27.2734868" lon="151.2887539">
  <ele>374.77</ele>
  <time>2026-09-01T19:58:22Z</time>
  <course>106.04</course>
  <speed>18.08</speed>
  <fix>3d</fix>
</trkpt>
<trkpt lat="-27.2734991" lon="151.2888027">
  <ele>374.69</ele>
  <time>2026-09-01T19:58:22Z</time>
  <course>106.68</course>
  <speed>17.490140079484785</speed>
  <fix>3d</fix>
</trkpt>
<trkpt lat="-27.2734868" lon="151.2887539">
  <ele>374.77</ele>
  <time>2026-09-01T19:58:22Z</time>
  <course>106.04</course>
  <speed>18.08</speed>
  <fix>3d</fix>
</trkpt>
<trkpt lat="-27.2735035" lon="151.2888195">
  <ele>374.68</ele>
  <time>2026-09-01T19:58:22Z</time>
  <course>106.7</course>
  <speed>17.30333204905922</speed>
  <fix>3d</fix>
</trkpt>
<trkpt lat="-27.2734957" lon="151.2887886">
  <ele>374.76</ele>
  <time>2026-09-01T19:58:22Z</time>
  <course>106.1</course>
  <speed>17.68</speed>
  <fix>3d</fix>
</trkpt>
<trkpt lat="-27.2735078" lon="151.2888362">
  <ele>374.66</ele>
  <time>2026-09-01T19:58:22Z</time>
  <course>106.72</course>
  <speed>17.128899556013515</speed>
  <fix>3d</fix>
</trkpt>
<trkpt lat="-27.2734957" lon="151.2887886">
  <ele>374.76</ele>
  <time>2026-09-01T19:58:22Z</time>
  <course>106.1</course>
  <speed>17.68</speed>
  <fix>3d</fix>
</trkpt>
<trkpt lat="-27.273512" lon="151.2888527">
  <ele>374.63</ele>
  <time>2026-09-01T19:58:22Z</time>
  <course>106.74</course>
  <speed>16.951701979447375</speed>
  <fix>3d</fix>
</trkpt>
<trkpt lat="-27.2735045" lon="151.2888226">
  <ele>374.73</ele>
  <time>2026-09-01T19:58:22Z</time>
  <course>106.15</course>
  <speed>17.31</speed>
  <fix>3d</fix>
</trkpt>
<trkpt lat="-27.2735162" lon="151.2888691">
  <ele>374.6</ele>
  <time>2026-09-01T19:58:22Z</time>
  <course>106.76</course>
  <speed>16.78688178310671</speed>
  <fix>3d</fix>
</trkpt>
<trkpt lat="-27.2735045" lon="151.2888226">
  <ele>374.73</ele>
  <time>2026-09-01T19:58:22Z</time>
  <course>106.15</course>
  <speed>17.31</speed>
  <fix>3d</fix>
</trkpt>
<trkpt lat="-27.2735204" lon="151.2888853">
  <ele>374.56</ele>
  <time>2026-09-01T19:58:22Z</time>
  <course>106.78</course>
  <speed>16.631671593679332</speed>
  <fix>3d</fix>
</trkpt>
<trkpt lat="-27.273513" lon="151.2888559">
  <ele>374.69</ele>
  <time>2026-09-01T19:58:22Z</time>
  <course>106.17</course>
  <speed>16.95</speed>
  <fix>3d</fix>
</trkpt>
<trkpt lat="-27.2735245" lon="151.2889013">
  <ele>374.51</ele>
  <time>2026-09-01T19:58:22Z</time>
  <course>106.79</course>
  <speed>16.476461998863712</speed>
  <fix>3d</fix>
</trkpt>
<trkpt lat="-27.273513" lon="151.2888559">
  <ele>374.69</ele>
  <time>2026-09-01T19:58:22Z</time>
  <course>106.17</course>
  <speed>16.95</speed>
  <fix>3d</fix>
</trkpt>
<trkpt lat="-27.2735287" lon="151.2889173">
  <ele>374.45</ele>
  <time>2026-09-01T19:58:22Z</time>
  <course>106.8</course>
  <speed>16.330860357005076</speed>
  <fix>3d</fix>
</trkpt>
<trkpt lat="-27.2735215" lon="151.2888885">
  <ele>374.61</ele>
  <time>2026-09-01T19:58:22Z</time>
  <course>106.18</course>
  <speed>16.63</speed>
  <fix>3d</fix>
</trkpt>
<trkpt lat="-27.2735327" lon="151.2889331">
  <ele>374.38</ele>
  <time>2026-09-01T19:58:22Z</time>
  <course>106.8</course>
  <speed>16.194866470582582</speed>
  <fix>3d</fix>
</trkpt>
<trkpt lat="-27.2735215" lon="151.2888885">
  <ele>374.61</ele>
  <time>2026-09-01T19:58:22Z</time>
  <course>106.18</course>
  <speed>16.63</speed>
  <fix>3d</fix>
</trkpt>
<trkpt lat="-27.2735368" lon="151.2889487">
  <ele>374.3</ele>
  <time>2026-09-01T19:58:22Z</time>
  <course>106.79</course>
  <speed>16.07125384031999</speed>
  <fix>3d</fix>
</trkpt>
<trkpt lat="-27.2735297" lon="151.2889205">
  <ele>374.49</ele>
  <time>2026-09-01T19:58:22Z</time>
  <course>106.18</course>
  <speed>16.33</speed>
  <fix>3d</fix>
</trkpt>
<trkpt lat="-27.2735408" lon="151.2889641">
  <ele>374.22</ele>
  <time>2026-09-01T19:58:22Z</time>
  <course>106.79</course>
  <speed>15.954475861024077</speed>
  <fix>3d</fix>
</trkpt>
<trkpt lat="-27.2735297" lon="151.2889205">
  <ele>374.49</ele>
  <time>2026-09-01T19:58:22Z</time>
  <course>106.18</course>
  <speed>16.33</speed>
  <fix>3d</fix>
</trkpt>
<trkpt lat="-27.2735447" lon="151.2889795">
  <ele>374.12</ele>
  <time>2026-09-01T19:58:22Z</time>
  <course>106.78</course>
  <speed>15.83086226331339</speed>
  <fix>3d</fix>
</trkpt>
<trkpt lat="-27.2735378" lon="151.288952">
  <ele>374.34</ele>
  <time>2026-09-01T19:58:22Z</time>
  <course>106.17</course>
  <speed>16.07</speed>
  <fix>3d</fix>
</trkpt>
<trkpt lat="-27.2735486" lon="151.2889948">
  <ele>374.02</ele>
  <time>2026-09-01T19:58:22Z</time>
  <course>106.77</course>
  <speed>15.723695494380447</speed>
  <fix>3d</fix>
</trkpt>
<trkpt lat="-27.2735378" lon="151.288952">
  <ele>374.34</ele>
  <time>2026-09-01T19:58:22Z</time>
  <course>106.17</course>
  <speed>16.07</speed>
  <fix>3d</fix>
</trkpt>
<trkpt lat="-27.2735525" lon="151.2890099">
  <ele>373.91</ele>
  <time>2026-09-01T19:58:22Z</time>
  <course>106.76</course>
  <speed>15.619298959940553</speed>
  <fix>3d</fix>
</trkpt>
<trkpt lat="-27.2735458" lon="151.2889829">
  <ele>374.16</ele>
  <time>2026-09-01T19:58:22Z</time>
  <course>106.14</course>
  <speed>15.83</speed>
  <fix>3d</fix>
</trkpt>
<trkpt lat="-27.2735564" lon="151.2890249">
  <ele>373.79</ele>
  <time>2026-09-01T19:58:22Z</time>
  <course>106.75</course>
  <speed>15.51490251339015</speed>
  <fix>3d</fix>
</trkpt>
<trkpt lat="-27.2735458" lon="151.2889829">
  <ele>374.16</ele>
  <time>2026-09-01T19:58:22Z</time>
  <course>106.14</course>
  <speed>15.83</speed>
  <fix>3d</fix>
</trkpt>
<trkpt lat="-27.2735603" lon="151.2890399">
  <ele>373.68</ele>
  <time>2026-09-01T19:58:22Z</time>
  <course>106.73</course>
  <speed>15.420116731075677</speed>
  <fix>3d</fix>
</trkpt>
<trkpt lat="-27.2735537" lon="151.2890135">
  <ele>373.96</ele>
  <time>2026-09-01T19:58:22Z</time>
  <course>106.11</course>
  <speed>15.62</speed>
  <fix>3d</fix>
</trkpt>
<trkpt lat="-27.2735641" lon="151.2890548">
  <ele>373.56</ele>
  <time>2026-09-01T19:58:22Z</time>
  <course>106.72</course>
  <speed>15.334943756010324</speed>
  <fix>3d</fix>
</trkpt>
<trkpt lat="-27.2735537" lon="151.2890135">
  <ele>373.96</ele>
  <time>2026-09-01T19:58:22Z</time>
  <course>106.11</course>
  <speed>15.62</speed>
  <fix>3d</fix>
</trkpt>
<trkpt lat="-27.2735678" lon="151.2890695">
  <ele>373.45</ele>
  <time>2026-09-01T19:58:22Z</time>
  <course>106.7</course>
  <speed>15.249773768813752</speed>
  <fix>3d</fix>
</trkpt>
<trkpt lat="-27.2735614" lon="151.2890436">
  <ele>373.73</ele>
  <time>2026-09-01T19:58:22Z</time>
  <course>106.06</course>
  <speed>15.44</speed>
  <fix>3d</fix>
</trkpt>
<trkpt lat="-27.2735716" lon="151.2890842">
  <ele>373.35</ele>
  <time>2026-09-01T19:58:22Z</time>
  <course>106.69</course>
  <speed>15.164606819828862</speed>
  <fix>3d</fix>
</trkpt>
<trkpt lat="-27.2735614" lon="151.2890436">
  <ele>373.73</ele>
  <time>2026-09-01T19:58:22Z</time>
  <course>106.06</course>
  <speed>15.44</speed>
  <fix>3d</fix>
</trkpt>
<trkpt lat="-27.2735753" lon="151.2890989">
  <ele>373.25</ele>
  <time>2026-09-01T19:58:22Z</time>
  <course>106.66</course>
  <speed>15.079442960534053</speed>
  <fix>3d</fix>
</trkpt>
<trkpt lat="-27.273569" lon="151.2890734">
  <ele>373.51</ele>
  <time>2026-09-01T19:58:22Z</time>
  <course>106.0</course>
  <speed>15.27</speed>
  <fix>3d</fix>
</trkpt>
<trkpt lat="-27.2735791" lon="151.2891135">
  <ele>373.16</ele>
  <time>2026-09-01T19:58:22Z</time>
  <course>106.63</course>
  <speed>15.006641862855261</speed>
  <fix>3d</fix>
</trkpt>
<trkpt lat="-27.273569" lon="151.2890734">
  <ele>373.51</ele>
  <time>2026-09-01T19:58:22Z</time>
  <course>106.0</course>
  <speed>15.27</speed>
  <fix>3d</fix>
</trkpt>
<trkpt lat="-27.2735828" lon="151.2891281">
  <ele>373.08</ele>
  <time>2026-09-01T19:58:22Z</time>
  <course>106.6</course>
  <speed>14.921481159724058</speed>
  <fix>3d</fix>
</trkpt>
<trkpt lat="-27.2735765" lon="151.289103">
  <ele>373.31</ele>
  <time>2026-09-01T19:58:22Z</time>
  <course>105.94</course>
  <speed>15.11</speed>
  <fix>3d</fix>
</trkpt>
<trkpt lat="-27.2735865" lon="151.2891426">
  <ele>373.0</ele>
  <time>2026-09-01T19:58:22Z</time>
  <course>106.57</course>
  <speed>14.8459422065425</speed>
  <fix>3d</fix>
</trkpt>
<trkpt lat="-27.2735765" lon="151.289103">
  <ele>373.31</ele>
  <time>2026-09-01T19:58:22Z</time>
  <course>105.94</course>
  <speed>15.11</speed>
  <fix>3d</fix>
</trkpt>
<trkpt lat="-27.2735901" lon="151.2891571">
  <ele>372.93</ele>
  <time>2026-09-01T19:58:22Z</time>
  <course>106.54</course>
  <speed>14.770409608402877</speed>
  <fix>3d</fix>
</trkpt>
<trkpt lat="-27.2735839" lon="151.2891322">
  <ele>373.14</ele>
  <time>2026-09-01T19:58:22Z</time>
  <course>105.86</course>
  <speed>14.95</speed>
  <fix>3d</fix>
</trkpt>
<trkpt lat="-27.2735938" lon="151.2891715">
  <ele>372.87</ele>
  <time>2026-09-01T19:58:22Z</time>
  <course>106.5</course>
  <speed>14.694883463301096</speed>
  <fix>3d</fix>
</trkpt>
<trkpt lat="-27.2735839" lon="151.2891322">
  <ele>373.14</ele>
  <time>2026-09-01T19:58:22Z</time>
  <course>105.86</course>
  <speed>14.95</speed>
  <fix>3d</fix>
</trkpt>
<trkpt lat="-27.2735974" lon="151.289186">
  <ele>372.82</ele>
  <time>2026-09-01T19:58:22Z</time>
  <course>106.48</course>
  <speed>14.60973990185999</speed>
  <fix>3d</fix>
</trkpt>
<trkpt lat="-27.2735912" lon="151.2891612">
  <ele>373.0</ele>
  <time>2026-09-01T19:58:22Z</time>
  <course>105.78</course>
  <speed>14.79</speed>
  <fix>3d</fix>
</trkpt>
<trkpt lat="-27.273601" lon="151.2892002">
  <ele>372.78</ele>
  <time>2026-09-01T19:58:22Z</time>
  <course>106.45</course>
  <speed>14.53422512554419</speed>
  <fix>3d</fix>
</trkpt>
<trkpt lat="-27.2735912" lon="151.2891612">
  <ele>373.0</ele>
  <time>2026-09-01T19:58:22Z</time>
  <course>105.78</course>
  <speed>14.79</speed>
  <fix>3d</fix>
</trkpt>
<trkpt lat="-27.2736045" lon="151.2892144">
  <ele>372.74</ele>
  <time>2026-09-01T19:58:22Z</time>
  <course>106.42</course>
  <speed>14.449089936739961</speed>
  <fix>3d</fix>
</trkpt>
<trkpt lat="-27.2735984" lon="151.2891898">
  <ele>372.9</ele>
  <time>2026-09-01T19:58:22Z</time>
  <course>105.7</course>
  <speed>14.63</speed>
  <fix>3d</fix>
</trkpt>
<trkpt lat="-27.273608" lon="151.2892285">
  <ele>372.72</ele>
  <time>2026-09-01T19:58:22Z</time>
  <course>106.38</course>
  <speed>14.373586887064759</speed>
  <fix>3d</fix>
</trkpt>
<trkpt lat="-27.2735984" lon="151.2891898">
  <ele>372.9</ele>
  <time>2026-09-01T19:58:22Z</time>
  <course>105.7</course>
  <speed>14.63</speed>
  <fix>3d</fix>
</trkpt>
<trkpt lat="-27.2736115" lon="151.2892425">
  <ele>372.7</ele>
  <time>2026-09-01T19:58:22Z</time>
  <course>106.35</course>
  <speed>14.288460378921165</speed>
  <fix>3d</fix>
</trkpt>
<trkpt lat="-27.2736055" lon="151.2892181">
  <ele>372.83</ele>
  <time>2026-09-01T19:58:22Z</time>
  <course>105.62</course>
  <speed>14.47</speed>
  <fix>3d</fix>
</trkpt>
<trkpt lat="-27.273615" lon="151.2892564">
  <ele>372.7</ele>
  <time>2026-09-01T19:58:22Z</time>
  <course>106.31</course>
  <speed>14.203337635922058</speed>
  <fix>3d</fix>
</trkpt>
<trkpt lat="-27.2736055" lon="151.2892181">
  <ele>372.83</ele>
  <time>2026-09-01T19:58:22Z</time>
  <course>105.62</course>
  <speed>14.47</speed>
  <fix>3d</fix>
</trkpt>
<trkpt lat="-27.2736184" lon="151.2892701">
  <ele>372.69</ele>
  <time>2026-09-01T19:58:22Z</time>
  <course>106.28</course>
  <speed>14.118218726170806</speed>
  <fix>3d</fix>
</trkpt>
<trkpt lat="-27.2736124" lon="151.2892461">
  <ele>372.8</ele>
  <time>2026-09-01T19:58:22Z</time>
  <course>105.53</course>
  <speed>14.3</speed>
  <fix>3d</fix>
</trkpt>
<trkpt lat="-27.2736217" lon="151.2892838">
  <ele>372.69</ele>
  <time>2026-09-01T19:58:22Z</time>
  <course>106.24</course>
  <speed>14.03310371942002</speed>
  <fix>3d</fix>
</trkpt>
<trkpt lat="-27.2736124" lon="151.2892461">
  <ele>372.8</ele>
  <time>2026-09-01T19:58:22Z</time>
  <course>105.53</course>
  <speed>14.3</speed>
  <fix>3d</fix>
</trkpt>
<trkpt lat="-27.2736251" lon="151.2892974">
  <ele>372.7</ele>
  <time>2026-09-01T19:58:22Z</time>
  <course>106.21</course>
  <speed>13.935684410892778</speed>
  <fix>3d</fix>
</trkpt>
<trkpt lat="-27.2736192" lon="151.2892738">
  <ele>372.79</ele>
  <time>2026-09-01T19:58:22Z</time>
  <course>105.45</course>
  <speed>14.13</speed>
  <fix>3d</fix>
</trkpt>
<trkpt lat="-27.2736284" lon="151.2893109">
  <ele>372.71</ele>
  <time>2026-09-01T19:58:22Z</time>
  <course>106.17</course>
  <speed>13.840942886956798</speed>
  <fix>3d</fix>
</trkpt>
<trkpt lat="-27.2736192" lon="151.2892738">
  <ele>372.79</ele>
  <time>2026-09-01T19:58:22Z</time>
  <course>105.45</course>
  <speed>14.13</speed>
  <fix>3d</fix>
</trkpt>
<trkpt lat="-27.2736317" lon="151.2893244">
  <ele>372.73</ele>
  <time>2026-09-01T19:58:22Z</time>
  <course>106.14</course>
  <speed>13.755842395142508</speed>
  <fix>3d</fix>
</trkpt>
<trkpt lat="-27.2736259" lon="151.2893012">
  <ele>372.8</ele>
  <time>2026-09-01T19:58:22Z</time>
  <course>105.37</course>
  <speed>13.95</speed>
  <fix>3d</fix>
</trkpt>
<trkpt lat="-27.273635" lon="151.2893377">
  <ele>372.75</ele>
  <time>2026-09-01T19:58:22Z</time>
  <course>106.11</course>
  <speed>13.661105372553129</speed>
  <fix>3d</fix>
</trkpt>
<trkpt lat="-27.2736259" lon="151.2893012">
  <ele>372.8</ele>
  <time>2026-09-01T19:58:22Z</time>
  <course>105.37</course>
  <speed>13.95</speed>
  <fix>3d</fix>
</trkpt>
<trkpt lat="-27.2736382" lon="151.2893509">
  <ele>372.77</ele>
  <time>2026-09-01T19:58:22Z</time>
  <course>106.07</course>
  <speed>13.566370185130584</speed>
  <fix>3d</fix>
</trkpt>
<trkpt lat="-27.2736325" lon="151.2893282">
  <ele>372.84</ele>
  <time>2026-09-01T19:58:22Z</time>
  <course>105.3</course>
  <speed>13.77</speed>
  <fix>3d</fix>
</trkpt>
<trkpt lat="-27.2736414" lon="151.2893641">
  <ele>372.8</ele>
  <time>2026-09-01T19:58:22Z</time>
  <course>106.04</course>
  <speed>13.46899031108123</speed>
  <fix>3d</fix>
</trkpt>
<trkpt lat="-27.2736325" lon="151.2893282">
  <ele>372.84</ele>
  <time>2026-09-01T19:58:22Z</time>
  <course>105.3</course>
  <speed>13.77</speed>
  <fix>3d</fix>
</trkpt>
<trkpt lat="-27.2736445" lon="151.2893771">
  <ele>372.82</ele>
  <time>2026-09-01T19:58:22Z</time>
  <course>106.01</course>
  <speed>13.374262596494807</speed>
  <fix>3d</fix>
</trkpt>
<trkpt lat="-27.2736389" lon="151.2893548">
  <ele>372.88</ele>
  <time>2026-09-01T19:58:22Z</time>
  <course>105.23</course>
  <speed>13.59</speed>
  <fix>3d</fix>
</trkpt>
<trkpt lat="-27.2736476" lon="151.2893901">
  <ele>372.85</ele>
  <time>2026-09-01T19:58:22Z</time>
  <course>105.98</course>
  <speed>13.279536889515386</speed>
  <fix>3d</fix>
</trkpt>
<trkpt lat="-27.2736389" lon="151.2893548">
  <ele>372.88</ele>
  <time>2026-09-01T19:58:22Z</time>
  <course>105.23</course>
  <speed>13.59</speed>
  <fix>3d</fix>
</trkpt>
<trkpt lat="-27.2736508" lon="151.289403">
  <ele>372.88</ele>
  <time>2026-09-01T19:58:22Z</time>
  <course>105.95</course>
  <speed>13.18481323341366</speed>
  <fix>3d</fix>
</trkpt>
<trkpt lat="-27.2736453" lon="151.2893812">
  <ele>372.93</ele>
  <time>2026-09-01T19:58:22Z</time>
  <course>105.17</course>
  <speed>13.41</speed>
  <fix>3d</fix>
</trkpt>
<trkpt lat="-27.2736539" lon="151.2894159">
  <ele>372.91</ele>
  <time>2026-09-01T19:58:22Z</time>
  <course>105.92</course>
  <speed>13.08044341756043</speed>
  <fix>3d</fix>
</trkpt>
<trkpt lat="-27.2736453" lon="151.2893812">
  <ele>372.93</ele>
  <time>2026-09-01T19:58:22Z</time>
  <course>105.17</course>
  <speed>13.41</speed>
  <fix>3d</fix>
</trkpt>
<trkpt lat="-27.2736569" lon="151.2894287">
  <ele>372.93</ele>
  <time>2026-09-01T19:58:22Z</time>
  <course>105.89</course>
  <speed>12.985722929432924</speed>
  <fix>3d</fix>
</trkpt>
<trkpt lat="-27.2736516" lon="151.2894072">
  <ele>372.99</ele>
  <time>2026-09-01T19:58:22Z</time>
  <course>105.1</course>
  <speed>13.21</speed>
  <fix>3d</fix>
</trkpt>
<trkpt lat="-27.27366" lon="151.2894414">
  <ele>372.96</ele>
  <time>2026-09-01T19:58:22Z</time>
  <course>105.86</course>
  <speed>12.88838624498816</speed>
  <fix>3d</fix>
</trkpt>
<trkpt lat="-27.2736516" lon="151.2894072">
  <ele>372.99</ele>
  <time>2026-09-01T19:58:22Z</time>
  <course>105.1</course>
  <speed>13.21</speed>
  <fix>3d</fix>
</trkpt>
<trkpt lat="-27.273663" lon="151.2894541">
  <ele>373.0</ele>
  <time>2026-09-01T19:58:22Z</time>
  <course>105.84</course>
  <speed>12.78402127657804</speed>
  <fix>3d</fix>
</trkpt>
<trkpt lat="-27.2736577" lon="151.2894328">
  <ele>373.05</ele>
  <time>2026-09-01T19:58:22Z</time>
  <course>105.05</course>
  <speed>13.02</speed>
  <fix>3d</fix>
</trkpt>
<trkpt lat="-27.273666" lon="151.2894666">
  <ele>373.03</ele>
  <time>2026-09-01T19:58:22Z</time>
  <course>105.81</course>
  <speed>12.670003946329297</speed>
  <fix>3d</fix>
</trkpt>
<trkpt lat="-27.2736577" lon="151.2894328">
  <ele>373.05</ele>
  <time>2026-09-01T19:58:22Z</time>
  <course>105.05</course>
  <speed>13.02</speed>
  <fix>3d</fix>
</trkpt>
<trkpt lat="-27.2736689" lon="151.289479">
  <ele>373.06</ele>
  <time>2026-09-01T19:58:22Z</time>
  <course>105.79</course>
  <speed>12.553378031430425</speed>
  <fix>3d</fix>
</trkpt>
<trkpt lat="-27.2736638" lon="151.2894581">
  <ele>373.11</ele>
  <time>2026-09-01T19:58:22Z</time>
  <course>105.0</course>
  <speed>12.81</speed>
  <fix>3d</fix>
</trkpt>
<trkpt lat="-27.2736719" lon="151.2894913">
  <ele>373.1</ele>
  <time>2026-09-01T19:58:22Z</time>
  <course>105.77</course>
  <speed>12.439360916059957</speed>
  <fix>3d</fix>
</trkpt>
<trkpt lat="-27.2736638" lon="151.2894581">
  <ele>373.11</ele>
  <time>2026-09-01T19:58:22Z</time>
  <course>105.0</course>
  <speed>12.81</speed>
  <fix>3d</fix>
</trkpt>
<trkpt lat="-27.2736748" lon="151.2895035">
  <ele>373.14</ele>
  <time>2026-09-01T19:58:22Z</time>
  <course>105.74</course>
  <speed>12.313086534252896</speed>
  <fix>3d</fix>
</trkpt>
<trkpt lat="-27.2736697" lon="151.2894829">
  <ele>373.17</ele>
  <time>2026-09-01T19:58:22Z</time>
  <course>104.95</course>
  <speed>12.57</speed>
  <fix>3d</fix>
</trkpt>
<trkpt lat="-27.2736776" lon="151.2895156">
  <ele>373.17</ele>
  <time>2026-09-01T19:58:22Z</time>
  <course>105.72</course>
  <speed>12.177158946158173</speed>
  <fix>3d</fix>
</trkpt>
<trkpt lat="-27.2736697" lon="151.2894829">
  <ele>373.17</ele>
  <time>2026-09-01T19:58:22Z</time>
  <course>104.95</course>
  <speed>12.57</speed>
  <fix>3d</fix>
</trkpt>
<trkpt lat="-27.2736805" lon="151.2895275">
  <ele>373.21</ele>
  <time>2026-09-01T19:58:22Z</time>
  <course>105.7</course>
  <speed>12.03157512547713</speed>
  <fix>3d</fix>
</trkpt>
<trkpt lat="-27.2736754" lon="151.2895072">
  <ele>373.24</ele>
  <time>2026-09-01T19:58:22Z</time>
  <course>104.91</course>
  <speed>12.32</speed>
  <fix>3d</fix>
</trkpt>
<trkpt lat="-27.2736832" lon="151.2895393">
  <ele>373.25</ele>
  <time>2026-09-01T19:58:22Z</time>
  <course>105.69</course>
  <speed>11.89565046561137</speed>
  <fix>3d</fix>
</trkpt>
<trkpt lat="-27.2736754" lon="151.2895072">
  <ele>373.24</ele>
  <time>2026-09-01T19:58:22Z</time>
  <course>104.91</course>
  <speed>12.32</speed>
  <fix>3d</fix>
</trkpt>
<trkpt lat="-27.273686" lon="151.2895509">
  <ele>373.29</ele>
  <time>2026-09-01T19:58:22Z</time>
  <course>105.67</course>
  <speed>11.750068084909126</speed>
  <fix>3d</fix>
</trkpt>
<trkpt lat="-27.2736811" lon="151.2895309">
  <ele>373.31</ele>
  <time>2026-09-01T19:58:22Z</time>
  <course>104.88</course>
  <speed>12.04</speed>
  <fix>3d</fix>
</trkpt>
<trkpt lat="-27.2736887" lon="151.2895624">
  <ele>373.32</ele>
  <time>2026-09-01T19:58:22Z</time>
  <course>105.65</course>
  <speed>11.604486201465363</speed>
  <fix>3d</fix>
</trkpt>
<trkpt lat="-27.2736811" lon="151.2895309">
  <ele>373.31</ele>
  <time>2026-09-01T19:58:22Z</time>
  <course>104.88</course>
  <speed>12.04</speed>
  <fix>3d</fix>
</trkpt>
<trkpt lat="-27.2736914" lon="151.2895737">
  <ele>373.35</ele>
  <time>2026-09-01T19:58:22Z</time>
  <course>105.64</course>
  <speed>11.458904834232634</speed>
  <fix>3d</fix>
</trkpt>
<trkpt lat="-27.2736866" lon="151.2895542">
  <ele>373.38</ele>
  <time>2026-09-01T19:58:22Z</time>
  <course>104.85</course>
  <speed>11.75</speed>
  <fix>3d</fix>
</trkpt>
<trkpt lat="-27.273694" lon="151.2895849">
  <ele>373.38</ele>
  <time>2026-09-01T19:58:22Z</time>
  <course>105.62</course>
  <speed>11.313324003138952</speed>
  <fix>3d</fix>
</trkpt>
<trkpt lat="-27.2736866" lon="151.2895542">
  <ele>373.38</ele>
  <time>2026-09-01T19:58:22Z</time>
  <course>104.85</course>
  <speed>11.75</speed>
  <fix>3d</fix>
</trkpt>
<trkpt lat="-27.2736966" lon="151.2895959">
  <ele>373.41</ele>
  <time>2026-09-01T19:58:22Z</time>
  <course>105.6</course>
  <speed>11.158082272505432</speed>
  <fix>3d</fix>
</trkpt>
<trkpt lat="-27.2736918" lon="151.2895768">
  <ele>373.44</ele>
  <time>2026-09-01T19:58:22Z</time>
  <course>104.83</course>
  <speed>11.46</speed>
  <fix>3d</fix>
</trkpt>
<trkpt lat="-27.2736991" lon="151.2896067">
  <ele>373.43</ele>
  <time>2026-09-01T19:58:22Z</time>
  <course>105.58</course>
  <speed>11.022164034344616</speed>
  <fix>3d</fix>
</trkpt>
<trkpt lat="-27.2736918" lon="151.2895768">
  <ele>373.44</ele>
  <time>2026-09-01T19:58:22Z</time>
  <course>104.83</course>
  <speed>11.46</speed>
  <fix>3d</fix>
</trkpt>
<trkpt lat="-27.2737016" lon="151.2896174">
  <ele>373.44</ele>
  <time>2026-09-01T19:58:22Z</time>
  <course>105.55</course>
  <speed>10.876584941975123</speed>
  <fix>3d</fix>
</trkpt>
<trkpt lat="-27.2736971" lon="151.289599">
  <ele>373.49</ele>
  <time>2026-09-01T19:58:22Z</time>
  <course>104.81</course>
  <speed>11.16</speed>
  <fix>3d</fix>
</trkpt>
<trkpt lat="-27.2737041" lon="151.2896279">
  <ele>373.46</ele>
  <time>2026-09-01T19:58:22Z</time>
  <course>105.52</course>
  <speed>10.721343199431683</speed>
  <fix>3d</fix>
</trkpt>
<trkpt lat="-27.2736971" lon="151.289599">
  <ele>373.49</ele>
  <time>2026-09-01T19:58:22Z</time>
  <course>104.81</course>
  <speed>11.16</speed>
  <fix>3d</fix>
</trkpt>
<trkpt lat="-27.2737066" lon="151.2896383">
  <ele>373.48</ele>
  <time>2026-09-01T19:58:22Z</time>
  <course>105.5</course>
  <speed>10.575764747761744</speed>
  <fix>3d</fix>
</trkpt>
<trkpt lat="-27.2737022" lon="151.2896205">
  <ele>373.53</ele>
  <time>2026-09-01T19:58:22Z</time>
  <course>104.79</course>
  <speed>10.88</speed>
  <fix>3d</fix>
</trkpt>
<trkpt lat="-27.273709" lon="151.2896486">
  <ele>373.5</ele>
  <time>2026-09-01T19:58:22Z</time>
  <course>105.48</course>
  <speed>10.420523019503387</speed>
  <fix>3d</fix>
</trkpt>
<trkpt lat="-27.2737022" lon="151.2896205">
  <ele>373.53</ele>
  <time>2026-09-01T19:58:22Z</time>
  <course>104.79</course>
  <speed>10.88</speed>
  <fix>3d</fix>
</trkpt>
<trkpt lat="-27.2737113" lon="151.2896588">
  <ele>373.52</ele>
  <time>2026-09-01T19:58:22Z</time>
  <course>105.46</course>
  <speed>10.26528129181076</speed>
  <fix>3d</fix>
</trkpt>
<trkpt lat="-27.2737071" lon="151.2896415">
  <ele>373.56</ele>
  <time>2026-09-01T19:58:22Z</time>
  <course>104.77</course>
  <speed>10.58</speed>
  <fix>3d</fix>
</trkpt>
<trkpt lat="-27.2737137" lon="151.2896688">
  <ele>373.55</ele>
  <time>2026-09-01T19:58:22Z</time>
  <course>105.45</course>
  <speed>10.097806692544674</speed>
  <fix>3d</fix>
</trkpt>
<trkpt lat="-27.2737071" lon="151.2896415">
  <ele>373.56</ele>
  <time>2026-09-01T19:58:22Z</time>
  <course>104.77</course>
  <speed>10.58</speed>
  <fix>3d</fix>
</trkpt>
<trkpt lat="-27.273716" lon="151.2896787">
  <ele>373.58</ele>
  <time>2026-09-01T19:58:22Z</time>
  <course>105.44</course>
  <speed>9.923235359498433</speed>
  <fix>3d</fix>
</trkpt>
<trkpt lat="-27.2737118" lon="151.2896619">
  <ele>373.6</ele>
  <time>2026-09-01T19:58:22Z</time>
  <course>104.75</course>
  <speed>10.26</speed>
  <fix>3d</fix>
</trkpt>
<trkpt lat="-27.2737182" lon="151.2896883">
  <ele>373.61</ele>
  <time>2026-09-01T19:58:22Z</time>
  <course>105.43</course>
  <speed>9.746096654558686</speed>
  <fix>3d</fix>
</trkpt>
<trkpt lat="-27.2737118" lon="151.2896619">
  <ele>373.6</ele>
  <time>2026-09-01T19:58:22Z</time>
  <course>104.75</course>
  <speed>10.26</speed>
  <fix>3d</fix>
</trkpt>
<trkpt lat="-27.2737205" lon="151.2896979">
  <ele>373.65</ele>
  <time>2026-09-01T19:58:22Z</time>
  <course>105.42</course>
  <speed>9.56896023609671</speed>
  <fix>3d</fix>
</trkpt>
<trkpt lat="-27.2737165" lon="151.2896817">
  <ele>373.66</ele>
  <time>2026-09-01T19:58:22Z</time>
  <course>104.73</course>
  <speed>9.92</speed>
  <fix>3d</fix>
</trkpt>
<trkpt lat="-27.2737226" lon="151.2897072">
  <ele>373.7</ele>
  <time>2026-09-01T19:58:22Z</time>
  <course>105.42</course>
  <speed>9.382158600236941</speed>
  <fix>3d</fix>
</trkpt>
<trkpt lat="-27.2737165" lon="151.2896817">
  <ele>373.66</ele>
  <time>2026-09-01T19:58:22Z</time>
  <course>104.73</course>
  <speed>9.92</speed>
  <fix>3d</fix>
</trkpt>
<trkpt lat="-27.2737248" lon="151.2897163">
  <ele>373.74</ele>
  <time>2026-09-01T19:58:22Z</time>
  <course>105.42</course>
  <speed>9.185689957754942</speed>
  <fix>3d</fix>
</trkpt>
<trkpt lat="-27.2737209" lon="151.2897007">
  <ele>373.74</ele>
  <time>2026-09-01T19:58:22Z</time>
  <course>104.7</course>
  <speed>9.56</speed>
  <fix>3d</fix>
</trkpt>
<trkpt lat="-27.2737268" lon="151.2897253">
  <ele>373.79</ele>
  <time>2026-09-01T19:58:22Z</time>
  <course>105.41</course>
  <speed>8.989221323340526</speed>
  <fix>3d</fix>
</trkpt>
<trkpt lat="-27.2737209" lon="151.2897007">
  <ele>373.74</ele>
  <time>2026-09-01T19:58:22Z</time>
  <course>104.7</course>
  <speed>9.56</speed>
  <fix>3d</fix>
</trkpt>
<trkpt lat="-27.2737289" lon="151.2897341">
  <ele>373.84</ele>
  <time>2026-09-01T19:58:22Z</time>
  <course>105.41</course>
  <speed>8.790199087620257</speed>
  <fix>3d</fix>
</trkpt>
<trkpt lat="-27.2737252" lon="151.289719">
  <ele>373.83</ele>
  <time>2026-09-01T19:58:22Z</time>
  <course>104.68</course>
  <speed>9.18</speed>
  <fix>3d</fix>
</trkpt>
<trkpt lat="-27.2737309" lon="151.2897426">
  <ele>373.89</ele>
  <time>2026-09-01T19:58:22Z</time>
  <course>105.41</course>
  <speed>8.59373027270463</speed>
  <fix>3d</fix>
</trkpt>
<trkpt lat="-27.2737252" lon="151.289719">
  <ele>373.83</ele>
  <time>2026-09-01T19:58:22Z</time>
  <course>104.68</course>
  <speed>9.18</speed>
  <fix>3d</fix>
</trkpt>
<trkpt lat="-27.2737328" lon="151.289751">
  <ele>373.94</ele>
  <time>2026-09-01T19:58:22Z</time>
  <course>105.41</course>
  <speed>8.397261458356528</speed>
  <fix>3d</fix>
</trkpt>
<trkpt lat="-27.2737293" lon="151.2897366">
  <ele>373.92</ele>
  <time>2026-09-01T19:58:22Z</time>
  <course>104.67</course>
  <speed>8.78</speed>
  <fix>3d</fix>
</trkpt>
<trkpt lat="-27.2737347" lon="151.2897592">
  <ele>373.99</ele>
  <time>2026-09-01T19:58:22Z</time>
  <course>105.41</course>
  <speed>8.200792644616739</speed>
  <fix>3d</fix>
</trkpt>
<trkpt lat="-27.2737293" lon="151.2897366">
  <ele>373.92</ele>
  <time>2026-09-01T19:58:22Z</time>
  <course>104.67</course>
  <speed>8.78</speed>
  <fix>3d</fix>
</trkpt>
<trkpt lat="-27.2737366" lon="151.2897672">
  <ele>374.04</ele>
  <time>2026-09-01T19:58:22Z</time>
  <course>105.4</course>
  <speed>7.992108607870641</speed>
  <fix>3d</fix>
</trkpt>
<trkpt lat="-27.2737332" lon="151.2897534">
  <ele>374.02</ele>
  <time>2026-09-01T19:58:22Z</time>
  <course>104.65</course>
  <speed>8.38</speed>
  <fix>3d</fix>
</trkpt>
<trkpt lat="-27.2737384" lon="151.2897749">
  <ele>374.08</ele>
  <time>2026-09-01T19:58:22Z</time>
  <course>105.4</course>
  <speed>7.795639806969022</speed>
  <fix>3d</fix>
</trkpt>
<trkpt lat="-27.2737332" lon="151.2897534">
  <ele>374.02</ele>
  <time>2026-09-01T19:58:22Z</time>
  <course>104.65</course>
  <speed>8.38</speed>
  <fix>3d</fix>
</trkpt>
<trkpt lat="-27.2737401" lon="151.2897824">
  <ele>374.11</ele>
  <time>2026-09-01T19:58:22Z</time>
  <course>105.4</course>
  <speed>7.599171007419164</speed>
  <fix>3d</fix>
</trkpt>
<trkpt lat="-27.2737369" lon="151.2897694">
  <ele>374.11</ele>
  <time>2026-09-01T19:58:22Z</time>
  <course>104.63</course>
  <speed>7.97</speed>
  <fix>3d</fix>
</trkpt>
<trkpt lat="-27.2737418" lon="151.2897898">
  <ele>374.15</ele>
  <time>2026-09-01T19:58:22Z</time>
  <course>105.4</course>
  <speed>7.390493894185963</speed>
  <fix>3d</fix>
</trkpt>
<trkpt lat="-27.2737369" lon="151.2897694">
  <ele>374.11</ele>
  <time>2026-09-01T19:58:22Z</time>
  <course>104.63</course>
  <speed>7.97</speed>
  <fix>3d</fix>
</trkpt>
<trkpt lat="-27.2737434" lon="151.2897969">
  <ele>374.18</ele>
  <time>2026-09-01T19:58:22Z</time>
  <course>105.4</course>
  <speed>7.194025298815677</speed>
  <fix>3d</fix>
</trkpt>
<trkpt lat="-27.2737404" lon="151.2897846">
  <ele>374.18</ele>
  <time>2026-09-01T19:58:22Z</time>
  <course>104.6</course>
  <speed>7.57</speed>
  <fix>3d</fix>
</trkpt>
<trkpt lat="-27.273745" lon="151.2898039">
  <ele>374.2</ele>
  <time>2026-09-01T19:58:22Z</time>
  <course>105.39</course>
  <speed>6.987882368786699</speed>
  <fix>3d</fix>
</trkpt>
<trkpt lat="-27.2737404" lon="151.2897846">
  <ele>374.18</ele>
  <time>2026-09-01T19:58:22Z</time>
  <course>104.6</course>
  <speed>7.57</speed>
  <fix>3d</fix>
</trkpt>
<trkpt lat="-27.2737466" lon="151.2898107">
  <ele>374.21</ele>
  <time>2026-09-01T19:58:22Z</time>
  <course>105.38</course>
  <speed>6.801088148230399</speed>
  <fix>3d</fix>
</trkpt>
<trkpt lat="-27.2737438" lon="151.289799">
  <ele>374.24</ele>
  <time>2026-09-01T19:58:22Z</time>
  <course>104.57</course>
  <speed>7.17</speed>
  <fix>3d</fix>
</trkpt>
<trkpt lat="-27.2737481" lon="151.2898172">
  <ele>374.22</ele>
  <time>2026-09-01T19:58:22Z</time>
  <course>105.37</course>
  <speed>6.602098151345525</speed>
  <fix>3d</fix>
</trkpt>
<trkpt lat="-27.2737438" lon="151.289799">
  <ele>374.24</ele>
  <time>2026-09-01T19:58:22Z</time>
  <course>104.57</course>
  <speed>7.17</speed>
  <fix>3d</fix>
</trkpt>
<trkpt lat="-27.2737496" lon="151.2898236">
  <ele>374.17</ele>
  <time>2026-09-01T19:58:22Z</time>
  <course>105.36</course>
  <speed>6.364400993023617</speed>
  <fix>3d</fix>
</trkpt>
<trkpt lat="-27.2737469" lon="151.2898126">
  <ele>374.28</ele>
  <time>2026-09-01T19:58:22Z</time>
  <course>104.53</course>
  <speed>6.78</speed>
  <fix>3d</fix>
</trkpt>
<trkpt lat="-27.2737509" lon="151.2898297">
  <ele>374.05</ele>
  <time>2026-09-01T19:58:22Z</time>
  <course>105.39</course>
  <speed>5.9592784798161595</speed>
  <fix>3d</fix>
</trkpt>
<trkpt lat="-27.2737469" lon="151.2898126">
  <ele>374.28</ele>
  <time>2026-09-01T19:58:22Z</time>
  <course>104.53</course>
  <speed>6.78</speed>
  <fix>3d</fix>
</trkpt>
<trkpt lat="-27.2737522" lon="151.2898353">
  <ele>373.9</ele>
  <time>2026-09-01T19:58:22Z</time>
  <course>105.49</course>
  <speed>5.452338947644396</speed>
  <fix>3d</fix>
</trkpt>
<trkpt lat="-27.2737499" lon="151.2898255">
  <ele>374.21</ele>
  <time>2026-09-01T19:58:22Z</time>
  <course>104.49</course>
  <speed>6.26</speed>
  <fix>3d</fix>
</trkpt>
<trkpt lat="-27.2737534" lon="151.2898404">
  <ele>373.72</ele>
  <time>2026-09-01T19:58:22Z</time>
  <course>105.65</course>
  <speed>4.872627627882106</speed>
  <fix>3d</fix>
</trkpt>
<trkpt lat="-27.2737499" lon="151.2898255">
  <ele>374.21</ele>
  <time>2026-09-01T19:58:22Z</time>
  <course>104.49</course>
  <speed>6.26</speed>
  <fix>3d</fix>
</trkpt>
<trkpt lat="-27.2737544" lon="151.289845">
  <ele>373.53</ele>
  <time>2026-09-01T19:58:22Z</time>
  <course>105.84</course>
  <speed>4.280770958600798</speed>
  <fix>3d</fix>
</trkpt>
<trkpt lat="-27.2737525" lon="151.2898369">
  <ele>373.96</ele>
  <time>2026-09-01T19:58:22Z</time>
  <course>104.44</course>
  <speed>5.41</speed>
  <fix>3d</fix>
</trkpt>
<trkpt lat="-27.2737553" lon="151.2898489">
  <ele>373.33</ele>
  <time>2026-09-01T19:58:22Z</time>
  <course>106.04</course>
  <speed>3.6816979778357704</speed>
  <fix>3d</fix>
</trkpt>
<trkpt lat="-27.2737525" lon="151.2898369">
  <ele>373.96</ele>
  <time>2026-09-01T19:58:22Z</time>
  <course>104.44</course>
  <speed>5.41</speed>
  <fix>3d</fix>
</trkpt>
<trkpt lat="-27.273756" lon="151.2898523">
  <ele>373.14</ele>
  <time>2026-09-01T19:58:22Z</time>
  <course>106.24</course>
  <speed>3.111735849971845</speed>
  <fix>3d</fix>
</trkpt>
<trkpt lat="-27.2737546" lon="151.2898465">
  <ele>373.59</ele>
  <time>2026-09-01T19:58:22Z</time>
  <course>104.36</course>
  <speed>4.27</speed>
  <fix>3d</fix>
</trkpt>
<trkpt lat="-27.2737566" lon="151.2898552">
  <ele>372.97</ele>
  <time>2026-09-01T19:58:22Z</time>
  <course>106.41</course>
  <speed>2.575732905407702</speed>
  <fix>3d</fix>
</trkpt>
<trkpt lat="-27.2737546" lon="151.2898465">
  <ele>373.59</ele>
  <time>2026-09-01T19:58:22Z</time>
  <course>104.36</course>
  <speed>4.27</speed>
  <fix>3d</fix>
</trkpt>
<trkpt lat="-27.2737572" lon="151.2898575">
  <ele>372.82</ele>
  <time>2026-09-01T19:58:22Z</time>
  <course>106.55</course>
  <speed>2.0809613163151304</speed>
  <fix>3d</fix>
</trkpt>
<trkpt lat="-27.2737563" lon="151.2898537">
  <ele>373.22</ele>
  <time>2026-09-01T19:58:22Z</time>
  <course>104.33</course>
  <speed>3.11</speed>
  <fix>3d</fix>
</trkpt>
<trkpt lat="-27.2737576" lon="151.2898594">
  <ele>372.69</ele>
  <time>2026-09-01T19:58:22Z</time>
  <course>106.66</course>
  <speed>1.6492422502470643</speed>
  <fix>3d</fix>
</trkpt>
<trkpt lat="-27.2737563" lon="151.2898537">
  <ele>373.22</ele>
  <time>2026-09-01T19:58:22Z</time>
  <course>104.33</course>
  <speed>3.11</speed>
  <fix>3d</fix>
</trkpt>
<trkpt lat="-27.2737579" lon="151.2898609">
  <ele>372.59</ele>
  <time>2026-09-01T19:58:22Z</time>
  <course>106.74</course>
  <speed>1.2684636376341263</speed>
  <fix>3d</fix>
</trkpt>
<trkpt lat="-27.2737574" lon="151.2898588">
  <ele>372.9</ele>
  <time>2026-09-01T19:58:22Z</time>
  <course>104.52</course>
  <speed>2.08</speed>
  <fix>3d</fix>
</trkpt>
<trkpt lat="-27.2737582" lon="151.2898621">
  <ele>372.52</ele>
  <time>2026-09-01T19:58:22Z</time>
  <course>106.8</course>
  <speed>0.9411163583744573</speed>
  <fix>3d</fix>
</trkpt>
<trkpt lat="-27.2737574" lon="151.2898588">
  <ele>372.9</ele>
  <time>2026-09-01T19:58:22Z</time>
  <course>104.52</course>
  <speed>2.08</speed>
  <fix>3d</fix>
</trkpt>
<trkpt lat="-27.2737584" lon="151.289863">
  <ele>372.48</ele>
  <time>2026-09-01T19:58:22Z</time>
  <course>106.83</course>
  <speed>0.6772001181334805</speed>
  <fix>3d</fix>
</trkpt>
<trkpt lat="-27.2737582" lon="151.2898619">
  <ele>372.67</ele>
  <time>2026-09-01T19:58:22Z</time>
  <course>105.32</course>
  <speed>1.26</speed>
  <fix>3d</fix>
</trkpt>
<trkpt lat="-27.2737586" lon="151.2898636">
  <ele>372.46</ele>
  <time>2026-09-01T19:58:22Z</time>
  <course>106.84</course>
  <speed>0.4743416490252569</speed>
  <fix>3d</fix>
</trkpt>
<trkpt lat="-27.2737582" lon="151.2898619">
  <ele>372.67</ele>
  <time>2026-09-01T19:58:22Z</time>
  <course>105.32</course>
  <speed>1.26</speed>
  <fix>3d</fix>
</trkpt>
<trkpt lat="-27.2737587" lon="151.289864">
  <ele>372.48</ele>
  <time>2026-09-01T19:58:22Z</time>
  <course>106.84</course>
  <speed>0.3138470965295043</speed>
  <fix>3d</fix>
</trkpt>
<trkpt lat="-27.2737587" lon="151.2898637">
  <ele>372.56</ele>
  <time>2026-09-01T19:58:22Z</time>
  <course>107.88</course>
  <speed>0.65</speed>
  <fix>3d</fix>
</trkpt>
<trkpt lat="-27.2737589" lon="151.2898643">
  <ele>372.51</ele>
  <time>2026-09-01T19:58:22Z</time>
  <course>106.83</course>
  <speed>0.2109502310972899</speed>
  <fix>3d</fix>
</trkpt>
<trkpt lat="-27.2737587" lon="151.2898637">
  <ele>372.56</ele>
  <time>2026-09-01T19:58:22Z</time>
  <course>107.88</course>
  <speed>0.65</speed>
  <fix>3d</fix>
</trkpt>
<trkpt lat="-27.273759" lon="151.2898645">
  <ele>372.57</ele>
  <time>2026-09-01T19:58:22Z</time>
  <course>106.82</course>
  <speed>0.14866068747318506</speed>
  <fix>3d</fix>
</trkpt>
<trkpt lat="-27.273759" lon="151.2898646">
  <ele>372.57</ele>
  <time>2026-09-01T19:58:22Z</time>
  <course>116.37</course>
  <speed>0.28</speed>
  <fix>3d</fix>
</trkpt>
<trkpt lat="-27.2737591" lon="151.2898646">
  <ele>372.63</ele>
  <time>2026-09-01T19:58:22Z</time>
  <course>106.83</course>
  <speed>0.10816653826391968</speed>
  <fix>3d</fix>
</trkpt>
<trkpt lat="-27.273759" lon="151.2898646">
  <ele>372.57</ele>
  <time>2026-09-01T19:58:22Z</time>
  <course>116.37</course>
  <speed>0.28</speed>
  <fix>3d</fix>
</trkpt>
<trkpt lat="-27.2737592" lon="151.2898647">
  <ele>372.71</ele>
  <time>2026-09-01T19:58:22Z</time>
  <course>106.88</course>
  <speed>0.09219544457292887</speed>
  <fix>3d</fix>
</trkpt>
<trkpt lat="-27.2737592" lon="151.2898649">
  <ele>372.66</ele>
  <time>2026-09-01T19:58:22Z</time>
  <course>148.24</course>
  <speed>0.1</speed>
  <fix>3d</fix>
</trkpt>
<trkpt lat="-27.2737593" lon="151.2898647">
  <ele>372.78</ele>
  <time>2026-09-01T19:58:22Z</time>
  <course>106.97</course>
  <speed>0.08</speed>
  <fix>3d</fix>
</trkpt>
<trkpt lat="-27.2737592" lon="151.2898649">
  <ele>372.66</ele>
  <time>2026-09-01T19:58:22Z</time>
  <course>148.24</course>
  <speed>0.1</speed>
  <fix>3d</fix>
</trkpt>
<trkpt lat="-27.2737593" lon="151.2898647">
  <ele>372.85</ele>
  <time>2026-09-01T19:58:22Z</time>
  <course>107.11</course>
  <speed>0.08062257748298549</speed>
  <fix>3d</fix>
</trkpt>
<trkpt lat="-27.2737593" lon="151.2898649">
  <ele>372.79</ele>
  <time>2026-09-01T19:58:22Z</time>
  <course>209.45</course>
  <speed>0.07</speed>
  <fix>3d</fix>
</trkpt>
<trkpt lat="-27.2737594" lon="151.2898647">
  <ele>372.92</ele>
  <time>2026-09-01T19:58:22Z</time>
  <course>107.26</course>
  <speed>0.07280109889280519</speed>
  <fix>3d</fix>
</trkpt>
<trkpt lat="-27.2737593" lon="151.2898649">
  <ele>372.79</ele>
  <time>2026-09-01T19:58:22Z</time>
  <course>209.45</course>
  <speed>0.07</speed>
  <fix>3d</fix>
</trkpt>
<trkpt lat="-27.2737595" lon="151.2898646">
  <ele>372.98</ele>
  <time>2026-09-01T19:58:22Z</time>
  <course>107.39</course>
  <speed>0.07615773105863909</speed>
  <fix>3d</fix>
</trkpt>
<trkpt lat="-27.2737594" lon="151.2898648">
  <ele>372.94</ele>
  <time>2026-09-01T19:58:22Z</time>
  <course>237.32</course>
  <speed>0.09</speed>
  <fix>3d</fix>
</trkpt>
<trkpt lat="-27.2737595" lon="151.2898646">
  <ele>373.03</ele>
  <time>2026-09-01T19:58:22Z</time>
  <course>107.46</course>
  <speed>0.07615773105863909</speed>
  <fix>3d</fix>
</trkpt>
<trkpt lat="-27.2737594" lon="151.2898648">
  <ele>372.94</ele>
  <time>2026-09-01T19:58:22Z</time>
  <course>237.32</course>
  <speed>0.09</speed>
  <fix>3d</fix>
</trkpt>
<trkpt lat="-27.2737596" lon="151.2898646">
  <ele>373.07</ele>
  <time>2026-09-01T19:58:22Z</time>
  <course>107.45</course>
  <speed>0.07615773105863909</speed>
  <fix>3d</fix>
</trkpt>
<trkpt lat="-27.2737595" lon="151.2898647">
  <ele>373.07</ele>
  <time>2026-09-01T19:58:22Z</time>
  <course>247.91</course>
  <speed>0.1</speed>
  <fix>3d</fix>
</trkpt>
<trkpt lat="-27.2737596" lon="151.2898646">
  <ele>373.1</ele>
  <time>2026-09-01T19:58:22Z</time>
  <course>107.35</course>
  <speed>0.07615773105863909</speed>
  <fix>3d</fix>
</trkpt>
<trkpt lat="-27.2737595" lon="151.2898647">
  <ele>373.07</ele>
  <time>2026-09-01T19:58:22Z</time>
  <course>247.91</course>
  <speed>0.1</speed>
  <fix>3d</fix>
</trkpt>
<trkpt lat="-27.2737597" lon="151.2898645">
  <ele>373.12</ele>
  <time>2026-09-01T19:58:22Z</time>
  <course>107.19</course>
  <speed>0.0824621125123532</speed>
  <fix>3d</fix>
</trkpt>
<trkpt lat="-27.2737595" lon="151.2898645">
  <ele>373.16</ele>
  <time>2026-09-01T19:58:22Z</time>
  <course>250.26</course>
  <speed>0.1</speed>
  <fix>3d</fix>
</trkpt>
<trkpt lat="-27.2737598" lon="151.2898645">
  <ele>373.13</ele>
  <time>2026-09-01T19:58:22Z</time>
  <course>106.99</course>
  <speed>0.08062257748298549</speed>
  <fix>3d</fix>
</trkpt>
<trkpt lat="-27.2737595" lon="151.2898645">
  <ele>373.16</ele>
  <time>2026-09-01T19:58:22Z</time>
  <course>250.26</course>
  <speed>0.1</speed>
  <fix>3d</fix>
</trkpt>
<trkpt lat="-27.2737598" lon="151.2898645">
  <ele>373.12</ele>
  <time>2026-09-01T19:58:22Z</time>
  <course>106.78</course>
  <speed>0.09</speed>
  <fix>3d</fix>
</trkpt>
<trkpt lat="-27.2737596" lon="151.2898644">
  <ele>373.21</ele>
  <time>2026-09-01T19:58:22Z</time>
  <course>244.98</course>
  <speed>0.08</speed>
  <fix>3d</fix>
</trkpt>
<trkpt lat="-27.2737599" lon="151.2898645">
  <ele>373.11</ele>
  <time>2026-09-01T19:58:22Z</time>
  <course>106.61</course>
  <speed>0.1044030650891055</speed>
  <fix>3d</fix>
</trkpt>
<trkpt lat="-27.2737596" lon="151.2898644">
  <ele>373.21</ele>
  <time>2026-09-01T19:58:22Z</time>
  <course>244.98</course>
  <speed>0.08</speed>
  <fix>3d</fix>
</trkpt>
<trkpt lat="-27.27376" lon="151.2898644">
  <ele>373.09</ele>
  <time>2026-09-01T19:58:22Z</time>
  <course>106.48</course>
  <speed>0.11661903789690602</speed>
  <fix>3d</fix>
</trkpt>
<trkpt lat="-27.2737597" lon="151.2898642">
  <ele>373.21</ele>
  <time>2026-09-01T19:58:22Z</time>
  <course>223.6</course>
  <speed>0.06</speed>
  <fix>3d</fix>
</trkpt>
<trkpt lat="-27.27376" lon="151.2898644">
  <ele>373.07</ele>
  <time>2026-09-01T19:58:22Z</time>
  <course>106.42</course>
  <speed>0.14212670403551894</speed>
  <fix>3d</fix>
</trkpt>
<trkpt lat="-27.2737597" lon="151.2898642">
  <ele>373.21</ele>
  <time>2026-09-01T19:58:22Z</time>
  <course>223.6</course>
  <speed>0.06</speed>
  <fix>3d</fix>
</trkpt>
<trkpt lat="-27.2737601" lon="151.2898645">
  <ele>373.04</ele>
  <time>2026-09-01T19:58:23Z</time>
  <course>106.41</course>
  <speed>0.18439088914585774</speed>
  <fix>3d</fix>
</trkpt>
<trkpt lat="-27.2737598" lon="151.2898641">
  <ele>373.18</ele>
  <time>2026-09-01T19:58:23Z</time>
  <course>163.51</course>
  <speed>0.06</speed>
  <fix>3d</fix>
</trkpt>
<trkpt lat="-27.2737602" lon="151.2898647">
  <ele>373.02</ele>
  <time>2026-09-01T19:58:23Z</time>
  <course>106.45</course>
  <speed>0.22803508501982758</speed>
  <fix>3d</fix>
</trkpt>
<trkpt lat="-27.2737598" lon="151.2898641">
  <ele>373.18</ele>
  <time>2026-09-01T19:58:23Z</time>
  <course>163.51</course>
  <speed>0.06</speed>
  <fix>3d</fix>
</trkpt>
<trkpt lat="-27.2737603" lon="151.2898648">
  <ele>373.0</ele>
  <time>2026-09-01T19:58:23Z</time>
  <course>106.52</course>
  <speed>0.2745906043549196</speed>
  <fix>3d</fix>
</trkpt>
<trkpt lat="-27.2737599" lon="151.2898642">
  <ele>373.14</ele>
  <time>2026-09-01T19:58:23Z</time>
  <course>126.49</course>
  <speed>0.12</speed>
  <fix>3d</fix>
</trkpt>
<trkpt lat="-27.2737604" lon="151.2898651">
  <ele>372.98</ele>
  <time>2026-09-01T19:58:23Z</time>
  <course>106.59</course>
  <speed>0.3312099032335839</speed>
  <fix>3d</fix>
</trkpt>
<trkpt lat="-27.2737599" lon="151.2898642">
  <ele>373.14</ele>
  <time>2026-09-01T19:58:23Z</time>
  <course>126.49</course>
  <speed>0.12</speed>
  <fix>3d</fix>
</trkpt>
<trkpt lat="-27.2737605" lon="151.2898653">
  <ele>372.96</ele>
  <time>2026-09-01T19:58:23Z</time>
  <course>106.66</course>
  <speed>0.3935733730830886</speed>
  <fix>3d</fix>
</trkpt>
<trkpt lat="-27.27376" lon="151.2898645">
  <ele>373.09</ele>
  <time>2026-09-01T19:58:23Z</time>
  <course>114.96</course>
  <speed>0.22</speed>
  <fix>3d</fix>
</trkpt>
<trkpt lat="-27.2737607" lon="151.2898657">
  <ele>372.95</ele>
  <time>2026-09-01T19:58:23Z</time>
  <course>106.71</course>
  <speed>0.45188494110780014</speed>
  <fix>3d</fix>
</trkpt>
<trkpt lat="-27.27376" lon="151.2898645">
  <ele>373.09</ele>
  <time>2026-09-01T19:58:23Z</time>
  <course>114.96</course>
  <speed>0.22</speed>
  <fix>3d</fix>
</trkpt>
<trkpt lat="-27.2737608" lon="151.2898661">
  <ele>372.95</ele>
  <time>2026-09-01T19:58:23Z</time>
  <course>106.74</course>
  <speed>0.5239274758971895</speed>
  <fix>3d</fix>
</trkpt>
<trkpt lat="-27.2737603" lon="151.289865">
  <ele>373.06</ele>
  <time>2026-09-01T19:58:23Z</time>
  <course>110.1</course>
  <speed>0.35</speed>
  <fix>3d</fix>
</trkpt>
<trkpt lat="-27.273761" lon="151.2898666">
  <ele>372.94</ele>
  <time>2026-09-01T19:58:23Z</time>
  <course>106.75</course>
  <speed>0.58309518948453</speed>
  <fix>3d</fix>
</trkpt>
<trkpt lat="-27.2737603" lon="151.289865">
  <ele>373.06</ele>
  <time>2026-09-01T19:58:23Z</time>
  <course>110.1</course>
  <speed>0.35</speed>
  <fix>3d</fix>
</trkpt>
<trkpt lat="-27.2737611" lon="151.2898671">
  <ele>372.94</ele>
  <time>2026-09-01T19:58:23Z</time>
  <course>106.74</course>
  <speed>0.6555150646628953</speed>
  <fix>3d</fix>
</trkpt>
<trkpt lat="-27.2737605" lon="151.2898659">
  <ele>373.04</ele>
  <time>2026-09-01T19:58:23Z</time>
  <course>107.55</course>
  <speed>0.48</speed>
  <fix>3d</fix>
</trkpt>
<trkpt lat="-27.2737613" lon="151.2898677">
  <ele>372.95</ele>
  <time>2026-09-01T19:58:23Z</time>
  <course>106.71</course>
  <speed>0.7244998274671982</speed>
  <fix>3d</fix>
</trkpt>
<trkpt lat="-27.2737605" lon="151.2898659">
  <ele>373.04</ele>
  <time>2026-09-01T19:58:23Z</time>
  <course>107.55</course>
  <speed>0.48</speed>
  <fix>3d</fix>
</trkpt>
<trkpt lat="-27.2737615" lon="151.2898684">
  <ele>372.95</ele>
  <time>2026-09-01T19:58:23Z</time>
  <course>106.68</course>
  <speed>0.7843468620451032</speed>
  <fix>3d</fix>
</trkpt>
<trkpt lat="-27.2737608" lon="151.2898669">
  <ele>373.04</ele>
  <time>2026-09-01T19:58:23Z</time>
  <course>106.05</course>
  <speed>0.63</speed>
  <fix>3d</fix>
</trkpt>
<trkpt lat="-27.2737617" lon="151.2898692">
  <ele>372.96</ele>
  <time>2026-09-01T19:58:23Z</time>
  <course>106.64</course>
  <speed>0.8570297544426332</speed>
  <fix>3d</fix>
</trkpt>
<trkpt lat="-27.2737608" lon="151.2898669">
  <ele>373.04</ele>
  <time>2026-09-01T19:58:23Z</time>
  <course>106.05</course>
  <speed>0.63</speed>
  <fix>3d</fix>
</trkpt>
<trkpt lat="-27.2737619" lon="151.28987">
  <ele>372.97</ele>
  <time>2026-09-01T19:58:23Z</time>
  <course>106.61</course>
  <speed>0.91706052144883</speed>
  <fix>3d</fix>
</trkpt>
<trkpt lat="-27.2737611" lon="151.2898683">
  <ele>373.06</ele>
  <time>2026-09-01T19:58:23Z</time>
  <course>105.11</course>
  <speed>0.77</speed>
  <fix>3d</fix>
</trkpt>
<trkpt lat="-27.2737621" lon="151.2898709">
  <ele>372.99</ele>
  <time>2026-09-01T19:58:23Z</time>
  <course>106.59</course>
  <speed>0.9771898484941398</speed>
  <fix>3d</fix>
</trkpt>
<trkpt lat="-27.2737611" lon="151.2898683">
  <ele>373.06</ele>
  <time>2026-09-01T19:58:23Z</time>
  <course>105.11</course>
  <speed>0.77</speed>
  <fix>3d</fix>
</trkpt>
<trkpt lat="-27.2737623" lon="151.2898718">
  <ele>373.0</ele>
  <time>2026-09-01T19:58:23Z</time>
  <course>106.57</course>
  <speed>1.0374005976477938</speed>
  <fix>3d</fix>
</trkpt>
<trkpt lat="-27.2737615" lon="151.28987">
  <ele>373.08</ele>
  <time>2026-09-01T19:58:23Z</time>
  <course>104.5</course>
  <speed>0.91</speed>
  <fix>3d</fix>
</trkpt>
<trkpt lat="-27.2737626" lon="151.2898728">
  <ele>373.01</ele>
  <time>2026-09-01T19:58:23Z</time>
  <course>106.57</course>
  <speed>1.0911003620199198</speed>
  <fix>3d</fix>
</trkpt>
<trkpt lat="-27.2737615" lon="151.28987">
  <ele>373.08</ele>
  <time>2026-09-01T19:58:23Z</time>
  <course>104.5</course>
  <speed>0.91</speed>
  <fix>3d</fix>
</trkpt>
<trkpt lat="-27.2737628" lon="151.2898739">
  <ele>373.02</ele>
  <time>2026-09-01T19:58:23Z</time>
  <course>106.56</course>
  <speed>1.1417968295629481</speed>
  <fix>3d</fix>
</trkpt>
<trkpt lat="-27.2737619" lon="151.2898719">
  <ele>373.09</ele>
  <time>2026-09-01T19:58:23Z</time>
  <course>104.1</course>
  <speed>1.04</speed>
  <fix>3d</fix>
</trkpt>
<trkpt lat="-27.2737631" lon="151.289875">
  <ele>373.02</ele>
  <time>2026-09-01T19:58:23Z</time>
  <course>106.56</course>
  <speed>1.1925183436744276</speed>
  <fix>3d</fix>
</trkpt>
<trkpt lat="-27.2737619" lon="151.2898719">
  <ele>373.09</ele>
  <time>2026-09-01T19:58:23Z</time>
  <course>104.1</course>
  <speed>1.04</speed>
  <fix>3d</fix>
</trkpt>
<trkpt lat="-27.2737633" lon="151.2898762">
  <ele>373.03</ele>
  <time>2026-09-01T19:58:23Z</time>
  <course>106.57</course>
  <speed>1.2404031602668546</speed>
  <fix>3d</fix>
</trkpt>
<trkpt lat="-27.2737624" lon="151.2898741">
  <ele>373.12</ele>
  <time>2026-09-01T19:58:23Z</time>
  <course>103.84</course>
  <speed>1.16</speed>
  <fix>3d</fix>
</trkpt>
<trkpt lat="-27.2737636" lon="151.2898775">
  <ele>373.03</ele>
  <time>2026-09-01T19:58:23Z</time>
  <course>106.57</course>
  <speed>1.2816005617976296</speed>
  <fix>3d</fix>
</trkpt>
<trkpt lat="-27.2737624" lon="151.2898741">
  <ele>373.12</ele>
  <time>2026-09-01T19:58:23Z</time>
  <course>103.84</course>
  <speed>1.16</speed>
  <fix>3d</fix>
</trkpt>
<trkpt lat="-27.2737639" lon="151.2898787">
  <ele>373.03</ele>
  <time>2026-09-01T19:58:23Z</time>
  <course>106.57</course>
  <speed>1.322800060477773</speed>
  <fix>3d</fix>
</trkpt>
<trkpt lat="-27.2737629" lon="151.2898764">
  <ele>373.13</ele>
  <time>2026-09-01T19:58:23Z</time>
  <course>103.68</course>
  <speed>1.26</speed>
  <fix>3d</fix>
</trkpt>
<trkpt lat="-27.2737642" lon="151.2898801">
  <ele>373.03</ele>
  <time>2026-09-01T19:58:23Z</time>
  <course>106.58</course>
  <speed>1.354400236266961</speed>
  <fix>3d</fix>
</trkpt>
<trkpt lat="-27.2737629" lon="151.2898764">
  <ele>373.13</ele>
  <time>2026-09-01T19:58:23Z</time>
  <course>103.68</course>
  <speed>1.26</speed>
  <fix>3d</fix>
</trkpt>
<trkpt lat="-27.2737645" lon="151.2898814">
  <ele>373.03</ele>
  <time>2026-09-01T19:58:23Z</time>
  <course>106.58</course>
  <speed>1.3832208789632983</speed>
  <fix>3d</fix>
</trkpt>
<trkpt lat="-27.2737635" lon="151.289879">
  <ele>373.14</ele>
  <time>2026-09-01T19:58:23Z</time>
  <course>103.6</course>
  <speed>1.34</speed>
  <fix>3d</fix>
</trkpt>
<trkpt lat="-27.2737648" lon="151.2898827">
  <ele>373.03</ele>
  <time>2026-09-01T19:58:23Z</time>
  <course>106.58</course>
  <speed>1.4052046114356442</speed>
  <fix>3d</fix>
</trkpt>
<trkpt lat="-27.2737635" lon="151.289879">
  <ele>373.14</ele>
  <time>2026-09-01T19:58:23Z</time>
  <course>103.6</course>
  <speed>1.34</speed>
  <fix>3d</fix>
</trkpt>
<trkpt lat="-27.273765" lon="151.2898841">
  <ele>373.03</ele>
  <time>2026-09-01T19:58:23Z</time>
  <course>106.57</course>
  <speed>1.4244297104455523</speed>
  <fix>3d</fix>
</trkpt>
<trkpt lat="-27.2737641" lon="151.2898818">
  <ele>373.14</ele>
  <time>2026-09-01T19:58:23Z</time>
  <course>103.58</course>
  <speed>1.41</speed>
  <fix>3d</fix>
</trkpt>
<trkpt lat="-27.2737653" lon="151.2898855">
  <ele>373.03</ele>
  <time>2026-09-01T19:58:23Z</time>
  <course>106.56</course>
  <speed>1.4340502083260542</speed>
  <fix>3d</fix>
</trkpt>
<trkpt lat="-27.2737641" lon="151.2898818">
  <ele>373.14</ele>
  <time>2026-09-01T19:58:23Z</time>
  <course>103.58</course>
  <speed>1.41</speed>
  <fix>3d</fix>
</trkpt>
<trkpt lat="-27.2737656" lon="151.2898869">
  <ele>373.03</ele>
  <time>2026-09-01T19:58:23Z</time>
  <course>106.55</course>
  <speed>1.4436758638974332</speed>
  <fix>3d</fix>
</trkpt>
<trkpt lat="-27.2737647" lon="151.2898846">
  <ele>373.14</ele>
  <time>2026-09-01T19:58:23Z</time>
  <course>103.6</course>
  <speed>1.46</speed>
  <fix>3d</fix>
</trkpt>
<trkpt lat="-27.273766" lon="151.2898883">
  <ele>373.03</ele>
  <time>2026-09-01T19:58:23Z</time>
  <course>106.54</course>
  <speed>1.4436758638974332</speed>
  <fix>3d</fix>
</trkpt>
<trkpt lat="-27.2737647" lon="151.2898846">
  <ele>373.14</ele>
  <time>2026-09-01T19:58:23Z</time>
  <course>103.6</course>
  <speed>1.46</speed>
  <fix>3d</fix>
</trkpt>
<trkpt lat="-27.2737663" lon="151.2898898">
  <ele>373.02</ele>
  <time>2026-09-01T19:58:23Z</time>
  <course>106.53</course>
  <speed>1.4436758638974332</speed>
  <fix>3d</fix>
</trkpt>
<trkpt lat="-27.2737653" lon="151.2898875">
  <ele>373.13</ele>
  <time>2026-09-01T19:58:23Z</time>
  <course>103.66</course>
  <speed>1.49</speed>
  <fix>3d</fix>
</trkpt>
<trkpt lat="-27.2737666" lon="151.2898912">
  <ele>373.02</ele>
  <time>2026-09-01T19:58:23Z</time>
  <course>106.53</course>
  <speed>1.4340502083260542</speed>
  <fix>3d</fix>
</trkpt>
<trkpt lat="-27.2737653" lon="151.2898875">
  <ele>373.13</ele>
  <time>2026-09-01T19:58:23Z</time>
  <course>103.66</course>
  <speed>1.49</speed>
  <fix>3d</fix>
</trkpt>
<trkpt lat="-27.2737669" lon="151.2898926">
  <ele>373.0</ele>
  <time>2026-09-01T19:58:23Z</time>
  <course>106.53</course>
  <speed>1.4244297104455523</speed>
  <fix>3d</fix>
</trkpt>
<trkpt lat="-27.273766" lon="151.2898904">
  <ele>373.12</ele>
  <time>2026-09-01T19:58:23Z</time>
  <course>103.75</course>
  <speed>1.49</speed>
  <fix>3d</fix>
</trkpt>
<trkpt lat="-27.2737672" lon="151.289894">
  <ele>372.98</ele>
  <time>2026-09-01T19:58:23Z</time>
  <course>106.53</course>
  <speed>1.4120906486483082</speed>
  <fix>3d</fix>
</trkpt>
<trkpt lat="-27.273766" lon="151.2898904">
  <ele>373.12</ele>
  <time>2026-09-01T19:58:23Z</time>
  <course>103.75</course>
  <speed>1.49</speed>
  <fix>3d</fix>
</trkpt>
<trkpt lat="-27.2737675" lon="151.2898954">
  <ele>372.94</ele>
  <time>2026-09-01T19:58:23Z</time>
  <course>106.53</course>
  <speed>1.4024621207005914</speed>
  <fix>3d</fix>
</trkpt>
<trkpt lat="-27.2737666" lon="151.2898933">
  <ele>373.09</ele>
  <time>2026-09-01T19:58:23Z</time>
  <course>103.86</course>
  <speed>1.48</speed>
  <fix>3d</fix>
</trkpt>
<trkpt lat="-27.2737678" lon="151.2898968">
  <ele>372.88</ele>
  <time>2026-09-01T19:58:23Z</time>
  <course>106.53</course>
  <speed>1.3832208789632983</speed>
  <fix>3d</fix>
</trkpt>
<trkpt lat="-27.2737666" lon="151.2898933">
  <ele>373.09</ele>
  <time>2026-09-01T19:58:23Z</time>
  <course>103.86</course>
  <speed>1.48</speed>
  <fix>3d</fix>
</trkpt>
<trkpt lat="-27.2737681" lon="151.2898982">
  <ele>372.81</ele>
  <time>2026-09-01T19:58:23Z</time>
  <course>106.53</course>
  <speed>1.351628647225265</speed>
  <fix>3d</fix>
</trkpt>
<trkpt lat="-27.2737672" lon="151.2898962">
  <ele>373.03</ele>
  <time>2026-09-01T19:58:23Z</time>
  <course>104.01</course>
  <speed>1.46</speed>
  <fix>3d</fix>
</trkpt>
<trkpt lat="-27.2737684" lon="151.2898996">
  <ele>372.71</ele>
  <time>2026-09-01T19:58:23Z</time>
  <course>106.54</course>
  <speed>1.3200378782444084</speed>
  <fix>3d</fix>
</trkpt>
<trkpt lat="-27.2737672" lon="151.2898962">
  <ele>373.03</ele>
  <time>2026-09-01T19:58:23Z</time>
  <course>104.01</course>
  <speed>1.46</speed>
  <fix>3d</fix>
</trkpt>
<trkpt lat="-27.2737687" lon="151.2899009">
  <ele>372.59</ele>
  <time>2026-09-01T19:58:23Z</time>
  <course>106.53</course>
  <speed>1.2692123541787639</speed>
  <fix>3d</fix>
</trkpt>
<trkpt lat="-27.2737679" lon="151.289899">
  <ele>372.89</ele>
  <time>2026-09-01T19:58:23Z</time>
  <course>104.19</course>
  <speed>1.41</speed>
  <fix>3d</fix>
</trkpt>
<trkpt lat="-27.2737689" lon="151.2899022">
  <ele>372.46</ele>
  <time>2026-09-01T19:58:23Z</time>
  <course>106.53</course>
  <speed>1.218400590938793</speed>
  <fix>3d</fix>
</trkpt>
<trkpt lat="-27.2737679" lon="151.289899">
  <ele>372.89</ele>
  <time>2026-09-01T19:58:23Z</time>
  <course>104.19</course>
  <speed>1.41</speed>
  <fix>3d</fix>
</trkpt>
<trkpt lat="-27.2737692" lon="151.2899034">
  <ele>372.32</ele>
  <time>2026-09-01T19:58:23Z</time>
  <course>106.53</course>
  <speed>1.158015543937127</speed>
  <fix>3d</fix>
</trkpt>
<trkpt lat="-27.2737685" lon="151.2899018">
  <ele>372.68</ele>
  <time>2026-09-01T19:58:23Z</time>
  <course>104.38</course>
  <speed>1.33</speed>
  <fix>3d</fix>
</trkpt>
<trkpt lat="-27.2737695" lon="151.2899045">
  <ele>372.17</ele>
  <time>2026-09-01T19:58:23Z</time>
  <course>106.53</course>
  <speed>1.0852188719332152</speed>
  <fix>3d</fix>
</trkpt>
<trkpt lat="-27.2737685" lon="151.2899018">
  <ele>372.68</ele>
  <time>2026-09-01T19:58:23Z</time>
  <course>104.38</course>
  <speed>1.33</speed>
  <fix>3d</fix>
</trkpt>
<trkpt lat="-27.2737697" lon="151.2899056">
  <ele>372.01</ele>
  <time>2026-09-01T19:58:23Z</time>
  <course>106.53</course>
  <speed>1.0220078277586722</speed>
  <fix>3d</fix>
</trkpt>
<trkpt lat="-27.2737691" lon="151.2899043">
  <ele>372.41</ele>
  <time>2026-09-01T19:58:23Z</time>
  <course>104.64</course>
  <speed>1.22</speed>
  <fix>3d</fix>
</trkpt>
<trkpt lat="-27.27377" lon="151.2899067">
  <ele>371.84</ele>
  <time>2026-09-01T19:58:23Z</time>
  <course>106.54</course>
  <speed>0.9521029356114811</speed>
  <fix>3d</fix>
</trkpt>
<trkpt lat="-27.2737691" lon="151.2899043">
  <ele>372.41</ele>
  <time>2026-09-01T19:58:23Z</time>
  <course>104.64</course>
  <speed>1.22</speed>
  <fix>3d</fix>
</trkpt>
<trkpt lat="-27.2737702" lon="151.2899076">
  <ele>371.67</ele>
  <time>2026-09-01T19:58:23Z</time>
  <course>106.55</course>
  <speed>0.8697700845625813</speed>
  <fix>3d</fix>
</trkpt>
<trkpt lat="-27.2737696" lon="151.2899065">
  <ele>372.09</ele>
  <time>2026-09-01T19:58:23Z</time>
  <course>104.99</course>
  <speed>1.08</speed>
  <fix>3d</fix>
</trkpt>
<trkpt lat="-27.2737704" lon="151.2899085">
  <ele>371.51</ele>
  <time>2026-09-01T19:58:23Z</time>
  <course>106.56</course>
  <speed>0.796994353806851</speed>
  <fix>3d</fix>
</trkpt>
<trkpt lat="-27.2737696" lon="151.2899065">
  <ele>372.09</ele>
  <time>2026-09-01T19:58:23Z</time>
  <course>104.99</course>
  <speed>1.08</speed>
  <fix>3d</fix>
</trkpt>
<trkpt lat="-27.2737706" lon="151.2899093">
  <ele>371.34</ele>
  <time>2026-09-01T19:58:23Z</time>
  <course>106.57</course>
  <speed>0.7178439941937245</speed>
  <fix>3d</fix>
</trkpt>
<trkpt lat="-27.2737701" lon="151.2899085">
  <ele>371.76</ele>
  <time>2026-09-01T19:58:23Z</time>
  <course>105.46</course>
  <speed>0.94</speed>
  <fix>3d</fix>
</trkpt>
<trkpt lat="-27.2737708" lon="151.28991">
  <ele>371.17</ele>
  <time>2026-09-01T19:58:23Z</time>
  <course>106.58</course>
  <speed>0.6451356446515725</speed>
  <fix>3d</fix>
</trkpt>
<trkpt lat="-27.2737701" lon="151.2899085">
  <ele>371.76</ele>
  <time>2026-09-01T19:58:23Z</time>
  <course>105.46</course>
  <speed>0.94</speed>
  <fix>3d</fix>
</trkpt>
<trkpt lat="-27.2737709" lon="151.2899107">
  <ele>371.01</ele>
  <time>2026-09-01T19:58:23Z</time>
  <course>106.6</course>
  <speed>0.5630275304103699</speed>
  <fix>3d</fix>
</trkpt>
<trkpt lat="-27.2737705" lon="151.2899102">
  <ele>371.42</ele>
  <time>2026-09-01T19:58:23Z</time>
  <course>106.1</course>
  <speed>0.78</speed>
  <fix>3d</fix>
</trkpt>
<trkpt lat="-27.2737711" lon="151.2899112">
  <ele>370.85</ele>
  <time>2026-09-01T19:58:23Z</time>
  <course>106.62</course>
  <speed>0.49040799340956914</speed>
  <fix>3d</fix>
</trkpt>
<trkpt lat="-27.2737705" lon="151.2899102">
  <ele>371.42</ele>
  <time>2026-09-01T19:58:23Z</time>
  <course>106.1</course>
  <speed>0.78</speed>
  <fix>3d</fix>
</trkpt>
<trkpt lat="-27.2737712" lon="151.2899117">
  <ele>370.7</ele>
  <time>2026-09-01T19:58:23Z</time>
  <course>106.63</course>
  <speed>0.4215447781671598</speed>
  <fix>3d</fix>
</trkpt>
<trkpt lat="-27.2737708" lon="151.2899115">
  <ele>371.09</ele>
  <time>2026-09-01T19:58:23Z</time>
  <course>107.0</course>
  <speed>0.63</speed>
  <fix>3d</fix>
</trkpt>
<trkpt lat="-27.2737713" lon="151.2899122">
  <ele>370.55</ele>
  <time>2026-09-01T19:58:23Z</time>
  <course>106.66</course>
  <speed>0.34928498393145957</speed>
  <fix>3d</fix>
</trkpt>
<trkpt lat="-27.2737708" lon="151.2899115">
  <ele>371.09</ele>
  <time>2026-09-01T19:58:23Z</time>
  <course>107.0</course>
  <speed>0.63</speed>
  <fix>3d</fix>
</trkpt>
<trkpt lat="-27.2737714" lon="151.2899126">
  <ele>370.39</ele>
  <time>2026-09-01T19:58:23Z</time>
  <course>106.68</course>
  <speed>0.2863564212655271</speed>
  <fix>3d</fix>
</trkpt>
<trkpt lat="-27.2737711" lon="151.2899127">
  <ele>370.78</ele>
  <time>2026-09-01T19:58:23Z</time>
  <course>108.36</course>
  <speed>0.48</speed>
  <fix>3d</fix>
</trkpt>
<trkpt lat="-27.2737715" lon="151.2899129">
  <ele>370.25</ele>
  <time>2026-09-01T19:58:23Z</time>
  <course>106.71</course>
  <speed>0.2195449840010015</speed>
  <fix>3d</fix>
</trkpt>
<trkpt lat="-27.2737711" lon="151.2899127">
  <ele>370.78</ele>
  <time>2026-09-01T19:58:23Z</time>
  <course>108.36</course>
  <speed>0.48</speed>
  <fix>3d</fix>
</trkpt>
<trkpt lat="-27.2737716" lon="151.2899131">
  <ele>370.1</ele>
  <time>2026-09-01T19:58:23Z</time>
  <course>106.75</course>
  <speed>0.1664331697709324</speed>
  <fix>3d</fix>
</trkpt>
<trkpt lat="-27.2737714" lon="151.2899135">
  <ele>370.47</ele>
  <time>2026-09-01T19:58:23Z</time>
  <course>110.53</course>
  <speed>0.34</speed>
  <fix>3d</fix>
</trkpt>
<trkpt lat="-27.2737717" lon="151.2899133">
  <ele>369.96</ele>
  <time>2026-09-01T19:58:23Z</time>
  <course>106.81</course>
  <speed>0.1131370849898476</speed>
  <fix>3d</fix>
</trkpt>
<trkpt lat="-27.2737714" lon="151.2899135">
  <ele>370.47</ele>
  <time>2026-09-01T19:58:23Z</time>
  <course>110.53</course>
  <speed>0.34</speed>
  <fix>3d</fix>
</trkpt>
<trkpt lat="-27.2737717" lon="151.2899135">
  <ele>369.82</ele>
  <time>2026-09-01T19:58:23Z</time>
  <course>106.89</course>
  <speed>0.0670820393249937</speed>
  <fix>3d</fix>
</trkpt>
<trkpt lat="-27.2737715" lon="151.289914">
  <ele>370.19</ele>
  <time>2026-09-01T19:58:23Z</time>
  <course>114.26</course>
  <speed>0.22</speed>
  <fix>3d</fix>
</trkpt>
<trkpt lat="-27.2737718" lon="151.2899135">
  <ele>369.68</ele>
  <time>2026-09-01T19:58:23Z</time>
  <course>107.08</course>
  <speed>0.03</speed>
  <fix>3d</fix>
</trkpt>
<trkpt lat="-27.2737715" lon="151.289914">
  <ele>370.19</ele>
  <time>2026-09-01T19:58:23Z</time>
  <course>114.26</course>
  <speed>0.22</speed>
  <fix>3d</fix>
</trkpt>
<trkpt lat="-27.2737718" lon="151.2899136">
  <ele>369.53</ele>
  <time>2026-09-01T19:58:23Z</time>
  <course>107.5</course>
  <speed>0.04</speed>
  <fix>3d</fix>
</trkpt>
<trkpt lat="-27.2737717" lon="151.2899143">
  <ele>369.9</ele>
  <time>2026-09-01T19:58:23Z</time>
  <course>119.59</course>
  <speed>0.11</speed>
  <fix>3d</fix>
</trkpt>
<trkpt lat="-27.2737718" lon="151.2899136">
  <ele>369.39</ele>
  <time>2026-09-01T19:58:23Z</time>
  <course>108.04</course>
  <speed>0.07071067811865475</speed>
  <fix>3d</fix>
</trkpt>
<trkpt lat="-27.2737717" lon="151.2899143">
  <ele>369.9</ele>
  <time>2026-09-01T19:58:23Z</time>
  <course>119.59</course>
  <speed>0.11</speed>
  <fix>3d</fix>
</trkpt>
<trkpt lat="-27.2737717" lon="151.2899136">
  <ele>369.25</ele>
  <time>2026-09-01T19:58:23Z</time>
  <course>108.41</course>
  <speed>0.1044030650891055</speed>
  <fix>3d</fix>
</trkpt>
<trkpt lat="-27.2737718" lon="151.2899144">
  <ele>369.63</ele>
  <time>2026-09-01T19:58:23Z</time>
  <course>120.68</course>
  <speed>0.01</speed>
  <fix>3d</fix>
</trkpt>
<trkpt lat="-27.2737718" lon="151.2899136">
  <ele>369.11</ele>
  <time>2026-09-01T19:58:23Z</time>
  <course>108.6</course>
  <speed>0.14560219778561037</speed>
  <fix>3d</fix>
</trkpt>
<trkpt lat="-27.2737718" lon="151.2899144">
  <ele>369.63</ele>
  <time>2026-09-01T19:58:23Z</time>
  <course>120.68</course>
  <speed>0.01</speed>
  <fix>3d</fix>
</trkpt>
<trkpt lat="-27.2737717" lon="151.2899136">
  <ele>368.97</ele>
  <time>2026-09-01T19:58:23Z</time>
  <course>108.65</course>
  <speed>0.1676305461424021</speed>
  <fix>3d</fix>
</trkpt>
<trkpt lat="-27.2737718" lon="151.2899144">
  <ele>369.34</ele>
  <time>2026-09-01T19:58:23Z</time>
  <course>300.07</course>
  <speed>0.06</speed>
  <fix>3d</fix>
</trkpt>
<trkpt lat="-27.2737717" lon="151.2899134">
  <ele>368.83</ele>
  <time>2026-09-01T19:58:23Z</time>
  <course>108.58</course>
  <speed>0.19924858845171275</speed>
  <fix>3d</fix>
</trkpt>
<trkpt lat="-27.2737718" lon="151.2899144">
  <ele>369.34</ele>
  <time>2026-09-01T19:58:23Z</time>
  <course>300.07</course>
  <speed>0.06</speed>
  <fix>3d</fix>
</trkpt>
<trkpt lat="-27.2737716" lon="151.2899133">
  <ele>368.68</ele>
  <time>2026-09-01T19:58:23Z</time>
  <course>108.44</course>
  <speed>0.22135943621178655</speed>
  <fix>3d</fix>
</trkpt>
<trkpt lat="-27.2737717" lon="151.2899143">
  <ele>369.07</ele>
  <time>2026-09-01T19:58:23Z</time>
  <course>295.92</course>
  <speed>0.13</speed>
  <fix>3d</fix>
</trkpt>
<trkpt lat="-27.2737716" lon="151.2899132">
  <ele>368.54</ele>
  <time>2026-09-01T19:58:23Z</time>
  <course>108.25</course>
  <speed>0.24041630560342614</speed>
  <fix>3d</fix>
</trkpt>
<trkpt lat="-27.2737717" lon="151.2899143">
  <ele>369.07</ele>
  <time>2026-09-01T19:58:23Z</time>
  <course>295.92</course>
  <speed>0.13</speed>
  <fix>3d</fix>
</trkpt>
<trkpt lat="-27.2737715" lon="151.289913">
  <ele>368.39</ele>
  <time>2026-09-01T19:58:23Z</time>
  <course>108.06</course>
  <speed>0.2529822128134704</speed>
  <fix>3d</fix>
</trkpt>
<trkpt lat="-27.2737716" lon="151.289914">
  <ele>368.78</ele>
  <time>2026-09-01T19:58:23Z</time>
  <course>294.09</course>
  <speed>0.18</speed>
  <fix>3d</fix>
</trkpt>
<trkpt lat="-27.2737714" lon="151.2899128">
  <ele>368.25</ele>
  <time>2026-09-01T19:58:23Z</time>
  <course>107.9</course>
  <speed>0.2720294101747089</speed>
  <fix>3d</fix>
</trkpt>
<trkpt lat="-27.2737716" lon="151.289914">
  <ele>368.78</ele>
  <time>2026-09-01T19:58:23Z</time>
  <course>294.09</course>
  <speed>0.18</speed>
  <fix>3d</fix>
</trkpt>
<trkpt lat="-27.2737713" lon="151.2899126">
  <ele>368.1</ele>
  <time>2026-09-01T19:58:23Z</time>
  <course>107.8</course>
  <speed>0.2816025568065745</speed>
  <fix>3d</fix>
</trkpt>
<trkpt lat="-27.2737715" lon="151.2899135">
  <ele>368.5</ele>
  <time>2026-09-01T19:58:23Z</time>
  <course>292.93</course>
  <speed>0.22</speed>
  <fix>3d</fix>
</trkpt>
<trkpt lat="-27.2737713" lon="151.2899124">
  <ele>367.95</ele>
  <time>2026-09-01T19:58:23Z</time>
  <course>107.74</course>
  <speed>0.29120439557122074</speed>
  <fix>3d</fix>
</trkpt>
<trkpt lat="-27.2737715" lon="151.2899135">
  <ele>368.5</ele>
  <time>2026-09-01T19:58:23Z</time>
  <course>292.93</course>
  <speed>0.22</speed>
  <fix>3d</fix>
</trkpt>
<trkpt lat="-27.2737712" lon="151.2899122">
  <ele>367.8</ele>
  <time>2026-09-01T19:58:23Z</time>
  <course>107.73</course>
  <speed>0.29410882339705485</speed>
  <fix>3d</fix>
</trkpt>
<trkpt lat="-27.2737714" lon="151.2899132">
  <ele>368.2</ele>
  <time>2026-09-01T19:58:23Z</time>
  <course>292.31</course>
  <speed>0.24</speed>
  <fix>3d</fix>
</trkpt>
<trkpt lat="-27.2737711" lon="151.2899119">
  <ele>367.65</ele>
  <time>2026-09-01T19:58:23Z</time>
  <course>107.76</course>
  <speed>0.30364452901377953</speed>
  <fix>3d</fix>
</trkpt>
<trkpt lat="-27.2737714" lon="151.2899132">
  <ele>368.2</ele>
  <time>2026-09-01T19:58:23Z</time>
  <course>292.31</course>
  <speed>0.24</speed>
  <fix>3d</fix>
</trkpt>
<trkpt lat="-27.273771" lon="151.2899117">
  <ele>367.5</ele>
  <time>2026-09-01T19:58:23Z</time>
  <course>107.82</course>
  <speed>0.30364452901377953</speed>
  <fix>3d</fix>
</trkpt>
<trkpt lat="-27.2737712" lon="151.2899127">
  <ele>367.91</ele>
  <time>2026-09-01T19:58:23Z</time>
  <course>292.02</course>
  <speed>0.26</speed>
  <fix>3d</fix>
</trkpt>
<trkpt lat="-27.2737709" lon="151.2899114">
  <ele>367.35</ele>
  <time>2026-09-01T19:58:23Z</time>
  <course>107.91</course>
  <speed>0.3132091952673165</speed>
  <fix>3d</fix>
</trkpt>
<trkpt lat="-27.2737712" lon="151.2899127">
  <ele>367.91</ele>
  <time>2026-09-01T19:58:23Z</time>
  <course>292.02</course>
  <speed>0.26</speed>
  <fix>3d</fix>
</trkpt>
<trkpt lat="-27.2737708" lon="151.2899112">
  <ele>367.2</ele>
  <time>2026-09-01T19:58:23Z</time>
  <course>108.0</course>
  <speed>0.3132091952673165</speed>
  <fix>3d</fix>
</trkpt>
<trkpt lat="-27.2737709" lon="151.2899122">
  <ele>367.6</ele>
  <time>2026-09-01T19:58:23Z</time>
  <course>292.04</course>
  <speed>0.28</speed>
  <fix>3d</fix>
</trkpt>
<trkpt lat="-27.2737708" lon="151.2899109">
  <ele>367.05</ele>
  <time>2026-09-01T19:58:23Z</time>
  <course>108.09</course>
  <speed>0.3132091952673165</speed>
  <fix>3d</fix>
</trkpt>
<trkpt lat="-27.2737709" lon="151.2899122">
  <ele>367.6</ele>
  <time>2026-09-01T19:58:23Z</time>
  <course>292.04</course>
  <speed>0.28</speed>
  <fix>3d</fix>
</trkpt>
<trkpt lat="-27.2737707" lon="151.2899107">
  <ele>366.89</ele>
  <time>2026-09-01T19:58:23Z</time>
  <course>108.18</course>
  <speed>0.3132091952673165</speed>
  <fix>3d</fix>
</trkpt>
<trkpt lat="-27.2737708" lon="151.2899116">
  <ele>367.3</ele>
  <time>2026-09-01T19:58:23Z</time>
  <course>292.39</course>
  <speed>0.29</speed>
  <fix>3d</fix>
</trkpt>
<trkpt lat="-27.2737706" lon="151.2899104">
  <ele>366.74</ele>
  <time>2026-09-01T19:58:23Z</time>
  <course>108.26</course>
  <speed>0.31622776601683794</speed>
  <fix>3d</fix>
</trkpt>
<trkpt lat="-27.2737708" lon="151.2899116">
  <ele>367.3</ele>
  <time>2026-09-01T19:58:23Z</time>
  <course>292.39</course>
  <speed>0.29</speed>
  <fix>3d</fix>
</trkpt>
<trkpt lat="-27.2737705" lon="151.2899102">
  <ele>366.59</ele>
  <time>2026-09-01T19:58:23Z</time>
  <course>108.32</course>
  <speed>0.30675723300355934</speed>
  <fix>3d</fix>
</trkpt>
<trkpt lat="-27.2737706" lon="151.289911">
  <ele>366.99</ele>
  <time>2026-09-01T19:58:23Z</time>
  <course>292.82</course>
  <speed>0.29</speed>
  <fix>3d</fix>
</trkpt>
<trkpt lat="-27.2737704" lon="151.2899099">
  <ele>366.43</ele>
  <time>2026-09-01T19:58:23Z</time>
  <course>108.36</course>
  <speed>0.30675723300355934</speed>
  <fix>3d</fix>
</trkpt>
<trkpt lat="-27.2737706" lon="151.289911">
  <ele>366.99</ele>
  <time>2026-09-01T19:58:23Z</time>
  <course>292.82</course>
  <speed>0.29</speed>
  <fix>3d</fix>
</trkpt>
<trkpt lat="-27.2737703" lon="151.2899097">
  <ele>366.28</ele>
  <time>2026-09-01T19:58:23Z</time>
  <course>108.38</course>
  <speed>0.30675723300355934</speed>
  <fix>3d</fix>
</trkpt>
<trkpt lat="-27.2737703" lon="151.2899105">
  <ele>366.69</ele>
  <time>2026-09-01T19:58:23Z</time>
  <course>293.25</course>
  <speed>0.29</speed>
  <fix>3d</fix>
</trkpt>
<trkpt lat="-27.2737702" lon="151.2899094">
  <ele>366.13</ele>
  <time>2026-09-01T19:58:23Z</time>
  <course>108.41</course>
  <speed>0.2973213749463701</speed>
  <fix>3d</fix>
</trkpt>
<trkpt lat="-27.2737703" lon="151.2899105">
  <ele>366.69</ele>
  <time>2026-09-01T19:58:23Z</time>
  <course>293.25</course>
  <speed>0.29</speed>
  <fix>3d</fix>
</trkpt>
<trkpt lat="-27.2737701" lon="151.2899092">
  <ele>365.98</ele>
  <time>2026-09-01T19:58:23Z</time>
  <course>108.44</course>
  <speed>0.29410882339705485</speed>
  <fix>3d</fix>
</trkpt>
<trkpt lat="-27.2737702" lon="151.28991">
  <ele>366.39</ele>
  <time>2026-09-01T19:58:23Z</time>
  <course>293.73</course>
  <speed>0.28</speed>
  <fix>3d</fix>
</trkpt>
<trkpt lat="-27.27377" lon="151.2899089">
  <ele>365.83</ele>
  <time>2026-09-01T19:58:23Z</time>
  <course>108.46</course>
  <speed>0.29410882339705485</speed>
  <fix>3d</fix>
</trkpt>
<trkpt lat="-27.2737702" lon="151.28991">
  <ele>366.39</ele>
  <time>2026-09-01T19:58:23Z</time>
  <course>293.73</course>
  <speed>0.28</speed>
  <fix>3d</fix>
</trkpt>
<trkpt lat="-27.2737699" lon="151.2899087">
  <ele>365.68</ele>
  <time>2026-09-01T19:58:23Z</time>
  <course>108.48</course>
  <speed>0.2816025568065745</speed>
  <fix>3d</fix>
</trkpt>
<trkpt lat="-27.27377" lon="151.2899095">
  <ele>366.08</ele>
  <time>2026-09-01T19:58:23Z</time>
  <course>294.3</course>
  <speed>0.28</speed>
  <fix>3d</fix>
</trkpt>
<trkpt lat="-27.2737698" lon="151.2899084">
  <ele>365.53</ele>
  <time>2026-09-01T19:58:23Z</time>
  <course>108.48</course>
  <speed>0.2816025568065745</speed>
  <fix>3d</fix>
</trkpt>
<trkpt lat="-27.27377" lon="151.2899095">
  <ele>366.08</ele>
  <time>2026-09-01T19:58:23Z</time>
  <course>294.3</course>
  <speed>0.28</speed>
  <fix>3d</fix>
</trkpt>
<trkpt lat="-27.2737697" lon="151.2899082">
  <ele>365.37</ele>
  <time>2026-09-01T19:58:23Z</time>
  <course>108.49</course>
  <speed>0.2720294101747089</speed>
  <fix>3d</fix>
</trkpt>
<trkpt lat="-27.2737697" lon="151.289909">
  <ele>365.78</ele>
  <time>2026-09-01T19:58:23Z</time>
  <course>294.82</course>
  <speed>0.27</speed>
  <fix>3d</fix>
</trkpt>
<trkpt lat="-27.2737696" lon="151.289908">
  <ele>365.22</ele>
  <time>2026-09-01T19:58:23Z</time>
  <course>108.49</course>
  <speed>0.2720294101747089</speed>
  <fix>3d</fix>
</trkpt>
<trkpt lat="-27.2737697" lon="151.289909">
  <ele>365.78</ele>
  <time>2026-09-01T19:58:23Z</time>
  <course>294.82</course>
  <speed>0.27</speed>
  <fix>3d</fix>
</trkpt>
<trkpt lat="-27.2737695" lon="151.2899077">
  <ele>365.06</ele>
  <time>2026-09-01T19:58:23Z</time>
  <course>108.5</course>
  <speed>0.26248809496813374</speed>
  <fix>3d</fix>
</trkpt>
<trkpt lat="-27.2737696" lon="151.2899085">
  <ele>365.47</ele>
  <time>2026-09-01T19:58:23Z</time>
  <course>295.32</course>
  <speed>0.25</speed>
  <fix>3d</fix>
</trkpt>
<trkpt lat="-27.2737695" lon="151.2899075">
  <ele>364.91</ele>
  <time>2026-09-01T19:58:23Z</time>
  <course>108.52</course>
  <speed>0.2529822128134704</speed>
  <fix>3d</fix>
</trkpt>
<trkpt lat="-27.2737696" lon="151.2899085">
  <ele>365.47</ele>
  <time>2026-09-01T19:58:23Z</time>
  <course>295.32</course>
  <speed>0.25</speed>
  <fix>3d</fix>
</trkpt>
<trkpt lat="-27.2737694" lon="151.2899073">
  <ele>364.76</ele>
  <time>2026-09-01T19:58:23Z</time>
  <course>108.55</course>
  <speed>0.24351591323771843</speed>
  <fix>3d</fix>
</trkpt>
<trkpt lat="-27.2737694" lon="151.289908">
  <ele>365.17</ele>
  <time>2026-09-01T19:58:23Z</time>
  <course>296.0</course>
  <speed>0.24</speed>
  <fix>3d</fix>
</trkpt>
<trkpt lat="-27.2737693" lon="151.2899071">
  <ele>364.61</ele>
  <time>2026-09-01T19:58:23Z</time>
  <course>108.59</course>
  <speed>0.24351591323771843</speed>
  <fix>3d</fix>
</trkpt>
<trkpt lat="-27.2737694" lon="151.289908">
  <ele>365.17</ele>
  <time>2026-09-01T19:58:23Z</time>
  <course>296.0</course>
  <speed>0.24</speed>
  <fix>3d</fix>
</trkpt>
<trkpt lat="-27.2737692" lon="151.2899069">
  <ele>364.45</ele>
  <time>2026-09-01T19:58:23Z</time>
  <course>108.65</course>
  <speed>0.2340939982143925</speed>
  <fix>3d</fix>
</trkpt>
<trkpt lat="-27.2737691" lon="151.2899076">
  <ele>364.87</ele>
  <time>2026-09-01T19:58:23Z</time>
  <course>296.9</course>
  <speed>0.23</speed>
  <fix>3d</fix>
</trkpt>
<trkpt lat="-27.2737691" lon="151.2899067">
  <ele>364.3</ele>
  <time>2026-09-01T19:58:23Z</time>
  <course>108.72</course>
  <speed>0.22472205054244232</speed>
  <fix>3d</fix>
</trkpt>
<trkpt lat="-27.2737691" lon="151.2899076">
  <ele>364.87</ele>
  <time>2026-09-01T19:58:23Z</time>
  <course>296.9</course>
  <speed>0.23</speed>
  <fix>3d</fix>
</trkpt>
<trkpt lat="-27.273769" lon="151.2899066">
  <ele>364.15</ele>
  <time>2026-09-01T19:58:23Z</time>
  <course>108.78</course>
  <speed>0.21540659228538014</speed>
  <fix>3d</fix>
</trkpt>
<trkpt lat="-27.273769" lon="151.2899072">
  <ele>364.57</ele>
  <time>2026-09-01T19:58:23Z</time>
  <course>298.11</course>
  <speed>0.22</speed>
  <fix>3d</fix>
</trkpt>
<trkpt lat="-27.2737689" lon="151.2899064">
  <ele>364.0</ele>
  <time>2026-09-01T19:58:23Z</time>
  <course>108.84</course>
  <speed>0.21540659228538014</speed>
  <fix>3d</fix>
</trkpt>
<trkpt lat="-27.273769" lon="151.2899072">
  <ele>364.57</ele>
  <time>2026-09-01T19:58:23Z</time>
  <course>298.11</course>
  <speed>0.22</speed>
  <fix>3d</fix>
</trkpt>
<trkpt lat="-27.2737688" lon="151.2899062">
  <ele>363.86</ele>
  <time>2026-09-01T19:58:23Z</time>
  <course>108.91</course>
  <speed>0.20248456731316586</speed>
  <fix>3d</fix>
</trkpt>
<trkpt lat="-27.2737688" lon="151.2899068">
  <ele>364.27</ele>
  <time>2026-09-01T19:58:23Z</time>
  <course>299.57</course>
  <speed>0.2</speed>
  <fix>3d</fix>
</trkpt>
<trkpt lat="-27.2737687" lon="151.2899061">
  <ele>363.71</ele>
  <time>2026-09-01T19:58:23Z</time>
  <course>108.97</course>
  <speed>0.19313207915827968</speed>
  <fix>3d</fix>
</trkpt>
<trkpt lat="-27.2737688" lon="151.2899068">
  <ele>364.27</ele>
  <time>2026-09-01T19:58:23Z</time>
  <course>299.57</course>
  <speed>0.2</speed>
  <fix>3d</fix>
</trkpt>
<trkpt lat="-27.2737687" lon="151.2899059">
  <ele>363.56</ele>
  <time>2026-09-01T19:58:23Z</time>
  <course>109.02</course>
  <speed>0.18384776310850234</speed>
  <fix>3d</fix>
</trkpt>
<trkpt lat="-27.2737686" lon="151.2899064">
  <ele>363.97</ele>
  <time>2026-09-01T19:58:23Z</time>
  <course>301.18</course>
  <speed>0.18</speed>
  <fix>3d</fix>
</trkpt>
<trkpt lat="-27.2737686" lon="151.2899058">
  <ele>363.41</ele>
  <time>2026-09-01T19:58:23Z</time>
  <course>109.07</course>
  <speed>0.17464249196572978</speed>
  <fix>3d</fix>
</trkpt>
<trkpt lat="-27.2737686" lon="151.2899064">
  <ele>363.97</ele>
  <time>2026-09-01T19:58:23Z</time>
  <course>301.18</course>
  <speed>0.18</speed>
  <fix>3d</fix>
</trkpt>
<trkpt lat="-27.2737685" lon="151.2899056">
  <ele>363.25</ele>
  <time>2026-09-01T19:58:23Z</time>
  <course>109.12</course>
  <speed>0.16552945357246848</speed>
  <fix>3d</fix>
</trkpt>
<trkpt lat="-27.2737685" lon="151.2899061">
  <ele>363.68</ele>
  <time>2026-09-01T19:58:23Z</time>
  <course>303.11</course>
  <speed>0.17</speed>
  <fix>3d</fix>
</trkpt>
<trkpt lat="-27.2737684" lon="151.2899055">
  <ele>363.1</ele>
  <time>2026-09-01T19:58:23Z</time>
  <course>109.17</course>
  <speed>0.15652475842498528</speed>
  <fix>3d</fix>
</trkpt>
<trkpt lat="-27.2737685" lon="151.2899061">
  <ele>363.68</ele>
  <time>2026-09-01T19:58:23Z</time>
  <course>303.11</course>
  <speed>0.17</speed>
  <fix>3d</fix>
</trkpt>
<trkpt lat="-27.2737683" lon="151.2899054">
  <ele>362.96</ele>
  <time>2026-09-01T19:58:23Z</time>
  <course>109.22</course>
  <speed>0.14317821063276354</speed>
  <fix>3d</fix>
</trkpt>
<trkpt lat="-27.2737683" lon="151.2899059">
  <ele>363.38</ele>
  <time>2026-09-01T19:58:23Z</time>
  <course>305.7</course>
  <speed>0.15</speed>
  <fix>3d</fix>
</trkpt>
<trkpt lat="-27.2737683" lon="151.2899053">
  <ele>362.81</ele>
  <time>2026-09-01T19:58:23Z</time>
  <course>109.29</course>
  <speed>0.1341640786499874</speed>
  <fix>3d</fix>
</trkpt>
<trkpt lat="-27.2737683" lon="151.2899059">
  <ele>363.38</ele>
  <time>2026-09-01T19:58:23Z</time>
  <course>305.7</course>
  <speed>0.15</speed>
  <fix>3d</fix>
</trkpt>
<trkpt lat="-27.2737682" lon="151.2899052">
  <ele>362.66</ele>
  <time>2026-09-01T19:58:23Z</time>
  <course>109.36</course>
  <speed>0.1341640786499874</speed>
  <fix>3d</fix>
</trkpt>
<trkpt lat="-27.2737681" lon="151.2899057">
  <ele>363.08</ele>
  <time>2026-09-01T19:58:23Z</time>
  <course>309.09</course>
  <speed>0.14</speed>
  <fix>3d</fix>
</trkpt>
<trkpt lat="-27.2737681" lon="151.2899051">
  <ele>362.51</ele>
  <time>2026-09-01T19:58:23Z</time>
  <course>109.43</course>
  <speed>0.12529964086141668</speed>
  <fix>3d</fix>
</trkpt>
<trkpt lat="-27.2737681" lon="151.2899057">
  <ele>363.08</ele>
  <time>2026-09-01T19:58:23Z</time>
  <course>309.09</course>
  <speed>0.14</speed>
  <fix>3d</fix>
</trkpt>
<trkpt lat="-27.273768" lon="151.289905">
  <ele>362.36</ele>
  <time>2026-09-01T19:58:23Z</time>
  <course>109.5</course>
  <speed>0.11661903789690602</speed>
  <fix>3d</fix>
</trkpt>
<trkpt lat="-27.2737679" lon="151.2899054">
  <ele>362.79</ele>
  <time>2026-09-01T19:58:23Z</time>
  <course>313.19</course>
  <speed>0.12</speed>
  <fix>3d</fix>
</trkpt>
<trkpt lat="-27.273768" lon="151.289905">
  <ele>362.21</ele>
  <time>2026-09-01T19:58:23Z</time>
  <course>109.58</course>
  <speed>0.10816653826391968</speed>
  <fix>3d</fix>
</trkpt>
<trkpt lat="-27.2737679" lon="151.2899054">
  <ele>362.79</ele>
  <time>2026-09-01T19:58:23Z</time>
  <course>313.19</course>
  <speed>0.12</speed>
  <fix>3d</fix>
</trkpt>
<trkpt lat="-27.2737679" lon="151.2899049">
  <ele>362.06</ele>
  <time>2026-09-01T19:58:23Z</time>
  <course>109.66</course>
  <speed>0.1</speed>
  <fix>3d</fix>
</trkpt>
<trkpt lat="-27.2737678" lon="151.2899052">
  <ele>362.49</ele>
  <time>2026-09-01T19:58:23Z</time>
  <course>318.47</course>
  <speed>0.1</speed>
  <fix>3d</fix>
</trkpt>
<trkpt lat="-27.2737678" lon="151.2899048">
  <ele>361.92</ele>
  <time>2026-09-01T19:58:23Z</time>
  <course>109.75</course>
  <speed>0.09219544457292887</speed>
  <fix>3d</fix>
</trkpt>
<trkpt lat="-27.2737678" lon="151.2899052">
  <ele>362.49</ele>
  <time>2026-09-01T19:58:23Z</time>
  <course>318.47</course>
  <speed>0.1</speed>
  <fix>3d</fix>
</trkpt>
<trkpt lat="-27.2737677" lon="151.2899048">
  <ele>361.77</ele>
  <time>2026-09-01T19:58:23Z</time>
  <course>109.83</course>
  <speed>0.07810249675906654</speed>
  <fix>3d</fix>
</trkpt>
<trkpt lat="-27.2737677" lon="151.2899051">
  <ele>362.19</ele>
  <time>2026-09-01T19:58:23Z</time>
  <course>325.4</course>
  <speed>0.09</speed>
  <fix>3d</fix>
</trkpt>
<trkpt lat="-27.2737677" lon="151.2899048">
  <ele>361.62</ele>
  <time>2026-09-01T19:58:23Z</time>
  <course>109.88</course>
  <speed>0.07810249675906654</speed>
  <fix>3d</fix>
</trkpt>
<trkpt lat="-27.2737677" lon="151.2899051">
  <ele>362.19</ele>
  <time>2026-09-01T19:58:23Z</time>
  <course>325.4</course>
  <speed>0.09</speed>
  <fix>3d</fix>
</trkpt>
<trkpt lat="-27.2737676" lon="151.2899047">
  <ele>361.47</ele>
  <time>2026-09-01T19:58:23Z</time>
  <course>109.9</course>
  <speed>0.06403124237432849</speed>
  <fix>3d</fix>
</trkpt>
<trkpt lat="-27.2737675" lon="151.289905">
  <ele>361.89</ele>
  <time>2026-09-01T19:58:23Z</time>
  <course>333.39</course>
  <speed>0.08</speed>
  <fix>3d</fix>
</trkpt>
<trkpt lat="-27.2737676" lon="151.2899047">
  <ele>361.32</ele>
  <time>2026-09-01T19:58:23Z</time>
  <course>109.86</course>
  <speed>0.0565685424949238</speed>
  <fix>3d</fix>
</trkpt>
<trkpt lat="-27.2737675" lon="151.289905">
  <ele>361.89</ele>
  <time>2026-09-01T19:58:23Z</time>
  <course>333.39</course>
  <speed>0.08</speed>
  <fix>3d</fix>
</trkpt>
<trkpt lat="-27.2737675" lon="151.2899047">
  <ele>361.18</ele>
  <time>2026-09-01T19:58:23Z</time>
  <course>109.73</course>
  <speed>0.044721359549995794</speed>
  <fix>3d</fix>
</trkpt>
<trkpt lat="-27.2737674" lon="151.289905">
  <ele>361.59</ele>
  <time>2026-09-01T19:58:23Z</time>
  <course>340.89</course>
  <speed>0.06</speed>
  <fix>3d</fix>
</trkpt>
<trkpt lat="-27.2737675" lon="151.2899047">
  <ele>361.03</ele>
  <time>2026-09-01T19:58:23Z</time>
  <course>109.48</course>
  <speed>0.0412310562561766</speed>
  <fix>3d</fix>
</trkpt>
<trkpt lat="-27.2737674" lon="151.289905">
  <ele>361.59</ele>
  <time>2026-09-01T19:58:23Z</time>
  <course>340.89</course>
  <speed>0.06</speed>
  <fix>3d</fix>
</trkpt>
<trkpt lat="-27.2737675" lon="151.2899047">
  <ele>360.88</ele>
  <time>2026-09-01T19:58:23Z</time>
  <course>109.09</course>
  <speed>0.0412310562561766</speed>
  <fix>3d</fix>
</trkpt>
<trkpt lat="-27.2737673" lon="151.289905">
  <ele>361.29</ele>
  <time>2026-09-01T19:58:23Z</time>
  <course>343.52</course>
  <speed>0.04</speed>
  <fix>3d</fix>
</trkpt>
<trkpt lat="-27.2737675" lon="151.2899047">
  <ele>360.73</ele>
  <time>2026-09-01T19:58:23Z</time>
  <course>108.61</course>
  <speed>0.05</speed>
  <fix>3d</fix>
</trkpt>
<trkpt lat="-27.2737673" lon="151.289905">
  <ele>361.29</ele>
  <time>2026-09-01T19:58:23Z</time>
  <course>343.52</course>
  <speed>0.04</speed>
  <fix>3d</fix>
</trkpt>
<trkpt lat="-27.2737675" lon="151.2899046">
  <ele>360.57</ele>
  <time>2026-09-01T19:58:23Z</time>
  <course>108.09</course>
  <speed>0.06403124237432849</speed>
  <fix>3d</fix>
</trkpt>
<trkpt lat="-27.2737673" lon="151.289905">
  <ele>360.99</ele>
  <time>2026-09-01T19:58:23Z</time>
  <course>294.51</course>
  <speed>0.0</speed>
  <fix>3d</fix>
</trkpt>
<trkpt lat="-27.2737675" lon="151.2899046">
  <ele>360.42</ele>
  <time>2026-09-01T19:58:23Z</time>
  <course>107.61</course>
  <speed>0.08062257748298549</speed>
  <fix>3d</fix>
</trkpt>
<trkpt lat="-27.2737673" lon="151.289905">
  <ele>360.99</ele>
  <time>2026-09-01T19:58:23Z</time>
  <course>294.51</course>
  <speed>0.0</speed>
  <fix>3d</fix>
</trkpt>
<trkpt lat="-27.2737676" lon="151.2899046">
  <ele>360.27</ele>
  <time>2026-09-01T19:58:23Z</time>
  <course>107.24</course>
  <speed>0.09848857801796104</speed>
  <fix>3d</fix>
</trkpt>
<trkpt lat="-27.2737673" lon="151.2899049">
  <ele>360.69</ele>
  <time>2026-09-01T19:58:23Z</time>
  <course>194.33</course>
  <speed>0.04</speed>
  <fix>3d</fix>
</trkpt>
<trkpt lat="-27.2737676" lon="151.2899046">
  <ele>360.12</ele>
  <time>2026-09-01T19:58:23Z</time>
  <course>106.98</course>
  <speed>0.11704699910719625</speed>
  <fix>3d</fix>
</trkpt>
<trkpt lat="-27.2737673" lon="151.2899049">
  <ele>360.69</ele>
  <time>2026-09-01T19:58:23Z</time>
  <course>194.33</course>
  <speed>0.04</speed>
  <fix>3d</fix>
</trkpt>
<trkpt lat="-27.2737677" lon="151.2899046">
  <ele>359.97</ele>
  <time>2026-09-01T19:58:23Z</time>
  <course>106.85</course>
  <speed>0.1392838827718412</speed>
  <fix>3d</fix>
</trkpt>
<trkpt lat="-27.2737674" lon="151.2899048">
  <ele>360.39</ele>
  <time>2026-09-01T19:58:23Z</time>
  <course>189.18</course>
  <speed>0.08</speed>
  <fix>3d</fix>
</trkpt>
<trkpt lat="-27.2737678" lon="151.2899046">
  <ele>359.82</ele>
  <time>2026-09-01T19:58:23Z</time>
  <course>106.82</course>
  <speed>0.14866068747318506</speed>
  <fix>3d</fix>
</trkpt>
<trkpt lat="-27.2737674" lon="151.2899048">
  <ele>360.39</ele>
  <time>2026-09-01T19:58:23Z</time>
  <course>189.18</course>
  <speed>0.08</speed>
  <fix>3d</fix>
</trkpt>
<trkpt lat="-27.2737679" lon="151.2899045">
  <ele>359.67</ele>
  <time>2026-09-01T19:58:23Z</time>
  <course>106.87</course>
  <speed>0.1676305461424021</speed>
  <fix>3d</fix>
</trkpt>
<trkpt lat="-27.2737675" lon="151.2899048">
  <ele>360.09</ele>
  <time>2026-09-01T19:58:23Z</time>
  <course>188.14</course>
  <speed>0.12</speed>
  <fix>3d</fix>
</trkpt>
<trkpt lat="-27.273768" lon="151.2899045">
  <ele>359.52</ele>
  <time>2026-09-01T19:58:23Z</time>
  <course>106.96</course>
  <speed>0.1772004514666935</speed>
  <fix>3d</fix>
</trkpt>
<trkpt lat="-27.2737675" lon="151.2899048">
  <ele>360.09</ele>
  <time>2026-09-01T19:58:23Z</time>
  <course>188.14</course>
  <speed>0.12</speed>
  <fix>3d</fix>
</trkpt>
<trkpt lat="-27.2737682" lon="151.2899045">
  <ele>359.37</ele>
  <time>2026-09-01T19:58:23Z</time>
  <course>107.06</course>
  <speed>0.18681541692269404</speed>
  <fix>3d</fix>
</trkpt>
<trkpt lat="-27.2737677" lon="151.2899048">
  <ele>359.79</ele>
  <time>2026-09-01T19:58:23Z</time>
  <course>187.81</course>
  <speed>0.15</speed>
  <fix>3d</fix>
</trkpt>
<trkpt lat="-27.2737683" lon="151.2899045">
  <ele>359.22</ele>
  <time>2026-09-01T19:58:23Z</time>
  <course>107.16</course>
  <speed>0.19924858845171275</speed>
  <fix>3d</fix>
</trkpt>
<trkpt lat="-27.2737677" lon="151.2899048">
  <ele>359.79</ele>
  <time>2026-09-01T19:58:23Z</time>
  <course>187.81</course>
  <speed>0.15</speed>
  <fix>3d</fix>
</trkpt>
<trkpt lat="-27.2737685" lon="151.2899044">
  <ele>359.07</ele>
  <time>2026-09-01T19:58:23Z</time>
  <course>107.23</course>
  <speed>0.208806130178211</speed>
  <fix>3d</fix>
</trkpt>
<trkpt lat="-27.273768" lon="151.2899047">
  <ele>359.49</ele>
  <time>2026-09-01T19:58:23Z</time>
  <course>187.53</course>
  <speed>0.17</speed>
  <fix>3d</fix>
</trkpt>
<trkpt lat="-27.2737687" lon="151.2899044">
  <ele>358.91</ele>
  <time>2026-09-01T19:58:23Z</time>
  <course>107.28</course>
  <speed>0.21840329667841554</speed>
  <fix>3d</fix>
</trkpt>
<trkpt lat="-27.273768" lon="151.2899047">
  <ele>359.49</ele>
  <time>2026-09-01T19:58:23Z</time>
  <course>187.53</course>
  <speed>0.17</speed>
  <fix>3d</fix>
</trkpt>
<trkpt lat="-27.2737688" lon="151.2899044">
  <ele>358.76</ele>
  <time>2026-09-01T19:58:23Z</time>
  <course>107.29</course>
  <speed>0.22803508501982758</speed>
  <fix>3d</fix>
</trkpt>
<trkpt lat="-27.2737684" lon="151.2899047">
  <ele>359.19</ele>
  <time>2026-09-01T19:58:23Z</time>
  <course>187.14</course>
  <speed>0.2</speed>
  <fix>3d</fix>
</trkpt>
<trkpt lat="-27.273769" lon="151.2899043">
  <ele>358.61</ele>
  <time>2026-09-01T19:58:23Z</time>
  <course>107.28</course>
  <speed>0.23769728648009425</speed>
  <fix>3d</fix>
</trkpt>
<trkpt lat="-27.2737684" lon="151.2899047">
  <ele>359.19</ele>
  <time>2026-09-01T19:58:23Z</time>
  <course>187.14</course>
  <speed>0.2</speed>
  <fix>3d</fix>
</trkpt>
<trkpt lat="-27.2737692" lon="151.2899043">
  <ele>358.46</ele>
  <time>2026-09-01T19:58:23Z</time>
  <course>107.25</course>
  <speed>0.2353720459187964</speed>
  <fix>3d</fix>
</trkpt>
<trkpt lat="-27.2737688" lon="151.2899047">
  <ele>358.89</ele>
  <time>2026-09-01T19:58:23Z</time>
  <course>186.62</course>
  <speed>0.21</speed>
  <fix>3d</fix>
</trkpt>
<trkpt lat="-27.2737694" lon="151.2899043">
  <ele>358.31</ele>
  <time>2026-09-01T19:58:23Z</time>
  <course>107.2</course>
  <speed>0.2353720459187964</speed>
  <fix>3d</fix>
</trkpt>
<trkpt lat="-27.2737688" lon="151.2899047">
  <ele>358.89</ele>
  <time>2026-09-01T19:58:23Z</time>
  <course>186.62</course>
  <speed>0.21</speed>
  <fix>3d</fix>
</trkpt>
<trkpt lat="-27.2737696" lon="151.2899043">
  <ele>358.17</ele>
  <time>2026-09-01T19:58:23Z</time>
  <course>107.16</course>
  <speed>0.24515301344262524</speed>
  <fix>3d</fix>
</trkpt>
<trkpt lat="-27.2737691" lon="151.2899046">
  <ele>358.59</ele>
  <time>2026-09-01T19:58:23Z</time>
  <course>186.0</course>
  <speed>0.22</speed>
  <fix>3d</fix>
</trkpt>
<trkpt lat="-27.2737698" lon="151.2899042">
  <ele>358.02</ele>
  <time>2026-09-01T19:58:23Z</time>
  <course>107.11</course>
  <speed>0.24515301344262524</speed>
  <fix>3d</fix>
</trkpt>
<trkpt lat="-27.2737691" lon="151.2899046">
  <ele>358.59</ele>
  <time>2026-09-01T19:58:23Z</time>
  <course>186.0</course>
  <speed>0.22</speed>
  <fix>3d</fix>
</trkpt>
<trkpt lat="-27.27377" lon="151.2899042">
  <ele>357.86</ele>
  <time>2026-09-01T19:58:23Z</time>
  <course>107.07</course>
  <speed>0.2353720459187964</speed>
  <fix>3d</fix>
</trkpt>
<trkpt lat="-27.2737696" lon="151.2899046">
  <ele>358.29</ele>
  <time>2026-09-01T19:58:23Z</time>
  <course>185.33</course>
  <speed>0.23</speed>
  <fix>3d</fix>
</trkpt>
<trkpt lat="-27.2737702" lon="151.2899042">
  <ele>357.71</ele>
  <time>2026-09-01T19:58:23Z</time>
  <course>107.03</course>
  <speed>0.2353720459187964</speed>
  <fix>3d</fix>
</trkpt>
<trkpt lat="-27.2737696" lon="151.2899046">
  <ele>358.29</ele>
  <time>2026-09-01T19:58:23Z</time>
  <course>185.33</course>
  <speed>0.23</speed>
  <fix>3d</fix>
</trkpt>
<trkpt lat="-27.2737704" lon="151.2899042">
  <ele>357.56</ele>
  <time>2026-09-01T19:58:23Z</time>
  <course>107.01</course>
  <speed>0.23345235059857505</speed>
  <fix>3d</fix>
</trkpt>
<trkpt lat="-27.27377" lon="151.2899045">
  <ele>357.99</ele>
  <time>2026-09-01T19:58:23Z</time>
  <course>184.59</course>
  <speed>0.23</speed>
  <fix>3d</fix>
</trkpt>
<trkpt lat="-27.2737706" lon="151.2899042">
  <ele>357.41</ele>
  <time>2026-09-01T19:58:23Z</time>
  <course>106.99</course>
  <speed>0.23345235059857505</speed>
  <fix>3d</fix>
</trkpt>
<trkpt lat="-27.27377" lon="151.2899045">
  <ele>357.99</ele>
  <time>2026-09-01T19:58:23Z</time>
  <course>184.59</course>
  <speed>0.23</speed>
  <fix>3d</fix>
</trkpt>
<trkpt lat="-27.2737708" lon="151.2899042">
  <ele>357.26</ele>
  <time>2026-09-01T19:58:23Z</time>
  <course>106.97</course>
  <speed>0.223606797749979</speed>
  <fix>3d</fix>
</trkpt>
<trkpt lat="-27.2737703" lon="151.2899045">
  <ele>357.69</ele>
  <time>2026-09-01T19:58:23Z</time>
  <course>183.8</course>
  <speed>0.23</speed>
  <fix>3d</fix>
</trkpt>
<trkpt lat="-27.273771" lon="151.2899042">
  <ele>357.11</ele>
  <time>2026-09-01T19:58:23Z</time>
  <course>106.96</course>
  <speed>0.21377558326431947</speed>
  <fix>3d</fix>
</trkpt>
<trkpt lat="-27.2737703" lon="151.2899045">
  <ele>357.69</ele>
  <time>2026-09-01T19:58:23Z</time>
  <course>183.8</course>
  <speed>0.23</speed>
  <fix>3d</fix>
</trkpt>
<trkpt lat="-27.2737712" lon="151.2899042">
  <ele>356.95</ele>
  <time>2026-09-01T19:58:23Z</time>
  <course>106.95</course>
  <speed>0.21213203435596426</speed>
  <fix>3d</fix>
</trkpt>
<trkpt lat="-27.2737708" lon="151.2899045">
  <ele>357.39</ele>
  <time>2026-09-01T19:58:23Z</time>
  <course>182.91</course>
  <speed>0.22</speed>
  <fix>3d</fix>
</trkpt>
<trkpt lat="-27.2737714" lon="151.2899042">
  <ele>356.81</ele>
  <time>2026-09-01T19:58:23Z</time>
  <course>106.94</course>
  <speed>0.20223748416156684</speed>
  <fix>3d</fix>
</trkpt>
<trkpt lat="-27.2737708" lon="151.2899045">
  <ele>357.39</ele>
  <time>2026-09-01T19:58:23Z</time>
  <course>182.91</course>
  <speed>0.22</speed>
  <fix>3d</fix>
</trkpt>
<trkpt lat="-27.2737715" lon="151.2899042">
  <ele>356.66</ele>
  <time>2026-09-01T19:58:23Z</time>
  <course>106.93</course>
  <speed>0.19235384061671343</speed>
  <fix>3d</fix>
</trkpt>
<trkpt lat="-27.2737712" lon="151.2899045">
  <ele>357.09</ele>
  <time>2026-09-01T19:58:23Z</time>
  <course>181.86</course>
  <speed>0.2</speed>
  <fix>3d</fix>
</trkpt>
<trkpt lat="-27.2737717" lon="151.2899042">
  <ele>356.51</ele>
  <time>2026-09-01T19:58:23Z</time>
  <course>106.92</course>
  <speed>0.1824828759089466</speed>
  <fix>3d</fix>
</trkpt>
<trkpt lat="-27.2737712" lon="151.2899045">
  <ele>357.09</ele>
  <time>2026-09-01T19:58:23Z</time>
  <course>181.86</course>
  <speed>0.2</speed>
  <fix>3d</fix>
</trkpt>
<trkpt lat="-27.2737719" lon="151.2899042">
  <ele>356.36</ele>
  <time>2026-09-01T19:58:23Z</time>
  <course>106.89</course>
  <speed>0.1711724276862369</speed>
  <fix>3d</fix>
</trkpt>
<trkpt lat="-27.2737715" lon="151.2899045">
  <ele>356.8</ele>
  <time>2026-09-01T19:58:23Z</time>
  <course>180.59</course>
  <speed>0.19</speed>
  <fix>3d</fix>
</trkpt>
<trkpt lat="-27.273772" lon="151.2899042">
  <ele>356.21</ele>
  <time>2026-09-01T19:58:23Z</time>
  <course>106.86</course>
  <speed>0.16124515496597097</speed>
  <fix>3d</fix>
</trkpt>
<trkpt lat="-27.2737715" lon="151.2899045">
  <ele>356.8</ele>
  <time>2026-09-01T19:58:23Z</time>
  <course>180.59</course>
  <speed>0.19</speed>
  <fix>3d</fix>
</trkpt>
<trkpt lat="-27.2737721" lon="151.2899042">
  <ele>356.06</ele>
  <time>2026-09-01T19:58:23Z</time>
  <course>106.84</course>
  <speed>0.15132745950421556</speed>
  <fix>3d</fix>
</trkpt>
<trkpt lat="-27.2737719" lon="151.2899045">
  <ele>356.5</ele>
  <time>2026-09-01T19:58:23Z</time>
  <course>178.92</course>
  <speed>0.17</speed>
  <fix>3d</fix>
</trkpt>
<trkpt lat="-27.2737723" lon="151.2899042">
  <ele>355.91</ele>
  <time>2026-09-01T19:58:23Z</time>
  <course>106.81</course>
  <speed>0.1414213562373095</speed>
  <fix>3d</fix>
</trkpt>
<trkpt lat="-27.2737719" lon="151.2899045">
  <ele>356.5</ele>
  <time>2026-09-01T19:58:23Z</time>
  <course>178.92</course>
  <speed>0.17</speed>
  <fix>3d</fix>
</trkpt>
<trkpt lat="-27.2737724" lon="151.2899042">
  <ele>355.76</ele>
  <time>2026-09-01T19:58:23Z</time>
  <course>106.78</course>
  <speed>0.130384048104053</speed>
  <fix>3d</fix>
</trkpt>
<trkpt lat="-27.2737721" lon="151.2899045">
  <ele>356.2</ele>
  <time>2026-09-01T19:58:23Z</time>
  <course>176.87</course>
  <speed>0.15</speed>
  <fix>3d</fix>
</trkpt>
<trkpt lat="-27.2737725" lon="151.2899042">
  <ele>355.61</ele>
  <time>2026-09-01T19:58:23Z</time>
  <course>106.76</course>
  <speed>0.12041594578792296</speed>
  <fix>3d</fix>
</trkpt>
<trkpt lat="-27.2737721" lon="151.2899045">
  <ele>356.2</ele>
  <time>2026-09-01T19:58:23Z</time>
  <course>176.87</course>
  <speed>0.15</speed>
  <fix>3d</fix>
</trkpt>
<trkpt lat="-27.2737726" lon="151.2899042">
  <ele>355.46</ele>
  <time>2026-09-01T19:58:23Z</time>
  <course>106.73</course>
  <speed>0.11045361017187261</speed>
  <fix>3d</fix>
</trkpt>
<trkpt lat="-27.2737724" lon="151.2899045">
  <ele>355.91</ele>
  <time>2026-09-01T19:58:23Z</time>
  <course>174.23</course>
  <speed>0.13</speed>
  <fix>3d</fix>
</trkpt>
<trkpt lat="-27.2737727" lon="151.2899042">
  <ele>355.31</ele>
  <time>2026-09-01T19:58:23Z</time>
  <course>106.69</course>
  <speed>0.09</speed>
  <fix>3d</fix>
</trkpt>
<trkpt lat="-27.2737724" lon="151.2899045">
  <ele>355.91</ele>
  <time>2026-09-01T19:58:23Z</time>
  <course>174.23</course>
  <speed>0.13</speed>
  <fix>3d</fix>
</trkpt>
<trkpt lat="-27.2737728" lon="151.2899042">
  <ele>355.16</ele>
  <time>2026-09-01T19:58:23Z</time>
  <course>106.65</course>
  <speed>0.08</speed>
  <fix>3d</fix>
</trkpt>
<trkpt lat="-27.2737727" lon="151.2899045">
  <ele>355.61</ele>
  <time>2026-09-01T19:58:23Z</time>
  <course>170.41</course>
  <speed>0.1</speed>
  <fix>3d</fix>
</trkpt>
<trkpt lat="-27.2737728" lon="151.2899042">
  <ele>355.01</ele>
  <time>2026-09-01T19:58:23Z</time>
  <course>106.61</course>
  <speed>0.07</speed>
  <fix>3d</fix>
</trkpt>
<trkpt lat="-27.2737727" lon="151.2899045">
  <ele>355.61</ele>
  <time>2026-09-01T19:58:23Z</time>
  <course>170.41</course>
  <speed>0.1</speed>
  <fix>3d</fix>
</trkpt>
<trkpt lat="-27.2737729" lon="151.2899043">
  <ele>354.86</ele>
  <time>2026-09-01T19:58:23Z</time>
  <course>106.56</course>
  <speed>0.06</speed>
  <fix>3d</fix>
</trkpt>
<trkpt lat="-27.2737728" lon="151.2899045">
  <ele>355.31</ele>
  <time>2026-09-01T19:58:23Z</time>
  <course>164.78</course>
  <speed>0.08</speed>
  <fix>3d</fix>
</trkpt>
<trkpt lat="-27.273773" lon="151.2899043">
  <ele>354.71</ele>
  <time>2026-09-01T19:58:23Z</time>
  <course>106.5</course>
  <speed>0.05</speed>
  <fix>3d</fix>
</trkpt>
<trkpt lat="-27.2737728" lon="151.2899045">
  <ele>355.31</ele>
  <time>2026-09-01T19:58:23Z</time>
  <course>164.78</course>
  <speed>0.08</speed>
  <fix>3d</fix>
</trkpt>
<trkpt lat="-27.273773" lon="151.2899043">
  <ele>354.56</ele>
  <time>2026-09-01T19:58:23Z</time>
  <course>106.42</course>
  <speed>0.04</speed>
  <fix>3d</fix>
</trkpt>
<trkpt lat="-27.2737729" lon="151.2899045">
  <ele>355.02</ele>
  <time>2026-09-01T19:58:23Z</time>
  <course>156.56</course>
  <speed>0.06</speed>
  <fix>3d</fix>
</trkpt>
<trkpt lat="-27.273773" lon="151.2899043">
  <ele>354.42</ele>
  <time>2026-09-01T19:58:23Z</time>
  <course>106.33</course>
  <speed>0.03</speed>
  <fix>3d</fix>
</trkpt>
<trkpt lat="-27.2737729" lon="151.2899045">
  <ele>355.02</ele>
  <time>2026-09-01T19:58:23Z</time>
  <course>156.56</course>
  <speed>0.06</speed>
  <fix>3d</fix>
</trkpt>
<trkpt lat="-27.2737731" lon="151.2899044">
  <ele>354.27</ele>
  <time>2026-09-01T19:58:23Z</time>
  <course>106.21</course>
  <speed>0.03</speed>
  <fix>3d</fix>
</trkpt>
<trkpt lat="-27.273773" lon="151.2899046">
  <ele>354.72</ele>
  <time>2026-09-01T19:58:23Z</time>
  <course>144.85</course>
  <speed>0.05</speed>
  <fix>3d</fix>
</trkpt>
<trkpt lat="-27.2737731" lon="151.2899044">
  <ele>354.12</ele>
  <time>2026-09-01T19:58:23Z</time>
  <course>106.07</course>
  <speed>0.02</speed>
  <fix>3d</fix>
</trkpt>
<trkpt lat="-27.273773" lon="151.2899046">
  <ele>354.72</ele>
  <time>2026-09-01T19:58:23Z</time>
  <course>144.85</course>
  <speed>0.05</speed>
  <fix>3d</fix>
</trkpt>
<trkpt lat="-27.2737731" lon="151.2899044">
  <ele>353.98</ele>
  <time>2026-09-01T19:58:23Z</time>
  <course>105.9</course>
  <speed>0.02</speed>
  <fix>3d</fix>
</trkpt>
<trkpt lat="-27.2737731" lon="151.2899046">
  <ele>354.42</ele>
  <time>2026-09-01T19:58:23Z</time>
  <course>130.9</course>
  <speed>0.03</speed>
  <fix>3d</fix>
</trkpt>
<trkpt lat="-27.2737731" lon="151.2899044">
  <ele>353.83</ele>
  <time>2026-09-01T19:58:23Z</time>
  <course>105.72</course>
  <speed>0.02</speed>
  <fix>3d</fix>
</trkpt>
<trkpt lat="-27.2737731" lon="151.2899046">
  <ele>354.42</ele>
  <time>2026-09-01T19:58:23Z</time>
  <course>130.9</course>
  <speed>0.03</speed>
  <fix>3d</fix>
</trkpt>
<trkpt lat="-27.2737731" lon="151.2899044">
  <ele>353.69</ele>
  <time>2026-09-01T19:58:23Z</time>
  <course>105.53</course>
  <speed>0.01</speed>
  <fix>3d</fix>
</trkpt>
<trkpt lat="-27.2737731" lon="151.2899047">
  <ele>354.13</ele>
  <time>2026-09-01T19:58:23Z</time>
  <course>118.9</course>
  <speed>0.03</speed>
  <fix>3d</fix>
</trkpt>
<trkpt lat="-27.2737731" lon="151.2899045">
  <ele>353.55</ele>
  <time>2026-09-01T19:58:23Z</time>
  <course>105.36</course>
  <speed>0.01</speed>
  <fix>3d</fix>
</trkpt>
<trkpt lat="-27.2737731" lon="151.2899047">
  <ele>354.13</ele>
  <time>2026-09-01T19:58:23Z</time>
  <course>118.9</course>
  <speed>0.03</speed>
  <fix>3d</fix>
</trkpt>
<trkpt lat="-27.2737732" lon="151.2899045">
  <ele>353.41</ele>
  <time>2026-09-01T19:58:23Z</time>
  <course>105.2</course>
  <speed>0.01</speed>
  <fix>3d</fix>
</trkpt>
<trkpt lat="-27.2737732" lon="151.2899047">
  <ele>353.84</ele>
  <time>2026-09-01T19:58:23Z</time>
  <course>111.23</course>
  <speed>0.02</speed>
  <fix>3d</fix>
</trkpt>
<trkpt lat="-27.2737732" lon="151.2899045">
  <ele>353.28</ele>
  <time>2026-09-01T19:58:23Z</time>
  <course>105.07</course>
  <speed>0.01414213562373095</speed>
  <fix>3d</fix>
</trkpt>
<trkpt lat="-27.2737732" lon="151.2899047">
  <ele>353.84</ele>
  <time>2026-09-01T19:58:23Z</time>
  <course>111.23</course>
  <speed>0.02</speed>
  <fix>3d</fix>
</trkpt>
<trkpt lat="-27.2737732" lon="151.2899045">
  <ele>353.14</ele>
  <time>2026-09-01T19:58:23Z</time>
  <course>104.96</course>
  <speed>0.01414213562373095</speed>
  <fix>3d</fix>
</trkpt>
<trkpt lat="-27.2737732" lon="151.2899047">
  <ele>353.57</ele>
  <time>2026-09-01T19:58:23Z</time>
  <course>107.13</course>
  <speed>0.02</speed>
  <fix>3d</fix>
</trkpt>
<trkpt lat="-27.2737732" lon="151.2899045">
  <ele>353.01</ele>
  <time>2026-09-01T19:58:23Z</time>
  <course>104.87</course>
  <speed>0.01414213562373095</speed>
  <fix>3d</fix>
</trkpt>
<trkpt lat="-27.2737732" lon="151.2899047">
  <ele>353.57</ele>
  <time>2026-09-01T19:58:23Z</time>
  <course>107.13</course>
  <speed>0.02</speed>
  <fix>3d</fix>
</trkpt>
<trkpt lat="-27.2737732" lon="151.2899045">
  <ele>352.88</ele>
  <time>2026-09-01T19:58:23Z</time>
  <course>104.8</course>
  <speed>0.01414213562373095</speed>
  <fix>3d</fix>
</trkpt>
<trkpt lat="-27.2737732" lon="151.2899048">
  <ele>353.3</ele>
  <time>2026-09-01T19:58:23Z</time>
  <course>105.64</course>
  <speed>0.02</speed>
  <fix>3d</fix>
</trkpt>
<trkpt lat="-27.2737732" lon="151.2899045">
  <ele>352.75</ele>
  <time>2026-09-01T19:58:23Z</time>
  <course>104.75</course>
  <speed>0.022360679774997897</speed>
  <fix>3d</fix>
</trkpt>
<trkpt lat="-27.2737732" lon="151.2899048">
  <ele>353.3</ele>
  <time>2026-09-01T19:58:23Z</time>
  <course>105.64</course>
  <speed>0.02</speed>
  <fix>3d</fix>
</trkpt>
<trkpt lat="-27.2737732" lon="151.2899045">
  <ele>352.63</ele>
  <time>2026-09-01T19:58:23Z</time>
  <course>104.69</course>
  <speed>0.022360679774997897</speed>
  <fix>3d</fix>
</trkpt>
<trkpt lat="-27.2737732" lon="151.2899048">
  <ele>353.04</ele>
  <time>2026-09-01T19:58:23Z</time>
  <course>107.1</course>
  <speed>0.01</speed>
  <fix>3d</fix>
</trkpt>
<trkpt lat="-27.2737732" lon="151.2899045">
  <ele>352.51</ele>
  <time>2026-09-01T19:58:23Z</time>
  <course>104.63</course>
  <speed>0.022360679774997897</speed>
  <fix>3d</fix>
</trkpt>
<trkpt lat="-27.2737732" lon="151.2899048">
  <ele>353.04</ele>
  <time>2026-09-01T19:58:23Z</time>
  <course>107.1</course>
  <speed>0.01</speed>
  <fix>3d</fix>
</trkpt>
<trkpt lat="-27.2737732" lon="151.2899045">
  <ele>352.39</ele>
  <time>2026-09-01T19:58:23Z</time>
  <course>104.56</course>
  <speed>0.022360679774997897</speed>
  <fix>3d</fix>
</trkpt>
<trkpt lat="-27.2737732" lon="151.2899048">
  <ele>352.79</ele>
  <time>2026-09-01T19:58:23Z</time>
  <course>115.75</course>
  <speed>0.01</speed>
  <fix>3d</fix>
</trkpt>
<trkpt lat="-27.2737732" lon="151.2899045">
  <ele>352.27</ele>
  <time>2026-09-01T19:58:23Z</time>
  <course>104.48</course>
  <speed>0.0316227766016838</speed>
  <fix>3d</fix>
</trkpt>
<trkpt lat="-27.2737732" lon="151.2899048">
  <ele>352.79</ele>
  <time>2026-09-01T19:58:23Z</time>
  <course>115.75</course>
  <speed>0.01</speed>
  <fix>3d</fix>
</trkpt>
<trkpt lat="-27.2737733" lon="151.2899045">
  <ele>352.16</ele>
  <time>2026-09-01T19:58:23Z</time>
  <course>104.42</course>
  <speed>0.03605551275463989</speed>
  <fix>3d</fix>
</trkpt>
<trkpt lat="-27.2737732" lon="151.2899049">
  <ele>352.55</ele>
  <time>2026-09-01T19:58:23Z</time>
  <course>138.72</course>
  <speed>0.0</speed>
  <fix>3d</fix>
</trkpt>
<trkpt lat="-27.2737733" lon="151.2899045">
  <ele>352.04</ele>
  <time>2026-09-01T19:58:23Z</time>
  <course>104.37</course>
  <speed>0.03605551275463989</speed>
  <fix>3d</fix>
</trkpt>
<trkpt lat="-27.2737732" lon="151.2899049">
  <ele>352.55</ele>
  <time>2026-09-01T19:58:23Z</time>
  <course>138.72</course>
  <speed>0.0</speed>
  <fix>3d</fix>
</trkpt>
<trkpt lat="-27.2737733" lon="151.2899045">
  <ele>351.93</ele>
  <time>2026-09-01T19:58:24Z</time>
  <course>104.32</course>
  <speed>0.03605551275463989</speed>
  <fix>3d</fix>
</trkpt>
<trkpt lat="-27.2737732" lon="151.289905">
  <ele>352.32</ele>
  <time>2026-09-01T19:58:24Z</time>
  <course>168.7</course>
  <speed>0.0</speed>
  <fix>3d</fix>
</trkpt>
<trkpt lat="-27.2737733" lon="151.2899045">
  <ele>351.83</ele>
  <time>2026-09-01T19:58:24Z</time>
  <course>104.28</course>
  <speed>0.03605551275463989</speed>
  <fix>3d</fix>
</trkpt>
<trkpt lat="-27.2737732" lon="151.289905">
  <ele>352.32</ele>
  <time>2026-09-01T19:58:24Z</time>
  <course>168.7</course>
  <speed>0.0</speed>
  <fix>3d</fix>
</trkpt>
<trkpt lat="-27.2737733" lon="151.2899045">
  <ele>351.72</ele>
  <time>2026-09-01T19:58:24Z</time>
  <course>104.24</course>
  <speed>0.044721359549995794</speed>
  <fix>3d</fix>
</trkpt>
<trkpt lat="-27.2737733" lon="151.289905">
  <ele>352.09</ele>
  <time>2026-09-01T19:58:24Z</time>
  <course>192.98</course>
  <speed>0.0</speed>
  <fix>3d</fix>
</trkpt>
<trkpt lat="-27.2737733" lon="151.2899045">
  <ele>351.62</ele>
  <time>2026-09-01T19:58:24Z</time>
  <course>104.2</course>
  <speed>0.044721359549995794</speed>
  <fix>3d</fix>
</trkpt>
<trkpt lat="-27.2737733" lon="151.289905">
  <ele>352.09</ele>
  <time>2026-09-01T19:58:24Z</time>
  <course>192.98</course>
  <speed>0.0</speed>
  <fix>3d</fix>
</trkpt>
<trkpt lat="-27.2737733" lon="151.2899045">
  <ele>351.51</ele>
  <time>2026-09-01T19:58:24Z</time>
  <course>104.17</course>
  <speed>0.044721359549995794</speed>
  <fix>3d</fix>
</trkpt>
<trkpt lat="-27.2737733" lon="151.2899049">
  <ele>351.89</ele>
  <time>2026-09-01T19:58:24Z</time>
  <course>209.39</course>
  <speed>0.01</speed>
  <fix>3d</fix>
</trkpt>
<trkpt lat="-27.2737733" lon="151.2899045">
  <ele>351.41</ele>
  <time>2026-09-01T19:58:24Z</time>
  <course>104.14</course>
  <speed>0.044721359549995794</speed>
  <fix>3d</fix>
</trkpt>
<trkpt lat="-27.2737733" lon="151.2899049">
  <ele>351.89</ele>
  <time>2026-09-01T19:58:24Z</time>
  <course>209.39</course>
  <speed>0.01</speed>
  <fix>3d</fix>
</trkpt>
<trkpt lat="-27.2737733" lon="151.2899045">
  <ele>351.32</ele>
  <time>2026-09-01T19:58:24Z</time>
  <course>104.1</course>
  <speed>0.044721359549995794</speed>
  <fix>3d</fix>
</trkpt>
<trkpt lat="-27.2737733" lon="151.2899048">
  <ele>351.69</ele>
  <time>2026-09-01T19:58:24Z</time>
  <course>221.03</course>
  <speed>0.01</speed>
  <fix>3d</fix>
</trkpt>
<trkpt lat="-27.2737734" lon="151.2899045">
  <ele>351.22</ele>
  <time>2026-09-01T19:58:24Z</time>
  <course>104.07</course>
  <speed>0.044721359549995794</speed>
  <fix>3d</fix>
</trkpt>
<trkpt lat="-27.2737733" lon="151.2899048">
  <ele>351.69</ele>
  <time>2026-09-01T19:58:24Z</time>
  <course>221.03</course>
  <speed>0.01</speed>
  <fix>3d</fix>
</trkpt>
<trkpt lat="-27.2737734" lon="151.2899045">
  <ele>351.13</ele>
  <time>2026-09-01T19:58:24Z</time>
  <course>104.04</course>
  <speed>0.044721359549995794</speed>
  <fix>3d</fix>
</trkpt>
<trkpt lat="-27.2737733" lon="151.2899048">
  <ele>351.49</ele>
  <time>2026-09-01T19:58:24Z</time>
  <course>228.41</course>
  <speed>0.01</speed>
  <fix>3d</fix>
</trkpt>
<trkpt lat="-27.2737734" lon="151.2899045">
  <ele>351.04</ele>
  <time>2026-09-01T19:58:24Z</time>
  <course>103.99</course>
  <speed>0.044721359549995794</speed>
  <fix>3d</fix>
</trkpt>
<trkpt lat="-27.2737733" lon="151.2899048">
  <ele>351.49</ele>
  <time>2026-09-01T19:58:24Z</time>
  <course>228.41</course>
  <speed>0.01</speed>
  <fix>3d</fix>
</trkpt>
<trkpt lat="-27.2737734" lon="151.2899045">
  <ele>350.95</ele>
  <time>2026-09-01T19:58:24Z</time>
  <course>103.95</course>
  <speed>0.044721359549995794</speed>
  <fix>3d</fix>
</trkpt>
<trkpt lat="-27.2737733" lon="151.2899048">
  <ele>351.3</ele>
  <time>2026-09-01T19:58:24Z</time>
  <course>231.62</course>
  <speed>0.01</speed>
  <fix>3d</fix>
</trkpt>
<trkpt lat="-27.2737734" lon="151.2899045">
  <ele>350.87</ele>
  <time>2026-09-01T19:58:24Z</time>
  <course>103.95</course>
  <speed>0.0412310562561766</speed>
  <fix>3d</fix>
</trkpt>
<trkpt lat="-27.2737733" lon="151.2899048">
  <ele>351.3</ele>
  <time>2026-09-01T19:58:24Z</time>
  <course>231.62</course>
  <speed>0.01</speed>
  <fix>3d</fix>
</trkpt>
<trkpt lat="-27.2737734" lon="151.2899045">
  <ele>350.78</ele>
  <time>2026-09-01T19:58:24Z</time>
  <course>103.99</course>
  <speed>0.0412310562561766</speed>
  <fix>3d</fix>
</trkpt>
<trkpt lat="-27.2737733" lon="151.2899048">
  <ele>351.12</ele>
  <time>2026-09-01T19:58:24Z</time>
  <course>237.46</course>
  <speed>0.01</speed>
  <fix>3d</fix>
</trkpt>
<trkpt lat="-27.2737734" lon="151.2899045">
  <ele>350.7</ele>
  <time>2026-09-01T19:58:24Z</time>
  <course>104.09</course>
  <speed>0.04</speed>
  <fix>3d</fix>
</trkpt>
<trkpt lat="-27.2737733" lon="151.2899048">
  <ele>351.12</ele>
  <time>2026-09-01T19:58:24Z</time>
  <course>237.46</course>
  <speed>0.01</speed>
  <fix>3d</fix>
</trkpt>
<trkpt lat="-27.2737734" lon="151.2899045">
  <ele>350.61</ele>
  <time>2026-09-01T19:58:24Z</time>
  <course>104.25</course>
  <speed>0.04</speed>
  <fix>3d</fix>
</trkpt>
<trkpt lat="-27.2737734" lon="151.2899048">
  <ele>350.94</ele>
  <time>2026-09-01T19:58:24Z</time>
  <course>267.23</course>
  <speed>0.01</speed>
  <fix>3d</fix>
</trkpt>
<trkpt lat="-27.2737734" lon="151.2899045">
  <ele>350.53</ele>
  <time>2026-09-01T19:58:24Z</time>
  <course>104.43</course>
  <speed>0.03</speed>
  <fix>3d</fix>
</trkpt>
<trkpt lat="-27.2737734" lon="151.2899048">
  <ele>350.94</ele>
  <time>2026-09-01T19:58:24Z</time>
  <course>267.23</course>
  <speed>0.01</speed>
  <fix>3d</fix>
</trkpt>
<trkpt lat="-27.2737734" lon="151.2899045">
  <ele>350.45</ele>
  <time>2026-09-01T19:58:24Z</time>
  <course>104.62</course>
  <speed>0.0316227766016838</speed>
  <fix>3d</fix>
</trkpt>
<trkpt lat="-27.2737734" lon="151.2899048">
  <ele>350.77</ele>
  <time>2026-09-01T19:58:24Z</time>
  <course>330.62</course>
  <speed>0.01</speed>
  <fix>3d</fix>
</trkpt>
<trkpt lat="-27.2737734" lon="151.2899045">
  <ele>350.37</ele>
  <time>2026-09-01T19:58:24Z</time>
  <course>104.8</course>
  <speed>0.03605551275463989</speed>
  <fix>3d</fix>
</trkpt>
<trkpt lat="-27.2737734" lon="151.2899048">
  <ele>350.77</ele>
  <time>2026-09-01T19:58:24Z</time>
  <course>330.62</course>
  <speed>0.01</speed>
  <fix>3d</fix>
</trkpt>
<trkpt lat="-27.2737734" lon="151.2899045">
  <ele>350.3</ele>
  <time>2026-09-01T19:58:24Z</time>
  <course>104.95</course>
  <speed>0.04242640687119285</speed>
  <fix>3d</fix>
</trkpt>
<trkpt lat="-27.2737734" lon="151.2899048">
  <ele>350.61</ele>
  <time>2026-09-01T19:58:24Z</time>
  <course>354.18</course>
  <speed>0.03</speed>
  <fix>3d</fix>
</trkpt>
<trkpt lat="-27.2737733" lon="151.2899045">
  <ele>350.22</ele>
  <time>2026-09-01T19:58:24Z</time>
  <course>105.06</course>
  <speed>0.044721359549995794</speed>
  <fix>3d</fix>
</trkpt>
<trkpt lat="-27.2737734" lon="151.2899048">
  <ele>350.61</ele>
  <time>2026-09-01T19:58:24Z</time>
  <course>354.18</course>
  <speed>0.03</speed>
  <fix>3d</fix>
</trkpt>
<trkpt lat="-27.2737733" lon="151.2899045">
  <ele>350.14</ele>
  <time>2026-09-01T19:58:24Z</time>
  <course>105.13</course>
  <speed>0.053851648071345036</speed>
  <fix>3d</fix>
</trkpt>
<trkpt lat="-27.2737733" lon="151.2899048">
  <ele>350.45</ele>
  <time>2026-09-01T19:58:24Z</time>
  <course>1.8</course>
  <speed>0.04</speed>
  <fix>3d</fix>
</trkpt>
<trkpt lat="-27.2737732" lon="151.2899045">
  <ele>350.07</ele>
  <time>2026-09-01T19:58:24Z</time>
  <course>105.18</course>
  <speed>0.0632455532033676</speed>
  <fix>3d</fix>
</trkpt>
<trkpt lat="-27.2737733" lon="151.2899048">
  <ele>350.45</ele>
  <time>2026-09-01T19:58:24Z</time>
  <course>1.8</course>
  <speed>0.04</speed>
  <fix>3d</fix>
</trkpt>
<trkpt lat="-27.2737732" lon="151.2899045">
  <ele>350.0</ele>
  <time>2026-09-01T19:58:24Z</time>
  <course>105.19</course>
  <speed>0.07071067811865475</speed>
  <fix>3d</fix>
</trkpt>
<trkpt lat="-27.2737732" lon="151.2899048">
  <ele>350.28</ele>
  <time>2026-09-01T19:58:24Z</time>
  <course>5.3</course>
  <speed>0.06</speed>
  <fix>3d</fix>
</trkpt>
<trkpt lat="-27.2737731" lon="151.2899045">
  <ele>349.92</ele>
  <time>2026-09-01T19:58:24Z</time>
  <course>105.19</course>
  <speed>0.07071067811865475</speed>
  <fix>3d</fix>
</trkpt>
<trkpt lat="-27.2737732" lon="151.2899048">
  <ele>350.28</ele>
  <time>2026-09-01T19:58:24Z</time>
  <course>5.3</course>
  <speed>0.06</speed>
  <fix>3d</fix>
</trkpt>
<trkpt lat="-27.273773" lon="151.2899045">
  <ele>349.85</ele>
  <time>2026-09-01T19:58:24Z</time>
  <course>105.18</course>
  <speed>0.08062257748298549</speed>
  <fix>3d</fix>
</trkpt>
<trkpt lat="-27.2737731" lon="151.2899048">
  <ele>350.13</ele>
  <time>2026-09-01T19:58:24Z</time>
  <course>7.27</course>
  <speed>0.08</speed>
  <fix>3d</fix>
</trkpt>
<trkpt lat="-27.2737729" lon="151.2899045">
  <ele>349.78</ele>
  <time>2026-09-01T19:58:24Z</time>
  <course>105.17</course>
  <speed>0.09055385138137417</speed>
  <fix>3d</fix>
</trkpt>
<trkpt lat="-27.2737731" lon="151.2899048">
  <ele>350.13</ele>
  <time>2026-09-01T19:58:24Z</time>
  <course>7.27</course>
  <speed>0.08</speed>
  <fix>3d</fix>
</trkpt>
<trkpt lat="-27.2737728" lon="151.2899045">
  <ele>349.71</ele>
  <time>2026-09-01T19:58:24Z</time>
  <course>105.16</course>
  <speed>0.1</speed>
  <fix>3d</fix>
</trkpt>
<trkpt lat="-27.2737729" lon="151.2899048">
  <ele>349.98</ele>
  <time>2026-09-01T19:58:24Z</time>
  <course>8.61</course>
  <speed>0.1</speed>
  <fix>3d</fix>
</trkpt>
<trkpt lat="-27.2737727" lon="151.2899045">
  <ele>349.64</ele>
  <time>2026-09-01T19:58:24Z</time>
  <course>105.18</course>
  <speed>0.1</speed>
  <fix>3d</fix>
</trkpt>
<trkpt lat="-27.2737729" lon="151.2899048">
  <ele>349.98</ele>
  <time>2026-09-01T19:58:24Z</time>
  <course>8.61</course>
  <speed>0.1</speed>
  <fix>3d</fix>
</trkpt>
<trkpt lat="-27.2737726" lon="151.2899045">
  <ele>349.57</ele>
  <time>2026-09-01T19:58:24Z</time>
  <course>105.2</course>
  <speed>0.11</speed>
  <fix>3d</fix>
</trkpt>
<trkpt lat="-27.2737727" lon="151.2899048">
  <ele>349.84</ele>
  <time>2026-09-01T19:58:24Z</time>
  <course>9.7</course>
  <speed>0.11</speed>
  <fix>3d</fix>
</trkpt>
<trkpt lat="-27.2737725" lon="151.2899046">
  <ele>349.5</ele>
  <time>2026-09-01T19:58:24Z</time>
  <course>105.23</course>
  <speed>0.11</speed>
  <fix>3d</fix>
</trkpt>
<trkpt lat="-27.2737727" lon="151.2899048">
  <ele>349.84</ele>
  <time>2026-09-01T19:58:24Z</time>
  <course>9.7</course>
  <speed>0.11</speed>
  <fix>3d</fix>
</trkpt>
<trkpt lat="-27.2737724" lon="151.2899046">
  <ele>349.43</ele>
  <time>2026-09-01T19:58:24Z</time>
  <course>105.27</course>
  <speed>0.12</speed>
  <fix>3d</fix>
</trkpt>
<trkpt lat="-27.2737725" lon="151.2899049">
  <ele>349.7</ele>
  <time>2026-09-01T19:58:24Z</time>
  <course>10.57</course>
  <speed>0.13</speed>
  <fix>3d</fix>
</trkpt>
<trkpt lat="-27.2737723" lon="151.2899046">
  <ele>349.37</ele>
  <time>2026-09-01T19:58:24Z</time>
  <course>105.31</course>
  <speed>0.12</speed>
  <fix>3d</fix>
</trkpt>
<trkpt lat="-27.2737725" lon="151.2899049">
  <ele>349.7</ele>
  <time>2026-09-01T19:58:24Z</time>
  <course>10.57</course>
  <speed>0.13</speed>
  <fix>3d</fix>
</trkpt>
<trkpt lat="-27.2737722" lon="151.2899046">
  <ele>349.3</ele>
  <time>2026-09-01T19:58:24Z</time>
  <course>105.36</course>
  <speed>0.12</speed>
  <fix>3d</fix>
</trkpt>
<trkpt lat="-27.2737722" lon="151.289905">
  <ele>349.56</ele>
  <time>2026-09-01T19:58:24Z</time>
  <course>11.16</course>
  <speed>0.14</speed>
  <fix>3d</fix>
</trkpt>
<trkpt lat="-27.273772" lon="151.2899047">
  <ele>349.24</ele>
  <time>2026-09-01T19:58:24Z</time>
  <course>105.4</course>
  <speed>0.13</speed>
  <fix>3d</fix>
</trkpt>
<trkpt lat="-27.2737722" lon="151.289905">
  <ele>349.56</ele>
  <time>2026-09-01T19:58:24Z</time>
  <course>11.16</course>
  <speed>0.14</speed>
  <fix>3d</fix>
</trkpt>
<trkpt lat="-27.2737719" lon="151.2899047">
  <ele>349.18</ele>
  <time>2026-09-01T19:58:24Z</time>
  <course>105.44</course>
  <speed>0.13</speed>
  <fix>3d</fix>
</trkpt>
<trkpt lat="-27.273772" lon="151.289905">
  <ele>349.43</ele>
  <time>2026-09-01T19:58:24Z</time>
  <course>11.56</course>
  <speed>0.14</speed>
  <fix>3d</fix>
</trkpt>
<trkpt lat="-27.2737718" lon="151.2899047">
  <ele>349.12</ele>
  <time>2026-09-01T19:58:24Z</time>
  <course>105.48</course>
  <speed>0.13</speed>
  <fix>3d</fix>
</trkpt>
<trkpt lat="-27.273772" lon="151.289905">
  <ele>349.43</ele>
  <time>2026-09-01T19:58:24Z</time>
  <course>11.56</course>
  <speed>0.14</speed>
  <fix>3d</fix>
</trkpt>
<trkpt lat="-27.2737716" lon="151.2899048">
  <ele>349.06</ele>
  <time>2026-09-01T19:58:24Z</time>
  <course>105.51</course>
  <speed>0.13</speed>
  <fix>3d</fix>
</trkpt>
<trkpt lat="-27.2737717" lon="151.2899051">
  <ele>349.31</ele>
  <time>2026-09-01T19:58:24Z</time>
  <course>11.97</course>
  <speed>0.15</speed>
  <fix>3d</fix>
</trkpt>
<trkpt lat="-27.2737715" lon="151.2899048">
  <ele>349.01</ele>
  <time>2026-09-01T19:58:24Z</time>
  <course>105.53</course>
  <speed>0.13</speed>
  <fix>3d</fix>
</trkpt>
<trkpt lat="-27.2737717" lon="151.2899051">
  <ele>349.31</ele>
  <time>2026-09-01T19:58:24Z</time>
  <course>11.97</course>
  <speed>0.15</speed>
  <fix>3d</fix>
</trkpt>
<trkpt lat="-27.2737714" lon="151.2899049">
  <ele>348.95</ele>
  <time>2026-09-01T19:58:24Z</time>
  <course>105.55</course>
  <speed>0.13</speed>
  <fix>3d</fix>
</trkpt>
<trkpt lat="-27.2737714" lon="151.2899052">
  <ele>349.19</ele>
  <time>2026-09-01T19:58:24Z</time>
  <course>12.3</course>
  <speed>0.15</speed>
  <fix>3d</fix>
</trkpt>
<trkpt lat="-27.2737712" lon="151.2899049">
  <ele>348.9</ele>
  <time>2026-09-01T19:58:24Z</time>
  <course>105.56</course>
  <speed>0.13</speed>
  <fix>3d</fix>
</trkpt>
<trkpt lat="-27.2737714" lon="151.2899052">
  <ele>349.19</ele>
  <time>2026-09-01T19:58:24Z</time>
  <course>12.3</course>
  <speed>0.15</speed>
  <fix>3d</fix>
</trkpt>
<trkpt lat="-27.2737711" lon="151.2899049">
  <ele>348.84</ele>
  <time>2026-09-01T19:58:24Z</time>
  <course>105.57</course>
  <speed>0.13</speed>
  <fix>3d</fix>
</trkpt>
<trkpt lat="-27.2737711" lon="151.2899052">
  <ele>349.08</ele>
  <time>2026-09-01T19:58:24Z</time>
  <course>12.54</course>
  <speed>0.15</speed>
  <fix>3d</fix>
</trkpt>
<trkpt lat="-27.273771" lon="151.289905">
  <ele>348.79</ele>
  <time>2026-09-01T19:58:24Z</time>
  <course>105.59</course>
  <speed>0.12</speed>
  <fix>3d</fix>
</trkpt>
<trkpt lat="-27.2737711" lon="151.2899052">
  <ele>349.08</ele>
  <time>2026-09-01T19:58:24Z</time>
  <course>12.54</course>
  <speed>0.15</speed>
  <fix>3d</fix>
</trkpt>
<trkpt lat="-27.2737708" lon="151.289905">
  <ele>348.74</ele>
  <time>2026-09-01T19:58:24Z</time>
  <course>105.6</course>
  <speed>0.12</speed>
  <fix>3d</fix>
</trkpt>
<trkpt lat="-27.2737709" lon="151.2899053">
  <ele>348.97</ele>
  <time>2026-09-01T19:58:24Z</time>
  <course>12.84</course>
  <speed>0.15</speed>
  <fix>3d</fix>
</trkpt>
<trkpt lat="-27.2737707" lon="151.289905">
  <ele>348.69</ele>
  <time>2026-09-01T19:58:24Z</time>
  <course>105.62</course>
  <speed>0.12</speed>
  <fix>3d</fix>
</trkpt>
<trkpt lat="-27.2737709" lon="151.2899053">
  <ele>348.97</ele>
  <time>2026-09-01T19:58:24Z</time>
  <course>12.84</course>
  <speed>0.15</speed>
  <fix>3d</fix>
</trkpt>
<trkpt lat="-27.2737706" lon="151.2899051">
  <ele>348.64</ele>
  <time>2026-09-01T19:58:24Z</time>
  <course>105.63</course>
  <speed>0.11</speed>
  <fix>3d</fix>
</trkpt>
<trkpt lat="-27.2737706" lon="151.2899053">
  <ele>348.87</ele>
  <time>2026-09-01T19:58:24Z</time>
  <course>13.28</course>
  <speed>0.14</speed>
  <fix>3d</fix>
</trkpt>
<trkpt lat="-27.2737705" lon="151.2899051">
  <ele>348.59</ele>
  <time>2026-09-01T19:58:24Z</time>
  <course>105.65</course>
  <speed>0.11</speed>
  <fix>3d</fix>
</trkpt>
<trkpt lat="-27.2737706" lon="151.2899053">
  <ele>348.87</ele>
  <time>2026-09-01T19:58:24Z</time>
  <course>13.28</course>
  <speed>0.14</speed>
  <fix>3d</fix>
</trkpt>
<trkpt lat="-27.2737703" lon="151.2899051">
  <ele>348.54</ele>
  <time>2026-09-01T19:58:24Z</time>
  <course>105.67</course>
  <speed>0.1</speed>
  <fix>3d</fix>
</trkpt>
<trkpt lat="-27.2737703" lon="151.2899054">
  <ele>348.77</ele>
  <time>2026-09-01T19:58:24Z</time>
  <course>13.92</course>
  <speed>0.14</speed>
  <fix>3d</fix>
</trkpt>
<trkpt lat="-27.2737702" lon="151.2899052">
  <ele>348.49</ele>
  <time>2026-09-01T19:58:24Z</time>
  <course>105.69</course>
  <speed>0.1</speed>
  <fix>3d</fix>
</trkpt>
<trkpt lat="-27.2737703" lon="151.2899054">
  <ele>348.77</ele>
  <time>2026-09-01T19:58:24Z</time>
  <course>13.92</course>
  <speed>0.14</speed>
  <fix>3d</fix>
</trkpt>
<trkpt lat="-27.2737701" lon="151.2899052">
  <ele>348.44</ele>
  <time>2026-09-01T19:58:24Z</time>
  <course>105.7</course>
  <speed>0.09</speed>
  <fix>3d</fix>
</trkpt>
<trkpt lat="-27.2737701" lon="151.2899055">
  <ele>348.66</ele>
  <time>2026-09-01T19:58:24Z</time>
  <course>14.7</course>
  <speed>0.12</speed>
  <fix>3d</fix>
</trkpt>
<trkpt lat="-27.27377" lon="151.2899052">
  <ele>348.39</ele>
  <time>2026-09-01T19:58:24Z</time>
  <course>105.71</course>
  <speed>0.08</speed>
  <fix>3d</fix>
</trkpt>
<trkpt lat="-27.2737701" lon="151.2899055">
  <ele>348.66</ele>
  <time>2026-09-01T19:58:24Z</time>
  <course>14.7</course>
  <speed>0.12</speed>
  <fix>3d</fix>
</trkpt>
<trkpt lat="-27.2737699" lon="151.2899053">
  <ele>348.34</ele>
  <time>2026-09-01T19:58:24Z</time>
  <course>105.72</course>
  <speed>0.07</speed>
  <fix>3d</fix>
</trkpt>
<trkpt lat="-27.2737699" lon="151.2899056">
  <ele>348.57</ele>
  <time>2026-09-01T19:58:24Z</time>
  <course>15.59</course>
  <speed>0.11</speed>
  <fix>3d</fix>
</trkpt>
<trkpt lat="-27.2737698" lon="151.2899053">
  <ele>348.29</ele>
  <time>2026-09-01T19:58:24Z</time>
  <course>105.73</course>
  <speed>0.07</speed>
  <fix>3d</fix>
</trkpt>
<trkpt lat="-27.2737699" lon="151.2899056">
  <ele>348.57</ele>
  <time>2026-09-01T19:58:24Z</time>
  <course>15.59</course>
  <speed>0.11</speed>
  <fix>3d</fix>
</trkpt>
<trkpt lat="-27.2737698" lon="151.2899053">
  <ele>348.24</ele>
  <time>2026-09-01T19:58:24Z</time>
  <course>105.75</course>
  <speed>0.06</speed>
  <fix>3d</fix>
</trkpt>
<trkpt lat="-27.2737697" lon="151.2899056">
  <ele>348.47</ele>
  <time>2026-09-01T19:58:24Z</time>
  <course>16.76</course>
  <speed>0.09</speed>
  <fix>3d</fix>
</trkpt>
<trkpt lat="-27.2737697" lon="151.2899053">
  <ele>348.19</ele>
  <time>2026-09-01T19:58:24Z</time>
  <course>105.76</course>
  <speed>0.05</speed>
  <fix>3d</fix>
</trkpt>
<trkpt lat="-27.2737697" lon="151.2899056">
  <ele>348.47</ele>
  <time>2026-09-01T19:58:24Z</time>
  <course>16.76</course>
  <speed>0.09</speed>
  <fix>3d</fix>
</trkpt>
<trkpt lat="-27.2737696" lon="151.2899054">
  <ele>348.14</ele>
  <time>2026-09-01T19:58:24Z</time>
  <course>105.77</course>
  <speed>0.04</speed>
  <fix>3d</fix>
</trkpt>
<trkpt lat="-27.2737696" lon="151.2899057">
  <ele>348.37</ele>
  <time>2026-09-01T19:58:24Z</time>
  <course>18.45</course>
  <speed>0.08</speed>
  <fix>3d</fix>
</trkpt>
<trkpt lat="-27.2737696" lon="151.2899054">
  <ele>348.09</ele>
  <time>2026-09-01T19:58:24Z</time>
  <course>105.78</course>
  <speed>0.03</speed>
  <fix>3d</fix>
</trkpt>
<trkpt lat="-27.2737696" lon="151.2899057">
  <ele>348.37</ele>
  <time>2026-09-01T19:58:24Z</time>
  <course>18.45</course>
  <speed>0.08</speed>
  <fix>3d</fix>
</trkpt>
<trkpt lat="-27.2737695" lon="151.2899054">
  <ele>348.04</ele>
  <time>2026-09-01T19:58:24Z</time>
  <course>105.78</course>
  <speed>0.02</speed>
  <fix>3d</fix>
</trkpt>
<trkpt lat="-27.2737694" lon="151.2899057">
  <ele>348.27</ele>
  <time>2026-09-01T19:58:24Z</time>
  <course>20.95</course>
  <speed>0.06</speed>
  <fix>3d</fix>
</trkpt>
<trkpt lat="-27.2737695" lon="151.2899054">
  <ele>347.99</ele>
  <time>2026-09-01T19:58:24Z</time>
  <course>105.78</course>
  <speed>0.01414213562373095</speed>
  <fix>3d</fix>
</trkpt>
<trkpt lat="-27.2737694" lon="151.2899057">
  <ele>348.27</ele>
  <time>2026-09-01T19:58:24Z</time>
  <course>20.95</course>
  <speed>0.06</speed>
  <fix>3d</fix>
</trkpt>
<trkpt lat="-27.2737695" lon="151.2899054">
  <ele>347.94</ele>
  <time>2026-09-01T19:58:24Z</time>
  <course>105.79</course>
  <speed>0.01414213562373095</speed>
  <fix>3d</fix>
</trkpt>
<trkpt lat="-27.2737693" lon="151.2899057">
  <ele>348.16</ele>
  <time>2026-09-01T19:58:24Z</time>
  <course>25.78</course>
  <speed>0.04</speed>
  <fix>3d</fix>
</trkpt>
<trkpt lat="-27.2737694" lon="151.2899055">
  <ele>347.88</ele>
  <time>2026-09-01T19:58:24Z</time>
  <course>105.8</course>
  <speed>0.01</speed>
  <fix>3d</fix>
</trkpt>
<trkpt lat="-27.2737693" lon="151.2899057">
  <ele>348.16</ele>
  <time>2026-09-01T19:58:24Z</time>
  <course>25.78</course>
  <speed>0.04</speed>
  <fix>3d</fix>
</trkpt>
<trkpt lat="-27.2737694" lon="151.2899055">
  <ele>347.83</ele>
  <time>2026-09-01T19:58:24Z</time>
  <course>105.83</course>
  <speed>0.01</speed>
  <fix>3d</fix>
</trkpt>
<trkpt lat="-27.2737693" lon="151.2899058">
  <ele>348.06</ele>
  <time>2026-09-01T19:58:24Z</time>
  <course>35.64</course>
  <speed>0.03</speed>
  <fix>3d</fix>
</trkpt>
<trkpt lat="-27.2737694" lon="151.2899055">
  <ele>347.78</ele>
  <time>2026-09-01T19:58:24Z</time>
  <course>105.86</course>
  <speed>0.01414213562373095</speed>
  <fix>3d</fix>
</trkpt>
<trkpt lat="-27.2737693" lon="151.2899058">
  <ele>348.06</ele>
  <time>2026-09-01T19:58:24Z</time>
  <course>35.64</course>
  <speed>0.03</speed>
  <fix>3d</fix>
</trkpt>
<trkpt lat="-27.2737694" lon="151.2899055">
  <ele>347.73</ele>
  <time>2026-09-01T19:58:24Z</time>
  <course>105.91</course>
  <speed>0.01414213562373095</speed>
  <fix>3d</fix>
</trkpt>
<trkpt lat="-27.2737693" lon="151.2899058">
  <ele>347.96</ele>
  <time>2026-09-01T19:58:24Z</time>
  <course>56.41</course>
  <speed>0.02</speed>
  <fix>3d</fix>
</trkpt>
<trkpt lat="-27.2737694" lon="151.2899055">
  <ele>347.68</ele>
  <time>2026-09-01T19:58:24Z</time>
  <course>105.96</course>
  <speed>0.022360679774997897</speed>
  <fix>3d</fix>
</trkpt>
<trkpt lat="-27.2737693" lon="151.2899058">
  <ele>347.96</ele>
  <time>2026-09-01T19:58:24Z</time>
  <course>56.41</course>
  <speed>0.02</speed>
  <fix>3d</fix>
</trkpt>
<trkpt lat="-27.2737694" lon="151.2899055">
  <ele>347.63</ele>
  <time>2026-09-01T19:58:24Z</time>
  <course>106.03</course>
  <speed>0.022360679774997897</speed>
  <fix>3d</fix>
</trkpt>
<trkpt lat="-27.2737693" lon="151.2899058">
  <ele>347.86</ele>
  <time>2026-09-01T19:58:24Z</time>
  <course>98.26</course>
  <speed>0.01</speed>
  <fix>3d</fix>
</trkpt>
<trkpt lat="-27.2737694" lon="151.2899055">
  <ele>347.58</ele>
  <time>2026-09-01T19:58:24Z</time>
  <course>106.09</course>
  <speed>0.0316227766016838</speed>
  <fix>3d</fix>
</trkpt>
<trkpt lat="-27.2737693" lon="151.2899058">
  <ele>347.86</ele>
  <time>2026-09-01T19:58:24Z</time>
  <course>98.26</course>
  <speed>0.01</speed>
  <fix>3d</fix>
</trkpt>
<trkpt lat="-27.2737694" lon="151.2899055">
  <ele>347.53</ele>
  <time>2026-09-01T19:58:24Z</time>
  <course>106.16</course>
  <speed>0.03605551275463989</speed>
  <fix>3d</fix>
</trkpt>
<trkpt lat="-27.2737693" lon="151.2899059">
  <ele>347.76</ele>
  <time>2026-09-01T19:58:24Z</time>
  <course>135.57</course>
  <speed>0.01</speed>
  <fix>3d</fix>
</trkpt>
<trkpt lat="-27.2737694" lon="151.2899056">
  <ele>347.48</ele>
  <time>2026-09-01T19:58:24Z</time>
  <course>106.21</course>
  <speed>0.044721359549995794</speed>
  <fix>3d</fix>
</trkpt>
<trkpt lat="-27.2737693" lon="151.2899059">
  <ele>347.76</ele>
  <time>2026-09-01T19:58:24Z</time>
  <course>135.57</course>
  <speed>0.01</speed>
  <fix>3d</fix>
</trkpt>
<trkpt lat="-27.2737694" lon="151.2899056">
  <ele>347.43</ele>
  <time>2026-09-01T19:58:24Z</time>
  <course>106.24</course>
  <speed>0.044721359549995794</speed>
  <fix>3d</fix>
</trkpt>
<trkpt lat="-27.2737693" lon="151.289906">
  <ele>347.65</ele>
  <time>2026-09-01T19:58:24Z</time>
  <course>153.78</course>
  <speed>0.02</speed>
  <fix>3d</fix>
</trkpt>
<trkpt lat="-27.2737695" lon="151.2899056">
  <ele>347.38</ele>
  <time>2026-09-01T19:58:24Z</time>
  <course>106.25</course>
  <speed>0.053851648071345036</speed>
  <fix>3d</fix>
</trkpt>
<trkpt lat="-27.2737693" lon="151.289906">
  <ele>347.65</ele>
  <time>2026-09-01T19:58:24Z</time>
  <course>153.78</course>
  <speed>0.02</speed>
  <fix>3d</fix>
</trkpt>
<trkpt lat="-27.2737695" lon="151.2899056">
  <ele>347.33</ele>
  <time>2026-09-01T19:58:24Z</time>
  <course>106.25</course>
  <speed>0.053851648071345036</speed>
  <fix>3d</fix>
</trkpt>
<trkpt lat="-27.2737693" lon="151.289906">
  <ele>347.56</ele>
  <time>2026-09-01T19:58:24Z</time>
  <course>162.86</course>
  <speed>0.03</speed>
  <fix>3d</fix>
</trkpt>
<trkpt lat="-27.2737695" lon="151.2899056">
  <ele>347.28</ele>
  <time>2026-09-01T19:58:24Z</time>
  <course>106.25</course>
  <speed>0.053851648071345036</speed>
  <fix>3d</fix>
</trkpt>
<trkpt lat="-27.2737693" lon="151.289906">
  <ele>347.56</ele>
  <time>2026-09-01T19:58:24Z</time>
  <course>162.86</course>
  <speed>0.03</speed>
  <fix>3d</fix>
</trkpt>
<trkpt lat="-27.2737696" lon="151.2899056">
  <ele>347.23</ele>
  <time>2026-09-01T19:58:24Z</time>
  <course>106.24</course>
  <speed>0.053851648071345036</speed>
  <fix>3d</fix>
</trkpt>
<trkpt lat="-27.2737693" lon="151.289906">
  <ele>347.45</ele>
  <time>2026-09-01T19:58:24Z</time>
  <course>168.22</course>
  <speed>0.04</speed>
  <fix>3d</fix>
</trkpt>
<trkpt lat="-27.2737696" lon="151.2899056">
  <ele>347.18</ele>
  <time>2026-09-01T19:58:24Z</time>
  <course>106.25</course>
  <speed>0.0632455532033676</speed>
  <fix>3d</fix>
</trkpt>
<trkpt lat="-27.2737693" lon="151.289906">
  <ele>347.45</ele>
  <time>2026-09-01T19:58:24Z</time>
  <course>168.22</course>
  <speed>0.04</speed>
  <fix>3d</fix>
</trkpt>
<trkpt lat="-27.2737696" lon="151.2899057">
  <ele>347.13</ele>
  <time>2026-09-01T19:58:24Z</time>
  <course>106.26</course>
  <speed>0.0632455532033676</speed>
  <fix>3d</fix>
</trkpt>
<trkpt lat="-27.2737694" lon="151.289906">
  <ele>347.34</ele>
  <time>2026-09-01T19:58:24Z</time>
  <course>171.95</course>
  <speed>0.04</speed>
  <fix>3d</fix>
</trkpt>
<trkpt lat="-27.2737697" lon="151.2899057">
  <ele>347.08</ele>
  <time>2026-09-01T19:58:24Z</time>
  <course>106.26</course>
  <speed>0.0632455532033676</speed>
  <fix>3d</fix>
</trkpt>
<trkpt lat="-27.2737694" lon="151.289906">
  <ele>347.34</ele>
  <time>2026-09-01T19:58:24Z</time>
  <course>171.95</course>
  <speed>0.04</speed>
  <fix>3d</fix>
</trkpt>
<trkpt lat="-27.2737697" lon="151.2899057">
  <ele>347.03</ele>
  <time>2026-09-01T19:58:24Z</time>
  <course>106.27</course>
  <speed>0.0632455532033676</speed>
  <fix>3d</fix>
</trkpt>
<trkpt lat="-27.2737694" lon="151.289906">
  <ele>347.25</ele>
  <time>2026-09-01T19:58:24Z</time>
  <course>174.8</course>
  <speed>0.05</speed>
  <fix>3d</fix>
</trkpt>
<trkpt lat="-27.2737698" lon="151.2899057">
  <ele>346.98</ele>
  <time>2026-09-01T19:58:24Z</time>
  <course>106.27</course>
  <speed>0.0632455532033676</speed>
  <fix>3d</fix>
</trkpt>
<trkpt lat="-27.2737694" lon="151.289906">
  <ele>347.25</ele>
  <time>2026-09-01T19:58:24Z</time>
  <course>174.8</course>
  <speed>0.05</speed>
  <fix>3d</fix>
</trkpt>
<trkpt lat="-27.2737698" lon="151.2899057">
  <ele>346.93</ele>
  <time>2026-09-01T19:58:24Z</time>
  <course>106.27</course>
  <speed>0.07280109889280519</speed>
  <fix>3d</fix>
</trkpt>
<trkpt lat="-27.2737695" lon="151.289906">
  <ele>347.15</ele>
  <time>2026-09-01T19:58:24Z</time>
  <course>177.03</course>
  <speed>0.05</speed>
  <fix>3d</fix>
</trkpt>
<trkpt lat="-27.2737698" lon="151.2899057">
  <ele>346.88</ele>
  <time>2026-09-01T19:58:24Z</time>
  <course>106.27</course>
  <speed>0.07615773105863909</speed>
  <fix>3d</fix>
</trkpt>
<trkpt lat="-27.2737695" lon="151.289906">
  <ele>347.15</ele>
  <time>2026-09-01T19:58:24Z</time>
  <course>177.03</course>
  <speed>0.05</speed>
  <fix>3d</fix>
</trkpt>
<trkpt lat="-27.2737699" lon="151.2899057">
  <ele>346.83</ele>
  <time>2026-09-01T19:58:24Z</time>
  <course>106.27</course>
  <speed>0.07615773105863909</speed>
  <fix>3d</fix>
</trkpt>
<trkpt lat="-27.2737696" lon="151.289906">
  <ele>347.05</ele>
  <time>2026-09-01T19:58:24Z</time>
  <course>178.82</course>
  <speed>0.05</speed>
  <fix>3d</fix>
</trkpt>
<trkpt lat="-27.2737699" lon="151.2899057">
  <ele>346.78</ele>
  <time>2026-09-01T19:58:24Z</time>
  <course>106.28</course>
  <speed>0.07615773105863909</speed>
  <fix>3d</fix>
</trkpt>
<trkpt lat="-27.2737696" lon="151.289906">
  <ele>347.05</ele>
  <time>2026-09-01T19:58:24Z</time>
  <course>178.82</course>
  <speed>0.05</speed>
  <fix>3d</fix>
</trkpt>
<trkpt lat="-27.27377" lon="151.2899057">
  <ele>346.73</ele>
  <time>2026-09-01T19:58:24Z</time>
  <course>106.28</course>
  <speed>0.07615773105863909</speed>
  <fix>3d</fix>
</trkpt>
<trkpt lat="-27.2737697" lon="151.289906">
  <ele>346.95</ele>
  <time>2026-09-01T19:58:24Z</time>
  <course>180.2</course>
  <speed>0.06</speed>
  <fix>3d</fix>
</trkpt>
<trkpt lat="-27.27377" lon="151.2899057">
  <ele>346.68</ele>
  <time>2026-09-01T19:58:24Z</time>
  <course>106.28</course>
  <speed>0.07615773105863909</speed>
  <fix>3d</fix>
</trkpt>
<trkpt lat="-27.2737697" lon="151.289906">
  <ele>346.95</ele>
  <time>2026-09-01T19:58:24Z</time>
  <course>180.2</course>
  <speed>0.06</speed>
  <fix>3d</fix>
</trkpt>
<trkpt lat="-27.2737701" lon="151.2899057">
  <ele>346.64</ele>
  <time>2026-09-01T19:58:24Z</time>
  <course>106.28</course>
  <speed>0.07615773105863909</speed>
  <fix>3d</fix>
</trkpt>
<trkpt lat="-27.2737699" lon="151.289906">
  <ele>346.84</ele>
  <time>2026-09-01T19:58:24Z</time>
  <course>180.96</course>
  <speed>0.06</speed>
  <fix>3d</fix>
</trkpt>
<trkpt lat="-27.2737701" lon="151.2899057">
  <ele>346.59</ele>
  <time>2026-09-01T19:58:24Z</time>
  <course>106.28</course>
  <speed>0.07615773105863909</speed>
  <fix>3d</fix>
</trkpt>
<trkpt lat="-27.2737699" lon="151.289906">
  <ele>346.84</ele>
  <time>2026-09-01T19:58:24Z</time>
  <course>180.96</course>
  <speed>0.06</speed>
  <fix>3d</fix>
</trkpt>
<trkpt lat="-27.2737702" lon="151.2899057">
  <ele>346.54</ele>
  <time>2026-09-01T19:58:24Z</time>
  <course>106.29</course>
  <speed>0.07615773105863909</speed>
  <fix>3d</fix>
</trkpt>
<trkpt lat="-27.27377" lon="151.289906">
  <ele>346.75</ele>
  <time>2026-09-01T19:58:24Z</time>
  <course>181.25</course>
  <speed>0.06</speed>
  <fix>3d</fix>
</trkpt>
<trkpt lat="-27.2737702" lon="151.2899057">
  <ele>346.49</ele>
  <time>2026-09-01T19:58:24Z</time>
  <course>106.29</course>
  <speed>0.07615773105863909</speed>
  <fix>3d</fix>
</trkpt>
<trkpt lat="-27.27377" lon="151.289906">
  <ele>346.75</ele>
  <time>2026-09-01T19:58:24Z</time>
  <course>181.25</course>
  <speed>0.06</speed>
  <fix>3d</fix>
</trkpt>
<trkpt lat="-27.2737703" lon="151.2899057">
  <ele>346.44</ele>
  <time>2026-09-01T19:58:24Z</time>
  <course>106.29</course>
  <speed>0.07615773105863909</speed>
  <fix>3d</fix>
</trkpt>
<trkpt lat="-27.2737701" lon="151.289906">
  <ele>346.65</ele>
  <time>2026-09-01T19:58:24Z</time>
  <course>181.53</course>
  <speed>0.06</speed>
  <fix>3d</fix>
</trkpt>
<trkpt lat="-27.2737703" lon="151.2899057">
  <ele>346.39</ele>
  <time>2026-09-01T19:58:24Z</time>
  <course>106.29</course>
  <speed>0.07615773105863909</speed>
  <fix>3d</fix>
</trkpt>
<trkpt lat="-27.2737701" lon="151.289906">
  <ele>346.65</ele>
  <time>2026-09-01T19:58:24Z</time>
  <course>181.53</course>
  <speed>0.06</speed>
  <fix>3d</fix>
</trkpt>
<trkpt lat="-27.2737704" lon="151.2899057">
  <ele>346.34</ele>
  <time>2026-09-01T19:58:24Z</time>
  <course>106.3</course>
  <speed>0.07615773105863909</speed>
  <fix>3d</fix>
</trkpt>
<trkpt lat="-27.2737702" lon="151.289906">
  <ele>346.55</ele>
  <time>2026-09-01T19:58:24Z</time>
  <course>182.01</course>
  <speed>0.06</speed>
  <fix>3d</fix>
</trkpt>
<trkpt lat="-27.2737704" lon="151.2899057">
  <ele>346.29</ele>
  <time>2026-09-01T19:58:24Z</time>
  <course>106.3</course>
  <speed>0.0670820393249937</speed>
  <fix>3d</fix>
</trkpt>
<trkpt lat="-27.2737702" lon="151.289906">
  <ele>346.55</ele>
  <time>2026-09-01T19:58:24Z</time>
  <course>182.01</course>
  <speed>0.06</speed>
  <fix>3d</fix>
</trkpt>
<trkpt lat="-27.2737705" lon="151.2899057">
  <ele>346.24</ele>
  <time>2026-09-01T19:58:24Z</time>
  <course>106.31</course>
  <speed>0.0670820393249937</speed>
  <fix>3d</fix>
</trkpt>
<trkpt lat="-27.2737703" lon="151.289906">
  <ele>346.45</ele>
  <time>2026-09-01T19:58:24Z</time>
  <course>182.68</course>
  <speed>0.06</speed>
  <fix>3d</fix>
</trkpt>
<trkpt lat="-27.2737705" lon="151.2899057">
  <ele>346.19</ele>
  <time>2026-09-01T19:58:24Z</time>
  <course>106.31</course>
  <speed>0.0670820393249937</speed>
  <fix>3d</fix>
</trkpt>
<trkpt lat="-27.2737703" lon="151.289906">
  <ele>346.45</ele>
  <time>2026-09-01T19:58:24Z</time>
  <course>182.68</course>
  <speed>0.06</speed>
  <fix>3d</fix>
</trkpt>
<trkpt lat="-27.2737706" lon="151.2899057">
  <ele>346.14</ele>
  <time>2026-09-01T19:58:24Z</time>
  <course>106.32</course>
  <speed>0.0670820393249937</speed>
  <fix>3d</fix>
</trkpt>
<trkpt lat="-27.2737705" lon="151.289906">
  <ele>346.34</ele>
  <time>2026-09-01T19:58:24Z</time>
  <course>183.15</course>
  <speed>0.06</speed>
  <fix>3d</fix>
</trkpt>
<trkpt lat="-27.2737706" lon="151.2899057">
  <ele>346.09</ele>
  <time>2026-09-01T19:58:24Z</time>
  <course>106.33</course>
  <speed>0.0670820393249937</speed>
  <fix>3d</fix>
</trkpt>
<trkpt lat="-27.2737705" lon="151.289906">
  <ele>346.34</ele>
  <time>2026-09-01T19:58:24Z</time>
  <course>183.15</course>
  <speed>0.06</speed>
  <fix>3d</fix>
</trkpt>
<trkpt lat="-27.2737707" lon="151.2899057">
  <ele>346.04</ele>
  <time>2026-09-01T19:58:24Z</time>
  <course>106.33</course>
  <speed>0.0670820393249937</speed>
  <fix>3d</fix>
</trkpt>
<trkpt lat="-27.2737706" lon="151.289906">
  <ele>346.24</ele>
  <time>2026-09-01T19:58:24Z</time>
  <course>183.29</course>
  <speed>0.05</speed>
  <fix>3d</fix>
</trkpt>
<trkpt lat="-27.2737707" lon="151.2899057">
  <ele>345.99</ele>
  <time>2026-09-01T19:58:24Z</time>
  <course>106.33</course>
  <speed>0.05830951894845301</speed>
  <fix>3d</fix>
</trkpt>
<trkpt lat="-27.2737706" lon="151.289906">
  <ele>346.24</ele>
  <time>2026-09-01T19:58:24Z</time>
  <course>183.29</course>
  <speed>0.05</speed>
  <fix>3d</fix>
</trkpt>
<trkpt lat="-27.2737708" lon="151.2899057">
  <ele>345.94</ele>
  <time>2026-09-01T19:58:24Z</time>
  <course>106.33</course>
  <speed>0.05830951894845301</speed>
  <fix>3d</fix>
</trkpt>
<trkpt lat="-27.2737707" lon="151.289906">
  <ele>346.14</ele>
  <time>2026-09-01T19:58:24Z</time>
  <course>183.44</course>
  <speed>0.05</speed>
  <fix>3d</fix>
</trkpt>
<trkpt lat="-27.2737708" lon="151.2899057">
  <ele>345.88</ele>
  <time>2026-09-01T19:58:24Z</time>
  <course>106.32</course>
  <speed>0.05830951894845301</speed>
  <fix>3d</fix>
</trkpt>
<trkpt lat="-27.2737707" lon="151.289906">
  <ele>346.14</ele>
  <time>2026-09-01T19:58:24Z</time>
  <course>183.44</course>
  <speed>0.05</speed>
  <fix>3d</fix>
</trkpt>
<trkpt lat="-27.2737709" lon="151.2899057">
  <ele>345.83</ele>
  <time>2026-09-01T19:58:24Z</time>
  <course>106.31</course>
  <speed>0.05830951894845301</speed>
  <fix>3d</fix>
</trkpt>
<trkpt lat="-27.2737708" lon="151.289906">
  <ele>346.03</ele>
  <time>2026-09-01T19:58:24Z</time>
  <course>183.86</course>
  <speed>0.04</speed>
  <fix>3d</fix>
</trkpt>
<trkpt lat="-27.2737709" lon="151.2899057">
  <ele>345.78</ele>
  <time>2026-09-01T19:58:24Z</time>
  <course>106.31</course>
  <speed>0.05</speed>
  <fix>3d</fix>
</trkpt>
<trkpt lat="-27.2737708" lon="151.289906">
  <ele>346.03</ele>
  <time>2026-09-01T19:58:24Z</time>
  <course>183.86</course>
  <speed>0.04</speed>
  <fix>3d</fix>
</trkpt>
<trkpt lat="-27.2737709" lon="151.2899057">
  <ele>345.73</ele>
  <time>2026-09-01T19:58:24Z</time>
  <course>106.3</course>
  <speed>0.05</speed>
  <fix>3d</fix>
</trkpt>
<trkpt lat="-27.2737708" lon="151.289906">
  <ele>345.94</ele>
  <time>2026-09-01T19:58:24Z</time>
  <course>184.98</course>
  <speed>0.04</speed>
  <fix>3d</fix>
</trkpt>
<trkpt lat="-27.273771" lon="151.2899057">
  <ele>345.68</ele>
  <time>2026-09-01T19:58:24Z</time>
  <course>106.31</course>
  <speed>0.04242640687119285</speed>
  <fix>3d</fix>
</trkpt>
<trkpt lat="-27.2737708" lon="151.289906">
  <ele>345.94</ele>
  <time>2026-09-01T19:58:24Z</time>
  <course>184.98</course>
  <speed>0.04</speed>
  <fix>3d</fix>
</trkpt>
<trkpt lat="-27.273771" lon="151.2899057">
  <ele>345.63</ele>
  <time>2026-09-01T19:58:24Z</time>
  <course>106.31</course>
  <speed>0.04242640687119285</speed>
  <fix>3d</fix>
</trkpt>
<trkpt lat="-27.2737709" lon="151.289906">
  <ele>345.84</ele>
  <time>2026-09-01T19:58:24Z</time>
  <course>187.24</course>
  <speed>0.03</speed>
  <fix>3d</fix>
</trkpt>
<trkpt lat="-27.273771" lon="151.2899057">
  <ele>345.58</ele>
  <time>2026-09-01T19:58:24Z</time>
  <course>106.32</course>
  <speed>0.04242640687119285</speed>
  <fix>3d</fix>
</trkpt>
<trkpt lat="-27.2737709" lon="151.289906">
  <ele>345.84</ele>
  <time>2026-09-01T19:58:24Z</time>
  <course>187.24</course>
  <speed>0.03</speed>
  <fix>3d</fix>
</trkpt>
<trkpt lat="-27.273771" lon="151.2899057">
  <ele>345.53</ele>
  <time>2026-09-01T19:58:24Z</time>
  <course>106.32</course>
  <speed>0.03605551275463989</speed>
  <fix>3d</fix>
</trkpt>
<trkpt lat="-27.273771" lon="151.289906">
  <ele>345.74</ele>
  <time>2026-09-01T19:58:24Z</time>
  <course>190.89</course>
  <speed>0.02</speed>
  <fix>3d</fix>
</trkpt>
<trkpt lat="-27.273771" lon="151.2899057">
  <ele>345.48</ele>
  <time>2026-09-01T19:58:24Z</time>
  <course>106.33</course>
  <speed>0.03605551275463989</speed>
  <fix>3d</fix>
</trkpt>
<trkpt lat="-27.273771" lon="151.289906">
  <ele>345.74</ele>
  <time>2026-09-01T19:58:24Z</time>
  <course>190.89</course>
  <speed>0.02</speed>
  <fix>3d</fix>
</trkpt>
<trkpt lat="-27.2737711" lon="151.2899057">
  <ele>345.43</ele>
  <time>2026-09-01T19:58:24Z</time>
  <course>106.34</course>
  <speed>0.03605551275463989</speed>
  <fix>3d</fix>
</trkpt>
<trkpt lat="-27.273771" lon="151.289906">
  <ele>345.64</ele>
  <time>2026-09-01T19:58:24Z</time>
  <course>196.41</course>
  <speed>0.01</speed>
  <fix>3d</fix>
</trkpt>
<trkpt lat="-27.2737711" lon="151.2899057">
  <ele>345.38</ele>
  <time>2026-09-01T19:58:24Z</time>
  <course>106.35</course>
  <speed>0.0316227766016838</speed>
  <fix>3d</fix>
</trkpt>
<trkpt lat="-27.273771" lon="151.289906">
  <ele>345.64</ele>
  <time>2026-09-01T19:58:24Z</time>
  <course>196.41</course>
  <speed>0.01</speed>
  <fix>3d</fix>
</trkpt>
<trkpt lat="-27.2737711" lon="151.2899057">
  <ele>345.33</ele>
  <time>2026-09-01T19:58:24Z</time>
  <course>106.37</course>
  <speed>0.0316227766016838</speed>
  <fix>3d</fix>
</trkpt>
<trkpt lat="-27.273771" lon="151.289906">
  <ele>345.53</ele>
  <time>2026-09-01T19:58:24Z</time>
  <course>206.38</course>
  <speed>0.01</speed>
  <fix>3d</fix>
</trkpt>
<trkpt lat="-27.2737711" lon="151.2899057">
  <ele>345.29</ele>
  <time>2026-09-01T19:58:24Z</time>
  <course>106.39</course>
  <speed>0.0316227766016838</speed>
  <fix>3d</fix>
</trkpt>
<trkpt lat="-27.273771" lon="151.289906">
  <ele>345.53</ele>
  <time>2026-09-01T19:58:24Z</time>
  <course>206.38</course>
  <speed>0.01</speed>
  <fix>3d</fix>
</trkpt>
<trkpt lat="-27.2737711" lon="151.2899057">
  <ele>345.24</ele>
  <time>2026-09-01T19:58:24Z</time>
  <course>106.36</course>
  <speed>0.0316227766016838</speed>
  <fix>3d</fix>
</trkpt>
<trkpt lat="-27.2737711" lon="151.289906">
  <ele>345.43</ele>
  <time>2026-09-01T19:58:24Z</time>
  <course>238.47</course>
  <speed>0.0</speed>
  <fix>3d</fix>
</trkpt>
<trkpt lat="-27.2737711" lon="151.2899057">
  <ele>345.19</ele>
  <time>2026-09-01T19:58:24Z</time>
  <course>106.28</course>
  <speed>0.0316227766016838</speed>
  <fix>3d</fix>
</trkpt>
<trkpt lat="-27.2737711" lon="151.289906">
  <ele>345.43</ele>
  <time>2026-09-01T19:58:24Z</time>
  <course>238.47</course>
  <speed>0.0</speed>
  <fix>3d</fix>
</trkpt>
<trkpt lat="-27.2737711" lon="151.2899057">
  <ele>345.14</ele>
  <time>2026-09-01T19:58:24Z</time>
  <course>106.18</course>
  <speed>0.0316227766016838</speed>
  <fix>3d</fix>
</trkpt>
<trkpt lat="-27.2737711" lon="151.289906">
  <ele>345.33</ele>
  <time>2026-09-01T19:58:24Z</time>
  <course>280.7</course>
  <speed>0.0</speed>
  <fix>3d</fix>
</trkpt>
<trkpt lat="-27.2737711" lon="151.2899057">
  <ele>345.09</ele>
  <time>2026-09-01T19:58:24Z</time>
  <course>106.07</course>
  <speed>0.0316227766016838</speed>
  <fix>3d</fix>
</trkpt>
<trkpt lat="-27.2737711" lon="151.289906">
  <ele>345.33</ele>
  <time>2026-09-01T19:58:24Z</time>
  <course>280.7</course>
  <speed>0.0</speed>
  <fix>3d</fix>
</trkpt>
<trkpt lat="-27.2737711" lon="151.2899057">
  <ele>345.04</ele>
  <time>2026-09-01T19:58:24Z</time>
  <course>105.98</course>
  <speed>0.0316227766016838</speed>
  <fix>3d</fix>
</trkpt>
<trkpt lat="-27.2737711" lon="151.289906">
  <ele>345.22</ele>
  <time>2026-09-01T19:58:24Z</time>
  <course>280.52</course>
  <speed>0.0</speed>
  <fix>3d</fix>
</trkpt>
<trkpt lat="-27.2737711" lon="151.2899057">
  <ele>344.99</ele>
  <time>2026-09-01T19:58:24Z</time>
  <course>105.91</course>
  <speed>0.0316227766016838</speed>
  <fix>3d</fix>
</trkpt>
<trkpt lat="-27.2737711" lon="151.289906">
  <ele>345.22</ele>
  <time>2026-09-01T19:58:24Z</time>
  <course>280.52</course>
  <speed>0.0</speed>
  <fix>3d</fix>
</trkpt>
<trkpt lat="-27.2737711" lon="151.2899057">
  <ele>344.94</ele>
  <time>2026-09-01T19:58:24Z</time>
  <course>105.86</course>
  <speed>0.0316227766016838</speed>
  <fix>3d</fix>
</trkpt>
<trkpt lat="-27.2737711" lon="151.289906">
  <ele>345.13</ele>
  <time>2026-09-01T19:58:24Z</time>
  <course>279.9</course>
  <speed>0.0</speed>
  <fix>3d</fix>
</trkpt>
<trkpt lat="-27.2737711" lon="151.2899057">
  <ele>344.89</ele>
  <time>2026-09-01T19:58:24Z</time>
  <course>105.83</course>
  <speed>0.0316227766016838</speed>
  <fix>3d</fix>
</trkpt>
<trkpt lat="-27.2737711" lon="151.289906">
  <ele>345.13</ele>
  <time>2026-09-01T19:58:24Z</time>
  <course>279.9</course>
  <speed>0.0</speed>
  <fix>3d</fix>
</trkpt>
<trkpt lat="-27.2737711" lon="151.2899057">
  <ele>344.84</ele>
  <time>2026-09-01T19:58:24Z</time>
  <course>105.82</course>
  <speed>0.0316227766016838</speed>
  <fix>3d</fix>
</trkpt>
<trkpt lat="-27.2737711" lon="151.289906">
  <ele>345.03</ele>
  <time>2026-09-01T19:58:24Z</time>
  <course>278.92</course>
  <speed>0.0</speed>
  <fix>3d</fix>
</trkpt>
<trkpt lat="-27.2737711" lon="151.2899057">
  <ele>344.79</ele>
  <time>2026-09-01T19:58:24Z</time>
  <course>105.83</course>
  <speed>0.0316227766016838</speed>
  <fix>3d</fix>
</trkpt>
<trkpt lat="-27.2737711" lon="151.289906">
  <ele>345.03</ele>
  <time>2026-09-01T19:58:24Z</time>
  <course>278.92</course>
  <speed>0.0</speed>
  <fix>3d</fix>
</trkpt>
<trkpt lat="-27.2737711" lon="151.2899057">
  <ele>344.74</ele>
  <time>2026-09-01T19:58:24Z</time>
  <course>105.86</course>
  <speed>0.0316227766016838</speed>
  <fix>3d</fix>
</trkpt>
<trkpt lat="-27.2737711" lon="151.289906">
  <ele>344.93</ele>
  <time>2026-09-01T19:58:24Z</time>
  <course>278.25</course>
  <speed>0.0</speed>
  <fix>3d</fix>
</trkpt>
<trkpt lat="-27.2737711" lon="151.2899057">
  <ele>344.68</ele>
  <time>2026-09-01T19:58:24Z</time>
  <course>105.89</course>
  <speed>0.0316227766016838</speed>
  <fix>3d</fix>
</trkpt>
<trkpt lat="-27.2737711" lon="151.289906">
  <ele>344.93</ele>
  <time>2026-09-01T19:58:24Z</time>
  <course>278.25</course>
  <speed>0.0</speed>
  <fix>3d</fix>
</trkpt>
<trkpt lat="-27.2737711" lon="151.2899057">
  <ele>344.63</ele>
  <time>2026-09-01T19:58:24Z</time>
  <course>105.91</course>
  <speed>0.0316227766016838</speed>
  <fix>3d</fix>
</trkpt>
<trkpt lat="-27.2737711" lon="151.289906">
  <ele>344.82</ele>
  <time>2026-09-01T19:58:24Z</time>
  <course>278.49</course>
  <speed>0.0</speed>
  <fix>3d</fix>
</trkpt>
<trkpt lat="-27.2737711" lon="151.2899057">
  <ele>344.58</ele>
  <time>2026-09-01T19:58:24Z</time>
  <course>105.92</course>
  <speed>0.0316227766016838</speed>
  <fix>3d</fix>
</trkpt>
<trkpt lat="-27.2737711" lon="151.289906">
  <ele>344.82</ele>
  <time>2026-09-01T19:58:24Z</time>
  <course>278.49</course>
  <speed>0.0</speed>
  <fix>3d</fix>
</trkpt>
<trkpt lat="-27.2737711" lon="151.2899057">
  <ele>344.53</ele>
  <time>2026-09-01T19:58:24Z</time>
  <course>105.93</course>
  <speed>0.0316227766016838</speed>
  <fix>3d</fix>
</trkpt>
<trkpt lat="-27.2737711" lon="151.2899059">
  <ele>344.72</ele>
  <time>2026-09-01T19:58:24Z</time>
  <course>278.31</course>
  <speed>0.01</speed>
  <fix>3d</fix>
</trkpt>
<trkpt lat="-27.2737711" lon="151.2899057">
  <ele>344.48</ele>
  <time>2026-09-01T19:58:24Z</time>
  <course>105.93</course>
  <speed>0.0316227766016838</speed>
  <fix>3d</fix>
</trkpt>
<trkpt lat="-27.2737711" lon="151.2899059">
  <ele>344.72</ele>
  <time>2026-09-01T19:58:24Z</time>
  <course>278.31</course>
  <speed>0.01</speed>
  <fix>3d</fix>
</trkpt>
<trkpt lat="-27.2737711" lon="151.2899056">
  <ele>344.43</ele>
  <time>2026-09-01T19:58:24Z</time>
  <course>105.92</course>
  <speed>0.0316227766016838</speed>
  <fix>3d</fix>
</trkpt>
<trkpt lat="-27.2737711" lon="151.2899058">
  <ele>344.62</ele>
  <time>2026-09-01T19:58:24Z</time>
  <course>278.06</course>
  <speed>0.01</speed>
  <fix>3d</fix>
</trkpt>
<trkpt lat="-27.2737711" lon="151.2899056">
  <ele>344.38</ele>
  <time>2026-09-01T19:58:24Z</time>
  <course>105.91</course>
  <speed>0.0316227766016838</speed>
  <fix>3d</fix>
</trkpt>
<trkpt lat="-27.2737711" lon="151.2899058">
  <ele>344.62</ele>
  <time>2026-09-01T19:58:24Z</time>
  <course>278.06</course>
  <speed>0.01</speed>
  <fix>3d</fix>
</trkpt>
<trkpt lat="-27.2737711" lon="151.2899056">
  <ele>344.33</ele>
  <time>2026-09-01T19:58:24Z</time>
  <course>105.9</course>
  <speed>0.0316227766016838</speed>
  <fix>3d</fix>
</trkpt>
<trkpt lat="-27.2737711" lon="151.2899058">
  <ele>344.52</ele>
  <time>2026-09-01T19:58:24Z</time>
  <course>277.85</course>
  <speed>0.01</speed>
  <fix>3d</fix>
</trkpt>
<trkpt lat="-27.2737711" lon="151.2899056">
  <ele>344.28</ele>
  <time>2026-09-01T19:58:24Z</time>
  <course>105.88</course>
  <speed>0.0316227766016838</speed>
  <fix>3d</fix>
</trkpt>
<trkpt lat="-27.2737711" lon="151.2899058">
  <ele>344.52</ele>
  <time>2026-09-01T19:58:24Z</time>
  <course>277.85</course>
  <speed>0.01</speed>
  <fix>3d</fix>
</trkpt>
<trkpt lat="-27.2737711" lon="151.2899056">
  <ele>344.23</ele>
  <time>2026-09-01T19:58:24Z</time>
  <course>105.87</course>
  <speed>0.0316227766016838</speed>
  <fix>3d</fix>
</trkpt>
<trkpt lat="-27.2737711" lon="151.2899058">
  <ele>344.41</ele>
  <time>2026-09-01T19:58:24Z</time>
  <course>277.4</course>
  <speed>0.01</speed>
  <fix>3d</fix>
</trkpt>
<trkpt lat="-27.2737712" lon="151.2899056">
  <ele>344.17</ele>
  <time>2026-09-01T19:58:24Z</time>
  <course>105.85</course>
  <speed>0.0316227766016838</speed>
  <fix>3d</fix>
</trkpt>
<trkpt lat="-27.2737711" lon="151.2899058">
  <ele>344.41</ele>
  <time>2026-09-01T19:58:24Z</time>
  <course>277.4</course>
  <speed>0.01</speed>
  <fix>3d</fix>
</trkpt>
<trkpt lat="-27.2737712" lon="151.2899056">
  <ele>344.12</ele>
  <time>2026-09-01T19:58:24Z</time>
  <course>105.83</course>
  <speed>0.0316227766016838</speed>
  <fix>3d</fix>
</trkpt>
<trkpt lat="-27.2737711" lon="151.2899058">
  <ele>344.32</ele>
  <time>2026-09-01T19:58:24Z</time>
  <course>276.27</course>
  <speed>0.01</speed>
  <fix>3d</fix>
</trkpt>
<trkpt lat="-27.2737712" lon="151.2899055">
  <ele>344.07</ele>
  <time>2026-09-01T19:58:24Z</time>
  <course>105.82</course>
  <speed>0.0412310562561766</speed>
  <fix>3d</fix>
</trkpt>
<trkpt lat="-27.2737711" lon="151.2899058">
  <ele>344.32</ele>
  <time>2026-09-01T19:58:24Z</time>
  <course>276.27</course>
  <speed>0.01</speed>
  <fix>3d</fix>
</trkpt>
<trkpt lat="-27.2737712" lon="151.2899055">
  <ele>344.02</ele>
  <time>2026-09-01T19:58:24Z</time>
  <course>105.83</course>
  <speed>0.0412310562561766</speed>
  <fix>3d</fix>
</trkpt>
<trkpt lat="-27.2737711" lon="151.2899057">
  <ele>344.22</ele>
  <time>2026-09-01T19:58:24Z</time>
  <course>275.78</course>
  <speed>0.01</speed>
  <fix>3d</fix>
</trkpt>
<trkpt lat="-27.2737712" lon="151.2899055">
  <ele>343.97</ele>
  <time>2026-09-01T19:58:24Z</time>
  <course>105.83</course>
  <speed>0.0412310562561766</speed>
  <fix>3d</fix>
</trkpt>
<trkpt lat="-27.2737711" lon="151.2899057">
  <ele>344.22</ele>
  <time>2026-09-01T19:58:24Z</time>
  <course>275.78</course>
  <speed>0.01</speed>
  <fix>3d</fix>
</trkpt>
<trkpt lat="-27.2737712" lon="151.2899055">
  <ele>343.92</ele>
  <time>2026-09-01T19:58:24Z</time>
  <course>105.84</course>
  <speed>0.0412310562561766</speed>
  <fix>3d</fix>
</trkpt>
<trkpt lat="-27.2737711" lon="151.2899057">
  <ele>344.12</ele>
  <time>2026-09-01T19:58:24Z</time>
  <course>276.0</course>
  <speed>0.01</speed>
  <fix>3d</fix>
</trkpt>
<trkpt lat="-27.2737712" lon="151.2899055">
  <ele>343.88</ele>
  <time>2026-09-01T19:58:24Z</time>
  <course>105.85</course>
  <speed>0.0412310562561766</speed>
  <fix>3d</fix>
</trkpt>
<trkpt lat="-27.2737711" lon="151.2899057">
  <ele>344.12</ele>
  <time>2026-09-01T19:58:24Z</time>
  <course>276.0</course>
  <speed>0.01</speed>
  <fix>3d</fix>
</trkpt>
<trkpt lat="-27.2737712" lon="151.2899055">
  <ele>343.83</ele>
  <time>2026-09-01T19:58:24Z</time>
  <course>105.84</course>
  <speed>0.0412310562561766</speed>
  <fix>3d</fix>
</trkpt>
<trkpt lat="-27.2737711" lon="151.2899057">
  <ele>344.02</ele>
  <time>2026-09-01T19:58:24Z</time>
  <course>275.65</course>
  <speed>0.01</speed>
  <fix>3d</fix>
</trkpt>
<trkpt lat="-27.2737712" lon="151.2899054">
  <ele>343.78</ele>
  <time>2026-09-01T19:58:24Z</time>
  <course>105.84</course>
  <speed>0.0412310562561766</speed>
  <fix>3d</fix>
</trkpt>
<trkpt lat="-27.2737711" lon="151.2899057">
  <ele>344.02</ele>
  <time>2026-09-01T19:58:24Z</time>
  <course>275.65</course>
  <speed>0.01</speed>
  <fix>3d</fix>
</trkpt>
<trkpt lat="-27.2737712" lon="151.2899054">
  <ele>343.73</ele>
  <time>2026-09-01T19:58:24Z</time>
  <course>105.83</course>
  <speed>0.0412310562561766</speed>
  <fix>3d</fix>
</trkpt>
<trkpt lat="-27.2737711" lon="151.2899057">
  <ele>343.91</ele>
  <time>2026-09-01T19:58:24Z</time>
  <course>274.99</course>
  <speed>0.01</speed>
  <fix>3d</fix>
</trkpt>
<trkpt lat="-27.2737712" lon="151.2899054">
  <ele>343.68</ele>
  <time>2026-09-01T19:58:24Z</time>
  <course>105.81</course>
  <speed>0.0412310562561766</speed>
  <fix>3d</fix>
</trkpt>
<trkpt lat="-27.2737711" lon="151.2899057">
  <ele>343.91</ele>
  <time>2026-09-01T19:58:24Z</time>
  <course>274.99</course>
  <speed>0.01</speed>
  <fix>3d</fix>
</trkpt>
<trkpt lat="-27.2737712" lon="151.2899054">
  <ele>343.63</ele>
  <time>2026-09-01T19:58:24Z</time>
  <course>105.8</course>
  <speed>0.0316227766016838</speed>
  <fix>3d</fix>
</trkpt>
<trkpt lat="-27.2737711" lon="151.2899057">
  <ele>343.82</ele>
  <time>2026-09-01T19:58:24Z</time>
  <course>274.95</course>
  <speed>0.0</speed>
  <fix>3d</fix>
</trkpt>
<trkpt lat="-27.2737712" lon="151.2899054">
  <ele>343.58</ele>
  <time>2026-09-01T19:58:24Z</time>
  <course>105.81</course>
  <speed>0.0316227766016838</speed>
  <fix>3d</fix>
</trkpt>
<trkpt lat="-27.2737711" lon="151.2899057">
  <ele>343.82</ele>
  <time>2026-09-01T19:58:24Z</time>
  <course>274.95</course>
  <speed>0.0</speed>
  <fix>3d</fix>
</trkpt>
<trkpt lat="-27.2737712" lon="151.2899054">
  <ele>343.53</ele>
  <time>2026-09-01T19:58:24Z</time>
  <course>105.81</course>
  <speed>0.0316227766016838</speed>
  <fix>3d</fix>
</trkpt>
<trkpt lat="-27.2737711" lon="151.2899057">
  <ele>343.72</ele>
  <time>2026-09-01T19:58:24Z</time>
  <course>277.26</course>
  <speed>0.0</speed>
  <fix>3d</fix>
</trkpt>
<trkpt lat="-27.2737712" lon="151.2899054">
  <ele>343.48</ele>
  <time>2026-09-01T19:58:24Z</time>
  <course>105.83</course>
  <speed>0.0316227766016838</speed>
  <fix>3d</fix>
</trkpt>
<trkpt lat="-27.2737711" lon="151.2899057">
  <ele>343.72</ele>
  <time>2026-09-01T19:58:24Z</time>
  <course>277.26</course>
  <speed>0.0</speed>
  <fix>3d</fix>
</trkpt>
<trkpt lat="-27.2737712" lon="151.2899054">
  <ele>343.43</ele>
  <time>2026-09-01T19:58:24Z</time>
  <course>105.85</course>
  <speed>0.0316227766016838</speed>
  <fix>3d</fix>
</trkpt>
<trkpt lat="-27.2737711" lon="151.2899057">
  <ele>343.62</ele>
  <time>2026-09-01T19:58:24Z</time>
  <course>288.52</course>
  <speed>0.0</speed>
  <fix>3d</fix>
</trkpt>
<trkpt lat="-27.2737712" lon="151.2899054">
  <ele>343.38</ele>
  <time>2026-09-01T19:58:24Z</time>
  <course>105.88</course>
  <speed>0.0316227766016838</speed>
  <fix>3d</fix>
</trkpt>
<trkpt lat="-27.2737711" lon="151.2899057">
  <ele>343.62</ele>
  <time>2026-09-01T19:58:24Z</time>
  <course>288.52</course>
  <speed>0.0</speed>
  <fix>3d</fix>
</trkpt>
<trkpt lat="-27.2737712" lon="151.2899054">
  <ele>343.33</ele>
  <time>2026-09-01T19:58:24Z</time>
  <course>105.93</course>
  <speed>0.0316227766016838</speed>
  <fix>3d</fix>
</trkpt>
<trkpt lat="-27.2737711" lon="151.2899057">
  <ele>343.52</ele>
  <time>2026-09-01T19:58:24Z</time>
  <course>316.48</course>
  <speed>0.0</speed>
  <fix>3d</fix>
</trkpt>
<trkpt lat="-27.2737712" lon="151.2899054">
  <ele>343.28</ele>
  <time>2026-09-01T19:58:24Z</time>
  <course>105.98</course>
  <speed>0.03</speed>
  <fix>3d</fix>
</trkpt>
<trkpt lat="-27.2737711" lon="151.2899057">
  <ele>343.52</ele>
  <time>2026-09-01T19:58:24Z</time>
  <course>316.48</course>
  <speed>0.0</speed>
  <fix>3d</fix>
</trkpt>
<trkpt lat="-27.2737712" lon="151.2899054">
  <ele>343.23</ele>
  <time>2026-09-01T19:58:24Z</time>
  <course>106.03</course>
  <speed>0.02</speed>
  <fix>3d</fix>
</trkpt>
<trkpt lat="-27.2737711" lon="151.2899057">
  <ele>343.41</ele>
  <time>2026-09-01T19:58:24Z</time>
  <course>351.67</course>
  <speed>0.0</speed>
  <fix>3d</fix>
</trkpt>
<trkpt lat="-27.2737711" lon="151.2899054">
  <ele>343.18</ele>
  <time>2026-09-01T19:58:24Z</time>
  <course>106.07</course>
  <speed>0.02</speed>
  <fix>3d</fix>
</trkpt>
<trkpt lat="-27.2737711" lon="151.2899057">
  <ele>343.41</ele>
  <time>2026-09-01T19:58:24Z</time>
  <course>351.67</course>
  <speed>0.0</speed>
  <fix>3d</fix>
</trkpt>
<trkpt lat="-27.2737711" lon="151.2899054">
  <ele>343.13</ele>
  <time>2026-09-01T19:58:24Z</time>
  <course>106.1</course>
  <speed>0.02</speed>
  <fix>3d</fix>
</trkpt>
<trkpt lat="-27.2737711" lon="151.2899057">
  <ele>343.32</ele>
  <time>2026-09-01T19:58:24Z</time>
  <course>8.58</course>
  <speed>0.01</speed>
  <fix>3d</fix>
</trkpt>
<trkpt lat="-27.2737711" lon="151.2899054">
  <ele>343.08</ele>
  <time>2026-09-01T19:58:24Z</time>
  <course>106.12</course>
  <speed>0.02</speed>
  <fix>3d</fix>
</trkpt>
<trkpt lat="-27.2737711" lon="151.2899057">
  <ele>343.32</ele>
  <time>2026-09-01T19:58:24Z</time>
  <course>8.58</course>
  <speed>0.01</speed>
  <fix>3d</fix>
</trkpt>
<trkpt lat="-27.2737711" lon="151.2899054">
  <ele>343.03</ele>
  <time>2026-09-01T19:58:24Z</time>
  <course>106.14</course>
  <speed>0.02</speed>
  <fix>3d</fix>
</trkpt>
<trkpt lat="-27.2737711" lon="151.2899057">
  <ele>343.22</ele>
  <time>2026-09-01T19:58:24Z</time>
  <course>16.62</course>
  <speed>0.01</speed>
  <fix>3d</fix>
</trkpt>
<trkpt lat="-27.2737711" lon="151.2899054">
  <ele>342.98</ele>
  <time>2026-09-01T19:58:24Z</time>
  <course>106.15</course>
  <speed>0.02</speed>
  <fix>3d</fix>
</trkpt>
<trkpt lat="-27.2737711" lon="151.2899057">
  <ele>343.22</ele>
  <time>2026-09-01T19:58:24Z</time>
  <course>16.62</course>
  <speed>0.01</speed>
  <fix>3d</fix>
</trkpt>
<trkpt lat="-27.2737711" lon="151.2899054">
  <ele>342.96</ele>
  <time>2026-09-01T19:58:24Z</time>
  <course>106.15</course>
  <speed>0.0316227766016838</speed>
  <fix>3d</fix>
</trkpt>
<trkpt lat="-27.273771" lon="151.2899057">
  <ele>343.12</ele>
  <time>2026-09-01T19:58:24Z</time>
  <course>21.59</course>
  <speed>0.02</speed>
  <fix>3d</fix>
</trkpt>
<trkpt lat="-27.2737711" lon="151.2899054">
  <ele>342.97</ele>
  <time>2026-09-01T19:58:24Z</time>
  <course>106.15</course>
  <speed>0.03605551275463989</speed>
  <fix>3d</fix>
</trkpt>
<trkpt lat="-27.273771" lon="151.2899057">
  <ele>343.12</ele>
  <time>2026-09-01T19:58:24Z</time>
  <course>21.59</course>
  <speed>0.02</speed>
  <fix>3d</fix>
</trkpt>
<trkpt lat="-27.2737711" lon="151.2899054">
  <ele>342.98</ele>
  <time>2026-09-01T19:58:24Z</time>
  <course>106.15</course>
  <speed>0.03605551275463989</speed>
  <fix>3d</fix>
</trkpt>
<trkpt lat="-27.273771" lon="151.2899057">
  <ele>343.06</ele>
  <time>2026-09-01T19:58:24Z</time>
  <course>23.31</course>
  <speed>0.0</speed>
  <fix>3d</fix>
</trkpt>
<trkpt lat="-27.2737711" lon="151.2899054">
  <ele>342.98</ele>
  <time>2026-09-01T19:58:24Z</time>
  <course>106.15</course>
  <speed>0.03605551275463989</speed>
  <fix>3d</fix>
</trkpt>
<trkpt lat="-27.273771" lon="151.2899057">
  <ele>343.06</ele>
  <time>2026-09-01T19:58:24Z</time>
  <course>23.31</course>
  <speed>0.0</speed>
  <fix>3d</fix>
</trkpt>
<trkpt lat="-27.2737711" lon="151.2899054">
  <ele>342.98</ele>
  <time>2026-09-01T19:58:24Z</time>
  <course>106.15</course>
  <speed>0.0316227766016838</speed>
  <fix>3d</fix>
</trkpt>
<trkpt lat="-27.273771" lon="151.2899057">
  <ele>343.07</ele>
  <time>2026-09-01T19:58:24Z</time>
  <course>203.31</course>
  <speed>0.0</speed>
  <fix>3d</fix>
</trkpt>
<trkpt lat="-27.2737711" lon="151.2899054">
  <ele>342.98</ele>
  <time>2026-09-01T19:58:24Z</time>
  <course>106.15</course>
  <speed>0.0316227766016838</speed>
  <fix>3d</fix>
</trkpt>
<trkpt lat="-27.273771" lon="151.2899057">
  <ele>343.07</ele>
  <time>2026-09-01T19:58:24Z</time>
  <course>203.31</course>
  <speed>0.0</speed>
  <fix>3d</fix>
</trkpt>
<trkpt lat="-27.2737711" lon="151.2899054">
  <ele>342.98</ele>
  <time>2026-09-01T19:58:24Z</time>
  <course>106.15</course>
  <speed>0.0316227766016838</speed>
  <fix>3d</fix>
</trkpt>
<trkpt lat="-27.273771" lon="151.2899057">
  <ele>343.08</ele>
  <time>2026-09-01T19:58:24Z</time>
  <course>203.3</course>
  <speed>0.0</speed>
  <fix>3d</fix>
</trkpt>
<trkpt lat="-27.2737711" lon="151.2899054">
  <ele>342.98</ele>
  <time>2026-09-01T19:58:24Z</time>
  <course>106.15</course>
  <speed>0.0316227766016838</speed>
  <fix>3d</fix>
</trkpt>
<trkpt lat="-27.273771" lon="151.2899057">
  <ele>343.08</ele>
  <time>2026-09-01T19:58:24Z</time>
  <course>203.3</course>
  <speed>0.0</speed>
  <fix>3d</fix>
</trkpt>
<trkpt lat="-27.2737711" lon="151.2899054">
  <ele>342.98</ele>
  <time>2026-09-01T19:58:24Z</time>
  <course>106.15</course>
  <speed>0.0316227766016838</speed>
  <fix>3d</fix>
</trkpt>
<trkpt lat="-27.273771" lon="151.2899057">
  <ele>343.08</ele>
  <time>2026-09-01T19:58:24Z</time>
  <course>23.32</course>
  <speed>0.0</speed>
  <fix>3d</fix>
</trkpt>
<trkpt lat="-27.2737711" lon="151.2899054">
  <ele>342.98</ele>
  <time>2026-09-01T19:58:24Z</time>
  <course>106.15</course>
  <speed>0.0316227766016838</speed>
  <fix>3d</fix>
</trkpt>
<trkpt lat="-27.273771" lon="151.2899057">
  <ele>343.08</ele>
  <time>2026-09-01T19:58:24Z</time>
  <course>23.32</course>
  <speed>0.0</speed>
  <fix>3d</fix>
</trkpt>
<trkpt lat="-27.2737711" lon="151.2899054">
  <ele>342.98</ele>
  <time>2026-09-01T19:58:24Z</time>
  <course>106.15</course>
  <speed>0.0316227766016838</speed>
  <fix>3d</fix>
</trkpt>
<trkpt lat="-27.273771" lon="151.2899057">
  <ele>343.08</ele>
  <time>2026-09-01T19:58:24Z</time>
  <course>203.16</course>
  <speed>0.0</speed>
  <fix>3d</fix>
</trkpt>
<trkpt lat="-27.2737711" lon="151.2899054">
  <ele>342.98</ele>
  <time>2026-09-01T19:58:24Z</time>
  <course>106.15</course>
  <speed>0.0316227766016838</speed>
  <fix>3d</fix>
</trkpt>
<trkpt lat="-27.273771" lon="151.2899057">
  <ele>343.08</ele>
  <time>2026-09-01T19:58:24Z</time>
  <course>203.16</course>
  <speed>0.0</speed>
  <fix>3d</fix>
</trkpt>
<trkpt lat="-27.2737711" lon="151.2899054">
  <ele>342.98</ele>
  <time>2026-09-01T19:58:24Z</time>
  <course>106.15</course>
  <speed>0.0316227766016838</speed>
  <fix>3d</fix>
</trkpt>
<trkpt lat="-27.273771" lon="151.2899057">
  <ele>343.08</ele>
  <time>2026-09-01T19:58:24Z</time>
  <course>203.27</course>
  <speed>0.0</speed>
  <fix>3d</fix>
</trkpt>
<trkpt lat="-27.2737711" lon="151.2899054">
  <ele>342.98</ele>
  <time>2026-09-01T19:58:24Z</time>
  <course>106.15</course>
  <speed>0.0316227766016838</speed>
  <fix>3d</fix>
</trkpt>
<trkpt lat="-27.273771" lon="151.2899057">
  <ele>343.08</ele>
  <time>2026-09-01T19:58:24Z</time>
  <course>203.27</course>
  <speed>0.0</speed>
  <fix>3d</fix>
</trkpt>
<trkpt lat="-27.2737711" lon="151.2899054">
  <ele>342.98</ele>
  <time>2026-09-01T19:58:24Z</time>
  <course>106.15</course>
  <speed>0.0316227766016838</speed>
  <fix>3d</fix>
</trkpt>
<trkpt lat="-27.273771" lon="151.2899057">
  <ele>343.08</ele>
  <time>2026-09-01T19:58:24Z</time>
  <course>23.51</course>
  <speed>0.0</speed>
  <fix>3d</fix>
</trkpt>
<trkpt lat="-27.2737711" lon="151.2899054">
  <ele>342.98</ele>
  <time>2026-09-01T19:58:24Z</time>
  <course>106.15</course>
  <speed>0.0316227766016838</speed>
  <fix>3d</fix>
</trkpt>
<trkpt lat="-27.273771" lon="151.2899057">
  <ele>343.08</ele>
  <time>2026-09-01T19:58:24Z</time>
  <course>23.51</course>
  <speed>0.0</speed>
  <fix>3d</fix>
</trkpt>
<trkpt lat="-27.2737711" lon="151.2899054">
  <ele>342.98</ele>
  <time>2026-09-01T19:58:24Z</time>
  <course>106.15</course>
  <speed>0.0316227766016838</speed>
  <fix>3d</fix>
</trkpt>
<trkpt lat="-27.273771" lon="151.2899057">
  <ele>343.08</ele>
  <time>2026-09-01T19:58:24Z</time>
  <course>23.36</course>
  <speed>0.0</speed>
  <fix>3d</fix>
</trkpt>
<trkpt lat="-27.2737711" lon="151.2899054">
  <ele>342.98</ele>
  <time>2026-09-01T19:58:24Z</time>
  <course>106.15</course>
  <speed>0.0316227766016838</speed>
  <fix>3d</fix>
</trkpt>
<trkpt lat="-27.273771" lon="151.2899057">
  <ele>343.08</ele>
  <time>2026-09-01T19:58:24Z</time>
  <course>23.36</course>
  <speed>0.0</speed>
  <fix>3d</fix>
</trkpt>
<trkpt lat="-27.2737711" lon="151.2899054">
  <ele>342.98</ele>
  <time>2026-09-01T19:58:24Z</time>
  <course>106.14</course>
  <speed>0.0316227766016838</speed>
  <fix>3d</fix>
</trkpt>
<trkpt lat="-27.273771" lon="151.2899057">
  <ele>343.08</ele>
  <time>2026-09-01T19:58:24Z</time>
  <course>202.89</course>
  <speed>0.0</speed>
  <fix>3d</fix>
</trkpt>
<trkpt lat="-27.2737711" lon="151.2899054">
  <ele>342.98</ele>
  <time>2026-09-01T19:58:24Z</time>
  <course>106.14</course>
  <speed>0.0316227766016838</speed>
  <fix>3d</fix>
</trkpt>
<trkpt lat="-27.273771" lon="151.2899057">
  <ele>343.08</ele>
  <time>2026-09-01T19:58:24Z</time>
  <course>202.89</course>
  <speed>0.0</speed>
  <fix>3d</fix>
</trkpt>
<trkpt lat="-27.2737711" lon="151.2899054">
  <ele>342.98</ele>
  <time>2026-09-01T19:58:24Z</time>
  <course>106.14</course>
  <speed>0.0316227766016838</speed>
  <fix>3d</fix>
</trkpt>
<trkpt lat="-27.273771" lon="151.2899057">
  <ele>343.08</ele>
  <time>2026-09-01T19:58:24Z</time>
  <course>202.74</course>
  <speed>0.0</speed>
  <fix>3d</fix>
</trkpt>
<trkpt lat="-27.2737711" lon="151.2899054">
  <ele>342.98</ele>
  <time>2026-09-01T19:58:24Z</time>
  <course>106.14</course>
  <speed>0.0316227766016838</speed>
  <fix>3d</fix>
</trkpt>
<trkpt lat="-27.273771" lon="151.2899057">
  <ele>343.08</ele>
  <time>2026-09-01T19:58:24Z</time>
  <course>202.74</course>
  <speed>0.0</speed>
  <fix>3d</fix>
</trkpt>
<trkpt lat="-27.2737711" lon="151.2899054">
  <ele>342.99</ele>
  <time>2026-09-01T19:58:24Z</time>
  <course>106.14</course>
  <speed>0.0316227766016838</speed>
  <fix>3d</fix>
</trkpt>
<trkpt lat="-27.273771" lon="151.2899057">
  <ele>343.08</ele>
  <time>2026-09-01T19:58:24Z</time>
  <course>21.41</course>
  <speed>0.0</speed>
  <fix>3d</fix>
</trkpt>
<trkpt lat="-27.2737711" lon="151.2899054">
  <ele>342.99</ele>
  <time>2026-09-01T19:58:24Z</time>
  <course>106.14</course>
  <speed>0.0316227766016838</speed>
  <fix>3d</fix>
</trkpt>
<trkpt lat="-27.273771" lon="151.2899057">
  <ele>343.08</ele>
  <time>2026-09-01T19:58:24Z</time>
  <course>21.41</course>
  <speed>0.0</speed>
  <fix>3d</fix>
</trkpt>
<trkpt lat="-27.2737711" lon="151.2899054">
  <ele>342.99</ele>
  <time>2026-09-01T19:58:24Z</time>
  <course>106.14</course>
  <speed>0.0316227766016838</speed>
  <fix>3d</fix>
</trkpt>
<trkpt lat="-27.273771" lon="151.2899057">
  <ele>343.08</ele>
  <time>2026-09-01T19:58:24Z</time>
  <course>341.57</course>
  <speed>0.0</speed>
  <fix>3d</fix>
</trkpt>
<trkpt lat="-27.2737711" lon="151.2899054">
  <ele>342.99</ele>
  <time>2026-09-01T19:58:24Z</time>
  <course>106.14</course>
  <speed>0.0316227766016838</speed>
  <fix>3d</fix>
</trkpt>
<trkpt lat="-27.273771" lon="151.2899057">
  <ele>343.08</ele>
  <time>2026-09-01T19:58:24Z</time>
  <course>341.57</course>
  <speed>0.0</speed>
  <fix>3d</fix>
</trkpt>
<trkpt lat="-27.2737711" lon="151.2899054">
  <ele>342.99</ele>
  <time>2026-09-01T19:58:25Z</time>
  <course>106.14</course>
  <speed>0.0316227766016838</speed>
  <fix>3d</fix>
</trkpt>
<trkpt lat="-27.273771" lon="151.2899057">
  <ele>343.08</ele>
  <time>2026-09-01T19:58:25Z</time>
  <course>317.35</course>
  <speed>0.0</speed>
  <fix>3d</fix>
</trkpt>
<trkpt lat="-27.2737711" lon="151.2899054">
  <ele>342.99</ele>
  <time>2026-09-01T19:58:25Z</time>
  <course>106.14</course>
  <speed>0.0316227766016838</speed>
  <fix>3d</fix>
</trkpt>
<trkpt lat="-27.273771" lon="151.2899057">
  <ele>343.08</ele>
  <time>2026-09-01T19:58:25Z</time>
  <course>317.35</course>
  <speed>0.0</speed>
  <fix>3d</fix>
</trkpt>
<trkpt lat="-27.2737711" lon="151.2899054">
  <ele>342.99</ele>
  <time>2026-09-01T19:58:25Z</time>
  <course>106.14</course>
  <speed>0.0316227766016838</speed>
  <fix>3d</fix>
</trkpt>
<trkpt lat="-27.273771" lon="151.2899057">
  <ele>343.08</ele>
  <time>2026-09-01T19:58:25Z</time>
  <course>333.12</course>
  <speed>0.0</speed>
  <fix>3d</fix>
</trkpt>
<trkpt lat="-27.2737711" lon="151.2899054">
  <ele>342.99</ele>
  <time>2026-09-01T19:58:25Z</time>
  <course>106.14</course>
  <speed>0.0316227766016838</speed>
  <fix>3d</fix>
</trkpt>
<trkpt lat="-27.273771" lon="151.2899057">
  <ele>343.08</ele>
  <time>2026-09-01T19:58:25Z</time>
  <course>333.12</course>
  <speed>0.0</speed>
  <fix>3d</fix>
</trkpt>
<trkpt lat="-27.2737711" lon="151.2899054">
  <ele>342.99</ele>
  <time>2026-09-01T19:58:25Z</time>
  <course>106.14</course>
  <speed>0.0316227766016838</speed>
  <fix>3d</fix>
</trkpt>
<trkpt lat="-27.273771" lon="151.2899057">
  <ele>343.08</ele>
  <time>2026-09-01T19:58:25Z</time>
  <course>306.96</course>
  <speed>0.0</speed>
  <fix>3d</fix>
</trkpt>
<trkpt lat="-27.2737711" lon="151.2899054">
  <ele>342.99</ele>
  <time>2026-09-01T19:58:25Z</time>
  <course>106.14</course>
  <speed>0.0316227766016838</speed>
  <fix>3d</fix>
</trkpt>
<trkpt lat="-27.273771" lon="151.2899057">
  <ele>343.08</ele>
  <time>2026-09-01T19:58:25Z</time>
  <course>306.96</course>
  <speed>0.0</speed>
  <fix>3d</fix>
</trkpt>
<trkpt lat="-27.2737711" lon="151.2899054">
  <ele>342.99</ele>
  <time>2026-09-01T19:58:25Z</time>
  <course>106.14</course>
  <speed>0.0316227766016838</speed>
  <fix>3d</fix>
</trkpt>
<trkpt lat="-27.273771" lon="151.2899057">
  <ele>343.08</ele>
  <time>2026-09-01T19:58:25Z</time>
  <course>245.7</course>
  <speed>0.0</speed>
  <fix>3d</fix>
</trkpt>
<trkpt lat="-27.2737711" lon="151.2899054">
  <ele>342.99</ele>
  <time>2026-09-01T19:58:25Z</time>
  <course>106.14</course>
  <speed>0.0316227766016838</speed>
  <fix>3d</fix>
</trkpt>
<trkpt lat="-27.273771" lon="151.2899057">
  <ele>343.08</ele>
  <time>2026-09-01T19:58:25Z</time>
  <course>245.7</course>
  <speed>0.0</speed>
  <fix>3d</fix>
</trkpt>
<trkpt lat="-27.2737711" lon="151.2899054">
  <ele>342.99</ele>
  <time>2026-09-01T19:58:25Z</time>
  <course>106.14</course>
  <speed>0.0316227766016838</speed>
  <fix>3d</fix>
</trkpt>
<trkpt lat="-27.273771" lon="151.2899057">
  <ele>343.08</ele>
  <time>2026-09-01T19:58:25Z</time>
  <course>262.31</course>
  <speed>0.0</speed>
  <fix>3d</fix>
</trkpt>
<trkpt lat="-27.2737711" lon="151.2899054">
  <ele>342.99</ele>
  <time>2026-09-01T19:58:25Z</time>
  <course>106.14</course>
  <speed>0.0316227766016838</speed>
  <fix>3d</fix>
</trkpt>
<trkpt lat="-27.273771" lon="151.2899057">
  <ele>343.08</ele>
  <time>2026-09-01T19:58:25Z</time>
  <course>262.31</course>
  <speed>0.0</speed>
  <fix>3d</fix>
</trkpt>
<trkpt lat="-27.2737711" lon="151.2899054">
  <ele>342.99</ele>
  <time>2026-09-01T19:58:25Z</time>
  <course>106.14</course>
  <speed>0.0316227766016838</speed>
  <fix>3d</fix>
</trkpt>
<trkpt lat="-27.273771" lon="151.2899057">
  <ele>343.08</ele>
  <time>2026-09-01T19:58:25Z</time>
  <course>259.9</course>
  <speed>0.0</speed>
  <fix>3d</fix>
</trkpt>
<trkpt lat="-27.2737711" lon="151.2899054">
  <ele>342.99</ele>
  <time>2026-09-01T19:58:25Z</time>
  <course>106.14</course>
  <speed>0.0316227766016838</speed>
  <fix>3d</fix>
</trkpt>
<trkpt lat="-27.273771" lon="151.2899057">
  <ele>343.08</ele>
  <time>2026-09-01T19:58:25Z</time>
  <course>259.9</course>
  <speed>0.0</speed>
  <fix>3d</fix>
</trkpt>
<trkpt lat="-27.2737711" lon="151.2899054">
  <ele>342.99</ele>
  <time>2026-09-01T19:58:25Z</time>
  <course>106.14</course>
  <speed>0.0316227766016838</speed>
  <fix>3d</fix>
</trkpt>
<trkpt lat="-27.273771" lon="151.2899057">
  <ele>343.08</ele>
  <time>2026-09-01T19:58:25Z</time>
  <course>248.93</course>
  <speed>0.0</speed>
  <fix>3d</fix>
</trkpt>
<trkpt lat="-27.2737711" lon="151.2899054">
  <ele>342.99</ele>
  <time>2026-09-01T19:58:25Z</time>
  <course>106.14</course>
  <speed>0.0316227766016838</speed>
  <fix>3d</fix>
</trkpt>
<trkpt lat="-27.273771" lon="151.2899057">
  <ele>343.08</ele>
  <time>2026-09-01T19:58:25Z</time>
  <course>248.93</course>
  <speed>0.0</speed>
  <fix>3d</fix>
</trkpt>
<trkpt lat="-27.2737711" lon="151.2899054">
  <ele>342.99</ele>
  <time>2026-09-01T19:58:25Z</time>
  <course>106.14</course>
  <speed>0.0316227766016838</speed>
  <fix>3d</fix>
</trkpt>
<trkpt lat="-27.273771" lon="151.2899057">
  <ele>343.08</ele>
  <time>2026-09-01T19:58:25Z</time>
  <course>243.7</course>
  <speed>0.0</speed>
  <fix>3d</fix>
</trkpt>
<trkpt lat="-27.2737711" lon="151.2899054">
  <ele>342.99</ele>
  <time>2026-09-01T19:58:25Z</time>
  <course>106.14</course>
  <speed>0.0316227766016838</speed>
  <fix>3d</fix>
</trkpt>
<trkpt lat="-27.273771" lon="151.2899057">
  <ele>343.08</ele>
  <time>2026-09-01T19:58:25Z</time>
  <course>243.7</course>
  <speed>0.0</speed>
  <fix>3d</fix>
</trkpt>
<trkpt lat="-27.2737711" lon="151.2899054">
  <ele>342.99</ele>
  <time>2026-09-01T19:58:25Z</time>
  <course>106.14</course>
  <speed>0.0316227766016838</speed>
  <fix>3d</fix>
</trkpt>
<trkpt lat="-27.273771" lon="151.2899057">
  <ele>343.08</ele>
  <time>2026-09-01T19:58:25Z</time>
  <course>245.8</course>
  <speed>0.0</speed>
  <fix>3d</fix>
</trkpt>
<trkpt lat="-27.2737711" lon="151.2899054">
  <ele>342.99</ele>
  <time>2026-09-01T19:58:25Z</time>
  <course>106.14</course>
  <speed>0.0316227766016838</speed>
  <fix>3d</fix>
</trkpt>
<trkpt lat="-27.273771" lon="151.2899057">
  <ele>343.08</ele>
  <time>2026-09-01T19:58:25Z</time>
  <course>245.8</course>
  <speed>0.0</speed>
  <fix>3d</fix>
</trkpt>
<trkpt lat="-27.2737711" lon="151.2899054">
  <ele>342.99</ele>
  <time>2026-09-01T19:58:25Z</time>
  <course>106.14</course>
  <speed>0.0316227766016838</speed>
  <fix>3d</fix>
</trkpt>
<trkpt lat="-27.273771" lon="151.2899057">
  <ele>343.08</ele>
  <time>2026-09-01T19:58:25Z</time>
  <course>249.64</course>
  <speed>0.0</speed>
  <fix>3d</fix>
</trkpt>
<trkpt lat="-27.2737711" lon="151.2899054">
  <ele>342.99</ele>
  <time>2026-09-01T19:58:25Z</time>
  <course>106.14</course>
  <speed>0.0316227766016838</speed>
  <fix>3d</fix>
</trkpt>
<trkpt lat="-27.273771" lon="151.2899057">
  <ele>343.08</ele>
  <time>2026-09-01T19:58:25Z</time>
  <course>249.64</course>
  <speed>0.0</speed>
  <fix>3d</fix>
</trkpt>
<trkpt lat="-27.2737711" lon="151.2899054">
  <ele>342.99</ele>
  <time>2026-09-01T19:58:25Z</time>
  <course>106.14</course>
  <speed>0.0316227766016838</speed>
  <fix>3d</fix>
</trkpt>
<trkpt lat="-27.273771" lon="151.2899057">
  <ele>343.08</ele>
  <time>2026-09-01T19:58:25Z</time>
  <course>249.4</course>
  <speed>0.0</speed>
  <fix>3d</fix>
</trkpt>
<trkpt lat="-27.2737711" lon="151.2899054">
  <ele>342.99</ele>
  <time>2026-09-01T19:58:25Z</time>
  <course>106.14</course>
  <speed>0.0316227766016838</speed>
  <fix>3d</fix>
</trkpt>
<trkpt lat="-27.273771" lon="151.2899057">
  <ele>343.08</ele>
  <time>2026-09-01T19:58:25Z</time>
  <course>249.4</course>
  <speed>0.0</speed>
  <fix>3d</fix>
</trkpt>
<trkpt lat="-27.2737711" lon="151.2899054">
  <ele>342.99</ele>
  <time>2026-09-01T19:58:25Z</time>
  <course>106.14</course>
  <speed>0.0316227766016838</speed>
  <fix>3d</fix>
</trkpt>
<trkpt lat="-27.273771" lon="151.2899057">
  <ele>343.08</ele>
  <time>2026-09-01T19:58:25Z</time>
  <course>255.53</course>
  <speed>0.0</speed>
  <fix>3d</fix>
</trkpt>
<trkpt lat="-27.2737711" lon="151.2899054">
  <ele>342.99</ele>
  <time>2026-09-01T19:58:25Z</time>
  <course>106.14</course>
  <speed>0.0316227766016838</speed>
  <fix>3d</fix>
</trkpt>
<trkpt lat="-27.273771" lon="151.2899057">
  <ele>343.08</ele>
  <time>2026-09-01T19:58:25Z</time>
  <course>255.53</course>
  <speed>0.0</speed>
  <fix>3d</fix>
</trkpt>
<trkpt lat="-27.2737711" lon="151.2899054">
  <ele>342.99</ele>
  <time>2026-09-01T19:58:25Z</time>
  <course>106.14</course>
  <speed>0.0316227766016838</speed>
  <fix>3d</fix>
</trkpt>
<trkpt lat="-27.273771" lon="151.2899057">
  <ele>343.08</ele>
  <time>2026-09-01T19:58:25Z</time>
  <course>257.14</course>
  <speed>0.0</speed>
  <fix>3d</fix>
</trkpt>
<trkpt lat="-27.2737711" lon="151.2899054">
  <ele>342.99</ele>
  <time>2026-09-01T19:58:25Z</time>
  <course>106.14</course>
  <speed>0.0316227766016838</speed>
  <fix>3d</fix>
</trkpt>
<trkpt lat="-27.273771" lon="151.2899057">
  <ele>343.08</ele>
  <time>2026-09-01T19:58:25Z</time>
  <course>257.14</course>
  <speed>0.0</speed>
  <fix>3d</fix>
</trkpt>
<trkpt lat="-27.2737711" lon="151.2899054">
  <ele>342.99</ele>
  <time>2026-09-01T19:58:25Z</time>
  <course>106.14</course>
  <speed>0.0316227766016838</speed>
  <fix>3d</fix>
</trkpt>
<trkpt lat="-27.273771" lon="151.2899057">
  <ele>343.08</ele>
  <time>2026-09-01T19:58:25Z</time>
  <course>261.0</course>
  <speed>0.0</speed>
  <fix>3d</fix>
</trkpt>
<trkpt lat="-27.2737711" lon="151.2899054">
  <ele>342.99</ele>
  <time>2026-09-01T19:58:25Z</time>
  <course>106.14</course>
  <speed>0.0316227766016838</speed>
  <fix>3d</fix>
</trkpt>
<trkpt lat="-27.273771" lon="151.2899057">
  <ele>343.08</ele>
  <time>2026-09-01T19:58:25Z</time>
  <course>261.0</course>
  <speed>0.0</speed>
  <fix>3d</fix>
</trkpt>
<trkpt lat="-27.2737711" lon="151.2899054">
  <ele>342.99</ele>
  <time>2026-09-01T19:58:25Z</time>
  <course>106.14</course>
  <speed>0.0316227766016838</speed>
  <fix>3d</fix>
</trkpt>
<trkpt lat="-27.273771" lon="151.2899057">
  <ele>343.08</ele>
  <time>2026-09-01T19:58:25Z</time>
  <course>263.21</course>
  <speed>0.0</speed>
  <fix>3d</fix>
</trkpt>
<trkpt lat="-27.2737711" lon="151.2899054">
  <ele>342.99</ele>
  <time>2026-09-01T19:58:25Z</time>
  <course>106.14</course>
  <speed>0.0316227766016838</speed>
  <fix>3d</fix>
</trkpt>
<trkpt lat="-27.273771" lon="151.2899057">
  <ele>343.08</ele>
  <time>2026-09-01T19:58:25Z</time>
  <course>263.21</course>
  <speed>0.0</speed>
  <fix>3d</fix>
</trkpt>
<trkpt lat="-27.2737711" lon="151.2899054">
  <ele>342.99</ele>
  <time>2026-09-01T19:58:25Z</time>
  <course>106.14</course>
  <speed>0.0316227766016838</speed>
  <fix>3d</fix>
</trkpt>
<trkpt lat="-27.273771" lon="151.2899057">
  <ele>343.08</ele>
  <time>2026-09-01T19:58:25Z</time>
  <course>265.7</course>
  <speed>0.0</speed>
  <fix>3d</fix>
</trkpt>
<trkpt lat="-27.2737711" lon="151.2899054">
  <ele>343.0</ele>
  <time>2026-09-01T19:58:25Z</time>
  <course>106.14</course>
  <speed>0.0316227766016838</speed>
  <fix>3d</fix>
</trkpt>
<trkpt lat="-27.273771" lon="151.2899057">
  <ele>343.08</ele>
  <time>2026-09-01T19:58:25Z</time>
  <course>265.7</course>
  <speed>0.0</speed>
  <fix>3d</fix>
</trkpt>
<trkpt lat="-27.2737711" lon="151.2899054">
  <ele>343.0</ele>
  <time>2026-09-01T19:58:25Z</time>
  <course>106.14</course>
  <speed>0.0316227766016838</speed>
  <fix>3d</fix>
</trkpt>
<trkpt lat="-27.273771" lon="151.2899057">
  <ele>343.08</ele>
  <time>2026-09-01T19:58:25Z</time>
  <course>267.56</course>
  <speed>0.0</speed>
  <fix>3d</fix>
</trkpt>
<trkpt lat="-27.2737711" lon="151.2899054">
  <ele>343.0</ele>
  <time>2026-09-01T19:58:25Z</time>
  <course>106.14</course>
  <speed>0.0316227766016838</speed>
  <fix>3d</fix>
</trkpt>
<trkpt lat="-27.273771" lon="151.2899057">
  <ele>343.08</ele>
  <time>2026-09-01T19:58:25Z</time>
  <course>267.56</course>
  <speed>0.0</speed>
  <fix>3d</fix>
</trkpt>
<trkpt lat="-27.2737711" lon="151.2899054">
  <ele>343.0</ele>
  <time>2026-09-01T19:58:25Z</time>
  <course>106.14</course>
  <speed>0.0316227766016838</speed>
  <fix>3d</fix>
</trkpt>
<trkpt lat="-27.273771" lon="151.2899057">
  <ele>343.08</ele>
  <time>2026-09-01T19:58:25Z</time>
  <course>266.49</course>
  <speed>0.0</speed>
  <fix>3d</fix>
</trkpt>
<trkpt lat="-27.2737711" lon="151.2899054">
  <ele>343.0</ele>
  <time>2026-09-01T19:58:25Z</time>
  <course>106.14</course>
  <speed>0.0316227766016838</speed>
  <fix>3d</fix>
</trkpt>
<trkpt lat="-27.273771" lon="151.2899057">
  <ele>343.08</ele>
  <time>2026-09-01T19:58:25Z</time>
  <course>266.49</course>
  <speed>0.0</speed>
  <fix>3d</fix>
</trkpt>
<trkpt lat="-27.2737711" lon="151.2899054">
  <ele>343.0</ele>
  <time>2026-09-01T19:58:25Z</time>
  <course>106.14</course>
  <speed>0.0316227766016838</speed>
  <fix>3d</fix>
</trkpt>
<trkpt lat="-27.273771" lon="151.2899057">
  <ele>343.08</ele>
  <time>2026-09-01T19:58:25Z</time>
  <course>262.29</course>
  <speed>0.0</speed>
  <fix>3d</fix>
</trkpt>
<trkpt lat="-27.2737711" lon="151.2899054">
  <ele>343.0</ele>
  <time>2026-09-01T19:58:25Z</time>
  <course>106.14</course>
  <speed>0.0316227766016838</speed>
  <fix>3d</fix>
</trkpt>
<trkpt lat="-27.273771" lon="151.2899057">
  <ele>343.08</ele>
  <time>2026-09-01T19:58:25Z</time>
  <course>262.29</course>
  <speed>0.0</speed>
  <fix>3d</fix>
</trkpt>
<trkpt lat="-27.2737711" lon="151.2899054">
  <ele>343.0</ele>
  <time>2026-09-01T19:58:25Z</time>
  <course>106.14</course>
  <speed>0.0316227766016838</speed>
  <fix>3d</fix>
</trkpt>
<trkpt lat="-27.273771" lon="151.2899057">
  <ele>343.08</ele>
  <time>2026-09-01T19:58:25Z</time>
  <course>41.89</course>
  <speed>0.0</speed>
  <fix>3d</fix>
</trkpt>
<trkpt lat="-27.2737711" lon="151.2899054">
  <ele>343.0</ele>
  <time>2026-09-01T19:58:25Z</time>
  <course>106.14</course>
  <speed>0.0316227766016838</speed>
  <fix>3d</fix>
</trkpt>
<trkpt lat="-27.273771" lon="151.2899057">
  <ele>343.08</ele>
  <time>2026-09-01T19:58:25Z</time>
  <course>41.89</course>
  <speed>0.0</speed>
  <fix>3d</fix>
</trkpt>
<trkpt lat="-27.2737711" lon="151.2899054">
  <ele>343.0</ele>
  <time>2026-09-01T19:58:25Z</time>
  <course>106.15</course>
  <speed>0.0316227766016838</speed>
  <fix>3d</fix>
</trkpt>
<trkpt lat="-27.273771" lon="151.2899057">
  <ele>343.08</ele>
  <time>2026-09-01T19:58:25Z</time>
  <course>42.48</course>
  <speed>0.0</speed>
  <fix>3d</fix>
</trkpt>
<trkpt lat="-27.2737711" lon="151.2899054">
  <ele>343.0</ele>
  <time>2026-09-01T19:58:25Z</time>
  <course>106.15</course>
  <speed>0.0316227766016838</speed>
  <fix>3d</fix>
</trkpt>
<trkpt lat="-27.273771" lon="151.2899057">
  <ele>343.08</ele>
  <time>2026-09-01T19:58:25Z</time>
  <course>42.48</course>
  <speed>0.0</speed>
  <fix>3d</fix>
</trkpt>
<trkpt lat="-27.2737711" lon="151.2899054">
  <ele>343.0</ele>
  <time>2026-09-01T19:58:25Z</time>
  <course>106.15</course>
  <speed>0.0316227766016838</speed>
  <fix>3d</fix>
</trkpt>
<trkpt lat="-27.273771" lon="151.2899057">
  <ele>343.08</ele>
  <time>2026-09-01T19:58:25Z</time>
  <course>216.35</course>
  <speed>0.0</speed>
  <fix>3d</fix>
</trkpt>
<trkpt lat="-27.2737711" lon="151.2899054">
  <ele>343.0</ele>
  <time>2026-09-01T19:58:25Z</time>
  <course>106.15</course>
  <speed>0.0316227766016838</speed>
  <fix>3d</fix>
</trkpt>
<trkpt lat="-27.273771" lon="151.2899057">
  <ele>343.08</ele>
  <time>2026-09-01T19:58:25Z</time>
  <course>216.35</course>
  <speed>0.0</speed>
  <fix>3d</fix>
</trkpt>
<trkpt lat="-27.2737711" lon="151.2899054">
  <ele>343.0</ele>
  <time>2026-09-01T19:58:25Z</time>
  <course>106.16</course>
  <speed>0.0316227766016838</speed>
  <fix>3d</fix>
</trkpt>
<trkpt lat="-27.273771" lon="151.2899057">
  <ele>343.08</ele>
  <time>2026-09-01T19:58:25Z</time>
  <course>222.53</course>
  <speed>0.0</speed>
  <fix>3d</fix>
</trkpt>
<trkpt lat="-27.2737711" lon="151.2899054">
  <ele>343.0</ele>
  <time>2026-09-01T19:58:25Z</time>
  <course>106.16</course>
  <speed>0.0316227766016838</speed>
  <fix>3d</fix>
</trkpt>
<trkpt lat="-27.273771" lon="151.2899057">
  <ele>343.08</ele>
  <time>2026-09-01T19:58:25Z</time>
  <course>222.53</course>
  <speed>0.0</speed>
  <fix>3d</fix>
</trkpt>
<trkpt lat="-27.2737711" lon="151.2899055">
  <ele>343.0</ele>
  <time>2026-09-01T19:58:25Z</time>
  <course>106.16</course>
  <speed>0.0316227766016838</speed>
  <fix>3d</fix>
</trkpt>
<trkpt lat="-27.273771" lon="151.2899057">
  <ele>343.08</ele>
  <time>2026-09-01T19:58:25Z</time>
  <course>42.11</course>
  <speed>0.0</speed>
  <fix>3d</fix>
</trkpt>
<trkpt lat="-27.2737711" lon="151.2899054">
  <ele>343.0</ele>
  <time>2026-09-01T19:58:25Z</time>
  <course>106.16</course>
  <speed>0.0316227766016838</speed>
  <fix>3d</fix>
</trkpt>
<trkpt lat="-27.273771" lon="151.2899057">
  <ele>343.08</ele>
  <time>2026-09-01T19:58:25Z</time>
  <course>42.11</course>
  <speed>0.0</speed>
  <fix>3d</fix>
</trkpt>
<trkpt lat="-27.2737711" lon="151.2899055">
  <ele>343.0</ele>
  <time>2026-09-01T19:58:25Z</time>
  <course>106.17</course>
  <speed>0.022360679774997897</speed>
  <fix>3d</fix>
</trkpt>
<trkpt lat="-27.273771" lon="151.2899057">
  <ele>343.08</ele>
  <time>2026-09-01T19:58:25Z</time>
  <course>42.58</course>
  <speed>0.0</speed>
  <fix>3d</fix>
</trkpt>
<trkpt lat="-27.2737711" lon="151.2899054">
  <ele>343.0</ele>
  <time>2026-09-01T19:58:25Z</time>
  <course>106.17</course>
  <speed>0.0316227766016838</speed>
  <fix>3d</fix>
</trkpt>
<trkpt lat="-27.273771" lon="151.2899057">
  <ele>343.08</ele>
  <time>2026-09-01T19:58:25Z</time>
  <course>42.58</course>
  <speed>0.0</speed>
  <fix>3d</fix>
</trkpt>
<trkpt lat="-27.2737711" lon="151.2899055">
  <ele>343.0</ele>
  <time>2026-09-01T19:58:25Z</time>
  <course>106.17</course>
  <speed>0.022360679774997897</speed>
  <fix>3d</fix>
</trkpt>
<trkpt lat="-27.273771" lon="151.2899057">
  <ele>343.08</ele>
  <time>2026-09-01T19:58:25Z</time>
  <course>222.33</course>
  <speed>0.0</speed>
  <fix>3d</fix>
</trkpt>
<trkpt lat="-27.2737711" lon="151.2899054">
  <ele>343.0</ele>
  <time>2026-09-01T19:58:25Z</time>
  <course>106.17</course>
  <speed>0.022360679774997897</speed>
  <fix>3d</fix>
</trkpt>
<trkpt lat="-27.273771" lon="151.2899057">
  <ele>343.08</ele>
  <time>2026-09-01T19:58:25Z</time>
  <course>222.33</course>
  <speed>0.0</speed>
  <fix>3d</fix>
</trkpt>
<trkpt lat="-27.2737711" lon="151.2899055">
  <ele>343.0</ele>
  <time>2026-09-01T19:58:25Z</time>
  <course>106.18</course>
  <speed>0.022360679774997897</speed>
  <fix>3d</fix>
</trkpt>
<trkpt lat="-27.273771" lon="151.2899057">
  <ele>343.08</ele>
  <time>2026-09-01T19:58:25Z</time>
  <course>222.66</course>
  <speed>0.0</speed>
  <fix>3d</fix>
</trkpt>
<trkpt lat="-27.2737711" lon="151.2899055">
  <ele>343.0</ele>
  <time>2026-09-01T19:58:25Z</time>
  <course>106.18</course>
  <speed>0.022360679774997897</speed>
  <fix>3d</fix>
</trkpt>
<trkpt lat="-27.273771" lon="151.2899057">
  <ele>343.08</ele>
  <time>2026-09-01T19:58:25Z</time>
  <course>222.66</course>
  <speed>0.0</speed>
  <fix>3d</fix>
</trkpt>
<trkpt lat="-27.2737711" lon="151.2899055">
  <ele>342.99</ele>
  <time>2026-09-01T19:58:25Z</time>
  <course>106.18</course>
  <speed>0.022360679774997897</speed>
  <fix>3d</fix>
</trkpt>
<trkpt lat="-27.273771" lon="151.2899057">
  <ele>343.08</ele>
  <time>2026-09-01T19:58:25Z</time>
  <course>42.41</course>
  <speed>0.0</speed>
  <fix>3d</fix>
</trkpt>
<trkpt lat="-27.2737711" lon="151.2899055">
  <ele>342.99</ele>
  <time>2026-09-01T19:58:25Z</time>
  <course>106.18</course>
  <speed>0.022360679774997897</speed>
  <fix>3d</fix>
</trkpt>
<trkpt lat="-27.273771" lon="151.2899057">
  <ele>343.08</ele>
  <time>2026-09-01T19:58:25Z</time>
  <course>42.41</course>
  <speed>0.0</speed>
  <fix>3d</fix>
</trkpt>
<trkpt lat="-27.2737711" lon="151.2899055">
  <ele>342.98</ele>
  <time>2026-09-01T19:58:25Z</time>
  <course>106.19</course>
  <speed>0.022360679774997897</speed>
  <fix>3d</fix>
</trkpt>
<trkpt lat="-27.273771" lon="151.2899057">
  <ele>343.08</ele>
  <time>2026-09-01T19:58:25Z</time>
  <course>42.84</course>
  <speed>0.0</speed>
  <fix>3d</fix>
</trkpt>
<trkpt lat="-27.2737711" lon="151.2899055">
  <ele>342.98</ele>
  <time>2026-09-01T19:58:25Z</time>
  <course>106.19</course>
  <speed>0.022360679774997897</speed>
  <fix>3d</fix>
</trkpt>
<trkpt lat="-27.273771" lon="151.2899057">
  <ele>343.08</ele>
  <time>2026-09-01T19:58:25Z</time>
  <course>42.84</course>
  <speed>0.0</speed>
  <fix>3d</fix>
</trkpt>
<trkpt lat="-27.2737711" lon="151.2899055">
  <ele>342.99</ele>
  <time>2026-09-01T19:58:25Z</time>
  <course>106.19</course>
  <speed>0.022360679774997897</speed>
  <fix>3d</fix>
</trkpt>
<trkpt lat="-27.273771" lon="151.2899057">
  <ele>343.08</ele>
  <time>2026-09-01T19:58:25Z</time>
  <course>222.47</course>
  <speed>0.0</speed>
  <fix>3d</fix>
</trkpt>
<trkpt lat="-27.2737711" lon="151.2899055">
  <ele>342.99</ele>
  <time>2026-09-01T19:58:25Z</time>
  <course>106.2</course>
  <speed>0.022360679774997897</speed>
  <fix>3d</fix>
</trkpt>
<trkpt lat="-27.273771" lon="151.2899057">
  <ele>343.08</ele>
  <time>2026-09-01T19:58:25Z</time>
  <course>222.47</course>
  <speed>0.0</speed>
  <fix>3d</fix>
</trkpt>
<trkpt lat="-27.2737711" lon="151.2899055">
  <ele>342.99</ele>
  <time>2026-09-01T19:58:25Z</time>
  <course>106.2</course>
  <speed>0.022360679774997897</speed>
  <fix>3d</fix>
</trkpt>
<trkpt lat="-27.273771" lon="151.2899057">
  <ele>343.08</ele>
  <time>2026-09-01T19:58:25Z</time>
  <course>224.45</course>
  <speed>0.0</speed>
  <fix>3d</fix>
</trkpt>
<trkpt lat="-27.2737711" lon="151.2899055">
  <ele>342.99</ele>
  <time>2026-09-01T19:58:25Z</time>
  <course>106.2</course>
  <speed>0.022360679774997897</speed>
  <fix>3d</fix>
</trkpt>
<trkpt lat="-27.273771" lon="151.2899057">
  <ele>343.08</ele>
  <time>2026-09-01T19:58:25Z</time>
  <course>224.45</course>
  <speed>0.0</speed>
  <fix>3d</fix>
</trkpt>
<trkpt lat="-27.2737711" lon="151.2899055">
  <ele>342.99</ele>
  <time>2026-09-01T19:58:25Z</time>
  <course>106.2</course>
  <speed>0.022360679774997897</speed>
  <fix>3d</fix>
</trkpt>
<trkpt lat="-27.273771" lon="151.2899057">
  <ele>343.08</ele>
  <time>2026-09-01T19:58:25Z</time>
  <course>42.52</course>
  <speed>0.0</speed>
  <fix>3d</fix>
</trkpt>
<trkpt lat="-27.2737711" lon="151.2899055">
  <ele>342.99</ele>
  <time>2026-09-01T19:58:25Z</time>
  <course>106.21</course>
  <speed>0.022360679774997897</speed>
  <fix>3d</fix>
</trkpt>
<trkpt lat="-27.273771" lon="151.2899057">
  <ele>343.08</ele>
  <time>2026-09-01T19:58:25Z</time>
  <course>42.52</course>
  <speed>0.0</speed>
  <fix>3d</fix>
</trkpt>
<trkpt lat="-27.2737711" lon="151.2899055">
  <ele>342.99</ele>
  <time>2026-09-01T19:58:25Z</time>
  <course>106.21</course>
  <speed>0.022360679774997897</speed>
  <fix>3d</fix>
</trkpt>
<trkpt lat="-27.273771" lon="151.2899057">
  <ele>343.08</ele>
  <time>2026-09-01T19:58:25Z</time>
  <course>221.95</course>
  <speed>0.0</speed>
  <fix>3d</fix>
</trkpt>
<trkpt lat="-27.2737711" lon="151.2899055">
  <ele>342.98</ele>
  <time>2026-09-01T19:58:25Z</time>
  <course>106.21</course>
  <speed>0.022360679774997897</speed>
  <fix>3d</fix>
</trkpt>
<trkpt lat="-27.273771" lon="151.2899057">
  <ele>343.08</ele>
  <time>2026-09-01T19:58:25Z</time>
  <course>221.95</course>
  <speed>0.0</speed>
  <fix>3d</fix>
</trkpt>
<trkpt lat="-27.2737711" lon="151.2899055">
  <ele>342.98</ele>
  <time>2026-09-01T19:58:25Z</time>
  <course>106.21</course>
  <speed>0.022360679774997897</speed>
  <fix>3d</fix>
</trkpt>
<trkpt lat="-27.273771" lon="151.2899057">
  <ele>343.08</ele>
  <time>2026-09-01T19:58:25Z</time>
  <course>222.57</course>
  <speed>0.0</speed>
  <fix>3d</fix>
</trkpt>
<trkpt lat="-27.2737711" lon="151.2899055">
  <ele>342.98</ele>
  <time>2026-09-01T19:58:25Z</time>
  <course>106.22</course>
  <speed>0.022360679774997897</speed>
  <fix>3d</fix>
</trkpt>
<trkpt lat="-27.273771" lon="151.2899057">
  <ele>343.08</ele>
  <time>2026-09-01T19:58:25Z</time>
  <course>222.57</course>
  <speed>0.0</speed>
  <fix>3d</fix>
</trkpt>
<trkpt lat="-27.2737711" lon="151.2899055">
  <ele>342.98</ele>
  <time>2026-09-01T19:58:25Z</time>
  <course>106.22</course>
  <speed>0.022360679774997897</speed>
  <fix>3d</fix>
</trkpt>
<trkpt lat="-27.273771" lon="151.2899057">
  <ele>343.08</ele>
  <time>2026-09-01T19:58:25Z</time>
  <course>42.28</course>
  <speed>0.0</speed>
  <fix>3d</fix>
</trkpt>
<trkpt lat="-27.2737711" lon="151.2899055">
  <ele>342.98</ele>
  <time>2026-09-01T19:58:25Z</time>
  <course>106.22</course>
  <speed>0.022360679774997897</speed>
  <fix>3d</fix>
</trkpt>
<trkpt lat="-27.273771" lon="151.2899057">
  <ele>343.08</ele>
  <time>2026-09-01T19:58:25Z</time>
  <course>42.28</course>
  <speed>0.0</speed>
  <fix>3d</fix>
</trkpt>
<trkpt lat="-27.2737711" lon="151.2899055">
  <ele>342.97</ele>
  <time>2026-09-01T19:58:25Z</time>
  <course>106.24</course>
  <speed>0.022360679774997897</speed>
  <fix>3d</fix>
</trkpt>
<trkpt lat="-27.273771" lon="151.2899057">
  <ele>343.08</ele>
  <time>2026-09-01T19:58:25Z</time>
  <course>222.39</course>
  <speed>0.0</speed>
  <fix>3d</fix>
</trkpt>
<trkpt lat="-27.2737711" lon="151.2899055">
  <ele>342.98</ele>
  <time>2026-09-01T19:58:25Z</time>
  <course>106.25</course>
  <speed>0.022360679774997897</speed>
  <fix>3d</fix>
</trkpt>
<trkpt lat="-27.273771" lon="151.2899057">
  <ele>343.08</ele>
  <time>2026-09-01T19:58:25Z</time>
  <course>42.46</course>
  <speed>0.0</speed>
  <fix>3d</fix>
</trkpt>
<trkpt lat="-27.2737711" lon="151.2899055">
  <ele>342.98</ele>
  <time>2026-09-01T19:58:25Z</time>
  <course>106.25</course>
  <speed>0.022360679774997897</speed>
  <fix>3d</fix>
</trkpt>
<trkpt lat="-27.273771" lon="151.2899057">
  <ele>343.08</ele>
  <time>2026-09-01T19:58:25Z</time>
  <course>43.44</course>
  <speed>0.0</speed>
  <fix>3d</fix>
</trkpt>
<trkpt lat="-27.2737711" lon="151.2899055">
  <ele>342.98</ele>
  <time>2026-09-01T19:58:25Z</time>
  <course>106.25</course>
  <speed>0.022360679774997897</speed>
  <fix>3d</fix>
</trkpt>
<trkpt lat="-27.273771" lon="151.2899057">
  <ele>343.08</ele>
  <time>2026-09-01T19:58:25Z</time>
  <course>43.44</course>
  <speed>0.0</speed>
  <fix>3d</fix>
</trkpt>
<trkpt lat="-27.2737711" lon="151.2899055">
  <ele>342.99</ele>
  <time>2026-09-01T19:58:25Z</time>
  <course>106.26</course>
  <speed>0.022360679774997897</speed>
  <fix>3d</fix>
</trkpt>
<trkpt lat="-27.273771" lon="151.2899057">
  <ele>343.08</ele>
  <time>2026-09-01T19:58:25Z</time>
  <course>222.53</course>
  <speed>0.0</speed>
  <fix>3d</fix>
</trkpt>
<trkpt lat="-27.2737711" lon="151.2899055">
  <ele>342.99</ele>
  <time>2026-09-01T19:58:25Z</time>
  <course>106.26</course>
  <speed>0.022360679774997897</speed>
  <fix>3d</fix>
</trkpt>
<trkpt lat="-27.273771" lon="151.2899057">
  <ele>343.08</ele>
  <time>2026-09-01T19:58:25Z</time>
  <course>222.53</course>
  <speed>0.0</speed>
  <fix>3d</fix>
</trkpt>
<trkpt lat="-27.2737711" lon="151.2899055">
  <ele>342.99</ele>
  <time>2026-09-01T19:58:25Z</time>
  <course>106.26</course>
  <speed>0.022360679774997897</speed>
  <fix>3d</fix>
</trkpt>
<trkpt lat="-27.273771" lon="151.2899057">
  <ele>343.08</ele>
  <time>2026-09-01T19:58:25Z</time>
  <course>40.05</course>
  <speed>0.0</speed>
  <fix>3d</fix>
</trkpt>
<trkpt lat="-27.2737711" lon="151.2899055">
  <ele>342.99</ele>
  <time>2026-09-01T19:58:25Z</time>
  <course>106.27</course>
  <speed>0.022360679774997897</speed>
  <fix>3d</fix>
</trkpt>
<trkpt lat="-27.273771" lon="151.2899057">
  <ele>343.08</ele>
  <time>2026-09-01T19:58:25Z</time>
  <course>40.05</course>
  <speed>0.0</speed>
  <fix>3d</fix>
</trkpt>
<trkpt lat="-27.2737711" lon="151.2899055">
  <ele>342.99</ele>
  <time>2026-09-01T19:58:25Z</time>
  <course>106.27</course>
  <speed>0.022360679774997897</speed>
  <fix>3d</fix>
</trkpt>
<trkpt lat="-27.273771" lon="151.2899057">
  <ele>343.08</ele>
  <time>2026-09-01T19:58:25Z</time>
  <course>40.91</course>
  <speed>0.0</speed>
  <fix>3d</fix>
</trkpt>
<trkpt lat="-27.2737711" lon="151.2899055">
  <ele>342.99</ele>
  <time>2026-09-01T19:58:25Z</time>
  <course>106.27</course>
  <speed>0.022360679774997897</speed>
  <fix>3d</fix>
</trkpt>
<trkpt lat="-27.273771" lon="151.2899057">
  <ele>343.08</ele>
  <time>2026-09-01T19:58:25Z</time>
  <course>40.91</course>
  <speed>0.0</speed>
  <fix>3d</fix>
</trkpt>
<trkpt lat="-27.2737711" lon="151.2899055">
  <ele>342.99</ele>
  <time>2026-09-01T19:58:25Z</time>
  <course>106.28</course>
  <speed>0.022360679774997897</speed>
  <fix>3d</fix>
</trkpt>
<trkpt lat="-27.273771" lon="151.2899057">
  <ele>343.08</ele>
  <time>2026-09-01T19:58:25Z</time>
  <course>229.53</course>
  <speed>0.0</speed>
  <fix>3d</fix>
</trkpt>
<trkpt lat="-27.2737711" lon="151.2899055">
  <ele>342.99</ele>
  <time>2026-09-01T19:58:25Z</time>
  <course>106.28</course>
  <speed>0.022360679774997897</speed>
  <fix>3d</fix>
</trkpt>
<trkpt lat="-27.273771" lon="151.2899057">
  <ele>343.08</ele>
  <time>2026-09-01T19:58:25Z</time>
  <course>229.53</course>
  <speed>0.0</speed>
  <fix>3d</fix>
</trkpt>
<trkpt lat="-27.2737711" lon="151.2899055">
  <ele>342.99</ele>
  <time>2026-09-01T19:58:25Z</time>
  <course>106.28</course>
  <speed>0.022360679774997897</speed>
  <fix>3d</fix>
</trkpt>
<trkpt lat="-27.273771" lon="151.2899057">
  <ele>343.08</ele>
  <time>2026-09-01T19:58:25Z</time>
  <course>221.12</course>
  <speed>0.0</speed>
  <fix>3d</fix>
</trkpt>
<trkpt lat="-27.2737711" lon="151.2899055">
  <ele>342.99</ele>
  <time>2026-09-01T19:58:25Z</time>
  <course>106.29</course>
  <speed>0.022360679774997897</speed>
  <fix>3d</fix>
</trkpt>
<trkpt lat="-27.273771" lon="151.2899057">
  <ele>343.08</ele>
  <time>2026-09-01T19:58:25Z</time>
  <course>221.12</course>
  <speed>0.0</speed>
  <fix>3d</fix>
</trkpt>
<trkpt lat="-27.2737711" lon="151.2899055">
  <ele>342.99</ele>
  <time>2026-09-01T19:58:25Z</time>
  <course>106.29</course>
  <speed>0.022360679774997897</speed>
  <fix>3d</fix>
</trkpt>
<trkpt lat="-27.273771" lon="151.2899057">
  <ele>343.08</ele>
  <time>2026-09-01T19:58:25Z</time>
  <course>216.21</course>
  <speed>0.0</speed>
  <fix>3d</fix>
</trkpt>
<trkpt lat="-27.2737711" lon="151.2899055">
  <ele>343.0</ele>
  <time>2026-09-01T19:58:25Z</time>
  <course>106.29</course>
  <speed>0.022360679774997897</speed>
  <fix>3d</fix>
</trkpt>
<trkpt lat="-27.273771" lon="151.2899057">
  <ele>343.08</ele>
  <time>2026-09-01T19:58:25Z</time>
  <course>216.21</course>
  <speed>0.0</speed>
  <fix>3d</fix>
</trkpt>
<trkpt lat="-27.2737711" lon="151.2899055">
  <ele>343.0</ele>
  <time>2026-09-01T19:58:25Z</time>
  <course>106.3</course>
  <speed>0.022360679774997897</speed>
  <fix>3d</fix>
</trkpt>
<trkpt lat="-27.273771" lon="151.2899057">
  <ele>343.08</ele>
  <time>2026-09-01T19:58:25Z</time>
  <course>215.55</course>
  <speed>0.0</speed>
  <fix>3d</fix>
</trkpt>
<trkpt lat="-27.2737711" lon="151.2899055">
  <ele>342.99</ele>
  <time>2026-09-01T19:58:25Z</time>
  <course>106.3</course>
  <speed>0.022360679774997897</speed>
  <fix>3d</fix>
</trkpt>
<trkpt lat="-27.273771" lon="151.2899057">
  <ele>343.08</ele>
  <time>2026-09-01T19:58:25Z</time>
  <course>215.55</course>
  <speed>0.0</speed>
  <fix>3d</fix>
</trkpt>
<trkpt lat="-27.2737711" lon="151.2899055">
  <ele>342.99</ele>
  <time>2026-09-01T19:58:25Z</time>
  <course>106.3</course>
  <speed>0.022360679774997897</speed>
  <fix>3d</fix>
</trkpt>
<trkpt lat="-27.273771" lon="151.2899057">
  <ele>343.08</ele>
  <time>2026-09-01T19:58:25Z</time>
  <course>215.46</course>
  <speed>0.0</speed>
  <fix>3d</fix>
</trkpt>
<trkpt lat="-27.2737711" lon="151.2899055">
  <ele>343.0</ele>
  <time>2026-09-01T19:58:25Z</time>
  <course>106.31</course>
  <speed>0.022360679774997897</speed>
  <fix>3d</fix>
</trkpt>
<trkpt lat="-27.273771" lon="151.2899057">
  <ele>343.08</ele>
  <time>2026-09-01T19:58:25Z</time>
  <course>215.46</course>
  <speed>0.0</speed>
  <fix>3d</fix>
</trkpt>
<trkpt lat="-27.2737711" lon="151.2899055">
  <ele>343.08</ele>
  <time>2026-09-01T19:58:25Z</time>
  <course>106.31</course>
  <speed>0.022360679774997897</speed>
  <fix>3d</fix>
</trkpt>
<trkpt lat="-27.273771" lon="151.2899057">
  <ele>343.08</ele>
  <time>2026-09-01T19:58:25Z</time>
  <course>215.45</course>
  <speed>0.0</speed>
  <fix>3d</fix>
</trkpt>
<trkpt lat="-27.2737711" lon="151.2899055">
  <ele>343.07</ele>
  <time>2026-09-01T19:58:25Z</time>
  <course>106.31</course>
  <speed>0.022360679774997897</speed>
  <fix>3d</fix>
</trkpt>
<trkpt lat="-27.273771" lon="151.2899057">
  <ele>343.08</ele>
  <time>2026-09-01T19:58:25Z</time>
  <course>215.45</course>
  <speed>0.0</speed>
  <fix>3d</fix>
</trkpt>
<trkpt lat="-27.2737711" lon="151.2899055">
  <ele>343.07</ele>
  <time>2026-09-01T19:58:25Z</time>
  <course>106.32</course>
  <speed>0.022360679774997897</speed>
  <fix>3d</fix>
</trkpt>
<trkpt lat="-27.273771" lon="151.2899057">
  <ele>343.08</ele>
  <time>2026-09-01T19:58:25Z</time>
  <course>215.45</course>
  <speed>0.0</speed>
  <fix>3d</fix>
</trkpt>
<trkpt lat="-27.2737711" lon="151.2899055">
  <ele>343.08</ele>
  <time>2026-09-01T19:58:25Z</time>
  <course>106.32</course>
  <speed>0.022360679774997897</speed>
  <fix>3d</fix>
</trkpt>
<trkpt lat="-27.273771" lon="151.2899057">
  <ele>343.08</ele>
  <time>2026-09-01T19:58:25Z</time>
  <course>215.45</course>
  <speed>0.0</speed>
  <fix>3d</fix>
</trkpt>
<trkpt lat="-27.2737711" lon="151.2899055">
  <ele>343.08</ele>
  <time>2026-09-01T19:58:25Z</time>
  <course>106.33</course>
  <speed>0.022360679774997897</speed>
  <fix>3d</fix>
</trkpt>
<trkpt lat="-27.273771" lon="151.2899057">
  <ele>343.08</ele>
  <time>2026-09-01T19:58:25Z</time>
  <course>215.45</course>
  <speed>0.0</speed>
  <fix>3d</fix>
</trkpt>
<trkpt lat="-27.2737711" lon="151.2899055">
  <ele>343.08</ele>
  <time>2026-09-01T19:58:25Z</time>
  <course>106.33</course>
  <speed>0.022360679774997897</speed>
  <fix>3d</fix>
</trkpt>
<trkpt lat="-27.273771" lon="151.2899057">
  <ele>343.08</ele>
  <time>2026-09-01T19:58:25Z</time>
  <course>215.45</course>
  <speed>0.0</speed>
  <fix>3d</fix>
</trkpt>
<trkpt lat="-27.2737711" lon="151.2899055">
  <ele>343.08</ele>
  <time>2026-09-01T19:58:25Z</time>
  <course>106.33</course>
  <speed>0.022360679774997897</speed>
  <fix>3d</fix>
</trkpt>
<trkpt lat="-27.273771" lon="151.2899057">
  <ele>343.08</ele>
  <time>2026-09-01T19:58:25Z</time>
  <course>215.45</course>
  <speed>0.0</speed>
  <fix>3d</fix>
</trkpt>
<trkpt lat="-27.2737711" lon="151.2899055">
  <ele>343.09</ele>
  <time>2026-09-01T19:58:25Z</time>
  <course>106.34</course>
  <speed>0.022360679774997897</speed>
  <fix>3d</fix>
</trkpt>
<trkpt lat="-27.273771" lon="151.2899057">
  <ele>343.08</ele>
  <time>2026-09-01T19:58:25Z</time>
  <course>215.45</course>
  <speed>0.0</speed>
  <fix>3d</fix>
</trkpt>
<trkpt lat="-27.2737711" lon="151.2899055">
  <ele>343.09</ele>
  <time>2026-09-01T19:58:25Z</time>
  <course>106.34</course>
  <speed>0.022360679774997897</speed>
  <fix>3d</fix>
</trkpt>
<trkpt lat="-27.273771" lon="151.2899057">
  <ele>343.08</ele>
  <time>2026-09-01T19:58:25Z</time>
  <course>215.45</course>
  <speed>0.0</speed>
  <fix>3d</fix>
</trkpt>
<trkpt lat="-27.2737711" lon="151.2899055">
  <ele>343.09</ele>
  <time>2026-09-01T19:58:25Z</time>
  <course>106.34</course>
  <speed>0.022360679774997897</speed>
  <fix>3d</fix>
</trkpt>
<trkpt lat="-27.273771" lon="151.2899057">
  <ele>343.08</ele>
  <time>2026-09-01T19:58:25Z</time>
  <course>215.45</course>
  <speed>0.0</speed>
  <fix>3d</fix>
</trkpt>
<trkpt lat="-27.2737711" lon="151.2899055">
  <ele>343.09</ele>
  <time>2026-09-01T19:58:25Z</time>
  <course>106.35</course>
  <speed>0.022360679774997897</speed>
  <fix>3d</fix>
</trkpt>
<trkpt lat="-27.273771" lon="151.2899057">
  <ele>343.08</ele>
  <time>2026-09-01T19:58:25Z</time>
  <course>215.45</course>
  <speed>0.0</speed>
  <fix>3d</fix>
</trkpt>
<trkpt lat="-27.2737711" lon="151.2899055">
  <ele>343.09</ele>
  <time>2026-09-01T19:58:25Z</time>
  <course>106.35</course>
  <speed>0.022360679774997897</speed>
  <fix>3d</fix>
</trkpt>
<trkpt lat="-27.273771" lon="151.2899057">
  <ele>343.08</ele>
  <time>2026-09-01T19:58:25Z</time>
  <course>215.45</course>
  <speed>0.0</speed>
  <fix>3d</fix>
</trkpt>
<trkpt lat="-27.2737711" lon="151.2899055">
  <ele>343.1</ele>
  <time>2026-09-01T19:58:25Z</time>
  <course>106.35</course>
  <speed>0.022360679774997897</speed>
  <fix>3d</fix>
</trkpt>
<trkpt lat="-27.273771" lon="151.2899057">
  <ele>343.08</ele>
  <time>2026-09-01T19:58:25Z</time>
  <course>215.45</course>
  <speed>0.0</speed>
  <fix>3d</fix>
</trkpt>
<trkpt lat="-27.2737711" lon="151.2899055">
  <ele>343.1</ele>
  <time>2026-09-01T19:58:25Z</time>
  <course>106.36</course>
  <speed>0.022360679774997897</speed>
  <fix>3d</fix>
</trkpt>
<trkpt lat="-27.273771" lon="151.2899057">
  <ele>343.08</ele>
  <time>2026-09-01T19:58:25Z</time>
  <course>215.45</course>
  <speed>0.0</speed>
  <fix>3d</fix>
</trkpt>
<trkpt lat="-27.2737711" lon="151.2899055">
  <ele>343.1</ele>
  <time>2026-09-01T19:58:25Z</time>
  <course>106.36</course>
  <speed>0.022360679774997897</speed>
  <fix>3d</fix>
</trkpt>
<trkpt lat="-27.273771" lon="151.2899057">
  <ele>343.08</ele>
  <time>2026-09-01T19:58:25Z</time>
  <course>215.45</course>
  <speed>0.0</speed>
  <fix>3d</fix>
</trkpt>
<trkpt lat="-27.2737711" lon="151.2899055">
  <ele>343.1</ele>
  <time>2026-09-01T19:58:25Z</time>
  <course>106.37</course>
  <speed>0.022360679774997897</speed>
  <fix>3d</fix>
</trkpt>
<trkpt lat="-27.273771" lon="151.2899057">
  <ele>343.08</ele>
  <time>2026-09-01T19:58:25Z</time>
  <course>215.45</course>
  <speed>0.0</speed>
  <fix>3d</fix>
</trkpt>
<trkpt lat="-27.2737711" lon="151.2899055">
  <ele>343.1</ele>
  <time>2026-09-01T19:58:25Z</time>
  <course>106.37</course>
  <speed>0.022360679774997897</speed>
  <fix>3d</fix>
</trkpt>
<trkpt lat="-27.273771" lon="151.2899057">
  <ele>343.08</ele>
  <time>2026-09-01T19:58:25Z</time>
  <course>215.45</course>
  <speed>0.0</speed>
  <fix>3d</fix>
</trkpt>
<trkpt lat="-27.2737711" lon="151.2899055">
  <ele>343.1</ele>
  <time>2026-09-01T19:58:25Z</time>
  <course>106.37</course>
  <speed>0.022360679774997897</speed>
  <fix>3d</fix>
</trkpt>
<trkpt lat="-27.273771" lon="151.2899057">
  <ele>343.08</ele>
  <time>2026-09-01T19:58:25Z</time>
  <course>215.45</course>
  <speed>0.0</speed>
  <fix>3d</fix>
</trkpt>
<trkpt lat="-27.2737711" lon="151.2899055">
  <ele>343.1</ele>
  <time>2026-09-01T19:58:25Z</time>
  <course>106.38</course>
  <speed>0.022360679774997897</speed>
  <fix>3d</fix>
</trkpt>
<trkpt lat="-27.273771" lon="151.2899057">
  <ele>343.08</ele>
  <time>2026-09-01T19:58:25Z</time>
  <course>215.45</course>
  <speed>0.0</speed>
  <fix>3d</fix>
</trkpt>
<trkpt lat="-27.2737711" lon="151.2899055">
  <ele>343.1</ele>
  <time>2026-09-01T19:58:25Z</time>
  <course>106.38</course>
  <speed>0.022360679774997897</speed>
  <fix>3d</fix>
</trkpt>
<trkpt lat="-27.273771" lon="151.2899057">
  <ele>343.08</ele>
  <time>2026-09-01T19:58:25Z</time>
  <course>215.45</course>
  <speed>0.0</speed>
  <fix>3d</fix>
</trkpt>
<trkpt lat="-27.2737711" lon="151.2899055">
  <ele>343.1</ele>
  <time>2026-09-01T19:58:25Z</time>
  <course>106.39</course>
  <speed>0.022360679774997897</speed>
  <fix>3d</fix>
</trkpt>
<trkpt lat="-27.273771" lon="151.2899057">
  <ele>343.08</ele>
  <time>2026-09-01T19:58:25Z</time>
  <course>215.45</course>
  <speed>0.0</speed>
  <fix>3d</fix>
</trkpt>
<trkpt lat="-27.2737711" lon="151.2899055">
  <ele>343.1</ele>
  <time>2026-09-01T19:58:25Z</time>
  <course>106.39</course>
  <speed>0.022360679774997897</speed>
  <fix>3d</fix>
</trkpt>
<trkpt lat="-27.273771" lon="151.2899057">
  <ele>343.08</ele>
  <time>2026-09-01T19:58:25Z</time>
  <course>215.45</course>
  <speed>0.0</speed>
  <fix>3d</fix>
</trkpt>
<trkpt lat="-27.2737711" lon="151.2899055">
  <ele>343.1</ele>
  <time>2026-09-01T19:58:25Z</time>
  <course>106.39</course>
  <speed>0.022360679774997897</speed>
  <fix>3d</fix>
</trkpt>
<trkpt lat="-27.273771" lon="151.2899057">
  <ele>343.08</ele>
  <time>2026-09-01T19:58:25Z</time>
  <course>215.45</course>
  <speed>0.0</speed>
  <fix>3d</fix>
</trkpt>
<trkpt lat="-27.2737711" lon="151.2899055">
  <ele>343.1</ele>
  <time>2026-09-01T19:58:25Z</time>
  <course>106.4</course>
  <speed>0.022360679774997897</speed>
  <fix>3d</fix>
</trkpt>
<trkpt lat="-27.273771" lon="151.2899057">
  <ele>343.08</ele>
  <time>2026-09-01T19:58:25Z</time>
  <course>215.45</course>
  <speed>0.0</speed>
  <fix>3d</fix>
</trkpt>
<trkpt lat="-27.2737711" lon="151.2899055">
  <ele>343.1</ele>
  <time>2026-09-01T19:58:25Z</time>
  <course>106.4</course>
  <speed>0.022360679774997897</speed>
  <fix>3d</fix>
</trkpt>
<trkpt lat="-27.273771" lon="151.2899057">
  <ele>343.08</ele>
  <time>2026-09-01T19:58:25Z</time>
  <course>215.45</course>
  <speed>0.0</speed>
  <fix>3d</fix>
</trkpt>
<trkpt lat="-27.2737711" lon="151.2899055">
  <ele>343.11</ele>
  <time>2026-09-01T19:58:25Z</time>
  <course>106.41</course>
  <speed>0.022360679774997897</speed>
  <fix>3d</fix>
</trkpt>
<trkpt lat="-27.273771" lon="151.2899057">
  <ele>343.08</ele>
  <time>2026-09-01T19:58:25Z</time>
  <course>215.45</course>
  <speed>0.0</speed>
  <fix>3d</fix>
</trkpt>
<trkpt lat="-27.2737711" lon="151.2899055">
  <ele>343.11</ele>
  <time>2026-09-01T19:58:25Z</time>
  <course>106.41</course>
  <speed>0.022360679774997897</speed>
  <fix>3d</fix>
</trkpt>
<trkpt lat="-27.273771" lon="151.2899057">
  <ele>343.08</ele>
  <time>2026-09-01T19:58:25Z</time>
  <course>215.45</course>
  <speed>0.0</speed>
  <fix>3d</fix>
</trkpt>
<trkpt lat="-27.2737711" lon="151.2899055">
  <ele>343.11</ele>
  <time>2026-09-01T19:58:25Z</time>
  <course>106.41</course>
  <speed>0.022360679774997897</speed>
  <fix>3d</fix>
</trkpt>
<trkpt lat="-27.273771" lon="151.2899057">
  <ele>343.08</ele>
  <time>2026-09-01T19:58:25Z</time>
  <course>215.45</course>
  <speed>0.0</speed>
  <fix>3d</fix>
</trkpt>
<trkpt lat="-27.2737711" lon="151.2899055">
  <ele>343.11</ele>
  <time>2026-09-01T19:58:25Z</time>
  <course>106.42</course>
  <speed>0.022360679774997897</speed>
  <fix>3d</fix>
</trkpt>
<trkpt lat="-27.273771" lon="151.2899057">
  <ele>343.08</ele>
  <time>2026-09-01T19:58:25Z</time>
  <course>215.45</course>
  <speed>0.0</speed>
  <fix>3d</fix>
</trkpt>
<trkpt lat="-27.2737711" lon="151.2899055">
  <ele>343.08</ele>
  <time>2026-09-01T19:58:25Z</time>
  <course>106.42</course>
  <speed>0.022360679774997897</speed>
  <fix>3d</fix>
</trkpt>
<trkpt lat="-27.273771" lon="151.2899057">
  <ele>343.08</ele>
  <time>2026-09-01T19:58:25Z</time>
  <course>215.45</course>
  <speed>0.0</speed>
  <fix>3d</fix>
</trkpt>
<trkpt lat="-27.2737711" lon="151.2899055">
  <ele>343.08</ele>
  <time>2026-09-01T19:58:25Z</time>
  <course>106.43</course>
  <speed>0.022360679774997897</speed>
  <fix>3d</fix>
</trkpt>
<trkpt lat="-27.273771" lon="151.2899057">
  <ele>343.08</ele>
  <time>2026-09-01T19:58:25Z</time>
  <course>215.45</course>
  <speed>0.0</speed>
  <fix>3d</fix>
</trkpt>
<trkpt lat="-27.2737711" lon="151.2899055">
  <ele>343.08</ele>
  <time>2026-09-01T19:58:25Z</time>
  <course>106.43</course>
  <speed>0.022360679774997897</speed>
  <fix>3d</fix>
</trkpt>
<trkpt lat="-27.273771" lon="151.2899057">
  <ele>343.08</ele>
  <time>2026-09-01T19:58:25Z</time>
  <course>215.45</course>
  <speed>0.0</speed>
  <fix>3d</fix>
</trkpt>
<trkpt lat="-27.2737711" lon="151.2899055">
  <ele>343.08</ele>
  <time>2026-09-01T19:58:25Z</time>
  <course>106.43</course>
  <speed>0.022360679774997897</speed>
  <fix>3d</fix>
</trkpt>
<trkpt lat="-27.273771" lon="151.2899057">
  <ele>343.08</ele>
  <time>2026-09-01T19:58:25Z</time>
  <course>240.66</course>
  <speed>0.0</speed>
  <fix>3d</fix>
</trkpt>
<trkpt lat="-27.2737711" lon="151.2899055">
  <ele>343.08</ele>
  <time>2026-09-01T19:58:25Z</time>
  <course>106.44</course>
  <speed>0.022360679774997897</speed>
  <fix>3d</fix>
</trkpt>
<trkpt lat="-27.273771" lon="151.2899057">
  <ele>343.08</ele>
  <time>2026-09-01T19:58:25Z</time>
  <course>240.66</course>
  <speed>0.0</speed>
  <fix>3d</fix>
</trkpt>
<trkpt lat="-27.2737711" lon="151.2899055">
  <ele>343.08</ele>
  <time>2026-09-01T19:58:25Z</time>
  <course>106.44</course>
  <speed>0.022360679774997897</speed>
  <fix>3d</fix>
</trkpt>
<trkpt lat="-27.273771" lon="151.2899057">
  <ele>343.08</ele>
  <time>2026-09-01T19:58:25Z</time>
  <course>236.13</course>
  <speed>0.0</speed>
  <fix>3d</fix>
</trkpt>
<trkpt lat="-27.2737711" lon="151.2899055">
  <ele>343.08</ele>
  <time>2026-09-01T19:58:25Z</time>
  <course>106.45</course>
  <speed>0.022360679774997897</speed>
  <fix>3d</fix>
</trkpt>
<trkpt lat="-27.273771" lon="151.2899057">
  <ele>343.08</ele>
  <time>2026-09-01T19:58:25Z</time>
  <course>236.13</course>
  <speed>0.0</speed>
  <fix>3d</fix>
</trkpt>
<trkpt lat="-27.2737711" lon="151.2899055">
  <ele>343.08</ele>
  <time>2026-09-01T19:58:25Z</time>
  <course>106.45</course>
  <speed>0.022360679774997897</speed>
  <fix>3d</fix>
</trkpt>
<trkpt lat="-27.273771" lon="151.2899057">
  <ele>343.08</ele>
  <time>2026-09-01T19:58:25Z</time>
  <course>240.2</course>
  <speed>0.0</speed>
  <fix>3d</fix>
</trkpt>
<trkpt lat="-27.2737711" lon="151.2899055">
  <ele>343.08</ele>
  <time>2026-09-01T19:58:25Z</time>
  <course>106.45</course>
  <speed>0.022360679774997897</speed>
  <fix>3d</fix>
</trkpt>
<trkpt lat="-27.273771" lon="151.2899057">
  <ele>343.08</ele>
  <time>2026-09-01T19:58:25Z</time>
  <course>240.2</course>
  <speed>0.0</speed>
  <fix>3d</fix>
</trkpt>
<trkpt lat="-27.2737711" lon="151.2899055">
  <ele>343.08</ele>
  <time>2026-09-01T19:58:25Z</time>
  <course>106.46</course>
  <speed>0.022360679774997897</speed>
  <fix>3d</fix>
</trkpt>
<trkpt lat="-27.273771" lon="151.2899057">
  <ele>343.08</ele>
  <time>2026-09-01T19:58:25Z</time>
  <course>39.36</course>
  <speed>0.0</speed>
  <fix>3d</fix>
</trkpt>
<trkpt lat="-27.2737711" lon="151.2899055">
  <ele>343.08</ele>
  <time>2026-09-01T19:58:25Z</time>
  <course>106.46</course>
  <speed>0.022360679774997897</speed>
  <fix>3d</fix>
</trkpt>
<trkpt lat="-27.273771" lon="151.2899057">
  <ele>343.08</ele>
  <time>2026-09-01T19:58:25Z</time>
  <course>39.36</course>
  <speed>0.0</speed>
  <fix>3d</fix>
</trkpt>
<trkpt lat="-27.2737711" lon="151.2899055">
  <ele>343.08</ele>
  <time>2026-09-01T19:58:25Z</time>
  <course>106.47</course>
  <speed>0.022360679774997897</speed>
  <fix>3d</fix>
</trkpt>
<trkpt lat="-27.273771" lon="151.2899057">
  <ele>343.08</ele>
  <time>2026-09-01T19:58:25Z</time>
  <course>61.5</course>
  <speed>0.0</speed>
  <fix>3d</fix>
</trkpt>
<trkpt lat="-27.2737711" lon="151.2899055">
  <ele>343.08</ele>
  <time>2026-09-01T19:58:25Z</time>
  <course>106.47</course>
  <speed>0.022360679774997897</speed>
  <fix>3d</fix>
</trkpt>
<trkpt lat="-27.273771" lon="151.2899057">
  <ele>343.08</ele>
  <time>2026-09-01T19:58:25Z</time>
  <course>61.5</course>
  <speed>0.0</speed>
  <fix>3d</fix>
</trkpt>
<trkpt lat="-27.2737711" lon="151.2899055">
  <ele>343.1</ele>
  <time>2026-09-01T19:58:25Z</time>
  <course>106.47</course>
  <speed>0.022360679774997897</speed>
  <fix>3d</fix>
</trkpt>
<trkpt lat="-27.273771" lon="151.2899057">
  <ele>343.08</ele>
  <time>2026-09-01T19:58:25Z</time>
  <course>75.23</course>
  <speed>0.0</speed>
  <fix>3d</fix>
</trkpt>
<trkpt lat="-27.2737711" lon="151.2899055">
  <ele>343.13</ele>
  <time>2026-09-01T19:58:25Z</time>
  <course>106.48</course>
  <speed>0.022360679774997897</speed>
  <fix>3d</fix>
</trkpt>
<trkpt lat="-27.273771" lon="151.2899057">
  <ele>343.08</ele>
  <time>2026-09-01T19:58:25Z</time>
  <course>75.23</course>
  <speed>0.0</speed>
  <fix>3d</fix>
</trkpt>
<trkpt lat="-27.2737711" lon="151.2899055">
  <ele>343.18</ele>
  <time>2026-09-01T19:58:25Z</time>
  <course>106.48</course>
  <speed>0.022360679774997897</speed>
  <fix>3d</fix>
</trkpt>
<trkpt lat="-27.273771" lon="151.2899057">
  <ele>343.09</ele>
  <time>2026-09-01T19:58:25Z</time>
  <course>105.17</course>
  <speed>0.0</speed>
  <fix>3d</fix>
</trkpt>
<trkpt lat="-27.2737711" lon="151.2899055">
  <ele>343.26</ele>
  <time>2026-09-01T19:58:25Z</time>
  <course>106.48</course>
  <speed>0.01414213562373095</speed>
  <fix>3d</fix>
</trkpt>
<trkpt lat="-27.273771" lon="151.2899057">
  <ele>343.09</ele>
  <time>2026-09-01T19:58:25Z</time>
  <course>105.17</course>
  <speed>0.0</speed>
  <fix>3d</fix>
</trkpt>
<trkpt lat="-27.2737711" lon="151.2899055">
  <ele>343.39</ele>
  <time>2026-09-01T19:58:25Z</time>
  <course>106.49</course>
  <speed>0.022360679774997897</speed>
  <fix>3d</fix>
</trkpt>
<trkpt lat="-27.273771" lon="151.2899057">
  <ele>343.18</ele>
  <time>2026-09-01T19:58:25Z</time>
  <course>99.28</course>
  <speed>0.0</speed>
  <fix>3d</fix>
</trkpt>
<trkpt lat="-27.2737711" lon="151.2899055">
  <ele>343.59</ele>
  <time>2026-09-01T19:58:25Z</time>
  <course>106.48</course>
  <speed>0.05830951894845301</speed>
  <fix>3d</fix>
</trkpt>
<trkpt lat="-27.273771" lon="151.2899057">
  <ele>343.18</ele>
  <time>2026-09-01T19:58:25Z</time>
  <course>99.28</course>
  <speed>0.0</speed>
  <fix>3d</fix>
</trkpt>
<trkpt lat="-27.2737711" lon="151.2899056">
  <ele>343.83</ele>
  <time>2026-09-01T19:58:25Z</time>
  <course>106.46</course>
  <speed>0.10770329614269007</speed>
  <fix>3d</fix>
</trkpt>
<trkpt lat="-27.273771" lon="151.2899057">
  <ele>343.4</ele>
  <time>2026-09-01T19:58:25Z</time>
  <course>98.84</course>
  <speed>0.05</speed>
  <fix>3d</fix>
</trkpt>
<trkpt lat="-27.2737711" lon="151.2899057">
  <ele>344.1</ele>
  <time>2026-09-01T19:58:25Z</time>
  <course>106.42</course>
  <speed>0.14866068747318506</speed>
  <fix>3d</fix>
</trkpt>
<trkpt lat="-27.273771" lon="151.2899057">
  <ele>343.4</ele>
  <time>2026-09-01T19:58:25Z</time>
  <course>98.84</course>
  <speed>0.05</speed>
  <fix>3d</fix>
</trkpt>
<trkpt lat="-27.2737712" lon="151.2899059">
  <ele>344.37</ele>
  <time>2026-09-01T19:58:25Z</time>
  <course>106.38</course>
  <speed>0.18973665961010278</speed>
  <fix>3d</fix>
</trkpt>
<trkpt lat="-27.273771" lon="151.2899058">
  <ele>343.82</ele>
  <time>2026-09-01T19:58:25Z</time>
  <course>99.71</course>
  <speed>0.13</speed>
  <fix>3d</fix>
</trkpt>
<trkpt lat="-27.2737712" lon="151.2899062">
  <ele>344.66</ele>
  <time>2026-09-01T19:58:25Z</time>
  <course>106.33</course>
  <speed>0.2308679276123039</speed>
  <fix>3d</fix>
</trkpt>
<trkpt lat="-27.273771" lon="151.2899058">
  <ele>343.82</ele>
  <time>2026-09-01T19:58:25Z</time>
  <course>99.71</course>
  <speed>0.13</speed>
  <fix>3d</fix>
</trkpt>
<trkpt lat="-27.2737713" lon="151.2899065">
  <ele>344.97</ele>
  <time>2026-09-01T19:58:25Z</time>
  <course>106.28</course>
  <speed>0.2816025568065745</speed>
  <fix>3d</fix>
</trkpt>
<trkpt lat="-27.273771" lon="151.2899062">
  <ele>344.35</ele>
  <time>2026-09-01T19:58:25Z</time>
  <course>100.7</course>
  <speed>0.22</speed>
  <fix>3d</fix>
</trkpt>
<trkpt lat="-27.2737713" lon="151.2899068">
  <ele>345.29</ele>
  <time>2026-09-01T19:58:25Z</time>
  <course>106.09</course>
  <speed>0.3132091952673165</speed>
  <fix>3d</fix>
</trkpt>
<trkpt lat="-27.273771" lon="151.2899062">
  <ele>344.35</ele>
  <time>2026-09-01T19:58:25Z</time>
  <course>100.7</course>
  <speed>0.22</speed>
  <fix>3d</fix>
</trkpt>
<trkpt lat="-27.2737714" lon="151.2899071">
  <ele>345.61</ele>
  <time>2026-09-01T19:58:25Z</time>
  <course>105.82</course>
  <speed>0.354400902933387</speed>
  <fix>3d</fix>
</trkpt>
<trkpt lat="-27.2737711" lon="151.2899067">
  <ele>344.95</ele>
  <time>2026-09-01T19:58:25Z</time>
  <course>101.51</course>
  <speed>0.3</speed>
  <fix>3d</fix>
</trkpt>
<trkpt lat="-27.2737715" lon="151.2899075">
  <ele>345.95</ele>
  <time>2026-09-01T19:58:25Z</time>
  <course>105.73</course>
  <speed>0.383275357934736</speed>
  <fix>3d</fix>
</trkpt>
<trkpt lat="-27.2737711" lon="151.2899067">
  <ele>344.95</ele>
  <time>2026-09-01T19:58:25Z</time>
  <course>101.51</course>
  <speed>0.3</speed>
  <fix>3d</fix>
</trkpt>
<trkpt lat="-27.2737715" lon="151.2899079">
  <ele>346.28</ele>
  <time>2026-09-01T19:58:25Z</time>
  <course>105.79</course>
  <speed>0.41484937025383084</speed>
  <fix>3d</fix>
</trkpt>
<trkpt lat="-27.2737712" lon="151.2899074">
  <ele>345.59</ele>
  <time>2026-09-01T19:58:25Z</time>
  <course>102.18</course>
  <speed>0.38</speed>
  <fix>3d</fix>
</trkpt>
<trkpt lat="-27.2737716" lon="151.2899084">
  <ele>346.62</ele>
  <time>2026-09-01T19:58:25Z</time>
  <course>105.93</course>
  <speed>0.42720018726587655</speed>
  <fix>3d</fix>
</trkpt>
<trkpt lat="-27.2737712" lon="151.2899074">
  <ele>345.59</ele>
  <time>2026-09-01T19:58:25Z</time>
  <course>102.18</course>
  <speed>0.38</speed>
  <fix>3d</fix>
</trkpt>
<trkpt lat="-27.2737717" lon="151.2899088">
  <ele>346.95</ele>
  <time>2026-09-01T19:58:25Z</time>
  <course>106.06</course>
  <speed>0.4464302857109943</speed>
  <fix>3d</fix>
</trkpt>
<trkpt lat="-27.2737714" lon="151.2899082">
  <ele>346.26</ele>
  <time>2026-09-01T19:58:25Z</time>
  <course>102.7</course>
  <speed>0.44</speed>
  <fix>3d</fix>
</trkpt>
<trkpt lat="-27.2737718" lon="151.2899093">
  <ele>347.27</ele>
  <time>2026-09-01T19:58:25Z</time>
  <course>106.19</course>
  <speed>0.45607017003965516</speed>
  <fix>3d</fix>
</trkpt>
<trkpt lat="-27.2737714" lon="151.2899082">
  <ele>346.26</ele>
  <time>2026-09-01T19:58:25Z</time>
  <course>102.7</course>
  <speed>0.44</speed>
  <fix>3d</fix>
</trkpt>
<trkpt lat="-27.2737719" lon="151.2899098">
  <ele>347.59</ele>
  <time>2026-09-01T19:58:25Z</time>
  <course>106.26</course>
  <speed>0.45607017003965516</speed>
  <fix>3d</fix>
</trkpt>
<trkpt lat="-27.2737715" lon="151.2899091">
  <ele>346.92</ele>
  <time>2026-09-01T19:58:25Z</time>
  <course>103.12</course>
  <speed>0.47</speed>
  <fix>3d</fix>
</trkpt>
<trkpt lat="-27.273772" lon="151.2899102">
  <ele>347.9</ele>
  <time>2026-09-01T19:58:25Z</time>
  <course>106.31</course>
  <speed>0.4464302857109943</speed>
  <fix>3d</fix>
</trkpt>
<trkpt lat="-27.2737715" lon="151.2899091">
  <ele>346.92</ele>
  <time>2026-09-01T19:58:25Z</time>
  <course>103.12</course>
  <speed>0.47</speed>
  <fix>3d</fix>
</trkpt>
<trkpt lat="-27.2737721" lon="151.2899107">
  <ele>348.21</ele>
  <time>2026-09-01T19:58:25Z</time>
  <course>106.31</course>
  <speed>0.4368065933568311</speed>
  <fix>3d</fix>
</trkpt>
<trkpt lat="-27.2737718" lon="151.2899101">
  <ele>347.56</ele>
  <time>2026-09-01T19:58:25Z</time>
  <course>103.51</course>
  <speed>0.48</speed>
  <fix>3d</fix>
</trkpt>
<trkpt lat="-27.2737722" lon="151.2899111">
  <ele>348.51</ele>
  <time>2026-09-01T19:58:25Z</time>
  <course>106.32</course>
  <speed>0.417612260356422</speed>
  <fix>3d</fix>
</trkpt>
<trkpt lat="-27.2737718" lon="151.2899101">
  <ele>347.56</ele>
  <time>2026-09-01T19:58:25Z</time>
  <course>103.51</course>
  <speed>0.48</speed>
  <fix>3d</fix>
</trkpt>
<trkpt lat="-27.2737723" lon="151.2899116">
  <ele>348.79</ele>
  <time>2026-09-01T19:58:25Z</time>
  <course>106.31</course>
  <speed>0.3956008088970496</speed>
  <fix>3d</fix>
</trkpt>
<trkpt lat="-27.273772" lon="151.289911">
  <ele>348.18</ele>
  <time>2026-09-01T19:58:25Z</time>
  <course>103.89</course>
  <speed>0.47</speed>
  <fix>3d</fix>
</trkpt>
<trkpt lat="-27.2737723" lon="151.289912">
  <ele>349.08</ele>
  <time>2026-09-01T19:58:25Z</time>
  <course>106.31</course>
  <speed>0.3736308338453881</speed>
  <fix>3d</fix>
</trkpt>
<trkpt lat="-27.273772" lon="151.289911">
  <ele>348.18</ele>
  <time>2026-09-01T19:58:25Z</time>
  <course>103.89</course>
  <speed>0.47</speed>
  <fix>3d</fix>
</trkpt>
<trkpt lat="-27.2737724" lon="151.2899124">
  <ele>349.35</ele>
  <time>2026-09-01T19:58:26Z</time>
  <course>106.3</course>
  <speed>0.34481879299133333</speed>
  <fix>3d</fix>
</trkpt>
<trkpt lat="-27.2737721" lon="151.2899119">
  <ele>348.76</ele>
  <time>2026-09-01T19:58:26Z</time>
  <course>104.27</course>
  <speed>0.43</speed>
  <fix>3d</fix>
</trkpt>
<trkpt lat="-27.2737725" lon="151.2899127">
  <ele>349.62</ele>
  <time>2026-09-01T19:58:26Z</time>
  <course>106.3</course>
  <speed>0.3132091952673165</speed>
  <fix>3d</fix>
</trkpt>
<trkpt lat="-27.2737721" lon="151.2899119">
  <ele>348.76</ele>
  <time>2026-09-01T19:58:26Z</time>
  <course>104.27</course>
  <speed>0.43</speed>
  <fix>3d</fix>
</trkpt>
<trkpt lat="-27.2737726" lon="151.289913">
  <ele>349.88</ele>
  <time>2026-09-01T19:58:26Z</time>
  <course>106.31</course>
  <speed>0.2720294101747089</speed>
  <fix>3d</fix>
</trkpt>
<trkpt lat="-27.2737724" lon="151.2899128">
  <ele>349.31</ele>
  <time>2026-09-01T19:58:26Z</time>
  <course>104.68</course>
  <speed>0.38</speed>
  <fix>3d</fix>
</trkpt>
<trkpt lat="-27.2737726" lon="151.2899133">
  <ele>350.14</ele>
  <time>2026-09-01T19:58:26Z</time>
  <course>106.32</course>
  <speed>0.24041630560342614</speed>
  <fix>3d</fix>
</trkpt>
<trkpt lat="-27.2737724" lon="151.2899128">
  <ele>349.31</ele>
  <time>2026-09-01T19:58:26Z</time>
  <course>104.68</course>
  <speed>0.38</speed>
  <fix>3d</fix>
</trkpt>
<trkpt lat="-27.2737727" lon="151.2899136">
  <ele>350.39</ele>
  <time>2026-09-01T19:58:26Z</time>
  <course>106.34</course>
  <speed>0.19924858845171275</speed>
  <fix>3d</fix>
</trkpt>
<trkpt lat="-27.2737725" lon="151.2899135">
  <ele>349.83</ele>
  <time>2026-09-01T19:58:26Z</time>
  <course>105.22</course>
  <speed>0.31</speed>
  <fix>3d</fix>
</trkpt>
<trkpt lat="-27.2737727" lon="151.2899138">
  <ele>350.64</ele>
  <time>2026-09-01T19:58:26Z</time>
  <course>106.37</course>
  <speed>0.15811388300841897</speed>
  <fix>3d</fix>
</trkpt>
<trkpt lat="-27.2737725" lon="151.2899135">
  <ele>349.83</ele>
  <time>2026-09-01T19:58:26Z</time>
  <course>105.22</course>
  <speed>0.31</speed>
  <fix>3d</fix>
</trkpt>
<trkpt lat="-27.2737727" lon="151.289914">
  <ele>350.89</ele>
  <time>2026-09-01T19:58:26Z</time>
  <course>106.39</course>
  <speed>0.11704699910719625</speed>
  <fix>3d</fix>
</trkpt>
<trkpt lat="-27.2737726" lon="151.289914">
  <ele>350.33</ele>
  <time>2026-09-01T19:58:26Z</time>
  <course>106.03</course>
  <speed>0.23</speed>
  <fix>3d</fix>
</trkpt>
<trkpt lat="-27.2737728" lon="151.2899141">
  <ele>351.14</ele>
  <time>2026-09-01T19:58:26Z</time>
  <course>106.42</course>
  <speed>0.07615773105863909</speed>
  <fix>3d</fix>
</trkpt>
<trkpt lat="-27.2737726" lon="151.289914">
  <ele>350.33</ele>
  <time>2026-09-01T19:58:26Z</time>
  <course>106.03</course>
  <speed>0.23</speed>
  <fix>3d</fix>
</trkpt>
<trkpt lat="-27.2737728" lon="151.2899142">
  <ele>351.38</ele>
  <time>2026-09-01T19:58:26Z</time>
  <course>106.44</course>
  <speed>0.03605551275463989</speed>
  <fix>3d</fix>
</trkpt>
<trkpt lat="-27.2737727" lon="151.2899143">
  <ele>350.81</ele>
  <time>2026-09-01T19:58:26Z</time>
  <course>107.56</course>
  <speed>0.15</speed>
  <fix>3d</fix>
</trkpt>
<trkpt lat="-27.2737728" lon="151.2899142">
  <ele>351.62</ele>
  <time>2026-09-01T19:58:26Z</time>
  <course>106.47</course>
  <speed>0.01</speed>
  <fix>3d</fix>
</trkpt>
<trkpt lat="-27.2737727" lon="151.2899143">
  <ele>350.81</ele>
  <time>2026-09-01T19:58:26Z</time>
  <course>107.56</course>
  <speed>0.15</speed>
  <fix>3d</fix>
</trkpt>
<trkpt lat="-27.2737728" lon="151.2899143">
  <ele>351.86</ele>
  <time>2026-09-01T19:58:26Z</time>
  <course>106.5</course>
  <speed>0.03</speed>
  <fix>3d</fix>
</trkpt>
<trkpt lat="-27.2737728" lon="151.2899145">
  <ele>351.28</ele>
  <time>2026-09-01T19:58:26Z</time>
  <course>112.12</course>
  <speed>0.07</speed>
  <fix>3d</fix>
</trkpt>
<trkpt lat="-27.2737728" lon="151.2899143">
  <ele>352.1</ele>
  <time>2026-09-01T19:58:26Z</time>
  <course>106.53</course>
  <speed>0.06</speed>
  <fix>3d</fix>
</trkpt>
<trkpt lat="-27.2737728" lon="151.2899145">
  <ele>351.28</ele>
  <time>2026-09-01T19:58:26Z</time>
  <course>112.12</course>
  <speed>0.07</speed>
  <fix>3d</fix>
</trkpt>
<trkpt lat="-27.2737728" lon="151.2899143">
  <ele>352.35</ele>
  <time>2026-09-01T19:58:26Z</time>
  <course>106.56</course>
  <speed>0.09</speed>
  <fix>3d</fix>
</trkpt>
<trkpt lat="-27.2737729" lon="151.2899146">
  <ele>351.75</ele>
  <time>2026-09-01T19:58:26Z</time>
  <course>202.08</course>
  <speed>0.01</speed>
  <fix>3d</fix>
</trkpt>
<trkpt lat="-27.2737728" lon="151.2899142">
  <ele>352.59</ele>
  <time>2026-09-01T19:58:26Z</time>
  <course>106.61</course>
  <speed>0.12041594578792296</speed>
  <fix>3d</fix>
</trkpt>
<trkpt lat="-27.2737729" lon="151.2899146">
  <ele>351.75</ele>
  <time>2026-09-01T19:58:26Z</time>
  <course>202.08</course>
  <speed>0.01</speed>
  <fix>3d</fix>
</trkpt>
<trkpt lat="-27.2737728" lon="151.2899141">
  <ele>352.83</ele>
  <time>2026-09-01T19:58:26Z</time>
  <course>106.66</course>
  <speed>0.1414213562373095</speed>
  <fix>3d</fix>
</trkpt>
<trkpt lat="-27.2737729" lon="151.2899145">
  <ele>352.22</ele>
  <time>2026-09-01T19:58:26Z</time>
  <course>275.02</course>
  <speed>0.06</speed>
  <fix>3d</fix>
</trkpt>
<trkpt lat="-27.2737728" lon="151.289914">
  <ele>353.07</ele>
  <time>2026-09-01T19:58:26Z</time>
  <course>106.73</course>
  <speed>0.16278820596099705</speed>
  <fix>3d</fix>
</trkpt>
<trkpt lat="-27.2737729" lon="151.2899145">
  <ele>352.22</ele>
  <time>2026-09-01T19:58:26Z</time>
  <course>275.02</course>
  <speed>0.06</speed>
  <fix>3d</fix>
</trkpt>
<trkpt lat="-27.2737728" lon="151.2899138">
  <ele>353.31</ele>
  <time>2026-09-01T19:58:26Z</time>
  <course>106.82</course>
  <speed>0.18439088914585774</speed>
  <fix>3d</fix>
</trkpt>
<trkpt lat="-27.2737728" lon="151.2899144">
  <ele>352.7</ele>
  <time>2026-09-01T19:58:26Z</time>
  <course>280.21</course>
  <speed>0.12</speed>
  <fix>3d</fix>
</trkpt>
<trkpt lat="-27.2737728" lon="151.2899136">
  <ele>353.55</ele>
  <time>2026-09-01T19:58:26Z</time>
  <course>106.92</course>
  <speed>0.20615528128088303</speed>
  <fix>3d</fix>
</trkpt>
<trkpt lat="-27.2737728" lon="151.2899144">
  <ele>352.7</ele>
  <time>2026-09-01T19:58:26Z</time>
  <course>280.21</course>
  <speed>0.12</speed>
  <fix>3d</fix>
</trkpt>
<trkpt lat="-27.2737727" lon="151.2899135">
  <ele>353.79</ele>
  <time>2026-09-01T19:58:26Z</time>
  <course>106.98</course>
  <speed>0.215870331449229</speed>
  <fix>3d</fix>
</trkpt>
<trkpt lat="-27.2737728" lon="151.2899142">
  <ele>353.17</ele>
  <time>2026-09-01T19:58:26Z</time>
  <course>282.98</course>
  <speed>0.16</speed>
  <fix>3d</fix>
</trkpt>
<trkpt lat="-27.2737727" lon="151.2899133">
  <ele>354.04</ele>
  <time>2026-09-01T19:58:26Z</time>
  <course>106.99</course>
  <speed>0.2353720459187964</speed>
  <fix>3d</fix>
</trkpt>
<trkpt lat="-27.2737728" lon="151.2899142">
  <ele>353.17</ele>
  <time>2026-09-01T19:58:26Z</time>
  <course>282.98</course>
  <speed>0.16</speed>
  <fix>3d</fix>
</trkpt>
<trkpt lat="-27.2737726" lon="151.2899131">
  <ele>354.28</ele>
  <time>2026-09-01T19:58:26Z</time>
  <course>106.99</course>
  <speed>0.24515301344262524</speed>
  <fix>3d</fix>
</trkpt>
<trkpt lat="-27.2737728" lon="151.2899138">
  <ele>353.65</ele>
  <time>2026-09-01T19:58:26Z</time>
  <course>284.26</course>
  <speed>0.2</speed>
  <fix>3d</fix>
</trkpt>
<trkpt lat="-27.2737726" lon="151.2899129">
  <ele>354.54</ele>
  <time>2026-09-01T19:58:26Z</time>
  <course>106.97</course>
  <speed>0.24515301344262524</speed>
  <fix>3d</fix>
</trkpt>
<trkpt lat="-27.2737728" lon="151.2899138">
  <ele>353.65</ele>
  <time>2026-09-01T19:58:26Z</time>
  <course>284.26</course>
  <speed>0.2</speed>
  <fix>3d</fix>
</trkpt>
<trkpt lat="-27.2737725" lon="151.2899127">
  <ele>354.79</ele>
  <time>2026-09-01T19:58:26Z</time>
  <course>106.93</course>
  <speed>0.25495097567963926</speed>
  <fix>3d</fix>
</trkpt>
<trkpt lat="-27.2737727" lon="151.2899134">
  <ele>354.14</ele>
  <time>2026-09-01T19:58:26Z</time>
  <course>284.58</course>
  <speed>0.22</speed>
  <fix>3d</fix>
</trkpt>
<trkpt lat="-27.2737725" lon="151.2899124">
  <ele>355.04</ele>
  <time>2026-09-01T19:58:26Z</time>
  <course>106.89</course>
  <speed>0.25495097567963926</speed>
  <fix>3d</fix>
</trkpt>
<trkpt lat="-27.2737727" lon="151.2899134">
  <ele>354.14</ele>
  <time>2026-09-01T19:58:26Z</time>
  <course>284.58</course>
  <speed>0.22</speed>
  <fix>3d</fix>
</trkpt>
<trkpt lat="-27.2737725" lon="151.2899122">
  <ele>355.29</ele>
  <time>2026-09-01T19:58:26Z</time>
  <course>106.86</course>
  <speed>0.26476404589747454</speed>
  <fix>3d</fix>
</trkpt>
<trkpt lat="-27.2737726" lon="151.2899129">
  <ele>354.63</ele>
  <time>2026-09-01T19:58:26Z</time>
  <course>284.6</course>
  <speed>0.24</speed>
  <fix>3d</fix>
</trkpt>
<trkpt lat="-27.2737724" lon="151.289912">
  <ele>355.54</ele>
  <time>2026-09-01T19:58:26Z</time>
  <course>106.85</course>
  <speed>0.26476404589747454</speed>
  <fix>3d</fix>
</trkpt>
<trkpt lat="-27.2737726" lon="151.2899129">
  <ele>354.63</ele>
  <time>2026-09-01T19:58:26Z</time>
  <course>284.6</course>
  <speed>0.24</speed>
  <fix>3d</fix>
</trkpt>
<trkpt lat="-27.2737724" lon="151.2899117">
  <ele>355.79</ele>
  <time>2026-09-01T19:58:26Z</time>
  <course>106.85</course>
  <speed>0.26476404589747454</speed>
  <fix>3d</fix>
</trkpt>
<trkpt lat="-27.2737725" lon="151.2899124">
  <ele>355.12</ele>
  <time>2026-09-01T19:58:26Z</time>
  <course>284.56</course>
  <speed>0.25</speed>
  <fix>3d</fix>
</trkpt>
<trkpt lat="-27.2737723" lon="151.2899115">
  <ele>356.04</ele>
  <time>2026-09-01T19:58:26Z</time>
  <course>106.84</course>
  <speed>0.26476404589747454</speed>
  <fix>3d</fix>
</trkpt>
<trkpt lat="-27.2737725" lon="151.2899124">
  <ele>355.12</ele>
  <time>2026-09-01T19:58:26Z</time>
  <course>284.56</course>
  <speed>0.25</speed>
  <fix>3d</fix>
</trkpt>
<trkpt lat="-27.2737723" lon="151.2899112">
  <ele>356.29</ele>
  <time>2026-09-01T19:58:26Z</time>
  <course>106.84</course>
  <speed>0.26476404589747454</speed>
  <fix>3d</fix>
</trkpt>
<trkpt lat="-27.2737723" lon="151.2899119">
  <ele>355.62</ele>
  <time>2026-09-01T19:58:26Z</time>
  <course>284.72</course>
  <speed>0.25</speed>
  <fix>3d</fix>
</trkpt>
<trkpt lat="-27.2737722" lon="151.289911">
  <ele>356.54</ele>
  <time>2026-09-01T19:58:26Z</time>
  <course>106.84</course>
  <speed>0.26476404589747454</speed>
  <fix>3d</fix>
</trkpt>
<trkpt lat="-27.2737723" lon="151.2899119">
  <ele>355.62</ele>
  <time>2026-09-01T19:58:26Z</time>
  <course>284.72</course>
  <speed>0.25</speed>
  <fix>3d</fix>
</trkpt>
<trkpt lat="-27.2737722" lon="151.2899108">
  <ele>356.79</ele>
  <time>2026-09-01T19:58:26Z</time>
  <course>106.84</course>
  <speed>0.26476404589747454</speed>
  <fix>3d</fix>
</trkpt>
<trkpt lat="-27.2737722" lon="151.2899114">
  <ele>356.12</ele>
  <time>2026-09-01T19:58:26Z</time>
  <course>284.75</course>
  <speed>0.25</speed>
  <fix>3d</fix>
</trkpt>
<trkpt lat="-27.2737721" lon="151.2899105">
  <ele>357.04</ele>
  <time>2026-09-01T19:58:26Z</time>
  <course>106.83</course>
  <speed>0.26305892875931813</speed>
  <fix>3d</fix>
</trkpt>
<trkpt lat="-27.2737722" lon="151.2899114">
  <ele>356.12</ele>
  <time>2026-09-01T19:58:26Z</time>
  <course>284.75</course>
  <speed>0.25</speed>
  <fix>3d</fix>
</trkpt>
<trkpt lat="-27.2737721" lon="151.2899103">
  <ele>357.29</ele>
  <time>2026-09-01T19:58:26Z</time>
  <course>106.81</course>
  <speed>0.25317977802344327</speed>
  <fix>3d</fix>
</trkpt>
<trkpt lat="-27.2737721" lon="151.2899109">
  <ele>356.62</ele>
  <time>2026-09-01T19:58:26Z</time>
  <course>284.85</course>
  <speed>0.25</speed>
  <fix>3d</fix>
</trkpt>
<trkpt lat="-27.273772" lon="151.28991">
  <ele>357.54</ele>
  <time>2026-09-01T19:58:26Z</time>
  <course>106.79</course>
  <speed>0.25317977802344327</speed>
  <fix>3d</fix>
</trkpt>
<trkpt lat="-27.2737721" lon="151.2899109">
  <ele>356.62</ele>
  <time>2026-09-01T19:58:26Z</time>
  <course>284.85</course>
  <speed>0.25</speed>
  <fix>3d</fix>
</trkpt>
<trkpt lat="-27.273772" lon="151.2899098">
  <ele>357.79</ele>
  <time>2026-09-01T19:58:26Z</time>
  <course>106.75</course>
  <speed>0.25317977802344327</speed>
  <fix>3d</fix>
</trkpt>
<trkpt lat="-27.273772" lon="151.2899104">
  <ele>357.11</ele>
  <time>2026-09-01T19:58:26Z</time>
  <course>285.22</course>
  <speed>0.24</speed>
  <fix>3d</fix>
</trkpt>
<trkpt lat="-27.2737719" lon="151.2899096">
  <ele>358.04</ele>
  <time>2026-09-01T19:58:26Z</time>
  <course>106.72</course>
  <speed>0.24186773244895649</speed>
  <fix>3d</fix>
</trkpt>
<trkpt lat="-27.273772" lon="151.2899104">
  <ele>357.11</ele>
  <time>2026-09-01T19:58:26Z</time>
  <course>285.22</course>
  <speed>0.24</speed>
  <fix>3d</fix>
</trkpt>
<trkpt lat="-27.2737719" lon="151.2899094">
  <ele>358.29</ele>
  <time>2026-09-01T19:58:26Z</time>
  <course>106.68</course>
  <speed>0.24515301344262524</speed>
  <fix>3d</fix>
</trkpt>
<trkpt lat="-27.2737719" lon="151.2899099">
  <ele>357.61</ele>
  <time>2026-09-01T19:58:26Z</time>
  <course>285.53</course>
  <speed>0.24</speed>
  <fix>3d</fix>
</trkpt>
<trkpt lat="-27.2737718" lon="151.2899091">
  <ele>358.54</ele>
  <time>2026-09-01T19:58:26Z</time>
  <course>106.62</course>
  <speed>0.24020824298928628</speed>
  <fix>3d</fix>
</trkpt>
<trkpt lat="-27.2737719" lon="151.2899099">
  <ele>357.61</ele>
  <time>2026-09-01T19:58:26Z</time>
  <course>285.53</course>
  <speed>0.24</speed>
  <fix>3d</fix>
</trkpt>
<trkpt lat="-27.2737718" lon="151.2899089">
  <ele>358.79</ele>
  <time>2026-09-01T19:58:26Z</time>
  <course>106.58</course>
  <speed>0.2308679276123039</speed>
  <fix>3d</fix>
</trkpt>
<trkpt lat="-27.2737718" lon="151.2899095">
  <ele>358.11</ele>
  <time>2026-09-01T19:58:26Z</time>
  <course>285.38</course>
  <speed>0.23</speed>
  <fix>3d</fix>
</trkpt>
<trkpt lat="-27.2737718" lon="151.2899087">
  <ele>359.04</ele>
  <time>2026-09-01T19:58:26Z</time>
  <course>106.58</course>
  <speed>0.23021728866442676</speed>
  <fix>3d</fix>
</trkpt>
<trkpt lat="-27.2737718" lon="151.2899095">
  <ele>358.11</ele>
  <time>2026-09-01T19:58:26Z</time>
  <course>285.38</course>
  <speed>0.23</speed>
  <fix>3d</fix>
</trkpt>
<trkpt lat="-27.2737717" lon="151.2899085">
  <ele>359.29</ele>
  <time>2026-09-01T19:58:26Z</time>
  <course>106.57</course>
  <speed>0.23021728866442676</speed>
  <fix>3d</fix>
</trkpt>
<trkpt lat="-27.2737716" lon="151.2899091">
  <ele>358.61</ele>
  <time>2026-09-01T19:58:26Z</time>
  <course>285.69</course>
  <speed>0.22</speed>
  <fix>3d</fix>
</trkpt>
<trkpt lat="-27.2737717" lon="151.2899083">
  <ele>359.54</ele>
  <time>2026-09-01T19:58:26Z</time>
  <course>106.56</course>
  <speed>0.23021728866442676</speed>
  <fix>3d</fix>
</trkpt>
<trkpt lat="-27.2737716" lon="151.2899091">
  <ele>358.61</ele>
  <time>2026-09-01T19:58:26Z</time>
  <course>285.69</course>
  <speed>0.22</speed>
  <fix>3d</fix>
</trkpt>
<trkpt lat="-27.2737717" lon="151.2899081">
  <ele>359.79</ele>
  <time>2026-09-01T19:58:26Z</time>
  <course>106.52</course>
  <speed>0.21</speed>
  <fix>3d</fix>
</trkpt>
<trkpt lat="-27.2737715" lon="151.2899086">
  <ele>359.1</ele>
  <time>2026-09-01T19:58:26Z</time>
  <course>286.75</course>
  <speed>0.21</speed>
  <fix>3d</fix>
</trkpt>
<trkpt lat="-27.2737717" lon="151.2899079">
  <ele>360.04</ele>
  <time>2026-09-01T19:58:26Z</time>
  <course>106.46</course>
  <speed>0.2009975124224178</speed>
  <fix>3d</fix>
</trkpt>
<trkpt lat="-27.2737715" lon="151.2899086">
  <ele>359.1</ele>
  <time>2026-09-01T19:58:26Z</time>
  <course>286.75</course>
  <speed>0.21</speed>
  <fix>3d</fix>
</trkpt>
<trkpt lat="-27.2737716" lon="151.2899077">
  <ele>360.29</ele>
  <time>2026-09-01T19:58:26Z</time>
  <course>106.33</course>
  <speed>0.191049731745428</speed>
  <fix>3d</fix>
</trkpt>
<trkpt lat="-27.2737714" lon="151.2899082">
  <ele>359.6</ele>
  <time>2026-09-01T19:58:26Z</time>
  <course>287.34</course>
  <speed>0.19</speed>
  <fix>3d</fix>
</trkpt>
<trkpt lat="-27.2737716" lon="151.2899075">
  <ele>360.54</ele>
  <time>2026-09-01T19:58:26Z</time>
  <course>106.21</course>
  <speed>0.19</speed>
  <fix>3d</fix>
</trkpt>
<trkpt lat="-27.2737714" lon="151.2899082">
  <ele>359.6</ele>
  <time>2026-09-01T19:58:26Z</time>
  <course>287.34</course>
  <speed>0.19</speed>
  <fix>3d</fix>
</trkpt>
<trkpt lat="-27.2737715" lon="151.2899074">
  <ele>360.79</ele>
  <time>2026-09-01T19:58:26Z</time>
  <course>106.15</course>
  <speed>0.19</speed>
  <fix>3d</fix>
</trkpt>
<trkpt lat="-27.2737713" lon="151.2899079">
  <ele>360.1</ele>
  <time>2026-09-01T19:58:26Z</time>
  <course>286.66</course>
  <speed>0.18</speed>
  <fix>3d</fix>
</trkpt>
<trkpt lat="-27.2737715" lon="151.2899072">
  <ele>361.04</ele>
  <time>2026-09-01T19:58:26Z</time>
  <course>106.19</course>
  <speed>0.18</speed>
  <fix>3d</fix>
</trkpt>
<trkpt lat="-27.2737713" lon="151.2899079">
  <ele>360.1</ele>
  <time>2026-09-01T19:58:26Z</time>
  <course>286.66</course>
  <speed>0.18</speed>
  <fix>3d</fix>
</trkpt>
<trkpt lat="-27.2737714" lon="151.289907">
  <ele>361.3</ele>
  <time>2026-09-01T19:58:26Z</time>
  <course>106.25</course>
  <speed>0.17029386365926402</speed>
  <fix>3d</fix>
</trkpt>
<trkpt lat="-27.2737712" lon="151.2899075">
  <ele>360.6</ele>
  <time>2026-09-01T19:58:26Z</time>
  <course>286.68</course>
  <speed>0.17</speed>
  <fix>3d</fix>
</trkpt>
<trkpt lat="-27.2737714" lon="151.2899069">
  <ele>361.55</ele>
  <time>2026-09-01T19:58:26Z</time>
  <course>106.28</course>
  <speed>0.16031219541881397</speed>
  <fix>3d</fix>
</trkpt>
<trkpt lat="-27.2737712" lon="151.2899075">
  <ele>360.6</ele>
  <time>2026-09-01T19:58:26Z</time>
  <course>286.68</course>
  <speed>0.17</speed>
  <fix>3d</fix>
</trkpt>
<trkpt lat="-27.2737713" lon="151.2899067">
  <ele>361.8</ele>
  <time>2026-09-01T19:58:26Z</time>
  <course>106.27</course>
  <speed>0.16031219541881397</speed>
  <fix>3d</fix>
</trkpt>
<trkpt lat="-27.2737711" lon="151.2899072">
  <ele>361.09</ele>
  <time>2026-09-01T19:58:26Z</time>
  <course>287.33</course>
  <speed>0.16</speed>
  <fix>3d</fix>
</trkpt>
<trkpt lat="-27.2737713" lon="151.2899066">
  <ele>362.05</ele>
  <time>2026-09-01T19:58:26Z</time>
  <course>106.26</course>
  <speed>0.15033296378372907</speed>
  <fix>3d</fix>
</trkpt>
<trkpt lat="-27.2737711" lon="151.2899072">
  <ele>361.09</ele>
  <time>2026-09-01T19:58:26Z</time>
  <course>287.33</course>
  <speed>0.16</speed>
  <fix>3d</fix>
</trkpt>
<trkpt lat="-27.2737713" lon="151.2899065">
  <ele>362.3</ele>
  <time>2026-09-01T19:58:26Z</time>
  <course>106.26</course>
  <speed>0.140356688476182</speed>
  <fix>3d</fix>
</trkpt>
<trkpt lat="-27.2737711" lon="151.2899069">
  <ele>361.59</ele>
  <time>2026-09-01T19:58:26Z</time>
  <course>286.83</course>
  <speed>0.14</speed>
  <fix>3d</fix>
</trkpt>
<trkpt lat="-27.2737712" lon="151.2899064">
  <ele>362.55</ele>
  <time>2026-09-01T19:58:26Z</time>
  <course>106.29</course>
  <speed>0.140356688476182</speed>
  <fix>3d</fix>
</trkpt>
<trkpt lat="-27.2737711" lon="151.2899069">
  <ele>361.59</ele>
  <time>2026-09-01T19:58:26Z</time>
  <course>286.83</course>
  <speed>0.14</speed>
  <fix>3d</fix>
</trkpt>
<trkpt lat="-27.2737712" lon="151.2899062">
  <ele>362.8</ele>
  <time>2026-09-01T19:58:26Z</time>
  <course>106.32</course>
  <speed>0.130384048104053</speed>
  <fix>3d</fix>
</trkpt>
<trkpt lat="-27.273771" lon="151.2899066">
  <ele>362.09</ele>
  <time>2026-09-01T19:58:26Z</time>
  <course>286.57</course>
  <speed>0.13</speed>
  <fix>3d</fix>
</trkpt>
<trkpt lat="-27.2737711" lon="151.2899061">
  <ele>363.05</ele>
  <time>2026-09-01T19:58:26Z</time>
  <course>106.35</course>
  <speed>0.130384048104053</speed>
  <fix>3d</fix>
</trkpt>
<trkpt lat="-27.273771" lon="151.2899066">
  <ele>362.09</ele>
  <time>2026-09-01T19:58:26Z</time>
  <course>286.57</course>
  <speed>0.13</speed>
  <fix>3d</fix>
</trkpt>
<trkpt lat="-27.2737711" lon="151.289906">
  <ele>363.3</ele>
  <time>2026-09-01T19:58:26Z</time>
  <course>106.38</course>
  <speed>0.12041594578792296</speed>
  <fix>3d</fix>
</trkpt>
<trkpt lat="-27.2737709" lon="151.2899064">
  <ele>362.58</ele>
  <time>2026-09-01T19:58:26Z</time>
  <course>286.46</course>
  <speed>0.12</speed>
  <fix>3d</fix>
</trkpt>
<trkpt lat="-27.2737711" lon="151.2899059">
  <ele>363.55</ele>
  <time>2026-09-01T19:58:26Z</time>
  <course>106.4</course>
  <speed>0.11045361017187261</speed>
  <fix>3d</fix>
</trkpt>
<trkpt lat="-27.2737709" lon="151.2899064">
  <ele>362.58</ele>
  <time>2026-09-01T19:58:26Z</time>
  <course>286.46</course>
  <speed>0.12</speed>
  <fix>3d</fix>
</trkpt>
<trkpt lat="-27.273771" lon="151.2899058">
  <ele>363.8</ele>
  <time>2026-09-01T19:58:26Z</time>
  <course>106.41</course>
  <speed>0.11045361017187261</speed>
  <fix>3d</fix>
</trkpt>
<trkpt lat="-27.2737709" lon="151.2899062">
  <ele>363.08</ele>
  <time>2026-09-01T19:58:26Z</time>
  <course>286.64</course>
  <speed>0.1</speed>
  <fix>3d</fix>
</trkpt>
<trkpt lat="-27.273771" lon="151.2899057">
  <ele>364.05</ele>
  <time>2026-09-01T19:58:26Z</time>
  <course>106.4</course>
  <speed>0.1004987562112089</speed>
  <fix>3d</fix>
</trkpt>
<trkpt lat="-27.2737709" lon="151.2899062">
  <ele>363.08</ele>
  <time>2026-09-01T19:58:26Z</time>
  <course>286.64</course>
  <speed>0.1</speed>
  <fix>3d</fix>
</trkpt>
<trkpt lat="-27.273771" lon="151.2899057">
  <ele>364.3</ele>
  <time>2026-09-01T19:58:26Z</time>
  <course>106.38</course>
  <speed>0.1004987562112089</speed>
  <fix>3d</fix>
</trkpt>
<trkpt lat="-27.2737708" lon="151.2899059">
  <ele>363.58</ele>
  <time>2026-09-01T19:58:26Z</time>
  <course>286.33</course>
  <speed>0.09</speed>
  <fix>3d</fix>
</trkpt>
<trkpt lat="-27.2737709" lon="151.2899056">
  <ele>364.55</ele>
  <time>2026-09-01T19:58:26Z</time>
  <course>106.37</course>
  <speed>0.09</speed>
  <fix>3d</fix>
</trkpt>
<trkpt lat="-27.2737708" lon="151.2899059">
  <ele>363.58</ele>
  <time>2026-09-01T19:58:26Z</time>
  <course>286.33</course>
  <speed>0.09</speed>
  <fix>3d</fix>
</trkpt>
<trkpt lat="-27.2737709" lon="151.2899055">
  <ele>364.79</ele>
  <time>2026-09-01T19:58:26Z</time>
  <course>106.37</course>
  <speed>0.09</speed>
  <fix>3d</fix>
</trkpt>
<trkpt lat="-27.2737708" lon="151.2899057">
  <ele>364.07</ele>
  <time>2026-09-01T19:58:26Z</time>
  <course>285.3</course>
  <speed>0.08</speed>
  <fix>3d</fix>
</trkpt>
<trkpt lat="-27.2737709" lon="151.2899054">
  <ele>365.04</ele>
  <time>2026-09-01T19:58:26Z</time>
  <course>106.39</course>
  <speed>0.08</speed>
  <fix>3d</fix>
</trkpt>
<trkpt lat="-27.2737708" lon="151.2899057">
  <ele>364.07</ele>
  <time>2026-09-01T19:58:26Z</time>
  <course>285.3</course>
  <speed>0.08</speed>
  <fix>3d</fix>
</trkpt>
<trkpt lat="-27.2737709" lon="151.2899054">
  <ele>365.29</ele>
  <time>2026-09-01T19:58:26Z</time>
  <course>106.4</course>
  <speed>0.08</speed>
  <fix>3d</fix>
</trkpt>
<trkpt lat="-27.2737708" lon="151.2899056">
  <ele>364.57</ele>
  <time>2026-09-01T19:58:26Z</time>
  <course>284.48</course>
  <speed>0.07</speed>
  <fix>3d</fix>
</trkpt>
<trkpt lat="-27.2737709" lon="151.2899053">
  <ele>365.54</ele>
  <time>2026-09-01T19:58:26Z</time>
  <course>106.43</course>
  <speed>0.07</speed>
  <fix>3d</fix>
</trkpt>
<trkpt lat="-27.2737708" lon="151.2899056">
  <ele>364.57</ele>
  <time>2026-09-01T19:58:26Z</time>
  <course>284.48</course>
  <speed>0.07</speed>
  <fix>3d</fix>
</trkpt>
<trkpt lat="-27.2737708" lon="151.2899052">
  <ele>365.79</ele>
  <time>2026-09-01T19:58:26Z</time>
  <course>106.44</course>
  <speed>0.07</speed>
  <fix>3d</fix>
</trkpt>
<trkpt lat="-27.2737707" lon="151.2899054">
  <ele>365.07</ele>
  <time>2026-09-01T19:58:26Z</time>
  <course>283.77</course>
  <speed>0.06</speed>
  <fix>3d</fix>
</trkpt>
<trkpt lat="-27.2737708" lon="151.2899052">
  <ele>366.04</ele>
  <time>2026-09-01T19:58:26Z</time>
  <course>106.46</course>
  <speed>0.06</speed>
  <fix>3d</fix>
</trkpt>
<trkpt lat="-27.2737707" lon="151.2899054">
  <ele>365.07</ele>
  <time>2026-09-01T19:58:26Z</time>
  <course>283.77</course>
  <speed>0.06</speed>
  <fix>3d</fix>
</trkpt>
<trkpt lat="-27.2737708" lon="151.2899051">
  <ele>366.29</ele>
  <time>2026-09-01T19:58:26Z</time>
  <course>106.47</course>
  <speed>0.06</speed>
  <fix>3d</fix>
</trkpt>
<trkpt lat="-27.2737707" lon="151.2899053">
  <ele>365.56</ele>
  <time>2026-09-01T19:58:26Z</time>
  <course>283.32</course>
  <speed>0.04</speed>
  <fix>3d</fix>
</trkpt>
<trkpt lat="-27.2737708" lon="151.2899051">
  <ele>366.55</ele>
  <time>2026-09-01T19:58:26Z</time>
  <course>106.47</course>
  <speed>0.05</speed>
  <fix>3d</fix>
</trkpt>
<trkpt lat="-27.2737707" lon="151.2899053">
  <ele>365.56</ele>
  <time>2026-09-01T19:58:26Z</time>
  <course>283.32</course>
  <speed>0.04</speed>
  <fix>3d</fix>
</trkpt>
<trkpt lat="-27.2737708" lon="151.289905">
  <ele>366.8</ele>
  <time>2026-09-01T19:58:26Z</time>
  <course>106.46</course>
  <speed>0.05</speed>
  <fix>3d</fix>
</trkpt>
<trkpt lat="-27.2737707" lon="151.2899052">
  <ele>366.06</ele>
  <time>2026-09-01T19:58:26Z</time>
  <course>281.93</course>
  <speed>0.03</speed>
  <fix>3d</fix>
</trkpt>
<trkpt lat="-27.2737708" lon="151.289905">
  <ele>367.05</ele>
  <time>2026-09-01T19:58:26Z</time>
  <course>106.45</course>
  <speed>0.05</speed>
  <fix>3d</fix>
</trkpt>
<trkpt lat="-27.2737707" lon="151.2899052">
  <ele>366.06</ele>
  <time>2026-09-01T19:58:26Z</time>
  <course>281.93</course>
  <speed>0.03</speed>
  <fix>3d</fix>
</trkpt>
<trkpt lat="-27.2737708" lon="151.289905">
  <ele>367.3</ele>
  <time>2026-09-01T19:58:26Z</time>
  <course>106.44</course>
  <speed>0.04</speed>
  <fix>3d</fix>
</trkpt>
<trkpt lat="-27.2737707" lon="151.2899052">
  <ele>366.56</ele>
  <time>2026-09-01T19:58:26Z</time>
  <course>277.99</course>
  <speed>0.02</speed>
  <fix>3d</fix>
</trkpt>
<trkpt lat="-27.2737708" lon="151.289905">
  <ele>367.55</ele>
  <time>2026-09-01T19:58:26Z</time>
  <course>106.45</course>
  <speed>0.04</speed>
  <fix>3d</fix>
</trkpt>
<trkpt lat="-27.2737707" lon="151.2899052">
  <ele>366.56</ele>
  <time>2026-09-01T19:58:26Z</time>
  <course>277.99</course>
  <speed>0.02</speed>
  <fix>3d</fix>
</trkpt>
<trkpt lat="-27.2737708" lon="151.2899049">
  <ele>367.8</ele>
  <time>2026-09-01T19:58:26Z</time>
  <course>106.46</course>
  <speed>0.04</speed>
  <fix>3d</fix>
</trkpt>
<trkpt lat="-27.2737707" lon="151.2899052">
  <ele>367.06</ele>
  <time>2026-09-01T19:58:26Z</time>
  <course>273.1</course>
  <speed>0.02</speed>
  <fix>3d</fix>
</trkpt>
<trkpt lat="-27.2737708" lon="151.2899049">
  <ele>368.05</ele>
  <time>2026-09-01T19:58:26Z</time>
  <course>106.47</course>
  <speed>0.03</speed>
  <fix>3d</fix>
</trkpt>
<trkpt lat="-27.2737707" lon="151.2899052">
  <ele>367.06</ele>
  <time>2026-09-01T19:58:26Z</time>
  <course>273.1</course>
  <speed>0.02</speed>
  <fix>3d</fix>
</trkpt>
<trkpt lat="-27.2737708" lon="151.2899049">
  <ele>368.3</ele>
  <time>2026-09-01T19:58:26Z</time>
  <course>106.46</course>
  <speed>0.03</speed>
  <fix>3d</fix>
</trkpt>
<trkpt lat="-27.2737707" lon="151.2899051">
  <ele>367.55</ele>
  <time>2026-09-01T19:58:26Z</time>
  <course>262.63</course>
  <speed>0.01</speed>
  <fix>3d</fix>
</trkpt>
<trkpt lat="-27.2737708" lon="151.2899049">
  <ele>368.55</ele>
  <time>2026-09-01T19:58:26Z</time>
  <course>106.46</course>
  <speed>0.03</speed>
  <fix>3d</fix>
</trkpt>
<trkpt lat="-27.2737707" lon="151.2899051">
  <ele>367.55</ele>
  <time>2026-09-01T19:58:26Z</time>
  <course>262.63</course>
  <speed>0.01</speed>
  <fix>3d</fix>
</trkpt>
<trkpt lat="-27.2737708" lon="151.2899049">
  <ele>368.8</ele>
  <time>2026-09-01T19:58:26Z</time>
  <course>106.45</course>
  <speed>0.02</speed>
  <fix>3d</fix>
</trkpt>
<trkpt lat="-27.2737707" lon="151.2899051">
  <ele>368.05</ele>
  <time>2026-09-01T19:58:26Z</time>
  <course>228.12</course>
  <speed>0.0</speed>
  <fix>3d</fix>
</trkpt>
<trkpt lat="-27.2737708" lon="151.2899049">
  <ele>369.04</ele>
  <time>2026-09-01T19:58:26Z</time>
  <course>106.45</course>
  <speed>0.02</speed>
  <fix>3d</fix>
</trkpt>
<trkpt lat="-27.2737707" lon="151.2899051">
  <ele>368.05</ele>
  <time>2026-09-01T19:58:26Z</time>
  <course>228.12</course>
  <speed>0.0</speed>
  <fix>3d</fix>
</trkpt>
<trkpt lat="-27.2737708" lon="151.2899049">
  <ele>369.29</ele>
  <time>2026-09-01T19:58:26Z</time>
  <course>106.45</course>
  <speed>0.02</speed>
  <fix>3d</fix>
</trkpt>
<trkpt lat="-27.2737707" lon="151.2899051">
  <ele>368.55</ele>
  <time>2026-09-01T19:58:26Z</time>
  <course>173.1</course>
  <speed>0.0</speed>
  <fix>3d</fix>
</trkpt>
<trkpt lat="-27.2737708" lon="151.2899049">
  <ele>369.54</ele>
  <time>2026-09-01T19:58:26Z</time>
  <course>106.45</course>
  <speed>0.022360679774997897</speed>
  <fix>3d</fix>
</trkpt>
<trkpt lat="-27.2737707" lon="151.2899051">
  <ele>368.55</ele>
  <time>2026-09-01T19:58:26Z</time>
  <course>173.1</course>
  <speed>0.0</speed>
  <fix>3d</fix>
</trkpt>
<trkpt lat="-27.2737708" lon="151.2899049">
  <ele>369.79</ele>
  <time>2026-09-01T19:58:26Z</time>
  <course>106.45</course>
  <speed>0.01414213562373095</speed>
  <fix>3d</fix>
</trkpt>
<trkpt lat="-27.2737707" lon="151.2899051">
  <ele>369.04</ele>
  <time>2026-09-01T19:58:26Z</time>
  <course>137.35</course>
  <speed>0.01</speed>
  <fix>3d</fix>
</trkpt>
<trkpt lat="-27.2737708" lon="151.2899049">
  <ele>370.04</ele>
  <time>2026-09-01T19:58:26Z</time>
  <course>106.44</course>
  <speed>0.01414213562373095</speed>
  <fix>3d</fix>
</trkpt>
<trkpt lat="-27.2737707" lon="151.2899051">
  <ele>369.04</ele>
  <time>2026-09-01T19:58:26Z</time>
  <course>137.35</course>
  <speed>0.01</speed>
  <fix>3d</fix>
</trkpt>
<trkpt lat="-27.2737708" lon="151.2899049">
  <ele>370.29</ele>
  <time>2026-09-01T19:58:26Z</time>
  <course>106.43</course>
  <speed>0.01414213562373095</speed>
  <fix>3d</fix>
</trkpt>
<trkpt lat="-27.2737707" lon="151.2899051">
  <ele>369.54</ele>
  <time>2026-09-01T19:58:26Z</time>
  <course>126.45</course>
  <speed>0.01</speed>
  <fix>3d</fix>
</trkpt>
<trkpt lat="-27.2737708" lon="151.2899049">
  <ele>370.54</ele>
  <time>2026-09-01T19:58:26Z</time>
  <course>106.43</course>
  <speed>0.01414213562373095</speed>
  <fix>3d</fix>
</trkpt>
<trkpt lat="-27.2737707" lon="151.2899051">
  <ele>369.54</ele>
  <time>2026-09-01T19:58:26Z</time>
  <course>126.45</course>
  <speed>0.01</speed>
  <fix>3d</fix>
</trkpt>
<trkpt lat="-27.2737708" lon="151.2899049">
  <ele>370.79</ele>
  <time>2026-09-01T19:58:26Z</time>
  <course>106.43</course>
  <speed>0.01414213562373095</speed>
  <fix>3d</fix>
</trkpt>
<trkpt lat="-27.2737707" lon="151.2899051">
  <ele>370.04</ele>
  <time>2026-09-01T19:58:26Z</time>
  <course>123.29</course>
  <speed>0.01</speed>
  <fix>3d</fix>
</trkpt>
<trkpt lat="-27.2737708" lon="151.2899049">
  <ele>371.04</ele>
  <time>2026-09-01T19:58:26Z</time>
  <course>106.44</course>
  <speed>0.01</speed>
  <fix>3d</fix>
</trkpt>
<trkpt lat="-27.2737707" lon="151.2899051">
  <ele>370.04</ele>
  <time>2026-09-01T19:58:26Z</time>
  <course>123.29</course>
  <speed>0.01</speed>
  <fix>3d</fix>
</trkpt>
<trkpt lat="-27.2737708" lon="151.2899049">
  <ele>371.29</ele>
  <time>2026-09-01T19:58:26Z</time>
  <course>106.44</course>
  <speed>0.01</speed>
  <fix>3d</fix>
</trkpt>
<trkpt lat="-27.2737707" lon="151.2899051">
  <ele>370.53</ele>
  <time>2026-09-01T19:58:26Z</time>
  <course>120.0</course>
  <speed>0.02</speed>
  <fix>3d</fix>
</trkpt>
<trkpt lat="-27.2737708" lon="151.2899049">
  <ele>371.54</ele>
  <time>2026-09-01T19:58:26Z</time>
  <course>106.44</course>
  <speed>0.01</speed>
  <fix>3d</fix>
</trkpt>
<trkpt lat="-27.2737707" lon="151.2899051">
  <ele>370.53</ele>
  <time>2026-09-01T19:58:26Z</time>
  <course>120.0</course>
  <speed>0.02</speed>
  <fix>3d</fix>
</trkpt>
<trkpt lat="-27.2737708" lon="151.2899049">
  <ele>371.79</ele>
  <time>2026-09-01T19:58:26Z</time>
  <course>106.45</course>
  <speed>0.01</speed>
  <fix>3d</fix>
</trkpt>
<trkpt lat="-27.2737707" lon="151.2899052">
  <ele>371.03</ele>
  <time>2026-09-01T19:58:26Z</time>
  <course>116.56</course>
  <speed>0.02</speed>
  <fix>3d</fix>
</trkpt>
<trkpt lat="-27.2737708" lon="151.289905">
  <ele>372.04</ele>
  <time>2026-09-01T19:58:26Z</time>
  <course>106.46</course>
  <speed>0.01</speed>
  <fix>3d</fix>
</trkpt>
<trkpt lat="-27.2737707" lon="151.2899052">
  <ele>371.03</ele>
  <time>2026-09-01T19:58:26Z</time>
  <course>116.56</course>
  <speed>0.02</speed>
  <fix>3d</fix>
</trkpt>
<trkpt lat="-27.2737708" lon="151.289905">
  <ele>372.29</ele>
  <time>2026-09-01T19:58:26Z</time>
  <course>106.47</course>
  <speed>0.01</speed>
  <fix>3d</fix>
</trkpt>
<trkpt lat="-27.2737707" lon="151.2899052">
  <ele>371.53</ele>
  <time>2026-09-01T19:58:26Z</time>
  <course>113.21</course>
  <speed>0.03</speed>
  <fix>3d</fix>
</trkpt>
<trkpt lat="-27.2737708" lon="151.289905">
  <ele>372.54</ele>
  <time>2026-09-01T19:58:26Z</time>
  <course>106.48</course>
  <speed>0.01</speed>
  <fix>3d</fix>
</trkpt>
<trkpt lat="-27.2737707" lon="151.2899052">
  <ele>371.53</ele>
  <time>2026-09-01T19:58:26Z</time>
  <course>113.21</course>
  <speed>0.03</speed>
  <fix>3d</fix>
</trkpt>
<trkpt lat="-27.2737708" lon="151.289905">
  <ele>372.79</ele>
  <time>2026-09-01T19:58:26Z</time>
  <course>106.48</course>
  <speed>0.01</speed>
  <fix>3d</fix>
</trkpt>
<trkpt lat="-27.2737707" lon="151.2899052">
  <ele>372.03</ele>
  <time>2026-09-01T19:58:26Z</time>
  <course>110.61</course>
  <speed>0.03</speed>
  <fix>3d</fix>
</trkpt>
<trkpt lat="-27.2737708" lon="151.2899051">
  <ele>373.04</ele>
  <time>2026-09-01T19:58:26Z</time>
  <course>106.48</course>
  <speed>0.01</speed>
  <fix>3d</fix>
</trkpt>
<trkpt lat="-27.2737707" lon="151.2899052">
  <ele>372.03</ele>
  <time>2026-09-01T19:58:26Z</time>
  <course>110.61</course>
  <speed>0.03</speed>
  <fix>3d</fix>
</trkpt>
<trkpt lat="-27.2737708" lon="151.2899051">
  <ele>373.29</ele>
  <time>2026-09-01T19:58:26Z</time>
  <course>106.48</course>
  <speed>0.01</speed>
  <fix>3d</fix>
</trkpt>
<trkpt lat="-27.2737708" lon="151.2899053">
  <ele>372.53</ele>
  <time>2026-09-01T19:58:26Z</time>
  <course>110.01</course>
  <speed>0.03</speed>
  <fix>3d</fix>
</trkpt>
<trkpt lat="-27.2737708" lon="151.2899051">
  <ele>373.55</ele>
  <time>2026-09-01T19:58:26Z</time>
  <course>106.47</course>
  <speed>0.0282842712474619</speed>
  <fix>3d</fix>
</trkpt>
<trkpt lat="-27.2737708" lon="151.2899053">
  <ele>372.53</ele>
  <time>2026-09-01T19:58:26Z</time>
  <course>110.01</course>
  <speed>0.03</speed>
  <fix>3d</fix>
</trkpt>
<trkpt lat="-27.2737708" lon="151.2899052">
  <ele>373.79</ele>
  <time>2026-09-01T19:58:26Z</time>
  <course>106.47</course>
  <speed>0.09848857801796104</speed>
  <fix>3d</fix>
</trkpt>
<trkpt lat="-27.2737708" lon="151.2899054">
  <ele>373.02</ele>
  <time>2026-09-01T19:58:26Z</time>
  <course>110.31</course>
  <speed>0.04</speed>
  <fix>3d</fix>
</trkpt>
<trkpt lat="-27.2737709" lon="151.2899054">
  <ele>374.04</ele>
  <time>2026-09-01T19:58:26Z</time>
  <course>106.45</course>
  <speed>0.22472205054244232</speed>
  <fix>3d</fix>
</trkpt>
<trkpt lat="-27.2737708" lon="151.2899054">
  <ele>373.02</ele>
  <time>2026-09-01T19:58:26Z</time>
  <course>110.31</course>
  <speed>0.04</speed>
  <fix>3d</fix>
</trkpt>
<trkpt lat="-27.273771" lon="151.2899057">
  <ele>374.28</ele>
  <time>2026-09-01T19:58:26Z</time>
  <course>106.4</course>
  <speed>0.4205948168962618</speed>
  <fix>3d</fix>
</trkpt>
<trkpt lat="-27.2737708" lon="151.2899056">
  <ele>373.51</ele>
  <time>2026-09-01T19:58:26Z</time>
  <course>108.59</course>
  <speed>0.16</speed>
  <fix>3d</fix>
</trkpt>
<trkpt lat="-27.2737711" lon="151.2899063">
  <ele>374.51</ele>
  <time>2026-09-01T19:58:26Z</time>
  <course>106.33</course>
  <speed>0.6705221845696084</speed>
  <fix>3d</fix>
</trkpt>
<trkpt lat="-27.2737708" lon="151.2899056">
  <ele>373.51</ele>
  <time>2026-09-01T19:58:26Z</time>
  <course>108.59</course>
  <speed>0.16</speed>
  <fix>3d</fix>
</trkpt>
<trkpt lat="-27.2737713" lon="151.2899071">
  <ele>374.72</ele>
  <time>2026-09-01T19:58:26Z</time>
  <course>106.21</course>
  <speed>0.9837174391053561</speed>
  <fix>3d</fix>
</trkpt>
<trkpt lat="-27.2737709" lon="151.2899062">
  <ele>373.99</ele>
  <time>2026-09-01T19:58:26Z</time>
  <course>107.61</course>
  <speed>0.47</speed>
  <fix>3d</fix>
</trkpt>
<trkpt lat="-27.2737716" lon="151.2899083">
  <ele>374.91</ele>
  <time>2026-09-01T19:58:26Z</time>
  <course>106.08</course>
  <speed>1.3572398461583715</speed>
  <fix>3d</fix>
</trkpt>
<trkpt lat="-27.2737709" lon="151.2899062">
  <ele>373.99</ele>
  <time>2026-09-01T19:58:26Z</time>
  <course>107.61</course>
  <speed>0.47</speed>
  <fix>3d</fix>
</trkpt>
<trkpt lat="-27.273772" lon="151.2899098">
  <ele>375.08</ele>
  <time>2026-09-01T19:58:26Z</time>
  <course>106.01</course>
  <speed>1.7912007146045916</speed>
  <fix>3d</fix>
</trkpt>
<trkpt lat="-27.2737714" lon="151.2899076">
  <ele>374.43</ele>
  <time>2026-09-01T19:58:26Z</time>
  <course>107.26</course>
  <speed>1.03</speed>
  <fix>3d</fix>
</trkpt>
<trkpt lat="-27.2737725" lon="151.2899118">
  <ele>375.22</ele>
  <time>2026-09-01T19:58:26Z</time>
  <course>105.83</course>
  <speed>2.3008042072284205</speed>
  <fix>3d</fix>
</trkpt>
<trkpt lat="-27.2737714" lon="151.2899076">
  <ele>374.43</ele>
  <time>2026-09-01T19:58:26Z</time>
  <course>107.26</course>
  <speed>1.03</speed>
  <fix>3d</fix>
</trkpt>
<trkpt lat="-27.2737732" lon="151.2899143">
  <ele>375.32</ele>
  <time>2026-09-01T19:58:26Z</time>
  <course>105.56</course>
  <speed>2.8557660968643774</speed>
  <fix>3d</fix>
</trkpt>
<trkpt lat="-27.2737721" lon="151.2899103">
  <ele>374.78</ele>
  <time>2026-09-01T19:58:26Z</time>
  <course>106.93</course>
  <speed>1.84</speed>
  <fix>3d</fix>
</trkpt>
<trkpt lat="-27.2737739" lon="151.2899174">
  <ele>375.4</ele>
  <time>2026-09-01T19:58:26Z</time>
  <course>105.29</course>
  <speed>3.442455518957362</speed>
  <fix>3d</fix>
</trkpt>
<trkpt lat="-27.2737721" lon="151.2899103">
  <ele>374.78</ele>
  <time>2026-09-01T19:58:26Z</time>
  <course>106.93</course>
  <speed>1.84</speed>
  <fix>3d</fix>
</trkpt>
<trkpt lat="-27.2737748" lon="151.289921">
  <ele>375.44</ele>
  <time>2026-09-01T19:58:26Z</time>
  <course>105.01</course>
  <speed>4.038873605350878</speed>
  <fix>3d</fix>
</trkpt>
<trkpt lat="-27.2737733" lon="151.2899148">
  <ele>375.03</ele>
  <time>2026-09-01T19:58:26Z</time>
  <course>106.42</course>
  <speed>2.88</speed>
  <fix>3d</fix>
</trkpt>
<trkpt lat="-27.2737758" lon="151.2899253">
  <ele>375.46</ele>
  <time>2026-09-01T19:58:26Z</time>
  <course>104.58</course>
  <speed>4.647106626708709</speed>
  <fix>3d</fix>
</trkpt>
<trkpt lat="-27.2737733" lon="151.2899148">
  <ele>375.03</ele>
  <time>2026-09-01T19:58:26Z</time>
  <course>106.42</course>
  <speed>2.88</speed>
  <fix>3d</fix>
</trkpt>
<trkpt lat="-27.273777" lon="151.2899302">
  <ele>375.46</ele>
  <time>2026-09-01T19:58:26Z</time>
  <course>103.95</course>
  <speed>5.263050446271629</speed>
  <fix>3d</fix>
</trkpt>
<trkpt lat="-27.2737751" lon="151.2899216">
  <ele>375.15</ele>
  <time>2026-09-01T19:58:26Z</time>
  <course>105.62</course>
  <speed>4.06</speed>
  <fix>3d</fix>
</trkpt>
<trkpt lat="-27.2737782" lon="151.2899357">
  <ele>375.44</ele>
  <time>2026-09-01T19:58:26Z</time>
  <course>103.22</course>
  <speed>5.862849136725249</speed>
  <fix>3d</fix>
</trkpt>
<trkpt lat="-27.2737751" lon="151.2899216">
  <ele>375.15</ele>
  <time>2026-09-01T19:58:26Z</time>
  <course>105.62</course>
  <speed>4.06</speed>
  <fix>3d</fix>
</trkpt>
<trkpt lat="-27.2737794" lon="151.2899417">
  <ele>375.42</ele>
  <time>2026-09-01T19:58:26Z</time>
  <course>102.49</course>
  <speed>6.45914080973623</speed>
  <fix>3d</fix>
</trkpt>
<trkpt lat="-27.2737773" lon="151.2899307">
  <ele>375.16</ele>
  <time>2026-09-01T19:58:26Z</time>
  <course>104.43</course>
  <speed>5.26</speed>
  <fix>3d</fix>
</trkpt>
<trkpt lat="-27.2737807" lon="151.2899484">
  <ele>375.39</ele>
  <time>2026-09-01T19:58:26Z</time>
  <course>101.61</course>
  <speed>7.058222155755654</speed>
  <fix>3d</fix>
</trkpt>
<trkpt lat="-27.2737773" lon="151.2899307">
  <ele>375.16</ele>
  <time>2026-09-01T19:58:26Z</time>
  <course>104.43</course>
  <speed>5.26</speed>
  <fix>3d</fix>
</trkpt>
<trkpt lat="-27.273782" lon="151.2899556">
  <ele>375.36</ele>
  <time>2026-09-01T19:58:26Z</time>
  <course>100.58</course>
  <speed>7.64198926981712</speed>
  <fix>3d</fix>
</trkpt>
<trkpt lat="-27.2737797" lon="151.2899423">
  <ele>375.13</ele>
  <time>2026-09-01T19:58:26Z</time>
  <course>102.77</course>
  <speed>6.47</speed>
  <fix>3d</fix>
</trkpt>
<trkpt lat="-27.2737832" lon="151.2899634">
  <ele>375.33</ele>
  <time>2026-09-01T19:58:26Z</time>
  <course>99.5</course>
  <speed>8.233280026817987</speed>
  <fix>3d</fix>
</trkpt>
<trkpt lat="-27.2737797" lon="151.2899423">
  <ele>375.13</ele>
  <time>2026-09-01T19:58:26Z</time>
  <course>102.77</course>
  <speed>6.47</speed>
  <fix>3d</fix>
</trkpt>
<trkpt lat="-27.2737844" lon="151.2899719">
  <ele>375.31</ele>
  <time>2026-09-01T19:58:26Z</time>
  <course>98.41</course>
  <speed>8.802181547775529</speed>
  <fix>3d</fix>
</trkpt>
<trkpt lat="-27.2737823" lon="151.2899563">
  <ele>375.08</ele>
  <time>2026-09-01T19:58:26Z</time>
  <course>100.6</course>
  <speed>7.66</speed>
  <fix>3d</fix>
</trkpt>
<trkpt lat="-27.2737855" lon="151.2899809">
  <ele>375.28</ele>
  <time>2026-09-01T19:58:26Z</time>
  <course>97.13</course>
  <speed>9.36902342829817</speed>
  <fix>3d</fix>
</trkpt>
<trkpt lat="-27.2737823" lon="151.2899563">
  <ele>375.08</ele>
  <time>2026-09-01T19:58:26Z</time>
  <course>100.6</course>
  <speed>7.66</speed>
  <fix>3d</fix>
</trkpt>
<trkpt lat="-27.2737864" lon="151.2899906">
  <ele>375.26</ele>
  <time>2026-09-01T19:58:26Z</time>
  <course>95.79</course>
  <speed>9.918230688988837</speed>
  <fix>3d</fix>
</trkpt>
<trkpt lat="-27.2737847" lon="151.2899728">
  <ele>375.02</ele>
  <time>2026-09-01T19:58:26Z</time>
  <course>98.04</course>
  <speed>8.83</speed>
  <fix>3d</fix>
</trkpt>
<trkpt lat="-27.2737871" lon="151.2900007">
  <ele>375.25</ele>
  <time>2026-09-01T19:58:26Z</time>
  <course>94.42</course>
  <speed>10.440253828331954</speed>
  <fix>3d</fix>
</trkpt>
<trkpt lat="-27.2737847" lon="151.2899728">
  <ele>375.02</ele>
  <time>2026-09-01T19:58:26Z</time>
  <course>98.04</course>
  <speed>8.83</speed>
  <fix>3d</fix>
</trkpt>
<trkpt lat="-27.2737876" lon="151.2900115">
  <ele>375.23</ele>
  <time>2026-09-01T19:58:26Z</time>
  <course>93.01</course>
  <speed>10.936955700742324</speed>
  <fix>3d</fix>
</trkpt>
<trkpt lat="-27.2737867" lon="151.2899917">
  <ele>374.97</ele>
  <time>2026-09-01T19:58:26Z</time>
  <course>95.21</course>
  <speed>9.95</speed>
  <fix>3d</fix>
</trkpt>
<trkpt lat="-27.2737879" lon="151.2900228">
  <ele>375.22</ele>
  <time>2026-09-01T19:58:26Z</time>
  <course>91.56</course>
  <speed>11.430437436948772</speed>
  <fix>3d</fix>
</trkpt>
<trkpt lat="-27.2737867" lon="151.2899917">
  <ele>374.97</ele>
  <time>2026-09-01T19:58:26Z</time>
  <course>95.21</course>
  <speed>9.95</speed>
  <fix>3d</fix>
</trkpt>
<trkpt lat="-27.2737879" lon="151.2900347">
  <ele>375.21</ele>
  <time>2026-09-01T19:58:26Z</time>
  <course>90.13</course>
  <speed>11.901680553602503</speed>
  <fix>3d</fix>
</trkpt>
<trkpt lat="-27.2737879" lon="151.2900128">
  <ele>374.95</ele>
  <time>2026-09-01T19:58:26Z</time>
  <course>92.19</course>
  <speed>10.99</speed>
  <fix>3d</fix>
</trkpt>
<trkpt lat="-27.2737876" lon="151.290047">
  <ele>375.21</ele>
  <time>2026-09-01T19:58:26Z</time>
  <course>88.69</course>
  <speed>12.36180003073986</speed>
  <fix>3d</fix>
</trkpt>
<trkpt lat="-27.2737879" lon="151.2900128">
  <ele>374.95</ele>
  <time>2026-09-01T19:58:26Z</time>
  <course>92.19</course>
  <speed>10.99</speed>
  <fix>3d</fix>
</trkpt>
<trkpt lat="-27.2737871" lon="151.2900596">
  <ele>375.2</ele>
  <time>2026-09-01T19:58:26Z</time>
  <course>87.35</course>
  <speed>12.831601614763452</speed>
  <fix>3d</fix>
</trkpt>
<trkpt lat="-27.2737881" lon="151.2900359">
  <ele>374.93</ele>
  <time>2026-09-01T19:58:26Z</time>
  <course>89.1</course>
  <speed>11.95</speed>
  <fix>3d</fix>
</trkpt>
<trkpt lat="-27.2737862" lon="151.2900727">
  <ele>375.2</ele>
  <time>2026-09-01T19:58:26Z</time>
  <course>85.89</course>
  <speed>13.280862170808039</speed>
  <fix>3d</fix>
</trkpt>
<trkpt lat="-27.2737881" lon="151.2900359">
  <ele>374.93</ele>
  <time>2026-09-01T19:58:26Z</time>
  <course>89.1</course>
  <speed>11.95</speed>
  <fix>3d</fix>
</trkpt>
<trkpt lat="-27.273785" lon="151.2900862">
  <ele>375.19</ele>
  <time>2026-09-01T19:58:26Z</time>
  <course>84.49</course>
  <speed>13.720787149431333</speed>
  <fix>3d</fix>
</trkpt>
<trkpt lat="-27.2737872" lon="151.2900611">
  <ele>374.92</ele>
  <time>2026-09-01T19:58:26Z</time>
  <course>86.02</course>
  <speed>12.88</speed>
  <fix>3d</fix>
</trkpt>
<trkpt lat="-27.2737833" lon="151.2901">
  <ele>375.19</ele>
  <time>2026-09-01T19:58:26Z</time>
  <course>83.17</course>
  <speed>14.160639109870713</speed>
  <fix>3d</fix>
</trkpt>
<trkpt lat="-27.2737872" lon="151.2900611">
  <ele>374.92</ele>
  <time>2026-09-01T19:58:26Z</time>
  <course>86.02</course>
  <speed>12.88</speed>
  <fix>3d</fix>
</trkpt>
<trkpt lat="-27.2737814" lon="151.2901143">
  <ele>375.19</ele>
  <time>2026-09-01T19:58:26Z</time>
  <course>81.82</course>
  <speed>14.600445198691716</speed>
  <fix>3d</fix>
</trkpt>
<trkpt lat="-27.2737849" lon="151.2900879">
  <ele>374.91</ele>
  <time>2026-09-01T19:58:26Z</time>
  <course>83.05</course>
  <speed>13.8</speed>
  <fix>3d</fix>
</trkpt>
<trkpt lat="-27.273779" lon="151.290129">
  <ele>375.19</ele>
  <time>2026-09-01T19:58:26Z</time>
  <course>80.52</course>
  <speed>15.032381714152951</speed>
  <fix>3d</fix>
</trkpt>
<trkpt lat="-27.2737849" lon="151.2900879">
  <ele>374.91</ele>
  <time>2026-09-01T19:58:26Z</time>
  <course>83.05</course>
  <speed>13.8</speed>
  <fix>3d</fix>
</trkpt>
<trkpt lat="-27.2737762" lon="151.2901441">
  <ele>375.18</ele>
  <time>2026-09-01T19:58:26Z</time>
  <course>79.26</course>
  <speed>15.443293042612382</speed>
  <fix>3d</fix>
</trkpt>
<trkpt lat="-27.2737812" lon="151.2901164">
  <ele>374.91</ele>
  <time>2026-09-01T19:58:26Z</time>
  <course>80.2</course>
  <speed>14.69</speed>
  <fix>3d</fix>
</trkpt>
<trkpt lat="-27.2737731" lon="151.2901596">
  <ele>375.18</ele>
  <time>2026-09-01T19:58:26Z</time>
  <course>78.01</course>
  <speed>15.845030766773537</speed>
  <fix>3d</fix>
</trkpt>
<trkpt lat="-27.2737812" lon="151.2901164">
  <ele>374.91</ele>
  <time>2026-09-01T19:58:26Z</time>
  <course>80.2</course>
  <speed>14.69</speed>
  <fix>3d</fix>
</trkpt>
<trkpt lat="-27.2737695" lon="151.2901753">
  <ele>375.17</ele>
  <time>2026-09-01T19:58:26Z</time>
  <course>76.71</course>
  <speed>16.23534723989604</speed>
  <fix>3d</fix>
</trkpt>
<trkpt lat="-27.2737759" lon="151.2901464">
  <ele>374.9</ele>
  <time>2026-09-01T19:58:26Z</time>
  <course>77.48</course>
  <speed>15.53</speed>
  <fix>3d</fix>
</trkpt>
<trkpt lat="-27.2737656" lon="151.2901913">
  <ele>375.16</ele>
  <time>2026-09-01T19:58:26Z</time>
  <course>75.48</course>
  <speed>16.616801738000007</speed>
  <fix>3d</fix>
</trkpt>
<trkpt lat="-27.2737759" lon="151.2901464">
  <ele>374.9</ele>
  <time>2026-09-01T19:58:26Z</time>
  <course>77.48</course>
  <speed>15.53</speed>
  <fix>3d</fix>
</trkpt>
<trkpt lat="-27.2737612" lon="151.2902076">
  <ele>375.15</ele>
  <time>2026-09-01T19:58:26Z</time>
  <course>74.25</course>
  <speed>16.986821362456247</speed>
  <fix>3d</fix>
</trkpt>
<trkpt lat="-27.273769" lon="151.2901776">
  <ele>374.89</ele>
  <time>2026-09-01T19:58:26Z</time>
  <course>74.91</course>
  <speed>16.33</speed>
  <fix>3d</fix>
</trkpt>
<trkpt lat="-27.2737564" lon="151.2902241">
  <ele>375.13</ele>
  <time>2026-09-01T19:58:26Z</time>
  <course>73.04</course>
  <speed>17.33580110638098</speed>
  <fix>3d</fix>
</trkpt>
<trkpt lat="-27.273769" lon="151.2901776">
  <ele>374.89</ele>
  <time>2026-09-01T19:58:26Z</time>
  <course>74.91</course>
  <speed>16.33</speed>
  <fix>3d</fix>
</trkpt>
<trkpt lat="-27.2737513" lon="151.2902407">
  <ele>375.11</ele>
  <time>2026-09-01T19:58:26Z</time>
  <course>71.84</course>
  <speed>17.676673895277926</speed>
  <fix>3d</fix>
</trkpt>
<trkpt lat="-27.2737606" lon="151.2902101">
  <ele>374.86</ele>
  <time>2026-09-01T19:58:26Z</time>
  <course>72.43</course>
  <speed>17.08</speed>
  <fix>3d</fix>
</trkpt>
<trkpt lat="-27.2737457" lon="151.2902577">
  <ele>375.1</ele>
  <time>2026-09-01T19:58:26Z</time>
  <course>70.67</course>
  <speed>18.004280046700007</speed>
  <fix>3d</fix>
</trkpt>
<trkpt lat="-27.2737606" lon="151.2902101">
  <ele>374.86</ele>
  <time>2026-09-01T19:58:26Z</time>
  <course>72.43</course>
  <speed>17.08</speed>
  <fix>3d</fix>
</trkpt>
<trkpt lat="-27.2737397" lon="151.2902747">
  <ele>375.08</ele>
  <time>2026-09-01T19:58:26Z</time>
  <course>69.45</course>
  <speed>18.31787378491292</speed>
  <fix>3d</fix>
</trkpt>
<trkpt lat="-27.2737505" lon="151.2902435">
  <ele>374.83</ele>
  <time>2026-09-01T19:58:26Z</time>
  <course>70.0</course>
  <speed>17.77</speed>
  <fix>3d</fix>
</trkpt>
<trkpt lat="-27.2737333" lon="151.2902918">
  <ele>375.07</ele>
  <time>2026-09-01T19:58:26Z</time>
  <course>68.09</course>
  <speed>18.623761703801947</speed>
  <fix>3d</fix>
</trkpt>
<trkpt lat="-27.2737505" lon="151.2902435">
  <ele>374.83</ele>
  <time>2026-09-01T19:58:26Z</time>
  <course>70.0</course>
  <speed>17.77</speed>
  <fix>3d</fix>
</trkpt>
<trkpt lat="-27.2737264" lon="151.2903091">
  <ele>375.05</ele>
  <time>2026-09-01T19:58:26Z</time>
  <course>66.62</course>
  <speed>18.910835518294796</speed>
  <fix>3d</fix>
</trkpt>
<trkpt lat="-27.2737387" lon="151.2902776">
  <ele>374.8</ele>
  <time>2026-09-01T19:58:26Z</time>
  <course>67.53</course>
  <speed>18.42</speed>
  <fix>3d</fix>
</trkpt>
<trkpt lat="-27.2737189" lon="151.2903265">
  <ele>375.04</ele>
  <time>2026-09-01T19:58:26Z</time>
  <course>65.02</course>
  <speed>19.198921844728677</speed>
  <fix>3d</fix>
</trkpt>
<trkpt lat="-27.2737387" lon="151.2902776">
  <ele>374.8</ele>
  <time>2026-09-01T19:58:26Z</time>
  <course>67.53</course>
  <speed>18.42</speed>
  <fix>3d</fix>
</trkpt>
<trkpt lat="-27.273711" lon="151.290344">
  <ele>375.03</ele>
  <time>2026-09-01T19:58:26Z</time>
  <course>63.37</course>
  <speed>19.477669265084057</speed>
  <fix>3d</fix>
</trkpt>
<trkpt lat="-27.2737252" lon="151.2903122">
  <ele>374.78</ele>
  <time>2026-09-01T19:58:26Z</time>
  <course>64.89</course>
  <speed>19.03</speed>
  <fix>3d</fix>
</trkpt>
<trkpt lat="-27.2737025" lon="151.2903614">
  <ele>375.02</ele>
  <time>2026-09-01T19:58:26Z</time>
  <course>61.67</course>
  <speed>19.75010126556317</speed>
  <fix>3d</fix>
</trkpt>
<trkpt lat="-27.2737252" lon="151.2903122">
  <ele>374.78</ele>
  <time>2026-09-01T19:58:26Z</time>
  <course>64.89</course>
  <speed>19.03</speed>
  <fix>3d</fix>
</trkpt>
<trkpt lat="-27.2736934" lon="151.2903788">
  <ele>375.01</ele>
  <time>2026-09-01T19:58:26Z</time>
  <course>59.89</course>
  <speed>20.012778417800963</speed>
  <fix>3d</fix>
</trkpt>
<trkpt lat="-27.2737097" lon="151.2903471">
  <ele>374.76</ele>
  <time>2026-09-01T19:58:26Z</time>
  <course>61.91</course>
  <speed>19.58</speed>
  <fix>3d</fix>
</trkpt>
<trkpt lat="-27.2736837" lon="151.2903961">
  <ele>375.01</ele>
  <time>2026-09-01T19:58:26Z</time>
  <course>58.01</course>
  <speed>20.260844010060392</speed>
  <fix>3d</fix>
</trkpt>
<trkpt lat="-27.2737097" lon="151.2903471">
  <ele>374.76</ele>
  <time>2026-09-01T19:58:26Z</time>
  <course>61.91</course>
  <speed>19.58</speed>
  <fix>3d</fix>
</trkpt>
<trkpt lat="-27.2736734" lon="151.2904133">
  <ele>375.01</ele>
  <time>2026-09-01T19:58:26Z</time>
  <course>56.02</course>
  <speed>20.505006705680444</speed>
  <fix>3d</fix>
</trkpt>
<trkpt lat="-27.2736919" lon="151.290382">
  <ele>374.74</ele>
  <time>2026-09-01T19:58:26Z</time>
  <course>58.48</course>
  <speed>20.1</speed>
  <fix>3d</fix>
</trkpt>
<trkpt lat="-27.2736623" lon="151.2904301">
  <ele>375.01</ele>
  <time>2026-09-01T19:58:26Z</time>
  <course>53.98</course>
  <speed>20.741166794565824</speed>
  <fix>3d</fix>
</trkpt>
<trkpt lat="-27.2736919" lon="151.290382">
  <ele>374.74</ele>
  <time>2026-09-01T19:58:26Z</time>
  <course>58.48</course>
  <speed>20.1</speed>
  <fix>3d</fix>
</trkpt>
<trkpt lat="-27.2736508" lon="151.2904465">
  <ele>375.02</ele>
  <time>2026-09-01T19:58:26Z</time>
  <course>51.82</course>
  <speed>20.957130051607734</speed>
  <fix>3d</fix>
</trkpt>
<trkpt lat="-27.2736718" lon="151.2904162">
  <ele>374.74</ele>
  <time>2026-09-01T19:58:26Z</time>
  <course>54.58</course>
  <speed>20.57</speed>
  <fix>3d</fix>
</trkpt>
<trkpt lat="-27.2736385" lon="151.2904627">
  <ele>375.03</ele>
  <time>2026-09-01T19:58:26Z</time>
  <course>49.68</course>
  <speed>21.171990931416914</speed>
  <fix>3d</fix>
</trkpt>
<trkpt lat="-27.2736718" lon="151.2904162">
  <ele>374.74</ele>
  <time>2026-09-01T19:58:26Z</time>
  <course>54.58</course>
  <speed>20.57</speed>
  <fix>3d</fix>
</trkpt>
<trkpt lat="-27.2736255" lon="151.2904784">
  <ele>375.04</ele>
  <time>2026-09-01T19:58:26Z</time>
  <course>47.49</course>
  <speed>21.363297966372137</speed>
  <fix>3d</fix>
</trkpt>
<trkpt lat="-27.2736491" lon="151.2904495">
  <ele>374.76</ele>
  <time>2026-09-01T19:58:26Z</time>
  <course>50.27</course>
  <speed>21.01</speed>
  <fix>3d</fix>
</trkpt>
<trkpt lat="-27.2736119" lon="151.2904936">
  <ele>375.06</ele>
  <time>2026-09-01T19:58:26Z</time>
  <course>45.29</course>
  <speed>21.554732658977706</speed>
  <fix>3d</fix>
</trkpt>
<trkpt lat="-27.2736491" lon="151.2904495">
  <ele>374.76</ele>
  <time>2026-09-01T19:58:26Z</time>
  <course>50.27</course>
  <speed>21.01</speed>
  <fix>3d</fix>
</trkpt>
<trkpt lat="-27.2735975" lon="151.2905084">
  <ele>375.08</ele>
  <time>2026-09-01T19:58:26Z</time>
  <course>42.98</course>
  <speed>21.742182503143514</speed>
  <fix>3d</fix>
</trkpt>
<trkpt lat="-27.2736235" lon="151.2904813">
  <ele>374.8</ele>
  <time>2026-09-01T19:58:26Z</time>
  <course>45.66</course>
  <speed>21.42</speed>
  <fix>3d</fix>
</trkpt>
<trkpt lat="-27.2735825" lon="151.2905225">
  <ele>375.11</ele>
  <time>2026-09-01T19:58:26Z</time>
  <course>40.67</course>
  <speed>21.919055636591647</speed>
  <fix>3d</fix>
</trkpt>
<trkpt lat="-27.2736235" lon="151.2904813">
  <ele>374.8</ele>
  <time>2026-09-01T19:58:26Z</time>
  <course>45.66</course>
  <speed>21.42</speed>
  <fix>3d</fix>
</trkpt>
<trkpt lat="-27.2735669" lon="151.290536">
  <ele>375.14</ele>
  <time>2026-09-01T19:58:26Z</time>
  <course>38.38</course>
  <speed>22.099850678228577</speed>
  <fix>3d</fix>
</trkpt>
<trkpt lat="-27.2735952" lon="151.2905113">
  <ele>374.84</ele>
  <time>2026-09-01T19:58:26Z</time>
  <course>40.92</course>
  <speed>21.79</speed>
  <fix>3d</fix>
</trkpt>
<trkpt lat="-27.2735507" lon="151.2905488">
  <ele>375.17</ele>
  <time>2026-09-01T19:58:27Z</time>
  <course>36.14</course>
  <speed>22.276777145718366</speed>
  <fix>3d</fix>
</trkpt>
<trkpt lat="-27.2735952" lon="151.2905113">
  <ele>374.84</ele>
  <time>2026-09-01T19:58:27Z</time>
  <course>40.92</course>
  <speed>21.79</speed>
  <fix>3d</fix>
</trkpt>
<trkpt lat="-27.2735339" lon="151.2905611">
  <ele>375.21</ele>
  <time>2026-09-01T19:58:27Z</time>
  <course>33.95</course>
  <speed>22.441312350216954</speed>
  <fix>3d</fix>
</trkpt>
<trkpt lat="-27.2735644" lon="151.290539">
  <ele>374.9</ele>
  <time>2026-09-01T19:58:27Z</time>
  <course>36.13</course>
  <speed>22.15</speed>
  <fix>3d</fix>
</trkpt>
<trkpt lat="-27.2735165" lon="151.2905726">
  <ele>375.24</ele>
  <time>2026-09-01T19:58:27Z</time>
  <course>31.75</course>
  <speed>22.601827359751248</speed>
  <fix>3d</fix>
</trkpt>
<trkpt lat="-27.2735644" lon="151.290539">
  <ele>374.9</ele>
  <time>2026-09-01T19:58:27Z</time>
  <course>36.13</course>
  <speed>22.15</speed>
  <fix>3d</fix>
</trkpt>
<trkpt lat="-27.2734986" lon="151.2905835">
  <ele>375.28</ele>
  <time>2026-09-01T19:58:27Z</time>
  <course>29.62</course>
  <speed>22.759044356035687</speed>
  <fix>3d</fix>
</trkpt>
<trkpt lat="-27.273531" lon="151.2905641">
  <ele>374.97</ele>
  <time>2026-09-01T19:58:27Z</time>
  <course>31.4</course>
  <speed>22.48</speed>
  <fix>3d</fix>
</trkpt>
<trkpt lat="-27.2734801" lon="151.2905936">
  <ele>375.31</ele>
  <time>2026-09-01T19:58:27Z</time>
  <course>27.49</course>
  <speed>22.91412882917437</speed>
  <fix>3d</fix>
</trkpt>
<trkpt lat="-27.273531" lon="151.2905641">
  <ele>374.97</ele>
  <time>2026-09-01T19:58:27Z</time>
  <course>31.4</course>
  <speed>22.48</speed>
  <fix>3d</fix>
</trkpt>
<trkpt lat="-27.2734611" lon="151.2906031">
  <ele>375.34</ele>
  <time>2026-09-01T19:58:27Z</time>
  <course>25.43</course>
  <speed>23.061561091998957</speed>
  <fix>3d</fix>
</trkpt>
<trkpt lat="-27.2734955" lon="151.2905864">
  <ele>375.04</ele>
  <time>2026-09-01T19:58:27Z</time>
  <course>26.85</course>
  <speed>22.78</speed>
  <fix>3d</fix>
</trkpt>
<trkpt lat="-27.2734418" lon="151.2906118">
  <ele>375.37</ele>
  <time>2026-09-01T19:58:27Z</time>
  <course>23.43</course>
  <speed>23.19994827580441</speed>
  <fix>3d</fix>
</trkpt>
<trkpt lat="-27.2734955" lon="151.2905864">
  <ele>375.04</ele>
  <time>2026-09-01T19:58:27Z</time>
  <course>26.85</course>
  <speed>22.78</speed>
  <fix>3d</fix>
</trkpt>
<trkpt lat="-27.273422" lon="151.2906198">
  <ele>375.4</ele>
  <time>2026-09-01T19:58:27Z</time>
  <course>21.49</course>
  <speed>23.33760913204264</speed>
  <fix>3d</fix>
</trkpt>
<trkpt lat="-27.273458" lon="151.2906057">
  <ele>375.12</ele>
  <time>2026-09-01T19:58:27Z</time>
  <course>22.51</course>
  <speed>23.06</speed>
  <fix>3d</fix>
</trkpt>
<trkpt lat="-27.2734019" lon="151.290627">
  <ele>375.42</ele>
  <time>2026-09-01T19:58:27Z</time>
  <course>19.62</course>
  <speed>23.474575608517398</speed>
  <fix>3d</fix>
</trkpt>
<trkpt lat="-27.273458" lon="151.2906057">
  <ele>375.12</ele>
  <time>2026-09-01T19:58:27Z</time>
  <course>22.51</course>
  <speed>23.06</speed>
  <fix>3d</fix>
</trkpt>
<trkpt lat="-27.2733815" lon="151.2906335">
  <ele>375.45</ele>
  <time>2026-09-01T19:58:27Z</time>
  <course>17.85</course>
  <speed>23.590093259671526</speed>
  <fix>3d</fix>
</trkpt>
<trkpt lat="-27.273419" lon="151.290622">
  <ele>375.19</ele>
  <time>2026-09-01T19:58:27Z</time>
  <course>18.38</course>
  <speed>23.31</speed>
  <fix>3d</fix>
</trkpt>
<trkpt lat="-27.2733606" lon="151.2906393">
  <ele>375.47</ele>
  <time>2026-09-01T19:58:27Z</time>
  <course>16.1</course>
  <speed>23.70858283407087</speed>
  <fix>3d</fix>
</trkpt>
<trkpt lat="-27.273419" lon="151.290622">
  <ele>375.19</ele>
  <time>2026-09-01T19:58:27Z</time>
  <course>18.38</course>
  <speed>23.31</speed>
  <fix>3d</fix>
</trkpt>
<trkpt lat="-27.2733397" lon="151.2906444">
  <ele>375.49</ele>
  <time>2026-09-01T19:58:27Z</time>
  <course>14.45</course>
  <speed>23.812639500903714</speed>
  <fix>3d</fix>
</trkpt>
<trkpt lat="-27.2733787" lon="151.2906354">
  <ele>375.26</ele>
  <time>2026-09-01T19:58:27Z</time>
  <course>14.54</course>
  <speed>23.54</speed>
  <fix>3d</fix>
</trkpt>
<trkpt lat="-27.2733186" lon="151.2906488">
  <ele>375.51</ele>
  <time>2026-09-01T19:58:27Z</time>
  <course>12.89</course>
  <speed>23.913479462428718</speed>
  <fix>3d</fix>
</trkpt>
<trkpt lat="-27.2733787" lon="151.2906354">
  <ele>375.26</ele>
  <time>2026-09-01T19:58:27Z</time>
  <course>14.54</course>
  <speed>23.54</speed>
  <fix>3d</fix>
</trkpt>
<trkpt lat="-27.2732973" lon="151.2906525">
  <ele>375.52</ele>
  <time>2026-09-01T19:58:27Z</time>
  <course>11.37</course>
  <speed>24.00650953387435</speed>
  <fix>3d</fix>
</trkpt>
<trkpt lat="-27.2733372" lon="151.2906459">
  <ele>375.31</ele>
  <time>2026-09-01T19:58:27Z</time>
  <course>11.0</course>
  <speed>23.75</speed>
  <fix>3d</fix>
</trkpt>
<trkpt lat="-27.273276" lon="151.2906556">
  <ele>375.54</ele>
  <time>2026-09-01T19:58:27Z</time>
  <course>9.86</course>
  <speed>24.100593353691526</speed>
  <fix>3d</fix>
</trkpt>
<trkpt lat="-27.2733372" lon="151.2906459">
  <ele>375.31</ele>
  <time>2026-09-01T19:58:27Z</time>
  <course>11.0</course>
  <speed>23.75</speed>
  <fix>3d</fix>
</trkpt>
<trkpt lat="-27.2732546" lon="151.2906581">
  <ele>375.55</ele>
  <time>2026-09-01T19:58:27Z</time>
  <course>8.39</course>
  <speed>24.171396318789693</speed>
  <fix>3d</fix>
</trkpt>
<trkpt lat="-27.273295" lon="151.2906538">
  <ele>375.35</ele>
  <time>2026-09-01T19:58:27Z</time>
  <course>7.79</course>
  <speed>23.93</speed>
  <fix>3d</fix>
</trkpt>
<trkpt lat="-27.273233" lon="151.29066">
  <ele>375.56</ele>
  <time>2026-09-01T19:58:27Z</time>
  <course>7.03</course>
  <speed>24.238970687716918</speed>
  <fix>3d</fix>
</trkpt>
<trkpt lat="-27.273295" lon="151.2906538">
  <ele>375.35</ele>
  <time>2026-09-01T19:58:27Z</time>
  <course>7.79</course>
  <speed>23.93</speed>
  <fix>3d</fix>
</trkpt>
<trkpt lat="-27.2732115" lon="151.2906613">
  <ele>375.57</ele>
  <time>2026-09-01T19:58:27Z</time>
  <course>5.78</course>
  <speed>24.300997921896126</speed>
  <fix>3d</fix>
</trkpt>
<trkpt lat="-27.2732521" lon="151.2906591">
  <ele>375.38</ele>
  <time>2026-09-01T19:58:27Z</time>
  <course>4.88</course>
  <speed>24.09</speed>
  <fix>3d</fix>
</trkpt>
<trkpt lat="-27.2731896" lon="151.2906622">
  <ele>375.57</ele>
  <time>2026-09-01T19:58:27Z</time>
  <course>4.58</course>
  <speed>24.345135037620967</speed>
  <fix>3d</fix>
</trkpt>
<trkpt lat="-27.2732521" lon="151.2906591">
  <ele>375.38</ele>
  <time>2026-09-01T19:58:27Z</time>
  <course>4.88</course>
  <speed>24.09</speed>
  <fix>3d</fix>
</trkpt>
<trkpt lat="-27.273168" lon="151.2906625">
  <ele>375.58</ele>
  <time>2026-09-01T19:58:27Z</time>
  <course>3.45</course>
  <speed>24.39001845017752</speed>
  <fix>3d</fix>
</trkpt>
<trkpt lat="-27.2732088" lon="151.2906621">
  <ele>375.4</ele>
  <time>2026-09-01T19:58:27Z</time>
  <course>2.26</course>
  <speed>24.24</speed>
  <fix>3d</fix>
</trkpt>
<trkpt lat="-27.2731463" lon="151.2906623">
  <ele>375.57</ele>
  <time>2026-09-01T19:58:27Z</time>
  <course>2.36</course>
  <speed>24.433274442857634</speed>
  <fix>3d</fix>
</trkpt>
<trkpt lat="-27.2732088" lon="151.2906621">
  <ele>375.4</ele>
  <time>2026-09-01T19:58:27Z</time>
  <course>2.26</course>
  <speed>24.24</speed>
  <fix>3d</fix>
</trkpt>
<trkpt lat="-27.2731245" lon="151.2906618">
  <ele>375.57</ele>
  <time>2026-09-01T19:58:27Z</time>
  <course>1.26</course>
  <speed>24.484072373688164</speed>
  <fix>3d</fix>
</trkpt>
<trkpt lat="-27.2731652" lon="151.290663">
  <ele>375.41</ele>
  <time>2026-09-01T19:58:27Z</time>
  <course>359.94</course>
  <speed>24.36</speed>
  <fix>3d</fix>
</trkpt>
<trkpt lat="-27.2731027" lon="151.2906608">
  <ele>375.56</ele>
  <time>2026-09-01T19:58:27Z</time>
  <course>0.24</course>
  <speed>24.520369083682244</speed>
  <fix>3d</fix>
</trkpt>
<trkpt lat="-27.2731652" lon="151.290663">
  <ele>375.41</ele>
  <time>2026-09-01T19:58:27Z</time>
  <course>359.94</course>
  <speed>24.36</speed>
  <fix>3d</fix>
</trkpt>
<trkpt lat="-27.2730808" lon="151.2906594">
  <ele>375.54</ele>
  <time>2026-09-01T19:58:27Z</time>
  <course>359.37</course>
  <speed>24.572146833355852</speed>
  <fix>3d</fix>
</trkpt>
<trkpt lat="-27.2731212" lon="151.2906621">
  <ele>375.4</ele>
  <time>2026-09-01T19:58:27Z</time>
  <course>357.89</course>
  <speed>24.47</speed>
  <fix>3d</fix>
</trkpt>
<trkpt lat="-27.2730588" lon="151.2906576">
  <ele>375.52</ele>
  <time>2026-09-01T19:58:27Z</time>
  <course>358.52</course>
  <speed>24.617353635189954</speed>
  <fix>3d</fix>
</trkpt>
<trkpt lat="-27.2731212" lon="151.2906621">
  <ele>375.4</ele>
  <time>2026-09-01T19:58:27Z</time>
  <course>357.89</course>
  <speed>24.47</speed>
  <fix>3d</fix>
</trkpt>
<trkpt lat="-27.2730367" lon="151.2906556">
  <ele>375.51</ele>
  <time>2026-09-01T19:58:27Z</time>
  <course>357.66</course>
  <speed>24.66468122640145</speed>
  <fix>3d</fix>
</trkpt>
<trkpt lat="-27.2730771" lon="151.2906595">
  <ele>375.38</ele>
  <time>2026-09-01T19:58:27Z</time>
  <course>356.09</course>
  <speed>24.58</speed>
  <fix>3d</fix>
</trkpt>
<trkpt lat="-27.2730146" lon="151.2906531">
  <ele>375.49</ele>
  <time>2026-09-01T19:58:27Z</time>
  <course>356.85</course>
  <speed>24.715031863220407</speed>
  <fix>3d</fix>
</trkpt>
<trkpt lat="-27.2730771" lon="151.2906595">
  <ele>375.38</ele>
  <time>2026-09-01T19:58:27Z</time>
  <course>356.09</course>
  <speed>24.58</speed>
  <fix>3d</fix>
</trkpt>
<trkpt lat="-27.2729924" lon="151.2906504">
  <ele>375.46</ele>
  <time>2026-09-01T19:58:27Z</time>
  <course>356.12</course>
  <speed>24.765694014099424</speed>
  <fix>3d</fix>
</trkpt>
<trkpt lat="-27.273033" lon="151.2906554">
  <ele>375.34</ele>
  <time>2026-09-01T19:58:27Z</time>
  <course>354.52</course>
  <speed>24.68</speed>
  <fix>3d</fix>
</trkpt>
<trkpt lat="-27.2729702" lon="151.2906474">
  <ele>375.44</ele>
  <time>2026-09-01T19:58:27Z</time>
  <course>355.47</course>
  <speed>24.806984903450076</speed>
  <fix>3d</fix>
</trkpt>
<trkpt lat="-27.273033" lon="151.2906554">
  <ele>375.34</ele>
  <time>2026-09-01T19:58:27Z</time>
  <course>354.52</course>
  <speed>24.68</speed>
  <fix>3d</fix>
</trkpt>
<trkpt lat="-27.272948" lon="151.2906441">
  <ele>375.42</ele>
  <time>2026-09-01T19:58:27Z</time>
  <course>354.83</course>
  <speed>24.849573436982777</speed>
  <fix>3d</fix>
</trkpt>
<trkpt lat="-27.2729889" lon="151.2906501">
  <ele>375.31</ele>
  <time>2026-09-01T19:58:27Z</time>
  <course>353.17</course>
  <speed>24.77</speed>
  <fix>3d</fix>
</trkpt>
<trkpt lat="-27.2729258" lon="151.2906405">
  <ele>375.4</ele>
  <time>2026-09-01T19:58:27Z</time>
  <course>354.28</course>
  <speed>24.89025913886796</speed>
  <fix>3d</fix>
</trkpt>
<trkpt lat="-27.2729889" lon="151.2906501">
  <ele>375.31</ele>
  <time>2026-09-01T19:58:27Z</time>
  <course>353.17</course>
  <speed>24.77</speed>
  <fix>3d</fix>
</trkpt>
<trkpt lat="-27.2729036" lon="151.2906368">
  <ele>375.37</ele>
  <time>2026-09-01T19:58:27Z</time>
  <course>353.72</course>
  <speed>24.929775370026906</speed>
  <fix>3d</fix>
</trkpt>
<trkpt lat="-27.2729446" lon="151.2906436">
  <ele>375.27</ele>
  <time>2026-09-01T19:58:27Z</time>
  <course>352.03</course>
  <speed>24.85</speed>
  <fix>3d</fix>
</trkpt>
<trkpt lat="-27.2728814" lon="151.2906329">
  <ele>375.35</ele>
  <time>2026-09-01T19:58:27Z</time>
  <course>353.23</course>
  <speed>24.957774339872536</speed>
  <fix>3d</fix>
</trkpt>
<trkpt lat="-27.2729446" lon="151.2906436">
  <ele>375.27</ele>
  <time>2026-09-01T19:58:27Z</time>
  <course>352.03</course>
  <speed>24.85</speed>
  <fix>3d</fix>
</trkpt>
<trkpt lat="-27.2728592" lon="151.2906287">
  <ele>375.33</ele>
  <time>2026-09-01T19:58:27Z</time>
  <course>352.81</course>
  <speed>24.993587177514154</speed>
  <fix>3d</fix>
</trkpt>
<trkpt lat="-27.2729005" lon="151.2906363">
  <ele>375.23</ele>
  <time>2026-09-01T19:58:27Z</time>
  <course>351.09</course>
  <speed>24.92</speed>
  <fix>3d</fix>
</trkpt>
<trkpt lat="-27.272837" lon="151.2906245">
  <ele>375.3</ele>
  <time>2026-09-01T19:58:27Z</time>
  <course>352.39</course>
  <speed>25.02695546805484</speed>
  <fix>3d</fix>
</trkpt>
<trkpt lat="-27.2729005" lon="151.2906363">
  <ele>375.23</ele>
  <time>2026-09-01T19:58:27Z</time>
  <course>351.09</course>
  <speed>24.92</speed>
  <fix>3d</fix>
</trkpt>
<trkpt lat="-27.2728148" lon="151.2906201">
  <ele>375.28</ele>
  <time>2026-09-01T19:58:27Z</time>
  <course>351.97</course>
  <speed>25.0610654202889</speed>
  <fix>3d</fix>
</trkpt>
<trkpt lat="-27.2728563" lon="151.2906281">
  <ele>375.2</ele>
  <time>2026-09-01T19:58:27Z</time>
  <course>350.32</course>
  <speed>24.99</speed>
  <fix>3d</fix>
</trkpt>
<trkpt lat="-27.2727926" lon="151.2906155">
  <ele>375.27</ele>
  <time>2026-09-01T19:58:27Z</time>
  <course>351.62</course>
  <speed>25.080655892539973</speed>
  <fix>3d</fix>
</trkpt>
<trkpt lat="-27.2728563" lon="151.2906281">
  <ele>375.2</ele>
  <time>2026-09-01T19:58:27Z</time>
  <course>350.32</course>
  <speed>24.99</speed>
  <fix>3d</fix>
</trkpt>
<trkpt lat="-27.2727704" lon="151.2906109">
  <ele>375.24</ele>
  <time>2026-09-01T19:58:27Z</time>
  <course>351.37</course>
  <speed>25.11485815209793</speed>
  <fix>3d</fix>
</trkpt>
<trkpt lat="-27.272812" lon="151.2906193">
  <ele>375.16</ele>
  <time>2026-09-01T19:58:27Z</time>
  <course>349.72</course>
  <speed>25.05</speed>
  <fix>3d</fix>
</trkpt>
<trkpt lat="-27.2727482" lon="151.2906062">
  <ele>375.21</ele>
  <time>2026-09-01T19:58:27Z</time>
  <course>351.15</course>
  <speed>25.133891461530585</speed>
  <fix>3d</fix>
</trkpt>
<trkpt lat="-27.272812" lon="151.2906193">
  <ele>375.16</ele>
  <time>2026-09-01T19:58:27Z</time>
  <course>349.72</course>
  <speed>25.05</speed>
  <fix>3d</fix>
</trkpt>
<trkpt lat="-27.2727257" lon="151.2906014">
  <ele>375.15</ele>
  <time>2026-09-01T19:58:27Z</time>
  <course>350.85</course>
  <speed>25.159109682180727</speed>
  <fix>3d</fix>
</trkpt>
<trkpt lat="-27.2727677" lon="151.29061">
  <ele>375.12</ele>
  <time>2026-09-01T19:58:27Z</time>
  <course>349.32</course>
  <speed>25.11</speed>
  <fix>3d</fix>
</trkpt>
<trkpt lat="-27.2727035" lon="151.2905966">
  <ele>375.07</ele>
  <time>2026-09-01T19:58:27Z</time>
  <course>350.58</course>
  <speed>25.180621517349408</speed>
  <fix>3d</fix>
</trkpt>
<trkpt lat="-27.2727677" lon="151.29061">
  <ele>375.12</ele>
  <time>2026-09-01T19:58:27Z</time>
  <course>349.32</course>
  <speed>25.11</speed>
  <fix>3d</fix>
</trkpt>
<trkpt lat="-27.2726814" lon="151.2905918">
  <ele>374.99</ele>
  <time>2026-09-01T19:58:27Z</time>
  <course>350.29</course>
  <speed>25.194177898871793</speed>
  <fix>3d</fix>
</trkpt>
<trkpt lat="-27.2727234" lon="151.2906006">
  <ele>375.03</ele>
  <time>2026-09-01T19:58:27Z</time>
  <course>349.16</course>
  <speed>25.15</speed>
  <fix>3d</fix>
</trkpt>
<trkpt lat="-27.2726593" lon="151.2905871">
  <ele>374.9</ele>
  <time>2026-09-01T19:58:27Z</time>
  <course>350.14</course>
  <speed>25.21569550894839</speed>
  <fix>3d</fix>
</trkpt>
<trkpt lat="-27.2727234" lon="151.2906006">
  <ele>375.03</ele>
  <time>2026-09-01T19:58:27Z</time>
  <course>349.16</course>
  <speed>25.15</speed>
  <fix>3d</fix>
</trkpt>
<trkpt lat="-27.2726372" lon="151.2905823">
  <ele>374.8</ele>
  <time>2026-09-01T19:58:27Z</time>
  <course>350.02</course>
  <speed>25.22926871710712</speed>
  <fix>3d</fix>
</trkpt>
<trkpt lat="-27.2726789" lon="151.290591">
  <ele>374.88</ele>
  <time>2026-09-01T19:58:27Z</time>
  <course>349.11</course>
  <speed>25.2</speed>
  <fix>3d</fix>
</trkpt>
<trkpt lat="-27.2726151" lon="151.2905775">
  <ele>374.69</ele>
  <time>2026-09-01T19:58:27Z</time>
  <course>349.95</course>
  <speed>25.252675105818</speed>
  <fix>3d</fix>
</trkpt>
<trkpt lat="-27.2726789" lon="151.290591">
  <ele>374.88</ele>
  <time>2026-09-01T19:58:27Z</time>
  <course>349.11</course>
  <speed>25.2</speed>
  <fix>3d</fix>
</trkpt>
<trkpt lat="-27.2725928" lon="151.2905726">
  <ele>374.56</ele>
  <time>2026-09-01T19:58:27Z</time>
  <course>349.98</course>
  <speed>25.287803384240398</speed>
  <fix>3d</fix>
</trkpt>
<trkpt lat="-27.2726343" lon="151.2905813">
  <ele>374.68</ele>
  <time>2026-09-01T19:58:27Z</time>
  <course>349.07</course>
  <speed>25.26</speed>
  <fix>3d</fix>
</trkpt>
<trkpt lat="-27.2725706" lon="151.2905678">
  <ele>374.43</ele>
  <time>2026-09-01T19:58:27Z</time>
  <course>350.0</course>
  <speed>25.31915480421888</speed>
  <fix>3d</fix>
</trkpt>
<trkpt lat="-27.2726343" lon="151.2905813">
  <ele>374.68</ele>
  <time>2026-09-01T19:58:27Z</time>
  <course>349.07</course>
  <speed>25.26</speed>
  <fix>3d</fix>
</trkpt>
<trkpt lat="-27.2725482" lon="151.2905628">
  <ele>374.28</ele>
  <time>2026-09-01T19:58:27Z</time>
  <course>350.02</course>
  <speed>25.36412624160351</speed>
  <fix>3d</fix>
</trkpt>
<trkpt lat="-27.2725896" lon="151.2905716">
  <ele>374.44</ele>
  <time>2026-09-01T19:58:27Z</time>
  <course>349.01</course>
  <speed>25.33</speed>
  <fix>3d</fix>
</trkpt>
<trkpt lat="-27.2725258" lon="151.2905579">
  <ele>374.13</ele>
  <time>2026-09-01T19:58:27Z</time>
  <course>350.01</course>
  <speed>25.405298659925258</speed>
  <fix>3d</fix>
</trkpt>
<trkpt lat="-27.2725896" lon="151.2905716">
  <ele>374.44</ele>
  <time>2026-09-01T19:58:27Z</time>
  <course>349.01</course>
  <speed>25.33</speed>
  <fix>3d</fix>
</trkpt>
<trkpt lat="-27.2725033" lon="151.290553">
  <ele>373.97</ele>
  <time>2026-09-01T19:58:27Z</time>
  <course>349.98</course>
  <speed>25.448379123236904</speed>
  <fix>3d</fix>
</trkpt>
<trkpt lat="-27.2725449" lon="151.2905618">
  <ele>374.16</ele>
  <time>2026-09-01T19:58:27Z</time>
  <course>348.97</course>
  <speed>25.41</speed>
  <fix>3d</fix>
</trkpt>
<trkpt lat="-27.2724808" lon="151.290548">
  <ele>373.82</ele>
  <time>2026-09-01T19:58:27Z</time>
  <course>349.94</course>
  <speed>25.489552761866968</speed>
  <fix>3d</fix>
</trkpt>
<trkpt lat="-27.2725449" lon="151.2905618">
  <ele>374.16</ele>
  <time>2026-09-01T19:58:27Z</time>
  <course>348.97</course>
  <speed>25.41</speed>
  <fix>3d</fix>
</trkpt>
<trkpt lat="-27.2724582" lon="151.290543">
  <ele>373.66</ele>
  <time>2026-09-01T19:58:27Z</time>
  <course>349.95</course>
  <speed>25.54245485461411</speed>
  <fix>3d</fix>
</trkpt>
<trkpt lat="-27.2725001" lon="151.290552">
  <ele>373.87</ele>
  <time>2026-09-01T19:58:27Z</time>
  <course>348.95</course>
  <speed>25.49</speed>
  <fix>3d</fix>
</trkpt>
<trkpt lat="-27.2724356" lon="151.2905381">
  <ele>373.51</ele>
  <time>2026-09-01T19:58:27Z</time>
  <course>349.97</course>
  <speed>25.58171612695286</speed>
  <fix>3d</fix>
</trkpt>
<trkpt lat="-27.2725001" lon="151.290552">
  <ele>373.87</ele>
  <time>2026-09-01T19:58:27Z</time>
  <course>348.95</course>
  <speed>25.49</speed>
  <fix>3d</fix>
</trkpt>
<trkpt lat="-27.272413" lon="151.2905331">
  <ele>373.35</ele>
  <time>2026-09-01T19:58:27Z</time>
  <course>349.96</course>
  <speed>25.632705670685645</speed>
  <fix>3d</fix>
</trkpt>
<trkpt lat="-27.272455" lon="151.2905421">
  <ele>373.57</ele>
  <time>2026-09-01T19:58:27Z</time>
  <course>348.94</course>
  <speed>25.58</speed>
  <fix>3d</fix>
</trkpt>
<trkpt lat="-27.2723903" lon="151.2905281">
  <ele>373.2</ele>
  <time>2026-09-01T19:58:27Z</time>
  <course>349.92</course>
  <speed>25.681785374073975</speed>
  <fix>3d</fix>
</trkpt>
<trkpt lat="-27.272455" lon="151.2905421">
  <ele>373.57</ele>
  <time>2026-09-01T19:58:27Z</time>
  <course>348.94</course>
  <speed>25.58</speed>
  <fix>3d</fix>
</trkpt>
<trkpt lat="-27.2723675" lon="151.2905231">
  <ele>373.05</ele>
  <time>2026-09-01T19:58:27Z</time>
  <course>349.94</course>
  <speed>25.73086862117173</speed>
  <fix>3d</fix>
</trkpt>
<trkpt lat="-27.2724098" lon="151.2905321">
  <ele>373.27</ele>
  <time>2026-09-01T19:58:27Z</time>
  <course>348.97</course>
  <speed>25.68</speed>
  <fix>3d</fix>
</trkpt>
<trkpt lat="-27.2723448" lon="151.2905181">
  <ele>372.91</ele>
  <time>2026-09-01T19:58:27Z</time>
  <course>350.02</course>
  <speed>25.779955391737975</speed>
  <fix>3d</fix>
</trkpt>
<trkpt lat="-27.2724098" lon="151.2905321">
  <ele>373.27</ele>
  <time>2026-09-01T19:58:27Z</time>
  <course>348.97</course>
  <speed>25.68</speed>
  <fix>3d</fix>
</trkpt>
<trkpt lat="-27.2723219" lon="151.2905131">
  <ele>372.77</ele>
  <time>2026-09-01T19:58:27Z</time>
  <course>350.04</course>
  <speed>25.838864139121906</speed>
  <fix>3d</fix>
</trkpt>
<trkpt lat="-27.2723645" lon="151.2905222">
  <ele>372.97</ele>
  <time>2026-09-01T19:58:27Z</time>
  <course>349.02</course>
  <speed>25.78</speed>
  <fix>3d</fix>
</trkpt>
<trkpt lat="-27.2722991" lon="151.2905081">
  <ele>372.64</ele>
  <time>2026-09-01T19:58:27Z</time>
  <course>350.05</course>
  <speed>25.878139423072902</speed>
  <fix>3d</fix>
</trkpt>
<trkpt lat="-27.2723645" lon="151.2905222">
  <ele>372.97</ele>
  <time>2026-09-01T19:58:27Z</time>
  <course>349.02</course>
  <speed>25.78</speed>
  <fix>3d</fix>
</trkpt>
<trkpt lat="-27.2722761" lon="151.2905032">
  <ele>372.51</ele>
  <time>2026-09-01T19:58:27Z</time>
  <course>350.08</course>
  <speed>25.925348599392063</speed>
  <fix>3d</fix>
</trkpt>
<trkpt lat="-27.2723189" lon="151.2905123">
  <ele>372.71</ele>
  <time>2026-09-01T19:58:27Z</time>
  <course>349.08</course>
  <speed>25.88</speed>
  <fix>3d</fix>
</trkpt>
<trkpt lat="-27.2722534" lon="151.2904982">
  <ele>372.39</ele>
  <time>2026-09-01T19:58:27Z</time>
  <course>350.08</course>
  <speed>25.962750239525857</speed>
  <fix>3d</fix>
</trkpt>
<trkpt lat="-27.2723189" lon="151.2905123">
  <ele>372.71</ele>
  <time>2026-09-01T19:58:27Z</time>
  <course>349.08</course>
  <speed>25.88</speed>
  <fix>3d</fix>
</trkpt>
<trkpt lat="-27.2722305" lon="151.2904933">
  <ele>372.28</ele>
  <time>2026-09-01T19:58:27Z</time>
  <course>350.11</course>
  <speed>26.00203838163462</speed>
  <fix>3d</fix>
</trkpt>
<trkpt lat="-27.2722732" lon="151.2905024">
  <ele>372.46</ele>
  <time>2026-09-01T19:58:27Z</time>
  <course>349.16</course>
  <speed>25.97</speed>
  <fix>3d</fix>
</trkpt>
<trkpt lat="-27.2722076" lon="151.2904884">
  <ele>372.18</ele>
  <time>2026-09-01T19:58:27Z</time>
  <course>350.2</course>
  <speed>26.041328691140166</speed>
  <fix>3d</fix>
</trkpt>
<trkpt lat="-27.2722732" lon="151.2905024">
  <ele>372.46</ele>
  <time>2026-09-01T19:58:27Z</time>
  <course>349.16</course>
  <speed>25.97</speed>
  <fix>3d</fix>
</trkpt>
<trkpt lat="-27.2721848" lon="151.2904835">
  <ele>372.09</ele>
  <time>2026-09-01T19:58:27Z</time>
  <course>350.27</course>
  <speed>26.070797839728648</speed>
  <fix>3d</fix>
</trkpt>
<trkpt lat="-27.2722273" lon="151.2904926">
  <ele>372.24</ele>
  <time>2026-09-01T19:58:27Z</time>
  <course>349.22</course>
  <speed>26.06</speed>
  <fix>3d</fix>
</trkpt>
<trkpt lat="-27.2721617" lon="151.2904785">
  <ele>372.0</ele>
  <time>2026-09-01T19:58:27Z</time>
  <course>350.3</course>
  <speed>26.098400334120097</speed>
  <fix>3d</fix>
</trkpt>
<trkpt lat="-27.2722273" lon="151.2904926">
  <ele>372.24</ele>
  <time>2026-09-01T19:58:27Z</time>
  <course>349.22</course>
  <speed>26.06</speed>
  <fix>3d</fix>
</trkpt>
<trkpt lat="-27.2721387" lon="151.2904737">
  <ele>371.92</ele>
  <time>2026-09-01T19:58:27Z</time>
  <course>350.31</course>
  <speed>26.12415357480506</speed>
  <fix>3d</fix>
</trkpt>
<trkpt lat="-27.2721811" lon="151.2904827">
  <ele>372.05</ele>
  <time>2026-09-01T19:58:27Z</time>
  <course>349.27</course>
  <speed>26.14</speed>
  <fix>3d</fix>
</trkpt>
<trkpt lat="-27.2721156" lon="151.2904688">
  <ele>371.85</ele>
  <time>2026-09-01T19:58:27Z</time>
  <course>350.33</course>
  <speed>26.151780054137806</speed>
  <fix>3d</fix>
</trkpt>
<trkpt lat="-27.2721811" lon="151.2904827">
  <ele>372.05</ele>
  <time>2026-09-01T19:58:27Z</time>
  <course>349.27</course>
  <speed>26.14</speed>
  <fix>3d</fix>
</trkpt>
<trkpt lat="-27.2720925" lon="151.2904639">
  <ele>371.79</ele>
  <time>2026-09-01T19:58:27Z</time>
  <course>350.33</course>
  <speed>26.181262383620847</speed>
  <fix>3d</fix>
</trkpt>
<trkpt lat="-27.2721348" lon="151.2904729">
  <ele>371.9</ele>
  <time>2026-09-01T19:58:27Z</time>
  <course>349.35</course>
  <speed>26.22</speed>
  <fix>3d</fix>
</trkpt>
<trkpt lat="-27.2720693" lon="151.290459">
  <ele>371.74</ele>
  <time>2026-09-01T19:58:27Z</time>
  <course>350.33</course>
  <speed>26.208901159720526</speed>
  <fix>3d</fix>
</trkpt>
<trkpt lat="-27.2721348" lon="151.2904729">
  <ele>371.9</ele>
  <time>2026-09-01T19:58:27Z</time>
  <course>349.35</course>
  <speed>26.22</speed>
  <fix>3d</fix>
</trkpt>
<trkpt lat="-27.272046" lon="151.2904541">
  <ele>371.69</ele>
  <time>2026-09-01T19:58:27Z</time>
  <course>350.42</course>
  <speed>26.23654893464459</speed>
  <fix>3d</fix>
</trkpt>
<trkpt lat="-27.2720885" lon="151.2904631">
  <ele>371.77</ele>
  <time>2026-09-01T19:58:27Z</time>
  <course>349.42</course>
  <speed>26.28</speed>
  <fix>3d</fix>
</trkpt>
<trkpt lat="-27.2720228" lon="151.2904492">
  <ele>371.65</ele>
  <time>2026-09-01T19:58:27Z</time>
  <course>350.5</course>
  <speed>26.264205679974406</speed>
  <fix>3d</fix>
</trkpt>
<trkpt lat="-27.2720885" lon="151.2904631">
  <ele>371.77</ele>
  <time>2026-09-01T19:58:27Z</time>
  <course>349.42</course>
  <speed>26.28</speed>
  <fix>3d</fix>
</trkpt>
<trkpt lat="-27.2719994" lon="151.2904444">
  <ele>371.61</ele>
  <time>2026-09-01T19:58:27Z</time>
  <course>350.54</course>
  <speed>26.29187136740175</speed>
  <fix>3d</fix>
</trkpt>
<trkpt lat="-27.272042" lon="151.2904534">
  <ele>371.66</ele>
  <time>2026-09-01T19:58:27Z</time>
  <course>349.49</course>
  <speed>26.34</speed>
  <fix>3d</fix>
</trkpt>
<trkpt lat="-27.2719761" lon="151.2904395">
  <ele>371.59</ele>
  <time>2026-09-01T19:58:27Z</time>
  <course>350.53</course>
  <speed>26.307894252486268</speed>
  <fix>3d</fix>
</trkpt>
<trkpt lat="-27.272042" lon="151.2904534">
  <ele>371.66</ele>
  <time>2026-09-01T19:58:27Z</time>
  <course>349.49</course>
  <speed>26.34</speed>
  <fix>3d</fix>
</trkpt>
<trkpt lat="-27.2719527" lon="151.2904347">
  <ele>371.57</ele>
  <time>2026-09-01T19:58:27Z</time>
  <course>350.53</course>
  <speed>26.325747852625195</speed>
  <fix>3d</fix>
</trkpt>
<trkpt lat="-27.2719955" lon="151.2904437">
  <ele>371.6</ele>
  <time>2026-09-01T19:58:27Z</time>
  <course>349.57</course>
  <speed>26.38</speed>
  <fix>3d</fix>
</trkpt>
<trkpt lat="-27.2719293" lon="151.2904299">
  <ele>371.55</ele>
  <time>2026-09-01T19:58:27Z</time>
  <course>350.6</course>
  <speed>26.35344379772784</speed>
  <fix>3d</fix>
</trkpt>
<trkpt lat="-27.2719955" lon="151.2904437">
  <ele>371.6</ele>
  <time>2026-09-01T19:58:27Z</time>
  <course>349.57</course>
  <speed>26.38</speed>
  <fix>3d</fix>
</trkpt>
<trkpt lat="-27.2719059" lon="151.2904251">
  <ele>371.54</ele>
  <time>2026-09-01T19:58:27Z</time>
  <course>350.63</course>
  <speed>26.371312064438506</speed>
  <fix>3d</fix>
</trkpt>
<trkpt lat="-27.2719488" lon="151.2904341">
  <ele>371.55</ele>
  <time>2026-09-01T19:58:27Z</time>
  <course>349.64</course>
  <speed>26.42</speed>
  <fix>3d</fix>
</trkpt>
<trkpt lat="-27.2718825" lon="151.2904203">
  <ele>371.53</ele>
  <time>2026-09-01T19:58:27Z</time>
  <course>350.72</course>
  <speed>26.37934987826652</speed>
  <fix>3d</fix>
</trkpt>
<trkpt lat="-27.2719488" lon="151.2904341">
  <ele>371.55</ele>
  <time>2026-09-01T19:58:27Z</time>
  <course>349.64</course>
  <speed>26.42</speed>
  <fix>3d</fix>
</trkpt>
<trkpt lat="-27.271859" lon="151.2904155">
  <ele>371.53</ele>
  <time>2026-09-01T19:58:27Z</time>
  <course>350.75</course>
  <speed>26.385602134497518</speed>
  <fix>3d</fix>
</trkpt>
<trkpt lat="-27.2719021" lon="151.2904245">
  <ele>371.52</ele>
  <time>2026-09-01T19:58:27Z</time>
  <course>349.71</course>
  <speed>26.44</speed>
  <fix>3d</fix>
</trkpt>
<trkpt lat="-27.2718356" lon="151.2904108">
  <ele>371.54</ele>
  <time>2026-09-01T19:58:27Z</time>
  <course>350.79</course>
  <speed>26.383815114573554</speed>
  <fix>3d</fix>
</trkpt>
<trkpt lat="-27.2719021" lon="151.2904245">
  <ele>371.52</ele>
  <time>2026-09-01T19:58:27Z</time>
  <course>349.71</course>
  <speed>26.44</speed>
  <fix>3d</fix>
</trkpt>
<trkpt lat="-27.2718121" lon="151.290406">
  <ele>371.54</ele>
  <time>2026-09-01T19:58:27Z</time>
  <course>350.8</course>
  <speed>26.390092838032988</speed>
  <fix>3d</fix>
</trkpt>
<trkpt lat="-27.2718553" lon="151.290415">
  <ele>371.51</ele>
  <time>2026-09-01T19:58:27Z</time>
  <course>349.78</course>
  <speed>26.45</speed>
  <fix>3d</fix>
</trkpt>
<trkpt lat="-27.2717887" lon="151.2904013">
  <ele>371.55</ele>
  <time>2026-09-01T19:58:27Z</time>
  <course>350.77</course>
  <speed>26.390092838032988</speed>
  <fix>3d</fix>
</trkpt>
<trkpt lat="-27.2718553" lon="151.290415">
  <ele>371.51</ele>
  <time>2026-09-01T19:58:27Z</time>
  <course>349.78</course>
  <speed>26.45</speed>
  <fix>3d</fix>
</trkpt>
<trkpt lat="-27.2717655" lon="151.2903966">
  <ele>371.57</ele>
  <time>2026-09-01T19:58:27Z</time>
  <course>350.8</course>
  <speed>26.38831749088979</speed>
  <fix>3d</fix>
</trkpt>
<trkpt lat="-27.2718086" lon="151.2904055">
  <ele>371.52</ele>
  <time>2026-09-01T19:58:27Z</time>
  <course>349.84</course>
  <speed>26.45</speed>
  <fix>3d</fix>
</trkpt>
<trkpt lat="-27.2717422" lon="151.2903919">
  <ele>371.59</ele>
  <time>2026-09-01T19:58:27Z</time>
  <course>350.84</course>
  <speed>26.376703736441367</speed>
  <fix>3d</fix>
</trkpt>
<trkpt lat="-27.2718086" lon="151.2904055">
  <ele>371.52</ele>
  <time>2026-09-01T19:58:27Z</time>
  <course>349.84</course>
  <speed>26.45</speed>
  <fix>3d</fix>
</trkpt>
<trkpt lat="-27.271719" lon="151.2903873">
  <ele>371.61</ele>
  <time>2026-09-01T19:58:27Z</time>
  <course>350.82</course>
  <speed>26.36686177761775</speed>
  <fix>3d</fix>
</trkpt>
<trkpt lat="-27.2717618" lon="151.2903961">
  <ele>371.55</ele>
  <time>2026-09-01T19:58:27Z</time>
  <course>349.88</course>
  <speed>26.45</speed>
  <fix>3d</fix>
</trkpt>
<trkpt lat="-27.2716958" lon="151.2903826">
  <ele>371.64</ele>
  <time>2026-09-01T19:58:27Z</time>
  <course>350.79</course>
  <speed>26.345407569441775</speed>
  <fix>3d</fix>
</trkpt>
<trkpt lat="-27.2717618" lon="151.2903961">
  <ele>371.55</ele>
  <time>2026-09-01T19:58:27Z</time>
  <course>349.88</course>
  <speed>26.45</speed>
  <fix>3d</fix>
</trkpt>
<trkpt lat="-27.2716724" lon="151.2903779">
  <ele>371.66</ele>
  <time>2026-09-01T19:58:27Z</time>
  <course>350.82</course>
  <speed>26.335565306254583</speed>
  <fix>3d</fix>
</trkpt>
<trkpt lat="-27.2717149" lon="151.2903868">
  <ele>371.59</ele>
  <time>2026-09-01T19:58:27Z</time>
  <course>349.9</course>
  <speed>26.43</speed>
  <fix>3d</fix>
</trkpt>
<trkpt lat="-27.2716492" lon="151.2903732">
  <ele>371.69</ele>
  <time>2026-09-01T19:58:27Z</time>
  <course>350.86</course>
  <speed>26.32395487004185</speed>
  <fix>3d</fix>
</trkpt>
<trkpt lat="-27.2717149" lon="151.2903868">
  <ele>371.59</ele>
  <time>2026-09-01T19:58:27Z</time>
  <course>349.9</course>
  <speed>26.43</speed>
  <fix>3d</fix>
</trkpt>
<trkpt lat="-27.271626" lon="151.2903686">
  <ele>371.72</ele>
  <time>2026-09-01T19:58:27Z</time>
  <course>350.93</course>
  <speed>26.31411218338935</speed>
  <fix>3d</fix>
</trkpt>
<trkpt lat="-27.2716681" lon="151.2903774">
  <ele>371.63</ele>
  <time>2026-09-01T19:58:27Z</time>
  <course>349.91</course>
  <speed>26.42</speed>
  <fix>3d</fix>
</trkpt>
<trkpt lat="-27.271602" lon="151.2903638">
  <ele>371.75</ele>
  <time>2026-09-01T19:58:27Z</time>
  <course>350.89</course>
  <speed>26.294427166226686</speed>
  <fix>3d</fix>
</trkpt>
<trkpt lat="-27.2716681" lon="151.2903774">
  <ele>371.63</ele>
  <time>2026-09-01T19:58:27Z</time>
  <course>349.91</course>
  <speed>26.42</speed>
  <fix>3d</fix>
</trkpt>
<trkpt lat="-27.271579" lon="151.2903592">
  <ele>371.78</ele>
  <time>2026-09-01T19:58:27Z</time>
  <course>350.9</course>
  <speed>26.282817581073758</speed>
  <fix>3d</fix>
</trkpt>
<trkpt lat="-27.2716214" lon="151.290368">
  <ele>371.69</ele>
  <time>2026-09-01T19:58:27Z</time>
  <course>349.91</course>
  <speed>26.4</speed>
  <fix>3d</fix>
</trkpt>
<trkpt lat="-27.2715558" lon="151.2903546">
  <ele>371.81</ele>
  <time>2026-09-01T19:58:27Z</time>
  <course>350.89</course>
  <speed>26.272974707862833</speed>
  <fix>3d</fix>
</trkpt>
<trkpt lat="-27.2716214" lon="151.290368">
  <ele>371.69</ele>
  <time>2026-09-01T19:58:27Z</time>
  <course>349.91</course>
  <speed>26.4</speed>
  <fix>3d</fix>
</trkpt>
<trkpt lat="-27.2715325" lon="151.2903499">
  <ele>371.84</ele>
  <time>2026-09-01T19:58:27Z</time>
  <course>350.88</course>
  <speed>26.261367062664505</speed>
  <fix>3d</fix>
</trkpt>
<trkpt lat="-27.2715747" lon="151.2903587">
  <ele>371.75</ele>
  <time>2026-09-01T19:58:27Z</time>
  <course>349.92</course>
  <speed>26.39</speed>
  <fix>3d</fix>
</trkpt>
<trkpt lat="-27.2715092" lon="151.2903452">
  <ele>371.87</ele>
  <time>2026-09-01T19:58:27Z</time>
  <course>350.91</course>
  <speed>26.251523765297893</speed>
  <fix>3d</fix>
</trkpt>
<trkpt lat="-27.2715747" lon="151.2903587">
  <ele>371.75</ele>
  <time>2026-09-01T19:58:27Z</time>
  <course>349.92</course>
  <speed>26.39</speed>
  <fix>3d</fix>
</trkpt>
<trkpt lat="-27.2714856" lon="151.2903405">
  <ele>371.91</ele>
  <time>2026-09-01T19:58:27Z</time>
  <course>350.91</course>
  <speed>26.249761903682096</speed>
  <fix>3d</fix>
</trkpt>
<trkpt lat="-27.2715281" lon="151.2903494">
  <ele>371.81</ele>
  <time>2026-09-01T19:58:27Z</time>
  <course>349.93</course>
  <speed>26.36</speed>
  <fix>3d</fix>
</trkpt>
<trkpt lat="-27.2714628" lon="151.290336">
  <ele>371.94</ele>
  <time>2026-09-01T19:58:27Z</time>
  <course>350.92</course>
  <speed>26.239918063896468</speed>
  <fix>3d</fix>
</trkpt>
<trkpt lat="-27.2715281" lon="151.2903494">
  <ele>371.81</ele>
  <time>2026-09-01T19:58:27Z</time>
  <course>349.93</course>
  <speed>26.36</speed>
  <fix>3d</fix>
</trkpt>
<trkpt lat="-27.2714394" lon="151.2903313">
  <ele>371.97</ele>
  <time>2026-09-01T19:58:27Z</time>
  <course>350.9</course>
  <speed>26.23815923421458</speed>
  <fix>3d</fix>
</trkpt>
<trkpt lat="-27.2714815" lon="151.29034">
  <ele>371.87</ele>
  <time>2026-09-01T19:58:27Z</time>
  <course>349.94</course>
  <speed>26.33</speed>
  <fix>3d</fix>
</trkpt>
<trkpt lat="-27.2714161" lon="151.2903267">
  <ele>372.0</ele>
  <time>2026-09-01T19:58:27Z</time>
  <course>350.89</course>
  <speed>26.228314852464308</speed>
  <fix>3d</fix>
</trkpt>
<trkpt lat="-27.2714815" lon="151.29034">
  <ele>371.87</ele>
  <time>2026-09-01T19:58:27Z</time>
  <course>349.94</course>
  <speed>26.33</speed>
  <fix>3d</fix>
</trkpt>
<trkpt lat="-27.2713927" lon="151.290322">
  <ele>372.03</ele>
  <time>2026-09-01T19:58:27Z</time>
  <course>350.94</course>
  <speed>26.216714134307527</speed>
  <fix>3d</fix>
</trkpt>
<trkpt lat="-27.2714349" lon="151.2903308">
  <ele>371.93</ele>
  <time>2026-09-01T19:58:27Z</time>
  <course>349.95</course>
  <speed>26.31</speed>
  <fix>3d</fix>
</trkpt>
<trkpt lat="-27.2713694" lon="151.2903174">
  <ele>372.07</ele>
  <time>2026-09-01T19:58:27Z</time>
  <course>350.9</course>
  <speed>26.206869328479506</speed>
  <fix>3d</fix>
</trkpt>
<trkpt lat="-27.2714349" lon="151.2903308">
  <ele>371.93</ele>
  <time>2026-09-01T19:58:27Z</time>
  <course>349.95</course>
  <speed>26.31</speed>
  <fix>3d</fix>
</trkpt>
<trkpt lat="-27.271346" lon="151.2903127">
  <ele>372.11</ele>
  <time>2026-09-01T19:58:27Z</time>
  <course>350.92</course>
  <speed>26.195270565504757</speed>
  <fix>3d</fix>
</trkpt>
<trkpt lat="-27.2713884" lon="151.2903215">
  <ele>372.0</ele>
  <time>2026-09-01T19:58:27Z</time>
  <course>349.96</course>
  <speed>26.28</speed>
  <fix>3d</fix>
</trkpt>
<trkpt lat="-27.2713227" lon="151.2903081">
  <ele>372.14</ele>
  <time>2026-09-01T19:58:27Z</time>
  <course>350.93</course>
  <speed>26.18542533548004</speed>
  <fix>3d</fix>
</trkpt>
<trkpt lat="-27.2713884" lon="151.2903215">
  <ele>372.0</ele>
  <time>2026-09-01T19:58:27Z</time>
  <course>349.96</course>
  <speed>26.28</speed>
  <fix>3d</fix>
</trkpt>
<trkpt lat="-27.2712997" lon="151.2903036">
  <ele>372.18</ele>
  <time>2026-09-01T19:58:27Z</time>
  <course>350.89</course>
  <speed>26.163982877230293</speed>
  <fix>3d</fix>
</trkpt>
<trkpt lat="-27.271342" lon="151.2903122">
  <ele>372.07</ele>
  <time>2026-09-01T19:58:27Z</time>
  <course>349.97</course>
  <speed>26.24</speed>
  <fix>3d</fix>
</trkpt>
<trkpt lat="-27.2712766" lon="151.290299">
  <ele>372.22</ele>
  <time>2026-09-01T19:58:27Z</time>
  <course>350.9</course>
  <speed>26.152388036276918</speed>
  <fix>3d</fix>
</trkpt>
<trkpt lat="-27.271342" lon="151.2903122">
  <ele>372.07</ele>
  <time>2026-09-01T19:58:27Z</time>
  <course>349.97</course>
  <speed>26.24</speed>
  <fix>3d</fix>
</trkpt>
<trkpt lat="-27.2712535" lon="151.2902944">
  <ele>372.26</ele>
  <time>2026-09-01T19:58:27Z</time>
  <course>350.96</course>
  <speed>26.130949083414478</speed>
  <fix>3d</fix>
</trkpt>
<trkpt lat="-27.2712956" lon="151.2903031">
  <ele>372.15</ele>
  <time>2026-09-01T19:58:27Z</time>
  <course>349.99</course>
  <speed>26.2</speed>
  <fix>3d</fix>
</trkpt>
<trkpt lat="-27.2712304" lon="151.2902898">
  <ele>372.3</ele>
  <time>2026-09-01T19:58:27Z</time>
  <course>351.04</course>
  <speed>26.1095116767817</speed>
  <fix>3d</fix>
</trkpt>
<trkpt lat="-27.2712956" lon="151.2903031">
  <ele>372.15</ele>
  <time>2026-09-01T19:58:27Z</time>
  <course>349.99</course>
  <speed>26.2</speed>
  <fix>3d</fix>
</trkpt>
<trkpt lat="-27.2712074" lon="151.2902853">
  <ele>372.34</ele>
  <time>2026-09-01T19:58:27Z</time>
  <course>351.04</course>
  <speed>26.07822846744004</speed>
  <fix>3d</fix>
</trkpt>
<trkpt lat="-27.2712492" lon="151.2902939">
  <ele>372.22</ele>
  <time>2026-09-01T19:58:27Z</time>
  <course>350.01</course>
  <speed>26.16</speed>
  <fix>3d</fix>
</trkpt>
<trkpt lat="-27.2711843" lon="151.2902807">
  <ele>372.38</ele>
  <time>2026-09-01T19:58:27Z</time>
  <course>351.02</course>
  <speed>26.05679373982916</speed>
  <fix>3d</fix>
</trkpt>
<trkpt lat="-27.2712492" lon="151.2902939">
  <ele>372.22</ele>
  <time>2026-09-01T19:58:27Z</time>
  <course>350.01</course>
  <speed>26.16</speed>
  <fix>3d</fix>
</trkpt>
<trkpt lat="-27.2711613" lon="151.2902762">
  <ele>372.41</ele>
  <time>2026-09-01T19:58:27Z</time>
  <course>351.03</course>
  <speed>26.03536056980967</speed>
  <fix>3d</fix>
</trkpt>
<trkpt lat="-27.2712029" lon="151.2902847">
  <ele>372.3</ele>
  <time>2026-09-01T19:58:27Z</time>
  <course>350.04</course>
  <speed>26.12</speed>
  <fix>3d</fix>
</trkpt>
<trkpt lat="-27.2711383" lon="151.2902717">
  <ele>372.45</ele>
  <time>2026-09-01T19:58:27Z</time>
  <course>351.02</course>
  <speed>26.013928961231517</speed>
  <fix>3d</fix>
</trkpt>
<trkpt lat="-27.2712029" lon="151.2902847">
  <ele>372.3</ele>
  <time>2026-09-01T19:58:27Z</time>
  <course>350.04</course>
  <speed>26.12</speed>
  <fix>3d</fix>
</trkpt>
<trkpt lat="-27.2711144" lon="151.290267">
  <ele>372.48</ele>
  <time>2026-09-01T19:58:27Z</time>
  <course>351.03</course>
  <speed>25.994232052515034</speed>
  <fix>3d</fix>
</trkpt>
<trkpt lat="-27.2711567" lon="151.2902756">
  <ele>372.37</ele>
  <time>2026-09-01T19:58:27Z</time>
  <course>350.05</course>
  <speed>26.08</speed>
  <fix>3d</fix>
</trkpt>
<trkpt lat="-27.2710915" lon="151.2902624">
  <ele>372.51</ele>
  <time>2026-09-01T19:58:27Z</time>
  <course>350.97</course>
  <speed>25.984383771796473</speed>
  <fix>3d</fix>
</trkpt>
<trkpt lat="-27.2711567" lon="151.2902756">
  <ele>372.37</ele>
  <time>2026-09-01T19:58:27Z</time>
  <course>350.05</course>
  <speed>26.08</speed>
  <fix>3d</fix>
</trkpt>
<trkpt lat="-27.2710683" lon="151.2902579">
  <ele>372.54</ele>
  <time>2026-09-01T19:58:27Z</time>
  <course>350.94</course>
  <speed>25.974535607013266</speed>
  <fix>3d</fix>
</trkpt>
<trkpt lat="-27.2711106" lon="151.2902665">
  <ele>372.44</ele>
  <time>2026-09-01T19:58:27Z</time>
  <course>350.05</course>
  <speed>26.04</speed>
  <fix>3d</fix>
</trkpt>
<trkpt lat="-27.2710452" lon="151.2902533">
  <ele>372.57</ele>
  <time>2026-09-01T19:58:27Z</time>
  <course>350.99</course>
  <speed>25.966426400257703</speed>
  <fix>3d</fix>
</trkpt>
<trkpt lat="-27.2711106" lon="151.2902665">
  <ele>372.44</ele>
  <time>2026-09-01T19:58:27Z</time>
  <course>350.05</course>
  <speed>26.04</speed>
  <fix>3d</fix>
</trkpt>
<trkpt lat="-27.271022" lon="151.2902487">
  <ele>372.6</ele>
  <time>2026-09-01T19:58:27Z</time>
  <course>351.06</course>
  <speed>25.966426400257703</speed>
  <fix>3d</fix>
</trkpt>
<trkpt lat="-27.2710646" lon="151.2902574">
  <ele>372.5</ele>
  <time>2026-09-01T19:58:27Z</time>
  <course>350.03</course>
  <speed>26.0</speed>
  <fix>3d</fix>
</trkpt>
<trkpt lat="-27.2709987" lon="151.2902441">
  <ele>372.62</ele>
  <time>2026-09-01T19:58:27Z</time>
  <course>351.04</course>
  <speed>25.954839625780778</speed>
  <fix>3d</fix>
</trkpt>
<trkpt lat="-27.2710646" lon="151.2902574">
  <ele>372.5</ele>
  <time>2026-09-01T19:58:27Z</time>
  <course>350.03</course>
  <speed>26.0</speed>
  <fix>3d</fix>
</trkpt>
<trkpt lat="-27.2709755" lon="151.2902396">
  <ele>372.65</ele>
  <time>2026-09-01T19:58:27Z</time>
  <course>350.98</course>
  <speed>25.94499180959593</speed>
  <fix>3d</fix>
</trkpt>
<trkpt lat="-27.2710186" lon="151.2902483">
  <ele>372.56</ele>
  <time>2026-09-01T19:58:27Z</time>
  <course>350.02</course>
  <speed>25.97</speed>
  <fix>3d</fix>
</trkpt>
<trkpt lat="-27.2709524" lon="151.290235">
  <ele>372.67</ele>
  <time>2026-09-01T19:58:27Z</time>
  <course>350.93</course>
  <speed>25.93514410987531</speed>
  <fix>3d</fix>
</trkpt>
<trkpt lat="-27.2710186" lon="151.2902483">
  <ele>372.56</ele>
  <time>2026-09-01T19:58:27Z</time>
  <course>350.02</course>
  <speed>25.97</speed>
  <fix>3d</fix>
</trkpt>
<trkpt lat="-27.2709293" lon="151.2902304">
  <ele>372.69</ele>
  <time>2026-09-01T19:58:27Z</time>
  <course>350.89</course>
  <speed>25.925296526751627</speed>
  <fix>3d</fix>
</trkpt>
<trkpt lat="-27.2709726" lon="151.2902392">
  <ele>372.61</ele>
  <time>2026-09-01T19:58:27Z</time>
  <course>350.02</course>
  <speed>25.93</speed>
  <fix>3d</fix>
</trkpt>
<trkpt lat="-27.2709062" lon="151.2902259">
  <ele>372.72</ele>
  <time>2026-09-01T19:58:27Z</time>
  <course>350.88</course>
  <speed>25.9154490603578</speed>
  <fix>3d</fix>
</trkpt>
<trkpt lat="-27.2709726" lon="151.2902392">
  <ele>372.61</ele>
  <time>2026-09-01T19:58:27Z</time>
  <course>350.02</course>
  <speed>25.93</speed>
  <fix>3d</fix>
</trkpt>
<trkpt lat="-27.2708833" lon="151.2902213">
  <ele>372.74</ele>
  <time>2026-09-01T19:58:27Z</time>
  <course>350.88</course>
  <speed>25.905601710826947</speed>
  <fix>3d</fix>
</trkpt>
<trkpt lat="-27.2709268" lon="151.2902301">
  <ele>372.66</ele>
  <time>2026-09-01T19:58:27Z</time>
  <course>350.02</course>
  <speed>25.9</speed>
  <fix>3d</fix>
</trkpt>
<trkpt lat="-27.2708604" lon="151.2902168">
  <ele>372.77</ele>
  <time>2026-09-01T19:58:27Z</time>
  <course>350.91</course>
  <speed>25.895754478292382</speed>
  <fix>3d</fix>
</trkpt>
<trkpt lat="-27.2709268" lon="151.2902301">
  <ele>372.66</ele>
  <time>2026-09-01T19:58:27Z</time>
  <course>350.02</course>
  <speed>25.9</speed>
  <fix>3d</fix>
</trkpt>
<trkpt lat="-27.2708381" lon="151.2902124">
  <ele>372.79</ele>
  <time>2026-09-01T19:58:27Z</time>
  <course>350.95</course>
  <speed>25.866213484002643</speed>
  <fix>3d</fix>
</trkpt>
<trkpt lat="-27.270881" lon="151.2902211">
  <ele>372.71</ele>
  <time>2026-09-01T19:58:27Z</time>
  <course>350.0</course>
  <speed>25.87</speed>
  <fix>3d</fix>
</trkpt>
<trkpt lat="-27.2708155" lon="151.2902079">
  <ele>372.82</ele>
  <time>2026-09-01T19:58:27Z</time>
  <course>350.96</course>
  <speed>25.84652007524417</speed>
  <fix>3d</fix>
</trkpt>
<trkpt lat="-27.270881" lon="151.2902211">
  <ele>372.71</ele>
  <time>2026-09-01T19:58:27Z</time>
  <course>350.0</course>
  <speed>25.87</speed>
  <fix>3d</fix>
</trkpt>
<trkpt lat="-27.2707926" lon="151.2902033">
  <ele>372.84</ele>
  <time>2026-09-01T19:58:27Z</time>
  <course>350.9</course>
  <speed>25.836673547498332</speed>
  <fix>3d</fix>
</trkpt>
<trkpt lat="-27.2708353" lon="151.290212">
  <ele>372.76</ele>
  <time>2026-09-01T19:58:27Z</time>
  <course>349.98</course>
  <speed>25.83</speed>
  <fix>3d</fix>
</trkpt>
<trkpt lat="-27.2707697" lon="151.2901988">
  <ele>372.86</ele>
  <time>2026-09-01T19:58:27Z</time>
  <course>350.92</course>
  <speed>25.826827137687665</speed>
  <fix>3d</fix>
</trkpt>
<trkpt lat="-27.2708353" lon="151.290212">
  <ele>372.76</ele>
  <time>2026-09-01T19:58:27Z</time>
  <course>349.98</course>
  <speed>25.83</speed>
  <fix>3d</fix>
</trkpt>
<trkpt lat="-27.2707468" lon="151.2901942">
  <ele>372.88</ele>
  <time>2026-09-01T19:58:27Z</time>
  <course>350.97</course>
  <speed>25.81698084594711</speed>
  <fix>3d</fix>
</trkpt>
<trkpt lat="-27.2707896" lon="151.2902029">
  <ele>372.81</ele>
  <time>2026-09-01T19:58:27Z</time>
  <course>349.97</course>
  <speed>25.8</speed>
  <fix>3d</fix>
</trkpt>
<trkpt lat="-27.2707237" lon="151.2901896">
  <ele>372.9</ele>
  <time>2026-09-01T19:58:27Z</time>
  <course>350.98</course>
  <speed>25.815235811435077</speed>
  <fix>3d</fix>
</trkpt>
<trkpt lat="-27.2707896" lon="151.2902029">
  <ele>372.81</ele>
  <time>2026-09-01T19:58:27Z</time>
  <course>349.97</course>
  <speed>25.8</speed>
  <fix>3d</fix>
</trkpt>
<trkpt lat="-27.2707007" lon="151.2901851">
  <ele>372.92</ele>
  <time>2026-09-01T19:58:27Z</time>
  <course>350.98</course>
  <speed>25.805388972073256</speed>
  <fix>3d</fix>
</trkpt>
<trkpt lat="-27.2707439" lon="151.2901938">
  <ele>372.85</ele>
  <time>2026-09-01T19:58:27Z</time>
  <course>349.96</course>
  <speed>25.77</speed>
  <fix>3d</fix>
</trkpt>
<trkpt lat="-27.2706778" lon="151.2901805">
  <ele>372.94</ele>
  <time>2026-09-01T19:58:27Z</time>
  <course>350.98</course>
  <speed>25.805388972073256</speed>
  <fix>3d</fix>
</trkpt>
<trkpt lat="-27.2707439" lon="151.2901938">
  <ele>372.85</ele>
  <time>2026-09-01T19:58:27Z</time>
  <course>349.96</course>
  <speed>25.77</speed>
  <fix>3d</fix>
</trkpt>
<trkpt lat="-27.2706541" lon="151.2901758">
  <ele>372.96</ele>
  <time>2026-09-01T19:58:27Z</time>
  <course>350.97</course>
  <speed>25.793799642549757</speed>
  <fix>3d</fix>
</trkpt>
<trkpt lat="-27.2706983" lon="151.2901847">
  <ele>372.89</ele>
  <time>2026-09-01T19:58:27Z</time>
  <course>349.96</course>
  <speed>25.74</speed>
  <fix>3d</fix>
</trkpt>
<trkpt lat="-27.2706312" lon="151.2901713">
  <ele>372.98</ele>
  <time>2026-09-01T19:58:27Z</time>
  <course>350.96</course>
  <speed>25.783952373521014</speed>
  <fix>3d</fix>
</trkpt>
<trkpt lat="-27.2706983" lon="151.2901847">
  <ele>372.89</ele>
  <time>2026-09-01T19:58:27Z</time>
  <course>349.96</course>
  <speed>25.74</speed>
  <fix>3d</fix>
</trkpt>
<trkpt lat="-27.2706087" lon="151.2901668">
  <ele>373.0</ele>
  <time>2026-09-01T19:58:27Z</time>
  <course>350.88</course>
  <speed>25.772365044752878</speed>
  <fix>3d</fix>
</trkpt>
<trkpt lat="-27.2706528" lon="151.2901757">
  <ele>372.93</ele>
  <time>2026-09-01T19:58:27Z</time>
  <course>349.97</course>
  <speed>25.72</speed>
  <fix>3d</fix>
</trkpt>
<trkpt lat="-27.2705859" lon="151.2901623">
  <ele>373.01</ele>
  <time>2026-09-01T19:58:27Z</time>
  <course>350.88</course>
  <speed>25.754411272634442</speed>
  <fix>3d</fix>
</trkpt>
<trkpt lat="-27.2706528" lon="151.2901757">
  <ele>372.93</ele>
  <time>2026-09-01T19:58:27Z</time>
  <course>349.97</course>
  <speed>25.72</speed>
  <fix>3d</fix>
</trkpt>
<trkpt lat="-27.2705633" lon="151.2901578">
  <ele>373.03</ele>
  <time>2026-09-01T19:58:27Z</time>
  <course>350.93</course>
  <speed>25.732974954326597</speed>
  <fix>3d</fix>
</trkpt>
<trkpt lat="-27.2706073" lon="151.2901666">
  <ele>372.97</ele>
  <time>2026-09-01T19:58:27Z</time>
  <course>349.97</course>
  <speed>25.69</speed>
  <fix>3d</fix>
</trkpt>
<trkpt lat="-27.2705406" lon="151.2901533">
  <ele>373.05</ele>
  <time>2026-09-01T19:58:27Z</time>
  <course>350.98</course>
  <speed>25.72312772584236</speed>
  <fix>3d</fix>
</trkpt>
<trkpt lat="-27.2706073" lon="151.2901666">
  <ele>372.97</ele>
  <time>2026-09-01T19:58:27Z</time>
  <course>349.97</course>
  <speed>25.69</speed>
  <fix>3d</fix>
</trkpt>
<trkpt lat="-27.2705178" lon="151.2901488">
  <ele>373.06</ele>
  <time>2026-09-01T19:58:27Z</time>
  <course>350.94</course>
  <speed>25.701692551269847</speed>
  <fix>3d</fix>
</trkpt>
<trkpt lat="-27.2705619" lon="151.2901575">
  <ele>373.0</ele>
  <time>2026-09-01T19:58:27Z</time>
  <course>349.96</course>
  <speed>25.66</speed>
  <fix>3d</fix>
</trkpt>
<trkpt lat="-27.2704952" lon="151.2901443">
  <ele>373.07</ele>
  <time>2026-09-01T19:58:27Z</time>
  <course>350.95</course>
  <speed>25.691845009652383</speed>
  <fix>3d</fix>
</trkpt>
<trkpt lat="-27.2705619" lon="151.2901575">
  <ele>373.0</ele>
  <time>2026-09-01T19:58:27Z</time>
  <course>349.96</course>
  <speed>25.66</speed>
  <fix>3d</fix>
</trkpt>
<trkpt lat="-27.2704728" lon="151.2901398">
  <ele>373.08</ele>
  <time>2026-09-01T19:58:27Z</time>
  <course>350.93</course>
  <speed>25.681997585857683</speed>
  <fix>3d</fix>
</trkpt>
<trkpt lat="-27.2705165" lon="151.2901486">
  <ele>373.03</ele>
  <time>2026-09-01T19:58:27Z</time>
  <course>349.96</course>
  <speed>25.64</speed>
  <fix>3d</fix>
</trkpt>
<trkpt lat="-27.2704502" lon="151.2901353">
  <ele>373.09</ele>
  <time>2026-09-01T19:58:27Z</time>
  <course>350.92</course>
  <speed>25.66230309227915</speed>
  <fix>3d</fix>
</trkpt>
<trkpt lat="-27.2705165" lon="151.2901486">
  <ele>373.03</ele>
  <time>2026-09-01T19:58:27Z</time>
  <course>349.96</course>
  <speed>25.64</speed>
  <fix>3d</fix>
</trkpt>
<trkpt lat="-27.2704279" lon="151.2901309">
  <ele>373.1</ele>
  <time>2026-09-01T19:58:27Z</time>
  <course>350.97</course>
  <speed>25.640867770026816</speed>
  <fix>3d</fix>
</trkpt>
<trkpt lat="-27.2704712" lon="151.2901395">
  <ele>373.04</ele>
  <time>2026-09-01T19:58:27Z</time>
  <course>349.95</course>
  <speed>25.62</speed>
  <fix>3d</fix>
</trkpt>
<trkpt lat="-27.2704054" lon="151.2901264">
  <ele>373.11</ele>
  <time>2026-09-01T19:58:27Z</time>
  <course>350.97</course>
  <speed>25.61943402965803</speed>
  <fix>3d</fix>
</trkpt>
<trkpt lat="-27.2704712" lon="151.2901395">
  <ele>373.04</ele>
  <time>2026-09-01T19:58:27Z</time>
  <course>349.95</course>
  <speed>25.62</speed>
  <fix>3d</fix>
</trkpt>
<trkpt lat="-27.2703829" lon="151.290122">
  <ele>373.12</ele>
  <time>2026-09-01T19:58:27Z</time>
  <course>350.89</course>
  <speed>25.607850358825512</speed>
  <fix>3d</fix>
</trkpt>
<trkpt lat="-27.2704258" lon="151.2901304">
  <ele>373.06</ele>
  <time>2026-09-01T19:58:27Z</time>
  <course>349.96</course>
  <speed>25.61</speed>
  <fix>3d</fix>
</trkpt>
<trkpt lat="-27.2703604" lon="151.2901175">
  <ele>373.12</ele>
  <time>2026-09-01T19:58:27Z</time>
  <course>350.9</course>
  <speed>25.59800187514643</speed>
  <fix>3d</fix>
</trkpt>
<trkpt lat="-27.2704258" lon="151.2901304">
  <ele>373.06</ele>
  <time>2026-09-01T19:58:27Z</time>
  <course>349.96</course>
  <speed>25.61</speed>
  <fix>3d</fix>
</trkpt>
<trkpt lat="-27.2703378" lon="151.290113">
  <ele>373.13</ele>
  <time>2026-09-01T19:58:27Z</time>
  <course>350.88</course>
  <speed>25.58989058202477</speed>
  <fix>3d</fix>
</trkpt>
<trkpt lat="-27.2703806" lon="151.2901215">
  <ele>373.07</ele>
  <time>2026-09-01T19:58:27Z</time>
  <course>349.96</course>
  <speed>25.6</speed>
  <fix>3d</fix>
</trkpt>
<trkpt lat="-27.2703152" lon="151.2901085">
  <ele>373.13</ele>
  <time>2026-09-01T19:58:27Z</time>
  <course>350.88</course>
  <speed>25.58989058202477</speed>
  <fix>3d</fix>
</trkpt>
<trkpt lat="-27.2703806" lon="151.2901215">
  <ele>373.07</ele>
  <time>2026-09-01T19:58:27Z</time>
  <course>349.96</course>
  <speed>25.6</speed>
  <fix>3d</fix>
</trkpt>
<trkpt lat="-27.2702926" lon="151.290104">
  <ele>373.13</ele>
  <time>2026-09-01T19:58:27Z</time>
  <course>350.94</course>
  <speed>25.578305260513254</speed>
  <fix>3d</fix>
</trkpt>
<trkpt lat="-27.2703353" lon="151.2901125">
  <ele>373.08</ele>
  <time>2026-09-01T19:58:27Z</time>
  <course>349.96</course>
  <speed>25.59</speed>
  <fix>3d</fix>
</trkpt>
<trkpt lat="-27.27027" lon="151.2900995">
  <ele>373.13</ele>
  <time>2026-09-01T19:58:27Z</time>
  <course>350.96</course>
  <speed>25.578305260513254</speed>
  <fix>3d</fix>
</trkpt>
<trkpt lat="-27.2703353" lon="151.2901125">
  <ele>373.08</ele>
  <time>2026-09-01T19:58:27Z</time>
  <course>349.96</course>
  <speed>25.59</speed>
  <fix>3d</fix>
</trkpt>
<trkpt lat="-27.2702474" lon="151.290095">
  <ele>373.13</ele>
  <time>2026-09-01T19:58:27Z</time>
  <course>350.91</course>
  <speed>25.578305260513254</speed>
  <fix>3d</fix>
</trkpt>
<trkpt lat="-27.27029" lon="151.2901034">
  <ele>373.09</ele>
  <time>2026-09-01T19:58:27Z</time>
  <course>349.95</course>
  <speed>25.58</speed>
  <fix>3d</fix>
</trkpt>
<trkpt lat="-27.2702247" lon="151.2900905">
  <ele>373.13</ele>
  <time>2026-09-01T19:58:27Z</time>
  <course>350.92</course>
  <speed>25.578305260513254</speed>
  <fix>3d</fix>
</trkpt>
<trkpt lat="-27.27029" lon="151.2901034">
  <ele>373.09</ele>
  <time>2026-09-01T19:58:27Z</time>
  <course>349.95</course>
  <speed>25.58</speed>
  <fix>3d</fix>
</trkpt>
<trkpt lat="-27.2702027" lon="151.2900861">
  <ele>373.13</ele>
  <time>2026-09-01T19:58:27Z</time>
  <course>350.93</course>
  <speed>25.578305260513254</speed>
  <fix>3d</fix>
</trkpt>
<trkpt lat="-27.2702447" lon="151.2900943">
  <ele>373.1</ele>
  <time>2026-09-01T19:58:27Z</time>
  <course>349.95</course>
  <speed>25.57</speed>
  <fix>3d</fix>
</trkpt>
<trkpt lat="-27.2701793" lon="151.2900815">
  <ele>373.13</ele>
  <time>2026-09-01T19:58:27Z</time>
  <course>350.87</course>
  <speed>25.578305260513254</speed>
  <fix>3d</fix>
</trkpt>
<trkpt lat="-27.2702447" lon="151.2900943">
  <ele>373.1</ele>
  <time>2026-09-01T19:58:27Z</time>
  <course>349.95</course>
  <speed>25.57</speed>
  <fix>3d</fix>
</trkpt>
<trkpt lat="-27.270157" lon="151.290077">
  <ele>373.13</ele>
  <time>2026-09-01T19:58:27Z</time>
  <course>350.9</course>
  <speed>25.56845712983089</speed>
  <fix>3d</fix>
</trkpt>
<trkpt lat="-27.2701994" lon="151.2900854">
  <ele>373.1</ele>
  <time>2026-09-01T19:58:27Z</time>
  <course>349.95</course>
  <speed>25.57</speed>
  <fix>3d</fix>
</trkpt>
<trkpt lat="-27.2701344" lon="151.2900726">
  <ele>373.13</ele>
  <time>2026-09-01T19:58:27Z</time>
  <course>350.88</course>
  <speed>25.56845712983089</speed>
  <fix>3d</fix>
</trkpt>
<trkpt lat="-27.2701994" lon="151.2900854">
  <ele>373.1</ele>
  <time>2026-09-01T19:58:27Z</time>
  <course>349.95</course>
  <speed>25.57</speed>
  <fix>3d</fix>
</trkpt>
<trkpt lat="-27.270112" lon="151.2900681">
  <ele>373.14</ele>
  <time>2026-09-01T19:58:27Z</time>
  <course>350.88</course>
  <speed>25.558609117086167</speed>
  <fix>3d</fix>
</trkpt>
<trkpt lat="-27.2701542" lon="151.2900763">
  <ele>373.1</ele>
  <time>2026-09-01T19:58:27Z</time>
  <course>349.95</course>
  <speed>25.57</speed>
  <fix>3d</fix>
</trkpt>
<trkpt lat="-27.2700895" lon="151.2900636">
  <ele>373.14</ele>
  <time>2026-09-01T19:58:27Z</time>
  <course>350.95</course>
  <speed>25.54876122241546</speed>
  <fix>3d</fix>
</trkpt>
<trkpt lat="-27.2701542" lon="151.2900763">
  <ele>373.1</ele>
  <time>2026-09-01T19:58:27Z</time>
  <course>349.95</course>
  <speed>25.57</speed>
  <fix>3d</fix>
</trkpt>
<trkpt lat="-27.2700671" lon="151.2900591">
  <ele>373.14</ele>
  <time>2026-09-01T19:58:27Z</time>
  <course>350.94</course>
  <speed>25.537176821254146</speed>
  <fix>3d</fix>
</trkpt>
<trkpt lat="-27.270109" lon="151.2900674">
  <ele>373.1</ele>
  <time>2026-09-01T19:58:27Z</time>
  <course>349.94</course>
  <speed>25.57</speed>
  <fix>3d</fix>
</trkpt>
<trkpt lat="-27.2700445" lon="151.2900546">
  <ele>373.14</ele>
  <time>2026-09-01T19:58:27Z</time>
  <course>350.83</course>
  <speed>25.517480283131405</speed>
  <fix>3d</fix>
</trkpt>
<trkpt lat="-27.270109" lon="151.2900674">
  <ele>373.1</ele>
  <time>2026-09-01T19:58:27Z</time>
  <course>349.94</course>
  <speed>25.57</speed>
  <fix>3d</fix>
</trkpt>
<trkpt lat="-27.2700221" lon="151.2900502">
  <ele>373.14</ele>
  <time>2026-09-01T19:58:27Z</time>
  <course>350.79</course>
  <speed>25.509370827207796</speed>
  <fix>3d</fix>
</trkpt>
<trkpt lat="-27.2700638" lon="151.2900584">
  <ele>373.1</ele>
  <time>2026-09-01T19:58:27Z</time>
  <course>349.95</course>
  <speed>25.56</speed>
  <fix>3d</fix>
</trkpt>
<trkpt lat="-27.2699997" lon="151.2900457">
  <ele>373.14</ele>
  <time>2026-09-01T19:58:27Z</time>
  <course>350.84</course>
  <speed>25.499523524960228</speed>
  <fix>3d</fix>
</trkpt>
<trkpt lat="-27.2700638" lon="151.2900584">
  <ele>373.1</ele>
  <time>2026-09-01T19:58:27Z</time>
  <course>349.95</course>
  <speed>25.56</speed>
  <fix>3d</fix>
</trkpt>
<trkpt lat="-27.2699773" lon="151.2900412">
  <ele>373.14</ele>
  <time>2026-09-01T19:58:27Z</time>
  <course>350.91</course>
  <speed>25.48967634160936</speed>
  <fix>3d</fix>
</trkpt>
<trkpt lat="-27.2700186" lon="151.2900493">
  <ele>373.11</ele>
  <time>2026-09-01T19:58:27Z</time>
  <course>349.93</course>
  <speed>25.55</speed>
  <fix>3d</fix>
</trkpt>
<trkpt lat="-27.2699549" lon="151.2900368">
  <ele>373.14</ele>
  <time>2026-09-01T19:58:27Z</time>
  <course>350.83</course>
  <speed>25.48967634160936</speed>
  <fix>3d</fix>
</trkpt>
<trkpt lat="-27.2700186" lon="151.2900493">
  <ele>373.11</ele>
  <time>2026-09-01T19:58:27Z</time>
  <course>349.93</course>
  <speed>25.55</speed>
  <fix>3d</fix>
</trkpt>
<trkpt lat="-27.2699323" lon="151.2900322">
  <ele>373.14</ele>
  <time>2026-09-01T19:58:27Z</time>
  <course>350.79</course>
  <speed>25.48967634160936</speed>
  <fix>3d</fix>
</trkpt>
<trkpt lat="-27.2699734" lon="151.2900402">
  <ele>373.11</ele>
  <time>2026-09-01T19:58:27Z</time>
  <course>349.92</course>
  <speed>25.55</speed>
  <fix>3d</fix>
</trkpt>
<trkpt lat="-27.2699098" lon="151.2900277">
  <ele>373.14</ele>
  <time>2026-09-01T19:58:27Z</time>
  <course>350.8</course>
  <speed>25.48967634160936</speed>
  <fix>3d</fix>
</trkpt>
<trkpt lat="-27.2699734" lon="151.2900402">
  <ele>373.11</ele>
  <time>2026-09-01T19:58:27Z</time>
  <course>349.92</course>
  <speed>25.55</speed>
  <fix>3d</fix>
</trkpt>
<trkpt lat="-27.2698871" lon="151.2900232">
  <ele>373.14</ele>
  <time>2026-09-01T19:58:27Z</time>
  <course>350.87</course>
  <speed>25.491420125210755</speed>
  <fix>3d</fix>
</trkpt>
<trkpt lat="-27.2699282" lon="151.2900313">
  <ele>373.11</ele>
  <time>2026-09-01T19:58:27Z</time>
  <course>349.91</course>
  <speed>25.55</speed>
  <fix>3d</fix>
</trkpt>
<trkpt lat="-27.2698645" lon="151.2900187">
  <ele>373.15</ele>
  <time>2026-09-01T19:58:27Z</time>
  <course>350.98</course>
  <speed>25.48967634160936</speed>
  <fix>3d</fix>
</trkpt>
<trkpt lat="-27.2699282" lon="151.2900313">
  <ele>373.11</ele>
  <time>2026-09-01T19:58:27Z</time>
  <course>349.91</course>
  <speed>25.55</speed>
  <fix>3d</fix>
</trkpt>
<trkpt lat="-27.2698418" lon="151.2900141">
  <ele>373.15</ele>
  <time>2026-09-01T19:58:27Z</time>
  <course>350.98</course>
  <speed>25.48967634160936</speed>
  <fix>3d</fix>
</trkpt>
<trkpt lat="-27.269883" lon="151.2900222">
  <ele>373.12</ele>
  <time>2026-09-01T19:58:27Z</time>
  <course>349.9</course>
  <speed>25.55</speed>
  <fix>3d</fix>
</trkpt>
<trkpt lat="-27.2698192" lon="151.2900096">
  <ele>373.15</ele>
  <time>2026-09-01T19:58:27Z</time>
  <course>350.92</course>
  <speed>25.497784217457014</speed>
  <fix>3d</fix>
</trkpt>
<trkpt lat="-27.269883" lon="151.2900222">
  <ele>373.12</ele>
  <time>2026-09-01T19:58:27Z</time>
  <course>349.9</course>
  <speed>25.55</speed>
  <fix>3d</fix>
</trkpt>
<trkpt lat="-27.2697965" lon="151.2900051">
  <ele>373.15</ele>
  <time>2026-09-01T19:58:27Z</time>
  <course>350.9</course>
  <speed>25.507632191169765</speed>
  <fix>3d</fix>
</trkpt>
<trkpt lat="-27.2698378" lon="151.2900131">
  <ele>373.12</ele>
  <time>2026-09-01T19:58:27Z</time>
  <course>349.91</course>
  <speed>25.55</speed>
  <fix>3d</fix>
</trkpt>
<trkpt lat="-27.2697738" lon="151.2900006">
  <ele>373.15</ele>
  <time>2026-09-01T19:58:27Z</time>
  <course>350.93</course>
  <speed>25.515746118818473</speed>
  <fix>3d</fix>
</trkpt>
<trkpt lat="-27.2698378" lon="151.2900131">
  <ele>373.12</ele>
  <time>2026-09-01T19:58:27Z</time>
  <course>349.91</course>
  <speed>25.55</speed>
  <fix>3d</fix>
</trkpt>
<trkpt lat="-27.2697511" lon="151.289996">
  <ele>373.16</ele>
  <time>2026-09-01T19:58:27Z</time>
  <course>350.97</course>
  <speed>25.52559499796234</speed>
  <fix>3d</fix>
</trkpt>
<trkpt lat="-27.2697925" lon="151.2900041">
  <ele>373.12</ele>
  <time>2026-09-01T19:58:27Z</time>
  <course>349.94</course>
  <speed>25.55</speed>
  <fix>3d</fix>
</trkpt>
<trkpt lat="-27.2697284" lon="151.2899915">
  <ele>373.17</ele>
  <time>2026-09-01T19:58:27Z</time>
  <course>350.94</course>
  <speed>25.523865302888588</speed>
  <fix>3d</fix>
</trkpt>
<trkpt lat="-27.2697925" lon="151.2900041">
  <ele>373.12</ele>
  <time>2026-09-01T19:58:27Z</time>
  <course>349.94</course>
  <speed>25.55</speed>
  <fix>3d</fix>
</trkpt>
<trkpt lat="-27.2697057" lon="151.289987">
  <ele>373.18</ele>
  <time>2026-09-01T19:58:27Z</time>
  <course>350.97</course>
  <speed>25.523865302888588</speed>
  <fix>3d</fix>
</trkpt>
<trkpt lat="-27.2697472" lon="151.2899951">
  <ele>373.12</ele>
  <time>2026-09-01T19:58:27Z</time>
  <course>349.97</course>
  <speed>25.55</speed>
  <fix>3d</fix>
</trkpt>
<trkpt lat="-27.269683" lon="151.2899825">
  <ele>373.18</ele>
  <time>2026-09-01T19:58:27Z</time>
  <course>350.97</course>
  <speed>25.523865302888588</speed>
  <fix>3d</fix>
</trkpt>
<trkpt lat="-27.2697472" lon="151.2899951">
  <ele>373.12</ele>
  <time>2026-09-01T19:58:27Z</time>
  <course>349.97</course>
  <speed>25.55</speed>
  <fix>3d</fix>
</trkpt>
<trkpt lat="-27.2696603" lon="151.289978">
  <ele>373.19</ele>
  <time>2026-09-01T19:58:27Z</time>
  <course>350.95</course>
  <speed>25.52213940875647</speed>
  <fix>3d</fix>
</trkpt>
<trkpt lat="-27.269702" lon="151.2899861">
  <ele>373.13</ele>
  <time>2026-09-01T19:58:27Z</time>
  <course>349.99</course>
  <speed>25.54</speed>
  <fix>3d</fix>
</trkpt>
<trkpt lat="-27.2696376" lon="151.2899736">
  <ele>373.2</ele>
  <time>2026-09-01T19:58:27Z</time>
  <course>350.94</course>
  <speed>25.52213940875647</speed>
  <fix>3d</fix>
</trkpt>
<trkpt lat="-27.269702" lon="151.2899861">
  <ele>373.13</ele>
  <time>2026-09-01T19:58:27Z</time>
  <course>349.99</course>
  <speed>25.54</speed>
  <fix>3d</fix>
</trkpt>
<trkpt lat="-27.2696149" lon="151.2899691">
  <ele>373.21</ele>
  <time>2026-09-01T19:58:27Z</time>
  <course>350.94</course>
  <speed>25.52213940875647</speed>
  <fix>3d</fix>
</trkpt>
<trkpt lat="-27.2696569" lon="151.2899772">
  <ele>373.14</ele>
  <time>2026-09-01T19:58:27Z</time>
  <course>350.01</course>
  <speed>25.53</speed>
  <fix>3d</fix>
</trkpt>
<trkpt lat="-27.2695925" lon="151.2899646">
  <ele>373.22</ele>
  <time>2026-09-01T19:58:27Z</time>
  <course>350.91</course>
  <speed>25.523865302888588</speed>
  <fix>3d</fix>
</trkpt>
<trkpt lat="-27.2696569" lon="151.2899772">
  <ele>373.14</ele>
  <time>2026-09-01T19:58:27Z</time>
  <course>350.01</course>
  <speed>25.53</speed>
  <fix>3d</fix>
</trkpt>
<trkpt lat="-27.2695695" lon="151.2899601">
  <ele>373.23</ele>
  <time>2026-09-01T19:58:27Z</time>
  <course>350.93</course>
  <speed>25.523865302888588</speed>
  <fix>3d</fix>
</trkpt>
<trkpt lat="-27.2696117" lon="151.2899682">
  <ele>373.15</ele>
  <time>2026-09-01T19:58:27Z</time>
  <course>350.01</course>
  <speed>25.52</speed>
  <fix>3d</fix>
</trkpt>
<trkpt lat="-27.269547" lon="151.2899556">
  <ele>373.24</ele>
  <time>2026-09-01T19:58:27Z</time>
  <course>350.95</course>
  <speed>25.514015756050636</speed>
  <fix>3d</fix>
</trkpt>
<trkpt lat="-27.2696117" lon="151.2899682">
  <ele>373.15</ele>
  <time>2026-09-01T19:58:27Z</time>
  <course>350.01</course>
  <speed>25.52</speed>
  <fix>3d</fix>
</trkpt>
<trkpt lat="-27.2695244" lon="151.2899511">
  <ele>373.25</ele>
  <time>2026-09-01T19:58:27Z</time>
  <course>350.95</course>
  <speed>25.514015756050636</speed>
  <fix>3d</fix>
</trkpt>
<trkpt lat="-27.2695666" lon="151.2899593">
  <ele>373.16</ele>
  <time>2026-09-01T19:58:27Z</time>
  <course>350.01</course>
  <speed>25.51</speed>
  <fix>3d</fix>
</trkpt>
<trkpt lat="-27.2695018" lon="151.2899466">
  <ele>373.25</ele>
  <time>2026-09-01T19:58:27Z</time>
  <course>350.94</course>
  <speed>25.5122891956014</speed>
  <fix>3d</fix>
</trkpt>
<trkpt lat="-27.2695666" lon="151.2899593">
  <ele>373.16</ele>
  <time>2026-09-01T19:58:27Z</time>
  <course>350.01</course>
  <speed>25.51</speed>
  <fix>3d</fix>
</trkpt>
<trkpt lat="-27.2694792" lon="151.2899422">
  <ele>373.26</ele>
  <time>2026-09-01T19:58:27Z</time>
  <course>350.97</course>
  <speed>25.5122891956014</speed>
  <fix>3d</fix>
</trkpt>
<trkpt lat="-27.2695214" lon="151.2899503">
  <ele>373.18</ele>
  <time>2026-09-01T19:58:27Z</time>
  <course>350.0</course>
  <speed>25.5</speed>
  <fix>3d</fix>
</trkpt>
<trkpt lat="-27.2694565" lon="151.2899377">
  <ele>373.26</ele>
  <time>2026-09-01T19:58:27Z</time>
  <course>350.99</course>
  <speed>25.502439099035215</speed>
  <fix>3d</fix>
</trkpt>
<trkpt lat="-27.2695214" lon="151.2899503">
  <ele>373.18</ele>
  <time>2026-09-01T19:58:27Z</time>
  <course>350.0</course>
  <speed>25.5</speed>
  <fix>3d</fix>
</trkpt>
<trkpt lat="-27.2694339" lon="151.2899332">
  <ele>373.27</ele>
  <time>2026-09-01T19:58:27Z</time>
  <course>350.96</course>
  <speed>25.5105664382428</speed>
  <fix>3d</fix>
</trkpt>
<trkpt lat="-27.2694763" lon="151.2899414">
  <ele>373.19</ele>
  <time>2026-09-01T19:58:27Z</time>
  <course>350.02</course>
  <speed>25.49</speed>
  <fix>3d</fix>
</trkpt>
<trkpt lat="-27.2694113" lon="151.2899287">
  <ele>373.27</ele>
  <time>2026-09-01T19:58:27Z</time>
  <course>350.98</course>
  <speed>25.5105664382428</speed>
  <fix>3d</fix>
</trkpt>
<trkpt lat="-27.2694763" lon="151.2899414">
  <ele>373.19</ele>
  <time>2026-09-01T19:58:27Z</time>
  <course>350.02</course>
  <speed>25.49</speed>
  <fix>3d</fix>
</trkpt>
<trkpt lat="-27.2693886" lon="151.2899243">
  <ele>373.27</ele>
  <time>2026-09-01T19:58:27Z</time>
  <course>351.02</course>
  <speed>25.508847484745367</speed>
  <fix>3d</fix>
</trkpt>
<trkpt lat="-27.2694312" lon="151.2899325">
  <ele>373.2</ele>
  <time>2026-09-01T19:58:27Z</time>
  <course>350.03</course>
  <speed>25.48</speed>
  <fix>3d</fix>
</trkpt>
<trkpt lat="-27.269366" lon="151.2899198">
  <ele>373.27</ele>
  <time>2026-09-01T19:58:27Z</time>
  <course>351.06</course>
  <speed>25.507132335878136</speed>
  <fix>3d</fix>
</trkpt>
<trkpt lat="-27.2694312" lon="151.2899325">
  <ele>373.2</ele>
  <time>2026-09-01T19:58:27Z</time>
  <course>350.03</course>
  <speed>25.48</speed>
  <fix>3d</fix>
</trkpt>
<trkpt lat="-27.2693434" lon="151.2899154">
  <ele>373.27</ele>
  <time>2026-09-01T19:58:27Z</time>
  <course>351.08</course>
  <speed>25.505420992408652</speed>
  <fix>3d</fix>
</trkpt>
<trkpt lat="-27.2693861" lon="151.2899236">
  <ele>373.21</ele>
  <time>2026-09-01T19:58:27Z</time>
  <course>350.06</course>
  <speed>25.48</speed>
  <fix>3d</fix>
</trkpt>
<trkpt lat="-27.2693209" lon="151.289911">
  <ele>373.27</ele>
  <time>2026-09-01T19:58:27Z</time>
  <course>351.09</course>
  <speed>25.503713455102965</speed>
  <fix>3d</fix>
</trkpt>
<trkpt lat="-27.2693861" lon="151.2899236">
  <ele>373.21</ele>
  <time>2026-09-01T19:58:27Z</time>
  <course>350.06</course>
  <speed>25.48</speed>
  <fix>3d</fix>
</trkpt>
<trkpt lat="-27.2692984" lon="151.2899066">
  <ele>373.27</ele>
  <time>2026-09-01T19:58:27Z</time>
  <course>351.12</course>
  <speed>25.490455076361428</speed>
  <fix>3d</fix>
</trkpt>
<trkpt lat="-27.269341" lon="151.2899147">
  <ele>373.22</ele>
  <time>2026-09-01T19:58:27Z</time>
  <course>350.11</course>
  <speed>25.47</speed>
  <fix>3d</fix>
</trkpt>
<trkpt lat="-27.2692759" lon="151.2899022">
  <ele>373.28</ele>
  <time>2026-09-01T19:58:27Z</time>
  <course>351.17</course>
  <speed>25.47720942332578</speed>
  <fix>3d</fix>
</trkpt>
<trkpt lat="-27.269341" lon="151.2899147">
  <ele>373.22</ele>
  <time>2026-09-01T19:58:27Z</time>
  <course>350.11</course>
  <speed>25.47</speed>
  <fix>3d</fix>
</trkpt>
<trkpt lat="-27.2692533" lon="151.2898978">
  <ele>373.28</ele>
  <time>2026-09-01T19:58:27Z</time>
  <course>351.3</course>
  <speed>25.483690862981366</speed>
  <fix>3d</fix>
</trkpt>
<trkpt lat="-27.2692958" lon="151.2899059">
  <ele>373.22</ele>
  <time>2026-09-01T19:58:27Z</time>
  <course>350.18</course>
  <speed>25.46</speed>
  <fix>3d</fix>
</trkpt>
<trkpt lat="-27.2692307" lon="151.2898935">
  <ele>373.29</ele>
  <time>2026-09-01T19:58:28Z</time>
  <course>351.45</course>
  <speed>25.478657735445953</speed>
  <fix>3d</fix>
</trkpt>
<trkpt lat="-27.2692958" lon="151.2899059">
  <ele>373.22</ele>
  <time>2026-09-01T19:58:28Z</time>
  <course>350.18</course>
  <speed>25.46</speed>
  <fix>3d</fix>
</trkpt>
<trkpt lat="-27.2692081" lon="151.2898892">
  <ele>373.29</ele>
  <time>2026-09-01T19:58:28Z</time>
  <course>351.82</course>
  <speed>25.481862176850417</speed>
  <fix>3d</fix>
</trkpt>
<trkpt lat="-27.2692508" lon="151.2898971">
  <ele>373.22</ele>
  <time>2026-09-01T19:58:28Z</time>
  <course>350.27</course>
  <speed>25.45</speed>
  <fix>3d</fix>
</trkpt>
<trkpt lat="-27.2691854" lon="151.2898849">
  <ele>373.3</ele>
  <time>2026-09-01T19:58:28Z</time>
  <course>352.4</course>
  <speed>25.48361434333835</speed>
  <fix>3d</fix>
</trkpt>
<trkpt lat="-27.2692508" lon="151.2898971">
  <ele>373.22</ele>
  <time>2026-09-01T19:58:28Z</time>
  <course>350.27</course>
  <speed>25.45</speed>
  <fix>3d</fix>
</trkpt>
<trkpt lat="-27.2691627" lon="151.2898808">
  <ele>373.3</ele>
  <time>2026-09-01T19:58:28Z</time>
  <course>352.98</course>
  <speed>25.478706796067968</speed>
  <fix>3d</fix>
</trkpt>
<trkpt lat="-27.2692057" lon="151.2898885">
  <ele>373.24</ele>
  <time>2026-09-01T19:58:28Z</time>
  <course>350.5</course>
  <speed>25.45</speed>
  <fix>3d</fix>
</trkpt>
<trkpt lat="-27.26914" lon="151.289877">
  <ele>373.3</ele>
  <time>2026-09-01T19:58:28Z</time>
  <course>353.25</course>
  <speed>25.479923469272823</speed>
  <fix>3d</fix>
</trkpt>
<trkpt lat="-27.2692057" lon="151.2898885">
  <ele>373.24</ele>
  <time>2026-09-01T19:58:28Z</time>
  <course>350.5</course>
  <speed>25.45</speed>
  <fix>3d</fix>
</trkpt>
<trkpt lat="-27.2691174" lon="151.2898736">
  <ele>373.3</ele>
  <time>2026-09-01T19:58:28Z</time>
  <course>353.16</course>
  <speed>25.47549606975299</speed>
  <fix>3d</fix>
</trkpt>
<trkpt lat="-27.2691606" lon="151.2898803">
  <ele>373.25</ele>
  <time>2026-09-01T19:58:28Z</time>
  <course>351.27</course>
  <speed>25.44</speed>
  <fix>3d</fix>
</trkpt>
<trkpt lat="-27.2690946" lon="151.2898706">
  <ele>373.29</ele>
  <time>2026-09-01T19:58:28Z</time>
  <course>352.71</course>
  <speed>25.48770684074972</speed>
  <fix>3d</fix>
</trkpt>
<trkpt lat="-27.2691606" lon="151.2898803">
  <ele>373.25</ele>
  <time>2026-09-01T19:58:28Z</time>
  <course>351.27</course>
  <speed>25.44</speed>
  <fix>3d</fix>
</trkpt>
<trkpt lat="-27.2690717" lon="151.289868">
  <ele>373.29</ele>
  <time>2026-09-01T19:58:28Z</time>
  <course>352.04</course>
  <speed>25.48610994247651</speed>
  <fix>3d</fix>
</trkpt>
<trkpt lat="-27.2691153" lon="151.2898732">
  <ele>373.25</ele>
  <time>2026-09-01T19:58:28Z</time>
  <course>352.81</course>
  <speed>25.44</speed>
  <fix>3d</fix>
</trkpt>
<trkpt lat="-27.2690489" lon="151.2898656">
  <ele>373.3</ele>
  <time>2026-09-01T19:58:28Z</time>
  <course>351.51</course>
  <speed>25.46772859915073</speed>
  <fix>3d</fix>
</trkpt>
<trkpt lat="-27.2691153" lon="151.2898732">
  <ele>373.25</ele>
  <time>2026-09-01T19:58:28Z</time>
  <course>352.81</course>
  <speed>25.44</speed>
  <fix>3d</fix>
</trkpt>
<trkpt lat="-27.2690259" lon="151.289863">
  <ele>373.33</ele>
  <time>2026-09-01T19:58:28Z</time>
  <course>351.4</course>
  <speed>25.447082347491236</speed>
  <fix>3d</fix>
</trkpt>
<trkpt lat="-27.2690699" lon="151.2898674">
  <ele>373.25</ele>
  <time>2026-09-01T19:58:28Z</time>
  <course>354.22</course>
  <speed>25.44</speed>
  <fix>3d</fix>
</trkpt>
<trkpt lat="-27.2690031" lon="151.2898602">
  <ele>373.35</ele>
  <time>2026-09-01T19:58:28Z</time>
  <course>352.02</course>
  <speed>25.439296373917262</speed>
  <fix>3d</fix>
</trkpt>
<trkpt lat="-27.2690699" lon="151.2898674">
  <ele>373.25</ele>
  <time>2026-09-01T19:58:28Z</time>
  <course>354.22</course>
  <speed>25.44</speed>
  <fix>3d</fix>
</trkpt>
<trkpt lat="-27.2689804" lon="151.289857">
  <ele>373.34</ele>
  <time>2026-09-01T19:58:28Z</time>
  <course>352.71</course>
  <speed>25.431012563403762</speed>
  <fix>3d</fix>
</trkpt>
<trkpt lat="-27.2690245" lon="151.2898624">
  <ele>373.28</ele>
  <time>2026-09-01T19:58:28Z</time>
  <course>354.06</course>
  <speed>25.4</speed>
  <fix>3d</fix>
</trkpt>
<trkpt lat="-27.2689578" lon="151.2898531">
  <ele>373.3</ele>
  <time>2026-09-01T19:58:28Z</time>
  <course>352.74</course>
  <speed>25.452671765455193</speed>
  <fix>3d</fix>
</trkpt>
<trkpt lat="-27.2690245" lon="151.2898624">
  <ele>373.28</ele>
  <time>2026-09-01T19:58:28Z</time>
  <course>354.06</course>
  <speed>25.4</speed>
  <fix>3d</fix>
</trkpt>
<trkpt lat="-27.268935" lon="151.2898486">
  <ele>373.23</ele>
  <time>2026-09-01T19:58:28Z</time>
  <course>351.66</course>
  <speed>25.503474273126002</speed>
  <fix>3d</fix>
</trkpt>
<trkpt lat="-27.2689791" lon="151.2898563">
  <ele>373.28</ele>
  <time>2026-09-01T19:58:28Z</time>
  <course>352.2</course>
  <speed>25.37</speed>
  <fix>3d</fix>
</trkpt>
<trkpt lat="-27.2689126" lon="151.2898432">
  <ele>373.15</ele>
  <time>2026-09-01T19:58:28Z</time>
  <course>349.75</course>
  <speed>25.59059983665877</speed>
  <fix>3d</fix>
</trkpt>
<trkpt lat="-27.2689791" lon="151.2898563">
  <ele>373.28</ele>
  <time>2026-09-01T19:58:28Z</time>
  <course>352.2</course>
  <speed>25.37</speed>
  <fix>3d</fix>
</trkpt>
<trkpt lat="-27.2688904" lon="151.2898367">
  <ele>373.06</ele>
  <time>2026-09-01T19:58:28Z</time>
  <course>347.34</course>
  <speed>25.68533628356849</speed>
  <fix>3d</fix>
</trkpt>
<trkpt lat="-27.2689341" lon="151.289848">
  <ele>373.18</ele>
  <time>2026-09-01T19:58:28Z</time>
  <course>348.99</course>
  <speed>25.4</speed>
  <fix>3d</fix>
</trkpt>
<trkpt lat="-27.2688683" lon="151.2898292">
  <ele>372.99</ele>
  <time>2026-09-01T19:58:28Z</time>
  <course>344.74</course>
  <speed>25.794768849516753</speed>
  <fix>3d</fix>
</trkpt>
<trkpt lat="-27.2689341" lon="151.289848">
  <ele>373.18</ele>
  <time>2026-09-01T19:58:28Z</time>
  <course>348.99</course>
  <speed>25.4</speed>
  <fix>3d</fix>
</trkpt>
<trkpt lat="-27.2688465" lon="151.2898204">
  <ele>372.92</ele>
  <time>2026-09-01T19:58:28Z</time>
  <course>342.28</course>
  <speed>25.88397573789622</speed>
  <fix>3d</fix>
</trkpt>
<trkpt lat="-27.2688897" lon="151.2898363">
  <ele>373.02</ele>
  <time>2026-09-01T19:58:28Z</time>
  <course>344.41</course>
  <speed>25.52</speed>
  <fix>3d</fix>
</trkpt>
<trkpt lat="-27.268825" lon="151.2898106">
  <ele>372.87</ele>
  <time>2026-09-01T19:58:28Z</time>
  <course>339.93</course>
  <speed>25.96059513955718</speed>
  <fix>3d</fix>
</trkpt>
<trkpt lat="-27.2688897" lon="151.2898363">
  <ele>373.02</ele>
  <time>2026-09-01T19:58:28Z</time>
  <course>344.41</course>
  <speed>25.52</speed>
  <fix>3d</fix>
</trkpt>
<trkpt lat="-27.2688037" lon="151.2897998">
  <ele>372.83</ele>
  <time>2026-09-01T19:58:28Z</time>
  <course>337.69</course>
  <speed>26.024329001916648</speed>
  <fix>3d</fix>
</trkpt>
<trkpt lat="-27.2688459" lon="151.2898202">
  <ele>372.88</ele>
  <time>2026-09-01T19:58:28Z</time>
  <course>339.34</course>
  <speed>25.68</speed>
  <fix>3d</fix>
</trkpt>
<trkpt lat="-27.2687828" lon="151.2897881">
  <ele>372.78</ele>
  <time>2026-09-01T19:58:28Z</time>
  <course>335.54</course>
  <speed>26.071398121312942</speed>
  <fix>3d</fix>
</trkpt>
<trkpt lat="-27.2688459" lon="151.2898202">
  <ele>372.88</ele>
  <time>2026-09-01T19:58:28Z</time>
  <course>339.34</course>
  <speed>25.68</speed>
  <fix>3d</fix>
</trkpt>
<trkpt lat="-27.2687622" lon="151.2897755">
  <ele>372.72</ele>
  <time>2026-09-01T19:58:28Z</time>
  <course>333.41</course>
  <speed>26.107048856582775</speed>
  <fix>3d</fix>
</trkpt>
<trkpt lat="-27.2688033" lon="151.2897997">
  <ele>372.77</ele>
  <time>2026-09-01T19:58:28Z</time>
  <course>334.7</course>
  <speed>25.8</speed>
  <fix>3d</fix>
</trkpt>
<trkpt lat="-27.2687421" lon="151.2897622">
  <ele>372.65</ele>
  <time>2026-09-01T19:58:28Z</time>
  <course>331.31</course>
  <speed>26.14984703588149</speed>
  <fix>3d</fix>
</trkpt>
<trkpt lat="-27.2688033" lon="151.2897997">
  <ele>372.77</ele>
  <time>2026-09-01T19:58:28Z</time>
  <course>334.7</course>
  <speed>25.8</speed>
  <fix>3d</fix>
</trkpt>
<trkpt lat="-27.2687223" lon="151.289748">
  <ele>372.56</ele>
  <time>2026-09-01T19:58:28Z</time>
  <course>329.09</course>
  <speed>26.201270961539255</speed>
  <fix>3d</fix>
</trkpt>
<trkpt lat="-27.2687621" lon="151.2897757">
  <ele>372.66</ele>
  <time>2026-09-01T19:58:28Z</time>
  <course>330.48</course>
  <speed>25.89</speed>
  <fix>3d</fix>
</trkpt>
<trkpt lat="-27.2687031" lon="151.2897329">
  <ele>372.46</ele>
  <time>2026-09-01T19:58:28Z</time>
  <course>326.76</course>
  <speed>26.261138589177737</speed>
  <fix>3d</fix>
</trkpt>
<trkpt lat="-27.2687621" lon="151.2897757">
  <ele>372.66</ele>
  <time>2026-09-01T19:58:28Z</time>
  <course>330.48</course>
  <speed>25.89</speed>
  <fix>3d</fix>
</trkpt>
<trkpt lat="-27.2686843" lon="151.2897169">
  <ele>372.35</ele>
  <time>2026-09-01T19:58:28Z</time>
  <course>324.27</course>
  <speed>26.31094449083879</speed>
  <fix>3d</fix>
</trkpt>
<trkpt lat="-27.2687225" lon="151.2897482">
  <ele>372.51</ele>
  <time>2026-09-01T19:58:28Z</time>
  <course>326.19</course>
  <speed>25.97</speed>
  <fix>3d</fix>
</trkpt>
<trkpt lat="-27.2686663" lon="151.2897001">
  <ele>372.23</ele>
  <time>2026-09-01T19:58:28Z</time>
  <course>321.79</course>
  <speed>26.368058328212186</speed>
  <fix>3d</fix>
</trkpt>
<trkpt lat="-27.2687225" lon="151.2897482">
  <ele>372.51</ele>
  <time>2026-09-01T19:58:28Z</time>
  <course>326.19</course>
  <speed>25.97</speed>
  <fix>3d</fix>
</trkpt>
<trkpt lat="-27.268649" lon="151.2896825">
  <ele>372.1</ele>
  <time>2026-09-01T19:58:28Z</time>
  <course>319.2</course>
  <speed>26.407962814272516</speed>
  <fix>3d</fix>
</trkpt>
<trkpt lat="-27.2686847" lon="151.2897173">
  <ele>372.3</ele>
  <time>2026-09-01T19:58:28Z</time>
  <course>321.55</course>
  <speed>26.08</speed>
  <fix>3d</fix>
</trkpt>
<trkpt lat="-27.2686322" lon="151.2896639">
  <ele>371.97</ele>
  <time>2026-09-01T19:58:28Z</time>
  <course>316.54</course>
  <speed>26.44158278167175</speed>
  <fix>3d</fix>
</trkpt>
<trkpt lat="-27.2686847" lon="151.2897173">
  <ele>372.3</ele>
  <time>2026-09-01T19:58:28Z</time>
  <course>321.55</course>
  <speed>26.08</speed>
  <fix>3d</fix>
</trkpt>
<trkpt lat="-27.2686164" lon="151.2896446">
  <ele>371.84</ele>
  <time>2026-09-01T19:58:28Z</time>
  <course>313.93</course>
  <speed>26.450833635256185</speed>
  <fix>3d</fix>
</trkpt>
<trkpt lat="-27.2686492" lon="151.2896826">
  <ele>372.05</ele>
  <time>2026-09-01T19:58:28Z</time>
  <course>316.59</course>
  <speed>26.19</speed>
  <fix>3d</fix>
</trkpt>
<trkpt lat="-27.2686011" lon="151.2896242">
  <ele>371.7</ele>
  <time>2026-09-01T19:58:28Z</time>
  <course>311.37</course>
  <speed>26.467430929351643</speed>
  <fix>3d</fix>
</trkpt>
<trkpt lat="-27.2686492" lon="151.2896826">
  <ele>372.05</ele>
  <time>2026-09-01T19:58:28Z</time>
  <course>316.59</course>
  <speed>26.19</speed>
  <fix>3d</fix>
</trkpt>
<trkpt lat="-27.2685868" lon="151.2896034">
  <ele>371.56</ele>
  <time>2026-09-01T19:58:28Z</time>
  <course>308.78</course>
  <speed>26.45042532739313</speed>
  <fix>3d</fix>
</trkpt>
<trkpt lat="-27.2686164" lon="151.2896445">
  <ele>371.78</ele>
  <time>2026-09-01T19:58:28Z</time>
  <course>311.52</course>
  <speed>26.28</speed>
  <fix>3d</fix>
</trkpt>
<trkpt lat="-27.2685732" lon="151.2895819">
  <ele>371.42</ele>
  <time>2026-09-01T19:58:28Z</time>
  <course>306.27</course>
  <speed>26.445873023971057</speed>
  <fix>3d</fix>
</trkpt>
<trkpt lat="-27.2686164" lon="151.2896445">
  <ele>371.78</ele>
  <time>2026-09-01T19:58:28Z</time>
  <course>311.52</course>
  <speed>26.28</speed>
  <fix>3d</fix>
</trkpt>
<trkpt lat="-27.2685606" lon="151.2895597">
  <ele>371.29</ele>
  <time>2026-09-01T19:58:28Z</time>
  <course>303.83</course>
  <speed>26.41582101695876</speed>
  <fix>3d</fix>
</trkpt>
<trkpt lat="-27.2685867" lon="151.2896033">
  <ele>371.51</ele>
  <time>2026-09-01T19:58:28Z</time>
  <course>306.48</course>
  <speed>26.33</speed>
  <fix>3d</fix>
</trkpt>
<trkpt lat="-27.2685487" lon="151.2895369">
  <ele>371.15</ele>
  <time>2026-09-01T19:58:28Z</time>
  <course>301.45</course>
  <speed>26.39575723482848</speed>
  <fix>3d</fix>
</trkpt>
<trkpt lat="-27.2685867" lon="151.2896033">
  <ele>371.51</ele>
  <time>2026-09-01T19:58:28Z</time>
  <course>306.48</course>
  <speed>26.33</speed>
  <fix>3d</fix>
</trkpt>
<trkpt lat="-27.2685377" lon="151.2895135">
  <ele>371.0</ele>
  <time>2026-09-01T19:58:28Z</time>
  <course>299.11</course>
  <speed>26.372504621290712</speed>
  <fix>3d</fix>
</trkpt>
<trkpt lat="-27.2685603" lon="151.2895591">
  <ele>371.22</ele>
  <time>2026-09-01T19:58:28Z</time>
  <course>301.55</course>
  <speed>26.35</speed>
  <fix>3d</fix>
</trkpt>
<trkpt lat="-27.2685275" lon="151.2894896">
  <ele>370.86</ele>
  <time>2026-09-01T19:58:28Z</time>
  <course>296.79</course>
  <speed>26.35346846242445</speed>
  <fix>3d</fix>
</trkpt>
<trkpt lat="-27.2685603" lon="151.2895591">
  <ele>371.22</ele>
  <time>2026-09-01T19:58:28Z</time>
  <course>301.55</course>
  <speed>26.35</speed>
  <fix>3d</fix>
</trkpt>
<trkpt lat="-27.2685181" lon="151.2894652">
  <ele>370.71</ele>
  <time>2026-09-01T19:58:28Z</time>
  <course>294.56</course>
  <speed>26.332240694631363</speed>
  <fix>3d</fix>
</trkpt>
<trkpt lat="-27.2685372" lon="151.2895126">
  <ele>370.94</ele>
  <time>2026-09-01T19:58:28Z</time>
  <course>296.77</course>
  <speed>26.34</speed>
  <fix>3d</fix>
</trkpt>
<trkpt lat="-27.2685096" lon="151.2894404">
  <ele>370.56</ele>
  <time>2026-09-01T19:58:28Z</time>
  <course>292.36</course>
  <speed>26.303963579658486</speed>
  <fix>3d</fix>
</trkpt>
<trkpt lat="-27.2685372" lon="151.2895126">
  <ele>370.94</ele>
  <time>2026-09-01T19:58:28Z</time>
  <course>296.77</course>
  <speed>26.34</speed>
  <fix>3d</fix>
</trkpt>
<trkpt lat="-27.268502" lon="151.2894152">
  <ele>370.41</ele>
  <time>2026-09-01T19:58:28Z</time>
  <course>290.2</course>
  <speed>26.267489411818556</speed>
  <fix>3d</fix>
</trkpt>
<trkpt lat="-27.2685176" lon="151.2894641">
  <ele>370.64</ele>
  <time>2026-09-01T19:58:28Z</time>
  <course>292.15</course>
  <speed>26.31</speed>
  <fix>3d</fix>
</trkpt>
<trkpt lat="-27.2684951" lon="151.2893896">
  <ele>370.26</ele>
  <time>2026-09-01T19:58:28Z</time>
  <course>288.19</course>
  <speed>26.219603353216463</speed>
  <fix>3d</fix>
</trkpt>
<trkpt lat="-27.2685176" lon="151.2894641">
  <ele>370.64</ele>
  <time>2026-09-01T19:58:28Z</time>
  <course>292.15</course>
  <speed>26.31</speed>
  <fix>3d</fix>
</trkpt>
<trkpt lat="-27.2684892" lon="151.2893642">
  <ele>370.11</ele>
  <time>2026-09-01T19:58:28Z</time>
  <course>286.24</course>
  <speed>26.15783247901095</speed>
  <fix>3d</fix>
</trkpt>
<trkpt lat="-27.2685015" lon="151.289414">
  <ele>370.34</ele>
  <time>2026-09-01T19:58:28Z</time>
  <course>287.75</course>
  <speed>26.25</speed>
  <fix>3d</fix>
</trkpt>
<trkpt lat="-27.268484" lon="151.2893387">
  <ele>369.95</ele>
  <time>2026-09-01T19:58:28Z</time>
  <course>284.45</course>
  <speed>26.088652705726293</speed>
  <fix>3d</fix>
</trkpt>
<trkpt lat="-27.2685015" lon="151.289414">
  <ele>370.34</ele>
  <time>2026-09-01T19:58:28Z</time>
  <course>287.75</course>
  <speed>26.25</speed>
  <fix>3d</fix>
</trkpt>
<trkpt lat="-27.2684796" lon="151.2893131">
  <ele>369.8</ele>
  <time>2026-09-01T19:58:28Z</time>
  <course>282.74</course>
  <speed>26.004709188914227</speed>
  <fix>3d</fix>
</trkpt>
<trkpt lat="-27.2684888" lon="151.2893631">
  <ele>370.03</ele>
  <time>2026-09-01T19:58:28Z</time>
  <course>283.69</course>
  <speed>26.16</speed>
  <fix>3d</fix>
</trkpt>
<trkpt lat="-27.2684758" lon="151.2892873">
  <ele>369.64</ele>
  <time>2026-09-01T19:58:28Z</time>
  <course>281.12</course>
  <speed>25.93289224132164</speed>
  <fix>3d</fix>
</trkpt>
<trkpt lat="-27.2684888" lon="151.2893631">
  <ele>370.03</ele>
  <time>2026-09-01T19:58:28Z</time>
  <course>283.69</course>
  <speed>26.16</speed>
  <fix>3d</fix>
</trkpt>
<trkpt lat="-27.2684727" lon="151.2892616">
  <ele>369.48</ele>
  <time>2026-09-01T19:58:28Z</time>
  <course>279.58</course>
  <speed>25.848984506165806</speed>
  <fix>3d</fix>
</trkpt>
<trkpt lat="-27.2684792" lon="151.2893115">
  <ele>369.72</ele>
  <time>2026-09-01T19:58:28Z</time>
  <course>280.06</course>
  <speed>26.05</speed>
  <fix>3d</fix>
</trkpt>
<trkpt lat="-27.2684702" lon="151.2892359">
  <ele>369.31</ele>
  <time>2026-09-01T19:58:28Z</time>
  <course>278.13</course>
  <speed>25.75774058414286</speed>
  <fix>3d</fix>
</trkpt>
<trkpt lat="-27.2684792" lon="151.2893115">
  <ele>369.72</ele>
  <time>2026-09-01T19:58:28Z</time>
  <course>280.06</course>
  <speed>26.05</speed>
  <fix>3d</fix>
</trkpt>
<trkpt lat="-27.2684683" lon="151.2892104">
  <ele>369.13</ele>
  <time>2026-09-01T19:58:28Z</time>
  <course>276.78</course>
  <speed>25.676732658186864</speed>
  <fix>3d</fix>
</trkpt>
<trkpt lat="-27.2684724" lon="151.2892595">
  <ele>369.39</ele>
  <time>2026-09-01T19:58:28Z</time>
  <course>276.85</course>
  <speed>25.91</speed>
  <fix>3d</fix>
</trkpt>
<trkpt lat="-27.2684669" lon="151.2891848">
  <ele>368.95</ele>
  <time>2026-09-01T19:58:28Z</time>
  <course>275.51</course>
  <speed>25.592030009360336</speed>
  <fix>3d</fix>
</trkpt>
<trkpt lat="-27.2684724" lon="151.2892595">
  <ele>369.39</ele>
  <time>2026-09-01T19:58:28Z</time>
  <course>276.85</course>
  <speed>25.91</speed>
  <fix>3d</fix>
</trkpt>
<trkpt lat="-27.268466" lon="151.289159">
  <ele>368.75</ele>
  <time>2026-09-01T19:58:28Z</time>
  <course>274.27</course>
  <speed>25.521022706780386</speed>
  <fix>3d</fix>
</trkpt>
<trkpt lat="-27.268468" lon="151.2892076">
  <ele>369.03</ele>
  <time>2026-09-01T19:58:28Z</time>
  <course>274.03</course>
  <speed>25.77</speed>
  <fix>3d</fix>
</trkpt>
<trkpt lat="-27.2684655" lon="151.2891333">
  <ele>368.55</ele>
  <time>2026-09-01T19:58:28Z</time>
  <course>273.11</course>
  <speed>25.461131161046243</speed>
  <fix>3d</fix>
</trkpt>
<trkpt lat="-27.268468" lon="151.2892076">
  <ele>369.03</ele>
  <time>2026-09-01T19:58:28Z</time>
  <course>274.03</course>
  <speed>25.77</speed>
  <fix>3d</fix>
</trkpt>
<trkpt lat="-27.2684655" lon="151.2891073">
  <ele>368.34</ele>
  <time>2026-09-01T19:58:28Z</time>
  <course>272.02</course>
  <speed>25.40095273803721</speed>
  <fix>3d</fix>
</trkpt>
<trkpt lat="-27.2684658" lon="151.2891556">
  <ele>368.65</ele>
  <time>2026-09-01T19:58:28Z</time>
  <course>271.56</course>
  <speed>25.63</speed>
  <fix>3d</fix>
</trkpt>
<trkpt lat="-27.2684659" lon="151.2890816">
  <ele>368.12</ele>
  <time>2026-09-01T19:58:28Z</time>
  <course>270.92</course>
  <speed>25.33859704087817</speed>
  <fix>3d</fix>
</trkpt>
<trkpt lat="-27.2684658" lon="151.2891556">
  <ele>368.65</ele>
  <time>2026-09-01T19:58:28Z</time>
  <course>271.56</course>
  <speed>25.63</speed>
  <fix>3d</fix>
</trkpt>
<trkpt lat="-27.2684667" lon="151.2890559">
  <ele>367.89</ele>
  <time>2026-09-01T19:58:28Z</time>
  <course>269.86</course>
  <speed>25.29306822036425</speed>
  <fix>3d</fix>
</trkpt>
<trkpt lat="-27.2684653" lon="151.289104">
  <ele>368.24</ele>
  <time>2026-09-01T19:58:28Z</time>
  <course>269.36</course>
  <speed>25.5</speed>
  <fix>3d</fix>
</trkpt>
<trkpt lat="-27.2684678" lon="151.2890303">
  <ele>367.66</ele>
  <time>2026-09-01T19:58:28Z</time>
  <course>268.85</course>
  <speed>25.253993743564603</speed>
  <fix>3d</fix>
</trkpt>
<trkpt lat="-27.2684653" lon="151.289104">
  <ele>368.24</ele>
  <time>2026-09-01T19:58:28Z</time>
  <course>269.36</course>
  <speed>25.5</speed>
  <fix>3d</fix>
</trkpt>
<trkpt lat="-27.2684693" lon="151.2890047">
  <ele>367.42</ele>
  <time>2026-09-01T19:58:28Z</time>
  <course>267.9</course>
  <speed>25.209452592232147</speed>
  <fix>3d</fix>
</trkpt>
<trkpt lat="-27.2684666" lon="151.2890527">
  <ele>367.8</ele>
  <time>2026-09-01T19:58:28Z</time>
  <course>267.39</course>
  <speed>25.39</speed>
  <fix>3d</fix>
</trkpt>
<trkpt lat="-27.268471" lon="151.2889792">
  <ele>367.18</ele>
  <time>2026-09-01T19:58:28Z</time>
  <course>267.0</course>
  <speed>25.17894556966197</speed>
  <fix>3d</fix>
</trkpt>
<trkpt lat="-27.2684666" lon="151.2890527">
  <ele>367.8</ele>
  <time>2026-09-01T19:58:28Z</time>
  <course>267.39</course>
  <speed>25.39</speed>
  <fix>3d</fix>
</trkpt>
<trkpt lat="-27.2684732" lon="151.2889537">
  <ele>366.94</ele>
  <time>2026-09-01T19:58:28Z</time>
  <course>266.11</course>
  <speed>25.16159374920436</speed>
  <fix>3d</fix>
</trkpt>
<trkpt lat="-27.2684694" lon="151.2890016">
  <ele>367.34</ele>
  <time>2026-09-01T19:58:28Z</time>
  <course>265.6</course>
  <speed>25.3</speed>
  <fix>3d</fix>
</trkpt>
<trkpt lat="-27.2684757" lon="151.2889283">
  <ele>366.7</ele>
  <time>2026-09-01T19:58:28Z</time>
  <course>265.26</course>
  <speed>25.136686336906063</speed>
  <fix>3d</fix>
</trkpt>
<trkpt lat="-27.2684694" lon="151.2890016">
  <ele>367.34</ele>
  <time>2026-09-01T19:58:28Z</time>
  <course>265.6</course>
  <speed>25.3</speed>
  <fix>3d</fix>
</trkpt>
<trkpt lat="-27.2684784" lon="151.288903">
  <ele>366.46</ele>
  <time>2026-09-01T19:58:28Z</time>
  <course>264.51</course>
  <speed>25.123345716683517</speed>
  <fix>3d</fix>
</trkpt>
<trkpt lat="-27.2684735" lon="151.2889506">
  <ele>366.87</ele>
  <time>2026-09-01T19:58:28Z</time>
  <course>263.99</course>
  <speed>25.23</speed>
  <fix>3d</fix>
</trkpt>
<trkpt lat="-27.2684814" lon="151.2888777">
  <ele>366.23</ele>
  <time>2026-09-01T19:58:28Z</time>
  <course>263.76</course>
  <speed>25.11229380204047</speed>
  <fix>3d</fix>
</trkpt>
<trkpt lat="-27.2684735" lon="151.2889506">
  <ele>366.87</ele>
  <time>2026-09-01T19:58:28Z</time>
  <course>263.99</course>
  <speed>25.23</speed>
  <fix>3d</fix>
</trkpt>
<trkpt lat="-27.2684847" lon="151.2888525">
  <ele>366.0</ele>
  <time>2026-09-01T19:58:28Z</time>
  <course>263.03</course>
  <speed>25.110087614343364</speed>
  <fix>3d</fix>
</trkpt>
<trkpt lat="-27.2684788" lon="151.2888999">
  <ele>366.4</ele>
  <time>2026-09-01T19:58:28Z</time>
  <course>262.54</course>
  <speed>25.18</speed>
  <fix>3d</fix>
</trkpt>
<trkpt lat="-27.2684882" lon="151.2888273">
  <ele>365.77</ele>
  <time>2026-09-01T19:58:28Z</time>
  <course>262.36</course>
  <speed>25.099173293158483</speed>
  <fix>3d</fix>
</trkpt>
<trkpt lat="-27.2684788" lon="151.2888999">
  <ele>366.4</ele>
  <time>2026-09-01T19:58:28Z</time>
  <course>262.54</course>
  <speed>25.18</speed>
  <fix>3d</fix>
</trkpt>
<trkpt lat="-27.2684919" lon="151.2888022">
  <ele>365.55</ele>
  <time>2026-09-01T19:58:28Z</time>
  <course>261.73</course>
  <speed>25.099013924853704</speed>
  <fix>3d</fix>
</trkpt>
<trkpt lat="-27.2684852" lon="151.2888496">
  <ele>365.94</ele>
  <time>2026-09-01T19:58:28Z</time>
  <course>261.27</course>
  <speed>25.16</speed>
  <fix>3d</fix>
</trkpt>
<trkpt lat="-27.2684958" lon="151.2887771">
  <ele>365.34</ele>
  <time>2026-09-01T19:58:28Z</time>
  <course>261.15</course>
  <speed>25.105730421559137</speed>
  <fix>3d</fix>
</trkpt>
<trkpt lat="-27.2684852" lon="151.2888496">
  <ele>365.94</ele>
  <time>2026-09-01T19:58:28Z</time>
  <course>261.27</course>
  <speed>25.16</speed>
  <fix>3d</fix>
</trkpt>
<trkpt lat="-27.2684999" lon="151.2887522">
  <ele>365.14</ele>
  <time>2026-09-01T19:58:28Z</time>
  <course>260.61</course>
  <speed>25.100713137279584</speed>
  <fix>3d</fix>
</trkpt>
<trkpt lat="-27.2684925" lon="151.2887994">
  <ele>365.51</ele>
  <time>2026-09-01T19:58:28Z</time>
  <course>260.16</course>
  <speed>25.15</speed>
  <fix>3d</fix>
</trkpt>
<trkpt lat="-27.2685041" lon="151.2887273">
  <ele>364.94</ele>
  <time>2026-09-01T19:58:28Z</time>
  <course>260.08</course>
  <speed>25.105093108769783</speed>
  <fix>3d</fix>
</trkpt>
<trkpt lat="-27.2684925" lon="151.2887994">
  <ele>365.51</ele>
  <time>2026-09-01T19:58:28Z</time>
  <course>260.16</course>
  <speed>25.15</speed>
  <fix>3d</fix>
</trkpt>
<trkpt lat="-27.2685085" lon="151.2887025">
  <ele>364.76</ele>
  <time>2026-09-01T19:58:28Z</time>
  <course>259.65</course>
  <speed>25.097029704728005</speed>
  <fix>3d</fix>
</trkpt>
<trkpt lat="-27.2685006" lon="151.2887494">
  <ele>365.1</ele>
  <time>2026-09-01T19:58:28Z</time>
  <course>259.22</course>
  <speed>25.14</speed>
  <fix>3d</fix>
</trkpt>
<trkpt lat="-27.2685131" lon="151.2886778">
  <ele>364.59</ele>
  <time>2026-09-01T19:58:28Z</time>
  <course>259.21</course>
  <speed>25.095756613419727</speed>
  <fix>3d</fix>
</trkpt>
<trkpt lat="-27.2685006" lon="151.2887494">
  <ele>365.1</ele>
  <time>2026-09-01T19:58:28Z</time>
  <course>259.22</course>
  <speed>25.14</speed>
  <fix>3d</fix>
</trkpt>
<trkpt lat="-27.2685178" lon="151.2886529">
  <ele>364.42</ele>
  <time>2026-09-01T19:58:28Z</time>
  <course>258.85</course>
  <speed>25.102989861767465</speed>
  <fix>3d</fix>
</trkpt>
<trkpt lat="-27.2685094" lon="151.2886996">
  <ele>364.73</ele>
  <time>2026-09-01T19:58:28Z</time>
  <course>258.44</course>
  <speed>25.14</speed>
  <fix>3d</fix>
</trkpt>
<trkpt lat="-27.2685225" lon="151.2886281">
  <ele>364.26</ele>
  <time>2026-09-01T19:58:28Z</time>
  <course>258.51</course>
  <speed>25.106640555837018</speed>
  <fix>3d</fix>
</trkpt>
<trkpt lat="-27.2685094" lon="151.2886996">
  <ele>364.73</ele>
  <time>2026-09-01T19:58:28Z</time>
  <course>258.44</course>
  <speed>25.14</speed>
  <fix>3d</fix>
</trkpt>
<trkpt lat="-27.2685275" lon="151.2886033">
  <ele>364.11</ele>
  <time>2026-09-01T19:58:28Z</time>
  <course>258.21</course>
  <speed>25.120549357050294</speed>
  <fix>3d</fix>
</trkpt>
<trkpt lat="-27.2685187" lon="151.2886498">
  <ele>364.4</ele>
  <time>2026-09-01T19:58:28Z</time>
  <course>257.82</course>
  <speed>25.15</speed>
  <fix>3d</fix>
</trkpt>
<trkpt lat="-27.2685325" lon="151.2885782">
  <ele>363.96</ele>
  <time>2026-09-01T19:58:28Z</time>
  <course>257.91</course>
  <speed>25.130511335824426</speed>
  <fix>3d</fix>
</trkpt>
<trkpt lat="-27.2685187" lon="151.2886498">
  <ele>364.4</ele>
  <time>2026-09-01T19:58:28Z</time>
  <course>257.82</course>
  <speed>25.15</speed>
  <fix>3d</fix>
</trkpt>
<trkpt lat="-27.2685376" lon="151.2885534">
  <ele>363.83</ele>
  <time>2026-09-01T19:58:28Z</time>
  <course>257.65</course>
  <speed>25.131050515249058</speed>
  <fix>3d</fix>
</trkpt>
<trkpt lat="-27.2685284" lon="151.2886002">
  <ele>364.09</ele>
  <time>2026-09-01T19:58:28Z</time>
  <course>257.32</course>
  <speed>25.16</speed>
  <fix>3d</fix>
</trkpt>
<trkpt lat="-27.2685427" lon="151.2885286">
  <ele>363.7</ele>
  <time>2026-09-01T19:58:28Z</time>
  <course>257.41</course>
  <speed>25.144583909860188</speed>
  <fix>3d</fix>
</trkpt>
<trkpt lat="-27.2685284" lon="151.2886002">
  <ele>364.09</ele>
  <time>2026-09-01T19:58:28Z</time>
  <course>257.32</course>
  <speed>25.16</speed>
  <fix>3d</fix>
</trkpt>
<trkpt lat="-27.2685479" lon="151.2885037">
  <ele>363.58</ele>
  <time>2026-09-01T19:58:28Z</time>
  <course>257.2</course>
  <speed>25.160544509211242</speed>
  <fix>3d</fix>
</trkpt>
<trkpt lat="-27.2685385" lon="151.2885506">
  <ele>363.82</ele>
  <time>2026-09-01T19:58:28Z</time>
  <course>256.93</course>
  <speed>25.17</speed>
  <fix>3d</fix>
</trkpt>
<trkpt lat="-27.2685532" lon="151.2884789">
  <ele>363.46</ele>
  <time>2026-09-01T19:58:28Z</time>
  <course>257.03</course>
  <speed>25.16464384806588</speed>
  <fix>3d</fix>
</trkpt>
<trkpt lat="-27.2685385" lon="151.2885506">
  <ele>363.82</ele>
  <time>2026-09-01T19:58:28Z</time>
  <course>256.93</course>
  <speed>25.17</speed>
  <fix>3d</fix>
</trkpt>
<trkpt lat="-27.2685585" lon="151.2884541">
  <ele>363.36</ele>
  <time>2026-09-01T19:58:28Z</time>
  <course>256.87</course>
  <speed>25.17627454569083</speed>
  <fix>3d</fix>
</trkpt>
<trkpt lat="-27.2685488" lon="151.2885011">
  <ele>363.58</ele>
  <time>2026-09-01T19:58:28Z</time>
  <course>256.64</course>
  <speed>25.18</speed>
  <fix>3d</fix>
</trkpt>
<trkpt lat="-27.2685638" lon="151.2884293">
  <ele>363.26</ele>
  <time>2026-09-01T19:58:28Z</time>
  <course>256.76</course>
  <speed>25.183298036595602</speed>
  <fix>3d</fix>
</trkpt>
<trkpt lat="-27.2685488" lon="151.2885011">
  <ele>363.58</ele>
  <time>2026-09-01T19:58:28Z</time>
  <course>256.64</course>
  <speed>25.18</speed>
  <fix>3d</fix>
</trkpt>
<trkpt lat="-27.2685692" lon="151.2884045">
  <ele>363.17</ele>
  <time>2026-09-01T19:58:28Z</time>
  <course>256.69</course>
  <speed>25.190355297216435</speed>
  <fix>3d</fix>
</trkpt>
<trkpt lat="-27.2685594" lon="151.2884516">
  <ele>363.37</ele>
  <time>2026-09-01T19:58:28Z</time>
  <course>256.42</course>
  <speed>25.19</speed>
  <fix>3d</fix>
</trkpt>
<trkpt lat="-27.2685746" lon="151.2883797">
  <ele>363.08</ele>
  <time>2026-09-01T19:58:28Z</time>
  <course>256.65</course>
  <speed>25.19744629917881</speed>
  <fix>3d</fix>
</trkpt>
<trkpt lat="-27.2685594" lon="151.2884516">
  <ele>363.37</ele>
  <time>2026-09-01T19:58:28Z</time>
  <course>256.42</course>
  <speed>25.19</speed>
  <fix>3d</fix>
</trkpt>
<trkpt lat="-27.26858" lon="151.2883549">
  <ele>363.01</ele>
  <time>2026-09-01T19:58:28Z</time>
  <course>256.54</course>
  <speed>25.19981745965633</speed>
  <fix>3d</fix>
</trkpt>
<trkpt lat="-27.2685701" lon="151.288402">
  <ele>363.18</ele>
  <time>2026-09-01T19:58:28Z</time>
  <course>256.27</course>
  <speed>25.2</speed>
  <fix>3d</fix>
</trkpt>
<trkpt lat="-27.2685854" lon="151.2883301">
  <ele>362.94</ele>
  <time>2026-09-01T19:58:28Z</time>
  <course>256.47</course>
  <speed>25.20219236495111</speed>
  <fix>3d</fix>
</trkpt>
<trkpt lat="-27.2685701" lon="151.288402">
  <ele>363.18</ele>
  <time>2026-09-01T19:58:28Z</time>
  <course>256.27</course>
  <speed>25.2</speed>
  <fix>3d</fix>
</trkpt>
<trkpt lat="-27.2685909" lon="151.2883053">
  <ele>362.87</ele>
  <time>2026-09-01T19:58:28Z</time>
  <course>256.44</course>
  <speed>25.204571014004582</speed>
  <fix>3d</fix>
</trkpt>
<trkpt lat="-27.2685808" lon="151.2883524">
  <ele>363.03</ele>
  <time>2026-09-01T19:58:28Z</time>
  <course>256.2</course>
  <speed>25.2</speed>
  <fix>3d</fix>
</trkpt>
<trkpt lat="-27.2685963" lon="151.2882805">
  <ele>362.81</ele>
  <time>2026-09-01T19:58:28Z</time>
  <course>256.44</course>
  <speed>25.206953405756913</speed>
  <fix>3d</fix>
</trkpt>
<trkpt lat="-27.2685808" lon="151.2883524">
  <ele>363.03</ele>
  <time>2026-09-01T19:58:28Z</time>
  <course>256.2</course>
  <speed>25.2</speed>
  <fix>3d</fix>
</trkpt>
<trkpt lat="-27.2686017" lon="151.2882559">
  <ele>362.76</ele>
  <time>2026-09-01T19:58:28Z</time>
  <course>256.43</course>
  <speed>25.206953405756913</speed>
  <fix>3d</fix>
</trkpt>
<trkpt lat="-27.2685917" lon="151.288303">
  <ele>362.9</ele>
  <time>2026-09-01T19:58:28Z</time>
  <course>256.17</course>
  <speed>25.2</speed>
  <fix>3d</fix>
</trkpt>
<trkpt lat="-27.2686071" lon="151.2882312">
  <ele>362.71</ele>
  <time>2026-09-01T19:58:28Z</time>
  <course>256.43</course>
  <speed>25.206953405756913</speed>
  <fix>3d</fix>
</trkpt>
<trkpt lat="-27.2685917" lon="151.288303">
  <ele>362.9</ele>
  <time>2026-09-01T19:58:28Z</time>
  <course>256.17</course>
  <speed>25.2</speed>
  <fix>3d</fix>
</trkpt>
<trkpt lat="-27.2686125" lon="151.2882067">
  <ele>362.67</ele>
  <time>2026-09-01T19:58:28Z</time>
  <course>256.44</course>
  <speed>25.197241912558606</speed>
  <fix>3d</fix>
</trkpt>
<trkpt lat="-27.2686025" lon="151.2882536">
  <ele>362.78</ele>
  <time>2026-09-01T19:58:28Z</time>
  <course>256.16</course>
  <speed>25.2</speed>
  <fix>3d</fix>
</trkpt>
<trkpt lat="-27.2686179" lon="151.2881821">
  <ele>362.62</ele>
  <time>2026-09-01T19:58:28Z</time>
  <course>256.4</course>
  <speed>25.19485860250063</speed>
  <fix>3d</fix>
</trkpt>
<trkpt lat="-27.2686025" lon="151.2882536">
  <ele>362.78</ele>
  <time>2026-09-01T19:58:28Z</time>
  <course>256.16</course>
  <speed>25.2</speed>
  <fix>3d</fix>
</trkpt>
<trkpt lat="-27.2686233" lon="151.2881575">
  <ele>362.58</ele>
  <time>2026-09-01T19:58:28Z</time>
  <course>256.37</course>
  <speed>25.192479036410845</speed>
  <fix>3d</fix>
</trkpt>
<trkpt lat="-27.2686133" lon="151.2882041">
  <ele>362.69</ele>
  <time>2026-09-01T19:58:28Z</time>
  <course>256.18</course>
  <speed>25.21</speed>
  <fix>3d</fix>
</trkpt>
<trkpt lat="-27.2686286" lon="151.288133">
  <ele>362.55</ele>
  <time>2026-09-01T19:58:28Z</time>
  <course>256.36</course>
  <speed>25.180389194768217</speed>
  <fix>3d</fix>
</trkpt>
<trkpt lat="-27.2686133" lon="151.2882041">
  <ele>362.69</ele>
  <time>2026-09-01T19:58:28Z</time>
  <course>256.18</course>
  <speed>25.21</speed>
  <fix>3d</fix>
</trkpt>
<trkpt lat="-27.268634" lon="151.2881084">
  <ele>362.51</ele>
  <time>2026-09-01T19:58:28Z</time>
  <course>256.38</course>
  <speed>25.17801620461787</speed>
  <fix>3d</fix>
</trkpt>
<trkpt lat="-27.268624" lon="151.2881546">
  <ele>362.61</ele>
  <time>2026-09-01T19:58:28Z</time>
  <course>256.23</course>
  <speed>25.21</speed>
  <fix>3d</fix>
</trkpt>
<trkpt lat="-27.2686393" lon="151.2880838">
  <ele>362.48</ele>
  <time>2026-09-01T19:58:28Z</time>
  <course>256.42</course>
  <speed>25.17564696288856</speed>
  <fix>3d</fix>
</trkpt>
<trkpt lat="-27.268624" lon="151.2881546">
  <ele>362.61</ele>
  <time>2026-09-01T19:58:28Z</time>
  <course>256.23</course>
  <speed>25.21</speed>
  <fix>3d</fix>
</trkpt>
<trkpt lat="-27.2686446" lon="151.2880593">
  <ele>362.46</ele>
  <time>2026-09-01T19:58:28Z</time>
  <course>256.46</course>
  <speed>25.173281470638667</speed>
  <fix>3d</fix>
</trkpt>
<trkpt lat="-27.2686349" lon="151.2881051">
  <ele>362.54</ele>
  <time>2026-09-01T19:58:28Z</time>
  <course>256.28</course>
  <speed>25.21</speed>
  <fix>3d</fix>
</trkpt>
<trkpt lat="-27.26865" lon="151.2880346">
  <ele>362.43</ele>
  <time>2026-09-01T19:58:28Z</time>
  <course>256.51</course>
  <speed>25.17828032253196</speed>
  <fix>3d</fix>
</trkpt>
<trkpt lat="-27.2686349" lon="151.2881051">
  <ele>362.54</ele>
  <time>2026-09-01T19:58:28Z</time>
  <course>256.28</course>
  <speed>25.21</speed>
  <fix>3d</fix>
</trkpt>
<trkpt lat="-27.2686553" lon="151.2880098">
  <ele>362.41</ele>
  <time>2026-09-01T19:58:28Z</time>
  <course>256.57</course>
  <speed>25.175926993856653</speed>
  <fix>3d</fix>
</trkpt>
<trkpt lat="-27.2686456" lon="151.2880556">
  <ele>362.48</ele>
  <time>2026-09-01T19:58:28Z</time>
  <course>256.34</course>
  <speed>25.21</speed>
  <fix>3d</fix>
</trkpt>
<trkpt lat="-27.2686608" lon="151.2879845">
  <ele>362.4</ele>
  <time>2026-09-01T19:58:28Z</time>
  <course>256.58</course>
  <speed>25.183298036595602</speed>
  <fix>3d</fix>
</trkpt>
<trkpt lat="-27.2686456" lon="151.2880556">
  <ele>362.48</ele>
  <time>2026-09-01T19:58:28Z</time>
  <course>256.34</course>
  <speed>25.21</speed>
  <fix>3d</fix>
</trkpt>
<trkpt lat="-27.2686661" lon="151.2879598">
  <ele>362.38</ele>
  <time>2026-09-01T19:58:28Z</time>
  <course>256.6</course>
  <speed>25.188334601557127</speed>
  <fix>3d</fix>
</trkpt>
<trkpt lat="-27.2686562" lon="151.2880061">
  <ele>362.44</ele>
  <time>2026-09-01T19:58:28Z</time>
  <course>256.42</course>
  <speed>25.21</speed>
  <fix>3d</fix>
</trkpt>
<trkpt lat="-27.2686713" lon="151.2879351">
  <ele>362.36</ele>
  <time>2026-09-01T19:58:28Z</time>
  <course>256.62</course>
  <speed>25.195721859077583</speed>
  <fix>3d</fix>
</trkpt>
<trkpt lat="-27.2686562" lon="151.2880061">
  <ele>362.44</ele>
  <time>2026-09-01T19:58:28Z</time>
  <course>256.42</course>
  <speed>25.21</speed>
  <fix>3d</fix>
</trkpt>
<trkpt lat="-27.2686766" lon="151.2879104">
  <ele>362.35</ele>
  <time>2026-09-01T19:58:28Z</time>
  <course>256.66</course>
  <speed>25.191061906954218</speed>
  <fix>3d</fix>
</trkpt>
<trkpt lat="-27.2686668" lon="151.2879566">
  <ele>362.4</ele>
  <time>2026-09-01T19:58:28Z</time>
  <course>256.5</course>
  <speed>25.21</speed>
  <fix>3d</fix>
</trkpt>
<trkpt lat="-27.2686819" lon="151.2878856">
  <ele>362.34</ele>
  <time>2026-09-01T19:58:28Z</time>
  <course>256.7</course>
  <speed>25.188737562648907</speed>
  <fix>3d</fix>
</trkpt>
<trkpt lat="-27.2686668" lon="151.2879566">
  <ele>362.4</ele>
  <time>2026-09-01T19:58:28Z</time>
  <course>256.5</course>
  <speed>25.21</speed>
  <fix>3d</fix>
</trkpt>
<trkpt lat="-27.2686871" lon="151.2878609">
  <ele>362.33</ele>
  <time>2026-09-01T19:58:28Z</time>
  <course>256.71</course>
  <speed>25.193828609403536</speed>
  <fix>3d</fix>
</trkpt>
<trkpt lat="-27.2686774" lon="151.287907">
  <ele>362.38</ele>
  <time>2026-09-01T19:58:28Z</time>
  <course>256.58</course>
  <speed>25.21</speed>
  <fix>3d</fix>
</trkpt>
<trkpt lat="-27.2686923" lon="151.2878362">
  <ele>362.32</ele>
  <time>2026-09-01T19:58:28Z</time>
  <course>256.78</course>
  <speed>25.19151642914733</speed>
  <fix>3d</fix>
</trkpt>
<trkpt lat="-27.2686774" lon="151.287907">
  <ele>362.38</ele>
  <time>2026-09-01T19:58:28Z</time>
  <course>256.58</course>
  <speed>25.21</speed>
  <fix>3d</fix>
</trkpt>
<trkpt lat="-27.2686975" lon="151.2878115">
  <ele>362.31</ele>
  <time>2026-09-01T19:58:28Z</time>
  <course>256.79</course>
  <speed>25.198938469705425</speed>
  <fix>3d</fix>
</trkpt>
<trkpt lat="-27.2686879" lon="151.2878572">
  <ele>362.36</ele>
  <time>2026-09-01T19:58:28Z</time>
  <course>256.65</course>
  <speed>25.21</speed>
  <fix>3d</fix>
</trkpt>
<trkpt lat="-27.2687027" lon="151.2877867">
  <ele>362.31</ele>
  <time>2026-09-01T19:58:28Z</time>
  <course>256.79</course>
  <speed>25.196634695927152</speed>
  <fix>3d</fix>
</trkpt>
<trkpt lat="-27.2686879" lon="151.2878572">
  <ele>362.36</ele>
  <time>2026-09-01T19:58:28Z</time>
  <course>256.65</course>
  <speed>25.21</speed>
  <fix>3d</fix>
</trkpt>
<trkpt lat="-27.2687079" lon="151.287762">
  <ele>362.31</ele>
  <time>2026-09-01T19:58:28Z</time>
  <course>256.83</course>
  <speed>25.192038424867487</speed>
  <fix>3d</fix>
</trkpt>
<trkpt lat="-27.2686982" lon="151.2878076">
  <ele>362.34</ele>
  <time>2026-09-01T19:58:28Z</time>
  <course>256.72</course>
  <speed>25.22</speed>
  <fix>3d</fix>
</trkpt>
<trkpt lat="-27.2687131" lon="151.2877372">
  <ele>362.31</ele>
  <time>2026-09-01T19:58:28Z</time>
  <course>256.86</course>
  <speed>25.189745929643674</speed>
  <fix>3d</fix>
</trkpt>
<trkpt lat="-27.2686982" lon="151.2878076">
  <ele>362.34</ele>
  <time>2026-09-01T19:58:28Z</time>
  <course>256.72</course>
  <speed>25.22</speed>
  <fix>3d</fix>
</trkpt>
<trkpt lat="-27.2687183" lon="151.2877123">
  <ele>362.31</ele>
  <time>2026-09-01T19:58:28Z</time>
  <course>256.87</course>
  <speed>25.19719230390561</speed>
  <fix>3d</fix>
</trkpt>
<trkpt lat="-27.2687087" lon="151.2877581">
  <ele>362.32</ele>
  <time>2026-09-01T19:58:28Z</time>
  <course>256.78</course>
  <speed>25.22</speed>
  <fix>3d</fix>
</trkpt>
<trkpt lat="-27.2687235" lon="151.2876874">
  <ele>362.32</ele>
  <time>2026-09-01T19:58:28Z</time>
  <course>256.86</course>
  <speed>25.20464441328225</speed>
  <fix>3d</fix>
</trkpt>
<trkpt lat="-27.2687087" lon="151.2877581">
  <ele>362.32</ele>
  <time>2026-09-01T19:58:28Z</time>
  <course>256.78</course>
  <speed>25.22</speed>
  <fix>3d</fix>
</trkpt>
<trkpt lat="-27.2687286" lon="151.2876624">
  <ele>362.32</ele>
  <time>2026-09-01T19:58:28Z</time>
  <course>256.91</course>
  <speed>25.21210225268809</speed>
  <fix>3d</fix>
</trkpt>
<trkpt lat="-27.268719" lon="151.2877085">
  <ele>362.32</ele>
  <time>2026-09-01T19:58:28Z</time>
  <course>256.84</course>
  <speed>25.22</speed>
  <fix>3d</fix>
</trkpt>
<trkpt lat="-27.2687338" lon="151.2876374">
  <ele>362.32</ele>
  <time>2026-09-01T19:58:28Z</time>
  <course>256.94</course>
  <speed>25.22183974257231</speed>
  <fix>3d</fix>
</trkpt>
<trkpt lat="-27.268719" lon="151.2877085">
  <ele>362.32</ele>
  <time>2026-09-01T19:58:28Z</time>
  <course>256.84</course>
  <speed>25.22</speed>
  <fix>3d</fix>
</trkpt>
<trkpt lat="-27.268739" lon="151.2876123">
  <ele>362.32</ele>
  <time>2026-09-01T19:58:28Z</time>
  <course>256.97</course>
  <speed>25.2390431672835</speed>
  <fix>3d</fix>
</trkpt>
<trkpt lat="-27.2687293" lon="151.2876589">
  <ele>362.32</ele>
  <time>2026-09-01T19:58:28Z</time>
  <course>256.89</course>
  <speed>25.22</speed>
  <fix>3d</fix>
</trkpt>
<trkpt lat="-27.2687442" lon="151.2875873">
  <ele>362.33</ele>
  <time>2026-09-01T19:58:28Z</time>
  <course>256.98</course>
  <speed>25.24651461093194</speed>
  <fix>3d</fix>
</trkpt>
<trkpt lat="-27.2687293" lon="151.2876589">
  <ele>362.32</ele>
  <time>2026-09-01T19:58:28Z</time>
  <course>256.89</course>
  <speed>25.22</speed>
  <fix>3d</fix>
</trkpt>
<trkpt lat="-27.2687493" lon="151.2875622">
  <ele>362.34</ele>
  <time>2026-09-01T19:58:28Z</time>
  <course>256.98</course>
  <speed>25.263732899158036</speed>
  <fix>3d</fix>
</trkpt>
<trkpt lat="-27.2687395" lon="151.2876092">
  <ele>362.32</ele>
  <time>2026-09-01T19:58:28Z</time>
  <course>256.94</course>
  <speed>25.22</speed>
  <fix>3d</fix>
</trkpt>
<trkpt lat="-27.2687544" lon="151.2875374">
  <ele>362.35</ele>
  <time>2026-09-01T19:58:28Z</time>
  <course>257.0</course>
  <speed>25.27121682863728</speed>
  <fix>3d</fix>
</trkpt>
<trkpt lat="-27.2687395" lon="151.2876092">
  <ele>362.32</ele>
  <time>2026-09-01T19:58:28Z</time>
  <course>256.94</course>
  <speed>25.22</speed>
  <fix>3d</fix>
</trkpt>
<trkpt lat="-27.2687595" lon="151.2875124">
  <ele>362.36</ele>
  <time>2026-09-01T19:58:28Z</time>
  <course>257.02</course>
  <speed>25.276457425834025</speed>
  <fix>3d</fix>
</trkpt>
<trkpt lat="-27.2687498" lon="151.2875595">
  <ele>362.32</ele>
  <time>2026-09-01T19:58:28Z</time>
  <course>257.0</course>
  <speed>25.22</speed>
  <fix>3d</fix>
</trkpt>
<trkpt lat="-27.2687646" lon="151.2874875">
  <ele>362.37</ele>
  <time>2026-09-01T19:58:28Z</time>
  <course>257.05</course>
  <speed>25.283957364305138</speed>
  <fix>3d</fix>
</trkpt>
<trkpt lat="-27.2687498" lon="151.2875595">
  <ele>362.32</ele>
  <time>2026-09-01T19:58:28Z</time>
  <course>257.0</course>
  <speed>25.22</speed>
  <fix>3d</fix>
</trkpt>
<trkpt lat="-27.2687697" lon="151.2874626">
  <ele>362.38</ele>
  <time>2026-09-01T19:58:28Z</time>
  <course>257.05</course>
  <speed>25.28171671386261</speed>
  <fix>3d</fix>
</trkpt>
<trkpt lat="-27.2687599" lon="151.2875098">
  <ele>362.34</ele>
  <time>2026-09-01T19:58:28Z</time>
  <course>257.06</course>
  <speed>25.23</speed>
  <fix>3d</fix>
</trkpt>
<trkpt lat="-27.2687748" lon="151.2874375">
  <ele>362.39</ele>
  <time>2026-09-01T19:58:28Z</time>
  <course>257.12</course>
  <speed>25.2892269553658</speed>
  <fix>3d</fix>
</trkpt>
<trkpt lat="-27.2687599" lon="151.2875098">
  <ele>362.34</ele>
  <time>2026-09-01T19:58:28Z</time>
  <course>257.06</course>
  <speed>25.23</speed>
  <fix>3d</fix>
</trkpt>
<trkpt lat="-27.2687798" lon="151.2874127">
  <ele>362.4</ele>
  <time>2026-09-01T19:58:28Z</time>
  <course>257.16</course>
  <speed>25.275017309588534</speed>
  <fix>3d</fix>
</trkpt>
<trkpt lat="-27.26877" lon="151.2874602">
  <ele>362.35</ele>
  <time>2026-09-01T19:58:28Z</time>
  <course>257.12</course>
  <speed>25.23</speed>
  <fix>3d</fix>
</trkpt>
<trkpt lat="-27.2687848" lon="151.2873879">
  <ele>362.41</ele>
  <time>2026-09-01T19:58:28Z</time>
  <course>257.21</course>
  <speed>25.272791693835487</speed>
  <fix>3d</fix>
</trkpt>
<trkpt lat="-27.26877" lon="151.2874602">
  <ele>362.35</ele>
  <time>2026-09-01T19:58:28Z</time>
  <course>257.12</course>
  <speed>25.23</speed>
  <fix>3d</fix>
</trkpt>
<trkpt lat="-27.2687898" lon="151.2873631">
  <ele>362.42</ele>
  <time>2026-09-01T19:58:28Z</time>
  <course>257.27</course>
  <speed>25.27056983924185</speed>
  <fix>3d</fix>
</trkpt>
<trkpt lat="-27.2687801" lon="151.2874105">
  <ele>362.37</ele>
  <time>2026-09-01T19:58:28Z</time>
  <course>257.17</course>
  <speed>25.22</speed>
  <fix>3d</fix>
</trkpt>
<trkpt lat="-27.2687948" lon="151.2873382">
  <ele>362.43</ele>
  <time>2026-09-01T19:58:28Z</time>
  <course>257.29</course>
  <speed>25.26835174679979</speed>
  <fix>3d</fix>
</trkpt>
<trkpt lat="-27.2687801" lon="151.2874105">
  <ele>362.37</ele>
  <time>2026-09-01T19:58:28Z</time>
  <course>257.17</course>
  <speed>25.22</speed>
  <fix>3d</fix>
</trkpt>
<trkpt lat="-27.2687999" lon="151.2873133">
  <ele>362.43</ele>
  <time>2026-09-01T19:58:28Z</time>
  <course>257.28</course>
  <speed>25.27588969749631</speed>
  <fix>3d</fix>
</trkpt>
<trkpt lat="-27.2687902" lon="151.2873607">
  <ele>362.38</ele>
  <time>2026-09-01T19:58:28Z</time>
  <course>257.23</course>
  <speed>25.22</speed>
  <fix>3d</fix>
</trkpt>
<trkpt lat="-27.2688049" lon="151.2872881">
  <ele>362.44</ele>
  <time>2026-09-01T19:58:28Z</time>
  <course>257.27</course>
  <speed>25.273679985312782</speed>
  <fix>3d</fix>
</trkpt>
<trkpt lat="-27.2687902" lon="151.2873607">
  <ele>362.38</ele>
  <time>2026-09-01T19:58:28Z</time>
  <course>257.23</course>
  <speed>25.22</speed>
  <fix>3d</fix>
</trkpt>
<trkpt lat="-27.2688099" lon="151.2872633">
  <ele>362.45</ele>
  <time>2026-09-01T19:58:28Z</time>
  <course>257.3</course>
  <speed>25.273679985312782</speed>
  <fix>3d</fix>
</trkpt>
<trkpt lat="-27.2688002" lon="151.2873108">
  <ele>362.39</ele>
  <time>2026-09-01T19:58:28Z</time>
  <course>257.28</course>
  <speed>25.22</speed>
  <fix>3d</fix>
</trkpt>
<trkpt lat="-27.2688148" lon="151.2872386">
  <ele>362.45</ele>
  <time>2026-09-01T19:58:28Z</time>
  <course>257.33</course>
  <speed>25.271474036945293</speed>
  <fix>3d</fix>
</trkpt>
<trkpt lat="-27.2688002" lon="151.2873108">
  <ele>362.39</ele>
  <time>2026-09-01T19:58:28Z</time>
  <course>257.28</course>
  <speed>25.22</speed>
  <fix>3d</fix>
</trkpt>
<trkpt lat="-27.2688198" lon="151.2872138">
  <ele>362.46</ele>
  <time>2026-09-01T19:58:28Z</time>
  <course>257.42</course>
  <speed>25.26927185337955</speed>
  <fix>3d</fix>
</trkpt>
<trkpt lat="-27.2688102" lon="151.2872611">
  <ele>362.4</ele>
  <time>2026-09-01T19:58:28Z</time>
  <course>257.31</course>
  <speed>25.22</speed>
  <fix>3d</fix>
</trkpt>
<trkpt lat="-27.2688248" lon="151.2871889">
  <ele>362.46</ele>
  <time>2026-09-01T19:58:28Z</time>
  <course>257.43</course>
  <speed>25.26927185337955</speed>
  <fix>3d</fix>
</trkpt>
<trkpt lat="-27.2688102" lon="151.2872611">
  <ele>362.4</ele>
  <time>2026-09-01T19:58:28Z</time>
  <course>257.31</course>
  <speed>25.22</speed>
  <fix>3d</fix>
</trkpt>
<trkpt lat="-27.2688297" lon="151.2871641">
  <ele>362.46</ele>
  <time>2026-09-01T19:58:28Z</time>
  <course>257.38</course>
  <speed>25.267073435599936</speed>
  <fix>3d</fix>
</trkpt>
<trkpt lat="-27.2688201" lon="151.2872114">
  <ele>362.41</ele>
  <time>2026-09-01T19:58:28Z</time>
  <course>257.34</course>
  <speed>25.23</speed>
  <fix>3d</fix>
</trkpt>
<trkpt lat="-27.2688347" lon="151.2871392">
  <ele>362.47</ele>
  <time>2026-09-01T19:58:28Z</time>
  <course>257.37</course>
  <speed>25.267073435599936</speed>
  <fix>3d</fix>
</trkpt>
<trkpt lat="-27.2688201" lon="151.2872114">
  <ele>362.41</ele>
  <time>2026-09-01T19:58:28Z</time>
  <course>257.34</course>
  <speed>25.23</speed>
  <fix>3d</fix>
</trkpt>
<trkpt lat="-27.2688396" lon="151.2871143">
  <ele>362.47</ele>
  <time>2026-09-01T19:58:28Z</time>
  <course>257.39</course>
  <speed>25.264878784589488</speed>
  <fix>3d</fix>
</trkpt>
<trkpt lat="-27.26883" lon="151.2871616">
  <ele>362.42</ele>
  <time>2026-09-01T19:58:28Z</time>
  <course>257.36</course>
  <speed>25.23</speed>
  <fix>3d</fix>
</trkpt>
<trkpt lat="-27.2688446" lon="151.2870894">
  <ele>362.47</ele>
  <time>2026-09-01T19:58:28Z</time>
  <course>257.43</course>
  <speed>25.27463550676844</speed>
  <fix>3d</fix>
</trkpt>
<trkpt lat="-27.26883" lon="151.2871616">
  <ele>362.42</ele>
  <time>2026-09-01T19:58:28Z</time>
  <course>257.36</course>
  <speed>25.23</speed>
  <fix>3d</fix>
</trkpt>
<trkpt lat="-27.2688495" lon="151.2870645">
  <ele>362.47</ele>
  <time>2026-09-01T19:58:28Z</time>
  <course>257.48</course>
  <speed>25.27244546932489</speed>
  <fix>3d</fix>
</trkpt>
<trkpt lat="-27.2688399" lon="151.2871118">
  <ele>362.42</ele>
  <time>2026-09-01T19:58:28Z</time>
  <course>257.39</course>
  <speed>25.23</speed>
  <fix>3d</fix>
</trkpt>
<trkpt lat="-27.2688544" lon="151.2870398">
  <ele>362.48</ele>
  <time>2026-09-01T19:58:28Z</time>
  <course>257.48</course>
  <speed>25.28001780062664</speed>
  <fix>3d</fix>
</trkpt>
<trkpt lat="-27.2688399" lon="151.2871118">
  <ele>362.42</ele>
  <time>2026-09-01T19:58:28Z</time>
  <course>257.39</course>
  <speed>25.23</speed>
  <fix>3d</fix>
</trkpt>
<trkpt lat="-27.2688593" lon="151.2870151">
  <ele>362.48</ele>
  <time>2026-09-01T19:58:28Z</time>
  <course>257.48</course>
  <speed>25.277836141568763</speed>
  <fix>3d</fix>
</trkpt>
<trkpt lat="-27.2688498" lon="151.2870621">
  <ele>362.43</ele>
  <time>2026-09-01T19:58:28Z</time>
  <course>257.42</course>
  <speed>25.24</speed>
  <fix>3d</fix>
</trkpt>
<trkpt lat="-27.2688642" lon="151.2869903">
  <ele>362.49</ele>
  <time>2026-09-01T19:58:28Z</time>
  <course>257.54</course>
  <speed>25.265897965439503</speed>
  <fix>3d</fix>
</trkpt>
<trkpt lat="-27.2688498" lon="151.2870621">
  <ele>362.43</ele>
  <time>2026-09-01T19:58:28Z</time>
  <course>257.42</course>
  <speed>25.24</speed>
  <fix>3d</fix>
</trkpt>
<trkpt lat="-27.2688691" lon="151.2869656">
  <ele>362.49</ele>
  <time>2026-09-01T19:58:28Z</time>
  <course>257.57</course>
  <speed>25.263723003547994</speed>
  <fix>3d</fix>
</trkpt>
<trkpt lat="-27.2688597" lon="151.2870123">
  <ele>362.43</ele>
  <time>2026-09-01T19:58:28Z</time>
  <course>257.45</course>
  <speed>25.24</speed>
  <fix>3d</fix>
</trkpt>
<trkpt lat="-27.268874" lon="151.2869409">
  <ele>362.5</ele>
  <time>2026-09-01T19:58:28Z</time>
  <course>257.58</course>
  <speed>25.25396206538689</speed>
  <fix>3d</fix>
</trkpt>
<trkpt lat="-27.2688597" lon="151.2870123">
  <ele>362.43</ele>
  <time>2026-09-01T19:58:28Z</time>
  <course>257.45</course>
  <speed>25.24</speed>
  <fix>3d</fix>
</trkpt>
<trkpt lat="-27.2688789" lon="151.286916">
  <ele>362.5</ele>
  <time>2026-09-01T19:58:28Z</time>
  <course>257.55</course>
  <speed>25.251790035559857</speed>
  <fix>3d</fix>
</trkpt>
<trkpt lat="-27.2688695" lon="151.2869625">
  <ele>362.44</ele>
  <time>2026-09-01T19:58:28Z</time>
  <course>257.48</course>
  <speed>25.24</speed>
  <fix>3d</fix>
</trkpt>
<trkpt lat="-27.2688837" lon="151.2868913">
  <ele>362.51</ele>
  <time>2026-09-01T19:58:28Z</time>
  <course>257.55</course>
  <speed>25.23985934984583</speed>
  <fix>3d</fix>
</trkpt>
<trkpt lat="-27.2688695" lon="151.2869625">
  <ele>362.44</ele>
  <time>2026-09-01T19:58:28Z</time>
  <course>257.48</course>
  <speed>25.24</speed>
  <fix>3d</fix>
</trkpt>
<trkpt lat="-27.2688886" lon="151.2868666">
  <ele>362.51</ele>
  <time>2026-09-01T19:58:28Z</time>
  <course>257.57</course>
  <speed>25.23985934984583</speed>
  <fix>3d</fix>
</trkpt>
<trkpt lat="-27.2688794" lon="151.2869127">
  <ele>362.46</ele>
  <time>2026-09-01T19:58:28Z</time>
  <course>257.51</course>
  <speed>25.25</speed>
  <fix>3d</fix>
</trkpt>
<trkpt lat="-27.2688934" lon="151.2868418">
  <ele>362.52</ele>
  <time>2026-09-01T19:58:28Z</time>
  <course>257.58</course>
  <speed>25.237694030952984</speed>
  <fix>3d</fix>
</trkpt>
<trkpt lat="-27.2688794" lon="151.2869127">
  <ele>362.46</ele>
  <time>2026-09-01T19:58:28Z</time>
  <course>257.51</course>
  <speed>25.25</speed>
  <fix>3d</fix>
</trkpt>
<trkpt lat="-27.2688983" lon="151.286817">
  <ele>362.52</ele>
  <time>2026-09-01T19:58:28Z</time>
  <course>257.58</course>
  <speed>25.235532488933142</speed>
  <fix>3d</fix>
</trkpt>
<trkpt lat="-27.2688891" lon="151.2868628">
  <ele>362.47</ele>
  <time>2026-09-01T19:58:28Z</time>
  <course>257.53</course>
  <speed>25.26</speed>
  <fix>3d</fix>
</trkpt>
<trkpt lat="-27.2689032" lon="151.2867921">
  <ele>362.52</ele>
  <time>2026-09-01T19:58:28Z</time>
  <course>257.6</course>
  <speed>25.24529659164257</speed>
  <fix>3d</fix>
</trkpt>
<trkpt lat="-27.2688891" lon="151.2868628">
  <ele>362.47</ele>
  <time>2026-09-01T19:58:28Z</time>
  <course>257.53</course>
  <speed>25.26</speed>
  <fix>3d</fix>
</trkpt>
<trkpt lat="-27.2689081" lon="151.2867671">
  <ele>362.52</ele>
  <time>2026-09-01T19:58:28Z</time>
  <course>257.61</course>
  <speed>25.25506087896048</speed>
  <fix>3d</fix>
</trkpt>
<trkpt lat="-27.268899" lon="151.2868128">
  <ele>362.47</ele>
  <time>2026-09-01T19:58:28Z</time>
  <course>257.55</course>
  <speed>25.26</speed>
  <fix>3d</fix>
</trkpt>
<trkpt lat="-27.268913" lon="151.2867422">
  <ele>362.53</ele>
  <time>2026-09-01T19:58:28Z</time>
  <course>257.55</course>
  <speed>25.25506087896048</speed>
  <fix>3d</fix>
</trkpt>
<trkpt lat="-27.268899" lon="151.2868128">
  <ele>362.47</ele>
  <time>2026-09-01T19:58:28Z</time>
  <course>257.55</course>
  <speed>25.26</speed>
  <fix>3d</fix>
</trkpt>
<trkpt lat="-27.2689179" lon="151.2867171">
  <ele>362.53</ele>
  <time>2026-09-01T19:58:28Z</time>
  <course>257.53</course>
  <speed>25.266984386744692</speed>
  <fix>3d</fix>
</trkpt>
<trkpt lat="-27.2689087" lon="151.286763">
  <ele>362.48</ele>
  <time>2026-09-01T19:58:28Z</time>
  <course>257.56</course>
  <speed>25.27</speed>
  <fix>3d</fix>
</trkpt>
<trkpt lat="-27.2689228" lon="151.2866921">
  <ele>362.53</ele>
  <time>2026-09-01T19:58:28Z</time>
  <course>257.6</course>
  <speed>25.276748208580944</speed>
  <fix>3d</fix>
</trkpt>
<trkpt lat="-27.2689087" lon="151.286763">
  <ele>362.48</ele>
  <time>2026-09-01T19:58:28Z</time>
  <course>257.56</course>
  <speed>25.27</speed>
  <fix>3d</fix>
</trkpt>
<trkpt lat="-27.2689277" lon="151.2866671">
  <ele>362.53</ele>
  <time>2026-09-01T19:58:28Z</time>
  <course>257.66</course>
  <speed>25.286512215012966</speed>
  <fix>3d</fix>
</trkpt>
<trkpt lat="-27.2689185" lon="151.2867131">
  <ele>362.48</ele>
  <time>2026-09-01T19:58:28Z</time>
  <course>257.56</course>
  <speed>25.28</speed>
  <fix>3d</fix>
</trkpt>
<trkpt lat="-27.2689326" lon="151.286642">
  <ele>362.53</ele>
  <time>2026-09-01T19:58:28Z</time>
  <course>257.69</course>
  <speed>25.29411987004094</speed>
  <fix>3d</fix>
</trkpt>
<trkpt lat="-27.2689185" lon="151.2867131">
  <ele>362.48</ele>
  <time>2026-09-01T19:58:28Z</time>
  <course>257.56</course>
  <speed>25.28</speed>
  <fix>3d</fix>
</trkpt>
<trkpt lat="-27.2689375" lon="151.2866167">
  <ele>362.54</ele>
  <time>2026-09-01T19:58:28Z</time>
  <course>257.73</course>
  <speed>25.303885077197137</speed>
  <fix>3d</fix>
</trkpt>
<trkpt lat="-27.2689283" lon="151.2866632">
  <ele>362.49</ele>
  <time>2026-09-01T19:58:28Z</time>
  <course>257.57</course>
  <speed>25.29</speed>
  <fix>3d</fix>
</trkpt>
<trkpt lat="-27.2689424" lon="151.2865917">
  <ele>362.54</ele>
  <time>2026-09-01T19:58:28Z</time>
  <course>257.69</course>
  <speed>25.311499362937788</speed>
  <fix>3d</fix>
</trkpt>
<trkpt lat="-27.2689283" lon="151.2866632">
  <ele>362.49</ele>
  <time>2026-09-01T19:58:28Z</time>
  <course>257.57</course>
  <speed>25.29</speed>
  <fix>3d</fix>
</trkpt>
<trkpt lat="-27.2689473" lon="151.2865667">
  <ele>362.54</ele>
  <time>2026-09-01T19:58:28Z</time>
  <course>257.63</course>
  <speed>25.32126576615</speed>
  <fix>3d</fix>
</trkpt>
<trkpt lat="-27.2689381" lon="151.2866133">
  <ele>362.49</ele>
  <time>2026-09-01T19:58:28Z</time>
  <course>257.59</course>
  <speed>25.3</speed>
  <fix>3d</fix>
</trkpt>
<trkpt lat="-27.2689521" lon="151.2865418">
  <ele>362.55</ele>
  <time>2026-09-01T19:58:28Z</time>
  <course>257.6</course>
  <speed>25.331032351643312</speed>
  <fix>3d</fix>
</trkpt>
<trkpt lat="-27.2689381" lon="151.2866133">
  <ele>362.49</ele>
  <time>2026-09-01T19:58:28Z</time>
  <course>257.59</course>
  <speed>25.3</speed>
  <fix>3d</fix>
</trkpt>
<trkpt lat="-27.268957" lon="151.2865171">
  <ele>362.55</ele>
  <time>2026-09-01T19:58:28Z</time>
  <course>257.64</course>
  <speed>25.331032351643312</speed>
  <fix>3d</fix>
</trkpt>
<trkpt lat="-27.2689478" lon="151.2865633">
  <ele>362.5</ele>
  <time>2026-09-01T19:58:28Z</time>
  <course>257.61</course>
  <speed>25.31</speed>
  <fix>3d</fix>
</trkpt>
<trkpt lat="-27.2689618" lon="151.2864921">
  <ele>362.56</ele>
  <time>2026-09-01T19:58:28Z</time>
  <course>257.62</course>
  <speed>25.331032351643312</speed>
  <fix>3d</fix>
</trkpt>
<trkpt lat="-27.2689478" lon="151.2865633">
  <ele>362.5</ele>
  <time>2026-09-01T19:58:28Z</time>
  <course>257.61</course>
  <speed>25.31</speed>
  <fix>3d</fix>
</trkpt>
<trkpt lat="-27.2689667" lon="151.2864671">
  <ele>362.57</ele>
  <time>2026-09-01T19:58:28Z</time>
  <course>257.62</course>
  <speed>25.333181797792395</speed>
  <fix>3d</fix>
</trkpt>
<trkpt lat="-27.2689576" lon="151.2865134">
  <ele>362.51</ele>
  <time>2026-09-01T19:58:28Z</time>
  <course>257.61</course>
  <speed>25.32</speed>
  <fix>3d</fix>
</trkpt>
<trkpt lat="-27.2689716" lon="151.2864421">
  <ele>362.57</ele>
  <time>2026-09-01T19:58:28Z</time>
  <course>257.63</course>
  <speed>25.340799119206952</speed>
  <fix>3d</fix>
</trkpt>
<trkpt lat="-27.2689576" lon="151.2865134">
  <ele>362.51</ele>
  <time>2026-09-01T19:58:28Z</time>
  <course>257.61</course>
  <speed>25.32</speed>
  <fix>3d</fix>
</trkpt>
<trkpt lat="-27.2689765" lon="151.2864168">
  <ele>362.58</ele>
  <time>2026-09-01T19:58:28Z</time>
  <course>257.65</course>
  <speed>25.342947736993814</speed>
  <fix>3d</fix>
</trkpt>
<trkpt lat="-27.2689673" lon="151.2864634">
  <ele>362.52</ele>
  <time>2026-09-01T19:58:28Z</time>
  <course>257.6</course>
  <speed>25.33</speed>
  <fix>3d</fix>
</trkpt>
<trkpt lat="-27.2689814" lon="151.2863917">
  <ele>362.59</ele>
  <time>2026-09-01T19:58:28Z</time>
  <course>257.66</course>
  <speed>25.3505660686305</speed>
  <fix>3d</fix>
</trkpt>
<trkpt lat="-27.2689673" lon="151.2864634">
  <ele>362.52</ele>
  <time>2026-09-01T19:58:28Z</time>
  <course>257.6</course>
  <speed>25.33</speed>
  <fix>3d</fix>
</trkpt>
<trkpt lat="-27.2689863" lon="151.2863665">
  <ele>362.6</ele>
  <time>2026-09-01T19:58:28Z</time>
  <course>257.68</course>
  <speed>25.360333199703824</speed>
  <fix>3d</fix>
</trkpt>
<trkpt lat="-27.2689771" lon="151.2864133">
  <ele>362.53</ele>
  <time>2026-09-01T19:58:28Z</time>
  <course>257.61</course>
  <speed>25.33</speed>
  <fix>3d</fix>
</trkpt>
<trkpt lat="-27.2689912" lon="151.2863413">
  <ele>362.61</ele>
  <time>2026-09-01T19:58:28Z</time>
  <course>257.67</course>
  <speed>25.37010051221713</speed>
  <fix>3d</fix>
</trkpt>
<trkpt lat="-27.2689771" lon="151.2864133">
  <ele>362.53</ele>
  <time>2026-09-01T19:58:28Z</time>
  <course>257.61</course>
  <speed>25.33</speed>
  <fix>3d</fix>
</trkpt>
<trkpt lat="-27.2689961" lon="151.2863161">
  <ele>362.62</ele>
  <time>2026-09-01T19:58:28Z</time>
  <course>257.64</course>
  <speed>25.379868005960944</speed>
  <fix>3d</fix>
</trkpt>
<trkpt lat="-27.2689869" lon="151.2863633">
  <ele>362.55</ele>
  <time>2026-09-01T19:58:28Z</time>
  <course>257.62</course>
  <speed>25.33</speed>
  <fix>3d</fix>
</trkpt>
<trkpt lat="-27.269001" lon="151.286291">
  <ele>362.63</ele>
  <time>2026-09-01T19:58:28Z</time>
  <course>257.64</course>
  <speed>25.3896356807261</speed>
  <fix>3d</fix>
</trkpt>
<trkpt lat="-27.2689869" lon="151.2863633">
  <ele>362.55</ele>
  <time>2026-09-01T19:58:28Z</time>
  <course>257.62</course>
  <speed>25.33</speed>
  <fix>3d</fix>
</trkpt>
<trkpt lat="-27.2690059" lon="151.2862659">
  <ele>362.63</ele>
  <time>2026-09-01T19:58:28Z</time>
  <course>257.64</course>
  <speed>25.3896356807261</speed>
  <fix>3d</fix>
</trkpt>
<trkpt lat="-27.2689966" lon="151.2863132">
  <ele>362.57</ele>
  <time>2026-09-01T19:58:28Z</time>
  <course>257.63</course>
  <speed>25.33</speed>
  <fix>3d</fix>
</trkpt>
<trkpt lat="-27.2690108" lon="151.2862408">
  <ele>362.64</ele>
  <time>2026-09-01T19:58:28Z</time>
  <course>257.66</course>
  <speed>25.3896356807261</speed>
  <fix>3d</fix>
</trkpt>
<trkpt lat="-27.2689966" lon="151.2863132">
  <ele>362.57</ele>
  <time>2026-09-01T19:58:28Z</time>
  <course>257.63</course>
  <speed>25.33</speed>
  <fix>3d</fix>
</trkpt>
<trkpt lat="-27.2690156" lon="151.2862159">
  <ele>362.65</ele>
  <time>2026-09-01T19:58:28Z</time>
  <course>257.66</course>
  <speed>25.3896356807261</speed>
  <fix>3d</fix>
</trkpt>
<trkpt lat="-27.2690064" lon="151.2862632">
  <ele>362.59</ele>
  <time>2026-09-01T19:58:28Z</time>
  <course>257.64</course>
  <speed>25.34</speed>
  <fix>3d</fix>
</trkpt>
<trkpt lat="-27.2690205" lon="151.2861909">
  <ele>362.66</ele>
  <time>2026-09-01T19:58:28Z</time>
  <course>257.6</course>
  <speed>25.3896356807261</speed>
  <fix>3d</fix>
</trkpt>
<trkpt lat="-27.2690064" lon="151.2862632">
  <ele>362.59</ele>
  <time>2026-09-01T19:58:28Z</time>
  <course>257.64</course>
  <speed>25.34</speed>
  <fix>3d</fix>
</trkpt>
<trkpt lat="-27.2690254" lon="151.2861659">
  <ele>362.66</ele>
  <time>2026-09-01T19:58:28Z</time>
  <course>257.51</course>
  <speed>25.38201331652003</speed>
  <fix>3d</fix>
</trkpt>
<trkpt lat="-27.2690161" lon="151.2862132">
  <ele>362.6</ele>
  <time>2026-09-01T19:58:28Z</time>
  <course>257.63</course>
  <speed>25.34</speed>
  <fix>3d</fix>
</trkpt>
<trkpt lat="-27.2690302" lon="151.286141">
  <ele>362.67</ele>
  <time>2026-09-01T19:58:28Z</time>
  <course>257.42</course>
  <speed>25.376550198953364</speed>
  <fix>3d</fix>
</trkpt>
<trkpt lat="-27.2690161" lon="151.2862132">
  <ele>362.6</ele>
  <time>2026-09-01T19:58:28Z</time>
  <course>257.63</course>
  <speed>25.34</speed>
  <fix>3d</fix>
</trkpt>
<trkpt lat="-27.2690352" lon="151.2861161">
  <ele>362.68</ele>
  <time>2026-09-01T19:58:28Z</time>
  <course>257.22</course>
  <speed>25.375440882869405</speed>
  <fix>3d</fix>
</trkpt>
<trkpt lat="-27.2690259" lon="151.2861631">
  <ele>362.62</ele>
  <time>2026-09-01T19:58:28Z</time>
  <course>257.59</course>
  <speed>25.34</speed>
  <fix>3d</fix>
</trkpt>
<trkpt lat="-27.2690401" lon="151.2860911">
  <ele>362.69</ele>
  <time>2026-09-01T19:58:28Z</time>
  <course>257.06</course>
  <speed>25.38097712855043</speed>
  <fix>3d</fix>
</trkpt>
<trkpt lat="-27.2690259" lon="151.2861631">
  <ele>362.62</ele>
  <time>2026-09-01T19:58:28Z</time>
  <course>257.59</course>
  <speed>25.34</speed>
  <fix>3d</fix>
</trkpt>
<trkpt lat="-27.2690452" lon="151.2860661">
  <ele>362.7</ele>
  <time>2026-09-01T19:58:28Z</time>
  <course>256.89</course>
  <speed>25.385895690323792</speed>
  <fix>3d</fix>
</trkpt>
<trkpt lat="-27.2690357" lon="151.2861132">
  <ele>362.63</ele>
  <time>2026-09-01T19:58:28Z</time>
  <course>257.43</course>
  <speed>25.34</speed>
  <fix>3d</fix>
</trkpt>
<trkpt lat="-27.2690503" lon="151.2860411">
  <ele>362.71</ele>
  <time>2026-09-01T19:58:28Z</time>
  <course>256.68</course>
  <speed>25.388442252332066</speed>
  <fix>3d</fix>
</trkpt>
<trkpt lat="-27.2690357" lon="151.2861132">
  <ele>362.63</ele>
  <time>2026-09-01T19:58:28Z</time>
  <course>257.43</course>
  <speed>25.34</speed>
  <fix>3d</fix>
</trkpt>
<trkpt lat="-27.2690557" lon="151.286016">
  <ele>362.71</ele>
  <time>2026-09-01T19:58:28Z</time>
  <course>256.36</course>
  <speed>25.401230285165326</speed>
  <fix>3d</fix>
</trkpt>
<trkpt lat="-27.2690458" lon="151.2860632">
  <ele>362.65</ele>
  <time>2026-09-01T19:58:28Z</time>
  <course>257.01</course>
  <speed>25.35</speed>
  <fix>3d</fix>
</trkpt>
<trkpt lat="-27.2690612" lon="151.2859911">
  <ele>362.72</ele>
  <time>2026-09-01T19:58:28Z</time>
  <course>256.01</course>
  <speed>25.417851994218548</speed>
  <fix>3d</fix>
</trkpt>
<trkpt lat="-27.2690458" lon="151.2860632">
  <ele>362.65</ele>
  <time>2026-09-01T19:58:28Z</time>
  <course>257.01</course>
  <speed>25.35</speed>
  <fix>3d</fix>
</trkpt>
<trkpt lat="-27.2690669" lon="151.2859661">
  <ele>362.72</ele>
  <time>2026-09-01T19:58:28Z</time>
  <course>255.66</course>
  <speed>25.424916912351947</speed>
  <fix>3d</fix>
</trkpt>
<trkpt lat="-27.2690563" lon="151.2860134">
  <ele>362.66</ele>
  <time>2026-09-01T19:58:28Z</time>
  <course>256.26</course>
  <speed>25.36</speed>
  <fix>3d</fix>
</trkpt>
<trkpt lat="-27.2690729" lon="151.2859412">
  <ele>362.73</ele>
  <time>2026-09-01T19:58:28Z</time>
  <course>255.23</course>
  <speed>25.44010220105257</speed>
  <fix>3d</fix>
</trkpt>
<trkpt lat="-27.2690563" lon="151.2860134">
  <ele>362.66</ele>
  <time>2026-09-01T19:58:28Z</time>
  <course>256.26</course>
  <speed>25.36</speed>
  <fix>3d</fix>
</trkpt>
<trkpt lat="-27.2690792" lon="151.2859163">
  <ele>362.74</ele>
  <time>2026-09-01T19:58:28Z</time>
  <course>254.65</course>
  <speed>25.45320608489233</speed>
  <fix>3d</fix>
</trkpt>
<trkpt lat="-27.2690675" lon="151.2859637">
  <ele>362.68</ele>
  <time>2026-09-01T19:58:28Z</time>
  <course>255.17</course>
  <speed>25.37</speed>
  <fix>3d</fix>
</trkpt>
<trkpt lat="-27.2690858" lon="151.2858914">
  <ele>362.74</ele>
  <time>2026-09-01T19:58:28Z</time>
  <course>253.92</course>
  <speed>25.463424750021353</speed>
  <fix>3d</fix>
</trkpt>
<trkpt lat="-27.2690675" lon="151.2859637">
  <ele>362.68</ele>
  <time>2026-09-01T19:58:28Z</time>
  <course>255.17</course>
  <speed>25.37</speed>
  <fix>3d</fix>
</trkpt>
<trkpt lat="-27.2690927" lon="151.2858669">
  <ele>362.76</ele>
  <time>2026-09-01T19:58:28Z</time>
  <course>253.17</course>
  <speed>25.479154224581315</speed>
  <fix>3d</fix>
</trkpt>
<trkpt lat="-27.2690796" lon="151.2859143">
  <ele>362.69</ele>
  <time>2026-09-01T19:58:28Z</time>
  <course>253.75</course>
  <speed>25.38</speed>
  <fix>3d</fix>
</trkpt>
<trkpt lat="-27.2690999" lon="151.2858425">
  <ele>362.77</ele>
  <time>2026-09-01T19:58:28Z</time>
  <course>252.26</course>
  <speed>25.479758633079708</speed>
  <fix>3d</fix>
</trkpt>
<trkpt lat="-27.2690796" lon="151.2859143">
  <ele>362.69</ele>
  <time>2026-09-01T19:58:28Z</time>
  <course>253.75</course>
  <speed>25.38</speed>
  <fix>3d</fix>
</trkpt>
<trkpt lat="-27.2691075" lon="151.2858184">
  <ele>362.79</ele>
  <time>2026-09-01T19:58:28Z</time>
  <course>251.24</course>
  <speed>25.492375330674857</speed>
  <fix>3d</fix>
</trkpt>
<trkpt lat="-27.2690931" lon="151.2858652">
  <ele>362.71</ele>
  <time>2026-09-01T19:58:28Z</time>
  <course>251.97</course>
  <speed>25.4</speed>
  <fix>3d</fix>
</trkpt>
<trkpt lat="-27.2691156" lon="151.2857943">
  <ele>362.81</ele>
  <time>2026-09-01T19:58:28Z</time>
  <course>250.13</course>
  <speed>25.49706061490226</speed>
  <fix>3d</fix>
</trkpt>
<trkpt lat="-27.2690931" lon="151.2858652">
  <ele>362.71</ele>
  <time>2026-09-01T19:58:28Z</time>
  <course>251.97</course>
  <speed>25.4</speed>
  <fix>3d</fix>
</trkpt>
<trkpt lat="-27.2691241" lon="151.2857704">
  <ele>362.83</ele>
  <time>2026-09-01T19:58:28Z</time>
  <course>249.03</course>
  <speed>25.51083103311219</speed>
  <fix>3d</fix>
</trkpt>
<trkpt lat="-27.269108" lon="151.2858165">
  <ele>362.74</ele>
  <time>2026-09-01T19:58:28Z</time>
  <course>249.88</course>
  <speed>25.43</speed>
  <fix>3d</fix>
</trkpt>
<trkpt lat="-27.2691331" lon="151.2857467">
  <ele>362.85</ele>
  <time>2026-09-01T19:58:28Z</time>
  <course>247.75</course>
  <speed>25.538050043024036</speed>
  <fix>3d</fix>
</trkpt>
<trkpt lat="-27.269108" lon="151.2858165">
  <ele>362.74</ele>
  <time>2026-09-01T19:58:28Z</time>
  <course>249.88</course>
  <speed>25.43</speed>
  <fix>3d</fix>
</trkpt>
<trkpt lat="-27.2691427" lon="151.2857231">
  <ele>362.88</ele>
  <time>2026-09-01T19:58:28Z</time>
  <course>246.35</course>
  <speed>25.55582516765992</speed>
  <fix>3d</fix>
</trkpt>
<trkpt lat="-27.2691246" lon="151.2857685">
  <ele>362.78</ele>
  <time>2026-09-01T19:58:28Z</time>
  <course>247.46</course>
  <speed>25.46</speed>
  <fix>3d</fix>
</trkpt>
<trkpt lat="-27.2691528" lon="151.2856998">
  <ele>362.91</ele>
  <time>2026-09-01T19:58:28Z</time>
  <course>244.9</course>
  <speed>25.576352359161774</speed>
  <fix>3d</fix>
</trkpt>
<trkpt lat="-27.2691246" lon="151.2857685">
  <ele>362.78</ele>
  <time>2026-09-01T19:58:28Z</time>
  <course>247.46</course>
  <speed>25.46</speed>
  <fix>3d</fix>
</trkpt>
<trkpt lat="-27.2691633" lon="151.2856771">
  <ele>362.94</ele>
  <time>2026-09-01T19:58:28Z</time>
  <course>243.32</course>
  <speed>25.589236018294876</speed>
  <fix>3d</fix>
</trkpt>
<trkpt lat="-27.2691432" lon="151.2857215">
  <ele>362.82</ele>
  <time>2026-09-01T19:58:28Z</time>
  <course>244.7</course>
  <speed>25.49</speed>
  <fix>3d</fix>
</trkpt>
<trkpt lat="-27.2691744" lon="151.2856547">
  <ele>362.97</ele>
  <time>2026-09-01T19:58:28Z</time>
  <course>241.7</course>
  <speed>25.606141841362984</speed>
  <fix>3d</fix>
</trkpt>
<trkpt lat="-27.2691432" lon="151.2857215">
  <ele>362.82</ele>
  <time>2026-09-01T19:58:28Z</time>
  <course>244.7</course>
  <speed>25.49</speed>
  <fix>3d</fix>
</trkpt>
<trkpt lat="-27.2691861" lon="151.2856326">
  <ele>363.01</ele>
  <time>2026-09-01T19:58:28Z</time>
  <course>239.95</course>
  <speed>25.610798503756182</speed>
  <fix>3d</fix>
</trkpt>
<trkpt lat="-27.2691639" lon="151.2856755">
  <ele>362.88</ele>
  <time>2026-09-01T19:58:28Z</time>
  <course>241.58</course>
  <speed>25.52</speed>
  <fix>3d</fix>
</trkpt>
<trkpt lat="-27.2691985" lon="151.2856109">
  <ele>363.06</ele>
  <time>2026-09-01T19:58:29Z</time>
  <course>238.15</course>
  <speed>25.627167225427005</speed>
  <fix>3d</fix>
</trkpt>
<trkpt lat="-27.2691639" lon="151.2856755">
  <ele>362.88</ele>
  <time>2026-09-01T19:58:29Z</time>
  <course>241.58</course>
  <speed>25.52</speed>
  <fix>3d</fix>
</trkpt>
<trkpt lat="-27.2692115" lon="151.2855896">
  <ele>363.1</ele>
  <time>2026-09-01T19:58:29Z</time>
  <course>236.34</course>
  <speed>25.64539919751689</speed>
  <fix>3d</fix>
</trkpt>
<trkpt lat="-27.2691869" lon="151.2856309">
  <ele>362.96</ele>
  <time>2026-09-01T19:58:29Z</time>
  <course>238.16</course>
  <speed>25.57</speed>
  <fix>3d</fix>
</trkpt>
<trkpt lat="-27.2692251" lon="151.2855689">
  <ele>363.15</ele>
  <time>2026-09-01T19:58:29Z</time>
  <course>234.47</course>
  <speed>25.659160157729247</speed>
  <fix>3d</fix>
</trkpt>
<trkpt lat="-27.2691869" lon="151.2856309">
  <ele>362.96</ele>
  <time>2026-09-01T19:58:29Z</time>
  <course>238.16</course>
  <speed>25.57</speed>
  <fix>3d</fix>
</trkpt>
<trkpt lat="-27.2692393" lon="151.2855486">
  <ele>363.21</ele>
  <time>2026-09-01T19:58:29Z</time>
  <course>232.5</course>
  <speed>25.670794689685785</speed>
  <fix>3d</fix>
</trkpt>
<trkpt lat="-27.2692123" lon="151.2855878">
  <ele>363.04</ele>
  <time>2026-09-01T19:58:29Z</time>
  <course>234.48</course>
  <speed>25.61</speed>
  <fix>3d</fix>
</trkpt>
<trkpt lat="-27.2692542" lon="151.2855288">
  <ele>363.27</ele>
  <time>2026-09-01T19:58:29Z</time>
  <course>230.57</course>
  <speed>25.683716631360035</speed>
  <fix>3d</fix>
</trkpt>
<trkpt lat="-27.2692123" lon="151.2855878">
  <ele>363.04</ele>
  <time>2026-09-01T19:58:29Z</time>
  <course>234.48</course>
  <speed>25.61</speed>
  <fix>3d</fix>
</trkpt>
<trkpt lat="-27.2692697" lon="151.2855097">
  <ele>363.33</ele>
  <time>2026-09-01T19:58:29Z</time>
  <course>228.64</course>
  <speed>25.699511668512304</speed>
  <fix>3d</fix>
</trkpt>
<trkpt lat="-27.2692403" lon="151.2855467">
  <ele>363.14</ele>
  <time>2026-09-01T19:58:29Z</time>
  <course>230.58</course>
  <speed>25.65</speed>
  <fix>3d</fix>
</trkpt>
<trkpt lat="-27.2692858" lon="151.2854912">
  <ele>363.4</ele>
  <time>2026-09-01T19:58:29Z</time>
  <course>226.7</course>
  <speed>25.703846015723016</speed>
  <fix>3d</fix>
</trkpt>
<trkpt lat="-27.2692403" lon="151.2855467">
  <ele>363.14</ele>
  <time>2026-09-01T19:58:29Z</time>
  <course>230.58</course>
  <speed>25.65</speed>
  <fix>3d</fix>
</trkpt>
<trkpt lat="-27.2693024" lon="151.2854732">
  <ele>363.47</ele>
  <time>2026-09-01T19:58:29Z</time>
  <course>224.84</course>
  <speed>25.709082052846615</speed>
  <fix>3d</fix>
</trkpt>
<trkpt lat="-27.2692708" lon="151.2855078">
  <ele>363.26</ele>
  <time>2026-09-01T19:58:29Z</time>
  <course>226.61</course>
  <speed>25.69</speed>
  <fix>3d</fix>
</trkpt>
<trkpt lat="-27.2693196" lon="151.2854559">
  <ele>363.54</ele>
  <time>2026-09-01T19:58:29Z</time>
  <course>223.13</course>
  <speed>25.713080328890975</speed>
  <fix>3d</fix>
</trkpt>
<trkpt lat="-27.2692708" lon="151.2855078">
  <ele>363.26</ele>
  <time>2026-09-01T19:58:29Z</time>
  <course>226.61</course>
  <speed>25.69</speed>
  <fix>3d</fix>
</trkpt>
<trkpt lat="-27.269337" lon="151.2854394">
  <ele>363.62</ele>
  <time>2026-09-01T19:58:29Z</time>
  <course>221.46</course>
  <speed>25.702486261060425</speed>
  <fix>3d</fix>
</trkpt>
<trkpt lat="-27.2693037" lon="151.2854713">
  <ele>363.4</ele>
  <time>2026-09-01T19:58:29Z</time>
  <course>222.74</course>
  <speed>25.71</speed>
  <fix>3d</fix>
</trkpt>
<trkpt lat="-27.2693549" lon="151.2854234">
  <ele>363.69</ele>
  <time>2026-09-01T19:58:29Z</time>
  <course>219.98</course>
  <speed>25.6773986221346</speed>
  <fix>3d</fix>
</trkpt>
<trkpt lat="-27.2693037" lon="151.2854713">
  <ele>363.4</ele>
  <time>2026-09-01T19:58:29Z</time>
  <course>222.74</course>
  <speed>25.71</speed>
  <fix>3d</fix>
</trkpt>
<trkpt lat="-27.2693732" lon="151.285408">
  <ele>363.77</ele>
  <time>2026-09-01T19:58:29Z</time>
  <course>218.65</course>
  <speed>25.639151702035697</speed>
  <fix>3d</fix>
</trkpt>
<trkpt lat="-27.2693386" lon="151.2854373">
  <ele>363.54</ele>
  <time>2026-09-01T19:58:29Z</time>
  <course>219.12</course>
  <speed>25.71</speed>
  <fix>3d</fix>
</trkpt>
<trkpt lat="-27.2693918" lon="151.2853931">
  <ele>363.85</ele>
  <time>2026-09-01T19:58:29Z</time>
  <course>217.55</course>
  <speed>25.603070128404525</speed>
  <fix>3d</fix>
</trkpt>
<trkpt lat="-27.2693386" lon="151.2854373">
  <ele>363.54</ele>
  <time>2026-09-01T19:58:29Z</time>
  <course>219.12</course>
  <speed>25.71</speed>
  <fix>3d</fix>
</trkpt>
<trkpt lat="-27.2694108" lon="151.2853785">
  <ele>363.93</ele>
  <time>2026-09-01T19:58:29Z</time>
  <course>216.63</course>
  <speed>25.552318877158683</speed>
  <fix>3d</fix>
</trkpt>
<trkpt lat="-27.2693753" lon="151.2854056">
  <ele>363.69</ele>
  <time>2026-09-01T19:58:29Z</time>
  <course>215.96</course>
  <speed>25.69</speed>
  <fix>3d</fix>
</trkpt>
<trkpt lat="-27.2694298" lon="151.2853645">
  <ele>364.0</ele>
  <time>2026-09-01T19:58:29Z</time>
  <course>215.88</course>
  <speed>25.505734649290147</speed>
  <fix>3d</fix>
</trkpt>
<trkpt lat="-27.2693753" lon="151.2854056">
  <ele>363.69</ele>
  <time>2026-09-01T19:58:29Z</time>
  <course>215.96</course>
  <speed>25.69</speed>
  <fix>3d</fix>
</trkpt>
<trkpt lat="-27.2694491" lon="151.2853506">
  <ele>364.06</ele>
  <time>2026-09-01T19:58:29Z</time>
  <course>215.32</course>
  <speed>25.44121262833201</speed>
  <fix>3d</fix>
</trkpt>
<trkpt lat="-27.2694132" lon="151.2853761">
  <ele>363.84</ele>
  <time>2026-09-01T19:58:29Z</time>
  <course>213.57</course>
  <speed>25.63</speed>
  <fix>3d</fix>
</trkpt>
<trkpt lat="-27.2694683" lon="151.285337">
  <ele>364.1</ele>
  <time>2026-09-01T19:58:29Z</time>
  <course>214.82</course>
  <speed>25.383784193851003</speed>
  <fix>3d</fix>
</trkpt>
<trkpt lat="-27.2694132" lon="151.2853761">
  <ele>363.84</ele>
  <time>2026-09-01T19:58:29Z</time>
  <course>213.57</course>
  <speed>25.63</speed>
  <fix>3d</fix>
</trkpt>
<trkpt lat="-27.2694876" lon="151.2853234">
  <ele>364.12</ele>
  <time>2026-09-01T19:58:29Z</time>
  <course>214.39</course>
  <speed>25.331887020117552</speed>
  <fix>3d</fix>
</trkpt>
<trkpt lat="-27.2694519" lon="151.2853481">
  <ele>363.95</ele>
  <time>2026-09-01T19:58:29Z</time>
  <course>212.18</course>
  <speed>25.54</speed>
  <fix>3d</fix>
</trkpt>
<trkpt lat="-27.2695069" lon="151.2853098">
  <ele>364.11</ele>
  <time>2026-09-01T19:58:29Z</time>
  <course>213.93</course>
  <speed>25.283069433911695</speed>
  <fix>3d</fix>
</trkpt>
<trkpt lat="-27.2694519" lon="151.2853481">
  <ele>363.95</ele>
  <time>2026-09-01T19:58:29Z</time>
  <course>212.18</course>
  <speed>25.54</speed>
  <fix>3d</fix>
</trkpt>
<trkpt lat="-27.2695262" lon="151.2852961">
  <ele>364.08</ele>
  <time>2026-09-01T19:58:29Z</time>
  <course>213.52</course>
  <speed>25.249413854582844</speed>
  <fix>3d</fix>
</trkpt>
<trkpt lat="-27.2694907" lon="151.2853208">
  <ele>364.0</ele>
  <time>2026-09-01T19:58:29Z</time>
  <course>211.76</course>
  <speed>25.44</speed>
  <fix>3d</fix>
</trkpt>
<trkpt lat="-27.2695454" lon="151.2852824">
  <ele>364.01</ele>
  <time>2026-09-01T19:58:29Z</time>
  <course>213.22</course>
  <speed>25.228749473566857</speed>
  <fix>3d</fix>
</trkpt>
<trkpt lat="-27.2694907" lon="151.2853208">
  <ele>364.0</ele>
  <time>2026-09-01T19:58:29Z</time>
  <course>211.76</course>
  <speed>25.44</speed>
  <fix>3d</fix>
</trkpt>
<trkpt lat="-27.2695645" lon="151.2852684">
  <ele>363.93</ele>
  <time>2026-09-01T19:58:29Z</time>
  <course>213.17</course>
  <speed>25.20893690737473</speed>
  <fix>3d</fix>
</trkpt>
<trkpt lat="-27.2695295" lon="151.2852937">
  <ele>363.96</ele>
  <time>2026-09-01T19:58:29Z</time>
  <course>212.1</course>
  <speed>25.34</speed>
  <fix>3d</fix>
</trkpt>
<trkpt lat="-27.2695834" lon="151.2852542">
  <ele>363.83</ele>
  <time>2026-09-01T19:58:29Z</time>
  <course>213.39</course>
  <speed>25.2144105622162</speed>
  <fix>3d</fix>
</trkpt>
<trkpt lat="-27.2695295" lon="151.2852937">
  <ele>363.96</ele>
  <time>2026-09-01T19:58:29Z</time>
  <course>212.1</course>
  <speed>25.34</speed>
  <fix>3d</fix>
</trkpt>
<trkpt lat="-27.2696022" lon="151.2852397">
  <ele>363.73</ele>
  <time>2026-09-01T19:58:29Z</time>
  <course>213.95</course>
  <speed>25.220882220889894</speed>
  <fix>3d</fix>
</trkpt>
<trkpt lat="-27.2695678" lon="151.2852662">
  <ele>363.82</ele>
  <time>2026-09-01T19:58:29Z</time>
  <course>213.1</course>
  <speed>25.28</speed>
  <fix>3d</fix>
</trkpt>
<trkpt lat="-27.2696207" lon="151.2852248">
  <ele>363.62</ele>
  <time>2026-09-01T19:58:29Z</time>
  <course>214.79</course>
  <speed>25.243712088359747</speed>
  <fix>3d</fix>
</trkpt>
<trkpt lat="-27.2695678" lon="151.2852662">
  <ele>363.82</ele>
  <time>2026-09-01T19:58:29Z</time>
  <course>213.1</course>
  <speed>25.28</speed>
  <fix>3d</fix>
</trkpt>
<trkpt lat="-27.269639" lon="151.2852095">
  <ele>363.51</ele>
  <time>2026-09-01T19:58:29Z</time>
  <course>215.91</course>
  <speed>25.275573188357175</speed>
  <fix>3d</fix>
</trkpt>
<trkpt lat="-27.2696054" lon="151.2852377">
  <ele>363.62</ele>
  <time>2026-09-01T19:58:29Z</time>
  <course>214.83</course>
  <speed>25.27</speed>
  <fix>3d</fix>
</trkpt>
<trkpt lat="-27.269657" lon="151.2851937">
  <ele>363.42</ele>
  <time>2026-09-01T19:58:29Z</time>
  <course>217.31</course>
  <speed>25.317829685816278</speed>
  <fix>3d</fix>
</trkpt>
<trkpt lat="-27.2696054" lon="151.2852377">
  <ele>363.62</ele>
  <time>2026-09-01T19:58:29Z</time>
  <course>214.83</course>
  <speed>25.27</speed>
  <fix>3d</fix>
</trkpt>
<trkpt lat="-27.2696746" lon="151.2851772">
  <ele>363.33</ele>
  <time>2026-09-01T19:58:29Z</time>
  <course>218.88</course>
  <speed>25.358111128394402</speed>
  <fix>3d</fix>
</trkpt>
<trkpt lat="-27.2696422" lon="151.2852077">
  <ele>363.41</ele>
  <time>2026-09-01T19:58:29Z</time>
  <course>217.3</course>
  <speed>25.3</speed>
  <fix>3d</fix>
</trkpt>
<trkpt lat="-27.2696918" lon="151.2851602">
  <ele>363.25</ele>
  <time>2026-09-01T19:58:29Z</time>
  <course>220.63</course>
  <speed>25.41708283812287</speed>
  <fix>3d</fix>
</trkpt>
<trkpt lat="-27.2696422" lon="151.2852077">
  <ele>363.41</ele>
  <time>2026-09-01T19:58:29Z</time>
  <course>217.3</course>
  <speed>25.3</speed>
  <fix>3d</fix>
</trkpt>
<trkpt lat="-27.2697085" lon="151.2851426">
  <ele>363.18</ele>
  <time>2026-09-01T19:58:29Z</time>
  <course>222.49</course>
  <speed>25.464408494995517</speed>
  <fix>3d</fix>
</trkpt>
<trkpt lat="-27.2696776" lon="151.2851756">
  <ele>363.22</ele>
  <time>2026-09-01T19:58:29Z</time>
  <course>220.43</course>
  <speed>25.36</speed>
  <fix>3d</fix>
</trkpt>
<trkpt lat="-27.2697246" lon="151.2851244">
  <ele>363.12</ele>
  <time>2026-09-01T19:58:29Z</time>
  <course>224.44</course>
  <speed>25.52</speed>
  <fix>3d</fix>
</trkpt>
<trkpt lat="-27.2696776" lon="151.2851756">
  <ele>363.22</ele>
  <time>2026-09-01T19:58:29Z</time>
  <course>220.43</course>
  <speed>25.36</speed>
  <fix>3d</fix>
</trkpt>
<trkpt lat="-27.2697401" lon="151.2851056">
  <ele>363.08</ele>
  <time>2026-09-01T19:58:29Z</time>
  <course>226.66</course>
  <speed>25.568154020186906</speed>
  <fix>3d</fix>
</trkpt>
<trkpt lat="-27.2697114" lon="151.2851411">
  <ele>363.08</ele>
  <time>2026-09-01T19:58:29Z</time>
  <course>224.13</course>
  <speed>25.44</speed>
  <fix>3d</fix>
</trkpt>
<trkpt lat="-27.269755" lon="151.285086">
  <ele>363.05</ele>
  <time>2026-09-01T19:58:29Z</time>
  <course>228.92</course>
  <speed>25.616635220106488</speed>
  <fix>3d</fix>
</trkpt>
<trkpt lat="-27.2697114" lon="151.2851411">
  <ele>363.08</ele>
  <time>2026-09-01T19:58:29Z</time>
  <course>224.13</course>
  <speed>25.44</speed>
  <fix>3d</fix>
</trkpt>
<trkpt lat="-27.2697692" lon="151.2850659">
  <ele>363.04</ele>
  <time>2026-09-01T19:58:29Z</time>
  <course>231.18</course>
  <speed>25.658000701535574</speed>
  <fix>3d</fix>
</trkpt>
<trkpt lat="-27.2697431" lon="151.285104">
  <ele>362.98</ele>
  <time>2026-09-01T19:58:29Z</time>
  <course>228.34</course>
  <speed>25.53</speed>
  <fix>3d</fix>
</trkpt>
<trkpt lat="-27.2697828" lon="151.2850449">
  <ele>363.04</ele>
  <time>2026-09-01T19:58:29Z</time>
  <course>233.62</course>
  <speed>25.701379340416732</speed>
  <fix>3d</fix>
</trkpt>
<trkpt lat="-27.2697431" lon="151.285104">
  <ele>362.98</ele>
  <time>2026-09-01T19:58:29Z</time>
  <course>228.34</course>
  <speed>25.53</speed>
  <fix>3d</fix>
</trkpt>
<trkpt lat="-27.2697955" lon="151.2850234">
  <ele>363.05</ele>
  <time>2026-09-01T19:58:29Z</time>
  <course>236.02</course>
  <speed>25.735691170046316</speed>
  <fix>3d</fix>
</trkpt>
<trkpt lat="-27.2697723" lon="151.2850639">
  <ele>362.95</ele>
  <time>2026-09-01T19:58:29Z</time>
  <course>232.96</course>
  <speed>25.63</speed>
  <fix>3d</fix>
</trkpt>
<trkpt lat="-27.2698074" lon="151.2850013">
  <ele>363.08</ele>
  <time>2026-09-01T19:58:29Z</time>
  <course>238.45</course>
  <speed>25.784561272203177</speed>
  <fix>3d</fix>
</trkpt>
<trkpt lat="-27.2697723" lon="151.2850639">
  <ele>362.95</ele>
  <time>2026-09-01T19:58:29Z</time>
  <course>232.96</course>
  <speed>25.63</speed>
  <fix>3d</fix>
</trkpt>
<trkpt lat="-27.2698188" lon="151.2849779">
  <ele>363.11</ele>
  <time>2026-09-01T19:58:29Z</time>
  <course>241.04</course>
  <speed>25.818142845681212</speed>
  <fix>3d</fix>
</trkpt>
<trkpt lat="-27.2697985" lon="151.2850212">
  <ele>362.97</ele>
  <time>2026-09-01T19:58:29Z</time>
  <course>237.84</course>
  <speed>25.71</speed>
  <fix>3d</fix>
</trkpt>
<trkpt lat="-27.2698288" lon="151.2849548">
  <ele>363.16</ele>
  <time>2026-09-01T19:58:29Z</time>
  <course>243.5</course>
  <speed>25.844477166311567</speed>
  <fix>3d</fix>
</trkpt>
<trkpt lat="-27.2698214" lon="151.2849759">
  <ele>363.03</ele>
  <time>2026-09-01T19:58:29Z</time>
  <course>242.84</course>
  <speed>25.8</speed>
  <fix>3d</fix>
</trkpt>
<trkpt lat="-27.2698381" lon="151.2849309">
  <ele>363.22</ele>
  <time>2026-09-01T19:58:29Z</time>
  <course>246.06</course>
  <speed>25.876680621748996</speed>
  <fix>3d</fix>
</trkpt>
<trkpt lat="-27.2698214" lon="151.2849759">
  <ele>363.03</ele>
  <time>2026-09-01T19:58:29Z</time>
  <course>242.84</course>
  <speed>25.8</speed>
  <fix>3d</fix>
</trkpt>
<trkpt lat="-27.2698464" lon="151.2849065">
  <ele>363.29</ele>
  <time>2026-09-01T19:58:29Z</time>
  <course>248.58</course>
  <speed>25.905630662078078</speed>
  <fix>3d</fix>
</trkpt>
<trkpt lat="-27.2698406" lon="151.2849284">
  <ele>363.14</ele>
  <time>2026-09-01T19:58:29Z</time>
  <course>247.93</course>
  <speed>25.86</speed>
  <fix>3d</fix>
</trkpt>
<trkpt lat="-27.2698538" lon="151.2848817">
  <ele>363.37</ele>
  <time>2026-09-01T19:58:29Z</time>
  <course>251.14</course>
  <speed>25.935092056902363</speed>
  <fix>3d</fix>
</trkpt>
<trkpt lat="-27.2698406" lon="151.2849284">
  <ele>363.14</ele>
  <time>2026-09-01T19:58:29Z</time>
  <course>247.93</course>
  <speed>25.86</speed>
  <fix>3d</fix>
</trkpt>
<trkpt lat="-27.2698602" lon="151.2848562">
  <ele>363.46</ele>
  <time>2026-09-01T19:58:29Z</time>
  <course>253.68</course>
  <speed>25.95630944491146</speed>
  <fix>3d</fix>
</trkpt>
<trkpt lat="-27.2698562" lon="151.2848791">
  <ele>363.28</ele>
  <time>2026-09-01T19:58:29Z</time>
  <course>253.06</course>
  <speed>25.91</speed>
  <fix>3d</fix>
</trkpt>
<trkpt lat="-27.2698655" lon="151.2848313">
  <ele>363.55</ele>
  <time>2026-09-01T19:58:29Z</time>
  <course>256.05</course>
  <speed>25.970729677850795</speed>
  <fix>3d</fix>
</trkpt>
<trkpt lat="-27.2698562" lon="151.2848791">
  <ele>363.28</ele>
  <time>2026-09-01T19:58:29Z</time>
  <course>253.06</course>
  <speed>25.91</speed>
  <fix>3d</fix>
</trkpt>
<trkpt lat="-27.2698699" lon="151.2848055">
  <ele>363.64</ele>
  <time>2026-09-01T19:58:29Z</time>
  <course>258.57</course>
  <speed>25.993202957696457</speed>
  <fix>3d</fix>
</trkpt>
<trkpt lat="-27.2698562" lon="151.2848791">
  <ele>363.28</ele>
  <time>2026-09-01T19:58:29Z</time>
  <course>253.06</course>
  <speed>25.91</speed>
  <fix>3d</fix>
</trkpt>
<trkpt lat="-27.2698734" lon="151.2847795">
  <ele>363.74</ele>
  <time>2026-09-01T19:58:29Z</time>
  <course>261.01</course>
  <speed>25.99550153391929</speed>
  <fix>3d</fix>
</trkpt>
<trkpt lat="-27.2698678" lon="151.2848284">
  <ele>363.46</ele>
  <time>2026-09-01T19:58:29Z</time>
  <course>258.14</course>
  <speed>25.95</speed>
  <fix>3d</fix>
</trkpt>
<trkpt lat="-27.2698758" lon="151.2847534">
  <ele>363.85</ele>
  <time>2026-09-01T19:58:29Z</time>
  <course>263.49</course>
  <speed>26.005485959697044</speed>
  <fix>3d</fix>
</trkpt>
<trkpt lat="-27.2698678" lon="151.2848284">
  <ele>363.46</ele>
  <time>2026-09-01T19:58:29Z</time>
  <course>258.14</course>
  <speed>25.95</speed>
  <fix>3d</fix>
</trkpt>
<trkpt lat="-27.2698773" lon="151.2847271">
  <ele>363.95</ele>
  <time>2026-09-01T19:58:29Z</time>
  <course>265.88</course>
  <speed>26.00422465677452</speed>
  <fix>3d</fix>
</trkpt>
<trkpt lat="-27.2698753" lon="151.2847767">
  <ele>363.66</ele>
  <time>2026-09-01T19:58:29Z</time>
  <course>263.14</course>
  <speed>25.97</speed>
  <fix>3d</fix>
</trkpt>
<trkpt lat="-27.2698777" lon="151.2847008">
  <ele>364.06</ele>
  <time>2026-09-01T19:58:29Z</time>
  <course>268.27</course>
  <speed>26.001017287790877</speed>
  <fix>3d</fix>
</trkpt>
<trkpt lat="-27.2698753" lon="151.2847767">
  <ele>363.66</ele>
  <time>2026-09-01T19:58:29Z</time>
  <course>263.14</course>
  <speed>25.97</speed>
  <fix>3d</fix>
</trkpt>
<trkpt lat="-27.2698772" lon="151.2846746">
  <ele>364.16</ele>
  <time>2026-09-01T19:58:29Z</time>
  <course>270.73</course>
  <speed>26.003019055486615</speed>
  <fix>3d</fix>
</trkpt>
<trkpt lat="-27.2698789" lon="151.2847243">
  <ele>363.86</ele>
  <time>2026-09-01T19:58:29Z</time>
  <course>268.11</course>
  <speed>25.97</speed>
  <fix>3d</fix>
</trkpt>
<trkpt lat="-27.2698756" lon="151.2846484">
  <ele>364.26</ele>
  <time>2026-09-01T19:58:29Z</time>
  <course>273.13</course>
  <speed>26.001926851677744</speed>
  <fix>3d</fix>
</trkpt>
<trkpt lat="-27.2698789" lon="151.2847243">
  <ele>363.86</ele>
  <time>2026-09-01T19:58:29Z</time>
  <course>268.11</course>
  <speed>25.97</speed>
  <fix>3d</fix>
</trkpt>
<trkpt lat="-27.2698731" lon="151.2846226">
  <ele>364.36</ele>
  <time>2026-09-01T19:58:29Z</time>
  <course>275.53</course>
  <speed>25.984089362531062</speed>
  <fix>3d</fix>
</trkpt>
<trkpt lat="-27.2698785" lon="151.2846718">
  <ele>364.05</ele>
  <time>2026-09-01T19:58:29Z</time>
  <course>273.0</course>
  <speed>25.97</speed>
  <fix>3d</fix>
</trkpt>
<trkpt lat="-27.2698697" lon="151.2845968">
  <ele>364.46</ele>
  <time>2026-09-01T19:58:29Z</time>
  <course>277.91</course>
  <speed>25.961820044057003</speed>
  <fix>3d</fix>
</trkpt>
<trkpt lat="-27.2698785" lon="151.2846718">
  <ele>364.05</ele>
  <time>2026-09-01T19:58:29Z</time>
  <course>273.0</course>
  <speed>25.97</speed>
  <fix>3d</fix>
</trkpt>
<trkpt lat="-27.2698654" lon="151.2845713">
  <ele>364.56</ele>
  <time>2026-09-01T19:58:29Z</time>
  <course>280.23</course>
  <speed>25.937334095854954</speed>
  <fix>3d</fix>
</trkpt>
<trkpt lat="-27.269874" lon="151.2846197">
  <ele>364.24</ele>
  <time>2026-09-01T19:58:29Z</time>
  <course>277.84</course>
  <speed>25.96</speed>
  <fix>3d</fix>
</trkpt>
<trkpt lat="-27.2698601" lon="151.2845461">
  <ele>364.65</ele>
  <time>2026-09-01T19:58:29Z</time>
  <course>282.55</course>
  <speed>25.909457732650445</speed>
  <fix>3d</fix>
</trkpt>
<trkpt lat="-27.269874" lon="151.2846197">
  <ele>364.24</ele>
  <time>2026-09-01T19:58:29Z</time>
  <course>277.84</course>
  <speed>25.96</speed>
  <fix>3d</fix>
</trkpt>
<trkpt lat="-27.2698538" lon="151.2845209">
  <ele>364.73</ele>
  <time>2026-09-01T19:58:29Z</time>
  <course>284.93</course>
  <speed>25.881027800301904</speed>
  <fix>3d</fix>
</trkpt>
<trkpt lat="-27.2698658" lon="151.2845679">
  <ele>364.41</ele>
  <time>2026-09-01T19:58:29Z</time>
  <course>282.6</course>
  <speed>25.93</speed>
  <fix>3d</fix>
</trkpt>
<trkpt lat="-27.2698467" lon="151.2844963">
  <ele>364.8</ele>
  <time>2026-09-01T19:58:29Z</time>
  <course>287.24</course>
  <speed>25.839601390114364</speed>
  <fix>3d</fix>
</trkpt>
<trkpt lat="-27.2698658" lon="151.2845679">
  <ele>364.41</ele>
  <time>2026-09-01T19:58:29Z</time>
  <course>282.6</course>
  <speed>25.93</speed>
  <fix>3d</fix>
</trkpt>
<trkpt lat="-27.2698386" lon="151.2844718">
  <ele>364.87</ele>
  <time>2026-09-01T19:58:29Z</time>
  <course>289.54</course>
  <speed>25.815383010910374</speed>
  <fix>3d</fix>
</trkpt>
<trkpt lat="-27.2698537" lon="151.2845173">
  <ele>364.57</ele>
  <time>2026-09-01T19:58:29Z</time>
  <course>287.29</course>
  <speed>25.9</speed>
  <fix>3d</fix>
</trkpt>
<trkpt lat="-27.2698294" lon="151.284447">
  <ele>364.94</ele>
  <time>2026-09-01T19:58:29Z</time>
  <course>291.92</course>
  <speed>25.796964937759636</speed>
  <fix>3d</fix>
</trkpt>
<trkpt lat="-27.2698381" lon="151.284468">
  <ele>364.71</ele>
  <time>2026-09-01T19:58:29Z</time>
  <course>291.95</course>
  <speed>25.86</speed>
  <fix>3d</fix>
</trkpt>
<trkpt lat="-27.2698196" lon="151.2844235">
  <ele>364.99</ele>
  <time>2026-09-01T19:58:29Z</time>
  <course>294.27</course>
  <speed>25.772995557365853</speed>
  <fix>3d</fix>
</trkpt>
<trkpt lat="-27.2698381" lon="151.284468">
  <ele>364.71</ele>
  <time>2026-09-01T19:58:29Z</time>
  <course>291.95</course>
  <speed>25.86</speed>
  <fix>3d</fix>
</trkpt>
<trkpt lat="-27.2698089" lon="151.2844003">
  <ele>365.04</ele>
  <time>2026-09-01T19:58:29Z</time>
  <course>296.41</course>
  <speed>25.75990100912657</speed>
  <fix>3d</fix>
</trkpt>
<trkpt lat="-27.269819" lon="151.2844204">
  <ele>364.82</ele>
  <time>2026-09-01T19:58:29Z</time>
  <course>296.59</course>
  <speed>25.82</speed>
  <fix>3d</fix>
</trkpt>
<trkpt lat="-27.2697974" lon="151.2843776">
  <ele>365.07</ele>
  <time>2026-09-01T19:58:29Z</time>
  <course>298.64</course>
  <speed>25.745368515521392</speed>
  <fix>3d</fix>
</trkpt>
<trkpt lat="-27.269819" lon="151.2844204">
  <ele>364.82</ele>
  <time>2026-09-01T19:58:29Z</time>
  <course>296.59</course>
  <speed>25.82</speed>
  <fix>3d</fix>
</trkpt>
<trkpt lat="-27.2697851" lon="151.2843554">
  <ele>365.1</ele>
  <time>2026-09-01T19:58:29Z</time>
  <course>301.02</course>
  <speed>25.74165884320589</speed>
  <fix>3d</fix>
</trkpt>
<trkpt lat="-27.2697966" lon="151.2843748">
  <ele>364.9</ele>
  <time>2026-09-01T19:58:29Z</time>
  <course>301.18</course>
  <speed>25.79</speed>
  <fix>3d</fix>
</trkpt>
<trkpt lat="-27.2697719" lon="151.2843336">
  <ele>365.12</ele>
  <time>2026-09-01T19:58:29Z</time>
  <course>303.43</course>
  <speed>25.727965329578627</speed>
  <fix>3d</fix>
</trkpt>
<trkpt lat="-27.2697966" lon="151.2843748">
  <ele>364.9</ele>
  <time>2026-09-01T19:58:29Z</time>
  <course>301.18</course>
  <speed>25.79</speed>
  <fix>3d</fix>
</trkpt>
<trkpt lat="-27.2697581" lon="151.2843127">
  <ele>365.14</ele>
  <time>2026-09-01T19:58:29Z</time>
  <course>305.75</course>
  <speed>25.712745866593092</speed>
  <fix>3d</fix>
</trkpt>
<trkpt lat="-27.269771" lon="151.2843313">
  <ele>364.94</ele>
  <time>2026-09-01T19:58:29Z</time>
  <course>305.8</course>
  <speed>25.76</speed>
  <fix>3d</fix>
</trkpt>
<trkpt lat="-27.2697434" lon="151.2842924">
  <ele>365.15</ele>
  <time>2026-09-01T19:58:29Z</time>
  <course>308.05</course>
  <speed>25.7044140178297</speed>
  <fix>3d</fix>
</trkpt>
<trkpt lat="-27.269771" lon="151.2843313">
  <ele>364.94</ele>
  <time>2026-09-01T19:58:29Z</time>
  <course>305.8</course>
  <speed>25.76</speed>
  <fix>3d</fix>
</trkpt>
<trkpt lat="-27.2697281" lon="151.2842729">
  <ele>365.15</ele>
  <time>2026-09-01T19:58:29Z</time>
  <course>310.3</course>
  <speed>25.68370105728534</speed>
  <fix>3d</fix>
</trkpt>
<trkpt lat="-27.2697425" lon="151.2842905">
  <ele>364.97</ele>
  <time>2026-09-01T19:58:29Z</time>
  <course>310.46</course>
  <speed>25.73</speed>
  <fix>3d</fix>
</trkpt>
<trkpt lat="-27.2697122" lon="151.2842541">
  <ele>365.15</ele>
  <time>2026-09-01T19:58:29Z</time>
  <course>312.56</course>
  <speed>25.66803849147807</speed>
  <fix>3d</fix>
</trkpt>
<trkpt lat="-27.2697425" lon="151.2842905">
  <ele>364.97</ele>
  <time>2026-09-01T19:58:29Z</time>
  <course>310.46</course>
  <speed>25.73</speed>
  <fix>3d</fix>
</trkpt>
<trkpt lat="-27.2696957" lon="151.2842361">
  <ele>365.15</ele>
  <time>2026-09-01T19:58:29Z</time>
  <course>314.86</course>
  <speed>25.643587892492736</speed>
  <fix>3d</fix>
</trkpt>
<trkpt lat="-27.2697111" lon="151.2842523">
  <ele>364.97</ele>
  <time>2026-09-01T19:58:29Z</time>
  <course>315.05</course>
  <speed>25.69</speed>
  <fix>3d</fix>
</trkpt>
<trkpt lat="-27.2696786" lon="151.2842189">
  <ele>365.14</ele>
  <time>2026-09-01T19:58:29Z</time>
  <course>317.15</course>
  <speed>25.62491951206872</speed>
  <fix>3d</fix>
</trkpt>
<trkpt lat="-27.2697111" lon="151.2842523">
  <ele>364.97</ele>
  <time>2026-09-01T19:58:29Z</time>
  <course>315.05</course>
  <speed>25.69</speed>
  <fix>3d</fix>
</trkpt>
<trkpt lat="-27.2696614" lon="151.2842029">
  <ele>365.12</ele>
  <time>2026-09-01T19:58:29Z</time>
  <course>319.35</course>
  <speed>25.608250623578332</speed>
  <fix>3d</fix>
</trkpt>
<trkpt lat="-27.2697111" lon="151.2842523">
  <ele>364.97</ele>
  <time>2026-09-01T19:58:29Z</time>
  <course>315.05</course>
  <speed>25.69</speed>
  <fix>3d</fix>
</trkpt>
<trkpt lat="-27.2696433" lon="151.2841874">
  <ele>365.11</ele>
  <time>2026-09-01T19:58:29Z</time>
  <course>321.6</course>
  <speed>25.58253310366274</speed>
  <fix>3d</fix>
</trkpt>
<trkpt lat="-27.2696772" lon="151.2842172">
  <ele>364.95</ele>
  <time>2026-09-01T19:58:29Z</time>
  <course>319.61</course>
  <speed>25.66</speed>
  <fix>3d</fix>
</trkpt>
<trkpt lat="-27.2696246" lon="151.2841727">
  <ele>365.08</ele>
  <time>2026-09-01T19:58:29Z</time>
  <course>323.87</course>
  <speed>25.560633794959</speed>
  <fix>3d</fix>
</trkpt>
<trkpt lat="-27.2696772" lon="151.2842172">
  <ele>364.95</ele>
  <time>2026-09-01T19:58:29Z</time>
  <course>319.61</course>
  <speed>25.66</speed>
  <fix>3d</fix>
</trkpt>
<trkpt lat="-27.2696053" lon="151.2841587">
  <ele>365.05</ele>
  <time>2026-09-01T19:58:29Z</time>
  <course>326.16</course>
  <speed>25.556316244717273</speed>
  <fix>3d</fix>
</trkpt>
<trkpt lat="-27.269641" lon="151.2841852">
  <ele>364.91</ele>
  <time>2026-09-01T19:58:29Z</time>
  <course>324.16</course>
  <speed>25.64</speed>
  <fix>3d</fix>
</trkpt>
<trkpt lat="-27.2695855" lon="151.2841456">
  <ele>365.02</ele>
  <time>2026-09-01T19:58:29Z</time>
  <course>328.42</course>
  <speed>25.5508160339352</speed>
  <fix>3d</fix>
</trkpt>
<trkpt lat="-27.269641" lon="151.2841852">
  <ele>364.91</ele>
  <time>2026-09-01T19:58:29Z</time>
  <course>324.16</course>
  <speed>25.64</speed>
  <fix>3d</fix>
</trkpt>
<trkpt lat="-27.2695652" lon="151.2841334">
  <ele>364.98</ele>
  <time>2026-09-01T19:58:29Z</time>
  <course>330.69</course>
  <speed>25.541059100984832</speed>
  <fix>3d</fix>
</trkpt>
<trkpt lat="-27.2696025" lon="151.2841566">
  <ele>364.86</ele>
  <time>2026-09-01T19:58:29Z</time>
  <course>328.7</course>
  <speed>25.61</speed>
  <fix>3d</fix>
</trkpt>
<trkpt lat="-27.2695443" lon="151.284122">
  <ele>364.93</ele>
  <time>2026-09-01T19:58:29Z</time>
  <course>332.93</course>
  <speed>25.536031406622293</speed>
  <fix>3d</fix>
</trkpt>
<trkpt lat="-27.2696025" lon="151.2841566">
  <ele>364.86</ele>
  <time>2026-09-01T19:58:29Z</time>
  <course>328.7</course>
  <speed>25.61</speed>
  <fix>3d</fix>
</trkpt>
<trkpt lat="-27.2695232" lon="151.2841116">
  <ele>364.88</ele>
  <time>2026-09-01T19:58:29Z</time>
  <course>335.19</course>
  <speed>25.540158574292366</speed>
  <fix>3d</fix>
</trkpt>
<trkpt lat="-27.2695622" lon="151.2841314">
  <ele>364.78</ele>
  <time>2026-09-01T19:58:29Z</time>
  <course>333.24</course>
  <speed>25.6</speed>
  <fix>3d</fix>
</trkpt>
<trkpt lat="-27.2695017" lon="151.2841021">
  <ele>364.82</ele>
  <time>2026-09-01T19:58:29Z</time>
  <course>337.48</course>
  <speed>25.54025254377881</speed>
  <fix>3d</fix>
</trkpt>
<trkpt lat="-27.2695622" lon="151.2841314">
  <ele>364.78</ele>
  <time>2026-09-01T19:58:29Z</time>
  <course>333.24</course>
  <speed>25.6</speed>
  <fix>3d</fix>
</trkpt>
<trkpt lat="-27.2694792" lon="151.2840934">
  <ele>364.76</ele>
  <time>2026-09-01T19:58:29Z</time>
  <course>339.83</course>
  <speed>25.54973385379973</speed>
  <fix>3d</fix>
</trkpt>
<trkpt lat="-27.2695205" lon="151.28411">
  <ele>364.69</ele>
  <time>2026-09-01T19:58:29Z</time>
  <course>337.78</course>
  <speed>25.58</speed>
  <fix>3d</fix>
</trkpt>
<trkpt lat="-27.2694573" lon="151.284086">
  <ele>364.7</ele>
  <time>2026-09-01T19:58:29Z</time>
  <course>342.11</course>
  <speed>25.549819960226728</speed>
  <fix>3d</fix>
</trkpt>
<trkpt lat="-27.2694773" lon="151.2840923">
  <ele>364.58</ele>
  <time>2026-09-01T19:58:29Z</time>
  <course>342.33</course>
  <speed>25.57</speed>
  <fix>3d</fix>
</trkpt>
<trkpt lat="-27.269435" lon="151.2840795">
  <ele>364.64</ele>
  <time>2026-09-01T19:58:29Z</time>
  <course>344.39</course>
  <speed>25.54647725225535</speed>
  <fix>3d</fix>
</trkpt>
<trkpt lat="-27.2694773" lon="151.2840923">
  <ele>364.58</ele>
  <time>2026-09-01T19:58:29Z</time>
  <course>342.33</course>
  <speed>25.57</speed>
  <fix>3d</fix>
</trkpt>
<trkpt lat="-27.2694124" lon="151.2840741">
  <ele>364.57</ele>
  <time>2026-09-01T19:58:29Z</time>
  <course>346.6</course>
  <speed>25.54464523143745</speed>
  <fix>3d</fix>
</trkpt>
<trkpt lat="-27.269433" lon="151.2840786">
  <ele>364.47</ele>
  <time>2026-09-01T19:58:29Z</time>
  <course>346.88</course>
  <speed>25.56</speed>
  <fix>3d</fix>
</trkpt>
<trkpt lat="-27.2693897" lon="151.2840696">
  <ele>364.51</ele>
  <time>2026-09-01T19:58:29Z</time>
  <course>348.83</course>
  <speed>25.54333768323944</speed>
  <fix>3d</fix>
</trkpt>
<trkpt lat="-27.269433" lon="151.2840786">
  <ele>364.47</ele>
  <time>2026-09-01T19:58:29Z</time>
  <course>346.88</course>
  <speed>25.56</speed>
  <fix>3d</fix>
</trkpt>
<trkpt lat="-27.2693667" lon="151.2840661">
  <ele>364.45</ele>
  <time>2026-09-01T19:58:29Z</time>
  <course>351.11</course>
  <speed>25.550571422181537</speed>
  <fix>3d</fix>
</trkpt>
<trkpt lat="-27.2693879" lon="151.2840689">
  <ele>364.36</ele>
  <time>2026-09-01T19:58:29Z</time>
  <course>351.39</course>
  <speed>25.55</speed>
  <fix>3d</fix>
</trkpt>
<trkpt lat="-27.2693438" lon="151.2840637">
  <ele>364.38</ele>
  <time>2026-09-01T19:58:29Z</time>
  <course>353.29</course>
  <speed>25.54926222026773</speed>
  <fix>3d</fix>
</trkpt>
<trkpt lat="-27.2693879" lon="151.2840689">
  <ele>364.36</ele>
  <time>2026-09-01T19:58:29Z</time>
  <course>351.39</course>
  <speed>25.55</speed>
  <fix>3d</fix>
</trkpt>
<trkpt lat="-27.2693208" lon="151.2840623">
  <ele>364.32</ele>
  <time>2026-09-01T19:58:29Z</time>
  <course>355.47</course>
  <speed>25.54621302659163</speed>
  <fix>3d</fix>
</trkpt>
<trkpt lat="-27.2693423" lon="151.2840632">
  <ele>364.25</ele>
  <time>2026-09-01T19:58:29Z</time>
  <course>355.83</course>
  <speed>25.54</speed>
  <fix>3d</fix>
</trkpt>
<trkpt lat="-27.2692978" lon="151.2840618">
  <ele>364.26</ele>
  <time>2026-09-01T19:58:29Z</time>
  <course>357.65</course>
  <speed>25.55007045000072</speed>
  <fix>3d</fix>
</trkpt>
<trkpt lat="-27.2693423" lon="151.2840632">
  <ele>364.25</ele>
  <time>2026-09-01T19:58:29Z</time>
  <course>355.83</course>
  <speed>25.54</speed>
  <fix>3d</fix>
</trkpt>
<trkpt lat="-27.2692748" lon="151.2840623">
  <ele>364.19</ele>
  <time>2026-09-01T19:58:29Z</time>
  <course>359.83</course>
  <speed>25.55117414131883</speed>
  <fix>3d</fix>
</trkpt>
<trkpt lat="-27.2692965" lon="151.2840614">
  <ele>364.13</ele>
  <time>2026-09-01T19:58:29Z</time>
  <course>0.21</course>
  <speed>25.53</speed>
  <fix>3d</fix>
</trkpt>
<trkpt lat="-27.269252" lon="151.2840638">
  <ele>364.14</ele>
  <time>2026-09-01T19:58:29Z</time>
  <course>2.08</course>
  <speed>25.540007830852364</speed>
  <fix>3d</fix>
</trkpt>
<trkpt lat="-27.2692965" lon="151.2840614">
  <ele>364.13</ele>
  <time>2026-09-01T19:58:29Z</time>
  <course>0.21</course>
  <speed>25.53</speed>
  <fix>3d</fix>
</trkpt>
<trkpt lat="-27.2692293" lon="151.2840663">
  <ele>364.08</ele>
  <time>2026-09-01T19:58:29Z</time>
  <course>4.28</course>
  <speed>25.536828307368165</speed>
  <fix>3d</fix>
</trkpt>
<trkpt lat="-27.2692507" lon="151.2840635">
  <ele>364.02</ele>
  <time>2026-09-01T19:58:29Z</time>
  <course>4.61</course>
  <speed>25.52</speed>
  <fix>3d</fix>
</trkpt>
<trkpt lat="-27.2692067" lon="151.2840697">
  <ele>364.03</ele>
  <time>2026-09-01T19:58:29Z</time>
  <course>6.38</course>
  <speed>25.527453848748802</speed>
  <fix>3d</fix>
</trkpt>
<trkpt lat="-27.2692507" lon="151.2840635">
  <ele>364.02</ele>
  <time>2026-09-01T19:58:29Z</time>
  <course>4.61</course>
  <speed>25.52</speed>
  <fix>3d</fix>
</trkpt>
<trkpt lat="-27.2691843" lon="151.2840741">
  <ele>363.98</ele>
  <time>2026-09-01T19:58:29Z</time>
  <course>8.47</course>
  <speed>25.520911033895324</speed>
  <fix>3d</fix>
</trkpt>
<trkpt lat="-27.2692052" lon="151.2840696">
  <ele>363.9</ele>
  <time>2026-09-01T19:58:29Z</time>
  <course>8.95</course>
  <speed>25.52</speed>
  <fix>3d</fix>
</trkpt>
<trkpt lat="-27.269162" lon="151.2840794">
  <ele>363.93</ele>
  <time>2026-09-01T19:58:29Z</time>
  <course>10.52</course>
  <speed>25.50360758794724</speed>
  <fix>3d</fix>
</trkpt>
<trkpt lat="-27.2692052" lon="151.2840696">
  <ele>363.9</ele>
  <time>2026-09-01T19:58:29Z</time>
  <course>8.95</course>
  <speed>25.52</speed>
  <fix>3d</fix>
</trkpt>
<trkpt lat="-27.26914" lon="151.2840856">
  <ele>363.88</ele>
  <time>2026-09-01T19:58:29Z</time>
  <course>12.59</course>
  <speed>25.495248576940764</speed>
  <fix>3d</fix>
</trkpt>
<trkpt lat="-27.2691602" lon="151.2840795">
  <ele>363.8</ele>
  <time>2026-09-01T19:58:29Z</time>
  <course>13.15</course>
  <speed>25.51</speed>
  <fix>3d</fix>
</trkpt>
<trkpt lat="-27.2691181" lon="151.2840927">
  <ele>363.83</ele>
  <time>2026-09-01T19:58:29Z</time>
  <course>14.67</course>
  <speed>25.478157311705253</speed>
  <fix>3d</fix>
</trkpt>
<trkpt lat="-27.2691602" lon="151.2840795">
  <ele>363.8</ele>
  <time>2026-09-01T19:58:29Z</time>
  <course>13.15</course>
  <speed>25.51</speed>
  <fix>3d</fix>
</trkpt>
<trkpt lat="-27.2690965" lon="151.2841006">
  <ele>363.78</ele>
  <time>2026-09-01T19:58:29Z</time>
  <course>16.72</course>
  <speed>25.46815462494289</speed>
  <fix>3d</fix>
</trkpt>
<trkpt lat="-27.2691159" lon="151.2840931">
  <ele>363.7</ele>
  <time>2026-09-01T19:58:29Z</time>
  <course>17.25</course>
  <speed>25.49</speed>
  <fix>3d</fix>
</trkpt>
<trkpt lat="-27.269075" lon="151.2841095">
  <ele>363.72</ele>
  <time>2026-09-01T19:58:29Z</time>
  <course>18.75</course>
  <speed>25.47116997705445</speed>
  <fix>3d</fix>
</trkpt>
<trkpt lat="-27.2691159" lon="151.2840931">
  <ele>363.7</ele>
  <time>2026-09-01T19:58:29Z</time>
  <course>17.25</course>
  <speed>25.49</speed>
  <fix>3d</fix>
</trkpt>
<trkpt lat="-27.2690544" lon="151.2841189">
  <ele>363.67</ele>
  <time>2026-09-01T19:58:29Z</time>
  <course>20.67</course>
  <speed>25.46294562693013</speed>
  <fix>3d</fix>
</trkpt>
<trkpt lat="-27.2691159" lon="151.2840931">
  <ele>363.7</ele>
  <time>2026-09-01T19:58:29Z</time>
  <course>17.25</course>
  <speed>25.49</speed>
  <fix>3d</fix>
</trkpt>
<trkpt lat="-27.2690328" lon="151.2841299">
  <ele>363.61</ele>
  <time>2026-09-01T19:58:29Z</time>
  <course>22.73</course>
  <speed>25.461633883158402</speed>
  <fix>3d</fix>
</trkpt>
<trkpt lat="-27.2690727" lon="151.2841101">
  <ele>363.59</ele>
  <time>2026-09-01T19:58:29Z</time>
  <course>21.32</course>
  <speed>25.48</speed>
  <fix>3d</fix>
</trkpt>
<trkpt lat="-27.2690122" lon="151.2841413">
  <ele>363.55</ele>
  <time>2026-09-01T19:58:29Z</time>
  <course>24.79</course>
  <speed>25.45754897864286</speed>
  <fix>3d</fix>
</trkpt>
<trkpt lat="-27.2690307" lon="151.2841305">
  <ele>363.49</ele>
  <time>2026-09-01T19:58:29Z</time>
  <course>25.35</course>
  <speed>25.46</speed>
  <fix>3d</fix>
</trkpt>
<trkpt lat="-27.2689922" lon="151.2841533">
  <ele>363.5</ele>
  <time>2026-09-01T19:58:29Z</time>
  <course>26.77</course>
  <speed>25.4576432530586</speed>
  <fix>3d</fix>
</trkpt>
<trkpt lat="-27.2690307" lon="151.2841305">
  <ele>363.49</ele>
  <time>2026-09-01T19:58:29Z</time>
  <course>25.35</course>
  <speed>25.46</speed>
  <fix>3d</fix>
</trkpt>
<trkpt lat="-27.2689725" lon="151.2841662">
  <ele>363.45</ele>
  <time>2026-09-01T19:58:29Z</time>
  <course>28.66</course>
  <speed>25.45771788672347</speed>
  <fix>3d</fix>
</trkpt>
<trkpt lat="-27.26899" lon="151.2841542">
  <ele>363.39</ele>
  <time>2026-09-01T19:58:29Z</time>
  <course>29.35</course>
  <speed>25.45</speed>
  <fix>3d</fix>
</trkpt>
<trkpt lat="-27.2689532" lon="151.2841799">
  <ele>363.4</ele>
  <time>2026-09-01T19:58:29Z</time>
  <course>30.55</course>
  <speed>25.453223764387882</speed>
  <fix>3d</fix>
</trkpt>
<trkpt lat="-27.26899" lon="151.2841542">
  <ele>363.39</ele>
  <time>2026-09-01T19:58:29Z</time>
  <course>29.35</course>
  <speed>25.45</speed>
  <fix>3d</fix>
</trkpt>
<trkpt lat="-27.2689343" lon="151.2841943">
  <ele>363.35</ele>
  <time>2026-09-01T19:58:29Z</time>
  <course>32.45</course>
  <speed>25.457708066516908</speed>
  <fix>3d</fix>
</trkpt>
<trkpt lat="-27.268951" lon="151.2841809">
  <ele>363.28</ele>
  <time>2026-09-01T19:58:29Z</time>
  <course>33.28</course>
  <speed>25.44</speed>
  <fix>3d</fix>
</trkpt>
<trkpt lat="-27.2689157" lon="151.2842094">
  <ele>363.3</ele>
  <time>2026-09-01T19:58:29Z</time>
  <course>34.37</course>
  <speed>25.454101830549824</speed>
  <fix>3d</fix>
</trkpt>
<trkpt lat="-27.268951" lon="151.2841809">
  <ele>363.28</ele>
  <time>2026-09-01T19:58:29Z</time>
  <course>33.28</course>
  <speed>25.44</speed>
  <fix>3d</fix>
</trkpt>
<trkpt lat="-27.2688977" lon="151.2842252">
  <ele>363.25</ele>
  <time>2026-09-01T19:58:29Z</time>
  <course>36.33</course>
  <speed>25.44406414077751</speed>
  <fix>3d</fix>
</trkpt>
<trkpt lat="-27.2689137" lon="151.2842106">
  <ele>363.19</ele>
  <time>2026-09-01T19:58:29Z</time>
  <course>37.08</course>
  <speed>25.44</speed>
  <fix>3d</fix>
</trkpt>
<trkpt lat="-27.2688801" lon="151.2842417">
  <ele>363.2</ele>
  <time>2026-09-01T19:58:29Z</time>
  <course>38.26</course>
  <speed>25.452646227848295</speed>
  <fix>3d</fix>
</trkpt>
<trkpt lat="-27.2689137" lon="151.2842106">
  <ele>363.19</ele>
  <time>2026-09-01T19:58:29Z</time>
  <course>37.08</course>
  <speed>25.44</speed>
  <fix>3d</fix>
</trkpt>
<trkpt lat="-27.2688629" lon="151.2842589">
  <ele>363.15</ele>
  <time>2026-09-01T19:58:29Z</time>
  <course>40.18</course>
  <speed>25.46150820356092</speed>
  <fix>3d</fix>
</trkpt>
<trkpt lat="-27.2688782" lon="151.2842428">
  <ele>363.09</ele>
  <time>2026-09-01T19:58:29Z</time>
  <course>40.87</course>
  <speed>25.43</speed>
  <fix>3d</fix>
</trkpt>
<trkpt lat="-27.2688462" lon="151.2842767">
  <ele>363.1</ele>
  <time>2026-09-01T19:58:29Z</time>
  <course>42.05</course>
  <speed>25.470461322873604</speed>
  <fix>3d</fix>
</trkpt>
<trkpt lat="-27.2688782" lon="151.2842428">
  <ele>363.09</ele>
  <time>2026-09-01T19:58:29Z</time>
  <course>40.87</course>
  <speed>25.43</speed>
  <fix>3d</fix>
</trkpt>
<trkpt lat="-27.2688301" lon="151.2842952">
  <ele>363.04</ele>
  <time>2026-09-01T19:58:29Z</time>
  <course>43.96</course>
  <speed>25.479411296181866</speed>
  <fix>3d</fix>
</trkpt>
<trkpt lat="-27.2688447" lon="151.2842777">
  <ele>362.99</ele>
  <time>2026-09-01T19:58:29Z</time>
  <course>44.69</course>
  <speed>25.42</speed>
  <fix>3d</fix>
</trkpt>
<trkpt lat="-27.2688145" lon="151.2843143">
  <ele>362.99</ele>
  <time>2026-09-01T19:58:29Z</time>
  <course>45.87</course>
  <speed>25.49584475948973</speed>
  <fix>3d</fix>
</trkpt>
<trkpt lat="-27.2688447" lon="151.2842777">
  <ele>362.99</ele>
  <time>2026-09-01T19:58:29Z</time>
  <course>44.69</course>
  <speed>25.42</speed>
  <fix>3d</fix>
</trkpt>
<trkpt lat="-27.2687995" lon="151.284334">
  <ele>362.94</ele>
  <time>2026-09-01T19:58:29Z</time>
  <course>47.83</course>
  <speed>25.520511358513176</speed>
  <fix>3d</fix>
</trkpt>
<trkpt lat="-27.2688133" lon="151.2843151">
  <ele>362.9</ele>
  <time>2026-09-01T19:58:29Z</time>
  <course>48.52</course>
  <speed>25.42</speed>
  <fix>3d</fix>
</trkpt>
<trkpt lat="-27.2687851" lon="151.2843542">
  <ele>362.89</ele>
  <time>2026-09-01T19:58:29Z</time>
  <course>49.82</course>
  <speed>25.532263902756448</speed>
  <fix>3d</fix>
</trkpt>
<trkpt lat="-27.2688133" lon="151.2843151">
  <ele>362.9</ele>
  <time>2026-09-01T19:58:29Z</time>
  <course>48.52</course>
  <speed>25.42</speed>
  <fix>3d</fix>
</trkpt>
<trkpt lat="-27.2687713" lon="151.284375">
  <ele>362.85</ele>
  <time>2026-09-01T19:58:29Z</time>
  <course>51.76</course>
  <speed>25.547792468234903</speed>
  <fix>3d</fix>
</trkpt>
<trkpt lat="-27.2687843" lon="151.2843547">
  <ele>362.82</ele>
  <time>2026-09-01T19:58:29Z</time>
  <course>52.42</course>
  <speed>25.43</speed>
  <fix>3d</fix>
</trkpt>
<trkpt lat="-27.2687582" lon="151.2843963">
  <ele>362.81</ele>
  <time>2026-09-01T19:58:29Z</time>
  <course>53.63</course>
  <speed>25.55503864211518</speed>
  <fix>3d</fix>
</trkpt>
<trkpt lat="-27.2687843" lon="151.2843547">
  <ele>362.82</ele>
  <time>2026-09-01T19:58:29Z</time>
  <course>52.42</course>
  <speed>25.43</speed>
  <fix>3d</fix>
</trkpt>
<trkpt lat="-27.2687457" lon="151.2844181">
  <ele>362.77</ele>
  <time>2026-09-01T19:58:29Z</time>
  <course>55.61</course>
  <speed>25.566262925973362</speed>
  <fix>3d</fix>
</trkpt>
<trkpt lat="-27.2687576" lon="151.2843965">
  <ele>362.75</ele>
  <time>2026-09-01T19:58:29Z</time>
  <course>56.32</course>
  <speed>25.43</speed>
  <fix>3d</fix>
</trkpt>
<trkpt lat="-27.2687339" lon="151.2844402">
  <ele>362.74</ele>
  <time>2026-09-01T19:58:29Z</time>
  <course>57.56</course>
  <speed>25.57352732807893</speed>
  <fix>3d</fix>
</trkpt>
<trkpt lat="-27.2687576" lon="151.2843965">
  <ele>362.75</ele>
  <time>2026-09-01T19:58:29Z</time>
  <course>56.32</course>
  <speed>25.43</speed>
  <fix>3d</fix>
</trkpt>
<trkpt lat="-27.2687229" lon="151.2844627">
  <ele>362.71</ele>
  <time>2026-09-01T19:58:29Z</time>
  <course>59.54</course>
  <speed>25.574223350866397</speed>
  <fix>3d</fix>
</trkpt>
<trkpt lat="-27.2687335" lon="151.2844404">
  <ele>362.69</ele>
  <time>2026-09-01T19:58:29Z</time>
  <course>60.2</course>
  <speed>25.44</speed>
  <fix>3d</fix>
</trkpt>
<trkpt lat="-27.2687125" lon="151.2844856">
  <ele>362.69</ele>
  <time>2026-09-01T19:58:29Z</time>
  <course>61.49</course>
  <speed>25.5730346263403</speed>
  <fix>3d</fix>
</trkpt>
<trkpt lat="-27.2687335" lon="151.2844404">
  <ele>362.69</ele>
  <time>2026-09-01T19:58:29Z</time>
  <course>60.2</course>
  <speed>25.44</speed>
  <fix>3d</fix>
</trkpt>
<trkpt lat="-27.2687028" lon="151.2845089">
  <ele>362.68</ele>
  <time>2026-09-01T19:58:29Z</time>
  <course>63.33</course>
  <speed>25.569491586654593</speed>
  <fix>3d</fix>
</trkpt>
<trkpt lat="-27.2687122" lon="151.2844858">
  <ele>362.64</ele>
  <time>2026-09-01T19:58:29Z</time>
  <course>64.08</course>
  <speed>25.44</speed>
  <fix>3d</fix>
</trkpt>
<trkpt lat="-27.2686939" lon="151.2845324">
  <ele>362.67</ele>
  <time>2026-09-01T19:58:29Z</time>
  <course>65.22</course>
  <speed>25.56700999334885</speed>
  <fix>3d</fix>
</trkpt>
<trkpt lat="-27.2687122" lon="151.2844858">
  <ele>362.64</ele>
  <time>2026-09-01T19:58:29Z</time>
  <course>64.08</course>
  <speed>25.44</speed>
  <fix>3d</fix>
</trkpt>
<trkpt lat="-27.2686856" lon="151.2845563">
  <ele>362.65</ele>
  <time>2026-09-01T19:58:29Z</time>
  <course>67.12</course>
  <speed>25.564428411368795</speed>
  <fix>3d</fix>
</trkpt>
<trkpt lat="-27.2686937" lon="151.2845328">
  <ele>362.59</ele>
  <time>2026-09-01T19:58:29Z</time>
  <course>67.92</course>
  <speed>25.45</speed>
  <fix>3d</fix>
</trkpt>
<trkpt lat="-27.2686781" lon="151.2845805">
  <ele>362.65</ele>
  <time>2026-09-01T19:58:29Z</time>
  <course>69.1</course>
  <speed>25.554375359221755</speed>
  <fix>3d</fix>
</trkpt>
<trkpt lat="-27.2686937" lon="151.2845328">
  <ele>362.59</ele>
  <time>2026-09-01T19:58:29Z</time>
  <course>67.92</course>
  <speed>25.45</speed>
  <fix>3d</fix>
</trkpt>
<trkpt lat="-27.2686712" lon="151.284605">
  <ele>362.64</ele>
  <time>2026-09-01T19:58:29Z</time>
  <course>71.03</course>
  <speed>25.556950131030895</speed>
  <fix>3d</fix>
</trkpt>
<trkpt lat="-27.2686779" lon="151.2845811">
  <ele>362.57</ele>
  <time>2026-09-01T19:58:29Z</time>
  <course>71.72</course>
  <speed>25.45</speed>
  <fix>3d</fix>
</trkpt>
<trkpt lat="-27.2686652" lon="151.2846296">
  <ele>362.63</ele>
  <time>2026-09-01T19:58:29Z</time>
  <course>72.91</course>
  <speed>25.542578178406345</speed>
  <fix>3d</fix>
</trkpt>
<trkpt lat="-27.2686779" lon="151.2845811">
  <ele>362.57</ele>
  <time>2026-09-01T19:58:29Z</time>
  <course>71.72</course>
  <speed>25.45</speed>
  <fix>3d</fix>
</trkpt>
<trkpt lat="-27.2686598" lon="151.2846548">
  <ele>362.62</ele>
  <time>2026-09-01T19:58:29Z</time>
  <course>74.84</course>
  <speed>25.541464327637915</speed>
  <fix>3d</fix>
</trkpt>
<trkpt lat="-27.268665" lon="151.2846304">
  <ele>362.54</ele>
  <time>2026-09-01T19:58:29Z</time>
  <course>75.53</course>
  <speed>25.45</speed>
  <fix>3d</fix>
</trkpt>
<trkpt lat="-27.2686551" lon="151.28468">
  <ele>362.61</ele>
  <time>2026-09-01T19:58:29Z</time>
  <course>76.76</course>
  <speed>25.54735994188049</speed>
  <fix>3d</fix>
</trkpt>
<trkpt lat="-27.268665" lon="151.2846304">
  <ele>362.54</ele>
  <time>2026-09-01T19:58:29Z</time>
  <course>75.53</course>
  <speed>25.45</speed>
  <fix>3d</fix>
</trkpt>
<trkpt lat="-27.2686513" lon="151.2847054">
  <ele>362.6</ele>
  <time>2026-09-01T19:58:29Z</time>
  <course>78.75</course>
  <speed>25.55094127424663</speed>
  <fix>3d</fix>
</trkpt>
<trkpt lat="-27.268655" lon="151.2846806">
  <ele>362.52</ele>
  <time>2026-09-01T19:58:29Z</time>
  <course>79.35</course>
  <speed>25.45</speed>
  <fix>3d</fix>
</trkpt>
<trkpt lat="-27.2686481" lon="151.284731">
  <ele>362.59</ele>
  <time>2026-09-01T19:58:29Z</time>
  <course>80.72</course>
  <speed>25.562607456986857</speed>
  <fix>3d</fix>
</trkpt>
<trkpt lat="-27.268655" lon="151.2846806">
  <ele>362.52</ele>
  <time>2026-09-01T19:58:29Z</time>
  <course>79.35</course>
  <speed>25.45</speed>
  <fix>3d</fix>
</trkpt>
<trkpt lat="-27.2686458" lon="151.2847567">
  <ele>362.59</ele>
  <time>2026-09-01T19:58:29Z</time>
  <course>82.62</course>
  <speed>25.573941815840595</speed>
  <fix>3d</fix>
</trkpt>
<trkpt lat="-27.2686482" lon="151.2847314">
  <ele>362.51</ele>
  <time>2026-09-01T19:58:29Z</time>
  <course>83.23</course>
  <speed>25.46</speed>
  <fix>3d</fix>
</trkpt>
<trkpt lat="-27.2686443" lon="151.2847826">
  <ele>362.58</ele>
  <time>2026-09-01T19:58:29Z</time>
  <course>84.57</course>
  <speed>25.574088449053274</speed>
  <fix>3d</fix>
</trkpt>
<trkpt lat="-27.2686482" lon="151.2847314">
  <ele>362.51</ele>
  <time>2026-09-01T19:58:29Z</time>
  <course>83.23</course>
  <speed>25.46</speed>
  <fix>3d</fix>
</trkpt>
<trkpt lat="-27.2686435" lon="151.2848084">
  <ele>362.58</ele>
  <time>2026-09-01T19:58:29Z</time>
  <course>86.5</course>
  <speed>25.583957864255485</speed>
  <fix>3d</fix>
</trkpt>
<trkpt lat="-27.2686443" lon="151.2847827">
  <ele>362.5</ele>
  <time>2026-09-01T19:58:29Z</time>
  <course>87.13</course>
  <speed>25.47</speed>
  <fix>3d</fix>
</trkpt>
<trkpt lat="-27.2686435" lon="151.2848343">
  <ele>362.58</ele>
  <time>2026-09-01T19:58:29Z</time>
  <course>88.47</course>
  <speed>25.59328427537193</speed>
  <fix>3d</fix>
</trkpt>
<trkpt lat="-27.2686443" lon="151.2847827">
  <ele>362.5</ele>
  <time>2026-09-01T19:58:29Z</time>
  <course>87.13</course>
  <speed>25.47</speed>
  <fix>3d</fix>
</trkpt>
<trkpt lat="-27.2686443" lon="151.2848602">
  <ele>362.58</ele>
  <time>2026-09-01T19:58:29Z</time>
  <course>90.45</course>
  <speed>25.60251940727709</speed>
  <fix>3d</fix>
</trkpt>
<trkpt lat="-27.2686436" lon="151.2848341">
  <ele>362.5</ele>
  <time>2026-09-01T19:58:29Z</time>
  <course>91.05</course>
  <speed>25.47</speed>
  <fix>3d</fix>
</trkpt>
<trkpt lat="-27.2686459" lon="151.284886">
  <ele>362.58</ele>
  <time>2026-09-01T19:58:29Z</time>
  <course>92.4</course>
  <speed>25.60212881773701</speed>
  <fix>3d</fix>
</trkpt>
<trkpt lat="-27.2686436" lon="151.2848341">
  <ele>362.5</ele>
  <time>2026-09-01T19:58:29Z</time>
  <course>91.05</course>
  <speed>25.47</speed>
  <fix>3d</fix>
</trkpt>
<trkpt lat="-27.2686482" lon="151.2849117">
  <ele>362.58</ele>
  <time>2026-09-01T19:58:29Z</time>
  <course>94.36</course>
  <speed>25.60232216030413</speed>
  <fix>3d</fix>
</trkpt>
<trkpt lat="-27.2686461" lon="151.2848855">
  <ele>362.5</ele>
  <time>2026-09-01T19:58:29Z</time>
  <course>94.99</course>
  <speed>25.47</speed>
  <fix>3d</fix>
</trkpt>
<trkpt lat="-27.2686513" lon="151.2849373">
  <ele>362.58</ele>
  <time>2026-09-01T19:58:29Z</time>
  <course>96.32</course>
  <speed>25.601882743267144</speed>
  <fix>3d</fix>
</trkpt>
<trkpt lat="-27.2686461" lon="151.2848855">
  <ele>362.5</ele>
  <time>2026-09-01T19:58:29Z</time>
  <course>94.99</course>
  <speed>25.47</speed>
  <fix>3d</fix>
</trkpt>
<trkpt lat="-27.2686553" lon="151.2849628">
  <ele>362.59</ele>
  <time>2026-09-01T19:58:29Z</time>
  <course>98.34</course>
  <speed>25.602081946591767</speed>
  <fix>3d</fix>
</trkpt>
<trkpt lat="-27.2686516" lon="151.2849367">
  <ele>362.52</ele>
  <time>2026-09-01T19:58:29Z</time>
  <course>98.93</course>
  <speed>25.47</speed>
  <fix>3d</fix>
</trkpt>
<trkpt lat="-27.26866" lon="151.284988">
  <ele>362.6</ele>
  <time>2026-09-01T19:58:29Z</time>
  <course>100.35</course>
  <speed>25.6034470335539</speed>
  <fix>3d</fix>
</trkpt>
<trkpt lat="-27.2686516" lon="151.2849367">
  <ele>362.52</ele>
  <time>2026-09-01T19:58:29Z</time>
  <course>98.93</course>
  <speed>25.47</speed>
  <fix>3d</fix>
</trkpt>
<trkpt lat="-27.2686655" lon="151.2850129">
  <ele>362.62</ele>
  <time>2026-09-01T19:58:29Z</time>
  <course>102.39</course>
  <speed>25.596941223513404</speed>
  <fix>3d</fix>
</trkpt>
<trkpt lat="-27.2686602" lon="151.2849873">
  <ele>362.53</ele>
  <time>2026-09-01T19:58:29Z</time>
  <course>102.9</course>
  <speed>25.47</speed>
  <fix>3d</fix>
</trkpt>
<trkpt lat="-27.2686717" lon="151.2850375">
  <ele>362.63</ele>
  <time>2026-09-01T19:58:29Z</time>
  <course>104.35</course>
  <speed>25.574929129911585</speed>
  <fix>3d</fix>
</trkpt>
<trkpt lat="-27.2686602" lon="151.2849873">
  <ele>362.53</ele>
  <time>2026-09-01T19:58:29Z</time>
  <course>102.9</course>
  <speed>25.47</speed>
  <fix>3d</fix>
</trkpt>
<trkpt lat="-27.2686787" lon="151.2850619">
  <ele>362.65</ele>
  <time>2026-09-01T19:58:29Z</time>
  <course>106.3</course>
  <speed>25.57366809826076</speed>
  <fix>3d</fix>
</trkpt>
<trkpt lat="-27.2686719" lon="151.2850371">
  <ele>362.56</ele>
  <time>2026-09-01T19:58:29Z</time>
  <course>106.88</course>
  <speed>25.47</speed>
  <fix>3d</fix>
</trkpt>
<trkpt lat="-27.2686864" lon="151.285086">
  <ele>362.67</ele>
  <time>2026-09-01T19:58:29Z</time>
  <course>108.28</course>
  <speed>25.561879821327693</speed>
  <fix>3d</fix>
</trkpt>
<trkpt lat="-27.2686719" lon="151.2850371">
  <ele>362.56</ele>
  <time>2026-09-01T19:58:29Z</time>
  <course>106.88</course>
  <speed>25.47</speed>
  <fix>3d</fix>
</trkpt>
<trkpt lat="-27.2686948" lon="151.2851098">
  <ele>362.69</ele>
  <time>2026-09-01T19:58:29Z</time>
  <course>110.27</course>
  <speed>25.554625804343136</speed>
  <fix>3d</fix>
</trkpt>
<trkpt lat="-27.2686867" lon="151.2850858">
  <ele>362.58</ele>
  <time>2026-09-01T19:58:29Z</time>
  <course>110.84</course>
  <speed>25.47</speed>
  <fix>3d</fix>
</trkpt>
<trkpt lat="-27.268704" lon="151.2851331">
  <ele>362.71</ele>
  <time>2026-09-01T19:58:29Z</time>
  <course>112.26</course>
  <speed>25.540941642782087</speed>
  <fix>3d</fix>
</trkpt>
<trkpt lat="-27.2686867" lon="151.2850858">
  <ele>362.58</ele>
  <time>2026-09-01T19:58:29Z</time>
  <course>110.84</course>
  <speed>25.47</speed>
  <fix>3d</fix>
</trkpt>
<trkpt lat="-27.2687138" lon="151.285156">
  <ele>362.73</ele>
  <time>2026-09-01T19:58:29Z</time>
  <course>114.24</course>
  <speed>25.531449234228752</speed>
  <fix>3d</fix>
</trkpt>
<trkpt lat="-27.2687045" lon="151.2851332">
  <ele>362.61</ele>
  <time>2026-09-01T19:58:29Z</time>
  <course>114.8</course>
  <speed>25.47</speed>
  <fix>3d</fix>
</trkpt>
<trkpt lat="-27.2687245" lon="151.2851787">
  <ele>362.75</ele>
  <time>2026-09-01T19:58:29Z</time>
  <course>116.31</course>
  <speed>25.530814714771637</speed>
  <fix>3d</fix>
</trkpt>
<trkpt lat="-27.2687045" lon="151.2851332">
  <ele>362.61</ele>
  <time>2026-09-01T19:58:29Z</time>
  <course>114.8</course>
  <speed>25.47</speed>
  <fix>3d</fix>
</trkpt>
<trkpt lat="-27.2687358" lon="151.2852011">
  <ele>362.77</ele>
  <time>2026-09-01T19:58:29Z</time>
  <course>118.28</course>
  <speed>25.526131708506092</speed>
  <fix>3d</fix>
</trkpt>
<trkpt lat="-27.2687251" lon="151.2851791">
  <ele>362.64</ele>
  <time>2026-09-01T19:58:29Z</time>
  <course>118.8</course>
  <speed>25.46</speed>
  <fix>3d</fix>
</trkpt>
<trkpt lat="-27.2687479" lon="151.285223">
  <ele>362.79</ele>
  <time>2026-09-01T19:58:29Z</time>
  <course>120.28</course>
  <speed>25.52556561567246</speed>
  <fix>3d</fix>
</trkpt>
<trkpt lat="-27.2687251" lon="151.2851791">
  <ele>362.64</ele>
  <time>2026-09-01T19:58:29Z</time>
  <course>118.8</course>
  <speed>25.46</speed>
  <fix>3d</fix>
</trkpt>
<trkpt lat="-27.2687607" lon="151.2852444">
  <ele>362.8</ele>
  <time>2026-09-01T19:58:29Z</time>
  <course>122.26</course>
  <speed>25.5284351263449</speed>
  <fix>3d</fix>
</trkpt>
<trkpt lat="-27.2687486" lon="151.2852233">
  <ele>362.67</ele>
  <time>2026-09-01T19:58:29Z</time>
  <course>122.81</course>
  <speed>25.46</speed>
  <fix>3d</fix>
</trkpt>
<trkpt lat="-27.2687742" lon="151.2852656">
  <ele>362.81</ele>
  <time>2026-09-01T19:58:29Z</time>
  <course>124.23</course>
  <speed>25.532107237750665</speed>
  <fix>3d</fix>
</trkpt>
<trkpt lat="-27.2687486" lon="151.2852233">
  <ele>362.67</ele>
  <time>2026-09-01T19:58:29Z</time>
  <course>122.81</course>
  <speed>25.46</speed>
  <fix>3d</fix>
</trkpt>
<trkpt lat="-27.2687883" lon="151.285286">
  <ele>362.83</ele>
  <time>2026-09-01T19:58:29Z</time>
  <course>126.2</course>
  <speed>25.532851387966833</speed>
  <fix>3d</fix>
</trkpt>
<trkpt lat="-27.2687747" lon="151.2852656">
  <ele>362.7</ele>
  <time>2026-09-01T19:58:29Z</time>
  <course>126.79</course>
  <speed>25.46</speed>
  <fix>3d</fix>
</trkpt>
<trkpt lat="-27.268803" lon="151.2853058">
  <ele>362.83</ele>
  <time>2026-09-01T19:58:29Z</time>
  <course>128.23</course>
  <speed>25.54144083641328</speed>
  <fix>3d</fix>
</trkpt>
<trkpt lat="-27.2687747" lon="151.2852656">
  <ele>362.7</ele>
  <time>2026-09-01T19:58:29Z</time>
  <course>126.79</course>
  <speed>25.46</speed>
  <fix>3d</fix>
</trkpt>
<trkpt lat="-27.2688185" lon="151.2853253">
  <ele>362.85</ele>
  <time>2026-09-01T19:58:29Z</time>
  <course>130.23</course>
  <speed>25.553083962606156</speed>
  <fix>3d</fix>
</trkpt>
<trkpt lat="-27.2688033" lon="151.2853056">
  <ele>362.73</ele>
  <time>2026-09-01T19:58:29Z</time>
  <course>130.8</course>
  <speed>25.46</speed>
  <fix>3d</fix>
</trkpt>
<trkpt lat="-27.2688344" lon="151.2853439">
  <ele>362.86</ele>
  <time>2026-09-01T19:58:29Z</time>
  <course>132.25</course>
  <speed>25.555030815868722</speed>
  <fix>3d</fix>
</trkpt>
<trkpt lat="-27.2688033" lon="151.2853056">
  <ele>362.73</ele>
  <time>2026-09-01T19:58:29Z</time>
  <course>130.8</course>
  <speed>25.46</speed>
  <fix>3d</fix>
</trkpt>
<trkpt lat="-27.2688509" lon="151.2853619">
  <ele>362.87</ele>
  <time>2026-09-01T19:58:29Z</time>
  <course>134.32</course>
  <speed>25.567107775421135</speed>
  <fix>3d</fix>
</trkpt>
<trkpt lat="-27.2688344" lon="151.2853433">
  <ele>362.76</ele>
  <time>2026-09-01T19:58:29Z</time>
  <course>134.82</course>
  <speed>25.46</speed>
  <fix>3d</fix>
</trkpt>
<trkpt lat="-27.268868" lon="151.2853792">
  <ele>362.87</ele>
  <time>2026-09-01T19:58:29Z</time>
  <course>136.34</course>
  <speed>25.568793479552372</speed>
  <fix>3d</fix>
</trkpt>
<trkpt lat="-27.2688344" lon="151.2853433">
  <ele>362.76</ele>
  <time>2026-09-01T19:58:29Z</time>
  <course>134.82</course>
  <speed>25.46</speed>
  <fix>3d</fix>
</trkpt>
<trkpt lat="-27.2688855" lon="151.2853959">
  <ele>362.88</ele>
  <time>2026-09-01T19:58:29Z</time>
  <course>138.37</course>
  <speed>25.572993567433596</speed>
  <fix>3d</fix>
</trkpt>
<trkpt lat="-27.2688679" lon="151.2853786">
  <ele>362.78</ele>
  <time>2026-09-01T19:58:29Z</time>
  <course>138.85</course>
  <speed>25.47</speed>
  <fix>3d</fix>
</trkpt>
<trkpt lat="-27.2689035" lon="151.2854117">
  <ele>362.89</ele>
  <time>2026-09-01T19:58:29Z</time>
  <course>140.4</course>
  <speed>25.56033059254125</speed>
  <fix>3d</fix>
</trkpt>
<trkpt lat="-27.2688679" lon="151.2853786">
  <ele>362.78</ele>
  <time>2026-09-01T19:58:29Z</time>
  <course>138.85</course>
  <speed>25.47</speed>
  <fix>3d</fix>
</trkpt>
<trkpt lat="-27.268922" lon="151.2854268">
  <ele>362.9</ele>
  <time>2026-09-01T19:58:29Z</time>
  <course>142.46</course>
  <speed>25.560088028017432</speed>
  <fix>3d</fix>
</trkpt>
<trkpt lat="-27.2689034" lon="151.2854112">
  <ele>362.81</ele>
  <time>2026-09-01T19:58:29Z</time>
  <course>142.9</course>
  <speed>25.47</speed>
  <fix>3d</fix>
</trkpt>
<trkpt lat="-27.2689408" lon="151.2854411">
  <ele>362.92</ele>
  <time>2026-09-01T19:58:29Z</time>
  <course>144.54</course>
  <speed>25.55115065902121</speed>
  <fix>3d</fix>
</trkpt>
<trkpt lat="-27.2689034" lon="151.2854112">
  <ele>362.81</ele>
  <time>2026-09-01T19:58:29Z</time>
  <course>142.9</course>
  <speed>25.47</speed>
  <fix>3d</fix>
</trkpt>
<trkpt lat="-27.2689602" lon="151.2854547">
  <ele>362.93</ele>
  <time>2026-09-01T19:58:29Z</time>
  <course>146.6</course>
  <speed>25.544715696206136</speed>
  <fix>3d</fix>
</trkpt>
<trkpt lat="-27.2689408" lon="151.2854406">
  <ele>362.83</ele>
  <time>2026-09-01T19:58:29Z</time>
  <course>147.0</course>
  <speed>25.47</speed>
  <fix>3d</fix>
</trkpt>
<trkpt lat="-27.2689798" lon="151.2854674">
  <ele>362.95</ele>
  <time>2026-09-01T19:58:29Z</time>
  <course>148.64</course>
  <speed>25.5303368563754</speed>
  <fix>3d</fix>
</trkpt>
<trkpt lat="-27.2689408" lon="151.2854406">
  <ele>362.83</ele>
  <time>2026-09-01T19:58:29Z</time>
  <course>147.0</course>
  <speed>25.47</speed>
  <fix>3d</fix>
</trkpt>
<trkpt lat="-27.269" lon="151.2854793">
  <ele>362.96</ele>
  <time>2026-09-01T19:58:29Z</time>
  <course>150.72</course>
  <speed>25.522809406489717</speed>
  <fix>3d</fix>
</trkpt>
<trkpt lat="-27.2689801" lon="151.2854671">
  <ele>362.85</ele>
  <time>2026-09-01T19:58:29Z</time>
  <course>151.12</course>
  <speed>25.47</speed>
  <fix>3d</fix>
</trkpt>
<trkpt lat="-27.2690203" lon="151.2854904">
  <ele>362.98</ele>
  <time>2026-09-01T19:58:29Z</time>
  <course>152.83</course>
  <speed>25.50807127165831</speed>
  <fix>3d</fix>
</trkpt>
<trkpt lat="-27.2689801" lon="151.2854671">
  <ele>362.85</ele>
  <time>2026-09-01T19:58:29Z</time>
  <course>151.12</course>
  <speed>25.47</speed>
  <fix>3d</fix>
</trkpt>
<trkpt lat="-27.2690411" lon="151.2855006">
  <ele>362.99</ele>
  <time>2026-09-01T19:58:29Z</time>
  <course>154.81</course>
  <speed>25.493914960241003</speed>
  <fix>3d</fix>
</trkpt>
<trkpt lat="-27.2690209" lon="151.2854903">
  <ele>362.88</ele>
  <time>2026-09-01T19:58:29Z</time>
  <course>155.23</course>
  <speed>25.47</speed>
  <fix>3d</fix>
</trkpt>
<trkpt lat="-27.2690619" lon="151.2855099">
  <ele>363.01</ele>
  <time>2026-09-01T19:58:29Z</time>
  <course>156.85</course>
  <speed>25.483520165000755</speed>
  <fix>3d</fix>
</trkpt>
<trkpt lat="-27.2690209" lon="151.2854903">
  <ele>362.88</ele>
  <time>2026-09-01T19:58:29Z</time>
  <course>155.23</course>
  <speed>25.47</speed>
  <fix>3d</fix>
</trkpt>
<trkpt lat="-27.2690831" lon="151.2855185">
  <ele>363.03</ele>
  <time>2026-09-01T19:58:29Z</time>
  <course>158.97</course>
  <speed>25.472387010250923</speed>
  <fix>3d</fix>
</trkpt>
<trkpt lat="-27.269063" lon="151.2855102">
  <ele>362.9</ele>
  <time>2026-09-01T19:58:29Z</time>
  <course>159.33</course>
  <speed>25.47</speed>
  <fix>3d</fix>
</trkpt>
<trkpt lat="-27.2691048" lon="151.2855262">
  <ele>363.05</ele>
  <time>2026-09-01T19:58:29Z</time>
  <course>161.08</course>
  <speed>25.46002553023072</speed>
  <fix>3d</fix>
</trkpt>
<trkpt lat="-27.269063" lon="151.2855102">
  <ele>362.9</ele>
  <time>2026-09-01T19:58:29Z</time>
  <course>159.33</course>
  <speed>25.47</speed>
  <fix>3d</fix>
</trkpt>
<trkpt lat="-27.2691267" lon="151.2855331">
  <ele>363.06</ele>
  <time>2026-09-01T19:58:29Z</time>
  <course>163.21</course>
  <speed>25.45007858534036</speed>
  <fix>3d</fix>
</trkpt>
<trkpt lat="-27.2691064" lon="151.2855266">
  <ele>362.91</ele>
  <time>2026-09-01T19:58:29Z</time>
  <course>163.46</course>
  <speed>25.46</speed>
  <fix>3d</fix>
</trkpt>
<trkpt lat="-27.269149" lon="151.285539">
  <ele>363.07</ele>
  <time>2026-09-01T19:58:29Z</time>
  <course>165.26</course>
  <speed>25.4503850658492</speed>
  <fix>3d</fix>
</trkpt>
<trkpt lat="-27.2691064" lon="151.2855266">
  <ele>362.91</ele>
  <time>2026-09-01T19:58:29Z</time>
  <course>163.46</course>
  <speed>25.46</speed>
  <fix>3d</fix>
</trkpt>
<trkpt lat="-27.2691714" lon="151.2855441">
  <ele>363.08</ele>
  <time>2026-09-01T19:58:29Z</time>
  <course>167.38</course>
  <speed>25.456303737974217</speed>
  <fix>3d</fix>
</trkpt>
<trkpt lat="-27.2691507" lon="151.2855394">
  <ele>362.94</ele>
  <time>2026-09-01T19:58:29Z</time>
  <course>167.66</course>
  <speed>25.46</speed>
  <fix>3d</fix>
</trkpt>
<trkpt lat="-27.2691939" lon="151.2855482">
  <ele>363.09</ele>
  <time>2026-09-01T19:58:29Z</time>
  <course>169.5</course>
  <speed>25.45584412271571</speed>
  <fix>3d</fix>
</trkpt>
<trkpt lat="-27.2691507" lon="151.2855394">
  <ele>362.94</ele>
  <time>2026-09-01T19:58:29Z</time>
  <course>167.66</course>
  <speed>25.46</speed>
  <fix>3d</fix>
</trkpt>
<trkpt lat="-27.2692166" lon="151.2855514">
  <ele>363.1</ele>
  <time>2026-09-01T19:58:29Z</time>
  <course>171.57</course>
  <speed>25.451493079974696</speed>
  <fix>3d</fix>
</trkpt>
<trkpt lat="-27.2691957" lon="151.2855485">
  <ele>362.96</ele>
  <time>2026-09-01T19:58:29Z</time>
  <course>171.87</course>
  <speed>25.46</speed>
  <fix>3d</fix>
</trkpt>
<trkpt lat="-27.2692394" lon="151.2855536">
  <ele>363.1</ele>
  <time>2026-09-01T19:58:29Z</time>
  <course>173.67</course>
  <speed>25.460214060372707</speed>
  <fix>3d</fix>
</trkpt>
<trkpt lat="-27.2691957" lon="151.2855485">
  <ele>362.96</ele>
  <time>2026-09-01T19:58:29Z</time>
  <course>171.87</course>
  <speed>25.46</speed>
  <fix>3d</fix>
</trkpt>
<trkpt lat="-27.2692622" lon="151.2855549">
  <ele>363.11</ele>
  <time>2026-09-01T19:58:29Z</time>
  <course>175.75</course>
  <speed>25.462886717730967</speed>
  <fix>3d</fix>
</trkpt>
<trkpt lat="-27.2692412" lon="151.2855539">
  <ele>362.97</ele>
  <time>2026-09-01T19:58:29Z</time>
  <course>176.08</course>
  <speed>25.46</speed>
  <fix>3d</fix>
</trkpt>
<trkpt lat="-27.2692851" lon="151.2855553">
  <ele>363.12</ele>
  <time>2026-09-01T19:58:29Z</time>
  <course>177.72</course>
  <speed>25.460159072558834</speed>
  <fix>3d</fix>
</trkpt>
<trkpt lat="-27.2692412" lon="151.2855539">
  <ele>362.97</ele>
  <time>2026-09-01T19:58:29Z</time>
  <course>176.08</course>
  <speed>25.46</speed>
  <fix>3d</fix>
</trkpt>
<trkpt lat="-27.269308" lon="151.2855547">
  <ele>363.12</ele>
  <time>2026-09-01T19:58:29Z</time>
  <course>179.77</course>
  <speed>25.46963878817287</speed>
  <fix>3d</fix>
</trkpt>
<trkpt lat="-27.2692869" lon="151.2855556">
  <ele>362.99</ele>
  <time>2026-09-01T19:58:29Z</time>
  <course>180.23</course>
  <speed>25.46</speed>
  <fix>3d</fix>
</trkpt>
<trkpt lat="-27.2693308" lon="151.2855533">
  <ele>363.12</ele>
  <time>2026-09-01T19:58:29Z</time>
  <course>181.87</course>
  <speed>25.47171176030382</speed>
  <fix>3d</fix>
</trkpt>
<trkpt lat="-27.2692869" lon="151.2855556">
  <ele>362.99</ele>
  <time>2026-09-01T19:58:29Z</time>
  <course>180.23</course>
  <speed>25.46</speed>
  <fix>3d</fix>
</trkpt>
<trkpt lat="-27.2693536" lon="151.285551">
  <ele>363.12</ele>
  <time>2026-09-01T19:58:29Z</time>
  <course>183.97</course>
  <speed>25.46772467261259</speed>
  <fix>3d</fix>
</trkpt>
<trkpt lat="-27.2693327" lon="151.2855536">
  <ele>363.0</ele>
  <time>2026-09-01T19:58:29Z</time>
  <course>184.34</course>
  <speed>25.46</speed>
  <fix>3d</fix>
</trkpt>
<trkpt lat="-27.2693763" lon="151.2855477">
  <ele>363.12</ele>
  <time>2026-09-01T19:58:29Z</time>
  <course>186.05</course>
  <speed>25.469073402854686</speed>
  <fix>3d</fix>
</trkpt>
<trkpt lat="-27.2693327" lon="151.2855536">
  <ele>363.0</ele>
  <time>2026-09-01T19:58:29Z</time>
  <course>184.34</course>
  <speed>25.46</speed>
  <fix>3d</fix>
</trkpt>
<trkpt lat="-27.2693991" lon="151.2855435">
  <ele>363.12</ele>
  <time>2026-09-01T19:58:29Z</time>
  <course>188.16</course>
  <speed>25.471758871346125</speed>
  <fix>3d</fix>
</trkpt>
<trkpt lat="-27.2693783" lon="151.2855478">
  <ele>363.0</ele>
  <time>2026-09-01T19:58:29Z</time>
  <course>188.51</course>
  <speed>25.46</speed>
  <fix>3d</fix>
</trkpt>
<trkpt lat="-27.2694215" lon="151.2855383">
  <ele>363.11</ele>
  <time>2026-09-01T19:58:29Z</time>
  <course>190.31</course>
  <speed>25.480731936112036</speed>
  <fix>3d</fix>
</trkpt>
<trkpt lat="-27.2693783" lon="151.2855478">
  <ele>363.0</ele>
  <time>2026-09-01T19:58:29Z</time>
  <course>188.51</course>
  <speed>25.46</speed>
  <fix>3d</fix>
</trkpt>
<trkpt lat="-27.2694438" lon="151.2855322">
  <ele>363.11</ele>
  <time>2026-09-01T19:58:29Z</time>
  <course>192.43</course>
  <speed>25.485480179898513</speed>
  <fix>3d</fix>
</trkpt>
<trkpt lat="-27.2694232" lon="151.2855383">
  <ele>363.0</ele>
  <time>2026-09-01T19:58:29Z</time>
  <course>192.71</course>
  <speed>25.46</speed>
  <fix>3d</fix>
</trkpt>
<trkpt lat="-27.2694659" lon="151.2855252">
  <ele>363.11</ele>
  <time>2026-09-01T19:58:29Z</time>
  <course>194.52</course>
  <speed>25.49369529903423</speed>
  <fix>3d</fix>
</trkpt>
<trkpt lat="-27.2694232" lon="151.2855383">
  <ele>363.0</ele>
  <time>2026-09-01T19:58:29Z</time>
  <course>192.71</course>
  <speed>25.46</speed>
  <fix>3d</fix>
</trkpt>
<trkpt lat="-27.2694877" lon="151.2855173">
  <ele>363.1</ele>
  <time>2026-09-01T19:58:29Z</time>
  <course>196.64</course>
  <speed>25.49247143766175</speed>
  <fix>3d</fix>
</trkpt>
<trkpt lat="-27.2694674" lon="151.2855252">
  <ele>363.0</ele>
  <time>2026-09-01T19:58:29Z</time>
  <course>196.93</course>
  <speed>25.46</speed>
  <fix>3d</fix>
</trkpt>
<trkpt lat="-27.2695093" lon="151.2855085">
  <ele>363.1</ele>
  <time>2026-09-01T19:58:29Z</time>
  <course>198.75</course>
  <speed>25.49761557479444</speed>
  <fix>3d</fix>
</trkpt>
<trkpt lat="-27.2694674" lon="151.2855252">
  <ele>363.0</ele>
  <time>2026-09-01T19:58:29Z</time>
  <course>196.93</course>
  <speed>25.46</speed>
  <fix>3d</fix>
</trkpt>
<trkpt lat="-27.2695303" lon="151.2854988">
  <ele>363.11</ele>
  <time>2026-09-01T19:58:29Z</time>
  <course>200.76</course>
  <speed>25.503648758560022</speed>
  <fix>3d</fix>
</trkpt>
<trkpt lat="-27.2695106" lon="151.2855083">
  <ele>363.01</ele>
  <time>2026-09-01T19:58:29Z</time>
  <course>201.15</course>
  <speed>25.46</speed>
  <fix>3d</fix>
</trkpt>
<trkpt lat="-27.2695513" lon="151.2854883">
  <ele>363.11</ele>
  <time>2026-09-01T19:58:29Z</time>
  <course>202.81</course>
  <speed>25.51111522454477</speed>
  <fix>3d</fix>
</trkpt>
<trkpt lat="-27.2695106" lon="151.2855083">
  <ele>363.01</ele>
  <time>2026-09-01T19:58:29Z</time>
  <course>201.15</course>
  <speed>25.46</speed>
  <fix>3d</fix>
</trkpt>
<trkpt lat="-27.2695718" lon="151.2854769">
  <ele>363.11</ele>
  <time>2026-09-01T19:58:29Z</time>
  <course>204.93</course>
  <speed>25.50685594109944</speed>
  <fix>3d</fix>
</trkpt>
<trkpt lat="-27.2695526" lon="151.285488">
  <ele>363.01</ele>
  <time>2026-09-01T19:58:29Z</time>
  <course>205.32</course>
  <speed>25.46</speed>
  <fix>3d</fix>
</trkpt>
<trkpt lat="-27.269592" lon="151.2854647">
  <ele>363.11</ele>
  <time>2026-09-01T19:58:29Z</time>
  <course>207.02</course>
  <speed>25.509396308027362</speed>
  <fix>3d</fix>
</trkpt>
<trkpt lat="-27.2695526" lon="151.285488">
  <ele>363.01</ele>
  <time>2026-09-01T19:58:29Z</time>
  <course>205.32</course>
  <speed>25.46</speed>
  <fix>3d</fix>
</trkpt>
<trkpt lat="-27.269612" lon="151.2854515">
  <ele>363.11</ele>
  <time>2026-09-01T19:58:29Z</time>
  <course>209.22</course>
  <speed>25.511763953125623</speed>
  <fix>3d</fix>
</trkpt>
<trkpt lat="-27.2695932" lon="151.2854644">
  <ele>363.02</ele>
  <time>2026-09-01T19:58:29Z</time>
  <course>209.48</course>
  <speed>25.46</speed>
  <fix>3d</fix>
</trkpt>
<trkpt lat="-27.2696313" lon="151.2854377">
  <ele>363.11</ele>
  <time>2026-09-01T19:58:30Z</time>
  <course>211.39</course>
  <speed>25.518983130211126</speed>
  <fix>3d</fix>
</trkpt>
<trkpt lat="-27.2695932" lon="151.2854644">
  <ele>363.02</ele>
  <time>2026-09-01T19:58:30Z</time>
  <course>209.48</course>
  <speed>25.46</speed>
  <fix>3d</fix>
</trkpt>
<trkpt lat="-27.2696501" lon="151.285423">
  <ele>363.11</ele>
  <time>2026-09-01T19:58:30Z</time>
  <course>213.58</course>
  <speed>25.51793291001448</speed>
  <fix>3d</fix>
</trkpt>
<trkpt lat="-27.2696321" lon="151.2854375">
  <ele>363.01</ele>
  <time>2026-09-01T19:58:30Z</time>
  <course>213.74</course>
  <speed>25.46</speed>
  <fix>3d</fix>
</trkpt>
<trkpt lat="-27.2696683" lon="151.2854076">
  <ele>363.11</ele>
  <time>2026-09-01T19:58:30Z</time>
  <course>215.68</course>
  <speed>25.51721771667123</speed>
  <fix>3d</fix>
</trkpt>
<trkpt lat="-27.2696321" lon="151.2854375">
  <ele>363.01</ele>
  <time>2026-09-01T19:58:30Z</time>
  <course>213.74</course>
  <speed>25.46</speed>
  <fix>3d</fix>
</trkpt>
<trkpt lat="-27.2696861" lon="151.2853914">
  <ele>363.12</ele>
  <time>2026-09-01T19:58:30Z</time>
  <course>217.8</course>
  <speed>25.511810990206087</speed>
  <fix>3d</fix>
</trkpt>
<trkpt lat="-27.2696692" lon="151.2854072">
  <ele>363.01</ele>
  <time>2026-09-01T19:58:30Z</time>
  <course>218.06</course>
  <speed>25.46</speed>
  <fix>3d</fix>
</trkpt>
<trkpt lat="-27.2697033" lon="151.2853745">
  <ele>363.13</ele>
  <time>2026-09-01T19:58:30Z</time>
  <course>219.9</course>
  <speed>25.512463620748193</speed>
  <fix>3d</fix>
</trkpt>
<trkpt lat="-27.2696692" lon="151.2854072">
  <ele>363.01</ele>
  <time>2026-09-01T19:58:30Z</time>
  <course>218.06</course>
  <speed>25.46</speed>
  <fix>3d</fix>
</trkpt>
<trkpt lat="-27.26972" lon="151.2853568">
  <ele>363.13</ele>
  <time>2026-09-01T19:58:30Z</time>
  <course>222.0</course>
  <speed>25.50668343787565</speed>
  <fix>3d</fix>
</trkpt>
<trkpt lat="-27.2697041" lon="151.285374">
  <ele>363.02</ele>
  <time>2026-09-01T19:58:30Z</time>
  <course>222.35</course>
  <speed>25.46</speed>
  <fix>3d</fix>
</trkpt>
<trkpt lat="-27.269736" lon="151.2853384">
  <ele>363.14</ele>
  <time>2026-09-01T19:58:30Z</time>
  <course>223.85</course>
  <speed>25.514562508496986</speed>
  <fix>3d</fix>
</trkpt>
<trkpt lat="-27.2697041" lon="151.285374">
  <ele>363.02</ele>
  <time>2026-09-01T19:58:30Z</time>
  <course>222.35</course>
  <speed>25.46</speed>
  <fix>3d</fix>
</trkpt>
<trkpt lat="-27.2697515" lon="151.2853194">
  <ele>363.14</ele>
  <time>2026-09-01T19:58:30Z</time>
  <course>225.29</course>
  <speed>25.505074004989673</speed>
  <fix>3d</fix>
</trkpt>
<trkpt lat="-27.2697367" lon="151.2853379">
  <ele>363.03</ele>
  <time>2026-09-01T19:58:30Z</time>
  <course>226.57</course>
  <speed>25.46</speed>
  <fix>3d</fix>
</trkpt>
<trkpt lat="-27.2697664" lon="151.2852998">
  <ele>363.16</ele>
  <time>2026-09-01T19:58:30Z</time>
  <course>226.03</course>
  <speed>25.47807292555699</speed>
  <fix>3d</fix>
</trkpt>
<trkpt lat="-27.2697367" lon="151.2853379">
  <ele>363.03</ele>
  <time>2026-09-01T19:58:30Z</time>
  <course>226.57</course>
  <speed>25.46</speed>
  <fix>3d</fix>
</trkpt>
<trkpt lat="-27.2697809" lon="151.2852799">
  <ele>363.19</ele>
  <time>2026-09-01T19:58:30Z</time>
  <course>226.02</course>
  <speed>25.42040322260841</speed>
  <fix>3d</fix>
</trkpt>
<trkpt lat="-27.2697672" lon="151.2852993">
  <ele>363.06</ele>
  <time>2026-09-01T19:58:30Z</time>
  <course>230.08</course>
  <speed>25.41</speed>
  <fix>3d</fix>
</trkpt>
<trkpt lat="-27.2697951" lon="151.2852598">
  <ele>363.25</ele>
  <time>2026-09-01T19:58:30Z</time>
  <course>225.99</course>
  <speed>25.326969814804137</speed>
  <fix>3d</fix>
</trkpt>
<trkpt lat="-27.2697672" lon="151.2852993">
  <ele>363.06</ele>
  <time>2026-09-01T19:58:30Z</time>
  <course>230.08</course>
  <speed>25.41</speed>
  <fix>3d</fix>
</trkpt>
<trkpt lat="-27.2698093" lon="151.2852398">
  <ele>363.31</ele>
  <time>2026-09-01T19:58:30Z</time>
  <course>226.63</course>
  <speed>25.220598724058874</speed>
  <fix>3d</fix>
</trkpt>
<trkpt lat="-27.2697958" lon="151.2852595">
  <ele>363.14</ele>
  <time>2026-09-01T19:58:30Z</time>
  <course>231.47</course>
  <speed>25.28</speed>
  <fix>3d</fix>
</trkpt>
<trkpt lat="-27.2698236" lon="151.2852201">
  <ele>363.33</ele>
  <time>2026-09-01T19:58:30Z</time>
  <course>227.99</course>
  <speed>25.124977611930326</speed>
  <fix>3d</fix>
</trkpt>
<trkpt lat="-27.2697958" lon="151.2852595">
  <ele>363.14</ele>
  <time>2026-09-01T19:58:30Z</time>
  <course>231.47</course>
  <speed>25.28</speed>
  <fix>3d</fix>
</trkpt>
<trkpt lat="-27.2698381" lon="151.2852006">
  <ele>363.31</ele>
  <time>2026-09-01T19:58:30Z</time>
  <course>229.23</course>
  <speed>25.064375116886517</speed>
  <fix>3d</fix>
</trkpt>
<trkpt lat="-27.2698241" lon="151.2852198">
  <ele>363.2</ele>
  <time>2026-09-01T19:58:30Z</time>
  <course>230.68</course>
  <speed>25.1</speed>
  <fix>3d</fix>
</trkpt>
<trkpt lat="-27.2698529" lon="151.2851815">
  <ele>363.23</ele>
  <time>2026-09-01T19:58:30Z</time>
  <course>229.53</course>
  <speed>25.02429619389924</speed>
  <fix>3d</fix>
</trkpt>
<trkpt lat="-27.2698241" lon="151.2852198">
  <ele>363.2</ele>
  <time>2026-09-01T19:58:30Z</time>
  <course>230.68</course>
  <speed>25.1</speed>
  <fix>3d</fix>
</trkpt>
<trkpt lat="-27.2698679" lon="151.2851627">
  <ele>363.12</ele>
  <time>2026-09-01T19:58:30Z</time>
  <course>228.69</course>
  <speed>25.012862691023592</speed>
  <fix>3d</fix>
</trkpt>
<trkpt lat="-27.2698532" lon="151.2851812">
  <ele>363.12</ele>
  <time>2026-09-01T19:58:30Z</time>
  <course>228.66</course>
  <speed>24.99</speed>
  <fix>3d</fix>
</trkpt>
<trkpt lat="-27.2698835" lon="151.2851445">
  <ele>363.01</ele>
  <time>2026-09-01T19:58:30Z</time>
  <course>227.04</course>
  <speed>25.024629867392647</speed>
  <fix>3d</fix>
</trkpt>
<trkpt lat="-27.2698532" lon="151.2851812">
  <ele>363.12</ele>
  <time>2026-09-01T19:58:30Z</time>
  <course>228.66</course>
  <speed>24.99</speed>
  <fix>3d</fix>
</trkpt>
<trkpt lat="-27.2698997" lon="151.2851268">
  <ele>362.89</ele>
  <time>2026-09-01T19:58:30Z</time>
  <course>224.93</course>
  <speed>25.075198902501253</speed>
  <fix>3d</fix>
</trkpt>
<trkpt lat="-27.2698837" lon="151.2851443">
  <ele>362.91</ele>
  <time>2026-09-01T19:58:30Z</time>
  <course>225.35</course>
  <speed>24.98</speed>
  <fix>3d</fix>
</trkpt>
<trkpt lat="-27.2699165" lon="151.2851099">
  <ele>362.78</ele>
  <time>2026-09-01T19:58:30Z</time>
  <course>222.57</course>
  <speed>25.12277253807788</speed>
  <fix>3d</fix>
</trkpt>
<trkpt lat="-27.2698837" lon="151.2851443">
  <ele>362.91</ele>
  <time>2026-09-01T19:58:30Z</time>
  <course>225.35</course>
  <speed>24.98</speed>
  <fix>3d</fix>
</trkpt>
<trkpt lat="-27.2699339" lon="151.2850937">
  <ele>362.69</ele>
  <time>2026-09-01T19:58:30Z</time>
  <course>220.09</course>
  <speed>25.17081246205613</speed>
  <fix>3d</fix>
</trkpt>
<trkpt lat="-27.2699165" lon="151.2851097">
  <ele>362.7</ele>
  <time>2026-09-01T19:58:30Z</time>
  <course>220.99</course>
  <speed>25.05</speed>
  <fix>3d</fix>
</trkpt>
<trkpt lat="-27.2699521" lon="151.2850781">
  <ele>362.61</ele>
  <time>2026-09-01T19:58:30Z</time>
  <course>217.63</course>
  <speed>25.22080292139804</speed>
  <fix>3d</fix>
</trkpt>
<trkpt lat="-27.2699165" lon="151.2851097">
  <ele>362.7</ele>
  <time>2026-09-01T19:58:30Z</time>
  <course>220.99</course>
  <speed>25.05</speed>
  <fix>3d</fix>
</trkpt>
<trkpt lat="-27.2699707" lon="151.2850635">
  <ele>362.55</ele>
  <time>2026-09-01T19:58:30Z</time>
  <course>215.18</course>
  <speed>25.261047088353248</speed>
  <fix>3d</fix>
</trkpt>
<trkpt lat="-27.2699517" lon="151.285078">
  <ele>362.53</ele>
  <time>2026-09-01T19:58:30Z</time>
  <course>216.34</course>
  <speed>25.15</speed>
  <fix>3d</fix>
</trkpt>
<trkpt lat="-27.2699898" lon="151.2850497">
  <ele>362.5</ele>
  <time>2026-09-01T19:58:30Z</time>
  <course>212.68</course>
  <speed>25.305076565780237</speed>
  <fix>3d</fix>
</trkpt>
<trkpt lat="-27.2699517" lon="151.285078">
  <ele>362.53</ele>
  <time>2026-09-01T19:58:30Z</time>
  <course>216.34</course>
  <speed>25.15</speed>
  <fix>3d</fix>
</trkpt>
<trkpt lat="-27.2700095" lon="151.2850369">
  <ele>362.46</ele>
  <time>2026-09-01T19:58:30Z</time>
  <course>210.12</course>
  <speed>25.344983724595284</speed>
  <fix>3d</fix>
</trkpt>
<trkpt lat="-27.2699892" lon="151.2850495">
  <ele>362.42</ele>
  <time>2026-09-01T19:58:30Z</time>
  <course>211.55</course>
  <speed>25.24</speed>
  <fix>3d</fix>
</trkpt>
<trkpt lat="-27.2700297" lon="151.285025">
  <ele>362.44</ele>
  <time>2026-09-01T19:58:30Z</time>
  <course>207.54</course>
  <speed>25.39338693439692</speed>
  <fix>3d</fix>
</trkpt>
<trkpt lat="-27.2699892" lon="151.2850495">
  <ele>362.42</ele>
  <time>2026-09-01T19:58:30Z</time>
  <course>211.55</course>
  <speed>25.24</speed>
  <fix>3d</fix>
</trkpt>
<trkpt lat="-27.2700504" lon="151.2850142">
  <ele>362.42</ele>
  <time>2026-09-01T19:58:30Z</time>
  <course>204.72</course>
  <speed>25.444736194348724</speed>
  <fix>3d</fix>
</trkpt>
<trkpt lat="-27.2700289" lon="151.2850247">
  <ele>362.36</ele>
  <time>2026-09-01T19:58:30Z</time>
  <course>206.41</course>
  <speed>25.34</speed>
  <fix>3d</fix>
</trkpt>
<trkpt lat="-27.2700716" lon="151.2850045">
  <ele>362.41</ele>
  <time>2026-09-01T19:58:30Z</time>
  <course>201.71</course>
  <speed>25.491582924565513</speed>
  <fix>3d</fix>
</trkpt>
<trkpt lat="-27.2700289" lon="151.2850247">
  <ele>362.36</ele>
  <time>2026-09-01T19:58:30Z</time>
  <course>206.41</course>
  <speed>25.34</speed>
  <fix>3d</fix>
</trkpt>
<trkpt lat="-27.2700932" lon="151.2849961">
  <ele>362.42</ele>
  <time>2026-09-01T19:58:30Z</time>
  <course>198.69</course>
  <speed>25.542501835176598</speed>
  <fix>3d</fix>
</trkpt>
<trkpt lat="-27.2700708" lon="151.2850042">
  <ele>362.34</ele>
  <time>2026-09-01T19:58:30Z</time>
  <course>200.71</course>
  <speed>25.44</speed>
  <fix>3d</fix>
</trkpt>
<trkpt lat="-27.2701153" lon="151.2849889">
  <ele>362.44</ele>
  <time>2026-09-01T19:58:30Z</time>
  <course>195.63</course>
  <speed>25.587881897492025</speed>
  <fix>3d</fix>
</trkpt>
<trkpt lat="-27.2700708" lon="151.2850042">
  <ele>362.34</ele>
  <time>2026-09-01T19:58:30Z</time>
  <course>200.71</course>
  <speed>25.44</speed>
  <fix>3d</fix>
</trkpt>
<trkpt lat="-27.2701377" lon="151.2849832">
  <ele>362.48</ele>
  <time>2026-09-01T19:58:30Z</time>
  <course>192.46</course>
  <speed>25.638309226624127</speed>
  <fix>3d</fix>
</trkpt>
<trkpt lat="-27.2701145" lon="151.2849885">
  <ele>362.37</ele>
  <time>2026-09-01T19:58:30Z</time>
  <course>194.6</course>
  <speed>25.54</speed>
  <fix>3d</fix>
</trkpt>
<trkpt lat="-27.2701603" lon="151.2849788">
  <ele>362.54</ele>
  <time>2026-09-01T19:58:30Z</time>
  <course>189.44</course>
  <speed>25.66656385260793</speed>
  <fix>3d</fix>
</trkpt>
<trkpt lat="-27.2701145" lon="151.2849885">
  <ele>362.37</ele>
  <time>2026-09-01T19:58:30Z</time>
  <course>194.6</course>
  <speed>25.54</speed>
  <fix>3d</fix>
</trkpt>
<trkpt lat="-27.2701831" lon="151.2849757">
  <ele>362.6</ele>
  <time>2026-09-01T19:58:30Z</time>
  <course>186.47</course>
  <speed>25.69048461979649</speed>
  <fix>3d</fix>
</trkpt>
<trkpt lat="-27.2701595" lon="151.2849782">
  <ele>362.46</ele>
  <time>2026-09-01T19:58:30Z</time>
  <course>188.41</course>
  <speed>25.64</speed>
  <fix>3d</fix>
</trkpt>
<trkpt lat="-27.2702059" lon="151.284974">
  <ele>362.69</ele>
  <time>2026-09-01T19:58:30Z</time>
  <course>183.58</course>
  <speed>25.697198290864318</speed>
  <fix>3d</fix>
</trkpt>
<trkpt lat="-27.2701595" lon="151.2849782">
  <ele>362.46</ele>
  <time>2026-09-01T19:58:30Z</time>
  <course>188.41</course>
  <speed>25.64</speed>
  <fix>3d</fix>
</trkpt>
<trkpt lat="-27.2702288" lon="151.2849737">
  <ele>362.78</ele>
  <time>2026-09-01T19:58:30Z</time>
  <course>180.8</course>
  <speed>25.692119414326253</speed>
  <fix>3d</fix>
</trkpt>
<trkpt lat="-27.2702054" lon="151.2849734">
  <ele>362.61</ele>
  <time>2026-09-01T19:58:30Z</time>
  <course>182.41</course>
  <speed>25.7</speed>
  <fix>3d</fix>
</trkpt>
<trkpt lat="-27.2702516" lon="151.2849744">
  <ele>362.89</ele>
  <time>2026-09-01T19:58:30Z</time>
  <course>178.11</course>
  <speed>25.678041202552812</speed>
  <fix>3d</fix>
</trkpt>
<trkpt lat="-27.2702054" lon="151.2849734">
  <ele>362.61</ele>
  <time>2026-09-01T19:58:30Z</time>
  <course>182.41</course>
  <speed>25.7</speed>
  <fix>3d</fix>
</trkpt>
<trkpt lat="-27.2702743" lon="151.2849765">
  <ele>363.0</ele>
  <time>2026-09-01T19:58:30Z</time>
  <course>175.45</course>
  <speed>25.648929802235415</speed>
  <fix>3d</fix>
</trkpt>
<trkpt lat="-27.2702516" lon="151.2849737">
  <ele>362.81</ele>
  <time>2026-09-01T19:58:30Z</time>
  <course>176.75</course>
  <speed>25.72</speed>
  <fix>3d</fix>
</trkpt>
<trkpt lat="-27.2702968" lon="151.2849797">
  <ele>363.11</ele>
  <time>2026-09-01T19:58:30Z</time>
  <course>172.97</course>
  <speed>25.618594809239635</speed>
  <fix>3d</fix>
</trkpt>
<trkpt lat="-27.2702516" lon="151.2849737">
  <ele>362.81</ele>
  <time>2026-09-01T19:58:30Z</time>
  <course>176.75</course>
  <speed>25.72</speed>
  <fix>3d</fix>
</trkpt>
<trkpt lat="-27.2703192" lon="151.2849841">
  <ele>363.23</ele>
  <time>2026-09-01T19:58:30Z</time>
  <course>170.58</course>
  <speed>25.591211382035045</speed>
  <fix>3d</fix>
</trkpt>
<trkpt lat="-27.2702975" lon="151.284979">
  <ele>363.03</ele>
  <time>2026-09-01T19:58:30Z</time>
  <course>171.48</course>
  <speed>25.71</speed>
  <fix>3d</fix>
</trkpt>
<trkpt lat="-27.2703414" lon="151.2849894">
  <ele>363.34</ele>
  <time>2026-09-01T19:58:30Z</time>
  <course>168.24</course>
  <speed>25.56142601655862</speed>
  <fix>3d</fix>
</trkpt>
<trkpt lat="-27.2702975" lon="151.284979">
  <ele>363.03</ele>
  <time>2026-09-01T19:58:30Z</time>
  <course>171.48</course>
  <speed>25.71</speed>
  <fix>3d</fix>
</trkpt>
<trkpt lat="-27.2703633" lon="151.2849959">
  <ele>363.46</ele>
  <time>2026-09-01T19:58:30Z</time>
  <course>166.02</course>
  <speed>25.52984919657772</speed>
  <fix>3d</fix>
</trkpt>
<trkpt lat="-27.2703428" lon="151.284989">
  <ele>363.26</ele>
  <time>2026-09-01T19:58:30Z</time>
  <course>166.54</course>
  <speed>25.69</speed>
  <fix>3d</fix>
</trkpt>
<trkpt lat="-27.270385" lon="151.2850032">
  <ele>363.57</ele>
  <time>2026-09-01T19:58:30Z</time>
  <course>163.89</course>
  <speed>25.491263209186005</speed>
  <fix>3d</fix>
</trkpt>
<trkpt lat="-27.2703428" lon="151.284989">
  <ele>363.26</ele>
  <time>2026-09-01T19:58:30Z</time>
  <course>166.54</course>
  <speed>25.69</speed>
  <fix>3d</fix>
</trkpt>
<trkpt lat="-27.2704063" lon="151.2850115">
  <ele>363.68</ele>
  <time>2026-09-01T19:58:30Z</time>
  <course>161.87</course>
  <speed>25.44494448805106</speed>
  <fix>3d</fix>
</trkpt>
<trkpt lat="-27.2703872" lon="151.2850031">
  <ele>363.48</ele>
  <time>2026-09-01T19:58:30Z</time>
  <course>161.96</course>
  <speed>25.65</speed>
  <fix>3d</fix>
</trkpt>
<trkpt lat="-27.2704276" lon="151.2850207">
  <ele>363.77</ele>
  <time>2026-09-01T19:58:30Z</time>
  <course>160.01</course>
  <speed>25.40038582384134</speed>
  <fix>3d</fix>
</trkpt>
<trkpt lat="-27.2703872" lon="151.2850031">
  <ele>363.48</ele>
  <time>2026-09-01T19:58:30Z</time>
  <course>161.96</course>
  <speed>25.65</speed>
  <fix>3d</fix>
</trkpt>
<trkpt lat="-27.2704485" lon="151.2850307">
  <ele>363.87</ele>
  <time>2026-09-01T19:58:30Z</time>
  <course>158.24</course>
  <speed>25.35737565285493</speed>
  <fix>3d</fix>
</trkpt>
<trkpt lat="-27.2704304" lon="151.2850209">
  <ele>363.68</ele>
  <time>2026-09-01T19:58:30Z</time>
  <course>157.84</course>
  <speed>25.59</speed>
  <fix>3d</fix>
</trkpt>
<trkpt lat="-27.2704696" lon="151.2850416">
  <ele>363.95</ele>
  <time>2026-09-01T19:58:30Z</time>
  <course>156.63</course>
  <speed>25.309591067419483</speed>
  <fix>3d</fix>
</trkpt>
<trkpt lat="-27.2704304" lon="151.2850209">
  <ele>363.68</ele>
  <time>2026-09-01T19:58:30Z</time>
  <course>157.84</course>
  <speed>25.59</speed>
  <fix>3d</fix>
</trkpt>
<trkpt lat="-27.27049" lon="151.285053">
  <ele>364.02</ele>
  <time>2026-09-01T19:58:30Z</time>
  <course>155.15</course>
  <speed>25.26155181298251</speed>
  <fix>3d</fix>
</trkpt>
<trkpt lat="-27.2704723" lon="151.2850419">
  <ele>363.84</ele>
  <time>2026-09-01T19:58:30Z</time>
  <course>154.25</course>
  <speed>25.5</speed>
  <fix>3d</fix>
</trkpt>
<trkpt lat="-27.2705101" lon="151.2850649">
  <ele>364.08</ele>
  <time>2026-09-01T19:58:30Z</time>
  <course>153.72</course>
  <speed>25.20788170394331</speed>
  <fix>3d</fix>
</trkpt>
<trkpt lat="-27.2704723" lon="151.2850419">
  <ele>363.84</ele>
  <time>2026-09-01T19:58:30Z</time>
  <course>154.25</course>
  <speed>25.5</speed>
  <fix>3d</fix>
</trkpt>
<trkpt lat="-27.2705298" lon="151.2850773">
  <ele>364.11</ele>
  <time>2026-09-01T19:58:30Z</time>
  <course>152.32</course>
  <speed>25.159000377598474</speed>
  <fix>3d</fix>
</trkpt>
<trkpt lat="-27.2705129" lon="151.2850655">
  <ele>363.96</ele>
  <time>2026-09-01T19:58:30Z</time>
  <course>151.17</course>
  <speed>25.4</speed>
  <fix>3d</fix>
</trkpt>
<trkpt lat="-27.2705492" lon="151.2850903">
  <ele>364.13</ele>
  <time>2026-09-01T19:58:30Z</time>
  <course>150.94</course>
  <speed>25.1036192609751</speed>
  <fix>3d</fix>
</trkpt>
<trkpt lat="-27.2705129" lon="151.2850655">
  <ele>363.96</ele>
  <time>2026-09-01T19:58:30Z</time>
  <course>151.17</course>
  <speed>25.4</speed>
  <fix>3d</fix>
</trkpt>
<trkpt lat="-27.2705683" lon="151.2851037">
  <ele>364.13</ele>
  <time>2026-09-01T19:58:30Z</time>
  <course>149.68</course>
  <speed>25.05873101336139</speed>
  <fix>3d</fix>
</trkpt>
<trkpt lat="-27.2705523" lon="151.2850913">
  <ele>364.0</ele>
  <time>2026-09-01T19:58:30Z</time>
  <course>148.45</course>
  <speed>25.29</speed>
  <fix>3d</fix>
</trkpt>
<trkpt lat="-27.2705872" lon="151.2851175">
  <ele>364.11</ele>
  <time>2026-09-01T19:58:30Z</time>
  <course>148.5</course>
  <speed>25.01175723534834</speed>
  <fix>3d</fix>
</trkpt>
<trkpt lat="-27.2705523" lon="151.2850913">
  <ele>364.0</ele>
  <time>2026-09-01T19:58:30Z</time>
  <course>148.45</course>
  <speed>25.29</speed>
  <fix>3d</fix>
</trkpt>
<trkpt lat="-27.2706057" lon="151.2851317">
  <ele>364.07</ele>
  <time>2026-09-01T19:58:30Z</time>
  <course>147.31</course>
  <speed>24.9612699997416</speed>
  <fix>3d</fix>
</trkpt>
<trkpt lat="-27.2705905" lon="151.285119">
  <ele>363.98</ele>
  <time>2026-09-01T19:58:30Z</time>
  <course>145.98</course>
  <speed>25.19</speed>
  <fix>3d</fix>
</trkpt>
<trkpt lat="-27.270624" lon="151.2851464">
  <ele>364.02</ele>
  <time>2026-09-01T19:58:30Z</time>
  <course>146.17</course>
  <speed>24.925440818569285</speed>
  <fix>3d</fix>
</trkpt>
<trkpt lat="-27.2705905" lon="151.285119">
  <ele>363.98</ele>
  <time>2026-09-01T19:58:30Z</time>
  <course>145.98</course>
  <speed>25.19</speed>
  <fix>3d</fix>
</trkpt>
<trkpt lat="-27.270642" lon="151.2851614">
  <ele>363.95</ele>
  <time>2026-09-01T19:58:30Z</time>
  <course>144.97</course>
  <speed>24.886787659318347</speed>
  <fix>3d</fix>
</trkpt>
<trkpt lat="-27.2706274" lon="151.2851483">
  <ele>363.88</ele>
  <time>2026-09-01T19:58:30Z</time>
  <course>143.7</course>
  <speed>25.1</speed>
  <fix>3d</fix>
</trkpt>
<trkpt lat="-27.2706598" lon="151.2851768">
  <ele>363.86</ele>
  <time>2026-09-01T19:58:30Z</time>
  <course>143.84</course>
  <speed>24.864707921067563</speed>
  <fix>3d</fix>
</trkpt>
<trkpt lat="-27.2706274" lon="151.2851483">
  <ele>363.88</ele>
  <time>2026-09-01T19:58:30Z</time>
  <course>143.7</course>
  <speed>25.1</speed>
  <fix>3d</fix>
</trkpt>
<trkpt lat="-27.2706774" lon="151.2851927">
  <ele>363.76</ele>
  <time>2026-09-01T19:58:30Z</time>
  <course>142.76</course>
  <speed>24.83845808418872</speed>
  <fix>3d</fix>
</trkpt>
<trkpt lat="-27.2706632" lon="151.2851791">
  <ele>363.73</ele>
  <time>2026-09-01T19:58:30Z</time>
  <course>141.54</course>
  <speed>25.03</speed>
  <fix>3d</fix>
</trkpt>
<trkpt lat="-27.2706947" lon="151.2852089">
  <ele>363.66</ele>
  <time>2026-09-01T19:58:30Z</time>
  <course>141.66</course>
  <speed>24.835420270251117</speed>
  <fix>3d</fix>
</trkpt>
<trkpt lat="-27.2706632" lon="151.2851791">
  <ele>363.73</ele>
  <time>2026-09-01T19:58:30Z</time>
  <course>141.54</course>
  <speed>25.03</speed>
  <fix>3d</fix>
</trkpt>
<trkpt lat="-27.2707118" lon="151.2852254">
  <ele>363.54</ele>
  <time>2026-09-01T19:58:30Z</time>
  <course>140.6</course>
  <speed>24.83331029081705</speed>
  <fix>3d</fix>
</trkpt>
<trkpt lat="-27.2706978" lon="151.2852112">
  <ele>363.53</ele>
  <time>2026-09-01T19:58:30Z</time>
  <course>139.5</course>
  <speed>24.98</speed>
  <fix>3d</fix>
</trkpt>
<trkpt lat="-27.2707287" lon="151.2852423">
  <ele>363.41</ele>
  <time>2026-09-01T19:58:30Z</time>
  <course>139.57</course>
  <speed>24.831741783451275</speed>
  <fix>3d</fix>
</trkpt>
<trkpt lat="-27.2706978" lon="151.2852112">
  <ele>363.53</ele>
  <time>2026-09-01T19:58:30Z</time>
  <course>139.5</course>
  <speed>24.98</speed>
  <fix>3d</fix>
</trkpt>
<trkpt lat="-27.2707452" lon="151.2852595">
  <ele>363.29</ele>
  <time>2026-09-01T19:58:30Z</time>
  <course>138.59</course>
  <speed>24.837618645916923</speed>
  <fix>3d</fix>
</trkpt>
<trkpt lat="-27.2707314" lon="151.2852446">
  <ele>363.29</ele>
  <time>2026-09-01T19:58:30Z</time>
  <course>137.56</course>
  <speed>24.95</speed>
  <fix>3d</fix>
</trkpt>
<trkpt lat="-27.2707616" lon="151.285277">
  <ele>363.15</ele>
  <time>2026-09-01T19:58:30Z</time>
  <course>137.58</course>
  <speed>24.850247483677098</speed>
  <fix>3d</fix>
</trkpt>
<trkpt lat="-27.2707314" lon="151.2852446">
  <ele>363.29</ele>
  <time>2026-09-01T19:58:30Z</time>
  <course>137.56</course>
  <speed>24.95</speed>
  <fix>3d</fix>
</trkpt>
<trkpt lat="-27.2707776" lon="151.2852948">
  <ele>363.02</ele>
  <time>2026-09-01T19:58:30Z</time>
  <course>136.61</course>
  <speed>24.8618905154053</speed>
  <fix>3d</fix>
</trkpt>
<trkpt lat="-27.270764" lon="151.2852792">
  <ele>363.04</ele>
  <time>2026-09-01T19:58:30Z</time>
  <course>135.71</course>
  <speed>24.94</speed>
  <fix>3d</fix>
</trkpt>
<trkpt lat="-27.2707933" lon="151.2853127">
  <ele>362.89</ele>
  <time>2026-09-01T19:58:30Z</time>
  <course>135.72</course>
  <speed>24.879167992519363</speed>
  <fix>3d</fix>
</trkpt>
<trkpt lat="-27.270764" lon="151.2852792">
  <ele>363.04</ele>
  <time>2026-09-01T19:58:30Z</time>
  <course>135.71</course>
  <speed>24.94</speed>
  <fix>3d</fix>
</trkpt>
<trkpt lat="-27.2708088" lon="151.2853309">
  <ele>362.76</ele>
  <time>2026-09-01T19:58:30Z</time>
  <course>134.84</course>
  <speed>24.894161966212078</speed>
  <fix>3d</fix>
</trkpt>
<trkpt lat="-27.2707955" lon="151.2853149">
  <ele>362.78</ele>
  <time>2026-09-01T19:58:30Z</time>
  <course>133.98</course>
  <speed>24.95</speed>
  <fix>3d</fix>
</trkpt>
<trkpt lat="-27.2708241" lon="151.2853494">
  <ele>362.64</ele>
  <time>2026-09-01T19:58:30Z</time>
  <course>134.01</course>
  <speed>24.90598522443953</speed>
  <fix>3d</fix>
</trkpt>
<trkpt lat="-27.2707955" lon="151.2853149">
  <ele>362.78</ele>
  <time>2026-09-01T19:58:30Z</time>
  <course>133.98</course>
  <speed>24.95</speed>
  <fix>3d</fix>
</trkpt>
<trkpt lat="-27.2708392" lon="151.2853681">
  <ele>362.53</ele>
  <time>2026-09-01T19:58:30Z</time>
  <course>133.16</course>
  <speed>24.927932124426206</speed>
  <fix>3d</fix>
</trkpt>
<trkpt lat="-27.2708262" lon="151.2853517">
  <ele>362.54</ele>
  <time>2026-09-01T19:58:30Z</time>
  <course>132.41</course>
  <speed>24.97</speed>
  <fix>3d</fix>
</trkpt>
<trkpt lat="-27.2708542" lon="151.2853871">
  <ele>362.42</ele>
  <time>2026-09-01T19:58:30Z</time>
  <course>132.4</course>
  <speed>24.9460377615364</speed>
  <fix>3d</fix>
</trkpt>
<trkpt lat="-27.2708262" lon="151.2853517">
  <ele>362.54</ele>
  <time>2026-09-01T19:58:30Z</time>
  <course>132.41</course>
  <speed>24.97</speed>
  <fix>3d</fix>
</trkpt>
<trkpt lat="-27.2708689" lon="151.2854062">
  <ele>362.31</ele>
  <time>2026-09-01T19:58:30Z</time>
  <course>131.75</course>
  <speed>24.96545212889204</speed>
  <fix>3d</fix>
</trkpt>
<trkpt lat="-27.270856" lon="151.2853894">
  <ele>362.31</ele>
  <time>2026-09-01T19:58:30Z</time>
  <course>131.03</course>
  <speed>25.0</speed>
  <fix>3d</fix>
</trkpt>
<trkpt lat="-27.2708834" lon="151.2854254">
  <ele>362.21</ele>
  <time>2026-09-01T19:58:30Z</time>
  <course>131.12</course>
  <speed>24.978833039195408</speed>
  <fix>3d</fix>
</trkpt>
<trkpt lat="-27.270856" lon="151.2853894">
  <ele>362.31</ele>
  <time>2026-09-01T19:58:30Z</time>
  <course>131.03</course>
  <speed>25.0</speed>
  <fix>3d</fix>
</trkpt>
<trkpt lat="-27.2708977" lon="151.2854449">
  <ele>362.12</ele>
  <time>2026-09-01T19:58:30Z</time>
  <course>130.57</course>
  <speed>24.999641997436683</speed>
  <fix>3d</fix>
</trkpt>
<trkpt lat="-27.2708852" lon="151.285428">
  <ele>362.1</ele>
  <time>2026-09-01T19:58:30Z</time>
  <course>129.84</course>
  <speed>25.03</speed>
  <fix>3d</fix>
</trkpt>
<trkpt lat="-27.2709119" lon="151.2854645">
  <ele>362.03</ele>
  <time>2026-09-01T19:58:30Z</time>
  <course>130.01</course>
  <speed>25.020993185723064</speed>
  <fix>3d</fix>
</trkpt>
<trkpt lat="-27.2708852" lon="151.285428">
  <ele>362.1</ele>
  <time>2026-09-01T19:58:30Z</time>
  <course>129.84</course>
  <speed>25.03</speed>
  <fix>3d</fix>
</trkpt>
<trkpt lat="-27.270926" lon="151.2854842">
  <ele>361.95</ele>
  <time>2026-09-01T19:58:30Z</time>
  <course>129.42</course>
  <speed>25.03470391276877</speed>
  <fix>3d</fix>
</trkpt>
<trkpt lat="-27.2709138" lon="151.2854672">
  <ele>361.91</ele>
  <time>2026-09-01T19:58:30Z</time>
  <course>128.83</course>
  <speed>25.06</speed>
  <fix>3d</fix>
</trkpt>
<trkpt lat="-27.2709401" lon="151.2855044">
  <ele>361.86</ele>
  <time>2026-09-01T19:58:30Z</time>
  <course>128.94</course>
  <speed>25.06221259186826</speed>
  <fix>3d</fix>
</trkpt>
<trkpt lat="-27.2709138" lon="151.2854672">
  <ele>361.91</ele>
  <time>2026-09-01T19:58:30Z</time>
  <course>128.83</course>
  <speed>25.06</speed>
  <fix>3d</fix>
</trkpt>
<trkpt lat="-27.270954" lon="151.2855244">
  <ele>361.79</ele>
  <time>2026-09-01T19:58:30Z</time>
  <course>128.49</course>
  <speed>25.08303211336301</speed>
  <fix>3d</fix>
</trkpt>
<trkpt lat="-27.2709418" lon="151.2855069">
  <ele>361.75</ele>
  <time>2026-09-01T19:58:30Z</time>
  <course>127.99</course>
  <speed>25.09</speed>
  <fix>3d</fix>
</trkpt>
<trkpt lat="-27.2709679" lon="151.2855447">
  <ele>361.72</ele>
  <time>2026-09-01T19:58:30Z</time>
  <course>128.06</course>
  <speed>25.10918557022509</speed>
  <fix>3d</fix>
</trkpt>
<trkpt lat="-27.2709418" lon="151.2855069">
  <ele>361.75</ele>
  <time>2026-09-01T19:58:30Z</time>
  <course>127.99</course>
  <speed>25.09</speed>
  <fix>3d</fix>
</trkpt>
<trkpt lat="-27.2709817" lon="151.2855651">
  <ele>361.66</ele>
  <time>2026-09-01T19:58:30Z</time>
  <course>127.73</course>
  <speed>25.140286394550085</speed>
  <fix>3d</fix>
</trkpt>
<trkpt lat="-27.2709693" lon="151.285547">
  <ele>361.62</ele>
  <time>2026-09-01T19:58:30Z</time>
  <course>127.29</course>
  <speed>25.12</speed>
  <fix>3d</fix>
</trkpt>
<trkpt lat="-27.2709954" lon="151.2855856">
  <ele>361.6</ele>
  <time>2026-09-01T19:58:30Z</time>
  <course>127.38</course>
  <speed>25.172000317813442</speed>
  <fix>3d</fix>
</trkpt>
<trkpt lat="-27.2709693" lon="151.285547">
  <ele>361.62</ele>
  <time>2026-09-01T19:58:30Z</time>
  <course>127.29</course>
  <speed>25.12</speed>
  <fix>3d</fix>
</trkpt>
<trkpt lat="-27.271009" lon="151.2856061">
  <ele>361.55</ele>
  <time>2026-09-01T19:58:30Z</time>
  <course>127.08</course>
  <speed>25.186206542470824</speed>
  <fix>3d</fix>
</trkpt>
<trkpt lat="-27.2709965" lon="151.2855877">
  <ele>361.51</ele>
  <time>2026-09-01T19:58:30Z</time>
  <course>126.73</course>
  <speed>25.15</speed>
  <fix>3d</fix>
</trkpt>
<trkpt lat="-27.2710225" lon="151.2856267">
  <ele>361.51</ele>
  <time>2026-09-01T19:58:30Z</time>
  <course>126.82</course>
  <speed>25.21477741325511</speed>
  <fix>3d</fix>
</trkpt>
<trkpt lat="-27.2709965" lon="151.2855877">
  <ele>361.51</ele>
  <time>2026-09-01T19:58:30Z</time>
  <course>126.73</course>
  <speed>25.15</speed>
  <fix>3d</fix>
</trkpt>
<trkpt lat="-27.271036" lon="151.2856474">
  <ele>361.47</ele>
  <time>2026-09-01T19:58:30Z</time>
  <course>126.5</course>
  <speed>25.233487670157686</speed>
  <fix>3d</fix>
</trkpt>
<trkpt lat="-27.2710234" lon="151.2856286">
  <ele>361.41</ele>
  <time>2026-09-01T19:58:30Z</time>
  <course>126.29</course>
  <speed>25.17</speed>
  <fix>3d</fix>
</trkpt>
<trkpt lat="-27.2710494" lon="151.2856681">
  <ele>361.43</ele>
  <time>2026-09-01T19:58:30Z</time>
  <course>126.2</course>
  <speed>25.252425626066103</speed>
  <fix>3d</fix>
</trkpt>
<trkpt lat="-27.2710234" lon="151.2856286">
  <ele>361.41</ele>
  <time>2026-09-01T19:58:30Z</time>
  <course>126.29</course>
  <speed>25.17</speed>
  <fix>3d</fix>
</trkpt>
<trkpt lat="-27.2710627" lon="151.2856888">
  <ele>361.41</ele>
  <time>2026-09-01T19:58:30Z</time>
  <course>125.97</course>
  <speed>25.263491445166483</speed>
  <fix>3d</fix>
</trkpt>
<trkpt lat="-27.27105" lon="151.2856697">
  <ele>361.34</ele>
  <time>2026-09-01T19:58:30Z</time>
  <course>125.94</course>
  <speed>25.19</speed>
  <fix>3d</fix>
</trkpt>
<trkpt lat="-27.2710759" lon="151.2857095">
  <ele>361.38</ele>
  <time>2026-09-01T19:58:30Z</time>
  <course>125.84</course>
  <speed>25.274750246045954</speed>
  <fix>3d</fix>
</trkpt>
<trkpt lat="-27.27105" lon="151.2856697">
  <ele>361.34</ele>
  <time>2026-09-01T19:58:30Z</time>
  <course>125.94</course>
  <speed>25.19</speed>
  <fix>3d</fix>
</trkpt>
<trkpt lat="-27.271089" lon="151.28573">
  <ele>361.37</ele>
  <time>2026-09-01T19:58:30Z</time>
  <course>125.72</course>
  <speed>25.28389606053624</speed>
  <fix>3d</fix>
</trkpt>
<trkpt lat="-27.2710766" lon="151.285711">
  <ele>361.3</ele>
  <time>2026-09-01T19:58:30Z</time>
  <course>125.64</course>
  <speed>25.21</speed>
  <fix>3d</fix>
</trkpt>
<trkpt lat="-27.2711023" lon="151.2857509">
  <ele>361.35</ele>
  <time>2026-09-01T19:58:30Z</time>
  <course>125.58</course>
  <speed>25.29897428750818</speed>
  <fix>3d</fix>
</trkpt>
<trkpt lat="-27.2710766" lon="151.285711">
  <ele>361.3</ele>
  <time>2026-09-01T19:58:30Z</time>
  <course>125.64</course>
  <speed>25.21</speed>
  <fix>3d</fix>
</trkpt>
<trkpt lat="-27.2711155" lon="151.2857718">
  <ele>361.35</ele>
  <time>2026-09-01T19:58:30Z</time>
  <course>125.44</course>
  <speed>25.30599336125733</speed>
  <fix>3d</fix>
</trkpt>
<trkpt lat="-27.2711029" lon="151.2857525">
  <ele>361.28</ele>
  <time>2026-09-01T19:58:30Z</time>
  <course>125.4</course>
  <speed>25.22</speed>
  <fix>3d</fix>
</trkpt>
<trkpt lat="-27.2711287" lon="151.2857928">
  <ele>361.35</ele>
  <time>2026-09-01T19:58:30Z</time>
  <course>125.35</course>
  <speed>25.318866483316352</speed>
  <fix>3d</fix>
</trkpt>
<trkpt lat="-27.2711029" lon="151.2857525">
  <ele>361.28</ele>
  <time>2026-09-01T19:58:30Z</time>
  <course>125.4</course>
  <speed>25.22</speed>
  <fix>3d</fix>
</trkpt>
<trkpt lat="-27.2711419" lon="151.2858139">
  <ele>361.35</ele>
  <time>2026-09-01T19:58:30Z</time>
  <course>125.27</course>
  <speed>25.331784382470968</speed>
  <fix>3d</fix>
</trkpt>
<trkpt lat="-27.2711291" lon="151.285794">
  <ele>361.28</ele>
  <time>2026-09-01T19:58:30Z</time>
  <course>125.24</course>
  <speed>25.23</speed>
  <fix>3d</fix>
</trkpt>
<trkpt lat="-27.2711551" lon="151.285835">
  <ele>361.36</ele>
  <time>2026-09-01T19:58:30Z</time>
  <course>125.24</course>
  <speed>25.342344011555046</speed>
  <fix>3d</fix>
</trkpt>
<trkpt lat="-27.2711291" lon="151.285794">
  <ele>361.28</ele>
  <time>2026-09-01T19:58:30Z</time>
  <course>125.24</course>
  <speed>25.23</speed>
  <fix>3d</fix>
</trkpt>
<trkpt lat="-27.2711683" lon="151.285856">
  <ele>361.36</ele>
  <time>2026-09-01T19:58:30Z</time>
  <course>125.19</course>
  <speed>25.350512815325846</speed>
  <fix>3d</fix>
</trkpt>
<trkpt lat="-27.2711552" lon="151.2858357">
  <ele>361.3</ele>
  <time>2026-09-01T19:58:30Z</time>
  <course>125.15</course>
  <speed>25.24</speed>
  <fix>3d</fix>
</trkpt>
<trkpt lat="-27.2711814" lon="151.285877">
  <ele>361.38</ele>
  <time>2026-09-01T19:58:30Z</time>
  <course>125.13</course>
  <speed>25.35868293109877</speed>
  <fix>3d</fix>
</trkpt>
<trkpt lat="-27.2711552" lon="151.2858357">
  <ele>361.3</ele>
  <time>2026-09-01T19:58:30Z</time>
  <course>125.15</course>
  <speed>25.24</speed>
  <fix>3d</fix>
</trkpt>
<trkpt lat="-27.2711945" lon="151.285898">
  <ele>361.4</ele>
  <time>2026-09-01T19:58:30Z</time>
  <course>125.04</course>
  <speed>25.36685435760611</speed>
  <fix>3d</fix>
</trkpt>
<trkpt lat="-27.2711814" lon="151.2858775">
  <ele>361.33</ele>
  <time>2026-09-01T19:58:30Z</time>
  <course>125.13</course>
  <speed>25.24</speed>
  <fix>3d</fix>
</trkpt>
<trkpt lat="-27.2712077" lon="151.2859191">
  <ele>361.43</ele>
  <time>2026-09-01T19:58:30Z</time>
  <course>124.96</course>
  <speed>25.36926684001727</speed>
  <fix>3d</fix>
</trkpt>
<trkpt lat="-27.2711814" lon="151.2858775">
  <ele>361.33</ele>
  <time>2026-09-01T19:58:30Z</time>
  <course>125.13</course>
  <speed>25.24</speed>
  <fix>3d</fix>
</trkpt>
<trkpt lat="-27.2712208" lon="151.2859401">
  <ele>361.45</ele>
  <time>2026-09-01T19:58:30Z</time>
  <course>124.93</course>
  <speed>25.377442739566963</speed>
  <fix>3d</fix>
</trkpt>
<trkpt lat="-27.2712075" lon="151.2859193">
  <ele>361.37</ele>
  <time>2026-09-01T19:58:30Z</time>
  <course>125.11</course>
  <speed>25.24</speed>
  <fix>3d</fix>
</trkpt>
<trkpt lat="-27.2712339" lon="151.2859611">
  <ele>361.47</ele>
  <time>2026-09-01T19:58:30Z</time>
  <course>124.94</course>
  <speed>25.37986603589546</speed>
  <fix>3d</fix>
</trkpt>
<trkpt lat="-27.2712075" lon="151.2859193">
  <ele>361.37</ele>
  <time>2026-09-01T19:58:30Z</time>
  <course>125.11</course>
  <speed>25.24</speed>
  <fix>3d</fix>
</trkpt>
<trkpt lat="-27.271247" lon="151.2859821">
  <ele>361.5</ele>
  <time>2026-09-01T19:58:30Z</time>
  <course>124.98</course>
  <speed>25.385619945157927</speed>
  <fix>3d</fix>
</trkpt>
<trkpt lat="-27.2712335" lon="151.285961">
  <ele>361.42</ele>
  <time>2026-09-01T19:58:30Z</time>
  <course>125.09</course>
  <speed>25.23</speed>
  <fix>3d</fix>
</trkpt>
<trkpt lat="-27.2712601" lon="151.2860031">
  <ele>361.52</ele>
  <time>2026-09-01T19:58:30Z</time>
  <course>124.96</course>
  <speed>25.385619945157927</speed>
  <fix>3d</fix>
</trkpt>
<trkpt lat="-27.2712335" lon="151.285961">
  <ele>361.42</ele>
  <time>2026-09-01T19:58:30Z</time>
  <course>125.09</course>
  <speed>25.23</speed>
  <fix>3d</fix>
</trkpt>
<trkpt lat="-27.2712732" lon="151.2860241">
  <ele>361.55</ele>
  <time>2026-09-01T19:58:30Z</time>
  <course>124.91</course>
  <speed>25.39379845552847</speed>
  <fix>3d</fix>
</trkpt>
<trkpt lat="-27.2712596" lon="151.2860028">
  <ele>361.47</ele>
  <time>2026-09-01T19:58:30Z</time>
  <course>125.1</course>
  <speed>25.23</speed>
  <fix>3d</fix>
</trkpt>
<trkpt lat="-27.2712863" lon="151.2860451">
  <ele>361.58</ele>
  <time>2026-09-01T19:58:30Z</time>
  <course>124.92</course>
  <speed>25.385619945157927</speed>
  <fix>3d</fix>
</trkpt>
<trkpt lat="-27.2712596" lon="151.2860028">
  <ele>361.47</ele>
  <time>2026-09-01T19:58:30Z</time>
  <course>125.1</course>
  <speed>25.23</speed>
  <fix>3d</fix>
</trkpt>
<trkpt lat="-27.2712994" lon="151.2860661">
  <ele>361.61</ele>
  <time>2026-09-01T19:58:30Z</time>
  <course>124.9</course>
  <speed>25.391376488879054</speed>
  <fix>3d</fix>
</trkpt>
<trkpt lat="-27.2712857" lon="151.2860445">
  <ele>361.53</ele>
  <time>2026-09-01T19:58:30Z</time>
  <course>125.13</course>
  <speed>25.23</speed>
  <fix>3d</fix>
</trkpt>
<trkpt lat="-27.2713125" lon="151.2860871">
  <ele>361.64</ele>
  <time>2026-09-01T19:58:30Z</time>
  <course>124.94</course>
  <speed>25.391376488879054</speed>
  <fix>3d</fix>
</trkpt>
<trkpt lat="-27.2712857" lon="151.2860445">
  <ele>361.53</ele>
  <time>2026-09-01T19:58:30Z</time>
  <course>125.13</course>
  <speed>25.23</speed>
  <fix>3d</fix>
</trkpt>
<trkpt lat="-27.2713256" lon="151.2861079">
  <ele>361.67</ele>
  <time>2026-09-01T19:58:30Z</time>
  <course>124.96</course>
  <speed>25.383201137760384</speed>
  <fix>3d</fix>
</trkpt>
<trkpt lat="-27.2713118" lon="151.2860862">
  <ele>361.58</ele>
  <time>2026-09-01T19:58:30Z</time>
  <course>125.16</course>
  <speed>25.23</speed>
  <fix>3d</fix>
</trkpt>
<trkpt lat="-27.2713385" lon="151.2861286">
  <ele>361.7</ele>
  <time>2026-09-01T19:58:30Z</time>
  <course>124.95</course>
  <speed>25.375027093581593</speed>
  <fix>3d</fix>
</trkpt>
<trkpt lat="-27.2713118" lon="151.2860862">
  <ele>361.58</ele>
  <time>2026-09-01T19:58:30Z</time>
  <course>125.16</course>
  <speed>25.23</speed>
  <fix>3d</fix>
</trkpt>
<trkpt lat="-27.2713513" lon="151.2861491">
  <ele>361.73</ele>
  <time>2026-09-01T19:58:30Z</time>
  <course>125.0</course>
  <speed>25.35868293109877</speed>
  <fix>3d</fix>
</trkpt>
<trkpt lat="-27.2713379" lon="151.2861278">
  <ele>361.63</ele>
  <time>2026-09-01T19:58:30Z</time>
  <course>125.2</course>
  <speed>25.24</speed>
  <fix>3d</fix>
</trkpt>
<trkpt lat="-27.2713643" lon="151.2861697">
  <ele>361.76</ele>
  <time>2026-09-01T19:58:30Z</time>
  <course>125.01</course>
  <speed>25.350512815325846</speed>
  <fix>3d</fix>
</trkpt>
<trkpt lat="-27.2713379" lon="151.2861278">
  <ele>361.63</ele>
  <time>2026-09-01T19:58:30Z</time>
  <course>125.2</course>
  <speed>25.24</speed>
  <fix>3d</fix>
</trkpt>
<trkpt lat="-27.2713772" lon="151.2861904">
  <ele>361.78</ele>
  <time>2026-09-01T19:58:30Z</time>
  <course>125.0</course>
  <speed>25.334176521055507</speed>
  <fix>3d</fix>
</trkpt>
<trkpt lat="-27.271364" lon="151.2861695">
  <ele>361.69</ele>
  <time>2026-09-01T19:58:30Z</time>
  <course>125.24</course>
  <speed>25.24</speed>
  <fix>3d</fix>
</trkpt>
<trkpt lat="-27.2713902" lon="151.2862111">
  <ele>361.81</ele>
  <time>2026-09-01T19:58:30Z</time>
  <course>125.02</course>
  <speed>25.320238940420765</speed>
  <fix>3d</fix>
</trkpt>
<trkpt lat="-27.271364" lon="151.2861695">
  <ele>361.69</ele>
  <time>2026-09-01T19:58:30Z</time>
  <course>125.24</course>
  <speed>25.24</speed>
  <fix>3d</fix>
</trkpt>
<trkpt lat="-27.2714032" lon="151.2862318">
  <ele>361.84</ele>
  <time>2026-09-01T19:58:30Z</time>
  <course>125.08</course>
  <speed>25.317845484953885</speed>
  <fix>3d</fix>
</trkpt>
<trkpt lat="-27.2713902" lon="151.2862111">
  <ele>361.74</ele>
  <time>2026-09-01T19:58:30Z</time>
  <course>125.28</course>
  <speed>25.24</speed>
  <fix>3d</fix>
</trkpt>
<trkpt lat="-27.2714164" lon="151.2862527">
  <ele>361.87</ele>
  <time>2026-09-01T19:58:30Z</time>
  <course>125.13</course>
  <speed>25.317845484953885</speed>
  <fix>3d</fix>
</trkpt>
<trkpt lat="-27.2713902" lon="151.2862111">
  <ele>361.74</ele>
  <time>2026-09-01T19:58:30Z</time>
  <course>125.28</course>
  <speed>25.24</speed>
  <fix>3d</fix>
</trkpt>
<trkpt lat="-27.2714294" lon="151.2862734">
  <ele>361.89</ele>
  <time>2026-09-01T19:58:30Z</time>
  <course>125.17</course>
  <speed>25.309681941897257</speed>
  <fix>3d</fix>
</trkpt>
<trkpt lat="-27.2714164" lon="151.2862528">
  <ele>361.79</ele>
  <time>2026-09-01T19:58:30Z</time>
  <course>125.33</course>
  <speed>25.24</speed>
  <fix>3d</fix>
</trkpt>
<trkpt lat="-27.2714425" lon="151.2862942">
  <ele>361.91</ele>
  <time>2026-09-01T19:58:30Z</time>
  <course>125.17</course>
  <speed>25.307299342284626</speed>
  <fix>3d</fix>
</trkpt>
<trkpt lat="-27.2714164" lon="151.2862528">
  <ele>361.79</ele>
  <time>2026-09-01T19:58:30Z</time>
  <course>125.33</course>
  <speed>25.24</speed>
  <fix>3d</fix>
</trkpt>
<trkpt lat="-27.2714555" lon="151.286315">
  <ele>361.94</ele>
  <time>2026-09-01T19:58:30Z</time>
  <course>125.2</course>
  <speed>25.29914030159918</speed>
  <fix>3d</fix>
</trkpt>
<trkpt lat="-27.2714427" lon="151.2862945">
  <ele>361.84</ele>
  <time>2026-09-01T19:58:30Z</time>
  <course>125.38</course>
  <speed>25.24</speed>
  <fix>3d</fix>
</trkpt>
<trkpt lat="-27.2714686" lon="151.2863356">
  <ele>361.96</ele>
  <time>2026-09-01T19:58:30Z</time>
  <course>125.18</course>
  <speed>25.296768568336944</speed>
  <fix>3d</fix>
</trkpt>
<trkpt lat="-27.2714427" lon="151.2862945">
  <ele>361.84</ele>
  <time>2026-09-01T19:58:30Z</time>
  <course>125.38</course>
  <speed>25.24</speed>
  <fix>3d</fix>
</trkpt>
<trkpt lat="-27.2714816" lon="151.2863563">
  <ele>361.98</ele>
  <time>2026-09-01T19:58:30Z</time>
  <course>125.18</course>
  <speed>25.29440451957705</speed>
  <fix>3d</fix>
</trkpt>
<trkpt lat="-27.271469" lon="151.2863361">
  <ele>361.89</ele>
  <time>2026-09-01T19:58:30Z</time>
  <course>125.43</course>
  <speed>25.24</speed>
  <fix>3d</fix>
</trkpt>
<trkpt lat="-27.2714946" lon="151.2863769">
  <ele>362.0</ele>
  <time>2026-09-01T19:58:30Z</time>
  <course>125.26</course>
  <speed>25.286253182312322</speed>
  <fix>3d</fix>
</trkpt>
<trkpt lat="-27.271469" lon="151.2863361">
  <ele>361.89</ele>
  <time>2026-09-01T19:58:30Z</time>
  <course>125.43</course>
  <speed>25.24</speed>
  <fix>3d</fix>
</trkpt>
<trkpt lat="-27.2715077" lon="151.2863975">
  <ele>362.02</ele>
  <time>2026-09-01T19:58:30Z</time>
  <course>125.34</course>
  <speed>25.28390001562259</speed>
  <fix>3d</fix>
</trkpt>
<trkpt lat="-27.2714953" lon="151.2863777">
  <ele>361.93</ele>
  <time>2026-09-01T19:58:30Z</time>
  <course>125.49</course>
  <speed>25.25</speed>
  <fix>3d</fix>
</trkpt>
<trkpt lat="-27.2715207" lon="151.2864181">
  <ele>362.04</ele>
  <time>2026-09-01T19:58:30Z</time>
  <course>125.32</course>
  <speed>25.275753203416116</speed>
  <fix>3d</fix>
</trkpt>
<trkpt lat="-27.2714953" lon="151.2863777">
  <ele>361.93</ele>
  <time>2026-09-01T19:58:30Z</time>
  <course>125.49</course>
  <speed>25.25</speed>
  <fix>3d</fix>
</trkpt>
<trkpt lat="-27.2715338" lon="151.2864387">
  <ele>362.06</ele>
  <time>2026-09-01T19:58:30Z</time>
  <course>125.29</course>
  <speed>25.27341092927506</speed>
  <fix>3d</fix>
</trkpt>
<trkpt lat="-27.2715217" lon="151.2864192">
  <ele>361.97</ele>
  <time>2026-09-01T19:58:30Z</time>
  <course>125.54</course>
  <speed>25.26</speed>
  <fix>3d</fix>
</trkpt>
<trkpt lat="-27.2715469" lon="151.2864593">
  <ele>362.08</ele>
  <time>2026-09-01T19:58:30Z</time>
  <course>125.38</course>
  <speed>25.265268650857447</speed>
  <fix>3d</fix>
</trkpt>
<trkpt lat="-27.2715217" lon="151.2864192">
  <ele>361.97</ele>
  <time>2026-09-01T19:58:30Z</time>
  <course>125.54</course>
  <speed>25.26</speed>
  <fix>3d</fix>
</trkpt>
<trkpt lat="-27.27156" lon="151.2864799">
  <ele>362.1</ele>
  <time>2026-09-01T19:58:30Z</time>
  <course>125.47</course>
  <speed>25.257127706847427</speed>
  <fix>3d</fix>
</trkpt>
<trkpt lat="-27.271548" lon="151.2864607">
  <ele>362.01</ele>
  <time>2026-09-01T19:58:30Z</time>
  <course>125.59</course>
  <speed>25.27</speed>
  <fix>3d</fix>
</trkpt>
<trkpt lat="-27.2715731" lon="151.2865004">
  <ele>362.12</ele>
  <time>2026-09-01T19:58:30Z</time>
  <course>125.49</course>
  <speed>25.246663145849592</speed>
  <fix>3d</fix>
</trkpt>
<trkpt lat="-27.271548" lon="151.2864607">
  <ele>362.01</ele>
  <time>2026-09-01T19:58:30Z</time>
  <course>125.59</course>
  <speed>25.27</speed>
  <fix>3d</fix>
</trkpt>
<trkpt lat="-27.2715862" lon="151.286521">
  <ele>362.14</ele>
  <time>2026-09-01T19:58:30Z</time>
  <course>125.48</course>
  <speed>25.244345901607353</speed>
  <fix>3d</fix>
</trkpt>
<trkpt lat="-27.2715745" lon="151.2865022">
  <ele>362.05</ele>
  <time>2026-09-01T19:58:30Z</time>
  <course>125.64</course>
  <speed>25.27</speed>
  <fix>3d</fix>
</trkpt>
<trkpt lat="-27.2715994" lon="151.2865417">
  <ele>362.17</ele>
  <time>2026-09-01T19:58:30Z</time>
  <course>125.53</course>
  <speed>25.236214058372543</speed>
  <fix>3d</fix>
</trkpt>
<trkpt lat="-27.2715745" lon="151.2865022">
  <ele>362.05</ele>
  <time>2026-09-01T19:58:30Z</time>
  <course>125.64</course>
  <speed>25.27</speed>
  <fix>3d</fix>
</trkpt>
<trkpt lat="-27.2716126" lon="151.2865625">
  <ele>362.19</ele>
  <time>2026-09-01T19:58:30Z</time>
  <course>125.52</course>
  <speed>25.247861295563233</speed>
  <fix>3d</fix>
</trkpt>
<trkpt lat="-27.271601" lon="151.2865437">
  <ele>362.09</ele>
  <time>2026-09-01T19:58:30Z</time>
  <course>125.71</course>
  <speed>25.27</speed>
  <fix>3d</fix>
</trkpt>
<trkpt lat="-27.2716259" lon="151.2865832">
  <ele>362.22</ele>
  <time>2026-09-01T19:58:30Z</time>
  <course>125.53</course>
  <speed>25.25368883945472</speed>
  <fix>3d</fix>
</trkpt>
<trkpt lat="-27.271601" lon="151.2865437">
  <ele>362.09</ele>
  <time>2026-09-01T19:58:30Z</time>
  <course>125.71</course>
  <speed>25.27</speed>
  <fix>3d</fix>
</trkpt>
<trkpt lat="-27.2716392" lon="151.286604">
  <ele>362.24</ele>
  <time>2026-09-01T19:58:30Z</time>
  <course>125.58</course>
  <speed>25.259518997795663</speed>
  <fix>3d</fix>
</trkpt>
<trkpt lat="-27.2716275" lon="151.2865852">
  <ele>362.13</ele>
  <time>2026-09-01T19:58:30Z</time>
  <course>125.76</course>
  <speed>25.28</speed>
  <fix>3d</fix>
</trkpt>
<trkpt lat="-27.2716525" lon="151.2866248">
  <ele>362.26</ele>
  <time>2026-09-01T19:58:30Z</time>
  <course>125.61</course>
  <speed>25.26535176877615</speed>
  <fix>3d</fix>
</trkpt>
<trkpt lat="-27.2716275" lon="151.2865852">
  <ele>362.13</ele>
  <time>2026-09-01T19:58:30Z</time>
  <course>125.76</course>
  <speed>25.28</speed>
  <fix>3d</fix>
</trkpt>
<trkpt lat="-27.2716658" lon="151.2866456">
  <ele>362.28</ele>
  <time>2026-09-01T19:58:30Z</time>
  <course>125.6</course>
  <speed>25.271187150587128</speed>
  <fix>3d</fix>
</trkpt>
<trkpt lat="-27.2716541" lon="151.2866266">
  <ele>362.16</ele>
  <time>2026-09-01T19:58:30Z</time>
  <course>125.8</course>
  <speed>25.28</speed>
  <fix>3d</fix>
</trkpt>
<trkpt lat="-27.2716793" lon="151.2866666">
  <ele>362.3</ele>
  <time>2026-09-01T19:58:30Z</time>
  <course>125.59</course>
  <speed>25.277025141420424</speed>
  <fix>3d</fix>
</trkpt>
<trkpt lat="-27.2716541" lon="151.2866266">
  <ele>362.16</ele>
  <time>2026-09-01T19:58:30Z</time>
  <course>125.8</course>
  <speed>25.28</speed>
  <fix>3d</fix>
</trkpt>
<trkpt lat="-27.2716926" lon="151.2866874">
  <ele>362.32</ele>
  <time>2026-09-01T19:58:30Z</time>
  <course>125.6</course>
  <speed>25.282865739468697</speed>
  <fix>3d</fix>
</trkpt>
<trkpt lat="-27.2716807" lon="151.286668">
  <ele>362.21</ele>
  <time>2026-09-01T19:58:30Z</time>
  <course>125.84</course>
  <speed>25.28</speed>
  <fix>3d</fix>
</trkpt>
<trkpt lat="-27.2717059" lon="151.2867081">
  <ele>362.35</ele>
  <time>2026-09-01T19:58:30Z</time>
  <course>125.69</course>
  <speed>25.288708942925496</speed>
  <fix>3d</fix>
</trkpt>
<trkpt lat="-27.2716807" lon="151.286668">
  <ele>362.21</ele>
  <time>2026-09-01T19:58:30Z</time>
  <course>125.84</course>
  <speed>25.28</speed>
  <fix>3d</fix>
</trkpt>
<trkpt lat="-27.2717192" lon="151.2867288">
  <ele>362.37</ele>
  <time>2026-09-01T19:58:30Z</time>
  <course>125.74</course>
  <speed>25.286443008062644</speed>
  <fix>3d</fix>
</trkpt>
<trkpt lat="-27.2717073" lon="151.2867096">
  <ele>362.25</ele>
  <time>2026-09-01T19:58:30Z</time>
  <course>125.88</course>
  <speed>25.28</speed>
  <fix>3d</fix>
</trkpt>
<trkpt lat="-27.2717325" lon="151.2867494">
  <ele>362.39</ele>
  <time>2026-09-01T19:58:30Z</time>
  <course>125.73</course>
  <speed>25.284184780213895</speed>
  <fix>3d</fix>
</trkpt>
<trkpt lat="-27.2717073" lon="151.2867096">
  <ele>362.25</ele>
  <time>2026-09-01T19:58:30Z</time>
  <course>125.88</course>
  <speed>25.28</speed>
  <fix>3d</fix>
</trkpt>
<trkpt lat="-27.2717458" lon="151.28677">
  <ele>362.41</ele>
  <time>2026-09-01T19:58:30Z</time>
  <course>125.74</course>
  <speed>25.281934261444476</speed>
  <fix>3d</fix>
</trkpt>
<trkpt lat="-27.271734" lon="151.286751">
  <ele>362.3</ele>
  <time>2026-09-01T19:58:30Z</time>
  <course>125.93</course>
  <speed>25.28</speed>
  <fix>3d</fix>
</trkpt>
<trkpt lat="-27.2717592" lon="151.2867908">
  <ele>362.43</ele>
  <time>2026-09-01T19:58:30Z</time>
  <course>125.75</course>
  <speed>25.281934261444476</speed>
  <fix>3d</fix>
</trkpt>
<trkpt lat="-27.271734" lon="151.286751">
  <ele>362.3</ele>
  <time>2026-09-01T19:58:30Z</time>
  <course>125.93</course>
  <speed>25.28</speed>
  <fix>3d</fix>
</trkpt>
<trkpt lat="-27.2717726" lon="151.2868115">
  <ele>362.45</ele>
  <time>2026-09-01T19:58:30Z</time>
  <course>125.73</course>
  <speed>25.28779349804961</speed>
  <fix>3d</fix>
</trkpt>
<trkpt lat="-27.2717607" lon="151.2867924">
  <ele>362.34</ele>
  <time>2026-09-01T19:58:30Z</time>
  <course>125.97</course>
  <speed>25.29</speed>
  <fix>3d</fix>
</trkpt>
<trkpt lat="-27.271786" lon="151.2868323">
  <ele>362.47</ele>
  <time>2026-09-01T19:58:30Z</time>
  <course>125.75</course>
  <speed>25.29589690048566</speed>
  <fix>3d</fix>
</trkpt>
<trkpt lat="-27.2717607" lon="151.2867924">
  <ele>362.34</ele>
  <time>2026-09-01T19:58:30Z</time>
  <course>125.97</course>
  <speed>25.29</speed>
  <fix>3d</fix>
</trkpt>
<trkpt lat="-27.2717994" lon="151.2868531">
  <ele>362.49</ele>
  <time>2026-09-01T19:58:30Z</time>
  <course>125.68</course>
  <speed>25.30985973884486</speed>
  <fix>3d</fix>
</trkpt>
<trkpt lat="-27.2717873" lon="151.2868337">
  <ele>362.37</ele>
  <time>2026-09-01T19:58:30Z</time>
  <course>125.98</course>
  <speed>25.29</speed>
  <fix>3d</fix>
</trkpt>
<trkpt lat="-27.2718127" lon="151.2868738">
  <ele>362.5</ele>
  <time>2026-09-01T19:58:30Z</time>
  <course>125.71</course>
  <speed>25.304001659816578</speed>
  <fix>3d</fix>
</trkpt>
<trkpt lat="-27.2717873" lon="151.2868337">
  <ele>362.37</ele>
  <time>2026-09-01T19:58:30Z</time>
  <course>125.98</course>
  <speed>25.29</speed>
  <fix>3d</fix>
</trkpt>
<trkpt lat="-27.2718261" lon="151.2868945">
  <ele>362.51</ele>
  <time>2026-09-01T19:58:30Z</time>
  <course>125.72</course>
  <speed>25.304001659816578</speed>
  <fix>3d</fix>
</trkpt>
<trkpt lat="-27.271814" lon="151.286875">
  <ele>362.4</ele>
  <time>2026-09-01T19:58:30Z</time>
  <course>125.98</course>
  <speed>25.29</speed>
  <fix>3d</fix>
</trkpt>
<trkpt lat="-27.2718395" lon="151.2869153">
  <ele>362.52</ele>
  <time>2026-09-01T19:58:30Z</time>
  <course>125.74</course>
  <speed>25.304001659816578</speed>
  <fix>3d</fix>
</trkpt>
<trkpt lat="-27.271814" lon="151.286875">
  <ele>362.4</ele>
  <time>2026-09-01T19:58:30Z</time>
  <course>125.98</course>
  <speed>25.29</speed>
  <fix>3d</fix>
</trkpt>
<trkpt lat="-27.2718529" lon="151.286936">
  <ele>362.54</ele>
  <time>2026-09-01T19:58:30Z</time>
  <course>125.78</course>
  <speed>25.304001659816578</speed>
  <fix>3d</fix>
</trkpt>
<trkpt lat="-27.2718407" lon="151.2869164">
  <ele>362.43</ele>
  <time>2026-09-01T19:58:30Z</time>
  <course>125.97</course>
  <speed>25.29</speed>
  <fix>3d</fix>
</trkpt>
<trkpt lat="-27.2718662" lon="151.2869567">
  <ele>362.55</ele>
  <time>2026-09-01T19:58:30Z</time>
  <course>125.78</course>
  <speed>25.30985973884486</speed>
  <fix>3d</fix>
</trkpt>
<trkpt lat="-27.2718407" lon="151.2869164">
  <ele>362.43</ele>
  <time>2026-09-01T19:58:30Z</time>
  <course>125.97</course>
  <speed>25.29</speed>
  <fix>3d</fix>
</trkpt>
<trkpt lat="-27.2718796" lon="151.2869774">
  <ele>362.56</ele>
  <time>2026-09-01T19:58:30Z</time>
  <course>125.77</course>
  <speed>25.30985973884486</speed>
  <fix>3d</fix>
</trkpt>
<trkpt lat="-27.2718674" lon="151.2869577">
  <ele>362.46</ele>
  <time>2026-09-01T19:58:30Z</time>
  <course>125.98</course>
  <speed>25.29</speed>
  <fix>3d</fix>
</trkpt>
<trkpt lat="-27.2718929" lon="151.2869981">
  <ele>362.57</ele>
  <time>2026-09-01T19:58:30Z</time>
  <course>125.73</course>
  <speed>25.31572041242358</speed>
  <fix>3d</fix>
</trkpt>
<trkpt lat="-27.2718674" lon="151.2869577">
  <ele>362.46</ele>
  <time>2026-09-01T19:58:30Z</time>
  <course>125.98</course>
  <speed>25.29</speed>
  <fix>3d</fix>
</trkpt>
<trkpt lat="-27.2719062" lon="151.2870187">
  <ele>362.58</ele>
  <time>2026-09-01T19:58:30Z</time>
  <course>125.74</course>
  <speed>25.31572041242358</speed>
  <fix>3d</fix>
</trkpt>
<trkpt lat="-27.2718941" lon="151.2869991">
  <ele>362.49</ele>
  <time>2026-09-01T19:58:30Z</time>
  <course>125.99</course>
  <speed>25.29</speed>
  <fix>3d</fix>
</trkpt>
<trkpt lat="-27.2719196" lon="151.2870394">
  <ele>362.59</ele>
  <time>2026-09-01T19:58:30Z</time>
  <course>125.76</course>
  <speed>25.321583678751217</speed>
  <fix>3d</fix>
</trkpt>
<trkpt lat="-27.2718941" lon="151.2869991">
  <ele>362.49</ele>
  <time>2026-09-01T19:58:30Z</time>
  <course>125.99</course>
  <speed>25.29</speed>
  <fix>3d</fix>
</trkpt>
<trkpt lat="-27.2719329" lon="151.28706">
  <ele>362.6</ele>
  <time>2026-09-01T19:58:30Z</time>
  <course>125.79</course>
  <speed>25.31935228239459</speed>
  <fix>3d</fix>
</trkpt>
<trkpt lat="-27.2719208" lon="151.2870405">
  <ele>362.51</ele>
  <time>2026-09-01T19:58:30Z</time>
  <course>126.02</course>
  <speed>25.3</speed>
  <fix>3d</fix>
</trkpt>
<trkpt lat="-27.2719463" lon="151.2870806">
  <ele>362.61</ele>
  <time>2026-09-01T19:58:30Z</time>
  <course>125.81</course>
  <speed>25.31935228239459</speed>
  <fix>3d</fix>
</trkpt>
<trkpt lat="-27.2719208" lon="151.2870405">
  <ele>362.51</ele>
  <time>2026-09-01T19:58:30Z</time>
  <course>126.02</course>
  <speed>25.3</speed>
  <fix>3d</fix>
</trkpt>
<trkpt lat="-27.2719595" lon="151.2871011">
  <ele>362.63</ele>
  <time>2026-09-01T19:58:30Z</time>
  <course>125.82</course>
  <speed>25.3112563892036</speed>
  <fix>3d</fix>
</trkpt>
<trkpt lat="-27.2719475" lon="151.2870818">
  <ele>362.53</ele>
  <time>2026-09-01T19:58:30Z</time>
  <course>126.04</course>
  <speed>25.3</speed>
  <fix>3d</fix>
</trkpt>
<trkpt lat="-27.2719729" lon="151.2871218">
  <ele>362.64</ele>
  <time>2026-09-01T19:58:30Z</time>
  <course>125.83</course>
  <speed>25.325222605142095</speed>
  <fix>3d</fix>
</trkpt>
<trkpt lat="-27.2719475" lon="151.2870818">
  <ele>362.53</ele>
  <time>2026-09-01T19:58:30Z</time>
  <course>126.04</course>
  <speed>25.3</speed>
  <fix>3d</fix>
</trkpt>
<trkpt lat="-27.2719864" lon="151.2871426">
  <ele>362.65</ele>
  <time>2026-09-01T19:58:30Z</time>
  <course>125.85</course>
  <speed>25.325222605142095</speed>
  <fix>3d</fix>
</trkpt>
<trkpt lat="-27.2719743" lon="151.2871232">
  <ele>362.55</ele>
  <time>2026-09-01T19:58:30Z</time>
  <course>126.06</course>
  <speed>25.3</speed>
  <fix>3d</fix>
</trkpt>
<trkpt lat="-27.2719998" lon="151.2871634">
  <ele>362.67</ele>
  <time>2026-09-01T19:58:30Z</time>
  <course>125.84</course>
  <speed>25.33918901622544</speed>
  <fix>3d</fix>
</trkpt>
<trkpt lat="-27.2719743" lon="151.2871232">
  <ele>362.55</ele>
  <time>2026-09-01T19:58:30Z</time>
  <course>126.06</course>
  <speed>25.3</speed>
  <fix>3d</fix>
</trkpt>
<trkpt lat="-27.2720134" lon="151.2871844">
  <ele>362.68</ele>
  <time>2026-09-01T19:58:30Z</time>
  <course>125.83</course>
  <speed>25.33918901622544</speed>
  <fix>3d</fix>
</trkpt>
<trkpt lat="-27.2720011" lon="151.2871646">
  <ele>362.58</ele>
  <time>2026-09-01T19:58:30Z</time>
  <course>126.06</course>
  <speed>25.31</speed>
  <fix>3d</fix>
</trkpt>
<trkpt lat="-27.2720269" lon="151.2872052">
  <ele>362.69</ele>
  <time>2026-09-01T19:58:30Z</time>
  <course>125.87</course>
  <speed>25.353155622131144</speed>
  <fix>3d</fix>
</trkpt>
<trkpt lat="-27.2720011" lon="151.2871646">
  <ele>362.58</ele>
  <time>2026-09-01T19:58:30Z</time>
  <course>126.06</course>
  <speed>25.31</speed>
  <fix>3d</fix>
</trkpt>
<trkpt lat="-27.2720405" lon="151.2872262">
  <ele>362.7</ele>
  <time>2026-09-01T19:58:30Z</time>
  <course>125.9</course>
  <speed>25.353155622131144</speed>
  <fix>3d</fix>
</trkpt>
<trkpt lat="-27.2720279" lon="151.287206">
  <ele>362.61</ele>
  <time>2026-09-01T19:58:30Z</time>
  <course>126.06</course>
  <speed>25.31</speed>
  <fix>3d</fix>
</trkpt>
<trkpt lat="-27.272054" lon="151.287247">
  <ele>362.71</ele>
  <time>2026-09-01T19:58:30Z</time>
  <course>125.88</course>
  <speed>25.37299745792759</speed>
  <fix>3d</fix>
</trkpt>
<trkpt lat="-27.2720279" lon="151.287206">
  <ele>362.61</ele>
  <time>2026-09-01T19:58:30Z</time>
  <course>126.06</course>
  <speed>25.31</speed>
  <fix>3d</fix>
</trkpt>
<trkpt lat="-27.2720675" lon="151.2872678">
  <ele>362.71</ele>
  <time>2026-09-01T19:58:30Z</time>
  <course>125.84</course>
  <speed>25.37299745792759</speed>
  <fix>3d</fix>
</trkpt>
<trkpt lat="-27.2720547" lon="151.2872474">
  <ele>362.63</ele>
  <time>2026-09-01T19:58:30Z</time>
  <course>126.07</course>
  <speed>25.31</speed>
  <fix>3d</fix>
</trkpt>
<trkpt lat="-27.272081" lon="151.2872887">
  <ele>362.73</ele>
  <time>2026-09-01T19:58:30Z</time>
  <course>125.85</course>
  <speed>25.37887507357251</speed>
  <fix>3d</fix>
</trkpt>
<trkpt lat="-27.2720547" lon="151.2872474">
  <ele>362.63</ele>
  <time>2026-09-01T19:58:30Z</time>
  <course>126.07</course>
  <speed>25.31</speed>
  <fix>3d</fix>
</trkpt>
<trkpt lat="-27.2720944" lon="151.2873095">
  <ele>362.74</ele>
  <time>2026-09-01T19:58:30Z</time>
  <course>125.89</course>
  <speed>25.37887507357251</speed>
  <fix>3d</fix>
</trkpt>
<trkpt lat="-27.2720815" lon="151.2872887">
  <ele>362.65</ele>
  <time>2026-09-01T19:58:30Z</time>
  <course>126.09</course>
  <speed>25.31</speed>
  <fix>3d</fix>
</trkpt>
<trkpt lat="-27.2721079" lon="151.2873303">
  <ele>362.75</ele>
  <time>2026-09-01T19:58:30Z</time>
  <course>125.84</course>
  <speed>25.384755267679854</speed>
  <fix>3d</fix>
</trkpt>
<trkpt lat="-27.2720815" lon="151.2872887">
  <ele>362.65</ele>
  <time>2026-09-01T19:58:30Z</time>
  <course>126.09</course>
  <speed>25.31</speed>
  <fix>3d</fix>
</trkpt>
<trkpt lat="-27.2721214" lon="151.287351">
  <ele>362.76</ele>
  <time>2026-09-01T19:58:30Z</time>
  <course>125.77</course>
  <speed>25.398724377417064</speed>
  <fix>3d</fix>
</trkpt>
<trkpt lat="-27.2721083" lon="151.28733">
  <ele>362.67</ele>
  <time>2026-09-01T19:58:30Z</time>
  <course>126.1</course>
  <speed>25.31</speed>
  <fix>3d</fix>
</trkpt>
<trkpt lat="-27.2721348" lon="151.2873717">
  <ele>362.78</ele>
  <time>2026-09-01T19:58:30Z</time>
  <course>125.81</course>
  <speed>25.384755267679854</speed>
  <fix>3d</fix>
</trkpt>
<trkpt lat="-27.2721083" lon="151.28733">
  <ele>362.67</ele>
  <time>2026-09-01T19:58:30Z</time>
  <course>126.1</course>
  <speed>25.31</speed>
  <fix>3d</fix>
</trkpt>
<trkpt lat="-27.2721482" lon="151.2873923">
  <ele>362.79</ele>
  <time>2026-09-01T19:58:30Z</time>
  <course>125.9</course>
  <speed>25.384755267679854</speed>
  <fix>3d</fix>
</trkpt>
<trkpt lat="-27.2721351" lon="151.2873713">
  <ele>362.7</ele>
  <time>2026-09-01T19:58:30Z</time>
  <course>126.11</course>
  <speed>25.31</speed>
  <fix>3d</fix>
</trkpt>
<trkpt lat="-27.2721616" lon="151.2874129">
  <ele>362.8</ele>
  <time>2026-09-01T19:58:30Z</time>
  <course>125.9</course>
  <speed>25.37666841805677</speed>
  <fix>3d</fix>
</trkpt>
<trkpt lat="-27.2721351" lon="151.2873713">
  <ele>362.7</ele>
  <time>2026-09-01T19:58:30Z</time>
  <course>126.11</course>
  <speed>25.31</speed>
  <fix>3d</fix>
</trkpt>
<trkpt lat="-27.2721749" lon="151.2874335">
  <ele>362.82</ele>
  <time>2026-09-01T19:58:30Z</time>
  <course>125.91</course>
  <speed>25.37666841805677</speed>
  <fix>3d</fix>
</trkpt>
<trkpt lat="-27.2721619" lon="151.2874127">
  <ele>362.72</ele>
  <time>2026-09-01T19:58:30Z</time>
  <course>126.1</course>
  <speed>25.31</speed>
  <fix>3d</fix>
</trkpt>
<trkpt lat="-27.2721883" lon="151.287454">
  <ele>362.83</ele>
  <time>2026-09-01T19:58:30Z</time>
  <course>125.91</course>
  <speed>25.368582932438304</speed>
  <fix>3d</fix>
</trkpt>
<trkpt lat="-27.2721619" lon="151.2874127">
  <ele>362.72</ele>
  <time>2026-09-01T19:58:30Z</time>
  <course>126.1</course>
  <speed>25.31</speed>
  <fix>3d</fix>
</trkpt>
<trkpt lat="-27.2722016" lon="151.2874746">
  <ele>362.85</ele>
  <time>2026-09-01T19:58:30Z</time>
  <course>125.84</course>
  <speed>25.360498812129073</speed>
  <fix>3d</fix>
</trkpt>
<trkpt lat="-27.2721887" lon="151.287454">
  <ele>362.75</ele>
  <time>2026-09-01T19:58:30Z</time>
  <course>126.12</course>
  <speed>25.32</speed>
  <fix>3d</fix>
</trkpt>
<trkpt lat="-27.2722149" lon="151.2874951">
  <ele>362.86</ele>
  <time>2026-09-01T19:58:30Z</time>
  <course>125.8</course>
  <speed>25.34652836188814</speed>
  <fix>3d</fix>
</trkpt>
<trkpt lat="-27.2721887" lon="151.287454">
  <ele>362.75</ele>
  <time>2026-09-01T19:58:30Z</time>
  <course>126.12</course>
  <speed>25.32</speed>
  <fix>3d</fix>
</trkpt>
<trkpt lat="-27.2722283" lon="151.2875157">
  <ele>362.88</ele>
  <time>2026-09-01T19:58:30Z</time>
  <course>125.77</course>
  <speed>25.34652836188814</speed>
  <fix>3d</fix>
</trkpt>
<trkpt lat="-27.2722155" lon="151.2874953">
  <ele>362.78</ele>
  <time>2026-09-01T19:58:30Z</time>
  <course>126.12</course>
  <speed>25.32</speed>
  <fix>3d</fix>
</trkpt>
<trkpt lat="-27.2722415" lon="151.287536">
  <ele>362.89</ele>
  <time>2026-09-01T19:58:30Z</time>
  <course>125.78</course>
  <speed>25.340643243611634</speed>
  <fix>3d</fix>
</trkpt>
<trkpt lat="-27.2722155" lon="151.2874953">
  <ele>362.78</ele>
  <time>2026-09-01T19:58:30Z</time>
  <course>126.12</course>
  <speed>25.32</speed>
  <fix>3d</fix>
</trkpt>
<trkpt lat="-27.2722548" lon="151.2875566">
  <ele>362.9</ele>
  <time>2026-09-01T19:58:30Z</time>
  <course>125.85</course>
  <speed>25.32667368605676</speed>
  <fix>3d</fix>
</trkpt>
<trkpt lat="-27.2722423" lon="151.2875366">
  <ele>362.81</ele>
  <time>2026-09-01T19:58:30Z</time>
  <course>126.1</course>
  <speed>25.32</speed>
  <fix>3d</fix>
</trkpt>
<trkpt lat="-27.2722682" lon="151.2875773">
  <ele>362.91</ele>
  <time>2026-09-01T19:58:30Z</time>
  <course>125.86</course>
  <speed>25.32667368605676</speed>
  <fix>3d</fix>
</trkpt>
<trkpt lat="-27.2722423" lon="151.2875366">
  <ele>362.81</ele>
  <time>2026-09-01T19:58:30Z</time>
  <course>126.1</course>
  <speed>25.32</speed>
  <fix>3d</fix>
</trkpt>
<trkpt lat="-27.2722816" lon="151.2875979">
  <ele>362.91</ele>
  <time>2026-09-01T19:58:30Z</time>
  <course>125.9</course>
  <speed>25.32667368605676</speed>
  <fix>3d</fix>
</trkpt>
<trkpt lat="-27.2722691" lon="151.2875781">
  <ele>362.83</ele>
  <time>2026-09-01T19:58:30Z</time>
  <course>126.1</course>
  <speed>25.31</speed>
  <fix>3d</fix>
</trkpt>
<trkpt lat="-27.2722952" lon="151.2876188">
  <ele>362.92</ele>
  <time>2026-09-01T19:58:30Z</time>
  <course>125.95</course>
  <speed>25.332558102173575</speed>
  <fix>3d</fix>
</trkpt>
<trkpt lat="-27.2722691" lon="151.2875781">
  <ele>362.83</ele>
  <time>2026-09-01T19:58:30Z</time>
  <course>126.1</course>
  <speed>25.31</speed>
  <fix>3d</fix>
</trkpt>
<trkpt lat="-27.2723087" lon="151.2876396">
  <ele>362.93</ele>
  <time>2026-09-01T19:58:30Z</time>
  <course>126.01</course>
  <speed>25.338445098308615</speed>
  <fix>3d</fix>
</trkpt>
<trkpt lat="-27.272296" lon="151.2876195">
  <ele>362.84</ele>
  <time>2026-09-01T19:58:30Z</time>
  <course>126.12</course>
  <speed>25.31</speed>
  <fix>3d</fix>
</trkpt>
<trkpt lat="-27.2723222" lon="151.2876603">
  <ele>362.93</ele>
  <time>2026-09-01T19:58:30Z</time>
  <course>125.98</course>
  <speed>25.344334672664026</speed>
  <fix>3d</fix>
</trkpt>
<trkpt lat="-27.272296" lon="151.2876195">
  <ele>362.84</ele>
  <time>2026-09-01T19:58:30Z</time>
  <course>126.12</course>
  <speed>25.31</speed>
  <fix>3d</fix>
</trkpt>
<trkpt lat="-27.2723361" lon="151.2876818">
  <ele>362.94</ele>
  <time>2026-09-01T19:58:30Z</time>
  <course>125.94</course>
  <speed>25.352416058435143</speed>
  <fix>3d</fix>
</trkpt>
<trkpt lat="-27.2723228" lon="151.2876608">
  <ele>362.86</ele>
  <time>2026-09-01T19:58:30Z</time>
  <course>126.14</course>
  <speed>25.31</speed>
  <fix>3d</fix>
</trkpt>
<trkpt lat="-27.2723495" lon="151.2877024">
  <ele>362.95</ele>
  <time>2026-09-01T19:58:30Z</time>
  <course>125.89</course>
  <speed>25.35830633145676</speed>
  <fix>3d</fix>
</trkpt>
<trkpt lat="-27.2723228" lon="151.2876608">
  <ele>362.86</ele>
  <time>2026-09-01T19:58:30Z</time>
  <course>126.14</course>
  <speed>25.31</speed>
  <fix>3d</fix>
</trkpt>
<trkpt lat="-27.272363" lon="151.2877231">
  <ele>362.95</ele>
  <time>2026-09-01T19:58:30Z</time>
  <course>125.86</course>
  <speed>25.35830633145676</speed>
  <fix>3d</fix>
</trkpt>
<trkpt lat="-27.2723496" lon="151.2877021">
  <ele>362.87</ele>
  <time>2026-09-01T19:58:30Z</time>
  <course>126.16</course>
  <speed>25.32</speed>
  <fix>3d</fix>
</trkpt>
<trkpt lat="-27.2723765" lon="151.2877439">
  <ele>362.96</ele>
  <time>2026-09-01T19:58:30Z</time>
  <course>125.85</course>
  <speed>25.35830633145676</speed>
  <fix>3d</fix>
</trkpt>
<trkpt lat="-27.2723496" lon="151.2877021">
  <ele>362.87</ele>
  <time>2026-09-01T19:58:30Z</time>
  <course>126.16</course>
  <speed>25.32</speed>
  <fix>3d</fix>
</trkpt>
<trkpt lat="-27.2723899" lon="151.2877646">
  <ele>362.96</ele>
  <time>2026-09-01T19:58:30Z</time>
  <course>125.87</course>
  <speed>25.36638720827229</speed>
  <fix>3d</fix>
</trkpt>
<trkpt lat="-27.2723765" lon="151.2877434">
  <ele>362.88</ele>
  <time>2026-09-01T19:58:30Z</time>
  <course>126.16</course>
  <speed>25.32</speed>
  <fix>3d</fix>
</trkpt>
<trkpt lat="-27.2724035" lon="151.2877856">
  <ele>362.97</ele>
  <time>2026-09-01T19:58:30Z</time>
  <course>125.9</course>
  <speed>25.372278179146623</speed>
  <fix>3d</fix>
</trkpt>
<trkpt lat="-27.2723765" lon="151.2877434">
  <ele>362.88</ele>
  <time>2026-09-01T19:58:30Z</time>
  <course>126.16</course>
  <speed>25.32</speed>
  <fix>3d</fix>
</trkpt>
<trkpt lat="-27.2724167" lon="151.2878058">
  <ele>362.97</ele>
  <time>2026-09-01T19:58:30Z</time>
  <course>125.92</course>
  <speed>25.38035854750677</speed>
  <fix>3d</fix>
</trkpt>
<trkpt lat="-27.2724033" lon="151.2877847">
  <ele>362.89</ele>
  <time>2026-09-01T19:58:30Z</time>
  <course>126.15</course>
  <speed>25.32</speed>
  <fix>3d</fix>
</trkpt>
<trkpt lat="-27.2724302" lon="151.2878266">
  <ele>362.98</ele>
  <time>2026-09-01T19:58:30Z</time>
  <course>125.92</course>
  <speed>25.386250215421732</speed>
  <fix>3d</fix>
</trkpt>
<trkpt lat="-27.2724033" lon="151.2877847">
  <ele>362.89</ele>
  <time>2026-09-01T19:58:30Z</time>
  <course>126.15</course>
  <speed>25.32</speed>
  <fix>3d</fix>
</trkpt>
<trkpt lat="-27.2724436" lon="151.2878473">
  <ele>362.98</ele>
  <time>2026-09-01T19:58:30Z</time>
  <course>125.86</course>
  <speed>25.388440282931914</speed>
  <fix>3d</fix>
</trkpt>
<trkpt lat="-27.2724301" lon="151.287826">
  <ele>362.9</ele>
  <time>2026-09-01T19:58:30Z</time>
  <course>126.15</course>
  <speed>25.32</speed>
  <fix>3d</fix>
</trkpt>
<trkpt lat="-27.272457" lon="151.2878679">
  <ele>362.99</ele>
  <time>2026-09-01T19:58:30Z</time>
  <course>125.85</course>
  <speed>25.388440282931914</speed>
  <fix>3d</fix>
</trkpt>
<trkpt lat="-27.2724301" lon="151.287826">
  <ele>362.9</ele>
  <time>2026-09-01T19:58:30Z</time>
  <course>126.15</course>
  <speed>25.32</speed>
  <fix>3d</fix>
</trkpt>
<trkpt lat="-27.2724704" lon="151.2878886">
  <ele>362.99</ele>
  <time>2026-09-01T19:58:30Z</time>
  <course>125.88</course>
  <speed>25.388440282931914</speed>
  <fix>3d</fix>
</trkpt>
<trkpt lat="-27.272457" lon="151.2878673">
  <ele>362.91</ele>
  <time>2026-09-01T19:58:30Z</time>
  <course>126.13</course>
  <speed>25.33</speed>
  <fix>3d</fix>
</trkpt>
<trkpt lat="-27.2724837" lon="151.2879091">
  <ele>363.0</ele>
  <time>2026-09-01T19:58:30Z</time>
  <course>125.83</course>
  <speed>25.374469452581664</speed>
  <fix>3d</fix>
</trkpt>
<trkpt lat="-27.272457" lon="151.2878673">
  <ele>362.91</ele>
  <time>2026-09-01T19:58:30Z</time>
  <course>126.13</course>
  <speed>25.33</speed>
  <fix>3d</fix>
</trkpt>
<trkpt lat="-27.2724971" lon="151.2879297">
  <ele>363.01</ele>
  <time>2026-09-01T19:58:30Z</time>
  <course>125.81</course>
  <speed>25.368582932438304</speed>
  <fix>3d</fix>
</trkpt>
<trkpt lat="-27.2724838" lon="151.2879087">
  <ele>362.94</ele>
  <time>2026-09-01T19:58:30Z</time>
  <course>126.12</course>
  <speed>25.33</speed>
  <fix>3d</fix>
</trkpt>
<trkpt lat="-27.2725104" lon="151.2879502">
  <ele>363.01</ele>
  <time>2026-09-01T19:58:30Z</time>
  <course>125.83</course>
  <speed>25.35461299251085</speed>
  <fix>3d</fix>
</trkpt>
<trkpt lat="-27.2724838" lon="151.2879087">
  <ele>362.94</ele>
  <time>2026-09-01T19:58:30Z</time>
  <course>126.12</course>
  <speed>25.33</speed>
  <fix>3d</fix>
</trkpt>
<trkpt lat="-27.2725236" lon="151.2879706">
  <ele>363.02</ele>
  <time>2026-09-01T19:58:30Z</time>
  <course>125.83</course>
  <speed>25.35461299251085</speed>
  <fix>3d</fix>
</trkpt>
<trkpt lat="-27.2725105" lon="151.2879501">
  <ele>362.95</ele>
  <time>2026-09-01T19:58:30Z</time>
  <course>126.11</course>
  <speed>25.33</speed>
  <fix>3d</fix>
</trkpt>
<trkpt lat="-27.272537" lon="151.2879912">
  <ele>363.03</ele>
  <time>2026-09-01T19:58:30Z</time>
  <course>125.83</course>
  <speed>25.35461299251085</speed>
  <fix>3d</fix>
</trkpt>
<trkpt lat="-27.2725105" lon="151.2879501">
  <ele>362.95</ele>
  <time>2026-09-01T19:58:30Z</time>
  <course>126.11</course>
  <speed>25.33</speed>
  <fix>3d</fix>
</trkpt>
<trkpt lat="-27.2725504" lon="151.2880119">
  <ele>363.03</ele>
  <time>2026-09-01T19:58:30Z</time>
  <course>125.84</course>
  <speed>25.35461299251085</speed>
  <fix>3d</fix>
</trkpt>
<trkpt lat="-27.2725374" lon="151.2879914">
  <ele>362.96</ele>
  <time>2026-09-01T19:58:30Z</time>
  <course>126.1</course>
  <speed>25.33</speed>
  <fix>3d</fix>
</trkpt>
<trkpt lat="-27.2725638" lon="151.2880326">
  <ele>363.04</ele>
  <time>2026-09-01T19:58:31Z</time>
  <course>125.87</course>
  <speed>25.36269898886946</speed>
  <fix>3d</fix>
</trkpt>
<trkpt lat="-27.2725374" lon="151.2879914">
  <ele>362.96</ele>
  <time>2026-09-01T19:58:31Z</time>
  <course>126.1</course>
  <speed>25.33</speed>
  <fix>3d</fix>
</trkpt>
<trkpt lat="-27.2725773" lon="151.2880535">
  <ele>363.04</ele>
  <time>2026-09-01T19:58:31Z</time>
  <course>125.88</course>
  <speed>25.36269898886946</speed>
  <fix>3d</fix>
</trkpt>
<trkpt lat="-27.2725643" lon="151.2880329">
  <ele>362.97</ele>
  <time>2026-09-01T19:58:31Z</time>
  <course>126.1</course>
  <speed>25.34</speed>
  <fix>3d</fix>
</trkpt>
<trkpt lat="-27.2725907" lon="151.288074">
  <ele>363.04</ele>
  <time>2026-09-01T19:58:31Z</time>
  <course>125.87</course>
  <speed>25.35461299251085</speed>
  <fix>3d</fix>
</trkpt>
<trkpt lat="-27.2725643" lon="151.2880329">
  <ele>362.97</ele>
  <time>2026-09-01T19:58:31Z</time>
  <course>126.1</course>
  <speed>25.34</speed>
  <fix>3d</fix>
</trkpt>
<trkpt lat="-27.272604" lon="151.2880945">
  <ele>363.04</ele>
  <time>2026-09-01T19:58:31Z</time>
  <course>125.9</course>
  <speed>25.34652836188814</speed>
  <fix>3d</fix>
</trkpt>
<trkpt lat="-27.2725912" lon="151.2880744">
  <ele>362.97</ele>
  <time>2026-09-01T19:58:31Z</time>
  <course>126.1</course>
  <speed>25.34</speed>
  <fix>3d</fix>
</trkpt>
<trkpt lat="-27.2726177" lon="151.2881158">
  <ele>363.03</ele>
  <time>2026-09-01T19:58:31Z</time>
  <course>125.91</course>
  <speed>25.340643243611634</speed>
  <fix>3d</fix>
</trkpt>
<trkpt lat="-27.2725912" lon="151.2880744">
  <ele>362.97</ele>
  <time>2026-09-01T19:58:31Z</time>
  <course>126.1</course>
  <speed>25.34</speed>
  <fix>3d</fix>
</trkpt>
<trkpt lat="-27.272631" lon="151.2881362">
  <ele>363.03</ele>
  <time>2026-09-01T19:58:31Z</time>
  <course>125.89</course>
  <speed>25.332558102173575</speed>
  <fix>3d</fix>
</trkpt>
<trkpt lat="-27.272618" lon="151.2881157">
  <ele>362.98</ele>
  <time>2026-09-01T19:58:31Z</time>
  <course>126.11</course>
  <speed>25.34</speed>
  <fix>3d</fix>
</trkpt>
<trkpt lat="-27.2726443" lon="151.2881568">
  <ele>363.03</ele>
  <time>2026-09-01T19:58:31Z</time>
  <course>125.84</course>
  <speed>25.338445098308615</speed>
  <fix>3d</fix>
</trkpt>
<trkpt lat="-27.272618" lon="151.2881157">
  <ele>362.98</ele>
  <time>2026-09-01T19:58:31Z</time>
  <course>126.11</course>
  <speed>25.34</speed>
  <fix>3d</fix>
</trkpt>
<trkpt lat="-27.2726577" lon="151.2881774">
  <ele>363.03</ele>
  <time>2026-09-01T19:58:31Z</time>
  <course>125.82</course>
  <speed>25.338445098308615</speed>
  <fix>3d</fix>
</trkpt>
<trkpt lat="-27.2726448" lon="151.288157">
  <ele>362.97</ele>
  <time>2026-09-01T19:58:31Z</time>
  <course>126.12</course>
  <speed>25.35</speed>
  <fix>3d</fix>
</trkpt>
<trkpt lat="-27.2726711" lon="151.288198">
  <ele>363.03</ele>
  <time>2026-09-01T19:58:31Z</time>
  <course>125.82</course>
  <speed>25.332558102173575</speed>
  <fix>3d</fix>
</trkpt>
<trkpt lat="-27.2726448" lon="151.288157">
  <ele>362.97</ele>
  <time>2026-09-01T19:58:31Z</time>
  <course>126.12</course>
  <speed>25.35</speed>
  <fix>3d</fix>
</trkpt>
<trkpt lat="-27.2726846" lon="151.2882188">
  <ele>363.04</ele>
  <time>2026-09-01T19:58:31Z</time>
  <course>125.81</course>
  <speed>25.340643243611634</speed>
  <fix>3d</fix>
</trkpt>
<trkpt lat="-27.2726717" lon="151.2881985">
  <ele>362.97</ele>
  <time>2026-09-01T19:58:31Z</time>
  <course>126.1</course>
  <speed>25.35</speed>
  <fix>3d</fix>
</trkpt>
<trkpt lat="-27.272698" lon="151.2882395">
  <ele>363.04</ele>
  <time>2026-09-01T19:58:31Z</time>
  <course>125.76</course>
  <speed>25.342849090029322</speed>
  <fix>3d</fix>
</trkpt>
<trkpt lat="-27.2726717" lon="151.2881985">
  <ele>362.97</ele>
  <time>2026-09-01T19:58:31Z</time>
  <course>126.1</course>
  <speed>25.35</speed>
  <fix>3d</fix>
</trkpt>
<trkpt lat="-27.2727114" lon="151.2882601">
  <ele>363.04</ele>
  <time>2026-09-01T19:58:31Z</time>
  <course>125.7</course>
  <speed>25.342849090029322</speed>
  <fix>3d</fix>
</trkpt>
<trkpt lat="-27.2726985" lon="151.2882399">
  <ele>362.98</ele>
  <time>2026-09-01T19:58:31Z</time>
  <course>126.07</course>
  <speed>25.36</speed>
  <fix>3d</fix>
</trkpt>
<trkpt lat="-27.2727247" lon="151.2882808">
  <ele>363.04</ele>
  <time>2026-09-01T19:58:31Z</time>
  <course>125.69</course>
  <speed>25.345062635550935</speed>
  <fix>3d</fix>
</trkpt>
<trkpt lat="-27.2726985" lon="151.2882399">
  <ele>362.98</ele>
  <time>2026-09-01T19:58:31Z</time>
  <course>126.07</course>
  <speed>25.36</speed>
  <fix>3d</fix>
</trkpt>
<trkpt lat="-27.2727381" lon="151.2883015">
  <ele>363.04</ele>
  <time>2026-09-01T19:58:31Z</time>
  <course>125.73</course>
  <speed>25.345062635550935</speed>
  <fix>3d</fix>
</trkpt>
<trkpt lat="-27.2727253" lon="151.2882813">
  <ele>362.98</ele>
  <time>2026-09-01T19:58:31Z</time>
  <course>126.03</course>
  <speed>25.37</speed>
  <fix>3d</fix>
</trkpt>
<trkpt lat="-27.2727514" lon="151.2883221">
  <ele>363.03</ele>
  <time>2026-09-01T19:58:31Z</time>
  <course>125.74</course>
  <speed>25.345062635550935</speed>
  <fix>3d</fix>
</trkpt>
<trkpt lat="-27.2727253" lon="151.2882813">
  <ele>362.98</ele>
  <time>2026-09-01T19:58:31Z</time>
  <course>126.03</course>
  <speed>25.37</speed>
  <fix>3d</fix>
</trkpt>
<trkpt lat="-27.2727647" lon="151.2883427">
  <ele>363.04</ele>
  <time>2026-09-01T19:58:31Z</time>
  <course>125.81</course>
  <speed>25.33918901622544</speed>
  <fix>3d</fix>
</trkpt>
<trkpt lat="-27.2727521" lon="151.2883228">
  <ele>362.98</ele>
  <time>2026-09-01T19:58:31Z</time>
  <course>126.01</course>
  <speed>25.37</speed>
  <fix>3d</fix>
</trkpt>
<trkpt lat="-27.272778" lon="151.2883633">
  <ele>363.04</ele>
  <time>2026-09-01T19:58:31Z</time>
  <course>125.8</course>
  <speed>25.33109551519634</speed>
  <fix>3d</fix>
</trkpt>
<trkpt lat="-27.2727521" lon="151.2883228">
  <ele>362.98</ele>
  <time>2026-09-01T19:58:31Z</time>
  <course>126.01</course>
  <speed>25.37</speed>
  <fix>3d</fix>
</trkpt>
<trkpt lat="-27.272791" lon="151.2883833">
  <ele>363.04</ele>
  <time>2026-09-01T19:58:31Z</time>
  <course>125.75</course>
  <speed>25.325222605142095</speed>
  <fix>3d</fix>
</trkpt>
<trkpt lat="-27.2727789" lon="151.2883643">
  <ele>362.98</ele>
  <time>2026-09-01T19:58:31Z</time>
  <course>125.99</course>
  <speed>25.38</speed>
  <fix>3d</fix>
</trkpt>
<trkpt lat="-27.2728041" lon="151.2884037">
  <ele>363.04</ele>
  <time>2026-09-01T19:58:31Z</time>
  <course>125.75</course>
  <speed>25.325222605142095</speed>
  <fix>3d</fix>
</trkpt>
<trkpt lat="-27.2727789" lon="151.2883643">
  <ele>362.98</ele>
  <time>2026-09-01T19:58:31Z</time>
  <course>125.99</course>
  <speed>25.38</speed>
  <fix>3d</fix>
</trkpt>
<trkpt lat="-27.2728174" lon="151.2884243">
  <ele>363.04</ele>
  <time>2026-09-01T19:58:31Z</time>
  <course>125.72</course>
  <speed>25.3112563892036</speed>
  <fix>3d</fix>
</trkpt>
<trkpt lat="-27.2728057" lon="151.2884058">
  <ele>362.98</ele>
  <time>2026-09-01T19:58:31Z</time>
  <course>125.98</course>
  <speed>25.38</speed>
  <fix>3d</fix>
</trkpt>
<trkpt lat="-27.2728308" lon="151.288445">
  <ele>363.03</ele>
  <time>2026-09-01T19:58:31Z</time>
  <course>125.66</course>
  <speed>25.317128589158767</speed>
  <fix>3d</fix>
</trkpt>
<trkpt lat="-27.2728057" lon="151.2884058">
  <ele>362.98</ele>
  <time>2026-09-01T19:58:31Z</time>
  <course>125.98</course>
  <speed>25.38</speed>
  <fix>3d</fix>
</trkpt>
<trkpt lat="-27.2728442" lon="151.2884657">
  <ele>363.03</ele>
  <time>2026-09-01T19:58:31Z</time>
  <course>125.64</course>
  <speed>25.31935228239459</speed>
  <fix>3d</fix>
</trkpt>
<trkpt lat="-27.2728325" lon="151.2884474">
  <ele>362.98</ele>
  <time>2026-09-01T19:58:31Z</time>
  <course>125.97</course>
  <speed>25.38</speed>
  <fix>3d</fix>
</trkpt>
<trkpt lat="-27.2728577" lon="151.2884866">
  <ele>363.03</ele>
  <time>2026-09-01T19:58:31Z</time>
  <course>125.68</course>
  <speed>25.31935228239459</speed>
  <fix>3d</fix>
</trkpt>
<trkpt lat="-27.2728325" lon="151.2884474">
  <ele>362.98</ele>
  <time>2026-09-01T19:58:31Z</time>
  <course>125.97</course>
  <speed>25.38</speed>
  <fix>3d</fix>
</trkpt>
<trkpt lat="-27.2728711" lon="151.2885074">
  <ele>363.03</ele>
  <time>2026-09-01T19:58:31Z</time>
  <course>125.61</course>
  <speed>25.33331798245149</speed>
  <fix>3d</fix>
</trkpt>
<trkpt lat="-27.2728594" lon="151.2884889">
  <ele>362.98</ele>
  <time>2026-09-01T19:58:31Z</time>
  <course>125.96</course>
  <speed>25.39</speed>
  <fix>3d</fix>
</trkpt>
<trkpt lat="-27.2728845" lon="151.2885282">
  <ele>363.03</ele>
  <time>2026-09-01T19:58:31Z</time>
  <course>125.59</course>
  <speed>25.34141471978232</speed>
  <fix>3d</fix>
</trkpt>
<trkpt lat="-27.2728594" lon="151.2884889">
  <ele>362.98</ele>
  <time>2026-09-01T19:58:31Z</time>
  <course>125.96</course>
  <speed>25.39</speed>
  <fix>3d</fix>
</trkpt>
<trkpt lat="-27.2728984" lon="151.2885498">
  <ele>363.03</ele>
  <time>2026-09-01T19:58:31Z</time>
  <course>125.61</course>
  <speed>25.34951281583139</speed>
  <fix>3d</fix>
</trkpt>
<trkpt lat="-27.2728862" lon="151.2885305">
  <ele>362.98</ele>
  <time>2026-09-01T19:58:31Z</time>
  <course>125.95</course>
  <speed>25.39</speed>
  <fix>3d</fix>
</trkpt>
<trkpt lat="-27.2729117" lon="151.2885703">
  <ele>363.03</ele>
  <time>2026-09-01T19:58:31Z</time>
  <course>125.62</course>
  <speed>25.34951281583139</speed>
  <fix>3d</fix>
</trkpt>
<trkpt lat="-27.2728862" lon="151.2885305">
  <ele>362.98</ele>
  <time>2026-09-01T19:58:31Z</time>
  <course>125.95</course>
  <speed>25.39</speed>
  <fix>3d</fix>
</trkpt>
<trkpt lat="-27.272925" lon="151.2885911">
  <ele>363.03</ele>
  <time>2026-09-01T19:58:31Z</time>
  <course>125.64</course>
  <speed>25.34951281583139</speed>
  <fix>3d</fix>
</trkpt>
<trkpt lat="-27.2729129" lon="151.2885721">
  <ele>362.99</ele>
  <time>2026-09-01T19:58:31Z</time>
  <course>125.94</course>
  <speed>25.4</speed>
  <fix>3d</fix>
</trkpt>
<trkpt lat="-27.2729384" lon="151.2886118">
  <ele>363.03</ele>
  <time>2026-09-01T19:58:31Z</time>
  <course>125.67</course>
  <speed>25.34951281583139</speed>
  <fix>3d</fix>
</trkpt>
<trkpt lat="-27.2729129" lon="151.2885721">
  <ele>362.99</ele>
  <time>2026-09-01T19:58:31Z</time>
  <course>125.94</course>
  <speed>25.4</speed>
  <fix>3d</fix>
</trkpt>
<trkpt lat="-27.2729517" lon="151.2886325">
  <ele>363.03</ele>
  <time>2026-09-01T19:58:31Z</time>
  <course>125.65</course>
  <speed>25.34951281583139</speed>
  <fix>3d</fix>
</trkpt>
<trkpt lat="-27.2729397" lon="151.2886136">
  <ele>362.99</ele>
  <time>2026-09-01T19:58:31Z</time>
  <course>125.94</course>
  <speed>25.4</speed>
  <fix>3d</fix>
</trkpt>
<trkpt lat="-27.2729652" lon="151.2886533">
  <ele>363.03</ele>
  <time>2026-09-01T19:58:31Z</time>
  <course>125.59</course>
  <speed>25.355380099694816</speed>
  <fix>3d</fix>
</trkpt>
<trkpt lat="-27.2729397" lon="151.2886136">
  <ele>362.99</ele>
  <time>2026-09-01T19:58:31Z</time>
  <course>125.94</course>
  <speed>25.4</speed>
  <fix>3d</fix>
</trkpt>
<trkpt lat="-27.2729785" lon="151.288674">
  <ele>363.04</ele>
  <time>2026-09-01T19:58:31Z</time>
  <course>125.57</course>
  <speed>25.355380099694816</speed>
  <fix>3d</fix>
</trkpt>
<trkpt lat="-27.2729665" lon="151.2886552">
  <ele>362.99</ele>
  <time>2026-09-01T19:58:31Z</time>
  <course>125.94</course>
  <speed>25.41</speed>
  <fix>3d</fix>
</trkpt>
<trkpt lat="-27.272992" lon="151.2886949">
  <ele>363.04</ele>
  <time>2026-09-01T19:58:31Z</time>
  <course>125.62</course>
  <speed>25.357612269296965</speed>
  <fix>3d</fix>
</trkpt>
<trkpt lat="-27.2729665" lon="151.2886552">
  <ele>362.99</ele>
  <time>2026-09-01T19:58:31Z</time>
  <course>125.94</course>
  <speed>25.41</speed>
  <fix>3d</fix>
</trkpt>
<trkpt lat="-27.2730054" lon="151.2887157">
  <ele>363.04</ele>
  <time>2026-09-01T19:58:31Z</time>
  <course>125.63</course>
  <speed>25.371576616363438</speed>
  <fix>3d</fix>
</trkpt>
<trkpt lat="-27.2729933" lon="151.2886967">
  <ele>363.0</ele>
  <time>2026-09-01T19:58:31Z</time>
  <course>125.94</course>
  <speed>25.41</speed>
  <fix>3d</fix>
</trkpt>
<trkpt lat="-27.2730189" lon="151.2887367">
  <ele>363.04</ele>
  <time>2026-09-01T19:58:31Z</time>
  <course>125.67</course>
  <speed>25.371576616363438</speed>
  <fix>3d</fix>
</trkpt>
<trkpt lat="-27.2729933" lon="151.2886967">
  <ele>363.0</ele>
  <time>2026-09-01T19:58:31Z</time>
  <course>125.94</course>
  <speed>25.41</speed>
  <fix>3d</fix>
</trkpt>
<trkpt lat="-27.2730323" lon="151.2887575">
  <ele>363.04</ele>
  <time>2026-09-01T19:58:31Z</time>
  <course>125.72</course>
  <speed>25.38554116027468</speed>
  <fix>3d</fix>
</trkpt>
<trkpt lat="-27.2730201" lon="151.2887384">
  <ele>363.0</ele>
  <time>2026-09-01T19:58:31Z</time>
  <course>125.94</course>
  <speed>25.42</speed>
  <fix>3d</fix>
</trkpt>
<trkpt lat="-27.2730458" lon="151.2887785">
  <ele>363.05</ele>
  <time>2026-09-01T19:58:31Z</time>
  <course>125.79</course>
  <speed>25.405373447363456</speed>
  <fix>3d</fix>
</trkpt>
<trkpt lat="-27.2730201" lon="151.2887384">
  <ele>363.0</ele>
  <time>2026-09-01T19:58:31Z</time>
  <course>125.94</course>
  <speed>25.42</speed>
  <fix>3d</fix>
</trkpt>
<trkpt lat="-27.2730593" lon="151.2887994">
  <ele>363.06</ele>
  <time>2026-09-01T19:58:31Z</time>
  <course>125.95</course>
  <speed>25.419339094476868</speed>
  <fix>3d</fix>
</trkpt>
<trkpt lat="-27.2730469" lon="151.2887799">
  <ele>363.01</ele>
  <time>2026-09-01T19:58:31Z</time>
  <course>125.96</course>
  <speed>25.42</speed>
  <fix>3d</fix>
</trkpt>
<trkpt lat="-27.2730729" lon="151.2888204">
  <ele>363.07</ele>
  <time>2026-09-01T19:58:31Z</time>
  <course>126.49</course>
  <speed>25.4266631707741</speed>
  <fix>3d</fix>
</trkpt>
<trkpt lat="-27.2730469" lon="151.2887799">
  <ele>363.01</ele>
  <time>2026-09-01T19:58:31Z</time>
  <course>125.96</course>
  <speed>25.42</speed>
  <fix>3d</fix>
</trkpt>
<trkpt lat="-27.2730865" lon="151.2888413">
  <ele>363.09</ele>
  <time>2026-09-01T19:58:31Z</time>
  <course>127.37</course>
  <speed>25.43680207887776</speed>
  <fix>3d</fix>
</trkpt>
<trkpt lat="-27.2730738" lon="151.2888214">
  <ele>363.03</ele>
  <time>2026-09-01T19:58:31Z</time>
  <course>126.19</course>
  <speed>25.43</speed>
  <fix>3d</fix>
</trkpt>
<trkpt lat="-27.2731003" lon="151.288862">
  <ele>363.12</ele>
  <time>2026-09-01T19:58:31Z</time>
  <course>128.17</course>
  <speed>25.446321934613657</speed>
  <fix>3d</fix>
</trkpt>
<trkpt lat="-27.2730738" lon="151.2888214">
  <ele>363.03</ele>
  <time>2026-09-01T19:58:31Z</time>
  <course>126.19</course>
  <speed>25.43</speed>
  <fix>3d</fix>
</trkpt>
<trkpt lat="-27.2731143" lon="151.2888825">
  <ele>363.15</ele>
  <time>2026-09-01T19:58:31Z</time>
  <course>128.8</course>
  <speed>25.459945011723807</speed>
  <fix>3d</fix>
</trkpt>
<trkpt lat="-27.2731011" lon="151.2888628">
  <ele>363.07</ele>
  <time>2026-09-01T19:58:31Z</time>
  <course>127.32</course>
  <speed>25.43</speed>
  <fix>3d</fix>
</trkpt>
<trkpt lat="-27.2731289" lon="151.2889026">
  <ele>363.19</ele>
  <time>2026-09-01T19:58:31Z</time>
  <course>129.61</course>
  <speed>25.4895821856695</speed>
  <fix>3d</fix>
</trkpt>
<trkpt lat="-27.2731011" lon="151.2888628">
  <ele>363.07</ele>
  <time>2026-09-01T19:58:31Z</time>
  <course>127.32</course>
  <speed>25.43</speed>
  <fix>3d</fix>
</trkpt>
<trkpt lat="-27.2731439" lon="151.2889222">
  <ele>363.23</ele>
  <time>2026-09-01T19:58:31Z</time>
  <course>131.02</course>
  <speed>25.51667102111872</speed>
  <fix>3d</fix>
</trkpt>
<trkpt lat="-27.2731296" lon="151.2889031">
  <ele>363.14</ele>
  <time>2026-09-01T19:58:31Z</time>
  <course>129.97</course>
  <speed>25.44</speed>
  <fix>3d</fix>
</trkpt>
<trkpt lat="-27.2731592" lon="151.2889405">
  <ele>363.28</ele>
  <time>2026-09-01T19:58:31Z</time>
  <course>132.97</course>
  <speed>25.550516628827687</speed>
  <fix>3d</fix>
</trkpt>
<trkpt lat="-27.2731296" lon="151.2889031">
  <ele>363.14</ele>
  <time>2026-09-01T19:58:31Z</time>
  <course>129.97</course>
  <speed>25.44</speed>
  <fix>3d</fix>
</trkpt>
<trkpt lat="-27.2731756" lon="151.2889586">
  <ele>363.35</ele>
  <time>2026-09-01T19:58:31Z</time>
  <course>135.64</course>
  <speed>25.598632775990204</speed>
  <fix>3d</fix>
</trkpt>
<trkpt lat="-27.2731602" lon="151.2889413">
  <ele>363.25</ele>
  <time>2026-09-01T19:58:31Z</time>
  <course>134.32</course>
  <speed>25.48</speed>
  <fix>3d</fix>
</trkpt>
<trkpt lat="-27.2731935" lon="151.2889763">
  <ele>363.44</ele>
  <time>2026-09-01T19:58:31Z</time>
  <course>138.88</course>
  <speed>25.663740958792427</speed>
  <fix>3d</fix>
</trkpt>
<trkpt lat="-27.2731602" lon="151.2889413">
  <ele>363.25</ele>
  <time>2026-09-01T19:58:31Z</time>
  <course>134.32</course>
  <speed>25.48</speed>
  <fix>3d</fix>
</trkpt>
<trkpt lat="-27.2732116" lon="151.2889922">
  <ele>363.57</ele>
  <time>2026-09-01T19:58:31Z</time>
  <course>142.4</course>
  <speed>25.73345876480657</speed>
  <fix>3d</fix>
</trkpt>
<trkpt lat="-27.2731938" lon="151.2889763">
  <ele>363.41</ele>
  <time>2026-09-01T19:58:31Z</time>
  <course>140.26</course>
  <speed>25.56</speed>
  <fix>3d</fix>
</trkpt>
<trkpt lat="-27.2732308" lon="151.289007">
  <ele>363.73</ele>
  <time>2026-09-01T19:58:31Z</time>
  <course>146.06</course>
  <speed>25.783952373521014</speed>
  <fix>3d</fix>
</trkpt>
<trkpt lat="-27.2731938" lon="151.2889763">
  <ele>363.41</ele>
  <time>2026-09-01T19:58:31Z</time>
  <course>140.26</course>
  <speed>25.56</speed>
  <fix>3d</fix>
</trkpt>
<trkpt lat="-27.2732507" lon="151.2890203">
  <ele>363.93</ele>
  <time>2026-09-01T19:58:31Z</time>
  <course>149.61</course>
  <speed>25.818729635673403</speed>
  <fix>3d</fix>
</trkpt>
<trkpt lat="-27.2732309" lon="151.2890069">
  <ele>363.69</ele>
  <time>2026-09-01T19:58:31Z</time>
  <course>147.2</course>
  <speed>25.65</speed>
  <fix>3d</fix>
</trkpt>
<trkpt lat="-27.2732714" lon="151.2890323">
  <ele>364.17</ele>
  <time>2026-09-01T19:58:31Z</time>
  <course>153.18</course>
  <speed>25.836000077411363</speed>
  <fix>3d</fix>
</trkpt>
<trkpt lat="-27.2732309" lon="151.2890069">
  <ele>363.69</ele>
  <time>2026-09-01T19:58:31Z</time>
  <course>147.2</course>
  <speed>25.65</speed>
  <fix>3d</fix>
</trkpt>
<trkpt lat="-27.2732929" lon="151.2890429">
  <ele>364.44</ele>
  <time>2026-09-01T19:58:31Z</time>
  <course>156.77</course>
  <speed>25.832107927925666</speed>
  <fix>3d</fix>
</trkpt>
<trkpt lat="-27.2732711" lon="151.2890322">
  <ele>364.12</ele>
  <time>2026-09-01T19:58:31Z</time>
  <course>154.38</course>
  <speed>25.69</speed>
  <fix>3d</fix>
</trkpt>
<trkpt lat="-27.2733147" lon="151.2890519">
  <ele>364.75</ele>
  <time>2026-09-01T19:58:31Z</time>
  <course>160.33</course>
  <speed>25.813695977135858</speed>
  <fix>3d</fix>
</trkpt>
<trkpt lat="-27.2732711" lon="151.2890322">
  <ele>364.12</ele>
  <time>2026-09-01T19:58:31Z</time>
  <course>154.38</course>
  <speed>25.69</speed>
  <fix>3d</fix>
</trkpt>
<trkpt lat="-27.273337" lon="151.2890593">
  <ele>365.08</ele>
  <time>2026-09-01T19:58:31Z</time>
  <course>163.84</course>
  <speed>25.801079434783347</speed>
  <fix>3d</fix>
</trkpt>
<trkpt lat="-27.2733139" lon="151.2890517">
  <ele>364.68</ele>
  <time>2026-09-01T19:58:31Z</time>
  <course>161.46</course>
  <speed>25.67</speed>
  <fix>3d</fix>
</trkpt>
<trkpt lat="-27.2733595" lon="151.2890652">
  <ele>365.44</ele>
  <time>2026-09-01T19:58:31Z</time>
  <course>167.36</course>
  <speed>25.78142742363192</speed>
  <fix>3d</fix>
</trkpt>
<trkpt lat="-27.2733139" lon="151.2890517">
  <ele>364.68</ele>
  <time>2026-09-01T19:58:31Z</time>
  <course>161.46</course>
  <speed>25.67</speed>
  <fix>3d</fix>
</trkpt>
<trkpt lat="-27.2733823" lon="151.2890695">
  <ele>365.82</ele>
  <time>2026-09-01T19:58:31Z</time>
  <course>170.91</course>
  <speed>25.764739470834943</speed>
  <fix>3d</fix>
</trkpt>
<trkpt lat="-27.2733583" lon="151.2890651">
  <ele>365.36</ele>
  <time>2026-09-01T19:58:31Z</time>
  <course>168.54</course>
  <speed>25.64</speed>
  <fix>3d</fix>
</trkpt>
<trkpt lat="-27.2734052" lon="151.2890722">
  <ele>366.21</ele>
  <time>2026-09-01T19:58:31Z</time>
  <course>174.5</course>
  <speed>25.73729783796271</speed>
  <fix>3d</fix>
</trkpt>
<trkpt lat="-27.2733583" lon="151.2890651">
  <ele>365.36</ele>
  <time>2026-09-01T19:58:31Z</time>
  <course>168.54</course>
  <speed>25.64</speed>
  <fix>3d</fix>
</trkpt>
<trkpt lat="-27.2734281" lon="151.2890733">
  <ele>366.62</ele>
  <time>2026-09-01T19:58:31Z</time>
  <course>178.13</course>
  <speed>25.71102876199239</speed>
  <fix>3d</fix>
</trkpt>
<trkpt lat="-27.2734039" lon="151.2890722">
  <ele>366.12</ele>
  <time>2026-09-01T19:58:31Z</time>
  <course>175.71</course>
  <speed>25.61</speed>
  <fix>3d</fix>
</trkpt>
<trkpt lat="-27.2734509" lon="151.2890727">
  <ele>367.05</ele>
  <time>2026-09-01T19:58:31Z</time>
  <course>181.72</course>
  <speed>25.686560688422265</speed>
  <fix>3d</fix>
</trkpt>
<trkpt lat="-27.2734039" lon="151.2890722">
  <ele>366.12</ele>
  <time>2026-09-01T19:58:31Z</time>
  <course>175.71</course>
  <speed>25.61</speed>
  <fix>3d</fix>
</trkpt>
<trkpt lat="-27.2734737" lon="151.2890705">
  <ele>367.49</ele>
  <time>2026-09-01T19:58:31Z</time>
  <course>185.3</course>
  <speed>25.65135474005223</speed>
  <fix>3d</fix>
</trkpt>
<trkpt lat="-27.2734498" lon="151.2890728">
  <ele>366.94</ele>
  <time>2026-09-01T19:58:31Z</time>
  <course>182.92</course>
  <speed>25.58</speed>
  <fix>3d</fix>
</trkpt>
<trkpt lat="-27.2734962" lon="151.2890668">
  <ele>367.94</ele>
  <time>2026-09-01T19:58:31Z</time>
  <course>188.82</course>
  <speed>25.615536301237185</speed>
  <fix>3d</fix>
</trkpt>
<trkpt lat="-27.2734498" lon="151.2890728">
  <ele>366.94</ele>
  <time>2026-09-01T19:58:31Z</time>
  <course>182.92</course>
  <speed>25.58</speed>
  <fix>3d</fix>
</trkpt>
<trkpt lat="-27.2735185" lon="151.2890615">
  <ele>368.41</ele>
  <time>2026-09-01T19:58:31Z</time>
  <course>192.19</course>
  <speed>25.575867531718256</speed>
  <fix>3d</fix>
</trkpt>
<trkpt lat="-27.2734954" lon="151.289067">
  <ele>367.82</ele>
  <time>2026-09-01T19:58:31Z</time>
  <course>190.05</course>
  <speed>25.55</speed>
  <fix>3d</fix>
</trkpt>
<trkpt lat="-27.2735403" lon="151.2890548">
  <ele>368.88</ele>
  <time>2026-09-01T19:58:31Z</time>
  <course>195.31</course>
  <speed>25.524492159492617</speed>
  <fix>3d</fix>
</trkpt>
<trkpt lat="-27.2734954" lon="151.289067">
  <ele>367.82</ele>
  <time>2026-09-01T19:58:31Z</time>
  <course>190.05</course>
  <speed>25.55</speed>
  <fix>3d</fix>
</trkpt>
<trkpt lat="-27.2735618" lon="151.2890467">
  <ele>369.35</ele>
  <time>2026-09-01T19:58:31Z</time>
  <course>198.23</course>
  <speed>25.48642383701566</speed>
  <fix>3d</fix>
</trkpt>
<trkpt lat="-27.2735401" lon="151.289055">
  <ele>368.73</ele>
  <time>2026-09-01T19:58:31Z</time>
  <course>196.83</course>
  <speed>25.51</speed>
  <fix>3d</fix>
</trkpt>
<trkpt lat="-27.2735829" lon="151.2890373">
  <ele>369.82</ele>
  <time>2026-09-01T19:58:31Z</time>
  <course>201.17</course>
  <speed>25.46559247298205</speed>
  <fix>3d</fix>
</trkpt>
<trkpt lat="-27.2735401" lon="151.289055">
  <ele>368.73</ele>
  <time>2026-09-01T19:58:31Z</time>
  <course>196.83</course>
  <speed>25.51</speed>
  <fix>3d</fix>
</trkpt>
<trkpt lat="-27.2736035" lon="151.2890267">
  <ele>370.28</ele>
  <time>2026-09-01T19:58:31Z</time>
  <course>204.07</course>
  <speed>25.438453176244817</speed>
  <fix>3d</fix>
</trkpt>
<trkpt lat="-27.2735832" lon="151.2890373">
  <ele>369.65</ele>
  <time>2026-09-01T19:58:31Z</time>
  <course>203.04</course>
  <speed>25.48</speed>
  <fix>3d</fix>
</trkpt>
<trkpt lat="-27.2736237" lon="151.289015">
  <ele>370.73</ele>
  <time>2026-09-01T19:58:31Z</time>
  <course>206.74</course>
  <speed>25.40896298552934</speed>
  <fix>3d</fix>
</trkpt>
<trkpt lat="-27.2735832" lon="151.2890373">
  <ele>369.65</ele>
  <time>2026-09-01T19:58:31Z</time>
  <course>203.04</course>
  <speed>25.48</speed>
  <fix>3d</fix>
</trkpt>
<trkpt lat="-27.2736433" lon="151.2890021">
  <ele>371.16</ele>
  <time>2026-09-01T19:58:31Z</time>
  <course>209.27</course>
  <speed>25.381396730676585</speed>
  <fix>3d</fix>
</trkpt>
<trkpt lat="-27.2736243" lon="151.2890148">
  <ele>370.53</ele>
  <time>2026-09-01T19:58:31Z</time>
  <course>208.77</course>
  <speed>25.44</speed>
  <fix>3d</fix>
</trkpt>
<trkpt lat="-27.2736625" lon="151.2889883">
  <ele>371.58</ele>
  <time>2026-09-01T19:58:31Z</time>
  <course>211.66</course>
  <speed>25.34766655927129</speed>
  <fix>3d</fix>
</trkpt>
<trkpt lat="-27.2736243" lon="151.2890148">
  <ele>370.53</ele>
  <time>2026-09-01T19:58:31Z</time>
  <course>208.77</course>
  <speed>25.44</speed>
  <fix>3d</fix>
</trkpt>
<trkpt lat="-27.273681" lon="151.2889735">
  <ele>371.98</ele>
  <time>2026-09-01T19:58:31Z</time>
  <course>213.98</course>
  <speed>25.328420795620087</speed>
  <fix>3d</fix>
</trkpt>
<trkpt lat="-27.2736633" lon="151.288988">
  <ele>371.37</ele>
  <time>2026-09-01T19:58:31Z</time>
  <course>214.02</course>
  <speed>25.4</speed>
  <fix>3d</fix>
</trkpt>
<trkpt lat="-27.273699" lon="151.2889579">
  <ele>372.36</ele>
  <time>2026-09-01T19:58:31Z</time>
  <course>216.16</course>
  <speed>25.297171778679136</speed>
  <fix>3d</fix>
</trkpt>
<trkpt lat="-27.2736633" lon="151.288988">
  <ele>371.37</ele>
  <time>2026-09-01T19:58:31Z</time>
  <course>214.02</course>
  <speed>25.4</speed>
  <fix>3d</fix>
</trkpt>
<trkpt lat="-27.2737165" lon="151.2889415">
  <ele>372.72</ele>
  <time>2026-09-01T19:58:31Z</time>
  <course>218.25</course>
  <speed>25.26878904894336</speed>
  <fix>3d</fix>
</trkpt>
<trkpt lat="-27.2736998" lon="151.2889576">
  <ele>372.13</ele>
  <time>2026-09-01T19:58:31Z</time>
  <course>218.78</course>
  <speed>25.35</speed>
  <fix>3d</fix>
</trkpt>
<trkpt lat="-27.2737335" lon="151.2889243">
  <ele>373.06</ele>
  <time>2026-09-01T19:58:31Z</time>
  <course>220.18</course>
  <speed>25.2365310611423</speed>
  <fix>3d</fix>
</trkpt>
<trkpt lat="-27.2736998" lon="151.2889576">
  <ele>372.13</ele>
  <time>2026-09-01T19:58:31Z</time>
  <course>218.78</course>
  <speed>25.35</speed>
  <fix>3d</fix>
</trkpt>
<trkpt lat="-27.2737498" lon="151.2889067">
  <ele>373.36</ele>
  <time>2026-09-01T19:58:31Z</time>
  <course>222.0</course>
  <speed>25.201285681488553</speed>
  <fix>3d</fix>
</trkpt>
<trkpt lat="-27.2737342" lon="151.288924">
  <ele>372.81</ele>
  <time>2026-09-01T19:58:31Z</time>
  <course>223.02</course>
  <speed>25.28</speed>
  <fix>3d</fix>
</trkpt>
<trkpt lat="-27.2737655" lon="151.2888885">
  <ele>373.64</ele>
  <time>2026-09-01T19:58:31Z</time>
  <course>223.78</course>
  <speed>25.143500154115376</speed>
  <fix>3d</fix>
</trkpt>
<trkpt lat="-27.2737342" lon="151.288924">
  <ele>372.81</ele>
  <time>2026-09-01T19:58:31Z</time>
  <course>223.02</course>
  <speed>25.28</speed>
  <fix>3d</fix>
</trkpt>
<trkpt lat="-27.2737807" lon="151.2888698">
  <ele>373.89</ele>
  <time>2026-09-01T19:58:31Z</time>
  <course>225.47</course>
  <speed>25.101484019874203</speed>
  <fix>3d</fix>
</trkpt>
<trkpt lat="-27.2737663" lon="151.288888">
  <ele>373.39</ele>
  <time>2026-09-01T19:58:31Z</time>
  <course>226.79</course>
  <speed>25.2</speed>
  <fix>3d</fix>
</trkpt>
<trkpt lat="-27.2737953" lon="151.2888507">
  <ele>374.11</ele>
  <time>2026-09-01T19:58:31Z</time>
  <course>227.13</course>
  <speed>25.045312934758872</speed>
  <fix>3d</fix>
</trkpt>
<trkpt lat="-27.2737663" lon="151.288888">
  <ele>373.39</ele>
  <time>2026-09-01T19:58:31Z</time>
  <course>226.79</course>
  <speed>25.2</speed>
  <fix>3d</fix>
</trkpt>
<trkpt lat="-27.2738094" lon="151.2888312">
  <ele>374.29</ele>
  <time>2026-09-01T19:58:31Z</time>
  <course>228.68</course>
  <speed>24.99200872278977</speed>
  <fix>3d</fix>
</trkpt>
<trkpt lat="-27.2737962" lon="151.2888499">
  <ele>373.84</ele>
  <time>2026-09-01T19:58:31Z</time>
  <course>230.25</course>
  <speed>25.11</speed>
  <fix>3d</fix>
</trkpt>
<trkpt lat="-27.273823" lon="151.2888111">
  <ele>374.45</ele>
  <time>2026-09-01T19:58:31Z</time>
  <course>230.16</course>
  <speed>24.94629832259688</speed>
  <fix>3d</fix>
</trkpt>
<trkpt lat="-27.2737962" lon="151.2888499">
  <ele>373.84</ele>
  <time>2026-09-01T19:58:31Z</time>
  <course>230.25</course>
  <speed>25.11</speed>
  <fix>3d</fix>
</trkpt>
<trkpt lat="-27.2738361" lon="151.2887907">
  <ele>374.57</ele>
  <time>2026-09-01T19:58:31Z</time>
  <course>231.62</course>
  <speed>24.89978513963524</speed>
  <fix>3d</fix>
</trkpt>
<trkpt lat="-27.273824" lon="151.28881">
  <ele>374.17</ele>
  <time>2026-09-01T19:58:31Z</time>
  <course>233.41</course>
  <speed>25.01</speed>
  <fix>3d</fix>
</trkpt>
<trkpt lat="-27.2738488" lon="151.2887699">
  <ele>374.65</ele>
  <time>2026-09-01T19:58:31Z</time>
  <course>233.03</course>
  <speed>24.856115947589238</speed>
  <fix>3d</fix>
</trkpt>
<trkpt lat="-27.273824" lon="151.28881">
  <ele>374.17</ele>
  <time>2026-09-01T19:58:31Z</time>
  <course>233.41</course>
  <speed>25.01</speed>
  <fix>3d</fix>
</trkpt>
<trkpt lat="-27.273861" lon="151.2887488">
  <ele>374.7</ele>
  <time>2026-09-01T19:58:31Z</time>
  <course>234.5</course>
  <speed>24.81376432547065</speed>
  <fix>3d</fix>
</trkpt>
<trkpt lat="-27.2738498" lon="151.2887688">
  <ele>374.37</ele>
  <time>2026-09-01T19:58:31Z</time>
  <course>236.34</course>
  <speed>24.92</speed>
  <fix>3d</fix>
</trkpt>
<trkpt lat="-27.2738728" lon="151.2887274">
  <ele>374.71</ele>
  <time>2026-09-01T19:58:31Z</time>
  <course>235.94</course>
  <speed>24.78161415243164</speed>
  <fix>3d</fix>
</trkpt>
<trkpt lat="-27.2738498" lon="151.2887688">
  <ele>374.37</ele>
  <time>2026-09-01T19:58:31Z</time>
  <course>236.34</course>
  <speed>24.92</speed>
  <fix>3d</fix>
</trkpt>
<trkpt lat="-27.273884" lon="151.2887057">
  <ele>374.7</ele>
  <time>2026-09-01T19:58:31Z</time>
  <course>237.38</course>
  <speed>24.752761462107614</speed>
  <fix>3d</fix>
</trkpt>
<trkpt lat="-27.2738736" lon="151.2887262">
  <ele>374.44</ele>
  <time>2026-09-01T19:58:31Z</time>
  <course>239.18</course>
  <speed>24.83</speed>
  <fix>3d</fix>
</trkpt>
<trkpt lat="-27.2738948" lon="151.2886837">
  <ele>374.66</ele>
  <time>2026-09-01T19:58:31Z</time>
  <course>238.77</course>
  <speed>24.72588319959471</speed>
  <fix>3d</fix>
</trkpt>
<trkpt lat="-27.2738736" lon="151.2887262">
  <ele>374.44</ele>
  <time>2026-09-01T19:58:31Z</time>
  <course>239.18</course>
  <speed>24.83</speed>
  <fix>3d</fix>
</trkpt>
<trkpt lat="-27.273905" lon="151.2886614">
  <ele>374.59</ele>
  <time>2026-09-01T19:58:31Z</time>
  <course>240.23</course>
  <speed>24.70410492205698</speed>
  <fix>3d</fix>
</trkpt>
<trkpt lat="-27.2738955" lon="151.2886825">
  <ele>374.4</ele>
  <time>2026-09-01T19:58:31Z</time>
  <course>241.99</course>
  <speed>24.76</speed>
  <fix>3d</fix>
</trkpt>
<trkpt lat="-27.2739148" lon="151.2886389">
  <ele>374.49</ele>
  <time>2026-09-01T19:58:31Z</time>
  <course>241.75</course>
  <speed>24.702082908127405</speed>
  <fix>3d</fix>
</trkpt>
<trkpt lat="-27.2738955" lon="151.2886825">
  <ele>374.4</ele>
  <time>2026-09-01T19:58:31Z</time>
  <course>241.99</course>
  <speed>24.76</speed>
  <fix>3d</fix>
</trkpt>
<trkpt lat="-27.2739241" lon="151.2886161">
  <ele>374.37</ele>
  <time>2026-09-01T19:58:31Z</time>
  <course>243.28</course>
  <speed>24.693369555409</speed>
  <fix>3d</fix>
</trkpt>
<trkpt lat="-27.2739154" lon="151.2886378">
  <ele>374.24</ele>
  <time>2026-09-01T19:58:31Z</time>
  <course>244.83</course>
  <speed>24.72</speed>
  <fix>3d</fix>
</trkpt>
<trkpt lat="-27.2739328" lon="151.288593">
  <ele>374.24</ele>
  <time>2026-09-01T19:58:31Z</time>
  <course>244.74</course>
  <speed>24.69654631724849</speed>
  <fix>3d</fix>
</trkpt>
<trkpt lat="-27.2739154" lon="151.2886378">
  <ele>374.24</ele>
  <time>2026-09-01T19:58:31Z</time>
  <course>244.83</course>
  <speed>24.72</speed>
  <fix>3d</fix>
</trkpt>
<trkpt lat="-27.273941" lon="151.2885697">
  <ele>374.09</ele>
  <time>2026-09-01T19:58:31Z</time>
  <course>246.2</course>
  <speed>24.71008093875858</speed>
  <fix>3d</fix>
</trkpt>
<trkpt lat="-27.2739332" lon="151.2885921">
  <ele>374.0</ele>
  <time>2026-09-01T19:58:31Z</time>
  <course>247.71</course>
  <speed>24.71</speed>
  <fix>3d</fix>
</trkpt>
<trkpt lat="-27.2739486" lon="151.2885463">
  <ele>373.92</ele>
  <time>2026-09-01T19:58:31Z</time>
  <course>247.74</course>
  <speed>24.713563077791918</speed>
  <fix>3d</fix>
</trkpt>
<trkpt lat="-27.2739332" lon="151.2885921">
  <ele>374.0</ele>
  <time>2026-09-01T19:58:31Z</time>
  <course>247.71</course>
  <speed>24.71</speed>
  <fix>3d</fix>
</trkpt>
<trkpt lat="-27.2739558" lon="151.2885227">
  <ele>373.75</ele>
  <time>2026-09-01T19:58:31Z</time>
  <course>249.22</course>
  <speed>24.73616380928943</speed>
  <fix>3d</fix>
</trkpt>
<trkpt lat="-27.273949" lon="151.2885453">
  <ele>373.7</ele>
  <time>2026-09-01T19:58:31Z</time>
  <course>250.6</course>
  <speed>24.72</speed>
  <fix>3d</fix>
</trkpt>
<trkpt lat="-27.2739623" lon="151.2884989">
  <ele>373.56</ele>
  <time>2026-09-01T19:58:31Z</time>
  <course>250.65</course>
  <speed>24.757958316468667</speed>
  <fix>3d</fix>
</trkpt>
<trkpt lat="-27.273949" lon="151.2885453">
  <ele>373.7</ele>
  <time>2026-09-01T19:58:31Z</time>
  <course>250.6</course>
  <speed>24.72</speed>
  <fix>3d</fix>
</trkpt>
<trkpt lat="-27.2739684" lon="151.2884751">
  <ele>373.37</ele>
  <time>2026-09-01T19:58:31Z</time>
  <course>252.06</course>
  <speed>24.78480381201352</speed>
  <fix>3d</fix>
</trkpt>
<trkpt lat="-27.2739628" lon="151.2884978">
  <ele>373.35</ele>
  <time>2026-09-01T19:58:31Z</time>
  <course>253.44</course>
  <speed>24.76</speed>
  <fix>3d</fix>
</trkpt>
<trkpt lat="-27.273974" lon="151.2884507">
  <ele>373.18</ele>
  <time>2026-09-01T19:58:31Z</time>
  <course>253.5</course>
  <speed>24.828552112437006</speed>
  <fix>3d</fix>
</trkpt>
<trkpt lat="-27.2739628" lon="151.2884978">
  <ele>373.35</ele>
  <time>2026-09-01T19:58:31Z</time>
  <course>253.44</course>
  <speed>24.76</speed>
  <fix>3d</fix>
</trkpt>
<trkpt lat="-27.2739791" lon="151.2884262">
  <ele>372.98</ele>
  <time>2026-09-01T19:58:31Z</time>
  <course>254.91</course>
  <speed>24.87435828317989</speed>
  <fix>3d</fix>
</trkpt>
<trkpt lat="-27.2739745" lon="151.2884494">
  <ele>372.98</ele>
  <time>2026-09-01T19:58:31Z</time>
  <course>256.2</course>
  <speed>24.83</speed>
  <fix>3d</fix>
</trkpt>
<trkpt lat="-27.2739837" lon="151.2884015">
  <ele>372.78</ele>
  <time>2026-09-01T19:58:31Z</time>
  <course>256.31</course>
  <speed>24.92845161657659</speed>
  <fix>3d</fix>
</trkpt>
<trkpt lat="-27.2739745" lon="151.2884494">
  <ele>372.98</ele>
  <time>2026-09-01T19:58:31Z</time>
  <course>256.2</course>
  <speed>24.83</speed>
  <fix>3d</fix>
</trkpt>
<trkpt lat="-27.2739878" lon="151.2883764">
  <ele>372.59</ele>
  <time>2026-09-01T19:58:31Z</time>
  <course>257.61</course>
  <speed>24.97940151404753</speed>
  <fix>3d</fix>
</trkpt>
<trkpt lat="-27.2739841" lon="151.2884004">
  <ele>372.6</ele>
  <time>2026-09-01T19:58:31Z</time>
  <course>258.86</course>
  <speed>24.92</speed>
  <fix>3d</fix>
</trkpt>
<trkpt lat="-27.2739915" lon="151.2883513">
  <ele>372.4</ele>
  <time>2026-09-01T19:58:31Z</time>
  <course>258.8</course>
  <speed>25.035482819390563</speed>
  <fix>3d</fix>
</trkpt>
<trkpt lat="-27.2739841" lon="151.2884004">
  <ele>372.6</ele>
  <time>2026-09-01T19:58:31Z</time>
  <course>258.86</course>
  <speed>24.92</speed>
  <fix>3d</fix>
</trkpt>
<trkpt lat="-27.2739947" lon="151.2883262">
  <ele>372.21</ele>
  <time>2026-09-01T19:58:31Z</time>
  <course>260.03</course>
  <speed>25.095274455562343</speed>
  <fix>3d</fix>
</trkpt>
<trkpt lat="-27.2739918" lon="151.2883507">
  <ele>372.22</ele>
  <time>2026-09-01T19:58:31Z</time>
  <course>261.32</course>
  <speed>25.01</speed>
  <fix>3d</fix>
</trkpt>
<trkpt lat="-27.2739975" lon="151.2883007">
  <ele>372.04</ele>
  <time>2026-09-01T19:58:31Z</time>
  <course>261.23</course>
  <speed>25.146373495993412</speed>
  <fix>3d</fix>
</trkpt>
<trkpt lat="-27.2739918" lon="151.2883507">
  <ele>372.22</ele>
  <time>2026-09-01T19:58:31Z</time>
  <course>261.32</course>
  <speed>25.01</speed>
  <fix>3d</fix>
</trkpt>
<trkpt lat="-27.2739998" lon="151.2882753">
  <ele>371.87</ele>
  <time>2026-09-01T19:58:31Z</time>
  <course>262.29</course>
  <speed>25.210704075848415</speed>
  <fix>3d</fix>
</trkpt>
<trkpt lat="-27.2739977" lon="151.2883005">
  <ele>371.87</ele>
  <time>2026-09-01T19:58:31Z</time>
  <course>263.56</course>
  <speed>25.11</speed>
  <fix>3d</fix>
</trkpt>
<trkpt lat="-27.2740018" lon="151.2882498">
  <ele>371.71</ele>
  <time>2026-09-01T19:58:31Z</time>
  <course>263.28</course>
  <speed>25.256167563587315</speed>
  <fix>3d</fix>
</trkpt>
<trkpt lat="-27.2739977" lon="151.2883005">
  <ele>371.87</ele>
  <time>2026-09-01T19:58:31Z</time>
  <course>263.56</course>
  <speed>25.11</speed>
  <fix>3d</fix>
</trkpt>
<trkpt lat="-27.2740034" lon="151.2882242">
  <ele>371.55</ele>
  <time>2026-09-01T19:58:31Z</time>
  <course>264.22</course>
  <speed>25.309365855350862</speed>
  <fix>3d</fix>
</trkpt>
<trkpt lat="-27.2740019" lon="151.2882498">
  <ele>371.55</ele>
  <time>2026-09-01T19:58:31Z</time>
  <course>265.53</course>
  <speed>25.21</speed>
  <fix>3d</fix>
</trkpt>
<trkpt lat="-27.2740046" lon="151.2881986">
  <ele>371.4</ele>
  <time>2026-09-01T19:58:31Z</time>
  <course>265.12</course>
  <speed>25.35888404484708</speed>
  <fix>3d</fix>
</trkpt>
<trkpt lat="-27.2740019" lon="151.2882498">
  <ele>371.55</ele>
  <time>2026-09-01T19:58:31Z</time>
  <course>265.53</course>
  <speed>25.21</speed>
  <fix>3d</fix>
</trkpt>
<trkpt lat="-27.2740056" lon="151.2881729">
  <ele>371.27</ele>
  <time>2026-09-01T19:58:31Z</time>
  <course>265.96</course>
  <speed>25.40490110195275</speed>
  <fix>3d</fix>
</trkpt>
<trkpt lat="-27.2740048" lon="151.2881988">
  <ele>371.26</ele>
  <time>2026-09-01T19:58:31Z</time>
  <course>267.23</course>
  <speed>25.31</speed>
  <fix>3d</fix>
</trkpt>
<trkpt lat="-27.2740062" lon="151.2881474">
  <ele>371.14</ele>
  <time>2026-09-01T19:58:31Z</time>
  <course>266.72</course>
  <speed>25.44638481199245</speed>
  <fix>3d</fix>
</trkpt>
<trkpt lat="-27.2740048" lon="151.2881988">
  <ele>371.26</ele>
  <time>2026-09-01T19:58:31Z</time>
  <course>267.23</course>
  <speed>25.31</speed>
  <fix>3d</fix>
</trkpt>
<trkpt lat="-27.2740066" lon="151.2881217">
  <ele>371.03</ele>
  <time>2026-09-01T19:58:31Z</time>
  <course>267.41</course>
  <speed>25.49176533706522</speed>
  <fix>3d</fix>
</trkpt>
<trkpt lat="-27.2740064" lon="151.2881475">
  <ele>371.01</ele>
  <time>2026-09-01T19:58:31Z</time>
  <course>268.69</course>
  <speed>25.39</speed>
  <fix>3d</fix>
</trkpt>
<trkpt lat="-27.2740068" lon="151.2880961">
  <ele>370.93</ele>
  <time>2026-09-01T19:58:31Z</time>
  <course>268.04</course>
  <speed>25.52007053281789</speed>
  <fix>3d</fix>
</trkpt>
<trkpt lat="-27.2740064" lon="151.2881475">
  <ele>371.01</ele>
  <time>2026-09-01T19:58:31Z</time>
  <course>268.69</course>
  <speed>25.39</speed>
  <fix>3d</fix>
</trkpt>
<trkpt lat="-27.2740068" lon="151.2880705">
  <ele>370.84</ele>
  <time>2026-09-01T19:58:31Z</time>
  <course>268.64</course>
  <speed>25.55044030931757</speed>
  <fix>3d</fix>
</trkpt>
<trkpt lat="-27.2740069" lon="151.2880961">
  <ele>370.8</ele>
  <time>2026-09-01T19:58:31Z</time>
  <course>269.86</course>
  <speed>25.47</speed>
  <fix>3d</fix>
</trkpt>
<trkpt lat="-27.2740066" lon="151.2880449">
  <ele>370.76</ele>
  <time>2026-09-01T19:58:31Z</time>
  <course>269.23</course>
  <speed>25.572395273028295</speed>
  <fix>3d</fix>
</trkpt>
<trkpt lat="-27.2740069" lon="151.2880961">
  <ele>370.8</ele>
  <time>2026-09-01T19:58:31Z</time>
  <course>269.86</course>
  <speed>25.47</speed>
  <fix>3d</fix>
</trkpt>
<trkpt lat="-27.2740062" lon="151.2880192">
  <ele>370.69</ele>
  <time>2026-09-01T19:58:31Z</time>
  <course>269.78</course>
  <speed>25.595282768510298</speed>
  <fix>3d</fix>
</trkpt>
<trkpt lat="-27.2740067" lon="151.2880445">
  <ele>370.62</ele>
  <time>2026-09-01T19:58:31Z</time>
  <course>270.81</course>
  <speed>25.54</speed>
  <fix>3d</fix>
</trkpt>
<trkpt lat="-27.2740057" lon="151.2879933">
  <ele>370.63</ele>
  <time>2026-09-01T19:58:31Z</time>
  <course>270.27</course>
  <speed>25.619026132934874</speed>
  <fix>3d</fix>
</trkpt>
<trkpt lat="-27.2740067" lon="151.2880445">
  <ele>370.62</ele>
  <time>2026-09-01T19:58:31Z</time>
  <course>270.81</course>
  <speed>25.54</speed>
  <fix>3d</fix>
</trkpt>
<trkpt lat="-27.2740051" lon="151.2879676">
  <ele>370.57</ele>
  <time>2026-09-01T19:58:31Z</time>
  <course>270.71</course>
  <speed>25.643114085461615</speed>
  <fix>3d</fix>
</trkpt>
<trkpt lat="-27.2740058" lon="151.2879929">
  <ele>370.49</ele>
  <time>2026-09-01T19:58:31Z</time>
  <course>271.56</course>
  <speed>25.59</speed>
  <fix>3d</fix>
</trkpt>
<trkpt lat="-27.2740043" lon="151.2879416">
  <ele>370.53</ele>
  <time>2026-09-01T19:58:31Z</time>
  <course>271.1</course>
  <speed>25.67757971460706</speed>
  <fix>3d</fix>
</trkpt>
<trkpt lat="-27.2740058" lon="151.2879929">
  <ele>370.49</ele>
  <time>2026-09-01T19:58:31Z</time>
  <course>271.56</course>
  <speed>25.59</speed>
  <fix>3d</fix>
</trkpt>
<trkpt lat="-27.2740034" lon="151.2879156">
  <ele>370.48</ele>
  <time>2026-09-01T19:58:31Z</time>
  <course>271.42</course>
  <speed>25.701867636418953</speed>
  <fix>3d</fix>
</trkpt>
<trkpt lat="-27.2740043" lon="151.2879411">
  <ele>370.39</ele>
  <time>2026-09-01T19:58:31Z</time>
  <course>272.16</course>
  <speed>25.64</speed>
  <fix>3d</fix>
</trkpt>
<trkpt lat="-27.2740023" lon="151.2878896">
  <ele>370.45</ele>
  <time>2026-09-01T19:58:31Z</time>
  <course>271.71</course>
  <speed>25.726618510795387</speed>
  <fix>3d</fix>
</trkpt>
<trkpt lat="-27.2740043" lon="151.2879411">
  <ele>370.39</ele>
  <time>2026-09-01T19:58:31Z</time>
  <course>272.16</course>
  <speed>25.64</speed>
  <fix>3d</fix>
</trkpt>
<trkpt lat="-27.2740013" lon="151.2878635">
  <ele>370.43</ele>
  <time>2026-09-01T19:58:31Z</time>
  <course>271.95</course>
  <speed>25.740856629102304</speed>
  <fix>3d</fix>
</trkpt>
<trkpt lat="-27.2740023" lon="151.2878893">
  <ele>370.32</ele>
  <time>2026-09-01T19:58:31Z</time>
  <course>272.63</course>
  <speed>25.67</speed>
  <fix>3d</fix>
</trkpt>
<trkpt lat="-27.2740001" lon="151.2878372">
  <ele>370.41</ele>
  <time>2026-09-01T19:58:31Z</time>
  <course>272.13</course>
  <speed>25.75488303215528</speed>
  <fix>3d</fix>
</trkpt>
<trkpt lat="-27.2740023" lon="151.2878893">
  <ele>370.32</ele>
  <time>2026-09-01T19:58:31Z</time>
  <course>272.63</course>
  <speed>25.67</speed>
  <fix>3d</fix>
</trkpt>
<trkpt lat="-27.2739988" lon="151.2878111">
  <ele>370.41</ele>
  <time>2026-09-01T19:58:31Z</time>
  <course>272.28</course>
  <speed>25.768059686363657</speed>
  <fix>3d</fix>
</trkpt>
<trkpt lat="-27.2740001" lon="151.2878375">
  <ele>370.29</ele>
  <time>2026-09-01T19:58:31Z</time>
  <course>273.0</course>
  <speed>25.7</speed>
  <fix>3d</fix>
</trkpt>
<trkpt lat="-27.2739975" lon="151.287785">
  <ele>370.41</ele>
  <time>2026-09-01T19:58:31Z</time>
  <course>272.45</course>
  <speed>25.780248253265523</speed>
  <fix>3d</fix>
</trkpt>
<trkpt lat="-27.2740001" lon="151.2878375">
  <ele>370.29</ele>
  <time>2026-09-01T19:58:31Z</time>
  <course>273.0</course>
  <speed>25.7</speed>
  <fix>3d</fix>
</trkpt>
<trkpt lat="-27.2739962" lon="151.2877589">
  <ele>370.43</ele>
  <time>2026-09-01T19:58:31Z</time>
  <course>272.61</course>
  <speed>25.78251345388963</speed>
  <fix>3d</fix>
</trkpt>
<trkpt lat="-27.2739975" lon="151.2877856">
  <ele>370.29</ele>
  <time>2026-09-01T19:58:31Z</time>
  <course>273.24</course>
  <speed>25.71</speed>
  <fix>3d</fix>
</trkpt>
<trkpt lat="-27.2739949" lon="151.287733">
  <ele>370.45</ele>
  <time>2026-09-01T19:58:31Z</time>
  <course>272.72</course>
  <speed>25.774270115756917</speed>
  <fix>3d</fix>
</trkpt>
<trkpt lat="-27.2739975" lon="151.2877856">
  <ele>370.29</ele>
  <time>2026-09-01T19:58:31Z</time>
  <course>273.24</course>
  <speed>25.71</speed>
  <fix>3d</fix>
</trkpt>
<trkpt lat="-27.2739935" lon="151.2877071">
  <ele>370.47</ele>
  <time>2026-09-01T19:58:31Z</time>
  <course>272.81</course>
  <speed>25.77544955961001</speed>
  <fix>3d</fix>
</trkpt>
<trkpt lat="-27.2739948" lon="151.2877337">
  <ele>370.32</ele>
  <time>2026-09-01T19:58:31Z</time>
  <course>273.38</course>
  <speed>25.71</speed>
  <fix>3d</fix>
</trkpt>
<trkpt lat="-27.2739921" lon="151.2876812">
  <ele>370.5</ele>
  <time>2026-09-01T19:58:31Z</time>
  <course>272.93</course>
  <speed>25.766062951099066</speed>
  <fix>3d</fix>
</trkpt>
<trkpt lat="-27.2739948" lon="151.2877337">
  <ele>370.32</ele>
  <time>2026-09-01T19:58:31Z</time>
  <course>273.38</course>
  <speed>25.71</speed>
  <fix>3d</fix>
</trkpt>
<trkpt lat="-27.2739907" lon="151.2876554">
  <ele>370.54</ele>
  <time>2026-09-01T19:58:31Z</time>
  <course>273.01</course>
  <speed>25.756080835406614</speed>
  <fix>3d</fix>
</trkpt>
<trkpt lat="-27.2739921" lon="151.2876817">
  <ele>370.38</ele>
  <time>2026-09-01T19:58:31Z</time>
  <course>273.45</course>
  <speed>25.71</speed>
  <fix>3d</fix>
</trkpt>
<trkpt lat="-27.2739893" lon="151.2876296">
  <ele>370.57</ele>
  <time>2026-09-01T19:58:31Z</time>
  <course>273.04</course>
  <speed>25.75668068676552</speed>
  <fix>3d</fix>
</trkpt>
<trkpt lat="-27.2739921" lon="151.2876817">
  <ele>370.38</ele>
  <time>2026-09-01T19:58:31Z</time>
  <course>273.45</course>
  <speed>25.71</speed>
  <fix>3d</fix>
</trkpt>
<trkpt lat="-27.273988" lon="151.2876038">
  <ele>370.61</ele>
  <time>2026-09-01T19:58:31Z</time>
  <course>273.1</course>
  <speed>25.73671696234778</speed>
  <fix>3d</fix>
</trkpt>
<trkpt lat="-27.2739892" lon="151.2876298">
  <ele>370.44</ele>
  <time>2026-09-01T19:58:31Z</time>
  <course>273.47</course>
  <speed>25.71</speed>
  <fix>3d</fix>
</trkpt>
<trkpt lat="-27.2739866" lon="151.2875778">
  <ele>370.65</ele>
  <time>2026-09-01T19:58:31Z</time>
  <course>273.14</course>
  <speed>25.72613457167633</speed>
  <fix>3d</fix>
</trkpt>
<trkpt lat="-27.2739892" lon="151.2876298">
  <ele>370.44</ele>
  <time>2026-09-01T19:58:31Z</time>
  <course>273.47</course>
  <speed>25.71</speed>
  <fix>3d</fix>
</trkpt>
<trkpt lat="-27.2739852" lon="151.287552">
  <ele>370.7</ele>
  <time>2026-09-01T19:58:31Z</time>
  <course>273.14</course>
  <speed>25.71615251160251</speed>
  <fix>3d</fix>
</trkpt>
<trkpt lat="-27.2739865" lon="151.287578">
  <ele>370.52</ele>
  <time>2026-09-01T19:58:31Z</time>
  <course>273.47</course>
  <speed>25.7</speed>
  <fix>3d</fix>
</trkpt>
<trkpt lat="-27.2739838" lon="151.2875262">
  <ele>370.75</ele>
  <time>2026-09-01T19:58:31Z</time>
  <course>273.07</course>
  <speed>25.706170465473846</speed>
  <fix>3d</fix>
</trkpt>
<trkpt lat="-27.2739865" lon="151.287578">
  <ele>370.52</ele>
  <time>2026-09-01T19:58:31Z</time>
  <course>273.47</course>
  <speed>25.7</speed>
  <fix>3d</fix>
</trkpt>
<trkpt lat="-27.2739824" lon="151.2875003">
  <ele>370.8</ele>
  <time>2026-09-01T19:58:31Z</time>
  <course>273.05</course>
  <speed>25.695591061503137</speed>
  <fix>3d</fix>
</trkpt>
<trkpt lat="-27.2739837" lon="151.2875261">
  <ele>370.62</ele>
  <time>2026-09-01T19:58:31Z</time>
  <course>273.44</course>
  <speed>25.69</speed>
  <fix>3d</fix>
</trkpt>
<trkpt lat="-27.273981" lon="151.2874745">
  <ele>370.85</ele>
  <time>2026-09-01T19:58:31Z</time>
  <course>273.08</course>
  <speed>25.685015086622005</speed>
  <fix>3d</fix>
</trkpt>
<trkpt lat="-27.2739837" lon="151.2875261">
  <ele>370.62</ele>
  <time>2026-09-01T19:58:31Z</time>
  <course>273.44</course>
  <speed>25.69</speed>
  <fix>3d</fix>
</trkpt>
<trkpt lat="-27.2739797" lon="151.2874487">
  <ele>370.91</ele>
  <time>2026-09-01T19:58:31Z</time>
  <course>273.04</course>
  <speed>25.66387344108445</speed>
  <fix>3d</fix>
</trkpt>
<trkpt lat="-27.2739809" lon="151.2874742">
  <ele>370.73</ele>
  <time>2026-09-01T19:58:31Z</time>
  <course>273.4</course>
  <speed>25.67</speed>
  <fix>3d</fix>
</trkpt>
<trkpt lat="-27.2739783" lon="151.2874231">
  <ele>370.96</ele>
  <time>2026-09-01T19:58:31Z</time>
  <course>273.04</course>
  <speed>25.653307778920052</speed>
  <fix>3d</fix>
</trkpt>
<trkpt lat="-27.2739809" lon="151.2874742">
  <ele>370.73</ele>
  <time>2026-09-01T19:58:31Z</time>
  <course>273.4</course>
  <speed>25.67</speed>
  <fix>3d</fix>
</trkpt>
<trkpt lat="-27.273977" lon="151.2873973">
  <ele>371.01</ele>
  <time>2026-09-01T19:58:31Z</time>
  <course>272.99</course>
  <speed>25.642745562829262</speed>
  <fix>3d</fix>
</trkpt>
<trkpt lat="-27.2739782" lon="151.2874225">
  <ele>370.84</ele>
  <time>2026-09-01T19:58:31Z</time>
  <course>273.34</course>
  <speed>25.65</speed>
  <fix>3d</fix>
</trkpt>
<trkpt lat="-27.2739757" lon="151.2873715">
  <ele>371.06</ele>
  <time>2026-09-01T19:58:31Z</time>
  <course>272.94</course>
  <speed>25.631615243679043</speed>
  <fix>3d</fix>
</trkpt>
<trkpt lat="-27.2739782" lon="151.2874225">
  <ele>370.84</ele>
  <time>2026-09-01T19:58:31Z</time>
  <course>273.34</course>
  <speed>25.65</speed>
  <fix>3d</fix>
</trkpt>
<trkpt lat="-27.2739744" lon="151.2873457">
  <ele>371.11</ele>
  <time>2026-09-01T19:58:31Z</time>
  <course>272.85</course>
  <speed>25.63048380347121</speed>
  <fix>3d</fix>
</trkpt>
<trkpt lat="-27.2739756" lon="151.2873708">
  <ele>370.94</ele>
  <time>2026-09-01T19:58:31Z</time>
  <course>273.26</course>
  <speed>25.64</speed>
  <fix>3d</fix>
</trkpt>
<trkpt lat="-27.2739731" lon="151.2873197">
  <ele>371.17</ele>
  <time>2026-09-01T19:58:31Z</time>
  <course>272.8</course>
  <speed>25.61883096474154</speed>
  <fix>3d</fix>
</trkpt>
<trkpt lat="-27.2739756" lon="151.2873708">
  <ele>370.94</ele>
  <time>2026-09-01T19:58:31Z</time>
  <course>273.26</course>
  <speed>25.64</speed>
  <fix>3d</fix>
</trkpt>
<trkpt lat="-27.2739718" lon="151.2872938">
  <ele>371.22</ele>
  <time>2026-09-01T19:58:31Z</time>
  <course>272.83</course>
  <speed>25.597226412250215</speed>
  <fix>3d</fix>
</trkpt>
<trkpt lat="-27.273973" lon="151.2873191">
  <ele>371.05</ele>
  <time>2026-09-01T19:58:31Z</time>
  <course>273.16</course>
  <speed>25.62</speed>
  <fix>3d</fix>
</trkpt>
<trkpt lat="-27.2739706" lon="151.2872682">
  <ele>371.28</ele>
  <time>2026-09-01T19:58:31Z</time>
  <course>272.81</course>
  <speed>25.57618423455696</speed>
  <fix>3d</fix>
</trkpt>
<trkpt lat="-27.273973" lon="151.2873191">
  <ele>371.05</ele>
  <time>2026-09-01T19:58:31Z</time>
  <course>273.16</course>
  <speed>25.62</speed>
  <fix>3d</fix>
</trkpt>
<trkpt lat="-27.2739694" lon="151.2872425">
  <ele>371.34</ele>
  <time>2026-09-01T19:58:31Z</time>
  <course>272.76</course>
  <speed>25.5756544393296</speed>
  <fix>3d</fix>
</trkpt>
<trkpt lat="-27.2739705" lon="151.2872674">
  <ele>371.16</ele>
  <time>2026-09-01T19:58:31Z</time>
  <course>273.05</course>
  <speed>25.6</speed>
  <fix>3d</fix>
</trkpt>
<trkpt lat="-27.2739682" lon="151.2872169">
  <ele>371.39</ele>
  <time>2026-09-01T19:58:31Z</time>
  <course>272.71</course>
  <speed>25.554633630713628</speed>
  <fix>3d</fix>
</trkpt>
<trkpt lat="-27.2739705" lon="151.2872674">
  <ele>371.16</ele>
  <time>2026-09-01T19:58:31Z</time>
  <course>273.05</course>
  <speed>25.6</speed>
  <fix>3d</fix>
</trkpt>
<trkpt lat="-27.273967" lon="151.2871912">
  <ele>371.44</ele>
  <time>2026-09-01T19:58:31Z</time>
  <course>272.64</course>
  <speed>25.54361368326729</speed>
  <fix>3d</fix>
</trkpt>
<trkpt lat="-27.2739681" lon="151.2872157">
  <ele>371.27</ele>
  <time>2026-09-01T19:58:31Z</time>
  <course>272.97</course>
  <speed>25.58</speed>
  <fix>3d</fix>
</trkpt>
<trkpt lat="-27.2739658" lon="151.2871655">
  <ele>371.5</ele>
  <time>2026-09-01T19:58:31Z</time>
  <course>272.57</course>
  <speed>25.52211785882982</speed>
  <fix>3d</fix>
</trkpt>
<trkpt lat="-27.2739681" lon="151.2872157">
  <ele>371.27</ele>
  <time>2026-09-01T19:58:31Z</time>
  <course>272.97</course>
  <speed>25.58</speed>
  <fix>3d</fix>
</trkpt>
<trkpt lat="-27.2739647" lon="151.2871398">
  <ele>371.55</ele>
  <time>2026-09-01T19:58:31Z</time>
  <course>272.52</course>
  <speed>25.51113482383722</speed>
  <fix>3d</fix>
</trkpt>
<trkpt lat="-27.2739657" lon="151.2871642">
  <ele>371.38</ele>
  <time>2026-09-01T19:58:31Z</time>
  <course>272.88</course>
  <speed>25.56</speed>
  <fix>3d</fix>
</trkpt>
<trkpt lat="-27.2739635" lon="151.287114">
  <ele>371.6</ele>
  <time>2026-09-01T19:58:31Z</time>
  <course>272.52</course>
  <speed>25.50016666612201</speed>
  <fix>3d</fix>
</trkpt>
<trkpt lat="-27.2739657" lon="151.2871642">
  <ele>371.38</ele>
  <time>2026-09-01T19:58:31Z</time>
  <course>272.88</course>
  <speed>25.56</speed>
  <fix>3d</fix>
</trkpt>
<trkpt lat="-27.2739624" lon="151.2870882">
  <ele>371.65</ele>
  <time>2026-09-01T19:58:31Z</time>
  <course>272.48</course>
  <speed>25.499682350962726</speed>
  <fix>3d</fix>
</trkpt>
<trkpt lat="-27.2739634" lon="151.2871125">
  <ele>371.49</ele>
  <time>2026-09-01T19:58:31Z</time>
  <course>272.79</course>
  <speed>25.53</speed>
  <fix>3d</fix>
</trkpt>
<trkpt lat="-27.2739613" lon="151.2870624">
  <ele>371.7</ele>
  <time>2026-09-01T19:58:31Z</time>
  <course>272.44</course>
  <speed>25.488736728209975</speed>
  <fix>3d</fix>
</trkpt>
<trkpt lat="-27.2739634" lon="151.2871125">
  <ele>371.49</ele>
  <time>2026-09-01T19:58:31Z</time>
  <course>272.79</course>
  <speed>25.53</speed>
  <fix>3d</fix>
</trkpt>
<trkpt lat="-27.2739602" lon="151.2870366">
  <ele>371.75</ele>
  <time>2026-09-01T19:58:31Z</time>
  <course>272.4</course>
  <speed>25.487795118448357</speed>
  <fix>3d</fix>
</trkpt>
<trkpt lat="-27.2739612" lon="151.2870609">
  <ele>371.59</ele>
  <time>2026-09-01T19:58:31Z</time>
  <course>272.72</course>
  <speed>25.51</speed>
  <fix>3d</fix>
</trkpt>
<trkpt lat="-27.2739592" lon="151.2870107">
  <ele>371.81</ele>
  <time>2026-09-01T19:58:31Z</time>
  <course>272.3</course>
  <speed>25.47687971475314</speed>
  <fix>3d</fix>
</trkpt>
<trkpt lat="-27.2739612" lon="151.2870609">
  <ele>371.59</ele>
  <time>2026-09-01T19:58:31Z</time>
  <course>272.72</course>
  <speed>25.51</speed>
  <fix>3d</fix>
</trkpt>
<trkpt lat="-27.2739581" lon="151.2869849">
  <ele>371.86</ele>
  <time>2026-09-01T19:58:31Z</time>
  <course>272.27</course>
  <speed>25.47596906890884</speed>
  <fix>3d</fix>
</trkpt>
<trkpt lat="-27.2739591" lon="151.2870094">
  <ele>371.7</ele>
  <time>2026-09-01T19:58:31Z</time>
  <course>272.64</course>
  <speed>25.49</speed>
  <fix>3d</fix>
</trkpt>
<trkpt lat="-27.2739571" lon="151.2869591">
  <ele>371.9</ele>
  <time>2026-09-01T19:58:31Z</time>
  <course>272.25</course>
  <speed>25.475519621785928</speed>
  <fix>3d</fix>
</trkpt>
<trkpt lat="-27.2739591" lon="151.2870094">
  <ele>371.7</ele>
  <time>2026-09-01T19:58:31Z</time>
  <course>272.64</course>
  <speed>25.49</speed>
  <fix>3d</fix>
</trkpt>
<trkpt lat="-27.2739561" lon="151.2869333">
  <ele>371.94</ele>
  <time>2026-09-01T19:58:31Z</time>
  <course>272.16</course>
  <speed>25.464642153385938</speed>
  <fix>3d</fix>
</trkpt>
<trkpt lat="-27.273957" lon="151.2869579">
  <ele>371.79</ele>
  <time>2026-09-01T19:58:31Z</time>
  <course>272.57</course>
  <speed>25.47</speed>
  <fix>3d</fix>
</trkpt>
<trkpt lat="-27.2739551" lon="151.2869075">
  <ele>371.99</ele>
  <time>2026-09-01T19:58:31Z</time>
  <course>272.05</course>
  <speed>25.463770341408594</speed>
  <fix>3d</fix>
</trkpt>
<trkpt lat="-27.273957" lon="151.2869579">
  <ele>371.79</ele>
  <time>2026-09-01T19:58:31Z</time>
  <course>272.57</course>
  <speed>25.47</speed>
  <fix>3d</fix>
</trkpt>
<trkpt lat="-27.2739541" lon="151.2868817">
  <ele>372.03</ele>
  <time>2026-09-01T19:58:31Z</time>
  <course>272.07</course>
  <speed>25.453349484890982</speed>
  <fix>3d</fix>
</trkpt>
<trkpt lat="-27.273955" lon="151.2869066">
  <ele>371.88</ele>
  <time>2026-09-01T19:58:31Z</time>
  <course>272.49</course>
  <speed>25.45</speed>
  <fix>3d</fix>
</trkpt>
<trkpt lat="-27.2739531" lon="151.286856">
  <ele>372.07</ele>
  <time>2026-09-01T19:58:31Z</time>
  <course>272.12</course>
  <speed>25.452500859444047</speed>
  <fix>3d</fix>
</trkpt>
<trkpt lat="-27.273955" lon="151.2869066">
  <ele>371.88</ele>
  <time>2026-09-01T19:58:31Z</time>
  <course>272.49</course>
  <speed>25.45</speed>
  <fix>3d</fix>
</trkpt>
<trkpt lat="-27.2739521" lon="151.2868302">
  <ele>372.11</ele>
  <time>2026-09-01T19:58:31Z</time>
  <course>272.12</course>
  <speed>25.44250970325058</speed>
  <fix>3d</fix>
</trkpt>
<trkpt lat="-27.273953" lon="151.2868552">
  <ele>371.96</ele>
  <time>2026-09-01T19:58:31Z</time>
  <course>272.42</course>
  <speed>25.43</speed>
  <fix>3d</fix>
</trkpt>
<trkpt lat="-27.2739512" lon="151.2868044">
  <ele>372.15</ele>
  <time>2026-09-01T19:58:31Z</time>
  <course>272.06</course>
  <speed>25.442091109026396</speed>
  <fix>3d</fix>
</trkpt>
<trkpt lat="-27.273953" lon="151.2868552">
  <ele>371.96</ele>
  <time>2026-09-01T19:58:31Z</time>
  <course>272.42</course>
  <speed>25.43</speed>
  <fix>3d</fix>
</trkpt>
<trkpt lat="-27.2739502" lon="151.2867785">
  <ele>372.19</ele>
  <time>2026-09-01T19:58:31Z</time>
  <course>272.01</course>
  <speed>25.431684961873838</speed>
  <fix>3d</fix>
</trkpt>
<trkpt lat="-27.2739511" lon="151.2868039">
  <ele>372.03</ele>
  <time>2026-09-01T19:58:31Z</time>
  <course>272.38</course>
  <speed>25.41</speed>
  <fix>3d</fix>
</trkpt>
<trkpt lat="-27.2739493" lon="151.2867527">
  <ele>372.23</ele>
  <time>2026-09-01T19:58:31Z</time>
  <course>272.0</course>
  <speed>25.431274053810203</speed>
  <fix>3d</fix>
</trkpt>
<trkpt lat="-27.2739511" lon="151.2868039">
  <ele>372.03</ele>
  <time>2026-09-01T19:58:31Z</time>
  <course>272.38</course>
  <speed>25.41</speed>
  <fix>3d</fix>
</trkpt>
<trkpt lat="-27.2739483" lon="151.286727">
  <ele>372.26</ele>
  <time>2026-09-01T19:58:31Z</time>
  <course>271.98</course>
  <speed>25.430867071336753</speed>
  <fix>3d</fix>
</trkpt>
<trkpt lat="-27.2739492" lon="151.2867526">
  <ele>372.12</ele>
  <time>2026-09-01T19:58:31Z</time>
  <course>272.34</course>
  <speed>25.4</speed>
  <fix>3d</fix>
</trkpt>
<trkpt lat="-27.2739474" lon="151.2867012">
  <ele>372.3</ele>
  <time>2026-09-01T19:58:31Z</time>
  <course>271.94</course>
  <speed>25.430464014641966</speed>
  <fix>3d</fix>
</trkpt>
<trkpt lat="-27.2739492" lon="151.2867526">
  <ele>372.12</ele>
  <time>2026-09-01T19:58:31Z</time>
  <course>272.34</course>
  <speed>25.4</speed>
  <fix>3d</fix>
</trkpt>
<trkpt lat="-27.2739465" lon="151.2866755">
  <ele>372.33</ele>
  <time>2026-09-01T19:58:31Z</time>
  <course>271.92</course>
  <speed>25.430064883912504</speed>
  <fix>3d</fix>
</trkpt>
<trkpt lat="-27.2739474" lon="151.2867013">
  <ele>372.19</ele>
  <time>2026-09-01T19:58:31Z</time>
  <course>272.3</course>
  <speed>25.39</speed>
  <fix>3d</fix>
</trkpt>
<trkpt lat="-27.2739456" lon="151.2866498">
  <ele>372.36</ele>
  <time>2026-09-01T19:58:31Z</time>
  <course>271.89</course>
  <speed>25.420072777236495</speed>
  <fix>3d</fix>
</trkpt>
<trkpt lat="-27.2739474" lon="151.2867013">
  <ele>372.19</ele>
  <time>2026-09-01T19:58:31Z</time>
  <course>272.3</course>
  <speed>25.39</speed>
  <fix>3d</fix>
</trkpt>
<trkpt lat="-27.2739447" lon="151.2866241">
  <ele>372.4</ele>
  <time>2026-09-01T19:58:31Z</time>
  <course>271.82</course>
  <speed>25.419677417308034</speed>
  <fix>3d</fix>
</trkpt>
<trkpt lat="-27.2739456" lon="151.28665">
  <ele>372.26</ele>
  <time>2026-09-01T19:58:31Z</time>
  <course>272.27</course>
  <speed>25.37</speed>
  <fix>3d</fix>
</trkpt>
<trkpt lat="-27.2739438" lon="151.2865984">
  <ele>372.43</ele>
  <time>2026-09-01T19:58:31Z</time>
  <course>271.84</course>
  <speed>25.419285985251435</speed>
  <fix>3d</fix>
</trkpt>
<trkpt lat="-27.2739456" lon="151.28665">
  <ele>372.26</ele>
  <time>2026-09-01T19:58:31Z</time>
  <course>272.27</course>
  <speed>25.37</speed>
  <fix>3d</fix>
</trkpt>
<trkpt lat="-27.2739429" lon="151.2865727">
  <ele>372.45</ele>
  <time>2026-09-01T19:58:31Z</time>
  <course>271.86</course>
  <speed>25.41889848124816</speed>
  <fix>3d</fix>
</trkpt>
<trkpt lat="-27.2739438" lon="151.2865987">
  <ele>372.32</ele>
  <time>2026-09-01T19:58:31Z</time>
  <course>272.25</course>
  <speed>25.36</speed>
  <fix>3d</fix>
</trkpt>
<trkpt lat="-27.273942" lon="151.286547">
  <ele>372.48</ele>
  <time>2026-09-01T19:58:31Z</time>
  <course>271.86</course>
  <speed>25.408905918988324</speed>
  <fix>3d</fix>
</trkpt>
<trkpt lat="-27.2739438" lon="151.2865987">
  <ele>372.32</ele>
  <time>2026-09-01T19:58:31Z</time>
  <course>272.25</course>
  <speed>25.36</speed>
  <fix>3d</fix>
</trkpt>
<trkpt lat="-27.2739411" lon="151.2865213">
  <ele>372.51</ele>
  <time>2026-09-01T19:58:31Z</time>
  <course>271.81</course>
  <speed>25.408522192366878</speed>
  <fix>3d</fix>
</trkpt>
<trkpt lat="-27.273942" lon="151.2865474">
  <ele>372.38</ele>
  <time>2026-09-01T19:58:31Z</time>
  <course>272.22</course>
  <speed>25.35</speed>
  <fix>3d</fix>
</trkpt>
<trkpt lat="-27.2739403" lon="151.2864958">
  <ele>372.54</ele>
  <time>2026-09-01T19:58:31Z</time>
  <course>271.76</course>
  <speed>25.398149538893577</speed>
  <fix>3d</fix>
</trkpt>
<trkpt lat="-27.273942" lon="151.2865474">
  <ele>372.38</ele>
  <time>2026-09-01T19:58:31Z</time>
  <course>272.22</course>
  <speed>25.35</speed>
  <fix>3d</fix>
</trkpt>
<trkpt lat="-27.2739394" lon="151.2864702">
  <ele>372.57</ele>
  <time>2026-09-01T19:58:31Z</time>
  <course>271.74</course>
  <speed>25.387780525284207</speed>
  <fix>3d</fix>
</trkpt>
<trkpt lat="-27.2739402" lon="151.2864963">
  <ele>372.44</ele>
  <time>2026-09-01T19:58:31Z</time>
  <course>272.19</course>
  <speed>25.34</speed>
  <fix>3d</fix>
</trkpt>
<trkpt lat="-27.2739386" lon="151.2864447">
  <ele>372.6</ele>
  <time>2026-09-01T19:58:31Z</time>
  <course>271.74</course>
  <speed>25.377415156000424</speed>
  <fix>3d</fix>
</trkpt>
<trkpt lat="-27.2739402" lon="151.2864963">
  <ele>372.44</ele>
  <time>2026-09-01T19:58:31Z</time>
  <course>272.19</course>
  <speed>25.34</speed>
  <fix>3d</fix>
</trkpt>
<trkpt lat="-27.2739377" lon="151.2864192">
  <ele>372.63</ele>
  <time>2026-09-01T19:58:31Z</time>
  <course>271.66</course>
  <speed>25.367422021167226</speed>
  <fix>3d</fix>
</trkpt>
<trkpt lat="-27.2739385" lon="151.286445">
  <ele>372.5</ele>
  <time>2026-09-01T19:58:31Z</time>
  <course>272.16</course>
  <speed>25.33</speed>
  <fix>3d</fix>
</trkpt>
<trkpt lat="-27.2739369" lon="151.2863936">
  <ele>372.65</ele>
  <time>2026-09-01T19:58:31Z</time>
  <course>271.67</course>
  <speed>25.36705343550961</speed>
  <fix>3d</fix>
</trkpt>
<trkpt lat="-27.2739385" lon="151.286445">
  <ele>372.5</ele>
  <time>2026-09-01T19:58:31Z</time>
  <course>272.16</course>
  <speed>25.33</speed>
  <fix>3d</fix>
</trkpt>
<trkpt lat="-27.273936" lon="151.286368">
  <ele>372.67</ele>
  <time>2026-09-01T19:58:31Z</time>
  <course>271.67</course>
  <speed>25.36705343550961</speed>
  <fix>3d</fix>
</trkpt>
<trkpt lat="-27.2739367" lon="151.2863939">
  <ele>372.55</ele>
  <time>2026-09-01T19:58:31Z</time>
  <course>272.14</course>
  <speed>25.32</speed>
  <fix>3d</fix>
</trkpt>
<trkpt lat="-27.2739352" lon="151.2863424">
  <ele>372.69</ele>
  <time>2026-09-01T19:58:31Z</time>
  <course>271.68</course>
  <speed>25.36705343550961</speed>
  <fix>3d</fix>
</trkpt>
<trkpt lat="-27.2739367" lon="151.2863939">
  <ele>372.55</ele>
  <time>2026-09-01T19:58:31Z</time>
  <course>272.14</course>
  <speed>25.32</speed>
  <fix>3d</fix>
</trkpt>
<trkpt lat="-27.2739343" lon="151.2863167">
  <ele>372.71</ele>
  <time>2026-09-01T19:58:31Z</time>
  <course>271.66</course>
  <speed>25.366688786674544</speed>
  <fix>3d</fix>
</trkpt>
<trkpt lat="-27.2739351" lon="151.2863428">
  <ele>372.59</ele>
  <time>2026-09-01T19:58:31Z</time>
  <course>272.12</course>
  <speed>25.31</speed>
  <fix>3d</fix>
</trkpt>
<trkpt lat="-27.2739335" lon="151.2862911">
  <ele>372.73</ele>
  <time>2026-09-01T19:58:32Z</time>
  <course>271.69</course>
  <speed>25.366688786674544</speed>
  <fix>3d</fix>
</trkpt>
<trkpt lat="-27.2739351" lon="151.2863428">
  <ele>372.59</ele>
  <time>2026-09-01T19:58:32Z</time>
  <course>272.12</course>
  <speed>25.31</speed>
  <fix>3d</fix>
</trkpt>
<trkpt lat="-27.2739326" lon="151.2862654">
  <ele>372.75</ele>
  <time>2026-09-01T19:58:32Z</time>
  <course>271.66</course>
  <speed>25.366688786674544</speed>
  <fix>3d</fix>
</trkpt>
<trkpt lat="-27.2739334" lon="151.2862917">
  <ele>372.63</ele>
  <time>2026-09-01T19:58:32Z</time>
  <course>272.11</course>
  <speed>25.3</speed>
  <fix>3d</fix>
</trkpt>
<trkpt lat="-27.2739318" lon="151.2862399">
  <ele>372.76</ele>
  <time>2026-09-01T19:58:32Z</time>
  <course>271.7</course>
  <speed>25.366688786674544</speed>
  <fix>3d</fix>
</trkpt>
<trkpt lat="-27.2739334" lon="151.2862917">
  <ele>372.63</ele>
  <time>2026-09-01T19:58:32Z</time>
  <course>272.11</course>
  <speed>25.3</speed>
  <fix>3d</fix>
</trkpt>
<trkpt lat="-27.273931" lon="151.2862143">
  <ele>372.78</ele>
  <time>2026-09-01T19:58:32Z</time>
  <course>271.7</course>
  <speed>25.376682210249626</speed>
  <fix>3d</fix>
</trkpt>
<trkpt lat="-27.2739317" lon="151.2862406">
  <ele>372.66</ele>
  <time>2026-09-01T19:58:32Z</time>
  <course>272.11</course>
  <speed>25.3</speed>
  <fix>3d</fix>
</trkpt>
<trkpt lat="-27.2739301" lon="151.2861886">
  <ele>372.79</ele>
  <time>2026-09-01T19:58:32Z</time>
  <course>271.71</course>
  <speed>25.376321640458453</speed>
  <fix>3d</fix>
</trkpt>
<trkpt lat="-27.2739317" lon="151.2862406">
  <ele>372.66</ele>
  <time>2026-09-01T19:58:32Z</time>
  <course>272.11</course>
  <speed>25.3</speed>
  <fix>3d</fix>
</trkpt>
<trkpt lat="-27.2739293" lon="151.2861625">
  <ele>372.8</ele>
  <time>2026-09-01T19:58:32Z</time>
  <course>271.71</course>
  <speed>25.386675639004014</speed>
  <fix>3d</fix>
</trkpt>
<trkpt lat="-27.27393" lon="151.2861895">
  <ele>372.7</ele>
  <time>2026-09-01T19:58:32Z</time>
  <course>272.11</course>
  <speed>25.3</speed>
  <fix>3d</fix>
</trkpt>
<trkpt lat="-27.2739284" lon="151.2861368">
  <ele>372.81</ele>
  <time>2026-09-01T19:58:32Z</time>
  <course>271.72</course>
  <speed>25.386675639004014</speed>
  <fix>3d</fix>
</trkpt>
<trkpt lat="-27.27393" lon="151.2861895">
  <ele>372.7</ele>
  <time>2026-09-01T19:58:32Z</time>
  <course>272.11</course>
  <speed>25.3</speed>
  <fix>3d</fix>
</trkpt>
<trkpt lat="-27.2739276" lon="151.2861112">
  <ele>372.83</ele>
  <time>2026-09-01T19:58:32Z</time>
  <course>271.74</course>
  <speed>25.386675639004014</speed>
  <fix>3d</fix>
</trkpt>
<trkpt lat="-27.2739284" lon="151.2861384">
  <ele>372.72</ele>
  <time>2026-09-01T19:58:32Z</time>
  <course>272.12</course>
  <speed>25.31</speed>
  <fix>3d</fix>
</trkpt>
<trkpt lat="-27.2739268" lon="151.2860857">
  <ele>372.84</ele>
  <time>2026-09-01T19:58:32Z</time>
  <course>271.72</course>
  <speed>25.386675639004014</speed>
  <fix>3d</fix>
</trkpt>
<trkpt lat="-27.2739284" lon="151.2861384">
  <ele>372.72</ele>
  <time>2026-09-01T19:58:32Z</time>
  <course>272.12</course>
  <speed>25.31</speed>
  <fix>3d</fix>
</trkpt>
<trkpt lat="-27.2739259" lon="151.2860602">
  <ele>372.85</ele>
  <time>2026-09-01T19:58:32Z</time>
  <course>271.7</course>
  <speed>25.386675639004014</speed>
  <fix>3d</fix>
</trkpt>
<trkpt lat="-27.2739267" lon="151.2860872">
  <ele>372.75</ele>
  <time>2026-09-01T19:58:32Z</time>
  <course>272.13</course>
  <speed>25.31</speed>
  <fix>3d</fix>
</trkpt>
<trkpt lat="-27.2739251" lon="151.2860348">
  <ele>372.86</ele>
  <time>2026-09-01T19:58:32Z</time>
  <course>271.67</course>
  <speed>25.386675639004014</speed>
  <fix>3d</fix>
</trkpt>
<trkpt lat="-27.2739267" lon="151.2860872">
  <ele>372.75</ele>
  <time>2026-09-01T19:58:32Z</time>
  <course>272.13</course>
  <speed>25.31</speed>
  <fix>3d</fix>
</trkpt>
<trkpt lat="-27.2739243" lon="151.2860093">
  <ele>372.86</ele>
  <time>2026-09-01T19:58:32Z</time>
  <course>271.69</course>
  <speed>25.386315211152642</speed>
  <fix>3d</fix>
</trkpt>
<trkpt lat="-27.273925" lon="151.2860359">
  <ele>372.77</ele>
  <time>2026-09-01T19:58:32Z</time>
  <course>272.13</course>
  <speed>25.32</speed>
  <fix>3d</fix>
</trkpt>
<trkpt lat="-27.2739234" lon="151.285984">
  <ele>372.87</ele>
  <time>2026-09-01T19:58:32Z</time>
  <course>271.69</course>
  <speed>25.376321640458453</speed>
  <fix>3d</fix>
</trkpt>
<trkpt lat="-27.273925" lon="151.2860359">
  <ele>372.77</ele>
  <time>2026-09-01T19:58:32Z</time>
  <course>272.13</course>
  <speed>25.32</speed>
  <fix>3d</fix>
</trkpt>
<trkpt lat="-27.2739226" lon="151.2859585">
  <ele>372.88</ele>
  <time>2026-09-01T19:58:32Z</time>
  <course>271.71</course>
  <speed>25.3663280748318</speed>
  <fix>3d</fix>
</trkpt>
<trkpt lat="-27.2739233" lon="151.2859848">
  <ele>372.78</ele>
  <time>2026-09-01T19:58:32Z</time>
  <course>272.13</course>
  <speed>25.33</speed>
  <fix>3d</fix>
</trkpt>
<trkpt lat="-27.2739218" lon="151.2859332">
  <ele>372.89</ele>
  <time>2026-09-01T19:58:32Z</time>
  <course>271.71</course>
  <speed>25.356334514278675</speed>
  <fix>3d</fix>
</trkpt>
<trkpt lat="-27.2739233" lon="151.2859848">
  <ele>372.78</ele>
  <time>2026-09-01T19:58:32Z</time>
  <course>272.13</course>
  <speed>25.33</speed>
  <fix>3d</fix>
</trkpt>
<trkpt lat="-27.273921" lon="151.2859077">
  <ele>372.9</ele>
  <time>2026-09-01T19:58:32Z</time>
  <course>271.7</course>
  <speed>25.356334514278675</speed>
  <fix>3d</fix>
</trkpt>
<trkpt lat="-27.2739216" lon="151.2859336">
  <ele>372.8</ele>
  <time>2026-09-01T19:58:32Z</time>
  <course>272.13</course>
  <speed>25.33</speed>
  <fix>3d</fix>
</trkpt>
<trkpt lat="-27.2739201" lon="151.2858822">
  <ele>372.91</ele>
  <time>2026-09-01T19:58:32Z</time>
  <course>271.66</course>
  <speed>25.356334514278675</speed>
  <fix>3d</fix>
</trkpt>
<trkpt lat="-27.2739216" lon="151.2859336">
  <ele>372.8</ele>
  <time>2026-09-01T19:58:32Z</time>
  <course>272.13</course>
  <speed>25.33</speed>
  <fix>3d</fix>
</trkpt>
<trkpt lat="-27.2739193" lon="151.2858566">
  <ele>372.92</ele>
  <time>2026-09-01T19:58:32Z</time>
  <course>271.66</course>
  <speed>25.356334514278675</speed>
  <fix>3d</fix>
</trkpt>
<trkpt lat="-27.2739199" lon="151.2858825">
  <ele>372.82</ele>
  <time>2026-09-01T19:58:32Z</time>
  <course>272.13</course>
  <speed>25.32</speed>
  <fix>3d</fix>
</trkpt>
<trkpt lat="-27.2739184" lon="151.285831">
  <ele>372.93</ele>
  <time>2026-09-01T19:58:32Z</time>
  <course>271.65</course>
  <speed>25.356334514278675</speed>
  <fix>3d</fix>
</trkpt>
<trkpt lat="-27.2739199" lon="151.2858825">
  <ele>372.82</ele>
  <time>2026-09-01T19:58:32Z</time>
  <course>272.13</course>
  <speed>25.32</speed>
  <fix>3d</fix>
</trkpt>
<trkpt lat="-27.2739176" lon="151.2858053">
  <ele>372.94</ele>
  <time>2026-09-01T19:58:32Z</time>
  <course>271.69</course>
  <speed>25.35597759898048</speed>
  <fix>3d</fix>
</trkpt>
<trkpt lat="-27.2739182" lon="151.2858314">
  <ele>372.84</ele>
  <time>2026-09-01T19:58:32Z</time>
  <course>272.13</course>
  <speed>25.33</speed>
  <fix>3d</fix>
</trkpt>
<trkpt lat="-27.2739168" lon="151.2857797">
  <ele>372.94</ele>
  <time>2026-09-01T19:58:32Z</time>
  <course>271.65</course>
  <speed>25.36597130014934</speed>
  <fix>3d</fix>
</trkpt>
<trkpt lat="-27.2739182" lon="151.2858314">
  <ele>372.84</ele>
  <time>2026-09-01T19:58:32Z</time>
  <course>272.13</course>
  <speed>25.33</speed>
  <fix>3d</fix>
</trkpt>
<trkpt lat="-27.2739159" lon="151.285754">
  <ele>372.95</ele>
  <time>2026-09-01T19:58:32Z</time>
  <course>271.56</course>
  <speed>25.36597130014934</speed>
  <fix>3d</fix>
</trkpt>
<trkpt lat="-27.2739165" lon="151.2857802">
  <ele>372.86</ele>
  <time>2026-09-01T19:58:32Z</time>
  <course>272.12</course>
  <speed>25.33</speed>
  <fix>3d</fix>
</trkpt>
<trkpt lat="-27.2739151" lon="151.2857283">
  <ele>372.96</ele>
  <time>2026-09-01T19:58:32Z</time>
  <course>271.52</course>
  <speed>25.37561230788333</speed>
  <fix>3d</fix>
</trkpt>
<trkpt lat="-27.2739165" lon="151.2857802">
  <ele>372.86</ele>
  <time>2026-09-01T19:58:32Z</time>
  <course>272.12</course>
  <speed>25.33</speed>
  <fix>3d</fix>
</trkpt>
<trkpt lat="-27.2739143" lon="151.2857028">
  <ele>372.96</ele>
  <time>2026-09-01T19:58:32Z</time>
  <course>271.58</course>
  <speed>25.375263545429434</speed>
  <fix>3d</fix>
</trkpt>
<trkpt lat="-27.2739148" lon="151.285729">
  <ele>372.87</ele>
  <time>2026-09-01T19:58:32Z</time>
  <course>272.09</course>
  <speed>25.33</speed>
  <fix>3d</fix>
</trkpt>
<trkpt lat="-27.2739134" lon="151.2856771">
  <ele>372.97</ele>
  <time>2026-09-01T19:58:32Z</time>
  <course>271.66</course>
  <speed>25.385257532670416</speed>
  <fix>3d</fix>
</trkpt>
<trkpt lat="-27.2739148" lon="151.285729">
  <ele>372.87</ele>
  <time>2026-09-01T19:58:32Z</time>
  <course>272.09</course>
  <speed>25.33</speed>
  <fix>3d</fix>
</trkpt>
<trkpt lat="-27.2739126" lon="151.2856515">
  <ele>372.97</ele>
  <time>2026-09-01T19:58:32Z</time>
  <course>271.66</course>
  <speed>25.39525152464531</speed>
  <fix>3d</fix>
</trkpt>
<trkpt lat="-27.2739132" lon="151.2856779">
  <ele>372.89</ele>
  <time>2026-09-01T19:58:32Z</time>
  <course>272.07</course>
  <speed>25.34</speed>
  <fix>3d</fix>
</trkpt>
<trkpt lat="-27.2739118" lon="151.2856258">
  <ele>372.98</ele>
  <time>2026-09-01T19:58:32Z</time>
  <course>271.56</course>
  <speed>25.39490696970556</speed>
  <fix>3d</fix>
</trkpt>
<trkpt lat="-27.2739132" lon="151.2856779">
  <ele>372.89</ele>
  <time>2026-09-01T19:58:32Z</time>
  <course>272.07</course>
  <speed>25.34</speed>
  <fix>3d</fix>
</trkpt>
<trkpt lat="-27.273911" lon="151.2855999">
  <ele>372.98</ele>
  <time>2026-09-01T19:58:32Z</time>
  <course>271.46</course>
  <speed>25.40456061418894</speed>
  <fix>3d</fix>
</trkpt>
<trkpt lat="-27.2739115" lon="151.2856268">
  <ele>372.9</ele>
  <time>2026-09-01T19:58:32Z</time>
  <course>272.05</course>
  <speed>25.34</speed>
  <fix>3d</fix>
</trkpt>
<trkpt lat="-27.2739102" lon="151.2855742">
  <ele>372.99</ele>
  <time>2026-09-01T19:58:32Z</time>
  <course>271.48</course>
  <speed>25.4042240582152</speed>
  <fix>3d</fix>
</trkpt>
<trkpt lat="-27.2739115" lon="151.2856268">
  <ele>372.9</ele>
  <time>2026-09-01T19:58:32Z</time>
  <course>272.05</course>
  <speed>25.34</speed>
  <fix>3d</fix>
</trkpt>
<trkpt lat="-27.2739094" lon="151.2855485">
  <ele>372.99</ele>
  <time>2026-09-01T19:58:32Z</time>
  <course>271.52</course>
  <speed>25.403891434187795</speed>
  <fix>3d</fix>
</trkpt>
<trkpt lat="-27.2739099" lon="151.2855756">
  <ele>372.91</ele>
  <time>2026-09-01T19:58:32Z</time>
  <course>272.01</course>
  <speed>25.35</speed>
  <fix>3d</fix>
</trkpt>
<trkpt lat="-27.2739086" lon="151.2855228">
  <ele>372.99</ele>
  <time>2026-09-01T19:58:32Z</time>
  <course>271.47</course>
  <speed>25.413557405447982</speed>
  <fix>3d</fix>
</trkpt>
<trkpt lat="-27.2739099" lon="151.2855756">
  <ele>372.91</ele>
  <time>2026-09-01T19:58:32Z</time>
  <course>272.01</course>
  <speed>25.35</speed>
  <fix>3d</fix>
</trkpt>
<trkpt lat="-27.2739078" lon="151.2854972">
  <ele>373.0</ele>
  <time>2026-09-01T19:58:32Z</time>
  <course>271.48</course>
  <speed>25.413557405447982</speed>
  <fix>3d</fix>
</trkpt>
<trkpt lat="-27.2739083" lon="151.2855243">
  <ele>372.92</ele>
  <time>2026-09-01T19:58:32Z</time>
  <course>271.98</course>
  <speed>25.35</speed>
  <fix>3d</fix>
</trkpt>
<trkpt lat="-27.273907" lon="151.2854717">
  <ele>373.0</ele>
  <time>2026-09-01T19:58:32Z</time>
  <course>271.52</course>
  <speed>25.413232773498137</speed>
  <fix>3d</fix>
</trkpt>
<trkpt lat="-27.2739083" lon="151.2855243">
  <ele>372.92</ele>
  <time>2026-09-01T19:58:32Z</time>
  <course>271.98</course>
  <speed>25.35</speed>
  <fix>3d</fix>
</trkpt>
<trkpt lat="-27.2739063" lon="151.2854459">
  <ele>373.01</ele>
  <time>2026-09-01T19:58:32Z</time>
  <course>271.53</course>
  <speed>25.403237982587967</speed>
  <fix>3d</fix>
</trkpt>
<trkpt lat="-27.2739068" lon="151.2854729">
  <ele>372.92</ele>
  <time>2026-09-01T19:58:32Z</time>
  <course>271.96</course>
  <speed>25.36</speed>
  <fix>3d</fix>
</trkpt>
<trkpt lat="-27.2739055" lon="151.2854206">
  <ele>373.01</ele>
  <time>2026-09-01T19:58:32Z</time>
  <course>271.51</course>
  <speed>25.393243195779466</speed>
  <fix>3d</fix>
</trkpt>
<trkpt lat="-27.2739068" lon="151.2854729">
  <ele>372.92</ele>
  <time>2026-09-01T19:58:32Z</time>
  <course>271.96</course>
  <speed>25.36</speed>
  <fix>3d</fix>
</trkpt>
<trkpt lat="-27.2739048" lon="151.2853953">
  <ele>373.02</ele>
  <time>2026-09-01T19:58:32Z</time>
  <course>271.47</course>
  <speed>25.38324841307747</speed>
  <fix>3d</fix>
</trkpt>
<trkpt lat="-27.2739052" lon="151.2854217">
  <ele>372.94</ele>
  <time>2026-09-01T19:58:32Z</time>
  <course>271.94</course>
  <speed>25.36</speed>
  <fix>3d</fix>
</trkpt>
<trkpt lat="-27.273904" lon="151.2853699">
  <ele>373.03</ele>
  <time>2026-09-01T19:58:32Z</time>
  <course>271.48</course>
  <speed>25.372932428081704</speed>
  <fix>3d</fix>
</trkpt>
<trkpt lat="-27.2739052" lon="151.2854217">
  <ele>372.94</ele>
  <time>2026-09-01T19:58:32Z</time>
  <course>271.94</course>
  <speed>25.36</speed>
  <fix>3d</fix>
</trkpt>
<trkpt lat="-27.2739032" lon="151.2853445">
  <ele>373.03</ele>
  <time>2026-09-01T19:58:32Z</time>
  <course>271.44</course>
  <speed>25.362937527029477</speed>
  <fix>3d</fix>
</trkpt>
<trkpt lat="-27.2739037" lon="151.2853705">
  <ele>372.95</ele>
  <time>2026-09-01T19:58:32Z</time>
  <course>271.94</course>
  <speed>25.36</speed>
  <fix>3d</fix>
</trkpt>
<trkpt lat="-27.2739025" lon="151.2853191">
  <ele>373.04</ele>
  <time>2026-09-01T19:58:32Z</time>
  <course>271.44</course>
  <speed>25.352942629998594</speed>
  <fix>3d</fix>
</trkpt>
<trkpt lat="-27.2739037" lon="151.2853705">
  <ele>372.95</ele>
  <time>2026-09-01T19:58:32Z</time>
  <course>271.94</course>
  <speed>25.36</speed>
  <fix>3d</fix>
</trkpt>
<trkpt lat="-27.2739017" lon="151.2852936">
  <ele>373.04</ele>
  <time>2026-09-01T19:58:32Z</time>
  <course>271.43</course>
  <speed>25.342630092395698</speed>
  <fix>3d</fix>
</trkpt>
<trkpt lat="-27.2739021" lon="151.2853192">
  <ele>372.96</ele>
  <time>2026-09-01T19:58:32Z</time>
  <course>271.93</course>
  <speed>25.35</speed>
  <fix>3d</fix>
</trkpt>
<trkpt lat="-27.273901" lon="151.2852681">
  <ele>373.05</ele>
  <time>2026-09-01T19:58:32Z</time>
  <course>271.42</course>
  <speed>25.352625110627105</speed>
  <fix>3d</fix>
</trkpt>
<trkpt lat="-27.2739021" lon="151.2853192">
  <ele>372.96</ele>
  <time>2026-09-01T19:58:32Z</time>
  <course>271.93</course>
  <speed>25.35</speed>
  <fix>3d</fix>
</trkpt>
<trkpt lat="-27.2739002" lon="151.2852426">
  <ele>373.05</ele>
  <time>2026-09-01T19:58:32Z</time>
  <course>271.43</course>
  <speed>25.342630092395698</speed>
  <fix>3d</fix>
</trkpt>
<trkpt lat="-27.2739006" lon="151.2852681">
  <ele>372.97</ele>
  <time>2026-09-01T19:58:32Z</time>
  <course>271.92</course>
  <speed>25.36</speed>
  <fix>3d</fix>
</trkpt>
<trkpt lat="-27.2738995" lon="151.2852171">
  <ele>373.06</ele>
  <time>2026-09-01T19:58:32Z</time>
  <course>271.42</course>
  <speed>25.342316389785683</speed>
  <fix>3d</fix>
</trkpt>
<trkpt lat="-27.2739006" lon="151.2852681">
  <ele>372.97</ele>
  <time>2026-09-01T19:58:32Z</time>
  <course>271.92</course>
  <speed>25.36</speed>
  <fix>3d</fix>
</trkpt>
<trkpt lat="-27.2738987" lon="151.2851916">
  <ele>373.06</ele>
  <time>2026-09-01T19:58:32Z</time>
  <course>271.44</course>
  <speed>25.342316389785683</speed>
  <fix>3d</fix>
</trkpt>
<trkpt lat="-27.2738991" lon="151.2852168">
  <ele>372.98</ele>
  <time>2026-09-01T19:58:32Z</time>
  <course>271.91</course>
  <speed>25.36</speed>
  <fix>3d</fix>
</trkpt>
<trkpt lat="-27.273898" lon="151.2851663">
  <ele>373.07</ele>
  <time>2026-09-01T19:58:32Z</time>
  <course>271.39</course>
  <speed>25.342316389785683</speed>
  <fix>3d</fix>
</trkpt>
<trkpt lat="-27.2738991" lon="151.2852168">
  <ele>372.98</ele>
  <time>2026-09-01T19:58:32Z</time>
  <course>271.91</course>
  <speed>25.36</speed>
  <fix>3d</fix>
</trkpt>
<trkpt lat="-27.2738972" lon="151.2851407">
  <ele>373.07</ele>
  <time>2026-09-01T19:58:32Z</time>
  <course>271.36</course>
  <speed>25.342316389785683</speed>
  <fix>3d</fix>
</trkpt>
<trkpt lat="-27.2738975" lon="151.2851657">
  <ele>372.99</ele>
  <time>2026-09-01T19:58:32Z</time>
  <course>271.9</course>
  <speed>25.36</speed>
  <fix>3d</fix>
</trkpt>
<trkpt lat="-27.2738965" lon="151.2851152">
  <ele>373.07</ele>
  <time>2026-09-01T19:58:32Z</time>
  <course>271.31</course>
  <speed>25.34200662931016</speed>
  <fix>3d</fix>
</trkpt>
<trkpt lat="-27.2738975" lon="151.2851657">
  <ele>372.99</ele>
  <time>2026-09-01T19:58:32Z</time>
  <course>271.9</course>
  <speed>25.36</speed>
  <fix>3d</fix>
</trkpt>
<trkpt lat="-27.2738957" lon="151.2850896">
  <ele>373.08</ele>
  <time>2026-09-01T19:58:32Z</time>
  <course>271.32</course>
  <speed>25.34200662931016</speed>
  <fix>3d</fix>
</trkpt>
<trkpt lat="-27.273896" lon="151.2851144">
  <ele>373.0</ele>
  <time>2026-09-01T19:58:32Z</time>
  <course>271.89</course>
  <speed>25.37</speed>
  <fix>3d</fix>
</trkpt>
<trkpt lat="-27.273895" lon="151.2850638">
  <ele>373.08</ele>
  <time>2026-09-01T19:58:32Z</time>
  <course>271.35</course>
  <speed>25.352001893341676</speed>
  <fix>3d</fix>
</trkpt>
<trkpt lat="-27.273896" lon="151.2851144">
  <ele>373.0</ele>
  <time>2026-09-01T19:58:32Z</time>
  <course>271.89</course>
  <speed>25.37</speed>
  <fix>3d</fix>
</trkpt>
<trkpt lat="-27.2738942" lon="151.2850383">
  <ele>373.08</ele>
  <time>2026-09-01T19:58:32Z</time>
  <course>271.3</course>
  <speed>25.351696195718347</speed>
  <fix>3d</fix>
</trkpt>
<trkpt lat="-27.2738945" lon="151.2850631">
  <ele>373.0</ele>
  <time>2026-09-01T19:58:32Z</time>
  <course>271.87</course>
  <speed>25.37</speed>
  <fix>3d</fix>
</trkpt>
<trkpt lat="-27.2738935" lon="151.2850127">
  <ele>373.09</ele>
  <time>2026-09-01T19:58:32Z</time>
  <course>271.21</course>
  <speed>25.351394438965286</speed>
  <fix>3d</fix>
</trkpt>
<trkpt lat="-27.2738945" lon="151.2850631">
  <ele>373.0</ele>
  <time>2026-09-01T19:58:32Z</time>
  <course>271.87</course>
  <speed>25.37</speed>
  <fix>3d</fix>
</trkpt>
<trkpt lat="-27.2738928" lon="151.2849871">
  <ele>373.09</ele>
  <time>2026-09-01T19:58:32Z</time>
  <course>271.21</course>
  <speed>25.351394438965286</speed>
  <fix>3d</fix>
</trkpt>
<trkpt lat="-27.273893" lon="151.2850118">
  <ele>373.01</ele>
  <time>2026-09-01T19:58:32Z</time>
  <course>271.85</course>
  <speed>25.38</speed>
  <fix>3d</fix>
</trkpt>
<trkpt lat="-27.273892" lon="151.2849616">
  <ele>373.09</ele>
  <time>2026-09-01T19:58:32Z</time>
  <course>271.2</course>
  <speed>25.351096623223224</speed>
  <fix>3d</fix>
</trkpt>
<trkpt lat="-27.273893" lon="151.2850118">
  <ele>373.01</ele>
  <time>2026-09-01T19:58:32Z</time>
  <course>271.85</course>
  <speed>25.38</speed>
  <fix>3d</fix>
</trkpt>
<trkpt lat="-27.2738913" lon="151.2849362">
  <ele>373.09</ele>
  <time>2026-09-01T19:58:32Z</time>
  <course>271.25</course>
  <speed>25.340807011616658</speed>
  <fix>3d</fix>
</trkpt>
<trkpt lat="-27.2738916" lon="151.2849604">
  <ele>373.01</ele>
  <time>2026-09-01T19:58:32Z</time>
  <course>271.81</course>
  <speed>25.38</speed>
  <fix>3d</fix>
</trkpt>
<trkpt lat="-27.2738906" lon="151.2849108">
  <ele>373.09</ele>
  <time>2026-09-01T19:58:32Z</time>
  <course>271.26</course>
  <speed>25.330811277967392</speed>
  <fix>3d</fix>
</trkpt>
<trkpt lat="-27.2738916" lon="151.2849604">
  <ele>373.01</ele>
  <time>2026-09-01T19:58:32Z</time>
  <course>271.81</course>
  <speed>25.38</speed>
  <fix>3d</fix>
</trkpt>
<trkpt lat="-27.2738899" lon="151.2848853">
  <ele>373.09</ele>
  <time>2026-09-01T19:58:32Z</time>
  <course>271.23</course>
  <speed>25.330521115839684</speed>
  <fix>3d</fix>
</trkpt>
<trkpt lat="-27.2738901" lon="151.2849091">
  <ele>373.01</ele>
  <time>2026-09-01T19:58:32Z</time>
  <course>271.78</course>
  <speed>25.39</speed>
  <fix>3d</fix>
</trkpt>
<trkpt lat="-27.2738892" lon="151.2848599">
  <ele>373.09</ele>
  <time>2026-09-01T19:58:32Z</time>
  <course>271.19</course>
  <speed>25.320238940420765</speed>
  <fix>3d</fix>
</trkpt>
<trkpt lat="-27.2738901" lon="151.2849091">
  <ele>373.01</ele>
  <time>2026-09-01T19:58:32Z</time>
  <course>271.78</course>
  <speed>25.39</speed>
  <fix>3d</fix>
</trkpt>
<trkpt lat="-27.2738885" lon="151.2848345">
  <ele>373.09</ele>
  <time>2026-09-01T19:58:32Z</time>
  <course>271.2</course>
  <speed>25.3102429857953</speed>
  <fix>3d</fix>
</trkpt>
<trkpt lat="-27.2738888" lon="151.2848579">
  <ele>373.01</ele>
  <time>2026-09-01T19:58:32Z</time>
  <course>271.76</course>
  <speed>25.39</speed>
  <fix>3d</fix>
</trkpt>
<trkpt lat="-27.2738878" lon="151.2848091">
  <ele>373.09</ele>
  <time>2026-09-01T19:58:32Z</time>
  <course>271.13</course>
  <speed>25.3102429857953</speed>
  <fix>3d</fix>
</trkpt>
<trkpt lat="-27.2738888" lon="151.2848579">
  <ele>373.01</ele>
  <time>2026-09-01T19:58:32Z</time>
  <course>271.76</course>
  <speed>25.39</speed>
  <fix>3d</fix>
</trkpt>
<trkpt lat="-27.2738872" lon="151.2847837">
  <ele>373.09</ele>
  <time>2026-09-01T19:58:32Z</time>
  <course>271.1</course>
  <speed>25.30996048989409</speed>
  <fix>3d</fix>
</trkpt>
<trkpt lat="-27.2738874" lon="151.2848066">
  <ele>373.02</ele>
  <time>2026-09-01T19:58:32Z</time>
  <course>271.74</course>
  <speed>25.39</speed>
  <fix>3d</fix>
</trkpt>
<trkpt lat="-27.2738865" lon="151.2847583">
  <ele>373.09</ele>
  <time>2026-09-01T19:58:32Z</time>
  <course>271.11</course>
  <speed>25.299964426852462</speed>
  <fix>3d</fix>
</trkpt>
<trkpt lat="-27.2738874" lon="151.2848066">
  <ele>373.02</ele>
  <time>2026-09-01T19:58:32Z</time>
  <course>271.74</course>
  <speed>25.39</speed>
  <fix>3d</fix>
</trkpt>
<trkpt lat="-27.2738858" lon="151.2847326">
  <ele>373.09</ele>
  <time>2026-09-01T19:58:32Z</time>
  <course>271.1</course>
  <speed>25.29968576879958</speed>
  <fix>3d</fix>
</trkpt>
<trkpt lat="-27.273886" lon="151.2847553">
  <ele>373.02</ele>
  <time>2026-09-01T19:58:32Z</time>
  <course>271.71</course>
  <speed>25.39</speed>
  <fix>3d</fix>
</trkpt>
<trkpt lat="-27.2738851" lon="151.2847072">
  <ele>373.09</ele>
  <time>2026-09-01T19:58:32Z</time>
  <course>271.15</course>
  <speed>25.29968576879958</speed>
  <fix>3d</fix>
</trkpt>
<trkpt lat="-27.273886" lon="151.2847553">
  <ele>373.02</ele>
  <time>2026-09-01T19:58:32Z</time>
  <course>271.71</course>
  <speed>25.39</speed>
  <fix>3d</fix>
</trkpt>
<trkpt lat="-27.2738845" lon="151.2846817">
  <ele>373.09</ele>
  <time>2026-09-01T19:58:32Z</time>
  <course>271.15</course>
  <speed>25.29968576879958</speed>
  <fix>3d</fix>
</trkpt>
<trkpt lat="-27.2738846" lon="151.284704">
  <ele>373.01</ele>
  <time>2026-09-01T19:58:32Z</time>
  <course>271.7</course>
  <speed>25.4</speed>
  <fix>3d</fix>
</trkpt>
<trkpt lat="-27.2738838" lon="151.284656">
  <ele>373.09</ele>
  <time>2026-09-01T19:58:32Z</time>
  <course>271.12</course>
  <speed>25.309681941897257</speed>
  <fix>3d</fix>
</trkpt>
<trkpt lat="-27.2738846" lon="151.284704">
  <ele>373.01</ele>
  <time>2026-09-01T19:58:32Z</time>
  <course>271.7</course>
  <speed>25.4</speed>
  <fix>3d</fix>
</trkpt>
<trkpt lat="-27.2738831" lon="151.2846305">
  <ele>373.09</ele>
  <time>2026-09-01T19:58:32Z</time>
  <course>271.12</course>
  <speed>25.309681941897257</speed>
  <fix>3d</fix>
</trkpt>
<trkpt lat="-27.2738833" lon="151.2846527">
  <ele>373.01</ele>
  <time>2026-09-01T19:58:32Z</time>
  <course>271.69</course>
  <speed>25.4</speed>
  <fix>3d</fix>
</trkpt>
<trkpt lat="-27.2738824" lon="151.2846049">
  <ele>373.09</ele>
  <time>2026-09-01T19:58:32Z</time>
  <course>271.17</course>
  <speed>25.309681941897257</speed>
  <fix>3d</fix>
</trkpt>
<trkpt lat="-27.2738833" lon="151.2846527">
  <ele>373.01</ele>
  <time>2026-09-01T19:58:32Z</time>
  <course>271.69</course>
  <speed>25.4</speed>
  <fix>3d</fix>
</trkpt>
<trkpt lat="-27.2738818" lon="151.2845793">
  <ele>373.09</ele>
  <time>2026-09-01T19:58:32Z</time>
  <course>271.19</course>
  <speed>25.319956556044875</speed>
  <fix>3d</fix>
</trkpt>
<trkpt lat="-27.2738819" lon="151.2846013">
  <ele>373.01</ele>
  <time>2026-09-01T19:58:32Z</time>
  <course>271.7</course>
  <speed>25.41</speed>
  <fix>3d</fix>
</trkpt>
<trkpt lat="-27.2738811" lon="151.2845537">
  <ele>373.09</ele>
  <time>2026-09-01T19:58:32Z</time>
  <course>271.18</course>
  <speed>25.32995262530114</speed>
  <fix>3d</fix>
</trkpt>
<trkpt lat="-27.2738819" lon="151.2846013">
  <ele>373.01</ele>
  <time>2026-09-01T19:58:32Z</time>
  <course>271.7</course>
  <speed>25.41</speed>
  <fix>3d</fix>
</trkpt>
<trkpt lat="-27.2738804" lon="151.2845278">
  <ele>373.1</ele>
  <time>2026-09-01T19:58:32Z</time>
  <course>271.15</course>
  <speed>25.33023489823969</speed>
  <fix>3d</fix>
</trkpt>
<trkpt lat="-27.2738806" lon="151.28455">
  <ele>373.01</ele>
  <time>2026-09-01T19:58:32Z</time>
  <course>271.71</course>
  <speed>25.41</speed>
  <fix>3d</fix>
</trkpt>
<trkpt lat="-27.2738797" lon="151.2845022">
  <ele>373.1</ele>
  <time>2026-09-01T19:58:32Z</time>
  <course>271.13</course>
  <speed>25.33023489823969</speed>
  <fix>3d</fix>
</trkpt>
<trkpt lat="-27.2738806" lon="151.28455">
  <ele>373.01</ele>
  <time>2026-09-01T19:58:32Z</time>
  <course>271.71</course>
  <speed>25.41</speed>
  <fix>3d</fix>
</trkpt>
<trkpt lat="-27.273879" lon="151.2844766">
  <ele>373.11</ele>
  <time>2026-09-01T19:58:32Z</time>
  <course>271.11</course>
  <speed>25.33023489823969</speed>
  <fix>3d</fix>
</trkpt>
<trkpt lat="-27.2738791" lon="151.2844987">
  <ele>373.01</ele>
  <time>2026-09-01T19:58:32Z</time>
  <course>271.72</course>
  <speed>25.41</speed>
  <fix>3d</fix>
</trkpt>
<trkpt lat="-27.2738783" lon="151.284451">
  <ele>373.11</ele>
  <time>2026-09-01T19:58:32Z</time>
  <course>271.12</course>
  <speed>25.33023489823969</speed>
  <fix>3d</fix>
</trkpt>
<trkpt lat="-27.2738791" lon="151.2844987">
  <ele>373.01</ele>
  <time>2026-09-01T19:58:32Z</time>
  <course>271.72</course>
  <speed>25.41</speed>
  <fix>3d</fix>
</trkpt>
<trkpt lat="-27.2738776" lon="151.2844254">
  <ele>373.12</ele>
  <time>2026-09-01T19:58:32Z</time>
  <course>271.1</course>
  <speed>25.33023489823969</speed>
  <fix>3d</fix>
</trkpt>
<trkpt lat="-27.2738778" lon="151.2844473">
  <ele>373.02</ele>
  <time>2026-09-01T19:58:32Z</time>
  <course>271.73</course>
  <speed>25.41</speed>
  <fix>3d</fix>
</trkpt>
<trkpt lat="-27.2738769" lon="151.2843996">
  <ele>373.12</ele>
  <time>2026-09-01T19:58:32Z</time>
  <course>271.12</course>
  <speed>25.339948697659196</speed>
  <fix>3d</fix>
</trkpt>
<trkpt lat="-27.2738778" lon="151.2844473">
  <ele>373.02</ele>
  <time>2026-09-01T19:58:32Z</time>
  <course>271.73</course>
  <speed>25.41</speed>
  <fix>3d</fix>
</trkpt>
<trkpt lat="-27.2738762" lon="151.2843738">
  <ele>373.13</ele>
  <time>2026-09-01T19:58:32Z</time>
  <course>271.18</course>
  <speed>25.35022682344282</speed>
  <fix>3d</fix>
</trkpt>
<trkpt lat="-27.2738764" lon="151.2843959">
  <ele>373.03</ele>
  <time>2026-09-01T19:58:32Z</time>
  <course>271.72</course>
  <speed>25.41</speed>
  <fix>3d</fix>
</trkpt>
<trkpt lat="-27.2738755" lon="151.284348">
  <ele>373.14</ele>
  <time>2026-09-01T19:58:32Z</time>
  <course>271.18</course>
  <speed>25.360222790819485</speed>
  <fix>3d</fix>
</trkpt>
<trkpt lat="-27.2738764" lon="151.2843959">
  <ele>373.03</ele>
  <time>2026-09-01T19:58:32Z</time>
  <course>271.72</course>
  <speed>25.41</speed>
  <fix>3d</fix>
</trkpt>
<trkpt lat="-27.2738749" lon="151.2843222">
  <ele>373.14</ele>
  <time>2026-09-01T19:58:32Z</time>
  <course>271.19</course>
  <speed>25.370218761374527</speed>
  <fix>3d</fix>
</trkpt>
<trkpt lat="-27.2738751" lon="151.2843445">
  <ele>373.04</ele>
  <time>2026-09-01T19:58:32Z</time>
  <course>271.72</course>
  <speed>25.41</speed>
  <fix>3d</fix>
</trkpt>
<trkpt lat="-27.2738742" lon="151.2842964">
  <ele>373.14</ele>
  <time>2026-09-01T19:58:32Z</time>
  <course>271.23</course>
  <speed>25.38021473510419</speed>
  <fix>3d</fix>
</trkpt>
<trkpt lat="-27.2738751" lon="151.2843445">
  <ele>373.04</ele>
  <time>2026-09-01T19:58:32Z</time>
  <course>271.72</course>
  <speed>25.41</speed>
  <fix>3d</fix>
</trkpt>
<trkpt lat="-27.2738735" lon="151.2842707">
  <ele>373.14</ele>
  <time>2026-09-01T19:58:32Z</time>
  <course>271.3</course>
  <speed>25.380500389078225</speed>
  <fix>3d</fix>
</trkpt>
<trkpt lat="-27.2738737" lon="151.2842932">
  <ele>373.05</ele>
  <time>2026-09-01T19:58:32Z</time>
  <course>271.73</course>
  <speed>25.4</speed>
  <fix>3d</fix>
</trkpt>
<trkpt lat="-27.2738727" lon="151.2842448">
  <ele>373.14</ele>
  <time>2026-09-01T19:58:32Z</time>
  <course>271.32</course>
  <speed>25.390785730260497</speed>
  <fix>3d</fix>
</trkpt>
<trkpt lat="-27.2738737" lon="151.2842932">
  <ele>373.05</ele>
  <time>2026-09-01T19:58:32Z</time>
  <course>271.73</course>
  <speed>25.4</speed>
  <fix>3d</fix>
</trkpt>
<trkpt lat="-27.273872" lon="151.2842189">
  <ele>373.15</ele>
  <time>2026-09-01T19:58:32Z</time>
  <course>271.25</course>
  <speed>25.401074780410376</speed>
  <fix>3d</fix>
</trkpt>
<trkpt lat="-27.2738723" lon="151.2842419">
  <ele>373.05</ele>
  <time>2026-09-01T19:58:32Z</time>
  <course>271.76</course>
  <speed>25.4</speed>
  <fix>3d</fix>
</trkpt>
<trkpt lat="-27.2738713" lon="151.2841932">
  <ele>373.15</ele>
  <time>2026-09-01T19:58:32Z</time>
  <course>271.17</course>
  <speed>25.401074780410376</speed>
  <fix>3d</fix>
</trkpt>
<trkpt lat="-27.2738723" lon="151.2842419">
  <ele>373.05</ele>
  <time>2026-09-01T19:58:32Z</time>
  <course>271.76</course>
  <speed>25.4</speed>
  <fix>3d</fix>
</trkpt>
<trkpt lat="-27.2738706" lon="151.2841674">
  <ele>373.15</ele>
  <time>2026-09-01T19:58:32Z</time>
  <course>271.18</course>
  <speed>25.410777241162855</speed>
  <fix>3d</fix>
</trkpt>
<trkpt lat="-27.2738709" lon="151.2841906">
  <ele>373.06</ele>
  <time>2026-09-01T19:58:32Z</time>
  <course>271.78</course>
  <speed>25.4</speed>
  <fix>3d</fix>
</trkpt>
<trkpt lat="-27.2738699" lon="151.2841417">
  <ele>373.15</ele>
  <time>2026-09-01T19:58:32Z</time>
  <course>271.22</course>
  <speed>25.410777241162855</speed>
  <fix>3d</fix>
</trkpt>
<trkpt lat="-27.2738709" lon="151.2841906">
  <ele>373.06</ele>
  <time>2026-09-01T19:58:32Z</time>
  <course>271.78</course>
  <speed>25.4</speed>
  <fix>3d</fix>
</trkpt>
<trkpt lat="-27.2738692" lon="151.284116">
  <ele>373.16</ele>
  <time>2026-09-01T19:58:32Z</time>
  <course>271.18</course>
  <speed>25.410777241162855</speed>
  <fix>3d</fix>
</trkpt>
<trkpt lat="-27.2738694" lon="151.2841393">
  <ele>373.07</ele>
  <time>2026-09-01T19:58:32Z</time>
  <course>271.78</course>
  <speed>25.4</speed>
  <fix>3d</fix>
</trkpt>
<trkpt lat="-27.2738685" lon="151.2840903">
  <ele>373.17</ele>
  <time>2026-09-01T19:58:32Z</time>
  <course>271.21</course>
  <speed>25.411070422160495</speed>
  <fix>3d</fix>
</trkpt>
<trkpt lat="-27.2738694" lon="151.2841393">
  <ele>373.07</ele>
  <time>2026-09-01T19:58:32Z</time>
  <course>271.78</course>
  <speed>25.4</speed>
  <fix>3d</fix>
</trkpt>
<trkpt lat="-27.2738678" lon="151.2840647">
  <ele>373.17</ele>
  <time>2026-09-01T19:58:32Z</time>
  <course>271.23</course>
  <speed>25.411070422160495</speed>
  <fix>3d</fix>
</trkpt>
<trkpt lat="-27.273868" lon="151.284088">
  <ele>373.08</ele>
  <time>2026-09-01T19:58:32Z</time>
  <course>271.79</course>
  <speed>25.39</speed>
  <fix>3d</fix>
</trkpt>
<trkpt lat="-27.2738671" lon="151.284039">
  <ele>373.18</ele>
  <time>2026-09-01T19:58:32Z</time>
  <course>271.23</course>
  <speed>25.411070422160495</speed>
  <fix>3d</fix>
</trkpt>
<trkpt lat="-27.273868" lon="151.284088">
  <ele>373.08</ele>
  <time>2026-09-01T19:58:32Z</time>
  <course>271.79</course>
  <speed>25.39</speed>
  <fix>3d</fix>
</trkpt>
<trkpt lat="-27.2738663" lon="151.2840134">
  <ele>373.19</ele>
  <time>2026-09-01T19:58:32Z</time>
  <course>271.25</course>
  <speed>25.411070422160495</speed>
  <fix>3d</fix>
</trkpt>
<trkpt lat="-27.2738666" lon="151.2840367">
  <ele>373.09</ele>
  <time>2026-09-01T19:58:32Z</time>
  <course>271.79</course>
  <speed>25.39</speed>
  <fix>3d</fix>
</trkpt>
<trkpt lat="-27.2738656" lon="151.2839875">
  <ele>373.2</ele>
  <time>2026-09-01T19:58:32Z</time>
  <course>271.28</course>
  <speed>25.41136753502259</speed>
  <fix>3d</fix>
</trkpt>
<trkpt lat="-27.2738666" lon="151.2840367">
  <ele>373.09</ele>
  <time>2026-09-01T19:58:32Z</time>
  <course>271.79</course>
  <speed>25.39</speed>
  <fix>3d</fix>
</trkpt>
<trkpt lat="-27.2738649" lon="151.2839618">
  <ele>373.21</ele>
  <time>2026-09-01T19:58:32Z</time>
  <course>271.23</course>
  <speed>25.41136753502259</speed>
  <fix>3d</fix>
</trkpt>
<trkpt lat="-27.2738651" lon="151.2839854">
  <ele>373.11</ele>
  <time>2026-09-01T19:58:32Z</time>
  <course>271.81</course>
  <speed>25.38</speed>
  <fix>3d</fix>
</trkpt>
<trkpt lat="-27.2738642" lon="151.2839361">
  <ele>373.21</ele>
  <time>2026-09-01T19:58:32Z</time>
  <course>271.21</course>
  <speed>25.42136306337644</speed>
  <fix>3d</fix>
</trkpt>
<trkpt lat="-27.2738651" lon="151.2839854">
  <ele>373.11</ele>
  <time>2026-09-01T19:58:32Z</time>
  <course>271.81</course>
  <speed>25.38</speed>
  <fix>3d</fix>
</trkpt>
<trkpt lat="-27.2738634" lon="151.2839104">
  <ele>373.22</ele>
  <time>2026-09-01T19:58:32Z</time>
  <course>271.19</course>
  <speed>25.42106606733872</speed>
  <fix>3d</fix>
</trkpt>
<trkpt lat="-27.2738637" lon="151.283934">
  <ele>373.12</ele>
  <time>2026-09-01T19:58:32Z</time>
  <course>271.81</course>
  <speed>25.38</speed>
  <fix>3d</fix>
</trkpt>
<trkpt lat="-27.2738627" lon="151.2838848">
  <ele>373.22</ele>
  <time>2026-09-01T19:58:32Z</time>
  <course>271.21</course>
  <speed>25.411070422160495</speed>
  <fix>3d</fix>
</trkpt>
<trkpt lat="-27.2738637" lon="151.283934">
  <ele>373.12</ele>
  <time>2026-09-01T19:58:32Z</time>
  <course>271.81</course>
  <speed>25.38</speed>
  <fix>3d</fix>
</trkpt>
<trkpt lat="-27.273862" lon="151.2838592">
  <ele>373.23</ele>
  <time>2026-09-01T19:58:32Z</time>
  <course>271.21</course>
  <speed>25.411070422160495</speed>
  <fix>3d</fix>
</trkpt>
<trkpt lat="-27.2738623" lon="151.2838827">
  <ele>373.13</ele>
  <time>2026-09-01T19:58:32Z</time>
  <course>271.8</course>
  <speed>25.38</speed>
  <fix>3d</fix>
</trkpt>
<trkpt lat="-27.2738613" lon="151.2838337">
  <ele>373.23</ele>
  <time>2026-09-01T19:58:32Z</time>
  <course>271.18</course>
  <speed>25.411070422160495</speed>
  <fix>3d</fix>
</trkpt>
<trkpt lat="-27.2738623" lon="151.2838827">
  <ele>373.13</ele>
  <time>2026-09-01T19:58:32Z</time>
  <course>271.8</course>
  <speed>25.38</speed>
  <fix>3d</fix>
</trkpt>
<trkpt lat="-27.2738606" lon="151.2838082">
  <ele>373.23</ele>
  <time>2026-09-01T19:58:32Z</time>
  <course>271.19</course>
  <speed>25.401074780410376</speed>
  <fix>3d</fix>
</trkpt>
<trkpt lat="-27.2738608" lon="151.2838314">
  <ele>373.14</ele>
  <time>2026-09-01T19:58:32Z</time>
  <course>271.79</course>
  <speed>25.38</speed>
  <fix>3d</fix>
</trkpt>
<trkpt lat="-27.2738599" lon="151.2837826">
  <ele>373.23</ele>
  <time>2026-09-01T19:58:32Z</time>
  <course>271.21</course>
  <speed>25.400781484040998</speed>
  <fix>3d</fix>
</trkpt>
<trkpt lat="-27.2738608" lon="151.2838314">
  <ele>373.14</ele>
  <time>2026-09-01T19:58:32Z</time>
  <course>271.79</course>
  <speed>25.38</speed>
  <fix>3d</fix>
</trkpt>
<trkpt lat="-27.2738592" lon="151.2837571">
  <ele>373.23</ele>
  <time>2026-09-01T19:58:32Z</time>
  <course>271.2</course>
  <speed>25.401074780410376</speed>
  <fix>3d</fix>
</trkpt>
<trkpt lat="-27.2738594" lon="151.2837801">
  <ele>373.14</ele>
  <time>2026-09-01T19:58:32Z</time>
  <course>271.78</course>
  <speed>25.38</speed>
  <fix>3d</fix>
</trkpt>
<trkpt lat="-27.2738585" lon="151.2837316">
  <ele>373.23</ele>
  <time>2026-09-01T19:58:32Z</time>
  <course>271.23</course>
  <speed>25.391079142092405</speed>
  <fix>3d</fix>
</trkpt>
<trkpt lat="-27.2738594" lon="151.2837801">
  <ele>373.14</ele>
  <time>2026-09-01T19:58:32Z</time>
  <course>271.78</course>
  <speed>25.38</speed>
  <fix>3d</fix>
</trkpt>
<trkpt lat="-27.2738578" lon="151.2837061">
  <ele>373.23</ele>
  <time>2026-09-01T19:58:32Z</time>
  <course>271.26</course>
  <speed>25.391079142092405</speed>
  <fix>3d</fix>
</trkpt>
<trkpt lat="-27.273858" lon="151.2837288">
  <ele>373.14</ele>
  <time>2026-09-01T19:58:32Z</time>
  <course>271.78</course>
  <speed>25.38</speed>
  <fix>3d</fix>
</trkpt>
<trkpt lat="-27.273857" lon="151.2836806">
  <ele>373.23</ele>
  <time>2026-09-01T19:58:32Z</time>
  <course>271.23</course>
  <speed>25.381083507210644</speed>
  <fix>3d</fix>
</trkpt>
<trkpt lat="-27.273858" lon="151.2837288">
  <ele>373.14</ele>
  <time>2026-09-01T19:58:32Z</time>
  <course>271.78</course>
  <speed>25.38</speed>
  <fix>3d</fix>
</trkpt>
<trkpt lat="-27.2738563" lon="151.2836551">
  <ele>373.24</ele>
  <time>2026-09-01T19:58:32Z</time>
  <course>271.19</course>
  <speed>25.381083507210644</speed>
  <fix>3d</fix>
</trkpt>
<trkpt lat="-27.2738566" lon="151.2836776">
  <ele>373.14</ele>
  <time>2026-09-01T19:58:32Z</time>
  <course>271.78</course>
  <speed>25.38</speed>
  <fix>3d</fix>
</trkpt>
<trkpt lat="-27.2738556" lon="151.2836294">
  <ele>373.23</ele>
  <time>2026-09-01T19:58:32Z</time>
  <course>271.17</course>
  <speed>25.390785730260497</speed>
  <fix>3d</fix>
</trkpt>
<trkpt lat="-27.2738566" lon="151.2836776">
  <ele>373.14</ele>
  <time>2026-09-01T19:58:32Z</time>
  <course>271.78</course>
  <speed>25.38</speed>
  <fix>3d</fix>
</trkpt>
<trkpt lat="-27.2738549" lon="151.2836037">
  <ele>373.23</ele>
  <time>2026-09-01T19:58:32Z</time>
  <course>271.11</course>
  <speed>25.390496253519743</speed>
  <fix>3d</fix>
</trkpt>
<trkpt lat="-27.2738552" lon="151.2836264">
  <ele>373.14</ele>
  <time>2026-09-01T19:58:32Z</time>
  <course>271.77</course>
  <speed>25.38</speed>
  <fix>3d</fix>
</trkpt>
<trkpt lat="-27.2738542" lon="151.283578">
  <ele>373.23</ele>
  <time>2026-09-01T19:58:32Z</time>
  <course>271.1</course>
  <speed>25.400206692072413</speed>
  <fix>3d</fix>
</trkpt>
<trkpt lat="-27.2738552" lon="151.2836264">
  <ele>373.14</ele>
  <time>2026-09-01T19:58:32Z</time>
  <course>271.77</course>
  <speed>25.38</speed>
  <fix>3d</fix>
</trkpt>
<trkpt lat="-27.2738535" lon="151.2835522">
  <ele>373.22</ele>
  <time>2026-09-01T19:58:32Z</time>
  <course>271.12</course>
  <speed>25.410202675303477</speed>
  <fix>3d</fix>
</trkpt>
<trkpt lat="-27.2738538" lon="151.2835751">
  <ele>373.13</ele>
  <time>2026-09-01T19:58:32Z</time>
  <course>271.73</course>
  <speed>25.38</speed>
  <fix>3d</fix>
</trkpt>
<trkpt lat="-27.2738529" lon="151.2835264">
  <ele>373.21</ele>
  <time>2026-09-01T19:58:32Z</time>
  <course>271.14</course>
  <speed>25.419917387749315</speed>
  <fix>3d</fix>
</trkpt>
<trkpt lat="-27.2738538" lon="151.2835751">
  <ele>373.13</ele>
  <time>2026-09-01T19:58:32Z</time>
  <course>271.73</course>
  <speed>25.38</speed>
  <fix>3d</fix>
</trkpt>
<trkpt lat="-27.2738522" lon="151.2835006">
  <ele>373.21</ele>
  <time>2026-09-01T19:58:32Z</time>
  <course>271.12</course>
  <speed>25.42963625378861</speed>
  <fix>3d</fix>
</trkpt>
<trkpt lat="-27.2738524" lon="151.2835238">
  <ele>373.11</ele>
  <time>2026-09-01T19:58:32Z</time>
  <course>271.69</course>
  <speed>25.39</speed>
  <fix>3d</fix>
</trkpt>
<trkpt lat="-27.2738515" lon="151.2834751">
  <ele>373.21</ele>
  <time>2026-09-01T19:58:32Z</time>
  <course>271.13</course>
  <speed>25.42963625378861</speed>
  <fix>3d</fix>
</trkpt>
<trkpt lat="-27.2738524" lon="151.2835238">
  <ele>373.11</ele>
  <time>2026-09-01T19:58:32Z</time>
  <course>271.69</course>
  <speed>25.39</speed>
  <fix>3d</fix>
</trkpt>
<trkpt lat="-27.2738509" lon="151.2834493">
  <ele>373.2</ele>
  <time>2026-09-01T19:58:32Z</time>
  <course>271.18</course>
  <speed>25.43963246589856</speed>
  <fix>3d</fix>
</trkpt>
<trkpt lat="-27.273851" lon="151.2834725">
  <ele>373.11</ele>
  <time>2026-09-01T19:58:32Z</time>
  <course>271.67</course>
  <speed>25.39</speed>
  <fix>3d</fix>
</trkpt>
<trkpt lat="-27.2738502" lon="151.2834235">
  <ele>373.2</ele>
  <time>2026-09-01T19:58:32Z</time>
  <course>271.18</course>
  <speed>25.43963246589856</speed>
  <fix>3d</fix>
</trkpt>
<trkpt lat="-27.273851" lon="151.2834725">
  <ele>373.11</ele>
  <time>2026-09-01T19:58:32Z</time>
  <course>271.67</course>
  <speed>25.39</speed>
  <fix>3d</fix>
</trkpt>
<trkpt lat="-27.2738495" lon="151.2833977">
  <ele>373.2</ele>
  <time>2026-09-01T19:58:32Z</time>
  <course>271.13</course>
  <speed>25.44962868098472</speed>
  <fix>3d</fix>
</trkpt>
<trkpt lat="-27.273851" lon="151.2834725">
  <ele>373.11</ele>
  <time>2026-09-01T19:58:32Z</time>
  <course>271.67</course>
  <speed>25.39</speed>
  <fix>3d</fix>
</trkpt>
<trkpt lat="-27.2738488" lon="151.2833721">
  <ele>373.2</ele>
  <time>2026-09-01T19:58:32Z</time>
  <course>271.11</course>
  <speed>25.43963246589856</speed>
  <fix>3d</fix>
</trkpt>
<trkpt lat="-27.2738497" lon="151.2834211">
  <ele>373.1</ele>
  <time>2026-09-01T19:58:32Z</time>
  <course>271.67</course>
  <speed>25.39</speed>
  <fix>3d</fix>
</trkpt>
<trkpt lat="-27.2738482" lon="151.2833464">
  <ele>373.2</ele>
  <time>2026-09-01T19:58:32Z</time>
  <course>271.14</course>
  <speed>25.42963625378861</speed>
  <fix>3d</fix>
</trkpt>
<trkpt lat="-27.2738497" lon="151.2834211">
  <ele>373.1</ele>
  <time>2026-09-01T19:58:32Z</time>
  <course>271.67</course>
  <speed>25.39</speed>
  <fix>3d</fix>
</trkpt>
<trkpt lat="-27.2738475" lon="151.2833209">
  <ele>373.2</ele>
  <time>2026-09-01T19:58:32Z</time>
  <course>271.13</course>
  <speed>25.419917387749315</speed>
  <fix>3d</fix>
</trkpt>
<trkpt lat="-27.2738484" lon="151.2833698">
  <ele>373.1</ele>
  <time>2026-09-01T19:58:32Z</time>
  <course>271.68</course>
  <speed>25.38</speed>
  <fix>3d</fix>
</trkpt>
<trkpt lat="-27.2738468" lon="151.2832955">
  <ele>373.2</ele>
  <time>2026-09-01T19:58:32Z</time>
  <course>271.1</course>
  <speed>25.409643838511393</speed>
  <fix>3d</fix>
</trkpt>
<trkpt lat="-27.273847" lon="151.2833185">
  <ele>373.1</ele>
  <time>2026-09-01T19:58:32Z</time>
  <course>271.69</course>
  <speed>25.38</speed>
  <fix>3d</fix>
</trkpt>
<trkpt lat="-27.2738461" lon="151.2832699">
  <ele>373.19</ele>
  <time>2026-09-01T19:58:32Z</time>
  <course>271.08</course>
  <speed>25.409921290708475</speed>
  <fix>3d</fix>
</trkpt>
<trkpt lat="-27.273847" lon="151.2833185">
  <ele>373.1</ele>
  <time>2026-09-01T19:58:32Z</time>
  <course>271.69</course>
  <speed>25.38</speed>
  <fix>3d</fix>
</trkpt>
<trkpt lat="-27.2738455" lon="151.2832443">
  <ele>373.19</ele>
  <time>2026-09-01T19:58:32Z</time>
  <course>271.06</course>
  <speed>25.409643838511393</speed>
  <fix>3d</fix>
</trkpt>
<trkpt lat="-27.2738457" lon="151.2832672">
  <ele>373.1</ele>
  <time>2026-09-01T19:58:32Z</time>
  <course>271.69</course>
  <speed>25.39</speed>
  <fix>3d</fix>
</trkpt>
<trkpt lat="-27.2738448" lon="151.2832187">
  <ele>373.19</ele>
  <time>2026-09-01T19:58:32Z</time>
  <course>271.13</course>
  <speed>25.409643838511393</speed>
  <fix>3d</fix>
</trkpt>
<trkpt lat="-27.2738457" lon="151.2832672">
  <ele>373.1</ele>
  <time>2026-09-01T19:58:32Z</time>
  <course>271.69</course>
  <speed>25.39</speed>
  <fix>3d</fix>
</trkpt>
<trkpt lat="-27.2738441" lon="151.283193">
  <ele>373.18</ele>
  <time>2026-09-01T19:58:32Z</time>
  <course>271.13</course>
  <speed>25.409643838511393</speed>
  <fix>3d</fix>
</trkpt>
<trkpt lat="-27.2738443" lon="151.2832159">
  <ele>373.09</ele>
  <time>2026-09-01T19:58:32Z</time>
  <course>271.68</course>
  <speed>25.39</speed>
  <fix>3d</fix>
</trkpt>
<trkpt lat="-27.2738435" lon="151.2831672">
  <ele>373.18</ele>
  <time>2026-09-01T19:58:32Z</time>
  <course>271.12</course>
  <speed>25.42963625378861</speed>
  <fix>3d</fix>
</trkpt>
<trkpt lat="-27.2738443" lon="151.2832159">
  <ele>373.09</ele>
  <time>2026-09-01T19:58:32Z</time>
  <course>271.68</course>
  <speed>25.39</speed>
  <fix>3d</fix>
</trkpt>
<trkpt lat="-27.2738428" lon="151.2831414">
  <ele>373.18</ele>
  <time>2026-09-01T19:58:32Z</time>
  <course>271.06</course>
  <speed>25.43963246589856</speed>
  <fix>3d</fix>
</trkpt>
<trkpt lat="-27.273843" lon="151.2831646">
  <ele>373.08</ele>
  <time>2026-09-01T19:58:32Z</time>
  <course>271.68</course>
  <speed>25.4</speed>
  <fix>3d</fix>
</trkpt>
<trkpt lat="-27.2738421" lon="151.2831157">
  <ele>373.17</ele>
  <time>2026-09-01T19:58:32Z</time>
  <course>271.03</course>
  <speed>25.43963246589856</speed>
  <fix>3d</fix>
</trkpt>
<trkpt lat="-27.273843" lon="151.2831646">
  <ele>373.08</ele>
  <time>2026-09-01T19:58:32Z</time>
  <course>271.68</course>
  <speed>25.4</speed>
  <fix>3d</fix>
</trkpt>
<trkpt lat="-27.2738414" lon="151.28309">
  <ele>373.17</ele>
  <time>2026-09-01T19:58:32Z</time>
  <course>271.02</course>
  <speed>25.43963246589856</speed>
  <fix>3d</fix>
</trkpt>
<trkpt lat="-27.2738416" lon="151.2831133">
  <ele>373.08</ele>
  <time>2026-09-01T19:58:32Z</time>
  <course>271.67</course>
  <speed>25.4</speed>
  <fix>3d</fix>
</trkpt>
<trkpt lat="-27.2738408" lon="151.2830643">
  <ele>373.17</ele>
  <time>2026-09-01T19:58:32Z</time>
  <course>271.06</course>
  <speed>25.439359268660837</speed>
  <fix>3d</fix>
</trkpt>
<trkpt lat="-27.2738416" lon="151.2831133">
  <ele>373.08</ele>
  <time>2026-09-01T19:58:32Z</time>
  <course>271.67</course>
  <speed>25.4</speed>
  <fix>3d</fix>
</trkpt>
<trkpt lat="-27.2738401" lon="151.2830386">
  <ele>373.17</ele>
  <time>2026-09-01T19:58:32Z</time>
  <course>271.06</course>
  <speed>25.439089999447702</speed>
  <fix>3d</fix>
</trkpt>
<trkpt lat="-27.2738403" lon="151.283062">
  <ele>373.08</ele>
  <time>2026-09-01T19:58:32Z</time>
  <course>271.65</course>
  <speed>25.4</speed>
  <fix>3d</fix>
</trkpt>
<trkpt lat="-27.2738395" lon="151.2830129">
  <ele>373.17</ele>
  <time>2026-09-01T19:58:32Z</time>
  <course>271.03</course>
  <speed>25.439089999447702</speed>
  <fix>3d</fix>
</trkpt>
<trkpt lat="-27.2738403" lon="151.283062">
  <ele>373.08</ele>
  <time>2026-09-01T19:58:32Z</time>
  <course>271.65</course>
  <speed>25.4</speed>
  <fix>3d</fix>
</trkpt>
<trkpt lat="-27.2738388" lon="151.2829872">
  <ele>373.17</ele>
  <time>2026-09-01T19:58:32Z</time>
  <course>271.02</course>
  <speed>25.44908642761072</speed>
  <fix>3d</fix>
</trkpt>
<trkpt lat="-27.273839" lon="151.2830107">
  <ele>373.09</ele>
  <time>2026-09-01T19:58:32Z</time>
  <course>271.63</course>
  <speed>25.4</speed>
  <fix>3d</fix>
</trkpt>
<trkpt lat="-27.2738382" lon="151.2829616">
  <ele>373.17</ele>
  <time>2026-09-01T19:58:32Z</time>
  <course>271.03</course>
  <speed>25.44908642761072</speed>
  <fix>3d</fix>
</trkpt>
<trkpt lat="-27.273839" lon="151.2830107">
  <ele>373.09</ele>
  <time>2026-09-01T19:58:32Z</time>
  <course>271.63</course>
  <speed>25.4</speed>
  <fix>3d</fix>
</trkpt>
<trkpt lat="-27.2738375" lon="151.2829361">
  <ele>373.16</ele>
  <time>2026-09-01T19:58:32Z</time>
  <course>271.07</course>
  <speed>25.439089999447702</speed>
  <fix>3d</fix>
</trkpt>
<trkpt lat="-27.2738377" lon="151.2829594">
  <ele>373.09</ele>
  <time>2026-09-01T19:58:32Z</time>
  <course>271.63</course>
  <speed>25.4</speed>
  <fix>3d</fix>
</trkpt>
<trkpt lat="-27.2738369" lon="151.2829103">
  <ele>373.16</ele>
  <time>2026-09-01T19:58:32Z</time>
  <course>271.02</course>
  <speed>25.44908642761072</speed>
  <fix>3d</fix>
</trkpt>
<trkpt lat="-27.2738377" lon="151.2829594">
  <ele>373.09</ele>
  <time>2026-09-01T19:58:32Z</time>
  <course>271.63</course>
  <speed>25.4</speed>
  <fix>3d</fix>
</trkpt>
<trkpt lat="-27.2738362" lon="151.2828845">
  <ele>373.16</ele>
  <time>2026-09-01T19:58:32Z</time>
  <course>271.0</course>
  <speed>25.459082858579176</speed>
  <fix>3d</fix>
</trkpt>
<trkpt lat="-27.2738364" lon="151.282908">
  <ele>373.08</ele>
  <time>2026-09-01T19:58:32Z</time>
  <course>271.62</course>
  <speed>25.4</speed>
  <fix>3d</fix>
</trkpt>
<trkpt lat="-27.2738356" lon="151.2828586">
  <ele>373.16</ele>
  <time>2026-09-01T19:58:32Z</time>
  <course>271.01</course>
  <speed>25.468814263722606</speed>
  <fix>3d</fix>
</trkpt>
<trkpt lat="-27.2738364" lon="151.282908">
  <ele>373.08</ele>
  <time>2026-09-01T19:58:32Z</time>
  <course>271.62</course>
  <speed>25.4</speed>
  <fix>3d</fix>
</trkpt>
<trkpt lat="-27.2738349" lon="151.2828325">
  <ele>373.16</ele>
  <time>2026-09-01T19:58:32Z</time>
  <course>271.04</course>
  <speed>25.478810804274207</speed>
  <fix>3d</fix>
</trkpt>
<trkpt lat="-27.2738364" lon="151.282908">
  <ele>373.08</ele>
  <time>2026-09-01T19:58:32Z</time>
  <course>271.62</course>
  <speed>25.4</speed>
  <fix>3d</fix>
</trkpt>
<trkpt lat="-27.2738343" lon="151.2828069">
  <ele>373.16</ele>
  <time>2026-09-01T19:58:32Z</time>
  <course>271.03</course>
  <speed>25.478810804274207</speed>
  <fix>3d</fix>
</trkpt>
<trkpt lat="-27.2738351" lon="151.2828566">
  <ele>373.08</ele>
  <time>2026-09-01T19:58:32Z</time>
  <course>271.6</course>
  <speed>25.4</speed>
  <fix>3d</fix>
</trkpt>
<trkpt lat="-27.2738336" lon="151.2827813">
  <ele>373.17</ele>
  <time>2026-09-01T19:58:32Z</time>
  <course>271.01</course>
  <speed>25.468553158748538</speed>
  <fix>3d</fix>
</trkpt>
<trkpt lat="-27.2738351" lon="151.2828566">
  <ele>373.08</ele>
  <time>2026-09-01T19:58:32Z</time>
  <course>271.6</course>
  <speed>25.4</speed>
  <fix>3d</fix>
</trkpt>
<trkpt lat="-27.273833" lon="151.282755">
  <ele>373.17</ele>
  <time>2026-09-01T19:58:32Z</time>
  <course>270.97</course>
  <speed>25.458556518388864</speed>
  <fix>3d</fix>
</trkpt>
<trkpt lat="-27.2738338" lon="151.2828052">
  <ele>373.09</ele>
  <time>2026-09-01T19:58:32Z</time>
  <course>271.58</course>
  <speed>25.4</speed>
  <fix>3d</fix>
</trkpt>
<trkpt lat="-27.2738324" lon="151.2827295">
  <ele>373.17</ele>
  <time>2026-09-01T19:58:32Z</time>
  <course>270.94</course>
  <speed>25.448302497416208</speed>
  <fix>3d</fix>
</trkpt>
<trkpt lat="-27.2738338" lon="151.2828052">
  <ele>373.09</ele>
  <time>2026-09-01T19:58:32Z</time>
  <course>271.58</course>
  <speed>25.4</speed>
  <fix>3d</fix>
</trkpt>
<trkpt lat="-27.2738318" lon="151.2827043">
  <ele>373.17</ele>
  <time>2026-09-01T19:58:32Z</time>
  <course>270.92</course>
  <speed>25.438305761194083</speed>
  <fix>3d</fix>
</trkpt>
<trkpt lat="-27.2738326" lon="151.2827539">
  <ele>373.09</ele>
  <time>2026-09-01T19:58:32Z</time>
  <course>271.57</course>
  <speed>25.4</speed>
  <fix>3d</fix>
</trkpt>
<trkpt lat="-27.2738311" lon="151.2826789">
  <ele>373.16</ele>
  <time>2026-09-01T19:58:32Z</time>
  <course>270.99</course>
  <speed>25.428055371970544</speed>
  <fix>3d</fix>
</trkpt>
<trkpt lat="-27.2738326" lon="151.2827539">
  <ele>373.09</ele>
  <time>2026-09-01T19:58:32Z</time>
  <course>271.57</course>
  <speed>25.4</speed>
  <fix>3d</fix>
</trkpt>
<trkpt lat="-27.2738305" lon="151.2826535">
  <ele>373.16</ele>
  <time>2026-09-01T19:58:32Z</time>
  <course>270.97</course>
  <speed>25.41805854112387</speed>
  <fix>3d</fix>
</trkpt>
<trkpt lat="-27.2738314" lon="151.2827026">
  <ele>373.09</ele>
  <time>2026-09-01T19:58:32Z</time>
  <course>271.54</course>
  <speed>25.4</speed>
  <fix>3d</fix>
</trkpt>
<trkpt lat="-27.2738299" lon="151.2826281">
  <ele>373.16</ele>
  <time>2026-09-01T19:58:32Z</time>
  <course>270.94</course>
  <speed>25.41805854112387</speed>
  <fix>3d</fix>
</trkpt>
<trkpt lat="-27.2738314" lon="151.2827026">
  <ele>373.09</ele>
  <time>2026-09-01T19:58:32Z</time>
  <course>271.54</course>
  <speed>25.4</speed>
  <fix>3d</fix>
</trkpt>
<trkpt lat="-27.2738293" lon="151.2826031">
  <ele>373.16</ele>
  <time>2026-09-01T19:58:32Z</time>
  <course>270.9</course>
  <speed>25.407811790864635</speed>
  <fix>3d</fix>
</trkpt>
<trkpt lat="-27.2738301" lon="151.2826512">
  <ele>373.09</ele>
  <time>2026-09-01T19:58:32Z</time>
  <course>271.52</course>
  <speed>25.41</speed>
  <fix>3d</fix>
</trkpt>
<trkpt lat="-27.2738287" lon="151.2825776">
  <ele>373.15</ele>
  <time>2026-09-01T19:58:32Z</time>
  <course>270.92</course>
  <speed>25.407811790864635</speed>
  <fix>3d</fix>
</trkpt>
<trkpt lat="-27.2738289" lon="151.2825999">
  <ele>373.08</ele>
  <time>2026-09-01T19:58:32Z</time>
  <course>271.51</course>
  <speed>25.41</speed>
  <fix>3d</fix>
</trkpt>
<trkpt lat="-27.2738281" lon="151.282552">
  <ele>373.15</ele>
  <time>2026-09-01T19:58:32Z</time>
  <course>270.91</course>
  <speed>25.407811790864635</speed>
  <fix>3d</fix>
</trkpt>
<trkpt lat="-27.2738289" lon="151.2825999">
  <ele>373.08</ele>
  <time>2026-09-01T19:58:32Z</time>
  <course>271.51</course>
  <speed>25.41</speed>
  <fix>3d</fix>
</trkpt>
<trkpt lat="-27.2738275" lon="151.2825264">
  <ele>373.15</ele>
  <time>2026-09-01T19:58:32Z</time>
  <course>270.87</course>
  <speed>25.41780871751143</speed>
  <fix>3d</fix>
</trkpt>
<trkpt lat="-27.2738277" lon="151.2825485">
  <ele>373.07</ele>
  <time>2026-09-01T19:58:32Z</time>
  <course>271.49</course>
  <speed>25.42</speed>
  <fix>3d</fix>
</trkpt>
<trkpt lat="-27.2738269" lon="151.2825007">
  <ele>373.15</ele>
  <time>2026-09-01T19:58:32Z</time>
  <course>270.81</course>
  <speed>25.41780871751143</speed>
  <fix>3d</fix>
</trkpt>
<trkpt lat="-27.2738277" lon="151.2825485">
  <ele>373.07</ele>
  <time>2026-09-01T19:58:32Z</time>
  <course>271.49</course>
  <speed>25.42</speed>
  <fix>3d</fix>
</trkpt>
<trkpt lat="-27.2738263" lon="151.2824751">
  <ele>373.14</ele>
  <time>2026-09-01T19:58:32Z</time>
  <course>270.86</course>
  <speed>25.41756282573134</speed>
  <fix>3d</fix>
</trkpt>
<trkpt lat="-27.2738265" lon="151.2824972">
  <ele>373.07</ele>
  <time>2026-09-01T19:58:32Z</time>
  <course>271.48</course>
  <speed>25.43</speed>
  <fix>3d</fix>
</trkpt>
<trkpt lat="-27.2738257" lon="151.2824493">
  <ele>373.14</ele>
  <time>2026-09-01T19:58:32Z</time>
  <course>270.91</course>
  <speed>25.42755985146825</speed>
  <fix>3d</fix>
</trkpt>
<trkpt lat="-27.2738265" lon="151.2824972">
  <ele>373.07</ele>
  <time>2026-09-01T19:58:32Z</time>
  <course>271.48</course>
  <speed>25.43</speed>
  <fix>3d</fix>
</trkpt>
<trkpt lat="-27.2738252" lon="151.2824236">
  <ele>373.14</ele>
  <time>2026-09-01T19:58:32Z</time>
  <course>270.92</course>
  <speed>25.42755985146825</speed>
  <fix>3d</fix>
</trkpt>
<trkpt lat="-27.2738254" lon="151.2824458">
  <ele>373.07</ele>
  <time>2026-09-01T19:58:32Z</time>
  <course>271.47</course>
  <speed>25.43</speed>
  <fix>3d</fix>
</trkpt>
<trkpt lat="-27.2738246" lon="151.2823981">
  <ele>373.14</ele>
  <time>2026-09-01T19:58:32Z</time>
  <course>270.87</course>
  <speed>25.42755985146825</speed>
  <fix>3d</fix>
</trkpt>
<trkpt lat="-27.2738254" lon="151.2824458">
  <ele>373.07</ele>
  <time>2026-09-01T19:58:32Z</time>
  <course>271.47</course>
  <speed>25.43</speed>
  <fix>3d</fix>
</trkpt>
<trkpt lat="-27.273824" lon="151.2823723">
  <ele>373.14</ele>
  <time>2026-09-01T19:58:32Z</time>
  <course>270.83</course>
  <speed>25.437556879543287</speed>
  <fix>3d</fix>
</trkpt>
<trkpt lat="-27.2738242" lon="151.2823945">
  <ele>373.07</ele>
  <time>2026-09-01T19:58:32Z</time>
  <course>271.46</course>
  <speed>25.43</speed>
  <fix>3d</fix>
</trkpt>
<trkpt lat="-27.2738234" lon="151.2823464">
  <ele>373.15</ele>
  <time>2026-09-01T19:58:32Z</time>
  <course>270.84</course>
  <speed>25.447312235283317</speed>
  <fix>3d</fix>
</trkpt>
<trkpt lat="-27.2738242" lon="151.2823945">
  <ele>373.07</ele>
  <time>2026-09-01T19:58:32Z</time>
  <course>271.46</course>
  <speed>25.43</speed>
  <fix>3d</fix>
</trkpt>
<trkpt lat="-27.2738228" lon="151.2823206">
  <ele>373.15</ele>
  <time>2026-09-01T19:58:32Z</time>
  <course>270.77</course>
  <speed>25.447312235283317</speed>
  <fix>3d</fix>
</trkpt>
<trkpt lat="-27.2738242" lon="151.2823945">
  <ele>373.07</ele>
  <time>2026-09-01T19:58:32Z</time>
  <course>271.46</course>
  <speed>25.43</speed>
  <fix>3d</fix>
</trkpt>
<trkpt lat="-27.2738222" lon="151.2822946">
  <ele>373.16</ele>
  <time>2026-09-01T19:58:32Z</time>
  <course>270.79</course>
  <speed>25.447312235283317</speed>
  <fix>3d</fix>
</trkpt>
<trkpt lat="-27.273823" lon="151.282343">
  <ele>373.07</ele>
  <time>2026-09-01T19:58:32Z</time>
  <course>271.45</course>
  <speed>25.43</speed>
  <fix>3d</fix>
</trkpt>
<trkpt lat="-27.2738217" lon="151.282269">
  <ele>373.16</ele>
  <time>2026-09-01T19:58:32Z</time>
  <course>270.82</course>
  <speed>25.447074488042826</speed>
  <fix>3d</fix>
</trkpt>
<trkpt lat="-27.273823" lon="151.282343">
  <ele>373.07</ele>
  <time>2026-09-01T19:58:32Z</time>
  <course>271.45</course>
  <speed>25.43</speed>
  <fix>3d</fix>
</trkpt>
<trkpt lat="-27.2738211" lon="151.2822434">
  <ele>373.16</ele>
  <time>2026-09-01T19:58:32Z</time>
  <course>270.83</course>
  <speed>25.447074488042826</speed>
  <fix>3d</fix>
</trkpt>
<trkpt lat="-27.2738218" lon="151.2822914">
  <ele>373.07</ele>
  <time>2026-09-01T19:58:32Z</time>
  <course>271.43</course>
  <speed>25.43</speed>
  <fix>3d</fix>
</trkpt>
<trkpt lat="-27.2738205" lon="151.2822169">
  <ele>373.16</ele>
  <time>2026-09-01T19:58:32Z</time>
  <course>270.85</course>
  <speed>25.437077269214715</speed>
  <fix>3d</fix>
</trkpt>
<trkpt lat="-27.2738218" lon="151.2822914">
  <ele>373.07</ele>
  <time>2026-09-01T19:58:32Z</time>
  <course>271.43</course>
  <speed>25.43</speed>
  <fix>3d</fix>
</trkpt>
<trkpt lat="-27.2738199" lon="151.2821916">
  <ele>373.16</ele>
  <time>2026-09-01T19:58:32Z</time>
  <course>270.79</course>
  <speed>25.437077269214715</speed>
  <fix>3d</fix>
</trkpt>
<trkpt lat="-27.2738207" lon="151.2822401">
  <ele>373.07</ele>
  <time>2026-09-01T19:58:32Z</time>
  <course>271.42</course>
  <speed>25.43</speed>
  <fix>3d</fix>
</trkpt>
<trkpt lat="-27.2738194" lon="151.282166">
  <ele>373.16</ele>
  <time>2026-09-01T19:58:32Z</time>
  <course>270.79</course>
  <speed>25.42708005257387</speed>
  <fix>3d</fix>
</trkpt>
<trkpt lat="-27.2738207" lon="151.2822401">
  <ele>373.07</ele>
  <time>2026-09-01T19:58:32Z</time>
  <course>271.42</course>
  <speed>25.43</speed>
  <fix>3d</fix>
</trkpt>
<trkpt lat="-27.2738188" lon="151.2821404">
  <ele>373.16</ele>
  <time>2026-09-01T19:58:32Z</time>
  <course>270.85</course>
  <speed>25.42708005257387</speed>
  <fix>3d</fix>
</trkpt>
<trkpt lat="-27.2738196" lon="151.2821887">
  <ele>373.07</ele>
  <time>2026-09-01T19:58:32Z</time>
  <course>271.42</course>
  <speed>25.43</speed>
  <fix>3d</fix>
</trkpt>
<trkpt lat="-27.2738182" lon="151.2821149">
  <ele>373.16</ele>
  <time>2026-09-01T19:58:32Z</time>
  <course>270.84</course>
  <speed>25.41708283812287</speed>
  <fix>3d</fix>
</trkpt>
<trkpt lat="-27.2738196" lon="151.2821887">
  <ele>373.07</ele>
  <time>2026-09-01T19:58:32Z</time>
  <course>271.42</course>
  <speed>25.43</speed>
  <fix>3d</fix>
</trkpt>
<trkpt lat="-27.2738177" lon="151.2820893">
  <ele>373.15</ele>
  <time>2026-09-01T19:58:32Z</time>
  <course>270.81</course>
  <speed>25.41732086589773</speed>
  <fix>3d</fix>
</trkpt>
<trkpt lat="-27.2738184" lon="151.2821374">
  <ele>373.07</ele>
  <time>2026-09-01T19:58:32Z</time>
  <course>271.41</course>
  <speed>25.43</speed>
  <fix>3d</fix>
</trkpt>
<trkpt lat="-27.2738171" lon="151.2820635">
  <ele>373.15</ele>
  <time>2026-09-01T19:58:32Z</time>
  <course>270.82</course>
  <speed>25.41732086589773</speed>
  <fix>3d</fix>
</trkpt>
<trkpt lat="-27.2738184" lon="151.2821374">
  <ele>373.07</ele>
  <time>2026-09-01T19:58:32Z</time>
  <course>271.41</course>
  <speed>25.43</speed>
  <fix>3d</fix>
</trkpt>
<trkpt lat="-27.2738165" lon="151.282038">
  <ele>373.15</ele>
  <time>2026-09-01T19:58:32Z</time>
  <course>270.81</course>
  <speed>25.407323747297745</speed>
  <fix>3d</fix>
</trkpt>
<trkpt lat="-27.2738173" lon="151.282086">
  <ele>373.07</ele>
  <time>2026-09-01T19:58:32Z</time>
  <course>271.43</course>
  <speed>25.43</speed>
  <fix>3d</fix>
</trkpt>
<trkpt lat="-27.2738159" lon="151.2820124">
  <ele>373.15</ele>
  <time>2026-09-01T19:58:32Z</time>
  <course>270.78</course>
  <speed>25.407323747297745</speed>
  <fix>3d</fix>
</trkpt>
<trkpt lat="-27.2738173" lon="151.282086">
  <ele>373.07</ele>
  <time>2026-09-01T19:58:32Z</time>
  <course>271.43</course>
  <speed>25.43</speed>
  <fix>3d</fix>
</trkpt>
<trkpt lat="-27.2738153" lon="151.2819868">
  <ele>373.15</ele>
  <time>2026-09-01T19:58:32Z</time>
  <course>270.78</course>
  <speed>25.407565802335334</speed>
  <fix>3d</fix>
</trkpt>
<trkpt lat="-27.2738162" lon="151.2820345">
  <ele>373.07</ele>
  <time>2026-09-01T19:58:32Z</time>
  <course>271.44</course>
  <speed>25.43</speed>
  <fix>3d</fix>
</trkpt>
<trkpt lat="-27.2738148" lon="151.2819612">
  <ele>373.15</ele>
  <time>2026-09-01T19:58:32Z</time>
  <course>270.78</course>
  <speed>25.407565802335334</speed>
  <fix>3d</fix>
</trkpt>
<trkpt lat="-27.2738162" lon="151.2820345">
  <ele>373.07</ele>
  <time>2026-09-01T19:58:32Z</time>
  <course>271.44</course>
  <speed>25.43</speed>
  <fix>3d</fix>
</trkpt>
<trkpt lat="-27.2738142" lon="151.2819356">
  <ele>373.15</ele>
  <time>2026-09-01T19:58:32Z</time>
  <course>270.84</course>
  <speed>25.407323747297745</speed>
  <fix>3d</fix>
</trkpt>
<trkpt lat="-27.273815" lon="151.2819832">
  <ele>373.07</ele>
  <time>2026-09-01T19:58:32Z</time>
  <course>271.44</course>
  <speed>25.43</speed>
  <fix>3d</fix>
</trkpt>
<trkpt lat="-27.2738136" lon="151.28191">
  <ele>373.15</ele>
  <time>2026-09-01T19:58:32Z</time>
  <course>270.84</course>
  <speed>25.407565802335334</speed>
  <fix>3d</fix>
</trkpt>
<trkpt lat="-27.273815" lon="151.2819832">
  <ele>373.07</ele>
  <time>2026-09-01T19:58:32Z</time>
  <course>271.44</course>
  <speed>25.43</speed>
  <fix>3d</fix>
</trkpt>
<trkpt lat="-27.273813" lon="151.281885">
  <ele>373.14</ele>
  <time>2026-09-01T19:58:32Z</time>
  <course>270.79</course>
  <speed>25.407565802335334</speed>
  <fix>3d</fix>
</trkpt>
<trkpt lat="-27.2738139" lon="151.2819318">
  <ele>373.07</ele>
  <time>2026-09-01T19:58:32Z</time>
  <course>271.44</course>
  <speed>25.44</speed>
  <fix>3d</fix>
</trkpt>
<trkpt lat="-27.2738125" lon="151.2818596">
  <ele>373.14</ele>
  <time>2026-09-01T19:58:32Z</time>
  <course>270.81</course>
  <speed>25.407565802335334</speed>
  <fix>3d</fix>
</trkpt>
<trkpt lat="-27.2738127" lon="151.2818804">
  <ele>373.06</ele>
  <time>2026-09-01T19:58:32Z</time>
  <course>271.44</course>
  <speed>25.44</speed>
  <fix>3d</fix>
</trkpt>
<trkpt lat="-27.2738119" lon="151.2818338">
  <ele>373.14</ele>
  <time>2026-09-01T19:58:32Z</time>
  <course>270.83</course>
  <speed>25.41756282573134</speed>
  <fix>3d</fix>
</trkpt>
<trkpt lat="-27.2738127" lon="151.2818804">
  <ele>373.06</ele>
  <time>2026-09-01T19:58:32Z</time>
  <course>271.44</course>
  <speed>25.44</speed>
  <fix>3d</fix>
</trkpt>
<trkpt lat="-27.2738113" lon="151.2818079">
  <ele>373.14</ele>
  <time>2026-09-01T19:58:32Z</time>
  <course>270.83</course>
  <speed>25.427805646575166</speed>
  <fix>3d</fix>
</trkpt>
<trkpt lat="-27.2738116" lon="151.281829">
  <ele>373.05</ele>
  <time>2026-09-01T19:58:32Z</time>
  <course>271.45</course>
  <speed>25.44</speed>
  <fix>3d</fix>
</trkpt>
<trkpt lat="-27.2738107" lon="151.281782">
  <ele>373.14</ele>
  <time>2026-09-01T19:58:32Z</time>
  <course>270.86</course>
  <speed>25.437802578053002</speed>
  <fix>3d</fix>
</trkpt>
<trkpt lat="-27.2738116" lon="151.281829">
  <ele>373.05</ele>
  <time>2026-09-01T19:58:32Z</time>
  <course>271.45</course>
  <speed>25.44</speed>
  <fix>3d</fix>
</trkpt>
<trkpt lat="-27.2738101" lon="151.2817559">
  <ele>373.14</ele>
  <time>2026-09-01T19:58:32Z</time>
  <course>270.88</course>
  <speed>25.437802578053002</speed>
  <fix>3d</fix>
</trkpt>
<trkpt lat="-27.2738116" lon="151.281829">
  <ele>373.05</ele>
  <time>2026-09-01T19:58:32Z</time>
  <course>271.45</course>
  <speed>25.44</speed>
  <fix>3d</fix>
</trkpt>
<trkpt lat="-27.2738095" lon="151.2817302">
  <ele>373.14</ele>
  <time>2026-09-01T19:58:32Z</time>
  <course>270.82</course>
  <speed>25.44779951194209</speed>
  <fix>3d</fix>
</trkpt>
<trkpt lat="-27.2738104" lon="151.2817775">
  <ele>373.05</ele>
  <time>2026-09-01T19:58:32Z</time>
  <course>271.47</course>
  <speed>25.44</speed>
  <fix>3d</fix>
</trkpt>
<trkpt lat="-27.2738089" lon="151.2817046">
  <ele>373.14</ele>
  <time>2026-09-01T19:58:32Z</time>
  <course>270.83</course>
  <speed>25.44779951194209</speed>
  <fix>3d</fix>
</trkpt>
<trkpt lat="-27.2738104" lon="151.2817775">
  <ele>373.05</ele>
  <time>2026-09-01T19:58:32Z</time>
  <course>271.47</course>
  <speed>25.44</speed>
  <fix>3d</fix>
</trkpt>
<trkpt lat="-27.2738083" lon="151.2816782">
  <ele>373.14</ele>
  <time>2026-09-01T19:58:32Z</time>
  <course>270.85</course>
  <speed>25.437802578053002</speed>
  <fix>3d</fix>
</trkpt>
<trkpt lat="-27.2738092" lon="151.281726">
  <ele>373.05</ele>
  <time>2026-09-01T19:58:32Z</time>
  <course>271.48</course>
  <speed>25.44</speed>
  <fix>3d</fix>
</trkpt>
<trkpt lat="-27.2738078" lon="151.2816529">
  <ele>373.14</ele>
  <time>2026-09-01T19:58:33Z</time>
  <course>270.86</course>
  <speed>25.427805646575166</speed>
  <fix>3d</fix>
</trkpt>
<trkpt lat="-27.2738092" lon="151.281726">
  <ele>373.05</ele>
  <time>2026-09-01T19:58:33Z</time>
  <course>271.48</course>
  <speed>25.44</speed>
  <fix>3d</fix>
</trkpt>
<trkpt lat="-27.2738072" lon="151.2816273">
  <ele>373.14</ele>
  <time>2026-09-01T19:58:33Z</time>
  <course>270.89</course>
  <speed>25.437802578053002</speed>
  <fix>3d</fix>
</trkpt>
<trkpt lat="-27.273808" lon="151.2816745">
  <ele>373.05</ele>
  <time>2026-09-01T19:58:33Z</time>
  <course>271.48</course>
  <speed>25.45</speed>
  <fix>3d</fix>
</trkpt>
<trkpt lat="-27.2738066" lon="151.2816016">
  <ele>373.14</ele>
  <time>2026-09-01T19:58:33Z</time>
  <course>270.89</course>
  <speed>25.437802578053002</speed>
  <fix>3d</fix>
</trkpt>
<trkpt lat="-27.273808" lon="151.2816745">
  <ele>373.05</ele>
  <time>2026-09-01T19:58:33Z</time>
  <course>271.48</course>
  <speed>25.45</speed>
  <fix>3d</fix>
</trkpt>
<trkpt lat="-27.273806" lon="151.281576">
  <ele>373.13</ele>
  <time>2026-09-01T19:58:33Z</time>
  <course>270.88</course>
  <speed>25.437802578053002</speed>
  <fix>3d</fix>
</trkpt>
<trkpt lat="-27.2738068" lon="151.2816232">
  <ele>373.04</ele>
  <time>2026-09-01T19:58:33Z</time>
  <course>271.48</course>
  <speed>25.45</speed>
  <fix>3d</fix>
</trkpt>
<trkpt lat="-27.2738054" lon="151.2815501">
  <ele>373.13</ele>
  <time>2026-09-01T19:58:33Z</time>
  <course>270.86</course>
  <speed>25.437802578053002</speed>
  <fix>3d</fix>
</trkpt>
<trkpt lat="-27.2738068" lon="151.2816232">
  <ele>373.04</ele>
  <time>2026-09-01T19:58:33Z</time>
  <course>271.48</course>
  <speed>25.45</speed>
  <fix>3d</fix>
</trkpt>
<trkpt lat="-27.2738048" lon="151.2815243">
  <ele>373.14</ele>
  <time>2026-09-01T19:58:33Z</time>
  <course>270.87</course>
  <speed>25.437802578053002</speed>
  <fix>3d</fix>
</trkpt>
<trkpt lat="-27.2738056" lon="151.2815718">
  <ele>373.04</ele>
  <time>2026-09-01T19:58:33Z</time>
  <course>271.48</course>
  <speed>25.46</speed>
  <fix>3d</fix>
</trkpt>
<trkpt lat="-27.2738042" lon="151.2814986">
  <ele>373.14</ele>
  <time>2026-09-01T19:58:33Z</time>
  <course>270.89</course>
  <speed>25.437556879543287</speed>
  <fix>3d</fix>
</trkpt>
<trkpt lat="-27.2738056" lon="151.2815718">
  <ele>373.04</ele>
  <time>2026-09-01T19:58:33Z</time>
  <course>271.48</course>
  <speed>25.46</speed>
  <fix>3d</fix>
</trkpt>
<trkpt lat="-27.2738036" lon="151.281473">
  <ele>373.14</ele>
  <time>2026-09-01T19:58:33Z</time>
  <course>270.88</course>
  <speed>25.437556879543287</speed>
  <fix>3d</fix>
</trkpt>
<trkpt lat="-27.2738045" lon="151.2815203">
  <ele>373.04</ele>
  <time>2026-09-01T19:58:33Z</time>
  <course>271.47</course>
  <speed>25.46</speed>
  <fix>3d</fix>
</trkpt>
<trkpt lat="-27.273803" lon="151.2814474">
  <ele>373.14</ele>
  <time>2026-09-01T19:58:33Z</time>
  <course>270.86</course>
  <speed>25.42755985146825</speed>
  <fix>3d</fix>
</trkpt>
<trkpt lat="-27.2738045" lon="151.2815203">
  <ele>373.04</ele>
  <time>2026-09-01T19:58:33Z</time>
  <course>271.47</course>
  <speed>25.46</speed>
  <fix>3d</fix>
</trkpt>
<trkpt lat="-27.2738025" lon="151.2814218">
  <ele>373.14</ele>
  <time>2026-09-01T19:58:33Z</time>
  <course>270.82</course>
  <speed>25.42755985146825</speed>
  <fix>3d</fix>
</trkpt>
<trkpt lat="-27.2738033" lon="151.2814689">
  <ele>373.04</ele>
  <time>2026-09-01T19:58:33Z</time>
  <course>271.46</course>
  <speed>25.45</speed>
  <fix>3d</fix>
</trkpt>
<trkpt lat="-27.2738019" lon="151.2813962">
  <ele>373.14</ele>
  <time>2026-09-01T19:58:33Z</time>
  <course>270.77</course>
  <speed>25.41756282573134</speed>
  <fix>3d</fix>
</trkpt>
<trkpt lat="-27.2738033" lon="151.2814689">
  <ele>373.04</ele>
  <time>2026-09-01T19:58:33Z</time>
  <course>271.46</course>
  <speed>25.45</speed>
  <fix>3d</fix>
</trkpt>
<trkpt lat="-27.2738013" lon="151.2813706">
  <ele>373.14</ele>
  <time>2026-09-01T19:58:33Z</time>
  <course>270.8</course>
  <speed>25.41732086589773</speed>
  <fix>3d</fix>
</trkpt>
<trkpt lat="-27.2738021" lon="151.2814174">
  <ele>373.04</ele>
  <time>2026-09-01T19:58:33Z</time>
  <course>271.45</course>
  <speed>25.45</speed>
  <fix>3d</fix>
</trkpt>
<trkpt lat="-27.2738007" lon="151.2813451">
  <ele>373.14</ele>
  <time>2026-09-01T19:58:33Z</time>
  <course>270.81</course>
  <speed>25.407323747297745</speed>
  <fix>3d</fix>
</trkpt>
<trkpt lat="-27.2738021" lon="151.2814174">
  <ele>373.04</ele>
  <time>2026-09-01T19:58:33Z</time>
  <course>271.45</course>
  <speed>25.45</speed>
  <fix>3d</fix>
</trkpt>
<trkpt lat="-27.2738002" lon="151.2813195">
  <ele>373.14</ele>
  <time>2026-09-01T19:58:33Z</time>
  <course>270.79</course>
  <speed>25.407323747297745</speed>
  <fix>3d</fix>
</trkpt>
<trkpt lat="-27.273801" lon="151.2813661">
  <ele>373.04</ele>
  <time>2026-09-01T19:58:33Z</time>
  <course>271.45</course>
  <speed>25.45</speed>
  <fix>3d</fix>
</trkpt>
<trkpt lat="-27.2737996" lon="151.2812939">
  <ele>373.14</ele>
  <time>2026-09-01T19:58:33Z</time>
  <course>270.81</course>
  <speed>25.407323747297745</speed>
  <fix>3d</fix>
</trkpt>
<trkpt lat="-27.273801" lon="151.2813661">
  <ele>373.04</ele>
  <time>2026-09-01T19:58:33Z</time>
  <course>271.45</course>
  <speed>25.45</speed>
  <fix>3d</fix>
</trkpt>
<trkpt lat="-27.273799" lon="151.2812683">
  <ele>373.14</ele>
  <time>2026-09-01T19:58:33Z</time>
  <course>270.79</course>
  <speed>25.397326630966496</speed>
  <fix>3d</fix>
</trkpt>
<trkpt lat="-27.2737998" lon="151.2813147">
  <ele>373.05</ele>
  <time>2026-09-01T19:58:33Z</time>
  <course>271.44</course>
  <speed>25.45</speed>
  <fix>3d</fix>
</trkpt>
<trkpt lat="-27.2737985" lon="151.2812427">
  <ele>373.14</ele>
  <time>2026-09-01T19:58:33Z</time>
  <course>270.75</course>
  <speed>25.397088415800734</speed>
  <fix>3d</fix>
</trkpt>
<trkpt lat="-27.2737998" lon="151.2813147">
  <ele>373.05</ele>
  <time>2026-09-01T19:58:33Z</time>
  <course>271.44</course>
  <speed>25.45</speed>
  <fix>3d</fix>
</trkpt>
<trkpt lat="-27.2737979" lon="151.281217">
  <ele>373.14</ele>
  <time>2026-09-01T19:58:33Z</time>
  <course>270.8</course>
  <speed>25.406851438145576</speed>
  <fix>3d</fix>
</trkpt>
<trkpt lat="-27.2737987" lon="151.2812631">
  <ele>373.05</ele>
  <time>2026-09-01T19:58:33Z</time>
  <course>271.42</course>
  <speed>25.44</speed>
  <fix>3d</fix>
</trkpt>
<trkpt lat="-27.2737973" lon="151.2811913">
  <ele>373.13</ele>
  <time>2026-09-01T19:58:33Z</time>
  <course>270.87</course>
  <speed>25.407085625864294</speed>
  <fix>3d</fix>
</trkpt>
<trkpt lat="-27.2737987" lon="151.2812631">
  <ele>373.05</ele>
  <time>2026-09-01T19:58:33Z</time>
  <course>271.42</course>
  <speed>25.44</speed>
  <fix>3d</fix>
</trkpt>
<trkpt lat="-27.2737968" lon="151.2811662">
  <ele>373.13</ele>
  <time>2026-09-01T19:58:33Z</time>
  <course>270.89</course>
  <speed>25.41732086589773</speed>
  <fix>3d</fix>
</trkpt>
<trkpt lat="-27.2737975" lon="151.2812116">
  <ele>373.05</ele>
  <time>2026-09-01T19:58:33Z</time>
  <course>271.41</course>
  <speed>25.44</speed>
  <fix>3d</fix>
</trkpt>
<trkpt lat="-27.2737962" lon="151.2811397">
  <ele>373.12</ele>
  <time>2026-09-01T19:58:33Z</time>
  <course>270.82</course>
  <speed>25.41732086589773</speed>
  <fix>3d</fix>
</trkpt>
<trkpt lat="-27.2737975" lon="151.2812116">
  <ele>373.05</ele>
  <time>2026-09-01T19:58:33Z</time>
  <course>271.41</course>
  <speed>25.44</speed>
  <fix>3d</fix>
</trkpt>
<trkpt lat="-27.2737956" lon="151.2811142">
  <ele>373.12</ele>
  <time>2026-09-01T19:58:33Z</time>
  <course>270.79</course>
  <speed>25.427317986763764</speed>
  <fix>3d</fix>
</trkpt>
<trkpt lat="-27.2737964" lon="151.2811601">
  <ele>373.04</ele>
  <time>2026-09-01T19:58:33Z</time>
  <course>271.43</course>
  <speed>25.45</speed>
  <fix>3d</fix>
</trkpt>
<trkpt lat="-27.273795" lon="151.2810885">
  <ele>373.11</ele>
  <time>2026-09-01T19:58:33Z</time>
  <course>270.79</course>
  <speed>25.427317986763764</speed>
  <fix>3d</fix>
</trkpt>
<trkpt lat="-27.2737964" lon="151.2811601">
  <ele>373.04</ele>
  <time>2026-09-01T19:58:33Z</time>
  <course>271.43</course>
  <speed>25.45</speed>
  <fix>3d</fix>
</trkpt>
<trkpt lat="-27.2737945" lon="151.2810628">
  <ele>373.11</ele>
  <time>2026-09-01T19:58:33Z</time>
  <course>270.8</course>
  <speed>25.427317986763764</speed>
  <fix>3d</fix>
</trkpt>
<trkpt lat="-27.2737952" lon="151.2811087">
  <ele>373.03</ele>
  <time>2026-09-01T19:58:33Z</time>
  <course>271.44</course>
  <speed>25.46</speed>
  <fix>3d</fix>
</trkpt>
<trkpt lat="-27.2737939" lon="151.2810371">
  <ele>373.11</ele>
  <time>2026-09-01T19:58:33Z</time>
  <course>270.8</course>
  <speed>25.427317986763764</speed>
  <fix>3d</fix>
</trkpt>
<trkpt lat="-27.2737952" lon="151.2811087">
  <ele>373.03</ele>
  <time>2026-09-01T19:58:33Z</time>
  <course>271.44</course>
  <speed>25.46</speed>
  <fix>3d</fix>
</trkpt>
<trkpt lat="-27.2737933" lon="151.2810111">
  <ele>373.11</ele>
  <time>2026-09-01T19:58:33Z</time>
  <course>270.8</course>
  <speed>25.427317986763764</speed>
  <fix>3d</fix>
</trkpt>
<trkpt lat="-27.2737941" lon="151.2810574">
  <ele>373.03</ele>
  <time>2026-09-01T19:58:33Z</time>
  <course>271.45</course>
  <speed>25.46</speed>
  <fix>3d</fix>
</trkpt>
<trkpt lat="-27.2737927" lon="151.2809854">
  <ele>373.11</ele>
  <time>2026-09-01T19:58:33Z</time>
  <course>270.84</course>
  <speed>25.437315109893184</speed>
  <fix>3d</fix>
</trkpt>
<trkpt lat="-27.2737941" lon="151.2810574">
  <ele>373.03</ele>
  <time>2026-09-01T19:58:33Z</time>
  <course>271.45</course>
  <speed>25.46</speed>
  <fix>3d</fix>
</trkpt>
<trkpt lat="-27.2737921" lon="151.2809597">
  <ele>373.11</ele>
  <time>2026-09-01T19:58:33Z</time>
  <course>270.87</course>
  <speed>25.42755985146825</speed>
  <fix>3d</fix>
</trkpt>
<trkpt lat="-27.2737929" lon="151.281006">
  <ele>373.03</ele>
  <time>2026-09-01T19:58:33Z</time>
  <course>271.45</course>
  <speed>25.45</speed>
  <fix>3d</fix>
</trkpt>
<trkpt lat="-27.2737916" lon="151.280934">
  <ele>373.11</ele>
  <time>2026-09-01T19:58:33Z</time>
  <course>270.83</course>
  <speed>25.42755985146825</speed>
  <fix>3d</fix>
</trkpt>
<trkpt lat="-27.2737929" lon="151.281006">
  <ele>373.03</ele>
  <time>2026-09-01T19:58:33Z</time>
  <course>271.45</course>
  <speed>25.45</speed>
  <fix>3d</fix>
</trkpt>
<trkpt lat="-27.273791" lon="151.2809083">
  <ele>373.12</ele>
  <time>2026-09-01T19:58:33Z</time>
  <course>270.82</course>
  <speed>25.42755985146825</speed>
  <fix>3d</fix>
</trkpt>
<trkpt lat="-27.2737918" lon="151.2809545">
  <ele>373.03</ele>
  <time>2026-09-01T19:58:33Z</time>
  <course>271.45</course>
  <speed>25.45</speed>
  <fix>3d</fix>
</trkpt>
<trkpt lat="-27.2737904" lon="151.2808826">
  <ele>373.12</ele>
  <time>2026-09-01T19:58:33Z</time>
  <course>270.91</course>
  <speed>25.42755985146825</speed>
  <fix>3d</fix>
</trkpt>
<trkpt lat="-27.2737918" lon="151.2809545">
  <ele>373.03</ele>
  <time>2026-09-01T19:58:33Z</time>
  <course>271.45</course>
  <speed>25.45</speed>
  <fix>3d</fix>
</trkpt>
<trkpt lat="-27.2737898" lon="151.2808569">
  <ele>373.12</ele>
  <time>2026-09-01T19:58:33Z</time>
  <course>270.87</course>
  <speed>25.42755985146825</speed>
  <fix>3d</fix>
</trkpt>
<trkpt lat="-27.2737906" lon="151.2809031">
  <ele>373.03</ele>
  <time>2026-09-01T19:58:33Z</time>
  <course>271.45</course>
  <speed>25.45</speed>
  <fix>3d</fix>
</trkpt>
<trkpt lat="-27.2737892" lon="151.2808312">
  <ele>373.12</ele>
  <time>2026-09-01T19:58:33Z</time>
  <course>270.85</course>
  <speed>25.42755985146825</speed>
  <fix>3d</fix>
</trkpt>
<trkpt lat="-27.2737906" lon="151.2809031">
  <ele>373.03</ele>
  <time>2026-09-01T19:58:33Z</time>
  <course>271.45</course>
  <speed>25.45</speed>
  <fix>3d</fix>
</trkpt>
<trkpt lat="-27.2737887" lon="151.2808055">
  <ele>373.13</ele>
  <time>2026-09-01T19:58:33Z</time>
  <course>270.86</course>
  <speed>25.42755985146825</speed>
  <fix>3d</fix>
</trkpt>
<trkpt lat="-27.2737894" lon="151.2808516">
  <ele>373.04</ele>
  <time>2026-09-01T19:58:33Z</time>
  <course>271.45</course>
  <speed>25.45</speed>
  <fix>3d</fix>
</trkpt>
<trkpt lat="-27.2737881" lon="151.2807799">
  <ele>373.13</ele>
  <time>2026-09-01T19:58:33Z</time>
  <course>270.81</course>
  <speed>25.427317986763764</speed>
  <fix>3d</fix>
</trkpt>
<trkpt lat="-27.2737894" lon="151.2808516">
  <ele>373.04</ele>
  <time>2026-09-01T19:58:33Z</time>
  <course>271.45</course>
  <speed>25.45</speed>
  <fix>3d</fix>
</trkpt>
<trkpt lat="-27.2737875" lon="151.2807541">
  <ele>373.13</ele>
  <time>2026-09-01T19:58:33Z</time>
  <course>270.81</course>
  <speed>25.427317986763764</speed>
  <fix>3d</fix>
</trkpt>
<trkpt lat="-27.2737883" lon="151.2808003">
  <ele>373.05</ele>
  <time>2026-09-01T19:58:33Z</time>
  <course>271.45</course>
  <speed>25.44</speed>
  <fix>3d</fix>
</trkpt>
<trkpt lat="-27.2737869" lon="151.2807284">
  <ele>373.13</ele>
  <time>2026-09-01T19:58:33Z</time>
  <course>270.83</course>
  <speed>25.427317986763764</speed>
  <fix>3d</fix>
</trkpt>
<trkpt lat="-27.2737883" lon="151.2808003">
  <ele>373.05</ele>
  <time>2026-09-01T19:58:33Z</time>
  <course>271.45</course>
  <speed>25.44</speed>
  <fix>3d</fix>
</trkpt>
<trkpt lat="-27.2737863" lon="151.2807026">
  <ele>373.13</ele>
  <time>2026-09-01T19:58:33Z</time>
  <course>270.83</course>
  <speed>25.437315109893184</speed>
  <fix>3d</fix>
</trkpt>
<trkpt lat="-27.2737871" lon="151.2807488">
  <ele>373.06</ele>
  <time>2026-09-01T19:58:33Z</time>
  <course>271.44</course>
  <speed>25.44</speed>
  <fix>3d</fix>
</trkpt>
<trkpt lat="-27.2737858" lon="151.2806769">
  <ele>373.13</ele>
  <time>2026-09-01T19:58:33Z</time>
  <course>270.86</course>
  <speed>25.437315109893184</speed>
  <fix>3d</fix>
</trkpt>
<trkpt lat="-27.2737871" lon="151.2807488">
  <ele>373.06</ele>
  <time>2026-09-01T19:58:33Z</time>
  <course>271.44</course>
  <speed>25.44</speed>
  <fix>3d</fix>
</trkpt>
<trkpt lat="-27.2737852" lon="151.2806511">
  <ele>373.13</ele>
  <time>2026-09-01T19:58:33Z</time>
  <course>270.86</course>
  <speed>25.437315109893184</speed>
  <fix>3d</fix>
</trkpt>
<trkpt lat="-27.273786" lon="151.2806972">
  <ele>373.06</ele>
  <time>2026-09-01T19:58:33Z</time>
  <course>271.43</course>
  <speed>25.44</speed>
  <fix>3d</fix>
</trkpt>
<trkpt lat="-27.2737846" lon="151.2806253">
  <ele>373.13</ele>
  <time>2026-09-01T19:58:33Z</time>
  <course>270.83</course>
  <speed>25.437077269214715</speed>
  <fix>3d</fix>
</trkpt>
<trkpt lat="-27.273786" lon="151.2806972">
  <ele>373.06</ele>
  <time>2026-09-01T19:58:33Z</time>
  <course>271.43</course>
  <speed>25.44</speed>
  <fix>3d</fix>
</trkpt>
<trkpt lat="-27.2737841" lon="151.2805996">
  <ele>373.13</ele>
  <time>2026-09-01T19:58:33Z</time>
  <course>270.84</course>
  <speed>25.437077269214715</speed>
  <fix>3d</fix>
</trkpt>
<trkpt lat="-27.2737848" lon="151.2806459">
  <ele>373.06</ele>
  <time>2026-09-01T19:58:33Z</time>
  <course>271.42</course>
  <speed>25.44</speed>
  <fix>3d</fix>
</trkpt>
<trkpt lat="-27.2737835" lon="151.2805738">
  <ele>373.13</ele>
  <time>2026-09-01T19:58:33Z</time>
  <course>270.86</course>
  <speed>25.437077269214715</speed>
  <fix>3d</fix>
</trkpt>
<trkpt lat="-27.2737848" lon="151.2806459">
  <ele>373.06</ele>
  <time>2026-09-01T19:58:33Z</time>
  <course>271.42</course>
  <speed>25.44</speed>
  <fix>3d</fix>
</trkpt>
<trkpt lat="-27.2737829" lon="151.280548">
  <ele>373.13</ele>
  <time>2026-09-01T19:58:33Z</time>
  <course>270.87</course>
  <speed>25.447074488042826</speed>
  <fix>3d</fix>
</trkpt>
<trkpt lat="-27.2737837" lon="151.2805945">
  <ele>373.06</ele>
  <time>2026-09-01T19:58:33Z</time>
  <course>271.42</course>
  <speed>25.43</speed>
  <fix>3d</fix>
</trkpt>
<trkpt lat="-27.2737824" lon="151.2805223">
  <ele>373.12</ele>
  <time>2026-09-01T19:58:33Z</time>
  <course>270.84</course>
  <speed>25.447074488042826</speed>
  <fix>3d</fix>
</trkpt>
<trkpt lat="-27.2737837" lon="151.2805945">
  <ele>373.06</ele>
  <time>2026-09-01T19:58:33Z</time>
  <course>271.42</course>
  <speed>25.43</speed>
  <fix>3d</fix>
</trkpt>
<trkpt lat="-27.2737818" lon="151.2804965">
  <ele>373.13</ele>
  <time>2026-09-01T19:58:33Z</time>
  <course>270.74</course>
  <speed>25.446840668342308</speed>
  <fix>3d</fix>
</trkpt>
<trkpt lat="-27.2737825" lon="151.2805431">
  <ele>373.06</ele>
  <time>2026-09-01T19:58:33Z</time>
  <course>271.41</course>
  <speed>25.43</speed>
  <fix>3d</fix>
</trkpt>
<trkpt lat="-27.2737812" lon="151.2804705">
  <ele>373.13</ele>
  <time>2026-09-01T19:58:33Z</time>
  <course>270.7</course>
  <speed>25.44661077629003</speed>
  <fix>3d</fix>
</trkpt>
<trkpt lat="-27.2737825" lon="151.2805431">
  <ele>373.06</ele>
  <time>2026-09-01T19:58:33Z</time>
  <course>271.41</course>
  <speed>25.43</speed>
  <fix>3d</fix>
</trkpt>
<trkpt lat="-27.2737807" lon="151.2804448">
  <ele>373.13</ele>
  <time>2026-09-01T19:58:33Z</time>
  <course>270.7</course>
  <speed>25.44638481199245</speed>
  <fix>3d</fix>
</trkpt>
<trkpt lat="-27.2737814" lon="151.2804917">
  <ele>373.06</ele>
  <time>2026-09-01T19:58:33Z</time>
  <course>271.38</course>
  <speed>25.42</speed>
  <fix>3d</fix>
</trkpt>
<trkpt lat="-27.2737802" lon="151.2804191">
  <ele>373.13</ele>
  <time>2026-09-01T19:58:33Z</time>
  <course>270.73</course>
  <speed>25.446162775554193</speed>
  <fix>3d</fix>
</trkpt>
<trkpt lat="-27.2737814" lon="151.2804917">
  <ele>373.06</ele>
  <time>2026-09-01T19:58:33Z</time>
  <course>271.38</course>
  <speed>25.42</speed>
  <fix>3d</fix>
</trkpt>
<trkpt lat="-27.2737796" lon="151.2803933">
  <ele>373.14</ele>
  <time>2026-09-01T19:58:33Z</time>
  <course>270.8</course>
  <speed>25.446162775554193</speed>
  <fix>3d</fix>
</trkpt>
<trkpt lat="-27.2737803" lon="151.2804403">
  <ele>373.07</ele>
  <time>2026-09-01T19:58:33Z</time>
  <course>271.34</course>
  <speed>25.42</speed>
  <fix>3d</fix>
</trkpt>
<trkpt lat="-27.2737791" lon="151.2803676">
  <ele>373.14</ele>
  <time>2026-09-01T19:58:33Z</time>
  <course>270.79</course>
  <speed>25.446162775554193</speed>
  <fix>3d</fix>
</trkpt>
<trkpt lat="-27.2737803" lon="151.2804403">
  <ele>373.07</ele>
  <time>2026-09-01T19:58:33Z</time>
  <course>271.34</course>
  <speed>25.42</speed>
  <fix>3d</fix>
</trkpt>
<trkpt lat="-27.2737786" lon="151.2803419">
  <ele>373.15</ele>
  <time>2026-09-01T19:58:33Z</time>
  <course>270.76</course>
  <speed>25.446162775554193</speed>
  <fix>3d</fix>
</trkpt>
<trkpt lat="-27.2737793" lon="151.280389">
  <ele>373.08</ele>
  <time>2026-09-01T19:58:33Z</time>
  <course>271.32</course>
  <speed>25.41</speed>
  <fix>3d</fix>
</trkpt>
<trkpt lat="-27.273778" lon="151.2803162">
  <ele>373.15</ele>
  <time>2026-09-01T19:58:33Z</time>
  <course>270.71</course>
  <speed>25.446162775554193</speed>
  <fix>3d</fix>
</trkpt>
<trkpt lat="-27.2737793" lon="151.280389">
  <ele>373.08</ele>
  <time>2026-09-01T19:58:33Z</time>
  <course>271.32</course>
  <speed>25.41</speed>
  <fix>3d</fix>
</trkpt>
<trkpt lat="-27.2737775" lon="151.2802905">
  <ele>373.16</ele>
  <time>2026-09-01T19:58:33Z</time>
  <course>270.73</course>
  <speed>25.446162775554193</speed>
  <fix>3d</fix>
</trkpt>
<trkpt lat="-27.2737782" lon="151.2803377">
  <ele>373.09</ele>
  <time>2026-09-01T19:58:33Z</time>
  <course>271.31</course>
  <speed>25.41</speed>
  <fix>3d</fix>
</trkpt>
<trkpt lat="-27.273777" lon="151.2802648">
  <ele>373.16</ele>
  <time>2026-09-01T19:58:33Z</time>
  <course>270.75</course>
  <speed>25.44594466707809</speed>
  <fix>3d</fix>
</trkpt>
<trkpt lat="-27.2737782" lon="151.2803377">
  <ele>373.09</ele>
  <time>2026-09-01T19:58:33Z</time>
  <course>271.31</course>
  <speed>25.41</speed>
  <fix>3d</fix>
</trkpt>
<trkpt lat="-27.2737765" lon="151.2802391">
  <ele>373.16</ele>
  <time>2026-09-01T19:58:33Z</time>
  <course>270.71</course>
  <speed>25.44594466707809</speed>
  <fix>3d</fix>
</trkpt>
<trkpt lat="-27.2737772" lon="151.2802863">
  <ele>373.1</ele>
  <time>2026-09-01T19:58:33Z</time>
  <course>271.3</course>
  <speed>25.41</speed>
  <fix>3d</fix>
</trkpt>
<trkpt lat="-27.2737759" lon="151.2802134">
  <ele>373.16</ele>
  <time>2026-09-01T19:58:33Z</time>
  <course>270.71</course>
  <speed>25.45594233180143</speed>
  <fix>3d</fix>
</trkpt>
<trkpt lat="-27.2737772" lon="151.2802863">
  <ele>373.1</ele>
  <time>2026-09-01T19:58:33Z</time>
  <course>271.3</course>
  <speed>25.41</speed>
  <fix>3d</fix>
</trkpt>
<trkpt lat="-27.2737754" lon="151.2801877">
  <ele>373.16</ele>
  <time>2026-09-01T19:58:33Z</time>
  <course>270.73</course>
  <speed>25.44573048666514</speed>
  <fix>3d</fix>
</trkpt>
<trkpt lat="-27.2737762" lon="151.280235">
  <ele>373.1</ele>
  <time>2026-09-01T19:58:33Z</time>
  <course>271.29</course>
  <speed>25.41</speed>
  <fix>3d</fix>
</trkpt>
<trkpt lat="-27.2737749" lon="151.2801621">
  <ele>373.16</ele>
  <time>2026-09-01T19:58:33Z</time>
  <course>270.71</course>
  <speed>25.45572823550723</speed>
  <fix>3d</fix>
</trkpt>
<trkpt lat="-27.2737762" lon="151.280235">
  <ele>373.1</ele>
  <time>2026-09-01T19:58:33Z</time>
  <course>271.29</course>
  <speed>25.41</speed>
  <fix>3d</fix>
</trkpt>
<trkpt lat="-27.2737744" lon="151.2801364">
  <ele>373.16</ele>
  <time>2026-09-01T19:58:33Z</time>
  <course>270.69</course>
  <speed>25.455518065833974</speed>
  <fix>3d</fix>
</trkpt>
<trkpt lat="-27.2737751" lon="151.2801835">
  <ele>373.11</ele>
  <time>2026-09-01T19:58:33Z</time>
  <course>271.28</course>
  <speed>25.41</speed>
  <fix>3d</fix>
</trkpt>
<trkpt lat="-27.2737739" lon="151.2801107">
  <ele>373.17</ele>
  <time>2026-09-01T19:58:33Z</time>
  <course>270.69</course>
  <speed>25.455311822878933</speed>
  <fix>3d</fix>
</trkpt>
<trkpt lat="-27.2737751" lon="151.2801835">
  <ele>373.11</ele>
  <time>2026-09-01T19:58:33Z</time>
  <course>271.28</course>
  <speed>25.41</speed>
  <fix>3d</fix>
</trkpt>
<trkpt lat="-27.2737734" lon="151.280085">
  <ele>373.17</ele>
  <time>2026-09-01T19:58:33Z</time>
  <course>270.7</course>
  <speed>25.445313910423664</speed>
  <fix>3d</fix>
</trkpt>
<trkpt lat="-27.2737741" lon="151.2801321">
  <ele>373.11</ele>
  <time>2026-09-01T19:58:33Z</time>
  <course>271.25</course>
  <speed>25.41</speed>
  <fix>3d</fix>
</trkpt>
<trkpt lat="-27.2737729" lon="151.2800593">
  <ele>373.17</ele>
  <time>2026-09-01T19:58:33Z</time>
  <course>270.69</course>
  <speed>25.445313910423664</speed>
  <fix>3d</fix>
</trkpt>
<trkpt lat="-27.2737741" lon="151.2801321">
  <ele>373.11</ele>
  <time>2026-09-01T19:58:33Z</time>
  <course>271.25</course>
  <speed>25.41</speed>
  <fix>3d</fix>
</trkpt>
<trkpt lat="-27.2737725" lon="151.2800336">
  <ele>373.17</ele>
  <time>2026-09-01T19:58:33Z</time>
  <course>270.67</course>
  <speed>25.445111514788064</speed>
  <fix>3d</fix>
</trkpt>
<trkpt lat="-27.2737731" lon="151.2800808">
  <ele>373.11</ele>
  <time>2026-09-01T19:58:33Z</time>
  <course>271.23</course>
  <speed>25.4</speed>
  <fix>3d</fix>
</trkpt>
<trkpt lat="-27.273772" lon="151.2800079">
  <ele>373.17</ele>
  <time>2026-09-01T19:58:33Z</time>
  <course>270.64</course>
  <speed>25.45471665526843</speed>
  <fix>3d</fix>
</trkpt>
<trkpt lat="-27.2737731" lon="151.2800808">
  <ele>373.11</ele>
  <time>2026-09-01T19:58:33Z</time>
  <course>271.23</course>
  <speed>25.4</speed>
  <fix>3d</fix>
</trkpt>
<trkpt lat="-27.2737715" lon="151.2799822">
  <ele>373.17</ele>
  <time>2026-09-01T19:58:33Z</time>
  <course>270.64</course>
  <speed>25.45471665526843</speed>
  <fix>3d</fix>
</trkpt>
<trkpt lat="-27.2737721" lon="151.2800294">
  <ele>373.11</ele>
  <time>2026-09-01T19:58:33Z</time>
  <course>271.2</course>
  <speed>25.4</speed>
  <fix>3d</fix>
</trkpt>
<trkpt lat="-27.2737711" lon="151.2799565">
  <ele>373.17</ele>
  <time>2026-09-01T19:58:33Z</time>
  <course>270.62</course>
  <speed>25.454526120122527</speed>
  <fix>3d</fix>
</trkpt>
<trkpt lat="-27.2737721" lon="151.2800294">
  <ele>373.11</ele>
  <time>2026-09-01T19:58:33Z</time>
  <course>271.2</course>
  <speed>25.4</speed>
  <fix>3d</fix>
</trkpt>
<trkpt lat="-27.2737706" lon="151.279931">
  <ele>373.17</ele>
  <time>2026-09-01T19:58:33Z</time>
  <course>270.61</course>
  <speed>25.454339512153915</speed>
  <fix>3d</fix>
</trkpt>
<trkpt lat="-27.2737712" lon="151.2799781">
  <ele>373.11</ele>
  <time>2026-09-01T19:58:33Z</time>
  <course>271.16</course>
  <speed>25.41</speed>
  <fix>3d</fix>
</trkpt>
<trkpt lat="-27.2737702" lon="151.2799053">
  <ele>373.18</ele>
  <time>2026-09-01T19:58:33Z</time>
  <course>270.62</course>
  <speed>25.464155199024372</speed>
  <fix>3d</fix>
</trkpt>
<trkpt lat="-27.2737712" lon="151.2799781">
  <ele>373.11</ele>
  <time>2026-09-01T19:58:33Z</time>
  <course>271.16</course>
  <speed>25.41</speed>
  <fix>3d</fix>
</trkpt>
<trkpt lat="-27.2737697" lon="151.2798796">
  <ele>373.18</ele>
  <time>2026-09-01T19:58:33Z</time>
  <course>270.61</course>
  <speed>25.45397807809223</speed>
  <fix>3d</fix>
</trkpt>
<trkpt lat="-27.2737703" lon="151.2799268">
  <ele>373.12</ele>
  <time>2026-09-01T19:58:33Z</time>
  <course>271.12</course>
  <speed>25.41</speed>
  <fix>3d</fix>
</trkpt>
<trkpt lat="-27.2737693" lon="151.279854">
  <ele>373.18</ele>
  <time>2026-09-01T19:58:33Z</time>
  <course>270.52</course>
  <speed>25.46380175857486</speed>
  <fix>3d</fix>
</trkpt>
<trkpt lat="-27.2737703" lon="151.2799268">
  <ele>373.12</ele>
  <time>2026-09-01T19:58:33Z</time>
  <course>271.12</course>
  <speed>25.41</speed>
  <fix>3d</fix>
</trkpt>
<trkpt lat="-27.2737689" lon="151.2798281">
  <ele>373.18</ele>
  <time>2026-09-01T19:58:33Z</time>
  <course>270.39</course>
  <speed>25.463630927265655</speed>
  <fix>3d</fix>
</trkpt>
<trkpt lat="-27.2737694" lon="151.2798755">
  <ele>373.12</ele>
  <time>2026-09-01T19:58:33Z</time>
  <course>271.07</course>
  <speed>25.41</speed>
  <fix>3d</fix>
</trkpt>
<trkpt lat="-27.2737685" lon="151.2798024">
  <ele>373.17</ele>
  <time>2026-09-01T19:58:33Z</time>
  <course>270.33</course>
  <speed>25.463141989943033</speed>
  <fix>3d</fix>
</trkpt>
<trkpt lat="-27.2737694" lon="151.2798755">
  <ele>373.12</ele>
  <time>2026-09-01T19:58:33Z</time>
  <course>271.07</course>
  <speed>25.41</speed>
  <fix>3d</fix>
</trkpt>
<trkpt lat="-27.2737681" lon="151.2797767">
  <ele>373.17</ele>
  <time>2026-09-01T19:58:33Z</time>
  <course>270.31</course>
  <speed>25.46268838909199</speed>
  <fix>3d</fix>
</trkpt>
<trkpt lat="-27.2737685" lon="151.2798241">
  <ele>373.12</ele>
  <time>2026-09-01T19:58:33Z</time>
  <course>271.01</course>
  <speed>25.41</speed>
  <fix>3d</fix>
</trkpt>
<trkpt lat="-27.2737678" lon="151.2797508">
  <ele>373.17</ele>
  <time>2026-09-01T19:58:33Z</time>
  <course>270.3</course>
  <speed>25.462270126601048</speed>
  <fix>3d</fix>
</trkpt>
<trkpt lat="-27.2737685" lon="151.2798241">
  <ele>373.12</ele>
  <time>2026-09-01T19:58:33Z</time>
  <course>271.01</course>
  <speed>25.41</speed>
  <fix>3d</fix>
</trkpt>
<trkpt lat="-27.2737674" lon="151.2797251">
  <ele>373.16</ele>
  <time>2026-09-01T19:58:33Z</time>
  <course>270.25</course>
  <speed>25.47176672317804</speed>
  <fix>3d</fix>
</trkpt>
<trkpt lat="-27.2737678" lon="151.2797728">
  <ele>373.11</ele>
  <time>2026-09-01T19:58:33Z</time>
  <course>270.9</course>
  <speed>25.42</speed>
  <fix>3d</fix>
</trkpt>
<trkpt lat="-27.2737672" lon="151.2796994">
  <ele>373.15</ele>
  <time>2026-09-01T19:58:33Z</time>
  <course>270.25</course>
  <speed>25.471327016863494</speed>
  <fix>3d</fix>
</trkpt>
<trkpt lat="-27.2737678" lon="151.2797728">
  <ele>373.11</ele>
  <time>2026-09-01T19:58:33Z</time>
  <course>270.9</course>
  <speed>25.42</speed>
  <fix>3d</fix>
</trkpt>
<trkpt lat="-27.2737669" lon="151.2796738">
  <ele>373.15</ele>
  <time>2026-09-01T19:58:33Z</time>
  <course>270.17</course>
  <speed>25.470950119695182</speed>
  <fix>3d</fix>
</trkpt>
<trkpt lat="-27.2737672" lon="151.2797214">
  <ele>373.1</ele>
  <time>2026-09-01T19:58:33Z</time>
  <course>270.75</course>
  <speed>25.42</speed>
  <fix>3d</fix>
</trkpt>
<trkpt lat="-27.2737667" lon="151.2796482">
  <ele>373.14</ele>
  <time>2026-09-01T19:58:33Z</time>
  <course>270.09</course>
  <speed>25.460636284272237</speed>
  <fix>3d</fix>
</trkpt>
<trkpt lat="-27.2737672" lon="151.2797214">
  <ele>373.1</ele>
  <time>2026-09-01T19:58:33Z</time>
  <course>270.75</course>
  <speed>25.42</speed>
  <fix>3d</fix>
</trkpt>
<trkpt lat="-27.2737665" lon="151.2796227">
  <ele>373.14</ele>
  <time>2026-09-01T19:58:33Z</time>
  <course>270.03</course>
  <speed>25.45044203938313</speed>
  <fix>3d</fix>
</trkpt>
<trkpt lat="-27.2737666" lon="151.27967">
  <ele>373.09</ele>
  <time>2026-09-01T19:58:33Z</time>
  <course>270.57</course>
  <speed>25.42</speed>
  <fix>3d</fix>
</trkpt>
<trkpt lat="-27.2737664" lon="151.2795972">
  <ele>373.14</ele>
  <time>2026-09-01T19:58:33Z</time>
  <course>269.95</course>
  <speed>25.45028290608967</speed>
  <fix>3d</fix>
</trkpt>
<trkpt lat="-27.2737666" lon="151.27967">
  <ele>373.09</ele>
  <time>2026-09-01T19:58:33Z</time>
  <course>270.57</course>
  <speed>25.42</speed>
  <fix>3d</fix>
</trkpt>
<trkpt lat="-27.2737663" lon="151.2795717">
  <ele>373.14</ele>
  <time>2026-09-01T19:58:33Z</time>
  <course>269.93</course>
  <speed>25.4401591976151</speed>
  <fix>3d</fix>
</trkpt>
<trkpt lat="-27.2737662" lon="151.2796185">
  <ele>373.08</ele>
  <time>2026-09-01T19:58:33Z</time>
  <course>270.41</course>
  <speed>25.43</speed>
  <fix>3d</fix>
</trkpt>
<trkpt lat="-27.2737662" lon="151.2795462">
  <ele>373.13</ele>
  <time>2026-09-01T19:58:33Z</time>
  <course>269.92</course>
  <speed>25.430096342719583</speed>
  <fix>3d</fix>
</trkpt>
<trkpt lat="-27.2737662" lon="151.2796185">
  <ele>373.08</ele>
  <time>2026-09-01T19:58:33Z</time>
  <course>270.41</course>
  <speed>25.43</speed>
  <fix>3d</fix>
</trkpt>
<trkpt lat="-27.2737661" lon="151.2795207">
  <ele>373.12</ele>
  <time>2026-09-01T19:58:33Z</time>
  <course>269.79</course>
  <speed>25.420070810286898</speed>
  <fix>3d</fix>
</trkpt>
<trkpt lat="-27.273766" lon="151.2795671">
  <ele>373.08</ele>
  <time>2026-09-01T19:58:33Z</time>
  <course>270.28</course>
  <speed>25.42</speed>
  <fix>3d</fix>
</trkpt>
<trkpt lat="-27.273766" lon="151.2794951">
  <ele>373.11</ele>
  <time>2026-09-01T19:58:33Z</time>
  <course>269.66</course>
  <speed>25.420031471262973</speed>
  <fix>3d</fix>
</trkpt>
<trkpt lat="-27.273766" lon="151.2795671">
  <ele>373.08</ele>
  <time>2026-09-01T19:58:33Z</time>
  <course>270.28</course>
  <speed>25.42</speed>
  <fix>3d</fix>
</trkpt>
<trkpt lat="-27.2737659" lon="151.2794696">
  <ele>373.1</ele>
  <time>2026-09-01T19:58:33Z</time>
  <course>269.59</course>
  <speed>25.410017709556993</speed>
  <fix>3d</fix>
</trkpt>
<trkpt lat="-27.2737658" lon="151.2795157">
  <ele>373.07</ele>
  <time>2026-09-01T19:58:33Z</time>
  <course>270.2</course>
  <speed>25.42</speed>
  <fix>3d</fix>
</trkpt>
<trkpt lat="-27.2737659" lon="151.2794441">
  <ele>373.08</ele>
  <time>2026-09-01T19:58:33Z</time>
  <course>269.58</course>
  <speed>25.410001967729162</speed>
  <fix>3d</fix>
</trkpt>
<trkpt lat="-27.2737658" lon="151.2795157">
  <ele>373.07</ele>
  <time>2026-09-01T19:58:33Z</time>
  <course>270.2</course>
  <speed>25.42</speed>
  <fix>3d</fix>
</trkpt>
<trkpt lat="-27.2737659" lon="151.2794185">
  <ele>373.06</ele>
  <time>2026-09-01T19:58:33Z</time>
  <course>269.6</course>
  <speed>25.41</speed>
  <fix>3d</fix>
</trkpt>
<trkpt lat="-27.2737656" lon="151.2794642">
  <ele>373.03</ele>
  <time>2026-09-01T19:58:33Z</time>
  <course>270.13</course>
  <speed>25.42</speed>
  <fix>3d</fix>
</trkpt>
<trkpt lat="-27.2737658" lon="151.2793932">
  <ele>373.03</ele>
  <time>2026-09-01T19:58:33Z</time>
  <course>269.58</course>
  <speed>25.410001967729162</speed>
  <fix>3d</fix>
</trkpt>
<trkpt lat="-27.2737656" lon="151.2794642">
  <ele>373.03</ele>
  <time>2026-09-01T19:58:33Z</time>
  <course>270.13</course>
  <speed>25.42</speed>
  <fix>3d</fix>
</trkpt>
<trkpt lat="-27.2737658" lon="151.2793675">
  <ele>372.99</ele>
  <time>2026-09-01T19:58:33Z</time>
  <course>269.54</course>
  <speed>25.420001966955077</speed>
  <fix>3d</fix>
</trkpt>
<trkpt lat="-27.2737655" lon="151.2794129">
  <ele>372.99</ele>
  <time>2026-09-01T19:58:33Z</time>
  <course>270.07</course>
  <speed>25.43</speed>
  <fix>3d</fix>
</trkpt>
<trkpt lat="-27.2737658" lon="151.2793417">
  <ele>372.96</ele>
  <time>2026-09-01T19:58:33Z</time>
  <course>269.46</course>
  <speed>25.420007867819393</speed>
  <fix>3d</fix>
</trkpt>
<trkpt lat="-27.2737655" lon="151.2794129">
  <ele>372.99</ele>
  <time>2026-09-01T19:58:33Z</time>
  <course>270.07</course>
  <speed>25.43</speed>
  <fix>3d</fix>
</trkpt>
<trkpt lat="-27.2737658" lon="151.2793159">
  <ele>372.92</ele>
  <time>2026-09-01T19:58:33Z</time>
  <course>269.45</course>
  <speed>25.430017695628923</speed>
  <fix>3d</fix>
</trkpt>
<trkpt lat="-27.2737655" lon="151.2793616">
  <ele>372.93</ele>
  <time>2026-09-01T19:58:33Z</time>
  <course>270.02</course>
  <speed>25.43</speed>
  <fix>3d</fix>
</trkpt>
<trkpt lat="-27.2737658" lon="151.2792899">
  <ele>372.87</ele>
  <time>2026-09-01T19:58:33Z</time>
  <course>269.4</course>
  <speed>25.45003143416526</speed>
  <fix>3d</fix>
</trkpt>
<trkpt lat="-27.2737655" lon="151.2793616">
  <ele>372.93</ele>
  <time>2026-09-01T19:58:33Z</time>
  <course>270.02</course>
  <speed>25.43</speed>
  <fix>3d</fix>
</trkpt>
<trkpt lat="-27.2737658" lon="151.279264">
  <ele>372.82</ele>
  <time>2026-09-01T19:58:33Z</time>
  <course>269.37</course>
  <speed>25.460049096574814</speed>
  <fix>3d</fix>
</trkpt>
<trkpt lat="-27.2737655" lon="151.2793101">
  <ele>372.86</ele>
  <time>2026-09-01T19:58:33Z</time>
  <course>269.98</course>
  <speed>25.45</speed>
  <fix>3d</fix>
</trkpt>
<trkpt lat="-27.2737659" lon="151.2792382">
  <ele>372.77</ele>
  <time>2026-09-01T19:58:33Z</time>
  <course>269.33</course>
  <speed>25.470096191416317</speed>
  <fix>3d</fix>
</trkpt>
<trkpt lat="-27.2737655" lon="151.2793101">
  <ele>372.86</ele>
  <time>2026-09-01T19:58:33Z</time>
  <course>269.98</course>
  <speed>25.45</speed>
  <fix>3d</fix>
</trkpt>
<trkpt lat="-27.2737658" lon="151.2792123">
  <ele>372.72</ele>
  <time>2026-09-01T19:58:33Z</time>
  <course>269.34</course>
  <speed>25.48012558838751</speed>
  <fix>3d</fix>
</trkpt>
<trkpt lat="-27.2737655" lon="151.2792587">
  <ele>372.77</ele>
  <time>2026-09-01T19:58:33Z</time>
  <course>269.92</course>
  <speed>25.46</speed>
  <fix>3d</fix>
</trkpt>
<trkpt lat="-27.2737659" lon="151.2791864">
  <ele>372.66</ele>
  <time>2026-09-01T19:58:33Z</time>
  <course>269.38</course>
  <speed>25.490125539118086</speed>
  <fix>3d</fix>
</trkpt>
<trkpt lat="-27.2737655" lon="151.2792587">
  <ele>372.77</ele>
  <time>2026-09-01T19:58:33Z</time>
  <course>269.92</course>
  <speed>25.46</speed>
  <fix>3d</fix>
</trkpt>
<trkpt lat="-27.2737659" lon="151.2791607">
  <ele>372.6</ele>
  <time>2026-09-01T19:58:33Z</time>
  <course>269.3</course>
  <speed>25.50015882303481</speed>
  <fix>3d</fix>
</trkpt>
<trkpt lat="-27.2737655" lon="151.2792072">
  <ele>372.66</ele>
  <time>2026-09-01T19:58:33Z</time>
  <course>269.88</course>
  <speed>25.47</speed>
  <fix>3d</fix>
</trkpt>
<trkpt lat="-27.273766" lon="151.2791349">
  <ele>372.53</ele>
  <time>2026-09-01T19:58:33Z</time>
  <course>269.26</course>
  <speed>25.510196000815043</speed>
  <fix>3d</fix>
</trkpt>
<trkpt lat="-27.2737655" lon="151.2792072">
  <ele>372.66</ele>
  <time>2026-09-01T19:58:33Z</time>
  <course>269.88</course>
  <speed>25.47</speed>
  <fix>3d</fix>
</trkpt>
<trkpt lat="-27.273766" lon="151.2791093">
  <ele>372.46</ele>
  <time>2026-09-01T19:58:33Z</time>
  <course>269.22</course>
  <speed>25.510237160794883</speed>
  <fix>3d</fix>
</trkpt>
<trkpt lat="-27.2737656" lon="151.2791557">
  <ele>372.54</ele>
  <time>2026-09-01T19:58:33Z</time>
  <course>269.84</course>
  <speed>25.48</speed>
  <fix>3d</fix>
</trkpt>
<trkpt lat="-27.2737661" lon="151.2790836">
  <ele>372.39</ele>
  <time>2026-09-01T19:58:33Z</time>
  <course>269.2</course>
  <speed>25.520237067864397</speed>
  <fix>3d</fix>
</trkpt>
<trkpt lat="-27.2737656" lon="151.2791557">
  <ele>372.54</ele>
  <time>2026-09-01T19:58:33Z</time>
  <course>269.84</course>
  <speed>25.48</speed>
  <fix>3d</fix>
</trkpt>
<trkpt lat="-27.2737662" lon="151.2790579">
  <ele>372.32</ele>
  <time>2026-09-01T19:58:33Z</time>
  <course>269.15</course>
  <speed>25.520331110704657</speed>
  <fix>3d</fix>
</trkpt>
<trkpt lat="-27.2737658" lon="151.2791041">
  <ele>372.41</ele>
  <time>2026-09-01T19:58:33Z</time>
  <course>269.81</course>
  <speed>25.5</speed>
  <fix>3d</fix>
</trkpt>
<trkpt lat="-27.2737663" lon="151.279032">
  <ele>372.25</ele>
  <time>2026-09-01T19:58:33Z</time>
  <course>269.13</course>
  <speed>25.520384009650012</speed>
  <fix>3d</fix>
</trkpt>
<trkpt lat="-27.2737658" lon="151.2791041">
  <ele>372.41</ele>
  <time>2026-09-01T19:58:33Z</time>
  <course>269.81</course>
  <speed>25.5</speed>
  <fix>3d</fix>
</trkpt>
<trkpt lat="-27.2737664" lon="151.2790063">
  <ele>372.18</ele>
  <time>2026-09-01T19:58:33Z</time>
  <course>269.11</course>
  <speed>25.53038385923721</speed>
  <fix>3d</fix>
</trkpt>
<trkpt lat="-27.273766" lon="151.2790524">
  <ele>372.27</ele>
  <time>2026-09-01T19:58:33Z</time>
  <course>269.76</course>
  <speed>25.51</speed>
  <fix>3d</fix>
</trkpt>
<trkpt lat="-27.2737665" lon="151.2789806">
  <ele>372.1</ele>
  <time>2026-09-01T19:58:33Z</time>
  <course>269.09</course>
  <speed>25.530440654246455</speed>
  <fix>3d</fix>
</trkpt>
<trkpt lat="-27.273766" lon="151.2790524">
  <ele>372.27</ele>
  <time>2026-09-01T19:58:33Z</time>
  <course>269.76</course>
  <speed>25.51</speed>
  <fix>3d</fix>
</trkpt>
<trkpt lat="-27.2737666" lon="151.2789549">
  <ele>372.02</ele>
  <time>2026-09-01T19:58:33Z</time>
  <course>269.07</course>
  <speed>25.530501366013162</speed>
  <fix>3d</fix>
</trkpt>
<trkpt lat="-27.2737662" lon="151.2790009">
  <ele>372.12</ele>
  <time>2026-09-01T19:58:33Z</time>
  <course>269.72</course>
  <speed>25.53</speed>
  <fix>3d</fix>
</trkpt>
<trkpt lat="-27.2737667" lon="151.2789292">
  <ele>371.95</ele>
  <time>2026-09-01T19:58:33Z</time>
  <course>269.06</course>
  <speed>25.530501366013162</speed>
  <fix>3d</fix>
</trkpt>
<trkpt lat="-27.2737662" lon="151.2790009">
  <ele>372.12</ele>
  <time>2026-09-01T19:58:33Z</time>
  <course>269.72</course>
  <speed>25.53</speed>
  <fix>3d</fix>
</trkpt>
<trkpt lat="-27.2737668" lon="151.2789035">
  <ele>371.87</ele>
  <time>2026-09-01T19:58:33Z</time>
  <course>269.05</course>
  <speed>25.530501366013162</speed>
  <fix>3d</fix>
</trkpt>
<trkpt lat="-27.2737664" lon="151.2789493">
  <ele>371.97</ele>
  <time>2026-09-01T19:58:33Z</time>
  <course>269.68</course>
  <speed>25.54</speed>
  <fix>3d</fix>
</trkpt>
<trkpt lat="-27.273767" lon="151.278878">
  <ele>371.79</ele>
  <time>2026-09-01T19:58:33Z</time>
  <course>269.04</course>
  <speed>25.530501366013162</speed>
  <fix>3d</fix>
</trkpt>
<trkpt lat="-27.2737664" lon="151.2789493">
  <ele>371.97</ele>
  <time>2026-09-01T19:58:33Z</time>
  <course>269.68</course>
  <speed>25.54</speed>
  <fix>3d</fix>
</trkpt>
<trkpt lat="-27.2737671" lon="151.2788522">
  <ele>371.71</ele>
  <time>2026-09-01T19:58:33Z</time>
  <course>269.02</course>
  <speed>25.540501169710822</speed>
  <fix>3d</fix>
</trkpt>
<trkpt lat="-27.2737666" lon="151.2788976">
  <ele>371.82</ele>
  <time>2026-09-01T19:58:33Z</time>
  <course>269.67</course>
  <speed>25.54</speed>
  <fix>3d</fix>
</trkpt>
<trkpt lat="-27.2737672" lon="151.2788263">
  <ele>371.63</ele>
  <time>2026-09-01T19:58:33Z</time>
  <course>269.0</course>
  <speed>25.550565551470676</speed>
  <fix>3d</fix>
</trkpt>
<trkpt lat="-27.2737666" lon="151.2788976">
  <ele>371.82</ele>
  <time>2026-09-01T19:58:33Z</time>
  <course>269.67</course>
  <speed>25.54</speed>
  <fix>3d</fix>
</trkpt>
<trkpt lat="-27.2737673" lon="151.2788003">
  <ele>371.54</ele>
  <time>2026-09-01T19:58:33Z</time>
  <course>268.97</course>
  <speed>25.560565330211304</speed>
  <fix>3d</fix>
</trkpt>
<trkpt lat="-27.2737669" lon="151.2788461">
  <ele>371.65</ele>
  <time>2026-09-01T19:58:33Z</time>
  <course>269.67</course>
  <speed>25.55</speed>
  <fix>3d</fix>
</trkpt>
<trkpt lat="-27.2737675" lon="151.2787744">
  <ele>371.46</ele>
  <time>2026-09-01T19:58:33Z</time>
  <course>268.95</course>
  <speed>25.57056510912498</speed>
  <fix>3d</fix>
</trkpt>
<trkpt lat="-27.2737669" lon="151.2788461">
  <ele>371.65</ele>
  <time>2026-09-01T19:58:33Z</time>
  <course>269.67</course>
  <speed>25.55</speed>
  <fix>3d</fix>
</trkpt>
<trkpt lat="-27.2737676" lon="151.2787482">
  <ele>371.37</ele>
  <time>2026-09-01T19:58:33Z</time>
  <course>268.96</course>
  <speed>25.58063329943182</speed>
  <fix>3d</fix>
</trkpt>
<trkpt lat="-27.2737672" lon="151.2787944">
  <ele>371.49</ele>
  <time>2026-09-01T19:58:33Z</time>
  <course>269.65</course>
  <speed>25.56</speed>
  <fix>3d</fix>
</trkpt>
<trkpt lat="-27.2737678" lon="151.2787222">
  <ele>371.28</ele>
  <time>2026-09-01T19:58:33Z</time>
  <course>269.01</course>
  <speed>25.59063305195868</speed>
  <fix>3d</fix>
</trkpt>
<trkpt lat="-27.2737672" lon="151.2787944">
  <ele>371.49</ele>
  <time>2026-09-01T19:58:33Z</time>
  <course>269.65</course>
  <speed>25.56</speed>
  <fix>3d</fix>
</trkpt>
<trkpt lat="-27.2737679" lon="151.2786962">
  <ele>371.18</ele>
  <time>2026-09-01T19:58:33Z</time>
  <course>269.03</course>
  <speed>25.60063280467887</speed>
  <fix>3d</fix>
</trkpt>
<trkpt lat="-27.2737674" lon="151.2787427">
  <ele>371.32</ele>
  <time>2026-09-01T19:58:33Z</time>
  <course>269.63</course>
  <speed>25.57</speed>
  <fix>3d</fix>
</trkpt>
<trkpt lat="-27.273768" lon="151.2786702">
  <ele>371.09</ele>
  <time>2026-09-01T19:58:33Z</time>
  <course>269.04</course>
  <speed>25.610632557592172</speed>
  <fix>3d</fix>
</trkpt>
<trkpt lat="-27.2737674" lon="151.2787427">
  <ele>371.32</ele>
  <time>2026-09-01T19:58:33Z</time>
  <course>269.63</course>
  <speed>25.57</speed>
  <fix>3d</fix>
</trkpt>
<trkpt lat="-27.2737682" lon="151.2786442">
  <ele>371.0</ele>
  <time>2026-09-01T19:58:33Z</time>
  <course>269.03</course>
  <speed>25.620632310698344</speed>
  <fix>3d</fix>
</trkpt>
<trkpt lat="-27.2737677" lon="151.278691">
  <ele>371.15</ele>
  <time>2026-09-01T19:58:33Z</time>
  <course>269.62</course>
  <speed>25.58</speed>
  <fix>3d</fix>
</trkpt>
<trkpt lat="-27.2737683" lon="151.2786182">
  <ele>370.91</ele>
  <time>2026-09-01T19:58:33Z</time>
  <course>269.03</course>
  <speed>25.63056378622991</speed>
  <fix>3d</fix>
</trkpt>
<trkpt lat="-27.2737677" lon="151.278691">
  <ele>371.15</ele>
  <time>2026-09-01T19:58:33Z</time>
  <course>269.62</course>
  <speed>25.58</speed>
  <fix>3d</fix>
</trkpt>
<trkpt lat="-27.2737684" lon="151.2785923">
  <ele>370.82</ele>
  <time>2026-09-01T19:58:33Z</time>
  <course>269.03</course>
  <speed>25.63056378622991</speed>
  <fix>3d</fix>
</trkpt>
<trkpt lat="-27.273768" lon="151.2786393">
  <ele>370.96</ele>
  <time>2026-09-01T19:58:33Z</time>
  <course>269.63</course>
  <speed>25.58</speed>
  <fix>3d</fix>
</trkpt>
<trkpt lat="-27.2737686" lon="151.2785664">
  <ele>370.73</ele>
  <time>2026-09-01T19:58:33Z</time>
  <course>269.03</course>
  <speed>25.63056378622991</speed>
  <fix>3d</fix>
</trkpt>
<trkpt lat="-27.273768" lon="151.2786393">
  <ele>370.96</ele>
  <time>2026-09-01T19:58:33Z</time>
  <course>269.63</course>
  <speed>25.58</speed>
  <fix>3d</fix>
</trkpt>
<trkpt lat="-27.2737687" lon="151.2785407">
  <ele>370.63</ele>
  <time>2026-09-01T19:58:33Z</time>
  <course>269.01</course>
  <speed>25.620564006282144</speed>
  <fix>3d</fix>
</trkpt>
<trkpt lat="-27.2737683" lon="151.2785875">
  <ele>370.78</ele>
  <time>2026-09-01T19:58:33Z</time>
  <course>269.65</course>
  <speed>25.59</speed>
  <fix>3d</fix>
</trkpt>
<trkpt lat="-27.2737689" lon="151.2785149">
  <ele>370.54</ele>
  <time>2026-09-01T19:58:33Z</time>
  <course>268.93</course>
  <speed>25.620564006282144</speed>
  <fix>3d</fix>
</trkpt>
<trkpt lat="-27.2737683" lon="151.2785875">
  <ele>370.78</ele>
  <time>2026-09-01T19:58:33Z</time>
  <course>269.65</course>
  <speed>25.59</speed>
  <fix>3d</fix>
</trkpt>
<trkpt lat="-27.273769" lon="151.2784892">
  <ele>370.45</ele>
  <time>2026-09-01T19:58:33Z</time>
  <course>268.94</course>
  <speed>25.610632557592172</speed>
  <fix>3d</fix>
</trkpt>
<trkpt lat="-27.2737686" lon="151.2785357">
  <ele>370.6</ele>
  <time>2026-09-01T19:58:33Z</time>
  <course>269.65</course>
  <speed>25.59</speed>
  <fix>3d</fix>
</trkpt>
<trkpt lat="-27.2737691" lon="151.2784634">
  <ele>370.36</ele>
  <time>2026-09-01T19:58:33Z</time>
  <course>268.97</course>
  <speed>25.610632557592172</speed>
  <fix>3d</fix>
</trkpt>
<trkpt lat="-27.2737686" lon="151.2785357">
  <ele>370.6</ele>
  <time>2026-09-01T19:58:33Z</time>
  <course>269.65</course>
  <speed>25.59</speed>
  <fix>3d</fix>
</trkpt>
<trkpt lat="-27.2737693" lon="151.2784377">
  <ele>370.26</ele>
  <time>2026-09-01T19:58:33Z</time>
  <course>269.0</course>
  <speed>25.60063280467887</speed>
  <fix>3d</fix>
</trkpt>
<trkpt lat="-27.2737689" lon="151.278484">
  <ele>370.41</ele>
  <time>2026-09-01T19:58:33Z</time>
  <course>269.63</course>
  <speed>25.58</speed>
  <fix>3d</fix>
</trkpt>
<trkpt lat="-27.2737694" lon="151.2784119">
  <ele>370.16</ele>
  <time>2026-09-01T19:58:33Z</time>
  <course>269.05</course>
  <speed>25.60063280467887</speed>
  <fix>3d</fix>
</trkpt>
<trkpt lat="-27.2737689" lon="151.278484">
  <ele>370.41</ele>
  <time>2026-09-01T19:58:33Z</time>
  <course>269.63</course>
  <speed>25.58</speed>
  <fix>3d</fix>
</trkpt>
<trkpt lat="-27.2737696" lon="151.2783862">
  <ele>370.06</ele>
  <time>2026-09-01T19:58:33Z</time>
  <course>269.03</course>
  <speed>25.5905646674707</speed>
  <fix>3d</fix>
</trkpt>
<trkpt lat="-27.2737692" lon="151.2784323">
  <ele>370.22</ele>
  <time>2026-09-01T19:58:33Z</time>
  <course>269.63</course>
  <speed>25.58</speed>
  <fix>3d</fix>
</trkpt>
<trkpt lat="-27.2737697" lon="151.2783604">
  <ele>369.96</ele>
  <time>2026-09-01T19:58:33Z</time>
  <course>269.03</course>
  <speed>25.58056488821152</speed>
  <fix>3d</fix>
</trkpt>
<trkpt lat="-27.2737692" lon="151.2784323">
  <ele>370.22</ele>
  <time>2026-09-01T19:58:33Z</time>
  <course>269.63</course>
  <speed>25.58</speed>
  <fix>3d</fix>
</trkpt>
<trkpt lat="-27.2737698" lon="151.2783347">
  <ele>369.86</ele>
  <time>2026-09-01T19:58:33Z</time>
  <course>269.05</course>
  <speed>25.58050038603624</speed>
  <fix>3d</fix>
</trkpt>
<trkpt lat="-27.2737695" lon="151.2783806">
  <ele>370.02</ele>
  <time>2026-09-01T19:58:33Z</time>
  <course>269.65</course>
  <speed>25.58</speed>
  <fix>3d</fix>
</trkpt>
<trkpt lat="-27.27377" lon="151.2783089">
  <ele>369.75</ele>
  <time>2026-09-01T19:58:33Z</time>
  <course>269.02</course>
  <speed>25.58050038603624</speed>
  <fix>3d</fix>
</trkpt>
<trkpt lat="-27.2737695" lon="151.2783806">
  <ele>370.02</ele>
  <time>2026-09-01T19:58:33Z</time>
  <course>269.65</course>
  <speed>25.58</speed>
  <fix>3d</fix>
</trkpt>
<trkpt lat="-27.2737701" lon="151.2782832">
  <ele>369.65</ele>
  <time>2026-09-01T19:58:33Z</time>
  <course>268.99</course>
  <speed>25.570439964928255</speed>
  <fix>3d</fix>
</trkpt>
<trkpt lat="-27.2737697" lon="151.2783289">
  <ele>369.81</ele>
  <time>2026-09-01T19:58:33Z</time>
  <course>269.67</course>
  <speed>25.58</speed>
  <fix>3d</fix>
</trkpt>
<trkpt lat="-27.2737702" lon="151.2782575">
  <ele>369.54</ele>
  <time>2026-09-01T19:58:33Z</time>
  <course>269.02</course>
  <speed>25.570383258762472</speed>
  <fix>3d</fix>
</trkpt>
<trkpt lat="-27.2737697" lon="151.2783289">
  <ele>369.81</ele>
  <time>2026-09-01T19:58:33Z</time>
  <course>269.67</course>
  <speed>25.58</speed>
  <fix>3d</fix>
</trkpt>
<trkpt lat="-27.2737703" lon="151.2782314">
  <ele>369.44</ele>
  <time>2026-09-01T19:58:33Z</time>
  <course>269.09</course>
  <speed>25.570330463253693</speed>
  <fix>3d</fix>
</trkpt>
<trkpt lat="-27.27377" lon="151.2782772">
  <ele>369.6</ele>
  <time>2026-09-01T19:58:33Z</time>
  <course>269.69</course>
  <speed>25.58</speed>
  <fix>3d</fix>
</trkpt>
<trkpt lat="-27.2737704" lon="151.2782055">
  <ele>369.33</ele>
  <time>2026-09-01T19:58:33Z</time>
  <course>269.08</course>
  <speed>25.570281578426158</speed>
  <fix>3d</fix>
</trkpt>
<trkpt lat="-27.27377" lon="151.2782772">
  <ele>369.6</ele>
  <time>2026-09-01T19:58:33Z</time>
  <course>269.69</course>
  <speed>25.58</speed>
  <fix>3d</fix>
</trkpt>
<trkpt lat="-27.2737705" lon="151.2781795">
  <ele>369.22</ele>
  <time>2026-09-01T19:58:33Z</time>
  <course>269.11</course>
  <speed>25.570281578426158</speed>
  <fix>3d</fix>
</trkpt>
<trkpt lat="-27.2737702" lon="151.2782255">
  <ele>369.39</ele>
  <time>2026-09-01T19:58:33Z</time>
  <course>269.73</course>
  <speed>25.57</speed>
  <fix>3d</fix>
</trkpt>
<trkpt lat="-27.2737706" lon="151.2781536">
  <ele>369.12</ele>
  <time>2026-09-01T19:58:33Z</time>
  <course>269.15</course>
  <speed>25.570236604302277</speed>
  <fix>3d</fix>
</trkpt>
<trkpt lat="-27.2737702" lon="151.2782255">
  <ele>369.39</ele>
  <time>2026-09-01T19:58:33Z</time>
  <course>269.73</course>
  <speed>25.57</speed>
  <fix>3d</fix>
</trkpt>
<trkpt lat="-27.2737707" lon="151.2781276">
  <ele>369.01</ele>
  <time>2026-09-01T19:58:33Z</time>
  <course>269.16</course>
  <speed>25.57015838824625</speed>
  <fix>3d</fix>
</trkpt>
<trkpt lat="-27.2737704" lon="151.2781738">
  <ele>369.18</ele>
  <time>2026-09-01T19:58:33Z</time>
  <course>269.77</course>
  <speed>25.57</speed>
  <fix>3d</fix>
</trkpt>
<trkpt lat="-27.2737707" lon="151.2781016">
  <ele>368.9</ele>
  <time>2026-09-01T19:58:33Z</time>
  <course>269.18</course>
  <speed>25.57015838824625</speed>
  <fix>3d</fix>
</trkpt>
<trkpt lat="-27.2737704" lon="151.2781738">
  <ele>369.18</ele>
  <time>2026-09-01T19:58:33Z</time>
  <course>269.77</course>
  <speed>25.57</speed>
  <fix>3d</fix>
</trkpt>
<trkpt lat="-27.2737708" lon="151.2780758">
  <ele>368.78</ele>
  <time>2026-09-01T19:58:33Z</time>
  <course>269.22</course>
  <speed>25.570125146349987</speed>
  <fix>3d</fix>
</trkpt>
<trkpt lat="-27.2737706" lon="151.2781222">
  <ele>368.96</ele>
  <time>2026-09-01T19:58:33Z</time>
  <course>269.81</course>
  <speed>25.56</speed>
  <fix>3d</fix>
</trkpt>
<trkpt lat="-27.2737709" lon="151.2780499">
  <ele>368.67</ele>
  <time>2026-09-01T19:58:33Z</time>
  <course>269.25</course>
  <speed>25.570095815229166</speed>
  <fix>3d</fix>
</trkpt>
<trkpt lat="-27.2737706" lon="151.2781222">
  <ele>368.96</ele>
  <time>2026-09-01T19:58:33Z</time>
  <course>269.81</course>
  <speed>25.56</speed>
  <fix>3d</fix>
</trkpt>
<trkpt lat="-27.2737709" lon="151.2780242">
  <ele>368.55</ele>
  <time>2026-09-01T19:58:33Z</time>
  <course>269.29</course>
  <speed>25.560048904491556</speed>
  <fix>3d</fix>
</trkpt>
<trkpt lat="-27.2737707" lon="151.2780705">
  <ele>368.75</ele>
  <time>2026-09-01T19:58:33Z</time>
  <course>269.86</course>
  <speed>25.55</speed>
  <fix>3d</fix>
</trkpt>
<trkpt lat="-27.2737709" lon="151.2779984">
  <ele>368.44</ele>
  <time>2026-09-01T19:58:33Z</time>
  <course>269.31</course>
  <speed>25.560031298885374</speed>
  <fix>3d</fix>
</trkpt>
<trkpt lat="-27.2737707" lon="151.2780705">
  <ele>368.75</ele>
  <time>2026-09-01T19:58:33Z</time>
  <course>269.86</course>
  <speed>25.55</speed>
  <fix>3d</fix>
</trkpt>
<trkpt lat="-27.2737709" lon="151.2779727">
  <ele>368.33</ele>
  <time>2026-09-01T19:58:33Z</time>
  <course>269.35</course>
  <speed>25.550017612518392</speed>
  <fix>3d</fix>
</trkpt>
<trkpt lat="-27.2737708" lon="151.2780188">
  <ele>368.52</ele>
  <time>2026-09-01T19:58:33Z</time>
  <course>269.91</course>
  <speed>25.55</speed>
  <fix>3d</fix>
</trkpt>
<trkpt lat="-27.273771" lon="151.277947">
  <ele>368.22</ele>
  <time>2026-09-01T19:58:33Z</time>
  <course>269.36</course>
  <speed>25.540007830852364</speed>
  <fix>3d</fix>
</trkpt>
<trkpt lat="-27.2737708" lon="151.2780188">
  <ele>368.52</ele>
  <time>2026-09-01T19:58:33Z</time>
  <course>269.91</course>
  <speed>25.55</speed>
  <fix>3d</fix>
</trkpt>
<trkpt lat="-27.273771" lon="151.2779213">
  <ele>368.1</ele>
  <time>2026-09-01T19:58:33Z</time>
  <course>269.43</course>
  <speed>25.530001958480142</speed>
  <fix>3d</fix>
</trkpt>
<trkpt lat="-27.2737709" lon="151.277967">
  <ele>368.3</ele>
  <time>2026-09-01T19:58:33Z</time>
  <course>269.95</course>
  <speed>25.54</speed>
  <fix>3d</fix>
</trkpt>
<trkpt lat="-27.273771" lon="151.2778956">
  <ele>367.99</ele>
  <time>2026-09-01T19:58:33Z</time>
  <course>269.45</course>
  <speed>25.530001958480142</speed>
  <fix>3d</fix>
</trkpt>
<trkpt lat="-27.2737709" lon="151.277967">
  <ele>368.3</ele>
  <time>2026-09-01T19:58:33Z</time>
  <course>269.95</course>
  <speed>25.54</speed>
  <fix>3d</fix>
</trkpt>
<trkpt lat="-27.273771" lon="151.2778699">
  <ele>367.87</ele>
  <time>2026-09-01T19:58:33Z</time>
  <course>269.44</course>
  <speed>25.52</speed>
  <fix>3d</fix>
</trkpt>
<trkpt lat="-27.2737709" lon="151.2779155">
  <ele>368.07</ele>
  <time>2026-09-01T19:58:33Z</time>
  <course>270.0</course>
  <speed>25.53</speed>
  <fix>3d</fix>
</trkpt>
<trkpt lat="-27.273771" lon="151.2778442">
  <ele>367.76</ele>
  <time>2026-09-01T19:58:33Z</time>
  <course>269.46</course>
  <speed>25.52</speed>
  <fix>3d</fix>
</trkpt>
<trkpt lat="-27.2737709" lon="151.2779155">
  <ele>368.07</ele>
  <time>2026-09-01T19:58:33Z</time>
  <course>270.0</course>
  <speed>25.53</speed>
  <fix>3d</fix>
</trkpt>
<trkpt lat="-27.273771" lon="151.2778185">
  <ele>367.64</ele>
  <time>2026-09-01T19:58:33Z</time>
  <course>269.44</course>
  <speed>25.51</speed>
  <fix>3d</fix>
</trkpt>
<trkpt lat="-27.2737709" lon="151.2778639">
  <ele>367.84</ele>
  <time>2026-09-01T19:58:33Z</time>
  <course>270.04</course>
  <speed>25.53</speed>
  <fix>3d</fix>
</trkpt>
<trkpt lat="-27.273771" lon="151.2777927">
  <ele>367.52</ele>
  <time>2026-09-01T19:58:33Z</time>
  <course>269.43</course>
  <speed>25.50000196078424</speed>
  <fix>3d</fix>
</trkpt>
<trkpt lat="-27.2737709" lon="151.2778639">
  <ele>367.84</ele>
  <time>2026-09-01T19:58:33Z</time>
  <course>270.04</course>
  <speed>25.53</speed>
  <fix>3d</fix>
</trkpt>
<trkpt lat="-27.273771" lon="151.277767">
  <ele>367.39</ele>
  <time>2026-09-01T19:58:33Z</time>
  <course>269.46</course>
  <speed>25.50000784313605</speed>
  <fix>3d</fix>
</trkpt>
<trkpt lat="-27.2737709" lon="151.2778123">
  <ele>367.61</ele>
  <time>2026-09-01T19:58:33Z</time>
  <course>270.07</course>
  <speed>25.52</speed>
  <fix>3d</fix>
</trkpt>
<trkpt lat="-27.2737709" lon="151.2777413">
  <ele>367.27</ele>
  <time>2026-09-01T19:58:33Z</time>
  <course>269.47</course>
  <speed>25.490007846212993</speed>
  <fix>3d</fix>
</trkpt>
<trkpt lat="-27.2737709" lon="151.2778123">
  <ele>367.61</ele>
  <time>2026-09-01T19:58:33Z</time>
  <course>270.07</course>
  <speed>25.52</speed>
  <fix>3d</fix>
</trkpt>
<trkpt lat="-27.2737709" lon="151.2777156">
  <ele>367.15</ele>
  <time>2026-09-01T19:58:33Z</time>
  <course>269.48</course>
  <speed>25.480007849292356</speed>
  <fix>3d</fix>
</trkpt>
<trkpt lat="-27.2737708" lon="151.2777607">
  <ele>367.37</ele>
  <time>2026-09-01T19:58:33Z</time>
  <course>270.1</course>
  <speed>25.51</speed>
  <fix>3d</fix>
</trkpt>
<trkpt lat="-27.2737709" lon="151.2776901">
  <ele>367.03</ele>
  <time>2026-09-01T19:58:33Z</time>
  <course>269.47</course>
  <speed>25.480007849292356</speed>
  <fix>3d</fix>
</trkpt>
<trkpt lat="-27.2737708" lon="151.2777607">
  <ele>367.37</ele>
  <time>2026-09-01T19:58:33Z</time>
  <course>270.1</course>
  <speed>25.51</speed>
  <fix>3d</fix>
</trkpt>
<trkpt lat="-27.2737708" lon="151.2776643">
  <ele>366.91</ele>
  <time>2026-09-01T19:58:33Z</time>
  <course>269.51</course>
  <speed>25.480007849292356</speed>
  <fix>3d</fix>
</trkpt>
<trkpt lat="-27.2737707" lon="151.2777092">
  <ele>367.13</ele>
  <time>2026-09-01T19:58:33Z</time>
  <course>270.11</course>
  <speed>25.5</speed>
  <fix>3d</fix>
</trkpt>
<trkpt lat="-27.2737708" lon="151.2776384">
  <ele>366.78</ele>
  <time>2026-09-01T19:58:33Z</time>
  <course>269.52</course>
  <speed>25.480017660904394</speed>
  <fix>3d</fix>
</trkpt>
<trkpt lat="-27.2737707" lon="151.2777092">
  <ele>367.13</ele>
  <time>2026-09-01T19:58:33Z</time>
  <course>270.11</course>
  <speed>25.5</speed>
  <fix>3d</fix>
</trkpt>
<trkpt lat="-27.2737707" lon="151.2776121">
  <ele>366.66</ele>
  <time>2026-09-01T19:58:33Z</time>
  <course>269.52</course>
  <speed>25.49001765397584</speed>
  <fix>3d</fix>
</trkpt>
<trkpt lat="-27.2737706" lon="151.2776576">
  <ele>366.89</ele>
  <time>2026-09-01T19:58:33Z</time>
  <course>270.12</course>
  <speed>25.49</speed>
  <fix>3d</fix>
</trkpt>
<trkpt lat="-27.2737707" lon="151.2775862">
  <ele>366.54</ele>
  <time>2026-09-01T19:58:33Z</time>
  <course>269.49</course>
  <speed>25.490031384837483</speed>
  <fix>3d</fix>
</trkpt>
<trkpt lat="-27.2737706" lon="151.2776576">
  <ele>366.89</ele>
  <time>2026-09-01T19:58:33Z</time>
  <course>270.12</course>
  <speed>25.49</speed>
  <fix>3d</fix>
</trkpt>
<trkpt lat="-27.2737706" lon="151.2775603">
  <ele>366.42</ele>
  <time>2026-09-01T19:58:33Z</time>
  <course>269.53</course>
  <speed>25.490031384837483</speed>
  <fix>3d</fix>
</trkpt>
<trkpt lat="-27.2737705" lon="151.2776061">
  <ele>366.65</ele>
  <time>2026-09-01T19:58:33Z</time>
  <course>270.14</course>
  <speed>25.48</speed>
  <fix>3d</fix>
</trkpt>
<trkpt lat="-27.2737706" lon="151.2775345">
  <ele>366.3</ele>
  <time>2026-09-01T19:58:33Z</time>
  <course>269.54</course>
  <speed>25.490031384837483</speed>
  <fix>3d</fix>
</trkpt>
<trkpt lat="-27.2737705" lon="151.2776061">
  <ele>366.65</ele>
  <time>2026-09-01T19:58:33Z</time>
  <course>270.14</course>
  <speed>25.48</speed>
  <fix>3d</fix>
</trkpt>
<trkpt lat="-27.2737705" lon="151.2775087">
  <ele>366.18</ele>
  <time>2026-09-01T19:58:33Z</time>
  <course>269.55</course>
  <speed>25.490031384837483</speed>
  <fix>3d</fix>
</trkpt>
<trkpt lat="-27.2737704" lon="151.2775546">
  <ele>366.41</ele>
  <time>2026-09-01T19:58:33Z</time>
  <course>270.15</course>
  <speed>25.48</speed>
  <fix>3d</fix>
</trkpt>
<trkpt lat="-27.2737704" lon="151.277483">
  <ele>366.06</ele>
  <time>2026-09-01T19:58:33Z</time>
  <course>269.57</course>
  <speed>25.49004903879159</speed>
  <fix>3d</fix>
</trkpt>
<trkpt lat="-27.2737704" lon="151.2775546">
  <ele>366.41</ele>
  <time>2026-09-01T19:58:33Z</time>
  <course>270.15</course>
  <speed>25.48</speed>
  <fix>3d</fix>
</trkpt>
<trkpt lat="-27.2737704" lon="151.2774572">
  <ele>365.94</ele>
  <time>2026-09-01T19:58:33Z</time>
  <course>269.59</course>
  <speed>25.49004903879159</speed>
  <fix>3d</fix>
</trkpt>
<trkpt lat="-27.2737703" lon="151.277503">
  <ele>366.16</ele>
  <time>2026-09-01T19:58:33Z</time>
  <course>270.16</course>
  <speed>25.48</speed>
  <fix>3d</fix>
</trkpt>
<trkpt lat="-27.2737703" lon="151.2774314">
  <ele>365.82</ele>
  <time>2026-09-01T19:58:33Z</time>
  <course>269.62</course>
  <speed>25.49004903879159</speed>
  <fix>3d</fix>
</trkpt>
<trkpt lat="-27.2737703" lon="151.277503">
  <ele>366.16</ele>
  <time>2026-09-01T19:58:33Z</time>
  <course>270.16</course>
  <speed>25.48</speed>
  <fix>3d</fix>
</trkpt>
<trkpt lat="-27.2737702" lon="151.2774057">
  <ele>365.7</ele>
  <time>2026-09-01T19:58:33Z</time>
  <course>269.6</course>
  <speed>25.49004903879159</speed>
  <fix>3d</fix>
</trkpt>
<trkpt lat="-27.2737702" lon="151.2774514">
  <ele>365.93</ele>
  <time>2026-09-01T19:58:33Z</time>
  <course>270.17</course>
  <speed>25.47</speed>
  <fix>3d</fix>
</trkpt>
<trkpt lat="-27.2737702" lon="151.2773799">
  <ele>365.58</ele>
  <time>2026-09-01T19:58:33Z</time>
  <course>269.6</course>
  <speed>25.480049058037544</speed>
  <fix>3d</fix>
</trkpt>
<trkpt lat="-27.2737702" lon="151.2774514">
  <ele>365.93</ele>
  <time>2026-09-01T19:58:33Z</time>
  <course>270.17</course>
  <speed>25.47</speed>
  <fix>3d</fix>
</trkpt>
<trkpt lat="-27.2737701" lon="151.2773541">
  <ele>365.46</ele>
  <time>2026-09-01T19:58:33Z</time>
  <course>269.6</course>
  <speed>25.480070643544142</speed>
  <fix>3d</fix>
</trkpt>
<trkpt lat="-27.27377" lon="151.2774">
  <ele>365.68</ele>
  <time>2026-09-01T19:58:33Z</time>
  <course>270.17</course>
  <speed>25.47</speed>
  <fix>3d</fix>
</trkpt>
<trkpt lat="-27.27377" lon="151.2773284">
  <ele>365.33</ele>
  <time>2026-09-01T19:58:33Z</time>
  <course>269.58</course>
  <speed>25.480070643544142</speed>
  <fix>3d</fix>
</trkpt>
<trkpt lat="-27.27377" lon="151.2774">
  <ele>365.68</ele>
  <time>2026-09-01T19:58:33Z</time>
  <course>270.17</course>
  <speed>25.47</speed>
  <fix>3d</fix>
</trkpt>
<trkpt lat="-27.27377" lon="151.2773026">
  <ele>365.21</ele>
  <time>2026-09-01T19:58:33Z</time>
  <course>269.6</course>
  <speed>25.480070643544142</speed>
  <fix>3d</fix>
</trkpt>
<trkpt lat="-27.2737699" lon="151.2773485">
  <ele>365.44</ele>
  <time>2026-09-01T19:58:33Z</time>
  <course>270.18</course>
  <speed>25.46</speed>
  <fix>3d</fix>
</trkpt>
<trkpt lat="-27.2737699" lon="151.2772768">
  <ele>365.08</ele>
  <time>2026-09-01T19:58:33Z</time>
  <course>269.63</course>
  <speed>25.480070643544142</speed>
  <fix>3d</fix>
</trkpt>
<trkpt lat="-27.2737699" lon="151.2773485">
  <ele>365.44</ele>
  <time>2026-09-01T19:58:33Z</time>
  <course>270.18</course>
  <speed>25.46</speed>
  <fix>3d</fix>
</trkpt>
<trkpt lat="-27.2737698" lon="151.2772511">
  <ele>364.95</ele>
  <time>2026-09-01T19:58:33Z</time>
  <course>269.64</course>
  <speed>25.49007061583</speed>
  <fix>3d</fix>
</trkpt>
<trkpt lat="-27.2737697" lon="151.2772971">
  <ele>365.19</ele>
  <time>2026-09-01T19:58:33Z</time>
  <course>270.19</course>
  <speed>25.45</speed>
  <fix>3d</fix>
</trkpt>
<trkpt lat="-27.2737697" lon="151.2772253">
  <ele>364.82</ele>
  <time>2026-09-01T19:58:33Z</time>
  <course>269.67</course>
  <speed>25.480070643544142</speed>
  <fix>3d</fix>
</trkpt>
<trkpt lat="-27.2737697" lon="151.2772971">
  <ele>365.19</ele>
  <time>2026-09-01T19:58:33Z</time>
  <course>270.19</course>
  <speed>25.45</speed>
  <fix>3d</fix>
</trkpt>
<trkpt lat="-27.2737697" lon="151.2771995">
  <ele>364.69</ele>
  <time>2026-09-01T19:58:33Z</time>
  <course>269.67</course>
  <speed>25.480070643544142</speed>
  <fix>3d</fix>
</trkpt>
<trkpt lat="-27.2737696" lon="151.2772456">
  <ele>364.93</ele>
  <time>2026-09-01T19:58:33Z</time>
  <course>270.19</course>
  <speed>25.45</speed>
  <fix>3d</fix>
</trkpt>
<trkpt lat="-27.2737696" lon="151.2771738">
  <ele>364.56</ele>
  <time>2026-09-01T19:58:33Z</time>
  <course>269.66</course>
  <speed>25.480070643544142</speed>
  <fix>3d</fix>
</trkpt>
<trkpt lat="-27.2737696" lon="151.2772456">
  <ele>364.93</ele>
  <time>2026-09-01T19:58:33Z</time>
  <course>270.19</course>
  <speed>25.45</speed>
  <fix>3d</fix>
</trkpt>
<trkpt lat="-27.2737695" lon="151.2771482">
  <ele>364.43</ele>
  <time>2026-09-01T19:58:33Z</time>
  <course>269.67</course>
  <speed>25.480070643544142</speed>
  <fix>3d</fix>
</trkpt>
<trkpt lat="-27.2737694" lon="151.2771942">
  <ele>364.66</ele>
  <time>2026-09-01T19:58:33Z</time>
  <course>270.2</course>
  <speed>25.45</speed>
  <fix>3d</fix>
</trkpt>
<trkpt lat="-27.2737694" lon="151.2771225">
  <ele>364.3</ele>
  <time>2026-09-01T19:58:33Z</time>
  <course>269.69</course>
  <speed>25.480070643544142</speed>
  <fix>3d</fix>
</trkpt>
<trkpt lat="-27.2737694" lon="151.2771942">
  <ele>364.66</ele>
  <time>2026-09-01T19:58:33Z</time>
  <course>270.2</course>
  <speed>25.45</speed>
  <fix>3d</fix>
</trkpt>
<trkpt lat="-27.2737693" lon="151.2770967">
  <ele>364.17</ele>
  <time>2026-09-01T19:58:33Z</time>
  <course>269.65</course>
  <speed>25.480070643544142</speed>
  <fix>3d</fix>
</trkpt>
<trkpt lat="-27.2737693" lon="151.2771427">
  <ele>364.41</ele>
  <time>2026-09-01T19:58:33Z</time>
  <course>270.2</course>
  <speed>25.44</speed>
  <fix>3d</fix>
</trkpt>
<trkpt lat="-27.2737693" lon="151.277071">
  <ele>364.04</ele>
  <time>2026-09-01T19:58:33Z</time>
  <course>269.61</course>
  <speed>25.480070643544142</speed>
  <fix>3d</fix>
</trkpt>
<trkpt lat="-27.2737693" lon="151.2771427">
  <ele>364.41</ele>
  <time>2026-09-01T19:58:33Z</time>
  <course>270.2</course>
  <speed>25.44</speed>
  <fix>3d</fix>
</trkpt>
<trkpt lat="-27.2737692" lon="151.277045">
  <ele>363.91</ele>
  <time>2026-09-01T19:58:33Z</time>
  <course>269.56</course>
  <speed>25.480049058037544</speed>
  <fix>3d</fix>
</trkpt>
<trkpt lat="-27.2737691" lon="151.2770914">
  <ele>364.15</ele>
  <time>2026-09-01T19:58:33Z</time>
  <course>270.19</course>
  <speed>25.44</speed>
  <fix>3d</fix>
</trkpt>
<trkpt lat="-27.2737691" lon="151.2770193">
  <ele>363.77</ele>
  <time>2026-09-01T19:58:33Z</time>
  <course>269.54</course>
  <speed>25.480031397154914</speed>
  <fix>3d</fix>
</trkpt>
<trkpt lat="-27.2737691" lon="151.2770914">
  <ele>364.15</ele>
  <time>2026-09-01T19:58:33Z</time>
  <course>270.19</course>
  <speed>25.44</speed>
  <fix>3d</fix>
</trkpt>
<trkpt lat="-27.2737691" lon="151.2769935">
  <ele>363.64</ele>
  <time>2026-09-01T19:58:33Z</time>
  <course>269.61</course>
  <speed>25.480031397154914</speed>
  <fix>3d</fix>
</trkpt>
<trkpt lat="-27.2737689" lon="151.27704">
  <ele>363.89</ele>
  <time>2026-09-01T19:58:33Z</time>
  <course>270.17</course>
  <speed>25.44</speed>
  <fix>3d</fix>
</trkpt>
<trkpt lat="-27.273769" lon="151.2769678">
  <ele>363.51</ele>
  <time>2026-09-01T19:58:33Z</time>
  <course>269.63</course>
  <speed>25.480031397154914</speed>
  <fix>3d</fix>
</trkpt>
<trkpt lat="-27.2737689" lon="151.27704">
  <ele>363.89</ele>
  <time>2026-09-01T19:58:33Z</time>
  <course>270.17</course>
  <speed>25.44</speed>
  <fix>3d</fix>
</trkpt>
<trkpt lat="-27.273769" lon="151.2769421">
  <ele>363.38</ele>
  <time>2026-09-01T19:58:33Z</time>
  <course>269.64</course>
  <speed>25.480031397154914</speed>
  <fix>3d</fix>
</trkpt>
<trkpt lat="-27.2737688" lon="151.2769884">
  <ele>363.63</ele>
  <time>2026-09-01T19:58:33Z</time>
  <course>270.14</course>
  <speed>25.44</speed>
  <fix>3d</fix>
</trkpt>
<trkpt lat="-27.2737689" lon="151.2769163">
  <ele>363.25</ele>
  <time>2026-09-01T19:58:33Z</time>
  <course>269.64</course>
  <speed>25.480031397154914</speed>
  <fix>3d</fix>
</trkpt>
<trkpt lat="-27.2737688" lon="151.2769884">
  <ele>363.63</ele>
  <time>2026-09-01T19:58:33Z</time>
  <course>270.14</course>
  <speed>25.44</speed>
  <fix>3d</fix>
</trkpt>
<trkpt lat="-27.2737688" lon="151.2768904">
  <ele>363.12</ele>
  <time>2026-09-01T19:58:33Z</time>
  <course>269.61</course>
  <speed>25.480031397154914</speed>
  <fix>3d</fix>
</trkpt>
<trkpt lat="-27.2737687" lon="151.2769369">
  <ele>363.37</ele>
  <time>2026-09-01T19:58:33Z</time>
  <course>270.14</course>
  <speed>25.44</speed>
  <fix>3d</fix>
</trkpt>
<trkpt lat="-27.2737688" lon="151.2768647">
  <ele>362.99</ele>
  <time>2026-09-01T19:58:33Z</time>
  <course>269.56</course>
  <speed>25.480031397154914</speed>
  <fix>3d</fix>
</trkpt>
<trkpt lat="-27.2737687" lon="151.2769369">
  <ele>363.37</ele>
  <time>2026-09-01T19:58:33Z</time>
  <course>270.14</course>
  <speed>25.44</speed>
  <fix>3d</fix>
</trkpt>
<trkpt lat="-27.2737687" lon="151.2768389">
  <ele>362.86</ele>
  <time>2026-09-01T19:58:33Z</time>
  <course>269.55</course>
  <speed>25.480017660904394</speed>
  <fix>3d</fix>
</trkpt>
<trkpt lat="-27.2737686" lon="151.2768855">
  <ele>363.11</ele>
  <time>2026-09-01T19:58:33Z</time>
  <course>270.13</course>
  <speed>25.43</speed>
  <fix>3d</fix>
</trkpt>
<trkpt lat="-27.2737687" lon="151.2768132">
  <ele>362.73</ele>
  <time>2026-09-01T19:58:33Z</time>
  <course>269.58</course>
  <speed>25.4700176678384</speed>
  <fix>3d</fix>
</trkpt>
<trkpt lat="-27.2737686" lon="151.2768855">
  <ele>363.11</ele>
  <time>2026-09-01T19:58:33Z</time>
  <course>270.13</course>
  <speed>25.43</speed>
  <fix>3d</fix>
</trkpt>
<trkpt lat="-27.2737686" lon="151.2767875">
  <ele>362.6</ele>
  <time>2026-09-01T19:58:33Z</time>
  <course>269.59</course>
  <speed>25.4700176678384</speed>
  <fix>3d</fix>
</trkpt>
<trkpt lat="-27.2737685" lon="151.2768341">
  <ele>362.85</ele>
  <time>2026-09-01T19:58:33Z</time>
  <course>270.12</course>
  <speed>25.43</speed>
  <fix>3d</fix>
</trkpt>
<trkpt lat="-27.2737686" lon="151.2767618">
  <ele>362.47</ele>
  <time>2026-09-01T19:58:33Z</time>
  <course>269.55</course>
  <speed>25.46001767477784</speed>
  <fix>3d</fix>
</trkpt>
<trkpt lat="-27.2737685" lon="151.2768341">
  <ele>362.85</ele>
  <time>2026-09-01T19:58:33Z</time>
  <course>270.12</course>
  <speed>25.43</speed>
  <fix>3d</fix>
</trkpt>
<trkpt lat="-27.2737685" lon="151.2767361">
  <ele>362.34</ele>
  <time>2026-09-01T19:58:33Z</time>
  <course>269.52</course>
  <speed>25.460007855458333</speed>
  <fix>3d</fix>
</trkpt>
<trkpt lat="-27.2737684" lon="151.2767827">
  <ele>362.59</ele>
  <time>2026-09-01T19:58:33Z</time>
  <course>270.12</course>
  <speed>25.43</speed>
  <fix>3d</fix>
</trkpt>
<trkpt lat="-27.2737685" lon="151.2767105">
  <ele>362.2</ele>
  <time>2026-09-01T19:58:33Z</time>
  <course>269.54</course>
  <speed>25.460007855458333</speed>
  <fix>3d</fix>
</trkpt>
<trkpt lat="-27.2737684" lon="151.2767827">
  <ele>362.59</ele>
  <time>2026-09-01T19:58:33Z</time>
  <course>270.12</course>
  <speed>25.43</speed>
  <fix>3d</fix>
</trkpt>
<trkpt lat="-27.2737684" lon="151.2766848">
  <ele>362.07</ele>
  <time>2026-09-01T19:58:33Z</time>
  <course>269.57</course>
  <speed>25.450001964636467</speed>
  <fix>3d</fix>
</trkpt>
<trkpt lat="-27.2737683" lon="151.2767314">
  <ele>362.33</ele>
  <time>2026-09-01T19:58:33Z</time>
  <course>270.1</course>
  <speed>25.42</speed>
  <fix>3d</fix>
</trkpt>
<trkpt lat="-27.2737684" lon="151.2766591">
  <ele>361.94</ele>
  <time>2026-09-01T19:58:33Z</time>
  <course>269.58</course>
  <speed>25.450001964636467</speed>
  <fix>3d</fix>
</trkpt>
<trkpt lat="-27.2737683" lon="151.2767314">
  <ele>362.33</ele>
  <time>2026-09-01T19:58:33Z</time>
  <course>270.1</course>
  <speed>25.42</speed>
  <fix>3d</fix>
</trkpt>
<trkpt lat="-27.2737684" lon="151.2766334">
  <ele>361.81</ele>
  <time>2026-09-01T19:58:34Z</time>
  <course>269.62</course>
  <speed>25.44</speed>
  <fix>3d</fix>
</trkpt>
<trkpt lat="-27.2737682" lon="151.27668">
  <ele>362.07</ele>
  <time>2026-09-01T19:58:34Z</time>
  <course>270.08</course>
  <speed>25.41</speed>
  <fix>3d</fix>
</trkpt>
<trkpt lat="-27.2737684" lon="151.276608">
  <ele>361.67</ele>
  <time>2026-09-01T19:58:34Z</time>
  <course>269.67</course>
  <speed>25.44</speed>
  <fix>3d</fix>
</trkpt>
<trkpt lat="-27.2737682" lon="151.27668">
  <ele>362.07</ele>
  <time>2026-09-01T19:58:34Z</time>
  <course>270.08</course>
  <speed>25.41</speed>
  <fix>3d</fix>
</trkpt>
<trkpt lat="-27.2737683" lon="151.2765823">
  <ele>361.53</ele>
  <time>2026-09-01T19:58:34Z</time>
  <course>269.8</course>
  <speed>25.43</speed>
  <fix>3d</fix>
</trkpt>
<trkpt lat="-27.2737682" lon="151.2766286">
  <ele>361.81</ele>
  <time>2026-09-01T19:58:34Z</time>
  <course>270.05</course>
  <speed>25.4</speed>
  <fix>3d</fix>
</trkpt>
<trkpt lat="-27.2737683" lon="151.2765567">
  <ele>361.39</ele>
  <time>2026-09-01T19:58:34Z</time>
  <course>270.1</course>
  <speed>25.420031471262973</speed>
  <fix>3d</fix>
</trkpt>
<trkpt lat="-27.2737682" lon="151.2766286">
  <ele>361.81</ele>
  <time>2026-09-01T19:58:34Z</time>
  <course>270.05</course>
  <speed>25.4</speed>
  <fix>3d</fix>
</trkpt>
<trkpt lat="-27.2737682" lon="151.276531">
  <ele>361.23</ele>
  <time>2026-09-01T19:58:34Z</time>
  <course>270.47</course>
  <speed>25.42033241324747</speed>
  <fix>3d</fix>
</trkpt>
<trkpt lat="-27.2737681" lon="151.2765773">
  <ele>361.53</ele>
  <time>2026-09-01T19:58:34Z</time>
  <course>270.08</course>
  <speed>25.39</speed>
  <fix>3d</fix>
</trkpt>
<trkpt lat="-27.273768" lon="151.2765052">
  <ele>361.08</ele>
  <time>2026-09-01T19:58:34Z</time>
  <course>270.83</course>
  <speed>25.421890173627926</speed>
  <fix>3d</fix>
</trkpt>
<trkpt lat="-27.2737681" lon="151.2765773">
  <ele>361.53</ele>
  <time>2026-09-01T19:58:34Z</time>
  <course>270.08</course>
  <speed>25.39</speed>
  <fix>3d</fix>
</trkpt>
<trkpt lat="-27.2737676" lon="151.2764795">
  <ele>360.92</ele>
  <time>2026-09-01T19:58:34Z</time>
  <course>271.1</course>
  <speed>25.426615976177406</speed>
  <fix>3d</fix>
</trkpt>
<trkpt lat="-27.2737679" lon="151.276526">
  <ele>361.24</ele>
  <time>2026-09-01T19:58:34Z</time>
  <course>270.42</course>
  <speed>25.38</speed>
  <fix>3d</fix>
</trkpt>
<trkpt lat="-27.2737669" lon="151.2764538">
  <ele>360.76</ele>
  <time>2026-09-01T19:58:34Z</time>
  <course>271.4</course>
  <speed>25.446999823161864</speed>
  <fix>3d</fix>
</trkpt>
<trkpt lat="-27.2737679" lon="151.276526">
  <ele>361.24</ele>
  <time>2026-09-01T19:58:34Z</time>
  <course>270.42</course>
  <speed>25.38</speed>
  <fix>3d</fix>
</trkpt>
<trkpt lat="-27.2737658" lon="151.2764281">
  <ele>360.6</ele>
  <time>2026-09-01T19:58:34Z</time>
  <course>271.99</course>
  <speed>25.47632626577074</speed>
  <fix>3d</fix>
</trkpt>
<trkpt lat="-27.2737672" lon="151.2764747">
  <ele>360.93</ele>
  <time>2026-09-01T19:58:34Z</time>
  <course>271.41</course>
  <speed>25.39</speed>
  <fix>3d</fix>
</trkpt>
<trkpt lat="-27.2737644" lon="151.2764024">
  <ele>360.44</ele>
  <time>2026-09-01T19:58:34Z</time>
  <course>272.85</course>
  <speed>25.510109760641956</speed>
  <fix>3d</fix>
</trkpt>
<trkpt lat="-27.2737672" lon="151.2764747">
  <ele>360.93</ele>
  <time>2026-09-01T19:58:34Z</time>
  <course>271.41</course>
  <speed>25.39</speed>
  <fix>3d</fix>
</trkpt>
<trkpt lat="-27.2737624" lon="151.2763767">
  <ele>360.3</ele>
  <time>2026-09-01T19:58:34Z</time>
  <course>273.98</course>
  <speed>25.543619555575912</speed>
  <fix>3d</fix>
</trkpt>
<trkpt lat="-27.2737655" lon="151.2764233">
  <ele>360.61</ele>
  <time>2026-09-01T19:58:34Z</time>
  <course>273.17</course>
  <speed>25.42</speed>
  <fix>3d</fix>
</trkpt>
<trkpt lat="-27.2737598" lon="151.276351">
  <ele>360.18</ele>
  <time>2026-09-01T19:58:34Z</time>
  <course>275.28</course>
  <speed>25.588366497297166</speed>
  <fix>3d</fix>
</trkpt>
<trkpt lat="-27.2737655" lon="151.2764233">
  <ele>360.61</ele>
  <time>2026-09-01T19:58:34Z</time>
  <course>273.17</course>
  <speed>25.42</speed>
  <fix>3d</fix>
</trkpt>
<trkpt lat="-27.2737566" lon="151.2763254">
  <ele>360.08</ele>
  <time>2026-09-01T19:58:34Z</time>
  <course>276.86</course>
  <speed>25.631529412034702</speed>
  <fix>3d</fix>
</trkpt>
<trkpt lat="-27.273762" lon="151.2763719">
  <ele>360.33</ele>
  <time>2026-09-01T19:58:34Z</time>
  <course>275.7</course>
  <speed>25.48</speed>
  <fix>3d</fix>
</trkpt>
<trkpt lat="-27.2737528" lon="151.2762999">
  <ele>360.0</ele>
  <time>2026-09-01T19:58:34Z</time>
  <course>278.66</course>
  <speed>25.66587228207917</speed>
  <fix>3d</fix>
</trkpt>
<trkpt lat="-27.273762" lon="151.2763719">
  <ele>360.33</ele>
  <time>2026-09-01T19:58:34Z</time>
  <course>275.7</course>
  <speed>25.48</speed>
  <fix>3d</fix>
</trkpt>
<trkpt lat="-27.2737482" lon="151.2762744">
  <ele>359.95</ele>
  <time>2026-09-01T19:58:34Z</time>
  <course>280.6</course>
  <speed>25.69650949059035</speed>
  <fix>3d</fix>
</trkpt>
<trkpt lat="-27.2737562" lon="151.2763208">
  <ele>360.11</ele>
  <time>2026-09-01T19:58:34Z</time>
  <course>278.86</course>
  <speed>25.54</speed>
  <fix>3d</fix>
</trkpt>
<trkpt lat="-27.2737429" lon="151.2762492">
  <ele>359.93</ele>
  <time>2026-09-01T19:58:34Z</time>
  <course>282.61</course>
  <speed>25.71432285711603</speed>
  <fix>3d</fix>
</trkpt>
<trkpt lat="-27.2737562" lon="151.2763208">
  <ele>360.11</ele>
  <time>2026-09-01T19:58:34Z</time>
  <course>278.86</course>
  <speed>25.54</speed>
  <fix>3d</fix>
</trkpt>
<trkpt lat="-27.2737368" lon="151.2762241">
  <ele>359.94</ele>
  <time>2026-09-01T19:58:34Z</time>
  <course>284.69</course>
  <speed>25.72349120939846</speed>
  <fix>3d</fix>
</trkpt>
<trkpt lat="-27.2737477" lon="151.27627">
  <ele>359.98</ele>
  <time>2026-09-01T19:58:34Z</time>
  <course>282.52</course>
  <speed>25.59</speed>
  <fix>3d</fix>
</trkpt>
<trkpt lat="-27.2737298" lon="151.2761994">
  <ele>359.96</ele>
  <time>2026-09-01T19:58:34Z</time>
  <course>286.97</course>
  <speed>25.74125094085367</speed>
  <fix>3d</fix>
</trkpt>
<trkpt lat="-27.2737477" lon="151.27627">
  <ele>359.98</ele>
  <time>2026-09-01T19:58:34Z</time>
  <course>282.52</course>
  <speed>25.59</speed>
  <fix>3d</fix>
</trkpt>
<trkpt lat="-27.2737219" lon="151.2761747">
  <ele>360.01</ele>
  <time>2026-09-01T19:58:34Z</time>
  <course>289.43</course>
  <speed>25.756043950886557</speed>
  <fix>3d</fix>
</trkpt>
<trkpt lat="-27.2737361" lon="151.27622">
  <ele>359.96</ele>
  <time>2026-09-01T19:58:34Z</time>
  <course>286.61</course>
  <speed>25.62</speed>
  <fix>3d</fix>
</trkpt>
<trkpt lat="-27.2737132" lon="151.2761507">
  <ele>360.09</ele>
  <time>2026-09-01T19:58:34Z</time>
  <course>292.02</course>
  <speed>25.7657835122474</speed>
  <fix>3d</fix>
</trkpt>
<trkpt lat="-27.2737361" lon="151.27622">
  <ele>359.96</ele>
  <time>2026-09-01T19:58:34Z</time>
  <course>286.61</course>
  <speed>25.62</speed>
  <fix>3d</fix>
</trkpt>
<trkpt lat="-27.2737036" lon="151.2761272">
  <ele>360.18</ele>
  <time>2026-09-01T19:58:34Z</time>
  <course>294.81</course>
  <speed>25.77305957778393</speed>
  <fix>3d</fix>
</trkpt>
<trkpt lat="-27.2737213" lon="151.2761709">
  <ele>360.04</ele>
  <time>2026-09-01T19:58:34Z</time>
  <course>291.22</course>
  <speed>25.64</speed>
  <fix>3d</fix>
</trkpt>
<trkpt lat="-27.2736929" lon="151.2761043">
  <ele>360.29</ele>
  <time>2026-09-01T19:58:34Z</time>
  <course>297.84</course>
  <speed>25.788844487491097</speed>
  <fix>3d</fix>
</trkpt>
<trkpt lat="-27.2737213" lon="151.2761709">
  <ele>360.04</ele>
  <time>2026-09-01T19:58:34Z</time>
  <course>291.22</course>
  <speed>25.64</speed>
  <fix>3d</fix>
</trkpt>
<trkpt lat="-27.2736812" lon="151.2760822">
  <ele>360.43</ele>
  <time>2026-09-01T19:58:34Z</time>
  <course>301.14</course>
  <speed>25.80760546815609</speed>
  <fix>3d</fix>
</trkpt>
<trkpt lat="-27.2737027" lon="151.2761236">
  <ele>360.2</ele>
  <time>2026-09-01T19:58:34Z</time>
  <course>296.53</course>
  <speed>25.66</speed>
  <fix>3d</fix>
</trkpt>
<trkpt lat="-27.2736683" lon="151.2760606">
  <ele>360.59</ele>
  <time>2026-09-01T19:58:34Z</time>
  <course>304.66</course>
  <speed>25.837712747067993</speed>
  <fix>3d</fix>
</trkpt>
<trkpt lat="-27.2737027" lon="151.2761236">
  <ele>360.2</ele>
  <time>2026-09-01T19:58:34Z</time>
  <course>296.53</course>
  <speed>25.66</speed>
  <fix>3d</fix>
</trkpt>
<trkpt lat="-27.2736542" lon="151.27604">
  <ele>360.77</ele>
  <time>2026-09-01T19:58:34Z</time>
  <course>308.3</course>
  <speed>25.849682783353455</speed>
  <fix>3d</fix>
</trkpt>
<trkpt lat="-27.2736799" lon="151.2760784">
  <ele>360.44</ele>
  <time>2026-09-01T19:58:34Z</time>
  <course>302.69</course>
  <speed>25.69</speed>
  <fix>3d</fix>
</trkpt>
<trkpt lat="-27.2736389" lon="151.2760204">
  <ele>360.98</ele>
  <time>2026-09-01T19:58:34Z</time>
  <course>312.06</course>
  <speed>25.871236924430185</speed>
  <fix>3d</fix>
</trkpt>
<trkpt lat="-27.2736799" lon="151.2760784">
  <ele>360.44</ele>
  <time>2026-09-01T19:58:34Z</time>
  <course>302.69</course>
  <speed>25.69</speed>
  <fix>3d</fix>
</trkpt>
<trkpt lat="-27.2736225" lon="151.2760018">
  <ele>361.22</ele>
  <time>2026-09-01T19:58:34Z</time>
  <course>315.94</course>
  <speed>25.868161898364562</speed>
  <fix>3d</fix>
</trkpt>
<trkpt lat="-27.2736527" lon="151.2760365">
  <ele>360.77</ele>
  <time>2026-09-01T19:58:34Z</time>
  <course>309.69</course>
  <speed>25.73</speed>
  <fix>3d</fix>
</trkpt>
<trkpt lat="-27.273605" lon="151.2759846">
  <ele>361.49</ele>
  <time>2026-09-01T19:58:34Z</time>
  <course>319.93</course>
  <speed>25.86303153151231</speed>
  <fix>3d</fix>
</trkpt>
<trkpt lat="-27.2736527" lon="151.2760365">
  <ele>360.77</ele>
  <time>2026-09-01T19:58:34Z</time>
  <course>309.69</course>
  <speed>25.73</speed>
  <fix>3d</fix>
</trkpt>
<trkpt lat="-27.2735866" lon="151.2759688">
  <ele>361.79</ele>
  <time>2026-09-01T19:58:34Z</time>
  <course>323.88</course>
  <speed>25.840263156554734</speed>
  <fix>3d</fix>
</trkpt>
<trkpt lat="-27.2736209" lon="151.2759988">
  <ele>361.2</ele>
  <time>2026-09-01T19:58:34Z</time>
  <course>317.21</course>
  <speed>25.76</speed>
  <fix>3d</fix>
</trkpt>
<trkpt lat="-27.2735673" lon="151.2759546">
  <ele>362.11</ele>
  <time>2026-09-01T19:58:34Z</time>
  <course>327.69</course>
  <speed>25.80391055634785</speed>
  <fix>3d</fix>
</trkpt>
<trkpt lat="-27.2736209" lon="151.2759988">
  <ele>361.2</ele>
  <time>2026-09-01T19:58:34Z</time>
  <course>317.21</course>
  <speed>25.76</speed>
  <fix>3d</fix>
</trkpt>
<trkpt lat="-27.2735472" lon="151.2759417">
  <ele>362.46</ele>
  <time>2026-09-01T19:58:34Z</time>
  <course>331.49</course>
  <speed>25.77578902769031</speed>
  <fix>3d</fix>
</trkpt>
<trkpt lat="-27.2735848" lon="151.2759661">
  <ele>361.75</ele>
  <time>2026-09-01T19:58:34Z</time>
  <course>325.01</course>
  <speed>25.75</speed>
  <fix>3d</fix>
</trkpt>
<trkpt lat="-27.2735264" lon="151.2759305">
  <ele>362.83</ele>
  <time>2026-09-01T19:58:34Z</time>
  <course>335.36</course>
  <speed>25.73142825417975</speed>
  <fix>3d</fix>
</trkpt>
<trkpt lat="-27.2735848" lon="151.2759661">
  <ele>361.75</ele>
  <time>2026-09-01T19:58:34Z</time>
  <course>325.01</course>
  <speed>25.75</speed>
  <fix>3d</fix>
</trkpt>
<trkpt lat="-27.2735052" lon="151.2759208">
  <ele>363.22</ele>
  <time>2026-09-01T19:58:34Z</time>
  <course>339.12</course>
  <speed>25.684723085912374</speed>
  <fix>3d</fix>
</trkpt>
<trkpt lat="-27.2735452" lon="151.2759391">
  <ele>362.41</ele>
  <time>2026-09-01T19:58:34Z</time>
  <course>332.78</course>
  <speed>25.71</speed>
  <fix>3d</fix>
</trkpt>
<trkpt lat="-27.2734835" lon="151.2759128">
  <ele>363.63</ele>
  <time>2026-09-01T19:58:34Z</time>
  <course>342.86</course>
  <speed>25.625986810267424</speed>
  <fix>3d</fix>
</trkpt>
<trkpt lat="-27.2735452" lon="151.2759391">
  <ele>362.41</ele>
  <time>2026-09-01T19:58:34Z</time>
  <course>332.78</course>
  <speed>25.71</speed>
  <fix>3d</fix>
</trkpt>
<trkpt lat="-27.2734615" lon="151.2759064">
  <ele>364.05</ele>
  <time>2026-09-01T19:58:34Z</time>
  <course>346.53</course>
  <speed>25.566777270512606</speed>
  <fix>3d</fix>
</trkpt>
<trkpt lat="-27.2735029" lon="151.2759186">
  <ele>363.15</ele>
  <time>2026-09-01T19:58:34Z</time>
  <course>340.44</course>
  <speed>25.64</speed>
  <fix>3d</fix>
</trkpt>
<trkpt lat="-27.2734391" lon="151.2759017">
  <ele>364.49</ele>
  <time>2026-09-01T19:58:34Z</time>
  <course>350.14</course>
  <speed>25.511591483088623</speed>
  <fix>3d</fix>
</trkpt>
<trkpt lat="-27.2735029" lon="151.2759186">
  <ele>363.15</ele>
  <time>2026-09-01T19:58:34Z</time>
  <course>340.44</course>
  <speed>25.64</speed>
  <fix>3d</fix>
</trkpt>
<trkpt lat="-27.2734166" lon="151.2758986">
  <ele>364.94</ele>
  <time>2026-09-01T19:58:34Z</time>
  <course>353.72</course>
  <speed>25.45352627829787</speed>
  <fix>3d</fix>
</trkpt>
<trkpt lat="-27.2734587" lon="151.2759045">
  <ele>363.96</ele>
  <time>2026-09-01T19:58:34Z</time>
  <course>348.0</course>
  <speed>25.57</speed>
  <fix>3d</fix>
</trkpt>
<trkpt lat="-27.273394" lon="151.275897">
  <ele>365.4</ele>
  <time>2026-09-01T19:58:34Z</time>
  <course>357.26</course>
  <speed>25.406621184250376</speed>
  <fix>3d</fix>
</trkpt>
<trkpt lat="-27.2734587" lon="151.2759045">
  <ele>363.96</ele>
  <time>2026-09-01T19:58:34Z</time>
  <course>348.0</course>
  <speed>25.57</speed>
  <fix>3d</fix>
</trkpt>
<trkpt lat="-27.2733714" lon="151.2758971">
  <ele>365.87</ele>
  <time>2026-09-01T19:58:34Z</time>
  <course>0.57</course>
  <speed>25.358558712986824</speed>
  <fix>3d</fix>
</trkpt>
<trkpt lat="-27.2734133" lon="151.2758971">
  <ele>364.82</ele>
  <time>2026-09-01T19:58:34Z</time>
  <course>355.36</course>
  <speed>25.49</speed>
  <fix>3d</fix>
</trkpt>
<trkpt lat="-27.2733488" lon="151.2758987">
  <ele>366.34</ele>
  <time>2026-09-01T19:58:34Z</time>
  <course>3.91</course>
  <speed>25.308864059850652</speed>
  <fix>3d</fix>
</trkpt>
<trkpt lat="-27.2734133" lon="151.2758971">
  <ele>364.82</ele>
  <time>2026-09-01T19:58:34Z</time>
  <course>355.36</course>
  <speed>25.49</speed>
  <fix>3d</fix>
</trkpt>
<trkpt lat="-27.2733263" lon="151.2759017">
  <ele>366.81</ele>
  <time>2026-09-01T19:58:34Z</time>
  <course>7.29</course>
  <speed>25.264395896201435</speed>
  <fix>3d</fix>
</trkpt>
<trkpt lat="-27.2733676" lon="151.2758961">
  <ele>365.71</ele>
  <time>2026-09-01T19:58:34Z</time>
  <course>2.44</course>
  <speed>25.41</speed>
  <fix>3d</fix>
</trkpt>
<trkpt lat="-27.273304" lon="151.2759062">
  <ele>367.28</ele>
  <time>2026-09-01T19:58:34Z</time>
  <course>10.41</course>
  <speed>25.221778287821024</speed>
  <fix>3d</fix>
</trkpt>
<trkpt lat="-27.2733676" lon="151.2758961">
  <ele>365.71</ele>
  <time>2026-09-01T19:58:34Z</time>
  <course>2.44</course>
  <speed>25.41</speed>
  <fix>3d</fix>
</trkpt>
<trkpt lat="-27.2732819" lon="151.2759122">
  <ele>367.74</ele>
  <time>2026-09-01T19:58:34Z</time>
  <course>13.36</course>
  <speed>25.196142561908164</speed>
  <fix>3d</fix>
</trkpt>
<trkpt lat="-27.2733223" lon="151.2759013">
  <ele>366.63</ele>
  <time>2026-09-01T19:58:34Z</time>
  <course>9.23</course>
  <speed>25.33</speed>
  <fix>3d</fix>
</trkpt>
<trkpt lat="-27.2732601" lon="151.2759195">
  <ele>368.19</ele>
  <time>2026-09-01T19:58:34Z</time>
  <course>16.2</course>
  <speed>25.162315076319985</speed>
  <fix>3d</fix>
</trkpt>
<trkpt lat="-27.2733223" lon="151.2759013">
  <ele>366.63</ele>
  <time>2026-09-01T19:58:34Z</time>
  <course>9.23</course>
  <speed>25.33</speed>
  <fix>3d</fix>
</trkpt>
<trkpt lat="-27.2732387" lon="151.275928">
  <ele>368.64</ele>
  <time>2026-09-01T19:58:34Z</time>
  <course>18.89</course>
  <speed>25.139333722276728</speed>
  <fix>3d</fix>
</trkpt>
<trkpt lat="-27.273278" lon="151.2759123">
  <ele>367.53</ele>
  <time>2026-09-01T19:58:34Z</time>
  <course>15.6</course>
  <speed>25.26</speed>
  <fix>3d</fix>
</trkpt>
<trkpt lat="-27.2732177" lon="151.2759376">
  <ele>369.06</ele>
  <time>2026-09-01T19:58:34Z</time>
  <course>21.55</course>
  <speed>25.111561082497442</speed>
  <fix>3d</fix>
</trkpt>
<trkpt lat="-27.273278" lon="151.2759123">
  <ele>367.53</ele>
  <time>2026-09-01T19:58:34Z</time>
  <course>15.6</course>
  <speed>25.26</speed>
  <fix>3d</fix>
</trkpt>
<trkpt lat="-27.2731972" lon="151.2759484">
  <ele>369.47</ele>
  <time>2026-09-01T19:58:34Z</time>
  <course>24.15</course>
  <speed>25.09762737790168</speed>
  <fix>3d</fix>
</trkpt>
<trkpt lat="-27.2732351" lon="151.2759285">
  <ele>368.41</ele>
  <time>2026-09-01T19:58:34Z</time>
  <course>21.44</course>
  <speed>25.19</speed>
  <fix>3d</fix>
</trkpt>
<trkpt lat="-27.273177" lon="151.2759603">
  <ele>369.87</ele>
  <time>2026-09-01T19:58:34Z</time>
  <course>26.62</course>
  <speed>25.07377315044547</speed>
  <fix>3d</fix>
</trkpt>
<trkpt lat="-27.2732351" lon="151.2759285">
  <ele>368.41</ele>
  <time>2026-09-01T19:58:34Z</time>
  <course>21.44</course>
  <speed>25.19</speed>
  <fix>3d</fix>
</trkpt>
<trkpt lat="-27.2731575" lon="151.275973">
  <ele>370.25</ele>
  <time>2026-09-01T19:58:34Z</time>
  <course>28.93</course>
  <speed>25.047271308467916</speed>
  <fix>3d</fix>
</trkpt>
<trkpt lat="-27.2731938" lon="151.2759494">
  <ele>369.24</ele>
  <time>2026-09-01T19:58:34Z</time>
  <course>26.86</course>
  <speed>25.13</speed>
  <fix>3d</fix>
</trkpt>
<trkpt lat="-27.2731386" lon="151.2759867">
  <ele>370.6</ele>
  <time>2026-09-01T19:58:34Z</time>
  <course>31.17</course>
  <speed>25.014463815960557</speed>
  <fix>3d</fix>
</trkpt>
<trkpt lat="-27.2731938" lon="151.2759494">
  <ele>369.24</ele>
  <time>2026-09-01T19:58:34Z</time>
  <course>26.86</course>
  <speed>25.13</speed>
  <fix>3d</fix>
</trkpt>
<trkpt lat="-27.2731202" lon="151.2760011">
  <ele>370.93</ele>
  <time>2026-09-01T19:58:34Z</time>
  <course>33.33</course>
  <speed>24.973850323888787</speed>
  <fix>3d</fix>
</trkpt>
<trkpt lat="-27.2731546" lon="151.2759743">
  <ele>370.0</ele>
  <time>2026-09-01T19:58:34Z</time>
  <course>31.88</course>
  <speed>25.08</speed>
  <fix>3d</fix>
</trkpt>
<trkpt lat="-27.2731023" lon="151.2760163">
  <ele>371.23</ele>
  <time>2026-09-01T19:58:34Z</time>
  <course>35.38</course>
  <speed>24.932011551417187</speed>
  <fix>3d</fix>
</trkpt>
<trkpt lat="-27.2731546" lon="151.2759743">
  <ele>370.0</ele>
  <time>2026-09-01T19:58:34Z</time>
  <course>31.88</course>
  <speed>25.08</speed>
  <fix>3d</fix>
</trkpt>
<trkpt lat="-27.273085" lon="151.2760322">
  <ele>371.51</ele>
  <time>2026-09-01T19:58:34Z</time>
  <course>37.24</course>
  <speed>24.88876051554195</speed>
  <fix>3d</fix>
</trkpt>
<trkpt lat="-27.2731173" lon="151.2760028">
  <ele>370.67</ele>
  <time>2026-09-01T19:58:34Z</time>
  <course>36.48</course>
  <speed>25.0</speed>
  <fix>3d</fix>
</trkpt>
<trkpt lat="-27.2730682" lon="151.2760487">
  <ele>371.76</ele>
  <time>2026-09-01T19:58:34Z</time>
  <course>39.09</course>
  <speed>24.841821591823738</speed>
  <fix>3d</fix>
</trkpt>
<trkpt lat="-27.2731173" lon="151.2760028">
  <ele>370.67</ele>
  <time>2026-09-01T19:58:34Z</time>
  <course>36.48</course>
  <speed>25.0</speed>
  <fix>3d</fix>
</trkpt>
<trkpt lat="-27.2730519" lon="151.2760658">
  <ele>371.97</ele>
  <time>2026-09-01T19:58:34Z</time>
  <course>40.91</course>
  <speed>24.79455585405796</speed>
  <fix>3d</fix>
</trkpt>
<trkpt lat="-27.2730822" lon="151.2760344">
  <ele>371.24</ele>
  <time>2026-09-01T19:58:34Z</time>
  <course>40.63</course>
  <speed>24.92</speed>
  <fix>3d</fix>
</trkpt>
<trkpt lat="-27.2730362" lon="151.2760834">
  <ele>372.16</ele>
  <time>2026-09-01T19:58:34Z</time>
  <course>42.57</course>
  <speed>24.751262594057703</speed>
  <fix>3d</fix>
</trkpt>
<trkpt lat="-27.2730822" lon="151.2760344">
  <ele>371.24</ele>
  <time>2026-09-01T19:58:34Z</time>
  <course>40.63</course>
  <speed>24.92</speed>
  <fix>3d</fix>
</trkpt>
<trkpt lat="-27.2730209" lon="151.2761016">
  <ele>372.32</ele>
  <time>2026-09-01T19:58:34Z</time>
  <course>44.16</course>
  <speed>24.70817880783608</speed>
  <fix>3d</fix>
</trkpt>
<trkpt lat="-27.2730493" lon="151.2760683">
  <ele>371.7</ele>
  <time>2026-09-01T19:58:34Z</time>
  <course>44.38</course>
  <speed>24.83</speed>
  <fix>3d</fix>
</trkpt>
<trkpt lat="-27.2730062" lon="151.2761202">
  <ele>372.45</ele>
  <time>2026-09-01T19:58:34Z</time>
  <course>45.77</course>
  <speed>24.67073164703471</speed>
  <fix>3d</fix>
</trkpt>
<trkpt lat="-27.2730493" lon="151.2760683">
  <ele>371.7</ele>
  <time>2026-09-01T19:58:34Z</time>
  <course>44.38</course>
  <speed>24.83</speed>
  <fix>3d</fix>
</trkpt>
<trkpt lat="-27.2729919" lon="151.2761392">
  <ele>372.54</ele>
  <time>2026-09-01T19:58:34Z</time>
  <course>47.34</course>
  <speed>24.63013601261674</speed>
  <fix>3d</fix>
</trkpt>
<trkpt lat="-27.2730185" lon="151.2761044">
  <ele>372.05</ele>
  <time>2026-09-01T19:58:34Z</time>
  <course>47.83</course>
  <speed>24.74</speed>
  <fix>3d</fix>
</trkpt>
<trkpt lat="-27.2729782" lon="151.2761586">
  <ele>372.61</ele>
  <time>2026-09-01T19:58:34Z</time>
  <course>48.82</course>
  <speed>24.590998353055944</speed>
  <fix>3d</fix>
</trkpt>
<trkpt lat="-27.2730185" lon="151.2761044">
  <ele>372.05</ele>
  <time>2026-09-01T19:58:34Z</time>
  <course>47.83</course>
  <speed>24.74</speed>
  <fix>3d</fix>
</trkpt>
<trkpt lat="-27.2729649" lon="151.2761785">
  <ele>372.64</ele>
  <time>2026-09-01T19:58:34Z</time>
  <course>50.39</course>
  <speed>24.55933427436501</speed>
  <fix>3d</fix>
</trkpt>
<trkpt lat="-27.2729896" lon="151.2761423">
  <ele>372.26</ele>
  <time>2026-09-01T19:58:34Z</time>
  <course>51.02</course>
  <speed>24.66</speed>
  <fix>3d</fix>
</trkpt>
<trkpt lat="-27.2729521" lon="151.2761987">
  <ele>372.65</ele>
  <time>2026-09-01T19:58:34Z</time>
  <course>51.94</course>
  <speed>24.532957424656328</speed>
  <fix>3d</fix>
</trkpt>
<trkpt lat="-27.2729896" lon="151.2761423">
  <ele>372.26</ele>
  <time>2026-09-01T19:58:34Z</time>
  <course>51.02</course>
  <speed>24.66</speed>
  <fix>3d</fix>
</trkpt>
<trkpt lat="-27.2729398" lon="151.2762192">
  <ele>372.62</ele>
  <time>2026-09-01T19:58:34Z</time>
  <course>53.46</course>
  <speed>24.50744580734598</speed>
  <fix>3d</fix>
</trkpt>
<trkpt lat="-27.2729627" lon="151.2761819">
  <ele>372.35</ele>
  <time>2026-09-01T19:58:34Z</time>
  <course>54.08</course>
  <speed>24.59</speed>
  <fix>3d</fix>
</trkpt>
<trkpt lat="-27.2729279" lon="151.2762401">
  <ele>372.56</ele>
  <time>2026-09-01T19:58:34Z</time>
  <course>54.98</course>
  <speed>24.490473658138995</speed>
  <fix>3d</fix>
</trkpt>
<trkpt lat="-27.2729627" lon="151.2761819">
  <ele>372.35</ele>
  <time>2026-09-01T19:58:34Z</time>
  <course>54.08</course>
  <speed>24.59</speed>
  <fix>3d</fix>
</trkpt>
<trkpt lat="-27.2729166" lon="151.2762613">
  <ele>372.48</ele>
  <time>2026-09-01T19:58:34Z</time>
  <course>56.51</course>
  <speed>24.48165435586411</speed>
  <fix>3d</fix>
</trkpt>
<trkpt lat="-27.2729378" lon="151.2762229">
  <ele>372.33</ele>
  <time>2026-09-01T19:58:34Z</time>
  <course>57.08</course>
  <speed>24.53</speed>
  <fix>3d</fix>
</trkpt>
<trkpt lat="-27.2729058" lon="151.2762829">
  <ele>372.37</ele>
  <time>2026-09-01T19:58:34Z</time>
  <course>58.03</course>
  <speed>24.475794164847848</speed>
  <fix>3d</fix>
</trkpt>
<trkpt lat="-27.2729378" lon="151.2762229">
  <ele>372.33</ele>
  <time>2026-09-01T19:58:34Z</time>
  <course>57.08</course>
  <speed>24.53</speed>
  <fix>3d</fix>
</trkpt>
<trkpt lat="-27.2728955" lon="151.2763048">
  <ele>372.24</ele>
  <time>2026-09-01T19:58:34Z</time>
  <course>59.56</course>
  <speed>24.486669842998253</speed>
  <fix>3d</fix>
</trkpt>
<trkpt lat="-27.2729148" lon="151.2762651">
  <ele>372.21</ele>
  <time>2026-09-01T19:58:34Z</time>
  <course>60.06</course>
  <speed>24.5</speed>
  <fix>3d</fix>
</trkpt>
<trkpt lat="-27.2728857" lon="151.2763269">
  <ele>372.1</ele>
  <time>2026-09-01T19:58:34Z</time>
  <course>61.15</course>
  <speed>24.50090814643408</speed>
  <fix>3d</fix>
</trkpt>
<trkpt lat="-27.2729148" lon="151.2762651">
  <ele>372.21</ele>
  <time>2026-09-01T19:58:34Z</time>
  <course>60.06</course>
  <speed>24.5</speed>
  <fix>3d</fix>
</trkpt>
<trkpt lat="-27.2728765" lon="151.2763492">
  <ele>371.94</ele>
  <time>2026-09-01T19:58:34Z</time>
  <course>62.72</course>
  <speed>24.51883357747672</speed>
  <fix>3d</fix>
</trkpt>
<trkpt lat="-27.2728939" lon="151.2763086">
  <ele>371.99</ele>
  <time>2026-09-01T19:58:34Z</time>
  <course>63.04</course>
  <speed>24.49</speed>
  <fix>3d</fix>
</trkpt>
<trkpt lat="-27.2728677" lon="151.276372">
  <ele>371.77</ele>
  <time>2026-09-01T19:58:34Z</time>
  <course>64.26</course>
  <speed>24.55001832993206</speed>
  <fix>3d</fix>
</trkpt>
<trkpt lat="-27.2728939" lon="151.2763086">
  <ele>371.99</ele>
  <time>2026-09-01T19:58:34Z</time>
  <course>63.04</course>
  <speed>24.49</speed>
  <fix>3d</fix>
</trkpt>
<trkpt lat="-27.2728595" lon="151.276395">
  <ele>371.59</ele>
  <time>2026-09-01T19:58:34Z</time>
  <course>65.76</course>
  <speed>24.574380968805702</speed>
  <fix>3d</fix>
</trkpt>
<trkpt lat="-27.272875" lon="151.2763533">
  <ele>371.7</ele>
  <time>2026-09-01T19:58:34Z</time>
  <course>66.05</course>
  <speed>24.52</speed>
  <fix>3d</fix>
</trkpt>
<trkpt lat="-27.2728517" lon="151.2764183">
  <ele>371.4</ele>
  <time>2026-09-01T19:58:34Z</time>
  <course>67.26</course>
  <speed>24.618515389844287</speed>
  <fix>3d</fix>
</trkpt>
<trkpt lat="-27.272875" lon="151.2763533">
  <ele>371.7</ele>
  <time>2026-09-01T19:58:34Z</time>
  <course>66.05</course>
  <speed>24.52</speed>
  <fix>3d</fix>
</trkpt>
<trkpt lat="-27.2728445" lon="151.276442">
  <ele>371.2</ele>
  <time>2026-09-01T19:58:34Z</time>
  <course>68.76</course>
  <speed>24.665846833222655</speed>
  <fix>3d</fix>
</trkpt>
<trkpt lat="-27.2728581" lon="151.2763992">
  <ele>371.36</ele>
  <time>2026-09-01T19:58:34Z</time>
  <course>69.03</course>
  <speed>24.57</speed>
  <fix>3d</fix>
</trkpt>
<trkpt lat="-27.2728377" lon="151.276466">
  <ele>371.0</ele>
  <time>2026-09-01T19:58:34Z</time>
  <course>70.26</course>
  <speed>24.719652101111777</speed>
  <fix>3d</fix>
</trkpt>
<trkpt lat="-27.2728581" lon="151.2763992">
  <ele>371.36</ele>
  <time>2026-09-01T19:58:34Z</time>
  <course>69.03</course>
  <speed>24.57</speed>
  <fix>3d</fix>
</trkpt>
<trkpt lat="-27.2728316" lon="151.27649">
  <ele>370.8</ele>
  <time>2026-09-01T19:58:34Z</time>
  <course>71.71</course>
  <speed>24.775278000458442</speed>
  <fix>3d</fix>
</trkpt>
<trkpt lat="-27.2728433" lon="151.2764462">
  <ele>370.99</ele>
  <time>2026-09-01T19:58:34Z</time>
  <course>71.93</course>
  <speed>24.65</speed>
  <fix>3d</fix>
</trkpt>
<trkpt lat="-27.2728259" lon="151.2765143">
  <ele>370.61</ele>
  <time>2026-09-01T19:58:34Z</time>
  <course>73.06</course>
  <speed>24.828388993247227</speed>
  <fix>3d</fix>
</trkpt>
<trkpt lat="-27.2728433" lon="151.2764462">
  <ele>370.99</ele>
  <time>2026-09-01T19:58:34Z</time>
  <course>71.93</course>
  <speed>24.65</speed>
  <fix>3d</fix>
</trkpt>
<trkpt lat="-27.2728207" lon="151.2765387">
  <ele>370.41</ele>
  <time>2026-09-01T19:58:34Z</time>
  <course>74.37</course>
  <speed>24.889823221549804</speed>
  <fix>3d</fix>
</trkpt>
<trkpt lat="-27.2728306" lon="151.276494">
  <ele>370.61</ele>
  <time>2026-09-01T19:58:34Z</time>
  <course>74.74</course>
  <speed>24.75</speed>
  <fix>3d</fix>
</trkpt>
<trkpt lat="-27.272816" lon="151.2765633">
  <ele>370.22</ele>
  <time>2026-09-01T19:58:34Z</time>
  <course>75.64</course>
  <speed>24.948220377413694</speed>
  <fix>3d</fix>
</trkpt>
<trkpt lat="-27.2728306" lon="151.276494">
  <ele>370.61</ele>
  <time>2026-09-01T19:58:34Z</time>
  <course>74.74</course>
  <speed>24.75</speed>
  <fix>3d</fix>
</trkpt>
<trkpt lat="-27.2728117" lon="151.276588">
  <ele>370.04</ele>
  <time>2026-09-01T19:58:34Z</time>
  <course>76.82</course>
  <speed>25.011805212739045</speed>
  <fix>3d</fix>
</trkpt>
<trkpt lat="-27.2728199" lon="151.2765427">
  <ele>370.24</ele>
  <time>2026-09-01T19:58:34Z</time>
  <course>77.36</course>
  <speed>24.86</speed>
  <fix>3d</fix>
</trkpt>
<trkpt lat="-27.2728079" lon="151.276613">
  <ele>369.87</ele>
  <time>2026-09-01T19:58:34Z</time>
  <course>78.03</course>
  <speed>25.06930593375094</speed>
  <fix>3d</fix>
</trkpt>
<trkpt lat="-27.2728199" lon="151.2765427">
  <ele>370.24</ele>
  <time>2026-09-01T19:58:34Z</time>
  <course>77.36</course>
  <speed>24.86</speed>
  <fix>3d</fix>
</trkpt>
<trkpt lat="-27.2728044" lon="151.276638">
  <ele>369.7</ele>
  <time>2026-09-01T19:58:34Z</time>
  <course>79.13</course>
  <speed>25.129204125877127</speed>
  <fix>3d</fix>
</trkpt>
<trkpt lat="-27.2728111" lon="151.276592">
  <ele>369.89</ele>
  <time>2026-09-01T19:58:34Z</time>
  <course>79.74</course>
  <speed>24.98</speed>
  <fix>3d</fix>
</trkpt>
<trkpt lat="-27.2728014" lon="151.2766632">
  <ele>369.55</ele>
  <time>2026-09-01T19:58:34Z</time>
  <course>80.1</course>
  <speed>25.182861235371966</speed>
  <fix>3d</fix>
</trkpt>
<trkpt lat="-27.2728111" lon="151.276592">
  <ele>369.89</ele>
  <time>2026-09-01T19:58:34Z</time>
  <course>79.74</course>
  <speed>24.98</speed>
  <fix>3d</fix>
</trkpt>
<trkpt lat="-27.2727987" lon="151.2766884">
  <ele>369.4</ele>
  <time>2026-09-01T19:58:34Z</time>
  <course>81.05</course>
  <speed>25.238042713332582</speed>
  <fix>3d</fix>
</trkpt>
<trkpt lat="-27.2728039" lon="151.276642">
  <ele>369.56</ele>
  <time>2026-09-01T19:58:34Z</time>
  <course>81.88</course>
  <speed>25.09</speed>
  <fix>3d</fix>
</trkpt>
<trkpt lat="-27.2727963" lon="151.2767138">
  <ele>369.27</ele>
  <time>2026-09-01T19:58:34Z</time>
  <course>82.01</course>
  <speed>25.28992882552262</speed>
  <fix>3d</fix>
</trkpt>
<trkpt lat="-27.2728039" lon="151.276642">
  <ele>369.56</ele>
  <time>2026-09-01T19:58:34Z</time>
  <course>81.88</course>
  <speed>25.09</speed>
  <fix>3d</fix>
</trkpt>
<trkpt lat="-27.2727943" lon="151.2767393">
  <ele>369.14</ele>
  <time>2026-09-01T19:58:34Z</time>
  <course>82.92</course>
  <speed>25.349644967928054</speed>
  <fix>3d</fix>
</trkpt>
<trkpt lat="-27.2727983" lon="151.2766925">
  <ele>369.27</ele>
  <time>2026-09-01T19:58:34Z</time>
  <course>83.73</course>
  <speed>25.2</speed>
  <fix>3d</fix>
</trkpt>
<trkpt lat="-27.2727925" lon="151.2767648">
  <ele>369.03</ele>
  <time>2026-09-01T19:58:34Z</time>
  <course>83.7</course>
  <speed>25.396019373122236</speed>
  <fix>3d</fix>
</trkpt>
<trkpt lat="-27.2727983" lon="151.2766925">
  <ele>369.27</ele>
  <time>2026-09-01T19:58:34Z</time>
  <course>83.73</course>
  <speed>25.2</speed>
  <fix>3d</fix>
</trkpt>
<trkpt lat="-27.272791" lon="151.2767904">
  <ele>368.92</ele>
  <time>2026-09-01T19:58:34Z</time>
  <course>84.38</course>
  <speed>25.43787923550232</speed>
  <fix>3d</fix>
</trkpt>
<trkpt lat="-27.2727939" lon="151.2767433">
  <ele>369.02</ele>
  <time>2026-09-01T19:58:34Z</time>
  <course>85.29</course>
  <speed>25.31</speed>
  <fix>3d</fix>
</trkpt>
<trkpt lat="-27.2727897" lon="151.2768161">
  <ele>368.83</ele>
  <time>2026-09-01T19:58:34Z</time>
  <course>85.0</course>
  <speed>25.483692825020476</speed>
  <fix>3d</fix>
</trkpt>
<trkpt lat="-27.2727939" lon="151.2767433">
  <ele>369.02</ele>
  <time>2026-09-01T19:58:34Z</time>
  <course>85.29</course>
  <speed>25.31</speed>
  <fix>3d</fix>
</trkpt>
<trkpt lat="-27.2727886" lon="151.2768415">
  <ele>368.74</ele>
  <time>2026-09-01T19:58:34Z</time>
  <course>85.55</course>
  <speed>25.523285446822868</speed>
  <fix>3d</fix>
</trkpt>
<trkpt lat="-27.2727907" lon="151.2767943">
  <ele>368.82</ele>
  <time>2026-09-01T19:58:34Z</time>
  <course>86.6</course>
  <speed>25.4</speed>
  <fix>3d</fix>
</trkpt>
<trkpt lat="-27.2727877" lon="151.2768673">
  <ele>368.66</ele>
  <time>2026-09-01T19:58:34Z</time>
  <course>86.15</course>
  <speed>25.565496279165007</speed>
  <fix>3d</fix>
</trkpt>
<trkpt lat="-27.2727907" lon="151.2767943">
  <ele>368.82</ele>
  <time>2026-09-01T19:58:34Z</time>
  <course>86.6</course>
  <speed>25.4</speed>
  <fix>3d</fix>
</trkpt>
<trkpt lat="-27.272787" lon="151.2768931">
  <ele>368.59</ele>
  <time>2026-09-01T19:58:34Z</time>
  <course>86.68</course>
  <speed>25.599572262051566</speed>
  <fix>3d</fix>
</trkpt>
<trkpt lat="-27.2727885" lon="151.2768457">
  <ele>368.65</ele>
  <time>2026-09-01T19:58:34Z</time>
  <course>87.66</course>
  <speed>25.48</speed>
  <fix>3d</fix>
</trkpt>
<trkpt lat="-27.2727865" lon="151.2769189">
  <ele>368.54</ele>
  <time>2026-09-01T19:58:34Z</time>
  <course>87.11</course>
  <speed>25.625690234606363</speed>
  <fix>3d</fix>
</trkpt>
<trkpt lat="-27.2727885" lon="151.2768457">
  <ele>368.65</ele>
  <time>2026-09-01T19:58:34Z</time>
  <course>87.66</course>
  <speed>25.48</speed>
  <fix>3d</fix>
</trkpt>
<trkpt lat="-27.2727861" lon="151.2769448">
  <ele>368.5</ele>
  <time>2026-09-01T19:58:34Z</time>
  <course>87.5</course>
  <speed>25.653118718783492</speed>
  <fix>3d</fix>
</trkpt>
<trkpt lat="-27.272787" lon="151.2768974">
  <ele>368.51</ele>
  <time>2026-09-01T19:58:34Z</time>
  <course>88.52</course>
  <speed>25.55</speed>
  <fix>3d</fix>
</trkpt>
<trkpt lat="-27.2727858" lon="151.2769709">
  <ele>368.47</ele>
  <time>2026-09-01T19:58:34Z</time>
  <course>87.91</course>
  <speed>25.681526434384697</speed>
  <fix>3d</fix>
</trkpt>
<trkpt lat="-27.272787" lon="151.2768974">
  <ele>368.51</ele>
  <time>2026-09-01T19:58:34Z</time>
  <course>88.52</course>
  <speed>25.55</speed>
  <fix>3d</fix>
</trkpt>
<trkpt lat="-27.2727856" lon="151.2769968">
  <ele>368.45</ele>
  <time>2026-09-01T19:58:34Z</time>
  <course>88.2</course>
  <speed>25.700562250659033</speed>
  <fix>3d</fix>
</trkpt>
<trkpt lat="-27.2727861" lon="151.2769492">
  <ele>368.43</ele>
  <time>2026-09-01T19:58:34Z</time>
  <course>89.19</course>
  <speed>25.62</speed>
  <fix>3d</fix>
</trkpt>
<trkpt lat="-27.2727855" lon="151.2770228">
  <ele>368.44</ele>
  <time>2026-09-01T19:58:34Z</time>
  <course>88.47</course>
  <speed>25.720157464525755</speed>
  <fix>3d</fix>
</trkpt>
<trkpt lat="-27.2727861" lon="151.2769492">
  <ele>368.43</ele>
  <time>2026-09-01T19:58:34Z</time>
  <course>89.19</course>
  <speed>25.62</speed>
  <fix>3d</fix>
</trkpt>
<trkpt lat="-27.2727854" lon="151.2770496">
  <ele>368.44</ele>
  <time>2026-09-01T19:58:34Z</time>
  <course>88.69</course>
  <speed>25.730001943256823</speed>
  <fix>3d</fix>
</trkpt>
<trkpt lat="-27.2727856" lon="151.2770009">
  <ele>368.38</ele>
  <time>2026-09-01T19:58:34Z</time>
  <course>89.68</course>
  <speed>25.66</speed>
  <fix>3d</fix>
</trkpt>
<trkpt lat="-27.2727854" lon="151.2770754">
  <ele>368.45</ele>
  <time>2026-09-01T19:58:34Z</time>
  <course>88.9</course>
  <speed>25.750017475722224</speed>
  <fix>3d</fix>
</trkpt>
<trkpt lat="-27.2727856" lon="151.2770009">
  <ele>368.38</ele>
  <time>2026-09-01T19:58:34Z</time>
  <course>89.68</course>
  <speed>25.66</speed>
  <fix>3d</fix>
</trkpt>
<trkpt lat="-27.2727855" lon="151.2771013">
  <ele>368.46</ele>
  <time>2026-09-01T19:58:34Z</time>
  <course>89.12</course>
  <speed>25.76012422330296</speed>
  <fix>3d</fix>
</trkpt>
<trkpt lat="-27.2727855" lon="151.2770529">
  <ele>368.37</ele>
  <time>2026-09-01T19:58:34Z</time>
  <course>90.02</course>
  <speed>25.7</speed>
  <fix>3d</fix>
</trkpt>
<trkpt lat="-27.2727856" lon="151.2771274">
  <ele>368.48</ele>
  <time>2026-09-01T19:58:34Z</time>
  <course>89.31</course>
  <speed>25.770279393130373</speed>
  <fix>3d</fix>
</trkpt>
<trkpt lat="-27.2727855" lon="151.2770529">
  <ele>368.37</ele>
  <time>2026-09-01T19:58:34Z</time>
  <course>90.02</course>
  <speed>25.7</speed>
  <fix>3d</fix>
</trkpt>
<trkpt lat="-27.2727858" lon="151.2771534">
  <ele>368.51</ele>
  <time>2026-09-01T19:58:34Z</time>
  <course>89.39</course>
  <speed>25.780496504140487</speed>
  <fix>3d</fix>
</trkpt>
<trkpt lat="-27.2727856" lon="151.2771048">
  <ele>368.39</ele>
  <time>2026-09-01T19:58:34Z</time>
  <course>90.24</course>
  <speed>25.73</speed>
  <fix>3d</fix>
</trkpt>
<trkpt lat="-27.2727858" lon="151.277179">
  <ele>368.54</ele>
  <time>2026-09-01T19:58:34Z</time>
  <course>89.5</course>
  <speed>25.79062814279637</speed>
  <fix>3d</fix>
</trkpt>
<trkpt lat="-27.2727856" lon="151.2771048">
  <ele>368.39</ele>
  <time>2026-09-01T19:58:34Z</time>
  <course>90.24</course>
  <speed>25.73</speed>
  <fix>3d</fix>
</trkpt>
<trkpt lat="-27.272786" lon="151.277205">
  <ele>368.58</ele>
  <time>2026-09-01T19:58:34Z</time>
  <course>89.59</course>
  <speed>25.79085496837978</speed>
  <fix>3d</fix>
</trkpt>
<trkpt lat="-27.2727858" lon="151.2771569">
  <ele>368.44</ele>
  <time>2026-09-01T19:58:34Z</time>
  <course>90.4</course>
  <speed>25.75</speed>
  <fix>3d</fix>
</trkpt>
<trkpt lat="-27.2727862" lon="151.277231">
  <ele>368.62</ele>
  <time>2026-09-01T19:58:34Z</time>
  <course>89.67</course>
  <speed>25.790938331127077</speed>
  <fix>3d</fix>
</trkpt>
<trkpt lat="-27.2727858" lon="151.2771569">
  <ele>368.44</ele>
  <time>2026-09-01T19:58:34Z</time>
  <course>90.4</course>
  <speed>25.75</speed>
  <fix>3d</fix>
</trkpt>
<trkpt lat="-27.2727864" lon="151.2772569">
  <ele>368.67</ele>
  <time>2026-09-01T19:58:34Z</time>
  <course>89.74</course>
  <speed>25.78102596872359</speed>
  <fix>3d</fix>
</trkpt>
<trkpt lat="-27.2727862" lon="151.2772089">
  <ele>368.51</ele>
  <time>2026-09-01T19:58:34Z</time>
  <course>90.49</course>
  <speed>25.76</speed>
  <fix>3d</fix>
</trkpt>
<trkpt lat="-27.2727867" lon="151.2772829">
  <ele>368.73</ele>
  <time>2026-09-01T19:58:34Z</time>
  <course>89.7</course>
  <speed>25.781117120869684</speed>
  <fix>3d</fix>
</trkpt>
<trkpt lat="-27.2727862" lon="151.2772089">
  <ele>368.51</ele>
  <time>2026-09-01T19:58:34Z</time>
  <course>90.49</course>
  <speed>25.76</speed>
  <fix>3d</fix>
</trkpt>
<trkpt lat="-27.2727869" lon="151.2773087">
  <ele>368.8</ele>
  <time>2026-09-01T19:58:34Z</time>
  <course>89.65</course>
  <speed>25.771117554347544</speed>
  <fix>3d</fix>
</trkpt>
<trkpt lat="-27.2727865" lon="151.277261">
  <ele>368.61</ele>
  <time>2026-09-01T19:58:34Z</time>
  <course>90.54</course>
  <speed>25.77</speed>
  <fix>3d</fix>
</trkpt>
<trkpt lat="-27.2727871" lon="151.2773346">
  <ele>368.87</ele>
  <time>2026-09-01T19:58:34Z</time>
  <course>89.69</course>
  <speed>25.760939423864183</speed>
  <fix>3d</fix>
</trkpt>
<trkpt lat="-27.2727865" lon="151.277261">
  <ele>368.61</ele>
  <time>2026-09-01T19:58:34Z</time>
  <course>90.54</course>
  <speed>25.77</speed>
  <fix>3d</fix>
</trkpt>
<trkpt lat="-27.2727873" lon="151.2773604">
  <ele>368.94</ele>
  <time>2026-09-01T19:58:34Z</time>
  <course>89.78</course>
  <speed>25.740856629102304</speed>
  <fix>3d</fix>
</trkpt>
<trkpt lat="-27.272787" lon="151.2773131">
  <ele>368.73</ele>
  <time>2026-09-01T19:58:34Z</time>
  <course>90.52</course>
  <speed>25.76</speed>
  <fix>3d</fix>
</trkpt>
<trkpt lat="-27.2727875" lon="151.2773861">
  <ele>369.0</ele>
  <time>2026-09-01T19:58:34Z</time>
  <course>89.8</course>
  <speed>25.7308569620213</speed>
  <fix>3d</fix>
</trkpt>
<trkpt lat="-27.272787" lon="151.2773131">
  <ele>368.73</ele>
  <time>2026-09-01T19:58:34Z</time>
  <course>90.52</course>
  <speed>25.76</speed>
  <fix>3d</fix>
</trkpt>
<trkpt lat="-27.2727877" lon="151.277412">
  <ele>369.07</ele>
  <time>2026-09-01T19:58:34Z</time>
  <course>89.74</course>
  <speed>25.720777593222177</speed>
  <fix>3d</fix>
</trkpt>
<trkpt lat="-27.2727874" lon="151.2773651">
  <ele>368.86</ele>
  <time>2026-09-01T19:58:34Z</time>
  <course>90.47</course>
  <speed>25.75</speed>
  <fix>3d</fix>
</trkpt>
<trkpt lat="-27.2727879" lon="151.277438">
  <ele>369.14</ele>
  <time>2026-09-01T19:58:34Z</time>
  <course>89.69</course>
  <speed>25.71063009729633</speed>
  <fix>3d</fix>
</trkpt>
<trkpt lat="-27.2727874" lon="151.2773651">
  <ele>368.86</ele>
  <time>2026-09-01T19:58:34Z</time>
  <course>90.47</course>
  <speed>25.75</speed>
  <fix>3d</fix>
</trkpt>
<trkpt lat="-27.272788" lon="151.277464">
  <ele>369.21</ele>
  <time>2026-09-01T19:58:34Z</time>
  <course>89.67</course>
  <speed>25.700562250659033</speed>
  <fix>3d</fix>
</trkpt>
<trkpt lat="-27.2727877" lon="151.2774172">
  <ele>369.0</ele>
  <time>2026-09-01T19:58:34Z</time>
  <course>90.42</course>
  <speed>25.74</speed>
  <fix>3d</fix>
</trkpt>
<trkpt lat="-27.2727882" lon="151.2774902">
  <ele>369.28</ele>
  <time>2026-09-01T19:58:34Z</time>
  <course>89.61</course>
  <speed>25.70043773946273</speed>
  <fix>3d</fix>
</trkpt>
<trkpt lat="-27.2727877" lon="151.2774172">
  <ele>369.0</ele>
  <time>2026-09-01T19:58:34Z</time>
  <course>90.42</course>
  <speed>25.74</speed>
  <fix>3d</fix>
</trkpt>
<trkpt lat="-27.2727883" lon="151.2775163">
  <ele>369.35</ele>
  <time>2026-09-01T19:58:34Z</time>
  <course>89.57</course>
  <speed>25.690328919653794</speed>
  <fix>3d</fix>
</trkpt>
<trkpt lat="-27.2727881" lon="151.2774692">
  <ele>369.14</ele>
  <time>2026-09-01T19:58:34Z</time>
  <course>90.34</course>
  <speed>25.72</speed>
  <fix>3d</fix>
</trkpt>
<trkpt lat="-27.2727884" lon="151.2775423">
  <ele>369.43</ele>
  <time>2026-09-01T19:58:34Z</time>
  <course>89.49</course>
  <speed>25.68019470331173</speed>
  <fix>3d</fix>
</trkpt>
<trkpt lat="-27.2727881" lon="151.2774692">
  <ele>369.14</ele>
  <time>2026-09-01T19:58:34Z</time>
  <course>90.34</course>
  <speed>25.72</speed>
  <fix>3d</fix>
</trkpt>
<trkpt lat="-27.2727885" lon="151.2775692">
  <ele>369.5</ele>
  <time>2026-09-01T19:58:34Z</time>
  <course>89.45</course>
  <speed>25.680124610289567</speed>
  <fix>3d</fix>
</trkpt>
<trkpt lat="-27.2727883" lon="151.2775213">
  <ele>369.29</ele>
  <time>2026-09-01T19:58:34Z</time>
  <course>90.24</course>
  <speed>25.69</speed>
  <fix>3d</fix>
</trkpt>
<trkpt lat="-27.2727885" lon="151.2775953">
  <ele>369.58</ele>
  <time>2026-09-01T19:58:34Z</time>
  <course>89.44</course>
  <speed>25.670048694928493</speed>
  <fix>3d</fix>
</trkpt>
<trkpt lat="-27.2727883" lon="151.2775213">
  <ele>369.29</ele>
  <time>2026-09-01T19:58:34Z</time>
  <course>90.24</course>
  <speed>25.69</speed>
  <fix>3d</fix>
</trkpt>
<trkpt lat="-27.2727885" lon="151.2776209">
  <ele>369.66</ele>
  <time>2026-09-01T19:58:34Z</time>
  <course>89.48</course>
  <speed>25.65001754385365</speed>
  <fix>3d</fix>
</trkpt>
<trkpt lat="-27.2727885" lon="151.2775732">
  <ele>369.44</ele>
  <time>2026-09-01T19:58:34Z</time>
  <course>90.13</course>
  <speed>25.67</speed>
  <fix>3d</fix>
</trkpt>
<trkpt lat="-27.2727886" lon="151.2776468">
  <ele>369.73</ele>
  <time>2026-09-01T19:58:34Z</time>
  <course>89.47</course>
  <speed>25.630007803354257</speed>
  <fix>3d</fix>
</trkpt>
<trkpt lat="-27.2727885" lon="151.2775732">
  <ele>369.44</ele>
  <time>2026-09-01T19:58:34Z</time>
  <course>90.13</course>
  <speed>25.67</speed>
  <fix>3d</fix>
</trkpt>
<trkpt lat="-27.2727886" lon="151.2776726">
  <ele>369.81</ele>
  <time>2026-09-01T19:58:34Z</time>
  <course>89.39</course>
  <speed>25.610001952362285</speed>
  <fix>3d</fix>
</trkpt>
<trkpt lat="-27.2727886" lon="151.2776251">
  <ele>369.59</ele>
  <time>2026-09-01T19:58:34Z</time>
  <course>90.03</course>
  <speed>25.64</speed>
  <fix>3d</fix>
</trkpt>
<trkpt lat="-27.2727886" lon="151.2776984">
  <ele>369.89</ele>
  <time>2026-09-01T19:58:34Z</time>
  <course>89.35</course>
  <speed>25.6</speed>
  <fix>3d</fix>
</trkpt>
<trkpt lat="-27.2727886" lon="151.2776251">
  <ele>369.59</ele>
  <time>2026-09-01T19:58:34Z</time>
  <course>90.03</course>
  <speed>25.64</speed>
  <fix>3d</fix>
</trkpt>
<trkpt lat="-27.2727885" lon="151.2777243">
  <ele>369.97</ele>
  <time>2026-09-01T19:58:34Z</time>
  <course>89.32</course>
  <speed>25.58000781860709</speed>
  <fix>3d</fix>
</trkpt>
<trkpt lat="-27.2727886" lon="151.2776768">
  <ele>369.76</ele>
  <time>2026-09-01T19:58:34Z</time>
  <course>89.95</course>
  <speed>25.61</speed>
  <fix>3d</fix>
</trkpt>
<trkpt lat="-27.2727885" lon="151.27775">
  <ele>370.04</ele>
  <time>2026-09-01T19:58:34Z</time>
  <course>89.26</course>
  <speed>25.560017605627742</speed>
  <fix>3d</fix>
</trkpt>
<trkpt lat="-27.2727886" lon="151.2776768">
  <ele>369.76</ele>
  <time>2026-09-01T19:58:34Z</time>
  <course>89.95</course>
  <speed>25.61</speed>
  <fix>3d</fix>
</trkpt>
<trkpt lat="-27.2727885" lon="151.2777757">
  <ele>370.11</ele>
  <time>2026-09-01T19:58:34Z</time>
  <course>89.16</course>
  <speed>25.540048942787877</speed>
  <fix>3d</fix>
</trkpt>
<trkpt lat="-27.2727886" lon="151.2777285">
  <ele>369.91</ele>
  <time>2026-09-01T19:58:34Z</time>
  <course>89.87</course>
  <speed>25.58</speed>
  <fix>3d</fix>
</trkpt>
<trkpt lat="-27.2727885" lon="151.2778014">
  <ele>370.18</ele>
  <time>2026-09-01T19:58:34Z</time>
  <course>89.09</course>
  <speed>25.530095965350384</speed>
  <fix>3d</fix>
</trkpt>
<trkpt lat="-27.2727886" lon="151.2777285">
  <ele>369.91</ele>
  <time>2026-09-01T19:58:34Z</time>
  <course>89.87</course>
  <speed>25.58</speed>
  <fix>3d</fix>
</trkpt>
<trkpt lat="-27.2727884" lon="151.277827">
  <ele>370.24</ele>
  <time>2026-09-01T19:58:34Z</time>
  <course>89.05</course>
  <speed>25.510196000815043</speed>
  <fix>3d</fix>
</trkpt>
<trkpt lat="-27.2727885" lon="151.2777802">
  <ele>370.06</ele>
  <time>2026-09-01T19:58:34Z</time>
  <course>89.79</course>
  <speed>25.56</speed>
  <fix>3d</fix>
</trkpt>
<trkpt lat="-27.2727883" lon="151.2778527">
  <ele>370.31</ele>
  <time>2026-09-01T19:58:34Z</time>
  <course>89.01</course>
  <speed>25.490237346874586</speed>
  <fix>3d</fix>
</trkpt>
<trkpt lat="-27.2727885" lon="151.2777802">
  <ele>370.06</ele>
  <time>2026-09-01T19:58:34Z</time>
  <course>89.79</course>
  <speed>25.56</speed>
  <fix>3d</fix>
</trkpt>
<trkpt lat="-27.2727882" lon="151.2778784">
  <ele>370.38</ele>
  <time>2026-09-01T19:58:34Z</time>
  <course>89.02</course>
  <speed>25.48033163049492</speed>
  <fix>3d</fix>
</trkpt>
<trkpt lat="-27.2727882" lon="151.2778319">
  <ele>370.19</ele>
  <time>2026-09-01T19:58:34Z</time>
  <course>89.69</course>
  <speed>25.53</speed>
  <fix>3d</fix>
</trkpt>
<trkpt lat="-27.272788" lon="151.2779034">
  <ele>370.44</ele>
  <time>2026-09-01T19:58:34Z</time>
  <course>88.95</course>
  <speed>25.460441865765016</speed>
  <fix>3d</fix>
</trkpt>
<trkpt lat="-27.2727882" lon="151.2778319">
  <ele>370.19</ele>
  <time>2026-09-01T19:58:34Z</time>
  <course>89.69</course>
  <speed>25.53</speed>
  <fix>3d</fix>
</trkpt>
<trkpt lat="-27.2727879" lon="151.277929">
  <ele>370.5</ele>
  <time>2026-09-01T19:58:34Z</time>
  <course>88.88</course>
  <speed>25.4605675506262</speed>
  <fix>3d</fix>
</trkpt>
<trkpt lat="-27.2727879" lon="151.2778834">
  <ele>370.32</ele>
  <time>2026-09-01T19:58:34Z</time>
  <course>89.61</course>
  <speed>25.5</speed>
  <fix>3d</fix>
</trkpt>
<trkpt lat="-27.2727877" lon="151.2779547">
  <ele>370.56</ele>
  <time>2026-09-01T19:58:34Z</time>
  <course>88.87</course>
  <speed>25.45063653427945</speed>
  <fix>3d</fix>
</trkpt>
<trkpt lat="-27.2727879" lon="151.2778834">
  <ele>370.32</ele>
  <time>2026-09-01T19:58:34Z</time>
  <course>89.61</course>
  <speed>25.5</speed>
  <fix>3d</fix>
</trkpt>
<trkpt lat="-27.2727875" lon="151.2779805">
  <ele>370.62</ele>
  <time>2026-09-01T19:58:34Z</time>
  <course>88.8</course>
  <speed>25.440786151375118</speed>
  <fix>3d</fix>
</trkpt>
<trkpt lat="-27.2727876" lon="151.2779349">
  <ele>370.45</ele>
  <time>2026-09-01T19:58:34Z</time>
  <course>89.53</course>
  <speed>25.48</speed>
  <fix>3d</fix>
</trkpt>
<trkpt lat="-27.2727873" lon="151.2780062">
  <ele>370.67</ele>
  <time>2026-09-01T19:58:34Z</time>
  <course>88.72</course>
  <speed>25.430867071336753</speed>
  <fix>3d</fix>
</trkpt>
<trkpt lat="-27.2727876" lon="151.2779349">
  <ele>370.45</ele>
  <time>2026-09-01T19:58:34Z</time>
  <course>89.53</course>
  <speed>25.48</speed>
  <fix>3d</fix>
</trkpt>
<trkpt lat="-27.272787" lon="151.2780321">
  <ele>370.72</ele>
  <time>2026-09-01T19:58:34Z</time>
  <course>88.67</course>
  <speed>25.421132940921417</speed>
  <fix>3d</fix>
</trkpt>
<trkpt lat="-27.2727872" lon="151.2779865">
  <ele>370.56</ele>
  <time>2026-09-01T19:58:34Z</time>
  <course>89.46</course>
  <speed>25.46</speed>
  <fix>3d</fix>
</trkpt>
<trkpt lat="-27.2727868" lon="151.2780578">
  <ele>370.77</ele>
  <time>2026-09-01T19:58:34Z</time>
  <course>88.66</course>
  <speed>25.411330150151525</speed>
  <fix>3d</fix>
</trkpt>
<trkpt lat="-27.2727872" lon="151.2779865">
  <ele>370.56</ele>
  <time>2026-09-01T19:58:34Z</time>
  <course>89.46</course>
  <speed>25.46</speed>
  <fix>3d</fix>
</trkpt>
<trkpt lat="-27.2727865" lon="151.2780835">
  <ele>370.82</ele>
  <time>2026-09-01T19:58:34Z</time>
  <course>88.64</course>
  <speed>25.40143499883422</speed>
  <fix>3d</fix>
</trkpt>
<trkpt lat="-27.2727867" lon="151.2780381">
  <ele>370.66</ele>
  <time>2026-09-01T19:58:34Z</time>
  <course>89.38</course>
  <speed>25.44</speed>
  <fix>3d</fix>
</trkpt>
<trkpt lat="-27.2727862" lon="151.2781101">
  <ele>370.87</ele>
  <time>2026-09-01T19:58:34Z</time>
  <course>88.6</course>
  <speed>25.39154386798881</speed>
  <fix>3d</fix>
</trkpt>
<trkpt lat="-27.2727867" lon="151.2780381">
  <ele>370.66</ele>
  <time>2026-09-01T19:58:34Z</time>
  <course>89.38</course>
  <speed>25.44</speed>
  <fix>3d</fix>
</trkpt>
<trkpt lat="-27.272786" lon="151.2781355">
  <ele>370.92</ele>
  <time>2026-09-01T19:58:34Z</time>
  <course>88.49</course>
  <speed>25.381772987716996</speed>
  <fix>3d</fix>
</trkpt>
<trkpt lat="-27.2727862" lon="151.2780894">
  <ele>370.76</ele>
  <time>2026-09-01T19:58:34Z</time>
  <course>89.3</course>
  <speed>25.41</speed>
  <fix>3d</fix>
</trkpt>
<trkpt lat="-27.2727856" lon="151.2781612">
  <ele>370.96</ele>
  <time>2026-09-01T19:58:34Z</time>
  <course>88.42</course>
  <speed>25.382017256317514</speed>
  <fix>3d</fix>
</trkpt>
<trkpt lat="-27.2727862" lon="151.2780894">
  <ele>370.76</ele>
  <time>2026-09-01T19:58:34Z</time>
  <course>89.3</course>
  <speed>25.41</speed>
  <fix>3d</fix>
</trkpt>
<trkpt lat="-27.2727853" lon="151.2781869">
  <ele>371.01</ele>
  <time>2026-09-01T19:58:34Z</time>
  <course>88.44</course>
  <speed>25.37214614493618</speed>
  <fix>3d</fix>
</trkpt>
<trkpt lat="-27.2727857" lon="151.2781407">
  <ele>370.86</ele>
  <time>2026-09-01T19:58:34Z</time>
  <course>89.23</course>
  <speed>25.39</speed>
  <fix>3d</fix>
</trkpt>
<trkpt lat="-27.272785" lon="151.2782126">
  <ele>371.05</ele>
  <time>2026-09-01T19:58:34Z</time>
  <course>88.42</course>
  <speed>25.372278179146623</speed>
  <fix>3d</fix>
</trkpt>
<trkpt lat="-27.2727857" lon="151.2781407">
  <ele>370.86</ele>
  <time>2026-09-01T19:58:34Z</time>
  <course>89.23</course>
  <speed>25.39</speed>
  <fix>3d</fix>
</trkpt>
<trkpt lat="-27.2727847" lon="151.2782383">
  <ele>371.09</ele>
  <time>2026-09-01T19:58:34Z</time>
  <course>88.41</course>
  <speed>25.37255406930883</speed>
  <fix>3d</fix>
</trkpt>
<trkpt lat="-27.272785" lon="151.278192">
  <ele>370.95</ele>
  <time>2026-09-01T19:58:34Z</time>
  <course>89.17</course>
  <speed>25.38</speed>
  <fix>3d</fix>
</trkpt>
<trkpt lat="-27.2727843" lon="151.2782642">
  <ele>371.13</ele>
  <time>2026-09-01T19:58:34Z</time>
  <course>88.34</course>
  <speed>25.36269898886946</speed>
  <fix>3d</fix>
</trkpt>
<trkpt lat="-27.272785" lon="151.278192">
  <ele>370.95</ele>
  <time>2026-09-01T19:58:34Z</time>
  <course>89.17</course>
  <speed>25.38</speed>
  <fix>3d</fix>
</trkpt>
<trkpt lat="-27.2727839" lon="151.2782898">
  <ele>371.17</ele>
  <time>2026-09-01T19:58:34Z</time>
  <course>88.33</course>
  <speed>25.36299863975078</speed>
  <fix>3d</fix>
</trkpt>
<trkpt lat="-27.2727843" lon="151.2782433">
  <ele>371.03</ele>
  <time>2026-09-01T19:58:34Z</time>
  <course>89.11</course>
  <speed>25.37</speed>
  <fix>3d</fix>
</trkpt>
<trkpt lat="-27.2727835" lon="151.2783155">
  <ele>371.21</ele>
  <time>2026-09-01T19:58:34Z</time>
  <course>88.31</course>
  <speed>25.353155622131144</speed>
  <fix>3d</fix>
</trkpt>
<trkpt lat="-27.2727843" lon="151.2782433">
  <ele>371.03</ele>
  <time>2026-09-01T19:58:34Z</time>
  <course>89.11</course>
  <speed>25.37</speed>
  <fix>3d</fix>
</trkpt>
<trkpt lat="-27.2727832" lon="151.2783411">
  <ele>371.24</ele>
  <time>2026-09-01T19:58:34Z</time>
  <course>88.3</course>
  <speed>25.353155622131144</speed>
  <fix>3d</fix>
</trkpt>
<trkpt lat="-27.2727836" lon="151.2782945">
  <ele>371.12</ele>
  <time>2026-09-01T19:58:34Z</time>
  <course>89.06</course>
  <speed>25.35</speed>
  <fix>3d</fix>
</trkpt>
<trkpt lat="-27.2727828" lon="151.2783668">
  <ele>371.27</ele>
  <time>2026-09-01T19:58:34Z</time>
  <course>88.27</course>
  <speed>25.3533153650563</speed>
  <fix>3d</fix>
</trkpt>
<trkpt lat="-27.2727836" lon="151.2782945">
  <ele>371.12</ele>
  <time>2026-09-01T19:58:34Z</time>
  <course>89.06</course>
  <speed>25.35</speed>
  <fix>3d</fix>
</trkpt>
<trkpt lat="-27.2727824" lon="151.2783924">
  <ele>371.3</ele>
  <time>2026-09-01T19:58:34Z</time>
  <course>88.28</course>
  <speed>25.353479051207156</speed>
  <fix>3d</fix>
</trkpt>
<trkpt lat="-27.2727829" lon="151.2783458">
  <ele>371.19</ele>
  <time>2026-09-01T19:58:34Z</time>
  <course>89.03</course>
  <speed>25.34</speed>
  <fix>3d</fix>
</trkpt>
<trkpt lat="-27.272782" lon="151.2784181">
  <ele>371.34</ele>
  <time>2026-09-01T19:58:34Z</time>
  <course>88.27</course>
  <speed>25.35364668050732</speed>
  <fix>3d</fix>
</trkpt>
<trkpt lat="-27.2727829" lon="151.2783458">
  <ele>371.19</ele>
  <time>2026-09-01T19:58:34Z</time>
  <course>89.03</course>
  <speed>25.34</speed>
  <fix>3d</fix>
</trkpt>
<trkpt lat="-27.2727816" lon="151.2784437">
  <ele>371.37</ele>
  <time>2026-09-01T19:58:34Z</time>
  <course>88.23</course>
  <speed>25.34364811940065</speed>
  <fix>3d</fix>
</trkpt>
<trkpt lat="-27.2727821" lon="151.2783969">
  <ele>371.26</ele>
  <time>2026-09-01T19:58:34Z</time>
  <course>89.0</course>
  <speed>25.33</speed>
  <fix>3d</fix>
</trkpt>
<trkpt lat="-27.2727811" lon="151.2784693">
  <ele>371.4</ele>
  <time>2026-09-01T19:58:34Z</time>
  <course>88.23</course>
  <speed>25.343819759460096</speed>
  <fix>3d</fix>
</trkpt>
<trkpt lat="-27.2727821" lon="151.2783969">
  <ele>371.26</ele>
  <time>2026-09-01T19:58:34Z</time>
  <course>89.0</course>
  <speed>25.33</speed>
  <fix>3d</fix>
</trkpt>
<trkpt lat="-27.2727807" lon="151.2784949">
  <ele>371.43</ele>
  <time>2026-09-01T19:58:34Z</time>
  <course>88.19</course>
  <speed>25.343995344065227</speed>
  <fix>3d</fix>
</trkpt>
<trkpt lat="-27.2727813" lon="151.2784482">
  <ele>371.32</ele>
  <time>2026-09-01T19:58:34Z</time>
  <course>88.97</course>
  <speed>25.32</speed>
  <fix>3d</fix>
</trkpt>
<trkpt lat="-27.2727803" lon="151.2785205">
  <ele>371.46</ele>
  <time>2026-09-01T19:58:34Z</time>
  <course>88.14</course>
  <speed>25.34417487313406</speed>
  <fix>3d</fix>
</trkpt>
<trkpt lat="-27.2727813" lon="151.2784482">
  <ele>371.32</ele>
  <time>2026-09-01T19:58:34Z</time>
  <course>88.97</course>
  <speed>25.32</speed>
  <fix>3d</fix>
</trkpt>
<trkpt lat="-27.2727799" lon="151.2785461">
  <ele>371.48</ele>
  <time>2026-09-01T19:58:34Z</time>
  <course>88.14</course>
  <speed>25.344358346582776</speed>
  <fix>3d</fix>
</trkpt>
<trkpt lat="-27.2727804" lon="151.2784993">
  <ele>371.39</ele>
  <time>2026-09-01T19:58:34Z</time>
  <course>88.94</course>
  <speed>25.31</speed>
  <fix>3d</fix>
</trkpt>
<trkpt lat="-27.2727794" lon="151.2785717">
  <ele>371.51</ele>
  <time>2026-09-01T19:58:34Z</time>
  <course>88.16</course>
  <speed>25.3445457643257</speed>
  <fix>3d</fix>
</trkpt>
<trkpt lat="-27.2727804" lon="151.2784993">
  <ele>371.39</ele>
  <time>2026-09-01T19:58:34Z</time>
  <course>88.94</course>
  <speed>25.31</speed>
  <fix>3d</fix>
</trkpt>
<trkpt lat="-27.272779" lon="151.2785973">
  <ele>371.54</ele>
  <time>2026-09-01T19:58:34Z</time>
  <course>88.16</course>
  <speed>25.33454755862042</speed>
  <fix>3d</fix>
</trkpt>
<trkpt lat="-27.2727796" lon="151.2785506">
  <ele>371.44</ele>
  <time>2026-09-01T19:58:34Z</time>
  <course>88.91</course>
  <speed>25.31</speed>
  <fix>3d</fix>
</trkpt>
<trkpt lat="-27.2727785" lon="151.2786223">
  <ele>371.56</ele>
  <time>2026-09-01T19:58:34Z</time>
  <course>88.11</course>
  <speed>25.324740867381053</speed>
  <fix>3d</fix>
</trkpt>
<trkpt lat="-27.2727796" lon="151.2785506">
  <ele>371.44</ele>
  <time>2026-09-01T19:58:34Z</time>
  <course>88.91</course>
  <speed>25.31</speed>
  <fix>3d</fix>
</trkpt>
<trkpt lat="-27.2727781" lon="151.2786488">
  <ele>371.59</ele>
  <time>2026-09-01T19:58:34Z</time>
  <course>88.13</course>
  <speed>25.324740867381053</speed>
  <fix>3d</fix>
</trkpt>
<trkpt lat="-27.2727787" lon="151.2786018">
  <ele>371.5</ele>
  <time>2026-09-01T19:58:34Z</time>
  <course>88.89</course>
  <speed>25.29</speed>
  <fix>3d</fix>
</trkpt>
<trkpt lat="-27.2727776" lon="151.2786741">
  <ele>371.61</ele>
  <time>2026-09-01T19:58:34Z</time>
  <course>88.1</course>
  <speed>25.324740867381053</speed>
  <fix>3d</fix>
</trkpt>
<trkpt lat="-27.2727787" lon="151.2786018">
  <ele>371.5</ele>
  <time>2026-09-01T19:58:34Z</time>
  <course>88.89</course>
  <speed>25.29</speed>
  <fix>3d</fix>
</trkpt>
<trkpt lat="-27.2727772" lon="151.2786997">
  <ele>371.64</ele>
  <time>2026-09-01T19:58:34Z</time>
  <course>88.07</course>
  <speed>25.324740867381053</speed>
  <fix>3d</fix>
</trkpt>
<trkpt lat="-27.2727778" lon="151.2786529">
  <ele>371.55</ele>
  <time>2026-09-01T19:58:34Z</time>
  <course>88.88</course>
  <speed>25.28</speed>
  <fix>3d</fix>
</trkpt>
<trkpt lat="-27.2727767" lon="151.2787254">
  <ele>371.66</ele>
  <time>2026-09-01T19:58:34Z</time>
  <course>88.11</course>
  <speed>25.324740867381053</speed>
  <fix>3d</fix>
</trkpt>
<trkpt lat="-27.2727778" lon="151.2786529">
  <ele>371.55</ele>
  <time>2026-09-01T19:58:34Z</time>
  <course>88.88</course>
  <speed>25.28</speed>
  <fix>3d</fix>
</trkpt>
<trkpt lat="-27.2727762" lon="151.278751">
  <ele>371.68</ele>
  <time>2026-09-01T19:58:34Z</time>
  <course>88.16</course>
  <speed>25.324740867381053</speed>
  <fix>3d</fix>
</trkpt>
<trkpt lat="-27.272777" lon="151.278704">
  <ele>371.59</ele>
  <time>2026-09-01T19:58:34Z</time>
  <course>88.88</course>
  <speed>25.28</speed>
  <fix>3d</fix>
</trkpt>
<trkpt lat="-27.2727758" lon="151.2787768">
  <ele>371.71</ele>
  <time>2026-09-01T19:58:34Z</time>
  <course>88.16</course>
  <speed>25.324549354332053</speed>
  <fix>3d</fix>
</trkpt>
<trkpt lat="-27.272777" lon="151.278704">
  <ele>371.59</ele>
  <time>2026-09-01T19:58:34Z</time>
  <course>88.88</course>
  <speed>25.28</speed>
  <fix>3d</fix>
</trkpt>
<trkpt lat="-27.2727754" lon="151.2788024">
  <ele>371.72</ele>
  <time>2026-09-01T19:58:34Z</time>
  <course>88.13</course>
  <speed>25.324549354332053</speed>
  <fix>3d</fix>
</trkpt>
<trkpt lat="-27.2727761" lon="151.278755">
  <ele>371.64</ele>
  <time>2026-09-01T19:58:34Z</time>
  <course>88.9</course>
  <speed>25.27</speed>
  <fix>3d</fix>
</trkpt>
<trkpt lat="-27.2727749" lon="151.278828">
  <ele>371.74</ele>
  <time>2026-09-01T19:58:34Z</time>
  <course>88.11</course>
  <speed>25.324549354332053</speed>
  <fix>3d</fix>
</trkpt>
<trkpt lat="-27.2727761" lon="151.278755">
  <ele>371.64</ele>
  <time>2026-09-01T19:58:34Z</time>
  <course>88.9</course>
  <speed>25.27</speed>
  <fix>3d</fix>
</trkpt>
<trkpt lat="-27.2727745" lon="151.2788535">
  <ele>371.76</ele>
  <time>2026-09-01T19:58:34Z</time>
  <course>88.11</course>
  <speed>25.324549354332053</speed>
  <fix>3d</fix>
</trkpt>
<trkpt lat="-27.2727752" lon="151.2788061">
  <ele>371.68</ele>
  <time>2026-09-01T19:58:34Z</time>
  <course>88.92</course>
  <speed>25.27</speed>
  <fix>3d</fix>
</trkpt>
<trkpt lat="-27.2727741" lon="151.278879">
  <ele>371.77</ele>
  <time>2026-09-01T19:58:34Z</time>
  <course>88.13</course>
  <speed>25.324549354332053</speed>
  <fix>3d</fix>
</trkpt>
<trkpt lat="-27.2727752" lon="151.2788061">
  <ele>371.68</ele>
  <time>2026-09-01T19:58:34Z</time>
  <course>88.92</course>
  <speed>25.27</speed>
  <fix>3d</fix>
</trkpt>
<trkpt lat="-27.2727736" lon="151.2789044">
  <ele>371.79</ele>
  <time>2026-09-01T19:58:34Z</time>
  <course>88.17</course>
  <speed>25.31474274015045</speed>
  <fix>3d</fix>
</trkpt>
<trkpt lat="-27.2727744" lon="151.2788571">
  <ele>371.71</ele>
  <time>2026-09-01T19:58:34Z</time>
  <course>88.92</course>
  <speed>25.26</speed>
  <fix>3d</fix>
</trkpt>
<trkpt lat="-27.2727732" lon="151.2789299">
  <ele>371.8</ele>
  <time>2026-09-01T19:58:34Z</time>
  <course>88.16</course>
  <speed>25.31474274015045</speed>
  <fix>3d</fix>
</trkpt>
<trkpt lat="-27.2727744" lon="151.2788571">
  <ele>371.71</ele>
  <time>2026-09-01T19:58:34Z</time>
  <course>88.92</course>
  <speed>25.26</speed>
  <fix>3d</fix>
</trkpt>
<trkpt lat="-27.2727727" lon="151.2789552">
  <ele>371.81</ele>
  <time>2026-09-01T19:58:34Z</time>
  <course>88.15</course>
  <speed>25.304744614399883</speed>
  <fix>3d</fix>
</trkpt>
<trkpt lat="-27.2727735" lon="151.2789082">
  <ele>371.74</ele>
  <time>2026-09-01T19:58:34Z</time>
  <course>88.92</course>
  <speed>25.27</speed>
  <fix>3d</fix>
</trkpt>
<trkpt lat="-27.2727723" lon="151.2789807">
  <ele>371.82</ele>
  <time>2026-09-01T19:58:34Z</time>
  <course>88.11</course>
  <speed>25.304744614399883</speed>
  <fix>3d</fix>
</trkpt>
<trkpt lat="-27.2727735" lon="151.2789082">
  <ele>371.74</ele>
  <time>2026-09-01T19:58:34Z</time>
  <course>88.92</course>
  <speed>25.27</speed>
  <fix>3d</fix>
</trkpt>
<trkpt lat="-27.2727719" lon="151.2790061">
  <ele>371.84</ele>
  <time>2026-09-01T19:58:34Z</time>
  <course>88.13</course>
  <speed>25.304744614399883</speed>
  <fix>3d</fix>
</trkpt>
<trkpt lat="-27.2727727" lon="151.2789592">
  <ele>371.77</ele>
  <time>2026-09-01T19:58:34Z</time>
  <course>88.92</course>
  <speed>25.27</speed>
  <fix>3d</fix>
</trkpt>
<trkpt lat="-27.2727714" lon="151.2790315">
  <ele>371.85</ele>
  <time>2026-09-01T19:58:34Z</time>
  <course>88.12</course>
  <speed>25.294746490131107</speed>
  <fix>3d</fix>
</trkpt>
<trkpt lat="-27.2727727" lon="151.2789592">
  <ele>371.77</ele>
  <time>2026-09-01T19:58:34Z</time>
  <course>88.92</course>
  <speed>25.27</speed>
  <fix>3d</fix>
</trkpt>
<trkpt lat="-27.272771" lon="151.2790569">
  <ele>371.87</ele>
  <time>2026-09-01T19:58:34Z</time>
  <course>88.14</course>
  <speed>25.294746490131107</speed>
  <fix>3d</fix>
</trkpt>
<trkpt lat="-27.2727718" lon="151.2790103">
  <ele>371.8</ele>
  <time>2026-09-01T19:58:34Z</time>
  <course>88.93</course>
  <speed>25.27</speed>
  <fix>3d</fix>
</trkpt>
<trkpt lat="-27.2727706" lon="151.2790823">
  <ele>371.88</ele>
  <time>2026-09-01T19:58:34Z</time>
  <course>88.18</course>
  <speed>25.294746490131107</speed>
  <fix>3d</fix>
</trkpt>
<trkpt lat="-27.2727718" lon="151.2790103">
  <ele>371.8</ele>
  <time>2026-09-01T19:58:34Z</time>
  <course>88.93</course>
  <speed>25.27</speed>
  <fix>3d</fix>
</trkpt>
<trkpt lat="-27.2727702" lon="151.2791079">
  <ele>371.89</ele>
  <time>2026-09-01T19:58:34Z</time>
  <course>88.24</course>
  <speed>25.294746490131107</speed>
  <fix>3d</fix>
</trkpt>
<trkpt lat="-27.272771" lon="151.2790615">
  <ele>371.83</ele>
  <time>2026-09-01T19:58:34Z</time>
  <course>88.93</course>
  <speed>25.27</speed>
  <fix>3d</fix>
</trkpt>
<trkpt lat="-27.2727697" lon="151.2791335">
  <ele>371.9</ele>
  <time>2026-09-01T19:58:34Z</time>
  <course>88.17</course>
  <speed>25.304744614399883</speed>
  <fix>3d</fix>
</trkpt>
<trkpt lat="-27.272771" lon="151.2790615">
  <ele>371.83</ele>
  <time>2026-09-01T19:58:34Z</time>
  <course>88.93</course>
  <speed>25.27</speed>
  <fix>3d</fix>
</trkpt>
<trkpt lat="-27.2727693" lon="151.2791592">
  <ele>371.91</ele>
  <time>2026-09-01T19:58:34Z</time>
  <course>88.13</course>
  <speed>25.304744614399883</speed>
  <fix>3d</fix>
</trkpt>
<trkpt lat="-27.2727701" lon="151.2791126">
  <ele>371.85</ele>
  <time>2026-09-01T19:58:34Z</time>
  <course>88.95</course>
  <speed>25.28</speed>
  <fix>3d</fix>
</trkpt>
<trkpt lat="-27.2727689" lon="151.2791848">
  <ele>371.92</ele>
  <time>2026-09-01T19:58:34Z</time>
  <course>88.08</course>
  <speed>25.31474274015045</speed>
  <fix>3d</fix>
</trkpt>
<trkpt lat="-27.2727701" lon="151.2791126">
  <ele>371.85</ele>
  <time>2026-09-01T19:58:34Z</time>
  <course>88.95</course>
  <speed>25.28</speed>
  <fix>3d</fix>
</trkpt>
<trkpt lat="-27.2727684" lon="151.2792105">
  <ele>371.93</ele>
  <time>2026-09-01T19:58:34Z</time>
  <course>88.06</course>
  <speed>25.324936327659344</speed>
  <fix>3d</fix>
</trkpt>
<trkpt lat="-27.2727693" lon="151.2791637">
  <ele>371.88</ele>
  <time>2026-09-01T19:58:34Z</time>
  <course>88.95</course>
  <speed>25.28</speed>
  <fix>3d</fix>
</trkpt>
<trkpt lat="-27.272768" lon="151.2792362">
  <ele>371.93</ele>
  <time>2026-09-01T19:58:34Z</time>
  <course>88.05</course>
  <speed>25.334934379232166</speed>
  <fix>3d</fix>
</trkpt>
<trkpt lat="-27.2727693" lon="151.2791637">
  <ele>371.88</ele>
  <time>2026-09-01T19:58:34Z</time>
  <course>88.95</course>
  <speed>25.28</speed>
  <fix>3d</fix>
</trkpt>
<trkpt lat="-27.2727676" lon="151.2792619">
  <ele>371.94</ele>
  <time>2026-09-01T19:58:34Z</time>
  <course>88.06</course>
  <speed>25.345131682435586</speed>
  <fix>3d</fix>
</trkpt>
<trkpt lat="-27.2727685" lon="151.2792148">
  <ele>371.89</ele>
  <time>2026-09-01T19:58:34Z</time>
  <course>88.94</course>
  <speed>25.28</speed>
  <fix>3d</fix>
</trkpt>
<trkpt lat="-27.2727671" lon="151.2792876">
  <ele>371.94</ele>
  <time>2026-09-01T19:58:34Z</time>
  <course>88.08</course>
  <speed>25.355332772416933</speed>
  <fix>3d</fix>
</trkpt>
<trkpt lat="-27.2727685" lon="151.2792148">
  <ele>371.89</ele>
  <time>2026-09-01T19:58:34Z</time>
  <course>88.94</course>
  <speed>25.28</speed>
  <fix>3d</fix>
</trkpt>
<trkpt lat="-27.2727667" lon="151.2793136">
  <ele>371.95</ele>
  <time>2026-09-01T19:58:34Z</time>
  <course>88.08</course>
  <speed>25.365330670030698</speed>
  <fix>3d</fix>
</trkpt>
<trkpt lat="-27.2727677" lon="151.2792659">
  <ele>371.9</ele>
  <time>2026-09-01T19:58:34Z</time>
  <course>88.92</course>
  <speed>25.29</speed>
  <fix>3d</fix>
</trkpt>
<trkpt lat="-27.2727662" lon="151.2793393">
  <ele>371.95</ele>
  <time>2026-09-01T19:58:34Z</time>
  <course>88.07</course>
  <speed>25.365330670030698</speed>
  <fix>3d</fix>
</trkpt>
<trkpt lat="-27.2727677" lon="151.2792659">
  <ele>371.9</ele>
  <time>2026-09-01T19:58:34Z</time>
  <course>88.92</course>
  <speed>25.29</speed>
  <fix>3d</fix>
</trkpt>
<trkpt lat="-27.2727658" lon="151.279365">
  <ele>371.96</ele>
  <time>2026-09-01T19:58:34Z</time>
  <course>88.06</course>
  <speed>25.375328569301324</speed>
  <fix>3d</fix>
</trkpt>
<trkpt lat="-27.2727668" lon="151.279317">
  <ele>371.91</ele>
  <time>2026-09-01T19:58:34Z</time>
  <course>88.91</course>
  <speed>25.29</speed>
  <fix>3d</fix>
</trkpt>
<trkpt lat="-27.2727653" lon="151.2793907">
  <ele>371.96</ele>
  <time>2026-09-01T19:58:34Z</time>
  <course>88.01</course>
  <speed>25.395531102932264</speed>
  <fix>3d</fix>
</trkpt>
<trkpt lat="-27.2727668" lon="151.279317">
  <ele>371.91</ele>
  <time>2026-09-01T19:58:34Z</time>
  <course>88.91</course>
  <speed>25.29</speed>
  <fix>3d</fix>
</trkpt>
<trkpt lat="-27.2727649" lon="151.2794163">
  <ele>371.97</ele>
  <time>2026-09-01T19:58:34Z</time>
  <course>88.07</course>
  <speed>25.395531102932264</speed>
  <fix>3d</fix>
</trkpt>
<trkpt lat="-27.2727659" lon="151.2793681">
  <ele>371.93</ele>
  <time>2026-09-01T19:58:34Z</time>
  <course>88.9</course>
  <speed>25.3</speed>
  <fix>3d</fix>
</trkpt>
<trkpt lat="-27.2727644" lon="151.2794419">
  <ele>371.98</ele>
  <time>2026-09-01T19:58:35Z</time>
  <course>88.11</course>
  <speed>25.405528925806678</speed>
  <fix>3d</fix>
</trkpt>
<trkpt lat="-27.2727659" lon="151.2793681">
  <ele>371.93</ele>
  <time>2026-09-01T19:58:35Z</time>
  <course>88.9</course>
  <speed>25.3</speed>
  <fix>3d</fix>
</trkpt>
<trkpt lat="-27.272764" lon="151.2794676">
  <ele>371.98</ele>
  <time>2026-09-01T19:58:35Z</time>
  <course>88.11</course>
  <speed>25.405528925806678</speed>
  <fix>3d</fix>
</trkpt>
<trkpt lat="-27.272765" lon="151.2794192">
  <ele>371.94</ele>
  <time>2026-09-01T19:58:35Z</time>
  <course>88.89</course>
  <speed>25.31</speed>
  <fix>3d</fix>
</trkpt>
<trkpt lat="-27.2727635" lon="151.2794933">
  <ele>371.99</ele>
  <time>2026-09-01T19:58:35Z</time>
  <course>88.13</course>
  <speed>25.415526750394136</speed>
  <fix>3d</fix>
</trkpt>
<trkpt lat="-27.272765" lon="151.2794192">
  <ele>371.94</ele>
  <time>2026-09-01T19:58:35Z</time>
  <course>88.89</course>
  <speed>25.31</speed>
  <fix>3d</fix>
</trkpt>
<trkpt lat="-27.2727631" lon="151.279519">
  <ele>372.0</ele>
  <time>2026-09-01T19:58:35Z</time>
  <course>88.12</course>
  <speed>25.415526750394136</speed>
  <fix>3d</fix>
</trkpt>
<trkpt lat="-27.2727642" lon="151.2794703">
  <ele>371.95</ele>
  <time>2026-09-01T19:58:35Z</time>
  <course>88.89</course>
  <speed>25.32</speed>
  <fix>3d</fix>
</trkpt>
<trkpt lat="-27.2727626" lon="151.2795447">
  <ele>372.01</ele>
  <time>2026-09-01T19:58:35Z</time>
  <course>88.11</course>
  <speed>25.415526750394136</speed>
  <fix>3d</fix>
</trkpt>
<trkpt lat="-27.2727642" lon="151.2794703">
  <ele>371.95</ele>
  <time>2026-09-01T19:58:35Z</time>
  <course>88.89</course>
  <speed>25.32</speed>
  <fix>3d</fix>
</trkpt>
<trkpt lat="-27.2727622" lon="151.2795703">
  <ele>372.02</ele>
  <time>2026-09-01T19:58:35Z</time>
  <course>88.1</course>
  <speed>25.415526750394136</speed>
  <fix>3d</fix>
</trkpt>
<trkpt lat="-27.2727633" lon="151.2795215">
  <ele>371.97</ele>
  <time>2026-09-01T19:58:35Z</time>
  <course>88.91</course>
  <speed>25.32</speed>
  <fix>3d</fix>
</trkpt>
<trkpt lat="-27.2727617" lon="151.2795958">
  <ele>372.03</ele>
  <time>2026-09-01T19:58:35Z</time>
  <course>88.1</course>
  <speed>25.4157372507665</speed>
  <fix>3d</fix>
</trkpt>
<trkpt lat="-27.2727633" lon="151.2795215">
  <ele>371.97</ele>
  <time>2026-09-01T19:58:35Z</time>
  <course>88.91</course>
  <speed>25.32</speed>
  <fix>3d</fix>
</trkpt>
<trkpt lat="-27.2727613" lon="151.2796214">
  <ele>372.04</ele>
  <time>2026-09-01T19:58:35Z</time>
  <course>88.09</course>
  <speed>25.4157372507665</speed>
  <fix>3d</fix>
</trkpt>
<trkpt lat="-27.2727624" lon="151.2795727">
  <ele>371.99</ele>
  <time>2026-09-01T19:58:35Z</time>
  <course>88.9</course>
  <speed>25.32</speed>
  <fix>3d</fix>
</trkpt>
<trkpt lat="-27.2727608" lon="151.2796469">
  <ele>372.05</ele>
  <time>2026-09-01T19:58:35Z</time>
  <course>88.07</course>
  <speed>25.40595402656629</speed>
  <fix>3d</fix>
</trkpt>
<trkpt lat="-27.2727624" lon="151.2795727">
  <ele>371.99</ele>
  <time>2026-09-01T19:58:35Z</time>
  <course>88.9</course>
  <speed>25.32</speed>
  <fix>3d</fix>
</trkpt>
<trkpt lat="-27.2727604" lon="151.2796725">
  <ele>372.05</ele>
  <time>2026-09-01T19:58:35Z</time>
  <course>88.12</course>
  <speed>25.40595402656629</speed>
  <fix>3d</fix>
</trkpt>
<trkpt lat="-27.2727615" lon="151.279624">
  <ele>372.01</ele>
  <time>2026-09-01T19:58:35Z</time>
  <course>88.88</course>
  <speed>25.33</speed>
  <fix>3d</fix>
</trkpt>
<trkpt lat="-27.2727599" lon="151.279698">
  <ele>372.06</ele>
  <time>2026-09-01T19:58:35Z</time>
  <course>88.1</course>
  <speed>25.40595402656629</speed>
  <fix>3d</fix>
</trkpt>
<trkpt lat="-27.2727615" lon="151.279624">
  <ele>372.01</ele>
  <time>2026-09-01T19:58:35Z</time>
  <course>88.88</course>
  <speed>25.33</speed>
  <fix>3d</fix>
</trkpt>
<trkpt lat="-27.2727595" lon="151.2797235">
  <ele>372.07</ele>
  <time>2026-09-01T19:58:35Z</time>
  <course>88.05</course>
  <speed>25.395956371044587</speed>
  <fix>3d</fix>
</trkpt>
<trkpt lat="-27.2727607" lon="151.2796753">
  <ele>372.02</ele>
  <time>2026-09-01T19:58:35Z</time>
  <course>88.87</course>
  <speed>25.33</speed>
  <fix>3d</fix>
</trkpt>
<trkpt lat="-27.272759" lon="151.2797491">
  <ele>372.08</ele>
  <time>2026-09-01T19:58:35Z</time>
  <course>88.07</course>
  <speed>25.395956371044587</speed>
  <fix>3d</fix>
</trkpt>
<trkpt lat="-27.2727607" lon="151.2796753">
  <ele>372.02</ele>
  <time>2026-09-01T19:58:35Z</time>
  <course>88.87</course>
  <speed>25.33</speed>
  <fix>3d</fix>
</trkpt>
<trkpt lat="-27.2727586" lon="151.2797746">
  <ele>372.09</ele>
  <time>2026-09-01T19:58:35Z</time>
  <course>88.11</course>
  <speed>25.395956371044587</speed>
  <fix>3d</fix>
</trkpt>
<trkpt lat="-27.2727598" lon="151.2797264">
  <ele>372.03</ele>
  <time>2026-09-01T19:58:35Z</time>
  <course>88.86</course>
  <speed>25.33</speed>
  <fix>3d</fix>
</trkpt>
<trkpt lat="-27.2727581" lon="151.2798001">
  <ele>372.1</ele>
  <time>2026-09-01T19:58:35Z</time>
  <course>88.06</course>
  <speed>25.385958717369725</speed>
  <fix>3d</fix>
</trkpt>
<trkpt lat="-27.2727598" lon="151.2797264">
  <ele>372.03</ele>
  <time>2026-09-01T19:58:35Z</time>
  <course>88.86</course>
  <speed>25.33</speed>
  <fix>3d</fix>
</trkpt>
<trkpt lat="-27.2727577" lon="151.2798257">
  <ele>372.1</ele>
  <time>2026-09-01T19:58:35Z</time>
  <course>88.04</course>
  <speed>25.385958717369725</speed>
  <fix>3d</fix>
</trkpt>
<trkpt lat="-27.2727589" lon="151.2797776">
  <ele>372.05</ele>
  <time>2026-09-01T19:58:35Z</time>
  <course>88.86</course>
  <speed>25.33</speed>
  <fix>3d</fix>
</trkpt>
<trkpt lat="-27.2727572" lon="151.279851">
  <ele>372.1</ele>
  <time>2026-09-01T19:58:35Z</time>
  <course>88.03</course>
  <speed>25.385958717369725</speed>
  <fix>3d</fix>
</trkpt>
<trkpt lat="-27.2727589" lon="151.2797776">
  <ele>372.05</ele>
  <time>2026-09-01T19:58:35Z</time>
  <course>88.86</course>
  <speed>25.33</speed>
  <fix>3d</fix>
</trkpt>
<trkpt lat="-27.2727568" lon="151.2798765">
  <ele>372.1</ele>
  <time>2026-09-01T19:58:35Z</time>
  <course>88.02</course>
  <speed>25.386177341222524</speed>
  <fix>3d</fix>
</trkpt>
<trkpt lat="-27.2727579" lon="151.2798288">
  <ele>372.06</ele>
  <time>2026-09-01T19:58:35Z</time>
  <course>88.86</course>
  <speed>25.33</speed>
  <fix>3d</fix>
</trkpt>
<trkpt lat="-27.2727563" lon="151.2799021">
  <ele>372.11</ele>
  <time>2026-09-01T19:58:35Z</time>
  <course>88.03</course>
  <speed>25.386177341222524</speed>
  <fix>3d</fix>
</trkpt>
<trkpt lat="-27.2727579" lon="151.2798288">
  <ele>372.06</ele>
  <time>2026-09-01T19:58:35Z</time>
  <course>88.86</course>
  <speed>25.33</speed>
  <fix>3d</fix>
</trkpt>
<trkpt lat="-27.2727558" lon="151.2799276">
  <ele>372.11</ele>
  <time>2026-09-01T19:58:35Z</time>
  <course>88.03</course>
  <speed>25.386177341222524</speed>
  <fix>3d</fix>
</trkpt>
<trkpt lat="-27.272757" lon="151.27988">
  <ele>372.07</ele>
  <time>2026-09-01T19:58:35Z</time>
  <course>88.85</course>
  <speed>25.33</speed>
  <fix>3d</fix>
</trkpt>
<trkpt lat="-27.2727554" lon="151.2799534">
  <ele>372.12</ele>
  <time>2026-09-01T19:58:35Z</time>
  <course>88.02</course>
  <speed>25.386177341222524</speed>
  <fix>3d</fix>
</trkpt>
<trkpt lat="-27.272757" lon="151.27988">
  <ele>372.07</ele>
  <time>2026-09-01T19:58:35Z</time>
  <course>88.85</course>
  <speed>25.33</speed>
  <fix>3d</fix>
</trkpt>
<trkpt lat="-27.2727549" lon="151.2799789">
  <ele>372.12</ele>
  <time>2026-09-01T19:58:35Z</time>
  <course>87.99</course>
  <speed>25.376402424299627</speed>
  <fix>3d</fix>
</trkpt>
<trkpt lat="-27.2727561" lon="151.2799312">
  <ele>372.07</ele>
  <time>2026-09-01T19:58:35Z</time>
  <course>88.84</course>
  <speed>25.34</speed>
  <fix>3d</fix>
</trkpt>
<trkpt lat="-27.2727544" lon="151.2800045">
  <ele>372.12</ele>
  <time>2026-09-01T19:58:35Z</time>
  <course>87.97</course>
  <speed>25.376402424299627</speed>
  <fix>3d</fix>
</trkpt>
<trkpt lat="-27.2727561" lon="151.2799312">
  <ele>372.07</ele>
  <time>2026-09-01T19:58:35Z</time>
  <course>88.84</course>
  <speed>25.34</speed>
  <fix>3d</fix>
</trkpt>
<trkpt lat="-27.272754" lon="151.2800303">
  <ele>372.13</ele>
  <time>2026-09-01T19:58:35Z</time>
  <course>87.99</course>
  <speed>25.376402424299627</speed>
  <fix>3d</fix>
</trkpt>
<trkpt lat="-27.2727552" lon="151.2799824">
  <ele>372.08</ele>
  <time>2026-09-01T19:58:35Z</time>
  <course>88.83</course>
  <speed>25.34</speed>
  <fix>3d</fix>
</trkpt>
<trkpt lat="-27.2727535" lon="151.2800558">
  <ele>372.13</ele>
  <time>2026-09-01T19:58:35Z</time>
  <course>88.04</course>
  <speed>25.3863999023099</speed>
  <fix>3d</fix>
</trkpt>
<trkpt lat="-27.2727552" lon="151.2799824">
  <ele>372.08</ele>
  <time>2026-09-01T19:58:35Z</time>
  <course>88.83</course>
  <speed>25.34</speed>
  <fix>3d</fix>
</trkpt>
<trkpt lat="-27.272753" lon="151.2800814">
  <ele>372.13</ele>
  <time>2026-09-01T19:58:35Z</time>
  <course>88.03</course>
  <speed>25.376402424299627</speed>
  <fix>3d</fix>
</trkpt>
<trkpt lat="-27.2727543" lon="151.2800335">
  <ele>372.08</ele>
  <time>2026-09-01T19:58:35Z</time>
  <course>88.82</course>
  <speed>25.35</speed>
  <fix>3d</fix>
</trkpt>
<trkpt lat="-27.2727526" lon="151.2801069">
  <ele>372.13</ele>
  <time>2026-09-01T19:58:35Z</time>
  <course>88.07</course>
  <speed>25.3863999023099</speed>
  <fix>3d</fix>
</trkpt>
<trkpt lat="-27.2727543" lon="151.2800335">
  <ele>372.08</ele>
  <time>2026-09-01T19:58:35Z</time>
  <course>88.82</course>
  <speed>25.35</speed>
  <fix>3d</fix>
</trkpt>
<trkpt lat="-27.2727521" lon="151.2801325">
  <ele>372.13</ele>
  <time>2026-09-01T19:58:35Z</time>
  <course>88.1</course>
  <speed>25.386177341222524</speed>
  <fix>3d</fix>
</trkpt>
<trkpt lat="-27.2727534" lon="151.2800848">
  <ele>372.08</ele>
  <time>2026-09-01T19:58:35Z</time>
  <course>88.82</course>
  <speed>25.35</speed>
  <fix>3d</fix>
</trkpt>
<trkpt lat="-27.2727516" lon="151.2801582">
  <ele>372.12</ele>
  <time>2026-09-01T19:58:35Z</time>
  <course>88.08</course>
  <speed>25.386177341222524</speed>
  <fix>3d</fix>
</trkpt>
<trkpt lat="-27.2727534" lon="151.2800848">
  <ele>372.08</ele>
  <time>2026-09-01T19:58:35Z</time>
  <course>88.82</course>
  <speed>25.35</speed>
  <fix>3d</fix>
</trkpt>
<trkpt lat="-27.2727512" lon="151.2801838">
  <ele>372.12</ele>
  <time>2026-09-01T19:58:35Z</time>
  <course>88.08</course>
  <speed>25.386177341222524</speed>
  <fix>3d</fix>
</trkpt>
<trkpt lat="-27.2727524" lon="151.2801361">
  <ele>372.08</ele>
  <time>2026-09-01T19:58:35Z</time>
  <course>88.82</course>
  <speed>25.36</speed>
  <fix>3d</fix>
</trkpt>
<trkpt lat="-27.2727507" lon="151.2802094">
  <ele>372.12</ele>
  <time>2026-09-01T19:58:35Z</time>
  <course>88.08</course>
  <speed>25.386177341222524</speed>
  <fix>3d</fix>
</trkpt>
<trkpt lat="-27.2727524" lon="151.2801361">
  <ele>372.08</ele>
  <time>2026-09-01T19:58:35Z</time>
  <course>88.82</course>
  <speed>25.36</speed>
  <fix>3d</fix>
</trkpt>
<trkpt lat="-27.2727503" lon="151.280235">
  <ele>372.12</ele>
  <time>2026-09-01T19:58:35Z</time>
  <course>88.06</course>
  <speed>25.386177341222524</speed>
  <fix>3d</fix>
</trkpt>
<trkpt lat="-27.2727515" lon="151.2801875">
  <ele>372.08</ele>
  <time>2026-09-01T19:58:35Z</time>
  <course>88.83</course>
  <speed>25.36</speed>
  <fix>3d</fix>
</trkpt>
<trkpt lat="-27.2727498" lon="151.2802607">
  <ele>372.12</ele>
  <time>2026-09-01T19:58:35Z</time>
  <course>88.1</course>
  <speed>25.386177341222524</speed>
  <fix>3d</fix>
</trkpt>
<trkpt lat="-27.2727515" lon="151.2801875">
  <ele>372.08</ele>
  <time>2026-09-01T19:58:35Z</time>
  <course>88.83</course>
  <speed>25.36</speed>
  <fix>3d</fix>
</trkpt>
<trkpt lat="-27.2727494" lon="151.2802864">
  <ele>372.12</ele>
  <time>2026-09-01T19:58:35Z</time>
  <course>88.15</course>
  <speed>25.396174908832236</speed>
  <fix>3d</fix>
</trkpt>
<trkpt lat="-27.2727506" lon="151.2802387">
  <ele>372.08</ele>
  <time>2026-09-01T19:58:35Z</time>
  <course>88.83</course>
  <speed>25.37</speed>
  <fix>3d</fix>
</trkpt>
<trkpt lat="-27.2727489" lon="151.280312">
  <ele>372.13</ele>
  <time>2026-09-01T19:58:35Z</time>
  <course>88.12</course>
  <speed>25.396174908832236</speed>
  <fix>3d</fix>
</trkpt>
<trkpt lat="-27.2727506" lon="151.2802387">
  <ele>372.08</ele>
  <time>2026-09-01T19:58:35Z</time>
  <course>88.83</course>
  <speed>25.37</speed>
  <fix>3d</fix>
</trkpt>
<trkpt lat="-27.2727484" lon="151.2803377">
  <ele>372.13</ele>
  <time>2026-09-01T19:58:35Z</time>
  <course>88.06</course>
  <speed>25.396174908832236</speed>
  <fix>3d</fix>
</trkpt>
<trkpt lat="-27.2727496" lon="151.28029">
  <ele>372.09</ele>
  <time>2026-09-01T19:58:35Z</time>
  <course>88.83</course>
  <speed>25.37</speed>
  <fix>3d</fix>
</trkpt>
<trkpt lat="-27.272748" lon="151.2803633">
  <ele>372.13</ele>
  <time>2026-09-01T19:58:35Z</time>
  <course>88.04</course>
  <speed>25.396397382306017</speed>
  <fix>3d</fix>
</trkpt>
<trkpt lat="-27.2727496" lon="151.28029">
  <ele>372.09</ele>
  <time>2026-09-01T19:58:35Z</time>
  <course>88.83</course>
  <speed>25.37</speed>
  <fix>3d</fix>
</trkpt>
<trkpt lat="-27.2727475" lon="151.2803888">
  <ele>372.13</ele>
  <time>2026-09-01T19:58:35Z</time>
  <course>88.03</course>
  <speed>25.396397382306017</speed>
  <fix>3d</fix>
</trkpt>
<trkpt lat="-27.2727487" lon="151.2803412">
  <ele>372.09</ele>
  <time>2026-09-01T19:58:35Z</time>
  <course>88.83</course>
  <speed>25.37</speed>
  <fix>3d</fix>
</trkpt>
<trkpt lat="-27.272747" lon="151.2804144">
  <ele>372.13</ele>
  <time>2026-09-01T19:58:35Z</time>
  <course>88.0</course>
  <speed>25.396623791362504</speed>
  <fix>3d</fix>
</trkpt>
<trkpt lat="-27.2727487" lon="151.2803412">
  <ele>372.09</ele>
  <time>2026-09-01T19:58:35Z</time>
  <course>88.83</course>
  <speed>25.37</speed>
  <fix>3d</fix>
</trkpt>
<trkpt lat="-27.2727465" lon="151.2804401">
  <ele>372.13</ele>
  <time>2026-09-01T19:58:35Z</time>
  <course>87.98</course>
  <speed>25.396854135896437</speed>
  <fix>3d</fix>
</trkpt>
<trkpt lat="-27.2727478" lon="151.2803925">
  <ele>372.09</ele>
  <time>2026-09-01T19:58:35Z</time>
  <course>88.8</course>
  <speed>25.37</speed>
  <fix>3d</fix>
</trkpt>
<trkpt lat="-27.272746" lon="151.2804657">
  <ele>372.13</ele>
  <time>2026-09-01T19:58:35Z</time>
  <course>87.96</course>
  <speed>25.397088415800734</speed>
  <fix>3d</fix>
</trkpt>
<trkpt lat="-27.2727478" lon="151.2803925">
  <ele>372.09</ele>
  <time>2026-09-01T19:58:35Z</time>
  <course>88.8</course>
  <speed>25.37</speed>
  <fix>3d</fix>
</trkpt>
<trkpt lat="-27.2727455" lon="151.2804916">
  <ele>372.13</ele>
  <time>2026-09-01T19:58:35Z</time>
  <course>87.96</course>
  <speed>25.407085625864294</speed>
  <fix>3d</fix>
</trkpt>
<trkpt lat="-27.2727468" lon="151.2804438">
  <ele>372.1</ele>
  <time>2026-09-01T19:58:35Z</time>
  <course>88.77</course>
  <speed>25.37</speed>
  <fix>3d</fix>
</trkpt>
<trkpt lat="-27.272745" lon="151.2805173">
  <ele>372.13</ele>
  <time>2026-09-01T19:58:35Z</time>
  <course>88.0</course>
  <speed>25.407323747297745</speed>
  <fix>3d</fix>
</trkpt>
<trkpt lat="-27.2727468" lon="151.2804438">
  <ele>372.1</ele>
  <time>2026-09-01T19:58:35Z</time>
  <course>88.77</course>
  <speed>25.37</speed>
  <fix>3d</fix>
</trkpt>
<trkpt lat="-27.2727445" lon="151.2805429">
  <ele>372.14</ele>
  <time>2026-09-01T19:58:35Z</time>
  <course>88.0</course>
  <speed>25.407323747297745</speed>
  <fix>3d</fix>
</trkpt>
<trkpt lat="-27.2727458" lon="151.2804951">
  <ele>372.1</ele>
  <time>2026-09-01T19:58:35Z</time>
  <course>88.73</course>
  <speed>25.38</speed>
  <fix>3d</fix>
</trkpt>
<trkpt lat="-27.272744" lon="151.2805686">
  <ele>372.14</ele>
  <time>2026-09-01T19:58:35Z</time>
  <course>87.96</course>
  <speed>25.407565802335334</speed>
  <fix>3d</fix>
</trkpt>
<trkpt lat="-27.2727458" lon="151.2804951">
  <ele>372.1</ele>
  <time>2026-09-01T19:58:35Z</time>
  <course>88.73</course>
  <speed>25.38</speed>
  <fix>3d</fix>
</trkpt>
<trkpt lat="-27.2727435" lon="151.2805942">
  <ele>372.14</ele>
  <time>2026-09-01T19:58:35Z</time>
  <course>87.89</course>
  <speed>25.407565802335334</speed>
  <fix>3d</fix>
</trkpt>
<trkpt lat="-27.2727448" lon="151.2805463">
  <ele>372.1</ele>
  <time>2026-09-01T19:58:35Z</time>
  <course>88.71</course>
  <speed>25.38</speed>
  <fix>3d</fix>
</trkpt>
<trkpt lat="-27.272743" lon="151.2806199">
  <ele>372.14</ele>
  <time>2026-09-01T19:58:35Z</time>
  <course>87.89</course>
  <speed>25.407811790864635</speed>
  <fix>3d</fix>
</trkpt>
<trkpt lat="-27.2727448" lon="151.2805463">
  <ele>372.1</ele>
  <time>2026-09-01T19:58:35Z</time>
  <course>88.71</course>
  <speed>25.38</speed>
  <fix>3d</fix>
</trkpt>
<trkpt lat="-27.2727424" lon="151.2806456">
  <ele>372.15</ele>
  <time>2026-09-01T19:58:35Z</time>
  <course>87.92</course>
  <speed>25.4080617127714</speed>
  <fix>3d</fix>
</trkpt>
<trkpt lat="-27.2727438" lon="151.2805976">
  <ele>372.1</ele>
  <time>2026-09-01T19:58:35Z</time>
  <course>88.69</course>
  <speed>25.38</speed>
  <fix>3d</fix>
</trkpt>
<trkpt lat="-27.2727419" lon="151.2806712">
  <ele>372.15</ele>
  <time>2026-09-01T19:58:35Z</time>
  <course>87.95</course>
  <speed>25.4080617127714</speed>
  <fix>3d</fix>
</trkpt>
<trkpt lat="-27.2727438" lon="151.2805976">
  <ele>372.1</ele>
  <time>2026-09-01T19:58:35Z</time>
  <course>88.69</course>
  <speed>25.38</speed>
  <fix>3d</fix>
</trkpt>
<trkpt lat="-27.2727414" lon="151.2806969">
  <ele>372.16</ele>
  <time>2026-09-01T19:58:35Z</time>
  <course>87.94</course>
  <speed>25.41805854112387</speed>
  <fix>3d</fix>
</trkpt>
<trkpt lat="-27.2727427" lon="151.280649">
  <ele>372.11</ele>
  <time>2026-09-01T19:58:35Z</time>
  <course>88.66</course>
  <speed>25.38</speed>
  <fix>3d</fix>
</trkpt>
<trkpt lat="-27.2727408" lon="151.2807226">
  <ele>372.16</ele>
  <time>2026-09-01T19:58:35Z</time>
  <course>87.92</course>
  <speed>25.41805854112387</speed>
  <fix>3d</fix>
</trkpt>
<trkpt lat="-27.2727427" lon="151.280649">
  <ele>372.11</ele>
  <time>2026-09-01T19:58:35Z</time>
  <course>88.66</course>
  <speed>25.38</speed>
  <fix>3d</fix>
</trkpt>
<trkpt lat="-27.2727403" lon="151.2807485">
  <ele>372.16</ele>
  <time>2026-09-01T19:58:35Z</time>
  <course>87.89</course>
  <speed>25.41805854112387</speed>
  <fix>3d</fix>
</trkpt>
<trkpt lat="-27.2727417" lon="151.2807004">
  <ele>372.11</ele>
  <time>2026-09-01T19:58:35Z</time>
  <course>88.65</course>
  <speed>25.39</speed>
  <fix>3d</fix>
</trkpt>
<trkpt lat="-27.2727398" lon="151.2807741">
  <ele>372.16</ele>
  <time>2026-09-01T19:58:35Z</time>
  <course>87.9</course>
  <speed>25.41805854112387</speed>
  <fix>3d</fix>
</trkpt>
<trkpt lat="-27.2727417" lon="151.2807004">
  <ele>372.11</ele>
  <time>2026-09-01T19:58:35Z</time>
  <course>88.65</course>
  <speed>25.39</speed>
  <fix>3d</fix>
</trkpt>
<trkpt lat="-27.2727392" lon="151.2807998">
  <ele>372.16</ele>
  <time>2026-09-01T19:58:35Z</time>
  <course>87.87</course>
  <speed>25.428055371970544</speed>
  <fix>3d</fix>
</trkpt>
<trkpt lat="-27.2727406" lon="151.2807517">
  <ele>372.12</ele>
  <time>2026-09-01T19:58:35Z</time>
  <course>88.64</course>
  <speed>25.39</speed>
  <fix>3d</fix>
</trkpt>
<trkpt lat="-27.2727387" lon="151.2808255">
  <ele>372.16</ele>
  <time>2026-09-01T19:58:35Z</time>
  <course>87.87</course>
  <speed>25.428055371970544</speed>
  <fix>3d</fix>
</trkpt>
<trkpt lat="-27.2727406" lon="151.2807517">
  <ele>372.12</ele>
  <time>2026-09-01T19:58:35Z</time>
  <course>88.64</course>
  <speed>25.39</speed>
  <fix>3d</fix>
</trkpt>
<trkpt lat="-27.2727382" lon="151.2808511">
  <ele>372.17</ele>
  <time>2026-09-01T19:58:35Z</time>
  <course>87.85</course>
  <speed>25.428055371970544</speed>
  <fix>3d</fix>
</trkpt>
<trkpt lat="-27.2727395" lon="151.280803">
  <ele>372.12</ele>
  <time>2026-09-01T19:58:35Z</time>
  <course>88.65</course>
  <speed>25.39</speed>
  <fix>3d</fix>
</trkpt>
<trkpt lat="-27.2727376" lon="151.2808768">
  <ele>372.17</ele>
  <time>2026-09-01T19:58:35Z</time>
  <course>87.86</course>
  <speed>25.428055371970544</speed>
  <fix>3d</fix>
</trkpt>
<trkpt lat="-27.2727395" lon="151.280803">
  <ele>372.12</ele>
  <time>2026-09-01T19:58:35Z</time>
  <course>88.65</course>
  <speed>25.39</speed>
  <fix>3d</fix>
</trkpt>
<trkpt lat="-27.2727371" lon="151.2809024">
  <ele>372.17</ele>
  <time>2026-09-01T19:58:35Z</time>
  <course>87.85</course>
  <speed>25.428055371970544</speed>
  <fix>3d</fix>
</trkpt>
<trkpt lat="-27.2727384" lon="151.2808543">
  <ele>372.12</ele>
  <time>2026-09-01T19:58:35Z</time>
  <course>88.65</course>
  <speed>25.4</speed>
  <fix>3d</fix>
</trkpt>
<trkpt lat="-27.2727365" lon="151.2809279">
  <ele>372.17</ele>
  <time>2026-09-01T19:58:35Z</time>
  <course>87.9</course>
  <speed>25.42830902753858</speed>
  <fix>3d</fix>
</trkpt>
<trkpt lat="-27.2727384" lon="151.2808543">
  <ele>372.12</ele>
  <time>2026-09-01T19:58:35Z</time>
  <course>88.65</course>
  <speed>25.4</speed>
  <fix>3d</fix>
</trkpt>
<trkpt lat="-27.272736" lon="151.2809535">
  <ele>372.17</ele>
  <time>2026-09-01T19:58:35Z</time>
  <course>87.91</course>
  <speed>25.428055371970544</speed>
  <fix>3d</fix>
</trkpt>
<trkpt lat="-27.2727373" lon="151.2809056">
  <ele>372.12</ele>
  <time>2026-09-01T19:58:35Z</time>
  <course>88.64</course>
  <speed>25.4</speed>
  <fix>3d</fix>
</trkpt>
<trkpt lat="-27.2727355" lon="151.2809792">
  <ele>372.17</ele>
  <time>2026-09-01T19:58:35Z</time>
  <course>87.85</course>
  <speed>25.428055371970544</speed>
  <fix>3d</fix>
</trkpt>
<trkpt lat="-27.2727373" lon="151.2809056">
  <ele>372.12</ele>
  <time>2026-09-01T19:58:35Z</time>
  <course>88.64</course>
  <speed>25.4</speed>
  <fix>3d</fix>
</trkpt>
<trkpt lat="-27.2727349" lon="151.2810049">
  <ele>372.18</ele>
  <time>2026-09-01T19:58:35Z</time>
  <course>87.84</course>
  <speed>25.428055371970544</speed>
  <fix>3d</fix>
</trkpt>
<trkpt lat="-27.2727363" lon="151.2809569">
  <ele>372.13</ele>
  <time>2026-09-01T19:58:35Z</time>
  <course>88.64</course>
  <speed>25.4</speed>
  <fix>3d</fix>
</trkpt>
<trkpt lat="-27.2727344" lon="151.2810307">
  <ele>372.18</ele>
  <time>2026-09-01T19:58:35Z</time>
  <course>87.87</course>
  <speed>25.428055371970544</speed>
  <fix>3d</fix>
</trkpt>
<trkpt lat="-27.2727363" lon="151.2809569">
  <ele>372.13</ele>
  <time>2026-09-01T19:58:35Z</time>
  <course>88.64</course>
  <speed>25.4</speed>
  <fix>3d</fix>
</trkpt>
<trkpt lat="-27.2727338" lon="151.2810564">
  <ele>372.19</ele>
  <time>2026-09-01T19:58:35Z</time>
  <course>87.85</course>
  <speed>25.428055371970544</speed>
  <fix>3d</fix>
</trkpt>
<trkpt lat="-27.2727352" lon="151.2810082">
  <ele>372.13</ele>
  <time>2026-09-01T19:58:35Z</time>
  <course>88.64</course>
  <speed>25.4</speed>
  <fix>3d</fix>
</trkpt>
<trkpt lat="-27.2727333" lon="151.281082">
  <ele>372.19</ele>
  <time>2026-09-01T19:58:35Z</time>
  <course>87.8</course>
  <speed>25.418312296452726</speed>
  <fix>3d</fix>
</trkpt>
<trkpt lat="-27.2727352" lon="151.2810082">
  <ele>372.13</ele>
  <time>2026-09-01T19:58:35Z</time>
  <course>88.64</course>
  <speed>25.4</speed>
  <fix>3d</fix>
</trkpt>
<trkpt lat="-27.2727328" lon="151.2811077">
  <ele>372.19</ele>
  <time>2026-09-01T19:58:35Z</time>
  <course>87.82</course>
  <speed>25.418312296452726</speed>
  <fix>3d</fix>
</trkpt>
<trkpt lat="-27.2727341" lon="151.2810595">
  <ele>372.14</ele>
  <time>2026-09-01T19:58:35Z</time>
  <course>88.63</course>
  <speed>25.39</speed>
  <fix>3d</fix>
</trkpt>
<trkpt lat="-27.2727322" lon="151.2811333">
  <ele>372.19</ele>
  <time>2026-09-01T19:58:35Z</time>
  <course>87.84</course>
  <speed>25.418312296452726</speed>
  <fix>3d</fix>
</trkpt>
<trkpt lat="-27.2727341" lon="151.2810595">
  <ele>372.14</ele>
  <time>2026-09-01T19:58:35Z</time>
  <course>88.63</course>
  <speed>25.39</speed>
  <fix>3d</fix>
</trkpt>
<trkpt lat="-27.2727317" lon="151.281159">
  <ele>372.19</ele>
  <time>2026-09-01T19:58:35Z</time>
  <course>87.83</course>
  <speed>25.418312296452726</speed>
  <fix>3d</fix>
</trkpt>
<trkpt lat="-27.272733" lon="151.2811108">
  <ele>372.15</ele>
  <time>2026-09-01T19:58:35Z</time>
  <course>88.62</course>
  <speed>25.39</speed>
  <fix>3d</fix>
</trkpt>
<trkpt lat="-27.2727311" lon="151.2811846">
  <ele>372.19</ele>
  <time>2026-09-01T19:58:35Z</time>
  <course>87.82</course>
  <speed>25.418312296452726</speed>
  <fix>3d</fix>
</trkpt>
<trkpt lat="-27.272733" lon="151.2811108">
  <ele>372.15</ele>
  <time>2026-09-01T19:58:35Z</time>
  <course>88.62</course>
  <speed>25.39</speed>
  <fix>3d</fix>
</trkpt>
<trkpt lat="-27.2727306" lon="151.2812103">
  <ele>372.19</ele>
  <time>2026-09-01T19:58:35Z</time>
  <course>87.81</course>
  <speed>25.42856661316166</speed>
  <fix>3d</fix>
</trkpt>
<trkpt lat="-27.2727319" lon="151.2811621">
  <ele>372.15</ele>
  <time>2026-09-01T19:58:35Z</time>
  <course>88.61</course>
  <speed>25.39</speed>
  <fix>3d</fix>
</trkpt>
<trkpt lat="-27.27273" lon="151.2812359">
  <ele>372.19</ele>
  <time>2026-09-01T19:58:35Z</time>
  <course>87.79</course>
  <speed>25.42856661316166</speed>
  <fix>3d</fix>
</trkpt>
<trkpt lat="-27.2727319" lon="151.2811621">
  <ele>372.15</ele>
  <time>2026-09-01T19:58:35Z</time>
  <course>88.61</course>
  <speed>25.39</speed>
  <fix>3d</fix>
</trkpt>
<trkpt lat="-27.2727294" lon="151.2812616">
  <ele>372.19</ele>
  <time>2026-09-01T19:58:35Z</time>
  <course>87.82</course>
  <speed>25.428828128720365</speed>
  <fix>3d</fix>
</trkpt>
<trkpt lat="-27.2727308" lon="151.2812136">
  <ele>372.14</ele>
  <time>2026-09-01T19:58:35Z</time>
  <course>88.61</course>
  <speed>25.4</speed>
  <fix>3d</fix>
</trkpt>
<trkpt lat="-27.2727289" lon="151.2812873">
  <ele>372.19</ele>
  <time>2026-09-01T19:58:35Z</time>
  <course>87.79</course>
  <speed>25.428828128720365</speed>
  <fix>3d</fix>
</trkpt>
<trkpt lat="-27.2727308" lon="151.2812136">
  <ele>372.14</ele>
  <time>2026-09-01T19:58:35Z</time>
  <course>88.61</course>
  <speed>25.4</speed>
  <fix>3d</fix>
</trkpt>
<trkpt lat="-27.2727283" lon="151.2813129">
  <ele>372.19</ele>
  <time>2026-09-01T19:58:35Z</time>
  <course>87.8</course>
  <speed>25.428828128720365</speed>
  <fix>3d</fix>
</trkpt>
<trkpt lat="-27.2727297" lon="151.281265">
  <ele>372.14</ele>
  <time>2026-09-01T19:58:35Z</time>
  <course>88.59</course>
  <speed>25.4</speed>
  <fix>3d</fix>
</trkpt>
<trkpt lat="-27.2727277" lon="151.2813386">
  <ele>372.19</ele>
  <time>2026-09-01T19:58:35Z</time>
  <course>87.84</course>
  <speed>25.429093574093436</speed>
  <fix>3d</fix>
</trkpt>
<trkpt lat="-27.2727297" lon="151.281265">
  <ele>372.14</ele>
  <time>2026-09-01T19:58:35Z</time>
  <course>88.59</course>
  <speed>25.4</speed>
  <fix>3d</fix>
</trkpt>
<trkpt lat="-27.2727272" lon="151.2813643">
  <ele>372.2</ele>
  <time>2026-09-01T19:58:35Z</time>
  <course>87.83</course>
  <speed>25.429093574093436</speed>
  <fix>3d</fix>
</trkpt>
<trkpt lat="-27.2727286" lon="151.2813163">
  <ele>372.13</ele>
  <time>2026-09-01T19:58:35Z</time>
  <course>88.57</course>
  <speed>25.4</speed>
  <fix>3d</fix>
</trkpt>
<trkpt lat="-27.2727266" lon="151.28139">
  <ele>372.2</ele>
  <time>2026-09-01T19:58:35Z</time>
  <course>87.8</course>
  <speed>25.429093574093436</speed>
  <fix>3d</fix>
</trkpt>
<trkpt lat="-27.2727286" lon="151.2813163">
  <ele>372.13</ele>
  <time>2026-09-01T19:58:35Z</time>
  <course>88.57</course>
  <speed>25.4</speed>
  <fix>3d</fix>
</trkpt>
<trkpt lat="-27.272726" lon="151.2814156">
  <ele>372.2</ele>
  <time>2026-09-01T19:58:35Z</time>
  <course>87.77</course>
  <speed>25.429362949157813</speed>
  <fix>3d</fix>
</trkpt>
<trkpt lat="-27.2727275" lon="151.2813676">
  <ele>372.13</ele>
  <time>2026-09-01T19:58:35Z</time>
  <course>88.56</course>
  <speed>25.4</speed>
  <fix>3d</fix>
</trkpt>
<trkpt lat="-27.2727254" lon="151.2814413">
  <ele>372.19</ele>
  <time>2026-09-01T19:58:35Z</time>
  <course>87.72</course>
  <speed>25.439359268660837</speed>
  <fix>3d</fix>
</trkpt>
<trkpt lat="-27.2727275" lon="151.2813676">
  <ele>372.13</ele>
  <time>2026-09-01T19:58:35Z</time>
  <course>88.56</course>
  <speed>25.4</speed>
  <fix>3d</fix>
</trkpt>
<trkpt lat="-27.2727249" lon="151.281467">
  <ele>372.2</ele>
  <time>2026-09-01T19:58:35Z</time>
  <course>87.71</course>
  <speed>25.42963625378861</speed>
  <fix>3d</fix>
</trkpt>
<trkpt lat="-27.2727263" lon="151.2814189">
  <ele>372.13</ele>
  <time>2026-09-01T19:58:35Z</time>
  <course>88.54</course>
  <speed>25.41</speed>
  <fix>3d</fix>
</trkpt>
<trkpt lat="-27.2727243" lon="151.2814927">
  <ele>372.2</ele>
  <time>2026-09-01T19:58:35Z</time>
  <course>87.7</course>
  <speed>25.429913487859135</speed>
  <fix>3d</fix>
</trkpt>
<trkpt lat="-27.2727263" lon="151.2814189">
  <ele>372.13</ele>
  <time>2026-09-01T19:58:35Z</time>
  <course>88.54</course>
  <speed>25.41</speed>
  <fix>3d</fix>
</trkpt>
<trkpt lat="-27.2727237" lon="151.2815183">
  <ele>372.2</ele>
  <time>2026-09-01T19:58:35Z</time>
  <course>87.72</course>
  <speed>25.429913487859135</speed>
  <fix>3d</fix>
</trkpt>
<trkpt lat="-27.2727252" lon="151.2814703">
  <ele>372.13</ele>
  <time>2026-09-01T19:58:35Z</time>
  <course>88.51</course>
  <speed>25.41</speed>
  <fix>3d</fix>
</trkpt>
<trkpt lat="-27.2727231" lon="151.281544">
  <ele>372.2</ele>
  <time>2026-09-01T19:58:35Z</time>
  <course>87.71</course>
  <speed>25.43019465124088</speed>
  <fix>3d</fix>
</trkpt>
<trkpt lat="-27.2727252" lon="151.2814703">
  <ele>372.13</ele>
  <time>2026-09-01T19:58:35Z</time>
  <course>88.51</course>
  <speed>25.41</speed>
  <fix>3d</fix>
</trkpt>
<trkpt lat="-27.2727225" lon="151.2815698">
  <ele>372.21</ele>
  <time>2026-09-01T19:58:35Z</time>
  <course>87.74</course>
  <speed>25.419917387749315</speed>
  <fix>3d</fix>
</trkpt>
<trkpt lat="-27.272724" lon="151.2815216">
  <ele>372.13</ele>
  <time>2026-09-01T19:58:35Z</time>
  <course>88.48</course>
  <speed>25.41</speed>
  <fix>3d</fix>
</trkpt>
<trkpt lat="-27.2727219" lon="151.2815955">
  <ele>372.21</ele>
  <time>2026-09-01T19:58:35Z</time>
  <course>87.76</course>
  <speed>25.419917387749315</speed>
  <fix>3d</fix>
</trkpt>
<trkpt lat="-27.272724" lon="151.2815216">
  <ele>372.13</ele>
  <time>2026-09-01T19:58:35Z</time>
  <course>88.48</course>
  <speed>25.41</speed>
  <fix>3d</fix>
</trkpt>
<trkpt lat="-27.2727213" lon="151.2816211">
  <ele>372.22</ele>
  <time>2026-09-01T19:58:35Z</time>
  <course>87.75</course>
  <speed>25.419917387749315</speed>
  <fix>3d</fix>
</trkpt>
<trkpt lat="-27.2727228" lon="151.2815729">
  <ele>372.13</ele>
  <time>2026-09-01T19:58:35Z</time>
  <course>88.47</course>
  <speed>25.4</speed>
  <fix>3d</fix>
</trkpt>
<trkpt lat="-27.2727207" lon="151.2816468">
  <ele>372.22</ele>
  <time>2026-09-01T19:58:35Z</time>
  <course>87.74</course>
  <speed>25.419917387749315</speed>
  <fix>3d</fix>
</trkpt>
<trkpt lat="-27.2727228" lon="151.2815729">
  <ele>372.13</ele>
  <time>2026-09-01T19:58:35Z</time>
  <course>88.47</course>
  <speed>25.4</speed>
  <fix>3d</fix>
</trkpt>
<trkpt lat="-27.2727201" lon="151.2816724">
  <ele>372.22</ele>
  <time>2026-09-01T19:58:35Z</time>
  <course>87.68</course>
  <speed>25.41964004465838</speed>
  <fix>3d</fix>
</trkpt>
<trkpt lat="-27.2727215" lon="151.2816242">
  <ele>372.13</ele>
  <time>2026-09-01T19:58:35Z</time>
  <course>88.47</course>
  <speed>25.4</speed>
  <fix>3d</fix>
</trkpt>
<trkpt lat="-27.2727195" lon="151.2816981">
  <ele>372.22</ele>
  <time>2026-09-01T19:58:35Z</time>
  <course>87.65</course>
  <speed>25.419917387749315</speed>
  <fix>3d</fix>
</trkpt>
<trkpt lat="-27.2727215" lon="151.2816242">
  <ele>372.13</ele>
  <time>2026-09-01T19:58:35Z</time>
  <course>88.47</course>
  <speed>25.4</speed>
  <fix>3d</fix>
</trkpt>
<trkpt lat="-27.2727189" lon="151.2817237">
  <ele>372.22</ele>
  <time>2026-09-01T19:58:35Z</time>
  <course>87.65</course>
  <speed>25.419917387749315</speed>
  <fix>3d</fix>
</trkpt>
<trkpt lat="-27.2727203" lon="151.2816755">
  <ele>372.13</ele>
  <time>2026-09-01T19:58:35Z</time>
  <course>88.48</course>
  <speed>25.4</speed>
  <fix>3d</fix>
</trkpt>
<trkpt lat="-27.2727183" lon="151.2817494">
  <ele>372.21</ele>
  <time>2026-09-01T19:58:35Z</time>
  <course>87.65</course>
  <speed>25.419917387749315</speed>
  <fix>3d</fix>
</trkpt>
<trkpt lat="-27.2727203" lon="151.2816755">
  <ele>372.13</ele>
  <time>2026-09-01T19:58:35Z</time>
  <course>88.48</course>
  <speed>25.4</speed>
  <fix>3d</fix>
</trkpt>
<trkpt lat="-27.2727177" lon="151.281775">
  <ele>372.21</ele>
  <time>2026-09-01T19:58:35Z</time>
  <course>87.69</course>
  <speed>25.420198661694208</speed>
  <fix>3d</fix>
</trkpt>
<trkpt lat="-27.2727191" lon="151.281727">
  <ele>372.13</ele>
  <time>2026-09-01T19:58:35Z</time>
  <course>88.46</course>
  <speed>25.4</speed>
  <fix>3d</fix>
</trkpt>
<trkpt lat="-27.272717" lon="151.2818007">
  <ele>372.2</ele>
  <time>2026-09-01T19:58:35Z</time>
  <course>87.66</course>
  <speed>25.420198661694208</speed>
  <fix>3d</fix>
</trkpt>
<trkpt lat="-27.2727191" lon="151.281727">
  <ele>372.13</ele>
  <time>2026-09-01T19:58:35Z</time>
  <course>88.46</course>
  <speed>25.4</speed>
  <fix>3d</fix>
</trkpt>
<trkpt lat="-27.2727164" lon="151.2818263">
  <ele>372.2</ele>
  <time>2026-09-01T19:58:35Z</time>
  <course>87.66</course>
  <speed>25.420483866362574</speed>
  <fix>3d</fix>
</trkpt>
<trkpt lat="-27.2727179" lon="151.2817784">
  <ele>372.12</ele>
  <time>2026-09-01T19:58:35Z</time>
  <course>88.44</course>
  <speed>25.4</speed>
  <fix>3d</fix>
</trkpt>
<trkpt lat="-27.2727158" lon="151.281852">
  <ele>372.2</ele>
  <time>2026-09-01T19:58:35Z</time>
  <course>87.69</course>
  <speed>25.420483866362574</speed>
  <fix>3d</fix>
</trkpt>
<trkpt lat="-27.2727179" lon="151.2817784">
  <ele>372.12</ele>
  <time>2026-09-01T19:58:35Z</time>
  <course>88.44</course>
  <speed>25.4</speed>
  <fix>3d</fix>
</trkpt>
<trkpt lat="-27.2727152" lon="151.2818777">
  <ele>372.2</ele>
  <time>2026-09-01T19:58:35Z</time>
  <course>87.74</course>
  <speed>25.420483866362574</speed>
  <fix>3d</fix>
</trkpt>
<trkpt lat="-27.2727166" lon="151.2818297">
  <ele>372.11</ele>
  <time>2026-09-01T19:58:35Z</time>
  <course>88.42</course>
  <speed>25.4</speed>
  <fix>3d</fix>
</trkpt>
<trkpt lat="-27.2727145" lon="151.2819033">
  <ele>372.2</ele>
  <time>2026-09-01T19:58:35Z</time>
  <course>87.73</course>
  <speed>25.420483866362574</speed>
  <fix>3d</fix>
</trkpt>
<trkpt lat="-27.2727166" lon="151.2818297">
  <ele>372.11</ele>
  <time>2026-09-01T19:58:35Z</time>
  <course>88.42</course>
  <speed>25.4</speed>
  <fix>3d</fix>
</trkpt>
<trkpt lat="-27.2727139" lon="151.281929">
  <ele>372.21</ele>
  <time>2026-09-01T19:58:35Z</time>
  <course>87.71</course>
  <speed>25.420483866362574</speed>
  <fix>3d</fix>
</trkpt>
<trkpt lat="-27.2727154" lon="151.281881">
  <ele>372.11</ele>
  <time>2026-09-01T19:58:35Z</time>
  <course>88.42</course>
  <speed>25.4</speed>
  <fix>3d</fix>
</trkpt>
<trkpt lat="-27.2727133" lon="151.2819547">
  <ele>372.21</ele>
  <time>2026-09-01T19:58:35Z</time>
  <course>87.73</course>
  <speed>25.420483866362574</speed>
  <fix>3d</fix>
</trkpt>
<trkpt lat="-27.2727154" lon="151.281881">
  <ele>372.11</ele>
  <time>2026-09-01T19:58:35Z</time>
  <course>88.42</course>
  <speed>25.4</speed>
  <fix>3d</fix>
</trkpt>
<trkpt lat="-27.2727127" lon="151.2819803">
  <ele>372.21</ele>
  <time>2026-09-01T19:58:35Z</time>
  <course>87.7</course>
  <speed>25.420198661694208</speed>
  <fix>3d</fix>
</trkpt>
<trkpt lat="-27.2727141" lon="151.2819323">
  <ele>372.11</ele>
  <time>2026-09-01T19:58:35Z</time>
  <course>88.42</course>
  <speed>25.4</speed>
  <fix>3d</fix>
</trkpt>
<trkpt lat="-27.2727121" lon="151.282006">
  <ele>372.21</ele>
  <time>2026-09-01T19:58:35Z</time>
  <course>87.65</course>
  <speed>25.420483866362574</speed>
  <fix>3d</fix>
</trkpt>
<trkpt lat="-27.2727141" lon="151.2819323">
  <ele>372.11</ele>
  <time>2026-09-01T19:58:35Z</time>
  <course>88.42</course>
  <speed>25.4</speed>
  <fix>3d</fix>
</trkpt>
<trkpt lat="-27.2727114" lon="151.2820316">
  <ele>372.2</ele>
  <time>2026-09-01T19:58:35Z</time>
  <course>87.63</course>
  <speed>25.420483866362574</speed>
  <fix>3d</fix>
</trkpt>
<trkpt lat="-27.2727129" lon="151.2819837">
  <ele>372.11</ele>
  <time>2026-09-01T19:58:35Z</time>
  <course>88.43</course>
  <speed>25.4</speed>
  <fix>3d</fix>
</trkpt>
<trkpt lat="-27.2727108" lon="151.2820573">
  <ele>372.2</ele>
  <time>2026-09-01T19:58:35Z</time>
  <course>87.65</course>
  <speed>25.420483866362574</speed>
  <fix>3d</fix>
</trkpt>
<trkpt lat="-27.2727129" lon="151.2819837">
  <ele>372.11</ele>
  <time>2026-09-01T19:58:35Z</time>
  <course>88.43</course>
  <speed>25.4</speed>
  <fix>3d</fix>
</trkpt>
<trkpt lat="-27.2727102" lon="151.2820827">
  <ele>372.2</ele>
  <time>2026-09-01T19:58:35Z</time>
  <course>87.67</course>
  <speed>25.420483866362574</speed>
  <fix>3d</fix>
</trkpt>
<trkpt lat="-27.2727116" lon="151.282035">
  <ele>372.11</ele>
  <time>2026-09-01T19:58:35Z</time>
  <course>88.42</course>
  <speed>25.4</speed>
  <fix>3d</fix>
</trkpt>
<trkpt lat="-27.2727096" lon="151.2821084">
  <ele>372.2</ele>
  <time>2026-09-01T19:58:35Z</time>
  <course>87.7</course>
  <speed>25.42077300162212</speed>
  <fix>3d</fix>
</trkpt>
<trkpt lat="-27.2727116" lon="151.282035">
  <ele>372.11</ele>
  <time>2026-09-01T19:58:35Z</time>
  <course>88.42</course>
  <speed>25.4</speed>
  <fix>3d</fix>
</trkpt>
<trkpt lat="-27.2727089" lon="151.2821341">
  <ele>372.19</ele>
  <time>2026-09-01T19:58:35Z</time>
  <course>87.68</course>
  <speed>25.410487992165756</speed>
  <fix>3d</fix>
</trkpt>
<trkpt lat="-27.2727103" lon="151.2820863">
  <ele>372.1</ele>
  <time>2026-09-01T19:58:35Z</time>
  <course>88.4</course>
  <speed>25.4</speed>
  <fix>3d</fix>
</trkpt>
<trkpt lat="-27.2727083" lon="151.2821597">
  <ele>372.19</ele>
  <time>2026-09-01T19:58:35Z</time>
  <course>87.65</course>
  <speed>25.410487992165756</speed>
  <fix>3d</fix>
</trkpt>
<trkpt lat="-27.2727103" lon="151.2820863">
  <ele>372.1</ele>
  <time>2026-09-01T19:58:35Z</time>
  <course>88.4</course>
  <speed>25.4</speed>
  <fix>3d</fix>
</trkpt>
<trkpt lat="-27.2727077" lon="151.2821858">
  <ele>372.18</ele>
  <time>2026-09-01T19:58:35Z</time>
  <course>87.66</course>
  <speed>25.410777241162855</speed>
  <fix>3d</fix>
</trkpt>
<trkpt lat="-27.2727091" lon="151.2821376">
  <ele>372.09</ele>
  <time>2026-09-01T19:58:35Z</time>
  <course>88.4</course>
  <speed>25.4</speed>
  <fix>3d</fix>
</trkpt>
<trkpt lat="-27.272707" lon="151.2822115">
  <ele>372.18</ele>
  <time>2026-09-01T19:58:35Z</time>
  <course>87.65</course>
  <speed>25.410777241162855</speed>
  <fix>3d</fix>
</trkpt>
<trkpt lat="-27.2727091" lon="151.2821376">
  <ele>372.09</ele>
  <time>2026-09-01T19:58:35Z</time>
  <course>88.4</course>
  <speed>25.4</speed>
  <fix>3d</fix>
</trkpt>
<trkpt lat="-27.2727064" lon="151.2822371">
  <ele>372.18</ele>
  <time>2026-09-01T19:58:35Z</time>
  <course>87.6</course>
  <speed>25.410777241162855</speed>
  <fix>3d</fix>
</trkpt>
<trkpt lat="-27.2727078" lon="151.2821889">
  <ele>372.08</ele>
  <time>2026-09-01T19:58:35Z</time>
  <course>88.39</course>
  <speed>25.4</speed>
  <fix>3d</fix>
</trkpt>
<trkpt lat="-27.2727057" lon="151.2822628">
  <ele>372.18</ele>
  <time>2026-09-01T19:58:35Z</time>
  <course>87.6</course>
  <speed>25.410777241162855</speed>
  <fix>3d</fix>
</trkpt>
<trkpt lat="-27.2727078" lon="151.2821889">
  <ele>372.08</ele>
  <time>2026-09-01T19:58:35Z</time>
  <course>88.39</course>
  <speed>25.4</speed>
  <fix>3d</fix>
</trkpt>
<trkpt lat="-27.2727051" lon="151.2822884">
  <ele>372.18</ele>
  <time>2026-09-01T19:58:35Z</time>
  <course>87.62</course>
  <speed>25.42077300162212</speed>
  <fix>3d</fix>
</trkpt>
<trkpt lat="-27.2727065" lon="151.2822402">
  <ele>372.08</ele>
  <time>2026-09-01T19:58:35Z</time>
  <course>88.38</course>
  <speed>25.4</speed>
  <fix>3d</fix>
</trkpt>
<trkpt lat="-27.2727044" lon="151.2823141">
  <ele>372.18</ele>
  <time>2026-09-01T19:58:35Z</time>
  <course>87.65</course>
  <speed>25.42077300162212</speed>
  <fix>3d</fix>
</trkpt>
<trkpt lat="-27.2727065" lon="151.2822402">
  <ele>372.08</ele>
  <time>2026-09-01T19:58:35Z</time>
  <course>88.38</course>
  <speed>25.4</speed>
  <fix>3d</fix>
</trkpt>
<trkpt lat="-27.2727038" lon="151.2823397">
  <ele>372.18</ele>
  <time>2026-09-01T19:58:35Z</time>
  <course>87.67</course>
  <speed>25.42077300162212</speed>
  <fix>3d</fix>
</trkpt>
<trkpt lat="-27.2727052" lon="151.2822916">
  <ele>372.07</ele>
  <time>2026-09-01T19:58:35Z</time>
  <course>88.38</course>
  <speed>25.4</speed>
  <fix>3d</fix>
</trkpt>
<trkpt lat="-27.2727032" lon="151.2823654">
  <ele>372.18</ele>
  <time>2026-09-01T19:58:35Z</time>
  <course>87.66</course>
  <speed>25.420483866362574</speed>
  <fix>3d</fix>
</trkpt>
<trkpt lat="-27.2727052" lon="151.2822916">
  <ele>372.07</ele>
  <time>2026-09-01T19:58:35Z</time>
  <course>88.38</course>
  <speed>25.4</speed>
  <fix>3d</fix>
</trkpt>
<trkpt lat="-27.2727025" lon="151.282391">
  <ele>372.18</ele>
  <time>2026-09-01T19:58:35Z</time>
  <course>87.64</course>
  <speed>25.420483866362574</speed>
  <fix>3d</fix>
</trkpt>
<trkpt lat="-27.2727039" lon="151.2823431">
  <ele>372.07</ele>
  <time>2026-09-01T19:58:35Z</time>
  <course>88.38</course>
  <speed>25.4</speed>
  <fix>3d</fix>
</trkpt>
<trkpt lat="-27.2727019" lon="151.2824167">
  <ele>372.18</ele>
  <time>2026-09-01T19:58:35Z</time>
  <course>87.62</course>
  <speed>25.420483866362574</speed>
  <fix>3d</fix>
</trkpt>
<trkpt lat="-27.2727039" lon="151.2823431">
  <ele>372.07</ele>
  <time>2026-09-01T19:58:35Z</time>
  <course>88.38</course>
  <speed>25.4</speed>
  <fix>3d</fix>
</trkpt>
<trkpt lat="-27.2727013" lon="151.2824424">
  <ele>372.18</ele>
  <time>2026-09-01T19:58:35Z</time>
  <course>87.61</course>
  <speed>25.420198661694208</speed>
  <fix>3d</fix>
</trkpt>
<trkpt lat="-27.2727027" lon="151.2823944">
  <ele>372.07</ele>
  <time>2026-09-01T19:58:35Z</time>
  <course>88.4</course>
  <speed>25.41</speed>
  <fix>3d</fix>
</trkpt>
<trkpt lat="-27.2727006" lon="151.2824681">
  <ele>372.18</ele>
  <time>2026-09-01T19:58:35Z</time>
  <course>87.65</course>
  <speed>25.420198661694208</speed>
  <fix>3d</fix>
</trkpt>
<trkpt lat="-27.2727027" lon="151.2823944">
  <ele>372.07</ele>
  <time>2026-09-01T19:58:35Z</time>
  <course>88.4</course>
  <speed>25.41</speed>
  <fix>3d</fix>
</trkpt>
<trkpt lat="-27.2727" lon="151.2824937">
  <ele>372.18</ele>
  <time>2026-09-01T19:58:35Z</time>
  <course>87.65</course>
  <speed>25.420198661694208</speed>
  <fix>3d</fix>
</trkpt>
<trkpt lat="-27.2727014" lon="151.2824457">
  <ele>372.07</ele>
  <time>2026-09-01T19:58:35Z</time>
  <course>88.41</course>
  <speed>25.41</speed>
  <fix>3d</fix>
</trkpt>
<trkpt lat="-27.2726994" lon="151.2825194">
  <ele>372.19</ele>
  <time>2026-09-01T19:58:35Z</time>
  <course>87.68</course>
  <speed>25.420198661694208</speed>
  <fix>3d</fix>
</trkpt>
<trkpt lat="-27.2727014" lon="151.2824457">
  <ele>372.07</ele>
  <time>2026-09-01T19:58:35Z</time>
  <course>88.41</course>
  <speed>25.41</speed>
  <fix>3d</fix>
</trkpt>
<trkpt lat="-27.2726988" lon="151.282545">
  <ele>372.19</ele>
  <time>2026-09-01T19:58:35Z</time>
  <course>87.69</course>
  <speed>25.420198661694208</speed>
  <fix>3d</fix>
</trkpt>
<trkpt lat="-27.2727001" lon="151.282497">
  <ele>372.07</ele>
  <time>2026-09-01T19:58:35Z</time>
  <course>88.41</course>
  <speed>25.41</speed>
  <fix>3d</fix>
</trkpt>
<trkpt lat="-27.2726981" lon="151.2825707">
  <ele>372.19</ele>
  <time>2026-09-01T19:58:35Z</time>
  <course>87.64</course>
  <speed>25.420198661694208</speed>
  <fix>3d</fix>
</trkpt>
<trkpt lat="-27.2727001" lon="151.282497">
  <ele>372.07</ele>
  <time>2026-09-01T19:58:35Z</time>
  <course>88.41</course>
  <speed>25.41</speed>
  <fix>3d</fix>
</trkpt>
<trkpt lat="-27.2726975" lon="151.2825964">
  <ele>372.18</ele>
  <time>2026-09-01T19:58:35Z</time>
  <course>87.61</course>
  <speed>25.420483866362574</speed>
  <fix>3d</fix>
</trkpt>
<trkpt lat="-27.2726989" lon="151.2825484">
  <ele>372.06</ele>
  <time>2026-09-01T19:58:35Z</time>
  <course>88.42</course>
  <speed>25.41</speed>
  <fix>3d</fix>
</trkpt>
<trkpt lat="-27.2726969" lon="151.2826218">
  <ele>372.18</ele>
  <time>2026-09-01T19:58:35Z</time>
  <course>87.64</course>
  <speed>25.42077300162212</speed>
  <fix>3d</fix>
</trkpt>
<trkpt lat="-27.2726989" lon="151.2825484">
  <ele>372.06</ele>
  <time>2026-09-01T19:58:35Z</time>
  <course>88.42</course>
  <speed>25.41</speed>
  <fix>3d</fix>
</trkpt>
<trkpt lat="-27.2726962" lon="151.2826475">
  <ele>372.18</ele>
  <time>2026-09-01T19:58:35Z</time>
  <course>87.64</course>
  <speed>25.43076876541486</speed>
  <fix>3d</fix>
</trkpt>
<trkpt lat="-27.2726976" lon="151.2825997">
  <ele>372.06</ele>
  <time>2026-09-01T19:58:35Z</time>
  <course>88.4</course>
  <speed>25.41</speed>
  <fix>3d</fix>
</trkpt>
<trkpt lat="-27.2726956" lon="151.2826732">
  <ele>372.18</ele>
  <time>2026-09-01T19:58:35Z</time>
  <course>87.67</course>
  <speed>25.431061715941</speed>
  <fix>3d</fix>
</trkpt>
<trkpt lat="-27.2726976" lon="151.2825997">
  <ele>372.06</ele>
  <time>2026-09-01T19:58:35Z</time>
  <course>88.4</course>
  <speed>25.41</speed>
  <fix>3d</fix>
</trkpt>
<trkpt lat="-27.2726949" lon="151.2826988">
  <ele>372.17</ele>
  <time>2026-09-01T19:58:35Z</time>
  <course>87.65</course>
  <speed>25.441057367963303</speed>
  <fix>3d</fix>
</trkpt>
<trkpt lat="-27.2726963" lon="151.282651">
  <ele>372.05</ele>
  <time>2026-09-01T19:58:35Z</time>
  <course>88.38</course>
  <speed>25.41</speed>
  <fix>3d</fix>
</trkpt>
<trkpt lat="-27.2726943" lon="151.2827247">
  <ele>372.17</ele>
  <time>2026-09-01T19:58:35Z</time>
  <course>87.63</course>
  <speed>25.441057367963303</speed>
  <fix>3d</fix>
</trkpt>
<trkpt lat="-27.2726963" lon="151.282651">
  <ele>372.05</ele>
  <time>2026-09-01T19:58:35Z</time>
  <course>88.38</course>
  <speed>25.41</speed>
  <fix>3d</fix>
</trkpt>
<trkpt lat="-27.2726936" lon="151.2827504">
  <ele>372.17</ele>
  <time>2026-09-01T19:58:35Z</time>
  <course>87.56</course>
  <speed>25.44135413062756</speed>
  <fix>3d</fix>
</trkpt>
<trkpt lat="-27.272695" lon="151.2827024">
  <ele>372.04</ele>
  <time>2026-09-01T19:58:35Z</time>
  <course>88.36</course>
  <speed>25.42</speed>
  <fix>3d</fix>
</trkpt>
<trkpt lat="-27.272693" lon="151.2827761">
  <ele>372.17</ele>
  <time>2026-09-01T19:58:35Z</time>
  <course>87.53</course>
  <speed>25.44135413062756</speed>
  <fix>3d</fix>
</trkpt>
<trkpt lat="-27.272695" lon="151.2827024">
  <ele>372.04</ele>
  <time>2026-09-01T19:58:35Z</time>
  <course>88.36</course>
  <speed>25.42</speed>
  <fix>3d</fix>
</trkpt>
<trkpt lat="-27.2726923" lon="151.2828018">
  <ele>372.17</ele>
  <time>2026-09-01T19:58:35Z</time>
  <course>87.49</course>
  <speed>25.441654820392483</speed>
  <fix>3d</fix>
</trkpt>
<trkpt lat="-27.2726937" lon="151.2827537">
  <ele>372.04</ele>
  <time>2026-09-01T19:58:35Z</time>
  <course>88.34</course>
  <speed>25.42</speed>
  <fix>3d</fix>
</trkpt>
<trkpt lat="-27.2726916" lon="151.2828275">
  <ele>372.18</ele>
  <time>2026-09-01T19:58:35Z</time>
  <course>87.5</course>
  <speed>25.44195943711883</speed>
  <fix>3d</fix>
</trkpt>
<trkpt lat="-27.2726937" lon="151.2827537">
  <ele>372.04</ele>
  <time>2026-09-01T19:58:35Z</time>
  <course>88.34</course>
  <speed>25.42</speed>
  <fix>3d</fix>
</trkpt>
<trkpt lat="-27.2726909" lon="151.2828531">
  <ele>372.18</ele>
  <time>2026-09-01T19:58:35Z</time>
  <course>87.55</course>
  <speed>25.44195943711883</speed>
  <fix>3d</fix>
</trkpt>
<trkpt lat="-27.2726924" lon="151.2828051">
  <ele>372.04</ele>
  <time>2026-09-01T19:58:35Z</time>
  <course>88.3</course>
  <speed>25.42</speed>
  <fix>3d</fix>
</trkpt>
<trkpt lat="-27.2726902" lon="151.282879">
  <ele>372.19</ele>
  <time>2026-09-01T19:58:35Z</time>
  <course>87.56</course>
  <speed>25.442267980665562</speed>
  <fix>3d</fix>
</trkpt>
<trkpt lat="-27.2726924" lon="151.2828051">
  <ele>372.04</ele>
  <time>2026-09-01T19:58:35Z</time>
  <course>88.3</course>
  <speed>25.42</speed>
  <fix>3d</fix>
</trkpt>
<trkpt lat="-27.2726896" lon="151.2829047">
  <ele>372.19</ele>
  <time>2026-09-01T19:58:35Z</time>
  <course>87.51</course>
  <speed>25.442267980665562</speed>
  <fix>3d</fix>
</trkpt>
<trkpt lat="-27.2726911" lon="151.2828566">
  <ele>372.05</ele>
  <time>2026-09-01T19:58:35Z</time>
  <course>88.27</course>
  <speed>25.42</speed>
  <fix>3d</fix>
</trkpt>
<trkpt lat="-27.2726889" lon="151.2829304">
  <ele>372.19</ele>
  <time>2026-09-01T19:58:35Z</time>
  <course>87.51</course>
  <speed>25.442580450889803</speed>
  <fix>3d</fix>
</trkpt>
<trkpt lat="-27.2726911" lon="151.2828566">
  <ele>372.05</ele>
  <time>2026-09-01T19:58:35Z</time>
  <course>88.27</course>
  <speed>25.42</speed>
  <fix>3d</fix>
</trkpt>
<trkpt lat="-27.2726882" lon="151.2829561">
  <ele>372.19</ele>
  <time>2026-09-01T19:58:35Z</time>
  <course>87.52</course>
  <speed>25.44289684764689</speed>
  <fix>3d</fix>
</trkpt>
<trkpt lat="-27.2726897" lon="151.282908">
  <ele>372.06</ele>
  <time>2026-09-01T19:58:35Z</time>
  <course>88.25</course>
  <speed>25.42</speed>
  <fix>3d</fix>
</trkpt>
<trkpt lat="-27.2726875" lon="151.2829818">
  <ele>372.19</ele>
  <time>2026-09-01T19:58:35Z</time>
  <course>87.54</course>
  <speed>25.442580450889803</speed>
  <fix>3d</fix>
</trkpt>
<trkpt lat="-27.2726897" lon="151.282908">
  <ele>372.06</ele>
  <time>2026-09-01T19:58:35Z</time>
  <course>88.25</course>
  <speed>25.42</speed>
  <fix>3d</fix>
</trkpt>
<trkpt lat="-27.2726868" lon="151.2830076">
  <ele>372.18</ele>
  <time>2026-09-01T19:58:35Z</time>
  <course>87.54</course>
  <speed>25.442580450889803</speed>
  <fix>3d</fix>
</trkpt>
<trkpt lat="-27.2726883" lon="151.2829593">
  <ele>372.06</ele>
  <time>2026-09-01T19:58:35Z</time>
  <course>88.24</course>
  <speed>25.41</speed>
  <fix>3d</fix>
</trkpt>
<trkpt lat="-27.2726861" lon="151.2830333">
  <ele>372.18</ele>
  <time>2026-09-01T19:58:35Z</time>
  <course>87.51</course>
  <speed>25.442580450889803</speed>
  <fix>3d</fix>
</trkpt>
<trkpt lat="-27.2726883" lon="151.2829593">
  <ele>372.06</ele>
  <time>2026-09-01T19:58:35Z</time>
  <course>88.24</course>
  <speed>25.41</speed>
  <fix>3d</fix>
</trkpt>
<trkpt lat="-27.2726854" lon="151.283059">
  <ele>372.18</ele>
  <time>2026-09-01T19:58:35Z</time>
  <course>87.54</course>
  <speed>25.45257550818777</speed>
  <fix>3d</fix>
</trkpt>
<trkpt lat="-27.2726868" lon="151.2830106">
  <ele>372.05</ele>
  <time>2026-09-01T19:58:35Z</time>
  <course>88.24</course>
  <speed>25.41</speed>
  <fix>3d</fix>
</trkpt>
<trkpt lat="-27.2726847" lon="151.2830847">
  <ele>372.17</ele>
  <time>2026-09-01T19:58:35Z</time>
  <course>87.48</course>
  <speed>25.45257550818777</speed>
  <fix>3d</fix>
</trkpt>
<trkpt lat="-27.2726868" lon="151.2830106">
  <ele>372.05</ele>
  <time>2026-09-01T19:58:35Z</time>
  <course>88.24</course>
  <speed>25.41</speed>
  <fix>3d</fix>
</trkpt>
<trkpt lat="-27.272684" lon="151.2831105">
  <ele>372.17</ele>
  <time>2026-09-01T19:58:35Z</time>
  <course>87.47</course>
  <speed>25.45257550818777</speed>
  <fix>3d</fix>
</trkpt>
<trkpt lat="-27.2726855" lon="151.2830619">
  <ele>372.05</ele>
  <time>2026-09-01T19:58:35Z</time>
  <course>88.25</course>
  <speed>25.41</speed>
  <fix>3d</fix>
</trkpt>
<trkpt lat="-27.2726833" lon="151.2831362">
  <ele>372.17</ele>
  <time>2026-09-01T19:58:35Z</time>
  <course>87.5</course>
  <speed>25.45257550818777</speed>
  <fix>3d</fix>
</trkpt>
<trkpt lat="-27.2726855" lon="151.2830619">
  <ele>372.05</ele>
  <time>2026-09-01T19:58:35Z</time>
  <course>88.25</course>
  <speed>25.41</speed>
  <fix>3d</fix>
</trkpt>
<trkpt lat="-27.2726826" lon="151.2831617">
  <ele>372.17</ele>
  <time>2026-09-01T19:58:35Z</time>
  <course>87.55</course>
  <speed>25.45257550818777</speed>
  <fix>3d</fix>
</trkpt>
<trkpt lat="-27.2726841" lon="151.2831133">
  <ele>372.05</ele>
  <time>2026-09-01T19:58:35Z</time>
  <course>88.24</course>
  <speed>25.41</speed>
  <fix>3d</fix>
</trkpt>
<trkpt lat="-27.2726819" lon="151.2831874">
  <ele>372.16</ele>
  <time>2026-09-01T19:58:35Z</time>
  <course>87.5</course>
  <speed>25.46257056936711</speed>
  <fix>3d</fix>
</trkpt>
<trkpt lat="-27.2726841" lon="151.2831133">
  <ele>372.05</ele>
  <time>2026-09-01T19:58:35Z</time>
  <course>88.24</course>
  <speed>25.41</speed>
  <fix>3d</fix>
</trkpt>
<trkpt lat="-27.2726812" lon="151.283213">
  <ele>372.16</ele>
  <time>2026-09-01T19:58:35Z</time>
  <course>87.45</course>
  <speed>25.45257550818777</speed>
  <fix>3d</fix>
</trkpt>
<trkpt lat="-27.2726827" lon="151.2831646">
  <ele>372.04</ele>
  <time>2026-09-01T19:58:35Z</time>
  <course>88.25</course>
  <speed>25.42</speed>
  <fix>3d</fix>
</trkpt>
<trkpt lat="-27.2726805" lon="151.2832386">
  <ele>372.15</ele>
  <time>2026-09-01T19:58:35Z</time>
  <course>87.49</course>
  <speed>25.452891780699495</speed>
  <fix>3d</fix>
</trkpt>
<trkpt lat="-27.2726827" lon="151.2831646">
  <ele>372.04</ele>
  <time>2026-09-01T19:58:35Z</time>
  <course>88.25</course>
  <speed>25.42</speed>
  <fix>3d</fix>
</trkpt>
<trkpt lat="-27.2726798" lon="151.2832643">
  <ele>372.15</ele>
  <time>2026-09-01T19:58:35Z</time>
  <course>87.55</course>
  <speed>25.442580450889803</speed>
  <fix>3d</fix>
</trkpt>
<trkpt lat="-27.2726813" lon="151.283216">
  <ele>372.03</ele>
  <time>2026-09-01T19:58:35Z</time>
  <course>88.25</course>
  <speed>25.42</speed>
  <fix>3d</fix>
</trkpt>
<trkpt lat="-27.2726791" lon="151.2832898">
  <ele>372.15</ele>
  <time>2026-09-01T19:58:35Z</time>
  <course>87.52</course>
  <speed>25.43258539747778</speed>
  <fix>3d</fix>
</trkpt>
<trkpt lat="-27.2726813" lon="151.283216">
  <ele>372.03</ele>
  <time>2026-09-01T19:58:35Z</time>
  <course>88.25</course>
  <speed>25.42</speed>
  <fix>3d</fix>
</trkpt>
<trkpt lat="-27.2726784" lon="151.2833152">
  <ele>372.14</ele>
  <time>2026-09-01T19:58:35Z</time>
  <course>87.58</course>
  <speed>25.422590347956284</speed>
  <fix>3d</fix>
</trkpt>
<trkpt lat="-27.2726799" lon="151.2832674">
  <ele>372.03</ele>
  <time>2026-09-01T19:58:35Z</time>
  <course>88.24</course>
  <speed>25.42</speed>
  <fix>3d</fix>
</trkpt>
<trkpt lat="-27.2726777" lon="151.2833407">
  <ele>372.14</ele>
  <time>2026-09-01T19:58:35Z</time>
  <course>87.54</course>
  <speed>25.422277632029747</speed>
  <fix>3d</fix>
</trkpt>
<trkpt lat="-27.2726799" lon="151.2832674">
  <ele>372.03</ele>
  <time>2026-09-01T19:58:35Z</time>
  <course>88.24</course>
  <speed>25.42</speed>
  <fix>3d</fix>
</trkpt>
<trkpt lat="-27.272677" lon="151.2833662">
  <ele>372.14</ele>
  <time>2026-09-01T19:58:35Z</time>
  <course>87.54</course>
  <speed>25.412282463407337</speed>
  <fix>3d</fix>
</trkpt>
<trkpt lat="-27.2726785" lon="151.2833188">
  <ele>372.02</ele>
  <time>2026-09-01T19:58:35Z</time>
  <course>88.25</course>
  <speed>25.42</speed>
  <fix>3d</fix>
</trkpt>
<trkpt lat="-27.2726764" lon="151.2833917">
  <ele>372.13</ele>
  <time>2026-09-01T19:58:35Z</time>
  <course>87.56</course>
  <speed>25.412595302329905</speed>
  <fix>3d</fix>
</trkpt>
<trkpt lat="-27.2726785" lon="151.2833188">
  <ele>372.02</ele>
  <time>2026-09-01T19:58:35Z</time>
  <course>88.25</course>
  <speed>25.42</speed>
  <fix>3d</fix>
</trkpt>
<trkpt lat="-27.2726757" lon="151.2834172">
  <ele>372.13</ele>
  <time>2026-09-01T19:58:35Z</time>
  <course>87.55</course>
  <speed>25.412282463407337</speed>
  <fix>3d</fix>
</trkpt>
<trkpt lat="-27.2726771" lon="151.2833703">
  <ele>372.02</ele>
  <time>2026-09-01T19:58:35Z</time>
  <course>88.25</course>
  <speed>25.42</speed>
  <fix>3d</fix>
</trkpt>
<trkpt lat="-27.272675" lon="151.2834427">
  <ele>372.12</ele>
  <time>2026-09-01T19:58:35Z</time>
  <course>87.54</course>
  <speed>25.412282463407337</speed>
  <fix>3d</fix>
</trkpt>
<trkpt lat="-27.2726771" lon="151.2833703">
  <ele>372.02</ele>
  <time>2026-09-01T19:58:35Z</time>
  <course>88.25</course>
  <speed>25.42</speed>
  <fix>3d</fix>
</trkpt>
<trkpt lat="-27.2726743" lon="151.2834683">
  <ele>372.12</ele>
  <time>2026-09-01T19:58:35Z</time>
  <course>87.57</course>
  <speed>25.412595302329905</speed>
  <fix>3d</fix>
</trkpt>
<trkpt lat="-27.2726758" lon="151.2834216">
  <ele>372.01</ele>
  <time>2026-09-01T19:58:35Z</time>
  <course>88.25</course>
  <speed>25.43</speed>
  <fix>3d</fix>
</trkpt>
<trkpt lat="-27.2726736" lon="151.2834938">
  <ele>372.12</ele>
  <time>2026-09-01T19:58:35Z</time>
  <course>87.58</course>
  <speed>25.402600260603243</speed>
  <fix>3d</fix>
</trkpt>
<trkpt lat="-27.2726758" lon="151.2834216">
  <ele>372.01</ele>
  <time>2026-09-01T19:58:35Z</time>
  <course>88.25</course>
  <speed>25.43</speed>
  <fix>3d</fix>
</trkpt>
<trkpt lat="-27.2726729" lon="151.2835194">
  <ele>372.12</ele>
  <time>2026-09-01T19:58:35Z</time>
  <course>87.54</course>
  <speed>25.402600260603243</speed>
  <fix>3d</fix>
</trkpt>
<trkpt lat="-27.2726744" lon="151.283473">
  <ele>372.0</ele>
  <time>2026-09-01T19:58:35Z</time>
  <course>88.25</course>
  <speed>25.43</speed>
  <fix>3d</fix>
</trkpt>
<trkpt lat="-27.2726722" lon="151.283545">
  <ele>372.12</ele>
  <time>2026-09-01T19:58:35Z</time>
  <course>87.55</course>
  <speed>25.402917155318992</speed>
  <fix>3d</fix>
</trkpt>
<trkpt lat="-27.2726744" lon="151.283473">
  <ele>372.0</ele>
  <time>2026-09-01T19:58:35Z</time>
  <course>88.25</course>
  <speed>25.43</speed>
  <fix>3d</fix>
</trkpt>
<trkpt lat="-27.2726715" lon="151.2835705">
  <ele>372.12</ele>
  <time>2026-09-01T19:58:35Z</time>
  <course>87.55</course>
  <speed>25.402917155318992</speed>
  <fix>3d</fix>
</trkpt>
<trkpt lat="-27.272673" lon="151.2835243">
  <ele>372.0</ele>
  <time>2026-09-01T19:58:35Z</time>
  <course>88.24</course>
  <speed>25.44</speed>
  <fix>3d</fix>
</trkpt>
<trkpt lat="-27.2726708" lon="151.2835963">
  <ele>372.11</ele>
  <time>2026-09-01T19:58:35Z</time>
  <course>87.56</course>
  <speed>25.402917155318992</speed>
  <fix>3d</fix>
</trkpt>
<trkpt lat="-27.272673" lon="151.2835243">
  <ele>372.0</ele>
  <time>2026-09-01T19:58:35Z</time>
  <course>88.24</course>
  <speed>25.44</speed>
  <fix>3d</fix>
</trkpt>
<trkpt lat="-27.2726701" lon="151.2836221">
  <ele>372.11</ele>
  <time>2026-09-01T19:58:35Z</time>
  <course>87.55</course>
  <speed>25.402917155318992</speed>
  <fix>3d</fix>
</trkpt>
<trkpt lat="-27.2726716" lon="151.2835758">
  <ele>372.0</ele>
  <time>2026-09-01T19:58:35Z</time>
  <course>88.22</course>
  <speed>25.44</speed>
  <fix>3d</fix>
</trkpt>
<trkpt lat="-27.2726694" lon="151.2836478">
  <ele>372.11</ele>
  <time>2026-09-01T19:58:35Z</time>
  <course>87.51</course>
  <speed>25.413232773498137</speed>
  <fix>3d</fix>
</trkpt>
<trkpt lat="-27.2726716" lon="151.2835758">
  <ele>372.0</ele>
  <time>2026-09-01T19:58:35Z</time>
  <course>88.22</course>
  <speed>25.44</speed>
  <fix>3d</fix>
</trkpt>
<trkpt lat="-27.2726687" lon="151.2836735">
  <ele>372.11</ele>
  <time>2026-09-01T19:58:35Z</time>
  <course>87.51</course>
  <speed>25.413232773498137</speed>
  <fix>3d</fix>
</trkpt>
<trkpt lat="-27.2726701" lon="151.2836272">
  <ele>372.0</ele>
  <time>2026-09-01T19:58:35Z</time>
  <course>88.2</course>
  <speed>25.44</speed>
  <fix>3d</fix>
</trkpt>
<trkpt lat="-27.2726679" lon="151.283699">
  <ele>372.11</ele>
  <time>2026-09-01T19:58:35Z</time>
  <course>87.49</course>
  <speed>25.423552072831995</speed>
  <fix>3d</fix>
</trkpt>
<trkpt lat="-27.2726701" lon="151.2836272">
  <ele>372.0</ele>
  <time>2026-09-01T19:58:35Z</time>
  <course>88.2</course>
  <speed>25.44</speed>
  <fix>3d</fix>
</trkpt>
<trkpt lat="-27.2726672" lon="151.2837247">
  <ele>372.11</ele>
  <time>2026-09-01T19:58:35Z</time>
  <course>87.45</course>
  <speed>25.423552072831995</speed>
  <fix>3d</fix>
</trkpt>
<trkpt lat="-27.2726686" lon="151.2836785">
  <ele>371.99</ele>
  <time>2026-09-01T19:58:35Z</time>
  <course>88.18</course>
  <speed>25.45</speed>
  <fix>3d</fix>
</trkpt>
<trkpt lat="-27.2726665" lon="151.2837504">
  <ele>372.1</ele>
  <time>2026-09-01T19:58:35Z</time>
  <course>87.45</course>
  <speed>25.423552072831995</speed>
  <fix>3d</fix>
</trkpt>
<trkpt lat="-27.2726686" lon="151.2836785">
  <ele>371.99</ele>
  <time>2026-09-01T19:58:35Z</time>
  <course>88.18</course>
  <speed>25.45</speed>
  <fix>3d</fix>
</trkpt>
<trkpt lat="-27.2726658" lon="151.2837761">
  <ele>372.1</ele>
  <time>2026-09-01T19:58:35Z</time>
  <course>87.47</course>
  <speed>25.423552072831995</speed>
  <fix>3d</fix>
</trkpt>
<trkpt lat="-27.2726672" lon="151.28373">
  <ele>371.99</ele>
  <time>2026-09-01T19:58:35Z</time>
  <course>88.17</course>
  <speed>25.45</speed>
  <fix>3d</fix>
</trkpt>
<trkpt lat="-27.272665" lon="151.283802">
  <ele>372.1</ele>
  <time>2026-09-01T19:58:35Z</time>
  <course>87.46</course>
  <speed>25.423552072831995</speed>
  <fix>3d</fix>
</trkpt>
<trkpt lat="-27.2726672" lon="151.28373">
  <ele>371.99</ele>
  <time>2026-09-01T19:58:35Z</time>
  <course>88.17</course>
  <speed>25.45</speed>
  <fix>3d</fix>
</trkpt>
<trkpt lat="-27.2726643" lon="151.2838277">
  <ele>372.1</ele>
  <time>2026-09-01T19:58:35Z</time>
  <course>87.45</course>
  <speed>25.423552072831995</speed>
  <fix>3d</fix>
</trkpt>
<trkpt lat="-27.2726658" lon="151.2837814">
  <ele>371.99</ele>
  <time>2026-09-01T19:58:35Z</time>
  <course>88.16</course>
  <speed>25.45</speed>
  <fix>3d</fix>
</trkpt>
<trkpt lat="-27.2726636" lon="151.2838534">
  <ele>372.1</ele>
  <time>2026-09-01T19:58:35Z</time>
  <course>87.49</course>
  <speed>25.423552072831995</speed>
  <fix>3d</fix>
</trkpt>
<trkpt lat="-27.2726658" lon="151.2837814">
  <ele>371.99</ele>
  <time>2026-09-01T19:58:35Z</time>
  <course>88.16</course>
  <speed>25.45</speed>
  <fix>3d</fix>
</trkpt>
<trkpt lat="-27.2726628" lon="151.2838791">
  <ele>372.11</ele>
  <time>2026-09-01T19:58:35Z</time>
  <course>87.52</course>
  <speed>25.423552072831995</speed>
  <fix>3d</fix>
</trkpt>
<trkpt lat="-27.2726643" lon="151.2838327">
  <ele>371.99</ele>
  <time>2026-09-01T19:58:35Z</time>
  <course>88.16</course>
  <speed>25.45</speed>
  <fix>3d</fix>
</trkpt>
<trkpt lat="-27.2726621" lon="151.2839048">
  <ele>372.11</ele>
  <time>2026-09-01T19:58:35Z</time>
  <course>87.49</course>
  <speed>25.433546744408257</speed>
  <fix>3d</fix>
</trkpt>
<trkpt lat="-27.2726643" lon="151.2838327">
  <ele>371.99</ele>
  <time>2026-09-01T19:58:35Z</time>
  <course>88.16</course>
  <speed>25.45</speed>
  <fix>3d</fix>
</trkpt>
<trkpt lat="-27.2726614" lon="151.2839305">
  <ele>372.12</ele>
  <time>2026-09-01T19:58:35Z</time>
  <course>87.44</course>
  <speed>25.433546744408257</speed>
  <fix>3d</fix>
</trkpt>
<trkpt lat="-27.2726628" lon="151.2838842">
  <ele>371.99</ele>
  <time>2026-09-01T19:58:35Z</time>
  <course>88.17</course>
  <speed>25.44</speed>
  <fix>3d</fix>
</trkpt>
<trkpt lat="-27.2726606" lon="151.2839563">
  <ele>372.13</ele>
  <time>2026-09-01T19:58:35Z</time>
  <course>87.48</course>
  <speed>25.433546744408257</speed>
  <fix>3d</fix>
</trkpt>
<trkpt lat="-27.2726628" lon="151.2838842">
  <ele>371.99</ele>
  <time>2026-09-01T19:58:35Z</time>
  <course>88.17</course>
  <speed>25.44</speed>
  <fix>3d</fix>
</trkpt>
<trkpt lat="-27.2726599" lon="151.283982">
  <ele>372.13</ele>
  <time>2026-09-01T19:58:35Z</time>
  <course>87.51</course>
  <speed>25.43322236760415</speed>
  <fix>3d</fix>
</trkpt>
<trkpt lat="-27.2726613" lon="151.2839358">
  <ele>372.0</ele>
  <time>2026-09-01T19:58:35Z</time>
  <course>88.17</course>
  <speed>25.44</speed>
  <fix>3d</fix>
</trkpt>
<trkpt lat="-27.2726592" lon="151.2840078">
  <ele>372.13</ele>
  <time>2026-09-01T19:58:35Z</time>
  <course>87.49</course>
  <speed>25.44289684764689</speed>
  <fix>3d</fix>
</trkpt>
<trkpt lat="-27.2726613" lon="151.2839358">
  <ele>372.0</ele>
  <time>2026-09-01T19:58:35Z</time>
  <course>88.17</course>
  <speed>25.44</speed>
  <fix>3d</fix>
</trkpt>
<trkpt lat="-27.2726585" lon="151.2840335">
  <ele>372.13</ele>
  <time>2026-09-01T19:58:35Z</time>
  <course>87.49</course>
  <speed>25.44289684764689</speed>
  <fix>3d</fix>
</trkpt>
<trkpt lat="-27.2726599" lon="151.2839872">
  <ele>372.01</ele>
  <time>2026-09-01T19:58:35Z</time>
  <course>88.18</course>
  <speed>25.44</speed>
  <fix>3d</fix>
</trkpt>
<trkpt lat="-27.2726578" lon="151.2840593">
  <ele>372.13</ele>
  <time>2026-09-01T19:58:35Z</time>
  <course>87.49</course>
  <speed>25.44289684764689</speed>
  <fix>3d</fix>
</trkpt>
<trkpt lat="-27.2726599" lon="151.2839872">
  <ele>372.01</ele>
  <time>2026-09-01T19:58:35Z</time>
  <course>88.18</course>
  <speed>25.44</speed>
  <fix>3d</fix>
</trkpt>
<trkpt lat="-27.272657" lon="151.284085">
  <ele>372.13</ele>
  <time>2026-09-01T19:58:35Z</time>
  <course>87.44</course>
  <speed>25.44321717079033</speed>
  <fix>3d</fix>
</trkpt>
<trkpt lat="-27.2726585" lon="151.2840385">
  <ele>372.01</ele>
  <time>2026-09-01T19:58:35Z</time>
  <course>88.2</course>
  <speed>25.44</speed>
  <fix>3d</fix>
</trkpt>
<trkpt lat="-27.2726563" lon="151.2841108">
  <ele>372.13</ele>
  <time>2026-09-01T19:58:35Z</time>
  <course>87.45</course>
  <speed>25.44321717079033</speed>
  <fix>3d</fix>
</trkpt>
<trkpt lat="-27.2726585" lon="151.2840385">
  <ele>372.01</ele>
  <time>2026-09-01T19:58:35Z</time>
  <course>88.2</course>
  <speed>25.44</speed>
  <fix>3d</fix>
</trkpt>
<trkpt lat="-27.2726556" lon="151.2841365">
  <ele>372.14</ele>
  <time>2026-09-01T19:58:35Z</time>
  <course>87.46</course>
  <speed>25.44321717079033</speed>
  <fix>3d</fix>
</trkpt>
<trkpt lat="-27.272657" lon="151.2840899">
  <ele>372.01</ele>
  <time>2026-09-01T19:58:35Z</time>
  <course>88.19</course>
  <speed>25.43</speed>
  <fix>3d</fix>
</trkpt>
<trkpt lat="-27.2726549" lon="151.2841623">
  <ele>372.14</ele>
  <time>2026-09-01T19:58:35Z</time>
  <course>87.54</course>
  <speed>25.45321197805888</speed>
  <fix>3d</fix>
</trkpt>
<trkpt lat="-27.272657" lon="151.2840899">
  <ele>372.01</ele>
  <time>2026-09-01T19:58:35Z</time>
  <course>88.19</course>
  <speed>25.43</speed>
  <fix>3d</fix>
</trkpt>
<trkpt lat="-27.2726542" lon="151.284188">
  <ele>372.14</ele>
  <time>2026-09-01T19:58:35Z</time>
  <course>87.57</course>
  <speed>25.452891780699495</speed>
  <fix>3d</fix>
</trkpt>
<trkpt lat="-27.2726556" lon="151.2841412">
  <ele>372.02</ele>
  <time>2026-09-01T19:58:35Z</time>
  <course>88.19</course>
  <speed>25.43</speed>
  <fix>3d</fix>
</trkpt>
<trkpt lat="-27.2726534" lon="151.2842137">
  <ele>372.15</ele>
  <time>2026-09-01T19:58:35Z</time>
  <course>87.51</course>
  <speed>25.462886717730967</speed>
  <fix>3d</fix>
</trkpt>
<trkpt lat="-27.2726556" lon="151.2841412">
  <ele>372.02</ele>
  <time>2026-09-01T19:58:35Z</time>
  <course>88.19</course>
  <speed>25.43</speed>
  <fix>3d</fix>
</trkpt>
<trkpt lat="-27.2726527" lon="151.2842395">
  <ele>372.15</ele>
  <time>2026-09-01T19:58:35Z</time>
  <course>87.45</course>
  <speed>25.452891780699495</speed>
  <fix>3d</fix>
</trkpt>
<trkpt lat="-27.2726542" lon="151.2841927">
  <ele>372.03</ele>
  <time>2026-09-01T19:58:35Z</time>
  <course>88.2</course>
  <speed>25.43</speed>
  <fix>3d</fix>
</trkpt>
<trkpt lat="-27.272652" lon="151.2842652">
  <ele>372.15</ele>
  <time>2026-09-01T19:58:35Z</time>
  <course>87.5</course>
  <speed>25.462886717730967</speed>
  <fix>3d</fix>
</trkpt>
<trkpt lat="-27.2726542" lon="151.2841927">
  <ele>372.03</ele>
  <time>2026-09-01T19:58:35Z</time>
  <course>88.2</course>
  <speed>25.43</speed>
  <fix>3d</fix>
</trkpt>
<trkpt lat="-27.2726513" lon="151.284291">
  <ele>372.16</ele>
  <time>2026-09-01T19:58:35Z</time>
  <course>87.53</course>
  <speed>25.462886717730967</speed>
  <fix>3d</fix>
</trkpt>
<trkpt lat="-27.2726527" lon="151.284244">
  <ele>372.04</ele>
  <time>2026-09-01T19:58:35Z</time>
  <course>88.2</course>
  <speed>25.43</speed>
  <fix>3d</fix>
</trkpt>
<trkpt lat="-27.2726506" lon="151.2843167">
  <ele>372.16</ele>
  <time>2026-09-01T19:58:35Z</time>
  <course>87.56</course>
  <speed>25.463206789404982</speed>
  <fix>3d</fix>
</trkpt>
<trkpt lat="-27.2726527" lon="151.284244">
  <ele>372.04</ele>
  <time>2026-09-01T19:58:35Z</time>
  <course>88.2</course>
  <speed>25.43</speed>
  <fix>3d</fix>
</trkpt>
<trkpt lat="-27.2726499" lon="151.2843426">
  <ele>372.16</ele>
  <time>2026-09-01T19:58:35Z</time>
  <course>87.54</course>
  <speed>25.463206789404982</speed>
  <fix>3d</fix>
</trkpt>
<trkpt lat="-27.2726513" lon="151.2842954">
  <ele>372.04</ele>
  <time>2026-09-01T19:58:35Z</time>
  <course>88.19</course>
  <speed>25.42</speed>
  <fix>3d</fix>
</trkpt>
<trkpt lat="-27.2726491" lon="151.2843683">
  <ele>372.16</ele>
  <time>2026-09-01T19:58:35Z</time>
  <course>87.53</course>
  <speed>25.463206789404982</speed>
  <fix>3d</fix>
</trkpt>
<trkpt lat="-27.2726513" lon="151.2842954">
  <ele>372.04</ele>
  <time>2026-09-01T19:58:35Z</time>
  <course>88.19</course>
  <speed>25.42</speed>
  <fix>3d</fix>
</trkpt>
<trkpt lat="-27.2726484" lon="151.2843941">
  <ele>372.16</ele>
  <time>2026-09-01T19:58:35Z</time>
  <course>87.54</course>
  <speed>25.462886717730967</speed>
  <fix>3d</fix>
</trkpt>
<trkpt lat="-27.2726499" lon="151.2843467">
  <ele>372.05</ele>
  <time>2026-09-01T19:58:35Z</time>
  <course>88.19</course>
  <speed>25.42</speed>
  <fix>3d</fix>
</trkpt>
<trkpt lat="-27.2726477" lon="151.2844198">
  <ele>372.16</ele>
  <time>2026-09-01T19:58:35Z</time>
  <course>87.48</course>
  <speed>25.473201604823842</speed>
  <fix>3d</fix>
</trkpt>
<trkpt lat="-27.2726499" lon="151.2843467">
  <ele>372.05</ele>
  <time>2026-09-01T19:58:35Z</time>
  <course>88.19</course>
  <speed>25.42</speed>
  <fix>3d</fix>
</trkpt>
<trkpt lat="-27.272647" lon="151.2844455">
  <ele>372.16</ele>
  <time>2026-09-01T19:58:36Z</time>
  <course>87.5</course>
  <speed>25.47288165873661</speed>
  <fix>3d</fix>
</trkpt>
<trkpt lat="-27.2726485" lon="151.2843982">
  <ele>372.05</ele>
  <time>2026-09-01T19:58:36Z</time>
  <course>88.2</course>
  <speed>25.42</speed>
  <fix>3d</fix>
</trkpt>
<trkpt lat="-27.2726463" lon="151.2844712">
  <ele>372.16</ele>
  <time>2026-09-01T19:58:36Z</time>
  <course>87.46</course>
  <speed>25.463206789404982</speed>
  <fix>3d</fix>
</trkpt>
<trkpt lat="-27.2726485" lon="151.2843982">
  <ele>372.05</ele>
  <time>2026-09-01T19:58:36Z</time>
  <course>88.2</course>
  <speed>25.42</speed>
  <fix>3d</fix>
</trkpt>
<trkpt lat="-27.2726455" lon="151.2844968">
  <ele>372.17</ele>
  <time>2026-09-01T19:58:36Z</time>
  <course>87.51</course>
  <speed>25.463530784241215</speed>
  <fix>3d</fix>
</trkpt>
<trkpt lat="-27.272647" lon="151.2844496">
  <ele>372.05</ele>
  <time>2026-09-01T19:58:36Z</time>
  <course>88.19</course>
  <speed>25.42</speed>
  <fix>3d</fix>
</trkpt>
<trkpt lat="-27.2726448" lon="151.2845225">
  <ele>372.17</ele>
  <time>2026-09-01T19:58:36Z</time>
  <course>87.45</course>
  <speed>25.46385870208991</speed>
  <fix>3d</fix>
</trkpt>
<trkpt lat="-27.272647" lon="151.2844496">
  <ele>372.05</ele>
  <time>2026-09-01T19:58:36Z</time>
  <course>88.19</course>
  <speed>25.42</speed>
  <fix>3d</fix>
</trkpt>
<trkpt lat="-27.2726441" lon="151.2845482">
  <ele>372.16</ele>
  <time>2026-09-01T19:58:36Z</time>
  <course>87.41</course>
  <speed>25.46419054279951</speed>
  <fix>3d</fix>
</trkpt>
<trkpt lat="-27.2726456" lon="151.2845009">
  <ele>372.05</ele>
  <time>2026-09-01T19:58:36Z</time>
  <course>88.17</course>
  <speed>25.42</speed>
  <fix>3d</fix>
</trkpt>
<trkpt lat="-27.2726433" lon="151.2845739">
  <ele>372.16</ele>
  <time>2026-09-01T19:58:36Z</time>
  <course>87.42</course>
  <speed>25.464526306216655</speed>
  <fix>3d</fix>
</trkpt>
<trkpt lat="-27.2726456" lon="151.2845009">
  <ele>372.05</ele>
  <time>2026-09-01T19:58:36Z</time>
  <course>88.17</course>
  <speed>25.42</speed>
  <fix>3d</fix>
</trkpt>
<trkpt lat="-27.2726426" lon="151.2845996">
  <ele>372.16</ele>
  <time>2026-09-01T19:58:36Z</time>
  <course>87.52</course>
  <speed>25.464865992186173</speed>
  <fix>3d</fix>
</trkpt>
<trkpt lat="-27.2726441" lon="151.2845523">
  <ele>372.06</ele>
  <time>2026-09-01T19:58:36Z</time>
  <course>88.12</course>
  <speed>25.42</speed>
  <fix>3d</fix>
</trkpt>
<trkpt lat="-27.2726418" lon="151.2846253">
  <ele>372.16</ele>
  <time>2026-09-01T19:58:36Z</time>
  <course>87.55</course>
  <speed>25.464865992186173</speed>
  <fix>3d</fix>
</trkpt>
<trkpt lat="-27.2726441" lon="151.2845523">
  <ele>372.06</ele>
  <time>2026-09-01T19:58:36Z</time>
  <course>88.12</course>
  <speed>25.42</speed>
  <fix>3d</fix>
</trkpt>
<trkpt lat="-27.272641" lon="151.284651">
  <ele>372.16</ele>
  <time>2026-09-01T19:58:36Z</time>
  <course>87.52</course>
  <speed>25.474860156632854</speed>
  <fix>3d</fix>
</trkpt>
<trkpt lat="-27.2726426" lon="151.2846037">
  <ele>372.06</ele>
  <time>2026-09-01T19:58:36Z</time>
  <course>88.09</course>
  <speed>25.42</speed>
  <fix>3d</fix>
</trkpt>
<trkpt lat="-27.2726403" lon="151.2846767">
  <ele>372.15</ele>
  <time>2026-09-01T19:58:36Z</time>
  <course>87.53</course>
  <speed>25.474860156632854</speed>
  <fix>3d</fix>
</trkpt>
<trkpt lat="-27.2726426" lon="151.2846037">
  <ele>372.06</ele>
  <time>2026-09-01T19:58:36Z</time>
  <course>88.09</course>
  <speed>25.42</speed>
  <fix>3d</fix>
</trkpt>
<trkpt lat="-27.2726395" lon="151.2847024">
  <ele>372.15</ele>
  <time>2026-09-01T19:58:36Z</time>
  <course>87.5</course>
  <speed>25.474860156632854</speed>
  <fix>3d</fix>
</trkpt>
<trkpt lat="-27.2726411" lon="151.284655">
  <ele>372.06</ele>
  <time>2026-09-01T19:58:36Z</time>
  <course>88.08</course>
  <speed>25.42</speed>
  <fix>3d</fix>
</trkpt>
<trkpt lat="-27.2726388" lon="151.2847281">
  <ele>372.15</ele>
  <time>2026-09-01T19:58:36Z</time>
  <course>87.47</course>
  <speed>25.474860156632854</speed>
  <fix>3d</fix>
</trkpt>
<trkpt lat="-27.2726411" lon="151.284655">
  <ele>372.06</ele>
  <time>2026-09-01T19:58:36Z</time>
  <course>88.08</course>
  <speed>25.42</speed>
  <fix>3d</fix>
</trkpt>
<trkpt lat="-27.272638" lon="151.2847538">
  <ele>372.15</ele>
  <time>2026-09-01T19:58:36Z</time>
  <course>87.45</course>
  <speed>25.47520363019695</speed>
  <fix>3d</fix>
</trkpt>
<trkpt lat="-27.2726395" lon="151.2847064">
  <ele>372.06</ele>
  <time>2026-09-01T19:58:36Z</time>
  <course>88.07</course>
  <speed>25.42</speed>
  <fix>3d</fix>
</trkpt>
<trkpt lat="-27.2726372" lon="151.2847795">
  <ele>372.15</ele>
  <time>2026-09-01T19:58:36Z</time>
  <course>87.5</course>
  <speed>25.47520363019695</speed>
  <fix>3d</fix>
</trkpt>
<trkpt lat="-27.2726395" lon="151.2847064">
  <ele>372.06</ele>
  <time>2026-09-01T19:58:36Z</time>
  <course>88.07</course>
  <speed>25.42</speed>
  <fix>3d</fix>
</trkpt>
<trkpt lat="-27.2726364" lon="151.2848052">
  <ele>372.16</ele>
  <time>2026-09-01T19:58:36Z</time>
  <course>87.64</course>
  <speed>25.47520363019695</speed>
  <fix>3d</fix>
</trkpt>
<trkpt lat="-27.272638" lon="151.2847577">
  <ele>372.06</ele>
  <time>2026-09-01T19:58:36Z</time>
  <course>88.06</course>
  <speed>25.42</speed>
  <fix>3d</fix>
</trkpt>
<trkpt lat="-27.2726357" lon="151.2848309">
  <ele>372.16</ele>
  <time>2026-09-01T19:58:36Z</time>
  <course>87.83</course>
  <speed>25.484179406055045</speed>
  <fix>3d</fix>
</trkpt>
<trkpt lat="-27.272638" lon="151.2847577">
  <ele>372.06</ele>
  <time>2026-09-01T19:58:36Z</time>
  <course>88.06</course>
  <speed>25.42</speed>
  <fix>3d</fix>
</trkpt>
<trkpt lat="-27.272635" lon="151.2848566">
  <ele>372.16</ele>
  <time>2026-09-01T19:58:36Z</time>
  <course>88.09</course>
  <speed>25.481636525152776</speed>
  <fix>3d</fix>
</trkpt>
<trkpt lat="-27.2726364" lon="151.2848091">
  <ele>372.06</ele>
  <time>2026-09-01T19:58:36Z</time>
  <course>88.09</course>
  <speed>25.43</speed>
  <fix>3d</fix>
</trkpt>
<trkpt lat="-27.2726344" lon="151.284882">
  <ele>372.18</ele>
  <time>2026-09-01T19:58:36Z</time>
  <course>88.31</course>
  <speed>25.47754501516973</speed>
  <fix>3d</fix>
</trkpt>
<trkpt lat="-27.2726364" lon="151.2848091">
  <ele>372.06</ele>
  <time>2026-09-01T19:58:36Z</time>
  <course>88.09</course>
  <speed>25.43</speed>
  <fix>3d</fix>
</trkpt>
<trkpt lat="-27.2726339" lon="151.2849077">
  <ele>372.19</ele>
  <time>2026-09-01T19:58:36Z</time>
  <course>88.51</course>
  <speed>25.48362807765017</speed>
  <fix>3d</fix>
</trkpt>
<trkpt lat="-27.272635" lon="151.2848604">
  <ele>372.07</ele>
  <time>2026-09-01T19:58:36Z</time>
  <course>88.37</course>
  <speed>25.43</speed>
  <fix>3d</fix>
</trkpt>
<trkpt lat="-27.2726336" lon="151.2849334">
  <ele>372.21</ele>
  <time>2026-09-01T19:58:36Z</time>
  <course>88.8</course>
  <speed>25.4806357848465</speed>
  <fix>3d</fix>
</trkpt>
<trkpt lat="-27.272635" lon="151.2848604">
  <ele>372.07</ele>
  <time>2026-09-01T19:58:36Z</time>
  <course>88.37</course>
  <speed>25.43</speed>
  <fix>3d</fix>
</trkpt>
<trkpt lat="-27.2726336" lon="151.2849591">
  <ele>372.23</ele>
  <time>2026-09-01T19:58:36Z</time>
  <course>89.06</course>
  <speed>25.4901961546003</speed>
  <fix>3d</fix>
</trkpt>
<trkpt lat="-27.272634" lon="151.2849118">
  <ele>372.1</ele>
  <time>2026-09-01T19:58:36Z</time>
  <course>89.12</course>
  <speed>25.43</speed>
  <fix>3d</fix>
</trkpt>
<trkpt lat="-27.2726339" lon="151.2849851">
  <ele>372.26</ele>
  <time>2026-09-01T19:58:36Z</time>
  <course>89.43</course>
  <speed>25.49345994564096</speed>
  <fix>3d</fix>
</trkpt>
<trkpt lat="-27.272634" lon="151.2849118">
  <ele>372.1</ele>
  <time>2026-09-01T19:58:36Z</time>
  <course>89.12</course>
  <speed>25.43</speed>
  <fix>3d</fix>
</trkpt>
<trkpt lat="-27.2726343" lon="151.2850108">
  <ele>372.29</ele>
  <time>2026-09-01T19:58:36Z</time>
  <course>89.91</course>
  <speed>25.49133186006569</speed>
  <fix>3d</fix>
</trkpt>
<trkpt lat="-27.2726338" lon="151.2849632">
  <ele>372.14</ele>
  <time>2026-09-01T19:58:36Z</time>
  <course>90.3</course>
  <speed>25.43</speed>
  <fix>3d</fix>
</trkpt>
<trkpt lat="-27.2726352" lon="151.2850367">
  <ele>372.32</ele>
  <time>2026-09-01T19:58:36Z</time>
  <course>90.53</course>
  <speed>25.503303707559144</speed>
  <fix>3d</fix>
</trkpt>
<trkpt lat="-27.2726338" lon="151.2849632">
  <ele>372.14</ele>
  <time>2026-09-01T19:58:36Z</time>
  <course>90.3</course>
  <speed>25.43</speed>
  <fix>3d</fix>
</trkpt>
<trkpt lat="-27.2726363" lon="151.2850623">
  <ele>372.36</ele>
  <time>2026-09-01T19:58:36Z</time>
  <course>91.2</course>
  <speed>25.499568623802247</speed>
  <fix>3d</fix>
</trkpt>
<trkpt lat="-27.2726345" lon="151.2850148">
  <ele>372.2</ele>
  <time>2026-09-01T19:58:36Z</time>
  <course>91.73</course>
  <speed>25.43</speed>
  <fix>3d</fix>
</trkpt>
<trkpt lat="-27.2726377" lon="151.285088">
  <ele>372.4</ele>
  <time>2026-09-01T19:58:36Z</time>
  <course>91.85</course>
  <speed>25.500119607562628</speed>
  <fix>3d</fix>
</trkpt>
<trkpt lat="-27.2726345" lon="151.2850148">
  <ele>372.2</ele>
  <time>2026-09-01T19:58:36Z</time>
  <course>91.73</course>
  <speed>25.43</speed>
  <fix>3d</fix>
</trkpt>
<trkpt lat="-27.2726394" lon="151.2851136">
  <ele>372.45</ele>
  <time>2026-09-01T19:58:36Z</time>
  <course>92.57</course>
  <speed>25.504142800729454</speed>
  <fix>3d</fix>
</trkpt>
<trkpt lat="-27.2726365" lon="151.2850661">
  <ele>372.28</ele>
  <time>2026-09-01T19:58:36Z</time>
  <course>93.23</course>
  <speed>25.43</speed>
  <fix>3d</fix>
</trkpt>
<trkpt lat="-27.2726414" lon="151.2851393">
  <ele>372.49</ele>
  <time>2026-09-01T19:58:36Z</time>
  <course>93.32</course>
  <speed>25.50130388823285</speed>
  <fix>3d</fix>
</trkpt>
<trkpt lat="-27.2726365" lon="151.2850661">
  <ele>372.28</ele>
  <time>2026-09-01T19:58:36Z</time>
  <course>93.23</course>
  <speed>25.43</speed>
  <fix>3d</fix>
</trkpt>
<trkpt lat="-27.2726437" lon="151.2851648">
  <ele>372.54</ele>
  <time>2026-09-01T19:58:36Z</time>
  <course>94.02</course>
  <speed>25.491271055010184</speed>
  <fix>3d</fix>
</trkpt>
<trkpt lat="-27.2726396" lon="151.2851174">
  <ele>372.36</ele>
  <time>2026-09-01T19:58:36Z</time>
  <course>94.7</course>
  <speed>25.43</speed>
  <fix>3d</fix>
</trkpt>
<trkpt lat="-27.2726462" lon="151.2851904">
  <ele>372.59</ele>
  <time>2026-09-01T19:58:36Z</time>
  <course>94.69</course>
  <speed>25.484828820300127</speed>
  <fix>3d</fix>
</trkpt>
<trkpt lat="-27.2726396" lon="151.2851174">
  <ele>372.36</ele>
  <time>2026-09-01T19:58:36Z</time>
  <course>94.7</course>
  <speed>25.43</speed>
  <fix>3d</fix>
</trkpt>
<trkpt lat="-27.272649" lon="151.2852159">
  <ele>372.63</ele>
  <time>2026-09-01T19:58:36Z</time>
  <course>95.38</course>
  <speed>25.48933110146282</speed>
  <fix>3d</fix>
</trkpt>
<trkpt lat="-27.2726439" lon="151.2851685">
  <ele>372.45</ele>
  <time>2026-09-01T19:58:36Z</time>
  <course>96.1</course>
  <speed>25.42</speed>
  <fix>3d</fix>
</trkpt>
<trkpt lat="-27.272652" lon="151.2852413">
  <ele>372.67</ele>
  <time>2026-09-01T19:58:36Z</time>
  <course>96.04</course>
  <speed>25.47852821494994</speed>
  <fix>3d</fix>
</trkpt>
<trkpt lat="-27.2726439" lon="151.2851685">
  <ele>372.45</ele>
  <time>2026-09-01T19:58:36Z</time>
  <course>96.1</course>
  <speed>25.42</speed>
  <fix>3d</fix>
</trkpt>
<trkpt lat="-27.2726553" lon="151.2852667">
  <ele>372.71</ele>
  <time>2026-09-01T19:58:36Z</time>
  <course>96.67</course>
  <speed>25.479501564983565</speed>
  <fix>3d</fix>
</trkpt>
<trkpt lat="-27.2726493" lon="151.2852195">
  <ele>372.53</ele>
  <time>2026-09-01T19:58:36Z</time>
  <course>97.45</course>
  <speed>25.41</speed>
  <fix>3d</fix>
</trkpt>
<trkpt lat="-27.2726589" lon="151.2852921">
  <ele>372.74</ele>
  <time>2026-09-01T19:58:36Z</time>
  <course>97.35</course>
  <speed>25.47374530766923</speed>
  <fix>3d</fix>
</trkpt>
<trkpt lat="-27.2726493" lon="151.2852195">
  <ele>372.53</ele>
  <time>2026-09-01T19:58:36Z</time>
  <course>97.45</course>
  <speed>25.41</speed>
  <fix>3d</fix>
</trkpt>
<trkpt lat="-27.2726627" lon="151.2853174">
  <ele>372.77</ele>
  <time>2026-09-01T19:58:36Z</time>
  <course>97.98</course>
  <speed>25.47116408804278</speed>
  <fix>3d</fix>
</trkpt>
<trkpt lat="-27.2726557" lon="151.2852704">
  <ele>372.61</ele>
  <time>2026-09-01T19:58:36Z</time>
  <course>98.76</course>
  <speed>25.41</speed>
  <fix>3d</fix>
</trkpt>
<trkpt lat="-27.2726668" lon="151.2853427">
  <ele>372.79</ele>
  <time>2026-09-01T19:58:36Z</time>
  <course>98.58</course>
  <speed>25.469927365424507</speed>
  <fix>3d</fix>
</trkpt>
<trkpt lat="-27.2726557" lon="151.2852704">
  <ele>372.61</ele>
  <time>2026-09-01T19:58:36Z</time>
  <course>98.76</course>
  <speed>25.41</speed>
  <fix>3d</fix>
</trkpt>
<trkpt lat="-27.272671" lon="151.2853679">
  <ele>372.82</ele>
  <time>2026-09-01T19:58:36Z</time>
  <course>99.23</course>
  <speed>25.469717312918885</speed>
  <fix>3d</fix>
</trkpt>
<trkpt lat="-27.2726632" lon="151.285321">
  <ele>372.68</ele>
  <time>2026-09-01T19:58:36Z</time>
  <course>100.04</course>
  <speed>25.41</speed>
  <fix>3d</fix>
</trkpt>
<trkpt lat="-27.2726756" lon="151.285393">
  <ele>372.84</ele>
  <time>2026-09-01T19:58:36Z</time>
  <course>99.85</course>
  <speed>25.460435974271928</speed>
  <fix>3d</fix>
</trkpt>
<trkpt lat="-27.2726632" lon="151.285321">
  <ele>372.68</ele>
  <time>2026-09-01T19:58:36Z</time>
  <course>100.04</course>
  <speed>25.41</speed>
  <fix>3d</fix>
</trkpt>
<trkpt lat="-27.2726803" lon="151.2854179">
  <ele>372.86</ele>
  <time>2026-09-01T19:58:36Z</time>
  <course>100.4</course>
  <speed>25.46139234213243</speed>
  <fix>3d</fix>
</trkpt>
<trkpt lat="-27.2726716" lon="151.2853715">
  <ele>372.73</ele>
  <time>2026-09-01T19:58:36Z</time>
  <course>101.27</course>
  <speed>25.4</speed>
  <fix>3d</fix>
</trkpt>
<trkpt lat="-27.2726852" lon="151.285443">
  <ele>372.88</ele>
  <time>2026-09-01T19:58:36Z</time>
  <course>100.97</course>
  <speed>25.462492022580978</speed>
  <fix>3d</fix>
</trkpt>
<trkpt lat="-27.2726716" lon="151.2853715">
  <ele>372.73</ele>
  <time>2026-09-01T19:58:36Z</time>
  <course>101.27</course>
  <speed>25.4</speed>
  <fix>3d</fix>
</trkpt>
<trkpt lat="-27.2726904" lon="151.285468">
  <ele>372.9</ele>
  <time>2026-09-01T19:58:36Z</time>
  <course>101.5</course>
  <speed>25.458868788695227</speed>
  <fix>3d</fix>
</trkpt>
<trkpt lat="-27.272681" lon="151.2854217">
  <ele>372.77</ele>
  <time>2026-09-01T19:58:36Z</time>
  <course>102.41</course>
  <speed>25.41</speed>
  <fix>3d</fix>
</trkpt>
<trkpt lat="-27.2726957" lon="151.2854929">
  <ele>372.91</ele>
  <time>2026-09-01T19:58:36Z</time>
  <course>102.05</course>
  <speed>25.456914581307764</speed>
  <fix>3d</fix>
</trkpt>
<trkpt lat="-27.272681" lon="151.2854217">
  <ele>372.77</ele>
  <time>2026-09-01T19:58:36Z</time>
  <course>102.41</course>
  <speed>25.41</speed>
  <fix>3d</fix>
</trkpt>
<trkpt lat="-27.2727012" lon="151.285518">
  <ele>372.93</ele>
  <time>2026-09-01T19:58:36Z</time>
  <course>102.55</course>
  <speed>25.451734714946248</speed>
  <fix>3d</fix>
</trkpt>
<trkpt lat="-27.2726913" lon="151.2854719">
  <ele>372.8</ele>
  <time>2026-09-01T19:58:36Z</time>
  <course>103.43</course>
  <speed>25.41</speed>
  <fix>3d</fix>
</trkpt>
<trkpt lat="-27.2727069" lon="151.2855429">
  <ele>372.93</ele>
  <time>2026-09-01T19:58:36Z</time>
  <course>103.07</course>
  <speed>25.445412160151776</speed>
  <fix>3d</fix>
</trkpt>
<trkpt lat="-27.2726913" lon="151.2854719">
  <ele>372.8</ele>
  <time>2026-09-01T19:58:36Z</time>
  <course>103.43</course>
  <speed>25.41</speed>
  <fix>3d</fix>
</trkpt>
<trkpt lat="-27.2727127" lon="151.2855677">
  <ele>372.94</ele>
  <time>2026-09-01T19:58:36Z</time>
  <course>103.58</course>
  <speed>25.44998428290281</speed>
  <fix>3d</fix>
</trkpt>
<trkpt lat="-27.2727022" lon="151.2855218">
  <ele>372.82</ele>
  <time>2026-09-01T19:58:36Z</time>
  <course>104.32</course>
  <speed>25.41</speed>
  <fix>3d</fix>
</trkpt>
<trkpt lat="-27.2727189" lon="151.2855933">
  <ele>372.94</ele>
  <time>2026-09-01T19:58:36Z</time>
  <course>104.03</course>
  <speed>25.446109722313153</speed>
  <fix>3d</fix>
</trkpt>
<trkpt lat="-27.2727022" lon="151.2855218">
  <ele>372.82</ele>
  <time>2026-09-01T19:58:36Z</time>
  <course>104.32</course>
  <speed>25.41</speed>
  <fix>3d</fix>
</trkpt>
<trkpt lat="-27.272725" lon="151.2856178">
  <ele>372.94</ele>
  <time>2026-09-01T19:58:36Z</time>
  <course>104.42</course>
  <speed>25.438052205308487</speed>
  <fix>3d</fix>
</trkpt>
<trkpt lat="-27.2727138" lon="151.2855715">
  <ele>372.83</ele>
  <time>2026-09-01T19:58:36Z</time>
  <course>105.13</course>
  <speed>25.41</speed>
  <fix>3d</fix>
</trkpt>
<trkpt lat="-27.2727312" lon="151.2856425">
  <ele>372.94</ele>
  <time>2026-09-01T19:58:36Z</time>
  <course>104.79</course>
  <speed>25.440585685082013</speed>
  <fix>3d</fix>
</trkpt>
<trkpt lat="-27.2727138" lon="151.2855715">
  <ele>372.83</ele>
  <time>2026-09-01T19:58:36Z</time>
  <course>105.13</course>
  <speed>25.41</speed>
  <fix>3d</fix>
</trkpt>
<trkpt lat="-27.2727376" lon="151.2856671">
  <ele>372.93</ele>
  <time>2026-09-01T19:58:36Z</time>
  <course>105.18</course>
  <speed>25.438429589894103</speed>
  <fix>3d</fix>
</trkpt>
<trkpt lat="-27.272726" lon="151.285621">
  <ele>372.83</ele>
  <time>2026-09-01T19:58:36Z</time>
  <course>105.88</course>
  <speed>25.41</speed>
  <fix>3d</fix>
</trkpt>
<trkpt lat="-27.2727441" lon="151.2856917">
  <ele>372.93</ele>
  <time>2026-09-01T19:58:36Z</time>
  <course>105.56</course>
  <speed>25.446581302799792</speed>
  <fix>3d</fix>
</trkpt>
<trkpt lat="-27.272726" lon="151.285621">
  <ele>372.83</ele>
  <time>2026-09-01T19:58:36Z</time>
  <course>105.88</course>
  <speed>25.41</speed>
  <fix>3d</fix>
</trkpt>
<trkpt lat="-27.2727507" lon="151.2857159">
  <ele>372.92</ele>
  <time>2026-09-01T19:58:36Z</time>
  <course>105.9</course>
  <speed>25.442949907587366</speed>
  <fix>3d</fix>
</trkpt>
<trkpt lat="-27.2727388" lon="151.2856703">
  <ele>372.82</ele>
  <time>2026-09-01T19:58:36Z</time>
  <course>106.54</course>
  <speed>25.41</speed>
  <fix>3d</fix>
</trkpt>
<trkpt lat="-27.2727574" lon="151.2857404">
  <ele>372.92</ele>
  <time>2026-09-01T19:58:36Z</time>
  <course>106.17</course>
  <speed>25.443588583374</speed>
  <fix>3d</fix>
</trkpt>
<trkpt lat="-27.2727388" lon="151.2856703">
  <ele>372.82</ele>
  <time>2026-09-01T19:58:36Z</time>
  <course>106.54</course>
  <speed>25.41</speed>
  <fix>3d</fix>
</trkpt>
<trkpt lat="-27.2727642" lon="151.2857649">
  <ele>372.91</ele>
  <time>2026-09-01T19:58:36Z</time>
  <course>106.44</course>
  <speed>25.444655627459372</speed>
  <fix>3d</fix>
</trkpt>
<trkpt lat="-27.272752" lon="151.2857194">
  <ele>372.81</ele>
  <time>2026-09-01T19:58:36Z</time>
  <course>107.12</course>
  <speed>25.42</speed>
  <fix>3d</fix>
</trkpt>
<trkpt lat="-27.2727711" lon="151.2857894">
  <ele>372.9</ele>
  <time>2026-09-01T19:58:36Z</time>
  <course>106.74</course>
  <speed>25.452654085576224</speed>
  <fix>3d</fix>
</trkpt>
<trkpt lat="-27.272752" lon="151.2857194">
  <ele>372.81</ele>
  <time>2026-09-01T19:58:36Z</time>
  <course>107.12</course>
  <speed>25.42</speed>
  <fix>3d</fix>
</trkpt>
<trkpt lat="-27.2727781" lon="151.2858138">
  <ele>372.89</ele>
  <time>2026-09-01T19:58:36Z</time>
  <course>107.0</course>
  <speed>25.448404665125867</speed>
  <fix>3d</fix>
</trkpt>
<trkpt lat="-27.2727657" lon="151.2857685">
  <ele>372.8</ele>
  <time>2026-09-01T19:58:36Z</time>
  <course>107.6</course>
  <speed>25.42</speed>
  <fix>3d</fix>
</trkpt>
<trkpt lat="-27.2727852" lon="151.2858383">
  <ele>372.89</ele>
  <time>2026-09-01T19:58:36Z</time>
  <course>107.22</course>
  <speed>25.46037902310176</speed>
  <fix>3d</fix>
</trkpt>
<trkpt lat="-27.2727657" lon="151.2857685">
  <ele>372.8</ele>
  <time>2026-09-01T19:58:36Z</time>
  <course>107.6</course>
  <speed>25.42</speed>
  <fix>3d</fix>
</trkpt>
<trkpt lat="-27.2727923" lon="151.2858627">
  <ele>372.88</ele>
  <time>2026-09-01T19:58:36Z</time>
  <course>107.42</course>
  <speed>25.459931264636204</speed>
  <fix>3d</fix>
</trkpt>
<trkpt lat="-27.2727796" lon="151.2858174">
  <ele>372.78</ele>
  <time>2026-09-01T19:58:36Z</time>
  <course>107.99</course>
  <speed>25.43</speed>
  <fix>3d</fix>
</trkpt>
<trkpt lat="-27.2727995" lon="151.2858871">
  <ele>372.87</ele>
  <time>2026-09-01T19:58:36Z</time>
  <course>107.6</course>
  <speed>25.459640610189293</speed>
  <fix>3d</fix>
</trkpt>
<trkpt lat="-27.2727796" lon="151.2858174">
  <ele>372.78</ele>
  <time>2026-09-01T19:58:36Z</time>
  <course>107.99</course>
  <speed>25.43</speed>
  <fix>3d</fix>
</trkpt>
<trkpt lat="-27.2728067" lon="151.2859114">
  <ele>372.87</ele>
  <time>2026-09-01T19:58:36Z</time>
  <course>107.76</course>
  <speed>25.462698207377787</speed>
  <fix>3d</fix>
</trkpt>
<trkpt lat="-27.2727938" lon="151.2858662">
  <ele>372.77</ele>
  <time>2026-09-01T19:58:36Z</time>
  <course>108.3</course>
  <speed>25.44</speed>
  <fix>3d</fix>
</trkpt>
<trkpt lat="-27.2728139" lon="151.2859358">
  <ele>372.87</ele>
  <time>2026-09-01T19:58:36Z</time>
  <course>107.84</course>
  <speed>25.46582219367755</speed>
  <fix>3d</fix>
</trkpt>
<trkpt lat="-27.2727938" lon="151.2858662">
  <ele>372.77</ele>
  <time>2026-09-01T19:58:36Z</time>
  <course>108.3</course>
  <speed>25.44</speed>
  <fix>3d</fix>
</trkpt>
<trkpt lat="-27.2728212" lon="151.2859602">
  <ele>372.86</ele>
  <time>2026-09-01T19:58:36Z</time>
  <course>107.93</course>
  <speed>25.469012544659048</speed>
  <fix>3d</fix>
</trkpt>
<trkpt lat="-27.2728083" lon="151.285915">
  <ele>372.76</ele>
  <time>2026-09-01T19:58:36Z</time>
  <course>108.54</course>
  <speed>25.45</speed>
  <fix>3d</fix>
</trkpt>
<trkpt lat="-27.2728286" lon="151.2859846">
  <ele>372.85</ele>
  <time>2026-09-01T19:58:36Z</time>
  <course>108.0</course>
  <speed>25.475372421222815</speed>
  <fix>3d</fix>
</trkpt>
<trkpt lat="-27.2728083" lon="151.285915">
  <ele>372.76</ele>
  <time>2026-09-01T19:58:36Z</time>
  <course>108.54</course>
  <speed>25.45</speed>
  <fix>3d</fix>
</trkpt>
<trkpt lat="-27.2728359" lon="151.286009">
  <ele>372.85</ele>
  <time>2026-09-01T19:58:36Z</time>
  <course>108.12</course>
  <speed>25.481746407968195</speed>
  <fix>3d</fix>
</trkpt>
<trkpt lat="-27.272823" lon="151.2859638">
  <ele>372.75</ele>
  <time>2026-09-01T19:58:36Z</time>
  <course>108.69</course>
  <speed>25.45</speed>
  <fix>3d</fix>
</trkpt>
<trkpt lat="-27.2728433" lon="151.2860336">
  <ele>372.84</ele>
  <time>2026-09-01T19:58:36Z</time>
  <course>108.24</course>
  <speed>25.484938689351402</speed>
  <fix>3d</fix>
</trkpt>
<trkpt lat="-27.272823" lon="151.2859638">
  <ele>372.75</ele>
  <time>2026-09-01T19:58:36Z</time>
  <course>108.69</course>
  <speed>25.45</speed>
  <fix>3d</fix>
</trkpt>
<trkpt lat="-27.2728507" lon="151.286058">
  <ele>372.83</ele>
  <time>2026-09-01T19:58:36Z</time>
  <course>108.3</course>
  <speed>25.488134494309307</speed>
  <fix>3d</fix>
</trkpt>
<trkpt lat="-27.2728377" lon="151.2860126">
  <ele>372.73</ele>
  <time>2026-09-01T19:58:36Z</time>
  <course>108.77</course>
  <speed>25.46</speed>
  <fix>3d</fix>
</trkpt>
<trkpt lat="-27.2728581" lon="151.2860824">
  <ele>372.83</ele>
  <time>2026-09-01T19:58:36Z</time>
  <course>108.29</course>
  <speed>25.488134494309307</speed>
  <fix>3d</fix>
</trkpt>
<trkpt lat="-27.2728377" lon="151.2860126">
  <ele>372.73</ele>
  <time>2026-09-01T19:58:36Z</time>
  <course>108.77</course>
  <speed>25.46</speed>
  <fix>3d</fix>
</trkpt>
<trkpt lat="-27.2728657" lon="151.2861076">
  <ele>372.83</ele>
  <time>2026-09-01T19:58:36Z</time>
  <course>108.34</course>
  <speed>25.49441507467861</speed>
  <fix>3d</fix>
</trkpt>
<trkpt lat="-27.2728524" lon="151.2860614">
  <ele>372.73</ele>
  <time>2026-09-01T19:58:36Z</time>
  <course>108.81</course>
  <speed>25.47</speed>
  <fix>3d</fix>
</trkpt>
<trkpt lat="-27.272873" lon="151.2861318">
  <ele>372.84</ele>
  <time>2026-09-01T19:58:36Z</time>
  <course>108.33</course>
  <speed>25.49122398002889</speed>
  <fix>3d</fix>
</trkpt>
<trkpt lat="-27.2728524" lon="151.2860614">
  <ele>372.73</ele>
  <time>2026-09-01T19:58:36Z</time>
  <course>108.81</course>
  <speed>25.47</speed>
  <fix>3d</fix>
</trkpt>
<trkpt lat="-27.2728804" lon="151.2861562">
  <ele>372.84</ele>
  <time>2026-09-01T19:58:36Z</time>
  <course>108.29</course>
  <speed>25.497515565246744</speed>
  <fix>3d</fix>
</trkpt>
<trkpt lat="-27.2728672" lon="151.2861101">
  <ele>372.73</ele>
  <time>2026-09-01T19:58:36Z</time>
  <course>108.79</course>
  <speed>25.47</speed>
  <fix>3d</fix>
</trkpt>
<trkpt lat="-27.2728878" lon="151.2861806">
  <ele>372.84</ele>
  <time>2026-09-01T19:58:36Z</time>
  <course>108.29</course>
  <speed>25.500635286204147</speed>
  <fix>3d</fix>
</trkpt>
<trkpt lat="-27.2728672" lon="151.2861101">
  <ele>372.73</ele>
  <time>2026-09-01T19:58:36Z</time>
  <course>108.79</course>
  <speed>25.47</speed>
  <fix>3d</fix>
</trkpt>
<trkpt lat="-27.2728951" lon="151.286205">
  <ele>372.85</ele>
  <time>2026-09-01T19:58:36Z</time>
  <course>108.25</course>
  <speed>25.49428955668308</speed>
  <fix>3d</fix>
</trkpt>
<trkpt lat="-27.2728819" lon="151.2861589">
  <ele>372.73</ele>
  <time>2026-09-01T19:58:36Z</time>
  <course>108.73</course>
  <speed>25.48</speed>
  <fix>3d</fix>
</trkpt>
<trkpt lat="-27.2729025" lon="151.2862297">
  <ele>372.85</ele>
  <time>2026-09-01T19:58:36Z</time>
  <course>108.17</course>
  <speed>25.50377423049381</speed>
  <fix>3d</fix>
</trkpt>
<trkpt lat="-27.2728819" lon="151.2861589">
  <ele>372.73</ele>
  <time>2026-09-01T19:58:36Z</time>
  <course>108.73</course>
  <speed>25.48</speed>
  <fix>3d</fix>
</trkpt>
<trkpt lat="-27.2729098" lon="151.2862541">
  <ele>372.85</ele>
  <time>2026-09-01T19:58:36Z</time>
  <course>108.09</course>
  <speed>25.503813440346526</speed>
  <fix>3d</fix>
</trkpt>
<trkpt lat="-27.2728966" lon="151.2862077">
  <ele>372.74</ele>
  <time>2026-09-01T19:58:36Z</time>
  <course>108.62</course>
  <speed>25.48</speed>
  <fix>3d</fix>
</trkpt>
<trkpt lat="-27.272917" lon="151.2862786">
  <ele>372.86</ele>
  <time>2026-09-01T19:58:36Z</time>
  <course>108.05</course>
  <speed>25.49763322349743</speed>
  <fix>3d</fix>
</trkpt>
<trkpt lat="-27.2728966" lon="151.2862077">
  <ele>372.74</ele>
  <time>2026-09-01T19:58:36Z</time>
  <course>108.62</course>
  <speed>25.48</speed>
  <fix>3d</fix>
</trkpt>
<trkpt lat="-27.2729242" lon="151.2863031">
  <ele>372.87</ele>
  <time>2026-09-01T19:58:36Z</time>
  <course>108.01</course>
  <speed>25.4946621864264</speed>
  <fix>3d</fix>
</trkpt>
<trkpt lat="-27.2729111" lon="151.2862564">
  <ele>372.75</ele>
  <time>2026-09-01T19:58:36Z</time>
  <course>108.44</course>
  <speed>25.47</speed>
  <fix>3d</fix>
</trkpt>
<trkpt lat="-27.2729314" lon="151.2863275">
  <ele>372.88</ele>
  <time>2026-09-01T19:58:36Z</time>
  <course>108.01</course>
  <speed>25.501266635208534</speed>
  <fix>3d</fix>
</trkpt>
<trkpt lat="-27.2729111" lon="151.2862564">
  <ele>372.75</ele>
  <time>2026-09-01T19:58:36Z</time>
  <course>108.44</course>
  <speed>25.47</speed>
  <fix>3d</fix>
</trkpt>
<trkpt lat="-27.2729385" lon="151.286352">
  <ele>372.89</ele>
  <time>2026-09-01T19:58:36Z</time>
  <course>107.94</course>
  <speed>25.498433285204015</speed>
  <fix>3d</fix>
</trkpt>
<trkpt lat="-27.2729255" lon="151.2863053">
  <ele>372.77</ele>
  <time>2026-09-01T19:58:36Z</time>
  <course>108.23</course>
  <speed>25.47</speed>
  <fix>3d</fix>
</trkpt>
<trkpt lat="-27.2729456" lon="151.2863765">
  <ele>372.9</ele>
  <time>2026-09-01T19:58:36Z</time>
  <course>107.78</course>
  <speed>25.49260481002285</speed>
  <fix>3d</fix>
</trkpt>
<trkpt lat="-27.2729255" lon="151.2863053">
  <ele>372.77</ele>
  <time>2026-09-01T19:58:36Z</time>
  <course>108.23</course>
  <speed>25.47</speed>
  <fix>3d</fix>
</trkpt>
<trkpt lat="-27.2729524" lon="151.2864004">
  <ele>372.91</ele>
  <time>2026-09-01T19:58:36Z</time>
  <course>107.57</course>
  <speed>25.48687701543679</speed>
  <fix>3d</fix>
</trkpt>
<trkpt lat="-27.2729397" lon="151.2863542">
  <ele>372.8</ele>
  <time>2026-09-01T19:58:36Z</time>
  <course>108.02</course>
  <speed>25.47</speed>
  <fix>3d</fix>
</trkpt>
<trkpt lat="-27.2729594" lon="151.2864247">
  <ele>372.92</ele>
  <time>2026-09-01T19:58:36Z</time>
  <course>107.43</course>
  <speed>25.49078264785136</speed>
  <fix>3d</fix>
</trkpt>
<trkpt lat="-27.2729397" lon="151.2863542">
  <ele>372.8</ele>
  <time>2026-09-01T19:58:36Z</time>
  <course>108.02</course>
  <speed>25.47</speed>
  <fix>3d</fix>
</trkpt>
<trkpt lat="-27.2729663" lon="151.2864491">
  <ele>372.92</ele>
  <time>2026-09-01T19:58:36Z</time>
  <course>107.37</course>
  <speed>25.482262458423897</speed>
  <fix>3d</fix>
</trkpt>
<trkpt lat="-27.2729538" lon="151.2864032">
  <ele>372.82</ele>
  <time>2026-09-01T19:58:36Z</time>
  <course>107.79</course>
  <speed>25.46</speed>
  <fix>3d</fix>
</trkpt>
<trkpt lat="-27.2729731" lon="151.2864736">
  <ele>372.93</ele>
  <time>2026-09-01T19:58:36Z</time>
  <course>107.27</course>
  <speed>25.464337808001215</speed>
  <fix>3d</fix>
</trkpt>
<trkpt lat="-27.2729538" lon="151.2864032">
  <ele>372.82</ele>
  <time>2026-09-01T19:58:36Z</time>
  <course>107.79</course>
  <speed>25.46</speed>
  <fix>3d</fix>
</trkpt>
<trkpt lat="-27.2729799" lon="151.2864979">
  <ele>372.94</ele>
  <time>2026-09-01T19:58:36Z</time>
  <course>107.1</course>
  <speed>25.459051435589664</speed>
  <fix>3d</fix>
</trkpt>
<trkpt lat="-27.2729677" lon="151.2864522">
  <ele>372.84</ele>
  <time>2026-09-01T19:58:36Z</time>
  <course>107.54</course>
  <speed>25.46</speed>
  <fix>3d</fix>
</trkpt>
<trkpt lat="-27.2729867" lon="151.2865226">
  <ele>372.95</ele>
  <time>2026-09-01T19:58:36Z</time>
  <course>106.97</course>
  <speed>25.447995991826154</speed>
  <fix>3d</fix>
</trkpt>
<trkpt lat="-27.2729677" lon="151.2864522">
  <ele>372.84</ele>
  <time>2026-09-01T19:58:36Z</time>
  <course>107.54</course>
  <speed>25.46</speed>
  <fix>3d</fix>
</trkpt>
<trkpt lat="-27.2729934" lon="151.286547">
  <ele>372.96</ele>
  <time>2026-09-01T19:58:36Z</time>
  <course>106.82</course>
  <speed>25.44003930814573</speed>
  <fix>3d</fix>
</trkpt>
<trkpt lat="-27.2729814" lon="151.2865014">
  <ele>372.85</ele>
  <time>2026-09-01T19:58:36Z</time>
  <course>107.27</course>
  <speed>25.45</speed>
  <fix>3d</fix>
</trkpt>
<trkpt lat="-27.273" lon="151.2865714">
  <ele>372.97</ele>
  <time>2026-09-01T19:58:36Z</time>
  <course>106.7</course>
  <speed>25.438917036697926</speed>
  <fix>3d</fix>
</trkpt>
<trkpt lat="-27.2729814" lon="151.2865014">
  <ele>372.85</ele>
  <time>2026-09-01T19:58:36Z</time>
  <course>107.27</course>
  <speed>25.45</speed>
  <fix>3d</fix>
</trkpt>
<trkpt lat="-27.2730068" lon="151.2865967">
  <ele>372.97</ele>
  <time>2026-09-01T19:58:36Z</time>
  <course>106.62</course>
  <speed>25.4312760198933</speed>
  <fix>3d</fix>
</trkpt>
<trkpt lat="-27.2729949" lon="151.2865507">
  <ele>372.86</ele>
  <time>2026-09-01T19:58:36Z</time>
  <course>106.98</course>
  <speed>25.45</speed>
  <fix>3d</fix>
</trkpt>
<trkpt lat="-27.2730133" lon="151.2866212">
  <ele>372.97</ele>
  <time>2026-09-01T19:58:36Z</time>
  <course>106.5</course>
  <speed>25.423778240064948</speed>
  <fix>3d</fix>
</trkpt>
<trkpt lat="-27.2729949" lon="151.2865507">
  <ele>372.86</ele>
  <time>2026-09-01T19:58:36Z</time>
  <course>106.98</course>
  <speed>25.45</speed>
  <fix>3d</fix>
</trkpt>
<trkpt lat="-27.2730198" lon="151.2866457">
  <ele>372.97</ele>
  <time>2026-09-01T19:58:36Z</time>
  <course>106.39</course>
  <speed>25.43561676075499</speed>
  <fix>3d</fix>
</trkpt>
<trkpt lat="-27.2730081" lon="151.2865999">
  <ele>372.87</ele>
  <time>2026-09-01T19:58:36Z</time>
  <course>106.68</course>
  <speed>25.45</speed>
  <fix>3d</fix>
</trkpt>
<trkpt lat="-27.2730262" lon="151.2866704">
  <ele>372.97</ele>
  <time>2026-09-01T19:58:36Z</time>
  <course>106.27</course>
  <speed>25.44081170088722</speed>
  <fix>3d</fix>
</trkpt>
<trkpt lat="-27.2730081" lon="151.2865999">
  <ele>372.87</ele>
  <time>2026-09-01T19:58:36Z</time>
  <course>106.68</course>
  <speed>25.45</speed>
  <fix>3d</fix>
</trkpt>
<trkpt lat="-27.2730327" lon="151.2866952">
  <ele>372.97</ele>
  <time>2026-09-01T19:58:36Z</time>
  <course>106.07</course>
  <speed>25.45572823550723</speed>
  <fix>3d</fix>
</trkpt>
<trkpt lat="-27.2730211" lon="151.2866492">
  <ele>372.88</ele>
  <time>2026-09-01T19:58:36Z</time>
  <course>106.4</course>
  <speed>25.45</speed>
  <fix>3d</fix>
</trkpt>
<trkpt lat="-27.273039" lon="151.2867201">
  <ele>372.97</ele>
  <time>2026-09-01T19:58:36Z</time>
  <course>105.85</course>
  <speed>25.45566341700801</speed>
  <fix>3d</fix>
</trkpt>
<trkpt lat="-27.2730211" lon="151.2866492">
  <ele>372.88</ele>
  <time>2026-09-01T19:58:36Z</time>
  <course>106.4</course>
  <speed>25.45</speed>
  <fix>3d</fix>
</trkpt>
<trkpt lat="-27.2730454" lon="151.2867452">
  <ele>372.97</ele>
  <time>2026-09-01T19:58:36Z</time>
  <course>105.67</course>
  <speed>25.468146771997368</speed>
  <fix>3d</fix>
</trkpt>
<trkpt lat="-27.2730339" lon="151.2866986">
  <ele>372.88</ele>
  <time>2026-09-01T19:58:36Z</time>
  <course>106.12</course>
  <speed>25.46</speed>
  <fix>3d</fix>
</trkpt>
<trkpt lat="-27.2730517" lon="151.2867701">
  <ele>372.97</ele>
  <time>2026-09-01T19:58:36Z</time>
  <course>105.54</course>
  <speed>25.47116997705445</speed>
  <fix>3d</fix>
</trkpt>
<trkpt lat="-27.2730339" lon="151.2866986">
  <ele>372.88</ele>
  <time>2026-09-01T19:58:36Z</time>
  <course>106.12</course>
  <speed>25.46</speed>
  <fix>3d</fix>
</trkpt>
<trkpt lat="-27.2730579" lon="151.286795">
  <ele>372.97</ele>
  <time>2026-09-01T19:58:36Z</time>
  <course>105.45</course>
  <speed>25.483987129175844</speed>
  <fix>3d</fix>
</trkpt>
<trkpt lat="-27.2730465" lon="151.286748">
  <ele>372.88</ele>
  <time>2026-09-01T19:58:36Z</time>
  <course>105.82</course>
  <speed>25.46</speed>
  <fix>3d</fix>
</trkpt>
<trkpt lat="-27.273064" lon="151.28682">
  <ele>372.97</ele>
  <time>2026-09-01T19:58:36Z</time>
  <course>105.33</course>
  <speed>25.48997646134653</speed>
  <fix>3d</fix>
</trkpt>
<trkpt lat="-27.2730465" lon="151.286748">
  <ele>372.88</ele>
  <time>2026-09-01T19:58:36Z</time>
  <course>105.82</course>
  <speed>25.46</speed>
  <fix>3d</fix>
</trkpt>
<trkpt lat="-27.2730701" lon="151.286845">
  <ele>372.97</ele>
  <time>2026-09-01T19:58:36Z</time>
  <course>105.2</course>
  <speed>25.49345210049043</speed>
  <fix>3d</fix>
</trkpt>
<trkpt lat="-27.2730589" lon="151.2867976">
  <ele>372.88</ele>
  <time>2026-09-01T19:58:36Z</time>
  <course>105.53</course>
  <speed>25.47</speed>
  <fix>3d</fix>
</trkpt>
<trkpt lat="-27.2730762" lon="151.28687">
  <ele>372.98</ele>
  <time>2026-09-01T19:58:36Z</time>
  <course>105.01</course>
  <speed>25.490031384837483</speed>
  <fix>3d</fix>
</trkpt>
<trkpt lat="-27.2730589" lon="151.2867976">
  <ele>372.88</ele>
  <time>2026-09-01T19:58:36Z</time>
  <course>105.53</course>
  <speed>25.47</speed>
  <fix>3d</fix>
</trkpt>
<trkpt lat="-27.2730821" lon="151.2868948">
  <ele>372.99</ele>
  <time>2026-09-01T19:58:36Z</time>
  <course>104.81</course>
  <speed>25.496372290975046</speed>
  <fix>3d</fix>
</trkpt>
<trkpt lat="-27.2730711" lon="151.2868472">
  <ele>372.89</ele>
  <time>2026-09-01T19:58:36Z</time>
  <course>105.26</course>
  <speed>25.47</speed>
  <fix>3d</fix>
</trkpt>
<trkpt lat="-27.2730881" lon="151.2869197">
  <ele>373.0</ele>
  <time>2026-09-01T19:58:36Z</time>
  <course>104.67</course>
  <speed>25.490596305304436</speed>
  <fix>3d</fix>
</trkpt>
<trkpt lat="-27.2730711" lon="151.2868472">
  <ele>372.89</ele>
  <time>2026-09-01T19:58:36Z</time>
  <course>105.26</course>
  <speed>25.47</speed>
  <fix>3d</fix>
</trkpt>
<trkpt lat="-27.2730939" lon="151.2869444">
  <ele>373.01</ele>
  <time>2026-09-01T19:58:36Z</time>
  <course>104.57</course>
  <speed>25.475291951222072</speed>
  <fix>3d</fix>
</trkpt>
<trkpt lat="-27.273083" lon="151.2868969">
  <ele>372.91</ele>
  <time>2026-09-01T19:58:36Z</time>
  <course>105.0</course>
  <speed>25.46</speed>
  <fix>3d</fix>
</trkpt>
<trkpt lat="-27.2730997" lon="151.2869692">
  <ele>373.02</ele>
  <time>2026-09-01T19:58:36Z</time>
  <course>104.49</course>
  <speed>25.4697978005323</speed>
  <fix>3d</fix>
</trkpt>
<trkpt lat="-27.273083" lon="151.2868969">
  <ele>372.91</ele>
  <time>2026-09-01T19:58:36Z</time>
  <course>105.0</course>
  <speed>25.46</speed>
  <fix>3d</fix>
</trkpt>
<trkpt lat="-27.2731054" lon="151.286994">
  <ele>373.03</ele>
  <time>2026-09-01T19:58:36Z</time>
  <course>104.4</course>
  <speed>25.45726026107287</speed>
  <fix>3d</fix>
</trkpt>
<trkpt lat="-27.2730948" lon="151.2869466">
  <ele>372.92</ele>
  <time>2026-09-01T19:58:36Z</time>
  <course>104.73</course>
  <speed>25.46</speed>
  <fix>3d</fix>
</trkpt>
<trkpt lat="-27.2731111" lon="151.2870188">
  <ele>373.04</ele>
  <time>2026-09-01T19:58:36Z</time>
  <course>104.26</course>
  <speed>25.44729651652607</speed>
  <fix>3d</fix>
</trkpt>
<trkpt lat="-27.2730948" lon="151.2869466">
  <ele>372.92</ele>
  <time>2026-09-01T19:58:36Z</time>
  <course>104.73</course>
  <speed>25.46</speed>
  <fix>3d</fix>
</trkpt>
<trkpt lat="-27.2731168" lon="151.2870436">
  <ele>373.05</ele>
  <time>2026-09-01T19:58:36Z</time>
  <course>104.12</course>
  <speed>25.439862421011636</speed>
  <fix>3d</fix>
</trkpt>
<trkpt lat="-27.2731063" lon="151.2869964">
  <ele>372.94</ele>
  <time>2026-09-01T19:58:36Z</time>
  <course>104.5</course>
  <speed>25.45</speed>
  <fix>3d</fix>
</trkpt>
<trkpt lat="-27.2731224" lon="151.2870683">
  <ele>373.06</ele>
  <time>2026-09-01T19:58:36Z</time>
  <course>104.0</course>
  <speed>25.427546086872006</speed>
  <fix>3d</fix>
</trkpt>
<trkpt lat="-27.2731063" lon="151.2869964">
  <ele>372.94</ele>
  <time>2026-09-01T19:58:36Z</time>
  <course>104.5</course>
  <speed>25.45</speed>
  <fix>3d</fix>
</trkpt>
<trkpt lat="-27.2731279" lon="151.2870925">
  <ele>373.07</ele>
  <time>2026-09-01T19:58:36Z</time>
  <course>103.91</course>
  <speed>25.42020062863391</speed>
  <fix>3d</fix>
</trkpt>
<trkpt lat="-27.2731177" lon="151.2870463">
  <ele>372.96</ele>
  <time>2026-09-01T19:58:36Z</time>
  <course>104.31</course>
  <speed>25.44</speed>
  <fix>3d</fix>
</trkpt>
<trkpt lat="-27.2731336" lon="151.2871182">
  <ele>373.08</ele>
  <time>2026-09-01T19:58:36Z</time>
  <course>103.82</course>
  <speed>25.42015932286814</speed>
  <fix>3d</fix>
</trkpt>
<trkpt lat="-27.2731177" lon="151.2870463">
  <ele>372.96</ele>
  <time>2026-09-01T19:58:36Z</time>
  <course>104.31</course>
  <speed>25.44</speed>
  <fix>3d</fix>
</trkpt>
<trkpt lat="-27.2731391" lon="151.2871428">
  <ele>373.08</ele>
  <time>2026-09-01T19:58:36Z</time>
  <course>103.73</course>
  <speed>25.412894364869185</speed>
  <fix>3d</fix>
</trkpt>
<trkpt lat="-27.2731289" lon="151.2870962">
  <ele>372.97</ele>
  <time>2026-09-01T19:58:36Z</time>
  <course>104.14</course>
  <speed>25.43</speed>
  <fix>3d</fix>
</trkpt>
<trkpt lat="-27.2731446" lon="151.2871677">
  <ele>373.09</ele>
  <time>2026-09-01T19:58:36Z</time>
  <course>103.58</course>
  <speed>25.405662754590757</speed>
  <fix>3d</fix>
</trkpt>
<trkpt lat="-27.2731289" lon="151.2870962">
  <ele>372.97</ele>
  <time>2026-09-01T19:58:36Z</time>
  <course>104.14</course>
  <speed>25.43</speed>
  <fix>3d</fix>
</trkpt>
<trkpt lat="-27.2731501" lon="151.2871925">
  <ele>373.09</ele>
  <time>2026-09-01T19:58:36Z</time>
  <course>103.48</course>
  <speed>25.40578280628251</speed>
  <fix>3d</fix>
</trkpt>
<trkpt lat="-27.27314" lon="151.2871461">
  <ele>373.0</ele>
  <time>2026-09-01T19:58:36Z</time>
  <course>103.98</course>
  <speed>25.43</speed>
  <fix>3d</fix>
</trkpt>
<trkpt lat="-27.2731555" lon="151.2872174">
  <ele>373.1</ele>
  <time>2026-09-01T19:58:36Z</time>
  <course>103.4</course>
  <speed>25.3986318529168</speed>
  <fix>3d</fix>
</trkpt>
<trkpt lat="-27.27314" lon="151.2871461">
  <ele>373.0</ele>
  <time>2026-09-01T19:58:36Z</time>
  <course>103.98</course>
  <speed>25.43</speed>
  <fix>3d</fix>
</trkpt>
<trkpt lat="-27.273161" lon="151.2872424">
  <ele>373.1</ele>
  <time>2026-09-01T19:58:36Z</time>
  <course>103.32</course>
  <speed>25.398866116423388</speed>
  <fix>3d</fix>
</trkpt>
<trkpt lat="-27.273151" lon="151.2871959">
  <ele>373.01</ele>
  <time>2026-09-01T19:58:36Z</time>
  <course>103.82</course>
  <speed>25.42</speed>
  <fix>3d</fix>
</trkpt>
<trkpt lat="-27.2731664" lon="151.2872675">
  <ele>373.1</ele>
  <time>2026-09-01T19:58:36Z</time>
  <course>103.32</course>
  <speed>25.401515702807973</speed>
  <fix>3d</fix>
</trkpt>
<trkpt lat="-27.273151" lon="151.2871959">
  <ele>373.01</ele>
  <time>2026-09-01T19:58:36Z</time>
  <course>103.82</course>
  <speed>25.42</speed>
  <fix>3d</fix>
</trkpt>
<trkpt lat="-27.2731718" lon="151.2872925">
  <ele>373.11</ele>
  <time>2026-09-01T19:58:36Z</time>
  <course>103.32</course>
  <speed>25.406544432488257</speed>
  <fix>3d</fix>
</trkpt>
<trkpt lat="-27.2731619" lon="151.2872458">
  <ele>373.01</ele>
  <time>2026-09-01T19:58:36Z</time>
  <course>103.67</course>
  <speed>25.42</speed>
  <fix>3d</fix>
</trkpt>
<trkpt lat="-27.2731771" lon="151.2873175">
  <ele>373.11</ele>
  <time>2026-09-01T19:58:36Z</time>
  <course>103.27</course>
  <speed>25.41159184309397</speed>
  <fix>3d</fix>
</trkpt>
<trkpt lat="-27.2731619" lon="151.2872458">
  <ele>373.01</ele>
  <time>2026-09-01T19:58:36Z</time>
  <course>103.67</course>
  <speed>25.42</speed>
  <fix>3d</fix>
</trkpt>
<trkpt lat="-27.2731824" lon="151.2873425">
  <ele>373.11</ele>
  <time>2026-09-01T19:58:36Z</time>
  <course>103.2</course>
  <speed>25.406932124914256</speed>
  <fix>3d</fix>
</trkpt>
<trkpt lat="-27.2731726" lon="151.2872957">
  <ele>373.02</ele>
  <time>2026-09-01T19:58:36Z</time>
  <course>103.54</course>
  <speed>25.42</speed>
  <fix>3d</fix>
</trkpt>
<trkpt lat="-27.2731878" lon="151.2873675">
  <ele>373.11</ele>
  <time>2026-09-01T19:58:36Z</time>
  <course>103.12</course>
  <speed>25.414334537815467</speed>
  <fix>3d</fix>
</trkpt>
<trkpt lat="-27.2731726" lon="151.2872957">
  <ele>373.02</ele>
  <time>2026-09-01T19:58:36Z</time>
  <course>103.54</course>
  <speed>25.42</speed>
  <fix>3d</fix>
</trkpt>
<trkpt lat="-27.2731931" lon="151.2873925">
  <ele>373.11</ele>
  <time>2026-09-01T19:58:36Z</time>
  <course>103.04</course>
  <speed>25.419427609606004</speed>
  <fix>3d</fix>
</trkpt>
<trkpt lat="-27.2731833" lon="151.2873458">
  <ele>373.02</ele>
  <time>2026-09-01T19:58:36Z</time>
  <course>103.45</course>
  <speed>25.42</speed>
  <fix>3d</fix>
</trkpt>
<trkpt lat="-27.2731984" lon="151.2874176">
  <ele>373.11</ele>
  <time>2026-09-01T19:58:36Z</time>
  <course>102.98</course>
  <speed>25.42684604900891</speed>
  <fix>3d</fix>
</trkpt>
<trkpt lat="-27.2731833" lon="151.2873458">
  <ele>373.02</ele>
  <time>2026-09-01T19:58:36Z</time>
  <course>103.45</course>
  <speed>25.42</speed>
  <fix>3d</fix>
</trkpt>
<trkpt lat="-27.2732037" lon="151.2874426">
  <ele>373.11</ele>
  <time>2026-09-01T19:58:36Z</time>
  <course>102.89</course>
  <speed>25.431968071700627</speed>
  <fix>3d</fix>
</trkpt>
<trkpt lat="-27.2731938" lon="151.2873957">
  <ele>373.02</ele>
  <time>2026-09-01T19:58:36Z</time>
  <course>103.37</course>
  <speed>25.42</speed>
  <fix>3d</fix>
</trkpt>
<trkpt lat="-27.2732089" lon="151.2874677">
  <ele>373.11</ele>
  <time>2026-09-01T19:58:36Z</time>
  <course>102.88</course>
  <speed>25.437108719349375</speed>
  <fix>3d</fix>
</trkpt>
<trkpt lat="-27.2731938" lon="151.2873957">
  <ele>373.02</ele>
  <time>2026-09-01T19:58:36Z</time>
  <course>103.37</course>
  <speed>25.42</speed>
  <fix>3d</fix>
</trkpt>
<trkpt lat="-27.2732142" lon="151.2874927">
  <ele>373.11</ele>
  <time>2026-09-01T19:58:36Z</time>
  <course>102.84</course>
  <speed>25.442267980665562</speed>
  <fix>3d</fix>
</trkpt>
<trkpt lat="-27.2732043" lon="151.2874457">
  <ele>373.01</ele>
  <time>2026-09-01T19:58:36Z</time>
  <course>103.29</course>
  <speed>25.43</speed>
  <fix>3d</fix>
</trkpt>
<trkpt lat="-27.2732194" lon="151.2875178">
  <ele>373.11</ele>
  <time>2026-09-01T19:58:36Z</time>
  <course>102.82</course>
  <speed>25.439986242134648</speed>
  <fix>3d</fix>
</trkpt>
<trkpt lat="-27.2732043" lon="151.2874457">
  <ele>373.01</ele>
  <time>2026-09-01T19:58:36Z</time>
  <course>103.29</course>
  <speed>25.43</speed>
  <fix>3d</fix>
</trkpt>
<trkpt lat="-27.2732246" lon="151.2875429">
  <ele>373.12</ele>
  <time>2026-09-01T19:58:36Z</time>
  <course>102.77</course>
  <speed>25.43770823010595</speed>
  <fix>3d</fix>
</trkpt>
<trkpt lat="-27.2732148" lon="151.2874957">
  <ele>373.01</ele>
  <time>2026-09-01T19:58:36Z</time>
  <course>103.2</course>
  <speed>25.43</speed>
  <fix>3d</fix>
</trkpt>
<trkpt lat="-27.2732298" lon="151.2875679">
  <ele>373.12</ele>
  <time>2026-09-01T19:58:36Z</time>
  <course>102.73</course>
  <speed>25.435433945580723</speed>
  <fix>3d</fix>
</trkpt>
<trkpt lat="-27.2732148" lon="151.2874957">
  <ele>373.01</ele>
  <time>2026-09-01T19:58:36Z</time>
  <course>103.2</course>
  <speed>25.43</speed>
  <fix>3d</fix>
</trkpt>
<trkpt lat="-27.273235" lon="151.287593">
  <ele>373.12</ele>
  <time>2026-09-01T19:58:36Z</time>
  <course>102.69</course>
  <speed>25.442902743201294</speed>
  <fix>3d</fix>
</trkpt>
<trkpt lat="-27.2732253" lon="151.2875459">
  <ele>373.02</ele>
  <time>2026-09-01T19:58:36Z</time>
  <course>103.14</course>
  <speed>25.43</speed>
  <fix>3d</fix>
</trkpt>
<trkpt lat="-27.2732402" lon="151.2876181">
  <ele>373.13</ele>
  <time>2026-09-01T19:58:36Z</time>
  <course>102.67</course>
  <speed>25.442902743201294</speed>
  <fix>3d</fix>
</trkpt>
<trkpt lat="-27.2732253" lon="151.2875459">
  <ele>373.02</ele>
  <time>2026-09-01T19:58:36Z</time>
  <course>103.14</course>
  <speed>25.43</speed>
  <fix>3d</fix>
</trkpt>
<trkpt lat="-27.2732454" lon="151.2876431">
  <ele>373.13</ele>
  <time>2026-09-01T19:58:36Z</time>
  <course>102.62</course>
  <speed>25.440636784483203</speed>
  <fix>3d</fix>
</trkpt>
<trkpt lat="-27.2732357" lon="151.287596">
  <ele>373.02</ele>
  <time>2026-09-01T19:58:36Z</time>
  <course>103.11</course>
  <speed>25.43</speed>
  <fix>3d</fix>
</trkpt>
<trkpt lat="-27.2732506" lon="151.2876682">
  <ele>373.13</ele>
  <time>2026-09-01T19:58:36Z</time>
  <course>102.63</course>
  <speed>25.438374554990734</speed>
  <fix>3d</fix>
</trkpt>
<trkpt lat="-27.2732357" lon="151.287596">
  <ele>373.02</ele>
  <time>2026-09-01T19:58:36Z</time>
  <course>103.11</course>
  <speed>25.43</speed>
  <fix>3d</fix>
</trkpt>
<trkpt lat="-27.2732557" lon="151.2876933">
  <ele>373.13</ele>
  <time>2026-09-01T19:58:36Z</time>
  <course>102.68</course>
  <speed>25.44811584381052</speed>
  <fix>3d</fix>
</trkpt>
<trkpt lat="-27.273246" lon="151.2876461">
  <ele>373.03</ele>
  <time>2026-09-01T19:58:36Z</time>
  <course>103.07</course>
  <speed>25.43</speed>
  <fix>3d</fix>
</trkpt>
<trkpt lat="-27.2732609" lon="151.2877184">
  <ele>373.13</ele>
  <time>2026-09-01T19:58:36Z</time>
  <course>102.65</course>
  <speed>25.44811584381052</speed>
  <fix>3d</fix>
</trkpt>
<trkpt lat="-27.273246" lon="151.2876461">
  <ele>373.03</ele>
  <time>2026-09-01T19:58:36Z</time>
  <course>103.07</course>
  <speed>25.43</speed>
  <fix>3d</fix>
</trkpt>
<trkpt lat="-27.2732661" lon="151.2877434">
  <ele>373.13</ele>
  <time>2026-09-01T19:58:36Z</time>
  <course>102.62</course>
  <speed>25.457857333247826</speed>
  <fix>3d</fix>
</trkpt>
<trkpt lat="-27.2732563" lon="151.2876962">
  <ele>373.03</ele>
  <time>2026-09-01T19:58:36Z</time>
  <course>103.05</course>
  <speed>25.43</speed>
  <fix>3d</fix>
</trkpt>
<trkpt lat="-27.2732712" lon="151.2877683">
  <ele>373.12</ele>
  <time>2026-09-01T19:58:36Z</time>
  <course>102.61</course>
  <speed>25.460117831620497</speed>
  <fix>3d</fix>
</trkpt>
<trkpt lat="-27.2732563" lon="151.2876962">
  <ele>373.03</ele>
  <time>2026-09-01T19:58:36Z</time>
  <course>103.05</course>
  <speed>25.43</speed>
  <fix>3d</fix>
</trkpt>
<trkpt lat="-27.2732765" lon="151.2877938">
  <ele>373.12</ele>
  <time>2026-09-01T19:58:36Z</time>
  <course>102.58</course>
  <speed>25.460117831620497</speed>
  <fix>3d</fix>
</trkpt>
<trkpt lat="-27.2732667" lon="151.2877462">
  <ele>373.02</ele>
  <time>2026-09-01T19:58:36Z</time>
  <course>103.06</course>
  <speed>25.43</speed>
  <fix>3d</fix>
</trkpt>
<trkpt lat="-27.2732816" lon="151.2878189">
  <ele>373.12</ele>
  <time>2026-09-01T19:58:36Z</time>
  <course>102.52</course>
  <speed>25.467599023072435</speed>
  <fix>3d</fix>
</trkpt>
<trkpt lat="-27.2732667" lon="151.2877462">
  <ele>373.02</ele>
  <time>2026-09-01T19:58:36Z</time>
  <course>103.06</course>
  <speed>25.43</speed>
  <fix>3d</fix>
</trkpt>
<trkpt lat="-27.2732868" lon="151.2878439">
  <ele>373.12</ele>
  <time>2026-09-01T19:58:36Z</time>
  <course>102.52</course>
  <speed>25.467599023072435</speed>
  <fix>3d</fix>
</trkpt>
<trkpt lat="-27.273277" lon="151.2877963">
  <ele>373.02</ele>
  <time>2026-09-01T19:58:36Z</time>
  <course>103.07</course>
  <speed>25.43</speed>
  <fix>3d</fix>
</trkpt>
<trkpt lat="-27.273292" lon="151.287869">
  <ele>373.13</ele>
  <time>2026-09-01T19:58:36Z</time>
  <course>102.54</course>
  <speed>25.467599023072435</speed>
  <fix>3d</fix>
</trkpt>
<trkpt lat="-27.273277" lon="151.2877963">
  <ele>373.02</ele>
  <time>2026-09-01T19:58:36Z</time>
  <course>103.07</course>
  <speed>25.43</speed>
  <fix>3d</fix>
</trkpt>
<trkpt lat="-27.2732971" lon="151.2878941">
  <ele>373.13</ele>
  <time>2026-09-01T19:58:36Z</time>
  <course>102.56</course>
  <speed>25.457857333247826</speed>
  <fix>3d</fix>
</trkpt>
<trkpt lat="-27.2732873" lon="151.2878463">
  <ele>373.02</ele>
  <time>2026-09-01T19:58:36Z</time>
  <course>103.07</course>
  <speed>25.43</speed>
  <fix>3d</fix>
</trkpt>
<trkpt lat="-27.2733023" lon="151.2879191">
  <ele>373.14</ele>
  <time>2026-09-01T19:58:36Z</time>
  <course>102.62</course>
  <speed>25.460117831620497</speed>
  <fix>3d</fix>
</trkpt>
<trkpt lat="-27.2732873" lon="151.2878463">
  <ele>373.02</ele>
  <time>2026-09-01T19:58:36Z</time>
  <course>103.07</course>
  <speed>25.43</speed>
  <fix>3d</fix>
</trkpt>
<trkpt lat="-27.2733075" lon="151.2879441">
  <ele>373.14</ele>
  <time>2026-09-01T19:58:36Z</time>
  <course>102.64</course>
  <speed>25.460117831620497</speed>
  <fix>3d</fix>
</trkpt>
<trkpt lat="-27.2732977" lon="151.2878964">
  <ele>373.03</ele>
  <time>2026-09-01T19:58:36Z</time>
  <course>103.08</course>
  <speed>25.43</speed>
  <fix>3d</fix>
</trkpt>
<trkpt lat="-27.2733127" lon="151.2879692">
  <ele>373.15</ele>
  <time>2026-09-01T19:58:36Z</time>
  <course>102.65</course>
  <speed>25.45264229898342</speed>
  <fix>3d</fix>
</trkpt>
<trkpt lat="-27.2732977" lon="151.2878964">
  <ele>373.03</ele>
  <time>2026-09-01T19:58:36Z</time>
  <course>103.08</course>
  <speed>25.43</speed>
  <fix>3d</fix>
</trkpt>
<trkpt lat="-27.2733178" lon="151.2879942">
  <ele>373.16</ele>
  <time>2026-09-01T19:58:36Z</time>
  <course>102.64</course>
  <speed>25.454911117503435</speed>
  <fix>3d</fix>
</trkpt>
<trkpt lat="-27.273308" lon="151.2879464">
  <ele>373.04</ele>
  <time>2026-09-01T19:58:36Z</time>
  <course>103.1</course>
  <speed>25.42</speed>
  <fix>3d</fix>
</trkpt>
<trkpt lat="-27.273323" lon="151.2880192">
  <ele>373.17</ele>
  <time>2026-09-01T19:58:36Z</time>
  <course>102.65</course>
  <speed>25.454911117503435</speed>
  <fix>3d</fix>
</trkpt>
<trkpt lat="-27.273308" lon="151.2879464">
  <ele>373.04</ele>
  <time>2026-09-01T19:58:36Z</time>
  <course>103.1</course>
  <speed>25.42</speed>
  <fix>3d</fix>
</trkpt>
<trkpt lat="-27.2733282" lon="151.2880442">
  <ele>373.18</ele>
  <time>2026-09-01T19:58:36Z</time>
  <course>102.66</course>
  <speed>25.447445844327877</speed>
  <fix>3d</fix>
</trkpt>
<trkpt lat="-27.2733184" lon="151.2879965">
  <ele>373.06</ele>
  <time>2026-09-01T19:58:36Z</time>
  <course>103.14</course>
  <speed>25.41</speed>
  <fix>3d</fix>
</trkpt>
<trkpt lat="-27.2733334" lon="151.2880692">
  <ele>373.18</ele>
  <time>2026-09-01T19:58:36Z</time>
  <course>102.69</course>
  <speed>25.447445844327877</speed>
  <fix>3d</fix>
</trkpt>
<trkpt lat="-27.2733184" lon="151.2879965">
  <ele>373.06</ele>
  <time>2026-09-01T19:58:36Z</time>
  <course>103.14</course>
  <speed>25.41</speed>
  <fix>3d</fix>
</trkpt>
<trkpt lat="-27.2733386" lon="151.2880942">
  <ele>373.19</ele>
  <time>2026-09-01T19:58:36Z</time>
  <course>102.72</course>
  <speed>25.40849661038606</speed>
  <fix>3d</fix>
</trkpt>
<trkpt lat="-27.2733288" lon="151.2880465">
  <ele>373.07</ele>
  <time>2026-09-01T19:58:36Z</time>
  <course>103.17</course>
  <speed>25.41</speed>
  <fix>3d</fix>
</trkpt>
<trkpt lat="-27.2733438" lon="151.2881192">
  <ele>373.2</ele>
  <time>2026-09-01T19:58:36Z</time>
  <course>102.76</course>
  <speed>25.328324066151712</speed>
  <fix>3d</fix>
</trkpt>
<trkpt lat="-27.2733288" lon="151.2880465">
  <ele>373.07</ele>
  <time>2026-09-01T19:58:36Z</time>
  <course>103.17</course>
  <speed>25.41</speed>
  <fix>3d</fix>
</trkpt>
<trkpt lat="-27.273349" lon="151.288144">
  <ele>373.21</ele>
  <time>2026-09-01T19:58:36Z</time>
  <course>102.84</course>
  <speed>25.189745929643674</speed>
  <fix>3d</fix>
</trkpt>
<trkpt lat="-27.2733392" lon="151.2880966">
  <ele>373.08</ele>
  <time>2026-09-01T19:58:36Z</time>
  <course>103.21</course>
  <speed>25.35</speed>
  <fix>3d</fix>
</trkpt>
<trkpt lat="-27.2733542" lon="151.2881687">
  <ele>373.23</ele>
  <time>2026-09-01T19:58:36Z</time>
  <course>102.85</course>
  <speed>25.03915733406378</speed>
  <fix>3d</fix>
</trkpt>
<trkpt lat="-27.2733392" lon="151.2880966">
  <ele>373.08</ele>
  <time>2026-09-01T19:58:36Z</time>
  <course>103.21</course>
  <speed>25.35</speed>
  <fix>3d</fix>
</trkpt>
<trkpt lat="-27.2733594" lon="151.2881932">
  <ele>373.26</ele>
  <time>2026-09-01T19:58:36Z</time>
  <course>102.89</course>
  <speed>24.89088186465076</speed>
  <fix>3d</fix>
</trkpt>
<trkpt lat="-27.2733496" lon="151.2881463">
  <ele>373.1</ele>
  <time>2026-09-01T19:58:36Z</time>
  <course>103.27</course>
  <speed>25.15</speed>
  <fix>3d</fix>
</trkpt>
<trkpt lat="-27.2733645" lon="151.2882176">
  <ele>373.29</ele>
  <time>2026-09-01T19:58:36Z</time>
  <course>102.94</course>
  <speed>24.754676325898508</speed>
  <fix>3d</fix>
</trkpt>
<trkpt lat="-27.2733496" lon="151.2881463">
  <ele>373.1</ele>
  <time>2026-09-01T19:58:36Z</time>
  <course>103.27</course>
  <speed>25.15</speed>
  <fix>3d</fix>
</trkpt>
<trkpt lat="-27.2733697" lon="151.2882418">
  <ele>373.33</ele>
  <time>2026-09-01T19:58:36Z</time>
  <course>103.03</course>
  <speed>24.620846857896662</speed>
  <fix>3d</fix>
</trkpt>
<trkpt lat="-27.2733599" lon="151.2881955">
  <ele>373.15</ele>
  <time>2026-09-01T19:58:36Z</time>
  <course>103.37</course>
  <speed>24.86</speed>
  <fix>3d</fix>
</trkpt>
<trkpt lat="-27.2733749" lon="151.2882659">
  <ele>373.38</ele>
  <time>2026-09-01T19:58:36Z</time>
  <course>103.09</course>
  <speed>24.504181275855757</speed>
  <fix>3d</fix>
</trkpt>
<trkpt lat="-27.2733599" lon="151.2881955">
  <ele>373.15</ele>
  <time>2026-09-01T19:58:36Z</time>
  <course>103.37</course>
  <speed>24.86</speed>
  <fix>3d</fix>
</trkpt>
<trkpt lat="-27.27338" lon="151.2882897">
  <ele>373.43</ele>
  <time>2026-09-01T19:58:36Z</time>
  <course>103.13</course>
  <speed>24.38019072936059</speed>
  <fix>3d</fix>
</trkpt>
<trkpt lat="-27.2733703" lon="151.2882441">
  <ele>373.22</ele>
  <time>2026-09-01T19:58:36Z</time>
  <course>103.52</course>
  <speed>24.59</speed>
  <fix>3d</fix>
</trkpt>
<trkpt lat="-27.2733852" lon="151.2883135">
  <ele>373.48</ele>
  <time>2026-09-01T19:58:36Z</time>
  <course>103.18</course>
  <speed>24.234463063992152</speed>
  <fix>3d</fix>
</trkpt>
<trkpt lat="-27.2733703" lon="151.2882441">
  <ele>373.22</ele>
  <time>2026-09-01T19:58:36Z</time>
  <course>103.52</course>
  <speed>24.59</speed>
  <fix>3d</fix>
</trkpt>
<trkpt lat="-27.2733904" lon="151.2883372">
  <ele>373.54</ele>
  <time>2026-09-01T19:58:36Z</time>
  <course>103.3</course>
  <speed>24.03053266159533</speed>
  <fix>3d</fix>
</trkpt>
<trkpt lat="-27.2733806" lon="151.2882922">
  <ele>373.31</ele>
  <time>2026-09-01T19:58:36Z</time>
  <course>103.7</course>
  <speed>24.33</speed>
  <fix>3d</fix>
</trkpt>
<trkpt lat="-27.2733955" lon="151.2883606">
  <ele>373.62</ele>
  <time>2026-09-01T19:58:36Z</time>
  <course>103.43</course>
  <speed>23.75636756745441</speed>
  <fix>3d</fix>
</trkpt>
<trkpt lat="-27.2733806" lon="151.2882922">
  <ele>373.31</ele>
  <time>2026-09-01T19:58:36Z</time>
  <course>103.7</course>
  <speed>24.33</speed>
  <fix>3d</fix>
</trkpt>
<trkpt lat="-27.2734007" lon="151.2883839">
  <ele>373.71</ele>
  <time>2026-09-01T19:58:36Z</time>
  <course>103.57</course>
  <speed>23.4217206882842</speed>
  <fix>3d</fix>
</trkpt>
<trkpt lat="-27.273391" lon="151.2883396">
  <ele>373.42</ele>
  <time>2026-09-01T19:58:36Z</time>
  <course>103.9</course>
  <speed>23.96</speed>
  <fix>3d</fix>
</trkpt>
<trkpt lat="-27.2734059" lon="151.2884067">
  <ele>373.83</ele>
  <time>2026-09-01T19:58:36Z</time>
  <course>103.71</course>
  <speed>23.046017009453067</speed>
  <fix>3d</fix>
</trkpt>
<trkpt lat="-27.273391" lon="151.2883396">
  <ele>373.42</ele>
  <time>2026-09-01T19:58:36Z</time>
  <course>103.9</course>
  <speed>23.96</speed>
  <fix>3d</fix>
</trkpt>
<trkpt lat="-27.273411" lon="151.288429">
  <ele>373.96</ele>
  <time>2026-09-01T19:58:36Z</time>
  <course>103.84</course>
  <speed>22.67049624512</speed>
  <fix>3d</fix>
</trkpt>
<trkpt lat="-27.2734013" lon="151.288386">
  <ele>373.59</ele>
  <time>2026-09-01T19:58:36Z</time>
  <course>104.17</course>
  <speed>23.37</speed>
  <fix>3d</fix>
</trkpt>
<trkpt lat="-27.2734161" lon="151.2884512">
  <ele>374.1</ele>
  <time>2026-09-01T19:58:36Z</time>
  <course>103.97</course>
  <speed>22.302316023229515</speed>
  <fix>3d</fix>
</trkpt>
<trkpt lat="-27.2734013" lon="151.288386">
  <ele>373.59</ele>
  <time>2026-09-01T19:58:36Z</time>
  <course>104.17</course>
  <speed>23.37</speed>
  <fix>3d</fix>
</trkpt>
<trkpt lat="-27.2734212" lon="151.2884728">
  <ele>374.24</ele>
  <time>2026-09-01T19:58:36Z</time>
  <course>104.09</course>
  <speed>21.956158589334336</speed>
  <fix>3d</fix>
</trkpt>
<trkpt lat="-27.2734116" lon="151.288431">
  <ele>373.83</ele>
  <time>2026-09-01T19:58:36Z</time>
  <course>104.48</course>
  <speed>22.65</speed>
  <fix>3d</fix>
</trkpt>
<trkpt lat="-27.2734262" lon="151.2884941">
  <ele>374.36</ele>
  <time>2026-09-01T19:58:36Z</time>
  <course>104.2</course>
  <speed>21.626918412016074</speed>
  <fix>3d</fix>
</trkpt>
<trkpt lat="-27.2734116" lon="151.288431">
  <ele>373.83</ele>
  <time>2026-09-01T19:58:36Z</time>
  <course>104.48</course>
  <speed>22.65</speed>
  <fix>3d</fix>
</trkpt>
<trkpt lat="-27.2734312" lon="151.288515">
  <ele>374.47</ele>
  <time>2026-09-01T19:58:36Z</time>
  <course>104.31</course>
  <speed>21.30743532197153</speed>
  <fix>3d</fix>
</trkpt>
<trkpt lat="-27.2734217" lon="151.2884746">
  <ele>374.1</ele>
  <time>2026-09-01T19:58:36Z</time>
  <course>104.76</course>
  <speed>21.93</speed>
  <fix>3d</fix>
</trkpt>
<trkpt lat="-27.2734361" lon="151.2885357">
  <ele>374.57</ele>
  <time>2026-09-01T19:58:36Z</time>
  <course>104.42</course>
  <speed>21.007351094319343</speed>
  <fix>3d</fix>
</trkpt>
<trkpt lat="-27.2734217" lon="151.2884746">
  <ele>374.1</ele>
  <time>2026-09-01T19:58:36Z</time>
  <course>104.76</course>
  <speed>21.93</speed>
  <fix>3d</fix>
</trkpt>
<trkpt lat="-27.273441" lon="151.288556">
  <ele>374.66</ele>
  <time>2026-09-01T19:58:36Z</time>
  <course>104.51</course>
  <speed>20.707341693225615</speed>
  <fix>3d</fix>
</trkpt>
<trkpt lat="-27.2734316" lon="151.2885168">
  <ele>374.33</ele>
  <time>2026-09-01T19:58:36Z</time>
  <course>105.0</course>
  <speed>21.28</speed>
  <fix>3d</fix>
</trkpt>
<trkpt lat="-27.2734459" lon="151.2885761">
  <ele>374.74</ele>
  <time>2026-09-01T19:58:36Z</time>
  <course>104.61</course>
  <speed>20.4266982158155</speed>
  <fix>3d</fix>
</trkpt>
<trkpt lat="-27.2734316" lon="151.2885168">
  <ele>374.33</ele>
  <time>2026-09-01T19:58:36Z</time>
  <course>105.0</course>
  <speed>21.28</speed>
  <fix>3d</fix>
</trkpt>
<trkpt lat="-27.2734507" lon="151.2885958">
  <ele>374.8</ele>
  <time>2026-09-01T19:58:36Z</time>
  <course>104.71</course>
  <speed>20.155756001698375</speed>
  <fix>3d</fix>
</trkpt>
<trkpt lat="-27.2734414" lon="151.2885578">
  <ele>374.52</ele>
  <time>2026-09-01T19:58:36Z</time>
  <course>105.21</course>
  <speed>20.67</speed>
  <fix>3d</fix>
</trkpt>
<trkpt lat="-27.2734555" lon="151.2886152">
  <ele>374.85</ele>
  <time>2026-09-01T19:58:36Z</time>
  <course>104.82</course>
  <speed>19.88219555280553</speed>
  <fix>3d</fix>
</trkpt>
<trkpt lat="-27.2734414" lon="151.2885578">
  <ele>374.52</ele>
  <time>2026-09-01T19:58:36Z</time>
  <course>105.21</course>
  <speed>20.67</speed>
  <fix>3d</fix>
</trkpt>
<trkpt lat="-27.2734602" lon="151.2886343">
  <ele>374.9</ele>
  <time>2026-09-01T19:58:36Z</time>
  <course>104.91</course>
  <speed>19.620981117161293</speed>
  <fix>3d</fix>
</trkpt>
<trkpt lat="-27.2734511" lon="151.2885977">
  <ele>374.65</ele>
  <time>2026-09-01T19:58:36Z</time>
  <course>105.4</course>
  <speed>20.11</speed>
  <fix>3d</fix>
</trkpt>
<trkpt lat="-27.2734648" lon="151.2886532">
  <ele>374.94</ele>
  <time>2026-09-01T19:58:36Z</time>
  <course>104.99</course>
  <speed>19.37637737039615</speed>
  <fix>3d</fix>
</trkpt>
<trkpt lat="-27.2734511" lon="151.2885977">
  <ele>374.65</ele>
  <time>2026-09-01T19:58:36Z</time>
  <course>105.4</course>
  <speed>20.11</speed>
  <fix>3d</fix>
</trkpt>
<trkpt lat="-27.2734695" lon="151.2886718">
  <ele>374.97</ele>
  <time>2026-09-01T19:58:36Z</time>
  <course>105.06</course>
  <speed>19.12215991984169</speed>
  <fix>3d</fix>
</trkpt>
<trkpt lat="-27.2734607" lon="151.2886363">
  <ele>374.75</ele>
  <time>2026-09-01T19:58:36Z</time>
  <course>105.56</course>
  <speed>19.59</speed>
  <fix>3d</fix>
</trkpt>
<trkpt lat="-27.2734741" lon="151.2886902">
  <ele>374.99</ele>
  <time>2026-09-01T19:58:36Z</time>
  <course>105.12</course>
  <speed>18.889925886567156</speed>
  <fix>3d</fix>
</trkpt>
<trkpt lat="-27.2734607" lon="151.2886363">
  <ele>374.75</ele>
  <time>2026-09-01T19:58:36Z</time>
  <course>105.56</course>
  <speed>19.59</speed>
  <fix>3d</fix>
</trkpt>
<trkpt lat="-27.2734786" lon="151.2887083">
  <ele>375.01</ele>
  <time>2026-09-01T19:58:36Z</time>
  <course>105.18</course>
  <speed>18.66461893530109</speed>
  <fix>3d</fix>
</trkpt>
<trkpt lat="-27.27347" lon="151.2886739">
  <ele>374.82</ele>
  <time>2026-09-01T19:58:36Z</time>
  <course>105.69</course>
  <speed>19.09</speed>
  <fix>3d</fix>
</trkpt>
<trkpt lat="-27.2734831" lon="151.2887261">
  <ele>375.01</ele>
  <time>2026-09-01T19:58:36Z</time>
  <course>105.23</course>
  <speed>18.43931940175667</speed>
  <fix>3d</fix>
</trkpt>
<trkpt lat="-27.27347" lon="151.2886739">
  <ele>374.82</ele>
  <time>2026-09-01T19:58:36Z</time>
  <course>105.69</course>
  <speed>19.09</speed>
  <fix>3d</fix>
</trkpt>
<trkpt lat="-27.2734876" lon="151.2887438">
  <ele>375.02</ele>
  <time>2026-09-01T19:58:36Z</time>
  <course>105.28</course>
  <speed>18.223646726163235</speed>
  <fix>3d</fix>
</trkpt>
<trkpt lat="-27.2734792" lon="151.2887106">
  <ele>374.86</ele>
  <time>2026-09-01T19:58:36Z</time>
  <course>105.79</course>
  <speed>18.63</speed>
  <fix>3d</fix>
</trkpt>
<trkpt lat="-27.273492" lon="151.2887613">
  <ele>375.01</ele>
  <time>2026-09-01T19:58:36Z</time>
  <course>105.32</course>
  <speed>18.017596954089075</speed>
  <fix>3d</fix>
</trkpt>
<trkpt lat="-27.2734792" lon="151.2887106">
  <ele>374.86</ele>
  <time>2026-09-01T19:58:36Z</time>
  <course>105.79</course>
  <speed>18.63</speed>
  <fix>3d</fix>
</trkpt>
<trkpt lat="-27.2734964" lon="151.2887786">
  <ele>375.01</ele>
  <time>2026-09-01T19:58:36Z</time>
  <course>105.35</course>
  <speed>17.811549623769405</speed>
  <fix>3d</fix>
</trkpt>
<trkpt lat="-27.2734882" lon="151.2887464">
  <ele>374.87</ele>
  <time>2026-09-01T19:58:36Z</time>
  <course>105.87</course>
  <speed>18.2</speed>
  <fix>3d</fix>
</trkpt>
<trkpt lat="-27.2735008" lon="151.2887959">
  <ele>375.0</ele>
  <time>2026-09-01T19:58:36Z</time>
  <course>105.39</course>
  <speed>17.615121345026267</speed>
  <fix>3d</fix>
</trkpt>
<trkpt lat="-27.2734882" lon="151.2887464">
  <ele>374.87</ele>
  <time>2026-09-01T19:58:36Z</time>
  <course>105.87</course>
  <speed>18.2</speed>
  <fix>3d</fix>
</trkpt>
<trkpt lat="-27.2735051" lon="151.2888129">
  <ele>374.98</ele>
  <time>2026-09-01T19:58:36Z</time>
  <course>105.41</course>
  <speed>17.421440812975256</speed>
  <fix>3d</fix>
</trkpt>
<trkpt lat="-27.2734971" lon="151.2887814">
  <ele>374.87</ele>
  <time>2026-09-01T19:58:36Z</time>
  <course>105.93</course>
  <speed>17.79</speed>
  <fix>3d</fix>
</trkpt>
<trkpt lat="-27.2735093" lon="151.2888296">
  <ele>374.96</ele>
  <time>2026-09-01T19:58:36Z</time>
  <course>105.43</course>
  <speed>17.24424541694997</speed>
  <fix>3d</fix>
</trkpt>
<trkpt lat="-27.2734971" lon="151.2887814">
  <ele>374.87</ele>
  <time>2026-09-01T19:58:36Z</time>
  <course>105.93</course>
  <speed>17.79</speed>
  <fix>3d</fix>
</trkpt>
<trkpt lat="-27.2735135" lon="151.2888463">
  <ele>374.94</ele>
  <time>2026-09-01T19:58:36Z</time>
  <course>105.45</course>
  <speed>17.057435328911552</speed>
  <fix>3d</fix>
</trkpt>
<trkpt lat="-27.2735058" lon="151.2888156">
  <ele>374.85</ele>
  <time>2026-09-01T19:58:36Z</time>
  <course>105.97</course>
  <speed>17.4</speed>
  <fix>3d</fix>
</trkpt>
<trkpt lat="-27.2735177" lon="151.2888627">
  <ele>374.91</ele>
  <time>2026-09-01T19:58:36Z</time>
  <course>105.48</course>
  <speed>16.892604890898266</speed>
  <fix>3d</fix>
</trkpt>
<trkpt lat="-27.2735058" lon="151.2888156">
  <ele>374.85</ele>
  <time>2026-09-01T19:58:36Z</time>
  <course>105.97</course>
  <speed>17.4</speed>
  <fix>3d</fix>
</trkpt>
<trkpt lat="-27.2735219" lon="151.2888791">
  <ele>374.87</ele>
  <time>2026-09-01T19:58:36Z</time>
  <course>105.49</course>
  <speed>16.734637731364252</speed>
  <fix>3d</fix>
</trkpt>
<trkpt lat="-27.2735143" lon="151.288849">
  <ele>374.81</ele>
  <time>2026-09-01T19:58:36Z</time>
  <course>105.99</course>
  <speed>17.04</speed>
  <fix>3d</fix>
</trkpt>
<trkpt lat="-27.273526" lon="151.2888953">
  <ele>374.83</ele>
  <time>2026-09-01T19:58:36Z</time>
  <course>105.5</course>
  <speed>16.579420979033014</speed>
  <fix>3d</fix>
</trkpt>
<trkpt lat="-27.2735143" lon="151.288849">
  <ele>374.81</ele>
  <time>2026-09-01T19:58:36Z</time>
  <course>105.99</course>
  <speed>17.04</speed>
  <fix>3d</fix>
</trkpt>
<trkpt lat="-27.2735301" lon="151.2889114">
  <ele>374.77</ele>
  <time>2026-09-01T19:58:36Z</time>
  <course>105.5</course>
  <speed>16.4338187893137</speed>
  <fix>3d</fix>
</trkpt>
<trkpt lat="-27.2735227" lon="151.2888818">
  <ele>374.74</ele>
  <time>2026-09-01T19:58:36Z</time>
  <course>106.0</course>
  <speed>16.71</speed>
  <fix>3d</fix>
</trkpt>
<trkpt lat="-27.2735342" lon="151.2889274">
  <ele>374.71</ele>
  <time>2026-09-01T19:58:36Z</time>
  <course>105.5</course>
  <speed>16.29783114405104</speed>
  <fix>3d</fix>
</trkpt>
<trkpt lat="-27.2735227" lon="151.2888818">
  <ele>374.74</ele>
  <time>2026-09-01T19:58:36Z</time>
  <course>106.0</course>
  <speed>16.71</speed>
  <fix>3d</fix>
</trkpt>
<trkpt lat="-27.2735383" lon="151.2889433">
  <ele>374.64</ele>
  <time>2026-09-01T19:58:36Z</time>
  <course>105.49</course>
  <speed>16.171459427027607</speed>
  <fix>3d</fix>
</trkpt>
<trkpt lat="-27.2735309" lon="151.2889141">
  <ele>374.64</ele>
  <time>2026-09-01T19:58:36Z</time>
  <course>106.0</course>
  <speed>16.4</speed>
  <fix>3d</fix>
</trkpt>
<trkpt lat="-27.2735423" lon="151.2889591">
  <ele>374.56</ele>
  <time>2026-09-01T19:58:36Z</time>
  <course>105.49</course>
  <speed>16.04783474491185</speed>
  <fix>3d</fix>
</trkpt>
<trkpt lat="-27.2735309" lon="151.2889141">
  <ele>374.64</ele>
  <time>2026-09-01T19:58:36Z</time>
  <course>106.0</course>
  <speed>16.4</speed>
  <fix>3d</fix>
</trkpt>
<trkpt lat="-27.2735463" lon="151.2889748">
  <ele>374.47</ele>
  <time>2026-09-01T19:58:37Z</time>
  <course>105.48</course>
  <speed>15.931079687202622</speed>
  <fix>3d</fix>
</trkpt>
<trkpt lat="-27.273539" lon="151.2889457">
  <ele>374.51</ele>
  <time>2026-09-01T19:58:37Z</time>
  <course>105.99</course>
  <speed>16.13</speed>
  <fix>3d</fix>
</trkpt>
<trkpt lat="-27.2735502" lon="151.2889903">
  <ele>374.37</ele>
  <time>2026-09-01T19:58:37Z</time>
  <course>105.46</course>
  <speed>15.826686324054068</speed>
  <fix>3d</fix>
</trkpt>
<trkpt lat="-27.273539" lon="151.2889457">
  <ele>374.51</ele>
  <time>2026-09-01T19:58:37Z</time>
  <course>105.99</course>
  <speed>16.13</speed>
  <fix>3d</fix>
</trkpt>
<trkpt lat="-27.2735541" lon="151.2890056">
  <ele>374.26</ele>
  <time>2026-09-01T19:58:37Z</time>
  <course>105.45</course>
  <speed>15.72229308974998</speed>
  <fix>3d</fix>
</trkpt>
<trkpt lat="-27.2735469" lon="151.2889768">
  <ele>374.35</ele>
  <time>2026-09-01T19:58:37Z</time>
  <course>105.97</course>
  <speed>15.88</speed>
  <fix>3d</fix>
</trkpt>
<trkpt lat="-27.273558" lon="151.2890209">
  <ele>374.15</ele>
  <time>2026-09-01T19:58:37Z</time>
  <course>105.44</course>
  <speed>15.624781598473625</speed>
  <fix>3d</fix>
</trkpt>
<trkpt lat="-27.2735469" lon="151.2889768">
  <ele>374.35</ele>
  <time>2026-09-01T19:58:37Z</time>
  <course>105.97</course>
  <speed>15.88</speed>
  <fix>3d</fix>
</trkpt>
<trkpt lat="-27.2735618" lon="151.289036">
  <ele>374.04</ele>
  <time>2026-09-01T19:58:37Z</time>
  <course>105.42</course>
  <speed>15.530009658722044</speed>
  <fix>3d</fix>
</trkpt>
<trkpt lat="-27.2735547" lon="151.2890075">
  <ele>374.15</ele>
  <time>2026-09-01T19:58:37Z</time>
  <course>105.95</course>
  <speed>15.66</speed>
  <fix>3d</fix>
</trkpt>
<trkpt lat="-27.2735656" lon="151.289051">
  <ele>373.92</ele>
  <time>2026-09-01T19:58:37Z</time>
  <course>105.4</course>
  <speed>15.435238903236968</speed>
  <fix>3d</fix>
</trkpt>
<trkpt lat="-27.2735547" lon="151.2890075">
  <ele>374.15</ele>
  <time>2026-09-01T19:58:37Z</time>
  <course>105.95</course>
  <speed>15.66</speed>
  <fix>3d</fix>
</trkpt>
<trkpt lat="-27.2735694" lon="151.2890659">
  <ele>373.81</ele>
  <time>2026-09-01T19:58:37Z</time>
  <course>105.36</course>
  <speed>15.350091204940771</speed>
  <fix>3d</fix>
</trkpt>
<trkpt lat="-27.2735623" lon="151.2890377">
  <ele>373.93</ele>
  <time>2026-09-01T19:58:37Z</time>
  <course>105.91</course>
  <speed>15.46</speed>
  <fix>3d</fix>
</trkpt>
<trkpt lat="-27.2735731" lon="151.2890808">
  <ele>373.7</ele>
  <time>2026-09-01T19:58:37Z</time>
  <course>105.33</course>
  <speed>15.274570370390126</speed>
  <fix>3d</fix>
</trkpt>
<trkpt lat="-27.2735623" lon="151.2890377">
  <ele>373.93</ele>
  <time>2026-09-01T19:58:37Z</time>
  <course>105.91</course>
  <speed>15.46</speed>
  <fix>3d</fix>
</trkpt>
<trkpt lat="-27.2735768" lon="151.2890956">
  <ele>373.6</ele>
  <time>2026-09-01T19:58:37Z</time>
  <course>105.28</course>
  <speed>15.189430535737673</speed>
  <fix>3d</fix>
</trkpt>
<trkpt lat="-27.2735699" lon="151.2890675">
  <ele>373.71</ele>
  <time>2026-09-01T19:58:37Z</time>
  <course>105.86</course>
  <speed>15.29</speed>
  <fix>3d</fix>
</trkpt>
<trkpt lat="-27.2735806" lon="151.2891104">
  <ele>373.5</ele>
  <time>2026-09-01T19:58:37Z</time>
  <course>105.25</course>
  <speed>15.113920735533847</speed>
  <fix>3d</fix>
</trkpt>
<trkpt lat="-27.2735699" lon="151.2890675">
  <ele>373.71</ele>
  <time>2026-09-01T19:58:37Z</time>
  <course>105.86</course>
  <speed>15.29</speed>
  <fix>3d</fix>
</trkpt>
<trkpt lat="-27.2735843" lon="151.2891252">
  <ele>373.41</ele>
  <time>2026-09-01T19:58:37Z</time>
  <course>105.21</course>
  <speed>15.035720800812976</speed>
  <fix>3d</fix>
</trkpt>
<trkpt lat="-27.2735774" lon="151.2890971">
  <ele>373.5</ele>
  <time>2026-09-01T19:58:37Z</time>
  <course>105.8</course>
  <speed>15.12</speed>
  <fix>3d</fix>
</trkpt>
<trkpt lat="-27.2735879" lon="151.2891398">
  <ele>373.33</ele>
  <time>2026-09-01T19:58:37Z</time>
  <course>105.17</course>
  <speed>14.950598650221334</speed>
  <fix>3d</fix>
</trkpt>
<trkpt lat="-27.2735774" lon="151.2890971">
  <ele>373.5</ele>
  <time>2026-09-01T19:58:37Z</time>
  <course>105.8</course>
  <speed>15.12</speed>
  <fix>3d</fix>
</trkpt>
<trkpt lat="-27.2735915" lon="151.2891543">
  <ele>373.25</ele>
  <time>2026-09-01T19:58:37Z</time>
  <course>105.14</course>
  <speed>14.875113444945555</speed>
  <fix>3d</fix>
</trkpt>
<trkpt lat="-27.2735847" lon="151.2891263">
  <ele>373.31</ele>
  <time>2026-09-01T19:58:37Z</time>
  <course>105.74</course>
  <speed>14.95</speed>
  <fix>3d</fix>
</trkpt>
<trkpt lat="-27.2735951" lon="151.2891687">
  <ele>373.19</ele>
  <time>2026-09-01T19:58:37Z</time>
  <course>105.1</course>
  <speed>14.79</speed>
  <fix>3d</fix>
</trkpt>
<trkpt lat="-27.2735847" lon="151.2891263">
  <ele>373.31</ele>
  <time>2026-09-01T19:58:37Z</time>
  <course>105.74</course>
  <speed>14.95</speed>
  <fix>3d</fix>
</trkpt>
<trkpt lat="-27.2735986" lon="151.289183">
  <ele>373.13</ele>
  <time>2026-09-01T19:58:37Z</time>
  <course>105.06</course>
  <speed>14.704890343011744</speed>
  <fix>3d</fix>
</trkpt>
<trkpt lat="-27.2735919" lon="151.2891553">
  <ele>373.16</ele>
  <time>2026-09-01T19:58:37Z</time>
  <course>105.67</course>
  <speed>14.79</speed>
  <fix>3d</fix>
</trkpt>
<trkpt lat="-27.2736022" lon="151.2891972">
  <ele>373.08</ele>
  <time>2026-09-01T19:58:37Z</time>
  <course>105.02</course>
  <speed>14.617120099390304</speed>
  <fix>3d</fix>
</trkpt>
<trkpt lat="-27.2735919" lon="151.2891553">
  <ele>373.16</ele>
  <time>2026-09-01T19:58:37Z</time>
  <course>105.67</course>
  <speed>14.79</speed>
  <fix>3d</fix>
</trkpt>
<trkpt lat="-27.2736056" lon="151.2892113">
  <ele>373.04</ele>
  <time>2026-09-01T19:58:37Z</time>
  <course>104.99</course>
  <speed>14.532023258995975</speed>
  <fix>3d</fix>
</trkpt>
<trkpt lat="-27.273599" lon="151.2891839">
  <ele>373.03</ele>
  <time>2026-09-01T19:58:37Z</time>
  <course>105.6</course>
  <speed>14.62</speed>
  <fix>3d</fix>
</trkpt>
<trkpt lat="-27.2736091" lon="151.2892254">
  <ele>373.01</ele>
  <time>2026-09-01T19:58:37Z</time>
  <course>104.95</course>
  <speed>14.437288526589748</speed>
  <fix>3d</fix>
</trkpt>
<trkpt lat="-27.273599" lon="151.2891839">
  <ele>373.03</ele>
  <time>2026-09-01T19:58:37Z</time>
  <course>105.6</course>
  <speed>14.62</speed>
  <fix>3d</fix>
</trkpt>
<trkpt lat="-27.2736125" lon="151.2892393">
  <ele>372.99</ele>
  <time>2026-09-01T19:58:37Z</time>
  <course>104.91</course>
  <speed>14.352198437870067</speed>
  <fix>3d</fix>
</trkpt>
<trkpt lat="-27.2736061" lon="151.2892122">
  <ele>372.95</ele>
  <time>2026-09-01T19:58:37Z</time>
  <course>105.53</course>
  <speed>14.45</speed>
  <fix>3d</fix>
</trkpt>
<trkpt lat="-27.2736159" lon="151.2892532">
  <ele>372.97</ele>
  <time>2026-09-01T19:58:37Z</time>
  <course>104.87</course>
  <speed>14.254827252548521</speed>
  <fix>3d</fix>
</trkpt>
<trkpt lat="-27.2736061" lon="151.2892122">
  <ele>372.95</ele>
  <time>2026-09-01T19:58:37Z</time>
  <course>105.53</course>
  <speed>14.45</speed>
  <fix>3d</fix>
</trkpt>
<trkpt lat="-27.2736193" lon="151.2892669">
  <ele>372.95</ele>
  <time>2026-09-01T19:58:37Z</time>
  <course>104.83</course>
  <speed>14.169749468498024</speed>
  <fix>3d</fix>
</trkpt>
<trkpt lat="-27.273613" lon="151.2892403">
  <ele>372.9</ele>
  <time>2026-09-01T19:58:37Z</time>
  <course>105.47</course>
  <speed>14.28</speed>
  <fix>3d</fix>
</trkpt>
<trkpt lat="-27.2736226" lon="151.2892806">
  <ele>372.95</ele>
  <time>2026-09-01T19:58:37Z</time>
  <course>104.8</course>
  <speed>14.075027531056556</speed>
  <fix>3d</fix>
</trkpt>
<trkpt lat="-27.273613" lon="151.2892403">
  <ele>372.9</ele>
  <time>2026-09-01T19:58:37Z</time>
  <course>105.47</course>
  <speed>14.28</speed>
  <fix>3d</fix>
</trkpt>
<trkpt lat="-27.2736259" lon="151.2892942">
  <ele>372.95</ele>
  <time>2026-09-01T19:58:37Z</time>
  <course>104.77</course>
  <speed>13.980307578876795</speed>
  <fix>3d</fix>
</trkpt>
<trkpt lat="-27.2736198" lon="151.289268">
  <ele>372.87</ele>
  <time>2026-09-01T19:58:37Z</time>
  <course>105.4</course>
  <speed>14.1</speed>
  <fix>3d</fix>
</trkpt>
<trkpt lat="-27.2736292" lon="151.2893077">
  <ele>372.95</ele>
  <time>2026-09-01T19:58:37Z</time>
  <course>104.73</course>
  <speed>13.882971583922515</speed>
  <fix>3d</fix>
</trkpt>
<trkpt lat="-27.2736198" lon="151.289268">
  <ele>372.87</ele>
  <time>2026-09-01T19:58:37Z</time>
  <course>105.4</course>
  <speed>14.1</speed>
  <fix>3d</fix>
</trkpt>
<trkpt lat="-27.2736325" lon="151.2893211">
  <ele>372.96</ele>
  <time>2026-09-01T19:58:37Z</time>
  <course>104.7</course>
  <speed>13.788259498573415</speed>
  <fix>3d</fix>
</trkpt>
<trkpt lat="-27.2736265" lon="151.2892952">
  <ele>372.86</ele>
  <time>2026-09-01T19:58:37Z</time>
  <course>105.35</course>
  <speed>13.92</speed>
  <fix>3d</fix>
</trkpt>
<trkpt lat="-27.2736357" lon="151.2893345">
  <ele>372.97</ele>
  <time>2026-09-01T19:58:37Z</time>
  <course>104.67</course>
  <speed>13.693549576351634</speed>
  <fix>3d</fix>
</trkpt>
<trkpt lat="-27.2736265" lon="151.2892952">
  <ele>372.86</ele>
  <time>2026-09-01T19:58:37Z</time>
  <course>105.35</course>
  <speed>13.92</speed>
  <fix>3d</fix>
</trkpt>
<trkpt lat="-27.2736389" lon="151.2893477">
  <ele>372.99</ele>
  <time>2026-09-01T19:58:37Z</time>
  <course>104.64</course>
  <speed>13.598841862452845</speed>
  <fix>3d</fix>
</trkpt>
<trkpt lat="-27.273633" lon="151.2893221">
  <ele>372.88</ele>
  <time>2026-09-01T19:58:37Z</time>
  <course>105.29</course>
  <speed>13.73</speed>
  <fix>3d</fix>
</trkpt>
<trkpt lat="-27.2736421" lon="151.2893609">
  <ele>373.0</ele>
  <time>2026-09-01T19:58:37Z</time>
  <course>104.61</course>
  <speed>13.504136403339535</speed>
  <fix>3d</fix>
</trkpt>
<trkpt lat="-27.273633" lon="151.2893221">
  <ele>372.88</ele>
  <time>2026-09-01T19:58:37Z</time>
  <course>105.29</course>
  <speed>13.73</speed>
  <fix>3d</fix>
</trkpt>
<trkpt lat="-27.2736453" lon="151.2893739">
  <ele>373.03</ele>
  <time>2026-09-01T19:58:37Z</time>
  <course>104.58</course>
  <speed>13.39977611753271</speed>
  <fix>3d</fix>
</trkpt>
<trkpt lat="-27.2736395" lon="151.2893487">
  <ele>372.91</ele>
  <time>2026-09-01T19:58:37Z</time>
  <course>105.24</course>
  <speed>13.54</speed>
  <fix>3d</fix>
</trkpt>
<trkpt lat="-27.2736484" lon="151.2893869">
  <ele>373.05</ele>
  <time>2026-09-01T19:58:37Z</time>
  <course>104.56</course>
  <speed>13.30507422001095</speed>
  <fix>3d</fix>
</trkpt>
<trkpt lat="-27.2736395" lon="151.2893487">
  <ele>372.91</ele>
  <time>2026-09-01T19:58:37Z</time>
  <course>105.24</course>
  <speed>13.54</speed>
  <fix>3d</fix>
</trkpt>
<trkpt lat="-27.2736515" lon="151.2893997">
  <ele>373.07</ele>
  <time>2026-09-01T19:58:37Z</time>
  <course>104.53</course>
  <speed>13.200715889678104</speed>
  <fix>3d</fix>
</trkpt>
<trkpt lat="-27.2736458" lon="151.289375">
  <ele>372.95</ele>
  <time>2026-09-01T19:58:37Z</time>
  <course>105.19</course>
  <speed>13.35</speed>
  <fix>3d</fix>
</trkpt>
<trkpt lat="-27.2736546" lon="151.2894126">
  <ele>373.1</ele>
  <time>2026-09-01T19:58:37Z</time>
  <course>104.51</course>
  <speed>13.103434664239753</speed>
  <fix>3d</fix>
</trkpt>
<trkpt lat="-27.2736458" lon="151.289375">
  <ele>372.95</ele>
  <time>2026-09-01T19:58:37Z</time>
  <course>105.19</course>
  <speed>13.35</speed>
  <fix>3d</fix>
</trkpt>
<trkpt lat="-27.2736576" lon="151.2894253">
  <ele>373.13</ele>
  <time>2026-09-01T19:58:37Z</time>
  <course>104.48</course>
  <speed>12.99908073672904</speed>
  <fix>3d</fix>
</trkpt>
<trkpt lat="-27.273652" lon="151.2894008">
  <ele>373.0</ele>
  <time>2026-09-01T19:58:37Z</time>
  <course>105.14</course>
  <speed>13.15</speed>
  <fix>3d</fix>
</trkpt>
<trkpt lat="-27.2736606" lon="151.2894378">
  <ele>373.15</ele>
  <time>2026-09-01T19:58:37Z</time>
  <course>104.46</course>
  <speed>12.894727604722794</speed>
  <fix>3d</fix>
</trkpt>
<trkpt lat="-27.273652" lon="151.2894008">
  <ele>373.0</ele>
  <time>2026-09-01T19:58:37Z</time>
  <course>105.14</course>
  <speed>13.15</speed>
  <fix>3d</fix>
</trkpt>
<trkpt lat="-27.2736636" lon="151.2894503">
  <ele>373.18</ele>
  <time>2026-09-01T19:58:37Z</time>
  <course>104.44</course>
  <speed>12.780712030243073</speed>
  <fix>3d</fix>
</trkpt>
<trkpt lat="-27.2736581" lon="151.2894263">
  <ele>373.05</ele>
  <time>2026-09-01T19:58:37Z</time>
  <course>105.1</course>
  <speed>12.95</speed>
  <fix>3d</fix>
</trkpt>
<trkpt lat="-27.2736666" lon="151.2894627">
  <ele>373.21</ele>
  <time>2026-09-01T19:58:37Z</time>
  <course>104.42</course>
  <speed>12.666696491192958</speed>
  <fix>3d</fix>
</trkpt>
<trkpt lat="-27.2736581" lon="151.2894263">
  <ele>373.05</ele>
  <time>2026-09-01T19:58:37Z</time>
  <course>105.1</course>
  <speed>12.95</speed>
  <fix>3d</fix>
</trkpt>
<trkpt lat="-27.2736695" lon="151.2894749">
  <ele>373.23</ele>
  <time>2026-09-01T19:58:37Z</time>
  <course>104.4</course>
  <speed>12.550111553289078</speed>
  <fix>3d</fix>
</trkpt>
<trkpt lat="-27.2736642" lon="151.2894514">
  <ele>373.11</ele>
  <time>2026-09-01T19:58:37Z</time>
  <course>105.06</course>
  <speed>12.74</speed>
  <fix>3d</fix>
</trkpt>
<trkpt lat="-27.2736724" lon="151.2894871">
  <ele>373.26</ele>
  <time>2026-09-01T19:58:37Z</time>
  <course>104.38</course>
  <speed>12.426431507073945</speed>
  <fix>3d</fix>
</trkpt>
<trkpt lat="-27.2736642" lon="151.2894514">
  <ele>373.11</ele>
  <time>2026-09-01T19:58:37Z</time>
  <course>105.06</course>
  <speed>12.74</speed>
  <fix>3d</fix>
</trkpt>
<trkpt lat="-27.2736753" lon="151.2894991">
  <ele>373.29</ele>
  <time>2026-09-01T19:58:37Z</time>
  <course>104.36</course>
  <speed>12.30018699044856</speed>
  <fix>3d</fix>
</trkpt>
<trkpt lat="-27.27367" lon="151.2894761">
  <ele>373.17</ele>
  <time>2026-09-01T19:58:37Z</time>
  <course>105.03</course>
  <speed>12.51</speed>
  <fix>3d</fix>
</trkpt>
<trkpt lat="-27.2736781" lon="151.289511">
  <ele>373.33</ele>
  <time>2026-09-01T19:58:37Z</time>
  <course>104.35</course>
  <speed>12.164279674522449</speed>
  <fix>3d</fix>
</trkpt>
<trkpt lat="-27.27367" lon="151.2894761">
  <ele>373.17</ele>
  <time>2026-09-01T19:58:37Z</time>
  <course>105.03</course>
  <speed>12.51</speed>
  <fix>3d</fix>
</trkpt>
<trkpt lat="-27.2736809" lon="151.2895228">
  <ele>373.36</ele>
  <time>2026-09-01T19:58:37Z</time>
  <course>104.33</course>
  <speed>12.030930969796145</speed>
  <fix>3d</fix>
</trkpt>
<trkpt lat="-27.2736758" lon="151.2895003">
  <ele>373.23</ele>
  <time>2026-09-01T19:58:37Z</time>
  <course>105.0</course>
  <speed>12.26</speed>
  <fix>3d</fix>
</trkpt>
<trkpt lat="-27.2736837" lon="151.2895344">
  <ele>373.39</ele>
  <time>2026-09-01T19:58:37Z</time>
  <course>104.32</course>
  <speed>11.885356536511642</speed>
  <fix>3d</fix>
</trkpt>
<trkpt lat="-27.2736758" lon="151.2895003">
  <ele>373.23</ele>
  <time>2026-09-01T19:58:37Z</time>
  <course>105.0</course>
  <speed>12.26</speed>
  <fix>3d</fix>
</trkpt>
<trkpt lat="-27.2736864" lon="151.2895459">
  <ele>373.43</ele>
  <time>2026-09-01T19:58:37Z</time>
  <course>104.31</course>
  <speed>11.73978279185778</speed>
  <fix>3d</fix>
</trkpt>
<trkpt lat="-27.2736815" lon="151.2895241">
  <ele>373.3</ele>
  <time>2026-09-01T19:58:37Z</time>
  <course>104.97</course>
  <speed>11.99</speed>
  <fix>3d</fix>
</trkpt>
<trkpt lat="-27.2736891" lon="151.2895573">
  <ele>373.46</ele>
  <time>2026-09-01T19:58:37Z</time>
  <course>104.3</course>
  <speed>11.594209761773332</speed>
  <fix>3d</fix>
</trkpt>
<trkpt lat="-27.2736815" lon="151.2895241">
  <ele>373.3</ele>
  <time>2026-09-01T19:58:37Z</time>
  <course>104.97</course>
  <speed>11.99</speed>
  <fix>3d</fix>
</trkpt>
<trkpt lat="-27.2736918" lon="151.2895686">
  <ele>373.49</ele>
  <time>2026-09-01T19:58:37Z</time>
  <course>104.3</course>
  <speed>11.448637473516225</speed>
  <fix>3d</fix>
</trkpt>
<trkpt lat="-27.273687" lon="151.2895472">
  <ele>373.37</ele>
  <time>2026-09-01T19:58:37Z</time>
  <course>104.95</course>
  <speed>11.71</speed>
  <fix>3d</fix>
</trkpt>
<trkpt lat="-27.2736944" lon="151.2895797">
  <ele>373.51</ele>
  <time>2026-09-01T19:58:37Z</time>
  <course>104.29</course>
  <speed>11.303065955748465</speed>
  <fix>3d</fix>
</trkpt>
<trkpt lat="-27.273687" lon="151.2895472">
  <ele>373.37</ele>
  <time>2026-09-01T19:58:37Z</time>
  <course>104.95</course>
  <speed>11.71</speed>
  <fix>3d</fix>
</trkpt>
<trkpt lat="-27.273697" lon="151.2895906">
  <ele>373.54</ele>
  <time>2026-09-01T19:58:37Z</time>
  <course>104.29</course>
  <speed>11.15749523862771</speed>
  <fix>3d</fix>
</trkpt>
<trkpt lat="-27.2736923" lon="151.2895698">
  <ele>373.43</ele>
  <time>2026-09-01T19:58:37Z</time>
  <course>104.93</course>
  <speed>11.42</speed>
  <fix>3d</fix>
</trkpt>
<trkpt lat="-27.2736995" lon="151.2896014">
  <ele>373.56</ele>
  <time>2026-09-01T19:58:37Z</time>
  <course>104.29</course>
  <speed>11.014472297845233</speed>
  <fix>3d</fix>
</trkpt>
<trkpt lat="-27.2736923" lon="151.2895698">
  <ele>373.43</ele>
  <time>2026-09-01T19:58:37Z</time>
  <course>104.93</course>
  <speed>11.42</speed>
  <fix>3d</fix>
</trkpt>
<trkpt lat="-27.2737021" lon="151.2896121">
  <ele>373.58</ele>
  <time>2026-09-01T19:58:37Z</time>
  <course>104.29</course>
  <speed>10.878570678172753</speed>
  <fix>3d</fix>
</trkpt>
<trkpt lat="-27.2736976" lon="151.2895918">
  <ele>373.48</ele>
  <time>2026-09-01T19:58:37Z</time>
  <course>104.91</course>
  <speed>11.13</speed>
  <fix>3d</fix>
</trkpt>
<trkpt lat="-27.2737046" lon="151.2896226">
  <ele>373.6</ele>
  <time>2026-09-01T19:58:37Z</time>
  <course>104.3</course>
  <speed>10.733000512438261</speed>
  <fix>3d</fix>
</trkpt>
<trkpt lat="-27.2736976" lon="151.2895918">
  <ele>373.48</ele>
  <time>2026-09-01T19:58:37Z</time>
  <course>104.91</course>
  <speed>11.13</speed>
  <fix>3d</fix>
</trkpt>
<trkpt lat="-27.273707" lon="151.289633">
  <ele>373.61</ele>
  <time>2026-09-01T19:58:37Z</time>
  <course>104.32</course>
  <speed>10.589976392797105</speed>
  <fix>3d</fix>
</trkpt>
<trkpt lat="-27.2737027" lon="151.2896132">
  <ele>373.52</ele>
  <time>2026-09-01T19:58:37Z</time>
  <course>104.9</course>
  <speed>10.85</speed>
  <fix>3d</fix>
</trkpt>
<trkpt lat="-27.2737095" lon="151.2896433">
  <ele>373.63</ele>
  <time>2026-09-01T19:58:37Z</time>
  <course>104.33</course>
  <speed>10.4444052008719</speed>
  <fix>3d</fix>
</trkpt>
<trkpt lat="-27.2737027" lon="151.2896132">
  <ele>373.52</ele>
  <time>2026-09-01T19:58:37Z</time>
  <course>104.9</course>
  <speed>10.85</speed>
  <fix>3d</fix>
</trkpt>
<trkpt lat="-27.2737118" lon="151.2896533">
  <ele>373.64</ele>
  <time>2026-09-01T19:58:37Z</time>
  <course>104.34</course>
  <speed>10.298834885558659</speed>
  <fix>3d</fix>
</trkpt>
<trkpt lat="-27.2737076" lon="151.2896341">
  <ele>373.55</ele>
  <time>2026-09-01T19:58:37Z</time>
  <course>104.89</course>
  <speed>10.56</speed>
  <fix>3d</fix>
</trkpt>
<trkpt lat="-27.2737142" lon="151.2896632">
  <ele>373.66</ele>
  <time>2026-09-01T19:58:37Z</time>
  <course>104.36</course>
  <speed>10.133923228444155</speed>
  <fix>3d</fix>
</trkpt>
<trkpt lat="-27.2737076" lon="151.2896341">
  <ele>373.55</ele>
  <time>2026-09-01T19:58:37Z</time>
  <course>104.89</course>
  <speed>10.56</speed>
  <fix>3d</fix>
</trkpt>
<trkpt lat="-27.2737165" lon="151.289673">
  <ele>373.68</ele>
  <time>2026-09-01T19:58:37Z</time>
  <course>104.36</course>
  <speed>9.978682277735874</speed>
  <fix>3d</fix>
</trkpt>
<trkpt lat="-27.2737124" lon="151.2896545">
  <ele>373.58</ele>
  <time>2026-09-01T19:58:37Z</time>
  <course>104.89</course>
  <speed>10.26</speed>
  <fix>3d</fix>
</trkpt>
<trkpt lat="-27.2737189" lon="151.2896829">
  <ele>373.7</ele>
  <time>2026-09-01T19:58:37Z</time>
  <course>104.37</course>
  <speed>9.804101182668404</speed>
  <fix>3d</fix>
</trkpt>
<trkpt lat="-27.2737124" lon="151.2896545">
  <ele>373.58</ele>
  <time>2026-09-01T19:58:37Z</time>
  <course>104.89</course>
  <speed>10.26</speed>
  <fix>3d</fix>
</trkpt>
<trkpt lat="-27.2737211" lon="151.2896923">
  <ele>373.73</ele>
  <time>2026-09-01T19:58:37Z</time>
  <course>104.37</course>
  <speed>9.629522314216837</speed>
  <fix>3d</fix>
</trkpt>
<trkpt lat="-27.2737171" lon="151.2896743">
  <ele>373.62</ele>
  <time>2026-09-01T19:58:37Z</time>
  <course>104.9</course>
  <speed>9.94</speed>
  <fix>3d</fix>
</trkpt>
<trkpt lat="-27.2737233" lon="151.2897016">
  <ele>373.77</ele>
  <time>2026-09-01T19:58:37Z</time>
  <course>104.37</course>
  <speed>9.452391231852394</speed>
  <fix>3d</fix>
</trkpt>
<trkpt lat="-27.2737171" lon="151.2896743">
  <ele>373.62</ele>
  <time>2026-09-01T19:58:37Z</time>
  <course>104.9</course>
  <speed>9.94</speed>
  <fix>3d</fix>
</trkpt>
<trkpt lat="-27.2737255" lon="151.2897108">
  <ele>373.81</ele>
  <time>2026-09-01T19:58:37Z</time>
  <course>104.38</course>
  <speed>9.268144366592484</speed>
  <fix>3d</fix>
</trkpt>
<trkpt lat="-27.2737216" lon="151.2896933">
  <ele>373.68</ele>
  <time>2026-09-01T19:58:37Z</time>
  <course>104.91</course>
  <speed>9.6</speed>
  <fix>3d</fix>
</trkpt>
<trkpt lat="-27.2737276" lon="151.2897197">
  <ele>373.85</ele>
  <time>2026-09-01T19:58:37Z</time>
  <course>104.38</course>
  <speed>9.081343512939041</speed>
  <fix>3d</fix>
</trkpt>
<trkpt lat="-27.2737216" lon="151.2896933">
  <ele>373.68</ele>
  <time>2026-09-01T19:58:37Z</time>
  <course>104.91</course>
  <speed>9.6</speed>
  <fix>3d</fix>
</trkpt>
<trkpt lat="-27.2737297" lon="151.2897285">
  <ele>373.89</ele>
  <time>2026-09-01T19:58:37Z</time>
  <course>104.38</course>
  <speed>8.8848747880879</speed>
  <fix>3d</fix>
</trkpt>
<trkpt lat="-27.2737259" lon="151.2897118">
  <ele>373.75</ele>
  <time>2026-09-01T19:58:37Z</time>
  <course>104.93</course>
  <speed>9.24</speed>
  <fix>3d</fix>
</trkpt>
<trkpt lat="-27.2737317" lon="151.2897371">
  <ele>373.93</ele>
  <time>2026-09-01T19:58:37Z</time>
  <course>104.38</course>
  <speed>8.698074499565982</speed>
  <fix>3d</fix>
</trkpt>
<trkpt lat="-27.2737259" lon="151.2897118">
  <ele>373.75</ele>
  <time>2026-09-01T19:58:37Z</time>
  <course>104.93</course>
  <speed>9.24</speed>
  <fix>3d</fix>
</trkpt>
<trkpt lat="-27.2737337" lon="151.2897455">
  <ele>373.97</ele>
  <time>2026-09-01T19:58:37Z</time>
  <course>104.38</course>
  <speed>8.50416368610106</speed>
  <fix>3d</fix>
</trkpt>
<trkpt lat="-27.2737301" lon="151.2897295">
  <ele>373.83</ele>
  <time>2026-09-01T19:58:37Z</time>
  <course>104.95</course>
  <speed>8.86</speed>
  <fix>3d</fix>
</trkpt>
<trkpt lat="-27.2737357" lon="151.2897537">
  <ele>374.02</ele>
  <time>2026-09-01T19:58:37Z</time>
  <course>104.38</course>
  <speed>8.307695227919714</speed>
  <fix>3d</fix>
</trkpt>
<trkpt lat="-27.2737301" lon="151.2897295">
  <ele>373.83</ele>
  <time>2026-09-01T19:58:37Z</time>
  <course>104.95</course>
  <speed>8.86</speed>
  <fix>3d</fix>
</trkpt>
<trkpt lat="-27.2737376" lon="151.2897617">
  <ele>374.06</ele>
  <time>2026-09-01T19:58:37Z</time>
  <course>104.39</course>
  <speed>8.111226787607409</speed>
  <fix>3d</fix>
</trkpt>
<trkpt lat="-27.2737342" lon="151.2897464">
  <ele>373.91</ele>
  <time>2026-09-01T19:58:37Z</time>
  <course>104.97</course>
  <speed>8.47</speed>
  <fix>3d</fix>
</trkpt>
<trkpt lat="-27.2737395" lon="151.2897696">
  <ele>374.1</ele>
  <time>2026-09-01T19:58:37Z</time>
  <course>104.39</course>
  <speed>7.914758366494835</speed>
  <fix>3d</fix>
</trkpt>
<trkpt lat="-27.2737342" lon="151.2897464">
  <ele>373.91</ele>
  <time>2026-09-01T19:58:37Z</time>
  <course>104.97</course>
  <speed>8.47</speed>
  <fix>3d</fix>
</trkpt>
<trkpt lat="-27.2737413" lon="151.2897772">
  <ele>374.14</ele>
  <time>2026-09-01T19:58:37Z</time>
  <course>104.39</course>
  <speed>7.708625039525531</speed>
  <fix>3d</fix>
</trkpt>
<trkpt lat="-27.273738" lon="151.2897626">
  <ele>374.0</ele>
  <time>2026-09-01T19:58:37Z</time>
  <course>104.99</course>
  <speed>8.07</speed>
  <fix>3d</fix>
</trkpt>
<trkpt lat="-27.2737431" lon="151.2897846">
  <ele>374.17</ele>
  <time>2026-09-01T19:58:37Z</time>
  <course>104.4</course>
  <speed>7.5121568141246895</speed>
  <fix>3d</fix>
</trkpt>
<trkpt lat="-27.273738" lon="151.2897626">
  <ele>374.0</ele>
  <time>2026-09-01T19:58:37Z</time>
  <course>104.99</course>
  <speed>8.07</speed>
  <fix>3d</fix>
</trkpt>
<trkpt lat="-27.2737448" lon="151.2897918">
  <ele>374.2</ele>
  <time>2026-09-01T19:58:37Z</time>
  <course>104.41</course>
  <speed>7.315688621039033</speed>
  <fix>3d</fix>
</trkpt>
<trkpt lat="-27.2737417" lon="151.289778">
  <ele>374.07</ele>
  <time>2026-09-01T19:58:37Z</time>
  <course>105.02</course>
  <speed>7.67</speed>
  <fix>3d</fix>
</trkpt>
<trkpt lat="-27.2737465" lon="151.2897988">
  <ele>374.23</ele>
  <time>2026-09-01T19:58:37Z</time>
  <course>104.42</course>
  <speed>7.11922046294396</speed>
  <fix>3d</fix>
</trkpt>
<trkpt lat="-27.2737417" lon="151.289778">
  <ele>374.07</ele>
  <time>2026-09-01T19:58:37Z</time>
  <course>105.02</course>
  <speed>7.67</speed>
  <fix>3d</fix>
</trkpt>
<trkpt lat="-27.2737481" lon="151.2898056">
  <ele>374.24</ele>
  <time>2026-09-01T19:58:37Z</time>
  <course>104.43</course>
  <speed>6.925330317031817</speed>
  <fix>3d</fix>
</trkpt>
<trkpt lat="-27.2737452" lon="151.2897926">
  <ele>374.12</ele>
  <time>2026-09-01T19:58:37Z</time>
  <course>105.05</course>
  <speed>7.28</speed>
  <fix>3d</fix>
</trkpt>
<trkpt lat="-27.2737497" lon="151.2898123">
  <ele>374.25</ele>
  <time>2026-09-01T19:58:37Z</time>
  <course>104.44</course>
  <speed>6.728863202651692</speed>
  <fix>3d</fix>
</trkpt>
<trkpt lat="-27.2737452" lon="151.2897926">
  <ele>374.12</ele>
  <time>2026-09-01T19:58:37Z</time>
  <course>105.05</course>
  <speed>7.28</speed>
  <fix>3d</fix>
</trkpt>
<trkpt lat="-27.2737512" lon="151.2898187">
  <ele>374.24</ele>
  <time>2026-09-01T19:58:37Z</time>
  <course>104.45</course>
  <speed>6.5323961912915225</speed>
  <fix>3d</fix>
</trkpt>
<trkpt lat="-27.2737484" lon="151.2898064">
  <ele>374.16</ele>
  <time>2026-09-01T19:58:37Z</time>
  <course>105.1</course>
  <speed>6.89</speed>
  <fix>3d</fix>
</trkpt>
<trkpt lat="-27.2737527" lon="151.2898248">
  <ele>374.16</ele>
  <time>2026-09-01T19:58:37Z</time>
  <course>104.45</course>
  <speed>6.202596230611823</speed>
  <fix>3d</fix>
</trkpt>
<trkpt lat="-27.2737484" lon="151.2898064">
  <ele>374.16</ele>
  <time>2026-09-01T19:58:37Z</time>
  <course>105.1</course>
  <speed>6.89</speed>
  <fix>3d</fix>
</trkpt>
<trkpt lat="-27.2737541" lon="151.2898306">
  <ele>374.02</ele>
  <time>2026-09-01T19:58:37Z</time>
  <course>104.38</course>
  <speed>5.727215728432097</speed>
  <fix>3d</fix>
</trkpt>
<trkpt lat="-27.2737516" lon="151.2898194">
  <ele>374.13</ele>
  <time>2026-09-01T19:58:37Z</time>
  <course>105.14</course>
  <speed>6.43</speed>
  <fix>3d</fix>
</trkpt>
<trkpt lat="-27.2737554" lon="151.2898359">
  <ele>373.86</ele>
  <time>2026-09-01T19:58:37Z</time>
  <course>104.24</course>
  <speed>5.16939067976101</speed>
  <fix>3d</fix>
</trkpt>
<trkpt lat="-27.2737516" lon="151.2898194">
  <ele>374.13</ele>
  <time>2026-09-01T19:58:37Z</time>
  <course>105.14</course>
  <speed>6.43</speed>
  <fix>3d</fix>
</trkpt>
<trkpt lat="-27.2737566" lon="151.2898406">
  <ele>373.68</ele>
  <time>2026-09-01T19:58:37Z</time>
  <course>104.05</course>
  <speed>4.58</speed>
  <fix>3d</fix>
</trkpt>
<trkpt lat="-27.2737544" lon="151.2898312">
  <ele>373.93</ele>
  <time>2026-09-01T19:58:37Z</time>
  <course>105.19</course>
  <speed>5.66</speed>
  <fix>3d</fix>
</trkpt>
<trkpt lat="-27.2737576" lon="151.2898448">
  <ele>373.49</ele>
  <time>2026-09-01T19:58:37Z</time>
  <course>103.84</course>
  <speed>3.9713221979587603</speed>
  <fix>3d</fix>
</trkpt>
<trkpt lat="-27.2737544" lon="151.2898312">
  <ele>373.93</ele>
  <time>2026-09-01T19:58:37Z</time>
  <course>105.19</course>
  <speed>5.66</speed>
  <fix>3d</fix>
</trkpt>
<trkpt lat="-27.2737585" lon="151.2898483">
  <ele>373.31</ele>
  <time>2026-09-01T19:58:37Z</time>
  <course>103.63</course>
  <speed>3.3819520990102747</speed>
  <fix>3d</fix>
</trkpt>
<trkpt lat="-27.2737569" lon="151.2898412">
  <ele>373.6</ele>
  <time>2026-09-01T19:58:37Z</time>
  <course>105.29</course>
  <speed>4.55</speed>
  <fix>3d</fix>
</trkpt>
<trkpt lat="-27.2737592" lon="151.2898514">
  <ele>373.14</ele>
  <time>2026-09-01T19:58:37Z</time>
  <course>103.44</course>
  <speed>2.833813684771813</speed>
  <fix>3d</fix>
</trkpt>
<trkpt lat="-27.2737569" lon="151.2898412">
  <ele>373.6</ele>
  <time>2026-09-01T19:58:37Z</time>
  <course>105.29</course>
  <speed>4.55</speed>
  <fix>3d</fix>
</trkpt>
<trkpt lat="-27.2737599" lon="151.2898539">
  <ele>372.99</ele>
  <time>2026-09-01T19:58:37Z</time>
  <course>103.28</course>
  <speed>2.3242202993692316</speed>
  <fix>3d</fix>
</trkpt>
<trkpt lat="-27.2737587" lon="151.289849">
  <ele>373.24</ele>
  <time>2026-09-01T19:58:37Z</time>
  <course>105.41</course>
  <speed>3.38</speed>
  <fix>3d</fix>
</trkpt>
<trkpt lat="-27.2737604" lon="151.2898559">
  <ele>372.87</ele>
  <time>2026-09-01T19:58:37Z</time>
  <course>103.15</course>
  <speed>1.8585209172887993</speed>
  <fix>3d</fix>
</trkpt>
<trkpt lat="-27.2737587" lon="151.289849">
  <ele>373.24</ele>
  <time>2026-09-01T19:58:37Z</time>
  <course>105.41</course>
  <speed>3.38</speed>
  <fix>3d</fix>
</trkpt>
<trkpt lat="-27.2737608" lon="151.2898576">
  <ele>372.77</ele>
  <time>2026-09-01T19:58:37Z</time>
  <course>103.06</course>
  <speed>1.4533065746772085</speed>
  <fix>3d</fix>
</trkpt>
<trkpt lat="-27.2737601" lon="151.2898545">
  <ele>372.92</ele>
  <time>2026-09-01T19:58:37Z</time>
  <course>105.46</course>
  <speed>2.31</speed>
  <fix>3d</fix>
</trkpt>
<trkpt lat="-27.2737611" lon="151.2898589">
  <ele>372.7</ele>
  <time>2026-09-01T19:58:37Z</time>
  <course>102.99</course>
  <speed>1.1086027241532468</speed>
  <fix>3d</fix>
</trkpt>
<trkpt lat="-27.2737601" lon="151.2898545">
  <ele>372.92</ele>
  <time>2026-09-01T19:58:37Z</time>
  <course>105.46</course>
  <speed>2.31</speed>
  <fix>3d</fix>
</trkpt>
<trkpt lat="-27.2737614" lon="151.2898598">
  <ele>372.66</ele>
  <time>2026-09-01T19:58:37Z</time>
  <course>102.96</course>
  <speed>0.8271033792700887</speed>
  <fix>3d</fix>
</trkpt>
<trkpt lat="-27.273761" lon="151.2898582">
  <ele>372.7</ele>
  <time>2026-09-01T19:58:37Z</time>
  <course>105.3</course>
  <speed>1.44</speed>
  <fix>3d</fix>
</trkpt>
<trkpt lat="-27.2737615" lon="151.2898606">
  <ele>372.65</ele>
  <time>2026-09-01T19:58:37Z</time>
  <course>102.94</course>
  <speed>0.5869412236331676</speed>
  <fix>3d</fix>
</trkpt>
<trkpt lat="-27.273761" lon="151.2898582">
  <ele>372.7</ele>
  <time>2026-09-01T19:58:37Z</time>
  <course>105.3</course>
  <speed>1.44</speed>
  <fix>3d</fix>
</trkpt>
<trkpt lat="-27.2737616" lon="151.2898611">
  <ele>372.66</ele>
  <time>2026-09-01T19:58:37Z</time>
  <course>102.94</course>
  <speed>0.4197618372363071</speed>
  <fix>3d</fix>
</trkpt>
<trkpt lat="-27.2737615" lon="151.2898603">
  <ele>372.59</ele>
  <time>2026-09-01T19:58:37Z</time>
  <course>104.56</course>
  <speed>0.79</speed>
  <fix>3d</fix>
</trkpt>
<trkpt lat="-27.2737617" lon="151.2898615">
  <ele>372.7</ele>
  <time>2026-09-01T19:58:37Z</time>
  <course>102.95</course>
  <speed>0.2942787793912432</speed>
  <fix>3d</fix>
</trkpt>
<trkpt lat="-27.2737615" lon="151.2898603">
  <ele>372.59</ele>
  <time>2026-09-01T19:58:37Z</time>
  <course>104.56</course>
  <speed>0.79</speed>
  <fix>3d</fix>
</trkpt>
<trkpt lat="-27.2737617" lon="151.2898617">
  <ele>372.76</ele>
  <time>2026-09-01T19:58:37Z</time>
  <course>102.96</course>
  <speed>0.2109502310972899</speed>
  <fix>3d</fix>
</trkpt>
<trkpt lat="-27.2737618" lon="151.2898614">
  <ele>372.59</ele>
  <time>2026-09-01T19:58:37Z</time>
  <course>102.2</course>
  <speed>0.37</speed>
  <fix>3d</fix>
</trkpt>
<trkpt lat="-27.2737618" lon="151.2898619">
  <ele>372.83</ele>
  <time>2026-09-01T19:58:37Z</time>
  <course>102.96</course>
  <speed>0.16</speed>
  <fix>3d</fix>
</trkpt>
<trkpt lat="-27.2737618" lon="151.2898614">
  <ele>372.59</ele>
  <time>2026-09-01T19:58:37Z</time>
  <course>102.2</course>
  <speed>0.37</speed>
  <fix>3d</fix>
</trkpt>
<trkpt lat="-27.2737618" lon="151.2898621">
  <ele>372.9</ele>
  <time>2026-09-01T19:58:37Z</time>
  <course>102.96</course>
  <speed>0.13</speed>
  <fix>3d</fix>
</trkpt>
<trkpt lat="-27.2737619" lon="151.2898619">
  <ele>372.68</ele>
  <time>2026-09-01T19:58:37Z</time>
  <course>94.71</course>
  <speed>0.15</speed>
  <fix>3d</fix>
</trkpt>
<trkpt lat="-27.2737618" lon="151.2898622">
  <ele>372.98</ele>
  <time>2026-09-01T19:58:37Z</time>
  <course>102.95</course>
  <speed>0.11045361017187261</speed>
  <fix>3d</fix>
</trkpt>
<trkpt lat="-27.2737619" lon="151.2898619">
  <ele>372.68</ele>
  <time>2026-09-01T19:58:37Z</time>
  <course>94.71</course>
  <speed>0.15</speed>
  <fix>3d</fix>
</trkpt>
<trkpt lat="-27.2737618" lon="151.2898623">
  <ele>373.05</ele>
  <time>2026-09-01T19:58:37Z</time>
  <course>102.92</course>
  <speed>0.1004987562112089</speed>
  <fix>3d</fix>
</trkpt>
<trkpt lat="-27.2737618" lon="151.2898621">
  <ele>372.81</ele>
  <time>2026-09-01T19:58:37Z</time>
  <course>72.56</course>
  <speed>0.05</speed>
  <fix>3d</fix>
</trkpt>
<trkpt lat="-27.2737618" lon="151.2898624">
  <ele>373.12</ele>
  <time>2026-09-01T19:58:37Z</time>
  <course>102.86</course>
  <speed>0.09055385138137417</speed>
  <fix>3d</fix>
</trkpt>
<trkpt lat="-27.2737618" lon="151.2898621">
  <ele>372.81</ele>
  <time>2026-09-01T19:58:37Z</time>
  <course>72.56</course>
  <speed>0.05</speed>
  <fix>3d</fix>
</trkpt>
<trkpt lat="-27.2737618" lon="151.2898624">
  <ele>373.18</ele>
  <time>2026-09-01T19:58:37Z</time>
  <course>102.79</course>
  <speed>0.08062257748298549</speed>
  <fix>3d</fix>
</trkpt>
<trkpt lat="-27.2737618" lon="151.2898621">
  <ele>372.96</ele>
  <time>2026-09-01T19:58:37Z</time>
  <course>28.37</course>
  <speed>0.02</speed>
  <fix>3d</fix>
</trkpt>
<trkpt lat="-27.2737618" lon="151.2898625">
  <ele>373.23</ele>
  <time>2026-09-01T19:58:37Z</time>
  <course>102.72</course>
  <speed>0.08062257748298549</speed>
  <fix>3d</fix>
</trkpt>
<trkpt lat="-27.2737618" lon="151.2898621">
  <ele>372.96</ele>
  <time>2026-09-01T19:58:37Z</time>
  <course>28.37</course>
  <speed>0.02</speed>
  <fix>3d</fix>
</trkpt>
<trkpt lat="-27.2737618" lon="151.2898625">
  <ele>373.27</ele>
  <time>2026-09-01T19:58:37Z</time>
  <course>102.68</course>
  <speed>0.08062257748298549</speed>
  <fix>3d</fix>
</trkpt>
<trkpt lat="-27.2737618" lon="151.2898621">
  <ele>373.09</ele>
  <time>2026-09-01T19:58:37Z</time>
  <course>353.4</course>
  <speed>0.02</speed>
  <fix>3d</fix>
</trkpt>
<trkpt lat="-27.2737618" lon="151.2898625">
  <ele>373.3</ele>
  <time>2026-09-01T19:58:37Z</time>
  <course>102.68</course>
  <speed>0.09055385138137417</speed>
  <fix>3d</fix>
</trkpt>
<trkpt lat="-27.2737618" lon="151.2898621">
  <ele>373.09</ele>
  <time>2026-09-01T19:58:37Z</time>
  <course>353.4</course>
  <speed>0.02</speed>
  <fix>3d</fix>
</trkpt>
<trkpt lat="-27.2737617" lon="151.2898626">
  <ele>373.32</ele>
  <time>2026-09-01T19:58:37Z</time>
  <course>102.73</course>
  <speed>0.09055385138137417</speed>
  <fix>3d</fix>
</trkpt>
<trkpt lat="-27.2737618" lon="151.2898621">
  <ele>373.18</ele>
  <time>2026-09-01T19:58:37Z</time>
  <course>347.39</course>
  <speed>0.02</speed>
  <fix>3d</fix>
</trkpt>
<trkpt lat="-27.2737617" lon="151.2898626">
  <ele>373.32</ele>
  <time>2026-09-01T19:58:37Z</time>
  <course>102.82</course>
  <speed>0.11045361017187261</speed>
  <fix>3d</fix>
</trkpt>
<trkpt lat="-27.2737618" lon="151.2898621">
  <ele>373.18</ele>
  <time>2026-09-01T19:58:37Z</time>
  <course>347.39</course>
  <speed>0.02</speed>
  <fix>3d</fix>
</trkpt>
<trkpt lat="-27.2737617" lon="151.2898627">
  <ele>373.32</ele>
  <time>2026-09-01T19:58:37Z</time>
  <course>102.93</course>
  <speed>0.130384048104053</speed>
  <fix>3d</fix>
</trkpt>
<trkpt lat="-27.2737618" lon="151.2898621">
  <ele>373.22</ele>
  <time>2026-09-01T19:58:37Z</time>
  <course>32.67</course>
  <speed>0.01</speed>
  <fix>3d</fix>
</trkpt>
<trkpt lat="-27.2737617" lon="151.2898628">
  <ele>373.3</ele>
  <time>2026-09-01T19:58:37Z</time>
  <course>103.04</course>
  <speed>0.15</speed>
  <fix>3d</fix>
</trkpt>
<trkpt lat="-27.2737618" lon="151.2898621">
  <ele>373.22</ele>
  <time>2026-09-01T19:58:37Z</time>
  <course>32.67</course>
  <speed>0.01</speed>
  <fix>3d</fix>
</trkpt>
<trkpt lat="-27.2737617" lon="151.2898629">
  <ele>373.29</ele>
  <time>2026-09-01T19:58:37Z</time>
  <course>103.13</course>
  <speed>0.18</speed>
  <fix>3d</fix>
</trkpt>
<trkpt lat="-27.2737618" lon="151.2898622">
  <ele>373.22</ele>
  <time>2026-09-01T19:58:37Z</time>
  <course>84.2</course>
  <speed>0.04</speed>
  <fix>3d</fix>
</trkpt>
<trkpt lat="-27.2737617" lon="151.289863">
  <ele>373.26</ele>
  <time>2026-09-01T19:58:37Z</time>
  <course>103.19</course>
  <speed>0.2102379604162864</speed>
  <fix>3d</fix>
</trkpt>
<trkpt lat="-27.2737618" lon="151.2898622">
  <ele>373.22</ele>
  <time>2026-09-01T19:58:37Z</time>
  <course>84.2</course>
  <speed>0.04</speed>
  <fix>3d</fix>
</trkpt>
<trkpt lat="-27.2737617" lon="151.2898632">
  <ele>373.24</ele>
  <time>2026-09-01T19:58:37Z</time>
  <course>103.22</course>
  <speed>0.25079872407968906</speed>
  <fix>3d</fix>
</trkpt>
<trkpt lat="-27.2737618" lon="151.2898624">
  <ele>373.2</ele>
  <time>2026-09-01T19:58:37Z</time>
  <course>97.47</course>
  <speed>0.09</speed>
  <fix>3d</fix>
</trkpt>
<trkpt lat="-27.2737617" lon="151.2898634">
  <ele>373.22</ele>
  <time>2026-09-01T19:58:37Z</time>
  <course>103.23</course>
  <speed>0.3014962686336267</speed>
  <fix>3d</fix>
</trkpt>
<trkpt lat="-27.2737618" lon="151.2898624">
  <ele>373.2</ele>
  <time>2026-09-01T19:58:37Z</time>
  <course>97.47</course>
  <speed>0.09</speed>
  <fix>3d</fix>
</trkpt>
<trkpt lat="-27.2737618" lon="151.2898637">
  <ele>373.2</ele>
  <time>2026-09-01T19:58:37Z</time>
  <course>103.21</course>
  <speed>0.3423448553724738</speed>
  <fix>3d</fix>
</trkpt>
<trkpt lat="-27.2737618" lon="151.2898626">
  <ele>373.16</ele>
  <time>2026-09-01T19:58:37Z</time>
  <course>101.87</course>
  <speed>0.17</speed>
  <fix>3d</fix>
</trkpt>
<trkpt lat="-27.2737618" lon="151.289864">
  <ele>373.18</ele>
  <time>2026-09-01T19:58:37Z</time>
  <course>103.17</course>
  <speed>0.40311288741492746</speed>
  <fix>3d</fix>
</trkpt>
<trkpt lat="-27.2737618" lon="151.2898626">
  <ele>373.16</ele>
  <time>2026-09-01T19:58:37Z</time>
  <course>101.87</course>
  <speed>0.17</speed>
  <fix>3d</fix>
</trkpt>
<trkpt lat="-27.2737619" lon="151.2898643">
  <ele>373.16</ele>
  <time>2026-09-01T19:58:37Z</time>
  <course>103.13</course>
  <speed>0.455411901469428</speed>
  <fix>3d</fix>
</trkpt>
<trkpt lat="-27.2737618" lon="151.2898631">
  <ele>373.12</ele>
  <time>2026-09-01T19:58:37Z</time>
  <course>103.75</course>
  <speed>0.27</speed>
  <fix>3d</fix>
</trkpt>
<trkpt lat="-27.273762" lon="151.2898647">
  <ele>373.15</ele>
  <time>2026-09-01T19:58:37Z</time>
  <course>103.1</course>
  <speed>0.517880295048962</speed>
  <fix>3d</fix>
</trkpt>
<trkpt lat="-27.2737618" lon="151.2898631">
  <ele>373.12</ele>
  <time>2026-09-01T19:58:37Z</time>
  <course>103.75</course>
  <speed>0.27</speed>
  <fix>3d</fix>
</trkpt>
<trkpt lat="-27.2737621" lon="151.2898652">
  <ele>373.15</ele>
  <time>2026-09-01T19:58:37Z</time>
  <course>103.08</course>
  <speed>0.5787054518492115</speed>
  <fix>3d</fix>
</trkpt>
<trkpt lat="-27.273762" lon="151.2898637">
  <ele>373.09</ele>
  <time>2026-09-01T19:58:37Z</time>
  <course>104.7</course>
  <speed>0.38</speed>
  <fix>3d</fix>
</trkpt>
<trkpt lat="-27.2737622" lon="151.2898658">
  <ele>373.14</ele>
  <time>2026-09-01T19:58:37Z</time>
  <course>103.06</course>
  <speed>0.6413267497929586</speed>
  <fix>3d</fix>
</trkpt>
<trkpt lat="-27.273762" lon="151.2898637">
  <ele>373.09</ele>
  <time>2026-09-01T19:58:37Z</time>
  <course>104.7</course>
  <speed>0.38</speed>
  <fix>3d</fix>
</trkpt>
<trkpt lat="-27.2737623" lon="151.2898663">
  <ele>373.14</ele>
  <time>2026-09-01T19:58:37Z</time>
  <course>103.07</course>
  <speed>0.7040596565632774</speed>
  <fix>3d</fix>
</trkpt>
<trkpt lat="-27.2737622" lon="151.2898645">
  <ele>373.07</ele>
  <time>2026-09-01T19:58:37Z</time>
  <course>105.25</course>
  <speed>0.51</speed>
  <fix>3d</fix>
</trkpt>
<trkpt lat="-27.2737625" lon="151.289867">
  <ele>373.15</ele>
  <time>2026-09-01T19:58:37Z</time>
  <course>103.08</course>
  <speed>0.7648529270389177</speed>
  <fix>3d</fix>
</trkpt>
<trkpt lat="-27.2737622" lon="151.2898645">
  <ele>373.07</ele>
  <time>2026-09-01T19:58:37Z</time>
  <course>105.25</course>
  <speed>0.51</speed>
  <fix>3d</fix>
</trkpt>
<trkpt lat="-27.2737626" lon="151.2898677">
  <ele>373.16</ele>
  <time>2026-09-01T19:58:37Z</time>
  <course>103.1</course>
  <speed>0.8276472678623424</speed>
  <fix>3d</fix>
</trkpt>
<trkpt lat="-27.2737624" lon="151.2898657">
  <ele>373.07</ele>
  <time>2026-09-01T19:58:37Z</time>
  <course>105.6</course>
  <speed>0.64</speed>
  <fix>3d</fix>
</trkpt>
<trkpt lat="-27.2737628" lon="151.2898685">
  <ele>373.17</ele>
  <time>2026-09-01T19:58:37Z</time>
  <course>103.12</course>
  <speed>0.8905054744357274</speed>
  <fix>3d</fix>
</trkpt>
<trkpt lat="-27.2737624" lon="151.2898657">
  <ele>373.07</ele>
  <time>2026-09-01T19:58:37Z</time>
  <course>105.6</course>
  <speed>0.64</speed>
  <fix>3d</fix>
</trkpt>
<trkpt lat="-27.273763" lon="151.2898693">
  <ele>373.18</ele>
  <time>2026-09-01T19:58:37Z</time>
  <course>103.14</course>
  <speed>0.9534149149242422</speed>
  <fix>3d</fix>
</trkpt>
<trkpt lat="-27.2737628" lon="151.2898671">
  <ele>373.09</ele>
  <time>2026-09-01T19:58:37Z</time>
  <course>105.83</course>
  <speed>0.77</speed>
  <fix>3d</fix>
</trkpt>
<trkpt lat="-27.2737632" lon="151.2898702">
  <ele>373.19</ele>
  <time>2026-09-01T19:58:37Z</time>
  <course>103.15</course>
  <speed>1.0043903623591774</speed>
  <fix>3d</fix>
</trkpt>
<trkpt lat="-27.2737628" lon="151.2898671">
  <ele>373.09</ele>
  <time>2026-09-01T19:58:37Z</time>
  <course>105.83</course>
  <speed>0.77</speed>
  <fix>3d</fix>
</trkpt>
<trkpt lat="-27.2737634" lon="151.2898712">
  <ele>373.21</ele>
  <time>2026-09-01T19:58:37Z</time>
  <course>103.17</course>
  <speed>1.0575916035975323</speed>
  <fix>3d</fix>
</trkpt>
<trkpt lat="-27.2737632" lon="151.2898687">
  <ele>373.11</ele>
  <time>2026-09-01T19:58:37Z</time>
  <course>105.98</course>
  <speed>0.9</speed>
  <fix>3d</fix>
</trkpt>
<trkpt lat="-27.2737637" lon="151.2898722">
  <ele>373.22</ele>
  <time>2026-09-01T19:58:37Z</time>
  <course>103.18</course>
  <speed>1.1183022847155415</speed>
  <fix>3d</fix>
</trkpt>
<trkpt lat="-27.2737632" lon="151.2898687">
  <ele>373.11</ele>
  <time>2026-09-01T19:58:37Z</time>
  <course>105.98</course>
  <speed>0.9</speed>
  <fix>3d</fix>
</trkpt>
<trkpt lat="-27.2737639" lon="151.2898732">
  <ele>373.23</ele>
  <time>2026-09-01T19:58:37Z</time>
  <course>103.18</course>
  <speed>1.161808934377766</speed>
  <fix>3d</fix>
</trkpt>
<trkpt lat="-27.2737636" lon="151.2898706">
  <ele>373.13</ele>
  <time>2026-09-01T19:58:37Z</time>
  <course>106.06</course>
  <speed>1.01</speed>
  <fix>3d</fix>
</trkpt>
<trkpt lat="-27.2737642" lon="151.2898743">
  <ele>373.24</ele>
  <time>2026-09-01T19:58:37Z</time>
  <course>103.18</course>
  <speed>1.2127654348636425</speed>
  <fix>3d</fix>
</trkpt>
<trkpt lat="-27.2737636" lon="151.2898706">
  <ele>373.13</ele>
  <time>2026-09-01T19:58:37Z</time>
  <course>106.06</course>
  <speed>1.01</speed>
  <fix>3d</fix>
</trkpt>
<trkpt lat="-27.2737645" lon="151.2898755">
  <ele>373.25</ele>
  <time>2026-09-01T19:58:37Z</time>
  <course>103.18</course>
  <speed>1.2539936203984452</speed>
  <fix>3d</fix>
</trkpt>
<trkpt lat="-27.2737642" lon="151.2898727">
  <ele>373.15</ele>
  <time>2026-09-01T19:58:37Z</time>
  <course>106.11</course>
  <speed>1.12</speed>
  <fix>3d</fix>
</trkpt>
<trkpt lat="-27.2737648" lon="151.2898767">
  <ele>373.26</ele>
  <time>2026-09-01T19:58:37Z</time>
  <course>103.18</course>
  <speed>1.285496013218244</speed>
  <fix>3d</fix>
</trkpt>
<trkpt lat="-27.2737642" lon="151.2898727">
  <ele>373.15</ele>
  <time>2026-09-01T19:58:37Z</time>
  <course>106.11</course>
  <speed>1.12</speed>
  <fix>3d</fix>
</trkpt>
<trkpt lat="-27.2737651" lon="151.2898779">
  <ele>373.26</ele>
  <time>2026-09-01T19:58:37Z</time>
  <course>103.19</course>
  <speed>1.3267252918370103</speed>
  <fix>3d</fix>
</trkpt>
<trkpt lat="-27.2737648" lon="151.289875">
  <ele>373.16</ele>
  <time>2026-09-01T19:58:37Z</time>
  <course>106.12</course>
  <speed>1.21</speed>
  <fix>3d</fix>
</trkpt>
<trkpt lat="-27.2737654" lon="151.2898791">
  <ele>373.27</ele>
  <time>2026-09-01T19:58:37Z</time>
  <course>103.19</course>
  <speed>1.3582341477079718</speed>
  <fix>3d</fix>
</trkpt>
<trkpt lat="-27.2737648" lon="151.289875">
  <ele>373.16</ele>
  <time>2026-09-01T19:58:37Z</time>
  <course>106.12</course>
  <speed>1.21</speed>
  <fix>3d</fix>
</trkpt>
<trkpt lat="-27.2737657" lon="151.2898804">
  <ele>373.27</ele>
  <time>2026-09-01T19:58:37Z</time>
  <course>103.2</course>
  <speed>1.3800362314084367</speed>
  <fix>3d</fix>
</trkpt>
<trkpt lat="-27.2737654" lon="151.2898774">
  <ele>373.17</ele>
  <time>2026-09-01T19:58:37Z</time>
  <course>106.1</course>
  <speed>1.29</speed>
  <fix>3d</fix>
</trkpt>
<trkpt lat="-27.2737661" lon="151.2898817">
  <ele>373.27</ele>
  <time>2026-09-01T19:58:37Z</time>
  <course>103.2</course>
  <speed>1.3994641831786907</speed>
  <fix>3d</fix>
</trkpt>
<trkpt lat="-27.2737654" lon="151.2898774">
  <ele>373.17</ele>
  <time>2026-09-01T19:58:37Z</time>
  <course>106.1</course>
  <speed>1.29</speed>
  <fix>3d</fix>
</trkpt>
<trkpt lat="-27.2737664" lon="151.289883">
  <ele>373.26</ele>
  <time>2026-09-01T19:58:37Z</time>
  <course>103.21</course>
  <speed>1.4212670403551895</speed>
  <fix>3d</fix>
</trkpt>
<trkpt lat="-27.2737661" lon="151.2898799">
  <ele>373.17</ele>
  <time>2026-09-01T19:58:37Z</time>
  <course>106.05</course>
  <speed>1.35</speed>
  <fix>3d</fix>
</trkpt>
<trkpt lat="-27.2737668" lon="151.2898844">
  <ele>373.26</ele>
  <time>2026-09-01T19:58:37Z</time>
  <course>103.21</course>
  <speed>1.4309786860746738</speed>
  <fix>3d</fix>
</trkpt>
<trkpt lat="-27.2737661" lon="151.2898799">
  <ele>373.17</ele>
  <time>2026-09-01T19:58:37Z</time>
  <course>106.05</course>
  <speed>1.35</speed>
  <fix>3d</fix>
</trkpt>
<trkpt lat="-27.2737671" lon="151.2898857">
  <ele>373.26</ele>
  <time>2026-09-01T19:58:37Z</time>
  <course>103.21</course>
  <speed>1.4309786860746738</speed>
  <fix>3d</fix>
</trkpt>
<trkpt lat="-27.2737667" lon="151.2898827">
  <ele>373.17</ele>
  <time>2026-09-01T19:58:37Z</time>
  <course>105.99</course>
  <speed>1.39</speed>
  <fix>3d</fix>
</trkpt>
<trkpt lat="-27.2737674" lon="151.2898871">
  <ele>373.25</ele>
  <time>2026-09-01T19:58:37Z</time>
  <course>103.2</course>
  <speed>1.4406942770761604</speed>
  <fix>3d</fix>
</trkpt>
<trkpt lat="-27.2737667" lon="151.2898827">
  <ele>373.17</ele>
  <time>2026-09-01T19:58:37Z</time>
  <course>105.99</course>
  <speed>1.39</speed>
  <fix>3d</fix>
</trkpt>
<trkpt lat="-27.2737678" lon="151.2898884">
  <ele>373.25</ele>
  <time>2026-09-01T19:58:37Z</time>
  <course>103.2</course>
  <speed>1.4309786860746738</speed>
  <fix>3d</fix>
</trkpt>
<trkpt lat="-27.2737674" lon="151.2898854">
  <ele>373.16</ele>
  <time>2026-09-01T19:58:37Z</time>
  <course>105.93</course>
  <speed>1.42</speed>
  <fix>3d</fix>
</trkpt>
<trkpt lat="-27.2737681" lon="151.2898898">
  <ele>373.24</ele>
  <time>2026-09-01T19:58:37Z</time>
  <course>103.2</course>
  <speed>1.4309786860746738</speed>
  <fix>3d</fix>
</trkpt>
<trkpt lat="-27.2737674" lon="151.2898854">
  <ele>373.16</ele>
  <time>2026-09-01T19:58:37Z</time>
  <course>105.93</course>
  <speed>1.42</speed>
  <fix>3d</fix>
</trkpt>
<trkpt lat="-27.2737685" lon="151.2898911">
  <ele>373.23</ele>
  <time>2026-09-01T19:58:37Z</time>
  <course>103.2</course>
  <speed>1.4115594213493106</speed>
  <fix>3d</fix>
</trkpt>
<trkpt lat="-27.2737681" lon="151.2898882">
  <ele>373.15</ele>
  <time>2026-09-01T19:58:37Z</time>
  <course>105.84</course>
  <speed>1.42</speed>
  <fix>3d</fix>
</trkpt>
<trkpt lat="-27.2737688" lon="151.2898925">
  <ele>373.21</ele>
  <time>2026-09-01T19:58:37Z</time>
  <course>103.2</course>
  <speed>1.3994641831786907</speed>
  <fix>3d</fix>
</trkpt>
<trkpt lat="-27.2737681" lon="151.2898882">
  <ele>373.15</ele>
  <time>2026-09-01T19:58:37Z</time>
  <course>105.84</course>
  <speed>1.42</speed>
  <fix>3d</fix>
</trkpt>
<trkpt lat="-27.2737691" lon="151.2898938">
  <ele>373.18</ele>
  <time>2026-09-01T19:58:37Z</time>
  <course>103.21</course>
  <speed>1.3897481786280563</speed>
  <fix>3d</fix>
</trkpt>
<trkpt lat="-27.2737688" lon="151.2898909">
  <ele>373.12</ele>
  <time>2026-09-01T19:58:37Z</time>
  <course>105.73</course>
  <speed>1.41</speed>
  <fix>3d</fix>
</trkpt>
<trkpt lat="-27.2737695" lon="151.2898951">
  <ele>373.13</ele>
  <time>2026-09-01T19:58:37Z</time>
  <course>103.21</course>
  <speed>1.3679546776117988</speed>
  <fix>3d</fix>
</trkpt>
<trkpt lat="-27.2737688" lon="151.2898909">
  <ele>373.12</ele>
  <time>2026-09-01T19:58:37Z</time>
  <course>105.73</course>
  <speed>1.41</speed>
  <fix>3d</fix>
</trkpt>
<trkpt lat="-27.2737698" lon="151.2898964">
  <ele>373.06</ele>
  <time>2026-09-01T19:58:37Z</time>
  <course>103.21</course>
  <speed>1.3485177047410242</speed>
  <fix>3d</fix>
</trkpt>
<trkpt lat="-27.2737695" lon="151.2898936">
  <ele>373.07</ele>
  <time>2026-09-01T19:58:37Z</time>
  <course>105.61</course>
  <speed>1.38</speed>
  <fix>3d</fix>
</trkpt>
<trkpt lat="-27.2737701" lon="151.2898977">
  <ele>372.98</ele>
  <time>2026-09-01T19:58:37Z</time>
  <course>103.22</course>
  <speed>1.3170041761513136</speed>
  <fix>3d</fix>
</trkpt>
<trkpt lat="-27.2737695" lon="151.2898936">
  <ele>373.07</ele>
  <time>2026-09-01T19:58:37Z</time>
  <course>105.61</course>
  <speed>1.38</speed>
  <fix>3d</fix>
</trkpt>
<trkpt lat="-27.2737704" lon="151.2898989">
  <ele>372.88</ele>
  <time>2026-09-01T19:58:37Z</time>
  <course>103.22</course>
  <speed>1.2660568707605515</speed>
  <fix>3d</fix>
</trkpt>
<trkpt lat="-27.2737702" lon="151.2898963">
  <ele>372.95</ele>
  <time>2026-09-01T19:58:37Z</time>
  <course>105.48</course>
  <speed>1.34</speed>
  <fix>3d</fix>
</trkpt>
<trkpt lat="-27.2737707" lon="151.2899001">
  <ele>372.76</ele>
  <time>2026-09-01T19:58:37Z</time>
  <course>103.22</course>
  <speed>1.2224974437601086</speed>
  <fix>3d</fix>
</trkpt>
<trkpt lat="-27.2737702" lon="151.2898963">
  <ele>372.95</ele>
  <time>2026-09-01T19:58:37Z</time>
  <course>105.48</course>
  <speed>1.34</speed>
  <fix>3d</fix>
</trkpt>
<trkpt lat="-27.273771" lon="151.2899013">
  <ele>372.62</ele>
  <time>2026-09-01T19:58:37Z</time>
  <course>103.22</course>
  <speed>1.161808934377766</speed>
  <fix>3d</fix>
</trkpt>
<trkpt lat="-27.2737708" lon="151.2898988">
  <ele>372.77</ele>
  <time>2026-09-01T19:58:37Z</time>
  <course>105.34</course>
  <speed>1.26</speed>
  <fix>3d</fix>
</trkpt>
<trkpt lat="-27.2737713" lon="151.2899024">
  <ele>372.47</ele>
  <time>2026-09-01T19:58:37Z</time>
  <course>103.23</course>
  <speed>1.0988175462741756</speed>
  <fix>3d</fix>
</trkpt>
<trkpt lat="-27.2737708" lon="151.2898988">
  <ele>372.77</ele>
  <time>2026-09-01T19:58:37Z</time>
  <course>105.34</course>
  <speed>1.26</speed>
  <fix>3d</fix>
</trkpt>
<trkpt lat="-27.2737715" lon="151.2899034">
  <ele>372.31</ele>
  <time>2026-09-01T19:58:37Z</time>
  <course>103.23</course>
  <speed>1.035857133006285</speed>
  <fix>3d</fix>
</trkpt>
<trkpt lat="-27.2737714" lon="151.2899012">
  <ele>372.52</ele>
  <time>2026-09-01T19:58:37Z</time>
  <course>105.16</course>
  <speed>1.16</speed>
  <fix>3d</fix>
</trkpt>
<trkpt lat="-27.2737718" lon="151.2899044">
  <ele>372.15</ele>
  <time>2026-09-01T19:58:37Z</time>
  <course>103.22</course>
  <speed>0.9729337079164233</speed>
  <fix>3d</fix>
</trkpt>
<trkpt lat="-27.2737714" lon="151.2899012">
  <ele>372.52</ele>
  <time>2026-09-01T19:58:37Z</time>
  <course>105.16</course>
  <speed>1.16</speed>
  <fix>3d</fix>
</trkpt>
<trkpt lat="-27.273772" lon="151.2899053">
  <ele>371.98</ele>
  <time>2026-09-01T19:58:37Z</time>
  <course>103.22</course>
  <speed>0.9002777349240623</speed>
  <fix>3d</fix>
</trkpt>
<trkpt lat="-27.2737719" lon="151.2899034">
  <ele>372.22</ele>
  <time>2026-09-01T19:58:37Z</time>
  <course>104.92</course>
  <speed>1.04</speed>
  <fix>3d</fix>
</trkpt>
<trkpt lat="-27.2737722" lon="151.2899061">
  <ele>371.81</ele>
  <time>2026-09-01T19:58:37Z</time>
  <course>103.21</course>
  <speed>0.8276472678623424</speed>
  <fix>3d</fix>
</trkpt>
<trkpt lat="-27.2737719" lon="151.2899034">
  <ele>372.22</ele>
  <time>2026-09-01T19:58:37Z</time>
  <course>104.92</course>
  <speed>1.04</speed>
  <fix>3d</fix>
</trkpt>
<trkpt lat="-27.2737724" lon="151.2899069">
  <ele>371.65</ele>
  <time>2026-09-01T19:58:37Z</time>
  <course>103.21</course>
  <speed>0.7550496672405067</speed>
  <fix>3d</fix>
</trkpt>
<trkpt lat="-27.2737724" lon="151.2899053">
  <ele>371.89</ele>
  <time>2026-09-01T19:58:37Z</time>
  <course>104.59</course>
  <speed>0.9</speed>
  <fix>3d</fix>
</trkpt>
<trkpt lat="-27.2737725" lon="151.2899076">
  <ele>371.48</ele>
  <time>2026-09-01T19:58:37Z</time>
  <course>103.19</course>
  <speed>0.6824954212300622</speed>
  <fix>3d</fix>
</trkpt>
<trkpt lat="-27.2737724" lon="151.2899053">
  <ele>371.89</ele>
  <time>2026-09-01T19:58:37Z</time>
  <course>104.59</course>
  <speed>0.9</speed>
  <fix>3d</fix>
</trkpt>
<trkpt lat="-27.2737727" lon="151.2899082">
  <ele>371.31</ele>
  <time>2026-09-01T19:58:37Z</time>
  <course>103.18</course>
  <speed>0.61</speed>
  <fix>3d</fix>
</trkpt>
<trkpt lat="-27.2737727" lon="151.2899069">
  <ele>371.56</ele>
  <time>2026-09-01T19:58:37Z</time>
  <course>104.15</course>
  <speed>0.76</speed>
  <fix>3d</fix>
</trkpt>
<trkpt lat="-27.2737728" lon="151.2899088">
  <ele>371.15</ele>
  <time>2026-09-01T19:58:37Z</time>
  <course>103.17</course>
  <speed>0.5375872022286245</speed>
  <fix>3d</fix>
</trkpt>
<trkpt lat="-27.2737727" lon="151.2899069">
  <ele>371.56</ele>
  <time>2026-09-01T19:58:37Z</time>
  <course>104.15</course>
  <speed>0.76</speed>
  <fix>3d</fix>
</trkpt>
<trkpt lat="-27.2737729" lon="151.2899093">
  <ele>371.0</ele>
  <time>2026-09-01T19:58:37Z</time>
  <course>103.15</course>
  <speed>0.46529560496527367</speed>
  <fix>3d</fix>
</trkpt>
<trkpt lat="-27.273773" lon="151.2899082">
  <ele>371.24</ele>
  <time>2026-09-01T19:58:37Z</time>
  <course>103.53</course>
  <speed>0.61</speed>
  <fix>3d</fix>
</trkpt>
<trkpt lat="-27.273773" lon="151.2899097">
  <ele>370.85</ele>
  <time>2026-09-01T19:58:37Z</time>
  <course>103.14</course>
  <speed>0.4044749683231337</speed>
  <fix>3d</fix>
</trkpt>
<trkpt lat="-27.273773" lon="151.2899082">
  <ele>371.24</ele>
  <time>2026-09-01T19:58:37Z</time>
  <course>103.53</course>
  <speed>0.61</speed>
  <fix>3d</fix>
</trkpt>
<trkpt lat="-27.2737731" lon="151.2899101">
  <ele>370.7</ele>
  <time>2026-09-01T19:58:37Z</time>
  <course>103.12</course>
  <speed>0.3423448553724738</speed>
  <fix>3d</fix>
</trkpt>
<trkpt lat="-27.2737733" lon="151.2899094">
  <ele>370.92</ele>
  <time>2026-09-01T19:58:37Z</time>
  <course>102.64</course>
  <speed>0.47</speed>
  <fix>3d</fix>
</trkpt>
<trkpt lat="-27.2737731" lon="151.2899104">
  <ele>370.56</ele>
  <time>2026-09-01T19:58:37Z</time>
  <course>103.11</course>
  <speed>0.280713376952364</speed>
  <fix>3d</fix>
</trkpt>
<trkpt lat="-27.2737733" lon="151.2899094">
  <ele>370.92</ele>
  <time>2026-09-01T19:58:37Z</time>
  <course>102.64</course>
  <speed>0.47</speed>
  <fix>3d</fix>
</trkpt>
<trkpt lat="-27.2737732" lon="151.2899107">
  <ele>370.41</ele>
  <time>2026-09-01T19:58:37Z</time>
  <course>103.09</course>
  <speed>0.23021728866442676</speed>
  <fix>3d</fix>
</trkpt>
<trkpt lat="-27.2737734" lon="151.2899102">
  <ele>370.62</ele>
  <time>2026-09-01T19:58:37Z</time>
  <course>101.29</course>
  <speed>0.34</speed>
  <fix>3d</fix>
</trkpt>
<trkpt lat="-27.2737732" lon="151.2899109">
  <ele>370.27</ele>
  <time>2026-09-01T19:58:37Z</time>
  <course>103.06</course>
  <speed>0.17</speed>
  <fix>3d</fix>
</trkpt>
<trkpt lat="-27.2737734" lon="151.2899102">
  <ele>370.62</ele>
  <time>2026-09-01T19:58:37Z</time>
  <course>101.29</course>
  <speed>0.34</speed>
  <fix>3d</fix>
</trkpt>
<trkpt lat="-27.2737732" lon="151.289911">
  <ele>370.14</ele>
  <time>2026-09-01T19:58:37Z</time>
  <course>103.01</course>
  <speed>0.12041594578792296</speed>
  <fix>3d</fix>
</trkpt>
<trkpt lat="-27.2737735" lon="151.2899107">
  <ele>370.34</ele>
  <time>2026-09-01T19:58:37Z</time>
  <course>98.98</course>
  <speed>0.22</speed>
  <fix>3d</fix>
</trkpt>
<trkpt lat="-27.2737733" lon="151.2899111">
  <ele>370.0</ele>
  <time>2026-09-01T19:58:37Z</time>
  <course>102.9</course>
  <speed>0.08062257748298549</speed>
  <fix>3d</fix>
</trkpt>
<trkpt lat="-27.2737735" lon="151.2899107">
  <ele>370.34</ele>
  <time>2026-09-01T19:58:37Z</time>
  <course>98.98</course>
  <speed>0.22</speed>
  <fix>3d</fix>
</trkpt>
<trkpt lat="-27.2737733" lon="151.2899112">
  <ele>369.86</ele>
  <time>2026-09-01T19:58:37Z</time>
  <course>102.59</course>
  <speed>0.03</speed>
  <fix>3d</fix>
</trkpt>
<trkpt lat="-27.2737735" lon="151.289911">
  <ele>370.06</ele>
  <time>2026-09-01T19:58:37Z</time>
  <course>95.72</course>
  <speed>0.12</speed>
  <fix>3d</fix>
</trkpt>
<trkpt lat="-27.2737733" lon="151.2899112">
  <ele>369.72</ele>
  <time>2026-09-01T19:58:37Z</time>
  <course>102.23</course>
  <speed>0.01</speed>
  <fix>3d</fix>
</trkpt>
<trkpt lat="-27.2737735" lon="151.289911">
  <ele>370.06</ele>
  <time>2026-09-01T19:58:37Z</time>
  <course>95.72</course>
  <speed>0.12</speed>
  <fix>3d</fix>
</trkpt>
<trkpt lat="-27.2737733" lon="151.2899112">
  <ele>369.58</ele>
  <time>2026-09-01T19:58:37Z</time>
  <course>101.99</course>
  <speed>0.03605551275463989</speed>
  <fix>3d</fix>
</trkpt>
<trkpt lat="-27.2737736" lon="151.2899112">
  <ele>369.78</ele>
  <time>2026-09-01T19:58:37Z</time>
  <course>98.59</course>
  <speed>0.02</speed>
  <fix>3d</fix>
</trkpt>
<trkpt lat="-27.2737733" lon="151.2899112">
  <ele>369.44</ele>
  <time>2026-09-01T19:58:37Z</time>
  <course>101.87</course>
  <speed>0.0632455532033676</speed>
  <fix>3d</fix>
</trkpt>
<trkpt lat="-27.2737736" lon="151.2899112">
  <ele>369.78</ele>
  <time>2026-09-01T19:58:37Z</time>
  <course>98.59</course>
  <speed>0.02</speed>
  <fix>3d</fix>
</trkpt>
<trkpt lat="-27.2737733" lon="151.2899111">
  <ele>369.3</ele>
  <time>2026-09-01T19:58:37Z</time>
  <course>101.85</course>
  <speed>0.09486832980505139</speed>
  <fix>3d</fix>
</trkpt>
<trkpt lat="-27.2737736" lon="151.2899112">
  <ele>369.51</ele>
  <time>2026-09-01T19:58:37Z</time>
  <course>271.18</course>
  <speed>0.04</speed>
  <fix>3d</fix>
</trkpt>
<trkpt lat="-27.2737733" lon="151.289911">
  <ele>369.16</ele>
  <time>2026-09-01T19:58:37Z</time>
  <course>101.92</course>
  <speed>0.12369316876852982</speed>
  <fix>3d</fix>
</trkpt>
<trkpt lat="-27.2737736" lon="151.2899112">
  <ele>369.51</ele>
  <time>2026-09-01T19:58:37Z</time>
  <course>271.18</course>
  <speed>0.04</speed>
  <fix>3d</fix>
</trkpt>
<trkpt lat="-27.2737733" lon="151.2899109">
  <ele>369.01</ele>
  <time>2026-09-01T19:58:37Z</time>
  <course>102.03</course>
  <speed>0.14560219778561037</speed>
  <fix>3d</fix>
</trkpt>
<trkpt lat="-27.2737736" lon="151.2899111">
  <ele>369.22</ele>
  <time>2026-09-01T19:58:37Z</time>
  <course>276.38</course>
  <speed>0.11</speed>
  <fix>3d</fix>
</trkpt>
<trkpt lat="-27.2737733" lon="151.2899107">
  <ele>368.86</ele>
  <time>2026-09-01T19:58:38Z</time>
  <course>102.17</course>
  <speed>0.1649242250247064</speed>
  <fix>3d</fix>
</trkpt>
<trkpt lat="-27.2737736" lon="151.2899111">
  <ele>369.22</ele>
  <time>2026-09-01T19:58:38Z</time>
  <course>276.38</course>
  <speed>0.11</speed>
  <fix>3d</fix>
</trkpt>
<trkpt lat="-27.2737733" lon="151.2899105">
  <ele>368.72</ele>
  <time>2026-09-01T19:58:38Z</time>
  <course>102.3</course>
  <speed>0.1772004514666935</speed>
  <fix>3d</fix>
</trkpt>
<trkpt lat="-27.2737736" lon="151.2899109">
  <ele>368.93</ele>
  <time>2026-09-01T19:58:38Z</time>
  <course>278.0</course>
  <speed>0.15</speed>
  <fix>3d</fix>
</trkpt>
<trkpt lat="-27.2737733" lon="151.2899104">
  <ele>368.57</ele>
  <time>2026-09-01T19:58:38Z</time>
  <course>102.4</course>
  <speed>0.18681541692269404</speed>
  <fix>3d</fix>
</trkpt>
<trkpt lat="-27.2737736" lon="151.2899109">
  <ele>368.93</ele>
  <time>2026-09-01T19:58:38Z</time>
  <course>278.0</course>
  <speed>0.15</speed>
  <fix>3d</fix>
</trkpt>
<trkpt lat="-27.2737733" lon="151.2899102">
  <ele>368.42</ele>
  <time>2026-09-01T19:58:38Z</time>
  <course>102.47</course>
  <speed>0.196468827043885</speed>
  <fix>3d</fix>
</trkpt>
<trkpt lat="-27.2737736" lon="151.2899105">
  <ele>368.64</ele>
  <time>2026-09-01T19:58:38Z</time>
  <course>278.86</course>
  <speed>0.19</speed>
  <fix>3d</fix>
</trkpt>
<trkpt lat="-27.2737733" lon="151.28991">
  <ele>368.27</ele>
  <time>2026-09-01T19:58:38Z</time>
  <course>102.5</course>
  <speed>0.208806130178211</speed>
  <fix>3d</fix>
</trkpt>
<trkpt lat="-27.2737736" lon="151.2899105">
  <ele>368.64</ele>
  <time>2026-09-01T19:58:38Z</time>
  <course>278.86</course>
  <speed>0.19</speed>
  <fix>3d</fix>
</trkpt>
<trkpt lat="-27.2737732" lon="151.2899097">
  <ele>368.12</ele>
  <time>2026-09-01T19:58:38Z</time>
  <course>102.49</course>
  <speed>0.21840329667841554</speed>
  <fix>3d</fix>
</trkpt>
<trkpt lat="-27.2737735" lon="151.28991">
  <ele>368.35</ele>
  <time>2026-09-01T19:58:38Z</time>
  <course>279.32</course>
  <speed>0.22</speed>
  <fix>3d</fix>
</trkpt>
<trkpt lat="-27.2737732" lon="151.2899095">
  <ele>367.96</ele>
  <time>2026-09-01T19:58:38Z</time>
  <course>102.47</course>
  <speed>0.22803508501982758</speed>
  <fix>3d</fix>
</trkpt>
<trkpt lat="-27.2737735" lon="151.28991">
  <ele>368.35</ele>
  <time>2026-09-01T19:58:38Z</time>
  <course>279.32</course>
  <speed>0.22</speed>
  <fix>3d</fix>
</trkpt>
<trkpt lat="-27.2737732" lon="151.2899093">
  <ele>367.81</ele>
  <time>2026-09-01T19:58:38Z</time>
  <course>102.43</course>
  <speed>0.22803508501982758</speed>
  <fix>3d</fix>
</trkpt>
<trkpt lat="-27.2737734" lon="151.2899096">
  <ele>368.05</ele>
  <time>2026-09-01T19:58:38Z</time>
  <course>279.52</course>
  <speed>0.24</speed>
  <fix>3d</fix>
</trkpt>
<trkpt lat="-27.2737731" lon="151.289909">
  <ele>367.65</ele>
  <time>2026-09-01T19:58:38Z</time>
  <course>102.37</course>
  <speed>0.23769728648009425</speed>
  <fix>3d</fix>
</trkpt>
<trkpt lat="-27.2737734" lon="151.2899096">
  <ele>368.05</ele>
  <time>2026-09-01T19:58:38Z</time>
  <course>279.52</course>
  <speed>0.24</speed>
  <fix>3d</fix>
</trkpt>
<trkpt lat="-27.2737731" lon="151.2899088">
  <ele>367.5</ele>
  <time>2026-09-01T19:58:38Z</time>
  <course>102.31</course>
  <speed>0.23769728648009425</speed>
  <fix>3d</fix>
</trkpt>
<trkpt lat="-27.2737733" lon="151.2899091">
  <ele>367.75</ele>
  <time>2026-09-01T19:58:38Z</time>
  <course>279.46</course>
  <speed>0.25</speed>
  <fix>3d</fix>
</trkpt>
<trkpt lat="-27.2737731" lon="151.2899085">
  <ele>367.34</ele>
  <time>2026-09-01T19:58:38Z</time>
  <course>102.26</course>
  <speed>0.23769728648009425</speed>
  <fix>3d</fix>
</trkpt>
<trkpt lat="-27.2737733" lon="151.2899091">
  <ele>367.75</ele>
  <time>2026-09-01T19:58:38Z</time>
  <course>279.46</course>
  <speed>0.25</speed>
  <fix>3d</fix>
</trkpt>
<trkpt lat="-27.273773" lon="151.2899083">
  <ele>367.19</ele>
  <time>2026-09-01T19:58:38Z</time>
  <course>102.2</course>
  <speed>0.23769728648009425</speed>
  <fix>3d</fix>
</trkpt>
<trkpt lat="-27.2737733" lon="151.2899086">
  <ele>367.45</ele>
  <time>2026-09-01T19:58:38Z</time>
  <course>279.3</course>
  <speed>0.26</speed>
  <fix>3d</fix>
</trkpt>
<trkpt lat="-27.273773" lon="151.289908">
  <ele>367.04</ele>
  <time>2026-09-01T19:58:38Z</time>
  <course>102.14</course>
  <speed>0.2353720459187964</speed>
  <fix>3d</fix>
</trkpt>
<trkpt lat="-27.2737733" lon="151.2899086">
  <ele>367.45</ele>
  <time>2026-09-01T19:58:38Z</time>
  <course>279.3</course>
  <speed>0.26</speed>
  <fix>3d</fix>
</trkpt>
<trkpt lat="-27.273773" lon="151.2899078">
  <ele>366.88</ele>
  <time>2026-09-01T19:58:38Z</time>
  <course>102.1</course>
  <speed>0.2353720459187964</speed>
  <fix>3d</fix>
</trkpt>
<trkpt lat="-27.2737732" lon="151.2899081">
  <ele>367.14</ele>
  <time>2026-09-01T19:58:38Z</time>
  <course>278.97</course>
  <speed>0.26</speed>
  <fix>3d</fix>
</trkpt>
<trkpt lat="-27.273773" lon="151.2899075">
  <ele>366.73</ele>
  <time>2026-09-01T19:58:38Z</time>
  <course>102.06</course>
  <speed>0.2353720459187964</speed>
  <fix>3d</fix>
</trkpt>
<trkpt lat="-27.2737732" lon="151.2899081">
  <ele>367.14</ele>
  <time>2026-09-01T19:58:38Z</time>
  <course>278.97</course>
  <speed>0.26</speed>
  <fix>3d</fix>
</trkpt>
<trkpt lat="-27.2737729" lon="151.2899073">
  <ele>366.58</ele>
  <time>2026-09-01T19:58:38Z</time>
  <course>102.04</course>
  <speed>0.22561028345356957</speed>
  <fix>3d</fix>
</trkpt>
<trkpt lat="-27.2737731" lon="151.2899076">
  <ele>366.84</ele>
  <time>2026-09-01T19:58:38Z</time>
  <course>278.62</course>
  <speed>0.26</speed>
  <fix>3d</fix>
</trkpt>
<trkpt lat="-27.2737729" lon="151.289907">
  <ele>366.43</ele>
  <time>2026-09-01T19:58:38Z</time>
  <course>102.03</course>
  <speed>0.22561028345356957</speed>
  <fix>3d</fix>
</trkpt>
<trkpt lat="-27.2737731" lon="151.2899076">
  <ele>366.84</ele>
  <time>2026-09-01T19:58:38Z</time>
  <course>278.62</course>
  <speed>0.26</speed>
  <fix>3d</fix>
</trkpt>
<trkpt lat="-27.2737729" lon="151.2899068">
  <ele>366.28</ele>
  <time>2026-09-01T19:58:38Z</time>
  <course>102.03</course>
  <speed>0.22803508501982758</speed>
  <fix>3d</fix>
</trkpt>
<trkpt lat="-27.2737731" lon="151.289907">
  <ele>366.54</ele>
  <time>2026-09-01T19:58:38Z</time>
  <course>278.35</course>
  <speed>0.26</speed>
  <fix>3d</fix>
</trkpt>
<trkpt lat="-27.2737728" lon="151.2899066">
  <ele>366.13</ele>
  <time>2026-09-01T19:58:38Z</time>
  <course>102.03</course>
  <speed>0.215870331449229</speed>
  <fix>3d</fix>
</trkpt>
<trkpt lat="-27.2737731" lon="151.289907">
  <ele>366.54</ele>
  <time>2026-09-01T19:58:38Z</time>
  <course>278.35</course>
  <speed>0.26</speed>
  <fix>3d</fix>
</trkpt>
<trkpt lat="-27.2737728" lon="151.2899063">
  <ele>365.98</ele>
  <time>2026-09-01T19:58:38Z</time>
  <course>102.03</course>
  <speed>0.21377558326431947</speed>
  <fix>3d</fix>
</trkpt>
<trkpt lat="-27.273773" lon="151.2899065">
  <ele>366.24</ele>
  <time>2026-09-01T19:58:38Z</time>
  <course>278.07</course>
  <speed>0.25</speed>
  <fix>3d</fix>
</trkpt>
<trkpt lat="-27.2737728" lon="151.2899061">
  <ele>365.83</ele>
  <time>2026-09-01T19:58:38Z</time>
  <course>102.03</course>
  <speed>0.21377558326431947</speed>
  <fix>3d</fix>
</trkpt>
<trkpt lat="-27.273773" lon="151.2899065">
  <ele>366.24</ele>
  <time>2026-09-01T19:58:38Z</time>
  <course>278.07</course>
  <speed>0.25</speed>
  <fix>3d</fix>
</trkpt>
<trkpt lat="-27.2737728" lon="151.2899058">
  <ele>365.68</ele>
  <time>2026-09-01T19:58:38Z</time>
  <course>102.0</course>
  <speed>0.2039607805437114</speed>
  <fix>3d</fix>
</trkpt>
<trkpt lat="-27.2737729" lon="151.289906">
  <ele>365.95</ele>
  <time>2026-09-01T19:58:38Z</time>
  <course>277.73</course>
  <speed>0.24</speed>
  <fix>3d</fix>
</trkpt>
<trkpt lat="-27.2737727" lon="151.2899056">
  <ele>365.53</ele>
  <time>2026-09-01T19:58:38Z</time>
  <course>101.97</course>
  <speed>0.194164878389476</speed>
  <fix>3d</fix>
</trkpt>
<trkpt lat="-27.2737729" lon="151.289906">
  <ele>365.95</ele>
  <time>2026-09-01T19:58:38Z</time>
  <course>277.73</course>
  <speed>0.24</speed>
  <fix>3d</fix>
</trkpt>
<trkpt lat="-27.2737727" lon="151.2899054">
  <ele>365.38</ele>
  <time>2026-09-01T19:58:38Z</time>
  <course>101.93</course>
  <speed>0.194164878389476</speed>
  <fix>3d</fix>
</trkpt>
<trkpt lat="-27.2737729" lon="151.2899055">
  <ele>365.65</ele>
  <time>2026-09-01T19:58:38Z</time>
  <course>277.14</course>
  <speed>0.23</speed>
  <fix>3d</fix>
</trkpt>
<trkpt lat="-27.2737727" lon="151.2899052">
  <ele>365.23</ele>
  <time>2026-09-01T19:58:38Z</time>
  <course>101.9</course>
  <speed>0.18439088914585774</speed>
  <fix>3d</fix>
</trkpt>
<trkpt lat="-27.2737729" lon="151.2899055">
  <ele>365.65</ele>
  <time>2026-09-01T19:58:38Z</time>
  <course>277.14</course>
  <speed>0.23</speed>
  <fix>3d</fix>
</trkpt>
<trkpt lat="-27.2737727" lon="151.2899049">
  <ele>365.08</ele>
  <time>2026-09-01T19:58:38Z</time>
  <course>101.87</course>
  <speed>0.1824828759089466</speed>
  <fix>3d</fix>
</trkpt>
<trkpt lat="-27.2737728" lon="151.2899051">
  <ele>365.35</ele>
  <time>2026-09-01T19:58:38Z</time>
  <course>276.54</course>
  <speed>0.22</speed>
  <fix>3d</fix>
</trkpt>
<trkpt lat="-27.2737727" lon="151.2899047">
  <ele>364.93</ele>
  <time>2026-09-01T19:58:38Z</time>
  <course>101.84</course>
  <speed>0.17262676501632068</speed>
  <fix>3d</fix>
</trkpt>
<trkpt lat="-27.2737728" lon="151.2899051">
  <ele>365.35</ele>
  <time>2026-09-01T19:58:38Z</time>
  <course>276.54</course>
  <speed>0.22</speed>
  <fix>3d</fix>
</trkpt>
<trkpt lat="-27.2737726" lon="151.2899045">
  <ele>364.78</ele>
  <time>2026-09-01T19:58:38Z</time>
  <course>101.81</course>
  <speed>0.16278820596099705</speed>
  <fix>3d</fix>
</trkpt>
<trkpt lat="-27.2737728" lon="151.2899046">
  <ele>365.06</ele>
  <time>2026-09-01T19:58:38Z</time>
  <course>275.85</course>
  <speed>0.21</speed>
  <fix>3d</fix>
</trkpt>
<trkpt lat="-27.2737726" lon="151.2899044">
  <ele>364.63</ele>
  <time>2026-09-01T19:58:38Z</time>
  <course>101.79</course>
  <speed>0.16278820596099705</speed>
  <fix>3d</fix>
</trkpt>
<trkpt lat="-27.2737728" lon="151.2899046">
  <ele>365.06</ele>
  <time>2026-09-01T19:58:38Z</time>
  <course>275.85</course>
  <speed>0.21</speed>
  <fix>3d</fix>
</trkpt>
<trkpt lat="-27.2737726" lon="151.2899042">
  <ele>364.48</ele>
  <time>2026-09-01T19:58:38Z</time>
  <course>101.76</course>
  <speed>0.15132745950421556</speed>
  <fix>3d</fix>
</trkpt>
<trkpt lat="-27.2737728" lon="151.2899042">
  <ele>364.76</ele>
  <time>2026-09-01T19:58:38Z</time>
  <course>275.07</course>
  <speed>0.19</speed>
  <fix>3d</fix>
</trkpt>
<trkpt lat="-27.2737726" lon="151.289904">
  <ele>364.32</ele>
  <time>2026-09-01T19:58:38Z</time>
  <course>101.72</course>
  <speed>0.1414213562373095</speed>
  <fix>3d</fix>
</trkpt>
<trkpt lat="-27.2737728" lon="151.2899042">
  <ele>364.76</ele>
  <time>2026-09-01T19:58:38Z</time>
  <course>275.07</course>
  <speed>0.19</speed>
  <fix>3d</fix>
</trkpt>
<trkpt lat="-27.2737726" lon="151.2899038">
  <ele>364.17</ele>
  <time>2026-09-01T19:58:38Z</time>
  <course>101.66</course>
  <speed>0.13152946437965907</speed>
  <fix>3d</fix>
</trkpt>
<trkpt lat="-27.2737727" lon="151.2899038">
  <ele>364.46</ele>
  <time>2026-09-01T19:58:38Z</time>
  <course>274.03</course>
  <speed>0.18</speed>
  <fix>3d</fix>
</trkpt>
<trkpt lat="-27.2737726" lon="151.2899037">
  <ele>364.03</ele>
  <time>2026-09-01T19:58:38Z</time>
  <course>101.6</course>
  <speed>0.12165525060596438</speed>
  <fix>3d</fix>
</trkpt>
<trkpt lat="-27.2737727" lon="151.2899038">
  <ele>364.46</ele>
  <time>2026-09-01T19:58:38Z</time>
  <course>274.03</course>
  <speed>0.18</speed>
  <fix>3d</fix>
</trkpt>
<trkpt lat="-27.2737726" lon="151.2899035">
  <ele>363.88</ele>
  <time>2026-09-01T19:58:38Z</time>
  <course>101.54</course>
  <speed>0.12041594578792296</speed>
  <fix>3d</fix>
</trkpt>
<trkpt lat="-27.2737727" lon="151.2899034">
  <ele>364.16</ele>
  <time>2026-09-01T19:58:38Z</time>
  <course>272.45</course>
  <speed>0.16</speed>
  <fix>3d</fix>
</trkpt>
<trkpt lat="-27.2737726" lon="151.2899033">
  <ele>363.73</ele>
  <time>2026-09-01T19:58:38Z</time>
  <course>101.49</course>
  <speed>0.11045361017187261</speed>
  <fix>3d</fix>
</trkpt>
<trkpt lat="-27.2737727" lon="151.2899034">
  <ele>364.16</ele>
  <time>2026-09-01T19:58:38Z</time>
  <course>272.45</course>
  <speed>0.16</speed>
  <fix>3d</fix>
</trkpt>
<trkpt lat="-27.2737726" lon="151.2899032">
  <ele>363.58</ele>
  <time>2026-09-01T19:58:38Z</time>
  <course>101.46</course>
  <speed>0.1004987562112089</speed>
  <fix>3d</fix>
</trkpt>
<trkpt lat="-27.2737727" lon="151.2899031">
  <ele>363.87</ele>
  <time>2026-09-01T19:58:38Z</time>
  <course>270.83</course>
  <speed>0.15</speed>
  <fix>3d</fix>
</trkpt>
<trkpt lat="-27.2737726" lon="151.2899031">
  <ele>363.44</ele>
  <time>2026-09-01T19:58:38Z</time>
  <course>101.43</course>
  <speed>0.09055385138137417</speed>
  <fix>3d</fix>
</trkpt>
<trkpt lat="-27.2737727" lon="151.2899031">
  <ele>363.87</ele>
  <time>2026-09-01T19:58:38Z</time>
  <course>270.83</course>
  <speed>0.15</speed>
  <fix>3d</fix>
</trkpt>
<trkpt lat="-27.2737726" lon="151.2899029">
  <ele>363.29</ele>
  <time>2026-09-01T19:58:38Z</time>
  <course>101.4</course>
  <speed>0.09</speed>
  <fix>3d</fix>
</trkpt>
<trkpt lat="-27.2737727" lon="151.2899028">
  <ele>363.57</ele>
  <time>2026-09-01T19:58:38Z</time>
  <course>268.91</course>
  <speed>0.13</speed>
  <fix>3d</fix>
</trkpt>
<trkpt lat="-27.2737726" lon="151.2899028">
  <ele>363.14</ele>
  <time>2026-09-01T19:58:38Z</time>
  <course>101.37</course>
  <speed>0.08</speed>
  <fix>3d</fix>
</trkpt>
<trkpt lat="-27.2737727" lon="151.2899028">
  <ele>363.57</ele>
  <time>2026-09-01T19:58:38Z</time>
  <course>268.91</course>
  <speed>0.13</speed>
  <fix>3d</fix>
</trkpt>
<trkpt lat="-27.2737726" lon="151.2899027">
  <ele>362.99</ele>
  <time>2026-09-01T19:58:38Z</time>
  <course>101.33</course>
  <speed>0.07</speed>
  <fix>3d</fix>
</trkpt>
<trkpt lat="-27.2737727" lon="151.2899026">
  <ele>363.27</ele>
  <time>2026-09-01T19:58:38Z</time>
  <course>266.19</course>
  <speed>0.12</speed>
  <fix>3d</fix>
</trkpt>
<trkpt lat="-27.2737726" lon="151.2899026">
  <ele>362.84</ele>
  <time>2026-09-01T19:58:38Z</time>
  <course>101.29</course>
  <speed>0.06</speed>
  <fix>3d</fix>
</trkpt>
<trkpt lat="-27.2737727" lon="151.2899026">
  <ele>363.27</ele>
  <time>2026-09-01T19:58:38Z</time>
  <course>266.19</course>
  <speed>0.12</speed>
  <fix>3d</fix>
</trkpt>
<trkpt lat="-27.2737726" lon="151.2899025">
  <ele>362.69</ele>
  <time>2026-09-01T19:58:38Z</time>
  <course>101.24</course>
  <speed>0.05</speed>
  <fix>3d</fix>
</trkpt>
<trkpt lat="-27.2737727" lon="151.2899024">
  <ele>362.97</ele>
  <time>2026-09-01T19:58:38Z</time>
  <course>262.48</course>
  <speed>0.1</speed>
  <fix>3d</fix>
</trkpt>
<trkpt lat="-27.2737726" lon="151.2899024">
  <ele>362.54</ele>
  <time>2026-09-01T19:58:38Z</time>
  <course>101.2</course>
  <speed>0.05</speed>
  <fix>3d</fix>
</trkpt>
<trkpt lat="-27.2737727" lon="151.2899024">
  <ele>362.97</ele>
  <time>2026-09-01T19:58:38Z</time>
  <course>262.48</course>
  <speed>0.1</speed>
  <fix>3d</fix>
</trkpt>
<trkpt lat="-27.2737726" lon="151.2899023">
  <ele>362.39</ele>
  <time>2026-09-01T19:58:38Z</time>
  <course>101.16</course>
  <speed>0.04</speed>
  <fix>3d</fix>
</trkpt>
<trkpt lat="-27.2737727" lon="151.2899022">
  <ele>362.68</ele>
  <time>2026-09-01T19:58:38Z</time>
  <course>257.73</course>
  <speed>0.08</speed>
  <fix>3d</fix>
</trkpt>
<trkpt lat="-27.2737726" lon="151.2899023">
  <ele>362.24</ele>
  <time>2026-09-01T19:58:38Z</time>
  <course>101.12</course>
  <speed>0.03</speed>
  <fix>3d</fix>
</trkpt>
<trkpt lat="-27.2737727" lon="151.2899022">
  <ele>362.68</ele>
  <time>2026-09-01T19:58:38Z</time>
  <course>257.73</course>
  <speed>0.08</speed>
  <fix>3d</fix>
</trkpt>
<trkpt lat="-27.2737726" lon="151.2899022">
  <ele>362.09</ele>
  <time>2026-09-01T19:58:38Z</time>
  <course>101.08</course>
  <speed>0.02</speed>
  <fix>3d</fix>
</trkpt>
<trkpt lat="-27.2737727" lon="151.289902">
  <ele>362.38</ele>
  <time>2026-09-01T19:58:38Z</time>
  <course>251.6</course>
  <speed>0.07</speed>
  <fix>3d</fix>
</trkpt>
<trkpt lat="-27.2737726" lon="151.2899022">
  <ele>361.94</ele>
  <time>2026-09-01T19:58:38Z</time>
  <course>101.05</course>
  <speed>0.01</speed>
  <fix>3d</fix>
</trkpt>
<trkpt lat="-27.2737727" lon="151.289902">
  <ele>362.38</ele>
  <time>2026-09-01T19:58:38Z</time>
  <course>251.6</course>
  <speed>0.07</speed>
  <fix>3d</fix>
</trkpt>
<trkpt lat="-27.2737727" lon="151.2899021">
  <ele>361.8</ele>
  <time>2026-09-01T19:58:38Z</time>
  <course>101.02</course>
  <speed>0.01</speed>
  <fix>3d</fix>
</trkpt>
<trkpt lat="-27.2737727" lon="151.2899019">
  <ele>362.08</ele>
  <time>2026-09-01T19:58:38Z</time>
  <course>243.07</course>
  <speed>0.06</speed>
  <fix>3d</fix>
</trkpt>
<trkpt lat="-27.2737727" lon="151.2899021">
  <ele>361.65</ele>
  <time>2026-09-01T19:58:38Z</time>
  <course>100.99</course>
  <speed>0.01</speed>
  <fix>3d</fix>
</trkpt>
<trkpt lat="-27.2737727" lon="151.2899019">
  <ele>362.08</ele>
  <time>2026-09-01T19:58:38Z</time>
  <course>243.07</course>
  <speed>0.06</speed>
  <fix>3d</fix>
</trkpt>
<trkpt lat="-27.2737727" lon="151.2899021">
  <ele>361.5</ele>
  <time>2026-09-01T19:58:38Z</time>
  <course>100.96</course>
  <speed>0.01</speed>
  <fix>3d</fix>
</trkpt>
<trkpt lat="-27.2737728" lon="151.2899018">
  <ele>361.78</ele>
  <time>2026-09-01T19:58:38Z</time>
  <course>231.26</course>
  <speed>0.05</speed>
  <fix>3d</fix>
</trkpt>
<trkpt lat="-27.2737727" lon="151.289902">
  <ele>361.35</ele>
  <time>2026-09-01T19:58:38Z</time>
  <course>100.93</course>
  <speed>0.01</speed>
  <fix>3d</fix>
</trkpt>
<trkpt lat="-27.2737728" lon="151.2899018">
  <ele>361.78</ele>
  <time>2026-09-01T19:58:38Z</time>
  <course>231.26</course>
  <speed>0.05</speed>
  <fix>3d</fix>
</trkpt>
<trkpt lat="-27.2737728" lon="151.289902">
  <ele>361.2</ele>
  <time>2026-09-01T19:58:38Z</time>
  <course>100.89</course>
  <speed>0.022360679774997897</speed>
  <fix>3d</fix>
</trkpt>
<trkpt lat="-27.2737729" lon="151.2899017">
  <ele>361.47</ele>
  <time>2026-09-01T19:58:38Z</time>
  <course>216.14</course>
  <speed>0.04</speed>
  <fix>3d</fix>
</trkpt>
<trkpt lat="-27.2737728" lon="151.289902">
  <ele>361.04</ele>
  <time>2026-09-01T19:58:38Z</time>
  <course>100.86</course>
  <speed>0.0282842712474619</speed>
  <fix>3d</fix>
</trkpt>
<trkpt lat="-27.2737729" lon="151.2899017">
  <ele>361.47</ele>
  <time>2026-09-01T19:58:38Z</time>
  <course>216.14</course>
  <speed>0.04</speed>
  <fix>3d</fix>
</trkpt>
<trkpt lat="-27.2737728" lon="151.289902">
  <ele>360.89</ele>
  <time>2026-09-01T19:58:38Z</time>
  <course>100.94</course>
  <speed>0.02</speed>
  <fix>3d</fix>
</trkpt>
<trkpt lat="-27.2737729" lon="151.2899017">
  <ele>361.18</ele>
  <time>2026-09-01T19:58:38Z</time>
  <course>199.15</course>
  <speed>0.04</speed>
  <fix>3d</fix>
</trkpt>
<trkpt lat="-27.2737728" lon="151.289902">
  <ele>360.75</ele>
  <time>2026-09-01T19:58:38Z</time>
  <course>101.21</course>
  <speed>0.03</speed>
  <fix>3d</fix>
</trkpt>
<trkpt lat="-27.2737729" lon="151.2899017">
  <ele>361.18</ele>
  <time>2026-09-01T19:58:38Z</time>
  <course>199.15</course>
  <speed>0.04</speed>
  <fix>3d</fix>
</trkpt>
<trkpt lat="-27.2737728" lon="151.289902">
  <ele>360.6</ele>
  <time>2026-09-01T19:58:38Z</time>
  <course>101.6</course>
  <speed>0.044721359549995794</speed>
  <fix>3d</fix>
</trkpt>
<trkpt lat="-27.273773" lon="151.2899017">
  <ele>360.88</ele>
  <time>2026-09-01T19:58:38Z</time>
  <course>178.85</course>
  <speed>0.03</speed>
  <fix>3d</fix>
</trkpt>
<trkpt lat="-27.2737728" lon="151.289902">
  <ele>360.44</ele>
  <time>2026-09-01T19:58:38Z</time>
  <course>102.01</course>
  <speed>0.05830951894845301</speed>
  <fix>3d</fix>
</trkpt>
<trkpt lat="-27.273773" lon="151.2899017">
  <ele>360.88</ele>
  <time>2026-09-01T19:58:38Z</time>
  <course>178.85</course>
  <speed>0.03</speed>
  <fix>3d</fix>
</trkpt>
<trkpt lat="-27.2737728" lon="151.289902">
  <ele>360.29</ele>
  <time>2026-09-01T19:58:38Z</time>
  <course>102.38</course>
  <speed>0.07211102550927978</speed>
  <fix>3d</fix>
</trkpt>
<trkpt lat="-27.2737731" lon="151.2899017">
  <ele>360.58</ele>
  <time>2026-09-01T19:58:38Z</time>
  <course>101.84</course>
  <speed>0.01</speed>
  <fix>3d</fix>
</trkpt>
<trkpt lat="-27.2737728" lon="151.289902">
  <ele>360.14</ele>
  <time>2026-09-01T19:58:38Z</time>
  <course>102.66</course>
  <speed>0.07810249675906654</speed>
  <fix>3d</fix>
</trkpt>
<trkpt lat="-27.2737731" lon="151.2899017">
  <ele>360.58</ele>
  <time>2026-09-01T19:58:38Z</time>
  <course>101.84</course>
  <speed>0.01</speed>
  <fix>3d</fix>
</trkpt>
<trkpt lat="-27.2737728" lon="151.289902">
  <ele>359.99</ele>
  <time>2026-09-01T19:58:38Z</time>
  <course>102.83</course>
  <speed>0.09219544457292887</speed>
  <fix>3d</fix>
</trkpt>
<trkpt lat="-27.2737731" lon="151.2899017">
  <ele>360.28</ele>
  <time>2026-09-01T19:58:38Z</time>
  <course>55.88</course>
  <speed>0.03</speed>
  <fix>3d</fix>
</trkpt>
<trkpt lat="-27.2737728" lon="151.2899021">
  <ele>359.84</ele>
  <time>2026-09-01T19:58:38Z</time>
  <course>102.9</course>
  <speed>0.09899494936611665</speed>
  <fix>3d</fix>
</trkpt>
<trkpt lat="-27.2737731" lon="151.2899017">
  <ele>360.28</ele>
  <time>2026-09-01T19:58:38Z</time>
  <course>55.88</course>
  <speed>0.03</speed>
  <fix>3d</fix>
</trkpt>
<trkpt lat="-27.2737728" lon="151.2899021">
  <ele>359.69</ele>
  <time>2026-09-01T19:58:38Z</time>
  <course>102.88</course>
  <speed>0.1131370849898476</speed>
  <fix>3d</fix>
</trkpt>
<trkpt lat="-27.273773" lon="151.2899017">
  <ele>359.97</ele>
  <time>2026-09-01T19:58:38Z</time>
  <course>45.18</course>
  <speed>0.06</speed>
  <fix>3d</fix>
</trkpt>
<trkpt lat="-27.2737727" lon="151.2899022">
  <ele>359.54</ele>
  <time>2026-09-01T19:58:38Z</time>
  <course>102.81</course>
  <speed>0.12041594578792296</speed>
  <fix>3d</fix>
</trkpt>
<trkpt lat="-27.273773" lon="151.2899017">
  <ele>359.97</ele>
  <time>2026-09-01T19:58:38Z</time>
  <course>45.18</course>
  <speed>0.06</speed>
  <fix>3d</fix>
</trkpt>
<trkpt lat="-27.2737726" lon="151.2899022">
  <ele>359.39</ele>
  <time>2026-09-01T19:58:38Z</time>
  <course>102.7</course>
  <speed>0.12806248474865697</speed>
  <fix>3d</fix>
</trkpt>
<trkpt lat="-27.2737729" lon="151.2899018">
  <ele>359.68</ele>
  <time>2026-09-01T19:58:38Z</time>
  <course>40.56</course>
  <speed>0.08</speed>
  <fix>3d</fix>
</trkpt>
<trkpt lat="-27.2737726" lon="151.2899023">
  <ele>359.24</ele>
  <time>2026-09-01T19:58:38Z</time>
  <course>102.6</course>
  <speed>0.1345362404707371</speed>
  <fix>3d</fix>
</trkpt>
<trkpt lat="-27.2737729" lon="151.2899018">
  <ele>359.68</ele>
  <time>2026-09-01T19:58:38Z</time>
  <course>40.56</course>
  <speed>0.08</speed>
  <fix>3d</fix>
</trkpt>
<trkpt lat="-27.2737725" lon="151.2899024">
  <ele>359.09</ele>
  <time>2026-09-01T19:58:38Z</time>
  <course>102.51</course>
  <speed>0.14212670403551894</speed>
  <fix>3d</fix>
</trkpt>
<trkpt lat="-27.2737728" lon="151.2899019">
  <ele>359.38</ele>
  <time>2026-09-01T19:58:38Z</time>
  <course>37.93</course>
  <speed>0.1</speed>
  <fix>3d</fix>
</trkpt>
<trkpt lat="-27.2737724" lon="151.2899024">
  <ele>358.95</ele>
  <time>2026-09-01T19:58:38Z</time>
  <course>102.45</course>
  <speed>0.15</speed>
  <fix>3d</fix>
</trkpt>
<trkpt lat="-27.2737728" lon="151.2899019">
  <ele>359.38</ele>
  <time>2026-09-01T19:58:38Z</time>
  <course>37.93</course>
  <speed>0.1</speed>
  <fix>3d</fix>
</trkpt>
<trkpt lat="-27.2737723" lon="151.2899025">
  <ele>358.8</ele>
  <time>2026-09-01T19:58:38Z</time>
  <course>102.41</course>
  <speed>0.15620499351813308</speed>
  <fix>3d</fix>
</trkpt>
<trkpt lat="-27.2737727" lon="151.2899021">
  <ele>359.08</ele>
  <time>2026-09-01T19:58:38Z</time>
  <course>36.38</course>
  <speed>0.12</speed>
  <fix>3d</fix>
</trkpt>
<trkpt lat="-27.2737722" lon="151.2899026">
  <ele>358.65</ele>
  <time>2026-09-01T19:58:38Z</time>
  <course>102.41</course>
  <speed>0.15620499351813308</speed>
  <fix>3d</fix>
</trkpt>
<trkpt lat="-27.2737727" lon="151.2899021">
  <ele>359.08</ele>
  <time>2026-09-01T19:58:38Z</time>
  <course>36.38</course>
  <speed>0.12</speed>
  <fix>3d</fix>
</trkpt>
<trkpt lat="-27.2737721" lon="151.2899026">
  <ele>358.5</ele>
  <time>2026-09-01T19:58:38Z</time>
  <course>102.42</course>
  <speed>0.16401219466856726</speed>
  <fix>3d</fix>
</trkpt>
<trkpt lat="-27.2737725" lon="151.2899022">
  <ele>358.78</ele>
  <time>2026-09-01T19:58:38Z</time>
  <course>35.52</course>
  <speed>0.13</speed>
  <fix>3d</fix>
</trkpt>
<trkpt lat="-27.273772" lon="151.2899027">
  <ele>358.35</ele>
  <time>2026-09-01T19:58:38Z</time>
  <course>102.45</course>
  <speed>0.16401219466856726</speed>
  <fix>3d</fix>
</trkpt>
<trkpt lat="-27.2737725" lon="151.2899022">
  <ele>358.78</ele>
  <time>2026-09-01T19:58:38Z</time>
  <course>35.52</course>
  <speed>0.13</speed>
  <fix>3d</fix>
</trkpt>
<trkpt lat="-27.2737719" lon="151.2899028">
  <ele>358.19</ele>
  <time>2026-09-01T19:58:38Z</time>
  <course>102.48</course>
  <speed>0.16401219466856726</speed>
  <fix>3d</fix>
</trkpt>
<trkpt lat="-27.2737723" lon="151.2899024">
  <ele>358.48</ele>
  <time>2026-09-01T19:58:38Z</time>
  <course>35.22</course>
  <speed>0.14</speed>
  <fix>3d</fix>
</trkpt>
<trkpt lat="-27.2737718" lon="151.2899029">
  <ele>358.04</ele>
  <time>2026-09-01T19:58:38Z</time>
  <course>102.52</course>
  <speed>0.16401219466856726</speed>
  <fix>3d</fix>
</trkpt>
<trkpt lat="-27.2737723" lon="151.2899024">
  <ele>358.48</ele>
  <time>2026-09-01T19:58:38Z</time>
  <course>35.22</course>
  <speed>0.14</speed>
  <fix>3d</fix>
</trkpt>
<trkpt lat="-27.2737717" lon="151.289903">
  <ele>357.9</ele>
  <time>2026-09-01T19:58:38Z</time>
  <course>102.55</course>
  <speed>0.16401219466856726</speed>
  <fix>3d</fix>
</trkpt>
<trkpt lat="-27.2737721" lon="151.2899026">
  <ele>358.19</ele>
  <time>2026-09-01T19:58:38Z</time>
  <course>35.23</course>
  <speed>0.14</speed>
  <fix>3d</fix>
</trkpt>
<trkpt lat="-27.2737716" lon="151.289903">
  <ele>357.75</ele>
  <time>2026-09-01T19:58:38Z</time>
  <course>102.58</course>
  <speed>0.17029386365926402</speed>
  <fix>3d</fix>
</trkpt>
<trkpt lat="-27.2737721" lon="151.2899026">
  <ele>358.19</ele>
  <time>2026-09-01T19:58:38Z</time>
  <course>35.23</course>
  <speed>0.14</speed>
  <fix>3d</fix>
</trkpt>
<trkpt lat="-27.2737715" lon="151.2899031">
  <ele>357.6</ele>
  <time>2026-09-01T19:58:38Z</time>
  <course>102.6</course>
  <speed>0.17029386365926402</speed>
  <fix>3d</fix>
</trkpt>
<trkpt lat="-27.2737719" lon="151.2899028">
  <ele>357.89</ele>
  <time>2026-09-01T19:58:38Z</time>
  <course>35.29</course>
  <speed>0.15</speed>
  <fix>3d</fix>
</trkpt>
<trkpt lat="-27.2737714" lon="151.2899032">
  <ele>357.45</ele>
  <time>2026-09-01T19:58:38Z</time>
  <course>102.61</course>
  <speed>0.17029386365926402</speed>
  <fix>3d</fix>
</trkpt>
<trkpt lat="-27.2737719" lon="151.2899028">
  <ele>357.89</ele>
  <time>2026-09-01T19:58:38Z</time>
  <course>35.29</course>
  <speed>0.15</speed>
  <fix>3d</fix>
</trkpt>
<trkpt lat="-27.2737713" lon="151.2899033">
  <ele>357.3</ele>
  <time>2026-09-01T19:58:38Z</time>
  <course>102.61</course>
  <speed>0.16401219466856726</speed>
  <fix>3d</fix>
</trkpt>
<trkpt lat="-27.2737716" lon="151.2899029">
  <ele>357.59</ele>
  <time>2026-09-01T19:58:38Z</time>
  <course>35.49</course>
  <speed>0.15</speed>
  <fix>3d</fix>
</trkpt>
<trkpt lat="-27.2737712" lon="151.2899034">
  <ele>357.15</ele>
  <time>2026-09-01T19:58:38Z</time>
  <course>102.61</course>
  <speed>0.15620499351813308</speed>
  <fix>3d</fix>
</trkpt>
<trkpt lat="-27.2737716" lon="151.2899029">
  <ele>357.59</ele>
  <time>2026-09-01T19:58:38Z</time>
  <course>35.49</course>
  <speed>0.15</speed>
  <fix>3d</fix>
</trkpt>
<trkpt lat="-27.2737711" lon="151.2899035">
  <ele>357.01</ele>
  <time>2026-09-01T19:58:38Z</time>
  <course>102.62</course>
  <speed>0.15620499351813308</speed>
  <fix>3d</fix>
</trkpt>
<trkpt lat="-27.2737714" lon="151.2899031">
  <ele>357.29</ele>
  <time>2026-09-01T19:58:38Z</time>
  <course>35.93</course>
  <speed>0.15</speed>
  <fix>3d</fix>
</trkpt>
<trkpt lat="-27.273771" lon="151.2899036">
  <ele>356.86</ele>
  <time>2026-09-01T19:58:38Z</time>
  <course>102.62</course>
  <speed>0.15620499351813308</speed>
  <fix>3d</fix>
</trkpt>
<trkpt lat="-27.2737714" lon="151.2899031">
  <ele>357.29</ele>
  <time>2026-09-01T19:58:38Z</time>
  <course>35.93</course>
  <speed>0.15</speed>
  <fix>3d</fix>
</trkpt>
<trkpt lat="-27.2737709" lon="151.2899036">
  <ele>356.71</ele>
  <time>2026-09-01T19:58:38Z</time>
  <course>102.62</course>
  <speed>0.14866068747318506</speed>
  <fix>3d</fix>
</trkpt>
<trkpt lat="-27.2737712" lon="151.2899033">
  <ele>356.98</ele>
  <time>2026-09-01T19:58:38Z</time>
  <course>36.66</course>
  <speed>0.14</speed>
  <fix>3d</fix>
</trkpt>
<trkpt lat="-27.2737708" lon="151.2899037">
  <ele>356.56</ele>
  <time>2026-09-01T19:58:38Z</time>
  <course>102.63</course>
  <speed>0.14866068747318506</speed>
  <fix>3d</fix>
</trkpt>
<trkpt lat="-27.2737712" lon="151.2899033">
  <ele>356.98</ele>
  <time>2026-09-01T19:58:38Z</time>
  <course>36.66</course>
  <speed>0.14</speed>
  <fix>3d</fix>
</trkpt>
<trkpt lat="-27.2737707" lon="151.2899038">
  <ele>356.41</ele>
  <time>2026-09-01T19:58:38Z</time>
  <course>102.64</course>
  <speed>0.1414213562373095</speed>
  <fix>3d</fix>
</trkpt>
<trkpt lat="-27.2737709" lon="151.2899034">
  <ele>356.68</ele>
  <time>2026-09-01T19:58:38Z</time>
  <course>37.71</course>
  <speed>0.13</speed>
  <fix>3d</fix>
</trkpt>
<trkpt lat="-27.2737707" lon="151.2899039">
  <ele>356.26</ele>
  <time>2026-09-01T19:58:38Z</time>
  <course>102.66</course>
  <speed>0.1345362404707371</speed>
  <fix>3d</fix>
</trkpt>
<trkpt lat="-27.2737709" lon="151.2899034">
  <ele>356.68</ele>
  <time>2026-09-01T19:58:38Z</time>
  <course>37.71</course>
  <speed>0.13</speed>
  <fix>3d</fix>
</trkpt>
<trkpt lat="-27.2737706" lon="151.2899039">
  <ele>356.11</ele>
  <time>2026-09-01T19:58:38Z</time>
  <course>102.67</course>
  <speed>0.12727922061357855</speed>
  <fix>3d</fix>
</trkpt>
<trkpt lat="-27.2737708" lon="151.2899036">
  <ele>356.38</ele>
  <time>2026-09-01T19:58:38Z</time>
  <course>38.89</course>
  <speed>0.12</speed>
  <fix>3d</fix>
</trkpt>
<trkpt lat="-27.2737705" lon="151.289904">
  <ele>355.96</ele>
  <time>2026-09-01T19:58:38Z</time>
  <course>102.69</course>
  <speed>0.12727922061357855</speed>
  <fix>3d</fix>
</trkpt>
<trkpt lat="-27.2737708" lon="151.2899036">
  <ele>356.38</ele>
  <time>2026-09-01T19:58:38Z</time>
  <course>38.89</course>
  <speed>0.12</speed>
  <fix>3d</fix>
</trkpt>
<trkpt lat="-27.2737704" lon="151.2899041">
  <ele>355.81</ele>
  <time>2026-09-01T19:58:38Z</time>
  <course>102.7</course>
  <speed>0.12041594578792296</speed>
  <fix>3d</fix>
</trkpt>
<trkpt lat="-27.2737706" lon="151.2899038">
  <ele>356.08</ele>
  <time>2026-09-01T19:58:38Z</time>
  <course>40.22</course>
  <speed>0.11</speed>
  <fix>3d</fix>
</trkpt>
<trkpt lat="-27.2737704" lon="151.2899042">
  <ele>355.66</ele>
  <time>2026-09-01T19:58:38Z</time>
  <course>102.71</course>
  <speed>0.1063014581273465</speed>
  <fix>3d</fix>
</trkpt>
<trkpt lat="-27.2737706" lon="151.2899038">
  <ele>356.08</ele>
  <time>2026-09-01T19:58:38Z</time>
  <course>40.22</course>
  <speed>0.11</speed>
  <fix>3d</fix>
</trkpt>
<trkpt lat="-27.2737703" lon="151.2899042">
  <ele>355.51</ele>
  <time>2026-09-01T19:58:38Z</time>
  <course>102.73</course>
  <speed>0.1063014581273465</speed>
  <fix>3d</fix>
</trkpt>
<trkpt lat="-27.2737705" lon="151.2899039">
  <ele>355.77</ele>
  <time>2026-09-01T19:58:38Z</time>
  <course>42.08</course>
  <speed>0.1</speed>
  <fix>3d</fix>
</trkpt>
<trkpt lat="-27.2737703" lon="151.2899043">
  <ele>355.36</ele>
  <time>2026-09-01T19:58:38Z</time>
  <course>102.75</course>
  <speed>0.1</speed>
  <fix>3d</fix>
</trkpt>
<trkpt lat="-27.2737705" lon="151.2899039">
  <ele>355.77</ele>
  <time>2026-09-01T19:58:38Z</time>
  <course>42.08</course>
  <speed>0.1</speed>
  <fix>3d</fix>
</trkpt>
<trkpt lat="-27.2737702" lon="151.2899043">
  <ele>355.21</ele>
  <time>2026-09-01T19:58:38Z</time>
  <course>102.78</course>
  <speed>0.09433981132056603</speed>
  <fix>3d</fix>
</trkpt>
<trkpt lat="-27.2737703" lon="151.289904">
  <ele>355.47</ele>
  <time>2026-09-01T19:58:38Z</time>
  <course>44.84</course>
  <speed>0.09</speed>
  <fix>3d</fix>
</trkpt>
<trkpt lat="-27.2737702" lon="151.2899044">
  <ele>355.06</ele>
  <time>2026-09-01T19:58:38Z</time>
  <course>102.8</course>
  <speed>0.08602325267042626</speed>
  <fix>3d</fix>
</trkpt>
<trkpt lat="-27.2737703" lon="151.289904">
  <ele>355.47</ele>
  <time>2026-09-01T19:58:38Z</time>
  <course>44.84</course>
  <speed>0.09</speed>
  <fix>3d</fix>
</trkpt>
<trkpt lat="-27.2737701" lon="151.2899045">
  <ele>354.91</ele>
  <time>2026-09-01T19:58:38Z</time>
  <course>102.83</course>
  <speed>0.08062257748298549</speed>
  <fix>3d</fix>
</trkpt>
<trkpt lat="-27.2737702" lon="151.2899042">
  <ele>355.16</ele>
  <time>2026-09-01T19:58:38Z</time>
  <course>48.69</course>
  <speed>0.07</speed>
  <fix>3d</fix>
</trkpt>
<trkpt lat="-27.2737701" lon="151.2899045">
  <ele>354.76</ele>
  <time>2026-09-01T19:58:38Z</time>
  <course>102.86</course>
  <speed>0.08062257748298549</speed>
  <fix>3d</fix>
</trkpt>
<trkpt lat="-27.2737702" lon="151.2899042">
  <ele>355.16</ele>
  <time>2026-09-01T19:58:38Z</time>
  <course>48.69</course>
  <speed>0.07</speed>
  <fix>3d</fix>
</trkpt>
<trkpt lat="-27.2737701" lon="151.2899046">
  <ele>354.61</ele>
  <time>2026-09-01T19:58:38Z</time>
  <course>102.89</course>
  <speed>0.0670820393249937</speed>
  <fix>3d</fix>
</trkpt>
<trkpt lat="-27.2737701" lon="151.2899043">
  <ele>354.86</ele>
  <time>2026-09-01T19:58:38Z</time>
  <course>53.64</course>
  <speed>0.06</speed>
  <fix>3d</fix>
</trkpt>
<trkpt lat="-27.27377" lon="151.2899046">
  <ele>354.46</ele>
  <time>2026-09-01T19:58:38Z</time>
  <course>102.94</course>
  <speed>0.0632455532033676</speed>
  <fix>3d</fix>
</trkpt>
<trkpt lat="-27.2737701" lon="151.2899043">
  <ele>354.86</ele>
  <time>2026-09-01T19:58:38Z</time>
  <course>53.64</course>
  <speed>0.06</speed>
  <fix>3d</fix>
</trkpt>
<trkpt lat="-27.27377" lon="151.2899046">
  <ele>354.31</ele>
  <time>2026-09-01T19:58:38Z</time>
  <course>102.99</course>
  <speed>0.0632455532033676</speed>
  <fix>3d</fix>
</trkpt>
<trkpt lat="-27.2737701" lon="151.2899044">
  <ele>354.56</ele>
  <time>2026-09-01T19:58:38Z</time>
  <course>59.9</course>
  <speed>0.05</speed>
  <fix>3d</fix>
</trkpt>
<trkpt lat="-27.27377" lon="151.2899047">
  <ele>354.16</ele>
  <time>2026-09-01T19:58:38Z</time>
  <course>103.04</course>
  <speed>0.053851648071345036</speed>
  <fix>3d</fix>
</trkpt>
<trkpt lat="-27.2737701" lon="151.2899044">
  <ele>354.56</ele>
  <time>2026-09-01T19:58:38Z</time>
  <course>59.9</course>
  <speed>0.05</speed>
  <fix>3d</fix>
</trkpt>
<trkpt lat="-27.27377" lon="151.2899047">
  <ele>354.01</ele>
  <time>2026-09-01T19:58:38Z</time>
  <course>103.09</course>
  <speed>0.05099019513592785</speed>
  <fix>3d</fix>
</trkpt>
<trkpt lat="-27.2737701" lon="151.2899045">
  <ele>354.26</ele>
  <time>2026-09-01T19:58:38Z</time>
  <course>67.38</course>
  <speed>0.04</speed>
  <fix>3d</fix>
</trkpt>
<trkpt lat="-27.27377" lon="151.2899048">
  <ele>353.87</ele>
  <time>2026-09-01T19:58:38Z</time>
  <course>103.15</course>
  <speed>0.05099019513592785</speed>
  <fix>3d</fix>
</trkpt>
<trkpt lat="-27.2737701" lon="151.2899045">
  <ele>354.26</ele>
  <time>2026-09-01T19:58:38Z</time>
  <course>67.38</course>
  <speed>0.04</speed>
  <fix>3d</fix>
</trkpt>
<trkpt lat="-27.27377" lon="151.2899048">
  <ele>353.72</ele>
  <time>2026-09-01T19:58:38Z</time>
  <course>103.21</course>
  <speed>0.0412310562561766</speed>
  <fix>3d</fix>
</trkpt>
<trkpt lat="-27.2737701" lon="151.2899045">
  <ele>353.96</ele>
  <time>2026-09-01T19:58:38Z</time>
  <course>76.24</course>
  <speed>0.03</speed>
  <fix>3d</fix>
</trkpt>
<trkpt lat="-27.27377" lon="151.2899048">
  <ele>353.58</ele>
  <time>2026-09-01T19:58:38Z</time>
  <course>103.26</course>
  <speed>0.04</speed>
  <fix>3d</fix>
</trkpt>
<trkpt lat="-27.2737701" lon="151.2899045">
  <ele>353.96</ele>
  <time>2026-09-01T19:58:38Z</time>
  <course>76.24</course>
  <speed>0.03</speed>
  <fix>3d</fix>
</trkpt>
<trkpt lat="-27.27377" lon="151.2899048">
  <ele>353.44</ele>
  <time>2026-09-01T19:58:38Z</time>
  <course>103.31</course>
  <speed>0.04</speed>
  <fix>3d</fix>
</trkpt>
<trkpt lat="-27.2737701" lon="151.2899046">
  <ele>353.68</ele>
  <time>2026-09-01T19:58:38Z</time>
  <course>87.8</course>
  <speed>0.02</speed>
  <fix>3d</fix>
</trkpt>
<trkpt lat="-27.27377" lon="151.2899048">
  <ele>353.3</ele>
  <time>2026-09-01T19:58:38Z</time>
  <course>103.35</course>
  <speed>0.03</speed>
  <fix>3d</fix>
</trkpt>
<trkpt lat="-27.2737701" lon="151.2899046">
  <ele>353.68</ele>
  <time>2026-09-01T19:58:38Z</time>
  <course>87.8</course>
  <speed>0.02</speed>
  <fix>3d</fix>
</trkpt>
<trkpt lat="-27.27377" lon="151.2899049">
  <ele>353.17</ele>
  <time>2026-09-01T19:58:38Z</time>
  <course>103.37</course>
  <speed>0.03</speed>
  <fix>3d</fix>
</trkpt>
<trkpt lat="-27.2737701" lon="151.2899047">
  <ele>353.4</ele>
  <time>2026-09-01T19:58:38Z</time>
  <course>106.84</course>
  <speed>0.01</speed>
  <fix>3d</fix>
</trkpt>
<trkpt lat="-27.27377" lon="151.2899049">
  <ele>353.04</ele>
  <time>2026-09-01T19:58:38Z</time>
  <course>103.4</course>
  <speed>0.03</speed>
  <fix>3d</fix>
</trkpt>
<trkpt lat="-27.2737701" lon="151.2899047">
  <ele>353.4</ele>
  <time>2026-09-01T19:58:38Z</time>
  <course>106.84</course>
  <speed>0.01</speed>
  <fix>3d</fix>
</trkpt>
<trkpt lat="-27.27377" lon="151.2899049">
  <ele>352.91</ele>
  <time>2026-09-01T19:58:38Z</time>
  <course>103.48</course>
  <speed>0.02</speed>
  <fix>3d</fix>
</trkpt>
<trkpt lat="-27.2737701" lon="151.2899047">
  <ele>353.13</ele>
  <time>2026-09-01T19:58:38Z</time>
  <course>135.91</course>
  <speed>0.01</speed>
  <fix>3d</fix>
</trkpt>
<trkpt lat="-27.27377" lon="151.2899049">
  <ele>352.78</ele>
  <time>2026-09-01T19:58:38Z</time>
  <course>103.58</course>
  <speed>0.02</speed>
  <fix>3d</fix>
</trkpt>
<trkpt lat="-27.2737701" lon="151.2899047">
  <ele>353.13</ele>
  <time>2026-09-01T19:58:38Z</time>
  <course>135.91</course>
  <speed>0.01</speed>
  <fix>3d</fix>
</trkpt>
<trkpt lat="-27.27377" lon="151.2899049">
  <ele>352.66</ele>
  <time>2026-09-01T19:58:38Z</time>
  <course>103.68</course>
  <speed>0.02</speed>
  <fix>3d</fix>
</trkpt>
<trkpt lat="-27.2737701" lon="151.2899047">
  <ele>352.87</ele>
  <time>2026-09-01T19:58:38Z</time>
  <course>168.59</course>
  <speed>0.0</speed>
  <fix>3d</fix>
</trkpt>
<trkpt lat="-27.27377" lon="151.2899049">
  <ele>352.54</ele>
  <time>2026-09-01T19:58:38Z</time>
  <course>103.77</course>
  <speed>0.01</speed>
  <fix>3d</fix>
</trkpt>
<trkpt lat="-27.2737701" lon="151.2899047">
  <ele>352.87</ele>
  <time>2026-09-01T19:58:38Z</time>
  <course>168.59</course>
  <speed>0.0</speed>
  <fix>3d</fix>
</trkpt>
<trkpt lat="-27.27377" lon="151.2899049">
  <ele>352.43</ele>
  <time>2026-09-01T19:58:38Z</time>
  <course>103.85</course>
  <speed>0.01</speed>
  <fix>3d</fix>
</trkpt>
<trkpt lat="-27.2737701" lon="151.2899047">
  <ele>352.63</ele>
  <time>2026-09-01T19:58:38Z</time>
  <course>213.74</course>
  <speed>0.0</speed>
  <fix>3d</fix>
</trkpt>
<trkpt lat="-27.27377" lon="151.2899049">
  <ele>352.31</ele>
  <time>2026-09-01T19:58:38Z</time>
  <course>103.91</course>
  <speed>0.01</speed>
  <fix>3d</fix>
</trkpt>
<trkpt lat="-27.2737701" lon="151.2899047">
  <ele>352.63</ele>
  <time>2026-09-01T19:58:38Z</time>
  <course>213.74</course>
  <speed>0.0</speed>
  <fix>3d</fix>
</trkpt>
<trkpt lat="-27.27377" lon="151.2899048">
  <ele>352.2</ele>
  <time>2026-09-01T19:58:38Z</time>
  <course>103.94</course>
  <speed>0.0</speed>
  <fix>3d</fix>
</trkpt>
<trkpt lat="-27.2737701" lon="151.2899047">
  <ele>352.39</ele>
  <time>2026-09-01T19:58:38Z</time>
  <course>247.75</course>
  <speed>0.01</speed>
  <fix>3d</fix>
</trkpt>
<trkpt lat="-27.27377" lon="151.2899048">
  <ele>352.1</ele>
  <time>2026-09-01T19:58:38Z</time>
  <course>103.95</course>
  <speed>0.0</speed>
  <fix>3d</fix>
</trkpt>
<trkpt lat="-27.2737701" lon="151.2899047">
  <ele>352.39</ele>
  <time>2026-09-01T19:58:38Z</time>
  <course>247.75</course>
  <speed>0.01</speed>
  <fix>3d</fix>
</trkpt>
<trkpt lat="-27.27377" lon="151.2899048">
  <ele>351.99</ele>
  <time>2026-09-01T19:58:38Z</time>
  <course>103.95</course>
  <speed>0.0</speed>
  <fix>3d</fix>
</trkpt>
<trkpt lat="-27.2737701" lon="151.2899047">
  <ele>352.16</ele>
  <time>2026-09-01T19:58:38Z</time>
  <course>262.58</course>
  <speed>0.01</speed>
  <fix>3d</fix>
</trkpt>
<trkpt lat="-27.27377" lon="151.2899048">
  <ele>351.89</ele>
  <time>2026-09-01T19:58:38Z</time>
  <course>103.95</course>
  <speed>0.0</speed>
  <fix>3d</fix>
</trkpt>
<trkpt lat="-27.2737701" lon="151.2899047">
  <ele>352.16</ele>
  <time>2026-09-01T19:58:38Z</time>
  <course>262.58</course>
  <speed>0.01</speed>
  <fix>3d</fix>
</trkpt>
<trkpt lat="-27.27377" lon="151.2899048">
  <ele>351.79</ele>
  <time>2026-09-01T19:58:38Z</time>
  <course>103.95</course>
  <speed>0.0</speed>
  <fix>3d</fix>
</trkpt>
<trkpt lat="-27.2737701" lon="151.2899047">
  <ele>351.95</ele>
  <time>2026-09-01T19:58:38Z</time>
  <course>270.24</course>
  <speed>0.02</speed>
  <fix>3d</fix>
</trkpt>
<trkpt lat="-27.27377" lon="151.2899048">
  <ele>351.69</ele>
  <time>2026-09-01T19:58:38Z</time>
  <course>103.96</course>
  <speed>0.01</speed>
  <fix>3d</fix>
</trkpt>
<trkpt lat="-27.2737701" lon="151.2899047">
  <ele>351.95</ele>
  <time>2026-09-01T19:58:38Z</time>
  <course>270.24</course>
  <speed>0.02</speed>
  <fix>3d</fix>
</trkpt>
<trkpt lat="-27.27377" lon="151.2899048">
  <ele>351.59</ele>
  <time>2026-09-01T19:58:38Z</time>
  <course>103.97</course>
  <speed>0.01</speed>
  <fix>3d</fix>
</trkpt>
<trkpt lat="-27.2737701" lon="151.2899046">
  <ele>351.75</ele>
  <time>2026-09-01T19:58:38Z</time>
  <course>274.47</course>
  <speed>0.02</speed>
  <fix>3d</fix>
</trkpt>
<trkpt lat="-27.27377" lon="151.2899048">
  <ele>351.49</ele>
  <time>2026-09-01T19:58:38Z</time>
  <course>103.99</course>
  <speed>0.01</speed>
  <fix>3d</fix>
</trkpt>
<trkpt lat="-27.2737701" lon="151.2899046">
  <ele>351.75</ele>
  <time>2026-09-01T19:58:38Z</time>
  <course>274.47</course>
  <speed>0.02</speed>
  <fix>3d</fix>
</trkpt>
<trkpt lat="-27.27377" lon="151.2899048">
  <ele>351.4</ele>
  <time>2026-09-01T19:58:38Z</time>
  <course>104.02</course>
  <speed>0.01</speed>
  <fix>3d</fix>
</trkpt>
<trkpt lat="-27.2737701" lon="151.2899046">
  <ele>351.55</ele>
  <time>2026-09-01T19:58:38Z</time>
  <course>276.92</course>
  <speed>0.03</speed>
  <fix>3d</fix>
</trkpt>
<trkpt lat="-27.27377" lon="151.2899048">
  <ele>351.3</ele>
  <time>2026-09-01T19:58:38Z</time>
  <course>104.05</course>
  <speed>0.01</speed>
  <fix>3d</fix>
</trkpt>
<trkpt lat="-27.2737701" lon="151.2899046">
  <ele>351.55</ele>
  <time>2026-09-01T19:58:38Z</time>
  <course>276.92</course>
  <speed>0.03</speed>
  <fix>3d</fix>
</trkpt>
<trkpt lat="-27.27377" lon="151.2899047">
  <ele>351.2</ele>
  <time>2026-09-01T19:58:38Z</time>
  <course>104.09</course>
  <speed>0.01</speed>
  <fix>3d</fix>
</trkpt>
<trkpt lat="-27.2737701" lon="151.2899045">
  <ele>351.35</ele>
  <time>2026-09-01T19:58:38Z</time>
  <course>278.96</course>
  <speed>0.03</speed>
  <fix>3d</fix>
</trkpt>
<trkpt lat="-27.27377" lon="151.2899047">
  <ele>351.11</ele>
  <time>2026-09-01T19:58:38Z</time>
  <course>104.12</course>
  <speed>0.01</speed>
  <fix>3d</fix>
</trkpt>
<trkpt lat="-27.2737701" lon="151.2899045">
  <ele>351.35</ele>
  <time>2026-09-01T19:58:38Z</time>
  <course>278.96</course>
  <speed>0.03</speed>
  <fix>3d</fix>
</trkpt>
<trkpt lat="-27.27377" lon="151.2899047">
  <ele>351.02</ele>
  <time>2026-09-01T19:58:38Z</time>
  <course>104.16</course>
  <speed>0.01</speed>
  <fix>3d</fix>
</trkpt>
<trkpt lat="-27.2737701" lon="151.2899044">
  <ele>351.16</ele>
  <time>2026-09-01T19:58:38Z</time>
  <course>280.26</course>
  <speed>0.03</speed>
  <fix>3d</fix>
</trkpt>
<trkpt lat="-27.27377" lon="151.2899046">
  <ele>350.92</ele>
  <time>2026-09-01T19:58:38Z</time>
  <course>104.18</course>
  <speed>0.01</speed>
  <fix>3d</fix>
</trkpt>
<trkpt lat="-27.2737701" lon="151.2899044">
  <ele>351.16</ele>
  <time>2026-09-01T19:58:38Z</time>
  <course>280.26</course>
  <speed>0.03</speed>
  <fix>3d</fix>
</trkpt>
<trkpt lat="-27.27377" lon="151.2899046">
  <ele>350.83</ele>
  <time>2026-09-01T19:58:38Z</time>
  <course>104.21</course>
  <speed>0.01</speed>
  <fix>3d</fix>
</trkpt>
<trkpt lat="-27.2737701" lon="151.2899043">
  <ele>350.98</ele>
  <time>2026-09-01T19:58:38Z</time>
  <course>281.2</course>
  <speed>0.03</speed>
  <fix>3d</fix>
</trkpt>
<trkpt lat="-27.27377" lon="151.2899046">
  <ele>350.74</ele>
  <time>2026-09-01T19:58:38Z</time>
  <course>104.22</course>
  <speed>0.01</speed>
  <fix>3d</fix>
</trkpt>
<trkpt lat="-27.2737701" lon="151.2899043">
  <ele>350.98</ele>
  <time>2026-09-01T19:58:38Z</time>
  <course>281.2</course>
  <speed>0.03</speed>
  <fix>3d</fix>
</trkpt>
<trkpt lat="-27.27377" lon="151.2899045">
  <ele>350.66</ele>
  <time>2026-09-01T19:58:38Z</time>
  <course>104.24</course>
  <speed>0.01</speed>
  <fix>3d</fix>
</trkpt>
<trkpt lat="-27.2737701" lon="151.2899043">
  <ele>350.8</ele>
  <time>2026-09-01T19:58:38Z</time>
  <course>282.25</course>
  <speed>0.03</speed>
  <fix>3d</fix>
</trkpt>
<trkpt lat="-27.27377" lon="151.2899045">
  <ele>350.58</ele>
  <time>2026-09-01T19:58:38Z</time>
  <course>104.25</course>
  <speed>0.01</speed>
  <fix>3d</fix>
</trkpt>
<trkpt lat="-27.2737701" lon="151.2899043">
  <ele>350.8</ele>
  <time>2026-09-01T19:58:38Z</time>
  <course>282.25</course>
  <speed>0.03</speed>
  <fix>3d</fix>
</trkpt>
<trkpt lat="-27.27377" lon="151.2899045">
  <ele>350.5</ele>
  <time>2026-09-01T19:58:38Z</time>
  <course>104.27</course>
  <speed>0.01</speed>
  <fix>3d</fix>
</trkpt>
<trkpt lat="-27.2737701" lon="151.2899042">
  <ele>350.63</ele>
  <time>2026-09-01T19:58:38Z</time>
  <course>283.16</course>
  <speed>0.03</speed>
  <fix>3d</fix>
</trkpt>
<trkpt lat="-27.27377" lon="151.2899044">
  <ele>350.42</ele>
  <time>2026-09-01T19:58:38Z</time>
  <course>104.29</course>
  <speed>0.02</speed>
  <fix>3d</fix>
</trkpt>
<trkpt lat="-27.2737701" lon="151.2899042">
  <ele>350.63</ele>
  <time>2026-09-01T19:58:38Z</time>
  <course>283.16</course>
  <speed>0.03</speed>
  <fix>3d</fix>
</trkpt>
<trkpt lat="-27.27377" lon="151.2899044">
  <ele>350.34</ele>
  <time>2026-09-01T19:58:38Z</time>
  <course>104.31</course>
  <speed>0.02</speed>
  <fix>3d</fix>
</trkpt>
<trkpt lat="-27.27377" lon="151.2899042">
  <ele>350.47</ele>
  <time>2026-09-01T19:58:38Z</time>
  <course>284.05</course>
  <speed>0.03</speed>
  <fix>3d</fix>
</trkpt>
<trkpt lat="-27.27377" lon="151.2899044">
  <ele>350.26</ele>
  <time>2026-09-01T19:58:38Z</time>
  <course>104.33</course>
  <speed>0.02</speed>
  <fix>3d</fix>
</trkpt>
<trkpt lat="-27.27377" lon="151.2899042">
  <ele>350.47</ele>
  <time>2026-09-01T19:58:38Z</time>
  <course>284.05</course>
  <speed>0.03</speed>
  <fix>3d</fix>
</trkpt>
<trkpt lat="-27.27377" lon="151.2899043">
  <ele>350.19</ele>
  <time>2026-09-01T19:58:38Z</time>
  <course>104.36</course>
  <speed>0.02</speed>
  <fix>3d</fix>
</trkpt>
<trkpt lat="-27.27377" lon="151.2899041">
  <ele>350.31</ele>
  <time>2026-09-01T19:58:38Z</time>
  <course>284.97</course>
  <speed>0.03</speed>
  <fix>3d</fix>
</trkpt>
<trkpt lat="-27.27377" lon="151.2899043">
  <ele>350.12</ele>
  <time>2026-09-01T19:58:38Z</time>
  <course>104.39</course>
  <speed>0.02</speed>
  <fix>3d</fix>
</trkpt>
<trkpt lat="-27.27377" lon="151.2899041">
  <ele>350.31</ele>
  <time>2026-09-01T19:58:38Z</time>
  <course>284.97</course>
  <speed>0.03</speed>
  <fix>3d</fix>
</trkpt>
<trkpt lat="-27.2737699" lon="151.2899043">
  <ele>350.05</ele>
  <time>2026-09-01T19:58:38Z</time>
  <course>104.41</course>
  <speed>0.02</speed>
  <fix>3d</fix>
</trkpt>
<trkpt lat="-27.27377" lon="151.289904">
  <ele>350.16</ele>
  <time>2026-09-01T19:58:38Z</time>
  <course>285.82</course>
  <speed>0.03</speed>
  <fix>3d</fix>
</trkpt>
<trkpt lat="-27.2737699" lon="151.2899043">
  <ele>349.98</ele>
  <time>2026-09-01T19:58:38Z</time>
  <course>104.44</course>
  <speed>0.02</speed>
  <fix>3d</fix>
</trkpt>
<trkpt lat="-27.27377" lon="151.289904">
  <ele>350.16</ele>
  <time>2026-09-01T19:58:38Z</time>
  <course>285.82</course>
  <speed>0.03</speed>
  <fix>3d</fix>
</trkpt>
<trkpt lat="-27.2737699" lon="151.2899042">
  <ele>349.92</ele>
  <time>2026-09-01T19:58:38Z</time>
  <course>104.46</course>
  <speed>0.02</speed>
  <fix>3d</fix>
</trkpt>
<trkpt lat="-27.27377" lon="151.289904">
  <ele>350.02</ele>
  <time>2026-09-01T19:58:38Z</time>
  <course>286.55</course>
  <speed>0.03</speed>
  <fix>3d</fix>
</trkpt>
<trkpt lat="-27.2737699" lon="151.2899042">
  <ele>349.85</ele>
  <time>2026-09-01T19:58:38Z</time>
  <course>104.48</course>
  <speed>0.02</speed>
  <fix>3d</fix>
</trkpt>
<trkpt lat="-27.27377" lon="151.289904">
  <ele>350.02</ele>
  <time>2026-09-01T19:58:38Z</time>
  <course>286.55</course>
  <speed>0.03</speed>
  <fix>3d</fix>
</trkpt>
<trkpt lat="-27.2737699" lon="151.2899042">
  <ele>349.78</ele>
  <time>2026-09-01T19:58:38Z</time>
  <course>104.5</course>
  <speed>0.02</speed>
  <fix>3d</fix>
</trkpt>
<trkpt lat="-27.27377" lon="151.2899039">
  <ele>349.88</ele>
  <time>2026-09-01T19:58:38Z</time>
  <course>287.33</course>
  <speed>0.02</speed>
  <fix>3d</fix>
</trkpt>
<trkpt lat="-27.2737699" lon="151.2899042">
  <ele>349.72</ele>
  <time>2026-09-01T19:58:38Z</time>
  <course>104.51</course>
  <speed>0.02</speed>
  <fix>3d</fix>
</trkpt>
<trkpt lat="-27.27377" lon="151.2899039">
  <ele>349.88</ele>
  <time>2026-09-01T19:58:38Z</time>
  <course>287.33</course>
  <speed>0.02</speed>
  <fix>3d</fix>
</trkpt>
<trkpt lat="-27.2737699" lon="151.2899041">
  <ele>349.65</ele>
  <time>2026-09-01T19:58:38Z</time>
  <course>104.52</course>
  <speed>0.022360679774997897</speed>
  <fix>3d</fix>
</trkpt>
<trkpt lat="-27.27377" lon="151.2899038">
  <ele>349.75</ele>
  <time>2026-09-01T19:58:38Z</time>
  <course>288.2</course>
  <speed>0.02</speed>
  <fix>3d</fix>
</trkpt>
<trkpt lat="-27.2737699" lon="151.2899041">
  <ele>349.59</ele>
  <time>2026-09-01T19:58:38Z</time>
  <course>104.52</course>
  <speed>0.022360679774997897</speed>
  <fix>3d</fix>
</trkpt>
<trkpt lat="-27.27377" lon="151.2899038">
  <ele>349.75</ele>
  <time>2026-09-01T19:58:38Z</time>
  <course>288.2</course>
  <speed>0.02</speed>
  <fix>3d</fix>
</trkpt>
<trkpt lat="-27.2737699" lon="151.2899041">
  <ele>349.53</ele>
  <time>2026-09-01T19:58:38Z</time>
  <course>104.52</course>
  <speed>0.022360679774997897</speed>
  <fix>3d</fix>
</trkpt>
<trkpt lat="-27.2737699" lon="151.2899038">
  <ele>349.61</ele>
  <time>2026-09-01T19:58:38Z</time>
  <course>289.09</course>
  <speed>0.02</speed>
  <fix>3d</fix>
</trkpt>
<trkpt lat="-27.2737699" lon="151.2899041">
  <ele>349.47</ele>
  <time>2026-09-01T19:58:38Z</time>
  <course>104.53</course>
  <speed>0.022360679774997897</speed>
  <fix>3d</fix>
</trkpt>
<trkpt lat="-27.2737699" lon="151.2899038">
  <ele>349.61</ele>
  <time>2026-09-01T19:58:38Z</time>
  <course>289.09</course>
  <speed>0.02</speed>
  <fix>3d</fix>
</trkpt>
<trkpt lat="-27.2737699" lon="151.2899041">
  <ele>349.41</ele>
  <time>2026-09-01T19:58:38Z</time>
  <course>104.55</course>
  <speed>0.022360679774997897</speed>
  <fix>3d</fix>
</trkpt>
<trkpt lat="-27.2737699" lon="151.2899038">
  <ele>349.49</ele>
  <time>2026-09-01T19:58:38Z</time>
  <course>291.01</course>
  <speed>0.01</speed>
  <fix>3d</fix>
</trkpt>
<trkpt lat="-27.2737699" lon="151.2899041">
  <ele>349.35</ele>
  <time>2026-09-01T19:58:38Z</time>
  <course>104.57</course>
  <speed>0.0282842712474619</speed>
  <fix>3d</fix>
</trkpt>
<trkpt lat="-27.2737699" lon="151.2899038">
  <ele>349.49</ele>
  <time>2026-09-01T19:58:38Z</time>
  <course>291.01</course>
  <speed>0.01</speed>
  <fix>3d</fix>
</trkpt>
<trkpt lat="-27.2737698" lon="151.2899041">
  <ele>349.29</ele>
  <time>2026-09-01T19:58:38Z</time>
  <course>104.6</course>
  <speed>0.0282842712474619</speed>
  <fix>3d</fix>
</trkpt>
<trkpt lat="-27.2737699" lon="151.2899037">
  <ele>349.37</ele>
  <time>2026-09-01T19:58:38Z</time>
  <course>294.67</course>
  <speed>0.01</speed>
  <fix>3d</fix>
</trkpt>
<trkpt lat="-27.2737698" lon="151.2899041">
  <ele>349.24</ele>
  <time>2026-09-01T19:58:38Z</time>
  <course>104.63</course>
  <speed>0.0282842712474619</speed>
  <fix>3d</fix>
</trkpt>
<trkpt lat="-27.2737699" lon="151.2899037">
  <ele>349.37</ele>
  <time>2026-09-01T19:58:38Z</time>
  <course>294.67</course>
  <speed>0.01</speed>
  <fix>3d</fix>
</trkpt>
<trkpt lat="-27.2737698" lon="151.289904">
  <ele>349.18</ele>
  <time>2026-09-01T19:58:38Z</time>
  <course>104.66</course>
  <speed>0.022360679774997897</speed>
  <fix>3d</fix>
</trkpt>
<trkpt lat="-27.2737699" lon="151.2899037">
  <ele>349.25</ele>
  <time>2026-09-01T19:58:38Z</time>
  <course>300.27</course>
  <speed>0.01</speed>
  <fix>3d</fix>
</trkpt>
<trkpt lat="-27.2737698" lon="151.289904">
  <ele>349.12</ele>
  <time>2026-09-01T19:58:38Z</time>
  <course>104.68</course>
  <speed>0.022360679774997897</speed>
  <fix>3d</fix>
</trkpt>
<trkpt lat="-27.2737699" lon="151.2899037">
  <ele>349.25</ele>
  <time>2026-09-01T19:58:38Z</time>
  <course>300.27</course>
  <speed>0.01</speed>
  <fix>3d</fix>
</trkpt>
<trkpt lat="-27.2737698" lon="151.289904">
  <ele>349.07</ele>
  <time>2026-09-01T19:58:38Z</time>
  <course>104.7</course>
  <speed>0.0316227766016838</speed>
  <fix>3d</fix>
</trkpt>
<trkpt lat="-27.2737699" lon="151.2899037">
  <ele>349.13</ele>
  <time>2026-09-01T19:58:38Z</time>
  <course>311.37</course>
  <speed>0.0</speed>
  <fix>3d</fix>
</trkpt>
<trkpt lat="-27.2737698" lon="151.289904">
  <ele>349.01</ele>
  <time>2026-09-01T19:58:38Z</time>
  <course>104.7</course>
  <speed>0.0316227766016838</speed>
  <fix>3d</fix>
</trkpt>
<trkpt lat="-27.2737699" lon="151.2899037">
  <ele>349.13</ele>
  <time>2026-09-01T19:58:38Z</time>
  <course>311.37</course>
  <speed>0.0</speed>
  <fix>3d</fix>
</trkpt>
<trkpt lat="-27.2737698" lon="151.289904">
  <ele>348.96</ele>
  <time>2026-09-01T19:58:38Z</time>
  <course>104.65</course>
  <speed>0.0316227766016838</speed>
  <fix>3d</fix>
</trkpt>
<trkpt lat="-27.2737699" lon="151.2899037">
  <ele>349.01</ele>
  <time>2026-09-01T19:58:38Z</time>
  <course>334.97</course>
  <speed>0.0</speed>
  <fix>3d</fix>
</trkpt>
<trkpt lat="-27.2737698" lon="151.289904">
  <ele>348.9</ele>
  <time>2026-09-01T19:58:38Z</time>
  <course>104.55</course>
  <speed>0.03</speed>
  <fix>3d</fix>
</trkpt>
<trkpt lat="-27.2737699" lon="151.2899037">
  <ele>349.01</ele>
  <time>2026-09-01T19:58:38Z</time>
  <course>334.97</course>
  <speed>0.0</speed>
  <fix>3d</fix>
</trkpt>
<trkpt lat="-27.2737698" lon="151.289904">
  <ele>348.85</ele>
  <time>2026-09-01T19:58:38Z</time>
  <course>104.43</course>
  <speed>0.03</speed>
  <fix>3d</fix>
</trkpt>
<trkpt lat="-27.2737699" lon="151.2899037">
  <ele>348.9</ele>
  <time>2026-09-01T19:58:38Z</time>
  <course>156.72</course>
  <speed>0.0</speed>
  <fix>3d</fix>
</trkpt>
<trkpt lat="-27.2737698" lon="151.289904">
  <ele>348.8</ele>
  <time>2026-09-01T19:58:38Z</time>
  <course>104.31</course>
  <speed>0.03</speed>
  <fix>3d</fix>
</trkpt>
<trkpt lat="-27.2737699" lon="151.2899037">
  <ele>348.9</ele>
  <time>2026-09-01T19:58:38Z</time>
  <course>156.72</course>
  <speed>0.0</speed>
  <fix>3d</fix>
</trkpt>
<trkpt lat="-27.2737698" lon="151.289904">
  <ele>348.75</ele>
  <time>2026-09-01T19:58:38Z</time>
  <course>104.2</course>
  <speed>0.03</speed>
  <fix>3d</fix>
</trkpt>
<trkpt lat="-27.2737699" lon="151.2899037">
  <ele>348.8</ele>
  <time>2026-09-01T19:58:38Z</time>
  <course>168.42</course>
  <speed>0.01</speed>
  <fix>3d</fix>
</trkpt>
<trkpt lat="-27.2737698" lon="151.289904">
  <ele>348.7</ele>
  <time>2026-09-01T19:58:38Z</time>
  <course>104.13</course>
  <speed>0.0316227766016838</speed>
  <fix>3d</fix>
</trkpt>
<trkpt lat="-27.2737699" lon="151.2899037">
  <ele>348.8</ele>
  <time>2026-09-01T19:58:38Z</time>
  <course>168.42</course>
  <speed>0.01</speed>
  <fix>3d</fix>
</trkpt>
<trkpt lat="-27.2737698" lon="151.289904">
  <ele>348.65</ele>
  <time>2026-09-01T19:58:38Z</time>
  <course>104.08</course>
  <speed>0.0316227766016838</speed>
  <fix>3d</fix>
</trkpt>
<trkpt lat="-27.2737699" lon="151.2899037">
  <ele>348.69</ele>
  <time>2026-09-01T19:58:38Z</time>
  <course>171.25</course>
  <speed>0.02</speed>
  <fix>3d</fix>
</trkpt>
<trkpt lat="-27.2737698" lon="151.289904">
  <ele>348.6</ele>
  <time>2026-09-01T19:58:38Z</time>
  <course>104.06</course>
  <speed>0.0316227766016838</speed>
  <fix>3d</fix>
</trkpt>
<trkpt lat="-27.2737699" lon="151.2899037">
  <ele>348.69</ele>
  <time>2026-09-01T19:58:38Z</time>
  <course>171.25</course>
  <speed>0.02</speed>
  <fix>3d</fix>
</trkpt>
<trkpt lat="-27.2737699" lon="151.289904">
  <ele>348.54</ele>
  <time>2026-09-01T19:58:38Z</time>
  <course>104.07</course>
  <speed>0.03605551275463989</speed>
  <fix>3d</fix>
</trkpt>
<trkpt lat="-27.2737699" lon="151.2899037">
  <ele>348.59</ele>
  <time>2026-09-01T19:58:38Z</time>
  <course>172.63</course>
  <speed>0.03</speed>
  <fix>3d</fix>
</trkpt>
<trkpt lat="-27.2737699" lon="151.289904">
  <ele>348.5</ele>
  <time>2026-09-01T19:58:38Z</time>
  <course>104.09</course>
  <speed>0.03605551275463989</speed>
  <fix>3d</fix>
</trkpt>
<trkpt lat="-27.2737699" lon="151.2899037">
  <ele>348.59</ele>
  <time>2026-09-01T19:58:38Z</time>
  <course>172.63</course>
  <speed>0.03</speed>
  <fix>3d</fix>
</trkpt>
<trkpt lat="-27.2737699" lon="151.289904">
  <ele>348.44</ele>
  <time>2026-09-01T19:58:38Z</time>
  <course>104.13</course>
  <speed>0.03605551275463989</speed>
  <fix>3d</fix>
</trkpt>
<trkpt lat="-27.2737699" lon="151.2899037">
  <ele>348.49</ele>
  <time>2026-09-01T19:58:38Z</time>
  <course>173.76</course>
  <speed>0.03</speed>
  <fix>3d</fix>
</trkpt>
<trkpt lat="-27.27377" lon="151.289904">
  <ele>348.39</ele>
  <time>2026-09-01T19:58:38Z</time>
  <course>104.16</course>
  <speed>0.04242640687119285</speed>
  <fix>3d</fix>
</trkpt>
<trkpt lat="-27.2737699" lon="151.2899037">
  <ele>348.49</ele>
  <time>2026-09-01T19:58:38Z</time>
  <course>173.76</course>
  <speed>0.03</speed>
  <fix>3d</fix>
</trkpt>
<trkpt lat="-27.27377" lon="151.289904">
  <ele>348.34</ele>
  <time>2026-09-01T19:58:38Z</time>
  <course>104.18</course>
  <speed>0.04242640687119285</speed>
  <fix>3d</fix>
</trkpt>
<trkpt lat="-27.27377" lon="151.2899037">
  <ele>348.39</ele>
  <time>2026-09-01T19:58:38Z</time>
  <course>174.65</course>
  <speed>0.04</speed>
  <fix>3d</fix>
</trkpt>
<trkpt lat="-27.27377" lon="151.289904">
  <ele>348.29</ele>
  <time>2026-09-01T19:58:38Z</time>
  <course>104.19</course>
  <speed>0.04242640687119285</speed>
  <fix>3d</fix>
</trkpt>
<trkpt lat="-27.27377" lon="151.2899037">
  <ele>348.39</ele>
  <time>2026-09-01T19:58:38Z</time>
  <course>174.65</course>
  <speed>0.04</speed>
  <fix>3d</fix>
</trkpt>
<trkpt lat="-27.2737701" lon="151.289904">
  <ele>348.24</ele>
  <time>2026-09-01T19:58:38Z</time>
  <course>104.19</course>
  <speed>0.05</speed>
  <fix>3d</fix>
</trkpt>
<trkpt lat="-27.2737701" lon="151.2899037">
  <ele>348.28</ele>
  <time>2026-09-01T19:58:38Z</time>
  <course>175.14</course>
  <speed>0.05</speed>
  <fix>3d</fix>
</trkpt>
<trkpt lat="-27.2737701" lon="151.289904">
  <ele>348.19</ele>
  <time>2026-09-01T19:58:38Z</time>
  <course>104.18</course>
  <speed>0.05</speed>
  <fix>3d</fix>
</trkpt>
<trkpt lat="-27.2737701" lon="151.2899037">
  <ele>348.28</ele>
  <time>2026-09-01T19:58:38Z</time>
  <course>175.14</course>
  <speed>0.05</speed>
  <fix>3d</fix>
</trkpt>
<trkpt lat="-27.2737702" lon="151.289904">
  <ele>348.14</ele>
  <time>2026-09-01T19:58:38Z</time>
  <course>104.17</course>
  <speed>0.05</speed>
  <fix>3d</fix>
</trkpt>
<trkpt lat="-27.2737702" lon="151.2899037">
  <ele>348.19</ele>
  <time>2026-09-01T19:58:38Z</time>
  <course>175.07</course>
  <speed>0.05</speed>
  <fix>3d</fix>
</trkpt>
<trkpt lat="-27.2737702" lon="151.289904">
  <ele>348.09</ele>
  <time>2026-09-01T19:58:38Z</time>
  <course>104.15</course>
  <speed>0.05</speed>
  <fix>3d</fix>
</trkpt>
<trkpt lat="-27.2737702" lon="151.2899037">
  <ele>348.19</ele>
  <time>2026-09-01T19:58:38Z</time>
  <course>175.07</course>
  <speed>0.05</speed>
  <fix>3d</fix>
</trkpt>
<trkpt lat="-27.2737703" lon="151.289904">
  <ele>348.04</ele>
  <time>2026-09-01T19:58:38Z</time>
  <course>104.12</course>
  <speed>0.05</speed>
  <fix>3d</fix>
</trkpt>
<trkpt lat="-27.2737703" lon="151.2899037">
  <ele>348.08</ele>
  <time>2026-09-01T19:58:38Z</time>
  <course>174.47</course>
  <speed>0.06</speed>
  <fix>3d</fix>
</trkpt>
<trkpt lat="-27.2737703" lon="151.289904">
  <ele>347.99</ele>
  <time>2026-09-01T19:58:38Z</time>
  <course>104.1</course>
  <speed>0.05830951894845301</speed>
  <fix>3d</fix>
</trkpt>
<trkpt lat="-27.2737703" lon="151.2899037">
  <ele>348.08</ele>
  <time>2026-09-01T19:58:38Z</time>
  <course>174.47</course>
  <speed>0.06</speed>
  <fix>3d</fix>
</trkpt>
<trkpt lat="-27.2737704" lon="151.289904">
  <ele>347.94</ele>
  <time>2026-09-01T19:58:38Z</time>
  <course>104.09</course>
  <speed>0.05830951894845301</speed>
  <fix>3d</fix>
</trkpt>
<trkpt lat="-27.2737704" lon="151.2899037">
  <ele>347.97</ele>
  <time>2026-09-01T19:58:38Z</time>
  <course>173.84</course>
  <speed>0.06</speed>
  <fix>3d</fix>
</trkpt>
<trkpt lat="-27.2737704" lon="151.289904">
  <ele>347.89</ele>
  <time>2026-09-01T19:58:38Z</time>
  <course>104.09</course>
  <speed>0.05830951894845301</speed>
  <fix>3d</fix>
</trkpt>
<trkpt lat="-27.2737704" lon="151.2899037">
  <ele>347.97</ele>
  <time>2026-09-01T19:58:38Z</time>
  <course>173.84</course>
  <speed>0.06</speed>
  <fix>3d</fix>
</trkpt>
<trkpt lat="-27.2737705" lon="151.289904">
  <ele>347.84</ele>
  <time>2026-09-01T19:58:38Z</time>
  <course>104.09</course>
  <speed>0.05830951894845301</speed>
  <fix>3d</fix>
</trkpt>
<trkpt lat="-27.2737705" lon="151.2899037">
  <ele>347.88</ele>
  <time>2026-09-01T19:58:38Z</time>
  <course>173.36</course>
  <speed>0.07</speed>
  <fix>3d</fix>
</trkpt>
<trkpt lat="-27.2737706" lon="151.289904">
  <ele>347.79</ele>
  <time>2026-09-01T19:58:38Z</time>
  <course>104.08</course>
  <speed>0.05830951894845301</speed>
  <fix>3d</fix>
</trkpt>
<trkpt lat="-27.2737705" lon="151.2899037">
  <ele>347.88</ele>
  <time>2026-09-01T19:58:38Z</time>
  <course>173.36</course>
  <speed>0.07</speed>
  <fix>3d</fix>
</trkpt>
<trkpt lat="-27.2737706" lon="151.289904">
  <ele>347.74</ele>
  <time>2026-09-01T19:58:39Z</time>
  <course>104.07</course>
  <speed>0.05830951894845301</speed>
  <fix>3d</fix>
</trkpt>
<trkpt lat="-27.2737707" lon="151.2899037">
  <ele>347.78</ele>
  <time>2026-09-01T19:58:39Z</time>
  <course>172.81</course>
  <speed>0.07</speed>
  <fix>3d</fix>
</trkpt>
<trkpt lat="-27.2737707" lon="151.289904">
  <ele>347.69</ele>
  <time>2026-09-01T19:58:39Z</time>
  <course>104.06</course>
  <speed>0.05830951894845301</speed>
  <fix>3d</fix>
</trkpt>
<trkpt lat="-27.2737707" lon="151.2899037">
  <ele>347.78</ele>
  <time>2026-09-01T19:58:39Z</time>
  <course>172.81</course>
  <speed>0.07</speed>
  <fix>3d</fix>
</trkpt>
<trkpt lat="-27.2737707" lon="151.289904">
  <ele>347.64</ele>
  <time>2026-09-01T19:58:39Z</time>
  <course>104.05</course>
  <speed>0.05</speed>
  <fix>3d</fix>
</trkpt>
<trkpt lat="-27.2737708" lon="151.2899037">
  <ele>347.68</ele>
  <time>2026-09-01T19:58:39Z</time>
  <course>172.14</course>
  <speed>0.07</speed>
  <fix>3d</fix>
</trkpt>
<trkpt lat="-27.2737708" lon="151.2899041">
  <ele>347.59</ele>
  <time>2026-09-01T19:58:39Z</time>
  <course>104.04</course>
  <speed>0.05</speed>
  <fix>3d</fix>
</trkpt>
<trkpt lat="-27.2737708" lon="151.2899037">
  <ele>347.68</ele>
  <time>2026-09-01T19:58:39Z</time>
  <course>172.14</course>
  <speed>0.07</speed>
  <fix>3d</fix>
</trkpt>
<trkpt lat="-27.2737709" lon="151.2899041">
  <ele>347.54</ele>
  <time>2026-09-01T19:58:39Z</time>
  <course>104.04</course>
  <speed>0.05</speed>
  <fix>3d</fix>
</trkpt>
<trkpt lat="-27.2737709" lon="151.2899038">
  <ele>347.58</ele>
  <time>2026-09-01T19:58:39Z</time>
  <course>171.41</course>
  <speed>0.07</speed>
  <fix>3d</fix>
</trkpt>
<trkpt lat="-27.2737709" lon="151.2899041">
  <ele>347.49</ele>
  <time>2026-09-01T19:58:39Z</time>
  <course>104.03</course>
  <speed>0.0565685424949238</speed>
  <fix>3d</fix>
</trkpt>
<trkpt lat="-27.2737709" lon="151.2899038">
  <ele>347.58</ele>
  <time>2026-09-01T19:58:39Z</time>
  <course>171.41</course>
  <speed>0.07</speed>
  <fix>3d</fix>
</trkpt>
<trkpt lat="-27.273771" lon="151.2899041">
  <ele>347.44</ele>
  <time>2026-09-01T19:58:39Z</time>
  <course>104.03</course>
  <speed>0.0565685424949238</speed>
  <fix>3d</fix>
</trkpt>
<trkpt lat="-27.273771" lon="151.2899038">
  <ele>347.47</ele>
  <time>2026-09-01T19:58:39Z</time>
  <course>170.57</course>
  <speed>0.06</speed>
  <fix>3d</fix>
</trkpt>
<trkpt lat="-27.273771" lon="151.2899041">
  <ele>347.39</ele>
  <time>2026-09-01T19:58:39Z</time>
  <course>104.02</course>
  <speed>0.0565685424949238</speed>
  <fix>3d</fix>
</trkpt>
<trkpt lat="-27.273771" lon="151.2899038">
  <ele>347.47</ele>
  <time>2026-09-01T19:58:39Z</time>
  <course>170.57</course>
  <speed>0.06</speed>
  <fix>3d</fix>
</trkpt>
<trkpt lat="-27.2737711" lon="151.2899041">
  <ele>347.34</ele>
  <time>2026-09-01T19:58:39Z</time>
  <course>104.0</course>
  <speed>0.0565685424949238</speed>
  <fix>3d</fix>
</trkpt>
<trkpt lat="-27.2737712" lon="151.2899038">
  <ele>347.38</ele>
  <time>2026-09-01T19:58:39Z</time>
  <course>169.51</course>
  <speed>0.06</speed>
  <fix>3d</fix>
</trkpt>
<trkpt lat="-27.2737711" lon="151.2899041">
  <ele>347.29</ele>
  <time>2026-09-01T19:58:39Z</time>
  <course>103.99</course>
  <speed>0.05</speed>
  <fix>3d</fix>
</trkpt>
<trkpt lat="-27.2737712" lon="151.2899038">
  <ele>347.38</ele>
  <time>2026-09-01T19:58:39Z</time>
  <course>169.51</course>
  <speed>0.06</speed>
  <fix>3d</fix>
</trkpt>
<trkpt lat="-27.2737712" lon="151.2899041">
  <ele>347.24</ele>
  <time>2026-09-01T19:58:39Z</time>
  <course>103.98</course>
  <speed>0.05</speed>
  <fix>3d</fix>
</trkpt>
<trkpt lat="-27.2737713" lon="151.2899038">
  <ele>347.28</ele>
  <time>2026-09-01T19:58:39Z</time>
  <course>168.24</course>
  <speed>0.06</speed>
  <fix>3d</fix>
</trkpt>
<trkpt lat="-27.2737712" lon="151.2899041">
  <ele>347.19</ele>
  <time>2026-09-01T19:58:39Z</time>
  <course>103.98</course>
  <speed>0.05</speed>
  <fix>3d</fix>
</trkpt>
<trkpt lat="-27.2737713" lon="151.2899038">
  <ele>347.28</ele>
  <time>2026-09-01T19:58:39Z</time>
  <course>168.24</course>
  <speed>0.06</speed>
  <fix>3d</fix>
</trkpt>
<trkpt lat="-27.2737713" lon="151.2899041">
  <ele>347.14</ele>
  <time>2026-09-01T19:58:39Z</time>
  <course>103.97</course>
  <speed>0.05</speed>
  <fix>3d</fix>
</trkpt>
<trkpt lat="-27.2737714" lon="151.2899038">
  <ele>347.18</ele>
  <time>2026-09-01T19:58:39Z</time>
  <course>166.81</course>
  <speed>0.05</speed>
  <fix>3d</fix>
</trkpt>
<trkpt lat="-27.2737713" lon="151.2899041">
  <ele>347.09</ele>
  <time>2026-09-01T19:58:39Z</time>
  <course>103.97</course>
  <speed>0.044721359549995794</speed>
  <fix>3d</fix>
</trkpt>
<trkpt lat="-27.2737714" lon="151.2899038">
  <ele>347.18</ele>
  <time>2026-09-01T19:58:39Z</time>
  <course>166.81</course>
  <speed>0.05</speed>
  <fix>3d</fix>
</trkpt>
<trkpt lat="-27.2737714" lon="151.2899041">
  <ele>347.04</ele>
  <time>2026-09-01T19:58:39Z</time>
  <course>103.97</course>
  <speed>0.044721359549995794</speed>
  <fix>3d</fix>
</trkpt>
<trkpt lat="-27.2737715" lon="151.2899038">
  <ele>347.08</ele>
  <time>2026-09-01T19:58:39Z</time>
  <course>165.01</course>
  <speed>0.05</speed>
  <fix>3d</fix>
</trkpt>
<trkpt lat="-27.2737714" lon="151.2899042">
  <ele>346.99</ele>
  <time>2026-09-01T19:58:39Z</time>
  <course>103.96</course>
  <speed>0.044721359549995794</speed>
  <fix>3d</fix>
</trkpt>
<trkpt lat="-27.2737715" lon="151.2899038">
  <ele>347.08</ele>
  <time>2026-09-01T19:58:39Z</time>
  <course>165.01</course>
  <speed>0.05</speed>
  <fix>3d</fix>
</trkpt>
<trkpt lat="-27.2737714" lon="151.2899042">
  <ele>346.94</ele>
  <time>2026-09-01T19:58:39Z</time>
  <course>103.95</course>
  <speed>0.0412310562561766</speed>
  <fix>3d</fix>
</trkpt>
<trkpt lat="-27.2737716" lon="151.2899038">
  <ele>346.97</ele>
  <time>2026-09-01T19:58:39Z</time>
  <course>162.6</course>
  <speed>0.04</speed>
  <fix>3d</fix>
</trkpt>
<trkpt lat="-27.2737715" lon="151.2899042">
  <ele>346.89</ele>
  <time>2026-09-01T19:58:39Z</time>
  <course>103.95</course>
  <speed>0.0412310562561766</speed>
  <fix>3d</fix>
</trkpt>
<trkpt lat="-27.2737716" lon="151.2899038">
  <ele>346.97</ele>
  <time>2026-09-01T19:58:39Z</time>
  <course>162.6</course>
  <speed>0.04</speed>
  <fix>3d</fix>
</trkpt>
<trkpt lat="-27.2737715" lon="151.2899042">
  <ele>346.84</ele>
  <time>2026-09-01T19:58:39Z</time>
  <course>103.93</course>
  <speed>0.0412310562561766</speed>
  <fix>3d</fix>
</trkpt>
<trkpt lat="-27.2737716" lon="151.2899039">
  <ele>346.88</ele>
  <time>2026-09-01T19:58:39Z</time>
  <course>159.36</course>
  <speed>0.04</speed>
  <fix>3d</fix>
</trkpt>
<trkpt lat="-27.2737715" lon="151.2899042">
  <ele>346.79</ele>
  <time>2026-09-01T19:58:39Z</time>
  <course>103.91</course>
  <speed>0.04</speed>
  <fix>3d</fix>
</trkpt>
<trkpt lat="-27.2737716" lon="151.2899039">
  <ele>346.88</ele>
  <time>2026-09-01T19:58:39Z</time>
  <course>159.36</course>
  <speed>0.04</speed>
  <fix>3d</fix>
</trkpt>
<trkpt lat="-27.2737716" lon="151.2899042">
  <ele>346.74</ele>
  <time>2026-09-01T19:58:39Z</time>
  <course>103.89</course>
  <speed>0.04</speed>
  <fix>3d</fix>
</trkpt>
<trkpt lat="-27.2737717" lon="151.289904">
  <ele>346.78</ele>
  <time>2026-09-01T19:58:39Z</time>
  <course>154.33</course>
  <speed>0.03</speed>
  <fix>3d</fix>
</trkpt>
<trkpt lat="-27.2737716" lon="151.2899042">
  <ele>346.69</ele>
  <time>2026-09-01T19:58:39Z</time>
  <course>103.86</course>
  <speed>0.04</speed>
  <fix>3d</fix>
</trkpt>
<trkpt lat="-27.2737717" lon="151.289904">
  <ele>346.78</ele>
  <time>2026-09-01T19:58:39Z</time>
  <course>154.33</course>
  <speed>0.03</speed>
  <fix>3d</fix>
</trkpt>
<trkpt lat="-27.2737716" lon="151.2899042">
  <ele>346.64</ele>
  <time>2026-09-01T19:58:39Z</time>
  <course>103.84</course>
  <speed>0.04</speed>
  <fix>3d</fix>
</trkpt>
<trkpt lat="-27.2737718" lon="151.289904">
  <ele>346.68</ele>
  <time>2026-09-01T19:58:39Z</time>
  <course>146.86</course>
  <speed>0.02</speed>
  <fix>3d</fix>
</trkpt>
<trkpt lat="-27.2737716" lon="151.2899042">
  <ele>346.59</ele>
  <time>2026-09-01T19:58:39Z</time>
  <course>103.82</course>
  <speed>0.04</speed>
  <fix>3d</fix>
</trkpt>
<trkpt lat="-27.2737718" lon="151.289904">
  <ele>346.68</ele>
  <time>2026-09-01T19:58:39Z</time>
  <course>146.86</course>
  <speed>0.02</speed>
  <fix>3d</fix>
</trkpt>
<trkpt lat="-27.2737716" lon="151.2899043">
  <ele>346.54</ele>
  <time>2026-09-01T19:58:39Z</time>
  <course>103.8</course>
  <speed>0.04</speed>
  <fix>3d</fix>
</trkpt>
<trkpt lat="-27.2737718" lon="151.289904">
  <ele>346.57</ele>
  <time>2026-09-01T19:58:39Z</time>
  <course>138.25</course>
  <speed>0.02</speed>
  <fix>3d</fix>
</trkpt>
<trkpt lat="-27.2737716" lon="151.2899043">
  <ele>346.49</ele>
  <time>2026-09-01T19:58:39Z</time>
  <course>103.79</course>
  <speed>0.04</speed>
  <fix>3d</fix>
</trkpt>
<trkpt lat="-27.2737718" lon="151.289904">
  <ele>346.57</ele>
  <time>2026-09-01T19:58:39Z</time>
  <course>138.25</course>
  <speed>0.02</speed>
  <fix>3d</fix>
</trkpt>
<trkpt lat="-27.2737716" lon="151.2899043">
  <ele>346.44</ele>
  <time>2026-09-01T19:58:39Z</time>
  <course>103.76</course>
  <speed>0.04</speed>
  <fix>3d</fix>
</trkpt>
<trkpt lat="-27.2737719" lon="151.2899041">
  <ele>346.47</ele>
  <time>2026-09-01T19:58:39Z</time>
  <course>129.31</course>
  <speed>0.02</speed>
  <fix>3d</fix>
</trkpt>
<trkpt lat="-27.2737717" lon="151.2899043">
  <ele>346.39</ele>
  <time>2026-09-01T19:58:39Z</time>
  <course>103.74</course>
  <speed>0.0412310562561766</speed>
  <fix>3d</fix>
</trkpt>
<trkpt lat="-27.2737719" lon="151.2899041">
  <ele>346.47</ele>
  <time>2026-09-01T19:58:39Z</time>
  <course>129.31</course>
  <speed>0.02</speed>
  <fix>3d</fix>
</trkpt>
<trkpt lat="-27.2737717" lon="151.2899043">
  <ele>346.34</ele>
  <time>2026-09-01T19:58:39Z</time>
  <course>103.72</course>
  <speed>0.0412310562561766</speed>
  <fix>3d</fix>
</trkpt>
<trkpt lat="-27.2737719" lon="151.2899041">
  <ele>346.37</ele>
  <time>2026-09-01T19:58:39Z</time>
  <course>118.87</course>
  <speed>0.01</speed>
  <fix>3d</fix>
</trkpt>
<trkpt lat="-27.2737717" lon="151.2899043">
  <ele>346.29</ele>
  <time>2026-09-01T19:58:39Z</time>
  <course>103.7</course>
  <speed>0.0412310562561766</speed>
  <fix>3d</fix>
</trkpt>
<trkpt lat="-27.2737719" lon="151.2899041">
  <ele>346.37</ele>
  <time>2026-09-01T19:58:39Z</time>
  <course>118.87</course>
  <speed>0.01</speed>
  <fix>3d</fix>
</trkpt>
<trkpt lat="-27.2737717" lon="151.2899044">
  <ele>346.24</ele>
  <time>2026-09-01T19:58:39Z</time>
  <course>103.69</course>
  <speed>0.0316227766016838</speed>
  <fix>3d</fix>
</trkpt>
<trkpt lat="-27.2737719" lon="151.2899041">
  <ele>346.27</ele>
  <time>2026-09-01T19:58:39Z</time>
  <course>105.43</course>
  <speed>0.01</speed>
  <fix>3d</fix>
</trkpt>
<trkpt lat="-27.2737717" lon="151.2899044">
  <ele>346.19</ele>
  <time>2026-09-01T19:58:39Z</time>
  <course>103.67</course>
  <speed>0.0316227766016838</speed>
  <fix>3d</fix>
</trkpt>
<trkpt lat="-27.2737719" lon="151.2899041">
  <ele>346.27</ele>
  <time>2026-09-01T19:58:39Z</time>
  <course>105.43</course>
  <speed>0.01</speed>
  <fix>3d</fix>
</trkpt>
<trkpt lat="-27.2737717" lon="151.2899044">
  <ele>346.14</ele>
  <time>2026-09-01T19:58:39Z</time>
  <course>103.66</course>
  <speed>0.0316227766016838</speed>
  <fix>3d</fix>
</trkpt>
<trkpt lat="-27.2737719" lon="151.2899041">
  <ele>346.16</ele>
  <time>2026-09-01T19:58:39Z</time>
  <course>90.16</course>
  <speed>0.01</speed>
  <fix>3d</fix>
</trkpt>
<trkpt lat="-27.2737717" lon="151.2899044">
  <ele>346.09</ele>
  <time>2026-09-01T19:58:39Z</time>
  <course>103.64</course>
  <speed>0.0316227766016838</speed>
  <fix>3d</fix>
</trkpt>
<trkpt lat="-27.2737719" lon="151.2899041">
  <ele>346.16</ele>
  <time>2026-09-01T19:58:39Z</time>
  <course>90.16</course>
  <speed>0.01</speed>
  <fix>3d</fix>
</trkpt>
<trkpt lat="-27.2737717" lon="151.2899044">
  <ele>346.04</ele>
  <time>2026-09-01T19:58:39Z</time>
  <course>103.61</course>
  <speed>0.03605551275463989</speed>
  <fix>3d</fix>
</trkpt>
<trkpt lat="-27.2737719" lon="151.2899042">
  <ele>346.07</ele>
  <time>2026-09-01T19:58:39Z</time>
  <course>74.06</course>
  <speed>0.01</speed>
  <fix>3d</fix>
</trkpt>
<trkpt lat="-27.2737717" lon="151.2899044">
  <ele>345.99</ele>
  <time>2026-09-01T19:58:39Z</time>
  <course>103.58</course>
  <speed>0.03605551275463989</speed>
  <fix>3d</fix>
</trkpt>
<trkpt lat="-27.2737719" lon="151.2899042">
  <ele>346.07</ele>
  <time>2026-09-01T19:58:39Z</time>
  <course>74.06</course>
  <speed>0.01</speed>
  <fix>3d</fix>
</trkpt>
<trkpt lat="-27.2737717" lon="151.2899044">
  <ele>345.94</ele>
  <time>2026-09-01T19:58:39Z</time>
  <course>103.55</course>
  <speed>0.03605551275463989</speed>
  <fix>3d</fix>
</trkpt>
<trkpt lat="-27.2737719" lon="151.2899042">
  <ele>345.97</ele>
  <time>2026-09-01T19:58:39Z</time>
  <course>56.26</course>
  <speed>0.0</speed>
  <fix>3d</fix>
</trkpt>
<trkpt lat="-27.2737717" lon="151.2899044">
  <ele>345.89</ele>
  <time>2026-09-01T19:58:39Z</time>
  <course>103.52</course>
  <speed>0.03605551275463989</speed>
  <fix>3d</fix>
</trkpt>
<trkpt lat="-27.2737719" lon="151.2899042">
  <ele>345.97</ele>
  <time>2026-09-01T19:58:39Z</time>
  <course>56.26</course>
  <speed>0.0</speed>
  <fix>3d</fix>
</trkpt>
<trkpt lat="-27.2737717" lon="151.2899044">
  <ele>345.84</ele>
  <time>2026-09-01T19:58:39Z</time>
  <course>103.5</course>
  <speed>0.03605551275463989</speed>
  <fix>3d</fix>
</trkpt>
<trkpt lat="-27.2737719" lon="151.2899042">
  <ele>345.87</ele>
  <time>2026-09-01T19:58:39Z</time>
  <course>39.4</course>
  <speed>0.0</speed>
  <fix>3d</fix>
</trkpt>
<trkpt lat="-27.2737717" lon="151.2899044">
  <ele>345.79</ele>
  <time>2026-09-01T19:58:39Z</time>
  <course>103.47</course>
  <speed>0.03605551275463989</speed>
  <fix>3d</fix>
</trkpt>
<trkpt lat="-27.2737719" lon="151.2899042">
  <ele>345.87</ele>
  <time>2026-09-01T19:58:39Z</time>
  <course>39.4</course>
  <speed>0.0</speed>
  <fix>3d</fix>
</trkpt>
<trkpt lat="-27.2737717" lon="151.2899044">
  <ele>345.74</ele>
  <time>2026-09-01T19:58:39Z</time>
  <course>103.45</course>
  <speed>0.03605551275463989</speed>
  <fix>3d</fix>
</trkpt>
<trkpt lat="-27.2737719" lon="151.2899042">
  <ele>345.77</ele>
  <time>2026-09-01T19:58:39Z</time>
  <course>25.5</course>
  <speed>0.0</speed>
  <fix>3d</fix>
</trkpt>
<trkpt lat="-27.2737717" lon="151.2899044">
  <ele>345.69</ele>
  <time>2026-09-01T19:58:39Z</time>
  <course>103.43</course>
  <speed>0.03605551275463989</speed>
  <fix>3d</fix>
</trkpt>
<trkpt lat="-27.2737719" lon="151.2899042">
  <ele>345.77</ele>
  <time>2026-09-01T19:58:39Z</time>
  <course>25.5</course>
  <speed>0.0</speed>
  <fix>3d</fix>
</trkpt>
<trkpt lat="-27.2737717" lon="151.2899044">
  <ele>345.64</ele>
  <time>2026-09-01T19:58:39Z</time>
  <course>103.41</course>
  <speed>0.0282842712474619</speed>
  <fix>3d</fix>
</trkpt>
<trkpt lat="-27.2737719" lon="151.2899042">
  <ele>345.66</ele>
  <time>2026-09-01T19:58:39Z</time>
  <course>14.8</course>
  <speed>0.0</speed>
  <fix>3d</fix>
</trkpt>
<trkpt lat="-27.2737717" lon="151.2899044">
  <ele>345.59</ele>
  <time>2026-09-01T19:58:39Z</time>
  <course>103.39</course>
  <speed>0.0282842712474619</speed>
  <fix>3d</fix>
</trkpt>
<trkpt lat="-27.2737719" lon="151.2899042">
  <ele>345.66</ele>
  <time>2026-09-01T19:58:39Z</time>
  <course>14.8</course>
  <speed>0.0</speed>
  <fix>3d</fix>
</trkpt>
<trkpt lat="-27.2737717" lon="151.2899044">
  <ele>345.54</ele>
  <time>2026-09-01T19:58:39Z</time>
  <course>103.38</course>
  <speed>0.0282842712474619</speed>
  <fix>3d</fix>
</trkpt>
<trkpt lat="-27.2737719" lon="151.2899042">
  <ele>345.57</ele>
  <time>2026-09-01T19:58:39Z</time>
  <course>4.97</course>
  <speed>0.01</speed>
  <fix>3d</fix>
</trkpt>
<trkpt lat="-27.2737717" lon="151.2899044">
  <ele>345.49</ele>
  <time>2026-09-01T19:58:39Z</time>
  <course>103.37</course>
  <speed>0.0282842712474619</speed>
  <fix>3d</fix>
</trkpt>
<trkpt lat="-27.2737719" lon="151.2899042">
  <ele>345.57</ele>
  <time>2026-09-01T19:58:39Z</time>
  <course>4.97</course>
  <speed>0.01</speed>
  <fix>3d</fix>
</trkpt>
<trkpt lat="-27.2737717" lon="151.2899044">
  <ele>345.44</ele>
  <time>2026-09-01T19:58:39Z</time>
  <course>103.37</course>
  <speed>0.0282842712474619</speed>
  <fix>3d</fix>
</trkpt>
<trkpt lat="-27.2737719" lon="151.2899042">
  <ele>345.47</ele>
  <time>2026-09-01T19:58:39Z</time>
  <course>353.13</course>
  <speed>0.01</speed>
  <fix>3d</fix>
</trkpt>
<trkpt lat="-27.2737717" lon="151.2899044">
  <ele>345.39</ele>
  <time>2026-09-01T19:58:39Z</time>
  <course>103.36</course>
  <speed>0.0282842712474619</speed>
  <fix>3d</fix>
</trkpt>
<trkpt lat="-27.2737719" lon="151.2899042">
  <ele>345.47</ele>
  <time>2026-09-01T19:58:39Z</time>
  <course>353.13</course>
  <speed>0.01</speed>
  <fix>3d</fix>
</trkpt>
<trkpt lat="-27.2737717" lon="151.2899044">
  <ele>345.34</ele>
  <time>2026-09-01T19:58:39Z</time>
  <course>103.36</course>
  <speed>0.0282842712474619</speed>
  <fix>3d</fix>
</trkpt>
<trkpt lat="-27.2737719" lon="151.2899042">
  <ele>345.37</ele>
  <time>2026-09-01T19:58:39Z</time>
  <course>340.3</course>
  <speed>0.01</speed>
  <fix>3d</fix>
</trkpt>
<trkpt lat="-27.2737717" lon="151.2899044">
  <ele>345.29</ele>
  <time>2026-09-01T19:58:39Z</time>
  <course>103.35</course>
  <speed>0.0282842712474619</speed>
  <fix>3d</fix>
</trkpt>
<trkpt lat="-27.2737719" lon="151.2899042">
  <ele>345.37</ele>
  <time>2026-09-01T19:58:39Z</time>
  <course>340.3</course>
  <speed>0.01</speed>
  <fix>3d</fix>
</trkpt>
<trkpt lat="-27.2737717" lon="151.2899044">
  <ele>345.24</ele>
  <time>2026-09-01T19:58:39Z</time>
  <course>103.35</course>
  <speed>0.022360679774997897</speed>
  <fix>3d</fix>
</trkpt>
<trkpt lat="-27.2737719" lon="151.2899042">
  <ele>345.27</ele>
  <time>2026-09-01T19:58:39Z</time>
  <course>328.92</course>
  <speed>0.01</speed>
  <fix>3d</fix>
</trkpt>
<trkpt lat="-27.2737717" lon="151.2899044">
  <ele>345.19</ele>
  <time>2026-09-01T19:58:39Z</time>
  <course>103.34</course>
  <speed>0.022360679774997897</speed>
  <fix>3d</fix>
</trkpt>
<trkpt lat="-27.2737719" lon="151.2899042">
  <ele>345.27</ele>
  <time>2026-09-01T19:58:39Z</time>
  <course>328.92</course>
  <speed>0.01</speed>
  <fix>3d</fix>
</trkpt>
<trkpt lat="-27.2737717" lon="151.2899044">
  <ele>345.14</ele>
  <time>2026-09-01T19:58:39Z</time>
  <course>103.33</course>
  <speed>0.01414213562373095</speed>
  <fix>3d</fix>
</trkpt>
<trkpt lat="-27.2737718" lon="151.2899042">
  <ele>345.16</ele>
  <time>2026-09-01T19:58:39Z</time>
  <course>319.37</course>
  <speed>0.01</speed>
  <fix>3d</fix>
</trkpt>
<trkpt lat="-27.2737717" lon="151.2899044">
  <ele>345.09</ele>
  <time>2026-09-01T19:58:39Z</time>
  <course>103.32</course>
  <speed>0.01414213562373095</speed>
  <fix>3d</fix>
</trkpt>
<trkpt lat="-27.2737718" lon="151.2899042">
  <ele>345.16</ele>
  <time>2026-09-01T19:58:39Z</time>
  <course>319.37</course>
  <speed>0.01</speed>
  <fix>3d</fix>
</trkpt>
<trkpt lat="-27.2737717" lon="151.2899044">
  <ele>345.03</ele>
  <time>2026-09-01T19:58:39Z</time>
  <course>103.31</course>
  <speed>0.01414213562373095</speed>
  <fix>3d</fix>
</trkpt>
<trkpt lat="-27.2737718" lon="151.2899042">
  <ele>345.07</ele>
  <time>2026-09-01T19:58:39Z</time>
  <course>311.3</course>
  <speed>0.01</speed>
  <fix>3d</fix>
</trkpt>
<trkpt lat="-27.2737717" lon="151.2899044">
  <ele>344.98</ele>
  <time>2026-09-01T19:58:39Z</time>
  <course>103.29</course>
  <speed>0.01414213562373095</speed>
  <fix>3d</fix>
</trkpt>
<trkpt lat="-27.2737718" lon="151.2899042">
  <ele>345.07</ele>
  <time>2026-09-01T19:58:39Z</time>
  <course>311.3</course>
  <speed>0.01</speed>
  <fix>3d</fix>
</trkpt>
<trkpt lat="-27.2737717" lon="151.2899044">
  <ele>344.93</ele>
  <time>2026-09-01T19:58:39Z</time>
  <course>103.28</course>
  <speed>0.01414213562373095</speed>
  <fix>3d</fix>
</trkpt>
<trkpt lat="-27.2737718" lon="151.2899042">
  <ele>344.97</ele>
  <time>2026-09-01T19:58:39Z</time>
  <course>304.86</course>
  <speed>0.01</speed>
  <fix>3d</fix>
</trkpt>
<trkpt lat="-27.2737717" lon="151.2899044">
  <ele>344.88</ele>
  <time>2026-09-01T19:58:39Z</time>
  <course>103.27</course>
  <speed>0.01414213562373095</speed>
  <fix>3d</fix>
</trkpt>
<trkpt lat="-27.2737718" lon="151.2899042">
  <ele>344.97</ele>
  <time>2026-09-01T19:58:39Z</time>
  <course>304.86</course>
  <speed>0.01</speed>
  <fix>3d</fix>
</trkpt>
<trkpt lat="-27.2737717" lon="151.2899044">
  <ele>344.83</ele>
  <time>2026-09-01T19:58:39Z</time>
  <course>103.27</course>
  <speed>0.01414213562373095</speed>
  <fix>3d</fix>
</trkpt>
<trkpt lat="-27.2737718" lon="151.2899042">
  <ele>344.87</ele>
  <time>2026-09-01T19:58:39Z</time>
  <course>301.53</course>
  <speed>0.01</speed>
  <fix>3d</fix>
</trkpt>
<trkpt lat="-27.2737717" lon="151.2899044">
  <ele>344.78</ele>
  <time>2026-09-01T19:58:39Z</time>
  <course>103.27</course>
  <speed>0.01414213562373095</speed>
  <fix>3d</fix>
</trkpt>
<trkpt lat="-27.2737718" lon="151.2899042">
  <ele>344.87</ele>
  <time>2026-09-01T19:58:39Z</time>
  <course>301.53</course>
  <speed>0.01</speed>
  <fix>3d</fix>
</trkpt>
<trkpt lat="-27.2737717" lon="151.2899044">
  <ele>344.73</ele>
  <time>2026-09-01T19:58:39Z</time>
  <course>103.27</course>
  <speed>0.01414213562373095</speed>
  <fix>3d</fix>
</trkpt>
<trkpt lat="-27.2737718" lon="151.2899042">
  <ele>344.77</ele>
  <time>2026-09-01T19:58:39Z</time>
  <course>300.85</course>
  <speed>0.01</speed>
  <fix>3d</fix>
</trkpt>
<trkpt lat="-27.2737717" lon="151.2899044">
  <ele>344.68</ele>
  <time>2026-09-01T19:58:39Z</time>
  <course>103.28</course>
  <speed>0.01414213562373095</speed>
  <fix>3d</fix>
</trkpt>
<trkpt lat="-27.2737718" lon="151.2899042">
  <ele>344.77</ele>
  <time>2026-09-01T19:58:39Z</time>
  <course>300.85</course>
  <speed>0.01</speed>
  <fix>3d</fix>
</trkpt>
<trkpt lat="-27.2737717" lon="151.2899044">
  <ele>344.64</ele>
  <time>2026-09-01T19:58:39Z</time>
  <course>103.29</course>
  <speed>0.01414213562373095</speed>
  <fix>3d</fix>
</trkpt>
<trkpt lat="-27.2737718" lon="151.2899042">
  <ele>344.66</ele>
  <time>2026-09-01T19:58:39Z</time>
  <course>301.99</course>
  <speed>0.01</speed>
  <fix>3d</fix>
</trkpt>
<trkpt lat="-27.2737717" lon="151.2899044">
  <ele>344.59</ele>
  <time>2026-09-01T19:58:39Z</time>
  <course>103.3</course>
  <speed>0.01414213562373095</speed>
  <fix>3d</fix>
</trkpt>
<trkpt lat="-27.2737718" lon="151.2899042">
  <ele>344.66</ele>
  <time>2026-09-01T19:58:39Z</time>
  <course>301.99</course>
  <speed>0.01</speed>
  <fix>3d</fix>
</trkpt>
<trkpt lat="-27.2737717" lon="151.2899044">
  <ele>344.54</ele>
  <time>2026-09-01T19:58:39Z</time>
  <course>103.31</course>
  <speed>0.022360679774997897</speed>
  <fix>3d</fix>
</trkpt>
<trkpt lat="-27.2737718" lon="151.2899042">
  <ele>344.57</ele>
  <time>2026-09-01T19:58:39Z</time>
  <course>304.48</course>
  <speed>0.01</speed>
  <fix>3d</fix>
</trkpt>
<trkpt lat="-27.2737717" lon="151.2899044">
  <ele>344.49</ele>
  <time>2026-09-01T19:58:39Z</time>
  <course>103.32</course>
  <speed>0.0282842712474619</speed>
  <fix>3d</fix>
</trkpt>
<trkpt lat="-27.2737718" lon="151.2899042">
  <ele>344.57</ele>
  <time>2026-09-01T19:58:39Z</time>
  <course>304.48</course>
  <speed>0.01</speed>
  <fix>3d</fix>
</trkpt>
<trkpt lat="-27.2737717" lon="151.2899044">
  <ele>344.44</ele>
  <time>2026-09-01T19:58:39Z</time>
  <course>103.33</course>
  <speed>0.0282842712474619</speed>
  <fix>3d</fix>
</trkpt>
<trkpt lat="-27.2737717" lon="151.2899041">
  <ele>344.47</ele>
  <time>2026-09-01T19:58:39Z</time>
  <course>308.22</course>
  <speed>0.01</speed>
  <fix>3d</fix>
</trkpt>
<trkpt lat="-27.2737717" lon="151.2899044">
  <ele>344.39</ele>
  <time>2026-09-01T19:58:39Z</time>
  <course>103.34</course>
  <speed>0.0282842712474619</speed>
  <fix>3d</fix>
</trkpt>
<trkpt lat="-27.2737717" lon="151.2899041">
  <ele>344.47</ele>
  <time>2026-09-01T19:58:39Z</time>
  <course>308.22</course>
  <speed>0.01</speed>
  <fix>3d</fix>
</trkpt>
<trkpt lat="-27.2737717" lon="151.2899044">
  <ele>344.33</ele>
  <time>2026-09-01T19:58:39Z</time>
  <course>103.36</course>
  <speed>0.0282842712474619</speed>
  <fix>3d</fix>
</trkpt>
<trkpt lat="-27.2737717" lon="151.2899041">
  <ele>344.37</ele>
  <time>2026-09-01T19:58:39Z</time>
  <course>314.54</course>
  <speed>0.01</speed>
  <fix>3d</fix>
</trkpt>
<trkpt lat="-27.2737717" lon="151.2899044">
  <ele>344.28</ele>
  <time>2026-09-01T19:58:39Z</time>
  <course>103.37</course>
  <speed>0.0282842712474619</speed>
  <fix>3d</fix>
</trkpt>
<trkpt lat="-27.2737717" lon="151.2899041">
  <ele>344.37</ele>
  <time>2026-09-01T19:58:39Z</time>
  <course>314.54</course>
  <speed>0.01</speed>
  <fix>3d</fix>
</trkpt>
<trkpt lat="-27.2737716" lon="151.2899044">
  <ele>344.23</ele>
  <time>2026-09-01T19:58:39Z</time>
  <course>103.37</course>
  <speed>0.0282842712474619</speed>
  <fix>3d</fix>
</trkpt>
<trkpt lat="-27.2737717" lon="151.2899041">
  <ele>344.27</ele>
  <time>2026-09-01T19:58:39Z</time>
  <course>320.9</course>
  <speed>0.01</speed>
  <fix>3d</fix>
</trkpt>
<trkpt lat="-27.2737716" lon="151.2899044">
  <ele>344.18</ele>
  <time>2026-09-01T19:58:39Z</time>
  <course>103.37</course>
  <speed>0.0282842712474619</speed>
  <fix>3d</fix>
</trkpt>
<trkpt lat="-27.2737717" lon="151.2899041">
  <ele>344.27</ele>
  <time>2026-09-01T19:58:39Z</time>
  <course>320.9</course>
  <speed>0.01</speed>
  <fix>3d</fix>
</trkpt>
<trkpt lat="-27.2737716" lon="151.2899044">
  <ele>344.13</ele>
  <time>2026-09-01T19:58:39Z</time>
  <course>103.37</course>
  <speed>0.0282842712474619</speed>
  <fix>3d</fix>
</trkpt>
<trkpt lat="-27.2737717" lon="151.2899041">
  <ele>344.16</ele>
  <time>2026-09-01T19:58:39Z</time>
  <course>324.82</course>
  <speed>0.01</speed>
  <fix>3d</fix>
</trkpt>
<trkpt lat="-27.2737716" lon="151.2899044">
  <ele>344.09</ele>
  <time>2026-09-01T19:58:39Z</time>
  <course>103.36</course>
  <speed>0.0282842712474619</speed>
  <fix>3d</fix>
</trkpt>
<trkpt lat="-27.2737717" lon="151.2899041">
  <ele>344.16</ele>
  <time>2026-09-01T19:58:39Z</time>
  <course>324.82</course>
  <speed>0.01</speed>
  <fix>3d</fix>
</trkpt>
<trkpt lat="-27.2737716" lon="151.2899044">
  <ele>344.04</ele>
  <time>2026-09-01T19:58:39Z</time>
  <course>103.36</course>
  <speed>0.0282842712474619</speed>
  <fix>3d</fix>
</trkpt>
<trkpt lat="-27.2737717" lon="151.2899041">
  <ele>344.07</ele>
  <time>2026-09-01T19:58:39Z</time>
  <course>327.51</course>
  <speed>0.01</speed>
  <fix>3d</fix>
</trkpt>
<trkpt lat="-27.2737716" lon="151.2899044">
  <ele>343.99</ele>
  <time>2026-09-01T19:58:39Z</time>
  <course>103.36</course>
  <speed>0.0282842712474619</speed>
  <fix>3d</fix>
</trkpt>
<trkpt lat="-27.2737717" lon="151.2899041">
  <ele>344.07</ele>
  <time>2026-09-01T19:58:39Z</time>
  <course>327.51</course>
  <speed>0.01</speed>
  <fix>3d</fix>
</trkpt>
<trkpt lat="-27.2737716" lon="151.2899044">
  <ele>343.94</ele>
  <time>2026-09-01T19:58:39Z</time>
  <course>103.36</course>
  <speed>0.0282842712474619</speed>
  <fix>3d</fix>
</trkpt>
<trkpt lat="-27.2737716" lon="151.289904">
  <ele>343.97</ele>
  <time>2026-09-01T19:58:39Z</time>
  <course>329.89</course>
  <speed>0.01</speed>
  <fix>3d</fix>
</trkpt>
<trkpt lat="-27.2737715" lon="151.2899044">
  <ele>343.89</ele>
  <time>2026-09-01T19:58:39Z</time>
  <course>103.36</course>
  <speed>0.0282842712474619</speed>
  <fix>3d</fix>
</trkpt>
<trkpt lat="-27.2737716" lon="151.289904">
  <ele>343.97</ele>
  <time>2026-09-01T19:58:39Z</time>
  <course>329.89</course>
  <speed>0.01</speed>
  <fix>3d</fix>
</trkpt>
<trkpt lat="-27.2737715" lon="151.2899043">
  <ele>343.84</ele>
  <time>2026-09-01T19:58:39Z</time>
  <course>103.36</course>
  <speed>0.03605551275463989</speed>
  <fix>3d</fix>
</trkpt>
<trkpt lat="-27.2737716" lon="151.289904">
  <ele>343.87</ele>
  <time>2026-09-01T19:58:39Z</time>
  <course>332.18</course>
  <speed>0.01</speed>
  <fix>3d</fix>
</trkpt>
<trkpt lat="-27.2737715" lon="151.2899043">
  <ele>343.79</ele>
  <time>2026-09-01T19:58:39Z</time>
  <course>103.36</course>
  <speed>0.03605551275463989</speed>
  <fix>3d</fix>
</trkpt>
<trkpt lat="-27.2737716" lon="151.289904">
  <ele>343.87</ele>
  <time>2026-09-01T19:58:39Z</time>
  <course>332.18</course>
  <speed>0.01</speed>
  <fix>3d</fix>
</trkpt>
<trkpt lat="-27.2737715" lon="151.2899043">
  <ele>343.74</ele>
  <time>2026-09-01T19:58:39Z</time>
  <course>103.37</course>
  <speed>0.03605551275463989</speed>
  <fix>3d</fix>
</trkpt>
<trkpt lat="-27.2737716" lon="151.289904">
  <ele>343.77</ele>
  <time>2026-09-01T19:58:39Z</time>
  <course>334.48</course>
  <speed>0.01</speed>
  <fix>3d</fix>
</trkpt>
<trkpt lat="-27.2737715" lon="151.2899043">
  <ele>343.69</ele>
  <time>2026-09-01T19:58:39Z</time>
  <course>103.37</course>
  <speed>0.03605551275463989</speed>
  <fix>3d</fix>
</trkpt>
<trkpt lat="-27.2737716" lon="151.289904">
  <ele>343.77</ele>
  <time>2026-09-01T19:58:39Z</time>
  <course>334.48</course>
  <speed>0.01</speed>
  <fix>3d</fix>
</trkpt>
<trkpt lat="-27.2737715" lon="151.2899043">
  <ele>343.63</ele>
  <time>2026-09-01T19:58:39Z</time>
  <course>103.38</course>
  <speed>0.03605551275463989</speed>
  <fix>3d</fix>
</trkpt>
<trkpt lat="-27.2737715" lon="151.289904">
  <ele>343.66</ele>
  <time>2026-09-01T19:58:39Z</time>
  <course>336.84</course>
  <speed>0.01</speed>
  <fix>3d</fix>
</trkpt>
<trkpt lat="-27.2737714" lon="151.2899043">
  <ele>343.58</ele>
  <time>2026-09-01T19:58:39Z</time>
  <course>103.38</course>
  <speed>0.03605551275463989</speed>
  <fix>3d</fix>
</trkpt>
<trkpt lat="-27.2737715" lon="151.289904">
  <ele>343.66</ele>
  <time>2026-09-01T19:58:39Z</time>
  <course>336.84</course>
  <speed>0.01</speed>
  <fix>3d</fix>
</trkpt>
<trkpt lat="-27.2737714" lon="151.2899043">
  <ele>343.53</ele>
  <time>2026-09-01T19:58:39Z</time>
  <course>103.38</course>
  <speed>0.03605551275463989</speed>
  <fix>3d</fix>
</trkpt>
<trkpt lat="-27.2737715" lon="151.289904">
  <ele>343.57</ele>
  <time>2026-09-01T19:58:39Z</time>
  <course>339.4</course>
  <speed>0.01</speed>
  <fix>3d</fix>
</trkpt>
<trkpt lat="-27.2737714" lon="151.2899043">
  <ele>343.49</ele>
  <time>2026-09-01T19:58:39Z</time>
  <course>103.38</course>
  <speed>0.03605551275463989</speed>
  <fix>3d</fix>
</trkpt>
<trkpt lat="-27.2737715" lon="151.289904">
  <ele>343.57</ele>
  <time>2026-09-01T19:58:39Z</time>
  <course>339.4</course>
  <speed>0.01</speed>
  <fix>3d</fix>
</trkpt>
<trkpt lat="-27.2737714" lon="151.2899043">
  <ele>343.44</ele>
  <time>2026-09-01T19:58:39Z</time>
  <course>103.38</course>
  <speed>0.03605551275463989</speed>
  <fix>3d</fix>
</trkpt>
<trkpt lat="-27.2737715" lon="151.289904">
  <ele>343.47</ele>
  <time>2026-09-01T19:58:39Z</time>
  <course>342.87</course>
  <speed>0.01</speed>
  <fix>3d</fix>
</trkpt>
<trkpt lat="-27.2737714" lon="151.2899043">
  <ele>343.39</ele>
  <time>2026-09-01T19:58:39Z</time>
  <course>103.38</course>
  <speed>0.04242640687119285</speed>
  <fix>3d</fix>
</trkpt>
<trkpt lat="-27.2737715" lon="151.289904">
  <ele>343.47</ele>
  <time>2026-09-01T19:58:39Z</time>
  <course>342.87</course>
  <speed>0.01</speed>
  <fix>3d</fix>
</trkpt>
<trkpt lat="-27.2737714" lon="151.2899043">
  <ele>343.34</ele>
  <time>2026-09-01T19:58:39Z</time>
  <course>103.38</course>
  <speed>0.04242640687119285</speed>
  <fix>3d</fix>
</trkpt>
<trkpt lat="-27.2737714" lon="151.289904">
  <ele>343.38</ele>
  <time>2026-09-01T19:58:39Z</time>
  <course>347.01</course>
  <speed>0.01</speed>
  <fix>3d</fix>
</trkpt>
<trkpt lat="-27.2737713" lon="151.2899043">
  <ele>343.29</ele>
  <time>2026-09-01T19:58:39Z</time>
  <course>103.38</course>
  <speed>0.04242640687119285</speed>
  <fix>3d</fix>
</trkpt>
<trkpt lat="-27.2737714" lon="151.289904">
  <ele>343.38</ele>
  <time>2026-09-01T19:58:39Z</time>
  <course>347.01</course>
  <speed>0.01</speed>
  <fix>3d</fix>
</trkpt>
<trkpt lat="-27.2737713" lon="151.2899043">
  <ele>343.24</ele>
  <time>2026-09-01T19:58:39Z</time>
  <course>103.38</course>
  <speed>0.04242640687119285</speed>
  <fix>3d</fix>
</trkpt>
<trkpt lat="-27.2737714" lon="151.289904">
  <ele>343.28</ele>
  <time>2026-09-01T19:58:39Z</time>
  <course>350.8</course>
  <speed>0.01</speed>
  <fix>3d</fix>
</trkpt>
<trkpt lat="-27.2737713" lon="151.2899043">
  <ele>343.19</ele>
  <time>2026-09-01T19:58:39Z</time>
  <course>103.39</course>
  <speed>0.03605551275463989</speed>
  <fix>3d</fix>
</trkpt>
<trkpt lat="-27.2737714" lon="151.289904">
  <ele>343.28</ele>
  <time>2026-09-01T19:58:39Z</time>
  <course>350.8</course>
  <speed>0.01</speed>
  <fix>3d</fix>
</trkpt>
<trkpt lat="-27.2737713" lon="151.2899043">
  <ele>343.14</ele>
  <time>2026-09-01T19:58:39Z</time>
  <course>103.39</course>
  <speed>0.03605551275463989</speed>
  <fix>3d</fix>
</trkpt>
<trkpt lat="-27.2737714" lon="151.289904">
  <ele>343.18</ele>
  <time>2026-09-01T19:58:39Z</time>
  <course>354.06</course>
  <speed>0.01</speed>
  <fix>3d</fix>
</trkpt>
<trkpt lat="-27.2737713" lon="151.2899043">
  <ele>343.12</ele>
  <time>2026-09-01T19:58:39Z</time>
  <course>103.39</course>
  <speed>0.0316227766016838</speed>
  <fix>3d</fix>
</trkpt>
<trkpt lat="-27.2737714" lon="151.289904">
  <ele>343.18</ele>
  <time>2026-09-01T19:58:39Z</time>
  <course>354.06</course>
  <speed>0.01</speed>
  <fix>3d</fix>
</trkpt>
<trkpt lat="-27.2737713" lon="151.2899043">
  <ele>343.13</ele>
  <time>2026-09-01T19:58:39Z</time>
  <course>103.39</course>
  <speed>0.0316227766016838</speed>
  <fix>3d</fix>
</trkpt>
<trkpt lat="-27.2737714" lon="151.289904">
  <ele>343.09</ele>
  <time>2026-09-01T19:58:39Z</time>
  <course>355.69</course>
  <speed>0.0</speed>
  <fix>3d</fix>
</trkpt>
<trkpt lat="-27.2737713" lon="151.2899043">
  <ele>343.14</ele>
  <time>2026-09-01T19:58:39Z</time>
  <course>103.39</course>
  <speed>0.0316227766016838</speed>
  <fix>3d</fix>
</trkpt>
<trkpt lat="-27.2737714" lon="151.289904">
  <ele>343.09</ele>
  <time>2026-09-01T19:58:39Z</time>
  <course>355.69</course>
  <speed>0.0</speed>
  <fix>3d</fix>
</trkpt>
<trkpt lat="-27.2737713" lon="151.2899043">
  <ele>343.15</ele>
  <time>2026-09-01T19:58:39Z</time>
  <course>103.39</course>
  <speed>0.0316227766016838</speed>
  <fix>3d</fix>
</trkpt>
<trkpt lat="-27.2737714" lon="151.289904">
  <ele>343.06</ele>
  <time>2026-09-01T19:58:39Z</time>
  <course>177.06</course>
  <speed>0.0</speed>
  <fix>3d</fix>
</trkpt>
<trkpt lat="-27.2737713" lon="151.2899043">
  <ele>343.15</ele>
  <time>2026-09-01T19:58:39Z</time>
  <course>103.39</course>
  <speed>0.0316227766016838</speed>
  <fix>3d</fix>
</trkpt>
<trkpt lat="-27.2737714" lon="151.289904">
  <ele>343.06</ele>
  <time>2026-09-01T19:58:39Z</time>
  <course>177.06</course>
  <speed>0.0</speed>
  <fix>3d</fix>
</trkpt>
<trkpt lat="-27.2737713" lon="151.2899043">
  <ele>343.14</ele>
  <time>2026-09-01T19:58:39Z</time>
  <course>103.39</course>
  <speed>0.0316227766016838</speed>
  <fix>3d</fix>
</trkpt>
<trkpt lat="-27.2737714" lon="151.289904">
  <ele>343.07</ele>
  <time>2026-09-01T19:58:39Z</time>
  <course>177.05</course>
  <speed>0.0</speed>
  <fix>3d</fix>
</trkpt>
<trkpt lat="-27.2737713" lon="151.2899043">
  <ele>343.14</ele>
  <time>2026-09-01T19:58:39Z</time>
  <course>103.39</course>
  <speed>0.0316227766016838</speed>
  <fix>3d</fix>
</trkpt>
<trkpt lat="-27.2737714" lon="151.289904">
  <ele>343.07</ele>
  <time>2026-09-01T19:58:39Z</time>
  <course>177.05</course>
  <speed>0.0</speed>
  <fix>3d</fix>
</trkpt>
<trkpt lat="-27.2737713" lon="151.2899043">
  <ele>343.14</ele>
  <time>2026-09-01T19:58:39Z</time>
  <course>103.39</course>
  <speed>0.0316227766016838</speed>
  <fix>3d</fix>
</trkpt>
<trkpt lat="-27.2737714" lon="151.289904">
  <ele>343.08</ele>
  <time>2026-09-01T19:58:39Z</time>
  <course>357.05</course>
  <speed>0.0</speed>
  <fix>3d</fix>
</trkpt>
<trkpt lat="-27.2737713" lon="151.2899043">
  <ele>343.14</ele>
  <time>2026-09-01T19:58:39Z</time>
  <course>103.39</course>
  <speed>0.0316227766016838</speed>
  <fix>3d</fix>
</trkpt>
<trkpt lat="-27.2737714" lon="151.289904">
  <ele>343.08</ele>
  <time>2026-09-01T19:58:39Z</time>
  <course>357.05</course>
  <speed>0.0</speed>
  <fix>3d</fix>
</trkpt>
<trkpt lat="-27.2737713" lon="151.2899043">
  <ele>343.14</ele>
  <time>2026-09-01T19:58:39Z</time>
  <course>103.39</course>
  <speed>0.0316227766016838</speed>
  <fix>3d</fix>
</trkpt>
<trkpt lat="-27.2737714" lon="151.289904">
  <ele>343.08</ele>
  <time>2026-09-01T19:58:39Z</time>
  <course>357.05</course>
  <speed>0.0</speed>
  <fix>3d</fix>
</trkpt>
<trkpt lat="-27.2737713" lon="151.2899043">
  <ele>343.14</ele>
  <time>2026-09-01T19:58:39Z</time>
  <course>103.38</course>
  <speed>0.0316227766016838</speed>
  <fix>3d</fix>
</trkpt>
<trkpt lat="-27.2737714" lon="151.289904">
  <ele>343.08</ele>
  <time>2026-09-01T19:58:39Z</time>
  <course>357.05</course>
  <speed>0.0</speed>
  <fix>3d</fix>
</trkpt>
<trkpt lat="-27.2737713" lon="151.2899043">
  <ele>343.14</ele>
  <time>2026-09-01T19:58:39Z</time>
  <course>103.38</course>
  <speed>0.0316227766016838</speed>
  <fix>3d</fix>
</trkpt>
<trkpt lat="-27.2737714" lon="151.289904">
  <ele>343.08</ele>
  <time>2026-09-01T19:58:39Z</time>
  <course>177.07</course>
  <speed>0.0</speed>
  <fix>3d</fix>
</trkpt>
<trkpt lat="-27.2737713" lon="151.2899043">
  <ele>343.14</ele>
  <time>2026-09-01T19:58:39Z</time>
  <course>103.38</course>
  <speed>0.0316227766016838</speed>
  <fix>3d</fix>
</trkpt>
<trkpt lat="-27.2737714" lon="151.289904">
  <ele>343.08</ele>
  <time>2026-09-01T19:58:39Z</time>
  <course>177.07</course>
  <speed>0.0</speed>
  <fix>3d</fix>
</trkpt>
<trkpt lat="-27.2737713" lon="151.2899043">
  <ele>343.15</ele>
  <time>2026-09-01T19:58:39Z</time>
  <course>103.38</course>
  <speed>0.0316227766016838</speed>
  <fix>3d</fix>
</trkpt>
<trkpt lat="-27.2737714" lon="151.289904">
  <ele>343.08</ele>
  <time>2026-09-01T19:58:39Z</time>
  <course>177.09</course>
  <speed>0.0</speed>
  <fix>3d</fix>
</trkpt>
<trkpt lat="-27.2737713" lon="151.2899043">
  <ele>343.15</ele>
  <time>2026-09-01T19:58:39Z</time>
  <course>103.38</course>
  <speed>0.0316227766016838</speed>
  <fix>3d</fix>
</trkpt>
<trkpt lat="-27.2737714" lon="151.289904">
  <ele>343.08</ele>
  <time>2026-09-01T19:58:39Z</time>
  <course>177.09</course>
  <speed>0.0</speed>
  <fix>3d</fix>
</trkpt>
<trkpt lat="-27.2737713" lon="151.2899043">
  <ele>343.15</ele>
  <time>2026-09-01T19:58:39Z</time>
  <course>103.38</course>
  <speed>0.0316227766016838</speed>
  <fix>3d</fix>
</trkpt>
<trkpt lat="-27.2737714" lon="151.289904">
  <ele>343.08</ele>
  <time>2026-09-01T19:58:39Z</time>
  <course>356.99</course>
  <speed>0.0</speed>
  <fix>3d</fix>
</trkpt>
<trkpt lat="-27.2737713" lon="151.2899043">
  <ele>343.15</ele>
  <time>2026-09-01T19:58:39Z</time>
  <course>103.38</course>
  <speed>0.0316227766016838</speed>
  <fix>3d</fix>
</trkpt>
<trkpt lat="-27.2737714" lon="151.289904">
  <ele>343.08</ele>
  <time>2026-09-01T19:58:39Z</time>
  <course>356.99</course>
  <speed>0.0</speed>
  <fix>3d</fix>
</trkpt>
<trkpt lat="-27.2737713" lon="151.2899043">
  <ele>343.15</ele>
  <time>2026-09-01T19:58:39Z</time>
  <course>103.38</course>
  <speed>0.0316227766016838</speed>
  <fix>3d</fix>
</trkpt>
<trkpt lat="-27.2737714" lon="151.289904">
  <ele>343.08</ele>
  <time>2026-09-01T19:58:39Z</time>
  <course>355.73</course>
  <speed>0.0</speed>
  <fix>3d</fix>
</trkpt>
<trkpt lat="-27.2737713" lon="151.2899043">
  <ele>343.15</ele>
  <time>2026-09-01T19:58:39Z</time>
  <course>103.38</course>
  <speed>0.0316227766016838</speed>
  <fix>3d</fix>
</trkpt>
<trkpt lat="-27.2737714" lon="151.289904">
  <ele>343.08</ele>
  <time>2026-09-01T19:58:39Z</time>
  <course>355.73</course>
  <speed>0.0</speed>
  <fix>3d</fix>
</trkpt>
<trkpt lat="-27.2737713" lon="151.2899043">
  <ele>343.15</ele>
  <time>2026-09-01T19:58:39Z</time>
  <course>103.38</course>
  <speed>0.0316227766016838</speed>
  <fix>3d</fix>
</trkpt>
<trkpt lat="-27.2737714" lon="151.289904">
  <ele>343.08</ele>
  <time>2026-09-01T19:58:39Z</time>
  <course>177.71</course>
  <speed>0.0</speed>
  <fix>3d</fix>
</trkpt>
<trkpt lat="-27.2737713" lon="151.2899043">
  <ele>343.15</ele>
  <time>2026-09-01T19:58:39Z</time>
  <course>103.38</course>
  <speed>0.0316227766016838</speed>
  <fix>3d</fix>
</trkpt>
<trkpt lat="-27.2737714" lon="151.289904">
  <ele>343.08</ele>
  <time>2026-09-01T19:58:39Z</time>
  <course>177.71</course>
  <speed>0.0</speed>
  <fix>3d</fix>
</trkpt>
<trkpt lat="-27.2737713" lon="151.2899043">
  <ele>343.15</ele>
  <time>2026-09-01T19:58:39Z</time>
  <course>103.38</course>
  <speed>0.0316227766016838</speed>
  <fix>3d</fix>
</trkpt>
<trkpt lat="-27.2737714" lon="151.289904">
  <ele>343.08</ele>
  <time>2026-09-01T19:58:39Z</time>
  <course>298.96</course>
  <speed>0.0</speed>
  <fix>3d</fix>
</trkpt>
<trkpt lat="-27.2737713" lon="151.2899043">
  <ele>343.15</ele>
  <time>2026-09-01T19:58:39Z</time>
  <course>103.38</course>
  <speed>0.0316227766016838</speed>
  <fix>3d</fix>
</trkpt>
<trkpt lat="-27.2737714" lon="151.289904">
  <ele>343.08</ele>
  <time>2026-09-01T19:58:39Z</time>
  <course>298.96</course>
  <speed>0.0</speed>
  <fix>3d</fix>
</trkpt>
<trkpt lat="-27.2737713" lon="151.2899043">
  <ele>343.15</ele>
  <time>2026-09-01T19:58:39Z</time>
  <course>103.38</course>
  <speed>0.0316227766016838</speed>
  <fix>3d</fix>
</trkpt>
<trkpt lat="-27.2737714" lon="151.289904">
  <ele>343.08</ele>
  <time>2026-09-01T19:58:39Z</time>
  <course>354.1</course>
  <speed>0.0</speed>
  <fix>3d</fix>
</trkpt>
<trkpt lat="-27.2737713" lon="151.2899043">
  <ele>343.15</ele>
  <time>2026-09-01T19:58:39Z</time>
  <course>103.38</course>
  <speed>0.0316227766016838</speed>
  <fix>3d</fix>
</trkpt>
<trkpt lat="-27.2737714" lon="151.289904">
  <ele>343.08</ele>
  <time>2026-09-01T19:58:39Z</time>
  <course>354.1</course>
  <speed>0.0</speed>
  <fix>3d</fix>
</trkpt>
<trkpt lat="-27.2737713" lon="151.2899043">
  <ele>343.16</ele>
  <time>2026-09-01T19:58:39Z</time>
  <course>103.38</course>
  <speed>0.0316227766016838</speed>
  <fix>3d</fix>
</trkpt>
<trkpt lat="-27.2737714" lon="151.289904">
  <ele>343.08</ele>
  <time>2026-09-01T19:58:39Z</time>
  <course>358.81</course>
  <speed>0.0</speed>
  <fix>3d</fix>
</trkpt>
<trkpt lat="-27.2737713" lon="151.2899043">
  <ele>343.16</ele>
  <time>2026-09-01T19:58:39Z</time>
  <course>103.38</course>
  <speed>0.0316227766016838</speed>
  <fix>3d</fix>
</trkpt>
<trkpt lat="-27.2737714" lon="151.289904">
  <ele>343.08</ele>
  <time>2026-09-01T19:58:39Z</time>
  <course>358.81</course>
  <speed>0.0</speed>
  <fix>3d</fix>
</trkpt>
<trkpt lat="-27.2737713" lon="151.2899043">
  <ele>343.16</ele>
  <time>2026-09-01T19:58:39Z</time>
  <course>103.38</course>
  <speed>0.0316227766016838</speed>
  <fix>3d</fix>
</trkpt>
<trkpt lat="-27.2737714" lon="151.289904">
  <ele>343.08</ele>
  <time>2026-09-01T19:58:39Z</time>
  <course>359.21</course>
  <speed>0.0</speed>
  <fix>3d</fix>
</trkpt>
<trkpt lat="-27.2737713" lon="151.2899043">
  <ele>343.16</ele>
  <time>2026-09-01T19:58:39Z</time>
  <course>103.38</course>
  <speed>0.0316227766016838</speed>
  <fix>3d</fix>
</trkpt>
<trkpt lat="-27.2737714" lon="151.289904">
  <ele>343.08</ele>
  <time>2026-09-01T19:58:39Z</time>
  <course>359.21</course>
  <speed>0.0</speed>
  <fix>3d</fix>
</trkpt>
<trkpt lat="-27.2737713" lon="151.2899043">
  <ele>343.16</ele>
  <time>2026-09-01T19:58:39Z</time>
  <course>103.38</course>
  <speed>0.0316227766016838</speed>
  <fix>3d</fix>
</trkpt>
<trkpt lat="-27.2737714" lon="151.289904">
  <ele>343.08</ele>
  <time>2026-09-01T19:58:39Z</time>
  <course>358.35</course>
  <speed>0.0</speed>
  <fix>3d</fix>
</trkpt>
<trkpt lat="-27.2737713" lon="151.2899043">
  <ele>343.16</ele>
  <time>2026-09-01T19:58:39Z</time>
  <course>103.38</course>
  <speed>0.0316227766016838</speed>
  <fix>3d</fix>
</trkpt>
<trkpt lat="-27.2737714" lon="151.289904">
  <ele>343.08</ele>
  <time>2026-09-01T19:58:39Z</time>
  <course>358.35</course>
  <speed>0.0</speed>
  <fix>3d</fix>
</trkpt>
<trkpt lat="-27.2737713" lon="151.2899043">
  <ele>343.16</ele>
  <time>2026-09-01T19:58:39Z</time>
  <course>103.38</course>
  <speed>0.0316227766016838</speed>
  <fix>3d</fix>
</trkpt>
<trkpt lat="-27.2737714" lon="151.289904">
  <ele>343.08</ele>
  <time>2026-09-01T19:58:39Z</time>
  <course>9.67</course>
  <speed>0.0</speed>
  <fix>3d</fix>
</trkpt>
<trkpt lat="-27.2737713" lon="151.2899043">
  <ele>343.16</ele>
  <time>2026-09-01T19:58:39Z</time>
  <course>103.38</course>
  <speed>0.0316227766016838</speed>
  <fix>3d</fix>
</trkpt>
<trkpt lat="-27.2737714" lon="151.289904">
  <ele>343.08</ele>
  <time>2026-09-01T19:58:39Z</time>
  <course>9.67</course>
  <speed>0.0</speed>
  <fix>3d</fix>
</trkpt>
<trkpt lat="-27.2737713" lon="151.2899043">
  <ele>343.16</ele>
  <time>2026-09-01T19:58:39Z</time>
  <course>103.38</course>
  <speed>0.022360679774997897</speed>
  <fix>3d</fix>
</trkpt>
<trkpt lat="-27.2737714" lon="151.289904">
  <ele>343.08</ele>
  <time>2026-09-01T19:58:39Z</time>
  <course>358.08</course>
  <speed>0.0</speed>
  <fix>3d</fix>
</trkpt>
<trkpt lat="-27.2737713" lon="151.2899043">
  <ele>343.16</ele>
  <time>2026-09-01T19:58:39Z</time>
  <course>103.38</course>
  <speed>0.0316227766016838</speed>
  <fix>3d</fix>
</trkpt>
<trkpt lat="-27.2737714" lon="151.289904">
  <ele>343.08</ele>
  <time>2026-09-01T19:58:39Z</time>
  <course>358.08</course>
  <speed>0.0</speed>
  <fix>3d</fix>
</trkpt>
<trkpt lat="-27.2737713" lon="151.2899043">
  <ele>343.16</ele>
  <time>2026-09-01T19:58:39Z</time>
  <course>103.38</course>
  <speed>0.022360679774997897</speed>
  <fix>3d</fix>
</trkpt>
<trkpt lat="-27.2737714" lon="151.289904">
  <ele>343.08</ele>
  <time>2026-09-01T19:58:39Z</time>
  <course>339.46</course>
  <speed>0.0</speed>
  <fix>3d</fix>
</trkpt>
<trkpt lat="-27.2737713" lon="151.2899043">
  <ele>343.16</ele>
  <time>2026-09-01T19:58:39Z</time>
  <course>103.38</course>
  <speed>0.022360679774997897</speed>
  <fix>3d</fix>
</trkpt>
<trkpt lat="-27.2737714" lon="151.289904">
  <ele>343.08</ele>
  <time>2026-09-01T19:58:39Z</time>
  <course>339.46</course>
  <speed>0.0</speed>
  <fix>3d</fix>
</trkpt>
<trkpt lat="-27.2737713" lon="151.2899043">
  <ele>343.16</ele>
  <time>2026-09-01T19:58:39Z</time>
  <course>103.38</course>
  <speed>0.022360679774997897</speed>
  <fix>3d</fix>
</trkpt>
<trkpt lat="-27.2737714" lon="151.289904">
  <ele>343.08</ele>
  <time>2026-09-01T19:58:39Z</time>
  <course>297.24</course>
  <speed>0.0</speed>
  <fix>3d</fix>
</trkpt>
<trkpt lat="-27.2737713" lon="151.2899043">
  <ele>343.16</ele>
  <time>2026-09-01T19:58:39Z</time>
  <course>103.38</course>
  <speed>0.022360679774997897</speed>
  <fix>3d</fix>
</trkpt>
<trkpt lat="-27.2737714" lon="151.289904">
  <ele>343.08</ele>
  <time>2026-09-01T19:58:39Z</time>
  <course>297.24</course>
  <speed>0.0</speed>
  <fix>3d</fix>
</trkpt>
<trkpt lat="-27.2737713" lon="151.2899043">
  <ele>343.16</ele>
  <time>2026-09-01T19:58:39Z</time>
  <course>103.38</course>
  <speed>0.022360679774997897</speed>
  <fix>3d</fix>
</trkpt>
<trkpt lat="-27.2737714" lon="151.289904">
  <ele>343.08</ele>
  <time>2026-09-01T19:58:39Z</time>
  <course>21.59</course>
  <speed>0.0</speed>
  <fix>3d</fix>
</trkpt>
<trkpt lat="-27.2737713" lon="151.2899043">
  <ele>343.16</ele>
  <time>2026-09-01T19:58:39Z</time>
  <course>103.38</course>
  <speed>0.022360679774997897</speed>
  <fix>3d</fix>
</trkpt>
<trkpt lat="-27.2737714" lon="151.289904">
  <ele>343.08</ele>
  <time>2026-09-01T19:58:39Z</time>
  <course>21.59</course>
  <speed>0.0</speed>
  <fix>3d</fix>
</trkpt>
<trkpt lat="-27.2737713" lon="151.2899043">
  <ele>343.16</ele>
  <time>2026-09-01T19:58:39Z</time>
  <course>103.38</course>
  <speed>0.022360679774997897</speed>
  <fix>3d</fix>
</trkpt>
<trkpt lat="-27.2737714" lon="151.289904">
  <ele>343.08</ele>
  <time>2026-09-01T19:58:39Z</time>
  <course>23.61</course>
  <speed>0.0</speed>
  <fix>3d</fix>
</trkpt>
<trkpt lat="-27.2737713" lon="151.2899043">
  <ele>343.16</ele>
  <time>2026-09-01T19:58:39Z</time>
  <course>103.38</course>
  <speed>0.022360679774997897</speed>
  <fix>3d</fix>
</trkpt>
<trkpt lat="-27.2737714" lon="151.289904">
  <ele>343.08</ele>
  <time>2026-09-01T19:58:39Z</time>
  <course>23.61</course>
  <speed>0.0</speed>
  <fix>3d</fix>
</trkpt>
<trkpt lat="-27.2737713" lon="151.2899043">
  <ele>343.16</ele>
  <time>2026-09-01T19:58:39Z</time>
  <course>103.38</course>
  <speed>0.022360679774997897</speed>
  <fix>3d</fix>
</trkpt>
<trkpt lat="-27.2737714" lon="151.289904">
  <ele>343.08</ele>
  <time>2026-09-01T19:58:39Z</time>
  <course>319.32</course>
  <speed>0.0</speed>
  <fix>3d</fix>
</trkpt>
<trkpt lat="-27.2737713" lon="151.2899043">
  <ele>343.16</ele>
  <time>2026-09-01T19:58:39Z</time>
  <course>103.38</course>
  <speed>0.022360679774997897</speed>
  <fix>3d</fix>
</trkpt>
<trkpt lat="-27.2737714" lon="151.289904">
  <ele>343.08</ele>
  <time>2026-09-01T19:58:39Z</time>
  <course>319.32</course>
  <speed>0.0</speed>
  <fix>3d</fix>
</trkpt>
<trkpt lat="-27.2737713" lon="151.2899043">
  <ele>343.16</ele>
  <time>2026-09-01T19:58:39Z</time>
  <course>103.38</course>
  <speed>0.022360679774997897</speed>
  <fix>3d</fix>
</trkpt>
<trkpt lat="-27.2737714" lon="151.289904">
  <ele>343.08</ele>
  <time>2026-09-01T19:58:39Z</time>
  <course>343.0</course>
  <speed>0.0</speed>
  <fix>3d</fix>
</trkpt>
<trkpt lat="-27.2737713" lon="151.2899043">
  <ele>343.17</ele>
  <time>2026-09-01T19:58:39Z</time>
  <course>103.38</course>
  <speed>0.022360679774997897</speed>
  <fix>3d</fix>
</trkpt>
<trkpt lat="-27.2737714" lon="151.289904">
  <ele>343.08</ele>
  <time>2026-09-01T19:58:39Z</time>
  <course>343.0</course>
  <speed>0.0</speed>
  <fix>3d</fix>
</trkpt>
<trkpt lat="-27.2737713" lon="151.2899043">
  <ele>343.17</ele>
  <time>2026-09-01T19:58:39Z</time>
  <course>103.38</course>
  <speed>0.022360679774997897</speed>
  <fix>3d</fix>
</trkpt>
<trkpt lat="-27.2737714" lon="151.289904">
  <ele>343.08</ele>
  <time>2026-09-01T19:58:39Z</time>
  <course>358.72</course>
  <speed>0.0</speed>
  <fix>3d</fix>
</trkpt>
<trkpt lat="-27.2737713" lon="151.2899043">
  <ele>343.17</ele>
  <time>2026-09-01T19:58:39Z</time>
  <course>103.38</course>
  <speed>0.022360679774997897</speed>
  <fix>3d</fix>
</trkpt>
<trkpt lat="-27.2737714" lon="151.289904">
  <ele>343.08</ele>
  <time>2026-09-01T19:58:39Z</time>
  <course>358.72</course>
  <speed>0.0</speed>
  <fix>3d</fix>
</trkpt>
<trkpt lat="-27.2737713" lon="151.2899043">
  <ele>343.17</ele>
  <time>2026-09-01T19:58:39Z</time>
  <course>103.38</course>
  <speed>0.022360679774997897</speed>
  <fix>3d</fix>
</trkpt>
<trkpt lat="-27.2737714" lon="151.289904">
  <ele>343.08</ele>
  <time>2026-09-01T19:58:39Z</time>
  <course>348.25</course>
  <speed>0.0</speed>
  <fix>3d</fix>
</trkpt>
<trkpt lat="-27.2737713" lon="151.2899043">
  <ele>343.17</ele>
  <time>2026-09-01T19:58:39Z</time>
  <course>103.38</course>
  <speed>0.022360679774997897</speed>
  <fix>3d</fix>
</trkpt>
<trkpt lat="-27.2737714" lon="151.289904">
  <ele>343.08</ele>
  <time>2026-09-01T19:58:39Z</time>
  <course>348.25</course>
  <speed>0.0</speed>
  <fix>3d</fix>
</trkpt>
<trkpt lat="-27.2737713" lon="151.2899043">
  <ele>343.17</ele>
  <time>2026-09-01T19:58:39Z</time>
  <course>103.38</course>
  <speed>0.022360679774997897</speed>
  <fix>3d</fix>
</trkpt>
<trkpt lat="-27.2737714" lon="151.289904">
  <ele>343.08</ele>
  <time>2026-09-01T19:58:39Z</time>
  <course>313.08</course>
  <speed>0.0</speed>
  <fix>3d</fix>
</trkpt>
<trkpt lat="-27.2737713" lon="151.2899043">
  <ele>343.17</ele>
  <time>2026-09-01T19:58:39Z</time>
  <course>103.38</course>
  <speed>0.022360679774997897</speed>
  <fix>3d</fix>
</trkpt>
<trkpt lat="-27.2737714" lon="151.289904">
  <ele>343.08</ele>
  <time>2026-09-01T19:58:39Z</time>
  <course>313.08</course>
  <speed>0.0</speed>
  <fix>3d</fix>
</trkpt>
<trkpt lat="-27.2737713" lon="151.2899043">
  <ele>343.17</ele>
  <time>2026-09-01T19:58:39Z</time>
  <course>103.38</course>
  <speed>0.022360679774997897</speed>
  <fix>3d</fix>
</trkpt>
<trkpt lat="-27.2737714" lon="151.289904">
  <ele>343.08</ele>
  <time>2026-09-01T19:58:39Z</time>
  <course>10.75</course>
  <speed>0.0</speed>
  <fix>3d</fix>
</trkpt>
<trkpt lat="-27.2737713" lon="151.2899043">
  <ele>343.17</ele>
  <time>2026-09-01T19:58:39Z</time>
  <course>103.38</course>
  <speed>0.022360679774997897</speed>
  <fix>3d</fix>
</trkpt>
<trkpt lat="-27.2737714" lon="151.289904">
  <ele>343.08</ele>
  <time>2026-09-01T19:58:39Z</time>
  <course>10.75</course>
  <speed>0.0</speed>
  <fix>3d</fix>
</trkpt>
<trkpt lat="-27.2737713" lon="151.2899043">
  <ele>343.17</ele>
  <time>2026-09-01T19:58:39Z</time>
  <course>103.38</course>
  <speed>0.022360679774997897</speed>
  <fix>3d</fix>
</trkpt>
<trkpt lat="-27.2737714" lon="151.289904">
  <ele>343.08</ele>
  <time>2026-09-01T19:58:39Z</time>
  <course>31.39</course>
  <speed>0.0</speed>
  <fix>3d</fix>
</trkpt>
<trkpt lat="-27.2737713" lon="151.2899043">
  <ele>343.17</ele>
  <time>2026-09-01T19:58:39Z</time>
  <course>103.38</course>
  <speed>0.022360679774997897</speed>
  <fix>3d</fix>
</trkpt>
<trkpt lat="-27.2737714" lon="151.289904">
  <ele>343.08</ele>
  <time>2026-09-01T19:58:39Z</time>
  <course>31.39</course>
  <speed>0.0</speed>
  <fix>3d</fix>
</trkpt>
<trkpt lat="-27.2737713" lon="151.2899043">
  <ele>343.17</ele>
  <time>2026-09-01T19:58:39Z</time>
  <course>103.38</course>
  <speed>0.022360679774997897</speed>
  <fix>3d</fix>
</trkpt>
<trkpt lat="-27.2737714" lon="151.289904">
  <ele>343.08</ele>
  <time>2026-09-01T19:58:39Z</time>
  <course>328.88</course>
  <speed>0.0</speed>
  <fix>3d</fix>
</trkpt>
<trkpt lat="-27.2737713" lon="151.2899043">
  <ele>343.17</ele>
  <time>2026-09-01T19:58:39Z</time>
  <course>103.38</course>
  <speed>0.022360679774997897</speed>
  <fix>3d</fix>
</trkpt>
<trkpt lat="-27.2737714" lon="151.289904">
  <ele>343.08</ele>
  <time>2026-09-01T19:58:39Z</time>
  <course>328.88</course>
  <speed>0.0</speed>
  <fix>3d</fix>
</trkpt>
<trkpt lat="-27.2737713" lon="151.2899043">
  <ele>343.17</ele>
  <time>2026-09-01T19:58:39Z</time>
  <course>103.38</course>
  <speed>0.022360679774997897</speed>
  <fix>3d</fix>
</trkpt>
<trkpt lat="-27.2737714" lon="151.289904">
  <ele>343.08</ele>
  <time>2026-09-01T19:58:39Z</time>
  <course>325.63</course>
  <speed>0.0</speed>
  <fix>3d</fix>
</trkpt>
<trkpt lat="-27.2737713" lon="151.2899043">
  <ele>343.17</ele>
  <time>2026-09-01T19:58:39Z</time>
  <course>103.38</course>
  <speed>0.022360679774997897</speed>
  <fix>3d</fix>
</trkpt>
<trkpt lat="-27.2737714" lon="151.289904">
  <ele>343.08</ele>
  <time>2026-09-01T19:58:39Z</time>
  <course>325.63</course>
  <speed>0.0</speed>
  <fix>3d</fix>
</trkpt>
<trkpt lat="-27.2737713" lon="151.2899043">
  <ele>343.17</ele>
  <time>2026-09-01T19:58:39Z</time>
  <course>103.38</course>
  <speed>0.022360679774997897</speed>
  <fix>3d</fix>
</trkpt>
<trkpt lat="-27.2737714" lon="151.289904">
  <ele>343.08</ele>
  <time>2026-09-01T19:58:39Z</time>
  <course>359.31</course>
  <speed>0.0</speed>
  <fix>3d</fix>
</trkpt>
<trkpt lat="-27.2737713" lon="151.2899043">
  <ele>343.17</ele>
  <time>2026-09-01T19:58:39Z</time>
  <course>103.38</course>
  <speed>0.022360679774997897</speed>
  <fix>3d</fix>
</trkpt>
<trkpt lat="-27.2737714" lon="151.289904">
  <ele>343.08</ele>
  <time>2026-09-01T19:58:39Z</time>
  <course>359.31</course>
  <speed>0.0</speed>
  <fix>3d</fix>
</trkpt>
<trkpt lat="-27.2737713" lon="151.2899043">
  <ele>343.17</ele>
  <time>2026-09-01T19:58:39Z</time>
  <course>103.38</course>
  <speed>0.022360679774997897</speed>
  <fix>3d</fix>
</trkpt>
<trkpt lat="-27.2737714" lon="151.289904">
  <ele>343.08</ele>
  <time>2026-09-01T19:58:39Z</time>
  <course>62.57</course>
  <speed>0.0</speed>
  <fix>3d</fix>
</trkpt>
<trkpt lat="-27.2737713" lon="151.2899043">
  <ele>343.17</ele>
  <time>2026-09-01T19:58:39Z</time>
  <course>103.38</course>
  <speed>0.022360679774997897</speed>
  <fix>3d</fix>
</trkpt>
<trkpt lat="-27.2737714" lon="151.289904">
  <ele>343.08</ele>
  <time>2026-09-01T19:58:39Z</time>
  <course>62.57</course>
  <speed>0.0</speed>
  <fix>3d</fix>
</trkpt>
<trkpt lat="-27.2737713" lon="151.2899043">
  <ele>343.17</ele>
  <time>2026-09-01T19:58:39Z</time>
  <course>103.38</course>
  <speed>0.022360679774997897</speed>
  <fix>3d</fix>
</trkpt>
<trkpt lat="-27.2737714" lon="151.289904">
  <ele>343.08</ele>
  <time>2026-09-01T19:58:39Z</time>
  <course>81.42</course>
  <speed>0.0</speed>
  <fix>3d</fix>
</trkpt>
<trkpt lat="-27.2737713" lon="151.2899043">
  <ele>343.17</ele>
  <time>2026-09-01T19:58:39Z</time>
  <course>103.38</course>
  <speed>0.022360679774997897</speed>
  <fix>3d</fix>
</trkpt>
<trkpt lat="-27.2737714" lon="151.289904">
  <ele>343.08</ele>
  <time>2026-09-01T19:58:39Z</time>
  <course>81.42</course>
  <speed>0.0</speed>
  <fix>3d</fix>
</trkpt>
<trkpt lat="-27.2737713" lon="151.2899043">
  <ele>343.17</ele>
  <time>2026-09-01T19:58:39Z</time>
  <course>103.38</course>
  <speed>0.022360679774997897</speed>
  <fix>3d</fix>
</trkpt>
<trkpt lat="-27.2737714" lon="151.289904">
  <ele>343.08</ele>
  <time>2026-09-01T19:58:39Z</time>
  <course>240.39</course>
  <speed>0.0</speed>
  <fix>3d</fix>
</trkpt>
<trkpt lat="-27.2737713" lon="151.2899043">
  <ele>343.17</ele>
  <time>2026-09-01T19:58:39Z</time>
  <course>103.38</course>
  <speed>0.022360679774997897</speed>
  <fix>3d</fix>
</trkpt>
<trkpt lat="-27.2737714" lon="151.289904">
  <ele>343.08</ele>
  <time>2026-09-01T19:58:39Z</time>
  <course>240.39</course>
  <speed>0.0</speed>
  <fix>3d</fix>
</trkpt>
<trkpt lat="-27.2737713" lon="151.2899043">
  <ele>343.16</ele>
  <time>2026-09-01T19:58:39Z</time>
  <course>103.38</course>
  <speed>0.022360679774997897</speed>
  <fix>3d</fix>
</trkpt>
<trkpt lat="-27.2737714" lon="151.289904">
  <ele>343.08</ele>
  <time>2026-09-01T19:58:39Z</time>
  <course>263.74</course>
  <speed>0.0</speed>
  <fix>3d</fix>
</trkpt>
<trkpt lat="-27.2737713" lon="151.2899043">
  <ele>343.16</ele>
  <time>2026-09-01T19:58:39Z</time>
  <course>103.38</course>
  <speed>0.022360679774997897</speed>
  <fix>3d</fix>
</trkpt>
<trkpt lat="-27.2737714" lon="151.289904">
  <ele>343.08</ele>
  <time>2026-09-01T19:58:39Z</time>
  <course>263.74</course>
  <speed>0.0</speed>
  <fix>3d</fix>
</trkpt>
<trkpt lat="-27.2737713" lon="151.2899043">
  <ele>343.16</ele>
  <time>2026-09-01T19:58:39Z</time>
  <course>103.38</course>
  <speed>0.022360679774997897</speed>
  <fix>3d</fix>
</trkpt>
<trkpt lat="-27.2737714" lon="151.289904">
  <ele>343.08</ele>
  <time>2026-09-01T19:58:39Z</time>
  <course>71.66</course>
  <speed>0.0</speed>
  <fix>3d</fix>
</trkpt>
<trkpt lat="-27.2737713" lon="151.2899043">
  <ele>343.17</ele>
  <time>2026-09-01T19:58:39Z</time>
  <course>103.38</course>
  <speed>0.022360679774997897</speed>
  <fix>3d</fix>
</trkpt>
<trkpt lat="-27.2737714" lon="151.289904">
  <ele>343.08</ele>
  <time>2026-09-01T19:58:39Z</time>
  <course>71.66</course>
  <speed>0.0</speed>
  <fix>3d</fix>
</trkpt>
<trkpt lat="-27.2737713" lon="151.2899043">
  <ele>343.17</ele>
  <time>2026-09-01T19:58:39Z</time>
  <course>103.38</course>
  <speed>0.022360679774997897</speed>
  <fix>3d</fix>
</trkpt>
<trkpt lat="-27.2737714" lon="151.289904">
  <ele>343.08</ele>
  <time>2026-09-01T19:58:39Z</time>
  <course>86.97</course>
  <speed>0.0</speed>
  <fix>3d</fix>
</trkpt>
<trkpt lat="-27.2737713" lon="151.2899043">
  <ele>343.17</ele>
  <time>2026-09-01T19:58:39Z</time>
  <course>103.38</course>
  <speed>0.022360679774997897</speed>
  <fix>3d</fix>
</trkpt>
<trkpt lat="-27.2737714" lon="151.289904">
  <ele>343.08</ele>
  <time>2026-09-01T19:58:39Z</time>
  <course>86.97</course>
  <speed>0.0</speed>
  <fix>3d</fix>
</trkpt>
<trkpt lat="-27.2737713" lon="151.2899043">
  <ele>343.18</ele>
  <time>2026-09-01T19:58:39Z</time>
  <course>103.38</course>
  <speed>0.022360679774997897</speed>
  <fix>3d</fix>
</trkpt>
<trkpt lat="-27.2737714" lon="151.289904">
  <ele>343.08</ele>
  <time>2026-09-01T19:58:39Z</time>
  <course>255.94</course>
  <speed>0.0</speed>
  <fix>3d</fix>
</trkpt>
<trkpt lat="-27.2737713" lon="151.2899043">
  <ele>343.18</ele>
  <time>2026-09-01T19:58:39Z</time>
  <course>103.37</course>
  <speed>0.022360679774997897</speed>
  <fix>3d</fix>
</trkpt>
<trkpt lat="-27.2737714" lon="151.289904">
  <ele>343.08</ele>
  <time>2026-09-01T19:58:39Z</time>
  <course>255.94</course>
  <speed>0.0</speed>
  <fix>3d</fix>
</trkpt>
<trkpt lat="-27.2737713" lon="151.2899043">
  <ele>343.18</ele>
  <time>2026-09-01T19:58:39Z</time>
  <course>103.37</course>
  <speed>0.022360679774997897</speed>
  <fix>3d</fix>
</trkpt>
<trkpt lat="-27.2737714" lon="151.289904">
  <ele>343.08</ele>
  <time>2026-09-01T19:58:39Z</time>
  <course>273.37</course>
  <speed>0.0</speed>
  <fix>3d</fix>
</trkpt>
<trkpt lat="-27.2737713" lon="151.2899043">
  <ele>343.19</ele>
  <time>2026-09-01T19:58:39Z</time>
  <course>103.37</course>
  <speed>0.022360679774997897</speed>
  <fix>3d</fix>
</trkpt>
<trkpt lat="-27.2737714" lon="151.289904">
  <ele>343.08</ele>
  <time>2026-09-01T19:58:39Z</time>
  <course>273.37</course>
  <speed>0.0</speed>
  <fix>3d</fix>
</trkpt>
<trkpt lat="-27.2737713" lon="151.2899043">
  <ele>343.19</ele>
  <time>2026-09-01T19:58:39Z</time>
  <course>103.37</course>
  <speed>0.022360679774997897</speed>
  <fix>3d</fix>
</trkpt>
<trkpt lat="-27.2737714" lon="151.289904">
  <ele>343.08</ele>
  <time>2026-09-01T19:58:39Z</time>
  <course>78.58</course>
  <speed>0.0</speed>
  <fix>3d</fix>
</trkpt>
<trkpt lat="-27.2737713" lon="151.2899043">
  <ele>343.19</ele>
  <time>2026-09-01T19:58:39Z</time>
  <course>103.37</course>
  <speed>0.022360679774997897</speed>
  <fix>3d</fix>
</trkpt>
<trkpt lat="-27.2737714" lon="151.289904">
  <ele>343.08</ele>
  <time>2026-09-01T19:58:39Z</time>
  <course>78.58</course>
  <speed>0.0</speed>
  <fix>3d</fix>
</trkpt>
<trkpt lat="-27.2737713" lon="151.2899043">
  <ele>343.18</ele>
  <time>2026-09-01T19:58:39Z</time>
  <course>103.37</course>
  <speed>0.022360679774997897</speed>
  <fix>3d</fix>
</trkpt>
<trkpt lat="-27.2737714" lon="151.289904">
  <ele>343.08</ele>
  <time>2026-09-01T19:58:39Z</time>
  <course>122.25</course>
  <speed>0.0</speed>
  <fix>3d</fix>
</trkpt>
<trkpt lat="-27.2737713" lon="151.2899043">
  <ele>343.18</ele>
  <time>2026-09-01T19:58:39Z</time>
  <course>103.37</course>
  <speed>0.022360679774997897</speed>
  <fix>3d</fix>
</trkpt>
<trkpt lat="-27.2737714" lon="151.289904">
  <ele>343.08</ele>
  <time>2026-09-01T19:58:39Z</time>
  <course>260.79</course>
  <speed>0.0</speed>
  <fix>3d</fix>
</trkpt>
<trkpt lat="-27.2737713" lon="151.2899043">
  <ele>343.18</ele>
  <time>2026-09-01T19:58:39Z</time>
  <course>103.37</course>
  <speed>0.022360679774997897</speed>
  <fix>3d</fix>
</trkpt>
<trkpt lat="-27.2737714" lon="151.289904">
  <ele>343.08</ele>
  <time>2026-09-01T19:58:39Z</time>
  <course>260.79</course>
  <speed>0.0</speed>
  <fix>3d</fix>
</trkpt>
<trkpt lat="-27.2737713" lon="151.2899043">
  <ele>343.18</ele>
  <time>2026-09-01T19:58:39Z</time>
  <course>103.37</course>
  <speed>0.022360679774997897</speed>
  <fix>3d</fix>
</trkpt>
<trkpt lat="-27.2737714" lon="151.289904">
  <ele>343.08</ele>
  <time>2026-09-01T19:58:39Z</time>
  <course>51.59</course>
  <speed>0.0</speed>
  <fix>3d</fix>
</trkpt>
<trkpt lat="-27.2737713" lon="151.2899043">
  <ele>343.19</ele>
  <time>2026-09-01T19:58:40Z</time>
  <course>103.37</course>
  <speed>0.022360679774997897</speed>
  <fix>3d</fix>
</trkpt>
<trkpt lat="-27.2737714" lon="151.289904">
  <ele>343.08</ele>
  <time>2026-09-01T19:58:40Z</time>
  <course>82.99</course>
  <speed>0.0</speed>
  <fix>3d</fix>
</trkpt>
<trkpt lat="-27.2737713" lon="151.2899043">
  <ele>343.17</ele>
  <time>2026-09-01T19:58:40Z</time>
  <course>103.37</course>
  <speed>0.022360679774997897</speed>
  <fix>3d</fix>
</trkpt>
<trkpt lat="-27.2737714" lon="151.289904">
  <ele>343.08</ele>
  <time>2026-09-01T19:58:40Z</time>
  <course>265.83</course>
  <speed>0.0</speed>
  <fix>3d</fix>
</trkpt>
<trkpt lat="-27.2737713" lon="151.2899043">
  <ele>343.17</ele>
  <time>2026-09-01T19:58:40Z</time>
  <course>103.37</course>
  <speed>0.022360679774997897</speed>
  <fix>3d</fix>
</trkpt>
<trkpt lat="-27.2737714" lon="151.289904">
  <ele>343.08</ele>
  <time>2026-09-01T19:58:40Z</time>
  <course>74.97</course>
  <speed>0.0</speed>
  <fix>3d</fix>
</trkpt>
<trkpt lat="-27.2737713" lon="151.2899043">
  <ele>343.17</ele>
  <time>2026-09-01T19:58:40Z</time>
  <course>103.37</course>
  <speed>0.022360679774997897</speed>
  <fix>3d</fix>
</trkpt>
<trkpt lat="-27.2737714" lon="151.289904">
  <ele>343.08</ele>
  <time>2026-09-01T19:58:40Z</time>
  <course>74.97</course>
  <speed>0.0</speed>
  <fix>3d</fix>
</trkpt>
<trkpt lat="-27.2737713" lon="151.2899043">
  <ele>343.16</ele>
  <time>2026-09-01T19:58:40Z</time>
  <course>103.37</course>
  <speed>0.022360679774997897</speed>
  <fix>3d</fix>
</trkpt>
<trkpt lat="-27.2737714" lon="151.289904">
  <ele>343.08</ele>
  <time>2026-09-01T19:58:40Z</time>
  <course>90.77</course>
  <speed>0.0</speed>
  <fix>3d</fix>
</trkpt>
<trkpt lat="-27.2737713" lon="151.2899043">
  <ele>343.16</ele>
  <time>2026-09-01T19:58:40Z</time>
  <course>103.37</course>
  <speed>0.022360679774997897</speed>
  <fix>3d</fix>
</trkpt>
<trkpt lat="-27.2737714" lon="151.289904">
  <ele>343.08</ele>
  <time>2026-09-01T19:58:40Z</time>
  <course>90.77</course>
  <speed>0.0</speed>
  <fix>3d</fix>
</trkpt>
<trkpt lat="-27.2737713" lon="151.2899043">
  <ele>343.16</ele>
  <time>2026-09-01T19:58:40Z</time>
  <course>103.37</course>
  <speed>0.022360679774997897</speed>
  <fix>3d</fix>
</trkpt>
<trkpt lat="-27.2737714" lon="151.289904">
  <ele>343.08</ele>
  <time>2026-09-01T19:58:40Z</time>
  <course>258.12</course>
  <speed>0.0</speed>
  <fix>3d</fix>
</trkpt>
<trkpt lat="-27.2737713" lon="151.2899043">
  <ele>343.15</ele>
  <time>2026-09-01T19:58:40Z</time>
  <course>103.37</course>
  <speed>0.022360679774997897</speed>
  <fix>3d</fix>
</trkpt>
<trkpt lat="-27.2737714" lon="151.289904">
  <ele>343.08</ele>
  <time>2026-09-01T19:58:40Z</time>
  <course>258.12</course>
  <speed>0.0</speed>
  <fix>3d</fix>
</trkpt>
<trkpt lat="-27.2737713" lon="151.2899043">
  <ele>343.15</ele>
  <time>2026-09-01T19:58:40Z</time>
  <course>103.37</course>
  <speed>0.022360679774997897</speed>
  <fix>3d</fix>
</trkpt>
<trkpt lat="-27.2737714" lon="151.289904">
  <ele>343.08</ele>
  <time>2026-09-01T19:58:40Z</time>
  <course>289.9</course>
  <speed>0.0</speed>
  <fix>3d</fix>
</trkpt>
<trkpt lat="-27.2737713" lon="151.2899043">
  <ele>343.15</ele>
  <time>2026-09-01T19:58:40Z</time>
  <course>103.37</course>
  <speed>0.022360679774997897</speed>
  <fix>3d</fix>
</trkpt>
<trkpt lat="-27.2737714" lon="151.289904">
  <ele>343.08</ele>
  <time>2026-09-01T19:58:40Z</time>
  <course>289.9</course>
  <speed>0.0</speed>
  <fix>3d</fix>
</trkpt>
<trkpt lat="-27.2737713" lon="151.2899043">
  <ele>343.15</ele>
  <time>2026-09-01T19:58:40Z</time>
  <course>103.37</course>
  <speed>0.022360679774997897</speed>
  <fix>3d</fix>
</trkpt>
<trkpt lat="-27.2737714" lon="151.289904">
  <ele>343.08</ele>
  <time>2026-09-01T19:58:40Z</time>
  <course>52.99</course>
  <speed>0.0</speed>
  <fix>3d</fix>
</trkpt>
<trkpt lat="-27.2737713" lon="151.2899043">
  <ele>343.16</ele>
  <time>2026-09-01T19:58:40Z</time>
  <course>103.37</course>
  <speed>0.022360679774997897</speed>
  <fix>3d</fix>
</trkpt>
<trkpt lat="-27.2737714" lon="151.289904">
  <ele>343.08</ele>
  <time>2026-09-01T19:58:40Z</time>
  <course>52.99</course>
  <speed>0.0</speed>
  <fix>3d</fix>
</trkpt>
<trkpt lat="-27.2737713" lon="151.2899043">
  <ele>343.16</ele>
  <time>2026-09-01T19:58:40Z</time>
  <course>103.37</course>
  <speed>0.022360679774997897</speed>
  <fix>3d</fix>
</trkpt>
<trkpt lat="-27.2737714" lon="151.289904">
  <ele>343.08</ele>
  <time>2026-09-01T19:58:40Z</time>
  <course>357.69</course>
  <speed>0.0</speed>
  <fix>3d</fix>
</trkpt>
<trkpt lat="-27.2737713" lon="151.2899043">
  <ele>343.16</ele>
  <time>2026-09-01T19:58:40Z</time>
  <course>103.37</course>
  <speed>0.022360679774997897</speed>
  <fix>3d</fix>
</trkpt>
<trkpt lat="-27.2737714" lon="151.289904">
  <ele>343.08</ele>
  <time>2026-09-01T19:58:40Z</time>
  <course>343.59</course>
  <speed>0.0</speed>
  <fix>3d</fix>
</trkpt>
<trkpt lat="-27.2737713" lon="151.2899043">
  <ele>343.16</ele>
  <time>2026-09-01T19:58:40Z</time>
  <course>103.37</course>
  <speed>0.022360679774997897</speed>
  <fix>3d</fix>
</trkpt>
<trkpt lat="-27.2737714" lon="151.289904">
  <ele>343.08</ele>
  <time>2026-09-01T19:58:40Z</time>
  <course>343.59</course>
  <speed>0.0</speed>
  <fix>3d</fix>
</trkpt>
<trkpt lat="-27.2737713" lon="151.2899043">
  <ele>343.16</ele>
  <time>2026-09-01T19:58:40Z</time>
  <course>103.37</course>
  <speed>0.022360679774997897</speed>
  <fix>3d</fix>
</trkpt>
<trkpt lat="-27.2737714" lon="151.289904">
  <ele>343.08</ele>
  <time>2026-09-01T19:58:40Z</time>
  <course>341.83</course>
  <speed>0.0</speed>
  <fix>3d</fix>
</trkpt>
<trkpt lat="-27.2737713" lon="151.2899043">
  <ele>343.16</ele>
  <time>2026-09-01T19:58:40Z</time>
  <course>103.37</course>
  <speed>0.022360679774997897</speed>
  <fix>3d</fix>
</trkpt>
<trkpt lat="-27.2737714" lon="151.289904">
  <ele>343.08</ele>
  <time>2026-09-01T19:58:40Z</time>
  <course>341.83</course>
  <speed>0.0</speed>
  <fix>3d</fix>
</trkpt>
<trkpt lat="-27.2737713" lon="151.2899043">
  <ele>343.16</ele>
  <time>2026-09-01T19:58:40Z</time>
  <course>103.37</course>
  <speed>0.022360679774997897</speed>
  <fix>3d</fix>
</trkpt>
<trkpt lat="-27.2737714" lon="151.289904">
  <ele>343.08</ele>
  <time>2026-09-01T19:58:40Z</time>
  <course>341.6</course>
  <speed>0.0</speed>
  <fix>3d</fix>
</trkpt>
<trkpt lat="-27.2737713" lon="151.2899043">
  <ele>343.16</ele>
  <time>2026-09-01T19:58:40Z</time>
  <course>103.37</course>
  <speed>0.022360679774997897</speed>
  <fix>3d</fix>
</trkpt>
<trkpt lat="-27.2737714" lon="151.289904">
  <ele>343.08</ele>
  <time>2026-09-01T19:58:40Z</time>
  <course>341.6</course>
  <speed>0.0</speed>
  <fix>3d</fix>
</trkpt>
<trkpt lat="-27.2737713" lon="151.2899043">
  <ele>343.16</ele>
  <time>2026-09-01T19:58:40Z</time>
  <course>103.37</course>
  <speed>0.022360679774997897</speed>
  <fix>3d</fix>
</trkpt>
<trkpt lat="-27.2737714" lon="151.289904">
  <ele>343.08</ele>
  <time>2026-09-01T19:58:40Z</time>
  <course>341.56</course>
  <speed>0.0</speed>
  <fix>3d</fix>
</trkpt>
<trkpt lat="-27.2737713" lon="151.2899043">
  <ele>343.16</ele>
  <time>2026-09-01T19:58:40Z</time>
  <course>103.36</course>
  <speed>0.022360679774997897</speed>
  <fix>3d</fix>
</trkpt>
<trkpt lat="-27.2737714" lon="151.289904">
  <ele>343.08</ele>
  <time>2026-09-01T19:58:40Z</time>
  <course>341.56</course>
  <speed>0.0</speed>
  <fix>3d</fix>
</trkpt>
<trkpt lat="-27.2737713" lon="151.2899043">
  <ele>343.16</ele>
  <time>2026-09-01T19:58:40Z</time>
  <course>103.36</course>
  <speed>0.022360679774997897</speed>
  <fix>3d</fix>
</trkpt>
<trkpt lat="-27.2737714" lon="151.289904">
  <ele>343.08</ele>
  <time>2026-09-01T19:58:40Z</time>
  <course>341.56</course>
  <speed>0.0</speed>
  <fix>3d</fix>
</trkpt>
<trkpt lat="-27.2737713" lon="151.2899043">
  <ele>343.16</ele>
  <time>2026-09-01T19:58:40Z</time>
  <course>103.36</course>
  <speed>0.022360679774997897</speed>
  <fix>3d</fix>
</trkpt>
<trkpt lat="-27.2737714" lon="151.289904">
  <ele>343.08</ele>
  <time>2026-09-01T19:58:40Z</time>
  <course>341.56</course>
  <speed>0.0</speed>
  <fix>3d</fix>
</trkpt>
<trkpt lat="-27.2737713" lon="151.2899043">
  <ele>343.16</ele>
  <time>2026-09-01T19:58:40Z</time>
  <course>103.36</course>
  <speed>0.022360679774997897</speed>
  <fix>3d</fix>
</trkpt>
<trkpt lat="-27.2737714" lon="151.289904">
  <ele>343.08</ele>
  <time>2026-09-01T19:58:40Z</time>
  <course>341.56</course>
  <speed>0.0</speed>
  <fix>3d</fix>
</trkpt>
<trkpt lat="-27.2737713" lon="151.2899043">
  <ele>343.16</ele>
  <time>2026-09-01T19:58:40Z</time>
  <course>103.36</course>
  <speed>0.022360679774997897</speed>
  <fix>3d</fix>
</trkpt>
<trkpt lat="-27.2737714" lon="151.289904">
  <ele>343.08</ele>
  <time>2026-09-01T19:58:40Z</time>
  <course>341.56</course>
  <speed>0.0</speed>
  <fix>3d</fix>
</trkpt>
<trkpt lat="-27.2737713" lon="151.2899042">
  <ele>343.16</ele>
  <time>2026-09-01T19:58:40Z</time>
  <course>103.36</course>
  <speed>0.022360679774997897</speed>
  <fix>3d</fix>
</trkpt>
<trkpt lat="-27.2737714" lon="151.289904">
  <ele>343.08</ele>
  <time>2026-09-01T19:58:40Z</time>
  <course>341.56</course>
  <speed>0.0</speed>
  <fix>3d</fix>
</trkpt>
<trkpt lat="-27.2737713" lon="151.2899042">
  <ele>343.16</ele>
  <time>2026-09-01T19:58:40Z</time>
  <course>103.36</course>
  <speed>0.022360679774997897</speed>
  <fix>3d</fix>
</trkpt>
<trkpt lat="-27.2737714" lon="151.289904">
  <ele>343.08</ele>
  <time>2026-09-01T19:58:40Z</time>
  <course>341.56</course>
  <speed>0.0</speed>
  <fix>3d</fix>
</trkpt>
<trkpt lat="-26.9720619" lon="149.6127921">
  <ele>339.29</ele>
  <time>2026-09-01T19:58:40Z</time>
  <course>310.27</course>
  <speed>0.0</speed>
  <fix>3d</fix>
</trkpt>
<trkpt lat="-26.9720619" lon="149.6127921">
  <ele>339.29</ele>
  <time>2026-09-01T19:58:40Z</time>
  <course>310.27</course>
  <speed>0.0</speed>
  <fix>3d</fix>
</trkpt>
<trkpt lat="-27.274439" lon="151.290064">
  <ele>-0.01</ele>
  <time>2026-09-01T19:58:40Z</time>
  <course>0.22</course>
  <speed>0.0</speed>
  <fix>3d</fix>
</trkpt>
<trkpt lat="-27.274439" lon="151.290064">
  <ele>343.1</ele>
  <time>2026-09-01T19:58:40Z</time>
  <course>294.58</course>
  <speed>0.0</speed>
  <fix>3d</fix>
</trkpt>
<trkpt lat="-27.274439" lon="151.290064">
  <ele>0.02</ele>
  <time>2026-09-01T19:58:40Z</time>
  <course>1.2</course>
  <speed>0.0</speed>
  <fix>3d</fix>
</trkpt>
<trkpt lat="-27.274439" lon="151.290064">
  <ele>343.1</ele>
  <time>2026-09-01T19:58:40Z</time>
  <course>294.58</course>
  <speed>0.0</speed>
  <fix>3d</fix>
</trkpt>
<trkpt lat="-27.274439" lon="151.290064">
  <ele>-0.08</ele>
  <time>2026-09-01T19:58:40Z</time>
  <course>2.1</course>
  <speed>0.0</speed>
  <fix>3d</fix>
</trkpt>
<trkpt lat="-27.274439" lon="151.290064">
  <ele>343.1</ele>
  <time>2026-09-01T19:58:40Z</time>
  <course>273.33</course>
  <speed>0.0</speed>
  <fix>3d</fix>
</trkpt>
<trkpt lat="-27.274439" lon="151.290064">
  <ele>0.22</ele>
  <time>2026-09-01T19:58:40Z</time>
  <course>2.92</course>
  <speed>0.0</speed>
  <fix>3d</fix>
</trkpt>
<trkpt lat="-27.274439" lon="151.290064">
  <ele>343.1</ele>
  <time>2026-09-01T19:58:40Z</time>
  <course>273.33</course>
  <speed>0.0</speed>
  <fix>3d</fix>
</trkpt>
<trkpt lat="-27.274439" lon="151.290064">
  <ele>0.09</ele>
  <time>2026-09-01T19:58:40Z</time>
  <course>3.66</course>
  <speed>0.0</speed>
  <fix>3d</fix>
</trkpt>
<trkpt lat="-27.274439" lon="151.290064">
  <ele>343.1</ele>
  <time>2026-09-01T19:58:40Z</time>
  <course>270.44</course>
  <speed>0.0</speed>
  <fix>3d</fix>
</trkpt>
<trkpt lat="-27.274439" lon="151.290064">
  <ele>0.08</ele>
  <time>2026-09-01T19:58:40Z</time>
  <course>4.34</course>
  <speed>0.0</speed>
  <fix>3d</fix>
</trkpt>
<trkpt lat="-27.274439" lon="151.290064">
  <ele>343.1</ele>
  <time>2026-09-01T19:58:40Z</time>
  <course>270.44</course>
  <speed>0.0</speed>
  <fix>3d</fix>
</trkpt>
<trkpt lat="-27.274439" lon="151.290064">
  <ele>0.09</ele>
  <time>2026-09-01T19:58:40Z</time>
  <course>4.95</course>
  <speed>0.0</speed>
  <fix>3d</fix>
</trkpt>
<trkpt lat="-27.274439" lon="151.290064">
  <ele>343.1</ele>
  <time>2026-09-01T19:58:40Z</time>
  <course>270.05</course>
  <speed>0.0</speed>
  <fix>3d</fix>
</trkpt>
<trkpt lat="-27.274439" lon="151.290064">
  <ele>-0.05</ele>
  <time>2026-09-01T19:58:40Z</time>
  <course>5.5</course>
  <speed>0.0</speed>
  <fix>3d</fix>
</trkpt>
<trkpt lat="-27.274439" lon="151.290064">
  <ele>343.1</ele>
  <time>2026-09-01T19:58:40Z</time>
  <course>270.05</course>
  <speed>0.0</speed>
  <fix>3d</fix>
</trkpt>
<trkpt lat="-27.274439" lon="151.290064">
  <ele>343.06</ele>
  <time>2026-09-01T19:58:40Z</time>
  <course>5.98</course>
  <speed>0.0</speed>
  <fix>3d</fix>
</trkpt>
<trkpt lat="-27.274439" lon="151.290064">
  <ele>343.1</ele>
  <time>2026-09-01T19:58:40Z</time>
  <course>270.0</course>
  <speed>0.0</speed>
  <fix>3d</fix>
</trkpt>
<trkpt lat="-27.274439" lon="151.290064">
  <ele>343.18</ele>
  <time>2026-09-01T19:58:40Z</time>
  <course>6.44</course>
  <speed>0.0</speed>
  <fix>3d</fix>
</trkpt>
<trkpt lat="-27.274439" lon="151.290064">
  <ele>343.1</ele>
  <time>2026-09-01T19:58:40Z</time>
  <course>270.0</course>
  <speed>0.0</speed>
  <fix>3d</fix>
</trkpt>
<trkpt lat="-27.274439" lon="151.290064">
  <ele>342.91</ele>
  <time>2026-09-01T19:58:40Z</time>
  <course>6.85</course>
  <speed>0.0</speed>
  <fix>3d</fix>
</trkpt>
<trkpt lat="-27.274439" lon="151.290064">
  <ele>343.1</ele>
  <time>2026-09-01T19:58:40Z</time>
  <course>270.0</course>
  <speed>0.0</speed>
  <fix>3d</fix>
</trkpt>
<trkpt lat="-27.274439" lon="151.290064">
  <ele>343.06</ele>
  <time>2026-09-01T19:58:40Z</time>
  <course>7.22</course>
  <speed>0.0</speed>
  <fix>3d</fix>
</trkpt>
<trkpt lat="-27.274439" lon="151.290064">
  <ele>343.1</ele>
  <time>2026-09-01T19:58:40Z</time>
  <course>270.0</course>
  <speed>0.0</speed>
  <fix>3d</fix>
</trkpt>
<trkpt lat="-27.274439" lon="151.290064">
  <ele>343.13</ele>
  <time>2026-09-01T19:58:40Z</time>
  <course>7.56</course>
  <speed>0.0</speed>
  <fix>3d</fix>
</trkpt>
<trkpt lat="-27.274439" lon="151.290064">
  <ele>343.1</ele>
  <time>2026-09-01T19:58:40Z</time>
  <course>270.0</course>
  <speed>0.0</speed>
  <fix>3d</fix>
</trkpt>
<trkpt lat="-27.274439" lon="151.290064">
  <ele>343.04</ele>
  <time>2026-09-01T19:58:40Z</time>
  <course>7.87</course>
  <speed>0.0</speed>
  <fix>3d</fix>
</trkpt>
<trkpt lat="-27.274439" lon="151.290064">
  <ele>343.1</ele>
  <time>2026-09-01T19:58:40Z</time>
  <course>270.0</course>
  <speed>0.0</speed>
  <fix>3d</fix>
</trkpt>
<trkpt lat="-27.274439" lon="151.290064">
  <ele>342.88</ele>
  <time>2026-09-01T19:58:40Z</time>
  <course>8.14</course>
  <speed>0.0</speed>
  <fix>3d</fix>
</trkpt>
<trkpt lat="-27.274439" lon="151.290064">
  <ele>343.1</ele>
  <time>2026-09-01T19:58:40Z</time>
  <course>270.0</course>
  <speed>0.0</speed>
  <fix>3d</fix>
</trkpt>
<trkpt lat="-27.274439" lon="151.290064">
  <ele>343.02</ele>
  <time>2026-09-01T19:58:40Z</time>
  <course>8.39</course>
  <speed>0.0</speed>
  <fix>3d</fix>
</trkpt>
<trkpt lat="-27.274439" lon="151.290064">
  <ele>343.1</ele>
  <time>2026-09-01T19:58:40Z</time>
  <course>270.0</course>
  <speed>0.0</speed>
  <fix>3d</fix>
</trkpt>
<trkpt lat="-27.274439" lon="151.290064">
  <ele>343.23</ele>
  <time>2026-09-01T19:58:40Z</time>
  <course>8.63</course>
  <speed>0.0</speed>
  <fix>3d</fix>
</trkpt>
<trkpt lat="-27.274439" lon="151.290064">
  <ele>343.1</ele>
  <time>2026-09-01T19:58:40Z</time>
  <course>270.0</course>
  <speed>0.0</speed>
  <fix>3d</fix>
</trkpt>
<trkpt lat="-27.274439" lon="151.290064">
  <ele>343.17</ele>
  <time>2026-09-01T19:58:40Z</time>
  <course>8.83</course>
  <speed>0.0</speed>
  <fix>3d</fix>
</trkpt>
<trkpt lat="-27.274439" lon="151.290064">
  <ele>343.1</ele>
  <time>2026-09-01T19:58:40Z</time>
  <course>270.0</course>
  <speed>0.0</speed>
  <fix>3d</fix>
</trkpt>
<trkpt lat="-27.274439" lon="151.290064">
  <ele>343.04</ele>
  <time>2026-09-01T19:58:40Z</time>
  <course>9.01</course>
  <speed>0.0</speed>
  <fix>3d</fix>
</trkpt>
<trkpt lat="-27.274439" lon="151.290064">
  <ele>343.1</ele>
  <time>2026-09-01T19:58:40Z</time>
  <course>270.0</course>
  <speed>0.0</speed>
  <fix>3d</fix>
</trkpt>
<trkpt lat="-27.274439" lon="151.290064">
  <ele>342.89</ele>
  <time>2026-09-01T19:58:40Z</time>
  <course>9.18</course>
  <speed>0.0</speed>
  <fix>3d</fix>
</trkpt>
<trkpt lat="-27.274439" lon="151.290064">
  <ele>343.1</ele>
  <time>2026-09-01T19:58:40Z</time>
  <course>270.0</course>
  <speed>0.0</speed>
  <fix>3d</fix>
</trkpt>
<trkpt lat="-27.274439" lon="151.290064">
  <ele>343.08</ele>
  <time>2026-09-01T19:58:40Z</time>
  <course>9.33</course>
  <speed>0.0</speed>
  <fix>3d</fix>
</trkpt>
<trkpt lat="-27.274439" lon="151.290064">
  <ele>343.1</ele>
  <time>2026-09-01T19:58:40Z</time>
  <course>270.0</course>
  <speed>0.0</speed>
  <fix>3d</fix>
</trkpt>
<trkpt lat="-27.274439" lon="151.290064">
  <ele>343.19</ele>
  <time>2026-09-01T19:58:40Z</time>
  <course>9.47</course>
  <speed>0.0</speed>
  <fix>3d</fix>
</trkpt>
<trkpt lat="-27.274439" lon="151.290064">
  <ele>343.1</ele>
  <time>2026-09-01T19:58:40Z</time>
  <course>270.0</course>
  <speed>0.0</speed>
  <fix>3d</fix>
</trkpt>
<trkpt lat="-27.274439" lon="151.290064">
  <ele>342.88</ele>
  <time>2026-09-01T19:58:40Z</time>
  <course>9.59</course>
  <speed>0.0</speed>
  <fix>3d</fix>
</trkpt>
<trkpt lat="-27.274439" lon="151.290064">
  <ele>343.1</ele>
  <time>2026-09-01T19:58:40Z</time>
  <course>270.0</course>
  <speed>0.0</speed>
  <fix>3d</fix>
</trkpt>
<trkpt lat="-27.274439" lon="151.290064">
  <ele>343.17</ele>
  <time>2026-09-01T19:58:40Z</time>
  <course>9.7</course>
  <speed>0.0</speed>
  <fix>3d</fix>
</trkpt>
<trkpt lat="-27.274439" lon="151.290064">
  <ele>343.1</ele>
  <time>2026-09-01T19:58:40Z</time>
  <course>270.0</course>
  <speed>0.0</speed>
  <fix>3d</fix>
</trkpt>
<trkpt lat="-27.274439" lon="151.290064">
  <ele>342.89</ele>
  <time>2026-09-01T19:58:40Z</time>
  <course>9.8</course>
  <speed>0.0</speed>
  <fix>3d</fix>
</trkpt>
<trkpt lat="-27.274439" lon="151.290064">
  <ele>343.1</ele>
  <time>2026-09-01T19:58:40Z</time>
  <course>270.0</course>
  <speed>0.0</speed>
  <fix>3d</fix>
</trkpt>
<trkpt lat="-27.274439" lon="151.290064">
  <ele>342.99</ele>
  <time>2026-09-01T19:58:40Z</time>
  <course>9.9</course>
  <speed>0.0</speed>
  <fix>3d</fix>
</trkpt>
<trkpt lat="-27.274439" lon="151.290064">
  <ele>343.1</ele>
  <time>2026-09-01T19:58:40Z</time>
  <course>270.0</course>
  <speed>0.0</speed>
  <fix>3d</fix>
</trkpt>
<trkpt lat="-27.274439" lon="151.290064">
  <ele>342.87</ele>
  <time>2026-09-01T19:58:40Z</time>
  <course>9.98</course>
  <speed>0.0</speed>
  <fix>3d</fix>
</trkpt>
<trkpt lat="-27.274439" lon="151.290064">
  <ele>343.1</ele>
  <time>2026-09-01T19:58:40Z</time>
  <course>270.0</course>
  <speed>0.0</speed>
  <fix>3d</fix>
</trkpt>
<trkpt lat="-27.274439" lon="151.290064">
  <ele>343.09</ele>
  <time>2026-09-01T19:58:40Z</time>
  <course>10.06</course>
  <speed>0.0</speed>
  <fix>3d</fix>
</trkpt>
<trkpt lat="-27.274439" lon="151.290064">
  <ele>343.1</ele>
  <time>2026-09-01T19:58:40Z</time>
  <course>270.0</course>
  <speed>0.0</speed>
  <fix>3d</fix>
</trkpt>
<trkpt lat="-27.274439" lon="151.290064">
  <ele>343.18</ele>
  <time>2026-09-01T19:58:40Z</time>
  <course>10.13</course>
  <speed>0.0</speed>
  <fix>3d</fix>
</trkpt>
<trkpt lat="-27.274439" lon="151.290064">
  <ele>343.1</ele>
  <time>2026-09-01T19:58:40Z</time>
  <course>270.0</course>
  <speed>0.0</speed>
  <fix>3d</fix>
</trkpt>
<trkpt lat="-27.274439" lon="151.290064">
  <ele>343.05</ele>
  <time>2026-09-01T19:58:40Z</time>
  <course>10.2</course>
  <speed>0.0</speed>
  <fix>3d</fix>
</trkpt>
<trkpt lat="-27.274439" lon="151.290064">
  <ele>343.1</ele>
  <time>2026-09-01T19:58:40Z</time>
  <course>270.0</course>
  <speed>0.0</speed>
  <fix>3d</fix>
</trkpt>
<trkpt lat="-27.274439" lon="151.290064">
  <ele>342.96</ele>
  <time>2026-09-01T19:58:40Z</time>
  <course>10.25</course>
  <speed>0.0</speed>
  <fix>3d</fix>
</trkpt>
<trkpt lat="-27.274439" lon="151.290064">
  <ele>343.1</ele>
  <time>2026-09-01T19:58:40Z</time>
  <course>270.0</course>
  <speed>0.0</speed>
  <fix>3d</fix>
</trkpt>
<trkpt lat="-27.274439" lon="151.290064">
  <ele>343.1</ele>
  <time>2026-09-01T19:58:40Z</time>
  <course>10.31</course>
  <speed>0.0</speed>
  <fix>3d</fix>
</trkpt>
<trkpt lat="-27.274439" lon="151.290064">
  <ele>343.1</ele>
  <time>2026-09-01T19:58:40Z</time>
  <course>270.0</course>
  <speed>0.0</speed>
  <fix>3d</fix>
</trkpt>
<trkpt lat="-27.274439" lon="151.290064">
  <ele>343.22</ele>
  <time>2026-09-01T19:58:40Z</time>
  <course>10.35</course>
  <speed>0.0</speed>
  <fix>3d</fix>
</trkpt>
<trkpt lat="-27.274439" lon="151.290064">
  <ele>343.1</ele>
  <time>2026-09-01T19:58:40Z</time>
  <course>270.0</course>
  <speed>0.0</speed>
  <fix>3d</fix>
</trkpt>
<trkpt lat="-27.274439" lon="151.290064">
  <ele>343.17</ele>
  <time>2026-09-01T19:58:40Z</time>
  <course>10.4</course>
  <speed>0.0</speed>
  <fix>3d</fix>
</trkpt>
<trkpt lat="-27.274439" lon="151.290064">
  <ele>343.1</ele>
  <time>2026-09-01T19:58:40Z</time>
  <course>270.0</course>
  <speed>0.0</speed>
  <fix>3d</fix>
</trkpt>
<trkpt lat="-27.274439" lon="151.290064">
  <ele>343.08</ele>
  <time>2026-09-01T19:58:40Z</time>
  <course>10.44</course>
  <speed>0.0</speed>
  <fix>3d</fix>
</trkpt>
<trkpt lat="-27.274439" lon="151.290064">
  <ele>343.1</ele>
  <time>2026-09-01T19:58:40Z</time>
  <course>270.0</course>
  <speed>0.0</speed>
  <fix>3d</fix>
</trkpt>
<trkpt lat="-27.274439" lon="151.290064">
  <ele>343.04</ele>
  <time>2026-09-01T19:58:40Z</time>
  <course>10.47</course>
  <speed>0.0</speed>
  <fix>3d</fix>
</trkpt>
<trkpt lat="-27.274439" lon="151.290064">
  <ele>343.1</ele>
  <time>2026-09-01T19:58:40Z</time>
  <course>270.0</course>
  <speed>0.0</speed>
  <fix>3d</fix>
</trkpt>
<trkpt lat="-27.274439" lon="151.290064">
  <ele>343.18</ele>
  <time>2026-09-01T19:58:40Z</time>
  <course>10.5</course>
  <speed>0.0</speed>
  <fix>3d</fix>
</trkpt>
<trkpt lat="-27.274439" lon="151.290064">
  <ele>343.1</ele>
  <time>2026-09-01T19:58:40Z</time>
  <course>270.0</course>
  <speed>0.0</speed>
  <fix>3d</fix>
</trkpt>
<trkpt lat="-27.274439" lon="151.290064">
  <ele>343.12</ele>
  <time>2026-09-01T19:58:40Z</time>
  <course>10.53</course>
  <speed>0.0</speed>
  <fix>3d</fix>
</trkpt>
<trkpt lat="-27.274439" lon="151.290064">
  <ele>343.1</ele>
  <time>2026-09-01T19:58:40Z</time>
  <course>270.0</course>
  <speed>0.0</speed>
  <fix>3d</fix>
</trkpt>
<trkpt lat="-27.274439" lon="151.290064">
  <ele>343.04</ele>
  <time>2026-09-01T19:58:40Z</time>
  <course>10.56</course>
  <speed>0.0</speed>
  <fix>3d</fix>
</trkpt>
<trkpt lat="-27.274439" lon="151.290064">
  <ele>343.1</ele>
  <time>2026-09-01T19:58:40Z</time>
  <course>270.0</course>
  <speed>0.0</speed>
  <fix>3d</fix>
</trkpt>
<trkpt lat="-27.274439" lon="151.290064">
  <ele>343.07</ele>
  <time>2026-09-01T19:58:40Z</time>
  <course>10.58</course>
  <speed>0.0</speed>
  <fix>3d</fix>
</trkpt>
<trkpt lat="-27.274439" lon="151.290064">
  <ele>343.1</ele>
  <time>2026-09-01T19:58:40Z</time>
  <course>270.0</course>
  <speed>0.0</speed>
  <fix>3d</fix>
</trkpt>
<trkpt lat="-27.274439" lon="151.290064">
  <ele>343.04</ele>
  <time>2026-09-01T19:58:40Z</time>
  <course>10.6</course>
  <speed>0.0</speed>
  <fix>3d</fix>
</trkpt>
<trkpt lat="-27.274439" lon="151.290064">
  <ele>343.1</ele>
  <time>2026-09-01T19:58:40Z</time>
  <course>270.0</course>
  <speed>0.0</speed>
  <fix>3d</fix>
</trkpt>
<trkpt lat="-27.274439" lon="151.290064">
  <ele>343.01</ele>
  <time>2026-09-01T19:58:40Z</time>
  <course>10.62</course>
  <speed>0.0</speed>
  <fix>3d</fix>
</trkpt>
<trkpt lat="-27.274439" lon="151.290064">
  <ele>343.1</ele>
  <time>2026-09-01T19:58:40Z</time>
  <course>270.0</course>
  <speed>0.0</speed>
  <fix>3d</fix>
</trkpt>
<trkpt lat="-27.274439" lon="151.290064">
  <ele>343.2</ele>
  <time>2026-09-01T19:58:40Z</time>
  <course>10.64</course>
  <speed>0.0</speed>
  <fix>3d</fix>
</trkpt>
<trkpt lat="-27.274439" lon="151.290064">
  <ele>343.1</ele>
  <time>2026-09-01T19:58:40Z</time>
  <course>270.0</course>
  <speed>0.0</speed>
  <fix>3d</fix>
</trkpt>
<trkpt lat="-27.274439" lon="151.290064">
  <ele>343.24</ele>
  <time>2026-09-01T19:58:40Z</time>
  <course>10.65</course>
  <speed>0.0</speed>
  <fix>3d</fix>
</trkpt>
<trkpt lat="-27.274439" lon="151.290064">
  <ele>343.1</ele>
  <time>2026-09-01T19:58:40Z</time>
  <course>270.0</course>
  <speed>0.0</speed>
  <fix>3d</fix>
</trkpt>
<trkpt lat="-27.274439" lon="151.290064">
  <ele>342.88</ele>
  <time>2026-09-01T19:58:40Z</time>
  <course>10.67</course>
  <speed>0.0</speed>
  <fix>3d</fix>
</trkpt>
<trkpt lat="-27.274439" lon="151.290064">
  <ele>343.1</ele>
  <time>2026-09-01T19:58:40Z</time>
  <course>270.0</course>
  <speed>0.0</speed>
  <fix>3d</fix>
</trkpt>
<trkpt lat="-27.274439" lon="151.290064">
  <ele>343.21</ele>
  <time>2026-09-01T19:58:40Z</time>
  <course>10.68</course>
  <speed>0.0</speed>
  <fix>3d</fix>
</trkpt>
<trkpt lat="-27.274439" lon="151.290064">
  <ele>343.1</ele>
  <time>2026-09-01T19:58:40Z</time>
  <course>270.0</course>
  <speed>0.0</speed>
  <fix>3d</fix>
</trkpt>
<trkpt lat="-27.274439" lon="151.290064">
  <ele>343.02</ele>
  <time>2026-09-01T19:58:40Z</time>
  <course>10.69</course>
  <speed>0.0</speed>
  <fix>3d</fix>
</trkpt>
<trkpt lat="-27.274439" lon="151.290064">
  <ele>343.1</ele>
  <time>2026-09-01T19:58:40Z</time>
  <course>270.0</course>
  <speed>0.0</speed>
  <fix>3d</fix>
</trkpt>
<trkpt lat="-27.274439" lon="151.290064">
  <ele>342.93</ele>
  <time>2026-09-01T19:58:40Z</time>
  <course>10.7</course>
  <speed>0.0</speed>
  <fix>3d</fix>
</trkpt>
<trkpt lat="-27.274439" lon="151.290064">
  <ele>343.1</ele>
  <time>2026-09-01T19:58:40Z</time>
  <course>270.0</course>
  <speed>0.0</speed>
  <fix>3d</fix>
</trkpt>
<trkpt lat="-27.274439" lon="151.290064">
  <ele>343.07</ele>
  <time>2026-09-01T19:58:40Z</time>
  <course>10.71</course>
  <speed>0.0</speed>
  <fix>3d</fix>
</trkpt>
<trkpt lat="-27.274439" lon="151.290064">
  <ele>343.1</ele>
  <time>2026-09-01T19:58:40Z</time>
  <course>270.0</course>
  <speed>0.0</speed>
  <fix>3d</fix>
</trkpt>
<trkpt lat="-27.274439" lon="151.290064">
  <ele>342.94</ele>
  <time>2026-09-01T19:58:40Z</time>
  <course>10.72</course>
  <speed>0.0</speed>
  <fix>3d</fix>
</trkpt>
<trkpt lat="-27.274439" lon="151.290064">
  <ele>343.1</ele>
  <time>2026-09-01T19:58:40Z</time>
  <course>270.0</course>
  <speed>0.0</speed>
  <fix>3d</fix>
</trkpt>
<trkpt lat="-27.274439" lon="151.290064">
  <ele>343.11</ele>
  <time>2026-09-01T19:58:40Z</time>
  <course>10.73</course>
  <speed>0.0</speed>
  <fix>3d</fix>
</trkpt>
<trkpt lat="-27.274439" lon="151.290064">
  <ele>343.1</ele>
  <time>2026-09-01T19:58:40Z</time>
  <course>270.0</course>
  <speed>0.0</speed>
  <fix>3d</fix>
</trkpt>
<trkpt lat="-27.274439" lon="151.290064">
  <ele>343.24</ele>
  <time>2026-09-01T19:58:40Z</time>
  <course>10.73</course>
  <speed>0.0</speed>
  <fix>3d</fix>
</trkpt>
<trkpt lat="-27.274439" lon="151.290064">
  <ele>343.1</ele>
  <time>2026-09-01T19:58:40Z</time>
  <course>270.0</course>
  <speed>0.0</speed>
  <fix>3d</fix>
</trkpt>
<trkpt lat="-27.274439" lon="151.290064">
  <ele>343.18</ele>
  <time>2026-09-01T19:58:40Z</time>
  <course>10.74</course>
  <speed>0.0</speed>
  <fix>3d</fix>
</trkpt>
<trkpt lat="-27.274439" lon="151.290064">
  <ele>343.1</ele>
  <time>2026-09-01T19:58:40Z</time>
  <course>270.0</course>
  <speed>0.0</speed>
  <fix>3d</fix>
</trkpt>
<trkpt lat="-27.274439" lon="151.290064">
  <ele>342.89</ele>
  <time>2026-09-01T19:58:40Z</time>
  <course>10.75</course>
  <speed>0.0</speed>
  <fix>3d</fix>
</trkpt>
<trkpt lat="-27.274439" lon="151.290064">
  <ele>343.1</ele>
  <time>2026-09-01T19:58:40Z</time>
  <course>270.0</course>
  <speed>0.0</speed>
  <fix>3d</fix>
</trkpt>
<trkpt lat="-27.274439" lon="151.290064">
  <ele>343.23</ele>
  <time>2026-09-01T19:58:40Z</time>
  <course>10.75</course>
  <speed>0.0</speed>
  <fix>3d</fix>
</trkpt>
<trkpt lat="-27.274439" lon="151.290064">
  <ele>343.1</ele>
  <time>2026-09-01T19:58:40Z</time>
  <course>270.0</course>
  <speed>0.0</speed>
  <fix>3d</fix>
</trkpt>
<trkpt lat="-27.274439" lon="151.290064">
  <ele>343.23</ele>
  <time>2026-09-01T19:58:40Z</time>
  <course>10.76</course>
  <speed>0.0</speed>
  <fix>3d</fix>
</trkpt>
<trkpt lat="-27.274439" lon="151.290064">
  <ele>343.1</ele>
  <time>2026-09-01T19:58:40Z</time>
  <course>270.0</course>
  <speed>0.0</speed>
  <fix>3d</fix>
</trkpt>
<trkpt lat="-27.274439" lon="151.290064">
  <ele>342.99</ele>
  <time>2026-09-01T19:58:41Z</time>
  <course>10.76</course>
  <speed>0.0</speed>
  <fix>3d</fix>
</trkpt>
<trkpt lat="-27.274439" lon="151.290064">
  <ele>343.1</ele>
  <time>2026-09-01T19:58:41Z</time>
  <course>270.0</course>
  <speed>0.0</speed>
  <fix>3d</fix>
</trkpt>
<trkpt lat="-27.274439" lon="151.290064">
  <ele>343.13</ele>
  <time>2026-09-01T19:58:41Z</time>
  <course>10.76</course>
  <speed>0.0</speed>
  <fix>3d</fix>
</trkpt>
<trkpt lat="-27.274439" lon="151.290064">
  <ele>343.1</ele>
  <time>2026-09-01T19:58:41Z</time>
  <course>270.0</course>
  <speed>0.0</speed>
  <fix>3d</fix>
</trkpt>
<trkpt lat="-27.274439" lon="151.290064">
  <ele>343.07</ele>
  <time>2026-09-01T19:58:41Z</time>
  <course>10.77</course>
  <speed>0.0</speed>
  <fix>3d</fix>
</trkpt>
<trkpt lat="-27.274439" lon="151.290064">
  <ele>343.1</ele>
  <time>2026-09-01T19:58:41Z</time>
  <course>270.0</course>
  <speed>0.0</speed>
  <fix>3d</fix>
</trkpt>
<trkpt lat="-27.274439" lon="151.290064">
  <ele>343.19</ele>
  <time>2026-09-01T19:58:41Z</time>
  <course>10.77</course>
  <speed>0.0</speed>
  <fix>3d</fix>
</trkpt>
<trkpt lat="-27.274439" lon="151.290064">
  <ele>343.1</ele>
  <time>2026-09-01T19:58:41Z</time>
  <course>270.0</course>
  <speed>0.0</speed>
  <fix>3d</fix>
</trkpt>
<trkpt lat="-27.274439" lon="151.290064">
  <ele>342.93</ele>
  <time>2026-09-01T19:58:41Z</time>
  <course>10.77</course>
  <speed>0.0</speed>
  <fix>3d</fix>
</trkpt>
<trkpt lat="-27.274439" lon="151.290064">
  <ele>343.1</ele>
  <time>2026-09-01T19:58:41Z</time>
  <course>270.0</course>
  <speed>0.0</speed>
  <fix>3d</fix>
</trkpt>
<trkpt lat="-27.274439" lon="151.290064">
  <ele>343.19</ele>
  <time>2026-09-01T19:58:41Z</time>
  <course>10.78</course>
  <speed>0.0</speed>
  <fix>3d</fix>
</trkpt>
<trkpt lat="-27.274439" lon="151.290064">
  <ele>343.1</ele>
  <time>2026-09-01T19:58:41Z</time>
  <course>270.0</course>
  <speed>0.0</speed>
  <fix>3d</fix>
</trkpt>
<trkpt lat="-27.274439" lon="151.290064">
  <ele>343.1</ele>
  <time>2026-09-01T19:58:41Z</time>
  <course>10.78</course>
  <speed>0.0</speed>
  <fix>3d</fix>
</trkpt>
<trkpt lat="-27.274439" lon="151.290064">
  <ele>343.1</ele>
  <time>2026-09-01T19:58:41Z</time>
  <course>270.0</course>
  <speed>0.0</speed>
  <fix>3d</fix>
</trkpt>
<trkpt lat="-27.274439" lon="151.290064">
  <ele>343.01</ele>
  <time>2026-09-01T19:58:41Z</time>
  <course>10.78</course>
  <speed>0.0</speed>
  <fix>3d</fix>
</trkpt>
<trkpt lat="-27.274439" lon="151.290064">
  <ele>343.1</ele>
  <time>2026-09-01T19:58:41Z</time>
  <course>270.0</course>
  <speed>0.0</speed>
  <fix>3d</fix>
</trkpt>
<trkpt lat="-27.274439" lon="151.290064">
  <ele>343.11</ele>
  <time>2026-09-01T19:58:41Z</time>
  <course>10.78</course>
  <speed>0.0</speed>
  <fix>3d</fix>
</trkpt>
<trkpt lat="-27.274439" lon="151.290064">
  <ele>343.1</ele>
  <time>2026-09-01T19:58:41Z</time>
  <course>270.0</course>
  <speed>0.0</speed>
  <fix>3d</fix>
</trkpt>
<trkpt lat="-27.274439" lon="151.290064">
  <ele>342.96</ele>
  <time>2026-09-01T19:58:41Z</time>
  <course>10.78</course>
  <speed>0.0</speed>
  <fix>3d</fix>
</trkpt>
<trkpt lat="-27.274439" lon="151.290064">
  <ele>343.1</ele>
  <time>2026-09-01T19:58:41Z</time>
  <course>270.0</course>
  <speed>0.0</speed>
  <fix>3d</fix>
</trkpt>
<trkpt lat="-27.274439" lon="151.290064">
  <ele>343.19</ele>
  <time>2026-09-01T19:58:41Z</time>
  <course>10.79</course>
  <speed>0.0</speed>
  <fix>3d</fix>
</trkpt>
<trkpt lat="-27.274439" lon="151.290064">
  <ele>343.1</ele>
  <time>2026-09-01T19:58:41Z</time>
  <course>270.0</course>
  <speed>0.0</speed>
  <fix>3d</fix>
</trkpt>
<trkpt lat="-27.274439" lon="151.290064">
  <ele>343.0</ele>
  <time>2026-09-01T19:58:41Z</time>
  <course>10.79</course>
  <speed>0.0</speed>
  <fix>3d</fix>
</trkpt>
<trkpt lat="-27.274439" lon="151.290064">
  <ele>343.1</ele>
  <time>2026-09-01T19:58:41Z</time>
  <course>270.0</course>
  <speed>0.0</speed>
  <fix>3d</fix>
</trkpt>
<trkpt lat="-27.274439" lon="151.290064">
  <ele>343.2</ele>
  <time>2026-09-01T19:58:41Z</time>
  <course>10.79</course>
  <speed>0.0</speed>
  <fix>3d</fix>
</trkpt>
<trkpt lat="-27.274439" lon="151.290064">
  <ele>343.1</ele>
  <time>2026-09-01T19:58:41Z</time>
  <course>270.0</course>
  <speed>0.0</speed>
  <fix>3d</fix>
</trkpt>
<trkpt lat="-27.274439" lon="151.290064">
  <ele>343.2</ele>
  <time>2026-09-01T19:58:41Z</time>
  <course>10.79</course>
  <speed>0.0</speed>
  <fix>3d</fix>
</trkpt>
<trkpt lat="-27.274439" lon="151.290064">
  <ele>343.1</ele>
  <time>2026-09-01T19:58:41Z</time>
  <course>270.0</course>
  <speed>0.0</speed>
  <fix>3d</fix>
</trkpt>
<trkpt lat="-27.274439" lon="151.290064">
  <ele>343.13</ele>
  <time>2026-09-01T19:58:41Z</time>
  <course>10.79</course>
  <speed>0.0</speed>
  <fix>3d</fix>
</trkpt>
<trkpt lat="-27.274439" lon="151.290064">
  <ele>343.1</ele>
  <time>2026-09-01T19:58:41Z</time>
  <course>270.0</course>
  <speed>0.0</speed>
  <fix>3d</fix>
</trkpt>
<trkpt lat="-27.274439" lon="151.290064">
  <ele>343.1</ele>
  <time>2026-09-01T19:58:41Z</time>
  <course>10.79</course>
  <speed>0.0</speed>
  <fix>3d</fix>
</trkpt>
<trkpt lat="-27.274439" lon="151.290064">
  <ele>343.1</ele>
  <time>2026-09-01T19:58:41Z</time>
  <course>270.0</course>
  <speed>0.0</speed>
  <fix>3d</fix>
</trkpt>
<trkpt lat="-27.274439" lon="151.290064">
  <ele>343.12</ele>
  <time>2026-09-01T19:58:41Z</time>
  <course>10.79</course>
  <speed>0.0</speed>
  <fix>3d</fix>
</trkpt>
<trkpt lat="-27.274439" lon="151.290064">
  <ele>343.1</ele>
  <time>2026-09-01T19:58:41Z</time>
  <course>270.0</course>
  <speed>0.0</speed>
  <fix>3d</fix>
</trkpt>
<trkpt lat="-27.274439" lon="151.290064">
  <ele>342.94</ele>
  <time>2026-09-01T19:58:41Z</time>
  <course>10.79</course>
  <speed>0.0</speed>
  <fix>3d</fix>
</trkpt>
<trkpt lat="-27.274439" lon="151.290064">
  <ele>343.1</ele>
  <time>2026-09-01T19:58:41Z</time>
  <course>270.0</course>
  <speed>0.0</speed>
  <fix>3d</fix>
</trkpt>
<trkpt lat="-27.274439" lon="151.290064">
  <ele>343.25</ele>
  <time>2026-09-01T19:58:41Z</time>
  <course>10.79</course>
  <speed>0.0</speed>
  <fix>3d</fix>
</trkpt>
<trkpt lat="-27.274439" lon="151.290064">
  <ele>343.1</ele>
  <time>2026-09-01T19:58:41Z</time>
  <course>270.0</course>
  <speed>0.0</speed>
  <fix>3d</fix>
</trkpt>
<trkpt lat="-27.274439" lon="151.290064">
  <ele>342.93</ele>
  <time>2026-09-01T19:58:41Z</time>
  <course>10.79</course>
  <speed>0.0</speed>
  <fix>3d</fix>
</trkpt>
<trkpt lat="-27.274439" lon="151.290064">
  <ele>343.1</ele>
  <time>2026-09-01T19:58:41Z</time>
  <course>270.0</course>
  <speed>0.0</speed>
  <fix>3d</fix>
</trkpt>
<trkpt lat="-27.274439" lon="151.290064">
  <ele>343.08</ele>
  <time>2026-09-01T19:58:41Z</time>
  <course>10.79</course>
  <speed>0.0</speed>
  <fix>3d</fix>
</trkpt>
<trkpt lat="-27.274439" lon="151.290064">
  <ele>343.1</ele>
  <time>2026-09-01T19:58:41Z</time>
  <course>270.0</course>
  <speed>0.0</speed>
  <fix>3d</fix>
</trkpt>
<trkpt lat="-27.274439" lon="151.290064">
  <ele>343.23</ele>
  <time>2026-09-01T19:58:41Z</time>
  <course>10.8</course>
  <speed>0.0</speed>
  <fix>3d</fix>
</trkpt>
<trkpt lat="-27.274439" lon="151.290064">
  <ele>343.1</ele>
  <time>2026-09-01T19:58:41Z</time>
  <course>270.0</course>
  <speed>0.0</speed>
  <fix>3d</fix>
</trkpt>
<trkpt lat="-27.274439" lon="151.290064">
  <ele>343.01</ele>
  <time>2026-09-01T19:58:41Z</time>
  <course>10.8</course>
  <speed>0.0</speed>
  <fix>3d</fix>
</trkpt>
<trkpt lat="-27.274439" lon="151.290064">
  <ele>343.1</ele>
  <time>2026-09-01T19:58:41Z</time>
  <course>270.0</course>
  <speed>0.0</speed>
  <fix>3d</fix>
</trkpt>
<trkpt lat="-27.274439" lon="151.290064">
  <ele>343.1</ele>
  <time>2026-09-01T19:58:41Z</time>
  <course>10.8</course>
  <speed>0.0</speed>
  <fix>3d</fix>
</trkpt>
<trkpt lat="-27.274439" lon="151.290064">
  <ele>343.1</ele>
  <time>2026-09-01T19:58:41Z</time>
  <course>270.0</course>
  <speed>0.0</speed>
  <fix>3d</fix>
</trkpt>
<trkpt lat="-27.274439" lon="151.290064">
  <ele>342.99</ele>
  <time>2026-09-01T19:58:41Z</time>
  <course>10.8</course>
  <speed>0.0</speed>
  <fix>3d</fix>
</trkpt>
<trkpt lat="-27.274439" lon="151.290064">
  <ele>343.1</ele>
  <time>2026-09-01T19:58:41Z</time>
  <course>270.0</course>
  <speed>0.0</speed>
  <fix>3d</fix>
</trkpt>
<trkpt lat="-27.274439" lon="151.290064">
  <ele>342.87</ele>
  <time>2026-09-01T19:58:41Z</time>
  <course>10.8</course>
  <speed>0.0</speed>
  <fix>3d</fix>
</trkpt>
<trkpt lat="-27.274439" lon="151.290064">
  <ele>343.1</ele>
  <time>2026-09-01T19:58:41Z</time>
  <course>270.0</course>
  <speed>0.0</speed>
  <fix>3d</fix>
</trkpt>
<trkpt lat="-27.274439" lon="151.290064">
  <ele>343.1</ele>
  <time>2026-09-01T19:58:41Z</time>
  <course>10.8</course>
  <speed>0.0</speed>
  <fix>3d</fix>
</trkpt>
<trkpt lat="-27.274439" lon="151.290064">
  <ele>343.1</ele>
  <time>2026-09-01T19:58:41Z</time>
  <course>270.0</course>
  <speed>0.0</speed>
  <fix>3d</fix>
</trkpt>
<trkpt lat="-27.274439" lon="151.290064">
  <ele>342.99</ele>
  <time>2026-09-01T19:58:41Z</time>
  <course>10.8</course>
  <speed>0.0</speed>
  <fix>3d</fix>
</trkpt>
<trkpt lat="-27.274439" lon="151.290064">
  <ele>343.1</ele>
  <time>2026-09-01T19:58:41Z</time>
  <course>270.0</course>
  <speed>0.0</speed>
  <fix>3d</fix>
</trkpt>
<trkpt lat="-27.274439" lon="151.290064">
  <ele>342.91</ele>
  <time>2026-09-01T19:58:41Z</time>
  <course>10.8</course>
  <speed>0.0</speed>
  <fix>3d</fix>
</trkpt>
<trkpt lat="-27.274439" lon="151.290064">
  <ele>343.1</ele>
  <time>2026-09-01T19:58:41Z</time>
  <course>270.0</course>
  <speed>0.0</speed>
  <fix>3d</fix>
</trkpt>
<trkpt lat="-27.274439" lon="151.290064">
  <ele>342.9</ele>
  <time>2026-09-01T19:58:41Z</time>
  <course>10.8</course>
  <speed>0.0</speed>
  <fix>3d</fix>
</trkpt>
<trkpt lat="-27.274439" lon="151.290064">
  <ele>343.1</ele>
  <time>2026-09-01T19:58:41Z</time>
  <course>270.0</course>
  <speed>0.0</speed>
  <fix>3d</fix>
</trkpt>
<trkpt lat="-27.274439" lon="151.290064">
  <ele>342.87</ele>
  <time>2026-09-01T19:58:41Z</time>
  <course>10.8</course>
  <speed>0.0</speed>
  <fix>3d</fix>
</trkpt>
<trkpt lat="-27.274439" lon="151.290064">
  <ele>343.1</ele>
  <time>2026-09-01T19:58:41Z</time>
  <course>270.0</course>
  <speed>0.0</speed>
  <fix>3d</fix>
</trkpt>
<trkpt lat="-27.274439" lon="151.290064">
  <ele>343.12</ele>
  <time>2026-09-01T19:58:41Z</time>
  <course>10.8</course>
  <speed>0.0</speed>
  <fix>3d</fix>
</trkpt>
<trkpt lat="-27.274439" lon="151.290064">
  <ele>343.1</ele>
  <time>2026-09-01T19:58:41Z</time>
  <course>270.0</course>
  <speed>0.0</speed>
  <fix>3d</fix>
</trkpt>
<trkpt lat="-27.274439" lon="151.290064">
  <ele>342.99</ele>
  <time>2026-09-01T19:58:41Z</time>
  <course>10.8</course>
  <speed>0.0</speed>
  <fix>3d</fix>
</trkpt>
<trkpt lat="-27.274439" lon="151.290064">
  <ele>343.1</ele>
  <time>2026-09-01T19:58:41Z</time>
  <course>270.0</course>
  <speed>0.0</speed>
  <fix>3d</fix>
</trkpt>
<trkpt lat="-27.274439" lon="151.290064">
  <ele>343.13</ele>
  <time>2026-09-01T19:58:41Z</time>
  <course>10.8</course>
  <speed>0.0</speed>
  <fix>3d</fix>
</trkpt>
<trkpt lat="-27.274439" lon="151.290064">
  <ele>343.1</ele>
  <time>2026-09-01T19:58:41Z</time>
  <course>270.0</course>
  <speed>0.0</speed>
  <fix>3d</fix>
</trkpt>
<trkpt lat="-27.274439" lon="151.290064">
  <ele>343.0</ele>
  <time>2026-09-01T19:58:41Z</time>
  <course>10.8</course>
  <speed>0.0</speed>
  <fix>3d</fix>
</trkpt>
<trkpt lat="-27.274439" lon="151.290064">
  <ele>343.1</ele>
  <time>2026-09-01T19:58:41Z</time>
  <course>270.0</course>
  <speed>0.0</speed>
  <fix>3d</fix>
</trkpt>
<trkpt lat="-27.274439" lon="151.290064">
  <ele>343.17</ele>
  <time>2026-09-01T19:58:41Z</time>
  <course>10.8</course>
  <speed>0.0</speed>
  <fix>3d</fix>
</trkpt>
<trkpt lat="-27.274439" lon="151.290064">
  <ele>343.1</ele>
  <time>2026-09-01T19:58:41Z</time>
  <course>270.0</course>
  <speed>0.0</speed>
  <fix>3d</fix>
</trkpt>
<trkpt lat="-27.274439" lon="151.290064">
  <ele>343.0</ele>
  <time>2026-09-01T19:58:41Z</time>
  <course>10.8</course>
  <speed>0.0</speed>
  <fix>3d</fix>
</trkpt>
<trkpt lat="-27.274439" lon="151.290064">
  <ele>343.1</ele>
  <time>2026-09-01T19:58:41Z</time>
  <course>270.0</course>
  <speed>0.0</speed>
  <fix>3d</fix>
</trkpt>
<trkpt lat="-27.274439" lon="151.290064">
  <ele>342.99</ele>
  <time>2026-09-01T19:58:41Z</time>
  <course>10.8</course>
  <speed>0.0</speed>
  <fix>3d</fix>
</trkpt>
<trkpt lat="-27.274439" lon="151.290064">
  <ele>343.1</ele>
  <time>2026-09-01T19:58:41Z</time>
  <course>270.0</course>
  <speed>0.0</speed>
  <fix>3d</fix>
</trkpt>
<trkpt lat="-27.274439" lon="151.290064">
  <ele>343.17</ele>
  <time>2026-09-01T19:58:41Z</time>
  <course>10.8</course>
  <speed>0.0</speed>
  <fix>3d</fix>
</trkpt>
<trkpt lat="-27.274439" lon="151.290064">
  <ele>343.1</ele>
  <time>2026-09-01T19:58:41Z</time>
  <course>270.0</course>
  <speed>0.0</speed>
  <fix>3d</fix>
</trkpt>
<trkpt lat="-27.274439" lon="151.290064">
  <ele>343.16</ele>
  <time>2026-09-01T19:58:41Z</time>
  <course>10.8</course>
  <speed>0.0</speed>
  <fix>3d</fix>
</trkpt>
<trkpt lat="-27.274439" lon="151.290064">
  <ele>343.1</ele>
  <time>2026-09-01T19:58:41Z</time>
  <course>270.0</course>
  <speed>0.0</speed>
  <fix>3d</fix>
</trkpt>
<trkpt lat="-27.274439" lon="151.290064">
  <ele>342.87</ele>
  <time>2026-09-01T19:58:41Z</time>
  <course>10.8</course>
  <speed>0.0</speed>
  <fix>3d</fix>
</trkpt>
<trkpt lat="-27.274439" lon="151.290064">
  <ele>343.1</ele>
  <time>2026-09-01T19:58:41Z</time>
  <course>270.0</course>
  <speed>0.0</speed>
  <fix>3d</fix>
</trkpt>
<trkpt lat="-27.274439" lon="151.290064">
  <ele>343.19</ele>
  <time>2026-09-01T19:58:41Z</time>
  <course>10.8</course>
  <speed>0.0</speed>
  <fix>3d</fix>
</trkpt>
<trkpt lat="-27.274439" lon="151.290064">
  <ele>343.1</ele>
  <time>2026-09-01T19:58:41Z</time>
  <course>270.0</course>
  <speed>0.0</speed>
  <fix>3d</fix>
</trkpt>
<trkpt lat="-27.274439" lon="151.290064">
  <ele>343.16</ele>
  <time>2026-09-01T19:58:41Z</time>
  <course>10.8</course>
  <speed>0.0</speed>
  <fix>3d</fix>
</trkpt>
<trkpt lat="-27.274439" lon="151.290064">
  <ele>343.1</ele>
  <time>2026-09-01T19:58:41Z</time>
  <course>270.0</course>
  <speed>0.0</speed>
  <fix>3d</fix>
</trkpt>
<trkpt lat="-27.274439" lon="151.290064">
  <ele>343.21</ele>
  <time>2026-09-01T19:58:41Z</time>
  <course>10.8</course>
  <speed>0.0</speed>
  <fix>3d</fix>
</trkpt>
<trkpt lat="-27.274439" lon="151.290064">
  <ele>343.1</ele>
  <time>2026-09-01T19:58:41Z</time>
  <course>270.0</course>
  <speed>0.0</speed>
  <fix>3d</fix>
</trkpt>
<trkpt lat="-27.274439" lon="151.290064">
  <ele>343.22</ele>
  <time>2026-09-01T19:58:41Z</time>
  <course>10.8</course>
  <speed>0.0</speed>
  <fix>3d</fix>
</trkpt>
<trkpt lat="-27.274439" lon="151.290064">
  <ele>343.1</ele>
  <time>2026-09-01T19:58:41Z</time>
  <course>270.0</course>
  <speed>0.0</speed>
  <fix>3d</fix>
</trkpt>
<trkpt lat="-27.274439" lon="151.290064">
  <ele>343.24</ele>
  <time>2026-09-01T19:58:41Z</time>
  <course>10.8</course>
  <speed>0.0</speed>
  <fix>3d</fix>
</trkpt>
<trkpt lat="-27.274439" lon="151.290064">
  <ele>343.1</ele>
  <time>2026-09-01T19:58:41Z</time>
  <course>270.0</course>
  <speed>0.0</speed>
  <fix>3d</fix>
</trkpt>
<trkpt lat="-27.274439" lon="151.290064">
  <ele>343.0</ele>
  <time>2026-09-01T19:58:41Z</time>
  <course>10.8</course>
  <speed>0.0</speed>
  <fix>3d</fix>
</trkpt>
<trkpt lat="-27.274439" lon="151.290064">
  <ele>343.1</ele>
  <time>2026-09-01T19:58:41Z</time>
  <course>270.0</course>
  <speed>0.0</speed>
  <fix>3d</fix>
</trkpt>
<trkpt lat="-27.274439" lon="151.290064">
  <ele>343.1</ele>
  <time>2026-09-01T19:58:41Z</time>
  <course>10.8</course>
  <speed>0.0</speed>
  <fix>3d</fix>
</trkpt>
<trkpt lat="-27.274439" lon="151.290064">
  <ele>343.1</ele>
  <time>2026-09-01T19:58:41Z</time>
  <course>270.0</course>
  <speed>0.0</speed>
  <fix>3d</fix>
</trkpt>
<trkpt lat="-27.274439" lon="151.290064">
  <ele>343.05</ele>
  <time>2026-09-01T19:58:41Z</time>
  <course>10.8</course>
  <speed>0.0</speed>
  <fix>3d</fix>
</trkpt>
<trkpt lat="-27.274439" lon="151.290064">
  <ele>343.1</ele>
  <time>2026-09-01T19:58:41Z</time>
  <course>270.0</course>
  <speed>0.0</speed>
  <fix>3d</fix>
</trkpt>
<trkpt lat="-27.274439" lon="151.290064">
  <ele>342.87</ele>
  <time>2026-09-01T19:58:41Z</time>
  <course>10.8</course>
  <speed>0.0</speed>
  <fix>3d</fix>
</trkpt>
<trkpt lat="-27.274439" lon="151.290064">
  <ele>343.1</ele>
  <time>2026-09-01T19:58:41Z</time>
  <course>270.0</course>
  <speed>0.0</speed>
  <fix>3d</fix>
</trkpt>
<trkpt lat="-27.274439" lon="151.290064">
  <ele>342.92</ele>
  <time>2026-09-01T19:58:41Z</time>
  <course>10.8</course>
  <speed>0.0</speed>
  <fix>3d</fix>
</trkpt>
<trkpt lat="-27.274439" lon="151.290064">
  <ele>343.1</ele>
  <time>2026-09-01T19:58:41Z</time>
  <course>270.0</course>
  <speed>0.0</speed>
  <fix>3d</fix>
</trkpt>
<trkpt lat="-27.274439" lon="151.290064">
  <ele>342.96</ele>
  <time>2026-09-01T19:58:41Z</time>
  <course>10.8</course>
  <speed>0.0</speed>
  <fix>3d</fix>
</trkpt>
<trkpt lat="-27.274439" lon="151.290064">
  <ele>343.1</ele>
  <time>2026-09-01T19:58:41Z</time>
  <course>270.0</course>
  <speed>0.0</speed>
  <fix>3d</fix>
</trkpt>
<trkpt lat="-27.274439" lon="151.290064">
  <ele>343.15</ele>
  <time>2026-09-01T19:58:41Z</time>
  <course>10.8</course>
  <speed>0.0</speed>
  <fix>3d</fix>
</trkpt>
<trkpt lat="-27.274439" lon="151.290064">
  <ele>343.1</ele>
  <time>2026-09-01T19:58:41Z</time>
  <course>270.0</course>
  <speed>0.0</speed>
  <fix>3d</fix>
</trkpt>
<trkpt lat="-27.274439" lon="151.290064">
  <ele>343.16</ele>
  <time>2026-09-01T19:58:41Z</time>
  <course>10.8</course>
  <speed>0.0</speed>
  <fix>3d</fix>
</trkpt>
<trkpt lat="-27.274439" lon="151.290064">
  <ele>343.1</ele>
  <time>2026-09-01T19:58:41Z</time>
  <course>270.0</course>
  <speed>0.0</speed>
  <fix>3d</fix>
</trkpt>
<trkpt lat="-27.274439" lon="151.290064">
  <ele>343.2</ele>
  <time>2026-09-01T19:58:41Z</time>
  <course>10.81</course>
  <speed>0.0</speed>
  <fix>3d</fix>
</trkpt>
<trkpt lat="-27.274439" lon="151.290064">
  <ele>343.1</ele>
  <time>2026-09-01T19:58:41Z</time>
  <course>270.0</course>
  <speed>0.0</speed>
  <fix>3d</fix>
</trkpt>
<trkpt lat="-27.274439" lon="151.290064">
  <ele>343.13</ele>
  <time>2026-09-01T19:58:41Z</time>
  <course>10.82</course>
  <speed>0.0</speed>
  <fix>3d</fix>
</trkpt>
<trkpt lat="-27.274439" lon="151.290064">
  <ele>343.1</ele>
  <time>2026-09-01T19:58:41Z</time>
  <course>270.0</course>
  <speed>0.0</speed>
  <fix>3d</fix>
</trkpt>
<trkpt lat="-27.274439" lon="151.290064">
  <ele>343.0</ele>
  <time>2026-09-01T19:58:41Z</time>
  <course>10.83</course>
  <speed>0.0</speed>
  <fix>3d</fix>
</trkpt>
<trkpt lat="-27.274439" lon="151.290064">
  <ele>343.1</ele>
  <time>2026-09-01T19:58:41Z</time>
  <course>270.0</course>
  <speed>0.0</speed>
  <fix>3d</fix>
</trkpt>
<trkpt lat="-27.274439" lon="151.290064">
  <ele>343.34</ele>
  <time>2026-09-01T19:58:41Z</time>
  <course>10.84</course>
  <speed>0.0</speed>
  <fix>3d</fix>
</trkpt>
<trkpt lat="-27.274439" lon="151.290064">
  <ele>343.1</ele>
  <time>2026-09-01T19:58:41Z</time>
  <course>270.0</course>
  <speed>0.0</speed>
  <fix>3d</fix>
</trkpt>
<trkpt lat="-27.274439" lon="151.290064">
  <ele>343.09</ele>
  <time>2026-09-01T19:58:41Z</time>
  <course>10.85</course>
  <speed>0.0</speed>
  <fix>3d</fix>
</trkpt>
<trkpt lat="-27.274439" lon="151.290064">
  <ele>343.1</ele>
  <time>2026-09-01T19:58:41Z</time>
  <course>270.0</course>
  <speed>0.0</speed>
  <fix>3d</fix>
</trkpt>
<trkpt lat="-27.274439" lon="151.290064">
  <ele>343.23</ele>
  <time>2026-09-01T19:58:41Z</time>
  <course>10.85</course>
  <speed>0.0</speed>
  <fix>3d</fix>
</trkpt>
<trkpt lat="-27.274439" lon="151.290064">
  <ele>343.1</ele>
  <time>2026-09-01T19:58:41Z</time>
  <course>270.0</course>
  <speed>0.0</speed>
  <fix>3d</fix>
</trkpt>
<trkpt lat="-27.274439" lon="151.290064">
  <ele>343.05</ele>
  <time>2026-09-01T19:58:41Z</time>
  <course>10.86</course>
  <speed>0.0</speed>
  <fix>3d</fix>
</trkpt>
<trkpt lat="-27.274439" lon="151.290064">
  <ele>343.1</ele>
  <time>2026-09-01T19:58:41Z</time>
  <course>270.0</course>
  <speed>0.0</speed>
  <fix>3d</fix>
</trkpt>
<trkpt lat="-27.274439" lon="151.290064">
  <ele>343.12</ele>
  <time>2026-09-01T19:58:41Z</time>
  <course>10.87</course>
  <speed>0.0</speed>
  <fix>3d</fix>
</trkpt>
<trkpt lat="-27.274439" lon="151.290064">
  <ele>343.1</ele>
  <time>2026-09-01T19:58:41Z</time>
  <course>270.0</course>
  <speed>0.0</speed>
  <fix>3d</fix>
</trkpt>
<trkpt lat="-27.274439" lon="151.290064">
  <ele>343.25</ele>
  <time>2026-09-01T19:58:41Z</time>
  <course>10.88</course>
  <speed>0.0</speed>
  <fix>3d</fix>
</trkpt>
<trkpt lat="-27.274439" lon="151.290064">
  <ele>343.1</ele>
  <time>2026-09-01T19:58:41Z</time>
  <course>270.0</course>
  <speed>0.0</speed>
  <fix>3d</fix>
</trkpt>
<trkpt lat="-27.274439" lon="151.290064">
  <ele>343.31</ele>
  <time>2026-09-01T19:58:41Z</time>
  <course>10.89</course>
  <speed>0.0</speed>
  <fix>3d</fix>
</trkpt>
<trkpt lat="-27.274439" lon="151.290064">
  <ele>343.1</ele>
  <time>2026-09-01T19:58:41Z</time>
  <course>270.0</course>
  <speed>0.0</speed>
  <fix>3d</fix>
</trkpt>
<trkpt lat="-27.274439" lon="151.290064">
  <ele>342.97</ele>
  <time>2026-09-01T19:58:41Z</time>
  <course>10.89</course>
  <speed>0.0</speed>
  <fix>3d</fix>
</trkpt>
<trkpt lat="-27.274439" lon="151.290064">
  <ele>343.1</ele>
  <time>2026-09-01T19:58:41Z</time>
  <course>270.0</course>
  <speed>0.0</speed>
  <fix>3d</fix>
</trkpt>
<trkpt lat="-27.274439" lon="151.290064">
  <ele>343.16</ele>
  <time>2026-09-01T19:58:41Z</time>
  <course>10.9</course>
  <speed>0.0</speed>
  <fix>3d</fix>
</trkpt>
<trkpt lat="-27.274439" lon="151.290064">
  <ele>343.1</ele>
  <time>2026-09-01T19:58:41Z</time>
  <course>270.0</course>
  <speed>0.0</speed>
  <fix>3d</fix>
</trkpt>
<trkpt lat="-27.274439" lon="151.290064">
  <ele>343.05</ele>
  <time>2026-09-01T19:58:41Z</time>
  <course>10.91</course>
  <speed>0.0</speed>
  <fix>3d</fix>
</trkpt>
<trkpt lat="-27.274439" lon="151.290064">
  <ele>343.1</ele>
  <time>2026-09-01T19:58:41Z</time>
  <course>270.0</course>
  <speed>0.0</speed>
  <fix>3d</fix>
</trkpt>
<trkpt lat="-27.274439" lon="151.290064">
  <ele>343.27</ele>
  <time>2026-09-01T19:58:41Z</time>
  <course>10.92</course>
  <speed>0.0</speed>
  <fix>3d</fix>
</trkpt>
<trkpt lat="-27.274439" lon="151.290064">
  <ele>343.1</ele>
  <time>2026-09-01T19:58:41Z</time>
  <course>270.0</course>
  <speed>0.0</speed>
  <fix>3d</fix>
</trkpt>
<trkpt lat="-27.274439" lon="151.290064">
  <ele>343.09</ele>
  <time>2026-09-01T19:58:41Z</time>
  <course>10.92</course>
  <speed>0.0</speed>
  <fix>3d</fix>
</trkpt>
<trkpt lat="-27.274439" lon="151.290064">
  <ele>343.1</ele>
  <time>2026-09-01T19:58:41Z</time>
  <course>270.0</course>
  <speed>0.0</speed>
  <fix>3d</fix>
</trkpt>
<trkpt lat="-27.274439" lon="151.290064">
  <ele>343.12</ele>
  <time>2026-09-01T19:58:41Z</time>
  <course>10.93</course>
  <speed>0.0</speed>
  <fix>3d</fix>
</trkpt>
<trkpt lat="-27.274439" lon="151.290064">
  <ele>343.1</ele>
  <time>2026-09-01T19:58:41Z</time>
  <course>270.0</course>
  <speed>0.0</speed>
  <fix>3d</fix>
</trkpt>
<trkpt lat="-27.274439" lon="151.290064">
  <ele>342.95</ele>
  <time>2026-09-01T19:58:41Z</time>
  <course>10.94</course>
  <speed>0.0</speed>
  <fix>3d</fix>
</trkpt>
<trkpt lat="-27.274439" lon="151.290064">
  <ele>343.1</ele>
  <time>2026-09-01T19:58:41Z</time>
  <course>270.0</course>
  <speed>0.0</speed>
  <fix>3d</fix>
</trkpt>
<trkpt lat="-27.274439" lon="151.290064">
  <ele>343.19</ele>
  <time>2026-09-01T19:58:41Z</time>
  <course>10.95</course>
  <speed>0.0</speed>
  <fix>3d</fix>
</trkpt>
<trkpt lat="-27.274439" lon="151.290064">
  <ele>343.1</ele>
  <time>2026-09-01T19:58:41Z</time>
  <course>270.0</course>
  <speed>0.0</speed>
  <fix>3d</fix>
</trkpt>
<trkpt lat="-27.274439" lon="151.290064">
  <ele>343.02</ele>
  <time>2026-09-01T19:58:41Z</time>
  <course>10.95</course>
  <speed>0.0</speed>
  <fix>3d</fix>
</trkpt>
<trkpt lat="-27.274439" lon="151.290064">
  <ele>343.1</ele>
  <time>2026-09-01T19:58:41Z</time>
  <course>270.0</course>
  <speed>0.0</speed>
  <fix>3d</fix>
</trkpt>
<trkpt lat="-27.274439" lon="151.290064">
  <ele>343.25</ele>
  <time>2026-09-01T19:58:41Z</time>
  <course>10.96</course>
  <speed>0.0</speed>
  <fix>3d</fix>
</trkpt>
<trkpt lat="-27.274439" lon="151.290064">
  <ele>343.1</ele>
  <time>2026-09-01T19:58:41Z</time>
  <course>270.0</course>
  <speed>0.0</speed>
  <fix>3d</fix>
</trkpt>
<trkpt lat="-27.274439" lon="151.290064">
  <ele>342.94</ele>
  <time>2026-09-01T19:58:41Z</time>
  <course>10.97</course>
  <speed>0.0</speed>
  <fix>3d</fix>
</trkpt>
<trkpt lat="-27.274439" lon="151.290064">
  <ele>343.1</ele>
  <time>2026-09-01T19:58:41Z</time>
  <course>270.0</course>
  <speed>0.0</speed>
  <fix>3d</fix>
</trkpt>
<trkpt lat="-27.274439" lon="151.290064">
  <ele>343.12</ele>
  <time>2026-09-01T19:58:41Z</time>
  <course>10.97</course>
  <speed>0.0</speed>
  <fix>3d</fix>
</trkpt>
<trkpt lat="-27.274439" lon="151.290064">
  <ele>343.1</ele>
  <time>2026-09-01T19:58:41Z</time>
  <course>270.0</course>
  <speed>0.0</speed>
  <fix>3d</fix>
</trkpt>
<trkpt lat="-27.274439" lon="151.290064">
  <ele>343.01</ele>
  <time>2026-09-01T19:58:41Z</time>
  <course>10.98</course>
  <speed>0.0</speed>
  <fix>3d</fix>
</trkpt>
<trkpt lat="-27.274439" lon="151.290064">
  <ele>343.1</ele>
  <time>2026-09-01T19:58:41Z</time>
  <course>270.0</course>
  <speed>0.0</speed>
  <fix>3d</fix>
</trkpt>
<trkpt lat="-27.274439" lon="151.290064">
  <ele>343.13</ele>
  <time>2026-09-01T19:58:41Z</time>
  <course>10.98</course>
  <speed>0.0</speed>
  <fix>3d</fix>
</trkpt>
<trkpt lat="-27.274439" lon="151.290064">
  <ele>343.1</ele>
  <time>2026-09-01T19:58:41Z</time>
  <course>270.0</course>
  <speed>0.0</speed>
  <fix>3d</fix>
</trkpt>
<trkpt lat="-27.274439" lon="151.290064">
  <ele>343.18</ele>
  <time>2026-09-01T19:58:41Z</time>
  <course>10.99</course>
  <speed>0.0</speed>
  <fix>3d</fix>
</trkpt>
<trkpt lat="-27.274439" lon="151.290064">
  <ele>343.1</ele>
  <time>2026-09-01T19:58:41Z</time>
  <course>270.0</course>
  <speed>0.0</speed>
  <fix>3d</fix>
</trkpt>
<trkpt lat="-27.274439" lon="151.290064">
  <ele>342.97</ele>
  <time>2026-09-01T19:58:41Z</time>
  <course>11.0</course>
  <speed>0.0</speed>
  <fix>3d</fix>
</trkpt>
<trkpt lat="-27.274439" lon="151.290064">
  <ele>343.1</ele>
  <time>2026-09-01T19:58:41Z</time>
  <course>270.0</course>
  <speed>0.0</speed>
  <fix>3d</fix>
</trkpt>
<trkpt lat="-27.274439" lon="151.290064">
  <ele>343.14</ele>
  <time>2026-09-01T19:58:41Z</time>
  <course>11.0</course>
  <speed>0.0</speed>
  <fix>3d</fix>
</trkpt>
<trkpt lat="-27.274439" lon="151.290064">
  <ele>343.1</ele>
  <time>2026-09-01T19:58:41Z</time>
  <course>270.0</course>
  <speed>0.0</speed>
  <fix>3d</fix>
</trkpt>
<trkpt lat="-27.274439" lon="151.290064">
  <ele>342.96</ele>
  <time>2026-09-01T19:58:41Z</time>
  <course>11.01</course>
  <speed>0.0</speed>
  <fix>3d</fix>
</trkpt>
<trkpt lat="-27.274439" lon="151.290064">
  <ele>343.1</ele>
  <time>2026-09-01T19:58:41Z</time>
  <course>270.0</course>
  <speed>0.0</speed>
  <fix>3d</fix>
</trkpt>
<trkpt lat="-27.274439" lon="151.290064">
  <ele>343.3</ele>
  <time>2026-09-01T19:58:41Z</time>
  <course>11.01</course>
  <speed>0.0</speed>
  <fix>3d</fix>
</trkpt>
<trkpt lat="-27.274439" lon="151.290064">
  <ele>343.1</ele>
  <time>2026-09-01T19:58:41Z</time>
  <course>270.0</course>
  <speed>0.0</speed>
  <fix>3d</fix>
</trkpt>
<trkpt lat="-27.274439" lon="151.290064">
  <ele>343.22</ele>
  <time>2026-09-01T19:58:41Z</time>
  <course>11.02</course>
  <speed>0.0</speed>
  <fix>3d</fix>
</trkpt>
<trkpt lat="-27.274439" lon="151.290064">
  <ele>343.1</ele>
  <time>2026-09-01T19:58:41Z</time>
  <course>270.0</course>
  <speed>0.0</speed>
  <fix>3d</fix>
</trkpt>
<trkpt lat="-27.274439" lon="151.290064">
  <ele>343.08</ele>
  <time>2026-09-01T19:58:41Z</time>
  <course>11.02</course>
  <speed>0.0</speed>
  <fix>3d</fix>
</trkpt>
<trkpt lat="-27.274439" lon="151.290064">
  <ele>343.1</ele>
  <time>2026-09-01T19:58:41Z</time>
  <course>270.0</course>
  <speed>0.0</speed>
  <fix>3d</fix>
</trkpt>
<trkpt lat="-27.274439" lon="151.290064">
  <ele>343.23</ele>
  <time>2026-09-01T19:58:41Z</time>
  <course>11.03</course>
  <speed>0.0</speed>
  <fix>3d</fix>
</trkpt>
<trkpt lat="-27.274439" lon="151.290064">
  <ele>343.1</ele>
  <time>2026-09-01T19:58:41Z</time>
  <course>270.0</course>
  <speed>0.0</speed>
  <fix>3d</fix>
</trkpt>
<trkpt lat="-27.274439" lon="151.290064">
  <ele>343.33</ele>
  <time>2026-09-01T19:58:41Z</time>
  <course>11.04</course>
  <speed>0.0</speed>
  <fix>3d</fix>
</trkpt>
<trkpt lat="-27.274439" lon="151.290064">
  <ele>343.1</ele>
  <time>2026-09-01T19:58:41Z</time>
  <course>270.0</course>
  <speed>0.0</speed>
  <fix>3d</fix>
</trkpt>
<trkpt lat="-27.274439" lon="151.290064">
  <ele>343.05</ele>
  <time>2026-09-01T19:58:41Z</time>
  <course>11.04</course>
  <speed>0.0</speed>
  <fix>3d</fix>
</trkpt>
<trkpt lat="-27.274439" lon="151.290064">
  <ele>343.1</ele>
  <time>2026-09-01T19:58:41Z</time>
  <course>270.0</course>
  <speed>0.0</speed>
  <fix>3d</fix>
</trkpt>
<trkpt lat="-27.274439" lon="151.290064">
  <ele>343.16</ele>
  <time>2026-09-01T19:58:41Z</time>
  <course>11.05</course>
  <speed>0.0</speed>
  <fix>3d</fix>
</trkpt>
<trkpt lat="-27.274439" lon="151.290064">
  <ele>343.1</ele>
  <time>2026-09-01T19:58:41Z</time>
  <course>270.0</course>
  <speed>0.0</speed>
  <fix>3d</fix>
</trkpt>
<trkpt lat="-27.274439" lon="151.290064">
  <ele>343.16</ele>
  <time>2026-09-01T19:58:41Z</time>
  <course>11.05</course>
  <speed>0.0</speed>
  <fix>3d</fix>
</trkpt>
<trkpt lat="-27.274439" lon="151.290064">
  <ele>343.1</ele>
  <time>2026-09-01T19:58:41Z</time>
  <course>270.0</course>
  <speed>0.0</speed>
  <fix>3d</fix>
</trkpt>
<trkpt lat="-27.274439" lon="151.290064">
  <ele>343.08</ele>
  <time>2026-09-01T19:58:41Z</time>
  <course>11.06</course>
  <speed>0.0</speed>
  <fix>3d</fix>
</trkpt>
<trkpt lat="-27.274439" lon="151.290064">
  <ele>343.1</ele>
  <time>2026-09-01T19:58:41Z</time>
  <course>270.0</course>
  <speed>0.0</speed>
  <fix>3d</fix>
</trkpt>
<trkpt lat="-27.274439" lon="151.290064">
  <ele>343.17</ele>
  <time>2026-09-01T19:58:41Z</time>
  <course>11.06</course>
  <speed>0.0</speed>
  <fix>3d</fix>
</trkpt>
<trkpt lat="-27.274439" lon="151.290064">
  <ele>343.1</ele>
  <time>2026-09-01T19:58:41Z</time>
  <course>270.0</course>
  <speed>0.0</speed>
  <fix>3d</fix>
</trkpt>
<trkpt lat="-27.274439" lon="151.290064">
  <ele>343.22</ele>
  <time>2026-09-01T19:58:41Z</time>
  <course>11.07</course>
  <speed>0.0</speed>
  <fix>3d</fix>
</trkpt>
<trkpt lat="-27.274439" lon="151.290064">
  <ele>343.1</ele>
  <time>2026-09-01T19:58:41Z</time>
  <course>270.0</course>
  <speed>0.0</speed>
  <fix>3d</fix>
</trkpt>
<trkpt lat="-27.274439" lon="151.290064">
  <ele>343.01</ele>
  <time>2026-09-01T19:58:41Z</time>
  <course>11.07</course>
  <speed>0.0</speed>
  <fix>3d</fix>
</trkpt>
<trkpt lat="-27.274439" lon="151.290064">
  <ele>343.1</ele>
  <time>2026-09-01T19:58:41Z</time>
  <course>270.0</course>
  <speed>0.0</speed>
  <fix>3d</fix>
</trkpt>
<trkpt lat="-27.274439" lon="151.290064">
  <ele>343.26</ele>
  <time>2026-09-01T19:58:41Z</time>
  <course>11.08</course>
  <speed>0.0</speed>
  <fix>3d</fix>
</trkpt>
<trkpt lat="-27.274439" lon="151.290064">
  <ele>343.1</ele>
  <time>2026-09-01T19:58:41Z</time>
  <course>270.0</course>
  <speed>0.0</speed>
  <fix>3d</fix>
</trkpt>
<trkpt lat="-27.274439" lon="151.290064">
  <ele>343.28</ele>
  <time>2026-09-01T19:58:41Z</time>
  <course>11.08</course>
  <speed>0.0</speed>
  <fix>3d</fix>
</trkpt>
<trkpt lat="-27.274439" lon="151.290064">
  <ele>343.1</ele>
  <time>2026-09-01T19:58:41Z</time>
  <course>270.0</course>
  <speed>0.0</speed>
  <fix>3d</fix>
</trkpt>
<trkpt lat="-27.274439" lon="151.290064">
  <ele>343.34</ele>
  <time>2026-09-01T19:58:41Z</time>
  <course>11.09</course>
  <speed>0.0</speed>
  <fix>3d</fix>
</trkpt>
<trkpt lat="-27.274439" lon="151.290064">
  <ele>343.1</ele>
  <time>2026-09-01T19:58:41Z</time>
  <course>270.0</course>
  <speed>0.0</speed>
  <fix>3d</fix>
</trkpt>
<trkpt lat="-27.274439" lon="151.290064">
  <ele>343.1</ele>
  <time>2026-09-01T19:58:41Z</time>
  <course>11.09</course>
  <speed>0.0</speed>
  <fix>3d</fix>
</trkpt>
<trkpt lat="-27.274439" lon="151.290064">
  <ele>343.1</ele>
  <time>2026-09-01T19:58:41Z</time>
  <course>270.0</course>
  <speed>0.0</speed>
  <fix>3d</fix>
</trkpt>
<trkpt lat="-27.274439" lon="151.290064">
  <ele>342.96</ele>
  <time>2026-09-01T19:58:41Z</time>
  <course>11.09</course>
  <speed>0.0</speed>
  <fix>3d</fix>
</trkpt>
<trkpt lat="-27.274439" lon="151.290064">
  <ele>343.1</ele>
  <time>2026-09-01T19:58:41Z</time>
  <course>270.0</course>
  <speed>0.0</speed>
  <fix>3d</fix>
</trkpt>
<trkpt lat="-27.274439" lon="151.290064">
  <ele>343.03</ele>
  <time>2026-09-01T19:58:41Z</time>
  <course>11.1</course>
  <speed>0.0</speed>
  <fix>3d</fix>
</trkpt>
<trkpt lat="-27.274439" lon="151.290064">
  <ele>343.1</ele>
  <time>2026-09-01T19:58:41Z</time>
  <course>270.0</course>
  <speed>0.0</speed>
  <fix>3d</fix>
</trkpt>
<trkpt lat="-27.274439" lon="151.290064">
  <ele>343.23</ele>
  <time>2026-09-01T19:58:41Z</time>
  <course>11.1</course>
  <speed>0.0</speed>
  <fix>3d</fix>
</trkpt>
<trkpt lat="-27.274439" lon="151.290064">
  <ele>343.1</ele>
  <time>2026-09-01T19:58:41Z</time>
  <course>270.0</course>
  <speed>0.0</speed>
  <fix>3d</fix>
</trkpt>
<trkpt lat="-27.274439" lon="151.290064">
  <ele>343.14</ele>
  <time>2026-09-01T19:58:41Z</time>
  <course>11.11</course>
  <speed>0.0</speed>
  <fix>3d</fix>
</trkpt>
<trkpt lat="-27.274439" lon="151.290064">
  <ele>343.1</ele>
  <time>2026-09-01T19:58:41Z</time>
  <course>270.0</course>
  <speed>0.0</speed>
  <fix>3d</fix>
</trkpt>
<trkpt lat="-27.274439" lon="151.290064">
  <ele>343.13</ele>
  <time>2026-09-01T19:58:41Z</time>
  <course>11.11</course>
  <speed>0.0</speed>
  <fix>3d</fix>
</trkpt>
<trkpt lat="-27.274439" lon="151.290064">
  <ele>343.1</ele>
  <time>2026-09-01T19:58:41Z</time>
  <course>270.0</course>
  <speed>0.0</speed>
  <fix>3d</fix>
</trkpt>
<trkpt lat="-27.274439" lon="151.290064">
  <ele>343.03</ele>
  <time>2026-09-01T19:58:41Z</time>
  <course>11.12</course>
  <speed>0.0</speed>
  <fix>3d</fix>
</trkpt>
<trkpt lat="-27.274439" lon="151.290064">
  <ele>343.1</ele>
  <time>2026-09-01T19:58:41Z</time>
  <course>270.0</course>
  <speed>0.0</speed>
  <fix>3d</fix>
</trkpt>
<trkpt lat="-27.274439" lon="151.290064">
  <ele>343.15</ele>
  <time>2026-09-01T19:58:41Z</time>
  <course>11.12</course>
  <speed>0.0</speed>
  <fix>3d</fix>
</trkpt>
<trkpt lat="-27.274439" lon="151.290064">
  <ele>343.1</ele>
  <time>2026-09-01T19:58:41Z</time>
  <course>270.0</course>
  <speed>0.0</speed>
  <fix>3d</fix>
</trkpt>
<trkpt lat="-27.274439" lon="151.290064">
  <ele>343.14</ele>
  <time>2026-09-01T19:58:41Z</time>
  <course>11.13</course>
  <speed>0.0</speed>
  <fix>3d</fix>
</trkpt>
<trkpt lat="-27.274439" lon="151.290064">
  <ele>343.1</ele>
  <time>2026-09-01T19:58:41Z</time>
  <course>270.0</course>
  <speed>0.0</speed>
  <fix>3d</fix>
</trkpt>
<trkpt lat="-27.274439" lon="151.290064">
  <ele>343.17</ele>
  <time>2026-09-01T19:58:41Z</time>
  <course>11.13</course>
  <speed>0.0</speed>
  <fix>3d</fix>
</trkpt>
<trkpt lat="-27.274439" lon="151.290064">
  <ele>343.1</ele>
  <time>2026-09-01T19:58:41Z</time>
  <course>270.0</course>
  <speed>0.0</speed>
  <fix>3d</fix>
</trkpt>
<trkpt lat="-27.274439" lon="151.290064">
  <ele>342.95</ele>
  <time>2026-09-01T19:58:41Z</time>
  <course>11.13</course>
  <speed>0.0</speed>
  <fix>3d</fix>
</trkpt>
<trkpt lat="-27.274439" lon="151.290064">
  <ele>343.1</ele>
  <time>2026-09-01T19:58:41Z</time>
  <course>270.0</course>
  <speed>0.0</speed>
  <fix>3d</fix>
</trkpt>
<trkpt lat="-27.274439" lon="151.290064">
  <ele>343.06</ele>
  <time>2026-09-01T19:58:41Z</time>
  <course>11.14</course>
  <speed>0.0</speed>
  <fix>3d</fix>
</trkpt>
<trkpt lat="-27.274439" lon="151.290064">
  <ele>343.1</ele>
  <time>2026-09-01T19:58:41Z</time>
  <course>270.0</course>
  <speed>0.0</speed>
  <fix>3d</fix>
</trkpt>
<trkpt lat="-27.274439" lon="151.290064">
  <ele>343.11</ele>
  <time>2026-09-01T19:58:41Z</time>
  <course>11.14</course>
  <speed>0.0</speed>
  <fix>3d</fix>
</trkpt>
<trkpt lat="-27.274439" lon="151.290064">
  <ele>343.1</ele>
  <time>2026-09-01T19:58:41Z</time>
  <course>270.0</course>
  <speed>0.0</speed>
  <fix>3d</fix>
</trkpt>
<trkpt lat="-27.274439" lon="151.290064">
  <ele>343.3</ele>
  <time>2026-09-01T19:58:41Z</time>
  <course>11.15</course>
  <speed>0.0</speed>
  <fix>3d</fix>
</trkpt>
<trkpt lat="-27.274439" lon="151.290064">
  <ele>343.1</ele>
  <time>2026-09-01T19:58:41Z</time>
  <course>270.0</course>
  <speed>0.0</speed>
  <fix>3d</fix>
</trkpt>
<trkpt lat="-27.274439" lon="151.290064">
  <ele>343.03</ele>
  <time>2026-09-01T19:58:41Z</time>
  <course>11.15</course>
  <speed>0.0</speed>
  <fix>3d</fix>
</trkpt>
<trkpt lat="-27.274439" lon="151.290064">
  <ele>343.1</ele>
  <time>2026-09-01T19:58:41Z</time>
  <course>270.0</course>
  <speed>0.0</speed>
  <fix>3d</fix>
</trkpt>
<trkpt lat="-27.274439" lon="151.290064">
  <ele>343.13</ele>
  <time>2026-09-01T19:58:41Z</time>
  <course>11.15</course>
  <speed>0.0</speed>
  <fix>3d</fix>
</trkpt>
<trkpt lat="-27.274439" lon="151.290064">
  <ele>343.1</ele>
  <time>2026-09-01T19:58:41Z</time>
  <course>270.0</course>
  <speed>0.0</speed>
  <fix>3d</fix>
</trkpt>
<trkpt lat="-27.274439" lon="151.290064">
  <ele>343.02</ele>
  <time>2026-09-01T19:58:41Z</time>
  <course>11.16</course>
  <speed>0.0</speed>
  <fix>3d</fix>
</trkpt>
<trkpt lat="-27.274439" lon="151.290064">
  <ele>343.1</ele>
  <time>2026-09-01T19:58:41Z</time>
  <course>270.0</course>
  <speed>0.0</speed>
  <fix>3d</fix>
</trkpt>
<trkpt lat="-27.274439" lon="151.290064">
  <ele>343.17</ele>
  <time>2026-09-01T19:58:41Z</time>
  <course>11.16</course>
  <speed>0.0</speed>
  <fix>3d</fix>
</trkpt>
<trkpt lat="-27.274439" lon="151.290064">
  <ele>343.1</ele>
  <time>2026-09-01T19:58:41Z</time>
  <course>270.0</course>
  <speed>0.0</speed>
  <fix>3d</fix>
</trkpt>
<trkpt lat="-27.274439" lon="151.290064">
  <ele>343.26</ele>
  <time>2026-09-01T19:58:41Z</time>
  <course>11.17</course>
  <speed>0.0</speed>
  <fix>3d</fix>
</trkpt>
<trkpt lat="-27.274439" lon="151.290064">
  <ele>343.1</ele>
  <time>2026-09-01T19:58:41Z</time>
  <course>270.0</course>
  <speed>0.0</speed>
  <fix>3d</fix>
</trkpt>
<trkpt lat="-27.274439" lon="151.290064">
  <ele>343.29</ele>
  <time>2026-09-01T19:58:41Z</time>
  <course>11.17</course>
  <speed>0.0</speed>
  <fix>3d</fix>
</trkpt>
<trkpt lat="-27.274439" lon="151.290064">
  <ele>343.1</ele>
  <time>2026-09-01T19:58:41Z</time>
  <course>270.0</course>
  <speed>0.0</speed>
  <fix>3d</fix>
</trkpt>
<trkpt lat="-27.274439" lon="151.290064">
  <ele>343.13</ele>
  <time>2026-09-01T19:58:41Z</time>
  <course>11.17</course>
  <speed>0.0</speed>
  <fix>3d</fix>
</trkpt>
<trkpt lat="-27.274439" lon="151.290064">
  <ele>343.1</ele>
  <time>2026-09-01T19:58:41Z</time>
  <course>270.0</course>
  <speed>0.0</speed>
  <fix>3d</fix>
</trkpt>
<trkpt lat="-27.274439" lon="151.290064">
  <ele>343.1</ele>
  <time>2026-09-01T19:58:41Z</time>
  <course>11.18</course>
  <speed>0.0</speed>
  <fix>3d</fix>
</trkpt>
<trkpt lat="-27.274439" lon="151.290064">
  <ele>343.1</ele>
  <time>2026-09-01T19:58:41Z</time>
  <course>270.0</course>
  <speed>0.0</speed>
  <fix>3d</fix>
</trkpt>
<trkpt lat="-27.274439" lon="151.290064">
  <ele>343.2</ele>
  <time>2026-09-01T19:58:41Z</time>
  <course>11.18</course>
  <speed>0.0</speed>
  <fix>3d</fix>
</trkpt>
<trkpt lat="-27.274439" lon="151.290064">
  <ele>343.1</ele>
  <time>2026-09-01T19:58:41Z</time>
  <course>270.0</course>
  <speed>0.0</speed>
  <fix>3d</fix>
</trkpt>
<trkpt lat="-27.274439" lon="151.290064">
  <ele>343.09</ele>
  <time>2026-09-01T19:58:41Z</time>
  <course>11.18</course>
  <speed>0.0</speed>
  <fix>3d</fix>
</trkpt>
<trkpt lat="-27.274439" lon="151.290064">
  <ele>343.1</ele>
  <time>2026-09-01T19:58:41Z</time>
  <course>270.0</course>
  <speed>0.0</speed>
  <fix>3d</fix>
</trkpt>
<trkpt lat="-27.274439" lon="151.290064">
  <ele>343.11</ele>
  <time>2026-09-01T19:58:41Z</time>
  <course>11.19</course>
  <speed>0.0</speed>
  <fix>3d</fix>
</trkpt>
<trkpt lat="-27.274439" lon="151.290064">
  <ele>343.1</ele>
  <time>2026-09-01T19:58:41Z</time>
  <course>270.0</course>
  <speed>0.0</speed>
  <fix>3d</fix>
</trkpt>
<trkpt lat="-27.274439" lon="151.290064">
  <ele>343.21</ele>
  <time>2026-09-01T19:58:41Z</time>
  <course>11.19</course>
  <speed>0.0</speed>
  <fix>3d</fix>
</trkpt>
<trkpt lat="-27.274439" lon="151.290064">
  <ele>343.1</ele>
  <time>2026-09-01T19:58:41Z</time>
  <course>270.0</course>
  <speed>0.0</speed>
  <fix>3d</fix>
</trkpt>
<trkpt lat="-27.274439" lon="151.290064">
  <ele>343.22</ele>
  <time>2026-09-01T19:58:41Z</time>
  <course>11.19</course>
  <speed>0.0</speed>
  <fix>3d</fix>
</trkpt>
<trkpt lat="-27.274439" lon="151.290064">
  <ele>343.1</ele>
  <time>2026-09-01T19:58:41Z</time>
  <course>270.0</course>
  <speed>0.0</speed>
  <fix>3d</fix>
</trkpt>
<trkpt lat="-27.274439" lon="151.290064">
  <ele>342.98</ele>
  <time>2026-09-01T19:58:41Z</time>
  <course>11.2</course>
  <speed>0.0</speed>
  <fix>3d</fix>
</trkpt>
<trkpt lat="-27.274439" lon="151.290064">
  <ele>343.1</ele>
  <time>2026-09-01T19:58:41Z</time>
  <course>270.0</course>
  <speed>0.0</speed>
  <fix>3d</fix>
</trkpt>
<trkpt lat="-27.274439" lon="151.290064">
  <ele>343.15</ele>
  <time>2026-09-01T19:58:41Z</time>
  <course>11.2</course>
  <speed>0.0</speed>
  <fix>3d</fix>
</trkpt>
<trkpt lat="-27.274439" lon="151.290064">
  <ele>343.1</ele>
  <time>2026-09-01T19:58:41Z</time>
  <course>270.0</course>
  <speed>0.0</speed>
  <fix>3d</fix>
</trkpt>
<trkpt lat="-27.274439" lon="151.290064">
  <ele>343.28</ele>
  <time>2026-09-01T19:58:41Z</time>
  <course>11.2</course>
  <speed>0.0</speed>
  <fix>3d</fix>
</trkpt>
<trkpt lat="-27.274439" lon="151.290064">
  <ele>343.1</ele>
  <time>2026-09-01T19:58:41Z</time>
  <course>270.0</course>
  <speed>0.0</speed>
  <fix>3d</fix>
</trkpt>
<trkpt lat="-27.274439" lon="151.290064">
  <ele>343.3</ele>
  <time>2026-09-01T19:58:41Z</time>
  <course>11.2</course>
  <speed>0.0</speed>
  <fix>3d</fix>
</trkpt>
<trkpt lat="-27.274439" lon="151.290064">
  <ele>343.1</ele>
  <time>2026-09-01T19:58:41Z</time>
  <course>270.0</course>
  <speed>0.0</speed>
  <fix>3d</fix>
</trkpt>
<trkpt lat="-27.274439" lon="151.290064">
  <ele>343.33</ele>
  <time>2026-09-01T19:58:41Z</time>
  <course>11.2</course>
  <speed>0.0</speed>
  <fix>3d</fix>
</trkpt>
<trkpt lat="-27.274439" lon="151.290064">
  <ele>343.1</ele>
  <time>2026-09-01T19:58:41Z</time>
  <course>270.0</course>
  <speed>0.0</speed>
  <fix>3d</fix>
</trkpt>
<trkpt lat="-27.274439" lon="151.290064">
  <ele>342.96</ele>
  <time>2026-09-01T19:58:41Z</time>
  <course>11.21</course>
  <speed>0.0</speed>
  <fix>3d</fix>
</trkpt>
<trkpt lat="-27.274439" lon="151.290064">
  <ele>343.1</ele>
  <time>2026-09-01T19:58:41Z</time>
  <course>270.0</course>
  <speed>0.0</speed>
  <fix>3d</fix>
</trkpt>
<trkpt lat="-27.274439" lon="151.290064">
  <ele>342.97</ele>
  <time>2026-09-01T19:58:41Z</time>
  <course>11.21</course>
  <speed>0.0</speed>
  <fix>3d</fix>
</trkpt>
<trkpt lat="-27.274439" lon="151.290064">
  <ele>343.1</ele>
  <time>2026-09-01T19:58:41Z</time>
  <course>270.0</course>
  <speed>0.0</speed>
  <fix>3d</fix>
</trkpt>
<trkpt lat="-27.274439" lon="151.290064">
  <ele>342.83</ele>
  <time>2026-09-01T19:58:41Z</time>
  <course>11.21</course>
  <speed>0.0</speed>
  <fix>3d</fix>
</trkpt>
<trkpt lat="-27.274439" lon="151.290064">
  <ele>343.1</ele>
  <time>2026-09-01T19:58:41Z</time>
  <course>270.0</course>
  <speed>0.0</speed>
  <fix>3d</fix>
</trkpt>
<trkpt lat="-27.274439" lon="151.290064">
  <ele>342.84</ele>
  <time>2026-09-01T19:58:41Z</time>
  <course>11.21</course>
  <speed>0.0</speed>
  <fix>3d</fix>
</trkpt>
<trkpt lat="-27.274439" lon="151.290064">
  <ele>343.1</ele>
  <time>2026-09-01T19:58:41Z</time>
  <course>270.0</course>
  <speed>0.0</speed>
  <fix>3d</fix>
</trkpt>
<trkpt lat="-27.274439" lon="151.290064">
  <ele>342.75</ele>
  <time>2026-09-01T19:58:41Z</time>
  <course>11.21</course>
  <speed>0.0</speed>
  <fix>3d</fix>
</trkpt>
<trkpt lat="-27.274439" lon="151.290064">
  <ele>343.1</ele>
  <time>2026-09-01T19:58:41Z</time>
  <course>270.0</course>
  <speed>0.0</speed>
  <fix>3d</fix>
</trkpt>
<trkpt lat="-27.274439" lon="151.290064">
  <ele>343.03</ele>
  <time>2026-09-01T19:58:41Z</time>
  <course>11.21</course>
  <speed>0.0</speed>
  <fix>3d</fix>
</trkpt>
<trkpt lat="-27.274439" lon="151.290064">
  <ele>343.1</ele>
  <time>2026-09-01T19:58:41Z</time>
  <course>270.0</course>
  <speed>0.0</speed>
  <fix>3d</fix>
</trkpt>
<trkpt lat="-27.274439" lon="151.290064">
  <ele>342.8</ele>
  <time>2026-09-01T19:58:41Z</time>
  <course>11.21</course>
  <speed>0.0</speed>
  <fix>3d</fix>
</trkpt>
<trkpt lat="-27.274439" lon="151.290064">
  <ele>343.1</ele>
  <time>2026-09-01T19:58:41Z</time>
  <course>270.0</course>
  <speed>0.0</speed>
  <fix>3d</fix>
</trkpt>
<trkpt lat="-27.274439" lon="151.290064">
  <ele>343.05</ele>
  <time>2026-09-01T19:58:41Z</time>
  <course>11.21</course>
  <speed>0.0</speed>
  <fix>3d</fix>
</trkpt>
<trkpt lat="-27.274439" lon="151.290064">
  <ele>343.1</ele>
  <time>2026-09-01T19:58:41Z</time>
  <course>270.0</course>
  <speed>0.0</speed>
  <fix>3d</fix>
</trkpt>
<trkpt lat="-27.274439" lon="151.290064">
  <ele>343.03</ele>
  <time>2026-09-01T19:58:41Z</time>
  <course>11.21</course>
  <speed>0.0</speed>
  <fix>3d</fix>
</trkpt>
<trkpt lat="-27.274439" lon="151.290064">
  <ele>343.1</ele>
  <time>2026-09-01T19:58:41Z</time>
  <course>270.0</course>
  <speed>0.0</speed>
  <fix>3d</fix>
</trkpt>
<trkpt lat="-27.274439" lon="151.290064">
  <ele>342.88</ele>
  <time>2026-09-01T19:58:41Z</time>
  <course>11.21</course>
  <speed>0.0</speed>
  <fix>3d</fix>
</trkpt>
<trkpt lat="-27.274439" lon="151.290064">
  <ele>343.1</ele>
  <time>2026-09-01T19:58:41Z</time>
  <course>270.0</course>
  <speed>0.0</speed>
  <fix>3d</fix>
</trkpt>
<trkpt lat="-27.274439" lon="151.290064">
  <ele>342.83</ele>
  <time>2026-09-01T19:58:41Z</time>
  <course>11.22</course>
  <speed>0.0</speed>
  <fix>3d</fix>
</trkpt>
<trkpt lat="-27.274439" lon="151.290064">
  <ele>343.1</ele>
  <time>2026-09-01T19:58:41Z</time>
  <course>270.0</course>
  <speed>0.0</speed>
  <fix>3d</fix>
</trkpt>
<trkpt lat="-27.274439" lon="151.290064">
  <ele>342.87</ele>
  <time>2026-09-01T19:58:41Z</time>
  <course>11.22</course>
  <speed>0.0</speed>
  <fix>3d</fix>
</trkpt>
<trkpt lat="-27.274439" lon="151.290064">
  <ele>343.1</ele>
  <time>2026-09-01T19:58:41Z</time>
  <course>270.0</course>
  <speed>0.0</speed>
  <fix>3d</fix>
</trkpt>
<trkpt lat="-27.274439" lon="151.290064">
  <ele>342.78</ele>
  <time>2026-09-01T19:58:41Z</time>
  <course>11.22</course>
  <speed>0.0</speed>
  <fix>3d</fix>
</trkpt>
<trkpt lat="-27.274439" lon="151.290064">
  <ele>343.1</ele>
  <time>2026-09-01T19:58:41Z</time>
  <course>270.0</course>
  <speed>0.0</speed>
  <fix>3d</fix>
</trkpt>
<trkpt lat="-27.274439" lon="151.290064">
  <ele>342.8</ele>
  <time>2026-09-01T19:58:41Z</time>
  <course>11.22</course>
  <speed>0.0</speed>
  <fix>3d</fix>
</trkpt>
<trkpt lat="-27.274439" lon="151.290064">
  <ele>343.1</ele>
  <time>2026-09-01T19:58:41Z</time>
  <course>270.0</course>
  <speed>0.0</speed>
  <fix>3d</fix>
</trkpt>
<trkpt lat="-27.274439" lon="151.290064">
  <ele>342.9</ele>
  <time>2026-09-01T19:58:41Z</time>
  <course>11.22</course>
  <speed>0.0</speed>
  <fix>3d</fix>
</trkpt>
<trkpt lat="-27.274439" lon="151.290064">
  <ele>343.1</ele>
  <time>2026-09-01T19:58:41Z</time>
  <course>270.0</course>
  <speed>0.0</speed>
  <fix>3d</fix>
</trkpt>
<trkpt lat="-27.274439" lon="151.290064">
  <ele>342.82</ele>
  <time>2026-09-01T19:58:41Z</time>
  <course>11.22</course>
  <speed>0.0</speed>
  <fix>3d</fix>
</trkpt>
<trkpt lat="-27.274439" lon="151.290064">
  <ele>343.1</ele>
  <time>2026-09-01T19:58:41Z</time>
  <course>270.0</course>
  <speed>0.0</speed>
  <fix>3d</fix>
</trkpt>
<trkpt lat="-27.274439" lon="151.290064">
  <ele>342.8</ele>
  <time>2026-09-01T19:58:41Z</time>
  <course>11.22</course>
  <speed>0.0</speed>
  <fix>3d</fix>
</trkpt>
<trkpt lat="-27.274439" lon="151.290064">
  <ele>343.1</ele>
  <time>2026-09-01T19:58:41Z</time>
  <course>270.0</course>
  <speed>0.0</speed>
  <fix>3d</fix>
</trkpt>
<trkpt lat="-27.274439" lon="151.290064">
  <ele>342.8</ele>
  <time>2026-09-01T19:58:41Z</time>
  <course>11.22</course>
  <speed>0.0</speed>
  <fix>3d</fix>
</trkpt>
<trkpt lat="-27.274439" lon="151.290064">
  <ele>343.1</ele>
  <time>2026-09-01T19:58:41Z</time>
  <course>270.0</course>
  <speed>0.0</speed>
  <fix>3d</fix>
</trkpt>
<trkpt lat="-27.274439" lon="151.290064">
  <ele>342.83</ele>
  <time>2026-09-01T19:58:41Z</time>
  <course>11.22</course>
  <speed>0.0</speed>
  <fix>3d</fix>
</trkpt>
<trkpt lat="-27.274439" lon="151.290064">
  <ele>343.1</ele>
  <time>2026-09-01T19:58:41Z</time>
  <course>270.0</course>
  <speed>0.0</speed>
  <fix>3d</fix>
</trkpt>
<trkpt lat="-27.274439" lon="151.290064">
  <ele>343.04</ele>
  <time>2026-09-01T19:58:41Z</time>
  <course>11.22</course>
  <speed>0.0</speed>
  <fix>3d</fix>
</trkpt>
<trkpt lat="-27.274439" lon="151.290064">
  <ele>343.1</ele>
  <time>2026-09-01T19:58:41Z</time>
  <course>270.0</course>
  <speed>0.0</speed>
  <fix>3d</fix>
</trkpt>
<trkpt lat="-27.274439" lon="151.290064">
  <ele>342.99</ele>
  <time>2026-09-01T19:58:41Z</time>
  <course>11.22</course>
  <speed>0.0</speed>
  <fix>3d</fix>
</trkpt>
<trkpt lat="-27.274439" lon="151.290064">
  <ele>343.1</ele>
  <time>2026-09-01T19:58:41Z</time>
  <course>270.0</course>
  <speed>0.0</speed>
  <fix>3d</fix>
</trkpt>
<trkpt lat="-27.274439" lon="151.290064">
  <ele>342.99</ele>
  <time>2026-09-01T19:58:41Z</time>
  <course>11.22</course>
  <speed>0.0</speed>
  <fix>3d</fix>
</trkpt>
<trkpt lat="-27.274439" lon="151.290064">
  <ele>343.1</ele>
  <time>2026-09-01T19:58:41Z</time>
  <course>270.0</course>
  <speed>0.0</speed>
  <fix>3d</fix>
</trkpt>
<trkpt lat="-27.274439" lon="151.290064">
  <ele>342.95</ele>
  <time>2026-09-01T19:58:41Z</time>
  <course>11.23</course>
  <speed>0.0</speed>
  <fix>3d</fix>
</trkpt>
<trkpt lat="-27.274439" lon="151.290064">
  <ele>343.1</ele>
  <time>2026-09-01T19:58:41Z</time>
  <course>270.0</course>
  <speed>0.0</speed>
  <fix>3d</fix>
</trkpt>
<trkpt lat="-27.274439" lon="151.290064">
  <ele>343.0</ele>
  <time>2026-09-01T19:58:41Z</time>
  <course>11.23</course>
  <speed>0.0</speed>
  <fix>3d</fix>
</trkpt>
<trkpt lat="-27.274439" lon="151.290064">
  <ele>343.1</ele>
  <time>2026-09-01T19:58:41Z</time>
  <course>270.0</course>
  <speed>0.0</speed>
  <fix>3d</fix>
</trkpt>
<trkpt lat="-27.274439" lon="151.290064">
  <ele>343.01</ele>
  <time>2026-09-01T19:58:41Z</time>
  <course>11.23</course>
  <speed>0.0</speed>
  <fix>3d</fix>
</trkpt>
<trkpt lat="-27.274439" lon="151.290064">
  <ele>343.1</ele>
  <time>2026-09-01T19:58:41Z</time>
  <course>270.0</course>
  <speed>0.0</speed>
  <fix>3d</fix>
</trkpt>
<trkpt lat="-27.274439" lon="151.290064">
  <ele>342.8</ele>
  <time>2026-09-01T19:58:41Z</time>
  <course>11.23</course>
  <speed>0.0</speed>
  <fix>3d</fix>
</trkpt>
<trkpt lat="-27.274439" lon="151.290064">
  <ele>343.1</ele>
  <time>2026-09-01T19:58:41Z</time>
  <course>270.0</course>
  <speed>0.0</speed>
  <fix>3d</fix>
</trkpt>
<trkpt lat="-27.274439" lon="151.290064">
  <ele>342.93</ele>
  <time>2026-09-01T19:58:41Z</time>
  <course>11.23</course>
  <speed>0.0</speed>
  <fix>3d</fix>
</trkpt>
<trkpt lat="-27.274439" lon="151.290064">
  <ele>343.1</ele>
  <time>2026-09-01T19:58:41Z</time>
  <course>270.0</course>
  <speed>0.0</speed>
  <fix>3d</fix>
</trkpt>
<trkpt lat="-27.274439" lon="151.290064">
  <ele>342.7</ele>
  <time>2026-09-01T19:58:41Z</time>
  <course>11.23</course>
  <speed>0.0</speed>
  <fix>3d</fix>
</trkpt>
<trkpt lat="-27.274439" lon="151.290064">
  <ele>343.1</ele>
  <time>2026-09-01T19:58:41Z</time>
  <course>270.0</course>
  <speed>0.0</speed>
  <fix>3d</fix>
</trkpt>
<trkpt lat="-27.274439" lon="151.290064">
  <ele>342.98</ele>
  <time>2026-09-01T19:58:41Z</time>
  <course>11.23</course>
  <speed>0.0</speed>
  <fix>3d</fix>
</trkpt>
<trkpt lat="-27.274439" lon="151.290064">
  <ele>343.1</ele>
  <time>2026-09-01T19:58:41Z</time>
  <course>270.0</course>
  <speed>0.0</speed>
  <fix>3d</fix>
</trkpt>
<trkpt lat="-27.274439" lon="151.290064">
  <ele>342.89</ele>
  <time>2026-09-01T19:58:41Z</time>
  <course>11.23</course>
  <speed>0.0</speed>
  <fix>3d</fix>
</trkpt>
<trkpt lat="-27.274439" lon="151.290064">
  <ele>343.1</ele>
  <time>2026-09-01T19:58:41Z</time>
  <course>270.0</course>
  <speed>0.0</speed>
  <fix>3d</fix>
</trkpt>
<trkpt lat="-27.274439" lon="151.290064">
  <ele>342.96</ele>
  <time>2026-09-01T19:58:41Z</time>
  <course>11.23</course>
  <speed>0.0</speed>
  <fix>3d</fix>
</trkpt>
<trkpt lat="-27.274439" lon="151.290064">
  <ele>343.1</ele>
  <time>2026-09-01T19:58:41Z</time>
  <course>270.0</course>
  <speed>0.0</speed>
  <fix>3d</fix>
</trkpt>
<trkpt lat="-27.274439" lon="151.290064">
  <ele>342.7</ele>
  <time>2026-09-01T19:58:41Z</time>
  <course>11.23</course>
  <speed>0.0</speed>
  <fix>3d</fix>
</trkpt>
<trkpt lat="-27.274439" lon="151.290064">
  <ele>343.1</ele>
  <time>2026-09-01T19:58:41Z</time>
  <course>270.0</course>
  <speed>0.0</speed>
  <fix>3d</fix>
</trkpt>
<trkpt lat="-27.274439" lon="151.290064">
  <ele>342.96</ele>
  <time>2026-09-01T19:58:41Z</time>
  <course>11.23</course>
  <speed>0.0</speed>
  <fix>3d</fix>
</trkpt>
<trkpt lat="-27.274439" lon="151.290064">
  <ele>343.1</ele>
  <time>2026-09-01T19:58:41Z</time>
  <course>270.0</course>
  <speed>0.0</speed>
  <fix>3d</fix>
</trkpt>
<trkpt lat="-27.274439" lon="151.290064">
  <ele>343.0</ele>
  <time>2026-09-01T19:58:41Z</time>
  <course>11.24</course>
  <speed>0.0</speed>
  <fix>3d</fix>
</trkpt>
<trkpt lat="-27.274439" lon="151.290064">
  <ele>343.1</ele>
  <time>2026-09-01T19:58:41Z</time>
  <course>270.0</course>
  <speed>0.0</speed>
  <fix>3d</fix>
</trkpt>
<trkpt lat="-27.274439" lon="151.290064">
  <ele>342.98</ele>
  <time>2026-09-01T19:58:41Z</time>
  <course>11.24</course>
  <speed>0.0</speed>
  <fix>3d</fix>
</trkpt>
<trkpt lat="-27.274439" lon="151.290064">
  <ele>343.1</ele>
  <time>2026-09-01T19:58:41Z</time>
  <course>270.0</course>
  <speed>0.0</speed>
  <fix>3d</fix>
</trkpt>
<trkpt lat="-27.274439" lon="151.290064">
  <ele>343.08</ele>
  <time>2026-09-01T19:58:41Z</time>
  <course>11.24</course>
  <speed>0.0</speed>
  <fix>3d</fix>
</trkpt>
<trkpt lat="-27.274439" lon="151.290064">
  <ele>343.1</ele>
  <time>2026-09-01T19:58:41Z</time>
  <course>270.0</course>
  <speed>0.0</speed>
  <fix>3d</fix>
</trkpt>
<trkpt lat="-27.274439" lon="151.290064">
  <ele>342.82</ele>
  <time>2026-09-01T19:58:41Z</time>
  <course>11.24</course>
  <speed>0.0</speed>
  <fix>3d</fix>
</trkpt>
<trkpt lat="-27.274439" lon="151.290064">
  <ele>343.1</ele>
  <time>2026-09-01T19:58:41Z</time>
  <course>270.0</course>
  <speed>0.0</speed>
  <fix>3d</fix>
</trkpt>
<trkpt lat="-27.274439" lon="151.290064">
  <ele>342.78</ele>
  <time>2026-09-01T19:58:41Z</time>
  <course>11.24</course>
  <speed>0.0</speed>
  <fix>3d</fix>
</trkpt>
<trkpt lat="-27.274439" lon="151.290064">
  <ele>343.1</ele>
  <time>2026-09-01T19:58:41Z</time>
  <course>270.0</course>
  <speed>0.0</speed>
  <fix>3d</fix>
</trkpt>
<trkpt lat="-27.274439" lon="151.290064">
  <ele>342.98</ele>
  <time>2026-09-01T19:58:41Z</time>
  <course>11.24</course>
  <speed>0.0</speed>
  <fix>3d</fix>
</trkpt>
<trkpt lat="-27.274439" lon="151.290064">
  <ele>343.1</ele>
  <time>2026-09-01T19:58:41Z</time>
  <course>270.0</course>
  <speed>0.0</speed>
  <fix>3d</fix>
</trkpt>
<trkpt lat="-27.274439" lon="151.290064">
  <ele>342.9</ele>
  <time>2026-09-01T19:58:41Z</time>
  <course>11.24</course>
  <speed>0.0</speed>
  <fix>3d</fix>
</trkpt>
<trkpt lat="-27.274439" lon="151.290064">
  <ele>343.1</ele>
  <time>2026-09-01T19:58:41Z</time>
  <course>270.0</course>
  <speed>0.0</speed>
  <fix>3d</fix>
</trkpt>
<trkpt lat="-27.274439" lon="151.290064">
  <ele>343.0</ele>
  <time>2026-09-01T19:58:41Z</time>
  <course>11.24</course>
  <speed>0.0</speed>
  <fix>3d</fix>
</trkpt>
<trkpt lat="-27.274439" lon="151.290064">
  <ele>343.1</ele>
  <time>2026-09-01T19:58:41Z</time>
  <course>270.0</course>
  <speed>0.0</speed>
  <fix>3d</fix>
</trkpt>
<trkpt lat="-27.274439" lon="151.290064">
  <ele>342.9</ele>
  <time>2026-09-01T19:58:41Z</time>
  <course>11.24</course>
  <speed>0.0</speed>
  <fix>3d</fix>
</trkpt>
<trkpt lat="-27.274439" lon="151.290064">
  <ele>343.1</ele>
  <time>2026-09-01T19:58:41Z</time>
  <course>270.0</course>
  <speed>0.0</speed>
  <fix>3d</fix>
</trkpt>
<trkpt lat="-27.274439" lon="151.290064">
  <ele>342.91</ele>
  <time>2026-09-01T19:58:41Z</time>
  <course>11.24</course>
  <speed>0.0</speed>
  <fix>3d</fix>
</trkpt>
<trkpt lat="-27.274439" lon="151.290064">
  <ele>343.1</ele>
  <time>2026-09-01T19:58:41Z</time>
  <course>270.0</course>
  <speed>0.0</speed>
  <fix>3d</fix>
</trkpt>
<trkpt lat="-27.274439" lon="151.290064">
  <ele>342.83</ele>
  <time>2026-09-01T19:58:41Z</time>
  <course>11.24</course>
  <speed>0.0</speed>
  <fix>3d</fix>
</trkpt>
<trkpt lat="-27.274439" lon="151.290064">
  <ele>343.1</ele>
  <time>2026-09-01T19:58:41Z</time>
  <course>270.0</course>
  <speed>0.0</speed>
  <fix>3d</fix>
</trkpt>
<trkpt lat="-27.274439" lon="151.290064">
  <ele>342.74</ele>
  <time>2026-09-01T19:58:41Z</time>
  <course>11.24</course>
  <speed>0.0</speed>
  <fix>3d</fix>
</trkpt>
<trkpt lat="-27.274439" lon="151.290064">
  <ele>343.1</ele>
  <time>2026-09-01T19:58:41Z</time>
  <course>270.0</course>
  <speed>0.0</speed>
  <fix>3d</fix>
</trkpt>
<trkpt lat="-27.274439" lon="151.290064">
  <ele>342.89</ele>
  <time>2026-09-01T19:58:41Z</time>
  <course>11.24</course>
  <speed>0.0</speed>
  <fix>3d</fix>
</trkpt>
<trkpt lat="-27.274439" lon="151.290064">
  <ele>343.1</ele>
  <time>2026-09-01T19:58:41Z</time>
  <course>270.0</course>
  <speed>0.0</speed>
  <fix>3d</fix>
</trkpt>
<trkpt lat="-27.274439" lon="151.290064">
  <ele>342.87</ele>
  <time>2026-09-01T19:58:41Z</time>
  <course>11.24</course>
  <speed>0.0</speed>
  <fix>3d</fix>
</trkpt>
<trkpt lat="-27.274439" lon="151.290064">
  <ele>343.1</ele>
  <time>2026-09-01T19:58:41Z</time>
  <course>270.0</course>
  <speed>0.0</speed>
  <fix>3d</fix>
</trkpt>
<trkpt lat="-27.274439" lon="151.290064">
  <ele>342.92</ele>
  <time>2026-09-01T19:58:41Z</time>
  <course>11.25</course>
  <speed>0.0</speed>
  <fix>3d</fix>
</trkpt>
<trkpt lat="-27.274439" lon="151.290064">
  <ele>343.1</ele>
  <time>2026-09-01T19:58:41Z</time>
  <course>270.0</course>
  <speed>0.0</speed>
  <fix>3d</fix>
</trkpt>
<trkpt lat="-27.274439" lon="151.290064">
  <ele>343.01</ele>
  <time>2026-09-01T19:58:41Z</time>
  <course>11.25</course>
  <speed>0.0</speed>
  <fix>3d</fix>
</trkpt>
<trkpt lat="-27.274439" lon="151.290064">
  <ele>343.1</ele>
  <time>2026-09-01T19:58:41Z</time>
  <course>270.0</course>
  <speed>0.0</speed>
  <fix>3d</fix>
</trkpt>
<trkpt lat="-27.274439" lon="151.290064">
  <ele>342.9</ele>
  <time>2026-09-01T19:58:41Z</time>
  <course>11.24</course>
  <speed>0.0</speed>
  <fix>3d</fix>
</trkpt>
<trkpt lat="-27.274439" lon="151.290064">
  <ele>343.1</ele>
  <time>2026-09-01T19:58:41Z</time>
  <course>270.0</course>
  <speed>0.0</speed>
  <fix>3d</fix>
</trkpt>
<trkpt lat="-27.274439" lon="151.290064">
  <ele>342.71</ele>
  <time>2026-09-01T19:58:41Z</time>
  <course>11.24</course>
  <speed>0.0</speed>
  <fix>3d</fix>
</trkpt>
<trkpt lat="-27.274439" lon="151.290064">
  <ele>343.1</ele>
  <time>2026-09-01T19:58:41Z</time>
  <course>270.0</course>
  <speed>0.0</speed>
  <fix>3d</fix>
</trkpt>
<trkpt lat="-27.274439" lon="151.290064">
  <ele>343.05</ele>
  <time>2026-09-01T19:58:41Z</time>
  <course>11.24</course>
  <speed>0.0</speed>
  <fix>3d</fix>
</trkpt>
<trkpt lat="-27.274439" lon="151.290064">
  <ele>343.1</ele>
  <time>2026-09-01T19:58:41Z</time>
  <course>270.0</course>
  <speed>0.0</speed>
  <fix>3d</fix>
</trkpt>
<trkpt lat="-27.274439" lon="151.290064">
  <ele>343.0</ele>
  <time>2026-09-01T19:58:41Z</time>
  <course>11.24</course>
  <speed>0.0</speed>
  <fix>3d</fix>
</trkpt>
<trkpt lat="-27.274439" lon="151.290064">
  <ele>343.1</ele>
  <time>2026-09-01T19:58:41Z</time>
  <course>270.0</course>
  <speed>0.0</speed>
  <fix>3d</fix>
</trkpt>
<trkpt lat="-27.274439" lon="151.290064">
  <ele>342.8</ele>
  <time>2026-09-01T19:58:41Z</time>
  <course>11.23</course>
  <speed>0.0</speed>
  <fix>3d</fix>
</trkpt>
<trkpt lat="-27.274439" lon="151.290064">
  <ele>343.1</ele>
  <time>2026-09-01T19:58:41Z</time>
  <course>270.0</course>
  <speed>0.0</speed>
  <fix>3d</fix>
</trkpt>
<trkpt lat="-27.274439" lon="151.290064">
  <ele>342.85</ele>
  <time>2026-09-01T19:58:42Z</time>
  <course>11.23</course>
  <speed>0.0</speed>
  <fix>3d</fix>
</trkpt>
<trkpt lat="-27.274439" lon="151.290064">
  <ele>343.1</ele>
  <time>2026-09-01T19:58:42Z</time>
  <course>270.0</course>
  <speed>0.0</speed>
  <fix>3d</fix>
</trkpt>
<trkpt lat="-27.274439" lon="151.290064">
  <ele>342.96</ele>
  <time>2026-09-01T19:58:42Z</time>
  <course>11.23</course>
  <speed>0.0</speed>
  <fix>3d</fix>
</trkpt>
<trkpt lat="-27.274439" lon="151.290064">
  <ele>343.1</ele>
  <time>2026-09-01T19:58:42Z</time>
  <course>270.0</course>
  <speed>0.0</speed>
  <fix>3d</fix>
</trkpt>
<trkpt lat="-27.274439" lon="151.290064">
  <ele>342.82</ele>
  <time>2026-09-01T19:58:42Z</time>
  <course>11.23</course>
  <speed>0.0</speed>
  <fix>3d</fix>
</trkpt>
<trkpt lat="-27.274439" lon="151.290064">
  <ele>343.1</ele>
  <time>2026-09-01T19:58:42Z</time>
  <course>270.0</course>
  <speed>0.0</speed>
  <fix>3d</fix>
</trkpt>
<trkpt lat="-27.274439" lon="151.290064">
  <ele>342.75</ele>
  <time>2026-09-01T19:58:42Z</time>
  <course>11.23</course>
  <speed>0.0</speed>
  <fix>3d</fix>
</trkpt>
<trkpt lat="-27.274439" lon="151.290064">
  <ele>343.1</ele>
  <time>2026-09-01T19:58:42Z</time>
  <course>270.0</course>
  <speed>0.0</speed>
  <fix>3d</fix>
</trkpt>
<trkpt lat="-27.274439" lon="151.290064">
  <ele>343.08</ele>
  <time>2026-09-01T19:58:42Z</time>
  <course>11.22</course>
  <speed>0.0</speed>
  <fix>3d</fix>
</trkpt>
<trkpt lat="-27.274439" lon="151.290064">
  <ele>343.1</ele>
  <time>2026-09-01T19:58:42Z</time>
  <course>270.0</course>
  <speed>0.0</speed>
  <fix>3d</fix>
</trkpt>
<trkpt lat="-27.274439" lon="151.290064">
  <ele>343.03</ele>
  <time>2026-09-01T19:58:42Z</time>
  <course>11.22</course>
  <speed>0.0</speed>
  <fix>3d</fix>
</trkpt>
<trkpt lat="-27.274439" lon="151.290064">
  <ele>343.1</ele>
  <time>2026-09-01T19:58:42Z</time>
  <course>270.0</course>
  <speed>0.0</speed>
  <fix>3d</fix>
</trkpt>
<trkpt lat="-27.274439" lon="151.290064">
  <ele>342.94</ele>
  <time>2026-09-01T19:58:42Z</time>
  <course>11.22</course>
  <speed>0.0</speed>
  <fix>3d</fix>
</trkpt>
<trkpt lat="-27.274439" lon="151.290064">
  <ele>343.1</ele>
  <time>2026-09-01T19:58:42Z</time>
  <course>270.0</course>
  <speed>0.0</speed>
  <fix>3d</fix>
</trkpt>
<trkpt lat="-27.274439" lon="151.290064">
  <ele>342.93</ele>
  <time>2026-09-01T19:58:42Z</time>
  <course>11.22</course>
  <speed>0.0</speed>
  <fix>3d</fix>
</trkpt>
<trkpt lat="-27.274439" lon="151.290064">
  <ele>343.1</ele>
  <time>2026-09-01T19:58:42Z</time>
  <course>270.0</course>
  <speed>0.0</speed>
  <fix>3d</fix>
</trkpt>
<trkpt lat="-27.274439" lon="151.290064">
  <ele>343.08</ele>
  <time>2026-09-01T19:58:42Z</time>
  <course>11.22</course>
  <speed>0.0</speed>
  <fix>3d</fix>
</trkpt>
<trkpt lat="-27.274439" lon="151.290064">
  <ele>343.1</ele>
  <time>2026-09-01T19:58:42Z</time>
  <course>270.0</course>
  <speed>0.0</speed>
  <fix>3d</fix>
</trkpt>
<trkpt lat="-27.274439" lon="151.290064">
  <ele>342.85</ele>
  <time>2026-09-01T19:58:42Z</time>
  <course>11.21</course>
  <speed>0.0</speed>
  <fix>3d</fix>
</trkpt>
<trkpt lat="-27.274439" lon="151.290064">
  <ele>343.1</ele>
  <time>2026-09-01T19:58:42Z</time>
  <course>270.0</course>
  <speed>0.0</speed>
  <fix>3d</fix>
</trkpt>
<trkpt lat="-27.274439" lon="151.290064">
  <ele>342.86</ele>
  <time>2026-09-01T19:58:42Z</time>
  <course>11.21</course>
  <speed>0.0</speed>
  <fix>3d</fix>
</trkpt>
<trkpt lat="-27.274439" lon="151.290064">
  <ele>343.1</ele>
  <time>2026-09-01T19:58:42Z</time>
  <course>270.0</course>
  <speed>0.0</speed>
  <fix>3d</fix>
</trkpt>
<trkpt lat="-27.274439" lon="151.290064">
  <ele>342.83</ele>
  <time>2026-09-01T19:58:42Z</time>
  <course>11.21</course>
  <speed>0.0</speed>
  <fix>3d</fix>
</trkpt>
<trkpt lat="-27.274439" lon="151.290064">
  <ele>343.1</ele>
  <time>2026-09-01T19:58:42Z</time>
  <course>270.0</course>
  <speed>0.0</speed>
  <fix>3d</fix>
</trkpt>
<trkpt lat="-27.274439" lon="151.290064">
  <ele>343.14</ele>
  <time>2026-09-01T19:58:42Z</time>
  <course>11.21</course>
  <speed>0.0</speed>
  <fix>3d</fix>
</trkpt>
<trkpt lat="-27.274439" lon="151.290064">
  <ele>343.1</ele>
  <time>2026-09-01T19:58:42Z</time>
  <course>270.0</course>
  <speed>0.0</speed>
  <fix>3d</fix>
</trkpt>
<trkpt lat="-27.274439" lon="151.290064">
  <ele>343.03</ele>
  <time>2026-09-01T19:58:42Z</time>
  <course>11.21</course>
  <speed>0.0</speed>
  <fix>3d</fix>
</trkpt>
<trkpt lat="-27.274439" lon="151.290064">
  <ele>343.1</ele>
  <time>2026-09-01T19:58:42Z</time>
  <course>270.0</course>
  <speed>0.0</speed>
  <fix>3d</fix>
</trkpt>
<trkpt lat="-27.274439" lon="151.290064">
  <ele>342.82</ele>
  <time>2026-09-01T19:58:42Z</time>
  <course>11.2</course>
  <speed>0.0</speed>
  <fix>3d</fix>
</trkpt>
<trkpt lat="-27.274439" lon="151.290064">
  <ele>343.1</ele>
  <time>2026-09-01T19:58:42Z</time>
  <course>270.0</course>
  <speed>0.0</speed>
  <fix>3d</fix>
</trkpt>
<trkpt lat="-27.274439" lon="151.290064">
  <ele>342.93</ele>
  <time>2026-09-01T19:58:42Z</time>
  <course>11.2</course>
  <speed>0.0</speed>
  <fix>3d</fix>
</trkpt>
<trkpt lat="-27.274439" lon="151.290064">
  <ele>343.1</ele>
  <time>2026-09-01T19:58:42Z</time>
  <course>270.0</course>
  <speed>0.0</speed>
  <fix>3d</fix>
</trkpt>
<trkpt lat="-27.274439" lon="151.290064">
  <ele>342.82</ele>
  <time>2026-09-01T19:58:42Z</time>
  <course>11.2</course>
  <speed>0.0</speed>
  <fix>3d</fix>
</trkpt>
<trkpt lat="-27.274439" lon="151.290064">
  <ele>343.1</ele>
  <time>2026-09-01T19:58:42Z</time>
  <course>270.0</course>
  <speed>0.0</speed>
  <fix>3d</fix>
</trkpt>
<trkpt lat="-27.274439" lon="151.290064">
  <ele>342.83</ele>
  <time>2026-09-01T19:58:42Z</time>
  <course>11.2</course>
  <speed>0.0</speed>
  <fix>3d</fix>
</trkpt>
<trkpt lat="-27.274439" lon="151.290064">
  <ele>343.1</ele>
  <time>2026-09-01T19:58:42Z</time>
  <course>270.0</course>
  <speed>0.0</speed>
  <fix>3d</fix>
</trkpt>
<trkpt lat="-27.274439" lon="151.290064">
  <ele>342.9</ele>
  <time>2026-09-01T19:58:42Z</time>
  <course>11.2</course>
  <speed>0.0</speed>
  <fix>3d</fix>
</trkpt>
<trkpt lat="-27.274439" lon="151.290064">
  <ele>343.1</ele>
  <time>2026-09-01T19:58:42Z</time>
  <course>270.0</course>
  <speed>0.0</speed>
  <fix>3d</fix>
</trkpt>
<trkpt lat="-27.274439" lon="151.290064">
  <ele>342.83</ele>
  <time>2026-09-01T19:58:42Z</time>
  <course>11.2</course>
  <speed>0.0</speed>
  <fix>3d</fix>
</trkpt>
<trkpt lat="-27.274439" lon="151.290064">
  <ele>343.1</ele>
  <time>2026-09-01T19:58:42Z</time>
  <course>270.0</course>
  <speed>0.0</speed>
  <fix>3d</fix>
</trkpt>
<trkpt lat="-27.274439" lon="151.290064">
  <ele>343.04</ele>
  <time>2026-09-01T19:58:42Z</time>
  <course>11.19</course>
  <speed>0.0</speed>
  <fix>3d</fix>
</trkpt>
<trkpt lat="-27.274439" lon="151.290064">
  <ele>343.1</ele>
  <time>2026-09-01T19:58:42Z</time>
  <course>270.0</course>
  <speed>0.0</speed>
  <fix>3d</fix>
</trkpt>
<trkpt lat="-27.274439" lon="151.290064">
  <ele>342.98</ele>
  <time>2026-09-01T19:58:42Z</time>
  <course>11.19</course>
  <speed>0.0</speed>
  <fix>3d</fix>
</trkpt>
<trkpt lat="-27.274439" lon="151.290064">
  <ele>343.1</ele>
  <time>2026-09-01T19:58:42Z</time>
  <course>270.0</course>
  <speed>0.0</speed>
  <fix>3d</fix>
</trkpt>
<trkpt lat="-27.274439" lon="151.290064">
  <ele>342.99</ele>
  <time>2026-09-01T19:58:42Z</time>
  <course>11.19</course>
  <speed>0.0</speed>
  <fix>3d</fix>
</trkpt>
<trkpt lat="-27.274439" lon="151.290064">
  <ele>343.1</ele>
  <time>2026-09-01T19:58:42Z</time>
  <course>270.0</course>
  <speed>0.0</speed>
  <fix>3d</fix>
</trkpt>
<trkpt lat="-27.274439" lon="151.290064">
  <ele>342.98</ele>
  <time>2026-09-01T19:58:42Z</time>
  <course>11.19</course>
  <speed>0.0</speed>
  <fix>3d</fix>
</trkpt>
<trkpt lat="-27.274439" lon="151.290064">
  <ele>343.1</ele>
  <time>2026-09-01T19:58:42Z</time>
  <course>270.0</course>
  <speed>0.0</speed>
  <fix>3d</fix>
</trkpt>
<trkpt lat="-27.274439" lon="151.290064">
  <ele>342.9</ele>
  <time>2026-09-01T19:58:42Z</time>
  <course>11.19</course>
  <speed>0.0</speed>
  <fix>3d</fix>
</trkpt>
<trkpt lat="-27.274439" lon="151.290064">
  <ele>343.1</ele>
  <time>2026-09-01T19:58:42Z</time>
  <course>270.0</course>
  <speed>0.0</speed>
  <fix>3d</fix>
</trkpt>
<trkpt lat="-27.274439" lon="151.290064">
  <ele>343.03</ele>
  <time>2026-09-01T19:58:42Z</time>
  <course>11.19</course>
  <speed>0.0</speed>
  <fix>3d</fix>
</trkpt>
<trkpt lat="-27.274439" lon="151.290064">
  <ele>343.1</ele>
  <time>2026-09-01T19:58:42Z</time>
  <course>270.0</course>
  <speed>0.0</speed>
  <fix>3d</fix>
</trkpt>
<trkpt lat="-27.274439" lon="151.290064">
  <ele>343.11</ele>
  <time>2026-09-01T19:58:42Z</time>
  <course>11.18</course>
  <speed>0.0</speed>
  <fix>3d</fix>
</trkpt>
<trkpt lat="-27.274439" lon="151.290064">
  <ele>343.1</ele>
  <time>2026-09-01T19:58:42Z</time>
  <course>270.0</course>
  <speed>0.0</speed>
  <fix>3d</fix>
</trkpt>
<trkpt lat="-27.274439" lon="151.290064">
  <ele>342.98</ele>
  <time>2026-09-01T19:58:42Z</time>
  <course>11.18</course>
  <speed>0.0</speed>
  <fix>3d</fix>
</trkpt>
<trkpt lat="-27.274439" lon="151.290064">
  <ele>343.1</ele>
  <time>2026-09-01T19:58:42Z</time>
  <course>270.0</course>
  <speed>0.0</speed>
  <fix>3d</fix>
</trkpt>
<trkpt lat="-27.274439" lon="151.290064">
  <ele>343.06</ele>
  <time>2026-09-01T19:58:42Z</time>
  <course>11.18</course>
  <speed>0.0</speed>
  <fix>3d</fix>
</trkpt>
<trkpt lat="-27.274439" lon="151.290064">
  <ele>343.1</ele>
  <time>2026-09-01T19:58:42Z</time>
  <course>270.0</course>
  <speed>0.0</speed>
  <fix>3d</fix>
</trkpt>
<trkpt lat="-27.274439" lon="151.290064">
  <ele>342.9</ele>
  <time>2026-09-01T19:58:42Z</time>
  <course>11.18</course>
  <speed>0.0</speed>
  <fix>3d</fix>
</trkpt>
<trkpt lat="-27.274439" lon="151.290064">
  <ele>343.1</ele>
  <time>2026-09-01T19:58:42Z</time>
  <course>270.0</course>
  <speed>0.0</speed>
  <fix>3d</fix>
</trkpt>
<trkpt lat="-27.274439" lon="151.290064">
  <ele>342.79</ele>
  <time>2026-09-01T19:58:42Z</time>
  <course>11.18</course>
  <speed>0.0</speed>
  <fix>3d</fix>
</trkpt>
<trkpt lat="-27.274439" lon="151.290064">
  <ele>343.1</ele>
  <time>2026-09-01T19:58:42Z</time>
  <course>270.0</course>
  <speed>0.0</speed>
  <fix>3d</fix>
</trkpt>
<trkpt lat="-27.274439" lon="151.290064">
  <ele>343.08</ele>
  <time>2026-09-01T19:58:42Z</time>
  <course>11.18</course>
  <speed>0.0</speed>
  <fix>3d</fix>
</trkpt>
<trkpt lat="-27.274439" lon="151.290064">
  <ele>343.1</ele>
  <time>2026-09-01T19:58:42Z</time>
  <course>270.0</course>
  <speed>0.0</speed>
  <fix>3d</fix>
</trkpt>
<trkpt lat="-27.274439" lon="151.290064">
  <ele>342.99</ele>
  <time>2026-09-01T19:58:42Z</time>
  <course>11.17</course>
  <speed>0.0</speed>
  <fix>3d</fix>
</trkpt>
<trkpt lat="-27.274439" lon="151.290064">
  <ele>343.1</ele>
  <time>2026-09-01T19:58:42Z</time>
  <course>270.0</course>
  <speed>0.0</speed>
  <fix>3d</fix>
</trkpt>
<trkpt lat="-27.274439" lon="151.290064">
  <ele>342.95</ele>
  <time>2026-09-01T19:58:42Z</time>
  <course>11.17</course>
  <speed>0.0</speed>
  <fix>3d</fix>
</trkpt>
<trkpt lat="-27.274439" lon="151.290064">
  <ele>343.1</ele>
  <time>2026-09-01T19:58:42Z</time>
  <course>270.0</course>
  <speed>0.0</speed>
  <fix>3d</fix>
</trkpt>
<trkpt lat="-27.274439" lon="151.290064">
  <ele>342.8</ele>
  <time>2026-09-01T19:58:42Z</time>
  <course>11.17</course>
  <speed>0.0</speed>
  <fix>3d</fix>
</trkpt>
<trkpt lat="-27.274439" lon="151.290064">
  <ele>343.1</ele>
  <time>2026-09-01T19:58:42Z</time>
  <course>270.0</course>
  <speed>0.0</speed>
  <fix>3d</fix>
</trkpt>
<trkpt lat="-27.274439" lon="151.290064">
  <ele>343.01</ele>
  <time>2026-09-01T19:58:42Z</time>
  <course>11.17</course>
  <speed>0.0</speed>
  <fix>3d</fix>
</trkpt>
<trkpt lat="-27.274439" lon="151.290064">
  <ele>343.1</ele>
  <time>2026-09-01T19:58:42Z</time>
  <course>270.0</course>
  <speed>0.0</speed>
  <fix>3d</fix>
</trkpt>
<trkpt lat="-27.274439" lon="151.290064">
  <ele>342.78</ele>
  <time>2026-09-01T19:58:42Z</time>
  <course>11.17</course>
  <speed>0.0</speed>
  <fix>3d</fix>
</trkpt>
<trkpt lat="-27.274439" lon="151.290064">
  <ele>343.1</ele>
  <time>2026-09-01T19:58:42Z</time>
  <course>270.0</course>
  <speed>0.0</speed>
  <fix>3d</fix>
</trkpt>
<trkpt lat="-27.274439" lon="151.290064">
  <ele>342.81</ele>
  <time>2026-09-01T19:58:42Z</time>
  <course>11.17</course>
  <speed>0.0</speed>
  <fix>3d</fix>
</trkpt>
<trkpt lat="-27.274439" lon="151.290064">
  <ele>343.1</ele>
  <time>2026-09-01T19:58:42Z</time>
  <course>270.0</course>
  <speed>0.0</speed>
  <fix>3d</fix>
</trkpt>
<trkpt lat="-27.274439" lon="151.290064">
  <ele>342.85</ele>
  <time>2026-09-01T19:58:42Z</time>
  <course>11.17</course>
  <speed>0.0</speed>
  <fix>3d</fix>
</trkpt>
<trkpt lat="-27.274439" lon="151.290064">
  <ele>343.1</ele>
  <time>2026-09-01T19:58:42Z</time>
  <course>270.0</course>
  <speed>0.0</speed>
  <fix>3d</fix>
</trkpt>
<trkpt lat="-27.274439" lon="151.290064">
  <ele>342.78</ele>
  <time>2026-09-01T19:58:42Z</time>
  <course>11.17</course>
  <speed>0.0</speed>
  <fix>3d</fix>
</trkpt>
<trkpt lat="-27.274439" lon="151.290064">
  <ele>343.1</ele>
  <time>2026-09-01T19:58:42Z</time>
  <course>270.0</course>
  <speed>0.0</speed>
  <fix>3d</fix>
</trkpt>
<trkpt lat="-27.274439" lon="151.290064">
  <ele>342.79</ele>
  <time>2026-09-01T19:58:42Z</time>
  <course>11.16</course>
  <speed>0.0</speed>
  <fix>3d</fix>
</trkpt>
<trkpt lat="-27.274439" lon="151.290064">
  <ele>343.1</ele>
  <time>2026-09-01T19:58:42Z</time>
  <course>270.0</course>
  <speed>0.0</speed>
  <fix>3d</fix>
</trkpt>
<trkpt lat="-27.274439" lon="151.290064">
  <ele>342.9</ele>
  <time>2026-09-01T19:58:42Z</time>
  <course>11.16</course>
  <speed>0.0</speed>
  <fix>3d</fix>
</trkpt>
<trkpt lat="-27.274439" lon="151.290064">
  <ele>343.1</ele>
  <time>2026-09-01T19:58:42Z</time>
  <course>270.0</course>
  <speed>0.0</speed>
  <fix>3d</fix>
</trkpt>
<trkpt lat="-27.274439" lon="151.290064">
  <ele>342.98</ele>
  <time>2026-09-01T19:58:42Z</time>
  <course>11.16</course>
  <speed>0.0</speed>
  <fix>3d</fix>
</trkpt>
<trkpt lat="-27.274439" lon="151.290064">
  <ele>343.1</ele>
  <time>2026-09-01T19:58:42Z</time>
  <course>270.0</course>
  <speed>0.0</speed>
  <fix>3d</fix>
</trkpt>
<trkpt lat="-27.274439" lon="151.290064">
  <ele>342.77</ele>
  <time>2026-09-01T19:58:42Z</time>
  <course>11.16</course>
  <speed>0.0</speed>
  <fix>3d</fix>
</trkpt>
<trkpt lat="-27.274439" lon="151.290064">
  <ele>343.1</ele>
  <time>2026-09-01T19:58:42Z</time>
  <course>270.0</course>
  <speed>0.0</speed>
  <fix>3d</fix>
</trkpt>
<trkpt lat="-27.274439" lon="151.290064">
  <ele>342.95</ele>
  <time>2026-09-01T19:58:42Z</time>
  <course>11.16</course>
  <speed>0.0</speed>
  <fix>3d</fix>
</trkpt>
<trkpt lat="-27.274439" lon="151.290064">
  <ele>343.1</ele>
  <time>2026-09-01T19:58:42Z</time>
  <course>270.0</course>
  <speed>0.0</speed>
  <fix>3d</fix>
</trkpt>
<trkpt lat="-27.274439" lon="151.290064">
  <ele>343.04</ele>
  <time>2026-09-01T19:58:42Z</time>
  <course>11.16</course>
  <speed>0.0</speed>
  <fix>3d</fix>
</trkpt>
<trkpt lat="-27.274439" lon="151.290064">
  <ele>343.1</ele>
  <time>2026-09-01T19:58:42Z</time>
  <course>270.0</course>
  <speed>0.0</speed>
  <fix>3d</fix>
</trkpt>
<trkpt lat="-27.274439" lon="151.290064">
  <ele>342.83</ele>
  <time>2026-09-01T19:58:42Z</time>
  <course>11.16</course>
  <speed>0.0</speed>
  <fix>3d</fix>
</trkpt>
<trkpt lat="-27.274439" lon="151.290064">
  <ele>343.1</ele>
  <time>2026-09-01T19:58:42Z</time>
  <course>270.0</course>
  <speed>0.0</speed>
  <fix>3d</fix>
</trkpt>
<trkpt lat="-27.274439" lon="151.290064">
  <ele>342.87</ele>
  <time>2026-09-01T19:58:42Z</time>
  <course>11.15</course>
  <speed>0.0</speed>
  <fix>3d</fix>
</trkpt>
<trkpt lat="-27.274439" lon="151.290064">
  <ele>343.1</ele>
  <time>2026-09-01T19:58:42Z</time>
  <course>270.0</course>
  <speed>0.0</speed>
  <fix>3d</fix>
</trkpt>
<trkpt lat="-27.274439" lon="151.290064">
  <ele>342.76</ele>
  <time>2026-09-01T19:58:42Z</time>
  <course>11.15</course>
  <speed>0.0</speed>
  <fix>3d</fix>
</trkpt>
<trkpt lat="-27.274439" lon="151.290064">
  <ele>343.1</ele>
  <time>2026-09-01T19:58:42Z</time>
  <course>270.0</course>
  <speed>0.0</speed>
  <fix>3d</fix>
</trkpt>
<trkpt lat="-27.274439" lon="151.290064">
  <ele>343.01</ele>
  <time>2026-09-01T19:58:42Z</time>
  <course>11.14</course>
  <speed>0.0</speed>
  <fix>3d</fix>
</trkpt>
<trkpt lat="-27.274439" lon="151.290064">
  <ele>343.1</ele>
  <time>2026-09-01T19:58:42Z</time>
  <course>270.0</course>
  <speed>0.0</speed>
  <fix>3d</fix>
</trkpt>
<trkpt lat="-27.274439" lon="151.290064">
  <ele>343.08</ele>
  <time>2026-09-01T19:58:42Z</time>
  <course>11.14</course>
  <speed>0.0</speed>
  <fix>3d</fix>
</trkpt>
<trkpt lat="-27.274439" lon="151.290064">
  <ele>343.1</ele>
  <time>2026-09-01T19:58:42Z</time>
  <course>270.0</course>
  <speed>0.0</speed>
  <fix>3d</fix>
</trkpt>
<trkpt lat="-27.274439" lon="151.290064">
  <ele>342.82</ele>
  <time>2026-09-01T19:58:42Z</time>
  <course>11.14</course>
  <speed>0.0</speed>
  <fix>3d</fix>
</trkpt>
<trkpt lat="-27.274439" lon="151.290064">
  <ele>343.1</ele>
  <time>2026-09-01T19:58:42Z</time>
  <course>270.0</course>
  <speed>0.0</speed>
  <fix>3d</fix>
</trkpt>
<trkpt lat="-27.274439" lon="151.290064">
  <ele>343.12</ele>
  <time>2026-09-01T19:58:42Z</time>
  <course>11.13</course>
  <speed>0.0</speed>
  <fix>3d</fix>
</trkpt>
<trkpt lat="-27.274439" lon="151.290064">
  <ele>343.1</ele>
  <time>2026-09-01T19:58:42Z</time>
  <course>270.0</course>
  <speed>0.0</speed>
  <fix>3d</fix>
</trkpt>
<trkpt lat="-27.274439" lon="151.290064">
  <ele>342.85</ele>
  <time>2026-09-01T19:58:42Z</time>
  <course>11.13</course>
  <speed>0.0</speed>
  <fix>3d</fix>
</trkpt>
<trkpt lat="-27.274439" lon="151.290064">
  <ele>343.1</ele>
  <time>2026-09-01T19:58:42Z</time>
  <course>270.0</course>
  <speed>0.0</speed>
  <fix>3d</fix>
</trkpt>
<trkpt lat="-27.274439" lon="151.290064">
  <ele>343.01</ele>
  <time>2026-09-01T19:58:42Z</time>
  <course>11.12</course>
  <speed>0.0</speed>
  <fix>3d</fix>
</trkpt>
<trkpt lat="-27.274439" lon="151.290064">
  <ele>343.1</ele>
  <time>2026-09-01T19:58:42Z</time>
  <course>270.0</course>
  <speed>0.0</speed>
  <fix>3d</fix>
</trkpt>
<trkpt lat="-27.274439" lon="151.290064">
  <ele>343.01</ele>
  <time>2026-09-01T19:58:42Z</time>
  <course>11.12</course>
  <speed>0.0</speed>
  <fix>3d</fix>
</trkpt>
<trkpt lat="-27.274439" lon="151.290064">
  <ele>343.1</ele>
  <time>2026-09-01T19:58:42Z</time>
  <course>270.0</course>
  <speed>0.0</speed>
  <fix>3d</fix>
</trkpt>
<trkpt lat="-27.274439" lon="151.290064">
  <ele>342.82</ele>
  <time>2026-09-01T19:58:42Z</time>
  <course>11.12</course>
  <speed>0.0</speed>
  <fix>3d</fix>
</trkpt>
<trkpt lat="-27.274439" lon="151.290064">
  <ele>343.1</ele>
  <time>2026-09-01T19:58:42Z</time>
  <course>270.0</course>
  <speed>0.0</speed>
  <fix>3d</fix>
</trkpt>
<trkpt lat="-27.274439" lon="151.290064">
  <ele>343.05</ele>
  <time>2026-09-01T19:58:42Z</time>
  <course>11.11</course>
  <speed>0.0</speed>
  <fix>3d</fix>
</trkpt>
<trkpt lat="-27.274439" lon="151.290064">
  <ele>343.1</ele>
  <time>2026-09-01T19:58:42Z</time>
  <course>270.0</course>
  <speed>0.0</speed>
  <fix>3d</fix>
</trkpt>
<trkpt lat="-27.274439" lon="151.290064">
  <ele>342.9</ele>
  <time>2026-09-01T19:58:42Z</time>
  <course>11.11</course>
  <speed>0.0</speed>
  <fix>3d</fix>
</trkpt>
<trkpt lat="-27.274439" lon="151.290064">
  <ele>343.1</ele>
  <time>2026-09-01T19:58:42Z</time>
  <course>270.0</course>
  <speed>0.0</speed>
  <fix>3d</fix>
</trkpt>
<trkpt lat="-27.274439" lon="151.290064">
  <ele>342.98</ele>
  <time>2026-09-01T19:58:42Z</time>
  <course>11.11</course>
  <speed>0.0</speed>
  <fix>3d</fix>
</trkpt>
<trkpt lat="-27.274439" lon="151.290064">
  <ele>343.1</ele>
  <time>2026-09-01T19:58:42Z</time>
  <course>270.0</course>
  <speed>0.0</speed>
  <fix>3d</fix>
</trkpt>
<trkpt lat="-27.274439" lon="151.290064">
  <ele>342.84</ele>
  <time>2026-09-01T19:58:42Z</time>
  <course>11.1</course>
  <speed>0.0</speed>
  <fix>3d</fix>
</trkpt>
<trkpt lat="-27.274439" lon="151.290064">
  <ele>343.1</ele>
  <time>2026-09-01T19:58:42Z</time>
  <course>270.0</course>
  <speed>0.0</speed>
  <fix>3d</fix>
</trkpt>
<trkpt lat="-27.274439" lon="151.290064">
  <ele>343.0</ele>
  <time>2026-09-01T19:58:42Z</time>
  <course>11.1</course>
  <speed>0.0</speed>
  <fix>3d</fix>
</trkpt>
<trkpt lat="-27.274439" lon="151.290064">
  <ele>343.1</ele>
  <time>2026-09-01T19:58:42Z</time>
  <course>270.0</course>
  <speed>0.0</speed>
  <fix>3d</fix>
</trkpt>
<trkpt lat="-27.274439" lon="151.290064">
  <ele>343.0</ele>
  <time>2026-09-01T19:58:42Z</time>
  <course>11.1</course>
  <speed>0.0</speed>
  <fix>3d</fix>
</trkpt>
<trkpt lat="-27.274439" lon="151.290064">
  <ele>343.1</ele>
  <time>2026-09-01T19:58:42Z</time>
  <course>270.0</course>
  <speed>0.0</speed>
  <fix>3d</fix>
</trkpt>
<trkpt lat="-27.274439" lon="151.290064">
  <ele>342.78</ele>
  <time>2026-09-01T19:58:42Z</time>
  <course>11.09</course>
  <speed>0.0</speed>
  <fix>3d</fix>
</trkpt>
<trkpt lat="-27.274439" lon="151.290064">
  <ele>343.1</ele>
  <time>2026-09-01T19:58:42Z</time>
  <course>270.0</course>
  <speed>0.0</speed>
  <fix>3d</fix>
</trkpt>
<trkpt lat="-27.274439" lon="151.290064">
  <ele>343.06</ele>
  <time>2026-09-01T19:58:42Z</time>
  <course>11.09</course>
  <speed>0.0</speed>
  <fix>3d</fix>
</trkpt>
<trkpt lat="-27.274439" lon="151.290064">
  <ele>343.1</ele>
  <time>2026-09-01T19:58:42Z</time>
  <course>270.0</course>
  <speed>0.0</speed>
  <fix>3d</fix>
</trkpt>
<trkpt lat="-27.274439" lon="151.290064">
  <ele>343.03</ele>
  <time>2026-09-01T19:58:42Z</time>
  <course>11.09</course>
  <speed>0.0</speed>
  <fix>3d</fix>
</trkpt>
<trkpt lat="-27.274439" lon="151.290064">
  <ele>343.1</ele>
  <time>2026-09-01T19:58:42Z</time>
  <course>270.0</course>
  <speed>0.0</speed>
  <fix>3d</fix>
</trkpt>
<trkpt lat="-27.274439" lon="151.290064">
  <ele>343.15</ele>
  <time>2026-09-01T19:58:42Z</time>
  <course>11.08</course>
  <speed>0.0</speed>
  <fix>3d</fix>
</trkpt>
<trkpt lat="-27.274439" lon="151.290064">
  <ele>343.1</ele>
  <time>2026-09-01T19:58:42Z</time>
  <course>270.0</course>
  <speed>0.0</speed>
  <fix>3d</fix>
</trkpt>
<trkpt lat="-27.274439" lon="151.290064">
  <ele>342.95</ele>
  <time>2026-09-01T19:58:42Z</time>
  <course>11.08</course>
  <speed>0.0</speed>
  <fix>3d</fix>
</trkpt>
<trkpt lat="-27.274439" lon="151.290064">
  <ele>343.1</ele>
  <time>2026-09-01T19:58:42Z</time>
  <course>270.0</course>
  <speed>0.0</speed>
  <fix>3d</fix>
</trkpt>
<trkpt lat="-27.274439" lon="151.290064">
  <ele>343.03</ele>
  <time>2026-09-01T19:58:42Z</time>
  <course>11.08</course>
  <speed>0.0</speed>
  <fix>3d</fix>
</trkpt>
<trkpt lat="-27.274439" lon="151.290064">
  <ele>343.1</ele>
  <time>2026-09-01T19:58:42Z</time>
  <course>270.0</course>
  <speed>0.0</speed>
  <fix>3d</fix>
</trkpt>
<trkpt lat="-27.274439" lon="151.290064">
  <ele>343.12</ele>
  <time>2026-09-01T19:58:42Z</time>
  <course>11.07</course>
  <speed>0.0</speed>
  <fix>3d</fix>
</trkpt>
<trkpt lat="-27.274439" lon="151.290064">
  <ele>343.1</ele>
  <time>2026-09-01T19:58:42Z</time>
  <course>270.0</course>
  <speed>0.0</speed>
  <fix>3d</fix>
</trkpt>
<trkpt lat="-27.274439" lon="151.290064">
  <ele>343.16</ele>
  <time>2026-09-01T19:58:42Z</time>
  <course>11.07</course>
  <speed>0.0</speed>
  <fix>3d</fix>
</trkpt>
<trkpt lat="-27.274439" lon="151.290064">
  <ele>343.1</ele>
  <time>2026-09-01T19:58:42Z</time>
  <course>270.0</course>
  <speed>0.0</speed>
  <fix>3d</fix>
</trkpt>
<trkpt lat="-27.274439" lon="151.290064">
  <ele>342.97</ele>
  <time>2026-09-01T19:58:42Z</time>
  <course>11.07</course>
  <speed>0.0</speed>
  <fix>3d</fix>
</trkpt>
<trkpt lat="-27.274439" lon="151.290064">
  <ele>343.1</ele>
  <time>2026-09-01T19:58:42Z</time>
  <course>270.0</course>
  <speed>0.0</speed>
  <fix>3d</fix>
</trkpt>
<trkpt lat="-27.274439" lon="151.290064">
  <ele>343.14</ele>
  <time>2026-09-01T19:58:42Z</time>
  <course>11.06</course>
  <speed>0.0</speed>
  <fix>3d</fix>
</trkpt>
<trkpt lat="-27.274439" lon="151.290064">
  <ele>343.1</ele>
  <time>2026-09-01T19:58:42Z</time>
  <course>270.0</course>
  <speed>0.0</speed>
  <fix>3d</fix>
</trkpt>
<trkpt lat="-27.274439" lon="151.290064">
  <ele>342.86</ele>
  <time>2026-09-01T19:58:42Z</time>
  <course>11.06</course>
  <speed>0.0</speed>
  <fix>3d</fix>
</trkpt>
<trkpt lat="-27.274439" lon="151.290064">
  <ele>343.1</ele>
  <time>2026-09-01T19:58:42Z</time>
  <course>270.0</course>
  <speed>0.0</speed>
  <fix>3d</fix>
</trkpt>
<trkpt lat="-27.274439" lon="151.290064">
  <ele>342.92</ele>
  <time>2026-09-01T19:58:42Z</time>
  <course>11.06</course>
  <speed>0.0</speed>
  <fix>3d</fix>
</trkpt>
<trkpt lat="-27.274439" lon="151.290064">
  <ele>343.1</ele>
  <time>2026-09-01T19:58:42Z</time>
  <course>270.0</course>
  <speed>0.0</speed>
  <fix>3d</fix>
</trkpt>
<trkpt lat="-27.274439" lon="151.290064">
  <ele>343.12</ele>
  <time>2026-09-01T19:58:42Z</time>
  <course>11.05</course>
  <speed>0.0</speed>
  <fix>3d</fix>
</trkpt>
<trkpt lat="-27.274439" lon="151.290064">
  <ele>343.1</ele>
  <time>2026-09-01T19:58:42Z</time>
  <course>270.0</course>
  <speed>0.0</speed>
  <fix>3d</fix>
</trkpt>
<trkpt lat="-27.274439" lon="151.290064">
  <ele>343.03</ele>
  <time>2026-09-01T19:58:42Z</time>
  <course>11.05</course>
  <speed>0.0</speed>
  <fix>3d</fix>
</trkpt>
<trkpt lat="-27.274439" lon="151.290064">
  <ele>343.1</ele>
  <time>2026-09-01T19:58:42Z</time>
  <course>270.0</course>
  <speed>0.0</speed>
  <fix>3d</fix>
</trkpt>
<trkpt lat="-27.274439" lon="151.290064">
  <ele>343.07</ele>
  <time>2026-09-01T19:58:42Z</time>
  <course>11.05</course>
  <speed>0.0</speed>
  <fix>3d</fix>
</trkpt>
<trkpt lat="-27.274439" lon="151.290064">
  <ele>343.1</ele>
  <time>2026-09-01T19:58:42Z</time>
  <course>270.0</course>
  <speed>0.0</speed>
  <fix>3d</fix>
</trkpt>
<trkpt lat="-27.274439" lon="151.290064">
  <ele>343.03</ele>
  <time>2026-09-01T19:58:42Z</time>
  <course>11.05</course>
  <speed>0.0</speed>
  <fix>3d</fix>
</trkpt>
<trkpt lat="-27.274439" lon="151.290064">
  <ele>343.1</ele>
  <time>2026-09-01T19:58:42Z</time>
  <course>270.0</course>
  <speed>0.0</speed>
  <fix>3d</fix>
</trkpt>
<trkpt lat="-27.274439" lon="151.290064">
  <ele>342.88</ele>
  <time>2026-09-01T19:58:42Z</time>
  <course>11.04</course>
  <speed>0.0</speed>
  <fix>3d</fix>
</trkpt>
<trkpt lat="-27.274439" lon="151.290064">
  <ele>343.1</ele>
  <time>2026-09-01T19:58:42Z</time>
  <course>270.0</course>
  <speed>0.0</speed>
  <fix>3d</fix>
</trkpt>
<trkpt lat="-27.274439" lon="151.290064">
  <ele>343.0</ele>
  <time>2026-09-01T19:58:42Z</time>
  <course>11.04</course>
  <speed>0.0</speed>
  <fix>3d</fix>
</trkpt>
<trkpt lat="-27.274439" lon="151.290064">
  <ele>343.1</ele>
  <time>2026-09-01T19:58:42Z</time>
  <course>270.0</course>
  <speed>0.0</speed>
  <fix>3d</fix>
</trkpt>
<trkpt lat="-27.274439" lon="151.290064">
  <ele>343.1</ele>
  <time>2026-09-01T19:58:42Z</time>
  <course>11.04</course>
  <speed>0.0</speed>
  <fix>3d</fix>
</trkpt>
<trkpt lat="-27.274439" lon="151.290064">
  <ele>343.1</ele>
  <time>2026-09-01T19:58:42Z</time>
  <course>270.0</course>
  <speed>0.0</speed>
  <fix>3d</fix>
</trkpt>
<trkpt lat="-27.274439" lon="151.290064">
  <ele>343.04</ele>
  <time>2026-09-01T19:58:42Z</time>
  <course>11.04</course>
  <speed>0.0</speed>
  <fix>3d</fix>
</trkpt>
<trkpt lat="-27.274439" lon="151.290064">
  <ele>343.1</ele>
  <time>2026-09-01T19:58:42Z</time>
  <course>270.0</course>
  <speed>0.0</speed>
  <fix>3d</fix>
</trkpt>
<trkpt lat="-27.274439" lon="151.290064">
  <ele>343.22</ele>
  <time>2026-09-01T19:58:42Z</time>
  <course>11.03</course>
  <speed>0.0</speed>
  <fix>3d</fix>
</trkpt>
<trkpt lat="-27.274439" lon="151.290064">
  <ele>343.1</ele>
  <time>2026-09-01T19:58:42Z</time>
  <course>270.0</course>
  <speed>0.0</speed>
  <fix>3d</fix>
</trkpt>
<trkpt lat="-27.274439" lon="151.290064">
  <ele>343.05</ele>
  <time>2026-09-01T19:58:42Z</time>
  <course>11.03</course>
  <speed>0.0</speed>
  <fix>3d</fix>
</trkpt>
<trkpt lat="-27.274439" lon="151.290064">
  <ele>343.1</ele>
  <time>2026-09-01T19:58:42Z</time>
  <course>270.0</course>
  <speed>0.0</speed>
  <fix>3d</fix>
</trkpt>
<trkpt lat="-27.274439" lon="151.290064">
  <ele>343.07</ele>
  <time>2026-09-01T19:58:42Z</time>
  <course>11.03</course>
  <speed>0.0</speed>
  <fix>3d</fix>
</trkpt>
<trkpt lat="-27.274439" lon="151.290064">
  <ele>343.1</ele>
  <time>2026-09-01T19:58:42Z</time>
  <course>270.0</course>
  <speed>0.0</speed>
  <fix>3d</fix>
</trkpt>
<trkpt lat="-27.274439" lon="151.290064">
  <ele>343.08</ele>
  <time>2026-09-01T19:58:42Z</time>
  <course>11.03</course>
  <speed>0.0</speed>
  <fix>3d</fix>
</trkpt>
<trkpt lat="-27.274439" lon="151.290064">
  <ele>343.1</ele>
  <time>2026-09-01T19:58:42Z</time>
  <course>270.0</course>
  <speed>0.0</speed>
  <fix>3d</fix>
</trkpt>
<trkpt lat="-27.274439" lon="151.290064">
  <ele>342.89</ele>
  <time>2026-09-01T19:58:42Z</time>
  <course>11.02</course>
  <speed>0.0</speed>
  <fix>3d</fix>
</trkpt>
<trkpt lat="-27.274439" lon="151.290064">
  <ele>343.1</ele>
  <time>2026-09-01T19:58:42Z</time>
  <course>270.0</course>
  <speed>0.0</speed>
  <fix>3d</fix>
</trkpt>
<trkpt lat="-27.274439" lon="151.290064">
  <ele>342.99</ele>
  <time>2026-09-01T19:58:42Z</time>
  <course>11.02</course>
  <speed>0.0</speed>
  <fix>3d</fix>
</trkpt>
<trkpt lat="-27.274439" lon="151.290064">
  <ele>343.1</ele>
  <time>2026-09-01T19:58:42Z</time>
  <course>270.0</course>
  <speed>0.0</speed>
  <fix>3d</fix>
</trkpt>
<trkpt lat="-27.274439" lon="151.290064">
  <ele>342.89</ele>
  <time>2026-09-01T19:58:42Z</time>
  <course>11.02</course>
  <speed>0.0</speed>
  <fix>3d</fix>
</trkpt>
<trkpt lat="-27.274439" lon="151.290064">
  <ele>343.1</ele>
  <time>2026-09-01T19:58:42Z</time>
  <course>270.0</course>
  <speed>0.0</speed>
  <fix>3d</fix>
</trkpt>
<trkpt lat="-27.274439" lon="151.290064">
  <ele>343.19</ele>
  <time>2026-09-01T19:58:42Z</time>
  <course>11.02</course>
  <speed>0.0</speed>
  <fix>3d</fix>
</trkpt>
<trkpt lat="-27.274439" lon="151.290064">
  <ele>343.1</ele>
  <time>2026-09-01T19:58:42Z</time>
  <course>270.0</course>
  <speed>0.0</speed>
  <fix>3d</fix>
</trkpt>
<trkpt lat="-27.274439" lon="151.290064">
  <ele>343.02</ele>
  <time>2026-09-01T19:58:42Z</time>
  <course>11.01</course>
  <speed>0.0</speed>
  <fix>3d</fix>
</trkpt>
<trkpt lat="-27.274439" lon="151.290064">
  <ele>343.1</ele>
  <time>2026-09-01T19:58:42Z</time>
  <course>270.0</course>
  <speed>0.0</speed>
  <fix>3d</fix>
</trkpt>
<trkpt lat="-27.274439" lon="151.290064">
  <ele>343.2</ele>
  <time>2026-09-01T19:58:42Z</time>
  <course>11.01</course>
  <speed>0.0</speed>
  <fix>3d</fix>
</trkpt>
<trkpt lat="-27.274439" lon="151.290064">
  <ele>343.1</ele>
  <time>2026-09-01T19:58:42Z</time>
  <course>270.0</course>
  <speed>0.0</speed>
  <fix>3d</fix>
</trkpt>
<trkpt lat="-27.274439" lon="151.290064">
  <ele>343.22</ele>
  <time>2026-09-01T19:58:42Z</time>
  <course>11.01</course>
  <speed>0.0</speed>
  <fix>3d</fix>
</trkpt>
<trkpt lat="-27.274439" lon="151.290064">
  <ele>343.1</ele>
  <time>2026-09-01T19:58:42Z</time>
  <course>270.0</course>
  <speed>0.0</speed>
  <fix>3d</fix>
</trkpt>
<trkpt lat="-27.274439" lon="151.290064">
  <ele>343.04</ele>
  <time>2026-09-01T19:58:42Z</time>
  <course>11.01</course>
  <speed>0.0</speed>
  <fix>3d</fix>
</trkpt>
<trkpt lat="-27.274439" lon="151.290064">
  <ele>343.1</ele>
  <time>2026-09-01T19:58:42Z</time>
  <course>270.0</course>
  <speed>0.0</speed>
  <fix>3d</fix>
</trkpt>
<trkpt lat="-27.274439" lon="151.290064">
  <ele>343.14</ele>
  <time>2026-09-01T19:58:42Z</time>
  <course>11.0</course>
  <speed>0.0</speed>
  <fix>3d</fix>
</trkpt>
<trkpt lat="-27.274439" lon="151.290064">
  <ele>343.1</ele>
  <time>2026-09-01T19:58:42Z</time>
  <course>270.0</course>
  <speed>0.0</speed>
  <fix>3d</fix>
</trkpt>
<trkpt lat="-27.274439" lon="151.290064">
  <ele>342.98</ele>
  <time>2026-09-01T19:58:42Z</time>
  <course>11.0</course>
  <speed>0.0</speed>
  <fix>3d</fix>
</trkpt>
<trkpt lat="-27.274439" lon="151.290064">
  <ele>343.1</ele>
  <time>2026-09-01T19:58:42Z</time>
  <course>270.0</course>
  <speed>0.0</speed>
  <fix>3d</fix>
</trkpt>
<trkpt lat="-27.274439" lon="151.290064">
  <ele>342.95</ele>
  <time>2026-09-01T19:58:42Z</time>
  <course>11.0</course>
  <speed>0.0</speed>
  <fix>3d</fix>
</trkpt>
<trkpt lat="-27.274439" lon="151.290064">
  <ele>343.1</ele>
  <time>2026-09-01T19:58:42Z</time>
  <course>270.0</course>
  <speed>0.0</speed>
  <fix>3d</fix>
</trkpt>
<trkpt lat="-27.274439" lon="151.290064">
  <ele>343.13</ele>
  <time>2026-09-01T19:58:42Z</time>
  <course>11.0</course>
  <speed>0.0</speed>
  <fix>3d</fix>
</trkpt>
<trkpt lat="-27.274439" lon="151.290064">
  <ele>343.1</ele>
  <time>2026-09-01T19:58:42Z</time>
  <course>270.0</course>
  <speed>0.0</speed>
  <fix>3d</fix>
</trkpt>
<trkpt lat="-27.274439" lon="151.290064">
  <ele>342.97</ele>
  <time>2026-09-01T19:58:42Z</time>
  <course>10.99</course>
  <speed>0.0</speed>
  <fix>3d</fix>
</trkpt>
<trkpt lat="-27.274439" lon="151.290064">
  <ele>343.1</ele>
  <time>2026-09-01T19:58:42Z</time>
  <course>270.0</course>
  <speed>0.0</speed>
  <fix>3d</fix>
</trkpt>
<trkpt lat="-27.274439" lon="151.290064">
  <ele>342.98</ele>
  <time>2026-09-01T19:58:42Z</time>
  <course>10.99</course>
  <speed>0.0</speed>
  <fix>3d</fix>
</trkpt>
<trkpt lat="-27.274439" lon="151.290064">
  <ele>343.1</ele>
  <time>2026-09-01T19:58:42Z</time>
  <course>270.0</course>
  <speed>0.0</speed>
  <fix>3d</fix>
</trkpt>
<trkpt lat="-27.274439" lon="151.290064">
  <ele>343.1</ele>
  <time>2026-09-01T19:58:42Z</time>
  <course>10.99</course>
  <speed>0.0</speed>
  <fix>3d</fix>
</trkpt>
<trkpt lat="-27.274439" lon="151.290064">
  <ele>343.1</ele>
  <time>2026-09-01T19:58:42Z</time>
  <course>270.0</course>
  <speed>0.0</speed>
  <fix>3d</fix>
</trkpt>
<trkpt lat="-27.274439" lon="151.290064">
  <ele>342.83</ele>
  <time>2026-09-01T19:58:42Z</time>
  <course>10.98</course>
  <speed>0.0</speed>
  <fix>3d</fix>
</trkpt>
<trkpt lat="-27.274439" lon="151.290064">
  <ele>343.1</ele>
  <time>2026-09-01T19:58:42Z</time>
  <course>270.0</course>
  <speed>0.0</speed>
  <fix>3d</fix>
</trkpt>
<trkpt lat="-27.274439" lon="151.290064">
  <ele>342.9</ele>
  <time>2026-09-01T19:58:42Z</time>
  <course>10.98</course>
  <speed>0.0</speed>
  <fix>3d</fix>
</trkpt>
<trkpt lat="-27.274439" lon="151.290064">
  <ele>343.1</ele>
  <time>2026-09-01T19:58:42Z</time>
  <course>270.0</course>
  <speed>0.0</speed>
  <fix>3d</fix>
</trkpt>
<trkpt lat="-27.274439" lon="151.290064">
  <ele>342.92</ele>
  <time>2026-09-01T19:58:42Z</time>
  <course>10.97</course>
  <speed>0.0</speed>
  <fix>3d</fix>
</trkpt>
<trkpt lat="-27.274439" lon="151.290064">
  <ele>343.1</ele>
  <time>2026-09-01T19:58:42Z</time>
  <course>270.0</course>
  <speed>0.0</speed>
  <fix>3d</fix>
</trkpt>
<trkpt lat="-27.274439" lon="151.290064">
  <ele>342.88</ele>
  <time>2026-09-01T19:58:42Z</time>
  <course>10.97</course>
  <speed>0.0</speed>
  <fix>3d</fix>
</trkpt>
<trkpt lat="-27.274439" lon="151.290064">
  <ele>343.1</ele>
  <time>2026-09-01T19:58:42Z</time>
  <course>270.0</course>
  <speed>0.0</speed>
  <fix>3d</fix>
</trkpt>
<trkpt lat="-27.274439" lon="151.290064">
  <ele>342.89</ele>
  <time>2026-09-01T19:58:42Z</time>
  <course>10.96</course>
  <speed>0.0</speed>
  <fix>3d</fix>
</trkpt>
<trkpt lat="-27.274439" lon="151.290064">
  <ele>343.1</ele>
  <time>2026-09-01T19:58:42Z</time>
  <course>270.0</course>
  <speed>0.0</speed>
  <fix>3d</fix>
</trkpt>
<trkpt lat="-27.274439" lon="151.290064">
  <ele>343.05</ele>
  <time>2026-09-01T19:58:42Z</time>
  <course>10.96</course>
  <speed>0.0</speed>
  <fix>3d</fix>
</trkpt>
<trkpt lat="-27.274439" lon="151.290064">
  <ele>343.1</ele>
  <time>2026-09-01T19:58:42Z</time>
  <course>270.0</course>
  <speed>0.0</speed>
  <fix>3d</fix>
</trkpt>
<trkpt lat="-27.274439" lon="151.290064">
  <ele>343.06</ele>
  <time>2026-09-01T19:58:42Z</time>
  <course>10.96</course>
  <speed>0.0</speed>
  <fix>3d</fix>
</trkpt>
<trkpt lat="-27.274439" lon="151.290064">
  <ele>343.1</ele>
  <time>2026-09-01T19:58:42Z</time>
  <course>270.0</course>
  <speed>0.0</speed>
  <fix>3d</fix>
</trkpt>
<trkpt lat="-27.274439" lon="151.290064">
  <ele>343.18</ele>
  <time>2026-09-01T19:58:42Z</time>
  <course>10.95</course>
  <speed>0.0</speed>
  <fix>3d</fix>
</trkpt>
<trkpt lat="-27.274439" lon="151.290064">
  <ele>343.1</ele>
  <time>2026-09-01T19:58:42Z</time>
  <course>270.0</course>
  <speed>0.0</speed>
  <fix>3d</fix>
</trkpt>
<trkpt lat="-27.274439" lon="151.290064">
  <ele>342.98</ele>
  <time>2026-09-01T19:58:42Z</time>
  <course>10.95</course>
  <speed>0.0</speed>
  <fix>3d</fix>
</trkpt>
<trkpt lat="-27.274439" lon="151.290064">
  <ele>343.1</ele>
  <time>2026-09-01T19:58:42Z</time>
  <course>270.0</course>
  <speed>0.0</speed>
  <fix>3d</fix>
</trkpt>
<trkpt lat="-27.274439" lon="151.290064">
  <ele>343.05</ele>
  <time>2026-09-01T19:58:42Z</time>
  <course>10.94</course>
  <speed>0.0</speed>
  <fix>3d</fix>
</trkpt>
<trkpt lat="-27.274439" lon="151.290064">
  <ele>343.1</ele>
  <time>2026-09-01T19:58:42Z</time>
  <course>270.0</course>
  <speed>0.0</speed>
  <fix>3d</fix>
</trkpt>
<trkpt lat="-27.274439" lon="151.290064">
  <ele>343.02</ele>
  <time>2026-09-01T19:58:42Z</time>
  <course>10.94</course>
  <speed>0.0</speed>
  <fix>3d</fix>
</trkpt>
<trkpt lat="-27.274439" lon="151.290064">
  <ele>343.1</ele>
  <time>2026-09-01T19:58:42Z</time>
  <course>270.0</course>
  <speed>0.0</speed>
  <fix>3d</fix>
</trkpt>
<trkpt lat="-27.274439" lon="151.290064">
  <ele>343.12</ele>
  <time>2026-09-01T19:58:42Z</time>
  <course>10.94</course>
  <speed>0.0</speed>
  <fix>3d</fix>
</trkpt>
<trkpt lat="-27.274439" lon="151.290064">
  <ele>343.1</ele>
  <time>2026-09-01T19:58:42Z</time>
  <course>270.0</course>
  <speed>0.0</speed>
  <fix>3d</fix>
</trkpt>
<trkpt lat="-27.274439" lon="151.290064">
  <ele>343.0</ele>
  <time>2026-09-01T19:58:42Z</time>
  <course>10.93</course>
  <speed>0.0</speed>
  <fix>3d</fix>
</trkpt>
<trkpt lat="-27.274439" lon="151.290064">
  <ele>343.1</ele>
  <time>2026-09-01T19:58:42Z</time>
  <course>270.0</course>
  <speed>0.0</speed>
  <fix>3d</fix>
</trkpt>
<trkpt lat="-27.274439" lon="151.290064">
  <ele>342.9</ele>
  <time>2026-09-01T19:58:42Z</time>
  <course>10.93</course>
  <speed>0.0</speed>
  <fix>3d</fix>
</trkpt>
<trkpt lat="-27.274439" lon="151.290064">
  <ele>343.1</ele>
  <time>2026-09-01T19:58:42Z</time>
  <course>270.0</course>
  <speed>0.0</speed>
  <fix>3d</fix>
</trkpt>
<trkpt lat="-27.274439" lon="151.290064">
  <ele>342.85</ele>
  <time>2026-09-01T19:58:42Z</time>
  <course>10.93</course>
  <speed>0.0</speed>
  <fix>3d</fix>
</trkpt>
<trkpt lat="-27.274439" lon="151.290064">
  <ele>343.1</ele>
  <time>2026-09-01T19:58:42Z</time>
  <course>270.0</course>
  <speed>0.0</speed>
  <fix>3d</fix>
</trkpt>
<trkpt lat="-27.274439" lon="151.290064">
  <ele>343.1</ele>
  <time>2026-09-01T19:58:42Z</time>
  <course>10.92</course>
  <speed>0.0</speed>
  <fix>3d</fix>
</trkpt>
<trkpt lat="-27.274439" lon="151.290064">
  <ele>343.1</ele>
  <time>2026-09-01T19:58:42Z</time>
  <course>270.0</course>
  <speed>0.0</speed>
  <fix>3d</fix>
</trkpt>
<trkpt lat="-27.274439" lon="151.290064">
  <ele>342.96</ele>
  <time>2026-09-01T19:58:42Z</time>
  <course>10.92</course>
  <speed>0.0</speed>
  <fix>3d</fix>
</trkpt>
<trkpt lat="-27.274439" lon="151.290064">
  <ele>343.1</ele>
  <time>2026-09-01T19:58:42Z</time>
  <course>270.0</course>
  <speed>0.0</speed>
  <fix>3d</fix>
</trkpt>
<trkpt lat="-27.274439" lon="151.290064">
  <ele>343.02</ele>
  <time>2026-09-01T19:58:42Z</time>
  <course>10.92</course>
  <speed>0.0</speed>
  <fix>3d</fix>
</trkpt>
<trkpt lat="-27.274439" lon="151.290064">
  <ele>343.1</ele>
  <time>2026-09-01T19:58:42Z</time>
  <course>270.0</course>
  <speed>0.0</speed>
  <fix>3d</fix>
</trkpt>
<trkpt lat="-27.274439" lon="151.290064">
  <ele>342.99</ele>
  <time>2026-09-01T19:58:42Z</time>
  <course>10.91</course>
  <speed>0.0</speed>
  <fix>3d</fix>
</trkpt>
<trkpt lat="-27.274439" lon="151.290064">
  <ele>343.1</ele>
  <time>2026-09-01T19:58:42Z</time>
  <course>270.0</course>
  <speed>0.0</speed>
  <fix>3d</fix>
</trkpt>
<trkpt lat="-27.274439" lon="151.290064">
  <ele>343.2</ele>
  <time>2026-09-01T19:58:42Z</time>
  <course>10.91</course>
  <speed>0.0</speed>
  <fix>3d</fix>
</trkpt>
<trkpt lat="-27.274439" lon="151.290064">
  <ele>343.1</ele>
  <time>2026-09-01T19:58:42Z</time>
  <course>270.0</course>
  <speed>0.0</speed>
  <fix>3d</fix>
</trkpt>
<trkpt lat="-27.274439" lon="151.290064">
  <ele>343.09</ele>
  <time>2026-09-01T19:58:42Z</time>
  <course>10.91</course>
  <speed>0.0</speed>
  <fix>3d</fix>
</trkpt>
<trkpt lat="-27.274439" lon="151.290064">
  <ele>343.1</ele>
  <time>2026-09-01T19:58:42Z</time>
  <course>270.0</course>
  <speed>0.0</speed>
  <fix>3d</fix>
</trkpt>
<trkpt lat="-27.274439" lon="151.290064">
  <ele>343.12</ele>
  <time>2026-09-01T19:58:42Z</time>
  <course>10.9</course>
  <speed>0.0</speed>
  <fix>3d</fix>
</trkpt>
<trkpt lat="-27.274439" lon="151.290064">
  <ele>343.1</ele>
  <time>2026-09-01T19:58:42Z</time>
  <course>270.0</course>
  <speed>0.0</speed>
  <fix>3d</fix>
</trkpt>
<trkpt lat="-27.274439" lon="151.290064">
  <ele>343.19</ele>
  <time>2026-09-01T19:58:42Z</time>
  <course>10.9</course>
  <speed>0.0</speed>
  <fix>3d</fix>
</trkpt>
<trkpt lat="-27.274439" lon="151.290064">
  <ele>343.1</ele>
  <time>2026-09-01T19:58:42Z</time>
  <course>270.0</course>
  <speed>0.0</speed>
  <fix>3d</fix>
</trkpt>
<trkpt lat="-27.274439" lon="151.290064">
  <ele>343.14</ele>
  <time>2026-09-01T19:58:42Z</time>
  <course>10.9</course>
  <speed>0.0</speed>
  <fix>3d</fix>
</trkpt>
<trkpt lat="-27.274439" lon="151.290064">
  <ele>343.1</ele>
  <time>2026-09-01T19:58:42Z</time>
  <course>270.0</course>
  <speed>0.0</speed>
  <fix>3d</fix>
</trkpt>
<trkpt lat="-27.274439" lon="151.290064">
  <ele>342.91</ele>
  <time>2026-09-01T19:58:42Z</time>
  <course>10.89</course>
  <speed>0.0</speed>
  <fix>3d</fix>
</trkpt>
<trkpt lat="-27.274439" lon="151.290064">
  <ele>343.1</ele>
  <time>2026-09-01T19:58:42Z</time>
  <course>270.0</course>
  <speed>0.0</speed>
  <fix>3d</fix>
</trkpt>
<trkpt lat="-27.274439" lon="151.290064">
  <ele>342.99</ele>
  <time>2026-09-01T19:58:42Z</time>
  <course>10.89</course>
  <speed>0.0</speed>
  <fix>3d</fix>
</trkpt>
<trkpt lat="-27.274439" lon="151.290064">
  <ele>343.1</ele>
  <time>2026-09-01T19:58:42Z</time>
  <course>270.0</course>
  <speed>0.0</speed>
  <fix>3d</fix>
</trkpt>
<trkpt lat="-27.274439" lon="151.290064">
  <ele>342.97</ele>
  <time>2026-09-01T19:58:42Z</time>
  <course>10.89</course>
  <speed>0.0</speed>
  <fix>3d</fix>
</trkpt>
<trkpt lat="-27.274439" lon="151.290064">
  <ele>343.1</ele>
  <time>2026-09-01T19:58:42Z</time>
  <course>270.0</course>
  <speed>0.0</speed>
  <fix>3d</fix>
</trkpt>
<trkpt lat="-27.274439" lon="151.290064">
  <ele>342.85</ele>
  <time>2026-09-01T19:58:42Z</time>
  <course>10.88</course>
  <speed>0.0</speed>
  <fix>3d</fix>
</trkpt>
<trkpt lat="-27.274439" lon="151.290064">
  <ele>343.1</ele>
  <time>2026-09-01T19:58:42Z</time>
  <course>270.0</course>
  <speed>0.0</speed>
  <fix>3d</fix>
</trkpt>
<trkpt lat="-27.274439" lon="151.290064">
  <ele>342.87</ele>
  <time>2026-09-01T19:58:42Z</time>
  <course>10.88</course>
  <speed>0.0</speed>
  <fix>3d</fix>
</trkpt>
<trkpt lat="-27.274439" lon="151.290064">
  <ele>343.1</ele>
  <time>2026-09-01T19:58:42Z</time>
  <course>270.0</course>
  <speed>0.0</speed>
  <fix>3d</fix>
</trkpt>
<trkpt lat="-27.274439" lon="151.290064">
  <ele>343.13</ele>
  <time>2026-09-01T19:58:42Z</time>
  <course>10.88</course>
  <speed>0.0</speed>
  <fix>3d</fix>
</trkpt>
<trkpt lat="-27.274439" lon="151.290064">
  <ele>343.1</ele>
  <time>2026-09-01T19:58:42Z</time>
  <course>270.0</course>
  <speed>0.0</speed>
  <fix>3d</fix>
</trkpt>
<trkpt lat="-27.274439" lon="151.290064">
  <ele>343.08</ele>
  <time>2026-09-01T19:58:42Z</time>
  <course>10.88</course>
  <speed>0.0</speed>
  <fix>3d</fix>
</trkpt>
<trkpt lat="-27.274439" lon="151.290064">
  <ele>343.1</ele>
  <time>2026-09-01T19:58:42Z</time>
  <course>270.0</course>
  <speed>0.0</speed>
  <fix>3d</fix>
</trkpt>
<trkpt lat="-27.274439" lon="151.290064">
  <ele>342.88</ele>
  <time>2026-09-01T19:58:42Z</time>
  <course>10.87</course>
  <speed>0.0</speed>
  <fix>3d</fix>
</trkpt>
<trkpt lat="-27.274439" lon="151.290064">
  <ele>343.1</ele>
  <time>2026-09-01T19:58:42Z</time>
  <course>270.0</course>
  <speed>0.0</speed>
  <fix>3d</fix>
</trkpt>
<trkpt lat="-27.274439" lon="151.290064">
  <ele>342.83</ele>
  <time>2026-09-01T19:58:42Z</time>
  <course>10.87</course>
  <speed>0.0</speed>
  <fix>3d</fix>
</trkpt>
<trkpt lat="-27.274439" lon="151.290064">
  <ele>343.1</ele>
  <time>2026-09-01T19:58:42Z</time>
  <course>270.0</course>
  <speed>0.0</speed>
  <fix>3d</fix>
</trkpt>
<trkpt lat="-27.274439" lon="151.290064">
  <ele>343.0</ele>
  <time>2026-09-01T19:58:42Z</time>
  <course>10.87</course>
  <speed>0.0</speed>
  <fix>3d</fix>
</trkpt>
<trkpt lat="-27.274439" lon="151.290064">
  <ele>343.1</ele>
  <time>2026-09-01T19:58:42Z</time>
  <course>270.0</course>
  <speed>0.0</speed>
  <fix>3d</fix>
</trkpt>
<trkpt lat="-27.274439" lon="151.290064">
  <ele>342.82</ele>
  <time>2026-09-01T19:58:42Z</time>
  <course>10.86</course>
  <speed>0.0</speed>
  <fix>3d</fix>
</trkpt>
<trkpt lat="-27.274439" lon="151.290064">
  <ele>343.1</ele>
  <time>2026-09-01T19:58:42Z</time>
  <course>270.0</course>
  <speed>0.0</speed>
  <fix>3d</fix>
</trkpt>
<trkpt lat="-27.274439" lon="151.290064">
  <ele>342.88</ele>
  <time>2026-09-01T19:58:42Z</time>
  <course>10.86</course>
  <speed>0.0</speed>
  <fix>3d</fix>
</trkpt>
<trkpt lat="-27.274439" lon="151.290064">
  <ele>343.1</ele>
  <time>2026-09-01T19:58:42Z</time>
  <course>270.0</course>
  <speed>0.0</speed>
  <fix>3d</fix>
</trkpt>
<trkpt lat="-27.274439" lon="151.290064">
  <ele>342.86</ele>
  <time>2026-09-01T19:58:42Z</time>
  <course>10.86</course>
  <speed>0.0</speed>
  <fix>3d</fix>
</trkpt>
<trkpt lat="-27.274439" lon="151.290064">
  <ele>343.1</ele>
  <time>2026-09-01T19:58:42Z</time>
  <course>270.0</course>
  <speed>0.0</speed>
  <fix>3d</fix>
</trkpt>
<trkpt lat="-27.274439" lon="151.290064">
  <ele>343.15</ele>
  <time>2026-09-01T19:58:42Z</time>
  <course>10.86</course>
  <speed>0.0</speed>
  <fix>3d</fix>
</trkpt>
<trkpt lat="-27.274439" lon="151.290064">
  <ele>343.1</ele>
  <time>2026-09-01T19:58:42Z</time>
  <course>270.0</course>
  <speed>0.0</speed>
  <fix>3d</fix>
</trkpt>
<trkpt lat="-27.274439" lon="151.290064">
  <ele>342.9</ele>
  <time>2026-09-01T19:58:42Z</time>
  <course>10.85</course>
  <speed>0.0</speed>
  <fix>3d</fix>
</trkpt>
<trkpt lat="-27.274439" lon="151.290064">
  <ele>343.1</ele>
  <time>2026-09-01T19:58:42Z</time>
  <course>270.0</course>
  <speed>0.0</speed>
  <fix>3d</fix>
</trkpt>
<trkpt lat="-27.274439" lon="151.290064">
  <ele>342.84</ele>
  <time>2026-09-01T19:58:42Z</time>
  <course>10.85</course>
  <speed>0.0</speed>
  <fix>3d</fix>
</trkpt>
<trkpt lat="-27.274439" lon="151.290064">
  <ele>343.1</ele>
  <time>2026-09-01T19:58:42Z</time>
  <course>270.0</course>
  <speed>0.0</speed>
  <fix>3d</fix>
</trkpt>
<trkpt lat="-27.274439" lon="151.290064">
  <ele>342.85</ele>
  <time>2026-09-01T19:58:42Z</time>
  <course>10.85</course>
  <speed>0.0</speed>
  <fix>3d</fix>
</trkpt>
<trkpt lat="-27.274439" lon="151.290064">
  <ele>343.1</ele>
  <time>2026-09-01T19:58:42Z</time>
  <course>270.0</course>
  <speed>0.0</speed>
  <fix>3d</fix>
</trkpt>
<trkpt lat="-27.274439" lon="151.290064">
  <ele>342.89</ele>
  <time>2026-09-01T19:58:42Z</time>
  <course>10.85</course>
  <speed>0.0</speed>
  <fix>3d</fix>
</trkpt>
<trkpt lat="-27.274439" lon="151.290064">
  <ele>343.1</ele>
  <time>2026-09-01T19:58:42Z</time>
  <course>270.0</course>
  <speed>0.0</speed>
  <fix>3d</fix>
</trkpt>
<trkpt lat="-27.274439" lon="151.290064">
  <ele>343.01</ele>
  <time>2026-09-01T19:58:42Z</time>
  <course>10.84</course>
  <speed>0.0</speed>
  <fix>3d</fix>
</trkpt>
<trkpt lat="-27.274439" lon="151.290064">
  <ele>343.1</ele>
  <time>2026-09-01T19:58:42Z</time>
  <course>270.0</course>
  <speed>0.0</speed>
  <fix>3d</fix>
</trkpt>
<trkpt lat="-27.274439" lon="151.290064">
  <ele>342.97</ele>
  <time>2026-09-01T19:58:42Z</time>
  <course>10.84</course>
  <speed>0.0</speed>
  <fix>3d</fix>
</trkpt>
<trkpt lat="-27.274439" lon="151.290064">
  <ele>343.1</ele>
  <time>2026-09-01T19:58:42Z</time>
  <course>270.0</course>
  <speed>0.0</speed>
  <fix>3d</fix>
</trkpt>
<trkpt lat="-27.274439" lon="151.290064">
  <ele>343.12</ele>
  <time>2026-09-01T19:58:42Z</time>
  <course>10.84</course>
  <speed>0.0</speed>
  <fix>3d</fix>
</trkpt>
<trkpt lat="-27.274439" lon="151.290064">
  <ele>343.1</ele>
  <time>2026-09-01T19:58:42Z</time>
  <course>270.0</course>
  <speed>0.0</speed>
  <fix>3d</fix>
</trkpt>
<trkpt lat="-27.274439" lon="151.290064">
  <ele>343.0</ele>
  <time>2026-09-01T19:58:42Z</time>
  <course>10.69</course>
  <speed>0.0</speed>
  <fix>3d</fix>
</trkpt>
<trkpt lat="-27.274439" lon="151.290064">
  <ele>343.1</ele>
  <time>2026-09-01T19:58:42Z</time>
  <course>270.0</course>
  <speed>0.0</speed>
  <fix>3d</fix>
</trkpt>
<trkpt lat="-27.274439" lon="151.290064">
  <ele>343.0</ele>
  <time>2026-09-01T19:58:42Z</time>
  <course>10.69</course>
  <speed>0.0</speed>
  <fix>3d</fix>
</trkpt>
<trkpt lat="-27.274439" lon="151.290064">
  <ele>343.1</ele>
  <time>2026-09-01T19:58:42Z</time>
  <course>270.0</course>
  <speed>0.0</speed>
  <fix>3d</fix>
</trkpt>
<trkpt lat="-27.274439" lon="151.290064">
  <ele>343.0</ele>
  <time>2026-09-01T19:58:42Z</time>
  <course>10.69</course>
  <speed>0.0</speed>
  <fix>3d</fix>
</trkpt>
<trkpt lat="-27.274439" lon="151.290064">
  <ele>343.1</ele>
  <time>2026-09-01T19:58:42Z</time>
  <course>270.0</course>
  <speed>0.0</speed>
  <fix>3d</fix>
</trkpt>
<trkpt lat="-27.274439" lon="151.290064">
  <ele>342.99</ele>
  <time>2026-09-01T19:58:42Z</time>
  <course>10.69</course>
  <speed>0.0</speed>
  <fix>3d</fix>
</trkpt>
<trkpt lat="-27.274439" lon="151.290064">
  <ele>343.1</ele>
  <time>2026-09-01T19:58:42Z</time>
  <course>270.0</course>
  <speed>0.0</speed>
  <fix>3d</fix>
</trkpt>
<trkpt lat="-27.274439" lon="151.290064">
  <ele>342.99</ele>
  <time>2026-09-01T19:58:42Z</time>
  <course>10.69</course>
  <speed>0.0</speed>
  <fix>3d</fix>
</trkpt>
<trkpt lat="-27.274439" lon="151.290064">
  <ele>343.1</ele>
  <time>2026-09-01T19:58:42Z</time>
  <course>270.0</course>
  <speed>0.0</speed>
  <fix>3d</fix>
</trkpt>
<trkpt lat="-27.274439" lon="151.290064">
  <ele>342.99</ele>
  <time>2026-09-01T19:58:42Z</time>
  <course>10.69</course>
  <speed>0.0</speed>
  <fix>3d</fix>
</trkpt>
<trkpt lat="-27.274439" lon="151.290064">
  <ele>343.1</ele>
  <time>2026-09-01T19:58:42Z</time>
  <course>270.0</course>
  <speed>0.0</speed>
  <fix>3d</fix>
</trkpt>
<trkpt lat="-27.274439" lon="151.290064">
  <ele>342.98</ele>
  <time>2026-09-01T19:58:42Z</time>
  <course>10.69</course>
  <speed>0.0</speed>
  <fix>3d</fix>
</trkpt>
<trkpt lat="-27.274439" lon="151.290064">
  <ele>343.1</ele>
  <time>2026-09-01T19:58:42Z</time>
  <course>270.0</course>
  <speed>0.0</speed>
  <fix>3d</fix>
</trkpt>
<trkpt lat="-27.274439" lon="151.290064">
  <ele>342.98</ele>
  <time>2026-09-01T19:58:42Z</time>
  <course>10.69</course>
  <speed>0.0</speed>
  <fix>3d</fix>
</trkpt>
<trkpt lat="-27.274439" lon="151.290064">
  <ele>343.1</ele>
  <time>2026-09-01T19:58:42Z</time>
  <course>270.0</course>
  <speed>0.0</speed>
  <fix>3d</fix>
</trkpt>
<trkpt lat="-27.274439" lon="151.290064">
  <ele>342.97</ele>
  <time>2026-09-01T19:58:42Z</time>
  <course>10.69</course>
  <speed>0.0</speed>
  <fix>3d</fix>
</trkpt>
<trkpt lat="-27.274439" lon="151.290064">
  <ele>343.1</ele>
  <time>2026-09-01T19:58:42Z</time>
  <course>270.0</course>
  <speed>0.0</speed>
  <fix>3d</fix>
</trkpt>
<trkpt lat="-27.274439" lon="151.290064">
  <ele>342.97</ele>
  <time>2026-09-01T19:58:42Z</time>
  <course>10.69</course>
  <speed>0.0</speed>
  <fix>3d</fix>
</trkpt>
<trkpt lat="-27.274439" lon="151.290064">
  <ele>343.1</ele>
  <time>2026-09-01T19:58:42Z</time>
  <course>270.0</course>
  <speed>0.0</speed>
  <fix>3d</fix>
</trkpt>
<trkpt lat="-27.274439" lon="151.290064">
  <ele>342.97</ele>
  <time>2026-09-01T19:58:42Z</time>
  <course>10.69</course>
  <speed>0.01</speed>
  <fix>3d</fix>
</trkpt>
<trkpt lat="-27.274439" lon="151.290064">
  <ele>343.1</ele>
  <time>2026-09-01T19:58:42Z</time>
  <course>270.0</course>
  <speed>0.0</speed>
  <fix>3d</fix>
</trkpt>
<trkpt lat="-27.274439" lon="151.290064">
  <ele>343.09</ele>
  <time>2026-09-01T19:58:42Z</time>
  <course>10.69</course>
  <speed>0.01</speed>
  <fix>3d</fix>
</trkpt>
<trkpt lat="-27.274439" lon="151.290064">
  <ele>343.1</ele>
  <time>2026-09-01T19:58:42Z</time>
  <course>270.0</course>
  <speed>0.0</speed>
  <fix>3d</fix>
</trkpt>
<trkpt lat="-27.274439" lon="151.290064">
  <ele>343.09</ele>
  <time>2026-09-01T19:58:42Z</time>
  <course>10.69</course>
  <speed>0.01</speed>
  <fix>3d</fix>
</trkpt>
<trkpt lat="-27.274439" lon="151.290064">
  <ele>343.1</ele>
  <time>2026-09-01T19:58:42Z</time>
  <course>270.0</course>
  <speed>0.0</speed>
  <fix>3d</fix>
</trkpt>
<trkpt lat="-27.274439" lon="151.290064">
  <ele>343.09</ele>
  <time>2026-09-01T19:58:42Z</time>
  <course>10.69</course>
  <speed>0.01</speed>
  <fix>3d</fix>
</trkpt>
<trkpt lat="-27.274439" lon="151.290064">
  <ele>343.1</ele>
  <time>2026-09-01T19:58:42Z</time>
  <course>270.0</course>
  <speed>0.0</speed>
  <fix>3d</fix>
</trkpt>
<trkpt lat="-27.274439" lon="151.290064">
  <ele>343.09</ele>
  <time>2026-09-01T19:58:42Z</time>
  <course>10.69</course>
  <speed>0.01</speed>
  <fix>3d</fix>
</trkpt>
<trkpt lat="-27.274439" lon="151.290064">
  <ele>343.1</ele>
  <time>2026-09-01T19:58:42Z</time>
  <course>137.21</course>
  <speed>0.0</speed>
  <fix>3d</fix>
</trkpt>
<trkpt lat="-27.274439" lon="151.290064">
  <ele>343.08</ele>
  <time>2026-09-01T19:58:42Z</time>
  <course>10.69</course>
  <speed>0.01414213562373095</speed>
  <fix>3d</fix>
</trkpt>
<trkpt lat="-27.274439" lon="151.290064">
  <ele>343.1</ele>
  <time>2026-09-01T19:58:42Z</time>
  <course>137.21</course>
  <speed>0.0</speed>
  <fix>3d</fix>
</trkpt>
<trkpt lat="-27.274439" lon="151.290064">
  <ele>343.08</ele>
  <time>2026-09-01T19:58:42Z</time>
  <course>10.69</course>
  <speed>0.01414213562373095</speed>
  <fix>3d</fix>
</trkpt>
<trkpt lat="-27.274439" lon="151.290064">
  <ele>343.08</ele>
  <time>2026-09-01T19:58:42Z</time>
  <course>10.69</course>
  <speed>0.01414213562373095</speed>
  <fix>3d</fix>
</trkpt>
<trkpt lat="-27.274439" lon="151.290064">
  <ele>343.1</ele>
  <time>2026-09-01T19:58:42Z</time>
  <course>139.13</course>
  <speed>0.0</speed>
  <fix>3d</fix>
</trkpt>
<trkpt lat="-27.274439" lon="151.290064">
  <ele>343.08</ele>
  <time>2026-09-01T19:58:42Z</time>
  <course>10.69</course>
  <speed>0.01414213562373095</speed>
  <fix>3d</fix>
</trkpt>
<trkpt lat="-27.274439" lon="151.290064">
  <ele>343.08</ele>
  <time>2026-09-01T19:58:42Z</time>
  <course>10.69</course>
  <speed>0.01414213562373095</speed>
  <fix>3d</fix>
</trkpt>
<trkpt lat="-27.274439" lon="151.290064">
  <ele>343.1</ele>
  <time>2026-09-01T19:58:42Z</time>
  <course>139.13</course>
  <speed>0.0</speed>
  <fix>3d</fix>
</trkpt>
<trkpt lat="-27.274439" lon="151.290064">
  <ele>343.08</ele>
  <time>2026-09-01T19:58:42Z</time>
  <course>10.69</course>
  <speed>0.01414213562373095</speed>
  <fix>3d</fix>
</trkpt>
<trkpt lat="-27.274439" lon="151.290064">
  <ele>343.08</ele>
  <time>2026-09-01T19:58:42Z</time>
  <course>10.69</course>
  <speed>0.01414213562373095</speed>
  <fix>3d</fix>
</trkpt>
<trkpt lat="-27.274439" lon="151.290064">
  <ele>343.1</ele>
  <time>2026-09-01T19:58:42Z</time>
  <course>140.32</course>
  <speed>0.0</speed>
  <fix>3d</fix>
</trkpt>
<trkpt lat="-27.274439" lon="151.290064">
  <ele>343.08</ele>
  <time>2026-09-01T19:58:42Z</time>
  <course>10.69</course>
  <speed>0.01414213562373095</speed>
  <fix>3d</fix>
</trkpt>
<trkpt lat="-27.274439" lon="151.290064">
  <ele>343.08</ele>
  <time>2026-09-01T19:58:42Z</time>
  <course>10.69</course>
  <speed>0.01414213562373095</speed>
  <fix>3d</fix>
</trkpt>
<trkpt lat="-27.274439" lon="151.290064">
  <ele>343.1</ele>
  <time>2026-09-01T19:58:42Z</time>
  <course>140.32</course>
  <speed>0.0</speed>
  <fix>3d</fix>
</trkpt>
<trkpt lat="-27.274439" lon="151.290064">
  <ele>343.08</ele>
  <time>2026-09-01T19:58:42Z</time>
  <course>10.69</course>
  <speed>0.01414213562373095</speed>
  <fix>3d</fix>
</trkpt>
<trkpt lat="-27.274439" lon="151.290064">
  <ele>343.08</ele>
  <time>2026-09-01T19:58:42Z</time>
  <course>10.69</course>
  <speed>0.01414213562373095</speed>
  <fix>3d</fix>
</trkpt>
<trkpt lat="-27.274439" lon="151.290064">
  <ele>343.1</ele>
  <time>2026-09-01T19:58:42Z</time>
  <course>319.27</course>
  <speed>0.0</speed>
  <fix>3d</fix>
</trkpt>
<trkpt lat="-27.274439" lon="151.290064">
  <ele>343.08</ele>
  <time>2026-09-01T19:58:42Z</time>
  <course>10.69</course>
  <speed>0.01414213562373095</speed>
  <fix>3d</fix>
</trkpt>
<trkpt lat="-27.274439" lon="151.290064">
  <ele>343.07</ele>
  <time>2026-09-01T19:58:42Z</time>
  <course>10.69</course>
  <speed>0.01414213562373095</speed>
  <fix>3d</fix>
</trkpt>
<trkpt lat="-27.274439" lon="151.290064">
  <ele>343.1</ele>
  <time>2026-09-01T19:58:42Z</time>
  <course>319.27</course>
  <speed>0.0</speed>
  <fix>3d</fix>
</trkpt>
<trkpt lat="-27.274439" lon="151.290064">
  <ele>343.07</ele>
  <time>2026-09-01T19:58:42Z</time>
  <course>10.69</course>
  <speed>0.01414213562373095</speed>
  <fix>3d</fix>
</trkpt>
<trkpt lat="-27.274439" lon="151.290064">
  <ele>343.07</ele>
  <time>2026-09-01T19:58:42Z</time>
  <course>10.69</course>
  <speed>0.01414213562373095</speed>
  <fix>3d</fix>
</trkpt>
<trkpt lat="-27.274439" lon="151.290064">
  <ele>343.1</ele>
  <time>2026-09-01T19:58:42Z</time>
  <course>319.38</course>
  <speed>0.0</speed>
  <fix>3d</fix>
</trkpt>
<trkpt lat="-27.274439" lon="151.290064">
  <ele>343.07</ele>
  <time>2026-09-01T19:58:42Z</time>
  <course>10.69</course>
  <speed>0.01414213562373095</speed>
  <fix>3d</fix>
</trkpt>
<trkpt lat="-27.274439" lon="151.290064">
  <ele>343.08</ele>
  <time>2026-09-01T19:58:42Z</time>
  <course>10.69</course>
  <speed>0.01414213562373095</speed>
  <fix>3d</fix>
</trkpt>
<trkpt lat="-27.274439" lon="151.290064">
  <ele>343.1</ele>
  <time>2026-09-01T19:58:42Z</time>
  <course>319.38</course>
  <speed>0.0</speed>
  <fix>3d</fix>
</trkpt>
<trkpt lat="-27.274439" lon="151.290064">
  <ele>343.09</ele>
  <time>2026-09-01T19:58:42Z</time>
  <course>10.69</course>
  <speed>0.01414213562373095</speed>
  <fix>3d</fix>
</trkpt>
<trkpt lat="-27.274439" lon="151.290064">
  <ele>343.12</ele>
  <time>2026-09-01T19:58:42Z</time>
  <course>10.69</course>
  <speed>0.01414213562373095</speed>
  <fix>3d</fix>
</trkpt>
<trkpt lat="-27.274439" lon="151.290064">
  <ele>343.1</ele>
  <time>2026-09-01T19:58:42Z</time>
  <course>7.34</course>
  <speed>0.0</speed>
  <fix>3d</fix>
</trkpt>
<trkpt lat="-27.274439" lon="151.290064">
  <ele>343.13</ele>
  <time>2026-09-01T19:58:42Z</time>
  <course>10.69</course>
  <speed>0.01414213562373095</speed>
  <fix>3d</fix>
</trkpt>
<trkpt lat="-27.274439" lon="151.290064">
  <ele>343.17</ele>
  <time>2026-09-01T19:58:42Z</time>
  <course>10.69</course>
  <speed>0.01414213562373095</speed>
  <fix>3d</fix>
</trkpt>
<trkpt lat="-27.274439" lon="151.290064">
  <ele>343.1</ele>
  <time>2026-09-01T19:58:42Z</time>
  <course>7.34</course>
  <speed>0.0</speed>
  <fix>3d</fix>
</trkpt>
<trkpt lat="-27.274439" lon="151.290064">
  <ele>343.19</ele>
  <time>2026-09-01T19:58:42Z</time>
  <course>10.69</course>
  <speed>0.01</speed>
  <fix>3d</fix>
</trkpt>
<trkpt lat="-27.274439" lon="151.290064">
  <ele>343.25</ele>
  <time>2026-09-01T19:58:42Z</time>
  <course>10.69</course>
  <speed>0.01</speed>
  <fix>3d</fix>
</trkpt>
<trkpt lat="-27.274439" lon="151.290064">
  <ele>343.15</ele>
  <time>2026-09-01T19:58:42Z</time>
  <course>7.65</course>
  <speed>0.0</speed>
  <fix>3d</fix>
</trkpt>
<trkpt lat="-27.274439" lon="151.290064">
  <ele>343.29</ele>
  <time>2026-09-01T19:58:42Z</time>
  <course>10.7</course>
  <speed>0.01414213562373095</speed>
  <fix>3d</fix>
</trkpt>
<trkpt lat="-27.274439" lon="151.290064">
  <ele>343.4</ele>
  <time>2026-09-01T19:58:42Z</time>
  <course>10.71</course>
  <speed>0.0412310562561766</speed>
  <fix>3d</fix>
</trkpt>
<trkpt lat="-27.274439" lon="151.290064">
  <ele>343.15</ele>
  <time>2026-09-01T19:58:42Z</time>
  <course>7.65</course>
  <speed>0.0</speed>
  <fix>3d</fix>
</trkpt>
<trkpt lat="-27.274439" lon="151.290064">
  <ele>343.41</ele>
  <time>2026-09-01T19:58:42Z</time>
  <course>10.71</course>
  <speed>0.0412310562561766</speed>
  <fix>3d</fix>
</trkpt>
<trkpt lat="-27.274439" lon="151.290064">
  <ele>343.61</ele>
  <time>2026-09-01T19:58:42Z</time>
  <course>10.72</course>
  <speed>0.0824621125123532</speed>
  <fix>3d</fix>
</trkpt>
<trkpt lat="-27.274439" lon="151.290064">
  <ele>343.32</ele>
  <time>2026-09-01T19:58:42Z</time>
  <course>2.49</course>
  <speed>0.03</speed>
  <fix>3d</fix>
</trkpt>
<trkpt lat="-27.274439" lon="151.290064">
  <ele>343.62</ele>
  <time>2026-09-01T19:58:42Z</time>
  <course>10.72</course>
  <speed>0.0824621125123532</speed>
  <fix>3d</fix>
</trkpt>
<trkpt lat="-27.2744389" lon="151.290064">
  <ele>343.85</ele>
  <time>2026-09-01T19:58:42Z</time>
  <course>10.7</course>
  <speed>0.13152946437965907</speed>
  <fix>3d</fix>
</trkpt>
<trkpt lat="-27.274439" lon="151.290064">
  <ele>343.32</ele>
  <time>2026-09-01T19:58:42Z</time>
  <course>2.49</course>
  <speed>0.03</speed>
  <fix>3d</fix>
</trkpt>
<trkpt lat="-27.2744389" lon="151.290064">
  <ele>343.92</ele>
  <time>2026-09-01T19:58:42Z</time>
  <course>10.7</course>
  <speed>0.14317821063276354</speed>
  <fix>3d</fix>
</trkpt>
<trkpt lat="-27.2744387" lon="151.290064">
  <ele>344.11</ele>
  <time>2026-09-01T19:58:42Z</time>
  <course>10.68</course>
  <speed>0.1824828759089466</speed>
  <fix>3d</fix>
</trkpt>
<trkpt lat="-27.2744389" lon="151.290064">
  <ele>343.66</ele>
  <time>2026-09-01T19:58:42Z</time>
  <course>2.88</course>
  <speed>0.1</speed>
  <fix>3d</fix>
</trkpt>
<trkpt lat="-27.2744387" lon="151.2900641">
  <ele>344.18</ele>
  <time>2026-09-01T19:58:42Z</time>
  <course>10.67</course>
  <speed>0.19235384061671343</speed>
  <fix>3d</fix>
</trkpt>
<trkpt lat="-27.2744385" lon="151.2900641">
  <ele>344.38</ele>
  <time>2026-09-01T19:58:42Z</time>
  <course>10.65</course>
  <speed>0.23345235059857505</speed>
  <fix>3d</fix>
</trkpt>
<trkpt lat="-27.2744389" lon="151.290064">
  <ele>343.66</ele>
  <time>2026-09-01T19:58:42Z</time>
  <course>2.88</course>
  <speed>0.1</speed>
  <fix>3d</fix>
</trkpt>
<trkpt lat="-27.2744385" lon="151.2900641">
  <ele>344.45</ele>
  <time>2026-09-01T19:58:42Z</time>
  <course>10.64</course>
  <speed>0.25317977802344327</speed>
  <fix>3d</fix>
</trkpt>
<trkpt lat="-27.2744383" lon="151.2900641">
  <ele>344.66</ele>
  <time>2026-09-01T19:58:42Z</time>
  <course>10.61</course>
  <speed>0.29274562336608895</speed>
  <fix>3d</fix>
</trkpt>
<trkpt lat="-27.2744387" lon="151.290064">
  <ele>344.16</ele>
  <time>2026-09-01T19:58:42Z</time>
  <course>3.72</course>
  <speed>0.2</speed>
  <fix>3d</fix>
</trkpt>
<trkpt lat="-27.2744382" lon="151.2900641">
  <ele>344.74</ele>
  <time>2026-09-01T19:58:42Z</time>
  <course>10.6</course>
  <speed>0.31400636936215165</speed>
  <fix>3d</fix>
</trkpt>
<trkpt lat="-27.274438" lon="151.2900641">
  <ele>344.96</ele>
  <time>2026-09-01T19:58:42Z</time>
  <course>10.42</course>
  <speed>0.3535533905932738</speed>
  <fix>3d</fix>
</trkpt>
<trkpt lat="-27.2744387" lon="151.290064">
  <ele>344.16</ele>
  <time>2026-09-01T19:58:42Z</time>
  <course>3.72</course>
  <speed>0.2</speed>
  <fix>3d</fix>
</trkpt>
<trkpt lat="-27.274438" lon="151.2900641">
  <ele>344.97</ele>
  <time>2026-09-01T19:58:42Z</time>
  <course>10.42</course>
  <speed>0.3634556369077249</speed>
  <fix>3d</fix>
</trkpt>
<trkpt lat="-27.2744376" lon="151.2900642">
  <ele>345.26</ele>
  <time>2026-09-01T19:58:42Z</time>
  <course>10.39</course>
  <speed>0.4242640687119285</speed>
  <fix>3d</fix>
</trkpt>
<trkpt lat="-27.2744382" lon="151.290064">
  <ele>344.72</ele>
  <time>2026-09-01T19:58:42Z</time>
  <course>4.37</course>
  <speed>0.31</speed>
  <fix>3d</fix>
</trkpt>
<trkpt lat="-27.2744375" lon="151.2900642">
  <ele>345.35</ele>
  <time>2026-09-01T19:58:42Z</time>
  <course>10.38</course>
  <speed>0.4341658669218482</speed>
  <fix>3d</fix>
</trkpt>
<trkpt lat="-27.2744372" lon="151.2900642">
  <ele>345.58</ele>
  <time>2026-09-01T19:58:42Z</time>
  <course>10.37</course>
  <speed>0.4850773134253961</speed>
  <fix>3d</fix>
</trkpt>
<trkpt lat="-27.2744382" lon="151.290064">
  <ele>344.72</ele>
  <time>2026-09-01T19:58:42Z</time>
  <course>4.37</course>
  <speed>0.31</speed>
  <fix>3d</fix>
</trkpt>
<trkpt lat="-27.2744371" lon="151.2900642">
  <ele>345.67</ele>
  <time>2026-09-01T19:58:42Z</time>
  <course>10.37</course>
  <speed>0.4949747468305833</speed>
  <fix>3d</fix>
</trkpt>
<trkpt lat="-27.2744368" lon="151.2900643">
  <ele>345.91</ele>
  <time>2026-09-01T19:58:42Z</time>
  <course>10.36</course>
  <speed>0.5445181356024793</speed>
  <fix>3d</fix>
</trkpt>
<trkpt lat="-27.2744376" lon="151.290064">
  <ele>345.33</ele>
  <time>2026-09-01T19:58:42Z</time>
  <course>4.87</course>
  <speed>0.43</speed>
  <fix>3d</fix>
</trkpt>
<trkpt lat="-27.2744366" lon="151.2900643">
  <ele>345.99</ele>
  <time>2026-09-01T19:58:42Z</time>
  <course>10.35</course>
  <speed>0.5557877292636101</speed>
  <fix>3d</fix>
</trkpt>
<trkpt lat="-27.2744362" lon="151.2900643">
  <ele>346.23</ele>
  <time>2026-09-01T19:58:42Z</time>
  <course>10.35</course>
  <speed>0.5953990258641678</speed>
  <fix>3d</fix>
</trkpt>
<trkpt lat="-27.2744376" lon="151.290064">
  <ele>345.33</ele>
  <time>2026-09-01T19:58:42Z</time>
  <course>4.87</course>
  <speed>0.43</speed>
  <fix>3d</fix>
</trkpt>
<trkpt lat="-27.2744361" lon="151.2900643">
  <ele>346.32</ele>
  <time>2026-09-01T19:58:42Z</time>
  <course>10.34</course>
  <speed>0.6152235366108809</speed>
  <fix>3d</fix>
</trkpt>
<trkpt lat="-27.2744357" lon="151.2900644">
  <ele>346.56</ele>
  <time>2026-09-01T19:58:42Z</time>
  <course>10.33</course>
  <speed>0.6562011886609167</speed>
  <fix>3d</fix>
</trkpt>
<trkpt lat="-27.2744367" lon="151.2900641">
  <ele>345.97</ele>
  <time>2026-09-01T19:58:42Z</time>
  <course>5.23</course>
  <speed>0.56</speed>
  <fix>3d</fix>
</trkpt>
<trkpt lat="-27.2744357" lon="151.2900644">
  <ele>346.56</ele>
  <time>2026-09-01T19:58:42Z</time>
  <course>10.33</course>
  <speed>0.6562011886609167</speed>
  <fix>3d</fix>
</trkpt>
<trkpt lat="-27.2744351" lon="151.2900644">
  <ele>346.88</ele>
  <time>2026-09-01T19:58:42Z</time>
  <course>10.32</course>
  <speed>0.7057619995437555</speed>
  <fix>3d</fix>
</trkpt>
<trkpt lat="-27.2744367" lon="151.2900641">
  <ele>345.97</ele>
  <time>2026-09-01T19:58:42Z</time>
  <course>5.23</course>
  <speed>0.56</speed>
  <fix>3d</fix>
</trkpt>
<trkpt lat="-27.274435" lon="151.2900644">
  <ele>346.89</ele>
  <time>2026-09-01T19:58:42Z</time>
  <course>10.32</course>
  <speed>0.7057619995437555</speed>
  <fix>3d</fix>
</trkpt>
<trkpt lat="-27.2744344" lon="151.2900645">
  <ele>347.19</ele>
  <time>2026-09-01T19:58:42Z</time>
  <course>10.31</course>
  <speed>0.7566372975210779</speed>
  <fix>3d</fix>
</trkpt>
<trkpt lat="-27.2744356" lon="151.2900642">
  <ele>346.6</ele>
  <time>2026-09-01T19:58:42Z</time>
  <course>5.47</course>
  <speed>0.67</speed>
  <fix>3d</fix>
</trkpt>
<trkpt lat="-27.2744342" lon="151.2900645">
  <ele>347.3</ele>
  <time>2026-09-01T19:58:42Z</time>
  <course>10.31</course>
  <speed>0.766550715869472</speed>
  <fix>3d</fix>
</trkpt>
<trkpt lat="-27.2744337" lon="151.2900646">
  <ele>347.5</ele>
  <time>2026-09-01T19:58:42Z</time>
  <course>10.31</course>
  <speed>0.7963039620647382</speed>
  <fix>3d</fix>
</trkpt>
<trkpt lat="-27.2744356" lon="151.2900642">
  <ele>346.6</ele>
  <time>2026-09-01T19:58:42Z</time>
  <course>5.47</course>
  <speed>0.67</speed>
  <fix>3d</fix>
</trkpt>
<trkpt lat="-27.2744335" lon="151.2900646">
  <ele>347.58</ele>
  <time>2026-09-01T19:58:42Z</time>
  <course>10.31</course>
  <speed>0.8062257748298549</speed>
  <fix>3d</fix>
</trkpt>
<trkpt lat="-27.274433" lon="151.2900646">
  <ele>347.8</ele>
  <time>2026-09-01T19:58:42Z</time>
  <course>10.3</course>
  <speed>0.8360023923410747</speed>
  <fix>3d</fix>
</trkpt>
<trkpt lat="-27.2744343" lon="151.2900644">
  <ele>347.23</ele>
  <time>2026-09-01T19:58:42Z</time>
  <course>5.64</course>
  <speed>0.77</speed>
  <fix>3d</fix>
</trkpt>
<trkpt lat="-27.2744328" lon="151.2900647">
  <ele>347.88</ele>
  <time>2026-09-01T19:58:42Z</time>
  <course>10.3</course>
  <speed>0.845931439302264</speed>
  <fix>3d</fix>
</trkpt>
<trkpt lat="-27.2744322" lon="151.2900647">
  <ele>348.1</ele>
  <time>2026-09-01T19:58:42Z</time>
  <course>10.31</course>
  <speed>0.87692645073575</speed>
  <fix>3d</fix>
</trkpt>
<trkpt lat="-27.2744343" lon="151.2900644">
  <ele>347.23</ele>
  <time>2026-09-01T19:58:42Z</time>
  <course>5.64</course>
  <speed>0.77</speed>
  <fix>3d</fix>
</trkpt>
<trkpt lat="-27.274432" lon="151.2900647">
  <ele>348.16</ele>
  <time>2026-09-01T19:58:42Z</time>
  <course>10.31</course>
  <speed>0.8868483523128404</speed>
  <fix>3d</fix>
</trkpt>
<trkpt lat="-27.2744314" lon="151.2900648">
  <ele>348.38</ele>
  <time>2026-09-01T19:58:42Z</time>
  <course>10.31</course>
  <speed>0.9166242414424789</speed>
  <fix>3d</fix>
</trkpt>
<trkpt lat="-27.2744328" lon="151.2900646">
  <ele>347.83</ele>
  <time>2026-09-01T19:58:42Z</time>
  <course>5.75</course>
  <speed>0.86</speed>
  <fix>3d</fix>
</trkpt>
<trkpt lat="-27.2744312" lon="151.2900648">
  <ele>348.45</ele>
  <time>2026-09-01T19:58:42Z</time>
  <course>10.31</course>
  <speed>0.9265527507918802</speed>
  <fix>3d</fix>
</trkpt>
<trkpt lat="-27.2744306" lon="151.2900649">
  <ele>348.66</ele>
  <time>2026-09-01T19:58:42Z</time>
  <course>10.32</course>
  <speed>0.9464142856064675</speed>
  <fix>3d</fix>
</trkpt>
<trkpt lat="-27.2744328" lon="151.2900646">
  <ele>347.83</ele>
  <time>2026-09-01T19:58:42Z</time>
  <course>5.75</course>
  <speed>0.86</speed>
  <fix>3d</fix>
</trkpt>
<trkpt lat="-27.2744303" lon="151.2900649">
  <ele>348.75</ele>
  <time>2026-09-01T19:58:42Z</time>
  <course>10.32</course>
  <speed>0.9563472172804185</speed>
  <fix>3d</fix>
</trkpt>
<trkpt lat="-27.2744297" lon="151.290065">
  <ele>348.93</ele>
  <time>2026-09-01T19:58:42Z</time>
  <course>10.33</course>
  <speed>0.9762171889492625</speed>
  <fix>3d</fix>
</trkpt>
<trkpt lat="-27.2744311" lon="151.2900647">
  <ele>348.41</ele>
  <time>2026-09-01T19:58:42Z</time>
  <course>5.81</course>
  <speed>0.94</speed>
  <fix>3d</fix>
</trkpt>
<trkpt lat="-27.2744294" lon="151.290065">
  <ele>349.01</ele>
  <time>2026-09-01T19:58:42Z</time>
  <course>10.33</course>
  <speed>0.986154146165801</speed>
  <fix>3d</fix>
</trkpt>
<trkpt lat="-27.2744288" lon="151.2900651">
  <ele>349.19</ele>
  <time>2026-09-01T19:58:42Z</time>
  <course>10.34</course>
  <speed>1.0060318086422517</speed>
  <fix>3d</fix>
</trkpt>
<trkpt lat="-27.2744311" lon="151.2900647">
  <ele>348.41</ele>
  <time>2026-09-01T19:58:42Z</time>
  <course>5.81</course>
  <speed>0.94</speed>
  <fix>3d</fix>
</trkpt>
<trkpt lat="-27.2744285" lon="151.2900651">
  <ele>349.26</ele>
  <time>2026-09-01T19:58:42Z</time>
  <course>10.34</course>
  <speed>1.0159724405711013</speed>
  <fix>3d</fix>
</trkpt>
<trkpt lat="-27.2744278" lon="151.2900652">
  <ele>349.45</ele>
  <time>2026-09-01T19:58:42Z</time>
  <course>10.34</course>
  <speed>1.0369667304209909</speed>
  <fix>3d</fix>
</trkpt>
<trkpt lat="-27.2744294" lon="151.290065">
  <ele>348.95</ele>
  <time>2026-09-01T19:58:42Z</time>
  <course>5.85</course>
  <speed>1.0</speed>
  <fix>3d</fix>
</trkpt>
<trkpt lat="-27.2744276" lon="151.2900652">
  <ele>349.53</ele>
  <time>2026-09-01T19:58:42Z</time>
  <course>10.34</course>
  <speed>1.046900186264192</speed>
  <fix>3d</fix>
</trkpt>
<trkpt lat="-27.2744269" lon="151.2900653">
  <ele>349.71</ele>
  <time>2026-09-01T19:58:42Z</time>
  <course>10.35</course>
  <speed>1.066770828247567</speed>
  <fix>3d</fix>
</trkpt>
<trkpt lat="-27.2744294" lon="151.290065">
  <ele>348.95</ele>
  <time>2026-09-01T19:58:42Z</time>
  <course>5.85</course>
  <speed>1.0</speed>
  <fix>3d</fix>
</trkpt>
<trkpt lat="-27.2744268" lon="151.2900653">
  <ele>349.72</ele>
  <time>2026-09-01T19:58:42Z</time>
  <course>10.35</course>
  <speed>1.066770828247567</speed>
  <fix>3d</fix>
</trkpt>
<trkpt lat="-27.2744259" lon="151.2900654">
  <ele>349.96</ele>
  <time>2026-09-01T19:58:42Z</time>
  <course>10.36</course>
  <speed>1.0866462165764899</speed>
  <fix>3d</fix>
</trkpt>
<trkpt lat="-27.2744275" lon="151.2900651">
  <ele>349.47</ele>
  <time>2026-09-01T19:58:42Z</time>
  <course>5.87</course>
  <speed>1.06</speed>
  <fix>3d</fix>
</trkpt>
<trkpt lat="-27.2744259" lon="151.2900654">
  <ele>349.97</ele>
  <time>2026-09-01T19:58:42Z</time>
  <course>10.36</course>
  <speed>1.0866462165764899</speed>
  <fix>3d</fix>
</trkpt>
<trkpt lat="-27.2744249" lon="151.2900655">
  <ele>350.2</ele>
  <time>2026-09-01T19:58:42Z</time>
  <course>10.37</course>
  <speed>1.1164676439557037</speed>
  <fix>3d</fix>
</trkpt>
<trkpt lat="-27.2744275" lon="151.2900651">
  <ele>349.47</ele>
  <time>2026-09-01T19:58:42Z</time>
  <course>5.87</course>
  <speed>1.06</speed>
  <fix>3d</fix>
</trkpt>
<trkpt lat="-27.2744246" lon="151.2900655">
  <ele>350.27</ele>
  <time>2026-09-01T19:58:42Z</time>
  <course>10.37</course>
  <speed>1.1164676439557037</speed>
  <fix>3d</fix>
</trkpt>
<trkpt lat="-27.2744239" lon="151.2900656">
  <ele>350.45</ele>
  <time>2026-09-01T19:58:42Z</time>
  <course>10.38</course>
  <speed>1.1363538181394033</speed>
  <fix>3d</fix>
</trkpt>
<trkpt lat="-27.2744256" lon="151.2900654">
  <ele>349.97</ele>
  <time>2026-09-01T19:58:42Z</time>
  <course>5.88</course>
  <speed>1.11</speed>
  <fix>3d</fix>
</trkpt>
<trkpt lat="-27.2744236" lon="151.2900656">
  <ele>350.51</ele>
  <time>2026-09-01T19:58:42Z</time>
  <course>10.38</course>
  <speed>1.1462983904725679</speed>
  <fix>3d</fix>
</trkpt>
<trkpt lat="-27.2744228" lon="151.2900657">
  <ele>350.69</ele>
  <time>2026-09-01T19:58:43Z</time>
  <course>10.39</course>
  <speed>1.1562439189029277</speed>
  <fix>3d</fix>
</trkpt>
<trkpt lat="-27.2744256" lon="151.2900654">
  <ele>349.97</ele>
  <time>2026-09-01T19:58:43Z</time>
  <course>5.88</course>
  <speed>1.11</speed>
  <fix>3d</fix>
</trkpt>
<trkpt lat="-27.2744226" lon="151.2900658">
  <ele>350.75</ele>
  <time>2026-09-01T19:58:43Z</time>
  <course>10.39</course>
  <speed>1.16619037896906</speed>
  <fix>3d</fix>
</trkpt>
<trkpt lat="-27.2744218" lon="151.2900658">
  <ele>350.93</ele>
  <time>2026-09-01T19:58:43Z</time>
  <course>10.4</course>
  <speed>1.186086000254619</speed>
  <fix>3d</fix>
</trkpt>
<trkpt lat="-27.2744236" lon="151.2900656">
  <ele>350.45</ele>
  <time>2026-09-01T19:58:43Z</time>
  <course>5.87</course>
  <speed>1.16</speed>
  <fix>3d</fix>
</trkpt>
<trkpt lat="-27.2744215" lon="151.2900659">
  <ele>351.0</ele>
  <time>2026-09-01T19:58:43Z</time>
  <course>10.4</course>
  <speed>1.186086000254619</speed>
  <fix>3d</fix>
</trkpt>
<trkpt lat="-27.2744207" lon="151.290066">
  <ele>351.17</ele>
  <time>2026-09-01T19:58:43Z</time>
  <course>10.41</course>
  <speed>1.2059850745345069</speed>
  <fix>3d</fix>
</trkpt>
<trkpt lat="-27.2744236" lon="151.2900656">
  <ele>350.45</ele>
  <time>2026-09-01T19:58:43Z</time>
  <course>5.87</course>
  <speed>1.16</speed>
  <fix>3d</fix>
</trkpt>
<trkpt lat="-27.2744204" lon="151.290066">
  <ele>351.23</ele>
  <time>2026-09-01T19:58:43Z</time>
  <course>10.41</course>
  <speed>1.2159358535712317</speed>
  <fix>3d</fix>
</trkpt>
<trkpt lat="-27.2744196" lon="151.2900661">
  <ele>351.42</ele>
  <time>2026-09-01T19:58:43Z</time>
  <course>10.41</course>
  <speed>1.226906679417795</speed>
  <fix>3d</fix>
</trkpt>
<trkpt lat="-27.2744215" lon="151.2900659">
  <ele>350.93</ele>
  <time>2026-09-01T19:58:43Z</time>
  <course>5.86</course>
  <speed>1.2</speed>
  <fix>3d</fix>
</trkpt>
<trkpt lat="-27.2744193" lon="151.2900661">
  <ele>351.48</ele>
  <time>2026-09-01T19:58:43Z</time>
  <course>10.41</course>
  <speed>1.2368508398347797</speed>
  <fix>3d</fix>
</trkpt>
<trkpt lat="-27.2744184" lon="151.2900662">
  <ele>351.66</ele>
  <time>2026-09-01T19:58:43Z</time>
  <course>10.41</course>
  <speed>1.2567418191498205</speed>
  <fix>3d</fix>
</trkpt>
<trkpt lat="-27.2744215" lon="151.2900659">
  <ele>350.93</ele>
  <time>2026-09-01T19:58:43Z</time>
  <course>5.86</course>
  <speed>1.2</speed>
  <fix>3d</fix>
</trkpt>
<trkpt lat="-27.2744182" lon="151.2900662">
  <ele>351.72</ele>
  <time>2026-09-01T19:58:43Z</time>
  <course>10.42</course>
  <speed>1.2567418191498205</speed>
  <fix>3d</fix>
</trkpt>
<trkpt lat="-27.2744173" lon="151.2900663">
  <ele>351.9</ele>
  <time>2026-09-01T19:58:43Z</time>
  <course>10.42</course>
  <speed>1.2766362050325848</speed>
  <fix>3d</fix>
</trkpt>
<trkpt lat="-27.2744193" lon="151.2900661">
  <ele>351.4</ele>
  <time>2026-09-01T19:58:43Z</time>
  <course>5.85</course>
  <speed>1.25</speed>
  <fix>3d</fix>
</trkpt>
<trkpt lat="-27.274417" lon="151.2900664">
  <ele>351.96</ele>
  <time>2026-09-01T19:58:43Z</time>
  <course>10.42</course>
  <speed>1.2766362050325848</speed>
  <fix>3d</fix>
</trkpt>
<trkpt lat="-27.2744161" lon="151.2900665">
  <ele>352.14</ele>
  <time>2026-09-01T19:58:43Z</time>
  <course>10.42</course>
  <speed>1.2965338406690357</speed>
  <fix>3d</fix>
</trkpt>
<trkpt lat="-27.2744193" lon="151.2900661">
  <ele>351.4</ele>
  <time>2026-09-01T19:58:43Z</time>
  <course>5.85</course>
  <speed>1.25</speed>
  <fix>3d</fix>
</trkpt>
<trkpt lat="-27.2744158" lon="151.2900665">
  <ele>352.2</ele>
  <time>2026-09-01T19:58:43Z</time>
  <course>10.42</course>
  <speed>1.2965338406690357</speed>
  <fix>3d</fix>
</trkpt>
<trkpt lat="-27.2744149" lon="151.2900666">
  <ele>352.39</ele>
  <time>2026-09-01T19:58:43Z</time>
  <course>10.42</course>
  <speed>1.3164345787011218</speed>
  <fix>3d</fix>
</trkpt>
<trkpt lat="-27.274417" lon="151.2900664">
  <ele>351.88</ele>
  <time>2026-09-01T19:58:43Z</time>
  <course>5.84</course>
  <speed>1.29</speed>
  <fix>3d</fix>
</trkpt>
<trkpt lat="-27.2744149" lon="151.2900666">
  <ele>352.39</ele>
  <time>2026-09-01T19:58:43Z</time>
  <course>10.42</course>
  <speed>1.3164345787011218</speed>
  <fix>3d</fix>
</trkpt>
<trkpt lat="-27.2744137" lon="151.2900667">
  <ele>352.63</ele>
  <time>2026-09-01T19:58:43Z</time>
  <course>10.41</course>
  <speed>1.3363382805263044</speed>
  <fix>3d</fix>
</trkpt>
<trkpt lat="-27.274417" lon="151.2900664">
  <ele>351.88</ele>
  <time>2026-09-01T19:58:43Z</time>
  <course>5.84</course>
  <speed>1.29</speed>
  <fix>3d</fix>
</trkpt>
<trkpt lat="-27.2744134" lon="151.2900668">
  <ele>352.7</ele>
  <time>2026-09-01T19:58:43Z</time>
  <course>10.41</course>
  <speed>1.346291201783626</speed>
  <fix>3d</fix>
</trkpt>
<trkpt lat="-27.2744125" lon="151.2900669">
  <ele>352.88</ele>
  <time>2026-09-01T19:58:43Z</time>
  <course>10.41</course>
  <speed>1.3671868928570081</speed>
  <fix>3d</fix>
</trkpt>
<trkpt lat="-27.2744147" lon="151.2900666">
  <ele>352.36</ele>
  <time>2026-09-01T19:58:43Z</time>
  <course>5.83</course>
  <speed>1.33</speed>
  <fix>3d</fix>
</trkpt>
<trkpt lat="-27.2744125" lon="151.2900669">
  <ele>352.88</ele>
  <time>2026-09-01T19:58:43Z</time>
  <course>10.41</course>
  <speed>1.3671868928570081</speed>
  <fix>3d</fix>
</trkpt>
<trkpt lat="-27.2744113" lon="151.290067">
  <ele>353.12</ele>
  <time>2026-09-01T19:58:43Z</time>
  <course>10.41</course>
  <speed>1.3870832707519762</speed>
  <fix>3d</fix>
</trkpt>
<trkpt lat="-27.2744147" lon="151.2900666">
  <ele>352.36</ele>
  <time>2026-09-01T19:58:43Z</time>
  <course>5.83</course>
  <speed>1.33</speed>
  <fix>3d</fix>
</trkpt>
<trkpt lat="-27.2744109" lon="151.290067">
  <ele>353.19</ele>
  <time>2026-09-01T19:58:43Z</time>
  <course>10.41</course>
  <speed>1.3970325694127537</speed>
  <fix>3d</fix>
</trkpt>
<trkpt lat="-27.27441" lon="151.2900671">
  <ele>353.37</ele>
  <time>2026-09-01T19:58:43Z</time>
  <course>10.41</course>
  <speed>1.4069825869569246</speed>
  <fix>3d</fix>
</trkpt>
<trkpt lat="-27.2744122" lon="151.2900669">
  <ele>352.84</ele>
  <time>2026-09-01T19:58:43Z</time>
  <course>5.83</course>
  <speed>1.38</speed>
  <fix>3d</fix>
</trkpt>
<trkpt lat="-27.2744097" lon="151.2900672">
  <ele>353.43</ele>
  <time>2026-09-01T19:58:43Z</time>
  <course>10.41</course>
  <speed>1.4169333082400175</speed>
  <fix>3d</fix>
</trkpt>
<trkpt lat="-27.2744087" lon="151.2900673">
  <ele>353.61</ele>
  <time>2026-09-01T19:58:43Z</time>
  <course>10.41</course>
  <speed>1.4368368035375485</speed>
  <fix>3d</fix>
</trkpt>
<trkpt lat="-27.2744122" lon="151.2900669">
  <ele>352.84</ele>
  <time>2026-09-01T19:58:43Z</time>
  <course>5.83</course>
  <speed>1.38</speed>
  <fix>3d</fix>
</trkpt>
<trkpt lat="-27.2744084" lon="151.2900673">
  <ele>353.67</ele>
  <time>2026-09-01T19:58:43Z</time>
  <course>10.41</course>
  <speed>1.4368368035375485</speed>
  <fix>3d</fix>
</trkpt>
<trkpt lat="-27.2744074" lon="151.2900674">
  <ele>353.86</ele>
  <time>2026-09-01T19:58:43Z</time>
  <course>10.41</course>
  <speed>1.457737973711325</speed>
  <fix>3d</fix>
</trkpt>
<trkpt lat="-27.2744097" lon="151.2900672">
  <ele>353.33</ele>
  <time>2026-09-01T19:58:43Z</time>
  <course>5.84</course>
  <speed>1.43</speed>
  <fix>3d</fix>
</trkpt>
<trkpt lat="-27.2744071" lon="151.2900675">
  <ele>353.93</ele>
  <time>2026-09-01T19:58:43Z</time>
  <course>10.41</course>
  <speed>1.457737973711325</speed>
  <fix>3d</fix>
</trkpt>
<trkpt lat="-27.2744061" lon="151.2900676">
  <ele>354.11</ele>
  <time>2026-09-01T19:58:43Z</time>
  <course>10.41</course>
  <speed>1.4776332427229701</speed>
  <fix>3d</fix>
</trkpt>
<trkpt lat="-27.2744097" lon="151.2900672">
  <ele>353.33</ele>
  <time>2026-09-01T19:58:43Z</time>
  <course>5.84</course>
  <speed>1.43</speed>
  <fix>3d</fix>
</trkpt>
<trkpt lat="-27.2744057" lon="151.2900676">
  <ele>354.17</ele>
  <time>2026-09-01T19:58:43Z</time>
  <course>10.41</course>
  <speed>1.48758193051677</speed>
  <fix>3d</fix>
</trkpt>
<trkpt lat="-27.2744047" lon="151.2900677">
  <ele>354.36</ele>
  <time>2026-09-01T19:58:43Z</time>
  <course>10.41</course>
  <speed>1.4975313018431367</speed>
  <fix>3d</fix>
</trkpt>
<trkpt lat="-27.2744071" lon="151.2900675">
  <ele>353.82</ele>
  <time>2026-09-01T19:58:43Z</time>
  <course>5.87</course>
  <speed>1.47</speed>
  <fix>3d</fix>
</trkpt>
<trkpt lat="-27.2744044" lon="151.2900678">
  <ele>354.42</ele>
  <time>2026-09-01T19:58:43Z</time>
  <course>10.41</course>
  <speed>1.5074813431681335</speed>
  <fix>3d</fix>
</trkpt>
<trkpt lat="-27.2744034" lon="151.2900679">
  <ele>354.6</ele>
  <time>2026-09-01T19:58:43Z</time>
  <course>10.41</course>
  <speed>1.5273833834371775</speed>
  <fix>3d</fix>
</trkpt>
<trkpt lat="-27.2744071" lon="151.2900675">
  <ele>353.82</ele>
  <time>2026-09-01T19:58:43Z</time>
  <course>5.87</course>
  <speed>1.47</speed>
  <fix>3d</fix>
</trkpt>
<trkpt lat="-27.274403" lon="151.2900679">
  <ele>354.66</ele>
  <time>2026-09-01T19:58:43Z</time>
  <course>10.41</course>
  <speed>1.528397853963424</speed>
  <fix>3d</fix>
</trkpt>
<trkpt lat="-27.274402" lon="151.2900681">
  <ele>354.85</ele>
  <time>2026-09-01T19:58:43Z</time>
  <course>10.41</course>
  <speed>1.5482893786369525</speed>
  <fix>3d</fix>
</trkpt>
<trkpt lat="-27.2744044" lon="151.2900678">
  <ele>354.31</ele>
  <time>2026-09-01T19:58:43Z</time>
  <course>5.91</course>
  <speed>1.52</speed>
  <fix>3d</fix>
</trkpt>
<trkpt lat="-27.2744019" lon="151.2900681">
  <ele>354.86</ele>
  <time>2026-09-01T19:58:43Z</time>
  <course>10.41</course>
  <speed>1.5482893786369525</speed>
  <fix>3d</fix>
</trkpt>
<trkpt lat="-27.2744006" lon="151.2900682">
  <ele>355.1</ele>
  <time>2026-09-01T19:58:43Z</time>
  <course>10.42</course>
  <speed>1.5681836627130128</speed>
  <fix>3d</fix>
</trkpt>
<trkpt lat="-27.2744044" lon="151.2900678">
  <ele>354.31</ele>
  <time>2026-09-01T19:58:43Z</time>
  <course>5.91</course>
  <speed>1.52</speed>
  <fix>3d</fix>
</trkpt>
<trkpt lat="-27.2744005" lon="151.2900682">
  <ele>355.11</ele>
  <time>2026-09-01T19:58:43Z</time>
  <course>10.42</course>
  <speed>1.5681836627130128</speed>
  <fix>3d</fix>
</trkpt>
<trkpt lat="-27.2743991" lon="151.2900684">
  <ele>355.35</ele>
  <time>2026-09-01T19:58:43Z</time>
  <course>10.42</course>
  <speed>1.5980300372646317</speed>
  <fix>3d</fix>
</trkpt>
<trkpt lat="-27.2744017" lon="151.2900681">
  <ele>354.81</ele>
  <time>2026-09-01T19:58:43Z</time>
  <course>5.94</course>
  <speed>1.56</speed>
  <fix>3d</fix>
</trkpt>
<trkpt lat="-27.2743987" lon="151.2900684">
  <ele>355.41</ele>
  <time>2026-09-01T19:58:43Z</time>
  <course>10.42</course>
  <speed>1.5980300372646317</speed>
  <fix>3d</fix>
</trkpt>
<trkpt lat="-27.2743977" lon="151.2900686">
  <ele>355.6</ele>
  <time>2026-09-01T19:58:43Z</time>
  <course>10.43</course>
  <speed>1.6189502771858064</speed>
  <fix>3d</fix>
</trkpt>
<trkpt lat="-27.2744017" lon="151.2900681">
  <ele>354.81</ele>
  <time>2026-09-01T19:58:43Z</time>
  <course>5.94</course>
  <speed>1.56</speed>
  <fix>3d</fix>
</trkpt>
<trkpt lat="-27.2743973" lon="151.2900686">
  <ele>355.66</ele>
  <time>2026-09-01T19:58:43Z</time>
  <course>10.43</course>
  <speed>1.6288953311984167</speed>
  <fix>3d</fix>
</trkpt>
<trkpt lat="-27.2743962" lon="151.2900687">
  <ele>355.85</ele>
  <time>2026-09-01T19:58:43Z</time>
  <course>10.44</course>
  <speed>1.6388410539158458</speed>
  <fix>3d</fix>
</trkpt>
<trkpt lat="-27.2743988" lon="151.2900685">
  <ele>355.31</ele>
  <time>2026-09-01T19:58:43Z</time>
  <course>5.96</course>
  <speed>1.61</speed>
  <fix>3d</fix>
</trkpt>
<trkpt lat="-27.2743958" lon="151.2900688">
  <ele>355.92</ele>
  <time>2026-09-01T19:58:43Z</time>
  <course>10.44</course>
  <speed>1.6487874332369228</speed>
  <fix>3d</fix>
</trkpt>
<trkpt lat="-27.2743947" lon="151.2900689">
  <ele>356.1</ele>
  <time>2026-09-01T19:58:43Z</time>
  <course>10.44</course>
  <speed>1.6686821147240718</speed>
  <fix>3d</fix>
</trkpt>
<trkpt lat="-27.2743988" lon="151.2900685">
  <ele>355.31</ele>
  <time>2026-09-01T19:58:43Z</time>
  <course>5.96</course>
  <speed>1.61</speed>
  <fix>3d</fix>
</trkpt>
<trkpt lat="-27.2743943" lon="151.290069">
  <ele>356.17</ele>
  <time>2026-09-01T19:58:43Z</time>
  <course>10.44</course>
  <speed>1.6686821147240718</speed>
  <fix>3d</fix>
</trkpt>
<trkpt lat="-27.2743932" lon="151.2900691">
  <ele>356.35</ele>
  <time>2026-09-01T19:58:43Z</time>
  <course>10.44</course>
  <speed>1.6885792844874061</speed>
  <fix>3d</fix>
</trkpt>
<trkpt lat="-27.2743959" lon="151.2900688">
  <ele>355.8</ele>
  <time>2026-09-01T19:58:43Z</time>
  <course>5.95</course>
  <speed>1.66</speed>
  <fix>3d</fix>
</trkpt>
<trkpt lat="-27.2743932" lon="151.2900691">
  <ele>356.36</ele>
  <time>2026-09-01T19:58:43Z</time>
  <course>10.44</course>
  <speed>1.6885792844874061</speed>
  <fix>3d</fix>
</trkpt>
<trkpt lat="-27.2743917" lon="151.2900693">
  <ele>356.6</ele>
  <time>2026-09-01T19:58:43Z</time>
  <course>10.43</course>
  <speed>1.7084788555905512</speed>
  <fix>3d</fix>
</trkpt>
<trkpt lat="-27.2743959" lon="151.2900688">
  <ele>355.8</ele>
  <time>2026-09-01T19:58:43Z</time>
  <course>5.95</course>
  <speed>1.66</speed>
  <fix>3d</fix>
</trkpt>
<trkpt lat="-27.2743913" lon="151.2900693">
  <ele>356.66</ele>
  <time>2026-09-01T19:58:43Z</time>
  <course>10.43</course>
  <speed>1.719447585708852</speed>
  <fix>3d</fix>
</trkpt>
<trkpt lat="-27.2743901" lon="151.2900695">
  <ele>356.85</ele>
  <time>2026-09-01T19:58:43Z</time>
  <course>10.42</course>
  <speed>1.7393389548906217</speed>
  <fix>3d</fix>
</trkpt>
<trkpt lat="-27.2743929" lon="151.2900692">
  <ele>356.3</ele>
  <time>2026-09-01T19:58:43Z</time>
  <course>5.92</course>
  <speed>1.71</speed>
  <fix>3d</fix>
</trkpt>
<trkpt lat="-27.2743897" lon="151.2900695">
  <ele>356.92</ele>
  <time>2026-09-01T19:58:43Z</time>
  <course>10.42</course>
  <speed>1.7393389548906217</speed>
  <fix>3d</fix>
</trkpt>
<trkpt lat="-27.2743885" lon="151.2900696">
  <ele>357.1</ele>
  <time>2026-09-01T19:58:43Z</time>
  <course>10.41</course>
  <speed>1.759232787325202</speed>
  <fix>3d</fix>
</trkpt>
<trkpt lat="-27.2743929" lon="151.2900692">
  <ele>356.3</ele>
  <time>2026-09-01T19:58:43Z</time>
  <course>5.92</course>
  <speed>1.71</speed>
  <fix>3d</fix>
</trkpt>
<trkpt lat="-27.2743882" lon="151.2900697">
  <ele>357.16</ele>
  <time>2026-09-01T19:58:43Z</time>
  <course>10.41</course>
  <speed>1.7691806012954132</speed>
  <fix>3d</fix>
</trkpt>
<trkpt lat="-27.2743869" lon="151.2900698">
  <ele>357.35</ele>
  <time>2026-09-01T19:58:43Z</time>
  <course>10.41</course>
  <speed>1.7791290003819284</speed>
  <fix>3d</fix>
</trkpt>
<trkpt lat="-27.2743898" lon="151.2900695">
  <ele>356.8</ele>
  <time>2026-09-01T19:58:43Z</time>
  <course>5.9</course>
  <speed>1.75</speed>
  <fix>3d</fix>
</trkpt>
<trkpt lat="-27.2743864" lon="151.2900699">
  <ele>357.43</ele>
  <time>2026-09-01T19:58:43Z</time>
  <course>10.41</course>
  <speed>1.7890779748239034</speed>
  <fix>3d</fix>
</trkpt>
<trkpt lat="-27.2743853" lon="151.29007">
  <ele>357.6</ele>
  <time>2026-09-01T19:58:43Z</time>
  <course>10.4</course>
  <speed>1.81</speed>
  <fix>3d</fix>
</trkpt>
<trkpt lat="-27.2743898" lon="151.2900695">
  <ele>356.8</ele>
  <time>2026-09-01T19:58:43Z</time>
  <course>5.9</course>
  <speed>1.75</speed>
  <fix>3d</fix>
</trkpt>
<trkpt lat="-27.2743853" lon="151.29007">
  <ele>357.6</ele>
  <time>2026-09-01T19:58:43Z</time>
  <course>10.4</course>
  <speed>1.81</speed>
  <fix>3d</fix>
</trkpt>
<trkpt lat="-27.2743837" lon="151.2900702">
  <ele>357.85</ele>
  <time>2026-09-01T19:58:43Z</time>
  <course>10.4</course>
  <speed>1.8298907071188706</speed>
  <fix>3d</fix>
</trkpt>
<trkpt lat="-27.2743866" lon="151.2900699">
  <ele>357.3</ele>
  <time>2026-09-01T19:58:43Z</time>
  <course>5.89</course>
  <speed>1.8</speed>
  <fix>3d</fix>
</trkpt>
<trkpt lat="-27.2743836" lon="151.2900702">
  <ele>357.85</ele>
  <time>2026-09-01T19:58:43Z</time>
  <course>10.4</course>
  <speed>1.8298907071188706</speed>
  <fix>3d</fix>
</trkpt>
<trkpt lat="-27.274382" lon="151.2900704">
  <ele>358.1</ele>
  <time>2026-09-01T19:58:43Z</time>
  <course>10.39</course>
  <speed>1.8497837711473197</speed>
  <fix>3d</fix>
</trkpt>
<trkpt lat="-27.2743866" lon="151.2900699">
  <ele>357.3</ele>
  <time>2026-09-01T19:58:43Z</time>
  <course>5.89</course>
  <speed>1.8</speed>
  <fix>3d</fix>
</trkpt>
<trkpt lat="-27.2743817" lon="151.2900704">
  <ele>358.15</ele>
  <time>2026-09-01T19:58:43Z</time>
  <course>10.39</course>
  <speed>1.859731163367437</speed>
  <fix>3d</fix>
</trkpt>
<trkpt lat="-27.2743803" lon="151.2900706">
  <ele>358.35</ele>
  <time>2026-09-01T19:58:43Z</time>
  <course>10.39</course>
  <speed>1.8796276226955169</speed>
  <fix>3d</fix>
</trkpt>
<trkpt lat="-27.2743833" lon="151.2900702">
  <ele>357.8</ele>
  <time>2026-09-01T19:58:43Z</time>
  <course>5.88</course>
  <speed>1.85</speed>
  <fix>3d</fix>
</trkpt>
<trkpt lat="-27.2743798" lon="151.2900707">
  <ele>358.42</ele>
  <time>2026-09-01T19:58:43Z</time>
  <course>10.39</course>
  <speed>1.8895766721676048</speed>
  <fix>3d</fix>
</trkpt>
<trkpt lat="-27.2743786" lon="151.2900708">
  <ele>358.6</ele>
  <time>2026-09-01T19:58:43Z</time>
  <course>10.39</course>
  <speed>1.9005525512334562</speed>
  <fix>3d</fix>
</trkpt>
<trkpt lat="-27.2743833" lon="151.2900702">
  <ele>357.8</ele>
  <time>2026-09-01T19:58:43Z</time>
  <course>5.88</course>
  <speed>1.85</speed>
  <fix>3d</fix>
</trkpt>
<trkpt lat="-27.2743782" lon="151.2900708">
  <ele>358.66</ele>
  <time>2026-09-01T19:58:43Z</time>
  <course>10.39</course>
  <speed>1.91049731745428</speed>
  <fix>3d</fix>
</trkpt>
<trkpt lat="-27.2743769" lon="151.290071">
  <ele>358.85</ele>
  <time>2026-09-01T19:58:43Z</time>
  <course>10.39</course>
  <speed>1.9303885619221848</speed>
  <fix>3d</fix>
</trkpt>
<trkpt lat="-27.27438" lon="151.2900707">
  <ele>358.3</ele>
  <time>2026-09-01T19:58:43Z</time>
  <course>5.86</course>
  <speed>1.9</speed>
  <fix>3d</fix>
</trkpt>
<trkpt lat="-27.2743764" lon="151.2900711">
  <ele>358.91</ele>
  <time>2026-09-01T19:58:43Z</time>
  <course>10.39</course>
  <speed>1.9403350226185168</speed>
  <fix>3d</fix>
</trkpt>
<trkpt lat="-27.2743752" lon="151.2900712">
  <ele>359.1</ele>
  <time>2026-09-01T19:58:43Z</time>
  <course>10.4</course>
  <speed>1.9502820308868152</speed>
  <fix>3d</fix>
</trkpt>
<trkpt lat="-27.27438" lon="151.2900707">
  <ele>358.3</ele>
  <time>2026-09-01T19:58:43Z</time>
  <course>5.86</course>
  <speed>1.9</speed>
  <fix>3d</fix>
</trkpt>
<trkpt lat="-27.2743747" lon="151.2900713">
  <ele>359.16</ele>
  <time>2026-09-01T19:58:43Z</time>
  <course>10.4</course>
  <speed>1.9602295783912658</speed>
  <fix>3d</fix>
</trkpt>
<trkpt lat="-27.2743734" lon="151.2900714">
  <ele>359.35</ele>
  <time>2026-09-01T19:58:43Z</time>
  <course>10.4</course>
  <speed>1.9801262586006985</speed>
  <fix>3d</fix>
</trkpt>
<trkpt lat="-27.2743765" lon="151.290071">
  <ele>358.8</ele>
  <time>2026-09-01T19:58:43Z</time>
  <course>5.85</course>
  <speed>1.95</speed>
  <fix>3d</fix>
</trkpt>
<trkpt lat="-27.2743729" lon="151.2900715">
  <ele>359.41</ele>
  <time>2026-09-01T19:58:43Z</time>
  <course>10.4</course>
  <speed>1.991105220725414</speed>
  <fix>3d</fix>
</trkpt>
<trkpt lat="-27.2743716" lon="151.2900716">
  <ele>359.6</ele>
  <time>2026-09-01T19:58:43Z</time>
  <course>10.4</course>
  <speed>2.0010497245196084</speed>
  <fix>3d</fix>
</trkpt>
<trkpt lat="-27.2743765" lon="151.290071">
  <ele>358.8</ele>
  <time>2026-09-01T19:58:43Z</time>
  <course>5.85</course>
  <speed>1.95</speed>
  <fix>3d</fix>
</trkpt>
<trkpt lat="-27.2743711" lon="151.2900717">
  <ele>359.66</ele>
  <time>2026-09-01T19:58:43Z</time>
  <course>10.4</course>
  <speed>2.010994778710278</speed>
  <fix>3d</fix>
</trkpt>
<trkpt lat="-27.2743698" lon="151.2900718">
  <ele>359.85</ele>
  <time>2026-09-01T19:58:43Z</time>
  <course>10.4</course>
  <speed>2.0308865059377395</speed>
  <fix>3d</fix>
</trkpt>
<trkpt lat="-27.274373" lon="151.2900715">
  <ele>359.3</ele>
  <time>2026-09-01T19:58:43Z</time>
  <course>5.84</course>
  <speed>2.0</speed>
  <fix>3d</fix>
</trkpt>
<trkpt lat="-27.2743693" lon="151.2900719">
  <ele>359.91</ele>
  <time>2026-09-01T19:58:43Z</time>
  <course>10.4</course>
  <speed>2.0308865059377395</speed>
  <fix>3d</fix>
</trkpt>
<trkpt lat="-27.2743679" lon="151.290072">
  <ele>360.1</ele>
  <time>2026-09-01T19:58:43Z</time>
  <course>10.4</course>
  <speed>2.050780339285512</speed>
  <fix>3d</fix>
</trkpt>
<trkpt lat="-27.274373" lon="151.2900715">
  <ele>359.3</ele>
  <time>2026-09-01T19:58:43Z</time>
  <course>5.84</course>
  <speed>2.0</speed>
  <fix>3d</fix>
</trkpt>
<trkpt lat="-27.2743674" lon="151.2900721">
  <ele>360.16</ele>
  <time>2026-09-01T19:58:43Z</time>
  <course>10.4</course>
  <speed>2.0617710833164775</speed>
  <fix>3d</fix>
</trkpt>
<trkpt lat="-27.2743661" lon="151.2900723">
  <ele>360.34</ele>
  <time>2026-09-01T19:58:43Z</time>
  <course>10.4</course>
  <speed>2.0816579930430454</speed>
  <fix>3d</fix>
</trkpt>
<trkpt lat="-27.2743693" lon="151.2900718">
  <ele>359.79</ele>
  <time>2026-09-01T19:58:43Z</time>
  <course>5.84</course>
  <speed>2.05</speed>
  <fix>3d</fix>
</trkpt>
<trkpt lat="-27.274366" lon="151.2900723">
  <ele>360.35</ele>
  <time>2026-09-01T19:58:43Z</time>
  <course>10.4</course>
  <speed>2.0816579930430454</speed>
  <fix>3d</fix>
</trkpt>
<trkpt lat="-27.2743642" lon="151.2900725">
  <ele>360.59</ele>
  <time>2026-09-01T19:58:43Z</time>
  <course>10.4</course>
  <speed>2.111492363235065</speed>
  <fix>3d</fix>
</trkpt>
<trkpt lat="-27.2743693" lon="151.2900718">
  <ele>359.79</ele>
  <time>2026-09-01T19:58:43Z</time>
  <course>5.84</course>
  <speed>2.05</speed>
  <fix>3d</fix>
</trkpt>
<trkpt lat="-27.2743641" lon="151.2900725">
  <ele>360.6</ele>
  <time>2026-09-01T19:58:43Z</time>
  <course>10.4</course>
  <speed>2.111492363235065</speed>
  <fix>3d</fix>
</trkpt>
<trkpt lat="-27.2743623" lon="151.2900727">
  <ele>360.84</ele>
  <time>2026-09-01T19:58:43Z</time>
  <course>10.4</course>
  <speed>2.1313845265460665</speed>
  <fix>3d</fix>
</trkpt>
<trkpt lat="-27.2743656" lon="151.2900723">
  <ele>360.29</ele>
  <time>2026-09-01T19:58:43Z</time>
  <course>5.84</course>
  <speed>2.1</speed>
  <fix>3d</fix>
</trkpt>
<trkpt lat="-27.2743617" lon="151.2900728">
  <ele>360.91</ele>
  <time>2026-09-01T19:58:43Z</time>
  <course>10.4</course>
  <speed>2.1413313615599057</speed>
  <fix>3d</fix>
</trkpt>
<trkpt lat="-27.2743603" lon="151.2900729">
  <ele>361.09</ele>
  <time>2026-09-01T19:58:43Z</time>
  <course>10.4</course>
  <speed>2.1622673285234644</speed>
  <fix>3d</fix>
</trkpt>
<trkpt lat="-27.2743656" lon="151.2900723">
  <ele>360.29</ele>
  <time>2026-09-01T19:58:43Z</time>
  <course>5.84</course>
  <speed>2.1</speed>
  <fix>3d</fix>
</trkpt>
<trkpt lat="-27.2743598" lon="151.290073">
  <ele>361.15</ele>
  <time>2026-09-01T19:58:43Z</time>
  <course>10.39</course>
  <speed>2.1622673285234644</speed>
  <fix>3d</fix>
</trkpt>
<trkpt lat="-27.2743584" lon="151.2900732">
  <ele>361.34</ele>
  <time>2026-09-01T19:58:43Z</time>
  <course>10.39</course>
  <speed>2.1821548982599746</speed>
  <fix>3d</fix>
</trkpt>
<trkpt lat="-27.2743618" lon="151.2900728">
  <ele>360.79</ele>
  <time>2026-09-01T19:58:43Z</time>
  <course>5.84</course>
  <speed>2.16</speed>
  <fix>3d</fix>
</trkpt>
<trkpt lat="-27.2743578" lon="151.2900732">
  <ele>361.41</ele>
  <time>2026-09-01T19:58:43Z</time>
  <course>10.39</course>
  <speed>2.1920994502987314</speed>
  <fix>3d</fix>
</trkpt>
<trkpt lat="-27.2743564" lon="151.2900734">
  <ele>361.59</ele>
  <time>2026-09-01T19:58:43Z</time>
  <course>10.39</course>
  <speed>2.211990054227188</speed>
  <fix>3d</fix>
</trkpt>
<trkpt lat="-27.2743618" lon="151.2900728">
  <ele>360.79</ele>
  <time>2026-09-01T19:58:43Z</time>
  <course>5.84</course>
  <speed>2.16</speed>
  <fix>3d</fix>
</trkpt>
<trkpt lat="-27.2743558" lon="151.2900735">
  <ele>361.65</ele>
  <time>2026-09-01T19:58:43Z</time>
  <course>10.39</course>
  <speed>2.2219360926903367</speed>
  <fix>3d</fix>
</trkpt>
<trkpt lat="-27.2743543" lon="151.2900736">
  <ele>361.83</ele>
  <time>2026-09-01T19:58:43Z</time>
  <course>10.39</course>
  <speed>2.2428776159211186</speed>
  <fix>3d</fix>
</trkpt>
<trkpt lat="-27.2743579" lon="151.2900732">
  <ele>361.28</ele>
  <time>2026-09-01T19:58:43Z</time>
  <course>5.84</course>
  <speed>2.21</speed>
  <fix>3d</fix>
</trkpt>
<trkpt lat="-27.2743538" lon="151.2900737">
  <ele>361.9</ele>
  <time>2026-09-01T19:58:43Z</time>
  <course>10.39</course>
  <speed>2.252820454452596</speed>
  <fix>3d</fix>
</trkpt>
<trkpt lat="-27.2743523" lon="151.2900739">
  <ele>362.08</ele>
  <time>2026-09-01T19:58:43Z</time>
  <course>10.39</course>
  <speed>2.2727076362788066</speed>
  <fix>3d</fix>
</trkpt>
<trkpt lat="-27.2743579" lon="151.2900732">
  <ele>361.28</ele>
  <time>2026-09-01T19:58:43Z</time>
  <course>5.84</course>
  <speed>2.21</speed>
  <fix>3d</fix>
</trkpt>
<trkpt lat="-27.2743518" lon="151.2900739">
  <ele>362.15</ele>
  <time>2026-09-01T19:58:43Z</time>
  <course>10.39</course>
  <speed>2.2727076362788066</speed>
  <fix>3d</fix>
</trkpt>
<trkpt lat="-27.2743503" lon="151.2900741">
  <ele>362.33</ele>
  <time>2026-09-01T19:58:43Z</time>
  <course>10.39</course>
  <speed>2.2925967809451357</speed>
  <fix>3d</fix>
</trkpt>
<trkpt lat="-27.2743539" lon="151.2900737">
  <ele>361.78</ele>
  <time>2026-09-01T19:58:43Z</time>
  <course>5.83</course>
  <speed>2.26</speed>
  <fix>3d</fix>
</trkpt>
<trkpt lat="-27.2743497" lon="151.2900742">
  <ele>362.39</ele>
  <time>2026-09-01T19:58:43Z</time>
  <course>10.39</course>
  <speed>2.3036058690670154</speed>
  <fix>3d</fix>
</trkpt>
<trkpt lat="-27.2743482" lon="151.2900744">
  <ele>362.58</ele>
  <time>2026-09-01T19:58:43Z</time>
  <course>10.39</course>
  <speed>2.323488756159582</speed>
  <fix>3d</fix>
</trkpt>
<trkpt lat="-27.2743539" lon="151.2900737">
  <ele>361.78</ele>
  <time>2026-09-01T19:58:43Z</time>
  <course>5.83</course>
  <speed>2.26</speed>
  <fix>3d</fix>
</trkpt>
<trkpt lat="-27.2743476" lon="151.2900744">
  <ele>362.64</ele>
  <time>2026-09-01T19:58:43Z</time>
  <course>10.39</course>
  <speed>2.333430950339007</speed>
  <fix>3d</fix>
</trkpt>
<trkpt lat="-27.2743461" lon="151.2900746">
  <ele>362.83</ele>
  <time>2026-09-01T19:58:43Z</time>
  <course>10.39</course>
  <speed>2.353316808251707</speed>
  <fix>3d</fix>
</trkpt>
<trkpt lat="-27.2743498" lon="151.2900741">
  <ele>362.28</ele>
  <time>2026-09-01T19:58:43Z</time>
  <course>5.83</course>
  <speed>2.32</speed>
  <fix>3d</fix>
</trkpt>
<trkpt lat="-27.2743455" lon="151.2900747">
  <ele>362.89</ele>
  <time>2026-09-01T19:58:43Z</time>
  <course>10.39</course>
  <speed>2.363260459619295</speed>
  <fix>3d</fix>
</trkpt>
<trkpt lat="-27.2743439" lon="151.2900749">
  <ele>363.08</ele>
  <time>2026-09-01T19:58:43Z</time>
  <course>10.39</course>
  <speed>2.3842189496772312</speed>
  <fix>3d</fix>
</trkpt>
<trkpt lat="-27.2743498" lon="151.2900741">
  <ele>362.28</ele>
  <time>2026-09-01T19:58:43Z</time>
  <course>5.83</course>
  <speed>2.32</speed>
  <fix>3d</fix>
</trkpt>
<trkpt lat="-27.2743439" lon="151.2900749">
  <ele>363.08</ele>
  <time>2026-09-01T19:58:43Z</time>
  <course>10.39</course>
  <speed>2.3842189496772312</speed>
  <fix>3d</fix>
</trkpt>
<trkpt lat="-27.2743418" lon="151.2900751">
  <ele>363.33</ele>
  <time>2026-09-01T19:58:43Z</time>
  <course>10.38</course>
  <speed>2.41404225315134</speed>
  <fix>3d</fix>
</trkpt>
<trkpt lat="-27.2743456" lon="151.2900746">
  <ele>362.78</ele>
  <time>2026-09-01T19:58:43Z</time>
  <course>5.84</course>
  <speed>2.38</speed>
  <fix>3d</fix>
</trkpt>
<trkpt lat="-27.2743396" lon="151.2900754">
  <ele>363.58</ele>
  <time>2026-09-01T19:58:43Z</time>
  <course>10.37</course>
  <speed>2.4449539872971027</speed>
  <fix>3d</fix>
</trkpt>
<trkpt lat="-27.2743456" lon="151.2900746">
  <ele>362.78</ele>
  <time>2026-09-01T19:58:43Z</time>
  <course>5.84</course>
  <speed>2.38</speed>
  <fix>3d</fix>
</trkpt>
<trkpt lat="-27.2743373" lon="151.2900756">
  <ele>363.83</ele>
  <time>2026-09-01T19:58:43Z</time>
  <course>10.34</course>
  <speed>2.5255692427648864</speed>
  <fix>3d</fix>
</trkpt>
<trkpt lat="-27.2743413" lon="151.2900751">
  <ele>363.28</ele>
  <time>2026-09-01T19:58:43Z</time>
  <course>5.86</course>
  <speed>2.44</speed>
  <fix>3d</fix>
</trkpt>
<trkpt lat="-27.274335" lon="151.2900759">
  <ele>364.08</ele>
  <time>2026-09-01T19:58:43Z</time>
  <course>10.31</course>
  <speed>2.666927070618917</speed>
  <fix>3d</fix>
</trkpt>
<trkpt lat="-27.2743413" lon="151.2900751">
  <ele>363.28</ele>
  <time>2026-09-01T19:58:43Z</time>
  <course>5.86</course>
  <speed>2.44</speed>
  <fix>3d</fix>
</trkpt>
<trkpt lat="-27.2743325" lon="151.2900762">
  <ele>364.32</ele>
  <time>2026-09-01T19:58:43Z</time>
  <course>10.25</course>
  <speed>2.8702090516197596</speed>
  <fix>3d</fix>
</trkpt>
<trkpt lat="-27.2743368" lon="151.2900756">
  <ele>363.78</ele>
  <time>2026-09-01T19:58:43Z</time>
  <course>5.95</course>
  <speed>2.58</speed>
  <fix>3d</fix>
</trkpt>
<trkpt lat="-27.2743298" lon="151.2900766">
  <ele>364.55</ele>
  <time>2026-09-01T19:58:43Z</time>
  <course>10.19</course>
  <speed>3.1442805218364343</speed>
  <fix>3d</fix>
</trkpt>
<trkpt lat="-27.2743368" lon="151.2900756">
  <ele>363.78</ele>
  <time>2026-09-01T19:58:43Z</time>
  <course>5.95</course>
  <speed>2.58</speed>
  <fix>3d</fix>
</trkpt>
<trkpt lat="-27.2743268" lon="151.290077">
  <ele>364.76</ele>
  <time>2026-09-01T19:58:43Z</time>
  <course>10.13</course>
  <speed>3.4680253747629934</speed>
  <fix>3d</fix>
</trkpt>
<trkpt lat="-27.2743319" lon="151.2900762">
  <ele>364.26</ele>
  <time>2026-09-01T19:58:43Z</time>
  <course>6.2</course>
  <speed>2.92</speed>
  <fix>3d</fix>
</trkpt>
<trkpt lat="-27.2743236" lon="151.2900775">
  <ele>364.94</ele>
  <time>2026-09-01T19:58:43Z</time>
  <course>10.09</course>
  <speed>3.873719143149126</speed>
  <fix>3d</fix>
</trkpt>
<trkpt lat="-27.2743319" lon="151.2900762">
  <ele>364.26</ele>
  <time>2026-09-01T19:58:43Z</time>
  <course>6.2</course>
  <speed>2.92</speed>
  <fix>3d</fix>
</trkpt>
<trkpt lat="-27.2743199" lon="151.290078">
  <ele>365.11</ele>
  <time>2026-09-01T19:58:43Z</time>
  <course>9.85</course>
  <speed>4.330381045589406</speed>
  <fix>3d</fix>
</trkpt>
<trkpt lat="-27.2743262" lon="151.290077">
  <ele>364.7</ele>
  <time>2026-09-01T19:58:43Z</time>
  <course>6.53</course>
  <speed>3.52</speed>
  <fix>3d</fix>
</trkpt>
<trkpt lat="-27.2743158" lon="151.2900786">
  <ele>365.24</ele>
  <time>2026-09-01T19:58:43Z</time>
  <course>9.61</course>
  <speed>4.846534844608053</speed>
  <fix>3d</fix>
</trkpt>
<trkpt lat="-27.2743262" lon="151.290077">
  <ele>364.7</ele>
  <time>2026-09-01T19:58:43Z</time>
  <course>6.53</course>
  <speed>3.52</speed>
  <fix>3d</fix>
</trkpt>
<trkpt lat="-27.2743112" lon="151.2900793">
  <ele>365.34</ele>
  <time>2026-09-01T19:58:43Z</time>
  <course>9.26</course>
  <speed>5.372606443803603</speed>
  <fix>3d</fix>
</trkpt>
<trkpt lat="-27.2743192" lon="151.2900779">
  <ele>365.05</ele>
  <time>2026-09-01T19:58:43Z</time>
  <course>6.79</course>
  <speed>4.36</speed>
  <fix>3d</fix>
</trkpt>
<trkpt lat="-27.2743062" lon="151.2900801">
  <ele>365.41</ele>
  <time>2026-09-01T19:58:43Z</time>
  <course>8.97</course>
  <speed>5.907190533578547</speed>
  <fix>3d</fix>
</trkpt>
<trkpt lat="-27.2743192" lon="151.2900779">
  <ele>365.05</ele>
  <time>2026-09-01T19:58:43Z</time>
  <course>6.79</course>
  <speed>4.36</speed>
  <fix>3d</fix>
</trkpt>
<trkpt lat="-27.2743007" lon="151.2900808">
  <ele>365.47</ele>
  <time>2026-09-01T19:58:43Z</time>
  <course>8.67</course>
  <speed>6.441777704950707</speed>
  <fix>3d</fix>
</trkpt>
<trkpt lat="-27.2743105" lon="151.290079">
  <ele>365.28</ele>
  <time>2026-09-01T19:58:43Z</time>
  <course>6.92</course>
  <speed>5.37</speed>
  <fix>3d</fix>
</trkpt>
<trkpt lat="-27.2742947" lon="151.2900817">
  <ele>365.5</ele>
  <time>2026-09-01T19:58:43Z</time>
  <course>8.51</course>
  <speed>6.984905153257272</speed>
  <fix>3d</fix>
</trkpt>
<trkpt lat="-27.2743105" lon="151.290079">
  <ele>365.28</ele>
  <time>2026-09-01T19:58:43Z</time>
  <course>6.92</course>
  <speed>5.37</speed>
  <fix>3d</fix>
</trkpt>
<trkpt lat="-27.2742883" lon="151.2900826">
  <ele>365.53</ele>
  <time>2026-09-01T19:58:43Z</time>
  <course>8.31</course>
  <speed>7.518151368521387</speed>
  <fix>3d</fix>
</trkpt>
<trkpt lat="-27.2742999" lon="151.2900804">
  <ele>365.41</ele>
  <time>2026-09-01T19:58:43Z</time>
  <course>7.03</course>
  <speed>6.44</speed>
  <fix>3d</fix>
</trkpt>
<trkpt lat="-27.2742814" lon="151.2900835">
  <ele>365.54</ele>
  <time>2026-09-01T19:58:43Z</time>
  <course>8.01</course>
  <speed>8.061327434114062</speed>
  <fix>3d</fix>
</trkpt>
<trkpt lat="-27.2742999" lon="151.2900804">
  <ele>365.41</ele>
  <time>2026-09-01T19:58:43Z</time>
  <course>7.03</course>
  <speed>6.44</speed>
  <fix>3d</fix>
</trkpt>
<trkpt lat="-27.274274" lon="151.2900845">
  <ele>365.54</ele>
  <time>2026-09-01T19:58:43Z</time>
  <course>7.67</course>
  <speed>8.614435558990502</speed>
  <fix>3d</fix>
</trkpt>
<trkpt lat="-27.2742875" lon="151.2900822">
  <ele>365.47</ele>
  <time>2026-09-01T19:58:43Z</time>
  <course>7.14</course>
  <speed>7.52</speed>
  <fix>3d</fix>
</trkpt>
<trkpt lat="-27.2742661" lon="151.2900856">
  <ele>365.53</ele>
  <time>2026-09-01T19:58:43Z</time>
  <course>7.53</course>
  <speed>9.16756238048043</speed>
  <fix>3d</fix>
</trkpt>
<trkpt lat="-27.2742875" lon="151.2900822">
  <ele>365.47</ele>
  <time>2026-09-01T19:58:43Z</time>
  <course>7.14</course>
  <speed>7.52</speed>
  <fix>3d</fix>
</trkpt>
<trkpt lat="-27.2742576" lon="151.2900868">
  <ele>365.52</ele>
  <time>2026-09-01T19:58:43Z</time>
  <course>7.47</course>
  <speed>9.720704706964408</speed>
  <fix>3d</fix>
</trkpt>
<trkpt lat="-27.2742731" lon="151.2900843">
  <ele>365.48</ele>
  <time>2026-09-01T19:58:43Z</time>
  <course>7.2</course>
  <speed>8.62</speed>
  <fix>3d</fix>
</trkpt>
<trkpt lat="-27.2742487" lon="151.290088">
  <ele>365.5</ele>
  <time>2026-09-01T19:58:43Z</time>
  <course>7.5</course>
  <speed>10.275139901723968</speed>
  <fix>3d</fix>
</trkpt>
<trkpt lat="-27.2742731" lon="151.2900843">
  <ele>365.48</ele>
  <time>2026-09-01T19:58:43Z</time>
  <course>7.2</course>
  <speed>8.62</speed>
  <fix>3d</fix>
</trkpt>
<trkpt lat="-27.2742393" lon="151.2900893">
  <ele>365.48</ele>
  <time>2026-09-01T19:58:43Z</time>
  <course>7.52</course>
  <speed>10.828296264879345</speed>
  <fix>3d</fix>
</trkpt>
<trkpt lat="-27.2742567" lon="151.2900866">
  <ele>365.46</ele>
  <time>2026-09-01T19:58:43Z</time>
  <course>7.24</course>
  <speed>9.73</speed>
  <fix>3d</fix>
</trkpt>
<trkpt lat="-27.2742294" lon="151.2900906">
  <ele>365.46</ele>
  <time>2026-09-01T19:58:43Z</time>
  <course>7.49</course>
  <speed>11.371543430862848</speed>
  <fix>3d</fix>
</trkpt>
<trkpt lat="-27.2742567" lon="151.2900866">
  <ele>365.46</ele>
  <time>2026-09-01T19:58:43Z</time>
  <course>7.24</course>
  <speed>9.73</speed>
  <fix>3d</fix>
</trkpt>
<trkpt lat="-27.2742191" lon="151.2900921">
  <ele>365.43</ele>
  <time>2026-09-01T19:58:43Z</time>
  <course>7.48</course>
  <speed>11.904877151823113</speed>
  <fix>3d</fix>
</trkpt>
<trkpt lat="-27.2742384" lon="151.2900892">
  <ele>365.42</ele>
  <time>2026-09-01T19:58:43Z</time>
  <course>7.25</course>
  <speed>10.84</speed>
  <fix>3d</fix>
</trkpt>
<trkpt lat="-27.2742083" lon="151.2900936">
  <ele>365.41</ele>
  <time>2026-09-01T19:58:43Z</time>
  <course>7.43</course>
  <speed>12.439473461525614</speed>
  <fix>3d</fix>
</trkpt>
<trkpt lat="-27.2742384" lon="151.2900892">
  <ele>365.42</ele>
  <time>2026-09-01T19:58:43Z</time>
  <course>7.25</course>
  <speed>10.84</speed>
  <fix>3d</fix>
</trkpt>
<trkpt lat="-27.274197" lon="151.2900952">
  <ele>365.38</ele>
  <time>2026-09-01T19:58:43Z</time>
  <course>7.41</course>
  <speed>12.964150569937082</speed>
  <fix>3d</fix>
</trkpt>
<trkpt lat="-27.274218" lon="151.2900922">
  <ele>365.37</ele>
  <time>2026-09-01T19:58:43Z</time>
  <course>7.25</course>
  <speed>11.93</speed>
  <fix>3d</fix>
</trkpt>
<trkpt lat="-27.2741853" lon="151.2900968">
  <ele>365.35</ele>
  <time>2026-09-01T19:58:43Z</time>
  <course>7.35</course>
  <speed>13.487564643033227</speed>
  <fix>3d</fix>
</trkpt>
<trkpt lat="-27.274218" lon="151.2900922">
  <ele>365.37</ele>
  <time>2026-09-01T19:58:43Z</time>
  <course>7.25</course>
  <speed>11.93</speed>
  <fix>3d</fix>
</trkpt>
<trkpt lat="-27.2741731" lon="151.2900986">
  <ele>365.33</ele>
  <time>2026-09-01T19:58:43Z</time>
  <course>7.31</course>
  <speed>13.991140053619647</speed>
  <fix>3d</fix>
</trkpt>
<trkpt lat="-27.2741958" lon="151.2900953">
  <ele>365.33</ele>
  <time>2026-09-01T19:58:43Z</time>
  <course>7.26</course>
  <speed>13.0</speed>
  <fix>3d</fix>
</trkpt>
<trkpt lat="-27.2741604" lon="151.2901004">
  <ele>365.3</ele>
  <time>2026-09-01T19:58:43Z</time>
  <course>7.28</course>
  <speed>14.484795476636872</speed>
  <fix>3d</fix>
</trkpt>
<trkpt lat="-27.2741958" lon="151.2900953">
  <ele>365.33</ele>
  <time>2026-09-01T19:58:43Z</time>
  <course>7.26</course>
  <speed>13.0</speed>
  <fix>3d</fix>
</trkpt>
<trkpt lat="-27.2741473" lon="151.2901022">
  <ele>365.28</ele>
  <time>2026-09-01T19:58:43Z</time>
  <course>7.26</course>
  <speed>14.948688905720125</speed>
  <fix>3d</fix>
</trkpt>
<trkpt lat="-27.2741716" lon="151.2900988">
  <ele>365.28</ele>
  <time>2026-09-01T19:58:43Z</time>
  <course>7.25</course>
  <speed>14.04</speed>
  <fix>3d</fix>
</trkpt>
<trkpt lat="-27.2741338" lon="151.2901042">
  <ele>365.26</ele>
  <time>2026-09-01T19:58:43Z</time>
  <course>7.23</course>
  <speed>15.37164272288424</speed>
  <fix>3d</fix>
</trkpt>
<trkpt lat="-27.2741716" lon="151.2900988">
  <ele>365.28</ele>
  <time>2026-09-01T19:58:43Z</time>
  <course>7.25</course>
  <speed>14.04</speed>
  <fix>3d</fix>
</trkpt>
<trkpt lat="-27.27412" lon="151.2901061">
  <ele>365.23</ele>
  <time>2026-09-01T19:58:43Z</time>
  <course>7.19</course>
  <speed>15.754913519280262</speed>
  <fix>3d</fix>
</trkpt>
<trkpt lat="-27.2741458" lon="151.2901025">
  <ele>365.23</ele>
  <time>2026-09-01T19:58:43Z</time>
  <course>7.24</course>
  <speed>14.99</speed>
  <fix>3d</fix>
</trkpt>
<trkpt lat="-27.2741058" lon="151.2901081">
  <ele>365.21</ele>
  <time>2026-09-01T19:58:43Z</time>
  <course>7.12</course>
  <speed>16.117087205819793</speed>
  <fix>3d</fix>
</trkpt>
<trkpt lat="-27.2741458" lon="151.2901025">
  <ele>365.23</ele>
  <time>2026-09-01T19:58:43Z</time>
  <course>7.24</course>
  <speed>14.99</speed>
  <fix>3d</fix>
</trkpt>
<trkpt lat="-27.2740913" lon="151.2901102">
  <ele>365.19</ele>
  <time>2026-09-01T19:58:43Z</time>
  <course>7.12</course>
  <speed>16.469341213296907</speed>
  <fix>3d</fix>
</trkpt>
<trkpt lat="-27.2741184" lon="151.2901064">
  <ele>365.19</ele>
  <time>2026-09-01T19:58:43Z</time>
  <course>7.23</course>
  <speed>15.81</speed>
  <fix>3d</fix>
</trkpt>
<trkpt lat="-27.2740765" lon="151.2901123">
  <ele>365.17</ele>
  <time>2026-09-01T19:58:43Z</time>
  <course>7.14</course>
  <speed>16.811674515050544</speed>
  <fix>3d</fix>
</trkpt>
<trkpt lat="-27.2741184" lon="151.2901064">
  <ele>365.19</ele>
  <time>2026-09-01T19:58:43Z</time>
  <course>7.23</course>
  <speed>15.81</speed>
  <fix>3d</fix>
</trkpt>
<trkpt lat="-27.2740614" lon="151.2901145">
  <ele>365.15</ele>
  <time>2026-09-01T19:58:43Z</time>
  <course>7.14</course>
  <speed>17.144086444019116</speed>
  <fix>3d</fix>
</trkpt>
<trkpt lat="-27.2740895" lon="151.2901106">
  <ele>365.15</ele>
  <time>2026-09-01T19:58:43Z</time>
  <course>7.21</course>
  <speed>16.54</speed>
  <fix>3d</fix>
</trkpt>
<trkpt lat="-27.2740461" lon="151.2901166">
  <ele>365.13</ele>
  <time>2026-09-01T19:58:43Z</time>
  <course>7.15</course>
  <speed>17.466576653712085</speed>
  <fix>3d</fix>
</trkpt>
<trkpt lat="-27.2740895" lon="151.2901106">
  <ele>365.15</ele>
  <time>2026-09-01T19:58:43Z</time>
  <course>7.21</course>
  <speed>16.54</speed>
  <fix>3d</fix>
</trkpt>
<trkpt lat="-27.2740304" lon="151.2901189">
  <ele>365.11</ele>
  <time>2026-09-01T19:58:43Z</time>
  <course>7.12</course>
  <speed>17.779145086308283</speed>
  <fix>3d</fix>
</trkpt>
<trkpt lat="-27.2740594" lon="151.2901148">
  <ele>365.12</ele>
  <time>2026-09-01T19:58:43Z</time>
  <course>7.2</course>
  <speed>17.23</speed>
  <fix>3d</fix>
</trkpt>
<trkpt lat="-27.2740144" lon="151.2901211">
  <ele>365.09</ele>
  <time>2026-09-01T19:58:43Z</time>
  <course>7.09</course>
  <speed>18.0904671028694</speed>
  <fix>3d</fix>
</trkpt>
<trkpt lat="-27.2740594" lon="151.2901148">
  <ele>365.12</ele>
  <time>2026-09-01T19:58:43Z</time>
  <course>7.2</course>
  <speed>17.23</speed>
  <fix>3d</fix>
</trkpt>
<trkpt lat="-27.2739981" lon="151.2901234">
  <ele>365.07</ele>
  <time>2026-09-01T19:58:43Z</time>
  <course>7.03</course>
  <speed>18.393112841495864</speed>
  <fix>3d</fix>
</trkpt>
<trkpt lat="-27.2740281" lon="151.2901192">
  <ele>365.08</ele>
  <time>2026-09-01T19:58:43Z</time>
  <course>7.18</course>
  <speed>17.87</speed>
  <fix>3d</fix>
</trkpt>
<trkpt lat="-27.2739815" lon="151.2901258">
  <ele>365.05</ele>
  <time>2026-09-01T19:58:43Z</time>
  <course>6.98</course>
  <speed>18.684592583195386</speed>
  <fix>3d</fix>
</trkpt>
<trkpt lat="-27.2740281" lon="151.2901192">
  <ele>365.08</ele>
  <time>2026-09-01T19:58:43Z</time>
  <course>7.18</course>
  <speed>17.87</speed>
  <fix>3d</fix>
</trkpt>
<trkpt lat="-27.2739647" lon="151.2901282">
  <ele>365.03</ele>
  <time>2026-09-01T19:58:43Z</time>
  <course>6.93</course>
  <speed>18.956228527848044</speed>
  <fix>3d</fix>
</trkpt>
<trkpt lat="-27.2739957" lon="151.2901239">
  <ele>365.05</ele>
  <time>2026-09-01T19:58:43Z</time>
  <course>7.16</course>
  <speed>18.49</speed>
  <fix>3d</fix>
</trkpt>
<trkpt lat="-27.2739477" lon="151.2901306">
  <ele>365.01</ele>
  <time>2026-09-01T19:58:43Z</time>
  <course>6.93</course>
  <speed>19.22786519611577</speed>
  <fix>3d</fix>
</trkpt>
<trkpt lat="-27.2739957" lon="151.2901239">
  <ele>365.05</ele>
  <time>2026-09-01T19:58:43Z</time>
  <course>7.16</course>
  <speed>18.49</speed>
  <fix>3d</fix>
</trkpt>
<trkpt lat="-27.2739304" lon="151.290133">
  <ele>365.0</ele>
  <time>2026-09-01T19:58:43Z</time>
  <course>6.92</course>
  <speed>19.478421393942583</speed>
  <fix>3d</fix>
</trkpt>
<trkpt lat="-27.2739622" lon="151.2901286">
  <ele>365.01</ele>
  <time>2026-09-01T19:58:43Z</time>
  <course>7.13</course>
  <speed>19.06</speed>
  <fix>3d</fix>
</trkpt>
<trkpt lat="-27.2739129" lon="151.2901354">
  <ele>364.98</ele>
  <time>2026-09-01T19:58:43Z</time>
  <course>6.85</course>
  <speed>19.72028904453482</speed>
  <fix>3d</fix>
</trkpt>
<trkpt lat="-27.2739622" lon="151.2901286">
  <ele>365.01</ele>
  <time>2026-09-01T19:58:43Z</time>
  <course>7.13</course>
  <speed>19.06</speed>
  <fix>3d</fix>
</trkpt>
<trkpt lat="-27.2738951" lon="151.2901379">
  <ele>364.96</ele>
  <time>2026-09-01T19:58:43Z</time>
  <course>6.87</course>
  <speed>19.960926832188928</speed>
  <fix>3d</fix>
</trkpt>
<trkpt lat="-27.2739277" lon="151.2901334">
  <ele>364.98</ele>
  <time>2026-09-01T19:58:43Z</time>
  <course>7.09</course>
  <speed>19.59</speed>
  <fix>3d</fix>
</trkpt>
<trkpt lat="-27.2738771" lon="151.2901404">
  <ele>364.94</ele>
  <time>2026-09-01T19:58:43Z</time>
  <course>6.92</course>
  <speed>20.182945771120725</speed>
  <fix>3d</fix>
</trkpt>
<trkpt lat="-27.2739277" lon="151.2901334">
  <ele>364.98</ele>
  <time>2026-09-01T19:58:43Z</time>
  <course>7.09</course>
  <speed>19.59</speed>
  <fix>3d</fix>
</trkpt>
<trkpt lat="-27.2738589" lon="151.290143">
  <ele>364.92</ele>
  <time>2026-09-01T19:58:43Z</time>
  <course>6.95</course>
  <speed>20.39504106394493</speed>
  <fix>3d</fix>
</trkpt>
<trkpt lat="-27.2738923" lon="151.2901384">
  <ele>364.95</ele>
  <time>2026-09-01T19:58:43Z</time>
  <course>7.06</course>
  <speed>20.07</speed>
  <fix>3d</fix>
</trkpt>
<trkpt lat="-27.2738406" lon="151.2901455">
  <ele>364.89</ele>
  <time>2026-09-01T19:58:43Z</time>
  <course>6.95</course>
  <speed>20.605906920104243</speed>
  <fix>3d</fix>
</trkpt>
<trkpt lat="-27.2738923" lon="151.2901384">
  <ele>364.95</ele>
  <time>2026-09-01T19:58:43Z</time>
  <course>7.06</course>
  <speed>20.07</speed>
  <fix>3d</fix>
</trkpt>
<trkpt lat="-27.2738221" lon="151.2901481">
  <ele>364.86</ele>
  <time>2026-09-01T19:58:43Z</time>
  <course>6.92</course>
  <speed>20.808077758409112</speed>
  <fix>3d</fix>
</trkpt>
<trkpt lat="-27.2738561" lon="151.2901434">
  <ele>364.91</ele>
  <time>2026-09-01T19:58:43Z</time>
  <course>7.05</course>
  <speed>20.51</speed>
  <fix>3d</fix>
</trkpt>
<trkpt lat="-27.2738034" lon="151.2901507">
  <ele>364.82</ele>
  <time>2026-09-01T19:58:43Z</time>
  <course>6.89</course>
  <speed>20.99909521860406</speed>
  <fix>3d</fix>
</trkpt>
<trkpt lat="-27.2738561" lon="151.2901434">
  <ele>364.91</ele>
  <time>2026-09-01T19:58:43Z</time>
  <course>7.05</course>
  <speed>20.51</speed>
  <fix>3d</fix>
</trkpt>
<trkpt lat="-27.2737844" lon="151.2901534">
  <ele>364.78</ele>
  <time>2026-09-01T19:58:43Z</time>
  <course>6.86</course>
  <speed>21.20003773581547</speed>
  <fix>3d</fix>
</trkpt>
<trkpt lat="-27.2738191" lon="151.2901486">
  <ele>364.87</ele>
  <time>2026-09-01T19:58:43Z</time>
  <course>7.04</course>
  <speed>20.92</speed>
  <fix>3d</fix>
</trkpt>
<trkpt lat="-27.2737654" lon="151.290156">
  <ele>364.73</ele>
  <time>2026-09-01T19:58:43Z</time>
  <course>6.82</course>
  <speed>21.381131869010115</speed>
  <fix>3d</fix>
</trkpt>
<trkpt lat="-27.2738191" lon="151.2901486">
  <ele>364.87</ele>
  <time>2026-09-01T19:58:43Z</time>
  <course>7.04</course>
  <speed>20.92</speed>
  <fix>3d</fix>
</trkpt>
<trkpt lat="-27.2737461" lon="151.2901587">
  <ele>364.67</ele>
  <time>2026-09-01T19:58:43Z</time>
  <course>6.76</course>
  <speed>21.572151028583125</speed>
  <fix>3d</fix>
</trkpt>
<trkpt lat="-27.2737815" lon="151.2901538">
  <ele>364.8</ele>
  <time>2026-09-01T19:58:43Z</time>
  <course>7.03</course>
  <speed>21.3</speed>
  <fix>3d</fix>
</trkpt>
<trkpt lat="-27.2737268" lon="151.2901614">
  <ele>364.61</ele>
  <time>2026-09-01T19:58:43Z</time>
  <course>6.77</course>
  <speed>21.743320813528</speed>
  <fix>3d</fix>
</trkpt>
<trkpt lat="-27.2737815" lon="151.2901538">
  <ele>364.8</ele>
  <time>2026-09-01T19:58:43Z</time>
  <course>7.03</course>
  <speed>21.3</speed>
  <fix>3d</fix>
</trkpt>
<trkpt lat="-27.2737072" lon="151.2901641">
  <ele>364.54</ele>
  <time>2026-09-01T19:58:43Z</time>
  <course>6.84</course>
  <speed>21.914490639757062</speed>
  <fix>3d</fix>
</trkpt>
<trkpt lat="-27.2737432" lon="151.2901591">
  <ele>364.7</ele>
  <time>2026-09-01T19:58:43Z</time>
  <course>7.0</course>
  <speed>21.67</speed>
  <fix>3d</fix>
</trkpt>
<trkpt lat="-27.2736875" lon="151.2901668">
  <ele>364.46</ele>
  <time>2026-09-01T19:58:43Z</time>
  <course>6.87</course>
  <speed>22.07573554833451</speed>
  <fix>3d</fix>
</trkpt>
<trkpt lat="-27.2737432" lon="151.2901591">
  <ele>364.7</ele>
  <time>2026-09-01T19:58:43Z</time>
  <course>7.0</course>
  <speed>21.67</speed>
  <fix>3d</fix>
</trkpt>
<trkpt lat="-27.2736678" lon="151.2901695">
  <ele>364.39</ele>
  <time>2026-09-01T19:58:43Z</time>
  <course>6.88</course>
  <speed>22.23698046048519</speed>
  <fix>3d</fix>
</trkpt>
<trkpt lat="-27.2737043" lon="151.2901645">
  <ele>364.58</ele>
  <time>2026-09-01T19:58:43Z</time>
  <course>6.98</course>
  <speed>22.01</speed>
  <fix>3d</fix>
</trkpt>
<trkpt lat="-27.2736478" lon="151.2901723">
  <ele>364.31</ele>
  <time>2026-09-01T19:58:43Z</time>
  <course>6.85</course>
  <speed>22.388300516117788</speed>
  <fix>3d</fix>
</trkpt>
<trkpt lat="-27.2737043" lon="151.2901645">
  <ele>364.58</ele>
  <time>2026-09-01T19:58:43Z</time>
  <course>6.98</course>
  <speed>22.01</speed>
  <fix>3d</fix>
</trkpt>
<trkpt lat="-27.2736277" lon="151.2901751">
  <ele>364.23</ele>
  <time>2026-09-01T19:58:43Z</time>
  <course>6.76</course>
  <speed>22.539620671164812</speed>
  <fix>3d</fix>
</trkpt>
<trkpt lat="-27.2736648" lon="151.2901699">
  <ele>364.43</ele>
  <time>2026-09-01T19:58:43Z</time>
  <course>6.98</course>
  <speed>22.33</speed>
  <fix>3d</fix>
</trkpt>
<trkpt lat="-27.2736075" lon="151.2901779">
  <ele>364.14</ele>
  <time>2026-09-01T19:58:43Z</time>
  <course>6.75</course>
  <speed>22.68101629116297</speed>
  <fix>3d</fix>
</trkpt>
<trkpt lat="-27.2736648" lon="151.2901699">
  <ele>364.43</ele>
  <time>2026-09-01T19:58:43Z</time>
  <course>6.98</course>
  <speed>22.33</speed>
  <fix>3d</fix>
</trkpt>
<trkpt lat="-27.2735869" lon="151.2901807">
  <ele>364.06</ele>
  <time>2026-09-01T19:58:43Z</time>
  <course>6.79</course>
  <speed>22.821187523877892</speed>
  <fix>3d</fix>
</trkpt>
<trkpt lat="-27.2736247" lon="151.2901754">
  <ele>364.27</ele>
  <time>2026-09-01T19:58:43Z</time>
  <course>6.98</course>
  <speed>22.62</speed>
  <fix>3d</fix>
</trkpt>
<trkpt lat="-27.2735665" lon="151.2901836">
  <ele>363.98</ele>
  <time>2026-09-01T19:58:43Z</time>
  <course>6.78</course>
  <speed>22.952657798172307</speed>
  <fix>3d</fix>
</trkpt>
<trkpt lat="-27.2736247" lon="151.2901754">
  <ele>364.27</ele>
  <time>2026-09-01T19:58:43Z</time>
  <course>6.98</course>
  <speed>22.62</speed>
  <fix>3d</fix>
</trkpt>
<trkpt lat="-27.2735458" lon="151.2901864">
  <ele>363.89</ele>
  <time>2026-09-01T19:58:43Z</time>
  <course>6.75</course>
  <speed>23.074204211629922</speed>
  <fix>3d</fix>
</trkpt>
<trkpt lat="-27.2735841" lon="151.290181">
  <ele>364.11</ele>
  <time>2026-09-01T19:58:43Z</time>
  <course>6.98</course>
  <speed>22.9</speed>
  <fix>3d</fix>
</trkpt>
<trkpt lat="-27.2735252" lon="151.2901893">
  <ele>363.81</ele>
  <time>2026-09-01T19:58:43Z</time>
  <course>6.81</course>
  <speed>23.194525216093563</speed>
  <fix>3d</fix>
</trkpt>
<trkpt lat="-27.2735841" lon="151.290181">
  <ele>364.11</ele>
  <time>2026-09-01T19:58:43Z</time>
  <course>6.98</course>
  <speed>22.9</speed>
  <fix>3d</fix>
</trkpt>
<trkpt lat="-27.2735044" lon="151.2901921">
  <ele>363.72</ele>
  <time>2026-09-01T19:58:43Z</time>
  <course>6.82</course>
  <speed>23.296222869813036</speed>
  <fix>3d</fix>
</trkpt>
<trkpt lat="-27.273543" lon="151.2901867">
  <ele>363.94</ele>
  <time>2026-09-01T19:58:43Z</time>
  <course>6.97</course>
  <speed>23.14</speed>
  <fix>3d</fix>
</trkpt>
<trkpt lat="-27.2734835" lon="151.290195">
  <ele>363.64</ele>
  <time>2026-09-01T19:58:43Z</time>
  <course>6.8</course>
  <speed>23.40784697489284</speed>
  <fix>3d</fix>
</trkpt>
<trkpt lat="-27.273543" lon="151.2901867">
  <ele>363.94</ele>
  <time>2026-09-01T19:58:43Z</time>
  <course>6.97</course>
  <speed>23.14</speed>
  <fix>3d</fix>
</trkpt>
<trkpt lat="-27.2734625" lon="151.2901979">
  <ele>363.56</ele>
  <time>2026-09-01T19:58:43Z</time>
  <course>6.74</course>
  <speed>23.5083176769415</speed>
  <fix>3d</fix>
</trkpt>
<trkpt lat="-27.2735014" lon="151.2901924">
  <ele>363.77</ele>
  <time>2026-09-01T19:58:43Z</time>
  <course>6.97</course>
  <speed>23.37</speed>
  <fix>3d</fix>
</trkpt>
<trkpt lat="-27.2734414" lon="151.2902009">
  <ele>363.48</ele>
  <time>2026-09-01T19:58:43Z</time>
  <course>6.75</course>
  <speed>23.608788617800787</speed>
  <fix>3d</fix>
</trkpt>
<trkpt lat="-27.2735014" lon="151.2901924">
  <ele>363.77</ele>
  <time>2026-09-01T19:58:43Z</time>
  <course>6.97</course>
  <speed>23.37</speed>
  <fix>3d</fix>
</trkpt>
<trkpt lat="-27.2734203" lon="151.2902038">
  <ele>363.4</ele>
  <time>2026-09-01T19:58:43Z</time>
  <course>6.78</course>
  <speed>23.6993354337205</speed>
  <fix>3d</fix>
</trkpt>
<trkpt lat="-27.2734596" lon="151.2901982">
  <ele>363.61</ele>
  <time>2026-09-01T19:58:43Z</time>
  <course>6.97</course>
  <speed>23.57</speed>
  <fix>3d</fix>
</trkpt>
<trkpt lat="-27.273399" lon="151.2902067">
  <ele>363.32</ele>
  <time>2026-09-01T19:58:43Z</time>
  <course>6.76</course>
  <speed>23.789882303197718</speed>
  <fix>3d</fix>
</trkpt>
<trkpt lat="-27.2734596" lon="151.2901982">
  <ele>363.61</ele>
  <time>2026-09-01T19:58:43Z</time>
  <course>6.97</course>
  <speed>23.57</speed>
  <fix>3d</fix>
</trkpt>
<trkpt lat="-27.2733777" lon="151.2902097">
  <ele>363.24</ele>
  <time>2026-09-01T19:58:43Z</time>
  <course>6.78</course>
  <speed>23.880429225623228</speed>
  <fix>3d</fix>
</trkpt>
<trkpt lat="-27.2734174" lon="151.290204">
  <ele>363.45</ele>
  <time>2026-09-01T19:58:43Z</time>
  <course>6.96</course>
  <speed>23.76</speed>
  <fix>3d</fix>
</trkpt>
<trkpt lat="-27.2733563" lon="151.2902126">
  <ele>363.16</ele>
  <time>2026-09-01T19:58:43Z</time>
  <course>6.76</course>
  <speed>23.9722047379877</speed>
  <fix>3d</fix>
</trkpt>
<trkpt lat="-27.2734174" lon="151.290204">
  <ele>363.45</ele>
  <time>2026-09-01T19:58:43Z</time>
  <course>6.96</course>
  <speed>23.76</speed>
  <fix>3d</fix>
</trkpt>
<trkpt lat="-27.2733348" lon="151.2902156">
  <ele>363.08</ele>
  <time>2026-09-01T19:58:43Z</time>
  <course>6.74</course>
  <speed>24.051598699462787</speed>
  <fix>3d</fix>
</trkpt>
<trkpt lat="-27.2733748" lon="151.2902098">
  <ele>363.3</ele>
  <time>2026-09-01T19:58:43Z</time>
  <course>6.97</course>
  <speed>23.94</speed>
  <fix>3d</fix>
</trkpt>
<trkpt lat="-27.2733131" lon="151.2902186">
  <ele>363.0</ele>
  <time>2026-09-01T19:58:43Z</time>
  <course>6.74</course>
  <speed>24.142145720710076</speed>
  <fix>3d</fix>
</trkpt>
<trkpt lat="-27.2733748" lon="151.2902098">
  <ele>363.3</ele>
  <time>2026-09-01T19:58:43Z</time>
  <course>6.97</course>
  <speed>23.94</speed>
  <fix>3d</fix>
</trkpt>
<trkpt lat="-27.2732915" lon="151.2902216">
  <ele>362.93</ele>
  <time>2026-09-01T19:58:43Z</time>
  <course>6.75</course>
  <speed>24.222768215049246</speed>
  <fix>3d</fix>
</trkpt>
<trkpt lat="-27.2733319" lon="151.2902157">
  <ele>363.14</ele>
  <time>2026-09-01T19:58:43Z</time>
  <course>6.96</course>
  <speed>24.11</speed>
  <fix>3d</fix>
</trkpt>
<trkpt lat="-27.2732698" lon="151.2902245">
  <ele>362.85</ele>
  <time>2026-09-01T19:58:43Z</time>
  <course>6.81</course>
  <speed>24.29346619978302</speed>
  <fix>3d</fix>
</trkpt>
<trkpt lat="-27.2733319" lon="151.2902157">
  <ele>363.14</ele>
  <time>2026-09-01T19:58:43Z</time>
  <course>6.96</course>
  <speed>24.11</speed>
  <fix>3d</fix>
</trkpt>
<trkpt lat="-27.273248" lon="151.2902275">
  <ele>362.78</ele>
  <time>2026-09-01T19:58:43Z</time>
  <course>6.89</course>
  <speed>24.375317433830478</speed>
  <fix>3d</fix>
</trkpt>
<trkpt lat="-27.2732889" lon="151.2902217">
  <ele>363.0</ele>
  <time>2026-09-01T19:58:43Z</time>
  <course>6.95</course>
  <speed>24.26</speed>
  <fix>3d</fix>
</trkpt>
<trkpt lat="-27.2732264" lon="151.2902305">
  <ele>362.7</ele>
  <time>2026-09-01T19:58:43Z</time>
  <course>6.87</course>
  <speed>24.446016035337948</speed>
  <fix>3d</fix>
</trkpt>
<trkpt lat="-27.2732889" lon="151.2902217">
  <ele>363.0</ele>
  <time>2026-09-01T19:58:43Z</time>
  <course>6.95</course>
  <speed>24.26</speed>
  <fix>3d</fix>
</trkpt>
<trkpt lat="-27.2732045" lon="151.2902336">
  <ele>362.63</ele>
  <time>2026-09-01T19:58:43Z</time>
  <course>6.83</course>
  <speed>24.52663857930801</speed>
  <fix>3d</fix>
</trkpt>
<trkpt lat="-27.2732455" lon="151.2902276">
  <ele>362.86</ele>
  <time>2026-09-01T19:58:43Z</time>
  <course>6.97</course>
  <speed>24.41</speed>
  <fix>3d</fix>
</trkpt>
<trkpt lat="-27.2731825" lon="151.2902366">
  <ele>362.55</ele>
  <time>2026-09-01T19:58:43Z</time>
  <course>6.82</course>
  <speed>24.587413446721065</speed>
  <fix>3d</fix>
</trkpt>
<trkpt lat="-27.2732455" lon="151.2902276">
  <ele>362.86</ele>
  <time>2026-09-01T19:58:43Z</time>
  <course>6.97</course>
  <speed>24.41</speed>
  <fix>3d</fix>
</trkpt>
<trkpt lat="-27.2731605" lon="151.2902396">
  <ele>362.48</ele>
  <time>2026-09-01T19:58:43Z</time>
  <course>6.85</course>
  <speed>24.65811225540187</speed>
  <fix>3d</fix>
</trkpt>
<trkpt lat="-27.2732018" lon="151.2902336">
  <ele>362.71</ele>
  <time>2026-09-01T19:58:43Z</time>
  <course>6.98</course>
  <speed>24.55</speed>
  <fix>3d</fix>
</trkpt>
<trkpt lat="-27.2731382" lon="151.2902427">
  <ele>362.41</ele>
  <time>2026-09-01T19:58:43Z</time>
  <course>6.88</course>
  <speed>24.72881113195699</speed>
  <fix>3d</fix>
</trkpt>
<trkpt lat="-27.2732018" lon="151.2902336">
  <ele>362.71</ele>
  <time>2026-09-01T19:58:43Z</time>
  <course>6.98</course>
  <speed>24.55</speed>
  <fix>3d</fix>
</trkpt>
<trkpt lat="-27.2731162" lon="151.2902458">
  <ele>362.34</ele>
  <time>2026-09-01T19:58:43Z</time>
  <course>6.88</course>
  <speed>24.78958652337711</speed>
  <fix>3d</fix>
</trkpt>
<trkpt lat="-27.2731579" lon="151.2902397">
  <ele>362.57</ele>
  <time>2026-09-01T19:58:43Z</time>
  <course>6.99</course>
  <speed>24.69</speed>
  <fix>3d</fix>
</trkpt>
<trkpt lat="-27.2730941" lon="151.2902488">
  <ele>362.27</ele>
  <time>2026-09-01T19:58:43Z</time>
  <course>6.89</course>
  <speed>24.840438804497797</speed>
  <fix>3d</fix>
</trkpt>
<trkpt lat="-27.2731579" lon="151.2902397">
  <ele>362.57</ele>
  <time>2026-09-01T19:58:43Z</time>
  <course>6.99</course>
  <speed>24.69</speed>
  <fix>3d</fix>
</trkpt>
<trkpt lat="-27.273072" lon="151.2902519">
  <ele>362.21</ele>
  <time>2026-09-01T19:58:43Z</time>
  <course>6.86</course>
  <speed>24.899979919670617</speed>
  <fix>3d</fix>
</trkpt>
<trkpt lat="-27.2731138" lon="151.2902458">
  <ele>362.44</ele>
  <time>2026-09-01T19:58:43Z</time>
  <course>7.0</course>
  <speed>24.81</speed>
  <fix>3d</fix>
</trkpt>
<trkpt lat="-27.2730499" lon="151.2902549">
  <ele>362.14</ele>
  <time>2026-09-01T19:58:43Z</time>
  <course>6.83</course>
  <speed>24.950831649466117</speed>
  <fix>3d</fix>
</trkpt>
<trkpt lat="-27.2731138" lon="151.2902458">
  <ele>362.44</ele>
  <time>2026-09-01T19:58:43Z</time>
  <course>7.0</course>
  <speed>24.81</speed>
  <fix>3d</fix>
</trkpt>
<trkpt lat="-27.2730277" lon="151.290258">
  <ele>362.08</ele>
  <time>2026-09-01T19:58:43Z</time>
  <course>6.92</course>
  <speed>24.99176064225968</speed>
  <fix>3d</fix>
</trkpt>
<trkpt lat="-27.2730694" lon="151.290252">
  <ele>362.3</ele>
  <time>2026-09-01T19:58:43Z</time>
  <course>7.01</course>
  <speed>24.93</speed>
  <fix>3d</fix>
</trkpt>
<trkpt lat="-27.2730054" lon="151.2902611">
  <ele>362.02</ele>
  <time>2026-09-01T19:58:43Z</time>
  <course>6.95</course>
  <speed>25.041377757623483</speed>
  <fix>3d</fix>
</trkpt>
<trkpt lat="-27.2730694" lon="151.290252">
  <ele>362.3</ele>
  <time>2026-09-01T19:58:43Z</time>
  <course>7.01</course>
  <speed>24.93</speed>
  <fix>3d</fix>
</trkpt>
<trkpt lat="-27.2729832" lon="151.2902642">
  <ele>361.96</ele>
  <time>2026-09-01T19:58:43Z</time>
  <course>7.02</course>
  <speed>25.08230651275915</speed>
  <fix>3d</fix>
</trkpt>
<trkpt lat="-27.2730248" lon="151.2902581">
  <ele>362.18</ele>
  <time>2026-09-01T19:58:43Z</time>
  <course>7.01</course>
  <speed>25.03</speed>
  <fix>3d</fix>
</trkpt>
<trkpt lat="-27.2729609" lon="151.2902673">
  <ele>361.9</ele>
  <time>2026-09-01T19:58:43Z</time>
  <course>7.01</course>
  <speed>25.124476113941164</speed>
  <fix>3d</fix>
</trkpt>
<trkpt lat="-27.2730248" lon="151.2902581">
  <ele>362.18</ele>
  <time>2026-09-01T19:58:43Z</time>
  <course>7.01</course>
  <speed>25.03</speed>
  <fix>3d</fix>
</trkpt>
<trkpt lat="-27.2729385" lon="151.2902704">
  <ele>361.85</ele>
  <time>2026-09-01T19:58:43Z</time>
  <course>6.99</course>
  <speed>25.164166984027112</speed>
  <fix>3d</fix>
</trkpt>
<trkpt lat="-27.2729801" lon="151.2902643">
  <ele>362.06</ele>
  <time>2026-09-01T19:58:43Z</time>
  <course>7.03</course>
  <speed>25.13</speed>
  <fix>3d</fix>
</trkpt>
<trkpt lat="-27.2729161" lon="151.2902735">
  <ele>361.8</ele>
  <time>2026-09-01T19:58:43Z</time>
  <course>6.94</course>
  <speed>25.205098690542755</speed>
  <fix>3d</fix>
</trkpt>
<trkpt lat="-27.2729801" lon="151.2902643">
  <ele>362.06</ele>
  <time>2026-09-01T19:58:43Z</time>
  <course>7.03</course>
  <speed>25.13</speed>
  <fix>3d</fix>
</trkpt>
<trkpt lat="-27.2728936" lon="151.2902766">
  <ele>361.73</ele>
  <time>2026-09-01T19:58:43Z</time>
  <course>6.91</course>
  <speed>25.254712431544334</speed>
  <fix>3d</fix>
</trkpt>
<trkpt lat="-27.2729352" lon="151.2902705">
  <ele>361.95</ele>
  <time>2026-09-01T19:58:43Z</time>
  <course>7.05</course>
  <speed>25.22</speed>
  <fix>3d</fix>
</trkpt>
<trkpt lat="-27.2728711" lon="151.2902797">
  <ele>361.65</ele>
  <time>2026-09-01T19:58:43Z</time>
  <course>6.92</course>
  <speed>25.29440451957705</speed>
  <fix>3d</fix>
</trkpt>
<trkpt lat="-27.2729352" lon="151.2902705">
  <ele>361.95</ele>
  <time>2026-09-01T19:58:43Z</time>
  <course>7.05</course>
  <speed>25.22</speed>
  <fix>3d</fix>
</trkpt>
<trkpt lat="-27.2728486" lon="151.2902829">
  <ele>361.56</ele>
  <time>2026-09-01T19:58:43Z</time>
  <course>6.95</course>
  <speed>25.345257939109633</speed>
  <fix>3d</fix>
</trkpt>
<trkpt lat="-27.2728901" lon="151.2902768">
  <ele>361.83</ele>
  <time>2026-09-01T19:58:43Z</time>
  <course>7.05</course>
  <speed>25.31</speed>
  <fix>3d</fix>
</trkpt>
<trkpt lat="-27.272826" lon="151.290286">
  <ele>361.46</ele>
  <time>2026-09-01T19:58:43Z</time>
  <course>7.0</course>
  <speed>25.404796791157374</speed>
  <fix>3d</fix>
</trkpt>
<trkpt lat="-27.2728901" lon="151.2902768">
  <ele>361.83</ele>
  <time>2026-09-01T19:58:43Z</time>
  <course>7.05</course>
  <speed>25.31</speed>
  <fix>3d</fix>
</trkpt>
<trkpt lat="-27.2728033" lon="151.2902891">
  <ele>361.37</ele>
  <time>2026-09-01T19:58:43Z</time>
  <course>7.02</course>
  <speed>25.44449056279178</speed>
  <fix>3d</fix>
</trkpt>
<trkpt lat="-27.2728449" lon="151.2902831">
  <ele>361.66</ele>
  <time>2026-09-01T19:58:43Z</time>
  <course>7.04</course>
  <speed>25.41</speed>
  <fix>3d</fix>
</trkpt>
<trkpt lat="-27.2727806" lon="151.2902923">
  <ele>361.29</ele>
  <time>2026-09-01T19:58:43Z</time>
  <course>7.06</course>
  <speed>25.495342711954276</speed>
  <fix>3d</fix>
</trkpt>
<trkpt lat="-27.2728449" lon="151.2902831">
  <ele>361.66</ele>
  <time>2026-09-01T19:58:43Z</time>
  <course>7.04</course>
  <speed>25.41</speed>
  <fix>3d</fix>
</trkpt>
<trkpt lat="-27.2727579" lon="151.2902954">
  <ele>361.21</ele>
  <time>2026-09-01T19:58:43Z</time>
  <course>7.03</course>
  <speed>25.536272241656576</speed>
  <fix>3d</fix>
</trkpt>
<trkpt lat="-27.2727995" lon="151.2902894">
  <ele>361.49</ele>
  <time>2026-09-01T19:58:43Z</time>
  <course>7.04</course>
  <speed>25.51</speed>
  <fix>3d</fix>
</trkpt>
<trkpt lat="-27.2727351" lon="151.2902986">
  <ele>361.15</ele>
  <time>2026-09-01T19:58:43Z</time>
  <course>7.11</course>
  <speed>25.567279870960068</speed>
  <fix>3d</fix>
</trkpt>
<trkpt lat="-27.2727995" lon="151.2902894">
  <ele>361.49</ele>
  <time>2026-09-01T19:58:43Z</time>
  <course>7.04</course>
  <speed>25.51</speed>
  <fix>3d</fix>
</trkpt>
<trkpt lat="-27.2727122" lon="151.2903018">
  <ele>361.1</ele>
  <time>2026-09-01T19:58:43Z</time>
  <course>7.15</course>
  <speed>25.58961117328671</speed>
  <fix>3d</fix>
</trkpt>
<trkpt lat="-27.272754" lon="151.2902958">
  <ele>361.33</ele>
  <time>2026-09-01T19:58:43Z</time>
  <course>7.05</course>
  <speed>25.59</speed>
  <fix>3d</fix>
</trkpt>
<trkpt lat="-27.2726894" lon="151.290305">
  <ele>361.06</ele>
  <time>2026-09-01T19:58:43Z</time>
  <course>7.16</course>
  <speed>25.620624504488564</speed>
  <fix>3d</fix>
</trkpt>
<trkpt lat="-27.272754" lon="151.2902958">
  <ele>361.33</ele>
  <time>2026-09-01T19:58:43Z</time>
  <course>7.05</course>
  <speed>25.59</speed>
  <fix>3d</fix>
</trkpt>
<trkpt lat="-27.2726664" lon="151.2903082">
  <ele>361.03</ele>
  <time>2026-09-01T19:58:43Z</time>
  <course>7.17</course>
  <speed>25.631796659617912</speed>
  <fix>3d</fix>
</trkpt>
<trkpt lat="-27.2727083" lon="151.2903021">
  <ele>361.22</ele>
  <time>2026-09-01T19:58:43Z</time>
  <course>7.09</course>
  <speed>25.66</speed>
  <fix>3d</fix>
</trkpt>
<trkpt lat="-27.2726435" lon="151.2903115">
  <ele>361.02</ele>
  <time>2026-09-01T19:58:43Z</time>
  <course>7.16</course>
  <speed>25.641717961166332</speed>
  <fix>3d</fix>
</trkpt>
<trkpt lat="-27.2727083" lon="151.2903021">
  <ele>361.22</ele>
  <time>2026-09-01T19:58:43Z</time>
  <course>7.09</course>
  <speed>25.66</speed>
  <fix>3d</fix>
</trkpt>
<trkpt lat="-27.2726206" lon="151.2903147">
  <ele>361.01</ele>
  <time>2026-09-01T19:58:43Z</time>
  <course>7.17</course>
  <speed>25.642971746659942</speed>
  <fix>3d</fix>
</trkpt>
<trkpt lat="-27.2726625" lon="151.2903086">
  <ele>361.16</ele>
  <time>2026-09-01T19:58:43Z</time>
  <course>7.13</course>
  <speed>25.69</speed>
  <fix>3d</fix>
</trkpt>
<trkpt lat="-27.2725977" lon="151.2903179">
  <ele>361.01</ele>
  <time>2026-09-01T19:58:43Z</time>
  <course>7.22</course>
  <speed>25.652892624419568</speed>
  <fix>3d</fix>
</trkpt>
<trkpt lat="-27.2726625" lon="151.2903086">
  <ele>361.16</ele>
  <time>2026-09-01T19:58:43Z</time>
  <course>7.13</course>
  <speed>25.69</speed>
  <fix>3d</fix>
</trkpt>
<trkpt lat="-27.2725749" lon="151.2903211">
  <ele>361.01</ele>
  <time>2026-09-01T19:58:43Z</time>
  <course>7.26</course>
  <speed>25.652892624419568</speed>
  <fix>3d</fix>
</trkpt>
<trkpt lat="-27.2726166" lon="151.290315">
  <ele>361.14</ele>
  <time>2026-09-01T19:58:43Z</time>
  <course>7.15</course>
  <speed>25.71</speed>
  <fix>3d</fix>
</trkpt>
<trkpt lat="-27.272552" lon="151.2903244">
  <ele>361.02</ele>
  <time>2026-09-01T19:58:43Z</time>
  <course>7.28</course>
  <speed>25.64422937036713</speed>
  <fix>3d</fix>
</trkpt>
<trkpt lat="-27.2726166" lon="151.290315">
  <ele>361.14</ele>
  <time>2026-09-01T19:58:43Z</time>
  <course>7.15</course>
  <speed>25.71</speed>
  <fix>3d</fix>
</trkpt>
<trkpt lat="-27.2725291" lon="151.2903276">
  <ele>361.04</ele>
  <time>2026-09-01T19:58:43Z</time>
  <course>7.27</course>
  <speed>25.63430904081481</speed>
  <fix>3d</fix>
</trkpt>
<trkpt lat="-27.2725707" lon="151.2903215">
  <ele>361.14</ele>
  <time>2026-09-01T19:58:43Z</time>
  <course>7.17</course>
  <speed>25.71</speed>
  <fix>3d</fix>
</trkpt>
<trkpt lat="-27.2725062" lon="151.2903309">
  <ele>361.06</ele>
  <time>2026-09-01T19:58:43Z</time>
  <course>7.23</course>
  <speed>25.625651211237543</speed>
  <fix>3d</fix>
</trkpt>
<trkpt lat="-27.2725707" lon="151.2903215">
  <ele>361.14</ele>
  <time>2026-09-01T19:58:43Z</time>
  <course>7.17</course>
  <speed>25.71</speed>
  <fix>3d</fix>
</trkpt>
<trkpt lat="-27.2724834" lon="151.2903341">
  <ele>361.09</ele>
  <time>2026-09-01T19:58:43Z</time>
  <course>7.28</course>
  <speed>25.615731494532806</speed>
  <fix>3d</fix>
</trkpt>
<trkpt lat="-27.2725249" lon="151.290328">
  <ele>361.16</ele>
  <time>2026-09-01T19:58:43Z</time>
  <course>7.2</course>
  <speed>25.7</speed>
  <fix>3d</fix>
</trkpt>
<trkpt lat="-27.2724605" lon="151.2903374">
  <ele>361.12</ele>
  <time>2026-09-01T19:58:43Z</time>
  <course>7.32</course>
  <speed>25.60581184028345</speed>
  <fix>3d</fix>
</trkpt>
<trkpt lat="-27.2725249" lon="151.290328">
  <ele>361.16</ele>
  <time>2026-09-01T19:58:43Z</time>
  <course>7.2</course>
  <speed>25.7</speed>
  <fix>3d</fix>
</trkpt>
<trkpt lat="-27.2724376" lon="151.2903406">
  <ele>361.15</ele>
  <time>2026-09-01T19:58:43Z</time>
  <course>7.29</course>
  <speed>25.587240961072766</speed>
  <fix>3d</fix>
</trkpt>
<trkpt lat="-27.2724791" lon="151.2903346">
  <ele>361.22</ele>
  <time>2026-09-01T19:58:43Z</time>
  <course>7.22</course>
  <speed>25.68</speed>
  <fix>3d</fix>
</trkpt>
<trkpt lat="-27.2724148" lon="151.2903439">
  <ele>361.18</ele>
  <time>2026-09-01T19:58:43Z</time>
  <course>7.32</course>
  <speed>25.57732198647857</speed>
  <fix>3d</fix>
</trkpt>
<trkpt lat="-27.2724791" lon="151.2903346">
  <ele>361.22</ele>
  <time>2026-09-01T19:58:43Z</time>
  <course>7.22</course>
  <speed>25.68</speed>
  <fix>3d</fix>
</trkpt>
<trkpt lat="-27.272392" lon="151.2903472">
  <ele>361.22</ele>
  <time>2026-09-01T19:58:43Z</time>
  <course>7.34</course>
  <speed>25.55748422673875</speed>
  <fix>3d</fix>
</trkpt>
<trkpt lat="-27.2724333" lon="151.2903411">
  <ele>361.28</ele>
  <time>2026-09-01T19:58:43Z</time>
  <course>7.24</course>
  <speed>25.65</speed>
  <fix>3d</fix>
</trkpt>
<trkpt lat="-27.2723692" lon="151.2903504">
  <ele>361.26</ele>
  <time>2026-09-01T19:58:43Z</time>
  <course>7.37</course>
  <speed>25.537646720087583</speed>
  <fix>3d</fix>
</trkpt>
<trkpt lat="-27.2724333" lon="151.2903411">
  <ele>361.28</ele>
  <time>2026-09-01T19:58:43Z</time>
  <course>7.24</course>
  <speed>25.65</speed>
  <fix>3d</fix>
</trkpt>
<trkpt lat="-27.2723464" lon="151.2903537">
  <ele>361.3</ele>
  <time>2026-09-01T19:58:43Z</time>
  <course>7.44</course>
  <speed>25.517809467115317</speed>
  <fix>3d</fix>
</trkpt>
<trkpt lat="-27.2723877" lon="151.2903476">
  <ele>361.35</ele>
  <time>2026-09-01T19:58:43Z</time>
  <course>7.26</course>
  <speed>25.61</speed>
  <fix>3d</fix>
</trkpt>
<trkpt lat="-27.2723236" lon="151.290357">
  <ele>361.35</ele>
  <time>2026-09-01T19:58:43Z</time>
  <course>7.46</course>
  <speed>25.488054064600536</speed>
  <fix>3d</fix>
</trkpt>
<trkpt lat="-27.2723877" lon="151.2903476">
  <ele>361.35</ele>
  <time>2026-09-01T19:58:43Z</time>
  <course>7.26</course>
  <speed>25.61</speed>
  <fix>3d</fix>
</trkpt>
<trkpt lat="-27.2723008" lon="151.2903603">
  <ele>361.39</ele>
  <time>2026-09-01T19:58:43Z</time>
  <course>7.43</course>
  <speed>25.468217448419907</speed>
  <fix>3d</fix>
</trkpt>
<trkpt lat="-27.2723421" lon="151.2903542">
  <ele>361.43</ele>
  <time>2026-09-01T19:58:43Z</time>
  <course>7.28</course>
  <speed>25.57</speed>
  <fix>3d</fix>
</trkpt>
<trkpt lat="-27.2722781" lon="151.2903635">
  <ele>361.43</ele>
  <time>2026-09-01T19:58:43Z</time>
  <course>7.42</course>
  <speed>25.448381087998506</speed>
  <fix>3d</fix>
</trkpt>
<trkpt lat="-27.2723421" lon="151.2903542">
  <ele>361.43</ele>
  <time>2026-09-01T19:58:43Z</time>
  <course>7.28</course>
  <speed>25.57</speed>
  <fix>3d</fix>
</trkpt>
<trkpt lat="-27.2722554" lon="151.2903668">
  <ele>361.48</ele>
  <time>2026-09-01T19:58:43Z</time>
  <course>7.41</course>
  <speed>25.41862702822479</speed>
  <fix>3d</fix>
</trkpt>
<trkpt lat="-27.2722965" lon="151.2903608">
  <ele>361.52</ele>
  <time>2026-09-01T19:58:43Z</time>
  <course>7.3</course>
  <speed>25.52</speed>
  <fix>3d</fix>
</trkpt>
<trkpt lat="-27.2722327" lon="151.2903701">
  <ele>361.54</ele>
  <time>2026-09-01T19:58:43Z</time>
  <course>7.36</course>
  <speed>25.398791309824173</speed>
  <fix>3d</fix>
</trkpt>
<trkpt lat="-27.2722965" lon="151.2903608">
  <ele>361.52</ele>
  <time>2026-09-01T19:58:43Z</time>
  <course>7.3</course>
  <speed>25.52</speed>
  <fix>3d</fix>
</trkpt>
<trkpt lat="-27.2722102" lon="151.2903733">
  <ele>361.59</ele>
  <time>2026-09-01T19:58:43Z</time>
  <course>7.38</course>
  <speed>25.367759065396378</speed>
  <fix>3d</fix>
</trkpt>
<trkpt lat="-27.2722511" lon="151.2903673">
  <ele>361.61</ele>
  <time>2026-09-01T19:58:43Z</time>
  <course>7.31</course>
  <speed>25.46</speed>
  <fix>3d</fix>
</trkpt>
<trkpt lat="-27.2721876" lon="151.2903766">
  <ele>361.64</ele>
  <time>2026-09-01T19:58:43Z</time>
  <course>7.45</course>
  <speed>25.347922991835052</speed>
  <fix>3d</fix>
</trkpt>
<trkpt lat="-27.2722511" lon="151.2903673">
  <ele>361.61</ele>
  <time>2026-09-01T19:58:43Z</time>
  <course>7.31</course>
  <speed>25.46</speed>
  <fix>3d</fix>
</trkpt>
<trkpt lat="-27.272165" lon="151.2903799">
  <ele>361.69</ele>
  <time>2026-09-01T19:58:43Z</time>
  <course>7.53</course>
  <speed>25.319451020904857</speed>
  <fix>3d</fix>
</trkpt>
<trkpt lat="-27.2722058" lon="151.2903739">
  <ele>361.71</ele>
  <time>2026-09-01T19:58:43Z</time>
  <course>7.31</course>
  <speed>25.41</speed>
  <fix>3d</fix>
</trkpt>
<trkpt lat="-27.2721424" lon="151.2903831">
  <ele>361.74</ele>
  <time>2026-09-01T19:58:43Z</time>
  <course>7.53</course>
  <speed>25.28841632052114</speed>
  <fix>3d</fix>
</trkpt>
<trkpt lat="-27.2722058" lon="151.2903739">
  <ele>361.71</ele>
  <time>2026-09-01T19:58:43Z</time>
  <course>7.31</course>
  <speed>25.41</speed>
  <fix>3d</fix>
</trkpt>
<trkpt lat="-27.2721198" lon="151.2903864">
  <ele>361.79</ele>
  <time>2026-09-01T19:58:43Z</time>
  <course>7.51</course>
  <speed>25.258663860149053</speed>
  <fix>3d</fix>
</trkpt>
<trkpt lat="-27.2721605" lon="151.2903804">
  <ele>361.81</ele>
  <time>2026-09-01T19:58:43Z</time>
  <course>7.33</course>
  <speed>25.35</speed>
  <fix>3d</fix>
</trkpt>
<trkpt lat="-27.2720971" lon="151.2903897">
  <ele>361.84</ele>
  <time>2026-09-01T19:58:43Z</time>
  <course>7.56</course>
  <speed>25.23019817599537</speed>
  <fix>3d</fix>
</trkpt>
<trkpt lat="-27.2721605" lon="151.2903804">
  <ele>361.81</ele>
  <time>2026-09-01T19:58:43Z</time>
  <course>7.33</course>
  <speed>25.35</speed>
  <fix>3d</fix>
</trkpt>
<trkpt lat="-27.2720746" lon="151.290393">
  <ele>361.89</ele>
  <time>2026-09-01T19:58:43Z</time>
  <course>7.58</course>
  <speed>25.209077730055892</speed>
  <fix>3d</fix>
</trkpt>
<trkpt lat="-27.2721153" lon="151.290387">
  <ele>361.91</ele>
  <time>2026-09-01T19:58:43Z</time>
  <course>7.35</course>
  <speed>25.29</speed>
  <fix>3d</fix>
</trkpt>
<trkpt lat="-27.2720519" lon="151.2903963">
  <ele>361.94</ele>
  <time>2026-09-01T19:58:43Z</time>
  <course>7.61</course>
  <speed>25.180615560386922</speed>
  <fix>3d</fix>
</trkpt>
<trkpt lat="-27.2721153" lon="151.290387">
  <ele>361.91</ele>
  <time>2026-09-01T19:58:43Z</time>
  <course>7.35</course>
  <speed>25.29</speed>
  <fix>3d</fix>
</trkpt>
<trkpt lat="-27.2720295" lon="151.2903996">
  <ele>362.0</ele>
  <time>2026-09-01T19:58:43Z</time>
  <course>7.63</course>
  <speed>25.152160940960915</speed>
  <fix>3d</fix>
</trkpt>
<trkpt lat="-27.2720703" lon="151.2903935">
  <ele>362.02</ele>
  <time>2026-09-01T19:58:43Z</time>
  <course>7.37</course>
  <speed>25.23</speed>
  <fix>3d</fix>
</trkpt>
<trkpt lat="-27.2720071" lon="151.2904029">
  <ele>362.05</ele>
  <time>2026-09-01T19:58:43Z</time>
  <course>7.66</course>
  <speed>25.132329776604475</speed>
  <fix>3d</fix>
</trkpt>
<trkpt lat="-27.2720703" lon="151.2903935">
  <ele>362.02</ele>
  <time>2026-09-01T19:58:43Z</time>
  <course>7.37</course>
  <speed>25.23</speed>
  <fix>3d</fix>
</trkpt>
<trkpt lat="-27.2719847" lon="151.2904061">
  <ele>362.1</ele>
  <time>2026-09-01T19:58:43Z</time>
  <course>7.62</course>
  <speed>25.102583532377697</speed>
  <fix>3d</fix>
</trkpt>
<trkpt lat="-27.2720253" lon="151.2904001">
  <ele>362.12</ele>
  <time>2026-09-01T19:58:43Z</time>
  <course>7.4</course>
  <speed>25.18</speed>
  <fix>3d</fix>
</trkpt>
<trkpt lat="-27.2719623" lon="151.2904094">
  <ele>362.15</ele>
  <time>2026-09-01T19:58:43Z</time>
  <course>7.6</course>
  <speed>25.07283789282737</speed>
  <fix>3d</fix>
</trkpt>
<trkpt lat="-27.2720253" lon="151.2904001">
  <ele>362.12</ele>
  <time>2026-09-01T19:58:43Z</time>
  <course>7.4</course>
  <speed>25.18</speed>
  <fix>3d</fix>
</trkpt>
<trkpt lat="-27.2719399" lon="151.2904127">
  <ele>362.21</ele>
  <time>2026-09-01T19:58:43Z</time>
  <course>7.68</course>
  <speed>25.043092860108153</speed>
  <fix>3d</fix>
</trkpt>
<trkpt lat="-27.2719806" lon="151.2904067">
  <ele>362.22</ele>
  <time>2026-09-01T19:58:43Z</time>
  <course>7.43</course>
  <speed>25.12</speed>
  <fix>3d</fix>
</trkpt>
<trkpt lat="-27.2719176" lon="151.290416">
  <ele>362.26</ele>
  <time>2026-09-01T19:58:43Z</time>
  <course>7.71</course>
  <speed>25.013348436384923</speed>
  <fix>3d</fix>
</trkpt>
<trkpt lat="-27.2719806" lon="151.2904067">
  <ele>362.22</ele>
  <time>2026-09-01T19:58:43Z</time>
  <course>7.43</course>
  <speed>25.12</speed>
  <fix>3d</fix>
</trkpt>
<trkpt lat="-27.2718953" lon="151.2904193">
  <ele>362.31</ele>
  <time>2026-09-01T19:58:43Z</time>
  <course>7.72</course>
  <speed>24.99351915997425</speed>
  <fix>3d</fix>
</trkpt>
<trkpt lat="-27.2719359" lon="151.2904132">
  <ele>362.33</ele>
  <time>2026-09-01T19:58:43Z</time>
  <course>7.45</course>
  <speed>25.06</speed>
  <fix>3d</fix>
</trkpt>
<trkpt lat="-27.2718731" lon="151.2904226">
  <ele>362.35</ele>
  <time>2026-09-01T19:58:43Z</time>
  <course>7.74</course>
  <speed>24.95386142463727</speed>
  <fix>3d</fix>
</trkpt>
<trkpt lat="-27.2719359" lon="151.2904132">
  <ele>362.33</ele>
  <time>2026-09-01T19:58:43Z</time>
  <course>7.45</course>
  <speed>25.06</speed>
  <fix>3d</fix>
</trkpt>
<trkpt lat="-27.2718508" lon="151.2904259">
  <ele>362.4</ele>
  <time>2026-09-01T19:58:43Z</time>
  <course>7.74</course>
  <speed>24.93403296701117</speed>
  <fix>3d</fix>
</trkpt>
<trkpt lat="-27.2718913" lon="151.2904198">
  <ele>362.42</ele>
  <time>2026-09-01T19:58:43Z</time>
  <course>7.47</course>
  <speed>25.0</speed>
  <fix>3d</fix>
</trkpt>
<trkpt lat="-27.2718286" lon="151.2904291">
  <ele>362.45</ele>
  <time>2026-09-01T19:58:43Z</time>
  <course>7.7</course>
  <speed>24.902983756971775</speed>
  <fix>3d</fix>
</trkpt>
<trkpt lat="-27.2718913" lon="151.2904198">
  <ele>362.42</ele>
  <time>2026-09-01T19:58:43Z</time>
  <course>7.47</course>
  <speed>25.0</speed>
  <fix>3d</fix>
</trkpt>
<trkpt lat="-27.2718064" lon="151.2904324">
  <ele>362.49</ele>
  <time>2026-09-01T19:58:43Z</time>
  <course>7.68</course>
  <speed>24.87324064129964</speed>
  <fix>3d</fix>
</trkpt>
<trkpt lat="-27.2718469" lon="151.2904264">
  <ele>362.51</ele>
  <time>2026-09-01T19:58:43Z</time>
  <course>7.48</course>
  <speed>24.94</speed>
  <fix>3d</fix>
</trkpt>
<trkpt lat="-27.2717842" lon="151.2904357">
  <ele>362.54</ele>
  <time>2026-09-01T19:58:43Z</time>
  <course>7.69</course>
  <speed>24.852106550552207</speed>
  <fix>3d</fix>
</trkpt>
<trkpt lat="-27.2718469" lon="151.2904264">
  <ele>362.51</ele>
  <time>2026-09-01T19:58:43Z</time>
  <course>7.48</course>
  <speed>24.94</speed>
  <fix>3d</fix>
</trkpt>
<trkpt lat="-27.2717621" lon="151.290439">
  <ele>362.58</ele>
  <time>2026-09-01T19:58:43Z</time>
  <course>7.76</course>
  <speed>24.83227738247139</speed>
  <fix>3d</fix>
</trkpt>
<trkpt lat="-27.2718025" lon="151.2904329">
  <ele>362.6</ele>
  <time>2026-09-01T19:58:43Z</time>
  <course>7.48</course>
  <speed>24.88</speed>
  <fix>3d</fix>
</trkpt>
<trkpt lat="-27.2717402" lon="151.2904422">
  <ele>362.62</ele>
  <time>2026-09-01T19:58:43Z</time>
  <course>7.78</course>
  <speed>24.801229808217172</speed>
  <fix>3d</fix>
</trkpt>
<trkpt lat="-27.2718025" lon="151.2904329">
  <ele>362.6</ele>
  <time>2026-09-01T19:58:43Z</time>
  <course>7.48</course>
  <speed>24.88</speed>
  <fix>3d</fix>
</trkpt>
<trkpt lat="-27.2717181" lon="151.2904455">
  <ele>362.65</ele>
  <time>2026-09-01T19:58:43Z</time>
  <course>7.77</course>
  <speed>24.731827672050443</speed>
  <fix>3d</fix>
</trkpt>
<trkpt lat="-27.2717582" lon="151.2904394">
  <ele>362.69</ele>
  <time>2026-09-01T19:58:43Z</time>
  <course>7.48</course>
  <speed>24.83</speed>
  <fix>3d</fix>
</trkpt>
<trkpt lat="-27.2716961" lon="151.2904487">
  <ele>362.68</ele>
  <time>2026-09-01T19:58:43Z</time>
  <course>7.78</course>
  <speed>24.61024380212435</speed>
  <fix>3d</fix>
</trkpt>
<trkpt lat="-27.2717582" lon="151.2904394">
  <ele>362.69</ele>
  <time>2026-09-01T19:58:43Z</time>
  <course>7.48</course>
  <speed>24.83</speed>
  <fix>3d</fix>
</trkpt>
<trkpt lat="-27.2716742" lon="151.2904519">
  <ele>362.71</ele>
  <time>2026-09-01T19:58:43Z</time>
  <course>7.77</course>
  <speed>24.417954459782255</speed>
  <fix>3d</fix>
</trkpt>
<trkpt lat="-27.271714" lon="151.290446">
  <ele>362.76</ele>
  <time>2026-09-01T19:58:43Z</time>
  <course>7.48</course>
  <speed>24.71</speed>
  <fix>3d</fix>
</trkpt>
<trkpt lat="-27.2716524" lon="151.2904552">
  <ele>362.75</ele>
  <time>2026-09-01T19:58:43Z</time>
  <course>7.76</course>
  <speed>24.166176776643837</speed>
  <fix>3d</fix>
</trkpt>
<trkpt lat="-27.271714" lon="151.290446">
  <ele>362.76</ele>
  <time>2026-09-01T19:58:44Z</time>
  <course>7.48</course>
  <speed>24.71</speed>
  <fix>3d</fix>
</trkpt>
<trkpt lat="-27.271631" lon="151.2904583">
  <ele>362.8</ele>
  <time>2026-09-01T19:58:44Z</time>
  <course>7.72</course>
  <speed>23.863522372022118</speed>
  <fix>3d</fix>
</trkpt>
<trkpt lat="-27.2716702" lon="151.2904525">
  <ele>362.82</ele>
  <time>2026-09-01T19:58:44Z</time>
  <course>7.48</course>
  <speed>24.4</speed>
  <fix>3d</fix>
</trkpt>
<trkpt lat="-27.2716099" lon="151.2904614">
  <ele>362.85</ele>
  <time>2026-09-01T19:58:44Z</time>
  <course>7.71</course>
  <speed>23.519906462399035</speed>
  <fix>3d</fix>
</trkpt>
<trkpt lat="-27.2716702" lon="151.2904525">
  <ele>362.82</ele>
  <time>2026-09-01T19:58:44Z</time>
  <course>7.48</course>
  <speed>24.4</speed>
  <fix>3d</fix>
</trkpt>
<trkpt lat="-27.2715884" lon="151.2904646">
  <ele>362.92</ele>
  <time>2026-09-01T19:58:44Z</time>
  <course>7.71</course>
  <speed>23.156461301330133</speed>
  <fix>3d</fix>
</trkpt>
<trkpt lat="-27.2716271" lon="151.2904588">
  <ele>362.9</ele>
  <time>2026-09-01T19:58:44Z</time>
  <course>7.47</course>
  <speed>23.86</speed>
  <fix>3d</fix>
</trkpt>
<trkpt lat="-27.2715679" lon="151.2904676">
  <ele>362.99</ele>
  <time>2026-09-01T19:58:44Z</time>
  <course>7.71</course>
  <speed>22.812847257630953</speed>
  <fix>3d</fix>
</trkpt>
<trkpt lat="-27.2716271" lon="151.2904588">
  <ele>362.9</ele>
  <time>2026-09-01T19:58:44Z</time>
  <course>7.47</course>
  <speed>23.86</speed>
  <fix>3d</fix>
</trkpt>
<trkpt lat="-27.2715478" lon="151.2904705">
  <ele>363.05</ele>
  <time>2026-09-01T19:58:44Z</time>
  <course>7.71</course>
  <speed>22.489066232282745</speed>
  <fix>3d</fix>
</trkpt>
<trkpt lat="-27.2715852" lon="151.290465">
  <ele>363.01</ele>
  <time>2026-09-01T19:58:44Z</time>
  <course>7.46</course>
  <speed>23.18</speed>
  <fix>3d</fix>
</trkpt>
<trkpt lat="-27.2715279" lon="151.2904735">
  <ele>363.12</ele>
  <time>2026-09-01T19:58:44Z</time>
  <course>7.71</course>
  <speed>22.156664911488825</speed>
  <fix>3d</fix>
</trkpt>
<trkpt lat="-27.2715852" lon="151.290465">
  <ele>363.01</ele>
  <time>2026-09-01T19:58:44Z</time>
  <course>7.46</course>
  <speed>23.18</speed>
  <fix>3d</fix>
</trkpt>
<trkpt lat="-27.2715083" lon="151.2904763">
  <ele>363.18</ele>
  <time>2026-09-01T19:58:44Z</time>
  <course>7.7</course>
  <speed>21.8428020180562</speed>
  <fix>3d</fix>
</trkpt>
<trkpt lat="-27.2715445" lon="151.290471">
  <ele>363.14</ele>
  <time>2026-09-01T19:58:44Z</time>
  <course>7.44</course>
  <speed>22.5</speed>
  <fix>3d</fix>
</trkpt>
<trkpt lat="-27.2714889" lon="151.2904792">
  <ele>363.24</ele>
  <time>2026-09-01T19:58:44Z</time>
  <course>7.7</course>
  <speed>21.54014856030478</speed>
  <fix>3d</fix>
</trkpt>
<trkpt lat="-27.2715445" lon="151.290471">
  <ele>363.14</ele>
  <time>2026-09-01T19:58:44Z</time>
  <course>7.44</course>
  <speed>22.5</speed>
  <fix>3d</fix>
</trkpt>
<trkpt lat="-27.2714701" lon="151.2904819">
  <ele>363.29</ele>
  <time>2026-09-01T19:58:44Z</time>
  <course>7.69</course>
  <speed>21.247411607064045</speed>
  <fix>3d</fix>
</trkpt>
<trkpt lat="-27.271505" lon="151.2904768">
  <ele>363.27</ele>
  <time>2026-09-01T19:58:44Z</time>
  <course>7.43</course>
  <speed>21.86</speed>
  <fix>3d</fix>
</trkpt>
<trkpt lat="-27.2714513" lon="151.2904847">
  <ele>363.34</ele>
  <time>2026-09-01T19:58:44Z</time>
  <course>7.69</course>
  <speed>20.95467489607033</speed>
  <fix>3d</fix>
</trkpt>
<trkpt lat="-27.271505" lon="151.2904768">
  <ele>363.27</ele>
  <time>2026-09-01T19:58:44Z</time>
  <course>7.43</course>
  <speed>21.86</speed>
  <fix>3d</fix>
</trkpt>
<trkpt lat="-27.2714327" lon="151.2904874">
  <ele>363.39</ele>
  <time>2026-09-01T19:58:44Z</time>
  <course>7.68</course>
  <speed>20.68177216778098</speed>
  <fix>3d</fix>
</trkpt>
<trkpt lat="-27.2714667" lon="151.2904824">
  <ele>363.38</ele>
  <time>2026-09-01T19:58:44Z</time>
  <course>7.42</course>
  <speed>21.25</speed>
  <fix>3d</fix>
</trkpt>
<trkpt lat="-27.2714144" lon="151.2904901">
  <ele>363.43</ele>
  <time>2026-09-01T19:58:44Z</time>
  <course>7.68</course>
  <speed>20.408870620394456</speed>
  <fix>3d</fix>
</trkpt>
<trkpt lat="-27.2714667" lon="151.2904824">
  <ele>363.38</ele>
  <time>2026-09-01T19:58:44Z</time>
  <course>7.42</course>
  <speed>21.25</speed>
  <fix>3d</fix>
</trkpt>
<trkpt lat="-27.2713963" lon="151.2904927">
  <ele>363.47</ele>
  <time>2026-09-01T19:58:44Z</time>
  <course>7.67</course>
  <speed>20.137254033258856</speed>
  <fix>3d</fix>
</trkpt>
<trkpt lat="-27.2714293" lon="151.2904879">
  <ele>363.47</ele>
  <time>2026-09-01T19:58:44Z</time>
  <course>7.41</course>
  <speed>20.67</speed>
  <fix>3d</fix>
</trkpt>
<trkpt lat="-27.2713784" lon="151.2904953">
  <ele>363.51</ele>
  <time>2026-09-01T19:58:44Z</time>
  <course>7.67</course>
  <speed>19.884187184795863</speed>
  <fix>3d</fix>
</trkpt>
<trkpt lat="-27.2714293" lon="151.2904879">
  <ele>363.47</ele>
  <time>2026-09-01T19:58:44Z</time>
  <course>7.41</course>
  <speed>20.67</speed>
  <fix>3d</fix>
</trkpt>
<trkpt lat="-27.2713607" lon="151.2904979">
  <ele>363.54</ele>
  <time>2026-09-01T19:58:44Z</time>
  <course>7.66</course>
  <speed>19.632404335689504</speed>
  <fix>3d</fix>
</trkpt>
<trkpt lat="-27.271393" lon="151.2904932">
  <ele>363.55</ele>
  <time>2026-09-01T19:58:44Z</time>
  <course>7.4</course>
  <speed>20.13</speed>
  <fix>3d</fix>
</trkpt>
<trkpt lat="-27.2713433" lon="151.2905004">
  <ele>363.57</ele>
  <time>2026-09-01T19:58:44Z</time>
  <course>7.65</course>
  <speed>19.389257334926473</speed>
  <fix>3d</fix>
</trkpt>
<trkpt lat="-27.271393" lon="151.2904932">
  <ele>363.55</ele>
  <time>2026-09-01T19:58:44Z</time>
  <course>7.4</course>
  <speed>20.13</speed>
  <fix>3d</fix>
</trkpt>
<trkpt lat="-27.2713262" lon="151.2905029">
  <ele>363.59</ele>
  <time>2026-09-01T19:58:44Z</time>
  <course>7.65</course>
  <speed>19.147391467246916</speed>
  <fix>3d</fix>
</trkpt>
<trkpt lat="-27.2713576" lon="151.2904984">
  <ele>363.61</ele>
  <time>2026-09-01T19:58:44Z</time>
  <course>7.38</course>
  <speed>19.62</speed>
  <fix>3d</fix>
</trkpt>
<trkpt lat="-27.2713092" lon="151.2905054">
  <ele>363.61</ele>
  <time>2026-09-01T19:58:44Z</time>
  <course>7.64</course>
  <speed>18.91544342594167</speed>
  <fix>3d</fix>
</trkpt>
<trkpt lat="-27.2713576" lon="151.2904984">
  <ele>363.61</ele>
  <time>2026-09-01T19:58:44Z</time>
  <course>7.38</course>
  <speed>19.62</speed>
  <fix>3d</fix>
</trkpt>
<trkpt lat="-27.2712924" lon="151.2905078">
  <ele>363.63</ele>
  <time>2026-09-01T19:58:44Z</time>
  <course>7.63</course>
  <speed>18.693413278478598</speed>
  <fix>3d</fix>
</trkpt>
<trkpt lat="-27.2713231" lon="151.2905034">
  <ele>363.66</ele>
  <time>2026-09-01T19:58:44Z</time>
  <course>7.37</course>
  <speed>19.13</speed>
  <fix>3d</fix>
</trkpt>
<trkpt lat="-27.2712758" lon="151.2905102">
  <ele>363.65</ele>
  <time>2026-09-01T19:58:44Z</time>
  <course>7.63</course>
  <speed>18.471383272511023</speed>
  <fix>3d</fix>
</trkpt>
<trkpt lat="-27.2713231" lon="151.2905034">
  <ele>363.66</ele>
  <time>2026-09-01T19:58:44Z</time>
  <course>7.37</course>
  <speed>19.13</speed>
  <fix>3d</fix>
</trkpt>
<trkpt lat="-27.2712593" lon="151.2905126">
  <ele>363.66</ele>
  <time>2026-09-01T19:58:44Z</time>
  <course>7.62</course>
  <speed>18.259271617455063</speed>
  <fix>3d</fix>
</trkpt>
<trkpt lat="-27.2712894" lon="151.2905083">
  <ele>363.69</ele>
  <time>2026-09-01T19:58:44Z</time>
  <course>7.36</course>
  <speed>18.66</speed>
  <fix>3d</fix>
</trkpt>
<trkpt lat="-27.2712431" lon="151.290515">
  <ele>363.66</ele>
  <time>2026-09-01T19:58:44Z</time>
  <course>7.61</course>
  <speed>18.04716044146558</speed>
  <fix>3d</fix>
</trkpt>
<trkpt lat="-27.2712894" lon="151.2905083">
  <ele>363.69</ele>
  <time>2026-09-01T19:58:44Z</time>
  <course>7.36</course>
  <speed>18.66</speed>
  <fix>3d</fix>
</trkpt>
<trkpt lat="-27.271227" lon="151.2905173">
  <ele>363.66</ele>
  <time>2026-09-01T19:58:44Z</time>
  <course>7.61</course>
  <speed>17.844968478537584</speed>
  <fix>3d</fix>
</trkpt>
<trkpt lat="-27.2712564" lon="151.2905131">
  <ele>363.72</ele>
  <time>2026-09-01T19:58:44Z</time>
  <course>7.34</course>
  <speed>18.22</speed>
  <fix>3d</fix>
</trkpt>
<trkpt lat="-27.2712107" lon="151.2905197">
  <ele>363.66</ele>
  <time>2026-09-01T19:58:44Z</time>
  <course>7.6</course>
  <speed>17.6328585317299</speed>
  <fix>3d</fix>
</trkpt>
<trkpt lat="-27.2712564" lon="151.2905131">
  <ele>363.72</ele>
  <time>2026-09-01T19:58:44Z</time>
  <course>7.34</course>
  <speed>18.22</speed>
  <fix>3d</fix>
</trkpt>
<trkpt lat="-27.2711951" lon="151.2905219">
  <ele>363.66</ele>
  <time>2026-09-01T19:58:44Z</time>
  <course>7.59</course>
  <speed>17.441857699224588</speed>
  <fix>3d</fix>
</trkpt>
<trkpt lat="-27.2712243" lon="151.2905177">
  <ele>363.73</ele>
  <time>2026-09-01T19:58:44Z</time>
  <course>7.33</course>
  <speed>17.8</speed>
  <fix>3d</fix>
</trkpt>
<trkpt lat="-27.2711796" lon="151.2905241">
  <ele>363.66</ele>
  <time>2026-09-01T19:58:44Z</time>
  <course>7.58</course>
  <speed>17.249585502266424</speed>
  <fix>3d</fix>
</trkpt>
<trkpt lat="-27.2712243" lon="151.2905177">
  <ele>363.73</ele>
  <time>2026-09-01T19:58:44Z</time>
  <course>7.33</course>
  <speed>17.8</speed>
  <fix>3d</fix>
</trkpt>
<trkpt lat="-27.2711643" lon="151.2905264">
  <ele>363.65</ele>
  <time>2026-09-01T19:58:44Z</time>
  <course>7.58</course>
  <speed>17.067234691068148</speed>
  <fix>3d</fix>
</trkpt>
<trkpt lat="-27.271193" lon="151.2905223">
  <ele>363.73</ele>
  <time>2026-09-01T19:58:44Z</time>
  <course>7.31</course>
  <speed>17.4</speed>
  <fix>3d</fix>
</trkpt>
<trkpt lat="-27.2711492" lon="151.2905285">
  <ele>363.64</ele>
  <time>2026-09-01T19:58:44Z</time>
  <course>7.57</course>
  <speed>16.886151130438222</speed>
  <fix>3d</fix>
</trkpt>
<trkpt lat="-27.271193" lon="151.2905223">
  <ele>363.73</ele>
  <time>2026-09-01T19:58:44Z</time>
  <course>7.31</course>
  <speed>17.4</speed>
  <fix>3d</fix>
</trkpt>
<trkpt lat="-27.2711342" lon="151.2905307">
  <ele>363.63</ele>
  <time>2026-09-01T19:58:44Z</time>
  <course>7.56</course>
  <speed>16.71372190746274</speed>
  <fix>3d</fix>
</trkpt>
<trkpt lat="-27.2711623" lon="151.2905266">
  <ele>363.72</ele>
  <time>2026-09-01T19:58:44Z</time>
  <course>7.29</course>
  <speed>17.02</speed>
  <fix>3d</fix>
</trkpt>
<trkpt lat="-27.2711192" lon="151.2905328">
  <ele>363.62</ele>
  <time>2026-09-01T19:58:44Z</time>
  <course>7.55</course>
  <speed>16.53263741814959</speed>
  <fix>3d</fix>
</trkpt>
<trkpt lat="-27.2711623" lon="151.2905266">
  <ele>363.72</ele>
  <time>2026-09-01T19:58:44Z</time>
  <course>7.29</course>
  <speed>17.02</speed>
  <fix>3d</fix>
</trkpt>
<trkpt lat="-27.2711045" lon="151.290535">
  <ele>363.6</ele>
  <time>2026-09-01T19:58:44Z</time>
  <course>7.54</course>
  <speed>16.371392732446438</speed>
  <fix>3d</fix>
</trkpt>
<trkpt lat="-27.2711323" lon="151.290531">
  <ele>363.69</ele>
  <time>2026-09-01T19:58:44Z</time>
  <course>7.28</course>
  <speed>16.66</speed>
  <fix>3d</fix>
</trkpt>
<trkpt lat="-27.27109" lon="151.290537">
  <ele>363.58</ele>
  <time>2026-09-01T19:58:44Z</time>
  <course>7.54</course>
  <speed>16.19896601638512</speed>
  <fix>3d</fix>
</trkpt>
<trkpt lat="-27.2711323" lon="151.290531">
  <ele>363.69</ele>
  <time>2026-09-01T19:58:44Z</time>
  <course>7.28</course>
  <speed>16.66</speed>
  <fix>3d</fix>
</trkpt>
<trkpt lat="-27.2710756" lon="151.2905391">
  <ele>363.56</ele>
  <time>2026-09-01T19:58:44Z</time>
  <course>7.53</course>
  <speed>16.047641571271463</speed>
  <fix>3d</fix>
</trkpt>
<trkpt lat="-27.2711029" lon="151.2905352">
  <ele>363.66</ele>
  <time>2026-09-01T19:58:44Z</time>
  <course>7.26</course>
  <speed>16.32</speed>
  <fix>3d</fix>
</trkpt>
<trkpt lat="-27.2710614" lon="151.2905411">
  <ele>363.53</ele>
  <time>2026-09-01T19:58:44Z</time>
  <course>7.52</course>
  <speed>15.88639669654513</speed>
  <fix>3d</fix>
</trkpt>
<trkpt lat="-27.2711029" lon="151.2905352">
  <ele>363.66</ele>
  <time>2026-09-01T19:58:44Z</time>
  <course>7.26</course>
  <speed>16.32</speed>
  <fix>3d</fix>
</trkpt>
<trkpt lat="-27.2710473" lon="151.2905431">
  <ele>363.5</ele>
  <time>2026-09-01T19:58:44Z</time>
  <course>7.51</course>
  <speed>15.7350722909048</speed>
  <fix>3d</fix>
</trkpt>
<trkpt lat="-27.2710741" lon="151.2905394">
  <ele>363.62</ele>
  <time>2026-09-01T19:58:44Z</time>
  <course>7.24</course>
  <speed>15.99</speed>
  <fix>3d</fix>
</trkpt>
<trkpt lat="-27.2710334" lon="151.2905451">
  <ele>363.47</ele>
  <time>2026-09-01T19:58:44Z</time>
  <course>7.5</course>
  <speed>15.583747944573538</speed>
  <fix>3d</fix>
</trkpt>
<trkpt lat="-27.2710741" lon="151.2905394">
  <ele>363.62</ele>
  <time>2026-09-01T19:58:44Z</time>
  <course>7.24</course>
  <speed>15.99</speed>
  <fix>3d</fix>
</trkpt>
<trkpt lat="-27.2710199" lon="151.2905471">
  <ele>363.44</ele>
  <time>2026-09-01T19:58:44Z</time>
  <course>7.49</course>
  <speed>15.442344381602167</speed>
  <fix>3d</fix>
</trkpt>
<trkpt lat="-27.2710459" lon="151.2905434">
  <ele>363.57</ele>
  <time>2026-09-01T19:58:44Z</time>
  <course>7.22</course>
  <speed>15.68</speed>
  <fix>3d</fix>
</trkpt>
<trkpt lat="-27.2710063" lon="151.290549">
  <ele>363.4</ele>
  <time>2026-09-01T19:58:44Z</time>
  <course>7.48</course>
  <speed>15.300941147524227</speed>
  <fix>3d</fix>
</trkpt>
<trkpt lat="-27.2710459" lon="151.2905434">
  <ele>363.57</ele>
  <time>2026-09-01T19:58:44Z</time>
  <course>7.22</course>
  <speed>15.68</speed>
  <fix>3d</fix>
</trkpt>
<trkpt lat="-27.2709927" lon="151.2905509">
  <ele>363.37</ele>
  <time>2026-09-01T19:58:44Z</time>
  <course>7.48</course>
  <speed>15.159538251543152</speed>
  <fix>3d</fix>
</trkpt>
<trkpt lat="-27.2710183" lon="151.2905473">
  <ele>363.5</ele>
  <time>2026-09-01T19:58:44Z</time>
  <course>7.2</course>
  <speed>15.39</speed>
  <fix>3d</fix>
</trkpt>
<trkpt lat="-27.2709793" lon="151.2905528">
  <ele>363.32</ele>
  <time>2026-09-01T19:58:44Z</time>
  <course>7.47</course>
  <speed>15.028057093317152</speed>
  <fix>3d</fix>
</trkpt>
<trkpt lat="-27.2710183" lon="151.2905473">
  <ele>363.5</ele>
  <time>2026-09-01T19:58:44Z</time>
  <course>7.2</course>
  <speed>15.39</speed>
  <fix>3d</fix>
</trkpt>
<trkpt lat="-27.270966" lon="151.2905547">
  <ele>363.28</ele>
  <time>2026-09-01T19:58:44Z</time>
  <course>7.46</course>
  <speed>14.896576787973807</speed>
  <fix>3d</fix>
</trkpt>
<trkpt lat="-27.2709911" lon="151.2905511">
  <ele>363.43</ele>
  <time>2026-09-01T19:58:44Z</time>
  <course>7.18</course>
  <speed>15.11</speed>
  <fix>3d</fix>
</trkpt>
<trkpt lat="-27.2709526" lon="151.2905566">
  <ele>363.23</ele>
  <time>2026-09-01T19:58:44Z</time>
  <course>7.45</course>
  <speed>14.766346873888613</speed>
  <fix>3d</fix>
</trkpt>
<trkpt lat="-27.2709911" lon="151.2905511">
  <ele>363.43</ele>
  <time>2026-09-01T19:58:44Z</time>
  <course>7.18</course>
  <speed>15.11</speed>
  <fix>3d</fix>
</trkpt>
<trkpt lat="-27.2709395" lon="151.2905585">
  <ele>363.18</ele>
  <time>2026-09-01T19:58:44Z</time>
  <course>7.44</course>
  <speed>14.644787468584173</speed>
  <fix>3d</fix>
</trkpt>
<trkpt lat="-27.2709643" lon="151.2905549">
  <ele>363.35</ele>
  <time>2026-09-01T19:58:44Z</time>
  <course>7.16</course>
  <speed>14.84</speed>
  <fix>3d</fix>
</trkpt>
<trkpt lat="-27.2709265" lon="151.2905603">
  <ele>363.13</ele>
  <time>2026-09-01T19:58:44Z</time>
  <course>7.43</course>
  <speed>14.523229668362337</speed>
  <fix>3d</fix>
</trkpt>
<trkpt lat="-27.2709643" lon="151.2905549">
  <ele>363.35</ele>
  <time>2026-09-01T19:58:44Z</time>
  <course>7.16</course>
  <speed>14.84</speed>
  <fix>3d</fix>
</trkpt>
<trkpt lat="-27.2709132" lon="151.2905622">
  <ele>363.08</ele>
  <time>2026-09-01T19:58:44Z</time>
  <course>7.43</course>
  <speed>14.401673513866365</speed>
  <fix>3d</fix>
</trkpt>
<trkpt lat="-27.2709381" lon="151.2905587">
  <ele>363.26</ele>
  <time>2026-09-01T19:58:44Z</time>
  <course>7.14</course>
  <speed>14.59</speed>
  <fix>3d</fix>
</trkpt>
<trkpt lat="-27.2709005" lon="151.290564">
  <ele>363.02</ele>
  <time>2026-09-01T19:58:44Z</time>
  <course>7.43</course>
  <speed>14.281361979867327</speed>
  <fix>3d</fix>
</trkpt>
<trkpt lat="-27.2709381" lon="151.2905587">
  <ele>363.26</ele>
  <time>2026-09-01T19:58:44Z</time>
  <course>7.14</course>
  <speed>14.59</speed>
  <fix>3d</fix>
</trkpt>
<trkpt lat="-27.2708878" lon="151.2905658">
  <ele>362.98</ele>
  <time>2026-09-01T19:58:44Z</time>
  <course>7.43</course>
  <speed>14.169728296618816</speed>
  <fix>3d</fix>
</trkpt>
<trkpt lat="-27.2709123" lon="151.2905624">
  <ele>363.15</ele>
  <time>2026-09-01T19:58:44Z</time>
  <course>7.12</course>
  <speed>14.35</speed>
  <fix>3d</fix>
</trkpt>
<trkpt lat="-27.2708752" lon="151.2905676">
  <ele>362.93</ele>
  <time>2026-09-01T19:58:44Z</time>
  <course>7.43</course>
  <speed>14.049416357984413</speed>
  <fix>3d</fix>
</trkpt>
<trkpt lat="-27.2709123" lon="151.2905624">
  <ele>363.15</ele>
  <time>2026-09-01T19:58:44Z</time>
  <course>7.12</course>
  <speed>14.35</speed>
  <fix>3d</fix>
</trkpt>
<trkpt lat="-27.2708627" lon="151.2905693">
  <ele>362.89</ele>
  <time>2026-09-01T19:58:44Z</time>
  <course>7.43</course>
  <speed>13.937783180979679</speed>
  <fix>3d</fix>
</trkpt>
<trkpt lat="-27.2708869" lon="151.2905659">
  <ele>363.06</ele>
  <time>2026-09-01T19:58:44Z</time>
  <course>7.1</course>
  <speed>14.11</speed>
  <fix>3d</fix>
</trkpt>
<trkpt lat="-27.2708502" lon="151.2905711">
  <ele>362.85</ele>
  <time>2026-09-01T19:58:44Z</time>
  <course>7.44</course>
  <speed>13.827393102099904</speed>
  <fix>3d</fix>
</trkpt>
<trkpt lat="-27.2708869" lon="151.2905659">
  <ele>363.06</ele>
  <time>2026-09-01T19:58:44Z</time>
  <course>7.1</course>
  <speed>14.11</speed>
  <fix>3d</fix>
</trkpt>
<trkpt lat="-27.270838" lon="151.2905728">
  <ele>362.81</ele>
  <time>2026-09-01T19:58:44Z</time>
  <course>7.44</course>
  <speed>13.715761006958383</speed>
  <fix>3d</fix>
</trkpt>
<trkpt lat="-27.270862" lon="151.2905694">
  <ele>362.97</ele>
  <time>2026-09-01T19:58:44Z</time>
  <course>7.09</course>
  <speed>13.88</speed>
  <fix>3d</fix>
</trkpt>
<trkpt lat="-27.2708258" lon="151.2905745">
  <ele>362.77</ele>
  <time>2026-09-01T19:58:44Z</time>
  <course>7.44</course>
  <speed>13.60537026324532</speed>
  <fix>3d</fix>
</trkpt>
<trkpt lat="-27.270862" lon="151.2905694">
  <ele>362.97</ele>
  <time>2026-09-01T19:58:44Z</time>
  <course>7.09</course>
  <speed>13.88</speed>
  <fix>3d</fix>
</trkpt>
<trkpt lat="-27.2708137" lon="151.2905762">
  <ele>362.74</ele>
  <time>2026-09-01T19:58:44Z</time>
  <course>7.45</course>
  <speed>13.493739289018444</speed>
  <fix>3d</fix>
</trkpt>
<trkpt lat="-27.2708374" lon="151.2905728">
  <ele>362.89</ele>
  <time>2026-09-01T19:58:44Z</time>
  <course>7.07</course>
  <speed>13.66</speed>
  <fix>3d</fix>
</trkpt>
<trkpt lat="-27.2708017" lon="151.2905779">
  <ele>362.71</ele>
  <time>2026-09-01T19:58:44Z</time>
  <course>7.45</course>
  <speed>13.383347862175592</speed>
  <fix>3d</fix>
</trkpt>
<trkpt lat="-27.2708374" lon="151.2905728">
  <ele>362.89</ele>
  <time>2026-09-01T19:58:44Z</time>
  <course>7.07</course>
  <speed>13.66</speed>
  <fix>3d</fix>
</trkpt>
<trkpt lat="-27.2707899" lon="151.2905795">
  <ele>362.68</ele>
  <time>2026-09-01T19:58:44Z</time>
  <course>7.46</course>
  <speed>13.272957469983846</speed>
  <fix>3d</fix>
</trkpt>
<trkpt lat="-27.2708133" lon="151.2905762">
  <ele>362.83</ele>
  <time>2026-09-01T19:58:44Z</time>
  <course>7.06</course>
  <speed>13.44</speed>
  <fix>3d</fix>
</trkpt>
<trkpt lat="-27.2707781" lon="151.2905812">
  <ele>362.66</ele>
  <time>2026-09-01T19:58:44Z</time>
  <course>7.46</course>
  <speed>13.1613259210461</speed>
  <fix>3d</fix>
</trkpt>
<trkpt lat="-27.2708133" lon="151.2905762">
  <ele>362.83</ele>
  <time>2026-09-01T19:58:44Z</time>
  <course>7.06</course>
  <speed>13.44</speed>
  <fix>3d</fix>
</trkpt>
<trkpt lat="-27.2707664" lon="151.2905828">
  <ele>362.64</ele>
  <time>2026-09-01T19:58:44Z</time>
  <course>7.47</course>
  <speed>13.050934832417179</speed>
  <fix>3d</fix>
</trkpt>
<trkpt lat="-27.2707895" lon="151.2905795">
  <ele>362.77</ele>
  <time>2026-09-01T19:58:44Z</time>
  <course>7.04</course>
  <speed>13.22</speed>
  <fix>3d</fix>
</trkpt>
<trkpt lat="-27.2707549" lon="151.2905844">
  <ele>362.62</ele>
  <time>2026-09-01T19:58:44Z</time>
  <course>7.47</course>
  <speed>12.939304463532805</speed>
  <fix>3d</fix>
</trkpt>
<trkpt lat="-27.2707895" lon="151.2905795">
  <ele>362.77</ele>
  <time>2026-09-01T19:58:44Z</time>
  <course>7.04</course>
  <speed>13.22</speed>
  <fix>3d</fix>
</trkpt>
<trkpt lat="-27.2707434" lon="151.290586">
  <ele>362.6</ele>
  <time>2026-09-01T19:58:44Z</time>
  <course>7.48</course>
  <speed>12.838835616986458</speed>
  <fix>3d</fix>
</trkpt>
<trkpt lat="-27.2707661" lon="151.2905827">
  <ele>362.72</ele>
  <time>2026-09-01T19:58:44Z</time>
  <course>7.03</course>
  <speed>13.0</speed>
  <fix>3d</fix>
</trkpt>
<trkpt lat="-27.270732" lon="151.2905876">
  <ele>362.59</ele>
  <time>2026-09-01T19:58:44Z</time>
  <course>7.48</course>
  <speed>12.728444523978569</speed>
  <fix>3d</fix>
</trkpt>
<trkpt lat="-27.2707661" lon="151.2905827">
  <ele>362.72</ele>
  <time>2026-09-01T19:58:44Z</time>
  <course>7.03</course>
  <speed>13.0</speed>
  <fix>3d</fix>
</trkpt>
<trkpt lat="-27.2707207" lon="151.2905892">
  <ele>362.58</ele>
  <time>2026-09-01T19:58:44Z</time>
  <course>7.49</course>
  <speed>12.616814177913536</speed>
  <fix>3d</fix>
</trkpt>
<trkpt lat="-27.2707432" lon="151.290586">
  <ele>362.69</ele>
  <time>2026-09-01T19:58:44Z</time>
  <course>7.03</course>
  <speed>12.79</speed>
  <fix>3d</fix>
</trkpt>
<trkpt lat="-27.2707096" lon="151.2905907">
  <ele>362.57</ele>
  <time>2026-09-01T19:58:44Z</time>
  <course>7.49</course>
  <speed>12.516345313229417</speed>
  <fix>3d</fix>
</trkpt>
<trkpt lat="-27.2707432" lon="151.290586">
  <ele>362.69</ele>
  <time>2026-09-01T19:58:44Z</time>
  <course>7.03</course>
  <speed>12.79</speed>
  <fix>3d</fix>
</trkpt>
<trkpt lat="-27.2706985" lon="151.2905923">
  <ele>362.56</ele>
  <time>2026-09-01T19:58:44Z</time>
  <course>7.5</course>
  <speed>12.415876932379767</speed>
  <fix>3d</fix>
</trkpt>
<trkpt lat="-27.2707205" lon="151.2905891">
  <ele>362.66</ele>
  <time>2026-09-01T19:58:44Z</time>
  <course>7.02</course>
  <speed>12.58</speed>
  <fix>3d</fix>
</trkpt>
<trkpt lat="-27.2706875" lon="151.2905938">
  <ele>362.56</ele>
  <time>2026-09-01T19:58:44Z</time>
  <course>7.5</course>
  <speed>12.314170698833113</speed>
  <fix>3d</fix>
</trkpt>
<trkpt lat="-27.2707205" lon="151.2905891">
  <ele>362.66</ele>
  <time>2026-09-01T19:58:44Z</time>
  <course>7.02</course>
  <speed>12.58</speed>
  <fix>3d</fix>
</trkpt>
<trkpt lat="-27.2706768" lon="151.2905953">
  <ele>362.56</ele>
  <time>2026-09-01T19:58:44Z</time>
  <course>7.51</course>
  <speed>12.213701322694936</speed>
  <fix>3d</fix>
</trkpt>
<trkpt lat="-27.2706982" lon="151.2905922">
  <ele>362.65</ele>
  <time>2026-09-01T19:58:44Z</time>
  <course>7.01</course>
  <speed>12.38</speed>
  <fix>3d</fix>
</trkpt>
<trkpt lat="-27.2706656" lon="151.2905968">
  <ele>362.55</ele>
  <time>2026-09-01T19:58:44Z</time>
  <course>7.51</course>
  <speed>12.113232433995476</speed>
  <fix>3d</fix>
</trkpt>
<trkpt lat="-27.2706982" lon="151.2905922">
  <ele>362.65</ele>
  <time>2026-09-01T19:58:44Z</time>
  <course>7.01</course>
  <speed>12.38</speed>
  <fix>3d</fix>
</trkpt>
<trkpt lat="-27.2706551" lon="151.2905983">
  <ele>362.56</ele>
  <time>2026-09-01T19:58:44Z</time>
  <course>7.52</course>
  <speed>12.012764044964838</speed>
  <fix>3d</fix>
</trkpt>
<trkpt lat="-27.2706763" lon="151.2905951">
  <ele>362.65</ele>
  <time>2026-09-01T19:58:44Z</time>
  <course>7.01</course>
  <speed>12.18</speed>
  <fix>3d</fix>
</trkpt>
<trkpt lat="-27.2706444" lon="151.2905998">
  <ele>362.56</ele>
  <time>2026-09-01T19:58:44Z</time>
  <course>7.52</course>
  <speed>11.911057887526196</speed>
  <fix>3d</fix>
</trkpt>
<trkpt lat="-27.2706763" lon="151.2905951">
  <ele>362.65</ele>
  <time>2026-09-01T19:58:44Z</time>
  <course>7.01</course>
  <speed>12.18</speed>
  <fix>3d</fix>
</trkpt>
<trkpt lat="-27.270634" lon="151.2906012">
  <ele>362.57</ele>
  <time>2026-09-01T19:58:44Z</time>
  <course>7.53</course>
  <speed>11.810588469674151</speed>
  <fix>3d</fix>
</trkpt>
<trkpt lat="-27.2706547" lon="151.2905981">
  <ele>362.65</ele>
  <time>2026-09-01T19:58:44Z</time>
  <course>7.0</course>
  <speed>11.98</speed>
  <fix>3d</fix>
</trkpt>
<trkpt lat="-27.2706235" lon="151.2906027">
  <ele>362.57</ele>
  <time>2026-09-01T19:58:44Z</time>
  <course>7.53</course>
  <speed>11.720042662038393</speed>
  <fix>3d</fix>
</trkpt>
<trkpt lat="-27.2706547" lon="151.2905981">
  <ele>362.65</ele>
  <time>2026-09-01T19:58:44Z</time>
  <course>7.0</course>
  <speed>11.98</speed>
  <fix>3d</fix>
</trkpt>
<trkpt lat="-27.2706131" lon="151.2906041">
  <ele>362.58</ele>
  <time>2026-09-01T19:58:44Z</time>
  <course>7.54</course>
  <speed>11.619574002518336</speed>
  <fix>3d</fix>
</trkpt>
<trkpt lat="-27.2706335" lon="151.2906011">
  <ele>362.65</ele>
  <time>2026-09-01T19:58:44Z</time>
  <course>7.0</course>
  <speed>11.8</speed>
  <fix>3d</fix>
</trkpt>
<trkpt lat="-27.2706029" lon="151.2906055">
  <ele>362.58</ele>
  <time>2026-09-01T19:58:44Z</time>
  <course>7.54</course>
  <speed>11.529028580066926</speed>
  <fix>3d</fix>
</trkpt>
<trkpt lat="-27.2706335" lon="151.2906011">
  <ele>362.65</ele>
  <time>2026-09-01T19:58:44Z</time>
  <course>7.0</course>
  <speed>11.8</speed>
  <fix>3d</fix>
</trkpt>
<trkpt lat="-27.2705927" lon="151.2906069">
  <ele>362.59</ele>
  <time>2026-09-01T19:58:44Z</time>
  <course>7.54</course>
  <speed>11.427322521045776</speed>
  <fix>3d</fix>
</trkpt>
<trkpt lat="-27.2706126" lon="151.290604">
  <ele>362.66</ele>
  <time>2026-09-01T19:58:44Z</time>
  <course>6.99</course>
  <speed>11.61</speed>
  <fix>3d</fix>
</trkpt>
<trkpt lat="-27.2705826" lon="151.2906083">
  <ele>362.59</ele>
  <time>2026-09-01T19:58:44Z</time>
  <course>7.55</course>
  <speed>11.346699960781548</speed>
  <fix>3d</fix>
</trkpt>
<trkpt lat="-27.2706126" lon="151.290604">
  <ele>362.66</ele>
  <time>2026-09-01T19:58:44Z</time>
  <course>6.99</course>
  <speed>11.61</speed>
  <fix>3d</fix>
</trkpt>
<trkpt lat="-27.2705726" lon="151.2906097">
  <ele>362.6</ele>
  <time>2026-09-01T19:58:44Z</time>
  <course>7.55</course>
  <speed>11.256153872437956</speed>
  <fix>3d</fix>
</trkpt>
<trkpt lat="-27.2705921" lon="151.2906069">
  <ele>362.68</ele>
  <time>2026-09-01T19:58:44Z</time>
  <course>6.99</course>
  <speed>11.44</speed>
  <fix>3d</fix>
</trkpt>
<trkpt lat="-27.2705626" lon="151.2906111">
  <ele>362.61</ele>
  <time>2026-09-01T19:58:44Z</time>
  <course>7.56</course>
  <speed>11.165607910006512</speed>
  <fix>3d</fix>
</trkpt>
<trkpt lat="-27.2705921" lon="151.2906069">
  <ele>362.68</ele>
  <time>2026-09-01T19:58:44Z</time>
  <course>6.99</course>
  <speed>11.44</speed>
  <fix>3d</fix>
</trkpt>
<trkpt lat="-27.2705527" lon="151.2906124">
  <ele>362.61</ele>
  <time>2026-09-01T19:58:44Z</time>
  <course>7.56</course>
  <speed>11.0849853405406</speed>
  <fix>3d</fix>
</trkpt>
<trkpt lat="-27.2705719" lon="151.2906096">
  <ele>362.7</ele>
  <time>2026-09-01T19:58:44Z</time>
  <course>6.99</course>
  <speed>11.27</speed>
  <fix>3d</fix>
</trkpt>
<trkpt lat="-27.2705429" lon="151.2906138">
  <ele>362.62</ele>
  <time>2026-09-01T19:58:44Z</time>
  <course>7.57</course>
  <speed>10.994439503676393</speed>
  <fix>3d</fix>
</trkpt>
<trkpt lat="-27.2705719" lon="151.2906096">
  <ele>362.7</ele>
  <time>2026-09-01T19:58:44Z</time>
  <course>6.99</course>
  <speed>11.27</speed>
  <fix>3d</fix>
</trkpt>
<trkpt lat="-27.2705332" lon="151.2906151">
  <ele>362.63</ele>
  <time>2026-09-01T19:58:44Z</time>
  <course>7.57</course>
  <speed>10.913816930845046</speed>
  <fix>3d</fix>
</trkpt>
<trkpt lat="-27.270552" lon="151.2906123">
  <ele>362.71</ele>
  <time>2026-09-01T19:58:44Z</time>
  <course>6.99</course>
  <speed>11.1</speed>
  <fix>3d</fix>
</trkpt>
<trkpt lat="-27.2705235" lon="151.2906165">
  <ele>362.64</ele>
  <time>2026-09-01T19:58:44Z</time>
  <course>7.57</course>
  <speed>10.833194358082938</speed>
  <fix>3d</fix>
</trkpt>
<trkpt lat="-27.270552" lon="151.2906123">
  <ele>362.71</ele>
  <time>2026-09-01T19:58:44Z</time>
  <course>6.99</course>
  <speed>11.1</speed>
  <fix>3d</fix>
</trkpt>
<trkpt lat="-27.2705139" lon="151.2906178">
  <ele>362.65</ele>
  <time>2026-09-01T19:58:44Z</time>
  <course>7.58</course>
  <speed>10.752571785391623</speed>
  <fix>3d</fix>
</trkpt>
<trkpt lat="-27.2705323" lon="151.2906151">
  <ele>362.72</ele>
  <time>2026-09-01T19:58:44Z</time>
  <course>6.99</course>
  <speed>10.94</speed>
  <fix>3d</fix>
</trkpt>
<trkpt lat="-27.2705043" lon="151.2906191">
  <ele>362.66</ele>
  <time>2026-09-01T19:58:44Z</time>
  <course>7.58</course>
  <speed>10.681872495026328</speed>
  <fix>3d</fix>
</trkpt>
<trkpt lat="-27.2705323" lon="151.2906151">
  <ele>362.72</ele>
  <time>2026-09-01T19:58:44Z</time>
  <course>6.99</course>
  <speed>10.94</speed>
  <fix>3d</fix>
</trkpt>
<trkpt lat="-27.2704948" lon="151.2906204">
  <ele>362.67</ele>
  <time>2026-09-01T19:58:44Z</time>
  <course>7.59</course>
  <speed>10.60124992630586</speed>
  <fix>3d</fix>
</trkpt>
<trkpt lat="-27.2705129" lon="151.2906178">
  <ele>362.75</ele>
  <time>2026-09-01T19:58:44Z</time>
  <course>6.99</course>
  <speed>10.78</speed>
  <fix>3d</fix>
</trkpt>
<trkpt lat="-27.2704854" lon="151.2906218">
  <ele>362.68</ele>
  <time>2026-09-01T19:58:44Z</time>
  <course>7.59</course>
  <speed>10.530550792812312</speed>
  <fix>3d</fix>
</trkpt>
<trkpt lat="-27.2705129" lon="151.2906178">
  <ele>362.75</ele>
  <time>2026-09-01T19:58:44Z</time>
  <course>6.99</course>
  <speed>10.78</speed>
  <fix>3d</fix>
</trkpt>
<trkpt lat="-27.2704761" lon="151.290623">
  <ele>362.68</ele>
  <time>2026-09-01T19:58:44Z</time>
  <course>7.6</course>
  <speed>10.451167398908124</speed>
  <fix>3d</fix>
</trkpt>
<trkpt lat="-27.2704937" lon="151.2906204">
  <ele>362.76</ele>
  <time>2026-09-01T19:58:44Z</time>
  <course>6.99</course>
  <speed>10.63</speed>
  <fix>3d</fix>
</trkpt>
<trkpt lat="-27.2704668" lon="151.2906243">
  <ele>362.69</ele>
  <time>2026-09-01T19:58:44Z</time>
  <course>7.6</course>
  <speed>10.38046723418556</speed>
  <fix>3d</fix>
</trkpt>
<trkpt lat="-27.2704937" lon="151.2906204">
  <ele>362.76</ele>
  <time>2026-09-01T19:58:44Z</time>
  <course>6.99</course>
  <speed>10.63</speed>
  <fix>3d</fix>
</trkpt>
<trkpt lat="-27.2704575" lon="151.2906256">
  <ele>362.7</ele>
  <time>2026-09-01T19:58:44Z</time>
  <course>7.6</course>
  <speed>10.309767213666852</speed>
  <fix>3d</fix>
</trkpt>
<trkpt lat="-27.2704749" lon="151.290623">
  <ele>362.77</ele>
  <time>2026-09-01T19:58:44Z</time>
  <course>6.99</course>
  <speed>10.49</speed>
  <fix>3d</fix>
</trkpt>
<trkpt lat="-27.2704483" lon="151.2906269">
  <ele>362.7</ele>
  <time>2026-09-01T19:58:44Z</time>
  <course>7.61</course>
  <speed>10.239067340339158</speed>
  <fix>3d</fix>
</trkpt>
<trkpt lat="-27.2704749" lon="151.290623">
  <ele>362.77</ele>
  <time>2026-09-01T19:58:44Z</time>
  <course>6.99</course>
  <speed>10.49</speed>
  <fix>3d</fix>
</trkpt>
<trkpt lat="-27.2704392" lon="151.2906281">
  <ele>362.71</ele>
  <time>2026-09-01T19:58:44Z</time>
  <course>7.61</course>
  <speed>10.168367617272697</speed>
  <fix>3d</fix>
</trkpt>
<trkpt lat="-27.2704563" lon="151.2906256">
  <ele>362.78</ele>
  <time>2026-09-01T19:58:44Z</time>
  <course>6.99</course>
  <speed>10.34</speed>
  <fix>3d</fix>
</trkpt>
<trkpt lat="-27.2704302" lon="151.2906294">
  <ele>362.71</ele>
  <time>2026-09-01T19:58:44Z</time>
  <course>7.61</course>
  <speed>10.097668047623669</speed>
  <fix>3d</fix>
</trkpt>
<trkpt lat="-27.2704563" lon="151.2906256">
  <ele>362.78</ele>
  <time>2026-09-01T19:58:44Z</time>
  <course>6.99</course>
  <speed>10.34</speed>
  <fix>3d</fix>
</trkpt>
<trkpt lat="-27.2704211" lon="151.2906306">
  <ele>362.72</ele>
  <time>2026-09-01T19:58:44Z</time>
  <course>7.62</course>
  <speed>10.036891949204197</speed>
  <fix>3d</fix>
</trkpt>
<trkpt lat="-27.270438" lon="151.2906281">
  <ele>362.79</ele>
  <time>2026-09-01T19:58:44Z</time>
  <course>7.0</course>
  <speed>10.21</speed>
  <fix>3d</fix>
</trkpt>
<trkpt lat="-27.2704123" lon="151.2906319">
  <ele>362.72</ele>
  <time>2026-09-01T19:58:44Z</time>
  <course>7.62</course>
  <speed>9.967431966158586</speed>
  <fix>3d</fix>
</trkpt>
<trkpt lat="-27.270438" lon="151.2906281">
  <ele>362.79</ele>
  <time>2026-09-01T19:58:44Z</time>
  <course>7.0</course>
  <speed>10.21</speed>
  <fix>3d</fix>
</trkpt>
<trkpt lat="-27.2704032" lon="151.2906331">
  <ele>362.73</ele>
  <time>2026-09-01T19:58:44Z</time>
  <course>7.63</course>
  <speed>9.906654329287965</speed>
  <fix>3d</fix>
</trkpt>
<trkpt lat="-27.2704199" lon="151.2906306">
  <ele>362.8</ele>
  <time>2026-09-01T19:58:44Z</time>
  <course>7.0</course>
  <speed>10.07</speed>
  <fix>3d</fix>
</trkpt>
<trkpt lat="-27.2703944" lon="151.2906343">
  <ele>362.73</ele>
  <time>2026-09-01T19:58:44Z</time>
  <course>7.64</course>
  <speed>9.845877309818562</speed>
  <fix>3d</fix>
</trkpt>
<trkpt lat="-27.2704199" lon="151.2906306">
  <ele>362.8</ele>
  <time>2026-09-01T19:58:44Z</time>
  <course>7.0</course>
  <speed>10.07</speed>
  <fix>3d</fix>
</trkpt>
<trkpt lat="-27.2703856" lon="151.2906355">
  <ele>362.74</ele>
  <time>2026-09-01T19:58:44Z</time>
  <course>7.64</course>
  <speed>9.77517774774454</speed>
  <fix>3d</fix>
</trkpt>
<trkpt lat="-27.2704021" lon="151.290633">
  <ele>362.81</ele>
  <time>2026-09-01T19:58:44Z</time>
  <course>7.0</course>
  <speed>9.94</speed>
  <fix>3d</fix>
</trkpt>
<trkpt lat="-27.2703769" lon="151.2906367">
  <ele>362.74</ele>
  <time>2026-09-01T19:58:44Z</time>
  <course>7.64</course>
  <speed>9.715642027164236</speed>
  <fix>3d</fix>
</trkpt>
<trkpt lat="-27.2704021" lon="151.290633">
  <ele>362.81</ele>
  <time>2026-09-01T19:58:44Z</time>
  <course>7.0</course>
  <speed>9.94</speed>
  <fix>3d</fix>
</trkpt>
<trkpt lat="-27.2703682" lon="151.2906379">
  <ele>362.74</ele>
  <time>2026-09-01T19:58:44Z</time>
  <course>7.65</course>
  <speed>9.654864059115488</speed>
  <fix>3d</fix>
</trkpt>
<trkpt lat="-27.2703845" lon="151.2906355">
  <ele>362.82</ele>
  <time>2026-09-01T19:58:44Z</time>
  <course>7.01</course>
  <speed>9.82</speed>
  <fix>3d</fix>
</trkpt>
<trkpt lat="-27.2703596" lon="151.2906391">
  <ele>362.75</ele>
  <time>2026-09-01T19:58:44Z</time>
  <course>7.65</course>
  <speed>9.594086720475273</speed>
  <fix>3d</fix>
</trkpt>
<trkpt lat="-27.2703845" lon="151.2906355">
  <ele>362.82</ele>
  <time>2026-09-01T19:58:44Z</time>
  <course>7.01</course>
  <speed>9.82</speed>
  <fix>3d</fix>
</trkpt>
<trkpt lat="-27.2703511" lon="151.2906403">
  <ele>362.75</ele>
  <time>2026-09-01T19:58:44Z</time>
  <course>7.66</course>
  <speed>9.533310023281524</speed>
  <fix>3d</fix>
</trkpt>
<trkpt lat="-27.2703671" lon="151.290638">
  <ele>362.82</ele>
  <time>2026-09-01T19:58:44Z</time>
  <course>7.01</course>
  <speed>9.69</speed>
  <fix>3d</fix>
</trkpt>
<trkpt lat="-27.2703426" lon="151.2906415">
  <ele>362.75</ele>
  <time>2026-09-01T19:58:44Z</time>
  <course>7.66</course>
  <speed>9.473774327056773</speed>
  <fix>3d</fix>
</trkpt>
<trkpt lat="-27.2703671" lon="151.290638">
  <ele>362.82</ele>
  <time>2026-09-01T19:58:44Z</time>
  <course>7.01</course>
  <speed>9.69</speed>
  <fix>3d</fix>
</trkpt>
<trkpt lat="-27.2703341" lon="151.2906427">
  <ele>362.75</ele>
  <time>2026-09-01T19:58:44Z</time>
  <course>7.67</course>
  <speed>9.42291886837619</speed>
  <fix>3d</fix>
</trkpt>
<trkpt lat="-27.2703499" lon="151.2906403">
  <ele>362.83</ele>
  <time>2026-09-01T19:58:44Z</time>
  <course>7.02</course>
  <speed>9.58</speed>
  <fix>3d</fix>
</trkpt>
<trkpt lat="-27.2703257" lon="151.2906438">
  <ele>362.75</ele>
  <time>2026-09-01T19:58:44Z</time>
  <course>7.67</course>
  <speed>9.362141848957428</speed>
  <fix>3d</fix>
</trkpt>
<trkpt lat="-27.2703499" lon="151.2906403">
  <ele>362.83</ele>
  <time>2026-09-01T19:58:44Z</time>
  <course>7.02</course>
  <speed>9.58</speed>
  <fix>3d</fix>
</trkpt>
<trkpt lat="-27.2703174" lon="151.290645">
  <ele>362.75</ele>
  <time>2026-09-01T19:58:44Z</time>
  <course>7.67</course>
  <speed>9.302607161435981</speed>
  <fix>3d</fix>
</trkpt>
<trkpt lat="-27.2703329" lon="151.2906426">
  <ele>362.83</ele>
  <time>2026-09-01T19:58:44Z</time>
  <course>7.02</course>
  <speed>9.46</speed>
  <fix>3d</fix>
</trkpt>
<trkpt lat="-27.2703091" lon="151.2906461">
  <ele>362.75</ele>
  <time>2026-09-01T19:58:44Z</time>
  <course>7.68</course>
  <speed>9.251751185586436</speed>
  <fix>3d</fix>
</trkpt>
<trkpt lat="-27.2703329" lon="151.2906426">
  <ele>362.83</ele>
  <time>2026-09-01T19:58:44Z</time>
  <course>7.02</course>
  <speed>9.46</speed>
  <fix>3d</fix>
</trkpt>
<trkpt lat="-27.2703008" lon="151.2906473">
  <ele>362.75</ele>
  <time>2026-09-01T19:58:44Z</time>
  <course>7.68</course>
  <speed>9.200896695431375</speed>
  <fix>3d</fix>
</trkpt>
<trkpt lat="-27.2703161" lon="151.290645">
  <ele>362.83</ele>
  <time>2026-09-01T19:58:44Z</time>
  <course>7.02</course>
  <speed>9.35</speed>
  <fix>3d</fix>
</trkpt>
<trkpt lat="-27.2702926" lon="151.2906484">
  <ele>362.75</ele>
  <time>2026-09-01T19:58:44Z</time>
  <course>7.68</course>
  <speed>9.141362042934302</speed>
  <fix>3d</fix>
</trkpt>
<trkpt lat="-27.2703161" lon="151.290645">
  <ele>362.83</ele>
  <time>2026-09-01T19:58:44Z</time>
  <course>7.02</course>
  <speed>9.35</speed>
  <fix>3d</fix>
</trkpt>
<trkpt lat="-27.2702844" lon="151.2906495">
  <ele>362.75</ele>
  <time>2026-09-01T19:58:44Z</time>
  <course>7.69</course>
  <speed>9.090506036519638</speed>
  <fix>3d</fix>
</trkpt>
<trkpt lat="-27.2702995" lon="151.2906473">
  <ele>362.82</ele>
  <time>2026-09-01T19:58:44Z</time>
  <course>7.02</course>
  <speed>9.24</speed>
  <fix>3d</fix>
</trkpt>
<trkpt lat="-27.2702763" lon="151.2906507">
  <ele>362.75</ele>
  <time>2026-09-01T19:58:44Z</time>
  <course>7.69</course>
  <speed>9.039651541956692</speed>
  <fix>3d</fix>
</trkpt>
<trkpt lat="-27.2702995" lon="151.2906473">
  <ele>362.82</ele>
  <time>2026-09-01T19:58:44Z</time>
  <course>7.02</course>
  <speed>9.24</speed>
  <fix>3d</fix>
</trkpt>
<trkpt lat="-27.2702682" lon="151.2906518">
  <ele>362.75</ele>
  <time>2026-09-01T19:58:44Z</time>
  <course>7.7</course>
  <speed>8.99003893206253</speed>
  <fix>3d</fix>
</trkpt>
<trkpt lat="-27.2702831" lon="151.2906496">
  <ele>362.82</ele>
  <time>2026-09-01T19:58:44Z</time>
  <course>7.02</course>
  <speed>9.13</speed>
  <fix>3d</fix>
</trkpt>
<trkpt lat="-27.2702602" lon="151.2906529">
  <ele>362.74</ele>
  <time>2026-09-01T19:58:44Z</time>
  <course>7.7</course>
  <speed>8.939183407895824</speed>
  <fix>3d</fix>
</trkpt>
<trkpt lat="-27.2702831" lon="151.2906496">
  <ele>362.82</ele>
  <time>2026-09-01T19:58:44Z</time>
  <course>7.02</course>
  <speed>9.13</speed>
  <fix>3d</fix>
</trkpt>
<trkpt lat="-27.2702522" lon="151.290654">
  <ele>362.74</ele>
  <time>2026-09-01T19:58:44Z</time>
  <course>7.7</course>
  <speed>8.889572543154141</speed>
  <fix>3d</fix>
</trkpt>
<trkpt lat="-27.2702669" lon="151.2906518">
  <ele>362.82</ele>
  <time>2026-09-01T19:58:44Z</time>
  <course>7.03</course>
  <speed>9.02</speed>
  <fix>3d</fix>
</trkpt>
<trkpt lat="-27.2702443" lon="151.2906551">
  <ele>362.74</ele>
  <time>2026-09-01T19:58:44Z</time>
  <course>7.71</course>
  <speed>8.838715970094299</speed>
  <fix>3d</fix>
</trkpt>
<trkpt lat="-27.2702669" lon="151.2906518">
  <ele>362.82</ele>
  <time>2026-09-01T19:58:44Z</time>
  <course>7.03</course>
  <speed>9.02</speed>
  <fix>3d</fix>
</trkpt>
<trkpt lat="-27.2702364" lon="151.2906562">
  <ele>362.74</ele>
  <time>2026-09-01T19:58:44Z</time>
  <course>7.71</course>
  <speed>8.78786094564542</speed>
  <fix>3d</fix>
</trkpt>
<trkpt lat="-27.2702509" lon="151.290654">
  <ele>362.82</ele>
  <time>2026-09-01T19:58:44Z</time>
  <course>7.03</course>
  <speed>8.92</speed>
  <fix>3d</fix>
</trkpt>
<trkpt lat="-27.2702286" lon="151.2906573">
  <ele>362.73</ele>
  <time>2026-09-01T19:58:44Z</time>
  <course>7.72</course>
  <speed>8.738249252567702</speed>
  <fix>3d</fix>
</trkpt>
<trkpt lat="-27.2702509" lon="151.290654">
  <ele>362.82</ele>
  <time>2026-09-01T19:58:44Z</time>
  <course>7.03</course>
  <speed>8.92</speed>
  <fix>3d</fix>
</trkpt>
<trkpt lat="-27.2702207" lon="151.2906584">
  <ele>362.73</ele>
  <time>2026-09-01T19:58:44Z</time>
  <course>7.72</course>
  <speed>8.68739316481072</speed>
  <fix>3d</fix>
</trkpt>
<trkpt lat="-27.2702351" lon="151.2906562">
  <ele>362.82</ele>
  <time>2026-09-01T19:58:44Z</time>
  <course>7.04</course>
  <speed>8.82</speed>
  <fix>3d</fix>
</trkpt>
<trkpt lat="-27.270213" lon="151.2906595">
  <ele>362.73</ele>
  <time>2026-09-01T19:58:44Z</time>
  <course>7.73</course>
  <speed>8.64770489783272</speed>
  <fix>3d</fix>
</trkpt>
<trkpt lat="-27.2702351" lon="151.2906562">
  <ele>362.82</ele>
  <time>2026-09-01T19:58:44Z</time>
  <course>7.04</course>
  <speed>8.82</speed>
  <fix>3d</fix>
</trkpt>
<trkpt lat="-27.2702052" lon="151.2906605">
  <ele>362.73</ele>
  <time>2026-09-01T19:58:44Z</time>
  <course>7.73</course>
  <speed>8.59684825968215</speed>
  <fix>3d</fix>
</trkpt>
<trkpt lat="-27.2702194" lon="151.2906583">
  <ele>362.82</ele>
  <time>2026-09-01T19:58:44Z</time>
  <course>7.04</course>
  <speed>8.72</speed>
  <fix>3d</fix>
</trkpt>
<trkpt lat="-27.2701975" lon="151.2906616">
  <ele>362.74</ele>
  <time>2026-09-01T19:58:44Z</time>
  <course>7.74</course>
  <speed>8.547239320388776</speed>
  <fix>3d</fix>
</trkpt>
<trkpt lat="-27.2702194" lon="151.2906583">
  <ele>362.82</ele>
  <time>2026-09-01T19:58:44Z</time>
  <course>7.04</course>
  <speed>8.72</speed>
  <fix>3d</fix>
</trkpt>
<trkpt lat="-27.2701898" lon="151.2906627">
  <ele>362.73</ele>
  <time>2026-09-01T19:58:44Z</time>
  <course>7.74</course>
  <speed>8.506303545018834</speed>
  <fix>3d</fix>
</trkpt>
<trkpt lat="-27.270204" lon="151.2906606">
  <ele>362.82</ele>
  <time>2026-09-01T19:58:44Z</time>
  <course>7.05</course>
  <speed>8.63</speed>
  <fix>3d</fix>
</trkpt>
<trkpt lat="-27.2701822" lon="151.2906637">
  <ele>362.73</ele>
  <time>2026-09-01T19:58:44Z</time>
  <course>7.75</course>
  <speed>8.456695572148734</speed>
  <fix>3d</fix>
</trkpt>
<trkpt lat="-27.270204" lon="151.2906606">
  <ele>362.82</ele>
  <time>2026-09-01T19:58:44Z</time>
  <course>7.05</course>
  <speed>8.63</speed>
  <fix>3d</fix>
</trkpt>
<trkpt lat="-27.2701746" lon="151.2906648">
  <ele>362.73</ele>
  <time>2026-09-01T19:58:44Z</time>
  <course>7.75</course>
  <speed>8.405837257525272</speed>
  <fix>3d</fix>
</trkpt>
<trkpt lat="-27.2701887" lon="151.2906627">
  <ele>362.82</ele>
  <time>2026-09-01T19:58:44Z</time>
  <course>7.05</course>
  <speed>8.53</speed>
  <fix>3d</fix>
</trkpt>
<trkpt lat="-27.2701671" lon="151.2906658">
  <ele>362.73</ele>
  <time>2026-09-01T19:58:44Z</time>
  <course>7.76</course>
  <speed>8.3649028685335</speed>
  <fix>3d</fix>
</trkpt>
<trkpt lat="-27.2701887" lon="151.2906627">
  <ele>362.82</ele>
  <time>2026-09-01T19:58:44Z</time>
  <course>7.05</course>
  <speed>8.53</speed>
  <fix>3d</fix>
</trkpt>
<trkpt lat="-27.2701596" lon="151.2906669">
  <ele>362.73</ele>
  <time>2026-09-01T19:58:44Z</time>
  <course>7.76</course>
  <speed>8.325214711945874</speed>
  <fix>3d</fix>
</trkpt>
<trkpt lat="-27.2701736" lon="151.2906648">
  <ele>362.82</ele>
  <time>2026-09-01T19:58:44Z</time>
  <course>7.05</course>
  <speed>8.44</speed>
  <fix>3d</fix>
</trkpt>
<trkpt lat="-27.2701522" lon="151.2906679">
  <ele>362.73</ele>
  <time>2026-09-01T19:58:44Z</time>
  <course>7.77</course>
  <speed>8.274357981136664</speed>
  <fix>3d</fix>
</trkpt>
<trkpt lat="-27.2701736" lon="151.2906648">
  <ele>362.82</ele>
  <time>2026-09-01T19:58:44Z</time>
  <course>7.05</course>
  <speed>8.44</speed>
  <fix>3d</fix>
</trkpt>
<trkpt lat="-27.2701448" lon="151.2906689">
  <ele>362.74</ele>
  <time>2026-09-01T19:58:44Z</time>
  <course>7.77</course>
  <speed>8.234670606648454</speed>
  <fix>3d</fix>
</trkpt>
<trkpt lat="-27.2701586" lon="151.2906669">
  <ele>362.82</ele>
  <time>2026-09-01T19:58:44Z</time>
  <course>7.06</course>
  <speed>8.35</speed>
  <fix>3d</fix>
</trkpt>
<trkpt lat="-27.2701374" lon="151.29067">
  <ele>362.74</ele>
  <time>2026-09-01T19:58:44Z</time>
  <course>7.77</course>
  <speed>8.193735411886328</speed>
  <fix>3d</fix>
</trkpt>
<trkpt lat="-27.2701586" lon="151.2906669">
  <ele>362.82</ele>
  <time>2026-09-01T19:58:44Z</time>
  <course>7.06</course>
  <speed>8.35</speed>
  <fix>3d</fix>
</trkpt>
<trkpt lat="-27.2701301" lon="151.290671">
  <ele>362.74</ele>
  <time>2026-09-01T19:58:44Z</time>
  <course>7.78</course>
  <speed>8.154048074422912</speed>
  <fix>3d</fix>
</trkpt>
<trkpt lat="-27.2701437" lon="151.2906689">
  <ele>362.82</ele>
  <time>2026-09-01T19:58:44Z</time>
  <course>7.06</course>
  <speed>8.26</speed>
  <fix>3d</fix>
</trkpt>
<trkpt lat="-27.2701228" lon="151.290672">
  <ele>362.74</ele>
  <time>2026-09-01T19:58:44Z</time>
  <course>7.78</course>
  <speed>8.113112842799612</speed>
  <fix>3d</fix>
</trkpt>
<trkpt lat="-27.2701437" lon="151.2906689">
  <ele>362.82</ele>
  <time>2026-09-01T19:58:44Z</time>
  <course>7.06</course>
  <speed>8.26</speed>
  <fix>3d</fix>
</trkpt>
<trkpt lat="-27.2701155" lon="151.290673">
  <ele>362.75</ele>
  <time>2026-09-01T19:58:44Z</time>
  <course>7.78</course>
  <speed>8.073425543101267</speed>
  <fix>3d</fix>
</trkpt>
<trkpt lat="-27.2701291" lon="151.290671">
  <ele>362.83</ele>
  <time>2026-09-01T19:58:44Z</time>
  <course>7.06</course>
  <speed>8.18</speed>
  <fix>3d</fix>
</trkpt>
<trkpt lat="-27.2701083" lon="151.290674">
  <ele>362.75</ele>
  <time>2026-09-01T19:58:44Z</time>
  <course>7.78</course>
  <speed>8.032490273881445</speed>
  <fix>3d</fix>
</trkpt>
<trkpt lat="-27.2701291" lon="151.290671">
  <ele>362.83</ele>
  <time>2026-09-01T19:58:44Z</time>
  <course>7.06</course>
  <speed>8.18</speed>
  <fix>3d</fix>
</trkpt>
<trkpt lat="-27.2701011" lon="151.290675">
  <ele>362.75</ele>
  <time>2026-09-01T19:58:44Z</time>
  <course>7.79</course>
  <speed>7.992803012710873</speed>
  <fix>3d</fix>
</trkpt>
<trkpt lat="-27.2701146" lon="151.290673">
  <ele>362.83</ele>
  <time>2026-09-01T19:58:44Z</time>
  <course>7.06</course>
  <speed>8.09</speed>
  <fix>3d</fix>
</trkpt>
<trkpt lat="-27.270094" lon="151.290676">
  <ele>362.75</ele>
  <time>2026-09-01T19:58:44Z</time>
  <course>7.79</course>
  <speed>7.9518677051369515</speed>
  <fix>3d</fix>
</trkpt>
<trkpt lat="-27.2701146" lon="151.290673">
  <ele>362.83</ele>
  <time>2026-09-01T19:58:44Z</time>
  <course>7.06</course>
  <speed>8.09</speed>
  <fix>3d</fix>
</trkpt>
<trkpt lat="-27.2700869" lon="151.290677">
  <ele>362.75</ele>
  <time>2026-09-01T19:58:44Z</time>
  <course>7.79</course>
  <speed>7.912180483280193</speed>
  <fix>3d</fix>
</trkpt>
<trkpt lat="-27.2701002" lon="151.290675">
  <ele>362.83</ele>
  <time>2026-09-01T19:58:44Z</time>
  <course>7.07</course>
  <speed>8.01</speed>
  <fix>3d</fix>
</trkpt>
<trkpt lat="-27.2700799" lon="151.290678">
  <ele>362.75</ele>
  <time>2026-09-01T19:58:44Z</time>
  <course>7.79</course>
  <speed>7.871245136571469</speed>
  <fix>3d</fix>
</trkpt>
<trkpt lat="-27.2701002" lon="151.290675">
  <ele>362.83</ele>
  <time>2026-09-01T19:58:44Z</time>
  <course>7.07</course>
  <speed>8.01</speed>
  <fix>3d</fix>
</trkpt>
<trkpt lat="-27.2700728" lon="151.290679">
  <ele>362.76</ele>
  <time>2026-09-01T19:58:44Z</time>
  <course>7.8</course>
  <speed>7.831557954838871</speed>
  <fix>3d</fix>
</trkpt>
<trkpt lat="-27.270086" lon="151.290677">
  <ele>362.83</ele>
  <time>2026-09-01T19:58:44Z</time>
  <course>7.07</course>
  <speed>7.93</speed>
  <fix>3d</fix>
</trkpt>
<trkpt lat="-27.2700659" lon="151.29068">
  <ele>362.76</ele>
  <time>2026-09-01T19:58:44Z</time>
  <course>7.8</course>
  <speed>7.791873972286769</speed>
  <fix>3d</fix>
</trkpt>
<trkpt lat="-27.270086" lon="151.290677">
  <ele>362.83</ele>
  <time>2026-09-01T19:58:44Z</time>
  <course>7.07</course>
  <speed>7.93</speed>
  <fix>3d</fix>
</trkpt>
<trkpt lat="-27.2700589" lon="151.2906809">
  <ele>362.76</ele>
  <time>2026-09-01T19:58:44Z</time>
  <course>7.8</course>
  <speed>7.750935427417777</speed>
  <fix>3d</fix>
</trkpt>
<trkpt lat="-27.270072" lon="151.2906789">
  <ele>362.83</ele>
  <time>2026-09-01T19:58:44Z</time>
  <course>7.07</course>
  <speed>7.85</speed>
  <fix>3d</fix>
</trkpt>
<trkpt lat="-27.2700519" lon="151.2906819">
  <ele>362.76</ele>
  <time>2026-09-01T19:58:44Z</time>
  <course>7.81</course>
  <speed>7.7112515196951</speed>
  <fix>3d</fix>
</trkpt>
<trkpt lat="-27.270072" lon="151.2906789">
  <ele>362.83</ele>
  <time>2026-09-01T19:58:44Z</time>
  <course>7.07</course>
  <speed>7.85</speed>
  <fix>3d</fix>
</trkpt>
<trkpt lat="-27.270045" lon="151.2906829">
  <ele>362.76</ele>
  <time>2026-09-01T19:58:44Z</time>
  <course>7.81</course>
  <speed>7.680234371423831</speed>
  <fix>3d</fix>
</trkpt>
<trkpt lat="-27.270058" lon="151.2906809">
  <ele>362.83</ele>
  <time>2026-09-01T19:58:44Z</time>
  <course>7.07</course>
  <speed>7.77</speed>
  <fix>3d</fix>
</trkpt>
<trkpt lat="-27.2700382" lon="151.2906838">
  <ele>362.76</ele>
  <time>2026-09-01T19:58:44Z</time>
  <course>7.81</course>
  <speed>7.640549718443038</speed>
  <fix>3d</fix>
</trkpt>
<trkpt lat="-27.270058" lon="151.2906809">
  <ele>362.83</ele>
  <time>2026-09-01T19:58:44Z</time>
  <course>7.07</course>
  <speed>7.77</speed>
  <fix>3d</fix>
</trkpt>
<trkpt lat="-27.2700313" lon="151.2906848">
  <ele>362.76</ele>
  <time>2026-09-01T19:58:44Z</time>
  <course>7.82</course>
  <speed>7.599611832192483</speed>
  <fix>3d</fix>
</trkpt>
<trkpt lat="-27.2700442" lon="151.2906828">
  <ele>362.84</ele>
  <time>2026-09-01T19:58:44Z</time>
  <course>7.08</course>
  <speed>7.7</speed>
  <fix>3d</fix>
</trkpt>
<trkpt lat="-27.2700245" lon="151.2906857">
  <ele>362.76</ele>
  <time>2026-09-01T19:58:44Z</time>
  <course>7.82</course>
  <speed>7.569848083019897</speed>
  <fix>3d</fix>
</trkpt>
<trkpt lat="-27.2700442" lon="151.2906828">
  <ele>362.84</ele>
  <time>2026-09-01T19:58:44Z</time>
  <course>7.08</course>
  <speed>7.7</speed>
  <fix>3d</fix>
</trkpt>
<trkpt lat="-27.2700178" lon="151.2906867">
  <ele>362.76</ele>
  <time>2026-09-01T19:58:44Z</time>
  <course>7.82</course>
  <speed>7.528910943821822</speed>
  <fix>3d</fix>
</trkpt>
<trkpt lat="-27.2700306" lon="151.2906847">
  <ele>362.83</ele>
  <time>2026-09-01T19:58:44Z</time>
  <course>7.08</course>
  <speed>7.62</speed>
  <fix>3d</fix>
</trkpt>
<trkpt lat="-27.2700111" lon="151.2906876">
  <ele>362.76</ele>
  <time>2026-09-01T19:58:44Z</time>
  <course>7.82</course>
  <speed>7.499146618115957</speed>
  <fix>3d</fix>
</trkpt>
<trkpt lat="-27.2700306" lon="151.2906847">
  <ele>362.83</ele>
  <time>2026-09-01T19:58:44Z</time>
  <course>7.08</course>
  <speed>7.62</speed>
  <fix>3d</fix>
</trkpt>
<trkpt lat="-27.2700044" lon="151.2906885">
  <ele>362.75</ele>
  <time>2026-09-01T19:58:44Z</time>
  <course>7.83</course>
  <speed>7.458210241069904</speed>
  <fix>3d</fix>
</trkpt>
<trkpt lat="-27.270017" lon="151.2906866">
  <ele>362.83</ele>
  <time>2026-09-01T19:58:44Z</time>
  <course>7.08</course>
  <speed>7.55</speed>
  <fix>3d</fix>
</trkpt>
<trkpt lat="-27.2699977" lon="151.2906895">
  <ele>362.75</ele>
  <time>2026-09-01T19:58:44Z</time>
  <course>7.83</course>
  <speed>7.4284453286000565</speed>
  <fix>3d</fix>
</trkpt>
<trkpt lat="-27.270017" lon="151.2906866">
  <ele>362.83</ele>
  <time>2026-09-01T19:58:44Z</time>
  <course>7.08</course>
  <speed>7.55</speed>
  <fix>3d</fix>
</trkpt>
<trkpt lat="-27.2699911" lon="151.2906904">
  <ele>362.75</ele>
  <time>2026-09-01T19:58:44Z</time>
  <course>7.83</course>
  <speed>7.388761736583472</speed>
  <fix>3d</fix>
</trkpt>
<trkpt lat="-27.2700036" lon="151.2906885">
  <ele>362.83</ele>
  <time>2026-09-01T19:58:44Z</time>
  <course>7.08</course>
  <speed>7.48</speed>
  <fix>3d</fix>
</trkpt>
<trkpt lat="-27.2699844" lon="151.2906913">
  <ele>362.75</ele>
  <time>2026-09-01T19:58:44Z</time>
  <course>7.83</course>
  <speed>7.357744219528156</speed>
  <fix>3d</fix>
</trkpt>
<trkpt lat="-27.2700036" lon="151.2906885">
  <ele>362.83</ele>
  <time>2026-09-01T19:58:44Z</time>
  <course>7.08</course>
  <speed>7.48</speed>
  <fix>3d</fix>
</trkpt>
<trkpt lat="-27.2699779" lon="151.2906922">
  <ele>362.75</ele>
  <time>2026-09-01T19:58:44Z</time>
  <course>7.84</course>
  <speed>7.318059852173935</speed>
  <fix>3d</fix>
</trkpt>
<trkpt lat="-27.2699902" lon="151.2906904">
  <ele>362.83</ele>
  <time>2026-09-01T19:58:44Z</time>
  <course>7.08</course>
  <speed>7.41</speed>
  <fix>3d</fix>
</trkpt>
<trkpt lat="-27.2699713" lon="151.2906931">
  <ele>362.75</ele>
  <time>2026-09-01T19:58:44Z</time>
  <course>7.84</course>
  <speed>7.287043296152425</speed>
  <fix>3d</fix>
</trkpt>
<trkpt lat="-27.2699902" lon="151.2906904">
  <ele>362.83</ele>
  <time>2026-09-01T19:58:44Z</time>
  <course>7.08</course>
  <speed>7.41</speed>
  <fix>3d</fix>
</trkpt>
<trkpt lat="-27.2699648" lon="151.2906941">
  <ele>362.75</ele>
  <time>2026-09-01T19:58:44Z</time>
  <course>7.84</course>
  <speed>7.257279104457813</speed>
  <fix>3d</fix>
</trkpt>
<trkpt lat="-27.2699771" lon="151.2906922">
  <ele>362.83</ele>
  <time>2026-09-01T19:58:44Z</time>
  <course>7.08</course>
  <speed>7.34</speed>
  <fix>3d</fix>
</trkpt>
<trkpt lat="-27.2699583" lon="151.290695">
  <ele>362.75</ele>
  <time>2026-09-01T19:58:44Z</time>
  <course>7.85</course>
  <speed>7.227516862657604</speed>
  <fix>3d</fix>
</trkpt>
<trkpt lat="-27.2699771" lon="151.2906922">
  <ele>362.83</ele>
  <time>2026-09-01T19:58:44Z</time>
  <course>7.08</course>
  <speed>7.34</speed>
  <fix>3d</fix>
</trkpt>
<trkpt lat="-27.2699518" lon="151.2906959">
  <ele>362.75</ele>
  <time>2026-09-01T19:58:44Z</time>
  <course>7.85</course>
  <speed>7.186577766920775</speed>
  <fix>3d</fix>
</trkpt>
<trkpt lat="-27.2699641" lon="151.2906941">
  <ele>362.83</ele>
  <time>2026-09-01T19:58:44Z</time>
  <course>7.08</course>
  <speed>7.27</speed>
  <fix>3d</fix>
</trkpt>
<trkpt lat="-27.2699455" lon="151.2906968">
  <ele>362.75</ele>
  <time>2026-09-01T19:58:44Z</time>
  <course>7.85</course>
  <speed>7.1568149340331555</speed>
  <fix>3d</fix>
</trkpt>
<trkpt lat="-27.2699641" lon="151.2906941">
  <ele>362.83</ele>
  <time>2026-09-01T19:58:44Z</time>
  <course>7.08</course>
  <speed>7.27</speed>
  <fix>3d</fix>
</trkpt>
<trkpt lat="-27.2699391" lon="151.2906977">
  <ele>362.76</ele>
  <time>2026-09-01T19:58:44Z</time>
  <course>7.86</course>
  <speed>7.125798200903531</speed>
  <fix>3d</fix>
</trkpt>
<trkpt lat="-27.2699512" lon="151.2906959">
  <ele>362.83</ele>
  <time>2026-09-01T19:58:44Z</time>
  <course>7.08</course>
  <speed>7.2</speed>
  <fix>3d</fix>
</trkpt>
<trkpt lat="-27.2699327" lon="151.2906986">
  <ele>362.76</ele>
  <time>2026-09-01T19:58:44Z</time>
  <course>7.86</course>
  <speed>7.096034103638455</speed>
  <fix>3d</fix>
</trkpt>
<trkpt lat="-27.2699512" lon="151.2906959">
  <ele>362.83</ele>
  <time>2026-09-01T19:58:44Z</time>
  <course>7.08</course>
  <speed>7.2</speed>
  <fix>3d</fix>
</trkpt>
<trkpt lat="-27.2699264" lon="151.2906995">
  <ele>362.76</ele>
  <time>2026-09-01T19:58:44Z</time>
  <course>7.86</course>
  <speed>7.066272001557823</speed>
  <fix>3d</fix>
</trkpt>
<trkpt lat="-27.2699384" lon="151.2906977">
  <ele>362.83</ele>
  <time>2026-09-01T19:58:44Z</time>
  <course>7.08</course>
  <speed>7.14</speed>
  <fix>3d</fix>
</trkpt>
<trkpt lat="-27.26992" lon="151.2907003">
  <ele>362.76</ele>
  <time>2026-09-01T19:58:44Z</time>
  <course>7.86</course>
  <speed>7.035254082120986</speed>
  <fix>3d</fix>
</trkpt>
<trkpt lat="-27.2699384" lon="151.2906977">
  <ele>362.83</ele>
  <time>2026-09-01T19:58:44Z</time>
  <course>7.08</course>
  <speed>7.14</speed>
  <fix>3d</fix>
</trkpt>
<trkpt lat="-27.2699137" lon="151.2907012">
  <ele>362.76</ele>
  <time>2026-09-01T19:58:44Z</time>
  <course>7.86</course>
  <speed>7.005490703726613</speed>
  <fix>3d</fix>
</trkpt>
<trkpt lat="-27.2699258" lon="151.2906994">
  <ele>362.83</ele>
  <time>2026-09-01T19:58:44Z</time>
  <course>7.08</course>
  <speed>7.08</speed>
  <fix>3d</fix>
</trkpt>
<trkpt lat="-27.2699075" lon="151.2907021">
  <ele>362.76</ele>
  <time>2026-09-01T19:58:44Z</time>
  <course>7.87</course>
  <speed>6.975729352548019</speed>
  <fix>3d</fix>
</trkpt>
<trkpt lat="-27.2699258" lon="151.2906994">
  <ele>362.83</ele>
  <time>2026-09-01T19:58:44Z</time>
  <course>7.08</course>
  <speed>7.08</speed>
  <fix>3d</fix>
</trkpt>
<trkpt lat="-27.2699013" lon="151.290703">
  <ele>362.76</ele>
  <time>2026-09-01T19:58:44Z</time>
  <course>7.87</course>
  <speed>6.9347891099874115</speed>
  <fix>3d</fix>
</trkpt>
<trkpt lat="-27.2699132" lon="151.2907012">
  <ele>362.83</ele>
  <time>2026-09-01T19:58:44Z</time>
  <course>7.08</course>
  <speed>7.01</speed>
  <fix>3d</fix>
</trkpt>
<trkpt lat="-27.2698951" lon="151.2907038">
  <ele>362.76</ele>
  <time>2026-09-01T19:58:44Z</time>
  <course>7.87</course>
  <speed>6.905027154182668</speed>
  <fix>3d</fix>
</trkpt>
<trkpt lat="-27.2699132" lon="151.2907012">
  <ele>362.83</ele>
  <time>2026-09-01T19:58:44Z</time>
  <course>7.08</course>
  <speed>7.01</speed>
  <fix>3d</fix>
</trkpt>
<trkpt lat="-27.269889" lon="151.2907047">
  <ele>362.76</ele>
  <time>2026-09-01T19:58:44Z</time>
  <course>7.87</course>
  <speed>6.8740090194878265</speed>
  <fix>3d</fix>
</trkpt>
<trkpt lat="-27.2699008" lon="151.2907029">
  <ele>362.83</ele>
  <time>2026-09-01T19:58:44Z</time>
  <course>7.08</course>
  <speed>6.95</speed>
  <fix>3d</fix>
</trkpt>
<trkpt lat="-27.2698829" lon="151.2907056">
  <ele>362.76</ele>
  <time>2026-09-01T19:58:44Z</time>
  <course>7.87</course>
  <speed>6.84424575829945</speed>
  <fix>3d</fix>
</trkpt>
<trkpt lat="-27.2699008" lon="151.2907029">
  <ele>362.83</ele>
  <time>2026-09-01T19:58:44Z</time>
  <course>7.08</course>
  <speed>6.95</speed>
  <fix>3d</fix>
</trkpt>
<trkpt lat="-27.2698768" lon="151.2907064">
  <ele>362.76</ele>
  <time>2026-09-01T19:58:44Z</time>
  <course>7.88</course>
  <speed>6.814484573318807</speed>
  <fix>3d</fix>
</trkpt>
<trkpt lat="-27.2698884" lon="151.2907046">
  <ele>362.83</ele>
  <time>2026-09-01T19:58:44Z</time>
  <course>7.08</course>
  <speed>6.89</speed>
  <fix>3d</fix>
</trkpt>
<trkpt lat="-27.2698707" lon="151.2907073">
  <ele>362.76</ele>
  <time>2026-09-01T19:58:44Z</time>
  <course>7.88</course>
  <speed>6.783465191183633</speed>
  <fix>3d</fix>
</trkpt>
<trkpt lat="-27.2698884" lon="151.2907046">
  <ele>362.83</ele>
  <time>2026-09-01T19:58:44Z</time>
  <course>7.08</course>
  <speed>6.89</speed>
  <fix>3d</fix>
</trkpt>
<trkpt lat="-27.2698647" lon="151.2907081">
  <ele>362.76</ele>
  <time>2026-09-01T19:58:44Z</time>
  <course>7.88</course>
  <speed>6.753702688155587</speed>
  <fix>3d</fix>
</trkpt>
<trkpt lat="-27.2698761" lon="151.2907063">
  <ele>362.83</ele>
  <time>2026-09-01T19:58:44Z</time>
  <course>7.07</course>
  <speed>6.83</speed>
  <fix>3d</fix>
</trkpt>
<trkpt lat="-27.2698587" lon="151.2907089">
  <ele>362.76</ele>
  <time>2026-09-01T19:58:44Z</time>
  <course>7.88</course>
  <speed>6.722685475314162</speed>
  <fix>3d</fix>
</trkpt>
<trkpt lat="-27.2698761" lon="151.2907063">
  <ele>362.83</ele>
  <time>2026-09-01T19:58:44Z</time>
  <course>7.07</course>
  <speed>6.83</speed>
  <fix>3d</fix>
</trkpt>
<trkpt lat="-27.2698527" lon="151.2907098">
  <ele>362.76</ele>
  <time>2026-09-01T19:58:44Z</time>
  <course>7.88</course>
  <speed>6.692921634084773</speed>
  <fix>3d</fix>
</trkpt>
<trkpt lat="-27.269864" lon="151.290708">
  <ele>362.84</ele>
  <time>2026-09-01T19:58:44Z</time>
  <course>7.07</course>
  <speed>6.77</speed>
  <fix>3d</fix>
</trkpt>
<trkpt lat="-27.2698468" lon="151.2907106">
  <ele>362.76</ele>
  <time>2026-09-01T19:58:44Z</time>
  <course>7.88</course>
  <speed>6.663159911033202</speed>
  <fix>3d</fix>
</trkpt>
<trkpt lat="-27.269864" lon="151.290708">
  <ele>362.84</ele>
  <time>2026-09-01T19:58:44Z</time>
  <course>7.07</course>
  <speed>6.77</speed>
  <fix>3d</fix>
</trkpt>
<trkpt lat="-27.2698408" lon="151.2907114">
  <ele>362.76</ele>
  <time>2026-09-01T19:58:44Z</time>
  <course>7.88</course>
  <speed>6.632141433956305</speed>
  <fix>3d</fix>
</trkpt>
<trkpt lat="-27.269852" lon="151.2907097">
  <ele>362.84</ele>
  <time>2026-09-01T19:58:44Z</time>
  <course>7.07</course>
  <speed>6.72</speed>
  <fix>3d</fix>
</trkpt>
<trkpt lat="-27.2698349" lon="151.2907122">
  <ele>362.76</ele>
  <time>2026-09-01T19:58:44Z</time>
  <course>7.89</course>
  <speed>6.602378359349001</speed>
  <fix>3d</fix>
</trkpt>
<trkpt lat="-27.269852" lon="151.2907097">
  <ele>362.84</ele>
  <time>2026-09-01T19:58:44Z</time>
  <course>7.07</course>
  <speed>6.72</speed>
  <fix>3d</fix>
</trkpt>
<trkpt lat="-27.2698291" lon="151.290713">
  <ele>362.76</ele>
  <time>2026-09-01T19:58:44Z</time>
  <course>7.89</course>
  <speed>6.581284069237553</speed>
  <fix>3d</fix>
</trkpt>
<trkpt lat="-27.26984" lon="151.2907114">
  <ele>362.84</ele>
  <time>2026-09-01T19:58:44Z</time>
  <course>7.07</course>
  <speed>6.66</speed>
  <fix>3d</fix>
</trkpt>
<trkpt lat="-27.2698232" lon="151.2907139">
  <ele>362.76</ele>
  <time>2026-09-01T19:58:44Z</time>
  <course>7.89</course>
  <speed>6.551518907856406</speed>
  <fix>3d</fix>
</trkpt>
<trkpt lat="-27.26984" lon="151.2907114">
  <ele>362.84</ele>
  <time>2026-09-01T19:58:44Z</time>
  <course>7.07</course>
  <speed>6.66</speed>
  <fix>3d</fix>
</trkpt>
<trkpt lat="-27.2698174" lon="151.2907147">
  <ele>362.76</ele>
  <time>2026-09-01T19:58:44Z</time>
  <course>7.89</course>
  <speed>6.521755898529168</speed>
  <fix>3d</fix>
</trkpt>
<trkpt lat="-27.2698282" lon="151.290713">
  <ele>362.84</ele>
  <time>2026-09-01T19:58:44Z</time>
  <course>7.06</course>
  <speed>6.61</speed>
  <fix>3d</fix>
</trkpt>
<trkpt lat="-27.2698116" lon="151.2907155">
  <ele>362.76</ele>
  <time>2026-09-01T19:58:44Z</time>
  <course>7.89</course>
  <speed>6.500661504800877</speed>
  <fix>3d</fix>
</trkpt>
<trkpt lat="-27.2698282" lon="151.290713">
  <ele>362.84</ele>
  <time>2026-09-01T19:58:44Z</time>
  <course>7.06</course>
  <speed>6.61</speed>
  <fix>3d</fix>
</trkpt>
<trkpt lat="-27.2698058" lon="151.2907163">
  <ele>362.76</ele>
  <time>2026-09-01T19:58:44Z</time>
  <course>7.89</course>
  <speed>6.470896383036898</speed>
  <fix>3d</fix>
</trkpt>
<trkpt lat="-27.2698164" lon="151.2907147">
  <ele>362.84</ele>
  <time>2026-09-01T19:58:44Z</time>
  <course>7.06</course>
  <speed>6.55</speed>
  <fix>3d</fix>
</trkpt>
<trkpt lat="-27.2698" lon="151.2907171">
  <ele>362.76</ele>
  <time>2026-09-01T19:58:45Z</time>
  <course>7.89</course>
  <speed>6.44113344062984</speed>
  <fix>3d</fix>
</trkpt>
<trkpt lat="-27.2698164" lon="151.2907147">
  <ele>362.84</ele>
  <time>2026-09-01T19:58:45Z</time>
  <course>7.06</course>
  <speed>6.55</speed>
  <fix>3d</fix>
</trkpt>
<trkpt lat="-27.2697942" lon="151.2907179">
  <ele>362.76</ele>
  <time>2026-09-01T19:58:45Z</time>
  <course>7.9</course>
  <speed>6.420038940691871</speed>
  <fix>3d</fix>
</trkpt>
<trkpt lat="-27.2698048" lon="151.2907162">
  <ele>362.84</ele>
  <time>2026-09-01T19:58:45Z</time>
  <course>7.06</course>
  <speed>6.5</speed>
  <fix>3d</fix>
</trkpt>
<trkpt lat="-27.2697885" lon="151.2907187">
  <ele>362.76</ele>
  <time>2026-09-01T19:58:45Z</time>
  <course>7.9</course>
  <speed>6.39027385954624</speed>
  <fix>3d</fix>
</trkpt>
<trkpt lat="-27.2698048" lon="151.2907162">
  <ele>362.84</ele>
  <time>2026-09-01T19:58:45Z</time>
  <course>7.06</course>
  <speed>6.5</speed>
  <fix>3d</fix>
</trkpt>
<trkpt lat="-27.2697828" lon="151.2907195">
  <ele>362.76</ele>
  <time>2026-09-01T19:58:45Z</time>
  <course>7.9</course>
  <speed>6.3704316965179055</speed>
  <fix>3d</fix>
</trkpt>
<trkpt lat="-27.2697932" lon="151.2907179">
  <ele>362.84</ele>
  <time>2026-09-01T19:58:45Z</time>
  <course>7.06</course>
  <speed>6.45</speed>
  <fix>3d</fix>
</trkpt>
<trkpt lat="-27.2697771" lon="151.2907203">
  <ele>362.76</ele>
  <time>2026-09-01T19:58:45Z</time>
  <course>7.9</course>
  <speed>6.339416376923037</speed>
  <fix>3d</fix>
</trkpt>
<trkpt lat="-27.2697932" lon="151.2907179">
  <ele>362.84</ele>
  <time>2026-09-01T19:58:45Z</time>
  <course>7.06</course>
  <speed>6.45</speed>
  <fix>3d</fix>
</trkpt>
<trkpt lat="-27.2697714" lon="151.2907211">
  <ele>362.76</ele>
  <time>2026-09-01T19:58:45Z</time>
  <course>7.9</course>
  <speed>6.319572770369844</speed>
  <fix>3d</fix>
</trkpt>
<trkpt lat="-27.2697817" lon="151.2907195">
  <ele>362.84</ele>
  <time>2026-09-01T19:58:45Z</time>
  <course>7.05</course>
  <speed>6.4</speed>
  <fix>3d</fix>
</trkpt>
<trkpt lat="-27.2697658" lon="151.2907219">
  <ele>362.76</ele>
  <time>2026-09-01T19:58:45Z</time>
  <course>7.9</course>
  <speed>6.28980921809239</speed>
  <fix>3d</fix>
</trkpt>
<trkpt lat="-27.2697817" lon="151.2907195">
  <ele>362.84</ele>
  <time>2026-09-01T19:58:45Z</time>
  <course>7.05</course>
  <speed>6.4</speed>
  <fix>3d</fix>
</trkpt>
<trkpt lat="-27.2697601" lon="151.2907226">
  <ele>362.76</ele>
  <time>2026-09-01T19:58:45Z</time>
  <course>7.9</course>
  <speed>6.268715976976465</speed>
  <fix>3d</fix>
</trkpt>
<trkpt lat="-27.2697704" lon="151.290721">
  <ele>362.84</ele>
  <time>2026-09-01T19:58:45Z</time>
  <course>7.05</course>
  <speed>6.35</speed>
  <fix>3d</fix>
</trkpt>
<trkpt lat="-27.2697545" lon="151.2907234">
  <ele>362.76</ele>
  <time>2026-09-01T19:58:45Z</time>
  <course>7.9</course>
  <speed>6.238950232210544</speed>
  <fix>3d</fix>
</trkpt>
<trkpt lat="-27.2697704" lon="151.290721">
  <ele>362.84</ele>
  <time>2026-09-01T19:58:45Z</time>
  <course>7.05</course>
  <speed>6.35</speed>
  <fix>3d</fix>
</trkpt>
<trkpt lat="-27.2697489" lon="151.2907242">
  <ele>362.76</ele>
  <time>2026-09-01T19:58:45Z</time>
  <course>7.91</course>
  <speed>6.219107653031903</speed>
  <fix>3d</fix>
</trkpt>
<trkpt lat="-27.2697591" lon="151.2907227">
  <ele>362.84</ele>
  <time>2026-09-01T19:58:45Z</time>
  <course>7.05</course>
  <speed>6.3</speed>
  <fix>3d</fix>
</trkpt>
<trkpt lat="-27.2697434" lon="151.290725">
  <ele>362.76</ele>
  <time>2026-09-01T19:58:45Z</time>
  <course>7.9</course>
  <speed>6.1980158115319455</speed>
  <fix>3d</fix>
</trkpt>
<trkpt lat="-27.2697591" lon="151.2907227">
  <ele>362.84</ele>
  <time>2026-09-01T19:58:45Z</time>
  <course>7.05</course>
  <speed>6.3</speed>
  <fix>3d</fix>
</trkpt>
<trkpt lat="-27.2697378" lon="151.2907257">
  <ele>362.76</ele>
  <time>2026-09-01T19:58:45Z</time>
  <course>7.9</course>
  <speed>6.168249346451551</speed>
  <fix>3d</fix>
</trkpt>
<trkpt lat="-27.269748" lon="151.2907242">
  <ele>362.84</ele>
  <time>2026-09-01T19:58:45Z</time>
  <course>7.04</course>
  <speed>6.25</speed>
  <fix>3d</fix>
</trkpt>
<trkpt lat="-27.2697323" lon="151.2907265">
  <ele>362.76</ele>
  <time>2026-09-01T19:58:45Z</time>
  <course>7.9</course>
  <speed>6.148406297570127</speed>
  <fix>3d</fix>
</trkpt>
<trkpt lat="-27.269748" lon="151.2907242">
  <ele>362.84</ele>
  <time>2026-09-01T19:58:45Z</time>
  <course>7.04</course>
  <speed>6.25</speed>
  <fix>3d</fix>
</trkpt>
<trkpt lat="-27.2697268" lon="151.2907273">
  <ele>362.76</ele>
  <time>2026-09-01T19:58:45Z</time>
  <course>7.91</course>
  <speed>6.127315888706898</speed>
  <fix>3d</fix>
</trkpt>
<trkpt lat="-27.2697368" lon="151.2907258">
  <ele>362.84</ele>
  <time>2026-09-01T19:58:45Z</time>
  <course>7.03</course>
  <speed>6.2</speed>
  <fix>3d</fix>
</trkpt>
<trkpt lat="-27.2697213" lon="151.290728">
  <ele>362.76</ele>
  <time>2026-09-01T19:58:45Z</time>
  <course>7.91</course>
  <speed>6.097548687792497</speed>
  <fix>3d</fix>
</trkpt>
<trkpt lat="-27.2697368" lon="151.2907258">
  <ele>362.84</ele>
  <time>2026-09-01T19:58:45Z</time>
  <course>7.03</course>
  <speed>6.2</speed>
  <fix>3d</fix>
</trkpt>
<trkpt lat="-27.2697159" lon="151.2907288">
  <ele>362.76</ele>
  <time>2026-09-01T19:58:45Z</time>
  <course>7.91</course>
  <speed>6.077705159021783</speed>
  <fix>3d</fix>
</trkpt>
<trkpt lat="-27.2697258" lon="151.2907273">
  <ele>362.84</ele>
  <time>2026-09-01T19:58:45Z</time>
  <course>7.03</course>
  <speed>6.16</speed>
  <fix>3d</fix>
</trkpt>
<trkpt lat="-27.2697105" lon="151.2907295">
  <ele>362.76</ele>
  <time>2026-09-01T19:58:45Z</time>
  <course>7.91</course>
  <speed>6.057862659387386</speed>
  <fix>3d</fix>
</trkpt>
<trkpt lat="-27.2697258" lon="151.2907273">
  <ele>362.84</ele>
  <time>2026-09-01T19:58:45Z</time>
  <course>7.03</course>
  <speed>6.16</speed>
  <fix>3d</fix>
</trkpt>
<trkpt lat="-27.269705" lon="151.2907303">
  <ele>362.76</ele>
  <time>2026-09-01T19:58:45Z</time>
  <course>7.91</course>
  <speed>6.036770659880993</speed>
  <fix>3d</fix>
</trkpt>
<trkpt lat="-27.2697148" lon="151.2907288">
  <ele>362.84</ele>
  <time>2026-09-01T19:58:45Z</time>
  <course>7.02</course>
  <speed>6.11</speed>
  <fix>3d</fix>
</trkpt>
<trkpt lat="-27.2696996" lon="151.290731">
  <ele>362.76</ele>
  <time>2026-09-01T19:58:45Z</time>
  <course>7.91</course>
  <speed>6.007004245045945</speed>
  <fix>3d</fix>
</trkpt>
<trkpt lat="-27.2697148" lon="151.2907288">
  <ele>362.84</ele>
  <time>2026-09-01T19:58:45Z</time>
  <course>7.02</course>
  <speed>6.11</speed>
  <fix>3d</fix>
</trkpt>
<trkpt lat="-27.2696942" lon="151.2907318">
  <ele>362.76</ele>
  <time>2026-09-01T19:58:45Z</time>
  <course>7.91</course>
  <speed>5.987161263904622</speed>
  <fix>3d</fix>
</trkpt>
<trkpt lat="-27.269704" lon="151.2907303">
  <ele>362.84</ele>
  <time>2026-09-01T19:58:45Z</time>
  <course>7.02</course>
  <speed>6.06</speed>
  <fix>3d</fix>
</trkpt>
<trkpt lat="-27.2696889" lon="151.2907325">
  <ele>362.77</ele>
  <time>2026-09-01T19:58:45Z</time>
  <course>7.91</course>
  <speed>5.966070733740927</speed>
  <fix>3d</fix>
</trkpt>
<trkpt lat="-27.269704" lon="151.2907303">
  <ele>362.84</ele>
  <time>2026-09-01T19:58:45Z</time>
  <course>7.02</course>
  <speed>6.06</speed>
  <fix>3d</fix>
</trkpt>
<trkpt lat="-27.2696835" lon="151.2907333">
  <ele>362.77</ele>
  <time>2026-09-01T19:58:45Z</time>
  <course>7.91</course>
  <speed>5.946225693664847</speed>
  <fix>3d</fix>
</trkpt>
<trkpt lat="-27.2696932" lon="151.2907318">
  <ele>362.85</ele>
  <time>2026-09-01T19:58:45Z</time>
  <course>7.02</course>
  <speed>6.02</speed>
  <fix>3d</fix>
</trkpt>
<trkpt lat="-27.2696783" lon="151.290734">
  <ele>362.77</ele>
  <time>2026-09-01T19:58:45Z</time>
  <course>7.92</course>
  <speed>5.926381695436095</speed>
  <fix>3d</fix>
</trkpt>
<trkpt lat="-27.2696932" lon="151.2907318">
  <ele>362.85</ele>
  <time>2026-09-01T19:58:45Z</time>
  <course>7.02</course>
  <speed>6.02</speed>
  <fix>3d</fix>
</trkpt>
<trkpt lat="-27.269673" lon="151.2907347">
  <ele>362.77</ele>
  <time>2026-09-01T19:58:45Z</time>
  <course>7.91</course>
  <speed>5.9065387495554456</speed>
  <fix>3d</fix>
</trkpt>
<trkpt lat="-27.2696825" lon="151.2907333">
  <ele>362.85</ele>
  <time>2026-09-01T19:58:45Z</time>
  <course>7.02</course>
  <speed>5.97</speed>
  <fix>3d</fix>
</trkpt>
<trkpt lat="-27.2696677" lon="151.2907355">
  <ele>362.77</ele>
  <time>2026-09-01T19:58:45Z</time>
  <course>7.91</course>
  <speed>5.875525508411993</speed>
  <fix>3d</fix>
</trkpt>
<trkpt lat="-27.2696825" lon="151.2907333">
  <ele>362.85</ele>
  <time>2026-09-01T19:58:45Z</time>
  <course>7.02</course>
  <speed>5.97</speed>
  <fix>3d</fix>
</trkpt>
<trkpt lat="-27.2696624" lon="151.2907362">
  <ele>362.77</ele>
  <time>2026-09-01T19:58:45Z</time>
  <course>7.91</course>
  <speed>5.855681002240474</speed>
  <fix>3d</fix>
</trkpt>
<trkpt lat="-27.2696719" lon="151.2907348">
  <ele>362.85</ele>
  <time>2026-09-01T19:58:45Z</time>
  <course>7.01</course>
  <speed>5.93</speed>
  <fix>3d</fix>
</trkpt>
<trkpt lat="-27.2696571" lon="151.2907369">
  <ele>362.78</ele>
  <time>2026-09-01T19:58:45Z</time>
  <course>7.92</course>
  <speed>5.835837557711832</speed>
  <fix>3d</fix>
</trkpt>
<trkpt lat="-27.2696719" lon="151.2907348">
  <ele>362.85</ele>
  <time>2026-09-01T19:58:45Z</time>
  <course>7.01</course>
  <speed>5.93</speed>
  <fix>3d</fix>
</trkpt>
<trkpt lat="-27.2696519" lon="151.2907377">
  <ele>362.78</ele>
  <time>2026-09-01T19:58:45Z</time>
  <course>7.92</course>
  <speed>5.814748489831697</speed>
  <fix>3d</fix>
</trkpt>
<trkpt lat="-27.2696613" lon="151.2907362">
  <ele>362.85</ele>
  <time>2026-09-01T19:58:45Z</time>
  <course>7.01</course>
  <speed>5.89</speed>
  <fix>3d</fix>
</trkpt>
<trkpt lat="-27.2696467" lon="151.2907384">
  <ele>362.78</ele>
  <time>2026-09-01T19:58:45Z</time>
  <course>7.92</course>
  <speed>5.794902932750471</speed>
  <fix>3d</fix>
</trkpt>
<trkpt lat="-27.2696613" lon="151.2907362">
  <ele>362.85</ele>
  <time>2026-09-01T19:58:45Z</time>
  <course>7.01</course>
  <speed>5.89</speed>
  <fix>3d</fix>
</trkpt>
<trkpt lat="-27.2696415" lon="151.2907391">
  <ele>362.78</ele>
  <time>2026-09-01T19:58:45Z</time>
  <course>7.92</course>
  <speed>5.775058441262737</speed>
  <fix>3d</fix>
</trkpt>
<trkpt lat="-27.2696509" lon="151.2907377">
  <ele>362.85</ele>
  <time>2026-09-01T19:58:45Z</time>
  <course>7.0</course>
  <speed>5.84</speed>
  <fix>3d</fix>
</trkpt>
<trkpt lat="-27.2696363" lon="151.2907398">
  <ele>362.78</ele>
  <time>2026-09-01T19:58:45Z</time>
  <course>7.92</course>
  <speed>5.755215026391281</speed>
  <fix>3d</fix>
</trkpt>
<trkpt lat="-27.2696509" lon="151.2907377">
  <ele>362.85</ele>
  <time>2026-09-01T19:58:45Z</time>
  <course>7.0</course>
  <speed>5.84</speed>
  <fix>3d</fix>
</trkpt>
<trkpt lat="-27.2696311" lon="151.2907405">
  <ele>362.77</ele>
  <time>2026-09-01T19:58:45Z</time>
  <course>7.92</course>
  <speed>5.734125914208721</speed>
  <fix>3d</fix>
</trkpt>
<trkpt lat="-27.2696405" lon="151.2907391">
  <ele>362.85</ele>
  <time>2026-09-01T19:58:45Z</time>
  <course>7.0</course>
  <speed>5.8</speed>
  <fix>3d</fix>
</trkpt>
<trkpt lat="-27.269626" lon="151.2907413">
  <ele>362.77</ele>
  <time>2026-09-01T19:58:45Z</time>
  <course>7.92</course>
  <speed>5.714280357140346</speed>
  <fix>3d</fix>
</trkpt>
<trkpt lat="-27.2696405" lon="151.2907391">
  <ele>362.85</ele>
  <time>2026-09-01T19:58:45Z</time>
  <course>7.0</course>
  <speed>5.8</speed>
  <fix>3d</fix>
</trkpt>
<trkpt lat="-27.2696208" lon="151.290742">
  <ele>362.77</ele>
  <time>2026-09-01T19:58:45Z</time>
  <course>7.92</course>
  <speed>5.704357983156386</speed>
  <fix>3d</fix>
</trkpt>
<trkpt lat="-27.2696301" lon="151.2907406">
  <ele>362.84</ele>
  <time>2026-09-01T19:58:45Z</time>
  <course>6.99</course>
  <speed>5.76</speed>
  <fix>3d</fix>
</trkpt>
<trkpt lat="-27.2696157" lon="151.2907427">
  <ele>362.78</ele>
  <time>2026-09-01T19:58:45Z</time>
  <course>7.92</course>
  <speed>5.684514051350388</speed>
  <fix>3d</fix>
</trkpt>
<trkpt lat="-27.2696301" lon="151.2907406">
  <ele>362.84</ele>
  <time>2026-09-01T19:58:45Z</time>
  <course>6.99</course>
  <speed>5.76</speed>
  <fix>3d</fix>
</trkpt>
<trkpt lat="-27.2696106" lon="151.2907434">
  <ele>362.77</ele>
  <time>2026-09-01T19:58:45Z</time>
  <course>7.92</course>
  <speed>5.663426524640362</speed>
  <fix>3d</fix>
</trkpt>
<trkpt lat="-27.2696199" lon="151.2907419">
  <ele>362.84</ele>
  <time>2026-09-01T19:58:45Z</time>
  <course>6.99</course>
  <speed>5.72</speed>
  <fix>3d</fix>
</trkpt>
<trkpt lat="-27.2696055" lon="151.2907441">
  <ele>362.77</ele>
  <time>2026-09-01T19:58:45Z</time>
  <course>7.92</course>
  <speed>5.643580423808985</speed>
  <fix>3d</fix>
</trkpt>
<trkpt lat="-27.2696199" lon="151.2907419">
  <ele>362.84</ele>
  <time>2026-09-01T19:58:45Z</time>
  <course>6.99</course>
  <speed>5.72</speed>
  <fix>3d</fix>
</trkpt>
<trkpt lat="-27.2696005" lon="151.2907448">
  <ele>362.77</ele>
  <time>2026-09-01T19:58:45Z</time>
  <course>7.93</course>
  <speed>5.623735413406289</speed>
  <fix>3d</fix>
</trkpt>
<trkpt lat="-27.2696097" lon="151.2907434">
  <ele>362.84</ele>
  <time>2026-09-01T19:58:45Z</time>
  <course>6.98</course>
  <speed>5.68</speed>
  <fix>3d</fix>
</trkpt>
<trkpt lat="-27.2695954" lon="151.2907455">
  <ele>362.77</ele>
  <time>2026-09-01T19:58:45Z</time>
  <course>7.93</course>
  <speed>5.603891505016849</speed>
  <fix>3d</fix>
</trkpt>
<trkpt lat="-27.2696097" lon="151.2907434">
  <ele>362.84</ele>
  <time>2026-09-01T19:58:45Z</time>
  <course>6.98</course>
  <speed>5.68</speed>
  <fix>3d</fix>
</trkpt>
<trkpt lat="-27.2695904" lon="151.2907462">
  <ele>362.77</ele>
  <time>2026-09-01T19:58:45Z</time>
  <course>7.92</course>
  <speed>5.592727420498875</speed>
  <fix>3d</fix>
</trkpt>
<trkpt lat="-27.2695996" lon="151.2907447">
  <ele>362.84</ele>
  <time>2026-09-01T19:58:45Z</time>
  <course>6.97</course>
  <speed>5.64</speed>
  <fix>3d</fix>
</trkpt>
<trkpt lat="-27.2695854" lon="151.2907468">
  <ele>362.77</ele>
  <time>2026-09-01T19:58:45Z</time>
  <course>7.92</course>
  <speed>5.57288076312422</speed>
  <fix>3d</fix>
</trkpt>
<trkpt lat="-27.2695996" lon="151.2907447">
  <ele>362.84</ele>
  <time>2026-09-01T19:58:45Z</time>
  <course>6.97</course>
  <speed>5.64</speed>
  <fix>3d</fix>
</trkpt>
<trkpt lat="-27.2695804" lon="151.2907475">
  <ele>362.76</ele>
  <time>2026-09-01T19:58:45Z</time>
  <course>7.92</course>
  <speed>5.553035206083246</speed>
  <fix>3d</fix>
</trkpt>
<trkpt lat="-27.2695895" lon="151.2907461">
  <ele>362.84</ele>
  <time>2026-09-01T19:58:45Z</time>
  <course>6.96</course>
  <speed>5.6</speed>
  <fix>3d</fix>
</trkpt>
<trkpt lat="-27.2695754" lon="151.2907482">
  <ele>362.76</ele>
  <time>2026-09-01T19:58:45Z</time>
  <course>7.92</course>
  <speed>5.5319526389874305</speed>
  <fix>3d</fix>
</trkpt>
<trkpt lat="-27.2695895" lon="151.2907461">
  <ele>362.84</ele>
  <time>2026-09-01T19:58:45Z</time>
  <course>6.96</course>
  <speed>5.6</speed>
  <fix>3d</fix>
</trkpt>
<trkpt lat="-27.2695704" lon="151.2907489">
  <ele>362.76</ele>
  <time>2026-09-01T19:58:45Z</time>
  <course>7.92</course>
  <speed>5.512104861121566</speed>
  <fix>3d</fix>
</trkpt>
<trkpt lat="-27.2695796" lon="151.2907475">
  <ele>362.84</ele>
  <time>2026-09-01T19:58:45Z</time>
  <course>6.94</course>
  <speed>5.57</speed>
  <fix>3d</fix>
</trkpt>
<trkpt lat="-27.2695655" lon="151.2907496">
  <ele>362.75</ele>
  <time>2026-09-01T19:58:45Z</time>
  <course>7.92</course>
  <speed>5.502181385596081</speed>
  <fix>3d</fix>
</trkpt>
<trkpt lat="-27.2695796" lon="151.2907475">
  <ele>362.84</ele>
  <time>2026-09-01T19:58:45Z</time>
  <course>6.94</course>
  <speed>5.57</speed>
  <fix>3d</fix>
</trkpt>
<trkpt lat="-27.2695606" lon="151.2907502">
  <ele>362.75</ele>
  <time>2026-09-01T19:58:45Z</time>
  <course>7.92</course>
  <speed>5.482335268843014</speed>
  <fix>3d</fix>
</trkpt>
<trkpt lat="-27.2695697" lon="151.2907488">
  <ele>362.84</ele>
  <time>2026-09-01T19:58:45Z</time>
  <course>6.93</course>
  <speed>5.53</speed>
  <fix>3d</fix>
</trkpt>
<trkpt lat="-27.2695557" lon="151.2907509">
  <ele>362.75</ele>
  <time>2026-09-01T19:58:45Z</time>
  <course>7.92</course>
  <speed>5.461254434651438</speed>
  <fix>3d</fix>
</trkpt>
<trkpt lat="-27.2695697" lon="151.2907488">
  <ele>362.84</ele>
  <time>2026-09-01T19:58:45Z</time>
  <course>6.93</course>
  <speed>5.53</speed>
  <fix>3d</fix>
</trkpt>
<trkpt lat="-27.2695507" lon="151.2907516">
  <ele>362.75</ele>
  <time>2026-09-01T19:58:45Z</time>
  <course>7.92</course>
  <speed>5.441406068287865</speed>
  <fix>3d</fix>
</trkpt>
<trkpt lat="-27.2695599" lon="151.2907502">
  <ele>362.84</ele>
  <time>2026-09-01T19:58:45Z</time>
  <course>6.92</course>
  <speed>5.49</speed>
  <fix>3d</fix>
</trkpt>
<trkpt lat="-27.2695459" lon="151.2907522">
  <ele>362.76</ele>
  <time>2026-09-01T19:58:45Z</time>
  <course>7.92</course>
  <speed>5.421558816429091</speed>
  <fix>3d</fix>
</trkpt>
<trkpt lat="-27.2695599" lon="151.2907502">
  <ele>362.84</ele>
  <time>2026-09-01T19:58:45Z</time>
  <course>6.92</course>
  <speed>5.49</speed>
  <fix>3d</fix>
</trkpt>
<trkpt lat="-27.269541" lon="151.2907529">
  <ele>362.76</ele>
  <time>2026-09-01T19:58:45Z</time>
  <course>7.92</course>
  <speed>5.41040663906143</speed>
  <fix>3d</fix>
</trkpt>
<trkpt lat="-27.2695501" lon="151.2907515">
  <ele>362.84</ele>
  <time>2026-09-01T19:58:45Z</time>
  <course>6.91</course>
  <speed>5.45</speed>
  <fix>3d</fix>
</trkpt>
<trkpt lat="-27.2695362" lon="151.2907536">
  <ele>362.76</ele>
  <time>2026-09-01T19:58:45Z</time>
  <course>7.92</course>
  <speed>5.390556557536522</speed>
  <fix>3d</fix>
</trkpt>
<trkpt lat="-27.2695501" lon="151.2907515">
  <ele>362.84</ele>
  <time>2026-09-01T19:58:45Z</time>
  <course>6.91</course>
  <speed>5.45</speed>
  <fix>3d</fix>
</trkpt>
<trkpt lat="-27.2695313" lon="151.2907542">
  <ele>362.76</ele>
  <time>2026-09-01T19:58:45Z</time>
  <course>7.93</course>
  <speed>5.370707588390937</speed>
  <fix>3d</fix>
</trkpt>
<trkpt lat="-27.2695404" lon="151.2907528">
  <ele>362.84</ele>
  <time>2026-09-01T19:58:45Z</time>
  <course>6.9</course>
  <speed>5.42</speed>
  <fix>3d</fix>
</trkpt>
<trkpt lat="-27.2695265" lon="151.2907549">
  <ele>362.76</ele>
  <time>2026-09-01T19:58:45Z</time>
  <course>7.93</course>
  <speed>5.3508597440037615</speed>
  <fix>3d</fix>
</trkpt>
<trkpt lat="-27.2695404" lon="151.2907528">
  <ele>362.84</ele>
  <time>2026-09-01T19:58:45Z</time>
  <course>6.9</course>
  <speed>5.42</speed>
  <fix>3d</fix>
</trkpt>
<trkpt lat="-27.2695217" lon="151.2907555">
  <ele>362.77</ele>
  <time>2026-09-01T19:58:45Z</time>
  <course>7.93</course>
  <speed>5.329784235782909</speed>
  <fix>3d</fix>
</trkpt>
<trkpt lat="-27.2695308" lon="151.2907541">
  <ele>362.84</ele>
  <time>2026-09-01T19:58:45Z</time>
  <course>6.9</course>
  <speed>5.38</speed>
  <fix>3d</fix>
</trkpt>
<trkpt lat="-27.269517" lon="151.2907562">
  <ele>362.77</ele>
  <time>2026-09-01T19:58:45Z</time>
  <course>7.93</course>
  <speed>5.3198590206884235</speed>
  <fix>3d</fix>
</trkpt>
<trkpt lat="-27.2695308" lon="151.2907541">
  <ele>362.84</ele>
  <time>2026-09-01T19:58:45Z</time>
  <course>6.9</course>
  <speed>5.38</speed>
  <fix>3d</fix>
</trkpt>
<trkpt lat="-27.2695122" lon="151.2907568">
  <ele>362.77</ele>
  <time>2026-09-01T19:58:45Z</time>
  <course>7.93</course>
  <speed>5.300009433953868</speed>
  <fix>3d</fix>
</trkpt>
<trkpt lat="-27.2695212" lon="151.2907554">
  <ele>362.84</ele>
  <time>2026-09-01T19:58:45Z</time>
  <course>6.89</course>
  <speed>5.34</speed>
  <fix>3d</fix>
</trkpt>
<trkpt lat="-27.2695075" lon="151.2907574">
  <ele>362.77</ele>
  <time>2026-09-01T19:58:45Z</time>
  <course>7.93</course>
  <speed>5.280160982394381</speed>
  <fix>3d</fix>
</trkpt>
<trkpt lat="-27.2695212" lon="151.2907554">
  <ele>362.84</ele>
  <time>2026-09-01T19:58:45Z</time>
  <course>6.89</course>
  <speed>5.34</speed>
  <fix>3d</fix>
</trkpt>
<trkpt lat="-27.2695027" lon="151.2907581">
  <ele>362.77</ele>
  <time>2026-09-01T19:58:45Z</time>
  <course>7.93</course>
  <speed>5.269013190342191</speed>
  <fix>3d</fix>
</trkpt>
<trkpt lat="-27.2695117" lon="151.2907567">
  <ele>362.84</ele>
  <time>2026-09-01T19:58:45Z</time>
  <course>6.88</course>
  <speed>5.31</speed>
  <fix>3d</fix>
</trkpt>
<trkpt lat="-27.269498" lon="151.2907587">
  <ele>362.77</ele>
  <time>2026-09-01T19:58:45Z</time>
  <course>7.93</course>
  <speed>5.249161837855641</speed>
  <fix>3d</fix>
</trkpt>
<trkpt lat="-27.2695117" lon="151.2907567">
  <ele>362.84</ele>
  <time>2026-09-01T19:58:45Z</time>
  <course>6.88</course>
  <speed>5.31</speed>
  <fix>3d</fix>
</trkpt>
<trkpt lat="-27.2694933" lon="151.2907593">
  <ele>362.77</ele>
  <time>2026-09-01T19:58:45Z</time>
  <course>7.92</course>
  <speed>5.229311618176909</speed>
  <fix>3d</fix>
</trkpt>
<trkpt lat="-27.2695023" lon="151.290758">
  <ele>362.85</ele>
  <time>2026-09-01T19:58:45Z</time>
  <course>6.87</course>
  <speed>5.27</speed>
  <fix>3d</fix>
</trkpt>
<trkpt lat="-27.2694886" lon="151.29076">
  <ele>362.77</ele>
  <time>2026-09-01T19:58:45Z</time>
  <course>7.92</course>
  <speed>5.219386937179499</speed>
  <fix>3d</fix>
</trkpt>
<trkpt lat="-27.2695023" lon="151.290758">
  <ele>362.85</ele>
  <time>2026-09-01T19:58:45Z</time>
  <course>6.87</course>
  <speed>5.27</speed>
  <fix>3d</fix>
</trkpt>
<trkpt lat="-27.269484" lon="151.2907606">
  <ele>362.77</ele>
  <time>2026-09-01T19:58:45Z</time>
  <course>7.92</course>
  <speed>5.198317035349037</speed>
  <fix>3d</fix>
</trkpt>
<trkpt lat="-27.2694928" lon="151.2907593">
  <ele>362.85</ele>
  <time>2026-09-01T19:58:45Z</time>
  <course>6.85</course>
  <speed>5.24</speed>
  <fix>3d</fix>
</trkpt>
<trkpt lat="-27.2694793" lon="151.2907612">
  <ele>362.77</ele>
  <time>2026-09-01T19:58:45Z</time>
  <course>7.91</course>
  <speed>5.178465023537381</speed>
  <fix>3d</fix>
</trkpt>
<trkpt lat="-27.2694928" lon="151.2907593">
  <ele>362.85</ele>
  <time>2026-09-01T19:58:45Z</time>
  <course>6.85</course>
  <speed>5.24</speed>
  <fix>3d</fix>
</trkpt>
<trkpt lat="-27.2694747" lon="151.2907619">
  <ele>362.77</ele>
  <time>2026-09-01T19:58:45Z</time>
  <course>7.91</course>
  <speed>5.168539445530042</speed>
  <fix>3d</fix>
</trkpt>
<trkpt lat="-27.2694835" lon="151.2907606">
  <ele>362.85</ele>
  <time>2026-09-01T19:58:45Z</time>
  <course>6.84</course>
  <speed>5.21</speed>
  <fix>3d</fix>
</trkpt>
<trkpt lat="-27.2694701" lon="151.2907625">
  <ele>362.77</ele>
  <time>2026-09-01T19:58:45Z</time>
  <course>7.91</course>
  <speed>5.148689153561322</speed>
  <fix>3d</fix>
</trkpt>
<trkpt lat="-27.2694835" lon="151.2907606">
  <ele>362.85</ele>
  <time>2026-09-01T19:58:45Z</time>
  <course>6.84</course>
  <speed>5.21</speed>
  <fix>3d</fix>
</trkpt>
<trkpt lat="-27.2694655" lon="151.2907631">
  <ele>362.78</ele>
  <time>2026-09-01T19:58:45Z</time>
  <course>7.92</course>
  <speed>5.137548053303249</speed>
  <fix>3d</fix>
</trkpt>
<trkpt lat="-27.2694743" lon="151.2907618">
  <ele>362.85</ele>
  <time>2026-09-01T19:58:45Z</time>
  <course>6.83</course>
  <speed>5.17</speed>
  <fix>3d</fix>
</trkpt>
<trkpt lat="-27.2694609" lon="151.2907637">
  <ele>362.78</ele>
  <time>2026-09-01T19:58:45Z</time>
  <course>7.92</course>
  <speed>5.117694793556959</speed>
  <fix>3d</fix>
</trkpt>
<trkpt lat="-27.2694743" lon="151.2907618">
  <ele>362.85</ele>
  <time>2026-09-01T19:58:45Z</time>
  <course>6.83</course>
  <speed>5.17</speed>
  <fix>3d</fix>
</trkpt>
<trkpt lat="-27.2694563" lon="151.2907643">
  <ele>362.78</ele>
  <time>2026-09-01T19:58:45Z</time>
  <course>7.93</course>
  <speed>5.097842680977906</speed>
  <fix>3d</fix>
</trkpt>
<trkpt lat="-27.2694651" lon="151.2907631">
  <ele>362.85</ele>
  <time>2026-09-01T19:58:45Z</time>
  <course>6.82</course>
  <speed>5.14</speed>
  <fix>3d</fix>
</trkpt>
<trkpt lat="-27.2694517" lon="151.290765">
  <ele>362.78</ele>
  <time>2026-09-01T19:58:45Z</time>
  <course>7.93</course>
  <speed>5.0879170590724065</speed>
  <fix>3d</fix>
</trkpt>
<trkpt lat="-27.2694651" lon="151.2907631">
  <ele>362.85</ele>
  <time>2026-09-01T19:58:45Z</time>
  <course>6.82</course>
  <speed>5.14</speed>
  <fix>3d</fix>
</trkpt>
<trkpt lat="-27.2694472" lon="151.2907656">
  <ele>362.78</ele>
  <time>2026-09-01T19:58:45Z</time>
  <course>7.94</course>
  <speed>5.066853066746657</speed>
  <fix>3d</fix>
</trkpt>
<trkpt lat="-27.2694559" lon="151.2907642">
  <ele>362.85</ele>
  <time>2026-09-01T19:58:45Z</time>
  <course>6.82</course>
  <speed>5.11</speed>
  <fix>3d</fix>
</trkpt>
<trkpt lat="-27.2694426" lon="151.2907662">
  <ele>362.78</ele>
  <time>2026-09-01T19:58:45Z</time>
  <course>7.94</course>
  <speed>5.056925943693461</speed>
  <fix>3d</fix>
</trkpt>
<trkpt lat="-27.2694559" lon="151.2907642">
  <ele>362.85</ele>
  <time>2026-09-01T19:58:45Z</time>
  <course>6.82</course>
  <speed>5.11</speed>
  <fix>3d</fix>
</trkpt>
<trkpt lat="-27.2694381" lon="151.2907668">
  <ele>362.78</ele>
  <time>2026-09-01T19:58:45Z</time>
  <course>7.93</course>
  <speed>5.037072562510888</speed>
  <fix>3d</fix>
</trkpt>
<trkpt lat="-27.2694468" lon="151.2907655">
  <ele>362.84</ele>
  <time>2026-09-01T19:58:45Z</time>
  <course>6.8</course>
  <speed>5.08</speed>
  <fix>3d</fix>
</trkpt>
<trkpt lat="-27.2694336" lon="151.2907674">
  <ele>362.78</ele>
  <time>2026-09-01T19:58:45Z</time>
  <course>7.93</course>
  <speed>5.027146307797298</speed>
  <fix>3d</fix>
</trkpt>
<trkpt lat="-27.2694468" lon="151.2907655">
  <ele>362.84</ele>
  <time>2026-09-01T19:58:45Z</time>
  <course>6.8</course>
  <speed>5.08</speed>
  <fix>3d</fix>
</trkpt>
<trkpt lat="-27.2694291" lon="151.290768">
  <ele>362.78</ele>
  <time>2026-09-01T19:58:45Z</time>
  <course>7.92</course>
  <speed>5.007294678766169</speed>
  <fix>3d</fix>
</trkpt>
<trkpt lat="-27.2694378" lon="151.2907668">
  <ele>362.84</ele>
  <time>2026-09-01T19:58:45Z</time>
  <course>6.79</course>
  <speed>5.05</speed>
  <fix>3d</fix>
</trkpt>
<trkpt lat="-27.2694247" lon="151.2907686">
  <ele>362.77</ele>
  <time>2026-09-01T19:58:45Z</time>
  <course>7.92</course>
  <speed>4.996158524306449</speed>
  <fix>3d</fix>
</trkpt>
<trkpt lat="-27.2694378" lon="151.2907668">
  <ele>362.84</ele>
  <time>2026-09-01T19:58:45Z</time>
  <course>6.79</course>
  <speed>5.05</speed>
  <fix>3d</fix>
</trkpt>
<trkpt lat="-27.2694202" lon="151.2907692">
  <ele>362.77</ele>
  <time>2026-09-01T19:58:45Z</time>
  <course>7.91</course>
  <speed>4.976303849243934</speed>
  <fix>3d</fix>
</trkpt>
<trkpt lat="-27.2694288" lon="151.290768">
  <ele>362.84</ele>
  <time>2026-09-01T19:58:45Z</time>
  <course>6.77</course>
  <speed>5.02</speed>
  <fix>3d</fix>
</trkpt>
<trkpt lat="-27.2694157" lon="151.2907698">
  <ele>362.77</ele>
  <time>2026-09-01T19:58:45Z</time>
  <course>7.91</course>
  <speed>4.966376949044444</speed>
  <fix>3d</fix>
</trkpt>
<trkpt lat="-27.2694288" lon="151.290768">
  <ele>362.84</ele>
  <time>2026-09-01T19:58:45Z</time>
  <course>6.77</course>
  <speed>5.02</speed>
  <fix>3d</fix>
</trkpt>
<trkpt lat="-27.2694113" lon="151.2907704">
  <ele>362.76</ele>
  <time>2026-09-01T19:58:45Z</time>
  <course>7.91</course>
  <speed>4.946524032085562</speed>
  <fix>3d</fix>
</trkpt>
<trkpt lat="-27.2694198" lon="151.2907692">
  <ele>362.84</ele>
  <time>2026-09-01T19:58:45Z</time>
  <course>6.76</course>
  <speed>4.99</speed>
  <fix>3d</fix>
</trkpt>
<trkpt lat="-27.2694069" lon="151.290771">
  <ele>362.76</ele>
  <time>2026-09-01T19:58:45Z</time>
  <course>7.91</course>
  <speed>4.935392588234496</speed>
  <fix>3d</fix>
</trkpt>
<trkpt lat="-27.2694198" lon="151.2907692">
  <ele>362.84</ele>
  <time>2026-09-01T19:58:45Z</time>
  <course>6.76</course>
  <speed>4.99</speed>
  <fix>3d</fix>
</trkpt>
<trkpt lat="-27.2694025" lon="151.2907716">
  <ele>362.76</ele>
  <time>2026-09-01T19:58:45Z</time>
  <course>7.91</course>
  <speed>4.91553659329274</speed>
  <fix>3d</fix>
</trkpt>
<trkpt lat="-27.2694109" lon="151.2907703">
  <ele>362.84</ele>
  <time>2026-09-01T19:58:45Z</time>
  <course>6.75</course>
  <speed>4.96</speed>
  <fix>3d</fix>
</trkpt>
<trkpt lat="-27.2693981" lon="151.2907722">
  <ele>362.76</ele>
  <time>2026-09-01T19:58:45Z</time>
  <course>7.91</course>
  <speed>4.905609034564414</speed>
  <fix>3d</fix>
</trkpt>
<trkpt lat="-27.2694109" lon="151.2907703">
  <ele>362.84</ele>
  <time>2026-09-01T19:58:45Z</time>
  <course>6.75</course>
  <speed>4.96</speed>
  <fix>3d</fix>
</trkpt>
<trkpt lat="-27.2693936" lon="151.2907728">
  <ele>362.76</ele>
  <time>2026-09-01T19:58:45Z</time>
  <course>7.91</course>
  <speed>4.885754803507847</speed>
  <fix>3d</fix>
</trkpt>
<trkpt lat="-27.2694021" lon="151.2907715">
  <ele>362.84</ele>
  <time>2026-09-01T19:58:45Z</time>
  <course>6.74</course>
  <speed>4.93</speed>
  <fix>3d</fix>
</trkpt>
<trkpt lat="-27.2693893" lon="151.2907733">
  <ele>362.75</ele>
  <time>2026-09-01T19:58:45Z</time>
  <course>7.91</course>
  <speed>4.8758281347890025</speed>
  <fix>3d</fix>
</trkpt>
<trkpt lat="-27.2694021" lon="151.2907715">
  <ele>362.84</ele>
  <time>2026-09-01T19:58:45Z</time>
  <course>6.74</course>
  <speed>4.93</speed>
  <fix>3d</fix>
</trkpt>
<trkpt lat="-27.2693849" lon="151.2907739">
  <ele>362.75</ele>
  <time>2026-09-01T19:58:45Z</time>
  <course>7.91</course>
  <speed>4.85477084938105</speed>
  <fix>3d</fix>
</trkpt>
<trkpt lat="-27.2693933" lon="151.2907727">
  <ele>362.84</ele>
  <time>2026-09-01T19:58:45Z</time>
  <course>6.73</course>
  <speed>4.9</speed>
  <fix>3d</fix>
</trkpt>
<trkpt lat="-27.2693806" lon="151.2907745">
  <ele>362.75</ele>
  <time>2026-09-01T19:58:45Z</time>
  <course>7.91</course>
  <speed>4.844842618702902</speed>
  <fix>3d</fix>
</trkpt>
<trkpt lat="-27.2693933" lon="151.2907727">
  <ele>362.84</ele>
  <time>2026-09-01T19:58:45Z</time>
  <course>6.73</course>
  <speed>4.9</speed>
  <fix>3d</fix>
</trkpt>
<trkpt lat="-27.2693763" lon="151.2907751">
  <ele>362.75</ele>
  <time>2026-09-01T19:58:45Z</time>
  <course>7.91</course>
  <speed>4.824987046614736</speed>
  <fix>3d</fix>
</trkpt>
<trkpt lat="-27.2693846" lon="151.2907738">
  <ele>362.84</ele>
  <time>2026-09-01T19:58:45Z</time>
  <course>6.71</course>
  <speed>4.87</speed>
  <fix>3d</fix>
</trkpt>
<trkpt lat="-27.269372" lon="151.2907756">
  <ele>362.75</ele>
  <time>2026-09-01T19:58:45Z</time>
  <course>7.91</course>
  <speed>4.81505970887174</speed>
  <fix>3d</fix>
</trkpt>
<trkpt lat="-27.2693846" lon="151.2907738">
  <ele>362.84</ele>
  <time>2026-09-01T19:58:45Z</time>
  <course>6.71</course>
  <speed>4.87</speed>
  <fix>3d</fix>
</trkpt>
<trkpt lat="-27.2693677" lon="151.2907762">
  <ele>362.75</ele>
  <time>2026-09-01T19:58:45Z</time>
  <course>7.91</course>
  <speed>4.805132672465975</speed>
  <fix>3d</fix>
</trkpt>
<trkpt lat="-27.269376" lon="151.290775">
  <ele>362.84</ele>
  <time>2026-09-01T19:58:45Z</time>
  <course>6.7</course>
  <speed>4.84</speed>
  <fix>3d</fix>
</trkpt>
<trkpt lat="-27.2693634" lon="151.2907768">
  <ele>362.76</ele>
  <time>2026-09-01T19:58:45Z</time>
  <course>7.91</course>
  <speed>4.7840777585653855</speed>
  <fix>3d</fix>
</trkpt>
<trkpt lat="-27.269376" lon="151.290775">
  <ele>362.84</ele>
  <time>2026-09-01T19:58:45Z</time>
  <course>6.7</course>
  <speed>4.84</speed>
  <fix>3d</fix>
</trkpt>
<trkpt lat="-27.2693591" lon="151.2907773">
  <ele>362.76</ele>
  <time>2026-09-01T19:58:45Z</time>
  <course>7.91</course>
  <speed>4.774149138851865</speed>
  <fix>3d</fix>
</trkpt>
<trkpt lat="-27.2693674" lon="151.2907761">
  <ele>362.84</ele>
  <time>2026-09-01T19:58:45Z</time>
  <course>6.69</course>
  <speed>4.82</speed>
  <fix>3d</fix>
</trkpt>
<trkpt lat="-27.2693548" lon="151.2907779">
  <ele>362.76</ele>
  <time>2026-09-01T19:58:45Z</time>
  <course>7.91</course>
  <speed>4.754292797041427</speed>
  <fix>3d</fix>
</trkpt>
<trkpt lat="-27.2693674" lon="151.2907761">
  <ele>362.84</ele>
  <time>2026-09-01T19:58:45Z</time>
  <course>6.69</course>
  <speed>4.82</speed>
  <fix>3d</fix>
</trkpt>
<trkpt lat="-27.2693506" lon="151.2907785">
  <ele>362.76</ele>
  <time>2026-09-01T19:58:45Z</time>
  <course>7.91</course>
  <speed>4.744365078701259</speed>
  <fix>3d</fix>
</trkpt>
<trkpt lat="-27.2693588" lon="151.2907772">
  <ele>362.84</ele>
  <time>2026-09-01T19:58:45Z</time>
  <course>6.69</course>
  <speed>4.79</speed>
  <fix>3d</fix>
</trkpt>
<trkpt lat="-27.2693463" lon="151.290779">
  <ele>362.76</ele>
  <time>2026-09-01T19:58:45Z</time>
  <course>7.91</course>
  <speed>4.72451055666087</speed>
  <fix>3d</fix>
</trkpt>
<trkpt lat="-27.2693588" lon="151.2907772">
  <ele>362.84</ele>
  <time>2026-09-01T19:58:45Z</time>
  <course>6.69</course>
  <speed>4.79</speed>
  <fix>3d</fix>
</trkpt>
<trkpt lat="-27.2693421" lon="151.2907796">
  <ele>362.76</ele>
  <time>2026-09-01T19:58:45Z</time>
  <course>7.91</course>
  <speed>4.713385195377097</speed>
  <fix>3d</fix>
</trkpt>
<trkpt lat="-27.2693502" lon="151.2907784">
  <ele>362.85</ele>
  <time>2026-09-01T19:58:45Z</time>
  <course>6.69</course>
  <speed>4.76</speed>
  <fix>3d</fix>
</trkpt>
<trkpt lat="-27.2693379" lon="151.2907801">
  <ele>362.76</ele>
  <time>2026-09-01T19:58:45Z</time>
  <course>7.91</course>
  <speed>4.703456176047567</speed>
  <fix>3d</fix>
</trkpt>
<trkpt lat="-27.2693502" lon="151.2907784">
  <ele>362.85</ele>
  <time>2026-09-01T19:58:45Z</time>
  <course>6.69</course>
  <speed>4.76</speed>
  <fix>3d</fix>
</trkpt>
<trkpt lat="-27.2693337" lon="151.2907807">
  <ele>362.76</ele>
  <time>2026-09-01T19:58:45Z</time>
  <course>7.91</course>
  <speed>4.683599043470736</speed>
  <fix>3d</fix>
</trkpt>
<trkpt lat="-27.2693417" lon="151.2907795">
  <ele>362.85</ele>
  <time>2026-09-01T19:58:45Z</time>
  <course>6.68</course>
  <speed>4.73</speed>
  <fix>3d</fix>
</trkpt>
<trkpt lat="-27.2693295" lon="151.2907812">
  <ele>362.77</ele>
  <time>2026-09-01T19:58:45Z</time>
  <course>7.91</course>
  <speed>4.6736709340731295</speed>
  <fix>3d</fix>
</trkpt>
<trkpt lat="-27.2693417" lon="151.2907795">
  <ele>362.85</ele>
  <time>2026-09-01T19:58:45Z</time>
  <course>6.68</course>
  <speed>4.73</speed>
  <fix>3d</fix>
</trkpt>
<trkpt lat="-27.2693253" lon="151.2907818">
  <ele>362.77</ele>
  <time>2026-09-01T19:58:45Z</time>
  <course>7.91</course>
  <speed>4.662552948761011</speed>
  <fix>3d</fix>
</trkpt>
<trkpt lat="-27.2693333" lon="151.2907806">
  <ele>362.85</ele>
  <time>2026-09-01T19:58:45Z</time>
  <course>6.66</course>
  <speed>4.71</speed>
  <fix>3d</fix>
</trkpt>
<trkpt lat="-27.2693211" lon="151.2907823">
  <ele>362.77</ele>
  <time>2026-09-01T19:58:45Z</time>
  <course>7.91</course>
  <speed>4.652622916162452</speed>
  <fix>3d</fix>
</trkpt>
<trkpt lat="-27.2693333" lon="151.2907806">
  <ele>362.85</ele>
  <time>2026-09-01T19:58:45Z</time>
  <course>6.66</course>
  <speed>4.71</speed>
  <fix>3d</fix>
</trkpt>
<trkpt lat="-27.2693169" lon="151.2907829">
  <ele>362.77</ele>
  <time>2026-09-01T19:58:45Z</time>
  <course>7.91</course>
  <speed>4.6327637539594</speed>
  <fix>3d</fix>
</trkpt>
<trkpt lat="-27.2693249" lon="151.2907817">
  <ele>362.86</ele>
  <time>2026-09-01T19:58:45Z</time>
  <course>6.64</course>
  <speed>4.68</speed>
  <fix>3d</fix>
</trkpt>
<trkpt lat="-27.2693128" lon="151.2907834">
  <ele>362.77</ele>
  <time>2026-09-01T19:58:45Z</time>
  <course>7.91</course>
  <speed>4.622834628234067</speed>
  <fix>3d</fix>
</trkpt>
<trkpt lat="-27.2693249" lon="151.2907817">
  <ele>362.86</ele>
  <time>2026-09-01T19:58:45Z</time>
  <course>6.64</course>
  <speed>4.68</speed>
  <fix>3d</fix>
</trkpt>
<trkpt lat="-27.2693086" lon="151.290784">
  <ele>362.77</ele>
  <time>2026-09-01T19:58:45Z</time>
  <course>7.9</course>
  <speed>4.6117241894978935</speed>
  <fix>3d</fix>
</trkpt>
<trkpt lat="-27.2693166" lon="151.2907828">
  <ele>362.86</ele>
  <time>2026-09-01T19:58:45Z</time>
  <course>6.61</course>
  <speed>4.66</speed>
  <fix>3d</fix>
</trkpt>
<trkpt lat="-27.2693045" lon="151.2907845">
  <ele>362.77</ele>
  <time>2026-09-01T19:58:45Z</time>
  <course>7.9</course>
  <speed>4.591862367275396</speed>
  <fix>3d</fix>
</trkpt>
<trkpt lat="-27.2693166" lon="151.2907828">
  <ele>362.86</ele>
  <time>2026-09-01T19:58:45Z</time>
  <course>6.61</course>
  <speed>4.66</speed>
  <fix>3d</fix>
</trkpt>
<trkpt lat="-27.2693004" lon="151.290785">
  <ele>362.77</ele>
  <time>2026-09-01T19:58:45Z</time>
  <course>7.9</course>
  <speed>4.581931906958024</speed>
  <fix>3d</fix>
</trkpt>
<trkpt lat="-27.2693083" lon="151.2907839">
  <ele>362.86</ele>
  <time>2026-09-01T19:58:45Z</time>
  <course>6.59</course>
  <speed>4.63</speed>
  <fix>3d</fix>
</trkpt>
<trkpt lat="-27.2692963" lon="151.2907856">
  <ele>362.77</ele>
  <time>2026-09-01T19:58:45Z</time>
  <course>7.9</course>
  <speed>4.572001749780942</speed>
  <fix>3d</fix>
</trkpt>
<trkpt lat="-27.2693083" lon="151.2907839">
  <ele>362.86</ele>
  <time>2026-09-01T19:58:45Z</time>
  <course>6.59</course>
  <speed>4.63</speed>
  <fix>3d</fix>
</trkpt>
<trkpt lat="-27.2692922" lon="151.2907861">
  <ele>362.77</ele>
  <time>2026-09-01T19:58:45Z</time>
  <course>7.9</course>
  <speed>4.562071897723665</speed>
  <fix>3d</fix>
</trkpt>
<trkpt lat="-27.2693" lon="151.2907849">
  <ele>362.86</ele>
  <time>2026-09-01T19:58:45Z</time>
  <course>6.57</course>
  <speed>4.61</speed>
  <fix>3d</fix>
</trkpt>
<trkpt lat="-27.2692881" lon="151.2907866">
  <ele>362.77</ele>
  <time>2026-09-01T19:58:45Z</time>
  <course>7.9</course>
  <speed>4.550966930224829</speed>
  <fix>3d</fix>
</trkpt>
<trkpt lat="-27.2693" lon="151.2907849">
  <ele>362.86</ele>
  <time>2026-09-01T19:58:45Z</time>
  <course>6.57</course>
  <speed>4.61</speed>
  <fix>3d</fix>
</trkpt>
<trkpt lat="-27.269284" lon="151.2907872">
  <ele>362.77</ele>
  <time>2026-09-01T19:58:45Z</time>
  <course>7.9</course>
  <speed>4.531103618325231</speed>
  <fix>3d</fix>
</trkpt>
<trkpt lat="-27.2692918" lon="151.290786">
  <ele>362.86</ele>
  <time>2026-09-01T19:58:45Z</time>
  <course>6.56</course>
  <speed>4.58</speed>
  <fix>3d</fix>
</trkpt>
<trkpt lat="-27.26928" lon="151.2907877">
  <ele>362.77</ele>
  <time>2026-09-01T19:58:45Z</time>
  <course>7.9</course>
  <speed>4.5211724143191</speed>
  <fix>3d</fix>
</trkpt>
<trkpt lat="-27.2692918" lon="151.290786">
  <ele>362.86</ele>
  <time>2026-09-01T19:58:45Z</time>
  <course>6.56</course>
  <speed>4.58</speed>
  <fix>3d</fix>
</trkpt>
<trkpt lat="-27.2692759" lon="151.2907882">
  <ele>362.77</ele>
  <time>2026-09-01T19:58:45Z</time>
  <course>7.9</course>
  <speed>4.5211724143191</speed>
  <fix>3d</fix>
</trkpt>
<trkpt lat="-27.2692836" lon="151.2907871">
  <ele>362.86</ele>
  <time>2026-09-01T19:58:45Z</time>
  <course>6.55</course>
  <speed>4.56</speed>
  <fix>3d</fix>
</trkpt>
<trkpt lat="-27.2692718" lon="151.2907887">
  <ele>362.77</ele>
  <time>2026-09-01T19:58:45Z</time>
  <course>7.9</course>
  <speed>4.562071897723665</speed>
  <fix>3d</fix>
</trkpt>
<trkpt lat="-27.2692836" lon="151.2907871">
  <ele>362.86</ele>
  <time>2026-09-01T19:58:45Z</time>
  <course>6.55</course>
  <speed>4.56</speed>
  <fix>3d</fix>
</trkpt>
<trkpt lat="-27.2692677" lon="151.2907893">
  <ele>362.77</ele>
  <time>2026-09-01T19:58:45Z</time>
  <course>7.9</course>
  <speed>4.662552948761011</speed>
  <fix>3d</fix>
</trkpt>
<trkpt lat="-27.2692755" lon="151.2907881">
  <ele>362.86</ele>
  <time>2026-09-01T19:58:45Z</time>
  <course>6.54</course>
  <speed>4.56</speed>
  <fix>3d</fix>
</trkpt>
<trkpt lat="-27.2692634" lon="151.2907898">
  <ele>362.78</ele>
  <time>2026-09-01T19:58:45Z</time>
  <course>7.93</course>
  <speed>4.823795186365192</speed>
  <fix>3d</fix>
</trkpt>
<trkpt lat="-27.2692755" lon="151.2907881">
  <ele>362.86</ele>
  <time>2026-09-01T19:58:45Z</time>
  <course>6.54</course>
  <speed>4.56</speed>
  <fix>3d</fix>
</trkpt>
<trkpt lat="-27.269259" lon="151.2907904">
  <ele>362.78</ele>
  <time>2026-09-01T19:58:45Z</time>
  <course>7.98</course>
  <speed>5.0458002338578565</speed>
  <fix>3d</fix>
</trkpt>
<trkpt lat="-27.2692673" lon="151.2907892">
  <ele>362.86</ele>
  <time>2026-09-01T19:58:45Z</time>
  <course>6.58</course>
  <speed>4.71</speed>
  <fix>3d</fix>
</trkpt>
<trkpt lat="-27.2692543" lon="151.290791">
  <ele>362.79</ele>
  <time>2026-09-01T19:58:45Z</time>
  <course>8.02</course>
  <speed>5.3385016624517405</speed>
  <fix>3d</fix>
</trkpt>
<trkpt lat="-27.2692673" lon="151.2907892">
  <ele>362.86</ele>
  <time>2026-09-01T19:58:45Z</time>
  <course>6.58</course>
  <speed>4.71</speed>
  <fix>3d</fix>
</trkpt>
<trkpt lat="-27.2692494" lon="151.2907917">
  <ele>362.79</ele>
  <time>2026-09-01T19:58:45Z</time>
  <course>8.01</course>
  <speed>5.691976809510031</speed>
  <fix>3d</fix>
</trkpt>
<trkpt lat="-27.2692585" lon="151.2907903">
  <ele>362.87</ele>
  <time>2026-09-01T19:58:45Z</time>
  <course>6.67</course>
  <speed>5.09</speed>
  <fix>3d</fix>
</trkpt>
<trkpt lat="-27.2692441" lon="151.2907924">
  <ele>362.79</ele>
  <time>2026-09-01T19:58:45Z</time>
  <course>7.93</course>
  <speed>6.106234518915892</speed>
  <fix>3d</fix>
</trkpt>
<trkpt lat="-27.2692585" lon="151.2907903">
  <ele>362.87</ele>
  <time>2026-09-01T19:58:45Z</time>
  <course>6.67</course>
  <speed>5.09</speed>
  <fix>3d</fix>
</trkpt>
<trkpt lat="-27.2692384" lon="151.2907932">
  <ele>362.8</ele>
  <time>2026-09-01T19:58:45Z</time>
  <course>7.85</course>
  <speed>6.5912062628930075</speed>
  <fix>3d</fix>
</trkpt>
<trkpt lat="-27.2692489" lon="151.2907915">
  <ele>362.87</ele>
  <time>2026-09-01T19:58:45Z</time>
  <course>6.78</course>
  <speed>5.73</speed>
  <fix>3d</fix>
</trkpt>
<trkpt lat="-27.2692323" lon="151.290794">
  <ele>362.8</ele>
  <time>2026-09-01T19:58:45Z</time>
  <course>7.79</course>
  <speed>7.115876615006755</speed>
  <fix>3d</fix>
</trkpt>
<trkpt lat="-27.2692489" lon="151.2907915">
  <ele>362.87</ele>
  <time>2026-09-01T19:58:45Z</time>
  <course>6.78</course>
  <speed>5.73</speed>
  <fix>3d</fix>
</trkpt>
<trkpt lat="-27.2692257" lon="151.2907949">
  <ele>362.81</ele>
  <time>2026-09-01T19:58:45Z</time>
  <course>7.95</course>
  <speed>7.650470573762114</speed>
  <fix>3d</fix>
</trkpt>
<trkpt lat="-27.2692379" lon="151.290793">
  <ele>362.88</ele>
  <time>2026-09-01T19:58:45Z</time>
  <course>6.88</course>
  <speed>6.62</speed>
  <fix>3d</fix>
</trkpt>
<trkpt lat="-27.2692186" lon="151.2907959">
  <ele>362.82</ele>
  <time>2026-09-01T19:58:45Z</time>
  <course>8.19</course>
  <speed>8.196249142138127</speed>
  <fix>3d</fix>
</trkpt>
<trkpt lat="-27.2692379" lon="151.290793">
  <ele>362.88</ele>
  <time>2026-09-01T19:58:45Z</time>
  <course>6.88</course>
  <speed>6.62</speed>
  <fix>3d</fix>
</trkpt>
<trkpt lat="-27.269211" lon="151.290797">
  <ele>362.83</ele>
  <time>2026-09-01T19:58:45Z</time>
  <course>8.0</course>
  <speed>8.744626921715986</speed>
  <fix>3d</fix>
</trkpt>
<trkpt lat="-27.2692252" lon="151.2907948">
  <ele>362.88</ele>
  <time>2026-09-01T19:58:45Z</time>
  <course>7.02</course>
  <speed>7.65</speed>
  <fix>3d</fix>
</trkpt>
<trkpt lat="-27.269203" lon="151.2907982">
  <ele>362.84</ele>
  <time>2026-09-01T19:58:45Z</time>
  <course>7.39</course>
  <speed>9.293099590556425</speed>
  <fix>3d</fix>
</trkpt>
<trkpt lat="-27.2692252" lon="151.2907948">
  <ele>362.88</ele>
  <time>2026-09-01T19:58:45Z</time>
  <course>7.02</course>
  <speed>7.65</speed>
  <fix>3d</fix>
</trkpt>
<trkpt lat="-27.2691944" lon="151.2907994">
  <ele>362.87</ele>
  <time>2026-09-01T19:58:45Z</time>
  <course>6.8</course>
  <speed>9.827700646641613</speed>
  <fix>3d</fix>
</trkpt>
<trkpt lat="-27.2692106" lon="151.2907968">
  <ele>362.9</ele>
  <time>2026-09-01T19:58:45Z</time>
  <course>7.28</course>
  <speed>8.74</speed>
  <fix>3d</fix>
</trkpt>
<trkpt lat="-27.2691854" lon="151.2908008">
  <ele>362.91</ele>
  <time>2026-09-01T19:58:45Z</time>
  <course>6.16</course>
  <speed>10.347134869131649</speed>
  <fix>3d</fix>
</trkpt>
<trkpt lat="-27.2692106" lon="151.2907968">
  <ele>362.9</ele>
  <time>2026-09-01T19:58:45Z</time>
  <course>7.28</course>
  <speed>8.74</speed>
  <fix>3d</fix>
</trkpt>
<trkpt lat="-27.269176" lon="151.2908021">
  <ele>362.95</ele>
  <time>2026-09-01T19:58:45Z</time>
  <course>5.39</course>
  <speed>10.851810908783841</speed>
  <fix>3d</fix>
</trkpt>
<trkpt lat="-27.269194" lon="151.2907993">
  <ele>362.95</ele>
  <time>2026-09-01T19:58:45Z</time>
  <course>7.34</course>
  <speed>9.82</speed>
  <fix>3d</fix>
</trkpt>
<trkpt lat="-27.2691661" lon="151.2908034">
  <ele>363.02</ele>
  <time>2026-09-01T19:58:45Z</time>
  <course>4.68</course>
  <speed>11.351268651564899</speed>
  <fix>3d</fix>
</trkpt>
<trkpt lat="-27.269194" lon="151.2907993">
  <ele>362.95</ele>
  <time>2026-09-01T19:58:45Z</time>
  <course>7.34</course>
  <speed>9.82</speed>
  <fix>3d</fix>
</trkpt>
<trkpt lat="-27.2691557" lon="151.2908046">
  <ele>363.09</ele>
  <time>2026-09-01T19:58:45Z</time>
  <course>3.8</course>
  <speed>11.836975965169483</speed>
  <fix>3d</fix>
</trkpt>
<trkpt lat="-27.2691755" lon="151.2908019">
  <ele>363.03</ele>
  <time>2026-09-01T19:58:45Z</time>
  <course>6.74</course>
  <speed>10.85</speed>
  <fix>3d</fix>
</trkpt>
<trkpt lat="-27.2691449" lon="151.2908056">
  <ele>363.18</ele>
  <time>2026-09-01T19:58:45Z</time>
  <course>2.79</course>
  <speed>12.31068235314355</speed>
  <fix>3d</fix>
</trkpt>
<trkpt lat="-27.2691755" lon="151.2908019">
  <ele>363.03</ele>
  <time>2026-09-01T19:58:45Z</time>
  <course>6.74</course>
  <speed>10.85</speed>
  <fix>3d</fix>
</trkpt>
<trkpt lat="-27.2691337" lon="151.2908065">
  <ele>363.28</ele>
  <time>2026-09-01T19:58:45Z</time>
  <course>1.82</course>
  <speed>12.765093027471442</speed>
  <fix>3d</fix>
</trkpt>
<trkpt lat="-27.2691553" lon="151.2908043">
  <ele>363.16</ele>
  <time>2026-09-01T19:58:45Z</time>
  <course>5.38</course>
  <speed>11.83</speed>
  <fix>3d</fix>
</trkpt>
<trkpt lat="-27.269122" lon="151.2908071">
  <ele>363.38</ele>
  <time>2026-09-01T19:58:45Z</time>
  <course>0.99</course>
  <speed>13.211453364410746</speed>
  <fix>3d</fix>
</trkpt>
<trkpt lat="-27.2691553" lon="151.2908043">
  <ele>363.16</ele>
  <time>2026-09-01T19:58:45Z</time>
  <course>5.38</course>
  <speed>11.83</speed>
  <fix>3d</fix>
</trkpt>
<trkpt lat="-27.2691101" lon="151.2908075">
  <ele>363.5</ele>
  <time>2026-09-01T19:58:45Z</time>
  <course>0.23</course>
  <speed>13.632673985686008</speed>
  <fix>3d</fix>
</trkpt>
<trkpt lat="-27.2691332" lon="151.2908062">
  <ele>363.34</ele>
  <time>2026-09-01T19:58:45Z</time>
  <course>3.37</course>
  <speed>12.76</speed>
  <fix>3d</fix>
</trkpt>
<trkpt lat="-27.2690976" lon="151.2908076">
  <ele>363.62</ele>
  <time>2026-09-01T19:58:45Z</time>
  <course>359.4</course>
  <speed>14.060032005653472</speed>
  <fix>3d</fix>
</trkpt>
<trkpt lat="-27.2691332" lon="151.2908062">
  <ele>363.34</ele>
  <time>2026-09-01T19:58:45Z</time>
  <course>3.37</course>
  <speed>12.76</speed>
  <fix>3d</fix>
</trkpt>
<trkpt lat="-27.2690848" lon="151.2908073">
  <ele>363.74</ele>
  <time>2026-09-01T19:58:45Z</time>
  <course>358.44</course>
  <speed>14.464732973684653</speed>
  <fix>3d</fix>
</trkpt>
<trkpt lat="-27.2691095" lon="151.2908072">
  <ele>363.55</ele>
  <time>2026-09-01T19:58:45Z</time>
  <course>0.98</course>
  <speed>13.64</speed>
  <fix>3d</fix>
</trkpt>
<trkpt lat="-27.2690717" lon="151.2908068">
  <ele>363.87</ele>
  <time>2026-09-01T19:58:45Z</time>
  <course>357.47</course>
  <speed>14.867444299542543</speed>
  <fix>3d</fix>
</trkpt>
<trkpt lat="-27.2691095" lon="151.2908072">
  <ele>363.55</ele>
  <time>2026-09-01T19:58:45Z</time>
  <course>0.98</course>
  <speed>13.64</speed>
  <fix>3d</fix>
</trkpt>
<trkpt lat="-27.269058" lon="151.2908059">
  <ele>364.0</ele>
  <time>2026-09-01T19:58:45Z</time>
  <course>356.58</course>
  <speed>15.25826988881767</speed>
  <fix>3d</fix>
</trkpt>
<trkpt lat="-27.2690842" lon="151.2908071">
  <ele>363.79</ele>
  <time>2026-09-01T19:58:45Z</time>
  <course>358.41</course>
  <speed>14.48</speed>
  <fix>3d</fix>
</trkpt>
<trkpt lat="-27.2690442" lon="151.2908046">
  <ele>364.13</ele>
  <time>2026-09-01T19:58:45Z</time>
  <course>355.71</course>
  <speed>15.637371901953346</speed>
  <fix>3d</fix>
</trkpt>
<trkpt lat="-27.2690842" lon="151.2908071">
  <ele>363.79</ele>
  <time>2026-09-01T19:58:45Z</time>
  <course>358.41</course>
  <speed>14.48</speed>
  <fix>3d</fix>
</trkpt>
<trkpt lat="-27.26903" lon="151.2908029">
  <ele>364.25</ele>
  <time>2026-09-01T19:58:45Z</time>
  <course>354.8</course>
  <speed>16.003824542902237</speed>
  <fix>3d</fix>
</trkpt>
<trkpt lat="-27.2690575" lon="151.2908057">
  <ele>364.04</ele>
  <time>2026-09-01T19:58:45Z</time>
  <course>355.85</course>
  <speed>15.28</speed>
  <fix>3d</fix>
</trkpt>
<trkpt lat="-27.2690155" lon="151.2908008">
  <ele>364.38</ele>
  <time>2026-09-01T19:58:45Z</time>
  <course>353.75</course>
  <speed>16.367177520880013</speed>
  <fix>3d</fix>
</trkpt>
<trkpt lat="-27.2690575" lon="151.2908057">
  <ele>364.04</ele>
  <time>2026-09-01T19:58:45Z</time>
  <course>355.85</course>
  <speed>15.28</speed>
  <fix>3d</fix>
</trkpt>
<trkpt lat="-27.2690008" lon="151.2907984">
  <ele>364.5</ele>
  <time>2026-09-01T19:58:45Z</time>
  <course>352.7</course>
  <speed>16.718711074721043</speed>
  <fix>3d</fix>
</trkpt>
<trkpt lat="-27.2690295" lon="151.2908027">
  <ele>364.29</ele>
  <time>2026-09-01T19:58:45Z</time>
  <course>353.42</course>
  <speed>16.03</speed>
  <fix>3d</fix>
</trkpt>
<trkpt lat="-27.2689858" lon="151.2907956">
  <ele>364.62</ele>
  <time>2026-09-01T19:58:45Z</time>
  <course>351.59</course>
  <speed>17.05703667112198</speed>
  <fix>3d</fix>
</trkpt>
<trkpt lat="-27.2690295" lon="151.2908027">
  <ele>364.29</ele>
  <time>2026-09-01T19:58:45Z</time>
  <course>353.42</course>
  <speed>16.03</speed>
  <fix>3d</fix>
</trkpt>
<trkpt lat="-27.2689706" lon="151.2907924">
  <ele>364.73</ele>
  <time>2026-09-01T19:58:45Z</time>
  <course>350.44</course>
  <speed>17.395614389839757</speed>
  <fix>3d</fix>
</trkpt>
<trkpt lat="-27.2690003" lon="151.2907983">
  <ele>364.53</ele>
  <time>2026-09-01T19:58:45Z</time>
  <course>351.12</course>
  <speed>16.74</speed>
  <fix>3d</fix>
</trkpt>
<trkpt lat="-27.2689552" lon="151.2907888">
  <ele>364.83</ele>
  <time>2026-09-01T19:58:45Z</time>
  <course>349.24</course>
  <speed>17.721312028176694</speed>
  <fix>3d</fix>
</trkpt>
<trkpt lat="-27.2690003" lon="151.2907983">
  <ele>364.53</ele>
  <time>2026-09-01T19:58:45Z</time>
  <course>351.12</course>
  <speed>16.74</speed>
  <fix>3d</fix>
</trkpt>
<trkpt lat="-27.2689395" lon="151.2907848">
  <ele>364.93</ele>
  <time>2026-09-01T19:58:45Z</time>
  <course>347.91</course>
  <speed>18.036299509600077</speed>
  <fix>3d</fix>
</trkpt>
<trkpt lat="-27.2689701" lon="151.2907923">
  <ele>364.75</ele>
  <time>2026-09-01T19:58:45Z</time>
  <course>348.88</course>
  <speed>17.42</speed>
  <fix>3d</fix>
</trkpt>
<trkpt lat="-27.2689237" lon="151.2907804">
  <ele>365.03</ele>
  <time>2026-09-01T19:58:45Z</time>
  <course>346.53</course>
  <speed>18.336370960470887</speed>
  <fix>3d</fix>
</trkpt>
<trkpt lat="-27.2689701" lon="151.2907923">
  <ele>364.75</ele>
  <time>2026-09-01T19:58:45Z</time>
  <course>348.88</course>
  <speed>17.42</speed>
  <fix>3d</fix>
</trkpt>
<trkpt lat="-27.2689076" lon="151.2907755">
  <ele>365.12</ele>
  <time>2026-09-01T19:58:45Z</time>
  <course>345.14</course>
  <speed>18.642652708238707</speed>
  <fix>3d</fix>
</trkpt>
<trkpt lat="-27.2689389" lon="151.2907846">
  <ele>364.96</ele>
  <time>2026-09-01T19:58:45Z</time>
  <course>346.61</course>
  <speed>18.07</speed>
  <fix>3d</fix>
</trkpt>
<trkpt lat="-27.2688914" lon="151.2907701">
  <ele>365.21</ele>
  <time>2026-09-01T19:58:45Z</time>
  <course>343.77</course>
  <speed>18.928100802774694</speed>
  <fix>3d</fix>
</trkpt>
<trkpt lat="-27.2689389" lon="151.2907846">
  <ele>364.96</ele>
  <time>2026-09-01T19:58:45Z</time>
  <course>346.61</course>
  <speed>18.07</speed>
  <fix>3d</fix>
</trkpt>
<trkpt lat="-27.2688751" lon="151.2907642">
  <ele>365.29</ele>
  <time>2026-09-01T19:58:45Z</time>
  <course>342.38</course>
  <speed>19.201416614406345</speed>
  <fix>3d</fix>
</trkpt>
<trkpt lat="-27.268907" lon="151.2907753">
  <ele>365.14</ele>
  <time>2026-09-01T19:58:45Z</time>
  <course>344.17</course>
  <speed>18.67</speed>
  <fix>3d</fix>
</trkpt>
<trkpt lat="-27.2688587" lon="151.2907577">
  <ele>365.38</ele>
  <time>2026-09-01T19:58:45Z</time>
  <course>340.82</course>
  <speed>19.47605709582923</speed>
  <fix>3d</fix>
</trkpt>
<trkpt lat="-27.268907" lon="151.2907753">
  <ele>365.14</ele>
  <time>2026-09-01T19:58:45Z</time>
  <course>344.17</course>
  <speed>18.67</speed>
  <fix>3d</fix>
</trkpt>
<trkpt lat="-27.2688423" lon="151.2907506">
  <ele>365.47</ele>
  <time>2026-09-01T19:58:45Z</time>
  <course>339.03</course>
  <speed>19.733871895803926</speed>
  <fix>3d</fix>
</trkpt>
<trkpt lat="-27.2688745" lon="151.290764">
  <ele>365.31</ele>
  <time>2026-09-01T19:58:45Z</time>
  <course>341.35</course>
  <speed>19.24</speed>
  <fix>3d</fix>
</trkpt>
<trkpt lat="-27.2688258" lon="151.2907428">
  <ele>365.56</ele>
  <time>2026-09-01T19:58:45Z</time>
  <course>337.04</course>
  <speed>19.97400560728869</speed>
  <fix>3d</fix>
</trkpt>
<trkpt lat="-27.2688745" lon="151.290764">
  <ele>365.31</ele>
  <time>2026-09-01T19:58:45Z</time>
  <course>341.35</course>
  <speed>19.24</speed>
  <fix>3d</fix>
</trkpt>
<trkpt lat="-27.2688095" lon="151.2907344">
  <ele>365.66</ele>
  <time>2026-09-01T19:58:45Z</time>
  <course>335.01</course>
  <speed>20.22048960831562</speed>
  <fix>3d</fix>
</trkpt>
<trkpt lat="-27.2688416" lon="151.2907503">
  <ele>365.49</ele>
  <time>2026-09-01T19:58:45Z</time>
  <course>338.05</course>
  <speed>19.77</speed>
  <fix>3d</fix>
</trkpt>
<trkpt lat="-27.2687932" lon="151.2907251">
  <ele>365.76</ele>
  <time>2026-09-01T19:58:45Z</time>
  <course>332.93</course>
  <speed>20.44358089963693</speed>
  <fix>3d</fix>
</trkpt>
<trkpt lat="-27.2688416" lon="151.2907503">
  <ele>365.49</ele>
  <time>2026-09-01T19:58:45Z</time>
  <course>338.05</course>
  <speed>19.77</speed>
  <fix>3d</fix>
</trkpt>
<trkpt lat="-27.2687771" lon="151.290715">
  <ele>365.86</ele>
  <time>2026-09-01T19:58:45Z</time>
  <course>330.67</course>
  <speed>20.672389798956484</speed>
  <fix>3d</fix>
</trkpt>
<trkpt lat="-27.2688087" lon="151.2907339">
  <ele>365.67</ele>
  <time>2026-09-01T19:58:45Z</time>
  <course>334.2</course>
  <speed>20.25</speed>
  <fix>3d</fix>
</trkpt>
<trkpt lat="-27.2687611" lon="151.2907041">
  <ele>365.98</ele>
  <time>2026-09-01T19:58:45Z</time>
  <course>328.28</course>
  <speed>20.890691707073753</speed>
  <fix>3d</fix>
</trkpt>
<trkpt lat="-27.2688087" lon="151.2907339">
  <ele>365.67</ele>
  <time>2026-09-01T19:58:45Z</time>
  <course>334.2</course>
  <speed>20.25</speed>
  <fix>3d</fix>
</trkpt>
<trkpt lat="-27.2687455" lon="151.2906922">
  <ele>366.09</ele>
  <time>2026-09-01T19:58:45Z</time>
  <course>325.82</course>
  <speed>21.113341753497952</speed>
  <fix>3d</fix>
</trkpt>
<trkpt lat="-27.2687761" lon="151.2907144">
  <ele>365.88</ele>
  <time>2026-09-01T19:58:45Z</time>
  <course>329.76</course>
  <speed>20.71</speed>
  <fix>3d</fix>
</trkpt>
<trkpt lat="-27.26873" lon="151.2906794">
  <ele>366.22</ele>
  <time>2026-09-01T19:58:45Z</time>
  <course>323.28</course>
  <speed>21.324807150358946</speed>
  <fix>3d</fix>
</trkpt>
<trkpt lat="-27.2687761" lon="151.2907144">
  <ele>365.88</ele>
  <time>2026-09-01T19:58:45Z</time>
  <course>329.76</course>
  <speed>20.71</speed>
  <fix>3d</fix>
</trkpt>
<trkpt lat="-27.268715" lon="151.2906657">
  <ele>366.35</ele>
  <time>2026-09-01T19:58:45Z</time>
  <course>320.73</course>
  <speed>21.527129395253795</speed>
  <fix>3d</fix>
</trkpt>
<trkpt lat="-27.2687444" lon="151.2906916">
  <ele>366.11</ele>
  <time>2026-09-01T19:58:45Z</time>
  <course>324.83</course>
  <speed>21.15</speed>
  <fix>3d</fix>
</trkpt>
<trkpt lat="-27.2687005" lon="151.2906511">
  <ele>366.49</ele>
  <time>2026-09-01T19:58:45Z</time>
  <course>318.13</course>
  <speed>21.732924331529798</speed>
  <fix>3d</fix>
</trkpt>
<trkpt lat="-27.2687444" lon="151.2906916">
  <ele>366.11</ele>
  <time>2026-09-01T19:58:45Z</time>
  <course>324.83</course>
  <speed>21.15</speed>
  <fix>3d</fix>
</trkpt>
<trkpt lat="-27.268686" lon="151.2906351">
  <ele>366.63</ele>
  <time>2026-09-01T19:58:45Z</time>
  <course>315.32</course>
  <speed>21.938286168249334</speed>
  <fix>3d</fix>
</trkpt>
<trkpt lat="-27.2687141" lon="151.2906651">
  <ele>366.36</ele>
  <time>2026-09-01T19:58:45Z</time>
  <course>319.58</course>
  <speed>21.56</speed>
  <fix>3d</fix>
</trkpt>
<trkpt lat="-27.2686727" lon="151.2906188">
  <ele>366.78</ele>
  <time>2026-09-01T19:58:45Z</time>
  <course>312.59</course>
  <speed>22.14082202629342</speed>
  <fix>3d</fix>
</trkpt>
<trkpt lat="-27.2687141" lon="151.2906651">
  <ele>366.36</ele>
  <time>2026-09-01T19:58:45Z</time>
  <course>319.58</course>
  <speed>21.56</speed>
  <fix>3d</fix>
</trkpt>
<trkpt lat="-27.2686599" lon="151.2906016">
  <ele>366.92</ele>
  <time>2026-09-01T19:58:45Z</time>
  <course>309.82</course>
  <speed>22.334871837554832</speed>
  <fix>3d</fix>
</trkpt>
<trkpt lat="-27.2686856" lon="151.290635">
  <ele>366.64</ele>
  <time>2026-09-01T19:58:45Z</time>
  <course>314.09</course>
  <speed>21.96</speed>
  <fix>3d</fix>
</trkpt>
<trkpt lat="-27.2686478" lon="151.2905834">
  <ele>367.07</ele>
  <time>2026-09-01T19:58:45Z</time>
  <course>307.02</course>
  <speed>22.5311606447604</speed>
  <fix>3d</fix>
</trkpt>
<trkpt lat="-27.2686856" lon="151.290635">
  <ele>366.64</ele>
  <time>2026-09-01T19:58:45Z</time>
  <course>314.09</course>
  <speed>21.96</speed>
  <fix>3d</fix>
</trkpt>
<trkpt lat="-27.2686363" lon="151.2905645">
  <ele>367.23</ele>
  <time>2026-09-01T19:58:45Z</time>
  <course>304.17</course>
  <speed>22.725184267679765</speed>
  <fix>3d</fix>
</trkpt>
<trkpt lat="-27.2686594" lon="151.2906014">
  <ele>366.93</ele>
  <time>2026-09-01T19:58:45Z</time>
  <course>308.46</course>
  <speed>22.35</speed>
  <fix>3d</fix>
</trkpt>
<trkpt lat="-27.2686256" lon="151.2905446">
  <ele>367.39</ele>
  <time>2026-09-01T19:58:45Z</time>
  <course>301.29</course>
  <speed>22.91176117193962</speed>
  <fix>3d</fix>
</trkpt>
<trkpt lat="-27.2686594" lon="151.2906014">
  <ele>366.93</ele>
  <time>2026-09-01T19:58:45Z</time>
  <course>308.46</course>
  <speed>22.35</speed>
  <fix>3d</fix>
</trkpt>
<trkpt lat="-27.268616" lon="151.2905246">
  <ele>367.54</ele>
  <time>2026-09-01T19:58:45Z</time>
  <course>298.58</course>
  <speed>23.08982892963913</speed>
  <fix>3d</fix>
</trkpt>
<trkpt lat="-27.2686358" lon="151.2905644">
  <ele>367.23</ele>
  <time>2026-09-01T19:58:45Z</time>
  <course>302.71</course>
  <speed>22.72</speed>
  <fix>3d</fix>
</trkpt>
<trkpt lat="-27.2686071" lon="151.2905035">
  <ele>367.7</ele>
  <time>2026-09-01T19:58:45Z</time>
  <course>295.79</course>
  <speed>23.270721948405466</speed>
  <fix>3d</fix>
</trkpt>
<trkpt lat="-27.2686358" lon="151.2905644">
  <ele>367.23</ele>
  <time>2026-09-01T19:58:45Z</time>
  <course>302.71</course>
  <speed>22.72</speed>
  <fix>3d</fix>
</trkpt>
<trkpt lat="-27.268599" lon="151.2904817">
  <ele>367.86</ele>
  <time>2026-09-01T19:58:45Z</time>
  <course>293.05</course>
  <speed>23.447799470312773</speed>
  <fix>3d</fix>
</trkpt>
<trkpt lat="-27.2686154" lon="151.2905243">
  <ele>367.55</ele>
  <time>2026-09-01T19:58:45Z</time>
  <course>296.93</course>
  <speed>23.09</speed>
  <fix>3d</fix>
</trkpt>
<trkpt lat="-27.2685918" lon="151.2904593">
  <ele>368.01</ele>
  <time>2026-09-01T19:58:45Z</time>
  <course>290.3</course>
  <speed>23.619163829399213</speed>
  <fix>3d</fix>
</trkpt>
<trkpt lat="-27.2686154" lon="151.2905243">
  <ele>367.55</ele>
  <time>2026-09-01T19:58:45Z</time>
  <course>296.93</course>
  <speed>23.09</speed>
  <fix>3d</fix>
</trkpt>
<trkpt lat="-27.2685856" lon="151.2904366">
  <ele>368.17</ele>
  <time>2026-09-01T19:58:45Z</time>
  <course>287.54</course>
  <speed>23.7807064655363</speed>
  <fix>3d</fix>
</trkpt>
<trkpt lat="-27.2685983" lon="151.2904813">
  <ele>367.86</ele>
  <time>2026-09-01T19:58:45Z</time>
  <course>291.21</course>
  <speed>23.44</speed>
  <fix>3d</fix>
</trkpt>
<trkpt lat="-27.2685804" lon="151.2904134">
  <ele>368.33</ele>
  <time>2026-09-01T19:58:45Z</time>
  <course>284.78</course>
  <speed>23.937322323100386</speed>
  <fix>3d</fix>
</trkpt>
<trkpt lat="-27.2685983" lon="151.2904813">
  <ele>367.86</ele>
  <time>2026-09-01T19:58:45Z</time>
  <course>291.21</course>
  <speed>23.44</speed>
  <fix>3d</fix>
</trkpt>
<trkpt lat="-27.2685761" lon="151.2903898">
  <ele>368.48</ele>
  <time>2026-09-01T19:58:45Z</time>
  <course>282.17</course>
  <speed>24.08548940752502</speed>
  <fix>3d</fix>
</trkpt>
<trkpt lat="-27.2685849" lon="151.2904361">
  <ele>368.17</ele>
  <time>2026-09-01T19:58:45Z</time>
  <course>285.59</course>
  <speed>23.77</speed>
  <fix>3d</fix>
</trkpt>
<trkpt lat="-27.2685728" lon="151.290366">
  <ele>368.63</ele>
  <time>2026-09-01T19:58:45Z</time>
  <course>279.69</course>
  <speed>24.227855868813485</speed>
  <fix>3d</fix>
</trkpt>
<trkpt lat="-27.2685849" lon="151.2904361">
  <ele>368.17</ele>
  <time>2026-09-01T19:58:45Z</time>
  <course>285.59</course>
  <speed>23.77</speed>
  <fix>3d</fix>
</trkpt>
<trkpt lat="-27.2685704" lon="151.2903419">
  <ele>368.78</ele>
  <time>2026-09-01T19:58:45Z</time>
  <course>277.08</course>
  <speed>24.352266834937563</speed>
  <fix>3d</fix>
</trkpt>
<trkpt lat="-27.2685754" lon="151.2903889">
  <ele>368.47</ele>
  <time>2026-09-01T19:58:45Z</time>
  <course>280.1</course>
  <speed>24.09</speed>
  <fix>3d</fix>
</trkpt>
<trkpt lat="-27.2685691" lon="151.2903174">
  <ele>368.92</ele>
  <time>2026-09-01T19:58:45Z</time>
  <course>274.54</course>
  <speed>24.496907968149777</speed>
  <fix>3d</fix>
</trkpt>
<trkpt lat="-27.2685754" lon="151.2903889">
  <ele>368.47</ele>
  <time>2026-09-01T19:58:45Z</time>
  <course>280.1</course>
  <speed>24.09</speed>
  <fix>3d</fix>
</trkpt>
<trkpt lat="-27.2685686" lon="151.2902928">
  <ele>369.06</ele>
  <time>2026-09-01T19:58:45Z</time>
  <course>272.08</course>
  <speed>24.620456941332346</speed>
  <fix>3d</fix>
</trkpt>
<trkpt lat="-27.2685698" lon="151.2903404">
  <ele>368.77</ele>
  <time>2026-09-01T19:58:45Z</time>
  <course>274.78</course>
  <speed>24.39</speed>
  <fix>3d</fix>
</trkpt>
<trkpt lat="-27.2685692" lon="151.2902677">
  <ele>369.2</ele>
  <time>2026-09-01T19:58:45Z</time>
  <course>269.68</course>
  <speed>24.76007471717321</speed>
  <fix>3d</fix>
</trkpt>
<trkpt lat="-27.2685698" lon="151.2903404">
  <ele>368.77</ele>
  <time>2026-09-01T19:58:45Z</time>
  <course>274.78</course>
  <speed>24.39</speed>
  <fix>3d</fix>
</trkpt>
<trkpt lat="-27.2685706" lon="151.2902429">
  <ele>369.33</ele>
  <time>2026-09-01T19:58:45Z</time>
  <course>267.4</course>
  <speed>24.88284549644594</speed>
  <fix>3d</fix>
</trkpt>
<trkpt lat="-27.2685681" lon="151.2902907">
  <ele>369.05</ele>
  <time>2026-09-01T19:58:45Z</time>
  <course>269.68</course>
  <speed>24.67</speed>
  <fix>3d</fix>
</trkpt>
<trkpt lat="-27.2685731" lon="151.2902179">
  <ele>369.45</ele>
  <time>2026-09-01T19:58:45Z</time>
  <course>265.18</course>
  <speed>24.994825464483643</speed>
  <fix>3d</fix>
</trkpt>
<trkpt lat="-27.2685681" lon="151.2902907">
  <ele>369.05</ele>
  <time>2026-09-01T19:58:45Z</time>
  <course>269.68</course>
  <speed>24.67</speed>
  <fix>3d</fix>
</trkpt>
<trkpt lat="-27.2685765" lon="151.2901922">
  <ele>369.57</ele>
  <time>2026-09-01T19:58:45Z</time>
  <course>262.99</course>
  <speed>25.107488922630235</speed>
  <fix>3d</fix>
</trkpt>
<trkpt lat="-27.2685703" lon="151.2902406">
  <ele>369.31</ele>
  <time>2026-09-01T19:58:45Z</time>
  <course>264.82</course>
  <speed>24.93</speed>
  <fix>3d</fix>
</trkpt>
<trkpt lat="-27.2685806" lon="151.2901673">
  <ele>369.68</ele>
  <time>2026-09-01T19:58:45Z</time>
  <course>260.91</course>
  <speed>25.206427751666833</speed>
  <fix>3d</fix>
</trkpt>
<trkpt lat="-27.2685703" lon="151.2902406">
  <ele>369.31</ele>
  <time>2026-09-01T19:58:45Z</time>
  <course>264.82</course>
  <speed>24.93</speed>
  <fix>3d</fix>
</trkpt>
<trkpt lat="-27.2685855" lon="151.2901427">
  <ele>369.79</ele>
  <time>2026-09-01T19:58:45Z</time>
  <course>258.93</course>
  <speed>25.301322099842924</speed>
  <fix>3d</fix>
</trkpt>
<trkpt lat="-27.2685761" lon="151.2901904">
  <ele>369.54</ele>
  <time>2026-09-01T19:58:45Z</time>
  <course>260.28</course>
  <speed>25.16</speed>
  <fix>3d</fix>
</trkpt>
<trkpt lat="-27.2685913" lon="151.290118">
  <ele>369.89</ele>
  <time>2026-09-01T19:58:45Z</time>
  <course>257.0</course>
  <speed>25.39110474162162</speed>
  <fix>3d</fix>
</trkpt>
<trkpt lat="-27.2685761" lon="151.2901904">
  <ele>369.54</ele>
  <time>2026-09-01T19:58:45Z</time>
  <course>260.28</course>
  <speed>25.16</speed>
  <fix>3d</fix>
</trkpt>
<trkpt lat="-27.2685979" lon="151.2900934">
  <ele>369.98</ele>
  <time>2026-09-01T19:58:45Z</time>
  <course>255.18</course>
  <speed>25.476628505357613</speed>
  <fix>3d</fix>
</trkpt>
<trkpt lat="-27.2685854" lon="151.2901405">
  <ele>369.76</ele>
  <time>2026-09-01T19:58:45Z</time>
  <course>256.06</course>
  <speed>25.37</speed>
  <fix>3d</fix>
</trkpt>
<trkpt lat="-27.2686052" lon="151.290069">
  <ele>370.06</ele>
  <time>2026-09-01T19:58:45Z</time>
  <course>253.5</course>
  <speed>25.56022104755747</speed>
  <fix>3d</fix>
</trkpt>
<trkpt lat="-27.2685854" lon="151.2901405">
  <ele>369.76</ele>
  <time>2026-09-01T19:58:45Z</time>
  <course>256.06</course>
  <speed>25.37</speed>
  <fix>3d</fix>
</trkpt>
<trkpt lat="-27.2686132" lon="151.2900445">
  <ele>370.14</ele>
  <time>2026-09-01T19:58:45Z</time>
  <course>251.89</course>
  <speed>25.64156781478075</speed>
  <fix>3d</fix>
</trkpt>
<trkpt lat="-27.2685979" lon="151.290091">
  <ele>369.94</ele>
  <time>2026-09-01T19:58:45Z</time>
  <course>252.17</course>
  <speed>25.55</speed>
  <fix>3d</fix>
</trkpt>
<trkpt lat="-27.2686218" lon="151.2900205">
  <ele>370.21</ele>
  <time>2026-09-01T19:58:45Z</time>
  <course>250.36</course>
  <speed>25.707388043128766</speed>
  <fix>3d</fix>
</trkpt>
<trkpt lat="-27.2685979" lon="151.290091">
  <ele>369.94</ele>
  <time>2026-09-01T19:58:45Z</time>
  <course>252.17</course>
  <speed>25.55</speed>
  <fix>3d</fix>
</trkpt>
<trkpt lat="-27.268631" lon="151.2899966">
  <ele>370.27</ele>
  <time>2026-09-01T19:58:45Z</time>
  <course>248.83</course>
  <speed>25.78076220750659</speed>
  <fix>3d</fix>
</trkpt>
<trkpt lat="-27.2686134" lon="151.2900422">
  <ele>370.1</ele>
  <time>2026-09-01T19:58:45Z</time>
  <course>248.66</course>
  <speed>25.72</speed>
  <fix>3d</fix>
</trkpt>
<trkpt lat="-27.2686409" lon="151.289973">
  <ele>370.33</ele>
  <time>2026-09-01T19:58:45Z</time>
  <course>247.3</course>
  <speed>25.84596099973843</speed>
  <fix>3d</fix>
</trkpt>
<trkpt lat="-27.2686134" lon="151.2900422">
  <ele>370.1</ele>
  <time>2026-09-01T19:58:45Z</time>
  <course>248.66</course>
  <speed>25.72</speed>
  <fix>3d</fix>
</trkpt>
<trkpt lat="-27.2686512" lon="151.2899496">
  <ele>370.38</ele>
  <time>2026-09-01T19:58:45Z</time>
  <course>245.92</course>
  <speed>25.90042856788281</speed>
  <fix>3d</fix>
</trkpt>
<trkpt lat="-27.2686314" lon="151.2899942">
  <ele>370.22</ele>
  <time>2026-09-01T19:58:45Z</time>
  <course>245.5</course>
  <speed>25.86</speed>
  <fix>3d</fix>
</trkpt>
<trkpt lat="-27.2686621" lon="151.2899264">
  <ele>370.42</ele>
  <time>2026-09-01T19:58:45Z</time>
  <course>244.61</course>
  <speed>25.96895454191408</speed>
  <fix>3d</fix>
</trkpt>
<trkpt lat="-27.2686314" lon="151.2899942">
  <ele>370.22</ele>
  <time>2026-09-01T19:58:45Z</time>
  <course>245.5</course>
  <speed>25.86</speed>
  <fix>3d</fix>
</trkpt>
<trkpt lat="-27.2686734" lon="151.2899035">
  <ele>370.45</ele>
  <time>2026-09-01T19:58:45Z</time>
  <course>243.33</course>
  <speed>26.022576736364904</speed>
  <fix>3d</fix>
</trkpt>
<trkpt lat="-27.2686518" lon="151.2899471">
  <ele>370.32</ele>
  <time>2026-09-01T19:58:45Z</time>
  <course>242.64</course>
  <speed>26.0</speed>
  <fix>3d</fix>
</trkpt>
<trkpt lat="-27.268685" lon="151.2898813">
  <ele>370.48</ele>
  <time>2026-09-01T19:58:46Z</time>
  <course>242.15</course>
  <speed>26.06782307750304</speed>
  <fix>3d</fix>
</trkpt>
<trkpt lat="-27.2686518" lon="151.2899471">
  <ele>370.32</ele>
  <time>2026-09-01T19:58:46Z</time>
  <course>242.64</course>
  <speed>26.0</speed>
  <fix>3d</fix>
</trkpt>
<trkpt lat="-27.2686971" lon="151.289859">
  <ele>370.5</ele>
  <time>2026-09-01T19:58:46Z</time>
  <course>241.02</course>
  <speed>26.121642367967603</speed>
  <fix>3d</fix>
</trkpt>
<trkpt lat="-27.2686743" lon="151.2899009">
  <ele>370.4</ele>
  <time>2026-09-01T19:58:46Z</time>
  <course>240.06</course>
  <speed>26.11</speed>
  <fix>3d</fix>
</trkpt>
<trkpt lat="-27.2687098" lon="151.2898367">
  <ele>370.52</ele>
  <time>2026-09-01T19:58:46Z</time>
  <course>239.89</course>
  <speed>26.154986140313667</speed>
  <fix>3d</fix>
</trkpt>
<trkpt lat="-27.2686743" lon="151.2899009">
  <ele>370.4</ele>
  <time>2026-09-01T19:58:46Z</time>
  <course>240.06</course>
  <speed>26.11</speed>
  <fix>3d</fix>
</trkpt>
<trkpt lat="-27.2687228" lon="151.2898146">
  <ele>370.53</ele>
  <time>2026-09-01T19:58:46Z</time>
  <course>238.85</course>
  <speed>26.180162337159025</speed>
  <fix>3d</fix>
</trkpt>
<trkpt lat="-27.2686986" lon="151.2898556">
  <ele>370.44</ele>
  <time>2026-09-01T19:58:46Z</time>
  <course>237.74</course>
  <speed>26.21</speed>
  <fix>3d</fix>
</trkpt>
<trkpt lat="-27.2687362" lon="151.2897928">
  <ele>370.54</ele>
  <time>2026-09-01T19:58:46Z</time>
  <course>237.88</course>
  <speed>26.154055134911676</speed>
  <fix>3d</fix>
</trkpt>
<trkpt lat="-27.2686986" lon="151.2898556">
  <ele>370.44</ele>
  <time>2026-09-01T19:58:46Z</time>
  <course>237.74</course>
  <speed>26.21</speed>
  <fix>3d</fix>
</trkpt>
<trkpt lat="-27.26875" lon="151.289771">
  <ele>370.54</ele>
  <time>2026-09-01T19:58:46Z</time>
  <course>236.91</course>
  <speed>26.100854392145862</speed>
  <fix>3d</fix>
</trkpt>
<trkpt lat="-27.2687245" lon="151.2898113">
  <ele>370.47</ele>
  <time>2026-09-01T19:58:46Z</time>
  <course>235.68</course>
  <speed>26.25</speed>
  <fix>3d</fix>
</trkpt>
<trkpt lat="-27.2687639" lon="151.2897497">
  <ele>370.54</ele>
  <time>2026-09-01T19:58:46Z</time>
  <course>236.05</course>
  <speed>26.046009291252275</speed>
  <fix>3d</fix>
</trkpt>
<trkpt lat="-27.2687245" lon="151.2898113">
  <ele>370.47</ele>
  <time>2026-09-01T19:58:46Z</time>
  <course>235.68</course>
  <speed>26.25</speed>
  <fix>3d</fix>
</trkpt>
<trkpt lat="-27.2687781" lon="151.2897286">
  <ele>370.54</ele>
  <time>2026-09-01T19:58:46Z</time>
  <course>235.2</course>
  <speed>25.98770863312116</speed>
  <fix>3d</fix>
</trkpt>
<trkpt lat="-27.2687517" lon="151.2897679">
  <ele>370.48</ele>
  <time>2026-09-01T19:58:46Z</time>
  <course>233.87</course>
  <speed>26.19</speed>
  <fix>3d</fix>
</trkpt>
<trkpt lat="-27.2687929" lon="151.2897071">
  <ele>370.53</ele>
  <time>2026-09-01T19:58:46Z</time>
  <course>234.4</course>
  <speed>25.940088666001124</speed>
  <fix>3d</fix>
</trkpt>
<trkpt lat="-27.2687517" lon="151.2897679">
  <ele>370.48</ele>
  <time>2026-09-01T19:58:46Z</time>
  <course>233.87</course>
  <speed>26.19</speed>
  <fix>3d</fix>
</trkpt>
<trkpt lat="-27.2688073" lon="151.2896866">
  <ele>370.52</ele>
  <time>2026-09-01T19:58:46Z</time>
  <course>233.68</course>
  <speed>25.88739461591297</speed>
  <fix>3d</fix>
</trkpt>
<trkpt lat="-27.26878" lon="151.2897256">
  <ele>370.49</ele>
  <time>2026-09-01T19:58:46Z</time>
  <course>232.39</course>
  <speed>26.08</speed>
  <fix>3d</fix>
</trkpt>
<trkpt lat="-27.268822" lon="151.2896661">
  <ele>370.5</ele>
  <time>2026-09-01T19:58:46Z</time>
  <course>233.01</course>
  <speed>25.85338662535336</speed>
  <fix>3d</fix>
</trkpt>
<trkpt lat="-27.26878" lon="151.2897256">
  <ele>370.49</ele>
  <time>2026-09-01T19:58:46Z</time>
  <course>232.39</course>
  <speed>26.08</speed>
  <fix>3d</fix>
</trkpt>
<trkpt lat="-27.2688367" lon="151.2896457">
  <ele>370.47</ele>
  <time>2026-09-01T19:58:46Z</time>
  <course>232.42</course>
  <speed>25.81570258582942</speed>
  <fix>3d</fix>
</trkpt>
<trkpt lat="-27.2688089" lon="151.2896842">
  <ele>370.49</ele>
  <time>2026-09-01T19:58:46Z</time>
  <course>231.32</course>
  <speed>25.97</speed>
  <fix>3d</fix>
</trkpt>
<trkpt lat="-27.2688515" lon="151.2896255">
  <ele>370.42</ele>
  <time>2026-09-01T19:58:46Z</time>
  <course>231.84</course>
  <speed>25.786703938270204</speed>
  <fix>3d</fix>
</trkpt>
<trkpt lat="-27.2688089" lon="151.2896842">
  <ele>370.49</ele>
  <time>2026-09-01T19:58:46Z</time>
  <course>231.32</course>
  <speed>25.97</speed>
  <fix>3d</fix>
</trkpt>
<trkpt lat="-27.2688664" lon="151.2896053">
  <ele>370.35</ele>
  <time>2026-09-01T19:58:46Z</time>
  <course>231.41</course>
  <speed>25.766280290332944</speed>
  <fix>3d</fix>
</trkpt>
<trkpt lat="-27.2688382" lon="151.2896436">
  <ele>370.44</ele>
  <time>2026-09-01T19:58:46Z</time>
  <course>230.54</course>
  <speed>25.89</speed>
  <fix>3d</fix>
</trkpt>
<trkpt lat="-27.2688816" lon="151.2895852">
  <ele>370.27</ele>
  <time>2026-09-01T19:58:46Z</time>
  <course>231.08</course>
  <speed>25.746698817518336</speed>
  <fix>3d</fix>
</trkpt>
<trkpt lat="-27.2688382" lon="151.2896436">
  <ele>370.44</ele>
  <time>2026-09-01T19:58:46Z</time>
  <course>230.54</course>
  <speed>25.89</speed>
  <fix>3d</fix>
</trkpt>
<trkpt lat="-27.2688967" lon="151.2895653">
  <ele>370.17</ele>
  <time>2026-09-01T19:58:46Z</time>
  <course>230.79</course>
  <speed>25.743138891751332</speed>
  <fix>3d</fix>
</trkpt>
<trkpt lat="-27.2688679" lon="151.2896035">
  <ele>370.34</ele>
  <time>2026-09-01T19:58:46Z</time>
  <course>229.88</course>
  <speed>25.82</speed>
  <fix>3d</fix>
</trkpt>
<trkpt lat="-27.2689118" lon="151.2895455">
  <ele>370.07</ele>
  <time>2026-09-01T19:58:46Z</time>
  <course>230.51</course>
  <speed>25.73373272574346</speed>
  <fix>3d</fix>
</trkpt>
<trkpt lat="-27.2688679" lon="151.2896035">
  <ele>370.34</ele>
  <time>2026-09-01T19:58:46Z</time>
  <course>229.88</course>
  <speed>25.82</speed>
  <fix>3d</fix>
</trkpt>
<trkpt lat="-27.2689271" lon="151.2895258">
  <ele>369.96</ele>
  <time>2026-09-01T19:58:46Z</time>
  <course>230.22</course>
  <speed>25.740007770006596</speed>
  <fix>3d</fix>
</trkpt>
<trkpt lat="-27.268898" lon="151.2895638">
  <ele>370.17</ele>
  <time>2026-09-01T19:58:46Z</time>
  <course>229.27</course>
  <speed>25.79</speed>
  <fix>3d</fix>
</trkpt>
<trkpt lat="-27.2689424" lon="151.2895062">
  <ele>369.84</ele>
  <time>2026-09-01T19:58:46Z</time>
  <course>229.91</course>
  <speed>25.740172882092303</speed>
  <fix>3d</fix>
</trkpt>
<trkpt lat="-27.268898" lon="151.2895638">
  <ele>370.17</ele>
  <time>2026-09-01T19:58:46Z</time>
  <course>229.27</course>
  <speed>25.79</speed>
  <fix>3d</fix>
</trkpt>
<trkpt lat="-27.2689578" lon="151.2894867">
  <ele>369.73</ele>
  <time>2026-09-01T19:58:46Z</time>
  <course>229.63</course>
  <speed>25.762369844406784</speed>
  <fix>3d</fix>
</trkpt>
<trkpt lat="-27.2689283" lon="151.2895245">
  <ele>369.97</ele>
  <time>2026-09-01T19:58:46Z</time>
  <course>228.75</course>
  <speed>25.78</speed>
  <fix>3d</fix>
</trkpt>
<trkpt lat="-27.2689733" lon="151.2894672">
  <ele>369.61</ele>
  <time>2026-09-01T19:58:46Z</time>
  <course>229.35</course>
  <speed>25.771621990088246</speed>
  <fix>3d</fix>
</trkpt>
<trkpt lat="-27.2689283" lon="151.2895245">
  <ele>369.97</ele>
  <time>2026-09-01T19:58:46Z</time>
  <course>228.75</course>
  <speed>25.78</speed>
  <fix>3d</fix>
</trkpt>
<trkpt lat="-27.2689888" lon="151.2894477">
  <ele>369.49</ele>
  <time>2026-09-01T19:58:46Z</time>
  <course>229.08</course>
  <speed>25.78859050045194</speed>
  <fix>3d</fix>
</trkpt>
<trkpt lat="-27.268959" lon="151.2894854">
  <ele>369.76</ele>
  <time>2026-09-01T19:58:46Z</time>
  <course>228.31</course>
  <speed>25.79</speed>
  <fix>3d</fix>
</trkpt>
<trkpt lat="-27.2690044" lon="151.2894283">
  <ele>369.38</ele>
  <time>2026-09-01T19:58:46Z</time>
  <course>228.81</course>
  <speed>25.827338229093606</speed>
  <fix>3d</fix>
</trkpt>
<trkpt lat="-27.268959" lon="151.2894854">
  <ele>369.76</ele>
  <time>2026-09-01T19:58:46Z</time>
  <course>228.31</course>
  <speed>25.79</speed>
  <fix>3d</fix>
</trkpt>
<trkpt lat="-27.2690201" lon="151.2894089">
  <ele>369.27</ele>
  <time>2026-09-01T19:58:46Z</time>
  <course>228.58</course>
  <speed>25.852164319453024</speed>
  <fix>3d</fix>
</trkpt>
<trkpt lat="-27.26899" lon="151.2894466">
  <ele>369.53</ele>
  <time>2026-09-01T19:58:46Z</time>
  <course>227.94</course>
  <speed>25.83</speed>
  <fix>3d</fix>
</trkpt>
<trkpt lat="-27.2690358" lon="151.2893896">
  <ele>369.17</ele>
  <time>2026-09-01T19:58:46Z</time>
  <course>228.41</course>
  <speed>25.8778206192098</speed>
  <fix>3d</fix>
</trkpt>
<trkpt lat="-27.26899" lon="151.2894466">
  <ele>369.53</ele>
  <time>2026-09-01T19:58:46Z</time>
  <course>227.94</course>
  <speed>25.83</speed>
  <fix>3d</fix>
</trkpt>
<trkpt lat="-27.2690516" lon="151.2893702">
  <ele>369.08</ele>
  <time>2026-09-01T19:58:46Z</time>
  <course>228.31</course>
  <speed>25.91773524056452</speed>
  <fix>3d</fix>
</trkpt>
<trkpt lat="-27.2690212" lon="151.2894079">
  <ele>369.33</ele>
  <time>2026-09-01T19:58:46Z</time>
  <course>227.63</course>
  <speed>25.88</speed>
  <fix>3d</fix>
</trkpt>
<trkpt lat="-27.2690674" lon="151.2893509">
  <ele>369.0</ele>
  <time>2026-09-01T19:58:46Z</time>
  <course>228.17</course>
  <speed>25.944224790885542</speed>
  <fix>3d</fix>
</trkpt>
<trkpt lat="-27.2690212" lon="151.2894079">
  <ele>369.33</ele>
  <time>2026-09-01T19:58:46Z</time>
  <course>227.63</course>
  <speed>25.88</speed>
  <fix>3d</fix>
</trkpt>
<trkpt lat="-27.2690833" lon="151.2893316">
  <ele>368.92</ele>
  <time>2026-09-01T19:58:46Z</time>
  <course>228.06</course>
  <speed>25.970787435116403</speed>
  <fix>3d</fix>
</trkpt>
<trkpt lat="-27.2690527" lon="151.2893692">
  <ele>369.14</ele>
  <time>2026-09-01T19:58:46Z</time>
  <course>227.38</course>
  <speed>25.94</speed>
  <fix>3d</fix>
</trkpt>
<trkpt lat="-27.2690988" lon="151.2893128">
  <ele>368.86</ele>
  <time>2026-09-01T19:58:46Z</time>
  <course>228.0</course>
  <speed>26.004755334361445</speed>
  <fix>3d</fix>
</trkpt>
<trkpt lat="-27.2690527" lon="151.2893692">
  <ele>369.14</ele>
  <time>2026-09-01T19:58:46Z</time>
  <course>227.38</course>
  <speed>25.94</speed>
  <fix>3d</fix>
</trkpt>
<trkpt lat="-27.2691153" lon="151.2892928">
  <ele>368.79</ele>
  <time>2026-09-01T19:58:46Z</time>
  <course>227.85</course>
  <speed>26.039293385190007</speed>
  <fix>3d</fix>
</trkpt>
<trkpt lat="-27.2690843" lon="151.2893305">
  <ele>368.99</ele>
  <time>2026-09-01T19:58:46Z</time>
  <course>227.19</course>
  <speed>26.0</speed>
  <fix>3d</fix>
</trkpt>
<trkpt lat="-27.2691311" lon="151.2892737">
  <ele>368.74</ele>
  <time>2026-09-01T19:58:46Z</time>
  <course>227.72</course>
  <speed>26.07385088551363</speed>
  <fix>3d</fix>
</trkpt>
<trkpt lat="-27.2690843" lon="151.2893305">
  <ele>368.99</ele>
  <time>2026-09-01T19:58:46Z</time>
  <course>227.19</course>
  <speed>26.0</speed>
  <fix>3d</fix>
</trkpt>
<trkpt lat="-27.2691471" lon="151.2892544">
  <ele>368.69</ele>
  <time>2026-09-01T19:58:46Z</time>
  <course>227.6</course>
  <speed>26.101113003088585</speed>
  <fix>3d</fix>
</trkpt>
<trkpt lat="-27.2691162" lon="151.289292">
  <ele>368.86</ele>
  <time>2026-09-01T19:58:46Z</time>
  <course>227.06</course>
  <speed>26.06</speed>
  <fix>3d</fix>
</trkpt>
<trkpt lat="-27.2691632" lon="151.2892351">
  <ele>368.65</ele>
  <time>2026-09-01T19:58:46Z</time>
  <course>227.57</course>
  <speed>26.135715027525077</speed>
  <fix>3d</fix>
</trkpt>
<trkpt lat="-27.2691162" lon="151.289292">
  <ele>368.86</ele>
  <time>2026-09-01T19:58:46Z</time>
  <course>227.06</course>
  <speed>26.06</speed>
  <fix>3d</fix>
</trkpt>
<trkpt lat="-27.2691792" lon="151.2892157">
  <ele>368.62</ele>
  <time>2026-09-01T19:58:46Z</time>
  <course>227.55</course>
  <speed>26.163505116860776</speed>
  <fix>3d</fix>
</trkpt>
<trkpt lat="-27.2691481" lon="151.2892534">
  <ele>368.76</ele>
  <time>2026-09-01T19:58:46Z</time>
  <course>226.96</course>
  <speed>26.13</speed>
  <fix>3d</fix>
</trkpt>
<trkpt lat="-27.2691954" lon="151.2891962">
  <ele>368.6</ele>
  <time>2026-09-01T19:58:46Z</time>
  <course>227.57</course>
  <speed>26.191773517652447</speed>
  <fix>3d</fix>
</trkpt>
<trkpt lat="-27.2691481" lon="151.2892534">
  <ele>368.76</ele>
  <time>2026-09-01T19:58:46Z</time>
  <course>226.96</course>
  <speed>26.13</speed>
  <fix>3d</fix>
</trkpt>
<trkpt lat="-27.2692116" lon="151.2891769">
  <ele>368.58</ele>
  <time>2026-09-01T19:58:46Z</time>
  <course>227.5</course>
  <speed>26.212739269294232</speed>
  <fix>3d</fix>
</trkpt>
<trkpt lat="-27.2691803" lon="151.2892148">
  <ele>368.69</ele>
  <time>2026-09-01T19:58:46Z</time>
  <course>226.89</course>
  <speed>26.19</speed>
  <fix>3d</fix>
</trkpt>
<trkpt lat="-27.2692277" lon="151.2891575">
  <ele>368.57</ele>
  <time>2026-09-01T19:58:46Z</time>
  <course>227.44</course>
  <speed>26.241007983688434</speed>
  <fix>3d</fix>
</trkpt>
<trkpt lat="-27.2691803" lon="151.2892148">
  <ele>368.69</ele>
  <time>2026-09-01T19:58:46Z</time>
  <course>226.89</course>
  <speed>26.19</speed>
  <fix>3d</fix>
</trkpt>
<trkpt lat="-27.2692438" lon="151.2891381">
  <ele>368.57</ele>
  <time>2026-09-01T19:58:46Z</time>
  <course>227.47</course>
  <speed>26.269276731573708</speed>
  <fix>3d</fix>
</trkpt>
<trkpt lat="-27.2692125" lon="151.2891761">
  <ele>368.64</ele>
  <time>2026-09-01T19:58:46Z</time>
  <course>226.87</course>
  <speed>26.25</speed>
  <fix>3d</fix>
</trkpt>
<trkpt lat="-27.26926" lon="151.2891187">
  <ele>368.58</ele>
  <time>2026-09-01T19:58:46Z</time>
  <course>227.5</course>
  <speed>26.283411118041737</speed>
  <fix>3d</fix>
</trkpt>
<trkpt lat="-27.2692125" lon="151.2891761">
  <ele>368.64</ele>
  <time>2026-09-01T19:58:46Z</time>
  <course>226.87</course>
  <speed>26.25</speed>
  <fix>3d</fix>
</trkpt>
<trkpt lat="-27.2692762" lon="151.2890993">
  <ele>368.59</ele>
  <time>2026-09-01T19:58:46Z</time>
  <course>227.49</course>
  <speed>26.312151185336408</speed>
  <fix>3d</fix>
</trkpt>
<trkpt lat="-27.2692447" lon="151.2891374">
  <ele>368.63</ele>
  <time>2026-09-01T19:58:46Z</time>
  <course>226.87</course>
  <speed>26.3</speed>
  <fix>3d</fix>
</trkpt>
<trkpt lat="-27.2692923" lon="151.2890799">
  <ele>368.6</ele>
  <time>2026-09-01T19:58:46Z</time>
  <course>227.47</course>
  <speed>26.333590716041744</speed>
  <fix>3d</fix>
</trkpt>
<trkpt lat="-27.2692447" lon="151.2891374">
  <ele>368.63</ele>
  <time>2026-09-01T19:58:46Z</time>
  <course>226.87</course>
  <speed>26.3</speed>
  <fix>3d</fix>
</trkpt>
<trkpt lat="-27.2693085" lon="151.2890604">
  <ele>368.62</ele>
  <time>2026-09-01T19:58:46Z</time>
  <course>227.47</course>
  <speed>26.355031777632142</speed>
  <fix>3d</fix>
</trkpt>
<trkpt lat="-27.269277" lon="151.2890986">
  <ele>368.65</ele>
  <time>2026-09-01T19:58:46Z</time>
  <course>226.89</course>
  <speed>26.35</speed>
  <fix>3d</fix>
</trkpt>
<trkpt lat="-27.2693247" lon="151.2890409">
  <ele>368.65</ele>
  <time>2026-09-01T19:58:46Z</time>
  <course>227.51</course>
  <speed>26.362340563766338</speed>
  <fix>3d</fix>
</trkpt>
<trkpt lat="-27.269277" lon="151.2890986">
  <ele>368.65</ele>
  <time>2026-09-01T19:58:46Z</time>
  <course>226.89</course>
  <speed>26.35</speed>
  <fix>3d</fix>
</trkpt>
<trkpt lat="-27.2693409" lon="151.2890214">
  <ele>368.69</ele>
  <time>2026-09-01T19:58:46Z</time>
  <course>227.55</course>
  <speed>26.376963434027047</speed>
  <fix>3d</fix>
</trkpt>
<trkpt lat="-27.2693094" lon="151.2890597">
  <ele>368.69</ele>
  <time>2026-09-01T19:58:46Z</time>
  <course>226.94</course>
  <speed>26.38</speed>
  <fix>3d</fix>
</trkpt>
<trkpt lat="-27.2693571" lon="151.2890019">
  <ele>368.73</ele>
  <time>2026-09-01T19:58:46Z</time>
  <course>227.6</course>
  <speed>26.3774600748442</speed>
  <fix>3d</fix>
</trkpt>
<trkpt lat="-27.2693094" lon="151.2890597">
  <ele>368.69</ele>
  <time>2026-09-01T19:58:46Z</time>
  <course>226.94</course>
  <speed>26.38</speed>
  <fix>3d</fix>
</trkpt>
<trkpt lat="-27.2693733" lon="151.2889824">
  <ele>368.77</ele>
  <time>2026-09-01T19:58:46Z</time>
  <course>227.64</course>
  <speed>26.392097302033427</speed>
  <fix>3d</fix>
</trkpt>
<trkpt lat="-27.2693417" lon="151.2890206">
  <ele>368.76</ele>
  <time>2026-09-01T19:58:46Z</time>
  <course>226.99</course>
  <speed>26.41</speed>
  <fix>3d</fix>
</trkpt>
<trkpt lat="-27.2693895" lon="151.2889628">
  <ele>368.82</ele>
  <time>2026-09-01T19:58:46Z</time>
  <course>227.63</course>
  <speed>26.399933712037992</speed>
  <fix>3d</fix>
</trkpt>
<trkpt lat="-27.2693417" lon="151.2890206">
  <ele>368.76</ele>
  <time>2026-09-01T19:58:46Z</time>
  <course>226.99</course>
  <speed>26.41</speed>
  <fix>3d</fix>
</trkpt>
<trkpt lat="-27.2694056" lon="151.2889432">
  <ele>368.88</ele>
  <time>2026-09-01T19:58:46Z</time>
  <course>227.69</course>
  <speed>26.40045643544823</speed>
  <fix>3d</fix>
</trkpt>
<trkpt lat="-27.2693741" lon="151.2889815">
  <ele>368.84</ele>
  <time>2026-09-01T19:58:46Z</time>
  <course>227.06</course>
  <speed>26.43</speed>
  <fix>3d</fix>
</trkpt>
<trkpt lat="-27.2694218" lon="151.2889237">
  <ele>368.93</ele>
  <time>2026-09-01T19:58:46Z</time>
  <course>227.71</course>
  <speed>26.40778673043237</speed>
  <fix>3d</fix>
</trkpt>
<trkpt lat="-27.2693741" lon="151.2889815">
  <ele>368.84</ele>
  <time>2026-09-01T19:58:46Z</time>
  <course>227.06</course>
  <speed>26.43</speed>
  <fix>3d</fix>
</trkpt>
<trkpt lat="-27.2694379" lon="151.2889041">
  <ele>368.99</ele>
  <time>2026-09-01T19:58:46Z</time>
  <course>227.75</course>
  <speed>26.408320658459143</speed>
  <fix>3d</fix>
</trkpt>
<trkpt lat="-27.2694065" lon="151.2889423">
  <ele>368.95</ele>
  <time>2026-09-01T19:58:46Z</time>
  <course>227.13</course>
  <speed>26.44</speed>
  <fix>3d</fix>
</trkpt>
<trkpt lat="-27.2694541" lon="151.2888845">
  <ele>369.05</ele>
  <time>2026-09-01T19:58:46Z</time>
  <course>227.78</course>
  <speed>26.408862148907517</speed>
  <fix>3d</fix>
</trkpt>
<trkpt lat="-27.2694065" lon="151.2889423">
  <ele>368.95</ele>
  <time>2026-09-01T19:58:46Z</time>
  <course>227.13</course>
  <speed>26.44</speed>
  <fix>3d</fix>
</trkpt>
<trkpt lat="-27.2694702" lon="151.2888648">
  <ele>369.11</ele>
  <time>2026-09-01T19:58:46Z</time>
  <course>227.82</course>
  <speed>26.40941120131231</speed>
  <fix>3d</fix>
</trkpt>
<trkpt lat="-27.2694388" lon="151.2889031">
  <ele>369.07</ele>
  <time>2026-09-01T19:58:46Z</time>
  <course>227.2</course>
  <speed>26.44</speed>
  <fix>3d</fix>
</trkpt>
<trkpt lat="-27.2694863" lon="151.2888452">
  <ele>369.18</ele>
  <time>2026-09-01T19:58:46Z</time>
  <course>227.85</course>
  <speed>26.409967815201895</speed>
  <fix>3d</fix>
</trkpt>
<trkpt lat="-27.2694388" lon="151.2889031">
  <ele>369.07</ele>
  <time>2026-09-01T19:58:46Z</time>
  <course>227.2</course>
  <speed>26.44</speed>
  <fix>3d</fix>
</trkpt>
<trkpt lat="-27.2695024" lon="151.2888256">
  <ele>369.24</ele>
  <time>2026-09-01T19:58:46Z</time>
  <course>227.83</course>
  <speed>26.403751627372955</speed>
  <fix>3d</fix>
</trkpt>
<trkpt lat="-27.269471" lon="151.2888639">
  <ele>369.19</ele>
  <time>2026-09-01T19:58:46Z</time>
  <course>227.26</course>
  <speed>26.44</speed>
  <fix>3d</fix>
</trkpt>
<trkpt lat="-27.2695185" lon="151.2888059">
  <ele>369.3</ele>
  <time>2026-09-01T19:58:46Z</time>
  <course>227.83</course>
  <speed>26.396973311347647</speed>
  <fix>3d</fix>
</trkpt>
<trkpt lat="-27.269471" lon="151.2888639">
  <ele>369.19</ele>
  <time>2026-09-01T19:58:46Z</time>
  <course>227.26</course>
  <speed>26.44</speed>
  <fix>3d</fix>
</trkpt>
<trkpt lat="-27.2695345" lon="151.2887864">
  <ele>369.37</ele>
  <time>2026-09-01T19:58:46Z</time>
  <course>227.87</course>
  <speed>26.397552916889854</speed>
  <fix>3d</fix>
</trkpt>
<trkpt lat="-27.2695033" lon="151.2888246">
  <ele>369.32</ele>
  <time>2026-09-01T19:58:46Z</time>
  <course>227.32</course>
  <speed>26.43</speed>
  <fix>3d</fix>
</trkpt>
<trkpt lat="-27.2695508" lon="151.2887665">
  <ele>369.45</ele>
  <time>2026-09-01T19:58:46Z</time>
  <course>227.88</course>
  <speed>26.39078058716718</speed>
  <fix>3d</fix>
</trkpt>
<trkpt lat="-27.2695033" lon="151.2888246">
  <ele>369.32</ele>
  <time>2026-09-01T19:58:46Z</time>
  <course>227.32</course>
  <speed>26.43</speed>
  <fix>3d</fix>
</trkpt>
<trkpt lat="-27.2695669" lon="151.2887468">
  <ele>369.52</ele>
  <time>2026-09-01T19:58:46Z</time>
  <course>227.93</course>
  <speed>26.376650659247847</speed>
  <fix>3d</fix>
</trkpt>
<trkpt lat="-27.2695354" lon="151.2887853">
  <ele>369.46</ele>
  <time>2026-09-01T19:58:46Z</time>
  <course>227.36</course>
  <speed>26.42</speed>
  <fix>3d</fix>
</trkpt>
<trkpt lat="-27.2695829" lon="151.2887272">
  <ele>369.6</ele>
  <time>2026-09-01T19:58:46Z</time>
  <course>227.98</course>
  <speed>26.363112486957984</speed>
  <fix>3d</fix>
</trkpt>
<trkpt lat="-27.2695354" lon="151.2887853">
  <ele>369.46</ele>
  <time>2026-09-01T19:58:46Z</time>
  <course>227.36</course>
  <speed>26.42</speed>
  <fix>3d</fix>
</trkpt>
<trkpt lat="-27.269599" lon="151.2887075">
  <ele>369.67</ele>
  <time>2026-09-01T19:58:46Z</time>
  <course>228.0</course>
  <speed>26.3495825393876</speed>
  <fix>3d</fix>
</trkpt>
<trkpt lat="-27.2695675" lon="151.2887461">
  <ele>369.6</ele>
  <time>2026-09-01T19:58:46Z</time>
  <course>227.41</course>
  <speed>26.4</speed>
  <fix>3d</fix>
</trkpt>
<trkpt lat="-27.269615" lon="151.2886878">
  <ele>369.75</ele>
  <time>2026-09-01T19:58:46Z</time>
  <course>227.94</course>
  <speed>26.33606082921286</speed>
  <fix>3d</fix>
</trkpt>
<trkpt lat="-27.2695675" lon="151.2887461">
  <ele>369.6</ele>
  <time>2026-09-01T19:58:46Z</time>
  <course>227.41</course>
  <speed>26.4</speed>
  <fix>3d</fix>
</trkpt>
<trkpt lat="-27.2696311" lon="151.2886682">
  <ele>369.83</ele>
  <time>2026-09-01T19:58:46Z</time>
  <course>228.0</course>
  <speed>26.329303067115166</speed>
  <fix>3d</fix>
</trkpt>
<trkpt lat="-27.2695996" lon="151.2887068">
  <ele>369.76</ele>
  <time>2026-09-01T19:58:46Z</time>
  <course>227.46</course>
  <speed>26.38</speed>
  <fix>3d</fix>
</trkpt>
<trkpt lat="-27.2696471" lon="151.2886485">
  <ele>369.91</ele>
  <time>2026-09-01T19:58:46Z</time>
  <course>228.06</course>
  <speed>26.315793736841762</speed>
  <fix>3d</fix>
</trkpt>
<trkpt lat="-27.2695996" lon="151.2887068">
  <ele>369.76</ele>
  <time>2026-09-01T19:58:46Z</time>
  <course>227.46</course>
  <speed>26.38</speed>
  <fix>3d</fix>
</trkpt>
<trkpt lat="-27.2696631" lon="151.2886288">
  <ele>369.99</ele>
  <time>2026-09-01T19:58:46Z</time>
  <course>228.05</course>
  <speed>26.309042171846546</speed>
  <fix>3d</fix>
</trkpt>
<trkpt lat="-27.2696316" lon="151.2886675">
  <ele>369.91</ele>
  <time>2026-09-01T19:58:46Z</time>
  <course>227.5</course>
  <speed>26.35</speed>
  <fix>3d</fix>
</trkpt>
<trkpt lat="-27.269679" lon="151.2886092">
  <ele>370.07</ele>
  <time>2026-09-01T19:58:46Z</time>
  <course>228.06</course>
  <speed>26.288164637342028</speed>
  <fix>3d</fix>
</trkpt>
<trkpt lat="-27.2696316" lon="151.2886675">
  <ele>369.91</ele>
  <time>2026-09-01T19:58:46Z</time>
  <course>227.5</course>
  <speed>26.35</speed>
  <fix>3d</fix>
</trkpt>
<trkpt lat="-27.269695" lon="151.2885895">
  <ele>370.14</ele>
  <time>2026-09-01T19:58:46Z</time>
  <course>228.05</course>
  <speed>26.274036614117747</speed>
  <fix>3d</fix>
</trkpt>
<trkpt lat="-27.2696636" lon="151.2886283">
  <ele>370.07</ele>
  <time>2026-09-01T19:58:46Z</time>
  <course>227.54</course>
  <speed>26.32</speed>
  <fix>3d</fix>
</trkpt>
<trkpt lat="-27.2697109" lon="151.2885699">
  <ele>370.22</ele>
  <time>2026-09-01T19:58:46Z</time>
  <course>228.08</course>
  <speed>26.25380162947835</speed>
  <fix>3d</fix>
</trkpt>
<trkpt lat="-27.2696636" lon="151.2886283">
  <ele>370.07</ele>
  <time>2026-09-01T19:58:46Z</time>
  <course>227.54</course>
  <speed>26.32</speed>
  <fix>3d</fix>
</trkpt>
<trkpt lat="-27.2697269" lon="151.2885503">
  <ele>370.3</ele>
  <time>2026-09-01T19:58:46Z</time>
  <course>228.11</course>
  <speed>26.239674159562274</speed>
  <fix>3d</fix>
</trkpt>
<trkpt lat="-27.2696955" lon="151.288589">
  <ele>370.22</ele>
  <time>2026-09-01T19:58:46Z</time>
  <course>227.58</course>
  <speed>26.29</speed>
  <fix>3d</fix>
</trkpt>
<trkpt lat="-27.2697428" lon="151.2885306">
  <ele>370.37</ele>
  <time>2026-09-01T19:58:46Z</time>
  <course>228.14</course>
  <speed>26.218806227591678</speed>
  <fix>3d</fix>
</trkpt>
<trkpt lat="-27.2696955" lon="151.288589">
  <ele>370.22</ele>
  <time>2026-09-01T19:58:46Z</time>
  <course>227.58</course>
  <speed>26.29</speed>
  <fix>3d</fix>
</trkpt>
<trkpt lat="-27.2697587" lon="151.288511">
  <ele>370.44</ele>
  <time>2026-09-01T19:58:46Z</time>
  <course>228.2</course>
  <speed>26.20467897151194</speed>
  <fix>3d</fix>
</trkpt>
<trkpt lat="-27.2697273" lon="151.2885497">
  <ele>370.37</ele>
  <time>2026-09-01T19:58:46Z</time>
  <course>227.61</course>
  <speed>26.25</speed>
  <fix>3d</fix>
</trkpt>
<trkpt lat="-27.2697746" lon="151.2884914">
  <ele>370.51</ele>
  <time>2026-09-01T19:58:46Z</time>
  <course>228.22</course>
  <speed>26.191204630562527</speed>
  <fix>3d</fix>
</trkpt>
<trkpt lat="-27.2697273" lon="151.2885497">
  <ele>370.37</ele>
  <time>2026-09-01T19:58:46Z</time>
  <course>227.61</course>
  <speed>26.25</speed>
  <fix>3d</fix>
</trkpt>
<trkpt lat="-27.2697905" lon="151.2884718">
  <ele>370.58</ele>
  <time>2026-09-01T19:58:46Z</time>
  <course>228.23</course>
  <speed>26.177077758986012</speed>
  <fix>3d</fix>
</trkpt>
<trkpt lat="-27.2697592" lon="151.2885105">
  <ele>370.52</ele>
  <time>2026-09-01T19:58:46Z</time>
  <course>227.64</course>
  <speed>26.22</speed>
  <fix>3d</fix>
</trkpt>
<trkpt lat="-27.2698063" lon="151.2884522">
  <ele>370.65</ele>
  <time>2026-09-01T19:58:46Z</time>
  <course>228.29</course>
  <speed>26.156217234149132</speed>
  <fix>3d</fix>
</trkpt>
<trkpt lat="-27.2697592" lon="151.2885105">
  <ele>370.52</ele>
  <time>2026-09-01T19:58:46Z</time>
  <course>227.64</course>
  <speed>26.22</speed>
  <fix>3d</fix>
</trkpt>
<trkpt lat="-27.2698221" lon="151.2884328">
  <ele>370.71</ele>
  <time>2026-09-01T19:58:46Z</time>
  <course>228.31</course>
  <speed>26.13535919018524</speed>
  <fix>3d</fix>
</trkpt>
<trkpt lat="-27.2697909" lon="151.2884713">
  <ele>370.66</ele>
  <time>2026-09-01T19:58:46Z</time>
  <course>227.67</course>
  <speed>26.19</speed>
  <fix>3d</fix>
</trkpt>
<trkpt lat="-27.2698378" lon="151.2884133">
  <ele>370.78</ele>
  <time>2026-09-01T19:58:46Z</time>
  <course>228.33</course>
  <speed>26.11450363303886</speed>
  <fix>3d</fix>
</trkpt>
<trkpt lat="-27.2697909" lon="151.2884713">
  <ele>370.66</ele>
  <time>2026-09-01T19:58:46Z</time>
  <course>227.67</course>
  <speed>26.19</speed>
  <fix>3d</fix>
</trkpt>
<trkpt lat="-27.2698535" lon="151.2883939">
  <ele>370.84</ele>
  <time>2026-09-01T19:58:46Z</time>
  <course>228.32</course>
  <speed>26.09365056867283</speed>
  <fix>3d</fix>
</trkpt>
<trkpt lat="-27.2698226" lon="151.2884322">
  <ele>370.8</ele>
  <time>2026-09-01T19:58:46Z</time>
  <course>227.7</course>
  <speed>26.15</speed>
  <fix>3d</fix>
</trkpt>
<trkpt lat="-27.2698691" lon="151.2883746">
  <ele>370.9</ele>
  <time>2026-09-01T19:58:46Z</time>
  <course>228.27</course>
  <speed>26.058674179627786</speed>
  <fix>3d</fix>
</trkpt>
<trkpt lat="-27.2698226" lon="151.2884322">
  <ele>370.8</ele>
  <time>2026-09-01T19:58:46Z</time>
  <course>227.7</course>
  <speed>26.15</speed>
  <fix>3d</fix>
</trkpt>
<trkpt lat="-27.2698847" lon="151.2883552">
  <ele>370.97</ele>
  <time>2026-09-01T19:58:46Z</time>
  <course>228.28</course>
  <speed>26.03782633016819</speed>
  <fix>3d</fix>
</trkpt>
<trkpt lat="-27.2698541" lon="151.2883931">
  <ele>370.93</ele>
  <time>2026-09-01T19:58:46Z</time>
  <course>227.73</course>
  <speed>26.12</speed>
  <fix>3d</fix>
</trkpt>
<trkpt lat="-27.2699004" lon="151.2883358">
  <ele>371.03</ele>
  <time>2026-09-01T19:58:46Z</time>
  <course>228.36</course>
  <speed>26.023700736059812</speed>
  <fix>3d</fix>
</trkpt>
<trkpt lat="-27.2698541" lon="151.2883931">
  <ele>370.93</ele>
  <time>2026-09-01T19:58:46Z</time>
  <course>227.73</course>
  <speed>26.12</speed>
  <fix>3d</fix>
</trkpt>
<trkpt lat="-27.269916" lon="151.2883164">
  <ele>371.09</ele>
  <time>2026-09-01T19:58:46Z</time>
  <course>228.4</course>
  <speed>25.98873024986023</speed>
  <fix>3d</fix>
</trkpt>
<trkpt lat="-27.2698856" lon="151.2883541">
  <ele>371.05</ele>
  <time>2026-09-01T19:58:46Z</time>
  <course>227.76</course>
  <speed>26.08</speed>
  <fix>3d</fix>
</trkpt>
<trkpt lat="-27.2699318" lon="151.2882969">
  <ele>371.14</ele>
  <time>2026-09-01T19:58:46Z</time>
  <course>228.43</course>
  <speed>25.967887861741858</speed>
  <fix>3d</fix>
</trkpt>
<trkpt lat="-27.2698856" lon="151.2883541">
  <ele>371.05</ele>
  <time>2026-09-01T19:58:46Z</time>
  <course>227.76</course>
  <speed>26.08</speed>
  <fix>3d</fix>
</trkpt>
<trkpt lat="-27.2699474" lon="151.2882775">
  <ele>371.2</ele>
  <time>2026-09-01T19:58:46Z</time>
  <course>228.5</course>
  <speed>25.947048001651364</speed>
  <fix>3d</fix>
</trkpt>
<trkpt lat="-27.2699171" lon="151.288315">
  <ele>371.17</ele>
  <time>2026-09-01T19:58:46Z</time>
  <course>227.78</course>
  <speed>26.05</speed>
  <fix>3d</fix>
</trkpt>
<trkpt lat="-27.269963" lon="151.2882581">
  <ele>371.26</ele>
  <time>2026-09-01T19:58:46Z</time>
  <course>228.55</course>
  <speed>25.933624891248815</speed>
  <fix>3d</fix>
</trkpt>
<trkpt lat="-27.2699171" lon="151.288315">
  <ele>371.17</ele>
  <time>2026-09-01T19:58:46Z</time>
  <course>227.78</course>
  <speed>26.05</speed>
  <fix>3d</fix>
</trkpt>
<trkpt lat="-27.2699786" lon="151.2882387">
  <ele>371.31</ele>
  <time>2026-09-01T19:58:46Z</time>
  <course>228.57</course>
  <speed>25.906086157503605</speed>
  <fix>3d</fix>
</trkpt>
<trkpt lat="-27.2699485" lon="151.2882761">
  <ele>371.29</ele>
  <time>2026-09-01T19:58:46Z</time>
  <course>227.82</course>
  <speed>26.01</speed>
  <fix>3d</fix>
</trkpt>
<trkpt lat="-27.2699943" lon="151.2882192">
  <ele>371.37</ele>
  <time>2026-09-01T19:58:46Z</time>
  <course>228.51</course>
  <speed>25.88454365060354</speed>
  <fix>3d</fix>
</trkpt>
<trkpt lat="-27.2699485" lon="151.2882761">
  <ele>371.29</ele>
  <time>2026-09-01T19:58:46Z</time>
  <course>227.82</course>
  <speed>26.01</speed>
  <fix>3d</fix>
</trkpt>
<trkpt lat="-27.2700098" lon="151.2881998">
  <ele>371.41</ele>
  <time>2026-09-01T19:58:46Z</time>
  <course>228.54</course>
  <speed>25.86371396377558</speed>
  <fix>3d</fix>
</trkpt>
<trkpt lat="-27.2699798" lon="151.2882372">
  <ele>371.4</ele>
  <time>2026-09-01T19:58:46Z</time>
  <course>227.86</course>
  <speed>25.98</speed>
  <fix>3d</fix>
</trkpt>
<trkpt lat="-27.2700254" lon="151.2881804">
  <ele>371.46</ele>
  <time>2026-09-01T19:58:46Z</time>
  <course>228.54</course>
  <speed>25.849589938720495</speed>
  <fix>3d</fix>
</trkpt>
<trkpt lat="-27.2699798" lon="151.2882372">
  <ele>371.4</ele>
  <time>2026-09-01T19:58:46Z</time>
  <course>227.86</course>
  <speed>25.98</speed>
  <fix>3d</fix>
</trkpt>
<trkpt lat="-27.2700409" lon="151.2881611">
  <ele>371.5</ele>
  <time>2026-09-01T19:58:46Z</time>
  <course>228.52</course>
  <speed>25.828763036583847</speed>
  <fix>3d</fix>
</trkpt>
<trkpt lat="-27.2700111" lon="151.2881983">
  <ele>371.49</ele>
  <time>2026-09-01T19:58:46Z</time>
  <course>227.89</course>
  <speed>25.95</speed>
  <fix>3d</fix>
</trkpt>
<trkpt lat="-27.2700565" lon="151.2881417">
  <ele>371.54</ele>
  <time>2026-09-01T19:58:46Z</time>
  <course>228.54</course>
  <speed>25.814639257599552</speed>
  <fix>3d</fix>
</trkpt>
<trkpt lat="-27.2700111" lon="151.2881983">
  <ele>371.49</ele>
  <time>2026-09-01T19:58:46Z</time>
  <course>227.89</course>
  <speed>25.95</speed>
  <fix>3d</fix>
</trkpt>
<trkpt lat="-27.270072" lon="151.2881224">
  <ele>371.58</ele>
  <time>2026-09-01T19:58:46Z</time>
  <course>228.55</course>
  <speed>25.80051549872599</speed>
  <fix>3d</fix>
</trkpt>
<trkpt lat="-27.2700424" lon="151.2881593">
  <ele>371.58</ele>
  <time>2026-09-01T19:58:46Z</time>
  <course>227.9</course>
  <speed>25.92</speed>
  <fix>3d</fix>
</trkpt>
<trkpt lat="-27.2700875" lon="151.288103">
  <ele>371.63</ele>
  <time>2026-09-01T19:58:46Z</time>
  <course>228.57</course>
  <speed>25.7789701113136</speed>
  <fix>3d</fix>
</trkpt>
<trkpt lat="-27.2700424" lon="151.2881593">
  <ele>371.58</ele>
  <time>2026-09-01T19:58:46Z</time>
  <course>227.9</course>
  <speed>25.92</speed>
  <fix>3d</fix>
</trkpt>
<trkpt lat="-27.270103" lon="151.2880837">
  <ele>371.66</ele>
  <time>2026-09-01T19:58:46Z</time>
  <course>228.59</course>
  <speed>25.76484620563453</speed>
  <fix>3d</fix>
</trkpt>
<trkpt lat="-27.2700737" lon="151.2881203">
  <ele>371.67</ele>
  <time>2026-09-01T19:58:46Z</time>
  <course>227.9</course>
  <speed>25.89</speed>
  <fix>3d</fix>
</trkpt>
<trkpt lat="-27.2701186" lon="151.2880644">
  <ele>371.7</ele>
  <time>2026-09-01T19:58:46Z</time>
  <course>228.6</course>
  <speed>25.75144461967134</speed>
  <fix>3d</fix>
</trkpt>
<trkpt lat="-27.2700737" lon="151.2881203">
  <ele>371.67</ele>
  <time>2026-09-01T19:58:46Z</time>
  <course>227.9</course>
  <speed>25.89</speed>
  <fix>3d</fix>
</trkpt>
<trkpt lat="-27.2701341" lon="151.288045">
  <ele>371.73</ele>
  <time>2026-09-01T19:58:46Z</time>
  <course>228.57</course>
  <speed>25.737321150422787</speed>
  <fix>3d</fix>
</trkpt>
<trkpt lat="-27.2701048" lon="151.2880816">
  <ele>371.76</ele>
  <time>2026-09-01T19:58:46Z</time>
  <course>227.9</course>
  <speed>25.86</speed>
  <fix>3d</fix>
</trkpt>
<trkpt lat="-27.2701496" lon="151.2880257">
  <ele>371.77</ele>
  <time>2026-09-01T19:58:46Z</time>
  <course>228.56</course>
  <speed>25.723197701685535</speed>
  <fix>3d</fix>
</trkpt>
<trkpt lat="-27.2701048" lon="151.2880816">
  <ele>371.76</ele>
  <time>2026-09-01T19:58:46Z</time>
  <course>227.9</course>
  <speed>25.86</speed>
  <fix>3d</fix>
</trkpt>
<trkpt lat="-27.2701651" lon="151.2880063">
  <ele>371.8</ele>
  <time>2026-09-01T19:58:46Z</time>
  <course>228.55</course>
  <speed>25.71650053953687</speed>
  <fix>3d</fix>
</trkpt>
<trkpt lat="-27.2701359" lon="151.2880428">
  <ele>371.83</ele>
  <time>2026-09-01T19:58:46Z</time>
  <course>227.91</course>
  <speed>25.83</speed>
  <fix>3d</fix>
</trkpt>
<trkpt lat="-27.2701806" lon="151.287987">
  <ele>371.83</ele>
  <time>2026-09-01T19:58:46Z</time>
  <course>228.55</course>
  <speed>25.709074273493396</speed>
  <fix>3d</fix>
</trkpt>
<trkpt lat="-27.2701359" lon="151.2880428">
  <ele>371.83</ele>
  <time>2026-09-01T19:58:46Z</time>
  <course>227.91</course>
  <speed>25.83</speed>
  <fix>3d</fix>
</trkpt>
<trkpt lat="-27.270196" lon="151.2879678">
  <ele>371.87</ele>
  <time>2026-09-01T19:58:46Z</time>
  <course>228.6</course>
  <speed>25.694950865880244</speed>
  <fix>3d</fix>
</trkpt>
<trkpt lat="-27.270167" lon="151.2880041">
  <ele>371.9</ele>
  <time>2026-09-01T19:58:46Z</time>
  <course>227.91</course>
  <speed>25.8</speed>
  <fix>3d</fix>
</trkpt>
<trkpt lat="-27.2702115" lon="151.2879484">
  <ele>371.9</ele>
  <time>2026-09-01T19:58:46Z</time>
  <course>228.62</course>
  <speed>25.688254125183363</speed>
  <fix>3d</fix>
</trkpt>
<trkpt lat="-27.270167" lon="151.2880041">
  <ele>371.9</ele>
  <time>2026-09-01T19:58:46Z</time>
  <course>227.91</course>
  <speed>25.8</speed>
  <fix>3d</fix>
</trkpt>
<trkpt lat="-27.2702271" lon="151.2879291">
  <ele>371.93</ele>
  <time>2026-09-01T19:58:46Z</time>
  <course>228.68</course>
  <speed>25.681559532084492</speed>
  <fix>3d</fix>
</trkpt>
<trkpt lat="-27.2701981" lon="151.2879654">
  <ele>371.97</ele>
  <time>2026-09-01T19:58:46Z</time>
  <course>227.91</course>
  <speed>25.78</speed>
  <fix>3d</fix>
</trkpt>
<trkpt lat="-27.2702426" lon="151.2879097">
  <ele>371.96</ele>
  <time>2026-09-01T19:58:46Z</time>
  <course>228.67</course>
  <speed>25.67486708826357</speed>
  <fix>3d</fix>
</trkpt>
<trkpt lat="-27.2701981" lon="151.2879654">
  <ele>371.97</ele>
  <time>2026-09-01T19:58:46Z</time>
  <course>227.91</course>
  <speed>25.78</speed>
  <fix>3d</fix>
</trkpt>
<trkpt lat="-27.2702582" lon="151.2878902">
  <ele>372.0</ele>
  <time>2026-09-01T19:58:46Z</time>
  <course>228.58</course>
  <speed>25.660744338385822</speed>
  <fix>3d</fix>
</trkpt>
<trkpt lat="-27.2702291" lon="151.2879267">
  <ele>372.04</ele>
  <time>2026-09-01T19:58:46Z</time>
  <course>227.93</course>
  <speed>25.76</speed>
  <fix>3d</fix>
</trkpt>
<trkpt lat="-27.2702737" lon="151.2878709">
  <ele>372.03</ele>
  <time>2026-09-01T19:58:46Z</time>
  <course>228.51</course>
  <speed>25.65405426048678</speed>
  <fix>3d</fix>
</trkpt>
<trkpt lat="-27.2702291" lon="151.2879267">
  <ele>372.04</ele>
  <time>2026-09-01T19:58:46Z</time>
  <course>227.93</course>
  <speed>25.76</speed>
  <fix>3d</fix>
</trkpt>
<trkpt lat="-27.2702892" lon="151.2878515">
  <ele>372.06</ele>
  <time>2026-09-01T19:58:46Z</time>
  <course>228.52</course>
  <speed>25.64662160987291</speed>
  <fix>3d</fix>
</trkpt>
<trkpt lat="-27.2702601" lon="151.2878882">
  <ele>372.1</ele>
  <time>2026-09-01T19:58:46Z</time>
  <course>227.94</course>
  <speed>25.73</speed>
  <fix>3d</fix>
</trkpt>
<trkpt lat="-27.2703047" lon="151.2878322">
  <ele>372.09</ele>
  <time>2026-09-01T19:58:46Z</time>
  <course>228.62</course>
  <speed>25.632498902760144</speed>
  <fix>3d</fix>
</trkpt>
<trkpt lat="-27.2702601" lon="151.2878882">
  <ele>372.1</ele>
  <time>2026-09-01T19:58:46Z</time>
  <course>227.94</course>
  <speed>25.73</speed>
  <fix>3d</fix>
</trkpt>
<trkpt lat="-27.2703202" lon="151.2878129">
  <ele>372.12</ele>
  <time>2026-09-01T19:58:46Z</time>
  <course>228.7</course>
  <speed>25.632498902760144</speed>
  <fix>3d</fix>
</trkpt>
<trkpt lat="-27.270291" lon="151.2878496">
  <ele>372.16</ele>
  <time>2026-09-01T19:58:46Z</time>
  <course>227.94</course>
  <speed>25.7</speed>
  <fix>3d</fix>
</trkpt>
<trkpt lat="-27.2703356" lon="151.2877936">
  <ele>372.14</ele>
  <time>2026-09-01T19:58:46Z</time>
  <course>228.65</course>
  <speed>25.625809255514255</speed>
  <fix>3d</fix>
</trkpt>
<trkpt lat="-27.270291" lon="151.2878496">
  <ele>372.16</ele>
  <time>2026-09-01T19:58:46Z</time>
  <course>227.94</course>
  <speed>25.7</speed>
  <fix>3d</fix>
</trkpt>
<trkpt lat="-27.2703511" lon="151.2877743">
  <ele>372.16</ele>
  <time>2026-09-01T19:58:46Z</time>
  <course>228.64</course>
  <speed>25.61912176480685</speed>
  <fix>3d</fix>
</trkpt>
<trkpt lat="-27.2703219" lon="151.287811">
  <ele>372.22</ele>
  <time>2026-09-01T19:58:46Z</time>
  <course>227.94</course>
  <speed>25.68</speed>
  <fix>3d</fix>
</trkpt>
<trkpt lat="-27.2703665" lon="151.287755">
  <ele>372.19</ele>
  <time>2026-09-01T19:58:46Z</time>
  <course>228.69</course>
  <speed>25.604999511814093</speed>
  <fix>3d</fix>
</trkpt>
<trkpt lat="-27.2703219" lon="151.287811">
  <ele>372.22</ele>
  <time>2026-09-01T19:58:46Z</time>
  <course>227.94</course>
  <speed>25.68</speed>
  <fix>3d</fix>
</trkpt>
<trkpt lat="-27.270382" lon="151.2877357">
  <ele>372.2</ele>
  <time>2026-09-01T19:58:46Z</time>
  <course>228.71</course>
  <speed>25.59831439763173</speed>
  <fix>3d</fix>
</trkpt>
<trkpt lat="-27.2703529" lon="151.2877724">
  <ele>372.27</ele>
  <time>2026-09-01T19:58:46Z</time>
  <course>227.95</course>
  <speed>25.66</speed>
  <fix>3d</fix>
</trkpt>
<trkpt lat="-27.2703974" lon="151.2877165">
  <ele>372.22</ele>
  <time>2026-09-01T19:58:46Z</time>
  <course>228.71</course>
  <speed>25.59163144467347</speed>
  <fix>3d</fix>
</trkpt>
<trkpt lat="-27.2703529" lon="151.2877724">
  <ele>372.27</ele>
  <time>2026-09-01T19:58:46Z</time>
  <course>227.95</course>
  <speed>25.66</speed>
  <fix>3d</fix>
</trkpt>
<trkpt lat="-27.270413" lon="151.287697">
  <ele>372.24</ele>
  <time>2026-09-01T19:58:46Z</time>
  <course>228.71</course>
  <speed>25.58495065463289</speed>
  <fix>3d</fix>
</trkpt>
<trkpt lat="-27.2703838" lon="151.2877338">
  <ele>372.31</ele>
  <time>2026-09-01T19:58:46Z</time>
  <course>227.97</course>
  <speed>25.64</speed>
  <fix>3d</fix>
</trkpt>
<trkpt lat="-27.2704284" lon="151.2876777">
  <ele>372.26</ele>
  <time>2026-09-01T19:58:46Z</time>
  <course>228.73</course>
  <speed>25.58495065463289</speed>
  <fix>3d</fix>
</trkpt>
<trkpt lat="-27.2703838" lon="151.2877338">
  <ele>372.31</ele>
  <time>2026-09-01T19:58:46Z</time>
  <course>227.97</course>
  <speed>25.64</speed>
  <fix>3d</fix>
</trkpt>
<trkpt lat="-27.2704438" lon="151.2876584">
  <ele>372.28</ele>
  <time>2026-09-01T19:58:46Z</time>
  <course>228.74</course>
  <speed>25.570829083156454</speed>
  <fix>3d</fix>
</trkpt>
<trkpt lat="-27.2704146" lon="151.2876954">
  <ele>372.35</ele>
  <time>2026-09-01T19:58:46Z</time>
  <course>227.98</course>
  <speed>25.62</speed>
  <fix>3d</fix>
</trkpt>
<trkpt lat="-27.2704592" lon="151.2876391">
  <ele>372.3</ele>
  <time>2026-09-01T19:58:46Z</time>
  <course>228.73</course>
  <speed>25.564150680200584</speed>
  <fix>3d</fix>
</trkpt>
<trkpt lat="-27.2704146" lon="151.2876954">
  <ele>372.35</ele>
  <time>2026-09-01T19:58:46Z</time>
  <course>227.98</course>
  <speed>25.62</speed>
  <fix>3d</fix>
</trkpt>
<trkpt lat="-27.2704746" lon="151.2876199">
  <ele>372.32</ele>
  <time>2026-09-01T19:58:46Z</time>
  <course>228.66</course>
  <speed>25.564150680200584</speed>
  <fix>3d</fix>
</trkpt>
<trkpt lat="-27.2704454" lon="151.2876569">
  <ele>372.4</ele>
  <time>2026-09-01T19:58:46Z</time>
  <course>227.99</course>
  <speed>25.6</speed>
  <fix>3d</fix>
</trkpt>
<trkpt lat="-27.2704901" lon="151.2876006">
  <ele>372.34</ele>
  <time>2026-09-01T19:58:46Z</time>
  <course>228.71</course>
  <speed>25.556707534422348</speed>
  <fix>3d</fix>
</trkpt>
<trkpt lat="-27.2704454" lon="151.2876569">
  <ele>372.4</ele>
  <time>2026-09-01T19:58:46Z</time>
  <course>227.99</course>
  <speed>25.6</speed>
  <fix>3d</fix>
</trkpt>
<trkpt lat="-27.2705055" lon="151.2875813">
  <ele>372.36</ele>
  <time>2026-09-01T19:58:46Z</time>
  <course>228.71</course>
  <speed>25.549266134274777</speed>
  <fix>3d</fix>
</trkpt>
<trkpt lat="-27.2704762" lon="151.2876185">
  <ele>372.44</ele>
  <time>2026-09-01T19:58:46Z</time>
  <course>227.99</course>
  <speed>25.59</speed>
  <fix>3d</fix>
</trkpt>
<trkpt lat="-27.2705208" lon="151.2875622">
  <ele>372.38</ele>
  <time>2026-09-01T19:58:46Z</time>
  <course>228.67</course>
  <speed>25.549266134274777</speed>
  <fix>3d</fix>
</trkpt>
<trkpt lat="-27.2704762" lon="151.2876185">
  <ele>372.44</ele>
  <time>2026-09-01T19:58:46Z</time>
  <course>227.99</course>
  <speed>25.59</speed>
  <fix>3d</fix>
</trkpt>
<trkpt lat="-27.2705362" lon="151.287543">
  <ele>372.4</ele>
  <time>2026-09-01T19:58:46Z</time>
  <course>228.66</course>
  <speed>25.549266134274777</speed>
  <fix>3d</fix>
</trkpt>
<trkpt lat="-27.2705069" lon="151.28758">
  <ele>372.47</ele>
  <time>2026-09-01T19:58:46Z</time>
  <course>227.97</course>
  <speed>25.57</speed>
  <fix>3d</fix>
</trkpt>
<trkpt lat="-27.2705516" lon="151.2875237">
  <ele>372.42</ele>
  <time>2026-09-01T19:58:46Z</time>
  <course>228.69</course>
  <speed>25.541826481283596</speed>
  <fix>3d</fix>
</trkpt>
<trkpt lat="-27.2705069" lon="151.28758">
  <ele>372.47</ele>
  <time>2026-09-01T19:58:46Z</time>
  <course>227.97</course>
  <speed>25.57</speed>
  <fix>3d</fix>
</trkpt>
<trkpt lat="-27.270567" lon="151.2875045">
  <ele>372.43</ele>
  <time>2026-09-01T19:58:46Z</time>
  <course>228.7</course>
  <speed>25.534388576975953</speed>
  <fix>3d</fix>
</trkpt>
<trkpt lat="-27.2705376" lon="151.2875417">
  <ele>372.52</ele>
  <time>2026-09-01T19:58:46Z</time>
  <course>227.96</course>
  <speed>25.55</speed>
  <fix>3d</fix>
</trkpt>
<trkpt lat="-27.2705825" lon="151.2874851">
  <ele>372.45</ele>
  <time>2026-09-01T19:58:46Z</time>
  <course>228.7</course>
  <speed>25.534388576975953</speed>
  <fix>3d</fix>
</trkpt>
<trkpt lat="-27.2705376" lon="151.2875417">
  <ele>372.52</ele>
  <time>2026-09-01T19:58:46Z</time>
  <course>227.96</course>
  <speed>25.55</speed>
  <fix>3d</fix>
</trkpt>
<trkpt lat="-27.2705979" lon="151.2874659">
  <ele>372.46</ele>
  <time>2026-09-01T19:58:46Z</time>
  <course>228.72</course>
  <speed>25.52695242288041</speed>
  <fix>3d</fix>
</trkpt>
<trkpt lat="-27.2705684" lon="151.2875034">
  <ele>372.55</ele>
  <time>2026-09-01T19:58:46Z</time>
  <course>227.94</course>
  <speed>25.53</speed>
  <fix>3d</fix>
</trkpt>
<trkpt lat="-27.2706133" lon="151.2874467">
  <ele>372.48</ele>
  <time>2026-09-01T19:58:46Z</time>
  <course>228.74</course>
  <speed>25.520266456289207</speed>
  <fix>3d</fix>
</trkpt>
<trkpt lat="-27.2705684" lon="151.2875034">
  <ele>372.55</ele>
  <time>2026-09-01T19:58:46Z</time>
  <course>227.94</course>
  <speed>25.53</speed>
  <fix>3d</fix>
</trkpt>
<trkpt lat="-27.2706287" lon="151.2874275">
  <ele>372.49</ele>
  <time>2026-09-01T19:58:46Z</time>
  <course>228.72</course>
  <speed>25.520266456289207</speed>
  <fix>3d</fix>
</trkpt>
<trkpt lat="-27.2705991" lon="151.2874651">
  <ele>372.58</ele>
  <time>2026-09-01T19:58:46Z</time>
  <course>227.93</course>
  <speed>25.52</speed>
  <fix>3d</fix>
</trkpt>
<trkpt lat="-27.2706441" lon="151.2874083">
  <ele>372.51</ele>
  <time>2026-09-01T19:58:46Z</time>
  <course>228.73</course>
  <speed>25.513582657086793</speed>
  <fix>3d</fix>
</trkpt>
<trkpt lat="-27.2705991" lon="151.2874651">
  <ele>372.58</ele>
  <time>2026-09-01T19:58:46Z</time>
  <course>227.93</course>
  <speed>25.52</speed>
  <fix>3d</fix>
</trkpt>
<trkpt lat="-27.2706595" lon="151.2873891">
  <ele>372.52</ele>
  <time>2026-09-01T19:58:46Z</time>
  <course>228.69</course>
  <speed>25.513582657086793</speed>
  <fix>3d</fix>
</trkpt>
<trkpt lat="-27.2706298" lon="151.2874268">
  <ele>372.61</ele>
  <time>2026-09-01T19:58:46Z</time>
  <course>227.93</course>
  <speed>25.5</speed>
  <fix>3d</fix>
</trkpt>
<trkpt lat="-27.2706749" lon="151.2873699">
  <ele>372.53</ele>
  <time>2026-09-01T19:58:46Z</time>
  <course>228.72</course>
  <speed>25.506144357781714</speed>
  <fix>3d</fix>
</trkpt>
<trkpt lat="-27.2706298" lon="151.2874268">
  <ele>372.61</ele>
  <time>2026-09-01T19:58:46Z</time>
  <course>227.93</course>
  <speed>25.5</speed>
  <fix>3d</fix>
</trkpt>
<trkpt lat="-27.2706903" lon="151.2873507">
  <ele>372.54</ele>
  <time>2026-09-01T19:58:46Z</time>
  <course>228.74</course>
  <speed>25.506144357781714</speed>
  <fix>3d</fix>
</trkpt>
<trkpt lat="-27.2706605" lon="151.2873885">
  <ele>372.63</ele>
  <time>2026-09-01T19:58:46Z</time>
  <course>227.93</course>
  <speed>25.49</speed>
  <fix>3d</fix>
</trkpt>
<trkpt lat="-27.2707057" lon="151.2873315">
  <ele>372.55</ele>
  <time>2026-09-01T19:58:46Z</time>
  <course>228.79</course>
  <speed>25.506144357781714</speed>
  <fix>3d</fix>
</trkpt>
<trkpt lat="-27.2706605" lon="151.2873885">
  <ele>372.63</ele>
  <time>2026-09-01T19:58:46Z</time>
  <course>227.93</course>
  <speed>25.49</speed>
  <fix>3d</fix>
</trkpt>
<trkpt lat="-27.2707211" lon="151.2873123">
  <ele>372.56</ele>
  <time>2026-09-01T19:58:46Z</time>
  <course>228.85</course>
  <speed>25.506901026976994</speed>
  <fix>3d</fix>
</trkpt>
<trkpt lat="-27.2706912" lon="151.2873502">
  <ele>372.66</ele>
  <time>2026-09-01T19:58:46Z</time>
  <course>227.93</course>
  <speed>25.48</speed>
  <fix>3d</fix>
</trkpt>
<trkpt lat="-27.2707364" lon="151.2872931">
  <ele>372.57</ele>
  <time>2026-09-01T19:58:46Z</time>
  <course>228.83</course>
  <speed>25.506901026976994</speed>
  <fix>3d</fix>
</trkpt>
<trkpt lat="-27.2706912" lon="151.2873502">
  <ele>372.66</ele>
  <time>2026-09-01T19:58:46Z</time>
  <course>227.93</course>
  <speed>25.48</speed>
  <fix>3d</fix>
</trkpt>
<trkpt lat="-27.2707518" lon="151.2872739">
  <ele>372.57</ele>
  <time>2026-09-01T19:58:46Z</time>
  <course>228.71</course>
  <speed>25.507665514507593</speed>
  <fix>3d</fix>
</trkpt>
<trkpt lat="-27.2707219" lon="151.2873119">
  <ele>372.67</ele>
  <time>2026-09-01T19:58:46Z</time>
  <course>227.96</course>
  <speed>25.47</speed>
  <fix>3d</fix>
</trkpt>
<trkpt lat="-27.2707672" lon="151.2872547">
  <ele>372.58</ele>
  <time>2026-09-01T19:58:46Z</time>
  <course>228.72</course>
  <speed>25.50022156766486</speed>
  <fix>3d</fix>
</trkpt>
<trkpt lat="-27.2707219" lon="151.2873119">
  <ele>372.67</ele>
  <time>2026-09-01T19:58:46Z</time>
  <course>227.96</course>
  <speed>25.47</speed>
  <fix>3d</fix>
</trkpt>
<trkpt lat="-27.2707825" lon="151.2872355">
  <ele>372.58</ele>
  <time>2026-09-01T19:58:46Z</time>
  <course>228.78</course>
  <speed>25.50022156766486</speed>
  <fix>3d</fix>
</trkpt>
<trkpt lat="-27.2707526" lon="151.2872736">
  <ele>372.68</ele>
  <time>2026-09-01T19:58:46Z</time>
  <course>227.98</course>
  <speed>25.46</speed>
  <fix>3d</fix>
</trkpt>
<trkpt lat="-27.2707979" lon="151.2872164">
  <ele>372.58</ele>
  <time>2026-09-01T19:58:46Z</time>
  <course>228.83</course>
  <speed>25.500990176853914</speed>
  <fix>3d</fix>
</trkpt>
<trkpt lat="-27.2707526" lon="151.2872736">
  <ele>372.68</ele>
  <time>2026-09-01T19:58:46Z</time>
  <course>227.98</course>
  <speed>25.46</speed>
  <fix>3d</fix>
</trkpt>
<trkpt lat="-27.2708132" lon="151.2871972">
  <ele>372.58</ele>
  <time>2026-09-01T19:58:46Z</time>
  <course>228.82</course>
  <speed>25.500990176853914</speed>
  <fix>3d</fix>
</trkpt>
<trkpt lat="-27.2707831" lon="151.2872355">
  <ele>372.69</ele>
  <time>2026-09-01T19:58:46Z</time>
  <course>227.98</course>
  <speed>25.46</speed>
  <fix>3d</fix>
</trkpt>
<trkpt lat="-27.2708285" lon="151.287178">
  <ele>372.58</ele>
  <time>2026-09-01T19:58:46Z</time>
  <course>228.78</course>
  <speed>25.500990176853914</speed>
  <fix>3d</fix>
</trkpt>
<trkpt lat="-27.2707831" lon="151.2872355">
  <ele>372.69</ele>
  <time>2026-09-01T19:58:46Z</time>
  <course>227.98</course>
  <speed>25.46</speed>
  <fix>3d</fix>
</trkpt>
<trkpt lat="-27.2708439" lon="151.2871588">
  <ele>372.58</ele>
  <time>2026-09-01T19:58:46Z</time>
  <course>228.8</course>
  <speed>25.49354428085667</speed>
  <fix>3d</fix>
</trkpt>
<trkpt lat="-27.2708138" lon="151.2871973">
  <ele>372.7</ele>
  <time>2026-09-01T19:58:46Z</time>
  <course>227.99</course>
  <speed>25.45</speed>
  <fix>3d</fix>
</trkpt>
<trkpt lat="-27.2708592" lon="151.2871397">
  <ele>372.59</ele>
  <time>2026-09-01T19:58:46Z</time>
  <course>228.8</course>
  <speed>25.486869168259958</speed>
  <fix>3d</fix>
</trkpt>
<trkpt lat="-27.2708138" lon="151.2871973">
  <ele>372.7</ele>
  <time>2026-09-01T19:58:46Z</time>
  <course>227.99</course>
  <speed>25.45</speed>
  <fix>3d</fix>
</trkpt>
<trkpt lat="-27.2708745" lon="151.2871206">
  <ele>372.59</ele>
  <time>2026-09-01T19:58:46Z</time>
  <course>228.8</course>
  <speed>25.486869168259958</speed>
  <fix>3d</fix>
</trkpt>
<trkpt lat="-27.2708443" lon="151.2871591">
  <ele>372.7</ele>
  <time>2026-09-01T19:58:46Z</time>
  <course>228.0</course>
  <speed>25.44</speed>
  <fix>3d</fix>
</trkpt>
<trkpt lat="-27.2708898" lon="151.2871014">
  <ele>372.6</ele>
  <time>2026-09-01T19:58:46Z</time>
  <course>228.77</course>
  <speed>25.48019623158346</speed>
  <fix>3d</fix>
</trkpt>
<trkpt lat="-27.2708443" lon="151.2871591">
  <ele>372.7</ele>
  <time>2026-09-01T19:58:46Z</time>
  <course>228.0</course>
  <speed>25.44</speed>
  <fix>3d</fix>
</trkpt>
<trkpt lat="-27.2709052" lon="151.2870821">
  <ele>372.59</ele>
  <time>2026-09-01T19:58:46Z</time>
  <course>228.79</course>
  <speed>25.48019623158346</speed>
  <fix>3d</fix>
</trkpt>
<trkpt lat="-27.2708749" lon="151.2871208">
  <ele>372.7</ele>
  <time>2026-09-01T19:58:46Z</time>
  <course>228.01</course>
  <speed>25.43</speed>
  <fix>3d</fix>
</trkpt>
<trkpt lat="-27.2709205" lon="151.287063">
  <ele>372.6</ele>
  <time>2026-09-01T19:58:46Z</time>
  <course>228.83</course>
  <speed>25.473525472537165</speed>
  <fix>3d</fix>
</trkpt>
<trkpt lat="-27.2708749" lon="151.2871208">
  <ele>372.7</ele>
  <time>2026-09-01T19:58:46Z</time>
  <course>228.01</course>
  <speed>25.43</speed>
  <fix>3d</fix>
</trkpt>
<trkpt lat="-27.2709358" lon="151.2870438">
  <ele>372.6</ele>
  <time>2026-09-01T19:58:46Z</time>
  <course>228.86</course>
  <speed>25.473525472537165</speed>
  <fix>3d</fix>
</trkpt>
<trkpt lat="-27.2709055" lon="151.2870826">
  <ele>372.71</ele>
  <time>2026-09-01T19:58:46Z</time>
  <course>228.03</course>
  <speed>25.43</speed>
  <fix>3d</fix>
</trkpt>
<trkpt lat="-27.2709511" lon="151.2870247">
  <ele>372.6</ele>
  <time>2026-09-01T19:58:46Z</time>
  <course>228.9</course>
  <speed>25.473525472537165</speed>
  <fix>3d</fix>
</trkpt>
<trkpt lat="-27.2709055" lon="151.2870826">
  <ele>372.71</ele>
  <time>2026-09-01T19:58:46Z</time>
  <course>228.03</course>
  <speed>25.43</speed>
  <fix>3d</fix>
</trkpt>
<trkpt lat="-27.2709664" lon="151.2870056">
  <ele>372.6</ele>
  <time>2026-09-01T19:58:46Z</time>
  <course>228.92</course>
  <speed>25.473525472537165</speed>
  <fix>3d</fix>
</trkpt>
<trkpt lat="-27.270936" lon="151.2870443">
  <ele>372.71</ele>
  <time>2026-09-01T19:58:46Z</time>
  <course>228.03</course>
  <speed>25.43</speed>
  <fix>3d</fix>
</trkpt>
<trkpt lat="-27.2709816" lon="151.2869865">
  <ele>372.6</ele>
  <time>2026-09-01T19:58:46Z</time>
  <course>228.9</course>
  <speed>25.466856892832297</speed>
  <fix>3d</fix>
</trkpt>
<trkpt lat="-27.270936" lon="151.2870443">
  <ele>372.71</ele>
  <time>2026-09-01T19:58:46Z</time>
  <course>228.03</course>
  <speed>25.43</speed>
  <fix>3d</fix>
</trkpt>
<trkpt lat="-27.2709969" lon="151.2869674">
  <ele>372.6</ele>
  <time>2026-09-01T19:58:46Z</time>
  <course>228.95</course>
  <speed>25.4601904941813</speed>
  <fix>3d</fix>
</trkpt>
<trkpt lat="-27.2709665" lon="151.2870062">
  <ele>372.71</ele>
  <time>2026-09-01T19:58:46Z</time>
  <course>228.05</course>
  <speed>25.43</speed>
  <fix>3d</fix>
</trkpt>
<trkpt lat="-27.2710122" lon="151.2869482">
  <ele>372.59</ele>
  <time>2026-09-01T19:58:46Z</time>
  <course>228.91</course>
  <speed>25.4601904941813</speed>
  <fix>3d</fix>
</trkpt>
<trkpt lat="-27.2709665" lon="151.2870062">
  <ele>372.71</ele>
  <time>2026-09-01T19:58:46Z</time>
  <course>228.05</course>
  <speed>25.43</speed>
  <fix>3d</fix>
</trkpt>
<trkpt lat="-27.2710274" lon="151.2869291">
  <ele>372.59</ele>
  <time>2026-09-01T19:58:46Z</time>
  <course>228.92</course>
  <speed>25.4601904941813</speed>
  <fix>3d</fix>
</trkpt>
<trkpt lat="-27.2709971" lon="151.2869678">
  <ele>372.71</ele>
  <time>2026-09-01T19:58:46Z</time>
  <course>228.07</course>
  <speed>25.43</speed>
  <fix>3d</fix>
</trkpt>
<trkpt lat="-27.2710427" lon="151.28691">
  <ele>372.59</ele>
  <time>2026-09-01T19:58:46Z</time>
  <course>228.95</course>
  <speed>25.45352627829787</speed>
  <fix>3d</fix>
</trkpt>
<trkpt lat="-27.2709971" lon="151.2869678">
  <ele>372.71</ele>
  <time>2026-09-01T19:58:46Z</time>
  <course>228.07</course>
  <speed>25.43</speed>
  <fix>3d</fix>
</trkpt>
<trkpt lat="-27.2710579" lon="151.2868909">
  <ele>372.59</ele>
  <time>2026-09-01T19:58:46Z</time>
  <course>228.95</course>
  <speed>25.45352627829787</speed>
  <fix>3d</fix>
</trkpt>
<trkpt lat="-27.2710277" lon="151.2869296">
  <ele>372.71</ele>
  <time>2026-09-01T19:58:46Z</time>
  <course>228.09</course>
  <speed>25.42</speed>
  <fix>3d</fix>
</trkpt>
<trkpt lat="-27.2710732" lon="151.2868717">
  <ele>372.59</ele>
  <time>2026-09-01T19:58:46Z</time>
  <course>228.92</course>
  <speed>25.460983877297437</speed>
  <fix>3d</fix>
</trkpt>
<trkpt lat="-27.2710277" lon="151.2869296">
  <ele>372.71</ele>
  <time>2026-09-01T19:58:46Z</time>
  <course>228.09</course>
  <speed>25.42</speed>
  <fix>3d</fix>
</trkpt>
<trkpt lat="-27.2710884" lon="151.2868526">
  <ele>372.58</ele>
  <time>2026-09-01T19:58:46Z</time>
  <course>228.9</course>
  <speed>25.460983877297437</speed>
  <fix>3d</fix>
</trkpt>
<trkpt lat="-27.2710582" lon="151.2868913">
  <ele>372.7</ele>
  <time>2026-09-01T19:58:46Z</time>
  <course>228.11</course>
  <speed>25.42</speed>
  <fix>3d</fix>
</trkpt>
<trkpt lat="-27.2711037" lon="151.2868335">
  <ele>372.58</ele>
  <time>2026-09-01T19:58:46Z</time>
  <course>228.95</course>
  <speed>25.460983877297437</speed>
  <fix>3d</fix>
</trkpt>
<trkpt lat="-27.2710582" lon="151.2868913">
  <ele>372.7</ele>
  <time>2026-09-01T19:58:46Z</time>
  <course>228.11</course>
  <speed>25.42</speed>
  <fix>3d</fix>
</trkpt>
<trkpt lat="-27.2711189" lon="151.2868143">
  <ele>372.57</ele>
  <time>2026-09-01T19:58:46Z</time>
  <course>228.96</course>
  <speed>25.460983877297437</speed>
  <fix>3d</fix>
</trkpt>
<trkpt lat="-27.2710886" lon="151.2868531">
  <ele>372.69</ele>
  <time>2026-09-01T19:58:46Z</time>
  <course>228.13</course>
  <speed>25.43</speed>
  <fix>3d</fix>
</trkpt>
<trkpt lat="-27.2711342" lon="151.2867952">
  <ele>372.56</ele>
  <time>2026-09-01T19:58:46Z</time>
  <course>228.93</course>
  <speed>25.45352627829787</speed>
  <fix>3d</fix>
</trkpt>
<trkpt lat="-27.2710886" lon="151.2868531">
  <ele>372.69</ele>
  <time>2026-09-01T19:58:46Z</time>
  <course>228.13</course>
  <speed>25.43</speed>
  <fix>3d</fix>
</trkpt>
<trkpt lat="-27.2711494" lon="151.2867761">
  <ele>372.56</ele>
  <time>2026-09-01T19:58:46Z</time>
  <course>228.94</course>
  <speed>25.45352627829787</speed>
  <fix>3d</fix>
</trkpt>
<trkpt lat="-27.2711191" lon="151.2868148">
  <ele>372.68</ele>
  <time>2026-09-01T19:58:46Z</time>
  <course>228.13</course>
  <speed>25.43</speed>
  <fix>3d</fix>
</trkpt>
<trkpt lat="-27.2711647" lon="151.2867569">
  <ele>372.55</ele>
  <time>2026-09-01T19:58:46Z</time>
  <course>228.91</course>
  <speed>25.45352627829787</speed>
  <fix>3d</fix>
</trkpt>
<trkpt lat="-27.2711191" lon="151.2868148">
  <ele>372.68</ele>
  <time>2026-09-01T19:58:46Z</time>
  <course>228.13</course>
  <speed>25.43</speed>
  <fix>3d</fix>
</trkpt>
<trkpt lat="-27.2711799" lon="151.2867378">
  <ele>372.55</ele>
  <time>2026-09-01T19:58:46Z</time>
  <course>228.88</course>
  <speed>25.44607042354477</speed>
  <fix>3d</fix>
</trkpt>
<trkpt lat="-27.2711496" lon="151.2867765">
  <ele>372.67</ele>
  <time>2026-09-01T19:58:46Z</time>
  <course>228.12</course>
  <speed>25.43</speed>
  <fix>3d</fix>
</trkpt>
<trkpt lat="-27.2711952" lon="151.2867187">
  <ele>372.55</ele>
  <time>2026-09-01T19:58:46Z</time>
  <course>228.91</course>
  <speed>25.44607042354477</speed>
  <fix>3d</fix>
</trkpt>
<trkpt lat="-27.2711496" lon="151.2867765">
  <ele>372.67</ele>
  <time>2026-09-01T19:58:46Z</time>
  <course>228.12</course>
  <speed>25.43</speed>
  <fix>3d</fix>
</trkpt>
<trkpt lat="-27.2712103" lon="151.2866997">
  <ele>372.54</ele>
  <time>2026-09-01T19:58:46Z</time>
  <course>228.98</course>
  <speed>25.44607042354477</speed>
  <fix>3d</fix>
</trkpt>
<trkpt lat="-27.2711801" lon="151.2867383">
  <ele>372.67</ele>
  <time>2026-09-01T19:58:46Z</time>
  <course>228.1</course>
  <speed>25.43</speed>
  <fix>3d</fix>
</trkpt>
<trkpt lat="-27.2712255" lon="151.2866806">
  <ele>372.54</ele>
  <time>2026-09-01T19:58:46Z</time>
  <course>229.02</course>
  <speed>25.431950377428784</speed>
  <fix>3d</fix>
</trkpt>
<trkpt lat="-27.2711801" lon="151.2867383">
  <ele>372.67</ele>
  <time>2026-09-01T19:58:46Z</time>
  <course>228.1</course>
  <speed>25.43</speed>
  <fix>3d</fix>
</trkpt>
<trkpt lat="-27.2712408" lon="151.2866615">
  <ele>372.54</ele>
  <time>2026-09-01T19:58:46Z</time>
  <course>228.96</course>
  <speed>25.431950377428784</speed>
  <fix>3d</fix>
</trkpt>
<trkpt lat="-27.2712106" lon="151.2867">
  <ele>372.67</ele>
  <time>2026-09-01T19:58:46Z</time>
  <course>228.09</course>
  <speed>25.43</speed>
  <fix>3d</fix>
</trkpt>
<trkpt lat="-27.271256" lon="151.2866424">
  <ele>372.55</ele>
  <time>2026-09-01T19:58:46Z</time>
  <course>228.93</course>
  <speed>25.42528662571968</speed>
  <fix>3d</fix>
</trkpt>
<trkpt lat="-27.2712106" lon="151.2867">
  <ele>372.67</ele>
  <time>2026-09-01T19:58:46Z</time>
  <course>228.09</course>
  <speed>25.43</speed>
  <fix>3d</fix>
</trkpt>
<trkpt lat="-27.2712715" lon="151.286623">
  <ele>372.55</ele>
  <time>2026-09-01T19:58:46Z</time>
  <course>228.89</course>
  <speed>25.4178303558742</speed>
  <fix>3d</fix>
</trkpt>
<trkpt lat="-27.2712411" lon="151.2866618">
  <ele>372.67</ele>
  <time>2026-09-01T19:58:46Z</time>
  <course>228.11</course>
  <speed>25.42</speed>
  <fix>3d</fix>
</trkpt>
<trkpt lat="-27.2712868" lon="151.2866038">
  <ele>372.55</ele>
  <time>2026-09-01T19:58:46Z</time>
  <course>228.91</course>
  <speed>25.4178303558742</speed>
  <fix>3d</fix>
</trkpt>
<trkpt lat="-27.2712411" lon="151.2866618">
  <ele>372.67</ele>
  <time>2026-09-01T19:58:46Z</time>
  <course>228.11</course>
  <speed>25.42</speed>
  <fix>3d</fix>
</trkpt>
<trkpt lat="-27.2713019" lon="151.2865848">
  <ele>372.55</ele>
  <time>2026-09-01T19:58:46Z</time>
  <course>228.92</course>
  <speed>25.410375833505494</speed>
  <fix>3d</fix>
</trkpt>
<trkpt lat="-27.2712716" lon="151.2866235">
  <ele>372.67</ele>
  <time>2026-09-01T19:58:46Z</time>
  <course>228.11</course>
  <speed>25.42</speed>
  <fix>3d</fix>
</trkpt>
<trkpt lat="-27.2713171" lon="151.2865658">
  <ele>372.54</ele>
  <time>2026-09-01T19:58:46Z</time>
  <course>228.91</course>
  <speed>25.410375833505494</speed>
  <fix>3d</fix>
</trkpt>
<trkpt lat="-27.2712716" lon="151.2866235">
  <ele>372.67</ele>
  <time>2026-09-01T19:58:46Z</time>
  <course>228.11</course>
  <speed>25.42</speed>
  <fix>3d</fix>
</trkpt>
<trkpt lat="-27.2713322" lon="151.2865468">
  <ele>372.54</ele>
  <time>2026-09-01T19:58:46Z</time>
  <course>228.95</course>
  <speed>25.396255629521452</speed>
  <fix>3d</fix>
</trkpt>
<trkpt lat="-27.2713021" lon="151.2865852">
  <ele>372.67</ele>
  <time>2026-09-01T19:58:46Z</time>
  <course>228.1</course>
  <speed>25.41</speed>
  <fix>3d</fix>
</trkpt>
<trkpt lat="-27.2713474" lon="151.2865278">
  <ele>372.54</ele>
  <time>2026-09-01T19:58:46Z</time>
  <course>228.99</course>
  <speed>25.389590386613172</speed>
  <fix>3d</fix>
</trkpt>
<trkpt lat="-27.2713021" lon="151.2865852">
  <ele>372.67</ele>
  <time>2026-09-01T19:58:46Z</time>
  <course>228.1</course>
  <speed>25.41</speed>
  <fix>3d</fix>
</trkpt>
<trkpt lat="-27.2713625" lon="151.2865089">
  <ele>372.55</ele>
  <time>2026-09-01T19:58:46Z</time>
  <course>228.96</course>
  <speed>25.382135449957715</speed>
  <fix>3d</fix>
</trkpt>
<trkpt lat="-27.2713327" lon="151.2865469">
  <ele>372.66</ele>
  <time>2026-09-01T19:58:46Z</time>
  <course>228.1</course>
  <speed>25.41</speed>
  <fix>3d</fix>
</trkpt>
<trkpt lat="-27.2713776" lon="151.2864899">
  <ele>372.55</ele>
  <time>2026-09-01T19:58:46Z</time>
  <course>228.93</course>
  <speed>25.37547043898891</speed>
  <fix>3d</fix>
</trkpt>
<trkpt lat="-27.2713327" lon="151.2865469">
  <ele>372.66</ele>
  <time>2026-09-01T19:58:46Z</time>
  <course>228.1</course>
  <speed>25.41</speed>
  <fix>3d</fix>
</trkpt>
<trkpt lat="-27.2713928" lon="151.2864709">
  <ele>372.54</ele>
  <time>2026-09-01T19:58:46Z</time>
  <course>228.94</course>
  <speed>25.37547043898891</speed>
  <fix>3d</fix>
</trkpt>
<trkpt lat="-27.2713632" lon="151.2865086">
  <ele>372.66</ele>
  <time>2026-09-01T19:58:46Z</time>
  <course>228.11</course>
  <speed>25.41</speed>
  <fix>3d</fix>
</trkpt>
<trkpt lat="-27.2714079" lon="151.2864519">
  <ele>372.54</ele>
  <time>2026-09-01T19:58:46Z</time>
  <course>228.96</course>
  <speed>25.361350516090425</speed>
  <fix>3d</fix>
</trkpt>
<trkpt lat="-27.2713632" lon="151.2865086">
  <ele>372.66</ele>
  <time>2026-09-01T19:58:46Z</time>
  <course>228.11</course>
  <speed>25.41</speed>
  <fix>3d</fix>
</trkpt>
<trkpt lat="-27.2714231" lon="151.2864328">
  <ele>372.54</ele>
  <time>2026-09-01T19:58:46Z</time>
  <course>228.99</course>
  <speed>25.361350516090425</speed>
  <fix>3d</fix>
</trkpt>
<trkpt lat="-27.2713937" lon="151.2864704">
  <ele>372.66</ele>
  <time>2026-09-01T19:58:46Z</time>
  <course>228.12</course>
  <speed>25.42</speed>
  <fix>3d</fix>
</trkpt>
<trkpt lat="-27.2714383" lon="151.2864138">
  <ele>372.53</ele>
  <time>2026-09-01T19:58:46Z</time>
  <course>228.96</course>
  <speed>25.354687929453995</speed>
  <fix>3d</fix>
</trkpt>
<trkpt lat="-27.2713937" lon="151.2864704">
  <ele>372.66</ele>
  <time>2026-09-01T19:58:46Z</time>
  <course>228.12</course>
  <speed>25.42</speed>
  <fix>3d</fix>
</trkpt>
<trkpt lat="-27.2714534" lon="151.2863947">
  <ele>372.53</ele>
  <time>2026-09-01T19:58:46Z</time>
  <course>228.94</course>
  <speed>25.354687929453995</speed>
  <fix>3d</fix>
</trkpt>
<trkpt lat="-27.2714241" lon="151.2864321">
  <ele>372.65</ele>
  <time>2026-09-01T19:58:46Z</time>
  <course>228.13</course>
  <speed>25.41</speed>
  <fix>3d</fix>
</trkpt>
<trkpt lat="-27.2714686" lon="151.2863757">
  <ele>372.52</ele>
  <time>2026-09-01T19:58:46Z</time>
  <course>228.93</course>
  <speed>25.354687929453995</speed>
  <fix>3d</fix>
</trkpt>
<trkpt lat="-27.2714241" lon="151.2864321">
  <ele>372.65</ele>
  <time>2026-09-01T19:58:46Z</time>
  <course>228.13</course>
  <speed>25.41</speed>
  <fix>3d</fix>
</trkpt>
<trkpt lat="-27.2714838" lon="151.2863566">
  <ele>372.52</ele>
  <time>2026-09-01T19:58:46Z</time>
  <course>228.93</course>
  <speed>25.354687929453995</speed>
  <fix>3d</fix>
</trkpt>
<trkpt lat="-27.2714546" lon="151.2863939">
  <ele>372.64</ele>
  <time>2026-09-01T19:58:46Z</time>
  <course>228.14</course>
  <speed>25.42</speed>
  <fix>3d</fix>
</trkpt>
<trkpt lat="-27.271499" lon="151.2863375">
  <ele>372.51</ele>
  <time>2026-09-01T19:58:46Z</time>
  <course>228.99</course>
  <speed>25.354687929453995</speed>
  <fix>3d</fix>
</trkpt>
<trkpt lat="-27.2714546" lon="151.2863939">
  <ele>372.64</ele>
  <time>2026-09-01T19:58:46Z</time>
  <course>228.14</course>
  <speed>25.42</speed>
  <fix>3d</fix>
</trkpt>
<trkpt lat="-27.2715142" lon="151.2863184">
  <ele>372.5</ele>
  <time>2026-09-01T19:58:46Z</time>
  <course>229.02</course>
  <speed>25.354687929453995</speed>
  <fix>3d</fix>
</trkpt>
<trkpt lat="-27.2714851" lon="151.2863557">
  <ele>372.63</ele>
  <time>2026-09-01T19:58:46Z</time>
  <course>228.14</course>
  <speed>25.42</speed>
  <fix>3d</fix>
</trkpt>
<trkpt lat="-27.2715293" lon="151.2862995">
  <ele>372.5</ele>
  <time>2026-09-01T19:58:46Z</time>
  <course>229.07</course>
  <speed>25.354687929453995</speed>
  <fix>3d</fix>
</trkpt>
<trkpt lat="-27.2714851" lon="151.2863557">
  <ele>372.63</ele>
  <time>2026-09-01T19:58:46Z</time>
  <course>228.14</course>
  <speed>25.42</speed>
  <fix>3d</fix>
</trkpt>
<trkpt lat="-27.2715445" lon="151.2862804">
  <ele>372.49</ele>
  <time>2026-09-01T19:58:46Z</time>
  <course>229.06</course>
  <speed>25.35548855770679</speed>
  <fix>3d</fix>
</trkpt>
<trkpt lat="-27.2715155" lon="151.2863174">
  <ele>372.61</ele>
  <time>2026-09-01T19:58:46Z</time>
  <course>228.15</course>
  <speed>25.42</speed>
  <fix>3d</fix>
</trkpt>
<trkpt lat="-27.2715597" lon="151.2862613">
  <ele>372.48</ele>
  <time>2026-09-01T19:58:46Z</time>
  <course>229.06</course>
  <speed>25.34883232024702</speed>
  <fix>3d</fix>
</trkpt>
<trkpt lat="-27.2715155" lon="151.2863174">
  <ele>372.61</ele>
  <time>2026-09-01T19:58:46Z</time>
  <course>228.15</course>
  <speed>25.42</speed>
  <fix>3d</fix>
</trkpt>
<trkpt lat="-27.2715749" lon="151.2862422">
  <ele>372.48</ele>
  <time>2026-09-01T19:58:46Z</time>
  <course>229.07</course>
  <speed>25.356297048267912</speed>
  <fix>3d</fix>
</trkpt>
<trkpt lat="-27.271546" lon="151.2862791">
  <ele>372.6</ele>
  <time>2026-09-01T19:58:46Z</time>
  <course>228.18</course>
  <speed>25.42</speed>
  <fix>3d</fix>
</trkpt>
<trkpt lat="-27.2715902" lon="151.2862229">
  <ele>372.48</ele>
  <time>2026-09-01T19:58:46Z</time>
  <course>229.09</course>
  <speed>25.356297048267912</speed>
  <fix>3d</fix>
</trkpt>
<trkpt lat="-27.271546" lon="151.2862791">
  <ele>372.6</ele>
  <time>2026-09-01T19:58:46Z</time>
  <course>228.18</course>
  <speed>25.42</speed>
  <fix>3d</fix>
</trkpt>
<trkpt lat="-27.2716054" lon="151.2862038">
  <ele>372.48</ele>
  <time>2026-09-01T19:58:46Z</time>
  <course>229.12</course>
  <speed>25.349644967928054</speed>
  <fix>3d</fix>
</trkpt>
<trkpt lat="-27.2715764" lon="151.2862408">
  <ele>372.59</ele>
  <time>2026-09-01T19:58:46Z</time>
  <course>228.21</course>
  <speed>25.42</speed>
  <fix>3d</fix>
</trkpt>
<trkpt lat="-27.2716206" lon="151.2861846">
  <ele>372.48</ele>
  <time>2026-09-01T19:58:46Z</time>
  <course>229.12</course>
  <speed>25.350465478961134</speed>
  <fix>3d</fix>
</trkpt>
<trkpt lat="-27.2715764" lon="151.2862408">
  <ele>372.59</ele>
  <time>2026-09-01T19:58:46Z</time>
  <course>228.21</course>
  <speed>25.42</speed>
  <fix>3d</fix>
</trkpt>
<trkpt lat="-27.2716358" lon="151.2861655">
  <ele>372.48</ele>
  <time>2026-09-01T19:58:46Z</time>
  <course>229.11</course>
  <speed>25.350465478961134</speed>
  <fix>3d</fix>
</trkpt>
<trkpt lat="-27.2716069" lon="151.2862025">
  <ele>372.58</ele>
  <time>2026-09-01T19:58:46Z</time>
  <course>228.24</course>
  <speed>25.42</speed>
  <fix>3d</fix>
</trkpt>
<trkpt lat="-27.2716509" lon="151.2861464">
  <ele>372.48</ele>
  <time>2026-09-01T19:58:46Z</time>
  <course>229.12</course>
  <speed>25.343819759460096</speed>
  <fix>3d</fix>
</trkpt>
<trkpt lat="-27.2716069" lon="151.2862025">
  <ele>372.58</ele>
  <time>2026-09-01T19:58:46Z</time>
  <course>228.24</course>
  <speed>25.42</speed>
  <fix>3d</fix>
</trkpt>
<trkpt lat="-27.2716661" lon="151.2861272">
  <ele>372.48</ele>
  <time>2026-09-01T19:58:46Z</time>
  <course>229.17</course>
  <speed>25.343819759460096</speed>
  <fix>3d</fix>
</trkpt>
<trkpt lat="-27.2716373" lon="151.2861641">
  <ele>372.58</ele>
  <time>2026-09-01T19:58:46Z</time>
  <course>228.27</course>
  <speed>25.42</speed>
  <fix>3d</fix>
</trkpt>
<trkpt lat="-27.2716813" lon="151.2861081">
  <ele>372.48</ele>
  <time>2026-09-01T19:58:46Z</time>
  <course>229.18</course>
  <speed>25.344652295898637</speed>
  <fix>3d</fix>
</trkpt>
<trkpt lat="-27.2716373" lon="151.2861641">
  <ele>372.58</ele>
  <time>2026-09-01T19:58:46Z</time>
  <course>228.27</course>
  <speed>25.42</speed>
  <fix>3d</fix>
</trkpt>
<trkpt lat="-27.2716966" lon="151.2860887">
  <ele>372.48</ele>
  <time>2026-09-01T19:58:46Z</time>
  <course>229.12</course>
  <speed>25.344652295898637</speed>
  <fix>3d</fix>
</trkpt>
<trkpt lat="-27.2716678" lon="151.2861256">
  <ele>372.58</ele>
  <time>2026-09-01T19:58:46Z</time>
  <course>228.29</course>
  <speed>25.41</speed>
  <fix>3d</fix>
</trkpt>
<trkpt lat="-27.2717117" lon="151.2860696">
  <ele>372.48</ele>
  <time>2026-09-01T19:58:46Z</time>
  <course>229.11</course>
  <speed>25.344652295898637</speed>
  <fix>3d</fix>
</trkpt>
<trkpt lat="-27.2716678" lon="151.2861256">
  <ele>372.58</ele>
  <time>2026-09-01T19:58:46Z</time>
  <course>228.29</course>
  <speed>25.41</speed>
  <fix>3d</fix>
</trkpt>
<trkpt lat="-27.2717269" lon="151.2860504">
  <ele>372.48</ele>
  <time>2026-09-01T19:58:46Z</time>
  <course>229.18</course>
  <speed>25.344652295898637</speed>
  <fix>3d</fix>
</trkpt>
<trkpt lat="-27.2716981" lon="151.2860873">
  <ele>372.58</ele>
  <time>2026-09-01T19:58:46Z</time>
  <course>228.3</course>
  <speed>25.41</speed>
  <fix>3d</fix>
</trkpt>
<trkpt lat="-27.2717421" lon="151.2860312">
  <ele>372.47</ele>
  <time>2026-09-01T19:58:46Z</time>
  <course>229.2</course>
  <speed>25.35213008802219</speed>
  <fix>3d</fix>
</trkpt>
<trkpt lat="-27.2716981" lon="151.2860873">
  <ele>372.58</ele>
  <time>2026-09-01T19:58:46Z</time>
  <course>228.3</course>
  <speed>25.41</speed>
  <fix>3d</fix>
</trkpt>
<trkpt lat="-27.2717573" lon="151.286012">
  <ele>372.46</ele>
  <time>2026-09-01T19:58:46Z</time>
  <course>229.21</course>
  <speed>25.35213008802219</speed>
  <fix>3d</fix>
</trkpt>
<trkpt lat="-27.2717285" lon="151.286049">
  <ele>372.57</ele>
  <time>2026-09-01T19:58:46Z</time>
  <course>228.31</course>
  <speed>25.41</speed>
  <fix>3d</fix>
</trkpt>
<trkpt lat="-27.2717725" lon="151.2859928">
  <ele>372.45</ele>
  <time>2026-09-01T19:58:46Z</time>
  <course>229.2</course>
  <speed>25.35213008802219</speed>
  <fix>3d</fix>
</trkpt>
<trkpt lat="-27.2717285" lon="151.286049">
  <ele>372.57</ele>
  <time>2026-09-01T19:58:46Z</time>
  <course>228.31</course>
  <speed>25.41</speed>
  <fix>3d</fix>
</trkpt>
<trkpt lat="-27.2717877" lon="151.2859735">
  <ele>372.45</ele>
  <time>2026-09-01T19:58:46Z</time>
  <course>229.2</course>
  <speed>25.359609618446417</speed>
  <fix>3d</fix>
</trkpt>
<trkpt lat="-27.2717588" lon="151.2860107">
  <ele>372.56</ele>
  <time>2026-09-01T19:58:46Z</time>
  <course>228.32</course>
  <speed>25.41</speed>
  <fix>3d</fix>
</trkpt>
<trkpt lat="-27.2718029" lon="151.2859543">
  <ele>372.44</ele>
  <time>2026-09-01T19:58:47Z</time>
  <course>229.22</course>
  <speed>25.367090885633694</speed>
  <fix>3d</fix>
</trkpt>
<trkpt lat="-27.2717588" lon="151.2860107">
  <ele>372.56</ele>
  <time>2026-09-01T19:58:47Z</time>
  <course>228.32</course>
  <speed>25.41</speed>
  <fix>3d</fix>
</trkpt>
<trkpt lat="-27.2718181" lon="151.2859351">
  <ele>372.43</ele>
  <time>2026-09-01T19:58:47Z</time>
  <course>229.3</course>
  <speed>25.367090885633694</speed>
  <fix>3d</fix>
</trkpt>
<trkpt lat="-27.2717892" lon="151.2859723">
  <ele>372.53</ele>
  <time>2026-09-01T19:58:47Z</time>
  <course>228.34</course>
  <speed>25.41</speed>
  <fix>3d</fix>
</trkpt>
<trkpt lat="-27.2718333" lon="151.2859159">
  <ele>372.43</ele>
  <time>2026-09-01T19:58:47Z</time>
  <course>229.34</course>
  <speed>25.367942368272598</speed>
  <fix>3d</fix>
</trkpt>
<trkpt lat="-27.2717892" lon="151.2859723">
  <ele>372.53</ele>
  <time>2026-09-01T19:58:47Z</time>
  <course>228.34</course>
  <speed>25.41</speed>
  <fix>3d</fix>
</trkpt>
<trkpt lat="-27.2718484" lon="151.2858968">
  <ele>372.42</ele>
  <time>2026-09-01T19:58:47Z</time>
  <course>229.35</course>
  <speed>25.375429060411967</speed>
  <fix>3d</fix>
</trkpt>
<trkpt lat="-27.2718195" lon="151.2859339">
  <ele>372.52</ele>
  <time>2026-09-01T19:58:47Z</time>
  <course>228.37</course>
  <speed>25.41</speed>
  <fix>3d</fix>
</trkpt>
<trkpt lat="-27.2718636" lon="151.2858775">
  <ele>372.42</ele>
  <time>2026-09-01T19:58:47Z</time>
  <course>229.32</course>
  <speed>25.375429060411967</speed>
  <fix>3d</fix>
</trkpt>
<trkpt lat="-27.2718195" lon="151.2859339">
  <ele>372.52</ele>
  <time>2026-09-01T19:58:47Z</time>
  <course>228.37</course>
  <speed>25.41</speed>
  <fix>3d</fix>
</trkpt>
<trkpt lat="-27.2718788" lon="151.2858583">
  <ele>372.41</ele>
  <time>2026-09-01T19:58:47Z</time>
  <course>229.3</course>
  <speed>25.382917484008807</speed>
  <fix>3d</fix>
</trkpt>
<trkpt lat="-27.2718498" lon="151.2858954">
  <ele>372.51</ele>
  <time>2026-09-01T19:58:47Z</time>
  <course>228.4</course>
  <speed>25.42</speed>
  <fix>3d</fix>
</trkpt>
<trkpt lat="-27.2718939" lon="151.285839">
  <ele>372.4</ele>
  <time>2026-09-01T19:58:47Z</time>
  <course>229.28</course>
  <speed>25.382917484008807</speed>
  <fix>3d</fix>
</trkpt>
<trkpt lat="-27.2718498" lon="151.2858954">
  <ele>372.51</ele>
  <time>2026-09-01T19:58:47Z</time>
  <course>228.4</course>
  <speed>25.42</speed>
  <fix>3d</fix>
</trkpt>
<trkpt lat="-27.2719092" lon="151.2858196">
  <ele>372.39</ele>
  <time>2026-09-01T19:58:47Z</time>
  <course>229.25</course>
  <speed>25.382917484008807</speed>
  <fix>3d</fix>
</trkpt>
<trkpt lat="-27.2718801" lon="151.285857">
  <ele>372.5</ele>
  <time>2026-09-01T19:58:47Z</time>
  <course>228.42</course>
  <speed>25.42</speed>
  <fix>3d</fix>
</trkpt>
<trkpt lat="-27.2719244" lon="151.2858004">
  <ele>372.39</ele>
  <time>2026-09-01T19:58:47Z</time>
  <course>229.29</course>
  <speed>25.38954509241944</speed>
  <fix>3d</fix>
</trkpt>
<trkpt lat="-27.2718801" lon="151.285857">
  <ele>372.5</ele>
  <time>2026-09-01T19:58:47Z</time>
  <course>228.42</course>
  <speed>25.42</speed>
  <fix>3d</fix>
</trkpt>
<trkpt lat="-27.2719396" lon="151.2857812">
  <ele>372.39</ele>
  <time>2026-09-01T19:58:47Z</time>
  <course>229.37</course>
  <speed>25.38954509241944</speed>
  <fix>3d</fix>
</trkpt>
<trkpt lat="-27.2719104" lon="151.2858187">
  <ele>372.48</ele>
  <time>2026-09-01T19:58:47Z</time>
  <course>228.42</course>
  <speed>25.42</speed>
  <fix>3d</fix>
</trkpt>
<trkpt lat="-27.2719547" lon="151.2857619">
  <ele>372.38</ele>
  <time>2026-09-01T19:58:47Z</time>
  <course>229.35</course>
  <speed>25.38954509241944</speed>
  <fix>3d</fix>
</trkpt>
<trkpt lat="-27.2719104" lon="151.2858187">
  <ele>372.48</ele>
  <time>2026-09-01T19:58:47Z</time>
  <course>228.42</course>
  <speed>25.42</speed>
  <fix>3d</fix>
</trkpt>
<trkpt lat="-27.2719699" lon="151.2857427">
  <ele>372.38</ele>
  <time>2026-09-01T19:58:47Z</time>
  <course>229.34</course>
  <speed>25.397033291311804</speed>
  <fix>3d</fix>
</trkpt>
<trkpt lat="-27.2719408" lon="151.2857801">
  <ele>372.48</ele>
  <time>2026-09-01T19:58:47Z</time>
  <course>228.41</course>
  <speed>25.42</speed>
  <fix>3d</fix>
</trkpt>
<trkpt lat="-27.2719851" lon="151.2857234">
  <ele>372.37</ele>
  <time>2026-09-01T19:58:47Z</time>
  <course>229.36</course>
  <speed>25.397033291311804</speed>
  <fix>3d</fix>
</trkpt>
<trkpt lat="-27.2719408" lon="151.2857801">
  <ele>372.48</ele>
  <time>2026-09-01T19:58:47Z</time>
  <course>228.41</course>
  <speed>25.42</speed>
  <fix>3d</fix>
</trkpt>
<trkpt lat="-27.2720003" lon="151.2857042">
  <ele>372.37</ele>
  <time>2026-09-01T19:58:47Z</time>
  <course>229.33</course>
  <speed>25.397033291311804</speed>
  <fix>3d</fix>
</trkpt>
<trkpt lat="-27.2719711" lon="151.2857417">
  <ele>372.47</ele>
  <time>2026-09-01T19:58:47Z</time>
  <course>228.4</course>
  <speed>25.42</speed>
  <fix>3d</fix>
</trkpt>
<trkpt lat="-27.2720155" lon="151.2856849">
  <ele>372.37</ele>
  <time>2026-09-01T19:58:47Z</time>
  <course>229.33</course>
  <speed>25.403661153463688</speed>
  <fix>3d</fix>
</trkpt>
<trkpt lat="-27.2719711" lon="151.2857417">
  <ele>372.47</ele>
  <time>2026-09-01T19:58:47Z</time>
  <course>228.4</course>
  <speed>25.42</speed>
  <fix>3d</fix>
</trkpt>
<trkpt lat="-27.2720307" lon="151.2856657">
  <ele>372.37</ele>
  <time>2026-09-01T19:58:47Z</time>
  <course>229.35</course>
  <speed>25.397033291311804</speed>
  <fix>3d</fix>
</trkpt>
<trkpt lat="-27.2720014" lon="151.2857033">
  <ele>372.46</ele>
  <time>2026-09-01T19:58:47Z</time>
  <course>228.4</course>
  <speed>25.42</speed>
  <fix>3d</fix>
</trkpt>
<trkpt lat="-27.2720458" lon="151.2856464">
  <ele>372.36</ele>
  <time>2026-09-01T19:58:47Z</time>
  <course>229.39</course>
  <speed>25.404523219300927</speed>
  <fix>3d</fix>
</trkpt>
<trkpt lat="-27.2720014" lon="151.2857033">
  <ele>372.46</ele>
  <time>2026-09-01T19:58:47Z</time>
  <course>228.4</course>
  <speed>25.42</speed>
  <fix>3d</fix>
</trkpt>
<trkpt lat="-27.272061" lon="151.2856272">
  <ele>372.36</ele>
  <time>2026-09-01T19:58:47Z</time>
  <course>229.41</course>
  <speed>25.404523219300927</speed>
  <fix>3d</fix>
</trkpt>
<trkpt lat="-27.2720318" lon="151.2856648">
  <ele>372.46</ele>
  <time>2026-09-01T19:58:47Z</time>
  <course>228.41</course>
  <speed>25.42</speed>
  <fix>3d</fix>
</trkpt>
<trkpt lat="-27.2720762" lon="151.2856079">
  <ele>372.36</ele>
  <time>2026-09-01T19:58:47Z</time>
  <course>229.48</course>
  <speed>25.412014874857917</speed>
  <fix>3d</fix>
</trkpt>
<trkpt lat="-27.2720318" lon="151.2856648">
  <ele>372.46</ele>
  <time>2026-09-01T19:58:47Z</time>
  <course>228.41</course>
  <speed>25.42</speed>
  <fix>3d</fix>
</trkpt>
<trkpt lat="-27.2720914" lon="151.2855887">
  <ele>372.36</ele>
  <time>2026-09-01T19:58:47Z</time>
  <course>229.45</course>
  <speed>25.412888462353113</speed>
  <fix>3d</fix>
</trkpt>
<trkpt lat="-27.2720621" lon="151.2856263">
  <ele>372.45</ele>
  <time>2026-09-01T19:58:47Z</time>
  <course>228.43</course>
  <speed>25.42</speed>
  <fix>3d</fix>
</trkpt>
<trkpt lat="-27.2721066" lon="151.2855692">
  <ele>372.36</ele>
  <time>2026-09-01T19:58:47Z</time>
  <course>229.4</course>
  <speed>25.40627087945022</speed>
  <fix>3d</fix>
</trkpt>
<trkpt lat="-27.2720621" lon="151.2856263">
  <ele>372.45</ele>
  <time>2026-09-01T19:58:47Z</time>
  <course>228.43</course>
  <speed>25.42</speed>
  <fix>3d</fix>
</trkpt>
<trkpt lat="-27.2721218" lon="151.28555">
  <ele>372.37</ele>
  <time>2026-09-01T19:58:47Z</time>
  <course>229.39</course>
  <speed>25.40627087945022</speed>
  <fix>3d</fix>
</trkpt>
<trkpt lat="-27.2720923" lon="151.2855879">
  <ele>372.45</ele>
  <time>2026-09-01T19:58:47Z</time>
  <course>228.46</course>
  <speed>25.42</speed>
  <fix>3d</fix>
</trkpt>
<trkpt lat="-27.2721369" lon="151.2855307">
  <ele>372.37</ele>
  <time>2026-09-01T19:58:47Z</time>
  <course>229.41</course>
  <speed>25.39965550947493</speed>
  <fix>3d</fix>
</trkpt>
<trkpt lat="-27.2720923" lon="151.2855879">
  <ele>372.45</ele>
  <time>2026-09-01T19:58:47Z</time>
  <course>228.46</course>
  <speed>25.42</speed>
  <fix>3d</fix>
</trkpt>
<trkpt lat="-27.2721521" lon="151.2855115">
  <ele>372.36</ele>
  <time>2026-09-01T19:58:47Z</time>
  <course>229.46</course>
  <speed>25.39965550947493</speed>
  <fix>3d</fix>
</trkpt>
<trkpt lat="-27.2721226" lon="151.2855495">
  <ele>372.45</ele>
  <time>2026-09-01T19:58:47Z</time>
  <course>228.49</course>
  <speed>25.41</speed>
  <fix>3d</fix>
</trkpt>
<trkpt lat="-27.2721671" lon="151.2854924">
  <ele>372.36</ele>
  <time>2026-09-01T19:58:47Z</time>
  <course>229.53</course>
  <speed>25.400545269737812</speed>
  <fix>3d</fix>
</trkpt>
<trkpt lat="-27.2721226" lon="151.2855495">
  <ele>372.45</ele>
  <time>2026-09-01T19:58:47Z</time>
  <course>228.49</course>
  <speed>25.41</speed>
  <fix>3d</fix>
</trkpt>
<trkpt lat="-27.2721822" lon="151.2854731">
  <ele>372.36</ele>
  <time>2026-09-01T19:58:47Z</time>
  <course>229.5</course>
  <speed>25.408049905492547</speed>
  <fix>3d</fix>
</trkpt>
<trkpt lat="-27.2721529" lon="151.285511">
  <ele>372.45</ele>
  <time>2026-09-01T19:58:47Z</time>
  <course>228.51</course>
  <speed>25.41</speed>
  <fix>3d</fix>
</trkpt>
<trkpt lat="-27.2721974" lon="151.2854538">
  <ele>372.36</ele>
  <time>2026-09-01T19:58:47Z</time>
  <course>229.27</course>
  <speed>25.401442872403923</speed>
  <fix>3d</fix>
</trkpt>
<trkpt lat="-27.2721529" lon="151.285511">
  <ele>372.45</ele>
  <time>2026-09-01T19:58:47Z</time>
  <course>228.51</course>
  <speed>25.41</speed>
  <fix>3d</fix>
</trkpt>
<trkpt lat="-27.2722125" lon="151.2854345">
  <ele>372.37</ele>
  <time>2026-09-01T19:58:47Z</time>
  <course>228.78</course>
  <speed>25.413769889569707</speed>
  <fix>3d</fix>
</trkpt>
<trkpt lat="-27.2721831" lon="151.2854726">
  <ele>372.45</ele>
  <time>2026-09-01T19:58:47Z</time>
  <course>228.54</course>
  <speed>25.4</speed>
  <fix>3d</fix>
</trkpt>
<trkpt lat="-27.2722278" lon="151.2854151">
  <ele>372.38</ele>
  <time>2026-09-01T19:58:47Z</time>
  <course>228.1</course>
  <speed>25.413586917237794</speed>
  <fix>3d</fix>
</trkpt>
<trkpt lat="-27.2721831" lon="151.2854726">
  <ele>372.45</ele>
  <time>2026-09-01T19:58:47Z</time>
  <course>228.54</course>
  <speed>25.4</speed>
  <fix>3d</fix>
</trkpt>
<trkpt lat="-27.2722432" lon="151.285396">
  <ele>372.39</ele>
  <time>2026-09-01T19:58:47Z</time>
  <course>227.38</course>
  <speed>25.420977557914643</speed>
  <fix>3d</fix>
</trkpt>
<trkpt lat="-27.2722133" lon="151.2854341">
  <ele>372.45</ele>
  <time>2026-09-01T19:58:47Z</time>
  <course>228.41</course>
  <speed>25.41</speed>
  <fix>3d</fix>
</trkpt>
<trkpt lat="-27.2722587" lon="151.2853771">
  <ele>372.4</ele>
  <time>2026-09-01T19:58:47Z</time>
  <course>226.78</course>
  <speed>25.43260309130782</speed>
  <fix>3d</fix>
</trkpt>
<trkpt lat="-27.2722133" lon="151.2854341">
  <ele>372.45</ele>
  <time>2026-09-01T19:58:47Z</time>
  <course>228.41</course>
  <speed>25.41</speed>
  <fix>3d</fix>
</trkpt>
<trkpt lat="-27.2722746" lon="151.2853585">
  <ele>372.41</ele>
  <time>2026-09-01T19:58:47Z</time>
  <course>226.13</course>
  <speed>25.456614071788884</speed>
  <fix>3d</fix>
</trkpt>
<trkpt lat="-27.2722438" lon="151.2853959">
  <ele>372.47</ele>
  <time>2026-09-01T19:58:47Z</time>
  <course>227.5</course>
  <speed>25.4</speed>
  <fix>3d</fix>
</trkpt>
<trkpt lat="-27.272291" lon="151.2853405">
  <ele>372.42</ele>
  <time>2026-09-01T19:58:47Z</time>
  <course>225.16</course>
  <speed>25.483180727687824</speed>
  <fix>3d</fix>
</trkpt>
<trkpt lat="-27.2722438" lon="151.2853959">
  <ele>372.47</ele>
  <time>2026-09-01T19:58:47Z</time>
  <course>227.5</course>
  <speed>25.4</speed>
  <fix>3d</fix>
</trkpt>
<trkpt lat="-27.2723079" lon="151.285323">
  <ele>372.42</ele>
  <time>2026-09-01T19:58:47Z</time>
  <course>223.6</course>
  <speed>25.53482523926882</speed>
  <fix>3d</fix>
</trkpt>
<trkpt lat="-27.2722752" lon="151.2853586">
  <ele>372.48</ele>
  <time>2026-09-01T19:58:47Z</time>
  <course>225.25</course>
  <speed>25.41</speed>
  <fix>3d</fix>
</trkpt>
<trkpt lat="-27.2723254" lon="151.2853063">
  <ele>372.43</ele>
  <time>2026-09-01T19:58:47Z</time>
  <course>221.45</course>
  <speed>25.608883224381337</speed>
  <fix>3d</fix>
</trkpt>
<trkpt lat="-27.2722752" lon="151.2853586">
  <ele>372.48</ele>
  <time>2026-09-01T19:58:47Z</time>
  <course>225.25</course>
  <speed>25.41</speed>
  <fix>3d</fix>
</trkpt>
<trkpt lat="-27.2723436" lon="151.2852904">
  <ele>372.45</ele>
  <time>2026-09-01T19:58:47Z</time>
  <course>218.83</course>
  <speed>25.690630587823257</speed>
  <fix>3d</fix>
</trkpt>
<trkpt lat="-27.2723085" lon="151.2853232">
  <ele>372.49</ele>
  <time>2026-09-01T19:58:47Z</time>
  <course>221.49</course>
  <speed>25.46</speed>
  <fix>3d</fix>
</trkpt>
<trkpt lat="-27.2723626" lon="151.2852755">
  <ele>372.49</ele>
  <time>2026-09-01T19:58:47Z</time>
  <course>215.74</course>
  <speed>25.7909480244523</speed>
  <fix>3d</fix>
</trkpt>
<trkpt lat="-27.2723085" lon="151.2853232">
  <ele>372.49</ele>
  <time>2026-09-01T19:58:47Z</time>
  <course>221.49</course>
  <speed>25.46</speed>
  <fix>3d</fix>
</trkpt>
<trkpt lat="-27.2723822" lon="151.2852619">
  <ele>372.54</ele>
  <time>2026-09-01T19:58:47Z</time>
  <course>212.54</course>
  <speed>25.87234237559483</speed>
  <fix>3d</fix>
</trkpt>
<trkpt lat="-27.2723441" lon="151.2852907">
  <ele>372.52</ele>
  <time>2026-09-01T19:58:47Z</time>
  <course>216.37</course>
  <speed>25.57</speed>
  <fix>3d</fix>
</trkpt>
<trkpt lat="-27.2724025" lon="151.2852494">
  <ele>372.62</ele>
  <time>2026-09-01T19:58:47Z</time>
  <course>209.38</course>
  <speed>25.939554737890163</speed>
  <fix>3d</fix>
</trkpt>
<trkpt lat="-27.2723441" lon="151.2852907">
  <ele>372.52</ele>
  <time>2026-09-01T19:58:47Z</time>
  <course>216.37</course>
  <speed>25.57</speed>
  <fix>3d</fix>
</trkpt>
<trkpt lat="-27.2724234" lon="151.2852382">
  <ele>372.73</ele>
  <time>2026-09-01T19:58:47Z</time>
  <course>206.33</course>
  <speed>25.990844541876662</speed>
  <fix>3d</fix>
</trkpt>
<trkpt lat="-27.2723825" lon="151.2852622">
  <ele>372.6</ele>
  <time>2026-09-01T19:58:47Z</time>
  <course>210.32</course>
  <speed>25.7</speed>
  <fix>3d</fix>
</trkpt>
<trkpt lat="-27.2724448" lon="151.2852282">
  <ele>372.86</ele>
  <time>2026-09-01T19:58:47Z</time>
  <course>203.29</course>
  <speed>26.03316346508814</speed>
  <fix>3d</fix>
</trkpt>
<trkpt lat="-27.2723825" lon="151.2852622">
  <ele>372.6</ele>
  <time>2026-09-01T19:58:47Z</time>
  <course>210.32</course>
  <speed>25.7</speed>
  <fix>3d</fix>
</trkpt>
<trkpt lat="-27.2724666" lon="151.2852195">
  <ele>373.01</ele>
  <time>2026-09-01T19:58:47Z</time>
  <course>200.29</course>
  <speed>26.05454470912896</speed>
  <fix>3d</fix>
</trkpt>
<trkpt lat="-27.2724237" lon="151.2852385">
  <ele>372.78</ele>
  <time>2026-09-01T19:58:47Z</time>
  <course>204.06</course>
  <speed>25.81</speed>
  <fix>3d</fix>
</trkpt>
<trkpt lat="-27.2724889" lon="151.2852121">
  <ele>373.17</ele>
  <time>2026-09-01T19:58:47Z</time>
  <course>197.4</course>
  <speed>26.067949670045014</speed>
  <fix>3d</fix>
</trkpt>
<trkpt lat="-27.2724237" lon="151.2852385">
  <ele>372.78</ele>
  <time>2026-09-01T19:58:47Z</time>
  <course>204.06</course>
  <speed>25.81</speed>
  <fix>3d</fix>
</trkpt>
<trkpt lat="-27.2725114" lon="151.2852059">
  <ele>373.33</ele>
  <time>2026-09-01T19:58:47Z</time>
  <course>194.48</course>
  <speed>26.077440441883866</speed>
  <fix>3d</fix>
</trkpt>
<trkpt lat="-27.272467" lon="151.2852197">
  <ele>373.04</ele>
  <time>2026-09-01T19:58:47Z</time>
  <course>198.05</course>
  <speed>25.89</speed>
  <fix>3d</fix>
</trkpt>
<trkpt lat="-27.2725343" lon="151.2852011">
  <ele>373.5</ele>
  <time>2026-09-01T19:58:47Z</time>
  <course>191.61</course>
  <speed>26.109867866383393</speed>
  <fix>3d</fix>
</trkpt>
<trkpt lat="-27.272467" lon="151.2852197">
  <ele>373.04</ele>
  <time>2026-09-01T19:58:47Z</time>
  <course>198.05</course>
  <speed>25.89</speed>
  <fix>3d</fix>
</trkpt>
<trkpt lat="-27.2725573" lon="151.2851975">
  <ele>373.68</ele>
  <time>2026-09-01T19:58:47Z</time>
  <course>188.62</course>
  <speed>26.12594878659912</speed>
  <fix>3d</fix>
</trkpt>
<trkpt lat="-27.2725119" lon="151.285206">
  <ele>373.35</ele>
  <time>2026-09-01T19:58:47Z</time>
  <course>192.21</course>
  <speed>25.94</speed>
  <fix>3d</fix>
</trkpt>
<trkpt lat="-27.2725805" lon="151.2851953">
  <ele>373.85</ele>
  <time>2026-09-01T19:58:47Z</time>
  <course>185.57</course>
  <speed>26.14717766796256</speed>
  <fix>3d</fix>
</trkpt>
<trkpt lat="-27.2725119" lon="151.285206">
  <ele>373.35</ele>
  <time>2026-09-01T19:58:47Z</time>
  <course>192.21</course>
  <speed>25.94</speed>
  <fix>3d</fix>
</trkpt>
<trkpt lat="-27.2726037" lon="151.2851944">
  <ele>374.03</ele>
  <time>2026-09-01T19:58:47Z</time>
  <course>182.56</course>
  <speed>26.160552364199038</speed>
  <fix>3d</fix>
</trkpt>
<trkpt lat="-27.2725579" lon="151.2851976">
  <ele>373.69</ele>
  <time>2026-09-01T19:58:47Z</time>
  <course>186.34</course>
  <speed>26.0</speed>
  <fix>3d</fix>
</trkpt>
<trkpt lat="-27.272627" lon="151.285195">
  <ele>374.22</ele>
  <time>2026-09-01T19:58:47Z</time>
  <course>179.67</course>
  <speed>26.176609788129554</speed>
  <fix>3d</fix>
</trkpt>
<trkpt lat="-27.2725579" lon="151.2851976">
  <ele>373.69</ele>
  <time>2026-09-01T19:58:47Z</time>
  <course>186.34</course>
  <speed>26.0</speed>
  <fix>3d</fix>
</trkpt>
<trkpt lat="-27.2726505" lon="151.2851968">
  <ele>374.4</ele>
  <time>2026-09-01T19:58:47Z</time>
  <course>176.75</course>
  <speed>26.181558395175795</speed>
  <fix>3d</fix>
</trkpt>
<trkpt lat="-27.2726046" lon="151.2851945">
  <ele>374.05</ele>
  <time>2026-09-01T19:58:47Z</time>
  <course>180.34</course>
  <speed>26.05</speed>
  <fix>3d</fix>
</trkpt>
<trkpt lat="-27.2726737" lon="151.2852">
  <ele>374.59</ele>
  <time>2026-09-01T19:58:47Z</time>
  <course>173.84</course>
  <speed>26.183116697597328</speed>
  <fix>3d</fix>
</trkpt>
<trkpt lat="-27.2726046" lon="151.2851945">
  <ele>374.05</ele>
  <time>2026-09-01T19:58:47Z</time>
  <course>180.34</course>
  <speed>26.05</speed>
  <fix>3d</fix>
</trkpt>
<trkpt lat="-27.2726968" lon="151.2852045">
  <ele>374.77</ele>
  <time>2026-09-01T19:58:47Z</time>
  <course>170.97</course>
  <speed>26.17758201209577</speed>
  <fix>3d</fix>
</trkpt>
<trkpt lat="-27.2726513" lon="151.2851969">
  <ele>374.41</ele>
  <time>2026-09-01T19:58:47Z</time>
  <course>174.4</course>
  <speed>26.1</speed>
  <fix>3d</fix>
</trkpt>
<trkpt lat="-27.2727196" lon="151.2852104">
  <ele>374.95</ele>
  <time>2026-09-01T19:58:47Z</time>
  <course>168.23</course>
  <speed>26.17931435313003</speed>
  <fix>3d</fix>
</trkpt>
<trkpt lat="-27.2726513" lon="151.2851969">
  <ele>374.41</ele>
  <time>2026-09-01T19:58:47Z</time>
  <course>174.4</course>
  <speed>26.1</speed>
  <fix>3d</fix>
</trkpt>
<trkpt lat="-27.2727422" lon="151.2852174">
  <ele>375.13</ele>
  <time>2026-09-01T19:58:47Z</time>
  <course>165.63</course>
  <speed>26.159252665166104</speed>
  <fix>3d</fix>
</trkpt>
<trkpt lat="-27.2726978" lon="151.2852047">
  <ele>374.77</ele>
  <time>2026-09-01T19:58:47Z</time>
  <course>168.63</course>
  <speed>26.12</speed>
  <fix>3d</fix>
</trkpt>
<trkpt lat="-27.2727645" lon="151.2852257">
  <ele>375.31</ele>
  <time>2026-09-01T19:58:47Z</time>
  <course>162.99</course>
  <speed>26.14357664895911</speed>
  <fix>3d</fix>
</trkpt>
<trkpt lat="-27.2726978" lon="151.2852047">
  <ele>374.77</ele>
  <time>2026-09-01T19:58:47Z</time>
  <course>168.63</course>
  <speed>26.12</speed>
  <fix>3d</fix>
</trkpt>
<trkpt lat="-27.2727864" lon="151.285235">
  <ele>375.47</ele>
  <time>2026-09-01T19:58:47Z</time>
  <course>160.37</course>
  <speed>26.129542667256924</speed>
  <fix>3d</fix>
</trkpt>
<trkpt lat="-27.2727433" lon="151.2852176">
  <ele>375.12</ele>
  <time>2026-09-01T19:58:47Z</time>
  <course>163.11</course>
  <speed>26.11</speed>
  <fix>3d</fix>
</trkpt>
<trkpt lat="-27.272808" lon="151.2852455">
  <ele>375.63</ele>
  <time>2026-09-01T19:58:47Z</time>
  <course>157.81</course>
  <speed>26.104566650300864</speed>
  <fix>3d</fix>
</trkpt>
<trkpt lat="-27.2727433" lon="151.2852176">
  <ele>375.12</ele>
  <time>2026-09-01T19:58:47Z</time>
  <course>163.11</course>
  <speed>26.11</speed>
  <fix>3d</fix>
</trkpt>
<trkpt lat="-27.272829" lon="151.285257">
  <ele>375.77</ele>
  <time>2026-09-01T19:58:47Z</time>
  <course>155.33</course>
  <speed>26.078746135502755</speed>
  <fix>3d</fix>
</trkpt>
<trkpt lat="-27.2727875" lon="151.2852352">
  <ele>375.45</ele>
  <time>2026-09-01T19:58:47Z</time>
  <course>157.84</course>
  <speed>26.08</speed>
  <fix>3d</fix>
</trkpt>
<trkpt lat="-27.2728496" lon="151.2852696">
  <ele>375.91</ele>
  <time>2026-09-01T19:58:47Z</time>
  <course>152.88</course>
  <speed>26.053502643598613</speed>
  <fix>3d</fix>
</trkpt>
<trkpt lat="-27.2727875" lon="151.2852352">
  <ele>375.45</ele>
  <time>2026-09-01T19:58:47Z</time>
  <course>157.84</course>
  <speed>26.08</speed>
  <fix>3d</fix>
</trkpt>
<trkpt lat="-27.2728697" lon="151.2852831">
  <ele>376.03</ele>
  <time>2026-09-01T19:58:47Z</time>
  <course>150.43</course>
  <speed>26.02730297207146</speed>
  <fix>3d</fix>
</trkpt>
<trkpt lat="-27.27283" lon="151.2852573">
  <ele>375.75</ele>
  <time>2026-09-01T19:58:47Z</time>
  <course>152.72</course>
  <speed>26.04</speed>
  <fix>3d</fix>
</trkpt>
<trkpt lat="-27.2728892" lon="151.2852975">
  <ele>376.14</ele>
  <time>2026-09-01T19:58:47Z</time>
  <course>148.05</course>
  <speed>25.988260811374047</speed>
  <fix>3d</fix>
</trkpt>
<trkpt lat="-27.27283" lon="151.2852573">
  <ele>375.75</ele>
  <time>2026-09-01T19:58:47Z</time>
  <course>152.72</course>
  <speed>26.04</speed>
  <fix>3d</fix>
</trkpt>
<trkpt lat="-27.2729081" lon="151.2853129">
  <ele>376.24</ele>
  <time>2026-09-01T19:58:47Z</time>
  <course>145.74</course>
  <speed>25.958037290981764</speed>
  <fix>3d</fix>
</trkpt>
<trkpt lat="-27.2728705" lon="151.2852834">
  <ele>376.01</ele>
  <time>2026-09-01T19:58:47Z</time>
  <course>147.76</course>
  <speed>25.99</speed>
  <fix>3d</fix>
</trkpt>
<trkpt lat="-27.2729264" lon="151.285329">
  <ele>376.33</ele>
  <time>2026-09-01T19:58:47Z</time>
  <course>143.49</course>
  <speed>25.918427807257135</speed>
  <fix>3d</fix>
</trkpt>
<trkpt lat="-27.2728705" lon="151.2852834">
  <ele>376.01</ele>
  <time>2026-09-01T19:58:47Z</time>
  <course>147.76</course>
  <speed>25.99</speed>
  <fix>3d</fix>
</trkpt>
<trkpt lat="-27.2729442" lon="151.285346">
  <ele>376.4</ele>
  <time>2026-09-01T19:58:47Z</time>
  <course>141.26</course>
  <speed>25.87869587131469</speed>
  <fix>3d</fix>
</trkpt>
<trkpt lat="-27.2729089" lon="151.2853132">
  <ele>376.22</ele>
  <time>2026-09-01T19:58:47Z</time>
  <course>142.99</course>
  <speed>25.92</speed>
  <fix>3d</fix>
</trkpt>
<trkpt lat="-27.2729613" lon="151.2853636">
  <ele>376.46</ele>
  <time>2026-09-01T19:58:47Z</time>
  <course>139.01</course>
  <speed>25.84387354867687</speed>
  <fix>3d</fix>
</trkpt>
<trkpt lat="-27.2729089" lon="151.2853132">
  <ele>376.22</ele>
  <time>2026-09-01T19:58:47Z</time>
  <course>142.99</course>
  <speed>25.92</speed>
  <fix>3d</fix>
</trkpt>
<trkpt lat="-27.2729777" lon="151.285382">
  <ele>376.5</ele>
  <time>2026-09-01T19:58:47Z</time>
  <course>136.8</course>
  <speed>25.798980600015962</speed>
  <fix>3d</fix>
</trkpt>
<trkpt lat="-27.2729449" lon="151.2853463">
  <ele>376.38</ele>
  <time>2026-09-01T19:58:47Z</time>
  <course>138.43</course>
  <speed>25.85</speed>
  <fix>3d</fix>
</trkpt>
<trkpt lat="-27.2729935" lon="151.2854011">
  <ele>376.53</ele>
  <time>2026-09-01T19:58:47Z</time>
  <course>134.64</course>
  <speed>25.756717570373752</speed>
  <fix>3d</fix>
</trkpt>
<trkpt lat="-27.2729449" lon="151.2853463">
  <ele>376.38</ele>
  <time>2026-09-01T19:58:47Z</time>
  <course>138.43</course>
  <speed>25.85</speed>
  <fix>3d</fix>
</trkpt>
<trkpt lat="-27.2730086" lon="151.2854207">
  <ele>376.54</ele>
  <time>2026-09-01T19:58:47Z</time>
  <course>132.54</course>
  <speed>25.713679238879834</speed>
  <fix>3d</fix>
</trkpt>
<trkpt lat="-27.2729783" lon="151.2853824">
  <ele>376.47</ele>
  <time>2026-09-01T19:58:47Z</time>
  <course>133.98</course>
  <speed>25.78</speed>
  <fix>3d</fix>
</trkpt>
<trkpt lat="-27.273023" lon="151.285441">
  <ele>376.54</ele>
  <time>2026-09-01T19:58:47Z</time>
  <course>130.46</course>
  <speed>25.67004479933761</speed>
  <fix>3d</fix>
</trkpt>
<trkpt lat="-27.2729783" lon="151.2853824">
  <ele>376.47</ele>
  <time>2026-09-01T19:58:47Z</time>
  <course>133.98</course>
  <speed>25.78</speed>
  <fix>3d</fix>
</trkpt>
<trkpt lat="-27.2730367" lon="151.2854618">
  <ele>376.53</ele>
  <time>2026-09-01T19:58:47Z</time>
  <course>128.37</course>
  <speed>25.6314513830177</speed>
  <fix>3d</fix>
</trkpt>
<trkpt lat="-27.2730091" lon="151.2854211">
  <ele>376.52</ele>
  <time>2026-09-01T19:58:47Z</time>
  <course>129.66</course>
  <speed>25.69</speed>
  <fix>3d</fix>
</trkpt>
<trkpt lat="-27.2730496" lon="151.2854829">
  <ele>376.5</ele>
  <time>2026-09-01T19:58:47Z</time>
  <course>126.28</course>
  <speed>25.58862442570917</speed>
  <fix>3d</fix>
</trkpt>
<trkpt lat="-27.2730091" lon="151.2854211">
  <ele>376.52</ele>
  <time>2026-09-01T19:58:47Z</time>
  <course>129.66</course>
  <speed>25.69</speed>
  <fix>3d</fix>
</trkpt>
<trkpt lat="-27.2730619" lon="151.2855047">
  <ele>376.46</ele>
  <time>2026-09-01T19:58:47Z</time>
  <course>124.16</course>
  <speed>25.552050798321453</speed>
  <fix>3d</fix>
</trkpt>
<trkpt lat="-27.2730372" lon="151.2854623">
  <ele>376.51</ele>
  <time>2026-09-01T19:58:47Z</time>
  <course>125.45</course>
  <speed>25.61</speed>
  <fix>3d</fix>
</trkpt>
<trkpt lat="-27.2730734" lon="151.285527">
  <ele>376.4</ele>
  <time>2026-09-01T19:58:47Z</time>
  <course>122.09</course>
  <speed>25.518708823136016</speed>
  <fix>3d</fix>
</trkpt>
<trkpt lat="-27.2730372" lon="151.2854623">
  <ele>376.51</ele>
  <time>2026-09-01T19:58:47Z</time>
  <course>125.45</course>
  <speed>25.61</speed>
  <fix>3d</fix>
</trkpt>
<trkpt lat="-27.2730843" lon="151.2855496">
  <ele>376.34</ele>
  <time>2026-09-01T19:58:47Z</time>
  <course>120.07</course>
  <speed>25.483690862981366</speed>
  <fix>3d</fix>
</trkpt>
<trkpt lat="-27.2730625" lon="151.2855055">
  <ele>376.44</ele>
  <time>2026-09-01T19:58:47Z</time>
  <course>121.27</course>
  <speed>25.54</speed>
  <fix>3d</fix>
</trkpt>
<trkpt lat="-27.2730944" lon="151.2855729">
  <ele>376.26</ele>
  <time>2026-09-01T19:58:47Z</time>
  <course>118.01</course>
  <speed>25.449905697271255</speed>
  <fix>3d</fix>
</trkpt>
<trkpt lat="-27.2730625" lon="151.2855055">
  <ele>376.44</ele>
  <time>2026-09-01T19:58:47Z</time>
  <course>121.27</course>
  <speed>25.54</speed>
  <fix>3d</fix>
</trkpt>
<trkpt lat="-27.2731038" lon="151.2855964">
  <ele>376.17</ele>
  <time>2026-09-01T19:58:47Z</time>
  <course>116.06</course>
  <speed>25.424879547403958</speed>
  <fix>3d</fix>
</trkpt>
<trkpt lat="-27.2730849" lon="151.2855506">
  <ele>376.33</ele>
  <time>2026-09-01T19:58:47Z</time>
  <course>117.14</course>
  <speed>25.47</speed>
  <fix>3d</fix>
</trkpt>
<trkpt lat="-27.2731125" lon="151.2856203">
  <ele>376.07</ele>
  <time>2026-09-01T19:58:47Z</time>
  <course>114.07</course>
  <speed>25.3992460518024</speed>
  <fix>3d</fix>
</trkpt>
<trkpt lat="-27.2730849" lon="151.2855506">
  <ele>376.33</ele>
  <time>2026-09-01T19:58:47Z</time>
  <course>117.14</course>
  <speed>25.47</speed>
  <fix>3d</fix>
</trkpt>
<trkpt lat="-27.2731204" lon="151.2856444">
  <ele>375.97</ele>
  <time>2026-09-01T19:58:47Z</time>
  <course>112.19</course>
  <speed>25.36385223107878</speed>
  <fix>3d</fix>
</trkpt>
<trkpt lat="-27.2731043" lon="151.2855971">
  <ele>376.17</ele>
  <time>2026-09-01T19:58:47Z</time>
  <course>113.12</course>
  <speed>25.41</speed>
  <fix>3d</fix>
</trkpt>
<trkpt lat="-27.2731275" lon="151.2856687">
  <ele>375.85</ele>
  <time>2026-09-01T19:58:47Z</time>
  <course>110.34</course>
  <speed>25.343829623796005</speed>
  <fix>3d</fix>
</trkpt>
<trkpt lat="-27.2731043" lon="151.2855971">
  <ele>376.17</ele>
  <time>2026-09-01T19:58:47Z</time>
  <course>113.12</course>
  <speed>25.41</speed>
  <fix>3d</fix>
</trkpt>
<trkpt lat="-27.273134" lon="151.2856932">
  <ele>375.73</ele>
  <time>2026-09-01T19:58:47Z</time>
  <course>108.5</course>
  <speed>25.324462481956058</speed>
  <fix>3d</fix>
</trkpt>
<trkpt lat="-27.2731208" lon="151.285645">
  <ele>375.98</ele>
  <time>2026-09-01T19:58:47Z</time>
  <course>109.25</course>
  <speed>25.36</speed>
  <fix>3d</fix>
</trkpt>
<trkpt lat="-27.2731397" lon="151.285718">
  <ele>375.6</ele>
  <time>2026-09-01T19:58:47Z</time>
  <course>106.77</course>
  <speed>25.294366961835593</speed>
  <fix>3d</fix>
</trkpt>
<trkpt lat="-27.2731208" lon="151.285645">
  <ele>375.98</ele>
  <time>2026-09-01T19:58:47Z</time>
  <course>109.25</course>
  <speed>25.36</speed>
  <fix>3d</fix>
</trkpt>
<trkpt lat="-27.2731448" lon="151.2857429">
  <ele>375.47</ele>
  <time>2026-09-01T19:58:47Z</time>
  <course>105.08</course>
  <speed>25.275507907854195</speed>
  <fix>3d</fix>
</trkpt>
<trkpt lat="-27.2731344" lon="151.2856938">
  <ele>375.76</ele>
  <time>2026-09-01T19:58:47Z</time>
  <course>105.56</course>
  <speed>25.31</speed>
  <fix>3d</fix>
</trkpt>
<trkpt lat="-27.2731493" lon="151.2857679">
  <ele>375.32</ele>
  <time>2026-09-01T19:58:47Z</time>
  <course>103.43</course>
  <speed>25.253278995013698</speed>
  <fix>3d</fix>
</trkpt>
<trkpt lat="-27.2731344" lon="151.2856938">
  <ele>375.76</ele>
  <time>2026-09-01T19:58:47Z</time>
  <course>105.56</course>
  <speed>25.31</speed>
  <fix>3d</fix>
</trkpt>
<trkpt lat="-27.2731531" lon="151.285793">
  <ele>375.17</ele>
  <time>2026-09-01T19:58:47Z</time>
  <course>101.81</course>
  <speed>25.23388991019815</speed>
  <fix>3d</fix>
</trkpt>
<trkpt lat="-27.2731452" lon="151.2857435">
  <ele>375.5</ele>
  <time>2026-09-01T19:58:47Z</time>
  <course>102.09</course>
  <speed>25.26</speed>
  <fix>3d</fix>
</trkpt>
<trkpt lat="-27.2731562" lon="151.2858182">
  <ele>375.01</ele>
  <time>2026-09-01T19:58:47Z</time>
  <course>100.25</course>
  <speed>25.21751177257582</speed>
  <fix>3d</fix>
</trkpt>
<trkpt lat="-27.2731452" lon="151.2857435">
  <ele>375.5</ele>
  <time>2026-09-01T19:58:47Z</time>
  <course>102.09</course>
  <speed>25.26</speed>
  <fix>3d</fix>
</trkpt>
<trkpt lat="-27.2731588" lon="151.2858435">
  <ele>374.85</ele>
  <time>2026-09-01T19:58:47Z</time>
  <course>98.74</course>
  <speed>25.203303354917583</speed>
  <fix>3d</fix>
</trkpt>
<trkpt lat="-27.2731534" lon="151.2857937">
  <ele>375.21</ele>
  <time>2026-09-01T19:58:47Z</time>
  <course>98.82</course>
  <speed>25.23</speed>
  <fix>3d</fix>
</trkpt>
<trkpt lat="-27.2731608" lon="151.2858688">
  <ele>374.69</ele>
  <time>2026-09-01T19:58:47Z</time>
  <course>97.31</course>
  <speed>25.189507736357214</speed>
  <fix>3d</fix>
</trkpt>
<trkpt lat="-27.2731534" lon="151.2857937">
  <ele>375.21</ele>
  <time>2026-09-01T19:58:47Z</time>
  <course>98.82</course>
  <speed>25.23</speed>
  <fix>3d</fix>
</trkpt>
<trkpt lat="-27.2731622" lon="151.2858942">
  <ele>374.53</ele>
  <time>2026-09-01T19:58:47Z</time>
  <course>95.95</course>
  <speed>25.172564430347574</speed>
  <fix>3d</fix>
</trkpt>
<trkpt lat="-27.2731591" lon="151.2858441">
  <ele>374.91</ele>
  <time>2026-09-01T19:58:47Z</time>
  <course>95.76</course>
  <speed>25.2</speed>
  <fix>3d</fix>
</trkpt>
<trkpt lat="-27.2731631" lon="151.2859196">
  <ele>374.36</ele>
  <time>2026-09-01T19:58:47Z</time>
  <course>94.62</course>
  <speed>25.170015891929825</speed>
  <fix>3d</fix>
</trkpt>
<trkpt lat="-27.2731591" lon="151.2858441">
  <ele>374.91</ele>
  <time>2026-09-01T19:58:47Z</time>
  <course>95.76</course>
  <speed>25.2</speed>
  <fix>3d</fix>
</trkpt>
<trkpt lat="-27.2731636" lon="151.285945">
  <ele>374.19</ele>
  <time>2026-09-01T19:58:47Z</time>
  <course>93.4</course>
  <speed>25.160643870934624</speed>
  <fix>3d</fix>
</trkpt>
<trkpt lat="-27.2731626" lon="151.2858949">
  <ele>374.59</ele>
  <time>2026-09-01T19:58:47Z</time>
  <course>92.99</course>
  <speed>25.18</speed>
  <fix>3d</fix>
</trkpt>
<trkpt lat="-27.2731636" lon="151.2859704">
  <ele>374.02</ele>
  <time>2026-09-01T19:58:47Z</time>
  <course>92.23</course>
  <speed>25.151910464217227</speed>
  <fix>3d</fix>
</trkpt>
<trkpt lat="-27.2731626" lon="151.2858949">
  <ele>374.59</ele>
  <time>2026-09-01T19:58:47Z</time>
  <course>92.99</course>
  <speed>25.18</speed>
  <fix>3d</fix>
</trkpt>
<trkpt lat="-27.2731632" lon="151.2859956">
  <ele>373.85</ele>
  <time>2026-09-01T19:58:47Z</time>
  <course>91.11</course>
  <speed>25.15178920077059</speed>
  <fix>3d</fix>
</trkpt>
<trkpt lat="-27.273164" lon="151.2859457">
  <ele>374.26</ele>
  <time>2026-09-01T19:58:47Z</time>
  <course>90.5</course>
  <speed>25.16</speed>
  <fix>3d</fix>
</trkpt>
<trkpt lat="-27.2731624" lon="151.286021">
  <ele>373.68</ele>
  <time>2026-09-01T19:58:47Z</time>
  <course>90.05</course>
  <speed>25.148646086817475</speed>
  <fix>3d</fix>
</trkpt>
<trkpt lat="-27.273164" lon="151.2859457">
  <ele>374.26</ele>
  <time>2026-09-01T19:58:47Z</time>
  <course>90.5</course>
  <speed>25.16</speed>
  <fix>3d</fix>
</trkpt>
<trkpt lat="-27.2731611" lon="151.2860463">
  <ele>373.51</ele>
  <time>2026-09-01T19:58:47Z</time>
  <course>89.14</course>
  <speed>25.15031013725278</speed>
  <fix>3d</fix>
</trkpt>
<trkpt lat="-27.2731635" lon="151.2859966">
  <ele>373.93</ele>
  <time>2026-09-01T19:58:47Z</time>
  <course>88.31</course>
  <speed>25.16</speed>
  <fix>3d</fix>
</trkpt>
<trkpt lat="-27.2731596" lon="151.2860717">
  <ele>373.34</ele>
  <time>2026-09-01T19:58:47Z</time>
  <course>88.26</course>
  <speed>25.144949791160847</speed>
  <fix>3d</fix>
</trkpt>
<trkpt lat="-27.2731635" lon="151.2859966">
  <ele>373.93</ele>
  <time>2026-09-01T19:58:47Z</time>
  <course>88.31</course>
  <speed>25.16</speed>
  <fix>3d</fix>
</trkpt>
<trkpt lat="-27.2731577" lon="151.2860972">
  <ele>373.17</ele>
  <time>2026-09-01T19:58:47Z</time>
  <course>87.42</course>
  <speed>25.151741490401815</speed>
  <fix>3d</fix>
</trkpt>
<trkpt lat="-27.2731615" lon="151.2860475">
  <ele>373.59</ele>
  <time>2026-09-01T19:58:47Z</time>
  <course>86.44</course>
  <speed>25.16</speed>
  <fix>3d</fix>
</trkpt>
<trkpt lat="-27.2731556" lon="151.2861225">
  <ele>373.0</ele>
  <time>2026-09-01T19:58:47Z</time>
  <course>86.68</course>
  <speed>25.14859837048578</speed>
  <fix>3d</fix>
</trkpt>
<trkpt lat="-27.2731615" lon="151.2860475">
  <ele>373.59</ele>
  <time>2026-09-01T19:58:47Z</time>
  <course>86.44</course>
  <speed>25.16</speed>
  <fix>3d</fix>
</trkpt>
<trkpt lat="-27.2731533" lon="151.2861478">
  <ele>372.83</ele>
  <time>2026-09-01T19:58:47Z</time>
  <course>85.96</course>
  <speed>25.164031870906538</speed>
  <fix>3d</fix>
</trkpt>
<trkpt lat="-27.273158" lon="151.2860983">
  <ele>373.26</ele>
  <time>2026-09-01T19:58:47Z</time>
  <course>84.92</course>
  <speed>25.17</speed>
  <fix>3d</fix>
</trkpt>
<trkpt lat="-27.2731506" lon="151.2861739">
  <ele>372.67</ele>
  <time>2026-09-01T19:58:47Z</time>
  <course>85.29</course>
  <speed>25.16942788384353</speed>
  <fix>3d</fix>
</trkpt>
<trkpt lat="-27.2731535" lon="151.286149">
  <ele>372.93</ele>
  <time>2026-09-01T19:58:47Z</time>
  <course>83.72</course>
  <speed>25.18</speed>
  <fix>3d</fix>
</trkpt>
<trkpt lat="-27.2731479" lon="151.286199">
  <ele>372.51</ele>
  <time>2026-09-01T19:58:47Z</time>
  <course>84.81</course>
  <speed>25.180335581560467</speed>
  <fix>3d</fix>
</trkpt>
<trkpt lat="-27.2731535" lon="151.286149">
  <ele>372.93</ele>
  <time>2026-09-01T19:58:47Z</time>
  <course>83.72</course>
  <speed>25.18</speed>
  <fix>3d</fix>
</trkpt>
<trkpt lat="-27.273145" lon="151.2862242">
  <ele>372.36</ele>
  <time>2026-09-01T19:58:47Z</time>
  <course>84.27</course>
  <speed>25.189745929643674</speed>
  <fix>3d</fix>
</trkpt>
<trkpt lat="-27.2731482" lon="151.2861995">
  <ele>372.62</ele>
  <time>2026-09-01T19:58:47Z</time>
  <course>82.83</course>
  <speed>25.21</speed>
  <fix>3d</fix>
</trkpt>
<trkpt lat="-27.273142" lon="151.2862495">
  <ele>372.21</ele>
  <time>2026-09-01T19:58:47Z</time>
  <course>83.82</course>
  <speed>25.203120838499345</speed>
  <fix>3d</fix>
</trkpt>
<trkpt lat="-27.2731482" lon="151.2861995">
  <ele>372.62</ele>
  <time>2026-09-01T19:58:47Z</time>
  <course>82.83</course>
  <speed>25.21</speed>
  <fix>3d</fix>
</trkpt>
<trkpt lat="-27.2731389" lon="151.2862747">
  <ele>372.06</ele>
  <time>2026-09-01T19:58:47Z</time>
  <course>83.47</course>
  <speed>25.215491270248933</speed>
  <fix>3d</fix>
</trkpt>
<trkpt lat="-27.2731423" lon="151.28625">
  <ele>372.32</ele>
  <time>2026-09-01T19:58:47Z</time>
  <course>82.25</course>
  <speed>25.23</speed>
  <fix>3d</fix>
</trkpt>
<trkpt lat="-27.2731358" lon="151.2863002">
  <ele>371.93</ele>
  <time>2026-09-01T19:58:47Z</time>
  <course>83.19</course>
  <speed>25.232399806597865</speed>
  <fix>3d</fix>
</trkpt>
<trkpt lat="-27.2731423" lon="151.28625">
  <ele>372.32</ele>
  <time>2026-09-01T19:58:47Z</time>
  <course>82.25</course>
  <speed>25.23</speed>
  <fix>3d</fix>
</trkpt>
<trkpt lat="-27.2731327" lon="151.2863249">
  <ele>371.81</ele>
  <time>2026-09-01T19:58:47Z</time>
  <course>83.03</course>
  <speed>25.245128242890747</speed>
  <fix>3d</fix>
</trkpt>
<trkpt lat="-27.2731423" lon="151.28625">
  <ele>372.32</ele>
  <time>2026-09-01T19:58:47Z</time>
  <course>82.25</course>
  <speed>25.23</speed>
  <fix>3d</fix>
</trkpt>
<trkpt lat="-27.2731295" lon="151.2863502">
  <ele>371.7</ele>
  <time>2026-09-01T19:58:47Z</time>
  <course>82.92</course>
  <speed>25.263511236564092</speed>
  <fix>3d</fix>
</trkpt>
<trkpt lat="-27.2731361" lon="151.2863006">
  <ele>372.05</ele>
  <time>2026-09-01T19:58:47Z</time>
  <course>81.94</course>
  <speed>25.27</speed>
  <fix>3d</fix>
</trkpt>
<trkpt lat="-27.2731264" lon="151.2863755">
  <ele>371.6</ele>
  <time>2026-09-01T19:58:47Z</time>
  <course>82.83</course>
  <speed>25.277693723913977</speed>
  <fix>3d</fix>
</trkpt>
<trkpt lat="-27.2731361" lon="151.2863006">
  <ele>372.05</ele>
  <time>2026-09-01T19:58:47Z</time>
  <course>81.94</course>
  <speed>25.27</speed>
  <fix>3d</fix>
</trkpt>
<trkpt lat="-27.2731232" lon="151.2864008">
  <ele>371.51</ele>
  <time>2026-09-01T19:58:47Z</time>
  <course>82.81</course>
  <speed>25.28782513384652</speed>
  <fix>3d</fix>
</trkpt>
<trkpt lat="-27.2731297" lon="151.2863511">
  <ele>371.82</ele>
  <time>2026-09-01T19:58:47Z</time>
  <course>81.93</course>
  <speed>25.3</speed>
  <fix>3d</fix>
</trkpt>
<trkpt lat="-27.2731202" lon="151.2864262">
  <ele>371.43</ele>
  <time>2026-09-01T19:58:47Z</time>
  <course>82.83</course>
  <speed>25.29682391131345</speed>
  <fix>3d</fix>
</trkpt>
<trkpt lat="-27.2731297" lon="151.2863511">
  <ele>371.82</ele>
  <time>2026-09-01T19:58:47Z</time>
  <course>81.93</course>
  <speed>25.3</speed>
  <fix>3d</fix>
</trkpt>
<trkpt lat="-27.2731172" lon="151.2864516">
  <ele>371.35</ele>
  <time>2026-09-01T19:58:47Z</time>
  <course>82.95</course>
  <speed>25.31340356411994</speed>
  <fix>3d</fix>
</trkpt>
<trkpt lat="-27.2731234" lon="151.2864018">
  <ele>371.63</ele>
  <time>2026-09-01T19:58:47Z</time>
  <course>82.16</course>
  <speed>25.33</speed>
  <fix>3d</fix>
</trkpt>
<trkpt lat="-27.2731144" lon="151.286477">
  <ele>371.28</ele>
  <time>2026-09-01T19:58:47Z</time>
  <course>83.14</course>
  <speed>25.316731621597604</speed>
  <fix>3d</fix>
</trkpt>
<trkpt lat="-27.2731234" lon="151.2864018">
  <ele>371.63</ele>
  <time>2026-09-01T19:58:47Z</time>
  <course>82.16</course>
  <speed>25.33</speed>
  <fix>3d</fix>
</trkpt>
<trkpt lat="-27.2731116" lon="151.2865023">
  <ele>371.23</ele>
  <time>2026-09-01T19:58:47Z</time>
  <course>83.37</course>
  <speed>25.32948084742362</speed>
  <fix>3d</fix>
</trkpt>
<trkpt lat="-27.2731173" lon="151.2864526">
  <ele>371.47</ele>
  <time>2026-09-01T19:58:47Z</time>
  <course>82.59</course>
  <speed>25.36</speed>
  <fix>3d</fix>
</trkpt>
<trkpt lat="-27.273109" lon="151.2865278">
  <ele>371.18</ele>
  <time>2026-09-01T19:58:47Z</time>
  <course>83.65</course>
  <speed>25.339652720587942</speed>
  <fix>3d</fix>
</trkpt>
<trkpt lat="-27.2731173" lon="151.2864526">
  <ele>371.47</ele>
  <time>2026-09-01T19:58:47Z</time>
  <course>82.59</course>
  <speed>25.36</speed>
  <fix>3d</fix>
</trkpt>
<trkpt lat="-27.2731066" lon="151.2865534">
  <ele>371.14</ele>
  <time>2026-09-01T19:58:47Z</time>
  <course>83.97</course>
  <speed>25.348897411919125</speed>
  <fix>3d</fix>
</trkpt>
<trkpt lat="-27.2731117" lon="151.2865035">
  <ele>371.34</ele>
  <time>2026-09-01T19:58:47Z</time>
  <course>83.22</course>
  <speed>25.39</speed>
  <fix>3d</fix>
</trkpt>
<trkpt lat="-27.2731043" lon="151.2865789">
  <ele>371.11</ele>
  <time>2026-09-01T19:58:47Z</time>
  <course>84.32</course>
  <speed>25.35862969483959</speed>
  <fix>3d</fix>
</trkpt>
<trkpt lat="-27.2731117" lon="151.2865035">
  <ele>371.34</ele>
  <time>2026-09-01T19:58:47Z</time>
  <course>83.22</course>
  <speed>25.39</speed>
  <fix>3d</fix>
</trkpt>
<trkpt lat="-27.2731022" lon="151.2866046">
  <ele>371.08</ele>
  <time>2026-09-01T19:58:47Z</time>
  <course>84.74</course>
  <speed>25.369085517613758</speed>
  <fix>3d</fix>
</trkpt>
<trkpt lat="-27.2731066" lon="151.2865546">
  <ele>371.26</ele>
  <time>2026-09-01T19:58:47Z</time>
  <course>84.02</course>
  <speed>25.41</speed>
  <fix>3d</fix>
</trkpt>
<trkpt lat="-27.2731003" lon="151.2866304">
  <ele>371.06</ele>
  <time>2026-09-01T19:58:47Z</time>
  <course>85.19</course>
  <speed>25.370543943715514</speed>
  <fix>3d</fix>
</trkpt>
<trkpt lat="-27.2731066" lon="151.2865546">
  <ele>371.26</ele>
  <time>2026-09-01T19:58:47Z</time>
  <course>84.02</course>
  <speed>25.41</speed>
  <fix>3d</fix>
</trkpt>
<trkpt lat="-27.2730986" lon="151.2866561">
  <ele>371.05</ele>
  <time>2026-09-01T19:58:47Z</time>
  <course>85.6</course>
  <speed>25.383193258532305</speed>
  <fix>3d</fix>
</trkpt>
<trkpt lat="-27.2731021" lon="151.2866058">
  <ele>371.21</ele>
  <time>2026-09-01T19:58:47Z</time>
  <course>84.96</course>
  <speed>25.43</speed>
  <fix>3d</fix>
</trkpt>
<trkpt lat="-27.2730971" lon="151.2866818">
  <ele>371.04</ele>
  <time>2026-09-01T19:58:47Z</time>
  <course>86.06</course>
  <speed>25.387361028669364</speed>
  <fix>3d</fix>
</trkpt>
<trkpt lat="-27.2731021" lon="151.2866058">
  <ele>371.21</ele>
  <time>2026-09-01T19:58:47Z</time>
  <course>84.96</course>
  <speed>25.43</speed>
  <fix>3d</fix>
</trkpt>
<trkpt lat="-27.2730958" lon="151.2867084">
  <ele>371.04</ele>
  <time>2026-09-01T19:58:47Z</time>
  <course>86.53</course>
  <speed>25.39278834630021</speed>
  <fix>3d</fix>
</trkpt>
<trkpt lat="-27.2730986" lon="151.2866571">
  <ele>371.18</ele>
  <time>2026-09-01T19:58:47Z</time>
  <course>85.99</course>
  <speed>25.45</speed>
  <fix>3d</fix>
</trkpt>
<trkpt lat="-27.2730947" lon="151.2867339">
  <ele>371.05</ele>
  <time>2026-09-01T19:58:47Z</time>
  <course>87.08</course>
  <speed>25.391307567748456</speed>
  <fix>3d</fix>
</trkpt>
<trkpt lat="-27.2730958" lon="151.2867084">
  <ele>371.18</ele>
  <time>2026-09-01T19:58:47Z</time>
  <course>87.09</course>
  <speed>25.46</speed>
  <fix>3d</fix>
</trkpt>
<trkpt lat="-27.2730939" lon="151.2867596">
  <ele>371.07</ele>
  <time>2026-09-01T19:58:47Z</time>
  <course>87.59</course>
  <speed>25.39229213757592</speed>
  <fix>3d</fix>
</trkpt>
<trkpt lat="-27.2730958" lon="151.2867084">
  <ele>371.18</ele>
  <time>2026-09-01T19:58:47Z</time>
  <course>87.09</course>
  <speed>25.46</speed>
  <fix>3d</fix>
</trkpt>
<trkpt lat="-27.2730933" lon="151.2867853">
  <ele>371.09</ele>
  <time>2026-09-01T19:58:47Z</time>
  <course>88.09</course>
  <speed>25.38574403085322</speed>
  <fix>3d</fix>
</trkpt>
<trkpt lat="-27.273094" lon="151.2867599">
  <ele>371.2</ele>
  <time>2026-09-01T19:58:47Z</time>
  <course>88.21</course>
  <speed>25.47</speed>
  <fix>3d</fix>
</trkpt>
<trkpt lat="-27.273093" lon="151.2868111">
  <ele>371.11</ele>
  <time>2026-09-01T19:58:47Z</time>
  <course>88.62</course>
  <speed>25.391656109832617</speed>
  <fix>3d</fix>
</trkpt>
<trkpt lat="-27.273094" lon="151.2867599">
  <ele>371.2</ele>
  <time>2026-09-01T19:58:47Z</time>
  <course>88.21</course>
  <speed>25.47</speed>
  <fix>3d</fix>
</trkpt>
<trkpt lat="-27.2730928" lon="151.286837">
  <ele>371.13</ele>
  <time>2026-09-01T19:58:47Z</time>
  <course>89.22</course>
  <speed>25.390017723507007</speed>
  <fix>3d</fix>
</trkpt>
<trkpt lat="-27.273093" lon="151.2868113">
  <ele>371.24</ele>
  <time>2026-09-01T19:58:47Z</time>
  <course>89.35</course>
  <speed>25.47</speed>
  <fix>3d</fix>
</trkpt>
<trkpt lat="-27.2730929" lon="151.2868628">
  <ele>371.15</ele>
  <time>2026-09-01T19:58:47Z</time>
  <course>89.89</course>
  <speed>25.381042137784647</speed>
  <fix>3d</fix>
</trkpt>
<trkpt lat="-27.273093" lon="151.2868113">
  <ele>371.24</ele>
  <time>2026-09-01T19:58:47Z</time>
  <course>89.35</course>
  <speed>25.47</speed>
  <fix>3d</fix>
</trkpt>
<trkpt lat="-27.2730933" lon="151.2868885">
  <ele>371.18</ele>
  <time>2026-09-01T19:58:47Z</time>
  <course>90.52</course>
  <speed>25.384924660120618</speed>
  <fix>3d</fix>
</trkpt>
<trkpt lat="-27.2730929" lon="151.2868628">
  <ele>371.28</ele>
  <time>2026-09-01T19:58:47Z</time>
  <course>90.52</course>
  <speed>25.46</speed>
  <fix>3d</fix>
</trkpt>
<trkpt lat="-27.2730939" lon="151.2869142">
  <ele>371.22</ele>
  <time>2026-09-01T19:58:47Z</time>
  <course>91.0</course>
  <speed>25.38168237134804</speed>
  <fix>3d</fix>
</trkpt>
<trkpt lat="-27.2730929" lon="151.2868628">
  <ele>371.28</ele>
  <time>2026-09-01T19:58:47Z</time>
  <course>90.52</course>
  <speed>25.46</speed>
  <fix>3d</fix>
</trkpt>
<trkpt lat="-27.2730947" lon="151.2869399">
  <ele>371.25</ele>
  <time>2026-09-01T19:58:47Z</time>
  <course>91.52</course>
  <speed>25.37091642018475</speed>
  <fix>3d</fix>
</trkpt>
<trkpt lat="-27.2730938" lon="151.2869142">
  <ele>371.34</ele>
  <time>2026-09-01T19:58:47Z</time>
  <course>91.72</course>
  <speed>25.46</speed>
  <fix>3d</fix>
</trkpt>
<trkpt lat="-27.2730958" lon="151.2869657">
  <ele>371.29</ele>
  <time>2026-09-01T19:58:47Z</time>
  <course>92.07</course>
  <speed>25.372814191571262</speed>
  <fix>3d</fix>
</trkpt>
<trkpt lat="-27.2730938" lon="151.2869142">
  <ele>371.34</ele>
  <time>2026-09-01T19:58:47Z</time>
  <course>91.72</course>
  <speed>25.46</speed>
  <fix>3d</fix>
</trkpt>
<trkpt lat="-27.2730969" lon="151.2869913">
  <ele>371.33</ele>
  <time>2026-09-01T19:58:47Z</time>
  <course>92.6</course>
  <speed>25.356807764385486</speed>
  <fix>3d</fix>
</trkpt>
<trkpt lat="-27.2730956" lon="151.2869657">
  <ele>371.41</ele>
  <time>2026-09-01T19:58:47Z</time>
  <course>92.9</course>
  <speed>25.45</speed>
  <fix>3d</fix>
</trkpt>
<trkpt lat="-27.2730984" lon="151.2870164">
  <ele>371.38</ele>
  <time>2026-09-01T19:58:47Z</time>
  <course>93.2</course>
  <speed>25.362539305045935</speed>
  <fix>3d</fix>
</trkpt>
<trkpt lat="-27.2730956" lon="151.2869657">
  <ele>371.41</ele>
  <time>2026-09-01T19:58:47Z</time>
  <course>92.9</course>
  <speed>25.45</speed>
  <fix>3d</fix>
</trkpt>
<trkpt lat="-27.2731001" lon="151.2870418">
  <ele>371.42</ele>
  <time>2026-09-01T19:58:47Z</time>
  <course>93.79</course>
  <speed>25.35060748779011</speed>
  <fix>3d</fix>
</trkpt>
<trkpt lat="-27.2730956" lon="151.2869657">
  <ele>371.41</ele>
  <time>2026-09-01T19:58:47Z</time>
  <course>92.9</course>
  <speed>25.45</speed>
  <fix>3d</fix>
</trkpt>
<trkpt lat="-27.273102" lon="151.2870674">
  <ele>371.46</ele>
  <time>2026-09-01T19:58:47Z</time>
  <course>94.3</course>
  <speed>25.35093883863081</speed>
  <fix>3d</fix>
</trkpt>
<trkpt lat="-27.2730984" lon="151.287017">
  <ele>371.48</ele>
  <time>2026-09-01T19:58:47Z</time>
  <course>94.03</course>
  <speed>25.44</speed>
  <fix>3d</fix>
</trkpt>
<trkpt lat="-27.2731042" lon="151.2870929">
  <ele>371.5</ele>
  <time>2026-09-01T19:58:47Z</time>
  <course>94.83</course>
  <speed>25.332670605366502</speed>
  <fix>3d</fix>
</trkpt>
<trkpt lat="-27.2730984" lon="151.287017">
  <ele>371.48</ele>
  <time>2026-09-01T19:58:47Z</time>
  <course>94.03</course>
  <speed>25.44</speed>
  <fix>3d</fix>
</trkpt>
<trkpt lat="-27.2731065" lon="151.2871185">
  <ele>371.53</ele>
  <time>2026-09-01T19:58:47Z</time>
  <course>95.34</course>
  <speed>25.3364263462707</speed>
  <fix>3d</fix>
</trkpt>
<trkpt lat="-27.273102" lon="151.2870682">
  <ele>371.56</ele>
  <time>2026-09-01T19:58:47Z</time>
  <course>95.12</course>
  <speed>25.43</speed>
  <fix>3d</fix>
</trkpt>
<trkpt lat="-27.2731091" lon="151.2871442">
  <ele>371.57</ele>
  <time>2026-09-01T19:58:47Z</time>
  <course>95.89</course>
  <speed>25.332352831902526</speed>
  <fix>3d</fix>
</trkpt>
<trkpt lat="-27.273102" lon="151.2870682">
  <ele>371.56</ele>
  <time>2026-09-01T19:58:47Z</time>
  <course>95.12</course>
  <speed>25.43</speed>
  <fix>3d</fix>
</trkpt>
<trkpt lat="-27.2731118" lon="151.2871697">
  <ele>371.61</ele>
  <time>2026-09-01T19:58:47Z</time>
  <course>96.48</course>
  <speed>25.319227871323406</speed>
  <fix>3d</fix>
</trkpt>
<trkpt lat="-27.2731065" lon="151.2871194">
  <ele>371.63</ele>
  <time>2026-09-01T19:58:47Z</time>
  <course>96.17</course>
  <speed>25.41</speed>
  <fix>3d</fix>
</trkpt>
<trkpt lat="-27.2731148" lon="151.2871952">
  <ele>371.64</ele>
  <time>2026-09-01T19:58:47Z</time>
  <course>97.0</course>
  <speed>25.317981752106544</speed>
  <fix>3d</fix>
</trkpt>
<trkpt lat="-27.2731065" lon="151.2871194">
  <ele>371.63</ele>
  <time>2026-09-01T19:58:47Z</time>
  <course>96.17</course>
  <speed>25.41</speed>
  <fix>3d</fix>
</trkpt>
<trkpt lat="-27.2731181" lon="151.2872215">
  <ele>371.68</ele>
  <time>2026-09-01T19:58:47Z</time>
  <course>97.47</course>
  <speed>25.31021335350613</speed>
  <fix>3d</fix>
</trkpt>
<trkpt lat="-27.2731118" lon="151.2871705">
  <ele>371.7</ele>
  <time>2026-09-01T19:58:47Z</time>
  <course>97.2</course>
  <speed>25.4</speed>
  <fix>3d</fix>
</trkpt>
<trkpt lat="-27.2731214" lon="151.2872468">
  <ele>371.72</ele>
  <time>2026-09-01T19:58:47Z</time>
  <course>97.94</course>
  <speed>25.300049407066382</speed>
  <fix>3d</fix>
</trkpt>
<trkpt lat="-27.2731179" lon="151.2872214">
  <ele>371.77</ele>
  <time>2026-09-01T19:58:47Z</time>
  <course>98.19</course>
  <speed>25.38</speed>
  <fix>3d</fix>
</trkpt>
<trkpt lat="-27.2731249" lon="151.287272">
  <ele>371.75</ele>
  <time>2026-09-01T19:58:47Z</time>
  <course>98.37</course>
  <speed>25.289938710878683</speed>
  <fix>3d</fix>
</trkpt>
<trkpt lat="-27.2731179" lon="151.2872214">
  <ele>371.77</ele>
  <time>2026-09-01T19:58:47Z</time>
  <course>98.19</course>
  <speed>25.38</speed>
  <fix>3d</fix>
</trkpt>
<trkpt lat="-27.2731286" lon="151.2872972">
  <ele>371.78</ele>
  <time>2026-09-01T19:58:47Z</time>
  <course>98.82</course>
  <speed>25.291176326932682</speed>
  <fix>3d</fix>
</trkpt>
<trkpt lat="-27.2731249" lon="151.2872721">
  <ele>371.83</ele>
  <time>2026-09-01T19:58:47Z</time>
  <course>99.12</course>
  <speed>25.37</speed>
  <fix>3d</fix>
</trkpt>
<trkpt lat="-27.2731325" lon="151.2873225">
  <ele>371.81</ele>
  <time>2026-09-01T19:58:47Z</time>
  <course>99.31</course>
  <speed>25.284028555592162</speed>
  <fix>3d</fix>
</trkpt>
<trkpt lat="-27.2731249" lon="151.2872721">
  <ele>371.83</ele>
  <time>2026-09-01T19:58:47Z</time>
  <course>99.12</course>
  <speed>25.37</speed>
  <fix>3d</fix>
</trkpt>
<trkpt lat="-27.2731365" lon="151.2873477">
  <ele>371.84</ele>
  <time>2026-09-01T19:58:47Z</time>
  <course>99.78</course>
  <speed>25.27475420256347</speed>
  <fix>3d</fix>
</trkpt>
<trkpt lat="-27.2731324" lon="151.2873226">
  <ele>371.89</ele>
  <time>2026-09-01T19:58:47Z</time>
  <course>99.98</course>
  <speed>25.36</speed>
  <fix>3d</fix>
</trkpt>
<trkpt lat="-27.2731407" lon="151.2873731">
  <ele>371.87</ele>
  <time>2026-09-01T19:58:47Z</time>
  <course>100.22</course>
  <speed>25.278380090504214</speed>
  <fix>3d</fix>
</trkpt>
<trkpt lat="-27.2731324" lon="151.2873226">
  <ele>371.89</ele>
  <time>2026-09-01T19:58:47Z</time>
  <course>99.98</course>
  <speed>25.36</speed>
  <fix>3d</fix>
</trkpt>
<trkpt lat="-27.273145" lon="151.2873983">
  <ele>371.89</ele>
  <time>2026-09-01T19:58:47Z</time>
  <course>100.64</course>
  <speed>25.27156900550498</speed>
  <fix>3d</fix>
</trkpt>
<trkpt lat="-27.2731406" lon="151.287373">
  <ele>371.94</ele>
  <time>2026-09-01T19:58:47Z</time>
  <course>100.79</course>
  <speed>25.34</speed>
  <fix>3d</fix>
</trkpt>
<trkpt lat="-27.2731495" lon="151.2874234">
  <ele>371.92</ele>
  <time>2026-09-01T19:58:47Z</time>
  <course>101.01</course>
  <speed>25.254158073473764</speed>
  <fix>3d</fix>
</trkpt>
<trkpt lat="-27.2731406" lon="151.287373">
  <ele>371.94</ele>
  <time>2026-09-01T19:58:47Z</time>
  <course>100.79</course>
  <speed>25.34</speed>
  <fix>3d</fix>
</trkpt>
<trkpt lat="-27.2731542" lon="151.2874484">
  <ele>371.94</ele>
  <time>2026-09-01T19:58:47Z</time>
  <course>101.35</course>
  <speed>25.25534596872512</speed>
  <fix>3d</fix>
</trkpt>
<trkpt lat="-27.2731494" lon="151.2874233">
  <ele>371.99</ele>
  <time>2026-09-01T19:58:47Z</time>
  <course>101.54</course>
  <speed>25.33</speed>
  <fix>3d</fix>
</trkpt>
<trkpt lat="-27.2731589" lon="151.2874735">
  <ele>371.97</ele>
  <time>2026-09-01T19:58:47Z</time>
  <course>101.74</course>
  <speed>25.255336069828886</speed>
  <fix>3d</fix>
</trkpt>
<trkpt lat="-27.2731494" lon="151.2874233">
  <ele>371.99</ele>
  <time>2026-09-01T19:58:47Z</time>
  <course>101.54</course>
  <speed>25.33</speed>
  <fix>3d</fix>
</trkpt>
<trkpt lat="-27.2731638" lon="151.2874985">
  <ele>371.98</ele>
  <time>2026-09-01T19:58:47Z</time>
  <course>102.09</course>
  <speed>25.25396206538689</speed>
  <fix>3d</fix>
</trkpt>
<trkpt lat="-27.2731588" lon="151.2874734">
  <ele>372.03</ele>
  <time>2026-09-01T19:58:47Z</time>
  <course>102.23</course>
  <speed>25.32</speed>
  <fix>3d</fix>
</trkpt>
<trkpt lat="-27.2731688" lon="151.2875234">
  <ele>372.0</ele>
  <time>2026-09-01T19:58:47Z</time>
  <course>102.44</course>
  <speed>25.255520188663706</speed>
  <fix>3d</fix>
</trkpt>
<trkpt lat="-27.2731588" lon="151.2874734">
  <ele>372.03</ele>
  <time>2026-09-01T19:58:47Z</time>
  <course>102.23</course>
  <speed>25.32</speed>
  <fix>3d</fix>
</trkpt>
<trkpt lat="-27.2731739" lon="151.2875484">
  <ele>372.02</ele>
  <time>2026-09-01T19:58:47Z</time>
  <course>102.77</course>
  <speed>25.24359126590351</speed>
  <fix>3d</fix>
</trkpt>
<trkpt lat="-27.2731687" lon="151.2875233">
  <ele>372.08</ele>
  <time>2026-09-01T19:58:47Z</time>
  <course>102.85</course>
  <speed>25.31</speed>
  <fix>3d</fix>
</trkpt>
<trkpt lat="-27.2731791" lon="151.2875733">
  <ele>372.03</ele>
  <time>2026-09-01T19:58:47Z</time>
  <course>103.06</course>
  <speed>25.251742514131575</speed>
  <fix>3d</fix>
</trkpt>
<trkpt lat="-27.2731687" lon="151.2875233">
  <ele>372.08</ele>
  <time>2026-09-01T19:58:47Z</time>
  <course>102.85</course>
  <speed>25.31</speed>
  <fix>3d</fix>
</trkpt>
<trkpt lat="-27.2731845" lon="151.2875981">
  <ele>372.05</ele>
  <time>2026-09-01T19:58:47Z</time>
  <course>103.35</course>
  <speed>25.25076236472871</speed>
  <fix>3d</fix>
</trkpt>
<trkpt lat="-27.273179" lon="151.2875731">
  <ele>372.11</ele>
  <time>2026-09-01T19:58:47Z</time>
  <course>103.42</course>
  <speed>25.31</speed>
  <fix>3d</fix>
</trkpt>
<trkpt lat="-27.2731899" lon="151.287623">
  <ele>372.06</ele>
  <time>2026-09-01T19:58:47Z</time>
  <course>103.62</course>
  <speed>25.247970215445044</speed>
  <fix>3d</fix>
</trkpt>
<trkpt lat="-27.273179" lon="151.2875731">
  <ele>372.11</ele>
  <time>2026-09-01T19:58:47Z</time>
  <course>103.42</course>
  <speed>25.31</speed>
  <fix>3d</fix>
</trkpt>
<trkpt lat="-27.2731954" lon="151.2876478">
  <ele>372.08</ele>
  <time>2026-09-01T19:58:47Z</time>
  <course>103.94</course>
  <speed>25.24323473725188</speed>
  <fix>3d</fix>
</trkpt>
<trkpt lat="-27.2731898" lon="151.2876229">
  <ele>372.14</ele>
  <time>2026-09-01T19:58:47Z</time>
  <course>103.94</course>
  <speed>25.3</speed>
  <fix>3d</fix>
</trkpt>
<trkpt lat="-27.273201" lon="151.2876726">
  <ele>372.1</ele>
  <time>2026-09-01T19:58:47Z</time>
  <course>104.19</course>
  <speed>25.248613823336914</speed>
  <fix>3d</fix>
</trkpt>
<trkpt lat="-27.2731898" lon="151.2876229">
  <ele>372.14</ele>
  <time>2026-09-01T19:58:47Z</time>
  <course>103.94</course>
  <speed>25.3</speed>
  <fix>3d</fix>
</trkpt>
<trkpt lat="-27.2732067" lon="151.2876973">
  <ele>372.12</ele>
  <time>2026-09-01T19:58:47Z</time>
  <course>104.47</course>
  <speed>25.24219681406513</speed>
  <fix>3d</fix>
</trkpt>
<trkpt lat="-27.273201" lon="151.2876725">
  <ele>372.18</ele>
  <time>2026-09-01T19:58:47Z</time>
  <course>104.41</course>
  <speed>25.29</speed>
  <fix>3d</fix>
</trkpt>
<trkpt lat="-27.2732124" lon="151.2877215">
  <ele>372.14</ele>
  <time>2026-09-01T19:58:47Z</time>
  <course>104.74</course>
  <speed>25.236134807057915</speed>
  <fix>3d</fix>
</trkpt>
<trkpt lat="-27.273201" lon="151.2876725">
  <ele>372.18</ele>
  <time>2026-09-01T19:58:47Z</time>
  <course>104.41</course>
  <speed>25.29</speed>
  <fix>3d</fix>
</trkpt>
<trkpt lat="-27.2732185" lon="151.287747">
  <ele>372.16</ele>
  <time>2026-09-01T19:58:47Z</time>
  <course>104.93</course>
  <speed>25.240083201130698</speed>
  <fix>3d</fix>
</trkpt>
<trkpt lat="-27.2732125" lon="151.2877219">
  <ele>372.22</ele>
  <time>2026-09-01T19:58:47Z</time>
  <course>104.84</course>
  <speed>25.29</speed>
  <fix>3d</fix>
</trkpt>
<trkpt lat="-27.2732243" lon="151.2877713">
  <ele>372.18</ele>
  <time>2026-09-01T19:58:47Z</time>
  <course>105.12</course>
  <speed>25.229451044364797</speed>
  <fix>3d</fix>
</trkpt>
<trkpt lat="-27.2732125" lon="151.2877219">
  <ele>372.22</ele>
  <time>2026-09-01T19:58:47Z</time>
  <course>104.84</course>
  <speed>25.29</speed>
  <fix>3d</fix>
</trkpt>
<trkpt lat="-27.2732303" lon="151.2877959">
  <ele>372.2</ele>
  <time>2026-09-01T19:58:47Z</time>
  <course>105.32</course>
  <speed>25.22602624275175</speed>
  <fix>3d</fix>
</trkpt>
<trkpt lat="-27.2732242" lon="151.2877713">
  <ele>372.26</ele>
  <time>2026-09-01T19:58:47Z</time>
  <course>105.21</course>
  <speed>25.28</speed>
  <fix>3d</fix>
</trkpt>
<trkpt lat="-27.2732363" lon="151.2878203">
  <ele>372.22</ele>
  <time>2026-09-01T19:58:47Z</time>
  <course>105.5</course>
  <speed>25.213125549998754</speed>
  <fix>3d</fix>
</trkpt>
<trkpt lat="-27.2732242" lon="151.2877713">
  <ele>372.26</ele>
  <time>2026-09-01T19:58:47Z</time>
  <course>105.21</course>
  <speed>25.28</speed>
  <fix>3d</fix>
</trkpt>
<trkpt lat="-27.2732424" lon="151.2878448">
  <ele>372.24</ele>
  <time>2026-09-01T19:58:47Z</time>
  <course>105.65</course>
  <speed>25.207320365322452</speed>
  <fix>3d</fix>
</trkpt>
<trkpt lat="-27.2732363" lon="151.2878205">
  <ele>372.3</ele>
  <time>2026-09-01T19:58:47Z</time>
  <course>105.51</course>
  <speed>25.27</speed>
  <fix>3d</fix>
</trkpt>
<trkpt lat="-27.2732485" lon="151.2878692">
  <ele>372.27</ele>
  <time>2026-09-01T19:58:47Z</time>
  <course>105.83</course>
  <speed>25.201628915607817</speed>
  <fix>3d</fix>
</trkpt>
<trkpt lat="-27.2732363" lon="151.2878205">
  <ele>372.3</ele>
  <time>2026-09-01T19:58:47Z</time>
  <course>105.51</course>
  <speed>25.27</speed>
  <fix>3d</fix>
</trkpt>
<trkpt lat="-27.2732547" lon="151.2878938">
  <ele>372.28</ele>
  <time>2026-09-01T19:58:47Z</time>
  <course>105.99</course>
  <speed>25.196051277928454</speed>
  <fix>3d</fix>
</trkpt>
<trkpt lat="-27.2732485" lon="151.2878698">
  <ele>372.33</ele>
  <time>2026-09-01T19:58:47Z</time>
  <course>105.76</course>
  <speed>25.27</speed>
  <fix>3d</fix>
</trkpt>
<trkpt lat="-27.2732609" lon="151.2879182">
  <ele>372.3</ele>
  <time>2026-09-01T19:58:47Z</time>
  <course>106.13</course>
  <speed>25.18782642468381</speed>
  <fix>3d</fix>
</trkpt>
<trkpt lat="-27.2732485" lon="151.2878698">
  <ele>372.33</ele>
  <time>2026-09-01T19:58:47Z</time>
  <course>105.76</course>
  <speed>25.27</speed>
  <fix>3d</fix>
</trkpt>
<trkpt lat="-27.2732671" lon="151.2879426">
  <ele>372.32</ele>
  <time>2026-09-01T19:58:47Z</time>
  <course>106.17</course>
  <speed>25.1865122635112</speed>
  <fix>3d</fix>
</trkpt>
<trkpt lat="-27.2732609" lon="151.2879189">
  <ele>372.36</ele>
  <time>2026-09-01T19:58:47Z</time>
  <course>105.96</course>
  <speed>25.26</speed>
  <fix>3d</fix>
</trkpt>
<trkpt lat="-27.2732733" lon="151.287967">
  <ele>372.33</ele>
  <time>2026-09-01T19:58:47Z</time>
  <course>106.23</course>
  <speed>25.175633060560763</speed>
  <fix>3d</fix>
</trkpt>
<trkpt lat="-27.2732609" lon="151.2879189">
  <ele>372.36</ele>
  <time>2026-09-01T19:58:47Z</time>
  <course>105.96</course>
  <speed>25.26</speed>
  <fix>3d</fix>
</trkpt>
<trkpt lat="-27.2732796" lon="151.2879913">
  <ele>372.34</ele>
  <time>2026-09-01T19:58:47Z</time>
  <course>106.33</course>
  <speed>25.17160702060955</speed>
  <fix>3d</fix>
</trkpt>
<trkpt lat="-27.2732735" lon="151.2879679">
  <ele>372.39</ele>
  <time>2026-09-01T19:58:47Z</time>
  <course>106.12</course>
  <speed>25.26</speed>
  <fix>3d</fix>
</trkpt>
<trkpt lat="-27.2732859" lon="151.2880157">
  <ele>372.35</ele>
  <time>2026-09-01T19:58:47Z</time>
  <course>106.44</course>
  <speed>25.177200003177475</speed>
  <fix>3d</fix>
</trkpt>
<trkpt lat="-27.2732735" lon="151.2879679">
  <ele>372.39</ele>
  <time>2026-09-01T19:58:47Z</time>
  <course>106.12</course>
  <speed>25.26</speed>
  <fix>3d</fix>
</trkpt>
<trkpt lat="-27.2732922" lon="151.2880401">
  <ele>372.36</ele>
  <time>2026-09-01T19:58:47Z</time>
  <course>106.49</course>
  <speed>25.17320996615251</speed>
  <fix>3d</fix>
</trkpt>
<trkpt lat="-27.2732861" lon="151.288017">
  <ele>372.41</ele>
  <time>2026-09-01T19:58:47Z</time>
  <course>106.22</course>
  <speed>25.26</speed>
  <fix>3d</fix>
</trkpt>
<trkpt lat="-27.2732986" lon="151.2880645">
  <ele>372.37</ele>
  <time>2026-09-01T19:58:47Z</time>
  <course>106.52</course>
  <speed>25.17602033682051</speed>
  <fix>3d</fix>
</trkpt>
<trkpt lat="-27.2732861" lon="151.288017">
  <ele>372.41</ele>
  <time>2026-09-01T19:58:47Z</time>
  <course>106.22</course>
  <speed>25.26</speed>
  <fix>3d</fix>
</trkpt>
<trkpt lat="-27.2733049" lon="151.2880889">
  <ele>372.38</ele>
  <time>2026-09-01T19:58:47Z</time>
  <course>106.6</course>
  <speed>25.147232452100965</speed>
  <fix>3d</fix>
</trkpt>
<trkpt lat="-27.2732988" lon="151.2880659">
  <ele>372.43</ele>
  <time>2026-09-01T19:58:47Z</time>
  <course>106.29</course>
  <speed>25.26</speed>
  <fix>3d</fix>
</trkpt>
<trkpt lat="-27.2733112" lon="151.2881132">
  <ele>372.38</ele>
  <time>2026-09-01T19:58:47Z</time>
  <course>106.7</course>
  <speed>25.067656452089814</speed>
  <fix>3d</fix>
</trkpt>
<trkpt lat="-27.2732988" lon="151.2880659">
  <ele>372.43</ele>
  <time>2026-09-01T19:58:47Z</time>
  <course>106.29</course>
  <speed>25.26</speed>
  <fix>3d</fix>
</trkpt>
<trkpt lat="-27.2733176" lon="151.2881375">
  <ele>372.4</ele>
  <time>2026-09-01T19:58:47Z</time>
  <course>106.75</course>
  <speed>24.934474127199874</speed>
  <fix>3d</fix>
</trkpt>
<trkpt lat="-27.2733115" lon="151.2881148">
  <ele>372.45</ele>
  <time>2026-09-01T19:58:47Z</time>
  <course>106.33</course>
  <speed>25.14</speed>
  <fix>3d</fix>
</trkpt>
<trkpt lat="-27.2733239" lon="151.2881616">
  <ele>372.41</ele>
  <time>2026-09-01T19:58:47Z</time>
  <course>106.8</course>
  <speed>24.782110483169102</speed>
  <fix>3d</fix>
</trkpt>
<trkpt lat="-27.2733115" lon="151.2881148">
  <ele>372.45</ele>
  <time>2026-09-01T19:58:47Z</time>
  <course>106.33</course>
  <speed>25.14</speed>
  <fix>3d</fix>
</trkpt>
<trkpt lat="-27.2733301" lon="151.2881856">
  <ele>372.44</ele>
  <time>2026-09-01T19:58:47Z</time>
  <course>106.86</course>
  <speed>24.629754363371145</speed>
  <fix>3d</fix>
</trkpt>
<trkpt lat="-27.2733242" lon="151.2881635">
  <ele>372.48</ele>
  <time>2026-09-01T19:58:47Z</time>
  <course>106.39</course>
  <speed>24.89</speed>
  <fix>3d</fix>
</trkpt>
<trkpt lat="-27.2733364" lon="151.2882095">
  <ele>372.47</ele>
  <time>2026-09-01T19:58:47Z</time>
  <course>106.9</course>
  <speed>24.48983462581975</speed>
  <fix>3d</fix>
</trkpt>
<trkpt lat="-27.2733242" lon="151.2881635">
  <ele>372.48</ele>
  <time>2026-09-01T19:58:47Z</time>
  <course>106.39</course>
  <speed>24.89</speed>
  <fix>3d</fix>
</trkpt>
<trkpt lat="-27.2733426" lon="151.2882332">
  <ele>372.51</ele>
  <time>2026-09-01T19:58:47Z</time>
  <course>106.91</course>
  <speed>24.359517647112803</speed>
  <fix>3d</fix>
</trkpt>
<trkpt lat="-27.2733368" lon="151.2882116">
  <ele>372.54</ele>
  <time>2026-09-01T19:58:47Z</time>
  <course>106.46</course>
  <speed>24.6</speed>
  <fix>3d</fix>
</trkpt>
<trkpt lat="-27.2733489" lon="151.2882569">
  <ele>372.55</ele>
  <time>2026-09-01T19:58:47Z</time>
  <course>106.93</course>
  <speed>24.238797412413017</speed>
  <fix>3d</fix>
</trkpt>
<trkpt lat="-27.2733368" lon="151.2882116">
  <ele>372.54</ele>
  <time>2026-09-01T19:58:47Z</time>
  <course>106.46</course>
  <speed>24.6</speed>
  <fix>3d</fix>
</trkpt>
<trkpt lat="-27.2733551" lon="151.2882804">
  <ele>372.59</ele>
  <time>2026-09-01T19:58:47Z</time>
  <course>106.99</course>
  <speed>24.120949400883873</speed>
  <fix>3d</fix>
</trkpt>
<trkpt lat="-27.2733493" lon="151.2882589">
  <ele>372.62</ele>
  <time>2026-09-01T19:58:47Z</time>
  <course>106.55</course>
  <speed>24.33</speed>
  <fix>3d</fix>
</trkpt>
<trkpt lat="-27.2733613" lon="151.2883038">
  <ele>372.64</ele>
  <time>2026-09-01T19:58:47Z</time>
  <course>107.02</course>
  <speed>23.99067527186344</speed>
  <fix>3d</fix>
</trkpt>
<trkpt lat="-27.2733493" lon="151.2882589">
  <ele>372.62</ele>
  <time>2026-09-01T19:58:47Z</time>
  <course>106.55</course>
  <speed>24.33</speed>
  <fix>3d</fix>
</trkpt>
<trkpt lat="-27.2733675" lon="151.288327">
  <ele>372.69</ele>
  <time>2026-09-01T19:58:47Z</time>
  <course>107.04</course>
  <speed>23.806774245999815</speed>
  <fix>3d</fix>
</trkpt>
<trkpt lat="-27.2733617" lon="151.2883059">
  <ele>372.71</ele>
  <time>2026-09-01T19:58:47Z</time>
  <course>106.63</course>
  <speed>24.05</speed>
  <fix>3d</fix>
</trkpt>
<trkpt lat="-27.2733736" lon="151.2883501">
  <ele>372.76</ele>
  <time>2026-09-01T19:58:47Z</time>
  <course>107.06</course>
  <speed>23.569238426389596</speed>
  <fix>3d</fix>
</trkpt>
<trkpt lat="-27.2733617" lon="151.2883059">
  <ele>372.71</ele>
  <time>2026-09-01T19:58:47Z</time>
  <course>106.63</course>
  <speed>24.05</speed>
  <fix>3d</fix>
</trkpt>
<trkpt lat="-27.2733797" lon="151.2883727">
  <ele>372.83</ele>
  <time>2026-09-01T19:58:47Z</time>
  <course>107.09</course>
  <speed>23.26848727356379</speed>
  <fix>3d</fix>
</trkpt>
<trkpt lat="-27.2733741" lon="151.288352">
  <ele>372.83</ele>
  <time>2026-09-01T19:58:47Z</time>
  <course>106.69</course>
  <speed>23.62</speed>
  <fix>3d</fix>
</trkpt>
<trkpt lat="-27.2733857" lon="151.2883955">
  <ele>372.92</ele>
  <time>2026-09-01T19:58:47Z</time>
  <course>107.12</course>
  <speed>22.90163531278935</speed>
  <fix>3d</fix>
</trkpt>
<trkpt lat="-27.2733741" lon="151.288352">
  <ele>372.83</ele>
  <time>2026-09-01T19:58:47Z</time>
  <course>106.69</course>
  <speed>23.62</speed>
  <fix>3d</fix>
</trkpt>
<trkpt lat="-27.2733916" lon="151.2884176">
  <ele>373.04</ele>
  <time>2026-09-01T19:58:47Z</time>
  <course>107.13</course>
  <speed>22.53766625008011</speed>
  <fix>3d</fix>
</trkpt>
<trkpt lat="-27.273386" lon="151.2883971">
  <ele>373.0</ele>
  <time>2026-09-01T19:58:47Z</time>
  <course>106.71</course>
  <speed>22.98</speed>
  <fix>3d</fix>
</trkpt>
<trkpt lat="-27.2733974" lon="151.2884393">
  <ele>373.16</ele>
  <time>2026-09-01T19:58:47Z</time>
  <course>107.13</course>
  <speed>22.189966200965696</speed>
  <fix>3d</fix>
</trkpt>
<trkpt lat="-27.273386" lon="151.2883971">
  <ele>373.0</ele>
  <time>2026-09-01T19:58:47Z</time>
  <course>106.71</course>
  <speed>22.98</speed>
  <fix>3d</fix>
</trkpt>
<trkpt lat="-27.2734031" lon="151.2884607">
  <ele>373.28</ele>
  <time>2026-09-01T19:58:47Z</time>
  <course>107.12</course>
  <speed>21.854724889597673</speed>
  <fix>3d</fix>
</trkpt>
<trkpt lat="-27.2733977" lon="151.2884409">
  <ele>373.22</ele>
  <time>2026-09-01T19:58:47Z</time>
  <course>106.71</course>
  <speed>22.27</speed>
  <fix>3d</fix>
</trkpt>
<trkpt lat="-27.2734088" lon="151.2884818">
  <ele>373.38</ele>
  <time>2026-09-01T19:58:47Z</time>
  <course>107.11</course>
  <speed>21.538639697065364</speed>
  <fix>3d</fix>
</trkpt>
<trkpt lat="-27.2733977" lon="151.2884409">
  <ele>373.22</ele>
  <time>2026-09-01T19:58:47Z</time>
  <course>106.71</course>
  <speed>22.27</speed>
  <fix>3d</fix>
</trkpt>
<trkpt lat="-27.2734143" lon="151.2885026">
  <ele>373.47</ele>
  <time>2026-09-01T19:58:47Z</time>
  <course>107.1</course>
  <speed>21.225430502112317</speed>
  <fix>3d</fix>
</trkpt>
<trkpt lat="-27.2734091" lon="151.2884834">
  <ele>373.44</ele>
  <time>2026-09-01T19:58:47Z</time>
  <course>106.69</course>
  <speed>21.61</speed>
  <fix>3d</fix>
</trkpt>
<trkpt lat="-27.2734197" lon="151.2885231">
  <ele>373.55</ele>
  <time>2026-09-01T19:58:47Z</time>
  <course>107.1</course>
  <speed>20.931378358818133</speed>
  <fix>3d</fix>
</trkpt>
<trkpt lat="-27.2734091" lon="151.2884834">
  <ele>373.44</ele>
  <time>2026-09-01T19:58:47Z</time>
  <course>106.69</course>
  <speed>21.61</speed>
  <fix>3d</fix>
</trkpt>
<trkpt lat="-27.2734251" lon="151.2885433">
  <ele>373.63</ele>
  <time>2026-09-01T19:58:47Z</time>
  <course>107.1</course>
  <speed>20.63732783089904</speed>
  <fix>3d</fix>
</trkpt>
<trkpt lat="-27.2734201" lon="151.2885246">
  <ele>373.62</ele>
  <time>2026-09-01T19:58:47Z</time>
  <course>106.66</course>
  <speed>20.99</speed>
  <fix>3d</fix>
</trkpt>
<trkpt lat="-27.2734304" lon="151.2885632">
  <ele>373.69</ele>
  <time>2026-09-01T19:58:47Z</time>
  <course>107.1</course>
  <speed>20.35285974992212</speed>
  <fix>3d</fix>
</trkpt>
<trkpt lat="-27.2734201" lon="151.2885246">
  <ele>373.62</ele>
  <time>2026-09-01T19:58:47Z</time>
  <course>106.66</course>
  <speed>20.99</speed>
  <fix>3d</fix>
</trkpt>
<trkpt lat="-27.2734356" lon="151.2885829">
  <ele>373.75</ele>
  <time>2026-09-01T19:58:47Z</time>
  <course>107.09</course>
  <speed>20.09042060286444</speed>
  <fix>3d</fix>
</trkpt>
<trkpt lat="-27.2734307" lon="151.2885647">
  <ele>373.76</ele>
  <time>2026-09-01T19:58:47Z</time>
  <course>106.63</course>
  <speed>20.41</speed>
  <fix>3d</fix>
</trkpt>
<trkpt lat="-27.2734407" lon="151.2886023">
  <ele>373.79</ele>
  <time>2026-09-01T19:58:47Z</time>
  <course>107.09</course>
  <speed>19.827982751656812</speed>
  <fix>3d</fix>
</trkpt>
<trkpt lat="-27.2734307" lon="151.2885647">
  <ele>373.76</ele>
  <time>2026-09-01T19:58:47Z</time>
  <course>106.63</course>
  <speed>20.41</speed>
  <fix>3d</fix>
</trkpt>
<trkpt lat="-27.2734458" lon="151.2886214">
  <ele>373.84</ele>
  <time>2026-09-01T19:58:47Z</time>
  <course>107.09</course>
  <speed>19.565546248443972</speed>
  <fix>3d</fix>
</trkpt>
<trkpt lat="-27.2734411" lon="151.2886037">
  <ele>373.86</ele>
  <time>2026-09-01T19:58:48Z</time>
  <course>106.61</course>
  <speed>19.86</speed>
  <fix>3d</fix>
</trkpt>
<trkpt lat="-27.2734508" lon="151.2886404">
  <ele>373.87</ele>
  <time>2026-09-01T19:58:48Z</time>
  <course>107.09</course>
  <speed>19.322279886183203</speed>
  <fix>3d</fix>
</trkpt>
<trkpt lat="-27.2734411" lon="151.2886037">
  <ele>373.86</ele>
  <time>2026-09-01T19:58:48Z</time>
  <course>106.61</course>
  <speed>19.86</speed>
  <fix>3d</fix>
</trkpt>
<trkpt lat="-27.2734557" lon="151.288659">
  <ele>373.9</ele>
  <time>2026-09-01T19:58:48Z</time>
  <course>107.08</course>
  <speed>19.081868357160417</speed>
  <fix>3d</fix>
</trkpt>
<trkpt lat="-27.2734511" lon="151.2886418">
  <ele>373.94</ele>
  <time>2026-09-01T19:58:48Z</time>
  <course>106.58</course>
  <speed>19.35</speed>
  <fix>3d</fix>
</trkpt>
<trkpt lat="-27.2734606" lon="151.2886775">
  <ele>373.93</ele>
  <time>2026-09-01T19:58:48Z</time>
  <course>107.08</course>
  <speed>18.851042411495445</speed>
  <fix>3d</fix>
</trkpt>
<trkpt lat="-27.2734511" lon="151.2886418">
  <ele>373.94</ele>
  <time>2026-09-01T19:58:48Z</time>
  <course>106.58</course>
  <speed>19.35</speed>
  <fix>3d</fix>
</trkpt>
<trkpt lat="-27.2734654" lon="151.2886957">
  <ele>373.95</ele>
  <time>2026-09-01T19:58:48Z</time>
  <course>107.07</course>
  <speed>18.623066342576347</speed>
  <fix>3d</fix>
</trkpt>
<trkpt lat="-27.273461" lon="151.2886788">
  <ele>374.0</ele>
  <time>2026-09-01T19:58:48Z</time>
  <course>106.56</course>
  <speed>18.87</speed>
  <fix>3d</fix>
</trkpt>
<trkpt lat="-27.2734702" lon="151.2887137">
  <ele>373.96</ele>
  <time>2026-09-01T19:58:48Z</time>
  <course>107.06</course>
  <speed>18.40182599635156</speed>
  <fix>3d</fix>
</trkpt>
<trkpt lat="-27.273461" lon="151.2886788">
  <ele>374.0</ele>
  <time>2026-09-01T19:58:48Z</time>
  <course>106.56</course>
  <speed>18.87</speed>
  <fix>3d</fix>
</trkpt>
<trkpt lat="-27.2734749" lon="151.2887315">
  <ele>373.97</ele>
  <time>2026-09-01T19:58:48Z</time>
  <course>107.05</course>
  <speed>18.19302063979481</speed>
  <fix>3d</fix>
</trkpt>
<trkpt lat="-27.2734705" lon="151.2887149">
  <ele>374.04</ele>
  <time>2026-09-01T19:58:48Z</time>
  <course>106.54</course>
  <speed>18.42</speed>
  <fix>3d</fix>
</trkpt>
<trkpt lat="-27.2734795" lon="151.288749">
  <ele>373.98</ele>
  <time>2026-09-01T19:58:48Z</time>
  <course>107.04</course>
  <speed>17.981370915478053</speed>
  <fix>3d</fix>
</trkpt>
<trkpt lat="-27.2734705" lon="151.2887149">
  <ele>374.04</ele>
  <time>2026-09-01T19:58:48Z</time>
  <course>106.54</course>
  <speed>18.42</speed>
  <fix>3d</fix>
</trkpt>
<trkpt lat="-27.2734841" lon="151.2887664">
  <ele>373.98</ele>
  <time>2026-09-01T19:58:48Z</time>
  <course>107.03</course>
  <speed>17.782153975264077</speed>
  <fix>3d</fix>
</trkpt>
<trkpt lat="-27.2734798" lon="151.2887502">
  <ele>374.06</ele>
  <time>2026-09-01T19:58:48Z</time>
  <course>106.52</course>
  <speed>17.99</speed>
  <fix>3d</fix>
</trkpt>
<trkpt lat="-27.2734886" lon="151.2887835">
  <ele>373.98</ele>
  <time>2026-09-01T19:58:48Z</time>
  <course>107.02</course>
  <speed>17.59536586718219</speed>
  <fix>3d</fix>
</trkpt>
<trkpt lat="-27.2734798" lon="151.2887502">
  <ele>374.06</ele>
  <time>2026-09-01T19:58:48Z</time>
  <course>106.52</course>
  <speed>17.99</speed>
  <fix>3d</fix>
</trkpt>
<trkpt lat="-27.273493" lon="151.2888005">
  <ele>373.97</ele>
  <time>2026-09-01T19:58:48Z</time>
  <course>107.01</course>
  <speed>17.396148999131963</speed>
  <fix>3d</fix>
</trkpt>
<trkpt lat="-27.2734888" lon="151.2887847">
  <ele>374.05</ele>
  <time>2026-09-01T19:58:48Z</time>
  <course>106.5</course>
  <speed>17.59</speed>
  <fix>3d</fix>
</trkpt>
<trkpt lat="-27.2734975" lon="151.2888173">
  <ele>373.96</ele>
  <time>2026-09-01T19:58:48Z</time>
  <course>107.0</course>
  <speed>17.2161116399726</speed>
  <fix>3d</fix>
</trkpt>
<trkpt lat="-27.2734888" lon="151.2887847">
  <ele>374.05</ele>
  <time>2026-09-01T19:58:48Z</time>
  <course>106.5</course>
  <speed>17.59</speed>
  <fix>3d</fix>
</trkpt>
<trkpt lat="-27.2735018" lon="151.2888339">
  <ele>373.94</ele>
  <time>2026-09-01T19:58:48Z</time>
  <course>106.99</course>
  <speed>17.038911350200753</speed>
  <fix>3d</fix>
</trkpt>
<trkpt lat="-27.2734978" lon="151.2888184">
  <ele>374.03</ele>
  <time>2026-09-01T19:58:48Z</time>
  <course>106.47</course>
  <speed>17.21</speed>
  <fix>3d</fix>
</trkpt>
<trkpt lat="-27.2735062" lon="151.2888505">
  <ele>373.92</ele>
  <time>2026-09-01T19:58:48Z</time>
  <course>106.98</course>
  <speed>16.87130107608776</speed>
  <fix>3d</fix>
</trkpt>
<trkpt lat="-27.2734978" lon="151.2888184">
  <ele>374.03</ele>
  <time>2026-09-01T19:58:48Z</time>
  <course>106.47</course>
  <speed>17.21</speed>
  <fix>3d</fix>
</trkpt>
<trkpt lat="-27.2735105" lon="151.2888668">
  <ele>373.88</ele>
  <time>2026-09-01T19:58:48Z</time>
  <course>106.97</course>
  <speed>16.703691208831657</speed>
  <fix>3d</fix>
</trkpt>
<trkpt lat="-27.2735065" lon="151.2888514">
  <ele>373.99</ele>
  <time>2026-09-01T19:58:48Z</time>
  <course>106.44</course>
  <speed>16.86</speed>
  <fix>3d</fix>
</trkpt>
<trkpt lat="-27.2735147" lon="151.2888829">
  <ele>373.84</ele>
  <time>2026-09-01T19:58:48Z</time>
  <course>106.95</course>
  <speed>16.545673150404003</speed>
  <fix>3d</fix>
</trkpt>
<trkpt lat="-27.2735065" lon="151.2888514">
  <ele>373.99</ele>
  <time>2026-09-01T19:58:48Z</time>
  <course>106.44</course>
  <speed>16.86</speed>
  <fix>3d</fix>
</trkpt>
<trkpt lat="-27.2735189" lon="151.2888989">
  <ele>373.8</ele>
  <time>2026-09-01T19:58:48Z</time>
  <course>106.94</course>
  <speed>16.397249769397305</speed>
  <fix>3d</fix>
</trkpt>
<trkpt lat="-27.273515" lon="151.2888838">
  <ele>373.92</ele>
  <time>2026-09-01T19:58:48Z</time>
  <course>106.41</course>
  <speed>16.53</speed>
  <fix>3d</fix>
</trkpt>
<trkpt lat="-27.2735231" lon="151.2889149">
  <ele>373.74</ele>
  <time>2026-09-01T19:58:48Z</time>
  <course>106.92</course>
  <speed>16.251652223697132</speed>
  <fix>3d</fix>
</trkpt>
<trkpt lat="-27.273515" lon="151.2888838">
  <ele>373.92</ele>
  <time>2026-09-01T19:58:48Z</time>
  <course>106.41</course>
  <speed>16.53</speed>
  <fix>3d</fix>
</trkpt>
<trkpt lat="-27.2735272" lon="151.2889306">
  <ele>373.67</ele>
  <time>2026-09-01T19:58:48Z</time>
  <course>106.9</course>
  <speed>16.112827188299388</speed>
  <fix>3d</fix>
</trkpt>
<trkpt lat="-27.2735233" lon="151.2889155">
  <ele>373.82</ele>
  <time>2026-09-01T19:58:48Z</time>
  <course>106.37</course>
  <speed>16.24</speed>
  <fix>3d</fix>
</trkpt>
<trkpt lat="-27.2735312" lon="151.2889462">
  <ele>373.59</ele>
  <time>2026-09-01T19:58:48Z</time>
  <course>106.88</course>
  <speed>15.986419236339325</speed>
  <fix>3d</fix>
</trkpt>
<trkpt lat="-27.2735233" lon="151.2889155">
  <ele>373.82</ele>
  <time>2026-09-01T19:58:48Z</time>
  <course>106.37</course>
  <speed>16.24</speed>
  <fix>3d</fix>
</trkpt>
<trkpt lat="-27.2735353" lon="151.2889616">
  <ele>373.51</ele>
  <time>2026-09-01T19:58:48Z</time>
  <course>106.86</course>
  <speed>15.860012610335467</speed>
  <fix>3d</fix>
</trkpt>
<trkpt lat="-27.2735314" lon="151.2889468">
  <ele>373.69</ele>
  <time>2026-09-01T19:58:48Z</time>
  <course>106.33</course>
  <speed>15.97</speed>
  <fix>3d</fix>
</trkpt>
<trkpt lat="-27.2735393" lon="151.288977">
  <ele>373.42</ele>
  <time>2026-09-01T19:58:48Z</time>
  <course>106.84</course>
  <speed>15.755611698693263</speed>
  <fix>3d</fix>
</trkpt>
<trkpt lat="-27.2735314" lon="151.2889468">
  <ele>373.69</ele>
  <time>2026-09-01T19:58:48Z</time>
  <course>106.33</course>
  <speed>15.97</speed>
  <fix>3d</fix>
</trkpt>
<trkpt lat="-27.2735432" lon="151.2889922">
  <ele>373.32</ele>
  <time>2026-09-01T19:58:48Z</time>
  <course>106.82</course>
  <speed>15.638804302119775</speed>
  <fix>3d</fix>
</trkpt>
<trkpt lat="-27.2735394" lon="151.2889775">
  <ele>373.51</ele>
  <time>2026-09-01T19:58:48Z</time>
  <course>106.28</course>
  <speed>15.73</speed>
  <fix>3d</fix>
</trkpt>
<trkpt lat="-27.2735472" lon="151.2890074">
  <ele>373.22</ele>
  <time>2026-09-01T19:58:48Z</time>
  <course>106.79</course>
  <speed>15.54400205867202</speed>
  <fix>3d</fix>
</trkpt>
<trkpt lat="-27.2735394" lon="151.2889775">
  <ele>373.51</ele>
  <time>2026-09-01T19:58:48Z</time>
  <course>106.28</course>
  <speed>15.73</speed>
  <fix>3d</fix>
</trkpt>
<trkpt lat="-27.2735511" lon="151.2890224">
  <ele>373.11</ele>
  <time>2026-09-01T19:58:48Z</time>
  <course>106.76</course>
  <speed>15.449200626569647</speed>
  <fix>3d</fix>
</trkpt>
<trkpt lat="-27.2735473" lon="151.2890079">
  <ele>373.31</ele>
  <time>2026-09-01T19:58:48Z</time>
  <course>106.22</course>
  <speed>15.52</speed>
  <fix>3d</fix>
</trkpt>
<trkpt lat="-27.2735549" lon="151.2890374">
  <ele>373.0</ele>
  <time>2026-09-01T19:58:48Z</time>
  <course>106.73</course>
  <speed>15.351602522212461</speed>
  <fix>3d</fix>
</trkpt>
<trkpt lat="-27.2735473" lon="151.2890079">
  <ele>373.31</ele>
  <time>2026-09-01T19:58:48Z</time>
  <course>106.22</course>
  <speed>15.52</speed>
  <fix>3d</fix>
</trkpt>
<trkpt lat="-27.2735588" lon="151.2890523">
  <ele>372.9</ele>
  <time>2026-09-01T19:58:48Z</time>
  <course>106.7</course>
  <speed>15.266407566942526</speed>
  <fix>3d</fix>
</trkpt>
<trkpt lat="-27.273555" lon="151.2890378">
  <ele>373.1</ele>
  <time>2026-09-01T19:58:48Z</time>
  <course>106.16</course>
  <speed>15.33</speed>
  <fix>3d</fix>
</trkpt>
<trkpt lat="-27.2735626" lon="151.2890671">
  <ele>372.8</ele>
  <time>2026-09-01T19:58:48Z</time>
  <course>106.66</course>
  <speed>15.181215366366423</speed>
  <fix>3d</fix>
</trkpt>
<trkpt lat="-27.273555" lon="151.2890378">
  <ele>373.1</ele>
  <time>2026-09-01T19:58:48Z</time>
  <course>106.16</course>
  <speed>15.33</speed>
  <fix>3d</fix>
</trkpt>
<trkpt lat="-27.2735664" lon="151.2890818">
  <ele>372.7</ele>
  <time>2026-09-01T19:58:48Z</time>
  <course>106.63</course>
  <speed>15.096025967121282</speed>
  <fix>3d</fix>
</trkpt>
<trkpt lat="-27.2735626" lon="151.2890674">
  <ele>372.9</ele>
  <time>2026-09-01T19:58:48Z</time>
  <course>106.09</course>
  <speed>15.15</speed>
  <fix>3d</fix>
</trkpt>
<trkpt lat="-27.2735701" lon="151.2890965">
  <ele>372.61</ele>
  <time>2026-09-01T19:58:48Z</time>
  <course>106.6</course>
  <speed>15.020446065280485</speed>
  <fix>3d</fix>
</trkpt>
<trkpt lat="-27.2735626" lon="151.2890674">
  <ele>372.9</ele>
  <time>2026-09-01T19:58:48Z</time>
  <course>106.09</course>
  <speed>15.15</speed>
  <fix>3d</fix>
</trkpt>
<trkpt lat="-27.2735738" lon="151.2891109">
  <ele>372.53</ele>
  <time>2026-09-01T19:58:48Z</time>
  <course>106.56</course>
  <speed>14.935263640123665</speed>
  <fix>3d</fix>
</trkpt>
<trkpt lat="-27.2735701" lon="151.2890967">
  <ele>372.72</ele>
  <time>2026-09-01T19:58:48Z</time>
  <course>106.02</course>
  <speed>14.99</speed>
  <fix>3d</fix>
</trkpt>
<trkpt lat="-27.2735775" lon="151.2891254">
  <ele>372.45</ele>
  <time>2026-09-01T19:58:48Z</time>
  <course>106.53</course>
  <speed>14.850084174845609</speed>
  <fix>3d</fix>
</trkpt>
<trkpt lat="-27.2735701" lon="151.2890967">
  <ele>372.72</ele>
  <time>2026-09-01T19:58:48Z</time>
  <course>106.02</course>
  <speed>14.99</speed>
  <fix>3d</fix>
</trkpt>
<trkpt lat="-27.2735812" lon="151.2891398">
  <ele>372.39</ele>
  <time>2026-09-01T19:58:48Z</time>
  <course>106.5</course>
  <speed>14.774518604678802</speed>
  <fix>3d</fix>
</trkpt>
<trkpt lat="-27.2735774" lon="151.2891257">
  <ele>372.56</ele>
  <time>2026-09-01T19:58:48Z</time>
  <course>105.95</course>
  <speed>14.82</speed>
  <fix>3d</fix>
</trkpt>
<trkpt lat="-27.2735848" lon="151.2891541">
  <ele>372.33</ele>
  <time>2026-09-01T19:58:48Z</time>
  <course>106.47</course>
  <speed>14.689346479677031</speed>
  <fix>3d</fix>
</trkpt>
<trkpt lat="-27.2735774" lon="151.2891257">
  <ele>372.56</ele>
  <time>2026-09-01T19:58:48Z</time>
  <course>105.95</course>
  <speed>14.82</speed>
  <fix>3d</fix>
</trkpt>
<trkpt lat="-27.2735885" lon="151.2891684">
  <ele>372.28</ele>
  <time>2026-09-01T19:58:48Z</time>
  <course>106.44</course>
  <speed>14.60417748454188</speed>
  <fix>3d</fix>
</trkpt>
<trkpt lat="-27.2735847" lon="151.2891543">
  <ele>372.43</ele>
  <time>2026-09-01T19:58:48Z</time>
  <course>105.87</course>
  <speed>14.66</speed>
  <fix>3d</fix>
</trkpt>
<trkpt lat="-27.273592" lon="151.2891826">
  <ele>372.24</ele>
  <time>2026-09-01T19:58:48Z</time>
  <course>106.41</course>
  <speed>14.519011674353044</speed>
  <fix>3d</fix>
</trkpt>
<trkpt lat="-27.2735847" lon="151.2891543">
  <ele>372.43</ele>
  <time>2026-09-01T19:58:48Z</time>
  <course>105.87</course>
  <speed>14.66</speed>
  <fix>3d</fix>
</trkpt>
<trkpt lat="-27.2735956" lon="151.2891967">
  <ele>372.21</ele>
  <time>2026-09-01T19:58:48Z</time>
  <course>106.38</course>
  <speed>14.433849105488115</speed>
  <fix>3d</fix>
</trkpt>
<trkpt lat="-27.2735918" lon="151.2891826">
  <ele>372.34</ele>
  <time>2026-09-01T19:58:48Z</time>
  <course>105.8</course>
  <speed>14.49</speed>
  <fix>3d</fix>
</trkpt>
<trkpt lat="-27.2735991" lon="151.2892107">
  <ele>372.18</ele>
  <time>2026-09-01T19:58:48Z</time>
  <course>106.35</course>
  <speed>14.348689835660956</speed>
  <fix>3d</fix>
</trkpt>
<trkpt lat="-27.2735918" lon="151.2891826">
  <ele>372.34</ele>
  <time>2026-09-01T19:58:48Z</time>
  <course>105.8</course>
  <speed>14.49</speed>
  <fix>3d</fix>
</trkpt>
<trkpt lat="-27.2736026" lon="151.2892246">
  <ele>372.16</ele>
  <time>2026-09-01T19:58:48Z</time>
  <course>106.32</course>
  <speed>14.263533923961482</speed>
  <fix>3d</fix>
</trkpt>
<trkpt lat="-27.2735988" lon="151.2892107">
  <ele>372.28</ele>
  <time>2026-09-01T19:58:48Z</time>
  <course>105.74</course>
  <speed>14.32</speed>
  <fix>3d</fix>
</trkpt>
<trkpt lat="-27.2736061" lon="151.2892384">
  <ele>372.15</ele>
  <time>2026-09-01T19:58:48Z</time>
  <course>106.3</course>
  <speed>14.17838143089683</speed>
  <fix>3d</fix>
</trkpt>
<trkpt lat="-27.2735988" lon="151.2892107">
  <ele>372.28</ele>
  <time>2026-09-01T19:58:48Z</time>
  <course>105.74</course>
  <speed>14.32</speed>
  <fix>3d</fix>
</trkpt>
<trkpt lat="-27.2736095" lon="151.2892521">
  <ele>372.14</ele>
  <time>2026-09-01T19:58:48Z</time>
  <course>106.28</course>
  <speed>14.093232418434035</speed>
  <fix>3d</fix>
</trkpt>
<trkpt lat="-27.2736058" lon="151.2892384">
  <ele>372.25</ele>
  <time>2026-09-01T19:58:48Z</time>
  <course>105.68</course>
  <speed>14.15</speed>
  <fix>3d</fix>
</trkpt>
<trkpt lat="-27.2736129" lon="151.2892658">
  <ele>372.14</ele>
  <time>2026-09-01T19:58:48Z</time>
  <course>106.26</course>
  <speed>14.008086950044248</speed>
  <fix>3d</fix>
</trkpt>
<trkpt lat="-27.2736058" lon="151.2892384">
  <ele>372.25</ele>
  <time>2026-09-01T19:58:48Z</time>
  <course>105.68</course>
  <speed>14.15</speed>
  <fix>3d</fix>
</trkpt>
<trkpt lat="-27.2736163" lon="151.2892794">
  <ele>372.14</ele>
  <time>2026-09-01T19:58:48Z</time>
  <course>106.24</course>
  <speed>13.913320955113484</speed>
  <fix>3d</fix>
</trkpt>
<trkpt lat="-27.2736127" lon="151.2892658">
  <ele>372.24</ele>
  <time>2026-09-01T19:58:48Z</time>
  <course>105.62</course>
  <speed>13.98</speed>
  <fix>3d</fix>
</trkpt>
<trkpt lat="-27.2736196" lon="151.2892928">
  <ele>372.15</ele>
  <time>2026-09-01T19:58:48Z</time>
  <course>106.22</course>
  <speed>13.8308965725292</speed>
  <fix>3d</fix>
</trkpt>
<trkpt lat="-27.2736127" lon="151.2892658">
  <ele>372.24</ele>
  <time>2026-09-01T19:58:48Z</time>
  <course>105.62</course>
  <speed>13.98</speed>
  <fix>3d</fix>
</trkpt>
<trkpt lat="-27.273623" lon="151.2893062">
  <ele>372.16</ele>
  <time>2026-09-01T19:58:48Z</time>
  <course>106.2</course>
  <speed>13.745755708581466</speed>
  <fix>3d</fix>
</trkpt>
<trkpt lat="-27.2736194" lon="151.2892929">
  <ele>372.25</ele>
  <time>2026-09-01T19:58:48Z</time>
  <course>105.57</course>
  <speed>13.81</speed>
  <fix>3d</fix>
</trkpt>
<trkpt lat="-27.2736263" lon="151.2893197">
  <ele>372.17</ele>
  <time>2026-09-01T19:58:48Z</time>
  <course>106.18</course>
  <speed>13.650992637899998</speed>
  <fix>3d</fix>
</trkpt>
<trkpt lat="-27.2736194" lon="151.2892929">
  <ele>372.25</ele>
  <time>2026-09-01T19:58:48Z</time>
  <course>105.57</course>
  <speed>13.81</speed>
  <fix>3d</fix>
</trkpt>
<trkpt lat="-27.2736296" lon="151.2893329">
  <ele>372.19</ele>
  <time>2026-09-01T19:58:48Z</time>
  <course>106.17</course>
  <speed>13.556231039636348</speed>
  <fix>3d</fix>
</trkpt>
<trkpt lat="-27.273626" lon="151.2893197">
  <ele>372.28</ele>
  <time>2026-09-01T19:58:48Z</time>
  <course>105.53</course>
  <speed>13.63</speed>
  <fix>3d</fix>
</trkpt>
<trkpt lat="-27.2736328" lon="151.2893461">
  <ele>372.21</ele>
  <time>2026-09-01T19:58:48Z</time>
  <course>106.15</course>
  <speed>13.47109869312819</speed>
  <fix>3d</fix>
</trkpt>
<trkpt lat="-27.273626" lon="151.2893197">
  <ele>372.28</ele>
  <time>2026-09-01T19:58:48Z</time>
  <course>105.53</course>
  <speed>13.63</speed>
  <fix>3d</fix>
</trkpt>
<trkpt lat="-27.2736361" lon="151.2893592">
  <ele>372.23</ele>
  <time>2026-09-01T19:58:48Z</time>
  <course>106.14</course>
  <speed>13.376341054264428</speed>
  <fix>3d</fix>
</trkpt>
<trkpt lat="-27.2736325" lon="151.2893461">
  <ele>372.32</ele>
  <time>2026-09-01T19:58:48Z</time>
  <course>105.49</course>
  <speed>13.45</speed>
  <fix>3d</fix>
</trkpt>
<trkpt lat="-27.2736392" lon="151.2893721">
  <ele>372.25</ele>
  <time>2026-09-01T19:58:48Z</time>
  <course>106.13</course>
  <speed>13.281584995775166</speed>
  <fix>3d</fix>
</trkpt>
<trkpt lat="-27.2736325" lon="151.2893461">
  <ele>372.32</ele>
  <time>2026-09-01T19:58:48Z</time>
  <course>105.49</course>
  <speed>13.45</speed>
  <fix>3d</fix>
</trkpt>
<trkpt lat="-27.2736424" lon="151.2893849">
  <ele>372.27</ele>
  <time>2026-09-01T19:58:48Z</time>
  <course>106.11</course>
  <speed>13.189526147667323</speed>
  <fix>3d</fix>
</trkpt>
<trkpt lat="-27.2736389" lon="151.289372">
  <ele>372.36</ele>
  <time>2026-09-01T19:58:48Z</time>
  <course>105.46</course>
  <speed>13.27</speed>
  <fix>3d</fix>
</trkpt>
<trkpt lat="-27.2736455" lon="151.2893976">
  <ele>372.3</ele>
  <time>2026-09-01T19:58:48Z</time>
  <course>106.1</course>
  <speed>13.09476994834197</speed>
  <fix>3d</fix>
</trkpt>
<trkpt lat="-27.2736389" lon="151.289372">
  <ele>372.36</ele>
  <time>2026-09-01T19:58:48Z</time>
  <course>105.46</course>
  <speed>13.27</speed>
  <fix>3d</fix>
</trkpt>
<trkpt lat="-27.2736486" lon="151.2894102">
  <ele>372.32</ele>
  <time>2026-09-01T19:58:48Z</time>
  <course>106.1</course>
  <speed>12.990384905767803</speed>
  <fix>3d</fix>
</trkpt>
<trkpt lat="-27.2736452" lon="151.2893977">
  <ele>372.41</ele>
  <time>2026-09-01T19:58:48Z</time>
  <course>105.43</course>
  <speed>13.09</speed>
  <fix>3d</fix>
</trkpt>
<trkpt lat="-27.2736517" lon="151.2894227">
  <ele>372.35</ele>
  <time>2026-09-01T19:58:48Z</time>
  <course>106.09</course>
  <speed>12.886000155207201</speed>
  <fix>3d</fix>
</trkpt>
<trkpt lat="-27.2736452" lon="151.2893977">
  <ele>372.41</ele>
  <time>2026-09-01T19:58:48Z</time>
  <course>105.43</course>
  <speed>13.09</speed>
  <fix>3d</fix>
</trkpt>
<trkpt lat="-27.2736547" lon="151.2894352">
  <ele>372.37</ele>
  <time>2026-09-01T19:58:48Z</time>
  <course>106.08</course>
  <speed>12.791247007231156</speed>
  <fix>3d</fix>
</trkpt>
<trkpt lat="-27.2736514" lon="151.2894231">
  <ele>372.46</ele>
  <time>2026-09-01T19:58:48Z</time>
  <course>105.41</course>
  <speed>12.9</speed>
  <fix>3d</fix>
</trkpt>
<trkpt lat="-27.2736578" lon="151.2894476">
  <ele>372.39</ele>
  <time>2026-09-01T19:58:48Z</time>
  <course>106.08</course>
  <speed>12.686863284515995</speed>
  <fix>3d</fix>
</trkpt>
<trkpt lat="-27.2736514" lon="151.2894231">
  <ele>372.46</ele>
  <time>2026-09-01T19:58:48Z</time>
  <course>105.41</course>
  <speed>12.9</speed>
  <fix>3d</fix>
</trkpt>
<trkpt lat="-27.2736608" lon="151.2894599">
  <ele>372.42</ele>
  <time>2026-09-01T19:58:48Z</time>
  <course>106.07</course>
  <speed>12.582479882757612</speed>
  <fix>3d</fix>
</trkpt>
<trkpt lat="-27.2736575" lon="151.289448">
  <ele>372.51</ele>
  <time>2026-09-01T19:58:48Z</time>
  <course>105.39</course>
  <speed>12.7</speed>
  <fix>3d</fix>
</trkpt>
<trkpt lat="-27.2736638" lon="151.2894721">
  <ele>372.44</ele>
  <time>2026-09-01T19:58:48Z</time>
  <course>106.07</course>
  <speed>12.468464219782643</speed>
  <fix>3d</fix>
</trkpt>
<trkpt lat="-27.2736575" lon="151.289448">
  <ele>372.51</ele>
  <time>2026-09-01T19:58:48Z</time>
  <course>105.39</course>
  <speed>12.7</speed>
  <fix>3d</fix>
</trkpt>
<trkpt lat="-27.2736667" lon="151.2894841">
  <ele>372.47</ele>
  <time>2026-09-01T19:58:48Z</time>
  <course>106.07</course>
  <speed>12.364081041468468</speed>
  <fix>3d</fix>
</trkpt>
<trkpt lat="-27.2736636" lon="151.2894726">
  <ele>372.56</ele>
  <time>2026-09-01T19:58:48Z</time>
  <course>105.38</course>
  <speed>12.49</speed>
  <fix>3d</fix>
</trkpt>
<trkpt lat="-27.2736696" lon="151.2894961">
  <ele>372.49</ele>
  <time>2026-09-01T19:58:48Z</time>
  <course>106.07</course>
  <speed>12.240432998877122</speed>
  <fix>3d</fix>
</trkpt>
<trkpt lat="-27.2736636" lon="151.2894726">
  <ele>372.56</ele>
  <time>2026-09-01T19:58:48Z</time>
  <course>105.38</course>
  <speed>12.49</speed>
  <fix>3d</fix>
</trkpt>
<trkpt lat="-27.2736725" lon="151.2895079">
  <ele>372.52</ele>
  <time>2026-09-01T19:58:48Z</time>
  <course>106.06</course>
  <speed>12.114099223631941</speed>
  <fix>3d</fix>
</trkpt>
<trkpt lat="-27.2736694" lon="151.2894967">
  <ele>372.61</ele>
  <time>2026-09-01T19:58:48Z</time>
  <course>105.37</course>
  <speed>12.27</speed>
  <fix>3d</fix>
</trkpt>
<trkpt lat="-27.2736754" lon="151.2895196">
  <ele>372.55</ele>
  <time>2026-09-01T19:58:48Z</time>
  <course>106.06</course>
  <speed>11.99045036685445</speed>
  <fix>3d</fix>
</trkpt>
<trkpt lat="-27.2736694" lon="151.2894967">
  <ele>372.61</ele>
  <time>2026-09-01T19:58:48Z</time>
  <course>105.37</course>
  <speed>12.27</speed>
  <fix>3d</fix>
</trkpt>
<trkpt lat="-27.2736782" lon="151.2895312">
  <ele>372.58</ele>
  <time>2026-09-01T19:58:48Z</time>
  <course>106.06</course>
  <speed>11.854484383557136</speed>
  <fix>3d</fix>
</trkpt>
<trkpt lat="-27.2736752" lon="151.2895204">
  <ele>372.67</ele>
  <time>2026-09-01T19:58:48Z</time>
  <course>105.36</course>
  <speed>12.02</speed>
  <fix>3d</fix>
</trkpt>
<trkpt lat="-27.273681" lon="151.2895427">
  <ele>372.61</ele>
  <time>2026-09-01T19:58:48Z</time>
  <course>106.06</course>
  <speed>11.718519531067054</speed>
  <fix>3d</fix>
</trkpt>
<trkpt lat="-27.2736752" lon="151.2895204">
  <ele>372.67</ele>
  <time>2026-09-01T19:58:48Z</time>
  <course>105.36</course>
  <speed>12.02</speed>
  <fix>3d</fix>
</trkpt>
<trkpt lat="-27.2736838" lon="151.2895541">
  <ele>372.64</ele>
  <time>2026-09-01T19:58:48Z</time>
  <course>106.07</course>
  <speed>11.572920979597157</speed>
  <fix>3d</fix>
</trkpt>
<trkpt lat="-27.2736809" lon="151.2895436">
  <ele>372.73</ele>
  <time>2026-09-01T19:58:48Z</time>
  <course>105.35</course>
  <speed>11.75</speed>
  <fix>3d</fix>
</trkpt>
<trkpt lat="-27.2736865" lon="151.2895653">
  <ele>372.67</ele>
  <time>2026-09-01T19:58:48Z</time>
  <course>106.07</course>
  <speed>11.436957637413894</speed>
  <fix>3d</fix>
</trkpt>
<trkpt lat="-27.2736809" lon="151.2895436">
  <ele>372.73</ele>
  <time>2026-09-01T19:58:48Z</time>
  <course>105.35</course>
  <speed>11.75</speed>
  <fix>3d</fix>
</trkpt>
<trkpt lat="-27.2736892" lon="151.2895764">
  <ele>372.7</ele>
  <time>2026-09-01T19:58:48Z</time>
  <course>106.07</course>
  <speed>11.294038250333669</speed>
  <fix>3d</fix>
</trkpt>
<trkpt lat="-27.2736864" lon="151.2895663">
  <ele>372.79</ele>
  <time>2026-09-01T19:58:48Z</time>
  <course>105.35</course>
  <speed>11.47</speed>
  <fix>3d</fix>
</trkpt>
<trkpt lat="-27.2736919" lon="151.2895873">
  <ele>372.73</ele>
  <time>2026-09-01T19:58:48Z</time>
  <course>106.07</course>
  <speed>11.148439352662777</speed>
  <fix>3d</fix>
</trkpt>
<trkpt lat="-27.2736864" lon="151.2895663">
  <ele>372.79</ele>
  <time>2026-09-01T19:58:48Z</time>
  <course>105.35</course>
  <speed>11.47</speed>
  <fix>3d</fix>
</trkpt>
<trkpt lat="-27.2736945" lon="151.2895981">
  <ele>372.75</ele>
  <time>2026-09-01T19:58:48Z</time>
  <course>106.07</course>
  <speed>11.002840542332695</speed>
  <fix>3d</fix>
</trkpt>
<trkpt lat="-27.2736918" lon="151.2895884">
  <ele>372.84</ele>
  <time>2026-09-01T19:58:48Z</time>
  <course>105.35</course>
  <speed>11.19</speed>
  <fix>3d</fix>
</trkpt>
<trkpt lat="-27.2736971" lon="151.2896088">
  <ele>372.77</ele>
  <time>2026-09-01T19:58:48Z</time>
  <course>106.07</course>
  <speed>10.857241822857223</speed>
  <fix>3d</fix>
</trkpt>
<trkpt lat="-27.2736918" lon="151.2895884">
  <ele>372.84</ele>
  <time>2026-09-01T19:58:48Z</time>
  <course>105.35</course>
  <speed>11.19</speed>
  <fix>3d</fix>
</trkpt>
<trkpt lat="-27.2736997" lon="151.2896193">
  <ele>372.79</ele>
  <time>2026-09-01T19:58:48Z</time>
  <course>106.06</course>
  <speed>10.7116431979412</speed>
  <fix>3d</fix>
</trkpt>
<trkpt lat="-27.2736971" lon="151.2896098">
  <ele>372.89</ele>
  <time>2026-09-01T19:58:48Z</time>
  <course>105.36</course>
  <speed>10.9</speed>
  <fix>3d</fix>
</trkpt>
<trkpt lat="-27.2737022" lon="151.2896298">
  <ele>372.81</ele>
  <time>2026-09-01T19:58:48Z</time>
  <course>106.06</course>
  <speed>10.57567964719053</speed>
  <fix>3d</fix>
</trkpt>
<trkpt lat="-27.2736971" lon="151.2896098">
  <ele>372.89</ele>
  <time>2026-09-01T19:58:48Z</time>
  <course>105.36</course>
  <speed>10.9</speed>
  <fix>3d</fix>
</trkpt>
<trkpt lat="-27.2737047" lon="151.28964">
  <ele>372.82</ele>
  <time>2026-09-01T19:58:48Z</time>
  <course>106.05</course>
  <speed>10.432760900164444</speed>
  <fix>3d</fix>
</trkpt>
<trkpt lat="-27.2737022" lon="151.2896308">
  <ele>372.91</ele>
  <time>2026-09-01T19:58:48Z</time>
  <course>105.36</course>
  <speed>10.62</speed>
  <fix>3d</fix>
</trkpt>
<trkpt lat="-27.2737072" lon="151.2896502">
  <ele>372.83</ele>
  <time>2026-09-01T19:58:48Z</time>
  <course>106.04</course>
  <speed>10.296795618055162</speed>
  <fix>3d</fix>
</trkpt>
<trkpt lat="-27.2737022" lon="151.2896308">
  <ele>372.91</ele>
  <time>2026-09-01T19:58:48Z</time>
  <course>105.36</course>
  <speed>10.62</speed>
  <fix>3d</fix>
</trkpt>
<trkpt lat="-27.2737096" lon="151.2896602">
  <ele>372.84</ele>
  <time>2026-09-01T19:58:48Z</time>
  <course>106.03</course>
  <speed>10.151196973756345</speed>
  <fix>3d</fix>
</trkpt>
<trkpt lat="-27.2737072" lon="151.2896513">
  <ele>372.94</ele>
  <time>2026-09-01T19:58:48Z</time>
  <course>105.36</course>
  <speed>10.34</speed>
  <fix>3d</fix>
</trkpt>
<trkpt lat="-27.273712" lon="151.28967">
  <ele>372.86</ele>
  <time>2026-09-01T19:58:48Z</time>
  <course>106.02</course>
  <speed>9.995964185610111</speed>
  <fix>3d</fix>
</trkpt>
<trkpt lat="-27.2737072" lon="151.2896513">
  <ele>372.94</ele>
  <time>2026-09-01T19:58:48Z</time>
  <course>105.36</course>
  <speed>10.34</speed>
  <fix>3d</fix>
</trkpt>
<trkpt lat="-27.2737144" lon="151.2896798">
  <ele>372.88</ele>
  <time>2026-09-01T19:58:48Z</time>
  <course>106.02</course>
  <speed>9.828417980529725</speed>
  <fix>3d</fix>
</trkpt>
<trkpt lat="-27.2737121" lon="151.2896711">
  <ele>372.97</ele>
  <time>2026-09-01T19:58:48Z</time>
  <course>105.36</course>
  <speed>10.04</speed>
  <fix>3d</fix>
</trkpt>
<trkpt lat="-27.2737168" lon="151.2896894">
  <ele>372.91</ele>
  <time>2026-09-01T19:58:48Z</time>
  <course>106.01</course>
  <speed>9.673184584199767</speed>
  <fix>3d</fix>
</trkpt>
<trkpt lat="-27.2737121" lon="151.2896711">
  <ele>372.97</ele>
  <time>2026-09-01T19:58:48Z</time>
  <course>105.36</course>
  <speed>10.04</speed>
  <fix>3d</fix>
</trkpt>
<trkpt lat="-27.2737191" lon="151.2896988">
  <ele>372.93</ele>
  <time>2026-09-01T19:58:48Z</time>
  <course>106.01</course>
  <speed>9.496004422913881</speed>
  <fix>3d</fix>
</trkpt>
<trkpt lat="-27.2737168" lon="151.2896904">
  <ele>373.01</ele>
  <time>2026-09-01T19:58:48Z</time>
  <course>105.35</course>
  <speed>9.71</speed>
  <fix>3d</fix>
</trkpt>
<trkpt lat="-27.2737213" lon="151.289708">
  <ele>372.96</ele>
  <time>2026-09-01T19:58:48Z</time>
  <course>106.01</course>
  <speed>9.318825033232462</speed>
  <fix>3d</fix>
</trkpt>
<trkpt lat="-27.2737168" lon="151.2896904">
  <ele>373.01</ele>
  <time>2026-09-01T19:58:48Z</time>
  <course>105.35</course>
  <speed>9.71</speed>
  <fix>3d</fix>
</trkpt>
<trkpt lat="-27.2737235" lon="151.2897171">
  <ele>373.0</ele>
  <time>2026-09-01T19:58:48Z</time>
  <course>106.01</course>
  <speed>9.141646460020208</speed>
  <fix>3d</fix>
</trkpt>
<trkpt lat="-27.2737213" lon="151.289709">
  <ele>373.06</ele>
  <time>2026-09-01T19:58:48Z</time>
  <course>105.34</course>
  <speed>9.37</speed>
  <fix>3d</fix>
</trkpt>
<trkpt lat="-27.2737257" lon="151.289726">
  <ele>373.04</ele>
  <time>2026-09-01T19:58:48Z</time>
  <course>106.02</course>
  <speed>8.954831098351326</speed>
  <fix>3d</fix>
</trkpt>
<trkpt lat="-27.2737213" lon="151.289709">
  <ele>373.06</ele>
  <time>2026-09-01T19:58:48Z</time>
  <course>105.34</course>
  <speed>9.37</speed>
  <fix>3d</fix>
</trkpt>
<trkpt lat="-27.2737278" lon="151.2897347">
  <ele>373.08</ele>
  <time>2026-09-01T19:58:48Z</time>
  <course>106.02</course>
  <speed>8.768015739036969</speed>
  <fix>3d</fix>
</trkpt>
<trkpt lat="-27.2737257" lon="151.2897269">
  <ele>373.13</ele>
  <time>2026-09-01T19:58:48Z</time>
  <course>105.33</course>
  <speed>9.0</speed>
  <fix>3d</fix>
</trkpt>
<trkpt lat="-27.2737299" lon="151.2897432">
  <ele>373.12</ele>
  <time>2026-09-01T19:58:48Z</time>
  <course>106.02</course>
  <speed>8.571563451319719</speed>
  <fix>3d</fix>
</trkpt>
<trkpt lat="-27.2737257" lon="151.2897269">
  <ele>373.13</ele>
  <time>2026-09-01T19:58:48Z</time>
  <course>105.33</course>
  <speed>9.0</speed>
  <fix>3d</fix>
</trkpt>
<trkpt lat="-27.2737319" lon="151.2897515">
  <ele>373.17</ele>
  <time>2026-09-01T19:58:48Z</time>
  <course>106.02</course>
  <speed>8.37511193955042</speed>
  <fix>3d</fix>
</trkpt>
<trkpt lat="-27.2737298" lon="151.2897441">
  <ele>373.21</ele>
  <time>2026-09-01T19:58:48Z</time>
  <course>105.32</course>
  <speed>8.61</speed>
  <fix>3d</fix>
</trkpt>
<trkpt lat="-27.2737339" lon="151.2897597">
  <ele>373.21</ele>
  <time>2026-09-01T19:58:48Z</time>
  <course>106.02</course>
  <speed>8.185627648506863</speed>
  <fix>3d</fix>
</trkpt>
<trkpt lat="-27.2737298" lon="151.2897441">
  <ele>373.21</ele>
  <time>2026-09-01T19:58:48Z</time>
  <course>105.32</course>
  <speed>8.61</speed>
  <fix>3d</fix>
</trkpt>
<trkpt lat="-27.2737358" lon="151.2897676">
  <ele>373.25</ele>
  <time>2026-09-01T19:58:48Z</time>
  <course>106.02</course>
  <speed>7.989173924755926</speed>
  <fix>3d</fix>
</trkpt>
<trkpt lat="-27.2737338" lon="151.2897606">
  <ele>373.3</ele>
  <time>2026-09-01T19:58:48Z</time>
  <course>105.31</course>
  <speed>8.22</speed>
  <fix>3d</fix>
</trkpt>
<trkpt lat="-27.2737377" lon="151.2897754">
  <ele>373.29</ele>
  <time>2026-09-01T19:58:48Z</time>
  <course>106.02</course>
  <speed>7.790057766152958</speed>
  <fix>3d</fix>
</trkpt>
<trkpt lat="-27.2737338" lon="151.2897606">
  <ele>373.3</ele>
  <time>2026-09-01T19:58:48Z</time>
  <course>105.31</course>
  <speed>8.22</speed>
  <fix>3d</fix>
</trkpt>
<trkpt lat="-27.2737395" lon="151.2897829">
  <ele>373.33</ele>
  <time>2026-09-01T19:58:48Z</time>
  <course>106.02</course>
  <speed>7.583963343793271</speed>
  <fix>3d</fix>
</trkpt>
<trkpt lat="-27.2737376" lon="151.2897762">
  <ele>373.37</ele>
  <time>2026-09-01T19:58:48Z</time>
  <course>105.29</course>
  <speed>7.82</speed>
  <fix>3d</fix>
</trkpt>
<trkpt lat="-27.2737413" lon="151.2897903">
  <ele>373.36</ele>
  <time>2026-09-01T19:58:48Z</time>
  <course>106.02</course>
  <speed>7.384849355267852</speed>
  <fix>3d</fix>
</trkpt>
<trkpt lat="-27.2737376" lon="151.2897762">
  <ele>373.37</ele>
  <time>2026-09-01T19:58:48Z</time>
  <course>105.29</course>
  <speed>7.82</speed>
  <fix>3d</fix>
</trkpt>
<trkpt lat="-27.273743" lon="151.2897975">
  <ele>373.38</ele>
  <time>2026-09-01T19:58:48Z</time>
  <course>106.02</course>
  <speed>7.188393422733623</speed>
  <fix>3d</fix>
</trkpt>
<trkpt lat="-27.2737413" lon="151.289791">
  <ele>373.44</ele>
  <time>2026-09-01T19:58:48Z</time>
  <course>105.26</course>
  <speed>7.42</speed>
  <fix>3d</fix>
</trkpt>
<trkpt lat="-27.2737447" lon="151.2898045">
  <ele>373.41</ele>
  <time>2026-09-01T19:58:48Z</time>
  <course>106.01</course>
  <speed>6.989284655814213</speed>
  <fix>3d</fix>
</trkpt>
<trkpt lat="-27.2737413" lon="151.289791">
  <ele>373.44</ele>
  <time>2026-09-01T19:58:48Z</time>
  <course>105.26</course>
  <speed>7.42</speed>
  <fix>3d</fix>
</trkpt>
<trkpt lat="-27.2737463" lon="151.2898112">
  <ele>373.42</ele>
  <time>2026-09-01T19:58:48Z</time>
  <course>106.01</course>
  <speed>6.792827099227537</speed>
  <fix>3d</fix>
</trkpt>
<trkpt lat="-27.2737447" lon="151.2898051">
  <ele>373.48</ele>
  <time>2026-09-01T19:58:48Z</time>
  <course>105.23</course>
  <speed>7.02</speed>
  <fix>3d</fix>
</trkpt>
<trkpt lat="-27.2737479" lon="151.2898178">
  <ele>373.42</ele>
  <time>2026-09-01T19:58:48Z</time>
  <course>106.0</course>
  <speed>6.606012412946256</speed>
  <fix>3d</fix>
</trkpt>
<trkpt lat="-27.2737447" lon="151.2898051">
  <ele>373.48</ele>
  <time>2026-09-01T19:58:48Z</time>
  <course>105.23</course>
  <speed>7.02</speed>
  <fix>3d</fix>
</trkpt>
<trkpt lat="-27.2737495" lon="151.2898242">
  <ele>373.39</ele>
  <time>2026-09-01T19:58:48Z</time>
  <course>105.98</course>
  <speed>6.375335285300688</speed>
  <fix>3d</fix>
</trkpt>
<trkpt lat="-27.2737479" lon="151.2898184">
  <ele>373.48</ele>
  <time>2026-09-01T19:58:48Z</time>
  <course>105.19</course>
  <speed>6.61</speed>
  <fix>3d</fix>
</trkpt>
<trkpt lat="-27.2737509" lon="151.2898303">
  <ele>373.28</ele>
  <time>2026-09-01T19:58:48Z</time>
  <course>106.01</course>
  <speed>5.97013400184619</speed>
  <fix>3d</fix>
</trkpt>
<trkpt lat="-27.2737479" lon="151.2898184">
  <ele>373.48</ele>
  <time>2026-09-01T19:58:48Z</time>
  <course>105.19</course>
  <speed>6.61</speed>
  <fix>3d</fix>
</trkpt>
<trkpt lat="-27.2737523" lon="151.2898359">
  <ele>373.13</ele>
  <time>2026-09-01T19:58:48Z</time>
  <course>106.1</course>
  <speed>5.460567736050896</speed>
  <fix>3d</fix>
</trkpt>
<trkpt lat="-27.2737508" lon="151.2898307">
  <ele>373.35</ele>
  <time>2026-09-01T19:58:48Z</time>
  <course>105.15</course>
  <speed>5.95</speed>
  <fix>3d</fix>
</trkpt>
<trkpt lat="-27.2737535" lon="151.289841">
  <ele>372.96</ele>
  <time>2026-09-01T19:58:48Z</time>
  <course>106.25</course>
  <speed>4.887872747934423</speed>
  <fix>3d</fix>
</trkpt>
<trkpt lat="-27.2737508" lon="151.2898307">
  <ele>373.35</ele>
  <time>2026-09-01T19:58:48Z</time>
  <course>105.15</course>
  <speed>5.95</speed>
  <fix>3d</fix>
</trkpt>
<trkpt lat="-27.2737545" lon="151.2898455">
  <ele>372.77</ele>
  <time>2026-09-01T19:58:48Z</time>
  <course>106.43</course>
  <speed>4.276564041377143</speed>
  <fix>3d</fix>
</trkpt>
<trkpt lat="-27.2737534" lon="151.2898414">
  <ele>373.05</ele>
  <time>2026-09-01T19:58:48Z</time>
  <course>105.08</course>
  <speed>4.91</speed>
  <fix>3d</fix>
</trkpt>
<trkpt lat="-27.2737554" lon="151.2898494">
  <ele>372.59</ele>
  <time>2026-09-01T19:58:48Z</time>
  <course>106.62</course>
  <speed>3.682010320463537</speed>
  <fix>3d</fix>
</trkpt>
<trkpt lat="-27.2737534" lon="151.2898414">
  <ele>373.05</ele>
  <time>2026-09-01T19:58:48Z</time>
  <course>105.08</course>
  <speed>4.91</speed>
  <fix>3d</fix>
</trkpt>
<trkpt lat="-27.2737562" lon="151.2898528">
  <ele>372.41</ele>
  <time>2026-09-01T19:58:48Z</time>
  <course>106.8</course>
  <speed>3.092604080706096</speed>
  <fix>3d</fix>
</trkpt>
<trkpt lat="-27.2737554" lon="151.2898498">
  <ele>372.69</ele>
  <time>2026-09-01T19:58:48Z</time>
  <course>105.0</course>
  <speed>3.72</speed>
  <fix>3d</fix>
</trkpt>
<trkpt lat="-27.2737569" lon="151.2898556">
  <ele>372.25</ele>
  <time>2026-09-01T19:58:48Z</time>
  <course>106.96</course>
  <speed>2.554094751570505</speed>
  <fix>3d</fix>
</trkpt>
<trkpt lat="-27.2737554" lon="151.2898498">
  <ele>372.69</ele>
  <time>2026-09-01T19:58:48Z</time>
  <course>105.0</course>
  <speed>3.72</speed>
  <fix>3d</fix>
</trkpt>
<trkpt lat="-27.2737574" lon="151.2898579">
  <ele>372.12</ele>
  <time>2026-09-01T19:58:48Z</time>
  <course>107.1</course>
  <speed>2.056817930688081</speed>
  <fix>3d</fix>
</trkpt>
<trkpt lat="-27.2737569" lon="151.289856">
  <ele>372.36</ele>
  <time>2026-09-01T19:58:48Z</time>
  <course>105.0</course>
  <speed>2.62</speed>
  <fix>3d</fix>
</trkpt>
<trkpt lat="-27.2737578" lon="151.2898597">
  <ele>372.01</ele>
  <time>2026-09-01T19:58:48Z</time>
  <course>107.2</course>
  <speed>1.62265215003093</speed>
  <fix>3d</fix>
</trkpt>
<trkpt lat="-27.2737569" lon="151.289856">
  <ele>372.36</ele>
  <time>2026-09-01T19:58:48Z</time>
  <course>105.0</course>
  <speed>2.62</speed>
  <fix>3d</fix>
</trkpt>
<trkpt lat="-27.2737581" lon="151.2898612">
  <ele>371.93</ele>
  <time>2026-09-01T19:58:48Z</time>
  <course>107.28</course>
  <speed>1.2419339757008019</speed>
  <fix>3d</fix>
</trkpt>
<trkpt lat="-27.2737579" lon="151.2898602">
  <ele>372.12</ele>
  <time>2026-09-01T19:58:48Z</time>
  <course>105.31</course>
  <speed>1.68</speed>
  <fix>3d</fix>
</trkpt>
<trkpt lat="-27.2737584" lon="151.2898623">
  <ele>371.88</ele>
  <time>2026-09-01T19:58:48Z</time>
  <course>107.34</course>
  <speed>0.9148223871331527</speed>
  <fix>3d</fix>
</trkpt>
<trkpt lat="-27.2737579" lon="151.2898602">
  <ele>372.12</ele>
  <time>2026-09-01T19:58:48Z</time>
  <course>105.31</course>
  <speed>1.68</speed>
  <fix>3d</fix>
</trkpt>
<trkpt lat="-27.2737586" lon="151.2898631">
  <ele>371.85</ele>
  <time>2026-09-01T19:58:48Z</time>
  <course>107.37</course>
  <speed>0.6580273550544841</speed>
  <fix>3d</fix>
</trkpt>
<trkpt lat="-27.2737585" lon="151.2898627">
  <ele>371.99</ele>
  <time>2026-09-01T19:58:48Z</time>
  <course>106.4</course>
  <speed>0.97</speed>
  <fix>3d</fix>
</trkpt>
<trkpt lat="-27.2737588" lon="151.2898636">
  <ele>371.86</ele>
  <time>2026-09-01T19:58:48Z</time>
  <course>107.38</course>
  <speed>0.4427188724235731</speed>
  <fix>3d</fix>
</trkpt>
<trkpt lat="-27.2737585" lon="151.2898627">
  <ele>371.99</ele>
  <time>2026-09-01T19:58:48Z</time>
  <course>106.4</course>
  <speed>0.97</speed>
  <fix>3d</fix>
</trkpt>
<trkpt lat="-27.2737589" lon="151.289864">
  <ele>371.89</ele>
  <time>2026-09-01T19:58:48Z</time>
  <course>107.38</course>
  <speed>0.291547594742265</speed>
  <fix>3d</fix>
</trkpt>
<trkpt lat="-27.2737589" lon="151.2898641">
  <ele>371.96</ele>
  <time>2026-09-01T19:58:48Z</time>
  <course>109.59</course>
  <speed>0.49</speed>
  <fix>3d</fix>
</trkpt>
<trkpt lat="-27.273759" lon="151.2898643">
  <ele>371.94</ele>
  <time>2026-09-01T19:58:48Z</time>
  <course>107.37</course>
  <speed>0.1972308292331602</speed>
  <fix>3d</fix>
</trkpt>
<trkpt lat="-27.2737589" lon="151.2898641">
  <ele>371.96</ele>
  <time>2026-09-01T19:58:48Z</time>
  <course>109.59</course>
  <speed>0.49</speed>
  <fix>3d</fix>
</trkpt>
<trkpt lat="-27.2737591" lon="151.2898645">
  <ele>372.0</ele>
  <time>2026-09-01T19:58:48Z</time>
  <course>107.36</course>
  <speed>0.1345362404707371</speed>
  <fix>3d</fix>
</trkpt>
<trkpt lat="-27.2737592" lon="151.2898647">
  <ele>372.03</ele>
  <time>2026-09-01T19:58:48Z</time>
  <course>118.5</course>
  <speed>0.22</speed>
  <fix>3d</fix>
</trkpt>
<trkpt lat="-27.2737592" lon="151.2898646">
  <ele>372.07</ele>
  <time>2026-09-01T19:58:48Z</time>
  <course>107.37</course>
  <speed>0.09433981132056603</speed>
  <fix>3d</fix>
</trkpt>
<trkpt lat="-27.2737592" lon="151.2898647">
  <ele>372.03</ele>
  <time>2026-09-01T19:58:48Z</time>
  <course>118.5</course>
  <speed>0.22</speed>
  <fix>3d</fix>
</trkpt>
<trkpt lat="-27.2737593" lon="151.2898647">
  <ele>372.15</ele>
  <time>2026-09-01T19:58:48Z</time>
  <course>107.39</course>
  <speed>0.0824621125123532</speed>
  <fix>3d</fix>
</trkpt>
<trkpt lat="-27.2737593" lon="151.289865">
  <ele>372.16</ele>
  <time>2026-09-01T19:58:48Z</time>
  <course>138.66</course>
  <speed>0.1</speed>
  <fix>3d</fix>
</trkpt>
<trkpt lat="-27.2737594" lon="151.2898647">
  <ele>372.23</ele>
  <time>2026-09-01T19:58:48Z</time>
  <course>107.42</course>
  <speed>0.08</speed>
  <fix>3d</fix>
</trkpt>
<trkpt lat="-27.2737593" lon="151.289865">
  <ele>372.16</ele>
  <time>2026-09-01T19:58:48Z</time>
  <course>138.66</course>
  <speed>0.1</speed>
  <fix>3d</fix>
</trkpt>
<trkpt lat="-27.2737594" lon="151.2898648">
  <ele>372.3</ele>
  <time>2026-09-01T19:58:48Z</time>
  <course>107.47</course>
  <speed>0.07</speed>
  <fix>3d</fix>
</trkpt>
<trkpt lat="-27.2737595" lon="151.289865">
  <ele>372.31</ele>
  <time>2026-09-01T19:58:48Z</time>
  <course>165.84</course>
  <speed>0.07</speed>
  <fix>3d</fix>
</trkpt>
<trkpt lat="-27.2737595" lon="151.2898648">
  <ele>372.37</ele>
  <time>2026-09-01T19:58:48Z</time>
  <course>107.53</course>
  <speed>0.07071067811865475</speed>
  <fix>3d</fix>
</trkpt>
<trkpt lat="-27.2737595" lon="151.289865">
  <ele>372.31</ele>
  <time>2026-09-01T19:58:48Z</time>
  <course>165.84</course>
  <speed>0.07</speed>
  <fix>3d</fix>
</trkpt>
<trkpt lat="-27.2737596" lon="151.2898648">
  <ele>372.43</ele>
  <time>2026-09-01T19:58:48Z</time>
  <course>107.59</course>
  <speed>0.07280109889280519</speed>
  <fix>3d</fix>
</trkpt>
<trkpt lat="-27.2737596" lon="151.289865">
  <ele>372.45</ele>
  <time>2026-09-01T19:58:48Z</time>
  <course>186.17</course>
  <speed>0.06</speed>
  <fix>3d</fix>
</trkpt>
<trkpt lat="-27.2737596" lon="151.2898648">
  <ele>372.47</ele>
  <time>2026-09-01T19:58:48Z</time>
  <course>107.62</course>
  <speed>0.07280109889280519</speed>
  <fix>3d</fix>
</trkpt>
<trkpt lat="-27.2737596" lon="151.289865">
  <ele>372.45</ele>
  <time>2026-09-01T19:58:48Z</time>
  <course>186.17</course>
  <speed>0.06</speed>
  <fix>3d</fix>
</trkpt>
<trkpt lat="-27.2737597" lon="151.2898648">
  <ele>372.51</ele>
  <time>2026-09-01T19:58:48Z</time>
  <course>107.61</course>
  <speed>0.07280109889280519</speed>
  <fix>3d</fix>
</trkpt>
<trkpt lat="-27.2737597" lon="151.289865">
  <ele>372.56</ele>
  <time>2026-09-01T19:58:48Z</time>
  <course>193.99</course>
  <speed>0.05</speed>
  <fix>3d</fix>
</trkpt>
<trkpt lat="-27.2737598" lon="151.2898648">
  <ele>372.53</ele>
  <time>2026-09-01T19:58:48Z</time>
  <course>107.57</course>
  <speed>0.08062257748298549</speed>
  <fix>3d</fix>
</trkpt>
<trkpt lat="-27.2737597" lon="151.289865">
  <ele>372.56</ele>
  <time>2026-09-01T19:58:48Z</time>
  <course>193.99</course>
  <speed>0.05</speed>
  <fix>3d</fix>
</trkpt>
<trkpt lat="-27.2737599" lon="151.2898648">
  <ele>372.54</ele>
  <time>2026-09-01T19:58:48Z</time>
  <course>107.49</course>
  <speed>0.08</speed>
  <fix>3d</fix>
</trkpt>
<trkpt lat="-27.2737598" lon="151.289865">
  <ele>372.61</ele>
  <time>2026-09-01T19:58:48Z</time>
  <course>185.74</course>
  <speed>0.05</speed>
  <fix>3d</fix>
</trkpt>
<trkpt lat="-27.2737599" lon="151.2898648">
  <ele>372.55</ele>
  <time>2026-09-01T19:58:48Z</time>
  <course>107.4</course>
  <speed>0.09</speed>
  <fix>3d</fix>
</trkpt>
<trkpt lat="-27.2737598" lon="151.289865">
  <ele>372.61</ele>
  <time>2026-09-01T19:58:48Z</time>
  <course>185.74</course>
  <speed>0.05</speed>
  <fix>3d</fix>
</trkpt>
<trkpt lat="-27.27376" lon="151.2898648">
  <ele>372.54</ele>
  <time>2026-09-01T19:58:48Z</time>
  <course>107.3</course>
  <speed>0.09219544457292887</speed>
  <fix>3d</fix>
</trkpt>
<trkpt lat="-27.2737599" lon="151.289865">
  <ele>372.62</ele>
  <time>2026-09-01T19:58:48Z</time>
  <course>159.89</course>
  <speed>0.06</speed>
  <fix>3d</fix>
</trkpt>
<trkpt lat="-27.2737601" lon="151.2898649">
  <ele>372.52</ele>
  <time>2026-09-01T19:58:48Z</time>
  <course>107.22</course>
  <speed>0.1118033988749895</speed>
  <fix>3d</fix>
</trkpt>
<trkpt lat="-27.2737599" lon="151.289865">
  <ele>372.62</ele>
  <time>2026-09-01T19:58:48Z</time>
  <course>159.89</course>
  <speed>0.06</speed>
  <fix>3d</fix>
</trkpt>
<trkpt lat="-27.2737602" lon="151.289865">
  <ele>372.5</ele>
  <time>2026-09-01T19:58:48Z</time>
  <course>107.16</course>
  <speed>0.13601470508735444</speed>
  <fix>3d</fix>
</trkpt>
<trkpt lat="-27.27376" lon="151.2898651">
  <ele>372.6</ele>
  <time>2026-09-01T19:58:48Z</time>
  <course>133.58</course>
  <speed>0.09</speed>
  <fix>3d</fix>
</trkpt>
<trkpt lat="-27.2737602" lon="151.2898651">
  <ele>372.48</ele>
  <time>2026-09-01T19:58:48Z</time>
  <course>107.14</course>
  <speed>0.1697056274847714</speed>
  <fix>3d</fix>
</trkpt>
<trkpt lat="-27.27376" lon="151.2898651">
  <ele>372.6</ele>
  <time>2026-09-01T19:58:48Z</time>
  <course>133.58</course>
  <speed>0.09</speed>
  <fix>3d</fix>
</trkpt>
<trkpt lat="-27.2737603" lon="151.2898653">
  <ele>372.45</ele>
  <time>2026-09-01T19:58:48Z</time>
  <course>107.13</course>
  <speed>0.20615528128088303</speed>
  <fix>3d</fix>
</trkpt>
<trkpt lat="-27.2737601" lon="151.2898653">
  <ele>372.56</ele>
  <time>2026-09-01T19:58:48Z</time>
  <course>119.22</course>
  <speed>0.16</speed>
  <fix>3d</fix>
</trkpt>
<trkpt lat="-27.2737604" lon="151.2898655">
  <ele>372.43</ele>
  <time>2026-09-01T19:58:48Z</time>
  <course>107.15</course>
  <speed>0.25238858928247926</speed>
  <fix>3d</fix>
</trkpt>
<trkpt lat="-27.2737601" lon="151.2898653">
  <ele>372.56</ele>
  <time>2026-09-01T19:58:48Z</time>
  <course>119.22</course>
  <speed>0.16</speed>
  <fix>3d</fix>
</trkpt>
<trkpt lat="-27.2737606" lon="151.2898657">
  <ele>372.4</ele>
  <time>2026-09-01T19:58:48Z</time>
  <course>107.18</course>
  <speed>0.30016662039607267</speed>
  <fix>3d</fix>
</trkpt>
<trkpt lat="-27.2737603" lon="151.2898657">
  <ele>372.51</ele>
  <time>2026-09-01T19:58:48Z</time>
  <course>112.26</course>
  <speed>0.24</speed>
  <fix>3d</fix>
</trkpt>
<trkpt lat="-27.2737607" lon="151.289866">
  <ele>372.39</ele>
  <time>2026-09-01T19:58:48Z</time>
  <course>107.22</course>
  <speed>0.3488552708502482</speed>
  <fix>3d</fix>
</trkpt>
<trkpt lat="-27.2737603" lon="151.2898657">
  <ele>372.51</ele>
  <time>2026-09-01T19:58:48Z</time>
  <course>112.26</course>
  <speed>0.24</speed>
  <fix>3d</fix>
</trkpt>
<trkpt lat="-27.2737608" lon="151.2898664">
  <ele>372.37</ele>
  <time>2026-09-01T19:58:48Z</time>
  <course>107.24</course>
  <speed>0.4114608122288197</speed>
  <fix>3d</fix>
</trkpt>
<trkpt lat="-27.2737605" lon="151.2898663">
  <ele>372.47</ele>
  <time>2026-09-01T19:58:48Z</time>
  <course>108.63</course>
  <speed>0.35</speed>
  <fix>3d</fix>
</trkpt>
<trkpt lat="-27.2737609" lon="151.2898668">
  <ele>372.36</ele>
  <time>2026-09-01T19:58:48Z</time>
  <course>107.26</course>
  <speed>0.47010637094172636</speed>
  <fix>3d</fix>
</trkpt>
<trkpt lat="-27.2737605" lon="151.2898663">
  <ele>372.47</ele>
  <time>2026-09-01T19:58:48Z</time>
  <course>108.63</course>
  <speed>0.35</speed>
  <fix>3d</fix>
</trkpt>
<trkpt lat="-27.2737611" lon="151.2898673">
  <ele>372.36</ele>
  <time>2026-09-01T19:58:48Z</time>
  <course>107.27</course>
  <speed>0.5292447448959696</speed>
  <fix>3d</fix>
</trkpt>
<trkpt lat="-27.2737606" lon="151.2898671">
  <ele>372.45</ele>
  <time>2026-09-01T19:58:48Z</time>
  <course>106.59</course>
  <speed>0.48</speed>
  <fix>3d</fix>
</trkpt>
<trkpt lat="-27.2737612" lon="151.2898679">
  <ele>372.35</ele>
  <time>2026-09-01T19:58:48Z</time>
  <course>107.26</course>
  <speed>0.6016643582596529</speed>
  <fix>3d</fix>
</trkpt>
<trkpt lat="-27.2737606" lon="151.2898671">
  <ele>372.45</ele>
  <time>2026-09-01T19:58:48Z</time>
  <course>106.59</course>
  <speed>0.48</speed>
  <fix>3d</fix>
</trkpt>
<trkpt lat="-27.2737614" lon="151.2898685">
  <ele>372.36</ele>
  <time>2026-09-01T19:58:48Z</time>
  <course>107.25</course>
  <speed>0.6612866246946176</speed>
  <fix>3d</fix>
</trkpt>
<trkpt lat="-27.2737609" lon="151.2898682">
  <ele>372.45</ele>
  <time>2026-09-01T19:58:48Z</time>
  <course>105.34</course>
  <speed>0.6</speed>
  <fix>3d</fix>
</trkpt>
<trkpt lat="-27.2737616" lon="151.2898692">
  <ele>372.36</ele>
  <time>2026-09-01T19:58:48Z</time>
  <course>107.23</course>
  <speed>0.7211102550927978</speed>
  <fix>3d</fix>
</trkpt>
<trkpt lat="-27.2737609" lon="151.2898682">
  <ele>372.45</ele>
  <time>2026-09-01T19:58:48Z</time>
  <course>105.34</course>
  <speed>0.6</speed>
  <fix>3d</fix>
</trkpt>
<trkpt lat="-27.2737618" lon="151.2898699">
  <ele>372.37</ele>
  <time>2026-09-01T19:58:48Z</time>
  <course>107.22</course>
  <speed>0.7843468620451032</speed>
  <fix>3d</fix>
</trkpt>
<trkpt lat="-27.2737612" lon="151.2898695">
  <ele>372.45</ele>
  <time>2026-09-01T19:58:48Z</time>
  <course>104.55</course>
  <speed>0.73</speed>
  <fix>3d</fix>
</trkpt>
<trkpt lat="-27.273762" lon="151.2898707">
  <ele>372.38</ele>
  <time>2026-09-01T19:58:48Z</time>
  <course>107.2</course>
  <speed>0.8443340571124678</speed>
  <fix>3d</fix>
</trkpt>
<trkpt lat="-27.2737612" lon="151.2898695">
  <ele>372.45</ele>
  <time>2026-09-01T19:58:48Z</time>
  <course>104.55</course>
  <speed>0.73</speed>
  <fix>3d</fix>
</trkpt>
<trkpt lat="-27.2737622" lon="151.2898716">
  <ele>372.4</ele>
  <time>2026-09-01T19:58:48Z</time>
  <course>107.19</course>
  <speed>0.904433524367601</speed>
  <fix>3d</fix>
</trkpt>
<trkpt lat="-27.2737616" lon="151.289871">
  <ele>372.47</ele>
  <time>2026-09-01T19:58:48Z</time>
  <course>104.04</course>
  <speed>0.86</speed>
  <fix>3d</fix>
</trkpt>
<trkpt lat="-27.2737624" lon="151.2898725">
  <ele>372.41</ele>
  <time>2026-09-01T19:58:48Z</time>
  <course>107.18</course>
  <speed>0.9550916186418976</speed>
  <fix>3d</fix>
</trkpt>
<trkpt lat="-27.2737616" lon="151.289871">
  <ele>372.47</ele>
  <time>2026-09-01T19:58:48Z</time>
  <course>104.04</course>
  <speed>0.86</speed>
  <fix>3d</fix>
</trkpt>
<trkpt lat="-27.2737626" lon="151.2898735">
  <ele>372.42</ele>
  <time>2026-09-01T19:58:48Z</time>
  <course>107.18</course>
  <speed>1.0057832768544126</speed>
  <fix>3d</fix>
</trkpt>
<trkpt lat="-27.273762" lon="151.2898728">
  <ele>372.5</ele>
  <time>2026-09-01T19:58:48Z</time>
  <course>103.72</course>
  <speed>0.98</speed>
  <fix>3d</fix>
</trkpt>
<trkpt lat="-27.2737628" lon="151.2898745">
  <ele>372.43</ele>
  <time>2026-09-01T19:58:48Z</time>
  <course>107.17</course>
  <speed>1.0565036677645754</speed>
  <fix>3d</fix>
</trkpt>
<trkpt lat="-27.273762" lon="151.2898728">
  <ele>372.5</ele>
  <time>2026-09-01T19:58:48Z</time>
  <course>103.72</course>
  <speed>0.98</speed>
  <fix>3d</fix>
</trkpt>
<trkpt lat="-27.2737631" lon="151.2898756">
  <ele>372.44</ele>
  <time>2026-09-01T19:58:48Z</time>
  <course>107.17</course>
  <speed>1.1072488428533127</speed>
  <fix>3d</fix>
</trkpt>
<trkpt lat="-27.2737624" lon="151.2898749">
  <ele>372.52</ele>
  <time>2026-09-01T19:58:48Z</time>
  <course>103.54</course>
  <speed>1.08</speed>
  <fix>3d</fix>
</trkpt>
<trkpt lat="-27.2737633" lon="151.2898767">
  <ele>372.45</ele>
  <time>2026-09-01T19:58:48Z</time>
  <course>107.17</course>
  <speed>1.1484337159801605</speed>
  <fix>3d</fix>
</trkpt>
<trkpt lat="-27.2737624" lon="151.2898749">
  <ele>372.52</ele>
  <time>2026-09-01T19:58:48Z</time>
  <course>103.54</course>
  <speed>1.08</speed>
  <fix>3d</fix>
</trkpt>
<trkpt lat="-27.2737636" lon="151.2898779">
  <ele>372.45</ele>
  <time>2026-09-01T19:58:48Z</time>
  <course>107.17</course>
  <speed>1.1896217886370442</speed>
  <fix>3d</fix>
</trkpt>
<trkpt lat="-27.2737629" lon="151.2898771">
  <ele>372.53</ele>
  <time>2026-09-01T19:58:48Z</time>
  <course>103.43</course>
  <speed>1.18</speed>
  <fix>3d</fix>
</trkpt>
<trkpt lat="-27.2737638" lon="151.2898791">
  <ele>372.45</ele>
  <time>2026-09-01T19:58:48Z</time>
  <course>107.17</course>
  <speed>1.2308127396155761</speed>
  <fix>3d</fix>
</trkpt>
<trkpt lat="-27.2737629" lon="151.2898771">
  <ele>372.53</ele>
  <time>2026-09-01T19:58:48Z</time>
  <course>103.43</course>
  <speed>1.18</speed>
  <fix>3d</fix>
</trkpt>
<trkpt lat="-27.2737641" lon="151.2898803">
  <ele>372.45</ele>
  <time>2026-09-01T19:58:48Z</time>
  <course>107.17</course>
  <speed>1.2596031120952345</speed>
  <fix>3d</fix>
</trkpt>
<trkpt lat="-27.2737634" lon="151.2898795">
  <ele>372.54</ele>
  <time>2026-09-01T19:58:48Z</time>
  <course>103.4</course>
  <speed>1.26</speed>
  <fix>3d</fix>
</trkpt>
<trkpt lat="-27.2737643" lon="151.2898816">
  <ele>372.45</ele>
  <time>2026-09-01T19:58:48Z</time>
  <course>107.17</course>
  <speed>1.2912009913255178</speed>
  <fix>3d</fix>
</trkpt>
<trkpt lat="-27.2737634" lon="151.2898795">
  <ele>372.54</ele>
  <time>2026-09-01T19:58:48Z</time>
  <course>103.4</course>
  <speed>1.26</speed>
  <fix>3d</fix>
</trkpt>
<trkpt lat="-27.2737646" lon="151.2898829">
  <ele>372.45</ele>
  <time>2026-09-01T19:58:48Z</time>
  <course>107.17</course>
  <speed>1.313202193114221</speed>
  <fix>3d</fix>
</trkpt>
<trkpt lat="-27.273764" lon="151.2898821">
  <ele>372.54</ele>
  <time>2026-09-01T19:58:48Z</time>
  <course>103.43</course>
  <speed>1.32</speed>
  <fix>3d</fix>
</trkpt>
<trkpt lat="-27.2737649" lon="151.2898843">
  <ele>372.45</ele>
  <time>2026-09-01T19:58:48Z</time>
  <course>107.16</course>
  <speed>1.3324038426843419</speed>
  <fix>3d</fix>
</trkpt>
<trkpt lat="-27.273764" lon="151.2898821">
  <ele>372.54</ele>
  <time>2026-09-01T19:58:48Z</time>
  <course>103.43</course>
  <speed>1.32</speed>
  <fix>3d</fix>
</trkpt>
<trkpt lat="-27.2737652" lon="151.2898856">
  <ele>372.45</ele>
  <time>2026-09-01T19:58:48Z</time>
  <course>107.16</course>
  <speed>1.3420134127496641</speed>
  <fix>3d</fix>
</trkpt>
<trkpt lat="-27.2737646" lon="151.2898847">
  <ele>372.53</ele>
  <time>2026-09-01T19:58:48Z</time>
  <course>103.49</course>
  <speed>1.36</speed>
  <fix>3d</fix>
</trkpt>
<trkpt lat="-27.2737655" lon="151.289887">
  <ele>372.44</ele>
  <time>2026-09-01T19:58:48Z</time>
  <course>107.15</course>
  <speed>1.354400236266961</speed>
  <fix>3d</fix>
</trkpt>
<trkpt lat="-27.2737646" lon="151.2898847">
  <ele>372.53</ele>
  <time>2026-09-01T19:58:48Z</time>
  <course>103.49</course>
  <speed>1.36</speed>
  <fix>3d</fix>
</trkpt>
<trkpt lat="-27.2737658" lon="151.2898883">
  <ele>372.44</ele>
  <time>2026-09-01T19:58:48Z</time>
  <course>107.14</course>
  <speed>1.3640014662748718</speed>
  <fix>3d</fix>
</trkpt>
<trkpt lat="-27.2737652" lon="151.2898874">
  <ele>372.53</ele>
  <time>2026-09-01T19:58:48Z</time>
  <course>103.58</course>
  <speed>1.39</speed>
  <fix>3d</fix>
</trkpt>
<trkpt lat="-27.2737661" lon="151.2898897">
  <ele>372.43</ele>
  <time>2026-09-01T19:58:48Z</time>
  <course>107.14</course>
  <speed>1.3640014662748718</speed>
  <fix>3d</fix>
</trkpt>
<trkpt lat="-27.2737652" lon="151.2898874">
  <ele>372.53</ele>
  <time>2026-09-01T19:58:48Z</time>
  <course>103.58</course>
  <speed>1.39</speed>
  <fix>3d</fix>
</trkpt>
<trkpt lat="-27.2737664" lon="151.289891">
  <ele>372.42</ele>
  <time>2026-09-01T19:58:48Z</time>
  <course>107.14</course>
  <speed>1.354400236266961</speed>
  <fix>3d</fix>
</trkpt>
<trkpt lat="-27.2737658" lon="151.2898902">
  <ele>372.52</ele>
  <time>2026-09-01T19:58:48Z</time>
  <course>103.71</course>
  <speed>1.39</speed>
  <fix>3d</fix>
</trkpt>
<trkpt lat="-27.2737667" lon="151.2898924">
  <ele>372.41</ele>
  <time>2026-09-01T19:58:48Z</time>
  <course>107.13</course>
  <speed>1.3420134127496641</speed>
  <fix>3d</fix>
</trkpt>
<trkpt lat="-27.2737658" lon="151.2898902">
  <ele>372.52</ele>
  <time>2026-09-01T19:58:48Z</time>
  <course>103.71</course>
  <speed>1.39</speed>
  <fix>3d</fix>
</trkpt>
<trkpt lat="-27.273767" lon="151.2898938">
  <ele>372.38</ele>
  <time>2026-09-01T19:58:48Z</time>
  <course>107.14</course>
  <speed>1.3324038426843419</speed>
  <fix>3d</fix>
</trkpt>
<trkpt lat="-27.2737664" lon="151.2898929">
  <ele>372.49</ele>
  <time>2026-09-01T19:58:48Z</time>
  <course>103.85</course>
  <speed>1.38</speed>
  <fix>3d</fix>
</trkpt>
<trkpt lat="-27.2737673" lon="151.2898951">
  <ele>372.34</ele>
  <time>2026-09-01T19:58:48Z</time>
  <course>107.14</course>
  <speed>1.322800060477773</speed>
  <fix>3d</fix>
</trkpt>
<trkpt lat="-27.2737664" lon="151.2898929">
  <ele>372.49</ele>
  <time>2026-09-01T19:58:48Z</time>
  <course>103.85</course>
  <speed>1.38</speed>
  <fix>3d</fix>
</trkpt>
<trkpt lat="-27.2737676" lon="151.2898964">
  <ele>372.29</ele>
  <time>2026-09-01T19:58:48Z</time>
  <course>107.14</course>
  <speed>1.313202193114221</speed>
  <fix>3d</fix>
</trkpt>
<trkpt lat="-27.2737669" lon="151.2898956">
  <ele>372.41</ele>
  <time>2026-09-01T19:58:48Z</time>
  <course>104.03</course>
  <speed>1.36</speed>
  <fix>3d</fix>
</trkpt>
<trkpt lat="-27.2737679" lon="151.2898978">
  <ele>372.21</ele>
  <time>2026-09-01T19:58:48Z</time>
  <course>107.14</course>
  <speed>1.2816005617976296</speed>
  <fix>3d</fix>
</trkpt>
<trkpt lat="-27.2737669" lon="151.2898956">
  <ele>372.41</ele>
  <time>2026-09-01T19:58:48Z</time>
  <course>104.03</course>
  <speed>1.36</speed>
  <fix>3d</fix>
</trkpt>
<trkpt lat="-27.2737681" lon="151.289899">
  <ele>372.12</ele>
  <time>2026-09-01T19:58:48Z</time>
  <course>107.14</course>
  <speed>1.25</speed>
  <fix>3d</fix>
</trkpt>
<trkpt lat="-27.2737675" lon="151.2898983">
  <ele>372.28</ele>
  <time>2026-09-01T19:58:48Z</time>
  <course>104.23</course>
  <speed>1.32</speed>
  <fix>3d</fix>
</trkpt>
<trkpt lat="-27.2737684" lon="151.2899003">
  <ele>372.0</ele>
  <time>2026-09-01T19:58:48Z</time>
  <course>107.14</course>
  <speed>1.2088010589009262</speed>
  <fix>3d</fix>
</trkpt>
<trkpt lat="-27.2737675" lon="151.2898983">
  <ele>372.28</ele>
  <time>2026-09-01T19:58:48Z</time>
  <course>104.23</course>
  <speed>1.32</speed>
  <fix>3d</fix>
</trkpt>
<trkpt lat="-27.2737687" lon="151.2899015">
  <ele>371.87</ele>
  <time>2026-09-01T19:58:48Z</time>
  <course>107.14</course>
  <speed>1.158015543937127</speed>
  <fix>3d</fix>
</trkpt>
<trkpt lat="-27.2737681" lon="151.2899008">
  <ele>372.08</ele>
  <time>2026-09-01T19:58:48Z</time>
  <course>104.43</course>
  <speed>1.24</speed>
  <fix>3d</fix>
</trkpt>
<trkpt lat="-27.2737689" lon="151.2899026">
  <ele>371.73</ele>
  <time>2026-09-01T19:58:48Z</time>
  <course>107.13</course>
  <speed>1.097679370308106</speed>
  <fix>3d</fix>
</trkpt>
<trkpt lat="-27.2737681" lon="151.2899008">
  <ele>372.08</ele>
  <time>2026-09-01T19:58:48Z</time>
  <course>104.43</course>
  <speed>1.24</speed>
  <fix>3d</fix>
</trkpt>
<trkpt lat="-27.2737692" lon="151.2899037">
  <ele>371.58</ele>
  <time>2026-09-01T19:58:48Z</time>
  <course>107.13</course>
  <speed>1.0374005976477938</speed>
  <fix>3d</fix>
</trkpt>
<trkpt lat="-27.2737686" lon="151.2899031">
  <ele>371.81</ele>
  <time>2026-09-01T19:58:48Z</time>
  <course>104.71</course>
  <speed>1.14</speed>
  <fix>3d</fix>
</trkpt>
<trkpt lat="-27.2737694" lon="151.2899047">
  <ele>371.42</ele>
  <time>2026-09-01T19:58:48Z</time>
  <course>107.13</course>
  <speed>0.9741663102366043</speed>
  <fix>3d</fix>
</trkpt>
<trkpt lat="-27.2737686" lon="151.2899031">
  <ele>371.81</ele>
  <time>2026-09-01T19:58:48Z</time>
  <course>104.71</course>
  <speed>1.14</speed>
  <fix>3d</fix>
</trkpt>
<trkpt lat="-27.2737696" lon="151.2899057">
  <ele>371.25</ele>
  <time>2026-09-01T19:58:48Z</time>
  <course>107.14</course>
  <speed>0.9139474820797966</speed>
  <fix>3d</fix>
</trkpt>
<trkpt lat="-27.2737691" lon="151.2899052">
  <ele>371.49</ele>
  <time>2026-09-01T19:58:48Z</time>
  <course>105.08</course>
  <speed>1.01</speed>
  <fix>3d</fix>
</trkpt>
<trkpt lat="-27.2737698" lon="151.2899066">
  <ele>371.09</ele>
  <time>2026-09-01T19:58:48Z</time>
  <course>107.14</course>
  <speed>0.8411896337925236</speed>
  <fix>3d</fix>
</trkpt>
<trkpt lat="-27.2737691" lon="151.2899052">
  <ele>371.49</ele>
  <time>2026-09-01T19:58:48Z</time>
  <course>105.08</course>
  <speed>1.01</speed>
  <fix>3d</fix>
</trkpt>
<trkpt lat="-27.27377" lon="151.2899074">
  <ele>370.92</ele>
  <time>2026-09-01T19:58:48Z</time>
  <course>107.15</course>
  <speed>0.7684399781375251</speed>
  <fix>3d</fix>
</trkpt>
<trkpt lat="-27.2737696" lon="151.2899071">
  <ele>371.16</ele>
  <time>2026-09-01T19:58:48Z</time>
  <course>105.59</course>
  <speed>0.88</speed>
  <fix>3d</fix>
</trkpt>
<trkpt lat="-27.2737702" lon="151.2899082">
  <ele>370.75</ele>
  <time>2026-09-01T19:58:48Z</time>
  <course>107.17</course>
  <speed>0.6989277502002621</speed>
  <fix>3d</fix>
</trkpt>
<trkpt lat="-27.2737696" lon="151.2899071">
  <ele>371.16</ele>
  <time>2026-09-01T19:58:48Z</time>
  <course>105.59</course>
  <speed>0.88</speed>
  <fix>3d</fix>
</trkpt>
<trkpt lat="-27.2737704" lon="151.2899088">
  <ele>370.58</ele>
  <time>2026-09-01T19:58:48Z</time>
  <course>107.19</course>
  <speed>0.6262587324740471</speed>
  <fix>3d</fix>
</trkpt>
<trkpt lat="-27.27377" lon="151.2899087">
  <ele>370.83</ele>
  <time>2026-09-01T19:58:48Z</time>
  <course>106.29</course>
  <speed>0.74</speed>
  <fix>3d</fix>
</trkpt>
<trkpt lat="-27.2737705" lon="151.2899095">
  <ele>370.42</ele>
  <time>2026-09-01T19:58:48Z</time>
  <course>107.21</course>
  <speed>0.5571355310873648</speed>
  <fix>3d</fix>
</trkpt>
<trkpt lat="-27.27377" lon="151.2899087">
  <ele>370.83</ele>
  <time>2026-09-01T19:58:48Z</time>
  <course>106.29</course>
  <speed>0.74</speed>
  <fix>3d</fix>
</trkpt>
<trkpt lat="-27.2737707" lon="151.28991">
  <ele>370.25</ele>
  <time>2026-09-01T19:58:48Z</time>
  <course>107.23</course>
  <speed>0.48466483264210536</speed>
  <fix>3d</fix>
</trkpt>
<trkpt lat="-27.2737703" lon="151.28991">
  <ele>370.51</ele>
  <time>2026-09-01T19:58:48Z</time>
  <course>107.28</course>
  <speed>0.6</speed>
  <fix>3d</fix>
</trkpt>
<trkpt lat="-27.2737708" lon="151.2899105">
  <ele>370.1</ele>
  <time>2026-09-01T19:58:48Z</time>
  <course>107.25</course>
  <speed>0.4215447781671598</speed>
  <fix>3d</fix>
</trkpt>
<trkpt lat="-27.2737703" lon="151.28991">
  <ele>370.51</ele>
  <time>2026-09-01T19:58:48Z</time>
  <course>107.28</course>
  <speed>0.6</speed>
  <fix>3d</fix>
</trkpt>
<trkpt lat="-27.2737709" lon="151.2899109">
  <ele>369.94</ele>
  <time>2026-09-01T19:58:48Z</time>
  <course>107.27</course>
  <speed>0.3624913792078372</speed>
  <fix>3d</fix>
</trkpt>
<trkpt lat="-27.2737706" lon="151.289911">
  <ele>370.19</ele>
  <time>2026-09-01T19:58:48Z</time>
  <course>108.72</course>
  <speed>0.46</speed>
  <fix>3d</fix>
</trkpt>
<trkpt lat="-27.273771" lon="151.2899113">
  <ele>369.79</ele>
  <time>2026-09-01T19:58:48Z</time>
  <course>107.29</course>
  <speed>0.29966648127543394</speed>
  <fix>3d</fix>
</trkpt>
<trkpt lat="-27.2737706" lon="151.289911">
  <ele>370.19</ele>
  <time>2026-09-01T19:58:48Z</time>
  <course>108.72</course>
  <speed>0.46</speed>
  <fix>3d</fix>
</trkpt>
<trkpt lat="-27.2737711" lon="151.2899115">
  <ele>369.64</ele>
  <time>2026-09-01T19:58:48Z</time>
  <course>107.32</course>
  <speed>0.24186773244895649</speed>
  <fix>3d</fix>
</trkpt>
<trkpt lat="-27.2737709" lon="151.2899117">
  <ele>369.89</ele>
  <time>2026-09-01T19:58:48Z</time>
  <course>110.97</course>
  <speed>0.33</speed>
  <fix>3d</fix>
</trkpt>
<trkpt lat="-27.2737712" lon="151.2899118">
  <ele>369.5</ele>
  <time>2026-09-01T19:58:48Z</time>
  <course>107.35</course>
  <speed>0.194164878389476</speed>
  <fix>3d</fix>
</trkpt>
<trkpt lat="-27.2737709" lon="151.2899117">
  <ele>369.89</ele>
  <time>2026-09-01T19:58:48Z</time>
  <course>110.97</course>
  <speed>0.33</speed>
  <fix>3d</fix>
</trkpt>
<trkpt lat="-27.2737713" lon="151.2899119">
  <ele>369.36</ele>
  <time>2026-09-01T19:58:48Z</time>
  <course>107.4</course>
  <speed>0.1345362404707371</speed>
  <fix>3d</fix>
</trkpt>
<trkpt lat="-27.2737711" lon="151.2899122">
  <ele>369.61</ele>
  <time>2026-09-01T19:58:48Z</time>
  <course>114.66</course>
  <speed>0.22</speed>
  <fix>3d</fix>
</trkpt>
<trkpt lat="-27.2737713" lon="151.2899121">
  <ele>369.22</ele>
  <time>2026-09-01T19:58:48Z</time>
  <course>107.47</course>
  <speed>0.1</speed>
  <fix>3d</fix>
</trkpt>
<trkpt lat="-27.2737711" lon="151.2899122">
  <ele>369.61</ele>
  <time>2026-09-01T19:58:48Z</time>
  <course>114.66</course>
  <speed>0.22</speed>
  <fix>3d</fix>
</trkpt>
<trkpt lat="-27.2737714" lon="151.2899122">
  <ele>369.08</ele>
  <time>2026-09-01T19:58:48Z</time>
  <course>107.6</course>
  <speed>0.0632455532033676</speed>
  <fix>3d</fix>
</trkpt>
<trkpt lat="-27.2737712" lon="151.2899125">
  <ele>369.33</ele>
  <time>2026-09-01T19:58:48Z</time>
  <course>120.76</course>
  <speed>0.12</speed>
  <fix>3d</fix>
</trkpt>
<trkpt lat="-27.2737714" lon="151.2899122">
  <ele>368.95</ele>
  <time>2026-09-01T19:58:48Z</time>
  <course>107.87</course>
  <speed>0.0316227766016838</speed>
  <fix>3d</fix>
</trkpt>
<trkpt lat="-27.2737712" lon="151.2899125">
  <ele>369.33</ele>
  <time>2026-09-01T19:58:48Z</time>
  <course>120.76</course>
  <speed>0.12</speed>
  <fix>3d</fix>
</trkpt>
<trkpt lat="-27.2737714" lon="151.2899122">
  <ele>368.81</ele>
  <time>2026-09-01T19:58:48Z</time>
  <course>108.37</course>
  <speed>0.04</speed>
  <fix>3d</fix>
</trkpt>
<trkpt lat="-27.2737713" lon="151.2899127">
  <ele>369.06</ele>
  <time>2026-09-01T19:58:48Z</time>
  <course>121.47</course>
  <speed>0.03</speed>
  <fix>3d</fix>
</trkpt>
<trkpt lat="-27.2737714" lon="151.2899122">
  <ele>368.68</ele>
  <time>2026-09-01T19:58:49Z</time>
  <course>108.84</course>
  <speed>0.07071067811865475</speed>
  <fix>3d</fix>
</trkpt>
<trkpt lat="-27.2737713" lon="151.2899127">
  <ele>369.06</ele>
  <time>2026-09-01T19:58:49Z</time>
  <course>121.47</course>
  <speed>0.03</speed>
  <fix>3d</fix>
</trkpt>
<trkpt lat="-27.2737714" lon="151.2899122">
  <ele>368.54</ele>
  <time>2026-09-01T19:58:49Z</time>
  <course>109.13</course>
  <speed>0.1019803902718557</speed>
  <fix>3d</fix>
</trkpt>
<trkpt lat="-27.2737713" lon="151.2899127">
  <ele>368.78</ele>
  <time>2026-09-01T19:58:49Z</time>
  <course>306.21</course>
  <speed>0.03</speed>
  <fix>3d</fix>
</trkpt>
<trkpt lat="-27.2737714" lon="151.2899122">
  <ele>368.4</ele>
  <time>2026-09-01T19:58:49Z</time>
  <course>109.24</course>
  <speed>0.12369316876852982</speed>
  <fix>3d</fix>
</trkpt>
<trkpt lat="-27.2737713" lon="151.2899127">
  <ele>368.78</ele>
  <time>2026-09-01T19:58:49Z</time>
  <course>306.21</course>
  <speed>0.03</speed>
  <fix>3d</fix>
</trkpt>
<trkpt lat="-27.2737714" lon="151.2899121">
  <ele>368.25</ele>
  <time>2026-09-01T19:58:49Z</time>
  <course>109.22</course>
  <speed>0.14560219778561037</speed>
  <fix>3d</fix>
</trkpt>
<trkpt lat="-27.2737713" lon="151.2899126">
  <ele>368.51</ele>
  <time>2026-09-01T19:58:49Z</time>
  <course>298.34</course>
  <speed>0.09</speed>
  <fix>3d</fix>
</trkpt>
<trkpt lat="-27.2737713" lon="151.289912">
  <ele>368.11</ele>
  <time>2026-09-01T19:58:49Z</time>
  <course>109.1</course>
  <speed>0.1676305461424021</speed>
  <fix>3d</fix>
</trkpt>
<trkpt lat="-27.2737713" lon="151.2899126">
  <ele>368.51</ele>
  <time>2026-09-01T19:58:49Z</time>
  <course>298.34</course>
  <speed>0.09</speed>
  <fix>3d</fix>
</trkpt>
<trkpt lat="-27.2737712" lon="151.2899118">
  <ele>367.96</ele>
  <time>2026-09-01T19:58:49Z</time>
  <course>108.92</course>
  <speed>0.18973665961010278</speed>
  <fix>3d</fix>
</trkpt>
<trkpt lat="-27.2737712" lon="151.2899124">
  <ele>368.22</ele>
  <time>2026-09-01T19:58:49Z</time>
  <course>296.08</course>
  <speed>0.14</speed>
  <fix>3d</fix>
</trkpt>
<trkpt lat="-27.2737712" lon="151.2899117">
  <ele>367.81</ele>
  <time>2026-09-01T19:58:49Z</time>
  <course>108.73</course>
  <speed>0.19924858845171275</speed>
  <fix>3d</fix>
</trkpt>
<trkpt lat="-27.2737712" lon="151.2899124">
  <ele>368.22</ele>
  <time>2026-09-01T19:58:49Z</time>
  <course>296.08</course>
  <speed>0.14</speed>
  <fix>3d</fix>
</trkpt>
<trkpt lat="-27.2737711" lon="151.2899115">
  <ele>367.66</ele>
  <time>2026-09-01T19:58:49Z</time>
  <course>108.55</course>
  <speed>0.21840329667841554</speed>
  <fix>3d</fix>
</trkpt>
<trkpt lat="-27.2737711" lon="151.2899122">
  <ele>367.94</ele>
  <time>2026-09-01T19:58:49Z</time>
  <course>294.63</course>
  <speed>0.17</speed>
  <fix>3d</fix>
</trkpt>
<trkpt lat="-27.273771" lon="151.2899114">
  <ele>367.51</ele>
  <time>2026-09-01T19:58:49Z</time>
  <course>108.4</course>
  <speed>0.22803508501982758</speed>
  <fix>3d</fix>
</trkpt>
<trkpt lat="-27.2737711" lon="151.2899122">
  <ele>367.94</ele>
  <time>2026-09-01T19:58:49Z</time>
  <course>294.63</course>
  <speed>0.17</speed>
  <fix>3d</fix>
</trkpt>
<trkpt lat="-27.273771" lon="151.2899112">
  <ele>367.37</ele>
  <time>2026-09-01T19:58:49Z</time>
  <course>108.31</course>
  <speed>0.23769728648009425</speed>
  <fix>3d</fix>
</trkpt>
<trkpt lat="-27.2737709" lon="151.2899118">
  <ele>367.65</ele>
  <time>2026-09-01T19:58:49Z</time>
  <course>293.7</course>
  <speed>0.2</speed>
  <fix>3d</fix>
</trkpt>
<trkpt lat="-27.2737709" lon="151.289911">
  <ele>367.22</ele>
  <time>2026-09-01T19:58:49Z</time>
  <course>108.27</course>
  <speed>0.24515301344262524</speed>
  <fix>3d</fix>
</trkpt>
<trkpt lat="-27.2737709" lon="151.2899118">
  <ele>367.65</ele>
  <time>2026-09-01T19:58:49Z</time>
  <course>293.7</course>
  <speed>0.2</speed>
  <fix>3d</fix>
</trkpt>
<trkpt lat="-27.2737709" lon="151.2899108">
  <ele>367.07</ele>
  <time>2026-09-01T19:58:49Z</time>
  <course>108.26</course>
  <speed>0.25</speed>
  <fix>3d</fix>
</trkpt>
<trkpt lat="-27.2737708" lon="151.2899114">
  <ele>367.35</ele>
  <time>2026-09-01T19:58:49Z</time>
  <course>293.17</course>
  <speed>0.22</speed>
  <fix>3d</fix>
</trkpt>
<trkpt lat="-27.2737708" lon="151.2899106">
  <ele>366.92</ele>
  <time>2026-09-01T19:58:49Z</time>
  <course>108.29</course>
  <speed>0.25</speed>
  <fix>3d</fix>
</trkpt>
<trkpt lat="-27.2737708" lon="151.2899114">
  <ele>367.35</ele>
  <time>2026-09-01T19:58:49Z</time>
  <course>293.17</course>
  <speed>0.22</speed>
  <fix>3d</fix>
</trkpt>
<trkpt lat="-27.2737707" lon="151.2899104">
  <ele>366.76</ele>
  <time>2026-09-01T19:58:49Z</time>
  <course>108.37</course>
  <speed>0.2596150997149434</speed>
  <fix>3d</fix>
</trkpt>
<trkpt lat="-27.2737706" lon="151.289911">
  <ele>367.05</ele>
  <time>2026-09-01T19:58:49Z</time>
  <course>293.09</course>
  <speed>0.23</speed>
  <fix>3d</fix>
</trkpt>
<trkpt lat="-27.2737706" lon="151.2899102">
  <ele>366.61</ele>
  <time>2026-09-01T19:58:49Z</time>
  <course>108.46</course>
  <speed>0.26248809496813374</speed>
  <fix>3d</fix>
</trkpt>
<trkpt lat="-27.2737706" lon="151.289911">
  <ele>367.05</ele>
  <time>2026-09-01T19:58:49Z</time>
  <course>293.09</course>
  <speed>0.23</speed>
  <fix>3d</fix>
</trkpt>
<trkpt lat="-27.2737705" lon="151.28991">
  <ele>366.46</ele>
  <time>2026-09-01T19:58:49Z</time>
  <course>108.58</course>
  <speed>0.26248809496813374</speed>
  <fix>3d</fix>
</trkpt>
<trkpt lat="-27.2737705" lon="151.2899105">
  <ele>366.74</ele>
  <time>2026-09-01T19:58:49Z</time>
  <course>293.56</course>
  <speed>0.24</speed>
  <fix>3d</fix>
</trkpt>
<trkpt lat="-27.2737704" lon="151.2899097">
  <ele>366.31</ele>
  <time>2026-09-01T19:58:49Z</time>
  <course>108.7</course>
  <speed>0.26248809496813374</speed>
  <fix>3d</fix>
</trkpt>
<trkpt lat="-27.2737705" lon="151.2899105">
  <ele>366.74</ele>
  <time>2026-09-01T19:58:49Z</time>
  <course>293.56</course>
  <speed>0.24</speed>
  <fix>3d</fix>
</trkpt>
<trkpt lat="-27.2737703" lon="151.2899095">
  <ele>366.16</ele>
  <time>2026-09-01T19:58:49Z</time>
  <course>108.81</course>
  <speed>0.26248809496813374</speed>
  <fix>3d</fix>
</trkpt>
<trkpt lat="-27.2737703" lon="151.2899101">
  <ele>366.44</ele>
  <time>2026-09-01T19:58:49Z</time>
  <course>294.18</course>
  <speed>0.24</speed>
  <fix>3d</fix>
</trkpt>
<trkpt lat="-27.2737703" lon="151.2899093">
  <ele>366.01</ele>
  <time>2026-09-01T19:58:49Z</time>
  <course>108.91</course>
  <speed>0.2529822128134704</speed>
  <fix>3d</fix>
</trkpt>
<trkpt lat="-27.2737703" lon="151.2899101">
  <ele>366.44</ele>
  <time>2026-09-01T19:58:49Z</time>
  <course>294.18</course>
  <speed>0.24</speed>
  <fix>3d</fix>
</trkpt>
<trkpt lat="-27.2737702" lon="151.2899091">
  <ele>365.85</ele>
  <time>2026-09-01T19:58:49Z</time>
  <course>108.98</course>
  <speed>0.25632011235952595</speed>
  <fix>3d</fix>
</trkpt>
<trkpt lat="-27.2737701" lon="151.2899097">
  <ele>366.14</ele>
  <time>2026-09-01T19:58:49Z</time>
  <course>294.8</course>
  <speed>0.24</speed>
  <fix>3d</fix>
</trkpt>
<trkpt lat="-27.2737701" lon="151.2899089">
  <ele>365.7</ele>
  <time>2026-09-01T19:58:49Z</time>
  <course>109.04</course>
  <speed>0.25632011235952595</speed>
  <fix>3d</fix>
</trkpt>
<trkpt lat="-27.2737701" lon="151.2899097">
  <ele>366.14</ele>
  <time>2026-09-01T19:58:49Z</time>
  <course>294.8</course>
  <speed>0.24</speed>
  <fix>3d</fix>
</trkpt>
<trkpt lat="-27.27377" lon="151.2899087">
  <ele>365.55</ele>
  <time>2026-09-01T19:58:49Z</time>
  <course>109.08</course>
  <speed>0.24698178070456936</speed>
  <fix>3d</fix>
</trkpt>
<trkpt lat="-27.2737699" lon="151.2899092">
  <ele>365.84</ele>
  <time>2026-09-01T19:58:49Z</time>
  <course>295.48</course>
  <speed>0.23</speed>
  <fix>3d</fix>
</trkpt>
<trkpt lat="-27.2737699" lon="151.2899085">
  <ele>365.4</ele>
  <time>2026-09-01T19:58:49Z</time>
  <course>109.11</course>
  <speed>0.24351591323771843</speed>
  <fix>3d</fix>
</trkpt>
<trkpt lat="-27.2737699" lon="151.2899092">
  <ele>365.84</ele>
  <time>2026-09-01T19:58:49Z</time>
  <course>295.48</course>
  <speed>0.23</speed>
  <fix>3d</fix>
</trkpt>
<trkpt lat="-27.2737698" lon="151.2899083">
  <ele>365.24</ele>
  <time>2026-09-01T19:58:49Z</time>
  <course>109.12</course>
  <speed>0.24351591323771843</speed>
  <fix>3d</fix>
</trkpt>
<trkpt lat="-27.2737697" lon="151.2899087">
  <ele>365.53</ele>
  <time>2026-09-01T19:58:49Z</time>
  <course>296.14</course>
  <speed>0.23</speed>
  <fix>3d</fix>
</trkpt>
<trkpt lat="-27.2737697" lon="151.2899081">
  <ele>365.09</ele>
  <time>2026-09-01T19:58:49Z</time>
  <course>109.13</course>
  <speed>0.2340939982143925</speed>
  <fix>3d</fix>
</trkpt>
<trkpt lat="-27.2737697" lon="151.2899087">
  <ele>365.53</ele>
  <time>2026-09-01T19:58:49Z</time>
  <course>296.14</course>
  <speed>0.23</speed>
  <fix>3d</fix>
</trkpt>
<trkpt lat="-27.2737696" lon="151.2899079">
  <ele>364.94</ele>
  <time>2026-09-01T19:58:49Z</time>
  <course>109.14</course>
  <speed>0.2340939982143925</speed>
  <fix>3d</fix>
</trkpt>
<trkpt lat="-27.2737696" lon="151.2899084">
  <ele>365.22</ele>
  <time>2026-09-01T19:58:49Z</time>
  <course>296.82</course>
  <speed>0.22</speed>
  <fix>3d</fix>
</trkpt>
<trkpt lat="-27.2737695" lon="151.2899077">
  <ele>364.79</ele>
  <time>2026-09-01T19:58:49Z</time>
  <course>109.15</course>
  <speed>0.22472205054244232</speed>
  <fix>3d</fix>
</trkpt>
<trkpt lat="-27.2737696" lon="151.2899084">
  <ele>365.22</ele>
  <time>2026-09-01T19:58:49Z</time>
  <course>296.82</course>
  <speed>0.22</speed>
  <fix>3d</fix>
</trkpt>
<trkpt lat="-27.2737695" lon="151.2899075">
  <ele>364.64</ele>
  <time>2026-09-01T19:58:49Z</time>
  <course>109.17</course>
  <speed>0.22135943621178655</speed>
  <fix>3d</fix>
</trkpt>
<trkpt lat="-27.2737694" lon="151.2899079">
  <ele>364.93</ele>
  <time>2026-09-01T19:58:49Z</time>
  <course>297.6</course>
  <speed>0.21</speed>
  <fix>3d</fix>
</trkpt>
<trkpt lat="-27.2737694" lon="151.2899073">
  <ele>364.49</ele>
  <time>2026-09-01T19:58:49Z</time>
  <course>109.19</course>
  <speed>0.21189620100417092</speed>
  <fix>3d</fix>
</trkpt>
<trkpt lat="-27.2737694" lon="151.2899079">
  <ele>364.93</ele>
  <time>2026-09-01T19:58:49Z</time>
  <course>297.6</course>
  <speed>0.21</speed>
  <fix>3d</fix>
</trkpt>
<trkpt lat="-27.2737693" lon="151.2899072">
  <ele>364.34</ele>
  <time>2026-09-01T19:58:49Z</time>
  <course>109.21</course>
  <speed>0.21189620100417092</speed>
  <fix>3d</fix>
</trkpt>
<trkpt lat="-27.2737691" lon="151.2899076">
  <ele>364.63</ele>
  <time>2026-09-01T19:58:49Z</time>
  <course>298.59</course>
  <speed>0.2</speed>
  <fix>3d</fix>
</trkpt>
<trkpt lat="-27.2737692" lon="151.289907">
  <ele>364.18</ele>
  <time>2026-09-01T19:58:49Z</time>
  <course>109.24</course>
  <speed>0.20248456731316586</speed>
  <fix>3d</fix>
</trkpt>
<trkpt lat="-27.2737691" lon="151.2899076">
  <ele>364.63</ele>
  <time>2026-09-01T19:58:49Z</time>
  <course>298.59</course>
  <speed>0.2</speed>
  <fix>3d</fix>
</trkpt>
<trkpt lat="-27.2737691" lon="151.2899068">
  <ele>364.03</ele>
  <time>2026-09-01T19:58:49Z</time>
  <course>109.27</course>
  <speed>0.19313207915827968</speed>
  <fix>3d</fix>
</trkpt>
<trkpt lat="-27.273769" lon="151.2899072">
  <ele>364.33</ele>
  <time>2026-09-01T19:58:49Z</time>
  <course>299.7</course>
  <speed>0.19</speed>
  <fix>3d</fix>
</trkpt>
<trkpt lat="-27.273769" lon="151.2899067">
  <ele>363.88</ele>
  <time>2026-09-01T19:58:49Z</time>
  <course>109.31</course>
  <speed>0.19313207915827968</speed>
  <fix>3d</fix>
</trkpt>
<trkpt lat="-27.273769" lon="151.2899072">
  <ele>364.33</ele>
  <time>2026-09-01T19:58:49Z</time>
  <course>299.7</course>
  <speed>0.19</speed>
  <fix>3d</fix>
</trkpt>
<trkpt lat="-27.273769" lon="151.2899065">
  <ele>363.73</ele>
  <time>2026-09-01T19:58:49Z</time>
  <course>109.36</course>
  <speed>0.18384776310850234</speed>
  <fix>3d</fix>
</trkpt>
<trkpt lat="-27.2737689" lon="151.2899069">
  <ele>364.03</ele>
  <time>2026-09-01T19:58:49Z</time>
  <course>301.01</course>
  <speed>0.17</speed>
  <fix>3d</fix>
</trkpt>
<trkpt lat="-27.2737689" lon="151.2899064">
  <ele>363.58</ele>
  <time>2026-09-01T19:58:49Z</time>
  <course>109.41</course>
  <speed>0.17464249196572978</speed>
  <fix>3d</fix>
</trkpt>
<trkpt lat="-27.2737689" lon="151.2899069">
  <ele>364.03</ele>
  <time>2026-09-01T19:58:49Z</time>
  <course>301.01</course>
  <speed>0.17</speed>
  <fix>3d</fix>
</trkpt>
<trkpt lat="-27.2737688" lon="151.2899062">
  <ele>363.43</ele>
  <time>2026-09-01T19:58:49Z</time>
  <course>109.47</course>
  <speed>0.16552945357246848</speed>
  <fix>3d</fix>
</trkpt>
<trkpt lat="-27.2737687" lon="151.2899066">
  <ele>363.74</ele>
  <time>2026-09-01T19:58:49Z</time>
  <course>302.91</course>
  <speed>0.16</speed>
  <fix>3d</fix>
</trkpt>
<trkpt lat="-27.2737687" lon="151.2899061">
  <ele>363.28</ele>
  <time>2026-09-01T19:58:49Z</time>
  <course>109.55</course>
  <speed>0.16552945357246848</speed>
  <fix>3d</fix>
</trkpt>
<trkpt lat="-27.2737687" lon="151.2899066">
  <ele>363.74</ele>
  <time>2026-09-01T19:58:49Z</time>
  <course>302.91</course>
  <speed>0.16</speed>
  <fix>3d</fix>
</trkpt>
<trkpt lat="-27.2737686" lon="151.289906">
  <ele>363.13</ele>
  <time>2026-09-01T19:58:49Z</time>
  <course>109.63</course>
  <speed>0.15652475842498528</speed>
  <fix>3d</fix>
</trkpt>
<trkpt lat="-27.2737685" lon="151.2899064">
  <ele>363.44</ele>
  <time>2026-09-01T19:58:49Z</time>
  <course>305.43</course>
  <speed>0.15</speed>
  <fix>3d</fix>
</trkpt>
<trkpt lat="-27.2737686" lon="151.2899059">
  <ele>362.98</ele>
  <time>2026-09-01T19:58:49Z</time>
  <course>109.71</course>
  <speed>0.147648230602334</speed>
  <fix>3d</fix>
</trkpt>
<trkpt lat="-27.2737685" lon="151.2899064">
  <ele>363.44</ele>
  <time>2026-09-01T19:58:49Z</time>
  <course>305.43</course>
  <speed>0.15</speed>
  <fix>3d</fix>
</trkpt>
<trkpt lat="-27.2737685" lon="151.2899058">
  <ele>362.83</ele>
  <time>2026-09-01T19:58:49Z</time>
  <course>109.79</course>
  <speed>0.1341640786499874</speed>
  <fix>3d</fix>
</trkpt>
<trkpt lat="-27.2737684" lon="151.2899062">
  <ele>363.14</ele>
  <time>2026-09-01T19:58:49Z</time>
  <course>308.47</course>
  <speed>0.13</speed>
  <fix>3d</fix>
</trkpt>
<trkpt lat="-27.2737684" lon="151.2899057">
  <ele>362.68</ele>
  <time>2026-09-01T19:58:49Z</time>
  <course>109.87</course>
  <speed>0.12529964086141668</speed>
  <fix>3d</fix>
</trkpt>
<trkpt lat="-27.2737684" lon="151.2899062">
  <ele>363.14</ele>
  <time>2026-09-01T19:58:49Z</time>
  <course>308.47</course>
  <speed>0.13</speed>
  <fix>3d</fix>
</trkpt>
<trkpt lat="-27.2737683" lon="151.2899056">
  <ele>362.53</ele>
  <time>2026-09-01T19:58:49Z</time>
  <course>109.95</course>
  <speed>0.12529964086141668</speed>
  <fix>3d</fix>
</trkpt>
<trkpt lat="-27.2737682" lon="151.2899059">
  <ele>362.84</ele>
  <time>2026-09-01T19:58:49Z</time>
  <course>312.26</course>
  <speed>0.12</speed>
  <fix>3d</fix>
</trkpt>
<trkpt lat="-27.2737683" lon="151.2899055">
  <ele>362.39</ele>
  <time>2026-09-01T19:58:49Z</time>
  <course>110.02</course>
  <speed>0.11661903789690602</speed>
  <fix>3d</fix>
</trkpt>
<trkpt lat="-27.2737682" lon="151.2899059">
  <ele>362.84</ele>
  <time>2026-09-01T19:58:49Z</time>
  <course>312.26</course>
  <speed>0.12</speed>
  <fix>3d</fix>
</trkpt>
<trkpt lat="-27.2737682" lon="151.2899055">
  <ele>362.24</ele>
  <time>2026-09-01T19:58:49Z</time>
  <course>110.07</course>
  <speed>0.10816653826391968</speed>
  <fix>3d</fix>
</trkpt>
<trkpt lat="-27.2737681" lon="151.2899058">
  <ele>362.55</ele>
  <time>2026-09-01T19:58:49Z</time>
  <course>316.83</course>
  <speed>0.1</speed>
  <fix>3d</fix>
</trkpt>
<trkpt lat="-27.2737681" lon="151.2899054">
  <ele>362.09</ele>
  <time>2026-09-01T19:58:49Z</time>
  <course>110.14</course>
  <speed>0.1</speed>
  <fix>3d</fix>
</trkpt>
<trkpt lat="-27.2737681" lon="151.2899058">
  <ele>362.55</ele>
  <time>2026-09-01T19:58:49Z</time>
  <course>316.83</course>
  <speed>0.1</speed>
  <fix>3d</fix>
</trkpt>
<trkpt lat="-27.2737681" lon="151.2899053">
  <ele>361.94</ele>
  <time>2026-09-01T19:58:49Z</time>
  <course>110.2</course>
  <speed>0.09433981132056603</speed>
  <fix>3d</fix>
</trkpt>
<trkpt lat="-27.2737679" lon="151.2899057">
  <ele>362.25</ele>
  <time>2026-09-01T19:58:49Z</time>
  <course>322.5</course>
  <speed>0.09</speed>
  <fix>3d</fix>
</trkpt>
<trkpt lat="-27.273768" lon="151.2899053">
  <ele>361.79</ele>
  <time>2026-09-01T19:58:49Z</time>
  <course>110.27</course>
  <speed>0.08602325267042626</speed>
  <fix>3d</fix>
</trkpt>
<trkpt lat="-27.2737679" lon="151.2899057">
  <ele>362.25</ele>
  <time>2026-09-01T19:58:49Z</time>
  <course>322.5</course>
  <speed>0.09</speed>
  <fix>3d</fix>
</trkpt>
<trkpt lat="-27.2737679" lon="151.2899053">
  <ele>361.64</ele>
  <time>2026-09-01T19:58:49Z</time>
  <course>110.33</course>
  <speed>0.07810249675906654</speed>
  <fix>3d</fix>
</trkpt>
<trkpt lat="-27.2737678" lon="151.2899055">
  <ele>361.95</ele>
  <time>2026-09-01T19:58:49Z</time>
  <course>329.86</course>
  <speed>0.08</speed>
  <fix>3d</fix>
</trkpt>
<trkpt lat="-27.2737679" lon="151.2899052">
  <ele>361.49</ele>
  <time>2026-09-01T19:58:49Z</time>
  <course>110.4</course>
  <speed>0.07071067811865475</speed>
  <fix>3d</fix>
</trkpt>
<trkpt lat="-27.2737678" lon="151.2899055">
  <ele>361.95</ele>
  <time>2026-09-01T19:58:49Z</time>
  <course>329.86</course>
  <speed>0.08</speed>
  <fix>3d</fix>
</trkpt>
<trkpt lat="-27.2737678" lon="151.2899052">
  <ele>361.34</ele>
  <time>2026-09-01T19:58:49Z</time>
  <course>110.46</course>
  <speed>0.07071067811865475</speed>
  <fix>3d</fix>
</trkpt>
<trkpt lat="-27.2737677" lon="151.2899055">
  <ele>361.65</ele>
  <time>2026-09-01T19:58:49Z</time>
  <course>338.86</course>
  <speed>0.07</speed>
  <fix>3d</fix>
</trkpt>
<trkpt lat="-27.2737677" lon="151.2899052">
  <ele>361.19</ele>
  <time>2026-09-01T19:58:49Z</time>
  <course>110.51</course>
  <speed>0.0565685424949238</speed>
  <fix>3d</fix>
</trkpt>
<trkpt lat="-27.2737677" lon="151.2899055">
  <ele>361.65</ele>
  <time>2026-09-01T19:58:49Z</time>
  <course>338.86</course>
  <speed>0.07</speed>
  <fix>3d</fix>
</trkpt>
<trkpt lat="-27.2737677" lon="151.2899052">
  <ele>361.04</ele>
  <time>2026-09-01T19:58:49Z</time>
  <course>110.51</course>
  <speed>0.05</speed>
  <fix>3d</fix>
</trkpt>
<trkpt lat="-27.2737675" lon="151.2899055">
  <ele>361.35</ele>
  <time>2026-09-01T19:58:49Z</time>
  <course>348.0</course>
  <speed>0.06</speed>
  <fix>3d</fix>
</trkpt>
<trkpt lat="-27.2737676" lon="151.2899052">
  <ele>360.89</ele>
  <time>2026-09-01T19:58:49Z</time>
  <course>110.43</course>
  <speed>0.03605551275463989</speed>
  <fix>3d</fix>
</trkpt>
<trkpt lat="-27.2737675" lon="151.2899055">
  <ele>361.35</ele>
  <time>2026-09-01T19:58:49Z</time>
  <course>348.0</course>
  <speed>0.06</speed>
  <fix>3d</fix>
</trkpt>
<trkpt lat="-27.2737676" lon="151.2899052">
  <ele>360.74</ele>
  <time>2026-09-01T19:58:49Z</time>
  <course>110.22</course>
  <speed>0.0316227766016838</speed>
  <fix>3d</fix>
</trkpt>
<trkpt lat="-27.2737674" lon="151.2899055">
  <ele>361.05</ele>
  <time>2026-09-01T19:58:49Z</time>
  <course>353.48</course>
  <speed>0.04</speed>
  <fix>3d</fix>
</trkpt>
<trkpt lat="-27.2737676" lon="151.2899052">
  <ele>360.59</ele>
  <time>2026-09-01T19:58:49Z</time>
  <course>109.86</course>
  <speed>0.03</speed>
  <fix>3d</fix>
</trkpt>
<trkpt lat="-27.2737674" lon="151.2899055">
  <ele>361.05</ele>
  <time>2026-09-01T19:58:49Z</time>
  <course>353.48</course>
  <speed>0.04</speed>
  <fix>3d</fix>
</trkpt>
<trkpt lat="-27.2737676" lon="151.2899052">
  <ele>360.44</ele>
  <time>2026-09-01T19:58:49Z</time>
  <course>109.38</course>
  <speed>0.03605551275463989</speed>
  <fix>3d</fix>
</trkpt>
<trkpt lat="-27.2737673" lon="151.2899054">
  <ele>360.76</ele>
  <time>2026-09-01T19:58:49Z</time>
  <course>338.07</course>
  <speed>0.01</speed>
  <fix>3d</fix>
</trkpt>
<trkpt lat="-27.2737676" lon="151.2899052">
  <ele>360.3</ele>
  <time>2026-09-01T19:58:49Z</time>
  <course>108.87</course>
  <speed>0.05</speed>
  <fix>3d</fix>
</trkpt>
<trkpt lat="-27.2737673" lon="151.2899054">
  <ele>360.76</ele>
  <time>2026-09-01T19:58:49Z</time>
  <course>338.07</course>
  <speed>0.01</speed>
  <fix>3d</fix>
</trkpt>
<trkpt lat="-27.2737676" lon="151.2899052">
  <ele>360.15</ele>
  <time>2026-09-01T19:58:49Z</time>
  <course>108.39</course>
  <speed>0.07211102550927978</speed>
  <fix>3d</fix>
</trkpt>
<trkpt lat="-27.2737674" lon="151.2899053">
  <ele>360.46</ele>
  <time>2026-09-01T19:58:49Z</time>
  <course>193.96</course>
  <speed>0.03</speed>
  <fix>3d</fix>
</trkpt>
<trkpt lat="-27.2737677" lon="151.2899051">
  <ele>359.99</ele>
  <time>2026-09-01T19:58:49Z</time>
  <course>107.99</course>
  <speed>0.08944271909999159</speed>
  <fix>3d</fix>
</trkpt>
<trkpt lat="-27.2737674" lon="151.2899053">
  <ele>360.46</ele>
  <time>2026-09-01T19:58:49Z</time>
  <course>193.96</course>
  <speed>0.03</speed>
  <fix>3d</fix>
</trkpt>
<trkpt lat="-27.2737677" lon="151.2899051">
  <ele>359.84</ele>
  <time>2026-09-01T19:58:49Z</time>
  <course>107.71</course>
  <speed>0.10770329614269007</speed>
  <fix>3d</fix>
</trkpt>
<trkpt lat="-27.2737675" lon="151.2899053">
  <ele>360.16</ele>
  <time>2026-09-01T19:58:49Z</time>
  <course>190.47</course>
  <speed>0.07</speed>
  <fix>3d</fix>
</trkpt>
<trkpt lat="-27.2737677" lon="151.2899051">
  <ele>359.69</ele>
  <time>2026-09-01T19:58:49Z</time>
  <course>107.57</course>
  <speed>0.13</speed>
  <fix>3d</fix>
</trkpt>
<trkpt lat="-27.2737675" lon="151.2899053">
  <ele>360.16</ele>
  <time>2026-09-01T19:58:49Z</time>
  <course>190.47</course>
  <speed>0.07</speed>
  <fix>3d</fix>
</trkpt>
<trkpt lat="-27.2737678" lon="151.2899051">
  <ele>359.54</ele>
  <time>2026-09-01T19:58:49Z</time>
  <course>107.53</course>
  <speed>0.14866068747318506</speed>
  <fix>3d</fix>
</trkpt>
<trkpt lat="-27.2737676" lon="151.2899053">
  <ele>359.86</ele>
  <time>2026-09-01T19:58:49Z</time>
  <course>190.06</course>
  <speed>0.1</speed>
  <fix>3d</fix>
</trkpt>
<trkpt lat="-27.273768" lon="151.289905">
  <ele>359.39</ele>
  <time>2026-09-01T19:58:49Z</time>
  <course>107.57</course>
  <speed>0.15811388300841897</speed>
  <fix>3d</fix>
</trkpt>
<trkpt lat="-27.2737676" lon="151.2899053">
  <ele>359.86</ele>
  <time>2026-09-01T19:58:49Z</time>
  <course>190.06</course>
  <speed>0.1</speed>
  <fix>3d</fix>
</trkpt>
<trkpt lat="-27.2737681" lon="151.289905">
  <ele>359.24</ele>
  <time>2026-09-01T19:58:49Z</time>
  <course>107.67</course>
  <speed>0.1708800749063506</speed>
  <fix>3d</fix>
</trkpt>
<trkpt lat="-27.2737678" lon="151.2899053">
  <ele>359.56</ele>
  <time>2026-09-01T19:58:49Z</time>
  <course>190.08</course>
  <speed>0.14</speed>
  <fix>3d</fix>
</trkpt>
<trkpt lat="-27.2737682" lon="151.289905">
  <ele>359.09</ele>
  <time>2026-09-01T19:58:49Z</time>
  <course>107.78</course>
  <speed>0.18027756377319945</speed>
  <fix>3d</fix>
</trkpt>
<trkpt lat="-27.2737678" lon="151.2899053">
  <ele>359.56</ele>
  <time>2026-09-01T19:58:49Z</time>
  <course>190.08</course>
  <speed>0.14</speed>
  <fix>3d</fix>
</trkpt>
<trkpt lat="-27.2737684" lon="151.2899049">
  <ele>358.94</ele>
  <time>2026-09-01T19:58:49Z</time>
  <course>107.88</course>
  <speed>0.19924858845171275</speed>
  <fix>3d</fix>
</trkpt>
<trkpt lat="-27.2737681" lon="151.2899052">
  <ele>359.26</ele>
  <time>2026-09-01T19:58:49Z</time>
  <course>190.05</course>
  <speed>0.16</speed>
  <fix>3d</fix>
</trkpt>
<trkpt lat="-27.2737685" lon="151.2899049">
  <ele>358.79</ele>
  <time>2026-09-01T19:58:49Z</time>
  <course>107.96</course>
  <speed>0.19924858845171275</speed>
  <fix>3d</fix>
</trkpt>
<trkpt lat="-27.2737681" lon="151.2899052">
  <ele>359.26</ele>
  <time>2026-09-01T19:58:49Z</time>
  <course>190.05</course>
  <speed>0.16</speed>
  <fix>3d</fix>
</trkpt>
<trkpt lat="-27.2737687" lon="151.2899049">
  <ele>358.64</ele>
  <time>2026-09-01T19:58:49Z</time>
  <course>108.01</course>
  <speed>0.208806130178211</speed>
  <fix>3d</fix>
</trkpt>
<trkpt lat="-27.2737684" lon="151.2899052">
  <ele>358.96</ele>
  <time>2026-09-01T19:58:49Z</time>
  <course>189.82</course>
  <speed>0.18</speed>
  <fix>3d</fix>
</trkpt>
<trkpt lat="-27.2737689" lon="151.2899048">
  <ele>358.49</ele>
  <time>2026-09-01T19:58:49Z</time>
  <course>108.03</course>
  <speed>0.21840329667841554</speed>
  <fix>3d</fix>
</trkpt>
<trkpt lat="-27.2737684" lon="151.2899052">
  <ele>358.96</ele>
  <time>2026-09-01T19:58:49Z</time>
  <course>189.82</course>
  <speed>0.18</speed>
  <fix>3d</fix>
</trkpt>
<trkpt lat="-27.273769" lon="151.2899048">
  <ele>358.34</ele>
  <time>2026-09-01T19:58:49Z</time>
  <course>108.02</course>
  <speed>0.22803508501982758</speed>
  <fix>3d</fix>
</trkpt>
<trkpt lat="-27.2737688" lon="151.2899051">
  <ele>358.66</ele>
  <time>2026-09-01T19:58:49Z</time>
  <course>189.36</course>
  <speed>0.2</speed>
  <fix>3d</fix>
</trkpt>
<trkpt lat="-27.2737692" lon="151.2899048">
  <ele>358.2</ele>
  <time>2026-09-01T19:58:49Z</time>
  <course>107.99</course>
  <speed>0.22803508501982758</speed>
  <fix>3d</fix>
</trkpt>
<trkpt lat="-27.2737688" lon="151.2899051">
  <ele>358.66</ele>
  <time>2026-09-01T19:58:49Z</time>
  <course>189.36</course>
  <speed>0.2</speed>
  <fix>3d</fix>
</trkpt>
<trkpt lat="-27.2737694" lon="151.2899047">
  <ele>358.04</ele>
  <time>2026-09-01T19:58:49Z</time>
  <course>107.95</course>
  <speed>0.22803508501982758</speed>
  <fix>3d</fix>
</trkpt>
<trkpt lat="-27.2737691" lon="151.2899051">
  <ele>358.36</ele>
  <time>2026-09-01T19:58:49Z</time>
  <course>188.79</course>
  <speed>0.21</speed>
  <fix>3d</fix>
</trkpt>
<trkpt lat="-27.2737696" lon="151.2899047">
  <ele>357.89</ele>
  <time>2026-09-01T19:58:49Z</time>
  <course>107.91</course>
  <speed>0.23769728648009425</speed>
  <fix>3d</fix>
</trkpt>
<trkpt lat="-27.2737691" lon="151.2899051">
  <ele>358.36</ele>
  <time>2026-09-01T19:58:49Z</time>
  <course>188.79</course>
  <speed>0.21</speed>
  <fix>3d</fix>
</trkpt>
<trkpt lat="-27.2737698" lon="151.2899047">
  <ele>357.74</ele>
  <time>2026-09-01T19:58:49Z</time>
  <course>107.87</course>
  <speed>0.23769728648009425</speed>
  <fix>3d</fix>
</trkpt>
<trkpt lat="-27.2737695" lon="151.289905">
  <ele>358.06</ele>
  <time>2026-09-01T19:58:49Z</time>
  <course>188.29</course>
  <speed>0.21</speed>
  <fix>3d</fix>
</trkpt>
<trkpt lat="-27.27377" lon="151.2899046">
  <ele>357.6</ele>
  <time>2026-09-01T19:58:49Z</time>
  <course>107.83</course>
  <speed>0.23769728648009425</speed>
  <fix>3d</fix>
</trkpt>
<trkpt lat="-27.2737695" lon="151.289905">
  <ele>358.06</ele>
  <time>2026-09-01T19:58:49Z</time>
  <course>188.29</course>
  <speed>0.21</speed>
  <fix>3d</fix>
</trkpt>
<trkpt lat="-27.2737702" lon="151.2899046">
  <ele>357.45</ele>
  <time>2026-09-01T19:58:49Z</time>
  <course>107.8</course>
  <speed>0.22803508501982758</speed>
  <fix>3d</fix>
</trkpt>
<trkpt lat="-27.2737699" lon="151.2899049">
  <ele>357.76</ele>
  <time>2026-09-01T19:58:49Z</time>
  <course>187.76</course>
  <speed>0.21</speed>
  <fix>3d</fix>
</trkpt>
<trkpt lat="-27.2737704" lon="151.2899046">
  <ele>357.29</ele>
  <time>2026-09-01T19:58:49Z</time>
  <course>107.78</course>
  <speed>0.22803508501982758</speed>
  <fix>3d</fix>
</trkpt>
<trkpt lat="-27.2737699" lon="151.2899049">
  <ele>357.76</ele>
  <time>2026-09-01T19:58:49Z</time>
  <course>187.76</course>
  <speed>0.21</speed>
  <fix>3d</fix>
</trkpt>
<trkpt lat="-27.2737706" lon="151.2899045">
  <ele>357.14</ele>
  <time>2026-09-01T19:58:49Z</time>
  <course>107.77</course>
  <speed>0.215870331449229</speed>
  <fix>3d</fix>
</trkpt>
<trkpt lat="-27.2737703" lon="151.2899048">
  <ele>357.46</ele>
  <time>2026-09-01T19:58:49Z</time>
  <course>187.2</course>
  <speed>0.21</speed>
  <fix>3d</fix>
</trkpt>
<trkpt lat="-27.2737707" lon="151.2899045">
  <ele>356.99</ele>
  <time>2026-09-01T19:58:49Z</time>
  <course>107.76</course>
  <speed>0.215870331449229</speed>
  <fix>3d</fix>
</trkpt>
<trkpt lat="-27.2737703" lon="151.2899048">
  <ele>357.46</ele>
  <time>2026-09-01T19:58:49Z</time>
  <course>187.2</course>
  <speed>0.21</speed>
  <fix>3d</fix>
</trkpt>
<trkpt lat="-27.2737709" lon="151.2899045">
  <ele>356.84</ele>
  <time>2026-09-01T19:58:49Z</time>
  <course>107.75</course>
  <speed>0.20615528128088303</speed>
  <fix>3d</fix>
</trkpt>
<trkpt lat="-27.2737707" lon="151.2899048">
  <ele>357.16</ele>
  <time>2026-09-01T19:58:49Z</time>
  <course>186.48</course>
  <speed>0.2</speed>
  <fix>3d</fix>
</trkpt>
<trkpt lat="-27.2737711" lon="151.2899045">
  <ele>356.69</ele>
  <time>2026-09-01T19:58:49Z</time>
  <course>107.74</course>
  <speed>0.20615528128088303</speed>
  <fix>3d</fix>
</trkpt>
<trkpt lat="-27.2737707" lon="151.2899048">
  <ele>357.16</ele>
  <time>2026-09-01T19:58:49Z</time>
  <course>186.48</course>
  <speed>0.2</speed>
  <fix>3d</fix>
</trkpt>
<trkpt lat="-27.2737713" lon="151.2899045">
  <ele>356.54</ele>
  <time>2026-09-01T19:58:49Z</time>
  <course>107.74</course>
  <speed>0.194164878389476</speed>
  <fix>3d</fix>
</trkpt>
<trkpt lat="-27.273771" lon="151.2899047">
  <ele>356.86</ele>
  <time>2026-09-01T19:58:49Z</time>
  <course>185.46</course>
  <speed>0.19</speed>
  <fix>3d</fix>
</trkpt>
<trkpt lat="-27.2737714" lon="151.2899044">
  <ele>356.4</ele>
  <time>2026-09-01T19:58:49Z</time>
  <course>107.72</course>
  <speed>0.18439088914585774</speed>
  <fix>3d</fix>
</trkpt>
<trkpt lat="-27.273771" lon="151.2899047">
  <ele>356.86</ele>
  <time>2026-09-01T19:58:49Z</time>
  <course>185.46</course>
  <speed>0.19</speed>
  <fix>3d</fix>
</trkpt>
<trkpt lat="-27.2737716" lon="151.2899044">
  <ele>356.25</ele>
  <time>2026-09-01T19:58:49Z</time>
  <course>107.71</course>
  <speed>0.17464249196572978</speed>
  <fix>3d</fix>
</trkpt>
<trkpt lat="-27.2737713" lon="151.2899047">
  <ele>356.56</ele>
  <time>2026-09-01T19:58:49Z</time>
  <course>184.14</course>
  <speed>0.17</speed>
  <fix>3d</fix>
</trkpt>
<trkpt lat="-27.2737717" lon="151.2899044">
  <ele>356.1</ele>
  <time>2026-09-01T19:58:49Z</time>
  <course>107.69</course>
  <speed>0.16278820596099705</speed>
  <fix>3d</fix>
</trkpt>
<trkpt lat="-27.2737713" lon="151.2899047">
  <ele>356.56</ele>
  <time>2026-09-01T19:58:49Z</time>
  <course>184.14</course>
  <speed>0.17</speed>
  <fix>3d</fix>
</trkpt>
<trkpt lat="-27.2737718" lon="151.2899044">
  <ele>355.95</ele>
  <time>2026-09-01T19:58:49Z</time>
  <course>107.67</course>
  <speed>0.15297058540778355</speed>
  <fix>3d</fix>
</trkpt>
<trkpt lat="-27.2737716" lon="151.2899047">
  <ele>356.26</ele>
  <time>2026-09-01T19:58:49Z</time>
  <course>182.43</course>
  <speed>0.15</speed>
  <fix>3d</fix>
</trkpt>
<trkpt lat="-27.273772" lon="151.2899044">
  <ele>355.81</ele>
  <time>2026-09-01T19:58:49Z</time>
  <course>107.65</course>
  <speed>0.14317821063276354</speed>
  <fix>3d</fix>
</trkpt>
<trkpt lat="-27.2737716" lon="151.2899047">
  <ele>356.26</ele>
  <time>2026-09-01T19:58:49Z</time>
  <course>182.43</course>
  <speed>0.15</speed>
  <fix>3d</fix>
</trkpt>
<trkpt lat="-27.2737721" lon="151.2899044">
  <ele>355.66</ele>
  <time>2026-09-01T19:58:49Z</time>
  <course>107.63</course>
  <speed>0.13341664064126335</speed>
  <fix>3d</fix>
</trkpt>
<trkpt lat="-27.2737719" lon="151.2899047">
  <ele>355.96</ele>
  <time>2026-09-01T19:58:49Z</time>
  <course>180.29</course>
  <speed>0.13</speed>
  <fix>3d</fix>
</trkpt>
<trkpt lat="-27.2737722" lon="151.2899044">
  <ele>355.51</ele>
  <time>2026-09-01T19:58:49Z</time>
  <course>107.6</course>
  <speed>0.12165525060596438</speed>
  <fix>3d</fix>
</trkpt>
<trkpt lat="-27.2737719" lon="151.2899047">
  <ele>355.96</ele>
  <time>2026-09-01T19:58:49Z</time>
  <course>180.29</course>
  <speed>0.13</speed>
  <fix>3d</fix>
</trkpt>
<trkpt lat="-27.2737723" lon="151.2899044">
  <ele>355.36</ele>
  <time>2026-09-01T19:58:49Z</time>
  <course>107.58</course>
  <speed>0.1118033988749895</speed>
  <fix>3d</fix>
</trkpt>
<trkpt lat="-27.2737721" lon="151.2899047">
  <ele>355.66</ele>
  <time>2026-09-01T19:58:49Z</time>
  <course>177.5</course>
  <speed>0.11</speed>
  <fix>3d</fix>
</trkpt>
<trkpt lat="-27.2737724" lon="151.2899044">
  <ele>355.21</ele>
  <time>2026-09-01T19:58:49Z</time>
  <course>107.55</course>
  <speed>0.1019803902718557</speed>
  <fix>3d</fix>
</trkpt>
<trkpt lat="-27.2737721" lon="151.2899047">
  <ele>355.66</ele>
  <time>2026-09-01T19:58:49Z</time>
  <course>177.5</course>
  <speed>0.11</speed>
  <fix>3d</fix>
</trkpt>
<trkpt lat="-27.2737724" lon="151.2899044">
  <ele>355.06</ele>
  <time>2026-09-01T19:58:49Z</time>
  <course>107.53</course>
  <speed>0.09055385138137417</speed>
  <fix>3d</fix>
</trkpt>
<trkpt lat="-27.2737723" lon="151.2899047">
  <ele>355.36</ele>
  <time>2026-09-01T19:58:49Z</time>
  <course>173.36</course>
  <speed>0.09</speed>
  <fix>3d</fix>
</trkpt>
<trkpt lat="-27.2737725" lon="151.2899045">
  <ele>354.91</ele>
  <time>2026-09-01T19:58:49Z</time>
  <course>107.49</course>
  <speed>0.08062257748298549</speed>
  <fix>3d</fix>
</trkpt>
<trkpt lat="-27.2737723" lon="151.2899047">
  <ele>355.36</ele>
  <time>2026-09-01T19:58:49Z</time>
  <course>173.36</course>
  <speed>0.09</speed>
  <fix>3d</fix>
</trkpt>
<trkpt lat="-27.2737726" lon="151.2899045">
  <ele>354.76</ele>
  <time>2026-09-01T19:58:49Z</time>
  <course>107.46</course>
  <speed>0.07071067811865475</speed>
  <fix>3d</fix>
</trkpt>
<trkpt lat="-27.2737724" lon="151.2899047">
  <ele>355.06</ele>
  <time>2026-09-01T19:58:49Z</time>
  <course>167.17</course>
  <speed>0.07</speed>
  <fix>3d</fix>
</trkpt>
<trkpt lat="-27.2737726" lon="151.2899045">
  <ele>354.61</ele>
  <time>2026-09-01T19:58:49Z</time>
  <course>107.41</course>
  <speed>0.05099019513592785</speed>
  <fix>3d</fix>
</trkpt>
<trkpt lat="-27.2737724" lon="151.2899047">
  <ele>355.06</ele>
  <time>2026-09-01T19:58:49Z</time>
  <course>167.17</course>
  <speed>0.07</speed>
  <fix>3d</fix>
</trkpt>
<trkpt lat="-27.2737726" lon="151.2899045">
  <ele>354.46</ele>
  <time>2026-09-01T19:58:49Z</time>
  <course>107.34</course>
  <speed>0.05</speed>
  <fix>3d</fix>
</trkpt>
<trkpt lat="-27.2737725" lon="151.2899047">
  <ele>354.76</ele>
  <time>2026-09-01T19:58:49Z</time>
  <course>157.7</course>
  <speed>0.05</speed>
  <fix>3d</fix>
</trkpt>
<trkpt lat="-27.2737727" lon="151.2899045">
  <ele>354.31</ele>
  <time>2026-09-01T19:58:49Z</time>
  <course>107.26</course>
  <speed>0.04</speed>
  <fix>3d</fix>
</trkpt>
<trkpt lat="-27.2737725" lon="151.2899047">
  <ele>354.76</ele>
  <time>2026-09-01T19:58:49Z</time>
  <course>157.7</course>
  <speed>0.05</speed>
  <fix>3d</fix>
</trkpt>
<trkpt lat="-27.2737727" lon="151.2899045">
  <ele>354.16</ele>
  <time>2026-09-01T19:58:49Z</time>
  <course>107.16</course>
  <speed>0.03</speed>
  <fix>3d</fix>
</trkpt>
<trkpt lat="-27.2737726" lon="151.2899047">
  <ele>354.46</ele>
  <time>2026-09-01T19:58:49Z</time>
  <course>143.81</course>
  <speed>0.03</speed>
  <fix>3d</fix>
</trkpt>
<trkpt lat="-27.2737727" lon="151.2899045">
  <ele>354.01</ele>
  <time>2026-09-01T19:58:49Z</time>
  <course>107.03</course>
  <speed>0.03</speed>
  <fix>3d</fix>
</trkpt>
<trkpt lat="-27.2737726" lon="151.2899047">
  <ele>354.46</ele>
  <time>2026-09-01T19:58:49Z</time>
  <course>143.81</course>
  <speed>0.03</speed>
  <fix>3d</fix>
</trkpt>
<trkpt lat="-27.2737727" lon="151.2899045">
  <ele>353.87</ele>
  <time>2026-09-01T19:58:49Z</time>
  <course>106.88</course>
  <speed>0.02</speed>
  <fix>3d</fix>
</trkpt>
<trkpt lat="-27.2737727" lon="151.2899048">
  <ele>354.16</ele>
  <time>2026-09-01T19:58:49Z</time>
  <course>128.3</course>
  <speed>0.03</speed>
  <fix>3d</fix>
</trkpt>
<trkpt lat="-27.2737727" lon="151.2899045">
  <ele>353.72</ele>
  <time>2026-09-01T19:58:49Z</time>
  <course>106.71</course>
  <speed>0.02</speed>
  <fix>3d</fix>
</trkpt>
<trkpt lat="-27.2737727" lon="151.2899048">
  <ele>354.16</ele>
  <time>2026-09-01T19:58:49Z</time>
  <course>128.3</course>
  <speed>0.03</speed>
  <fix>3d</fix>
</trkpt>
<trkpt lat="-27.2737727" lon="151.2899045">
  <ele>353.58</ele>
  <time>2026-09-01T19:58:49Z</time>
  <course>106.54</course>
  <speed>0.02</speed>
  <fix>3d</fix>
</trkpt>
<trkpt lat="-27.2737727" lon="151.2899048">
  <ele>353.86</ele>
  <time>2026-09-01T19:58:49Z</time>
  <course>116.22</course>
  <speed>0.02</speed>
  <fix>3d</fix>
</trkpt>
<trkpt lat="-27.2737727" lon="151.2899046">
  <ele>353.44</ele>
  <time>2026-09-01T19:58:49Z</time>
  <course>106.37</course>
  <speed>0.01414213562373095</speed>
  <fix>3d</fix>
</trkpt>
<trkpt lat="-27.2737727" lon="151.2899048">
  <ele>353.86</ele>
  <time>2026-09-01T19:58:49Z</time>
  <course>116.22</course>
  <speed>0.02</speed>
  <fix>3d</fix>
</trkpt>
<trkpt lat="-27.2737728" lon="151.2899046">
  <ele>353.3</ele>
  <time>2026-09-01T19:58:49Z</time>
  <course>106.22</course>
  <speed>0.01414213562373095</speed>
  <fix>3d</fix>
</trkpt>
<trkpt lat="-27.2737727" lon="151.2899049">
  <ele>353.58</ele>
  <time>2026-09-01T19:58:49Z</time>
  <course>108.8</course>
  <speed>0.02</speed>
  <fix>3d</fix>
</trkpt>
<trkpt lat="-27.2737728" lon="151.2899046">
  <ele>353.16</ele>
  <time>2026-09-01T19:58:49Z</time>
  <course>106.09</course>
  <speed>0.01414213562373095</speed>
  <fix>3d</fix>
</trkpt>
<trkpt lat="-27.2737727" lon="151.2899049">
  <ele>353.58</ele>
  <time>2026-09-01T19:58:49Z</time>
  <course>108.8</course>
  <speed>0.02</speed>
  <fix>3d</fix>
</trkpt>
<trkpt lat="-27.2737728" lon="151.2899046">
  <ele>353.02</ele>
  <time>2026-09-01T19:58:49Z</time>
  <course>105.99</course>
  <speed>0.01414213562373095</speed>
  <fix>3d</fix>
</trkpt>
<trkpt lat="-27.2737727" lon="151.289905">
  <ele>353.3</ele>
  <time>2026-09-01T19:58:49Z</time>
  <course>104.04</course>
  <speed>0.01</speed>
  <fix>3d</fix>
</trkpt>
<trkpt lat="-27.2737728" lon="151.2899046">
  <ele>352.89</ele>
  <time>2026-09-01T19:58:49Z</time>
  <course>105.91</course>
  <speed>0.01414213562373095</speed>
  <fix>3d</fix>
</trkpt>
<trkpt lat="-27.2737727" lon="151.289905">
  <ele>353.3</ele>
  <time>2026-09-01T19:58:49Z</time>
  <course>104.04</course>
  <speed>0.01</speed>
  <fix>3d</fix>
</trkpt>
<trkpt lat="-27.2737728" lon="151.2899046">
  <ele>352.76</ele>
  <time>2026-09-01T19:58:49Z</time>
  <course>105.86</course>
  <speed>0.022360679774997897</speed>
  <fix>3d</fix>
</trkpt>
<trkpt lat="-27.2737728" lon="151.289905">
  <ele>353.04</ele>
  <time>2026-09-01T19:58:49Z</time>
  <course>100.81</course>
  <speed>0.01</speed>
  <fix>3d</fix>
</trkpt>
<trkpt lat="-27.2737728" lon="151.2899046">
  <ele>352.64</ele>
  <time>2026-09-01T19:58:49Z</time>
  <course>105.81</course>
  <speed>0.022360679774997897</speed>
  <fix>3d</fix>
</trkpt>
<trkpt lat="-27.2737728" lon="151.289905">
  <ele>353.04</ele>
  <time>2026-09-01T19:58:49Z</time>
  <course>100.81</course>
  <speed>0.01</speed>
  <fix>3d</fix>
</trkpt>
<trkpt lat="-27.2737728" lon="151.2899046">
  <ele>352.52</ele>
  <time>2026-09-01T19:58:49Z</time>
  <course>105.77</course>
  <speed>0.022360679774997897</speed>
  <fix>3d</fix>
</trkpt>
<trkpt lat="-27.2737728" lon="151.289905">
  <ele>352.79</ele>
  <time>2026-09-01T19:58:49Z</time>
  <course>101.83</course>
  <speed>0.0</speed>
  <fix>3d</fix>
</trkpt>
<trkpt lat="-27.2737728" lon="151.2899046">
  <ele>352.4</ele>
  <time>2026-09-01T19:58:49Z</time>
  <course>105.73</course>
  <speed>0.022360679774997897</speed>
  <fix>3d</fix>
</trkpt>
<trkpt lat="-27.2737728" lon="151.289905">
  <ele>352.79</ele>
  <time>2026-09-01T19:58:49Z</time>
  <course>101.83</course>
  <speed>0.0</speed>
  <fix>3d</fix>
</trkpt>
<trkpt lat="-27.2737728" lon="151.2899046">
  <ele>352.29</ele>
  <time>2026-09-01T19:58:49Z</time>
  <course>105.69</course>
  <speed>0.0316227766016838</speed>
  <fix>3d</fix>
</trkpt>
<trkpt lat="-27.2737728" lon="151.289905">
  <ele>352.55</ele>
  <time>2026-09-01T19:58:49Z</time>
  <course>114.93</course>
  <speed>0.0</speed>
  <fix>3d</fix>
</trkpt>
<trkpt lat="-27.2737728" lon="151.2899047">
  <ele>352.17</ele>
  <time>2026-09-01T19:58:49Z</time>
  <course>105.64</course>
  <speed>0.0316227766016838</speed>
  <fix>3d</fix>
</trkpt>
<trkpt lat="-27.2737728" lon="151.289905">
  <ele>352.55</ele>
  <time>2026-09-01T19:58:49Z</time>
  <course>114.93</course>
  <speed>0.0</speed>
  <fix>3d</fix>
</trkpt>
<trkpt lat="-27.2737728" lon="151.2899047">
  <ele>352.06</ele>
  <time>2026-09-01T19:58:49Z</time>
  <course>105.61</course>
  <speed>0.0316227766016838</speed>
  <fix>3d</fix>
</trkpt>
<trkpt lat="-27.2737728" lon="151.289905">
  <ele>352.32</ele>
  <time>2026-09-01T19:58:49Z</time>
  <course>195.25</course>
  <speed>0.0</speed>
  <fix>3d</fix>
</trkpt>
<trkpt lat="-27.2737728" lon="151.2899047">
  <ele>351.95</ele>
  <time>2026-09-01T19:58:49Z</time>
  <course>105.57</course>
  <speed>0.0316227766016838</speed>
  <fix>3d</fix>
</trkpt>
<trkpt lat="-27.2737728" lon="151.289905">
  <ele>352.32</ele>
  <time>2026-09-01T19:58:49Z</time>
  <course>195.25</course>
  <speed>0.0</speed>
  <fix>3d</fix>
</trkpt>
<trkpt lat="-27.2737728" lon="151.2899047">
  <ele>351.84</ele>
  <time>2026-09-01T19:58:49Z</time>
  <course>105.54</course>
  <speed>0.0412310562561766</speed>
  <fix>3d</fix>
</trkpt>
<trkpt lat="-27.2737728" lon="151.289905">
  <ele>352.09</ele>
  <time>2026-09-01T19:58:49Z</time>
  <course>255.62</course>
  <speed>0.0</speed>
  <fix>3d</fix>
</trkpt>
<trkpt lat="-27.2737728" lon="151.2899047">
  <ele>351.74</ele>
  <time>2026-09-01T19:58:49Z</time>
  <course>105.51</course>
  <speed>0.0412310562561766</speed>
  <fix>3d</fix>
</trkpt>
<trkpt lat="-27.2737728" lon="151.289905">
  <ele>352.09</ele>
  <time>2026-09-01T19:58:49Z</time>
  <course>255.62</course>
  <speed>0.0</speed>
  <fix>3d</fix>
</trkpt>
<trkpt lat="-27.2737728" lon="151.2899047">
  <ele>351.63</ele>
  <time>2026-09-01T19:58:49Z</time>
  <course>105.49</course>
  <speed>0.0412310562561766</speed>
  <fix>3d</fix>
</trkpt>
<trkpt lat="-27.2737728" lon="151.289905">
  <ele>351.88</ele>
  <time>2026-09-01T19:58:49Z</time>
  <course>262.92</course>
  <speed>0.0</speed>
  <fix>3d</fix>
</trkpt>
<trkpt lat="-27.2737728" lon="151.2899047">
  <ele>351.53</ele>
  <time>2026-09-01T19:58:49Z</time>
  <course>105.46</course>
  <speed>0.0412310562561766</speed>
  <fix>3d</fix>
</trkpt>
<trkpt lat="-27.2737728" lon="151.289905">
  <ele>351.88</ele>
  <time>2026-09-01T19:58:49Z</time>
  <course>262.92</course>
  <speed>0.0</speed>
  <fix>3d</fix>
</trkpt>
<trkpt lat="-27.2737728" lon="151.2899047">
  <ele>351.43</ele>
  <time>2026-09-01T19:58:49Z</time>
  <course>105.43</course>
  <speed>0.0412310562561766</speed>
  <fix>3d</fix>
</trkpt>
<trkpt lat="-27.2737728" lon="151.289905">
  <ele>351.68</ele>
  <time>2026-09-01T19:58:49Z</time>
  <course>264.85</course>
  <speed>0.01</speed>
  <fix>3d</fix>
</trkpt>
<trkpt lat="-27.2737728" lon="151.2899047">
  <ele>351.34</ele>
  <time>2026-09-01T19:58:49Z</time>
  <course>105.39</course>
  <speed>0.0412310562561766</speed>
  <fix>3d</fix>
</trkpt>
<trkpt lat="-27.2737728" lon="151.289905">
  <ele>351.68</ele>
  <time>2026-09-01T19:58:49Z</time>
  <course>264.85</course>
  <speed>0.01</speed>
  <fix>3d</fix>
</trkpt>
<trkpt lat="-27.2737728" lon="151.2899047">
  <ele>351.24</ele>
  <time>2026-09-01T19:58:49Z</time>
  <course>105.36</course>
  <speed>0.05099019513592785</speed>
  <fix>3d</fix>
</trkpt>
<trkpt lat="-27.2737728" lon="151.289905">
  <ele>351.48</ele>
  <time>2026-09-01T19:58:49Z</time>
  <course>264.3</course>
  <speed>0.01</speed>
  <fix>3d</fix>
</trkpt>
<trkpt lat="-27.2737728" lon="151.2899046">
  <ele>351.14</ele>
  <time>2026-09-01T19:58:49Z</time>
  <course>105.3</course>
  <speed>0.05099019513592785</speed>
  <fix>3d</fix>
</trkpt>
<trkpt lat="-27.2737728" lon="151.289905">
  <ele>351.48</ele>
  <time>2026-09-01T19:58:49Z</time>
  <course>264.3</course>
  <speed>0.01</speed>
  <fix>3d</fix>
</trkpt>
<trkpt lat="-27.2737728" lon="151.2899046">
  <ele>351.05</ele>
  <time>2026-09-01T19:58:49Z</time>
  <course>105.24</course>
  <speed>0.05099019513592785</speed>
  <fix>3d</fix>
</trkpt>
<trkpt lat="-27.2737728" lon="151.289905">
  <ele>351.29</ele>
  <time>2026-09-01T19:58:49Z</time>
  <course>261.84</course>
  <speed>0.01</speed>
  <fix>3d</fix>
</trkpt>
<trkpt lat="-27.2737729" lon="151.2899046">
  <ele>350.96</ele>
  <time>2026-09-01T19:58:49Z</time>
  <course>105.17</course>
  <speed>0.05099019513592785</speed>
  <fix>3d</fix>
</trkpt>
<trkpt lat="-27.2737728" lon="151.289905">
  <ele>351.29</ele>
  <time>2026-09-01T19:58:49Z</time>
  <course>261.84</course>
  <speed>0.01</speed>
  <fix>3d</fix>
</trkpt>
<trkpt lat="-27.2737729" lon="151.2899046">
  <ele>350.87</ele>
  <time>2026-09-01T19:58:49Z</time>
  <course>105.11</course>
  <speed>0.053851648071345036</speed>
  <fix>3d</fix>
</trkpt>
<trkpt lat="-27.2737728" lon="151.289905">
  <ele>351.11</ele>
  <time>2026-09-01T19:58:49Z</time>
  <course>259.5</course>
  <speed>0.01</speed>
  <fix>3d</fix>
</trkpt>
<trkpt lat="-27.2737729" lon="151.2899046">
  <ele>350.78</ele>
  <time>2026-09-01T19:58:49Z</time>
  <course>105.06</course>
  <speed>0.053851648071345036</speed>
  <fix>3d</fix>
</trkpt>
<trkpt lat="-27.2737728" lon="151.289905">
  <ele>351.11</ele>
  <time>2026-09-01T19:58:49Z</time>
  <course>259.5</course>
  <speed>0.01</speed>
  <fix>3d</fix>
</trkpt>
<trkpt lat="-27.2737729" lon="151.2899046">
  <ele>350.7</ele>
  <time>2026-09-01T19:58:49Z</time>
  <course>105.02</course>
  <speed>0.053851648071345036</speed>
  <fix>3d</fix>
</trkpt>
<trkpt lat="-27.2737728" lon="151.289905">
  <ele>350.93</ele>
  <time>2026-09-01T19:58:49Z</time>
  <course>258.04</course>
  <speed>0.01</speed>
  <fix>3d</fix>
</trkpt>
<trkpt lat="-27.2737729" lon="151.2899046">
  <ele>350.61</ele>
  <time>2026-09-01T19:58:49Z</time>
  <course>104.99</course>
  <speed>0.053851648071345036</speed>
  <fix>3d</fix>
</trkpt>
<trkpt lat="-27.2737728" lon="151.289905">
  <ele>350.93</ele>
  <time>2026-09-01T19:58:49Z</time>
  <course>258.04</course>
  <speed>0.01</speed>
  <fix>3d</fix>
</trkpt>
<trkpt lat="-27.2737729" lon="151.2899046">
  <ele>350.53</ele>
  <time>2026-09-01T19:58:49Z</time>
  <course>104.97</course>
  <speed>0.053851648071345036</speed>
  <fix>3d</fix>
</trkpt>
<trkpt lat="-27.2737728" lon="151.2899049">
  <ele>350.75</ele>
  <time>2026-09-01T19:58:49Z</time>
  <course>257.02</course>
  <speed>0.01</speed>
  <fix>3d</fix>
</trkpt>
<trkpt lat="-27.2737729" lon="151.2899046">
  <ele>350.44</ele>
  <time>2026-09-01T19:58:49Z</time>
  <course>104.95</course>
  <speed>0.044721359549995794</speed>
  <fix>3d</fix>
</trkpt>
<trkpt lat="-27.2737728" lon="151.2899049">
  <ele>350.75</ele>
  <time>2026-09-01T19:58:49Z</time>
  <course>257.02</course>
  <speed>0.01</speed>
  <fix>3d</fix>
</trkpt>
<trkpt lat="-27.2737729" lon="151.2899045">
  <ele>350.36</ele>
  <time>2026-09-01T19:58:49Z</time>
  <course>104.93</course>
  <speed>0.044721359549995794</speed>
  <fix>3d</fix>
</trkpt>
<trkpt lat="-27.2737728" lon="151.2899048">
  <ele>350.59</ele>
  <time>2026-09-01T19:58:49Z</time>
  <course>256.22</course>
  <speed>0.01</speed>
  <fix>3d</fix>
</trkpt>
<trkpt lat="-27.2737729" lon="151.2899045">
  <ele>350.28</ele>
  <time>2026-09-01T19:58:49Z</time>
  <course>104.93</course>
  <speed>0.044721359549995794</speed>
  <fix>3d</fix>
</trkpt>
<trkpt lat="-27.2737728" lon="151.2899048">
  <ele>350.59</ele>
  <time>2026-09-01T19:58:49Z</time>
  <course>256.22</course>
  <speed>0.01</speed>
  <fix>3d</fix>
</trkpt>
<trkpt lat="-27.2737729" lon="151.2899045">
  <ele>350.2</ele>
  <time>2026-09-01T19:58:49Z</time>
  <course>104.94</course>
  <speed>0.0412310562561766</speed>
  <fix>3d</fix>
</trkpt>
<trkpt lat="-27.2737728" lon="151.2899048">
  <ele>350.43</ele>
  <time>2026-09-01T19:58:49Z</time>
  <course>260.71</course>
  <speed>0.01</speed>
  <fix>3d</fix>
</trkpt>
<trkpt lat="-27.2737729" lon="151.2899045">
  <ele>350.12</ele>
  <time>2026-09-01T19:58:49Z</time>
  <course>104.99</course>
  <speed>0.0412310562561766</speed>
  <fix>3d</fix>
</trkpt>
<trkpt lat="-27.2737728" lon="151.2899048">
  <ele>350.43</ele>
  <time>2026-09-01T19:58:49Z</time>
  <course>260.71</course>
  <speed>0.01</speed>
  <fix>3d</fix>
</trkpt>
<trkpt lat="-27.2737729" lon="151.2899045">
  <ele>350.05</ele>
  <time>2026-09-01T19:58:49Z</time>
  <course>105.08</course>
  <speed>0.04</speed>
  <fix>3d</fix>
</trkpt>
<trkpt lat="-27.2737728" lon="151.2899047">
  <ele>350.27</ele>
  <time>2026-09-01T19:58:49Z</time>
  <course>282.81</course>
  <speed>0.01</speed>
  <fix>3d</fix>
</trkpt>
<trkpt lat="-27.2737729" lon="151.2899045">
  <ele>349.98</ele>
  <time>2026-09-01T19:58:49Z</time>
  <course>105.2</course>
  <speed>0.04</speed>
  <fix>3d</fix>
</trkpt>
<trkpt lat="-27.2737728" lon="151.2899047">
  <ele>350.27</ele>
  <time>2026-09-01T19:58:49Z</time>
  <course>282.81</course>
  <speed>0.01</speed>
  <fix>3d</fix>
</trkpt>
<trkpt lat="-27.2737729" lon="151.2899045">
  <ele>349.91</ele>
  <time>2026-09-01T19:58:49Z</time>
  <course>105.34</course>
  <speed>0.03</speed>
  <fix>3d</fix>
</trkpt>
<trkpt lat="-27.2737728" lon="151.2899047">
  <ele>350.12</ele>
  <time>2026-09-01T19:58:49Z</time>
  <course>321.99</course>
  <speed>0.01</speed>
  <fix>3d</fix>
</trkpt>
<trkpt lat="-27.2737729" lon="151.2899045">
  <ele>349.84</ele>
  <time>2026-09-01T19:58:49Z</time>
  <course>105.49</course>
  <speed>0.0316227766016838</speed>
  <fix>3d</fix>
</trkpt>
<trkpt lat="-27.2737728" lon="151.2899047">
  <ele>350.12</ele>
  <time>2026-09-01T19:58:49Z</time>
  <course>321.99</course>
  <speed>0.01</speed>
  <fix>3d</fix>
</trkpt>
<trkpt lat="-27.2737729" lon="151.2899044">
  <ele>349.77</ele>
  <time>2026-09-01T19:58:49Z</time>
  <course>105.64</course>
  <speed>0.03605551275463989</speed>
  <fix>3d</fix>
</trkpt>
<trkpt lat="-27.2737728" lon="151.2899047">
  <ele>349.97</ele>
  <time>2026-09-01T19:58:49Z</time>
  <course>347.54</course>
  <speed>0.03</speed>
  <fix>3d</fix>
</trkpt>
<trkpt lat="-27.2737729" lon="151.2899044">
  <ele>349.7</ele>
  <time>2026-09-01T19:58:49Z</time>
  <course>105.76</course>
  <speed>0.03605551275463989</speed>
  <fix>3d</fix>
</trkpt>
<trkpt lat="-27.2737728" lon="151.2899047">
  <ele>349.97</ele>
  <time>2026-09-01T19:58:49Z</time>
  <course>347.54</course>
  <speed>0.03</speed>
  <fix>3d</fix>
</trkpt>
<trkpt lat="-27.2737728" lon="151.2899044">
  <ele>349.63</ele>
  <time>2026-09-01T19:58:49Z</time>
  <course>105.86</course>
  <speed>0.03605551275463989</speed>
  <fix>3d</fix>
</trkpt>
<trkpt lat="-27.2737728" lon="151.2899047">
  <ele>349.84</ele>
  <time>2026-09-01T19:58:49Z</time>
  <course>359.1</course>
  <speed>0.04</speed>
  <fix>3d</fix>
</trkpt>
<trkpt lat="-27.2737728" lon="151.2899044">
  <ele>349.56</ele>
  <time>2026-09-01T19:58:49Z</time>
  <course>105.94</course>
  <speed>0.044721359549995794</speed>
  <fix>3d</fix>
</trkpt>
<trkpt lat="-27.2737728" lon="151.2899047">
  <ele>349.84</ele>
  <time>2026-09-01T19:58:49Z</time>
  <course>359.1</course>
  <speed>0.04</speed>
  <fix>3d</fix>
</trkpt>
<trkpt lat="-27.2737727" lon="151.2899045">
  <ele>349.5</ele>
  <time>2026-09-01T19:58:49Z</time>
  <course>105.98</course>
  <speed>0.053851648071345036</speed>
  <fix>3d</fix>
</trkpt>
<trkpt lat="-27.2737727" lon="151.2899047">
  <ele>349.71</ele>
  <time>2026-09-01T19:58:49Z</time>
  <course>5.09</course>
  <speed>0.06</speed>
  <fix>3d</fix>
</trkpt>
<trkpt lat="-27.2737727" lon="151.2899045">
  <ele>349.44</ele>
  <time>2026-09-01T19:58:49Z</time>
  <course>106.0</course>
  <speed>0.05099019513592785</speed>
  <fix>3d</fix>
</trkpt>
<trkpt lat="-27.2737727" lon="151.2899047">
  <ele>349.71</ele>
  <time>2026-09-01T19:58:49Z</time>
  <course>5.09</course>
  <speed>0.06</speed>
  <fix>3d</fix>
</trkpt>
<trkpt lat="-27.2737726" lon="151.2899045">
  <ele>349.37</ele>
  <time>2026-09-01T19:58:49Z</time>
  <course>106.01</course>
  <speed>0.06082762530298219</speed>
  <fix>3d</fix>
</trkpt>
<trkpt lat="-27.2737725" lon="151.2899047">
  <ele>349.58</ele>
  <time>2026-09-01T19:58:49Z</time>
  <course>8.97</course>
  <speed>0.07</speed>
  <fix>3d</fix>
</trkpt>
<trkpt lat="-27.2737725" lon="151.2899045">
  <ele>349.31</ele>
  <time>2026-09-01T19:58:49Z</time>
  <course>106.01</course>
  <speed>0.07071067811865475</speed>
  <fix>3d</fix>
</trkpt>
<trkpt lat="-27.2737725" lon="151.2899047">
  <ele>349.58</ele>
  <time>2026-09-01T19:58:49Z</time>
  <course>8.97</course>
  <speed>0.07</speed>
  <fix>3d</fix>
</trkpt>
<trkpt lat="-27.2737725" lon="151.2899045">
  <ele>349.25</ele>
  <time>2026-09-01T19:58:49Z</time>
  <course>106.01</course>
  <speed>0.07</speed>
  <fix>3d</fix>
</trkpt>
<trkpt lat="-27.2737724" lon="151.2899047">
  <ele>349.45</ele>
  <time>2026-09-01T19:58:49Z</time>
  <course>11.53</course>
  <speed>0.08</speed>
  <fix>3d</fix>
</trkpt>
<trkpt lat="-27.2737724" lon="151.2899045">
  <ele>349.19</ele>
  <time>2026-09-01T19:58:49Z</time>
  <course>106.02</course>
  <speed>0.08</speed>
  <fix>3d</fix>
</trkpt>
<trkpt lat="-27.2737724" lon="151.2899047">
  <ele>349.45</ele>
  <time>2026-09-01T19:58:49Z</time>
  <course>11.53</course>
  <speed>0.08</speed>
  <fix>3d</fix>
</trkpt>
<trkpt lat="-27.2737723" lon="151.2899045">
  <ele>349.13</ele>
  <time>2026-09-01T19:58:49Z</time>
  <course>106.03</course>
  <speed>0.08</speed>
  <fix>3d</fix>
</trkpt>
<trkpt lat="-27.2737723" lon="151.2899047">
  <ele>349.33</ele>
  <time>2026-09-01T19:58:49Z</time>
  <course>13.19</course>
  <speed>0.1</speed>
  <fix>3d</fix>
</trkpt>
<trkpt lat="-27.2737722" lon="151.2899045">
  <ele>349.07</ele>
  <time>2026-09-01T19:58:49Z</time>
  <course>106.05</course>
  <speed>0.09</speed>
  <fix>3d</fix>
</trkpt>
<trkpt lat="-27.2737723" lon="151.2899047">
  <ele>349.33</ele>
  <time>2026-09-01T19:58:49Z</time>
  <course>13.19</course>
  <speed>0.1</speed>
  <fix>3d</fix>
</trkpt>
<trkpt lat="-27.2737721" lon="151.2899045">
  <ele>349.01</ele>
  <time>2026-09-01T19:58:49Z</time>
  <course>106.07</course>
  <speed>0.09</speed>
  <fix>3d</fix>
</trkpt>
<trkpt lat="-27.2737721" lon="151.2899047">
  <ele>349.22</ele>
  <time>2026-09-01T19:58:49Z</time>
  <course>14.23</course>
  <speed>0.11</speed>
  <fix>3d</fix>
</trkpt>
<trkpt lat="-27.273772" lon="151.2899045">
  <ele>348.96</ele>
  <time>2026-09-01T19:58:49Z</time>
  <course>106.09</course>
  <speed>0.09</speed>
  <fix>3d</fix>
</trkpt>
<trkpt lat="-27.2737721" lon="151.2899047">
  <ele>349.22</ele>
  <time>2026-09-01T19:58:49Z</time>
  <course>14.23</course>
  <speed>0.11</speed>
  <fix>3d</fix>
</trkpt>
<trkpt lat="-27.2737719" lon="151.2899046">
  <ele>348.9</ele>
  <time>2026-09-01T19:58:49Z</time>
  <course>106.13</course>
  <speed>0.1</speed>
  <fix>3d</fix>
</trkpt>
<trkpt lat="-27.2737719" lon="151.2899048">
  <ele>349.1</ele>
  <time>2026-09-01T19:58:49Z</time>
  <course>14.81</course>
  <speed>0.12</speed>
  <fix>3d</fix>
</trkpt>
<trkpt lat="-27.2737718" lon="151.2899046">
  <ele>348.85</ele>
  <time>2026-09-01T19:58:49Z</time>
  <course>106.16</course>
  <speed>0.1</speed>
  <fix>3d</fix>
</trkpt>
<trkpt lat="-27.2737719" lon="151.2899048">
  <ele>349.1</ele>
  <time>2026-09-01T19:58:49Z</time>
  <course>14.81</course>
  <speed>0.12</speed>
  <fix>3d</fix>
</trkpt>
<trkpt lat="-27.2737717" lon="151.2899046">
  <ele>348.79</ele>
  <time>2026-09-01T19:58:49Z</time>
  <course>106.18</course>
  <speed>0.1</speed>
  <fix>3d</fix>
</trkpt>
<trkpt lat="-27.2737716" lon="151.2899049">
  <ele>349.0</ele>
  <time>2026-09-01T19:58:49Z</time>
  <course>15.33</course>
  <speed>0.12</speed>
  <fix>3d</fix>
</trkpt>
<trkpt lat="-27.2737716" lon="151.2899046">
  <ele>348.74</ele>
  <time>2026-09-01T19:58:49Z</time>
  <course>106.2</course>
  <speed>0.1</speed>
  <fix>3d</fix>
</trkpt>
<trkpt lat="-27.2737716" lon="151.2899049">
  <ele>349.0</ele>
  <time>2026-09-01T19:58:49Z</time>
  <course>15.33</course>
  <speed>0.12</speed>
  <fix>3d</fix>
</trkpt>
<trkpt lat="-27.2737715" lon="151.2899047">
  <ele>348.69</ele>
  <time>2026-09-01T19:58:49Z</time>
  <course>106.22</course>
  <speed>0.1</speed>
  <fix>3d</fix>
</trkpt>
<trkpt lat="-27.2737714" lon="151.289905">
  <ele>348.89</ele>
  <time>2026-09-01T19:58:49Z</time>
  <course>16.02</course>
  <speed>0.13</speed>
  <fix>3d</fix>
</trkpt>
<trkpt lat="-27.2737714" lon="151.2899047">
  <ele>348.64</ele>
  <time>2026-09-01T19:58:49Z</time>
  <course>106.24</course>
  <speed>0.1</speed>
  <fix>3d</fix>
</trkpt>
<trkpt lat="-27.2737714" lon="151.289905">
  <ele>348.89</ele>
  <time>2026-09-01T19:58:49Z</time>
  <course>16.02</course>
  <speed>0.13</speed>
  <fix>3d</fix>
</trkpt>
<trkpt lat="-27.2737713" lon="151.2899047">
  <ele>348.59</ele>
  <time>2026-09-01T19:58:49Z</time>
  <course>106.26</course>
  <speed>0.1</speed>
  <fix>3d</fix>
</trkpt>
<trkpt lat="-27.2737712" lon="151.2899051">
  <ele>348.78</ele>
  <time>2026-09-01T19:58:49Z</time>
  <course>16.86</course>
  <speed>0.13</speed>
  <fix>3d</fix>
</trkpt>
<trkpt lat="-27.2737712" lon="151.2899048">
  <ele>348.54</ele>
  <time>2026-09-01T19:58:49Z</time>
  <course>106.27</course>
  <speed>0.1</speed>
  <fix>3d</fix>
</trkpt>
<trkpt lat="-27.2737712" lon="151.2899051">
  <ele>348.78</ele>
  <time>2026-09-01T19:58:49Z</time>
  <course>16.86</course>
  <speed>0.13</speed>
  <fix>3d</fix>
</trkpt>
<trkpt lat="-27.2737711" lon="151.2899048">
  <ele>348.49</ele>
  <time>2026-09-01T19:58:49Z</time>
  <course>106.28</course>
  <speed>0.1</speed>
  <fix>3d</fix>
</trkpt>
<trkpt lat="-27.2737709" lon="151.2899051">
  <ele>348.69</ele>
  <time>2026-09-01T19:58:49Z</time>
  <course>17.71</course>
  <speed>0.12</speed>
  <fix>3d</fix>
</trkpt>
<trkpt lat="-27.2737709" lon="151.2899049">
  <ele>348.44</ele>
  <time>2026-09-01T19:58:49Z</time>
  <course>106.3</course>
  <speed>0.1</speed>
  <fix>3d</fix>
</trkpt>
<trkpt lat="-27.2737709" lon="151.2899051">
  <ele>348.69</ele>
  <time>2026-09-01T19:58:49Z</time>
  <course>17.71</course>
  <speed>0.12</speed>
  <fix>3d</fix>
</trkpt>
<trkpt lat="-27.2737708" lon="151.2899049">
  <ele>348.39</ele>
  <time>2026-09-01T19:58:49Z</time>
  <course>106.31</course>
  <speed>0.09</speed>
  <fix>3d</fix>
</trkpt>
<trkpt lat="-27.2737708" lon="151.2899052">
  <ele>348.59</ele>
  <time>2026-09-01T19:58:49Z</time>
  <course>18.68</course>
  <speed>0.12</speed>
  <fix>3d</fix>
</trkpt>
<trkpt lat="-27.2737707" lon="151.2899049">
  <ele>348.34</ele>
  <time>2026-09-01T19:58:49Z</time>
  <course>106.31</course>
  <speed>0.09</speed>
  <fix>3d</fix>
</trkpt>
<trkpt lat="-27.2737708" lon="151.2899052">
  <ele>348.59</ele>
  <time>2026-09-01T19:58:49Z</time>
  <course>18.68</course>
  <speed>0.12</speed>
  <fix>3d</fix>
</trkpt>
<trkpt lat="-27.2737706" lon="151.289905">
  <ele>348.29</ele>
  <time>2026-09-01T19:58:49Z</time>
  <course>106.32</course>
  <speed>0.09</speed>
  <fix>3d</fix>
</trkpt>
<trkpt lat="-27.2737706" lon="151.2899053">
  <ele>348.5</ele>
  <time>2026-09-01T19:58:49Z</time>
  <course>19.89</course>
  <speed>0.11</speed>
  <fix>3d</fix>
</trkpt>
<trkpt lat="-27.2737705" lon="151.289905">
  <ele>348.24</ele>
  <time>2026-09-01T19:58:49Z</time>
  <course>106.33</course>
  <speed>0.08</speed>
  <fix>3d</fix>
</trkpt>
<trkpt lat="-27.2737706" lon="151.2899053">
  <ele>348.5</ele>
  <time>2026-09-01T19:58:49Z</time>
  <course>19.89</course>
  <speed>0.11</speed>
  <fix>3d</fix>
</trkpt>
<trkpt lat="-27.2737705" lon="151.2899051">
  <ele>348.19</ele>
  <time>2026-09-01T19:58:49Z</time>
  <course>106.34</course>
  <speed>0.08</speed>
  <fix>3d</fix>
</trkpt>
<trkpt lat="-27.2737703" lon="151.2899054">
  <ele>348.4</ele>
  <time>2026-09-01T19:58:49Z</time>
  <course>21.37</course>
  <speed>0.11</speed>
  <fix>3d</fix>
</trkpt>
<trkpt lat="-27.2737704" lon="151.2899051">
  <ele>348.15</ele>
  <time>2026-09-01T19:58:49Z</time>
  <course>106.36</course>
  <speed>0.07</speed>
  <fix>3d</fix>
</trkpt>
<trkpt lat="-27.2737703" lon="151.2899054">
  <ele>348.4</ele>
  <time>2026-09-01T19:58:49Z</time>
  <course>21.37</course>
  <speed>0.11</speed>
  <fix>3d</fix>
</trkpt>
<trkpt lat="-27.2737703" lon="151.2899051">
  <ele>348.1</ele>
  <time>2026-09-01T19:58:49Z</time>
  <course>106.37</course>
  <speed>0.07</speed>
  <fix>3d</fix>
</trkpt>
<trkpt lat="-27.2737702" lon="151.2899055">
  <ele>348.3</ele>
  <time>2026-09-01T19:58:49Z</time>
  <course>23.03</course>
  <speed>0.1</speed>
  <fix>3d</fix>
</trkpt>
<trkpt lat="-27.2737702" lon="151.2899052">
  <ele>348.05</ele>
  <time>2026-09-01T19:58:49Z</time>
  <course>106.38</course>
  <speed>0.06</speed>
  <fix>3d</fix>
</trkpt>
<trkpt lat="-27.2737702" lon="151.2899055">
  <ele>348.3</ele>
  <time>2026-09-01T19:58:49Z</time>
  <course>23.03</course>
  <speed>0.1</speed>
  <fix>3d</fix>
</trkpt>
<trkpt lat="-27.2737701" lon="151.2899052">
  <ele>348.0</ele>
  <time>2026-09-01T19:58:49Z</time>
  <course>106.38</course>
  <speed>0.05</speed>
  <fix>3d</fix>
</trkpt>
<trkpt lat="-27.27377" lon="151.2899055">
  <ele>348.2</ele>
  <time>2026-09-01T19:58:49Z</time>
  <course>25.02</course>
  <speed>0.09</speed>
  <fix>3d</fix>
</trkpt>
<trkpt lat="-27.2737701" lon="151.2899053">
  <ele>347.95</ele>
  <time>2026-09-01T19:58:49Z</time>
  <course>106.39</course>
  <speed>0.05</speed>
  <fix>3d</fix>
</trkpt>
<trkpt lat="-27.27377" lon="151.2899055">
  <ele>348.2</ele>
  <time>2026-09-01T19:58:49Z</time>
  <course>25.02</course>
  <speed>0.09</speed>
  <fix>3d</fix>
</trkpt>
<trkpt lat="-27.27377" lon="151.2899053">
  <ele>347.9</ele>
  <time>2026-09-01T19:58:49Z</time>
  <course>106.39</course>
  <speed>0.04</speed>
  <fix>3d</fix>
</trkpt>
<trkpt lat="-27.2737698" lon="151.2899056">
  <ele>348.09</ele>
  <time>2026-09-01T19:58:49Z</time>
  <course>27.71</course>
  <speed>0.07</speed>
  <fix>3d</fix>
</trkpt>
<trkpt lat="-27.27377" lon="151.2899053">
  <ele>347.85</ele>
  <time>2026-09-01T19:58:49Z</time>
  <course>106.39</course>
  <speed>0.03</speed>
  <fix>3d</fix>
</trkpt>
<trkpt lat="-27.2737698" lon="151.2899056">
  <ele>348.09</ele>
  <time>2026-09-01T19:58:49Z</time>
  <course>27.71</course>
  <speed>0.07</speed>
  <fix>3d</fix>
</trkpt>
<trkpt lat="-27.2737699" lon="151.2899053">
  <ele>347.8</ele>
  <time>2026-09-01T19:58:49Z</time>
  <course>106.4</course>
  <speed>0.03</speed>
  <fix>3d</fix>
</trkpt>
<trkpt lat="-27.2737697" lon="151.2899057">
  <ele>348.0</ele>
  <time>2026-09-01T19:58:49Z</time>
  <course>31.91</course>
  <speed>0.06</speed>
  <fix>3d</fix>
</trkpt>
<trkpt lat="-27.2737699" lon="151.2899054">
  <ele>347.75</ele>
  <time>2026-09-01T19:58:49Z</time>
  <course>106.41</course>
  <speed>0.02</speed>
  <fix>3d</fix>
</trkpt>
<trkpt lat="-27.2737697" lon="151.2899057">
  <ele>348.0</ele>
  <time>2026-09-01T19:58:49Z</time>
  <course>31.91</course>
  <speed>0.06</speed>
  <fix>3d</fix>
</trkpt>
<trkpt lat="-27.2737698" lon="151.2899054">
  <ele>347.7</ele>
  <time>2026-09-01T19:58:49Z</time>
  <course>106.42</course>
  <speed>0.01</speed>
  <fix>3d</fix>
</trkpt>
<trkpt lat="-27.2737696" lon="151.2899057">
  <ele>347.9</ele>
  <time>2026-09-01T19:58:49Z</time>
  <course>38.61</course>
  <speed>0.05</speed>
  <fix>3d</fix>
</trkpt>
<trkpt lat="-27.2737698" lon="151.2899055">
  <ele>347.65</ele>
  <time>2026-09-01T19:58:49Z</time>
  <course>106.44</course>
  <speed>0.01</speed>
  <fix>3d</fix>
</trkpt>
<trkpt lat="-27.2737696" lon="151.2899057">
  <ele>347.9</ele>
  <time>2026-09-01T19:58:49Z</time>
  <course>38.61</course>
  <speed>0.05</speed>
  <fix>3d</fix>
</trkpt>
<trkpt lat="-27.2737698" lon="151.2899055">
  <ele>347.6</ele>
  <time>2026-09-01T19:58:49Z</time>
  <course>106.46</course>
  <speed>0.0</speed>
  <fix>3d</fix>
</trkpt>
<trkpt lat="-27.2737696" lon="151.2899058">
  <ele>347.8</ele>
  <time>2026-09-01T19:58:49Z</time>
  <course>47.99</course>
  <speed>0.04</speed>
  <fix>3d</fix>
</trkpt>
<trkpt lat="-27.2737697" lon="151.2899055">
  <ele>347.55</ele>
  <time>2026-09-01T19:58:50Z</time>
  <course>106.47</course>
  <speed>0.0</speed>
  <fix>3d</fix>
</trkpt>
<trkpt lat="-27.2737696" lon="151.2899058">
  <ele>347.8</ele>
  <time>2026-09-01T19:58:50Z</time>
  <course>47.99</course>
  <speed>0.04</speed>
  <fix>3d</fix>
</trkpt>
<trkpt lat="-27.2737697" lon="151.2899055">
  <ele>347.5</ele>
  <time>2026-09-01T19:58:50Z</time>
  <course>106.49</course>
  <speed>0.0</speed>
  <fix>3d</fix>
</trkpt>
<trkpt lat="-27.2737696" lon="151.2899058">
  <ele>347.7</ele>
  <time>2026-09-01T19:58:50Z</time>
  <course>61.22</course>
  <speed>0.03</speed>
  <fix>3d</fix>
</trkpt>
<trkpt lat="-27.2737697" lon="151.2899056">
  <ele>347.45</ele>
  <time>2026-09-01T19:58:50Z</time>
  <course>106.52</course>
  <speed>0.01</speed>
  <fix>3d</fix>
</trkpt>
<trkpt lat="-27.2737696" lon="151.2899058">
  <ele>347.7</ele>
  <time>2026-09-01T19:58:50Z</time>
  <course>61.22</course>
  <speed>0.03</speed>
  <fix>3d</fix>
</trkpt>
<trkpt lat="-27.2737697" lon="151.2899056">
  <ele>347.4</ele>
  <time>2026-09-01T19:58:50Z</time>
  <course>106.55</course>
  <speed>0.01</speed>
  <fix>3d</fix>
</trkpt>
<trkpt lat="-27.2737696" lon="151.2899059">
  <ele>347.59</ele>
  <time>2026-09-01T19:58:50Z</time>
  <course>81.16</course>
  <speed>0.02</speed>
  <fix>3d</fix>
</trkpt>
<trkpt lat="-27.2737697" lon="151.2899056">
  <ele>347.35</ele>
  <time>2026-09-01T19:58:50Z</time>
  <course>106.59</course>
  <speed>0.022360679774997897</speed>
  <fix>3d</fix>
</trkpt>
<trkpt lat="-27.2737696" lon="151.2899059">
  <ele>347.59</ele>
  <time>2026-09-01T19:58:50Z</time>
  <course>81.16</course>
  <speed>0.02</speed>
  <fix>3d</fix>
</trkpt>
<trkpt lat="-27.2737697" lon="151.2899056">
  <ele>347.3</ele>
  <time>2026-09-01T19:58:50Z</time>
  <course>106.64</course>
  <speed>0.022360679774997897</speed>
  <fix>3d</fix>
</trkpt>
<trkpt lat="-27.2737696" lon="151.289906">
  <ele>347.5</ele>
  <time>2026-09-01T19:58:50Z</time>
  <course>106.53</course>
  <speed>0.02</speed>
  <fix>3d</fix>
</trkpt>
<trkpt lat="-27.2737697" lon="151.2899056">
  <ele>347.25</ele>
  <time>2026-09-01T19:58:50Z</time>
  <course>106.69</course>
  <speed>0.0316227766016838</speed>
  <fix>3d</fix>
</trkpt>
<trkpt lat="-27.2737696" lon="151.289906">
  <ele>347.5</ele>
  <time>2026-09-01T19:58:50Z</time>
  <course>106.53</course>
  <speed>0.02</speed>
  <fix>3d</fix>
</trkpt>
<trkpt lat="-27.2737697" lon="151.2899056">
  <ele>347.2</ele>
  <time>2026-09-01T19:58:50Z</time>
  <course>106.73</course>
  <speed>0.0316227766016838</speed>
  <fix>3d</fix>
</trkpt>
<trkpt lat="-27.2737696" lon="151.289906">
  <ele>347.4</ele>
  <time>2026-09-01T19:58:50Z</time>
  <course>128.86</course>
  <speed>0.02</speed>
  <fix>3d</fix>
</trkpt>
<trkpt lat="-27.2737697" lon="151.2899057">
  <ele>347.15</ele>
  <time>2026-09-01T19:58:50Z</time>
  <course>106.77</course>
  <speed>0.0316227766016838</speed>
  <fix>3d</fix>
</trkpt>
<trkpt lat="-27.2737696" lon="151.289906">
  <ele>347.4</ele>
  <time>2026-09-01T19:58:50Z</time>
  <course>128.86</course>
  <speed>0.02</speed>
  <fix>3d</fix>
</trkpt>
<trkpt lat="-27.2737697" lon="151.2899057">
  <ele>347.1</ele>
  <time>2026-09-01T19:58:50Z</time>
  <course>106.81</course>
  <speed>0.0412310562561766</speed>
  <fix>3d</fix>
</trkpt>
<trkpt lat="-27.2737696" lon="151.2899061">
  <ele>347.29</ele>
  <time>2026-09-01T19:58:50Z</time>
  <course>143.81</course>
  <speed>0.02</speed>
  <fix>3d</fix>
</trkpt>
<trkpt lat="-27.2737697" lon="151.2899057">
  <ele>347.04</ele>
  <time>2026-09-01T19:58:50Z</time>
  <course>106.85</course>
  <speed>0.0412310562561766</speed>
  <fix>3d</fix>
</trkpt>
<trkpt lat="-27.2737696" lon="151.2899061">
  <ele>347.29</ele>
  <time>2026-09-01T19:58:50Z</time>
  <course>143.81</course>
  <speed>0.02</speed>
  <fix>3d</fix>
</trkpt>
<trkpt lat="-27.2737698" lon="151.2899057">
  <ele>346.99</ele>
  <time>2026-09-01T19:58:50Z</time>
  <course>106.87</course>
  <speed>0.044721359549995794</speed>
  <fix>3d</fix>
</trkpt>
<trkpt lat="-27.2737696" lon="151.2899061">
  <ele>347.19</ele>
  <time>2026-09-01T19:58:50Z</time>
  <course>153.93</course>
  <speed>0.03</speed>
  <fix>3d</fix>
</trkpt>
<trkpt lat="-27.2737698" lon="151.2899057">
  <ele>346.94</ele>
  <time>2026-09-01T19:58:50Z</time>
  <course>106.89</course>
  <speed>0.044721359549995794</speed>
  <fix>3d</fix>
</trkpt>
<trkpt lat="-27.2737696" lon="151.2899061">
  <ele>347.19</ele>
  <time>2026-09-01T19:58:50Z</time>
  <course>153.93</course>
  <speed>0.03</speed>
  <fix>3d</fix>
</trkpt>
<trkpt lat="-27.2737698" lon="151.2899057">
  <ele>346.89</ele>
  <time>2026-09-01T19:58:50Z</time>
  <course>106.89</course>
  <speed>0.053851648071345036</speed>
  <fix>3d</fix>
</trkpt>
<trkpt lat="-27.2737696" lon="151.2899061">
  <ele>347.09</ele>
  <time>2026-09-01T19:58:50Z</time>
  <course>162.11</course>
  <speed>0.03</speed>
  <fix>3d</fix>
</trkpt>
<trkpt lat="-27.2737698" lon="151.2899058">
  <ele>346.84</ele>
  <time>2026-09-01T19:58:50Z</time>
  <course>106.89</course>
  <speed>0.053851648071345036</speed>
  <fix>3d</fix>
</trkpt>
<trkpt lat="-27.2737696" lon="151.2899061">
  <ele>347.09</ele>
  <time>2026-09-01T19:58:50Z</time>
  <course>162.11</course>
  <speed>0.03</speed>
  <fix>3d</fix>
</trkpt>
<trkpt lat="-27.2737699" lon="151.2899058">
  <ele>346.79</ele>
  <time>2026-09-01T19:58:50Z</time>
  <course>106.89</course>
  <speed>0.053851648071345036</speed>
  <fix>3d</fix>
</trkpt>
<trkpt lat="-27.2737697" lon="151.2899062">
  <ele>346.99</ele>
  <time>2026-09-01T19:58:50Z</time>
  <course>168.63</course>
  <speed>0.03</speed>
  <fix>3d</fix>
</trkpt>
<trkpt lat="-27.2737699" lon="151.2899058">
  <ele>346.74</ele>
  <time>2026-09-01T19:58:50Z</time>
  <course>106.9</course>
  <speed>0.053851648071345036</speed>
  <fix>3d</fix>
</trkpt>
<trkpt lat="-27.2737697" lon="151.2899062">
  <ele>346.99</ele>
  <time>2026-09-01T19:58:50Z</time>
  <course>168.63</course>
  <speed>0.03</speed>
  <fix>3d</fix>
</trkpt>
<trkpt lat="-27.2737699" lon="151.2899058">
  <ele>346.69</ele>
  <time>2026-09-01T19:58:50Z</time>
  <course>106.9</course>
  <speed>0.053851648071345036</speed>
  <fix>3d</fix>
</trkpt>
<trkpt lat="-27.2737697" lon="151.2899062">
  <ele>346.89</ele>
  <time>2026-09-01T19:58:50Z</time>
  <course>173.75</course>
  <speed>0.04</speed>
  <fix>3d</fix>
</trkpt>
<trkpt lat="-27.27377" lon="151.2899058">
  <ele>346.64</ele>
  <time>2026-09-01T19:58:50Z</time>
  <course>106.91</course>
  <speed>0.053851648071345036</speed>
  <fix>3d</fix>
</trkpt>
<trkpt lat="-27.2737697" lon="151.2899062">
  <ele>346.89</ele>
  <time>2026-09-01T19:58:50Z</time>
  <course>173.75</course>
  <speed>0.04</speed>
  <fix>3d</fix>
</trkpt>
<trkpt lat="-27.27377" lon="151.2899058">
  <ele>346.59</ele>
  <time>2026-09-01T19:58:50Z</time>
  <course>106.91</course>
  <speed>0.05830951894845301</speed>
  <fix>3d</fix>
</trkpt>
<trkpt lat="-27.2737698" lon="151.2899062">
  <ele>346.78</ele>
  <time>2026-09-01T19:58:50Z</time>
  <course>178.0</course>
  <speed>0.04</speed>
  <fix>3d</fix>
</trkpt>
<trkpt lat="-27.27377" lon="151.2899058">
  <ele>346.54</ele>
  <time>2026-09-01T19:58:50Z</time>
  <course>106.92</course>
  <speed>0.05830951894845301</speed>
  <fix>3d</fix>
</trkpt>
<trkpt lat="-27.2737698" lon="151.2899062">
  <ele>346.78</ele>
  <time>2026-09-01T19:58:50Z</time>
  <course>178.0</course>
  <speed>0.04</speed>
  <fix>3d</fix>
</trkpt>
<trkpt lat="-27.2737701" lon="151.2899058">
  <ele>346.49</ele>
  <time>2026-09-01T19:58:50Z</time>
  <course>106.92</course>
  <speed>0.05830951894845301</speed>
  <fix>3d</fix>
</trkpt>
<trkpt lat="-27.2737699" lon="151.2899062">
  <ele>346.69</ele>
  <time>2026-09-01T19:58:50Z</time>
  <course>181.64</course>
  <speed>0.04</speed>
  <fix>3d</fix>
</trkpt>
<trkpt lat="-27.2737701" lon="151.2899058">
  <ele>346.44</ele>
  <time>2026-09-01T19:58:50Z</time>
  <course>106.92</course>
  <speed>0.05830951894845301</speed>
  <fix>3d</fix>
</trkpt>
<trkpt lat="-27.2737699" lon="151.2899062">
  <ele>346.69</ele>
  <time>2026-09-01T19:58:50Z</time>
  <course>181.64</course>
  <speed>0.04</speed>
  <fix>3d</fix>
</trkpt>
<trkpt lat="-27.2737701" lon="151.2899058">
  <ele>346.4</ele>
  <time>2026-09-01T19:58:50Z</time>
  <course>106.93</course>
  <speed>0.05830951894845301</speed>
  <fix>3d</fix>
</trkpt>
<trkpt lat="-27.27377" lon="151.2899062">
  <ele>346.59</ele>
  <time>2026-09-01T19:58:50Z</time>
  <course>184.63</course>
  <speed>0.04</speed>
  <fix>3d</fix>
</trkpt>
<trkpt lat="-27.2737702" lon="151.2899058">
  <ele>346.35</ele>
  <time>2026-09-01T19:58:50Z</time>
  <course>106.93</course>
  <speed>0.05830951894845301</speed>
  <fix>3d</fix>
</trkpt>
<trkpt lat="-27.27377" lon="151.2899062">
  <ele>346.59</ele>
  <time>2026-09-01T19:58:50Z</time>
  <course>184.63</course>
  <speed>0.04</speed>
  <fix>3d</fix>
</trkpt>
<trkpt lat="-27.2737702" lon="151.2899058">
  <ele>346.3</ele>
  <time>2026-09-01T19:58:50Z</time>
  <course>106.94</course>
  <speed>0.05830951894845301</speed>
  <fix>3d</fix>
</trkpt>
<trkpt lat="-27.2737701" lon="151.2899062">
  <ele>346.49</ele>
  <time>2026-09-01T19:58:50Z</time>
  <course>186.79</course>
  <speed>0.04</speed>
  <fix>3d</fix>
</trkpt>
<trkpt lat="-27.2737702" lon="151.2899058">
  <ele>346.25</ele>
  <time>2026-09-01T19:58:50Z</time>
  <course>106.94</course>
  <speed>0.05830951894845301</speed>
  <fix>3d</fix>
</trkpt>
<trkpt lat="-27.2737701" lon="151.2899062">
  <ele>346.49</ele>
  <time>2026-09-01T19:58:50Z</time>
  <course>186.79</course>
  <speed>0.04</speed>
  <fix>3d</fix>
</trkpt>
<trkpt lat="-27.2737703" lon="151.2899058">
  <ele>346.2</ele>
  <time>2026-09-01T19:58:50Z</time>
  <course>106.95</course>
  <speed>0.05830951894845301</speed>
  <fix>3d</fix>
</trkpt>
<trkpt lat="-27.2737701" lon="151.2899062">
  <ele>346.39</ele>
  <time>2026-09-01T19:58:50Z</time>
  <course>188.2</course>
  <speed>0.04</speed>
  <fix>3d</fix>
</trkpt>
<trkpt lat="-27.2737703" lon="151.2899058">
  <ele>346.15</ele>
  <time>2026-09-01T19:58:50Z</time>
  <course>106.96</course>
  <speed>0.05830951894845301</speed>
  <fix>3d</fix>
</trkpt>
<trkpt lat="-27.2737701" lon="151.2899062">
  <ele>346.39</ele>
  <time>2026-09-01T19:58:50Z</time>
  <course>188.2</course>
  <speed>0.04</speed>
  <fix>3d</fix>
</trkpt>
<trkpt lat="-27.2737704" lon="151.2899058">
  <ele>346.09</ele>
  <time>2026-09-01T19:58:50Z</time>
  <course>106.97</course>
  <speed>0.05830951894845301</speed>
  <fix>3d</fix>
</trkpt>
<trkpt lat="-27.2737702" lon="151.2899062">
  <ele>346.28</ele>
  <time>2026-09-01T19:58:50Z</time>
  <course>189.3</course>
  <speed>0.04</speed>
  <fix>3d</fix>
</trkpt>
<trkpt lat="-27.2737704" lon="151.2899058">
  <ele>346.04</ele>
  <time>2026-09-01T19:58:50Z</time>
  <course>106.97</course>
  <speed>0.05830951894845301</speed>
  <fix>3d</fix>
</trkpt>
<trkpt lat="-27.2737702" lon="151.2899062">
  <ele>346.28</ele>
  <time>2026-09-01T19:58:50Z</time>
  <course>189.3</course>
  <speed>0.04</speed>
  <fix>3d</fix>
</trkpt>
<trkpt lat="-27.2737704" lon="151.2899058">
  <ele>345.99</ele>
  <time>2026-09-01T19:58:50Z</time>
  <course>106.97</course>
  <speed>0.05830951894845301</speed>
  <fix>3d</fix>
</trkpt>
<trkpt lat="-27.2737703" lon="151.2899062">
  <ele>346.19</ele>
  <time>2026-09-01T19:58:50Z</time>
  <course>190.49</course>
  <speed>0.04</speed>
  <fix>3d</fix>
</trkpt>
<trkpt lat="-27.2737705" lon="151.2899058">
  <ele>345.94</ele>
  <time>2026-09-01T19:58:50Z</time>
  <course>106.97</course>
  <speed>0.05830951894845301</speed>
  <fix>3d</fix>
</trkpt>
<trkpt lat="-27.2737703" lon="151.2899062">
  <ele>346.19</ele>
  <time>2026-09-01T19:58:50Z</time>
  <course>190.49</course>
  <speed>0.04</speed>
  <fix>3d</fix>
</trkpt>
<trkpt lat="-27.2737705" lon="151.2899058">
  <ele>345.9</ele>
  <time>2026-09-01T19:58:50Z</time>
  <course>106.97</course>
  <speed>0.05830951894845301</speed>
  <fix>3d</fix>
</trkpt>
<trkpt lat="-27.2737704" lon="151.2899062">
  <ele>346.09</ele>
  <time>2026-09-01T19:58:50Z</time>
  <course>191.94</course>
  <speed>0.04</speed>
  <fix>3d</fix>
</trkpt>
<trkpt lat="-27.2737705" lon="151.2899058">
  <ele>345.85</ele>
  <time>2026-09-01T19:58:50Z</time>
  <course>106.97</course>
  <speed>0.05830951894845301</speed>
  <fix>3d</fix>
</trkpt>
<trkpt lat="-27.2737704" lon="151.2899062">
  <ele>346.09</ele>
  <time>2026-09-01T19:58:50Z</time>
  <course>191.94</course>
  <speed>0.04</speed>
  <fix>3d</fix>
</trkpt>
<trkpt lat="-27.2737706" lon="151.2899058">
  <ele>345.8</ele>
  <time>2026-09-01T19:58:50Z</time>
  <course>106.97</course>
  <speed>0.05830951894845301</speed>
  <fix>3d</fix>
</trkpt>
<trkpt lat="-27.2737705" lon="151.2899062">
  <ele>345.99</ele>
  <time>2026-09-01T19:58:50Z</time>
  <course>193.72</course>
  <speed>0.04</speed>
  <fix>3d</fix>
</trkpt>
<trkpt lat="-27.2737706" lon="151.2899058">
  <ele>345.75</ele>
  <time>2026-09-01T19:58:50Z</time>
  <course>106.98</course>
  <speed>0.05</speed>
  <fix>3d</fix>
</trkpt>
<trkpt lat="-27.2737705" lon="151.2899062">
  <ele>345.99</ele>
  <time>2026-09-01T19:58:50Z</time>
  <course>193.72</course>
  <speed>0.04</speed>
  <fix>3d</fix>
</trkpt>
<trkpt lat="-27.2737706" lon="151.2899058">
  <ele>345.7</ele>
  <time>2026-09-01T19:58:50Z</time>
  <course>106.99</course>
  <speed>0.05</speed>
  <fix>3d</fix>
</trkpt>
<trkpt lat="-27.2737706" lon="151.2899062">
  <ele>345.89</ele>
  <time>2026-09-01T19:58:50Z</time>
  <course>195.8</course>
  <speed>0.04</speed>
  <fix>3d</fix>
</trkpt>
<trkpt lat="-27.2737707" lon="151.2899058">
  <ele>345.65</ele>
  <time>2026-09-01T19:58:50Z</time>
  <course>107.0</course>
  <speed>0.05</speed>
  <fix>3d</fix>
</trkpt>
<trkpt lat="-27.2737706" lon="151.2899062">
  <ele>345.89</ele>
  <time>2026-09-01T19:58:50Z</time>
  <course>195.8</course>
  <speed>0.04</speed>
  <fix>3d</fix>
</trkpt>
<trkpt lat="-27.2737707" lon="151.2899058">
  <ele>345.6</ele>
  <time>2026-09-01T19:58:50Z</time>
  <course>107.0</course>
  <speed>0.05</speed>
  <fix>3d</fix>
</trkpt>
<trkpt lat="-27.2737707" lon="151.2899061">
  <ele>345.78</ele>
  <time>2026-09-01T19:58:50Z</time>
  <course>198.56</course>
  <speed>0.03</speed>
  <fix>3d</fix>
</trkpt>
<trkpt lat="-27.2737707" lon="151.2899058">
  <ele>345.55</ele>
  <time>2026-09-01T19:58:50Z</time>
  <course>106.99</course>
  <speed>0.04242640687119285</speed>
  <fix>3d</fix>
</trkpt>
<trkpt lat="-27.2737707" lon="151.2899061">
  <ele>345.78</ele>
  <time>2026-09-01T19:58:50Z</time>
  <course>198.56</course>
  <speed>0.03</speed>
  <fix>3d</fix>
</trkpt>
<trkpt lat="-27.2737708" lon="151.2899058">
  <ele>345.5</ele>
  <time>2026-09-01T19:58:50Z</time>
  <course>106.99</course>
  <speed>0.04242640687119285</speed>
  <fix>3d</fix>
</trkpt>
<trkpt lat="-27.2737707" lon="151.2899061">
  <ele>345.69</ele>
  <time>2026-09-01T19:58:50Z</time>
  <course>202.69</course>
  <speed>0.03</speed>
  <fix>3d</fix>
</trkpt>
<trkpt lat="-27.2737708" lon="151.2899058">
  <ele>345.45</ele>
  <time>2026-09-01T19:58:50Z</time>
  <course>106.99</course>
  <speed>0.04242640687119285</speed>
  <fix>3d</fix>
</trkpt>
<trkpt lat="-27.2737707" lon="151.2899061">
  <ele>345.69</ele>
  <time>2026-09-01T19:58:50Z</time>
  <course>202.69</course>
  <speed>0.03</speed>
  <fix>3d</fix>
</trkpt>
<trkpt lat="-27.2737708" lon="151.2899058">
  <ele>345.4</ele>
  <time>2026-09-01T19:58:50Z</time>
  <course>106.99</course>
  <speed>0.03605551275463989</speed>
  <fix>3d</fix>
</trkpt>
<trkpt lat="-27.2737708" lon="151.2899061">
  <ele>345.58</ele>
  <time>2026-09-01T19:58:50Z</time>
  <course>208.87</course>
  <speed>0.02</speed>
  <fix>3d</fix>
</trkpt>
<trkpt lat="-27.2737708" lon="151.2899058">
  <ele>345.35</ele>
  <time>2026-09-01T19:58:50Z</time>
  <course>107.0</course>
  <speed>0.03605551275463989</speed>
  <fix>3d</fix>
</trkpt>
<trkpt lat="-27.2737708" lon="151.2899061">
  <ele>345.58</ele>
  <time>2026-09-01T19:58:50Z</time>
  <course>208.87</course>
  <speed>0.02</speed>
  <fix>3d</fix>
</trkpt>
<trkpt lat="-27.2737708" lon="151.2899058">
  <ele>345.3</ele>
  <time>2026-09-01T19:58:50Z</time>
  <course>107.02</course>
  <speed>0.03605551275463989</speed>
  <fix>3d</fix>
</trkpt>
<trkpt lat="-27.2737708" lon="151.2899061">
  <ele>345.47</ele>
  <time>2026-09-01T19:58:50Z</time>
  <course>217.96</course>
  <speed>0.02</speed>
  <fix>3d</fix>
</trkpt>
<trkpt lat="-27.2737708" lon="151.2899058">
  <ele>345.25</ele>
  <time>2026-09-01T19:58:50Z</time>
  <course>107.05</course>
  <speed>0.0316227766016838</speed>
  <fix>3d</fix>
</trkpt>
<trkpt lat="-27.2737708" lon="151.2899061">
  <ele>345.47</ele>
  <time>2026-09-01T19:58:50Z</time>
  <course>217.96</course>
  <speed>0.02</speed>
  <fix>3d</fix>
</trkpt>
<trkpt lat="-27.2737709" lon="151.2899058">
  <ele>345.2</ele>
  <time>2026-09-01T19:58:50Z</time>
  <course>107.07</course>
  <speed>0.0316227766016838</speed>
  <fix>3d</fix>
</trkpt>
<trkpt lat="-27.2737708" lon="151.289906">
  <ele>345.38</ele>
  <time>2026-09-01T19:58:50Z</time>
  <course>232.44</course>
  <speed>0.01</speed>
  <fix>3d</fix>
</trkpt>
<trkpt lat="-27.2737709" lon="151.2899058">
  <ele>345.15</ele>
  <time>2026-09-01T19:58:50Z</time>
  <course>107.09</course>
  <speed>0.0316227766016838</speed>
  <fix>3d</fix>
</trkpt>
<trkpt lat="-27.2737708" lon="151.289906">
  <ele>345.38</ele>
  <time>2026-09-01T19:58:50Z</time>
  <course>232.44</course>
  <speed>0.01</speed>
  <fix>3d</fix>
</trkpt>
<trkpt lat="-27.2737709" lon="151.2899058">
  <ele>345.1</ele>
  <time>2026-09-01T19:58:50Z</time>
  <course>107.11</course>
  <speed>0.03</speed>
  <fix>3d</fix>
</trkpt>
<trkpt lat="-27.2737709" lon="151.289906">
  <ele>345.28</ele>
  <time>2026-09-01T19:58:50Z</time>
  <course>255.11</course>
  <speed>0.01</speed>
  <fix>3d</fix>
</trkpt>
<trkpt lat="-27.2737709" lon="151.2899058">
  <ele>345.05</ele>
  <time>2026-09-01T19:58:50Z</time>
  <course>107.14</course>
  <speed>0.03</speed>
  <fix>3d</fix>
</trkpt>
<trkpt lat="-27.2737709" lon="151.289906">
  <ele>345.28</ele>
  <time>2026-09-01T19:58:50Z</time>
  <course>255.11</course>
  <speed>0.01</speed>
  <fix>3d</fix>
</trkpt>
<trkpt lat="-27.2737709" lon="151.2899057">
  <ele>345.0</ele>
  <time>2026-09-01T19:58:50Z</time>
  <course>107.16</course>
  <speed>0.03</speed>
  <fix>3d</fix>
</trkpt>
<trkpt lat="-27.2737709" lon="151.289906">
  <ele>345.17</ele>
  <time>2026-09-01T19:58:50Z</time>
  <course>279.94</course>
  <speed>0.01</speed>
  <fix>3d</fix>
</trkpt>
<trkpt lat="-27.2737709" lon="151.2899057">
  <ele>344.95</ele>
  <time>2026-09-01T19:58:50Z</time>
  <course>107.14</course>
  <speed>0.03</speed>
  <fix>3d</fix>
</trkpt>
<trkpt lat="-27.2737709" lon="151.289906">
  <ele>345.17</ele>
  <time>2026-09-01T19:58:50Z</time>
  <course>279.94</course>
  <speed>0.01</speed>
  <fix>3d</fix>
</trkpt>
<trkpt lat="-27.2737709" lon="151.2899057">
  <ele>344.9</ele>
  <time>2026-09-01T19:58:50Z</time>
  <course>107.09</course>
  <speed>0.03</speed>
  <fix>3d</fix>
</trkpt>
<trkpt lat="-27.2737709" lon="151.289906">
  <ele>345.07</ele>
  <time>2026-09-01T19:58:50Z</time>
  <course>290.05</course>
  <speed>0.01</speed>
  <fix>3d</fix>
</trkpt>
<trkpt lat="-27.2737709" lon="151.2899057">
  <ele>344.85</ele>
  <time>2026-09-01T19:58:50Z</time>
  <course>107.02</course>
  <speed>0.03</speed>
  <fix>3d</fix>
</trkpt>
<trkpt lat="-27.2737709" lon="151.289906">
  <ele>345.07</ele>
  <time>2026-09-01T19:58:50Z</time>
  <course>290.05</course>
  <speed>0.01</speed>
  <fix>3d</fix>
</trkpt>
<trkpt lat="-27.2737709" lon="151.2899057">
  <ele>344.8</ele>
  <time>2026-09-01T19:58:50Z</time>
  <course>106.95</course>
  <speed>0.03</speed>
  <fix>3d</fix>
</trkpt>
<trkpt lat="-27.2737709" lon="151.2899059">
  <ele>344.97</ele>
  <time>2026-09-01T19:58:50Z</time>
  <course>289.53</course>
  <speed>0.01</speed>
  <fix>3d</fix>
</trkpt>
<trkpt lat="-27.2737709" lon="151.2899057">
  <ele>344.75</ele>
  <time>2026-09-01T19:58:50Z</time>
  <course>106.88</course>
  <speed>0.03</speed>
  <fix>3d</fix>
</trkpt>
<trkpt lat="-27.2737709" lon="151.2899059">
  <ele>344.97</ele>
  <time>2026-09-01T19:58:50Z</time>
  <course>289.53</course>
  <speed>0.01</speed>
  <fix>3d</fix>
</trkpt>
<trkpt lat="-27.2737709" lon="151.2899057">
  <ele>344.7</ele>
  <time>2026-09-01T19:58:50Z</time>
  <course>106.82</course>
  <speed>0.03</speed>
  <fix>3d</fix>
</trkpt>
<trkpt lat="-27.2737709" lon="151.2899058">
  <ele>344.86</ele>
  <time>2026-09-01T19:58:50Z</time>
  <course>288.31</course>
  <speed>0.01</speed>
  <fix>3d</fix>
</trkpt>
<trkpt lat="-27.2737709" lon="151.2899057">
  <ele>344.65</ele>
  <time>2026-09-01T19:58:50Z</time>
  <course>106.78</course>
  <speed>0.03</speed>
  <fix>3d</fix>
</trkpt>
<trkpt lat="-27.2737709" lon="151.2899058">
  <ele>344.86</ele>
  <time>2026-09-01T19:58:50Z</time>
  <course>288.31</course>
  <speed>0.01</speed>
  <fix>3d</fix>
</trkpt>
<trkpt lat="-27.2737709" lon="151.2899056">
  <ele>344.6</ele>
  <time>2026-09-01T19:58:50Z</time>
  <course>106.76</course>
  <speed>0.04</speed>
  <fix>3d</fix>
</trkpt>
<trkpt lat="-27.2737709" lon="151.2899058">
  <ele>344.76</ele>
  <time>2026-09-01T19:58:50Z</time>
  <course>287.85</course>
  <speed>0.01</speed>
  <fix>3d</fix>
</trkpt>
<trkpt lat="-27.2737709" lon="151.2899056">
  <ele>344.55</ele>
  <time>2026-09-01T19:58:50Z</time>
  <course>106.76</course>
  <speed>0.04</speed>
  <fix>3d</fix>
</trkpt>
<trkpt lat="-27.2737709" lon="151.2899058">
  <ele>344.76</ele>
  <time>2026-09-01T19:58:50Z</time>
  <course>287.85</course>
  <speed>0.01</speed>
  <fix>3d</fix>
</trkpt>
<trkpt lat="-27.2737709" lon="151.2899056">
  <ele>344.5</ele>
  <time>2026-09-01T19:58:50Z</time>
  <course>106.78</course>
  <speed>0.0412310562561766</speed>
  <fix>3d</fix>
</trkpt>
<trkpt lat="-27.2737709" lon="151.2899058">
  <ele>344.65</ele>
  <time>2026-09-01T19:58:50Z</time>
  <course>287.88</course>
  <speed>0.01</speed>
  <fix>3d</fix>
</trkpt>
<trkpt lat="-27.2737709" lon="151.2899056">
  <ele>344.45</ele>
  <time>2026-09-01T19:58:50Z</time>
  <course>106.79</course>
  <speed>0.0316227766016838</speed>
  <fix>3d</fix>
</trkpt>
<trkpt lat="-27.2737709" lon="151.2899058">
  <ele>344.65</ele>
  <time>2026-09-01T19:58:50Z</time>
  <course>287.88</course>
  <speed>0.01</speed>
  <fix>3d</fix>
</trkpt>
<trkpt lat="-27.2737709" lon="151.2899056">
  <ele>344.4</ele>
  <time>2026-09-01T19:58:50Z</time>
  <course>106.81</course>
  <speed>0.0316227766016838</speed>
  <fix>3d</fix>
</trkpt>
<trkpt lat="-27.2737709" lon="151.2899057">
  <ele>344.56</ele>
  <time>2026-09-01T19:58:50Z</time>
  <course>287.36</course>
  <speed>0.01</speed>
  <fix>3d</fix>
</trkpt>
<trkpt lat="-27.2737709" lon="151.2899056">
  <ele>344.34</ele>
  <time>2026-09-01T19:58:50Z</time>
  <course>106.82</course>
  <speed>0.0316227766016838</speed>
  <fix>3d</fix>
</trkpt>
<trkpt lat="-27.2737709" lon="151.2899057">
  <ele>344.56</ele>
  <time>2026-09-01T19:58:50Z</time>
  <course>287.36</course>
  <speed>0.01</speed>
  <fix>3d</fix>
</trkpt>
<trkpt lat="-27.2737709" lon="151.2899055">
  <ele>344.29</ele>
  <time>2026-09-01T19:58:50Z</time>
  <course>106.82</course>
  <speed>0.0316227766016838</speed>
  <fix>3d</fix>
</trkpt>
<trkpt lat="-27.2737709" lon="151.2899057">
  <ele>344.45</ele>
  <time>2026-09-01T19:58:50Z</time>
  <course>286.61</course>
  <speed>0.01</speed>
  <fix>3d</fix>
</trkpt>
<trkpt lat="-27.2737709" lon="151.2899055">
  <ele>344.24</ele>
  <time>2026-09-01T19:58:50Z</time>
  <course>106.81</course>
  <speed>0.0316227766016838</speed>
  <fix>3d</fix>
</trkpt>
<trkpt lat="-27.2737709" lon="151.2899057">
  <ele>344.45</ele>
  <time>2026-09-01T19:58:50Z</time>
  <course>286.61</course>
  <speed>0.01</speed>
  <fix>3d</fix>
</trkpt>
<trkpt lat="-27.2737709" lon="151.2899055">
  <ele>344.19</ele>
  <time>2026-09-01T19:58:50Z</time>
  <course>106.78</course>
  <speed>0.0316227766016838</speed>
  <fix>3d</fix>
</trkpt>
<trkpt lat="-27.2737709" lon="151.2899057">
  <ele>344.34</ele>
  <time>2026-09-01T19:58:50Z</time>
  <course>285.44</course>
  <speed>0.01</speed>
  <fix>3d</fix>
</trkpt>
<trkpt lat="-27.2737709" lon="151.2899055">
  <ele>344.14</ele>
  <time>2026-09-01T19:58:50Z</time>
  <course>106.76</course>
  <speed>0.0316227766016838</speed>
  <fix>3d</fix>
</trkpt>
<trkpt lat="-27.2737709" lon="151.2899057">
  <ele>344.34</ele>
  <time>2026-09-01T19:58:50Z</time>
  <course>285.44</course>
  <speed>0.01</speed>
  <fix>3d</fix>
</trkpt>
<trkpt lat="-27.2737709" lon="151.2899055">
  <ele>344.09</ele>
  <time>2026-09-01T19:58:50Z</time>
  <course>106.74</course>
  <speed>0.0316227766016838</speed>
  <fix>3d</fix>
</trkpt>
<trkpt lat="-27.2737709" lon="151.2899057">
  <ele>344.25</ele>
  <time>2026-09-01T19:58:50Z</time>
  <course>284.67</course>
  <speed>0.0</speed>
  <fix>3d</fix>
</trkpt>
<trkpt lat="-27.2737709" lon="151.2899055">
  <ele>344.04</ele>
  <time>2026-09-01T19:58:50Z</time>
  <course>106.73</course>
  <speed>0.0316227766016838</speed>
  <fix>3d</fix>
</trkpt>
<trkpt lat="-27.2737709" lon="151.2899057">
  <ele>344.25</ele>
  <time>2026-09-01T19:58:50Z</time>
  <course>284.67</course>
  <speed>0.0</speed>
  <fix>3d</fix>
</trkpt>
<trkpt lat="-27.2737709" lon="151.2899054">
  <ele>343.99</ele>
  <time>2026-09-01T19:58:50Z</time>
  <course>106.73</course>
  <speed>0.0316227766016838</speed>
  <fix>3d</fix>
</trkpt>
<trkpt lat="-27.2737709" lon="151.2899057">
  <ele>344.15</ele>
  <time>2026-09-01T19:58:50Z</time>
  <course>284.03</course>
  <speed>0.0</speed>
  <fix>3d</fix>
</trkpt>
<trkpt lat="-27.2737709" lon="151.2899054">
  <ele>343.94</ele>
  <time>2026-09-01T19:58:50Z</time>
  <course>106.72</course>
  <speed>0.0316227766016838</speed>
  <fix>3d</fix>
</trkpt>
<trkpt lat="-27.2737709" lon="151.2899057">
  <ele>344.15</ele>
  <time>2026-09-01T19:58:50Z</time>
  <course>284.03</course>
  <speed>0.0</speed>
  <fix>3d</fix>
</trkpt>
<trkpt lat="-27.2737709" lon="151.2899054">
  <ele>343.89</ele>
  <time>2026-09-01T19:58:50Z</time>
  <course>106.72</course>
  <speed>0.0316227766016838</speed>
  <fix>3d</fix>
</trkpt>
<trkpt lat="-27.2737709" lon="151.2899057">
  <ele>344.05</ele>
  <time>2026-09-01T19:58:50Z</time>
  <course>281.37</course>
  <speed>0.0</speed>
  <fix>3d</fix>
</trkpt>
<trkpt lat="-27.2737709" lon="151.2899054">
  <ele>343.84</ele>
  <time>2026-09-01T19:58:50Z</time>
  <course>106.71</course>
  <speed>0.0316227766016838</speed>
  <fix>3d</fix>
</trkpt>
<trkpt lat="-27.2737709" lon="151.2899057">
  <ele>344.05</ele>
  <time>2026-09-01T19:58:50Z</time>
  <course>281.37</course>
  <speed>0.0</speed>
  <fix>3d</fix>
</trkpt>
<trkpt lat="-27.2737709" lon="151.2899054">
  <ele>343.79</ele>
  <time>2026-09-01T19:58:50Z</time>
  <course>106.71</course>
  <speed>0.0316227766016838</speed>
  <fix>3d</fix>
</trkpt>
<trkpt lat="-27.2737709" lon="151.2899057">
  <ele>343.95</ele>
  <time>2026-09-01T19:58:50Z</time>
  <course>274.59</course>
  <speed>0.0</speed>
  <fix>3d</fix>
</trkpt>
<trkpt lat="-27.2737709" lon="151.2899054">
  <ele>343.74</ele>
  <time>2026-09-01T19:58:50Z</time>
  <course>106.7</course>
  <speed>0.0316227766016838</speed>
  <fix>3d</fix>
</trkpt>
<trkpt lat="-27.2737709" lon="151.2899057">
  <ele>343.95</ele>
  <time>2026-09-01T19:58:50Z</time>
  <course>274.59</course>
  <speed>0.0</speed>
  <fix>3d</fix>
</trkpt>
<trkpt lat="-27.2737709" lon="151.2899054">
  <ele>343.69</ele>
  <time>2026-09-01T19:58:50Z</time>
  <course>106.7</course>
  <speed>0.0316227766016838</speed>
  <fix>3d</fix>
</trkpt>
<trkpt lat="-27.2737709" lon="151.2899057">
  <ele>343.84</ele>
  <time>2026-09-01T19:58:50Z</time>
  <course>263.95</course>
  <speed>0.0</speed>
  <fix>3d</fix>
</trkpt>
<trkpt lat="-27.2737709" lon="151.2899054">
  <ele>343.64</ele>
  <time>2026-09-01T19:58:50Z</time>
  <course>106.71</course>
  <speed>0.0316227766016838</speed>
  <fix>3d</fix>
</trkpt>
<trkpt lat="-27.2737709" lon="151.2899057">
  <ele>343.84</ele>
  <time>2026-09-01T19:58:50Z</time>
  <course>263.95</course>
  <speed>0.0</speed>
  <fix>3d</fix>
</trkpt>
<trkpt lat="-27.273771" lon="151.2899054">
  <ele>343.59</ele>
  <time>2026-09-01T19:58:50Z</time>
  <course>106.71</course>
  <speed>0.0316227766016838</speed>
  <fix>3d</fix>
</trkpt>
<trkpt lat="-27.2737709" lon="151.2899057">
  <ele>343.75</ele>
  <time>2026-09-01T19:58:50Z</time>
  <course>218.5</course>
  <speed>0.0</speed>
  <fix>3d</fix>
</trkpt>
<trkpt lat="-27.273771" lon="151.2899054">
  <ele>343.54</ele>
  <time>2026-09-01T19:58:50Z</time>
  <course>106.71</course>
  <speed>0.022360679774997897</speed>
  <fix>3d</fix>
</trkpt>
<trkpt lat="-27.2737709" lon="151.2899057">
  <ele>343.75</ele>
  <time>2026-09-01T19:58:50Z</time>
  <course>218.5</course>
  <speed>0.0</speed>
  <fix>3d</fix>
</trkpt>
<trkpt lat="-27.273771" lon="151.2899054">
  <ele>343.49</ele>
  <time>2026-09-01T19:58:50Z</time>
  <course>106.71</course>
  <speed>0.0316227766016838</speed>
  <fix>3d</fix>
</trkpt>
<trkpt lat="-27.2737709" lon="151.2899057">
  <ele>343.65</ele>
  <time>2026-09-01T19:58:50Z</time>
  <course>136.33</course>
  <speed>0.0</speed>
  <fix>3d</fix>
</trkpt>
<trkpt lat="-27.273771" lon="151.2899054">
  <ele>343.44</ele>
  <time>2026-09-01T19:58:50Z</time>
  <course>106.72</course>
  <speed>0.022360679774997897</speed>
  <fix>3d</fix>
</trkpt>
<trkpt lat="-27.2737709" lon="151.2899057">
  <ele>343.65</ele>
  <time>2026-09-01T19:58:50Z</time>
  <course>136.33</course>
  <speed>0.0</speed>
  <fix>3d</fix>
</trkpt>
<trkpt lat="-27.273771" lon="151.2899054">
  <ele>343.39</ele>
  <time>2026-09-01T19:58:50Z</time>
  <course>106.72</course>
  <speed>0.022360679774997897</speed>
  <fix>3d</fix>
</trkpt>
<trkpt lat="-27.2737709" lon="151.2899057">
  <ele>343.55</ele>
  <time>2026-09-01T19:58:50Z</time>
  <course>95.92</course>
  <speed>0.0</speed>
  <fix>3d</fix>
</trkpt>
<trkpt lat="-27.273771" lon="151.2899054">
  <ele>343.34</ele>
  <time>2026-09-01T19:58:50Z</time>
  <course>106.72</course>
  <speed>0.022360679774997897</speed>
  <fix>3d</fix>
</trkpt>
<trkpt lat="-27.2737709" lon="151.2899057">
  <ele>343.55</ele>
  <time>2026-09-01T19:58:50Z</time>
  <course>95.92</course>
  <speed>0.0</speed>
  <fix>3d</fix>
</trkpt>
<trkpt lat="-27.273771" lon="151.2899054">
  <ele>343.29</ele>
  <time>2026-09-01T19:58:50Z</time>
  <course>106.73</course>
  <speed>0.022360679774997897</speed>
  <fix>3d</fix>
</trkpt>
<trkpt lat="-27.2737709" lon="151.2899057">
  <ele>343.45</ele>
  <time>2026-09-01T19:58:50Z</time>
  <course>79.49</course>
  <speed>0.0</speed>
  <fix>3d</fix>
</trkpt>
<trkpt lat="-27.273771" lon="151.2899054">
  <ele>343.24</ele>
  <time>2026-09-01T19:58:50Z</time>
  <course>106.74</course>
  <speed>0.022360679774997897</speed>
  <fix>3d</fix>
</trkpt>
<trkpt lat="-27.2737709" lon="151.2899057">
  <ele>343.45</ele>
  <time>2026-09-01T19:58:50Z</time>
  <course>79.49</course>
  <speed>0.0</speed>
  <fix>3d</fix>
</trkpt>
<trkpt lat="-27.273771" lon="151.2899054">
  <ele>343.19</ele>
  <time>2026-09-01T19:58:50Z</time>
  <course>106.74</course>
  <speed>0.022360679774997897</speed>
  <fix>3d</fix>
</trkpt>
<trkpt lat="-27.2737709" lon="151.2899057">
  <ele>343.34</ele>
  <time>2026-09-01T19:58:50Z</time>
  <course>65.43</course>
  <speed>0.0</speed>
  <fix>3d</fix>
</trkpt>
<trkpt lat="-27.273771" lon="151.2899055">
  <ele>343.14</ele>
  <time>2026-09-01T19:58:50Z</time>
  <course>106.74</course>
  <speed>0.022360679774997897</speed>
  <fix>3d</fix>
</trkpt>
<trkpt lat="-27.2737709" lon="151.2899057">
  <ele>343.34</ele>
  <time>2026-09-01T19:58:50Z</time>
  <course>65.43</course>
  <speed>0.0</speed>
  <fix>3d</fix>
</trkpt>
<trkpt lat="-27.273771" lon="151.2899054">
  <ele>343.09</ele>
  <time>2026-09-01T19:58:50Z</time>
  <course>106.74</course>
  <speed>0.022360679774997897</speed>
  <fix>3d</fix>
</trkpt>
<trkpt lat="-27.2737709" lon="151.2899057">
  <ele>343.25</ele>
  <time>2026-09-01T19:58:50Z</time>
  <course>54.93</course>
  <speed>0.0</speed>
  <fix>3d</fix>
</trkpt>
<trkpt lat="-27.273771" lon="151.2899055">
  <ele>343.03</ele>
  <time>2026-09-01T19:58:50Z</time>
  <course>106.73</course>
  <speed>0.022360679774997897</speed>
  <fix>3d</fix>
</trkpt>
<trkpt lat="-27.2737709" lon="151.2899057">
  <ele>343.25</ele>
  <time>2026-09-01T19:58:50Z</time>
  <course>54.93</course>
  <speed>0.0</speed>
  <fix>3d</fix>
</trkpt>
<trkpt lat="-27.273771" lon="151.2899055">
  <ele>342.98</ele>
  <time>2026-09-01T19:58:50Z</time>
  <course>106.73</course>
  <speed>0.022360679774997897</speed>
  <fix>3d</fix>
</trkpt>
<trkpt lat="-27.2737709" lon="151.2899057">
  <ele>343.15</ele>
  <time>2026-09-01T19:58:50Z</time>
  <course>53.85</course>
  <speed>0.0</speed>
  <fix>3d</fix>
</trkpt>
<trkpt lat="-27.273771" lon="151.2899055">
  <ele>342.94</ele>
  <time>2026-09-01T19:58:50Z</time>
  <course>106.72</course>
  <speed>0.022360679774997897</speed>
  <fix>3d</fix>
</trkpt>
<trkpt lat="-27.2737709" lon="151.2899057">
  <ele>343.15</ele>
  <time>2026-09-01T19:58:50Z</time>
  <course>53.85</course>
  <speed>0.0</speed>
  <fix>3d</fix>
</trkpt>
<trkpt lat="-27.273771" lon="151.2899055">
  <ele>342.93</ele>
  <time>2026-09-01T19:58:50Z</time>
  <course>106.72</course>
  <speed>0.0316227766016838</speed>
  <fix>3d</fix>
</trkpt>
<trkpt lat="-27.2737709" lon="151.2899057">
  <ele>343.07</ele>
  <time>2026-09-01T19:58:50Z</time>
  <course>55.14</course>
  <speed>0.0</speed>
  <fix>3d</fix>
</trkpt>
<trkpt lat="-27.273771" lon="151.2899055">
  <ele>342.94</ele>
  <time>2026-09-01T19:58:50Z</time>
  <course>106.72</course>
  <speed>0.0316227766016838</speed>
  <fix>3d</fix>
</trkpt>
<trkpt lat="-27.2737709" lon="151.2899057">
  <ele>343.07</ele>
  <time>2026-09-01T19:58:50Z</time>
  <course>55.14</course>
  <speed>0.0</speed>
  <fix>3d</fix>
</trkpt>
<trkpt lat="-27.273771" lon="151.2899054">
  <ele>342.96</ele>
  <time>2026-09-01T19:58:50Z</time>
  <course>106.72</course>
  <speed>0.0316227766016838</speed>
  <fix>3d</fix>
</trkpt>
<trkpt lat="-27.2737709" lon="151.2899057">
  <ele>343.06</ele>
  <time>2026-09-01T19:58:50Z</time>
  <course>236.75</course>
  <speed>0.0</speed>
  <fix>3d</fix>
</trkpt>
<trkpt lat="-27.273771" lon="151.2899055">
  <ele>342.96</ele>
  <time>2026-09-01T19:58:50Z</time>
  <course>106.72</course>
  <speed>0.0316227766016838</speed>
  <fix>3d</fix>
</trkpt>
<trkpt lat="-27.2737709" lon="151.2899057">
  <ele>343.06</ele>
  <time>2026-09-01T19:58:50Z</time>
  <course>236.75</course>
  <speed>0.0</speed>
  <fix>3d</fix>
</trkpt>
<trkpt lat="-27.273771" lon="151.2899054">
  <ele>342.96</ele>
  <time>2026-09-01T19:58:50Z</time>
  <course>106.72</course>
  <speed>0.0316227766016838</speed>
  <fix>3d</fix>
</trkpt>
<trkpt lat="-27.2737709" lon="151.2899057">
  <ele>343.08</ele>
  <time>2026-09-01T19:58:50Z</time>
  <course>236.78</course>
  <speed>0.0</speed>
  <fix>3d</fix>
</trkpt>
<trkpt lat="-27.273771" lon="151.2899054">
  <ele>342.95</ele>
  <time>2026-09-01T19:58:50Z</time>
  <course>106.72</course>
  <speed>0.0316227766016838</speed>
  <fix>3d</fix>
</trkpt>
<trkpt lat="-27.2737709" lon="151.2899057">
  <ele>343.08</ele>
  <time>2026-09-01T19:58:50Z</time>
  <course>236.78</course>
  <speed>0.0</speed>
  <fix>3d</fix>
</trkpt>
<trkpt lat="-27.273771" lon="151.2899054">
  <ele>342.95</ele>
  <time>2026-09-01T19:58:50Z</time>
  <course>106.72</course>
  <speed>0.0316227766016838</speed>
  <fix>3d</fix>
</trkpt>
<trkpt lat="-27.2737709" lon="151.2899057">
  <ele>343.08</ele>
  <time>2026-09-01T19:58:50Z</time>
  <course>56.78</course>
  <speed>0.0</speed>
  <fix>3d</fix>
</trkpt>
<trkpt lat="-27.273771" lon="151.2899054">
  <ele>342.95</ele>
  <time>2026-09-01T19:58:50Z</time>
  <course>106.72</course>
  <speed>0.0316227766016838</speed>
  <fix>3d</fix>
</trkpt>
<trkpt lat="-27.2737709" lon="151.2899057">
  <ele>343.08</ele>
  <time>2026-09-01T19:58:50Z</time>
  <course>56.78</course>
  <speed>0.0</speed>
  <fix>3d</fix>
</trkpt>
<trkpt lat="-27.273771" lon="151.2899054">
  <ele>342.95</ele>
  <time>2026-09-01T19:58:50Z</time>
  <course>106.72</course>
  <speed>0.0316227766016838</speed>
  <fix>3d</fix>
</trkpt>
<trkpt lat="-27.2737709" lon="151.2899057">
  <ele>343.08</ele>
  <time>2026-09-01T19:58:50Z</time>
  <course>56.98</course>
  <speed>0.0</speed>
  <fix>3d</fix>
</trkpt>
<trkpt lat="-27.273771" lon="151.2899054">
  <ele>342.95</ele>
  <time>2026-09-01T19:58:50Z</time>
  <course>106.72</course>
  <speed>0.0316227766016838</speed>
  <fix>3d</fix>
</trkpt>
<trkpt lat="-27.2737709" lon="151.2899057">
  <ele>343.08</ele>
  <time>2026-09-01T19:58:50Z</time>
  <course>56.98</course>
  <speed>0.0</speed>
  <fix>3d</fix>
</trkpt>
<trkpt lat="-27.273771" lon="151.2899054">
  <ele>342.96</ele>
  <time>2026-09-01T19:58:50Z</time>
  <course>106.72</course>
  <speed>0.0316227766016838</speed>
  <fix>3d</fix>
</trkpt>
<trkpt lat="-27.2737709" lon="151.2899057">
  <ele>343.08</ele>
  <time>2026-09-01T19:58:50Z</time>
  <course>236.47</course>
  <speed>0.0</speed>
  <fix>3d</fix>
</trkpt>
<trkpt lat="-27.273771" lon="151.2899054">
  <ele>342.96</ele>
  <time>2026-09-01T19:58:50Z</time>
  <course>106.72</course>
  <speed>0.0316227766016838</speed>
  <fix>3d</fix>
</trkpt>
<trkpt lat="-27.2737709" lon="151.2899057">
  <ele>343.08</ele>
  <time>2026-09-01T19:58:50Z</time>
  <course>236.47</course>
  <speed>0.0</speed>
  <fix>3d</fix>
</trkpt>
<trkpt lat="-27.273771" lon="151.2899054">
  <ele>342.96</ele>
  <time>2026-09-01T19:58:50Z</time>
  <course>106.72</course>
  <speed>0.0316227766016838</speed>
  <fix>3d</fix>
</trkpt>
<trkpt lat="-27.2737709" lon="151.2899057">
  <ele>343.08</ele>
  <time>2026-09-01T19:58:50Z</time>
  <course>232.69</course>
  <speed>0.0</speed>
  <fix>3d</fix>
</trkpt>
<trkpt lat="-27.273771" lon="151.2899054">
  <ele>342.96</ele>
  <time>2026-09-01T19:58:50Z</time>
  <course>106.72</course>
  <speed>0.0316227766016838</speed>
  <fix>3d</fix>
</trkpt>
<trkpt lat="-27.2737709" lon="151.2899057">
  <ele>343.08</ele>
  <time>2026-09-01T19:58:50Z</time>
  <course>232.69</course>
  <speed>0.0</speed>
  <fix>3d</fix>
</trkpt>
<trkpt lat="-27.273771" lon="151.2899054">
  <ele>342.96</ele>
  <time>2026-09-01T19:58:50Z</time>
  <course>106.72</course>
  <speed>0.0316227766016838</speed>
  <fix>3d</fix>
</trkpt>
<trkpt lat="-27.2737709" lon="151.2899057">
  <ele>343.08</ele>
  <time>2026-09-01T19:58:50Z</time>
  <course>57.85</course>
  <speed>0.0</speed>
  <fix>3d</fix>
</trkpt>
<trkpt lat="-27.273771" lon="151.2899054">
  <ele>342.96</ele>
  <time>2026-09-01T19:58:50Z</time>
  <course>106.72</course>
  <speed>0.0316227766016838</speed>
  <fix>3d</fix>
</trkpt>
<trkpt lat="-27.2737709" lon="151.2899057">
  <ele>343.08</ele>
  <time>2026-09-01T19:58:50Z</time>
  <course>57.85</course>
  <speed>0.0</speed>
  <fix>3d</fix>
</trkpt>
<trkpt lat="-27.273771" lon="151.2899054">
  <ele>342.96</ele>
  <time>2026-09-01T19:58:50Z</time>
  <course>106.72</course>
  <speed>0.0316227766016838</speed>
  <fix>3d</fix>
</trkpt>
<trkpt lat="-27.2737709" lon="151.2899057">
  <ele>343.08</ele>
  <time>2026-09-01T19:58:50Z</time>
  <course>229.22</course>
  <speed>0.0</speed>
  <fix>3d</fix>
</trkpt>
<trkpt lat="-27.273771" lon="151.2899054">
  <ele>342.96</ele>
  <time>2026-09-01T19:58:50Z</time>
  <course>106.72</course>
  <speed>0.0316227766016838</speed>
  <fix>3d</fix>
</trkpt>
<trkpt lat="-27.2737709" lon="151.2899057">
  <ele>343.08</ele>
  <time>2026-09-01T19:58:50Z</time>
  <course>229.22</course>
  <speed>0.0</speed>
  <fix>3d</fix>
</trkpt>
<trkpt lat="-27.273771" lon="151.2899054">
  <ele>342.96</ele>
  <time>2026-09-01T19:58:50Z</time>
  <course>106.72</course>
  <speed>0.0316227766016838</speed>
  <fix>3d</fix>
</trkpt>
<trkpt lat="-27.2737709" lon="151.2899057">
  <ele>343.08</ele>
  <time>2026-09-01T19:58:50Z</time>
  <course>230.8</course>
  <speed>0.0</speed>
  <fix>3d</fix>
</trkpt>
<trkpt lat="-27.273771" lon="151.2899054">
  <ele>342.96</ele>
  <time>2026-09-01T19:58:50Z</time>
  <course>106.72</course>
  <speed>0.0316227766016838</speed>
  <fix>3d</fix>
</trkpt>
<trkpt lat="-27.2737709" lon="151.2899057">
  <ele>343.08</ele>
  <time>2026-09-01T19:58:50Z</time>
  <course>230.8</course>
  <speed>0.0</speed>
  <fix>3d</fix>
</trkpt>
<trkpt lat="-27.273771" lon="151.2899054">
  <ele>342.96</ele>
  <time>2026-09-01T19:58:50Z</time>
  <course>106.72</course>
  <speed>0.0316227766016838</speed>
  <fix>3d</fix>
</trkpt>
<trkpt lat="-27.2737709" lon="151.2899057">
  <ele>343.08</ele>
  <time>2026-09-01T19:58:50Z</time>
  <course>146.09</course>
  <speed>0.0</speed>
  <fix>3d</fix>
</trkpt>
<trkpt lat="-27.273771" lon="151.2899054">
  <ele>342.96</ele>
  <time>2026-09-01T19:58:50Z</time>
  <course>106.72</course>
  <speed>0.0316227766016838</speed>
  <fix>3d</fix>
</trkpt>
<trkpt lat="-27.2737709" lon="151.2899057">
  <ele>343.08</ele>
  <time>2026-09-01T19:58:50Z</time>
  <course>146.09</course>
  <speed>0.0</speed>
  <fix>3d</fix>
</trkpt>
<trkpt lat="-27.273771" lon="151.2899054">
  <ele>342.96</ele>
  <time>2026-09-01T19:58:50Z</time>
  <course>106.72</course>
  <speed>0.0316227766016838</speed>
  <fix>3d</fix>
</trkpt>
<trkpt lat="-27.2737709" lon="151.2899057">
  <ele>343.08</ele>
  <time>2026-09-01T19:58:50Z</time>
  <course>248.71</course>
  <speed>0.0</speed>
  <fix>3d</fix>
</trkpt>
<trkpt lat="-27.273771" lon="151.2899054">
  <ele>342.96</ele>
  <time>2026-09-01T19:58:50Z</time>
  <course>106.72</course>
  <speed>0.0316227766016838</speed>
  <fix>3d</fix>
</trkpt>
<trkpt lat="-27.2737709" lon="151.2899057">
  <ele>343.08</ele>
  <time>2026-09-01T19:58:50Z</time>
  <course>248.71</course>
  <speed>0.0</speed>
  <fix>3d</fix>
</trkpt>
<trkpt lat="-27.273771" lon="151.2899054">
  <ele>342.96</ele>
  <time>2026-09-01T19:58:50Z</time>
  <course>106.72</course>
  <speed>0.0316227766016838</speed>
  <fix>3d</fix>
</trkpt>
<trkpt lat="-27.2737709" lon="151.2899057">
  <ele>343.08</ele>
  <time>2026-09-01T19:58:50Z</time>
  <course>291.9</course>
  <speed>0.0</speed>
  <fix>3d</fix>
</trkpt>
<trkpt lat="-27.273771" lon="151.2899054">
  <ele>342.96</ele>
  <time>2026-09-01T19:58:50Z</time>
  <course>106.72</course>
  <speed>0.0316227766016838</speed>
  <fix>3d</fix>
</trkpt>
<trkpt lat="-27.2737709" lon="151.2899057">
  <ele>343.08</ele>
  <time>2026-09-01T19:58:50Z</time>
  <course>291.9</course>
  <speed>0.0</speed>
  <fix>3d</fix>
</trkpt>
<trkpt lat="-27.273771" lon="151.2899054">
  <ele>342.96</ele>
  <time>2026-09-01T19:58:50Z</time>
  <course>106.72</course>
  <speed>0.0316227766016838</speed>
  <fix>3d</fix>
</trkpt>
<trkpt lat="-27.2737709" lon="151.2899057">
  <ele>343.08</ele>
  <time>2026-09-01T19:58:50Z</time>
  <course>311.4</course>
  <speed>0.0</speed>
  <fix>3d</fix>
</trkpt>
<trkpt lat="-27.273771" lon="151.2899054">
  <ele>342.96</ele>
  <time>2026-09-01T19:58:50Z</time>
  <course>106.72</course>
  <speed>0.0316227766016838</speed>
  <fix>3d</fix>
</trkpt>
<trkpt lat="-27.2737709" lon="151.2899057">
  <ele>343.08</ele>
  <time>2026-09-01T19:58:50Z</time>
  <course>311.4</course>
  <speed>0.0</speed>
  <fix>3d</fix>
</trkpt>
<trkpt lat="-27.273771" lon="151.2899054">
  <ele>342.96</ele>
  <time>2026-09-01T19:58:50Z</time>
  <course>106.72</course>
  <speed>0.0316227766016838</speed>
  <fix>3d</fix>
</trkpt>
<trkpt lat="-27.2737709" lon="151.2899057">
  <ele>343.08</ele>
  <time>2026-09-01T19:58:50Z</time>
  <course>289.28</course>
  <speed>0.0</speed>
  <fix>3d</fix>
</trkpt>
<trkpt lat="-27.273771" lon="151.2899054">
  <ele>342.96</ele>
  <time>2026-09-01T19:58:50Z</time>
  <course>106.72</course>
  <speed>0.0316227766016838</speed>
  <fix>3d</fix>
</trkpt>
<trkpt lat="-27.2737709" lon="151.2899057">
  <ele>343.08</ele>
  <time>2026-09-01T19:58:50Z</time>
  <course>289.28</course>
  <speed>0.0</speed>
  <fix>3d</fix>
</trkpt>
<trkpt lat="-27.273771" lon="151.2899054">
  <ele>342.96</ele>
  <time>2026-09-01T19:58:50Z</time>
  <course>106.72</course>
  <speed>0.0316227766016838</speed>
  <fix>3d</fix>
</trkpt>
<trkpt lat="-27.2737709" lon="151.2899057">
  <ele>343.08</ele>
  <time>2026-09-01T19:58:50Z</time>
  <course>264.99</course>
  <speed>0.0</speed>
  <fix>3d</fix>
</trkpt>
<trkpt lat="-27.273771" lon="151.2899054">
  <ele>342.96</ele>
  <time>2026-09-01T19:58:50Z</time>
  <course>106.72</course>
  <speed>0.0316227766016838</speed>
  <fix>3d</fix>
</trkpt>
<trkpt lat="-27.2737709" lon="151.2899057">
  <ele>343.08</ele>
  <time>2026-09-01T19:58:50Z</time>
  <course>264.99</course>
  <speed>0.0</speed>
  <fix>3d</fix>
</trkpt>
<trkpt lat="-27.273771" lon="151.2899054">
  <ele>342.96</ele>
  <time>2026-09-01T19:58:50Z</time>
  <course>106.72</course>
  <speed>0.0316227766016838</speed>
  <fix>3d</fix>
</trkpt>
<trkpt lat="-27.2737709" lon="151.2899057">
  <ele>343.08</ele>
  <time>2026-09-01T19:58:50Z</time>
  <course>253.69</course>
  <speed>0.0</speed>
  <fix>3d</fix>
</trkpt>
<trkpt lat="-27.273771" lon="151.2899054">
  <ele>342.96</ele>
  <time>2026-09-01T19:58:50Z</time>
  <course>106.72</course>
  <speed>0.0316227766016838</speed>
  <fix>3d</fix>
</trkpt>
<trkpt lat="-27.2737709" lon="151.2899057">
  <ele>343.08</ele>
  <time>2026-09-01T19:58:50Z</time>
  <course>253.69</course>
  <speed>0.0</speed>
  <fix>3d</fix>
</trkpt>
<trkpt lat="-27.273771" lon="151.2899054">
  <ele>342.96</ele>
  <time>2026-09-01T19:58:50Z</time>
  <course>106.72</course>
  <speed>0.0316227766016838</speed>
  <fix>3d</fix>
</trkpt>
<trkpt lat="-27.2737709" lon="151.2899057">
  <ele>343.08</ele>
  <time>2026-09-01T19:58:50Z</time>
  <course>256.24</course>
  <speed>0.0</speed>
  <fix>3d</fix>
</trkpt>
<trkpt lat="-27.273771" lon="151.2899054">
  <ele>342.96</ele>
  <time>2026-09-01T19:58:50Z</time>
  <course>106.72</course>
  <speed>0.0316227766016838</speed>
  <fix>3d</fix>
</trkpt>
<trkpt lat="-27.2737709" lon="151.2899057">
  <ele>343.08</ele>
  <time>2026-09-01T19:58:50Z</time>
  <course>256.24</course>
  <speed>0.0</speed>
  <fix>3d</fix>
</trkpt>
<trkpt lat="-27.273771" lon="151.2899054">
  <ele>342.96</ele>
  <time>2026-09-01T19:58:50Z</time>
  <course>106.72</course>
  <speed>0.0316227766016838</speed>
  <fix>3d</fix>
</trkpt>
<trkpt lat="-27.2737709" lon="151.2899057">
  <ele>343.08</ele>
  <time>2026-09-01T19:58:50Z</time>
  <course>248.72</course>
  <speed>0.0</speed>
  <fix>3d</fix>
</trkpt>
<trkpt lat="-27.273771" lon="151.2899054">
  <ele>342.96</ele>
  <time>2026-09-01T19:58:50Z</time>
  <course>106.72</course>
  <speed>0.0316227766016838</speed>
  <fix>3d</fix>
</trkpt>
<trkpt lat="-27.2737709" lon="151.2899057">
  <ele>343.08</ele>
  <time>2026-09-01T19:58:50Z</time>
  <course>248.72</course>
  <speed>0.0</speed>
  <fix>3d</fix>
</trkpt>
<trkpt lat="-27.273771" lon="151.2899054">
  <ele>342.96</ele>
  <time>2026-09-01T19:58:50Z</time>
  <course>106.72</course>
  <speed>0.0316227766016838</speed>
  <fix>3d</fix>
</trkpt>
<trkpt lat="-27.2737709" lon="151.2899057">
  <ele>343.08</ele>
  <time>2026-09-01T19:58:50Z</time>
  <course>229.33</course>
  <speed>0.0</speed>
  <fix>3d</fix>
</trkpt>
<trkpt lat="-27.273771" lon="151.2899054">
  <ele>342.96</ele>
  <time>2026-09-01T19:58:50Z</time>
  <course>106.72</course>
  <speed>0.0316227766016838</speed>
  <fix>3d</fix>
</trkpt>
<trkpt lat="-27.2737709" lon="151.2899057">
  <ele>343.08</ele>
  <time>2026-09-01T19:58:50Z</time>
  <course>229.33</course>
  <speed>0.0</speed>
  <fix>3d</fix>
</trkpt>
<trkpt lat="-27.273771" lon="151.2899054">
  <ele>342.96</ele>
  <time>2026-09-01T19:58:50Z</time>
  <course>106.72</course>
  <speed>0.0316227766016838</speed>
  <fix>3d</fix>
</trkpt>
<trkpt lat="-27.2737709" lon="151.2899057">
  <ele>343.08</ele>
  <time>2026-09-01T19:58:50Z</time>
  <course>240.25</course>
  <speed>0.0</speed>
  <fix>3d</fix>
</trkpt>
<trkpt lat="-27.273771" lon="151.2899054">
  <ele>342.97</ele>
  <time>2026-09-01T19:58:50Z</time>
  <course>106.72</course>
  <speed>0.0316227766016838</speed>
  <fix>3d</fix>
</trkpt>
<trkpt lat="-27.2737709" lon="151.2899057">
  <ele>343.08</ele>
  <time>2026-09-01T19:58:50Z</time>
  <course>240.25</course>
  <speed>0.0</speed>
  <fix>3d</fix>
</trkpt>
<trkpt lat="-27.273771" lon="151.2899054">
  <ele>342.97</ele>
  <time>2026-09-01T19:58:50Z</time>
  <course>106.72</course>
  <speed>0.0316227766016838</speed>
  <fix>3d</fix>
</trkpt>
<trkpt lat="-27.2737709" lon="151.2899057">
  <ele>343.08</ele>
  <time>2026-09-01T19:58:50Z</time>
  <course>262.98</course>
  <speed>0.0</speed>
  <fix>3d</fix>
</trkpt>
<trkpt lat="-27.273771" lon="151.2899054">
  <ele>342.97</ele>
  <time>2026-09-01T19:58:50Z</time>
  <course>106.72</course>
  <speed>0.0316227766016838</speed>
  <fix>3d</fix>
</trkpt>
<trkpt lat="-27.2737709" lon="151.2899057">
  <ele>343.08</ele>
  <time>2026-09-01T19:58:50Z</time>
  <course>262.98</course>
  <speed>0.0</speed>
  <fix>3d</fix>
</trkpt>
<trkpt lat="-27.273771" lon="151.2899054">
  <ele>342.97</ele>
  <time>2026-09-01T19:58:50Z</time>
  <course>106.72</course>
  <speed>0.0316227766016838</speed>
  <fix>3d</fix>
</trkpt>
<trkpt lat="-27.2737709" lon="151.2899057">
  <ele>343.08</ele>
  <time>2026-09-01T19:58:50Z</time>
  <course>259.32</course>
  <speed>0.0</speed>
  <fix>3d</fix>
</trkpt>
<trkpt lat="-27.273771" lon="151.2899054">
  <ele>342.97</ele>
  <time>2026-09-01T19:58:50Z</time>
  <course>106.72</course>
  <speed>0.0316227766016838</speed>
  <fix>3d</fix>
</trkpt>
<trkpt lat="-27.2737709" lon="151.2899057">
  <ele>343.08</ele>
  <time>2026-09-01T19:58:50Z</time>
  <course>259.32</course>
  <speed>0.0</speed>
  <fix>3d</fix>
</trkpt>
<trkpt lat="-27.273771" lon="151.2899054">
  <ele>342.97</ele>
  <time>2026-09-01T19:58:50Z</time>
  <course>106.72</course>
  <speed>0.0316227766016838</speed>
  <fix>3d</fix>
</trkpt>
<trkpt lat="-27.2737709" lon="151.2899057">
  <ele>343.08</ele>
  <time>2026-09-01T19:58:50Z</time>
  <course>247.87</course>
  <speed>0.0</speed>
  <fix>3d</fix>
</trkpt>
<trkpt lat="-27.273771" lon="151.2899054">
  <ele>342.97</ele>
  <time>2026-09-01T19:58:50Z</time>
  <course>106.72</course>
  <speed>0.0316227766016838</speed>
  <fix>3d</fix>
</trkpt>
<trkpt lat="-27.2737709" lon="151.2899057">
  <ele>343.08</ele>
  <time>2026-09-01T19:58:50Z</time>
  <course>247.87</course>
  <speed>0.0</speed>
  <fix>3d</fix>
</trkpt>
<trkpt lat="-27.273771" lon="151.2899054">
  <ele>342.97</ele>
  <time>2026-09-01T19:58:50Z</time>
  <course>106.72</course>
  <speed>0.0316227766016838</speed>
  <fix>3d</fix>
</trkpt>
<trkpt lat="-27.2737709" lon="151.2899057">
  <ele>343.08</ele>
  <time>2026-09-01T19:58:50Z</time>
  <course>243.66</course>
  <speed>0.0</speed>
  <fix>3d</fix>
</trkpt>
<trkpt lat="-27.273771" lon="151.2899054">
  <ele>342.97</ele>
  <time>2026-09-01T19:58:50Z</time>
  <course>106.72</course>
  <speed>0.0316227766016838</speed>
  <fix>3d</fix>
</trkpt>
<trkpt lat="-27.2737709" lon="151.2899057">
  <ele>343.08</ele>
  <time>2026-09-01T19:58:50Z</time>
  <course>243.66</course>
  <speed>0.0</speed>
  <fix>3d</fix>
</trkpt>
<trkpt lat="-27.273771" lon="151.2899054">
  <ele>342.97</ele>
  <time>2026-09-01T19:58:50Z</time>
  <course>106.72</course>
  <speed>0.0316227766016838</speed>
  <fix>3d</fix>
</trkpt>
<trkpt lat="-27.2737709" lon="151.2899057">
  <ele>343.08</ele>
  <time>2026-09-01T19:58:50Z</time>
  <course>232.76</course>
  <speed>0.0</speed>
  <fix>3d</fix>
</trkpt>
<trkpt lat="-27.273771" lon="151.2899054">
  <ele>342.97</ele>
  <time>2026-09-01T19:58:50Z</time>
  <course>106.72</course>
  <speed>0.0316227766016838</speed>
  <fix>3d</fix>
</trkpt>
<trkpt lat="-27.2737709" lon="151.2899057">
  <ele>343.08</ele>
  <time>2026-09-01T19:58:50Z</time>
  <course>232.76</course>
  <speed>0.0</speed>
  <fix>3d</fix>
</trkpt>
<trkpt lat="-27.273771" lon="151.2899054">
  <ele>342.97</ele>
  <time>2026-09-01T19:58:50Z</time>
  <course>106.72</course>
  <speed>0.0316227766016838</speed>
  <fix>3d</fix>
</trkpt>
<trkpt lat="-27.2737709" lon="151.2899057">
  <ele>343.08</ele>
  <time>2026-09-01T19:58:50Z</time>
  <course>240.92</course>
  <speed>0.0</speed>
  <fix>3d</fix>
</trkpt>
<trkpt lat="-27.273771" lon="151.2899054">
  <ele>342.97</ele>
  <time>2026-09-01T19:58:50Z</time>
  <course>106.72</course>
  <speed>0.0316227766016838</speed>
  <fix>3d</fix>
</trkpt>
<trkpt lat="-27.2737709" lon="151.2899057">
  <ele>343.08</ele>
  <time>2026-09-01T19:58:50Z</time>
  <course>240.92</course>
  <speed>0.0</speed>
  <fix>3d</fix>
</trkpt>
<trkpt lat="-27.273771" lon="151.2899054">
  <ele>342.97</ele>
  <time>2026-09-01T19:58:50Z</time>
  <course>106.72</course>
  <speed>0.0316227766016838</speed>
  <fix>3d</fix>
</trkpt>
<trkpt lat="-27.2737709" lon="151.2899057">
  <ele>343.08</ele>
  <time>2026-09-01T19:58:50Z</time>
  <course>261.34</course>
  <speed>0.0</speed>
  <fix>3d</fix>
</trkpt>
<trkpt lat="-27.273771" lon="151.2899054">
  <ele>342.97</ele>
  <time>2026-09-01T19:58:50Z</time>
  <course>106.72</course>
  <speed>0.0316227766016838</speed>
  <fix>3d</fix>
</trkpt>
<trkpt lat="-27.2737709" lon="151.2899057">
  <ele>343.08</ele>
  <time>2026-09-01T19:58:50Z</time>
  <course>261.34</course>
  <speed>0.0</speed>
  <fix>3d</fix>
</trkpt>
<trkpt lat="-27.273771" lon="151.2899054">
  <ele>342.97</ele>
  <time>2026-09-01T19:58:50Z</time>
  <course>106.72</course>
  <speed>0.0316227766016838</speed>
  <fix>3d</fix>
</trkpt>
<trkpt lat="-27.2737709" lon="151.2899057">
  <ele>343.08</ele>
  <time>2026-09-01T19:58:50Z</time>
  <course>256.05</course>
  <speed>0.0</speed>
  <fix>3d</fix>
</trkpt>
<trkpt lat="-27.273771" lon="151.2899054">
  <ele>342.98</ele>
  <time>2026-09-01T19:58:50Z</time>
  <course>106.72</course>
  <speed>0.0316227766016838</speed>
  <fix>3d</fix>
</trkpt>
<trkpt lat="-27.2737709" lon="151.2899057">
  <ele>343.08</ele>
  <time>2026-09-01T19:58:50Z</time>
  <course>256.05</course>
  <speed>0.0</speed>
  <fix>3d</fix>
</trkpt>
<trkpt lat="-27.273771" lon="151.2899054">
  <ele>342.98</ele>
  <time>2026-09-01T19:58:50Z</time>
  <course>106.72</course>
  <speed>0.0316227766016838</speed>
  <fix>3d</fix>
</trkpt>
<trkpt lat="-27.2737709" lon="151.2899057">
  <ele>343.08</ele>
  <time>2026-09-01T19:58:50Z</time>
  <course>245.37</course>
  <speed>0.0</speed>
  <fix>3d</fix>
</trkpt>
<trkpt lat="-27.273771" lon="151.2899054">
  <ele>342.98</ele>
  <time>2026-09-01T19:58:50Z</time>
  <course>106.72</course>
  <speed>0.0316227766016838</speed>
  <fix>3d</fix>
</trkpt>
<trkpt lat="-27.2737709" lon="151.2899057">
  <ele>343.08</ele>
  <time>2026-09-01T19:58:50Z</time>
  <course>245.37</course>
  <speed>0.0</speed>
  <fix>3d</fix>
</trkpt>
<trkpt lat="-27.273771" lon="151.2899054">
  <ele>342.98</ele>
  <time>2026-09-01T19:58:50Z</time>
  <course>106.72</course>
  <speed>0.0316227766016838</speed>
  <fix>3d</fix>
</trkpt>
<trkpt lat="-27.2737709" lon="151.2899057">
  <ele>343.08</ele>
  <time>2026-09-01T19:58:50Z</time>
  <course>244.46</course>
  <speed>0.0</speed>
  <fix>3d</fix>
</trkpt>
<trkpt lat="-27.273771" lon="151.2899054">
  <ele>342.98</ele>
  <time>2026-09-01T19:58:50Z</time>
  <course>106.72</course>
  <speed>0.0316227766016838</speed>
  <fix>3d</fix>
</trkpt>
<trkpt lat="-27.2737709" lon="151.2899057">
  <ele>343.08</ele>
  <time>2026-09-01T19:58:50Z</time>
  <course>244.46</course>
  <speed>0.0</speed>
  <fix>3d</fix>
</trkpt>
<trkpt lat="-27.273771" lon="151.2899054">
  <ele>342.98</ele>
  <time>2026-09-01T19:58:50Z</time>
  <course>106.72</course>
  <speed>0.0316227766016838</speed>
  <fix>3d</fix>
</trkpt>
<trkpt lat="-27.2737709" lon="151.2899057">
  <ele>343.08</ele>
  <time>2026-09-01T19:58:50Z</time>
  <course>47.72</course>
  <speed>0.0</speed>
  <fix>3d</fix>
</trkpt>
<trkpt lat="-27.273771" lon="151.2899054">
  <ele>342.98</ele>
  <time>2026-09-01T19:58:50Z</time>
  <course>106.72</course>
  <speed>0.0316227766016838</speed>
  <fix>3d</fix>
</trkpt>
<trkpt lat="-27.2737709" lon="151.2899057">
  <ele>343.08</ele>
  <time>2026-09-01T19:58:50Z</time>
  <course>47.72</course>
  <speed>0.0</speed>
  <fix>3d</fix>
</trkpt>
<trkpt lat="-27.273771" lon="151.2899054">
  <ele>342.98</ele>
  <time>2026-09-01T19:58:50Z</time>
  <course>106.73</course>
  <speed>0.0316227766016838</speed>
  <fix>3d</fix>
</trkpt>
<trkpt lat="-27.2737709" lon="151.2899057">
  <ele>343.08</ele>
  <time>2026-09-01T19:58:50Z</time>
  <course>48.31</course>
  <speed>0.0</speed>
  <fix>3d</fix>
</trkpt>
<trkpt lat="-27.273771" lon="151.2899054">
  <ele>342.98</ele>
  <time>2026-09-01T19:58:50Z</time>
  <course>106.73</course>
  <speed>0.0316227766016838</speed>
  <fix>3d</fix>
</trkpt>
<trkpt lat="-27.2737709" lon="151.2899057">
  <ele>343.08</ele>
  <time>2026-09-01T19:58:50Z</time>
  <course>48.31</course>
  <speed>0.0</speed>
  <fix>3d</fix>
</trkpt>
<trkpt lat="-27.273771" lon="151.2899054">
  <ele>342.98</ele>
  <time>2026-09-01T19:58:50Z</time>
  <course>106.73</course>
  <speed>0.0316227766016838</speed>
  <fix>3d</fix>
</trkpt>
<trkpt lat="-27.2737709" lon="151.2899057">
  <ele>343.08</ele>
  <time>2026-09-01T19:58:50Z</time>
  <course>60.37</course>
  <speed>0.0</speed>
  <fix>3d</fix>
</trkpt>
<trkpt lat="-27.273771" lon="151.2899054">
  <ele>342.99</ele>
  <time>2026-09-01T19:58:50Z</time>
  <course>106.73</course>
  <speed>0.0316227766016838</speed>
  <fix>3d</fix>
</trkpt>
<trkpt lat="-27.2737709" lon="151.2899057">
  <ele>343.08</ele>
  <time>2026-09-01T19:58:50Z</time>
  <course>60.37</course>
  <speed>0.0</speed>
  <fix>3d</fix>
</trkpt>
<trkpt lat="-27.273771" lon="151.2899054">
  <ele>342.99</ele>
  <time>2026-09-01T19:58:50Z</time>
  <course>106.74</course>
  <speed>0.0316227766016838</speed>
  <fix>3d</fix>
</trkpt>
<trkpt lat="-27.2737709" lon="151.2899057">
  <ele>343.08</ele>
  <time>2026-09-01T19:58:50Z</time>
  <course>228.46</course>
  <speed>0.0</speed>
  <fix>3d</fix>
</trkpt>
<trkpt lat="-27.273771" lon="151.2899055">
  <ele>342.99</ele>
  <time>2026-09-01T19:58:50Z</time>
  <course>106.74</course>
  <speed>0.0316227766016838</speed>
  <fix>3d</fix>
</trkpt>
<trkpt lat="-27.2737709" lon="151.2899057">
  <ele>343.08</ele>
  <time>2026-09-01T19:58:50Z</time>
  <course>228.46</course>
  <speed>0.0</speed>
  <fix>3d</fix>
</trkpt>
<trkpt lat="-27.273771" lon="151.2899054">
  <ele>342.99</ele>
  <time>2026-09-01T19:58:50Z</time>
  <course>106.74</course>
  <speed>0.0316227766016838</speed>
  <fix>3d</fix>
</trkpt>
<trkpt lat="-27.2737709" lon="151.2899057">
  <ele>343.08</ele>
  <time>2026-09-01T19:58:50Z</time>
  <course>46.92</course>
  <speed>0.0</speed>
  <fix>3d</fix>
</trkpt>
<trkpt lat="-27.273771" lon="151.2899055">
  <ele>343.0</ele>
  <time>2026-09-01T19:58:50Z</time>
  <course>106.74</course>
  <speed>0.022360679774997897</speed>
  <fix>3d</fix>
</trkpt>
<trkpt lat="-27.2737709" lon="151.2899057">
  <ele>343.08</ele>
  <time>2026-09-01T19:58:50Z</time>
  <course>46.92</course>
  <speed>0.0</speed>
  <fix>3d</fix>
</trkpt>
<trkpt lat="-27.273771" lon="151.2899054">
  <ele>343.0</ele>
  <time>2026-09-01T19:58:50Z</time>
  <course>106.75</course>
  <speed>0.0316227766016838</speed>
  <fix>3d</fix>
</trkpt>
<trkpt lat="-27.2737709" lon="151.2899057">
  <ele>343.08</ele>
  <time>2026-09-01T19:58:50Z</time>
  <course>48.62</course>
  <speed>0.0</speed>
  <fix>3d</fix>
</trkpt>
<trkpt lat="-27.273771" lon="151.2899055">
  <ele>343.0</ele>
  <time>2026-09-01T19:58:50Z</time>
  <course>106.75</course>
  <speed>0.022360679774997897</speed>
  <fix>3d</fix>
</trkpt>
<trkpt lat="-27.2737709" lon="151.2899057">
  <ele>343.08</ele>
  <time>2026-09-01T19:58:50Z</time>
  <course>48.62</course>
  <speed>0.0</speed>
  <fix>3d</fix>
</trkpt>
<trkpt lat="-27.273771" lon="151.2899054">
  <ele>343.01</ele>
  <time>2026-09-01T19:58:50Z</time>
  <course>106.75</course>
  <speed>0.022360679774997897</speed>
  <fix>3d</fix>
</trkpt>
<trkpt lat="-27.2737709" lon="151.2899057">
  <ele>343.08</ele>
  <time>2026-09-01T19:58:50Z</time>
  <course>227.78</course>
  <speed>0.0</speed>
  <fix>3d</fix>
</trkpt>
<trkpt lat="-27.273771" lon="151.2899055">
  <ele>343.01</ele>
  <time>2026-09-01T19:58:50Z</time>
  <course>106.75</course>
  <speed>0.022360679774997897</speed>
  <fix>3d</fix>
</trkpt>
<trkpt lat="-27.2737709" lon="151.2899057">
  <ele>343.08</ele>
  <time>2026-09-01T19:58:50Z</time>
  <course>227.78</course>
  <speed>0.0</speed>
  <fix>3d</fix>
</trkpt>
<trkpt lat="-27.273771" lon="151.2899055">
  <ele>343.01</ele>
  <time>2026-09-01T19:58:50Z</time>
  <course>106.76</course>
  <speed>0.022360679774997897</speed>
  <fix>3d</fix>
</trkpt>
<trkpt lat="-27.2737709" lon="151.2899057">
  <ele>343.08</ele>
  <time>2026-09-01T19:58:50Z</time>
  <course>228.84</course>
  <speed>0.0</speed>
  <fix>3d</fix>
</trkpt>
<trkpt lat="-27.273771" lon="151.2899055">
  <ele>343.02</ele>
  <time>2026-09-01T19:58:52Z</time>
  <course>106.76</course>
  <speed>0.022360679774997897</speed>
  <fix>3d</fix>
</trkpt>
<trkpt lat="-27.2737709" lon="151.2899057">
  <ele>343.08</ele>
  <time>2026-09-01T19:58:52Z</time>
  <course>228.84</course>
  <speed>0.0</speed>
  <fix>3d</fix>
</trkpt>
<trkpt lat="-27.273771" lon="151.2899055">
  <ele>343.02</ele>
  <time>2026-09-01T19:58:52Z</time>
  <course>106.76</course>
  <speed>0.022360679774997897</speed>
  <fix>3d</fix>
</trkpt>
<trkpt lat="-27.2737709" lon="151.2899057">
  <ele>343.08</ele>
  <time>2026-09-01T19:58:52Z</time>
  <course>48.08</course>
  <speed>0.0</speed>
  <fix>3d</fix>
</trkpt>
<trkpt lat="-27.273771" lon="151.2899055">
  <ele>343.03</ele>
  <time>2026-09-01T19:58:52Z</time>
  <course>106.76</course>
  <speed>0.022360679774997897</speed>
  <fix>3d</fix>
</trkpt>
<trkpt lat="-27.2737709" lon="151.2899057">
  <ele>343.08</ele>
  <time>2026-09-01T19:58:52Z</time>
  <course>48.08</course>
  <speed>0.0</speed>
  <fix>3d</fix>
</trkpt>
<trkpt lat="-27.273771" lon="151.2899055">
  <ele>343.03</ele>
  <time>2026-09-01T19:58:52Z</time>
  <course>106.77</course>
  <speed>0.022360679774997897</speed>
  <fix>3d</fix>
</trkpt>
<trkpt lat="-27.2737709" lon="151.2899057">
  <ele>343.08</ele>
  <time>2026-09-01T19:58:52Z</time>
  <course>49.28</course>
  <speed>0.0</speed>
  <fix>3d</fix>
</trkpt>
<trkpt lat="-27.273771" lon="151.2899055">
  <ele>343.04</ele>
  <time>2026-09-01T19:58:52Z</time>
  <course>106.77</course>
  <speed>0.022360679774997897</speed>
  <fix>3d</fix>
</trkpt>
<trkpt lat="-27.2737709" lon="151.2899057">
  <ele>343.08</ele>
  <time>2026-09-01T19:58:52Z</time>
  <course>49.28</course>
  <speed>0.0</speed>
  <fix>3d</fix>
</trkpt>
<trkpt lat="-27.273771" lon="151.2899055">
  <ele>343.05</ele>
  <time>2026-09-01T19:58:52Z</time>
  <course>106.77</course>
  <speed>0.022360679774997897</speed>
  <fix>3d</fix>
</trkpt>
<trkpt lat="-27.2737709" lon="151.2899057">
  <ele>343.08</ele>
  <time>2026-09-01T19:58:52Z</time>
  <course>228.26</course>
  <speed>0.0</speed>
  <fix>3d</fix>
</trkpt>
<trkpt lat="-27.273771" lon="151.2899055">
  <ele>343.06</ele>
  <time>2026-09-01T19:58:52Z</time>
  <course>106.78</course>
  <speed>0.022360679774997897</speed>
  <fix>3d</fix>
</trkpt>
<trkpt lat="-27.2737709" lon="151.2899057">
  <ele>343.08</ele>
  <time>2026-09-01T19:58:52Z</time>
  <course>228.26</course>
  <speed>0.0</speed>
  <fix>3d</fix>
</trkpt>
<trkpt lat="-27.273771" lon="151.2899055">
  <ele>343.06</ele>
  <time>2026-09-01T19:58:52Z</time>
  <course>106.78</course>
  <speed>0.022360679774997897</speed>
  <fix>3d</fix>
</trkpt>
<trkpt lat="-27.2737709" lon="151.2899057">
  <ele>343.08</ele>
  <time>2026-09-01T19:58:52Z</time>
  <course>231.5</course>
  <speed>0.0</speed>
  <fix>3d</fix>
</trkpt>
<trkpt lat="-27.273771" lon="151.2899055">
  <ele>343.07</ele>
  <time>2026-09-01T19:58:52Z</time>
  <course>106.78</course>
  <speed>0.022360679774997897</speed>
  <fix>3d</fix>
</trkpt>
<trkpt lat="-27.2737709" lon="151.2899057">
  <ele>343.08</ele>
  <time>2026-09-01T19:58:52Z</time>
  <course>231.5</course>
  <speed>0.0</speed>
  <fix>3d</fix>
</trkpt>
<trkpt lat="-27.273771" lon="151.2899055">
  <ele>343.07</ele>
  <time>2026-09-01T19:58:52Z</time>
  <course>106.78</course>
  <speed>0.022360679774997897</speed>
  <fix>3d</fix>
</trkpt>
<trkpt lat="-27.2737709" lon="151.2899057">
  <ele>343.08</ele>
  <time>2026-09-01T19:58:52Z</time>
  <course>231.5</course>
  <speed>0.0</speed>
  <fix>3d</fix>
</trkpt>
<trkpt lat="-27.273771" lon="151.2899055">
  <ele>343.07</ele>
  <time>2026-09-01T19:58:52Z</time>
  <course>106.79</course>
  <speed>0.022360679774997897</speed>
  <fix>3d</fix>
</trkpt>
<trkpt lat="-27.2737709" lon="151.2899057">
  <ele>343.08</ele>
  <time>2026-09-01T19:58:52Z</time>
  <course>48.42</course>
  <speed>0.0</speed>
  <fix>3d</fix>
</trkpt>
<trkpt lat="-27.273771" lon="151.2899055">
  <ele>343.08</ele>
  <time>2026-09-01T19:58:52Z</time>
  <course>106.79</course>
  <speed>0.022360679774997897</speed>
  <fix>3d</fix>
</trkpt>
<trkpt lat="-27.2737709" lon="151.2899057">
  <ele>343.08</ele>
  <time>2026-09-01T19:58:52Z</time>
  <course>226.03</course>
  <speed>0.0</speed>
  <fix>3d</fix>
</trkpt>
<trkpt lat="-27.273771" lon="151.2899055">
  <ele>343.08</ele>
  <time>2026-09-01T19:58:52Z</time>
  <course>106.79</course>
  <speed>0.022360679774997897</speed>
  <fix>3d</fix>
</trkpt>
<trkpt lat="-27.2737709" lon="151.2899057">
  <ele>343.08</ele>
  <time>2026-09-01T19:58:52Z</time>
  <course>226.03</course>
  <speed>0.0</speed>
  <fix>3d</fix>
</trkpt>
<trkpt lat="-27.273771" lon="151.2899055">
  <ele>343.09</ele>
  <time>2026-09-01T19:58:52Z</time>
  <course>106.79</course>
  <speed>0.022360679774997897</speed>
  <fix>3d</fix>
</trkpt>
<trkpt lat="-27.2737709" lon="151.2899057">
  <ele>343.08</ele>
  <time>2026-09-01T19:58:52Z</time>
  <course>228.5</course>
  <speed>0.0</speed>
  <fix>3d</fix>
</trkpt>
<trkpt lat="-27.273771" lon="151.2899055">
  <ele>343.09</ele>
  <time>2026-09-01T19:58:52Z</time>
  <course>106.8</course>
  <speed>0.022360679774997897</speed>
  <fix>3d</fix>
</trkpt>
<trkpt lat="-27.2737709" lon="151.2899057">
  <ele>343.08</ele>
  <time>2026-09-01T19:58:52Z</time>
  <course>228.5</course>
  <speed>0.0</speed>
  <fix>3d</fix>
</trkpt>
<trkpt lat="-27.273771" lon="151.2899055">
  <ele>343.09</ele>
  <time>2026-09-01T19:58:52Z</time>
  <course>106.8</course>
  <speed>0.022360679774997897</speed>
  <fix>3d</fix>
</trkpt>
<trkpt lat="-27.2737709" lon="151.2899057">
  <ele>343.08</ele>
  <time>2026-09-01T19:58:52Z</time>
  <course>47.97</course>
  <speed>0.0</speed>
  <fix>3d</fix>
</trkpt>
<trkpt lat="-27.273771" lon="151.2899055">
  <ele>343.1</ele>
  <time>2026-09-01T19:58:52Z</time>
  <course>106.8</course>
  <speed>0.022360679774997897</speed>
  <fix>3d</fix>
</trkpt>
<trkpt lat="-27.2737709" lon="151.2899057">
  <ele>343.08</ele>
  <time>2026-09-01T19:58:52Z</time>
  <course>47.97</course>
  <speed>0.0</speed>
  <fix>3d</fix>
</trkpt>
<trkpt lat="-27.273771" lon="151.2899055">
  <ele>343.1</ele>
  <time>2026-09-01T19:58:52Z</time>
  <course>106.81</course>
  <speed>0.022360679774997897</speed>
  <fix>3d</fix>
</trkpt>
<trkpt lat="-27.2737709" lon="151.2899057">
  <ele>343.08</ele>
  <time>2026-09-01T19:58:52Z</time>
  <course>49.34</course>
  <speed>0.0</speed>
  <fix>3d</fix>
</trkpt>
<trkpt lat="-27.273771" lon="151.2899055">
  <ele>343.1</ele>
  <time>2026-09-01T19:58:52Z</time>
  <course>106.81</course>
  <speed>0.022360679774997897</speed>
  <fix>3d</fix>
</trkpt>
<trkpt lat="-27.2737709" lon="151.2899057">
  <ele>343.08</ele>
  <time>2026-09-01T19:58:52Z</time>
  <course>49.34</course>
  <speed>0.0</speed>
  <fix>3d</fix>
</trkpt>
<trkpt lat="-27.273771" lon="151.2899055">
  <ele>343.11</ele>
  <time>2026-09-01T19:58:52Z</time>
  <course>106.81</course>
  <speed>0.022360679774997897</speed>
  <fix>3d</fix>
</trkpt>
<trkpt lat="-27.2737709" lon="151.2899057">
  <ele>343.08</ele>
  <time>2026-09-01T19:58:52Z</time>
  <course>226.32</course>
  <speed>0.0</speed>
  <fix>3d</fix>
</trkpt>
<trkpt lat="-27.273771" lon="151.2899055">
  <ele>343.11</ele>
  <time>2026-09-01T19:58:52Z</time>
  <course>106.82</course>
  <speed>0.022360679774997897</speed>
  <fix>3d</fix>
</trkpt>
<trkpt lat="-27.2737709" lon="151.2899057">
  <ele>343.08</ele>
  <time>2026-09-01T19:58:52Z</time>
  <course>226.32</course>
  <speed>0.0</speed>
  <fix>3d</fix>
</trkpt>
<trkpt lat="-27.273771" lon="151.2899055">
  <ele>343.12</ele>
  <time>2026-09-01T19:58:52Z</time>
  <course>106.82</course>
  <speed>0.022360679774997897</speed>
  <fix>3d</fix>
</trkpt>
<trkpt lat="-27.2737709" lon="151.2899057">
  <ele>343.08</ele>
  <time>2026-09-01T19:58:52Z</time>
  <course>222.44</course>
  <speed>0.0</speed>
  <fix>3d</fix>
</trkpt>
<trkpt lat="-27.273771" lon="151.2899055">
  <ele>343.12</ele>
  <time>2026-09-01T19:58:52Z</time>
  <course>106.82</course>
  <speed>0.022360679774997897</speed>
  <fix>3d</fix>
</trkpt>
<trkpt lat="-27.2737709" lon="151.2899057">
  <ele>343.08</ele>
  <time>2026-09-01T19:58:52Z</time>
  <course>222.44</course>
  <speed>0.0</speed>
  <fix>3d</fix>
</trkpt>
<trkpt lat="-27.273771" lon="151.2899055">
  <ele>343.13</ele>
  <time>2026-09-01T19:58:52Z</time>
  <course>106.82</course>
  <speed>0.022360679774997897</speed>
  <fix>3d</fix>
</trkpt>
<trkpt lat="-27.2737709" lon="151.2899057">
  <ele>343.08</ele>
  <time>2026-09-01T19:58:52Z</time>
  <course>57.33</course>
  <speed>0.0</speed>
  <fix>3d</fix>
</trkpt>
<trkpt lat="-27.273771" lon="151.2899055">
  <ele>343.13</ele>
  <time>2026-09-01T19:58:52Z</time>
  <course>106.83</course>
  <speed>0.022360679774997897</speed>
  <fix>3d</fix>
</trkpt>
<trkpt lat="-27.2737709" lon="151.2899057">
  <ele>343.08</ele>
  <time>2026-09-01T19:58:52Z</time>
  <course>57.33</course>
  <speed>0.0</speed>
  <fix>3d</fix>
</trkpt>
<trkpt lat="-27.273771" lon="151.2899055">
  <ele>343.13</ele>
  <time>2026-09-01T19:58:52Z</time>
  <course>106.83</course>
  <speed>0.022360679774997897</speed>
  <fix>3d</fix>
</trkpt>
<trkpt lat="-27.2737709" lon="151.2899057">
  <ele>343.08</ele>
  <time>2026-09-01T19:58:52Z</time>
  <course>92.86</course>
  <speed>0.0</speed>
  <fix>3d</fix>
</trkpt>
<trkpt lat="-27.273771" lon="151.2899055">
  <ele>343.14</ele>
  <time>2026-09-01T19:58:52Z</time>
  <course>106.83</course>
  <speed>0.022360679774997897</speed>
  <fix>3d</fix>
</trkpt>
<trkpt lat="-27.2737709" lon="151.2899057">
  <ele>343.08</ele>
  <time>2026-09-01T19:58:52Z</time>
  <course>92.86</course>
  <speed>0.0</speed>
  <fix>3d</fix>
</trkpt>
<trkpt lat="-27.273771" lon="151.2899055">
  <ele>343.14</ele>
  <time>2026-09-01T19:58:52Z</time>
  <course>106.84</course>
  <speed>0.022360679774997897</speed>
  <fix>3d</fix>
</trkpt>
<trkpt lat="-27.2737709" lon="151.2899057">
  <ele>343.08</ele>
  <time>2026-09-01T19:58:52Z</time>
  <course>157.03</course>
  <speed>0.0</speed>
  <fix>3d</fix>
</trkpt>
<trkpt lat="-27.273771" lon="151.2899055">
  <ele>343.14</ele>
  <time>2026-09-01T19:58:52Z</time>
  <course>106.84</course>
  <speed>0.022360679774997897</speed>
  <fix>3d</fix>
</trkpt>
<trkpt lat="-27.2737709" lon="151.2899057">
  <ele>343.08</ele>
  <time>2026-09-01T19:58:52Z</time>
  <course>157.03</course>
  <speed>0.0</speed>
  <fix>3d</fix>
</trkpt>
<trkpt lat="-27.273771" lon="151.2899055">
  <ele>343.14</ele>
  <time>2026-09-01T19:58:52Z</time>
  <course>106.84</course>
  <speed>0.022360679774997897</speed>
  <fix>3d</fix>
</trkpt>
<trkpt lat="-27.2737709" lon="151.2899057">
  <ele>343.08</ele>
  <time>2026-09-01T19:58:52Z</time>
  <course>157.03</course>
  <speed>0.0</speed>
  <fix>3d</fix>
</trkpt>
<trkpt lat="-27.273771" lon="151.2899055">
  <ele>343.15</ele>
  <time>2026-09-01T19:58:52Z</time>
  <course>106.85</course>
  <speed>0.022360679774997897</speed>
  <fix>3d</fix>
</trkpt>
<trkpt lat="-27.2737709" lon="151.2899057">
  <ele>343.08</ele>
  <time>2026-09-01T19:58:52Z</time>
  <course>110.06</course>
  <speed>0.0</speed>
  <fix>3d</fix>
</trkpt>
<trkpt lat="-27.273771" lon="151.2899055">
  <ele>343.15</ele>
  <time>2026-09-01T19:58:52Z</time>
  <course>106.85</course>
  <speed>0.022360679774997897</speed>
  <fix>3d</fix>
</trkpt>
<trkpt lat="-27.2737709" lon="151.2899057">
  <ele>343.08</ele>
  <time>2026-09-01T19:58:52Z</time>
  <course>110.06</course>
  <speed>0.0</speed>
  <fix>3d</fix>
</trkpt>
<trkpt lat="-27.273771" lon="151.2899055">
  <ele>343.15</ele>
  <time>2026-09-01T19:58:52Z</time>
  <course>106.85</course>
  <speed>0.022360679774997897</speed>
  <fix>3d</fix>
</trkpt>
<trkpt lat="-27.2737709" lon="151.2899057">
  <ele>343.08</ele>
  <time>2026-09-01T19:58:52Z</time>
  <course>101.46</course>
  <speed>0.0</speed>
  <fix>3d</fix>
</trkpt>
<trkpt lat="-27.273771" lon="151.2899055">
  <ele>343.15</ele>
  <time>2026-09-01T19:58:52Z</time>
  <course>106.86</course>
  <speed>0.022360679774997897</speed>
  <fix>3d</fix>
</trkpt>
<trkpt lat="-27.2737709" lon="151.2899057">
  <ele>343.08</ele>
  <time>2026-09-01T19:58:52Z</time>
  <course>101.46</course>
  <speed>0.0</speed>
  <fix>3d</fix>
</trkpt>
<trkpt lat="-27.273771" lon="151.2899055">
  <ele>343.15</ele>
  <time>2026-09-01T19:58:52Z</time>
  <course>106.86</course>
  <speed>0.022360679774997897</speed>
  <fix>3d</fix>
</trkpt>
<trkpt lat="-27.2737709" lon="151.2899057">
  <ele>343.08</ele>
  <time>2026-09-01T19:58:52Z</time>
  <course>104.26</course>
  <speed>0.0</speed>
  <fix>3d</fix>
</trkpt>
<trkpt lat="-27.273771" lon="151.2899055">
  <ele>343.15</ele>
  <time>2026-09-01T19:58:52Z</time>
  <course>106.86</course>
  <speed>0.022360679774997897</speed>
  <fix>3d</fix>
</trkpt>
<trkpt lat="-27.2737709" lon="151.2899057">
  <ele>343.08</ele>
  <time>2026-09-01T19:58:52Z</time>
  <course>104.26</course>
  <speed>0.0</speed>
  <fix>3d</fix>
</trkpt>
<trkpt lat="-27.273771" lon="151.2899055">
  <ele>343.15</ele>
  <time>2026-09-01T19:58:52Z</time>
  <course>106.87</course>
  <speed>0.022360679774997897</speed>
  <fix>3d</fix>
</trkpt>
<trkpt lat="-27.2737709" lon="151.2899057">
  <ele>343.08</ele>
  <time>2026-09-01T19:58:52Z</time>
  <course>104.48</course>
  <speed>0.0</speed>
  <fix>3d</fix>
</trkpt>
<trkpt lat="-27.273771" lon="151.2899055">
  <ele>343.15</ele>
  <time>2026-09-01T19:58:52Z</time>
  <course>106.87</course>
  <speed>0.022360679774997897</speed>
  <fix>3d</fix>
</trkpt>
<trkpt lat="-27.2737709" lon="151.2899057">
  <ele>343.08</ele>
  <time>2026-09-01T19:58:52Z</time>
  <course>104.48</course>
  <speed>0.0</speed>
  <fix>3d</fix>
</trkpt>
<trkpt lat="-27.273771" lon="151.2899055">
  <ele>343.15</ele>
  <time>2026-09-01T19:58:52Z</time>
  <course>106.87</course>
  <speed>0.022360679774997897</speed>
  <fix>3d</fix>
</trkpt>
<trkpt lat="-27.2737709" lon="151.2899057">
  <ele>343.08</ele>
  <time>2026-09-01T19:58:52Z</time>
  <course>104.33</course>
  <speed>0.0</speed>
  <fix>3d</fix>
</trkpt>
<trkpt lat="-27.273771" lon="151.2899055">
  <ele>343.15</ele>
  <time>2026-09-01T19:58:52Z</time>
  <course>106.88</course>
  <speed>0.022360679774997897</speed>
  <fix>3d</fix>
</trkpt>
<trkpt lat="-27.2737709" lon="151.2899057">
  <ele>343.08</ele>
  <time>2026-09-01T19:58:52Z</time>
  <course>104.3</course>
  <speed>0.0</speed>
  <fix>3d</fix>
</trkpt>
<trkpt lat="-27.273771" lon="151.2899055">
  <ele>343.15</ele>
  <time>2026-09-01T19:58:52Z</time>
  <course>106.88</course>
  <speed>0.022360679774997897</speed>
  <fix>3d</fix>
</trkpt>
<trkpt lat="-27.2737709" lon="151.2899057">
  <ele>343.08</ele>
  <time>2026-09-01T19:58:52Z</time>
  <course>104.3</course>
  <speed>0.0</speed>
  <fix>3d</fix>
</trkpt>
<trkpt lat="-27.273771" lon="151.2899055">
  <ele>343.15</ele>
  <time>2026-09-01T19:58:52Z</time>
  <course>106.88</course>
  <speed>0.022360679774997897</speed>
  <fix>3d</fix>
</trkpt>
<trkpt lat="-27.2737709" lon="151.2899057">
  <ele>343.08</ele>
  <time>2026-09-01T19:58:52Z</time>
  <course>104.3</course>
  <speed>0.0</speed>
  <fix>3d</fix>
</trkpt>
<trkpt lat="-27.273771" lon="151.2899055">
  <ele>343.15</ele>
  <time>2026-09-01T19:58:52Z</time>
  <course>106.89</course>
  <speed>0.022360679774997897</speed>
  <fix>3d</fix>
</trkpt>
<trkpt lat="-27.2737709" lon="151.2899057">
  <ele>343.08</ele>
  <time>2026-09-01T19:58:52Z</time>
  <course>104.3</course>
  <speed>0.0</speed>
  <fix>3d</fix>
</trkpt>
<trkpt lat="-27.273771" lon="151.2899055">
  <ele>343.16</ele>
  <time>2026-09-01T19:58:52Z</time>
  <course>106.89</course>
  <speed>0.022360679774997897</speed>
  <fix>3d</fix>
</trkpt>
<trkpt lat="-27.2737709" lon="151.2899057">
  <ele>343.08</ele>
  <time>2026-09-01T19:58:52Z</time>
  <course>104.3</course>
  <speed>0.0</speed>
  <fix>3d</fix>
</trkpt>
<trkpt lat="-27.273771" lon="151.2899055">
  <ele>343.08</ele>
  <time>2026-09-01T19:58:52Z</time>
  <course>106.89</course>
  <speed>0.022360679774997897</speed>
  <fix>3d</fix>
</trkpt>
<trkpt lat="-27.2737709" lon="151.2899057">
  <ele>343.08</ele>
  <time>2026-09-01T19:58:52Z</time>
  <course>104.3</course>
  <speed>0.0</speed>
  <fix>3d</fix>
</trkpt>
<trkpt lat="-27.273771" lon="151.2899055">
  <ele>343.08</ele>
  <time>2026-09-01T19:58:52Z</time>
  <course>106.9</course>
  <speed>0.022360679774997897</speed>
  <fix>3d</fix>
</trkpt>
<trkpt lat="-27.2737709" lon="151.2899057">
  <ele>343.08</ele>
  <time>2026-09-01T19:58:52Z</time>
  <course>104.3</course>
  <speed>0.0</speed>
  <fix>3d</fix>
</trkpt>
<trkpt lat="-27.273771" lon="151.2899055">
  <ele>343.08</ele>
  <time>2026-09-01T19:58:52Z</time>
  <course>106.9</course>
  <speed>0.022360679774997897</speed>
  <fix>3d</fix>
</trkpt>
<trkpt lat="-27.2737709" lon="151.2899057">
  <ele>343.08</ele>
  <time>2026-09-01T19:58:52Z</time>
  <course>104.3</course>
  <speed>0.0</speed>
  <fix>3d</fix>
</trkpt>
<trkpt lat="-27.273771" lon="151.2899055">
  <ele>343.08</ele>
  <time>2026-09-01T19:58:52Z</time>
  <course>106.9</course>
  <speed>0.022360679774997897</speed>
  <fix>3d</fix>
</trkpt>
<trkpt lat="-27.2737709" lon="151.2899057">
  <ele>343.08</ele>
  <time>2026-09-01T19:58:52Z</time>
  <course>104.3</course>
  <speed>0.0</speed>
  <fix>3d</fix>
</trkpt>
<trkpt lat="-27.273771" lon="151.2899055">
  <ele>343.08</ele>
  <time>2026-09-01T19:58:52Z</time>
  <course>106.91</course>
  <speed>0.022360679774997897</speed>
  <fix>3d</fix>
</trkpt>
<trkpt lat="-27.2737709" lon="151.2899057">
  <ele>343.08</ele>
  <time>2026-09-01T19:58:52Z</time>
  <course>104.3</course>
  <speed>0.0</speed>
  <fix>3d</fix>
</trkpt>
<trkpt lat="-27.273771" lon="151.2899055">
  <ele>343.08</ele>
  <time>2026-09-01T19:58:52Z</time>
  <course>106.91</course>
  <speed>0.022360679774997897</speed>
  <fix>3d</fix>
</trkpt>
<trkpt lat="-27.2737709" lon="151.2899057">
  <ele>343.08</ele>
  <time>2026-09-01T19:58:52Z</time>
  <course>104.3</course>
  <speed>0.0</speed>
  <fix>3d</fix>
</trkpt>
<trkpt lat="-27.273771" lon="151.2899055">
  <ele>343.08</ele>
  <time>2026-09-01T19:58:52Z</time>
  <course>106.91</course>
  <speed>0.022360679774997897</speed>
  <fix>3d</fix>
</trkpt>
<trkpt lat="-27.2737709" lon="151.2899057">
  <ele>343.08</ele>
  <time>2026-09-01T19:58:52Z</time>
  <course>104.3</course>
  <speed>0.0</speed>
  <fix>3d</fix>
</trkpt>
<trkpt lat="-27.273771" lon="151.2899055">
  <ele>343.07</ele>
  <time>2026-09-01T19:58:52Z</time>
  <course>106.92</course>
  <speed>0.022360679774997897</speed>
  <fix>3d</fix>
</trkpt>
<trkpt lat="-27.2737709" lon="151.2899057">
  <ele>343.08</ele>
  <time>2026-09-01T19:58:52Z</time>
  <course>104.3</course>
  <speed>0.0</speed>
  <fix>3d</fix>
</trkpt>
<trkpt lat="-27.273771" lon="151.2899055">
  <ele>343.07</ele>
  <time>2026-09-01T19:58:52Z</time>
  <course>106.92</course>
  <speed>0.022360679774997897</speed>
  <fix>3d</fix>
</trkpt>
<trkpt lat="-27.2737709" lon="151.2899057">
  <ele>343.08</ele>
  <time>2026-09-01T19:58:52Z</time>
  <course>104.3</course>
  <speed>0.0</speed>
  <fix>3d</fix>
</trkpt>
<trkpt lat="-27.273771" lon="151.2899055">
  <ele>343.07</ele>
  <time>2026-09-01T19:58:52Z</time>
  <course>106.93</course>
  <speed>0.022360679774997897</speed>
  <fix>3d</fix>
</trkpt>
<trkpt lat="-27.2737709" lon="151.2899057">
  <ele>343.08</ele>
  <time>2026-09-01T19:58:52Z</time>
  <course>104.3</course>
  <speed>0.0</speed>
  <fix>3d</fix>
</trkpt>
<trkpt lat="-27.273771" lon="151.2899055">
  <ele>343.06</ele>
  <time>2026-09-01T19:58:52Z</time>
  <course>106.93</course>
  <speed>0.022360679774997897</speed>
  <fix>3d</fix>
</trkpt>
<trkpt lat="-27.2737709" lon="151.2899057">
  <ele>343.08</ele>
  <time>2026-09-01T19:58:52Z</time>
  <course>104.3</course>
  <speed>0.0</speed>
  <fix>3d</fix>
</trkpt>
<trkpt lat="-27.273771" lon="151.2899055">
  <ele>343.06</ele>
  <time>2026-09-01T19:58:52Z</time>
  <course>106.93</course>
  <speed>0.022360679774997897</speed>
  <fix>3d</fix>
</trkpt>
<trkpt lat="-27.2737709" lon="151.2899057">
  <ele>343.08</ele>
  <time>2026-09-01T19:58:52Z</time>
  <course>104.3</course>
  <speed>0.0</speed>
  <fix>3d</fix>
</trkpt>
<trkpt lat="-27.273771" lon="151.2899055">
  <ele>343.06</ele>
  <time>2026-09-01T19:58:52Z</time>
  <course>106.94</course>
  <speed>0.022360679774997897</speed>
  <fix>3d</fix>
</trkpt>
<trkpt lat="-27.2737709" lon="151.2899057">
  <ele>343.08</ele>
  <time>2026-09-01T19:58:52Z</time>
  <course>104.3</course>
  <speed>0.0</speed>
  <fix>3d</fix>
</trkpt>
<trkpt lat="-27.273771" lon="151.2899055">
  <ele>343.06</ele>
  <time>2026-09-01T19:58:52Z</time>
  <course>106.94</course>
  <speed>0.022360679774997897</speed>
  <fix>3d</fix>
</trkpt>
<trkpt lat="-27.2737709" lon="151.2899057">
  <ele>343.08</ele>
  <time>2026-09-01T19:58:52Z</time>
  <course>104.3</course>
  <speed>0.0</speed>
  <fix>3d</fix>
</trkpt>
<trkpt lat="-27.273771" lon="151.2899055">
  <ele>343.05</ele>
  <time>2026-09-01T19:58:52Z</time>
  <course>106.94</course>
  <speed>0.022360679774997897</speed>
  <fix>3d</fix>
</trkpt>
<trkpt lat="-27.2737709" lon="151.2899057">
  <ele>343.08</ele>
  <time>2026-09-01T19:58:52Z</time>
  <course>104.3</course>
  <speed>0.0</speed>
  <fix>3d</fix>
</trkpt>
<trkpt lat="-27.273771" lon="151.2899055">
  <ele>343.05</ele>
  <time>2026-09-01T19:58:52Z</time>
  <course>106.95</course>
  <speed>0.022360679774997897</speed>
  <fix>3d</fix>
</trkpt>
<trkpt lat="-27.2737709" lon="151.2899057">
  <ele>343.08</ele>
  <time>2026-09-01T19:58:52Z</time>
  <course>104.3</course>
  <speed>0.0</speed>
  <fix>3d</fix>
</trkpt>
<trkpt lat="-27.273771" lon="151.2899055">
  <ele>343.05</ele>
  <time>2026-09-01T19:58:52Z</time>
  <course>106.95</course>
  <speed>0.022360679774997897</speed>
  <fix>3d</fix>
</trkpt>
<trkpt lat="-27.2737709" lon="151.2899057">
  <ele>343.08</ele>
  <time>2026-09-01T19:58:52Z</time>
  <course>104.3</course>
  <speed>0.0</speed>
  <fix>3d</fix>
</trkpt>
<trkpt lat="-27.273771" lon="151.2899055">
  <ele>343.05</ele>
  <time>2026-09-01T19:58:52Z</time>
  <course>106.95</course>
  <speed>0.022360679774997897</speed>
  <fix>3d</fix>
</trkpt>
<trkpt lat="-27.2737709" lon="151.2899057">
  <ele>343.08</ele>
  <time>2026-09-01T19:58:52Z</time>
  <course>104.3</course>
  <speed>0.0</speed>
  <fix>3d</fix>
</trkpt>
<trkpt lat="-27.273771" lon="151.2899055">
  <ele>343.04</ele>
  <time>2026-09-01T19:58:52Z</time>
  <course>106.96</course>
  <speed>0.022360679774997897</speed>
  <fix>3d</fix>
</trkpt>
<trkpt lat="-27.2737709" lon="151.2899057">
  <ele>343.08</ele>
  <time>2026-09-01T19:58:52Z</time>
  <course>104.3</course>
  <speed>0.0</speed>
  <fix>3d</fix>
</trkpt>
<trkpt lat="-27.273771" lon="151.2899055">
  <ele>343.04</ele>
  <time>2026-09-01T19:58:52Z</time>
  <course>106.96</course>
  <speed>0.022360679774997897</speed>
  <fix>3d</fix>
</trkpt>
<trkpt lat="-27.2737709" lon="151.2899057">
  <ele>343.08</ele>
  <time>2026-09-01T19:58:52Z</time>
  <course>104.3</course>
  <speed>0.0</speed>
  <fix>3d</fix>
</trkpt>
<trkpt lat="-27.273771" lon="151.2899055">
  <ele>343.04</ele>
  <time>2026-09-01T19:58:52Z</time>
  <course>106.97</course>
  <speed>0.022360679774997897</speed>
  <fix>3d</fix>
</trkpt>
<trkpt lat="-27.2737709" lon="151.2899057">
  <ele>343.08</ele>
  <time>2026-09-01T19:58:52Z</time>
  <course>104.3</course>
  <speed>0.0</speed>
  <fix>3d</fix>
</trkpt>
<trkpt lat="-27.273771" lon="151.2899055">
  <ele>343.04</ele>
  <time>2026-09-01T19:58:52Z</time>
  <course>106.97</course>
  <speed>0.022360679774997897</speed>
  <fix>3d</fix>
</trkpt>
<trkpt lat="-27.2737709" lon="151.2899057">
  <ele>343.08</ele>
  <time>2026-09-01T19:58:52Z</time>
  <course>104.3</course>
  <speed>0.0</speed>
  <fix>3d</fix>
</trkpt>
<trkpt lat="-27.273771" lon="151.2899055">
  <ele>343.03</ele>
  <time>2026-09-01T19:58:52Z</time>
  <course>106.97</course>
  <speed>0.022360679774997897</speed>
  <fix>3d</fix>
</trkpt>
<trkpt lat="-27.2737709" lon="151.2899057">
  <ele>343.08</ele>
  <time>2026-09-01T19:58:52Z</time>
  <course>104.3</course>
  <speed>0.0</speed>
  <fix>3d</fix>
</trkpt>
<trkpt lat="-27.273771" lon="151.2899055">
  <ele>343.03</ele>
  <time>2026-09-01T19:58:52Z</time>
  <course>106.98</course>
  <speed>0.022360679774997897</speed>
  <fix>3d</fix>
</trkpt>
<trkpt lat="-27.2737709" lon="151.2899057">
  <ele>343.08</ele>
  <time>2026-09-01T19:58:52Z</time>
  <course>104.3</course>
  <speed>0.0</speed>
  <fix>3d</fix>
</trkpt>
<trkpt lat="-27.273771" lon="151.2899055">
  <ele>343.03</ele>
  <time>2026-09-01T19:58:52Z</time>
  <course>106.98</course>
  <speed>0.022360679774997897</speed>
  <fix>3d</fix>
</trkpt>
<trkpt lat="-27.2737709" lon="151.2899057">
  <ele>343.08</ele>
  <time>2026-09-01T19:58:52Z</time>
  <course>104.3</course>
  <speed>0.0</speed>
  <fix>3d</fix>
</trkpt>
<trkpt lat="-27.273771" lon="151.2899055">
  <ele>343.02</ele>
  <time>2026-09-01T19:58:52Z</time>
  <course>106.98</course>
  <speed>0.022360679774997897</speed>
  <fix>3d</fix>
</trkpt>
<trkpt lat="-27.2737709" lon="151.2899057">
  <ele>343.08</ele>
  <time>2026-09-01T19:58:52Z</time>
  <course>104.3</course>
  <speed>0.0</speed>
  <fix>3d</fix>
</trkpt>
<trkpt lat="-27.273771" lon="151.2899055">
  <ele>343.02</ele>
  <time>2026-09-01T19:58:52Z</time>
  <course>106.99</course>
  <speed>0.022360679774997897</speed>
  <fix>3d</fix>
</trkpt>
<trkpt lat="-27.2737709" lon="151.2899057">
  <ele>343.08</ele>
  <time>2026-09-01T19:58:52Z</time>
  <course>104.3</course>
  <speed>0.0</speed>
  <fix>3d</fix>
</trkpt>
<trkpt lat="-27.273771" lon="151.2899055">
  <ele>343.02</ele>
  <time>2026-09-01T19:58:52Z</time>
  <course>106.99</course>
  <speed>0.022360679774997897</speed>
  <fix>3d</fix>
</trkpt>
<trkpt lat="-27.2737709" lon="151.2899057">
  <ele>343.08</ele>
  <time>2026-09-01T19:58:52Z</time>
  <course>104.3</course>
  <speed>0.0</speed>
  <fix>3d</fix>
</trkpt>
<trkpt lat="-27.273771" lon="151.2899055">
  <ele>343.02</ele>
  <time>2026-09-01T19:58:52Z</time>
  <course>106.99</course>
  <speed>0.022360679774997897</speed>
  <fix>3d</fix>
</trkpt>
<trkpt lat="-27.2737709" lon="151.2899057">
  <ele>343.08</ele>
  <time>2026-09-01T19:58:52Z</time>
  <course>104.3</course>
  <speed>0.0</speed>
  <fix>3d</fix>
</trkpt>
<trkpt lat="-27.273771" lon="151.2899055">
  <ele>343.02</ele>
  <time>2026-09-01T19:58:52Z</time>
  <course>107.0</course>
  <speed>0.022360679774997897</speed>
  <fix>3d</fix>
</trkpt>
<trkpt lat="-27.2737709" lon="151.2899057">
  <ele>343.08</ele>
  <time>2026-09-01T19:58:52Z</time>
  <course>104.3</course>
  <speed>0.0</speed>
  <fix>3d</fix>
</trkpt>
<trkpt lat="-27.273771" lon="151.2899055">
  <ele>343.02</ele>
  <time>2026-09-01T19:58:52Z</time>
  <course>107.0</course>
  <speed>0.022360679774997897</speed>
  <fix>3d</fix>
</trkpt>
<trkpt lat="-27.2737709" lon="151.2899057">
  <ele>343.08</ele>
  <time>2026-09-01T19:58:52Z</time>
  <course>104.3</course>
  <speed>0.0</speed>
  <fix>3d</fix>
</trkpt>
<trkpt lat="-27.273771" lon="151.2899055">
  <ele>343.02</ele>
  <time>2026-09-01T19:58:52Z</time>
  <course>107.01</course>
  <speed>0.022360679774997897</speed>
  <fix>3d</fix>
</trkpt>
<trkpt lat="-27.2737709" lon="151.2899057">
  <ele>343.08</ele>
  <time>2026-09-01T19:58:52Z</time>
  <course>104.3</course>
  <speed>0.0</speed>
  <fix>3d</fix>
</trkpt>
<trkpt lat="-27.273771" lon="151.2899055">
  <ele>343.02</ele>
  <time>2026-09-01T19:58:52Z</time>
  <course>107.01</course>
  <speed>0.022360679774997897</speed>
  <fix>3d</fix>
</trkpt>
<trkpt lat="-27.2737709" lon="151.2899057">
  <ele>343.08</ele>
  <time>2026-09-01T19:58:52Z</time>
  <course>104.3</course>
  <speed>0.0</speed>
  <fix>3d</fix>
</trkpt>
<trkpt lat="-27.273771" lon="151.2899055">
  <ele>343.02</ele>
  <time>2026-09-01T19:58:52Z</time>
  <course>107.01</course>
  <speed>0.022360679774997897</speed>
  <fix>3d</fix>
</trkpt>
<trkpt lat="-27.2737709" lon="151.2899057">
  <ele>343.08</ele>
  <time>2026-09-01T19:58:52Z</time>
  <course>104.3</course>
  <speed>0.0</speed>
  <fix>3d</fix>
</trkpt>
<trkpt lat="-27.273771" lon="151.2899055">
  <ele>343.02</ele>
  <time>2026-09-01T19:58:52Z</time>
  <course>107.02</course>
  <speed>0.022360679774997897</speed>
  <fix>3d</fix>
</trkpt>
<trkpt lat="-27.2737709" lon="151.2899057">
  <ele>343.08</ele>
  <time>2026-09-01T19:58:52Z</time>
  <course>104.3</course>
  <speed>0.0</speed>
  <fix>3d</fix>
</trkpt>
<trkpt lat="-27.273771" lon="151.2899055">
  <ele>343.01</ele>
  <time>2026-09-01T19:58:52Z</time>
  <course>107.02</course>
  <speed>0.022360679774997897</speed>
  <fix>3d</fix>
</trkpt>
<trkpt lat="-27.2737709" lon="151.2899057">
  <ele>343.08</ele>
  <time>2026-09-01T19:58:52Z</time>
  <course>104.3</course>
  <speed>0.0</speed>
  <fix>3d</fix>
</trkpt>
<trkpt lat="-27.273771" lon="151.2899055">
  <ele>343.01</ele>
  <time>2026-09-01T19:58:52Z</time>
  <course>107.02</course>
  <speed>0.022360679774997897</speed>
  <fix>3d</fix>
</trkpt>
<trkpt lat="-27.2737709" lon="151.2899057">
  <ele>343.08</ele>
  <time>2026-09-01T19:58:52Z</time>
  <course>104.3</course>
  <speed>0.0</speed>
  <fix>3d</fix>
</trkpt>
<trkpt lat="-27.273771" lon="151.2899055">
  <ele>343.01</ele>
  <time>2026-09-01T19:58:52Z</time>
  <course>107.03</course>
  <speed>0.022360679774997897</speed>
  <fix>3d</fix>
</trkpt>
<trkpt lat="-27.2737709" lon="151.2899057">
  <ele>343.08</ele>
  <time>2026-09-01T19:58:52Z</time>
  <course>104.3</course>
  <speed>0.0</speed>
  <fix>3d</fix>
</trkpt>
<trkpt lat="-27.273771" lon="151.2899055">
  <ele>343.01</ele>
  <time>2026-09-01T19:58:52Z</time>
  <course>107.03</course>
  <speed>0.022360679774997897</speed>
  <fix>3d</fix>
</trkpt>
<trkpt lat="-27.2737709" lon="151.2899057">
  <ele>343.08</ele>
  <time>2026-09-01T19:58:52Z</time>
  <course>104.3</course>
  <speed>0.0</speed>
  <fix>3d</fix>
</trkpt>
<trkpt lat="-27.273771" lon="151.2899055">
  <ele>343.0</ele>
  <time>2026-09-01T19:58:52Z</time>
  <course>107.04</course>
  <speed>0.022360679774997897</speed>
  <fix>3d</fix>
</trkpt>
<trkpt lat="-27.2737709" lon="151.2899057">
  <ele>343.08</ele>
  <time>2026-09-01T19:58:52Z</time>
  <course>104.3</course>
  <speed>0.0</speed>
  <fix>3d</fix>
</trkpt>
<trkpt lat="-27.273771" lon="151.2899055">
  <ele>343.0</ele>
  <time>2026-09-01T19:58:52Z</time>
  <course>107.04</course>
  <speed>0.022360679774997897</speed>
  <fix>3d</fix>
</trkpt>
<trkpt lat="-27.2737709" lon="151.2899057">
  <ele>343.08</ele>
  <time>2026-09-01T19:58:52Z</time>
  <course>104.3</course>
  <speed>0.0</speed>
  <fix>3d</fix>
</trkpt>
<trkpt lat="-27.273771" lon="151.2899055">
  <ele>343.0</ele>
  <time>2026-09-01T19:58:52Z</time>
  <course>107.04</course>
  <speed>0.022360679774997897</speed>
  <fix>3d</fix>
</trkpt>
<trkpt lat="-27.2737709" lon="151.2899057">
  <ele>343.08</ele>
  <time>2026-09-01T19:58:52Z</time>
  <course>104.3</course>
  <speed>0.0</speed>
  <fix>3d</fix>
</trkpt>
<trkpt lat="-27.273771" lon="151.2899055">
  <ele>343.0</ele>
  <time>2026-09-01T19:58:52Z</time>
  <course>107.05</course>
  <speed>0.022360679774997897</speed>
  <fix>3d</fix>
</trkpt>
<trkpt lat="-27.2737709" lon="151.2899057">
  <ele>343.08</ele>
  <time>2026-09-01T19:58:52Z</time>
  <course>104.3</course>
  <speed>0.0</speed>
  <fix>3d</fix>
</trkpt>
<trkpt lat="-27.273771" lon="151.2899055">
  <ele>343.0</ele>
  <time>2026-09-01T19:58:52Z</time>
  <course>107.05</course>
  <speed>0.022360679774997897</speed>
  <fix>3d</fix>
</trkpt>
<trkpt lat="-27.2737709" lon="151.2899057">
  <ele>343.08</ele>
  <time>2026-09-01T19:58:52Z</time>
  <course>104.3</course>
  <speed>0.0</speed>
  <fix>3d</fix>
</trkpt>
<trkpt lat="-27.273771" lon="151.2899055">
  <ele>343.0</ele>
  <time>2026-09-01T19:58:52Z</time>
  <course>107.05</course>
  <speed>0.022360679774997897</speed>
  <fix>3d</fix>
</trkpt>
<trkpt lat="-27.2737709" lon="151.2899057">
  <ele>343.08</ele>
  <time>2026-09-01T19:58:52Z</time>
  <course>104.3</course>
  <speed>0.0</speed>
  <fix>3d</fix>
</trkpt>
<trkpt lat="-27.273771" lon="151.2899055">
  <ele>343.0</ele>
  <time>2026-09-01T19:58:52Z</time>
  <course>107.06</course>
  <speed>0.022360679774997897</speed>
  <fix>3d</fix>
</trkpt>
<trkpt lat="-27.2737709" lon="151.2899057">
  <ele>343.08</ele>
  <time>2026-09-01T19:58:52Z</time>
  <course>104.3</course>
  <speed>0.0</speed>
  <fix>3d</fix>
</trkpt>
<trkpt lat="-27.273771" lon="151.2899055">
  <ele>343.0</ele>
  <time>2026-09-01T19:58:52Z</time>
  <course>107.06</course>
  <speed>0.022360679774997897</speed>
  <fix>3d</fix>
</trkpt>
<trkpt lat="-27.2737709" lon="151.2899057">
  <ele>343.08</ele>
  <time>2026-09-01T19:58:52Z</time>
  <course>104.3</course>
  <speed>0.0</speed>
  <fix>3d</fix>
</trkpt>
<trkpt lat="-27.273771" lon="151.2899055">
  <ele>343.0</ele>
  <time>2026-09-01T19:58:52Z</time>
  <course>107.07</course>
  <speed>0.022360679774997897</speed>
  <fix>3d</fix>
</trkpt>
<trkpt lat="-27.2737709" lon="151.2899057">
  <ele>343.08</ele>
  <time>2026-09-01T19:58:52Z</time>
  <course>104.3</course>
  <speed>0.0</speed>
  <fix>3d</fix>
</trkpt>
<trkpt lat="-27.273771" lon="151.2899055">
  <ele>343.0</ele>
  <time>2026-09-01T19:58:52Z</time>
  <course>107.07</course>
  <speed>0.022360679774997897</speed>
  <fix>3d</fix>
</trkpt>
<trkpt lat="-27.2737709" lon="151.2899057">
  <ele>343.08</ele>
  <time>2026-09-01T19:58:52Z</time>
  <course>104.3</course>
  <speed>0.0</speed>
  <fix>3d</fix>
</trkpt>
<trkpt lat="-27.273771" lon="151.2899055">
  <ele>342.99</ele>
  <time>2026-09-01T19:58:52Z</time>
  <course>107.07</course>
  <speed>0.022360679774997897</speed>
  <fix>3d</fix>
</trkpt>
<trkpt lat="-27.2737709" lon="151.2899057">
  <ele>343.08</ele>
  <time>2026-09-01T19:58:52Z</time>
  <course>104.3</course>
  <speed>0.0</speed>
  <fix>3d</fix>
</trkpt>
<trkpt lat="-27.273771" lon="151.2899055">
  <ele>342.99</ele>
  <time>2026-09-01T19:58:52Z</time>
  <course>107.08</course>
  <speed>0.022360679774997897</speed>
  <fix>3d</fix>
</trkpt>
<trkpt lat="-27.2737709" lon="151.2899057">
  <ele>343.08</ele>
  <time>2026-09-01T19:58:52Z</time>
  <course>104.3</course>
  <speed>0.0</speed>
  <fix>3d</fix>
</trkpt>
<trkpt lat="-27.273771" lon="151.2899055">
  <ele>342.99</ele>
  <time>2026-09-01T19:58:52Z</time>
  <course>107.08</course>
  <speed>0.022360679774997897</speed>
  <fix>3d</fix>
</trkpt>
<trkpt lat="-27.2737709" lon="151.2899057">
  <ele>343.08</ele>
  <time>2026-09-01T19:58:52Z</time>
  <course>104.3</course>
  <speed>0.0</speed>
  <fix>3d</fix>
</trkpt>
<trkpt lat="-27.273771" lon="151.2899055">
  <ele>342.99</ele>
  <time>2026-09-01T19:58:52Z</time>
  <course>107.09</course>
  <speed>0.022360679774997897</speed>
  <fix>3d</fix>
</trkpt>
<trkpt lat="-27.2737709" lon="151.2899057">
  <ele>343.08</ele>
  <time>2026-09-01T19:58:52Z</time>
  <course>104.3</course>
  <speed>0.0</speed>
  <fix>3d</fix>
</trkpt>
<trkpt lat="-27.273771" lon="151.2899055">
  <ele>342.99</ele>
  <time>2026-09-01T19:58:52Z</time>
  <course>107.09</course>
  <speed>0.022360679774997897</speed>
  <fix>3d</fix>
</trkpt>
<trkpt lat="-27.2737709" lon="151.2899057">
  <ele>343.08</ele>
  <time>2026-09-01T19:58:52Z</time>
  <course>104.3</course>
  <speed>0.0</speed>
  <fix>3d</fix>
</trkpt>
<trkpt lat="-27.273771" lon="151.2899055">
  <ele>342.99</ele>
  <time>2026-09-01T19:58:52Z</time>
  <course>107.09</course>
  <speed>0.022360679774997897</speed>
  <fix>3d</fix>
</trkpt>
<trkpt lat="-27.2737709" lon="151.2899057">
  <ele>343.08</ele>
  <time>2026-09-01T19:58:52Z</time>
  <course>104.3</course>
  <speed>0.0</speed>
  <fix>3d</fix>
</trkpt>
<trkpt lat="-27.273771" lon="151.2899055">
  <ele>342.99</ele>
  <time>2026-09-01T19:58:52Z</time>
  <course>107.1</course>
  <speed>0.022360679774997897</speed>
  <fix>3d</fix>
</trkpt>
<trkpt lat="-27.2737709" lon="151.2899057">
  <ele>343.08</ele>
  <time>2026-09-01T19:58:52Z</time>
  <course>104.3</course>
  <speed>0.0</speed>
  <fix>3d</fix>
</trkpt>
<trkpt lat="-27.273771" lon="151.2899055">
  <ele>342.99</ele>
  <time>2026-09-01T19:58:52Z</time>
  <course>107.1</course>
  <speed>0.022360679774997897</speed>
  <fix>3d</fix>
</trkpt>
<trkpt lat="-27.2737709" lon="151.2899057">
  <ele>343.08</ele>
  <time>2026-09-01T19:58:52Z</time>
  <course>104.3</course>
  <speed>0.0</speed>
  <fix>3d</fix>
</trkpt>
<trkpt lat="-27.273771" lon="151.2899055">
  <ele>342.99</ele>
  <time>2026-09-01T19:58:52Z</time>
  <course>107.1</course>
  <speed>0.022360679774997897</speed>
  <fix>3d</fix>
</trkpt>
<trkpt lat="-27.2737709" lon="151.2899057">
  <ele>343.08</ele>
  <time>2026-09-01T19:58:52Z</time>
  <course>104.3</course>
  <speed>0.0</speed>
  <fix>3d</fix>
</trkpt>
<trkpt lat="-27.273771" lon="151.2899055">
  <ele>342.99</ele>
  <time>2026-09-01T19:58:52Z</time>
  <course>107.11</course>
  <speed>0.022360679774997897</speed>
  <fix>3d</fix>
</trkpt>
<trkpt lat="-27.2737709" lon="151.2899057">
  <ele>343.08</ele>
  <time>2026-09-01T19:58:52Z</time>
  <course>104.3</course>
  <speed>0.0</speed>
  <fix>3d</fix>
</trkpt>
<trkpt lat="-27.273771" lon="151.2899055">
  <ele>342.99</ele>
  <time>2026-09-01T19:58:52Z</time>
  <course>107.11</course>
  <speed>0.022360679774997897</speed>
  <fix>3d</fix>
</trkpt>
<trkpt lat="-27.2737709" lon="151.2899057">
  <ele>343.08</ele>
  <time>2026-09-01T19:58:52Z</time>
  <course>104.3</course>
  <speed>0.0</speed>
  <fix>3d</fix>
</trkpt>
<trkpt lat="-27.273771" lon="151.2899055">
  <ele>343.07</ele>
  <time>2026-09-01T19:58:52Z</time>
  <course>107.12</course>
  <speed>0.022360679774997897</speed>
  <fix>3d</fix>
</trkpt>
<trkpt lat="-27.2737709" lon="151.2899057">
  <ele>343.08</ele>
  <time>2026-09-01T19:58:52Z</time>
  <course>104.3</course>
  <speed>0.0</speed>
  <fix>3d</fix>
</trkpt>
<trkpt lat="-27.273771" lon="151.2899055">
  <ele>343.07</ele>
  <time>2026-09-01T19:58:52Z</time>
  <course>107.12</course>
  <speed>0.022360679774997897</speed>
  <fix>3d</fix>
</trkpt>
<trkpt lat="-27.2737709" lon="151.2899057">
  <ele>343.08</ele>
  <time>2026-09-01T19:58:52Z</time>
  <course>104.3</course>
  <speed>0.0</speed>
  <fix>3d</fix>
</trkpt>
<trkpt lat="-27.273771" lon="151.2899055">
  <ele>343.07</ele>
  <time>2026-09-01T19:58:52Z</time>
  <course>107.12</course>
  <speed>0.022360679774997897</speed>
  <fix>3d</fix>
</trkpt>
<trkpt lat="-27.2737709" lon="151.2899057">
  <ele>343.08</ele>
  <time>2026-09-01T19:58:52Z</time>
  <course>104.3</course>
  <speed>0.0</speed>
  <fix>3d</fix>
</trkpt>
<trkpt lat="-27.273771" lon="151.2899055">
  <ele>343.07</ele>
  <time>2026-09-01T19:58:52Z</time>
  <course>107.13</course>
  <speed>0.022360679774997897</speed>
  <fix>3d</fix>
</trkpt>
<trkpt lat="-27.2737709" lon="151.2899057">
  <ele>343.08</ele>
  <time>2026-09-01T19:58:52Z</time>
  <course>104.3</course>
  <speed>0.0</speed>
  <fix>3d</fix>
</trkpt>
<trkpt lat="-27.273771" lon="151.2899055">
  <ele>343.07</ele>
  <time>2026-09-01T19:58:52Z</time>
  <course>107.13</course>
  <speed>0.022360679774997897</speed>
  <fix>3d</fix>
</trkpt>
<trkpt lat="-27.2737709" lon="151.2899057">
  <ele>343.08</ele>
  <time>2026-09-01T19:58:52Z</time>
  <course>104.3</course>
  <speed>0.0</speed>
  <fix>3d</fix>
</trkpt>
<trkpt lat="-27.273771" lon="151.2899055">
  <ele>343.07</ele>
  <time>2026-09-01T19:58:52Z</time>
  <course>107.14</course>
  <speed>0.022360679774997897</speed>
  <fix>3d</fix>
</trkpt>
<trkpt lat="-27.2737709" lon="151.2899057">
  <ele>343.08</ele>
  <time>2026-09-01T19:58:52Z</time>
  <course>104.3</course>
  <speed>0.0</speed>
  <fix>3d</fix>
</trkpt>
<trkpt lat="-27.273771" lon="151.2899055">
  <ele>343.07</ele>
  <time>2026-09-01T19:58:52Z</time>
  <course>107.14</course>
  <speed>0.022360679774997897</speed>
  <fix>3d</fix>
</trkpt>
<trkpt lat="-27.2737709" lon="151.2899057">
  <ele>343.08</ele>
  <time>2026-09-01T19:58:52Z</time>
  <course>104.3</course>
  <speed>0.0</speed>
  <fix>3d</fix>
</trkpt>
<trkpt lat="-27.273771" lon="151.2899055">
  <ele>343.07</ele>
  <time>2026-09-01T19:58:52Z</time>
  <course>107.14</course>
  <speed>0.022360679774997897</speed>
  <fix>3d</fix>
</trkpt>
<trkpt lat="-27.2737709" lon="151.2899057">
  <ele>343.08</ele>
  <time>2026-09-01T19:58:52Z</time>
  <course>104.3</course>
  <speed>0.0</speed>
  <fix>3d</fix>
</trkpt>
<trkpt lat="-27.273771" lon="151.2899055">
  <ele>343.07</ele>
  <time>2026-09-01T19:58:52Z</time>
  <course>107.15</course>
  <speed>0.022360679774997897</speed>
  <fix>3d</fix>
</trkpt>
<trkpt lat="-27.2737709" lon="151.2899057">
  <ele>343.08</ele>
  <time>2026-09-01T19:58:52Z</time>
  <course>104.3</course>
  <speed>0.0</speed>
  <fix>3d</fix>
</trkpt>
<trkpt lat="-27.273771" lon="151.2899055">
  <ele>343.07</ele>
  <time>2026-09-01T19:58:52Z</time>
  <course>107.15</course>
  <speed>0.022360679774997897</speed>
  <fix>3d</fix>
</trkpt>
<trkpt lat="-27.2737709" lon="151.2899057">
  <ele>343.08</ele>
  <time>2026-09-01T19:58:52Z</time>
  <course>104.3</course>
  <speed>0.0</speed>
  <fix>3d</fix>
</trkpt>
<trkpt lat="-27.273771" lon="151.2899055">
  <ele>343.06</ele>
  <time>2026-09-01T19:58:52Z</time>
  <course>107.15</course>
  <speed>0.022360679774997897</speed>
  <fix>3d</fix>
</trkpt>
<trkpt lat="-27.2737709" lon="151.2899057">
  <ele>343.08</ele>
  <time>2026-09-01T19:58:52Z</time>
  <course>104.3</course>
  <speed>0.0</speed>
  <fix>3d</fix>
</trkpt>
<trkpt lat="-27.273771" lon="151.2899055">
  <ele>343.06</ele>
  <time>2026-09-01T19:58:52Z</time>
  <course>107.16</course>
  <speed>0.022360679774997897</speed>
  <fix>3d</fix>
</trkpt>
<trkpt lat="-27.2737709" lon="151.2899057">
  <ele>343.08</ele>
  <time>2026-09-01T19:58:52Z</time>
  <course>104.3</course>
  <speed>0.0</speed>
  <fix>3d</fix>
</trkpt>
<trkpt lat="-27.273771" lon="151.2899055">
  <ele>343.06</ele>
  <time>2026-09-01T19:58:52Z</time>
  <course>107.16</course>
  <speed>0.022360679774997897</speed>
  <fix>3d</fix>
</trkpt>
<trkpt lat="-27.2737709" lon="151.2899057">
  <ele>343.08</ele>
  <time>2026-09-01T19:58:52Z</time>
  <course>104.3</course>
  <speed>0.0</speed>
  <fix>3d</fix>
</trkpt>
<trkpt lat="-27.273771" lon="151.2899055">
  <ele>343.06</ele>
  <time>2026-09-01T19:58:52Z</time>
  <course>107.17</course>
  <speed>0.022360679774997897</speed>
  <fix>3d</fix>
</trkpt>
<trkpt lat="-27.2737709" lon="151.2899057">
  <ele>343.08</ele>
  <time>2026-09-01T19:58:52Z</time>
  <course>104.3</course>
  <speed>0.0</speed>
  <fix>3d</fix>
</trkpt>
<trkpt lat="-27.273771" lon="151.2899055">
  <ele>343.06</ele>
  <time>2026-09-01T19:58:52Z</time>
  <course>107.17</course>
  <speed>0.022360679774997897</speed>
  <fix>3d</fix>
</trkpt>
<trkpt lat="-27.2737709" lon="151.2899057">
  <ele>343.08</ele>
  <time>2026-09-01T19:58:52Z</time>
  <course>104.3</course>
  <speed>0.0</speed>
  <fix>3d</fix>
</trkpt>
<trkpt lat="-27.273771" lon="151.2899055">
  <ele>343.06</ele>
  <time>2026-09-01T19:58:52Z</time>
  <course>107.17</course>
  <speed>0.022360679774997897</speed>
  <fix>3d</fix>
</trkpt>
<trkpt lat="-27.2737709" lon="151.2899057">
  <ele>343.08</ele>
  <time>2026-09-01T19:58:52Z</time>
  <course>104.3</course>
  <speed>0.0</speed>
  <fix>3d</fix>
</trkpt>
<trkpt lat="-27.273771" lon="151.2899055">
  <ele>343.06</ele>
  <time>2026-09-01T19:58:52Z</time>
  <course>107.18</course>
  <speed>0.022360679774997897</speed>
  <fix>3d</fix>
</trkpt>
<trkpt lat="-27.2737709" lon="151.2899057">
  <ele>343.08</ele>
  <time>2026-09-01T19:58:52Z</time>
  <course>104.3</course>
  <speed>0.0</speed>
  <fix>3d</fix>
</trkpt>
<trkpt lat="-27.273771" lon="151.2899055">
  <ele>343.06</ele>
  <time>2026-09-01T19:58:52Z</time>
  <course>107.18</course>
  <speed>0.022360679774997897</speed>
  <fix>3d</fix>
</trkpt>
<trkpt lat="-27.2737709" lon="151.2899057">
  <ele>343.08</ele>
  <time>2026-09-01T19:58:52Z</time>
  <course>104.3</course>
  <speed>0.0</speed>
  <fix>3d</fix>
</trkpt>
<trkpt lat="-27.273771" lon="151.2899055">
  <ele>343.06</ele>
  <time>2026-09-01T19:58:52Z</time>
  <course>107.19</course>
  <speed>0.022360679774997897</speed>
  <fix>3d</fix>
</trkpt>
<trkpt lat="-27.2737709" lon="151.2899057">
  <ele>343.08</ele>
  <time>2026-09-01T19:58:52Z</time>
  <course>104.3</course>
  <speed>0.0</speed>
  <fix>3d</fix>
</trkpt>
<trkpt lat="-27.273771" lon="151.2899055">
  <ele>343.06</ele>
  <time>2026-09-01T19:58:52Z</time>
  <course>107.19</course>
  <speed>0.022360679774997897</speed>
  <fix>3d</fix>
</trkpt>
<trkpt lat="-27.2737709" lon="151.2899057">
  <ele>343.08</ele>
  <time>2026-09-01T19:58:52Z</time>
  <course>104.3</course>
  <speed>0.0</speed>
  <fix>3d</fix>
</trkpt>
<trkpt lat="-27.273771" lon="151.2899055">
  <ele>343.06</ele>
  <time>2026-09-01T19:58:52Z</time>
  <course>107.19</course>
  <speed>0.022360679774997897</speed>
  <fix>3d</fix>
</trkpt>
<trkpt lat="-27.2737709" lon="151.2899057">
  <ele>343.08</ele>
  <time>2026-09-01T19:58:52Z</time>
  <course>104.3</course>
  <speed>0.0</speed>
  <fix>3d</fix>
</trkpt>
<trkpt lat="-27.273771" lon="151.2899055">
  <ele>343.06</ele>
  <time>2026-09-01T19:58:52Z</time>
  <course>107.2</course>
  <speed>0.022360679774997897</speed>
  <fix>3d</fix>
</trkpt>
<trkpt lat="-27.2737709" lon="151.2899057">
  <ele>343.08</ele>
  <time>2026-09-01T19:58:52Z</time>
  <course>104.3</course>
  <speed>0.0</speed>
  <fix>3d</fix>
</trkpt>
<trkpt lat="-27.273771" lon="151.2899055">
  <ele>343.06</ele>
  <time>2026-09-01T19:58:52Z</time>
  <course>107.2</course>
  <speed>0.022360679774997897</speed>
  <fix>3d</fix>
</trkpt>
<trkpt lat="-27.2737709" lon="151.2899057">
  <ele>343.08</ele>
  <time>2026-09-01T19:58:52Z</time>
  <course>104.3</course>
  <speed>0.0</speed>
  <fix>3d</fix>
</trkpt>
<trkpt lat="-27.273771" lon="151.2899055">
  <ele>343.07</ele>
  <time>2026-09-01T19:58:52Z</time>
  <course>107.21</course>
  <speed>0.022360679774997897</speed>
  <fix>3d</fix>
</trkpt>
<trkpt lat="-27.2737709" lon="151.2899057">
  <ele>343.08</ele>
  <time>2026-09-01T19:58:52Z</time>
  <course>104.3</course>
  <speed>0.0</speed>
  <fix>3d</fix>
</trkpt>
<trkpt lat="-27.273771" lon="151.2899055">
  <ele>343.07</ele>
  <time>2026-09-01T19:58:52Z</time>
  <course>107.21</course>
  <speed>0.022360679774997897</speed>
  <fix>3d</fix>
</trkpt>
<trkpt lat="-27.2737709" lon="151.2899057">
  <ele>343.08</ele>
  <time>2026-09-01T19:58:52Z</time>
  <course>104.3</course>
  <speed>0.0</speed>
  <fix>3d</fix>
</trkpt>
<trkpt lat="-27.273771" lon="151.2899055">
  <ele>343.07</ele>
  <time>2026-09-01T19:58:52Z</time>
  <course>107.21</course>
  <speed>0.022360679774997897</speed>
  <fix>3d</fix>
</trkpt>
<trkpt lat="-27.2737709" lon="151.2899057">
  <ele>343.08</ele>
  <time>2026-09-01T19:58:52Z</time>
  <course>104.3</course>
  <speed>0.0</speed>
  <fix>3d</fix>
</trkpt>
<trkpt lat="-27.273771" lon="151.2899055">
  <ele>343.06</ele>
  <time>2026-09-01T19:58:52Z</time>
  <course>107.22</course>
  <speed>0.022360679774997897</speed>
  <fix>3d</fix>
</trkpt>
<trkpt lat="-27.2737709" lon="151.2899057">
  <ele>343.08</ele>
  <time>2026-09-01T19:58:52Z</time>
  <course>104.3</course>
  <speed>0.0</speed>
  <fix>3d</fix>
</trkpt>
<trkpt lat="-27.273771" lon="151.2899055">
  <ele>343.06</ele>
  <time>2026-09-01T19:58:52Z</time>
  <course>107.22</course>
  <speed>0.022360679774997897</speed>
  <fix>3d</fix>
</trkpt>
<trkpt lat="-27.2737709" lon="151.2899057">
  <ele>343.08</ele>
  <time>2026-09-01T19:58:52Z</time>
  <course>104.3</course>
  <speed>0.0</speed>
  <fix>3d</fix>
</trkpt>
<trkpt lat="-27.273771" lon="151.2899055">
  <ele>343.06</ele>
  <time>2026-09-01T19:58:52Z</time>
  <course>107.22</course>
  <speed>0.022360679774997897</speed>
  <fix>3d</fix>
</trkpt>
<trkpt lat="-27.2737709" lon="151.2899057">
  <ele>343.08</ele>
  <time>2026-09-01T19:58:52Z</time>
  <course>104.3</course>
  <speed>0.0</speed>
  <fix>3d</fix>
</trkpt>
<trkpt lat="-27.273771" lon="151.2899055">
  <ele>343.06</ele>
  <time>2026-09-01T19:58:52Z</time>
  <course>107.23</course>
  <speed>0.022360679774997897</speed>
  <fix>3d</fix>
</trkpt>
<trkpt lat="-27.2737709" lon="151.2899057">
  <ele>343.08</ele>
  <time>2026-09-01T19:58:52Z</time>
  <course>104.3</course>
  <speed>0.0</speed>
  <fix>3d</fix>
</trkpt>
<trkpt lat="-27.273771" lon="151.2899055">
  <ele>343.06</ele>
  <time>2026-09-01T19:58:52Z</time>
  <course>107.23</course>
  <speed>0.022360679774997897</speed>
  <fix>3d</fix>
</trkpt>
<trkpt lat="-27.2737709" lon="151.2899057">
  <ele>343.08</ele>
  <time>2026-09-01T19:58:52Z</time>
  <course>104.3</course>
  <speed>0.0</speed>
  <fix>3d</fix>
</trkpt>
<trkpt lat="-27.273771" lon="151.2899055">
  <ele>343.06</ele>
  <time>2026-09-01T19:58:52Z</time>
  <course>107.24</course>
  <speed>0.022360679774997897</speed>
  <fix>3d</fix>
</trkpt>
<trkpt lat="-27.2737709" lon="151.2899057">
  <ele>343.08</ele>
  <time>2026-09-01T19:58:52Z</time>
  <course>104.3</course>
  <speed>0.0</speed>
  <fix>3d</fix>
</trkpt>
<trkpt lat="-27.273771" lon="151.2899055">
  <ele>343.06</ele>
  <time>2026-09-01T19:58:52Z</time>
  <course>107.24</course>
  <speed>0.022360679774997897</speed>
  <fix>3d</fix>
</trkpt>
<trkpt lat="-27.2737709" lon="151.2899057">
  <ele>343.08</ele>
  <time>2026-09-01T19:58:52Z</time>
  <course>104.3</course>
  <speed>0.0</speed>
  <fix>3d</fix>
</trkpt>
<trkpt lat="-27.273771" lon="151.2899055">
  <ele>343.06</ele>
  <time>2026-09-01T19:58:52Z</time>
  <course>107.24</course>
  <speed>0.022360679774997897</speed>
  <fix>3d</fix>
</trkpt>
<trkpt lat="-27.2737709" lon="151.2899057">
  <ele>343.08</ele>
  <time>2026-09-01T19:58:52Z</time>
  <course>104.3</course>
  <speed>0.0</speed>
  <fix>3d</fix>
</trkpt>
<trkpt lat="-27.273771" lon="151.2899055">
  <ele>343.06</ele>
  <time>2026-09-01T19:58:52Z</time>
  <course>107.25</course>
  <speed>0.022360679774997897</speed>
  <fix>3d</fix>
</trkpt>
<trkpt lat="-27.2737709" lon="151.2899057">
  <ele>343.08</ele>
  <time>2026-09-01T19:58:52Z</time>
  <course>104.3</course>
  <speed>0.0</speed>
  <fix>3d</fix>
</trkpt>
<trkpt lat="-27.273771" lon="151.2899055">
  <ele>343.06</ele>
  <time>2026-09-01T19:58:52Z</time>
  <course>107.25</course>
  <speed>0.022360679774997897</speed>
  <fix>3d</fix>
</trkpt>
<trkpt lat="-27.2737709" lon="151.2899057">
  <ele>343.08</ele>
  <time>2026-09-01T19:58:52Z</time>
  <course>104.3</course>
  <speed>0.0</speed>
  <fix>3d</fix>
</trkpt>
<trkpt lat="-27.273771" lon="151.2899055">
  <ele>343.06</ele>
  <time>2026-09-01T19:58:52Z</time>
  <course>107.26</course>
  <speed>0.022360679774997897</speed>
  <fix>3d</fix>
</trkpt>
<trkpt lat="-27.2737709" lon="151.2899057">
  <ele>343.08</ele>
  <time>2026-09-01T19:58:52Z</time>
  <course>104.3</course>
  <speed>0.0</speed>
  <fix>3d</fix>
</trkpt>
<trkpt lat="-27.273771" lon="151.2899055">
  <ele>343.06</ele>
  <time>2026-09-01T19:58:52Z</time>
  <course>107.26</course>
  <speed>0.022360679774997897</speed>
  <fix>3d</fix>
</trkpt>
<trkpt lat="-27.2737709" lon="151.2899057">
  <ele>343.08</ele>
  <time>2026-09-01T19:58:52Z</time>
  <course>104.3</course>
  <speed>0.0</speed>
  <fix>3d</fix>
</trkpt>
<trkpt lat="-27.273771" lon="151.2899055">
  <ele>343.06</ele>
  <time>2026-09-01T19:58:52Z</time>
  <course>107.26</course>
  <speed>0.022360679774997897</speed>
  <fix>3d</fix>
</trkpt>
<trkpt lat="-27.2737709" lon="151.2899057">
  <ele>343.08</ele>
  <time>2026-09-01T19:58:52Z</time>
  <course>104.3</course>
  <speed>0.0</speed>
  <fix>3d</fix>
</trkpt>
<trkpt lat="-27.273771" lon="151.2899055">
  <ele>343.06</ele>
  <time>2026-09-01T19:58:52Z</time>
  <course>107.27</course>
  <speed>0.022360679774997897</speed>
  <fix>3d</fix>
</trkpt>
<trkpt lat="-27.2737709" lon="151.2899057">
  <ele>343.08</ele>
  <time>2026-09-01T19:58:52Z</time>
  <course>104.3</course>
  <speed>0.0</speed>
  <fix>3d</fix>
</trkpt>
<trkpt lat="-27.273771" lon="151.2899055">
  <ele>343.06</ele>
  <time>2026-09-01T19:58:52Z</time>
  <course>107.27</course>
  <speed>0.022360679774997897</speed>
  <fix>3d</fix>
</trkpt>
<trkpt lat="-27.2737709" lon="151.2899057">
  <ele>343.08</ele>
  <time>2026-09-01T19:58:52Z</time>
  <course>104.3</course>
  <speed>0.0</speed>
  <fix>3d</fix>
</trkpt>
<trkpt lat="-27.273771" lon="151.2899055">
  <ele>343.06</ele>
  <time>2026-09-01T19:58:52Z</time>
  <course>107.27</course>
  <speed>0.022360679774997897</speed>
  <fix>3d</fix>
</trkpt>
<trkpt lat="-27.2737709" lon="151.2899057">
  <ele>343.08</ele>
  <time>2026-09-01T19:58:52Z</time>
  <course>104.3</course>
  <speed>0.0</speed>
  <fix>3d</fix>
</trkpt>
<trkpt lat="-27.273771" lon="151.2899055">
  <ele>343.05</ele>
  <time>2026-09-01T19:58:52Z</time>
  <course>107.28</course>
  <speed>0.022360679774997897</speed>
  <fix>3d</fix>
</trkpt>
<trkpt lat="-27.2737709" lon="151.2899057">
  <ele>343.08</ele>
  <time>2026-09-01T19:58:52Z</time>
  <course>104.3</course>
  <speed>0.0</speed>
  <fix>3d</fix>
</trkpt>
<trkpt lat="-27.273771" lon="151.2899055">
  <ele>343.05</ele>
  <time>2026-09-01T19:58:52Z</time>
  <course>107.28</course>
  <speed>0.022360679774997897</speed>
  <fix>3d</fix>
</trkpt>
<trkpt lat="-27.2737709" lon="151.2899057">
  <ele>343.08</ele>
  <time>2026-09-01T19:58:52Z</time>
  <course>104.3</course>
  <speed>0.0</speed>
  <fix>3d</fix>
</trkpt>
<trkpt lat="-27.273771" lon="151.2899055">
  <ele>343.05</ele>
  <time>2026-09-01T19:58:52Z</time>
  <course>107.29</course>
  <speed>0.022360679774997897</speed>
  <fix>3d</fix>
</trkpt>
<trkpt lat="-27.2737709" lon="151.2899057">
  <ele>343.08</ele>
  <time>2026-09-01T19:58:52Z</time>
  <course>104.3</course>
  <speed>0.0</speed>
  <fix>3d</fix>
</trkpt>
<trkpt lat="-27.273771" lon="151.2899055">
  <ele>343.05</ele>
  <time>2026-09-01T19:58:52Z</time>
  <course>107.29</course>
  <speed>0.022360679774997897</speed>
  <fix>3d</fix>
</trkpt>
<trkpt lat="-27.2737709" lon="151.2899057">
  <ele>343.08</ele>
  <time>2026-09-01T19:58:52Z</time>
  <course>104.3</course>
  <speed>0.0</speed>
  <fix>3d</fix>
</trkpt>
<trkpt lat="-27.273771" lon="151.2899055">
  <ele>343.05</ele>
  <time>2026-09-01T19:58:52Z</time>
  <course>107.29</course>
  <speed>0.022360679774997897</speed>
  <fix>3d</fix>
</trkpt>
<trkpt lat="-27.2737709" lon="151.2899057">
  <ele>343.08</ele>
  <time>2026-09-01T19:58:52Z</time>
  <course>104.3</course>
  <speed>0.0</speed>
  <fix>3d</fix>
</trkpt>
<trkpt lat="-26.9720619" lon="149.6127921">
  <ele>339.29</ele>
  <time>2026-09-01T19:58:53Z</time>
  <course>310.27</course>
  <speed>0.0</speed>
  <fix>3d</fix>
</trkpt>
<trkpt lat="-26.9720619" lon="149.6127921">
  <ele>339.29</ele>
  <time>2026-09-01T19:58:53Z</time>
  <course>310.27</course>
  <speed>0.0</speed>
  <fix>3d</fix>
</trkpt>
<trkpt lat="-27.274439" lon="151.290064">
  <ele>-0.01</ele>
  <time>2026-09-01T19:58:53Z</time>
  <course>0.22</course>
  <speed>0.0</speed>
  <fix>3d</fix>
</trkpt>
<trkpt lat="-27.274439" lon="151.290064">
  <ele>343.1</ele>
  <time>2026-09-01T19:58:53Z</time>
  <course>294.58</course>
  <speed>0.0</speed>
  <fix>3d</fix>
</trkpt>
<trkpt lat="-27.274439" lon="151.290064">
  <ele>0.02</ele>
  <time>2026-09-01T19:58:53Z</time>
  <course>1.2</course>
  <speed>0.0</speed>
  <fix>3d</fix>
</trkpt>
<trkpt lat="-27.274439" lon="151.290064">
  <ele>343.1</ele>
  <time>2026-09-01T19:58:53Z</time>
  <course>294.58</course>
  <speed>0.0</speed>
  <fix>3d</fix>
</trkpt>
<trkpt lat="-27.274439" lon="151.290064">
  <ele>-0.08</ele>
  <time>2026-09-01T19:58:53Z</time>
  <course>2.1</course>
  <speed>0.0</speed>
  <fix>3d</fix>
</trkpt>
<trkpt lat="-27.274439" lon="151.290064">
  <ele>343.1</ele>
  <time>2026-09-01T19:58:53Z</time>
  <course>273.33</course>
  <speed>0.0</speed>
  <fix>3d</fix>
</trkpt>
<trkpt lat="-27.274439" lon="151.290064">
  <ele>0.22</ele>
  <time>2026-09-01T19:58:53Z</time>
  <course>2.92</course>
  <speed>0.0</speed>
  <fix>3d</fix>
</trkpt>
<trkpt lat="-27.274439" lon="151.290064">
  <ele>343.1</ele>
  <time>2026-09-01T19:58:53Z</time>
  <course>273.33</course>
  <speed>0.0</speed>
  <fix>3d</fix>
</trkpt>
<trkpt lat="-27.274439" lon="151.290064">
  <ele>0.09</ele>
  <time>2026-09-01T19:58:53Z</time>
  <course>3.66</course>
  <speed>0.0</speed>
  <fix>3d</fix>
</trkpt>
<trkpt lat="-27.274439" lon="151.290064">
  <ele>343.1</ele>
  <time>2026-09-01T19:58:53Z</time>
  <course>270.44</course>
  <speed>0.0</speed>
  <fix>3d</fix>
</trkpt>
<trkpt lat="-27.274439" lon="151.290064">
  <ele>0.08</ele>
  <time>2026-09-01T19:58:53Z</time>
  <course>4.34</course>
  <speed>0.0</speed>
  <fix>3d</fix>
</trkpt>
<trkpt lat="-27.274439" lon="151.290064">
  <ele>343.1</ele>
  <time>2026-09-01T19:58:53Z</time>
  <course>270.44</course>
  <speed>0.0</speed>
  <fix>3d</fix>
</trkpt>
<trkpt lat="-27.274439" lon="151.290064">
  <ele>0.09</ele>
  <time>2026-09-01T19:58:53Z</time>
  <course>4.95</course>
  <speed>0.0</speed>
  <fix>3d</fix>
</trkpt>
<trkpt lat="-27.274439" lon="151.290064">
  <ele>343.1</ele>
  <time>2026-09-01T19:58:53Z</time>
  <course>270.05</course>
  <speed>0.0</speed>
  <fix>3d</fix>
</trkpt>
<trkpt lat="-27.274439" lon="151.290064">
  <ele>-0.05</ele>
  <time>2026-09-01T19:58:53Z</time>
  <course>5.5</course>
  <speed>0.0</speed>
  <fix>3d</fix>
</trkpt>
<trkpt lat="-27.274439" lon="151.290064">
  <ele>343.1</ele>
  <time>2026-09-01T19:58:53Z</time>
  <course>270.05</course>
  <speed>0.0</speed>
  <fix>3d</fix>
</trkpt>
<trkpt lat="-27.274439" lon="151.290064">
  <ele>343.06</ele>
  <time>2026-09-01T19:58:53Z</time>
  <course>5.98</course>
  <speed>0.0</speed>
  <fix>3d</fix>
</trkpt>
<trkpt lat="-27.274439" lon="151.290064">
  <ele>343.1</ele>
  <time>2026-09-01T19:58:53Z</time>
  <course>270.0</course>
  <speed>0.0</speed>
  <fix>3d</fix>
</trkpt>
<trkpt lat="-27.274439" lon="151.290064">
  <ele>343.18</ele>
  <time>2026-09-01T19:58:53Z</time>
  <course>6.44</course>
  <speed>0.0</speed>
  <fix>3d</fix>
</trkpt>
<trkpt lat="-27.274439" lon="151.290064">
  <ele>343.1</ele>
  <time>2026-09-01T19:58:53Z</time>
  <course>270.0</course>
  <speed>0.0</speed>
  <fix>3d</fix>
</trkpt>
<trkpt lat="-27.274439" lon="151.290064">
  <ele>342.91</ele>
  <time>2026-09-01T19:58:53Z</time>
  <course>6.85</course>
  <speed>0.0</speed>
  <fix>3d</fix>
</trkpt>
<trkpt lat="-27.274439" lon="151.290064">
  <ele>343.1</ele>
  <time>2026-09-01T19:58:53Z</time>
  <course>270.0</course>
  <speed>0.0</speed>
  <fix>3d</fix>
</trkpt>
<trkpt lat="-27.274439" lon="151.290064">
  <ele>343.06</ele>
  <time>2026-09-01T19:58:53Z</time>
  <course>7.22</course>
  <speed>0.0</speed>
  <fix>3d</fix>
</trkpt>
<trkpt lat="-27.274439" lon="151.290064">
  <ele>343.1</ele>
  <time>2026-09-01T19:58:53Z</time>
  <course>270.0</course>
  <speed>0.0</speed>
  <fix>3d</fix>
</trkpt>
<trkpt lat="-27.274439" lon="151.290064">
  <ele>343.13</ele>
  <time>2026-09-01T19:58:53Z</time>
  <course>7.56</course>
  <speed>0.0</speed>
  <fix>3d</fix>
</trkpt>
<trkpt lat="-27.274439" lon="151.290064">
  <ele>343.1</ele>
  <time>2026-09-01T19:58:53Z</time>
  <course>270.0</course>
  <speed>0.0</speed>
  <fix>3d</fix>
</trkpt>
<trkpt lat="-27.274439" lon="151.290064">
  <ele>343.04</ele>
  <time>2026-09-01T19:58:53Z</time>
  <course>7.87</course>
  <speed>0.0</speed>
  <fix>3d</fix>
</trkpt>
<trkpt lat="-27.274439" lon="151.290064">
  <ele>343.1</ele>
  <time>2026-09-01T19:58:53Z</time>
  <course>270.0</course>
  <speed>0.0</speed>
  <fix>3d</fix>
</trkpt>
<trkpt lat="-27.274439" lon="151.290064">
  <ele>342.88</ele>
  <time>2026-09-01T19:58:53Z</time>
  <course>8.14</course>
  <speed>0.0</speed>
  <fix>3d</fix>
</trkpt>
<trkpt lat="-27.274439" lon="151.290064">
  <ele>343.1</ele>
  <time>2026-09-01T19:58:53Z</time>
  <course>270.0</course>
  <speed>0.0</speed>
  <fix>3d</fix>
</trkpt>
<trkpt lat="-27.274439" lon="151.290064">
  <ele>343.02</ele>
  <time>2026-09-01T19:58:53Z</time>
  <course>8.39</course>
  <speed>0.0</speed>
  <fix>3d</fix>
</trkpt>
<trkpt lat="-27.274439" lon="151.290064">
  <ele>343.1</ele>
  <time>2026-09-01T19:58:53Z</time>
  <course>270.0</course>
  <speed>0.0</speed>
  <fix>3d</fix>
</trkpt>
<trkpt lat="-27.274439" lon="151.290064">
  <ele>343.23</ele>
  <time>2026-09-01T19:58:53Z</time>
  <course>8.63</course>
  <speed>0.0</speed>
  <fix>3d</fix>
</trkpt>
<trkpt lat="-27.274439" lon="151.290064">
  <ele>343.1</ele>
  <time>2026-09-01T19:58:53Z</time>
  <course>270.0</course>
  <speed>0.0</speed>
  <fix>3d</fix>
</trkpt>
<trkpt lat="-27.274439" lon="151.290064">
  <ele>343.17</ele>
  <time>2026-09-01T19:58:53Z</time>
  <course>8.83</course>
  <speed>0.0</speed>
  <fix>3d</fix>
</trkpt>
<trkpt lat="-27.274439" lon="151.290064">
  <ele>343.1</ele>
  <time>2026-09-01T19:58:53Z</time>
  <course>270.0</course>
  <speed>0.0</speed>
  <fix>3d</fix>
</trkpt>
<trkpt lat="-27.274439" lon="151.290064">
  <ele>343.04</ele>
  <time>2026-09-01T19:58:53Z</time>
  <course>9.01</course>
  <speed>0.0</speed>
  <fix>3d</fix>
</trkpt>
<trkpt lat="-27.274439" lon="151.290064">
  <ele>343.1</ele>
  <time>2026-09-01T19:58:53Z</time>
  <course>270.0</course>
  <speed>0.0</speed>
  <fix>3d</fix>
</trkpt>
<trkpt lat="-27.274439" lon="151.290064">
  <ele>342.89</ele>
  <time>2026-09-01T19:58:53Z</time>
  <course>9.18</course>
  <speed>0.0</speed>
  <fix>3d</fix>
</trkpt>
<trkpt lat="-27.274439" lon="151.290064">
  <ele>343.1</ele>
  <time>2026-09-01T19:58:53Z</time>
  <course>270.0</course>
  <speed>0.0</speed>
  <fix>3d</fix>
</trkpt>
<trkpt lat="-27.274439" lon="151.290064">
  <ele>343.08</ele>
  <time>2026-09-01T19:58:53Z</time>
  <course>9.33</course>
  <speed>0.0</speed>
  <fix>3d</fix>
</trkpt>
<trkpt lat="-27.274439" lon="151.290064">
  <ele>343.1</ele>
  <time>2026-09-01T19:58:53Z</time>
  <course>270.0</course>
  <speed>0.0</speed>
  <fix>3d</fix>
</trkpt>
<trkpt lat="-27.274439" lon="151.290064">
  <ele>343.19</ele>
  <time>2026-09-01T19:58:53Z</time>
  <course>9.47</course>
  <speed>0.0</speed>
  <fix>3d</fix>
</trkpt>
<trkpt lat="-27.274439" lon="151.290064">
  <ele>343.1</ele>
  <time>2026-09-01T19:58:53Z</time>
  <course>270.0</course>
  <speed>0.0</speed>
  <fix>3d</fix>
</trkpt>
<trkpt lat="-27.274439" lon="151.290064">
  <ele>342.88</ele>
  <time>2026-09-01T19:58:53Z</time>
  <course>9.59</course>
  <speed>0.0</speed>
  <fix>3d</fix>
</trkpt>
<trkpt lat="-27.274439" lon="151.290064">
  <ele>343.1</ele>
  <time>2026-09-01T19:58:53Z</time>
  <course>270.0</course>
  <speed>0.0</speed>
  <fix>3d</fix>
</trkpt>
<trkpt lat="-27.274439" lon="151.290064">
  <ele>343.17</ele>
  <time>2026-09-01T19:58:53Z</time>
  <course>9.7</course>
  <speed>0.0</speed>
  <fix>3d</fix>
</trkpt>
<trkpt lat="-27.274439" lon="151.290064">
  <ele>343.1</ele>
  <time>2026-09-01T19:58:53Z</time>
  <course>270.0</course>
  <speed>0.0</speed>
  <fix>3d</fix>
</trkpt>
<trkpt lat="-27.274439" lon="151.290064">
  <ele>342.89</ele>
  <time>2026-09-01T19:58:53Z</time>
  <course>9.8</course>
  <speed>0.0</speed>
  <fix>3d</fix>
</trkpt>
<trkpt lat="-27.274439" lon="151.290064">
  <ele>343.1</ele>
  <time>2026-09-01T19:58:53Z</time>
  <course>270.0</course>
  <speed>0.0</speed>
  <fix>3d</fix>
</trkpt>
<trkpt lat="-27.274439" lon="151.290064">
  <ele>342.99</ele>
  <time>2026-09-01T19:58:53Z</time>
  <course>9.9</course>
  <speed>0.0</speed>
  <fix>3d</fix>
</trkpt>
<trkpt lat="-27.274439" lon="151.290064">
  <ele>343.1</ele>
  <time>2026-09-01T19:58:53Z</time>
  <course>270.0</course>
  <speed>0.0</speed>
  <fix>3d</fix>
</trkpt>
<trkpt lat="-27.274439" lon="151.290064">
  <ele>342.87</ele>
  <time>2026-09-01T19:58:53Z</time>
  <course>9.98</course>
  <speed>0.0</speed>
  <fix>3d</fix>
</trkpt>
<trkpt lat="-27.274439" lon="151.290064">
  <ele>343.1</ele>
  <time>2026-09-01T19:58:53Z</time>
  <course>270.0</course>
  <speed>0.0</speed>
  <fix>3d</fix>
</trkpt>
<trkpt lat="-27.274439" lon="151.290064">
  <ele>343.09</ele>
  <time>2026-09-01T19:58:53Z</time>
  <course>10.06</course>
  <speed>0.0</speed>
  <fix>3d</fix>
</trkpt>
<trkpt lat="-27.274439" lon="151.290064">
  <ele>343.1</ele>
  <time>2026-09-01T19:58:53Z</time>
  <course>270.0</course>
  <speed>0.0</speed>
  <fix>3d</fix>
</trkpt>
<trkpt lat="-27.274439" lon="151.290064">
  <ele>343.18</ele>
  <time>2026-09-01T19:58:53Z</time>
  <course>10.13</course>
  <speed>0.0</speed>
  <fix>3d</fix>
</trkpt>
<trkpt lat="-27.274439" lon="151.290064">
  <ele>343.1</ele>
  <time>2026-09-01T19:58:53Z</time>
  <course>270.0</course>
  <speed>0.0</speed>
  <fix>3d</fix>
</trkpt>
<trkpt lat="-27.274439" lon="151.290064">
  <ele>343.05</ele>
  <time>2026-09-01T19:58:53Z</time>
  <course>10.2</course>
  <speed>0.0</speed>
  <fix>3d</fix>
</trkpt>
<trkpt lat="-27.274439" lon="151.290064">
  <ele>343.1</ele>
  <time>2026-09-01T19:58:53Z</time>
  <course>270.0</course>
  <speed>0.0</speed>
  <fix>3d</fix>
</trkpt>
<trkpt lat="-27.274439" lon="151.290064">
  <ele>342.96</ele>
  <time>2026-09-01T19:58:53Z</time>
  <course>10.25</course>
  <speed>0.0</speed>
  <fix>3d</fix>
</trkpt>
<trkpt lat="-27.274439" lon="151.290064">
  <ele>343.1</ele>
  <time>2026-09-01T19:58:53Z</time>
  <course>270.0</course>
  <speed>0.0</speed>
  <fix>3d</fix>
</trkpt>
<trkpt lat="-27.274439" lon="151.290064">
  <ele>343.1</ele>
  <time>2026-09-01T19:58:53Z</time>
  <course>10.31</course>
  <speed>0.0</speed>
  <fix>3d</fix>
</trkpt>
<trkpt lat="-27.274439" lon="151.290064">
  <ele>343.1</ele>
  <time>2026-09-01T19:58:53Z</time>
  <course>270.0</course>
  <speed>0.0</speed>
  <fix>3d</fix>
</trkpt>
<trkpt lat="-27.274439" lon="151.290064">
  <ele>343.22</ele>
  <time>2026-09-01T19:58:53Z</time>
  <course>10.35</course>
  <speed>0.0</speed>
  <fix>3d</fix>
</trkpt>
<trkpt lat="-27.274439" lon="151.290064">
  <ele>343.1</ele>
  <time>2026-09-01T19:58:53Z</time>
  <course>270.0</course>
  <speed>0.0</speed>
  <fix>3d</fix>
</trkpt>
<trkpt lat="-27.274439" lon="151.290064">
  <ele>343.17</ele>
  <time>2026-09-01T19:58:53Z</time>
  <course>10.4</course>
  <speed>0.0</speed>
  <fix>3d</fix>
</trkpt>
<trkpt lat="-27.274439" lon="151.290064">
  <ele>343.1</ele>
  <time>2026-09-01T19:58:53Z</time>
  <course>270.0</course>
  <speed>0.0</speed>
  <fix>3d</fix>
</trkpt>
<trkpt lat="-27.274439" lon="151.290064">
  <ele>343.08</ele>
  <time>2026-09-01T19:58:53Z</time>
  <course>10.44</course>
  <speed>0.0</speed>
  <fix>3d</fix>
</trkpt>
<trkpt lat="-27.274439" lon="151.290064">
  <ele>343.1</ele>
  <time>2026-09-01T19:58:53Z</time>
  <course>270.0</course>
  <speed>0.0</speed>
  <fix>3d</fix>
</trkpt>
<trkpt lat="-27.274439" lon="151.290064">
  <ele>343.04</ele>
  <time>2026-09-01T19:58:53Z</time>
  <course>10.47</course>
  <speed>0.0</speed>
  <fix>3d</fix>
</trkpt>
<trkpt lat="-27.274439" lon="151.290064">
  <ele>343.1</ele>
  <time>2026-09-01T19:58:53Z</time>
  <course>270.0</course>
  <speed>0.0</speed>
  <fix>3d</fix>
</trkpt>
<trkpt lat="-27.274439" lon="151.290064">
  <ele>343.18</ele>
  <time>2026-09-01T19:58:53Z</time>
  <course>10.5</course>
  <speed>0.0</speed>
  <fix>3d</fix>
</trkpt>
<trkpt lat="-27.274439" lon="151.290064">
  <ele>343.1</ele>
  <time>2026-09-01T19:58:53Z</time>
  <course>270.0</course>
  <speed>0.0</speed>
  <fix>3d</fix>
</trkpt>
<trkpt lat="-27.274439" lon="151.290064">
  <ele>343.12</ele>
  <time>2026-09-01T19:58:53Z</time>
  <course>10.53</course>
  <speed>0.0</speed>
  <fix>3d</fix>
</trkpt>
<trkpt lat="-27.274439" lon="151.290064">
  <ele>343.1</ele>
  <time>2026-09-01T19:58:53Z</time>
  <course>270.0</course>
  <speed>0.0</speed>
  <fix>3d</fix>
</trkpt>
<trkpt lat="-27.274439" lon="151.290064">
  <ele>343.04</ele>
  <time>2026-09-01T19:58:53Z</time>
  <course>10.56</course>
  <speed>0.0</speed>
  <fix>3d</fix>
</trkpt>
<trkpt lat="-27.274439" lon="151.290064">
  <ele>343.1</ele>
  <time>2026-09-01T19:58:53Z</time>
  <course>270.0</course>
  <speed>0.0</speed>
  <fix>3d</fix>
</trkpt>
<trkpt lat="-27.274439" lon="151.290064">
  <ele>343.07</ele>
  <time>2026-09-01T19:58:53Z</time>
  <course>10.58</course>
  <speed>0.0</speed>
  <fix>3d</fix>
</trkpt>
<trkpt lat="-27.274439" lon="151.290064">
  <ele>343.1</ele>
  <time>2026-09-01T19:58:53Z</time>
  <course>270.0</course>
  <speed>0.0</speed>
  <fix>3d</fix>
</trkpt>
<trkpt lat="-27.274439" lon="151.290064">
  <ele>343.04</ele>
  <time>2026-09-01T19:58:53Z</time>
  <course>10.6</course>
  <speed>0.0</speed>
  <fix>3d</fix>
</trkpt>
<trkpt lat="-27.274439" lon="151.290064">
  <ele>343.1</ele>
  <time>2026-09-01T19:58:53Z</time>
  <course>270.0</course>
  <speed>0.0</speed>
  <fix>3d</fix>
</trkpt>
<trkpt lat="-27.274439" lon="151.290064">
  <ele>343.01</ele>
  <time>2026-09-01T19:58:53Z</time>
  <course>10.62</course>
  <speed>0.0</speed>
  <fix>3d</fix>
</trkpt>
<trkpt lat="-27.274439" lon="151.290064">
  <ele>343.1</ele>
  <time>2026-09-01T19:58:53Z</time>
  <course>270.0</course>
  <speed>0.0</speed>
  <fix>3d</fix>
</trkpt>
<trkpt lat="-27.274439" lon="151.290064">
  <ele>343.2</ele>
  <time>2026-09-01T19:58:53Z</time>
  <course>10.64</course>
  <speed>0.0</speed>
  <fix>3d</fix>
</trkpt>
<trkpt lat="-27.274439" lon="151.290064">
  <ele>343.1</ele>
  <time>2026-09-01T19:58:53Z</time>
  <course>270.0</course>
  <speed>0.0</speed>
  <fix>3d</fix>
</trkpt>
<trkpt lat="-27.274439" lon="151.290064">
  <ele>343.24</ele>
  <time>2026-09-01T19:58:53Z</time>
  <course>10.65</course>
  <speed>0.0</speed>
  <fix>3d</fix>
</trkpt>
<trkpt lat="-27.274439" lon="151.290064">
  <ele>343.1</ele>
  <time>2026-09-01T19:58:53Z</time>
  <course>270.0</course>
  <speed>0.0</speed>
  <fix>3d</fix>
</trkpt>
<trkpt lat="-27.274439" lon="151.290064">
  <ele>342.88</ele>
  <time>2026-09-01T19:58:53Z</time>
  <course>10.67</course>
  <speed>0.0</speed>
  <fix>3d</fix>
</trkpt>
<trkpt lat="-27.274439" lon="151.290064">
  <ele>343.1</ele>
  <time>2026-09-01T19:58:53Z</time>
  <course>270.0</course>
  <speed>0.0</speed>
  <fix>3d</fix>
</trkpt>
<trkpt lat="-27.274439" lon="151.290064">
  <ele>343.21</ele>
  <time>2026-09-01T19:58:53Z</time>
  <course>10.68</course>
  <speed>0.0</speed>
  <fix>3d</fix>
</trkpt>
<trkpt lat="-27.274439" lon="151.290064">
  <ele>343.1</ele>
  <time>2026-09-01T19:58:53Z</time>
  <course>270.0</course>
  <speed>0.0</speed>
  <fix>3d</fix>
</trkpt>
<trkpt lat="-27.274439" lon="151.290064">
  <ele>343.02</ele>
  <time>2026-09-01T19:58:53Z</time>
  <course>10.69</course>
  <speed>0.0</speed>
  <fix>3d</fix>
</trkpt>
<trkpt lat="-27.274439" lon="151.290064">
  <ele>343.1</ele>
  <time>2026-09-01T19:58:53Z</time>
  <course>270.0</course>
  <speed>0.0</speed>
  <fix>3d</fix>
</trkpt>
<trkpt lat="-27.274439" lon="151.290064">
  <ele>342.93</ele>
  <time>2026-09-01T19:58:53Z</time>
  <course>10.7</course>
  <speed>0.0</speed>
  <fix>3d</fix>
</trkpt>
<trkpt lat="-27.274439" lon="151.290064">
  <ele>343.1</ele>
  <time>2026-09-01T19:58:53Z</time>
  <course>270.0</course>
  <speed>0.0</speed>
  <fix>3d</fix>
</trkpt>
<trkpt lat="-27.274439" lon="151.290064">
  <ele>343.07</ele>
  <time>2026-09-01T19:58:53Z</time>
  <course>10.71</course>
  <speed>0.0</speed>
  <fix>3d</fix>
</trkpt>
<trkpt lat="-27.274439" lon="151.290064">
  <ele>343.1</ele>
  <time>2026-09-01T19:58:53Z</time>
  <course>270.0</course>
  <speed>0.0</speed>
  <fix>3d</fix>
</trkpt>
<trkpt lat="-27.274439" lon="151.290064">
  <ele>342.94</ele>
  <time>2026-09-01T19:58:53Z</time>
  <course>10.72</course>
  <speed>0.0</speed>
  <fix>3d</fix>
</trkpt>
<trkpt lat="-27.274439" lon="151.290064">
  <ele>343.1</ele>
  <time>2026-09-01T19:58:53Z</time>
  <course>270.0</course>
  <speed>0.0</speed>
  <fix>3d</fix>
</trkpt>
<trkpt lat="-27.274439" lon="151.290064">
  <ele>343.11</ele>
  <time>2026-09-01T19:58:53Z</time>
  <course>10.73</course>
  <speed>0.0</speed>
  <fix>3d</fix>
</trkpt>
<trkpt lat="-27.274439" lon="151.290064">
  <ele>343.1</ele>
  <time>2026-09-01T19:58:53Z</time>
  <course>270.0</course>
  <speed>0.0</speed>
  <fix>3d</fix>
</trkpt>
<trkpt lat="-27.274439" lon="151.290064">
  <ele>343.24</ele>
  <time>2026-09-01T19:58:53Z</time>
  <course>10.73</course>
  <speed>0.0</speed>
  <fix>3d</fix>
</trkpt>
<trkpt lat="-27.274439" lon="151.290064">
  <ele>343.1</ele>
  <time>2026-09-01T19:58:53Z</time>
  <course>270.0</course>
  <speed>0.0</speed>
  <fix>3d</fix>
</trkpt>
<trkpt lat="-27.274439" lon="151.290064">
  <ele>343.18</ele>
  <time>2026-09-01T19:58:53Z</time>
  <course>10.74</course>
  <speed>0.0</speed>
  <fix>3d</fix>
</trkpt>
<trkpt lat="-27.274439" lon="151.290064">
  <ele>343.1</ele>
  <time>2026-09-01T19:58:53Z</time>
  <course>270.0</course>
  <speed>0.0</speed>
  <fix>3d</fix>
</trkpt>
<trkpt lat="-27.274439" lon="151.290064">
  <ele>342.89</ele>
  <time>2026-09-01T19:58:53Z</time>
  <course>10.75</course>
  <speed>0.0</speed>
  <fix>3d</fix>
</trkpt>
<trkpt lat="-27.274439" lon="151.290064">
  <ele>343.1</ele>
  <time>2026-09-01T19:58:53Z</time>
  <course>270.0</course>
  <speed>0.0</speed>
  <fix>3d</fix>
</trkpt>
<trkpt lat="-27.274439" lon="151.290064">
  <ele>343.23</ele>
  <time>2026-09-01T19:58:53Z</time>
  <course>10.75</course>
  <speed>0.0</speed>
  <fix>3d</fix>
</trkpt>
<trkpt lat="-27.274439" lon="151.290064">
  <ele>343.1</ele>
  <time>2026-09-01T19:58:53Z</time>
  <course>270.0</course>
  <speed>0.0</speed>
  <fix>3d</fix>
</trkpt>
<trkpt lat="-27.274439" lon="151.290064">
  <ele>343.23</ele>
  <time>2026-09-01T19:58:53Z</time>
  <course>10.76</course>
  <speed>0.0</speed>
  <fix>3d</fix>
</trkpt>
<trkpt lat="-27.274439" lon="151.290064">
  <ele>343.1</ele>
  <time>2026-09-01T19:58:53Z</time>
  <course>270.0</course>
  <speed>0.0</speed>
  <fix>3d</fix>
</trkpt>
<trkpt lat="-27.274439" lon="151.290064">
  <ele>342.99</ele>
  <time>2026-09-01T19:58:53Z</time>
  <course>10.76</course>
  <speed>0.0</speed>
  <fix>3d</fix>
</trkpt>
<trkpt lat="-27.274439" lon="151.290064">
  <ele>343.1</ele>
  <time>2026-09-01T19:58:53Z</time>
  <course>270.0</course>
  <speed>0.0</speed>
  <fix>3d</fix>
</trkpt>
<trkpt lat="-27.274439" lon="151.290064">
  <ele>343.13</ele>
  <time>2026-09-01T19:58:53Z</time>
  <course>10.76</course>
  <speed>0.0</speed>
  <fix>3d</fix>
</trkpt>
<trkpt lat="-27.274439" lon="151.290064">
  <ele>343.1</ele>
  <time>2026-09-01T19:58:53Z</time>
  <course>270.0</course>
  <speed>0.0</speed>
  <fix>3d</fix>
</trkpt>
<trkpt lat="-27.274439" lon="151.290064">
  <ele>343.07</ele>
  <time>2026-09-01T19:58:53Z</time>
  <course>10.77</course>
  <speed>0.0</speed>
  <fix>3d</fix>
</trkpt>
<trkpt lat="-27.274439" lon="151.290064">
  <ele>343.1</ele>
  <time>2026-09-01T19:58:53Z</time>
  <course>270.0</course>
  <speed>0.0</speed>
  <fix>3d</fix>
</trkpt>
<trkpt lat="-27.274439" lon="151.290064">
  <ele>343.19</ele>
  <time>2026-09-01T19:58:53Z</time>
  <course>10.77</course>
  <speed>0.0</speed>
  <fix>3d</fix>
</trkpt>
<trkpt lat="-27.274439" lon="151.290064">
  <ele>343.1</ele>
  <time>2026-09-01T19:58:53Z</time>
  <course>270.0</course>
  <speed>0.0</speed>
  <fix>3d</fix>
</trkpt>
<trkpt lat="-27.274439" lon="151.290064">
  <ele>342.93</ele>
  <time>2026-09-01T19:58:53Z</time>
  <course>10.77</course>
  <speed>0.0</speed>
  <fix>3d</fix>
</trkpt>
<trkpt lat="-27.274439" lon="151.290064">
  <ele>343.1</ele>
  <time>2026-09-01T19:58:53Z</time>
  <course>270.0</course>
  <speed>0.0</speed>
  <fix>3d</fix>
</trkpt>
<trkpt lat="-27.274439" lon="151.290064">
  <ele>343.19</ele>
  <time>2026-09-01T19:58:53Z</time>
  <course>10.78</course>
  <speed>0.0</speed>
  <fix>3d</fix>
</trkpt>
<trkpt lat="-27.274439" lon="151.290064">
  <ele>343.1</ele>
  <time>2026-09-01T19:58:53Z</time>
  <course>270.0</course>
  <speed>0.0</speed>
  <fix>3d</fix>
</trkpt>
<trkpt lat="-27.274439" lon="151.290064">
  <ele>343.1</ele>
  <time>2026-09-01T19:58:53Z</time>
  <course>10.78</course>
  <speed>0.0</speed>
  <fix>3d</fix>
</trkpt>
<trkpt lat="-27.274439" lon="151.290064">
  <ele>343.1</ele>
  <time>2026-09-01T19:58:53Z</time>
  <course>270.0</course>
  <speed>0.0</speed>
  <fix>3d</fix>
</trkpt>
<trkpt lat="-27.274439" lon="151.290064">
  <ele>343.01</ele>
  <time>2026-09-01T19:58:53Z</time>
  <course>10.78</course>
  <speed>0.0</speed>
  <fix>3d</fix>
</trkpt>
<trkpt lat="-27.274439" lon="151.290064">
  <ele>343.1</ele>
  <time>2026-09-01T19:58:53Z</time>
  <course>270.0</course>
  <speed>0.0</speed>
  <fix>3d</fix>
</trkpt>
<trkpt lat="-27.274439" lon="151.290064">
  <ele>343.11</ele>
  <time>2026-09-01T19:58:53Z</time>
  <course>10.78</course>
  <speed>0.0</speed>
  <fix>3d</fix>
</trkpt>
<trkpt lat="-27.274439" lon="151.290064">
  <ele>343.1</ele>
  <time>2026-09-01T19:58:53Z</time>
  <course>270.0</course>
  <speed>0.0</speed>
  <fix>3d</fix>
</trkpt>
<trkpt lat="-27.274439" lon="151.290064">
  <ele>342.96</ele>
  <time>2026-09-01T19:58:53Z</time>
  <course>10.78</course>
  <speed>0.0</speed>
  <fix>3d</fix>
</trkpt>
<trkpt lat="-27.274439" lon="151.290064">
  <ele>343.1</ele>
  <time>2026-09-01T19:58:53Z</time>
  <course>270.0</course>
  <speed>0.0</speed>
  <fix>3d</fix>
</trkpt>
<trkpt lat="-27.274439" lon="151.290064">
  <ele>343.19</ele>
  <time>2026-09-01T19:58:53Z</time>
  <course>10.79</course>
  <speed>0.0</speed>
  <fix>3d</fix>
</trkpt>
<trkpt lat="-27.274439" lon="151.290064">
  <ele>343.1</ele>
  <time>2026-09-01T19:58:53Z</time>
  <course>270.0</course>
  <speed>0.0</speed>
  <fix>3d</fix>
</trkpt>
<trkpt lat="-27.274439" lon="151.290064">
  <ele>343.0</ele>
  <time>2026-09-01T19:58:53Z</time>
  <course>10.79</course>
  <speed>0.0</speed>
  <fix>3d</fix>
</trkpt>
<trkpt lat="-27.274439" lon="151.290064">
  <ele>343.1</ele>
  <time>2026-09-01T19:58:53Z</time>
  <course>270.0</course>
  <speed>0.0</speed>
  <fix>3d</fix>
</trkpt>
<trkpt lat="-27.274439" lon="151.290064">
  <ele>343.2</ele>
  <time>2026-09-01T19:58:53Z</time>
  <course>10.79</course>
  <speed>0.0</speed>
  <fix>3d</fix>
</trkpt>
<trkpt lat="-27.274439" lon="151.290064">
  <ele>343.1</ele>
  <time>2026-09-01T19:58:53Z</time>
  <course>270.0</course>
  <speed>0.0</speed>
  <fix>3d</fix>
</trkpt>
<trkpt lat="-27.274439" lon="151.290064">
  <ele>343.2</ele>
  <time>2026-09-01T19:58:53Z</time>
  <course>10.79</course>
  <speed>0.0</speed>
  <fix>3d</fix>
</trkpt>
<trkpt lat="-27.274439" lon="151.290064">
  <ele>343.1</ele>
  <time>2026-09-01T19:58:53Z</time>
  <course>270.0</course>
  <speed>0.0</speed>
  <fix>3d</fix>
</trkpt>
<trkpt lat="-27.274439" lon="151.290064">
  <ele>343.13</ele>
  <time>2026-09-01T19:58:53Z</time>
  <course>10.79</course>
  <speed>0.0</speed>
  <fix>3d</fix>
</trkpt>
<trkpt lat="-27.274439" lon="151.290064">
  <ele>343.1</ele>
  <time>2026-09-01T19:58:53Z</time>
  <course>270.0</course>
  <speed>0.0</speed>
  <fix>3d</fix>
</trkpt>
<trkpt lat="-27.274439" lon="151.290064">
  <ele>343.1</ele>
  <time>2026-09-01T19:58:53Z</time>
  <course>10.79</course>
  <speed>0.0</speed>
  <fix>3d</fix>
</trkpt>
<trkpt lat="-27.274439" lon="151.290064">
  <ele>343.1</ele>
  <time>2026-09-01T19:58:53Z</time>
  <course>270.0</course>
  <speed>0.0</speed>
  <fix>3d</fix>
</trkpt>
<trkpt lat="-27.274439" lon="151.290064">
  <ele>343.12</ele>
  <time>2026-09-01T19:58:53Z</time>
  <course>10.79</course>
  <speed>0.0</speed>
  <fix>3d</fix>
</trkpt>
<trkpt lat="-27.274439" lon="151.290064">
  <ele>343.1</ele>
  <time>2026-09-01T19:58:53Z</time>
  <course>270.0</course>
  <speed>0.0</speed>
  <fix>3d</fix>
</trkpt>
<trkpt lat="-27.274439" lon="151.290064">
  <ele>342.94</ele>
  <time>2026-09-01T19:58:53Z</time>
  <course>10.79</course>
  <speed>0.0</speed>
  <fix>3d</fix>
</trkpt>
<trkpt lat="-27.274439" lon="151.290064">
  <ele>343.1</ele>
  <time>2026-09-01T19:58:53Z</time>
  <course>270.0</course>
  <speed>0.0</speed>
  <fix>3d</fix>
</trkpt>
<trkpt lat="-27.274439" lon="151.290064">
  <ele>343.25</ele>
  <time>2026-09-01T19:58:53Z</time>
  <course>10.79</course>
  <speed>0.0</speed>
  <fix>3d</fix>
</trkpt>
<trkpt lat="-27.274439" lon="151.290064">
  <ele>343.1</ele>
  <time>2026-09-01T19:58:53Z</time>
  <course>270.0</course>
  <speed>0.0</speed>
  <fix>3d</fix>
</trkpt>
<trkpt lat="-27.274439" lon="151.290064">
  <ele>342.93</ele>
  <time>2026-09-01T19:58:53Z</time>
  <course>10.79</course>
  <speed>0.0</speed>
  <fix>3d</fix>
</trkpt>
<trkpt lat="-27.274439" lon="151.290064">
  <ele>343.1</ele>
  <time>2026-09-01T19:58:53Z</time>
  <course>270.0</course>
  <speed>0.0</speed>
  <fix>3d</fix>
</trkpt>
<trkpt lat="-27.274439" lon="151.290064">
  <ele>343.08</ele>
  <time>2026-09-01T19:58:53Z</time>
  <course>10.79</course>
  <speed>0.0</speed>
  <fix>3d</fix>
</trkpt>
<trkpt lat="-27.274439" lon="151.290064">
  <ele>343.1</ele>
  <time>2026-09-01T19:58:53Z</time>
  <course>270.0</course>
  <speed>0.0</speed>
  <fix>3d</fix>
</trkpt>
<trkpt lat="-27.274439" lon="151.290064">
  <ele>343.23</ele>
  <time>2026-09-01T19:58:53Z</time>
  <course>10.8</course>
  <speed>0.0</speed>
  <fix>3d</fix>
</trkpt>
<trkpt lat="-27.274439" lon="151.290064">
  <ele>343.1</ele>
  <time>2026-09-01T19:58:53Z</time>
  <course>270.0</course>
  <speed>0.0</speed>
  <fix>3d</fix>
</trkpt>
<trkpt lat="-27.274439" lon="151.290064">
  <ele>343.01</ele>
  <time>2026-09-01T19:58:53Z</time>
  <course>10.8</course>
  <speed>0.0</speed>
  <fix>3d</fix>
</trkpt>
<trkpt lat="-27.274439" lon="151.290064">
  <ele>343.1</ele>
  <time>2026-09-01T19:58:53Z</time>
  <course>270.0</course>
  <speed>0.0</speed>
  <fix>3d</fix>
</trkpt>
<trkpt lat="-27.274439" lon="151.290064">
  <ele>343.1</ele>
  <time>2026-09-01T19:58:53Z</time>
  <course>10.8</course>
  <speed>0.0</speed>
  <fix>3d</fix>
</trkpt>
<trkpt lat="-27.274439" lon="151.290064">
  <ele>343.1</ele>
  <time>2026-09-01T19:58:53Z</time>
  <course>270.0</course>
  <speed>0.0</speed>
  <fix>3d</fix>
</trkpt>
<trkpt lat="-27.274439" lon="151.290064">
  <ele>342.99</ele>
  <time>2026-09-01T19:58:53Z</time>
  <course>10.8</course>
  <speed>0.0</speed>
  <fix>3d</fix>
</trkpt>
<trkpt lat="-27.274439" lon="151.290064">
  <ele>343.1</ele>
  <time>2026-09-01T19:58:53Z</time>
  <course>270.0</course>
  <speed>0.0</speed>
  <fix>3d</fix>
</trkpt>
<trkpt lat="-27.274439" lon="151.290064">
  <ele>342.87</ele>
  <time>2026-09-01T19:58:53Z</time>
  <course>10.8</course>
  <speed>0.0</speed>
  <fix>3d</fix>
</trkpt>
<trkpt lat="-27.274439" lon="151.290064">
  <ele>343.1</ele>
  <time>2026-09-01T19:58:53Z</time>
  <course>270.0</course>
  <speed>0.0</speed>
  <fix>3d</fix>
</trkpt>
<trkpt lat="-27.274439" lon="151.290064">
  <ele>343.1</ele>
  <time>2026-09-01T19:58:53Z</time>
  <course>10.8</course>
  <speed>0.0</speed>
  <fix>3d</fix>
</trkpt>
<trkpt lat="-27.274439" lon="151.290064">
  <ele>343.1</ele>
  <time>2026-09-01T19:58:53Z</time>
  <course>270.0</course>
  <speed>0.0</speed>
  <fix>3d</fix>
</trkpt>
<trkpt lat="-27.274439" lon="151.290064">
  <ele>342.99</ele>
  <time>2026-09-01T19:58:53Z</time>
  <course>10.8</course>
  <speed>0.0</speed>
  <fix>3d</fix>
</trkpt>
<trkpt lat="-27.274439" lon="151.290064">
  <ele>343.1</ele>
  <time>2026-09-01T19:58:53Z</time>
  <course>270.0</course>
  <speed>0.0</speed>
  <fix>3d</fix>
</trkpt>
<trkpt lat="-27.274439" lon="151.290064">
  <ele>342.91</ele>
  <time>2026-09-01T19:58:53Z</time>
  <course>10.8</course>
  <speed>0.0</speed>
  <fix>3d</fix>
</trkpt>
<trkpt lat="-27.274439" lon="151.290064">
  <ele>343.1</ele>
  <time>2026-09-01T19:58:53Z</time>
  <course>270.0</course>
  <speed>0.0</speed>
  <fix>3d</fix>
</trkpt>
<trkpt lat="-27.274439" lon="151.290064">
  <ele>342.9</ele>
  <time>2026-09-01T19:58:53Z</time>
  <course>10.8</course>
  <speed>0.0</speed>
  <fix>3d</fix>
</trkpt>
<trkpt lat="-27.274439" lon="151.290064">
  <ele>343.1</ele>
  <time>2026-09-01T19:58:53Z</time>
  <course>270.0</course>
  <speed>0.0</speed>
  <fix>3d</fix>
</trkpt>
<trkpt lat="-27.274439" lon="151.290064">
  <ele>342.87</ele>
  <time>2026-09-01T19:58:53Z</time>
  <course>10.8</course>
  <speed>0.0</speed>
  <fix>3d</fix>
</trkpt>
<trkpt lat="-27.274439" lon="151.290064">
  <ele>343.1</ele>
  <time>2026-09-01T19:58:53Z</time>
  <course>270.0</course>
  <speed>0.0</speed>
  <fix>3d</fix>
</trkpt>
<trkpt lat="-27.274439" lon="151.290064">
  <ele>343.12</ele>
  <time>2026-09-01T19:58:53Z</time>
  <course>10.8</course>
  <speed>0.0</speed>
  <fix>3d</fix>
</trkpt>
<trkpt lat="-27.274439" lon="151.290064">
  <ele>343.1</ele>
  <time>2026-09-01T19:58:53Z</time>
  <course>270.0</course>
  <speed>0.0</speed>
  <fix>3d</fix>
</trkpt>
<trkpt lat="-27.274439" lon="151.290064">
  <ele>342.99</ele>
  <time>2026-09-01T19:58:53Z</time>
  <course>10.8</course>
  <speed>0.0</speed>
  <fix>3d</fix>
</trkpt>
<trkpt lat="-27.274439" lon="151.290064">
  <ele>343.1</ele>
  <time>2026-09-01T19:58:53Z</time>
  <course>270.0</course>
  <speed>0.0</speed>
  <fix>3d</fix>
</trkpt>
<trkpt lat="-27.274439" lon="151.290064">
  <ele>343.13</ele>
  <time>2026-09-01T19:58:53Z</time>
  <course>10.8</course>
  <speed>0.0</speed>
  <fix>3d</fix>
</trkpt>
<trkpt lat="-27.274439" lon="151.290064">
  <ele>343.1</ele>
  <time>2026-09-01T19:58:53Z</time>
  <course>270.0</course>
  <speed>0.0</speed>
  <fix>3d</fix>
</trkpt>
<trkpt lat="-27.274439" lon="151.290064">
  <ele>343.0</ele>
  <time>2026-09-01T19:58:53Z</time>
  <course>10.8</course>
  <speed>0.0</speed>
  <fix>3d</fix>
</trkpt>
<trkpt lat="-27.274439" lon="151.290064">
  <ele>343.1</ele>
  <time>2026-09-01T19:58:53Z</time>
  <course>270.0</course>
  <speed>0.0</speed>
  <fix>3d</fix>
</trkpt>
<trkpt lat="-27.274439" lon="151.290064">
  <ele>343.17</ele>
  <time>2026-09-01T19:58:53Z</time>
  <course>10.8</course>
  <speed>0.0</speed>
  <fix>3d</fix>
</trkpt>
<trkpt lat="-27.274439" lon="151.290064">
  <ele>343.1</ele>
  <time>2026-09-01T19:58:53Z</time>
  <course>270.0</course>
  <speed>0.0</speed>
  <fix>3d</fix>
</trkpt>
<trkpt lat="-27.274439" lon="151.290064">
  <ele>343.0</ele>
  <time>2026-09-01T19:58:53Z</time>
  <course>10.8</course>
  <speed>0.0</speed>
  <fix>3d</fix>
</trkpt>
<trkpt lat="-27.274439" lon="151.290064">
  <ele>343.1</ele>
  <time>2026-09-01T19:58:53Z</time>
  <course>270.0</course>
  <speed>0.0</speed>
  <fix>3d</fix>
</trkpt>
<trkpt lat="-27.274439" lon="151.290064">
  <ele>342.99</ele>
  <time>2026-09-01T19:58:53Z</time>
  <course>10.8</course>
  <speed>0.0</speed>
  <fix>3d</fix>
</trkpt>
<trkpt lat="-27.274439" lon="151.290064">
  <ele>343.1</ele>
  <time>2026-09-01T19:58:53Z</time>
  <course>270.0</course>
  <speed>0.0</speed>
  <fix>3d</fix>
</trkpt>
<trkpt lat="-27.274439" lon="151.290064">
  <ele>343.17</ele>
  <time>2026-09-01T19:58:53Z</time>
  <course>10.8</course>
  <speed>0.0</speed>
  <fix>3d</fix>
</trkpt>
<trkpt lat="-27.274439" lon="151.290064">
  <ele>343.1</ele>
  <time>2026-09-01T19:58:53Z</time>
  <course>270.0</course>
  <speed>0.0</speed>
  <fix>3d</fix>
</trkpt>
<trkpt lat="-27.274439" lon="151.290064">
  <ele>343.16</ele>
  <time>2026-09-01T19:58:53Z</time>
  <course>10.8</course>
  <speed>0.0</speed>
  <fix>3d</fix>
</trkpt>
<trkpt lat="-27.274439" lon="151.290064">
  <ele>343.1</ele>
  <time>2026-09-01T19:58:53Z</time>
  <course>270.0</course>
  <speed>0.0</speed>
  <fix>3d</fix>
</trkpt>
<trkpt lat="-27.274439" lon="151.290064">
  <ele>342.87</ele>
  <time>2026-09-01T19:58:53Z</time>
  <course>10.8</course>
  <speed>0.0</speed>
  <fix>3d</fix>
</trkpt>
<trkpt lat="-27.274439" lon="151.290064">
  <ele>343.1</ele>
  <time>2026-09-01T19:58:53Z</time>
  <course>270.0</course>
  <speed>0.0</speed>
  <fix>3d</fix>
</trkpt>
<trkpt lat="-27.274439" lon="151.290064">
  <ele>343.19</ele>
  <time>2026-09-01T19:58:53Z</time>
  <course>10.8</course>
  <speed>0.0</speed>
  <fix>3d</fix>
</trkpt>
<trkpt lat="-27.274439" lon="151.290064">
  <ele>343.1</ele>
  <time>2026-09-01T19:58:53Z</time>
  <course>270.0</course>
  <speed>0.0</speed>
  <fix>3d</fix>
</trkpt>
<trkpt lat="-27.274439" lon="151.290064">
  <ele>343.16</ele>
  <time>2026-09-01T19:58:53Z</time>
  <course>10.8</course>
  <speed>0.0</speed>
  <fix>3d</fix>
</trkpt>
<trkpt lat="-27.274439" lon="151.290064">
  <ele>343.1</ele>
  <time>2026-09-01T19:58:53Z</time>
  <course>270.0</course>
  <speed>0.0</speed>
  <fix>3d</fix>
</trkpt>
<trkpt lat="-27.274439" lon="151.290064">
  <ele>343.21</ele>
  <time>2026-09-01T19:58:53Z</time>
  <course>10.8</course>
  <speed>0.0</speed>
  <fix>3d</fix>
</trkpt>
<trkpt lat="-27.274439" lon="151.290064">
  <ele>343.1</ele>
  <time>2026-09-01T19:58:53Z</time>
  <course>270.0</course>
  <speed>0.0</speed>
  <fix>3d</fix>
</trkpt>
<trkpt lat="-27.274439" lon="151.290064">
  <ele>343.22</ele>
  <time>2026-09-01T19:58:53Z</time>
  <course>10.8</course>
  <speed>0.0</speed>
  <fix>3d</fix>
</trkpt>
<trkpt lat="-27.274439" lon="151.290064">
  <ele>343.1</ele>
  <time>2026-09-01T19:58:53Z</time>
  <course>270.0</course>
  <speed>0.0</speed>
  <fix>3d</fix>
</trkpt>
<trkpt lat="-27.274439" lon="151.290064">
  <ele>343.24</ele>
  <time>2026-09-01T19:58:53Z</time>
  <course>10.8</course>
  <speed>0.0</speed>
  <fix>3d</fix>
</trkpt>
<trkpt lat="-27.274439" lon="151.290064">
  <ele>343.1</ele>
  <time>2026-09-01T19:58:53Z</time>
  <course>270.0</course>
  <speed>0.0</speed>
  <fix>3d</fix>
</trkpt>
<trkpt lat="-27.274439" lon="151.290064">
  <ele>343.0</ele>
  <time>2026-09-01T19:58:53Z</time>
  <course>10.8</course>
  <speed>0.0</speed>
  <fix>3d</fix>
</trkpt>
<trkpt lat="-27.274439" lon="151.290064">
  <ele>343.1</ele>
  <time>2026-09-01T19:58:53Z</time>
  <course>270.0</course>
  <speed>0.0</speed>
  <fix>3d</fix>
</trkpt>
<trkpt lat="-27.274439" lon="151.290064">
  <ele>343.1</ele>
  <time>2026-09-01T19:58:53Z</time>
  <course>10.8</course>
  <speed>0.0</speed>
  <fix>3d</fix>
</trkpt>
<trkpt lat="-27.274439" lon="151.290064">
  <ele>343.1</ele>
  <time>2026-09-01T19:58:53Z</time>
  <course>270.0</course>
  <speed>0.0</speed>
  <fix>3d</fix>
</trkpt>
<trkpt lat="-27.274439" lon="151.290064">
  <ele>343.05</ele>
  <time>2026-09-01T19:58:53Z</time>
  <course>10.8</course>
  <speed>0.0</speed>
  <fix>3d</fix>
</trkpt>
<trkpt lat="-27.274439" lon="151.290064">
  <ele>343.1</ele>
  <time>2026-09-01T19:58:53Z</time>
  <course>270.0</course>
  <speed>0.0</speed>
  <fix>3d</fix>
</trkpt>
<trkpt lat="-27.274439" lon="151.290064">
  <ele>342.87</ele>
  <time>2026-09-01T19:58:53Z</time>
  <course>10.8</course>
  <speed>0.0</speed>
  <fix>3d</fix>
</trkpt>
<trkpt lat="-27.274439" lon="151.290064">
  <ele>343.1</ele>
  <time>2026-09-01T19:58:53Z</time>
  <course>270.0</course>
  <speed>0.0</speed>
  <fix>3d</fix>
</trkpt>
<trkpt lat="-27.274439" lon="151.290064">
  <ele>342.92</ele>
  <time>2026-09-01T19:58:53Z</time>
  <course>10.8</course>
  <speed>0.0</speed>
  <fix>3d</fix>
</trkpt>
<trkpt lat="-27.274439" lon="151.290064">
  <ele>343.1</ele>
  <time>2026-09-01T19:58:53Z</time>
  <course>270.0</course>
  <speed>0.0</speed>
  <fix>3d</fix>
</trkpt>
<trkpt lat="-27.274439" lon="151.290064">
  <ele>342.96</ele>
  <time>2026-09-01T19:58:53Z</time>
  <course>10.8</course>
  <speed>0.0</speed>
  <fix>3d</fix>
</trkpt>
<trkpt lat="-27.274439" lon="151.290064">
  <ele>343.1</ele>
  <time>2026-09-01T19:58:53Z</time>
  <course>270.0</course>
  <speed>0.0</speed>
  <fix>3d</fix>
</trkpt>
<trkpt lat="-27.274439" lon="151.290064">
  <ele>343.15</ele>
  <time>2026-09-01T19:58:53Z</time>
  <course>10.8</course>
  <speed>0.0</speed>
  <fix>3d</fix>
</trkpt>
<trkpt lat="-27.274439" lon="151.290064">
  <ele>343.1</ele>
  <time>2026-09-01T19:58:53Z</time>
  <course>270.0</course>
  <speed>0.0</speed>
  <fix>3d</fix>
</trkpt>
<trkpt lat="-27.274439" lon="151.290064">
  <ele>343.16</ele>
  <time>2026-09-01T19:58:53Z</time>
  <course>10.8</course>
  <speed>0.0</speed>
  <fix>3d</fix>
</trkpt>
<trkpt lat="-27.274439" lon="151.290064">
  <ele>343.1</ele>
  <time>2026-09-01T19:58:53Z</time>
  <course>270.0</course>
  <speed>0.0</speed>
  <fix>3d</fix>
</trkpt>
<trkpt lat="-27.274439" lon="151.290064">
  <ele>343.2</ele>
  <time>2026-09-01T19:58:53Z</time>
  <course>10.81</course>
  <speed>0.0</speed>
  <fix>3d</fix>
</trkpt>
<trkpt lat="-27.274439" lon="151.290064">
  <ele>343.1</ele>
  <time>2026-09-01T19:58:53Z</time>
  <course>270.0</course>
  <speed>0.0</speed>
  <fix>3d</fix>
</trkpt>
<trkpt lat="-27.274439" lon="151.290064">
  <ele>343.13</ele>
  <time>2026-09-01T19:58:53Z</time>
  <course>10.82</course>
  <speed>0.0</speed>
  <fix>3d</fix>
</trkpt>
<trkpt lat="-27.274439" lon="151.290064">
  <ele>343.1</ele>
  <time>2026-09-01T19:58:53Z</time>
  <course>270.0</course>
  <speed>0.0</speed>
  <fix>3d</fix>
</trkpt>
<trkpt lat="-27.274439" lon="151.290064">
  <ele>343.09</ele>
  <time>2026-09-01T19:58:53Z</time>
  <course>10.71</course>
  <speed>0.0</speed>
  <fix>3d</fix>
</trkpt>
<trkpt lat="-27.274439" lon="151.290064">
  <ele>343.1</ele>
  <time>2026-09-01T19:58:53Z</time>
  <course>270.0</course>
  <speed>0.0</speed>
  <fix>3d</fix>
</trkpt>
<trkpt lat="-27.274439" lon="151.290064">
  <ele>343.09</ele>
  <time>2026-09-01T19:58:53Z</time>
  <course>10.71</course>
  <speed>0.0</speed>
  <fix>3d</fix>
</trkpt>
<trkpt lat="-27.274439" lon="151.290064">
  <ele>343.1</ele>
  <time>2026-09-01T19:58:53Z</time>
  <course>270.0</course>
  <speed>0.0</speed>
  <fix>3d</fix>
</trkpt>
<trkpt lat="-27.274439" lon="151.290064">
  <ele>343.1</ele>
  <time>2026-09-01T19:58:53Z</time>
  <course>10.71</course>
  <speed>0.0</speed>
  <fix>3d</fix>
</trkpt>
<trkpt lat="-27.274439" lon="151.290064">
  <ele>343.1</ele>
  <time>2026-09-01T19:58:53Z</time>
  <course>270.0</course>
  <speed>0.0</speed>
  <fix>3d</fix>
</trkpt>
<trkpt lat="-27.274439" lon="151.290064">
  <ele>343.1</ele>
  <time>2026-09-01T19:58:53Z</time>
  <course>10.71</course>
  <speed>0.0</speed>
  <fix>3d</fix>
</trkpt>
<trkpt lat="-27.274439" lon="151.290064">
  <ele>343.1</ele>
  <time>2026-09-01T19:58:53Z</time>
  <course>270.0</course>
  <speed>0.0</speed>
  <fix>3d</fix>
</trkpt>
<trkpt lat="-27.274439" lon="151.290064">
  <ele>343.1</ele>
  <time>2026-09-01T19:58:53Z</time>
  <course>10.71</course>
  <speed>0.0</speed>
  <fix>3d</fix>
</trkpt>
<trkpt lat="-27.274439" lon="151.290064">
  <ele>343.1</ele>
  <time>2026-09-01T19:58:53Z</time>
  <course>270.0</course>
  <speed>0.0</speed>
  <fix>3d</fix>
</trkpt>
<trkpt lat="-27.274439" lon="151.290064">
  <ele>343.1</ele>
  <time>2026-09-01T19:58:53Z</time>
  <course>10.71</course>
  <speed>0.0</speed>
  <fix>3d</fix>
</trkpt>
<trkpt lat="-27.274439" lon="151.290064">
  <ele>343.1</ele>
  <time>2026-09-01T19:58:53Z</time>
  <course>270.0</course>
  <speed>0.0</speed>
  <fix>3d</fix>
</trkpt>
<trkpt lat="-27.274439" lon="151.290064">
  <ele>343.1</ele>
  <time>2026-09-01T19:58:53Z</time>
  <course>10.71</course>
  <speed>0.0</speed>
  <fix>3d</fix>
</trkpt>
<trkpt lat="-27.274439" lon="151.290064">
  <ele>343.1</ele>
  <time>2026-09-01T19:58:53Z</time>
  <course>270.0</course>
  <speed>0.0</speed>
  <fix>3d</fix>
</trkpt>
<trkpt lat="-27.274439" lon="151.290064">
  <ele>343.11</ele>
  <time>2026-09-01T19:58:53Z</time>
  <course>10.71</course>
  <speed>0.0</speed>
  <fix>3d</fix>
</trkpt>
<trkpt lat="-27.274439" lon="151.290064">
  <ele>343.1</ele>
  <time>2026-09-01T19:58:53Z</time>
  <course>270.0</course>
  <speed>0.0</speed>
  <fix>3d</fix>
</trkpt>
<trkpt lat="-27.274439" lon="151.290064">
  <ele>343.11</ele>
  <time>2026-09-01T19:58:53Z</time>
  <course>10.71</course>
  <speed>0.0</speed>
  <fix>3d</fix>
</trkpt>
<trkpt lat="-27.274439" lon="151.290064">
  <ele>343.1</ele>
  <time>2026-09-01T19:58:53Z</time>
  <course>270.0</course>
  <speed>0.0</speed>
  <fix>3d</fix>
</trkpt>
<trkpt lat="-27.274439" lon="151.290064">
  <ele>343.11</ele>
  <time>2026-09-01T19:58:53Z</time>
  <course>10.71</course>
  <speed>0.0</speed>
  <fix>3d</fix>
</trkpt>
<trkpt lat="-27.274439" lon="151.290064">
  <ele>343.1</ele>
  <time>2026-09-01T19:58:53Z</time>
  <course>270.0</course>
  <speed>0.0</speed>
  <fix>3d</fix>
</trkpt>
<trkpt lat="-27.274439" lon="151.290064">
  <ele>343.12</ele>
  <time>2026-09-01T19:58:53Z</time>
  <course>10.71</course>
  <speed>0.0</speed>
  <fix>3d</fix>
</trkpt>
<trkpt lat="-27.274439" lon="151.290064">
  <ele>343.1</ele>
  <time>2026-09-01T19:58:53Z</time>
  <course>270.0</course>
  <speed>0.0</speed>
  <fix>3d</fix>
</trkpt>
<trkpt lat="-27.274439" lon="151.290064">
  <ele>343.12</ele>
  <time>2026-09-01T19:58:53Z</time>
  <course>10.71</course>
  <speed>0.0</speed>
  <fix>3d</fix>
</trkpt>
<trkpt lat="-27.274439" lon="151.290064">
  <ele>343.1</ele>
  <time>2026-09-01T19:58:53Z</time>
  <course>270.0</course>
  <speed>0.0</speed>
  <fix>3d</fix>
</trkpt>
<trkpt lat="-27.274439" lon="151.290064">
  <ele>343.1</ele>
  <time>2026-09-01T19:58:53Z</time>
  <course>10.71</course>
  <speed>0.0</speed>
  <fix>3d</fix>
</trkpt>
<trkpt lat="-27.274439" lon="151.290064">
  <ele>343.1</ele>
  <time>2026-09-01T19:58:53Z</time>
  <course>270.0</course>
  <speed>0.0</speed>
  <fix>3d</fix>
</trkpt>
<trkpt lat="-27.274439" lon="151.290064">
  <ele>343.1</ele>
  <time>2026-09-01T19:58:53Z</time>
  <course>10.71</course>
  <speed>0.0</speed>
  <fix>3d</fix>
</trkpt>
<trkpt lat="-27.274439" lon="151.290064">
  <ele>343.1</ele>
  <time>2026-09-01T19:58:53Z</time>
  <course>270.0</course>
  <speed>0.0</speed>
  <fix>3d</fix>
</trkpt>
<trkpt lat="-27.274439" lon="151.290064">
  <ele>343.1</ele>
  <time>2026-09-01T19:58:53Z</time>
  <course>10.71</course>
  <speed>0.0</speed>
  <fix>3d</fix>
</trkpt>
<trkpt lat="-27.274439" lon="151.290064">
  <ele>343.1</ele>
  <time>2026-09-01T19:58:53Z</time>
  <course>270.0</course>
  <speed>0.0</speed>
  <fix>3d</fix>
</trkpt>
<trkpt lat="-27.274439" lon="151.290064">
  <ele>343.09</ele>
  <time>2026-09-01T19:58:53Z</time>
  <course>10.71</course>
  <speed>0.0</speed>
  <fix>3d</fix>
</trkpt>
<trkpt lat="-27.274439" lon="151.290064">
  <ele>343.1</ele>
  <time>2026-09-01T19:58:53Z</time>
  <course>270.0</course>
  <speed>0.0</speed>
  <fix>3d</fix>
</trkpt>
<trkpt lat="-27.274439" lon="151.290064">
  <ele>343.09</ele>
  <time>2026-09-01T19:58:53Z</time>
  <course>10.71</course>
  <speed>0.0</speed>
  <fix>3d</fix>
</trkpt>
<trkpt lat="-27.274439" lon="151.290064">
  <ele>343.1</ele>
  <time>2026-09-01T19:58:53Z</time>
  <course>270.0</course>
  <speed>0.0</speed>
  <fix>3d</fix>
</trkpt>
<trkpt lat="-27.274439" lon="151.290064">
  <ele>343.09</ele>
  <time>2026-09-01T19:58:53Z</time>
  <course>10.71</course>
  <speed>0.0</speed>
  <fix>3d</fix>
</trkpt>
<trkpt lat="-27.274439" lon="151.290064">
  <ele>343.1</ele>
  <time>2026-09-01T19:58:53Z</time>
  <course>270.0</course>
  <speed>0.0</speed>
  <fix>3d</fix>
</trkpt>
<trkpt lat="-27.274439" lon="151.290064">
  <ele>343.1</ele>
  <time>2026-09-01T19:58:53Z</time>
  <course>10.71</course>
  <speed>0.0</speed>
  <fix>3d</fix>
</trkpt>
<trkpt lat="-27.274439" lon="151.290064">
  <ele>343.1</ele>
  <time>2026-09-01T19:58:53Z</time>
  <course>270.0</course>
  <speed>0.0</speed>
  <fix>3d</fix>
</trkpt>
<trkpt lat="-27.274439" lon="151.290064">
  <ele>343.1</ele>
  <time>2026-09-01T19:58:53Z</time>
  <course>10.71</course>
  <speed>0.0</speed>
  <fix>3d</fix>
</trkpt>
<trkpt lat="-27.274439" lon="151.290064">
  <ele>343.1</ele>
  <time>2026-09-01T19:58:53Z</time>
  <course>270.0</course>
  <speed>0.0</speed>
  <fix>3d</fix>
</trkpt>
<trkpt lat="-27.274439" lon="151.290064">
  <ele>343.09</ele>
  <time>2026-09-01T19:58:53Z</time>
  <course>10.71</course>
  <speed>0.0</speed>
  <fix>3d</fix>
</trkpt>
<trkpt lat="-27.274439" lon="151.290064">
  <ele>343.1</ele>
  <time>2026-09-01T19:58:53Z</time>
  <course>270.0</course>
  <speed>0.0</speed>
  <fix>3d</fix>
</trkpt>
<trkpt lat="-27.274439" lon="151.290064">
  <ele>343.09</ele>
  <time>2026-09-01T19:58:53Z</time>
  <course>10.71</course>
  <speed>0.0</speed>
  <fix>3d</fix>
</trkpt>
<trkpt lat="-27.274439" lon="151.290064">
  <ele>343.1</ele>
  <time>2026-09-01T19:58:53Z</time>
  <course>270.0</course>
  <speed>0.0</speed>
  <fix>3d</fix>
</trkpt>
<trkpt lat="-27.274439" lon="151.290064">
  <ele>343.09</ele>
  <time>2026-09-01T19:58:53Z</time>
  <course>10.71</course>
  <speed>0.0</speed>
  <fix>3d</fix>
</trkpt>
<trkpt lat="-27.274439" lon="151.290064">
  <ele>343.1</ele>
  <time>2026-09-01T19:58:53Z</time>
  <course>270.0</course>
  <speed>0.0</speed>
  <fix>3d</fix>
</trkpt>
<trkpt lat="-27.274439" lon="151.290064">
  <ele>343.09</ele>
  <time>2026-09-01T19:58:53Z</time>
  <course>10.71</course>
  <speed>0.0</speed>
  <fix>3d</fix>
</trkpt>
<trkpt lat="-27.274439" lon="151.290064">
  <ele>343.1</ele>
  <time>2026-09-01T19:58:53Z</time>
  <course>270.0</course>
  <speed>0.0</speed>
  <fix>3d</fix>
</trkpt>
<trkpt lat="-27.274439" lon="151.290064">
  <ele>343.09</ele>
  <time>2026-09-01T19:58:53Z</time>
  <course>10.71</course>
  <speed>0.0</speed>
  <fix>3d</fix>
</trkpt>
<trkpt lat="-27.274439" lon="151.290064">
  <ele>343.1</ele>
  <time>2026-09-01T19:58:53Z</time>
  <course>270.0</course>
  <speed>0.0</speed>
  <fix>3d</fix>
</trkpt>
<trkpt lat="-27.274439" lon="151.290064">
  <ele>343.09</ele>
  <time>2026-09-01T19:58:53Z</time>
  <course>10.71</course>
  <speed>0.0</speed>
  <fix>3d</fix>
</trkpt>
<trkpt lat="-27.274439" lon="151.290064">
  <ele>343.1</ele>
  <time>2026-09-01T19:58:53Z</time>
  <course>270.0</course>
  <speed>0.0</speed>
  <fix>3d</fix>
</trkpt>
<trkpt lat="-27.274439" lon="151.290064">
  <ele>343.09</ele>
  <time>2026-09-01T19:58:53Z</time>
  <course>10.71</course>
  <speed>0.0</speed>
  <fix>3d</fix>
</trkpt>
<trkpt lat="-27.274439" lon="151.290064">
  <ele>343.1</ele>
  <time>2026-09-01T19:58:53Z</time>
  <course>270.0</course>
  <speed>0.0</speed>
  <fix>3d</fix>
</trkpt>
<trkpt lat="-27.274439" lon="151.290064">
  <ele>343.09</ele>
  <time>2026-09-01T19:58:53Z</time>
  <course>10.71</course>
  <speed>0.0</speed>
  <fix>3d</fix>
</trkpt>
<trkpt lat="-27.274439" lon="151.290064">
  <ele>343.1</ele>
  <time>2026-09-01T19:58:53Z</time>
  <course>270.0</course>
  <speed>0.0</speed>
  <fix>3d</fix>
</trkpt>
<trkpt lat="-27.274439" lon="151.290064">
  <ele>343.1</ele>
  <time>2026-09-01T19:58:53Z</time>
  <course>10.71</course>
  <speed>0.0</speed>
  <fix>3d</fix>
</trkpt>
<trkpt lat="-27.274439" lon="151.290064">
  <ele>343.1</ele>
  <time>2026-09-01T19:58:53Z</time>
  <course>270.0</course>
  <speed>0.0</speed>
  <fix>3d</fix>
</trkpt>
<trkpt lat="-27.274439" lon="151.290064">
  <ele>343.1</ele>
  <time>2026-09-01T19:58:53Z</time>
  <course>10.71</course>
  <speed>0.0</speed>
  <fix>3d</fix>
</trkpt>
<trkpt lat="-27.274439" lon="151.290064">
  <ele>343.1</ele>
  <time>2026-09-01T19:58:53Z</time>
  <course>270.0</course>
  <speed>0.0</speed>
  <fix>3d</fix>
</trkpt>
<trkpt lat="-27.274439" lon="151.290064">
  <ele>343.1</ele>
  <time>2026-09-01T19:58:53Z</time>
  <course>10.71</course>
  <speed>0.0</speed>
  <fix>3d</fix>
</trkpt>
<trkpt lat="-27.274439" lon="151.290064">
  <ele>343.1</ele>
  <time>2026-09-01T19:58:53Z</time>
  <course>270.0</course>
  <speed>0.0</speed>
  <fix>3d</fix>
</trkpt>
<trkpt lat="-27.274439" lon="151.290064">
  <ele>343.1</ele>
  <time>2026-09-01T19:58:53Z</time>
  <course>10.71</course>
  <speed>0.0</speed>
  <fix>3d</fix>
</trkpt>
<trkpt lat="-27.274439" lon="151.290064">
  <ele>343.1</ele>
  <time>2026-09-01T19:58:53Z</time>
  <course>270.0</course>
  <speed>0.0</speed>
  <fix>3d</fix>
</trkpt>
<trkpt lat="-27.274439" lon="151.290064">
  <ele>343.1</ele>
  <time>2026-09-01T19:58:53Z</time>
  <course>10.71</course>
  <speed>0.0</speed>
  <fix>3d</fix>
</trkpt>
<trkpt lat="-27.274439" lon="151.290064">
  <ele>343.1</ele>
  <time>2026-09-01T19:58:53Z</time>
  <course>270.0</course>
  <speed>0.0</speed>
  <fix>3d</fix>
</trkpt>
<trkpt lat="-27.274439" lon="151.290064">
  <ele>343.1</ele>
  <time>2026-09-01T19:58:53Z</time>
  <course>10.71</course>
  <speed>0.0</speed>
  <fix>3d</fix>
</trkpt>
<trkpt lat="-27.274439" lon="151.290064">
  <ele>343.1</ele>
  <time>2026-09-01T19:58:53Z</time>
  <course>270.0</course>
  <speed>0.0</speed>
  <fix>3d</fix>
</trkpt>
<trkpt lat="-27.274439" lon="151.290064">
  <ele>343.09</ele>
  <time>2026-09-01T19:58:53Z</time>
  <course>10.71</course>
  <speed>0.0</speed>
  <fix>3d</fix>
</trkpt>
<trkpt lat="-27.274439" lon="151.290064">
  <ele>343.1</ele>
  <time>2026-09-01T19:58:53Z</time>
  <course>270.0</course>
  <speed>0.0</speed>
  <fix>3d</fix>
</trkpt>
<trkpt lat="-27.274439" lon="151.290064">
  <ele>343.09</ele>
  <time>2026-09-01T19:58:53Z</time>
  <course>10.71</course>
  <speed>0.0</speed>
  <fix>3d</fix>
</trkpt>
<trkpt lat="-27.274439" lon="151.290064">
  <ele>343.1</ele>
  <time>2026-09-01T19:58:53Z</time>
  <course>270.0</course>
  <speed>0.0</speed>
  <fix>3d</fix>
</trkpt>
<trkpt lat="-27.274439" lon="151.290064">
  <ele>343.09</ele>
  <time>2026-09-01T19:58:53Z</time>
  <course>10.71</course>
  <speed>0.0</speed>
  <fix>3d</fix>
</trkpt>
<trkpt lat="-27.274439" lon="151.290064">
  <ele>343.1</ele>
  <time>2026-09-01T19:58:53Z</time>
  <course>270.0</course>
  <speed>0.0</speed>
  <fix>3d</fix>
</trkpt>
<trkpt lat="-27.274439" lon="151.290064">
  <ele>343.09</ele>
  <time>2026-09-01T19:58:53Z</time>
  <course>10.71</course>
  <speed>0.0</speed>
  <fix>3d</fix>
</trkpt>
<trkpt lat="-27.274439" lon="151.290064">
  <ele>343.1</ele>
  <time>2026-09-01T19:58:53Z</time>
  <course>270.0</course>
  <speed>0.0</speed>
  <fix>3d</fix>
</trkpt>
<trkpt lat="-27.274439" lon="151.290064">
  <ele>343.09</ele>
  <time>2026-09-01T19:58:53Z</time>
  <course>10.71</course>
  <speed>0.0</speed>
  <fix>3d</fix>
</trkpt>
<trkpt lat="-27.274439" lon="151.290064">
  <ele>343.1</ele>
  <time>2026-09-01T19:58:53Z</time>
  <course>270.0</course>
  <speed>0.0</speed>
  <fix>3d</fix>
</trkpt>
<trkpt lat="-27.274439" lon="151.290064">
  <ele>343.09</ele>
  <time>2026-09-01T19:58:53Z</time>
  <course>10.71</course>
  <speed>0.0</speed>
  <fix>3d</fix>
</trkpt>
<trkpt lat="-27.274439" lon="151.290064">
  <ele>343.09</ele>
  <time>2026-09-01T19:58:53Z</time>
  <course>10.71</course>
  <speed>0.0</speed>
  <fix>3d</fix>
</trkpt>
<trkpt lat="-27.274439" lon="151.290064">
  <ele>343.1</ele>
  <time>2026-09-01T19:58:53Z</time>
  <course>270.0</course>
  <speed>0.0</speed>
  <fix>3d</fix>
</trkpt>
<trkpt lat="-27.274439" lon="151.290064">
  <ele>343.09</ele>
  <time>2026-09-01T19:58:53Z</time>
  <course>10.71</course>
  <speed>0.0</speed>
  <fix>3d</fix>
</trkpt>
<trkpt lat="-27.274439" lon="151.290064">
  <ele>343.08</ele>
  <time>2026-09-01T19:58:53Z</time>
  <course>10.71</course>
  <speed>0.0</speed>
  <fix>3d</fix>
</trkpt>
<trkpt lat="-27.274439" lon="151.290064">
  <ele>343.1</ele>
  <time>2026-09-01T19:58:53Z</time>
  <course>109.47</course>
  <speed>0.0</speed>
  <fix>3d</fix>
</trkpt>
<trkpt lat="-27.274439" lon="151.290064">
  <ele>343.08</ele>
  <time>2026-09-01T19:58:53Z</time>
  <course>10.71</course>
  <speed>0.0</speed>
  <fix>3d</fix>
</trkpt>
<trkpt lat="-27.274439" lon="151.290064">
  <ele>343.09</ele>
  <time>2026-09-01T19:58:53Z</time>
  <course>10.71</course>
  <speed>0.0</speed>
  <fix>3d</fix>
</trkpt>
<trkpt lat="-27.274439" lon="151.290064">
  <ele>343.1</ele>
  <time>2026-09-01T19:58:53Z</time>
  <course>109.47</course>
  <speed>0.0</speed>
  <fix>3d</fix>
</trkpt>
<trkpt lat="-27.274439" lon="151.290064">
  <ele>343.09</ele>
  <time>2026-09-01T19:58:53Z</time>
  <course>10.71</course>
  <speed>0.0</speed>
  <fix>3d</fix>
</trkpt>
<trkpt lat="-27.274439" lon="151.290064">
  <ele>343.09</ele>
  <time>2026-09-01T19:58:53Z</time>
  <course>10.71</course>
  <speed>0.0</speed>
  <fix>3d</fix>
</trkpt>
<trkpt lat="-27.274439" lon="151.290064">
  <ele>343.1</ele>
  <time>2026-09-01T19:58:53Z</time>
  <course>134.11</course>
  <speed>0.0</speed>
  <fix>3d</fix>
</trkpt>
<trkpt lat="-27.274439" lon="151.290064">
  <ele>343.09</ele>
  <time>2026-09-01T19:58:53Z</time>
  <course>10.71</course>
  <speed>0.0</speed>
  <fix>3d</fix>
</trkpt>
<trkpt lat="-27.274439" lon="151.290064">
  <ele>343.08</ele>
  <time>2026-09-01T19:58:53Z</time>
  <course>10.71</course>
  <speed>0.0</speed>
  <fix>3d</fix>
</trkpt>
<trkpt lat="-27.274439" lon="151.290064">
  <ele>343.1</ele>
  <time>2026-09-01T19:58:53Z</time>
  <course>134.11</course>
  <speed>0.0</speed>
  <fix>3d</fix>
</trkpt>
<trkpt lat="-27.274439" lon="151.290064">
  <ele>343.08</ele>
  <time>2026-09-01T19:58:53Z</time>
  <course>10.71</course>
  <speed>0.0</speed>
  <fix>3d</fix>
</trkpt>
<trkpt lat="-27.274439" lon="151.290064">
  <ele>343.08</ele>
  <time>2026-09-01T19:58:53Z</time>
  <course>10.71</course>
  <speed>0.0</speed>
  <fix>3d</fix>
</trkpt>
<trkpt lat="-27.274439" lon="151.290064">
  <ele>343.1</ele>
  <time>2026-09-01T19:58:53Z</time>
  <course>286.87</course>
  <speed>0.0</speed>
  <fix>3d</fix>
</trkpt>
<trkpt lat="-27.274439" lon="151.290064">
  <ele>343.08</ele>
  <time>2026-09-01T19:58:53Z</time>
  <course>10.71</course>
  <speed>0.0</speed>
  <fix>3d</fix>
</trkpt>
<trkpt lat="-27.274439" lon="151.290064">
  <ele>343.08</ele>
  <time>2026-09-01T19:58:53Z</time>
  <course>10.71</course>
  <speed>0.0</speed>
  <fix>3d</fix>
</trkpt>
<trkpt lat="-27.274439" lon="151.290064">
  <ele>343.1</ele>
  <time>2026-09-01T19:58:53Z</time>
  <course>286.87</course>
  <speed>0.0</speed>
  <fix>3d</fix>
</trkpt>
<trkpt lat="-27.274439" lon="151.290064">
  <ele>343.08</ele>
  <time>2026-09-01T19:58:53Z</time>
  <course>10.71</course>
  <speed>0.0</speed>
  <fix>3d</fix>
</trkpt>
<trkpt lat="-27.274439" lon="151.290064">
  <ele>343.08</ele>
  <time>2026-09-01T19:58:53Z</time>
  <course>10.71</course>
  <speed>0.0</speed>
  <fix>3d</fix>
</trkpt>
<trkpt lat="-27.274439" lon="151.290064">
  <ele>343.1</ele>
  <time>2026-09-01T19:58:53Z</time>
  <course>313.69</course>
  <speed>0.0</speed>
  <fix>3d</fix>
</trkpt>
<trkpt lat="-27.274439" lon="151.290064">
  <ele>343.08</ele>
  <time>2026-09-01T19:58:53Z</time>
  <course>10.71</course>
  <speed>0.0</speed>
  <fix>3d</fix>
</trkpt>
<trkpt lat="-27.274439" lon="151.290064">
  <ele>343.09</ele>
  <time>2026-09-01T19:58:53Z</time>
  <course>10.71</course>
  <speed>0.0</speed>
  <fix>3d</fix>
</trkpt>
<trkpt lat="-27.274439" lon="151.290064">
  <ele>343.1</ele>
  <time>2026-09-01T19:58:53Z</time>
  <course>313.69</course>
  <speed>0.0</speed>
  <fix>3d</fix>
</trkpt>
<trkpt lat="-27.274439" lon="151.290064">
  <ele>343.1</ele>
  <time>2026-09-01T19:58:53Z</time>
  <course>10.71</course>
  <speed>0.0</speed>
  <fix>3d</fix>
</trkpt>
<trkpt lat="-27.274439" lon="151.290064">
  <ele>343.12</ele>
  <time>2026-09-01T19:58:53Z</time>
  <course>10.71</course>
  <speed>0.0</speed>
  <fix>3d</fix>
</trkpt>
<trkpt lat="-27.274439" lon="151.290064">
  <ele>343.1</ele>
  <time>2026-09-01T19:58:53Z</time>
  <course>7.81</course>
  <speed>0.0</speed>
  <fix>3d</fix>
</trkpt>
<trkpt lat="-27.274439" lon="151.290064">
  <ele>343.13</ele>
  <time>2026-09-01T19:58:53Z</time>
  <course>10.71</course>
  <speed>0.0</speed>
  <fix>3d</fix>
</trkpt>
<trkpt lat="-27.274439" lon="151.290064">
  <ele>343.17</ele>
  <time>2026-09-01T19:58:53Z</time>
  <course>10.71</course>
  <speed>0.0</speed>
  <fix>3d</fix>
</trkpt>
<trkpt lat="-27.274439" lon="151.290064">
  <ele>343.1</ele>
  <time>2026-09-01T19:58:53Z</time>
  <course>7.81</course>
  <speed>0.0</speed>
  <fix>3d</fix>
</trkpt>
<trkpt lat="-27.274439" lon="151.290064">
  <ele>343.19</ele>
  <time>2026-09-01T19:58:53Z</time>
  <course>10.71</course>
  <speed>0.0</speed>
  <fix>3d</fix>
</trkpt>
<trkpt lat="-27.274439" lon="151.290064">
  <ele>343.24</ele>
  <time>2026-09-01T19:58:53Z</time>
  <course>10.71</course>
  <speed>0.01</speed>
  <fix>3d</fix>
</trkpt>
<trkpt lat="-27.274439" lon="151.290064">
  <ele>343.15</ele>
  <time>2026-09-01T19:58:53Z</time>
  <course>7.95</course>
  <speed>0.0</speed>
  <fix>3d</fix>
</trkpt>
<trkpt lat="-27.274439" lon="151.290064">
  <ele>343.24</ele>
  <time>2026-09-01T19:58:53Z</time>
  <course>10.71</course>
  <speed>0.01</speed>
  <fix>3d</fix>
</trkpt>
<trkpt lat="-27.274439" lon="151.290064">
  <ele>343.37</ele>
  <time>2026-09-01T19:58:53Z</time>
  <course>10.71</course>
  <speed>0.03</speed>
  <fix>3d</fix>
</trkpt>
<trkpt lat="-27.274439" lon="151.290064">
  <ele>343.15</ele>
  <time>2026-09-01T19:58:53Z</time>
  <course>7.95</course>
  <speed>0.0</speed>
  <fix>3d</fix>
</trkpt>
<trkpt lat="-27.274439" lon="151.290064">
  <ele>343.37</ele>
  <time>2026-09-01T19:58:53Z</time>
  <course>10.71</course>
  <speed>0.04</speed>
  <fix>3d</fix>
</trkpt>
<trkpt lat="-27.274439" lon="151.290064">
  <ele>343.56</ele>
  <time>2026-09-01T19:58:53Z</time>
  <course>10.71</course>
  <speed>0.07071067811865475</speed>
  <fix>3d</fix>
</trkpt>
<trkpt lat="-27.274439" lon="151.290064">
  <ele>343.28</ele>
  <time>2026-09-01T19:58:53Z</time>
  <course>7.22</course>
  <speed>0.02</speed>
  <fix>3d</fix>
</trkpt>
<trkpt lat="-27.274439" lon="151.290064">
  <ele>343.62</ele>
  <time>2026-09-01T19:58:53Z</time>
  <course>10.71</course>
  <speed>0.08062257748298549</speed>
  <fix>3d</fix>
</trkpt>
<trkpt lat="-27.2744389" lon="151.290064">
  <ele>343.8</ele>
  <time>2026-09-01T19:58:53Z</time>
  <course>10.71</course>
  <speed>0.1118033988749895</speed>
  <fix>3d</fix>
</trkpt>
<trkpt lat="-27.274439" lon="151.290064">
  <ele>343.28</ele>
  <time>2026-09-01T19:58:53Z</time>
  <course>7.22</course>
  <speed>0.02</speed>
  <fix>3d</fix>
</trkpt>
<trkpt lat="-27.2744389" lon="151.290064">
  <ele>343.85</ele>
  <time>2026-09-01T19:58:53Z</time>
  <course>10.71</course>
  <speed>0.12165525060596438</speed>
  <fix>3d</fix>
</trkpt>
<trkpt lat="-27.2744388" lon="151.290064">
  <ele>344.05</ele>
  <time>2026-09-01T19:58:53Z</time>
  <course>10.7</course>
  <speed>0.15132745950421556</speed>
  <fix>3d</fix>
</trkpt>
<trkpt lat="-27.274439" lon="151.290064">
  <ele>343.59</ele>
  <time>2026-09-01T19:58:53Z</time>
  <course>7.4</course>
  <speed>0.07</speed>
  <fix>3d</fix>
</trkpt>
<trkpt lat="-27.2744387" lon="151.290064">
  <ele>344.12</ele>
  <time>2026-09-01T19:58:53Z</time>
  <course>10.7</course>
  <speed>0.16278820596099705</speed>
  <fix>3d</fix>
</trkpt>
<trkpt lat="-27.2744386" lon="151.290064">
  <ele>344.32</ele>
  <time>2026-09-01T19:58:53Z</time>
  <course>10.7</course>
  <speed>0.1824828759089466</speed>
  <fix>3d</fix>
</trkpt>
<trkpt lat="-27.274439" lon="151.290064">
  <ele>343.59</ele>
  <time>2026-09-01T19:58:53Z</time>
  <course>7.4</course>
  <speed>0.07</speed>
  <fix>3d</fix>
</trkpt>
<trkpt lat="-27.2744386" lon="151.290064">
  <ele>344.39</ele>
  <time>2026-09-01T19:58:53Z</time>
  <course>10.7</course>
  <speed>0.19235384061671343</speed>
  <fix>3d</fix>
</trkpt>
<trkpt lat="-27.2744384" lon="151.2900641">
  <ele>344.6</ele>
  <time>2026-09-01T19:58:53Z</time>
  <course>10.7</course>
  <speed>0.223606797749979</speed>
  <fix>3d</fix>
</trkpt>
<trkpt lat="-27.2744388" lon="151.290064">
  <ele>344.07</ele>
  <time>2026-09-01T19:58:53Z</time>
  <course>7.54</course>
  <speed>0.15</speed>
  <fix>3d</fix>
</trkpt>
<trkpt lat="-27.2744384" lon="151.2900641">
  <ele>344.67</ele>
  <time>2026-09-01T19:58:53Z</time>
  <course>10.7</course>
  <speed>0.23345235059857505</speed>
  <fix>3d</fix>
</trkpt>
<trkpt lat="-27.2744382" lon="151.2900641">
  <ele>344.89</ele>
  <time>2026-09-01T19:58:53Z</time>
  <course>10.69</course>
  <speed>0.26305892875931813</speed>
  <fix>3d</fix>
</trkpt>
<trkpt lat="-27.2744388" lon="151.290064">
  <ele>344.07</ele>
  <time>2026-09-01T19:58:53Z</time>
  <course>7.54</course>
  <speed>0.15</speed>
  <fix>3d</fix>
</trkpt>
<trkpt lat="-27.2744382" lon="151.2900641">
  <ele>344.96</ele>
  <time>2026-09-01T19:58:53Z</time>
  <course>10.69</course>
  <speed>0.2745906043549196</speed>
  <fix>3d</fix>
</trkpt>
<trkpt lat="-27.274438" lon="151.2900641">
  <ele>345.19</ele>
  <time>2026-09-01T19:58:53Z</time>
  <course>10.67</course>
  <speed>0.2942787793912432</speed>
  <fix>3d</fix>
</trkpt>
<trkpt lat="-27.2744385" lon="151.290064">
  <ele>344.63</ele>
  <time>2026-09-01T19:58:53Z</time>
  <course>7.6</course>
  <speed>0.23</speed>
  <fix>3d</fix>
</trkpt>
<trkpt lat="-27.2744379" lon="151.2900642">
  <ele>345.27</ele>
  <time>2026-09-01T19:58:53Z</time>
  <course>10.67</course>
  <speed>0.304138126514911</speed>
  <fix>3d</fix>
</trkpt>
<trkpt lat="-27.2744377" lon="151.2900642">
  <ele>345.5</ele>
  <time>2026-09-01T19:58:53Z</time>
  <course>10.67</course>
  <speed>0.3238826948140329</speed>
  <fix>3d</fix>
</trkpt>
<trkpt lat="-27.2744385" lon="151.290064">
  <ele>344.63</ele>
  <time>2026-09-01T19:58:53Z</time>
  <course>7.6</course>
  <speed>0.23</speed>
  <fix>3d</fix>
</trkpt>
<trkpt lat="-27.2744377" lon="151.2900642">
  <ele>345.56</ele>
  <time>2026-09-01T19:58:53Z</time>
  <course>10.67</course>
  <speed>0.33541019662496846</speed>
  <fix>3d</fix>
</trkpt>
<trkpt lat="-27.2744374" lon="151.2900642">
  <ele>345.82</ele>
  <time>2026-09-01T19:58:53Z</time>
  <course>10.67</course>
  <speed>0.35510561809129404</speed>
  <fix>3d</fix>
</trkpt>
<trkpt lat="-27.274438" lon="151.2900641">
  <ele>345.22</ele>
  <time>2026-09-01T19:58:53Z</time>
  <course>7.66</course>
  <speed>0.3</speed>
  <fix>3d</fix>
</trkpt>
<trkpt lat="-27.2744373" lon="151.2900642">
  <ele>345.91</ele>
  <time>2026-09-01T19:58:53Z</time>
  <course>10.67</course>
  <speed>0.3649657518178932</speed>
  <fix>3d</fix>
</trkpt>
<trkpt lat="-27.2744371" lon="151.2900643">
  <ele>346.14</ele>
  <time>2026-09-01T19:58:53Z</time>
  <course>10.67</course>
  <speed>0.37483329627982626</speed>
  <fix>3d</fix>
</trkpt>
<trkpt lat="-27.274438" lon="151.2900641">
  <ele>345.22</ele>
  <time>2026-09-01T19:58:53Z</time>
  <course>7.66</course>
  <speed>0.3</speed>
  <fix>3d</fix>
</trkpt>
<trkpt lat="-27.2744371" lon="151.2900643">
  <ele>346.16</ele>
  <time>2026-09-01T19:58:53Z</time>
  <course>10.67</course>
  <speed>0.37483329627982626</speed>
  <fix>3d</fix>
</trkpt>
<trkpt lat="-27.2744368" lon="151.2900643">
  <ele>346.47</ele>
  <time>2026-09-01T19:58:53Z</time>
  <course>10.66</course>
  <speed>0.3945883931389772</speed>
  <fix>3d</fix>
</trkpt>
<trkpt lat="-27.2744374" lon="151.2900641">
  <ele>345.85</ele>
  <time>2026-09-01T19:58:53Z</time>
  <course>7.75</course>
  <speed>0.36</speed>
  <fix>3d</fix>
</trkpt>
<trkpt lat="-27.2744367" lon="151.2900643">
  <ele>346.48</ele>
  <time>2026-09-01T19:58:53Z</time>
  <course>10.66</course>
  <speed>0.3945883931389772</speed>
  <fix>3d</fix>
</trkpt>
<trkpt lat="-27.2744364" lon="151.2900644">
  <ele>346.79</ele>
  <time>2026-09-01T19:58:53Z</time>
  <course>10.65</course>
  <speed>0.40607881008493907</speed>
  <fix>3d</fix>
</trkpt>
<trkpt lat="-27.2744374" lon="151.2900641">
  <ele>345.85</ele>
  <time>2026-09-01T19:58:53Z</time>
  <course>7.75</course>
  <speed>0.36</speed>
  <fix>3d</fix>
</trkpt>
<trkpt lat="-27.2744364" lon="151.2900644">
  <ele>346.79</ele>
  <time>2026-09-01T19:58:53Z</time>
  <course>10.65</course>
  <speed>0.40607881008493907</speed>
  <fix>3d</fix>
</trkpt>
<trkpt lat="-27.274436" lon="151.2900644">
  <ele>347.1</ele>
  <time>2026-09-01T19:58:53Z</time>
  <course>10.65</course>
  <speed>0.4159326868617084</speed>
  <fix>3d</fix>
</trkpt>
<trkpt lat="-27.2744367" lon="151.2900642">
  <ele>346.48</ele>
  <time>2026-09-01T19:58:53Z</time>
  <course>7.87</course>
  <speed>0.4</speed>
  <fix>3d</fix>
</trkpt>
<trkpt lat="-27.2744359" lon="151.2900644">
  <ele>347.18</ele>
  <time>2026-09-01T19:58:53Z</time>
  <course>10.65</course>
  <speed>0.4159326868617084</speed>
  <fix>3d</fix>
</trkpt>
<trkpt lat="-27.2744357" lon="151.2900645">
  <ele>347.41</ele>
  <time>2026-09-01T19:58:53Z</time>
  <course>10.65</course>
  <speed>0.4159326868617084</speed>
  <fix>3d</fix>
</trkpt>
<trkpt lat="-27.2744367" lon="151.2900642">
  <ele>346.48</ele>
  <time>2026-09-01T19:58:53Z</time>
  <course>7.87</course>
  <speed>0.4</speed>
  <fix>3d</fix>
</trkpt>
<trkpt lat="-27.2744356" lon="151.2900645">
  <ele>347.49</ele>
  <time>2026-09-01T19:58:53Z</time>
  <course>10.65</course>
  <speed>0.4143669871020132</speed>
  <fix>3d</fix>
</trkpt>
<trkpt lat="-27.2744353" lon="151.2900645">
  <ele>347.71</ele>
  <time>2026-09-01T19:58:53Z</time>
  <course>10.65</course>
  <speed>0.4143669871020132</speed>
  <fix>3d</fix>
</trkpt>
<trkpt lat="-27.2744359" lon="151.2900644">
  <ele>347.1</ele>
  <time>2026-09-01T19:58:53Z</time>
  <course>8.04</course>
  <speed>0.43</speed>
  <fix>3d</fix>
</trkpt>
<trkpt lat="-27.2744352" lon="151.2900645">
  <ele>347.77</ele>
  <time>2026-09-01T19:58:53Z</time>
  <course>10.65</course>
  <speed>0.4143669871020132</speed>
  <fix>3d</fix>
</trkpt>
<trkpt lat="-27.2744349" lon="151.2900646">
  <ele>348.0</ele>
  <time>2026-09-01T19:58:53Z</time>
  <course>10.65</course>
  <speed>0.4044749683231337</speed>
  <fix>3d</fix>
</trkpt>
<trkpt lat="-27.2744359" lon="151.2900644">
  <ele>347.1</ele>
  <time>2026-09-01T19:58:53Z</time>
  <course>8.04</course>
  <speed>0.43</speed>
  <fix>3d</fix>
</trkpt>
<trkpt lat="-27.2744348" lon="151.2900646">
  <ele>348.06</ele>
  <time>2026-09-01T19:58:53Z</time>
  <course>10.65</course>
  <speed>0.4044749683231337</speed>
  <fix>3d</fix>
</trkpt>
<trkpt lat="-27.2744346" lon="151.2900646">
  <ele>348.29</ele>
  <time>2026-09-01T19:58:53Z</time>
  <course>10.66</course>
  <speed>0.38470768123342686</speed>
  <fix>3d</fix>
</trkpt>
<trkpt lat="-27.2744352" lon="151.2900645">
  <ele>347.7</ele>
  <time>2026-09-01T19:58:53Z</time>
  <course>8.31</course>
  <speed>0.42</speed>
  <fix>3d</fix>
</trkpt>
<trkpt lat="-27.2744345" lon="151.2900647">
  <ele>348.35</ele>
  <time>2026-09-01T19:58:53Z</time>
  <course>10.66</course>
  <speed>0.38470768123342686</speed>
  <fix>3d</fix>
</trkpt>
<trkpt lat="-27.2744342" lon="151.2900647">
  <ele>348.56</ele>
  <time>2026-09-01T19:58:53Z</time>
  <course>10.67</course>
  <speed>0.37483329627982626</speed>
  <fix>3d</fix>
</trkpt>
<trkpt lat="-27.2744352" lon="151.2900645">
  <ele>347.7</ele>
  <time>2026-09-01T19:58:53Z</time>
  <course>8.31</course>
  <speed>0.42</speed>
  <fix>3d</fix>
</trkpt>
<trkpt lat="-27.2744341" lon="151.2900647">
  <ele>348.63</ele>
  <time>2026-09-01T19:58:53Z</time>
  <course>10.67</course>
  <speed>0.3634556369077249</speed>
  <fix>3d</fix>
</trkpt>
<trkpt lat="-27.2744339" lon="151.2900647">
  <ele>348.84</ele>
  <time>2026-09-01T19:58:53Z</time>
  <course>10.68</course>
  <speed>0.3535533905932738</speed>
  <fix>3d</fix>
</trkpt>
<trkpt lat="-27.2744344" lon="151.2900646">
  <ele>348.28</ele>
  <time>2026-09-01T19:58:53Z</time>
  <course>8.7</course>
  <speed>0.4</speed>
  <fix>3d</fix>
</trkpt>
<trkpt lat="-27.2744338" lon="151.2900648">
  <ele>348.9</ele>
  <time>2026-09-01T19:58:53Z</time>
  <course>10.68</course>
  <speed>0.34365680554879163</speed>
  <fix>3d</fix>
</trkpt>
<trkpt lat="-27.2744336" lon="151.2900648">
  <ele>349.1</ele>
  <time>2026-09-01T19:58:53Z</time>
  <course>10.69</course>
  <speed>0.3238826948140329</speed>
  <fix>3d</fix>
</trkpt>
<trkpt lat="-27.2744344" lon="151.2900646">
  <ele>348.28</ele>
  <time>2026-09-01T19:58:53Z</time>
  <course>8.7</course>
  <speed>0.4</speed>
  <fix>3d</fix>
</trkpt>
<trkpt lat="-27.2744335" lon="151.2900648">
  <ele>349.15</ele>
  <time>2026-09-01T19:58:53Z</time>
  <course>10.69</course>
  <speed>0.31400636936215165</speed>
  <fix>3d</fix>
</trkpt>
<trkpt lat="-27.2744333" lon="151.2900648">
  <ele>349.36</ele>
  <time>2026-09-01T19:58:53Z</time>
  <course>10.7</course>
  <speed>0.29274562336608895</speed>
  <fix>3d</fix>
</trkpt>
<trkpt lat="-27.2744337" lon="151.2900647">
  <ele>348.82</ele>
  <time>2026-09-01T19:58:53Z</time>
  <course>9.25</course>
  <speed>0.36</speed>
  <fix>3d</fix>
</trkpt>
<trkpt lat="-27.2744333" lon="151.2900648">
  <ele>349.37</ele>
  <time>2026-09-01T19:58:53Z</time>
  <course>10.7</course>
  <speed>0.29274562336608895</speed>
  <fix>3d</fix>
</trkpt>
<trkpt lat="-27.274433" lon="151.2900649">
  <ele>349.62</ele>
  <time>2026-09-01T19:58:53Z</time>
  <course>10.71</course>
  <speed>0.26305892875931813</speed>
  <fix>3d</fix>
</trkpt>
<trkpt lat="-27.2744337" lon="151.2900647">
  <ele>348.82</ele>
  <time>2026-09-01T19:58:53Z</time>
  <course>9.25</course>
  <speed>0.36</speed>
  <fix>3d</fix>
</trkpt>
<trkpt lat="-27.274433" lon="151.2900649">
  <ele>349.63</ele>
  <time>2026-09-01T19:58:53Z</time>
  <course>10.71</course>
  <speed>0.26305892875931813</speed>
  <fix>3d</fix>
</trkpt>
<trkpt lat="-27.2744328" lon="151.2900649">
  <ele>349.88</ele>
  <time>2026-09-01T19:58:53Z</time>
  <course>10.72</course>
  <speed>0.23194827009486402</speed>
  <fix>3d</fix>
</trkpt>
<trkpt lat="-27.2744331" lon="151.2900649">
  <ele>349.34</ele>
  <time>2026-09-01T19:58:53Z</time>
  <course>10.1</course>
  <speed>0.31</speed>
  <fix>3d</fix>
</trkpt>
<trkpt lat="-27.2744327" lon="151.2900649">
  <ele>349.94</ele>
  <time>2026-09-01T19:58:53Z</time>
  <course>10.72</course>
  <speed>0.2220360331117452</speed>
  <fix>3d</fix>
</trkpt>
<trkpt lat="-27.2744326" lon="151.2900649">
  <ele>350.12</ele>
  <time>2026-09-01T19:58:53Z</time>
  <course>10.74</course>
  <speed>0.20223748416156684</speed>
  <fix>3d</fix>
</trkpt>
<trkpt lat="-27.2744331" lon="151.2900649">
  <ele>349.34</ele>
  <time>2026-09-01T19:58:53Z</time>
  <course>10.1</course>
  <speed>0.31</speed>
  <fix>3d</fix>
</trkpt>
<trkpt lat="-27.2744325" lon="151.2900649">
  <ele>350.19</ele>
  <time>2026-09-01T19:58:53Z</time>
  <course>10.74</course>
  <speed>0.19235384061671343</speed>
  <fix>3d</fix>
</trkpt>
<trkpt lat="-27.2744324" lon="151.290065">
  <ele>350.37</ele>
  <time>2026-09-01T19:58:53Z</time>
  <course>10.75</course>
  <speed>0.16124515496597097</speed>
  <fix>3d</fix>
</trkpt>
<trkpt lat="-27.2744326" lon="151.290065">
  <ele>349.84</ele>
  <time>2026-09-01T19:58:53Z</time>
  <course>11.44</course>
  <speed>0.25</speed>
  <fix>3d</fix>
</trkpt>
<trkpt lat="-27.2744323" lon="151.290065">
  <ele>350.43</ele>
  <time>2026-09-01T19:58:53Z</time>
  <course>10.75</course>
  <speed>0.16124515496597097</speed>
  <fix>3d</fix>
</trkpt>
<trkpt lat="-27.2744322" lon="151.290065">
  <ele>350.61</ele>
  <time>2026-09-01T19:58:53Z</time>
  <course>10.76</course>
  <speed>0.13152946437965907</speed>
  <fix>3d</fix>
</trkpt>
<trkpt lat="-27.2744326" lon="151.290065">
  <ele>349.84</ele>
  <time>2026-09-01T19:58:53Z</time>
  <course>11.44</course>
  <speed>0.25</speed>
  <fix>3d</fix>
</trkpt>
<trkpt lat="-27.2744322" lon="151.290065">
  <ele>350.62</ele>
  <time>2026-09-01T19:58:53Z</time>
  <course>10.76</course>
  <speed>0.13152946437965907</speed>
  <fix>3d</fix>
</trkpt>
<trkpt lat="-27.2744321" lon="151.290065">
  <ele>350.85</ele>
  <time>2026-09-01T19:58:53Z</time>
  <course>10.78</course>
  <speed>0.1004987562112089</speed>
  <fix>3d</fix>
</trkpt>
<trkpt lat="-27.2744322" lon="151.2900651">
  <ele>350.33</ele>
  <time>2026-09-01T19:58:53Z</time>
  <course>13.72</course>
  <speed>0.18</speed>
  <fix>3d</fix>
</trkpt>
<trkpt lat="-27.2744321" lon="151.290065">
  <ele>350.91</ele>
  <time>2026-09-01T19:58:53Z</time>
  <course>10.78</course>
  <speed>0.09055385138137417</speed>
  <fix>3d</fix>
</trkpt>
<trkpt lat="-27.274432" lon="151.2900651">
  <ele>351.08</ele>
  <time>2026-09-01T19:58:53Z</time>
  <course>10.79</course>
  <speed>0.06082762530298219</speed>
  <fix>3d</fix>
</trkpt>
<trkpt lat="-27.2744322" lon="151.2900651">
  <ele>350.33</ele>
  <time>2026-09-01T19:58:53Z</time>
  <course>13.72</course>
  <speed>0.18</speed>
  <fix>3d</fix>
</trkpt>
<trkpt lat="-27.274432" lon="151.2900651">
  <ele>351.15</ele>
  <time>2026-09-01T19:58:53Z</time>
  <course>10.8</course>
  <speed>0.06082762530298219</speed>
  <fix>3d</fix>
</trkpt>
<trkpt lat="-27.274432" lon="151.2900651">
  <ele>351.32</ele>
  <time>2026-09-01T19:58:53Z</time>
  <course>10.81</course>
  <speed>0.03</speed>
  <fix>3d</fix>
</trkpt>
<trkpt lat="-27.274432" lon="151.2900651">
  <ele>350.8</ele>
  <time>2026-09-01T19:58:53Z</time>
  <course>18.44</course>
  <speed>0.11</speed>
  <fix>3d</fix>
</trkpt>
<trkpt lat="-27.2744319" lon="151.2900651">
  <ele>351.38</ele>
  <time>2026-09-01T19:58:53Z</time>
  <course>10.82</course>
  <speed>0.02</speed>
  <fix>3d</fix>
</trkpt>
<trkpt lat="-27.2744319" lon="151.2900651">
  <ele>351.56</ele>
  <time>2026-09-01T19:58:53Z</time>
  <course>10.84</course>
  <speed>0.0</speed>
  <fix>3d</fix>
</trkpt>
<trkpt lat="-27.274432" lon="151.2900651">
  <ele>350.8</ele>
  <time>2026-09-01T19:58:53Z</time>
  <course>18.44</course>
  <speed>0.11</speed>
  <fix>3d</fix>
</trkpt>
<trkpt lat="-27.2744319" lon="151.2900651">
  <ele>351.62</ele>
  <time>2026-09-01T19:58:53Z</time>
  <course>10.84</course>
  <speed>0.0</speed>
  <fix>3d</fix>
</trkpt>
<trkpt lat="-27.2744319" lon="151.2900651">
  <ele>351.79</ele>
  <time>2026-09-01T19:58:53Z</time>
  <course>10.86</course>
  <speed>0.02</speed>
  <fix>3d</fix>
</trkpt>
<trkpt lat="-27.2744318" lon="151.2900652">
  <ele>351.27</ele>
  <time>2026-09-01T19:58:53Z</time>
  <course>34.7</course>
  <speed>0.04</speed>
  <fix>3d</fix>
</trkpt>
<trkpt lat="-27.2744319" lon="151.2900651">
  <ele>351.86</ele>
  <time>2026-09-01T19:58:53Z</time>
  <course>10.87</course>
  <speed>0.02</speed>
  <fix>3d</fix>
</trkpt>
<trkpt lat="-27.2744319" lon="151.2900651">
  <ele>352.03</ele>
  <time>2026-09-01T19:58:54Z</time>
  <course>10.9</course>
  <speed>0.04</speed>
  <fix>3d</fix>
</trkpt>
<trkpt lat="-27.2744318" lon="151.2900652">
  <ele>351.27</ele>
  <time>2026-09-01T19:58:54Z</time>
  <course>34.7</course>
  <speed>0.04</speed>
  <fix>3d</fix>
</trkpt>
<trkpt lat="-27.2744319" lon="151.2900651">
  <ele>352.04</ele>
  <time>2026-09-01T19:58:54Z</time>
  <course>10.9</course>
  <speed>0.04</speed>
  <fix>3d</fix>
</trkpt>
<trkpt lat="-27.274432" lon="151.2900651">
  <ele>352.27</ele>
  <time>2026-09-01T19:58:54Z</time>
  <course>10.93</course>
  <speed>0.07071067811865475</speed>
  <fix>3d</fix>
</trkpt>
<trkpt lat="-27.2744318" lon="151.2900652">
  <ele>351.74</ele>
  <time>2026-09-01T19:58:54Z</time>
  <course>140.4</course>
  <speed>0.02</speed>
  <fix>3d</fix>
</trkpt>
<trkpt lat="-27.274432" lon="151.2900651">
  <ele>352.28</ele>
  <time>2026-09-01T19:58:54Z</time>
  <course>10.94</course>
  <speed>0.07071067811865475</speed>
  <fix>3d</fix>
</trkpt>
<trkpt lat="-27.2744321" lon="151.2900651">
  <ele>352.51</ele>
  <time>2026-09-01T19:58:54Z</time>
  <course>10.98</course>
  <speed>0.09055385138137417</speed>
  <fix>3d</fix>
</trkpt>
<trkpt lat="-27.2744318" lon="151.2900652">
  <ele>351.74</ele>
  <time>2026-09-01T19:58:54Z</time>
  <course>140.4</course>
  <speed>0.02</speed>
  <fix>3d</fix>
</trkpt>
<trkpt lat="-27.2744321" lon="151.2900651">
  <ele>352.58</ele>
  <time>2026-09-01T19:58:54Z</time>
  <course>10.99</course>
  <speed>0.09055385138137417</speed>
  <fix>3d</fix>
</trkpt>
<trkpt lat="-27.2744321" lon="151.2900651">
  <ele>352.75</ele>
  <time>2026-09-01T19:58:54Z</time>
  <course>11.02</course>
  <speed>0.1118033988749895</speed>
  <fix>3d</fix>
</trkpt>
<trkpt lat="-27.2744319" lon="151.2900652">
  <ele>352.22</ele>
  <time>2026-09-01T19:58:54Z</time>
  <course>173.79</course>
  <speed>0.07</speed>
  <fix>3d</fix>
</trkpt>
<trkpt lat="-27.2744321" lon="151.2900651">
  <ele>352.81</ele>
  <time>2026-09-01T19:58:54Z</time>
  <course>11.03</course>
  <speed>0.1118033988749895</speed>
  <fix>3d</fix>
</trkpt>
<trkpt lat="-27.2744321" lon="151.2900651">
  <ele>352.99</ele>
  <time>2026-09-01T19:58:54Z</time>
  <course>11.06</course>
  <speed>0.12165525060596438</speed>
  <fix>3d</fix>
</trkpt>
<trkpt lat="-27.2744319" lon="151.2900652">
  <ele>352.22</ele>
  <time>2026-09-01T19:58:54Z</time>
  <course>173.79</course>
  <speed>0.07</speed>
  <fix>3d</fix>
</trkpt>
<trkpt lat="-27.2744322" lon="151.2900651">
  <ele>353.05</ele>
  <time>2026-09-01T19:58:54Z</time>
  <course>11.07</course>
  <speed>0.13152946437965907</speed>
  <fix>3d</fix>
</trkpt>
<trkpt lat="-27.2744323" lon="151.2900651">
  <ele>353.24</ele>
  <time>2026-09-01T19:58:54Z</time>
  <course>11.1</course>
  <speed>0.1414213562373095</speed>
  <fix>3d</fix>
</trkpt>
<trkpt lat="-27.274432" lon="151.2900652">
  <ele>352.7</ele>
  <time>2026-09-01T19:58:54Z</time>
  <course>181.07</course>
  <speed>0.11</speed>
  <fix>3d</fix>
</trkpt>
<trkpt lat="-27.2744323" lon="151.2900651">
  <ele>353.29</ele>
  <time>2026-09-01T19:58:54Z</time>
  <course>11.1</course>
  <speed>0.1414213562373095</speed>
  <fix>3d</fix>
</trkpt>
<trkpt lat="-27.2744324" lon="151.2900652">
  <ele>353.48</ele>
  <time>2026-09-01T19:58:54Z</time>
  <course>11.12</course>
  <speed>0.15297058540778355</speed>
  <fix>3d</fix>
</trkpt>
<trkpt lat="-27.274432" lon="151.2900652">
  <ele>352.7</ele>
  <time>2026-09-01T19:58:54Z</time>
  <course>181.07</course>
  <speed>0.11</speed>
  <fix>3d</fix>
</trkpt>
<trkpt lat="-27.2744324" lon="151.2900652">
  <ele>353.53</ele>
  <time>2026-09-01T19:58:54Z</time>
  <course>11.13</course>
  <speed>0.15297058540778355</speed>
  <fix>3d</fix>
</trkpt>
<trkpt lat="-27.2744325" lon="151.2900652">
  <ele>353.73</ele>
  <time>2026-09-01T19:58:54Z</time>
  <course>11.14</course>
  <speed>0.16278820596099705</speed>
  <fix>3d</fix>
</trkpt>
<trkpt lat="-27.2744322" lon="151.2900652">
  <ele>353.18</ele>
  <time>2026-09-01T19:58:54Z</time>
  <course>184.36</course>
  <speed>0.15</speed>
  <fix>3d</fix>
</trkpt>
<trkpt lat="-27.2744326" lon="151.2900652">
  <ele>353.79</ele>
  <time>2026-09-01T19:58:54Z</time>
  <course>11.14</course>
  <speed>0.1649242250247064</speed>
  <fix>3d</fix>
</trkpt>
<trkpt lat="-27.2744327" lon="151.2900651">
  <ele>353.97</ele>
  <time>2026-09-01T19:58:54Z</time>
  <course>11.13</course>
  <speed>0.1711724276862369</speed>
  <fix>3d</fix>
</trkpt>
<trkpt lat="-27.2744322" lon="151.2900652">
  <ele>353.18</ele>
  <time>2026-09-01T19:58:54Z</time>
  <course>184.36</course>
  <speed>0.15</speed>
  <fix>3d</fix>
</trkpt>
<trkpt lat="-27.2744327" lon="151.2900651">
  <ele>354.03</ele>
  <time>2026-09-01T19:58:54Z</time>
  <course>11.12</course>
  <speed>0.17262676501632068</speed>
  <fix>3d</fix>
</trkpt>
<trkpt lat="-27.2744328" lon="151.2900651">
  <ele>354.22</ele>
  <time>2026-09-01T19:58:54Z</time>
  <course>11.07</course>
  <speed>0.18110770276274835</speed>
  <fix>3d</fix>
</trkpt>
<trkpt lat="-27.2744325" lon="151.2900652">
  <ele>353.68</ele>
  <time>2026-09-01T19:58:54Z</time>
  <course>185.98</course>
  <speed>0.17</speed>
  <fix>3d</fix>
</trkpt>
<trkpt lat="-27.2744329" lon="151.2900651">
  <ele>354.28</ele>
  <time>2026-09-01T19:58:54Z</time>
  <course>11.06</course>
  <speed>0.18027756377319945</speed>
  <fix>3d</fix>
</trkpt>
<trkpt lat="-27.274433" lon="151.2900651">
  <ele>354.47</ele>
  <time>2026-09-01T19:58:54Z</time>
  <course>11.01</course>
  <speed>0.19235384061671343</speed>
  <fix>3d</fix>
</trkpt>
<trkpt lat="-27.2744325" lon="151.2900652">
  <ele>353.68</ele>
  <time>2026-09-01T19:58:54Z</time>
  <course>185.98</course>
  <speed>0.17</speed>
  <fix>3d</fix>
</trkpt>
<trkpt lat="-27.274433" lon="151.2900651">
  <ele>354.53</ele>
  <time>2026-09-01T19:58:54Z</time>
  <course>10.99</course>
  <speed>0.191049731745428</speed>
  <fix>3d</fix>
</trkpt>
<trkpt lat="-27.2744332" lon="151.2900651">
  <ele>354.72</ele>
  <time>2026-09-01T19:58:54Z</time>
  <course>10.96</course>
  <speed>0.191049731745428</speed>
  <fix>3d</fix>
</trkpt>
<trkpt lat="-27.2744329" lon="151.2900652">
  <ele>354.18</ele>
  <time>2026-09-01T19:58:54Z</time>
  <course>186.5</course>
  <speed>0.19</speed>
  <fix>3d</fix>
</trkpt>
<trkpt lat="-27.2744332" lon="151.2900651">
  <ele>354.73</ele>
  <time>2026-09-01T19:58:54Z</time>
  <course>10.96</course>
  <speed>0.191049731745428</speed>
  <fix>3d</fix>
</trkpt>
<trkpt lat="-27.2744333" lon="151.2900651">
  <ele>354.98</ele>
  <time>2026-09-01T19:58:54Z</time>
  <course>10.92</course>
  <speed>0.2002498439450079</speed>
  <fix>3d</fix>
</trkpt>
<trkpt lat="-27.2744329" lon="151.2900652">
  <ele>354.18</ele>
  <time>2026-09-01T19:58:54Z</time>
  <course>186.5</course>
  <speed>0.19</speed>
  <fix>3d</fix>
</trkpt>
<trkpt lat="-27.2744333" lon="151.2900651">
  <ele>354.98</ele>
  <time>2026-09-01T19:58:54Z</time>
  <course>10.92</course>
  <speed>0.2002498439450079</speed>
  <fix>3d</fix>
</trkpt>
<trkpt lat="-27.2744335" lon="151.2900651">
  <ele>355.23</ele>
  <time>2026-09-01T19:58:54Z</time>
  <course>10.9</course>
  <speed>0.2009975124224178</speed>
  <fix>3d</fix>
</trkpt>
<trkpt lat="-27.2744332" lon="151.2900652">
  <ele>354.68</ele>
  <time>2026-09-01T19:58:54Z</time>
  <course>186.72</course>
  <speed>0.2</speed>
  <fix>3d</fix>
</trkpt>
<trkpt lat="-27.2744335" lon="151.2900651">
  <ele>355.24</ele>
  <time>2026-09-01T19:58:54Z</time>
  <course>10.9</course>
  <speed>0.2009975124224178</speed>
  <fix>3d</fix>
</trkpt>
<trkpt lat="-27.2744337" lon="151.2900651">
  <ele>355.49</ele>
  <time>2026-09-01T19:58:54Z</time>
  <course>10.88</course>
  <speed>0.2</speed>
  <fix>3d</fix>
</trkpt>
<trkpt lat="-27.2744332" lon="151.2900652">
  <ele>354.68</ele>
  <time>2026-09-01T19:58:54Z</time>
  <course>186.72</course>
  <speed>0.2</speed>
  <fix>3d</fix>
</trkpt>
<trkpt lat="-27.2744338" lon="151.2900651">
  <ele>355.55</ele>
  <time>2026-09-01T19:58:54Z</time>
  <course>10.87</course>
  <speed>0.2002498439450079</speed>
  <fix>3d</fix>
</trkpt>
<trkpt lat="-27.2744339" lon="151.2900651">
  <ele>355.74</ele>
  <time>2026-09-01T19:58:54Z</time>
  <course>10.84</course>
  <speed>0.2002498439450079</speed>
  <fix>3d</fix>
</trkpt>
<trkpt lat="-27.2744336" lon="151.2900652">
  <ele>355.18</ele>
  <time>2026-09-01T19:58:54Z</time>
  <course>187.33</course>
  <speed>0.21</speed>
  <fix>3d</fix>
</trkpt>
<trkpt lat="-27.2744339" lon="151.2900651">
  <ele>355.8</ele>
  <time>2026-09-01T19:58:54Z</time>
  <course>10.84</course>
  <speed>0.2002498439450079</speed>
  <fix>3d</fix>
</trkpt>
<trkpt lat="-27.2744341" lon="151.2900651">
  <ele>356.0</ele>
  <time>2026-09-01T19:58:54Z</time>
  <course>10.81</course>
  <speed>0.2039607805437114</speed>
  <fix>3d</fix>
</trkpt>
<trkpt lat="-27.2744336" lon="151.2900652">
  <ele>355.18</ele>
  <time>2026-09-01T19:58:54Z</time>
  <course>187.33</course>
  <speed>0.21</speed>
  <fix>3d</fix>
</trkpt>
<trkpt lat="-27.2744341" lon="151.290065">
  <ele>356.06</ele>
  <time>2026-09-01T19:58:54Z</time>
  <course>10.8</course>
  <speed>0.20615528128088303</speed>
  <fix>3d</fix>
</trkpt>
<trkpt lat="-27.2744343" lon="151.290065">
  <ele>356.25</ele>
  <time>2026-09-01T19:58:54Z</time>
  <course>10.75</course>
  <speed>0.20615528128088303</speed>
  <fix>3d</fix>
</trkpt>
<trkpt lat="-27.274434" lon="151.2900651">
  <ele>355.69</ele>
  <time>2026-09-01T19:58:54Z</time>
  <course>187.88</course>
  <speed>0.21</speed>
  <fix>3d</fix>
</trkpt>
<trkpt lat="-27.2744343" lon="151.290065">
  <ele>356.34</ele>
  <time>2026-09-01T19:58:54Z</time>
  <course>10.72</course>
  <speed>0.2039607805437114</speed>
  <fix>3d</fix>
</trkpt>
<trkpt lat="-27.2744345" lon="151.290065">
  <ele>356.51</ele>
  <time>2026-09-01T19:58:54Z</time>
  <course>10.67</course>
  <speed>0.2039607805437114</speed>
  <fix>3d</fix>
</trkpt>
<trkpt lat="-27.274434" lon="151.2900651">
  <ele>355.69</ele>
  <time>2026-09-01T19:58:54Z</time>
  <course>187.88</course>
  <speed>0.21</speed>
  <fix>3d</fix>
</trkpt>
<trkpt lat="-27.2744345" lon="151.290065">
  <ele>356.57</ele>
  <time>2026-09-01T19:58:54Z</time>
  <course>10.65</course>
  <speed>0.20223748416156684</speed>
  <fix>3d</fix>
</trkpt>
<trkpt lat="-27.2744346" lon="151.290065">
  <ele>356.76</ele>
  <time>2026-09-01T19:58:54Z</time>
  <course>10.61</course>
  <speed>0.2009975124224178</speed>
  <fix>3d</fix>
</trkpt>
<trkpt lat="-27.2744343" lon="151.2900651">
  <ele>356.19</ele>
  <time>2026-09-01T19:58:54Z</time>
  <course>187.51</course>
  <speed>0.21</speed>
  <fix>3d</fix>
</trkpt>
<trkpt lat="-27.2744346" lon="151.290065">
  <ele>356.77</ele>
  <time>2026-09-01T19:58:54Z</time>
  <course>10.61</course>
  <speed>0.2009975124224178</speed>
  <fix>3d</fix>
</trkpt>
<trkpt lat="-27.2744348" lon="151.2900649">
  <ele>357.01</ele>
  <time>2026-09-01T19:58:54Z</time>
  <course>10.62</course>
  <speed>0.2009975124224178</speed>
  <fix>3d</fix>
</trkpt>
<trkpt lat="-27.2744343" lon="151.2900651">
  <ele>356.19</ele>
  <time>2026-09-01T19:58:54Z</time>
  <course>187.51</course>
  <speed>0.21</speed>
  <fix>3d</fix>
</trkpt>
<trkpt lat="-27.2744348" lon="151.2900649">
  <ele>357.03</ele>
  <time>2026-09-01T19:58:54Z</time>
  <course>10.63</course>
  <speed>0.2009975124224178</speed>
  <fix>3d</fix>
</trkpt>
<trkpt lat="-27.274435" lon="151.2900649">
  <ele>357.26</ele>
  <time>2026-09-01T19:58:54Z</time>
  <course>10.67</course>
  <speed>0.20223748416156684</speed>
  <fix>3d</fix>
</trkpt>
<trkpt lat="-27.2744348" lon="151.290065">
  <ele>356.7</ele>
  <time>2026-09-01T19:58:54Z</time>
  <course>187.38</course>
  <speed>0.21</speed>
  <fix>3d</fix>
</trkpt>
<trkpt lat="-27.274435" lon="151.2900649">
  <ele>357.27</ele>
  <time>2026-09-01T19:58:54Z</time>
  <course>10.68</course>
  <speed>0.20223748416156684</speed>
  <fix>3d</fix>
</trkpt>
<trkpt lat="-27.2744352" lon="151.2900649">
  <ele>357.51</ele>
  <time>2026-09-01T19:58:54Z</time>
  <course>10.71</course>
  <speed>0.2009975124224178</speed>
  <fix>3d</fix>
</trkpt>
<trkpt lat="-27.2744348" lon="151.290065">
  <ele>356.7</ele>
  <time>2026-09-01T19:58:54Z</time>
  <course>187.38</course>
  <speed>0.21</speed>
  <fix>3d</fix>
</trkpt>
<trkpt lat="-27.2744352" lon="151.2900649">
  <ele>357.52</ele>
  <time>2026-09-01T19:58:54Z</time>
  <course>10.71</course>
  <speed>0.2009975124224178</speed>
  <fix>3d</fix>
</trkpt>
<trkpt lat="-27.2744354" lon="151.2900649">
  <ele>357.76</ele>
  <time>2026-09-01T19:58:54Z</time>
  <course>10.74</course>
  <speed>0.196468827043885</speed>
  <fix>3d</fix>
</trkpt>
<trkpt lat="-27.2744352" lon="151.290065">
  <ele>357.2</ele>
  <time>2026-09-01T19:58:54Z</time>
  <course>187.86</course>
  <speed>0.21</speed>
  <fix>3d</fix>
</trkpt>
<trkpt lat="-27.2744354" lon="151.2900649">
  <ele>357.77</ele>
  <time>2026-09-01T19:58:54Z</time>
  <course>10.74</course>
  <speed>0.196468827043885</speed>
  <fix>3d</fix>
</trkpt>
<trkpt lat="-27.2744356" lon="151.2900648">
  <ele>358.02</ele>
  <time>2026-09-01T19:58:54Z</time>
  <course>10.73</course>
  <speed>0.19924858845171275</speed>
  <fix>3d</fix>
</trkpt>
<trkpt lat="-27.2744352" lon="151.290065">
  <ele>357.2</ele>
  <time>2026-09-01T19:58:54Z</time>
  <course>187.86</course>
  <speed>0.21</speed>
  <fix>3d</fix>
</trkpt>
<trkpt lat="-27.2744356" lon="151.2900648">
  <ele>358.07</ele>
  <time>2026-09-01T19:58:54Z</time>
  <course>10.71</course>
  <speed>0.19924858845171275</speed>
  <fix>3d</fix>
</trkpt>
<trkpt lat="-27.2744358" lon="151.2900648">
  <ele>358.27</ele>
  <time>2026-09-01T19:58:54Z</time>
  <course>10.67</course>
  <speed>0.19235384061671343</speed>
  <fix>3d</fix>
</trkpt>
<trkpt lat="-27.2744355" lon="151.2900649">
  <ele>357.7</ele>
  <time>2026-09-01T19:58:54Z</time>
  <course>187.58</course>
  <speed>0.21</speed>
  <fix>3d</fix>
</trkpt>
<trkpt lat="-27.2744358" lon="151.2900648">
  <ele>358.33</ele>
  <time>2026-09-01T19:58:54Z</time>
  <course>10.67</course>
  <speed>0.194164878389476</speed>
  <fix>3d</fix>
</trkpt>
<trkpt lat="-27.2744359" lon="151.2900648">
  <ele>358.52</ele>
  <time>2026-09-01T19:58:54Z</time>
  <course>10.67</course>
  <speed>0.194164878389476</speed>
  <fix>3d</fix>
</trkpt>
<trkpt lat="-27.2744355" lon="151.2900649">
  <ele>357.7</ele>
  <time>2026-09-01T19:58:54Z</time>
  <course>187.58</course>
  <speed>0.21</speed>
  <fix>3d</fix>
</trkpt>
<trkpt lat="-27.274436" lon="151.2900647">
  <ele>358.59</ele>
  <time>2026-09-01T19:58:54Z</time>
  <course>10.67</course>
  <speed>0.194164878389476</speed>
  <fix>3d</fix>
</trkpt>
<trkpt lat="-27.2744361" lon="151.2900647">
  <ele>358.77</ele>
  <time>2026-09-01T19:58:54Z</time>
  <course>10.7</course>
  <speed>0.18439088914585774</speed>
  <fix>3d</fix>
</trkpt>
<trkpt lat="-27.2744359" lon="151.2900649">
  <ele>358.21</ele>
  <time>2026-09-01T19:58:54Z</time>
  <course>187.0</course>
  <speed>0.2</speed>
  <fix>3d</fix>
</trkpt>
<trkpt lat="-27.2744362" lon="151.2900647">
  <ele>358.84</ele>
  <time>2026-09-01T19:58:54Z</time>
  <course>10.72</course>
  <speed>0.1824828759089466</speed>
  <fix>3d</fix>
</trkpt>
<trkpt lat="-27.2744363" lon="151.2900647">
  <ele>359.02</ele>
  <time>2026-09-01T19:58:54Z</time>
  <course>10.75</course>
  <speed>0.1824828759089466</speed>
  <fix>3d</fix>
</trkpt>
<trkpt lat="-27.2744359" lon="151.2900649">
  <ele>358.21</ele>
  <time>2026-09-01T19:58:54Z</time>
  <course>187.0</course>
  <speed>0.2</speed>
  <fix>3d</fix>
</trkpt>
<trkpt lat="-27.2744363" lon="151.2900647">
  <ele>359.09</ele>
  <time>2026-09-01T19:58:54Z</time>
  <course>10.76</course>
  <speed>0.18439088914585774</speed>
  <fix>3d</fix>
</trkpt>
<trkpt lat="-27.2744365" lon="151.2900647">
  <ele>359.27</ele>
  <time>2026-09-01T19:58:54Z</time>
  <course>10.8</course>
  <speed>0.1824828759089466</speed>
  <fix>3d</fix>
</trkpt>
<trkpt lat="-27.2744363" lon="151.2900648">
  <ele>358.71</ele>
  <time>2026-09-01T19:58:54Z</time>
  <course>187.22</course>
  <speed>0.19</speed>
  <fix>3d</fix>
</trkpt>
<trkpt lat="-27.2744365" lon="151.2900647">
  <ele>359.34</ele>
  <time>2026-09-01T19:58:54Z</time>
  <course>10.8</course>
  <speed>0.18110770276274835</speed>
  <fix>3d</fix>
</trkpt>
<trkpt lat="-27.2744366" lon="151.2900647">
  <ele>359.52</ele>
  <time>2026-09-01T19:58:54Z</time>
  <course>10.81</course>
  <speed>0.18</speed>
  <fix>3d</fix>
</trkpt>
<trkpt lat="-27.2744363" lon="151.2900648">
  <ele>358.71</ele>
  <time>2026-09-01T19:58:54Z</time>
  <course>187.22</course>
  <speed>0.19</speed>
  <fix>3d</fix>
</trkpt>
<trkpt lat="-27.2744367" lon="151.2900647">
  <ele>359.58</ele>
  <time>2026-09-01T19:58:54Z</time>
  <course>10.82</course>
  <speed>0.18027756377319945</speed>
  <fix>3d</fix>
</trkpt>
<trkpt lat="-27.2744368" lon="151.2900647">
  <ele>359.77</ele>
  <time>2026-09-01T19:58:54Z</time>
  <course>10.84</course>
  <speed>0.18</speed>
  <fix>3d</fix>
</trkpt>
<trkpt lat="-27.2744366" lon="151.2900647">
  <ele>359.2</ele>
  <time>2026-09-01T19:58:54Z</time>
  <course>187.7</course>
  <speed>0.19</speed>
  <fix>3d</fix>
</trkpt>
<trkpt lat="-27.2744369" lon="151.2900647">
  <ele>359.84</ele>
  <time>2026-09-01T19:58:54Z</time>
  <course>10.84</course>
  <speed>0.18</speed>
  <fix>3d</fix>
</trkpt>
<trkpt lat="-27.274437" lon="151.2900647">
  <ele>360.02</ele>
  <time>2026-09-01T19:58:54Z</time>
  <course>10.84</course>
  <speed>0.17</speed>
  <fix>3d</fix>
</trkpt>
<trkpt lat="-27.2744366" lon="151.2900647">
  <ele>359.2</ele>
  <time>2026-09-01T19:58:54Z</time>
  <course>187.7</course>
  <speed>0.19</speed>
  <fix>3d</fix>
</trkpt>
<trkpt lat="-27.274437" lon="151.2900647">
  <ele>360.09</ele>
  <time>2026-09-01T19:58:54Z</time>
  <course>10.84</course>
  <speed>0.17029386365926402</speed>
  <fix>3d</fix>
</trkpt>
<trkpt lat="-27.2744371" lon="151.2900647">
  <ele>360.27</ele>
  <time>2026-09-01T19:58:54Z</time>
  <course>10.79</course>
  <speed>0.16124515496597097</speed>
  <fix>3d</fix>
</trkpt>
<trkpt lat="-27.2744369" lon="151.2900647">
  <ele>359.7</ele>
  <time>2026-09-01T19:58:54Z</time>
  <course>188.9</course>
  <speed>0.18</speed>
  <fix>3d</fix>
</trkpt>
<trkpt lat="-27.2744372" lon="151.2900647">
  <ele>360.28</ele>
  <time>2026-09-01T19:58:54Z</time>
  <course>10.79</course>
  <speed>0.16124515496597097</speed>
  <fix>3d</fix>
</trkpt>
<trkpt lat="-27.2744373" lon="151.2900647">
  <ele>360.52</ele>
  <time>2026-09-01T19:58:54Z</time>
  <course>10.69</course>
  <speed>0.16278820596099705</speed>
  <fix>3d</fix>
</trkpt>
<trkpt lat="-27.2744369" lon="151.2900647">
  <ele>359.7</ele>
  <time>2026-09-01T19:58:54Z</time>
  <course>188.9</course>
  <speed>0.18</speed>
  <fix>3d</fix>
</trkpt>
<trkpt lat="-27.2744373" lon="151.2900647">
  <ele>360.53</ele>
  <time>2026-09-01T19:58:54Z</time>
  <course>10.68</course>
  <speed>0.16278820596099705</speed>
  <fix>3d</fix>
</trkpt>
<trkpt lat="-27.2744374" lon="151.2900646">
  <ele>360.77</ele>
  <time>2026-09-01T19:58:54Z</time>
  <course>10.55</course>
  <speed>0.15297058540778355</speed>
  <fix>3d</fix>
</trkpt>
<trkpt lat="-27.2744372" lon="151.2900646">
  <ele>360.2</ele>
  <time>2026-09-01T19:58:54Z</time>
  <course>189.96</course>
  <speed>0.17</speed>
  <fix>3d</fix>
</trkpt>
<trkpt lat="-27.2744375" lon="151.2900646">
  <ele>360.84</ele>
  <time>2026-09-01T19:58:54Z</time>
  <course>10.51</course>
  <speed>0.15132745950421556</speed>
  <fix>3d</fix>
</trkpt>
<trkpt lat="-27.2744376" lon="151.2900646">
  <ele>361.02</ele>
  <time>2026-09-01T19:58:54Z</time>
  <course>10.43</course>
  <speed>0.15132745950421556</speed>
  <fix>3d</fix>
</trkpt>
<trkpt lat="-27.2744372" lon="151.2900646">
  <ele>360.2</ele>
  <time>2026-09-01T19:58:54Z</time>
  <course>189.96</course>
  <speed>0.17</speed>
  <fix>3d</fix>
</trkpt>
<trkpt lat="-27.2744376" lon="151.2900646">
  <ele>361.08</ele>
  <time>2026-09-01T19:58:54Z</time>
  <course>10.4</course>
  <speed>0.15033296378372907</speed>
  <fix>3d</fix>
</trkpt>
<trkpt lat="-27.2744377" lon="151.2900646">
  <ele>361.27</ele>
  <time>2026-09-01T19:58:54Z</time>
  <course>10.36</course>
  <speed>0.15033296378372907</speed>
  <fix>3d</fix>
</trkpt>
<trkpt lat="-27.2744375" lon="151.2900646">
  <ele>360.7</ele>
  <time>2026-09-01T19:58:54Z</time>
  <course>189.31</course>
  <speed>0.15</speed>
  <fix>3d</fix>
</trkpt>
<trkpt lat="-27.2744377" lon="151.2900646">
  <ele>361.28</ele>
  <time>2026-09-01T19:58:54Z</time>
  <course>10.36</course>
  <speed>0.15</speed>
  <fix>3d</fix>
</trkpt>
<trkpt lat="-27.2744379" lon="151.2900646">
  <ele>361.51</ele>
  <time>2026-09-01T19:58:54Z</time>
  <course>10.39</course>
  <speed>0.14</speed>
  <fix>3d</fix>
</trkpt>
<trkpt lat="-27.2744375" lon="151.2900646">
  <ele>360.7</ele>
  <time>2026-09-01T19:58:54Z</time>
  <course>189.31</course>
  <speed>0.15</speed>
  <fix>3d</fix>
</trkpt>
<trkpt lat="-27.2744379" lon="151.2900646">
  <ele>361.57</ele>
  <time>2026-09-01T19:58:54Z</time>
  <course>10.4</course>
  <speed>0.14</speed>
  <fix>3d</fix>
</trkpt>
<trkpt lat="-27.274438" lon="151.2900646">
  <ele>361.76</ele>
  <time>2026-09-01T19:58:54Z</time>
  <course>10.43</course>
  <speed>0.14</speed>
  <fix>3d</fix>
</trkpt>
<trkpt lat="-27.2744378" lon="151.2900646">
  <ele>361.19</ele>
  <time>2026-09-01T19:58:54Z</time>
  <course>189.73</course>
  <speed>0.14</speed>
  <fix>3d</fix>
</trkpt>
<trkpt lat="-27.274438" lon="151.2900646">
  <ele>361.83</ele>
  <time>2026-09-01T19:58:54Z</time>
  <course>10.43</course>
  <speed>0.13</speed>
  <fix>3d</fix>
</trkpt>
<trkpt lat="-27.2744381" lon="151.2900646">
  <ele>362.01</ele>
  <time>2026-09-01T19:58:54Z</time>
  <course>10.44</course>
  <speed>0.13</speed>
  <fix>3d</fix>
</trkpt>
<trkpt lat="-27.2744378" lon="151.2900646">
  <ele>361.19</ele>
  <time>2026-09-01T19:58:54Z</time>
  <course>189.73</course>
  <speed>0.14</speed>
  <fix>3d</fix>
</trkpt>
<trkpt lat="-27.2744381" lon="151.2900646">
  <ele>362.07</ele>
  <time>2026-09-01T19:58:54Z</time>
  <course>10.43</course>
  <speed>0.13</speed>
  <fix>3d</fix>
</trkpt>
<trkpt lat="-27.2744382" lon="151.2900646">
  <ele>362.26</ele>
  <time>2026-09-01T19:58:54Z</time>
  <course>10.42</course>
  <speed>0.13</speed>
  <fix>3d</fix>
</trkpt>
<trkpt lat="-27.2744381" lon="151.2900645">
  <ele>361.69</ele>
  <time>2026-09-01T19:58:54Z</time>
  <course>191.15</course>
  <speed>0.13</speed>
  <fix>3d</fix>
</trkpt>
<trkpt lat="-27.2744383" lon="151.2900646">
  <ele>362.33</ele>
  <time>2026-09-01T19:58:54Z</time>
  <course>10.42</course>
  <speed>0.12</speed>
  <fix>3d</fix>
</trkpt>
<trkpt lat="-27.2744383" lon="151.2900646">
  <ele>362.51</ele>
  <time>2026-09-01T19:58:54Z</time>
  <course>10.4</course>
  <speed>0.12</speed>
  <fix>3d</fix>
</trkpt>
<trkpt lat="-27.2744381" lon="151.2900645">
  <ele>361.69</ele>
  <time>2026-09-01T19:58:54Z</time>
  <course>191.15</course>
  <speed>0.13</speed>
  <fix>3d</fix>
</trkpt>
<trkpt lat="-27.2744384" lon="151.2900646">
  <ele>362.58</ele>
  <time>2026-09-01T19:58:54Z</time>
  <course>10.4</course>
  <speed>0.12</speed>
  <fix>3d</fix>
</trkpt>
<trkpt lat="-27.2744384" lon="151.2900645">
  <ele>362.76</ele>
  <time>2026-09-01T19:58:54Z</time>
  <course>10.39</course>
  <speed>0.11</speed>
  <fix>3d</fix>
</trkpt>
<trkpt lat="-27.2744383" lon="151.2900644">
  <ele>362.19</ele>
  <time>2026-09-01T19:58:54Z</time>
  <course>192.15</course>
  <speed>0.12</speed>
  <fix>3d</fix>
</trkpt>
<trkpt lat="-27.2744385" lon="151.2900645">
  <ele>362.77</ele>
  <time>2026-09-01T19:58:54Z</time>
  <course>10.39</course>
  <speed>0.11</speed>
  <fix>3d</fix>
</trkpt>
<trkpt lat="-27.2744386" lon="151.2900645">
  <ele>363.01</ele>
  <time>2026-09-01T19:58:54Z</time>
  <course>10.37</course>
  <speed>0.11</speed>
  <fix>3d</fix>
</trkpt>
<trkpt lat="-27.2744383" lon="151.2900644">
  <ele>362.19</ele>
  <time>2026-09-01T19:58:54Z</time>
  <course>192.15</course>
  <speed>0.12</speed>
  <fix>3d</fix>
</trkpt>
<trkpt lat="-27.2744386" lon="151.2900645">
  <ele>363.02</ele>
  <time>2026-09-01T19:58:54Z</time>
  <course>10.37</course>
  <speed>0.11</speed>
  <fix>3d</fix>
</trkpt>
<trkpt lat="-27.2744386" lon="151.2900645">
  <ele>363.26</ele>
  <time>2026-09-01T19:58:54Z</time>
  <course>10.35</course>
  <speed>0.1</speed>
  <fix>3d</fix>
</trkpt>
<trkpt lat="-27.2744385" lon="151.2900644">
  <ele>362.69</ele>
  <time>2026-09-01T19:58:54Z</time>
  <course>193.62</course>
  <speed>0.11</speed>
  <fix>3d</fix>
</trkpt>
<trkpt lat="-27.2744387" lon="151.2900645">
  <ele>363.33</ele>
  <time>2026-09-01T19:58:54Z</time>
  <course>10.34</course>
  <speed>0.1</speed>
  <fix>3d</fix>
</trkpt>
<trkpt lat="-27.2744387" lon="151.2900645">
  <ele>363.51</ele>
  <time>2026-09-01T19:58:54Z</time>
  <course>10.33</course>
  <speed>0.1</speed>
  <fix>3d</fix>
</trkpt>
<trkpt lat="-27.2744385" lon="151.2900644">
  <ele>362.69</ele>
  <time>2026-09-01T19:58:54Z</time>
  <course>193.62</course>
  <speed>0.11</speed>
  <fix>3d</fix>
</trkpt>
<trkpt lat="-27.2744388" lon="151.2900645">
  <ele>363.57</ele>
  <time>2026-09-01T19:58:54Z</time>
  <course>10.32</course>
  <speed>0.1</speed>
  <fix>3d</fix>
</trkpt>
<trkpt lat="-27.2744388" lon="151.2900645">
  <ele>363.76</ele>
  <time>2026-09-01T19:58:54Z</time>
  <course>10.31</course>
  <speed>0.09</speed>
  <fix>3d</fix>
</trkpt>
<trkpt lat="-27.2744387" lon="151.2900643">
  <ele>363.19</ele>
  <time>2026-09-01T19:58:54Z</time>
  <course>195.17</course>
  <speed>0.1</speed>
  <fix>3d</fix>
</trkpt>
<trkpt lat="-27.2744388" lon="151.2900645">
  <ele>363.83</ele>
  <time>2026-09-01T19:58:54Z</time>
  <course>10.3</course>
  <speed>0.09</speed>
  <fix>3d</fix>
</trkpt>
<trkpt lat="-27.2744389" lon="151.2900645">
  <ele>364.01</ele>
  <time>2026-09-01T19:58:54Z</time>
  <course>10.3</course>
  <speed>0.09</speed>
  <fix>3d</fix>
</trkpt>
<trkpt lat="-27.2744387" lon="151.2900643">
  <ele>363.19</ele>
  <time>2026-09-01T19:58:54Z</time>
  <course>195.17</course>
  <speed>0.1</speed>
  <fix>3d</fix>
</trkpt>
<trkpt lat="-27.2744389" lon="151.2900644">
  <ele>364.06</ele>
  <time>2026-09-01T19:58:54Z</time>
  <course>10.3</course>
  <speed>0.09</speed>
  <fix>3d</fix>
</trkpt>
<trkpt lat="-27.274439" lon="151.2900644">
  <ele>364.26</ele>
  <time>2026-09-01T19:58:54Z</time>
  <course>10.29</course>
  <speed>0.08</speed>
  <fix>3d</fix>
</trkpt>
<trkpt lat="-27.2744389" lon="151.2900642">
  <ele>363.69</ele>
  <time>2026-09-01T19:58:54Z</time>
  <course>197.13</course>
  <speed>0.08</speed>
  <fix>3d</fix>
</trkpt>
<trkpt lat="-27.274439" lon="151.2900644">
  <ele>364.32</ele>
  <time>2026-09-01T19:58:54Z</time>
  <course>10.29</course>
  <speed>0.08</speed>
  <fix>3d</fix>
</trkpt>
<trkpt lat="-27.2744391" lon="151.2900644">
  <ele>364.51</ele>
  <time>2026-09-01T19:58:54Z</time>
  <course>10.29</course>
  <speed>0.08</speed>
  <fix>3d</fix>
</trkpt>
<trkpt lat="-27.2744389" lon="151.2900642">
  <ele>363.69</ele>
  <time>2026-09-01T19:58:54Z</time>
  <course>197.13</course>
  <speed>0.08</speed>
  <fix>3d</fix>
</trkpt>
<trkpt lat="-27.2744391" lon="151.2900644">
  <ele>364.57</ele>
  <time>2026-09-01T19:58:54Z</time>
  <course>10.29</course>
  <speed>0.07</speed>
  <fix>3d</fix>
</trkpt>
<trkpt lat="-27.2744391" lon="151.2900644">
  <ele>364.76</ele>
  <time>2026-09-01T19:58:54Z</time>
  <course>10.29</course>
  <speed>0.07</speed>
  <fix>3d</fix>
</trkpt>
<trkpt lat="-27.274439" lon="151.2900642">
  <ele>364.19</ele>
  <time>2026-09-01T19:58:54Z</time>
  <course>200.02</course>
  <speed>0.07</speed>
  <fix>3d</fix>
</trkpt>
<trkpt lat="-27.2744391" lon="151.2900644">
  <ele>364.82</ele>
  <time>2026-09-01T19:58:54Z</time>
  <course>10.28</course>
  <speed>0.07</speed>
  <fix>3d</fix>
</trkpt>
<trkpt lat="-27.2744392" lon="151.2900644">
  <ele>365.01</ele>
  <time>2026-09-01T19:58:54Z</time>
  <course>10.28</course>
  <speed>0.07</speed>
  <fix>3d</fix>
</trkpt>
<trkpt lat="-27.274439" lon="151.2900642">
  <ele>364.19</ele>
  <time>2026-09-01T19:58:54Z</time>
  <course>200.02</course>
  <speed>0.07</speed>
  <fix>3d</fix>
</trkpt>
<trkpt lat="-27.2744392" lon="151.2900644">
  <ele>365.07</ele>
  <time>2026-09-01T19:58:54Z</time>
  <course>10.28</course>
  <speed>0.06</speed>
  <fix>3d</fix>
</trkpt>
<trkpt lat="-27.2744392" lon="151.2900643">
  <ele>365.26</ele>
  <time>2026-09-01T19:58:54Z</time>
  <course>10.28</course>
  <speed>0.06</speed>
  <fix>3d</fix>
</trkpt>
<trkpt lat="-27.2744391" lon="151.2900642">
  <ele>364.69</ele>
  <time>2026-09-01T19:58:54Z</time>
  <course>203.24</course>
  <speed>0.06</speed>
  <fix>3d</fix>
</trkpt>
<trkpt lat="-27.2744392" lon="151.2900643">
  <ele>365.33</ele>
  <time>2026-09-01T19:58:54Z</time>
  <course>10.28</course>
  <speed>0.06</speed>
  <fix>3d</fix>
</trkpt>
<trkpt lat="-27.2744393" lon="151.2900643">
  <ele>365.52</ele>
  <time>2026-09-01T19:58:54Z</time>
  <course>10.28</course>
  <speed>0.06</speed>
  <fix>3d</fix>
</trkpt>
<trkpt lat="-27.2744391" lon="151.2900642">
  <ele>364.69</ele>
  <time>2026-09-01T19:58:54Z</time>
  <course>203.24</course>
  <speed>0.06</speed>
  <fix>3d</fix>
</trkpt>
<trkpt lat="-27.2744393" lon="151.2900643">
  <ele>365.52</ele>
  <time>2026-09-01T19:58:54Z</time>
  <course>10.28</course>
  <speed>0.06</speed>
  <fix>3d</fix>
</trkpt>
<trkpt lat="-27.2744393" lon="151.2900643">
  <ele>365.77</ele>
  <time>2026-09-01T19:58:54Z</time>
  <course>10.28</course>
  <speed>0.05</speed>
  <fix>3d</fix>
</trkpt>
<trkpt lat="-27.2744392" lon="151.2900641">
  <ele>365.19</ele>
  <time>2026-09-01T19:58:54Z</time>
  <course>207.19</course>
  <speed>0.05</speed>
  <fix>3d</fix>
</trkpt>
<trkpt lat="-27.2744393" lon="151.2900643">
  <ele>365.77</ele>
  <time>2026-09-01T19:58:54Z</time>
  <course>10.28</course>
  <speed>0.05</speed>
  <fix>3d</fix>
</trkpt>
<trkpt lat="-27.2744394" lon="151.2900642">
  <ele>366.01</ele>
  <time>2026-09-01T19:58:54Z</time>
  <course>10.28</course>
  <speed>0.05</speed>
  <fix>3d</fix>
</trkpt>
<trkpt lat="-27.2744392" lon="151.2900641">
  <ele>365.19</ele>
  <time>2026-09-01T19:58:54Z</time>
  <course>207.19</course>
  <speed>0.05</speed>
  <fix>3d</fix>
</trkpt>
<trkpt lat="-27.2744394" lon="151.2900642">
  <ele>366.07</ele>
  <time>2026-09-01T19:58:54Z</time>
  <course>10.28</course>
  <speed>0.05</speed>
  <fix>3d</fix>
</trkpt>
<trkpt lat="-27.2744394" lon="151.2900642">
  <ele>366.26</ele>
  <time>2026-09-01T19:58:54Z</time>
  <course>10.28</course>
  <speed>0.04</speed>
  <fix>3d</fix>
</trkpt>
<trkpt lat="-27.2744393" lon="151.2900641">
  <ele>365.7</ele>
  <time>2026-09-01T19:58:54Z</time>
  <course>211.93</course>
  <speed>0.04</speed>
  <fix>3d</fix>
</trkpt>
<trkpt lat="-27.2744394" lon="151.2900642">
  <ele>366.32</ele>
  <time>2026-09-01T19:58:54Z</time>
  <course>10.28</course>
  <speed>0.04</speed>
  <fix>3d</fix>
</trkpt>
<trkpt lat="-27.2744394" lon="151.2900642">
  <ele>366.52</ele>
  <time>2026-09-01T19:58:54Z</time>
  <course>10.3</course>
  <speed>0.04</speed>
  <fix>3d</fix>
</trkpt>
<trkpt lat="-27.2744393" lon="151.2900641">
  <ele>365.7</ele>
  <time>2026-09-01T19:58:54Z</time>
  <course>211.93</course>
  <speed>0.04</speed>
  <fix>3d</fix>
</trkpt>
<trkpt lat="-27.2744394" lon="151.2900642">
  <ele>366.58</ele>
  <time>2026-09-01T19:58:54Z</time>
  <course>10.3</course>
  <speed>0.04</speed>
  <fix>3d</fix>
</trkpt>
<trkpt lat="-27.2744394" lon="151.2900642">
  <ele>366.77</ele>
  <time>2026-09-01T19:58:54Z</time>
  <course>10.31</course>
  <speed>0.03</speed>
  <fix>3d</fix>
</trkpt>
<trkpt lat="-27.2744394" lon="151.290064">
  <ele>366.2</ele>
  <time>2026-09-01T19:58:54Z</time>
  <course>218.59</course>
  <speed>0.03</speed>
  <fix>3d</fix>
</trkpt>
<trkpt lat="-27.2744394" lon="151.2900642">
  <ele>366.83</ele>
  <time>2026-09-01T19:58:54Z</time>
  <course>10.32</course>
  <speed>0.03</speed>
  <fix>3d</fix>
</trkpt>
<trkpt lat="-27.2744395" lon="151.2900642">
  <ele>367.02</ele>
  <time>2026-09-01T19:58:54Z</time>
  <course>10.33</course>
  <speed>0.03</speed>
  <fix>3d</fix>
</trkpt>
<trkpt lat="-27.2744394" lon="151.290064">
  <ele>366.2</ele>
  <time>2026-09-01T19:58:54Z</time>
  <course>218.59</course>
  <speed>0.03</speed>
  <fix>3d</fix>
</trkpt>
<trkpt lat="-27.2744395" lon="151.2900642">
  <ele>367.08</ele>
  <time>2026-09-01T19:58:54Z</time>
  <course>10.33</course>
  <speed>0.03</speed>
  <fix>3d</fix>
</trkpt>
<trkpt lat="-27.2744395" lon="151.2900642">
  <ele>367.26</ele>
  <time>2026-09-01T19:58:54Z</time>
  <course>10.33</course>
  <speed>0.03</speed>
  <fix>3d</fix>
</trkpt>
<trkpt lat="-27.2744394" lon="151.290064">
  <ele>366.7</ele>
  <time>2026-09-01T19:58:54Z</time>
  <course>228.02</course>
  <speed>0.03</speed>
  <fix>3d</fix>
</trkpt>
<trkpt lat="-27.2744395" lon="151.2900642">
  <ele>367.33</ele>
  <time>2026-09-01T19:58:54Z</time>
  <course>10.33</course>
  <speed>0.02</speed>
  <fix>3d</fix>
</trkpt>
<trkpt lat="-27.2744395" lon="151.2900641">
  <ele>367.51</ele>
  <time>2026-09-01T19:58:54Z</time>
  <course>10.33</course>
  <speed>0.02</speed>
  <fix>3d</fix>
</trkpt>
<trkpt lat="-27.2744394" lon="151.290064">
  <ele>366.7</ele>
  <time>2026-09-01T19:58:54Z</time>
  <course>228.02</course>
  <speed>0.03</speed>
  <fix>3d</fix>
</trkpt>
<trkpt lat="-27.2744395" lon="151.2900641">
  <ele>367.58</ele>
  <time>2026-09-01T19:58:54Z</time>
  <course>10.33</course>
  <speed>0.02</speed>
  <fix>3d</fix>
</trkpt>
<trkpt lat="-27.2744395" lon="151.2900641">
  <ele>367.76</ele>
  <time>2026-09-01T19:58:54Z</time>
  <course>10.33</course>
  <speed>0.02</speed>
  <fix>3d</fix>
</trkpt>
<trkpt lat="-27.2744395" lon="151.2900639">
  <ele>367.2</ele>
  <time>2026-09-01T19:58:54Z</time>
  <course>239.14</course>
  <speed>0.02</speed>
  <fix>3d</fix>
</trkpt>
<trkpt lat="-27.2744395" lon="151.2900641">
  <ele>367.83</ele>
  <time>2026-09-01T19:58:54Z</time>
  <course>10.33</course>
  <speed>0.02</speed>
  <fix>3d</fix>
</trkpt>
<trkpt lat="-27.2744395" lon="151.2900641">
  <ele>368.01</ele>
  <time>2026-09-01T19:58:54Z</time>
  <course>10.34</course>
  <speed>0.02</speed>
  <fix>3d</fix>
</trkpt>
<trkpt lat="-27.2744395" lon="151.2900639">
  <ele>367.2</ele>
  <time>2026-09-01T19:58:54Z</time>
  <course>239.14</course>
  <speed>0.02</speed>
  <fix>3d</fix>
</trkpt>
<trkpt lat="-27.2744395" lon="151.2900641">
  <ele>368.02</ele>
  <time>2026-09-01T19:58:54Z</time>
  <course>10.34</course>
  <speed>0.02</speed>
  <fix>3d</fix>
</trkpt>
<trkpt lat="-27.2744395" lon="151.2900641">
  <ele>368.26</ele>
  <time>2026-09-01T19:58:54Z</time>
  <course>10.36</course>
  <speed>0.01</speed>
  <fix>3d</fix>
</trkpt>
<trkpt lat="-27.2744395" lon="151.2900639">
  <ele>367.7</ele>
  <time>2026-09-01T19:58:54Z</time>
  <course>253.46</course>
  <speed>0.02</speed>
  <fix>3d</fix>
</trkpt>
<trkpt lat="-27.2744395" lon="151.2900641">
  <ele>368.32</ele>
  <time>2026-09-01T19:58:54Z</time>
  <course>10.37</course>
  <speed>0.01</speed>
  <fix>3d</fix>
</trkpt>
<trkpt lat="-27.2744395" lon="151.290064">
  <ele>368.51</ele>
  <time>2026-09-01T19:58:54Z</time>
  <course>10.39</course>
  <speed>0.01</speed>
  <fix>3d</fix>
</trkpt>
<trkpt lat="-27.2744395" lon="151.2900639">
  <ele>367.7</ele>
  <time>2026-09-01T19:58:54Z</time>
  <course>253.46</course>
  <speed>0.02</speed>
  <fix>3d</fix>
</trkpt>
<trkpt lat="-27.2744395" lon="151.290064">
  <ele>368.51</ele>
  <time>2026-09-01T19:58:54Z</time>
  <course>10.39</course>
  <speed>0.01</speed>
  <fix>3d</fix>
</trkpt>
<trkpt lat="-27.2744395" lon="151.290064">
  <ele>368.76</ele>
  <time>2026-09-01T19:58:54Z</time>
  <course>10.41</course>
  <speed>0.01</speed>
  <fix>3d</fix>
</trkpt>
<trkpt lat="-27.2744395" lon="151.2900639">
  <ele>368.2</ele>
  <time>2026-09-01T19:58:54Z</time>
  <course>271.43</course>
  <speed>0.01</speed>
  <fix>3d</fix>
</trkpt>
<trkpt lat="-27.2744395" lon="151.290064">
  <ele>368.82</ele>
  <time>2026-09-01T19:58:54Z</time>
  <course>10.41</course>
  <speed>0.01</speed>
  <fix>3d</fix>
</trkpt>
<trkpt lat="-27.2744395" lon="151.290064">
  <ele>369.01</ele>
  <time>2026-09-01T19:58:54Z</time>
  <course>10.42</course>
  <speed>0.01</speed>
  <fix>3d</fix>
</trkpt>
<trkpt lat="-27.2744395" lon="151.2900639">
  <ele>368.2</ele>
  <time>2026-09-01T19:58:54Z</time>
  <course>271.43</course>
  <speed>0.01</speed>
  <fix>3d</fix>
</trkpt>
<trkpt lat="-27.2744395" lon="151.290064">
  <ele>369.07</ele>
  <time>2026-09-01T19:58:54Z</time>
  <course>10.42</course>
  <speed>0.01</speed>
  <fix>3d</fix>
</trkpt>
<trkpt lat="-27.2744395" lon="151.290064">
  <ele>369.26</ele>
  <time>2026-09-01T19:58:54Z</time>
  <course>10.42</course>
  <speed>0.0</speed>
  <fix>3d</fix>
</trkpt>
<trkpt lat="-27.2744395" lon="151.2900638">
  <ele>368.7</ele>
  <time>2026-09-01T19:58:54Z</time>
  <course>288.84</course>
  <speed>0.01</speed>
  <fix>3d</fix>
</trkpt>
<trkpt lat="-27.2744395" lon="151.290064">
  <ele>369.32</ele>
  <time>2026-09-01T19:58:54Z</time>
  <course>10.42</course>
  <speed>0.0</speed>
  <fix>3d</fix>
</trkpt>
<trkpt lat="-27.2744395" lon="151.290064">
  <ele>369.51</ele>
  <time>2026-09-01T19:58:54Z</time>
  <course>10.43</course>
  <speed>0.0</speed>
  <fix>3d</fix>
</trkpt>
<trkpt lat="-27.2744395" lon="151.2900638">
  <ele>368.7</ele>
  <time>2026-09-01T19:58:54Z</time>
  <course>288.84</course>
  <speed>0.01</speed>
  <fix>3d</fix>
</trkpt>
<trkpt lat="-27.2744395" lon="151.290064">
  <ele>369.58</ele>
  <time>2026-09-01T19:58:54Z</time>
  <course>10.43</course>
  <speed>0.0</speed>
  <fix>3d</fix>
</trkpt>
<trkpt lat="-27.2744395" lon="151.290064">
  <ele>369.76</ele>
  <time>2026-09-01T19:58:54Z</time>
  <course>10.43</course>
  <speed>0.0</speed>
  <fix>3d</fix>
</trkpt>
<trkpt lat="-27.2744395" lon="151.2900637">
  <ele>369.2</ele>
  <time>2026-09-01T19:58:54Z</time>
  <course>304.43</course>
  <speed>0.01</speed>
  <fix>3d</fix>
</trkpt>
<trkpt lat="-27.2744395" lon="151.290064">
  <ele>369.83</ele>
  <time>2026-09-01T19:58:54Z</time>
  <course>10.43</course>
  <speed>0.0</speed>
  <fix>3d</fix>
</trkpt>
<trkpt lat="-27.2744395" lon="151.2900639">
  <ele>370.01</ele>
  <time>2026-09-01T19:58:54Z</time>
  <course>10.44</course>
  <speed>0.0</speed>
  <fix>3d</fix>
</trkpt>
<trkpt lat="-27.2744395" lon="151.2900637">
  <ele>369.2</ele>
  <time>2026-09-01T19:58:54Z</time>
  <course>304.43</course>
  <speed>0.01</speed>
  <fix>3d</fix>
</trkpt>
<trkpt lat="-27.2744395" lon="151.2900639">
  <ele>370.08</ele>
  <time>2026-09-01T19:58:54Z</time>
  <course>10.45</course>
  <speed>0.0</speed>
  <fix>3d</fix>
</trkpt>
<trkpt lat="-27.2744395" lon="151.2900639">
  <ele>370.27</ele>
  <time>2026-09-01T19:58:54Z</time>
  <course>10.46</course>
  <speed>0.0</speed>
  <fix>3d</fix>
</trkpt>
<trkpt lat="-27.2744395" lon="151.2900637">
  <ele>369.7</ele>
  <time>2026-09-01T19:58:54Z</time>
  <course>317.5</course>
  <speed>0.01</speed>
  <fix>3d</fix>
</trkpt>
<trkpt lat="-27.2744395" lon="151.2900639">
  <ele>370.34</ele>
  <time>2026-09-01T19:58:54Z</time>
  <course>10.47</course>
  <speed>0.0</speed>
  <fix>3d</fix>
</trkpt>
<trkpt lat="-27.2744395" lon="151.2900639">
  <ele>370.52</ele>
  <time>2026-09-01T19:58:54Z</time>
  <course>10.48</course>
  <speed>0.0</speed>
  <fix>3d</fix>
</trkpt>
<trkpt lat="-27.2744395" lon="151.2900637">
  <ele>369.7</ele>
  <time>2026-09-01T19:58:54Z</time>
  <course>317.5</course>
  <speed>0.01</speed>
  <fix>3d</fix>
</trkpt>
<trkpt lat="-27.2744395" lon="151.2900639">
  <ele>370.59</ele>
  <time>2026-09-01T19:58:54Z</time>
  <course>10.49</course>
  <speed>0.0</speed>
  <fix>3d</fix>
</trkpt>
<trkpt lat="-27.2744395" lon="151.2900639">
  <ele>370.77</ele>
  <time>2026-09-01T19:58:54Z</time>
  <course>10.5</course>
  <speed>0.0</speed>
  <fix>3d</fix>
</trkpt>
<trkpt lat="-27.2744395" lon="151.2900637">
  <ele>370.2</ele>
  <time>2026-09-01T19:58:54Z</time>
  <course>326.93</course>
  <speed>0.02</speed>
  <fix>3d</fix>
</trkpt>
<trkpt lat="-27.2744395" lon="151.2900639">
  <ele>370.78</ele>
  <time>2026-09-01T19:58:54Z</time>
  <course>10.5</course>
  <speed>0.0</speed>
  <fix>3d</fix>
</trkpt>
<trkpt lat="-27.2744395" lon="151.2900639">
  <ele>371.02</ele>
  <time>2026-09-01T19:58:54Z</time>
  <course>10.51</course>
  <speed>0.0</speed>
  <fix>3d</fix>
</trkpt>
<trkpt lat="-27.2744395" lon="151.2900637">
  <ele>370.2</ele>
  <time>2026-09-01T19:58:54Z</time>
  <course>326.93</course>
  <speed>0.02</speed>
  <fix>3d</fix>
</trkpt>
<trkpt lat="-27.2744395" lon="151.2900639">
  <ele>371.03</ele>
  <time>2026-09-01T19:58:54Z</time>
  <course>10.51</course>
  <speed>0.0</speed>
  <fix>3d</fix>
</trkpt>
<trkpt lat="-27.2744395" lon="151.2900638">
  <ele>371.27</ele>
  <time>2026-09-01T19:58:54Z</time>
  <course>10.52</course>
  <speed>0.0</speed>
  <fix>3d</fix>
</trkpt>
<trkpt lat="-27.2744395" lon="151.2900637">
  <ele>370.71</ele>
  <time>2026-09-01T19:58:54Z</time>
  <course>334.82</course>
  <speed>0.02</speed>
  <fix>3d</fix>
</trkpt>
<trkpt lat="-27.2744395" lon="151.2900638">
  <ele>371.33</ele>
  <time>2026-09-01T19:58:54Z</time>
  <course>10.53</course>
  <speed>0.0</speed>
  <fix>3d</fix>
</trkpt>
<trkpt lat="-27.2744395" lon="151.2900638">
  <ele>371.51</ele>
  <time>2026-09-01T19:58:54Z</time>
  <course>10.54</course>
  <speed>0.0</speed>
  <fix>3d</fix>
</trkpt>
<trkpt lat="-27.2744395" lon="151.2900637">
  <ele>370.71</ele>
  <time>2026-09-01T19:58:54Z</time>
  <course>334.82</course>
  <speed>0.02</speed>
  <fix>3d</fix>
</trkpt>
<trkpt lat="-27.2744395" lon="151.2900638">
  <ele>371.57</ele>
  <time>2026-09-01T19:58:54Z</time>
  <course>10.54</course>
  <speed>0.0</speed>
  <fix>3d</fix>
</trkpt>
<trkpt lat="-27.2744395" lon="151.2900638">
  <ele>371.74</ele>
  <time>2026-09-01T19:58:54Z</time>
  <course>10.55</course>
  <speed>0.0</speed>
  <fix>3d</fix>
</trkpt>
<trkpt lat="-27.2744394" lon="151.2900637">
  <ele>371.2</ele>
  <time>2026-09-01T19:58:54Z</time>
  <course>341.37</course>
  <speed>0.02</speed>
  <fix>3d</fix>
</trkpt>
<trkpt lat="-27.2744395" lon="151.2900638">
  <ele>371.8</ele>
  <time>2026-09-01T19:58:54Z</time>
  <course>10.55</course>
  <speed>0.0</speed>
  <fix>3d</fix>
</trkpt>
<trkpt lat="-27.2744395" lon="151.2900638">
  <ele>371.96</ele>
  <time>2026-09-01T19:58:54Z</time>
  <course>10.56</course>
  <speed>0.0</speed>
  <fix>3d</fix>
</trkpt>
<trkpt lat="-27.2744394" lon="151.2900637">
  <ele>371.2</ele>
  <time>2026-09-01T19:58:54Z</time>
  <course>341.37</course>
  <speed>0.02</speed>
  <fix>3d</fix>
</trkpt>
<trkpt lat="-27.2744395" lon="151.2900638">
  <ele>371.97</ele>
  <time>2026-09-01T19:58:54Z</time>
  <course>10.56</course>
  <speed>0.0</speed>
  <fix>3d</fix>
</trkpt>
<trkpt lat="-27.2744395" lon="151.2900638">
  <ele>372.17</ele>
  <time>2026-09-01T19:58:54Z</time>
  <course>10.57</course>
  <speed>0.0</speed>
  <fix>3d</fix>
</trkpt>
<trkpt lat="-27.2744394" lon="151.2900637">
  <ele>371.66</ele>
  <time>2026-09-01T19:58:54Z</time>
  <course>344.03</course>
  <speed>0.02</speed>
  <fix>3d</fix>
</trkpt>
<trkpt lat="-27.2744395" lon="151.2900638">
  <ele>372.23</ele>
  <time>2026-09-01T19:58:54Z</time>
  <course>10.57</course>
  <speed>0.0</speed>
  <fix>3d</fix>
</trkpt>
<trkpt lat="-27.2744395" lon="151.2900638">
  <ele>372.37</ele>
  <time>2026-09-01T19:58:54Z</time>
  <course>10.58</course>
  <speed>0.01</speed>
  <fix>3d</fix>
</trkpt>
<trkpt lat="-27.2744394" lon="151.2900637">
  <ele>371.66</ele>
  <time>2026-09-01T19:58:54Z</time>
  <course>344.03</course>
  <speed>0.02</speed>
  <fix>3d</fix>
</trkpt>
<trkpt lat="-27.2744395" lon="151.2900638">
  <ele>372.54</ele>
  <time>2026-09-01T19:58:54Z</time>
  <course>10.59</course>
  <speed>0.01</speed>
  <fix>3d</fix>
</trkpt>
<trkpt lat="-27.2744393" lon="151.2900637">
  <ele>372.1</ele>
  <time>2026-09-01T19:58:54Z</time>
  <course>336.73</course>
  <speed>0.01</speed>
  <fix>3d</fix>
</trkpt>
<trkpt lat="-27.2744395" lon="151.2900638">
  <ele>372.69</ele>
  <time>2026-09-01T19:58:54Z</time>
  <course>10.5</course>
  <speed>0.02</speed>
  <fix>3d</fix>
</trkpt>
<trkpt lat="-27.2744393" lon="151.2900637">
  <ele>372.1</ele>
  <time>2026-09-01T19:58:54Z</time>
  <course>336.73</course>
  <speed>0.01</speed>
  <fix>3d</fix>
</trkpt>
<trkpt lat="-27.2744394" lon="151.2900638">
  <ele>372.82</ele>
  <time>2026-09-01T19:58:54Z</time>
  <course>10.16</course>
  <speed>0.09055385138137417</speed>
  <fix>3d</fix>
</trkpt>
<trkpt lat="-27.2744393" lon="151.2900637">
  <ele>372.47</ele>
  <time>2026-09-01T19:58:54Z</time>
  <course>350.59</course>
  <speed>0.02</speed>
  <fix>3d</fix>
</trkpt>
<trkpt lat="-27.2744393" lon="151.2900638">
  <ele>372.93</ele>
  <time>2026-09-01T19:58:54Z</time>
  <course>9.83</course>
  <speed>0.130384048104053</speed>
  <fix>3d</fix>
</trkpt>
<trkpt lat="-27.2744393" lon="151.2900637">
  <ele>372.47</ele>
  <time>2026-09-01T19:58:54Z</time>
  <course>350.59</course>
  <speed>0.02</speed>
  <fix>3d</fix>
</trkpt>
<trkpt lat="-27.2744391" lon="151.2900638">
  <ele>373.02</ele>
  <time>2026-09-01T19:58:54Z</time>
  <course>9.64</course>
  <speed>0.13</speed>
  <fix>3d</fix>
</trkpt>
<trkpt lat="-27.2744391" lon="151.2900637">
  <ele>372.76</ele>
  <time>2026-09-01T19:58:54Z</time>
  <course>359.67</course>
  <speed>0.09</speed>
  <fix>3d</fix>
</trkpt>
<trkpt lat="-27.274439" lon="151.2900638">
  <ele>373.09</ele>
  <time>2026-09-01T19:58:54Z</time>
  <course>9.61</course>
  <speed>0.11</speed>
  <fix>3d</fix>
</trkpt>
<trkpt lat="-27.2744391" lon="151.2900637">
  <ele>372.76</ele>
  <time>2026-09-01T19:58:54Z</time>
  <course>359.67</course>
  <speed>0.09</speed>
  <fix>3d</fix>
</trkpt>
<trkpt lat="-27.2744389" lon="151.2900638">
  <ele>373.14</ele>
  <time>2026-09-01T19:58:54Z</time>
  <course>9.72</course>
  <speed>0.08062257748298549</speed>
  <fix>3d</fix>
</trkpt>
<trkpt lat="-27.274439" lon="151.2900637">
  <ele>372.97</ele>
  <time>2026-09-01T19:58:54Z</time>
  <course>356.63</course>
  <speed>0.14</speed>
  <fix>3d</fix>
</trkpt>
<trkpt lat="-27.2744388" lon="151.2900637">
  <ele>373.19</ele>
  <time>2026-09-01T19:58:54Z</time>
  <course>9.93</course>
  <speed>0.053851648071345036</speed>
  <fix>3d</fix>
</trkpt>
<trkpt lat="-27.274439" lon="151.2900637">
  <ele>372.97</ele>
  <time>2026-09-01T19:58:54Z</time>
  <course>356.63</course>
  <speed>0.14</speed>
  <fix>3d</fix>
</trkpt>
<trkpt lat="-27.2744388" lon="151.2900637">
  <ele>373.24</ele>
  <time>2026-09-01T19:58:54Z</time>
  <course>10.19</course>
  <speed>0.0316227766016838</speed>
  <fix>3d</fix>
</trkpt>
<trkpt lat="-27.2744388" lon="151.2900636">
  <ele>373.1</ele>
  <time>2026-09-01T19:58:54Z</time>
  <course>346.72</course>
  <speed>0.1</speed>
  <fix>3d</fix>
</trkpt>
<trkpt lat="-27.2744388" lon="151.2900637">
  <ele>373.28</ele>
  <time>2026-09-01T19:58:54Z</time>
  <course>10.43</course>
  <speed>0.04242640687119285</speed>
  <fix>3d</fix>
</trkpt>
<trkpt lat="-27.2744388" lon="151.2900636">
  <ele>373.1</ele>
  <time>2026-09-01T19:58:54Z</time>
  <course>346.72</course>
  <speed>0.1</speed>
  <fix>3d</fix>
</trkpt>
<trkpt lat="-27.2744388" lon="151.2900636">
  <ele>373.35</ele>
  <time>2026-09-01T19:58:54Z</time>
  <course>10.59</course>
  <speed>0.08062257748298549</speed>
  <fix>3d</fix>
</trkpt>
<trkpt lat="-27.2744386" lon="151.2900635">
  <ele>373.21</ele>
  <time>2026-09-01T19:58:54Z</time>
  <course>308.58</course>
  <speed>0.04</speed>
  <fix>3d</fix>
</trkpt>
<trkpt lat="-27.2744389" lon="151.2900635">
  <ele>373.43</ele>
  <time>2026-09-01T19:58:54Z</time>
  <course>10.59</course>
  <speed>0.11401754250991379</speed>
  <fix>3d</fix>
</trkpt>
<trkpt lat="-27.2744386" lon="151.2900635">
  <ele>373.21</ele>
  <time>2026-09-01T19:58:54Z</time>
  <course>308.58</course>
  <speed>0.04</speed>
  <fix>3d</fix>
</trkpt>
<trkpt lat="-27.274439" lon="151.2900635">
  <ele>373.53</ele>
  <time>2026-09-01T19:58:54Z</time>
  <course>10.36</course>
  <speed>0.15132745950421556</speed>
  <fix>3d</fix>
</trkpt>
<trkpt lat="-27.2744386" lon="151.2900634">
  <ele>373.33</ele>
  <time>2026-09-01T19:58:54Z</time>
  <course>216.11</course>
  <speed>0.06</speed>
  <fix>3d</fix>
</trkpt>
<trkpt lat="-27.2744391" lon="151.2900635">
  <ele>373.66</ele>
  <time>2026-09-01T19:58:54Z</time>
  <course>10.03</course>
  <speed>0.1711724276862369</speed>
  <fix>3d</fix>
</trkpt>
<trkpt lat="-27.2744386" lon="151.2900634">
  <ele>373.33</ele>
  <time>2026-09-01T19:58:54Z</time>
  <course>216.11</course>
  <speed>0.06</speed>
  <fix>3d</fix>
</trkpt>
<trkpt lat="-27.2744392" lon="151.2900634">
  <ele>373.82</ele>
  <time>2026-09-01T19:58:54Z</time>
  <course>9.91</course>
  <speed>0.1824828759089466</speed>
  <fix>3d</fix>
</trkpt>
<trkpt lat="-27.2744387" lon="151.2900633">
  <ele>373.52</ele>
  <time>2026-09-01T19:58:54Z</time>
  <course>192.95</course>
  <speed>0.13</speed>
  <fix>3d</fix>
</trkpt>
<trkpt lat="-27.2744393" lon="151.2900634">
  <ele>373.99</ele>
  <time>2026-09-01T19:58:54Z</time>
  <course>9.98</course>
  <speed>0.1772004514666935</speed>
  <fix>3d</fix>
</trkpt>
<trkpt lat="-27.2744387" lon="151.2900633">
  <ele>373.52</ele>
  <time>2026-09-01T19:58:54Z</time>
  <course>192.95</course>
  <speed>0.13</speed>
  <fix>3d</fix>
</trkpt>
<trkpt lat="-27.2744394" lon="151.2900633">
  <ele>374.2</ele>
  <time>2026-09-01T19:58:54Z</time>
  <course>10.12</course>
  <speed>0.1676305461424021</speed>
  <fix>3d</fix>
</trkpt>
<trkpt lat="-27.274439" lon="151.2900633">
  <ele>373.8</ele>
  <time>2026-09-01T19:58:54Z</time>
  <course>187.74</course>
  <speed>0.16</speed>
  <fix>3d</fix>
</trkpt>
<trkpt lat="-27.2744395" lon="151.2900633">
  <ele>374.42</ele>
  <time>2026-09-01T19:58:54Z</time>
  <course>10.28</course>
  <speed>0.14560219778561037</speed>
  <fix>3d</fix>
</trkpt>
<trkpt lat="-27.274439" lon="151.2900633">
  <ele>373.8</ele>
  <time>2026-09-01T19:58:54Z</time>
  <course>187.74</course>
  <speed>0.16</speed>
  <fix>3d</fix>
</trkpt>
<trkpt lat="-27.2744396" lon="151.2900632">
  <ele>374.66</ele>
  <time>2026-09-01T19:58:54Z</time>
  <course>10.44</course>
  <speed>0.12041594578792296</speed>
  <fix>3d</fix>
</trkpt>
<trkpt lat="-27.2744393" lon="151.2900632">
  <ele>374.18</ele>
  <time>2026-09-01T19:58:54Z</time>
  <course>187.34</course>
  <speed>0.15</speed>
  <fix>3d</fix>
</trkpt>
<trkpt lat="-27.2744397" lon="151.2900632">
  <ele>374.91</ele>
  <time>2026-09-01T19:58:54Z</time>
  <course>10.61</course>
  <speed>0.09055385138137417</speed>
  <fix>3d</fix>
</trkpt>
<trkpt lat="-27.2744393" lon="151.2900632">
  <ele>374.18</ele>
  <time>2026-09-01T19:58:54Z</time>
  <course>187.34</course>
  <speed>0.15</speed>
  <fix>3d</fix>
</trkpt>
<trkpt lat="-27.2744398" lon="151.2900632">
  <ele>375.17</ele>
  <time>2026-09-01T19:58:54Z</time>
  <course>10.76</course>
  <speed>0.06</speed>
  <fix>3d</fix>
</trkpt>
<trkpt lat="-27.2744395" lon="151.2900632">
  <ele>374.64</ele>
  <time>2026-09-01T19:58:54Z</time>
  <course>185.88</course>
  <speed>0.11</speed>
  <fix>3d</fix>
</trkpt>
<trkpt lat="-27.2744398" lon="151.2900632">
  <ele>375.44</ele>
  <time>2026-09-01T19:58:54Z</time>
  <course>10.84</course>
  <speed>0.03</speed>
  <fix>3d</fix>
</trkpt>
<trkpt lat="-27.2744395" lon="151.2900632">
  <ele>374.64</ele>
  <time>2026-09-01T19:58:54Z</time>
  <course>185.88</course>
  <speed>0.11</speed>
  <fix>3d</fix>
</trkpt>
<trkpt lat="-27.2744398" lon="151.2900632">
  <ele>375.72</ele>
  <time>2026-09-01T19:58:54Z</time>
  <course>10.86</course>
  <speed>0.0</speed>
  <fix>3d</fix>
</trkpt>
<trkpt lat="-27.2744397" lon="151.2900632">
  <ele>375.16</ele>
  <time>2026-09-01T19:58:54Z</time>
  <course>182.61</course>
  <speed>0.05</speed>
  <fix>3d</fix>
</trkpt>
<trkpt lat="-27.2744398" lon="151.2900632">
  <ele>376.0</ele>
  <time>2026-09-01T19:58:54Z</time>
  <course>10.85</course>
  <speed>0.022360679774997897</speed>
  <fix>3d</fix>
</trkpt>
<trkpt lat="-27.2744397" lon="151.2900632">
  <ele>375.16</ele>
  <time>2026-09-01T19:58:54Z</time>
  <course>182.61</course>
  <speed>0.05</speed>
  <fix>3d</fix>
</trkpt>
<trkpt lat="-27.2744398" lon="151.2900633">
  <ele>376.28</ele>
  <time>2026-09-01T19:58:54Z</time>
  <course>10.8</course>
  <speed>0.0412310562561766</speed>
  <fix>3d</fix>
</trkpt>
<trkpt lat="-27.2744397" lon="151.2900632">
  <ele>375.71</ele>
  <time>2026-09-01T19:58:54Z</time>
  <course>63.2</course>
  <speed>0.0</speed>
  <fix>3d</fix>
</trkpt>
<trkpt lat="-27.2744398" lon="151.2900633">
  <ele>376.56</ele>
  <time>2026-09-01T19:58:54Z</time>
  <course>10.75</course>
  <speed>0.0632455532033676</speed>
  <fix>3d</fix>
</trkpt>
<trkpt lat="-27.2744397" lon="151.2900632">
  <ele>375.71</ele>
  <time>2026-09-01T19:58:54Z</time>
  <course>63.2</course>
  <speed>0.0</speed>
  <fix>3d</fix>
</trkpt>
<trkpt lat="-27.2744397" lon="151.2900633">
  <ele>376.84</ele>
  <time>2026-09-01T19:58:54Z</time>
  <course>10.71</course>
  <speed>0.0824621125123532</speed>
  <fix>3d</fix>
</trkpt>
<trkpt lat="-27.2744396" lon="151.2900632">
  <ele>376.27</ele>
  <time>2026-09-01T19:58:54Z</time>
  <course>17.11</course>
  <speed>0.05</speed>
  <fix>3d</fix>
</trkpt>
<trkpt lat="-27.2744396" lon="151.2900633">
  <ele>377.12</ele>
  <time>2026-09-01T19:58:54Z</time>
  <course>10.68</course>
  <speed>0.1019803902718557</speed>
  <fix>3d</fix>
</trkpt>
<trkpt lat="-27.2744396" lon="151.2900632">
  <ele>376.27</ele>
  <time>2026-09-01T19:58:54Z</time>
  <course>17.11</course>
  <speed>0.05</speed>
  <fix>3d</fix>
</trkpt>
<trkpt lat="-27.2744395" lon="151.2900633">
  <ele>377.39</ele>
  <time>2026-09-01T19:58:54Z</time>
  <course>10.66</course>
  <speed>0.11401754250991379</speed>
  <fix>3d</fix>
</trkpt>
<trkpt lat="-27.2744396" lon="151.2900632">
  <ele>376.83</ele>
  <time>2026-09-01T19:58:54Z</time>
  <course>14.51</course>
  <speed>0.09</speed>
  <fix>3d</fix>
</trkpt>
<trkpt lat="-27.2744394" lon="151.2900633">
  <ele>377.67</ele>
  <time>2026-09-01T19:58:54Z</time>
  <course>10.66</course>
  <speed>0.12369316876852982</speed>
  <fix>3d</fix>
</trkpt>
<trkpt lat="-27.2744396" lon="151.2900632">
  <ele>376.83</ele>
  <time>2026-09-01T19:58:54Z</time>
  <course>14.51</course>
  <speed>0.09</speed>
  <fix>3d</fix>
</trkpt>
<trkpt lat="-27.2744392" lon="151.2900633">
  <ele>377.94</ele>
  <time>2026-09-01T19:58:54Z</time>
  <course>10.66</course>
  <speed>0.12369316876852982</speed>
  <fix>3d</fix>
</trkpt>
<trkpt lat="-27.2744394" lon="151.2900632">
  <ele>377.38</ele>
  <time>2026-09-01T19:58:54Z</time>
  <course>13.78</course>
  <speed>0.12</speed>
  <fix>3d</fix>
</trkpt>
<trkpt lat="-27.2744391" lon="151.2900633">
  <ele>378.2</ele>
  <time>2026-09-01T19:58:54Z</time>
  <course>10.67</course>
  <speed>0.13341664064126335</speed>
  <fix>3d</fix>
</trkpt>
<trkpt lat="-27.2744394" lon="151.2900632">
  <ele>377.38</ele>
  <time>2026-09-01T19:58:54Z</time>
  <course>13.78</course>
  <speed>0.12</speed>
  <fix>3d</fix>
</trkpt>
<trkpt lat="-27.274439" lon="151.2900634">
  <ele>378.46</ele>
  <time>2026-09-01T19:58:54Z</time>
  <course>10.68</course>
  <speed>0.13341664064126335</speed>
  <fix>3d</fix>
</trkpt>
<trkpt lat="-27.2744391" lon="151.2900633">
  <ele>377.91</ele>
  <time>2026-09-01T19:58:54Z</time>
  <course>13.7</course>
  <speed>0.14</speed>
  <fix>3d</fix>
</trkpt>
<trkpt lat="-27.2744389" lon="151.2900634">
  <ele>378.72</ele>
  <time>2026-09-01T19:58:54Z</time>
  <course>10.69</course>
  <speed>0.12369316876852982</speed>
  <fix>3d</fix>
</trkpt>
<trkpt lat="-27.2744391" lon="151.2900633">
  <ele>377.91</ele>
  <time>2026-09-01T19:58:54Z</time>
  <course>13.7</course>
  <speed>0.14</speed>
  <fix>3d</fix>
</trkpt>
<trkpt lat="-27.2744388" lon="151.2900634">
  <ele>378.97</ele>
  <time>2026-09-01T19:58:54Z</time>
  <course>10.7</course>
  <speed>0.12369316876852982</speed>
  <fix>3d</fix>
</trkpt>
<trkpt lat="-27.2744389" lon="151.2900634">
  <ele>378.43</ele>
  <time>2026-09-01T19:58:54Z</time>
  <course>14.09</course>
  <speed>0.14</speed>
  <fix>3d</fix>
</trkpt>
<trkpt lat="-27.2744386" lon="151.2900635">
  <ele>379.22</ele>
  <time>2026-09-01T19:58:54Z</time>
  <course>10.7</course>
  <speed>0.11401754250991379</speed>
  <fix>3d</fix>
</trkpt>
<trkpt lat="-27.2744389" lon="151.2900634">
  <ele>378.43</ele>
  <time>2026-09-01T19:58:54Z</time>
  <course>14.09</course>
  <speed>0.14</speed>
  <fix>3d</fix>
</trkpt>
<trkpt lat="-27.2744385" lon="151.2900635">
  <ele>379.46</ele>
  <time>2026-09-01T19:58:54Z</time>
  <course>10.71</course>
  <speed>0.1044030650891055</speed>
  <fix>3d</fix>
</trkpt>
<trkpt lat="-27.2744387" lon="151.2900635">
  <ele>378.94</ele>
  <time>2026-09-01T19:58:54Z</time>
  <course>15.0</course>
  <speed>0.13</speed>
  <fix>3d</fix>
</trkpt>
<trkpt lat="-27.2744384" lon="151.2900635">
  <ele>379.7</ele>
  <time>2026-09-01T19:58:54Z</time>
  <course>10.72</course>
  <speed>0.1044030650891055</speed>
  <fix>3d</fix>
</trkpt>
<trkpt lat="-27.2744387" lon="151.2900635">
  <ele>378.94</ele>
  <time>2026-09-01T19:58:54Z</time>
  <course>15.0</course>
  <speed>0.13</speed>
  <fix>3d</fix>
</trkpt>
<trkpt lat="-27.2744383" lon="151.2900636">
  <ele>379.95</ele>
  <time>2026-09-01T19:58:54Z</time>
  <course>10.72</course>
  <speed>0.09486832980505139</speed>
  <fix>3d</fix>
</trkpt>
<trkpt lat="-27.2744385" lon="151.2900635">
  <ele>379.43</ele>
  <time>2026-09-01T19:58:54Z</time>
  <course>16.26</course>
  <speed>0.12</speed>
  <fix>3d</fix>
</trkpt>
<trkpt lat="-27.2744383" lon="151.2900636">
  <ele>380.19</ele>
  <time>2026-09-01T19:58:54Z</time>
  <course>10.73</course>
  <speed>0.0824621125123532</speed>
  <fix>3d</fix>
</trkpt>
<trkpt lat="-27.2744385" lon="151.2900635">
  <ele>379.43</ele>
  <time>2026-09-01T19:58:54Z</time>
  <course>16.26</course>
  <speed>0.12</speed>
  <fix>3d</fix>
</trkpt>
<trkpt lat="-27.2744382" lon="151.2900636">
  <ele>380.43</ele>
  <time>2026-09-01T19:58:54Z</time>
  <course>10.73</course>
  <speed>0.07280109889280519</speed>
  <fix>3d</fix>
</trkpt>
<trkpt lat="-27.2744383" lon="151.2900636">
  <ele>379.91</ele>
  <time>2026-09-01T19:58:54Z</time>
  <course>17.82</course>
  <speed>0.1</speed>
  <fix>3d</fix>
</trkpt>
<trkpt lat="-27.2744381" lon="151.2900636">
  <ele>380.67</ele>
  <time>2026-09-01T19:58:54Z</time>
  <course>10.74</course>
  <speed>0.0632455532033676</speed>
  <fix>3d</fix>
</trkpt>
<trkpt lat="-27.2744383" lon="151.2900636">
  <ele>379.91</ele>
  <time>2026-09-01T19:58:54Z</time>
  <course>17.82</course>
  <speed>0.1</speed>
  <fix>3d</fix>
</trkpt>
<trkpt lat="-27.2744381" lon="151.2900637">
  <ele>380.91</ele>
  <time>2026-09-01T19:58:54Z</time>
  <course>10.74</course>
  <speed>0.053851648071345036</speed>
  <fix>3d</fix>
</trkpt>
<trkpt lat="-27.2744381" lon="151.2900637">
  <ele>380.4</ele>
  <time>2026-09-01T19:58:54Z</time>
  <course>19.97</course>
  <speed>0.09</speed>
  <fix>3d</fix>
</trkpt>
<trkpt lat="-27.274438" lon="151.2900637">
  <ele>381.15</ele>
  <time>2026-09-01T19:58:54Z</time>
  <course>10.75</course>
  <speed>0.044721359549995794</speed>
  <fix>3d</fix>
</trkpt>
<trkpt lat="-27.2744381" lon="151.2900637">
  <ele>380.4</ele>
  <time>2026-09-01T19:58:54Z</time>
  <course>19.97</course>
  <speed>0.09</speed>
  <fix>3d</fix>
</trkpt>
<trkpt lat="-27.274438" lon="151.2900637">
  <ele>381.4</ele>
  <time>2026-09-01T19:58:54Z</time>
  <course>10.75</course>
  <speed>0.044721359549995794</speed>
  <fix>3d</fix>
</trkpt>
<trkpt lat="-27.2744379" lon="151.2900637">
  <ele>380.88</ele>
  <time>2026-09-01T19:58:54Z</time>
  <course>22.75</course>
  <speed>0.07</speed>
  <fix>3d</fix>
</trkpt>
<trkpt lat="-27.2744379" lon="151.2900637">
  <ele>381.64</ele>
  <time>2026-09-01T19:58:54Z</time>
  <course>10.76</course>
  <speed>0.03605551275463989</speed>
  <fix>3d</fix>
</trkpt>
<trkpt lat="-27.2744379" lon="151.2900637">
  <ele>380.88</ele>
  <time>2026-09-01T19:58:54Z</time>
  <course>22.75</course>
  <speed>0.07</speed>
  <fix>3d</fix>
</trkpt>
<trkpt lat="-27.2744379" lon="151.2900638">
  <ele>381.88</ele>
  <time>2026-09-01T19:58:54Z</time>
  <course>10.77</course>
  <speed>0.022360679774997897</speed>
  <fix>3d</fix>
</trkpt>
<trkpt lat="-27.2744378" lon="151.2900638">
  <ele>381.36</ele>
  <time>2026-09-01T19:58:54Z</time>
  <course>26.37</course>
  <speed>0.05</speed>
  <fix>3d</fix>
</trkpt>
<trkpt lat="-27.2744378" lon="151.2900638">
  <ele>382.13</ele>
  <time>2026-09-01T19:58:54Z</time>
  <course>10.77</course>
  <speed>0.022360679774997897</speed>
  <fix>3d</fix>
</trkpt>
<trkpt lat="-27.2744378" lon="151.2900638">
  <ele>381.36</ele>
  <time>2026-09-01T19:58:54Z</time>
  <course>26.37</course>
  <speed>0.05</speed>
  <fix>3d</fix>
</trkpt>
<trkpt lat="-27.2744378" lon="151.2900638">
  <ele>382.38</ele>
  <time>2026-09-01T19:58:54Z</time>
  <course>10.77</course>
  <speed>0.01414213562373095</speed>
  <fix>3d</fix>
</trkpt>
<trkpt lat="-27.2744378" lon="151.2900639">
  <ele>381.84</ele>
  <time>2026-09-01T19:58:54Z</time>
  <course>31.0</course>
  <speed>0.04</speed>
  <fix>3d</fix>
</trkpt>
<trkpt lat="-27.2744378" lon="151.2900638">
  <ele>382.62</ele>
  <time>2026-09-01T19:58:54Z</time>
  <course>10.77</course>
  <speed>0.01414213562373095</speed>
  <fix>3d</fix>
</trkpt>
<trkpt lat="-27.2744378" lon="151.2900639">
  <ele>381.84</ele>
  <time>2026-09-01T19:58:54Z</time>
  <course>31.0</course>
  <speed>0.04</speed>
  <fix>3d</fix>
</trkpt>
<trkpt lat="-27.2744378" lon="151.2900638">
  <ele>382.88</ele>
  <time>2026-09-01T19:58:54Z</time>
  <course>10.77</course>
  <speed>0.01</speed>
  <fix>3d</fix>
</trkpt>
<trkpt lat="-27.2744377" lon="151.2900639">
  <ele>382.33</ele>
  <time>2026-09-01T19:58:54Z</time>
  <course>36.81</course>
  <speed>0.03</speed>
  <fix>3d</fix>
</trkpt>
<trkpt lat="-27.2744378" lon="151.2900639">
  <ele>383.12</ele>
  <time>2026-09-01T19:58:54Z</time>
  <course>10.77</course>
  <speed>0.01</speed>
  <fix>3d</fix>
</trkpt>
<trkpt lat="-27.2744377" lon="151.2900639">
  <ele>382.33</ele>
  <time>2026-09-01T19:58:54Z</time>
  <course>36.81</course>
  <speed>0.03</speed>
  <fix>3d</fix>
</trkpt>
<trkpt lat="-27.2744378" lon="151.2900639">
  <ele>383.37</ele>
  <time>2026-09-01T19:58:54Z</time>
  <course>10.76</course>
  <speed>0.01</speed>
  <fix>3d</fix>
</trkpt>
<trkpt lat="-27.2744377" lon="151.290064">
  <ele>382.82</ele>
  <time>2026-09-01T19:58:54Z</time>
  <course>44.13</course>
  <speed>0.02</speed>
  <fix>3d</fix>
</trkpt>
<trkpt lat="-27.2744378" lon="151.2900639">
  <ele>383.62</ele>
  <time>2026-09-01T19:58:54Z</time>
  <course>10.75</course>
  <speed>0.01</speed>
  <fix>3d</fix>
</trkpt>
<trkpt lat="-27.2744377" lon="151.290064">
  <ele>382.82</ele>
  <time>2026-09-01T19:58:54Z</time>
  <course>44.13</course>
  <speed>0.02</speed>
  <fix>3d</fix>
</trkpt>
<trkpt lat="-27.2744377" lon="151.2900639">
  <ele>383.87</ele>
  <time>2026-09-01T19:58:54Z</time>
  <course>10.74</course>
  <speed>0.01</speed>
  <fix>3d</fix>
</trkpt>
<trkpt lat="-27.2744376" lon="151.290064">
  <ele>383.32</ele>
  <time>2026-09-01T19:58:54Z</time>
  <course>53.64</course>
  <speed>0.02</speed>
  <fix>3d</fix>
</trkpt>
<trkpt lat="-27.2744377" lon="151.2900639">
  <ele>384.12</ele>
  <time>2026-09-01T19:58:54Z</time>
  <course>10.74</course>
  <speed>0.01</speed>
  <fix>3d</fix>
</trkpt>
<trkpt lat="-27.2744376" lon="151.290064">
  <ele>383.32</ele>
  <time>2026-09-01T19:58:54Z</time>
  <course>53.64</course>
  <speed>0.02</speed>
  <fix>3d</fix>
</trkpt>
<trkpt lat="-27.2744377" lon="151.290064">
  <ele>384.38</ele>
  <time>2026-09-01T19:58:54Z</time>
  <course>10.74</course>
  <speed>0.01</speed>
  <fix>3d</fix>
</trkpt>
<trkpt lat="-27.2744376" lon="151.290064">
  <ele>383.82</ele>
  <time>2026-09-01T19:58:54Z</time>
  <course>66.72</course>
  <speed>0.01</speed>
  <fix>3d</fix>
</trkpt>
<trkpt lat="-27.2744377" lon="151.290064">
  <ele>384.63</ele>
  <time>2026-09-01T19:58:54Z</time>
  <course>10.74</course>
  <speed>0.01</speed>
  <fix>3d</fix>
</trkpt>
<trkpt lat="-27.2744376" lon="151.290064">
  <ele>383.82</ele>
  <time>2026-09-01T19:58:54Z</time>
  <course>66.72</course>
  <speed>0.01</speed>
  <fix>3d</fix>
</trkpt>
<trkpt lat="-27.2744377" lon="151.290064">
  <ele>384.88</ele>
  <time>2026-09-01T19:58:54Z</time>
  <course>10.74</course>
  <speed>0.01</speed>
  <fix>3d</fix>
</trkpt>
<trkpt lat="-27.2744376" lon="151.2900641">
  <ele>384.32</ele>
  <time>2026-09-01T19:58:54Z</time>
  <course>82.16</course>
  <speed>0.01</speed>
  <fix>3d</fix>
</trkpt>
<trkpt lat="-27.2744377" lon="151.290064">
  <ele>385.13</ele>
  <time>2026-09-01T19:58:54Z</time>
  <course>10.74</course>
  <speed>0.01</speed>
  <fix>3d</fix>
</trkpt>
<trkpt lat="-27.2744376" lon="151.2900641">
  <ele>384.32</ele>
  <time>2026-09-01T19:58:54Z</time>
  <course>82.16</course>
  <speed>0.01</speed>
  <fix>3d</fix>
</trkpt>
<trkpt lat="-27.2744377" lon="151.290064">
  <ele>385.38</ele>
  <time>2026-09-01T19:58:54Z</time>
  <course>10.72</course>
  <speed>0.01</speed>
  <fix>3d</fix>
</trkpt>
<trkpt lat="-27.2744376" lon="151.2900641">
  <ele>384.82</ele>
  <time>2026-09-01T19:58:54Z</time>
  <course>100.27</course>
  <speed>0.01</speed>
  <fix>3d</fix>
</trkpt>
<trkpt lat="-27.2744377" lon="151.290064">
  <ele>385.63</ele>
  <time>2026-09-01T19:58:54Z</time>
  <course>10.71</course>
  <speed>0.01</speed>
  <fix>3d</fix>
</trkpt>
<trkpt lat="-27.2744376" lon="151.2900641">
  <ele>384.82</ele>
  <time>2026-09-01T19:58:54Z</time>
  <course>100.27</course>
  <speed>0.01</speed>
  <fix>3d</fix>
</trkpt>
<trkpt lat="-27.2744377" lon="151.290064">
  <ele>385.88</ele>
  <time>2026-09-01T19:58:54Z</time>
  <course>10.7</course>
  <speed>0.02</speed>
  <fix>3d</fix>
</trkpt>
<trkpt lat="-27.2744376" lon="151.2900641">
  <ele>385.32</ele>
  <time>2026-09-01T19:58:54Z</time>
  <course>119.43</course>
  <speed>0.01</speed>
  <fix>3d</fix>
</trkpt>
<trkpt lat="-27.2744377" lon="151.2900641">
  <ele>386.12</ele>
  <time>2026-09-01T19:58:54Z</time>
  <course>10.69</course>
  <speed>0.02</speed>
  <fix>3d</fix>
</trkpt>
<trkpt lat="-27.2744376" lon="151.2900641">
  <ele>385.32</ele>
  <time>2026-09-01T19:58:54Z</time>
  <course>119.43</course>
  <speed>0.01</speed>
  <fix>3d</fix>
</trkpt>
<trkpt lat="-27.2744377" lon="151.2900641">
  <ele>386.36</ele>
  <time>2026-09-01T19:58:54Z</time>
  <course>10.69</course>
  <speed>0.02</speed>
  <fix>3d</fix>
</trkpt>
<trkpt lat="-27.2744376" lon="151.2900641">
  <ele>385.81</ele>
  <time>2026-09-01T19:58:54Z</time>
  <course>133.6</course>
  <speed>0.01</speed>
  <fix>3d</fix>
</trkpt>
<trkpt lat="-27.2744377" lon="151.2900641">
  <ele>386.6</ele>
  <time>2026-09-01T19:58:54Z</time>
  <course>10.68</course>
  <speed>0.02</speed>
  <fix>3d</fix>
</trkpt>
<trkpt lat="-27.2744376" lon="151.2900641">
  <ele>385.81</ele>
  <time>2026-09-01T19:58:54Z</time>
  <course>133.6</course>
  <speed>0.01</speed>
  <fix>3d</fix>
</trkpt>
<trkpt lat="-27.2744377" lon="151.2900641">
  <ele>386.82</ele>
  <time>2026-09-01T19:58:54Z</time>
  <course>10.68</course>
  <speed>0.02</speed>
  <fix>3d</fix>
</trkpt>
<trkpt lat="-27.2744376" lon="151.2900642">
  <ele>386.3</ele>
  <time>2026-09-01T19:58:54Z</time>
  <course>147.0</course>
  <speed>0.01</speed>
  <fix>3d</fix>
</trkpt>
<trkpt lat="-27.2744377" lon="151.2900641">
  <ele>387.04</ele>
  <time>2026-09-01T19:58:54Z</time>
  <course>10.68</course>
  <speed>0.03</speed>
  <fix>3d</fix>
</trkpt>
<trkpt lat="-27.2744376" lon="151.2900642">
  <ele>386.3</ele>
  <time>2026-09-01T19:58:54Z</time>
  <course>147.0</course>
  <speed>0.01</speed>
  <fix>3d</fix>
</trkpt>
<trkpt lat="-27.2744377" lon="151.2900641">
  <ele>387.24</ele>
  <time>2026-09-01T19:58:54Z</time>
  <course>10.67</course>
  <speed>0.04</speed>
  <fix>3d</fix>
</trkpt>
<trkpt lat="-27.2744376" lon="151.2900642">
  <ele>386.76</ele>
  <time>2026-09-01T19:58:54Z</time>
  <course>163.33</course>
  <speed>0.02</speed>
  <fix>3d</fix>
</trkpt>
<trkpt lat="-27.2744378" lon="151.2900641">
  <ele>387.42</ele>
  <time>2026-09-01T19:58:54Z</time>
  <course>10.67</course>
  <speed>0.05</speed>
  <fix>3d</fix>
</trkpt>
<trkpt lat="-27.2744376" lon="151.2900642">
  <ele>386.76</ele>
  <time>2026-09-01T19:58:54Z</time>
  <course>163.33</course>
  <speed>0.02</speed>
  <fix>3d</fix>
</trkpt>
<trkpt lat="-27.2744378" lon="151.2900641">
  <ele>387.58</ele>
  <time>2026-09-01T19:58:54Z</time>
  <course>10.67</course>
  <speed>0.07</speed>
  <fix>3d</fix>
</trkpt>
<trkpt lat="-27.2744376" lon="151.2900642">
  <ele>387.18</ele>
  <time>2026-09-01T19:58:54Z</time>
  <course>176.26</course>
  <speed>0.03</speed>
  <fix>3d</fix>
</trkpt>
<trkpt lat="-27.2744379" lon="151.2900641">
  <ele>387.73</ele>
  <time>2026-09-01T19:58:54Z</time>
  <course>10.72</course>
  <speed>0.08062257748298549</speed>
  <fix>3d</fix>
</trkpt>
<trkpt lat="-27.2744376" lon="151.2900642">
  <ele>387.18</ele>
  <time>2026-09-01T19:58:54Z</time>
  <course>176.26</course>
  <speed>0.03</speed>
  <fix>3d</fix>
</trkpt>
<trkpt lat="-27.2744379" lon="151.2900641">
  <ele>387.85</ele>
  <time>2026-09-01T19:58:54Z</time>
  <course>10.76</course>
  <speed>0.11045361017187261</speed>
  <fix>3d</fix>
</trkpt>
<trkpt lat="-27.2744377" lon="151.2900642">
  <ele>387.52</ele>
  <time>2026-09-01T19:58:54Z</time>
  <course>184.82</course>
  <speed>0.06</speed>
  <fix>3d</fix>
</trkpt>
<trkpt lat="-27.274438" lon="151.2900641">
  <ele>387.95</ele>
  <time>2026-09-01T19:58:54Z</time>
  <course>10.78</course>
  <speed>0.130384048104053</speed>
  <fix>3d</fix>
</trkpt>
<trkpt lat="-27.2744377" lon="151.2900642">
  <ele>387.52</ele>
  <time>2026-09-01T19:58:54Z</time>
  <course>184.82</course>
  <speed>0.06</speed>
  <fix>3d</fix>
</trkpt>
<trkpt lat="-27.2744382" lon="151.2900641">
  <ele>388.02</ele>
  <time>2026-09-01T19:58:54Z</time>
  <course>10.77</course>
  <speed>0.15132745950421556</speed>
  <fix>3d</fix>
</trkpt>
<trkpt lat="-27.2744379" lon="151.2900642">
  <ele>387.78</ele>
  <time>2026-09-01T19:58:54Z</time>
  <course>187.97</course>
  <speed>0.1</speed>
  <fix>3d</fix>
</trkpt>
<trkpt lat="-27.2744383" lon="151.2900641">
  <ele>388.07</ele>
  <time>2026-09-01T19:58:54Z</time>
  <course>10.75</course>
  <speed>0.18110770276274835</speed>
  <fix>3d</fix>
</trkpt>
<trkpt lat="-27.2744379" lon="151.2900642">
  <ele>387.78</ele>
  <time>2026-09-01T19:58:54Z</time>
  <course>187.97</course>
  <speed>0.1</speed>
  <fix>3d</fix>
</trkpt>
<trkpt lat="-27.2744385" lon="151.2900641">
  <ele>388.11</ele>
  <time>2026-09-01T19:58:54Z</time>
  <course>10.71</course>
  <speed>0.21213203435596426</speed>
  <fix>3d</fix>
</trkpt>
<trkpt lat="-27.2744381" lon="151.2900642">
  <ele>387.96</ele>
  <time>2026-09-01T19:58:54Z</time>
  <course>188.37</course>
  <speed>0.15</speed>
  <fix>3d</fix>
</trkpt>
<trkpt lat="-27.2744387" lon="151.2900641">
  <ele>388.12</ele>
  <time>2026-09-01T19:58:54Z</time>
  <course>10.66</course>
  <speed>0.23194827009486402</speed>
  <fix>3d</fix>
</trkpt>
<trkpt lat="-27.2744381" lon="151.2900642">
  <ele>387.96</ele>
  <time>2026-09-01T19:58:54Z</time>
  <course>188.37</course>
  <speed>0.15</speed>
  <fix>3d</fix>
</trkpt>
<trkpt lat="-27.2744389" lon="151.2900641">
  <ele>388.12</ele>
  <time>2026-09-01T19:58:54Z</time>
  <course>10.6</course>
  <speed>0.25317977802344327</speed>
  <fix>3d</fix>
</trkpt>
<trkpt lat="-27.2744384" lon="151.2900641">
  <ele>388.05</ele>
  <time>2026-09-01T19:58:54Z</time>
  <course>188.55</course>
  <speed>0.2</speed>
  <fix>3d</fix>
</trkpt>
<trkpt lat="-27.2744391" lon="151.290064">
  <ele>388.11</ele>
  <time>2026-09-01T19:58:54Z</time>
  <course>10.55</course>
  <speed>0.27294688127912364</speed>
  <fix>3d</fix>
</trkpt>
<trkpt lat="-27.2744384" lon="151.2900641">
  <ele>388.05</ele>
  <time>2026-09-01T19:58:54Z</time>
  <course>188.55</course>
  <speed>0.2</speed>
  <fix>3d</fix>
</trkpt>
<trkpt lat="-27.2744393" lon="151.290064">
  <ele>388.09</ele>
  <time>2026-09-01T19:58:54Z</time>
  <course>10.51</course>
  <speed>0.29274562336608895</speed>
  <fix>3d</fix>
</trkpt>
<trkpt lat="-27.2744388" lon="151.2900641">
  <ele>388.07</ele>
  <time>2026-09-01T19:58:54Z</time>
  <course>188.54</course>
  <speed>0.25</speed>
  <fix>3d</fix>
</trkpt>
<trkpt lat="-27.2744396" lon="151.2900639">
  <ele>388.06</ele>
  <time>2026-09-01T19:58:54Z</time>
  <course>10.47</course>
  <speed>0.3026549190084311</speed>
  <fix>3d</fix>
</trkpt>
<trkpt lat="-27.2744388" lon="151.2900641">
  <ele>388.07</ele>
  <time>2026-09-01T19:58:54Z</time>
  <course>188.54</course>
  <speed>0.25</speed>
  <fix>3d</fix>
</trkpt>
<trkpt lat="-27.2744399" lon="151.2900639">
  <ele>388.03</ele>
  <time>2026-09-01T19:58:54Z</time>
  <course>10.45</course>
  <speed>0.32249030993194194</speed>
  <fix>3d</fix>
</trkpt>
<trkpt lat="-27.2744393" lon="151.290064">
  <ele>388.05</ele>
  <time>2026-09-01T19:58:54Z</time>
  <course>188.46</course>
  <speed>0.28</speed>
  <fix>3d</fix>
</trkpt>
<trkpt lat="-27.2744401" lon="151.2900639">
  <ele>388.01</ele>
  <time>2026-09-01T19:58:54Z</time>
  <course>10.43</course>
  <speed>0.32249030993194194</speed>
  <fix>3d</fix>
</trkpt>
<trkpt lat="-27.2744393" lon="151.290064">
  <ele>388.05</ele>
  <time>2026-09-01T19:58:54Z</time>
  <course>188.46</course>
  <speed>0.28</speed>
  <fix>3d</fix>
</trkpt>
<trkpt lat="-27.2744404" lon="151.2900638">
  <ele>387.99</ele>
  <time>2026-09-01T19:58:54Z</time>
  <course>10.43</course>
  <speed>0.33241540277189324</speed>
  <fix>3d</fix>
</trkpt>
<trkpt lat="-27.2744398" lon="151.2900639">
  <ele>388.0</ele>
  <time>2026-09-01T19:58:54Z</time>
  <course>188.39</course>
  <speed>0.31</speed>
  <fix>3d</fix>
</trkpt>
<trkpt lat="-27.2744407" lon="151.2900638">
  <ele>387.97</ele>
  <time>2026-09-01T19:58:54Z</time>
  <course>10.43</course>
  <speed>0.33241540277189324</speed>
  <fix>3d</fix>
</trkpt>
<trkpt lat="-27.2744398" lon="151.2900639">
  <ele>388.0</ele>
  <time>2026-09-01T19:58:54Z</time>
  <course>188.39</course>
  <speed>0.31</speed>
  <fix>3d</fix>
</trkpt>
<trkpt lat="-27.274441" lon="151.2900637">
  <ele>387.95</ele>
  <time>2026-09-01T19:58:54Z</time>
  <course>10.44</course>
  <speed>0.33241540277189324</speed>
  <fix>3d</fix>
</trkpt>
<trkpt lat="-27.2744404" lon="151.2900638">
  <ele>387.96</ele>
  <time>2026-09-01T19:58:54Z</time>
  <course>188.37</course>
  <speed>0.32</speed>
  <fix>3d</fix>
</trkpt>
<trkpt lat="-27.2744413" lon="151.2900637">
  <ele>387.95</ele>
  <time>2026-09-01T19:58:54Z</time>
  <course>10.44</course>
  <speed>0.33241540277189324</speed>
  <fix>3d</fix>
</trkpt>
<trkpt lat="-27.2744404" lon="151.2900638">
  <ele>387.96</ele>
  <time>2026-09-01T19:58:54Z</time>
  <course>188.37</course>
  <speed>0.32</speed>
  <fix>3d</fix>
</trkpt>
<trkpt lat="-27.2744416" lon="151.2900636">
  <ele>387.94</ele>
  <time>2026-09-01T19:58:54Z</time>
  <course>10.44</course>
  <speed>0.32249030993194194</speed>
  <fix>3d</fix>
</trkpt>
<trkpt lat="-27.274441" lon="151.2900637">
  <ele>387.93</ele>
  <time>2026-09-01T19:58:54Z</time>
  <course>188.37</course>
  <speed>0.33</speed>
  <fix>3d</fix>
</trkpt>
<trkpt lat="-27.2744419" lon="151.2900636">
  <ele>387.94</ele>
  <time>2026-09-01T19:58:54Z</time>
  <course>10.44</course>
  <speed>0.32249030993194194</speed>
  <fix>3d</fix>
</trkpt>
<trkpt lat="-27.274441" lon="151.2900637">
  <ele>387.93</ele>
  <time>2026-09-01T19:58:54Z</time>
  <course>188.37</course>
  <speed>0.33</speed>
  <fix>3d</fix>
</trkpt>
<trkpt lat="-27.2744421" lon="151.2900636">
  <ele>387.95</ele>
  <time>2026-09-01T19:58:54Z</time>
  <course>10.42</course>
  <speed>0.3125699921617557</speed>
  <fix>3d</fix>
</trkpt>
<trkpt lat="-27.2744416" lon="151.2900636">
  <ele>387.91</ele>
  <time>2026-09-01T19:58:54Z</time>
  <course>188.38</course>
  <speed>0.32</speed>
  <fix>3d</fix>
</trkpt>
<trkpt lat="-27.2744424" lon="151.2900635">
  <ele>387.95</ele>
  <time>2026-09-01T19:58:54Z</time>
  <course>10.4</course>
  <speed>0.3014962686336267</speed>
  <fix>3d</fix>
</trkpt>
<trkpt lat="-27.2744416" lon="151.2900636">
  <ele>387.91</ele>
  <time>2026-09-01T19:58:54Z</time>
  <course>188.38</course>
  <speed>0.32</speed>
  <fix>3d</fix>
</trkpt>
<trkpt lat="-27.2744427" lon="151.2900635">
  <ele>387.96</ele>
  <time>2026-09-01T19:58:54Z</time>
  <course>10.37</course>
  <speed>0.291547594742265</speed>
  <fix>3d</fix>
</trkpt>
<trkpt lat="-27.2744422" lon="151.2900635">
  <ele>387.91</ele>
  <time>2026-09-01T19:58:54Z</time>
  <course>188.37</course>
  <speed>0.31</speed>
  <fix>3d</fix>
</trkpt>
<trkpt lat="-27.2744429" lon="151.2900634">
  <ele>387.98</ele>
  <time>2026-09-01T19:58:54Z</time>
  <course>10.35</course>
  <speed>0.2816025568065745</speed>
  <fix>3d</fix>
</trkpt>
<trkpt lat="-27.2744422" lon="151.2900635">
  <ele>387.91</ele>
  <time>2026-09-01T19:58:54Z</time>
  <course>188.37</course>
  <speed>0.31</speed>
  <fix>3d</fix>
</trkpt>
<trkpt lat="-27.2744432" lon="151.2900634">
  <ele>387.99</ele>
  <time>2026-09-01T19:58:54Z</time>
  <course>10.32</course>
  <speed>0.27166155414412246</speed>
  <fix>3d</fix>
</trkpt>
<trkpt lat="-27.2744427" lon="151.2900634">
  <ele>387.94</ele>
  <time>2026-09-01T19:58:54Z</time>
  <course>188.35</course>
  <speed>0.29</speed>
  <fix>3d</fix>
</trkpt>
<trkpt lat="-27.2744434" lon="151.2900634">
  <ele>388.01</ele>
  <time>2026-09-01T19:58:54Z</time>
  <course>10.3</course>
  <speed>0.260768096208106</speed>
  <fix>3d</fix>
</trkpt>
<trkpt lat="-27.2744427" lon="151.2900634">
  <ele>387.94</ele>
  <time>2026-09-01T19:58:54Z</time>
  <course>188.35</course>
  <speed>0.29</speed>
  <fix>3d</fix>
</trkpt>
<trkpt lat="-27.2744436" lon="151.2900633">
  <ele>388.02</ele>
  <time>2026-09-01T19:58:54Z</time>
  <course>10.29</course>
  <speed>0.24083189157584592</speed>
  <fix>3d</fix>
</trkpt>
<trkpt lat="-27.2744432" lon="151.2900633">
  <ele>387.97</ele>
  <time>2026-09-01T19:58:54Z</time>
  <course>188.34</course>
  <speed>0.27</speed>
  <fix>3d</fix>
</trkpt>
<trkpt lat="-27.2744438" lon="151.2900633">
  <ele>388.03</ele>
  <time>2026-09-01T19:58:54Z</time>
  <course>10.29</course>
  <speed>0.2308679276123039</speed>
  <fix>3d</fix>
</trkpt>
<trkpt lat="-27.2744432" lon="151.2900633">
  <ele>387.97</ele>
  <time>2026-09-01T19:58:54Z</time>
  <course>188.34</course>
  <speed>0.27</speed>
  <fix>3d</fix>
</trkpt>
<trkpt lat="-27.274444" lon="151.2900633">
  <ele>388.04</ele>
  <time>2026-09-01T19:58:54Z</time>
  <course>10.3</course>
  <speed>0.2109502310972899</speed>
  <fix>3d</fix>
</trkpt>
<trkpt lat="-27.2744437" lon="151.2900632">
  <ele>388.01</ele>
  <time>2026-09-01T19:58:54Z</time>
  <course>188.5</course>
  <speed>0.24</speed>
  <fix>3d</fix>
</trkpt>
<trkpt lat="-27.2744442" lon="151.2900632">
  <ele>388.05</ele>
  <time>2026-09-01T19:58:54Z</time>
  <course>10.32</course>
  <speed>0.191049731745428</speed>
  <fix>3d</fix>
</trkpt>
<trkpt lat="-27.2744437" lon="151.2900632">
  <ele>388.01</ele>
  <time>2026-09-01T19:58:54Z</time>
  <course>188.5</course>
  <speed>0.24</speed>
  <fix>3d</fix>
</trkpt>
<trkpt lat="-27.2744444" lon="151.2900632">
  <ele>388.06</ele>
  <time>2026-09-01T19:58:54Z</time>
  <course>10.35</course>
  <speed>0.18027756377319945</speed>
  <fix>3d</fix>
</trkpt>
<trkpt lat="-27.274444" lon="151.2900632">
  <ele>388.04</ele>
  <time>2026-09-01T19:58:54Z</time>
  <course>189.06</course>
  <speed>0.21</speed>
  <fix>3d</fix>
</trkpt>
<trkpt lat="-27.2744445" lon="151.2900632">
  <ele>388.06</ele>
  <time>2026-09-01T19:58:54Z</time>
  <course>10.38</course>
  <speed>0.16031219541881397</speed>
  <fix>3d</fix>
</trkpt>
<trkpt lat="-27.274444" lon="151.2900632">
  <ele>388.04</ele>
  <time>2026-09-01T19:58:54Z</time>
  <course>189.06</course>
  <speed>0.21</speed>
  <fix>3d</fix>
</trkpt>
<trkpt lat="-27.2744447" lon="151.2900632">
  <ele>388.07</ele>
  <time>2026-09-01T19:58:54Z</time>
  <course>10.41</course>
  <speed>0.140356688476182</speed>
  <fix>3d</fix>
</trkpt>
<trkpt lat="-27.2744444" lon="151.2900631">
  <ele>388.07</ele>
  <time>2026-09-01T19:58:54Z</time>
  <course>190.32</course>
  <speed>0.17</speed>
  <fix>3d</fix>
</trkpt>
<trkpt lat="-27.2744448" lon="151.2900631">
  <ele>388.07</ele>
  <time>2026-09-01T19:58:54Z</time>
  <course>10.44</course>
  <speed>0.12041594578792296</speed>
  <fix>3d</fix>
</trkpt>
<trkpt lat="-27.2744444" lon="151.2900631">
  <ele>388.07</ele>
  <time>2026-09-01T19:58:54Z</time>
  <course>190.32</course>
  <speed>0.17</speed>
  <fix>3d</fix>
</trkpt>
<trkpt lat="-27.2744449" lon="151.2900631">
  <ele>388.07</ele>
  <time>2026-09-01T19:58:54Z</time>
  <course>10.47</course>
  <speed>0.1004987562112089</speed>
  <fix>3d</fix>
</trkpt>
<trkpt lat="-27.2744446" lon="151.2900631">
  <ele>388.08</ele>
  <time>2026-09-01T19:58:54Z</time>
  <course>192.58</course>
  <speed>0.14</speed>
  <fix>3d</fix>
</trkpt>
<trkpt lat="-27.2744449" lon="151.2900631">
  <ele>388.07</ele>
  <time>2026-09-01T19:58:54Z</time>
  <course>10.5</course>
  <speed>0.08062257748298549</speed>
  <fix>3d</fix>
</trkpt>
<trkpt lat="-27.2744446" lon="151.2900631">
  <ele>388.08</ele>
  <time>2026-09-01T19:58:54Z</time>
  <course>192.58</course>
  <speed>0.14</speed>
  <fix>3d</fix>
</trkpt>
<trkpt lat="-27.274445" lon="151.2900631">
  <ele>388.06</ele>
  <time>2026-09-01T19:58:54Z</time>
  <course>10.51</course>
  <speed>0.06082762530298219</speed>
  <fix>3d</fix>
</trkpt>
<trkpt lat="-27.2744449" lon="151.290063">
  <ele>388.09</ele>
  <time>2026-09-01T19:58:54Z</time>
  <course>196.59</course>
  <speed>0.1</speed>
  <fix>3d</fix>
</trkpt>
<trkpt lat="-27.2744451" lon="151.2900631">
  <ele>388.06</ele>
  <time>2026-09-01T19:58:54Z</time>
  <course>10.52</course>
  <speed>0.04</speed>
  <fix>3d</fix>
</trkpt>
<trkpt lat="-27.2744449" lon="151.290063">
  <ele>388.09</ele>
  <time>2026-09-01T19:58:54Z</time>
  <course>196.59</course>
  <speed>0.1</speed>
  <fix>3d</fix>
</trkpt>
<trkpt lat="-27.2744451" lon="151.2900631">
  <ele>388.06</ele>
  <time>2026-09-01T19:58:55Z</time>
  <course>10.52</course>
  <speed>0.02</speed>
  <fix>3d</fix>
</trkpt>
<trkpt lat="-27.274445" lon="151.290063">
  <ele>388.09</ele>
  <time>2026-09-01T19:58:55Z</time>
  <course>205.75</course>
  <speed>0.06</speed>
  <fix>3d</fix>
</trkpt>
<trkpt lat="-27.2744451" lon="151.290063">
  <ele>388.06</ele>
  <time>2026-09-01T19:58:55Z</time>
  <course>10.51</course>
  <speed>0.0</speed>
  <fix>3d</fix>
</trkpt>
<trkpt lat="-27.274445" lon="151.290063">
  <ele>388.09</ele>
  <time>2026-09-01T19:58:55Z</time>
  <course>205.75</course>
  <speed>0.06</speed>
  <fix>3d</fix>
</trkpt>
<trkpt lat="-27.2744451" lon="151.290063">
  <ele>388.06</ele>
  <time>2026-09-01T19:58:55Z</time>
  <course>10.5</course>
  <speed>0.01</speed>
  <fix>3d</fix>
</trkpt>
<trkpt lat="-27.2744451" lon="151.2900629">
  <ele>388.09</ele>
  <time>2026-09-01T19:58:55Z</time>
  <course>238.92</course>
  <speed>0.03</speed>
  <fix>3d</fix>
</trkpt>
<trkpt lat="-27.274445" lon="151.290063">
  <ele>388.06</ele>
  <time>2026-09-01T19:58:55Z</time>
  <course>10.49</course>
  <speed>0.03</speed>
  <fix>3d</fix>
</trkpt>
<trkpt lat="-27.2744451" lon="151.2900629">
  <ele>388.09</ele>
  <time>2026-09-01T19:58:55Z</time>
  <course>238.92</course>
  <speed>0.03</speed>
  <fix>3d</fix>
</trkpt>
<trkpt lat="-27.274445" lon="151.290063">
  <ele>388.05</ele>
  <time>2026-09-01T19:58:55Z</time>
  <course>10.48</course>
  <speed>0.05</speed>
  <fix>3d</fix>
</trkpt>
<trkpt lat="-27.2744451" lon="151.2900628">
  <ele>388.09</ele>
  <time>2026-09-01T19:58:55Z</time>
  <course>317.98</course>
  <speed>0.03</speed>
  <fix>3d</fix>
</trkpt>
<trkpt lat="-27.2744449" lon="151.290063">
  <ele>388.05</ele>
  <time>2026-09-01T19:58:55Z</time>
  <course>10.47</course>
  <speed>0.07</speed>
  <fix>3d</fix>
</trkpt>
<trkpt lat="-27.2744451" lon="151.2900628">
  <ele>388.09</ele>
  <time>2026-09-01T19:58:55Z</time>
  <course>317.98</course>
  <speed>0.03</speed>
  <fix>3d</fix>
</trkpt>
<trkpt lat="-27.274445" lon="151.2900629">
  <ele>388.05</ele>
  <time>2026-09-01T19:58:55Z</time>
  <course>10.47</course>
  <speed>0.09</speed>
  <fix>3d</fix>
</trkpt>
<trkpt lat="-27.2744451" lon="151.2900628">
  <ele>388.09</ele>
  <time>2026-09-01T19:58:55Z</time>
  <course>342.62</course>
  <speed>0.07</speed>
  <fix>3d</fix>
</trkpt>
<trkpt lat="-27.2744449" lon="151.2900629">
  <ele>388.05</ele>
  <time>2026-09-01T19:58:55Z</time>
  <course>10.48</course>
  <speed>0.11</speed>
  <fix>3d</fix>
</trkpt>
<trkpt lat="-27.2744451" lon="151.2900628">
  <ele>388.09</ele>
  <time>2026-09-01T19:58:55Z</time>
  <course>342.62</course>
  <speed>0.07</speed>
  <fix>3d</fix>
</trkpt>
<trkpt lat="-27.2744447" lon="151.2900629">
  <ele>388.05</ele>
  <time>2026-09-01T19:58:55Z</time>
  <course>10.48</course>
  <speed>0.13</speed>
  <fix>3d</fix>
</trkpt>
<trkpt lat="-27.274445" lon="151.2900627">
  <ele>388.09</ele>
  <time>2026-09-01T19:58:55Z</time>
  <course>350.54</course>
  <speed>0.1</speed>
  <fix>3d</fix>
</trkpt>
<trkpt lat="-27.2744446" lon="151.2900629">
  <ele>388.05</ele>
  <time>2026-09-01T19:58:55Z</time>
  <course>10.48</course>
  <speed>0.14</speed>
  <fix>3d</fix>
</trkpt>
<trkpt lat="-27.274445" lon="151.2900627">
  <ele>388.09</ele>
  <time>2026-09-01T19:58:55Z</time>
  <course>350.54</course>
  <speed>0.1</speed>
  <fix>3d</fix>
</trkpt>
<trkpt lat="-27.2744445" lon="151.2900629">
  <ele>388.05</ele>
  <time>2026-09-01T19:58:55Z</time>
  <course>10.47</course>
  <speed>0.16031219541881397</speed>
  <fix>3d</fix>
</trkpt>
<trkpt lat="-27.2744447" lon="151.2900627">
  <ele>388.1</ele>
  <time>2026-09-01T19:58:55Z</time>
  <course>354.45</course>
  <speed>0.14</speed>
  <fix>3d</fix>
</trkpt>
<trkpt lat="-27.2744443" lon="151.2900629">
  <ele>388.05</ele>
  <time>2026-09-01T19:58:55Z</time>
  <course>10.47</course>
  <speed>0.18027756377319945</speed>
  <fix>3d</fix>
</trkpt>
<trkpt lat="-27.2744447" lon="151.2900627">
  <ele>388.1</ele>
  <time>2026-09-01T19:58:55Z</time>
  <course>354.45</course>
  <speed>0.14</speed>
  <fix>3d</fix>
</trkpt>
<trkpt lat="-27.2744442" lon="151.2900629">
  <ele>388.05</ele>
  <time>2026-09-01T19:58:55Z</time>
  <course>10.46</course>
  <speed>0.19026297590440447</speed>
  <fix>3d</fix>
</trkpt>
<trkpt lat="-27.2744444" lon="151.2900627">
  <ele>388.1</ele>
  <time>2026-09-01T19:58:55Z</time>
  <course>356.92</course>
  <speed>0.17</speed>
  <fix>3d</fix>
</trkpt>
<trkpt lat="-27.274444" lon="151.2900629">
  <ele>388.06</ele>
  <time>2026-09-01T19:58:55Z</time>
  <course>10.46</course>
  <speed>0.2002498439450079</speed>
  <fix>3d</fix>
</trkpt>
<trkpt lat="-27.2744444" lon="151.2900627">
  <ele>388.1</ele>
  <time>2026-09-01T19:58:55Z</time>
  <course>356.92</course>
  <speed>0.17</speed>
  <fix>3d</fix>
</trkpt>
<trkpt lat="-27.2744438" lon="151.2900629">
  <ele>388.06</ele>
  <time>2026-09-01T19:58:55Z</time>
  <course>10.45</course>
  <speed>0.22090722034374521</speed>
  <fix>3d</fix>
</trkpt>
<trkpt lat="-27.274444" lon="151.2900627">
  <ele>388.11</ele>
  <time>2026-09-01T19:58:55Z</time>
  <course>358.72</course>
  <speed>0.21</speed>
  <fix>3d</fix>
</trkpt>
<trkpt lat="-27.2744436" lon="151.2900629">
  <ele>388.06</ele>
  <time>2026-09-01T19:58:55Z</time>
  <course>10.46</course>
  <speed>0.2308679276123039</speed>
  <fix>3d</fix>
</trkpt>
<trkpt lat="-27.274444" lon="151.2900627">
  <ele>388.11</ele>
  <time>2026-09-01T19:58:55Z</time>
  <course>358.72</course>
  <speed>0.21</speed>
  <fix>3d</fix>
</trkpt>
<trkpt lat="-27.2744433" lon="151.2900629">
  <ele>388.07</ele>
  <time>2026-09-01T19:58:55Z</time>
  <course>10.46</course>
  <speed>0.24083189157584592</speed>
  <fix>3d</fix>
</trkpt>
<trkpt lat="-27.2744437" lon="151.2900627">
  <ele>388.12</ele>
  <time>2026-09-01T19:58:55Z</time>
  <course>0.1</course>
  <speed>0.23</speed>
  <fix>3d</fix>
</trkpt>
<trkpt lat="-27.2744431" lon="151.2900629">
  <ele>388.07</ele>
  <time>2026-09-01T19:58:55Z</time>
  <course>10.46</course>
  <speed>0.25079872407968906</speed>
  <fix>3d</fix>
</trkpt>
<trkpt lat="-27.2744437" lon="151.2900627">
  <ele>388.12</ele>
  <time>2026-09-01T19:58:55Z</time>
  <course>0.1</course>
  <speed>0.23</speed>
  <fix>3d</fix>
</trkpt>
<trkpt lat="-27.2744429" lon="151.2900629">
  <ele>388.08</ele>
  <time>2026-09-01T19:58:55Z</time>
  <course>10.46</course>
  <speed>0.25079872407968906</speed>
  <fix>3d</fix>
</trkpt>
<trkpt lat="-27.2744432" lon="151.2900627">
  <ele>388.13</ele>
  <time>2026-09-01T19:58:55Z</time>
  <course>1.16</course>
  <speed>0.25</speed>
  <fix>3d</fix>
</trkpt>
<trkpt lat="-27.2744426" lon="151.2900629">
  <ele>388.08</ele>
  <time>2026-09-01T19:58:55Z</time>
  <course>10.46</course>
  <speed>0.261725046566048</speed>
  <fix>3d</fix>
</trkpt>
<trkpt lat="-27.2744432" lon="151.2900627">
  <ele>388.13</ele>
  <time>2026-09-01T19:58:55Z</time>
  <course>1.16</course>
  <speed>0.25</speed>
  <fix>3d</fix>
</trkpt>
<trkpt lat="-27.2744424" lon="151.2900629">
  <ele>388.08</ele>
  <time>2026-09-01T19:58:55Z</time>
  <course>10.46</course>
  <speed>0.261725046566048</speed>
  <fix>3d</fix>
</trkpt>
<trkpt lat="-27.2744427" lon="151.2900627">
  <ele>388.14</ele>
  <time>2026-09-01T19:58:55Z</time>
  <course>2.11</course>
  <speed>0.27</speed>
  <fix>3d</fix>
</trkpt>
<trkpt lat="-27.2744421" lon="151.2900629">
  <ele>388.08</ele>
  <time>2026-09-01T19:58:55Z</time>
  <course>10.47</course>
  <speed>0.261725046566048</speed>
  <fix>3d</fix>
</trkpt>
<trkpt lat="-27.2744427" lon="151.2900627">
  <ele>388.14</ele>
  <time>2026-09-01T19:58:55Z</time>
  <course>2.11</course>
  <speed>0.27</speed>
  <fix>3d</fix>
</trkpt>
<trkpt lat="-27.2744419" lon="151.2900629">
  <ele>388.08</ele>
  <time>2026-09-01T19:58:55Z</time>
  <course>10.46</course>
  <speed>0.261725046566048</speed>
  <fix>3d</fix>
</trkpt>
<trkpt lat="-27.2744422" lon="151.2900627">
  <ele>388.15</ele>
  <time>2026-09-01T19:58:55Z</time>
  <course>3.05</course>
  <speed>0.28</speed>
  <fix>3d</fix>
</trkpt>
<trkpt lat="-27.2744416" lon="151.2900629">
  <ele>388.08</ele>
  <time>2026-09-01T19:58:55Z</time>
  <course>10.47</course>
  <speed>0.261725046566048</speed>
  <fix>3d</fix>
</trkpt>
<trkpt lat="-27.2744422" lon="151.2900627">
  <ele>388.15</ele>
  <time>2026-09-01T19:58:55Z</time>
  <course>3.05</course>
  <speed>0.28</speed>
  <fix>3d</fix>
</trkpt>
<trkpt lat="-27.2744414" lon="151.2900629">
  <ele>388.08</ele>
  <time>2026-09-01T19:58:55Z</time>
  <course>10.46</course>
  <speed>0.261725046566048</speed>
  <fix>3d</fix>
</trkpt>
<trkpt lat="-27.2744417" lon="151.2900627">
  <ele>388.15</ele>
  <time>2026-09-01T19:58:55Z</time>
  <course>3.99</course>
  <speed>0.29</speed>
  <fix>3d</fix>
</trkpt>
<trkpt lat="-27.2744411" lon="151.2900629">
  <ele>388.08</ele>
  <time>2026-09-01T19:58:55Z</time>
  <course>10.47</course>
  <speed>0.26305892875931813</speed>
  <fix>3d</fix>
</trkpt>
<trkpt lat="-27.2744417" lon="151.2900627">
  <ele>388.15</ele>
  <time>2026-09-01T19:58:55Z</time>
  <course>3.99</course>
  <speed>0.29</speed>
  <fix>3d</fix>
</trkpt>
<trkpt lat="-27.2744409" lon="151.290063">
  <ele>388.08</ele>
  <time>2026-09-01T19:58:55Z</time>
  <course>10.47</course>
  <speed>0.26305892875931813</speed>
  <fix>3d</fix>
</trkpt>
<trkpt lat="-27.2744412" lon="151.2900627">
  <ele>388.15</ele>
  <time>2026-09-01T19:58:55Z</time>
  <course>5.01</course>
  <speed>0.29</speed>
  <fix>3d</fix>
</trkpt>
<trkpt lat="-27.2744406" lon="151.290063">
  <ele>388.07</ele>
  <time>2026-09-01T19:58:55Z</time>
  <course>10.47</course>
  <speed>0.26305892875931813</speed>
  <fix>3d</fix>
</trkpt>
<trkpt lat="-27.2744412" lon="151.2900627">
  <ele>388.15</ele>
  <time>2026-09-01T19:58:55Z</time>
  <course>5.01</course>
  <speed>0.29</speed>
  <fix>3d</fix>
</trkpt>
<trkpt lat="-27.2744404" lon="151.290063">
  <ele>388.07</ele>
  <time>2026-09-01T19:58:55Z</time>
  <course>10.47</course>
  <speed>0.26305892875931813</speed>
  <fix>3d</fix>
</trkpt>
<trkpt lat="-27.2744407" lon="151.2900627">
  <ele>388.15</ele>
  <time>2026-09-01T19:58:55Z</time>
  <course>6.04</course>
  <speed>0.28</speed>
  <fix>3d</fix>
</trkpt>
<trkpt lat="-27.2744401" lon="151.290063">
  <ele>388.07</ele>
  <time>2026-09-01T19:58:55Z</time>
  <course>10.5</course>
  <speed>0.304138126514911</speed>
  <fix>3d</fix>
</trkpt>
<trkpt lat="-27.2744407" lon="151.2900627">
  <ele>388.15</ele>
  <time>2026-09-01T19:58:55Z</time>
  <course>6.04</course>
  <speed>0.28</speed>
  <fix>3d</fix>
</trkpt>
<trkpt lat="-27.2744398" lon="151.2900631">
  <ele>388.07</ele>
  <time>2026-09-01T19:58:55Z</time>
  <course>10.58</course>
  <speed>0.40607881008493907</speed>
  <fix>3d</fix>
</trkpt>
<trkpt lat="-27.2744402" lon="151.2900628">
  <ele>388.15</ele>
  <time>2026-09-01T19:58:55Z</time>
  <course>7.26</course>
  <speed>0.3</speed>
  <fix>3d</fix>
</trkpt>
<trkpt lat="-27.2744393" lon="151.2900631">
  <ele>388.06</ele>
  <time>2026-09-01T19:58:55Z</time>
  <course>10.71</course>
  <speed>0.570701322935211</speed>
  <fix>3d</fix>
</trkpt>
<trkpt lat="-27.2744402" lon="151.2900628">
  <ele>388.15</ele>
  <time>2026-09-01T19:58:55Z</time>
  <course>7.26</course>
  <speed>0.3</speed>
  <fix>3d</fix>
</trkpt>
<trkpt lat="-27.2744387" lon="151.2900633">
  <ele>388.07</ele>
  <time>2026-09-01T19:58:55Z</time>
  <course>10.88</course>
  <speed>0.7983107164506812</speed>
  <fix>3d</fix>
</trkpt>
<trkpt lat="-27.2744395" lon="151.2900629">
  <ele>388.15</ele>
  <time>2026-09-01T19:58:55Z</time>
  <course>9.03</course>
  <speed>0.45</speed>
  <fix>3d</fix>
</trkpt>
<trkpt lat="-27.2744379" lon="151.2900634">
  <ele>388.07</ele>
  <time>2026-09-01T19:58:55Z</time>
  <course>11.12</course>
  <speed>1.0868302535354821</speed>
  <fix>3d</fix>
</trkpt>
<trkpt lat="-27.2744395" lon="151.2900629">
  <ele>388.15</ele>
  <time>2026-09-01T19:58:55Z</time>
  <course>9.03</course>
  <speed>0.45</speed>
  <fix>3d</fix>
</trkpt>
<trkpt lat="-27.2744368" lon="151.2900637">
  <ele>388.07</ele>
  <time>2026-09-01T19:58:55Z</time>
  <course>11.4</course>
  <speed>1.4383671297690308</speed>
  <fix>3d</fix>
</trkpt>
<trkpt lat="-27.2744384" lon="151.2900632">
  <ele>388.16</ele>
  <time>2026-09-01T19:58:55Z</time>
  <course>10.54</course>
  <speed>0.84</speed>
  <fix>3d</fix>
</trkpt>
<trkpt lat="-27.2744353" lon="151.2900641">
  <ele>388.07</ele>
  <time>2026-09-01T19:58:55Z</time>
  <course>11.72</course>
  <speed>1.8432851108821986</speed>
  <fix>3d</fix>
</trkpt>
<trkpt lat="-27.2744384" lon="151.2900632">
  <ele>388.16</ele>
  <time>2026-09-01T19:58:55Z</time>
  <course>10.54</course>
  <speed>0.84</speed>
  <fix>3d</fix>
</trkpt>
<trkpt lat="-27.2744335" lon="151.2900646">
  <ele>388.07</ele>
  <time>2026-09-01T19:58:55Z</time>
  <course>11.99</course>
  <speed>2.3186418438387593</speed>
  <fix>3d</fix>
</trkpt>
<trkpt lat="-27.2744364" lon="151.2900636">
  <ele>388.16</ele>
  <time>2026-09-01T19:58:55Z</time>
  <course>11.72</course>
  <speed>1.47</speed>
  <fix>3d</fix>
</trkpt>
<trkpt lat="-27.2744312" lon="151.2900652">
  <ele>388.08</ele>
  <time>2026-09-01T19:58:55Z</time>
  <course>12.23</course>
  <speed>2.8595454184188087</speed>
  <fix>3d</fix>
</trkpt>
<trkpt lat="-27.2744364" lon="151.2900636">
  <ele>388.16</ele>
  <time>2026-09-01T19:58:55Z</time>
  <course>11.72</course>
  <speed>1.47</speed>
  <fix>3d</fix>
</trkpt>
<trkpt lat="-27.2744285" lon="151.2900659">
  <ele>388.09</ele>
  <time>2026-09-01T19:58:55Z</time>
  <course>12.57</course>
  <speed>3.44431415524194</speed>
  <fix>3d</fix>
</trkpt>
<trkpt lat="-27.274433" lon="151.2900644">
  <ele>388.17</ele>
  <time>2026-09-01T19:58:55Z</time>
  <course>12.65</course>
  <speed>2.35</speed>
  <fix>3d</fix>
</trkpt>
<trkpt lat="-27.2744252" lon="151.2900669">
  <ele>388.1</ele>
  <time>2026-09-01T19:58:55Z</time>
  <course>12.89</course>
  <speed>4.048530597636629</speed>
  <fix>3d</fix>
</trkpt>
<trkpt lat="-27.274433" lon="151.2900644">
  <ele>388.17</ele>
  <time>2026-09-01T19:58:55Z</time>
  <course>12.65</course>
  <speed>2.35</speed>
  <fix>3d</fix>
</trkpt>
<trkpt lat="-27.2744215" lon="151.2900679">
  <ele>388.11</ele>
  <time>2026-09-01T19:58:55Z</time>
  <course>13.26</course>
  <speed>4.648440598738463</speed>
  <fix>3d</fix>
</trkpt>
<trkpt lat="-27.2744281" lon="151.2900657">
  <ele>388.18</ele>
  <time>2026-09-01T19:58:55Z</time>
  <course>13.53</course>
  <speed>3.44</speed>
  <fix>3d</fix>
</trkpt>
<trkpt lat="-27.2744172" lon="151.2900692">
  <ele>388.12</ele>
  <time>2026-09-01T19:58:55Z</time>
  <course>13.87</course>
  <speed>5.266421935242181</speed>
  <fix>3d</fix>
</trkpt>
<trkpt lat="-27.2744281" lon="151.2900657">
  <ele>388.18</ele>
  <time>2026-09-01T19:58:55Z</time>
  <course>13.53</course>
  <speed>3.44</speed>
  <fix>3d</fix>
</trkpt>
<trkpt lat="-27.2744124" lon="151.2900707">
  <ele>388.13</ele>
  <time>2026-09-01T19:58:55Z</time>
  <course>14.62</course>
  <speed>5.875312757632567</speed>
  <fix>3d</fix>
</trkpt>
<trkpt lat="-27.274421" lon="151.2900677">
  <ele>388.19</ele>
  <time>2026-09-01T19:58:55Z</time>
  <course>14.61</course>
  <speed>4.64</speed>
  <fix>3d</fix>
</trkpt>
<trkpt lat="-27.2744071" lon="151.2900725">
  <ele>388.14</ele>
  <time>2026-09-01T19:58:55Z</time>
  <course>15.4</course>
  <speed>6.474357110941595</speed>
  <fix>3d</fix>
</trkpt>
<trkpt lat="-27.274421" lon="151.2900677">
  <ele>388.19</ele>
  <time>2026-09-01T19:58:55Z</time>
  <course>14.61</course>
  <speed>4.64</speed>
  <fix>3d</fix>
</trkpt>
<trkpt lat="-27.2744013" lon="151.2900745">
  <ele>388.14</ele>
  <time>2026-09-01T19:58:55Z</time>
  <course>16.42</course>
  <speed>7.0835725449803935</speed>
  <fix>3d</fix>
</trkpt>
<trkpt lat="-27.2744118" lon="151.2900705">
  <ele>388.21</ele>
  <time>2026-09-01T19:58:55Z</time>
  <course>16.0</course>
  <speed>5.87</speed>
  <fix>3d</fix>
</trkpt>
<trkpt lat="-27.2743951" lon="151.2900768">
  <ele>388.15</ele>
  <time>2026-09-01T19:58:55Z</time>
  <course>17.54</course>
  <speed>7.688205252202883</speed>
  <fix>3d</fix>
</trkpt>
<trkpt lat="-27.2744118" lon="151.2900705">
  <ele>388.21</ele>
  <time>2026-09-01T19:58:55Z</time>
  <course>16.0</course>
  <speed>5.87</speed>
  <fix>3d</fix>
</trkpt>
<trkpt lat="-27.2743883" lon="151.2900794">
  <ele>388.16</ele>
  <time>2026-09-01T19:58:55Z</time>
  <course>18.65</course>
  <speed>8.283103283190425</speed>
  <fix>3d</fix>
</trkpt>
<trkpt lat="-27.2744007" lon="151.2900743">
  <ele>388.22</ele>
  <time>2026-09-01T19:58:55Z</time>
  <course>17.8</course>
  <speed>7.09</speed>
  <fix>3d</fix>
</trkpt>
<trkpt lat="-27.2743811" lon="151.2900824">
  <ele>388.16</ele>
  <time>2026-09-01T19:58:55Z</time>
  <course>19.81</course>
  <speed>8.876378766141066</speed>
  <fix>3d</fix>
</trkpt>
<trkpt lat="-27.2744007" lon="151.2900743">
  <ele>388.22</ele>
  <time>2026-09-01T19:58:55Z</time>
  <course>17.8</course>
  <speed>7.09</speed>
  <fix>3d</fix>
</trkpt>
<trkpt lat="-27.2743735" lon="151.2900858">
  <ele>388.17</ele>
  <time>2026-09-01T19:58:55Z</time>
  <course>21.02</course>
  <speed>9.466176630509278</speed>
  <fix>3d</fix>
</trkpt>
<trkpt lat="-27.2743876" lon="151.2900794">
  <ele>388.24</ele>
  <time>2026-09-01T19:58:55Z</time>
  <course>20.03</course>
  <speed>8.3</speed>
  <fix>3d</fix>
</trkpt>
<trkpt lat="-27.2743655" lon="151.2900896">
  <ele>388.18</ele>
  <time>2026-09-01T19:58:55Z</time>
  <course>22.38</course>
  <speed>10.044844448770723</speed>
  <fix>3d</fix>
</trkpt>
<trkpt lat="-27.2743876" lon="151.2900794">
  <ele>388.24</ele>
  <time>2026-09-01T19:58:55Z</time>
  <course>20.03</course>
  <speed>8.3</speed>
  <fix>3d</fix>
</trkpt>
<trkpt lat="-27.2743571" lon="151.2900939">
  <ele>388.19</ele>
  <time>2026-09-01T19:58:55Z</time>
  <course>23.97</course>
  <speed>10.60990103629624</speed>
  <fix>3d</fix>
</trkpt>
<trkpt lat="-27.2743727" lon="151.2900859">
  <ele>388.25</ele>
  <time>2026-09-01T19:58:55Z</time>
  <course>22.63</course>
  <speed>9.48</speed>
  <fix>3d</fix>
</trkpt>
<trkpt lat="-27.2743484" lon="151.2900987">
  <ele>388.21</ele>
  <time>2026-09-01T19:58:55Z</time>
  <course>25.39</course>
  <speed>11.149264549736007</speed>
  <fix>3d</fix>
</trkpt>
<trkpt lat="-27.2743727" lon="151.2900859">
  <ele>388.25</ele>
  <time>2026-09-01T19:58:55Z</time>
  <course>22.63</course>
  <speed>9.48</speed>
  <fix>3d</fix>
</trkpt>
<trkpt lat="-27.2743394" lon="151.2901039">
  <ele>388.23</ele>
  <time>2026-09-01T19:58:55Z</time>
  <course>26.85</course>
  <speed>11.678463083813726</speed>
  <fix>3d</fix>
</trkpt>
<trkpt lat="-27.2743562" lon="151.2900943">
  <ele>388.27</ele>
  <time>2026-09-01T19:58:55Z</time>
  <course>25.45</course>
  <speed>10.63</speed>
  <fix>3d</fix>
</trkpt>
<trkpt lat="-27.27433" lon="151.2901098">
  <ele>388.25</ele>
  <time>2026-09-01T19:58:55Z</time>
  <course>28.38</course>
  <speed>12.198893392435235</speed>
  <fix>3d</fix>
</trkpt>
<trkpt lat="-27.2743562" lon="151.2900943">
  <ele>388.27</ele>
  <time>2026-09-01T19:58:55Z</time>
  <course>25.45</course>
  <speed>10.63</speed>
  <fix>3d</fix>
</trkpt>
<trkpt lat="-27.2743204" lon="151.2901161">
  <ele>388.28</ele>
  <time>2026-09-01T19:58:55Z</time>
  <course>29.95</course>
  <speed>12.698259723284918</speed>
  <fix>3d</fix>
</trkpt>
<trkpt lat="-27.2743383" lon="151.2901045">
  <ele>388.3</ele>
  <time>2026-09-01T19:58:55Z</time>
  <course>28.43</course>
  <speed>11.72</speed>
  <fix>3d</fix>
</trkpt>
<trkpt lat="-27.2743106" lon="151.2901231">
  <ele>388.31</ele>
  <time>2026-09-01T19:58:55Z</time>
  <course>31.59</course>
  <speed>13.20003787873353</speed>
  <fix>3d</fix>
</trkpt>
<trkpt lat="-27.2743383" lon="151.2901045">
  <ele>388.3</ele>
  <time>2026-09-01T19:58:55Z</time>
  <course>28.43</course>
  <speed>11.72</speed>
  <fix>3d</fix>
</trkpt>
<trkpt lat="-27.2743005" lon="151.2901306">
  <ele>388.35</ele>
  <time>2026-09-01T19:58:55Z</time>
  <course>33.06</course>
  <speed>13.677550950371197</speed>
  <fix>3d</fix>
</trkpt>
<trkpt lat="-27.2743193" lon="151.2901168">
  <ele>388.35</ele>
  <time>2026-09-01T19:58:55Z</time>
  <course>31.49</course>
  <speed>12.75</speed>
  <fix>3d</fix>
</trkpt>
<trkpt lat="-27.2742903" lon="151.2901387">
  <ele>388.38</ele>
  <time>2026-09-01T19:58:55Z</time>
  <course>34.46</course>
  <speed>14.141870456202037</speed>
  <fix>3d</fix>
</trkpt>
<trkpt lat="-27.2743193" lon="151.2901168">
  <ele>388.35</ele>
  <time>2026-09-01T19:58:55Z</time>
  <course>31.49</course>
  <speed>12.75</speed>
  <fix>3d</fix>
</trkpt>
<trkpt lat="-27.27428" lon="151.2901473">
  <ele>388.43</ele>
  <time>2026-09-01T19:58:55Z</time>
  <course>35.86</course>
  <speed>14.596561238867187</speed>
  <fix>3d</fix>
</trkpt>
<trkpt lat="-27.2742993" lon="151.2901314">
  <ele>388.41</ele>
  <time>2026-09-01T19:58:55Z</time>
  <course>34.51</course>
  <speed>13.73</speed>
  <fix>3d</fix>
</trkpt>
<trkpt lat="-27.2742695" lon="151.2901565">
  <ele>388.47</ele>
  <time>2026-09-01T19:58:55Z</time>
  <course>37.28</course>
  <speed>15.044244746746179</speed>
  <fix>3d</fix>
</trkpt>
<trkpt lat="-27.2742993" lon="151.2901314">
  <ele>388.41</ele>
  <time>2026-09-01T19:58:55Z</time>
  <course>34.51</course>
  <speed>13.73</speed>
  <fix>3d</fix>
</trkpt>
<trkpt lat="-27.2742589" lon="151.2901662">
  <ele>388.51</ele>
  <time>2026-09-01T19:58:55Z</time>
  <course>38.52</course>
  <speed>15.478581976395642</speed>
  <fix>3d</fix>
</trkpt>
<trkpt lat="-27.2742786" lon="151.2901484">
  <ele>388.49</ele>
  <time>2026-09-01T19:58:55Z</time>
  <course>37.41</course>
  <speed>14.66</speed>
  <fix>3d</fix>
</trkpt>
<trkpt lat="-27.2742482" lon="151.2901766">
  <ele>388.56</ele>
  <time>2026-09-01T19:58:55Z</time>
  <course>39.73</course>
  <speed>15.89171167621663</speed>
  <fix>3d</fix>
</trkpt>
<trkpt lat="-27.2742786" lon="151.2901484">
  <ele>388.49</ele>
  <time>2026-09-01T19:58:55Z</time>
  <course>37.41</course>
  <speed>14.66</speed>
  <fix>3d</fix>
</trkpt>
<trkpt lat="-27.2742375" lon="151.2901874">
  <ele>388.6</ele>
  <time>2026-09-01T19:58:55Z</time>
  <course>40.94</course>
  <speed>16.256128075282874</speed>
  <fix>3d</fix>
</trkpt>
<trkpt lat="-27.2742575" lon="151.2901675">
  <ele>388.57</ele>
  <time>2026-09-01T19:58:55Z</time>
  <course>40.13</course>
  <speed>15.54</speed>
  <fix>3d</fix>
</trkpt>
<trkpt lat="-27.2742267" lon="151.2901988">
  <ele>388.63</ele>
  <time>2026-09-01T19:58:55Z</time>
  <course>42.12</course>
  <speed>16.57084487888291</speed>
  <fix>3d</fix>
</trkpt>
<trkpt lat="-27.2742575" lon="151.2901675">
  <ele>388.57</ele>
  <time>2026-09-01T19:58:55Z</time>
  <course>40.13</course>
  <speed>15.54</speed>
  <fix>3d</fix>
</trkpt>
<trkpt lat="-27.274216" lon="151.2902106">
  <ele>388.67</ele>
  <time>2026-09-01T19:58:55Z</time>
  <course>43.35</course>
  <speed>16.85039168684218</speed>
  <fix>3d</fix>
</trkpt>
<trkpt lat="-27.274236" lon="151.2901888">
  <ele>388.64</ele>
  <time>2026-09-01T19:58:55Z</time>
  <course>42.67</course>
  <speed>16.32</speed>
  <fix>3d</fix>
</trkpt>
<trkpt lat="-27.2742053" lon="151.2902228">
  <ele>388.71</ele>
  <time>2026-09-01T19:58:55Z</time>
  <course>44.59</course>
  <speed>17.102760011179484</speed>
  <fix>3d</fix>
</trkpt>
<trkpt lat="-27.274236" lon="151.2901888">
  <ele>388.64</ele>
  <time>2026-09-01T19:58:55Z</time>
  <course>42.67</course>
  <speed>16.32</speed>
  <fix>3d</fix>
</trkpt>
<trkpt lat="-27.2741947" lon="151.2902357">
  <ele>388.74</ele>
  <time>2026-09-01T19:58:55Z</time>
  <course>45.86</course>
  <speed>17.328733363982494</speed>
  <fix>3d</fix>
</trkpt>
<trkpt lat="-27.2742144" lon="151.2902122">
  <ele>388.71</ele>
  <time>2026-09-01T19:58:55Z</time>
  <course>45.15</course>
  <speed>16.93</speed>
  <fix>3d</fix>
</trkpt>
<trkpt lat="-27.2741842" lon="151.2902488">
  <ele>388.79</ele>
  <time>2026-09-01T19:58:55Z</time>
  <course>47.23</course>
  <speed>17.549182317133752</speed>
  <fix>3d</fix>
</trkpt>
<trkpt lat="-27.2742144" lon="151.2902122">
  <ele>388.71</ele>
  <time>2026-09-01T19:58:55Z</time>
  <course>45.15</course>
  <speed>16.93</speed>
  <fix>3d</fix>
</trkpt>
<trkpt lat="-27.2741739" lon="151.2902624">
  <ele>388.83</ele>
  <time>2026-09-01T19:58:55Z</time>
  <course>48.54</course>
  <speed>17.758718985332248</speed>
  <fix>3d</fix>
</trkpt>
<trkpt lat="-27.2741932" lon="151.2902374">
  <ele>388.78</ele>
  <time>2026-09-01T19:58:55Z</time>
  <course>47.68</course>
  <speed>17.41</speed>
  <fix>3d</fix>
</trkpt>
<trkpt lat="-27.2741638" lon="151.2902764">
  <ele>388.88</ele>
  <time>2026-09-01T19:58:55Z</time>
  <course>49.9</course>
  <speed>17.964793346988436</speed>
  <fix>3d</fix>
</trkpt>
<trkpt lat="-27.2741932" lon="151.2902374">
  <ele>388.78</ele>
  <time>2026-09-01T19:58:55Z</time>
  <course>47.68</course>
  <speed>17.41</speed>
  <fix>3d</fix>
</trkpt>
<trkpt lat="-27.2741538" lon="151.2902908">
  <ele>388.93</ele>
  <time>2026-09-01T19:58:55Z</time>
  <course>51.34</course>
  <speed>18.170099064121803</speed>
  <fix>3d</fix>
</trkpt>
<trkpt lat="-27.2741724" lon="151.2902642">
  <ele>388.88</ele>
  <time>2026-09-01T19:58:55Z</time>
  <course>50.27</course>
  <speed>17.84</speed>
  <fix>3d</fix>
</trkpt>
<trkpt lat="-27.274144" lon="151.2903057">
  <ele>388.98</ele>
  <time>2026-09-01T19:58:55Z</time>
  <course>52.81</course>
  <speed>18.37644144006124</speed>
  <fix>3d</fix>
</trkpt>
<trkpt lat="-27.2741724" lon="151.2902642">
  <ele>388.88</ele>
  <time>2026-09-01T19:58:55Z</time>
  <course>50.27</course>
  <speed>17.84</speed>
  <fix>3d</fix>
</trkpt>
<trkpt lat="-27.2741346" lon="151.2903209">
  <ele>389.02</ele>
  <time>2026-09-01T19:58:55Z</time>
  <course>54.37</course>
  <speed>18.569149145827872</speed>
  <fix>3d</fix>
</trkpt>
<trkpt lat="-27.2741523" lon="151.2902928">
  <ele>388.97</ele>
  <time>2026-09-01T19:58:55Z</time>
  <course>52.97</course>
  <speed>18.25</speed>
  <fix>3d</fix>
</trkpt>
<trkpt lat="-27.2741253" lon="151.2903366">
  <ele>389.07</ele>
  <time>2026-09-01T19:58:55Z</time>
  <course>56.1</course>
  <speed>18.75843277035691</speed>
  <fix>3d</fix>
</trkpt>
<trkpt lat="-27.2741523" lon="151.2902928">
  <ele>388.97</ele>
  <time>2026-09-01T19:58:55Z</time>
  <course>52.97</course>
  <speed>18.25</speed>
  <fix>3d</fix>
</trkpt>
<trkpt lat="-27.2741164" lon="151.2903529">
  <ele>389.12</ele>
  <time>2026-09-01T19:58:55Z</time>
  <course>57.88</course>
  <speed>18.959274775159518</speed>
  <fix>3d</fix>
</trkpt>
<trkpt lat="-27.274133" lon="151.2903232">
  <ele>389.08</ele>
  <time>2026-09-01T19:58:55Z</time>
  <course>55.93</course>
  <speed>18.64</speed>
  <fix>3d</fix>
</trkpt>
<trkpt lat="-27.2741078" lon="151.2903696">
  <ele>389.16</ele>
  <time>2026-09-01T19:58:55Z</time>
  <course>59.75</course>
  <speed>19.147981616870222</speed>
  <fix>3d</fix>
</trkpt>
<trkpt lat="-27.274133" lon="151.2903232">
  <ele>389.08</ele>
  <time>2026-09-01T19:58:55Z</time>
  <course>55.93</course>
  <speed>18.64</speed>
  <fix>3d</fix>
</trkpt>
<trkpt lat="-27.2740996" lon="151.2903869">
  <ele>389.21</ele>
  <time>2026-09-01T19:58:55Z</time>
  <course>61.67</course>
  <speed>19.329006699776375</speed>
  <fix>3d</fix>
</trkpt>
<trkpt lat="-27.2741148" lon="151.2903552">
  <ele>389.17</ele>
  <time>2026-09-01T19:58:55Z</time>
  <course>59.27</course>
  <speed>19.02</speed>
  <fix>3d</fix>
</trkpt>
<trkpt lat="-27.2740919" lon="151.2904045">
  <ele>389.25</ele>
  <time>2026-09-01T19:58:55Z</time>
  <course>63.7</course>
  <speed>19.529528924170187</speed>
  <fix>3d</fix>
</trkpt>
<trkpt lat="-27.2741148" lon="151.2903552">
  <ele>389.17</ele>
  <time>2026-09-01T19:58:55Z</time>
  <course>59.27</course>
  <speed>19.02</speed>
  <fix>3d</fix>
</trkpt>
<trkpt lat="-27.2740848" lon="151.2904227">
  <ele>389.28</ele>
  <time>2026-09-01T19:58:55Z</time>
  <course>65.83</course>
  <speed>19.717712849111077</speed>
  <fix>3d</fix>
</trkpt>
<trkpt lat="-27.2740982" lon="151.2903893">
  <ele>389.26</ele>
  <time>2026-09-01T19:58:55Z</time>
  <course>63.06</course>
  <speed>19.39</speed>
  <fix>3d</fix>
</trkpt>
<trkpt lat="-27.2740782" lon="151.2904413">
  <ele>389.32</ele>
  <time>2026-09-01T19:58:55Z</time>
  <course>67.99</course>
  <speed>19.893519045156392</speed>
  <fix>3d</fix>
</trkpt>
<trkpt lat="-27.2740982" lon="151.2903893">
  <ele>389.26</ele>
  <time>2026-09-01T19:58:55Z</time>
  <course>63.06</course>
  <speed>19.39</speed>
  <fix>3d</fix>
</trkpt>
<trkpt lat="-27.2740722" lon="151.2904603">
  <ele>389.34</ele>
  <time>2026-09-01T19:58:55Z</time>
  <course>70.24</course>
  <speed>20.07757206437073</speed>
  <fix>3d</fix>
</trkpt>
<trkpt lat="-27.2740834" lon="151.2904252">
  <ele>389.34</ele>
  <time>2026-09-01T19:58:55Z</time>
  <course>67.27</course>
  <speed>19.75</speed>
  <fix>3d</fix>
</trkpt>
<trkpt lat="-27.2740668" lon="151.2904798">
  <ele>389.37</ele>
  <time>2026-09-01T19:58:55Z</time>
  <course>72.57</course>
  <speed>20.27042426788349</speed>
  <fix>3d</fix>
</trkpt>
<trkpt lat="-27.2740834" lon="151.2904252">
  <ele>389.34</ele>
  <time>2026-09-01T19:58:55Z</time>
  <course>67.27</course>
  <speed>19.75</speed>
  <fix>3d</fix>
</trkpt>
<trkpt lat="-27.2740622" lon="151.2904997">
  <ele>389.39</ele>
  <time>2026-09-01T19:58:55Z</time>
  <course>74.88</course>
  <speed>20.452100136660782</speed>
  <fix>3d</fix>
</trkpt>
<trkpt lat="-27.2740709" lon="151.2904629">
  <ele>389.41</ele>
  <time>2026-09-01T19:58:55Z</time>
  <course>71.82</course>
  <speed>20.1</speed>
  <fix>3d</fix>
</trkpt>
<trkpt lat="-27.2740582" lon="151.29052">
  <ele>389.41</ele>
  <time>2026-09-01T19:58:55Z</time>
  <course>77.26</course>
  <speed>20.64177560191952</speed>
  <fix>3d</fix>
</trkpt>
<trkpt lat="-27.2740709" lon="151.2904629">
  <ele>389.41</ele>
  <time>2026-09-01T19:58:55Z</time>
  <course>71.82</course>
  <speed>20.1</speed>
  <fix>3d</fix>
</trkpt>
<trkpt lat="-27.274055" lon="151.2905407">
  <ele>389.42</ele>
  <time>2026-09-01T19:58:55Z</time>
  <course>79.69</course>
  <speed>20.824564821383422</speed>
  <fix>3d</fix>
</trkpt>
<trkpt lat="-27.274061" lon="151.2905023">
  <ele>389.47</ele>
  <time>2026-09-01T19:58:55Z</time>
  <course>76.6</course>
  <speed>20.46</speed>
  <fix>3d</fix>
</trkpt>
<trkpt lat="-27.2740526" lon="151.2905616">
  <ele>389.43</ele>
  <time>2026-09-01T19:58:55Z</time>
  <course>82.15</course>
  <speed>21.02229768602852</speed>
  <fix>3d</fix>
</trkpt>
<trkpt lat="-27.274061" lon="151.2905023">
  <ele>389.47</ele>
  <time>2026-09-01T19:58:55Z</time>
  <course>76.6</course>
  <speed>20.46</speed>
  <fix>3d</fix>
</trkpt>
<trkpt lat="-27.274051" lon="151.2905829">
  <ele>389.42</ele>
  <time>2026-09-01T19:58:55Z</time>
  <course>84.59</course>
  <speed>21.207463308939147</speed>
  <fix>3d</fix>
</trkpt>
<trkpt lat="-27.274054" lon="151.2905434">
  <ele>389.5</ele>
  <time>2026-09-01T19:58:55Z</time>
  <course>81.54</course>
  <speed>20.82</speed>
  <fix>3d</fix>
</trkpt>
<trkpt lat="-27.2740502" lon="151.2906044">
  <ele>389.42</ele>
  <time>2026-09-01T19:58:55Z</time>
  <course>87.1</course>
  <speed>21.39239350797381</speed>
  <fix>3d</fix>
</trkpt>
<trkpt lat="-27.274054" lon="151.2905434">
  <ele>389.5</ele>
  <time>2026-09-01T19:58:55Z</time>
  <course>81.54</course>
  <speed>20.82</speed>
  <fix>3d</fix>
</trkpt>
<trkpt lat="-27.2740502" lon="151.2906261">
  <ele>389.4</ele>
  <time>2026-09-01T19:58:55Z</time>
  <course>89.65</course>
  <speed>21.589194056286583</speed>
  <fix>3d</fix>
</trkpt>
<trkpt lat="-27.2740501" lon="151.2905857">
  <ele>389.51</ele>
  <time>2026-09-01T19:58:55Z</time>
  <course>86.59</course>
  <speed>21.19</speed>
  <fix>3d</fix>
</trkpt>
<trkpt lat="-27.2740512" lon="151.2906479">
  <ele>389.38</ele>
  <time>2026-09-01T19:58:55Z</time>
  <course>92.24</course>
  <speed>21.7696164412697</speed>
  <fix>3d</fix>
</trkpt>
<trkpt lat="-27.2740501" lon="151.2905857">
  <ele>389.51</ele>
  <time>2026-09-01T19:58:55Z</time>
  <course>86.59</course>
  <speed>21.19</speed>
  <fix>3d</fix>
</trkpt>
<trkpt lat="-27.2740529" lon="151.2906699">
  <ele>389.35</ele>
  <time>2026-09-01T19:58:55Z</time>
  <course>94.8</course>
  <speed>21.95687591621358</speed>
  <fix>3d</fix>
</trkpt>
<trkpt lat="-27.2740496" lon="151.2906289">
  <ele>389.49</ele>
  <time>2026-09-01T19:58:55Z</time>
  <course>91.72</course>
  <speed>21.56</speed>
  <fix>3d</fix>
</trkpt>
<trkpt lat="-27.2740556" lon="151.2906919">
  <ele>389.31</ele>
  <time>2026-09-01T19:58:55Z</time>
  <course>97.41</course>
  <speed>22.14125561028552</speed>
  <fix>3d</fix>
</trkpt>
<trkpt lat="-27.2740496" lon="151.2906289">
  <ele>389.49</ele>
  <time>2026-09-01T19:58:55Z</time>
  <course>91.72</course>
  <speed>21.56</speed>
  <fix>3d</fix>
</trkpt>
<trkpt lat="-27.2740592" lon="151.2907139">
  <ele>389.27</ele>
  <time>2026-09-01T19:58:55Z</time>
  <course>100.12</course>
  <speed>22.326022932891565</speed>
  <fix>3d</fix>
</trkpt>
<trkpt lat="-27.2740524" lon="151.2906726">
  <ele>389.44</ele>
  <time>2026-09-01T19:58:55Z</time>
  <course>96.92</course>
  <speed>21.93</speed>
  <fix>3d</fix>
</trkpt>
<trkpt lat="-27.2740638" lon="151.2907359">
  <ele>389.21</ele>
  <time>2026-09-01T19:58:55Z</time>
  <course>102.8</course>
  <speed>22.504337359718015</speed>
  <fix>3d</fix>
</trkpt>
<trkpt lat="-27.2740524" lon="151.2906726">
  <ele>389.44</ele>
  <time>2026-09-01T19:58:55Z</time>
  <course>96.92</course>
  <speed>21.93</speed>
  <fix>3d</fix>
</trkpt>
<trkpt lat="-27.2740694" lon="151.2907578">
  <ele>389.16</ele>
  <time>2026-09-01T19:58:55Z</time>
  <course>105.55</course>
  <speed>22.68924855520782</speed>
  <fix>3d</fix>
</trkpt>
<trkpt lat="-27.274059" lon="151.2907167">
  <ele>389.36</ele>
  <time>2026-09-01T19:58:55Z</time>
  <course>102.2</course>
  <speed>22.29</speed>
  <fix>3d</fix>
</trkpt>
<trkpt lat="-27.2740759" lon="151.2907796">
  <ele>389.09</ele>
  <time>2026-09-01T19:58:55Z</time>
  <course>108.34</course>
  <speed>22.867916389562037</speed>
  <fix>3d</fix>
</trkpt>
<trkpt lat="-27.274059" lon="151.2907167">
  <ele>389.36</ele>
  <time>2026-09-01T19:58:55Z</time>
  <course>102.2</course>
  <speed>22.29</speed>
  <fix>3d</fix>
</trkpt>
<trkpt lat="-27.2740834" lon="151.2908011">
  <ele>389.03</ele>
  <time>2026-09-01T19:58:55Z</time>
  <course>111.16</course>
  <speed>23.049694141137753</speed>
  <fix>3d</fix>
</trkpt>
<trkpt lat="-27.2740694" lon="151.2907606">
  <ele>389.26</ele>
  <time>2026-09-01T19:58:55Z</time>
  <course>107.61</course>
  <speed>22.66</speed>
  <fix>3d</fix>
</trkpt>
<trkpt lat="-27.2740919" lon="151.2908225">
  <ele>388.95</ele>
  <time>2026-09-01T19:58:55Z</time>
  <course>114.04</course>
  <speed>23.216849484803056</speed>
  <fix>3d</fix>
</trkpt>
<trkpt lat="-27.2740694" lon="151.2907606">
  <ele>389.26</ele>
  <time>2026-09-01T19:58:55Z</time>
  <course>107.61</course>
  <speed>22.66</speed>
  <fix>3d</fix>
</trkpt>
<trkpt lat="-27.2741014" lon="151.2908434">
  <ele>388.88</ele>
  <time>2026-09-01T19:58:55Z</time>
  <course>116.9</course>
  <speed>23.38235445800957</speed>
  <fix>3d</fix>
</trkpt>
<trkpt lat="-27.2740837" lon="151.2908038">
  <ele>389.13</ele>
  <time>2026-09-01T19:58:55Z</time>
  <course>113.15</course>
  <speed>23.02</speed>
  <fix>3d</fix>
</trkpt>
<trkpt lat="-27.2741119" lon="151.2908639">
  <ele>388.8</ele>
  <time>2026-09-01T19:58:55Z</time>
  <course>119.81</course>
  <speed>23.558200270818652</speed>
  <fix>3d</fix>
</trkpt>
<trkpt lat="-27.2740837" lon="151.2908038">
  <ele>389.13</ele>
  <time>2026-09-01T19:58:55Z</time>
  <course>113.15</course>
  <speed>23.02</speed>
  <fix>3d</fix>
</trkpt>
<trkpt lat="-27.2741233" lon="151.2908839">
  <ele>388.71</ele>
  <time>2026-09-01T19:58:55Z</time>
  <course>122.68</course>
  <speed>23.715431684875565</speed>
  <fix>3d</fix>
</trkpt>
<trkpt lat="-27.2741019" lon="151.2908459">
  <ele>388.98</ele>
  <time>2026-09-01T19:58:55Z</time>
  <course>118.83</course>
  <speed>23.37</speed>
  <fix>3d</fix>
</trkpt>
<trkpt lat="-27.2741358" lon="151.2909034">
  <ele>388.63</ele>
  <time>2026-09-01T19:58:55Z</time>
  <course>125.56</course>
  <speed>23.88075585068446</speed>
  <fix>3d</fix>
</trkpt>
<trkpt lat="-27.2741019" lon="151.2908459">
  <ele>388.98</ele>
  <time>2026-09-01T19:58:55Z</time>
  <course>118.83</course>
  <speed>23.37</speed>
  <fix>3d</fix>
</trkpt>
<trkpt lat="-27.2741491" lon="151.2909222">
  <ele>388.55</ele>
  <time>2026-09-01T19:58:55Z</time>
  <course>128.46</course>
  <speed>24.03316250517189</speed>
  <fix>3d</fix>
</trkpt>
<trkpt lat="-27.2741242" lon="151.2908863">
  <ele>388.82</ele>
  <time>2026-09-01T19:58:55Z</time>
  <course>124.61</course>
  <speed>23.71</speed>
  <fix>3d</fix>
</trkpt>
<trkpt lat="-27.2741635" lon="151.2909404">
  <ele>388.47</ele>
  <time>2026-09-01T19:58:55Z</time>
  <course>131.34</course>
  <speed>24.188718444762635</speed>
  <fix>3d</fix>
</trkpt>
<trkpt lat="-27.2741242" lon="151.2908863">
  <ele>388.82</ele>
  <time>2026-09-01T19:58:55Z</time>
  <course>124.61</course>
  <speed>23.71</speed>
  <fix>3d</fix>
</trkpt>
<trkpt lat="-27.2741787" lon="151.2909578">
  <ele>388.38</ele>
  <time>2026-09-01T19:58:55Z</time>
  <course>134.23</course>
  <speed>24.335622038485067</speed>
  <fix>3d</fix>
</trkpt>
<trkpt lat="-27.2741503" lon="151.2909245">
  <ele>388.65</ele>
  <time>2026-09-01T19:58:55Z</time>
  <course>130.44</course>
  <speed>24.03</speed>
  <fix>3d</fix>
</trkpt>
<trkpt lat="-27.2741948" lon="151.2909745">
  <ele>388.29</ele>
  <time>2026-09-01T19:58:55Z</time>
  <course>137.08</course>
  <speed>24.48795009795634</speed>
  <fix>3d</fix>
</trkpt>
<trkpt lat="-27.2741503" lon="151.2909245">
  <ele>388.65</ele>
  <time>2026-09-01T19:58:55Z</time>
  <course>130.44</course>
  <speed>24.03</speed>
  <fix>3d</fix>
</trkpt>
<trkpt lat="-27.2742117" lon="151.2909903">
  <ele>388.2</ele>
  <time>2026-09-01T19:58:55Z</time>
  <course>139.91</course>
  <speed>24.632549604131523</speed>
  <fix>3d</fix>
</trkpt>
<trkpt lat="-27.2741801" lon="151.2909601">
  <ele>388.48</ele>
  <time>2026-09-01T19:58:55Z</time>
  <course>136.26</course>
  <speed>24.35</speed>
  <fix>3d</fix>
</trkpt>
<trkpt lat="-27.2742294" lon="151.2910053">
  <ele>388.12</ele>
  <time>2026-09-01T19:58:55Z</time>
  <course>142.75</course>
  <speed>24.780631549659905</speed>
  <fix>3d</fix>
</trkpt>
<trkpt lat="-27.2741801" lon="151.2909601">
  <ele>388.48</ele>
  <time>2026-09-01T19:58:55Z</time>
  <course>136.26</course>
  <speed>24.35</speed>
  <fix>3d</fix>
</trkpt>
<trkpt lat="-27.2742479" lon="151.2910193">
  <ele>388.03</ele>
  <time>2026-09-01T19:58:55Z</time>
  <course>145.54</course>
  <speed>24.927904043461012</speed>
  <fix>3d</fix>
</trkpt>
<trkpt lat="-27.2742135" lon="151.2909926">
  <ele>388.29</ele>
  <time>2026-09-01T19:58:55Z</time>
  <course>142.04</course>
  <speed>24.66</speed>
  <fix>3d</fix>
</trkpt>
<trkpt lat="-27.274267" lon="151.2910324">
  <ele>387.93</ele>
  <time>2026-09-01T19:58:55Z</time>
  <course>148.31</course>
  <speed>25.0637048338828</speed>
  <fix>3d</fix>
</trkpt>
<trkpt lat="-27.2742135" lon="151.2909926">
  <ele>388.29</ele>
  <time>2026-09-01T19:58:55Z</time>
  <course>142.04</course>
  <speed>24.66</speed>
  <fix>3d</fix>
</trkpt>
<trkpt lat="-27.2742869" lon="151.2910445">
  <ele>387.84</ele>
  <time>2026-09-01T19:58:55Z</time>
  <course>151.06</course>
  <speed>25.20097220346866</speed>
  <fix>3d</fix>
</trkpt>
<trkpt lat="-27.27425" lon="151.2910215">
  <ele>388.1</ele>
  <time>2026-09-01T19:58:55Z</time>
  <course>147.74</course>
  <speed>24.96</speed>
  <fix>3d</fix>
</trkpt>
<trkpt lat="-27.2743073" lon="151.2910556">
  <ele>387.75</ele>
  <time>2026-09-01T19:58:55Z</time>
  <course>153.79</course>
  <speed>25.334097576191656</speed>
  <fix>3d</fix>
</trkpt>
<trkpt lat="-27.27425" lon="151.2910215">
  <ele>388.1</ele>
  <time>2026-09-01T19:58:55Z</time>
  <course>147.74</course>
  <speed>24.96</speed>
  <fix>3d</fix>
</trkpt>
<trkpt lat="-27.2743283" lon="151.2910656">
  <ele>387.65</ele>
  <time>2026-09-01T19:58:55Z</time>
  <course>156.35</course>
  <speed>25.451744537457543</speed>
  <fix>3d</fix>
</trkpt>
<trkpt lat="-27.2742893" lon="151.2910464">
  <ele>387.91</ele>
  <time>2026-09-01T19:58:55Z</time>
  <course>153.33</course>
  <speed>25.25</speed>
  <fix>3d</fix>
</trkpt>
<trkpt lat="-27.2743498" lon="151.2910745">
  <ele>387.56</ele>
  <time>2026-09-01T19:58:55Z</time>
  <course>158.94</course>
  <speed>25.58352985809425</speed>
  <fix>3d</fix>
</trkpt>
<trkpt lat="-27.2742893" lon="151.2910464">
  <ele>387.91</ele>
  <time>2026-09-01T19:58:55Z</time>
  <course>153.33</course>
  <speed>25.25</speed>
  <fix>3d</fix>
</trkpt>
<trkpt lat="-27.2743717" lon="151.2910824">
  <ele>387.46</ele>
  <time>2026-09-01T19:58:55Z</time>
  <course>161.45</course>
  <speed>25.69240549267429</speed>
  <fix>3d</fix>
</trkpt>
<trkpt lat="-27.2743309" lon="151.2910672">
  <ele>387.72</ele>
  <time>2026-09-01T19:58:55Z</time>
  <course>158.76</course>
  <speed>25.51</speed>
  <fix>3d</fix>
</trkpt>
<trkpt lat="-27.274394" lon="151.2910892">
  <ele>387.36</ele>
  <time>2026-09-01T19:58:55Z</time>
  <course>163.9</course>
  <speed>25.79628073967253</speed>
  <fix>3d</fix>
</trkpt>
<trkpt lat="-27.2743309" lon="151.2910672">
  <ele>387.72</ele>
  <time>2026-09-01T19:58:55Z</time>
  <course>158.76</course>
  <speed>25.51</speed>
  <fix>3d</fix>
</trkpt>
<trkpt lat="-27.2744167" lon="151.2910949">
  <ele>387.26</ele>
  <time>2026-09-01T19:58:55Z</time>
  <course>166.27</course>
  <speed>25.867732795898448</speed>
  <fix>3d</fix>
</trkpt>
<trkpt lat="-27.2743745" lon="151.2910837">
  <ele>387.52</ele>
  <time>2026-09-01T19:58:55Z</time>
  <course>163.96</course>
  <speed>25.75</speed>
  <fix>3d</fix>
</trkpt>
<trkpt lat="-27.2744396" lon="151.2910996">
  <ele>387.17</ele>
  <time>2026-09-01T19:58:55Z</time>
  <course>168.59</course>
  <speed>25.910069471153488</speed>
  <fix>3d</fix>
</trkpt>
<trkpt lat="-27.2743745" lon="151.2910837">
  <ele>387.52</ele>
  <time>2026-09-01T19:58:55Z</time>
  <course>163.96</course>
  <speed>25.75</speed>
  <fix>3d</fix>
</trkpt>
<trkpt lat="-27.2744624" lon="151.2911032">
  <ele>387.07</ele>
  <time>2026-09-01T19:58:55Z</time>
  <course>170.72</course>
  <speed>25.921249969860636</speed>
  <fix>3d</fix>
</trkpt>
<trkpt lat="-27.2744197" lon="151.2910959">
  <ele>387.32</ele>
  <time>2026-09-01T19:58:55Z</time>
  <course>168.88</course>
  <speed>25.93</speed>
  <fix>3d</fix>
</trkpt>
<trkpt lat="-27.2744856" lon="151.2911058">
  <ele>386.97</ele>
  <time>2026-09-01T19:58:55Z</time>
  <course>172.77</course>
  <speed>25.913612253022542</speed>
  <fix>3d</fix>
</trkpt>
<trkpt lat="-27.2744197" lon="151.2910959">
  <ele>387.32</ele>
  <time>2026-09-01T19:58:55Z</time>
  <course>168.88</course>
  <speed>25.93</speed>
  <fix>3d</fix>
</trkpt>
<trkpt lat="-27.2745089" lon="151.2911075">
  <ele>386.86</ele>
  <time>2026-09-01T19:58:55Z</time>
  <course>174.68</course>
  <speed>25.905538017960563</speed>
  <fix>3d</fix>
</trkpt>
<trkpt lat="-27.2744658" lon="151.2911039">
  <ele>387.11</ele>
  <time>2026-09-01T19:58:55Z</time>
  <course>173.5</course>
  <speed>26.0</speed>
  <fix>3d</fix>
</trkpt>
<trkpt lat="-27.2745321" lon="151.2911082">
  <ele>386.74</ele>
  <time>2026-09-01T19:58:55Z</time>
  <course>176.57</course>
  <speed>25.881408385171003</speed>
  <fix>3d</fix>
</trkpt>
<trkpt lat="-27.2744658" lon="151.2911039">
  <ele>387.11</ele>
  <time>2026-09-01T19:58:55Z</time>
  <course>173.5</course>
  <speed>26.0</speed>
  <fix>3d</fix>
</trkpt>
<trkpt lat="-27.2745558" lon="151.2911081">
  <ele>386.62</ele>
  <time>2026-09-01T19:58:55Z</time>
  <course>178.42</course>
  <speed>25.876060364746408</speed>
  <fix>3d</fix>
</trkpt>
<trkpt lat="-27.2745123" lon="151.2911078">
  <ele>386.89</ele>
  <time>2026-09-01T19:58:55Z</time>
  <course>177.72</course>
  <speed>25.99</speed>
  <fix>3d</fix>
</trkpt>
<trkpt lat="-27.2745791" lon="151.2911071">
  <ele>386.49</ele>
  <time>2026-09-01T19:58:55Z</time>
  <course>180.19</course>
  <speed>25.86630626896697</speed>
  <fix>3d</fix>
</trkpt>
<trkpt lat="-27.2745123" lon="151.2911078">
  <ele>386.89</ele>
  <time>2026-09-01T19:58:55Z</time>
  <course>177.72</course>
  <speed>25.99</speed>
  <fix>3d</fix>
</trkpt>
<trkpt lat="-27.2746023" lon="151.2911054">
  <ele>386.36</ele>
  <time>2026-09-01T19:58:55Z</time>
  <course>182.26</course>
  <speed>25.8728525678944</speed>
  <fix>3d</fix>
</trkpt>
<trkpt lat="-27.274559" lon="151.2911082">
  <ele>386.65</ele>
  <time>2026-09-01T19:58:55Z</time>
  <course>181.53</course>
  <speed>25.98</speed>
  <fix>3d</fix>
</trkpt>
<trkpt lat="-27.2746255" lon="151.2911027">
  <ele>386.23</ele>
  <time>2026-09-01T19:58:55Z</time>
  <course>184.32</course>
  <speed>25.864044540635945</speed>
  <fix>3d</fix>
</trkpt>
<trkpt lat="-27.274559" lon="151.2911082">
  <ele>386.65</ele>
  <time>2026-09-01T19:58:55Z</time>
  <course>181.53</course>
  <speed>25.98</speed>
  <fix>3d</fix>
</trkpt>
<trkpt lat="-27.2746485" lon="151.2910992">
  <ele>386.11</ele>
  <time>2026-09-01T19:58:55Z</time>
  <course>186.05</course>
  <speed>25.855823328604334</speed>
  <fix>3d</fix>
</trkpt>
<trkpt lat="-27.2746057" lon="151.2911052">
  <ele>386.39</ele>
  <time>2026-09-01T19:58:55Z</time>
  <course>185.25</course>
  <speed>25.96</speed>
  <fix>3d</fix>
</trkpt>
<trkpt lat="-27.2746715" lon="151.2910949">
  <ele>386.01</ele>
  <time>2026-09-01T19:58:55Z</time>
  <course>187.58</course>
  <speed>25.844477166311567</speed>
  <fix>3d</fix>
</trkpt>
<trkpt lat="-27.2746057" lon="151.2911052">
  <ele>386.39</ele>
  <time>2026-09-01T19:58:55Z</time>
  <course>185.25</course>
  <speed>25.96</speed>
  <fix>3d</fix>
</trkpt>
<trkpt lat="-27.2746944" lon="151.2910899">
  <ele>385.91</ele>
  <time>2026-09-01T19:58:55Z</time>
  <course>189.05</course>
  <speed>25.836942543575084</speed>
  <fix>3d</fix>
</trkpt>
<trkpt lat="-27.274652" lon="151.2910987">
  <ele>386.15</ele>
  <time>2026-09-01T19:58:55Z</time>
  <course>188.87</course>
  <speed>25.96</speed>
  <fix>3d</fix>
</trkpt>
<trkpt lat="-27.2747171" lon="151.2910843">
  <ele>385.81</ele>
  <time>2026-09-01T19:58:55Z</time>
  <course>190.46</course>
  <speed>25.836365843515996</speed>
  <fix>3d</fix>
</trkpt>
<trkpt lat="-27.274652" lon="151.2910987">
  <ele>386.15</ele>
  <time>2026-09-01T19:58:55Z</time>
  <course>188.87</course>
  <speed>25.96</speed>
  <fix>3d</fix>
</trkpt>
<trkpt lat="-27.2747397" lon="151.2910781">
  <ele>385.71</ele>
  <time>2026-09-01T19:58:55Z</time>
  <course>191.78</course>
  <speed>25.83031745836663</speed>
  <fix>3d</fix>
</trkpt>
<trkpt lat="-27.2746979" lon="151.2910891">
  <ele>385.94</ele>
  <time>2026-09-01T19:58:55Z</time>
  <course>191.98</course>
  <speed>25.94</speed>
  <fix>3d</fix>
</trkpt>
<trkpt lat="-27.2747622" lon="151.2910714">
  <ele>385.63</ele>
  <time>2026-09-01T19:58:55Z</time>
  <course>193.02</course>
  <speed>25.83834360016137</speed>
  <fix>3d</fix>
</trkpt>
<trkpt lat="-27.2746979" lon="151.2910891">
  <ele>385.94</ele>
  <time>2026-09-01T19:58:55Z</time>
  <course>191.98</course>
  <speed>25.94</speed>
  <fix>3d</fix>
</trkpt>
<trkpt lat="-27.2747846" lon="151.2910641">
  <ele>385.54</ele>
  <time>2026-09-01T19:58:55Z</time>
  <course>194.24</course>
  <speed>25.84503240470013</speed>
  <fix>3d</fix>
</trkpt>
<trkpt lat="-27.2747432" lon="151.2910771">
  <ele>385.76</ele>
  <time>2026-09-01T19:58:55Z</time>
  <course>194.58</course>
  <speed>25.94</speed>
  <fix>3d</fix>
</trkpt>
<trkpt lat="-27.2748068" lon="151.2910564">
  <ele>385.46</ele>
  <time>2026-09-01T19:58:55Z</time>
  <course>195.44</course>
  <speed>25.846897299289136</speed>
  <fix>3d</fix>
</trkpt>
<trkpt lat="-27.2747432" lon="151.2910771">
  <ele>385.76</ele>
  <time>2026-09-01T19:58:55Z</time>
  <course>194.58</course>
  <speed>25.94</speed>
  <fix>3d</fix>
</trkpt>
<trkpt lat="-27.2748289" lon="151.2910481">
  <ele>385.39</ele>
  <time>2026-09-01T19:58:55Z</time>
  <course>196.54</course>
  <speed>25.85866392526884</speed>
  <fix>3d</fix>
</trkpt>
<trkpt lat="-27.2747881" lon="151.2910628">
  <ele>385.59</ele>
  <time>2026-09-01T19:58:55Z</time>
  <course>196.94</course>
  <speed>25.94</speed>
  <fix>3d</fix>
</trkpt>
<trkpt lat="-27.2748509" lon="151.2910394">
  <ele>385.34</ele>
  <time>2026-09-01T19:58:55Z</time>
  <course>197.58</course>
  <speed>25.875161835242693</speed>
  <fix>3d</fix>
</trkpt>
<trkpt lat="-27.2747881" lon="151.2910628">
  <ele>385.59</ele>
  <time>2026-09-01T19:58:55Z</time>
  <course>196.94</course>
  <speed>25.94</speed>
  <fix>3d</fix>
</trkpt>
<trkpt lat="-27.2748728" lon="151.2910303">
  <ele>385.29</ele>
  <time>2026-09-01T19:58:55Z</time>
  <course>198.67</course>
  <speed>25.88621447798036</speed>
  <fix>3d</fix>
</trkpt>
<trkpt lat="-27.2748324" lon="151.2910465">
  <ele>385.45</ele>
  <time>2026-09-01T19:58:55Z</time>
  <course>199.1</course>
  <speed>25.96</speed>
  <fix>3d</fix>
</trkpt>
<trkpt lat="-27.2748945" lon="151.2910207">
  <ele>385.27</ele>
  <time>2026-09-01T19:58:55Z</time>
  <course>199.65</course>
  <speed>25.902698701100626</speed>
  <fix>3d</fix>
</trkpt>
<trkpt lat="-27.2748324" lon="151.2910465">
  <ele>385.45</ele>
  <time>2026-09-01T19:58:55Z</time>
  <course>199.1</course>
  <speed>25.96</speed>
  <fix>3d</fix>
</trkpt>
<trkpt lat="-27.2749161" lon="151.2910108">
  <ele>385.27</ele>
  <time>2026-09-01T19:58:55Z</time>
  <course>200.53</course>
  <speed>25.919309404380357</speed>
  <fix>3d</fix>
</trkpt>
<trkpt lat="-27.2748762" lon="151.2910285">
  <ele>385.37</ele>
  <time>2026-09-01T19:58:55Z</time>
  <course>201.04</course>
  <speed>25.98</speed>
  <fix>3d</fix>
</trkpt>
<trkpt lat="-27.2749375" lon="151.2910007">
  <ele>385.29</ele>
  <time>2026-09-01T19:58:55Z</time>
  <course>201.37</course>
  <speed>25.929082127989027</speed>
  <fix>3d</fix>
</trkpt>
<trkpt lat="-27.2748762" lon="151.2910285">
  <ele>385.37</ele>
  <time>2026-09-01T19:58:55Z</time>
  <course>201.04</course>
  <speed>25.98</speed>
  <fix>3d</fix>
</trkpt>
<trkpt lat="-27.2749589" lon="151.2909901">
  <ele>385.32</ele>
  <time>2026-09-01T19:58:55Z</time>
  <course>202.12</course>
  <speed>25.944141920672575</speed>
  <fix>3d</fix>
</trkpt>
<trkpt lat="-27.2749195" lon="151.2910089">
  <ele>385.36</ele>
  <time>2026-09-01T19:58:55Z</time>
  <course>202.72</course>
  <speed>26.01</speed>
  <fix>3d</fix>
</trkpt>
<trkpt lat="-27.2749802" lon="151.2909793">
  <ele>385.38</ele>
  <time>2026-09-01T19:58:55Z</time>
  <course>202.8</course>
  <speed>25.964485359814084</speed>
  <fix>3d</fix>
</trkpt>
<trkpt lat="-27.2749195" lon="151.2910089">
  <ele>385.36</ele>
  <time>2026-09-01T19:58:55Z</time>
  <course>202.72</course>
  <speed>26.01</speed>
  <fix>3d</fix>
</trkpt>
<trkpt lat="-27.2750015" lon="151.2909682">
  <ele>385.45</ele>
  <time>2026-09-01T19:58:55Z</time>
  <course>203.41</course>
  <speed>25.988124210877555</speed>
  <fix>3d</fix>
</trkpt>
<trkpt lat="-27.2749624" lon="151.290988">
  <ele>385.41</ele>
  <time>2026-09-01T19:58:55Z</time>
  <course>204.1</course>
  <speed>26.04</speed>
  <fix>3d</fix>
</trkpt>
<trkpt lat="-27.2750228" lon="151.2909568">
  <ele>385.55</ele>
  <time>2026-09-01T19:58:55Z</time>
  <course>203.99</course>
  <speed>25.992069944504227</speed>
  <fix>3d</fix>
</trkpt>
<trkpt lat="-27.2749624" lon="151.290988">
  <ele>385.41</ele>
  <time>2026-09-01T19:58:55Z</time>
  <course>204.1</course>
  <speed>26.04</speed>
  <fix>3d</fix>
</trkpt>
<trkpt lat="-27.2750439" lon="151.2909454">
  <ele>385.67</ele>
  <time>2026-09-01T19:58:55Z</time>
  <course>204.49</course>
  <speed>26.007095185737295</speed>
  <fix>3d</fix>
</trkpt>
<trkpt lat="-27.2750049" lon="151.290966">
  <ele>385.56</ele>
  <time>2026-09-01T19:58:55Z</time>
  <course>205.23</course>
  <speed>26.06</speed>
  <fix>3d</fix>
</trkpt>
<trkpt lat="-27.2750649" lon="151.2909337">
  <ele>385.82</ele>
  <time>2026-09-01T19:58:55Z</time>
  <course>204.97</course>
  <speed>26.023639253570973</speed>
  <fix>3d</fix>
</trkpt>
<trkpt lat="-27.2750049" lon="151.290966">
  <ele>385.56</ele>
  <time>2026-09-01T19:58:55Z</time>
  <course>205.23</course>
  <speed>26.06</speed>
  <fix>3d</fix>
</trkpt>
<trkpt lat="-27.2750859" lon="151.2909219">
  <ele>385.99</ele>
  <time>2026-09-01T19:58:55Z</time>
  <course>205.37</course>
  <speed>26.036781675161006</speed>
  <fix>3d</fix>
</trkpt>
<trkpt lat="-27.2750471" lon="151.2909431">
  <ele>385.79</ele>
  <time>2026-09-01T19:58:55Z</time>
  <course>206.1</course>
  <speed>26.09</speed>
  <fix>3d</fix>
</trkpt>
<trkpt lat="-27.2751068" lon="151.29091">
  <ele>386.18</ele>
  <time>2026-09-01T19:58:55Z</time>
  <course>205.67</course>
  <speed>26.041616693285388</speed>
  <fix>3d</fix>
</trkpt>
<trkpt lat="-27.2750471" lon="151.2909431">
  <ele>385.79</ele>
  <time>2026-09-01T19:58:55Z</time>
  <course>206.1</course>
  <speed>26.09</speed>
  <fix>3d</fix>
</trkpt>
<trkpt lat="-27.2751277" lon="151.290898">
  <ele>386.39</ele>
  <time>2026-09-01T19:58:55Z</time>
  <course>206.01</course>
  <speed>26.046798267733408</speed>
  <fix>3d</fix>
</trkpt>
<trkpt lat="-27.2750892" lon="151.2909196">
  <ele>386.11</ele>
  <time>2026-09-01T19:58:55Z</time>
  <course>206.76</course>
  <speed>26.11</speed>
  <fix>3d</fix>
</trkpt>
<trkpt lat="-27.2751487" lon="151.2908858">
  <ele>386.62</ele>
  <time>2026-09-01T19:58:55Z</time>
  <course>206.35</course>
  <speed>26.043183369165913</speed>
  <fix>3d</fix>
</trkpt>
<trkpt lat="-27.2750892" lon="151.2909196">
  <ele>386.11</ele>
  <time>2026-09-01T19:58:55Z</time>
  <course>206.76</course>
  <speed>26.11</speed>
  <fix>3d</fix>
</trkpt>
<trkpt lat="-27.2751696" lon="151.2908736">
  <ele>386.87</ele>
  <time>2026-09-01T19:58:55Z</time>
  <course>206.61</course>
  <speed>26.04408762080177</speed>
  <fix>3d</fix>
</trkpt>
<trkpt lat="-27.275131" lon="151.2908956">
  <ele>386.52</ele>
  <time>2026-09-01T19:58:55Z</time>
  <course>207.23</course>
  <speed>26.12</speed>
  <fix>3d</fix>
</trkpt>
<trkpt lat="-27.2751904" lon="151.2908614">
  <ele>387.15</ele>
  <time>2026-09-01T19:58:55Z</time>
  <course>206.78</course>
  <speed>26.035917498717037</speed>
  <fix>3d</fix>
</trkpt>
<trkpt lat="-27.275131" lon="151.2908956">
  <ele>386.52</ele>
  <time>2026-09-01T19:58:55Z</time>
  <course>207.23</course>
  <speed>26.12</speed>
  <fix>3d</fix>
</trkpt>
<trkpt lat="-27.2752112" lon="151.2908491">
  <ele>387.44</ele>
  <time>2026-09-01T19:58:55Z</time>
  <course>206.9</course>
  <speed>26.041338291262992</speed>
  <fix>3d</fix>
</trkpt>
<trkpt lat="-27.2751727" lon="151.2908713">
  <ele>387.01</ele>
  <time>2026-09-01T19:58:55Z</time>
  <course>207.54</course>
  <speed>26.12</speed>
  <fix>3d</fix>
</trkpt>
<trkpt lat="-27.2752319" lon="151.2908368">
  <ele>387.75</ele>
  <time>2026-09-01T19:58:55Z</time>
  <course>206.98</course>
  <speed>26.032911861718425</speed>
  <fix>3d</fix>
</trkpt>
<trkpt lat="-27.2751727" lon="151.2908713">
  <ele>387.01</ele>
  <time>2026-09-01T19:58:55Z</time>
  <course>207.54</course>
  <speed>26.12</speed>
  <fix>3d</fix>
</trkpt>
<trkpt lat="-27.2752527" lon="151.2908244">
  <ele>388.07</ele>
  <time>2026-09-01T19:58:55Z</time>
  <course>207.05</course>
  <speed>26.03336320954325</speed>
  <fix>3d</fix>
</trkpt>
<trkpt lat="-27.2752142" lon="151.2908468">
  <ele>387.58</ele>
  <time>2026-09-01T19:58:55Z</time>
  <course>207.72</course>
  <speed>26.11</speed>
  <fix>3d</fix>
</trkpt>
<trkpt lat="-27.2752735" lon="151.2908121">
  <ele>388.41</ele>
  <time>2026-09-01T19:58:55Z</time>
  <course>207.06</course>
  <speed>26.042213807585558</speed>
  <fix>3d</fix>
</trkpt>
<trkpt lat="-27.2752142" lon="151.2908468">
  <ele>387.58</ele>
  <time>2026-09-01T19:58:55Z</time>
  <course>207.72</course>
  <speed>26.11</speed>
  <fix>3d</fix>
</trkpt>
<trkpt lat="-27.2752943" lon="151.2907998">
  <ele>388.77</ele>
  <time>2026-09-01T19:58:55Z</time>
  <course>207.04</course>
  <speed>26.059917497950757</speed>
  <fix>3d</fix>
</trkpt>
<trkpt lat="-27.2752557" lon="151.2908223">
  <ele>388.22</ele>
  <time>2026-09-01T19:58:55Z</time>
  <course>207.8</course>
  <speed>26.1</speed>
  <fix>3d</fix>
</trkpt>
<trkpt lat="-27.2753151" lon="151.2907874">
  <ele>389.13</ele>
  <time>2026-09-01T19:58:55Z</time>
  <course>207.1</course>
  <speed>26.072978349241193</speed>
  <fix>3d</fix>
</trkpt>
<trkpt lat="-27.2752557" lon="151.2908223">
  <ele>388.22</ele>
  <time>2026-09-01T19:58:55Z</time>
  <course>207.8</course>
  <speed>26.1</speed>
  <fix>3d</fix>
</trkpt>
<trkpt lat="-27.2753359" lon="151.2907751">
  <ele>389.5</ele>
  <time>2026-09-01T19:58:55Z</time>
  <course>207.21</course>
  <speed>26.099549804546438</speed>
  <fix>3d</fix>
</trkpt>
<trkpt lat="-27.2752972" lon="151.2907976">
  <ele>388.91</ele>
  <time>2026-09-01T19:58:55Z</time>
  <course>207.78</course>
  <speed>26.11</speed>
  <fix>3d</fix>
</trkpt>
<trkpt lat="-27.2753568" lon="151.2907628">
  <ele>389.88</ele>
  <time>2026-09-01T19:58:55Z</time>
  <course>207.22</course>
  <speed>26.11263295801479</speed>
  <fix>3d</fix>
</trkpt>
<trkpt lat="-27.2752972" lon="151.2907976">
  <ele>388.91</ele>
  <time>2026-09-01T19:58:55Z</time>
  <course>207.78</course>
  <speed>26.11</speed>
  <fix>3d</fix>
</trkpt>
<trkpt lat="-27.2753775" lon="151.2907506">
  <ele>390.26</ele>
  <time>2026-09-01T19:58:55Z</time>
  <course>207.21</course>
  <speed>26.134593932181154</speed>
  <fix>3d</fix>
</trkpt>
<trkpt lat="-27.2753387" lon="151.2907731">
  <ele>389.64</ele>
  <time>2026-09-01T19:58:55Z</time>
  <course>207.69</course>
  <speed>26.14</speed>
  <fix>3d</fix>
</trkpt>
<trkpt lat="-27.2753983" lon="151.2907383">
  <ele>390.66</ele>
  <time>2026-09-01T19:58:55Z</time>
  <course>207.13</course>
  <speed>26.156574699298837</speed>
  <fix>3d</fix>
</trkpt>
<trkpt lat="-27.2753387" lon="151.2907731">
  <ele>389.64</ele>
  <time>2026-09-01T19:58:55Z</time>
  <course>207.69</course>
  <speed>26.14</speed>
  <fix>3d</fix>
</trkpt>
<trkpt lat="-27.2754193" lon="151.290726">
  <ele>391.07</ele>
  <time>2026-09-01T19:58:55Z</time>
  <course>206.97</course>
  <speed>26.187449283960436</speed>
  <fix>3d</fix>
</trkpt>
<trkpt lat="-27.2753803" lon="151.2907485">
  <ele>390.4</ele>
  <time>2026-09-01T19:58:55Z</time>
  <course>207.58</course>
  <speed>26.18</speed>
  <fix>3d</fix>
</trkpt>
<trkpt lat="-27.2754402" lon="151.2907138">
  <ele>391.48</ele>
  <time>2026-09-01T19:58:55Z</time>
  <course>206.92</course>
  <speed>26.213754023412974</speed>
  <fix>3d</fix>
</trkpt>
<trkpt lat="-27.2753803" lon="151.2907485">
  <ele>390.4</ele>
  <time>2026-09-01T19:58:55Z</time>
  <course>207.58</course>
  <speed>26.18</speed>
  <fix>3d</fix>
</trkpt>
<trkpt lat="-27.2754614" lon="151.2907015">
  <ele>391.9</ele>
  <time>2026-09-01T19:58:55Z</time>
  <course>206.91</course>
  <speed>26.226637222488133</speed>
  <fix>3d</fix>
</trkpt>
<trkpt lat="-27.2754221" lon="151.290724">
  <ele>391.2</ele>
  <time>2026-09-01T19:58:55Z</time>
  <course>207.43</course>
  <speed>26.22</speed>
  <fix>3d</fix>
</trkpt>
<trkpt lat="-27.2754824" lon="151.2906893">
  <ele>392.32</ele>
  <time>2026-09-01T19:58:55Z</time>
  <course>206.83</course>
  <speed>26.253047442154216</speed>
  <fix>3d</fix>
</trkpt>
<trkpt lat="-27.2754221" lon="151.290724">
  <ele>391.2</ele>
  <time>2026-09-01T19:58:55Z</time>
  <course>207.43</course>
  <speed>26.22</speed>
  <fix>3d</fix>
</trkpt>
<trkpt lat="-27.2755034" lon="151.2906771">
  <ele>392.75</ele>
  <time>2026-09-01T19:58:55Z</time>
  <course>206.72</course>
  <speed>26.266048427580422</speed>
  <fix>3d</fix>
</trkpt>
<trkpt lat="-27.275464" lon="151.2906997">
  <ele>392.02</ele>
  <time>2026-09-01T19:58:55Z</time>
  <course>207.25</course>
  <speed>26.26</speed>
  <fix>3d</fix>
</trkpt>
<trkpt lat="-27.2755245" lon="151.290665">
  <ele>393.19</ele>
  <time>2026-09-01T19:58:55Z</time>
  <course>206.72</course>
  <speed>26.283656518833144</speed>
  <fix>3d</fix>
</trkpt>
<trkpt lat="-27.275464" lon="151.2906997">
  <ele>392.02</ele>
  <time>2026-09-01T19:58:55Z</time>
  <course>207.25</course>
  <speed>26.26</speed>
  <fix>3d</fix>
</trkpt>
<trkpt lat="-27.2755456" lon="151.2906529">
  <ele>393.64</ele>
  <time>2026-09-01T19:58:55Z</time>
  <course>206.64</course>
  <speed>26.287854610066603</speed>
  <fix>3d</fix>
</trkpt>
<trkpt lat="-27.2755061" lon="151.2906754">
  <ele>392.86</ele>
  <time>2026-09-01T19:58:55Z</time>
  <course>207.06</course>
  <speed>26.29</speed>
  <fix>3d</fix>
</trkpt>
<trkpt lat="-27.2755667" lon="151.2906408">
  <ele>394.08</ele>
  <time>2026-09-01T19:58:55Z</time>
  <course>206.54</course>
  <speed>26.247380821712476</speed>
  <fix>3d</fix>
</trkpt>
<trkpt lat="-27.2755061" lon="151.2906754">
  <ele>392.86</ele>
  <time>2026-09-01T19:58:55Z</time>
  <course>207.06</course>
  <speed>26.29</speed>
  <fix>3d</fix>
</trkpt>
<trkpt lat="-27.2755877" lon="151.2906288">
  <ele>394.52</ele>
  <time>2026-09-01T19:58:55Z</time>
  <course>206.48</course>
  <speed>26.184594707575673</speed>
  <fix>3d</fix>
</trkpt>
<trkpt lat="-27.2755482" lon="151.2906512">
  <ele>393.73</ele>
  <time>2026-09-01T19:58:55Z</time>
  <course>206.88</course>
  <speed>26.29</speed>
  <fix>3d</fix>
</trkpt>
<trkpt lat="-27.2756087" lon="151.2906169">
  <ele>394.94</ele>
  <time>2026-09-01T19:58:55Z</time>
  <course>206.57</course>
  <speed>26.104300412001084</speed>
  <fix>3d</fix>
</trkpt>
<trkpt lat="-27.2755482" lon="151.2906512">
  <ele>393.73</ele>
  <time>2026-09-01T19:58:55Z</time>
  <course>206.88</course>
  <speed>26.29</speed>
  <fix>3d</fix>
</trkpt>
<trkpt lat="-27.2756296" lon="151.2906049">
  <ele>395.33</ele>
  <time>2026-09-01T19:58:55Z</time>
  <course>206.91</course>
  <speed>25.92708429422792</speed>
  <fix>3d</fix>
</trkpt>
<trkpt lat="-27.2755903" lon="151.2906274">
  <ele>394.59</ele>
  <time>2026-09-01T19:58:55Z</time>
  <course>206.79</course>
  <speed>26.2</speed>
  <fix>3d</fix>
</trkpt>
<trkpt lat="-27.2756501" lon="151.2905928">
  <ele>395.74</ele>
  <time>2026-09-01T19:58:55Z</time>
  <course>207.67</course>
  <speed>25.607649247832178</speed>
  <fix>3d</fix>
</trkpt>
<trkpt lat="-27.2755903" lon="151.2906274">
  <ele>394.59</ele>
  <time>2026-09-01T19:58:55Z</time>
  <course>206.79</course>
  <speed>26.2</speed>
  <fix>3d</fix>
</trkpt>
<trkpt lat="-27.2756702" lon="151.2905805">
  <ele>396.2</ele>
  <time>2026-09-01T19:58:55Z</time>
  <course>208.82</course>
  <speed>25.173895209124865</speed>
  <fix>3d</fix>
</trkpt>
<trkpt lat="-27.275632" lon="151.2906035">
  <ele>395.4</ele>
  <time>2026-09-01T19:58:55Z</time>
  <course>207.34</course>
  <speed>25.87</speed>
  <fix>3d</fix>
</trkpt>
<trkpt lat="-27.2756896" lon="151.2905679">
  <ele>396.7</ele>
  <time>2026-09-01T19:58:55Z</time>
  <course>210.17</course>
  <speed>24.658925361823858</speed>
  <fix>3d</fix>
</trkpt>
<trkpt lat="-27.275632" lon="151.2906035">
  <ele>395.4</ele>
  <time>2026-09-01T19:58:55Z</time>
  <course>207.34</course>
  <speed>25.87</speed>
  <fix>3d</fix>
</trkpt>
<trkpt lat="-27.2757084" lon="151.2905552">
  <ele>397.25</ele>
  <time>2026-09-01T19:58:55Z</time>
  <course>211.55</course>
  <speed>24.075873815917877</speed>
  <fix>3d</fix>
</trkpt>
<trkpt lat="-27.2756725" lon="151.2905791">
  <ele>396.27</ele>
  <time>2026-09-01T19:58:55Z</time>
  <course>209.04</course>
  <speed>25.15</speed>
  <fix>3d</fix>
</trkpt>
<trkpt lat="-27.2757266" lon="151.2905422">
  <ele>397.84</ele>
  <time>2026-09-01T19:58:55Z</time>
  <course>212.85</course>
  <speed>23.439987201361692</speed>
  <fix>3d</fix>
</trkpt>
<trkpt lat="-27.2756725" lon="151.2905791">
  <ele>396.27</ele>
  <time>2026-09-01T19:58:55Z</time>
  <course>209.04</course>
  <speed>25.15</speed>
  <fix>3d</fix>
</trkpt>
<trkpt lat="-27.2757439" lon="151.2905293">
  <ele>398.45</ele>
  <time>2026-09-01T19:58:55Z</time>
  <course>213.94</course>
  <speed>22.77500823270982</speed>
  <fix>3d</fix>
</trkpt>
<trkpt lat="-27.2757107" lon="151.2905541">
  <ele>397.3</ele>
  <time>2026-09-01T19:58:55Z</time>
  <course>211.49</course>
  <speed>24.06</speed>
  <fix>3d</fix>
</trkpt>
<trkpt lat="-27.2757605" lon="151.2905163">
  <ele>399.08</ele>
  <time>2026-09-01T19:58:55Z</time>
  <course>214.71</course>
  <speed>22.132394809419065</speed>
  <fix>3d</fix>
</trkpt>
<trkpt lat="-27.2757107" lon="151.2905541">
  <ele>397.3</ele>
  <time>2026-09-01T19:58:55Z</time>
  <course>211.49</course>
  <speed>24.06</speed>
  <fix>3d</fix>
</trkpt>
<trkpt lat="-27.2757765" lon="151.2905034">
  <ele>399.71</ele>
  <time>2026-09-01T19:58:55Z</time>
  <course>215.17</course>
  <speed>21.556855058194365</speed>
  <fix>3d</fix>
</trkpt>
<trkpt lat="-27.2757461" lon="151.2905285">
  <ele>398.47</ele>
  <time>2026-09-01T19:58:55Z</time>
  <course>213.95</course>
  <speed>22.78</speed>
  <fix>3d</fix>
</trkpt>
<trkpt lat="-27.2757918" lon="151.2904908">
  <ele>400.33</ele>
  <time>2026-09-01T19:58:55Z</time>
  <course>215.46</course>
  <speed>21.05203078090092</speed>
  <fix>3d</fix>
</trkpt>
<trkpt lat="-27.2757461" lon="151.2905285">
  <ele>398.47</ele>
  <time>2026-09-01T19:58:55Z</time>
  <course>213.95</course>
  <speed>22.78</speed>
  <fix>3d</fix>
</trkpt>
<trkpt lat="-27.2758069" lon="151.2904781">
  <ele>400.91</ele>
  <time>2026-09-01T19:58:55Z</time>
  <course>215.73</course>
  <speed>20.600970850908944</speed>
  <fix>3d</fix>
</trkpt>
<trkpt lat="-27.2757787" lon="151.2905028">
  <ele>399.71</ele>
  <time>2026-09-01T19:58:55Z</time>
  <course>215.88</course>
  <speed>21.58</speed>
  <fix>3d</fix>
</trkpt>
<trkpt lat="-27.2758215" lon="151.2904656">
  <ele>401.46</ele>
  <time>2026-09-01T19:58:55Z</time>
  <course>215.99</course>
  <speed>20.19253574962788</speed>
  <fix>3d</fix>
</trkpt>
<trkpt lat="-27.2757787" lon="151.2905028">
  <ele>399.71</ele>
  <time>2026-09-01T19:58:55Z</time>
  <course>215.88</course>
  <speed>21.58</speed>
  <fix>3d</fix>
</trkpt>
<trkpt lat="-27.2758358" lon="151.2904532">
  <ele>401.97</ele>
  <time>2026-09-01T19:58:55Z</time>
  <course>216.24</course>
  <speed>19.796163769781256</speed>
  <fix>3d</fix>
</trkpt>
<trkpt lat="-27.2758091" lon="151.2904774">
  <ele>400.89</ele>
  <time>2026-09-01T19:58:55Z</time>
  <course>217.05</course>
  <speed>20.59</speed>
  <fix>3d</fix>
</trkpt>
<trkpt lat="-27.2758499" lon="151.2904409">
  <ele>402.44</ele>
  <time>2026-09-01T19:58:55Z</time>
  <course>216.47</course>
  <speed>19.431636575440578</speed>
  <fix>3d</fix>
</trkpt>
<trkpt lat="-27.2758091" lon="151.2904774">
  <ele>400.89</ele>
  <time>2026-09-01T19:58:55Z</time>
  <course>217.05</course>
  <speed>20.59</speed>
  <fix>3d</fix>
</trkpt>
<trkpt lat="-27.2758635" lon="151.290429">
  <ele>402.87</ele>
  <time>2026-09-01T19:58:55Z</time>
  <course>216.67</course>
  <speed>19.090866926360363</speed>
  <fix>3d</fix>
</trkpt>
<trkpt lat="-27.2758379" lon="151.2904527">
  <ele>401.94</ele>
  <time>2026-09-01T19:58:55Z</time>
  <course>217.72</course>
  <speed>19.77</speed>
  <fix>3d</fix>
</trkpt>
<trkpt lat="-27.2758768" lon="151.2904172">
  <ele>403.25</ele>
  <time>2026-09-01T19:58:56Z</time>
  <course>216.87</course>
  <speed>18.76588660308913</speed>
  <fix>3d</fix>
</trkpt>
<trkpt lat="-27.2758379" lon="151.2904527">
  <ele>401.94</ele>
  <time>2026-09-01T19:58:56Z</time>
  <course>217.72</course>
  <speed>19.77</speed>
  <fix>3d</fix>
</trkpt>
<trkpt lat="-27.2758899" lon="151.2904056">
  <ele>403.58</ele>
  <time>2026-09-01T19:58:56Z</time>
  <course>217.07</course>
  <speed>18.464433378796112</speed>
  <fix>3d</fix>
</trkpt>
<trkpt lat="-27.2758654" lon="151.2904285">
  <ele>402.82</ele>
  <time>2026-09-01T19:58:56Z</time>
  <course>218.12</course>
  <speed>19.05</speed>
  <fix>3d</fix>
</trkpt>
<trkpt lat="-27.2759028" lon="151.2903942">
  <ele>403.87</ele>
  <time>2026-09-01T19:58:56Z</time>
  <course>217.24</course>
  <speed>18.17081726285309</speed>
  <fix>3d</fix>
</trkpt>
<trkpt lat="-27.2758654" lon="151.2904285">
  <ele>402.82</ele>
  <time>2026-09-01T19:58:56Z</time>
  <course>218.12</course>
  <speed>19.05</speed>
  <fix>3d</fix>
</trkpt>
<trkpt lat="-27.2759155" lon="151.290383">
  <ele>404.12</ele>
  <time>2026-09-01T19:58:56Z</time>
  <course>217.4</course>
  <speed>17.900636860179024</speed>
  <fix>3d</fix>
</trkpt>
<trkpt lat="-27.2758919" lon="151.290405">
  <ele>403.52</ele>
  <time>2026-09-01T19:58:56Z</time>
  <course>218.34</course>
  <speed>18.43</speed>
  <fix>3d</fix>
</trkpt>
<trkpt lat="-27.2759279" lon="151.2903719">
  <ele>404.32</ele>
  <time>2026-09-01T19:58:56Z</time>
  <course>217.52</course>
  <speed>17.64451189463738</speed>
  <fix>3d</fix>
</trkpt>
<trkpt lat="-27.2758919" lon="151.290405">
  <ele>403.52</ele>
  <time>2026-09-01T19:58:56Z</time>
  <course>218.34</course>
  <speed>18.43</speed>
  <fix>3d</fix>
</trkpt>
<trkpt lat="-27.2759403" lon="151.2903609">
  <ele>404.49</ele>
  <time>2026-09-01T19:58:56Z</time>
  <course>217.61</course>
  <speed>17.39777284597083</speed>
  <fix>3d</fix>
</trkpt>
<trkpt lat="-27.2759175" lon="151.2903822">
  <ele>404.05</ele>
  <time>2026-09-01T19:58:56Z</time>
  <course>218.41</course>
  <speed>17.87</speed>
  <fix>3d</fix>
</trkpt>
<trkpt lat="-27.2759524" lon="151.2903502">
  <ele>404.63</ele>
  <time>2026-09-01T19:58:56Z</time>
  <course>217.66</course>
  <speed>17.172935101490367</speed>
  <fix>3d</fix>
</trkpt>
<trkpt lat="-27.2759175" lon="151.2903822">
  <ele>404.05</ele>
  <time>2026-09-01T19:58:56Z</time>
  <course>218.41</course>
  <speed>17.87</speed>
  <fix>3d</fix>
</trkpt>
<trkpt lat="-27.2759644" lon="151.2903395">
  <ele>404.73</ele>
  <time>2026-09-01T19:58:56Z</time>
  <course>217.66</course>
  <speed>16.949764010156603</speed>
  <fix>3d</fix>
</trkpt>
<trkpt lat="-27.2759422" lon="151.2903602">
  <ele>404.41</ele>
  <time>2026-09-01T19:58:56Z</time>
  <course>218.35</course>
  <speed>17.37</speed>
  <fix>3d</fix>
</trkpt>
<trkpt lat="-27.2759763" lon="151.2903291">
  <ele>404.81</ele>
  <time>2026-09-01T19:58:56Z</time>
  <course>217.6</course>
  <speed>16.74858800018676</speed>
  <fix>3d</fix>
</trkpt>
<trkpt lat="-27.2759422" lon="151.2903602">
  <ele>404.41</ele>
  <time>2026-09-01T19:58:56Z</time>
  <course>218.35</course>
  <speed>17.37</speed>
  <fix>3d</fix>
</trkpt>
<trkpt lat="-27.2759881" lon="151.2903188">
  <ele>404.86</ele>
  <time>2026-09-01T19:58:56Z</time>
  <course>217.5</course>
  <speed>16.543095236381856</speed>
  <fix>3d</fix>
</trkpt>
<trkpt lat="-27.2759664" lon="151.2903387">
  <ele>404.65</ele>
  <time>2026-09-01T19:58:56Z</time>
  <course>218.15</course>
  <speed>16.92</speed>
  <fix>3d</fix>
</trkpt>
<trkpt lat="-27.2759998" lon="151.2903087">
  <ele>404.9</ele>
  <time>2026-09-01T19:58:56Z</time>
  <course>217.36</course>
  <speed>16.35981968115786</speed>
  <fix>3d</fix>
</trkpt>
<trkpt lat="-27.2759664" lon="151.2903387">
  <ele>404.65</ele>
  <time>2026-09-01T19:58:56Z</time>
  <course>218.15</course>
  <speed>16.92</speed>
  <fix>3d</fix>
</trkpt>
<trkpt lat="-27.2760114" lon="151.2902988">
  <ele>404.93</ele>
  <time>2026-09-01T19:58:56Z</time>
  <course>217.17</course>
  <speed>16.180605674695865</speed>
  <fix>3d</fix>
</trkpt>
<trkpt lat="-27.2759901" lon="151.2903179">
  <ele>404.78</ele>
  <time>2026-09-01T19:58:56Z</time>
  <course>217.77</course>
  <speed>16.52</speed>
  <fix>3d</fix>
</trkpt>
<trkpt lat="-27.2760229" lon="151.290289">
  <ele>404.96</ele>
  <time>2026-09-01T19:58:56Z</time>
  <course>216.94</course>
  <speed>16.00401512121255</speed>
  <fix>3d</fix>
</trkpt>
<trkpt lat="-27.2759901" lon="151.2903179">
  <ele>404.78</ele>
  <time>2026-09-01T19:58:56Z</time>
  <course>217.77</course>
  <speed>16.52</speed>
  <fix>3d</fix>
</trkpt>
<trkpt lat="-27.2760344" lon="151.2902795">
  <ele>404.99</ele>
  <time>2026-09-01T19:58:56Z</time>
  <course>216.65</course>
  <speed>15.8363284886365</speed>
  <fix>3d</fix>
</trkpt>
<trkpt lat="-27.2760134" lon="151.2902978">
  <ele>404.86</ele>
  <time>2026-09-01T19:58:56Z</time>
  <course>217.15</course>
  <speed>16.16</speed>
  <fix>3d</fix>
</trkpt>
<trkpt lat="-27.2760458" lon="151.2902701">
  <ele>405.03</ele>
  <time>2026-09-01T19:58:56Z</time>
  <course>216.3</course>
  <speed>15.665963104769524</speed>
  <fix>3d</fix>
</trkpt>
<trkpt lat="-27.2760134" lon="151.2902978">
  <ele>404.86</ele>
  <time>2026-09-01T19:58:56Z</time>
  <course>217.15</course>
  <speed>16.16</speed>
  <fix>3d</fix>
</trkpt>
<trkpt lat="-27.2760572" lon="151.290261">
  <ele>405.09</ele>
  <time>2026-09-01T19:58:56Z</time>
  <course>215.88</course>
  <speed>15.49700938891114</speed>
  <fix>3d</fix>
</trkpt>
<trkpt lat="-27.2760364" lon="151.2902785">
  <ele>404.92</ele>
  <time>2026-09-01T19:58:56Z</time>
  <course>216.29</course>
  <speed>15.81</speed>
  <fix>3d</fix>
</trkpt>
<trkpt lat="-27.2760685" lon="151.2902521">
  <ele>405.15</ele>
  <time>2026-09-01T19:58:56Z</time>
  <course>215.42</course>
  <speed>15.332012261930918</speed>
  <fix>3d</fix>
</trkpt>
<trkpt lat="-27.2760364" lon="151.2902785">
  <ele>404.92</ele>
  <time>2026-09-01T19:58:56Z</time>
  <course>216.29</course>
  <speed>15.81</speed>
  <fix>3d</fix>
</trkpt>
<trkpt lat="-27.2760799" lon="151.2902434">
  <ele>405.24</ele>
  <time>2026-09-01T19:58:56Z</time>
  <course>214.92</course>
  <speed>15.168813401186</speed>
  <fix>3d</fix>
</trkpt>
<trkpt lat="-27.2760592" lon="151.29026">
  <ele>405.02</ele>
  <time>2026-09-01T19:58:56Z</time>
  <course>215.21</course>
  <speed>15.48</speed>
  <fix>3d</fix>
</trkpt>
<trkpt lat="-27.2760911" lon="151.290235">
  <ele>405.34</ele>
  <time>2026-09-01T19:58:56Z</time>
  <course>214.38</course>
  <speed>15.01028980399779</speed>
  <fix>3d</fix>
</trkpt>
<trkpt lat="-27.2760592" lon="151.29026">
  <ele>405.02</ele>
  <time>2026-09-01T19:58:56Z</time>
  <course>215.21</course>
  <speed>15.48</speed>
  <fix>3d</fix>
</trkpt>
<trkpt lat="-27.2761025" lon="151.2902267">
  <ele>405.45</ele>
  <time>2026-09-01T19:58:56Z</time>
  <course>213.82</course>
  <speed>14.84560541035629</speed>
  <fix>3d</fix>
</trkpt>
<trkpt lat="-27.2760819" lon="151.2902424">
  <ele>405.18</ele>
  <time>2026-09-01T19:58:56Z</time>
  <course>213.95</course>
  <speed>15.16</speed>
  <fix>3d</fix>
</trkpt>
<trkpt lat="-27.2761137" lon="151.2902187">
  <ele>405.59</ele>
  <time>2026-09-01T19:58:56Z</time>
  <course>213.24</course>
  <speed>14.691579220764527</speed>
  <fix>3d</fix>
</trkpt>
<trkpt lat="-27.2760819" lon="151.2902424">
  <ele>405.18</ele>
  <time>2026-09-01T19:58:56Z</time>
  <course>213.95</course>
  <speed>15.16</speed>
  <fix>3d</fix>
</trkpt>
<trkpt lat="-27.2761249" lon="151.290211">
  <ele>405.75</ele>
  <time>2026-09-01T19:58:56Z</time>
  <course>212.64</course>
  <speed>14.539944979263161</speed>
  <fix>3d</fix>
</trkpt>
<trkpt lat="-27.2761044" lon="151.2902258">
  <ele>405.41</ele>
  <time>2026-09-01T19:58:56Z</time>
  <course>212.57</course>
  <speed>14.84</speed>
  <fix>3d</fix>
</trkpt>
<trkpt lat="-27.276136" lon="151.2902035">
  <ele>405.92</ele>
  <time>2026-09-01T19:58:56Z</time>
  <course>212.03</course>
  <speed>14.390778297229097</speed>
  <fix>3d</fix>
</trkpt>
<trkpt lat="-27.2761044" lon="151.2902258">
  <ele>405.41</ele>
  <time>2026-09-01T19:58:56Z</time>
  <course>212.57</course>
  <speed>14.84</speed>
  <fix>3d</fix>
</trkpt>
<trkpt lat="-27.2761471" lon="151.2901963">
  <ele>406.1</ele>
  <time>2026-09-01T19:58:56Z</time>
  <course>211.4</course>
  <speed>14.249129797991175</speed>
  <fix>3d</fix>
</trkpt>
<trkpt lat="-27.2761269" lon="151.2902101">
  <ele>405.7</ele>
  <time>2026-09-01T19:58:56Z</time>
  <course>211.11</course>
  <speed>14.53</speed>
  <fix>3d</fix>
</trkpt>
<trkpt lat="-27.2761582" lon="151.2901893">
  <ele>406.3</ele>
  <time>2026-09-01T19:58:56Z</time>
  <course>210.76</course>
  <speed>14.109872430323387</speed>
  <fix>3d</fix>
</trkpt>
<trkpt lat="-27.2761269" lon="151.2902101">
  <ele>405.7</ele>
  <time>2026-09-01T19:58:56Z</time>
  <course>211.11</course>
  <speed>14.53</speed>
  <fix>3d</fix>
</trkpt>
<trkpt lat="-27.2761693" lon="151.2901825">
  <ele>406.51</ele>
  <time>2026-09-01T19:58:56Z</time>
  <course>210.11</course>
  <speed>13.977825295803349</speed>
  <fix>3d</fix>
</trkpt>
<trkpt lat="-27.2761492" lon="151.2901953">
  <ele>406.05</ele>
  <time>2026-09-01T19:58:56Z</time>
  <course>209.62</course>
  <speed>14.25</speed>
  <fix>3d</fix>
</trkpt>
<trkpt lat="-27.2761804" lon="151.2901759">
  <ele>406.74</ele>
  <time>2026-09-01T19:58:56Z</time>
  <course>209.46</course>
  <speed>13.856940499258847</speed>
  <fix>3d</fix>
</trkpt>
<trkpt lat="-27.2761492" lon="151.2901953">
  <ele>406.05</ele>
  <time>2026-09-01T19:58:56Z</time>
  <course>209.62</course>
  <speed>14.25</speed>
  <fix>3d</fix>
</trkpt>
<trkpt lat="-27.2761914" lon="151.2901695">
  <ele>406.97</ele>
  <time>2026-09-01T19:58:56Z</time>
  <course>208.8</course>
  <speed>13.734139943949895</speed>
  <fix>3d</fix>
</trkpt>
<trkpt lat="-27.2761713" lon="151.2901816">
  <ele>406.47</ele>
  <time>2026-09-01T19:58:56Z</time>
  <course>208.12</course>
  <speed>13.98</speed>
  <fix>3d</fix>
</trkpt>
<trkpt lat="-27.2762024" lon="151.2901634">
  <ele>407.22</ele>
  <time>2026-09-01T19:58:56Z</time>
  <course>208.14</course>
  <speed>13.617947716157527</speed>
  <fix>3d</fix>
</trkpt>
<trkpt lat="-27.2761713" lon="151.2901816">
  <ele>406.47</ele>
  <time>2026-09-01T19:58:56Z</time>
  <course>208.12</course>
  <speed>13.98</speed>
  <fix>3d</fix>
</trkpt>
<trkpt lat="-27.2762134" lon="151.2901574">
  <ele>407.48</ele>
  <time>2026-09-01T19:58:56Z</time>
  <course>207.47</course>
  <speed>13.508515832614625</speed>
  <fix>3d</fix>
</trkpt>
<trkpt lat="-27.2761935" lon="151.2901687">
  <ele>406.93</ele>
  <time>2026-09-01T19:58:56Z</time>
  <course>206.63</course>
  <speed>13.74</speed>
  <fix>3d</fix>
</trkpt>
<trkpt lat="-27.2762244" lon="151.2901517">
  <ele>407.74</ele>
  <time>2026-09-01T19:58:56Z</time>
  <course>206.81</course>
  <speed>13.391702655002462</speed>
  <fix>3d</fix>
</trkpt>
<trkpt lat="-27.2761935" lon="151.2901687">
  <ele>406.93</ele>
  <time>2026-09-01T19:58:56Z</time>
  <course>206.63</course>
  <speed>13.74</speed>
  <fix>3d</fix>
</trkpt>
<trkpt lat="-27.2762353" lon="151.2901461">
  <ele>408.01</ele>
  <time>2026-09-01T19:58:56Z</time>
  <course>206.15</course>
  <speed>13.285830798260228</speed>
  <fix>3d</fix>
</trkpt>
<trkpt lat="-27.2762155" lon="151.2901566">
  <ele>407.43</ele>
  <time>2026-09-01T19:58:56Z</time>
  <course>205.18</course>
  <speed>13.51</speed>
  <fix>3d</fix>
</trkpt>
<trkpt lat="-27.2762462" lon="151.2901408">
  <ele>408.28</ele>
  <time>2026-09-01T19:58:56Z</time>
  <course>205.5</course>
  <speed>13.17671051514755</speed>
  <fix>3d</fix>
</trkpt>
<trkpt lat="-27.2762155" lon="151.2901566">
  <ele>407.43</ele>
  <time>2026-09-01T19:58:56Z</time>
  <course>205.18</course>
  <speed>13.51</speed>
  <fix>3d</fix>
</trkpt>
<trkpt lat="-27.2762571" lon="151.2901356">
  <ele>408.56</ele>
  <time>2026-09-01T19:58:56Z</time>
  <course>204.86</course>
  <speed>13.056190102782663</speed>
  <fix>3d</fix>
</trkpt>
<trkpt lat="-27.2762374" lon="151.2901455">
  <ele>407.96</ele>
  <time>2026-09-01T19:58:56Z</time>
  <course>203.79</course>
  <speed>13.3</speed>
  <fix>3d</fix>
</trkpt>
<trkpt lat="-27.2762679" lon="151.2901306">
  <ele>408.84</ele>
  <time>2026-09-01T19:58:56Z</time>
  <course>204.21</course>
  <speed>12.941290507518948</speed>
  <fix>3d</fix>
</trkpt>
<trkpt lat="-27.2762374" lon="151.2901455">
  <ele>407.96</ele>
  <time>2026-09-01T19:58:56Z</time>
  <course>203.79</course>
  <speed>13.3</speed>
  <fix>3d</fix>
</trkpt>
<trkpt lat="-27.2762787" lon="151.2901258">
  <ele>409.12</ele>
  <time>2026-09-01T19:58:56Z</time>
  <course>203.57</course>
  <speed>12.818775292515273</speed>
  <fix>3d</fix>
</trkpt>
<trkpt lat="-27.2762592" lon="151.290135">
  <ele>408.51</ele>
  <time>2026-09-01T19:58:56Z</time>
  <course>202.46</course>
  <speed>13.07</speed>
  <fix>3d</fix>
</trkpt>
<trkpt lat="-27.2762894" lon="151.2901212">
  <ele>409.41</ele>
  <time>2026-09-01T19:58:56Z</time>
  <course>202.93</course>
  <speed>12.7014684190451</speed>
  <fix>3d</fix>
</trkpt>
<trkpt lat="-27.2762592" lon="151.290135">
  <ele>408.51</ele>
  <time>2026-09-01T19:58:56Z</time>
  <course>202.46</course>
  <speed>13.07</speed>
  <fix>3d</fix>
</trkpt>
<trkpt lat="-27.2763001" lon="151.2901167">
  <ele>409.7</ele>
  <time>2026-09-01T19:58:56Z</time>
  <course>202.31</course>
  <speed>12.576267331764223</speed>
  <fix>3d</fix>
</trkpt>
<trkpt lat="-27.2762808" lon="151.2901253">
  <ele>409.07</ele>
  <time>2026-09-01T19:58:56Z</time>
  <course>201.16</course>
  <speed>12.84</speed>
  <fix>3d</fix>
</trkpt>
<trkpt lat="-27.2763107" lon="151.2901125">
  <ele>409.99</ele>
  <time>2026-09-01T19:58:56Z</time>
  <course>201.69</course>
  <speed>12.443102507011666</speed>
  <fix>3d</fix>
</trkpt>
<trkpt lat="-27.2762808" lon="151.2901253">
  <ele>409.07</ele>
  <time>2026-09-01T19:58:56Z</time>
  <course>201.16</course>
  <speed>12.84</speed>
  <fix>3d</fix>
</trkpt>
<trkpt lat="-27.2763211" lon="151.2901084">
  <ele>410.27</ele>
  <time>2026-09-01T19:58:56Z</time>
  <course>201.09</course>
  <speed>12.311364668467911</speed>
  <fix>3d</fix>
</trkpt>
<trkpt lat="-27.2763022" lon="151.2901162">
  <ele>409.64</ele>
  <time>2026-09-01T19:58:56Z</time>
  <course>199.9</course>
  <speed>12.59</speed>
  <fix>3d</fix>
</trkpt>
<trkpt lat="-27.2763316" lon="151.2901044">
  <ele>410.56</ele>
  <time>2026-09-01T19:58:56Z</time>
  <course>200.49</course>
  <speed>12.17476899164826</speed>
  <fix>3d</fix>
</trkpt>
<trkpt lat="-27.2763022" lon="151.2901162">
  <ele>409.64</ele>
  <time>2026-09-01T19:58:56Z</time>
  <course>199.9</course>
  <speed>12.59</speed>
  <fix>3d</fix>
</trkpt>
<trkpt lat="-27.2763419" lon="151.2901007">
  <ele>410.85</ele>
  <time>2026-09-01T19:58:56Z</time>
  <course>199.92</course>
  <speed>12.02990440527272</speed>
  <fix>3d</fix>
</trkpt>
<trkpt lat="-27.2763233" lon="151.2901079">
  <ele>410.22</ele>
  <time>2026-09-01T19:58:56Z</time>
  <course>198.68</course>
  <speed>12.33</speed>
  <fix>3d</fix>
</trkpt>
<trkpt lat="-27.2763522" lon="151.290097">
  <ele>411.13</ele>
  <time>2026-09-01T19:58:56Z</time>
  <course>199.41</course>
  <speed>11.898789854434778</speed>
  <fix>3d</fix>
</trkpt>
<trkpt lat="-27.2763233" lon="151.2901079">
  <ele>410.22</ele>
  <time>2026-09-01T19:58:56Z</time>
  <course>198.68</course>
  <speed>12.33</speed>
  <fix>3d</fix>
</trkpt>
<trkpt lat="-27.2763624" lon="151.2900936">
  <ele>411.41</ele>
  <time>2026-09-01T19:58:56Z</time>
  <course>198.93</course>
  <speed>11.790848145913847</speed>
  <fix>3d</fix>
</trkpt>
<trkpt lat="-27.2763442" lon="151.2901003">
  <ele>410.8</ele>
  <time>2026-09-01T19:58:56Z</time>
  <course>197.51</course>
  <speed>12.06</speed>
  <fix>3d</fix>
</trkpt>
<trkpt lat="-27.2763727" lon="151.2900902">
  <ele>411.68</ele>
  <time>2026-09-01T19:58:56Z</time>
  <course>198.44</course>
  <speed>11.696401155911165</speed>
  <fix>3d</fix>
</trkpt>
<trkpt lat="-27.2763442" lon="151.2901003">
  <ele>410.8</ele>
  <time>2026-09-01T19:58:56Z</time>
  <course>197.51</course>
  <speed>12.06</speed>
  <fix>3d</fix>
</trkpt>
<trkpt lat="-27.2763828" lon="151.290087">
  <ele>411.94</ele>
  <time>2026-09-01T19:58:56Z</time>
  <course>197.92</course>
  <speed>11.627626584991454</speed>
  <fix>3d</fix>
</trkpt>
<trkpt lat="-27.2763647" lon="151.2900932">
  <ele>411.36</ele>
  <time>2026-09-01T19:58:56Z</time>
  <course>196.42</course>
  <speed>11.82</speed>
  <fix>3d</fix>
</trkpt>
<trkpt lat="-27.276393" lon="151.2900838">
  <ele>412.19</ele>
  <time>2026-09-01T19:58:56Z</time>
  <course>197.39</course>
  <speed>11.578920502361177</speed>
  <fix>3d</fix>
</trkpt>
<trkpt lat="-27.2763647" lon="151.2900932">
  <ele>411.36</ele>
  <time>2026-09-01T19:58:56Z</time>
  <course>196.42</course>
  <speed>11.82</speed>
  <fix>3d</fix>
</trkpt>
<trkpt lat="-27.2764031" lon="151.2900809">
  <ele>412.43</ele>
  <time>2026-09-01T19:58:56Z</time>
  <course>196.88</course>
  <speed>11.533646431202927</speed>
  <fix>3d</fix>
</trkpt>
<trkpt lat="-27.2763851" lon="151.2900867">
  <ele>411.89</ele>
  <time>2026-09-01T19:58:56Z</time>
  <course>195.42</course>
  <speed>11.66</speed>
  <fix>3d</fix>
</trkpt>
<trkpt lat="-27.2764131" lon="151.290078">
  <ele>412.66</ele>
  <time>2026-09-01T19:58:56Z</time>
  <course>196.39</course>
  <speed>11.49878689253784</speed>
  <fix>3d</fix>
</trkpt>
<trkpt lat="-27.2763851" lon="151.2900867">
  <ele>411.89</ele>
  <time>2026-09-01T19:58:56Z</time>
  <course>195.42</course>
  <speed>11.66</speed>
  <fix>3d</fix>
</trkpt>
<trkpt lat="-27.2764232" lon="151.2900752">
  <ele>412.89</ele>
  <time>2026-09-01T19:58:56Z</time>
  <course>195.95</course>
  <speed>11.47922035680124</speed>
  <fix>3d</fix>
</trkpt>
<trkpt lat="-27.2764052" lon="151.2900807">
  <ele>412.38</ele>
  <time>2026-09-01T19:58:56Z</time>
  <course>194.48</course>
  <speed>11.56</speed>
  <fix>3d</fix>
</trkpt>
<trkpt lat="-27.2764332" lon="151.2900724">
  <ele>413.11</ele>
  <time>2026-09-01T19:58:56Z</time>
  <course>195.53</course>
  <speed>11.457835746771725</speed>
  <fix>3d</fix>
</trkpt>
<trkpt lat="-27.2764052" lon="151.2900807">
  <ele>412.38</ele>
  <time>2026-09-01T19:58:56Z</time>
  <course>194.48</course>
  <speed>11.56</speed>
  <fix>3d</fix>
</trkpt>
<trkpt lat="-27.2764433" lon="151.2900698">
  <ele>413.33</ele>
  <time>2026-09-01T19:58:56Z</time>
  <course>195.13</course>
  <speed>11.439388095523292</speed>
  <fix>3d</fix>
</trkpt>
<trkpt lat="-27.2764253" lon="151.290075">
  <ele>412.83</ele>
  <time>2026-09-01T19:58:56Z</time>
  <course>193.63</course>
  <speed>11.5</speed>
  <fix>3d</fix>
</trkpt>
<trkpt lat="-27.2764533" lon="151.2900672">
  <ele>413.56</ele>
  <time>2026-09-01T19:58:56Z</time>
  <course>194.75</course>
  <speed>11.433433430076898</speed>
  <fix>3d</fix>
</trkpt>
<trkpt lat="-27.2764253" lon="151.290075">
  <ele>412.83</ele>
  <time>2026-09-01T19:58:56Z</time>
  <course>193.63</course>
  <speed>11.5</speed>
  <fix>3d</fix>
</trkpt>
<trkpt lat="-27.2764634" lon="151.2900648">
  <ele>413.77</ele>
  <time>2026-09-01T19:58:56Z</time>
  <course>194.37</course>
  <speed>11.42791319533011</speed>
  <fix>3d</fix>
</trkpt>
<trkpt lat="-27.2764454" lon="151.2900697">
  <ele>413.28</ele>
  <time>2026-09-01T19:58:56Z</time>
  <course>192.84</course>
  <speed>11.47</speed>
  <fix>3d</fix>
</trkpt>
<trkpt lat="-27.2764735" lon="151.2900624">
  <ele>413.99</ele>
  <time>2026-09-01T19:58:56Z</time>
  <course>193.99</course>
  <speed>11.42073990597807</speed>
  <fix>3d</fix>
</trkpt>
<trkpt lat="-27.2764454" lon="151.2900697">
  <ele>413.28</ele>
  <time>2026-09-01T19:58:56Z</time>
  <course>192.84</course>
  <speed>11.47</speed>
  <fix>3d</fix>
</trkpt>
<trkpt lat="-27.2764835" lon="151.29006">
  <ele>414.21</ele>
  <time>2026-09-01T19:58:56Z</time>
  <course>193.61</course>
  <speed>11.416150839928491</speed>
  <fix>3d</fix>
</trkpt>
<trkpt lat="-27.2764655" lon="151.2900646">
  <ele>413.72</ele>
  <time>2026-09-01T19:58:56Z</time>
  <course>192.1</course>
  <speed>11.45</speed>
  <fix>3d</fix>
</trkpt>
<trkpt lat="-27.2764936" lon="151.2900577">
  <ele>414.43</ele>
  <time>2026-09-01T19:58:56Z</time>
  <course>193.22</course>
  <speed>11.402192771568107</speed>
  <fix>3d</fix>
</trkpt>
<trkpt lat="-27.2764655" lon="151.2900646">
  <ele>413.72</ele>
  <time>2026-09-01T19:58:56Z</time>
  <course>192.1</course>
  <speed>11.45</speed>
  <fix>3d</fix>
</trkpt>
<trkpt lat="-27.2765037" lon="151.2900556">
  <ele>414.65</ele>
  <time>2026-09-01T19:58:56Z</time>
  <course>192.82</course>
  <speed>11.38864785652801</speed>
  <fix>3d</fix>
</trkpt>
<trkpt lat="-27.2764856" lon="151.2900599">
  <ele>414.15</ele>
  <time>2026-09-01T19:58:56Z</time>
  <course>191.39</course>
  <speed>11.44</speed>
  <fix>3d</fix>
</trkpt>
<trkpt lat="-27.2765138" lon="151.2900534">
  <ele>414.87</ele>
  <time>2026-09-01T19:58:56Z</time>
  <course>192.44</course>
  <speed>11.354016910327376</speed>
  <fix>3d</fix>
</trkpt>
<trkpt lat="-27.2764856" lon="151.2900599">
  <ele>414.15</ele>
  <time>2026-09-01T19:58:56Z</time>
  <course>191.39</course>
  <speed>11.44</speed>
  <fix>3d</fix>
</trkpt>
<trkpt lat="-27.2765238" lon="151.2900514">
  <ele>415.1</ele>
  <time>2026-09-01T19:58:56Z</time>
  <course>192.08</course>
  <speed>11.292143286373937</speed>
  <fix>3d</fix>
</trkpt>
<trkpt lat="-27.2765057" lon="151.2900555">
  <ele>414.59</ele>
  <time>2026-09-01T19:58:56Z</time>
  <course>190.69</course>
  <speed>11.4</speed>
  <fix>3d</fix>
</trkpt>
<trkpt lat="-27.2765337" lon="151.2900494">
  <ele>415.33</ele>
  <time>2026-09-01T19:58:56Z</time>
  <course>191.77</course>
  <speed>11.220739726060845</speed>
  <fix>3d</fix>
</trkpt>
<trkpt lat="-27.2765057" lon="151.2900555">
  <ele>414.59</ele>
  <time>2026-09-01T19:58:56Z</time>
  <course>190.69</course>
  <speed>11.4</speed>
  <fix>3d</fix>
</trkpt>
<trkpt lat="-27.2765437" lon="151.2900475">
  <ele>415.58</ele>
  <time>2026-09-01T19:58:56Z</time>
  <course>191.53</course>
  <speed>11.131621624902637</speed>
  <fix>3d</fix>
</trkpt>
<trkpt lat="-27.2765258" lon="151.2900513">
  <ele>415.05</ele>
  <time>2026-09-01T19:58:56Z</time>
  <course>190.04</course>
  <speed>11.31</speed>
  <fix>3d</fix>
</trkpt>
<trkpt lat="-27.2765535" lon="151.2900457">
  <ele>415.83</ele>
  <time>2026-09-01T19:58:56Z</time>
  <course>191.35</course>
  <speed>11.036163282590557</speed>
  <fix>3d</fix>
</trkpt>
<trkpt lat="-27.2765258" lon="151.2900513">
  <ele>415.05</ele>
  <time>2026-09-01T19:58:56Z</time>
  <course>190.04</course>
  <speed>11.31</speed>
  <fix>3d</fix>
</trkpt>
<trkpt lat="-27.2765633" lon="151.2900439">
  <ele>416.09</ele>
  <time>2026-09-01T19:58:56Z</time>
  <course>191.25</course>
  <speed>10.932556882998597</speed>
  <fix>3d</fix>
</trkpt>
<trkpt lat="-27.2765457" lon="151.2900475">
  <ele>415.53</ele>
  <time>2026-09-01T19:58:56Z</time>
  <course>189.56</course>
  <speed>11.16</speed>
  <fix>3d</fix>
</trkpt>
<trkpt lat="-27.276573" lon="151.290042">
  <ele>416.36</ele>
  <time>2026-09-01T19:58:56Z</time>
  <course>191.24</course>
  <speed>10.832289693319689</speed>
  <fix>3d</fix>
</trkpt>
<trkpt lat="-27.2765457" lon="151.2900475">
  <ele>415.53</ele>
  <time>2026-09-01T19:58:56Z</time>
  <course>189.56</course>
  <speed>11.16</speed>
  <fix>3d</fix>
</trkpt>
<trkpt lat="-27.2765826" lon="151.2900402">
  <ele>416.63</ele>
  <time>2026-09-01T19:58:56Z</time>
  <course>191.32</course>
  <speed>10.75680714710457</speed>
  <fix>3d</fix>
</trkpt>
<trkpt lat="-27.2765654" lon="151.2900439">
  <ele>416.04</ele>
  <time>2026-09-01T19:58:56Z</time>
  <course>189.36</course>
  <speed>10.97</speed>
  <fix>3d</fix>
</trkpt>
<trkpt lat="-27.2765922" lon="151.2900384">
  <ele>416.89</ele>
  <time>2026-09-01T19:58:56Z</time>
  <course>191.48</course>
  <speed>10.706353254026322</speed>
  <fix>3d</fix>
</trkpt>
<trkpt lat="-27.2765654" lon="151.2900439">
  <ele>416.04</ele>
  <time>2026-09-01T19:58:56Z</time>
  <course>189.36</course>
  <speed>10.97</speed>
  <fix>3d</fix>
</trkpt>
<trkpt lat="-27.276602" lon="151.2900365">
  <ele>417.15</ele>
  <time>2026-09-01T19:58:56Z</time>
  <course>191.74</course>
  <speed>10.677715111389702</speed>
  <fix>3d</fix>
</trkpt>
<trkpt lat="-27.2765847" lon="151.2900402">
  <ele>416.57</ele>
  <time>2026-09-01T19:58:56Z</time>
  <course>189.58</course>
  <speed>10.8</speed>
  <fix>3d</fix>
</trkpt>
<trkpt lat="-27.2766114" lon="151.2900345">
  <ele>417.4</ele>
  <time>2026-09-01T19:58:56Z</time>
  <course>192.09</course>
  <speed>10.66308116821775</speed>
  <fix>3d</fix>
</trkpt>
<trkpt lat="-27.2765847" lon="151.2900402">
  <ele>416.57</ele>
  <time>2026-09-01T19:58:56Z</time>
  <course>189.58</course>
  <speed>10.8</speed>
  <fix>3d</fix>
</trkpt>
<trkpt lat="-27.2766208" lon="151.2900325">
  <ele>417.64</ele>
  <time>2026-09-01T19:58:56Z</time>
  <course>192.5</course>
  <speed>10.660891144740198</speed>
  <fix>3d</fix>
</trkpt>
<trkpt lat="-27.2766037" lon="151.2900365">
  <ele>417.09</ele>
  <time>2026-09-01T19:58:56Z</time>
  <course>190.22</course>
  <speed>10.72</speed>
  <fix>3d</fix>
</trkpt>
<trkpt lat="-27.2766302" lon="151.2900303">
  <ele>417.87</ele>
  <time>2026-09-01T19:58:56Z</time>
  <course>192.95</course>
  <speed>10.65949811201259</speed>
  <fix>3d</fix>
</trkpt>
<trkpt lat="-27.2766037" lon="151.2900365">
  <ele>417.09</ele>
  <time>2026-09-01T19:58:56Z</time>
  <course>190.22</course>
  <speed>10.72</speed>
  <fix>3d</fix>
</trkpt>
<trkpt lat="-27.2766396" lon="151.2900281">
  <ele>418.11</ele>
  <time>2026-09-01T19:58:56Z</time>
  <course>193.4</course>
  <speed>10.661055294857071</speed>
  <fix>3d</fix>
</trkpt>
<trkpt lat="-27.2766226" lon="151.2900325">
  <ele>417.58</ele>
  <time>2026-09-01T19:58:56Z</time>
  <course>191.14</course>
  <speed>10.69</speed>
  <fix>3d</fix>
</trkpt>
<trkpt lat="-27.276649" lon="151.2900257">
  <ele>418.34</ele>
  <time>2026-09-01T19:58:56Z</time>
  <course>193.85</course>
  <speed>10.653844376561917</speed>
  <fix>3d</fix>
</trkpt>
<trkpt lat="-27.2766226" lon="151.2900325">
  <ele>417.58</ele>
  <time>2026-09-01T19:58:56Z</time>
  <course>191.14</course>
  <speed>10.69</speed>
  <fix>3d</fix>
</trkpt>
<trkpt lat="-27.2766582" lon="151.2900234">
  <ele>418.56</ele>
  <time>2026-09-01T19:58:56Z</time>
  <course>194.27</course>
  <speed>10.635586490645451</speed>
  <fix>3d</fix>
</trkpt>
<trkpt lat="-27.2766414" lon="151.2900282">
  <ele>418.05</ele>
  <time>2026-09-01T19:58:56Z</time>
  <course>192.21</course>
  <speed>10.68</speed>
  <fix>3d</fix>
</trkpt>
<trkpt lat="-27.2766675" lon="151.2900208">
  <ele>418.79</ele>
  <time>2026-09-01T19:58:56Z</time>
  <course>194.65</course>
  <speed>10.62064498982995</speed>
  <fix>3d</fix>
</trkpt>
<trkpt lat="-27.2766414" lon="151.2900282">
  <ele>418.05</ele>
  <time>2026-09-01T19:58:56Z</time>
  <course>192.21</course>
  <speed>10.68</speed>
  <fix>3d</fix>
</trkpt>
<trkpt lat="-27.2766768" lon="151.2900182">
  <ele>419.02</ele>
  <time>2026-09-01T19:58:56Z</time>
  <course>194.81</course>
  <speed>10.601721558313066</speed>
  <fix>3d</fix>
</trkpt>
<trkpt lat="-27.2766601" lon="151.2900234">
  <ele>418.51</ele>
  <time>2026-09-01T19:58:56Z</time>
  <course>193.33</course>
  <speed>10.66</speed>
  <fix>3d</fix>
</trkpt>
<trkpt lat="-27.276686" lon="151.2900155">
  <ele>419.26</ele>
  <time>2026-09-01T19:58:56Z</time>
  <course>194.62</course>
  <speed>10.583520208323883</speed>
  <fix>3d</fix>
</trkpt>
<trkpt lat="-27.2766601" lon="151.2900234">
  <ele>418.51</ele>
  <time>2026-09-01T19:58:56Z</time>
  <course>193.33</course>
  <speed>10.66</speed>
  <fix>3d</fix>
</trkpt>
<trkpt lat="-27.2766952" lon="151.2900128">
  <ele>419.49</ele>
  <time>2026-09-01T19:58:56Z</time>
  <course>194.17</course>
  <speed>10.563370674174035</speed>
  <fix>3d</fix>
</trkpt>
<trkpt lat="-27.2766787" lon="151.2900182">
  <ele>418.97</ele>
  <time>2026-09-01T19:58:56Z</time>
  <course>194.4</course>
  <speed>10.62</speed>
  <fix>3d</fix>
</trkpt>
<trkpt lat="-27.2767044" lon="151.2900099">
  <ele>419.73</ele>
  <time>2026-09-01T19:58:56Z</time>
  <course>193.77</course>
  <speed>10.541062565035842</speed>
  <fix>3d</fix>
</trkpt>
<trkpt lat="-27.2766787" lon="151.2900182">
  <ele>418.97</ele>
  <time>2026-09-01T19:58:56Z</time>
  <course>194.4</course>
  <speed>10.62</speed>
  <fix>3d</fix>
</trkpt>
<trkpt lat="-27.2767135" lon="151.290007">
  <ele>419.97</ele>
  <time>2026-09-01T19:58:56Z</time>
  <course>193.65</course>
  <speed>10.52601539045046</speed>
  <fix>3d</fix>
</trkpt>
<trkpt lat="-27.2766971" lon="151.2900127">
  <ele>419.43</ele>
  <time>2026-09-01T19:58:56Z</time>
  <course>195.32</course>
  <speed>10.58</speed>
  <fix>3d</fix>
</trkpt>
<trkpt lat="-27.2767227" lon="151.2900041">
  <ele>420.21</ele>
  <time>2026-09-01T19:58:56Z</time>
  <course>193.86</course>
  <speed>10.511270142090346</speed>
  <fix>3d</fix>
</trkpt>
<trkpt lat="-27.2766971" lon="151.2900127">
  <ele>419.43</ele>
  <time>2026-09-01T19:58:56Z</time>
  <course>195.32</course>
  <speed>10.58</speed>
  <fix>3d</fix>
</trkpt>
<trkpt lat="-27.2767317" lon="151.2900011">
  <ele>420.45</ele>
  <time>2026-09-01T19:58:56Z</time>
  <course>194.27</course>
  <speed>10.496828092333416</speed>
  <fix>3d</fix>
</trkpt>
<trkpt lat="-27.2767154" lon="151.2900069">
  <ele>419.91</ele>
  <time>2026-09-01T19:58:56Z</time>
  <course>196.05</course>
  <speed>10.55</speed>
  <fix>3d</fix>
</trkpt>
<trkpt lat="-27.2767407" lon="151.289998">
  <ele>420.68</ele>
  <time>2026-09-01T19:58:56Z</time>
  <course>194.75</course>
  <speed>10.49224952047939</speed>
  <fix>3d</fix>
</trkpt>
<trkpt lat="-27.2767154" lon="151.2900069">
  <ele>419.91</ele>
  <time>2026-09-01T19:58:56Z</time>
  <course>196.05</course>
  <speed>10.55</speed>
  <fix>3d</fix>
</trkpt>
<trkpt lat="-27.2767498" lon="151.2899949">
  <ele>420.92</ele>
  <time>2026-09-01T19:58:56Z</time>
  <course>195.2</course>
  <speed>10.490934181473069</speed>
  <fix>3d</fix>
</trkpt>
<trkpt lat="-27.2767335" lon="151.2900009">
  <ele>420.39</ele>
  <time>2026-09-01T19:58:56Z</time>
  <course>196.7</course>
  <speed>10.52</speed>
  <fix>3d</fix>
</trkpt>
<trkpt lat="-27.2767588" lon="151.2899917">
  <ele>421.16</ele>
  <time>2026-09-01T19:58:56Z</time>
  <course>195.59</course>
  <speed>10.48695379984102</speed>
  <fix>3d</fix>
</trkpt>
<trkpt lat="-27.2767335" lon="151.2900009">
  <ele>420.39</ele>
  <time>2026-09-01T19:58:56Z</time>
  <course>196.7</course>
  <speed>10.52</speed>
  <fix>3d</fix>
</trkpt>
<trkpt lat="-27.2767679" lon="151.2899885">
  <ele>421.4</ele>
  <time>2026-09-01T19:58:56Z</time>
  <course>195.95</course>
  <speed>10.486343500000368</speed>
  <fix>3d</fix>
</trkpt>
<trkpt lat="-27.2767516" lon="151.2899947">
  <ele>420.86</ele>
  <time>2026-09-01T19:58:56Z</time>
  <course>197.34</course>
  <speed>10.51</speed>
  <fix>3d</fix>
</trkpt>
<trkpt lat="-27.2767769" lon="151.2899852">
  <ele>421.63</ele>
  <time>2026-09-01T19:58:56Z</time>
  <course>196.31</course>
  <speed>10.482962367575304</speed>
  <fix>3d</fix>
</trkpt>
<trkpt lat="-27.2767516" lon="151.2899947">
  <ele>420.86</ele>
  <time>2026-09-01T19:58:56Z</time>
  <course>197.34</course>
  <speed>10.51</speed>
  <fix>3d</fix>
</trkpt>
<trkpt lat="-27.2767859" lon="151.2899819">
  <ele>421.86</ele>
  <time>2026-09-01T19:58:56Z</time>
  <course>196.67</course>
  <speed>10.448234300588783</speed>
  <fix>3d</fix>
</trkpt>
<trkpt lat="-27.2767696" lon="151.2899882">
  <ele>421.33</ele>
  <time>2026-09-01T19:58:56Z</time>
  <course>198.01</course>
  <speed>10.5</speed>
  <fix>3d</fix>
</trkpt>
<trkpt lat="-27.2767951" lon="151.2899784">
  <ele>422.11</ele>
  <time>2026-09-01T19:58:56Z</time>
  <course>197.03</course>
  <speed>10.397845930768545</speed>
  <fix>3d</fix>
</trkpt>
<trkpt lat="-27.2767696" lon="151.2899882">
  <ele>421.33</ele>
  <time>2026-09-01T19:58:56Z</time>
  <course>198.01</course>
  <speed>10.5</speed>
  <fix>3d</fix>
</trkpt>
<trkpt lat="-27.2768038" lon="151.289975">
  <ele>422.36</ele>
  <time>2026-09-01T19:58:56Z</time>
  <course>197.35</course>
  <speed>10.328378381914558</speed>
  <fix>3d</fix>
</trkpt>
<trkpt lat="-27.2767875" lon="151.2899816">
  <ele>421.81</ele>
  <time>2026-09-01T19:58:56Z</time>
  <course>198.59</course>
  <speed>10.45</speed>
  <fix>3d</fix>
</trkpt>
<trkpt lat="-27.2768126" lon="151.2899717">
  <ele>422.62</ele>
  <time>2026-09-01T19:58:56Z</time>
  <course>197.62</course>
  <speed>10.24621881476284</speed>
  <fix>3d</fix>
</trkpt>
<trkpt lat="-27.2767875" lon="151.2899816">
  <ele>421.81</ele>
  <time>2026-09-01T19:58:56Z</time>
  <course>198.59</course>
  <speed>10.45</speed>
  <fix>3d</fix>
</trkpt>
<trkpt lat="-27.2768213" lon="151.2899683">
  <ele>422.88</ele>
  <time>2026-09-01T19:58:56Z</time>
  <course>197.81</course>
  <speed>10.179729858891148</speed>
  <fix>3d</fix>
</trkpt>
<trkpt lat="-27.2768052" lon="151.2899747">
  <ele>422.3</ele>
  <time>2026-09-01T19:58:56Z</time>
  <course>198.91</course>
  <speed>10.34</speed>
  <fix>3d</fix>
</trkpt>
<trkpt lat="-27.27683" lon="151.289965">
  <ele>423.14</ele>
  <time>2026-09-01T19:58:56Z</time>
  <course>197.9</course>
  <speed>10.110019782374316</speed>
  <fix>3d</fix>
</trkpt>
<trkpt lat="-27.2768052" lon="151.2899747">
  <ele>422.3</ele>
  <time>2026-09-01T19:58:56Z</time>
  <course>198.91</course>
  <speed>10.34</speed>
  <fix>3d</fix>
</trkpt>
<trkpt lat="-27.2768386" lon="151.2899618">
  <ele>423.4</ele>
  <time>2026-09-01T19:58:56Z</time>
  <course>197.9</course>
  <speed>10.037141027204909</speed>
  <fix>3d</fix>
</trkpt>
<trkpt lat="-27.2768226" lon="151.2899681">
  <ele>422.82</ele>
  <time>2026-09-01T19:58:56Z</time>
  <course>198.91</course>
  <speed>10.2</speed>
  <fix>3d</fix>
</trkpt>
<trkpt lat="-27.2768472" lon="151.2899585">
  <ele>423.67</ele>
  <time>2026-09-01T19:58:56Z</time>
  <course>197.8</course>
  <speed>9.964341423295371</speed>
  <fix>3d</fix>
</trkpt>
<trkpt lat="-27.2768226" lon="151.2899681">
  <ele>422.82</ele>
  <time>2026-09-01T19:58:56Z</time>
  <course>198.91</course>
  <speed>10.2</speed>
  <fix>3d</fix>
</trkpt>
<trkpt lat="-27.2768557" lon="151.2899554">
  <ele>423.93</ele>
  <time>2026-09-01T19:58:56Z</time>
  <course>197.66</course>
  <speed>9.885281988896422</speed>
  <fix>3d</fix>
</trkpt>
<trkpt lat="-27.2768399" lon="151.2899615">
  <ele>423.34</ele>
  <time>2026-09-01T19:58:56Z</time>
  <course>198.7</course>
  <speed>10.05</speed>
  <fix>3d</fix>
</trkpt>
<trkpt lat="-27.2768641" lon="151.2899522">
  <ele>424.19</ele>
  <time>2026-09-01T19:58:56Z</time>
  <course>197.51</course>
  <speed>9.80311175086768</speed>
  <fix>3d</fix>
</trkpt>
<trkpt lat="-27.2768399" lon="151.2899615">
  <ele>423.34</ele>
  <time>2026-09-01T19:58:56Z</time>
  <course>198.7</course>
  <speed>10.05</speed>
  <fix>3d</fix>
</trkpt>
<trkpt lat="-27.2768725" lon="151.2899491">
  <ele>424.46</ele>
  <time>2026-09-01T19:58:56Z</time>
  <course>197.37</course>
  <speed>9.724119497414662</speed>
  <fix>3d</fix>
</trkpt>
<trkpt lat="-27.2768569" lon="151.289955">
  <ele>423.87</ele>
  <time>2026-09-01T19:58:56Z</time>
  <course>198.46</course>
  <speed>9.9</speed>
  <fix>3d</fix>
</trkpt>
<trkpt lat="-27.2768808" lon="151.2899461">
  <ele>424.72</ele>
  <time>2026-09-01T19:58:56Z</time>
  <course>197.26</course>
  <speed>9.635647357598762</speed>
  <fix>3d</fix>
</trkpt>
<trkpt lat="-27.2768569" lon="151.289955">
  <ele>423.87</ele>
  <time>2026-09-01T19:58:56Z</time>
  <course>198.46</course>
  <speed>9.9</speed>
  <fix>3d</fix>
</trkpt>
<trkpt lat="-27.276889" lon="151.2899431">
  <ele>424.97</ele>
  <time>2026-09-01T19:58:56Z</time>
  <course>197.17</course>
  <speed>9.556704452895882</speed>
  <fix>3d</fix>
</trkpt>
<trkpt lat="-27.2768737" lon="151.2899488">
  <ele>424.39</ele>
  <time>2026-09-01T19:58:56Z</time>
  <course>198.25</course>
  <speed>9.74</speed>
  <fix>3d</fix>
</trkpt>
<trkpt lat="-27.2768972" lon="151.2899401">
  <ele>425.23</ele>
  <time>2026-09-01T19:58:56Z</time>
  <course>197.09</course>
  <speed>9.477789826747584</speed>
  <fix>3d</fix>
</trkpt>
<trkpt lat="-27.2768737" lon="151.2899488">
  <ele>424.39</ele>
  <time>2026-09-01T19:58:56Z</time>
  <course>198.25</course>
  <speed>9.74</speed>
  <fix>3d</fix>
</trkpt>
<trkpt lat="-27.2769051" lon="151.2899372">
  <ele>425.47</ele>
  <time>2026-09-01T19:58:56Z</time>
  <course>197.02</course>
  <speed>9.398904191447</speed>
  <fix>3d</fix>
</trkpt>
<trkpt lat="-27.2768901" lon="151.2899426">
  <ele>424.91</ele>
  <time>2026-09-01T19:58:56Z</time>
  <course>198.05</course>
  <speed>9.57</speed>
  <fix>3d</fix>
</trkpt>
<trkpt lat="-27.276913" lon="151.2899344">
  <ele>425.72</ele>
  <time>2026-09-01T19:58:56Z</time>
  <course>196.94</course>
  <speed>9.323089616645332</speed>
  <fix>3d</fix>
</trkpt>
<trkpt lat="-27.2768901" lon="151.2899426">
  <ele>424.91</ele>
  <time>2026-09-01T19:58:56Z</time>
  <course>198.05</course>
  <speed>9.57</speed>
  <fix>3d</fix>
</trkpt>
<trkpt lat="-27.276921" lon="151.2899315">
  <ele>425.97</ele>
  <time>2026-09-01T19:58:56Z</time>
  <course>196.86</course>
  <speed>9.244246859533773</speed>
  <fix>3d</fix>
</trkpt>
<trkpt lat="-27.2769063" lon="151.2899368">
  <ele>425.42</ele>
  <time>2026-09-01T19:58:56Z</time>
  <course>197.88</course>
  <speed>9.41</speed>
  <fix>3d</fix>
</trkpt>
<trkpt lat="-27.2769289" lon="151.2899287">
  <ele>426.22</ele>
  <time>2026-09-01T19:58:56Z</time>
  <course>196.77</course>
  <speed>9.158919150205444</speed>
  <fix>3d</fix>
</trkpt>
<trkpt lat="-27.2769063" lon="151.2899368">
  <ele>425.42</ele>
  <time>2026-09-01T19:58:56Z</time>
  <course>197.88</course>
  <speed>9.41</speed>
  <fix>3d</fix>
</trkpt>
<trkpt lat="-27.2769368" lon="151.2899259">
  <ele>426.46</ele>
  <time>2026-09-01T19:58:56Z</time>
  <course>196.68</course>
  <speed>9.083127214786765</speed>
  <fix>3d</fix>
</trkpt>
<trkpt lat="-27.2769223" lon="151.289931">
  <ele>425.92</ele>
  <time>2026-09-01T19:58:56Z</time>
  <course>197.74</course>
  <speed>9.25</speed>
  <fix>3d</fix>
</trkpt>
<trkpt lat="-27.2769446" lon="151.2899231">
  <ele>426.7</ele>
  <time>2026-09-01T19:58:56Z</time>
  <course>196.59</course>
  <speed>9.004337843506317</speed>
  <fix>3d</fix>
</trkpt>
<trkpt lat="-27.2769223" lon="151.289931">
  <ele>425.92</ele>
  <time>2026-09-01T19:58:56Z</time>
  <course>197.74</course>
  <speed>9.25</speed>
  <fix>3d</fix>
</trkpt>
<trkpt lat="-27.2769523" lon="151.2899203">
  <ele>426.94</ele>
  <time>2026-09-01T19:58:56Z</time>
  <course>196.5</course>
  <speed>8.928566514284363</speed>
  <fix>3d</fix>
</trkpt>
<trkpt lat="-27.276938" lon="151.2899253">
  <ele>426.41</ele>
  <time>2026-09-01T19:58:56Z</time>
  <course>197.61</course>
  <speed>9.09</speed>
  <fix>3d</fix>
</trkpt>
<trkpt lat="-27.27696" lon="151.2899176">
  <ele>427.18</ele>
  <time>2026-09-01T19:58:56Z</time>
  <course>196.4</course>
  <speed>8.852801816374294</speed>
  <fix>3d</fix>
</trkpt>
<trkpt lat="-27.276938" lon="151.2899253">
  <ele>426.41</ele>
  <time>2026-09-01T19:58:56Z</time>
  <course>197.61</course>
  <speed>9.09</speed>
  <fix>3d</fix>
</trkpt>
<trkpt lat="-27.2769678" lon="151.2899149">
  <ele>427.43</ele>
  <time>2026-09-01T19:58:56Z</time>
  <course>196.3</course>
  <speed>8.777043921503413</speed>
  <fix>3d</fix>
</trkpt>
<trkpt lat="-27.2769535" lon="151.2899198">
  <ele>426.9</ele>
  <time>2026-09-01T19:58:56Z</time>
  <course>197.48</course>
  <speed>8.94</speed>
  <fix>3d</fix>
</trkpt>
<trkpt lat="-27.2769753" lon="151.2899122">
  <ele>427.67</ele>
  <time>2026-09-01T19:58:56Z</time>
  <course>196.2</course>
  <speed>8.701293007363905</speed>
  <fix>3d</fix>
</trkpt>
<trkpt lat="-27.2769535" lon="151.2899198">
  <ele>426.9</ele>
  <time>2026-09-01T19:58:56Z</time>
  <course>197.48</course>
  <speed>8.94</speed>
  <fix>3d</fix>
</trkpt>
<trkpt lat="-27.2769828" lon="151.2899096">
  <ele>427.91</ele>
  <time>2026-09-01T19:58:56Z</time>
  <course>196.1</course>
  <speed>8.625549257873379</speed>
  <fix>3d</fix>
</trkpt>
<trkpt lat="-27.2769687" lon="151.2899145">
  <ele>427.39</ele>
  <time>2026-09-01T19:58:56Z</time>
  <course>197.35</course>
  <speed>8.78</speed>
  <fix>3d</fix>
</trkpt>
<trkpt lat="-27.2769902" lon="151.2899071">
  <ele>428.15</ele>
  <time>2026-09-01T19:58:56Z</time>
  <course>196.0</course>
  <speed>8.559369135631435</speed>
  <fix>3d</fix>
</trkpt>
<trkpt lat="-27.2769687" lon="151.2899145">
  <ele>427.39</ele>
  <time>2026-09-01T19:58:56Z</time>
  <course>197.35</course>
  <speed>8.78</speed>
  <fix>3d</fix>
</trkpt>
<trkpt lat="-27.2769976" lon="151.2899045">
  <ele>428.39</ele>
  <time>2026-09-01T19:58:56Z</time>
  <course>195.91</course>
  <speed>8.48364308537317</speed>
  <fix>3d</fix>
</trkpt>
<trkpt lat="-27.2769837" lon="151.2899092">
  <ele>427.87</ele>
  <time>2026-09-01T19:58:56Z</time>
  <course>197.22</course>
  <speed>8.63</speed>
  <fix>3d</fix>
</trkpt>
<trkpt lat="-27.2770049" lon="151.2899019">
  <ele>428.64</ele>
  <time>2026-09-01T19:58:56Z</time>
  <course>195.81</course>
  <speed>8.417487748728833</speed>
  <fix>3d</fix>
</trkpt>
<trkpt lat="-27.2769837" lon="151.2899092">
  <ele>427.87</ele>
  <time>2026-09-01T19:58:56Z</time>
  <course>197.22</course>
  <speed>8.63</speed>
  <fix>3d</fix>
</trkpt>
<trkpt lat="-27.2770122" lon="151.2898995">
  <ele>428.89</ele>
  <time>2026-09-01T19:58:56Z</time>
  <course>195.73</course>
  <speed>8.344698916078398</speed>
  <fix>3d</fix>
</trkpt>
<trkpt lat="-27.2769984" lon="151.2899042">
  <ele>428.35</ele>
  <time>2026-09-01T19:58:56Z</time>
  <course>197.11</course>
  <speed>8.49</speed>
  <fix>3d</fix>
</trkpt>
<trkpt lat="-27.2770194" lon="151.289897">
  <ele>429.13</ele>
  <time>2026-09-01T19:58:56Z</time>
  <course>195.65</course>
  <speed>8.278556637482165</speed>
  <fix>3d</fix>
</trkpt>
<trkpt lat="-27.2769984" lon="151.2899042">
  <ele>428.35</ele>
  <time>2026-09-01T19:58:56Z</time>
  <course>197.11</course>
  <speed>8.49</speed>
  <fix>3d</fix>
</trkpt>
<trkpt lat="-27.2770265" lon="151.2898945">
  <ele>429.38</ele>
  <time>2026-09-01T19:58:56Z</time>
  <course>195.57</course>
  <speed>8.212429603960084</speed>
  <fix>3d</fix>
</trkpt>
<trkpt lat="-27.2770128" lon="151.2898991">
  <ele>428.84</ele>
  <time>2026-09-01T19:58:56Z</time>
  <course>197.01</course>
  <speed>8.35</speed>
  <fix>3d</fix>
</trkpt>
<trkpt lat="-27.2770335" lon="151.2898921">
  <ele>429.62</ele>
  <time>2026-09-01T19:58:56Z</time>
  <course>195.5</course>
  <speed>8.149208550528082</speed>
  <fix>3d</fix>
</trkpt>
<trkpt lat="-27.2770128" lon="151.2898991">
  <ele>428.84</ele>
  <time>2026-09-01T19:58:56Z</time>
  <course>197.01</course>
  <speed>8.35</speed>
  <fix>3d</fix>
</trkpt>
<trkpt lat="-27.2770406" lon="151.2898897">
  <ele>429.87</ele>
  <time>2026-09-01T19:58:56Z</time>
  <course>195.42</course>
  <speed>8.095560511786692</speed>
  <fix>3d</fix>
</trkpt>
<trkpt lat="-27.277027" lon="151.2898942">
  <ele>429.33</ele>
  <time>2026-09-01T19:58:56Z</time>
  <course>196.91</course>
  <speed>8.22</speed>
  <fix>3d</fix>
</trkpt>
<trkpt lat="-27.2770475" lon="151.2898874">
  <ele>430.11</ele>
  <time>2026-09-01T19:58:56Z</time>
  <course>195.35</course>
  <speed>8.029458263170685</speed>
  <fix>3d</fix>
</trkpt>
<trkpt lat="-27.277027" lon="151.2898942">
  <ele>429.33</ele>
  <time>2026-09-01T19:58:56Z</time>
  <course>196.91</course>
  <speed>8.22</speed>
  <fix>3d</fix>
</trkpt>
<trkpt lat="-27.2770544" lon="151.289885">
  <ele>430.36</ele>
  <time>2026-09-01T19:58:56Z</time>
  <course>195.27</course>
  <speed>7.966241271766754</speed>
  <fix>3d</fix>
</trkpt>
<trkpt lat="-27.277041" lon="151.2898895">
  <ele>429.82</ele>
  <time>2026-09-01T19:58:56Z</time>
  <course>196.81</course>
  <speed>8.09</speed>
  <fix>3d</fix>
</trkpt>
<trkpt lat="-27.2770613" lon="151.2898827">
  <ele>430.61</ele>
  <time>2026-09-01T19:58:56Z</time>
  <course>195.2</course>
  <speed>7.912603869776371</speed>
  <fix>3d</fix>
</trkpt>
<trkpt lat="-27.277041" lon="151.2898895">
  <ele>429.82</ele>
  <time>2026-09-01T19:58:56Z</time>
  <course>196.81</course>
  <speed>8.09</speed>
  <fix>3d</fix>
</trkpt>
<trkpt lat="-27.2770681" lon="151.2898804">
  <ele>430.85</ele>
  <time>2026-09-01T19:58:56Z</time>
  <course>195.12</course>
  <speed>7.856112270073538</speed>
  <fix>3d</fix>
</trkpt>
<trkpt lat="-27.2770548" lon="151.2898848">
  <ele>430.31</ele>
  <time>2026-09-01T19:58:56Z</time>
  <course>196.71</course>
  <speed>7.97</speed>
  <fix>3d</fix>
</trkpt>
<trkpt lat="-27.2770748" lon="151.2898781">
  <ele>431.1</ele>
  <time>2026-09-01T19:58:56Z</time>
  <course>195.04</course>
  <speed>7.792900615303649</speed>
  <fix>3d</fix>
</trkpt>
<trkpt lat="-27.2770548" lon="151.2898848">
  <ele>430.31</ele>
  <time>2026-09-01T19:58:56Z</time>
  <course>196.71</course>
  <speed>7.97</speed>
  <fix>3d</fix>
</trkpt>
<trkpt lat="-27.2770815" lon="151.2898759">
  <ele>431.35</ele>
  <time>2026-09-01T19:58:56Z</time>
  <course>194.96</course>
  <speed>7.739276451968879</speed>
  <fix>3d</fix>
</trkpt>
<trkpt lat="-27.2770685" lon="151.2898802">
  <ele>430.81</ele>
  <time>2026-09-01T19:58:56Z</time>
  <course>196.59</course>
  <speed>7.85</speed>
  <fix>3d</fix>
</trkpt>
<trkpt lat="-27.2770882" lon="151.2898737">
  <ele>431.6</ele>
  <time>2026-09-01T19:58:56Z</time>
  <course>194.88</course>
  <speed>7.69241834535798</speed>
  <fix>3d</fix>
</trkpt>
<trkpt lat="-27.2770685" lon="151.2898802">
  <ele>430.81</ele>
  <time>2026-09-01T19:58:56Z</time>
  <course>196.59</course>
  <speed>7.85</speed>
  <fix>3d</fix>
</trkpt>
<trkpt lat="-27.2770948" lon="151.2898715">
  <ele>431.85</ele>
  <time>2026-09-01T19:58:56Z</time>
  <course>194.8</course>
  <speed>7.638808807661048</speed>
  <fix>3d</fix>
</trkpt>
<trkpt lat="-27.277082" lon="151.2898757">
  <ele>431.31</ele>
  <time>2026-09-01T19:58:56Z</time>
  <course>196.47</course>
  <speed>7.74</speed>
  <fix>3d</fix>
</trkpt>
<trkpt lat="-27.2771014" lon="151.2898693">
  <ele>432.09</ele>
  <time>2026-09-01T19:58:56Z</time>
  <course>194.72</course>
  <speed>7.585202699994246</speed>
  <fix>3d</fix>
</trkpt>
<trkpt lat="-27.277082" lon="151.2898757">
  <ele>431.31</ele>
  <time>2026-09-01T19:58:56Z</time>
  <course>196.47</course>
  <speed>7.74</speed>
  <fix>3d</fix>
</trkpt>
<trkpt lat="-27.2771078" lon="151.2898672">
  <ele>432.34</ele>
  <time>2026-09-01T19:58:56Z</time>
  <course>194.64</course>
  <speed>7.541200169734258</speed>
  <fix>3d</fix>
</trkpt>
<trkpt lat="-27.2770952" lon="151.2898713">
  <ele>431.8</ele>
  <time>2026-09-01T19:58:56Z</time>
  <course>196.35</course>
  <speed>7.64</speed>
  <fix>3d</fix>
</trkpt>
<trkpt lat="-27.2771145" lon="151.289865">
  <ele>432.6</ele>
  <time>2026-09-01T19:58:56Z</time>
  <course>194.56</course>
  <speed>7.487603087771146</speed>
  <fix>3d</fix>
</trkpt>
<trkpt lat="-27.2770952" lon="151.2898713">
  <ele>431.8</ele>
  <time>2026-09-01T19:58:56Z</time>
  <course>196.35</course>
  <speed>7.64</speed>
  <fix>3d</fix>
</trkpt>
<trkpt lat="-27.2771208" lon="151.2898629">
  <ele>432.85</ele>
  <time>2026-09-01T19:58:56Z</time>
  <course>194.48</course>
  <speed>7.443614713296222</speed>
  <fix>3d</fix>
</trkpt>
<trkpt lat="-27.2771083" lon="151.289867">
  <ele>432.3</ele>
  <time>2026-09-01T19:58:56Z</time>
  <course>196.22</course>
  <speed>7.54</speed>
  <fix>3d</fix>
</trkpt>
<trkpt lat="-27.2771272" lon="151.2898609">
  <ele>433.1</ele>
  <time>2026-09-01T19:58:56Z</time>
  <course>194.39</course>
  <speed>7.387259302339401</speed>
  <fix>3d</fix>
</trkpt>
<trkpt lat="-27.2771083" lon="151.289867">
  <ele>432.3</ele>
  <time>2026-09-01T19:58:56Z</time>
  <course>196.22</course>
  <speed>7.54</speed>
  <fix>3d</fix>
</trkpt>
<trkpt lat="-27.2771335" lon="151.2898588">
  <ele>433.35</ele>
  <time>2026-09-01T19:58:56Z</time>
  <course>194.3</course>
  <speed>7.343296262578543</speed>
  <fix>3d</fix>
</trkpt>
<trkpt lat="-27.2771212" lon="151.2898628">
  <ele>432.81</ele>
  <time>2026-09-01T19:58:56Z</time>
  <course>196.08</course>
  <speed>7.44</speed>
  <fix>3d</fix>
</trkpt>
<trkpt lat="-27.2771398" lon="151.2898568">
  <ele>433.61</ele>
  <time>2026-09-01T19:58:56Z</time>
  <course>194.21</course>
  <speed>7.299342436137655</speed>
  <fix>3d</fix>
</trkpt>
<trkpt lat="-27.2771212" lon="151.2898628">
  <ele>432.81</ele>
  <time>2026-09-01T19:58:56Z</time>
  <course>196.08</course>
  <speed>7.44</speed>
  <fix>3d</fix>
</trkpt>
<trkpt lat="-27.2771462" lon="151.2898548">
  <ele>433.86</ele>
  <time>2026-09-01T19:58:56Z</time>
  <course>194.13</course>
  <speed>7.255397990461998</speed>
  <fix>3d</fix>
</trkpt>
<trkpt lat="-27.277134" lon="151.2898587">
  <ele>433.31</ele>
  <time>2026-09-01T19:58:56Z</time>
  <course>195.95</course>
  <speed>7.35</speed>
  <fix>3d</fix>
</trkpt>
<trkpt lat="-27.2771524" lon="151.2898528">
  <ele>434.11</ele>
  <time>2026-09-01T19:58:56Z</time>
  <course>194.03</course>
  <speed>7.211463097042098</speed>
  <fix>3d</fix>
</trkpt>
<trkpt lat="-27.277134" lon="151.2898587">
  <ele>433.31</ele>
  <time>2026-09-01T19:58:56Z</time>
  <course>195.95</course>
  <speed>7.35</speed>
  <fix>3d</fix>
</trkpt>
<trkpt lat="-27.2771586" lon="151.2898508">
  <ele>434.36</ele>
  <time>2026-09-01T19:58:56Z</time>
  <course>193.93</course>
  <speed>7.167537931535486</speed>
  <fix>3d</fix>
</trkpt>
<trkpt lat="-27.2771466" lon="151.2898546">
  <ele>433.81</ele>
  <time>2026-09-01T19:58:56Z</time>
  <course>195.8</course>
  <speed>7.26</speed>
  <fix>3d</fix>
</trkpt>
<trkpt lat="-27.2771647" lon="151.2898489">
  <ele>434.61</ele>
  <time>2026-09-01T19:58:56Z</time>
  <course>193.84</course>
  <speed>7.123622673892828</speed>
  <fix>3d</fix>
</trkpt>
<trkpt lat="-27.2771466" lon="151.2898546">
  <ele>433.81</ele>
  <time>2026-09-01T19:58:56Z</time>
  <course>195.8</course>
  <speed>7.26</speed>
  <fix>3d</fix>
</trkpt>
<trkpt lat="-27.2771709" lon="151.2898469">
  <ele>434.86</ele>
  <time>2026-09-01T19:58:56Z</time>
  <course>193.74</course>
  <speed>7.0893511691832565</speed>
  <fix>3d</fix>
</trkpt>
<trkpt lat="-27.2771591" lon="151.2898507">
  <ele>434.31</ele>
  <time>2026-09-01T19:58:56Z</time>
  <course>195.65</course>
  <speed>7.18</speed>
  <fix>3d</fix>
</trkpt>
<trkpt lat="-27.277177" lon="151.289845">
  <ele>435.11</ele>
  <time>2026-09-01T19:58:56Z</time>
  <course>193.65</course>
  <speed>7.045459530790025</speed>
  <fix>3d</fix>
</trkpt>
<trkpt lat="-27.2771591" lon="151.2898507">
  <ele>434.31</ele>
  <time>2026-09-01T19:58:56Z</time>
  <course>195.65</course>
  <speed>7.18</speed>
  <fix>3d</fix>
</trkpt>
<trkpt lat="-27.2771831" lon="151.2898432">
  <ele>435.36</ele>
  <time>2026-09-01T19:58:56Z</time>
  <course>193.55</course>
  <speed>7.011219580073071</speed>
  <fix>3d</fix>
</trkpt>
<trkpt lat="-27.2771715" lon="151.2898468">
  <ele>434.81</ele>
  <time>2026-09-01T19:58:56Z</time>
  <course>195.48</course>
  <speed>7.1</speed>
  <fix>3d</fix>
</trkpt>
<trkpt lat="-27.2771891" lon="151.2898413">
  <ele>435.61</ele>
  <time>2026-09-01T19:58:56Z</time>
  <course>193.45</course>
  <speed>6.967352438336961</speed>
  <fix>3d</fix>
</trkpt>
<trkpt lat="-27.2771715" lon="151.2898468">
  <ele>434.81</ele>
  <time>2026-09-01T19:58:56Z</time>
  <course>195.48</course>
  <speed>7.1</speed>
  <fix>3d</fix>
</trkpt>
<trkpt lat="-27.2771952" lon="151.2898394">
  <ele>435.86</ele>
  <time>2026-09-01T19:58:56Z</time>
  <course>193.34</course>
  <speed>6.933145029494191</speed>
  <fix>3d</fix>
</trkpt>
<trkpt lat="-27.2771838" lon="151.289843">
  <ele>435.32</ele>
  <time>2026-09-01T19:58:56Z</time>
  <course>195.31</course>
  <speed>7.03</speed>
  <fix>3d</fix>
</trkpt>
<trkpt lat="-27.2772012" lon="151.2898376">
  <ele>436.11</ele>
  <time>2026-09-01T19:58:56Z</time>
  <course>193.23</course>
  <speed>6.898956442825249</speed>
  <fix>3d</fix>
</trkpt>
<trkpt lat="-27.2771838" lon="151.289843">
  <ele>435.32</ele>
  <time>2026-09-01T19:58:56Z</time>
  <course>195.31</course>
  <speed>7.03</speed>
  <fix>3d</fix>
</trkpt>
<trkpt lat="-27.2772071" lon="151.2898358">
  <ele>436.36</ele>
  <time>2026-09-01T19:58:56Z</time>
  <course>193.12</course>
  <speed>6.864786959549437</speed>
  <fix>3d</fix>
</trkpt>
<trkpt lat="-27.2771959" lon="151.2898393">
  <ele>435.82</ele>
  <time>2026-09-01T19:58:56Z</time>
  <course>195.14</course>
  <speed>6.96</speed>
  <fix>3d</fix>
</trkpt>
<trkpt lat="-27.2772131" lon="151.289834">
  <ele>436.62</ele>
  <time>2026-09-01T19:58:56Z</time>
  <course>193.01</course>
  <speed>6.830636866354411</speed>
  <fix>3d</fix>
</trkpt>
<trkpt lat="-27.2771959" lon="151.2898393">
  <ele>435.82</ele>
  <time>2026-09-01T19:58:56Z</time>
  <course>195.14</course>
  <speed>6.96</speed>
  <fix>3d</fix>
</trkpt>
<trkpt lat="-27.277219" lon="151.2898323">
  <ele>436.87</ele>
  <time>2026-09-01T19:58:56Z</time>
  <course>192.91</course>
  <speed>6.796506455525515</speed>
  <fix>3d</fix>
</trkpt>
<trkpt lat="-27.2772079" lon="151.2898357">
  <ele>436.32</ele>
  <time>2026-09-01T19:58:56Z</time>
  <course>194.96</course>
  <speed>6.89</speed>
  <fix>3d</fix>
</trkpt>
<trkpt lat="-27.2772249" lon="151.2898305">
  <ele>437.12</ele>
  <time>2026-09-01T19:58:56Z</time>
  <course>192.81</course>
  <speed>6.764946415161024</speed>
  <fix>3d</fix>
</trkpt>
<trkpt lat="-27.2772079" lon="151.2898357">
  <ele>436.32</ele>
  <time>2026-09-01T19:58:56Z</time>
  <course>194.96</course>
  <speed>6.89</speed>
  <fix>3d</fix>
</trkpt>
<trkpt lat="-27.2772308" lon="151.2898288">
  <ele>437.37</ele>
  <time>2026-09-01T19:58:56Z</time>
  <course>192.7</course>
  <speed>6.730839472160958</speed>
  <fix>3d</fix>
</trkpt>
<trkpt lat="-27.2772198" lon="151.2898321">
  <ele>436.82</ele>
  <time>2026-09-01T19:58:56Z</time>
  <course>194.77</course>
  <speed>6.82</speed>
  <fix>3d</fix>
</trkpt>
<trkpt lat="-27.2772367" lon="151.2898271">
  <ele>437.62</ele>
  <time>2026-09-01T19:58:56Z</time>
  <course>192.59</course>
  <speed>6.696752944524682</speed>
  <fix>3d</fix>
</trkpt>
<trkpt lat="-27.2772198" lon="151.2898321">
  <ele>436.82</ele>
  <time>2026-09-01T19:58:56Z</time>
  <course>194.77</course>
  <speed>6.82</speed>
  <fix>3d</fix>
</trkpt>
<trkpt lat="-27.2772425" lon="151.2898254">
  <ele>437.87</ele>
  <time>2026-09-01T19:58:56Z</time>
  <course>192.48</course>
  <speed>6.662687145589233</speed>
  <fix>3d</fix>
</trkpt>
<trkpt lat="-27.2772316" lon="151.2898286">
  <ele>437.32</ele>
  <time>2026-09-01T19:58:56Z</time>
  <course>194.58</course>
  <speed>6.75</speed>
  <fix>3d</fix>
</trkpt>
<trkpt lat="-27.2772483" lon="151.2898237">
  <ele>438.12</ele>
  <time>2026-09-01T19:58:56Z</time>
  <course>192.36</course>
  <speed>6.628642394940309</speed>
  <fix>3d</fix>
</trkpt>
<trkpt lat="-27.2772316" lon="151.2898286">
  <ele>437.32</ele>
  <time>2026-09-01T19:58:56Z</time>
  <course>194.58</course>
  <speed>6.75</speed>
  <fix>3d</fix>
</trkpt>
<trkpt lat="-27.2772541" lon="151.289822">
  <ele>438.37</ele>
  <time>2026-09-01T19:58:56Z</time>
  <course>192.25</course>
  <speed>6.594619018563544</speed>
  <fix>3d</fix>
</trkpt>
<trkpt lat="-27.2772433" lon="151.2898252">
  <ele>437.82</ele>
  <time>2026-09-01T19:58:56Z</time>
  <course>194.38</course>
  <speed>6.69</speed>
  <fix>3d</fix>
</trkpt>
<trkpt lat="-27.2772598" lon="151.2898204">
  <ele>438.63</ele>
  <time>2026-09-01T19:58:56Z</time>
  <course>192.12</course>
  <speed>6.570312016944097</speed>
  <fix>3d</fix>
</trkpt>
<trkpt lat="-27.2772433" lon="151.2898252">
  <ele>437.82</ele>
  <time>2026-09-01T19:58:56Z</time>
  <course>194.38</course>
  <speed>6.69</speed>
  <fix>3d</fix>
</trkpt>
<trkpt lat="-27.2772656" lon="151.2898188">
  <ele>438.88</ele>
  <time>2026-09-01T19:58:56Z</time>
  <course>192.0</course>
  <speed>6.536336894622247</speed>
  <fix>3d</fix>
</trkpt>
<trkpt lat="-27.2772549" lon="151.2898219">
  <ele>438.32</ele>
  <time>2026-09-01T19:58:56Z</time>
  <course>194.18</course>
  <speed>6.63</speed>
  <fix>3d</fix>
</trkpt>
<trkpt lat="-27.2772712" lon="151.2898172">
  <ele>439.13</ele>
  <time>2026-09-01T19:58:56Z</time>
  <course>191.89</course>
  <speed>6.514506888475904</speed>
  <fix>3d</fix>
</trkpt>
<trkpt lat="-27.2772549" lon="151.2898219">
  <ele>438.32</ele>
  <time>2026-09-01T19:58:56Z</time>
  <course>194.18</course>
  <speed>6.63</speed>
  <fix>3d</fix>
</trkpt>
<trkpt lat="-27.277277" lon="151.2898156">
  <ele>439.38</ele>
  <time>2026-09-01T19:58:56Z</time>
  <course>191.78</course>
  <speed>6.4805632471259775</speed>
  <fix>3d</fix>
</trkpt>
<trkpt lat="-27.2772664" lon="151.2898187">
  <ele>438.82</ele>
  <time>2026-09-01T19:58:56Z</time>
  <course>193.97</course>
  <speed>6.57</speed>
  <fix>3d</fix>
</trkpt>
<trkpt lat="-27.2772827" lon="151.289814">
  <ele>439.63</ele>
  <time>2026-09-01T19:58:56Z</time>
  <course>191.66</course>
  <speed>6.456353459964842</speed>
  <fix>3d</fix>
</trkpt>
<trkpt lat="-27.2772664" lon="151.2898187">
  <ele>438.82</ele>
  <time>2026-09-01T19:58:56Z</time>
  <course>193.97</course>
  <speed>6.57</speed>
  <fix>3d</fix>
</trkpt>
<trkpt lat="-27.2772883" lon="151.2898125">
  <ele>439.88</ele>
  <time>2026-09-01T19:58:56Z</time>
  <course>191.54</course>
  <speed>6.422460587656416</speed>
  <fix>3d</fix>
</trkpt>
<trkpt lat="-27.2772779" lon="151.2898154">
  <ele>439.32</ele>
  <time>2026-09-01T19:58:56Z</time>
  <course>193.76</course>
  <speed>6.51</speed>
  <fix>3d</fix>
</trkpt>
<trkpt lat="-27.2772939" lon="151.289811">
  <ele>440.13</ele>
  <time>2026-09-01T19:58:56Z</time>
  <course>191.41</course>
  <speed>6.398312277468176</speed>
  <fix>3d</fix>
</trkpt>
<trkpt lat="-27.2772779" lon="151.2898154">
  <ele>439.32</ele>
  <time>2026-09-01T19:58:56Z</time>
  <course>193.76</course>
  <speed>6.51</speed>
  <fix>3d</fix>
</trkpt>
<trkpt lat="-27.2772996" lon="151.2898095">
  <ele>440.39</ele>
  <time>2026-09-01T19:58:56Z</time>
  <course>191.28</course>
  <speed>6.3741979887669</speed>
  <fix>3d</fix>
</trkpt>
<trkpt lat="-27.2772892" lon="151.2898124">
  <ele>439.82</ele>
  <time>2026-09-01T19:58:56Z</time>
  <course>193.54</course>
  <speed>6.46</speed>
  <fix>3d</fix>
</trkpt>
<trkpt lat="-27.2773051" lon="151.289808">
  <ele>440.64</ele>
  <time>2026-09-01T19:58:56Z</time>
  <course>191.16</course>
  <speed>6.342696587414536</speed>
  <fix>3d</fix>
</trkpt>
<trkpt lat="-27.2772892" lon="151.2898124">
  <ele>439.82</ele>
  <time>2026-09-01T19:58:56Z</time>
  <course>193.54</course>
  <speed>6.46</speed>
  <fix>3d</fix>
</trkpt>
<trkpt lat="-27.2773107" lon="151.2898065">
  <ele>440.89</ele>
  <time>2026-09-01T19:58:56Z</time>
  <course>191.03</course>
  <speed>6.318623267769649</speed>
  <fix>3d</fix>
</trkpt>
<trkpt lat="-27.2773004" lon="151.2898094">
  <ele>440.32</ele>
  <time>2026-09-01T19:58:56Z</time>
  <course>193.31</course>
  <speed>6.4</speed>
  <fix>3d</fix>
</trkpt>
<trkpt lat="-27.2773162" lon="151.2898051">
  <ele>441.13</ele>
  <time>2026-09-01T19:58:56Z</time>
  <course>190.9</course>
  <speed>6.294584974404587</speed>
  <fix>3d</fix>
</trkpt>
<trkpt lat="-27.2773004" lon="151.2898094">
  <ele>440.32</ele>
  <time>2026-09-01T19:58:56Z</time>
  <course>193.31</course>
  <speed>6.4</speed>
  <fix>3d</fix>
</trkpt>
<trkpt lat="-27.2773218" lon="151.2898036">
  <ele>441.38</ele>
  <time>2026-09-01T19:58:56Z</time>
  <course>190.76</course>
  <speed>6.270582110139377</speed>
  <fix>3d</fix>
</trkpt>
<trkpt lat="-27.2773116" lon="151.2898064">
  <ele>440.82</ele>
  <time>2026-09-01T19:58:56Z</time>
  <course>193.07</course>
  <speed>6.35</speed>
  <fix>3d</fix>
</trkpt>
<trkpt lat="-27.2773273" lon="151.2898022">
  <ele>441.62</ele>
  <time>2026-09-01T19:58:56Z</time>
  <course>190.63</course>
  <speed>6.23686620026436</speed>
  <fix>3d</fix>
</trkpt>
<trkpt lat="-27.2773116" lon="151.2898064">
  <ele>440.82</ele>
  <time>2026-09-01T19:58:56Z</time>
  <course>193.07</course>
  <speed>6.35</speed>
  <fix>3d</fix>
</trkpt>
<trkpt lat="-27.2773328" lon="151.2898008">
  <ele>441.85</ele>
  <time>2026-09-01T19:58:56Z</time>
  <course>190.5</course>
  <speed>6.212930065597069</speed>
  <fix>3d</fix>
</trkpt>
<trkpt lat="-27.2773227" lon="151.2898036">
  <ele>441.31</ele>
  <time>2026-09-01T19:58:56Z</time>
  <course>192.84</course>
  <speed>6.3</speed>
  <fix>3d</fix>
</trkpt>
<trkpt lat="-27.2773382" lon="151.2897995">
  <ele>442.06</ele>
  <time>2026-09-01T19:58:56Z</time>
  <course>190.38</course>
  <speed>6.169513757177303</speed>
  <fix>3d</fix>
</trkpt>
<trkpt lat="-27.2773227" lon="151.2898036">
  <ele>441.31</ele>
  <time>2026-09-01T19:58:56Z</time>
  <course>192.84</course>
  <speed>6.3</speed>
  <fix>3d</fix>
</trkpt>
<trkpt lat="-27.2773437" lon="151.2897981">
  <ele>442.27</ele>
  <time>2026-09-01T19:58:56Z</time>
  <course>190.25</course>
  <speed>6.11635512376448</speed>
  <fix>3d</fix>
</trkpt>
<trkpt lat="-27.2773337" lon="151.2898008">
  <ele>441.78</ele>
  <time>2026-09-01T19:58:56Z</time>
  <course>192.61</course>
  <speed>6.24</speed>
  <fix>3d</fix>
</trkpt>
<trkpt lat="-27.277349" lon="151.2897968">
  <ele>442.46</ele>
  <time>2026-09-01T19:58:56Z</time>
  <course>190.13</course>
  <speed>6.041522986797286</speed>
  <fix>3d</fix>
</trkpt>
<trkpt lat="-27.2773337" lon="151.2898008">
  <ele>441.78</ele>
  <time>2026-09-01T19:58:56Z</time>
  <course>192.61</course>
  <speed>6.24</speed>
  <fix>3d</fix>
</trkpt>
<trkpt lat="-27.2773543" lon="151.2897955">
  <ele>442.63</ele>
  <time>2026-09-01T19:58:56Z</time>
  <course>190.0</course>
  <speed>5.917879687861185</speed>
  <fix>3d</fix>
</trkpt>
<trkpt lat="-27.2773446" lon="151.289798">
  <ele>442.2</ele>
  <time>2026-09-01T19:58:56Z</time>
  <course>192.4</course>
  <speed>6.14</speed>
  <fix>3d</fix>
</trkpt>
<trkpt lat="-27.2773595" lon="151.2897942">
  <ele>442.79</ele>
  <time>2026-09-01T19:58:56Z</time>
  <course>189.88</course>
  <speed>5.75302529109685</speed>
  <fix>3d</fix>
</trkpt>
<trkpt lat="-27.2773446" lon="151.289798">
  <ele>442.2</ele>
  <time>2026-09-01T19:58:56Z</time>
  <course>192.4</course>
  <speed>6.14</speed>
  <fix>3d</fix>
</trkpt>
<trkpt lat="-27.2773645" lon="151.289793">
  <ele>442.93</ele>
  <time>2026-09-01T19:58:57Z</time>
  <course>189.76</course>
  <speed>5.549099025968089</speed>
  <fix>3d</fix>
</trkpt>
<trkpt lat="-27.2773552" lon="151.2897954">
  <ele>442.56</ele>
  <time>2026-09-01T19:58:57Z</time>
  <course>192.25</course>
  <speed>5.93</speed>
  <fix>3d</fix>
</trkpt>
<trkpt lat="-27.2773693" lon="151.2897918">
  <ele>443.05</ele>
  <time>2026-09-01T19:58:57Z</time>
  <course>189.64</course>
  <speed>5.30182044207459</speed>
  <fix>3d</fix>
</trkpt>
<trkpt lat="-27.2773552" lon="151.2897954">
  <ele>442.56</ele>
  <time>2026-09-01T19:58:57Z</time>
  <course>192.25</course>
  <speed>5.93</speed>
  <fix>3d</fix>
</trkpt>
<trkpt lat="-27.2773738" lon="151.2897907">
  <ele>443.15</ele>
  <time>2026-09-01T19:58:57Z</time>
  <course>189.52</course>
  <speed>5.017608992338881</speed>
  <fix>3d</fix>
</trkpt>
<trkpt lat="-27.2773653" lon="151.2897929">
  <ele>442.86</ele>
  <time>2026-09-01T19:58:57Z</time>
  <course>192.18</course>
  <speed>5.57</speed>
  <fix>3d</fix>
</trkpt>
<trkpt lat="-27.2773781" lon="151.2897897">
  <ele>443.24</ele>
  <time>2026-09-01T19:58:57Z</time>
  <course>189.39</course>
  <speed>4.709575352407051</speed>
  <fix>3d</fix>
</trkpt>
<trkpt lat="-27.2773653" lon="151.2897929">
  <ele>442.86</ele>
  <time>2026-09-01T19:58:57Z</time>
  <course>192.18</course>
  <speed>5.57</speed>
  <fix>3d</fix>
</trkpt>
<trkpt lat="-27.2773821" lon="151.2897887">
  <ele>443.31</ele>
  <time>2026-09-01T19:58:57Z</time>
  <course>189.26</course>
  <speed>4.393927627988426</speed>
  <fix>3d</fix>
</trkpt>
<trkpt lat="-27.2773746" lon="151.2897907">
  <ele>443.09</ele>
  <time>2026-09-01T19:58:57Z</time>
  <course>192.2</course>
  <speed>5.05</speed>
  <fix>3d</fix>
</trkpt>
<trkpt lat="-27.2773859" lon="151.2897878">
  <ele>443.35</ele>
  <time>2026-09-01T19:58:57Z</time>
  <course>189.11</course>
  <speed>4.07829621288106</speed>
  <fix>3d</fix>
</trkpt>
<trkpt lat="-27.2773746" lon="151.2897907">
  <ele>443.09</ele>
  <time>2026-09-01T19:58:57Z</time>
  <course>192.2</course>
  <speed>5.05</speed>
  <fix>3d</fix>
</trkpt>
<trkpt lat="-27.2773894" lon="151.2897869">
  <ele>443.38</ele>
  <time>2026-09-01T19:58:57Z</time>
  <course>188.93</course>
  <speed>3.762685211388271</speed>
  <fix>3d</fix>
</trkpt>
<trkpt lat="-27.277383" lon="151.2897886">
  <ele>443.25</ele>
  <time>2026-09-01T19:58:57Z</time>
  <course>192.29</course>
  <speed>4.44</speed>
  <fix>3d</fix>
</trkpt>
<trkpt lat="-27.2773926" lon="151.2897861">
  <ele>443.37</ele>
  <time>2026-09-01T19:58:57Z</time>
  <course>188.71</course>
  <speed>3.435127362995439</speed>
  <fix>3d</fix>
</trkpt>
<trkpt lat="-27.277383" lon="151.2897886">
  <ele>443.25</ele>
  <time>2026-09-01T19:58:57Z</time>
  <course>192.29</course>
  <speed>4.44</speed>
  <fix>3d</fix>
</trkpt>
<trkpt lat="-27.2773955" lon="151.2897854">
  <ele>443.32</ele>
  <time>2026-09-01T19:58:57Z</time>
  <course>188.43</course>
  <speed>3.019884103736433</speed>
  <fix>3d</fix>
</trkpt>
<trkpt lat="-27.2773902" lon="151.2897869">
  <ele>443.32</ele>
  <time>2026-09-01T19:58:57Z</time>
  <course>192.49</course>
  <speed>3.8</speed>
  <fix>3d</fix>
</trkpt>
<trkpt lat="-27.277398" lon="151.2897847">
  <ele>443.25</ele>
  <time>2026-09-01T19:58:57Z</time>
  <course>188.06</course>
  <speed>2.5612692166189794</speed>
  <fix>3d</fix>
</trkpt>
<trkpt lat="-27.2773902" lon="151.2897869">
  <ele>443.32</ele>
  <time>2026-09-01T19:58:57Z</time>
  <course>192.49</course>
  <speed>3.8</speed>
  <fix>3d</fix>
</trkpt>
<trkpt lat="-27.2774001" lon="151.2897842">
  <ele>443.16</ele>
  <time>2026-09-01T19:58:57Z</time>
  <course>187.59</course>
  <speed>2.051852821232556</speed>
  <fix>3d</fix>
</trkpt>
<trkpt lat="-27.2773963" lon="151.2897853">
  <ele>443.28</ele>
  <time>2026-09-01T19:58:57Z</time>
  <course>192.93</course>
  <speed>3.04</speed>
  <fix>3d</fix>
</trkpt>
<trkpt lat="-27.2774017" lon="151.2897837">
  <ele>443.06</ele>
  <time>2026-09-01T19:58:57Z</time>
  <course>186.98</course>
  <speed>1.5086417732516886</speed>
  <fix>3d</fix>
</trkpt>
<trkpt lat="-27.2773963" lon="151.2897853">
  <ele>443.28</ele>
  <time>2026-09-01T19:58:57Z</time>
  <course>192.93</course>
  <speed>3.04</speed>
  <fix>3d</fix>
</trkpt>
<trkpt lat="-27.2774028" lon="151.2897834">
  <ele>442.95</ele>
  <time>2026-09-01T19:58:57Z</time>
  <course>186.15</course>
  <speed>0.9560334722173696</speed>
  <fix>3d</fix>
</trkpt>
<trkpt lat="-27.2774008" lon="151.2897841">
  <ele>443.13</ele>
  <time>2026-09-01T19:58:57Z</time>
  <course>193.67</course>
  <speed>2.09</speed>
  <fix>3d</fix>
</trkpt>
<trkpt lat="-27.2774034" lon="151.2897832">
  <ele>442.85</ele>
  <time>2026-09-01T19:58:57Z</time>
  <course>184.88</course>
  <speed>0.3921734310225516</speed>
  <fix>3d</fix>
</trkpt>
<trkpt lat="-27.2774008" lon="151.2897841">
  <ele>443.13</ele>
  <time>2026-09-01T19:58:57Z</time>
  <course>193.67</course>
  <speed>2.09</speed>
  <fix>3d</fix>
</trkpt>
<trkpt lat="-27.2774036" lon="151.2897831">
  <ele>442.77</ele>
  <time>2026-09-01T19:58:57Z</time>
  <course>183.1</course>
  <speed>0.15132745950421556</speed>
  <fix>3d</fix>
</trkpt>
<trkpt lat="-27.2774035" lon="151.2897833">
  <ele>442.94</ele>
  <time>2026-09-01T19:58:57Z</time>
  <course>195.03</course>
  <speed>1.0</speed>
  <fix>3d</fix>
</trkpt>
<trkpt lat="-27.2774033" lon="151.2897831">
  <ele>442.69</ele>
  <time>2026-09-01T19:58:57Z</time>
  <course>180.88</course>
  <speed>0.6350590523722971</speed>
  <fix>3d</fix>
</trkpt>
<trkpt lat="-27.2774035" lon="151.2897833">
  <ele>442.94</ele>
  <time>2026-09-01T19:58:57Z</time>
  <course>195.03</course>
  <speed>1.0</speed>
  <fix>3d</fix>
</trkpt>
<trkpt lat="-27.2774026" lon="151.2897833">
  <ele>442.64</ele>
  <time>2026-09-01T19:58:57Z</time>
  <course>178.66</course>
  <speed>1.035760590097924</speed>
  <fix>3d</fix>
</trkpt>
<trkpt lat="-27.2774043" lon="151.2897831">
  <ele>442.77</ele>
  <time>2026-09-01T19:58:57Z</time>
  <course>343.13</course>
  <speed>0.09</speed>
  <fix>3d</fix>
</trkpt>
<trkpt lat="-27.2774016" lon="151.2897835">
  <ele>442.61</ele>
  <time>2026-09-01T19:58:57Z</time>
  <course>176.7</course>
  <speed>1.3514806694880988</speed>
  <fix>3d</fix>
</trkpt>
<trkpt lat="-27.2774043" lon="151.2897831">
  <ele>442.77</ele>
  <time>2026-09-01T19:58:57Z</time>
  <course>343.13</course>
  <speed>0.09</speed>
  <fix>3d</fix>
</trkpt>
<trkpt lat="-27.2774004" lon="151.2897839">
  <ele>442.59</ele>
  <time>2026-09-01T19:58:57Z</time>
  <course>174.93</course>
  <speed>1.5886157496386593</speed>
  <fix>3d</fix>
</trkpt>
<trkpt lat="-27.2774033" lon="151.2897833">
  <ele>442.65</ele>
  <time>2026-09-01T19:58:57Z</time>
  <course>11.27</course>
  <speed>0.96</speed>
  <fix>3d</fix>
</trkpt>
<trkpt lat="-27.2773991" lon="151.2897842">
  <ele>442.59</ele>
  <time>2026-09-01T19:58:57Z</time>
  <course>173.04</course>
  <speed>1.7568437608393068</speed>
  <fix>3d</fix>
</trkpt>
<trkpt lat="-27.2774033" lon="151.2897833">
  <ele>442.65</ele>
  <time>2026-09-01T19:58:57Z</time>
  <course>11.27</course>
  <speed>0.96</speed>
  <fix>3d</fix>
</trkpt>
<trkpt lat="-27.2773976" lon="151.2897847">
  <ele>442.6</ele>
  <time>2026-09-01T19:58:57Z</time>
  <course>170.59</course>
  <speed>1.8850994668717087</speed>
  <fix>3d</fix>
</trkpt>
<trkpt lat="-27.2774011" lon="151.2897838">
  <ele>442.6</ele>
  <time>2026-09-01T19:58:57Z</time>
  <course>14.7</course>
  <speed>1.54</speed>
  <fix>3d</fix>
</trkpt>
<trkpt lat="-27.277396" lon="151.2897853">
  <ele>442.63</ele>
  <time>2026-09-01T19:58:57Z</time>
  <course>167.23</course>
  <speed>1.97327139542436</speed>
  <fix>3d</fix>
</trkpt>
<trkpt lat="-27.2774011" lon="151.2897838">
  <ele>442.6</ele>
  <time>2026-09-01T19:58:57Z</time>
  <course>14.7</course>
  <speed>1.54</speed>
  <fix>3d</fix>
</trkpt>
<trkpt lat="-27.2773944" lon="151.289786">
  <ele>442.65</ele>
  <time>2026-09-01T19:58:57Z</time>
  <course>162.73</course>
  <speed>2.0530221625691234</speed>
  <fix>3d</fix>
</trkpt>
<trkpt lat="-27.2773982" lon="151.2897847">
  <ele>442.61</ele>
  <time>2026-09-01T19:58:57Z</time>
  <course>17.67</course>
  <speed>1.87</speed>
  <fix>3d</fix>
</trkpt>
<trkpt lat="-27.2773927" lon="151.2897867">
  <ele>442.68</ele>
  <time>2026-09-01T19:58:57Z</time>
  <course>157.11</course>
  <speed>2.1151359294381056</speed>
  <fix>3d</fix>
</trkpt>
<trkpt lat="-27.2773982" lon="151.2897847">
  <ele>442.61</ele>
  <time>2026-09-01T19:58:57Z</time>
  <course>17.67</course>
  <speed>1.87</speed>
  <fix>3d</fix>
</trkpt>
<trkpt lat="-27.2773909" lon="151.2897876">
  <ele>442.71</ele>
  <time>2026-09-01T19:58:57Z</time>
  <course>150.59</course>
  <speed>2.17846276075585</speed>
  <fix>3d</fix>
</trkpt>
<trkpt lat="-27.2773948" lon="151.289786">
  <ele>442.66</ele>
  <time>2026-09-01T19:58:57Z</time>
  <course>20.35</course>
  <speed>2.06</speed>
  <fix>3d</fix>
</trkpt>
<trkpt lat="-27.2773892" lon="151.2897884">
  <ele>442.74</ele>
  <time>2026-09-01T19:58:57Z</time>
  <course>143.58</course>
  <speed>2.2643321311150446</speed>
  <fix>3d</fix>
</trkpt>
<trkpt lat="-27.2773948" lon="151.289786">
  <ele>442.66</ele>
  <time>2026-09-01T19:58:57Z</time>
  <course>20.35</course>
  <speed>2.06</speed>
  <fix>3d</fix>
</trkpt>
<trkpt lat="-27.2773873" lon="151.2897895">
  <ele>442.76</ele>
  <time>2026-09-01T19:58:57Z</time>
  <course>136.31</course>
  <speed>2.3703375287076733</speed>
  <fix>3d</fix>
</trkpt>
<trkpt lat="-27.2773913" lon="151.2897876">
  <ele>442.73</ele>
  <time>2026-09-01T19:58:57Z</time>
  <course>23.3</course>
  <speed>2.2</speed>
  <fix>3d</fix>
</trkpt>
<trkpt lat="-27.2773854" lon="151.2897906">
  <ele>442.78</ele>
  <time>2026-09-01T19:58:57Z</time>
  <course>129.12</course>
  <speed>2.504495957273639</speed>
  <fix>3d</fix>
</trkpt>
<trkpt lat="-27.2773913" lon="151.2897876">
  <ele>442.73</ele>
  <time>2026-09-01T19:58:57Z</time>
  <course>23.3</course>
  <speed>2.2</speed>
  <fix>3d</fix>
</trkpt>
<trkpt lat="-27.2773834" lon="151.2897918">
  <ele>442.79</ele>
  <time>2026-09-01T19:58:57Z</time>
  <course>122.15</course>
  <speed>2.6699250925821874</speed>
  <fix>3d</fix>
</trkpt>
<trkpt lat="-27.2773875" lon="151.2897896">
  <ele>442.78</ele>
  <time>2026-09-01T19:58:57Z</time>
  <course>26.22</course>
  <speed>2.4</speed>
  <fix>3d</fix>
</trkpt>
<trkpt lat="-27.2773812" lon="151.289793">
  <ele>442.79</ele>
  <time>2026-09-01T19:58:57Z</time>
  <course>115.42</course>
  <speed>2.858198733468336</speed>
  <fix>3d</fix>
</trkpt>
<trkpt lat="-27.2773875" lon="151.2897896">
  <ele>442.78</ele>
  <time>2026-09-01T19:58:57Z</time>
  <course>26.22</course>
  <speed>2.4</speed>
  <fix>3d</fix>
</trkpt>
<trkpt lat="-27.2773788" lon="151.2897943">
  <ele>442.78</ele>
  <time>2026-09-01T19:58:57Z</time>
  <course>108.99</course>
  <speed>3.054242950388852</speed>
  <fix>3d</fix>
</trkpt>
<trkpt lat="-27.2773834" lon="151.2897919">
  <ele>442.8</ele>
  <time>2026-09-01T19:58:57Z</time>
  <course>26.69</course>
  <speed>2.7</speed>
  <fix>3d</fix>
</trkpt>
<trkpt lat="-27.2773761" lon="151.2897955">
  <ele>442.78</ele>
  <time>2026-09-01T19:58:57Z</time>
  <course>102.68</course>
  <speed>3.2553033652794943</speed>
  <fix>3d</fix>
</trkpt>
<trkpt lat="-27.2773834" lon="151.2897919">
  <ele>442.8</ele>
  <time>2026-09-01T19:58:57Z</time>
  <course>26.69</course>
  <speed>2.7</speed>
  <fix>3d</fix>
</trkpt>
<trkpt lat="-27.2773733" lon="151.2897967">
  <ele>442.78</ele>
  <time>2026-09-01T19:58:57Z</time>
  <course>96.4</course>
  <speed>3.457585862997476</speed>
  <fix>3d</fix>
</trkpt>
<trkpt lat="-27.2773787" lon="151.2897944">
  <ele>442.8</ele>
  <time>2026-09-01T19:58:57Z</time>
  <course>23.87</course>
  <speed>3.07</speed>
  <fix>3d</fix>
</trkpt>
<trkpt lat="-27.2773703" lon="151.2897979">
  <ele>442.78</ele>
  <time>2026-09-01T19:58:57Z</time>
  <course>90.05</course>
  <speed>3.6494657143203852</speed>
  <fix>3d</fix>
</trkpt>
<trkpt lat="-27.2773787" lon="151.2897944">
  <ele>442.8</ele>
  <time>2026-09-01T19:58:57Z</time>
  <course>23.87</course>
  <speed>3.07</speed>
  <fix>3d</fix>
</trkpt>
<trkpt lat="-27.2773672" lon="151.2897991">
  <ele>442.78</ele>
  <time>2026-09-01T19:58:57Z</time>
  <course>83.66</course>
  <speed>3.8390102891240083</speed>
  <fix>3d</fix>
</trkpt>
<trkpt lat="-27.2773733" lon="151.2897969">
  <ele>442.8</ele>
  <time>2026-09-01T19:58:57Z</time>
  <course>20.66</course>
  <speed>3.47</speed>
  <fix>3d</fix>
</trkpt>
<trkpt lat="-27.2773638" lon="151.2898004">
  <ele>442.78</ele>
  <time>2026-09-01T19:58:57Z</time>
  <course>77.27</course>
  <speed>4.025580703451367</speed>
  <fix>3d</fix>
</trkpt>
<trkpt lat="-27.2773733" lon="151.2897969">
  <ele>442.8</ele>
  <time>2026-09-01T19:58:57Z</time>
  <course>20.66</course>
  <speed>3.47</speed>
  <fix>3d</fix>
</trkpt>
<trkpt lat="-27.2773603" lon="151.2898018">
  <ele>442.78</ele>
  <time>2026-09-01T19:58:57Z</time>
  <course>70.97</course>
  <speed>4.215317307154943</speed>
  <fix>3d</fix>
</trkpt>
<trkpt lat="-27.2773671" lon="151.2897994">
  <ele>442.81</ele>
  <time>2026-09-01T19:58:57Z</time>
  <course>19.13</course>
  <speed>3.86</speed>
  <fix>3d</fix>
</trkpt>
<trkpt lat="-27.2773567" lon="151.2898032">
  <ele>442.79</ele>
  <time>2026-09-01T19:58:57Z</time>
  <course>64.82</course>
  <speed>4.39873845551199</speed>
  <fix>3d</fix>
</trkpt>
<trkpt lat="-27.2773671" lon="151.2897994">
  <ele>442.81</ele>
  <time>2026-09-01T19:58:57Z</time>
  <course>19.13</course>
  <speed>3.86</speed>
  <fix>3d</fix>
</trkpt>
<trkpt lat="-27.2773529" lon="151.2898046">
  <ele>442.79</ele>
  <time>2026-09-01T19:58:57Z</time>
  <course>58.88</course>
  <speed>4.582193797734879</speed>
  <fix>3d</fix>
</trkpt>
<trkpt lat="-27.2773601" lon="151.2898021">
  <ele>442.82</ele>
  <time>2026-09-01T19:58:57Z</time>
  <course>18.89</course>
  <speed>4.23</speed>
  <fix>3d</fix>
</trkpt>
<trkpt lat="-27.2773489" lon="151.2898062">
  <ele>442.8</ele>
  <time>2026-09-01T19:58:57Z</time>
  <course>53.09</course>
  <speed>4.762457348890382</speed>
  <fix>3d</fix>
</trkpt>
<trkpt lat="-27.2773601" lon="151.2898021">
  <ele>442.82</ele>
  <time>2026-09-01T19:58:57Z</time>
  <course>18.89</course>
  <speed>4.23</speed>
  <fix>3d</fix>
</trkpt>
<trkpt lat="-27.2773447" lon="151.2898078">
  <ele>442.81</ele>
  <time>2026-09-01T19:58:57Z</time>
  <course>47.56</course>
  <speed>4.942721922180126</speed>
  <fix>3d</fix>
</trkpt>
<trkpt lat="-27.2773527" lon="151.289805">
  <ele>442.84</ele>
  <time>2026-09-01T19:58:57Z</time>
  <course>19.04</course>
  <speed>4.61</speed>
  <fix>3d</fix>
</trkpt>
<trkpt lat="-27.2773405" lon="151.2898094">
  <ele>442.81</ele>
  <time>2026-09-01T19:58:57Z</time>
  <course>42.22</course>
  <speed>5.116580889617597</speed>
  <fix>3d</fix>
</trkpt>
<trkpt lat="-27.2773527" lon="151.289805">
  <ele>442.84</ele>
  <time>2026-09-01T19:58:57Z</time>
  <course>19.04</course>
  <speed>4.61</speed>
  <fix>3d</fix>
</trkpt>
<trkpt lat="-27.277336" lon="151.2898111">
  <ele>442.82</ele>
  <time>2026-09-01T19:58:57Z</time>
  <course>37.14</course>
  <speed>5.284174486142562</speed>
  <fix>3d</fix>
</trkpt>
<trkpt lat="-27.2773445" lon="151.2898081">
  <ele>442.85</ele>
  <time>2026-09-01T19:58:57Z</time>
  <course>19.05</course>
  <speed>4.96</speed>
  <fix>3d</fix>
</trkpt>
<trkpt lat="-27.2773315" lon="151.2898129">
  <ele>442.83</ele>
  <time>2026-09-01T19:58:57Z</time>
  <course>32.46</course>
  <speed>5.435963576036911</speed>
  <fix>3d</fix>
</trkpt>
<trkpt lat="-27.2773445" lon="151.2898081">
  <ele>442.85</ele>
  <time>2026-09-01T19:58:57Z</time>
  <course>19.05</course>
  <speed>4.96</speed>
  <fix>3d</fix>
</trkpt>
<trkpt lat="-27.2773268" lon="151.2898147">
  <ele>442.85</ele>
  <time>2026-09-01T19:58:57Z</time>
  <course>28.38</course>
  <speed>5.5878171050956915</speed>
  <fix>3d</fix>
</trkpt>
<trkpt lat="-27.2773358" lon="151.2898115">
  <ele>442.87</ele>
  <time>2026-09-01T19:58:57Z</time>
  <course>18.84</course>
  <speed>5.3</speed>
  <fix>3d</fix>
</trkpt>
<trkpt lat="-27.277322" lon="151.2898164">
  <ele>442.86</ele>
  <time>2026-09-01T19:58:57Z</time>
  <course>25.05</course>
  <speed>5.7207079981414894</speed>
  <fix>3d</fix>
</trkpt>
<trkpt lat="-27.2773358" lon="151.2898115">
  <ele>442.87</ele>
  <time>2026-09-01T19:58:57Z</time>
  <course>18.84</course>
  <speed>5.3</speed>
  <fix>3d</fix>
</trkpt>
<trkpt lat="-27.277317" lon="151.2898183">
  <ele>442.87</ele>
  <time>2026-09-01T19:58:57Z</time>
  <course>22.52</course>
  <speed>5.850555529178405</speed>
  <fix>3d</fix>
</trkpt>
<trkpt lat="-27.2773265" lon="151.2898151">
  <ele>442.89</ele>
  <time>2026-09-01T19:58:57Z</time>
  <course>18.53</course>
  <speed>5.61</speed>
  <fix>3d</fix>
</trkpt>
<trkpt lat="-27.277312" lon="151.2898201">
  <ele>442.89</ele>
  <time>2026-09-01T19:58:57Z</time>
  <course>20.81</course>
  <speed>5.964461417429071</speed>
  <fix>3d</fix>
</trkpt>
<trkpt lat="-27.2773265" lon="151.2898151">
  <ele>442.89</ele>
  <time>2026-09-01T19:58:57Z</time>
  <course>18.53</course>
  <speed>5.61</speed>
  <fix>3d</fix>
</trkpt>
<trkpt lat="-27.2773068" lon="151.289822">
  <ele>442.9</ele>
  <time>2026-09-01T19:58:57Z</time>
  <course>19.89</course>
  <speed>6.056277734714616</speed>
  <fix>3d</fix>
</trkpt>
<trkpt lat="-27.2773167" lon="151.2898187">
  <ele>442.92</ele>
  <time>2026-09-01T19:58:57Z</time>
  <course>18.23</course>
  <speed>5.87</speed>
  <fix>3d</fix>
</trkpt>
<trkpt lat="-27.2773016" lon="151.2898239">
  <ele>442.91</ele>
  <time>2026-09-01T19:58:57Z</time>
  <course>19.57</course>
  <speed>6.151138106074354</speed>
  <fix>3d</fix>
</trkpt>
<trkpt lat="-27.2773167" lon="151.2898187">
  <ele>442.92</ele>
  <time>2026-09-01T19:58:57Z</time>
  <course>18.23</course>
  <speed>5.87</speed>
  <fix>3d</fix>
</trkpt>
<trkpt lat="-27.2772962" lon="151.2898259">
  <ele>442.93</ele>
  <time>2026-09-01T19:58:57Z</time>
  <course>19.65</course>
  <speed>6.226949493933606</speed>
  <fix>3d</fix>
</trkpt>
<trkpt lat="-27.2773065" lon="151.2898224">
  <ele>442.95</ele>
  <time>2026-09-01T19:58:57Z</time>
  <course>18.08</course>
  <speed>6.08</speed>
  <fix>3d</fix>
</trkpt>
<trkpt lat="-27.2772909" lon="151.2898279">
  <ele>442.94</ele>
  <time>2026-09-01T19:58:57Z</time>
  <course>19.92</course>
  <speed>6.2901907761211815</speed>
  <fix>3d</fix>
</trkpt>
<trkpt lat="-27.2773065" lon="151.2898224">
  <ele>442.95</ele>
  <time>2026-09-01T19:58:57Z</time>
  <course>18.08</course>
  <speed>6.08</speed>
  <fix>3d</fix>
</trkpt>
<trkpt lat="-27.2772855" lon="151.2898299">
  <ele>442.95</ele>
  <time>2026-09-01T19:58:57Z</time>
  <course>20.24</course>
  <speed>6.337460059045737</speed>
  <fix>3d</fix>
</trkpt>
<trkpt lat="-27.2772959" lon="151.2898263">
  <ele>442.98</ele>
  <time>2026-09-01T19:58:57Z</time>
  <course>18.1</course>
  <speed>6.25</speed>
  <fix>3d</fix>
</trkpt>
<trkpt lat="-27.2772801" lon="151.2898319">
  <ele>442.97</ele>
  <time>2026-09-01T19:58:57Z</time>
  <course>20.51</course>
  <speed>6.372166036757046</speed>
  <fix>3d</fix>
</trkpt>
<trkpt lat="-27.2772959" lon="151.2898263">
  <ele>442.98</ele>
  <time>2026-09-01T19:58:57Z</time>
  <course>18.1</course>
  <speed>6.25</speed>
  <fix>3d</fix>
</trkpt>
<trkpt lat="-27.2772746" lon="151.2898339">
  <ele>442.98</ele>
  <time>2026-09-01T19:58:57Z</time>
  <course>20.72</course>
  <speed>6.406886919557735</speed>
  <fix>3d</fix>
</trkpt>
<trkpt lat="-27.2772852" lon="151.2898304">
  <ele>443.01</ele>
  <time>2026-09-01T19:58:57Z</time>
  <course>18.25</course>
  <speed>6.36</speed>
  <fix>3d</fix>
</trkpt>
<trkpt lat="-27.2772692" lon="151.2898359">
  <ele>442.99</ele>
  <time>2026-09-01T19:58:57Z</time>
  <course>20.85</course>
  <speed>6.422624074317287</speed>
  <fix>3d</fix>
</trkpt>
<trkpt lat="-27.2772852" lon="151.2898304">
  <ele>443.01</ele>
  <time>2026-09-01T19:58:57Z</time>
  <course>18.25</course>
  <speed>6.36</speed>
  <fix>3d</fix>
</trkpt>
<trkpt lat="-27.2772637" lon="151.289838">
  <ele>443.0</ele>
  <time>2026-09-01T19:58:57Z</time>
  <course>20.93</course>
  <speed>6.438400422465195</speed>
  <fix>3d</fix>
</trkpt>
<trkpt lat="-27.2772743" lon="151.2898344">
  <ele>443.04</ele>
  <time>2026-09-01T19:58:57Z</time>
  <course>18.46</course>
  <speed>6.44</speed>
  <fix>3d</fix>
</trkpt>
<trkpt lat="-27.2772582" lon="151.2898401">
  <ele>443.01</ele>
  <time>2026-09-01T19:58:57Z</time>
  <course>20.98</course>
  <speed>6.451046426743494</speed>
  <fix>3d</fix>
</trkpt>
<trkpt lat="-27.2772743" lon="151.2898344">
  <ele>443.04</ele>
  <time>2026-09-01T19:58:57Z</time>
  <course>18.46</course>
  <speed>6.44</speed>
  <fix>3d</fix>
</trkpt>
<trkpt lat="-27.2772528" lon="151.2898422">
  <ele>443.02</ele>
  <time>2026-09-01T19:58:57Z</time>
  <course>21.02</course>
  <speed>6.444734284669927</speed>
  <fix>3d</fix>
</trkpt>
<trkpt lat="-27.2772632" lon="151.2898386">
  <ele>443.07</ele>
  <time>2026-09-01T19:58:57Z</time>
  <course>18.67</course>
  <speed>6.47</speed>
  <fix>3d</fix>
</trkpt>
<trkpt lat="-27.2772473" lon="151.2898443">
  <ele>443.03</ele>
  <time>2026-09-01T19:58:57Z</time>
  <course>21.06</course>
  <speed>6.447922145931975</speed>
  <fix>3d</fix>
</trkpt>
<trkpt lat="-27.2772632" lon="151.2898386">
  <ele>443.07</ele>
  <time>2026-09-01T19:58:57Z</time>
  <course>18.67</course>
  <speed>6.47</speed>
  <fix>3d</fix>
</trkpt>
<trkpt lat="-27.2772418" lon="151.2898464">
  <ele>443.04</ele>
  <time>2026-09-01T19:58:57Z</time>
  <course>21.1</course>
  <speed>6.428973479491108</speed>
  <fix>3d</fix>
</trkpt>
<trkpt lat="-27.2772522" lon="151.2898428">
  <ele>443.09</ele>
  <time>2026-09-01T19:58:57Z</time>
  <course>18.85</course>
  <speed>6.48</speed>
  <fix>3d</fix>
</trkpt>
<trkpt lat="-27.2772364" lon="151.2898486">
  <ele>443.05</ele>
  <time>2026-09-01T19:58:57Z</time>
  <course>21.16</course>
  <speed>6.422717493397946</speed>
  <fix>3d</fix>
</trkpt>
<trkpt lat="-27.2772522" lon="151.2898428">
  <ele>443.09</ele>
  <time>2026-09-01T19:58:57Z</time>
  <course>18.85</course>
  <speed>6.48</speed>
  <fix>3d</fix>
</trkpt>
<trkpt lat="-27.2772309" lon="151.2898507">
  <ele>443.05</ele>
  <time>2026-09-01T19:58:57Z</time>
  <course>21.22</course>
  <speed>6.40378794152336</speed>
  <fix>3d</fix>
</trkpt>
<trkpt lat="-27.2772412" lon="151.289847">
  <ele>443.1</ele>
  <time>2026-09-01T19:58:57Z</time>
  <course>19.01</course>
  <speed>6.47</speed>
  <fix>3d</fix>
</trkpt>
<trkpt lat="-27.2772255" lon="151.2898528">
  <ele>443.05</ele>
  <time>2026-09-01T19:58:57Z</time>
  <course>21.29</course>
  <speed>6.375405869432941</speed>
  <fix>3d</fix>
</trkpt>
<trkpt lat="-27.2772412" lon="151.289847">
  <ele>443.1</ele>
  <time>2026-09-01T19:58:57Z</time>
  <course>19.01</course>
  <speed>6.47</speed>
  <fix>3d</fix>
</trkpt>
<trkpt lat="-27.2772201" lon="151.2898549">
  <ele>443.05</ele>
  <time>2026-09-01T19:58:57Z</time>
  <course>21.36</course>
  <speed>6.353243266238119</speed>
  <fix>3d</fix>
</trkpt>
<trkpt lat="-27.2772302" lon="151.2898513">
  <ele>443.11</ele>
  <time>2026-09-01T19:58:57Z</time>
  <course>19.15</course>
  <speed>6.44</speed>
  <fix>3d</fix>
</trkpt>
<trkpt lat="-27.2772147" lon="151.2898571">
  <ele>443.04</ele>
  <time>2026-09-01T19:58:57Z</time>
  <course>21.44</course>
  <speed>6.324871540197477</speed>
  <fix>3d</fix>
</trkpt>
<trkpt lat="-27.2772302" lon="151.2898513">
  <ele>443.11</ele>
  <time>2026-09-01T19:58:57Z</time>
  <course>19.15</course>
  <speed>6.44</speed>
  <fix>3d</fix>
</trkpt>
<trkpt lat="-27.2772093" lon="151.2898592">
  <ele>443.04</ele>
  <time>2026-09-01T19:58:57Z</time>
  <course>21.51</course>
  <speed>6.29651490905882</speed>
  <fix>3d</fix>
</trkpt>
<trkpt lat="-27.2772193" lon="151.2898556">
  <ele>443.11</ele>
  <time>2026-09-01T19:58:57Z</time>
  <course>19.28</course>
  <speed>6.39</speed>
  <fix>3d</fix>
</trkpt>
<trkpt lat="-27.277204" lon="151.2898613">
  <ele>443.03</ele>
  <time>2026-09-01T19:58:57Z</time>
  <course>21.59</course>
  <speed>6.255445627611193</speed>
  <fix>3d</fix>
</trkpt>
<trkpt lat="-27.2772193" lon="151.2898556">
  <ele>443.11</ele>
  <time>2026-09-01T19:58:57Z</time>
  <course>19.28</course>
  <speed>6.39</speed>
  <fix>3d</fix>
</trkpt>
<trkpt lat="-27.2771987" lon="151.2898634">
  <ele>443.03</ele>
  <time>2026-09-01T19:58:57Z</time>
  <course>21.66</course>
  <speed>6.227110084140154</speed>
  <fix>3d</fix>
</trkpt>
<trkpt lat="-27.2772085" lon="151.2898599">
  <ele>443.11</ele>
  <time>2026-09-01T19:58:57Z</time>
  <course>19.39</course>
  <speed>6.33</speed>
  <fix>3d</fix>
</trkpt>
<trkpt lat="-27.2771934" lon="151.2898655">
  <ele>443.02</ele>
  <time>2026-09-01T19:58:57Z</time>
  <course>21.74</course>
  <speed>6.186048819723298</speed>
  <fix>3d</fix>
</trkpt>
<trkpt lat="-27.2772085" lon="151.2898599">
  <ele>443.11</ele>
  <time>2026-09-01T19:58:57Z</time>
  <course>19.39</course>
  <speed>6.33</speed>
  <fix>3d</fix>
</trkpt>
<trkpt lat="-27.2771881" lon="151.2898677">
  <ele>443.01</ele>
  <time>2026-09-01T19:58:57Z</time>
  <course>21.81</course>
  <speed>6.144989829120956</speed>
  <fix>3d</fix>
</trkpt>
<trkpt lat="-27.2771979" lon="151.2898641">
  <ele>443.1</ele>
  <time>2026-09-01T19:58:57Z</time>
  <course>19.49</course>
  <speed>6.26</speed>
  <fix>3d</fix>
</trkpt>
<trkpt lat="-27.2771829" lon="151.2898697">
  <ele>443.01</ele>
  <time>2026-09-01T19:58:57Z</time>
  <course>21.88</course>
  <speed>6.10393315821856</speed>
  <fix>3d</fix>
</trkpt>
<trkpt lat="-27.2771979" lon="151.2898641">
  <ele>443.1</ele>
  <time>2026-09-01T19:58:57Z</time>
  <course>19.49</course>
  <speed>6.26</speed>
  <fix>3d</fix>
</trkpt>
<trkpt lat="-27.2771777" lon="151.2898718">
  <ele>443.0</ele>
  <time>2026-09-01T19:58:57Z</time>
  <course>21.96</course>
  <speed>6.062878854141818</speed>
  <fix>3d</fix>
</trkpt>
<trkpt lat="-27.2771873" lon="151.2898684">
  <ele>443.09</ele>
  <time>2026-09-01T19:58:57Z</time>
  <course>19.57</course>
  <speed>6.18</speed>
  <fix>3d</fix>
</trkpt>
<trkpt lat="-27.2771726" lon="151.2898739">
  <ele>442.99</ele>
  <time>2026-09-01T19:58:57Z</time>
  <course>22.03</course>
  <speed>6.02182696529882</speed>
  <fix>3d</fix>
</trkpt>
<trkpt lat="-27.2771873" lon="151.2898684">
  <ele>443.09</ele>
  <time>2026-09-01T19:58:57Z</time>
  <course>19.57</course>
  <speed>6.18</speed>
  <fix>3d</fix>
</trkpt>
<trkpt lat="-27.2771675" lon="151.289876">
  <ele>442.98</ele>
  <time>2026-09-01T19:58:57Z</time>
  <course>22.1</course>
  <speed>5.9807775414238575</speed>
  <fix>3d</fix>
</trkpt>
<trkpt lat="-27.2771769" lon="151.2898725">
  <ele>443.07</ele>
  <time>2026-09-01T19:58:57Z</time>
  <course>19.65</course>
  <speed>6.1</speed>
  <fix>3d</fix>
</trkpt>
<trkpt lat="-27.2771624" lon="151.289878">
  <ele>442.97</ele>
  <time>2026-09-01T19:58:57Z</time>
  <course>22.18</course>
  <speed>5.930303533546997</speed>
  <fix>3d</fix>
</trkpt>
<trkpt lat="-27.2771769" lon="151.2898725">
  <ele>443.07</ele>
  <time>2026-09-01T19:58:57Z</time>
  <course>19.65</course>
  <speed>6.1</speed>
  <fix>3d</fix>
</trkpt>
<trkpt lat="-27.2771574" lon="151.2898801">
  <ele>442.96</ele>
  <time>2026-09-01T19:58:57Z</time>
  <course>22.25</course>
  <speed>5.889261413793754</speed>
  <fix>3d</fix>
</trkpt>
<trkpt lat="-27.2771667" lon="151.2898766">
  <ele>443.06</ele>
  <time>2026-09-01T19:58:57Z</time>
  <course>19.72</course>
  <speed>6.01</speed>
  <fix>3d</fix>
</trkpt>
<trkpt lat="-27.2771524" lon="151.2898821">
  <ele>442.95</ele>
  <time>2026-09-01T19:58:57Z</time>
  <course>22.33</course>
  <speed>5.848221952012424</speed>
  <fix>3d</fix>
</trkpt>
<trkpt lat="-27.2771667" lon="151.2898766">
  <ele>443.06</ele>
  <time>2026-09-01T19:58:57Z</time>
  <course>19.72</course>
  <speed>6.01</speed>
  <fix>3d</fix>
</trkpt>
<trkpt lat="-27.2771475" lon="151.2898841">
  <ele>442.94</ele>
  <time>2026-09-01T19:58:57Z</time>
  <course>22.4</course>
  <speed>5.794411100362141</speed>
  <fix>3d</fix>
</trkpt>
<trkpt lat="-27.2771566" lon="151.2898807">
  <ele>443.04</ele>
  <time>2026-09-01T19:58:57Z</time>
  <course>19.77</course>
  <speed>5.92</speed>
  <fix>3d</fix>
</trkpt>
<trkpt lat="-27.2771426" lon="151.2898861">
  <ele>442.93</ele>
  <time>2026-09-01T19:58:57Z</time>
  <course>22.47</course>
  <speed>5.753372923772628</speed>
  <fix>3d</fix>
</trkpt>
<trkpt lat="-27.2771566" lon="151.2898807">
  <ele>443.04</ele>
  <time>2026-09-01T19:58:57Z</time>
  <course>19.77</course>
  <speed>5.92</speed>
  <fix>3d</fix>
</trkpt>
<trkpt lat="-27.2771377" lon="151.2898881">
  <ele>442.92</ele>
  <time>2026-09-01T19:58:57Z</time>
  <course>22.54</course>
  <speed>5.702920304545733</speed>
  <fix>3d</fix>
</trkpt>
<trkpt lat="-27.2771466" lon="151.2898847">
  <ele>443.03</ele>
  <time>2026-09-01T19:58:57Z</time>
  <course>19.81</course>
  <speed>5.83</speed>
  <fix>3d</fix>
</trkpt>
<trkpt lat="-27.2771329" lon="151.2898901">
  <ele>442.92</ele>
  <time>2026-09-01T19:58:57Z</time>
  <course>22.6</course>
  <speed>5.658524542670112</speed>
  <fix>3d</fix>
</trkpt>
<trkpt lat="-27.2771466" lon="151.2898847">
  <ele>443.03</ele>
  <time>2026-09-01T19:58:57Z</time>
  <course>19.81</course>
  <speed>5.83</speed>
  <fix>3d</fix>
</trkpt>
<trkpt lat="-27.2771281" lon="151.289892">
  <ele>442.91</ele>
  <time>2026-09-01T19:58:57Z</time>
  <course>22.67</course>
  <speed>5.61749054293819</speed>
  <fix>3d</fix>
</trkpt>
<trkpt lat="-27.2771368" lon="151.2898887">
  <ele>443.01</ele>
  <time>2026-09-01T19:58:57Z</time>
  <course>19.83</course>
  <speed>5.73</speed>
  <fix>3d</fix>
</trkpt>
<trkpt lat="-27.2771233" lon="151.2898939">
  <ele>442.9</ele>
  <time>2026-09-01T19:58:57Z</time>
  <course>22.73</course>
  <speed>5.563676841801652</speed>
  <fix>3d</fix>
</trkpt>
<trkpt lat="-27.2771368" lon="151.2898887">
  <ele>443.01</ele>
  <time>2026-09-01T19:58:57Z</time>
  <course>19.83</course>
  <speed>5.73</speed>
  <fix>3d</fix>
</trkpt>
<trkpt lat="-27.2771186" lon="151.2898959">
  <ele>442.89</ele>
  <time>2026-09-01T19:58:57Z</time>
  <course>22.79</course>
  <speed>5.5226442941764775</speed>
  <fix>3d</fix>
</trkpt>
<trkpt lat="-27.2771272" lon="151.2898926">
  <ele>443.0</ele>
  <time>2026-09-01T19:58:57Z</time>
  <course>19.85</course>
  <speed>5.64</speed>
  <fix>3d</fix>
</trkpt>
<trkpt lat="-27.277114" lon="151.2898978">
  <ele>442.89</ele>
  <time>2026-09-01T19:58:57Z</time>
  <course>22.85</course>
  <speed>5.4782478950847056</speed>
  <fix>3d</fix>
</trkpt>
<trkpt lat="-27.2771272" lon="151.2898926">
  <ele>443.0</ele>
  <time>2026-09-01T19:58:57Z</time>
  <course>19.85</course>
  <speed>5.64</speed>
  <fix>3d</fix>
</trkpt>
<trkpt lat="-27.2771093" lon="151.2898997">
  <ele>442.89</ele>
  <time>2026-09-01T19:58:57Z</time>
  <course>22.9</course>
  <speed>5.43721436031356</speed>
  <fix>3d</fix>
</trkpt>
<trkpt lat="-27.2771178" lon="151.2898965">
  <ele>442.98</ele>
  <time>2026-09-01T19:58:57Z</time>
  <course>19.85</course>
  <speed>5.54</speed>
  <fix>3d</fix>
</trkpt>
<trkpt lat="-27.2771047" lon="151.2899015">
  <ele>442.88</ele>
  <time>2026-09-01T19:58:57Z</time>
  <course>22.95</course>
  <speed>5.386770832326172</speed>
  <fix>3d</fix>
</trkpt>
<trkpt lat="-27.2771178" lon="151.2898965">
  <ele>442.98</ele>
  <time>2026-09-01T19:58:57Z</time>
  <course>19.85</course>
  <speed>5.54</speed>
  <fix>3d</fix>
</trkpt>
<trkpt lat="-27.2771002" lon="151.2899034">
  <ele>442.88</ele>
  <time>2026-09-01T19:58:57Z</time>
  <course>23.0</course>
  <speed>5.351784749034661</speed>
  <fix>3d</fix>
</trkpt>
<trkpt lat="-27.2771085" lon="151.2899002">
  <ele>442.97</ele>
  <time>2026-09-01T19:58:57Z</time>
  <course>19.84</course>
  <speed>5.45</speed>
  <fix>3d</fix>
</trkpt>
<trkpt lat="-27.2770956" lon="151.2899053">
  <ele>442.87</ele>
  <time>2026-09-01T19:58:57Z</time>
  <course>23.05</course>
  <speed>5.310753242243514</speed>
  <fix>3d</fix>
</trkpt>
<trkpt lat="-27.2771085" lon="151.2899002">
  <ele>442.97</ele>
  <time>2026-09-01T19:58:57Z</time>
  <course>19.84</course>
  <speed>5.45</speed>
  <fix>3d</fix>
</trkpt>
<trkpt lat="-27.2770911" lon="151.2899071">
  <ele>442.87</ele>
  <time>2026-09-01T19:58:57Z</time>
  <course>23.1</course>
  <speed>5.266355476038434</speed>
  <fix>3d</fix>
</trkpt>
<trkpt lat="-27.2770993" lon="151.2899039">
  <ele>442.96</ele>
  <time>2026-09-01T19:58:57Z</time>
  <course>19.82</course>
  <speed>5.36</speed>
  <fix>3d</fix>
</trkpt>
<trkpt lat="-27.2770867" lon="151.2899089">
  <ele>442.87</ele>
  <time>2026-09-01T19:58:57Z</time>
  <course>23.14</course>
  <speed>5.225322956526228</speed>
  <fix>3d</fix>
</trkpt>
<trkpt lat="-27.2770993" lon="151.2899039">
  <ele>442.96</ele>
  <time>2026-09-01T19:58:57Z</time>
  <course>19.82</course>
  <speed>5.36</speed>
  <fix>3d</fix>
</trkpt>
<trkpt lat="-27.2770823" lon="151.2899107">
  <ele>442.87</ele>
  <time>2026-09-01T19:58:57Z</time>
  <course>23.18</course>
  <speed>5.193707731476618</speed>
  <fix>3d</fix>
</trkpt>
<trkpt lat="-27.2770903" lon="151.2899076">
  <ele>442.96</ele>
  <time>2026-09-01T19:58:57Z</time>
  <course>19.79</course>
  <speed>5.28</speed>
  <fix>3d</fix>
</trkpt>
<trkpt lat="-27.2770779" lon="151.2899125">
  <ele>442.87</ele>
  <time>2026-09-01T19:58:57Z</time>
  <course>23.21</course>
  <speed>5.158730463980455</speed>
  <fix>3d</fix>
</trkpt>
<trkpt lat="-27.2770903" lon="151.2899076">
  <ele>442.96</ele>
  <time>2026-09-01T19:58:57Z</time>
  <course>19.79</course>
  <speed>5.28</speed>
  <fix>3d</fix>
</trkpt>
<trkpt lat="-27.2770735" lon="151.2899142">
  <ele>442.87</ele>
  <time>2026-09-01T19:58:57Z</time>
  <course>23.25</course>
  <speed>5.117694793556959</speed>
  <fix>3d</fix>
</trkpt>
<trkpt lat="-27.2770815" lon="151.2899112">
  <ele>442.95</ele>
  <time>2026-09-01T19:58:57Z</time>
  <course>19.75</course>
  <speed>5.2</speed>
  <fix>3d</fix>
</trkpt>
<trkpt lat="-27.2770691" lon="151.289916">
  <ele>442.86</ele>
  <time>2026-09-01T19:58:57Z</time>
  <course>23.28</course>
  <speed>5.086079039889176</speed>
  <fix>3d</fix>
</trkpt>
<trkpt lat="-27.2770815" lon="151.2899112">
  <ele>442.95</ele>
  <time>2026-09-01T19:58:57Z</time>
  <course>19.75</course>
  <speed>5.2</speed>
  <fix>3d</fix>
</trkpt>
<trkpt lat="-27.2770648" lon="151.2899178">
  <ele>442.86</ele>
  <time>2026-09-01T19:58:57Z</time>
  <course>23.3</course>
  <speed>5.051108789166988</speed>
  <fix>3d</fix>
</trkpt>
<trkpt lat="-27.2770727" lon="151.2899147">
  <ele>442.95</ele>
  <time>2026-09-01T19:58:57Z</time>
  <course>19.7</course>
  <speed>5.13</speed>
  <fix>3d</fix>
</trkpt>
<trkpt lat="-27.2770605" lon="151.2899195">
  <ele>442.86</ele>
  <time>2026-09-01T19:58:57Z</time>
  <course>23.32</course>
  <speed>5.028916384272063</speed>
  <fix>3d</fix>
</trkpt>
<trkpt lat="-27.2770727" lon="151.2899147">
  <ele>442.95</ele>
  <time>2026-09-01T19:58:57Z</time>
  <course>19.7</course>
  <speed>5.13</speed>
  <fix>3d</fix>
</trkpt>
<trkpt lat="-27.2770563" lon="151.2899212">
  <ele>442.86</ele>
  <time>2026-09-01T19:58:57Z</time>
  <course>23.34</course>
  <speed>4.997299270606074</speed>
  <fix>3d</fix>
</trkpt>
<trkpt lat="-27.277064" lon="151.2899182">
  <ele>442.95</ele>
  <time>2026-09-01T19:58:57Z</time>
  <course>19.64</course>
  <speed>5.07</speed>
  <fix>3d</fix>
</trkpt>
<trkpt lat="-27.277052" lon="151.2899229">
  <ele>442.86</ele>
  <time>2026-09-01T19:58:57Z</time>
  <course>23.36</course>
  <speed>4.975108039027896</speed>
  <fix>3d</fix>
</trkpt>
<trkpt lat="-27.277064" lon="151.2899182">
  <ele>442.95</ele>
  <time>2026-09-01T19:58:57Z</time>
  <course>19.64</course>
  <speed>5.07</speed>
  <fix>3d</fix>
</trkpt>
<trkpt lat="-27.2770478" lon="151.2899246">
  <ele>442.86</ele>
  <time>2026-09-01T19:58:57Z</time>
  <course>23.37</course>
  <speed>4.952918331650543</speed>
  <fix>3d</fix>
</trkpt>
<trkpt lat="-27.2770555" lon="151.2899216">
  <ele>442.95</ele>
  <time>2026-09-01T19:58:57Z</time>
  <course>19.57</course>
  <speed>5.01</speed>
  <fix>3d</fix>
</trkpt>
<trkpt lat="-27.2770436" lon="151.2899263">
  <ele>442.86</ele>
  <time>2026-09-01T19:58:57Z</time>
  <course>23.38</course>
  <speed>4.921300641090727</speed>
  <fix>3d</fix>
</trkpt>
<trkpt lat="-27.2770555" lon="151.2899216">
  <ele>442.95</ele>
  <time>2026-09-01T19:58:57Z</time>
  <course>19.57</course>
  <speed>5.01</speed>
  <fix>3d</fix>
</trkpt>
<trkpt lat="-27.2770394" lon="151.2899279">
  <ele>442.86</ele>
  <time>2026-09-01T19:58:57Z</time>
  <course>23.39</course>
  <speed>4.90854357218106</speed>
  <fix>3d</fix>
</trkpt>
<trkpt lat="-27.2770471" lon="151.2899249">
  <ele>442.95</ele>
  <time>2026-09-01T19:58:57Z</time>
  <course>19.5</course>
  <speed>4.96</speed>
  <fix>3d</fix>
</trkpt>
<trkpt lat="-27.2770352" lon="151.2899296">
  <ele>442.86</ele>
  <time>2026-09-01T19:58:57Z</time>
  <course>23.39</course>
  <speed>4.88635856236523</speed>
  <fix>3d</fix>
</trkpt>
<trkpt lat="-27.2770471" lon="151.2899249">
  <ele>442.95</ele>
  <time>2026-09-01T19:58:57Z</time>
  <course>19.5</course>
  <speed>4.96</speed>
  <fix>3d</fix>
</trkpt>
<trkpt lat="-27.277031" lon="151.2899313">
  <ele>442.86</ele>
  <time>2026-09-01T19:58:57Z</time>
  <course>23.39</course>
  <speed>4.864175161319748</speed>
  <fix>3d</fix>
</trkpt>
<trkpt lat="-27.2770387" lon="151.2899283">
  <ele>442.95</ele>
  <time>2026-09-01T19:58:57Z</time>
  <course>19.44</course>
  <speed>4.91</speed>
  <fix>3d</fix>
</trkpt>
<trkpt lat="-27.2770269" lon="151.2899329">
  <ele>442.86</ele>
  <time>2026-09-01T19:58:57Z</time>
  <course>23.39</course>
  <speed>4.851432778056396</speed>
  <fix>3d</fix>
</trkpt>
<trkpt lat="-27.2770387" lon="151.2899283">
  <ele>442.95</ele>
  <time>2026-09-01T19:58:57Z</time>
  <course>19.44</course>
  <speed>4.91</speed>
  <fix>3d</fix>
</trkpt>
<trkpt lat="-27.2770228" lon="151.2899345">
  <ele>442.86</ele>
  <time>2026-09-01T19:58:57Z</time>
  <course>23.39</course>
  <speed>4.832556259372466</speed>
  <fix>3d</fix>
</trkpt>
<trkpt lat="-27.2770304" lon="151.2899316">
  <ele>442.95</ele>
  <time>2026-09-01T19:58:57Z</time>
  <course>19.37</course>
  <speed>4.87</speed>
  <fix>3d</fix>
</trkpt>
<trkpt lat="-27.2770187" lon="151.2899362">
  <ele>442.86</ele>
  <time>2026-09-01T19:58:57Z</time>
  <course>23.39</course>
  <speed>4.819813274391447</speed>
  <fix>3d</fix>
</trkpt>
<trkpt lat="-27.2770304" lon="151.2899316">
  <ele>442.95</ele>
  <time>2026-09-01T19:58:57Z</time>
  <course>19.37</course>
  <speed>4.87</speed>
  <fix>3d</fix>
</trkpt>
<trkpt lat="-27.2770145" lon="151.2899378">
  <ele>442.86</ele>
  <time>2026-09-01T19:58:57Z</time>
  <course>23.38</course>
  <speed>4.807078114613907</speed>
  <fix>3d</fix>
</trkpt>
<trkpt lat="-27.2770222" lon="151.2899348">
  <ele>442.95</ele>
  <time>2026-09-01T19:58:57Z</time>
  <course>19.3</course>
  <speed>4.84</speed>
  <fix>3d</fix>
</trkpt>
<trkpt lat="-27.2770104" lon="151.2899394">
  <ele>442.86</ele>
  <time>2026-09-01T19:58:57Z</time>
  <course>23.38</course>
  <speed>4.797634833957249</speed>
  <fix>3d</fix>
</trkpt>
<trkpt lat="-27.2770222" lon="151.2899348">
  <ele>442.95</ele>
  <time>2026-09-01T19:58:57Z</time>
  <course>19.3</course>
  <speed>4.84</speed>
  <fix>3d</fix>
</trkpt>
<trkpt lat="-27.2770064" lon="151.289941">
  <ele>442.86</ele>
  <time>2026-09-01T19:58:57Z</time>
  <course>23.37</course>
  <speed>4.784903342806414</speed>
  <fix>3d</fix>
</trkpt>
<trkpt lat="-27.277014" lon="151.289938">
  <ele>442.95</ele>
  <time>2026-09-01T19:58:57Z</time>
  <course>19.23</course>
  <speed>4.81</speed>
  <fix>3d</fix>
</trkpt>
<trkpt lat="-27.2770023" lon="151.2899426">
  <ele>442.85</ele>
  <time>2026-09-01T19:58:57Z</time>
  <course>23.37</course>
  <speed>4.7754580932094886</speed>
  <fix>3d</fix>
</trkpt>
<trkpt lat="-27.277014" lon="151.289938">
  <ele>442.95</ele>
  <time>2026-09-01T19:58:57Z</time>
  <course>19.23</course>
  <speed>4.81</speed>
  <fix>3d</fix>
</trkpt>
<trkpt lat="-27.2769982" lon="151.2899442">
  <ele>442.85</ele>
  <time>2026-09-01T19:58:57Z</time>
  <course>23.35</course>
  <speed>4.7721797954393965</speed>
  <fix>3d</fix>
</trkpt>
<trkpt lat="-27.2770059" lon="151.2899413">
  <ele>442.95</ele>
  <time>2026-09-01T19:58:57Z</time>
  <course>19.16</course>
  <speed>4.78</speed>
  <fix>3d</fix>
</trkpt>
<trkpt lat="-27.2769942" lon="151.2899458">
  <ele>442.85</ele>
  <time>2026-09-01T19:58:57Z</time>
  <course>23.34</course>
  <speed>4.7627303093918725</speed>
  <fix>3d</fix>
</trkpt>
<trkpt lat="-27.2770059" lon="151.2899413">
  <ele>442.95</ele>
  <time>2026-09-01T19:58:57Z</time>
  <course>19.16</course>
  <speed>4.78</speed>
  <fix>3d</fix>
</trkpt>
<trkpt lat="-27.2769901" lon="151.2899473">
  <ele>442.85</ele>
  <time>2026-09-01T19:58:57Z</time>
  <course>23.33</course>
  <speed>4.759464255564906</speed>
  <fix>3d</fix>
</trkpt>
<trkpt lat="-27.2769977" lon="151.2899444">
  <ele>442.95</ele>
  <time>2026-09-01T19:58:57Z</time>
  <course>19.09</course>
  <speed>4.77</speed>
  <fix>3d</fix>
</trkpt>
<trkpt lat="-27.2769861" lon="151.2899489">
  <ele>442.85</ele>
  <time>2026-09-01T19:58:57Z</time>
  <course>23.31</course>
  <speed>4.750010526304126</speed>
  <fix>3d</fix>
</trkpt>
<trkpt lat="-27.2769977" lon="151.2899444">
  <ele>442.95</ele>
  <time>2026-09-01T19:58:57Z</time>
  <course>19.09</course>
  <speed>4.77</speed>
  <fix>3d</fix>
</trkpt>
<trkpt lat="-27.276982" lon="151.2899505">
  <ele>442.85</ele>
  <time>2026-09-01T19:58:57Z</time>
  <course>23.29</course>
  <speed>4.7467567875339896</speed>
  <fix>3d</fix>
</trkpt>
<trkpt lat="-27.2769897" lon="151.2899475">
  <ele>442.95</ele>
  <time>2026-09-01T19:58:57Z</time>
  <course>19.02</course>
  <speed>4.76</speed>
  <fix>3d</fix>
</trkpt>
<trkpt lat="-27.276978" lon="151.2899521">
  <ele>442.86</ele>
  <time>2026-09-01T19:58:57Z</time>
  <course>23.27</course>
  <speed>4.7467567875339896</speed>
  <fix>3d</fix>
</trkpt>
<trkpt lat="-27.2769897" lon="151.2899475">
  <ele>442.95</ele>
  <time>2026-09-01T19:58:57Z</time>
  <course>19.02</course>
  <speed>4.76</speed>
  <fix>3d</fix>
</trkpt>
<trkpt lat="-27.2769739" lon="151.2899536">
  <ele>442.86</ele>
  <time>2026-09-01T19:58:57Z</time>
  <course>23.26</course>
  <speed>4.7467567875339896</speed>
  <fix>3d</fix>
</trkpt>
<trkpt lat="-27.2769816" lon="151.2899507">
  <ele>442.95</ele>
  <time>2026-09-01T19:58:57Z</time>
  <course>18.95</course>
  <speed>4.75</speed>
  <fix>3d</fix>
</trkpt>
<trkpt lat="-27.2769699" lon="151.2899552">
  <ele>442.86</ele>
  <time>2026-09-01T19:58:57Z</time>
  <course>23.24</course>
  <speed>4.7467567875339896</speed>
  <fix>3d</fix>
</trkpt>
<trkpt lat="-27.2769816" lon="151.2899507">
  <ele>442.95</ele>
  <time>2026-09-01T19:58:57Z</time>
  <course>18.95</course>
  <speed>4.75</speed>
  <fix>3d</fix>
</trkpt>
<trkpt lat="-27.2769658" lon="151.2899567">
  <ele>442.87</ele>
  <time>2026-09-01T19:58:57Z</time>
  <course>23.22</course>
  <speed>4.7467567875339896</speed>
  <fix>3d</fix>
</trkpt>
<trkpt lat="-27.2769735" lon="151.2899538">
  <ele>442.96</ele>
  <time>2026-09-01T19:58:57Z</time>
  <course>18.89</course>
  <speed>4.75</speed>
  <fix>3d</fix>
</trkpt>
<trkpt lat="-27.2769618" lon="151.2899583">
  <ele>442.87</ele>
  <time>2026-09-01T19:58:57Z</time>
  <course>23.2</course>
  <speed>4.74352189833672</speed>
  <fix>3d</fix>
</trkpt>
<trkpt lat="-27.2769735" lon="151.2899538">
  <ele>442.96</ele>
  <time>2026-09-01T19:58:57Z</time>
  <course>18.89</course>
  <speed>4.75</speed>
  <fix>3d</fix>
</trkpt>
<trkpt lat="-27.2769577" lon="151.2899599">
  <ele>442.87</ele>
  <time>2026-09-01T19:58:57Z</time>
  <course>23.18</course>
  <speed>4.74352189833672</speed>
  <fix>3d</fix>
</trkpt>
<trkpt lat="-27.2769654" lon="151.2899569">
  <ele>442.96</ele>
  <time>2026-09-01T19:58:57Z</time>
  <course>18.84</course>
  <speed>4.75</speed>
  <fix>3d</fix>
</trkpt>
<trkpt lat="-27.2769537" lon="151.2899614">
  <ele>442.87</ele>
  <time>2026-09-01T19:58:57Z</time>
  <course>23.15</course>
  <speed>4.752988533543922</speed>
  <fix>3d</fix>
</trkpt>
<trkpt lat="-27.2769654" lon="151.2899569">
  <ele>442.96</ele>
  <time>2026-09-01T19:58:57Z</time>
  <course>18.84</course>
  <speed>4.75</speed>
  <fix>3d</fix>
</trkpt>
<trkpt lat="-27.2769496" lon="151.289963">
  <ele>442.88</ele>
  <time>2026-09-01T19:58:57Z</time>
  <course>23.13</course>
  <speed>4.752988533543922</speed>
  <fix>3d</fix>
</trkpt>
<trkpt lat="-27.2769573" lon="151.28996">
  <ele>442.97</ele>
  <time>2026-09-01T19:58:57Z</time>
  <course>18.79</course>
  <speed>4.75</speed>
  <fix>3d</fix>
</trkpt>
<trkpt lat="-27.2769455" lon="151.2899645">
  <ele>442.88</ele>
  <time>2026-09-01T19:58:57Z</time>
  <course>23.11</course>
  <speed>4.752988533543922</speed>
  <fix>3d</fix>
</trkpt>
<trkpt lat="-27.2769573" lon="151.28996">
  <ele>442.97</ele>
  <time>2026-09-01T19:58:57Z</time>
  <course>18.79</course>
  <speed>4.75</speed>
  <fix>3d</fix>
</trkpt>
<trkpt lat="-27.2769415" lon="151.2899661">
  <ele>442.88</ele>
  <time>2026-09-01T19:58:57Z</time>
  <course>23.09</course>
  <speed>4.762457348890382</speed>
  <fix>3d</fix>
</trkpt>
<trkpt lat="-27.2769492" lon="151.2899631">
  <ele>442.97</ele>
  <time>2026-09-01T19:58:57Z</time>
  <course>18.74</course>
  <speed>4.76</speed>
  <fix>3d</fix>
</trkpt>
<trkpt lat="-27.2769374" lon="151.2899676">
  <ele>442.88</ele>
  <time>2026-09-01T19:58:57Z</time>
  <course>23.07</course>
  <speed>4.762457348890382</speed>
  <fix>3d</fix>
</trkpt>
<trkpt lat="-27.2769492" lon="151.2899631">
  <ele>442.97</ele>
  <time>2026-09-01T19:58:57Z</time>
  <course>18.74</course>
  <speed>4.76</speed>
  <fix>3d</fix>
</trkpt>
<trkpt lat="-27.2769333" lon="151.2899692">
  <ele>442.88</ele>
  <time>2026-09-01T19:58:57Z</time>
  <course>23.05</course>
  <speed>4.771928331398115</speed>
  <fix>3d</fix>
</trkpt>
<trkpt lat="-27.2769411" lon="151.2899662">
  <ele>442.97</ele>
  <time>2026-09-01T19:58:57Z</time>
  <course>18.7</course>
  <speed>4.77</speed>
  <fix>3d</fix>
</trkpt>
<trkpt lat="-27.2769292" lon="151.2899707">
  <ele>442.88</ele>
  <time>2026-09-01T19:58:57Z</time>
  <course>23.03</course>
  <speed>4.781401468189008</speed>
  <fix>3d</fix>
</trkpt>
<trkpt lat="-27.2769411" lon="151.2899662">
  <ele>442.97</ele>
  <time>2026-09-01T19:58:57Z</time>
  <course>18.7</course>
  <speed>4.77</speed>
  <fix>3d</fix>
</trkpt>
<trkpt lat="-27.2769252" lon="151.2899723">
  <ele>442.88</ele>
  <time>2026-09-01T19:58:57Z</time>
  <course>23.01</course>
  <speed>4.781401468189008</speed>
  <fix>3d</fix>
</trkpt>
<trkpt lat="-27.276933" lon="151.2899693">
  <ele>442.98</ele>
  <time>2026-09-01T19:58:57Z</time>
  <course>18.66</course>
  <speed>4.78</speed>
  <fix>3d</fix>
</trkpt>
<trkpt lat="-27.2769211" lon="151.2899738">
  <ele>442.89</ele>
  <time>2026-09-01T19:58:57Z</time>
  <course>22.99</course>
  <speed>4.794079682274795</speed>
  <fix>3d</fix>
</trkpt>
<trkpt lat="-27.276933" lon="151.2899693">
  <ele>442.98</ele>
  <time>2026-09-01T19:58:57Z</time>
  <course>18.66</course>
  <speed>4.78</speed>
  <fix>3d</fix>
</trkpt>
<trkpt lat="-27.276917" lon="151.2899754">
  <ele>442.89</ele>
  <time>2026-09-01T19:58:57Z</time>
  <course>22.97</course>
  <speed>4.803550770003373</speed>
  <fix>3d</fix>
</trkpt>
<trkpt lat="-27.2769249" lon="151.2899724">
  <ele>442.98</ele>
  <time>2026-09-01T19:58:57Z</time>
  <course>18.62</course>
  <speed>4.79</speed>
  <fix>3d</fix>
</trkpt>
<trkpt lat="-27.2769129" lon="151.2899769">
  <ele>442.89</ele>
  <time>2026-09-01T19:58:57Z</time>
  <course>22.95</course>
  <speed>4.803550770003373</speed>
  <fix>3d</fix>
</trkpt>
<trkpt lat="-27.2769249" lon="151.2899724">
  <ele>442.98</ele>
  <time>2026-09-01T19:58:57Z</time>
  <course>18.62</course>
  <speed>4.79</speed>
  <fix>3d</fix>
</trkpt>
<trkpt lat="-27.2769088" lon="151.2899785">
  <ele>442.89</ele>
  <time>2026-09-01T19:58:57Z</time>
  <course>22.94</course>
  <speed>4.813023997446927</speed>
  <fix>3d</fix>
</trkpt>
<trkpt lat="-27.2769167" lon="151.2899755">
  <ele>442.98</ele>
  <time>2026-09-01T19:58:57Z</time>
  <course>18.6</course>
  <speed>4.81</speed>
  <fix>3d</fix>
</trkpt>
<trkpt lat="-27.2769047" lon="151.2899801">
  <ele>442.89</ele>
  <time>2026-09-01T19:58:57Z</time>
  <course>22.92</course>
  <speed>4.822499351995809</speed>
  <fix>3d</fix>
</trkpt>
<trkpt lat="-27.2769167" lon="151.2899755">
  <ele>442.98</ele>
  <time>2026-09-01T19:58:57Z</time>
  <course>18.6</course>
  <speed>4.81</speed>
  <fix>3d</fix>
</trkpt>
<trkpt lat="-27.2769006" lon="151.2899816">
  <ele>442.9</ele>
  <time>2026-09-01T19:58:57Z</time>
  <course>22.9</course>
  <speed>4.831976821136459</speed>
  <fix>3d</fix>
</trkpt>
<trkpt lat="-27.2769085" lon="151.2899786">
  <ele>442.98</ele>
  <time>2026-09-01T19:58:57Z</time>
  <course>18.58</course>
  <speed>4.83</speed>
  <fix>3d</fix>
</trkpt>
<trkpt lat="-27.2768964" lon="151.2899832">
  <ele>442.9</ele>
  <time>2026-09-01T19:58:57Z</time>
  <course>22.89</course>
  <speed>4.844646529933841</speed>
  <fix>3d</fix>
</trkpt>
<trkpt lat="-27.2769085" lon="151.2899786">
  <ele>442.98</ele>
  <time>2026-09-01T19:58:57Z</time>
  <course>18.58</course>
  <speed>4.83</speed>
  <fix>3d</fix>
</trkpt>
<trkpt lat="-27.2768923" lon="151.2899848">
  <ele>442.9</ele>
  <time>2026-09-01T19:58:57Z</time>
  <course>22.87</course>
  <speed>4.844646529933841</speed>
  <fix>3d</fix>
</trkpt>
<trkpt lat="-27.2769002" lon="151.2899817">
  <ele>442.98</ele>
  <time>2026-09-01T19:58:57Z</time>
  <course>18.56</course>
  <speed>4.84</speed>
  <fix>3d</fix>
</trkpt>
<trkpt lat="-27.2768881" lon="151.2899863">
  <ele>442.9</ele>
  <time>2026-09-01T19:58:57Z</time>
  <course>22.85</course>
  <speed>4.844646529933841</speed>
  <fix>3d</fix>
</trkpt>
<trkpt lat="-27.2769002" lon="151.2899817">
  <ele>442.98</ele>
  <time>2026-09-01T19:58:57Z</time>
  <course>18.56</course>
  <speed>4.84</speed>
  <fix>3d</fix>
</trkpt>
<trkpt lat="-27.276884" lon="151.2899879">
  <ele>442.9</ele>
  <time>2026-09-01T19:58:57Z</time>
  <course>22.84</course>
  <speed>4.844646529933841</speed>
  <fix>3d</fix>
</trkpt>
<trkpt lat="-27.2768919" lon="151.2899848">
  <ele>442.98</ele>
  <time>2026-09-01T19:58:57Z</time>
  <course>18.55</course>
  <speed>4.86</speed>
  <fix>3d</fix>
</trkpt>
<trkpt lat="-27.2768798" lon="151.2899894">
  <ele>442.9</ele>
  <time>2026-09-01T19:58:57Z</time>
  <course>22.83</course>
  <speed>4.831976821136459</speed>
  <fix>3d</fix>
</trkpt>
<trkpt lat="-27.2768919" lon="151.2899848">
  <ele>442.98</ele>
  <time>2026-09-01T19:58:57Z</time>
  <course>18.55</course>
  <speed>4.86</speed>
  <fix>3d</fix>
</trkpt>
<trkpt lat="-27.2768757" lon="151.289991">
  <ele>442.9</ele>
  <time>2026-09-01T19:58:57Z</time>
  <course>22.83</course>
  <speed>4.822499351995809</speed>
  <fix>3d</fix>
</trkpt>
<trkpt lat="-27.2768837" lon="151.289988">
  <ele>442.98</ele>
  <time>2026-09-01T19:58:57Z</time>
  <course>18.54</course>
  <speed>4.85</speed>
  <fix>3d</fix>
</trkpt>
<trkpt lat="-27.2768716" lon="151.2899926">
  <ele>442.9</ele>
  <time>2026-09-01T19:58:57Z</time>
  <course>22.83</course>
  <speed>4.800354153601586</speed>
  <fix>3d</fix>
</trkpt>
<trkpt lat="-27.2768837" lon="151.289988">
  <ele>442.98</ele>
  <time>2026-09-01T19:58:57Z</time>
  <course>18.54</course>
  <speed>4.85</speed>
  <fix>3d</fix>
</trkpt>
<trkpt lat="-27.2768675" lon="151.2899941">
  <ele>442.9</ele>
  <time>2026-09-01T19:58:57Z</time>
  <course>22.83</course>
  <speed>4.778210962274478</speed>
  <fix>3d</fix>
</trkpt>
<trkpt lat="-27.2768754" lon="151.2899911">
  <ele>442.99</ele>
  <time>2026-09-01T19:58:57Z</time>
  <course>18.54</course>
  <speed>4.83</speed>
  <fix>3d</fix>
</trkpt>
<trkpt lat="-27.2768634" lon="151.2899956">
  <ele>442.9</ele>
  <time>2026-09-01T19:58:57Z</time>
  <course>22.84</course>
  <speed>4.749778942224575</speed>
  <fix>3d</fix>
</trkpt>
<trkpt lat="-27.2768754" lon="151.2899911">
  <ele>442.99</ele>
  <time>2026-09-01T19:58:57Z</time>
  <course>18.54</course>
  <speed>4.83</speed>
  <fix>3d</fix>
</trkpt>
<trkpt lat="-27.2768594" lon="151.2899972">
  <ele>442.9</ele>
  <time>2026-09-01T19:58:57Z</time>
  <course>22.86</course>
  <speed>4.714965535398959</speed>
  <fix>3d</fix>
</trkpt>
<trkpt lat="-27.2768672" lon="151.2899942">
  <ele>442.99</ele>
  <time>2026-09-01T19:58:57Z</time>
  <course>18.53</course>
  <speed>4.79</speed>
  <fix>3d</fix>
</trkpt>
<trkpt lat="-27.2768554" lon="151.2899987">
  <ele>442.9</ele>
  <time>2026-09-01T19:58:57Z</time>
  <course>22.88</course>
  <speed>4.6833428232406815</speed>
  <fix>3d</fix>
</trkpt>
<trkpt lat="-27.2768672" lon="151.2899942">
  <ele>442.99</ele>
  <time>2026-09-01T19:58:57Z</time>
  <course>18.53</course>
  <speed>4.79</speed>
  <fix>3d</fix>
</trkpt>
<trkpt lat="-27.2768514" lon="151.2900002">
  <ele>442.91</ele>
  <time>2026-09-01T19:58:57Z</time>
  <course>22.91</course>
  <speed>4.642240838215958</speed>
  <fix>3d</fix>
</trkpt>
<trkpt lat="-27.2768591" lon="151.2899972">
  <ele>442.99</ele>
  <time>2026-09-01T19:58:57Z</time>
  <course>18.53</course>
  <speed>4.74</speed>
  <fix>3d</fix>
</trkpt>
<trkpt lat="-27.2768474" lon="151.2900017">
  <ele>442.91</ele>
  <time>2026-09-01T19:58:57Z</time>
  <course>22.94</course>
  <speed>4.601141162798638</speed>
  <fix>3d</fix>
</trkpt>
<trkpt lat="-27.2768591" lon="151.2899972">
  <ele>442.99</ele>
  <time>2026-09-01T19:58:57Z</time>
  <course>18.53</course>
  <speed>4.74</speed>
  <fix>3d</fix>
</trkpt>
<trkpt lat="-27.2768435" lon="151.2900032">
  <ele>442.91</ele>
  <time>2026-09-01T19:58:57Z</time>
  <course>22.98</course>
  <speed>4.556851983551803</speed>
  <fix>3d</fix>
</trkpt>
<trkpt lat="-27.2768511" lon="151.2900003">
  <ele>443.0</ele>
  <time>2026-09-01T19:58:57Z</time>
  <course>18.52</course>
  <speed>4.67</speed>
  <fix>3d</fix>
</trkpt>
<trkpt lat="-27.2768396" lon="151.2900046">
  <ele>442.91</ele>
  <time>2026-09-01T19:58:57Z</time>
  <course>23.03</course>
  <speed>4.515750214526928</speed>
  <fix>3d</fix>
</trkpt>
<trkpt lat="-27.2768511" lon="151.2900003">
  <ele>443.0</ele>
  <time>2026-09-01T19:58:57Z</time>
  <course>18.52</course>
  <speed>4.67</speed>
  <fix>3d</fix>
</trkpt>
<trkpt lat="-27.2768358" lon="151.2900061">
  <ele>442.91</ele>
  <time>2026-09-01T19:58:57Z</time>
  <course>23.07</course>
  <speed>4.461983863709056</speed>
  <fix>3d</fix>
</trkpt>
<trkpt lat="-27.2768432" lon="151.2900032">
  <ele>443.0</ele>
  <time>2026-09-01T19:58:57Z</time>
  <course>18.51</course>
  <speed>4.58</speed>
  <fix>3d</fix>
</trkpt>
<trkpt lat="-27.276832" lon="151.2900075">
  <ele>442.9</ele>
  <time>2026-09-01T19:58:57Z</time>
  <course>23.12</course>
  <speed>4.408219595256116</speed>
  <fix>3d</fix>
</trkpt>
<trkpt lat="-27.2768432" lon="151.2900032">
  <ele>443.0</ele>
  <time>2026-09-01T19:58:57Z</time>
  <course>18.51</course>
  <speed>4.58</speed>
  <fix>3d</fix>
</trkpt>
<trkpt lat="-27.2768282" lon="151.2900089">
  <ele>442.9</ele>
  <time>2026-09-01T19:58:57Z</time>
  <course>23.17</course>
  <speed>4.357636974324502</speed>
  <fix>3d</fix>
</trkpt>
<trkpt lat="-27.2768354" lon="151.2900061">
  <ele>443.01</ele>
  <time>2026-09-01T19:58:57Z</time>
  <course>18.5</course>
  <speed>4.49</speed>
  <fix>3d</fix>
</trkpt>
<trkpt lat="-27.2768245" lon="151.2900103">
  <ele>442.91</ele>
  <time>2026-09-01T19:58:57Z</time>
  <course>23.23</course>
  <speed>4.303870351207155</speed>
  <fix>3d</fix>
</trkpt>
<trkpt lat="-27.2768354" lon="151.2900061">
  <ele>443.01</ele>
  <time>2026-09-01T19:58:57Z</time>
  <course>18.5</course>
  <speed>4.49</speed>
  <fix>3d</fix>
</trkpt>
<trkpt lat="-27.2768209" lon="151.2900117">
  <ele>442.91</ele>
  <time>2026-09-01T19:58:57Z</time>
  <course>23.28</course>
  <speed>4.250105881034024</speed>
  <fix>3d</fix>
</trkpt>
<trkpt lat="-27.2768278" lon="151.290009">
  <ele>443.01</ele>
  <time>2026-09-01T19:58:57Z</time>
  <course>18.48</course>
  <speed>4.39</speed>
  <fix>3d</fix>
</trkpt>
<trkpt lat="-27.2768172" lon="151.290013">
  <ele>442.91</ele>
  <time>2026-09-01T19:58:57Z</time>
  <course>23.34</course>
  <speed>4.18686039891468</speed>
  <fix>3d</fix>
</trkpt>
<trkpt lat="-27.2768278" lon="151.290009">
  <ele>443.01</ele>
  <time>2026-09-01T19:58:57Z</time>
  <course>18.48</course>
  <speed>4.39</speed>
  <fix>3d</fix>
</trkpt>
<trkpt lat="-27.2768136" lon="151.2900144">
  <ele>442.91</ele>
  <time>2026-09-01T19:58:57Z</time>
  <course>23.4</course>
  <speed>4.133098111586513</speed>
  <fix>3d</fix>
</trkpt>
<trkpt lat="-27.2768204" lon="151.2900118">
  <ele>443.01</ele>
  <time>2026-09-01T19:58:57Z</time>
  <course>18.46</course>
  <speed>4.28</speed>
  <fix>3d</fix>
</trkpt>
<trkpt lat="-27.2768101" lon="151.2900157">
  <ele>442.9</ele>
  <time>2026-09-01T19:58:57Z</time>
  <course>23.47</course>
  <speed>4.069852577182618</speed>
  <fix>3d</fix>
</trkpt>
<trkpt lat="-27.2768204" lon="151.2900118">
  <ele>443.01</ele>
  <time>2026-09-01T19:58:57Z</time>
  <course>18.46</course>
  <speed>4.28</speed>
  <fix>3d</fix>
</trkpt>
<trkpt lat="-27.2768066" lon="151.290017">
  <ele>442.9</ele>
  <time>2026-09-01T19:58:57Z</time>
  <course>23.54</course>
  <speed>4.0066070433722345</speed>
  <fix>3d</fix>
</trkpt>
<trkpt lat="-27.2768132" lon="151.2900144">
  <ele>443.01</ele>
  <time>2026-09-01T19:58:57Z</time>
  <course>18.44</course>
  <speed>4.16</speed>
  <fix>3d</fix>
</trkpt>
<trkpt lat="-27.2768032" lon="151.2900183">
  <ele>442.9</ele>
  <time>2026-09-01T19:58:57Z</time>
  <course>23.63</course>
  <speed>3.9433615101839194</speed>
  <fix>3d</fix>
</trkpt>
<trkpt lat="-27.2768132" lon="151.2900144">
  <ele>443.01</ele>
  <time>2026-09-01T19:58:57Z</time>
  <course>18.44</course>
  <speed>4.16</speed>
  <fix>3d</fix>
</trkpt>
<trkpt lat="-27.2767999" lon="151.2900195">
  <ele>442.89</ele>
  <time>2026-09-01T19:58:57Z</time>
  <course>23.71</course>
  <speed>3.880115977648091</speed>
  <fix>3d</fix>
</trkpt>
<trkpt lat="-27.2768062" lon="151.2900171">
  <ele>443.01</ele>
  <time>2026-09-01T19:58:57Z</time>
  <course>18.42</course>
  <speed>4.04</speed>
  <fix>3d</fix>
</trkpt>
<trkpt lat="-27.2767965" lon="151.2900208">
  <ele>442.89</ele>
  <time>2026-09-01T19:58:57Z</time>
  <course>23.8</course>
  <speed>3.8168704457971847</speed>
  <fix>3d</fix>
</trkpt>
<trkpt lat="-27.2768062" lon="151.2900171">
  <ele>443.01</ele>
  <time>2026-09-01T19:58:57Z</time>
  <course>18.42</course>
  <speed>4.04</speed>
  <fix>3d</fix>
</trkpt>
<trkpt lat="-27.2767933" lon="151.290022">
  <ele>442.89</ele>
  <time>2026-09-01T19:58:57Z</time>
  <course>23.89</course>
  <speed>3.7631104156003716</speed>
  <fix>3d</fix>
</trkpt>
<trkpt lat="-27.2767995" lon="151.2900196">
  <ele>443.0</ele>
  <time>2026-09-01T19:58:57Z</time>
  <course>18.4</course>
  <speed>3.91</speed>
  <fix>3d</fix>
</trkpt>
<trkpt lat="-27.2767901" lon="151.2900232">
  <ele>442.89</ele>
  <time>2026-09-01T19:58:57Z</time>
  <course>23.98</course>
  <speed>3.709353043321706</speed>
  <fix>3d</fix>
</trkpt>
<trkpt lat="-27.2767995" lon="151.2900196">
  <ele>443.0</ele>
  <time>2026-09-01T19:58:57Z</time>
  <course>18.4</course>
  <speed>3.91</speed>
  <fix>3d</fix>
</trkpt>
<trkpt lat="-27.2767869" lon="151.2900244">
  <ele>442.88</ele>
  <time>2026-09-01T19:58:57Z</time>
  <course>24.08</course>
  <speed>3.6587566193995467</speed>
  <fix>3d</fix>
</trkpt>
<trkpt lat="-27.2767929" lon="151.2900221">
  <ele>443.0</ele>
  <time>2026-09-01T19:58:57Z</time>
  <course>18.39</course>
  <speed>3.8</speed>
  <fix>3d</fix>
</trkpt>
<trkpt lat="-27.2767838" lon="151.2900255">
  <ele>442.88</ele>
  <time>2026-09-01T19:58:57Z</time>
  <course>24.18</course>
  <speed>3.614484748895754</speed>
  <fix>3d</fix>
</trkpt>
<trkpt lat="-27.2767929" lon="151.2900221">
  <ele>443.0</ele>
  <time>2026-09-01T19:58:57Z</time>
  <course>18.39</course>
  <speed>3.8</speed>
  <fix>3d</fix>
</trkpt>
<trkpt lat="-27.2767807" lon="151.2900267">
  <ele>442.88</ele>
  <time>2026-09-01T19:58:57Z</time>
  <course>24.29</course>
  <speed>3.5733737559902687</speed>
  <fix>3d</fix>
</trkpt>
<trkpt lat="-27.2767865" lon="151.2900245">
  <ele>442.99</ele>
  <time>2026-09-01T19:58:57Z</time>
  <course>18.39</course>
  <speed>3.7</speed>
  <fix>3d</fix>
</trkpt>
<trkpt lat="-27.2767776" lon="151.2900278">
  <ele>442.87</ele>
  <time>2026-09-01T19:58:57Z</time>
  <course>24.39</course>
  <speed>3.532265561930473</speed>
  <fix>3d</fix>
</trkpt>
<trkpt lat="-27.2767865" lon="151.2900245">
  <ele>442.99</ele>
  <time>2026-09-01T19:58:57Z</time>
  <course>18.39</course>
  <speed>3.7</speed>
  <fix>3d</fix>
</trkpt>
<trkpt lat="-27.2767746" lon="151.290029">
  <ele>442.87</ele>
  <time>2026-09-01T19:58:57Z</time>
  <course>24.49</course>
  <speed>3.5006427981157975</speed>
  <fix>3d</fix>
</trkpt>
<trkpt lat="-27.2767803" lon="151.2900268">
  <ele>442.98</ele>
  <time>2026-09-01T19:58:57Z</time>
  <course>18.39</course>
  <speed>3.61</speed>
  <fix>3d</fix>
</trkpt>
<trkpt lat="-27.2767716" lon="151.2900301">
  <ele>442.87</ele>
  <time>2026-09-01T19:58:57Z</time>
  <course>24.59</course>
  <speed>3.4595375413485545</speed>
  <fix>3d</fix>
</trkpt>
<trkpt lat="-27.2767803" lon="151.2900268">
  <ele>442.98</ele>
  <time>2026-09-01T19:58:57Z</time>
  <course>18.39</course>
  <speed>3.61</speed>
  <fix>3d</fix>
</trkpt>
<trkpt lat="-27.2767686" lon="151.2900312">
  <ele>442.86</ele>
  <time>2026-09-01T19:58:57Z</time>
  <course>24.68</course>
  <speed>3.4279148180781855</speed>
  <fix>3d</fix>
</trkpt>
<trkpt lat="-27.2767742" lon="151.2900291">
  <ele>442.97</ele>
  <time>2026-09-01T19:58:57Z</time>
  <course>18.4</course>
  <speed>3.53</speed>
  <fix>3d</fix>
</trkpt>
<trkpt lat="-27.2767657" lon="151.2900323">
  <ele>442.86</ele>
  <time>2026-09-01T19:58:58Z</time>
  <course>24.77</course>
  <speed>3.396292095800949</speed>
  <fix>3d</fix>
</trkpt>
<trkpt lat="-27.2767742" lon="151.2900291">
  <ele>442.97</ele>
  <time>2026-09-01T19:58:58Z</time>
  <course>18.4</course>
  <speed>3.53</speed>
  <fix>3d</fix>
</trkpt>
<trkpt lat="-27.2767628" lon="151.2900334">
  <ele>442.85</ele>
  <time>2026-09-01T19:58:58Z</time>
  <course>24.85</course>
  <speed>3.374151745253909</speed>
  <fix>3d</fix>
</trkpt>
<trkpt lat="-27.2767682" lon="151.2900313">
  <ele>442.97</ele>
  <time>2026-09-01T19:58:58Z</time>
  <course>18.42</course>
  <speed>3.46</speed>
  <fix>3d</fix>
</trkpt>
<trkpt lat="-27.2767599" lon="151.2900345">
  <ele>442.85</ele>
  <time>2026-09-01T19:58:58Z</time>
  <course>24.91</course>
  <speed>3.355190009522561</speed>
  <fix>3d</fix>
</trkpt>
<trkpt lat="-27.2767682" lon="151.2900313">
  <ele>442.97</ele>
  <time>2026-09-01T19:58:58Z</time>
  <course>18.42</course>
  <speed>3.46</speed>
  <fix>3d</fix>
</trkpt>
<trkpt lat="-27.276757" lon="151.2900356">
  <ele>442.85</ele>
  <time>2026-09-01T19:58:58Z</time>
  <course>24.96</course>
  <speed>3.342528982671654</speed>
  <fix>3d</fix>
</trkpt>
<trkpt lat="-27.2767623" lon="151.2900336">
  <ele>442.96</ele>
  <time>2026-09-01T19:58:58Z</time>
  <course>18.45</course>
  <speed>3.41</speed>
  <fix>3d</fix>
</trkpt>
<trkpt lat="-27.2767541" lon="151.2900367">
  <ele>442.85</ele>
  <time>2026-09-01T19:58:58Z</time>
  <course>24.99</course>
  <speed>3.33304665433894</speed>
  <fix>3d</fix>
</trkpt>
<trkpt lat="-27.2767623" lon="151.2900336">
  <ele>442.96</ele>
  <time>2026-09-01T19:58:58Z</time>
  <course>18.45</course>
  <speed>3.41</speed>
  <fix>3d</fix>
</trkpt>
<trkpt lat="-27.2767512" lon="151.2900377">
  <ele>442.85</ele>
  <time>2026-09-01T19:58:58Z</time>
  <course>25.01</course>
  <speed>3.31409112729267</speed>
  <fix>3d</fix>
</trkpt>
<trkpt lat="-27.2767566" lon="151.2900357">
  <ele>442.96</ele>
  <time>2026-09-01T19:58:58Z</time>
  <course>18.48</course>
  <speed>3.38</speed>
  <fix>3d</fix>
</trkpt>
<trkpt lat="-27.2767484" lon="151.2900388">
  <ele>442.85</ele>
  <time>2026-09-01T19:58:58Z</time>
  <course>25.02</course>
  <speed>3.2824685832464566</speed>
  <fix>3d</fix>
</trkpt>
<trkpt lat="-27.2767566" lon="151.2900357">
  <ele>442.96</ele>
  <time>2026-09-01T19:58:58Z</time>
  <course>18.48</course>
  <speed>3.38</speed>
  <fix>3d</fix>
</trkpt>
<trkpt lat="-27.2767456" lon="151.2900399">
  <ele>442.85</ele>
  <time>2026-09-01T19:58:58Z</time>
  <course>25.03</course>
  <speed>3.2381785003300854</speed>
  <fix>3d</fix>
</trkpt>
<trkpt lat="-27.2767508" lon="151.2900379">
  <ele>442.96</ele>
  <time>2026-09-01T19:58:58Z</time>
  <course>18.52</course>
  <speed>3.34</speed>
  <fix>3d</fix>
</trkpt>
<trkpt lat="-27.2767428" lon="151.2900409">
  <ele>442.86</ele>
  <time>2026-09-01T19:58:58Z</time>
  <course>25.03</course>
  <speed>3.1781283800375335</speed>
  <fix>3d</fix>
</trkpt>
<trkpt lat="-27.2767508" lon="151.2900379">
  <ele>442.96</ele>
  <time>2026-09-01T19:58:58Z</time>
  <course>18.52</course>
  <speed>3.34</speed>
  <fix>3d</fix>
</trkpt>
<trkpt lat="-27.2767401" lon="151.2900419">
  <ele>442.86</ele>
  <time>2026-09-01T19:58:58Z</time>
  <course>25.04</course>
  <speed>3.102208890452092</speed>
  <fix>3d</fix>
</trkpt>
<trkpt lat="-27.2767452" lon="151.29004">
  <ele>442.96</ele>
  <time>2026-09-01T19:58:58Z</time>
  <course>18.56</course>
  <speed>3.26</speed>
  <fix>3d</fix>
</trkpt>
<trkpt lat="-27.2767375" lon="151.2900429">
  <ele>442.87</ele>
  <time>2026-09-01T19:58:58Z</time>
  <course>25.06</course>
  <speed>3.0200165562460084</speed>
  <fix>3d</fix>
</trkpt>
<trkpt lat="-27.2767452" lon="151.29004">
  <ele>442.96</ele>
  <time>2026-09-01T19:58:58Z</time>
  <course>18.56</course>
  <speed>3.26</speed>
  <fix>3d</fix>
</trkpt>
<trkpt lat="-27.2767349" lon="151.2900439">
  <ele>442.88</ele>
  <time>2026-09-01T19:58:58Z</time>
  <course>25.07</course>
  <speed>2.925149568825499</speed>
  <fix>3d</fix>
</trkpt>
<trkpt lat="-27.2767397" lon="151.2900421">
  <ele>442.97</ele>
  <time>2026-09-01T19:58:58Z</time>
  <course>18.58</course>
  <speed>3.14</speed>
  <fix>3d</fix>
</trkpt>
<trkpt lat="-27.2767324" lon="151.2900449">
  <ele>442.88</ele>
  <time>2026-09-01T19:58:58Z</time>
  <course>25.1</course>
  <speed>2.827083302628347</speed>
  <fix>3d</fix>
</trkpt>
<trkpt lat="-27.2767397" lon="151.2900421">
  <ele>442.97</ele>
  <time>2026-09-01T19:58:58Z</time>
  <course>18.58</course>
  <speed>3.14</speed>
  <fix>3d</fix>
</trkpt>
<trkpt lat="-27.27673" lon="151.2900458">
  <ele>442.89</ele>
  <time>2026-09-01T19:58:58Z</time>
  <course>25.13</course>
  <speed>2.7227375929384015</speed>
  <fix>3d</fix>
</trkpt>
<trkpt lat="-27.2767345" lon="151.290044">
  <ele>442.98</ele>
  <time>2026-09-01T19:58:58Z</time>
  <course>18.59</course>
  <speed>2.96</speed>
  <fix>3d</fix>
</trkpt>
<trkpt lat="-27.2767277" lon="151.2900466">
  <ele>442.9</ele>
  <time>2026-09-01T19:58:58Z</time>
  <course>25.16</course>
  <speed>2.6183964558485027</speed>
  <fix>3d</fix>
</trkpt>
<trkpt lat="-27.2767345" lon="151.290044">
  <ele>442.98</ele>
  <time>2026-09-01T19:58:58Z</time>
  <course>18.59</course>
  <speed>2.96</speed>
  <fix>3d</fix>
</trkpt>
<trkpt lat="-27.2767255" lon="151.2900475">
  <ele>442.9</ele>
  <time>2026-09-01T19:58:58Z</time>
  <course>25.19</course>
  <speed>2.5108564275959706</speed>
  <fix>3d</fix>
</trkpt>
<trkpt lat="-27.2767296" lon="151.2900459">
  <ele>442.99</ele>
  <time>2026-09-01T19:58:58Z</time>
  <course>18.57</course>
  <speed>2.76</speed>
  <fix>3d</fix>
</trkpt>
<trkpt lat="-27.2767234" lon="151.2900483">
  <ele>442.91</ele>
  <time>2026-09-01T19:58:58Z</time>
  <course>25.23</course>
  <speed>2.4065119987234636</speed>
  <fix>3d</fix>
</trkpt>
<trkpt lat="-27.2767296" lon="151.2900459">
  <ele>442.99</ele>
  <time>2026-09-01T19:58:58Z</time>
  <course>18.57</course>
  <speed>2.76</speed>
  <fix>3d</fix>
</trkpt>
<trkpt lat="-27.2767214" lon="151.290049">
  <ele>442.91</ele>
  <time>2026-09-01T19:58:58Z</time>
  <course>25.26</course>
  <speed>2.298978033822855</speed>
  <fix>3d</fix>
</trkpt>
<trkpt lat="-27.2767251" lon="151.2900476">
  <ele>443.0</ele>
  <time>2026-09-01T19:58:58Z</time>
  <course>18.54</course>
  <speed>2.55</speed>
  <fix>3d</fix>
</trkpt>
<trkpt lat="-27.2767194" lon="151.2900498">
  <ele>442.91</ele>
  <time>2026-09-01T19:58:58Z</time>
  <course>25.3</course>
  <speed>2.194629809330038</speed>
  <fix>3d</fix>
</trkpt>
<trkpt lat="-27.2767251" lon="151.2900476">
  <ele>443.0</ele>
  <time>2026-09-01T19:58:58Z</time>
  <course>18.54</course>
  <speed>2.55</speed>
  <fix>3d</fix>
</trkpt>
<trkpt lat="-27.2767175" lon="151.2900505">
  <ele>442.9</ele>
  <time>2026-09-01T19:58:58Z</time>
  <course>25.34</course>
  <speed>2.090287061625747</speed>
  <fix>3d</fix>
</trkpt>
<trkpt lat="-27.276721" lon="151.2900492">
  <ele>443.0</ele>
  <time>2026-09-01T19:58:58Z</time>
  <course>18.51</course>
  <speed>2.33</speed>
  <fix>3d</fix>
</trkpt>
<trkpt lat="-27.2767158" lon="151.2900511">
  <ele>442.9</ele>
  <time>2026-09-01T19:58:58Z</time>
  <course>25.38</course>
  <speed>1.9827506146764904</speed>
  <fix>3d</fix>
</trkpt>
<trkpt lat="-27.276721" lon="151.2900492">
  <ele>443.0</ele>
  <time>2026-09-01T19:58:58Z</time>
  <course>18.51</course>
  <speed>2.33</speed>
  <fix>3d</fix>
</trkpt>
<trkpt lat="-27.2767141" lon="151.2900518">
  <ele>442.89</ele>
  <time>2026-09-01T19:58:58Z</time>
  <course>25.41</course>
  <speed>1.8878824115924169</speed>
  <fix>3d</fix>
</trkpt>
<trkpt lat="-27.2767172" lon="151.2900506">
  <ele>442.99</ele>
  <time>2026-09-01T19:58:58Z</time>
  <course>18.48</course>
  <speed>2.13</speed>
  <fix>3d</fix>
</trkpt>
<trkpt lat="-27.2767125" lon="151.2900524">
  <ele>442.89</ele>
  <time>2026-09-01T19:58:58Z</time>
  <course>25.43</course>
  <speed>1.7930142219179412</speed>
  <fix>3d</fix>
</trkpt>
<trkpt lat="-27.2767172" lon="151.2900506">
  <ele>442.99</ele>
  <time>2026-09-01T19:58:58Z</time>
  <course>18.48</course>
  <speed>2.13</speed>
  <fix>3d</fix>
</trkpt>
<trkpt lat="-27.276711" lon="151.2900529">
  <ele>442.88</ele>
  <time>2026-09-01T19:58:58Z</time>
  <course>25.46</course>
  <speed>1.6981460479004744</speed>
  <fix>3d</fix>
</trkpt>
<trkpt lat="-27.2767137" lon="151.2900519">
  <ele>442.98</ele>
  <time>2026-09-01T19:58:58Z</time>
  <course>18.45</course>
  <speed>1.93</speed>
  <fix>3d</fix>
</trkpt>
<trkpt lat="-27.2767095" lon="151.2900535">
  <ele>442.88</ele>
  <time>2026-09-01T19:58:58Z</time>
  <course>25.48</course>
  <speed>1.603277892319357</speed>
  <fix>3d</fix>
</trkpt>
<trkpt lat="-27.2767137" lon="151.2900519">
  <ele>442.98</ele>
  <time>2026-09-01T19:58:58Z</time>
  <course>18.45</course>
  <speed>1.93</speed>
  <fix>3d</fix>
</trkpt>
<trkpt lat="-27.2767082" lon="151.290054">
  <ele>442.87</ele>
  <time>2026-09-01T19:58:58Z</time>
  <course>25.49</course>
  <speed>1.5178932768808222</speed>
  <fix>3d</fix>
</trkpt>
<trkpt lat="-27.2767106" lon="151.2900531">
  <ele>442.97</ele>
  <time>2026-09-01T19:58:58Z</time>
  <course>18.4</course>
  <speed>1.73</speed>
  <fix>3d</fix>
</trkpt>
<trkpt lat="-27.2767069" lon="151.2900545">
  <ele>442.87</ele>
  <time>2026-09-01T19:58:58Z</time>
  <course>25.51</course>
  <speed>1.4230249470757708</speed>
  <fix>3d</fix>
</trkpt>
<trkpt lat="-27.2767106" lon="151.2900531">
  <ele>442.97</ele>
  <time>2026-09-01T19:58:58Z</time>
  <course>18.4</course>
  <speed>1.73</speed>
  <fix>3d</fix>
</trkpt>
<trkpt lat="-27.2767057" lon="151.2900549">
  <ele>442.87</ele>
  <time>2026-09-01T19:58:58Z</time>
  <course>25.52</course>
  <speed>1.3502962637880622</speed>
  <fix>3d</fix>
</trkpt>
<trkpt lat="-27.2767077" lon="151.2900541">
  <ele>442.96</ele>
  <time>2026-09-01T19:58:58Z</time>
  <course>18.35</course>
  <speed>1.55</speed>
  <fix>3d</fix>
</trkpt>
<trkpt lat="-27.2767045" lon="151.2900554">
  <ele>442.86</ele>
  <time>2026-09-01T19:58:58Z</time>
  <course>25.54</course>
  <speed>1.2649110640673518</speed>
  <fix>3d</fix>
</trkpt>
<trkpt lat="-27.2767077" lon="151.2900541">
  <ele>442.96</ele>
  <time>2026-09-01T19:58:58Z</time>
  <course>18.35</course>
  <speed>1.55</speed>
  <fix>3d</fix>
</trkpt>
<trkpt lat="-27.2767034" lon="151.2900558">
  <ele>442.86</ele>
  <time>2026-09-01T19:58:58Z</time>
  <course>25.55</course>
  <speed>1.1795338062132852</speed>
  <fix>3d</fix>
</trkpt>
<trkpt lat="-27.2767053" lon="151.2900551">
  <ele>442.95</ele>
  <time>2026-09-01T19:58:58Z</time>
  <course>18.28</course>
  <speed>1.38</speed>
  <fix>3d</fix>
</trkpt>
<trkpt lat="-27.2767024" lon="151.2900561">
  <ele>442.86</ele>
  <time>2026-09-01T19:58:58Z</time>
  <course>25.56</course>
  <speed>1.1067971810589328</speed>
  <fix>3d</fix>
</trkpt>
<trkpt lat="-27.2767053" lon="151.2900551">
  <ele>442.95</ele>
  <time>2026-09-01T19:58:58Z</time>
  <course>18.28</course>
  <speed>1.38</speed>
  <fix>3d</fix>
</trkpt>
<trkpt lat="-27.2767015" lon="151.2900565">
  <ele>442.86</ele>
  <time>2026-09-01T19:58:58Z</time>
  <course>25.57</course>
  <speed>1.0435516278555652</speed>
  <fix>3d</fix>
</trkpt>
<trkpt lat="-27.276703" lon="151.2900559">
  <ele>442.95</ele>
  <time>2026-09-01T19:58:58Z</time>
  <course>18.2</course>
  <speed>1.22</speed>
  <fix>3d</fix>
</trkpt>
<trkpt lat="-27.2767006" lon="151.2900568">
  <ele>442.86</ele>
  <time>2026-09-01T19:58:58Z</time>
  <course>25.58</course>
  <speed>0.97082439194738</speed>
  <fix>3d</fix>
</trkpt>
<trkpt lat="-27.276703" lon="151.2900559">
  <ele>442.95</ele>
  <time>2026-09-01T19:58:58Z</time>
  <course>18.2</course>
  <speed>1.22</speed>
  <fix>3d</fix>
</trkpt>
<trkpt lat="-27.2766997" lon="151.2900571">
  <ele>442.86</ele>
  <time>2026-09-01T19:58:58Z</time>
  <course>25.59</course>
  <speed>0.9075791976461338</speed>
  <fix>3d</fix>
</trkpt>
<trkpt lat="-27.2767011" lon="151.2900566">
  <ele>442.95</ele>
  <time>2026-09-01T19:58:58Z</time>
  <course>18.13</course>
  <speed>1.07</speed>
  <fix>3d</fix>
</trkpt>
<trkpt lat="-27.2766989" lon="151.2900574">
  <ele>442.86</ele>
  <time>2026-09-01T19:58:58Z</time>
  <course>25.6</course>
  <speed>0.8443340571124678</speed>
  <fix>3d</fix>
</trkpt>
<trkpt lat="-27.2767011" lon="151.2900566">
  <ele>442.95</ele>
  <time>2026-09-01T19:58:58Z</time>
  <course>18.13</course>
  <speed>1.07</speed>
  <fix>3d</fix>
</trkpt>
<trkpt lat="-27.2766982" lon="151.2900577">
  <ele>442.87</ele>
  <time>2026-09-01T19:58:58Z</time>
  <course>25.61</course>
  <speed>0.7905694150420949</speed>
  <fix>3d</fix>
</trkpt>
<trkpt lat="-27.2766994" lon="151.2900573">
  <ele>442.95</ele>
  <time>2026-09-01T19:58:58Z</time>
  <course>18.11</course>
  <speed>0.94</speed>
  <fix>3d</fix>
</trkpt>
<trkpt lat="-27.2766975" lon="151.290058">
  <ele>442.87</ele>
  <time>2026-09-01T19:58:58Z</time>
  <course>25.61</course>
  <speed>0.7368174807915459</speed>
  <fix>3d</fix>
</trkpt>
<trkpt lat="-27.2766994" lon="151.2900573">
  <ele>442.95</ele>
  <time>2026-09-01T19:58:58Z</time>
  <course>18.11</course>
  <speed>0.94</speed>
  <fix>3d</fix>
</trkpt>
<trkpt lat="-27.2766969" lon="151.2900582">
  <ele>442.87</ele>
  <time>2026-09-01T19:58:58Z</time>
  <course>25.61</course>
  <speed>0.6862215385719105</speed>
  <fix>3d</fix>
</trkpt>
<trkpt lat="-27.2766979" lon="151.2900578">
  <ele>442.95</ele>
  <time>2026-09-01T19:58:58Z</time>
  <course>18.12</course>
  <speed>0.82</speed>
  <fix>3d</fix>
</trkpt>
<trkpt lat="-27.2766963" lon="151.2900584">
  <ele>442.87</ele>
  <time>2026-09-01T19:58:58Z</time>
  <course>25.61</course>
  <speed>0.6324555320336759</speed>
  <fix>3d</fix>
</trkpt>
<trkpt lat="-27.2766979" lon="151.2900578">
  <ele>442.95</ele>
  <time>2026-09-01T19:58:58Z</time>
  <course>18.12</course>
  <speed>0.82</speed>
  <fix>3d</fix>
</trkpt>
<trkpt lat="-27.2766957" lon="151.2900586">
  <ele>442.87</ele>
  <time>2026-09-01T19:58:58Z</time>
  <course>25.6</course>
  <speed>0.5913543776789008</speed>
  <fix>3d</fix>
</trkpt>
<trkpt lat="-27.2766965" lon="151.2900583">
  <ele>442.95</ele>
  <time>2026-09-01T19:58:58Z</time>
  <course>18.12</course>
  <speed>0.72</speed>
  <fix>3d</fix>
</trkpt>
<trkpt lat="-27.2766952" lon="151.2900588">
  <ele>442.88</ele>
  <time>2026-09-01T19:58:58Z</time>
  <course>25.59</course>
  <speed>0.5502726596879042</speed>
  <fix>3d</fix>
</trkpt>
<trkpt lat="-27.2766965" lon="151.2900583">
  <ele>442.95</ele>
  <time>2026-09-01T19:58:58Z</time>
  <course>18.12</course>
  <speed>0.72</speed>
  <fix>3d</fix>
</trkpt>
<trkpt lat="-27.2766947" lon="151.290059">
  <ele>442.88</ele>
  <time>2026-09-01T19:58:58Z</time>
  <course>25.58</course>
  <speed>0.5186520991955976</speed>
  <fix>3d</fix>
</trkpt>
<trkpt lat="-27.2766954" lon="151.2900586">
  <ele>442.96</ele>
  <time>2026-09-01T19:58:58Z</time>
  <course>18.1</course>
  <speed>0.62</speed>
  <fix>3d</fix>
</trkpt>
<trkpt lat="-27.2766943" lon="151.2900592">
  <ele>442.88</ele>
  <time>2026-09-01T19:58:58Z</time>
  <course>25.59</course>
  <speed>0.4743416490252569</speed>
  <fix>3d</fix>
</trkpt>
<trkpt lat="-27.2766954" lon="151.2900586">
  <ele>442.96</ele>
  <time>2026-09-01T19:58:58Z</time>
  <course>18.1</course>
  <speed>0.62</speed>
  <fix>3d</fix>
</trkpt>
<trkpt lat="-27.2766938" lon="151.2900593">
  <ele>442.88</ele>
  <time>2026-09-01T19:58:58Z</time>
  <course>25.59</course>
  <speed>0.4459820624195552</speed>
  <fix>3d</fix>
</trkpt>
<trkpt lat="-27.2766943" lon="151.2900591">
  <ele>442.96</ele>
  <time>2026-09-01T19:58:58Z</time>
  <course>18.08</course>
  <speed>0.54</speed>
  <fix>3d</fix>
</trkpt>
<trkpt lat="-27.2766934" lon="151.2900595">
  <ele>442.89</ele>
  <time>2026-09-01T19:58:58Z</time>
  <course>25.59</course>
  <speed>0.4143669871020132</speed>
  <fix>3d</fix>
</trkpt>
<trkpt lat="-27.2766943" lon="151.2900591">
  <ele>442.96</ele>
  <time>2026-09-01T19:58:58Z</time>
  <course>18.08</course>
  <speed>0.54</speed>
  <fix>3d</fix>
</trkpt>
<trkpt lat="-27.2766931" lon="151.2900596">
  <ele>442.89</ele>
  <time>2026-09-01T19:58:58Z</time>
  <course>25.59</course>
  <speed>0.3921734310225516</speed>
  <fix>3d</fix>
</trkpt>
<trkpt lat="-27.2766935" lon="151.2900594">
  <ele>442.96</ele>
  <time>2026-09-01T19:58:58Z</time>
  <course>18.17</course>
  <speed>0.47</speed>
  <fix>3d</fix>
</trkpt>
<trkpt lat="-27.2766927" lon="151.2900597">
  <ele>442.89</ele>
  <time>2026-09-01T19:58:58Z</time>
  <course>25.59</course>
  <speed>0.3605551275463989</speed>
  <fix>3d</fix>
</trkpt>
<trkpt lat="-27.2766935" lon="151.2900594">
  <ele>442.96</ele>
  <time>2026-09-01T19:58:58Z</time>
  <course>18.17</course>
  <speed>0.47</speed>
  <fix>3d</fix>
</trkpt>
<trkpt lat="-27.2766924" lon="151.2900599">
  <ele>442.89</ele>
  <time>2026-09-01T19:58:58Z</time>
  <course>25.58</course>
  <speed>0.3417601498127012</speed>
  <fix>3d</fix>
</trkpt>
<trkpt lat="-27.2766927" lon="151.2900597">
  <ele>442.97</ele>
  <time>2026-09-01T19:58:58Z</time>
  <course>18.43</course>
  <speed>0.42</speed>
  <fix>3d</fix>
</trkpt>
<trkpt lat="-27.2766921" lon="151.29006">
  <ele>442.89</ele>
  <time>2026-09-01T19:58:58Z</time>
  <course>25.58</course>
  <speed>0.3195309061734092</speed>
  <fix>3d</fix>
</trkpt>
<trkpt lat="-27.2766927" lon="151.2900597">
  <ele>442.97</ele>
  <time>2026-09-01T19:58:58Z</time>
  <course>18.43</course>
  <speed>0.42</speed>
  <fix>3d</fix>
</trkpt>
<trkpt lat="-27.2766918" lon="151.2900601">
  <ele>442.89</ele>
  <time>2026-09-01T19:58:58Z</time>
  <course>25.57</course>
  <speed>0.3101612483854165</speed>
  <fix>3d</fix>
</trkpt>
<trkpt lat="-27.2766921" lon="151.2900599">
  <ele>442.97</ele>
  <time>2026-09-01T19:58:58Z</time>
  <course>18.82</course>
  <speed>0.37</speed>
  <fix>3d</fix>
</trkpt>
<trkpt lat="-27.2766915" lon="151.2900602">
  <ele>442.89</ele>
  <time>2026-09-01T19:58:58Z</time>
  <course>25.57</course>
  <speed>0.2879236009777594</speed>
  <fix>3d</fix>
</trkpt>
<trkpt lat="-27.2766921" lon="151.2900599">
  <ele>442.97</ele>
  <time>2026-09-01T19:58:58Z</time>
  <course>18.82</course>
  <speed>0.37</speed>
  <fix>3d</fix>
</trkpt>
<trkpt lat="-27.2766912" lon="151.2900603">
  <ele>442.89</ele>
  <time>2026-09-01T19:58:58Z</time>
  <course>25.56</course>
  <speed>0.2692582403567252</speed>
  <fix>3d</fix>
</trkpt>
<trkpt lat="-27.2766915" lon="151.2900602">
  <ele>442.97</ele>
  <time>2026-09-01T19:58:58Z</time>
  <course>19.3</course>
  <speed>0.33</speed>
  <fix>3d</fix>
</trkpt>
<trkpt lat="-27.276691" lon="151.2900604">
  <ele>442.89</ele>
  <time>2026-09-01T19:58:58Z</time>
  <course>25.55</course>
  <speed>0.26</speed>
  <fix>3d</fix>
</trkpt>
<trkpt lat="-27.2766915" lon="151.2900602">
  <ele>442.97</ele>
  <time>2026-09-01T19:58:58Z</time>
  <course>19.3</course>
  <speed>0.33</speed>
  <fix>3d</fix>
</trkpt>
<trkpt lat="-27.2766907" lon="151.2900605">
  <ele>442.89</ele>
  <time>2026-09-01T19:58:58Z</time>
  <course>25.55</course>
  <speed>0.25079872407968906</speed>
  <fix>3d</fix>
</trkpt>
<trkpt lat="-27.2766909" lon="151.2900603">
  <ele>442.97</ele>
  <time>2026-09-01T19:58:58Z</time>
  <course>19.87</course>
  <speed>0.3</speed>
  <fix>3d</fix>
</trkpt>
<trkpt lat="-27.2766905" lon="151.2900606">
  <ele>442.89</ele>
  <time>2026-09-01T19:58:58Z</time>
  <course>25.54</course>
  <speed>0.23769728648009425</speed>
  <fix>3d</fix>
</trkpt>
<trkpt lat="-27.2766909" lon="151.2900603">
  <ele>442.97</ele>
  <time>2026-09-01T19:58:58Z</time>
  <course>19.87</course>
  <speed>0.3</speed>
  <fix>3d</fix>
</trkpt>
<trkpt lat="-27.2766903" lon="151.2900607">
  <ele>442.89</ele>
  <time>2026-09-01T19:58:58Z</time>
  <course>25.54</course>
  <speed>0.22847319317591727</speed>
  <fix>3d</fix>
</trkpt>
<trkpt lat="-27.2766904" lon="151.2900606">
  <ele>442.97</ele>
  <time>2026-09-01T19:58:58Z</time>
  <course>20.51</course>
  <speed>0.27</speed>
  <fix>3d</fix>
</trkpt>
<trkpt lat="-27.2766901" lon="151.2900608">
  <ele>442.89</ele>
  <time>2026-09-01T19:58:58Z</time>
  <course>25.53</course>
  <speed>0.2193171219946131</speed>
  <fix>3d</fix>
</trkpt>
<trkpt lat="-27.2766904" lon="151.2900606">
  <ele>442.97</ele>
  <time>2026-09-01T19:58:58Z</time>
  <course>20.51</course>
  <speed>0.27</speed>
  <fix>3d</fix>
</trkpt>
<trkpt lat="-27.2766898" lon="151.2900609">
  <ele>442.89</ele>
  <time>2026-09-01T19:58:58Z</time>
  <course>25.53</course>
  <speed>0.2193171219946131</speed>
  <fix>3d</fix>
</trkpt>
<trkpt lat="-27.27669" lon="151.2900608">
  <ele>442.97</ele>
  <time>2026-09-01T19:58:58Z</time>
  <course>21.19</course>
  <speed>0.26</speed>
  <fix>3d</fix>
</trkpt>
<trkpt lat="-27.2766896" lon="151.290061">
  <ele>442.88</ele>
  <time>2026-09-01T19:58:58Z</time>
  <course>25.53</course>
  <speed>0.2102379604162864</speed>
  <fix>3d</fix>
</trkpt>
<trkpt lat="-27.27669" lon="151.2900608">
  <ele>442.97</ele>
  <time>2026-09-01T19:58:58Z</time>
  <course>21.19</course>
  <speed>0.26</speed>
  <fix>3d</fix>
</trkpt>
<trkpt lat="-27.2766894" lon="151.2900611">
  <ele>442.88</ele>
  <time>2026-09-01T19:58:58Z</time>
  <course>25.52</course>
  <speed>0.20124611797498107</speed>
  <fix>3d</fix>
</trkpt>
<trkpt lat="-27.2766896" lon="151.2900609">
  <ele>442.97</ele>
  <time>2026-09-01T19:58:58Z</time>
  <course>21.9</course>
  <speed>0.24</speed>
  <fix>3d</fix>
</trkpt>
<trkpt lat="-27.2766893" lon="151.2900612">
  <ele>442.89</ele>
  <time>2026-09-01T19:58:58Z</time>
  <course>25.52</course>
  <speed>0.20124611797498107</speed>
  <fix>3d</fix>
</trkpt>
<trkpt lat="-27.2766896" lon="151.2900609">
  <ele>442.97</ele>
  <time>2026-09-01T19:58:58Z</time>
  <course>21.9</course>
  <speed>0.24</speed>
  <fix>3d</fix>
</trkpt>
<trkpt lat="-27.2766891" lon="151.2900613">
  <ele>442.89</ele>
  <time>2026-09-01T19:58:58Z</time>
  <course>25.51</course>
  <speed>0.20124611797498107</speed>
  <fix>3d</fix>
</trkpt>
<trkpt lat="-27.2766892" lon="151.2900612">
  <ele>442.97</ele>
  <time>2026-09-01T19:58:58Z</time>
  <course>22.59</course>
  <speed>0.23</speed>
  <fix>3d</fix>
</trkpt>
<trkpt lat="-27.2766889" lon="151.2900614">
  <ele>442.89</ele>
  <time>2026-09-01T19:58:58Z</time>
  <course>25.51</course>
  <speed>0.19235384061671343</speed>
  <fix>3d</fix>
</trkpt>
<trkpt lat="-27.2766892" lon="151.2900612">
  <ele>442.97</ele>
  <time>2026-09-01T19:58:58Z</time>
  <course>22.59</course>
  <speed>0.23</speed>
  <fix>3d</fix>
</trkpt>
<trkpt lat="-27.2766887" lon="151.2900615">
  <ele>442.89</ele>
  <time>2026-09-01T19:58:58Z</time>
  <course>25.5</course>
  <speed>0.19235384061671343</speed>
  <fix>3d</fix>
</trkpt>
<trkpt lat="-27.2766888" lon="151.2900614">
  <ele>442.97</ele>
  <time>2026-09-01T19:58:58Z</time>
  <course>23.21</course>
  <speed>0.22</speed>
  <fix>3d</fix>
</trkpt>
<trkpt lat="-27.2766885" lon="151.2900616">
  <ele>442.89</ele>
  <time>2026-09-01T19:58:58Z</time>
  <course>25.5</course>
  <speed>0.19235384061671343</speed>
  <fix>3d</fix>
</trkpt>
<trkpt lat="-27.2766888" lon="151.2900614">
  <ele>442.97</ele>
  <time>2026-09-01T19:58:58Z</time>
  <course>23.21</course>
  <speed>0.22</speed>
  <fix>3d</fix>
</trkpt>
<trkpt lat="-27.2766883" lon="151.2900617">
  <ele>442.89</ele>
  <time>2026-09-01T19:58:58Z</time>
  <course>25.5</course>
  <speed>0.19235384061671343</speed>
  <fix>3d</fix>
</trkpt>
<trkpt lat="-27.2766884" lon="151.2900615">
  <ele>442.97</ele>
  <time>2026-09-01T19:58:58Z</time>
  <course>23.8</course>
  <speed>0.22</speed>
  <fix>3d</fix>
</trkpt>
<trkpt lat="-27.2766882" lon="151.2900618">
  <ele>442.89</ele>
  <time>2026-09-01T19:58:58Z</time>
  <course>25.49</course>
  <speed>0.19235384061671343</speed>
  <fix>3d</fix>
</trkpt>
<trkpt lat="-27.2766884" lon="151.2900615">
  <ele>442.97</ele>
  <time>2026-09-01T19:58:58Z</time>
  <course>23.8</course>
  <speed>0.22</speed>
  <fix>3d</fix>
</trkpt>
<trkpt lat="-27.276688" lon="151.2900618">
  <ele>442.89</ele>
  <time>2026-09-01T19:58:58Z</time>
  <course>25.49</course>
  <speed>0.1835755975068582</speed>
  <fix>3d</fix>
</trkpt>
<trkpt lat="-27.276688" lon="151.2900617">
  <ele>442.97</ele>
  <time>2026-09-01T19:58:58Z</time>
  <course>24.32</course>
  <speed>0.21</speed>
  <fix>3d</fix>
</trkpt>
<trkpt lat="-27.2766878" lon="151.2900619">
  <ele>442.89</ele>
  <time>2026-09-01T19:58:58Z</time>
  <course>25.48</course>
  <speed>0.1835755975068582</speed>
  <fix>3d</fix>
</trkpt>
<trkpt lat="-27.276688" lon="151.2900617">
  <ele>442.97</ele>
  <time>2026-09-01T19:58:58Z</time>
  <course>24.32</course>
  <speed>0.21</speed>
  <fix>3d</fix>
</trkpt>
<trkpt lat="-27.2766876" lon="151.290062">
  <ele>442.89</ele>
  <time>2026-09-01T19:58:58Z</time>
  <course>25.48</course>
  <speed>0.1835755975068582</speed>
  <fix>3d</fix>
</trkpt>
<trkpt lat="-27.2766876" lon="151.2900619">
  <ele>442.97</ele>
  <time>2026-09-01T19:58:58Z</time>
  <course>24.73</course>
  <speed>0.21</speed>
  <fix>3d</fix>
</trkpt>
<trkpt lat="-27.2766875" lon="151.2900621">
  <ele>442.89</ele>
  <time>2026-09-01T19:58:58Z</time>
  <course>25.47</course>
  <speed>0.1835755975068582</speed>
  <fix>3d</fix>
</trkpt>
<trkpt lat="-27.2766876" lon="151.2900619">
  <ele>442.97</ele>
  <time>2026-09-01T19:58:58Z</time>
  <course>24.73</course>
  <speed>0.21</speed>
  <fix>3d</fix>
</trkpt>
<trkpt lat="-27.2766873" lon="151.2900622">
  <ele>442.89</ele>
  <time>2026-09-01T19:58:58Z</time>
  <course>25.46</course>
  <speed>0.1835755975068582</speed>
  <fix>3d</fix>
</trkpt>
<trkpt lat="-27.2766873" lon="151.2900621">
  <ele>442.97</ele>
  <time>2026-09-01T19:58:58Z</time>
  <course>25.03</course>
  <speed>0.21</speed>
  <fix>3d</fix>
</trkpt>
<trkpt lat="-27.2766871" lon="151.2900623">
  <ele>442.89</ele>
  <time>2026-09-01T19:58:58Z</time>
  <course>25.45</course>
  <speed>0.1835755975068582</speed>
  <fix>3d</fix>
</trkpt>
<trkpt lat="-27.2766873" lon="151.2900621">
  <ele>442.97</ele>
  <time>2026-09-01T19:58:58Z</time>
  <course>25.03</course>
  <speed>0.21</speed>
  <fix>3d</fix>
</trkpt>
<trkpt lat="-27.2766869" lon="151.2900624">
  <ele>442.89</ele>
  <time>2026-09-01T19:58:58Z</time>
  <course>25.45</course>
  <speed>0.1835755975068582</speed>
  <fix>3d</fix>
</trkpt>
<trkpt lat="-27.276687" lon="151.2900623">
  <ele>442.97</ele>
  <time>2026-09-01T19:58:58Z</time>
  <course>25.31</course>
  <speed>0.21</speed>
  <fix>3d</fix>
</trkpt>
<trkpt lat="-27.2766868" lon="151.2900625">
  <ele>442.89</ele>
  <time>2026-09-01T19:58:58Z</time>
  <course>25.45</course>
  <speed>0.17492855684535902</speed>
  <fix>3d</fix>
</trkpt>
<trkpt lat="-27.276687" lon="151.2900623">
  <ele>442.97</ele>
  <time>2026-09-01T19:58:58Z</time>
  <course>25.31</course>
  <speed>0.21</speed>
  <fix>3d</fix>
</trkpt>
<trkpt lat="-27.2766866" lon="151.2900626">
  <ele>442.89</ele>
  <time>2026-09-01T19:58:58Z</time>
  <course>25.45</course>
  <speed>0.17492855684535902</speed>
  <fix>3d</fix>
</trkpt>
<trkpt lat="-27.2766866" lon="151.2900624">
  <ele>442.97</ele>
  <time>2026-09-01T19:58:58Z</time>
  <course>25.6</course>
  <speed>0.2</speed>
  <fix>3d</fix>
</trkpt>
<trkpt lat="-27.2766864" lon="151.2900627">
  <ele>442.89</ele>
  <time>2026-09-01T19:58:58Z</time>
  <course>25.45</course>
  <speed>0.17492855684535902</speed>
  <fix>3d</fix>
</trkpt>
<trkpt lat="-27.2766866" lon="151.2900624">
  <ele>442.97</ele>
  <time>2026-09-01T19:58:58Z</time>
  <course>25.6</course>
  <speed>0.2</speed>
  <fix>3d</fix>
</trkpt>
<trkpt lat="-27.2766863" lon="151.2900628">
  <ele>442.89</ele>
  <time>2026-09-01T19:58:58Z</time>
  <course>25.45</course>
  <speed>0.17</speed>
  <fix>3d</fix>
</trkpt>
<trkpt lat="-27.2766863" lon="151.2900626">
  <ele>442.97</ele>
  <time>2026-09-01T19:58:58Z</time>
  <course>25.78</course>
  <speed>0.2</speed>
  <fix>3d</fix>
</trkpt>
<trkpt lat="-27.2766861" lon="151.2900628">
  <ele>442.89</ele>
  <time>2026-09-01T19:58:58Z</time>
  <course>25.45</course>
  <speed>0.16124515496597097</speed>
  <fix>3d</fix>
</trkpt>
<trkpt lat="-27.2766863" lon="151.2900626">
  <ele>442.97</ele>
  <time>2026-09-01T19:58:58Z</time>
  <course>25.78</course>
  <speed>0.2</speed>
  <fix>3d</fix>
</trkpt>
<trkpt lat="-27.2766859" lon="151.2900629">
  <ele>442.89</ele>
  <time>2026-09-01T19:58:58Z</time>
  <course>25.45</course>
  <speed>0.16124515496597097</speed>
  <fix>3d</fix>
</trkpt>
<trkpt lat="-27.2766859" lon="151.2900627">
  <ele>442.96</ele>
  <time>2026-09-01T19:58:58Z</time>
  <course>25.73</course>
  <speed>0.19</speed>
  <fix>3d</fix>
</trkpt>
<trkpt lat="-27.2766858" lon="151.290063">
  <ele>442.89</ele>
  <time>2026-09-01T19:58:58Z</time>
  <course>25.45</course>
  <speed>0.16124515496597097</speed>
  <fix>3d</fix>
</trkpt>
<trkpt lat="-27.2766859" lon="151.2900627">
  <ele>442.96</ele>
  <time>2026-09-01T19:58:58Z</time>
  <course>25.73</course>
  <speed>0.19</speed>
  <fix>3d</fix>
</trkpt>
<trkpt lat="-27.2766856" lon="151.2900631">
  <ele>442.89</ele>
  <time>2026-09-01T19:58:58Z</time>
  <course>25.45</course>
  <speed>0.16124515496597097</speed>
  <fix>3d</fix>
</trkpt>
<trkpt lat="-27.2766856" lon="151.2900629">
  <ele>442.96</ele>
  <time>2026-09-01T19:58:58Z</time>
  <course>25.43</course>
  <speed>0.19</speed>
  <fix>3d</fix>
</trkpt>
<trkpt lat="-27.2766855" lon="151.2900632">
  <ele>442.89</ele>
  <time>2026-09-01T19:58:58Z</time>
  <course>25.45</course>
  <speed>0.147648230602334</speed>
  <fix>3d</fix>
</trkpt>
<trkpt lat="-27.2766856" lon="151.2900629">
  <ele>442.96</ele>
  <time>2026-09-01T19:58:58Z</time>
  <course>25.43</course>
  <speed>0.19</speed>
  <fix>3d</fix>
</trkpt>
<trkpt lat="-27.2766853" lon="151.2900632">
  <ele>442.89</ele>
  <time>2026-09-01T19:58:58Z</time>
  <course>25.45</course>
  <speed>0.147648230602334</speed>
  <fix>3d</fix>
</trkpt>
<trkpt lat="-27.2766853" lon="151.2900631">
  <ele>442.96</ele>
  <time>2026-09-01T19:58:58Z</time>
  <course>25.12</course>
  <speed>0.18</speed>
  <fix>3d</fix>
</trkpt>
<trkpt lat="-27.2766852" lon="151.2900633">
  <ele>442.89</ele>
  <time>2026-09-01T19:58:58Z</time>
  <course>25.45</course>
  <speed>0.147648230602334</speed>
  <fix>3d</fix>
</trkpt>
<trkpt lat="-27.2766853" lon="151.2900631">
  <ele>442.96</ele>
  <time>2026-09-01T19:58:58Z</time>
  <course>25.12</course>
  <speed>0.18</speed>
  <fix>3d</fix>
</trkpt>
<trkpt lat="-27.276685" lon="151.2900634">
  <ele>442.9</ele>
  <time>2026-09-01T19:58:58Z</time>
  <course>25.44</course>
  <speed>0.13892443989449804</speed>
  <fix>3d</fix>
</trkpt>
<trkpt lat="-27.276685" lon="151.2900632">
  <ele>442.96</ele>
  <time>2026-09-01T19:58:58Z</time>
  <course>25.06</course>
  <speed>0.18</speed>
  <fix>3d</fix>
</trkpt>
<trkpt lat="-27.2766849" lon="151.2900634">
  <ele>442.9</ele>
  <time>2026-09-01T19:58:58Z</time>
  <course>25.44</course>
  <speed>0.13892443989449804</speed>
  <fix>3d</fix>
</trkpt>
<trkpt lat="-27.276685" lon="151.2900632">
  <ele>442.96</ele>
  <time>2026-09-01T19:58:58Z</time>
  <course>25.06</course>
  <speed>0.18</speed>
  <fix>3d</fix>
</trkpt>
<trkpt lat="-27.2766848" lon="151.2900635">
  <ele>442.9</ele>
  <time>2026-09-01T19:58:58Z</time>
  <course>25.44</course>
  <speed>0.12529964086141668</speed>
  <fix>3d</fix>
</trkpt>
<trkpt lat="-27.2766847" lon="151.2900634">
  <ele>442.96</ele>
  <time>2026-09-01T19:58:58Z</time>
  <course>25.27</course>
  <speed>0.17</speed>
  <fix>3d</fix>
</trkpt>
<trkpt lat="-27.2766846" lon="151.2900636">
  <ele>442.89</ele>
  <time>2026-09-01T19:58:58Z</time>
  <course>25.44</course>
  <speed>0.12529964086141668</speed>
  <fix>3d</fix>
</trkpt>
<trkpt lat="-27.2766847" lon="151.2900634">
  <ele>442.96</ele>
  <time>2026-09-01T19:58:58Z</time>
  <course>25.27</course>
  <speed>0.17</speed>
  <fix>3d</fix>
</trkpt>
<trkpt lat="-27.2766845" lon="151.2900636">
  <ele>442.89</ele>
  <time>2026-09-01T19:58:58Z</time>
  <course>25.44</course>
  <speed>0.11661903789690602</speed>
  <fix>3d</fix>
</trkpt>
<trkpt lat="-27.2766845" lon="151.2900636">
  <ele>442.96</ele>
  <time>2026-09-01T19:58:58Z</time>
  <course>25.51</course>
  <speed>0.16</speed>
  <fix>3d</fix>
</trkpt>
<trkpt lat="-27.2766844" lon="151.2900637">
  <ele>442.89</ele>
  <time>2026-09-01T19:58:58Z</time>
  <course>25.43</course>
  <speed>0.10816653826391968</speed>
  <fix>3d</fix>
</trkpt>
<trkpt lat="-27.2766845" lon="151.2900636">
  <ele>442.96</ele>
  <time>2026-09-01T19:58:58Z</time>
  <course>25.51</course>
  <speed>0.16</speed>
  <fix>3d</fix>
</trkpt>
<trkpt lat="-27.2766843" lon="151.2900637">
  <ele>442.89</ele>
  <time>2026-09-01T19:58:58Z</time>
  <course>25.43</course>
  <speed>0.09433981132056603</speed>
  <fix>3d</fix>
</trkpt>
<trkpt lat="-27.2766842" lon="151.2900637">
  <ele>442.95</ele>
  <time>2026-09-01T19:58:58Z</time>
  <course>25.67</course>
  <speed>0.14</speed>
  <fix>3d</fix>
</trkpt>
<trkpt lat="-27.2766842" lon="151.2900638">
  <ele>442.89</ele>
  <time>2026-09-01T19:58:58Z</time>
  <course>25.43</course>
  <speed>0.09433981132056603</speed>
  <fix>3d</fix>
</trkpt>
<trkpt lat="-27.2766842" lon="151.2900637">
  <ele>442.95</ele>
  <time>2026-09-01T19:58:58Z</time>
  <course>25.67</course>
  <speed>0.14</speed>
  <fix>3d</fix>
</trkpt>
<trkpt lat="-27.2766841" lon="151.2900639">
  <ele>442.89</ele>
  <time>2026-09-01T19:58:58Z</time>
  <course>25.42</course>
  <speed>0.08062257748298549</speed>
  <fix>3d</fix>
</trkpt>
<trkpt lat="-27.2766839" lon="151.2900638">
  <ele>442.95</ele>
  <time>2026-09-01T19:58:58Z</time>
  <course>25.76</course>
  <speed>0.13</speed>
  <fix>3d</fix>
</trkpt>
<trkpt lat="-27.276684" lon="151.2900639">
  <ele>442.89</ele>
  <time>2026-09-01T19:58:58Z</time>
  <course>25.4</course>
  <speed>0.07211102550927978</speed>
  <fix>3d</fix>
</trkpt>
<trkpt lat="-27.2766839" lon="151.2900638">
  <ele>442.95</ele>
  <time>2026-09-01T19:58:58Z</time>
  <course>25.76</course>
  <speed>0.13</speed>
  <fix>3d</fix>
</trkpt>
<trkpt lat="-27.2766839" lon="151.2900639">
  <ele>442.88</ele>
  <time>2026-09-01T19:58:58Z</time>
  <course>25.38</course>
  <speed>0.06403124237432849</speed>
  <fix>3d</fix>
</trkpt>
<trkpt lat="-27.2766838" lon="151.2900639">
  <ele>442.95</ele>
  <time>2026-09-01T19:58:58Z</time>
  <course>25.86</course>
  <speed>0.11</speed>
  <fix>3d</fix>
</trkpt>
<trkpt lat="-27.2766838" lon="151.290064">
  <ele>442.88</ele>
  <time>2026-09-01T19:58:58Z</time>
  <course>25.36</course>
  <speed>0.05830951894845301</speed>
  <fix>3d</fix>
</trkpt>
<trkpt lat="-27.2766838" lon="151.2900639">
  <ele>442.95</ele>
  <time>2026-09-01T19:58:58Z</time>
  <course>25.86</course>
  <speed>0.11</speed>
  <fix>3d</fix>
</trkpt>
<trkpt lat="-27.2766838" lon="151.290064">
  <ele>442.88</ele>
  <time>2026-09-01T19:58:58Z</time>
  <course>25.35</course>
  <speed>0.05</speed>
  <fix>3d</fix>
</trkpt>
<trkpt lat="-27.2766836" lon="151.290064">
  <ele>442.95</ele>
  <time>2026-09-01T19:58:58Z</time>
  <course>26.21</course>
  <speed>0.09</speed>
  <fix>3d</fix>
</trkpt>
<trkpt lat="-27.2766837" lon="151.2900641">
  <ele>442.88</ele>
  <time>2026-09-01T19:58:58Z</time>
  <course>25.34</course>
  <speed>0.04242640687119285</speed>
  <fix>3d</fix>
</trkpt>
<trkpt lat="-27.2766836" lon="151.290064">
  <ele>442.95</ele>
  <time>2026-09-01T19:58:58Z</time>
  <course>26.21</course>
  <speed>0.09</speed>
  <fix>3d</fix>
</trkpt>
<trkpt lat="-27.2766836" lon="151.2900641">
  <ele>442.88</ele>
  <time>2026-09-01T19:58:58Z</time>
  <course>25.34</course>
  <speed>0.03605551275463989</speed>
  <fix>3d</fix>
</trkpt>
<trkpt lat="-27.2766835" lon="151.2900641">
  <ele>442.95</ele>
  <time>2026-09-01T19:58:58Z</time>
  <course>26.91</course>
  <speed>0.08</speed>
  <fix>3d</fix>
</trkpt>
<trkpt lat="-27.2766836" lon="151.2900641">
  <ele>442.88</ele>
  <time>2026-09-01T19:58:58Z</time>
  <course>25.34</course>
  <speed>0.0282842712474619</speed>
  <fix>3d</fix>
</trkpt>
<trkpt lat="-27.2766835" lon="151.2900641">
  <ele>442.95</ele>
  <time>2026-09-01T19:58:58Z</time>
  <course>26.91</course>
  <speed>0.08</speed>
  <fix>3d</fix>
</trkpt>
<trkpt lat="-27.2766836" lon="151.2900641">
  <ele>442.88</ele>
  <time>2026-09-01T19:58:58Z</time>
  <course>25.35</course>
  <speed>0.022360679774997897</speed>
  <fix>3d</fix>
</trkpt>
<trkpt lat="-27.2766834" lon="151.2900642">
  <ele>442.95</ele>
  <time>2026-09-01T19:58:58Z</time>
  <course>27.67</course>
  <speed>0.06</speed>
  <fix>3d</fix>
</trkpt>
<trkpt lat="-27.2766835" lon="151.2900642">
  <ele>442.88</ele>
  <time>2026-09-01T19:58:58Z</time>
  <course>25.35</course>
  <speed>0.02</speed>
  <fix>3d</fix>
</trkpt>
<trkpt lat="-27.2766834" lon="151.2900642">
  <ele>442.95</ele>
  <time>2026-09-01T19:58:58Z</time>
  <course>27.67</course>
  <speed>0.06</speed>
  <fix>3d</fix>
</trkpt>
<trkpt lat="-27.2766835" lon="151.2900642">
  <ele>442.88</ele>
  <time>2026-09-01T19:58:58Z</time>
  <course>25.36</course>
  <speed>0.01</speed>
  <fix>3d</fix>
</trkpt>
<trkpt lat="-27.2766833" lon="151.2900642">
  <ele>442.95</ele>
  <time>2026-09-01T19:58:58Z</time>
  <course>28.66</course>
  <speed>0.05</speed>
  <fix>3d</fix>
</trkpt>
<trkpt lat="-27.2766835" lon="151.2900642">
  <ele>442.88</ele>
  <time>2026-09-01T19:58:58Z</time>
  <course>25.36</course>
  <speed>0.01</speed>
  <fix>3d</fix>
</trkpt>
<trkpt lat="-27.2766833" lon="151.2900642">
  <ele>442.95</ele>
  <time>2026-09-01T19:58:58Z</time>
  <course>28.66</course>
  <speed>0.05</speed>
  <fix>3d</fix>
</trkpt>
<trkpt lat="-27.2766835" lon="151.2900642">
  <ele>442.88</ele>
  <time>2026-09-01T19:58:58Z</time>
  <course>25.36</course>
  <speed>0.01414213562373095</speed>
  <fix>3d</fix>
</trkpt>
<trkpt lat="-27.2766832" lon="151.2900642">
  <ele>442.95</ele>
  <time>2026-09-01T19:58:58Z</time>
  <course>31.57</course>
  <speed>0.03</speed>
  <fix>3d</fix>
</trkpt>
<trkpt lat="-27.2766835" lon="151.2900642">
  <ele>442.88</ele>
  <time>2026-09-01T19:58:58Z</time>
  <course>25.37</course>
  <speed>0.02</speed>
  <fix>3d</fix>
</trkpt>
<trkpt lat="-27.2766832" lon="151.2900642">
  <ele>442.95</ele>
  <time>2026-09-01T19:58:58Z</time>
  <course>31.57</course>
  <speed>0.03</speed>
  <fix>3d</fix>
</trkpt>
<trkpt lat="-27.2766835" lon="151.2900642">
  <ele>442.88</ele>
  <time>2026-09-01T19:58:58Z</time>
  <course>25.36</course>
  <speed>0.03</speed>
  <fix>3d</fix>
</trkpt>
<trkpt lat="-27.2766832" lon="151.2900643">
  <ele>442.95</ele>
  <time>2026-09-01T19:58:58Z</time>
  <course>42.0</course>
  <speed>0.01</speed>
  <fix>3d</fix>
</trkpt>
<trkpt lat="-27.2766834" lon="151.2900642">
  <ele>442.88</ele>
  <time>2026-09-01T19:58:58Z</time>
  <course>25.35</course>
  <speed>0.03</speed>
  <fix>3d</fix>
</trkpt>
<trkpt lat="-27.2766832" lon="151.2900643">
  <ele>442.95</ele>
  <time>2026-09-01T19:58:58Z</time>
  <course>42.0</course>
  <speed>0.01</speed>
  <fix>3d</fix>
</trkpt>
<trkpt lat="-27.2766834" lon="151.2900642">
  <ele>442.88</ele>
  <time>2026-09-01T19:58:58Z</time>
  <course>25.34</course>
  <speed>0.04</speed>
  <fix>3d</fix>
</trkpt>
<trkpt lat="-27.2766832" lon="151.2900644">
  <ele>442.95</ele>
  <time>2026-09-01T19:58:58Z</time>
  <course>96.81</course>
  <speed>0.0</speed>
  <fix>3d</fix>
</trkpt>
<trkpt lat="-27.2766834" lon="151.2900643">
  <ele>442.88</ele>
  <time>2026-09-01T19:58:58Z</time>
  <course>25.33</course>
  <speed>0.04</speed>
  <fix>3d</fix>
</trkpt>
<trkpt lat="-27.2766832" lon="151.2900644">
  <ele>442.95</ele>
  <time>2026-09-01T19:58:58Z</time>
  <course>96.81</course>
  <speed>0.0</speed>
  <fix>3d</fix>
</trkpt>
<trkpt lat="-27.2766834" lon="151.2900643">
  <ele>442.88</ele>
  <time>2026-09-01T19:58:58Z</time>
  <course>25.32</course>
  <speed>0.05</speed>
  <fix>3d</fix>
</trkpt>
<trkpt lat="-27.2766832" lon="151.2900644">
  <ele>442.95</ele>
  <time>2026-09-01T19:58:58Z</time>
  <course>173.19</course>
  <speed>0.01</speed>
  <fix>3d</fix>
</trkpt>
<trkpt lat="-27.2766834" lon="151.2900643">
  <ele>442.88</ele>
  <time>2026-09-01T19:58:58Z</time>
  <course>25.32</course>
  <speed>0.05</speed>
  <fix>3d</fix>
</trkpt>
<trkpt lat="-27.2766832" lon="151.2900644">
  <ele>442.95</ele>
  <time>2026-09-01T19:58:58Z</time>
  <course>173.19</course>
  <speed>0.01</speed>
  <fix>3d</fix>
</trkpt>
<trkpt lat="-27.2766835" lon="151.2900643">
  <ele>442.88</ele>
  <time>2026-09-01T19:58:58Z</time>
  <course>25.32</course>
  <speed>0.06</speed>
  <fix>3d</fix>
</trkpt>
<trkpt lat="-27.2766832" lon="151.2900644">
  <ele>442.96</ele>
  <time>2026-09-01T19:58:58Z</time>
  <course>189.52</course>
  <speed>0.02</speed>
  <fix>3d</fix>
</trkpt>
<trkpt lat="-27.2766835" lon="151.2900642">
  <ele>442.88</ele>
  <time>2026-09-01T19:58:58Z</time>
  <course>25.32</course>
  <speed>0.06082762530298219</speed>
  <fix>3d</fix>
</trkpt>
<trkpt lat="-27.2766832" lon="151.2900644">
  <ele>442.96</ele>
  <time>2026-09-01T19:58:58Z</time>
  <course>189.52</course>
  <speed>0.02</speed>
  <fix>3d</fix>
</trkpt>
<trkpt lat="-27.2766835" lon="151.2900642">
  <ele>442.88</ele>
  <time>2026-09-01T19:58:58Z</time>
  <course>25.32</course>
  <speed>0.06082762530298219</speed>
  <fix>3d</fix>
</trkpt>
<trkpt lat="-27.2766832" lon="151.2900644">
  <ele>442.96</ele>
  <time>2026-09-01T19:58:58Z</time>
  <course>195.99</course>
  <speed>0.03</speed>
  <fix>3d</fix>
</trkpt>
<trkpt lat="-27.2766836" lon="151.2900642">
  <ele>442.89</ele>
  <time>2026-09-01T19:58:58Z</time>
  <course>25.32</course>
  <speed>0.06082762530298219</speed>
  <fix>3d</fix>
</trkpt>
<trkpt lat="-27.2766832" lon="151.2900644">
  <ele>442.96</ele>
  <time>2026-09-01T19:58:58Z</time>
  <course>195.99</course>
  <speed>0.03</speed>
  <fix>3d</fix>
</trkpt>
<trkpt lat="-27.2766836" lon="151.2900642">
  <ele>442.89</ele>
  <time>2026-09-01T19:58:58Z</time>
  <course>25.32</course>
  <speed>0.07071067811865475</speed>
  <fix>3d</fix>
</trkpt>
<trkpt lat="-27.2766832" lon="151.2900644">
  <ele>442.96</ele>
  <time>2026-09-01T19:58:58Z</time>
  <course>199.13</course>
  <speed>0.04</speed>
  <fix>3d</fix>
</trkpt>
<trkpt lat="-27.2766836" lon="151.2900642">
  <ele>442.89</ele>
  <time>2026-09-01T19:58:58Z</time>
  <course>25.32</course>
  <speed>0.07071067811865475</speed>
  <fix>3d</fix>
</trkpt>
<trkpt lat="-27.2766832" lon="151.2900644">
  <ele>442.96</ele>
  <time>2026-09-01T19:58:58Z</time>
  <course>199.13</course>
  <speed>0.04</speed>
  <fix>3d</fix>
</trkpt>
<trkpt lat="-27.2766837" lon="151.2900642">
  <ele>442.89</ele>
  <time>2026-09-01T19:58:58Z</time>
  <course>25.31</course>
  <speed>0.07071067811865475</speed>
  <fix>3d</fix>
</trkpt>
<trkpt lat="-27.2766833" lon="151.2900644">
  <ele>442.96</ele>
  <time>2026-09-01T19:58:58Z</time>
  <course>201.03</course>
  <speed>0.04</speed>
  <fix>3d</fix>
</trkpt>
<trkpt lat="-27.2766837" lon="151.2900642">
  <ele>442.9</ele>
  <time>2026-09-01T19:58:58Z</time>
  <course>25.31</course>
  <speed>0.07071067811865475</speed>
  <fix>3d</fix>
</trkpt>
<trkpt lat="-27.2766833" lon="151.2900644">
  <ele>442.96</ele>
  <time>2026-09-01T19:58:58Z</time>
  <course>201.03</course>
  <speed>0.04</speed>
  <fix>3d</fix>
</trkpt>
<trkpt lat="-27.2766837" lon="151.2900642">
  <ele>442.9</ele>
  <time>2026-09-01T19:58:58Z</time>
  <course>25.31</course>
  <speed>0.07071067811865475</speed>
  <fix>3d</fix>
</trkpt>
<trkpt lat="-27.2766834" lon="151.2900644">
  <ele>442.96</ele>
  <time>2026-09-01T19:58:58Z</time>
  <course>202.59</course>
  <speed>0.05</speed>
  <fix>3d</fix>
</trkpt>
<trkpt lat="-27.2766838" lon="151.2900642">
  <ele>442.9</ele>
  <time>2026-09-01T19:58:58Z</time>
  <course>25.31</course>
  <speed>0.0824621125123532</speed>
  <fix>3d</fix>
</trkpt>
<trkpt lat="-27.2766834" lon="151.2900644">
  <ele>442.96</ele>
  <time>2026-09-01T19:58:58Z</time>
  <course>202.59</course>
  <speed>0.05</speed>
  <fix>3d</fix>
</trkpt>
<trkpt lat="-27.2766838" lon="151.2900642">
  <ele>442.9</ele>
  <time>2026-09-01T19:58:58Z</time>
  <course>25.31</course>
  <speed>0.0824621125123532</speed>
  <fix>3d</fix>
</trkpt>
<trkpt lat="-27.2766835" lon="151.2900643">
  <ele>442.96</ele>
  <time>2026-09-01T19:58:58Z</time>
  <course>203.81</course>
  <speed>0.05</speed>
  <fix>3d</fix>
</trkpt>
<trkpt lat="-27.2766839" lon="151.2900642">
  <ele>442.9</ele>
  <time>2026-09-01T19:58:58Z</time>
  <course>25.31</course>
  <speed>0.07071067811865475</speed>
  <fix>3d</fix>
</trkpt>
<trkpt lat="-27.2766835" lon="151.2900643">
  <ele>442.96</ele>
  <time>2026-09-01T19:58:58Z</time>
  <course>203.81</course>
  <speed>0.05</speed>
  <fix>3d</fix>
</trkpt>
<trkpt lat="-27.2766839" lon="151.2900642">
  <ele>442.9</ele>
  <time>2026-09-01T19:58:58Z</time>
  <course>25.37</course>
  <speed>0.02</speed>
  <fix>3d</fix>
</trkpt>
<trkpt lat="-27.2766835" lon="151.2900642">
  <ele>442.96</ele>
  <time>2026-09-01T19:58:58Z</time>
  <course>204.65</course>
  <speed>0.05</speed>
  <fix>3d</fix>
</trkpt>
<trkpt lat="-27.2766838" lon="151.2900642">
  <ele>442.9</ele>
  <time>2026-09-01T19:58:58Z</time>
  <course>25.54</course>
  <speed>0.07810249675906654</speed>
  <fix>3d</fix>
</trkpt>
<trkpt lat="-27.2766835" lon="151.2900642">
  <ele>442.96</ele>
  <time>2026-09-01T19:58:58Z</time>
  <course>204.65</course>
  <speed>0.05</speed>
  <fix>3d</fix>
</trkpt>
<trkpt lat="-27.2766837" lon="151.2900642">
  <ele>442.9</ele>
  <time>2026-09-01T19:58:58Z</time>
  <course>25.75</course>
  <speed>0.25553864678361277</speed>
  <fix>3d</fix>
</trkpt>
<trkpt lat="-27.2766836" lon="151.2900642">
  <ele>442.96</ele>
  <time>2026-09-01T19:58:58Z</time>
  <course>27.0</course>
  <speed>0.02</speed>
  <fix>3d</fix>
</trkpt>
<trkpt lat="-27.2766834" lon="151.2900644">
  <ele>442.9</ele>
  <time>2026-09-01T19:58:58Z</time>
  <course>25.91</course>
  <speed>0.47885279575251516</speed>
  <fix>3d</fix>
</trkpt>
<trkpt lat="-27.2766836" lon="151.2900642">
  <ele>442.96</ele>
  <time>2026-09-01T19:58:58Z</time>
  <course>27.0</course>
  <speed>0.02</speed>
  <fix>3d</fix>
</trkpt>
<trkpt lat="-27.2766829" lon="151.2900647">
  <ele>442.89</ele>
  <time>2026-09-01T19:58:58Z</time>
  <course>26.01</course>
  <speed>0.7741446893184762</speed>
  <fix>3d</fix>
</trkpt>
<trkpt lat="-27.2766834" lon="151.2900643">
  <ele>442.95</ele>
  <time>2026-09-01T19:58:58Z</time>
  <course>26.85</course>
  <speed>0.29</speed>
  <fix>3d</fix>
</trkpt>
<trkpt lat="-27.2766821" lon="151.2900652">
  <ele>442.89</ele>
  <time>2026-09-01T19:58:58Z</time>
  <course>26.08</course>
  <speed>1.1317685275708986</speed>
  <fix>3d</fix>
</trkpt>
<trkpt lat="-27.2766834" lon="151.2900643">
  <ele>442.95</ele>
  <time>2026-09-01T19:58:58Z</time>
  <course>26.85</course>
  <speed>0.29</speed>
  <fix>3d</fix>
</trkpt>
<trkpt lat="-27.276681" lon="151.2900658">
  <ele>442.89</ele>
  <time>2026-09-01T19:58:58Z</time>
  <course>26.16</course>
  <speed>1.5519342769589182</speed>
  <fix>3d</fix>
</trkpt>
<trkpt lat="-27.2766826" lon="151.2900647">
  <ele>442.95</ele>
  <time>2026-09-01T19:58:58Z</time>
  <course>26.96</course>
  <speed>0.81</speed>
  <fix>3d</fix>
</trkpt>
<trkpt lat="-27.2766796" lon="151.2900666">
  <ele>442.88</ele>
  <time>2026-09-01T19:58:58Z</time>
  <course>26.27</course>
  <speed>2.0303940504246953</speed>
  <fix>3d</fix>
</trkpt>
<trkpt lat="-27.2766826" lon="151.2900647">
  <ele>442.95</ele>
  <time>2026-09-01T19:58:58Z</time>
  <course>26.96</course>
  <speed>0.81</speed>
  <fix>3d</fix>
</trkpt>
<trkpt lat="-27.2766777" lon="151.2900677">
  <ele>442.88</ele>
  <time>2026-09-01T19:58:58Z</time>
  <course>26.39</course>
  <speed>2.567041098229633</speed>
  <fix>3d</fix>
</trkpt>
<trkpt lat="-27.2766807" lon="151.2900657">
  <ele>442.95</ele>
  <time>2026-09-01T19:58:58Z</time>
  <course>26.65</course>
  <speed>1.57</speed>
  <fix>3d</fix>
</trkpt>
<trkpt lat="-27.2766754" lon="151.290069">
  <ele>442.88</ele>
  <time>2026-09-01T19:58:58Z</time>
  <course>26.4</course>
  <speed>3.1662754144262313</speed>
  <fix>3d</fix>
</trkpt>
<trkpt lat="-27.2766807" lon="151.2900657">
  <ele>442.95</ele>
  <time>2026-09-01T19:58:58Z</time>
  <course>26.65</course>
  <speed>1.57</speed>
  <fix>3d</fix>
</trkpt>
<trkpt lat="-27.2766726" lon="151.2900705">
  <ele>442.89</ele>
  <time>2026-09-01T19:58:58Z</time>
  <course>26.44</course>
  <speed>3.7700530500246283</speed>
  <fix>3d</fix>
</trkpt>
<trkpt lat="-27.2766774" lon="151.2900677">
  <ele>442.95</ele>
  <time>2026-09-01T19:58:58Z</time>
  <course>26.35</course>
  <speed>2.58</speed>
  <fix>3d</fix>
</trkpt>
<trkpt lat="-27.2766693" lon="151.2900723">
  <ele>442.89</ele>
  <time>2026-09-01T19:58:58Z</time>
  <course>26.38</course>
  <speed>4.3873112495012245</speed>
  <fix>3d</fix>
</trkpt>
<trkpt lat="-27.2766774" lon="151.2900677">
  <ele>442.95</ele>
  <time>2026-09-01T19:58:58Z</time>
  <course>26.35</course>
  <speed>2.58</speed>
  <fix>3d</fix>
</trkpt>
<trkpt lat="-27.2766655" lon="151.2900744">
  <ele>442.9</ele>
  <time>2026-09-01T19:58:58Z</time>
  <course>26.28</course>
  <speed>5.000239994240276</speed>
  <fix>3d</fix>
</trkpt>
<trkpt lat="-27.2766723" lon="151.2900705">
  <ele>442.95</ele>
  <time>2026-09-01T19:58:58Z</time>
  <course>25.98</course>
  <speed>3.75</speed>
  <fix>3d</fix>
</trkpt>
<trkpt lat="-27.2766611" lon="151.2900767">
  <ele>442.9</ele>
  <time>2026-09-01T19:58:58Z</time>
  <course>26.11</course>
  <speed>5.617944463947646</speed>
  <fix>3d</fix>
</trkpt>
<trkpt lat="-27.2766723" lon="151.2900705">
  <ele>442.95</ele>
  <time>2026-09-01T19:58:58Z</time>
  <course>25.98</course>
  <speed>3.75</speed>
  <fix>3d</fix>
</trkpt>
<trkpt lat="-27.2766563" lon="151.2900792">
  <ele>442.91</ele>
  <time>2026-09-01T19:58:58Z</time>
  <course>25.9</course>
  <speed>6.218239300638084</speed>
  <fix>3d</fix>
</trkpt>
<trkpt lat="-27.2766652" lon="151.2900743">
  <ele>442.96</ele>
  <time>2026-09-01T19:58:58Z</time>
  <course>25.47</course>
  <speed>4.98</speed>
  <fix>3d</fix>
</trkpt>
<trkpt lat="-27.276651" lon="151.290082">
  <ele>442.92</ele>
  <time>2026-09-01T19:58:58Z</time>
  <course>25.62</course>
  <speed>6.82367203197809</speed>
  <fix>3d</fix>
</trkpt>
<trkpt lat="-27.2766652" lon="151.2900743">
  <ele>442.96</ele>
  <time>2026-09-01T19:58:58Z</time>
  <course>25.47</course>
  <speed>4.98</speed>
  <fix>3d</fix>
</trkpt>
<trkpt lat="-27.2766452" lon="151.290085">
  <ele>442.93</ele>
  <time>2026-09-01T19:58:58Z</time>
  <course>25.16</course>
  <speed>7.420323443085214</speed>
  <fix>3d</fix>
</trkpt>
<trkpt lat="-27.2766561" lon="151.2900791">
  <ele>442.97</ele>
  <time>2026-09-01T19:58:58Z</time>
  <course>24.84</course>
  <speed>6.2</speed>
  <fix>3d</fix>
</trkpt>
<trkpt lat="-27.2766389" lon="151.2900881">
  <ele>442.94</ele>
  <time>2026-09-01T19:58:58Z</time>
  <course>24.57</course>
  <speed>8.018191816114154</speed>
  <fix>3d</fix>
</trkpt>
<trkpt lat="-27.2766561" lon="151.2900791">
  <ele>442.97</ele>
  <time>2026-09-01T19:58:58Z</time>
  <course>24.84</course>
  <speed>6.2</speed>
  <fix>3d</fix>
</trkpt>
<trkpt lat="-27.2766321" lon="151.2900914">
  <ele>442.96</ele>
  <time>2026-09-01T19:58:58Z</time>
  <course>23.96</course>
  <speed>8.591396859649773</speed>
  <fix>3d</fix>
</trkpt>
<trkpt lat="-27.276645" lon="151.2900848">
  <ele>443.0</ele>
  <time>2026-09-01T19:58:58Z</time>
  <course>24.06</course>
  <speed>7.4</speed>
  <fix>3d</fix>
</trkpt>
<trkpt lat="-27.2766246" lon="151.2900949">
  <ele>442.98</ele>
  <time>2026-09-01T19:58:58Z</time>
  <course>23.24</course>
  <speed>9.180005446621479</speed>
  <fix>3d</fix>
</trkpt>
<trkpt lat="-27.276645" lon="151.2900848">
  <ele>443.0</ele>
  <time>2026-09-01T19:58:58Z</time>
  <course>24.06</course>
  <speed>7.4</speed>
  <fix>3d</fix>
</trkpt>
<trkpt lat="-27.2766168" lon="151.2900985">
  <ele>443.0</ele>
  <time>2026-09-01T19:58:58Z</time>
  <course>22.54</course>
  <speed>9.736041289969965</speed>
  <fix>3d</fix>
</trkpt>
<trkpt lat="-27.2766319" lon="151.2900913">
  <ele>443.03</ele>
  <time>2026-09-01T19:58:58Z</time>
  <course>23.03</course>
  <speed>8.57</speed>
  <fix>3d</fix>
</trkpt>
<trkpt lat="-27.2766084" lon="151.2901022">
  <ele>443.03</ele>
  <time>2026-09-01T19:58:58Z</time>
  <course>21.85</course>
  <speed>10.280530141972251</speed>
  <fix>3d</fix>
</trkpt>
<trkpt lat="-27.2766319" lon="151.2900913">
  <ele>443.03</ele>
  <time>2026-09-01T19:58:58Z</time>
  <course>23.03</course>
  <speed>8.57</speed>
  <fix>3d</fix>
</trkpt>
<trkpt lat="-27.2765996" lon="151.290106">
  <ele>443.05</ele>
  <time>2026-09-01T19:58:58Z</time>
  <course>21.13</course>
  <speed>10.819283710116858</speed>
  <fix>3d</fix>
</trkpt>
<trkpt lat="-27.2766167" lon="151.2900983">
  <ele>443.07</ele>
  <time>2026-09-01T19:58:58Z</time>
  <course>21.79</course>
  <speed>9.71</speed>
  <fix>3d</fix>
</trkpt>
<trkpt lat="-27.2765902" lon="151.2901098">
  <ele>443.08</ele>
  <time>2026-09-01T19:58:58Z</time>
  <course>20.21</course>
  <speed>11.352748565876018</speed>
  <fix>3d</fix>
</trkpt>
<trkpt lat="-27.2766167" lon="151.2900983">
  <ele>443.07</ele>
  <time>2026-09-01T19:58:58Z</time>
  <course>21.79</course>
  <speed>9.71</speed>
  <fix>3d</fix>
</trkpt>
<trkpt lat="-27.2765804" lon="151.2901137">
  <ele>443.12</ele>
  <time>2026-09-01T19:58:58Z</time>
  <course>19.42</course>
  <speed>11.868668838585059</speed>
  <fix>3d</fix>
</trkpt>
<trkpt lat="-27.2765995" lon="151.2901058">
  <ele>443.12</ele>
  <time>2026-09-01T19:58:58Z</time>
  <course>20.4</course>
  <speed>10.81</speed>
  <fix>3d</fix>
</trkpt>
<trkpt lat="-27.2765701" lon="151.2901176">
  <ele>443.15</ele>
  <time>2026-09-01T19:58:58Z</time>
  <course>18.7</course>
  <speed>12.374041377011798</speed>
  <fix>3d</fix>
</trkpt>
<trkpt lat="-27.2765995" lon="151.2901058">
  <ele>443.12</ele>
  <time>2026-09-01T19:58:58Z</time>
  <course>20.4</course>
  <speed>10.81</speed>
  <fix>3d</fix>
</trkpt>
<trkpt lat="-27.2765593" lon="151.2901215">
  <ele>443.19</ele>
  <time>2026-09-01T19:58:58Z</time>
  <course>17.87</course>
  <speed>12.875375722673107</speed>
  <fix>3d</fix>
</trkpt>
<trkpt lat="-27.2765803" lon="151.2901135">
  <ele>443.18</ele>
  <time>2026-09-01T19:58:58Z</time>
  <course>18.9</course>
  <speed>11.86</speed>
  <fix>3d</fix>
</trkpt>
<trkpt lat="-27.276548" lon="151.2901253">
  <ele>443.23</ele>
  <time>2026-09-01T19:58:58Z</time>
  <course>17.07</course>
  <speed>13.360722285864638</speed>
  <fix>3d</fix>
</trkpt>
<trkpt lat="-27.2765803" lon="151.2901135">
  <ele>443.18</ele>
  <time>2026-09-01T19:58:58Z</time>
  <course>18.9</course>
  <speed>11.86</speed>
  <fix>3d</fix>
</trkpt>
<trkpt lat="-27.2765363" lon="151.2901291">
  <ele>443.27</ele>
  <time>2026-09-01T19:58:58Z</time>
  <course>16.22</course>
  <speed>13.833618470956903</speed>
  <fix>3d</fix>
</trkpt>
<trkpt lat="-27.2765591" lon="151.2901213">
  <ele>443.25</ele>
  <time>2026-09-01T19:58:58Z</time>
  <course>17.34</course>
  <speed>12.87</speed>
  <fix>3d</fix>
</trkpt>
<trkpt lat="-27.2765241" lon="151.2901329">
  <ele>443.31</ele>
  <time>2026-09-01T19:58:58Z</time>
  <course>15.45</course>
  <speed>14.27774842193264</speed>
  <fix>3d</fix>
</trkpt>
<trkpt lat="-27.2765591" lon="151.2901213">
  <ele>443.25</ele>
  <time>2026-09-01T19:58:58Z</time>
  <course>17.34</course>
  <speed>12.87</speed>
  <fix>3d</fix>
</trkpt>
<trkpt lat="-27.2765115" lon="151.2901365">
  <ele>443.35</ele>
  <time>2026-09-01T19:58:58Z</time>
  <course>14.71</course>
  <speed>14.668619566953122</speed>
  <fix>3d</fix>
</trkpt>
<trkpt lat="-27.2765361" lon="151.2901289">
  <ele>443.32</ele>
  <time>2026-09-01T19:58:58Z</time>
  <course>15.74</course>
  <speed>13.82</speed>
  <fix>3d</fix>
</trkpt>
<trkpt lat="-27.2764985" lon="151.2901401">
  <ele>443.39</ele>
  <time>2026-09-01T19:58:58Z</time>
  <course>14.01</course>
  <speed>14.996966359900926</speed>
  <fix>3d</fix>
</trkpt>
<trkpt lat="-27.2765361" lon="151.2901289">
  <ele>443.32</ele>
  <time>2026-09-01T19:58:58Z</time>
  <course>15.74</course>
  <speed>13.82</speed>
  <fix>3d</fix>
</trkpt>
<trkpt lat="-27.2764853" lon="151.2901435">
  <ele>443.43</ele>
  <time>2026-09-01T19:58:58Z</time>
  <course>13.35</course>
  <speed>15.2578176683299</speed>
  <fix>3d</fix>
</trkpt>
<trkpt lat="-27.2765113" lon="151.2901364">
  <ele>443.4</ele>
  <time>2026-09-01T19:58:58Z</time>
  <course>14.14</course>
  <speed>14.65</speed>
  <fix>3d</fix>
</trkpt>
<trkpt lat="-27.2764718" lon="151.2901468">
  <ele>443.46</ele>
  <time>2026-09-01T19:58:58Z</time>
  <course>12.7</course>
  <speed>15.458518687118762</speed>
  <fix>3d</fix>
</trkpt>
<trkpt lat="-27.2765113" lon="151.2901364">
  <ele>443.4</ele>
  <time>2026-09-01T19:58:58Z</time>
  <course>14.14</course>
  <speed>14.65</speed>
  <fix>3d</fix>
</trkpt>
<trkpt lat="-27.2764581" lon="151.2901499">
  <ele>443.49</ele>
  <time>2026-09-01T19:58:58Z</time>
  <course>12.02</course>
  <speed>15.630598197126046</speed>
  <fix>3d</fix>
</trkpt>
<trkpt lat="-27.2764851" lon="151.2901434">
  <ele>443.47</ele>
  <time>2026-09-01T19:58:58Z</time>
  <course>12.58</course>
  <speed>15.25</speed>
  <fix>3d</fix>
</trkpt>
<trkpt lat="-27.2764442" lon="151.2901528">
  <ele>443.52</ele>
  <time>2026-09-01T19:58:58Z</time>
  <course>11.4</course>
  <speed>15.80721670630222</speed>
  <fix>3d</fix>
</trkpt>
<trkpt lat="-27.2764851" lon="151.2901434">
  <ele>443.47</ele>
  <time>2026-09-01T19:58:58Z</time>
  <course>12.58</course>
  <speed>15.25</speed>
  <fix>3d</fix>
</trkpt>
<trkpt lat="-27.2764302" lon="151.2901556">
  <ele>443.54</ele>
  <time>2026-09-01T19:58:58Z</time>
  <course>10.75</course>
  <speed>15.964852019358025</speed>
  <fix>3d</fix>
</trkpt>
<trkpt lat="-27.2764579" lon="151.2901498">
  <ele>443.53</ele>
  <time>2026-09-01T19:58:58Z</time>
  <course>11.08</course>
  <speed>15.67</speed>
  <fix>3d</fix>
</trkpt>
<trkpt lat="-27.2764161" lon="151.2901582">
  <ele>443.56</ele>
  <time>2026-09-01T19:58:58Z</time>
  <course>10.07</course>
  <speed>16.1036703890759</speed>
  <fix>3d</fix>
</trkpt>
<trkpt lat="-27.2764579" lon="151.2901498">
  <ele>443.53</ele>
  <time>2026-09-01T19:58:58Z</time>
  <course>11.08</course>
  <speed>15.67</speed>
  <fix>3d</fix>
</trkpt>
<trkpt lat="-27.2764018" lon="151.2901606">
  <ele>443.58</ele>
  <time>2026-09-01T19:58:58Z</time>
  <course>9.36</course>
  <speed>16.24507617710671</speed>
  <fix>3d</fix>
</trkpt>
<trkpt lat="-27.2764299" lon="151.2901556">
  <ele>443.58</ele>
  <time>2026-09-01T19:58:58Z</time>
  <course>9.62</course>
  <speed>16.0</speed>
  <fix>3d</fix>
</trkpt>
<trkpt lat="-27.2763874" lon="151.2901628">
  <ele>443.6</ele>
  <time>2026-09-01T19:58:58Z</time>
  <course>8.59</course>
  <speed>16.359257318105858</speed>
  <fix>3d</fix>
</trkpt>
<trkpt lat="-27.2764299" lon="151.2901556">
  <ele>443.58</ele>
  <time>2026-09-01T19:58:58Z</time>
  <course>9.62</course>
  <speed>16.0</speed>
  <fix>3d</fix>
</trkpt>
<trkpt lat="-27.2763729" lon="151.2901648">
  <ele>443.62</ele>
  <time>2026-09-01T19:58:58Z</time>
  <course>7.85</course>
  <speed>16.47462290918976</speed>
  <fix>3d</fix>
</trkpt>
<trkpt lat="-27.2764012" lon="151.2901606">
  <ele>443.62</ele>
  <time>2026-09-01T19:58:58Z</time>
  <course>8.18</course>
  <speed>16.29</speed>
  <fix>3d</fix>
</trkpt>
<trkpt lat="-27.2763582" lon="151.2901667">
  <ele>443.65</ele>
  <time>2026-09-01T19:58:58Z</time>
  <course>7.21</course>
  <speed>16.582599313738484</speed>
  <fix>3d</fix>
</trkpt>
<trkpt lat="-27.2764012" lon="151.2901606">
  <ele>443.62</ele>
  <time>2026-09-01T19:58:58Z</time>
  <course>8.18</course>
  <speed>16.29</speed>
  <fix>3d</fix>
</trkpt>
<trkpt lat="-27.2763434" lon="151.2901683">
  <ele>443.68</ele>
  <time>2026-09-01T19:58:58Z</time>
  <course>6.59</course>
  <speed>16.674078685192775</speed>
  <fix>3d</fix>
</trkpt>
<trkpt lat="-27.276372" lon="151.2901649">
  <ele>443.66</ele>
  <time>2026-09-01T19:58:58Z</time>
  <course>6.77</course>
  <speed>16.54</speed>
  <fix>3d</fix>
</trkpt>
<trkpt lat="-27.2763283" lon="151.2901699">
  <ele>443.71</ele>
  <time>2026-09-01T19:58:58Z</time>
  <course>6.0</course>
  <speed>16.76771302235341</speed>
  <fix>3d</fix>
</trkpt>
<trkpt lat="-27.276372" lon="151.2901649">
  <ele>443.66</ele>
  <time>2026-09-01T19:58:58Z</time>
  <course>6.77</course>
  <speed>16.54</speed>
  <fix>3d</fix>
</trkpt>
<trkpt lat="-27.2763133" lon="151.2901712">
  <ele>443.74</ele>
  <time>2026-09-01T19:58:58Z</time>
  <course>5.48</course>
  <speed>16.844239371369667</speed>
  <fix>3d</fix>
</trkpt>
<trkpt lat="-27.2763423" lon="151.2901685">
  <ele>443.72</ele>
  <time>2026-09-01T19:58:58Z</time>
  <course>5.41</course>
  <speed>16.75</speed>
  <fix>3d</fix>
</trkpt>
<trkpt lat="-27.2762982" lon="151.2901723">
  <ele>443.78</ele>
  <time>2026-09-01T19:58:58Z</time>
  <course>4.98</course>
  <speed>16.912625461471084</speed>
  <fix>3d</fix>
</trkpt>
<trkpt lat="-27.2763423" lon="151.2901685">
  <ele>443.72</ele>
  <time>2026-09-01T19:58:58Z</time>
  <course>5.41</course>
  <speed>16.75</speed>
  <fix>3d</fix>
</trkpt>
<trkpt lat="-27.276283" lon="151.2901733">
  <ele>443.82</ele>
  <time>2026-09-01T19:58:58Z</time>
  <course>4.46</course>
  <speed>16.973876987889362</speed>
  <fix>3d</fix>
</trkpt>
<trkpt lat="-27.2763122" lon="151.2901713">
  <ele>443.78</ele>
  <time>2026-09-01T19:58:58Z</time>
  <course>4.17</course>
  <speed>16.92</speed>
  <fix>3d</fix>
</trkpt>
<trkpt lat="-27.2762676" lon="151.2901742">
  <ele>443.87</ele>
  <time>2026-09-01T19:58:58Z</time>
  <course>3.89</course>
  <speed>17.03651666274535</speed>
  <fix>3d</fix>
</trkpt>
<trkpt lat="-27.2763122" lon="151.2901713">
  <ele>443.78</ele>
  <time>2026-09-01T19:58:58Z</time>
  <course>4.17</course>
  <speed>16.92</speed>
  <fix>3d</fix>
</trkpt>
<trkpt lat="-27.2762523" lon="151.2901749">
  <ele>443.91</ele>
  <time>2026-09-01T19:58:58Z</time>
  <course>3.38</course>
  <speed>17.09053539243285</speed>
  <fix>3d</fix>
</trkpt>
<trkpt lat="-27.2762817" lon="151.2901735">
  <ele>443.85</ele>
  <time>2026-09-01T19:58:58Z</time>
  <course>3.06</course>
  <speed>17.07</speed>
  <fix>3d</fix>
</trkpt>
<trkpt lat="-27.276237" lon="151.2901754">
  <ele>443.96</ele>
  <time>2026-09-01T19:58:58Z</time>
  <course>2.88</course>
  <speed>17.15643902445959</speed>
  <fix>3d</fix>
</trkpt>
<trkpt lat="-27.2762817" lon="151.2901735">
  <ele>443.85</ele>
  <time>2026-09-01T19:58:58Z</time>
  <course>3.06</course>
  <speed>17.07</speed>
  <fix>3d</fix>
</trkpt>
<trkpt lat="-27.2762215" lon="151.2901759">
  <ele>444.0</ele>
  <time>2026-09-01T19:58:58Z</time>
  <course>2.39</course>
  <speed>17.203360136903488</speed>
  <fix>3d</fix>
</trkpt>
<trkpt lat="-27.2762509" lon="151.2901751">
  <ele>443.94</ele>
  <time>2026-09-01T19:58:58Z</time>
  <course>2.07</course>
  <speed>17.19</speed>
  <fix>3d</fix>
</trkpt>
<trkpt lat="-27.2762061" lon="151.2901762">
  <ele>444.05</ele>
  <time>2026-09-01T19:58:58Z</time>
  <course>1.95</course>
  <speed>17.261402028804035</speed>
  <fix>3d</fix>
</trkpt>
<trkpt lat="-27.2762509" lon="151.2901751">
  <ele>443.94</ele>
  <time>2026-09-01T19:58:58Z</time>
  <course>2.07</course>
  <speed>17.19</speed>
  <fix>3d</fix>
</trkpt>
<trkpt lat="-27.2761905" lon="151.2901763">
  <ele>444.11</ele>
  <time>2026-09-01T19:58:58Z</time>
  <course>1.56</course>
  <speed>17.31034950542594</speed>
  <fix>3d</fix>
</trkpt>
<trkpt lat="-27.2762199" lon="151.290176">
  <ele>444.03</ele>
  <time>2026-09-01T19:58:58Z</time>
  <course>1.18</course>
  <speed>17.31</speed>
  <fix>3d</fix>
</trkpt>
<trkpt lat="-27.2761749" lon="151.2901764">
  <ele>444.17</ele>
  <time>2026-09-01T19:58:58Z</time>
  <course>1.2</course>
  <speed>17.36</speed>
  <fix>3d</fix>
</trkpt>
<trkpt lat="-27.2762199" lon="151.290176">
  <ele>444.03</ele>
  <time>2026-09-01T19:58:58Z</time>
  <course>1.18</course>
  <speed>17.31</speed>
  <fix>3d</fix>
</trkpt>
<trkpt lat="-27.2761593" lon="151.2901764">
  <ele>444.22</ele>
  <time>2026-09-01T19:58:58Z</time>
  <course>0.88</course>
  <speed>17.400183907074087</speed>
  <fix>3d</fix>
</trkpt>
<trkpt lat="-27.2761886" lon="151.2901765">
  <ele>444.14</ele>
  <time>2026-09-01T19:58:58Z</time>
  <course>0.4</course>
  <speed>17.41</speed>
  <fix>3d</fix>
</trkpt>
<trkpt lat="-27.2761436" lon="151.2901764">
  <ele>444.29</ele>
  <time>2026-09-01T19:58:58Z</time>
  <course>0.58</course>
  <speed>17.45082806058211</speed>
  <fix>3d</fix>
</trkpt>
<trkpt lat="-27.2761886" lon="151.2901765">
  <ele>444.14</ele>
  <time>2026-09-01T19:58:58Z</time>
  <course>0.4</course>
  <speed>17.41</speed>
  <fix>3d</fix>
</trkpt>
<trkpt lat="-27.2761278" lon="151.2901762">
  <ele>444.35</ele>
  <time>2026-09-01T19:58:58Z</time>
  <course>0.28</course>
  <speed>17.491646577723895</speed>
  <fix>3d</fix>
</trkpt>
<trkpt lat="-27.2761573" lon="151.2901766">
  <ele>444.26</ele>
  <time>2026-09-01T19:58:58Z</time>
  <course>359.74</course>
  <speed>17.51</speed>
  <fix>3d</fix>
</trkpt>
<trkpt lat="-27.276112" lon="151.2901759">
  <ele>444.41</ele>
  <time>2026-09-01T19:58:58Z</time>
  <course>359.99</course>
  <speed>17.53274080114116</speed>
  <fix>3d</fix>
</trkpt>
<trkpt lat="-27.2761573" lon="151.2901766">
  <ele>444.26</ele>
  <time>2026-09-01T19:58:58Z</time>
  <course>359.74</course>
  <speed>17.51</speed>
  <fix>3d</fix>
</trkpt>
<trkpt lat="-27.2760962" lon="151.2901756">
  <ele>444.48</ele>
  <time>2026-09-01T19:58:58Z</time>
  <course>359.72</course>
  <speed>17.58410646009629</speed>
  <fix>3d</fix>
</trkpt>
<trkpt lat="-27.2761258" lon="151.2901763">
  <ele>444.39</ele>
  <time>2026-09-01T19:58:58Z</time>
  <course>359.21</course>
  <speed>17.6</speed>
  <fix>3d</fix>
</trkpt>
<trkpt lat="-27.2760803" lon="151.2901752">
  <ele>444.55</ele>
  <time>2026-09-01T19:58:58Z</time>
  <course>359.48</course>
  <speed>17.61549601913043</speed>
  <fix>3d</fix>
</trkpt>
<trkpt lat="-27.2761258" lon="151.2901763">
  <ele>444.39</ele>
  <time>2026-09-01T19:58:59Z</time>
  <course>359.21</course>
  <speed>17.6</speed>
  <fix>3d</fix>
</trkpt>
<trkpt lat="-27.2760645" lon="151.2901747">
  <ele>444.62</ele>
  <time>2026-09-01T19:58:59Z</time>
  <course>359.31</course>
  <speed>17.66679654040313</speed>
  <fix>3d</fix>
</trkpt>
<trkpt lat="-27.2760941" lon="151.2901757">
  <ele>444.53</ele>
  <time>2026-09-01T19:58:59Z</time>
  <course>358.76</course>
  <speed>17.68</speed>
  <fix>3d</fix>
</trkpt>
<trkpt lat="-27.2760486" lon="151.2901742">
  <ele>444.7</ele>
  <time>2026-09-01T19:58:59Z</time>
  <course>359.15</course>
  <speed>17.69824002549406</speed>
  <fix>3d</fix>
</trkpt>
<trkpt lat="-27.2760941" lon="151.2901757">
  <ele>444.53</ele>
  <time>2026-09-01T19:58:59Z</time>
  <course>358.76</course>
  <speed>17.68</speed>
  <fix>3d</fix>
</trkpt>
<trkpt lat="-27.2760325" lon="151.2901737">
  <ele>444.77</ele>
  <time>2026-09-01T19:58:59Z</time>
  <course>359.06</course>
  <speed>17.739484208961656</speed>
  <fix>3d</fix>
</trkpt>
<trkpt lat="-27.2760622" lon="151.2901748">
  <ele>444.67</ele>
  <time>2026-09-01T19:58:59Z</time>
  <course>358.4</course>
  <speed>17.76</speed>
  <fix>3d</fix>
</trkpt>
<trkpt lat="-27.2760165" lon="151.2901731">
  <ele>444.85</ele>
  <time>2026-09-01T19:58:59Z</time>
  <course>358.94</course>
  <speed>17.770472700522067</speed>
  <fix>3d</fix>
</trkpt>
<trkpt lat="-27.2760622" lon="151.2901748">
  <ele>444.67</ele>
  <time>2026-09-01T19:58:59Z</time>
  <course>358.4</course>
  <speed>17.76</speed>
  <fix>3d</fix>
</trkpt>
<trkpt lat="-27.2760003" lon="151.2901724">
  <ele>444.93</ele>
  <time>2026-09-01T19:58:59Z</time>
  <course>358.75</course>
  <speed>17.811145387088388</speed>
  <fix>3d</fix>
</trkpt>
<trkpt lat="-27.2760303" lon="151.2901737">
  <ele>444.82</ele>
  <time>2026-09-01T19:58:59Z</time>
  <course>358.13</course>
  <speed>17.83</speed>
  <fix>3d</fix>
</trkpt>
<trkpt lat="-27.2759842" lon="151.2901718">
  <ele>445.01</ele>
  <time>2026-09-01T19:58:59Z</time>
  <course>358.54</course>
  <speed>17.842211185836803</speed>
  <fix>3d</fix>
</trkpt>
<trkpt lat="-27.2760303" lon="151.2901737">
  <ele>444.82</ele>
  <time>2026-09-01T19:58:59Z</time>
  <course>358.13</course>
  <speed>17.83</speed>
  <fix>3d</fix>
</trkpt>
<trkpt lat="-27.2759681" lon="151.2901711">
  <ele>445.09</ele>
  <time>2026-09-01T19:58:59Z</time>
  <course>358.4</course>
  <speed>17.88293320459482</speed>
  <fix>3d</fix>
</trkpt>
<trkpt lat="-27.2759982" lon="151.2901725">
  <ele>444.97</ele>
  <time>2026-09-01T19:58:59Z</time>
  <course>357.94</course>
  <speed>17.89</speed>
  <fix>3d</fix>
</trkpt>
<trkpt lat="-27.2759519" lon="151.2901704">
  <ele>445.17</ele>
  <time>2026-09-01T19:58:59Z</time>
  <course>358.37</course>
  <speed>17.91368192192772</speed>
  <fix>3d</fix>
</trkpt>
<trkpt lat="-27.2759982" lon="151.2901725">
  <ele>444.97</ele>
  <time>2026-09-01T19:58:59Z</time>
  <course>357.94</course>
  <speed>17.89</speed>
  <fix>3d</fix>
</trkpt>
<trkpt lat="-27.2759357" lon="151.2901697">
  <ele>445.25</ele>
  <time>2026-09-01T19:58:59Z</time>
  <course>358.39</course>
  <speed>17.94405193929175</speed>
  <fix>3d</fix>
</trkpt>
<trkpt lat="-27.2759661" lon="151.2901711">
  <ele>445.14</ele>
  <time>2026-09-01T19:58:59Z</time>
  <course>357.79</course>
  <speed>17.96</speed>
  <fix>3d</fix>
</trkpt>
<trkpt lat="-27.2759195" lon="151.290169">
  <ele>445.32</ele>
  <time>2026-09-01T19:58:59Z</time>
  <course>358.33</course>
  <speed>17.984418255812447</speed>
  <fix>3d</fix>
</trkpt>
<trkpt lat="-27.2759661" lon="151.2901711">
  <ele>445.14</ele>
  <time>2026-09-01T19:58:59Z</time>
  <course>357.79</course>
  <speed>17.96</speed>
  <fix>3d</fix>
</trkpt>
<trkpt lat="-27.2759033" lon="151.2901683">
  <ele>445.4</ele>
  <time>2026-09-01T19:58:59Z</time>
  <course>358.28</course>
  <speed>18.01479669604961</speed>
  <fix>3d</fix>
</trkpt>
<trkpt lat="-27.2759338" lon="151.2901697">
  <ele>445.3</ele>
  <time>2026-09-01T19:58:59Z</time>
  <course>357.7</course>
  <speed>18.02</speed>
  <fix>3d</fix>
</trkpt>
<trkpt lat="-27.275887" lon="151.2901675">
  <ele>445.48</ele>
  <time>2026-09-01T19:58:59Z</time>
  <course>358.29</course>
  <speed>18.044772096094757</speed>
  <fix>3d</fix>
</trkpt>
<trkpt lat="-27.2759338" lon="151.2901697">
  <ele>445.3</ele>
  <time>2026-09-01T19:58:59Z</time>
  <course>357.7</course>
  <speed>18.02</speed>
  <fix>3d</fix>
</trkpt>
<trkpt lat="-27.2758707" lon="151.2901668">
  <ele>445.56</ele>
  <time>2026-09-01T19:58:59Z</time>
  <course>358.28</course>
  <speed>18.074747577767166</speed>
  <fix>3d</fix>
</trkpt>
<trkpt lat="-27.2759013" lon="151.2901682">
  <ele>445.46</ele>
  <time>2026-09-01T19:58:59Z</time>
  <course>357.65</course>
  <speed>18.08</speed>
  <fix>3d</fix>
</trkpt>
<trkpt lat="-27.2758544" lon="151.290166">
  <ele>445.64</ele>
  <time>2026-09-01T19:58:59Z</time>
  <course>358.26</course>
  <speed>18.10472314066139</speed>
  <fix>3d</fix>
</trkpt>
<trkpt lat="-27.2759013" lon="151.2901682">
  <ele>445.46</ele>
  <time>2026-09-01T19:58:59Z</time>
  <course>357.65</course>
  <speed>18.08</speed>
  <fix>3d</fix>
</trkpt>
<trkpt lat="-27.275838" lon="151.2901653">
  <ele>445.72</ele>
  <time>2026-09-01T19:58:59Z</time>
  <course>358.25</course>
  <speed>18.134298993895516</speed>
  <fix>3d</fix>
</trkpt>
<trkpt lat="-27.2758687" lon="151.2901667">
  <ele>445.62</ele>
  <time>2026-09-01T19:58:59Z</time>
  <course>357.65</course>
  <speed>18.14</speed>
  <fix>3d</fix>
</trkpt>
<trkpt lat="-27.2758216" lon="151.2901646">
  <ele>445.8</ele>
  <time>2026-09-01T19:58:59Z</time>
  <course>358.25</course>
  <speed>18.15428324115276</speed>
  <fix>3d</fix>
</trkpt>
<trkpt lat="-27.2758687" lon="151.2901667">
  <ele>445.62</ele>
  <time>2026-09-01T19:58:59Z</time>
  <course>357.65</course>
  <speed>18.14</speed>
  <fix>3d</fix>
</trkpt>
<trkpt lat="-27.2758052" lon="151.2901638">
  <ele>445.88</ele>
  <time>2026-09-01T19:58:59Z</time>
  <course>358.27</course>
  <speed>18.183866475532646</speed>
  <fix>3d</fix>
</trkpt>
<trkpt lat="-27.2758361" lon="151.2901652">
  <ele>445.78</ele>
  <time>2026-09-01T19:58:59Z</time>
  <course>357.68</course>
  <speed>18.19</speed>
  <fix>3d</fix>
</trkpt>
<trkpt lat="-27.2757888" lon="151.2901631">
  <ele>445.97</ele>
  <time>2026-09-01T19:58:59Z</time>
  <course>358.26</course>
  <speed>18.20346395607166</speed>
  <fix>3d</fix>
</trkpt>
<trkpt lat="-27.2758361" lon="151.2901652">
  <ele>445.78</ele>
  <time>2026-09-01T19:58:59Z</time>
  <course>357.68</course>
  <speed>18.19</speed>
  <fix>3d</fix>
</trkpt>
<trkpt lat="-27.2757723" lon="151.2901624">
  <ele>446.06</ele>
  <time>2026-09-01T19:58:59Z</time>
  <course>358.21</course>
  <speed>18.233441803455538</speed>
  <fix>3d</fix>
</trkpt>
<trkpt lat="-27.2758034" lon="151.2901637">
  <ele>445.95</ele>
  <time>2026-09-01T19:58:59Z</time>
  <course>357.72</course>
  <speed>18.24</speed>
  <fix>3d</fix>
</trkpt>
<trkpt lat="-27.2757558" lon="151.2901617">
  <ele>446.15</ele>
  <time>2026-09-01T19:58:59Z</time>
  <course>358.24</course>
  <speed>18.25342707548366</speed>
  <fix>3d</fix>
</trkpt>
<trkpt lat="-27.2758034" lon="151.2901637">
  <ele>445.95</ele>
  <time>2026-09-01T19:58:59Z</time>
  <course>357.72</course>
  <speed>18.24</speed>
  <fix>3d</fix>
</trkpt>
<trkpt lat="-27.2757393" lon="151.290161">
  <ele>446.25</ele>
  <time>2026-09-01T19:58:59Z</time>
  <course>358.26</course>
  <speed>18.27303204178223</speed>
  <fix>3d</fix>
</trkpt>
<trkpt lat="-27.2757707" lon="151.2901623">
  <ele>446.13</ele>
  <time>2026-09-01T19:58:59Z</time>
  <course>357.76</course>
  <speed>18.28</speed>
  <fix>3d</fix>
</trkpt>
<trkpt lat="-27.275723" lon="151.2901603">
  <ele>446.34</ele>
  <time>2026-09-01T19:58:59Z</time>
  <course>358.25</course>
  <speed>18.292643330038445</speed>
  <fix>3d</fix>
</trkpt>
<trkpt lat="-27.2757707" lon="151.2901623">
  <ele>446.13</ele>
  <time>2026-09-01T19:58:59Z</time>
  <course>357.76</course>
  <speed>18.28</speed>
  <fix>3d</fix>
</trkpt>
<trkpt lat="-27.2757065" lon="151.2901596">
  <ele>446.44</ele>
  <time>2026-09-01T19:58:59Z</time>
  <course>358.25</course>
  <speed>18.312260919941043</speed>
  <fix>3d</fix>
</trkpt>
<trkpt lat="-27.2757378" lon="151.2901609">
  <ele>446.31</ele>
  <time>2026-09-01T19:58:59Z</time>
  <course>357.81</course>
  <speed>18.32</speed>
  <fix>3d</fix>
</trkpt>
<trkpt lat="-27.2756899" lon="151.2901589">
  <ele>446.53</ele>
  <time>2026-09-01T19:58:59Z</time>
  <course>358.3</course>
  <speed>18.33188479125919</speed>
  <fix>3d</fix>
</trkpt>
<trkpt lat="-27.2757378" lon="151.2901609">
  <ele>446.31</ele>
  <time>2026-09-01T19:58:59Z</time>
  <course>357.81</course>
  <speed>18.32</speed>
  <fix>3d</fix>
</trkpt>
<trkpt lat="-27.2756734" lon="151.2901582">
  <ele>446.63</ele>
  <time>2026-09-01T19:58:59Z</time>
  <course>358.34</course>
  <speed>18.351514923842117</speed>
  <fix>3d</fix>
</trkpt>
<trkpt lat="-27.2757049" lon="151.2901595">
  <ele>446.5</ele>
  <time>2026-09-01T19:58:59Z</time>
  <course>357.87</course>
  <speed>18.35</speed>
  <fix>3d</fix>
</trkpt>
<trkpt lat="-27.2756567" lon="151.2901575">
  <ele>446.73</ele>
  <time>2026-09-01T19:58:59Z</time>
  <course>358.38</course>
  <speed>18.361157370928446</speed>
  <fix>3d</fix>
</trkpt>
<trkpt lat="-27.2757049" lon="151.2901595">
  <ele>446.5</ele>
  <time>2026-09-01T19:58:59Z</time>
  <course>357.87</course>
  <speed>18.35</speed>
  <fix>3d</fix>
</trkpt>
<trkpt lat="-27.2756401" lon="151.2901569">
  <ele>446.83</ele>
  <time>2026-09-01T19:58:59Z</time>
  <course>358.44</course>
  <speed>18.380799764972142</speed>
  <fix>3d</fix>
</trkpt>
<trkpt lat="-27.2756719" lon="151.2901581">
  <ele>446.7</ele>
  <time>2026-09-01T19:58:59Z</time>
  <course>357.93</course>
  <speed>18.38</speed>
  <fix>3d</fix>
</trkpt>
<trkpt lat="-27.2756236" lon="151.2901562">
  <ele>446.94</ele>
  <time>2026-09-01T19:58:59Z</time>
  <course>358.51</course>
  <speed>18.39045404550959</speed>
  <fix>3d</fix>
</trkpt>
<trkpt lat="-27.2756719" lon="151.2901581">
  <ele>446.7</ele>
  <time>2026-09-01T19:58:59Z</time>
  <course>357.93</course>
  <speed>18.38</speed>
  <fix>3d</fix>
</trkpt>
<trkpt lat="-27.275607" lon="151.2901556">
  <ele>447.04</ele>
  <time>2026-09-01T19:58:59Z</time>
  <course>358.53</course>
  <speed>18.410108636290012</speed>
  <fix>3d</fix>
</trkpt>
<trkpt lat="-27.2756389" lon="151.2901568">
  <ele>446.9</ele>
  <time>2026-09-01T19:58:59Z</time>
  <course>358.01</course>
  <speed>18.4</speed>
  <fix>3d</fix>
</trkpt>
<trkpt lat="-27.2755904" lon="151.290155">
  <ele>447.14</ele>
  <time>2026-09-01T19:58:59Z</time>
  <course>358.58</course>
  <speed>18.41945167479206</speed>
  <fix>3d</fix>
</trkpt>
<trkpt lat="-27.2756389" lon="151.2901568">
  <ele>446.9</ele>
  <time>2026-09-01T19:58:59Z</time>
  <course>358.01</course>
  <speed>18.4</speed>
  <fix>3d</fix>
</trkpt>
<trkpt lat="-27.2755737" lon="151.2901544">
  <ele>447.25</ele>
  <time>2026-09-01T19:58:59Z</time>
  <course>358.58</course>
  <speed>18.429129116700008</speed>
  <fix>3d</fix>
</trkpt>
<trkpt lat="-27.2756058" lon="151.2901555">
  <ele>447.1</ele>
  <time>2026-09-01T19:58:59Z</time>
  <course>358.09</course>
  <speed>18.42</speed>
  <fix>3d</fix>
</trkpt>
<trkpt lat="-27.2755571" lon="151.2901538">
  <ele>447.36</ele>
  <time>2026-09-01T19:58:59Z</time>
  <course>358.63</course>
  <speed>18.448807549540973</speed>
  <fix>3d</fix>
</trkpt>
<trkpt lat="-27.2756058" lon="151.2901555">
  <ele>447.1</ele>
  <time>2026-09-01T19:58:59Z</time>
  <course>358.09</course>
  <speed>18.42</speed>
  <fix>3d</fix>
</trkpt>
<trkpt lat="-27.2755405" lon="151.2901532">
  <ele>447.46</ele>
  <time>2026-09-01T19:58:59Z</time>
  <course>358.68</course>
  <speed>18.45849668851719</speed>
  <fix>3d</fix>
</trkpt>
<trkpt lat="-27.2755727" lon="151.2901542">
  <ele>447.31</ele>
  <time>2026-09-01T19:58:59Z</time>
  <course>358.16</course>
  <speed>18.44</speed>
  <fix>3d</fix>
</trkpt>
<trkpt lat="-27.2755238" lon="151.2901526">
  <ele>447.57</ele>
  <time>2026-09-01T19:58:59Z</time>
  <course>358.76</course>
  <speed>18.468191573621926</speed>
  <fix>3d</fix>
</trkpt>
<trkpt lat="-27.2755727" lon="151.2901542">
  <ele>447.31</ele>
  <time>2026-09-01T19:58:59Z</time>
  <course>358.16</course>
  <speed>18.44</speed>
  <fix>3d</fix>
</trkpt>
<trkpt lat="-27.2755071" lon="151.2901521">
  <ele>447.68</ele>
  <time>2026-09-01T19:58:59Z</time>
  <course>358.87</course>
  <speed>18.477892195810647</speed>
  <fix>3d</fix>
</trkpt>
<trkpt lat="-27.2755395" lon="151.2901531">
  <ele>447.53</ele>
  <time>2026-09-01T19:58:59Z</time>
  <course>358.23</course>
  <speed>18.46</speed>
  <fix>3d</fix>
</trkpt>
<trkpt lat="-27.2754905" lon="151.2901515">
  <ele>447.79</ele>
  <time>2026-09-01T19:58:59Z</time>
  <course>358.91</course>
  <speed>18.49731061533</speed>
  <fix>3d</fix>
</trkpt>
<trkpt lat="-27.2755395" lon="151.2901531">
  <ele>447.53</ele>
  <time>2026-09-01T19:58:59Z</time>
  <course>358.23</course>
  <speed>18.46</speed>
  <fix>3d</fix>
</trkpt>
<trkpt lat="-27.2754738" lon="151.290151">
  <ele>447.9</ele>
  <time>2026-09-01T19:58:59Z</time>
  <course>358.83</course>
  <speed>18.507028394639697</speed>
  <fix>3d</fix>
</trkpt>
<trkpt lat="-27.2755062" lon="151.290152">
  <ele>447.74</ele>
  <time>2026-09-01T19:58:59Z</time>
  <course>358.31</course>
  <speed>18.48</speed>
  <fix>3d</fix>
</trkpt>
<trkpt lat="-27.2754571" lon="151.2901505">
  <ele>448.01</ele>
  <time>2026-09-01T19:58:59Z</time>
  <course>358.83</course>
  <speed>18.526748230598916</speed>
  <fix>3d</fix>
</trkpt>
<trkpt lat="-27.2755062" lon="151.290152">
  <ele>447.74</ele>
  <time>2026-09-01T19:58:59Z</time>
  <course>358.31</course>
  <speed>18.48</speed>
  <fix>3d</fix>
</trkpt>
<trkpt lat="-27.2754404" lon="151.29015">
  <ele>448.13</ele>
  <time>2026-09-01T19:58:59Z</time>
  <course>358.89</course>
  <speed>18.53674459013772</speed>
  <fix>3d</fix>
</trkpt>
<trkpt lat="-27.2754731" lon="151.2901509">
  <ele>447.96</ele>
  <time>2026-09-01T19:58:59Z</time>
  <course>358.39</course>
  <speed>18.5</speed>
  <fix>3d</fix>
</trkpt>
<trkpt lat="-27.2754237" lon="151.2901494">
  <ele>448.25</ele>
  <time>2026-09-01T19:58:59Z</time>
  <course>358.96</course>
  <speed>18.556470569588388</speed>
  <fix>3d</fix>
</trkpt>
<trkpt lat="-27.2754731" lon="151.2901509">
  <ele>447.96</ele>
  <time>2026-09-01T19:58:59Z</time>
  <course>358.39</course>
  <speed>18.5</speed>
  <fix>3d</fix>
</trkpt>
<trkpt lat="-27.275407" lon="151.290149">
  <ele>448.37</ele>
  <time>2026-09-01T19:58:59Z</time>
  <course>359.0</course>
  <speed>18.576202518275903</speed>
  <fix>3d</fix>
</trkpt>
<trkpt lat="-27.2754398" lon="151.2901499">
  <ele>448.19</ele>
  <time>2026-09-01T19:58:59Z</time>
  <course>358.45</course>
  <speed>18.53</speed>
  <fix>3d</fix>
</trkpt>
<trkpt lat="-27.2753903" lon="151.2901485">
  <ele>448.49</ele>
  <time>2026-09-01T19:58:59Z</time>
  <course>358.99</course>
  <speed>18.60593722444532</speed>
  <fix>3d</fix>
</trkpt>
<trkpt lat="-27.2754398" lon="151.2901499">
  <ele>448.19</ele>
  <time>2026-09-01T19:58:59Z</time>
  <course>358.45</course>
  <speed>18.53</speed>
  <fix>3d</fix>
</trkpt>
<trkpt lat="-27.2753735" lon="151.290148">
  <ele>448.62</ele>
  <time>2026-09-01T19:58:59Z</time>
  <course>359.02</course>
  <speed>18.625930849222005</speed>
  <fix>3d</fix>
</trkpt>
<trkpt lat="-27.2754065" lon="151.2901489">
  <ele>448.43</ele>
  <time>2026-09-01T19:58:59Z</time>
  <course>358.5</course>
  <speed>18.56</speed>
  <fix>3d</fix>
</trkpt>
<trkpt lat="-27.2753568" lon="151.2901475">
  <ele>448.76</ele>
  <time>2026-09-01T19:58:59Z</time>
  <course>359.03</course>
  <speed>18.645675101749465</speed>
  <fix>3d</fix>
</trkpt>
<trkpt lat="-27.2754065" lon="151.2901489">
  <ele>448.43</ele>
  <time>2026-09-01T19:58:59Z</time>
  <course>358.5</course>
  <speed>18.56</speed>
  <fix>3d</fix>
</trkpt>
<trkpt lat="-27.27534" lon="151.2901471">
  <ele>448.89</ele>
  <time>2026-09-01T19:58:59Z</time>
  <course>359.05</course>
  <speed>18.67542235131511</speed>
  <fix>3d</fix>
</trkpt>
<trkpt lat="-27.2753732" lon="151.2901479">
  <ele>448.68</ele>
  <time>2026-09-01T19:58:59Z</time>
  <course>358.55</course>
  <speed>18.61</speed>
  <fix>3d</fix>
</trkpt>
<trkpt lat="-27.2753232" lon="151.2901466">
  <ele>449.03</ele>
  <time>2026-09-01T19:58:59Z</time>
  <course>359.04</course>
  <speed>18.695178522817052</speed>
  <fix>3d</fix>
</trkpt>
<trkpt lat="-27.2753732" lon="151.2901479">
  <ele>448.68</ele>
  <time>2026-09-01T19:58:59Z</time>
  <course>358.55</course>
  <speed>18.61</speed>
  <fix>3d</fix>
</trkpt>
<trkpt lat="-27.2753062" lon="151.2901461">
  <ele>449.18</ele>
  <time>2026-09-01T19:58:59Z</time>
  <course>359.05</course>
  <speed>18.72517022619554</speed>
  <fix>3d</fix>
</trkpt>
<trkpt lat="-27.2753397" lon="151.290147">
  <ele>448.95</ele>
  <time>2026-09-01T19:58:59Z</time>
  <course>358.59</course>
  <speed>18.65</speed>
  <fix>3d</fix>
</trkpt>
<trkpt lat="-27.2752894" lon="151.2901457">
  <ele>449.33</ele>
  <time>2026-09-01T19:58:59Z</time>
  <course>359.09</course>
  <speed>18.745164709865847</speed>
  <fix>3d</fix>
</trkpt>
<trkpt lat="-27.2753397" lon="151.290147">
  <ele>448.95</ele>
  <time>2026-09-01T19:58:59Z</time>
  <course>358.59</course>
  <speed>18.65</speed>
  <fix>3d</fix>
</trkpt>
<trkpt lat="-27.2752725" lon="151.2901452">
  <ele>449.49</ele>
  <time>2026-09-01T19:58:59Z</time>
  <course>359.14</course>
  <speed>18.77492476682663</speed>
  <fix>3d</fix>
</trkpt>
<trkpt lat="-27.2753062" lon="151.2901461">
  <ele>449.23</ele>
  <time>2026-09-01T19:58:59Z</time>
  <course>358.62</course>
  <speed>18.7</speed>
  <fix>3d</fix>
</trkpt>
<trkpt lat="-27.2752557" lon="151.2901448">
  <ele>449.65</ele>
  <time>2026-09-01T19:58:59Z</time>
  <course>359.21</course>
  <speed>18.794919526297527</speed>
  <fix>3d</fix>
</trkpt>
<trkpt lat="-27.2753062" lon="151.2901461">
  <ele>449.23</ele>
  <time>2026-09-01T19:58:59Z</time>
  <course>358.62</course>
  <speed>18.7</speed>
  <fix>3d</fix>
</trkpt>
<trkpt lat="-27.2752388" lon="151.2901444">
  <ele>449.82</ele>
  <time>2026-09-01T19:58:59Z</time>
  <course>359.26</course>
  <speed>18.82491168637983</speed>
  <fix>3d</fix>
</trkpt>
<trkpt lat="-27.2752725" lon="151.2901452">
  <ele>449.54</ele>
  <time>2026-09-01T19:58:59Z</time>
  <course>358.64</course>
  <speed>18.75</speed>
  <fix>3d</fix>
</trkpt>
<trkpt lat="-27.2752219" lon="151.2901439">
  <ele>449.99</ele>
  <time>2026-09-01T19:58:59Z</time>
  <course>359.25</course>
  <speed>18.854678464508485</speed>
  <fix>3d</fix>
</trkpt>
<trkpt lat="-27.2752725" lon="151.2901452">
  <ele>449.54</ele>
  <time>2026-09-01T19:58:59Z</time>
  <course>358.64</course>
  <speed>18.75</speed>
  <fix>3d</fix>
</trkpt>
<trkpt lat="-27.2752049" lon="151.2901435">
  <ele>450.17</ele>
  <time>2026-09-01T19:58:59Z</time>
  <course>359.31</course>
  <speed>18.884671032347903</speed>
  <fix>3d</fix>
</trkpt>
<trkpt lat="-27.2752388" lon="151.2901443">
  <ele>449.87</ele>
  <time>2026-09-01T19:58:59Z</time>
  <course>358.67</course>
  <speed>18.81</speed>
  <fix>3d</fix>
</trkpt>
<trkpt lat="-27.275188" lon="151.2901431">
  <ele>450.35</ele>
  <time>2026-09-01T19:58:59Z</time>
  <course>359.27</course>
  <speed>18.914444215995353</speed>
  <fix>3d</fix>
</trkpt>
<trkpt lat="-27.2752388" lon="151.2901443">
  <ele>449.87</ele>
  <time>2026-09-01T19:58:59Z</time>
  <course>358.67</course>
  <speed>18.81</speed>
  <fix>3d</fix>
</trkpt>
<trkpt lat="-27.275171" lon="151.2901426">
  <ele>450.54</ele>
  <time>2026-09-01T19:58:59Z</time>
  <course>359.28</course>
  <speed>18.94443717823256</speed>
  <fix>3d</fix>
</trkpt>
<trkpt lat="-27.2752049" lon="151.2901435">
  <ele>450.22</ele>
  <time>2026-09-01T19:58:59Z</time>
  <course>358.71</course>
  <speed>18.86</speed>
  <fix>3d</fix>
</trkpt>
<trkpt lat="-27.275154" lon="151.2901422">
  <ele>450.73</ele>
  <time>2026-09-01T19:58:59Z</time>
  <course>359.3</course>
  <speed>18.964432498759354</speed>
  <fix>3d</fix>
</trkpt>
<trkpt lat="-27.2752049" lon="151.2901435">
  <ele>450.22</ele>
  <time>2026-09-01T19:58:59Z</time>
  <course>358.71</course>
  <speed>18.86</speed>
  <fix>3d</fix>
</trkpt>
<trkpt lat="-27.2751369" lon="151.2901418">
  <ele>450.92</ele>
  <time>2026-09-01T19:58:59Z</time>
  <course>359.31</course>
  <speed>19.00442316935718</speed>
  <fix>3d</fix>
</trkpt>
<trkpt lat="-27.2751709" lon="151.2901426">
  <ele>450.58</ele>
  <time>2026-09-01T19:58:59Z</time>
  <course>358.73</course>
  <speed>18.92</speed>
  <fix>3d</fix>
</trkpt>
<trkpt lat="-27.2751198" lon="151.2901414">
  <ele>451.11</ele>
  <time>2026-09-01T19:58:59Z</time>
  <course>359.27</course>
  <speed>19.044413879140517</speed>
  <fix>3d</fix>
</trkpt>
<trkpt lat="-27.2751709" lon="151.2901426">
  <ele>450.58</ele>
  <time>2026-09-01T19:58:59Z</time>
  <course>358.73</course>
  <speed>18.92</speed>
  <fix>3d</fix>
</trkpt>
<trkpt lat="-27.2751027" lon="151.290141">
  <ele>451.31</ele>
  <time>2026-09-01T19:58:59Z</time>
  <course>359.23</course>
  <speed>19.084404627863034</speed>
  <fix>3d</fix>
</trkpt>
<trkpt lat="-27.2751369" lon="151.2901417">
  <ele>450.96</ele>
  <time>2026-09-01T19:58:59Z</time>
  <course>358.74</course>
  <speed>18.99</speed>
  <fix>3d</fix>
</trkpt>
<trkpt lat="-27.2750856" lon="151.2901406">
  <ele>451.5</ele>
  <time>2026-09-01T19:58:59Z</time>
  <course>359.25</course>
  <speed>19.124395415280453</speed>
  <fix>3d</fix>
</trkpt>
<trkpt lat="-27.2751369" lon="151.2901417">
  <ele>450.96</ele>
  <time>2026-09-01T19:58:59Z</time>
  <course>358.74</course>
  <speed>18.99</speed>
  <fix>3d</fix>
</trkpt>
<trkpt lat="-27.2750684" lon="151.2901401">
  <ele>451.7</ele>
  <time>2026-09-01T19:58:59Z</time>
  <course>359.26</course>
  <speed>19.174383953598092</speed>
  <fix>3d</fix>
</trkpt>
<trkpt lat="-27.2751027" lon="151.2901409">
  <ele>451.35</ele>
  <time>2026-09-01T19:58:59Z</time>
  <course>358.75</course>
  <speed>19.07</speed>
  <fix>3d</fix>
</trkpt>
<trkpt lat="-27.2750511" lon="151.2901397">
  <ele>451.89</ele>
  <time>2026-09-01T19:58:59Z</time>
  <course>359.23</course>
  <speed>19.224372551529477</speed>
  <fix>3d</fix>
</trkpt>
<trkpt lat="-27.2751027" lon="151.2901409">
  <ele>451.35</ele>
  <time>2026-09-01T19:58:59Z</time>
  <course>358.75</course>
  <speed>19.07</speed>
  <fix>3d</fix>
</trkpt>
<trkpt lat="-27.2750339" lon="151.2901393">
  <ele>452.08</ele>
  <time>2026-09-01T19:58:59Z</time>
  <course>359.23</course>
  <speed>19.27436120861078</speed>
  <fix>3d</fix>
</trkpt>
<trkpt lat="-27.2750684" lon="151.2901401">
  <ele>451.73</ele>
  <time>2026-09-01T19:58:59Z</time>
  <course>358.74</course>
  <speed>19.16</speed>
  <fix>3d</fix>
</trkpt>
<trkpt lat="-27.2750165" lon="151.2901389">
  <ele>452.27</ele>
  <time>2026-09-01T19:58:59Z</time>
  <course>359.19</course>
  <speed>19.324564678149933</speed>
  <fix>3d</fix>
</trkpt>
<trkpt lat="-27.2750684" lon="151.2901401">
  <ele>451.73</ele>
  <time>2026-09-01T19:58:59Z</time>
  <course>358.74</course>
  <speed>19.16</speed>
  <fix>3d</fix>
</trkpt>
<trkpt lat="-27.2749992" lon="151.2901384">
  <ele>452.46</ele>
  <time>2026-09-01T19:58:59Z</time>
  <course>359.14</course>
  <speed>19.384550549342123</speed>
  <fix>3d</fix>
</trkpt>
<trkpt lat="-27.2750338" lon="151.2901392">
  <ele>452.12</ele>
  <time>2026-09-01T19:58:59Z</time>
  <course>358.73</course>
  <speed>19.26</speed>
  <fix>3d</fix>
</trkpt>
<trkpt lat="-27.2749817" lon="151.290138">
  <ele>452.64</ele>
  <time>2026-09-01T19:58:59Z</time>
  <course>359.16</course>
  <speed>19.444755076883844</speed>
  <fix>3d</fix>
</trkpt>
<trkpt lat="-27.2750338" lon="151.2901392">
  <ele>452.12</ele>
  <time>2026-09-01T19:58:59Z</time>
  <course>358.73</course>
  <speed>19.26</speed>
  <fix>3d</fix>
</trkpt>
<trkpt lat="-27.2749644" lon="151.2901375">
  <ele>452.83</ele>
  <time>2026-09-01T19:58:59Z</time>
  <course>359.25</course>
  <speed>19.514738020275853</speed>
  <fix>3d</fix>
</trkpt>
<trkpt lat="-27.2749991" lon="151.2901383">
  <ele>452.5</ele>
  <time>2026-09-01T19:58:59Z</time>
  <course>358.71</course>
  <speed>19.38</speed>
  <fix>3d</fix>
</trkpt>
<trkpt lat="-27.2749468" lon="151.2901371">
  <ele>453.01</ele>
  <time>2026-09-01T19:58:59Z</time>
  <course>359.33</course>
  <speed>19.57472349740859</speed>
  <fix>3d</fix>
</trkpt>
<trkpt lat="-27.2749991" lon="151.2901383">
  <ele>452.5</ele>
  <time>2026-09-01T19:58:59Z</time>
  <course>358.71</course>
  <speed>19.38</speed>
  <fix>3d</fix>
</trkpt>
<trkpt lat="-27.2749292" lon="151.2901366">
  <ele>453.18</ele>
  <time>2026-09-01T19:58:59Z</time>
  <course>359.28</course>
  <speed>19.644706666173462</speed>
  <fix>3d</fix>
</trkpt>
<trkpt lat="-27.2749643" lon="151.2901374">
  <ele>452.87</ele>
  <time>2026-09-01T19:58:59Z</time>
  <course>358.69</course>
  <speed>19.5</speed>
  <fix>3d</fix>
</trkpt>
<trkpt lat="-27.2749115" lon="151.2901362">
  <ele>453.36</ele>
  <time>2026-09-01T19:58:59Z</time>
  <course>359.23</course>
  <speed>19.724687576739967</speed>
  <fix>3d</fix>
</trkpt>
<trkpt lat="-27.2749643" lon="151.2901374">
  <ele>452.87</ele>
  <time>2026-09-01T19:58:59Z</time>
  <course>358.69</course>
  <speed>19.5</speed>
  <fix>3d</fix>
</trkpt>
<trkpt lat="-27.2748935" lon="151.2901357">
  <ele>453.53</ele>
  <time>2026-09-01T19:58:59Z</time>
  <course>359.15</course>
  <speed>19.804888285471343</speed>
  <fix>3d</fix>
</trkpt>
<trkpt lat="-27.2749291" lon="151.2901365">
  <ele>453.22</ele>
  <time>2026-09-01T19:58:59Z</time>
  <course>358.68</course>
  <speed>19.64</speed>
  <fix>3d</fix>
</trkpt>
<trkpt lat="-27.2748757" lon="151.2901353">
  <ele>453.7</ele>
  <time>2026-09-01T19:58:59Z</time>
  <course>359.14</course>
  <speed>19.88509240612173</speed>
  <fix>3d</fix>
</trkpt>
<trkpt lat="-27.2749291" lon="151.2901365">
  <ele>453.22</ele>
  <time>2026-09-01T19:58:59Z</time>
  <course>358.68</course>
  <speed>19.64</speed>
  <fix>3d</fix>
</trkpt>
<trkpt lat="-27.2748579" lon="151.2901348">
  <ele>453.86</ele>
  <time>2026-09-01T19:58:59Z</time>
  <course>359.14</course>
  <speed>19.965299897572287</speed>
  <fix>3d</fix>
</trkpt>
<trkpt lat="-27.2748937" lon="151.2901356">
  <ele>453.56</ele>
  <time>2026-09-01T19:58:59Z</time>
  <course>358.67</course>
  <speed>19.8</speed>
  <fix>3d</fix>
</trkpt>
<trkpt lat="-27.27484" lon="151.2901343">
  <ele>454.02</ele>
  <time>2026-09-01T19:58:59Z</time>
  <course>359.13</course>
  <speed>20.05527611378113</speed>
  <fix>3d</fix>
</trkpt>
<trkpt lat="-27.2748937" lon="151.2901356">
  <ele>453.56</ele>
  <time>2026-09-01T19:58:59Z</time>
  <course>358.67</course>
  <speed>19.8</speed>
  <fix>3d</fix>
</trkpt>
<trkpt lat="-27.2748221" lon="151.2901338">
  <ele>454.18</ele>
  <time>2026-09-01T19:58:59Z</time>
  <course>359.18</course>
  <speed>20.135486087998967</speed>
  <fix>3d</fix>
</trkpt>
<trkpt lat="-27.274858" lon="151.2901347">
  <ele>453.89</ele>
  <time>2026-09-01T19:58:59Z</time>
  <course>358.65</course>
  <speed>19.97</speed>
  <fix>3d</fix>
</trkpt>
<trkpt lat="-27.2748041" lon="151.2901334">
  <ele>454.33</ele>
  <time>2026-09-01T19:58:59Z</time>
  <course>359.23</course>
  <speed>20.22546167581843</speed>
  <fix>3d</fix>
</trkpt>
<trkpt lat="-27.274858" lon="151.2901347">
  <ele>453.89</ele>
  <time>2026-09-01T19:58:59Z</time>
  <course>358.65</course>
  <speed>19.97</speed>
  <fix>3d</fix>
</trkpt>
<trkpt lat="-27.274786" lon="151.2901329">
  <ele>454.48</ele>
  <time>2026-09-01T19:58:59Z</time>
  <course>359.2</course>
  <speed>20.32543480469729</speed>
  <fix>3d</fix>
</trkpt>
<trkpt lat="-27.2748219" lon="151.2901337">
  <ele>454.2</ele>
  <time>2026-09-01T19:58:59Z</time>
  <course>358.63</course>
  <speed>20.15</speed>
  <fix>3d</fix>
</trkpt>
<trkpt lat="-27.2747678" lon="151.2901324">
  <ele>454.63</ele>
  <time>2026-09-01T19:58:59Z</time>
  <course>359.16</course>
  <speed>20.425408196655457</speed>
  <fix>3d</fix>
</trkpt>
<trkpt lat="-27.2748219" lon="151.2901337">
  <ele>454.2</ele>
  <time>2026-09-01T19:58:59Z</time>
  <course>358.63</course>
  <speed>20.15</speed>
  <fix>3d</fix>
</trkpt>
<trkpt lat="-27.2747495" lon="151.2901319">
  <ele>454.77</ele>
  <time>2026-09-01T19:58:59Z</time>
  <course>359.15</course>
  <speed>20.525613267330165</speed>
  <fix>3d</fix>
</trkpt>
<trkpt lat="-27.2747854" lon="151.2901327">
  <ele>454.51</ele>
  <time>2026-09-01T19:58:59Z</time>
  <course>358.61</course>
  <speed>20.35</speed>
  <fix>3d</fix>
</trkpt>
<trkpt lat="-27.2747311" lon="151.2901314">
  <ele>454.91</ele>
  <time>2026-09-01T19:58:59Z</time>
  <course>359.16</course>
  <speed>20.635583345280065</speed>
  <fix>3d</fix>
</trkpt>
<trkpt lat="-27.2747854" lon="151.2901327">
  <ele>454.51</ele>
  <time>2026-09-01T19:58:59Z</time>
  <course>358.61</course>
  <speed>20.35</speed>
  <fix>3d</fix>
</trkpt>
<trkpt lat="-27.2747125" lon="151.2901309">
  <ele>455.01</ele>
  <time>2026-09-01T19:58:59Z</time>
  <course>359.19</course>
  <speed>20.785776386750626</speed>
  <fix>3d</fix>
</trkpt>
<trkpt lat="-27.2747487" lon="151.2901317">
  <ele>454.8</ele>
  <time>2026-09-01T19:58:59Z</time>
  <course>358.6</course>
  <speed>20.56</speed>
  <fix>3d</fix>
</trkpt>
<trkpt lat="-27.2746938" lon="151.2901304">
  <ele>455.07</ele>
  <time>2026-09-01T19:58:59Z</time>
  <course>359.15</course>
  <speed>20.95572952679052</speed>
  <fix>3d</fix>
</trkpt>
<trkpt lat="-27.2747487" lon="151.2901317">
  <ele>454.8</ele>
  <time>2026-09-01T19:58:59Z</time>
  <course>358.6</course>
  <speed>20.56</speed>
  <fix>3d</fix>
</trkpt>
<trkpt lat="-27.2746749" lon="151.2901299">
  <ele>455.09</ele>
  <time>2026-09-01T19:58:59Z</time>
  <course>359.1</course>
  <speed>21.13568073188086</speed>
  <fix>3d</fix>
</trkpt>
<trkpt lat="-27.2747115" lon="151.2901307">
  <ele>455.02</ele>
  <time>2026-09-01T19:58:59Z</time>
  <course>358.6</course>
  <speed>20.83</speed>
  <fix>3d</fix>
</trkpt>
<trkpt lat="-27.2746559" lon="151.2901293">
  <ele>455.09</ele>
  <time>2026-09-01T19:58:59Z</time>
  <course>359.06</course>
  <speed>21.315864983621942</speed>
  <fix>3d</fix>
</trkpt>
<trkpt lat="-27.2747115" lon="151.2901307">
  <ele>455.02</ele>
  <time>2026-09-01T19:58:59Z</time>
  <course>358.6</course>
  <speed>20.83</speed>
  <fix>3d</fix>
</trkpt>
<trkpt lat="-27.2746367" lon="151.2901288">
  <ele>455.09</ele>
  <time>2026-09-01T19:58:59Z</time>
  <course>359.03</course>
  <speed>21.506047986554854</speed>
  <fix>3d</fix>
</trkpt>
<trkpt lat="-27.2746738" lon="151.2901297">
  <ele>455.11</ele>
  <time>2026-09-01T19:58:59Z</time>
  <course>358.59</course>
  <speed>21.17</speed>
  <fix>3d</fix>
</trkpt>
<trkpt lat="-27.2746173" lon="151.2901283">
  <ele>455.09</ele>
  <time>2026-09-01T19:58:59Z</time>
  <course>359.1</course>
  <speed>21.686235265716363</speed>
  <fix>3d</fix>
</trkpt>
<trkpt lat="-27.2746738" lon="151.2901297">
  <ele>455.11</ele>
  <time>2026-09-01T19:58:59Z</time>
  <course>358.59</course>
  <speed>21.17</speed>
  <fix>3d</fix>
</trkpt>
<trkpt lat="-27.2745977" lon="151.2901277">
  <ele>455.1</ele>
  <time>2026-09-01T19:58:59Z</time>
  <course>359.14</course>
  <speed>21.87642109669678</speed>
  <fix>3d</fix>
</trkpt>
<trkpt lat="-27.2746355" lon="151.2901286">
  <ele>455.12</ele>
  <time>2026-09-01T19:58:59Z</time>
  <course>358.56</course>
  <speed>21.54</speed>
  <fix>3d</fix>
</trkpt>
<trkpt lat="-27.2745782" lon="151.2901272">
  <ele>455.13</ele>
  <time>2026-09-01T19:58:59Z</time>
  <course>359.21</course>
  <speed>22.056368694778385</speed>
  <fix>3d</fix>
</trkpt>
<trkpt lat="-27.2746355" lon="151.2901286">
  <ele>455.12</ele>
  <time>2026-09-01T19:58:59Z</time>
  <course>358.56</course>
  <speed>21.54</speed>
  <fix>3d</fix>
</trkpt>
<trkpt lat="-27.2745583" lon="151.2901266">
  <ele>455.17</ele>
  <time>2026-09-01T19:58:59Z</time>
  <course>359.21</course>
  <speed>22.24631430147475</speed>
  <fix>3d</fix>
</trkpt>
<trkpt lat="-27.2745965" lon="151.2901275">
  <ele>455.14</ele>
  <time>2026-09-01T19:58:59Z</time>
  <course>358.54</course>
  <speed>21.92</speed>
  <fix>3d</fix>
</trkpt>
<trkpt lat="-27.2745382" lon="151.2901261">
  <ele>455.23</ele>
  <time>2026-09-01T19:58:59Z</time>
  <course>359.19</course>
  <speed>22.41603220911319</speed>
  <fix>3d</fix>
</trkpt>
<trkpt lat="-27.2745965" lon="151.2901275">
  <ele>455.14</ele>
  <time>2026-09-01T19:58:59Z</time>
  <course>358.54</course>
  <speed>21.92</speed>
  <fix>3d</fix>
</trkpt>
<trkpt lat="-27.274518" lon="151.2901255">
  <ele>455.31</ele>
  <time>2026-09-01T19:58:59Z</time>
  <course>359.18</course>
  <speed>22.585986805982156</speed>
  <fix>3d</fix>
</trkpt>
<trkpt lat="-27.2745568" lon="151.2901264">
  <ele>455.21</ele>
  <time>2026-09-01T19:58:59Z</time>
  <course>358.55</course>
  <speed>22.29</speed>
  <fix>3d</fix>
</trkpt>
<trkpt lat="-27.2744975" lon="151.2901249">
  <ele>455.42</ele>
  <time>2026-09-01T19:58:59Z</time>
  <course>359.19</course>
  <speed>22.755942081135643</speed>
  <fix>3d</fix>
</trkpt>
<trkpt lat="-27.2745568" lon="151.2901264">
  <ele>455.21</ele>
  <time>2026-09-01T19:58:59Z</time>
  <course>358.55</course>
  <speed>22.29</speed>
  <fix>3d</fix>
</trkpt>
<trkpt lat="-27.274477" lon="151.2901244">
  <ele>455.54</ele>
  <time>2026-09-01T19:58:59Z</time>
  <course>359.21</course>
  <speed>22.9159005932562</speed>
  <fix>3d</fix>
</trkpt>
<trkpt lat="-27.2745164" lon="151.2901252">
  <ele>455.35</ele>
  <time>2026-09-01T19:58:59Z</time>
  <course>358.58</course>
  <speed>22.64</speed>
  <fix>3d</fix>
</trkpt>
<trkpt lat="-27.2744563" lon="151.2901238">
  <ele>455.69</ele>
  <time>2026-09-01T19:58:59Z</time>
  <course>359.21</course>
  <speed>23.075859680627286</speed>
  <fix>3d</fix>
</trkpt>
<trkpt lat="-27.2745164" lon="151.2901252">
  <ele>455.35</ele>
  <time>2026-09-01T19:58:59Z</time>
  <course>358.58</course>
  <speed>22.64</speed>
  <fix>3d</fix>
</trkpt>
<trkpt lat="-27.2744355" lon="151.2901233">
  <ele>455.85</ele>
  <time>2026-09-01T19:58:59Z</time>
  <course>359.16</course>
  <speed>23.235819331368543</speed>
  <fix>3d</fix>
</trkpt>
<trkpt lat="-27.2744755" lon="151.2901241">
  <ele>455.57</ele>
  <time>2026-09-01T19:58:59Z</time>
  <course>358.6</course>
  <speed>22.97</speed>
  <fix>3d</fix>
</trkpt>
<trkpt lat="-27.2744146" lon="151.2901227">
  <ele>456.03</ele>
  <time>2026-09-01T19:58:59Z</time>
  <course>359.16</course>
  <speed>23.375784478814822</speed>
  <fix>3d</fix>
</trkpt>
<trkpt lat="-27.2744755" lon="151.2901241">
  <ele>455.57</ele>
  <time>2026-09-01T19:58:59Z</time>
  <course>358.6</course>
  <speed>22.97</speed>
  <fix>3d</fix>
</trkpt>
<trkpt lat="-27.2743935" lon="151.2901222">
  <ele>456.23</ele>
  <time>2026-09-01T19:58:59Z</time>
  <course>359.22</course>
  <speed>23.525747597047793</speed>
  <fix>3d</fix>
</trkpt>
<trkpt lat="-27.2744339" lon="151.290123">
  <ele>455.88</ele>
  <time>2026-09-01T19:58:59Z</time>
  <course>358.62</course>
  <speed>23.28</speed>
  <fix>3d</fix>
</trkpt>
<trkpt lat="-27.2743723" lon="151.2901216">
  <ele>456.44</ele>
  <time>2026-09-01T19:58:59Z</time>
  <course>359.22</course>
  <speed>23.665713595833108</speed>
  <fix>3d</fix>
</trkpt>
<trkpt lat="-27.2744339" lon="151.290123">
  <ele>455.88</ele>
  <time>2026-09-01T19:58:59Z</time>
  <course>358.62</course>
  <speed>23.28</speed>
  <fix>3d</fix>
</trkpt>
<trkpt lat="-27.2743508" lon="151.290121">
  <ele>456.66</ele>
  <time>2026-09-01T19:58:59Z</time>
  <course>359.1</course>
  <speed>23.805900529070517</speed>
  <fix>3d</fix>
</trkpt>
<trkpt lat="-27.2743917" lon="151.2901218">
  <ele>456.25</ele>
  <time>2026-09-01T19:58:59Z</time>
  <course>358.63</course>
  <speed>23.58</speed>
  <fix>3d</fix>
</trkpt>
<trkpt lat="-27.2743293" lon="151.2901205">
  <ele>456.89</ele>
  <time>2026-09-01T19:58:59Z</time>
  <course>359.06</course>
  <speed>23.956086909176133</speed>
  <fix>3d</fix>
</trkpt>
<trkpt lat="-27.2743917" lon="151.2901218">
  <ele>456.25</ele>
  <time>2026-09-01T19:58:59Z</time>
  <course>358.63</course>
  <speed>23.58</speed>
  <fix>3d</fix>
</trkpt>
<trkpt lat="-27.2743077" lon="151.2901199">
  <ele>457.13</ele>
  <time>2026-09-01T19:58:59Z</time>
  <course>359.13</course>
  <speed>24.1062751166579</speed>
  <fix>3d</fix>
</trkpt>
<trkpt lat="-27.2743491" lon="151.2901207">
  <ele>456.67</ele>
  <time>2026-09-01T19:58:59Z</time>
  <course>358.61</course>
  <speed>23.87</speed>
  <fix>3d</fix>
</trkpt>
<trkpt lat="-27.2742859" lon="151.2901193">
  <ele>457.37</ele>
  <time>2026-09-01T19:58:59Z</time>
  <course>359.14</course>
  <speed>24.24646778398866</speed>
  <fix>3d</fix>
</trkpt>
<trkpt lat="-27.2743491" lon="151.2901207">
  <ele>456.67</ele>
  <time>2026-09-01T19:58:59Z</time>
  <course>358.61</course>
  <speed>23.87</speed>
  <fix>3d</fix>
</trkpt>
<trkpt lat="-27.274264" lon="151.2901187">
  <ele>457.62</ele>
  <time>2026-09-01T19:58:59Z</time>
  <course>359.14</course>
  <speed>24.38666233825367</speed>
  <fix>3d</fix>
</trkpt>
<trkpt lat="-27.2743059" lon="151.2901195">
  <ele>457.14</ele>
  <time>2026-09-01T19:58:59Z</time>
  <course>358.58</course>
  <speed>24.16</speed>
  <fix>3d</fix>
</trkpt>
<trkpt lat="-27.274242" lon="151.290118">
  <ele>457.88</ele>
  <time>2026-09-01T19:58:59Z</time>
  <course>359.1</course>
  <speed>24.5068643445056</speed>
  <fix>3d</fix>
</trkpt>
<trkpt lat="-27.2743059" lon="151.2901195">
  <ele>457.14</ele>
  <time>2026-09-01T19:58:59Z</time>
  <course>358.58</course>
  <speed>24.16</speed>
  <fix>3d</fix>
</trkpt>
<trkpt lat="-27.2742198" lon="151.2901174">
  <ele>458.15</ele>
  <time>2026-09-01T19:58:59Z</time>
  <course>359.07</course>
  <speed>24.6365947322271</speed>
  <fix>3d</fix>
</trkpt>
<trkpt lat="-27.2742623" lon="151.2901183">
  <ele>457.63</ele>
  <time>2026-09-01T19:58:59Z</time>
  <course>358.56</course>
  <speed>24.43</speed>
  <fix>3d</fix>
</trkpt>
<trkpt lat="-27.2741976" lon="151.2901168">
  <ele>458.43</ele>
  <time>2026-09-01T19:58:59Z</time>
  <course>359.09</course>
  <speed>24.756562766264622</speed>
  <fix>3d</fix>
</trkpt>
<trkpt lat="-27.2742623" lon="151.2901183">
  <ele>457.63</ele>
  <time>2026-09-01T19:58:59Z</time>
  <course>358.56</course>
  <speed>24.43</speed>
  <fix>3d</fix>
</trkpt>
<trkpt lat="-27.2741752" lon="151.2901162">
  <ele>458.71</ele>
  <time>2026-09-01T19:58:59Z</time>
  <course>359.19</course>
  <speed>24.856767690108057</speed>
  <fix>3d</fix>
</trkpt>
<trkpt lat="-27.2742182" lon="151.290117">
  <ele>458.15</ele>
  <time>2026-09-01T19:58:59Z</time>
  <course>358.56</course>
  <speed>24.69</speed>
  <fix>3d</fix>
</trkpt>
<trkpt lat="-27.2741528" lon="151.2901156">
  <ele>459.0</ele>
  <time>2026-09-01T19:58:59Z</time>
  <course>359.24</course>
  <speed>24.96650756513614</speed>
  <fix>3d</fix>
</trkpt>
<trkpt lat="-27.2742182" lon="151.290117">
  <ele>458.15</ele>
  <time>2026-09-01T19:58:59Z</time>
  <course>358.56</course>
  <speed>24.69</speed>
  <fix>3d</fix>
</trkpt>
<trkpt lat="-27.2741304" lon="151.2901149">
  <ele>459.29</ele>
  <time>2026-09-01T19:58:59Z</time>
  <course>359.24</course>
  <speed>25.066481603926785</speed>
  <fix>3d</fix>
</trkpt>
<trkpt lat="-27.2741737" lon="151.2901158">
  <ele>458.7</ele>
  <time>2026-09-01T19:58:59Z</time>
  <course>358.58</course>
  <speed>24.91</speed>
  <fix>3d</fix>
</trkpt>
<trkpt lat="-27.2741078" lon="151.2901143">
  <ele>459.58</ele>
  <time>2026-09-01T19:58:59Z</time>
  <course>359.18</course>
  <speed>25.166455849006628</speed>
  <fix>3d</fix>
</trkpt>
<trkpt lat="-27.2741737" lon="151.2901158">
  <ele>458.7</ele>
  <time>2026-09-01T19:58:59Z</time>
  <course>358.58</course>
  <speed>24.91</speed>
  <fix>3d</fix>
</trkpt>
<trkpt lat="-27.2740851" lon="151.2901137">
  <ele>459.88</ele>
  <time>2026-09-01T19:58:59Z</time>
  <course>359.13</course>
  <speed>25.25666050767599</speed>
  <fix>3d</fix>
</trkpt>
<trkpt lat="-27.2741288" lon="151.2901145">
  <ele>459.28</ele>
  <time>2026-09-01T19:58:59Z</time>
  <course>358.6</course>
  <speed>25.11</speed>
  <fix>3d</fix>
</trkpt>
<trkpt lat="-27.2740623" lon="151.2901131">
  <ele>460.18</ele>
  <time>2026-09-01T19:58:59Z</time>
  <course>359.08</course>
  <speed>25.336639477247175</speed>
  <fix>3d</fix>
</trkpt>
<trkpt lat="-27.2741288" lon="151.2901145">
  <ele>459.28</ele>
  <time>2026-09-01T19:58:59Z</time>
  <course>358.6</course>
  <speed>25.11</speed>
  <fix>3d</fix>
</trkpt>
<trkpt lat="-27.2740393" lon="151.2901124">
  <ele>460.49</ele>
  <time>2026-09-01T19:58:59Z</time>
  <course>359.0</course>
  <speed>25.42708005257387</speed>
  <fix>3d</fix>
</trkpt>
<trkpt lat="-27.2740835" lon="151.2901133">
  <ele>459.87</ele>
  <time>2026-09-01T19:58:59Z</time>
  <course>358.6</course>
  <speed>25.3</speed>
  <fix>3d</fix>
</trkpt>
<trkpt lat="-27.2740164" lon="151.2901118">
  <ele>460.8</ele>
  <time>2026-09-01T19:58:59Z</time>
  <course>359.05</course>
  <speed>25.49729789605165</speed>
  <fix>3d</fix>
</trkpt>
<trkpt lat="-27.2740835" lon="151.2901133">
  <ele>459.87</ele>
  <time>2026-09-01T19:58:59Z</time>
  <course>358.6</course>
  <speed>25.3</speed>
  <fix>3d</fix>
</trkpt>
<trkpt lat="-27.2739934" lon="151.2901111">
  <ele>461.1</ele>
  <time>2026-09-01T19:58:59Z</time>
  <course>359.16</course>
  <speed>25.567518456041057</speed>
  <fix>3d</fix>
</trkpt>
<trkpt lat="-27.2740379" lon="151.290112">
  <ele>460.47</ele>
  <time>2026-09-01T19:58:59Z</time>
  <course>358.58</course>
  <speed>25.46</speed>
  <fix>3d</fix>
</trkpt>
<trkpt lat="-27.2739704" lon="151.2901104">
  <ele>461.4</ele>
  <time>2026-09-01T19:58:59Z</time>
  <course>359.13</course>
  <speed>25.607750779793214</speed>
  <fix>3d</fix>
</trkpt>
<trkpt lat="-27.2740379" lon="151.290112">
  <ele>460.47</ele>
  <time>2026-09-01T19:58:59Z</time>
  <course>358.58</course>
  <speed>25.46</speed>
  <fix>3d</fix>
</trkpt>
<trkpt lat="-27.2739473" lon="151.2901098">
  <ele>461.71</ele>
  <time>2026-09-01T19:58:59Z</time>
  <course>359.1</course>
  <speed>25.597753807707427</speed>
  <fix>3d</fix>
</trkpt>
<trkpt lat="-27.273992" lon="151.2901107">
  <ele>461.08</ele>
  <time>2026-09-01T19:58:59Z</time>
  <course>358.54</course>
  <speed>25.6</speed>
  <fix>3d</fix>
</trkpt>
<trkpt lat="-27.2739243" lon="151.2901091">
  <ele>462.01</ele>
  <time>2026-09-01T19:58:59Z</time>
  <course>359.12</course>
  <speed>25.518026961346365</speed>
  <fix>3d</fix>
</trkpt>
<trkpt lat="-27.273992" lon="151.2901107">
  <ele>461.08</ele>
  <time>2026-09-01T19:58:59Z</time>
  <course>358.54</course>
  <speed>25.6</speed>
  <fix>3d</fix>
</trkpt>
<trkpt lat="-27.2739014" lon="151.2901084">
  <ele>462.31</ele>
  <time>2026-09-01T19:58:59Z</time>
  <course>359.07</course>
  <speed>25.41780871751143</speed>
  <fix>3d</fix>
</trkpt>
<trkpt lat="-27.2739459" lon="151.2901094">
  <ele>461.69</ele>
  <time>2026-09-01T19:58:59Z</time>
  <course>358.52</course>
  <speed>25.6</speed>
  <fix>3d</fix>
</trkpt>
<trkpt lat="-27.2738786" lon="151.2901077">
  <ele>462.59</ele>
  <time>2026-09-01T19:58:59Z</time>
  <course>359.05</course>
  <speed>25.318090370326118</speed>
  <fix>3d</fix>
</trkpt>
<trkpt lat="-27.2739459" lon="151.2901094">
  <ele>461.69</ele>
  <time>2026-09-01T19:58:59Z</time>
  <course>358.52</course>
  <speed>25.6</speed>
  <fix>3d</fix>
</trkpt>
<trkpt lat="-27.2738558" lon="151.290107">
  <ele>462.87</ele>
  <time>2026-09-01T19:58:59Z</time>
  <course>359.06</course>
  <speed>25.227867527795528</speed>
  <fix>3d</fix>
</trkpt>
<trkpt lat="-27.2739" lon="151.2901081">
  <ele>462.28</ele>
  <time>2026-09-01T19:58:59Z</time>
  <course>358.5</course>
  <speed>25.45</speed>
  <fix>3d</fix>
</trkpt>
<trkpt lat="-27.2738331" lon="151.2901064">
  <ele>463.13</ele>
  <time>2026-09-01T19:58:59Z</time>
  <course>359.09</course>
  <speed>25.167886283913475</speed>
  <fix>3d</fix>
</trkpt>
<trkpt lat="-27.2739" lon="151.2901081">
  <ele>462.28</ele>
  <time>2026-09-01T19:58:59Z</time>
  <course>358.5</course>
  <speed>25.45</speed>
  <fix>3d</fix>
</trkpt>
<trkpt lat="-27.2738105" lon="151.2901057">
  <ele>463.37</ele>
  <time>2026-09-01T19:58:59Z</time>
  <course>359.11</course>
  <speed>25.12765010899348</speed>
  <fix>3d</fix>
</trkpt>
<trkpt lat="-27.2738545" lon="151.2901068">
  <ele>462.84</ele>
  <time>2026-09-01T19:58:59Z</time>
  <course>358.51</course>
  <speed>25.27</speed>
  <fix>3d</fix>
</trkpt>
<trkpt lat="-27.2737879" lon="151.2901051">
  <ele>463.6</ele>
  <time>2026-09-01T19:58:59Z</time>
  <course>359.17</course>
  <speed>25.107656202839802</speed>
  <fix>3d</fix>
</trkpt>
<trkpt lat="-27.2738545" lon="151.2901068">
  <ele>462.84</ele>
  <time>2026-09-01T19:58:59Z</time>
  <course>358.51</course>
  <speed>25.27</speed>
  <fix>3d</fix>
</trkpt>
<trkpt lat="-27.2737653" lon="151.2901044">
  <ele>463.81</ele>
  <time>2026-09-01T19:58:59Z</time>
  <course>359.15</course>
  <speed>25.087417164786014</speed>
  <fix>3d</fix>
</trkpt>
<trkpt lat="-27.2738092" lon="151.2901054">
  <ele>463.34</ele>
  <time>2026-09-01T19:58:59Z</time>
  <course>358.53</course>
  <speed>25.16</speed>
  <fix>3d</fix>
</trkpt>
<trkpt lat="-27.2737425" lon="151.2901038">
  <ele>464.0</ele>
  <time>2026-09-01T19:58:59Z</time>
  <course>359.09</course>
  <speed>25.087176006876504</speed>
  <fix>3d</fix>
</trkpt>
<trkpt lat="-27.2738092" lon="151.2901054">
  <ele>463.34</ele>
  <time>2026-09-01T19:58:59Z</time>
  <course>358.53</course>
  <speed>25.16</speed>
  <fix>3d</fix>
</trkpt>
<trkpt lat="-27.27372" lon="151.2901031">
  <ele>464.17</ele>
  <time>2026-09-01T19:58:59Z</time>
  <course>359.07</course>
  <speed>25.087176006876504</speed>
  <fix>3d</fix>
</trkpt>
<trkpt lat="-27.2737641" lon="151.2901041">
  <ele>463.77</ele>
  <time>2026-09-01T19:58:59Z</time>
  <course>358.56</course>
  <speed>25.12</speed>
  <fix>3d</fix>
</trkpt>
<trkpt lat="-27.2736974" lon="151.2901025">
  <ele>464.33</ele>
  <time>2026-09-01T19:58:59Z</time>
  <course>359.09</course>
  <speed>25.107170290576356</speed>
  <fix>3d</fix>
</trkpt>
<trkpt lat="-27.2737641" lon="151.2901041">
  <ele>463.77</ele>
  <time>2026-09-01T19:58:59Z</time>
  <course>358.56</course>
  <speed>25.12</speed>
  <fix>3d</fix>
</trkpt>
<trkpt lat="-27.2736748" lon="151.2901018">
  <ele>464.47</ele>
  <time>2026-09-01T19:58:59Z</time>
  <course>359.14</course>
  <speed>25.1271645833747</speed>
  <fix>3d</fix>
</trkpt>
<trkpt lat="-27.273719" lon="151.2901029">
  <ele>464.13</ele>
  <time>2026-09-01T19:58:59Z</time>
  <course>358.58</course>
  <speed>25.11</speed>
  <fix>3d</fix>
</trkpt>
<trkpt lat="-27.2736523" lon="151.2901012">
  <ele>464.61</ele>
  <time>2026-09-01T19:58:59Z</time>
  <course>359.23</course>
  <speed>25.156919525251897</speed>
  <fix>3d</fix>
</trkpt>
<trkpt lat="-27.273719" lon="151.2901029">
  <ele>464.13</ele>
  <time>2026-09-01T19:58:59Z</time>
  <course>358.58</course>
  <speed>25.11</speed>
  <fix>3d</fix>
</trkpt>
<trkpt lat="-27.2736296" lon="151.2901006">
  <ele>464.75</ele>
  <time>2026-09-01T19:58:59Z</time>
  <course>359.23</course>
  <speed>25.1969085405333</speed>
  <fix>3d</fix>
</trkpt>
<trkpt lat="-27.2736739" lon="151.2901016">
  <ele>464.44</ele>
  <time>2026-09-01T19:58:59Z</time>
  <course>358.59</course>
  <speed>25.14</speed>
  <fix>3d</fix>
</trkpt>
<trkpt lat="-27.273607" lon="151.2901">
  <ele>464.9</ele>
  <time>2026-09-01T19:58:59Z</time>
  <course>359.23</course>
  <speed>25.23666578611366</speed>
  <fix>3d</fix>
</trkpt>
<trkpt lat="-27.2736739" lon="151.2901016">
  <ele>464.44</ele>
  <time>2026-09-01T19:58:59Z</time>
  <course>358.59</course>
  <speed>25.14</speed>
  <fix>3d</fix>
</trkpt>
<trkpt lat="-27.2735842" lon="151.2900994">
  <ele>465.04</ele>
  <time>2026-09-01T19:58:59Z</time>
  <course>359.26</course>
  <speed>25.286652605673215</speed>
  <fix>3d</fix>
</trkpt>
<trkpt lat="-27.2736286" lon="151.2901004">
  <ele>464.71</ele>
  <time>2026-09-01T19:58:59Z</time>
  <course>358.62</course>
  <speed>25.21</speed>
  <fix>3d</fix>
</trkpt>
<trkpt lat="-27.2735612" lon="151.2900988">
  <ele>465.19</ele>
  <time>2026-09-01T19:58:59Z</time>
  <course>359.3</course>
  <speed>25.346410002207413</speed>
  <fix>3d</fix>
</trkpt>
<trkpt lat="-27.2736286" lon="151.2901004">
  <ele>464.71</ele>
  <time>2026-09-01T19:58:59Z</time>
  <course>358.62</course>
  <speed>25.21</speed>
  <fix>3d</fix>
</trkpt>
<trkpt lat="-27.2735384" lon="151.2900982">
  <ele>465.35</ele>
  <time>2026-09-01T19:58:59Z</time>
  <course>359.28</course>
  <speed>25.406172478356517</speed>
  <fix>3d</fix>
</trkpt>
<trkpt lat="-27.2735833" lon="151.2900991">
  <ele>465.01</ele>
  <time>2026-09-01T19:58:59Z</time>
  <course>358.65</course>
  <speed>25.29</speed>
  <fix>3d</fix>
</trkpt>
<trkpt lat="-27.2735155" lon="151.2900976">
  <ele>465.51</ele>
  <time>2026-09-01T19:58:59Z</time>
  <course>359.21</course>
  <speed>25.466157935581883</speed>
  <fix>3d</fix>
</trkpt>
<trkpt lat="-27.2735833" lon="151.2900991">
  <ele>465.01</ele>
  <time>2026-09-01T19:58:59Z</time>
  <course>358.65</course>
  <speed>25.29</speed>
  <fix>3d</fix>
</trkpt>
<trkpt lat="-27.2734925" lon="151.290097">
  <ele>465.68</ele>
  <time>2026-09-01T19:58:59Z</time>
  <course>359.19</course>
  <speed>25.526143461165457</speed>
  <fix>3d</fix>
</trkpt>
<trkpt lat="-27.2735378" lon="151.290098">
  <ele>465.31</ele>
  <time>2026-09-01T19:58:59Z</time>
  <course>358.69</course>
  <speed>25.4</speed>
  <fix>3d</fix>
</trkpt>
<trkpt lat="-27.2734695" lon="151.2900964">
  <ele>465.86</ele>
  <time>2026-09-01T19:58:59Z</time>
  <course>359.25</course>
  <speed>25.556136249441153</speed>
  <fix>3d</fix>
</trkpt>
<trkpt lat="-27.2735378" lon="151.290098">
  <ele>465.31</ele>
  <time>2026-09-01T19:58:59Z</time>
  <course>358.69</course>
  <speed>25.4</speed>
  <fix>3d</fix>
</trkpt>
<trkpt lat="-27.2734466" lon="151.2900958">
  <ele>466.05</ele>
  <time>2026-09-01T19:58:59Z</time>
  <course>359.28</course>
  <speed>25.546359818964426</speed>
  <fix>3d</fix>
</trkpt>
<trkpt lat="-27.273492" lon="151.2900968">
  <ele>465.64</ele>
  <time>2026-09-01T19:58:59Z</time>
  <course>358.7</course>
  <speed>25.5</speed>
  <fix>3d</fix>
</trkpt>
<trkpt lat="-27.2734236" lon="151.2900952">
  <ele>466.25</ele>
  <time>2026-09-01T19:58:59Z</time>
  <course>359.28</course>
  <speed>25.466157935581883</speed>
  <fix>3d</fix>
</trkpt>
<trkpt lat="-27.273492" lon="151.2900968">
  <ele>465.64</ele>
  <time>2026-09-01T19:58:59Z</time>
  <course>358.7</course>
  <speed>25.5</speed>
  <fix>3d</fix>
</trkpt>
<trkpt lat="-27.2734008" lon="151.2900947">
  <ele>466.48</ele>
  <time>2026-09-01T19:58:59Z</time>
  <course>359.24</course>
  <speed>25.296199319265334</speed>
  <fix>3d</fix>
</trkpt>
<trkpt lat="-27.2734461" lon="151.2900957">
  <ele>466.01</ele>
  <time>2026-09-01T19:58:59Z</time>
  <course>358.7</course>
  <speed>25.5</speed>
  <fix>3d</fix>
</trkpt>
<trkpt lat="-27.2733782" lon="151.2900941">
  <ele>466.73</ele>
  <time>2026-09-01T19:58:59Z</time>
  <course>359.24</course>
  <speed>25.046261198031132</speed>
  <fix>3d</fix>
</trkpt>
<trkpt lat="-27.2734461" lon="151.2900957">
  <ele>466.01</ele>
  <time>2026-09-01T19:58:59Z</time>
  <course>358.7</course>
  <speed>25.5</speed>
  <fix>3d</fix>
</trkpt>
<trkpt lat="-27.2733559" lon="151.2900935">
  <ele>467.02</ele>
  <time>2026-09-01T19:58:59Z</time>
  <course>359.27</course>
  <speed>24.716120245701994</speed>
  <fix>3d</fix>
</trkpt>
<trkpt lat="-27.2734005" lon="151.2900945">
  <ele>466.44</ele>
  <time>2026-09-01T19:58:59Z</time>
  <course>358.71</course>
  <speed>25.25</speed>
  <fix>3d</fix>
</trkpt>
<trkpt lat="-27.273334" lon="151.2900929">
  <ele>467.35</ele>
  <time>2026-09-01T19:58:59Z</time>
  <course>359.29</course>
  <speed>24.3059992594421</speed>
  <fix>3d</fix>
</trkpt>
<trkpt lat="-27.2734005" lon="151.2900945">
  <ele>466.44</ele>
  <time>2026-09-01T19:58:59Z</time>
  <course>358.71</course>
  <speed>25.25</speed>
  <fix>3d</fix>
</trkpt>
<trkpt lat="-27.2733125" lon="151.2900924">
  <ele>467.71</ele>
  <time>2026-09-01T19:58:59Z</time>
  <course>359.3</course>
  <speed>23.815898051511727</speed>
  <fix>3d</fix>
</trkpt>
<trkpt lat="-27.2733556" lon="151.2900934">
  <ele>466.97</ele>
  <time>2026-09-01T19:58:59Z</time>
  <course>358.72</course>
  <speed>24.69</speed>
  <fix>3d</fix>
</trkpt>
<trkpt lat="-27.2732915" lon="151.2900918">
  <ele>468.1</ele>
  <time>2026-09-01T19:58:59Z</time>
  <course>359.31</course>
  <speed>23.27580933071931</speed>
  <fix>3d</fix>
</trkpt>
<trkpt lat="-27.2733556" lon="151.2900934">
  <ele>466.97</ele>
  <time>2026-09-01T19:58:59Z</time>
  <course>358.72</course>
  <speed>24.69</speed>
  <fix>3d</fix>
</trkpt>
<trkpt lat="-27.2732709" lon="151.2900913">
  <ele>468.51</ele>
  <time>2026-09-01T19:58:59Z</time>
  <course>359.31</course>
  <speed>22.715725830358142</speed>
  <fix>3d</fix>
</trkpt>
<trkpt lat="-27.273312" lon="151.2900923">
  <ele>467.65</ele>
  <time>2026-09-01T19:58:59Z</time>
  <course>358.73</course>
  <speed>23.82</speed>
  <fix>3d</fix>
</trkpt>
<trkpt lat="-27.2732509" lon="151.2900908">
  <ele>468.96</ele>
  <time>2026-09-01T19:58:59Z</time>
  <course>359.32</course>
  <speed>22.145645170100597</speed>
  <fix>3d</fix>
</trkpt>
<trkpt lat="-27.273312" lon="151.2900923">
  <ele>467.65</ele>
  <time>2026-09-01T19:58:59Z</time>
  <course>358.73</course>
  <speed>23.82</speed>
  <fix>3d</fix>
</trkpt>
<trkpt lat="-27.2732314" lon="151.2900903">
  <ele>469.43</ele>
  <time>2026-09-01T19:58:59Z</time>
  <course>359.32</course>
  <speed>21.57556488252393</speed>
  <fix>3d</fix>
</trkpt>
<trkpt lat="-27.2732701" lon="151.2900913">
  <ele>468.45</ele>
  <time>2026-09-01T19:58:59Z</time>
  <course>358.75</course>
  <speed>22.76</speed>
  <fix>3d</fix>
</trkpt>
<trkpt lat="-27.2732123" lon="151.2900898">
  <ele>469.91</ele>
  <time>2026-09-01T19:58:59Z</time>
  <course>359.33</course>
  <speed>21.015482387991955</speed>
  <fix>3d</fix>
</trkpt>
<trkpt lat="-27.2732701" lon="151.2900913">
  <ele>468.45</ele>
  <time>2026-09-01T19:58:59Z</time>
  <course>358.75</course>
  <speed>22.76</speed>
  <fix>3d</fix>
</trkpt>
<trkpt lat="-27.2731937" lon="151.2900894">
  <ele>470.41</ele>
  <time>2026-09-01T19:58:59Z</time>
  <course>359.34</course>
  <speed>20.465397626237316</speed>
  <fix>3d</fix>
</trkpt>
<trkpt lat="-27.2732303" lon="151.2900903">
  <ele>469.35</ele>
  <time>2026-09-01T19:58:59Z</time>
  <course>358.76</course>
  <speed>21.63</speed>
  <fix>3d</fix>
</trkpt>
<trkpt lat="-27.2731756" lon="151.2900889">
  <ele>470.9</ele>
  <time>2026-09-01T19:58:59Z</time>
  <course>359.34</course>
  <speed>19.975297244346578</speed>
  <fix>3d</fix>
</trkpt>
<trkpt lat="-27.2732303" lon="151.2900903">
  <ele>469.35</ele>
  <time>2026-09-01T19:58:59Z</time>
  <course>358.76</course>
  <speed>21.63</speed>
  <fix>3d</fix>
</trkpt>
<trkpt lat="-27.2731579" lon="151.2900885">
  <ele>471.39</ele>
  <time>2026-09-01T19:58:59Z</time>
  <course>359.34</course>
  <speed>19.52518629872709</speed>
  <fix>3d</fix>
</trkpt>
<trkpt lat="-27.2731924" lon="151.2900894">
  <ele>470.32</ele>
  <time>2026-09-01T19:58:59Z</time>
  <course>358.78</course>
  <speed>20.55</speed>
  <fix>3d</fix>
</trkpt>
<trkpt lat="-27.2731406" lon="151.290088">
  <ele>471.85</ele>
  <time>2026-09-01T19:58:59Z</time>
  <course>359.34</course>
  <speed>19.135059445948947</speed>
  <fix>3d</fix>
</trkpt>
<trkpt lat="-27.2731924" lon="151.2900894">
  <ele>470.32</ele>
  <time>2026-09-01T19:58:59Z</time>
  <course>358.78</course>
  <speed>20.55</speed>
  <fix>3d</fix>
</trkpt>
<trkpt lat="-27.2731234" lon="151.2900876">
  <ele>472.27</ele>
  <time>2026-09-01T19:58:59Z</time>
  <course>359.34</course>
  <speed>18.764927391279723</speed>
  <fix>3d</fix>
</trkpt>
<trkpt lat="-27.2731564" lon="151.2900885">
  <ele>471.29</ele>
  <time>2026-09-01T19:58:59Z</time>
  <course>358.79</course>
  <speed>19.61</speed>
  <fix>3d</fix>
</trkpt>
<trkpt lat="-27.2731067" lon="151.2900872">
  <ele>472.66</ele>
  <time>2026-09-01T19:58:59Z</time>
  <course>359.33</course>
  <speed>18.435015595328363</speed>
  <fix>3d</fix>
</trkpt>
<trkpt lat="-27.2731564" lon="151.2900885">
  <ele>471.29</ele>
  <time>2026-09-01T19:58:59Z</time>
  <course>358.79</course>
  <speed>19.61</speed>
  <fix>3d</fix>
</trkpt>
<trkpt lat="-27.2730902" lon="151.2900868">
  <ele>473.0</ele>
  <time>2026-09-01T19:58:59Z</time>
  <course>359.33</course>
  <speed>18.13486421233972</speed>
  <fix>3d</fix>
</trkpt>
<trkpt lat="-27.2731219" lon="151.2900876">
  <ele>472.16</ele>
  <time>2026-09-01T19:58:59Z</time>
  <course>358.8</course>
  <speed>18.84</speed>
  <fix>3d</fix>
</trkpt>
<trkpt lat="-27.273074" lon="151.2900864">
  <ele>473.29</ele>
  <time>2026-09-01T19:58:59Z</time>
  <course>359.33</course>
  <speed>17.844710700933202</speed>
  <fix>3d</fix>
</trkpt>
<trkpt lat="-27.2731219" lon="151.2900876">
  <ele>472.16</ele>
  <time>2026-09-01T19:58:59Z</time>
  <course>358.8</course>
  <speed>18.84</speed>
  <fix>3d</fix>
</trkpt>
<trkpt lat="-27.273058" lon="151.290086">
  <ele>473.55</ele>
  <time>2026-09-01T19:58:59Z</time>
  <course>359.32</course>
  <speed>17.584780351201434</speed>
  <fix>3d</fix>
</trkpt>
<trkpt lat="-27.2730886" lon="151.2900869">
  <ele>472.89</ele>
  <time>2026-09-01T19:58:59Z</time>
  <course>358.8</course>
  <speed>18.19</speed>
  <fix>3d</fix>
</trkpt>
<trkpt lat="-27.2730423" lon="151.2900856">
  <ele>473.77</ele>
  <time>2026-09-01T19:58:59Z</time>
  <course>359.32</course>
  <speed>17.334615657694865</speed>
  <fix>3d</fix>
</trkpt>
<trkpt lat="-27.2730886" lon="151.2900869">
  <ele>472.89</ele>
  <time>2026-09-01T19:58:59Z</time>
  <course>358.8</course>
  <speed>18.19</speed>
  <fix>3d</fix>
</trkpt>
<trkpt lat="-27.2730267" lon="151.2900852">
  <ele>473.94</ele>
  <time>2026-09-01T19:58:59Z</time>
  <course>359.31</course>
  <speed>17.094449391542273</speed>
  <fix>3d</fix>
</trkpt>
<trkpt lat="-27.2730564" lon="151.2900862">
  <ele>473.45</ele>
  <time>2026-09-01T19:58:59Z</time>
  <course>358.81</course>
  <speed>17.63</speed>
  <fix>3d</fix>
</trkpt>
<trkpt lat="-27.2730114" lon="151.2900849">
  <ele>474.08</ele>
  <time>2026-09-01T19:58:59Z</time>
  <course>359.31</course>
  <speed>16.87450740021764</speed>
  <fix>3d</fix>
</trkpt>
<trkpt lat="-27.2730564" lon="151.2900862">
  <ele>473.45</ele>
  <time>2026-09-01T19:58:59Z</time>
  <course>358.81</course>
  <speed>17.63</speed>
  <fix>3d</fix>
</trkpt>
<trkpt lat="-27.2729963" lon="151.2900845">
  <ele>474.19</ele>
  <time>2026-09-01T19:58:59Z</time>
  <course>359.3</course>
  <speed>16.664333169977127</speed>
  <fix>3d</fix>
</trkpt>
<trkpt lat="-27.2730252" lon="151.2900854">
  <ele>473.84</ele>
  <time>2026-09-01T19:58:59Z</time>
  <course>358.81</course>
  <speed>17.13</speed>
  <fix>3d</fix>
</trkpt>
<trkpt lat="-27.2729813" lon="151.2900842">
  <ele>474.26</ele>
  <time>2026-09-01T19:58:59Z</time>
  <course>359.3</course>
  <speed>16.47415551705155</speed>
  <fix>3d</fix>
</trkpt>
<trkpt lat="-27.2730252" lon="151.2900854">
  <ele>473.84</ele>
  <time>2026-09-01T19:58:59Z</time>
  <course>358.81</course>
  <speed>17.13</speed>
  <fix>3d</fix>
</trkpt>
<trkpt lat="-27.2729665" lon="151.2900838">
  <ele>474.31</ele>
  <time>2026-09-01T19:58:59Z</time>
  <course>359.29</course>
  <speed>16.284204002652388</speed>
  <fix>3d</fix>
</trkpt>
<trkpt lat="-27.2729948" lon="151.2900847">
  <ele>474.09</ele>
  <time>2026-09-01T19:58:59Z</time>
  <course>358.81</course>
  <speed>16.69</speed>
  <fix>3d</fix>
</trkpt>
<trkpt lat="-27.2729519" lon="151.2900835">
  <ele>474.34</ele>
  <time>2026-09-01T19:58:59Z</time>
  <course>359.29</course>
  <speed>16.114021844344137</speed>
  <fix>3d</fix>
</trkpt>
<trkpt lat="-27.2729948" lon="151.2900847">
  <ele>474.09</ele>
  <time>2026-09-01T19:58:59Z</time>
  <course>358.81</course>
  <speed>16.69</speed>
  <fix>3d</fix>
</trkpt>
<trkpt lat="-27.2729374" lon="151.2900831">
  <ele>474.36</ele>
  <time>2026-09-01T19:58:59Z</time>
  <course>359.29</course>
  <speed>15.95406217864278</speed>
  <fix>3d</fix>
</trkpt>
<trkpt lat="-27.2729651" lon="151.290084">
  <ele>474.22</ele>
  <time>2026-09-01T19:58:59Z</time>
  <course>358.81</course>
  <speed>16.31</speed>
  <fix>3d</fix>
</trkpt>
<trkpt lat="-27.2729231" lon="151.2900828">
  <ele>474.38</ele>
  <time>2026-09-01T19:58:59Z</time>
  <course>359.28</course>
  <speed>15.803876106828982</speed>
  <fix>3d</fix>
</trkpt>
<trkpt lat="-27.2729651" lon="151.290084">
  <ele>474.22</ele>
  <time>2026-09-01T19:58:59Z</time>
  <course>358.81</course>
  <speed>16.31</speed>
  <fix>3d</fix>
</trkpt>
<trkpt lat="-27.2729089" lon="151.2900825">
  <ele>474.4</ele>
  <time>2026-09-01T19:58:59Z</time>
  <course>359.28</course>
  <speed>15.65391324876946</speed>
  <fix>3d</fix>
</trkpt>
<trkpt lat="-27.2729362" lon="151.2900834">
  <ele>474.28</ele>
  <time>2026-09-01T19:58:59Z</time>
  <course>358.81</course>
  <speed>15.97</speed>
  <fix>3d</fix>
</trkpt>
<trkpt lat="-27.2728948" lon="151.2900822">
  <ele>474.43</ele>
  <time>2026-09-01T19:58:59Z</time>
  <course>359.27</course>
  <speed>15.50395110931404</speed>
  <fix>3d</fix>
</trkpt>
<trkpt lat="-27.2729362" lon="151.2900834">
  <ele>474.28</ele>
  <time>2026-09-01T19:58:59Z</time>
  <course>358.81</course>
  <speed>15.97</speed>
  <fix>3d</fix>
</trkpt>
<trkpt lat="-27.2728809" lon="151.2900819">
  <ele>474.48</ele>
  <time>2026-09-01T19:58:59Z</time>
  <course>359.27</course>
  <speed>15.343767464348513</speed>
  <fix>3d</fix>
</trkpt>
<trkpt lat="-27.2729078" lon="151.2900827">
  <ele>474.33</ele>
  <time>2026-09-01T19:58:59Z</time>
  <course>358.8</course>
  <speed>15.65</speed>
  <fix>3d</fix>
</trkpt>
<trkpt lat="-27.2728672" lon="151.2900815">
  <ele>474.55</ele>
  <time>2026-09-01T19:58:59Z</time>
  <course>359.27</course>
  <speed>15.183807164212801</speed>
  <fix>3d</fix>
</trkpt>
<trkpt lat="-27.2729078" lon="151.2900827">
  <ele>474.33</ele>
  <time>2026-09-01T19:58:59Z</time>
  <course>358.8</course>
  <speed>15.65</speed>
  <fix>3d</fix>
</trkpt>
<trkpt lat="-27.2728536" lon="151.2900812">
  <ele>474.64</ele>
  <time>2026-09-01T19:58:59Z</time>
  <course>359.26</course>
  <speed>15.013627143365456</speed>
  <fix>3d</fix>
</trkpt>
<trkpt lat="-27.27288" lon="151.2900821">
  <ele>474.41</ele>
  <time>2026-09-01T19:58:59Z</time>
  <course>358.8</course>
  <speed>15.34</speed>
  <fix>3d</fix>
</trkpt>
<trkpt lat="-27.2728402" lon="151.2900809">
  <ele>474.75</ele>
  <time>2026-09-01T19:58:59Z</time>
  <course>359.25</course>
  <speed>14.843668683987795</speed>
  <fix>3d</fix>
</trkpt>
<trkpt lat="-27.27288" lon="151.2900821">
  <ele>474.41</ele>
  <time>2026-09-01T19:58:59Z</time>
  <course>358.8</course>
  <speed>15.34</speed>
  <fix>3d</fix>
</trkpt>
<trkpt lat="-27.2728269" lon="151.2900806">
  <ele>474.88</ele>
  <time>2026-09-01T19:58:59Z</time>
  <course>359.25</course>
  <speed>14.683487324201971</speed>
  <fix>3d</fix>
</trkpt>
<trkpt lat="-27.2728527" lon="151.2900814">
  <ele>474.58</ele>
  <time>2026-09-01T19:58:59Z</time>
  <course>358.78</course>
  <speed>15.01</speed>
  <fix>3d</fix>
</trkpt>
<trkpt lat="-27.2728138" lon="151.2900803">
  <ele>475.02</ele>
  <time>2026-09-01T19:58:59Z</time>
  <course>359.24</course>
  <speed>14.523525742738917</speed>
  <fix>3d</fix>
</trkpt>
<trkpt lat="-27.2728527" lon="151.2900814">
  <ele>474.58</ele>
  <time>2026-09-01T19:58:59Z</time>
  <course>358.78</course>
  <speed>15.01</speed>
  <fix>3d</fix>
</trkpt>
<trkpt lat="-27.2728008" lon="151.29008">
  <ele>475.18</ele>
  <time>2026-09-01T19:58:59Z</time>
  <course>359.24</course>
  <speed>14.373562536824334</speed>
  <fix>3d</fix>
</trkpt>
<trkpt lat="-27.272826" lon="151.2900808">
  <ele>474.83</ele>
  <time>2026-09-01T19:58:59Z</time>
  <course>358.77</course>
  <speed>14.68</speed>
  <fix>3d</fix>
</trkpt>
<trkpt lat="-27.272788" lon="151.2900797">
  <ele>475.35</ele>
  <time>2026-09-01T19:58:59Z</time>
  <course>359.24</course>
  <speed>14.223378642221405</speed>
  <fix>3d</fix>
</trkpt>
<trkpt lat="-27.272826" lon="151.2900808">
  <ele>474.83</ele>
  <time>2026-09-01T19:58:59Z</time>
  <course>358.77</course>
  <speed>14.68</speed>
  <fix>3d</fix>
</trkpt>
<trkpt lat="-27.2727752" lon="151.2900794">
  <ele>475.54</ele>
  <time>2026-09-01T19:58:59Z</time>
  <course>359.23</course>
  <speed>14.083412228575858</speed>
  <fix>3d</fix>
</trkpt>
<trkpt lat="-27.2727999" lon="151.2900801">
  <ele>475.13</ele>
  <time>2026-09-01T19:58:59Z</time>
  <course>358.76</course>
  <speed>14.37</speed>
  <fix>3d</fix>
</trkpt>
<trkpt lat="-27.2727625" lon="151.2900791">
  <ele>475.74</ele>
  <time>2026-09-01T19:58:59Z</time>
  <course>359.23</course>
  <speed>13.943446489300987</speed>
  <fix>3d</fix>
</trkpt>
<trkpt lat="-27.2727999" lon="151.2900801">
  <ele>475.13</ele>
  <time>2026-09-01T19:58:59Z</time>
  <course>358.76</course>
  <speed>14.37</speed>
  <fix>3d</fix>
</trkpt>
<trkpt lat="-27.27275" lon="151.2900788">
  <ele>475.96</ele>
  <time>2026-09-01T19:58:59Z</time>
  <course>359.22</course>
  <speed>13.81325812399088</speed>
  <fix>3d</fix>
</trkpt>
<trkpt lat="-27.2727744" lon="151.2900795">
  <ele>475.5</ele>
  <time>2026-09-01T19:58:59Z</time>
  <course>358.74</course>
  <speed>14.07</speed>
  <fix>3d</fix>
</trkpt>
<trkpt lat="-27.2727375" lon="151.2900785">
  <ele>476.18</ele>
  <time>2026-09-01T19:58:59Z</time>
  <course>359.22</course>
  <speed>13.693286676324279</speed>
  <fix>3d</fix>
</trkpt>
<trkpt lat="-27.2727744" lon="151.2900795">
  <ele>475.5</ele>
  <time>2026-09-01T19:58:59Z</time>
  <course>358.74</course>
  <speed>14.07</speed>
  <fix>3d</fix>
</trkpt>
<trkpt lat="-27.2727253" lon="151.2900782">
  <ele>476.41</ele>
  <time>2026-09-01T19:58:59Z</time>
  <course>359.21</course>
  <speed>13.583313292418755</speed>
  <fix>3d</fix>
</trkpt>
<trkpt lat="-27.2727493" lon="151.2900788">
  <ele>475.92</ele>
  <time>2026-09-01T19:58:59Z</time>
  <course>358.72</course>
  <speed>13.81</speed>
  <fix>3d</fix>
</trkpt>
<trkpt lat="-27.2727131" lon="151.2900779">
  <ele>476.65</ele>
  <time>2026-09-01T19:58:59Z</time>
  <course>359.21</course>
  <speed>13.48333786567703</speed>
  <fix>3d</fix>
</trkpt>
<trkpt lat="-27.2727493" lon="151.2900788">
  <ele>475.92</ele>
  <time>2026-09-01T19:58:59Z</time>
  <course>358.72</course>
  <speed>13.81</speed>
  <fix>3d</fix>
</trkpt>
<trkpt lat="-27.272701" lon="151.2900776">
  <ele>476.9</ele>
  <time>2026-09-01T19:58:59Z</time>
  <course>359.21</course>
  <speed>13.393360295310508</speed>
  <fix>3d</fix>
</trkpt>
<trkpt lat="-27.2727247" lon="151.2900783">
  <ele>476.38</ele>
  <time>2026-09-01T19:58:59Z</time>
  <course>358.7</course>
  <speed>13.58</speed>
  <fix>3d</fix>
</trkpt>
<trkpt lat="-27.272689" lon="151.2900773">
  <ele>477.16</ele>
  <time>2026-09-01T19:59:00Z</time>
  <course>359.2</course>
  <speed>13.303161278433032</speed>
  <fix>3d</fix>
</trkpt>
<trkpt lat="-27.2727247" lon="151.2900783">
  <ele>476.38</ele>
  <time>2026-09-01T19:59:00Z</time>
  <course>358.7</course>
  <speed>13.58</speed>
  <fix>3d</fix>
</trkpt>
<trkpt lat="-27.2726771" lon="151.290077">
  <ele>477.41</ele>
  <time>2026-09-01T19:59:00Z</time>
  <course>359.2</course>
  <speed>13.223180404123662</speed>
  <fix>3d</fix>
</trkpt>
<trkpt lat="-27.2727005" lon="151.2900776">
  <ele>476.87</ele>
  <time>2026-09-01T19:59:00Z</time>
  <course>358.68</course>
  <speed>13.38</speed>
  <fix>3d</fix>
</trkpt>
<trkpt lat="-27.2726653" lon="151.2900767">
  <ele>477.67</ele>
  <time>2026-09-01T19:59:00Z</time>
  <course>359.19</course>
  <speed>13.143199762614886</speed>
  <fix>3d</fix>
</trkpt>
<trkpt lat="-27.2727005" lon="151.2900776">
  <ele>476.87</ele>
  <time>2026-09-01T19:59:00Z</time>
  <course>358.68</course>
  <speed>13.38</speed>
  <fix>3d</fix>
</trkpt>
<trkpt lat="-27.2726535" lon="151.2900764">
  <ele>477.93</ele>
  <time>2026-09-01T19:59:00Z</time>
  <course>359.18</course>
  <speed>13.073216895622897</speed>
  <fix>3d</fix>
</trkpt>
<trkpt lat="-27.2726766" lon="151.2900771">
  <ele>477.38</ele>
  <time>2026-09-01T19:59:00Z</time>
  <course>358.67</course>
  <speed>13.21</speed>
  <fix>3d</fix>
</trkpt>
<trkpt lat="-27.2726418" lon="151.2900762">
  <ele>478.18</ele>
  <time>2026-09-01T19:59:00Z</time>
  <course>359.18</course>
  <speed>13.003234213071762</speed>
  <fix>3d</fix>
</trkpt>
<trkpt lat="-27.2726766" lon="151.2900771">
  <ele>477.38</ele>
  <time>2026-09-01T19:59:00Z</time>
  <course>358.67</course>
  <speed>13.21</speed>
  <fix>3d</fix>
</trkpt>
<trkpt lat="-27.2726301" lon="151.2900759">
  <ele>478.44</ele>
  <time>2026-09-01T19:59:00Z</time>
  <course>359.17</course>
  <speed>12.923254234131587</speed>
  <fix>3d</fix>
</trkpt>
<trkpt lat="-27.272653" lon="151.2900764">
  <ele>477.9</ele>
  <time>2026-09-01T19:59:00Z</time>
  <course>358.65</course>
  <speed>13.06</speed>
  <fix>3d</fix>
</trkpt>
<trkpt lat="-27.2726186" lon="151.2900756">
  <ele>478.7</ele>
  <time>2026-09-01T19:59:00Z</time>
  <course>359.16</course>
  <speed>12.843274504580208</speed>
  <fix>3d</fix>
</trkpt>
<trkpt lat="-27.272653" lon="151.2900764">
  <ele>477.9</ele>
  <time>2026-09-01T19:59:00Z</time>
  <course>358.65</course>
  <speed>13.06</speed>
  <fix>3d</fix>
</trkpt>
<trkpt lat="-27.2726071" lon="151.2900753">
  <ele>478.96</ele>
  <time>2026-09-01T19:59:00Z</time>
  <course>359.16</course>
  <speed>12.763071730582729</speed>
  <fix>3d</fix>
</trkpt>
<trkpt lat="-27.2726297" lon="151.2900758">
  <ele>478.41</ele>
  <time>2026-09-01T19:59:00Z</time>
  <course>358.63</course>
  <speed>12.91</speed>
  <fix>3d</fix>
</trkpt>
<trkpt lat="-27.2725956" lon="151.290075">
  <ele>479.23</ele>
  <time>2026-09-01T19:59:00Z</time>
  <course>359.15</course>
  <speed>12.663095987948601</speed>
  <fix>3d</fix>
</trkpt>
<trkpt lat="-27.2726297" lon="151.2900758">
  <ele>478.41</ele>
  <time>2026-09-01T19:59:00Z</time>
  <course>358.63</course>
  <speed>12.91</speed>
  <fix>3d</fix>
</trkpt>
<trkpt lat="-27.2725843" lon="151.2900747">
  <ele>479.5</ele>
  <time>2026-09-01T19:59:00Z</time>
  <course>359.15</course>
  <speed>12.55312311737601</speed>
  <fix>3d</fix>
</trkpt>
<trkpt lat="-27.2726067" lon="151.2900752">
  <ele>478.94</ele>
  <time>2026-09-01T19:59:00Z</time>
  <course>358.62</course>
  <speed>12.74</speed>
  <fix>3d</fix>
</trkpt>
<trkpt lat="-27.2725731" lon="151.2900744">
  <ele>479.77</ele>
  <time>2026-09-01T19:59:00Z</time>
  <course>359.14</course>
  <speed>12.443150726403662</speed>
  <fix>3d</fix>
</trkpt>
<trkpt lat="-27.2726067" lon="151.2900752">
  <ele>478.94</ele>
  <time>2026-09-01T19:59:00Z</time>
  <course>358.62</course>
  <speed>12.74</speed>
  <fix>3d</fix>
</trkpt>
<trkpt lat="-27.2725621" lon="151.2900741">
  <ele>480.05</ele>
  <time>2026-09-01T19:59:00Z</time>
  <course>359.14</course>
  <speed>12.313183991153545</speed>
  <fix>3d</fix>
</trkpt>
<trkpt lat="-27.272584" lon="151.2900745">
  <ele>479.47</ele>
  <time>2026-09-01T19:59:00Z</time>
  <course>358.6</course>
  <speed>12.54</speed>
  <fix>3d</fix>
</trkpt>
<trkpt lat="-27.2725511" lon="151.2900738">
  <ele>480.33</ele>
  <time>2026-09-01T19:59:00Z</time>
  <course>359.13</course>
  <speed>12.183217965710044</speed>
  <fix>3d</fix>
</trkpt>
<trkpt lat="-27.272584" lon="151.2900745">
  <ele>479.47</ele>
  <time>2026-09-01T19:59:00Z</time>
  <course>358.6</course>
  <speed>12.54</speed>
  <fix>3d</fix>
</trkpt>
<trkpt lat="-27.2725402" lon="151.2900735">
  <ele>480.61</ele>
  <time>2026-09-01T19:59:00Z</time>
  <course>359.13</course>
  <speed>12.033029543718406</speed>
  <fix>3d</fix>
</trkpt>
<trkpt lat="-27.2725616" lon="151.290074">
  <ele>480.02</ele>
  <time>2026-09-01T19:59:00Z</time>
  <course>358.58</course>
  <speed>12.3</speed>
  <fix>3d</fix>
</trkpt>
<trkpt lat="-27.2725295" lon="151.2900732">
  <ele>480.9</ele>
  <time>2026-09-01T19:59:00Z</time>
  <course>359.12</course>
  <speed>11.883067785719309</speed>
  <fix>3d</fix>
</trkpt>
<trkpt lat="-27.2725616" lon="151.290074">
  <ele>480.02</ele>
  <time>2026-09-01T19:59:00Z</time>
  <course>358.58</course>
  <speed>12.3</speed>
  <fix>3d</fix>
</trkpt>
<trkpt lat="-27.2725188" lon="151.2900729">
  <ele>481.18</ele>
  <time>2026-09-01T19:59:00Z</time>
  <course>359.12</course>
  <speed>11.723109655718485</speed>
  <fix>3d</fix>
</trkpt>
<trkpt lat="-27.2725397" lon="151.2900733">
  <ele>480.58</ele>
  <time>2026-09-01T19:59:00Z</time>
  <course>358.56</course>
  <speed>12.03</speed>
  <fix>3d</fix>
</trkpt>
<trkpt lat="-27.2725084" lon="151.2900726">
  <ele>481.47</ele>
  <time>2026-09-01T19:59:00Z</time>
  <course>359.12</course>
  <speed>11.563152684281222</speed>
  <fix>3d</fix>
</trkpt>
<trkpt lat="-27.2725397" lon="151.2900733">
  <ele>480.58</ele>
  <time>2026-09-01T19:59:00Z</time>
  <course>358.56</course>
  <speed>12.03</speed>
  <fix>3d</fix>
</trkpt>
<trkpt lat="-27.272498" lon="151.2900723">
  <ele>481.75</ele>
  <time>2026-09-01T19:59:00Z</time>
  <course>359.11</course>
  <speed>11.392967128891403</speed>
  <fix>3d</fix>
</trkpt>
<trkpt lat="-27.2725183" lon="151.2900728">
  <ele>481.15</ele>
  <time>2026-09-01T19:59:00Z</time>
  <course>358.55</course>
  <speed>11.72</speed>
  <fix>3d</fix>
</trkpt>
<trkpt lat="-27.2724876" lon="151.290072">
  <ele>482.04</ele>
  <time>2026-09-01T19:59:00Z</time>
  <course>359.11</course>
  <speed>11.203017450669261</speed>
  <fix>3d</fix>
</trkpt>
<trkpt lat="-27.2724976" lon="151.2900722">
  <ele>481.72</ele>
  <time>2026-09-01T19:59:00Z</time>
  <course>358.53</course>
  <speed>11.38</speed>
  <fix>3d</fix>
</trkpt>
<trkpt lat="-27.2724776" lon="151.2900718">
  <ele>482.31</ele>
  <time>2026-09-01T19:59:00Z</time>
  <course>359.11</course>
  <speed>11.023066723920344</speed>
  <fix>3d</fix>
</trkpt>
<trkpt lat="-27.2724976" lon="151.2900722">
  <ele>481.72</ele>
  <time>2026-09-01T19:59:00Z</time>
  <course>358.53</course>
  <speed>11.38</speed>
  <fix>3d</fix>
</trkpt>
<trkpt lat="-27.2724678" lon="151.2900715">
  <ele>482.59</ele>
  <time>2026-09-01T19:59:00Z</time>
  <course>359.11</course>
  <speed>10.842882458092035</speed>
  <fix>3d</fix>
</trkpt>
<trkpt lat="-27.2724775" lon="151.2900715">
  <ele>482.27</ele>
  <time>2026-09-01T19:59:00Z</time>
  <course>358.52</course>
  <speed>11.03</speed>
  <fix>3d</fix>
</trkpt>
<trkpt lat="-27.2724582" lon="151.2900712">
  <ele>482.86</ele>
  <time>2026-09-01T19:59:00Z</time>
  <course>359.11</course>
  <speed>10.652933868188613</speed>
  <fix>3d</fix>
</trkpt>
<trkpt lat="-27.2724775" lon="151.2900715">
  <ele>482.27</ele>
  <time>2026-09-01T19:59:00Z</time>
  <course>358.52</course>
  <speed>11.03</speed>
  <fix>3d</fix>
</trkpt>
<trkpt lat="-27.2724487" lon="151.2900709">
  <ele>483.12</ele>
  <time>2026-09-01T19:59:00Z</time>
  <course>359.11</course>
  <speed>10.452990002865208</speed>
  <fix>3d</fix>
</trkpt>
<trkpt lat="-27.272458" lon="151.290071">
  <ele>482.82</ele>
  <time>2026-09-01T19:59:00Z</time>
  <course>358.51</course>
  <speed>10.65</speed>
  <fix>3d</fix>
</trkpt>
<trkpt lat="-27.2724393" lon="151.2900707">
  <ele>483.39</ele>
  <time>2026-09-01T19:59:00Z</time>
  <course>359.11</course>
  <speed>10.252809371094346</speed>
  <fix>3d</fix>
</trkpt>
<trkpt lat="-27.272458" lon="151.290071">
  <ele>482.82</ele>
  <time>2026-09-01T19:59:00Z</time>
  <course>358.51</course>
  <speed>10.65</speed>
  <fix>3d</fix>
</trkpt>
<trkpt lat="-27.2724304" lon="151.2900704">
  <ele>483.64</ele>
  <time>2026-09-01T19:59:00Z</time>
  <course>359.11</course>
  <speed>10.062862415833777</speed>
  <fix>3d</fix>
</trkpt>
<trkpt lat="-27.272458" lon="151.290071">
  <ele>482.82</ele>
  <time>2026-09-01T19:59:00Z</time>
  <course>358.51</course>
  <speed>10.65</speed>
  <fix>3d</fix>
</trkpt>
<trkpt lat="-27.2724214" lon="151.2900701">
  <ele>483.89</ele>
  <time>2026-09-01T19:59:00Z</time>
  <course>359.11</course>
  <speed>9.852684913260953</speed>
  <fix>3d</fix>
</trkpt>
<trkpt lat="-27.2724392" lon="151.2900704">
  <ele>483.34</ele>
  <time>2026-09-01T19:59:00Z</time>
  <course>358.5</course>
  <speed>10.26</speed>
  <fix>3d</fix>
</trkpt>
<trkpt lat="-27.2724127" lon="151.2900699">
  <ele>484.14</ele>
  <time>2026-09-01T19:59:00Z</time>
  <course>359.11</course>
  <speed>9.642743385572386</speed>
  <fix>3d</fix>
</trkpt>
<trkpt lat="-27.2724392" lon="151.2900704">
  <ele>483.34</ele>
  <time>2026-09-01T19:59:00Z</time>
  <course>358.5</course>
  <speed>10.26</speed>
  <fix>3d</fix>
</trkpt>
<trkpt lat="-27.2724041" lon="151.2900696">
  <ele>484.39</ele>
  <time>2026-09-01T19:59:00Z</time>
  <course>359.12</course>
  <speed>9.432804461028544</speed>
  <fix>3d</fix>
</trkpt>
<trkpt lat="-27.2724211" lon="151.2900699">
  <ele>483.86</ele>
  <time>2026-09-01T19:59:00Z</time>
  <course>358.49</course>
  <speed>9.86</speed>
  <fix>3d</fix>
</trkpt>
<trkpt lat="-27.2723957" lon="151.2900694">
  <ele>484.63</ele>
  <time>2026-09-01T19:59:00Z</time>
  <course>359.12</course>
  <speed>9.222624355355693</speed>
  <fix>3d</fix>
</trkpt>
<trkpt lat="-27.2724211" lon="151.2900699">
  <ele>483.86</ele>
  <time>2026-09-01T19:59:00Z</time>
  <course>358.49</course>
  <speed>9.86</speed>
  <fix>3d</fix>
</trkpt>
<trkpt lat="-27.2723875" lon="151.2900691">
  <ele>484.87</ele>
  <time>2026-09-01T19:59:00Z</time>
  <course>359.13</course>
  <speed>9.002688487335325</speed>
  <fix>3d</fix>
</trkpt>
<trkpt lat="-27.2724038" lon="151.2900694">
  <ele>484.34</ele>
  <time>2026-09-01T19:59:00Z</time>
  <course>358.48</course>
  <speed>9.44</speed>
  <fix>3d</fix>
</trkpt>
<trkpt lat="-27.2723795" lon="151.2900689">
  <ele>485.1</ele>
  <time>2026-09-01T19:59:00Z</time>
  <course>359.14</course>
  <speed>8.78251103045137</speed>
  <fix>3d</fix>
</trkpt>
<trkpt lat="-27.2724038" lon="151.2900694">
  <ele>484.34</ele>
  <time>2026-09-01T19:59:00Z</time>
  <course>358.48</course>
  <speed>9.44</speed>
  <fix>3d</fix>
</trkpt>
<trkpt lat="-27.2723718" lon="151.2900686">
  <ele>485.33</ele>
  <time>2026-09-01T19:59:00Z</time>
  <course>359.14</course>
  <speed>8.562575547111978</speed>
  <fix>3d</fix>
</trkpt>
<trkpt lat="-27.2723873" lon="151.2900689">
  <ele>484.82</ele>
  <time>2026-09-01T19:59:00Z</time>
  <course>358.47</course>
  <speed>9.01</speed>
  <fix>3d</fix>
</trkpt>
<trkpt lat="-27.2723642" lon="151.2900684">
  <ele>485.56</ele>
  <time>2026-09-01T19:59:00Z</time>
  <course>359.15</course>
  <speed>8.342397736861987</speed>
  <fix>3d</fix>
</trkpt>
<trkpt lat="-27.2723873" lon="151.2900689">
  <ele>484.82</ele>
  <time>2026-09-01T19:59:00Z</time>
  <course>358.47</course>
  <speed>9.01</speed>
  <fix>3d</fix>
</trkpt>
<trkpt lat="-27.2723568" lon="151.2900682">
  <ele>485.79</ele>
  <time>2026-09-01T19:59:00Z</time>
  <course>359.16</course>
  <speed>8.112465716414462</speed>
  <fix>3d</fix>
</trkpt>
<trkpt lat="-27.2723715" lon="151.2900684">
  <ele>485.28</ele>
  <time>2026-09-01T19:59:00Z</time>
  <course>358.47</course>
  <speed>8.57</speed>
  <fix>3d</fix>
</trkpt>
<trkpt lat="-27.2723496" lon="151.290068">
  <ele>486.01</ele>
  <time>2026-09-01T19:59:00Z</time>
  <course>359.18</course>
  <speed>7.88229027630929</speed>
  <fix>3d</fix>
</trkpt>
<trkpt lat="-27.2723715" lon="151.2900684">
  <ele>485.28</ele>
  <time>2026-09-01T19:59:00Z</time>
  <course>358.47</course>
  <speed>8.57</speed>
  <fix>3d</fix>
</trkpt>
<trkpt lat="-27.2723426" lon="151.2900678">
  <ele>486.23</ele>
  <time>2026-09-01T19:59:00Z</time>
  <course>359.19</course>
  <speed>7.652117354039991</speed>
  <fix>3d</fix>
</trkpt>
<trkpt lat="-27.2723565" lon="151.290068">
  <ele>485.75</ele>
  <time>2026-09-01T19:59:00Z</time>
  <course>358.46</course>
  <speed>8.12</speed>
  <fix>3d</fix>
</trkpt>
<trkpt lat="-27.2723357" lon="151.2900676">
  <ele>486.45</ele>
  <time>2026-09-01T19:59:00Z</time>
  <course>359.2</course>
  <speed>7.412185912401281</speed>
  <fix>3d</fix>
</trkpt>
<trkpt lat="-27.2723565" lon="151.290068">
  <ele>485.75</ele>
  <time>2026-09-01T19:59:00Z</time>
  <course>358.46</course>
  <speed>8.12</speed>
  <fix>3d</fix>
</trkpt>
<trkpt lat="-27.2723292" lon="151.2900673">
  <ele>486.68</ele>
  <time>2026-09-01T19:59:00Z</time>
  <course>359.22</course>
  <speed>7.182012252843906</speed>
  <fix>3d</fix>
</trkpt>
<trkpt lat="-27.2723423" lon="151.2900675">
  <ele>486.2</ele>
  <time>2026-09-01T19:59:00Z</time>
  <course>358.46</course>
  <speed>7.66</speed>
  <fix>3d</fix>
</trkpt>
<trkpt lat="-27.2723228" lon="151.2900672">
  <ele>486.9</ele>
  <time>2026-09-01T19:59:00Z</time>
  <course>359.23</course>
  <speed>6.952078825790168</speed>
  <fix>3d</fix>
</trkpt>
<trkpt lat="-27.2723423" lon="151.2900675">
  <ele>486.2</ele>
  <time>2026-09-01T19:59:00Z</time>
  <course>358.46</course>
  <speed>7.66</speed>
  <fix>3d</fix>
</trkpt>
<trkpt lat="-27.2723164" lon="151.290067">
  <ele>487.13</ele>
  <time>2026-09-01T19:59:00Z</time>
  <course>359.25</course>
  <speed>6.71190732951521</speed>
  <fix>3d</fix>
</trkpt>
<trkpt lat="-27.2723289" lon="151.2900672">
  <ele>486.64</ele>
  <time>2026-09-01T19:59:00Z</time>
  <course>358.46</course>
  <speed>7.19</speed>
  <fix>3d</fix>
</trkpt>
<trkpt lat="-27.2723106" lon="151.2900668">
  <ele>487.35</ele>
  <time>2026-09-01T19:59:00Z</time>
  <course>359.27</course>
  <speed>6.471738560850554</speed>
  <fix>3d</fix>
</trkpt>
<trkpt lat="-27.2723164" lon="151.2900667">
  <ele>487.09</ele>
  <time>2026-09-01T19:59:00Z</time>
  <course>358.46</course>
  <speed>6.72</speed>
  <fix>3d</fix>
</trkpt>
<trkpt lat="-27.2723048" lon="151.2900666">
  <ele>487.58</ele>
  <time>2026-09-01T19:59:00Z</time>
  <course>359.29</course>
  <speed>6.241802624242455</speed>
  <fix>3d</fix>
</trkpt>
<trkpt lat="-27.2723164" lon="151.2900667">
  <ele>487.09</ele>
  <time>2026-09-01T19:59:00Z</time>
  <course>358.46</course>
  <speed>6.72</speed>
  <fix>3d</fix>
</trkpt>
<trkpt lat="-27.2722993" lon="151.2900664">
  <ele>487.81</ele>
  <time>2026-09-01T19:59:00Z</time>
  <course>359.31</course>
  <speed>6.001633111079017</speed>
  <fix>3d</fix>
</trkpt>
<trkpt lat="-27.2723048" lon="151.2900664">
  <ele>487.55</ele>
  <time>2026-09-01T19:59:00Z</time>
  <course>358.46</course>
  <speed>6.25</speed>
  <fix>3d</fix>
</trkpt>
<trkpt lat="-27.272294" lon="151.2900663">
  <ele>488.04</ele>
  <time>2026-09-01T19:59:00Z</time>
  <course>359.33</course>
  <speed>5.771698190307598</speed>
  <fix>3d</fix>
</trkpt>
<trkpt lat="-27.2723048" lon="151.2900664">
  <ele>487.55</ele>
  <time>2026-09-01T19:59:00Z</time>
  <course>358.46</course>
  <speed>6.25</speed>
  <fix>3d</fix>
</trkpt>
<trkpt lat="-27.2722889" lon="151.2900661">
  <ele>488.28</ele>
  <time>2026-09-01T19:59:00Z</time>
  <course>359.35</course>
  <speed>5.531527817881783</speed>
  <fix>3d</fix>
</trkpt>
<trkpt lat="-27.272294" lon="151.2900661">
  <ele>488.01</ele>
  <time>2026-09-01T19:59:00Z</time>
  <course>358.46</course>
  <speed>5.79</speed>
  <fix>3d</fix>
</trkpt>
<trkpt lat="-27.272284" lon="151.290066">
  <ele>488.51</ele>
  <time>2026-09-01T19:59:00Z</time>
  <course>359.37</course>
  <speed>5.301358316507195</speed>
  <fix>3d</fix>
</trkpt>
<trkpt lat="-27.272294" lon="151.2900661">
  <ele>488.01</ele>
  <time>2026-09-01T19:59:00Z</time>
  <course>358.46</course>
  <speed>5.79</speed>
  <fix>3d</fix>
</trkpt>
<trkpt lat="-27.2722793" lon="151.2900658">
  <ele>488.75</ele>
  <time>2026-09-01T19:59:00Z</time>
  <course>359.39</course>
  <speed>5.071419919509722</speed>
  <fix>3d</fix>
</trkpt>
<trkpt lat="-27.272284" lon="151.2900658">
  <ele>488.47</ele>
  <time>2026-09-01T19:59:00Z</time>
  <course>358.46</course>
  <speed>5.32</speed>
  <fix>3d</fix>
</trkpt>
<trkpt lat="-27.2722749" lon="151.2900657">
  <ele>488.99</ele>
  <time>2026-09-01T19:59:00Z</time>
  <course>359.41</course>
  <speed>4.841249838626385</speed>
  <fix>3d</fix>
</trkpt>
<trkpt lat="-27.272284" lon="151.2900658">
  <ele>488.47</ele>
  <time>2026-09-01T19:59:00Z</time>
  <course>358.46</course>
  <speed>5.32</speed>
  <fix>3d</fix>
</trkpt>
<trkpt lat="-27.2722706" lon="151.2900656">
  <ele>489.24</ele>
  <time>2026-09-01T19:59:00Z</time>
  <course>359.43</course>
  <speed>4.621309338272002</speed>
  <fix>3d</fix>
</trkpt>
<trkpt lat="-27.2722748" lon="151.2900655">
  <ele>488.95</ele>
  <time>2026-09-01T19:59:00Z</time>
  <course>358.46</course>
  <speed>4.86</speed>
  <fix>3d</fix>
</trkpt>
<trkpt lat="-27.2722665" lon="151.2900654">
  <ele>489.48</ele>
  <time>2026-09-01T19:59:00Z</time>
  <course>359.45</course>
  <speed>4.411133641140336</speed>
  <fix>3d</fix>
</trkpt>
<trkpt lat="-27.2722748" lon="151.2900655">
  <ele>488.95</ele>
  <time>2026-09-01T19:59:00Z</time>
  <course>358.46</course>
  <speed>4.86</speed>
  <fix>3d</fix>
</trkpt>
<trkpt lat="-27.2722626" lon="151.2900653">
  <ele>489.73</ele>
  <time>2026-09-01T19:59:00Z</time>
  <course>359.46</course>
  <speed>4.220959606534987</speed>
  <fix>3d</fix>
</trkpt>
<trkpt lat="-27.2722665" lon="151.2900652">
  <ele>489.43</ele>
  <time>2026-09-01T19:59:00Z</time>
  <course>358.46</course>
  <speed>4.44</speed>
  <fix>3d</fix>
</trkpt>
<trkpt lat="-27.272259" lon="151.2900652">
  <ele>489.98</ele>
  <time>2026-09-01T19:59:00Z</time>
  <course>359.47</course>
  <speed>4.060997414429121</speed>
  <fix>3d</fix>
</trkpt>
<trkpt lat="-27.2722665" lon="151.2900652">
  <ele>489.43</ele>
  <time>2026-09-01T19:59:00Z</time>
  <course>358.46</course>
  <speed>4.44</speed>
  <fix>3d</fix>
</trkpt>
<trkpt lat="-27.2722554" lon="151.2900651">
  <ele>490.22</ele>
  <time>2026-09-01T19:59:00Z</time>
  <course>359.48</course>
  <speed>3.9108183286877445</speed>
  <fix>3d</fix>
</trkpt>
<trkpt lat="-27.2722665" lon="151.2900652">
  <ele>489.43</ele>
  <time>2026-09-01T19:59:00Z</time>
  <course>358.46</course>
  <speed>4.44</speed>
  <fix>3d</fix>
</trkpt>
<trkpt lat="-27.2722519" lon="151.290065">
  <ele>490.48</ele>
  <time>2026-09-01T19:59:00Z</time>
  <course>359.49</course>
  <speed>3.7808464660707926</speed>
  <fix>3d</fix>
</trkpt>
<trkpt lat="-27.2722588" lon="151.2900651">
  <ele>489.92</ele>
  <time>2026-09-01T19:59:00Z</time>
  <course>358.47</course>
  <speed>4.08</speed>
  <fix>3d</fix>
</trkpt>
<trkpt lat="-27.2722486" lon="151.2900649">
  <ele>490.73</ele>
  <time>2026-09-01T19:59:00Z</time>
  <course>359.5</course>
  <speed>3.660669337703147</speed>
  <fix>3d</fix>
</trkpt>
<trkpt lat="-27.2722588" lon="151.2900651">
  <ele>489.92</ele>
  <time>2026-09-01T19:59:00Z</time>
  <course>358.47</course>
  <speed>4.08</speed>
  <fix>3d</fix>
</trkpt>
<trkpt lat="-27.2722453" lon="151.2900648">
  <ele>490.99</ele>
  <time>2026-09-01T19:59:00Z</time>
  <course>359.51</course>
  <speed>3.5506900737743923</speed>
  <fix>3d</fix>
</trkpt>
<trkpt lat="-27.2722518" lon="151.2900649">
  <ele>490.42</ele>
  <time>2026-09-01T19:59:00Z</time>
  <course>358.5</course>
  <speed>3.8</speed>
  <fix>3d</fix>
</trkpt>
<trkpt lat="-27.2722421" lon="151.2900647">
  <ele>491.24</ele>
  <time>2026-09-01T19:59:00Z</time>
  <course>359.51</course>
  <speed>3.440712135590538</speed>
  <fix>3d</fix>
</trkpt>
<trkpt lat="-27.2722518" lon="151.2900649">
  <ele>490.42</ele>
  <time>2026-09-01T19:59:00Z</time>
  <course>358.5</course>
  <speed>3.8</speed>
  <fix>3d</fix>
</trkpt>
<trkpt lat="-27.2722391" lon="151.2900646">
  <ele>491.49</ele>
  <time>2026-09-01T19:59:00Z</time>
  <course>359.52</course>
  <speed>3.340538878684096</speed>
  <fix>3d</fix>
</trkpt>
<trkpt lat="-27.2722452" lon="151.2900646">
  <ele>490.93</ele>
  <time>2026-09-01T19:59:00Z</time>
  <course>358.52</course>
  <speed>3.56</speed>
  <fix>3d</fix>
</trkpt>
<trkpt lat="-27.2722361" lon="151.2900646">
  <ele>491.74</ele>
  <time>2026-09-01T19:59:00Z</time>
  <course>359.52</course>
  <speed>3.240555507933786</speed>
  <fix>3d</fix>
</trkpt>
<trkpt lat="-27.2722452" lon="151.2900646">
  <ele>490.93</ele>
  <time>2026-09-01T19:59:00Z</time>
  <course>358.52</course>
  <speed>3.56</speed>
  <fix>3d</fix>
</trkpt>
<trkpt lat="-27.2722332" lon="151.2900645">
  <ele>491.97</ele>
  <time>2026-09-01T19:59:00Z</time>
  <course>359.52</course>
  <speed>3.130399335548102</speed>
  <fix>3d</fix>
</trkpt>
<trkpt lat="-27.2722389" lon="151.2900645">
  <ele>491.43</ele>
  <time>2026-09-01T19:59:00Z</time>
  <course>358.54</course>
  <speed>3.35</speed>
  <fix>3d</fix>
</trkpt>
<trkpt lat="-27.2722304" lon="151.2900644">
  <ele>492.19</ele>
  <time>2026-09-01T19:59:00Z</time>
  <course>359.53</course>
  <speed>3.020413878924542</speed>
  <fix>3d</fix>
</trkpt>
<trkpt lat="-27.2722331" lon="151.2900642">
  <ele>491.9</ele>
  <time>2026-09-01T19:59:00Z</time>
  <course>358.55</course>
  <speed>3.14</speed>
  <fix>3d</fix>
</trkpt>
<trkpt lat="-27.2722277" lon="151.2900643">
  <ele>492.39</ele>
  <time>2026-09-01T19:59:00Z</time>
  <course>359.53</course>
  <speed>2.9104295215655025</speed>
  <fix>3d</fix>
</trkpt>
<trkpt lat="-27.2722331" lon="151.2900642">
  <ele>491.9</ele>
  <time>2026-09-01T19:59:00Z</time>
  <course>358.55</course>
  <speed>3.14</speed>
  <fix>3d</fix>
</trkpt>
<trkpt lat="-27.2722251" lon="151.2900643">
  <ele>492.57</ele>
  <time>2026-09-01T19:59:00Z</time>
  <course>359.53</course>
  <speed>2.800446392988089</speed>
  <fix>3d</fix>
</trkpt>
<trkpt lat="-27.2722276" lon="151.2900641">
  <ele>492.31</ele>
  <time>2026-09-01T19:59:00Z</time>
  <course>358.55</course>
  <speed>2.92</speed>
  <fix>3d</fix>
</trkpt>
<trkpt lat="-27.2722227" lon="151.2900642">
  <ele>492.72</ele>
  <time>2026-09-01T19:59:00Z</time>
  <course>359.54</course>
  <speed>2.6902973813316624</speed>
  <fix>3d</fix>
</trkpt>
<trkpt lat="-27.2722276" lon="151.2900641">
  <ele>492.31</ele>
  <time>2026-09-01T19:59:00Z</time>
  <course>358.55</course>
  <speed>2.92</speed>
  <fix>3d</fix>
</trkpt>
<trkpt lat="-27.2722203" lon="151.2900641">
  <ele>492.85</ele>
  <time>2026-09-01T19:59:00Z</time>
  <course>359.54</course>
  <speed>2.5603124809288413</speed>
  <fix>3d</fix>
</trkpt>
<trkpt lat="-27.2722226" lon="151.290064">
  <ele>492.64</ele>
  <time>2026-09-01T19:59:00Z</time>
  <course>358.56</course>
  <speed>2.7</speed>
  <fix>3d</fix>
</trkpt>
<trkpt lat="-27.272218" lon="151.2900641">
  <ele>492.95</ele>
  <time>2026-09-01T19:59:00Z</time>
  <course>359.55</course>
  <speed>2.4303291958086666</speed>
  <fix>3d</fix>
</trkpt>
<trkpt lat="-27.2722226" lon="151.290064">
  <ele>492.64</ele>
  <time>2026-09-01T19:59:00Z</time>
  <course>358.56</course>
  <speed>2.7</speed>
  <fix>3d</fix>
</trkpt>
<trkpt lat="-27.2722159" lon="151.290064">
  <ele>493.03</ele>
  <time>2026-09-01T19:59:00Z</time>
  <course>359.55</course>
  <speed>2.2901964981197573</speed>
  <fix>3d</fix>
</trkpt>
<trkpt lat="-27.272218" lon="151.2900638">
  <ele>492.87</ele>
  <time>2026-09-01T19:59:00Z</time>
  <course>358.55</course>
  <speed>2.44</speed>
  <fix>3d</fix>
</trkpt>
<trkpt lat="-27.2722139" lon="151.2900639">
  <ele>493.08</ele>
  <time>2026-09-01T19:59:00Z</time>
  <course>359.56</course>
  <speed>2.1502092921387908</speed>
  <fix>3d</fix>
</trkpt>
<trkpt lat="-27.272218" lon="151.2900638">
  <ele>492.87</ele>
  <time>2026-09-01T19:59:00Z</time>
  <course>358.55</course>
  <speed>2.44</speed>
  <fix>3d</fix>
</trkpt>
<trkpt lat="-27.272212" lon="151.2900639">
  <ele>493.12</ele>
  <time>2026-09-01T19:59:00Z</time>
  <course>359.56</course>
  <speed>2.000224987345174</speed>
  <fix>3d</fix>
</trkpt>
<trkpt lat="-27.2722138" lon="151.2900637">
  <ele>493.01</ele>
  <time>2026-09-01T19:59:00Z</time>
  <course>358.53</course>
  <speed>2.16</speed>
  <fix>3d</fix>
</trkpt>
<trkpt lat="-27.2722103" lon="151.2900638">
  <ele>493.13</ele>
  <time>2026-09-01T19:59:00Z</time>
  <course>359.57</course>
  <speed>1.8601075237738274</speed>
  <fix>3d</fix>
</trkpt>
<trkpt lat="-27.2722138" lon="151.2900637">
  <ele>493.01</ele>
  <time>2026-09-01T19:59:00Z</time>
  <course>358.53</course>
  <speed>2.16</speed>
  <fix>3d</fix>
</trkpt>
<trkpt lat="-27.2722086" lon="151.2900638">
  <ele>493.14</ele>
  <time>2026-09-01T19:59:00Z</time>
  <course>359.58</course>
  <speed>1.71011695506477</speed>
  <fix>3d</fix>
</trkpt>
<trkpt lat="-27.2722101" lon="151.2900636">
  <ele>493.07</ele>
  <time>2026-09-01T19:59:00Z</time>
  <course>358.51</course>
  <speed>1.87</speed>
  <fix>3d</fix>
</trkpt>
<trkpt lat="-27.2722072" lon="151.2900637">
  <ele>493.13</ele>
  <time>2026-09-01T19:59:00Z</time>
  <course>359.58</course>
  <speed>1.5601281998605114</speed>
  <fix>3d</fix>
</trkpt>
<trkpt lat="-27.2722101" lon="151.2900636">
  <ele>493.07</ele>
  <time>2026-09-01T19:59:00Z</time>
  <course>358.51</course>
  <speed>1.87</speed>
  <fix>3d</fix>
</trkpt>
<trkpt lat="-27.2722058" lon="151.2900637">
  <ele>493.11</ele>
  <time>2026-09-01T19:59:00Z</time>
  <course>359.59</course>
  <speed>1.4100354605470033</speed>
  <fix>3d</fix>
</trkpt>
<trkpt lat="-27.272207" lon="151.2900635">
  <ele>493.08</ele>
  <time>2026-09-01T19:59:00Z</time>
  <course>358.49</course>
  <speed>1.58</speed>
  <fix>3d</fix>
</trkpt>
<trkpt lat="-27.2722046" lon="151.2900637">
  <ele>493.08</ele>
  <time>2026-09-01T19:59:00Z</time>
  <course>359.59</course>
  <speed>1.2700393694685217</speed>
  <fix>3d</fix>
</trkpt>
<trkpt lat="-27.272207" lon="151.2900635">
  <ele>493.08</ele>
  <time>2026-09-01T19:59:00Z</time>
  <course>358.49</course>
  <speed>1.58</speed>
  <fix>3d</fix>
</trkpt>
<trkpt lat="-27.2722035" lon="151.2900636">
  <ele>493.06</ele>
  <time>2026-09-01T19:59:00Z</time>
  <course>359.59</course>
  <speed>1.120044641967453</speed>
  <fix>3d</fix>
</trkpt>
<trkpt lat="-27.2722045" lon="151.2900635">
  <ele>493.05</ele>
  <time>2026-09-01T19:59:00Z</time>
  <course>358.45</course>
  <speed>1.29</speed>
  <fix>3d</fix>
</trkpt>
<trkpt lat="-27.2722025" lon="151.2900636">
  <ele>493.03</ele>
  <time>2026-09-01T19:59:00Z</time>
  <course>359.59</course>
  <speed>0.98</speed>
  <fix>3d</fix>
</trkpt>
<trkpt lat="-27.2722045" lon="151.2900635">
  <ele>493.05</ele>
  <time>2026-09-01T19:59:00Z</time>
  <course>358.45</course>
  <speed>1.29</speed>
  <fix>3d</fix>
</trkpt>
<trkpt lat="-27.2722017" lon="151.2900636">
  <ele>493.0</ele>
  <time>2026-09-01T19:59:00Z</time>
  <course>359.6</course>
  <speed>0.84</speed>
  <fix>3d</fix>
</trkpt>
<trkpt lat="-27.2722025" lon="151.2900634">
  <ele>493.0</ele>
  <time>2026-09-01T19:59:00Z</time>
  <course>358.4</course>
  <speed>1.0</speed>
  <fix>3d</fix>
</trkpt>
<trkpt lat="-27.272201" lon="151.2900636">
  <ele>492.98</ele>
  <time>2026-09-01T19:59:00Z</time>
  <course>359.6</course>
  <speed>0.7</speed>
  <fix>3d</fix>
</trkpt>
<trkpt lat="-27.2722025" lon="151.2900634">
  <ele>493.0</ele>
  <time>2026-09-01T19:59:00Z</time>
  <course>358.4</course>
  <speed>1.0</speed>
  <fix>3d</fix>
</trkpt>
<trkpt lat="-27.2722004" lon="151.2900635">
  <ele>492.96</ele>
  <time>2026-09-01T19:59:00Z</time>
  <course>359.6</course>
  <speed>0.57</speed>
  <fix>3d</fix>
</trkpt>
<trkpt lat="-27.2722009" lon="151.2900633">
  <ele>492.95</ele>
  <time>2026-09-01T19:59:00Z</time>
  <course>358.29</course>
  <speed>0.72</speed>
  <fix>3d</fix>
</trkpt>
<trkpt lat="-27.2722" lon="151.2900635">
  <ele>492.94</ele>
  <time>2026-09-01T19:59:00Z</time>
  <course>359.6</course>
  <speed>0.45</speed>
  <fix>3d</fix>
</trkpt>
<trkpt lat="-27.2722009" lon="151.2900633">
  <ele>492.95</ele>
  <time>2026-09-01T19:59:00Z</time>
  <course>358.29</course>
  <speed>0.72</speed>
  <fix>3d</fix>
</trkpt>
<trkpt lat="-27.2721996" lon="151.2900635">
  <ele>492.93</ele>
  <time>2026-09-01T19:59:00Z</time>
  <course>359.6</course>
  <speed>0.33</speed>
  <fix>3d</fix>
</trkpt>
<trkpt lat="-27.2721998" lon="151.2900633">
  <ele>492.91</ele>
  <time>2026-09-01T19:59:00Z</time>
  <course>358.04</course>
  <speed>0.47</speed>
  <fix>3d</fix>
</trkpt>
<trkpt lat="-27.2721993" lon="151.2900635">
  <ele>492.93</ele>
  <time>2026-09-01T19:59:00Z</time>
  <course>359.6</course>
  <speed>0.22022715545545238</speed>
  <fix>3d</fix>
</trkpt>
<trkpt lat="-27.2721998" lon="151.2900633">
  <ele>492.91</ele>
  <time>2026-09-01T19:59:00Z</time>
  <course>358.04</course>
  <speed>0.47</speed>
  <fix>3d</fix>
</trkpt>
<trkpt lat="-27.2721992" lon="151.2900635">
  <ele>492.93</ele>
  <time>2026-09-01T19:59:00Z</time>
  <course>359.6</course>
  <speed>0.12041594578792296</speed>
  <fix>3d</fix>
</trkpt>
<trkpt lat="-27.2721992" lon="151.2900632">
  <ele>492.91</ele>
  <time>2026-09-01T19:59:00Z</time>
  <course>357.28</course>
  <speed>0.24</speed>
  <fix>3d</fix>
</trkpt>
<trkpt lat="-27.2721991" lon="151.2900635">
  <ele>492.93</ele>
  <time>2026-09-01T19:59:00Z</time>
  <course>359.59</course>
  <speed>0.0316227766016838</speed>
  <fix>3d</fix>
</trkpt>
<trkpt lat="-27.2721992" lon="151.2900632">
  <ele>492.91</ele>
  <time>2026-09-01T19:59:00Z</time>
  <course>357.28</course>
  <speed>0.24</speed>
  <fix>3d</fix>
</trkpt>
<trkpt lat="-27.2721991" lon="151.2900635">
  <ele>492.94</ele>
  <time>2026-09-01T19:59:00Z</time>
  <course>359.59</course>
  <speed>0.0412310562561766</speed>
  <fix>3d</fix>
</trkpt>
<trkpt lat="-27.2721989" lon="151.2900632">
  <ele>492.91</ele>
  <time>2026-09-01T19:59:00Z</time>
  <course>351.8</course>
  <speed>0.05</speed>
  <fix>3d</fix>
</trkpt>
<trkpt lat="-27.2721991" lon="151.2900635">
  <ele>492.95</ele>
  <time>2026-09-01T19:59:00Z</time>
  <course>359.59</course>
  <speed>0.1118033988749895</speed>
  <fix>3d</fix>
</trkpt>
<trkpt lat="-27.2721989" lon="151.2900632">
  <ele>492.91</ele>
  <time>2026-09-01T19:59:00Z</time>
  <course>351.8</course>
  <speed>0.05</speed>
  <fix>3d</fix>
</trkpt>
<trkpt lat="-27.2721992" lon="151.2900635">
  <ele>492.97</ele>
  <time>2026-09-01T19:59:00Z</time>
  <course>359.58</course>
  <speed>0.1711724276862369</speed>
  <fix>3d</fix>
</trkpt>
<trkpt lat="-27.272199" lon="151.2900632">
  <ele>492.94</ele>
  <time>2026-09-01T19:59:00Z</time>
  <course>183.12</course>
  <speed>0.09</speed>
  <fix>3d</fix>
</trkpt>
<trkpt lat="-27.2721994" lon="151.2900635">
  <ele>492.98</ele>
  <time>2026-09-01T19:59:00Z</time>
  <course>359.56</course>
  <speed>0.22090722034374521</speed>
  <fix>3d</fix>
</trkpt>
<trkpt lat="-27.272199" lon="151.2900632">
  <ele>492.94</ele>
  <time>2026-09-01T19:59:00Z</time>
  <course>183.12</course>
  <speed>0.09</speed>
  <fix>3d</fix>
</trkpt>
<trkpt lat="-27.2721996" lon="151.2900635">
  <ele>493.0</ele>
  <time>2026-09-01T19:59:00Z</time>
  <course>359.53</course>
  <speed>0.260768096208106</speed>
  <fix>3d</fix>
</trkpt>
<trkpt lat="-27.2721992" lon="151.2900632">
  <ele>492.97</ele>
  <time>2026-09-01T19:59:00Z</time>
  <course>180.33</course>
  <speed>0.2</speed>
  <fix>3d</fix>
</trkpt>
<trkpt lat="-27.2721999" lon="151.2900635">
  <ele>493.01</ele>
  <time>2026-09-01T19:59:00Z</time>
  <course>359.49</course>
  <speed>0.3014962686336267</speed>
  <fix>3d</fix>
</trkpt>
<trkpt lat="-27.2721992" lon="151.2900632">
  <ele>492.97</ele>
  <time>2026-09-01T19:59:00Z</time>
  <course>180.33</course>
  <speed>0.2</speed>
  <fix>3d</fix>
</trkpt>
<trkpt lat="-27.2722" lon="151.2900635">
  <ele>493.03</ele>
  <time>2026-09-01T19:59:00Z</time>
  <course>359.44</course>
  <speed>0.32140317359976395</speed>
  <fix>3d</fix>
</trkpt>
<trkpt lat="-27.2721996" lon="151.2900632">
  <ele>493.01</ele>
  <time>2026-09-01T19:59:00Z</time>
  <course>179.39</course>
  <speed>0.27</speed>
  <fix>3d</fix>
</trkpt>
<trkpt lat="-27.2722003" lon="151.2900635">
  <ele>493.04</ele>
  <time>2026-09-01T19:59:00Z</time>
  <course>359.41</course>
  <speed>0.3313608305156178</speed>
  <fix>3d</fix>
</trkpt>
<trkpt lat="-27.2721996" lon="151.2900632">
  <ele>493.01</ele>
  <time>2026-09-01T19:59:00Z</time>
  <course>179.39</course>
  <speed>0.27</speed>
  <fix>3d</fix>
</trkpt>
<trkpt lat="-27.2722006" lon="151.2900635">
  <ele>493.05</ele>
  <time>2026-09-01T19:59:00Z</time>
  <course>359.41</course>
  <speed>0.34132096331752027</speed>
  <fix>3d</fix>
</trkpt>
<trkpt lat="-27.2722001" lon="151.2900632">
  <ele>493.04</ele>
  <time>2026-09-01T19:59:00Z</time>
  <course>179.05</course>
  <speed>0.31</speed>
  <fix>3d</fix>
</trkpt>
<trkpt lat="-27.2722009" lon="151.2900635">
  <ele>493.06</ele>
  <time>2026-09-01T19:59:00Z</time>
  <course>359.42</course>
  <speed>0.34132096331752027</speed>
  <fix>3d</fix>
</trkpt>
<trkpt lat="-27.2722001" lon="151.2900632">
  <ele>493.04</ele>
  <time>2026-09-01T19:59:00Z</time>
  <course>179.05</course>
  <speed>0.31</speed>
  <fix>3d</fix>
</trkpt>
<trkpt lat="-27.2722012" lon="151.2900635">
  <ele>493.07</ele>
  <time>2026-09-01T19:59:00Z</time>
  <course>359.45</course>
  <speed>0.34132096331752027</speed>
  <fix>3d</fix>
</trkpt>
<trkpt lat="-27.2722007" lon="151.2900632">
  <ele>493.07</ele>
  <time>2026-09-01T19:59:00Z</time>
  <course>179.05</course>
  <speed>0.32</speed>
  <fix>3d</fix>
</trkpt>
<trkpt lat="-27.2722014" lon="151.2900635">
  <ele>493.07</ele>
  <time>2026-09-01T19:59:00Z</time>
  <course>359.49</course>
  <speed>0.3313608305156178</speed>
  <fix>3d</fix>
</trkpt>
<trkpt lat="-27.2722007" lon="151.2900632">
  <ele>493.07</ele>
  <time>2026-09-01T19:59:00Z</time>
  <course>179.05</course>
  <speed>0.32</speed>
  <fix>3d</fix>
</trkpt>
<trkpt lat="-27.2722017" lon="151.2900635">
  <ele>493.07</ele>
  <time>2026-09-01T19:59:00Z</time>
  <course>359.53</course>
  <speed>0.32140317359976395</speed>
  <fix>3d</fix>
</trkpt>
<trkpt lat="-27.2722013" lon="151.2900632">
  <ele>493.08</ele>
  <time>2026-09-01T19:59:00Z</time>
  <course>179.11</course>
  <speed>0.31</speed>
  <fix>3d</fix>
</trkpt>
<trkpt lat="-27.272202" lon="151.2900635">
  <ele>493.07</ele>
  <time>2026-09-01T19:59:00Z</time>
  <course>359.56</course>
  <speed>0.3014962686336267</speed>
  <fix>3d</fix>
</trkpt>
<trkpt lat="-27.2722013" lon="151.2900632">
  <ele>493.08</ele>
  <time>2026-09-01T19:59:00Z</time>
  <course>179.11</course>
  <speed>0.31</speed>
  <fix>3d</fix>
</trkpt>
<trkpt lat="-27.2722022" lon="151.2900635">
  <ele>493.06</ele>
  <time>2026-09-01T19:59:00Z</time>
  <course>359.57</course>
  <speed>0.2816025568065745</speed>
  <fix>3d</fix>
</trkpt>
<trkpt lat="-27.2722018" lon="151.2900632">
  <ele>493.09</ele>
  <time>2026-09-01T19:59:00Z</time>
  <course>179.17</course>
  <speed>0.29</speed>
  <fix>3d</fix>
</trkpt>
<trkpt lat="-27.2722025" lon="151.2900635">
  <ele>493.06</ele>
  <time>2026-09-01T19:59:00Z</time>
  <course>359.57</course>
  <speed>0.261725046566048</speed>
  <fix>3d</fix>
</trkpt>
<trkpt lat="-27.2722018" lon="151.2900632">
  <ele>493.09</ele>
  <time>2026-09-01T19:59:00Z</time>
  <course>179.17</course>
  <speed>0.29</speed>
  <fix>3d</fix>
</trkpt>
<trkpt lat="-27.2722027" lon="151.2900635">
  <ele>493.06</ele>
  <time>2026-09-01T19:59:00Z</time>
  <course>359.55</course>
  <speed>0.24186773244895649</speed>
  <fix>3d</fix>
</trkpt>
<trkpt lat="-27.2722023" lon="151.2900632">
  <ele>493.09</ele>
  <time>2026-09-01T19:59:00Z</time>
  <course>179.23</course>
  <speed>0.25</speed>
  <fix>3d</fix>
</trkpt>
<trkpt lat="-27.2722029" lon="151.2900635">
  <ele>493.06</ele>
  <time>2026-09-01T19:59:00Z</time>
  <course>359.54</course>
  <speed>0.21213203435596426</speed>
  <fix>3d</fix>
</trkpt>
<trkpt lat="-27.2722023" lon="151.2900632">
  <ele>493.09</ele>
  <time>2026-09-01T19:59:00Z</time>
  <course>179.23</course>
  <speed>0.25</speed>
  <fix>3d</fix>
</trkpt>
<trkpt lat="-27.272203" lon="151.2900635">
  <ele>493.05</ele>
  <time>2026-09-01T19:59:00Z</time>
  <course>359.52</course>
  <speed>0.19235384061671343</speed>
  <fix>3d</fix>
</trkpt>
<trkpt lat="-27.2722027" lon="151.2900632">
  <ele>493.09</ele>
  <time>2026-09-01T19:59:00Z</time>
  <course>179.41</course>
  <speed>0.2</speed>
  <fix>3d</fix>
</trkpt>
<trkpt lat="-27.2722032" lon="151.2900635">
  <ele>493.05</ele>
  <time>2026-09-01T19:59:00Z</time>
  <course>359.51</course>
  <speed>0.16278820596099705</speed>
  <fix>3d</fix>
</trkpt>
<trkpt lat="-27.2722027" lon="151.2900632">
  <ele>493.09</ele>
  <time>2026-09-01T19:59:00Z</time>
  <course>179.41</course>
  <speed>0.2</speed>
  <fix>3d</fix>
</trkpt>
<trkpt lat="-27.2722033" lon="151.2900635">
  <ele>493.05</ele>
  <time>2026-09-01T19:59:00Z</time>
  <course>359.52</course>
  <speed>0.13341664064126335</speed>
  <fix>3d</fix>
</trkpt>
<trkpt lat="-27.272203" lon="151.2900632">
  <ele>493.08</ele>
  <time>2026-09-01T19:59:00Z</time>
  <course>179.94</course>
  <speed>0.14</speed>
  <fix>3d</fix>
</trkpt>
<trkpt lat="-27.2722034" lon="151.2900635">
  <ele>493.05</ele>
  <time>2026-09-01T19:59:00Z</time>
  <course>359.53</course>
  <speed>0.1044030650891055</speed>
  <fix>3d</fix>
</trkpt>
<trkpt lat="-27.272203" lon="151.2900632">
  <ele>493.08</ele>
  <time>2026-09-01T19:59:00Z</time>
  <course>179.94</course>
  <speed>0.14</speed>
  <fix>3d</fix>
</trkpt>
<trkpt lat="-27.2722034" lon="151.2900635">
  <ele>493.05</ele>
  <time>2026-09-01T19:59:00Z</time>
  <course>359.55</course>
  <speed>0.0632455532033676</speed>
  <fix>3d</fix>
</trkpt>
<trkpt lat="-27.2722032" lon="151.2900632">
  <ele>493.08</ele>
  <time>2026-09-01T19:59:00Z</time>
  <course>181.71</course>
  <speed>0.08</speed>
  <fix>3d</fix>
</trkpt>
<trkpt lat="-27.2722034" lon="151.2900635">
  <ele>493.04</ele>
  <time>2026-09-01T19:59:00Z</time>
  <course>359.58</course>
  <speed>0.03605551275463989</speed>
  <fix>3d</fix>
</trkpt>
<trkpt lat="-27.2722032" lon="151.2900632">
  <ele>493.08</ele>
  <time>2026-09-01T19:59:00Z</time>
  <course>181.71</course>
  <speed>0.08</speed>
  <fix>3d</fix>
</trkpt>
<trkpt lat="-27.2722034" lon="151.2900635">
  <ele>493.04</ele>
  <time>2026-09-01T19:59:00Z</time>
  <course>359.6</course>
  <speed>0.02</speed>
  <fix>3d</fix>
</trkpt>
<trkpt lat="-27.2722033" lon="151.2900632">
  <ele>493.08</ele>
  <time>2026-09-01T19:59:00Z</time>
  <course>195.03</course>
  <speed>0.02</speed>
  <fix>3d</fix>
</trkpt>
<trkpt lat="-27.2722034" lon="151.2900635">
  <ele>493.04</ele>
  <time>2026-09-01T19:59:00Z</time>
  <course>359.62</course>
  <speed>0.03605551275463989</speed>
  <fix>3d</fix>
</trkpt>
<trkpt lat="-27.2722033" lon="151.2900632">
  <ele>493.08</ele>
  <time>2026-09-01T19:59:00Z</time>
  <course>195.03</course>
  <speed>0.02</speed>
  <fix>3d</fix>
</trkpt>
<trkpt lat="-27.2722034" lon="151.2900635">
  <ele>493.05</ele>
  <time>2026-09-01T19:59:00Z</time>
  <course>359.63</course>
  <speed>0.0632455532033676</speed>
  <fix>3d</fix>
</trkpt>
<trkpt lat="-27.2722034" lon="151.2900632">
  <ele>493.09</ele>
  <time>2026-09-01T19:59:00Z</time>
  <course>350.58</course>
  <speed>0.04</speed>
  <fix>3d</fix>
</trkpt>
<trkpt lat="-27.2722033" lon="151.2900635">
  <ele>493.05</ele>
  <time>2026-09-01T19:59:00Z</time>
  <course>359.63</course>
  <speed>0.1019803902718557</speed>
  <fix>3d</fix>
</trkpt>
<trkpt lat="-27.2722034" lon="151.2900632">
  <ele>493.09</ele>
  <time>2026-09-01T19:59:00Z</time>
  <course>350.58</course>
  <speed>0.04</speed>
  <fix>3d</fix>
</trkpt>
<trkpt lat="-27.2722032" lon="151.2900635">
  <ele>493.05</ele>
  <time>2026-09-01T19:59:00Z</time>
  <course>359.63</course>
  <speed>0.13152946437965907</speed>
  <fix>3d</fix>
</trkpt>
<trkpt lat="-27.2722033" lon="151.2900632">
  <ele>493.09</ele>
  <time>2026-09-01T19:59:00Z</time>
  <course>354.95</course>
  <speed>0.12</speed>
  <fix>3d</fix>
</trkpt>
<trkpt lat="-27.2722031" lon="151.2900635">
  <ele>493.05</ele>
  <time>2026-09-01T19:59:00Z</time>
  <course>359.62</course>
  <speed>0.1711724276862369</speed>
  <fix>3d</fix>
</trkpt>
<trkpt lat="-27.2722033" lon="151.2900632">
  <ele>493.09</ele>
  <time>2026-09-01T19:59:00Z</time>
  <course>354.95</course>
  <speed>0.12</speed>
  <fix>3d</fix>
</trkpt>
<trkpt lat="-27.2722029" lon="151.2900635">
  <ele>493.05</ele>
  <time>2026-09-01T19:59:00Z</time>
  <course>359.61</course>
  <speed>0.2009975124224178</speed>
  <fix>3d</fix>
</trkpt>
<trkpt lat="-27.272203" lon="151.2900632">
  <ele>493.1</ele>
  <time>2026-09-01T19:59:00Z</time>
  <course>356.24</course>
  <speed>0.19</speed>
  <fix>3d</fix>
</trkpt>
<trkpt lat="-27.2722027" lon="151.2900635">
  <ele>493.05</ele>
  <time>2026-09-01T19:59:00Z</time>
  <course>359.6</course>
  <speed>0.23021728866442676</speed>
  <fix>3d</fix>
</trkpt>
<trkpt lat="-27.272203" lon="151.2900632">
  <ele>493.1</ele>
  <time>2026-09-01T19:59:00Z</time>
  <course>356.24</course>
  <speed>0.19</speed>
  <fix>3d</fix>
</trkpt>
<trkpt lat="-27.2722025" lon="151.2900635">
  <ele>493.05</ele>
  <time>2026-09-01T19:59:00Z</time>
  <course>359.59</course>
  <speed>0.27018512172212594</speed>
  <fix>3d</fix>
</trkpt>
<trkpt lat="-27.2722026" lon="151.2900632">
  <ele>493.11</ele>
  <time>2026-09-01T19:59:00Z</time>
  <course>356.89</course>
  <speed>0.25</speed>
  <fix>3d</fix>
</trkpt>
<trkpt lat="-27.2722022" lon="151.2900634">
  <ele>493.05</ele>
  <time>2026-09-01T19:59:00Z</time>
  <course>359.58</course>
  <speed>0.30016662039607267</speed>
  <fix>3d</fix>
</trkpt>
<trkpt lat="-27.2722026" lon="151.2900632">
  <ele>493.11</ele>
  <time>2026-09-01T19:59:00Z</time>
  <course>356.89</course>
  <speed>0.25</speed>
  <fix>3d</fix>
</trkpt>
<trkpt lat="-27.2722019" lon="151.2900634">
  <ele>493.05</ele>
  <time>2026-09-01T19:59:00Z</time>
  <course>359.58</course>
  <speed>0.3301514803843835</speed>
  <fix>3d</fix>
</trkpt>
<trkpt lat="-27.2722021" lon="151.2900632">
  <ele>493.12</ele>
  <time>2026-09-01T19:59:00Z</time>
  <course>357.32</course>
  <speed>0.32</speed>
  <fix>3d</fix>
</trkpt>
<trkpt lat="-27.2722016" lon="151.2900634">
  <ele>493.05</ele>
  <time>2026-09-01T19:59:00Z</time>
  <course>359.58</course>
  <speed>0.35014282800023194</speed>
  <fix>3d</fix>
</trkpt>
<trkpt lat="-27.2722021" lon="151.2900632">
  <ele>493.12</ele>
  <time>2026-09-01T19:59:00Z</time>
  <course>357.32</course>
  <speed>0.32</speed>
  <fix>3d</fix>
</trkpt>
<trkpt lat="-27.2722012" lon="151.2900634">
  <ele>493.05</ele>
  <time>2026-09-01T19:59:00Z</time>
  <course>359.58</course>
  <speed>0.38013155617496425</speed>
  <fix>3d</fix>
</trkpt>
<trkpt lat="-27.2722014" lon="151.2900632">
  <ele>493.12</ele>
  <time>2026-09-01T19:59:00Z</time>
  <course>357.69</course>
  <speed>0.38</speed>
  <fix>3d</fix>
</trkpt>
<trkpt lat="-27.2722009" lon="151.2900634">
  <ele>493.05</ele>
  <time>2026-09-01T19:59:00Z</time>
  <course>359.59</course>
  <speed>0.4001249804748511</speed>
  <fix>3d</fix>
</trkpt>
<trkpt lat="-27.2722014" lon="151.2900632">
  <ele>493.12</ele>
  <time>2026-09-01T19:59:00Z</time>
  <course>357.69</course>
  <speed>0.38</speed>
  <fix>3d</fix>
</trkpt>
<trkpt lat="-27.2722005" lon="151.2900634">
  <ele>493.05</ele>
  <time>2026-09-01T19:59:00Z</time>
  <course>359.59</course>
  <speed>0.4201190307520001</speed>
  <fix>3d</fix>
</trkpt>
<trkpt lat="-27.2722007" lon="151.2900631">
  <ele>493.13</ele>
  <time>2026-09-01T19:59:00Z</time>
  <course>358.01</course>
  <speed>0.43</speed>
  <fix>3d</fix>
</trkpt>
<trkpt lat="-27.2722001" lon="151.2900634">
  <ele>493.05</ele>
  <time>2026-09-01T19:59:00Z</time>
  <course>359.6</course>
  <speed>0.44011362169330775</speed>
  <fix>3d</fix>
</trkpt>
<trkpt lat="-27.2722007" lon="151.2900631">
  <ele>493.13</ele>
  <time>2026-09-01T19:59:00Z</time>
  <course>358.01</course>
  <speed>0.43</speed>
  <fix>3d</fix>
</trkpt>
<trkpt lat="-27.2721997" lon="151.2900634">
  <ele>493.06</ele>
  <time>2026-09-01T19:59:00Z</time>
  <course>359.6</course>
  <speed>0.46010868281309364</speed>
  <fix>3d</fix>
</trkpt>
<trkpt lat="-27.2721998" lon="151.2900631">
  <ele>493.13</ele>
  <time>2026-09-01T19:59:00Z</time>
  <course>358.24</course>
  <speed>0.47</speed>
  <fix>3d</fix>
</trkpt>
<trkpt lat="-27.2721992" lon="151.2900634">
  <ele>493.06</ele>
  <time>2026-09-01T19:59:00Z</time>
  <course>359.6</course>
  <speed>0.4801041553663121</speed>
  <fix>3d</fix>
</trkpt>
<trkpt lat="-27.2721998" lon="151.2900631">
  <ele>493.13</ele>
  <time>2026-09-01T19:59:00Z</time>
  <course>358.24</course>
  <speed>0.47</speed>
  <fix>3d</fix>
</trkpt>
<trkpt lat="-27.2721988" lon="151.2900634">
  <ele>493.06</ele>
  <time>2026-09-01T19:59:00Z</time>
  <course>359.6</course>
  <speed>0.4901020301937138</speed>
  <fix>3d</fix>
</trkpt>
<trkpt lat="-27.272199" lon="151.2900631">
  <ele>493.14</ele>
  <time>2026-09-01T19:59:00Z</time>
  <course>358.39</course>
  <speed>0.5</speed>
  <fix>3d</fix>
</trkpt>
<trkpt lat="-27.2721983" lon="151.2900633">
  <ele>493.06</ele>
  <time>2026-09-01T19:59:00Z</time>
  <course>359.59</course>
  <speed>0.5000999900019995</speed>
  <fix>3d</fix>
</trkpt>
<trkpt lat="-27.272199" lon="151.2900631">
  <ele>493.14</ele>
  <time>2026-09-01T19:59:00Z</time>
  <course>358.39</course>
  <speed>0.5</speed>
  <fix>3d</fix>
</trkpt>
<trkpt lat="-27.2721978" lon="151.2900633">
  <ele>493.07</ele>
  <time>2026-09-01T19:59:00Z</time>
  <course>359.59</course>
  <speed>0.5000999900019995</speed>
  <fix>3d</fix>
</trkpt>
<trkpt lat="-27.2721981" lon="151.290063">
  <ele>493.15</ele>
  <time>2026-09-01T19:59:00Z</time>
  <course>358.53</course>
  <speed>0.53</speed>
  <fix>3d</fix>
</trkpt>
<trkpt lat="-27.2721973" lon="151.2900633">
  <ele>493.07</ele>
  <time>2026-09-01T19:59:00Z</time>
  <course>359.59</course>
  <speed>0.510098029794274</speed>
  <fix>3d</fix>
</trkpt>
<trkpt lat="-27.2721981" lon="151.290063">
  <ele>493.15</ele>
  <time>2026-09-01T19:59:00Z</time>
  <course>358.53</course>
  <speed>0.53</speed>
  <fix>3d</fix>
</trkpt>
<trkpt lat="-27.2721969" lon="151.2900633">
  <ele>493.07</ele>
  <time>2026-09-01T19:59:00Z</time>
  <course>359.58</course>
  <speed>0.510098029794274</speed>
  <fix>3d</fix>
</trkpt>
<trkpt lat="-27.2721971" lon="151.290063">
  <ele>493.15</ele>
  <time>2026-09-01T19:59:00Z</time>
  <course>358.74</course>
  <speed>0.54</speed>
  <fix>3d</fix>
</trkpt>
<trkpt lat="-27.2721964" lon="151.2900633">
  <ele>493.07</ele>
  <time>2026-09-01T19:59:00Z</time>
  <course>359.58</course>
  <speed>0.510098029794274</speed>
  <fix>3d</fix>
</trkpt>
<trkpt lat="-27.2721971" lon="151.290063">
  <ele>493.15</ele>
  <time>2026-09-01T19:59:00Z</time>
  <course>358.74</course>
  <speed>0.54</speed>
  <fix>3d</fix>
</trkpt>
<trkpt lat="-27.2721959" lon="151.2900633">
  <ele>493.07</ele>
  <time>2026-09-01T19:59:00Z</time>
  <course>359.58</course>
  <speed>0.5103920062069939</speed>
  <fix>3d</fix>
</trkpt>
<trkpt lat="-27.2721961" lon="151.290063">
  <ele>493.16</ele>
  <time>2026-09-01T19:59:00Z</time>
  <course>359.01</course>
  <speed>0.54</speed>
  <fix>3d</fix>
</trkpt>
<trkpt lat="-27.2721954" lon="151.2900633">
  <ele>493.07</ele>
  <time>2026-09-01T19:59:00Z</time>
  <course>359.58</course>
  <speed>0.5003998401278722</speed>
  <fix>3d</fix>
</trkpt>
<trkpt lat="-27.2721961" lon="151.290063">
  <ele>493.16</ele>
  <time>2026-09-01T19:59:00Z</time>
  <course>359.01</course>
  <speed>0.54</speed>
  <fix>3d</fix>
</trkpt>
<trkpt lat="-27.2721949" lon="151.2900633">
  <ele>493.07</ele>
  <time>2026-09-01T19:59:00Z</time>
  <course>359.58</course>
  <speed>0.49040799340956914</speed>
  <fix>3d</fix>
</trkpt>
<trkpt lat="-27.2721951" lon="151.290063">
  <ele>493.16</ele>
  <time>2026-09-01T19:59:00Z</time>
  <course>359.27</course>
  <speed>0.53</speed>
  <fix>3d</fix>
</trkpt>
<trkpt lat="-27.2721945" lon="151.2900633">
  <ele>493.07</ele>
  <time>2026-09-01T19:59:00Z</time>
  <course>359.58</course>
  <speed>0.48041648597857256</speed>
  <fix>3d</fix>
</trkpt>
<trkpt lat="-27.2721951" lon="151.290063">
  <ele>493.16</ele>
  <time>2026-09-01T19:59:00Z</time>
  <course>359.27</course>
  <speed>0.53</speed>
  <fix>3d</fix>
</trkpt>
<trkpt lat="-27.272194" lon="151.2900633">
  <ele>493.07</ele>
  <time>2026-09-01T19:59:00Z</time>
  <course>359.58</course>
  <speed>0.470425339453563</speed>
  <fix>3d</fix>
</trkpt>
<trkpt lat="-27.2721942" lon="151.290063">
  <ele>493.16</ele>
  <time>2026-09-01T19:59:00Z</time>
  <course>359.5</course>
  <speed>0.51</speed>
  <fix>3d</fix>
</trkpt>
<trkpt lat="-27.2721936" lon="151.2900633">
  <ele>493.06</ele>
  <time>2026-09-01T19:59:00Z</time>
  <course>359.59</course>
  <speed>0.4604345773288535</speed>
  <fix>3d</fix>
</trkpt>
<trkpt lat="-27.2721942" lon="151.290063">
  <ele>493.16</ele>
  <time>2026-09-01T19:59:00Z</time>
  <course>359.5</course>
  <speed>0.51</speed>
  <fix>3d</fix>
</trkpt>
<trkpt lat="-27.2721931" lon="151.2900633">
  <ele>493.06</ele>
  <time>2026-09-01T19:59:00Z</time>
  <course>359.59</course>
  <speed>0.44045431091090476</speed>
  <fix>3d</fix>
</trkpt>
<trkpt lat="-27.2721933" lon="151.290063">
  <ele>493.16</ele>
  <time>2026-09-01T19:59:00Z</time>
  <course>359.74</course>
  <speed>0.49</speed>
  <fix>3d</fix>
</trkpt>
<trkpt lat="-27.2721927" lon="151.2900633">
  <ele>493.06</ele>
  <time>2026-09-01T19:59:00Z</time>
  <course>359.59</course>
  <speed>0.4204759208325728</speed>
  <fix>3d</fix>
</trkpt>
<trkpt lat="-27.2721933" lon="151.290063">
  <ele>493.16</ele>
  <time>2026-09-01T19:59:00Z</time>
  <course>359.74</course>
  <speed>0.49</speed>
  <fix>3d</fix>
</trkpt>
<trkpt lat="-27.2721923" lon="151.2900633">
  <ele>493.07</ele>
  <time>2026-09-01T19:59:00Z</time>
  <course>359.59</course>
  <speed>0.4004996878900158</speed>
  <fix>3d</fix>
</trkpt>
<trkpt lat="-27.2721924" lon="151.290063">
  <ele>493.16</ele>
  <time>2026-09-01T19:59:00Z</time>
  <course>0.03</course>
  <speed>0.45</speed>
  <fix>3d</fix>
</trkpt>
<trkpt lat="-27.2721919" lon="151.2900632">
  <ele>493.07</ele>
  <time>2026-09-01T19:59:00Z</time>
  <course>359.59</course>
  <speed>0.38052595180880894</speed>
  <fix>3d</fix>
</trkpt>
<trkpt lat="-27.2721924" lon="151.290063">
  <ele>493.16</ele>
  <time>2026-09-01T19:59:00Z</time>
  <course>0.03</course>
  <speed>0.45</speed>
  <fix>3d</fix>
</trkpt>
<trkpt lat="-27.2721916" lon="151.2900632">
  <ele>493.07</ele>
  <time>2026-09-01T19:59:00Z</time>
  <course>359.59</course>
  <speed>0.3605551275463989</speed>
  <fix>3d</fix>
</trkpt>
<trkpt lat="-27.2721916" lon="151.290063">
  <ele>493.17</ele>
  <time>2026-09-01T19:59:00Z</time>
  <course>0.36</course>
  <speed>0.41</speed>
  <fix>3d</fix>
</trkpt>
<trkpt lat="-27.2721912" lon="151.2900632">
  <ele>493.07</ele>
  <time>2026-09-01T19:59:00Z</time>
  <course>359.59</course>
  <speed>0.34058772731852804</speed>
  <fix>3d</fix>
</trkpt>
<trkpt lat="-27.2721916" lon="151.290063">
  <ele>493.17</ele>
  <time>2026-09-01T19:59:00Z</time>
  <course>0.36</course>
  <speed>0.41</speed>
  <fix>3d</fix>
</trkpt>
<trkpt lat="-27.2721909" lon="151.2900632">
  <ele>493.07</ele>
  <time>2026-09-01T19:59:00Z</time>
  <course>359.59</course>
  <speed>0.31064449134018135</speed>
  <fix>3d</fix>
</trkpt>
<trkpt lat="-27.2721909" lon="151.290063">
  <ele>493.17</ele>
  <time>2026-09-01T19:59:00Z</time>
  <course>0.75</course>
  <speed>0.37</speed>
  <fix>3d</fix>
</trkpt>
<trkpt lat="-27.2721906" lon="151.2900632">
  <ele>493.07</ele>
  <time>2026-09-01T19:59:00Z</time>
  <course>359.59</course>
  <speed>0.280713376952364</speed>
  <fix>3d</fix>
</trkpt>
<trkpt lat="-27.2721909" lon="151.290063">
  <ele>493.17</ele>
  <time>2026-09-01T19:59:00Z</time>
  <course>0.75</course>
  <speed>0.37</speed>
  <fix>3d</fix>
</trkpt>
<trkpt lat="-27.2721903" lon="151.2900632">
  <ele>493.07</ele>
  <time>2026-09-01T19:59:00Z</time>
  <course>359.59</course>
  <speed>0.261725046566048</speed>
  <fix>3d</fix>
</trkpt>
<trkpt lat="-27.2721903" lon="151.290063">
  <ele>493.17</ele>
  <time>2026-09-01T19:59:00Z</time>
  <course>1.25</course>
  <speed>0.31</speed>
  <fix>3d</fix>
</trkpt>
<trkpt lat="-27.2721901" lon="151.2900632">
  <ele>493.07</ele>
  <time>2026-09-01T19:59:00Z</time>
  <course>359.59</course>
  <speed>0.23194827009486402</speed>
  <fix>3d</fix>
</trkpt>
<trkpt lat="-27.2721903" lon="151.290063">
  <ele>493.17</ele>
  <time>2026-09-01T19:59:00Z</time>
  <course>1.25</course>
  <speed>0.31</speed>
  <fix>3d</fix>
</trkpt>
<trkpt lat="-27.2721899" lon="151.2900632">
  <ele>493.07</ele>
  <time>2026-09-01T19:59:00Z</time>
  <course>359.59</course>
  <speed>0.20223748416156684</speed>
  <fix>3d</fix>
</trkpt>
<trkpt lat="-27.2721898" lon="151.290063">
  <ele>493.17</ele>
  <time>2026-09-01T19:59:00Z</time>
  <course>1.99</course>
  <speed>0.26</speed>
  <fix>3d</fix>
</trkpt>
<trkpt lat="-27.2721897" lon="151.2900632">
  <ele>493.07</ele>
  <time>2026-09-01T19:59:00Z</time>
  <course>359.59</course>
  <speed>0.17262676501632068</speed>
  <fix>3d</fix>
</trkpt>
<trkpt lat="-27.2721898" lon="151.290063">
  <ele>493.17</ele>
  <time>2026-09-01T19:59:00Z</time>
  <course>1.99</course>
  <speed>0.26</speed>
  <fix>3d</fix>
</trkpt>
<trkpt lat="-27.2721895" lon="151.2900632">
  <ele>493.08</ele>
  <time>2026-09-01T19:59:00Z</time>
  <course>359.59</course>
  <speed>0.14317821063276354</speed>
  <fix>3d</fix>
</trkpt>
<trkpt lat="-27.2721894" lon="151.290063">
  <ele>493.18</ele>
  <time>2026-09-01T19:59:00Z</time>
  <course>3.18</course>
  <speed>0.2</speed>
  <fix>3d</fix>
</trkpt>
<trkpt lat="-27.2721893" lon="151.2900632">
  <ele>493.08</ele>
  <time>2026-09-01T19:59:00Z</time>
  <course>359.6</course>
  <speed>0.11401754250991379</speed>
  <fix>3d</fix>
</trkpt>
<trkpt lat="-27.2721894" lon="151.290063">
  <ele>493.18</ele>
  <time>2026-09-01T19:59:00Z</time>
  <course>3.18</course>
  <speed>0.2</speed>
  <fix>3d</fix>
</trkpt>
<trkpt lat="-27.2721892" lon="151.2900632">
  <ele>493.08</ele>
  <time>2026-09-01T19:59:00Z</time>
  <course>359.59</course>
  <speed>0.0854400374531753</speed>
  <fix>3d</fix>
</trkpt>
<trkpt lat="-27.272189" lon="151.290063">
  <ele>493.18</ele>
  <time>2026-09-01T19:59:00Z</time>
  <course>5.36</course>
  <speed>0.14</speed>
  <fix>3d</fix>
</trkpt>
<trkpt lat="-27.2721891" lon="151.2900632">
  <ele>493.08</ele>
  <time>2026-09-01T19:59:00Z</time>
  <course>359.58</course>
  <speed>0.0670820393249937</speed>
  <fix>3d</fix>
</trkpt>
<trkpt lat="-27.272189" lon="151.290063">
  <ele>493.18</ele>
  <time>2026-09-01T19:59:00Z</time>
  <course>5.36</course>
  <speed>0.14</speed>
  <fix>3d</fix>
</trkpt>
<trkpt lat="-27.2721891" lon="151.2900632">
  <ele>493.08</ele>
  <time>2026-09-01T19:59:00Z</time>
  <course>359.58</course>
  <speed>0.04242640687119285</speed>
  <fix>3d</fix>
</trkpt>
<trkpt lat="-27.2721888" lon="151.290063">
  <ele>493.18</ele>
  <time>2026-09-01T19:59:00Z</time>
  <course>10.02</course>
  <speed>0.09</speed>
  <fix>3d</fix>
</trkpt>
<trkpt lat="-27.272189" lon="151.2900632">
  <ele>493.08</ele>
  <time>2026-09-01T19:59:00Z</time>
  <course>359.58</course>
  <speed>0.03</speed>
  <fix>3d</fix>
</trkpt>
<trkpt lat="-27.2721888" lon="151.290063">
  <ele>493.18</ele>
  <time>2026-09-01T19:59:00Z</time>
  <course>10.02</course>
  <speed>0.09</speed>
  <fix>3d</fix>
</trkpt>
<trkpt lat="-27.272189" lon="151.2900633">
  <ele>493.08</ele>
  <time>2026-09-01T19:59:00Z</time>
  <course>359.58</course>
  <speed>0.0316227766016838</speed>
  <fix>3d</fix>
</trkpt>
<trkpt lat="-27.2721887" lon="151.290063">
  <ele>493.18</ele>
  <time>2026-09-01T19:59:00Z</time>
  <course>26.09</course>
  <speed>0.04</speed>
  <fix>3d</fix>
</trkpt>
<trkpt lat="-27.272189" lon="151.2900633">
  <ele>493.08</ele>
  <time>2026-09-01T19:59:00Z</time>
  <course>359.58</course>
  <speed>0.05</speed>
  <fix>3d</fix>
</trkpt>
<trkpt lat="-27.2721887" lon="151.290063">
  <ele>493.18</ele>
  <time>2026-09-01T19:59:00Z</time>
  <course>26.09</course>
  <speed>0.04</speed>
  <fix>3d</fix>
</trkpt>
<trkpt lat="-27.272189" lon="151.2900633">
  <ele>493.08</ele>
  <time>2026-09-01T19:59:00Z</time>
  <course>359.59</course>
  <speed>0.0670820393249937</speed>
  <fix>3d</fix>
</trkpt>
<trkpt lat="-27.2721887" lon="151.290063">
  <ele>493.18</ele>
  <time>2026-09-01T19:59:00Z</time>
  <course>126.88</course>
  <speed>0.02</speed>
  <fix>3d</fix>
</trkpt>
<trkpt lat="-27.2721891" lon="151.2900633">
  <ele>493.08</ele>
  <time>2026-09-01T19:59:00Z</time>
  <course>359.59</course>
  <speed>0.0854400374531753</speed>
  <fix>3d</fix>
</trkpt>
<trkpt lat="-27.2721887" lon="151.290063">
  <ele>493.18</ele>
  <time>2026-09-01T19:59:00Z</time>
  <course>126.88</course>
  <speed>0.02</speed>
  <fix>3d</fix>
</trkpt>
<trkpt lat="-27.2721891" lon="151.2900633">
  <ele>493.08</ele>
  <time>2026-09-01T19:59:00Z</time>
  <course>359.59</course>
  <speed>0.11401754250991379</speed>
  <fix>3d</fix>
</trkpt>
<trkpt lat="-27.2721887" lon="151.2900631">
  <ele>493.18</ele>
  <time>2026-09-01T19:59:00Z</time>
  <course>161.37</course>
  <speed>0.06</speed>
  <fix>3d</fix>
</trkpt>
<trkpt lat="-27.2721891" lon="151.2900633">
  <ele>493.08</ele>
  <time>2026-09-01T19:59:00Z</time>
  <course>359.59</course>
  <speed>0.13341664064126335</speed>
  <fix>3d</fix>
</trkpt>
<trkpt lat="-27.2721887" lon="151.2900631">
  <ele>493.18</ele>
  <time>2026-09-01T19:59:00Z</time>
  <course>161.37</course>
  <speed>0.06</speed>
  <fix>3d</fix>
</trkpt>
<trkpt lat="-27.2721892" lon="151.2900633">
  <ele>493.07</ele>
  <time>2026-09-01T19:59:00Z</time>
  <course>359.59</course>
  <speed>0.15297058540778355</speed>
  <fix>3d</fix>
</trkpt>
<trkpt lat="-27.2721888" lon="151.2900631">
  <ele>493.18</ele>
  <time>2026-09-01T19:59:00Z</time>
  <course>168.05</course>
  <speed>0.1</speed>
  <fix>3d</fix>
</trkpt>
<trkpt lat="-27.2721893" lon="151.2900633">
  <ele>493.07</ele>
  <time>2026-09-01T19:59:00Z</time>
  <course>359.6</course>
  <speed>0.16278820596099705</speed>
  <fix>3d</fix>
</trkpt>
<trkpt lat="-27.2721888" lon="151.2900631">
  <ele>493.18</ele>
  <time>2026-09-01T19:59:00Z</time>
  <course>168.05</course>
  <speed>0.1</speed>
  <fix>3d</fix>
</trkpt>
<trkpt lat="-27.2721894" lon="151.2900633">
  <ele>493.07</ele>
  <time>2026-09-01T19:59:00Z</time>
  <course>359.6</course>
  <speed>0.1824828759089466</speed>
  <fix>3d</fix>
</trkpt>
<trkpt lat="-27.272189" lon="151.2900632">
  <ele>493.18</ele>
  <time>2026-09-01T19:59:00Z</time>
  <course>170.86</course>
  <speed>0.14</speed>
  <fix>3d</fix>
</trkpt>
<trkpt lat="-27.2721896" lon="151.2900634">
  <ele>493.07</ele>
  <time>2026-09-01T19:59:00Z</time>
  <course>359.62</course>
  <speed>0.19235384061671343</speed>
  <fix>3d</fix>
</trkpt>
<trkpt lat="-27.272189" lon="151.2900632">
  <ele>493.18</ele>
  <time>2026-09-01T19:59:00Z</time>
  <course>170.86</course>
  <speed>0.14</speed>
  <fix>3d</fix>
</trkpt>
<trkpt lat="-27.2721897" lon="151.2900634">
  <ele>493.07</ele>
  <time>2026-09-01T19:59:00Z</time>
  <course>359.64</course>
  <speed>0.20223748416156684</speed>
  <fix>3d</fix>
</trkpt>
<trkpt lat="-27.2721893" lon="151.2900632">
  <ele>493.18</ele>
  <time>2026-09-01T19:59:00Z</time>
  <course>172.53</course>
  <speed>0.17</speed>
  <fix>3d</fix>
</trkpt>
<trkpt lat="-27.2721899" lon="151.2900634">
  <ele>493.07</ele>
  <time>2026-09-01T19:59:00Z</time>
  <course>359.66</course>
  <speed>0.21213203435596426</speed>
  <fix>3d</fix>
</trkpt>
<trkpt lat="-27.2721893" lon="151.2900632">
  <ele>493.18</ele>
  <time>2026-09-01T19:59:00Z</time>
  <course>172.53</course>
  <speed>0.17</speed>
  <fix>3d</fix>
</trkpt>
<trkpt lat="-27.27219" lon="151.2900634">
  <ele>493.07</ele>
  <time>2026-09-01T19:59:00Z</time>
  <course>359.67</course>
  <speed>0.2220360331117452</speed>
  <fix>3d</fix>
</trkpt>
<trkpt lat="-27.2721896" lon="151.2900632">
  <ele>493.18</ele>
  <time>2026-09-01T19:59:00Z</time>
  <course>173.62</course>
  <speed>0.19</speed>
  <fix>3d</fix>
</trkpt>
<trkpt lat="-27.2721902" lon="151.2900634">
  <ele>493.06</ele>
  <time>2026-09-01T19:59:01Z</time>
  <course>359.68</course>
  <speed>0.2220360331117452</speed>
  <fix>3d</fix>
</trkpt>
<trkpt lat="-27.2721896" lon="151.2900632">
  <ele>493.18</ele>
  <time>2026-09-01T19:59:01Z</time>
  <course>173.62</course>
  <speed>0.19</speed>
  <fix>3d</fix>
</trkpt>
<trkpt lat="-27.2721904" lon="151.2900634">
  <ele>493.07</ele>
  <time>2026-09-01T19:59:01Z</time>
  <course>359.67</course>
  <speed>0.23194827009486402</speed>
  <fix>3d</fix>
</trkpt>
<trkpt lat="-27.27219" lon="151.2900632">
  <ele>493.18</ele>
  <time>2026-09-01T19:59:01Z</time>
  <course>174.36</course>
  <speed>0.2</speed>
  <fix>3d</fix>
</trkpt>
<trkpt lat="-27.2721906" lon="151.2900634">
  <ele>493.07</ele>
  <time>2026-09-01T19:59:01Z</time>
  <course>359.66</course>
  <speed>0.2308679276123039</speed>
  <fix>3d</fix>
</trkpt>
<trkpt lat="-27.27219" lon="151.2900632">
  <ele>493.18</ele>
  <time>2026-09-01T19:59:01Z</time>
  <course>174.36</course>
  <speed>0.2</speed>
  <fix>3d</fix>
</trkpt>
<trkpt lat="-27.2721908" lon="151.2900634">
  <ele>493.07</ele>
  <time>2026-09-01T19:59:01Z</time>
  <course>359.65</course>
  <speed>0.2308679276123039</speed>
  <fix>3d</fix>
</trkpt>
<trkpt lat="-27.2721904" lon="151.2900633">
  <ele>493.18</ele>
  <time>2026-09-01T19:59:01Z</time>
  <course>174.87</course>
  <speed>0.21</speed>
  <fix>3d</fix>
</trkpt>
<trkpt lat="-27.2721909" lon="151.2900634">
  <ele>493.07</ele>
  <time>2026-09-01T19:59:01Z</time>
  <course>359.64</course>
  <speed>0.2308679276123039</speed>
  <fix>3d</fix>
</trkpt>
<trkpt lat="-27.2721904" lon="151.2900633">
  <ele>493.18</ele>
  <time>2026-09-01T19:59:01Z</time>
  <course>174.87</course>
  <speed>0.21</speed>
  <fix>3d</fix>
</trkpt>
<trkpt lat="-27.2721911" lon="151.2900635">
  <ele>493.07</ele>
  <time>2026-09-01T19:59:01Z</time>
  <course>359.62</course>
  <speed>0.24083189157584592</speed>
  <fix>3d</fix>
</trkpt>
<trkpt lat="-27.2721908" lon="151.2900633">
  <ele>493.18</ele>
  <time>2026-09-01T19:59:01Z</time>
  <course>175.26</course>
  <speed>0.22</speed>
  <fix>3d</fix>
</trkpt>
<trkpt lat="-27.2721913" lon="151.2900635">
  <ele>493.07</ele>
  <time>2026-09-01T19:59:01Z</time>
  <course>359.62</course>
  <speed>0.2308679276123039</speed>
  <fix>3d</fix>
</trkpt>
<trkpt lat="-27.2721908" lon="151.2900633">
  <ele>493.18</ele>
  <time>2026-09-01T19:59:01Z</time>
  <course>175.26</course>
  <speed>0.22</speed>
  <fix>3d</fix>
</trkpt>
<trkpt lat="-27.2721915" lon="151.2900635">
  <ele>493.07</ele>
  <time>2026-09-01T19:59:01Z</time>
  <course>359.63</course>
  <speed>0.2308679276123039</speed>
  <fix>3d</fix>
</trkpt>
<trkpt lat="-27.2721912" lon="151.2900634">
  <ele>493.18</ele>
  <time>2026-09-01T19:59:01Z</time>
  <course>175.53</course>
  <speed>0.22</speed>
  <fix>3d</fix>
</trkpt>
<trkpt lat="-27.2721917" lon="151.2900635">
  <ele>493.07</ele>
  <time>2026-09-01T19:59:01Z</time>
  <course>359.64</course>
  <speed>0.2308679276123039</speed>
  <fix>3d</fix>
</trkpt>
<trkpt lat="-27.2721912" lon="151.2900634">
  <ele>493.18</ele>
  <time>2026-09-01T19:59:01Z</time>
  <course>175.53</course>
  <speed>0.22</speed>
  <fix>3d</fix>
</trkpt>
<trkpt lat="-27.2721919" lon="151.2900635">
  <ele>493.07</ele>
  <time>2026-09-01T19:59:01Z</time>
  <course>359.66</course>
  <speed>0.2308679276123039</speed>
  <fix>3d</fix>
</trkpt>
<trkpt lat="-27.2721916" lon="151.2900635">
  <ele>493.19</ele>
  <time>2026-09-01T19:59:01Z</time>
  <course>175.7</course>
  <speed>0.21</speed>
  <fix>3d</fix>
</trkpt>
<trkpt lat="-27.2721921" lon="151.2900635">
  <ele>493.07</ele>
  <time>2026-09-01T19:59:01Z</time>
  <course>359.67</course>
  <speed>0.22090722034374521</speed>
  <fix>3d</fix>
</trkpt>
<trkpt lat="-27.2721916" lon="151.2900635">
  <ele>493.19</ele>
  <time>2026-09-01T19:59:01Z</time>
  <course>175.7</course>
  <speed>0.21</speed>
  <fix>3d</fix>
</trkpt>
<trkpt lat="-27.2721923" lon="151.2900635">
  <ele>493.07</ele>
  <time>2026-09-01T19:59:01Z</time>
  <course>359.68</course>
  <speed>0.22090722034374521</speed>
  <fix>3d</fix>
</trkpt>
<trkpt lat="-27.2721919" lon="151.2900635">
  <ele>493.19</ele>
  <time>2026-09-01T19:59:01Z</time>
  <course>175.94</course>
  <speed>0.21</speed>
  <fix>3d</fix>
</trkpt>
<trkpt lat="-27.2721924" lon="151.2900635">
  <ele>493.07</ele>
  <time>2026-09-01T19:59:01Z</time>
  <course>359.68</course>
  <speed>0.2109502310972899</speed>
  <fix>3d</fix>
</trkpt>
<trkpt lat="-27.2721919" lon="151.2900635">
  <ele>493.19</ele>
  <time>2026-09-01T19:59:01Z</time>
  <course>175.94</course>
  <speed>0.21</speed>
  <fix>3d</fix>
</trkpt>
<trkpt lat="-27.2721926" lon="151.2900636">
  <ele>493.07</ele>
  <time>2026-09-01T19:59:01Z</time>
  <course>359.67</course>
  <speed>0.2009975124224178</speed>
  <fix>3d</fix>
</trkpt>
<trkpt lat="-27.2721923" lon="151.2900635">
  <ele>493.19</ele>
  <time>2026-09-01T19:59:01Z</time>
  <course>176.29</course>
  <speed>0.19</speed>
  <fix>3d</fix>
</trkpt>
<trkpt lat="-27.2721928" lon="151.2900636">
  <ele>493.07</ele>
  <time>2026-09-01T19:59:01Z</time>
  <course>359.66</course>
  <speed>0.2009975124224178</speed>
  <fix>3d</fix>
</trkpt>
<trkpt lat="-27.2721923" lon="151.2900635">
  <ele>493.19</ele>
  <time>2026-09-01T19:59:01Z</time>
  <course>176.29</course>
  <speed>0.19</speed>
  <fix>3d</fix>
</trkpt>
<trkpt lat="-27.2721929" lon="151.2900636">
  <ele>493.07</ele>
  <time>2026-09-01T19:59:01Z</time>
  <course>359.64</course>
  <speed>0.191049731745428</speed>
  <fix>3d</fix>
</trkpt>
<trkpt lat="-27.2721927" lon="151.2900635">
  <ele>493.19</ele>
  <time>2026-09-01T19:59:01Z</time>
  <course>176.69</course>
  <speed>0.18</speed>
  <fix>3d</fix>
</trkpt>
<trkpt lat="-27.2721931" lon="151.2900636">
  <ele>493.08</ele>
  <time>2026-09-01T19:59:01Z</time>
  <course>359.62</course>
  <speed>0.18110770276274835</speed>
  <fix>3d</fix>
</trkpt>
<trkpt lat="-27.2721927" lon="151.2900635">
  <ele>493.19</ele>
  <time>2026-09-01T19:59:01Z</time>
  <course>176.69</course>
  <speed>0.18</speed>
  <fix>3d</fix>
</trkpt>
<trkpt lat="-27.2721932" lon="151.2900636">
  <ele>493.08</ele>
  <time>2026-09-01T19:59:01Z</time>
  <course>359.59</course>
  <speed>0.17029386365926402</speed>
  <fix>3d</fix>
</trkpt>
<trkpt lat="-27.272193" lon="151.2900636">
  <ele>493.19</ele>
  <time>2026-09-01T19:59:01Z</time>
  <course>177.06</course>
  <speed>0.17</speed>
  <fix>3d</fix>
</trkpt>
<trkpt lat="-27.2721934" lon="151.2900636">
  <ele>493.08</ele>
  <time>2026-09-01T19:59:01Z</time>
  <course>359.57</course>
  <speed>0.16031219541881397</speed>
  <fix>3d</fix>
</trkpt>
<trkpt lat="-27.272193" lon="151.2900636">
  <ele>493.19</ele>
  <time>2026-09-01T19:59:01Z</time>
  <course>177.06</course>
  <speed>0.17</speed>
  <fix>3d</fix>
</trkpt>
<trkpt lat="-27.2721935" lon="151.2900636">
  <ele>493.08</ele>
  <time>2026-09-01T19:59:01Z</time>
  <course>359.56</course>
  <speed>0.16124515496597097</speed>
  <fix>3d</fix>
</trkpt>
<trkpt lat="-27.2721933" lon="151.2900636">
  <ele>493.19</ele>
  <time>2026-09-01T19:59:01Z</time>
  <course>177.15</course>
  <speed>0.15</speed>
  <fix>3d</fix>
</trkpt>
<trkpt lat="-27.2721936" lon="151.2900636">
  <ele>493.08</ele>
  <time>2026-09-01T19:59:01Z</time>
  <course>359.56</course>
  <speed>0.15132745950421556</speed>
  <fix>3d</fix>
</trkpt>
<trkpt lat="-27.2721933" lon="151.2900636">
  <ele>493.19</ele>
  <time>2026-09-01T19:59:01Z</time>
  <course>177.15</course>
  <speed>0.15</speed>
  <fix>3d</fix>
</trkpt>
<trkpt lat="-27.2721937" lon="151.2900636">
  <ele>493.08</ele>
  <time>2026-09-01T19:59:01Z</time>
  <course>359.57</course>
  <speed>0.1414213562373095</speed>
  <fix>3d</fix>
</trkpt>
<trkpt lat="-27.2721935" lon="151.2900636">
  <ele>493.19</ele>
  <time>2026-09-01T19:59:01Z</time>
  <course>176.91</course>
  <speed>0.13</speed>
  <fix>3d</fix>
</trkpt>
<trkpt lat="-27.2721939" lon="151.2900636">
  <ele>493.08</ele>
  <time>2026-09-01T19:59:01Z</time>
  <course>359.58</course>
  <speed>0.13152946437965907</speed>
  <fix>3d</fix>
</trkpt>
<trkpt lat="-27.2721935" lon="151.2900636">
  <ele>493.19</ele>
  <time>2026-09-01T19:59:01Z</time>
  <course>176.91</course>
  <speed>0.13</speed>
  <fix>3d</fix>
</trkpt>
<trkpt lat="-27.272194" lon="151.2900637">
  <ele>493.08</ele>
  <time>2026-09-01T19:59:01Z</time>
  <course>359.59</course>
  <speed>0.12165525060596438</speed>
  <fix>3d</fix>
</trkpt>
<trkpt lat="-27.2721937" lon="151.2900636">
  <ele>493.19</ele>
  <time>2026-09-01T19:59:01Z</time>
  <course>176.58</course>
  <speed>0.11</speed>
  <fix>3d</fix>
</trkpt>
<trkpt lat="-27.272194" lon="151.2900637">
  <ele>493.08</ele>
  <time>2026-09-01T19:59:01Z</time>
  <course>359.59</course>
  <speed>0.1118033988749895</speed>
  <fix>3d</fix>
</trkpt>
<trkpt lat="-27.2721937" lon="151.2900636">
  <ele>493.19</ele>
  <time>2026-09-01T19:59:01Z</time>
  <course>176.58</course>
  <speed>0.11</speed>
  <fix>3d</fix>
</trkpt>
<trkpt lat="-27.2721941" lon="151.2900637">
  <ele>493.08</ele>
  <time>2026-09-01T19:59:01Z</time>
  <course>359.6</course>
  <speed>0.1004987562112089</speed>
  <fix>3d</fix>
</trkpt>
<trkpt lat="-27.272194" lon="151.2900636">
  <ele>493.19</ele>
  <time>2026-09-01T19:59:01Z</time>
  <course>176.43</course>
  <speed>0.09</speed>
  <fix>3d</fix>
</trkpt>
<trkpt lat="-27.2721942" lon="151.2900637">
  <ele>493.08</ele>
  <time>2026-09-01T19:59:01Z</time>
  <course>359.61</course>
  <speed>0.09055385138137417</speed>
  <fix>3d</fix>
</trkpt>
<trkpt lat="-27.272194" lon="151.2900636">
  <ele>493.19</ele>
  <time>2026-09-01T19:59:01Z</time>
  <course>176.43</course>
  <speed>0.09</speed>
  <fix>3d</fix>
</trkpt>
<trkpt lat="-27.2721943" lon="151.2900637">
  <ele>493.08</ele>
  <time>2026-09-01T19:59:01Z</time>
  <course>359.61</course>
  <speed>0.08062257748298549</speed>
  <fix>3d</fix>
</trkpt>
<trkpt lat="-27.2721941" lon="151.2900636">
  <ele>493.19</ele>
  <time>2026-09-01T19:59:01Z</time>
  <course>176.49</course>
  <speed>0.07</speed>
  <fix>3d</fix>
</trkpt>
<trkpt lat="-27.2721943" lon="151.2900637">
  <ele>493.08</ele>
  <time>2026-09-01T19:59:01Z</time>
  <course>359.61</course>
  <speed>0.07071067811865475</speed>
  <fix>3d</fix>
</trkpt>
<trkpt lat="-27.2721941" lon="151.2900636">
  <ele>493.19</ele>
  <time>2026-09-01T19:59:01Z</time>
  <course>176.49</course>
  <speed>0.07</speed>
  <fix>3d</fix>
</trkpt>
<trkpt lat="-27.2721944" lon="151.2900637">
  <ele>493.08</ele>
  <time>2026-09-01T19:59:01Z</time>
  <course>359.61</course>
  <speed>0.06082762530298219</speed>
  <fix>3d</fix>
</trkpt>
<trkpt lat="-27.2721942" lon="151.2900637">
  <ele>493.18</ele>
  <time>2026-09-01T19:59:01Z</time>
  <course>176.25</course>
  <speed>0.05</speed>
  <fix>3d</fix>
</trkpt>
<trkpt lat="-27.2721944" lon="151.2900637">
  <ele>493.08</ele>
  <time>2026-09-01T19:59:01Z</time>
  <course>359.6</course>
  <speed>0.05099019513592785</speed>
  <fix>3d</fix>
</trkpt>
<trkpt lat="-27.2721942" lon="151.2900637">
  <ele>493.18</ele>
  <time>2026-09-01T19:59:01Z</time>
  <course>176.25</course>
  <speed>0.05</speed>
  <fix>3d</fix>
</trkpt>
<trkpt lat="-27.2721944" lon="151.2900637">
  <ele>493.08</ele>
  <time>2026-09-01T19:59:01Z</time>
  <course>359.59</course>
  <speed>0.0412310562561766</speed>
  <fix>3d</fix>
</trkpt>
<trkpt lat="-27.2721943" lon="151.2900637">
  <ele>493.18</ele>
  <time>2026-09-01T19:59:01Z</time>
  <course>174.56</course>
  <speed>0.03</speed>
  <fix>3d</fix>
</trkpt>
<trkpt lat="-27.2721944" lon="151.2900637">
  <ele>493.08</ele>
  <time>2026-09-01T19:59:01Z</time>
  <course>359.57</course>
  <speed>0.03605551275463989</speed>
  <fix>3d</fix>
</trkpt>
<trkpt lat="-27.2721943" lon="151.2900637">
  <ele>493.18</ele>
  <time>2026-09-01T19:59:01Z</time>
  <course>174.56</course>
  <speed>0.03</speed>
  <fix>3d</fix>
</trkpt>
<trkpt lat="-27.2721945" lon="151.2900637">
  <ele>493.08</ele>
  <time>2026-09-01T19:59:01Z</time>
  <course>359.56</course>
  <speed>0.0282842712474619</speed>
  <fix>3d</fix>
</trkpt>
<trkpt lat="-27.2721944" lon="151.2900637">
  <ele>493.18</ele>
  <time>2026-09-01T19:59:01Z</time>
  <course>167.36</course>
  <speed>0.01</speed>
  <fix>3d</fix>
</trkpt>
<trkpt lat="-27.2721945" lon="151.2900637">
  <ele>493.09</ele>
  <time>2026-09-01T19:59:01Z</time>
  <course>359.54</course>
  <speed>0.022360679774997897</speed>
  <fix>3d</fix>
</trkpt>
<trkpt lat="-27.2721944" lon="151.2900637">
  <ele>493.18</ele>
  <time>2026-09-01T19:59:01Z</time>
  <course>167.36</course>
  <speed>0.01</speed>
  <fix>3d</fix>
</trkpt>
<trkpt lat="-27.2721945" lon="151.2900638">
  <ele>493.09</ele>
  <time>2026-09-01T19:59:01Z</time>
  <course>359.53</course>
  <speed>0.02</speed>
  <fix>3d</fix>
</trkpt>
<trkpt lat="-27.2721944" lon="151.2900637">
  <ele>493.18</ele>
  <time>2026-09-01T19:59:01Z</time>
  <course>66.93</course>
  <speed>0.0</speed>
  <fix>3d</fix>
</trkpt>
<trkpt lat="-27.2721944" lon="151.2900638">
  <ele>493.09</ele>
  <time>2026-09-01T19:59:01Z</time>
  <course>359.52</course>
  <speed>0.02</speed>
  <fix>3d</fix>
</trkpt>
<trkpt lat="-27.2721944" lon="151.2900637">
  <ele>493.18</ele>
  <time>2026-09-01T19:59:01Z</time>
  <course>66.93</course>
  <speed>0.0</speed>
  <fix>3d</fix>
</trkpt>
<trkpt lat="-27.2721944" lon="151.2900638">
  <ele>493.09</ele>
  <time>2026-09-01T19:59:01Z</time>
  <course>359.53</course>
  <speed>0.022360679774997897</speed>
  <fix>3d</fix>
</trkpt>
<trkpt lat="-27.2721944" lon="151.2900637">
  <ele>493.18</ele>
  <time>2026-09-01T19:59:01Z</time>
  <course>11.33</course>
  <speed>0.02</speed>
  <fix>3d</fix>
</trkpt>
<trkpt lat="-27.2721944" lon="151.2900638">
  <ele>493.08</ele>
  <time>2026-09-01T19:59:01Z</time>
  <course>359.54</course>
  <speed>0.022360679774997897</speed>
  <fix>3d</fix>
</trkpt>
<trkpt lat="-27.2721944" lon="151.2900637">
  <ele>493.18</ele>
  <time>2026-09-01T19:59:01Z</time>
  <course>11.33</course>
  <speed>0.02</speed>
  <fix>3d</fix>
</trkpt>
<trkpt lat="-27.2721944" lon="151.2900638">
  <ele>493.08</ele>
  <time>2026-09-01T19:59:01Z</time>
  <course>359.55</course>
  <speed>0.022360679774997897</speed>
  <fix>3d</fix>
</trkpt>
<trkpt lat="-27.2721943" lon="151.2900637">
  <ele>493.17</ele>
  <time>2026-09-01T19:59:01Z</time>
  <course>3.8</course>
  <speed>0.03</speed>
  <fix>3d</fix>
</trkpt>
<trkpt lat="-27.2721944" lon="151.2900638">
  <ele>493.08</ele>
  <time>2026-09-01T19:59:01Z</time>
  <course>359.56</course>
  <speed>0.0316227766016838</speed>
  <fix>3d</fix>
</trkpt>
<trkpt lat="-27.2721943" lon="151.2900637">
  <ele>493.17</ele>
  <time>2026-09-01T19:59:01Z</time>
  <course>3.8</course>
  <speed>0.03</speed>
  <fix>3d</fix>
</trkpt>
<trkpt lat="-27.2721944" lon="151.2900638">
  <ele>493.08</ele>
  <time>2026-09-01T19:59:01Z</time>
  <course>359.57</course>
  <speed>0.0412310562561766</speed>
  <fix>3d</fix>
</trkpt>
<trkpt lat="-27.2721943" lon="151.2900637">
  <ele>493.17</ele>
  <time>2026-09-01T19:59:01Z</time>
  <course>359.77</course>
  <speed>0.05</speed>
  <fix>3d</fix>
</trkpt>
<trkpt lat="-27.2721943" lon="151.2900638">
  <ele>493.07</ele>
  <time>2026-09-01T19:59:01Z</time>
  <course>359.57</course>
  <speed>0.0412310562561766</speed>
  <fix>3d</fix>
</trkpt>
<trkpt lat="-27.2721943" lon="151.2900637">
  <ele>493.17</ele>
  <time>2026-09-01T19:59:01Z</time>
  <course>359.77</course>
  <speed>0.05</speed>
  <fix>3d</fix>
</trkpt>
<trkpt lat="-27.2721943" lon="151.2900638">
  <ele>493.07</ele>
  <time>2026-09-01T19:59:01Z</time>
  <course>359.56</course>
  <speed>0.05099019513592785</speed>
  <fix>3d</fix>
</trkpt>
<trkpt lat="-27.2721942" lon="151.2900637">
  <ele>493.17</ele>
  <time>2026-09-01T19:59:01Z</time>
  <course>357.19</course>
  <speed>0.06</speed>
  <fix>3d</fix>
</trkpt>
<trkpt lat="-27.2721942" lon="151.2900638">
  <ele>493.07</ele>
  <time>2026-09-01T19:59:01Z</time>
  <course>359.56</course>
  <speed>0.05099019513592785</speed>
  <fix>3d</fix>
</trkpt>
<trkpt lat="-27.2721942" lon="151.2900637">
  <ele>493.17</ele>
  <time>2026-09-01T19:59:01Z</time>
  <course>357.19</course>
  <speed>0.06</speed>
  <fix>3d</fix>
</trkpt>
<trkpt lat="-27.2721941" lon="151.2900638">
  <ele>493.07</ele>
  <time>2026-09-01T19:59:01Z</time>
  <course>359.55</course>
  <speed>0.06082762530298219</speed>
  <fix>3d</fix>
</trkpt>
<trkpt lat="-27.2721941" lon="151.2900637">
  <ele>493.16</ele>
  <time>2026-09-01T19:59:01Z</time>
  <course>355.76</course>
  <speed>0.07</speed>
  <fix>3d</fix>
</trkpt>
<trkpt lat="-27.2721941" lon="151.2900638">
  <ele>493.07</ele>
  <time>2026-09-01T19:59:01Z</time>
  <course>359.54</course>
  <speed>0.06082762530298219</speed>
  <fix>3d</fix>
</trkpt>
<trkpt lat="-27.2721941" lon="151.2900637">
  <ele>493.16</ele>
  <time>2026-09-01T19:59:01Z</time>
  <course>355.76</course>
  <speed>0.07</speed>
  <fix>3d</fix>
</trkpt>
<trkpt lat="-27.272194" lon="151.2900638">
  <ele>493.07</ele>
  <time>2026-09-01T19:59:01Z</time>
  <course>359.54</course>
  <speed>0.07071067811865475</speed>
  <fix>3d</fix>
</trkpt>
<trkpt lat="-27.2721939" lon="151.2900637">
  <ele>493.16</ele>
  <time>2026-09-01T19:59:01Z</time>
  <course>355.12</course>
  <speed>0.08</speed>
  <fix>3d</fix>
</trkpt>
<trkpt lat="-27.2721939" lon="151.2900638">
  <ele>493.07</ele>
  <time>2026-09-01T19:59:01Z</time>
  <course>359.54</course>
  <speed>0.07</speed>
  <fix>3d</fix>
</trkpt>
<trkpt lat="-27.2721939" lon="151.2900637">
  <ele>493.16</ele>
  <time>2026-09-01T19:59:01Z</time>
  <course>355.12</course>
  <speed>0.08</speed>
  <fix>3d</fix>
</trkpt>
<trkpt lat="-27.2721938" lon="151.2900638">
  <ele>493.07</ele>
  <time>2026-09-01T19:59:01Z</time>
  <course>359.55</course>
  <speed>0.07</speed>
  <fix>3d</fix>
</trkpt>
<trkpt lat="-27.2721937" lon="151.2900637">
  <ele>493.16</ele>
  <time>2026-09-01T19:59:01Z</time>
  <course>354.77</course>
  <speed>0.09</speed>
  <fix>3d</fix>
</trkpt>
<trkpt lat="-27.2721937" lon="151.2900638">
  <ele>493.07</ele>
  <time>2026-09-01T19:59:01Z</time>
  <course>359.55</course>
  <speed>0.08</speed>
  <fix>3d</fix>
</trkpt>
<trkpt lat="-27.2721937" lon="151.2900637">
  <ele>493.16</ele>
  <time>2026-09-01T19:59:01Z</time>
  <course>354.77</course>
  <speed>0.09</speed>
  <fix>3d</fix>
</trkpt>
<trkpt lat="-27.2721937" lon="151.2900638">
  <ele>493.07</ele>
  <time>2026-09-01T19:59:01Z</time>
  <course>359.56</course>
  <speed>0.08</speed>
  <fix>3d</fix>
</trkpt>
<trkpt lat="-27.2721936" lon="151.2900637">
  <ele>493.16</ele>
  <time>2026-09-01T19:59:01Z</time>
  <course>354.51</course>
  <speed>0.1</speed>
  <fix>3d</fix>
</trkpt>
<trkpt lat="-27.2721936" lon="151.2900638">
  <ele>493.07</ele>
  <time>2026-09-01T19:59:01Z</time>
  <course>359.55</course>
  <speed>0.08</speed>
  <fix>3d</fix>
</trkpt>
<trkpt lat="-27.2721936" lon="151.2900637">
  <ele>493.16</ele>
  <time>2026-09-01T19:59:01Z</time>
  <course>354.51</course>
  <speed>0.1</speed>
  <fix>3d</fix>
</trkpt>
<trkpt lat="-27.2721935" lon="151.2900638">
  <ele>493.07</ele>
  <time>2026-09-01T19:59:01Z</time>
  <course>359.55</course>
  <speed>0.08</speed>
  <fix>3d</fix>
</trkpt>
<trkpt lat="-27.2721934" lon="151.2900637">
  <ele>493.16</ele>
  <time>2026-09-01T19:59:01Z</time>
  <course>354.35</course>
  <speed>0.1</speed>
  <fix>3d</fix>
</trkpt>
<trkpt lat="-27.2721934" lon="151.2900638">
  <ele>493.07</ele>
  <time>2026-09-01T19:59:01Z</time>
  <course>359.54</course>
  <speed>0.08</speed>
  <fix>3d</fix>
</trkpt>
<trkpt lat="-27.2721934" lon="151.2900637">
  <ele>493.16</ele>
  <time>2026-09-01T19:59:01Z</time>
  <course>354.35</course>
  <speed>0.1</speed>
  <fix>3d</fix>
</trkpt>
<trkpt lat="-27.2721933" lon="151.2900638">
  <ele>493.07</ele>
  <time>2026-09-01T19:59:01Z</time>
  <course>359.53</course>
  <speed>0.08</speed>
  <fix>3d</fix>
</trkpt>
<trkpt lat="-27.2721932" lon="151.2900637">
  <ele>493.16</ele>
  <time>2026-09-01T19:59:01Z</time>
  <course>354.19</course>
  <speed>0.1</speed>
  <fix>3d</fix>
</trkpt>
<trkpt lat="-27.2721932" lon="151.2900638">
  <ele>493.07</ele>
  <time>2026-09-01T19:59:01Z</time>
  <course>359.53</course>
  <speed>0.08</speed>
  <fix>3d</fix>
</trkpt>
<trkpt lat="-27.2721932" lon="151.2900637">
  <ele>493.16</ele>
  <time>2026-09-01T19:59:01Z</time>
  <course>354.19</course>
  <speed>0.1</speed>
  <fix>3d</fix>
</trkpt>
<trkpt lat="-27.2721931" lon="151.2900638">
  <ele>493.08</ele>
  <time>2026-09-01T19:59:01Z</time>
  <course>359.53</course>
  <speed>0.07</speed>
  <fix>3d</fix>
</trkpt>
<trkpt lat="-27.2721931" lon="151.2900637">
  <ele>493.16</ele>
  <time>2026-09-01T19:59:01Z</time>
  <course>353.88</course>
  <speed>0.1</speed>
  <fix>3d</fix>
</trkpt>
<trkpt lat="-27.272193" lon="151.2900638">
  <ele>493.08</ele>
  <time>2026-09-01T19:59:01Z</time>
  <course>359.53</course>
  <speed>0.07</speed>
  <fix>3d</fix>
</trkpt>
<trkpt lat="-27.2721931" lon="151.2900637">
  <ele>493.16</ele>
  <time>2026-09-01T19:59:01Z</time>
  <course>353.88</course>
  <speed>0.1</speed>
  <fix>3d</fix>
</trkpt>
<trkpt lat="-27.272193" lon="151.2900638">
  <ele>493.08</ele>
  <time>2026-09-01T19:59:01Z</time>
  <course>359.53</course>
  <speed>0.07</speed>
  <fix>3d</fix>
</trkpt>
<trkpt lat="-27.2721929" lon="151.2900636">
  <ele>493.16</ele>
  <time>2026-09-01T19:59:01Z</time>
  <course>353.48</course>
  <speed>0.1</speed>
  <fix>3d</fix>
</trkpt>
<trkpt lat="-27.2721929" lon="151.2900638">
  <ele>493.08</ele>
  <time>2026-09-01T19:59:01Z</time>
  <course>359.53</course>
  <speed>0.07</speed>
  <fix>3d</fix>
</trkpt>
<trkpt lat="-27.2721929" lon="151.2900636">
  <ele>493.16</ele>
  <time>2026-09-01T19:59:01Z</time>
  <course>353.48</course>
  <speed>0.1</speed>
  <fix>3d</fix>
</trkpt>
<trkpt lat="-27.2721928" lon="151.2900638">
  <ele>493.08</ele>
  <time>2026-09-01T19:59:01Z</time>
  <course>359.54</course>
  <speed>0.06</speed>
  <fix>3d</fix>
</trkpt>
<trkpt lat="-27.2721927" lon="151.2900636">
  <ele>493.16</ele>
  <time>2026-09-01T19:59:01Z</time>
  <course>353.02</course>
  <speed>0.09</speed>
  <fix>3d</fix>
</trkpt>
<trkpt lat="-27.2721927" lon="151.2900638">
  <ele>493.08</ele>
  <time>2026-09-01T19:59:01Z</time>
  <course>359.55</course>
  <speed>0.06</speed>
  <fix>3d</fix>
</trkpt>
<trkpt lat="-27.2721927" lon="151.2900636">
  <ele>493.16</ele>
  <time>2026-09-01T19:59:01Z</time>
  <course>353.02</course>
  <speed>0.09</speed>
  <fix>3d</fix>
</trkpt>
<trkpt lat="-27.2721927" lon="151.2900638">
  <ele>493.07</ele>
  <time>2026-09-01T19:59:01Z</time>
  <course>359.55</course>
  <speed>0.06</speed>
  <fix>3d</fix>
</trkpt>
<trkpt lat="-27.2721925" lon="151.2900636">
  <ele>493.15</ele>
  <time>2026-09-01T19:59:01Z</time>
  <course>352.37</course>
  <speed>0.09</speed>
  <fix>3d</fix>
</trkpt>
<trkpt lat="-27.2721926" lon="151.2900638">
  <ele>493.07</ele>
  <time>2026-09-01T19:59:01Z</time>
  <course>359.56</course>
  <speed>0.05</speed>
  <fix>3d</fix>
</trkpt>
<trkpt lat="-27.2721925" lon="151.2900636">
  <ele>493.15</ele>
  <time>2026-09-01T19:59:01Z</time>
  <course>352.37</course>
  <speed>0.09</speed>
  <fix>3d</fix>
</trkpt>
<trkpt lat="-27.2721925" lon="151.2900638">
  <ele>493.07</ele>
  <time>2026-09-01T19:59:01Z</time>
  <course>359.56</course>
  <speed>0.05</speed>
  <fix>3d</fix>
</trkpt>
<trkpt lat="-27.2721923" lon="151.2900636">
  <ele>493.15</ele>
  <time>2026-09-01T19:59:01Z</time>
  <course>351.62</course>
  <speed>0.08</speed>
  <fix>3d</fix>
</trkpt>
<trkpt lat="-27.2721924" lon="151.2900637">
  <ele>493.07</ele>
  <time>2026-09-01T19:59:01Z</time>
  <course>359.56</course>
  <speed>0.04</speed>
  <fix>3d</fix>
</trkpt>
<trkpt lat="-27.2721923" lon="151.2900636">
  <ele>493.15</ele>
  <time>2026-09-01T19:59:01Z</time>
  <course>351.62</course>
  <speed>0.08</speed>
  <fix>3d</fix>
</trkpt>
<trkpt lat="-27.2721924" lon="151.2900637">
  <ele>493.07</ele>
  <time>2026-09-01T19:59:01Z</time>
  <course>359.56</course>
  <speed>0.04</speed>
  <fix>3d</fix>
</trkpt>
<trkpt lat="-27.2721922" lon="151.2900635">
  <ele>493.15</ele>
  <time>2026-09-01T19:59:01Z</time>
  <course>351.0</course>
  <speed>0.07</speed>
  <fix>3d</fix>
</trkpt>
<trkpt lat="-27.2721923" lon="151.2900637">
  <ele>493.07</ele>
  <time>2026-09-01T19:59:01Z</time>
  <course>359.56</course>
  <speed>0.04</speed>
  <fix>3d</fix>
</trkpt>
<trkpt lat="-27.2721922" lon="151.2900635">
  <ele>493.15</ele>
  <time>2026-09-01T19:59:01Z</time>
  <course>351.0</course>
  <speed>0.07</speed>
  <fix>3d</fix>
</trkpt>
<trkpt lat="-27.2721923" lon="151.2900637">
  <ele>493.07</ele>
  <time>2026-09-01T19:59:01Z</time>
  <course>359.55</course>
  <speed>0.03</speed>
  <fix>3d</fix>
</trkpt>
<trkpt lat="-27.2721921" lon="151.2900635">
  <ele>493.15</ele>
  <time>2026-09-01T19:59:01Z</time>
  <course>350.25</course>
  <speed>0.06</speed>
  <fix>3d</fix>
</trkpt>
<trkpt lat="-27.2721922" lon="151.2900637">
  <ele>493.07</ele>
  <time>2026-09-01T19:59:01Z</time>
  <course>359.54</course>
  <speed>0.02</speed>
  <fix>3d</fix>
</trkpt>
<trkpt lat="-27.2721921" lon="151.2900635">
  <ele>493.15</ele>
  <time>2026-09-01T19:59:01Z</time>
  <course>350.25</course>
  <speed>0.06</speed>
  <fix>3d</fix>
</trkpt>
<trkpt lat="-27.2721922" lon="151.2900637">
  <ele>493.07</ele>
  <time>2026-09-01T19:59:01Z</time>
  <course>359.54</course>
  <speed>0.02</speed>
  <fix>3d</fix>
</trkpt>
<trkpt lat="-27.272192" lon="151.2900635">
  <ele>493.15</ele>
  <time>2026-09-01T19:59:01Z</time>
  <course>348.83</course>
  <speed>0.05</speed>
  <fix>3d</fix>
</trkpt>
<trkpt lat="-27.2721921" lon="151.2900637">
  <ele>493.07</ele>
  <time>2026-09-01T19:59:01Z</time>
  <course>359.54</course>
  <speed>0.01</speed>
  <fix>3d</fix>
</trkpt>
<trkpt lat="-27.272192" lon="151.2900635">
  <ele>493.15</ele>
  <time>2026-09-01T19:59:01Z</time>
  <course>348.83</course>
  <speed>0.05</speed>
  <fix>3d</fix>
</trkpt>
<trkpt lat="-27.2721921" lon="151.2900637">
  <ele>493.07</ele>
  <time>2026-09-01T19:59:01Z</time>
  <course>359.54</course>
  <speed>0.01</speed>
  <fix>3d</fix>
</trkpt>
<trkpt lat="-27.2721919" lon="151.2900635">
  <ele>493.14</ele>
  <time>2026-09-01T19:59:01Z</time>
  <course>346.38</course>
  <speed>0.04</speed>
  <fix>3d</fix>
</trkpt>
<trkpt lat="-27.2721921" lon="151.2900637">
  <ele>493.06</ele>
  <time>2026-09-01T19:59:01Z</time>
  <course>359.55</course>
  <speed>0.0</speed>
  <fix>3d</fix>
</trkpt>
<trkpt lat="-27.2721919" lon="151.2900635">
  <ele>493.14</ele>
  <time>2026-09-01T19:59:01Z</time>
  <course>346.38</course>
  <speed>0.04</speed>
  <fix>3d</fix>
</trkpt>
<trkpt lat="-27.2721921" lon="151.2900637">
  <ele>493.06</ele>
  <time>2026-09-01T19:59:01Z</time>
  <course>359.56</course>
  <speed>0.01</speed>
  <fix>3d</fix>
</trkpt>
<trkpt lat="-27.2721918" lon="151.2900635">
  <ele>493.14</ele>
  <time>2026-09-01T19:59:01Z</time>
  <course>342.21</course>
  <speed>0.03</speed>
  <fix>3d</fix>
</trkpt>
<trkpt lat="-27.272192" lon="151.2900637">
  <ele>493.06</ele>
  <time>2026-09-01T19:59:01Z</time>
  <course>359.56</course>
  <speed>0.01</speed>
  <fix>3d</fix>
</trkpt>
<trkpt lat="-27.2721918" lon="151.2900635">
  <ele>493.14</ele>
  <time>2026-09-01T19:59:01Z</time>
  <course>342.21</course>
  <speed>0.03</speed>
  <fix>3d</fix>
</trkpt>
<trkpt lat="-27.272192" lon="151.2900637">
  <ele>493.06</ele>
  <time>2026-09-01T19:59:01Z</time>
  <course>359.57</course>
  <speed>0.01414213562373095</speed>
  <fix>3d</fix>
</trkpt>
<trkpt lat="-27.2721918" lon="151.2900634">
  <ele>493.14</ele>
  <time>2026-09-01T19:59:01Z</time>
  <course>334.64</course>
  <speed>0.01</speed>
  <fix>3d</fix>
</trkpt>
<trkpt lat="-27.272192" lon="151.2900636">
  <ele>493.06</ele>
  <time>2026-09-01T19:59:01Z</time>
  <course>359.57</course>
  <speed>0.01414213562373095</speed>
  <fix>3d</fix>
</trkpt>
<trkpt lat="-27.2721918" lon="151.2900634">
  <ele>493.14</ele>
  <time>2026-09-01T19:59:01Z</time>
  <course>334.64</course>
  <speed>0.01</speed>
  <fix>3d</fix>
</trkpt>
<trkpt lat="-27.272192" lon="151.2900636">
  <ele>493.06</ele>
  <time>2026-09-01T19:59:01Z</time>
  <course>359.56</course>
  <speed>0.022360679774997897</speed>
  <fix>3d</fix>
</trkpt>
<trkpt lat="-27.2721918" lon="151.2900633">
  <ele>493.14</ele>
  <time>2026-09-01T19:59:01Z</time>
  <course>311.49</course>
  <speed>0.0</speed>
  <fix>3d</fix>
</trkpt>
<trkpt lat="-27.272192" lon="151.2900636">
  <ele>493.06</ele>
  <time>2026-09-01T19:59:01Z</time>
  <course>359.55</course>
  <speed>0.022360679774997897</speed>
  <fix>3d</fix>
</trkpt>
<trkpt lat="-27.2721918" lon="151.2900633">
  <ele>493.14</ele>
  <time>2026-09-01T19:59:01Z</time>
  <course>311.49</course>
  <speed>0.0</speed>
  <fix>3d</fix>
</trkpt>
<trkpt lat="-27.272192" lon="151.2900636">
  <ele>493.06</ele>
  <time>2026-09-01T19:59:01Z</time>
  <course>359.55</course>
  <speed>0.0316227766016838</speed>
  <fix>3d</fix>
</trkpt>
<trkpt lat="-27.2721918" lon="151.2900633">
  <ele>493.14</ele>
  <time>2026-09-01T19:59:01Z</time>
  <course>224.08</course>
  <speed>0.0</speed>
  <fix>3d</fix>
</trkpt>
<trkpt lat="-27.272192" lon="151.2900636">
  <ele>493.06</ele>
  <time>2026-09-01T19:59:01Z</time>
  <course>359.55</course>
  <speed>0.0316227766016838</speed>
  <fix>3d</fix>
</trkpt>
<trkpt lat="-27.2721918" lon="151.2900633">
  <ele>493.14</ele>
  <time>2026-09-01T19:59:01Z</time>
  <course>224.08</course>
  <speed>0.0</speed>
  <fix>3d</fix>
</trkpt>
<trkpt lat="-27.272192" lon="151.2900636">
  <ele>493.06</ele>
  <time>2026-09-01T19:59:01Z</time>
  <course>359.55</course>
  <speed>0.0412310562561766</speed>
  <fix>3d</fix>
</trkpt>
<trkpt lat="-27.2721918" lon="151.2900633">
  <ele>493.15</ele>
  <time>2026-09-01T19:59:01Z</time>
  <course>193.99</course>
  <speed>0.01</speed>
  <fix>3d</fix>
</trkpt>
<trkpt lat="-27.272192" lon="151.2900636">
  <ele>493.06</ele>
  <time>2026-09-01T19:59:01Z</time>
  <course>359.55</course>
  <speed>0.0412310562561766</speed>
  <fix>3d</fix>
</trkpt>
<trkpt lat="-27.2721918" lon="151.2900633">
  <ele>493.15</ele>
  <time>2026-09-01T19:59:01Z</time>
  <course>193.99</course>
  <speed>0.01</speed>
  <fix>3d</fix>
</trkpt>
<trkpt lat="-27.272192" lon="151.2900636">
  <ele>493.06</ele>
  <time>2026-09-01T19:59:01Z</time>
  <course>359.55</course>
  <speed>0.05099019513592785</speed>
  <fix>3d</fix>
</trkpt>
<trkpt lat="-27.2721918" lon="151.2900633">
  <ele>493.15</ele>
  <time>2026-09-01T19:59:01Z</time>
  <course>186.23</course>
  <speed>0.02</speed>
  <fix>3d</fix>
</trkpt>
<trkpt lat="-27.272192" lon="151.2900636">
  <ele>493.06</ele>
  <time>2026-09-01T19:59:01Z</time>
  <course>359.55</course>
  <speed>0.05099019513592785</speed>
  <fix>3d</fix>
</trkpt>
<trkpt lat="-27.2721918" lon="151.2900633">
  <ele>493.15</ele>
  <time>2026-09-01T19:59:01Z</time>
  <course>186.23</course>
  <speed>0.02</speed>
  <fix>3d</fix>
</trkpt>
<trkpt lat="-27.2721921" lon="151.2900636">
  <ele>493.06</ele>
  <time>2026-09-01T19:59:01Z</time>
  <course>359.55</course>
  <speed>0.05099019513592785</speed>
  <fix>3d</fix>
</trkpt>
<trkpt lat="-27.2721918" lon="151.2900633">
  <ele>493.15</ele>
  <time>2026-09-01T19:59:01Z</time>
  <course>182.43</course>
  <speed>0.03</speed>
  <fix>3d</fix>
</trkpt>
<trkpt lat="-27.2721921" lon="151.2900636">
  <ele>493.07</ele>
  <time>2026-09-01T19:59:01Z</time>
  <course>359.54</course>
  <speed>0.05099019513592785</speed>
  <fix>3d</fix>
</trkpt>
<trkpt lat="-27.2721918" lon="151.2900633">
  <ele>493.15</ele>
  <time>2026-09-01T19:59:01Z</time>
  <course>182.43</course>
  <speed>0.03</speed>
  <fix>3d</fix>
</trkpt>
<trkpt lat="-27.2721921" lon="151.2900636">
  <ele>493.07</ele>
  <time>2026-09-01T19:59:01Z</time>
  <course>359.54</course>
  <speed>0.05099019513592785</speed>
  <fix>3d</fix>
</trkpt>
<trkpt lat="-27.2721918" lon="151.2900633">
  <ele>493.15</ele>
  <time>2026-09-01T19:59:01Z</time>
  <course>179.71</course>
  <speed>0.03</speed>
  <fix>3d</fix>
</trkpt>
<trkpt lat="-27.2721921" lon="151.2900635">
  <ele>493.07</ele>
  <time>2026-09-01T19:59:01Z</time>
  <course>359.56</course>
  <speed>0.01</speed>
  <fix>3d</fix>
</trkpt>
<trkpt lat="-27.2721918" lon="151.2900633">
  <ele>493.15</ele>
  <time>2026-09-01T19:59:01Z</time>
  <course>179.71</course>
  <speed>0.03</speed>
  <fix>3d</fix>
</trkpt>
<trkpt lat="-27.272192" lon="151.2900635">
  <ele>493.07</ele>
  <time>2026-09-01T19:59:01Z</time>
  <course>359.6</course>
  <speed>0.1004987562112089</speed>
  <fix>3d</fix>
</trkpt>
<trkpt lat="-27.2721919" lon="151.2900633">
  <ele>493.15</ele>
  <time>2026-09-01T19:59:01Z</time>
  <course>1.55</course>
  <speed>0.04</speed>
  <fix>3d</fix>
</trkpt>
<trkpt lat="-27.2721919" lon="151.2900635">
  <ele>493.07</ele>
  <time>2026-09-01T19:59:01Z</time>
  <course>359.69</course>
  <speed>0.280713376952364</speed>
  <fix>3d</fix>
</trkpt>
<trkpt lat="-27.2721919" lon="151.2900633">
  <ele>493.15</ele>
  <time>2026-09-01T19:59:01Z</time>
  <course>1.55</course>
  <speed>0.04</speed>
  <fix>3d</fix>
</trkpt>
<trkpt lat="-27.2721915" lon="151.2900635">
  <ele>493.07</ele>
  <time>2026-09-01T19:59:01Z</time>
  <course>359.87</course>
  <speed>0.5103920062069939</speed>
  <fix>3d</fix>
</trkpt>
<trkpt lat="-27.2721916" lon="151.2900633">
  <ele>493.15</ele>
  <time>2026-09-01T19:59:01Z</time>
  <course>0.9</course>
  <speed>0.32</speed>
  <fix>3d</fix>
</trkpt>
<trkpt lat="-27.2721909" lon="151.2900635">
  <ele>493.07</ele>
  <time>2026-09-01T19:59:01Z</time>
  <course>0.11</course>
  <speed>0.8105553651663777</speed>
  <fix>3d</fix>
</trkpt>
<trkpt lat="-27.2721916" lon="151.2900633">
  <ele>493.15</ele>
  <time>2026-09-01T19:59:01Z</time>
  <course>0.9</course>
  <speed>0.32</speed>
  <fix>3d</fix>
</trkpt>
<trkpt lat="-27.27219" lon="151.2900635">
  <ele>493.07</ele>
  <time>2026-09-01T19:59:01Z</time>
  <course>0.36</course>
  <speed>1.161077086157504</speed>
  <fix>3d</fix>
</trkpt>
<trkpt lat="-27.2721906" lon="151.2900633">
  <ele>493.15</ele>
  <time>2026-09-01T19:59:01Z</time>
  <course>1.39</course>
  <speed>0.84</speed>
  <fix>3d</fix>
</trkpt>
<trkpt lat="-27.2721888" lon="151.2900635">
  <ele>493.07</ele>
  <time>2026-09-01T19:59:01Z</time>
  <course>0.64</course>
  <speed>1.5820240200452078</speed>
  <fix>3d</fix>
</trkpt>
<trkpt lat="-27.2721906" lon="151.2900633">
  <ele>493.15</ele>
  <time>2026-09-01T19:59:01Z</time>
  <course>1.39</course>
  <speed>0.84</speed>
  <fix>3d</fix>
</trkpt>
<trkpt lat="-27.2721871" lon="151.2900636">
  <ele>493.07</ele>
  <time>2026-09-01T19:59:01Z</time>
  <course>0.95</course>
  <speed>2.062934802653734</speed>
  <fix>3d</fix>
</trkpt>
<trkpt lat="-27.2721884" lon="151.2900634">
  <ele>493.15</ele>
  <time>2026-09-01T19:59:01Z</time>
  <course>2.01</course>
  <speed>1.61</speed>
  <fix>3d</fix>
</trkpt>
<trkpt lat="-27.272185" lon="151.2900637">
  <ele>493.07</ele>
  <time>2026-09-01T19:59:01Z</time>
  <course>1.27</course>
  <speed>2.6043233286210836</speed>
  <fix>3d</fix>
</trkpt>
<trkpt lat="-27.2721884" lon="151.2900634">
  <ele>493.15</ele>
  <time>2026-09-01T19:59:01Z</time>
  <course>2.01</course>
  <speed>1.61</speed>
  <fix>3d</fix>
</trkpt>
<trkpt lat="-27.2721824" lon="151.2900639">
  <ele>493.07</ele>
  <time>2026-09-01T19:59:01Z</time>
  <course>1.63</course>
  <speed>3.1869264189811473</speed>
  <fix>3d</fix>
</trkpt>
<trkpt lat="-27.2721846" lon="151.2900636">
  <ele>493.15</ele>
  <time>2026-09-01T19:59:01Z</time>
  <course>2.72</course>
  <speed>2.62</speed>
  <fix>3d</fix>
</trkpt>
<trkpt lat="-27.2721792" lon="151.2900641">
  <ele>493.07</ele>
  <time>2026-09-01T19:59:01Z</time>
  <course>2.03</course>
  <speed>3.799605242653505</speed>
  <fix>3d</fix>
</trkpt>
<trkpt lat="-27.2721846" lon="151.2900636">
  <ele>493.15</ele>
  <time>2026-09-01T19:59:01Z</time>
  <course>2.72</course>
  <speed>2.62</speed>
  <fix>3d</fix>
</trkpt>
<trkpt lat="-27.2721755" lon="151.2900644">
  <ele>493.08</ele>
  <time>2026-09-01T19:59:01Z</time>
  <course>2.63</course>
  <speed>4.4138985035906755</speed>
  <fix>3d</fix>
</trkpt>
<trkpt lat="-27.2721789" lon="151.2900639">
  <ele>493.16</ele>
  <time>2026-09-01T19:59:01Z</time>
  <course>3.57</course>
  <speed>3.79</speed>
  <fix>3d</fix>
</trkpt>
<trkpt lat="-27.2721713" lon="151.2900648">
  <ele>493.08</ele>
  <time>2026-09-01T19:59:01Z</time>
  <course>3.37</course>
  <speed>5.020209158989294</speed>
  <fix>3d</fix>
</trkpt>
<trkpt lat="-27.2721789" lon="151.2900639">
  <ele>493.16</ele>
  <time>2026-09-01T19:59:01Z</time>
  <course>3.57</course>
  <speed>3.79</speed>
  <fix>3d</fix>
</trkpt>
<trkpt lat="-27.2721665" lon="151.2900653">
  <ele>493.09</ele>
  <time>2026-09-01T19:59:01Z</time>
  <course>4.17</course>
  <speed>5.629955594851526</speed>
  <fix>3d</fix>
</trkpt>
<trkpt lat="-27.272171" lon="151.2900646">
  <ele>493.16</ele>
  <time>2026-09-01T19:59:01Z</time>
  <course>4.77</course>
  <speed>5.02</speed>
  <fix>3d</fix>
</trkpt>
<trkpt lat="-27.2721612" lon="151.2900659">
  <ele>493.09</ele>
  <time>2026-09-01T19:59:01Z</time>
  <course>5.13</course>
  <speed>6.252759390860966</speed>
  <fix>3d</fix>
</trkpt>
<trkpt lat="-27.272171" lon="151.2900646">
  <ele>493.16</ele>
  <time>2026-09-01T19:59:01Z</time>
  <course>4.77</course>
  <speed>5.02</speed>
  <fix>3d</fix>
</trkpt>
<trkpt lat="-27.2721553" lon="151.2900667">
  <ele>493.1</ele>
  <time>2026-09-01T19:59:01Z</time>
  <course>6.13</course>
  <speed>6.861953074744828</speed>
  <fix>3d</fix>
</trkpt>
<trkpt lat="-27.2721609" lon="151.2900657">
  <ele>493.18</ele>
  <time>2026-09-01T19:59:01Z</time>
  <course>6.38</course>
  <speed>6.24</speed>
  <fix>3d</fix>
</trkpt>
<trkpt lat="-27.2721489" lon="151.2900677">
  <ele>493.11</ele>
  <time>2026-09-01T19:59:01Z</time>
  <course>7.27</course>
  <speed>7.475894595297609</speed>
  <fix>3d</fix>
</trkpt>
<trkpt lat="-27.2721609" lon="151.2900657">
  <ele>493.18</ele>
  <time>2026-09-01T19:59:01Z</time>
  <course>6.38</course>
  <speed>6.24</speed>
  <fix>3d</fix>
</trkpt>
<trkpt lat="-27.272142" lon="151.290069">
  <ele>493.12</ele>
  <time>2026-09-01T19:59:01Z</time>
  <course>8.59</course>
  <speed>8.096746260072623</speed>
  <fix>3d</fix>
</trkpt>
<trkpt lat="-27.2721487" lon="151.2900674">
  <ele>493.19</ele>
  <time>2026-09-01T19:59:01Z</time>
  <course>8.31</course>
  <speed>7.47</speed>
  <fix>3d</fix>
</trkpt>
<trkpt lat="-27.2721346" lon="151.2900704">
  <ele>493.13</ele>
  <time>2026-09-01T19:59:01Z</time>
  <course>9.9</course>
  <speed>8.690023014929247</speed>
  <fix>3d</fix>
</trkpt>
<trkpt lat="-27.2721487" lon="151.2900674">
  <ele>493.19</ele>
  <time>2026-09-01T19:59:01Z</time>
  <course>8.31</course>
  <speed>7.47</speed>
  <fix>3d</fix>
</trkpt>
<trkpt lat="-27.2721267" lon="151.2900722">
  <ele>493.14</ele>
  <time>2026-09-01T19:59:01Z</time>
  <course>11.12</course>
  <speed>9.293373983650932</speed>
  <fix>3d</fix>
</trkpt>
<trkpt lat="-27.2721344" lon="151.2900701">
  <ele>493.2</ele>
  <time>2026-09-01T19:59:01Z</time>
  <course>10.63</course>
  <speed>8.69</speed>
  <fix>3d</fix>
</trkpt>
<trkpt lat="-27.2721183" lon="151.2900744">
  <ele>493.14</ele>
  <time>2026-09-01T19:59:01Z</time>
  <course>12.34</course>
  <speed>9.890788643985879</speed>
  <fix>3d</fix>
</trkpt>
<trkpt lat="-27.2721344" lon="151.2900701">
  <ele>493.2</ele>
  <time>2026-09-01T19:59:01Z</time>
  <course>10.63</course>
  <speed>8.69</speed>
  <fix>3d</fix>
</trkpt>
<trkpt lat="-27.2721094" lon="151.2900769">
  <ele>493.15</ele>
  <time>2026-09-01T19:59:01Z</time>
  <course>13.76</course>
  <speed>10.481760348338442</speed>
  <fix>3d</fix>
</trkpt>
<trkpt lat="-27.272118" lon="151.2900741">
  <ele>493.21</ele>
  <time>2026-09-01T19:59:01Z</time>
  <course>13.3</course>
  <speed>9.89</speed>
  <fix>3d</fix>
</trkpt>
<trkpt lat="-27.2721" lon="151.2900798">
  <ele>493.16</ele>
  <time>2026-09-01T19:59:01Z</time>
  <course>15.18</course>
  <speed>11.058141796884321</speed>
  <fix>3d</fix>
</trkpt>
<trkpt lat="-27.272118" lon="151.2900741">
  <ele>493.21</ele>
  <time>2026-09-01T19:59:01Z</time>
  <course>13.3</course>
  <speed>9.89</speed>
  <fix>3d</fix>
</trkpt>
<trkpt lat="-27.2720903" lon="151.2900832">
  <ele>493.18</ele>
  <time>2026-09-01T19:59:01Z</time>
  <course>16.7</course>
  <speed>11.612131587266827</speed>
  <fix>3d</fix>
</trkpt>
<trkpt lat="-27.2720998" lon="151.2900795">
  <ele>493.22</ele>
  <time>2026-09-01T19:59:01Z</time>
  <course>16.18</course>
  <speed>11.04</speed>
  <fix>3d</fix>
</trkpt>
<trkpt lat="-27.2720801" lon="151.290087">
  <ele>493.19</ele>
  <time>2026-09-01T19:59:01Z</time>
  <course>18.31</course>
  <speed>12.155200533105162</speed>
  <fix>3d</fix>
</trkpt>
<trkpt lat="-27.2720998" lon="151.2900795">
  <ele>493.22</ele>
  <time>2026-09-01T19:59:01Z</time>
  <course>16.18</course>
  <speed>11.04</speed>
  <fix>3d</fix>
</trkpt>
<trkpt lat="-27.2720697" lon="151.2900913">
  <ele>493.22</ele>
  <time>2026-09-01T19:59:01Z</time>
  <course>19.96</course>
  <speed>12.676308610948219</speed>
  <fix>3d</fix>
</trkpt>
<trkpt lat="-27.2720799" lon="151.2900866">
  <ele>493.26</ele>
  <time>2026-09-01T19:59:01Z</time>
  <course>19.24</course>
  <speed>12.14</speed>
  <fix>3d</fix>
</trkpt>
<trkpt lat="-27.2720589" lon="151.2900961">
  <ele>493.25</ele>
  <time>2026-09-01T19:59:01Z</time>
  <course>21.53</course>
  <speed>13.182325288051423</speed>
  <fix>3d</fix>
</trkpt>
<trkpt lat="-27.2720799" lon="151.2900866">
  <ele>493.26</ele>
  <time>2026-09-01T19:59:01Z</time>
  <course>19.24</course>
  <speed>12.14</speed>
  <fix>3d</fix>
</trkpt>
<trkpt lat="-27.2720478" lon="151.2901015">
  <ele>493.28</ele>
  <time>2026-09-01T19:59:01Z</time>
  <course>23.04</course>
  <speed>13.664688068155819</speed>
  <fix>3d</fix>
</trkpt>
<trkpt lat="-27.2720586" lon="151.2900957">
  <ele>493.31</ele>
  <time>2026-09-01T19:59:01Z</time>
  <course>22.35</course>
  <speed>13.17</speed>
  <fix>3d</fix>
</trkpt>
<trkpt lat="-27.2720365" lon="151.2901074">
  <ele>493.32</ele>
  <time>2026-09-01T19:59:01Z</time>
  <course>24.41</course>
  <speed>14.14673460555474</speed>
  <fix>3d</fix>
</trkpt>
<trkpt lat="-27.2720586" lon="151.2900957">
  <ele>493.31</ele>
  <time>2026-09-01T19:59:01Z</time>
  <course>22.35</course>
  <speed>13.17</speed>
  <fix>3d</fix>
</trkpt>
<trkpt lat="-27.2720249" lon="151.2901138">
  <ele>493.36</ele>
  <time>2026-09-01T19:59:01Z</time>
  <course>25.85</course>
  <speed>14.606933285258751</speed>
  <fix>3d</fix>
</trkpt>
<trkpt lat="-27.2720362" lon="151.2901069">
  <ele>493.38</ele>
  <time>2026-09-01T19:59:01Z</time>
  <course>25.4</course>
  <speed>14.13</speed>
  <fix>3d</fix>
</trkpt>
<trkpt lat="-27.2720131" lon="151.2901207">
  <ele>493.4</ele>
  <time>2026-09-01T19:59:01Z</time>
  <course>27.34</course>
  <speed>15.06708332757206</speed>
  <fix>3d</fix>
</trkpt>
<trkpt lat="-27.2720362" lon="151.2901069">
  <ele>493.38</ele>
  <time>2026-09-01T19:59:01Z</time>
  <course>25.4</course>
  <speed>14.13</speed>
  <fix>3d</fix>
</trkpt>
<trkpt lat="-27.2720011" lon="151.2901282">
  <ele>493.44</ele>
  <time>2026-09-01T19:59:01Z</time>
  <course>28.77</course>
  <speed>15.505721524650182</speed>
  <fix>3d</fix>
</trkpt>
<trkpt lat="-27.2720128" lon="151.2901202">
  <ele>493.46</ele>
  <time>2026-09-01T19:59:01Z</time>
  <course>28.31</course>
  <speed>15.06</speed>
  <fix>3d</fix>
</trkpt>
<trkpt lat="-27.2719889" lon="151.2901362">
  <ele>493.48</ele>
  <time>2026-09-01T19:59:01Z</time>
  <course>30.03</course>
  <speed>15.93934753997164</speed>
  <fix>3d</fix>
</trkpt>
<trkpt lat="-27.2720128" lon="151.2901202">
  <ele>493.46</ele>
  <time>2026-09-01T19:59:01Z</time>
  <course>28.31</course>
  <speed>15.06</speed>
  <fix>3d</fix>
</trkpt>
<trkpt lat="-27.2719766" lon="151.2901448">
  <ele>493.52</ele>
  <time>2026-09-01T19:59:01Z</time>
  <course>31.26</course>
  <speed>16.355564802231687</speed>
  <fix>3d</fix>
</trkpt>
<trkpt lat="-27.2719886" lon="151.2901357">
  <ele>493.54</ele>
  <time>2026-09-01T19:59:01Z</time>
  <course>31.03</course>
  <speed>15.93</speed>
  <fix>3d</fix>
</trkpt>
<trkpt lat="-27.2719641" lon="151.2901539">
  <ele>493.56</ele>
  <time>2026-09-01T19:59:01Z</time>
  <course>32.4</course>
  <speed>16.715923546128106</speed>
  <fix>3d</fix>
</trkpt>
<trkpt lat="-27.2719886" lon="151.2901357">
  <ele>493.54</ele>
  <time>2026-09-01T19:59:01Z</time>
  <course>31.03</course>
  <speed>15.93</speed>
  <fix>3d</fix>
</trkpt>
<trkpt lat="-27.2719515" lon="151.2901635">
  <ele>493.6</ele>
  <time>2026-09-01T19:59:01Z</time>
  <course>33.61</course>
  <speed>17.02282291513367</speed>
  <fix>3d</fix>
</trkpt>
<trkpt lat="-27.2719638" lon="151.2901534">
  <ele>493.63</ele>
  <time>2026-09-01T19:59:01Z</time>
  <course>33.56</course>
  <speed>16.69</speed>
  <fix>3d</fix>
</trkpt>
<trkpt lat="-27.2719389" lon="151.2901735">
  <ele>493.63</ele>
  <time>2026-09-01T19:59:01Z</time>
  <course>34.88</course>
  <speed>17.298999971096595</speed>
  <fix>3d</fix>
</trkpt>
<trkpt lat="-27.2719638" lon="151.2901534">
  <ele>493.63</ele>
  <time>2026-09-01T19:59:01Z</time>
  <course>33.56</course>
  <speed>16.69</speed>
  <fix>3d</fix>
</trkpt>
<trkpt lat="-27.2719264" lon="151.2901841">
  <ele>493.67</ele>
  <time>2026-09-01T19:59:01Z</time>
  <course>36.08</course>
  <speed>17.5371177791563</speed>
  <fix>3d</fix>
</trkpt>
<trkpt lat="-27.2719387" lon="151.290173">
  <ele>493.71</ele>
  <time>2026-09-01T19:59:01Z</time>
  <course>36.04</course>
  <speed>17.29</speed>
  <fix>3d</fix>
</trkpt>
<trkpt lat="-27.2719138" lon="151.290195">
  <ele>493.71</ele>
  <time>2026-09-01T19:59:01Z</time>
  <course>37.32</course>
  <speed>17.753872816937715</speed>
  <fix>3d</fix>
</trkpt>
<trkpt lat="-27.2719387" lon="151.290173">
  <ele>493.71</ele>
  <time>2026-09-01T19:59:01Z</time>
  <course>36.04</course>
  <speed>17.29</speed>
  <fix>3d</fix>
</trkpt>
<trkpt lat="-27.2719014" lon="151.2902065">
  <ele>493.76</ele>
  <time>2026-09-01T19:59:01Z</time>
  <course>38.61</course>
  <speed>17.963744041819346</speed>
  <fix>3d</fix>
</trkpt>
<trkpt lat="-27.2719137" lon="151.2901944">
  <ele>493.79</ele>
  <time>2026-09-01T19:59:01Z</time>
  <course>38.57</course>
  <speed>17.76</speed>
  <fix>3d</fix>
</trkpt>
<trkpt lat="-27.271889" lon="151.2902183">
  <ele>493.81</ele>
  <time>2026-09-01T19:59:01Z</time>
  <course>39.98</course>
  <speed>18.173874105429476</speed>
  <fix>3d</fix>
</trkpt>
<trkpt lat="-27.2719137" lon="151.2901944">
  <ele>493.79</ele>
  <time>2026-09-01T19:59:01Z</time>
  <course>38.57</course>
  <speed>17.76</speed>
  <fix>3d</fix>
</trkpt>
<trkpt lat="-27.2718768" lon="151.2902307">
  <ele>493.86</ele>
  <time>2026-09-01T19:59:01Z</time>
  <course>41.44</course>
  <speed>18.378000435303075</speed>
  <fix>3d</fix>
</trkpt>
<trkpt lat="-27.271889" lon="151.2902178">
  <ele>493.89</ele>
  <time>2026-09-01T19:59:01Z</time>
  <course>41.18</course>
  <speed>18.18</speed>
  <fix>3d</fix>
</trkpt>
<trkpt lat="-27.2718647" lon="151.2902435">
  <ele>493.92</ele>
  <time>2026-09-01T19:59:01Z</time>
  <course>42.9</course>
  <speed>18.570778120477343</speed>
  <fix>3d</fix>
</trkpt>
<trkpt lat="-27.271889" lon="151.2902178">
  <ele>493.89</ele>
  <time>2026-09-01T19:59:01Z</time>
  <course>41.18</course>
  <speed>18.18</speed>
  <fix>3d</fix>
</trkpt>
<trkpt lat="-27.2718526" lon="151.2902569">
  <ele>493.97</ele>
  <time>2026-09-01T19:59:01Z</time>
  <course>44.5</course>
  <speed>18.774804925750892</speed>
  <fix>3d</fix>
</trkpt>
<trkpt lat="-27.2718646" lon="151.2902429">
  <ele>493.99</ele>
  <time>2026-09-01T19:59:01Z</time>
  <course>43.96</course>
  <speed>18.58</speed>
  <fix>3d</fix>
</trkpt>
<trkpt lat="-27.271841" lon="151.2902706">
  <ele>494.02</ele>
  <time>2026-09-01T19:59:01Z</time>
  <course>46.21</course>
  <speed>18.95738642323883</speed>
  <fix>3d</fix>
</trkpt>
<trkpt lat="-27.2718646" lon="151.2902429">
  <ele>493.99</ele>
  <time>2026-09-01T19:59:01Z</time>
  <course>43.96</course>
  <speed>18.58</speed>
  <fix>3d</fix>
</trkpt>
<trkpt lat="-27.2718295" lon="151.2902848">
  <ele>494.07</ele>
  <time>2026-09-01T19:59:01Z</time>
  <course>48.01</course>
  <speed>19.143701314009263</speed>
  <fix>3d</fix>
</trkpt>
<trkpt lat="-27.271841" lon="151.29027">
  <ele>494.09</ele>
  <time>2026-09-01T19:59:01Z</time>
  <course>47.04</course>
  <speed>18.96</speed>
  <fix>3d</fix>
</trkpt>
<trkpt lat="-27.2718184" lon="151.2902996">
  <ele>494.12</ele>
  <time>2026-09-01T19:59:01Z</time>
  <course>49.85</course>
  <speed>19.322900920927996</speed>
  <fix>3d</fix>
</trkpt>
<trkpt lat="-27.271841" lon="151.29027">
  <ele>494.09</ele>
  <time>2026-09-01T19:59:01Z</time>
  <course>47.04</course>
  <speed>18.96</speed>
  <fix>3d</fix>
</trkpt>
<trkpt lat="-27.2718076" lon="151.2903149">
  <ele>494.16</ele>
  <time>2026-09-01T19:59:01Z</time>
  <course>51.79</course>
  <speed>19.506639895174157</speed>
  <fix>3d</fix>
</trkpt>
<trkpt lat="-27.2718183" lon="151.2902991">
  <ele>494.18</ele>
  <time>2026-09-01T19:59:01Z</time>
  <course>50.57</course>
  <speed>19.33</speed>
  <fix>3d</fix>
</trkpt>
<trkpt lat="-27.2717972" lon="151.2903307">
  <ele>494.2</ele>
  <time>2026-09-01T19:59:01Z</time>
  <course>53.8</course>
  <speed>19.67741090692574</speed>
  <fix>3d</fix>
</trkpt>
<trkpt lat="-27.2718183" lon="151.2902991">
  <ele>494.18</ele>
  <time>2026-09-01T19:59:01Z</time>
  <course>50.57</course>
  <speed>19.33</speed>
  <fix>3d</fix>
</trkpt>
<trkpt lat="-27.2717872" lon="151.2903472">
  <ele>494.24</ele>
  <time>2026-09-01T19:59:01Z</time>
  <course>55.9</course>
  <speed>19.856469978321925</speed>
  <fix>3d</fix>
</trkpt>
<trkpt lat="-27.2717969" lon="151.2903304">
  <ele>494.27</ele>
  <time>2026-09-01T19:59:01Z</time>
  <course>54.56</course>
  <speed>19.69</speed>
  <fix>3d</fix>
</trkpt>
<trkpt lat="-27.2717777" lon="151.2903642">
  <ele>494.28</ele>
  <time>2026-09-01T19:59:01Z</time>
  <course>58.04</course>
  <speed>20.04305615418966</speed>
  <fix>3d</fix>
</trkpt>
<trkpt lat="-27.2717969" lon="151.2903304">
  <ele>494.27</ele>
  <time>2026-09-01T19:59:01Z</time>
  <course>54.56</course>
  <speed>19.69</speed>
  <fix>3d</fix>
</trkpt>
<trkpt lat="-27.2717687" lon="151.2903818">
  <ele>494.31</ele>
  <time>2026-09-01T19:59:01Z</time>
  <course>60.24</course>
  <speed>20.21793510722596</speed>
  <fix>3d</fix>
</trkpt>
<trkpt lat="-27.2717774" lon="151.290364">
  <ele>494.34</ele>
  <time>2026-09-01T19:59:01Z</time>
  <course>58.92</course>
  <speed>20.05</speed>
  <fix>3d</fix>
</trkpt>
<trkpt lat="-27.2717603" lon="151.2903999">
  <ele>494.34</ele>
  <time>2026-09-01T19:59:01Z</time>
  <course>62.51</course>
  <speed>20.388825370776022</speed>
  <fix>3d</fix>
</trkpt>
<trkpt lat="-27.2717774" lon="151.290364">
  <ele>494.34</ele>
  <time>2026-09-01T19:59:01Z</time>
  <course>58.92</course>
  <speed>20.05</speed>
  <fix>3d</fix>
</trkpt>
<trkpt lat="-27.2717525" lon="151.2904186">
  <ele>494.37</ele>
  <time>2026-09-01T19:59:01Z</time>
  <course>64.84</course>
  <speed>20.57300415593211</speed>
  <fix>3d</fix>
</trkpt>
<trkpt lat="-27.2717599" lon="151.2903999">
  <ele>494.41</ele>
  <time>2026-09-01T19:59:01Z</time>
  <course>63.57</course>
  <speed>20.41</speed>
  <fix>3d</fix>
</trkpt>
<trkpt lat="-27.2717453" lon="151.2904378">
  <ele>494.39</ele>
  <time>2026-09-01T19:59:01Z</time>
  <course>67.25</course>
  <speed>20.746469579183827</speed>
  <fix>3d</fix>
</trkpt>
<trkpt lat="-27.2717599" lon="151.2903999">
  <ele>494.41</ele>
  <time>2026-09-01T19:59:01Z</time>
  <course>63.57</course>
  <speed>20.41</speed>
  <fix>3d</fix>
</trkpt>
<trkpt lat="-27.2717389" lon="151.2904575">
  <ele>494.4</ele>
  <time>2026-09-01T19:59:01Z</time>
  <course>69.71</course>
  <speed>20.92541277968012</speed>
  <fix>3d</fix>
</trkpt>
<trkpt lat="-27.2717448" lon="151.2904378">
  <ele>494.45</ele>
  <time>2026-09-01T19:59:01Z</time>
  <course>68.42</course>
  <speed>20.76</speed>
  <fix>3d</fix>
</trkpt>
<trkpt lat="-27.2717331" lon="151.2904777">
  <ele>494.41</ele>
  <time>2026-09-01T19:59:01Z</time>
  <course>72.16</course>
  <speed>21.10322487204266</speed>
  <fix>3d</fix>
</trkpt>
<trkpt lat="-27.2717448" lon="151.2904378">
  <ele>494.45</ele>
  <time>2026-09-01T19:59:01Z</time>
  <course>68.42</course>
  <speed>20.76</speed>
  <fix>3d</fix>
</trkpt>
<trkpt lat="-27.2717281" lon="151.2904983">
  <ele>494.41</ele>
  <time>2026-09-01T19:59:01Z</time>
  <course>74.66</course>
  <speed>21.2850957244735</speed>
  <fix>3d</fix>
</trkpt>
<trkpt lat="-27.2717326" lon="151.2904778">
  <ele>494.47</ele>
  <time>2026-09-01T19:59:01Z</time>
  <course>73.43</course>
  <speed>21.12</speed>
  <fix>3d</fix>
</trkpt>
<trkpt lat="-27.2717239" lon="151.2905193">
  <ele>494.41</ele>
  <time>2026-09-01T19:59:01Z</time>
  <course>77.19</course>
  <speed>21.46100882996883</speed>
  <fix>3d</fix>
</trkpt>
<trkpt lat="-27.2717326" lon="151.2904778">
  <ele>494.47</ele>
  <time>2026-09-01T19:59:01Z</time>
  <course>73.43</course>
  <speed>21.12</speed>
  <fix>3d</fix>
</trkpt>
<trkpt lat="-27.2717205" lon="151.2905407">
  <ele>494.39</ele>
  <time>2026-09-01T19:59:01Z</time>
  <course>79.71</course>
  <speed>21.646884302365546</speed>
  <fix>3d</fix>
</trkpt>
<trkpt lat="-27.2717233" lon="151.2905196">
  <ele>494.47</ele>
  <time>2026-09-01T19:59:01Z</time>
  <course>78.55</course>
  <speed>21.48</speed>
  <fix>3d</fix>
</trkpt>
<trkpt lat="-27.2717179" lon="151.2905625">
  <ele>494.37</ele>
  <time>2026-09-01T19:59:01Z</time>
  <course>82.18</course>
  <speed>21.82260525235243</speed>
  <fix>3d</fix>
</trkpt>
<trkpt lat="-27.2717233" lon="151.2905196">
  <ele>494.47</ele>
  <time>2026-09-01T19:59:01Z</time>
  <course>78.55</course>
  <speed>21.48</speed>
  <fix>3d</fix>
</trkpt>
<trkpt lat="-27.2717162" lon="151.2905845">
  <ele>494.34</ele>
  <time>2026-09-01T19:59:01Z</time>
  <course>84.77</course>
  <speed>22.01082688133274</speed>
  <fix>3d</fix>
</trkpt>
<trkpt lat="-27.2717173" lon="151.2905628">
  <ele>494.44</ele>
  <time>2026-09-01T19:59:01Z</time>
  <course>83.71</course>
  <speed>21.84</speed>
  <fix>3d</fix>
</trkpt>
<trkpt lat="-27.2717154" lon="151.2906068">
  <ele>494.3</ele>
  <time>2026-09-01T19:59:01Z</time>
  <course>87.42</course>
  <speed>22.1826057982375</speed>
  <fix>3d</fix>
</trkpt>
<trkpt lat="-27.2717173" lon="151.2905628">
  <ele>494.44</ele>
  <time>2026-09-01T19:59:01Z</time>
  <course>83.71</course>
  <speed>21.84</speed>
  <fix>3d</fix>
</trkpt>
<trkpt lat="-27.2717154" lon="151.2906292">
  <ele>494.26</ele>
  <time>2026-09-01T19:59:01Z</time>
  <course>90.07</course>
  <speed>22.37033750304183</speed>
  <fix>3d</fix>
</trkpt>
<trkpt lat="-27.2717148" lon="151.2906072">
  <ele>494.38</ele>
  <time>2026-09-01T19:59:01Z</time>
  <course>88.92</course>
  <speed>22.2</speed>
  <fix>3d</fix>
</trkpt>
<trkpt lat="-27.2717164" lon="151.2906517">
  <ele>494.2</ele>
  <time>2026-09-01T19:59:01Z</time>
  <course>92.7</course>
  <speed>22.546469790191104</speed>
  <fix>3d</fix>
</trkpt>
<trkpt lat="-27.2717148" lon="151.2906072">
  <ele>494.38</ele>
  <time>2026-09-01T19:59:01Z</time>
  <course>88.92</course>
  <speed>22.2</speed>
  <fix>3d</fix>
</trkpt>
<trkpt lat="-27.2717184" lon="151.2906744">
  <ele>494.14</ele>
  <time>2026-09-01T19:59:01Z</time>
  <course>95.35</course>
  <speed>22.723170993503526</speed>
  <fix>3d</fix>
</trkpt>
<trkpt lat="-27.2717159" lon="151.2906524">
  <ele>494.28</ele>
  <time>2026-09-01T19:59:01Z</time>
  <course>94.23</course>
  <speed>22.56</speed>
  <fix>3d</fix>
</trkpt>
<trkpt lat="-27.2717213" lon="151.2906972">
  <ele>494.08</ele>
  <time>2026-09-01T19:59:01Z</time>
  <course>98.0</course>
  <speed>22.90277275789986</speed>
  <fix>3d</fix>
</trkpt>
<trkpt lat="-27.2717159" lon="151.2906524">
  <ele>494.28</ele>
  <time>2026-09-01T19:59:01Z</time>
  <course>94.23</course>
  <speed>22.56</speed>
  <fix>3d</fix>
</trkpt>
<trkpt lat="-27.2717252" lon="151.29072">
  <ele>494.01</ele>
  <time>2026-09-01T19:59:01Z</time>
  <course>100.73</course>
  <speed>23.087910256235837</speed>
  <fix>3d</fix>
</trkpt>
<trkpt lat="-27.2717208" lon="151.2906981">
  <ele>494.16</ele>
  <time>2026-09-01T19:59:01Z</time>
  <course>99.65</course>
  <speed>22.92</speed>
  <fix>3d</fix>
</trkpt>
<trkpt lat="-27.2717302" lon="151.2907429">
  <ele>493.93</ele>
  <time>2026-09-01T19:59:01Z</time>
  <course>103.57</course>
  <speed>23.26484902164637</speed>
  <fix>3d</fix>
</trkpt>
<trkpt lat="-27.2717208" lon="151.2906981">
  <ele>494.16</ele>
  <time>2026-09-01T19:59:01Z</time>
  <course>99.65</course>
  <speed>22.92</speed>
  <fix>3d</fix>
</trkpt>
<trkpt lat="-27.2717361" lon="151.2907655">
  <ele>493.85</ele>
  <time>2026-09-01T19:59:01Z</time>
  <course>106.38</course>
  <speed>23.445617927450748</speed>
  <fix>3d</fix>
</trkpt>
<trkpt lat="-27.2717297" lon="151.2907437">
  <ele>494.01</ele>
  <time>2026-09-01T19:59:01Z</time>
  <course>105.15</course>
  <speed>23.28</speed>
  <fix>3d</fix>
</trkpt>
<trkpt lat="-27.2717432" lon="151.2907881">
  <ele>493.76</ele>
  <time>2026-09-01T19:59:01Z</time>
  <course>109.24</course>
  <speed>23.62519417909618</speed>
  <fix>3d</fix>
</trkpt>
<trkpt lat="-27.2717297" lon="151.2907437">
  <ele>494.01</ele>
  <time>2026-09-01T19:59:01Z</time>
  <course>105.15</course>
  <speed>23.28</speed>
  <fix>3d</fix>
</trkpt>
<trkpt lat="-27.2717512" lon="151.2908103">
  <ele>493.66</ele>
  <time>2026-09-01T19:59:01Z</time>
  <course>112.08</course>
  <speed>23.793797511116214</speed>
  <fix>3d</fix>
</trkpt>
<trkpt lat="-27.2717427" lon="151.2907888">
  <ele>493.84</ele>
  <time>2026-09-01T19:59:01Z</time>
  <course>110.75</course>
  <speed>23.63</speed>
  <fix>3d</fix>
</trkpt>
<trkpt lat="-27.2717602" lon="151.2908321">
  <ele>493.56</ele>
  <time>2026-09-01T19:59:01Z</time>
  <course>114.9</course>
  <speed>23.96618033813482</speed>
  <fix>3d</fix>
</trkpt>
<trkpt lat="-27.2717427" lon="151.2907888">
  <ele>493.84</ele>
  <time>2026-09-01T19:59:01Z</time>
  <course>110.75</course>
  <speed>23.63</speed>
  <fix>3d</fix>
</trkpt>
<trkpt lat="-27.2717703" lon="151.2908536">
  <ele>493.46</ele>
  <time>2026-09-01T19:59:01Z</time>
  <course>117.74</course>
  <speed>24.136165809838147</speed>
  <fix>3d</fix>
</trkpt>
<trkpt lat="-27.2717598" lon="151.2908329">
  <ele>493.65</ele>
  <time>2026-09-01T19:59:01Z</time>
  <course>116.45</course>
  <speed>23.97</speed>
  <fix>3d</fix>
</trkpt>
<trkpt lat="-27.2717814" lon="151.2908746">
  <ele>493.36</ele>
  <time>2026-09-01T19:59:01Z</time>
  <course>120.63</course>
  <speed>24.2967178853441</speed>
  <fix>3d</fix>
</trkpt>
<trkpt lat="-27.2717598" lon="151.2908329">
  <ele>493.65</ele>
  <time>2026-09-01T19:59:01Z</time>
  <course>116.45</course>
  <speed>23.97</speed>
  <fix>3d</fix>
</trkpt>
<trkpt lat="-27.2717935" lon="151.2908951">
  <ele>493.26</ele>
  <time>2026-09-01T19:59:01Z</time>
  <course>123.55</course>
  <speed>24.449458071703756</speed>
  <fix>3d</fix>
</trkpt>
<trkpt lat="-27.271781" lon="151.2908754">
  <ele>493.46</ele>
  <time>2026-09-01T19:59:01Z</time>
  <course>122.22</course>
  <speed>24.3</speed>
  <fix>3d</fix>
</trkpt>
<trkpt lat="-27.2718066" lon="151.290915">
  <ele>493.16</ele>
  <time>2026-09-01T19:59:01Z</time>
  <course>126.5</course>
  <speed>24.612326180188656</speed>
  <fix>3d</fix>
</trkpt>
<trkpt lat="-27.271781" lon="151.2908754">
  <ele>493.46</ele>
  <time>2026-09-01T19:59:01Z</time>
  <course>122.22</course>
  <speed>24.3</speed>
  <fix>3d</fix>
</trkpt>
<trkpt lat="-27.2718207" lon="151.2909342">
  <ele>493.05</ele>
  <time>2026-09-01T19:59:01Z</time>
  <course>129.43</course>
  <speed>24.763561940884028</speed>
  <fix>3d</fix>
</trkpt>
<trkpt lat="-27.2718063" lon="151.2909158">
  <ele>493.25</ele>
  <time>2026-09-01T19:59:01Z</time>
  <course>128.03</course>
  <speed>24.62</speed>
  <fix>3d</fix>
</trkpt>
<trkpt lat="-27.2718357" lon="151.2909527">
  <ele>492.94</ele>
  <time>2026-09-01T19:59:01Z</time>
  <course>132.29</course>
  <speed>24.91510585969885</speed>
  <fix>3d</fix>
</trkpt>
<trkpt lat="-27.2718063" lon="151.2909158">
  <ele>493.25</ele>
  <time>2026-09-01T19:59:01Z</time>
  <course>128.03</course>
  <speed>24.62</speed>
  <fix>3d</fix>
</trkpt>
<trkpt lat="-27.2718516" lon="151.2909705">
  <ele>492.84</ele>
  <time>2026-09-01T19:59:01Z</time>
  <course>135.11</course>
  <speed>25.059616916465426</speed>
  <fix>3d</fix>
</trkpt>
<trkpt lat="-27.2718355" lon="151.2909536">
  <ele>493.04</ele>
  <time>2026-09-01T19:59:01Z</time>
  <course>133.86</course>
  <speed>24.92</speed>
  <fix>3d</fix>
</trkpt>
<trkpt lat="-27.2718684" lon="151.2909874">
  <ele>492.73</ele>
  <time>2026-09-01T19:59:01Z</time>
  <course>137.96</course>
  <speed>25.203491821571074</speed>
  <fix>3d</fix>
</trkpt>
<trkpt lat="-27.2718355" lon="151.2909536">
  <ele>493.04</ele>
  <time>2026-09-01T19:59:01Z</time>
  <course>133.86</course>
  <speed>24.92</speed>
  <fix>3d</fix>
</trkpt>
<trkpt lat="-27.271886" lon="151.2910034">
  <ele>492.62</ele>
  <time>2026-09-01T19:59:01Z</time>
  <course>140.74</course>
  <speed>25.347025466511845</speed>
  <fix>3d</fix>
</trkpt>
<trkpt lat="-27.2718683" lon="151.2909882">
  <ele>492.83</ele>
  <time>2026-09-01T19:59:01Z</time>
  <course>139.62</course>
  <speed>25.21</speed>
  <fix>3d</fix>
</trkpt>
<trkpt lat="-27.2719044" lon="151.2910186">
  <ele>492.52</ele>
  <time>2026-09-01T19:59:01Z</time>
  <course>143.47</course>
  <speed>25.477868827670807</speed>
  <fix>3d</fix>
</trkpt>
<trkpt lat="-27.2718683" lon="151.2909882">
  <ele>492.83</ele>
  <time>2026-09-01T19:59:01Z</time>
  <course>139.62</course>
  <speed>25.21</speed>
  <fix>3d</fix>
</trkpt>
<trkpt lat="-27.2719235" lon="151.2910328">
  <ele>492.41</ele>
  <time>2026-09-01T19:59:01Z</time>
  <course>146.11</course>
  <speed>25.604347287130754</speed>
  <fix>3d</fix>
</trkpt>
<trkpt lat="-27.2719043" lon="151.2910195">
  <ele>492.62</ele>
  <time>2026-09-01T19:59:01Z</time>
  <course>145.25</course>
  <speed>25.49</speed>
  <fix>3d</fix>
</trkpt>
<trkpt lat="-27.2719433" lon="151.291046">
  <ele>492.31</ele>
  <time>2026-09-01T19:59:01Z</time>
  <course>148.75</course>
  <speed>25.723592284127037</speed>
  <fix>3d</fix>
</trkpt>
<trkpt lat="-27.2719043" lon="151.2910195">
  <ele>492.62</ele>
  <time>2026-09-01T19:59:01Z</time>
  <course>145.25</course>
  <speed>25.49</speed>
  <fix>3d</fix>
</trkpt>
<trkpt lat="-27.2719635" lon="151.2910581">
  <ele>492.21</ele>
  <time>2026-09-01T19:59:01Z</time>
  <course>151.31</course>
  <speed>25.844477166311567</speed>
  <fix>3d</fix>
</trkpt>
<trkpt lat="-27.2719434" lon="151.2910469">
  <ele>492.41</ele>
  <time>2026-09-01T19:59:01Z</time>
  <course>150.67</course>
  <speed>25.75</speed>
  <fix>3d</fix>
</trkpt>
<trkpt lat="-27.2719845" lon="151.2910694">
  <ele>492.11</ele>
  <time>2026-09-01T19:59:01Z</time>
  <course>153.82</course>
  <speed>25.96344545702669</speed>
  <fix>3d</fix>
</trkpt>
<trkpt lat="-27.2719434" lon="151.2910469">
  <ele>492.41</ele>
  <time>2026-09-01T19:59:01Z</time>
  <course>150.67</course>
  <speed>25.75</speed>
  <fix>3d</fix>
</trkpt>
<trkpt lat="-27.272006" lon="151.2910796">
  <ele>492.0</ele>
  <time>2026-09-01T19:59:01Z</time>
  <course>156.22</course>
  <speed>26.0737204863441</speed>
  <fix>3d</fix>
</trkpt>
<trkpt lat="-27.2719849" lon="151.2910704">
  <ele>492.2</ele>
  <time>2026-09-01T19:59:01Z</time>
  <course>155.85</course>
  <speed>25.98</speed>
  <fix>3d</fix>
</trkpt>
<trkpt lat="-27.2720279" lon="151.2910889">
  <ele>491.9</ele>
  <time>2026-09-01T19:59:01Z</time>
  <course>158.48</course>
  <speed>26.179400298708142</speed>
  <fix>3d</fix>
</trkpt>
<trkpt lat="-27.2719849" lon="151.2910704">
  <ele>492.2</ele>
  <time>2026-09-01T19:59:01Z</time>
  <course>155.85</course>
  <speed>25.98</speed>
  <fix>3d</fix>
</trkpt>
<trkpt lat="-27.2720505" lon="151.2910972">
  <ele>491.8</ele>
  <time>2026-09-01T19:59:01Z</time>
  <course>160.7</course>
  <speed>26.276122240543792</speed>
  <fix>3d</fix>
</trkpt>
<trkpt lat="-27.2720285" lon="151.2910898">
  <ele>492.0</ele>
  <time>2026-09-01T19:59:01Z</time>
  <course>160.74</course>
  <speed>26.2</speed>
  <fix>3d</fix>
</trkpt>
<trkpt lat="-27.2720732" lon="151.2911045">
  <ele>491.69</ele>
  <time>2026-09-01T19:59:02Z</time>
  <course>162.83</course>
  <speed>26.336020959894455</speed>
  <fix>3d</fix>
</trkpt>
<trkpt lat="-27.2720285" lon="151.2910898">
  <ele>492.0</ele>
  <time>2026-09-01T19:59:02Z</time>
  <course>160.74</course>
  <speed>26.2</speed>
  <fix>3d</fix>
</trkpt>
<trkpt lat="-27.2720962" lon="151.2911108">
  <ele>491.59</ele>
  <time>2026-09-01T19:59:02Z</time>
  <course>164.86</course>
  <speed>26.3820033356074</speed>
  <fix>3d</fix>
</trkpt>
<trkpt lat="-27.2720738" lon="151.2911054">
  <ele>491.79</ele>
  <time>2026-09-01T19:59:02Z</time>
  <course>165.25</course>
  <speed>26.36</speed>
  <fix>3d</fix>
</trkpt>
<trkpt lat="-27.2721201" lon="151.2911164">
  <ele>491.48</ele>
  <time>2026-09-01T19:59:02Z</time>
  <course>166.83</course>
  <speed>26.38036390954454</speed>
  <fix>3d</fix>
</trkpt>
<trkpt lat="-27.2720738" lon="151.2911054">
  <ele>491.79</ele>
  <time>2026-09-01T19:59:02Z</time>
  <course>165.25</course>
  <speed>26.36</speed>
  <fix>3d</fix>
</trkpt>
<trkpt lat="-27.2721433" lon="151.2911209">
  <ele>491.37</ele>
  <time>2026-09-01T19:59:02Z</time>
  <course>168.61</course>
  <speed>26.357657331409406</speed>
  <fix>3d</fix>
</trkpt>
<trkpt lat="-27.27212" lon="151.2911171">
  <ele>491.58</ele>
  <time>2026-09-01T19:59:02Z</time>
  <course>169.35</course>
  <speed>26.41</speed>
  <fix>3d</fix>
</trkpt>
<trkpt lat="-27.2721667" lon="151.2911246">
  <ele>491.26</ele>
  <time>2026-09-01T19:59:02Z</time>
  <course>170.34</course>
  <speed>26.327916742499774</speed>
  <fix>3d</fix>
</trkpt>
<trkpt lat="-27.27212" lon="151.2911171">
  <ele>491.58</ele>
  <time>2026-09-01T19:59:02Z</time>
  <course>169.35</course>
  <speed>26.41</speed>
  <fix>3d</fix>
</trkpt>
<trkpt lat="-27.2721902" lon="151.2911274">
  <ele>491.15</ele>
  <time>2026-09-01T19:59:02Z</time>
  <course>171.91</course>
  <speed>26.297918168554713</speed>
  <fix>3d</fix>
</trkpt>
<trkpt lat="-27.2721669" lon="151.2911252">
  <ele>491.35</ele>
  <time>2026-09-01T19:59:02Z</time>
  <course>173.03</course>
  <speed>26.37</speed>
  <fix>3d</fix>
</trkpt>
<trkpt lat="-27.2722137" lon="151.2911295">
  <ele>491.03</ele>
  <time>2026-09-01T19:59:02Z</time>
  <course>173.76</course>
  <speed>26.279979071528956</speed>
  <fix>3d</fix>
</trkpt>
<trkpt lat="-27.2721669" lon="151.2911252">
  <ele>491.35</ele>
  <time>2026-09-01T19:59:02Z</time>
  <course>173.03</course>
  <speed>26.37</speed>
  <fix>3d</fix>
</trkpt>
<trkpt lat="-27.2722375" lon="151.2911308">
  <ele>490.91</ele>
  <time>2026-09-01T19:59:02Z</time>
  <course>175.55</course>
  <speed>26.24312862446092</speed>
  <fix>3d</fix>
</trkpt>
<trkpt lat="-27.272214" lon="151.29113">
  <ele>491.12</ele>
  <time>2026-09-01T19:59:02Z</time>
  <course>176.45</course>
  <speed>26.31</speed>
  <fix>3d</fix>
</trkpt>
<trkpt lat="-27.2722605" lon="151.2911314">
  <ele>490.81</ele>
  <time>2026-09-01T19:59:02Z</time>
  <course>176.94</course>
  <speed>26.220488172419675</speed>
  <fix>3d</fix>
</trkpt>
<trkpt lat="-27.272214" lon="151.29113">
  <ele>491.12</ele>
  <time>2026-09-01T19:59:02Z</time>
  <course>176.45</course>
  <speed>26.31</speed>
  <fix>3d</fix>
</trkpt>
<trkpt lat="-27.2722841" lon="151.2911313">
  <ele>490.7</ele>
  <time>2026-09-01T19:59:02Z</time>
  <course>178.07</course>
  <speed>26.18290472808546</speed>
  <fix>3d</fix>
</trkpt>
<trkpt lat="-27.2722612" lon="151.2911319">
  <ele>490.89</ele>
  <time>2026-09-01T19:59:02Z</time>
  <course>179.52</course>
  <speed>26.25</speed>
  <fix>3d</fix>
</trkpt>
<trkpt lat="-27.2723076" lon="151.2911307">
  <ele>490.59</ele>
  <time>2026-09-01T19:59:02Z</time>
  <course>179.08</course>
  <speed>26.153493074539774</speed>
  <fix>3d</fix>
</trkpt>
<trkpt lat="-27.2722612" lon="151.2911319">
  <ele>490.89</ele>
  <time>2026-09-01T19:59:02Z</time>
  <course>179.52</course>
  <speed>26.25</speed>
  <fix>3d</fix>
</trkpt>
<trkpt lat="-27.272331" lon="151.2911297">
  <ele>490.46</ele>
  <time>2026-09-01T19:59:02Z</time>
  <course>180.13</course>
  <speed>26.119450606779615</speed>
  <fix>3d</fix>
</trkpt>
<trkpt lat="-27.2723083" lon="151.2911313">
  <ele>490.66</ele>
  <time>2026-09-01T19:59:02Z</time>
  <course>181.84</course>
  <speed>26.19</speed>
  <fix>3d</fix>
</trkpt>
<trkpt lat="-27.2723545" lon="151.2911283">
  <ele>490.31</ele>
  <time>2026-09-01T19:59:02Z</time>
  <course>181.07</course>
  <speed>26.100323752781307</speed>
  <fix>3d</fix>
</trkpt>
<trkpt lat="-27.2723083" lon="151.2911313">
  <ele>490.66</ele>
  <time>2026-09-01T19:59:02Z</time>
  <course>181.84</course>
  <speed>26.19</speed>
  <fix>3d</fix>
</trkpt>
<trkpt lat="-27.2723778" lon="151.2911265">
  <ele>490.15</ele>
  <time>2026-09-01T19:59:02Z</time>
  <course>181.98</course>
  <speed>26.07452588255441</speed>
  <fix>3d</fix>
</trkpt>
<trkpt lat="-27.2723552" lon="151.2911287">
  <ele>490.39</ele>
  <time>2026-09-01T19:59:02Z</time>
  <course>183.6</course>
  <speed>26.14</speed>
  <fix>3d</fix>
</trkpt>
<trkpt lat="-27.2724012" lon="151.2911245">
  <ele>489.98</ele>
  <time>2026-09-01T19:59:02Z</time>
  <course>182.83</course>
  <speed>26.07164935327261</speed>
  <fix>3d</fix>
</trkpt>
<trkpt lat="-27.2723552" lon="151.2911287">
  <ele>490.39</ele>
  <time>2026-09-01T19:59:02Z</time>
  <course>183.6</course>
  <speed>26.14</speed>
  <fix>3d</fix>
</trkpt>
<trkpt lat="-27.2724246" lon="151.291122">
  <ele>489.79</ele>
  <time>2026-09-01T19:59:02Z</time>
  <course>183.59</course>
  <speed>26.061024538571004</speed>
  <fix>3d</fix>
</trkpt>
<trkpt lat="-27.272402" lon="151.2911247">
  <ele>490.06</ele>
  <time>2026-09-01T19:59:02Z</time>
  <course>185.12</course>
  <speed>26.11</speed>
  <fix>3d</fix>
</trkpt>
<trkpt lat="-27.2724477" lon="151.2911193">
  <ele>489.58</ele>
  <time>2026-09-01T19:59:02Z</time>
  <course>184.33</course>
  <speed>26.061849512266008</speed>
  <fix>3d</fix>
</trkpt>
<trkpt lat="-27.272402" lon="151.2911247">
  <ele>490.06</ele>
  <time>2026-09-01T19:59:02Z</time>
  <course>185.12</course>
  <speed>26.11</speed>
  <fix>3d</fix>
</trkpt>
<trkpt lat="-27.272471" lon="151.2911162">
  <ele>489.37</ele>
  <time>2026-09-01T19:59:02Z</time>
  <course>185.06</course>
  <speed>26.07463901955308</speed>
  <fix>3d</fix>
</trkpt>
<trkpt lat="-27.2724486" lon="151.2911194">
  <ele>489.67</ele>
  <time>2026-09-01T19:59:02Z</time>
  <course>186.48</course>
  <speed>26.1</speed>
  <fix>3d</fix>
</trkpt>
<trkpt lat="-27.2724943" lon="151.2911129">
  <ele>489.14</ele>
  <time>2026-09-01T19:59:02Z</time>
  <course>185.83</course>
  <speed>26.1003544037241</speed>
  <fix>3d</fix>
</trkpt>
<trkpt lat="-27.2724486" lon="151.2911194">
  <ele>489.67</ele>
  <time>2026-09-01T19:59:02Z</time>
  <course>186.48</course>
  <speed>26.1</speed>
  <fix>3d</fix>
</trkpt>
<trkpt lat="-27.2725176" lon="151.2911093">
  <ele>488.91</ele>
  <time>2026-09-01T19:59:02Z</time>
  <course>186.54</course>
  <speed>26.124771769338004</speed>
  <fix>3d</fix>
</trkpt>
<trkpt lat="-27.2724952" lon="151.2911128">
  <ele>489.24</ele>
  <time>2026-09-01T19:59:02Z</time>
  <course>187.7</course>
  <speed>26.12</speed>
  <fix>3d</fix>
</trkpt>
<trkpt lat="-27.2725411" lon="151.2911053">
  <ele>488.67</ele>
  <time>2026-09-01T19:59:02Z</time>
  <course>187.19</course>
  <speed>26.161444914224443</speed>
  <fix>3d</fix>
</trkpt>
<trkpt lat="-27.2724952" lon="151.2911128">
  <ele>489.24</ele>
  <time>2026-09-01T19:59:02Z</time>
  <course>187.7</course>
  <speed>26.12</speed>
  <fix>3d</fix>
</trkpt>
<trkpt lat="-27.2725644" lon="151.2911012">
  <ele>488.43</ele>
  <time>2026-09-01T19:59:02Z</time>
  <course>187.89</course>
  <speed>26.198847302887202</speed>
  <fix>3d</fix>
</trkpt>
<trkpt lat="-27.2725418" lon="151.2911052">
  <ele>488.77</ele>
  <time>2026-09-01T19:59:02Z</time>
  <course>188.8</course>
  <speed>26.18</speed>
  <fix>3d</fix>
</trkpt>
<trkpt lat="-27.2725877" lon="151.2910968">
  <ele>488.19</ele>
  <time>2026-09-01T19:59:02Z</time>
  <course>188.51</course>
  <speed>26.23670139327732</speed>
  <fix>3d</fix>
</trkpt>
<trkpt lat="-27.2725418" lon="151.2911052">
  <ele>488.77</ele>
  <time>2026-09-01T19:59:02Z</time>
  <course>188.8</course>
  <speed>26.18</speed>
  <fix>3d</fix>
</trkpt>
<trkpt lat="-27.2726117" lon="151.2910921">
  <ele>487.94</ele>
  <time>2026-09-01T19:59:02Z</time>
  <course>189.03</course>
  <speed>26.28458483598324</speed>
  <fix>3d</fix>
</trkpt>
<trkpt lat="-27.2725883" lon="151.2910966">
  <ele>488.3</ele>
  <time>2026-09-01T19:59:02Z</time>
  <course>189.8</course>
  <speed>26.25</speed>
  <fix>3d</fix>
</trkpt>
<trkpt lat="-27.2726348" lon="151.2910873">
  <ele>487.7</ele>
  <time>2026-09-01T19:59:02Z</time>
  <course>189.5</course>
  <speed>26.340360665716027</speed>
  <fix>3d</fix>
</trkpt>
<trkpt lat="-27.2725883" lon="151.2910966">
  <ele>488.3</ele>
  <time>2026-09-01T19:59:02Z</time>
  <course>189.8</course>
  <speed>26.25</speed>
  <fix>3d</fix>
</trkpt>
<trkpt lat="-27.2726581" lon="151.2910823">
  <ele>487.47</ele>
  <time>2026-09-01T19:59:02Z</time>
  <course>189.97</course>
  <speed>26.405453982084836</speed>
  <fix>3d</fix>
</trkpt>
<trkpt lat="-27.2726348" lon="151.2910871">
  <ele>487.82</ele>
  <time>2026-09-01T19:59:02Z</time>
  <course>190.69</course>
  <speed>26.35</speed>
  <fix>3d</fix>
</trkpt>
<trkpt lat="-27.2726815" lon="151.291077">
  <ele>487.23</ele>
  <time>2026-09-01T19:59:02Z</time>
  <course>190.38</course>
  <speed>26.46000755857791</speed>
  <fix>3d</fix>
</trkpt>
<trkpt lat="-27.2726348" lon="151.2910871">
  <ele>487.82</ele>
  <time>2026-09-01T19:59:02Z</time>
  <course>190.69</course>
  <speed>26.35</speed>
  <fix>3d</fix>
</trkpt>
<trkpt lat="-27.2727048" lon="151.2910716">
  <ele>487.01</ele>
  <time>2026-09-01T19:59:02Z</time>
  <course>190.78</course>
  <speed>26.5214121041848</speed>
  <fix>3d</fix>
</trkpt>
<trkpt lat="-27.2726813" lon="151.2910769">
  <ele>487.36</ele>
  <time>2026-09-01T19:59:02Z</time>
  <course>191.45</course>
  <speed>26.46</speed>
  <fix>3d</fix>
</trkpt>
<trkpt lat="-27.2727284" lon="151.2910661">
  <ele>486.79</ele>
  <time>2026-09-01T19:59:02Z</time>
  <course>191.15</course>
  <speed>26.581589493482138</speed>
  <fix>3d</fix>
</trkpt>
<trkpt lat="-27.2726813" lon="151.2910769">
  <ele>487.36</ele>
  <time>2026-09-01T19:59:02Z</time>
  <course>191.45</course>
  <speed>26.46</speed>
  <fix>3d</fix>
</trkpt>
<trkpt lat="-27.2727518" lon="151.2910604">
  <ele>486.57</ele>
  <time>2026-09-01T19:59:02Z</time>
  <course>191.48</course>
  <speed>26.638252570316993</speed>
  <fix>3d</fix>
</trkpt>
<trkpt lat="-27.272728" lon="151.2910659">
  <ele>486.92</ele>
  <time>2026-09-01T19:59:02Z</time>
  <course>192.08</course>
  <speed>26.57</speed>
  <fix>3d</fix>
</trkpt>
<trkpt lat="-27.2727752" lon="151.2910545">
  <ele>486.37</ele>
  <time>2026-09-01T19:59:02Z</time>
  <course>191.87</course>
  <speed>26.695462161198858</speed>
  <fix>3d</fix>
</trkpt>
<trkpt lat="-27.272728" lon="151.2910659">
  <ele>486.92</ele>
  <time>2026-09-01T19:59:02Z</time>
  <course>192.08</course>
  <speed>26.57</speed>
  <fix>3d</fix>
</trkpt>
<trkpt lat="-27.2727986" lon="151.2910486">
  <ele>486.17</ele>
  <time>2026-09-01T19:59:02Z</time>
  <course>192.17</course>
  <speed>26.758550035455954</speed>
  <fix>3d</fix>
</trkpt>
<trkpt lat="-27.2727747" lon="151.2910544">
  <ele>486.51</ele>
  <time>2026-09-01T19:59:02Z</time>
  <course>192.6</course>
  <speed>26.69</speed>
  <fix>3d</fix>
</trkpt>
<trkpt lat="-27.2728221" lon="151.2910425">
  <ele>485.98</ele>
  <time>2026-09-01T19:59:02Z</time>
  <course>192.33</course>
  <speed>26.810014919801894</speed>
  <fix>3d</fix>
</trkpt>
<trkpt lat="-27.2727747" lon="151.2910544">
  <ele>486.51</ele>
  <time>2026-09-01T19:59:02Z</time>
  <course>192.6</course>
  <speed>26.69</speed>
  <fix>3d</fix>
</trkpt>
<trkpt lat="-27.2728456" lon="151.2910364">
  <ele>485.8</ele>
  <time>2026-09-01T19:59:02Z</time>
  <course>192.58</course>
  <speed>26.869257526027774</speed>
  <fix>3d</fix>
</trkpt>
<trkpt lat="-27.2728215" lon="151.2910425">
  <ele>486.13</ele>
  <time>2026-09-01T19:59:02Z</time>
  <course>193.0</course>
  <speed>26.8</speed>
  <fix>3d</fix>
</trkpt>
<trkpt lat="-27.2728691" lon="151.2910302">
  <ele>485.63</ele>
  <time>2026-09-01T19:59:02Z</time>
  <course>192.82</course>
  <speed>26.916702992751542</speed>
  <fix>3d</fix>
</trkpt>
<trkpt lat="-27.2728215" lon="151.2910425">
  <ele>486.13</ele>
  <time>2026-09-01T19:59:02Z</time>
  <course>193.0</course>
  <speed>26.8</speed>
  <fix>3d</fix>
</trkpt>
<trkpt lat="-27.2728927" lon="151.2910239">
  <ele>485.46</ele>
  <time>2026-09-01T19:59:02Z</time>
  <course>192.98</course>
  <speed>26.962019583109868</speed>
  <fix>3d</fix>
</trkpt>
<trkpt lat="-27.2728685" lon="151.2910301">
  <ele>485.78</ele>
  <time>2026-09-01T19:59:02Z</time>
  <course>193.31</course>
  <speed>26.9</speed>
  <fix>3d</fix>
</trkpt>
<trkpt lat="-27.2729155" lon="151.2910177">
  <ele>485.31</ele>
  <time>2026-09-01T19:59:02Z</time>
  <course>193.19</course>
  <speed>27.00514025144102</speed>
  <fix>3d</fix>
</trkpt>
<trkpt lat="-27.2728685" lon="151.2910301">
  <ele>485.78</ele>
  <time>2026-09-01T19:59:02Z</time>
  <course>193.31</course>
  <speed>26.9</speed>
  <fix>3d</fix>
</trkpt>
<trkpt lat="-27.2729391" lon="151.2910113">
  <ele>485.16</ele>
  <time>2026-09-01T19:59:02Z</time>
  <course>193.37</course>
  <speed>27.048358545390514</speed>
  <fix>3d</fix>
</trkpt>
<trkpt lat="-27.2729156" lon="151.2910173">
  <ele>485.45</ele>
  <time>2026-09-01T19:59:02Z</time>
  <course>193.56</course>
  <speed>26.99</speed>
  <fix>3d</fix>
</trkpt>
<trkpt lat="-27.2729627" lon="151.2910048">
  <ele>485.02</ele>
  <time>2026-09-01T19:59:02Z</time>
  <course>193.48</course>
  <speed>27.079590100295096</speed>
  <fix>3d</fix>
</trkpt>
<trkpt lat="-27.2729156" lon="151.2910173">
  <ele>485.45</ele>
  <time>2026-09-01T19:59:02Z</time>
  <course>193.56</course>
  <speed>26.99</speed>
  <fix>3d</fix>
</trkpt>
<trkpt lat="-27.2729864" lon="151.2909983">
  <ele>484.88</ele>
  <time>2026-09-01T19:59:02Z</time>
  <course>193.59</course>
  <speed>27.12060471302216</speed>
  <fix>3d</fix>
</trkpt>
<trkpt lat="-27.2729629" lon="151.2910044">
  <ele>485.15</ele>
  <time>2026-09-01T19:59:02Z</time>
  <course>193.74</course>
  <speed>27.07</speed>
  <fix>3d</fix>
</trkpt>
<trkpt lat="-27.2730101" lon="151.2909917">
  <ele>484.75</ele>
  <time>2026-09-01T19:59:02Z</time>
  <course>193.67</course>
  <speed>27.149578265601107</speed>
  <fix>3d</fix>
</trkpt>
<trkpt lat="-27.2729629" lon="151.2910044">
  <ele>485.15</ele>
  <time>2026-09-01T19:59:02Z</time>
  <course>193.74</course>
  <speed>27.07</speed>
  <fix>3d</fix>
</trkpt>
<trkpt lat="-27.273034" lon="151.290985">
  <ele>484.62</ele>
  <time>2026-09-01T19:59:02Z</time>
  <course>193.73</course>
  <speed>27.176189946348256</speed>
  <fix>3d</fix>
</trkpt>
<trkpt lat="-27.2730102" lon="151.2909914">
  <ele>484.89</ele>
  <time>2026-09-01T19:59:02Z</time>
  <course>193.87</course>
  <speed>27.13</speed>
  <fix>3d</fix>
</trkpt>
<trkpt lat="-27.2730576" lon="151.2909784">
  <ele>484.51</ele>
  <time>2026-09-01T19:59:02Z</time>
  <course>193.78</course>
  <speed>27.190707971658256</speed>
  <fix>3d</fix>
</trkpt>
<trkpt lat="-27.2730102" lon="151.2909914">
  <ele>484.89</ele>
  <time>2026-09-01T19:59:02Z</time>
  <course>193.87</course>
  <speed>27.13</speed>
  <fix>3d</fix>
</trkpt>
<trkpt lat="-27.2730813" lon="151.2909717">
  <ele>484.4</ele>
  <time>2026-09-01T19:59:02Z</time>
  <course>193.83</course>
  <speed>27.202823382877003</speed>
  <fix>3d</fix>
</trkpt>
<trkpt lat="-27.2730576" lon="151.2909781">
  <ele>484.64</ele>
  <time>2026-09-01T19:59:02Z</time>
  <course>193.95</course>
  <speed>27.18</speed>
  <fix>3d</fix>
</trkpt>
<trkpt lat="-27.2731056" lon="151.2909649">
  <ele>484.29</ele>
  <time>2026-09-01T19:59:02Z</time>
  <course>193.88</course>
  <speed>27.202823382877003</speed>
  <fix>3d</fix>
</trkpt>
<trkpt lat="-27.2730576" lon="151.2909781">
  <ele>484.64</ele>
  <time>2026-09-01T19:59:02Z</time>
  <course>193.95</course>
  <speed>27.18</speed>
  <fix>3d</fix>
</trkpt>
<trkpt lat="-27.2731291" lon="151.2909583">
  <ele>484.19</ele>
  <time>2026-09-01T19:59:02Z</time>
  <course>193.96</course>
  <speed>27.212528364707314</speed>
  <fix>3d</fix>
</trkpt>
<trkpt lat="-27.273105" lon="151.2909649">
  <ele>484.42</ele>
  <time>2026-09-01T19:59:02Z</time>
  <course>193.98</course>
  <speed>27.2</speed>
  <fix>3d</fix>
</trkpt>
<trkpt lat="-27.2731527" lon="151.2909517">
  <ele>484.09</ele>
  <time>2026-09-01T19:59:02Z</time>
  <course>193.98</course>
  <speed>27.205236628266995</speed>
  <fix>3d</fix>
</trkpt>
<trkpt lat="-27.273105" lon="151.2909649">
  <ele>484.42</ele>
  <time>2026-09-01T19:59:02Z</time>
  <course>193.98</course>
  <speed>27.2</speed>
  <fix>3d</fix>
</trkpt>
<trkpt lat="-27.2731763" lon="151.2909451">
  <ele>483.99</ele>
  <time>2026-09-01T19:59:02Z</time>
  <course>193.98</course>
  <speed>27.202823382877003</speed>
  <fix>3d</fix>
</trkpt>
<trkpt lat="-27.2731524" lon="151.2909516">
  <ele>484.21</ele>
  <time>2026-09-01T19:59:02Z</time>
  <course>193.97</course>
  <speed>27.22</speed>
  <fix>3d</fix>
</trkpt>
<trkpt lat="-27.2731999" lon="151.2909385">
  <ele>483.9</ele>
  <time>2026-09-01T19:59:02Z</time>
  <course>194.0</course>
  <speed>27.193118614826066</speed>
  <fix>3d</fix>
</trkpt>
<trkpt lat="-27.2731524" lon="151.2909516">
  <ele>484.21</ele>
  <time>2026-09-01T19:59:02Z</time>
  <course>193.97</course>
  <speed>27.22</speed>
  <fix>3d</fix>
</trkpt>
<trkpt lat="-27.2732237" lon="151.2909318">
  <ele>483.8</ele>
  <time>2026-09-01T19:59:02Z</time>
  <course>194.0</course>
  <speed>27.193118614826066</speed>
  <fix>3d</fix>
</trkpt>
<trkpt lat="-27.2731998" lon="151.2909383">
  <ele>484.01</ele>
  <time>2026-09-01T19:59:02Z</time>
  <course>193.96</course>
  <speed>27.22</speed>
  <fix>3d</fix>
</trkpt>
<trkpt lat="-27.2732473" lon="151.2909252">
  <ele>483.71</ele>
  <time>2026-09-01T19:59:02Z</time>
  <course>193.98</course>
  <speed>27.1785945184809</speed>
  <fix>3d</fix>
</trkpt>
<trkpt lat="-27.2731998" lon="151.2909383">
  <ele>484.01</ele>
  <time>2026-09-01T19:59:02Z</time>
  <course>193.96</course>
  <speed>27.22</speed>
  <fix>3d</fix>
</trkpt>
<trkpt lat="-27.2732709" lon="151.2909186">
  <ele>483.61</ele>
  <time>2026-09-01T19:59:02Z</time>
  <course>193.95</course>
  <speed>27.16648302596418</speed>
  <fix>3d</fix>
</trkpt>
<trkpt lat="-27.2732473" lon="151.290925">
  <ele>483.82</ele>
  <time>2026-09-01T19:59:02Z</time>
  <course>193.93</course>
  <speed>27.21</speed>
  <fix>3d</fix>
</trkpt>
<trkpt lat="-27.2732945" lon="151.290912">
  <ele>483.52</ele>
  <time>2026-09-01T19:59:02Z</time>
  <course>193.98</course>
  <speed>27.15437349673161</speed>
  <fix>3d</fix>
</trkpt>
<trkpt lat="-27.2732473" lon="151.290925">
  <ele>483.82</ele>
  <time>2026-09-01T19:59:02Z</time>
  <course>193.93</course>
  <speed>27.21</speed>
  <fix>3d</fix>
</trkpt>
<trkpt lat="-27.2733181" lon="151.2909054">
  <ele>483.42</ele>
  <time>2026-09-01T19:59:02Z</time>
  <course>193.95</course>
  <speed>27.130160338634195</speed>
  <fix>3d</fix>
</trkpt>
<trkpt lat="-27.2732947" lon="151.2909119">
  <ele>483.63</ele>
  <time>2026-09-01T19:59:02Z</time>
  <course>193.88</course>
  <speed>27.19</speed>
  <fix>3d</fix>
</trkpt>
<trkpt lat="-27.2733417" lon="151.2908988">
  <ele>483.33</ele>
  <time>2026-09-01T19:59:02Z</time>
  <course>193.9</course>
  <speed>27.115665214041865</speed>
  <fix>3d</fix>
</trkpt>
<trkpt lat="-27.2732947" lon="151.2909119">
  <ele>483.63</ele>
  <time>2026-09-01T19:59:02Z</time>
  <course>193.88</course>
  <speed>27.19</speed>
  <fix>3d</fix>
</trkpt>
<trkpt lat="-27.2733653" lon="151.2908923">
  <ele>483.23</ele>
  <time>2026-09-01T19:59:02Z</time>
  <course>193.91</course>
  <speed>27.10118078608384</speed>
  <fix>3d</fix>
</trkpt>
<trkpt lat="-27.2733421" lon="151.2908987">
  <ele>483.44</ele>
  <time>2026-09-01T19:59:02Z</time>
  <course>193.81</course>
  <speed>27.16</speed>
  <fix>3d</fix>
</trkpt>
<trkpt lat="-27.2733889" lon="151.2908858">
  <ele>483.13</ele>
  <time>2026-09-01T19:59:02Z</time>
  <course>193.84</course>
  <speed>27.079374069575536</speed>
  <fix>3d</fix>
</trkpt>
<trkpt lat="-27.2733421" lon="151.2908987">
  <ele>483.44</ele>
  <time>2026-09-01T19:59:02Z</time>
  <course>193.81</course>
  <speed>27.16</speed>
  <fix>3d</fix>
</trkpt>
<trkpt lat="-27.2734125" lon="151.2908793">
  <ele>483.03</ele>
  <time>2026-09-01T19:59:02Z</time>
  <course>193.76</course>
  <speed>27.052815010641684</speed>
  <fix>3d</fix>
</trkpt>
<trkpt lat="-27.2733894" lon="151.2908857">
  <ele>483.24</ele>
  <time>2026-09-01T19:59:02Z</time>
  <course>193.74</course>
  <speed>27.12</speed>
  <fix>3d</fix>
</trkpt>
<trkpt lat="-27.2734361" lon="151.2908728">
  <ele>482.93</ele>
  <time>2026-09-01T19:59:02Z</time>
  <course>193.76</course>
  <speed>27.03835978753149</speed>
  <fix>3d</fix>
</trkpt>
<trkpt lat="-27.2733894" lon="151.2908857">
  <ele>483.24</ele>
  <time>2026-09-01T19:59:02Z</time>
  <course>193.74</course>
  <speed>27.12</speed>
  <fix>3d</fix>
</trkpt>
<trkpt lat="-27.2734597" lon="151.2908664">
  <ele>482.82</ele>
  <time>2026-09-01T19:59:02Z</time>
  <course>193.74</course>
  <speed>27.014198118767105</speed>
  <fix>3d</fix>
</trkpt>
<trkpt lat="-27.2734367" lon="151.2908727">
  <ele>483.04</ele>
  <time>2026-09-01T19:59:02Z</time>
  <course>193.66</course>
  <speed>27.08</speed>
  <fix>3d</fix>
</trkpt>
<trkpt lat="-27.2734833" lon="151.29086">
  <ele>482.72</ele>
  <time>2026-09-01T19:59:02Z</time>
  <course>193.69</course>
  <speed>26.99740913495219</speed>
  <fix>3d</fix>
</trkpt>
<trkpt lat="-27.2734367" lon="151.2908727">
  <ele>483.04</ele>
  <time>2026-09-01T19:59:02Z</time>
  <course>193.66</course>
  <speed>27.08</speed>
  <fix>3d</fix>
</trkpt>
<trkpt lat="-27.2735068" lon="151.2908536">
  <ele>482.61</ele>
  <time>2026-09-01T19:59:02Z</time>
  <course>193.66</course>
  <speed>26.97092508609966</speed>
  <fix>3d</fix>
</trkpt>
<trkpt lat="-27.2734841" lon="151.2908598">
  <ele>482.83</ele>
  <time>2026-09-01T19:59:02Z</time>
  <course>193.57</course>
  <speed>27.04</speed>
  <fix>3d</fix>
</trkpt>
<trkpt lat="-27.2735304" lon="151.2908472">
  <ele>482.51</ele>
  <time>2026-09-01T19:59:02Z</time>
  <course>193.66</course>
  <speed>26.94679943889441</speed>
  <fix>3d</fix>
</trkpt>
<trkpt lat="-27.2734841" lon="151.2908598">
  <ele>482.83</ele>
  <time>2026-09-01T19:59:02Z</time>
  <course>193.57</course>
  <speed>27.04</speed>
  <fix>3d</fix>
</trkpt>
<trkpt lat="-27.2735533" lon="151.290841">
  <ele>482.4</ele>
  <time>2026-09-01T19:59:02Z</time>
  <course>193.59</course>
  <speed>26.915293050606007</speed>
  <fix>3d</fix>
</trkpt>
<trkpt lat="-27.2735313" lon="151.2908469">
  <ele>482.62</ele>
  <time>2026-09-01T19:59:02Z</time>
  <course>193.49</course>
  <speed>26.99</speed>
  <fix>3d</fix>
</trkpt>
<trkpt lat="-27.2735776" lon="151.2908344">
  <ele>482.28</ele>
  <time>2026-09-01T19:59:02Z</time>
  <course>193.5</course>
  <speed>26.888847130362432</speed>
  <fix>3d</fix>
</trkpt>
<trkpt lat="-27.2735313" lon="151.2908469">
  <ele>482.62</ele>
  <time>2026-09-01T19:59:02Z</time>
  <course>193.49</course>
  <speed>26.99</speed>
  <fix>3d</fix>
</trkpt>
<trkpt lat="-27.2736011" lon="151.2908281">
  <ele>482.17</ele>
  <time>2026-09-01T19:59:02Z</time>
  <course>193.48</course>
  <speed>26.864744554899456</speed>
  <fix>3d</fix>
</trkpt>
<trkpt lat="-27.2735785" lon="151.2908343">
  <ele>482.39</ele>
  <time>2026-09-01T19:59:02Z</time>
  <course>193.41</course>
  <speed>26.94</speed>
  <fix>3d</fix>
</trkpt>
<trkpt lat="-27.2736244" lon="151.2908219">
  <ele>482.05</ele>
  <time>2026-09-01T19:59:02Z</time>
  <course>193.48</course>
  <speed>26.83092245898378</speed>
  <fix>3d</fix>
</trkpt>
<trkpt lat="-27.2735785" lon="151.2908343">
  <ele>482.39</ele>
  <time>2026-09-01T19:59:02Z</time>
  <course>193.41</course>
  <speed>26.94</speed>
  <fix>3d</fix>
</trkpt>
<trkpt lat="-27.2736479" lon="151.2908156">
  <ele>481.93</ele>
  <time>2026-09-01T19:59:02Z</time>
  <course>193.5</course>
  <speed>26.80452387191386</speed>
  <fix>3d</fix>
</trkpt>
<trkpt lat="-27.2736255" lon="151.2908217">
  <ele>482.16</ele>
  <time>2026-09-01T19:59:02Z</time>
  <course>193.32</course>
  <speed>26.88</speed>
  <fix>3d</fix>
</trkpt>
<trkpt lat="-27.2736714" lon="151.2908094">
  <ele>481.81</ele>
  <time>2026-09-01T19:59:02Z</time>
  <course>193.46</course>
  <speed>26.780449958878584</speed>
  <fix>3d</fix>
</trkpt>
<trkpt lat="-27.2736255" lon="151.2908217">
  <ele>482.16</ele>
  <time>2026-09-01T19:59:02Z</time>
  <course>193.32</course>
  <speed>26.88</speed>
  <fix>3d</fix>
</trkpt>
<trkpt lat="-27.2736948" lon="151.2908031">
  <ele>481.68</ele>
  <time>2026-09-01T19:59:02Z</time>
  <course>193.39</course>
  <speed>26.746652126948526</speed>
  <fix>3d</fix>
</trkpt>
<trkpt lat="-27.2736724" lon="151.2908092">
  <ele>481.92</ele>
  <time>2026-09-01T19:59:02Z</time>
  <course>193.25</course>
  <speed>26.82</speed>
  <fix>3d</fix>
</trkpt>
<trkpt lat="-27.2737185" lon="151.2907969">
  <ele>481.55</ele>
  <time>2026-09-01T19:59:02Z</time>
  <course>193.36</course>
  <speed>26.720301270756657</speed>
  <fix>3d</fix>
</trkpt>
<trkpt lat="-27.2736724" lon="151.2908092">
  <ele>481.92</ele>
  <time>2026-09-01T19:59:02Z</time>
  <course>193.25</course>
  <speed>26.82</speed>
  <fix>3d</fix>
</trkpt>
<trkpt lat="-27.2737419" lon="151.2907907">
  <ele>481.42</ele>
  <time>2026-09-01T19:59:02Z</time>
  <course>193.36</course>
  <speed>26.696256291847366</speed>
  <fix>3d</fix>
</trkpt>
<trkpt lat="-27.2737193" lon="151.2907968">
  <ele>481.67</ele>
  <time>2026-09-01T19:59:02Z</time>
  <course>193.18</course>
  <speed>26.76</speed>
  <fix>3d</fix>
</trkpt>
<trkpt lat="-27.2737654" lon="151.2907845">
  <ele>481.29</ele>
  <time>2026-09-01T19:59:02Z</time>
  <course>193.32</course>
  <speed>26.66248300515164</speed>
  <fix>3d</fix>
</trkpt>
<trkpt lat="-27.2737193" lon="151.2907968">
  <ele>481.67</ele>
  <time>2026-09-01T19:59:02Z</time>
  <course>193.18</course>
  <speed>26.76</speed>
  <fix>3d</fix>
</trkpt>
<trkpt lat="-27.2737888" lon="151.2907784">
  <ele>481.15</ele>
  <time>2026-09-01T19:59:02Z</time>
  <course>193.28</course>
  <speed>26.638453408559588</speed>
  <fix>3d</fix>
</trkpt>
<trkpt lat="-27.273766" lon="151.2907846">
  <ele>481.41</ele>
  <time>2026-09-01T19:59:02Z</time>
  <course>193.11</course>
  <speed>26.7</speed>
  <fix>3d</fix>
</trkpt>
<trkpt lat="-27.2738122" lon="151.2907723">
  <ele>481.01</ele>
  <time>2026-09-01T19:59:02Z</time>
  <course>193.2</course>
  <speed>26.604693194998507</speed>
  <fix>3d</fix>
</trkpt>
<trkpt lat="-27.273766" lon="151.2907846">
  <ele>481.41</ele>
  <time>2026-09-01T19:59:02Z</time>
  <course>193.11</course>
  <speed>26.7</speed>
  <fix>3d</fix>
</trkpt>
<trkpt lat="-27.2738355" lon="151.2907662">
  <ele>480.87</ele>
  <time>2026-09-01T19:59:02Z</time>
  <course>193.17</course>
  <speed>26.580679073341976</speed>
  <fix>3d</fix>
</trkpt>
<trkpt lat="-27.2738127" lon="151.2907723">
  <ele>481.14</ele>
  <time>2026-09-01T19:59:02Z</time>
  <course>193.04</course>
  <speed>26.63</speed>
  <fix>3d</fix>
</trkpt>
<trkpt lat="-27.2738589" lon="151.2907601">
  <ele>480.72</ele>
  <time>2026-09-01T19:59:02Z</time>
  <course>193.11</course>
  <speed>26.556673360946398</speed>
  <fix>3d</fix>
</trkpt>
<trkpt lat="-27.2738127" lon="151.2907723">
  <ele>481.14</ele>
  <time>2026-09-01T19:59:02Z</time>
  <course>193.04</course>
  <speed>26.63</speed>
  <fix>3d</fix>
</trkpt>
<trkpt lat="-27.2738822" lon="151.2907541">
  <ele>480.58</ele>
  <time>2026-09-01T19:59:02Z</time>
  <course>193.09</course>
  <speed>26.53267608063687</speed>
  <fix>3d</fix>
</trkpt>
<trkpt lat="-27.2738592" lon="151.2907603">
  <ele>480.85</ele>
  <time>2026-09-01T19:59:02Z</time>
  <course>192.96</course>
  <speed>26.57</speed>
  <fix>3d</fix>
</trkpt>
<trkpt lat="-27.2739055" lon="151.290748">
  <ele>480.43</ele>
  <time>2026-09-01T19:59:02Z</time>
  <course>193.11</course>
  <speed>26.508687255313117</speed>
  <fix>3d</fix>
</trkpt>
<trkpt lat="-27.2738592" lon="151.2907603">
  <ele>480.85</ele>
  <time>2026-09-01T19:59:02Z</time>
  <course>192.96</course>
  <speed>26.57</speed>
  <fix>3d</fix>
</trkpt>
<trkpt lat="-27.2739288" lon="151.290742">
  <ele>480.28</ele>
  <time>2026-09-01T19:59:02Z</time>
  <course>193.09</course>
  <speed>26.474961756346314</speed>
  <fix>3d</fix>
</trkpt>
<trkpt lat="-27.2739057" lon="151.2907483">
  <ele>480.56</ele>
  <time>2026-09-01T19:59:02Z</time>
  <course>192.9</course>
  <speed>26.51</speed>
  <fix>3d</fix>
</trkpt>
<trkpt lat="-27.273952" lon="151.2907361">
  <ele>480.12</ele>
  <time>2026-09-01T19:59:02Z</time>
  <course>193.05</course>
  <speed>26.441242406513354</speed>
  <fix>3d</fix>
</trkpt>
<trkpt lat="-27.2739057" lon="151.2907483">
  <ele>480.56</ele>
  <time>2026-09-01T19:59:02Z</time>
  <course>192.9</course>
  <speed>26.51</speed>
  <fix>3d</fix>
</trkpt>
<trkpt lat="-27.2739752" lon="151.2907301">
  <ele>479.96</ele>
  <time>2026-09-01T19:59:02Z</time>
  <course>192.99</course>
  <speed>26.417276543958877</speed>
  <fix>3d</fix>
</trkpt>
<trkpt lat="-27.2739521" lon="151.2907363">
  <ele>480.25</ele>
  <time>2026-09-01T19:59:02Z</time>
  <course>192.84</course>
  <speed>26.45</speed>
  <fix>3d</fix>
</trkpt>
<trkpt lat="-27.2739984" lon="151.2907242">
  <ele>479.79</ele>
  <time>2026-09-01T19:59:02Z</time>
  <course>192.97</course>
  <speed>26.395548867185923</speed>
  <fix>3d</fix>
</trkpt>
<trkpt lat="-27.2739521" lon="151.2907363">
  <ele>480.25</ele>
  <time>2026-09-01T19:59:02Z</time>
  <course>192.84</course>
  <speed>26.45</speed>
  <fix>3d</fix>
</trkpt>
<trkpt lat="-27.2740216" lon="151.2907182">
  <ele>479.62</ele>
  <time>2026-09-01T19:59:02Z</time>
  <course>192.98</course>
  <speed>26.36184553478758</speed>
  <fix>3d</fix>
</trkpt>
<trkpt lat="-27.2739986" lon="151.2907245">
  <ele>479.93</ele>
  <time>2026-09-01T19:59:02Z</time>
  <course>192.79</course>
  <speed>26.38</speed>
  <fix>3d</fix>
</trkpt>
<trkpt lat="-27.2740447" lon="151.2907123">
  <ele>479.45</ele>
  <time>2026-09-01T19:59:02Z</time>
  <course>193.01</course>
  <speed>26.34012148795066</speed>
  <fix>3d</fix>
</trkpt>
<trkpt lat="-27.2739986" lon="151.2907245">
  <ele>479.93</ele>
  <time>2026-09-01T19:59:02Z</time>
  <course>192.79</course>
  <speed>26.38</speed>
  <fix>3d</fix>
</trkpt>
<trkpt lat="-27.2740678" lon="151.2907064">
  <ele>479.28</ele>
  <time>2026-09-01T19:59:02Z</time>
  <course>192.99</course>
  <speed>26.318398507508014</speed>
  <fix>3d</fix>
</trkpt>
<trkpt lat="-27.2740447" lon="151.2907126">
  <ele>479.59</ele>
  <time>2026-09-01T19:59:02Z</time>
  <course>192.76</course>
  <speed>26.33</speed>
  <fix>3d</fix>
</trkpt>
<trkpt lat="-27.2740909" lon="151.2907005">
  <ele>479.11</ele>
  <time>2026-09-01T19:59:02Z</time>
  <course>192.95</course>
  <speed>26.286926408387878</speed>
  <fix>3d</fix>
</trkpt>
<trkpt lat="-27.2740447" lon="151.2907126">
  <ele>479.59</ele>
  <time>2026-09-01T19:59:02Z</time>
  <course>192.76</course>
  <speed>26.33</speed>
  <fix>3d</fix>
</trkpt>
<trkpt lat="-27.274114" lon="151.2906947">
  <ele>478.93</ele>
  <time>2026-09-01T19:59:02Z</time>
  <course>192.94</course>
  <speed>26.265205120082346</speed>
  <fix>3d</fix>
</trkpt>
<trkpt lat="-27.2740907" lon="151.2907009">
  <ele>479.25</ele>
  <time>2026-09-01T19:59:02Z</time>
  <course>192.73</course>
  <speed>26.28</speed>
  <fix>3d</fix>
</trkpt>
<trkpt lat="-27.2741371" lon="151.2906888">
  <ele>478.75</ele>
  <time>2026-09-01T19:59:02Z</time>
  <course>192.92</course>
  <speed>26.243484905781852</speed>
  <fix>3d</fix>
</trkpt>
<trkpt lat="-27.2740907" lon="151.2907009">
  <ele>479.25</ele>
  <time>2026-09-01T19:59:02Z</time>
  <course>192.73</course>
  <speed>26.28</speed>
  <fix>3d</fix>
</trkpt>
<trkpt lat="-27.2741601" lon="151.2906829">
  <ele>478.57</ele>
  <time>2026-09-01T19:59:02Z</time>
  <course>192.95</course>
  <speed>26.209799694007582</speed>
  <fix>3d</fix>
</trkpt>
<trkpt lat="-27.2741368" lon="151.2906893">
  <ele>478.9</ele>
  <time>2026-09-01T19:59:02Z</time>
  <course>192.7</course>
  <speed>26.22</speed>
  <fix>3d</fix>
</trkpt>
<trkpt lat="-27.2741831" lon="151.2906771">
  <ele>478.38</ele>
  <time>2026-09-01T19:59:02Z</time>
  <course>192.97</course>
  <speed>26.188083167731083</speed>
  <fix>3d</fix>
</trkpt>
<trkpt lat="-27.2741368" lon="151.2906893">
  <ele>478.9</ele>
  <time>2026-09-01T19:59:02Z</time>
  <course>192.7</course>
  <speed>26.22</speed>
  <fix>3d</fix>
</trkpt>
<trkpt lat="-27.2742062" lon="151.2906713">
  <ele>478.19</ele>
  <time>2026-09-01T19:59:02Z</time>
  <course>192.95</course>
  <speed>26.15882642627532</speed>
  <fix>3d</fix>
</trkpt>
<trkpt lat="-27.2741827" lon="151.2906776">
  <ele>478.53</ele>
  <time>2026-09-01T19:59:02Z</time>
  <course>192.68</course>
  <speed>26.17</speed>
  <fix>3d</fix>
</trkpt>
<trkpt lat="-27.2742291" lon="151.2906655">
  <ele>478.0</ele>
  <time>2026-09-01T19:59:02Z</time>
  <course>192.88</course>
  <speed>26.137109633622458</speed>
  <fix>3d</fix>
</trkpt>
<trkpt lat="-27.2741827" lon="151.2906776">
  <ele>478.53</ele>
  <time>2026-09-01T19:59:02Z</time>
  <course>192.68</course>
  <speed>26.17</speed>
  <fix>3d</fix>
</trkpt>
<trkpt lat="-27.2742521" lon="151.2906597">
  <ele>477.81</ele>
  <time>2026-09-01T19:59:02Z</time>
  <course>192.83</course>
  <speed>26.115393927720103</speed>
  <fix>3d</fix>
</trkpt>
<trkpt lat="-27.2742285" lon="151.290666">
  <ele>478.16</ele>
  <time>2026-09-01T19:59:02Z</time>
  <course>192.66</course>
  <speed>26.12</speed>
  <fix>3d</fix>
</trkpt>
<trkpt lat="-27.274275" lon="151.2906539">
  <ele>477.62</ele>
  <time>2026-09-01T19:59:02Z</time>
  <course>192.81</course>
  <speed>26.091473703108456</speed>
  <fix>3d</fix>
</trkpt>
<trkpt lat="-27.2742285" lon="151.290666">
  <ele>478.16</ele>
  <time>2026-09-01T19:59:02Z</time>
  <course>192.66</course>
  <speed>26.12</speed>
  <fix>3d</fix>
</trkpt>
<trkpt lat="-27.2742979" lon="151.2906481">
  <ele>477.42</ele>
  <time>2026-09-01T19:59:02Z</time>
  <course>192.8</course>
  <speed>26.06976217766476</speed>
  <fix>3d</fix>
</trkpt>
<trkpt lat="-27.2742742" lon="151.2906544">
  <ele>477.78</ele>
  <time>2026-09-01T19:59:02Z</time>
  <course>192.63</course>
  <speed>26.07</speed>
  <fix>3d</fix>
</trkpt>
<trkpt lat="-27.2743207" lon="151.2906423">
  <ele>477.22</ele>
  <time>2026-09-01T19:59:02Z</time>
  <course>192.81</course>
  <speed>26.038296795297498</speed>
  <fix>3d</fix>
</trkpt>
<trkpt lat="-27.2742742" lon="151.2906544">
  <ele>477.78</ele>
  <time>2026-09-01T19:59:02Z</time>
  <course>192.63</course>
  <speed>26.07</speed>
  <fix>3d</fix>
</trkpt>
<trkpt lat="-27.2743436" lon="151.2906366">
  <ele>477.01</ele>
  <time>2026-09-01T19:59:02Z</time>
  <course>192.83</course>
  <speed>26.02634242455132</speed>
  <fix>3d</fix>
</trkpt>
<trkpt lat="-27.2743199" lon="151.290643">
  <ele>477.39</ele>
  <time>2026-09-01T19:59:02Z</time>
  <course>192.6</course>
  <speed>26.02</speed>
  <fix>3d</fix>
</trkpt>
<trkpt lat="-27.2743664" lon="151.2906308">
  <ele>476.81</ele>
  <time>2026-09-01T19:59:02Z</time>
  <course>192.84</course>
  <speed>26.00463420238785</speed>
  <fix>3d</fix>
</trkpt>
<trkpt lat="-27.2743199" lon="151.290643">
  <ele>477.39</ele>
  <time>2026-09-01T19:59:02Z</time>
  <course>192.6</course>
  <speed>26.02</speed>
  <fix>3d</fix>
</trkpt>
<trkpt lat="-27.2743893" lon="151.2906251">
  <ele>476.6</ele>
  <time>2026-09-01T19:59:02Z</time>
  <course>192.81</course>
  <speed>25.982927086839158</speed>
  <fix>3d</fix>
</trkpt>
<trkpt lat="-27.2743654" lon="151.2906315">
  <ele>476.97</ele>
  <time>2026-09-01T19:59:02Z</time>
  <course>192.58</course>
  <speed>25.98</speed>
  <fix>3d</fix>
</trkpt>
<trkpt lat="-27.2744119" lon="151.2906194">
  <ele>476.38</ele>
  <time>2026-09-01T19:59:02Z</time>
  <course>192.79</course>
  <speed>25.961221080681085</speed>
  <fix>3d</fix>
</trkpt>
<trkpt lat="-27.2743654" lon="151.2906315">
  <ele>476.97</ele>
  <time>2026-09-01T19:59:02Z</time>
  <course>192.58</course>
  <speed>25.98</speed>
  <fix>3d</fix>
</trkpt>
<trkpt lat="-27.2744346" lon="151.2906137">
  <ele>476.17</ele>
  <time>2026-09-01T19:59:02Z</time>
  <course>192.79</course>
  <speed>25.939516186698626</speed>
  <fix>3d</fix>
</trkpt>
<trkpt lat="-27.2744109" lon="151.29062">
  <ele>476.56</ele>
  <time>2026-09-01T19:59:02Z</time>
  <course>192.56</course>
  <speed>25.94</speed>
  <fix>3d</fix>
</trkpt>
<trkpt lat="-27.2744572" lon="151.2906081">
  <ele>475.96</ele>
  <time>2026-09-01T19:59:02Z</time>
  <course>192.82</course>
  <speed>25.917812407685958</speed>
  <fix>3d</fix>
</trkpt>
<trkpt lat="-27.2744109" lon="151.29062">
  <ele>476.56</ele>
  <time>2026-09-01T19:59:02Z</time>
  <course>192.56</course>
  <speed>25.94</speed>
  <fix>3d</fix>
</trkpt>
<trkpt lat="-27.2744798" lon="151.2906024">
  <ele>475.74</ele>
  <time>2026-09-01T19:59:02Z</time>
  <course>192.82</course>
  <speed>25.888539935654926</speed>
  <fix>3d</fix>
</trkpt>
<trkpt lat="-27.2744565" lon="151.2906087">
  <ele>476.14</ele>
  <time>2026-09-01T19:59:02Z</time>
  <course>192.54</course>
  <speed>25.91</speed>
  <fix>3d</fix>
</trkpt>
<trkpt lat="-27.2745023" lon="151.2905968">
  <ele>475.53</ele>
  <time>2026-09-01T19:59:02Z</time>
  <course>192.77</course>
  <speed>25.866835910099248</speed>
  <fix>3d</fix>
</trkpt>
<trkpt lat="-27.2744565" lon="151.2906087">
  <ele>476.14</ele>
  <time>2026-09-01T19:59:02Z</time>
  <course>192.54</course>
  <speed>25.91</speed>
  <fix>3d</fix>
</trkpt>
<trkpt lat="-27.2745249" lon="151.2905911">
  <ele>475.31</ele>
  <time>2026-09-01T19:59:02Z</time>
  <course>192.79</course>
  <speed>25.84513300410737</speed>
  <fix>3d</fix>
</trkpt>
<trkpt lat="-27.274502" lon="151.2905973">
  <ele>475.71</ele>
  <time>2026-09-01T19:59:02Z</time>
  <course>192.53</course>
  <speed>25.87</speed>
  <fix>3d</fix>
</trkpt>
<trkpt lat="-27.2745474" lon="151.2905855">
  <ele>475.09</ele>
  <time>2026-09-01T19:59:02Z</time>
  <course>192.8</course>
  <speed>25.823431220502048</speed>
  <fix>3d</fix>
</trkpt>
<trkpt lat="-27.274502" lon="151.2905973">
  <ele>475.71</ele>
  <time>2026-09-01T19:59:02Z</time>
  <course>192.53</course>
  <speed>25.87</speed>
  <fix>3d</fix>
</trkpt>
<trkpt lat="-27.27457" lon="151.2905798">
  <ele>474.86</ele>
  <time>2026-09-01T19:59:02Z</time>
  <course>192.8</course>
  <speed>25.801730562115402</speed>
  <fix>3d</fix>
</trkpt>
<trkpt lat="-27.2745473" lon="151.290586">
  <ele>475.28</ele>
  <time>2026-09-01T19:59:02Z</time>
  <course>192.51</course>
  <speed>25.84</speed>
  <fix>3d</fix>
</trkpt>
<trkpt lat="-27.2745925" lon="151.2905742">
  <ele>474.64</ele>
  <time>2026-09-01T19:59:02Z</time>
  <course>192.75</course>
  <speed>25.780031031788926</speed>
  <fix>3d</fix>
</trkpt>
<trkpt lat="-27.2745473" lon="151.290586">
  <ele>475.28</ele>
  <time>2026-09-01T19:59:02Z</time>
  <course>192.51</course>
  <speed>25.84</speed>
  <fix>3d</fix>
</trkpt>
<trkpt lat="-27.274615" lon="151.2905686">
  <ele>474.42</ele>
  <time>2026-09-01T19:59:02Z</time>
  <course>192.72</course>
  <speed>25.768092672916246</speed>
  <fix>3d</fix>
</trkpt>
<trkpt lat="-27.2745926" lon="151.2905746">
  <ele>474.85</ele>
  <time>2026-09-01T19:59:02Z</time>
  <course>192.49</course>
  <speed>25.81</speed>
  <fix>3d</fix>
</trkpt>
<trkpt lat="-27.2746376" lon="151.290563">
  <ele>474.19</ele>
  <time>2026-09-01T19:59:02Z</time>
  <course>192.69</course>
  <speed>25.746395864275836</speed>
  <fix>3d</fix>
</trkpt>
<trkpt lat="-27.2745926" lon="151.2905746">
  <ele>474.85</ele>
  <time>2026-09-01T19:59:02Z</time>
  <course>192.49</course>
  <speed>25.81</speed>
  <fix>3d</fix>
</trkpt>
<trkpt lat="-27.2746599" lon="151.2905575">
  <ele>473.96</ele>
  <time>2026-09-01T19:59:02Z</time>
  <course>192.68</course>
  <speed>25.73446133106345</speed>
  <fix>3d</fix>
</trkpt>
<trkpt lat="-27.2746379" lon="151.2905634">
  <ele>474.4</ele>
  <time>2026-09-01T19:59:02Z</time>
  <course>192.46</course>
  <speed>25.78</speed>
  <fix>3d</fix>
</trkpt>
<trkpt lat="-27.2746824" lon="151.2905519">
  <ele>473.74</ele>
  <time>2026-09-01T19:59:02Z</time>
  <course>192.71</course>
  <speed>25.722529035847156</speed>
  <fix>3d</fix>
</trkpt>
<trkpt lat="-27.2746379" lon="151.2905634">
  <ele>474.4</ele>
  <time>2026-09-01T19:59:02Z</time>
  <course>192.46</course>
  <speed>25.78</speed>
  <fix>3d</fix>
</trkpt>
<trkpt lat="-27.2747049" lon="151.2905463">
  <ele>473.51</ele>
  <time>2026-09-01T19:59:02Z</time>
  <course>192.7</course>
  <speed>25.71059898174292</speed>
  <fix>3d</fix>
</trkpt>
<trkpt lat="-27.2746831" lon="151.2905521">
  <ele>473.95</ele>
  <time>2026-09-01T19:59:02Z</time>
  <course>192.44</course>
  <speed>25.76</speed>
  <fix>3d</fix>
</trkpt>
<trkpt lat="-27.2747274" lon="151.2905407">
  <ele>473.28</ele>
  <time>2026-09-01T19:59:02Z</time>
  <course>192.69</course>
  <speed>25.688908112257323</speed>
  <fix>3d</fix>
</trkpt>
<trkpt lat="-27.2746831" lon="151.2905521">
  <ele>473.95</ele>
  <time>2026-09-01T19:59:02Z</time>
  <course>192.44</course>
  <speed>25.76</speed>
  <fix>3d</fix>
</trkpt>
<trkpt lat="-27.27475" lon="151.2905351">
  <ele>473.05</ele>
  <time>2026-09-01T19:59:02Z</time>
  <course>192.71</course>
  <speed>25.679145234995655</speed>
  <fix>3d</fix>
</trkpt>
<trkpt lat="-27.2747282" lon="151.290541">
  <ele>473.5</ele>
  <time>2026-09-01T19:59:02Z</time>
  <course>192.42</course>
  <speed>25.74</speed>
  <fix>3d</fix>
</trkpt>
<trkpt lat="-27.2747726" lon="151.2905295">
  <ele>472.81</ele>
  <time>2026-09-01T19:59:02Z</time>
  <course>192.67</course>
  <speed>25.669382540294965</speed>
  <fix>3d</fix>
</trkpt>
<trkpt lat="-27.2747282" lon="151.290541">
  <ele>473.5</ele>
  <time>2026-09-01T19:59:02Z</time>
  <course>192.42</course>
  <speed>25.74</speed>
  <fix>3d</fix>
</trkpt>
<trkpt lat="-27.2747951" lon="151.290524">
  <ele>472.58</ele>
  <time>2026-09-01T19:59:02Z</time>
  <course>192.61</course>
  <speed>25.657455056961517</speed>
  <fix>3d</fix>
</trkpt>
<trkpt lat="-27.2747734" lon="151.2905298">
  <ele>473.05</ele>
  <time>2026-09-01T19:59:02Z</time>
  <course>192.4</course>
  <speed>25.72</speed>
  <fix>3d</fix>
</trkpt>
<trkpt lat="-27.2748176" lon="151.2905184">
  <ele>472.35</ele>
  <time>2026-09-01T19:59:02Z</time>
  <course>192.59</course>
  <speed>25.64552982490321</speed>
  <fix>3d</fix>
</trkpt>
<trkpt lat="-27.2747734" lon="151.2905298">
  <ele>473.05</ele>
  <time>2026-09-01T19:59:02Z</time>
  <course>192.4</course>
  <speed>25.72</speed>
  <fix>3d</fix>
</trkpt>
<trkpt lat="-27.2748403" lon="151.2905128">
  <ele>472.12</ele>
  <time>2026-09-01T19:59:02Z</time>
  <course>192.59</course>
  <speed>25.633606847262055</speed>
  <fix>3d</fix>
</trkpt>
<trkpt lat="-27.2748185" lon="151.2905186">
  <ele>472.59</ele>
  <time>2026-09-01T19:59:02Z</time>
  <course>192.38</course>
  <speed>25.7</speed>
  <fix>3d</fix>
</trkpt>
<trkpt lat="-27.2748628" lon="151.2905073">
  <ele>471.9</ele>
  <time>2026-09-01T19:59:02Z</time>
  <course>192.62</course>
  <speed>25.621686127185306</speed>
  <fix>3d</fix>
</trkpt>
<trkpt lat="-27.2748185" lon="151.2905186">
  <ele>472.59</ele>
  <time>2026-09-01T19:59:02Z</time>
  <course>192.38</course>
  <speed>25.7</speed>
  <fix>3d</fix>
</trkpt>
<trkpt lat="-27.2748853" lon="151.2905017">
  <ele>471.67</ele>
  <time>2026-09-01T19:59:02Z</time>
  <course>192.62</course>
  <speed>25.609767667825494</speed>
  <fix>3d</fix>
</trkpt>
<trkpt lat="-27.2748636" lon="151.2905075">
  <ele>472.14</ele>
  <time>2026-09-01T19:59:02Z</time>
  <course>192.36</course>
  <speed>25.68</speed>
  <fix>3d</fix>
</trkpt>
<trkpt lat="-27.2749078" lon="151.2904962">
  <ele>471.45</ele>
  <time>2026-09-01T19:59:02Z</time>
  <course>192.63</course>
  <speed>25.600001953124924</speed>
  <fix>3d</fix>
</trkpt>
<trkpt lat="-27.2748636" lon="151.2905075">
  <ele>472.14</ele>
  <time>2026-09-01T19:59:02Z</time>
  <course>192.36</course>
  <speed>25.68</speed>
  <fix>3d</fix>
</trkpt>
<trkpt lat="-27.2749303" lon="151.2904907">
  <ele>471.22</ele>
  <time>2026-09-01T19:59:02Z</time>
  <course>192.61</course>
  <speed>25.5880851178825</speed>
  <fix>3d</fix>
</trkpt>
<trkpt lat="-27.2749087" lon="151.2904964">
  <ele>471.69</ele>
  <time>2026-09-01T19:59:02Z</time>
  <course>192.35</course>
  <speed>25.66</speed>
  <fix>3d</fix>
</trkpt>
<trkpt lat="-27.2749528" lon="151.2904851">
  <ele>470.99</ele>
  <time>2026-09-01T19:59:02Z</time>
  <course>192.58</course>
  <speed>25.576170549947463</speed>
  <fix>3d</fix>
</trkpt>
<trkpt lat="-27.2749087" lon="151.2904964">
  <ele>471.69</ele>
  <time>2026-09-01T19:59:02Z</time>
  <course>192.35</course>
  <speed>25.66</speed>
  <fix>3d</fix>
</trkpt>
<trkpt lat="-27.2749753" lon="151.2904796">
  <ele>470.76</ele>
  <time>2026-09-01T19:59:02Z</time>
  <course>192.59</course>
  <speed>25.56640373615343</speed>
  <fix>3d</fix>
</trkpt>
<trkpt lat="-27.2749538" lon="151.2904853">
  <ele>471.24</ele>
  <time>2026-09-01T19:59:02Z</time>
  <course>192.33</course>
  <speed>25.64</speed>
  <fix>3d</fix>
</trkpt>
<trkpt lat="-27.2749978" lon="151.2904741">
  <ele>470.53</ele>
  <time>2026-09-01T19:59:02Z</time>
  <course>192.56</course>
  <speed>25.56425825248994</speed>
  <fix>3d</fix>
</trkpt>
<trkpt lat="-27.2749538" lon="151.2904853">
  <ele>471.24</ele>
  <time>2026-09-01T19:59:02Z</time>
  <course>192.33</course>
  <speed>25.64</speed>
  <fix>3d</fix>
</trkpt>
<trkpt lat="-27.2750203" lon="151.2904686">
  <ele>470.3</ele>
  <time>2026-09-01T19:59:02Z</time>
  <course>192.58</course>
  <speed>25.554490799074827</speed>
  <fix>3d</fix>
</trkpt>
<trkpt lat="-27.2749988" lon="151.2904742">
  <ele>470.78</ele>
  <time>2026-09-01T19:59:02Z</time>
  <course>192.31</course>
  <speed>25.62</speed>
  <fix>3d</fix>
</trkpt>
<trkpt lat="-27.2750428" lon="151.290463">
  <ele>470.06</ele>
  <time>2026-09-01T19:59:02Z</time>
  <course>192.54</course>
  <speed>25.552348228685364</speed>
  <fix>3d</fix>
</trkpt>
<trkpt lat="-27.2749988" lon="151.2904742">
  <ele>470.78</ele>
  <time>2026-09-01T19:59:02Z</time>
  <course>192.31</course>
  <speed>25.62</speed>
  <fix>3d</fix>
</trkpt>
<trkpt lat="-27.2750653" lon="151.2904575">
  <ele>469.83</ele>
  <time>2026-09-01T19:59:02Z</time>
  <course>192.53</course>
  <speed>25.54258013592206</speed>
  <fix>3d</fix>
</trkpt>
<trkpt lat="-27.2750437" lon="151.2904631">
  <ele>470.31</ele>
  <time>2026-09-01T19:59:02Z</time>
  <course>192.3</course>
  <speed>25.6</speed>
  <fix>3d</fix>
</trkpt>
<trkpt lat="-27.2750878" lon="151.290452">
  <ele>469.59</ele>
  <time>2026-09-01T19:59:02Z</time>
  <course>192.52</course>
  <speed>25.540440481714487</speed>
  <fix>3d</fix>
</trkpt>
<trkpt lat="-27.2750437" lon="151.2904631">
  <ele>470.31</ele>
  <time>2026-09-01T19:59:02Z</time>
  <course>192.3</course>
  <speed>25.6</speed>
  <fix>3d</fix>
</trkpt>
<trkpt lat="-27.2751103" lon="151.2904465">
  <ele>469.36</ele>
  <time>2026-09-01T19:59:02Z</time>
  <course>192.53</course>
  <speed>25.528535014763385</speed>
  <fix>3d</fix>
</trkpt>
<trkpt lat="-27.2750886" lon="151.2904522">
  <ele>469.84</ele>
  <time>2026-09-01T19:59:02Z</time>
  <course>192.27</course>
  <speed>25.58</speed>
  <fix>3d</fix>
</trkpt>
<trkpt lat="-27.2751326" lon="151.2904411">
  <ele>469.12</ele>
  <time>2026-09-01T19:59:02Z</time>
  <course>192.5</course>
  <speed>25.528535014763385</speed>
  <fix>3d</fix>
</trkpt>
<trkpt lat="-27.2750886" lon="151.2904522">
  <ele>469.84</ele>
  <time>2026-09-01T19:59:02Z</time>
  <course>192.27</course>
  <speed>25.58</speed>
  <fix>3d</fix>
</trkpt>
<trkpt lat="-27.275155" lon="151.2904356">
  <ele>468.89</ele>
  <time>2026-09-01T19:59:02Z</time>
  <course>192.46</course>
  <speed>25.52640201830254</speed>
  <fix>3d</fix>
</trkpt>
<trkpt lat="-27.2751335" lon="151.2904411">
  <ele>469.37</ele>
  <time>2026-09-01T19:59:02Z</time>
  <course>192.24</course>
  <speed>25.57</speed>
  <fix>3d</fix>
</trkpt>
<trkpt lat="-27.2751775" lon="151.2904301">
  <ele>468.65</ele>
  <time>2026-09-01T19:59:02Z</time>
  <course>192.47</course>
  <speed>25.524272761432403</speed>
  <fix>3d</fix>
</trkpt>
<trkpt lat="-27.2751335" lon="151.2904411">
  <ele>469.37</ele>
  <time>2026-09-01T19:59:02Z</time>
  <course>192.24</course>
  <speed>25.57</speed>
  <fix>3d</fix>
</trkpt>
<trkpt lat="-27.2752" lon="151.2904247">
  <ele>468.41</ele>
  <time>2026-09-01T19:59:02Z</time>
  <course>192.47</course>
  <speed>25.51237542840729</speed>
  <fix>3d</fix>
</trkpt>
<trkpt lat="-27.2751784" lon="151.2904302">
  <ele>468.9</ele>
  <time>2026-09-01T19:59:02Z</time>
  <course>192.21</course>
  <speed>25.56</speed>
  <fix>3d</fix>
</trkpt>
<trkpt lat="-27.2752226" lon="151.2904192">
  <ele>468.17</ele>
  <time>2026-09-01T19:59:02Z</time>
  <course>192.47</course>
  <speed>25.510252840769727</speed>
  <fix>3d</fix>
</trkpt>
<trkpt lat="-27.2751784" lon="151.2904302">
  <ele>468.9</ele>
  <time>2026-09-01T19:59:02Z</time>
  <course>192.21</course>
  <speed>25.56</speed>
  <fix>3d</fix>
</trkpt>
<trkpt lat="-27.2752451" lon="151.2904137">
  <ele>467.93</ele>
  <time>2026-09-01T19:59:02Z</time>
  <course>192.49</course>
  <speed>25.510252840769727</speed>
  <fix>3d</fix>
</trkpt>
<trkpt lat="-27.2752233" lon="151.2904193">
  <ele>468.42</ele>
  <time>2026-09-01T19:59:02Z</time>
  <course>192.19</course>
  <speed>25.55</speed>
  <fix>3d</fix>
</trkpt>
<trkpt lat="-27.2752675" lon="151.2904082">
  <ele>467.69</ele>
  <time>2026-09-01T19:59:02Z</time>
  <course>192.52</course>
  <speed>25.500480387631914</speed>
  <fix>3d</fix>
</trkpt>
<trkpt lat="-27.2752233" lon="151.2904193">
  <ele>468.42</ele>
  <time>2026-09-01T19:59:02Z</time>
  <course>192.19</course>
  <speed>25.55</speed>
  <fix>3d</fix>
</trkpt>
<trkpt lat="-27.27529" lon="151.2904028">
  <ele>467.45</ele>
  <time>2026-09-01T19:59:02Z</time>
  <course>192.49</course>
  <speed>25.500480387631914</speed>
  <fix>3d</fix>
</trkpt>
<trkpt lat="-27.2752681" lon="151.2904084">
  <ele>467.95</ele>
  <time>2026-09-01T19:59:02Z</time>
  <course>192.18</course>
  <speed>25.54</speed>
  <fix>3d</fix>
</trkpt>
<trkpt lat="-27.2753124" lon="151.2903973">
  <ele>467.21</ele>
  <time>2026-09-01T19:59:02Z</time>
  <course>192.47</course>
  <speed>25.498360731623517</speed>
  <fix>3d</fix>
</trkpt>
<trkpt lat="-27.2752681" lon="151.2904084">
  <ele>467.95</ele>
  <time>2026-09-01T19:59:02Z</time>
  <course>192.18</course>
  <speed>25.54</speed>
  <fix>3d</fix>
</trkpt>
<trkpt lat="-27.2753348" lon="151.2903919">
  <ele>466.96</ele>
  <time>2026-09-01T19:59:02Z</time>
  <course>192.47</course>
  <speed>25.488587642315533</speed>
  <fix>3d</fix>
</trkpt>
<trkpt lat="-27.2753129" lon="151.2903975">
  <ele>467.46</ele>
  <time>2026-09-01T19:59:02Z</time>
  <course>192.17</course>
  <speed>25.52</speed>
  <fix>3d</fix>
</trkpt>
<trkpt lat="-27.2753573" lon="151.2903865">
  <ele>466.71</ele>
  <time>2026-09-01T19:59:02Z</time>
  <course>192.44</course>
  <speed>25.488587642315533</speed>
  <fix>3d</fix>
</trkpt>
<trkpt lat="-27.2753129" lon="151.2903975">
  <ele>467.46</ele>
  <time>2026-09-01T19:59:02Z</time>
  <course>192.17</course>
  <speed>25.52</speed>
  <fix>3d</fix>
</trkpt>
<trkpt lat="-27.2753797" lon="151.290381">
  <ele>466.46</ele>
  <time>2026-09-01T19:59:02Z</time>
  <course>192.44</course>
  <speed>25.476697195672756</speed>
  <fix>3d</fix>
</trkpt>
<trkpt lat="-27.2753577" lon="151.2903866">
  <ele>466.97</ele>
  <time>2026-09-01T19:59:02Z</time>
  <course>192.17</course>
  <speed>25.51</speed>
  <fix>3d</fix>
</trkpt>
<trkpt lat="-27.2754021" lon="151.2903756">
  <ele>466.21</ele>
  <time>2026-09-01T19:59:02Z</time>
  <course>192.47</course>
  <speed>25.476697195672756</speed>
  <fix>3d</fix>
</trkpt>
<trkpt lat="-27.2753577" lon="151.2903866">
  <ele>466.97</ele>
  <time>2026-09-01T19:59:02Z</time>
  <course>192.17</course>
  <speed>25.51</speed>
  <fix>3d</fix>
</trkpt>
<trkpt lat="-27.2754245" lon="151.2903702">
  <ele>465.95</ele>
  <time>2026-09-01T19:59:02Z</time>
  <course>192.45</course>
  <speed>25.46692364617289</speed>
  <fix>3d</fix>
</trkpt>
<trkpt lat="-27.2754026" lon="151.2903757">
  <ele>466.47</ele>
  <time>2026-09-01T19:59:02Z</time>
  <course>192.16</course>
  <speed>25.5</speed>
  <fix>3d</fix>
</trkpt>
<trkpt lat="-27.2754469" lon="151.2903647">
  <ele>465.7</ele>
  <time>2026-09-01T19:59:02Z</time>
  <course>192.43</course>
  <speed>25.44737707505432</speed>
  <fix>3d</fix>
</trkpt>
<trkpt lat="-27.2754026" lon="151.2903757">
  <ele>466.47</ele>
  <time>2026-09-01T19:59:02Z</time>
  <course>192.16</course>
  <speed>25.5</speed>
  <fix>3d</fix>
</trkpt>
<trkpt lat="-27.2754694" lon="151.2903593">
  <ele>465.43</ele>
  <time>2026-09-01T19:59:02Z</time>
  <course>192.43</course>
  <speed>25.374729555209054</speed>
  <fix>3d</fix>
</trkpt>
<trkpt lat="-27.2754474" lon="151.2903648">
  <ele>465.96</ele>
  <time>2026-09-01T19:59:02Z</time>
  <course>192.17</course>
  <speed>25.45</speed>
  <fix>3d</fix>
</trkpt>
<trkpt lat="-27.2754917" lon="151.2903539">
  <ele>465.17</ele>
  <time>2026-09-01T19:59:02Z</time>
  <course>192.55</course>
  <speed>25.267231743901036</speed>
  <fix>3d</fix>
</trkpt>
<trkpt lat="-27.2754474" lon="151.2903648">
  <ele>465.96</ele>
  <time>2026-09-01T19:59:02Z</time>
  <course>192.17</course>
  <speed>25.45</speed>
  <fix>3d</fix>
</trkpt>
<trkpt lat="-27.2755138" lon="151.2903484">
  <ele>464.96</ele>
  <time>2026-09-01T19:59:02Z</time>
  <course>193.03</course>
  <speed>25.102195123136145</speed>
  <fix>3d</fix>
</trkpt>
<trkpt lat="-27.275492" lon="151.290354">
  <ele>465.47</ele>
  <time>2026-09-01T19:59:02Z</time>
  <course>192.37</course>
  <speed>25.28</speed>
  <fix>3d</fix>
</trkpt>
<trkpt lat="-27.2755357" lon="151.2903427">
  <ele>464.83</ele>
  <time>2026-09-01T19:59:02Z</time>
  <course>193.91</course>
  <speed>24.846088223299862</speed>
  <fix>3d</fix>
</trkpt>
<trkpt lat="-27.275492" lon="151.290354">
  <ele>465.47</ele>
  <time>2026-09-01T19:59:02Z</time>
  <course>192.37</course>
  <speed>25.28</speed>
  <fix>3d</fix>
</trkpt>
<trkpt lat="-27.2755573" lon="151.2903365">
  <ele>464.8</ele>
  <time>2026-09-01T19:59:02Z</time>
  <course>195.19</course>
  <speed>24.496026208346528</speed>
  <fix>3d</fix>
</trkpt>
<trkpt lat="-27.2755359" lon="151.2903427">
  <ele>465.14</ele>
  <time>2026-09-01T19:59:02Z</time>
  <course>193.62</course>
  <speed>24.84</speed>
  <fix>3d</fix>
</trkpt>
<trkpt lat="-27.2755784" lon="151.2903299">
  <ele>464.84</ele>
  <time>2026-09-01T19:59:02Z</time>
  <course>196.78</course>
  <speed>24.092000747135966</speed>
  <fix>3d</fix>
</trkpt>
<trkpt lat="-27.2755359" lon="151.2903427">
  <ele>465.14</ele>
  <time>2026-09-01T19:59:02Z</time>
  <course>193.62</course>
  <speed>24.84</speed>
  <fix>3d</fix>
</trkpt>
<trkpt lat="-27.2755988" lon="151.2903229">
  <ele>464.96</ele>
  <time>2026-09-01T19:59:02Z</time>
  <course>198.44</course>
  <speed>23.65554903188679</speed>
  <fix>3d</fix>
</trkpt>
<trkpt lat="-27.2755785" lon="151.2903301">
  <ele>465.12</ele>
  <time>2026-09-01T19:59:02Z</time>
  <course>196.09</course>
  <speed>24.12</speed>
  <fix>3d</fix>
</trkpt>
<trkpt lat="-27.2756189" lon="151.2903154">
  <ele>465.13</ele>
  <time>2026-09-01T19:59:02Z</time>
  <course>200.03</course>
  <speed>23.184945546625723</speed>
  <fix>3d</fix>
</trkpt>
<trkpt lat="-27.2755785" lon="151.2903301">
  <ele>465.12</ele>
  <time>2026-09-01T19:59:02Z</time>
  <course>196.09</course>
  <speed>24.12</speed>
  <fix>3d</fix>
</trkpt>
<trkpt lat="-27.2756383" lon="151.2903075">
  <ele>465.37</ele>
  <time>2026-09-01T19:59:02Z</time>
  <course>201.44</course>
  <speed>22.69788095836261</speed>
  <fix>3d</fix>
</trkpt>
<trkpt lat="-27.275619" lon="151.2903157">
  <ele>465.39</ele>
  <time>2026-09-01T19:59:02Z</time>
  <course>199.02</course>
  <speed>23.22</speed>
  <fix>3d</fix>
</trkpt>
<trkpt lat="-27.2756572" lon="151.2902992">
  <ele>465.65</ele>
  <time>2026-09-01T19:59:02Z</time>
  <course>202.64</course>
  <speed>22.200166666041046</speed>
  <fix>3d</fix>
</trkpt>
<trkpt lat="-27.275619" lon="151.2903157">
  <ele>465.39</ele>
  <time>2026-09-01T19:59:02Z</time>
  <course>199.02</course>
  <speed>23.22</speed>
  <fix>3d</fix>
</trkpt>
<trkpt lat="-27.2756756" lon="151.2902905">
  <ele>465.97</ele>
  <time>2026-09-01T19:59:02Z</time>
  <course>203.61</course>
  <speed>21.693190175721043</speed>
  <fix>3d</fix>
</trkpt>
<trkpt lat="-27.2756573" lon="151.2902996">
  <ele>465.88</ele>
  <time>2026-09-01T19:59:02Z</time>
  <course>201.82</course>
  <speed>22.24</speed>
  <fix>3d</fix>
</trkpt>
<trkpt lat="-27.2756933" lon="151.2902818">
  <ele>466.32</ele>
  <time>2026-09-01T19:59:02Z</time>
  <course>204.28</course>
  <speed>21.195841573289794</speed>
  <fix>3d</fix>
</trkpt>
<trkpt lat="-27.2756573" lon="151.2902996">
  <ele>465.88</ele>
  <time>2026-09-01T19:59:02Z</time>
  <course>201.82</course>
  <speed>22.24</speed>
  <fix>3d</fix>
</trkpt>
<trkpt lat="-27.2757105" lon="151.2902729">
  <ele>466.69</ele>
  <time>2026-09-01T19:59:02Z</time>
  <course>204.71</course>
  <speed>20.743782200939155</speed>
  <fix>3d</fix>
</trkpt>
<trkpt lat="-27.2756932" lon="151.2902825">
  <ele>466.53</ele>
  <time>2026-09-01T19:59:02Z</time>
  <course>204.06</course>
  <speed>21.26</speed>
  <fix>3d</fix>
</trkpt>
<trkpt lat="-27.2757273" lon="151.2902641">
  <ele>467.05</ele>
  <time>2026-09-01T19:59:02Z</time>
  <course>205.0</course>
  <speed>20.323936626549493</speed>
  <fix>3d</fix>
</trkpt>
<trkpt lat="-27.2756932" lon="151.2902825">
  <ele>466.53</ele>
  <time>2026-09-01T19:59:02Z</time>
  <course>204.06</course>
  <speed>21.26</speed>
  <fix>3d</fix>
</trkpt>
<trkpt lat="-27.2757436" lon="151.2902552">
  <ele>467.4</ele>
  <time>2026-09-01T19:59:02Z</time>
  <course>205.22</course>
  <speed>19.94652852002072</speed>
  <fix>3d</fix>
</trkpt>
<trkpt lat="-27.2757272" lon="151.2902648">
  <ele>467.24</ele>
  <time>2026-09-01T19:59:02Z</time>
  <course>205.47</course>
  <speed>20.38</speed>
  <fix>3d</fix>
</trkpt>
<trkpt lat="-27.2757597" lon="151.2902464">
  <ele>467.73</ele>
  <time>2026-09-01T19:59:02Z</time>
  <course>205.4</course>
  <speed>19.59259298816775</speed>
  <fix>3d</fix>
</trkpt>
<trkpt lat="-27.2757272" lon="151.2902648">
  <ele>467.24</ele>
  <time>2026-09-01T19:59:02Z</time>
  <course>205.47</course>
  <speed>20.38</speed>
  <fix>3d</fix>
</trkpt>
<trkpt lat="-27.2757754" lon="151.2902377">
  <ele>468.02</ele>
  <time>2026-09-01T19:59:02Z</time>
  <course>205.56</course>
  <speed>19.27491893627571</speed>
  <fix>3d</fix>
</trkpt>
<trkpt lat="-27.2757595" lon="151.2902471">
  <ele>467.9</ele>
  <time>2026-09-01T19:59:02Z</time>
  <course>206.2</course>
  <speed>19.64</speed>
  <fix>3d</fix>
</trkpt>
<trkpt lat="-27.2757908" lon="151.2902291">
  <ele>468.28</ele>
  <time>2026-09-01T19:59:02Z</time>
  <course>205.71</course>
  <speed>18.979749734914844</speed>
  <fix>3d</fix>
</trkpt>
<trkpt lat="-27.2757595" lon="151.2902471">
  <ele>467.9</ele>
  <time>2026-09-01T19:59:02Z</time>
  <course>206.2</course>
  <speed>19.64</speed>
  <fix>3d</fix>
</trkpt>
<trkpt lat="-27.275806" lon="151.2902206">
  <ele>468.51</ele>
  <time>2026-09-01T19:59:02Z</time>
  <course>205.85</course>
  <speed>18.698026633845615</speed>
  <fix>3d</fix>
</trkpt>
<trkpt lat="-27.2757906" lon="151.2902298">
  <ele>468.45</ele>
  <time>2026-09-01T19:59:02Z</time>
  <course>206.54</course>
  <speed>19.0</speed>
  <fix>3d</fix>
</trkpt>
<trkpt lat="-27.275821" lon="151.2902122">
  <ele>468.7</ele>
  <time>2026-09-01T19:59:02Z</time>
  <course>205.97</course>
  <speed>18.42969885809315</speed>
  <fix>3d</fix>
</trkpt>
<trkpt lat="-27.2757906" lon="151.2902298">
  <ele>468.45</ele>
  <time>2026-09-01T19:59:02Z</time>
  <course>206.54</course>
  <speed>19.0</speed>
  <fix>3d</fix>
</trkpt>
<trkpt lat="-27.2758358" lon="151.2902039">
  <ele>468.86</ele>
  <time>2026-09-01T19:59:02Z</time>
  <course>206.06</course>
  <speed>18.17924640902367</speed>
  <fix>3d</fix>
</trkpt>
<trkpt lat="-27.2758208" lon="151.2902128">
  <ele>468.86</ele>
  <time>2026-09-01T19:59:02Z</time>
  <course>206.64</course>
  <speed>18.45</speed>
  <fix>3d</fix>
</trkpt>
<trkpt lat="-27.2758503" lon="151.2901957">
  <ele>468.99</ele>
  <time>2026-09-01T19:59:02Z</time>
  <course>206.12</course>
  <speed>17.94221000880326</speed>
  <fix>3d</fix>
</trkpt>
<trkpt lat="-27.2758208" lon="151.2902128">
  <ele>468.86</ele>
  <time>2026-09-01T19:59:02Z</time>
  <course>206.64</course>
  <speed>18.45</speed>
  <fix>3d</fix>
</trkpt>
<trkpt lat="-27.2758647" lon="151.2901877">
  <ele>469.09</ele>
  <time>2026-09-01T19:59:02Z</time>
  <course>206.13</course>
  <speed>17.723120492734907</speed>
  <fix>3d</fix>
</trkpt>
<trkpt lat="-27.27585" lon="151.2901963">
  <ele>469.13</ele>
  <time>2026-09-01T19:59:02Z</time>
  <course>206.55</course>
  <speed>17.95</speed>
  <fix>3d</fix>
</trkpt>
<trkpt lat="-27.275879" lon="151.2901798">
  <ele>469.16</ele>
  <time>2026-09-01T19:59:02Z</time>
  <course>206.08</course>
  <speed>17.50864072393971</speed>
  <fix>3d</fix>
</trkpt>
<trkpt lat="-27.27585" lon="151.2901963">
  <ele>469.13</ele>
  <time>2026-09-01T19:59:02Z</time>
  <course>206.55</course>
  <speed>17.95</speed>
  <fix>3d</fix>
</trkpt>
<trkpt lat="-27.275893" lon="151.290172">
  <ele>469.21</ele>
  <time>2026-09-01T19:59:02Z</time>
  <course>205.98</course>
  <speed>17.307873930670976</speed>
  <fix>3d</fix>
</trkpt>
<trkpt lat="-27.2758785" lon="151.2901803">
  <ele>469.29</ele>
  <time>2026-09-01T19:59:02Z</time>
  <course>206.28</course>
  <speed>17.51</speed>
  <fix>3d</fix>
</trkpt>
<trkpt lat="-27.275907" lon="151.2901644">
  <ele>469.24</ele>
  <time>2026-09-01T19:59:02Z</time>
  <course>205.81</course>
  <speed>17.116383963910135</speed>
  <fix>3d</fix>
</trkpt>
<trkpt lat="-27.2758785" lon="151.2901803">
  <ele>469.29</ele>
  <time>2026-09-01T19:59:02Z</time>
  <course>206.28</course>
  <speed>17.51</speed>
  <fix>3d</fix>
</trkpt>
<trkpt lat="-27.2759208" lon="151.290157">
  <ele>469.25</ele>
  <time>2026-09-01T19:59:02Z</time>
  <course>205.59</course>
  <speed>16.93465381990432</speed>
  <fix>3d</fix>
</trkpt>
<trkpt lat="-27.2759064" lon="151.290165">
  <ele>469.37</ele>
  <time>2026-09-01T19:59:02Z</time>
  <course>205.82</course>
  <speed>17.11</speed>
  <fix>3d</fix>
</trkpt>
<trkpt lat="-27.2759345" lon="151.2901497">
  <ele>469.26</ele>
  <time>2026-09-01T19:59:02Z</time>
  <course>205.3</course>
  <speed>16.753536940001656</speed>
  <fix>3d</fix>
</trkpt>
<trkpt lat="-27.2759064" lon="151.290165">
  <ele>469.37</ele>
  <time>2026-09-01T19:59:02Z</time>
  <course>205.82</course>
  <speed>17.11</speed>
  <fix>3d</fix>
</trkpt>
<trkpt lat="-27.2759481" lon="151.2901426">
  <ele>469.25</ele>
  <time>2026-09-01T19:59:02Z</time>
  <course>204.96</course>
  <speed>16.58703710733174</speed>
  <fix>3d</fix>
</trkpt>
<trkpt lat="-27.2759339" lon="151.2901503">
  <ele>469.38</ele>
  <time>2026-09-01T19:59:02Z</time>
  <course>205.15</course>
  <speed>16.75</speed>
  <fix>3d</fix>
</trkpt>
<trkpt lat="-27.2759616" lon="151.2901358">
  <ele>469.23</ele>
  <time>2026-09-01T19:59:02Z</time>
  <course>204.57</course>
  <speed>16.421431119119916</speed>
  <fix>3d</fix>
</trkpt>
<trkpt lat="-27.2759339" lon="151.2901503">
  <ele>469.38</ele>
  <time>2026-09-01T19:59:02Z</time>
  <course>205.15</course>
  <speed>16.75</speed>
  <fix>3d</fix>
</trkpt>
<trkpt lat="-27.2759749" lon="151.2901291">
  <ele>469.21</ele>
  <time>2026-09-01T19:59:02Z</time>
  <course>204.13</course>
  <speed>16.25782580789941</speed>
  <fix>3d</fix>
</trkpt>
<trkpt lat="-27.2759609" lon="151.2901362">
  <ele>469.35</ele>
  <time>2026-09-01T19:59:02Z</time>
  <course>204.3</course>
  <speed>16.41</speed>
  <fix>3d</fix>
</trkpt>
<trkpt lat="-27.2759883" lon="151.2901226">
  <ele>469.19</ele>
  <time>2026-09-01T19:59:02Z</time>
  <course>203.65</course>
  <speed>16.104735328467836</speed>
  <fix>3d</fix>
</trkpt>
<trkpt lat="-27.2759609" lon="151.2901362">
  <ele>469.35</ele>
  <time>2026-09-01T19:59:02Z</time>
  <course>204.3</course>
  <speed>16.41</speed>
  <fix>3d</fix>
</trkpt>
<trkpt lat="-27.2760015" lon="151.2901163">
  <ele>469.16</ele>
  <time>2026-09-01T19:59:02Z</time>
  <course>203.14</course>
  <speed>15.94923195642975</speed>
  <fix>3d</fix>
</trkpt>
<trkpt lat="-27.2759876" lon="151.2901229">
  <ele>469.3</ele>
  <time>2026-09-01T19:59:02Z</time>
  <course>203.28</course>
  <speed>16.1</speed>
  <fix>3d</fix>
</trkpt>
<trkpt lat="-27.2760146" lon="151.2901102">
  <ele>469.13</ele>
  <time>2026-09-01T19:59:02Z</time>
  <course>202.59</course>
  <speed>15.795394898513935</speed>
  <fix>3d</fix>
</trkpt>
<trkpt lat="-27.2759876" lon="151.2901229">
  <ele>469.3</ele>
  <time>2026-09-01T19:59:02Z</time>
  <course>203.28</course>
  <speed>16.1</speed>
  <fix>3d</fix>
</trkpt>
<trkpt lat="-27.2760277" lon="151.2901043">
  <ele>469.1</ele>
  <time>2026-09-01T19:59:02Z</time>
  <course>202.01</course>
  <speed>15.643273314750978</speed>
  <fix>3d</fix>
</trkpt>
<trkpt lat="-27.276014" lon="151.2901104">
  <ele>469.24</ele>
  <time>2026-09-01T19:59:02Z</time>
  <course>202.12</course>
  <speed>15.79</speed>
  <fix>3d</fix>
</trkpt>
<trkpt lat="-27.2760406" lon="151.2900987">
  <ele>469.07</ele>
  <time>2026-09-01T19:59:02Z</time>
  <course>201.4</course>
  <speed>15.498712849782075</speed>
  <fix>3d</fix>
</trkpt>
<trkpt lat="-27.276014" lon="151.2901104">
  <ele>469.24</ele>
  <time>2026-09-01T19:59:02Z</time>
  <course>202.12</course>
  <speed>15.79</speed>
  <fix>3d</fix>
</trkpt>
<trkpt lat="-27.2760536" lon="151.2900933">
  <ele>469.04</ele>
  <time>2026-09-01T19:59:02Z</time>
  <course>200.78</course>
  <speed>15.35970377318521</speed>
  <fix>3d</fix>
</trkpt>
<trkpt lat="-27.2760402" lon="151.2900989">
  <ele>469.17</ele>
  <time>2026-09-01T19:59:02Z</time>
  <course>200.86</course>
  <speed>15.5</speed>
  <fix>3d</fix>
</trkpt>
<trkpt lat="-27.2760664" lon="151.290088">
  <ele>469.01</ele>
  <time>2026-09-01T19:59:02Z</time>
  <course>200.13</course>
  <speed>15.20988165634434</speed>
  <fix>3d</fix>
</trkpt>
<trkpt lat="-27.2760402" lon="151.2900989">
  <ele>469.17</ele>
  <time>2026-09-01T19:59:02Z</time>
  <course>200.86</course>
  <speed>15.5</speed>
  <fix>3d</fix>
</trkpt>
<trkpt lat="-27.2760793" lon="151.290083">
  <ele>468.98</ele>
  <time>2026-09-01T19:59:02Z</time>
  <course>199.47</course>
  <speed>15.071675421133511</speed>
  <fix>3d</fix>
</trkpt>
<trkpt lat="-27.2760661" lon="151.2900881">
  <ele>469.11</ele>
  <time>2026-09-01T19:59:02Z</time>
  <course>199.52</course>
  <speed>15.21</speed>
  <fix>3d</fix>
</trkpt>
<trkpt lat="-27.276092" lon="151.2900783">
  <ele>468.95</ele>
  <time>2026-09-01T19:59:02Z</time>
  <course>198.8</course>
  <speed>14.926252041286183</speed>
  <fix>3d</fix>
</trkpt>
<trkpt lat="-27.2760661" lon="151.2900881">
  <ele>469.11</ele>
  <time>2026-09-01T19:59:02Z</time>
  <course>199.52</course>
  <speed>15.21</speed>
  <fix>3d</fix>
</trkpt>
<trkpt lat="-27.2761047" lon="151.2900737">
  <ele>468.93</ele>
  <time>2026-09-01T19:59:02Z</time>
  <course>198.11</course>
  <speed>14.79563449129506</speed>
  <fix>3d</fix>
</trkpt>
<trkpt lat="-27.2760918" lon="151.2900783">
  <ele>469.05</ele>
  <time>2026-09-01T19:59:02Z</time>
  <course>198.13</course>
  <speed>14.93</speed>
  <fix>3d</fix>
</trkpt>
<trkpt lat="-27.2761173" lon="151.2900693">
  <ele>468.9</ele>
  <time>2026-09-01T19:59:02Z</time>
  <course>197.42</course>
  <speed>14.654746671300735</speed>
  <fix>3d</fix>
</trkpt>
<trkpt lat="-27.2760918" lon="151.2900783">
  <ele>469.05</ele>
  <time>2026-09-01T19:59:02Z</time>
  <course>198.13</course>
  <speed>14.93</speed>
  <fix>3d</fix>
</trkpt>
<trkpt lat="-27.2761299" lon="151.2900652">
  <ele>468.87</ele>
  <time>2026-09-01T19:59:02Z</time>
  <course>196.72</course>
  <speed>14.519011674353044</speed>
  <fix>3d</fix>
</trkpt>
<trkpt lat="-27.2761172" lon="151.2900694">
  <ele>468.99</ele>
  <time>2026-09-01T19:59:02Z</time>
  <course>196.7</course>
  <speed>14.66</speed>
  <fix>3d</fix>
</trkpt>
<trkpt lat="-27.2761424" lon="151.2900613">
  <ele>468.84</ele>
  <time>2026-09-01T19:59:02Z</time>
  <course>196.01</course>
  <speed>14.385506595181136</speed>
  <fix>3d</fix>
</trkpt>
<trkpt lat="-27.2761172" lon="151.2900694">
  <ele>468.99</ele>
  <time>2026-09-01T19:59:02Z</time>
  <course>196.7</course>
  <speed>14.66</speed>
  <fix>3d</fix>
</trkpt>
<trkpt lat="-27.2761548" lon="151.2900576">
  <ele>468.82</ele>
  <time>2026-09-01T19:59:02Z</time>
  <course>195.29</course>
  <speed>14.254294089852362</speed>
  <fix>3d</fix>
</trkpt>
<trkpt lat="-27.2761422" lon="151.2900613">
  <ele>468.93</ele>
  <time>2026-09-01T19:59:02Z</time>
  <course>195.25</course>
  <speed>14.39</speed>
  <fix>3d</fix>
</trkpt>
<trkpt lat="-27.2761671" lon="151.2900541">
  <ele>468.79</ele>
  <time>2026-09-01T19:59:02Z</time>
  <course>194.57</course>
  <speed>14.115725273608861</speed>
  <fix>3d</fix>
</trkpt>
<trkpt lat="-27.2761422" lon="151.2900613">
  <ele>468.93</ele>
  <time>2026-09-01T19:59:02Z</time>
  <course>195.25</course>
  <speed>14.39</speed>
  <fix>3d</fix>
</trkpt>
<trkpt lat="-27.2761794" lon="151.2900508">
  <ele>468.76</ele>
  <time>2026-09-01T19:59:02Z</time>
  <course>193.85</course>
  <speed>13.99151528605819</speed>
  <fix>3d</fix>
</trkpt>
<trkpt lat="-27.276167" lon="151.2900541">
  <ele>468.87</ele>
  <time>2026-09-01T19:59:02Z</time>
  <course>193.8</course>
  <speed>14.13</speed>
  <fix>3d</fix>
</trkpt>
<trkpt lat="-27.2761916" lon="151.2900477">
  <ele>468.74</ele>
  <time>2026-09-01T19:59:02Z</time>
  <course>193.13</course>
  <speed>13.859769117846083</speed>
  <fix>3d</fix>
</trkpt>
<trkpt lat="-27.276167" lon="151.2900541">
  <ele>468.87</ele>
  <time>2026-09-01T19:59:02Z</time>
  <course>193.8</course>
  <speed>14.13</speed>
  <fix>3d</fix>
</trkpt>
<trkpt lat="-27.2762037" lon="151.2900448">
  <ele>468.71</ele>
  <time>2026-09-01T19:59:02Z</time>
  <course>192.4</course>
  <speed>13.730262197059458</speed>
  <fix>3d</fix>
</trkpt>
<trkpt lat="-27.2761915" lon="151.2900477">
  <ele>468.82</ele>
  <time>2026-09-01T19:59:02Z</time>
  <course>192.35</course>
  <speed>13.87</speed>
  <fix>3d</fix>
</trkpt>
<trkpt lat="-27.2762157" lon="151.2900421">
  <ele>468.69</ele>
  <time>2026-09-01T19:59:02Z</time>
  <course>191.68</course>
  <speed>13.595124125950452</speed>
  <fix>3d</fix>
</trkpt>
<trkpt lat="-27.2761915" lon="151.2900477">
  <ele>468.82</ele>
  <time>2026-09-01T19:59:02Z</time>
  <course>192.35</course>
  <speed>13.87</speed>
  <fix>3d</fix>
</trkpt>
<trkpt lat="-27.2762277" lon="151.2900396">
  <ele>468.67</ele>
  <time>2026-09-01T19:59:02Z</time>
  <course>190.97</course>
  <speed>13.471896674188086</speed>
  <fix>3d</fix>
</trkpt>
<trkpt lat="-27.2762157" lon="151.2900421">
  <ele>468.77</ele>
  <time>2026-09-01T19:59:02Z</time>
  <course>190.91</course>
  <speed>13.61</speed>
  <fix>3d</fix>
</trkpt>
<trkpt lat="-27.2762395" lon="151.2900373">
  <ele>468.65</ele>
  <time>2026-09-01T19:59:02Z</time>
  <course>190.25</course>
  <speed>13.34262343019543</speed>
  <fix>3d</fix>
</trkpt>
<trkpt lat="-27.2762157" lon="151.2900421">
  <ele>468.77</ele>
  <time>2026-09-01T19:59:02Z</time>
  <course>190.91</course>
  <speed>13.61</speed>
  <fix>3d</fix>
</trkpt>
<trkpt lat="-27.2762512" lon="151.2900351">
  <ele>468.63</ele>
  <time>2026-09-01T19:59:03Z</time>
  <course>189.54</course>
  <speed>13.215294170013772</speed>
  <fix>3d</fix>
</trkpt>
<trkpt lat="-27.2762395" lon="151.2900372">
  <ele>468.72</ele>
  <time>2026-09-01T19:59:03Z</time>
  <course>189.49</course>
  <speed>13.35</speed>
  <fix>3d</fix>
</trkpt>
<trkpt lat="-27.2762629" lon="151.2900332">
  <ele>468.61</ele>
  <time>2026-09-01T19:59:03Z</time>
  <course>188.83</course>
  <speed>13.08147545195113</speed>
  <fix>3d</fix>
</trkpt>
<trkpt lat="-27.2762395" lon="151.2900372">
  <ele>468.72</ele>
  <time>2026-09-01T19:59:03Z</time>
  <course>189.49</course>
  <speed>13.35</speed>
  <fix>3d</fix>
</trkpt>
<trkpt lat="-27.2762745" lon="151.2900314">
  <ele>468.6</ele>
  <time>2026-09-01T19:59:03Z</time>
  <course>188.13</course>
  <speed>12.9494401423382</speed>
  <fix>3d</fix>
</trkpt>
<trkpt lat="-27.276263" lon="151.2900331">
  <ele>468.69</ele>
  <time>2026-09-01T19:59:03Z</time>
  <course>188.1</course>
  <speed>13.1</speed>
  <fix>3d</fix>
</trkpt>
<trkpt lat="-27.2762861" lon="151.2900298">
  <ele>468.58</ele>
  <time>2026-09-01T19:59:03Z</time>
  <course>187.43</course>
  <speed>12.819243347405493</speed>
  <fix>3d</fix>
</trkpt>
<trkpt lat="-27.276263" lon="151.2900331">
  <ele>468.69</ele>
  <time>2026-09-01T19:59:03Z</time>
  <course>188.1</course>
  <speed>13.1</speed>
  <fix>3d</fix>
</trkpt>
<trkpt lat="-27.2762975" lon="151.2900283">
  <ele>468.57</ele>
  <time>2026-09-01T19:59:03Z</time>
  <course>186.75</course>
  <speed>12.682058192580572</speed>
  <fix>3d</fix>
</trkpt>
<trkpt lat="-27.2762861" lon="151.2900297">
  <ele>468.66</ele>
  <time>2026-09-01T19:59:03Z</time>
  <course>186.75</course>
  <speed>12.83</speed>
  <fix>3d</fix>
</trkpt>
<trkpt lat="-27.2763088" lon="151.290027">
  <ele>468.57</ele>
  <time>2026-09-01T19:59:03Z</time>
  <course>186.08</course>
  <speed>12.547513697940321</speed>
  <fix>3d</fix>
</trkpt>
<trkpt lat="-27.2762861" lon="151.2900297">
  <ele>468.66</ele>
  <time>2026-09-01T19:59:03Z</time>
  <course>186.75</course>
  <speed>12.83</speed>
  <fix>3d</fix>
</trkpt>
<trkpt lat="-27.27632" lon="151.2900259">
  <ele>468.56</ele>
  <time>2026-09-01T19:59:03Z</time>
  <course>185.43</course>
  <speed>12.414483476971565</speed>
  <fix>3d</fix>
</trkpt>
<trkpt lat="-27.2763088" lon="151.290027">
  <ele>468.65</ele>
  <time>2026-09-01T19:59:03Z</time>
  <course>185.44</course>
  <speed>12.57</speed>
  <fix>3d</fix>
</trkpt>
<trkpt lat="-27.276331" lon="151.2900249">
  <ele>468.56</ele>
  <time>2026-09-01T19:59:03Z</time>
  <course>184.8</course>
  <speed>12.273043632286164</speed>
  <fix>3d</fix>
</trkpt>
<trkpt lat="-27.2763088" lon="151.290027">
  <ele>468.65</ele>
  <time>2026-09-01T19:59:03Z</time>
  <course>185.44</course>
  <speed>12.57</speed>
  <fix>3d</fix>
</trkpt>
<trkpt lat="-27.276342" lon="151.2900241">
  <ele>468.56</ele>
  <time>2026-09-01T19:59:03Z</time>
  <course>184.17</course>
  <speed>12.1344550763518</speed>
  <fix>3d</fix>
</trkpt>
<trkpt lat="-27.2763311" lon="151.2900249">
  <ele>468.65</ele>
  <time>2026-09-01T19:59:03Z</time>
  <course>184.17</course>
  <speed>12.3</speed>
  <fix>3d</fix>
</trkpt>
<trkpt lat="-27.2763528" lon="151.2900233">
  <ele>468.57</ele>
  <time>2026-09-01T19:59:03Z</time>
  <course>183.56</course>
  <speed>11.986567481977481</speed>
  <fix>3d</fix>
</trkpt>
<trkpt lat="-27.2763311" lon="151.2900249">
  <ele>468.65</ele>
  <time>2026-09-01T19:59:03Z</time>
  <course>184.17</course>
  <speed>12.3</speed>
  <fix>3d</fix>
</trkpt>
<trkpt lat="-27.2763635" lon="151.2900228">
  <ele>468.57</ele>
  <time>2026-09-01T19:59:03Z</time>
  <course>182.97</course>
  <speed>11.84098813444216</speed>
  <fix>3d</fix>
</trkpt>
<trkpt lat="-27.276353" lon="151.2900234">
  <ele>468.65</ele>
  <time>2026-09-01T19:59:03Z</time>
  <course>182.96</course>
  <speed>12.01</speed>
  <fix>3d</fix>
</trkpt>
<trkpt lat="-27.2763741" lon="151.2900223">
  <ele>468.58</ele>
  <time>2026-09-01T19:59:03Z</time>
  <course>182.39</course>
  <speed>11.69650375112153</speed>
  <fix>3d</fix>
</trkpt>
<trkpt lat="-27.276353" lon="151.2900234">
  <ele>468.65</ele>
  <time>2026-09-01T19:59:03Z</time>
  <course>182.96</course>
  <speed>12.01</speed>
  <fix>3d</fix>
</trkpt>
<trkpt lat="-27.2763845" lon="151.290022">
  <ele>468.6</ele>
  <time>2026-09-01T19:59:03Z</time>
  <course>181.82</course>
  <speed>11.543158146711844</speed>
  <fix>3d</fix>
</trkpt>
<trkpt lat="-27.2763743" lon="151.2900224">
  <ele>468.67</ele>
  <time>2026-09-01T19:59:03Z</time>
  <course>181.81</course>
  <speed>11.72</speed>
  <fix>3d</fix>
</trkpt>
<trkpt lat="-27.2763948" lon="151.2900218">
  <ele>468.62</ele>
  <time>2026-09-01T19:59:03Z</time>
  <course>181.27</course>
  <speed>11.39112373736674</speed>
  <fix>3d</fix>
</trkpt>
<trkpt lat="-27.2763743" lon="151.2900224">
  <ele>468.67</ele>
  <time>2026-09-01T19:59:03Z</time>
  <course>181.81</course>
  <speed>11.72</speed>
  <fix>3d</fix>
</trkpt>
<trkpt lat="-27.276405" lon="151.2900217">
  <ele>468.64</ele>
  <time>2026-09-01T19:59:03Z</time>
  <course>180.74</course>
  <speed>11.230160283807173</speed>
  <fix>3d</fix>
</trkpt>
<trkpt lat="-27.276395" lon="151.2900219">
  <ele>468.71</ele>
  <time>2026-09-01T19:59:03Z</time>
  <course>180.72</course>
  <speed>11.42</speed>
  <fix>3d</fix>
</trkpt>
<trkpt lat="-27.276415" lon="151.2900217">
  <ele>468.66</ele>
  <time>2026-09-01T19:59:03Z</time>
  <course>180.22</course>
  <speed>11.070040650331869</speed>
  <fix>3d</fix>
</trkpt>
<trkpt lat="-27.276395" lon="151.2900219">
  <ele>468.71</ele>
  <time>2026-09-01T19:59:03Z</time>
  <course>180.72</course>
  <speed>11.42</speed>
  <fix>3d</fix>
</trkpt>
<trkpt lat="-27.2764249" lon="151.2900218">
  <ele>468.69</ele>
  <time>2026-09-01T19:59:03Z</time>
  <course>179.7</course>
  <speed>10.910659925045781</speed>
  <fix>3d</fix>
</trkpt>
<trkpt lat="-27.2764153" lon="151.2900218">
  <ele>468.75</ele>
  <time>2026-09-01T19:59:03Z</time>
  <course>179.69</course>
  <speed>11.11</speed>
  <fix>3d</fix>
</trkpt>
<trkpt lat="-27.2764347" lon="151.2900219">
  <ele>468.72</ele>
  <time>2026-09-01T19:59:03Z</time>
  <course>179.21</course>
  <speed>10.742052876429161</speed>
  <fix>3d</fix>
</trkpt>
<trkpt lat="-27.2764153" lon="151.2900218">
  <ele>468.75</ele>
  <time>2026-09-01T19:59:03Z</time>
  <course>179.69</course>
  <speed>11.11</speed>
  <fix>3d</fix>
</trkpt>
<trkpt lat="-27.2764443" lon="151.2900222">
  <ele>468.76</ele>
  <time>2026-09-01T19:59:03Z</time>
  <course>178.73</course>
  <speed>10.57397749193746</speed>
  <fix>3d</fix>
</trkpt>
<trkpt lat="-27.276435" lon="151.2900221">
  <ele>468.81</ele>
  <time>2026-09-01T19:59:03Z</time>
  <course>178.73</course>
  <speed>10.78</speed>
  <fix>3d</fix>
</trkpt>
<trkpt lat="-27.2764537" lon="151.2900225">
  <ele>468.79</ele>
  <time>2026-09-01T19:59:03Z</time>
  <course>178.26</course>
  <speed>10.406579649433333</speed>
  <fix>3d</fix>
</trkpt>
<trkpt lat="-27.276435" lon="151.2900221">
  <ele>468.81</ele>
  <time>2026-09-01T19:59:03Z</time>
  <course>178.73</course>
  <speed>10.78</speed>
  <fix>3d</fix>
</trkpt>
<trkpt lat="-27.276463" lon="151.2900229">
  <ele>468.83</ele>
  <time>2026-09-01T19:59:03Z</time>
  <course>177.82</course>
  <speed>10.229041988377993</speed>
  <fix>3d</fix>
</trkpt>
<trkpt lat="-27.276454" lon="151.2900227">
  <ele>468.88</ele>
  <time>2026-09-01T19:59:03Z</time>
  <course>177.82</course>
  <speed>10.44</speed>
  <fix>3d</fix>
</trkpt>
<trkpt lat="-27.2764721" lon="151.2900234">
  <ele>468.86</ele>
  <time>2026-09-01T19:59:03Z</time>
  <course>177.39</course>
  <speed>10.062430123980986</speed>
  <fix>3d</fix>
</trkpt>
<trkpt lat="-27.276454" lon="151.2900227">
  <ele>468.88</ele>
  <time>2026-09-01T19:59:03Z</time>
  <course>177.82</course>
  <speed>10.44</speed>
  <fix>3d</fix>
</trkpt>
<trkpt lat="-27.276481" lon="151.290024">
  <ele>468.9</ele>
  <time>2026-09-01T19:59:03Z</time>
  <course>176.97</course>
  <speed>9.885873760067948</speed>
  <fix>3d</fix>
</trkpt>
<trkpt lat="-27.2764724" lon="151.2900235">
  <ele>468.96</ele>
  <time>2026-09-01T19:59:03Z</time>
  <course>176.97</course>
  <speed>10.1</speed>
  <fix>3d</fix>
</trkpt>
<trkpt lat="-27.2764899" lon="151.2900246">
  <ele>468.94</ele>
  <time>2026-09-01T19:59:03Z</time>
  <course>176.56</course>
  <speed>9.699200998020403</speed>
  <fix>3d</fix>
</trkpt>
<trkpt lat="-27.2764724" lon="151.2900235">
  <ele>468.96</ele>
  <time>2026-09-01T19:59:03Z</time>
  <course>176.97</course>
  <speed>10.1</speed>
  <fix>3d</fix>
</trkpt>
<trkpt lat="-27.2764985" lon="151.2900253">
  <ele>468.99</ele>
  <time>2026-09-01T19:59:03Z</time>
  <course>176.17</course>
  <speed>9.522898718352517</speed>
  <fix>3d</fix>
</trkpt>
<trkpt lat="-27.2764902" lon="151.2900247">
  <ele>469.03</ele>
  <time>2026-09-01T19:59:03Z</time>
  <course>176.19</course>
  <speed>9.74</speed>
  <fix>3d</fix>
</trkpt>
<trkpt lat="-27.2765071" lon="151.290026">
  <ele>469.03</ele>
  <time>2026-09-01T19:59:03Z</time>
  <course>175.79</course>
  <speed>9.337033790235527</speed>
  <fix>3d</fix>
</trkpt>
<trkpt lat="-27.2764902" lon="151.2900247">
  <ele>469.03</ele>
  <time>2026-09-01T19:59:03Z</time>
  <course>176.19</course>
  <speed>9.74</speed>
  <fix>3d</fix>
</trkpt>
<trkpt lat="-27.2765154" lon="151.2900267">
  <ele>469.07</ele>
  <time>2026-09-01T19:59:03Z</time>
  <course>175.43</course>
  <speed>9.149972677554835</speed>
  <fix>3d</fix>
</trkpt>
<trkpt lat="-27.2765074" lon="151.2900262">
  <ele>469.12</ele>
  <time>2026-09-01T19:59:03Z</time>
  <course>175.46</course>
  <speed>9.38</speed>
  <fix>3d</fix>
</trkpt>
<trkpt lat="-27.2765235" lon="151.2900275">
  <ele>469.11</ele>
  <time>2026-09-01T19:59:03Z</time>
  <course>175.08</course>
  <speed>8.96400022311468</speed>
  <fix>3d</fix>
</trkpt>
<trkpt lat="-27.2765074" lon="151.2900262">
  <ele>469.12</ele>
  <time>2026-09-01T19:59:03Z</time>
  <course>175.46</course>
  <speed>9.38</speed>
  <fix>3d</fix>
</trkpt>
<trkpt lat="-27.2765315" lon="151.2900283">
  <ele>469.15</ele>
  <time>2026-09-01T19:59:03Z</time>
  <course>174.75</course>
  <speed>8.767496792129439</speed>
  <fix>3d</fix>
</trkpt>
<trkpt lat="-27.2765239" lon="151.2900278">
  <ele>469.21</ele>
  <time>2026-09-01T19:59:03Z</time>
  <course>174.79</course>
  <speed>9.0</speed>
  <fix>3d</fix>
</trkpt>
<trkpt lat="-27.2765393" lon="151.2900292">
  <ele>469.18</ele>
  <time>2026-09-01T19:59:03Z</time>
  <course>174.43</course>
  <speed>8.581212035604294</speed>
  <fix>3d</fix>
</trkpt>
<trkpt lat="-27.2765239" lon="151.2900278">
  <ele>469.21</ele>
  <time>2026-09-01T19:59:03Z</time>
  <course>174.79</course>
  <speed>9.0</speed>
  <fix>3d</fix>
</trkpt>
<trkpt lat="-27.2765469" lon="151.2900301">
  <ele>469.22</ele>
  <time>2026-09-01T19:59:03Z</time>
  <course>174.12</course>
  <speed>8.394170596312659</speed>
  <fix>3d</fix>
</trkpt>
<trkpt lat="-27.2765397" lon="151.2900295">
  <ele>469.28</ele>
  <time>2026-09-01T19:59:03Z</time>
  <course>174.17</course>
  <speed>8.63</speed>
  <fix>3d</fix>
</trkpt>
<trkpt lat="-27.2765544" lon="151.290031">
  <ele>469.26</ele>
  <time>2026-09-01T19:59:03Z</time>
  <course>173.82</course>
  <speed>8.197371529947878</speed>
  <fix>3d</fix>
</trkpt>
<trkpt lat="-27.2765397" lon="151.2900295">
  <ele>469.28</ele>
  <time>2026-09-01T19:59:03Z</time>
  <course>174.17</course>
  <speed>8.63</speed>
  <fix>3d</fix>
</trkpt>
<trkpt lat="-27.2765617" lon="151.2900319">
  <ele>469.29</ele>
  <time>2026-09-01T19:59:03Z</time>
  <course>173.53</course>
  <speed>7.999662492880559</speed>
  <fix>3d</fix>
</trkpt>
<trkpt lat="-27.2765547" lon="151.2900313">
  <ele>469.36</ele>
  <time>2026-09-01T19:59:03Z</time>
  <course>173.6</course>
  <speed>8.24</speed>
  <fix>3d</fix>
</trkpt>
<trkpt lat="-27.2765688" lon="151.2900329">
  <ele>469.32</ele>
  <time>2026-09-01T19:59:03Z</time>
  <course>173.26</course>
  <speed>7.813174770859795</speed>
  <fix>3d</fix>
</trkpt>
<trkpt lat="-27.2765547" lon="151.2900313">
  <ele>469.36</ele>
  <time>2026-09-01T19:59:03Z</time>
  <course>173.6</course>
  <speed>8.24</speed>
  <fix>3d</fix>
</trkpt>
<trkpt lat="-27.2765757" lon="151.2900338">
  <ele>469.35</ele>
  <time>2026-09-01T19:59:03Z</time>
  <course>173.0</course>
  <speed>7.6145715572184365</speed>
  <fix>3d</fix>
</trkpt>
<trkpt lat="-27.2765691" lon="151.2900332">
  <ele>469.42</ele>
  <time>2026-09-01T19:59:03Z</time>
  <course>173.09</course>
  <speed>7.86</speed>
  <fix>3d</fix>
</trkpt>
<trkpt lat="-27.2765825" lon="151.2900348">
  <ele>469.38</ele>
  <time>2026-09-01T19:59:03Z</time>
  <course>172.76</course>
  <speed>7.427200010771219</speed>
  <fix>3d</fix>
</trkpt>
<trkpt lat="-27.2765691" lon="151.2900332">
  <ele>469.42</ele>
  <time>2026-09-01T19:59:03Z</time>
  <course>173.09</course>
  <speed>7.86</speed>
  <fix>3d</fix>
</trkpt>
<trkpt lat="-27.276589" lon="151.2900358">
  <ele>469.4</ele>
  <time>2026-09-01T19:59:03Z</time>
  <course>172.52</course>
  <speed>7.228782746770025</speed>
  <fix>3d</fix>
</trkpt>
<trkpt lat="-27.2765828" lon="151.2900351">
  <ele>469.47</ele>
  <time>2026-09-01T19:59:03Z</time>
  <course>172.63</course>
  <speed>7.47</speed>
  <fix>3d</fix>
</trkpt>
<trkpt lat="-27.2765954" lon="151.2900367">
  <ele>469.41</ele>
  <time>2026-09-01T19:59:03Z</time>
  <course>172.31</course>
  <speed>7.040369308495116</speed>
  <fix>3d</fix>
</trkpt>
<trkpt lat="-27.2765828" lon="151.2900351">
  <ele>469.47</ele>
  <time>2026-09-01T19:59:03Z</time>
  <course>172.63</course>
  <speed>7.47</speed>
  <fix>3d</fix>
</trkpt>
<trkpt lat="-27.2766017" lon="151.2900377">
  <ele>469.43</ele>
  <time>2026-09-01T19:59:03Z</time>
  <course>172.1</course>
  <speed>6.850707992609231</speed>
  <fix>3d</fix>
</trkpt>
<trkpt lat="-27.2765958" lon="151.290037">
  <ele>469.51</ele>
  <time>2026-09-01T19:59:03Z</time>
  <course>172.24</course>
  <speed>7.09</speed>
  <fix>3d</fix>
</trkpt>
<trkpt lat="-27.2766077" lon="151.2900386">
  <ele>469.43</ele>
  <time>2026-09-01T19:59:03Z</time>
  <course>171.92</course>
  <speed>6.661080993352356</speed>
  <fix>3d</fix>
</trkpt>
<trkpt lat="-27.2765958" lon="151.290037">
  <ele>469.51</ele>
  <time>2026-09-01T19:59:03Z</time>
  <course>172.24</course>
  <speed>7.09</speed>
  <fix>3d</fix>
</trkpt>
<trkpt lat="-27.2766136" lon="151.2900396">
  <ele>469.41</ele>
  <time>2026-09-01T19:59:03Z</time>
  <course>171.76</course>
  <speed>6.461586492495477</speed>
  <fix>3d</fix>
</trkpt>
<trkpt lat="-27.276608" lon="151.2900389">
  <ele>469.52</ele>
  <time>2026-09-01T19:59:03Z</time>
  <course>171.93</course>
  <speed>6.7</speed>
  <fix>3d</fix>
</trkpt>
<trkpt lat="-27.2766193" lon="151.2900405">
  <ele>469.33</ele>
  <time>2026-09-01T19:59:03Z</time>
  <course>171.63</course>
  <speed>6.219742759953983</speed>
  <fix>3d</fix>
</trkpt>
<trkpt lat="-27.276608" lon="151.2900389">
  <ele>469.52</ele>
  <time>2026-09-01T19:59:03Z</time>
  <course>171.93</course>
  <speed>6.7</speed>
  <fix>3d</fix>
</trkpt>
<trkpt lat="-27.2766247" lon="151.2900414">
  <ele>469.17</ele>
  <time>2026-09-01T19:59:03Z</time>
  <course>171.52</course>
  <speed>5.907190533578547</speed>
  <fix>3d</fix>
</trkpt>
<trkpt lat="-27.2766195" lon="151.2900409">
  <ele>469.39</ele>
  <time>2026-09-01T19:59:03Z</time>
  <course>171.78</course>
  <speed>6.23</speed>
  <fix>3d</fix>
</trkpt>
<trkpt lat="-27.2766298" lon="151.2900422">
  <ele>468.94</ele>
  <time>2026-09-01T19:59:03Z</time>
  <course>171.43</course>
  <speed>5.555033753272792</speed>
  <fix>3d</fix>
</trkpt>
<trkpt lat="-27.2766195" lon="151.2900409">
  <ele>469.39</ele>
  <time>2026-09-01T19:59:03Z</time>
  <course>171.78</course>
  <speed>6.23</speed>
  <fix>3d</fix>
</trkpt>
<trkpt lat="-27.2766346" lon="151.290043">
  <ele>468.65</ele>
  <time>2026-09-01T19:59:03Z</time>
  <course>171.32</course>
  <speed>5.151980201825314</speed>
  <fix>3d</fix>
</trkpt>
<trkpt lat="-27.2766301" lon="151.2900426">
  <ele>469.03</ele>
  <time>2026-09-01T19:59:03Z</time>
  <course>171.69</course>
  <speed>5.58</speed>
  <fix>3d</fix>
</trkpt>
<trkpt lat="-27.2766391" lon="151.2900438">
  <ele>468.31</ele>
  <time>2026-09-01T19:59:03Z</time>
  <course>171.18</course>
  <speed>4.7192478214223925</speed>
  <fix>3d</fix>
</trkpt>
<trkpt lat="-27.2766301" lon="151.2900426">
  <ele>469.03</ele>
  <time>2026-09-01T19:59:03Z</time>
  <course>171.69</course>
  <speed>5.58</speed>
  <fix>3d</fix>
</trkpt>
<trkpt lat="-27.2766431" lon="151.2900445">
  <ele>467.93</ele>
  <time>2026-09-01T19:59:03Z</time>
  <course>170.93</course>
  <speed>4.2143801442205</speed>
  <fix>3d</fix>
</trkpt>
<trkpt lat="-27.2766393" lon="151.2900441">
  <ele>468.42</ele>
  <time>2026-09-01T19:59:03Z</time>
  <course>171.54</course>
  <speed>4.73</speed>
  <fix>3d</fix>
</trkpt>
<trkpt lat="-27.2766467" lon="151.2900451">
  <ele>467.53</ele>
  <time>2026-09-01T19:59:03Z</time>
  <course>170.5</course>
  <speed>3.69120576505835</speed>
  <fix>3d</fix>
</trkpt>
<trkpt lat="-27.2766393" lon="151.2900441">
  <ele>468.42</ele>
  <time>2026-09-01T19:59:03Z</time>
  <course>171.54</course>
  <speed>4.73</speed>
  <fix>3d</fix>
</trkpt>
<trkpt lat="-27.2766497" lon="151.2900456">
  <ele>467.12</ele>
  <time>2026-09-01T19:59:03Z</time>
  <course>169.89</course>
  <speed>3.1582431825304393</speed>
  <fix>3d</fix>
</trkpt>
<trkpt lat="-27.2766468" lon="151.2900454">
  <ele>467.66</ele>
  <time>2026-09-01T19:59:03Z</time>
  <course>171.2</course>
  <speed>3.74</speed>
  <fix>3d</fix>
</trkpt>
<trkpt lat="-27.2766523" lon="151.2900461">
  <ele>466.71</ele>
  <time>2026-09-01T19:59:03Z</time>
  <course>169.14</course>
  <speed>2.6665520808714764</speed>
  <fix>3d</fix>
</trkpt>
<trkpt lat="-27.2766468" lon="151.2900454">
  <ele>467.66</ele>
  <time>2026-09-01T19:59:03Z</time>
  <course>171.2</course>
  <speed>3.74</speed>
  <fix>3d</fix>
</trkpt>
<trkpt lat="-27.2766545" lon="151.2900466">
  <ele>466.3</ele>
  <time>2026-09-01T19:59:03Z</time>
  <course>168.28</course>
  <speed>2.20476756144497</speed>
  <fix>3d</fix>
</trkpt>
<trkpt lat="-27.2766526" lon="151.2900464">
  <ele>466.86</ele>
  <time>2026-09-01T19:59:03Z</time>
  <course>170.38</course>
  <speed>2.74</speed>
  <fix>3d</fix>
</trkpt>
<trkpt lat="-27.2766563" lon="151.290047">
  <ele>465.92</ele>
  <time>2026-09-01T19:59:03Z</time>
  <course>167.37</course>
  <speed>1.8042727066604982</speed>
  <fix>3d</fix>
</trkpt>
<trkpt lat="-27.2766526" lon="151.2900464">
  <ele>466.86</ele>
  <time>2026-09-01T19:59:03Z</time>
  <course>170.38</course>
  <speed>2.74</speed>
  <fix>3d</fix>
</trkpt>
<trkpt lat="-27.2766578" lon="151.2900474">
  <ele>465.55</ele>
  <time>2026-09-01T19:59:03Z</time>
  <course>166.45</course>
  <speed>1.445856147754679</speed>
  <fix>3d</fix>
</trkpt>
<trkpt lat="-27.2766566" lon="151.2900472">
  <ele>466.08</ele>
  <time>2026-09-01T19:59:03Z</time>
  <course>168.59</course>
  <speed>1.87</speed>
  <fix>3d</fix>
</trkpt>
<trkpt lat="-27.2766589" lon="151.2900477">
  <ele>465.2</ele>
  <time>2026-09-01T19:59:03Z</time>
  <course>165.55</course>
  <speed>1.140175425099138</speed>
  <fix>3d</fix>
</trkpt>
<trkpt lat="-27.2766566" lon="151.2900472">
  <ele>466.08</ele>
  <time>2026-09-01T19:59:03Z</time>
  <course>168.59</course>
  <speed>1.87</speed>
  <fix>3d</fix>
</trkpt>
<trkpt lat="-27.2766598" lon="151.290048">
  <ele>464.87</ele>
  <time>2026-09-01T19:59:03Z</time>
  <course>164.72</course>
  <speed>0.8949301648732151</speed>
  <fix>3d</fix>
</trkpt>
<trkpt lat="-27.2766593" lon="151.2900479">
  <ele>465.37</ele>
  <time>2026-09-01T19:59:03Z</time>
  <course>164.85</course>
  <speed>1.21</speed>
  <fix>3d</fix>
</trkpt>
<trkpt lat="-27.2766605" lon="151.2900483">
  <ele>464.56</ele>
  <time>2026-09-01T19:59:03Z</time>
  <course>163.98</course>
  <speed>0.6985699678629191</speed>
  <fix>3d</fix>
</trkpt>
<trkpt lat="-27.2766593" lon="151.2900479">
  <ele>465.37</ele>
  <time>2026-09-01T19:59:03Z</time>
  <course>164.85</course>
  <speed>1.21</speed>
  <fix>3d</fix>
</trkpt>
<trkpt lat="-27.2766611" lon="151.2900486">
  <ele>464.28</ele>
  <time>2026-09-01T19:59:03Z</time>
  <course>163.35</course>
  <speed>0.5420332093147061</speed>
  <fix>3d</fix>
</trkpt>
<trkpt lat="-27.2766609" lon="151.2900485">
  <ele>464.75</ele>
  <time>2026-09-01T19:59:03Z</time>
  <course>157.16</course>
  <speed>0.75</speed>
  <fix>3d</fix>
</trkpt>
<trkpt lat="-27.2766615" lon="151.2900489">
  <ele>464.02</ele>
  <time>2026-09-01T19:59:03Z</time>
  <course>162.85</course>
  <speed>0.4186884283091664</speed>
  <fix>3d</fix>
</trkpt>
<trkpt lat="-27.2766609" lon="151.2900485">
  <ele>464.75</ele>
  <time>2026-09-01T19:59:03Z</time>
  <course>157.16</course>
  <speed>0.75</speed>
  <fix>3d</fix>
</trkpt>
<trkpt lat="-27.2766617" lon="151.2900492">
  <ele>463.78</ele>
  <time>2026-09-01T19:59:03Z</time>
  <course>162.5</course>
  <speed>0.3280243893371345</speed>
  <fix>3d</fix>
</trkpt>
<trkpt lat="-27.2766619" lon="151.2900491">
  <ele>464.21</ele>
  <time>2026-09-01T19:59:03Z</time>
  <course>142.31</course>
  <speed>0.46</speed>
  <fix>3d</fix>
</trkpt>
<trkpt lat="-27.2766619" lon="151.2900495">
  <ele>463.55</ele>
  <time>2026-09-01T19:59:03Z</time>
  <course>162.29</course>
  <speed>0.2751363298439521</speed>
  <fix>3d</fix>
</trkpt>
<trkpt lat="-27.2766619" lon="151.2900491">
  <ele>464.21</ele>
  <time>2026-09-01T19:59:03Z</time>
  <course>142.31</course>
  <speed>0.46</speed>
  <fix>3d</fix>
</trkpt>
<trkpt lat="-27.276662" lon="151.2900497">
  <ele>463.35</ele>
  <time>2026-09-01T19:59:03Z</time>
  <course>162.21</course>
  <speed>0.25</speed>
  <fix>3d</fix>
</trkpt>
<trkpt lat="-27.2766623" lon="151.2900497">
  <ele>463.74</ele>
  <time>2026-09-01T19:59:03Z</time>
  <course>115.82</course>
  <speed>0.31</speed>
  <fix>3d</fix>
</trkpt>
<trkpt lat="-27.276662" lon="151.29005">
  <ele>463.15</ele>
  <time>2026-09-01T19:59:03Z</time>
  <course>162.24</course>
  <speed>0.25</speed>
  <fix>3d</fix>
</trkpt>
<trkpt lat="-27.2766623" lon="151.2900497">
  <ele>463.74</ele>
  <time>2026-09-01T19:59:03Z</time>
  <course>115.82</course>
  <speed>0.31</speed>
  <fix>3d</fix>
</trkpt>
<trkpt lat="-27.2766619" lon="151.2900503">
  <ele>462.97</ele>
  <time>2026-09-01T19:59:03Z</time>
  <course>162.38</course>
  <speed>0.2778488797889961</speed>
  <fix>3d</fix>
</trkpt>
<trkpt lat="-27.2766625" lon="151.2900503">
  <ele>463.35</ele>
  <time>2026-09-01T19:59:03Z</time>
  <course>81.74</course>
  <speed>0.27</speed>
  <fix>3d</fix>
</trkpt>
<trkpt lat="-27.2766618" lon="151.2900505">
  <ele>462.8</ele>
  <time>2026-09-01T19:59:03Z</time>
  <course>162.61</course>
  <speed>0.3047950130825634</speed>
  <fix>3d</fix>
</trkpt>
<trkpt lat="-27.2766625" lon="151.2900503">
  <ele>463.35</ele>
  <time>2026-09-01T19:59:03Z</time>
  <course>81.74</course>
  <speed>0.27</speed>
  <fix>3d</fix>
</trkpt>
<trkpt lat="-27.2766617" lon="151.2900508">
  <ele>462.64</ele>
  <time>2026-09-01T19:59:03Z</time>
  <course>162.9</course>
  <speed>0.3397057550292606</speed>
  <fix>3d</fix>
</trkpt>
<trkpt lat="-27.2766623" lon="151.2900508">
  <ele>463.0</ele>
  <time>2026-09-01T19:59:03Z</time>
  <course>57.81</course>
  <speed>0.31</speed>
  <fix>3d</fix>
</trkpt>
<trkpt lat="-27.2766615" lon="151.2900511">
  <ele>462.48</ele>
  <time>2026-09-01T19:59:03Z</time>
  <course>163.22</course>
  <speed>0.35608987629529715</speed>
  <fix>3d</fix>
</trkpt>
<trkpt lat="-27.2766623" lon="151.2900508">
  <ele>463.0</ele>
  <time>2026-09-01T19:59:03Z</time>
  <course>57.81</course>
  <speed>0.31</speed>
  <fix>3d</fix>
</trkpt>
<trkpt lat="-27.2766612" lon="151.2900513">
  <ele>462.32</ele>
  <time>2026-09-01T19:59:03Z</time>
  <course>163.55</course>
  <speed>0.37443290453698114</speed>
  <fix>3d</fix>
</trkpt>
<trkpt lat="-27.2766619" lon="151.2900513">
  <ele>462.67</ele>
  <time>2026-09-01T19:59:03Z</time>
  <course>45.45</course>
  <speed>0.36</speed>
  <fix>3d</fix>
</trkpt>
<trkpt lat="-27.2766611" lon="151.2900515">
  <ele>462.16</ele>
  <time>2026-09-01T19:59:03Z</time>
  <course>163.84</course>
  <speed>0.3773592452822641</speed>
  <fix>3d</fix>
</trkpt>
<trkpt lat="-27.2766619" lon="151.2900513">
  <ele>462.67</ele>
  <time>2026-09-01T19:59:03Z</time>
  <course>45.45</course>
  <speed>0.36</speed>
  <fix>3d</fix>
</trkpt>
<trkpt lat="-27.2766608" lon="151.2900518">
  <ele>462.0</ele>
  <time>2026-09-01T19:59:03Z</time>
  <course>164.08</course>
  <speed>0.37589892258425</speed>
  <fix>3d</fix>
</trkpt>
<trkpt lat="-27.2766614" lon="151.2900518">
  <ele>462.36</ele>
  <time>2026-09-01T19:59:03Z</time>
  <course>38.94</course>
  <speed>0.38</speed>
  <fix>3d</fix>
</trkpt>
<trkpt lat="-27.2766605" lon="151.290052">
  <ele>461.84</ele>
  <time>2026-09-01T19:59:03Z</time>
  <course>164.24</course>
  <speed>0.3712142238654117</speed>
  <fix>3d</fix>
</trkpt>
<trkpt lat="-27.2766614" lon="151.2900518">
  <ele>462.36</ele>
  <time>2026-09-01T19:59:03Z</time>
  <course>38.94</course>
  <speed>0.38</speed>
  <fix>3d</fix>
</trkpt>
<trkpt lat="-27.2766603" lon="151.2900521">
  <ele>461.67</ele>
  <time>2026-09-01T19:59:03Z</time>
  <course>164.31</course>
  <speed>0.35341194094144585</speed>
  <fix>3d</fix>
</trkpt>
<trkpt lat="-27.2766609" lon="151.2900523">
  <ele>462.03</ele>
  <time>2026-09-01T19:59:03Z</time>
  <course>35.1</course>
  <speed>0.37</speed>
  <fix>3d</fix>
</trkpt>
<trkpt lat="-27.27666" lon="151.2900523">
  <ele>461.5</ele>
  <time>2026-09-01T19:59:03Z</time>
  <course>164.29</course>
  <speed>0.32695565448543634</speed>
  <fix>3d</fix>
</trkpt>
<trkpt lat="-27.2766609" lon="151.2900523">
  <ele>462.03</ele>
  <time>2026-09-01T19:59:03Z</time>
  <course>35.1</course>
  <speed>0.37</speed>
  <fix>3d</fix>
</trkpt>
<trkpt lat="-27.2766598" lon="151.2900525">
  <ele>461.32</ele>
  <time>2026-09-01T19:59:03Z</time>
  <course>164.17</course>
  <speed>0.2973213749463701</speed>
  <fix>3d</fix>
</trkpt>
<trkpt lat="-27.2766603" lon="151.2900527">
  <ele>461.68</ele>
  <time>2026-09-01T19:59:03Z</time>
  <course>32.53</course>
  <speed>0.33</speed>
  <fix>3d</fix>
</trkpt>
<trkpt lat="-27.2766596" lon="151.2900526">
  <ele>461.14</ele>
  <time>2026-09-01T19:59:03Z</time>
  <course>163.98</course>
  <speed>0.26248809496813374</speed>
  <fix>3d</fix>
</trkpt>
<trkpt lat="-27.2766603" lon="151.2900527">
  <ele>461.68</ele>
  <time>2026-09-01T19:59:03Z</time>
  <course>32.53</course>
  <speed>0.33</speed>
  <fix>3d</fix>
</trkpt>
<trkpt lat="-27.2766594" lon="151.2900527">
  <ele>460.95</ele>
  <time>2026-09-01T19:59:03Z</time>
  <course>163.72</course>
  <speed>0.22803508501982758</speed>
  <fix>3d</fix>
</trkpt>
<trkpt lat="-27.2766599" lon="151.290053">
  <ele>461.32</ele>
  <time>2026-09-01T19:59:03Z</time>
  <course>30.59</course>
  <speed>0.27</speed>
  <fix>3d</fix>
</trkpt>
<trkpt lat="-27.2766593" lon="151.2900528">
  <ele>460.75</ele>
  <time>2026-09-01T19:59:03Z</time>
  <course>163.43</course>
  <speed>0.1824828759089466</speed>
  <fix>3d</fix>
</trkpt>
<trkpt lat="-27.2766599" lon="151.290053">
  <ele>461.32</ele>
  <time>2026-09-01T19:59:03Z</time>
  <course>30.59</course>
  <speed>0.27</speed>
  <fix>3d</fix>
</trkpt>
<trkpt lat="-27.2766591" lon="151.2900529">
  <ele>460.55</ele>
  <time>2026-09-01T19:59:03Z</time>
  <course>163.13</course>
  <speed>0.140356688476182</speed>
  <fix>3d</fix>
</trkpt>
<trkpt lat="-27.2766595" lon="151.2900533">
  <ele>460.94</ele>
  <time>2026-09-01T19:59:03Z</time>
  <course>29.43</course>
  <speed>0.19</speed>
  <fix>3d</fix>
</trkpt>
<trkpt lat="-27.2766591" lon="151.290053">
  <ele>460.35</ele>
  <time>2026-09-01T19:59:03Z</time>
  <course>162.88</course>
  <speed>0.1</speed>
  <fix>3d</fix>
</trkpt>
<trkpt lat="-27.2766595" lon="151.2900533">
  <ele>460.94</ele>
  <time>2026-09-01T19:59:03Z</time>
  <course>29.43</course>
  <speed>0.19</speed>
  <fix>3d</fix>
</trkpt>
<trkpt lat="-27.276659" lon="151.290053">
  <ele>460.14</ele>
  <time>2026-09-01T19:59:03Z</time>
  <course>162.75</course>
  <speed>0.06082762530298219</speed>
  <fix>3d</fix>
</trkpt>
<trkpt lat="-27.2766593" lon="151.2900534">
  <ele>460.54</ele>
  <time>2026-09-01T19:59:03Z</time>
  <course>33.39</course>
  <speed>0.11</speed>
  <fix>3d</fix>
</trkpt>
<trkpt lat="-27.276659" lon="151.290053">
  <ele>459.94</ele>
  <time>2026-09-01T19:59:03Z</time>
  <course>162.88</course>
  <speed>0.02</speed>
  <fix>3d</fix>
</trkpt>
<trkpt lat="-27.2766593" lon="151.2900534">
  <ele>460.54</ele>
  <time>2026-09-01T19:59:03Z</time>
  <course>33.39</course>
  <speed>0.11</speed>
  <fix>3d</fix>
</trkpt>
<trkpt lat="-27.276659" lon="151.2900531">
  <ele>459.73</ele>
  <time>2026-09-01T19:59:03Z</time>
  <course>163.32</course>
  <speed>0.01</speed>
  <fix>3d</fix>
</trkpt>
<trkpt lat="-27.2766592" lon="151.2900535">
  <ele>460.13</ele>
  <time>2026-09-01T19:59:03Z</time>
  <course>76.17</course>
  <speed>0.05</speed>
  <fix>3d</fix>
</trkpt>
<trkpt lat="-27.2766591" lon="151.2900531">
  <ele>459.52</ele>
  <time>2026-09-01T19:59:03Z</time>
  <course>164.07</course>
  <speed>0.05099019513592785</speed>
  <fix>3d</fix>
</trkpt>
<trkpt lat="-27.2766592" lon="151.2900535">
  <ele>460.13</ele>
  <time>2026-09-01T19:59:03Z</time>
  <course>76.17</course>
  <speed>0.05</speed>
  <fix>3d</fix>
</trkpt>
<trkpt lat="-27.2766592" lon="151.2900532">
  <ele>459.31</ele>
  <time>2026-09-01T19:59:03Z</time>
  <course>165.02</course>
  <speed>0.09486832980505139</speed>
  <fix>3d</fix>
</trkpt>
<trkpt lat="-27.2766592" lon="151.2900536">
  <ele>459.72</ele>
  <time>2026-09-01T19:59:03Z</time>
  <course>129.71</course>
  <speed>0.1</speed>
  <fix>3d</fix>
</trkpt>
<trkpt lat="-27.2766592" lon="151.2900533">
  <ele>459.11</ele>
  <time>2026-09-01T19:59:03Z</time>
  <course>166.07</course>
  <speed>0.1392838827718412</speed>
  <fix>3d</fix>
</trkpt>
<trkpt lat="-27.2766592" lon="151.2900536">
  <ele>459.72</ele>
  <time>2026-09-01T19:59:03Z</time>
  <course>129.71</course>
  <speed>0.1</speed>
  <fix>3d</fix>
</trkpt>
<trkpt lat="-27.2766593" lon="151.2900534">
  <ele>458.9</ele>
  <time>2026-09-01T19:59:03Z</time>
  <course>167.12</course>
  <speed>0.18027756377319945</speed>
  <fix>3d</fix>
</trkpt>
<trkpt lat="-27.2766593" lon="151.2900538">
  <ele>459.3</ele>
  <time>2026-09-01T19:59:03Z</time>
  <course>141.86</course>
  <speed>0.18</speed>
  <fix>3d</fix>
</trkpt>
<trkpt lat="-27.2766595" lon="151.2900535">
  <ele>458.69</ele>
  <time>2026-09-01T19:59:03Z</time>
  <course>168.09</course>
  <speed>0.22472205054244232</speed>
  <fix>3d</fix>
</trkpt>
<trkpt lat="-27.2766593" lon="151.2900538">
  <ele>459.3</ele>
  <time>2026-09-01T19:59:03Z</time>
  <course>141.86</course>
  <speed>0.18</speed>
  <fix>3d</fix>
</trkpt>
<trkpt lat="-27.2766597" lon="151.2900537">
  <ele>458.48</ele>
  <time>2026-09-01T19:59:03Z</time>
  <course>168.91</course>
  <speed>0.2692582403567252</speed>
  <fix>3d</fix>
</trkpt>
<trkpt lat="-27.2766596" lon="151.2900541">
  <ele>458.88</ele>
  <time>2026-09-01T19:59:03Z</time>
  <course>146.3</course>
  <speed>0.26</speed>
  <fix>3d</fix>
</trkpt>
<trkpt lat="-27.27666" lon="151.2900539">
  <ele>458.27</ele>
  <time>2026-09-01T19:59:03Z</time>
  <course>169.53</course>
  <speed>0.3138470965295043</speed>
  <fix>3d</fix>
</trkpt>
<trkpt lat="-27.2766596" lon="151.2900541">
  <ele>458.88</ele>
  <time>2026-09-01T19:59:03Z</time>
  <course>146.3</course>
  <speed>0.26</speed>
  <fix>3d</fix>
</trkpt>
<trkpt lat="-27.2766603" lon="151.290054">
  <ele>458.07</ele>
  <time>2026-09-01T19:59:03Z</time>
  <course>169.93</course>
  <speed>0.3584689665786984</speed>
  <fix>3d</fix>
</trkpt>
<trkpt lat="-27.2766601" lon="151.2900545">
  <ele>458.47</ele>
  <time>2026-09-01T19:59:03Z</time>
  <course>148.6</course>
  <speed>0.35</speed>
  <fix>3d</fix>
</trkpt>
<trkpt lat="-27.2766606" lon="151.2900543">
  <ele>457.86</ele>
  <time>2026-09-01T19:59:03Z</time>
  <course>170.11</course>
  <speed>0.40311288741492746</speed>
  <fix>3d</fix>
</trkpt>
<trkpt lat="-27.2766601" lon="151.2900545">
  <ele>458.47</ele>
  <time>2026-09-01T19:59:03Z</time>
  <course>148.6</course>
  <speed>0.35</speed>
  <fix>3d</fix>
</trkpt>
<trkpt lat="-27.276661" lon="151.2900545">
  <ele>457.66</ele>
  <time>2026-09-01T19:59:03Z</time>
  <course>170.13</course>
  <speed>0.4438468204234429</speed>
  <fix>3d</fix>
</trkpt>
<trkpt lat="-27.2766607" lon="151.2900548">
  <ele>458.06</ele>
  <time>2026-09-01T19:59:03Z</time>
  <course>149.96</course>
  <speed>0.44</speed>
  <fix>3d</fix>
</trkpt>
<trkpt lat="-27.2766614" lon="151.2900548">
  <ele>457.45</ele>
  <time>2026-09-01T19:59:03Z</time>
  <course>170.03</course>
  <speed>0.4884669896727925</speed>
  <fix>3d</fix>
</trkpt>
<trkpt lat="-27.2766607" lon="151.2900548">
  <ele>458.06</ele>
  <time>2026-09-01T19:59:03Z</time>
  <course>149.96</course>
  <speed>0.44</speed>
  <fix>3d</fix>
</trkpt>
<trkpt lat="-27.2766618" lon="151.290055">
  <ele>457.25</ele>
  <time>2026-09-01T19:59:03Z</time>
  <course>169.87</course>
  <speed>0.5331041174104736</speed>
  <fix>3d</fix>
</trkpt>
<trkpt lat="-27.2766614" lon="151.2900553">
  <ele>457.65</ele>
  <time>2026-09-01T19:59:03Z</time>
  <course>150.9</course>
  <speed>0.53</speed>
  <fix>3d</fix>
</trkpt>
<trkpt lat="-27.2766623" lon="151.2900553">
  <ele>457.05</ele>
  <time>2026-09-01T19:59:03Z</time>
  <course>169.7</course>
  <speed>0.5777542730261715</speed>
  <fix>3d</fix>
</trkpt>
<trkpt lat="-27.2766614" lon="151.2900553">
  <ele>457.65</ele>
  <time>2026-09-01T19:59:03Z</time>
  <course>150.9</course>
  <speed>0.53</speed>
  <fix>3d</fix>
</trkpt>
<trkpt lat="-27.2766628" lon="151.2900556">
  <ele>456.85</ele>
  <time>2026-09-01T19:59:03Z</time>
  <course>169.56</course>
  <speed>0.6092618484691127</speed>
  <fix>3d</fix>
</trkpt>
<trkpt lat="-27.2766624" lon="151.290056">
  <ele>457.26</ele>
  <time>2026-09-01T19:59:03Z</time>
  <course>151.74</course>
  <speed>0.61</speed>
  <fix>3d</fix>
</trkpt>
<trkpt lat="-27.2766633" lon="151.2900559">
  <ele>456.66</ele>
  <time>2026-09-01T19:59:03Z</time>
  <course>169.46</course>
  <speed>0.6539113089708727</speed>
  <fix>3d</fix>
</trkpt>
<trkpt lat="-27.2766624" lon="151.290056">
  <ele>457.26</ele>
  <time>2026-09-01T19:59:03Z</time>
  <course>151.74</course>
  <speed>0.61</speed>
  <fix>3d</fix>
</trkpt>
<trkpt lat="-27.2766639" lon="151.2900563">
  <ele>456.46</ele>
  <time>2026-09-01T19:59:03Z</time>
  <course>169.42</course>
  <speed>0.6946221994724903</speed>
  <fix>3d</fix>
</trkpt>
<trkpt lat="-27.2766634" lon="151.2900566">
  <ele>456.86</ele>
  <time>2026-09-01T19:59:03Z</time>
  <course>152.63</course>
  <speed>0.7</speed>
  <fix>3d</fix>
</trkpt>
<trkpt lat="-27.2766645" lon="151.2900566">
  <ele>456.26</ele>
  <time>2026-09-01T19:59:03Z</time>
  <course>169.42</course>
  <speed>0.7392563831310488</speed>
  <fix>3d</fix>
</trkpt>
<trkpt lat="-27.2766634" lon="151.2900566">
  <ele>456.86</ele>
  <time>2026-09-01T19:59:03Z</time>
  <course>152.63</course>
  <speed>0.7</speed>
  <fix>3d</fix>
</trkpt>
<trkpt lat="-27.2766651" lon="151.290057">
  <ele>456.07</ele>
  <time>2026-09-01T19:59:03Z</time>
  <course>169.45</course>
  <speed>0.7707788269017254</speed>
  <fix>3d</fix>
</trkpt>
<trkpt lat="-27.2766646" lon="151.2900572">
  <ele>456.46</ele>
  <time>2026-09-01T19:59:03Z</time>
  <course>153.58</course>
  <speed>0.77</speed>
  <fix>3d</fix>
</trkpt>
<trkpt lat="-27.2766658" lon="151.2900574">
  <ele>455.87</ele>
  <time>2026-09-01T19:59:03Z</time>
  <course>169.51</course>
  <speed>0.8023091673413684</speed>
  <fix>3d</fix>
</trkpt>
<trkpt lat="-27.2766646" lon="151.2900572">
  <ele>456.46</ele>
  <time>2026-09-01T19:59:03Z</time>
  <course>153.58</course>
  <speed>0.77</speed>
  <fix>3d</fix>
</trkpt>
<trkpt lat="-27.2766665" lon="151.2900577">
  <ele>455.67</ele>
  <time>2026-09-01T19:59:03Z</time>
  <course>169.58</course>
  <speed>0.8300602387778854</speed>
  <fix>3d</fix>
</trkpt>
<trkpt lat="-27.2766659" lon="151.2900579">
  <ele>456.07</ele>
  <time>2026-09-01T19:59:03Z</time>
  <course>154.53</course>
  <speed>0.84</speed>
  <fix>3d</fix>
</trkpt>
<trkpt lat="-27.2766672" lon="151.2900581">
  <ele>455.47</ele>
  <time>2026-09-01T19:59:03Z</time>
  <course>169.65</course>
  <speed>0.8616263691415206</speed>
  <fix>3d</fix>
</trkpt>
<trkpt lat="-27.2766659" lon="151.2900579">
  <ele>456.07</ele>
  <time>2026-09-01T19:59:03Z</time>
  <course>154.53</course>
  <speed>0.84</speed>
  <fix>3d</fix>
</trkpt>
<trkpt lat="-27.2766679" lon="151.2900585">
  <ele>455.27</ele>
  <time>2026-09-01T19:59:03Z</time>
  <course>169.71</course>
  <speed>0.8802272433866155</speed>
  <fix>3d</fix>
</trkpt>
<trkpt lat="-27.2766673" lon="151.2900586">
  <ele>455.68</ele>
  <time>2026-09-01T19:59:03Z</time>
  <course>155.43</course>
  <speed>0.9</speed>
  <fix>3d</fix>
</trkpt>
<trkpt lat="-27.2766687" lon="151.2900589">
  <ele>455.07</ele>
  <time>2026-09-01T19:59:03Z</time>
  <course>169.76</course>
  <speed>0.9118113840043894</speed>
  <fix>3d</fix>
</trkpt>
<trkpt lat="-27.2766673" lon="151.2900586">
  <ele>455.68</ele>
  <time>2026-09-01T19:59:03Z</time>
  <course>155.43</course>
  <speed>0.9</speed>
  <fix>3d</fix>
</trkpt>
<trkpt lat="-27.2766695" lon="151.2900593">
  <ele>454.88</ele>
  <time>2026-09-01T19:59:03Z</time>
  <course>169.8</course>
  <speed>0.9304837451562494</speed>
  <fix>3d</fix>
</trkpt>
<trkpt lat="-27.2766689" lon="151.2900594">
  <ele>455.28</ele>
  <time>2026-09-01T19:59:03Z</time>
  <course>156.32</course>
  <speed>0.95</speed>
  <fix>3d</fix>
</trkpt>
<trkpt lat="-27.2766703" lon="151.2900597">
  <ele>454.68</ele>
  <time>2026-09-01T19:59:03Z</time>
  <course>169.82</course>
  <speed>0.9398404119849285</speed>
  <fix>3d</fix>
</trkpt>
<trkpt lat="-27.2766689" lon="151.2900594">
  <ele>455.28</ele>
  <time>2026-09-01T19:59:03Z</time>
  <course>156.32</course>
  <speed>0.95</speed>
  <fix>3d</fix>
</trkpt>
<trkpt lat="-27.2766711" lon="151.2900601">
  <ele>454.48</ele>
  <time>2026-09-01T19:59:03Z</time>
  <course>169.84</course>
  <speed>0.9585927185202274</speed>
  <fix>3d</fix>
</trkpt>
<trkpt lat="-27.2766705" lon="151.2900603">
  <ele>454.89</ele>
  <time>2026-09-01T19:59:03Z</time>
  <course>157.16</course>
  <speed>0.98</speed>
  <fix>3d</fix>
</trkpt>
<trkpt lat="-27.276672" lon="151.2900605">
  <ele>454.28</ele>
  <time>2026-09-01T19:59:03Z</time>
  <course>169.85</course>
  <speed>0.9679876032264049</speed>
  <fix>3d</fix>
</trkpt>
<trkpt lat="-27.2766705" lon="151.2900603">
  <ele>454.89</ele>
  <time>2026-09-01T19:59:03Z</time>
  <course>157.16</course>
  <speed>0.98</speed>
  <fix>3d</fix>
</trkpt>
<trkpt lat="-27.2766728" lon="151.2900609">
  <ele>454.09</ele>
  <time>2026-09-01T19:59:03Z</time>
  <course>169.87</course>
  <speed>0.9740636529508737</speed>
  <fix>3d</fix>
</trkpt>
<trkpt lat="-27.2766721" lon="151.290061">
  <ele>454.5</ele>
  <time>2026-09-01T19:59:03Z</time>
  <course>157.96</course>
  <speed>1.0</speed>
  <fix>3d</fix>
</trkpt>
<trkpt lat="-27.2766736" lon="151.2900613">
  <ele>453.89</ele>
  <time>2026-09-01T19:59:03Z</time>
  <course>169.88</course>
  <speed>0.9740636529508737</speed>
  <fix>3d</fix>
</trkpt>
<trkpt lat="-27.2766721" lon="151.290061">
  <ele>454.5</ele>
  <time>2026-09-01T19:59:03Z</time>
  <course>157.96</course>
  <speed>1.0</speed>
  <fix>3d</fix>
</trkpt>
<trkpt lat="-27.2766745" lon="151.2900616">
  <ele>453.7</ele>
  <time>2026-09-01T19:59:03Z</time>
  <course>169.9</course>
  <speed>0.97082439194738</speed>
  <fix>3d</fix>
</trkpt>
<trkpt lat="-27.2766738" lon="151.2900618">
  <ele>454.1</ele>
  <time>2026-09-01T19:59:03Z</time>
  <course>158.73</course>
  <speed>1.01</speed>
  <fix>3d</fix>
</trkpt>
<trkpt lat="-27.2766753" lon="151.290062">
  <ele>453.5</ele>
  <time>2026-09-01T19:59:03Z</time>
  <course>169.92</course>
  <speed>0.97082439194738</speed>
  <fix>3d</fix>
</trkpt>
<trkpt lat="-27.2766738" lon="151.2900618">
  <ele>454.1</ele>
  <time>2026-09-01T19:59:03Z</time>
  <course>158.73</course>
  <speed>1.01</speed>
  <fix>3d</fix>
</trkpt>
<trkpt lat="-27.2766762" lon="151.2900624">
  <ele>453.3</ele>
  <time>2026-09-01T19:59:03Z</time>
  <course>169.95</course>
  <speed>0.9581753492967766</speed>
  <fix>3d</fix>
</trkpt>
<trkpt lat="-27.2766738" lon="151.2900618">
  <ele>454.1</ele>
  <time>2026-09-01T19:59:03Z</time>
  <course>158.73</course>
  <speed>1.01</speed>
  <fix>3d</fix>
</trkpt>
<trkpt lat="-27.276677" lon="151.2900627">
  <ele>453.1</ele>
  <time>2026-09-01T19:59:03Z</time>
  <course>169.98</course>
  <speed>0.945568612000208</speed>
  <fix>3d</fix>
</trkpt>
<trkpt lat="-27.2766755" lon="151.2900625">
  <ele>453.71</ele>
  <time>2026-09-01T19:59:03Z</time>
  <course>159.51</course>
  <speed>1.01</speed>
  <fix>3d</fix>
</trkpt>
<trkpt lat="-27.2766778" lon="151.2900631">
  <ele>452.9</ele>
  <time>2026-09-01T19:59:03Z</time>
  <course>170.01</course>
  <speed>0.9330058949438638</speed>
  <fix>3d</fix>
</trkpt>
<trkpt lat="-27.2766772" lon="151.2900632">
  <ele>453.31</ele>
  <time>2026-09-01T19:59:03Z</time>
  <course>160.3</course>
  <speed>0.99</speed>
  <fix>3d</fix>
</trkpt>
<trkpt lat="-27.2766786" lon="151.2900634">
  <ele>452.7</ele>
  <time>2026-09-01T19:59:03Z</time>
  <course>170.04</course>
  <speed>0.9204890004774636</speed>
  <fix>3d</fix>
</trkpt>
<trkpt lat="-27.2766772" lon="151.2900632">
  <ele>453.31</ele>
  <time>2026-09-01T19:59:03Z</time>
  <course>160.3</course>
  <speed>0.99</speed>
  <fix>3d</fix>
</trkpt>
<trkpt lat="-27.2766794" lon="151.2900637">
  <ele>452.5</ele>
  <time>2026-09-01T19:59:03Z</time>
  <course>170.08</course>
  <speed>0.8984430978086481</speed>
  <fix>3d</fix>
</trkpt>
<trkpt lat="-27.2766789" lon="151.2900639">
  <ele>452.91</ele>
  <time>2026-09-01T19:59:03Z</time>
  <course>161.09</course>
  <speed>0.95</speed>
  <fix>3d</fix>
</trkpt>
<trkpt lat="-27.2766802" lon="151.290064">
  <ele>452.3</ele>
  <time>2026-09-01T19:59:03Z</time>
  <course>170.1</course>
  <speed>0.8736131867136622</speed>
  <fix>3d</fix>
</trkpt>
<trkpt lat="-27.2766789" lon="151.2900639">
  <ele>452.91</ele>
  <time>2026-09-01T19:59:03Z</time>
  <course>161.09</course>
  <speed>0.95</speed>
  <fix>3d</fix>
</trkpt>
<trkpt lat="-27.276681" lon="151.2900643">
  <ele>452.1</ele>
  <time>2026-09-01T19:59:03Z</time>
  <course>170.13</course>
  <speed>0.8516454661418682</speed>
  <fix>3d</fix>
</trkpt>
<trkpt lat="-27.2766805" lon="151.2900644">
  <ele>452.52</ele>
  <time>2026-09-01T19:59:03Z</time>
  <course>161.9</course>
  <speed>0.91</speed>
  <fix>3d</fix>
</trkpt>
<trkpt lat="-27.2766818" lon="151.2900646">
  <ele>451.9</ele>
  <time>2026-09-01T19:59:03Z</time>
  <course>170.16</course>
  <speed>0.8200609733428362</speed>
  <fix>3d</fix>
</trkpt>
<trkpt lat="-27.2766805" lon="151.2900644">
  <ele>452.52</ele>
  <time>2026-09-01T19:59:03Z</time>
  <course>161.9</course>
  <speed>0.91</speed>
  <fix>3d</fix>
</trkpt>
<trkpt lat="-27.2766825" lon="151.2900648">
  <ele>451.7</ele>
  <time>2026-09-01T19:59:03Z</time>
  <course>170.18</course>
  <speed>0.78587530817554</speed>
  <fix>3d</fix>
</trkpt>
<trkpt lat="-27.276682" lon="151.290065">
  <ele>452.12</ele>
  <time>2026-09-01T19:59:03Z</time>
  <course>162.76</course>
  <speed>0.86</speed>
  <fix>3d</fix>
</trkpt>
<trkpt lat="-27.2766832" lon="151.2900651">
  <ele>451.51</ele>
  <time>2026-09-01T19:59:03Z</time>
  <course>170.21</course>
  <speed>0.7640026177965623</speed>
  <fix>3d</fix>
</trkpt>
<trkpt lat="-27.276682" lon="151.290065">
  <ele>452.12</ele>
  <time>2026-09-01T19:59:03Z</time>
  <course>162.76</course>
  <speed>0.86</speed>
  <fix>3d</fix>
</trkpt>
<trkpt lat="-27.2766839" lon="151.2900653">
  <ele>451.31</ele>
  <time>2026-09-01T19:59:03Z</time>
  <course>170.24</course>
  <speed>0.7203471385380802</speed>
  <fix>3d</fix>
</trkpt>
<trkpt lat="-27.2766835" lon="151.2900654">
  <ele>451.72</ele>
  <time>2026-09-01T19:59:03Z</time>
  <course>163.67</course>
  <speed>0.8</speed>
  <fix>3d</fix>
</trkpt>
<trkpt lat="-27.2766845" lon="151.2900655">
  <ele>451.11</ele>
  <time>2026-09-01T19:59:03Z</time>
  <course>170.27</course>
  <speed>0.688839603971781</speed>
  <fix>3d</fix>
</trkpt>
<trkpt lat="-27.2766835" lon="151.2900654">
  <ele>451.72</ele>
  <time>2026-09-01T19:59:03Z</time>
  <course>163.67</course>
  <speed>0.8</speed>
  <fix>3d</fix>
</trkpt>
<trkpt lat="-27.2766851" lon="151.2900657">
  <ele>450.91</ele>
  <time>2026-09-01T19:59:03Z</time>
  <course>170.3</course>
  <speed>0.655133574166368</speed>
  <fix>3d</fix>
</trkpt>
<trkpt lat="-27.2766848" lon="151.2900659">
  <ele>451.33</ele>
  <time>2026-09-01T19:59:03Z</time>
  <course>164.65</course>
  <speed>0.73</speed>
  <fix>3d</fix>
</trkpt>
<trkpt lat="-27.2766857" lon="151.2900659">
  <ele>450.71</ele>
  <time>2026-09-01T19:59:03Z</time>
  <course>170.33</course>
  <speed>0.6139218191268331</speed>
  <fix>3d</fix>
</trkpt>
<trkpt lat="-27.2766848" lon="151.2900659">
  <ele>451.33</ele>
  <time>2026-09-01T19:59:03Z</time>
  <course>164.65</course>
  <speed>0.73</speed>
  <fix>3d</fix>
</trkpt>
<trkpt lat="-27.2766863" lon="151.290066">
  <ele>450.52</ele>
  <time>2026-09-01T19:59:03Z</time>
  <course>170.36</course>
  <speed>0.5805170109479997</speed>
  <fix>3d</fix>
</trkpt>
<trkpt lat="-27.276686" lon="151.2900662">
  <ele>450.93</ele>
  <time>2026-09-01T19:59:03Z</time>
  <course>165.73</course>
  <speed>0.65</speed>
  <fix>3d</fix>
</trkpt>
<trkpt lat="-27.2766868" lon="151.2900662">
  <ele>450.32</ele>
  <time>2026-09-01T19:59:03Z</time>
  <course>170.4</course>
  <speed>0.539351462406472</speed>
  <fix>3d</fix>
</trkpt>
<trkpt lat="-27.276686" lon="151.2900662">
  <ele>450.93</ele>
  <time>2026-09-01T19:59:03Z</time>
  <course>165.73</course>
  <speed>0.65</speed>
  <fix>3d</fix>
</trkpt>
<trkpt lat="-27.2766873" lon="151.2900663">
  <ele>450.12</ele>
  <time>2026-09-01T19:59:03Z</time>
  <course>170.43</course>
  <speed>0.49648766349225637</speed>
  <fix>3d</fix>
</trkpt>
<trkpt lat="-27.276687" lon="151.2900666">
  <ele>450.53</ele>
  <time>2026-09-01T19:59:03Z</time>
  <course>166.94</course>
  <speed>0.57</speed>
  <fix>3d</fix>
</trkpt>
<trkpt lat="-27.2766877" lon="151.2900664">
  <ele>449.92</ele>
  <time>2026-09-01T19:59:03Z</time>
  <course>170.46</course>
  <speed>0.46529560496527367</speed>
  <fix>3d</fix>
</trkpt>
<trkpt lat="-27.276687" lon="151.2900666">
  <ele>450.53</ele>
  <time>2026-09-01T19:59:03Z</time>
  <course>166.94</course>
  <speed>0.57</speed>
  <fix>3d</fix>
</trkpt>
<trkpt lat="-27.2766882" lon="151.2900665">
  <ele>449.73</ele>
  <time>2026-09-01T19:59:03Z</time>
  <course>170.5</course>
  <speed>0.422965719651132</speed>
  <fix>3d</fix>
</trkpt>
<trkpt lat="-27.276688" lon="151.2900667">
  <ele>450.13</ele>
  <time>2026-09-01T19:59:03Z</time>
  <course>168.33</course>
  <speed>0.5</speed>
  <fix>3d</fix>
</trkpt>
<trkpt lat="-27.2766885" lon="151.2900666">
  <ele>449.53</ele>
  <time>2026-09-01T19:59:03Z</time>
  <course>170.54</course>
  <speed>0.3920459156782532</speed>
  <fix>3d</fix>
</trkpt>
<trkpt lat="-27.276688" lon="151.2900667">
  <ele>450.13</ele>
  <time>2026-09-01T19:59:03Z</time>
  <course>168.33</course>
  <speed>0.5</speed>
  <fix>3d</fix>
</trkpt>
<trkpt lat="-27.2766889" lon="151.2900667">
  <ele>449.33</ele>
  <time>2026-09-01T19:59:03Z</time>
  <course>170.58</course>
  <speed>0.35128336140500593</speed>
  <fix>3d</fix>
</trkpt>
<trkpt lat="-27.276688" lon="151.2900667">
  <ele>450.13</ele>
  <time>2026-09-01T19:59:03Z</time>
  <course>168.33</course>
  <speed>0.5</speed>
  <fix>3d</fix>
</trkpt>
<trkpt lat="-27.2766892" lon="151.2900667">
  <ele>449.13</ele>
  <time>2026-09-01T19:59:03Z</time>
  <course>170.63</course>
  <speed>0.32062439083762795</speed>
  <fix>3d</fix>
</trkpt>
<trkpt lat="-27.2766888" lon="151.290067">
  <ele>449.74</ele>
  <time>2026-09-01T19:59:03Z</time>
  <course>169.96</course>
  <speed>0.42</speed>
  <fix>3d</fix>
</trkpt>
<trkpt lat="-27.2766895" lon="151.2900668">
  <ele>448.93</ele>
  <time>2026-09-01T19:59:03Z</time>
  <course>170.68</course>
  <speed>0.280178514522438</speed>
  <fix>3d</fix>
</trkpt>
<trkpt lat="-27.2766888" lon="151.290067">
  <ele>449.74</ele>
  <time>2026-09-01T19:59:03Z</time>
  <course>169.96</course>
  <speed>0.42</speed>
  <fix>3d</fix>
</trkpt>
<trkpt lat="-27.2766898" lon="151.2900668">
  <ele>448.73</ele>
  <time>2026-09-01T19:59:03Z</time>
  <course>170.74</course>
  <speed>0.25</speed>
  <fix>3d</fix>
</trkpt>
<trkpt lat="-27.2766895" lon="151.2900671">
  <ele>449.34</ele>
  <time>2026-09-01T19:59:03Z</time>
  <course>171.85</course>
  <speed>0.35</speed>
  <fix>3d</fix>
</trkpt>
<trkpt lat="-27.27669" lon="151.2900668">
  <ele>448.52</ele>
  <time>2026-09-01T19:59:03Z</time>
  <course>170.81</course>
  <speed>0.22</speed>
  <fix>3d</fix>
</trkpt>
<trkpt lat="-27.2766895" lon="151.2900671">
  <ele>449.34</ele>
  <time>2026-09-01T19:59:03Z</time>
  <course>171.85</course>
  <speed>0.35</speed>
  <fix>3d</fix>
</trkpt>
<trkpt lat="-27.2766903" lon="151.2900669">
  <ele>448.32</ele>
  <time>2026-09-01T19:59:03Z</time>
  <course>170.89</course>
  <speed>0.19026297590440447</speed>
  <fix>3d</fix>
</trkpt>
<trkpt lat="-27.2766901" lon="151.2900671">
  <ele>448.94</ele>
  <time>2026-09-01T19:59:03Z</time>
  <course>174.02</course>
  <speed>0.28</speed>
  <fix>3d</fix>
</trkpt>
<trkpt lat="-27.2766904" lon="151.2900669">
  <ele>448.12</ele>
  <time>2026-09-01T19:59:03Z</time>
  <course>170.99</course>
  <speed>0.16031219541881397</speed>
  <fix>3d</fix>
</trkpt>
<trkpt lat="-27.2766901" lon="151.2900671">
  <ele>448.94</ele>
  <time>2026-09-01T19:59:03Z</time>
  <course>174.02</course>
  <speed>0.28</speed>
  <fix>3d</fix>
</trkpt>
<trkpt lat="-27.2766906" lon="151.2900669">
  <ele>447.92</ele>
  <time>2026-09-01T19:59:03Z</time>
  <course>171.1</course>
  <speed>0.13152946437965907</speed>
  <fix>3d</fix>
</trkpt>
<trkpt lat="-27.2766906" lon="151.2900672">
  <ele>448.53</ele>
  <time>2026-09-01T19:59:03Z</time>
  <course>176.4</course>
  <speed>0.22</speed>
  <fix>3d</fix>
</trkpt>
<trkpt lat="-27.2766907" lon="151.2900669">
  <ele>447.71</ele>
  <time>2026-09-01T19:59:03Z</time>
  <course>171.23</course>
  <speed>0.1118033988749895</speed>
  <fix>3d</fix>
</trkpt>
<trkpt lat="-27.2766906" lon="151.2900672">
  <ele>448.53</ele>
  <time>2026-09-01T19:59:03Z</time>
  <course>176.4</course>
  <speed>0.22</speed>
  <fix>3d</fix>
</trkpt>
<trkpt lat="-27.2766909" lon="151.2900669">
  <ele>447.51</ele>
  <time>2026-09-01T19:59:03Z</time>
  <course>171.4</course>
  <speed>0.0824621125123532</speed>
  <fix>3d</fix>
</trkpt>
<trkpt lat="-27.2766909" lon="151.2900673">
  <ele>448.14</ele>
  <time>2026-09-01T19:59:03Z</time>
  <course>178.56</course>
  <speed>0.16</speed>
  <fix>3d</fix>
</trkpt>
<trkpt lat="-27.2766909" lon="151.2900669">
  <ele>447.32</ele>
  <time>2026-09-01T19:59:03Z</time>
  <course>171.62</course>
  <speed>0.06082762530298219</speed>
  <fix>3d</fix>
</trkpt>
<trkpt lat="-27.2766912" lon="151.2900673">
  <ele>447.74</ele>
  <time>2026-09-01T19:59:03Z</time>
  <course>178.25</course>
  <speed>0.11</speed>
  <fix>3d</fix>
</trkpt>
<trkpt lat="-27.276691" lon="151.2900669">
  <ele>447.12</ele>
  <time>2026-09-01T19:59:03Z</time>
  <course>171.93</course>
  <speed>0.03</speed>
  <fix>3d</fix>
</trkpt>
<trkpt lat="-27.2766912" lon="151.2900673">
  <ele>447.74</ele>
  <time>2026-09-01T19:59:03Z</time>
  <course>178.25</course>
  <speed>0.11</speed>
  <fix>3d</fix>
</trkpt>
<trkpt lat="-27.2766911" lon="151.290067">
  <ele>446.92</ele>
  <time>2026-09-01T19:59:03Z</time>
  <course>172.35</course>
  <speed>0.01</speed>
  <fix>3d</fix>
</trkpt>
<trkpt lat="-27.2766913" lon="151.2900673">
  <ele>447.34</ele>
  <time>2026-09-01T19:59:03Z</time>
  <course>166.06</course>
  <speed>0.06</speed>
  <fix>3d</fix>
</trkpt>
<trkpt lat="-27.2766911" lon="151.290067">
  <ele>446.72</ele>
  <time>2026-09-01T19:59:03Z</time>
  <course>172.61</course>
  <speed>0.0</speed>
  <fix>3d</fix>
</trkpt>
<trkpt lat="-27.2766913" lon="151.2900673">
  <ele>447.34</ele>
  <time>2026-09-01T19:59:03Z</time>
  <course>166.06</course>
  <speed>0.06</speed>
  <fix>3d</fix>
</trkpt>
<trkpt lat="-27.2766911" lon="151.290067">
  <ele>446.52</ele>
  <time>2026-09-01T19:59:03Z</time>
  <course>172.72</course>
  <speed>0.02</speed>
  <fix>3d</fix>
</trkpt>
<trkpt lat="-27.2766914" lon="151.2900673">
  <ele>446.94</ele>
  <time>2026-09-01T19:59:03Z</time>
  <course>130.34</course>
  <speed>0.03</speed>
  <fix>3d</fix>
</trkpt>
<trkpt lat="-27.2766911" lon="151.2900671">
  <ele>446.32</ele>
  <time>2026-09-01T19:59:03Z</time>
  <course>172.71</course>
  <speed>0.03</speed>
  <fix>3d</fix>
</trkpt>
<trkpt lat="-27.2766914" lon="151.2900673">
  <ele>446.94</ele>
  <time>2026-09-01T19:59:03Z</time>
  <course>130.34</course>
  <speed>0.03</speed>
  <fix>3d</fix>
</trkpt>
<trkpt lat="-27.2766911" lon="151.2900671">
  <ele>446.13</ele>
  <time>2026-09-01T19:59:03Z</time>
  <course>172.61</course>
  <speed>0.05</speed>
  <fix>3d</fix>
</trkpt>
<trkpt lat="-27.2766914" lon="151.2900674">
  <ele>446.54</ele>
  <time>2026-09-01T19:59:03Z</time>
  <course>62.15</course>
  <speed>0.02</speed>
  <fix>3d</fix>
</trkpt>
<trkpt lat="-27.2766911" lon="151.2900671">
  <ele>445.93</ele>
  <time>2026-09-01T19:59:03Z</time>
  <course>172.47</course>
  <speed>0.06</speed>
  <fix>3d</fix>
</trkpt>
<trkpt lat="-27.2766914" lon="151.2900674">
  <ele>446.54</ele>
  <time>2026-09-01T19:59:03Z</time>
  <course>62.15</course>
  <speed>0.02</speed>
  <fix>3d</fix>
</trkpt>
<trkpt lat="-27.2766911" lon="151.2900671">
  <ele>445.73</ele>
  <time>2026-09-01T19:59:03Z</time>
  <course>172.32</course>
  <speed>0.07</speed>
  <fix>3d</fix>
</trkpt>
<trkpt lat="-27.2766913" lon="151.2900674">
  <ele>446.15</ele>
  <time>2026-09-01T19:59:03Z</time>
  <course>27.82</course>
  <speed>0.05</speed>
  <fix>3d</fix>
</trkpt>
<trkpt lat="-27.2766911" lon="151.2900672">
  <ele>445.53</ele>
  <time>2026-09-01T19:59:03Z</time>
  <course>172.18</course>
  <speed>0.09</speed>
  <fix>3d</fix>
</trkpt>
<trkpt lat="-27.2766913" lon="151.2900674">
  <ele>446.15</ele>
  <time>2026-09-01T19:59:03Z</time>
  <course>27.82</course>
  <speed>0.05</speed>
  <fix>3d</fix>
</trkpt>
<trkpt lat="-27.276691" lon="151.2900672">
  <ele>445.34</ele>
  <time>2026-09-01T19:59:03Z</time>
  <course>172.07</course>
  <speed>0.1</speed>
  <fix>3d</fix>
</trkpt>
<trkpt lat="-27.2766913" lon="151.2900675">
  <ele>445.75</ele>
  <time>2026-09-01T19:59:03Z</time>
  <course>16.06</course>
  <speed>0.07</speed>
  <fix>3d</fix>
</trkpt>
<trkpt lat="-27.2766909" lon="151.2900672">
  <ele>445.14</ele>
  <time>2026-09-01T19:59:03Z</time>
  <course>172.01</course>
  <speed>0.11</speed>
  <fix>3d</fix>
</trkpt>
<trkpt lat="-27.2766913" lon="151.2900675">
  <ele>445.75</ele>
  <time>2026-09-01T19:59:03Z</time>
  <course>16.06</course>
  <speed>0.07</speed>
  <fix>3d</fix>
</trkpt>
<trkpt lat="-27.2766909" lon="151.2900672">
  <ele>444.93</ele>
  <time>2026-09-01T19:59:03Z</time>
  <course>171.99</course>
  <speed>0.12</speed>
  <fix>3d</fix>
</trkpt>
<trkpt lat="-27.2766913" lon="151.2900675">
  <ele>445.75</ele>
  <time>2026-09-01T19:59:03Z</time>
  <course>16.06</course>
  <speed>0.07</speed>
  <fix>3d</fix>
</trkpt>
<trkpt lat="-27.2766908" lon="151.2900672">
  <ele>444.73</ele>
  <time>2026-09-01T19:59:03Z</time>
  <course>172.03</course>
  <speed>0.13</speed>
  <fix>3d</fix>
</trkpt>
<trkpt lat="-27.2766912" lon="151.2900675">
  <ele>445.34</ele>
  <time>2026-09-01T19:59:03Z</time>
  <course>11.09</course>
  <speed>0.09</speed>
  <fix>3d</fix>
</trkpt>
<trkpt lat="-27.2766907" lon="151.2900673">
  <ele>444.53</ele>
  <time>2026-09-01T19:59:03Z</time>
  <course>172.11</course>
  <speed>0.13</speed>
  <fix>3d</fix>
</trkpt>
<trkpt lat="-27.2766912" lon="151.2900675">
  <ele>445.34</ele>
  <time>2026-09-01T19:59:03Z</time>
  <course>11.09</course>
  <speed>0.09</speed>
  <fix>3d</fix>
</trkpt>
<trkpt lat="-27.2766906" lon="151.2900673">
  <ele>444.32</ele>
  <time>2026-09-01T19:59:03Z</time>
  <course>172.22</course>
  <speed>0.14</speed>
  <fix>3d</fix>
</trkpt>
<trkpt lat="-27.276691" lon="151.2900675">
  <ele>444.94</ele>
  <time>2026-09-01T19:59:03Z</time>
  <course>9.39</course>
  <speed>0.11</speed>
  <fix>3d</fix>
</trkpt>
<trkpt lat="-27.2766905" lon="151.2900673">
  <ele>444.13</ele>
  <time>2026-09-01T19:59:03Z</time>
  <course>172.34</course>
  <speed>0.15</speed>
  <fix>3d</fix>
</trkpt>
<trkpt lat="-27.276691" lon="151.2900675">
  <ele>444.94</ele>
  <time>2026-09-01T19:59:03Z</time>
  <course>9.39</course>
  <speed>0.11</speed>
  <fix>3d</fix>
</trkpt>
<trkpt lat="-27.2766903" lon="151.2900673">
  <ele>443.94</ele>
  <time>2026-09-01T19:59:03Z</time>
  <course>172.44</course>
  <speed>0.16</speed>
  <fix>3d</fix>
</trkpt>
<trkpt lat="-27.2766908" lon="151.2900675">
  <ele>444.53</ele>
  <time>2026-09-01T19:59:03Z</time>
  <course>8.5</course>
  <speed>0.12</speed>
  <fix>3d</fix>
</trkpt>
<trkpt lat="-27.2766902" lon="151.2900673">
  <ele>443.76</ele>
  <time>2026-09-01T19:59:03Z</time>
  <course>172.5</course>
  <speed>0.17</speed>
  <fix>3d</fix>
</trkpt>
<trkpt lat="-27.2766908" lon="151.2900675">
  <ele>444.53</ele>
  <time>2026-09-01T19:59:03Z</time>
  <course>8.5</course>
  <speed>0.12</speed>
  <fix>3d</fix>
</trkpt>
<trkpt lat="-27.2766901" lon="151.2900673">
  <ele>443.59</ele>
  <time>2026-09-01T19:59:03Z</time>
  <course>172.54</course>
  <speed>0.18027756377319945</speed>
  <fix>3d</fix>
</trkpt>
<trkpt lat="-27.2766905" lon="151.2900676">
  <ele>444.15</ele>
  <time>2026-09-01T19:59:03Z</time>
  <course>6.54</course>
  <speed>0.14</speed>
  <fix>3d</fix>
</trkpt>
<trkpt lat="-27.2766899" lon="151.2900673">
  <ele>443.43</ele>
  <time>2026-09-01T19:59:03Z</time>
  <course>172.53</course>
  <speed>0.2002498439450079</speed>
  <fix>3d</fix>
</trkpt>
<trkpt lat="-27.2766905" lon="151.2900676">
  <ele>444.15</ele>
  <time>2026-09-01T19:59:03Z</time>
  <course>6.54</course>
  <speed>0.14</speed>
  <fix>3d</fix>
</trkpt>
<trkpt lat="-27.2766898" lon="151.2900674">
  <ele>443.29</ele>
  <time>2026-09-01T19:59:03Z</time>
  <course>172.5</course>
  <speed>0.22090722034374521</speed>
  <fix>3d</fix>
</trkpt>
<trkpt lat="-27.2766902" lon="151.2900676">
  <ele>443.8</ele>
  <time>2026-09-01T19:59:03Z</time>
  <course>3.55</course>
  <speed>0.17</speed>
  <fix>3d</fix>
</trkpt>
<trkpt lat="-27.2766896" lon="151.2900673">
  <ele>443.17</ele>
  <time>2026-09-01T19:59:03Z</time>
  <course>172.43</course>
  <speed>0.2308679276123039</speed>
  <fix>3d</fix>
</trkpt>
<trkpt lat="-27.2766902" lon="151.2900676">
  <ele>443.8</ele>
  <time>2026-09-01T19:59:03Z</time>
  <course>3.55</course>
  <speed>0.17</speed>
  <fix>3d</fix>
</trkpt>
<trkpt lat="-27.2766894" lon="151.2900673">
  <ele>443.07</ele>
  <time>2026-09-01T19:59:03Z</time>
  <course>172.33</course>
  <speed>0.25317977802344327</speed>
  <fix>3d</fix>
</trkpt>
<trkpt lat="-27.2766899" lon="151.2900676">
  <ele>443.51</ele>
  <time>2026-09-01T19:59:03Z</time>
  <course>0.07</course>
  <speed>0.2</speed>
  <fix>3d</fix>
</trkpt>
<trkpt lat="-27.2766892" lon="151.2900673">
  <ele>442.99</ele>
  <time>2026-09-01T19:59:03Z</time>
  <course>172.14</course>
  <speed>0.2745906043549196</speed>
  <fix>3d</fix>
</trkpt>
<trkpt lat="-27.2766899" lon="151.2900676">
  <ele>443.51</ele>
  <time>2026-09-01T19:59:03Z</time>
  <course>0.07</course>
  <speed>0.2</speed>
  <fix>3d</fix>
</trkpt>
<trkpt lat="-27.2766889" lon="151.2900673">
  <ele>442.93</ele>
  <time>2026-09-01T19:59:03Z</time>
  <course>171.83</course>
  <speed>0.29832867780352595</speed>
  <fix>3d</fix>
</trkpt>
<trkpt lat="-27.2766895" lon="151.2900676">
  <ele>443.28</ele>
  <time>2026-09-01T19:59:03Z</time>
  <course>355.54</course>
  <speed>0.24</speed>
  <fix>3d</fix>
</trkpt>
<trkpt lat="-27.2766887" lon="151.2900673">
  <ele>442.88</ele>
  <time>2026-09-01T19:59:03Z</time>
  <course>171.4</course>
  <speed>0.31622776601683794</speed>
  <fix>3d</fix>
</trkpt>
<trkpt lat="-27.2766895" lon="151.2900676">
  <ele>443.28</ele>
  <time>2026-09-01T19:59:03Z</time>
  <course>355.54</course>
  <speed>0.24</speed>
  <fix>3d</fix>
</trkpt>
<trkpt lat="-27.2766884" lon="151.2900672">
  <ele>442.86</ele>
  <time>2026-09-01T19:59:03Z</time>
  <course>170.93</course>
  <speed>0.33241540277189324</speed>
  <fix>3d</fix>
</trkpt>
<trkpt lat="-27.276689" lon="151.2900676">
  <ele>443.14</ele>
  <time>2026-09-01T19:59:03Z</time>
  <course>349.28</course>
  <speed>0.28</speed>
  <fix>3d</fix>
</trkpt>
<trkpt lat="-27.2766881" lon="151.2900671">
  <ele>442.84</ele>
  <time>2026-09-01T19:59:03Z</time>
  <course>170.48</course>
  <speed>0.34928498393145957</speed>
  <fix>3d</fix>
</trkpt>
<trkpt lat="-27.2766885" lon="151.2900675">
  <ele>443.06</ele>
  <time>2026-09-01T19:59:03Z</time>
  <course>342.74</course>
  <speed>0.31</speed>
  <fix>3d</fix>
</trkpt>
<trkpt lat="-27.2766879" lon="151.290067">
  <ele>442.84</ele>
  <time>2026-09-01T19:59:03Z</time>
  <course>170.12</course>
  <speed>0.3624913792078372</speed>
  <fix>3d</fix>
</trkpt>
<trkpt lat="-27.2766885" lon="151.2900675">
  <ele>443.06</ele>
  <time>2026-09-01T19:59:03Z</time>
  <course>342.74</course>
  <speed>0.31</speed>
  <fix>3d</fix>
</trkpt>
<trkpt lat="-27.2766876" lon="151.2900668">
  <ele>442.85</ele>
  <time>2026-09-01T19:59:03Z</time>
  <course>169.88</course>
  <speed>0.3712142238654117</speed>
  <fix>3d</fix>
</trkpt>
<trkpt lat="-27.276688" lon="151.2900672">
  <ele>443.04</ele>
  <time>2026-09-01T19:59:03Z</time>
  <course>337.53</course>
  <speed>0.34</speed>
  <fix>3d</fix>
</trkpt>
<trkpt lat="-27.2766873" lon="151.2900667">
  <ele>442.87</ele>
  <time>2026-09-01T19:59:03Z</time>
  <course>169.78</course>
  <speed>0.37589892258425</speed>
  <fix>3d</fix>
</trkpt>
<trkpt lat="-27.276688" lon="151.2900672">
  <ele>443.04</ele>
  <time>2026-09-01T19:59:03Z</time>
  <course>337.53</course>
  <speed>0.34</speed>
  <fix>3d</fix>
</trkpt>
<trkpt lat="-27.276687" lon="151.2900665">
  <ele>442.89</ele>
  <time>2026-09-01T19:59:04Z</time>
  <course>169.81</course>
  <speed>0.38078865529319544</speed>
  <fix>3d</fix>
</trkpt>
<trkpt lat="-27.276688" lon="151.2900672">
  <ele>443.04</ele>
  <time>2026-09-01T19:59:04Z</time>
  <course>337.53</course>
  <speed>0.34</speed>
  <fix>3d</fix>
</trkpt>
<trkpt lat="-27.2766867" lon="151.2900664">
  <ele>442.92</ele>
  <time>2026-09-01T19:59:04Z</time>
  <course>169.93</course>
  <speed>0.3858756276314948</speed>
  <fix>3d</fix>
</trkpt>
<trkpt lat="-27.2766874" lon="151.290067">
  <ele>443.06</ele>
  <time>2026-09-01T19:59:04Z</time>
  <course>333.74</course>
  <speed>0.35</speed>
  <fix>3d</fix>
</trkpt>
<trkpt lat="-27.2766865" lon="151.2900662">
  <ele>442.94</ele>
  <time>2026-09-01T19:59:04Z</time>
  <course>170.11</course>
  <speed>0.3773592452822641</speed>
  <fix>3d</fix>
</trkpt>
<trkpt lat="-27.2766874" lon="151.290067">
  <ele>443.06</ele>
  <time>2026-09-01T19:59:04Z</time>
  <course>333.74</course>
  <speed>0.35</speed>
  <fix>3d</fix>
</trkpt>
<trkpt lat="-27.2766862" lon="151.290066">
  <ele>442.97</ele>
  <time>2026-09-01T19:59:04Z</time>
  <course>170.29</course>
  <speed>0.37443290453698114</speed>
  <fix>3d</fix>
</trkpt>
<trkpt lat="-27.2766868" lon="151.2900667">
  <ele>443.1</ele>
  <time>2026-09-01T19:59:04Z</time>
  <course>330.89</course>
  <speed>0.36</speed>
  <fix>3d</fix>
</trkpt>
<trkpt lat="-27.2766859" lon="151.2900658">
  <ele>442.99</ele>
  <time>2026-09-01T19:59:04Z</time>
  <course>170.45</course>
  <speed>0.37443290453698114</speed>
  <fix>3d</fix>
</trkpt>
<trkpt lat="-27.2766868" lon="151.2900667">
  <ele>443.1</ele>
  <time>2026-09-01T19:59:04Z</time>
  <course>330.89</course>
  <speed>0.36</speed>
  <fix>3d</fix>
</trkpt>
<trkpt lat="-27.2766857" lon="151.2900656">
  <ele>443.0</ele>
  <time>2026-09-01T19:59:04Z</time>
  <course>170.56</course>
  <speed>0.3720215047547655</speed>
  <fix>3d</fix>
</trkpt>
<trkpt lat="-27.2766863" lon="151.2900662">
  <ele>443.14</ele>
  <time>2026-09-01T19:59:04Z</time>
  <course>328.42</course>
  <speed>0.35</speed>
  <fix>3d</fix>
</trkpt>
<trkpt lat="-27.2766854" lon="151.2900654">
  <ele>443.01</ele>
  <time>2026-09-01T19:59:04Z</time>
  <course>170.6</course>
  <speed>0.35608987629529715</speed>
  <fix>3d</fix>
</trkpt>
<trkpt lat="-27.2766863" lon="151.2900662">
  <ele>443.14</ele>
  <time>2026-09-01T19:59:04Z</time>
  <course>328.42</course>
  <speed>0.35</speed>
  <fix>3d</fix>
</trkpt>
<trkpt lat="-27.2766852" lon="151.2900653">
  <ele>443.02</ele>
  <time>2026-09-01T19:59:04Z</time>
  <course>170.59</course>
  <speed>0.34828149534535996</speed>
  <fix>3d</fix>
</trkpt>
<trkpt lat="-27.2766857" lon="151.2900659">
  <ele>443.16</ele>
  <time>2026-09-01T19:59:04Z</time>
  <course>325.98</course>
  <speed>0.34</speed>
  <fix>3d</fix>
</trkpt>
<trkpt lat="-27.276685" lon="151.2900651">
  <ele>443.02</ele>
  <time>2026-09-01T19:59:04Z</time>
  <course>170.54</course>
  <speed>0.34058772731852804</speed>
  <fix>3d</fix>
</trkpt>
<trkpt lat="-27.2766857" lon="151.2900659">
  <ele>443.16</ele>
  <time>2026-09-01T19:59:04Z</time>
  <course>325.98</course>
  <speed>0.34</speed>
  <fix>3d</fix>
</trkpt>
<trkpt lat="-27.2766847" lon="151.2900649">
  <ele>443.01</ele>
  <time>2026-09-01T19:59:04Z</time>
  <course>170.46</course>
  <speed>0.3330165161069343</speed>
  <fix>3d</fix>
</trkpt>
<trkpt lat="-27.2766852" lon="151.2900654">
  <ele>443.18</ele>
  <time>2026-09-01T19:59:04Z</time>
  <course>323.39</course>
  <speed>0.32</speed>
  <fix>3d</fix>
</trkpt>
<trkpt lat="-27.2766845" lon="151.2900647">
  <ele>443.0</ele>
  <time>2026-09-01T19:59:04Z</time>
  <course>170.37</course>
  <speed>0.31144823004794875</speed>
  <fix>3d</fix>
</trkpt>
<trkpt lat="-27.2766852" lon="151.2900654">
  <ele>443.18</ele>
  <time>2026-09-01T19:59:04Z</time>
  <course>323.39</course>
  <speed>0.32</speed>
  <fix>3d</fix>
</trkpt>
<trkpt lat="-27.2766843" lon="151.2900645">
  <ele>442.99</ele>
  <time>2026-09-01T19:59:04Z</time>
  <course>170.29</course>
  <speed>0.304138126514911</speed>
  <fix>3d</fix>
</trkpt>
<trkpt lat="-27.2766848" lon="151.2900651">
  <ele>443.17</ele>
  <time>2026-09-01T19:59:04Z</time>
  <course>320.78</course>
  <speed>0.3</speed>
  <fix>3d</fix>
</trkpt>
<trkpt lat="-27.2766841" lon="151.2900643">
  <ele>442.98</ele>
  <time>2026-09-01T19:59:04Z</time>
  <course>170.24</course>
  <speed>0.29698484809834996</speed>
  <fix>3d</fix>
</trkpt>
<trkpt lat="-27.2766848" lon="151.2900651">
  <ele>443.17</ele>
  <time>2026-09-01T19:59:04Z</time>
  <course>320.78</course>
  <speed>0.3</speed>
  <fix>3d</fix>
</trkpt>
<trkpt lat="-27.276684" lon="151.2900641">
  <ele>442.97</ele>
  <time>2026-09-01T19:59:04Z</time>
  <course>170.2</course>
  <speed>0.282842712474619</speed>
  <fix>3d</fix>
</trkpt>
<trkpt lat="-27.2766844" lon="151.2900647">
  <ele>443.15</ele>
  <time>2026-09-01T19:59:04Z</time>
  <course>318.42</course>
  <speed>0.28</speed>
  <fix>3d</fix>
</trkpt>
<trkpt lat="-27.2766838" lon="151.2900639">
  <ele>442.95</ele>
  <time>2026-09-01T19:59:04Z</time>
  <course>170.19</course>
  <speed>0.2690724809414742</speed>
  <fix>3d</fix>
</trkpt>
<trkpt lat="-27.2766844" lon="151.2900647">
  <ele>443.15</ele>
  <time>2026-09-01T19:59:04Z</time>
  <course>318.42</course>
  <speed>0.28</speed>
  <fix>3d</fix>
</trkpt>
<trkpt lat="-27.2766837" lon="151.2900638">
  <ele>442.94</ele>
  <time>2026-09-01T19:59:04Z</time>
  <course>170.2</course>
  <speed>0.25495097567963926</speed>
  <fix>3d</fix>
</trkpt>
<trkpt lat="-27.276684" lon="151.2900644">
  <ele>443.12</ele>
  <time>2026-09-01T19:59:04Z</time>
  <course>316.28</course>
  <speed>0.26</speed>
  <fix>3d</fix>
</trkpt>
<trkpt lat="-27.2766835" lon="151.2900636">
  <ele>442.93</ele>
  <time>2026-09-01T19:59:04Z</time>
  <course>170.22</course>
  <speed>0.24083189157584592</speed>
  <fix>3d</fix>
</trkpt>
<trkpt lat="-27.276684" lon="151.2900644">
  <ele>443.12</ele>
  <time>2026-09-01T19:59:04Z</time>
  <course>316.28</course>
  <speed>0.26</speed>
  <fix>3d</fix>
</trkpt>
<trkpt lat="-27.2766834" lon="151.2900635">
  <ele>442.92</ele>
  <time>2026-09-01T19:59:04Z</time>
  <course>170.24</course>
  <speed>0.23430749027719963</speed>
  <fix>3d</fix>
</trkpt>
<trkpt lat="-27.2766837" lon="151.2900639">
  <ele>443.08</ele>
  <time>2026-09-01T19:59:04Z</time>
  <course>314.2</course>
  <speed>0.23</speed>
  <fix>3d</fix>
</trkpt>
<trkpt lat="-27.2766833" lon="151.2900633">
  <ele>442.91</ele>
  <time>2026-09-01T19:59:04Z</time>
  <course>170.26</course>
  <speed>0.21400934559032694</speed>
  <fix>3d</fix>
</trkpt>
<trkpt lat="-27.2766837" lon="151.2900639">
  <ele>443.08</ele>
  <time>2026-09-01T19:59:04Z</time>
  <course>314.2</course>
  <speed>0.23</speed>
  <fix>3d</fix>
</trkpt>
<trkpt lat="-27.2766832" lon="151.2900632">
  <ele>442.9</ele>
  <time>2026-09-01T19:59:04Z</time>
  <course>170.28</course>
  <speed>0.2</speed>
  <fix>3d</fix>
</trkpt>
<trkpt lat="-27.2766834" lon="151.2900636">
  <ele>443.06</ele>
  <time>2026-09-01T19:59:04Z</time>
  <course>312.03</course>
  <speed>0.2</speed>
  <fix>3d</fix>
</trkpt>
<trkpt lat="-27.2766831" lon="151.290063">
  <ele>442.9</ele>
  <time>2026-09-01T19:59:04Z</time>
  <course>170.28</course>
  <speed>0.18601075237738274</speed>
  <fix>3d</fix>
</trkpt>
<trkpt lat="-27.2766834" lon="151.2900636">
  <ele>443.06</ele>
  <time>2026-09-01T19:59:04Z</time>
  <course>312.03</course>
  <speed>0.2</speed>
  <fix>3d</fix>
</trkpt>
<trkpt lat="-27.276683" lon="151.2900629">
  <ele>442.89</ele>
  <time>2026-09-01T19:59:04Z</time>
  <course>170.27</course>
  <speed>0.17204650534085253</speed>
  <fix>3d</fix>
</trkpt>
<trkpt lat="-27.2766832" lon="151.2900634">
  <ele>443.03</ele>
  <time>2026-09-01T19:59:04Z</time>
  <course>309.63</course>
  <speed>0.17</speed>
  <fix>3d</fix>
</trkpt>
<trkpt lat="-27.2766829" lon="151.2900628">
  <ele>442.89</ele>
  <time>2026-09-01T19:59:04Z</time>
  <course>170.26</course>
  <speed>0.15264337522473748</speed>
  <fix>3d</fix>
</trkpt>
<trkpt lat="-27.2766832" lon="151.2900634">
  <ele>443.03</ele>
  <time>2026-09-01T19:59:04Z</time>
  <course>309.63</course>
  <speed>0.17</speed>
  <fix>3d</fix>
</trkpt>
<trkpt lat="-27.2766828" lon="151.2900627">
  <ele>442.89</ele>
  <time>2026-09-01T19:59:04Z</time>
  <course>170.24</course>
  <speed>0.13892443989449804</speed>
  <fix>3d</fix>
</trkpt>
<trkpt lat="-27.276683" lon="151.2900631">
  <ele>443.02</ele>
  <time>2026-09-01T19:59:04Z</time>
  <course>306.68</course>
  <speed>0.14</speed>
  <fix>3d</fix>
</trkpt>
<trkpt lat="-27.2766828" lon="151.2900626">
  <ele>442.9</ele>
  <time>2026-09-01T19:59:04Z</time>
  <course>170.23</course>
  <speed>0.12529964086141668</speed>
  <fix>3d</fix>
</trkpt>
<trkpt lat="-27.276683" lon="151.2900631">
  <ele>443.02</ele>
  <time>2026-09-01T19:59:04Z</time>
  <course>306.68</course>
  <speed>0.14</speed>
  <fix>3d</fix>
</trkpt>
<trkpt lat="-27.2766827" lon="151.2900625">
  <ele>442.9</ele>
  <time>2026-09-01T19:59:04Z</time>
  <course>170.21</course>
  <speed>0.1118033988749895</speed>
  <fix>3d</fix>
</trkpt>
<trkpt lat="-27.2766829" lon="151.2900629">
  <ele>443.02</ele>
  <time>2026-09-01T19:59:04Z</time>
  <course>302.68</course>
  <speed>0.11</speed>
  <fix>3d</fix>
</trkpt>
<trkpt lat="-27.2766827" lon="151.2900624">
  <ele>442.9</ele>
  <time>2026-09-01T19:59:04Z</time>
  <course>170.2</course>
  <speed>0.09848857801796104</speed>
  <fix>3d</fix>
</trkpt>
<trkpt lat="-27.2766829" lon="151.2900629">
  <ele>443.02</ele>
  <time>2026-09-01T19:59:04Z</time>
  <course>302.68</course>
  <speed>0.11</speed>
  <fix>3d</fix>
</trkpt>
<trkpt lat="-27.2766827" lon="151.2900624">
  <ele>442.91</ele>
  <time>2026-09-01T19:59:04Z</time>
  <course>170.19</course>
  <speed>0.0824621125123532</speed>
  <fix>3d</fix>
</trkpt>
<trkpt lat="-27.2766828" lon="151.2900627">
  <ele>443.02</ele>
  <time>2026-09-01T19:59:04Z</time>
  <course>296.67</course>
  <speed>0.08</speed>
  <fix>3d</fix>
</trkpt>
<trkpt lat="-27.2766827" lon="151.2900623">
  <ele>442.91</ele>
  <time>2026-09-01T19:59:04Z</time>
  <course>170.19</course>
  <speed>0.07071067811865475</speed>
  <fix>3d</fix>
</trkpt>
<trkpt lat="-27.2766828" lon="151.2900627">
  <ele>443.02</ele>
  <time>2026-09-01T19:59:04Z</time>
  <course>296.67</course>
  <speed>0.08</speed>
  <fix>3d</fix>
</trkpt>
<trkpt lat="-27.2766827" lon="151.2900623">
  <ele>442.92</ele>
  <time>2026-09-01T19:59:04Z</time>
  <course>170.2</course>
  <speed>0.05</speed>
  <fix>3d</fix>
</trkpt>
<trkpt lat="-27.2766828" lon="151.2900626">
  <ele>443.02</ele>
  <time>2026-09-01T19:59:04Z</time>
  <course>285.56</course>
  <speed>0.05</speed>
  <fix>3d</fix>
</trkpt>
<trkpt lat="-27.2766827" lon="151.2900623">
  <ele>442.92</ele>
  <time>2026-09-01T19:59:04Z</time>
  <course>170.2</course>
  <speed>0.04</speed>
  <fix>3d</fix>
</trkpt>
<trkpt lat="-27.2766828" lon="151.2900626">
  <ele>443.02</ele>
  <time>2026-09-01T19:59:04Z</time>
  <course>285.56</course>
  <speed>0.05</speed>
  <fix>3d</fix>
</trkpt>
<trkpt lat="-27.2766827" lon="151.2900622">
  <ele>442.92</ele>
  <time>2026-09-01T19:59:04Z</time>
  <course>170.21</course>
  <speed>0.0316227766016838</speed>
  <fix>3d</fix>
</trkpt>
<trkpt lat="-27.2766828" lon="151.2900625">
  <ele>443.03</ele>
  <time>2026-09-01T19:59:04Z</time>
  <course>256.73</course>
  <speed>0.03</speed>
  <fix>3d</fix>
</trkpt>
<trkpt lat="-27.2766827" lon="151.2900622">
  <ele>442.93</ele>
  <time>2026-09-01T19:59:04Z</time>
  <course>170.22</course>
  <speed>0.0282842712474619</speed>
  <fix>3d</fix>
</trkpt>
<trkpt lat="-27.2766828" lon="151.2900625">
  <ele>443.03</ele>
  <time>2026-09-01T19:59:04Z</time>
  <course>256.73</course>
  <speed>0.03</speed>
  <fix>3d</fix>
</trkpt>
<trkpt lat="-27.2766828" lon="151.2900622">
  <ele>442.93</ele>
  <time>2026-09-01T19:59:04Z</time>
  <course>170.23</course>
  <speed>0.0316227766016838</speed>
  <fix>3d</fix>
</trkpt>
<trkpt lat="-27.2766828" lon="151.2900625">
  <ele>443.03</ele>
  <time>2026-09-01T19:59:04Z</time>
  <course>196.38</course>
  <speed>0.02</speed>
  <fix>3d</fix>
</trkpt>
<trkpt lat="-27.2766828" lon="151.2900623">
  <ele>442.93</ele>
  <time>2026-09-01T19:59:04Z</time>
  <course>170.24</course>
  <speed>0.04</speed>
  <fix>3d</fix>
</trkpt>
<trkpt lat="-27.2766828" lon="151.2900625">
  <ele>443.03</ele>
  <time>2026-09-01T19:59:04Z</time>
  <course>196.38</course>
  <speed>0.02</speed>
  <fix>3d</fix>
</trkpt>
<trkpt lat="-27.2766828" lon="151.2900622">
  <ele>442.93</ele>
  <time>2026-09-01T19:59:04Z</time>
  <course>170.24</course>
  <speed>0.05</speed>
  <fix>3d</fix>
</trkpt>
<trkpt lat="-27.2766828" lon="151.2900625">
  <ele>443.03</ele>
  <time>2026-09-01T19:59:04Z</time>
  <course>164.62</course>
  <speed>0.05</speed>
  <fix>3d</fix>
</trkpt>
<trkpt lat="-27.2766828" lon="151.2900622">
  <ele>442.93</ele>
  <time>2026-09-01T19:59:04Z</time>
  <course>170.25</course>
  <speed>0.05099019513592785</speed>
  <fix>3d</fix>
</trkpt>
<trkpt lat="-27.2766828" lon="151.2900625">
  <ele>443.03</ele>
  <time>2026-09-01T19:59:04Z</time>
  <course>164.62</course>
  <speed>0.05</speed>
  <fix>3d</fix>
</trkpt>
<trkpt lat="-27.2766829" lon="151.2900623">
  <ele>442.92</ele>
  <time>2026-09-01T19:59:04Z</time>
  <course>170.25</course>
  <speed>0.0632455532033676</speed>
  <fix>3d</fix>
</trkpt>
<trkpt lat="-27.2766828" lon="151.2900625">
  <ele>443.03</ele>
  <time>2026-09-01T19:59:04Z</time>
  <course>153.21</course>
  <speed>0.07</speed>
  <fix>3d</fix>
</trkpt>
<trkpt lat="-27.276683" lon="151.2900623">
  <ele>442.92</ele>
  <time>2026-09-01T19:59:04Z</time>
  <course>170.25</course>
  <speed>0.07615773105863909</speed>
  <fix>3d</fix>
</trkpt>
<trkpt lat="-27.2766828" lon="151.2900625">
  <ele>443.03</ele>
  <time>2026-09-01T19:59:04Z</time>
  <course>153.21</course>
  <speed>0.07</speed>
  <fix>3d</fix>
</trkpt>
<trkpt lat="-27.2766831" lon="151.2900624">
  <ele>442.92</ele>
  <time>2026-09-01T19:59:04Z</time>
  <course>170.25</course>
  <speed>0.08062257748298549</speed>
  <fix>3d</fix>
</trkpt>
<trkpt lat="-27.276683" lon="151.2900626">
  <ele>443.02</ele>
  <time>2026-09-01T19:59:04Z</time>
  <course>147.39</course>
  <speed>0.09</speed>
  <fix>3d</fix>
</trkpt>
<trkpt lat="-27.2766831" lon="151.2900625">
  <ele>442.92</ele>
  <time>2026-09-01T19:59:04Z</time>
  <course>170.25</course>
  <speed>0.08944271909999159</speed>
  <fix>3d</fix>
</trkpt>
<trkpt lat="-27.276683" lon="151.2900626">
  <ele>443.02</ele>
  <time>2026-09-01T19:59:04Z</time>
  <course>147.39</course>
  <speed>0.09</speed>
  <fix>3d</fix>
</trkpt>
<trkpt lat="-27.2766832" lon="151.2900625">
  <ele>442.91</ele>
  <time>2026-09-01T19:59:04Z</time>
  <course>170.25</course>
  <speed>0.09433981132056603</speed>
  <fix>3d</fix>
</trkpt>
<trkpt lat="-27.2766832" lon="151.2900626">
  <ele>443.02</ele>
  <time>2026-09-01T19:59:04Z</time>
  <course>143.85</course>
  <speed>0.12</speed>
  <fix>3d</fix>
</trkpt>
<trkpt lat="-27.2766833" lon="151.2900626">
  <ele>442.91</ele>
  <time>2026-09-01T19:59:04Z</time>
  <course>170.25</course>
  <speed>0.10816653826391968</speed>
  <fix>3d</fix>
</trkpt>
<trkpt lat="-27.2766832" lon="151.2900626">
  <ele>443.02</ele>
  <time>2026-09-01T19:59:04Z</time>
  <course>143.85</course>
  <speed>0.12</speed>
  <fix>3d</fix>
</trkpt>
<trkpt lat="-27.2766834" lon="151.2900627">
  <ele>442.9</ele>
  <time>2026-09-01T19:59:04Z</time>
  <course>170.25</course>
  <speed>0.10816653826391968</speed>
  <fix>3d</fix>
</trkpt>
<trkpt lat="-27.2766833" lon="151.2900627">
  <ele>443.01</ele>
  <time>2026-09-01T19:59:04Z</time>
  <course>141.5</course>
  <speed>0.13</speed>
  <fix>3d</fix>
</trkpt>
<trkpt lat="-27.2766835" lon="151.2900628">
  <ele>442.9</ele>
  <time>2026-09-01T19:59:04Z</time>
  <course>170.26</course>
  <speed>0.12206555615733702</speed>
  <fix>3d</fix>
</trkpt>
<trkpt lat="-27.2766833" lon="151.2900627">
  <ele>443.01</ele>
  <time>2026-09-01T19:59:04Z</time>
  <course>141.5</course>
  <speed>0.13</speed>
  <fix>3d</fix>
</trkpt>
<trkpt lat="-27.2766836" lon="151.2900629">
  <ele>442.9</ele>
  <time>2026-09-01T19:59:04Z</time>
  <course>170.26</course>
  <speed>0.12206555615733702</speed>
  <fix>3d</fix>
</trkpt>
<trkpt lat="-27.2766836" lon="151.2900629">
  <ele>443.0</ele>
  <time>2026-09-01T19:59:04Z</time>
  <course>139.92</course>
  <speed>0.15</speed>
  <fix>3d</fix>
</trkpt>
<trkpt lat="-27.2766837" lon="151.290063">
  <ele>442.9</ele>
  <time>2026-09-01T19:59:04Z</time>
  <course>170.27</course>
  <speed>0.12806248474865697</speed>
  <fix>3d</fix>
</trkpt>
<trkpt lat="-27.2766836" lon="151.2900629">
  <ele>443.0</ele>
  <time>2026-09-01T19:59:04Z</time>
  <course>139.92</course>
  <speed>0.15</speed>
  <fix>3d</fix>
</trkpt>
<trkpt lat="-27.2766838" lon="151.2900631">
  <ele>442.89</ele>
  <time>2026-09-01T19:59:04Z</time>
  <course>170.27</course>
  <speed>0.12806248474865697</speed>
  <fix>3d</fix>
</trkpt>
<trkpt lat="-27.2766838" lon="151.2900632">
  <ele>443.0</ele>
  <time>2026-09-01T19:59:04Z</time>
  <course>138.85</course>
  <speed>0.16</speed>
  <fix>3d</fix>
</trkpt>
<trkpt lat="-27.2766839" lon="151.2900632">
  <ele>442.89</ele>
  <time>2026-09-01T19:59:04Z</time>
  <course>170.27</course>
  <speed>0.13601470508735444</speed>
  <fix>3d</fix>
</trkpt>
<trkpt lat="-27.2766838" lon="151.2900632">
  <ele>443.0</ele>
  <time>2026-09-01T19:59:04Z</time>
  <course>138.85</course>
  <speed>0.16</speed>
  <fix>3d</fix>
</trkpt>
<trkpt lat="-27.2766841" lon="151.2900633">
  <ele>442.89</ele>
  <time>2026-09-01T19:59:04Z</time>
  <course>170.27</course>
  <speed>0.13601470508735444</speed>
  <fix>3d</fix>
</trkpt>
<trkpt lat="-27.2766839" lon="151.2900634">
  <ele>442.99</ele>
  <time>2026-09-01T19:59:04Z</time>
  <course>138.09</course>
  <speed>0.17</speed>
  <fix>3d</fix>
</trkpt>
<trkpt lat="-27.2766842" lon="151.2900634">
  <ele>442.89</ele>
  <time>2026-09-01T19:59:04Z</time>
  <course>170.27</course>
  <speed>0.13601470508735444</speed>
  <fix>3d</fix>
</trkpt>
<trkpt lat="-27.2766839" lon="151.2900634">
  <ele>442.99</ele>
  <time>2026-09-01T19:59:04Z</time>
  <course>138.09</course>
  <speed>0.17</speed>
  <fix>3d</fix>
</trkpt>
<trkpt lat="-27.2766843" lon="151.2900636">
  <ele>442.89</ele>
  <time>2026-09-01T19:59:04Z</time>
  <course>170.27</course>
  <speed>0.1345362404707371</speed>
  <fix>3d</fix>
</trkpt>
<trkpt lat="-27.2766842" lon="151.2900637">
  <ele>442.99</ele>
  <time>2026-09-01T19:59:04Z</time>
  <course>137.46</course>
  <speed>0.18</speed>
  <fix>3d</fix>
</trkpt>
<trkpt lat="-27.2766844" lon="151.2900637">
  <ele>442.89</ele>
  <time>2026-09-01T19:59:04Z</time>
  <course>170.27</course>
  <speed>0.1345362404707371</speed>
  <fix>3d</fix>
</trkpt>
<trkpt lat="-27.2766842" lon="151.2900637">
  <ele>442.99</ele>
  <time>2026-09-01T19:59:04Z</time>
  <course>137.46</course>
  <speed>0.18</speed>
  <fix>3d</fix>
</trkpt>
<trkpt lat="-27.2766845" lon="151.2900638">
  <ele>442.89</ele>
  <time>2026-09-01T19:59:04Z</time>
  <course>170.28</course>
  <speed>0.1345362404707371</speed>
  <fix>3d</fix>
</trkpt>
<trkpt lat="-27.2766845" lon="151.2900639">
  <ele>442.99</ele>
  <time>2026-09-01T19:59:04Z</time>
  <course>136.46</course>
  <speed>0.18</speed>
  <fix>3d</fix>
</trkpt>
<trkpt lat="-27.2766846" lon="151.2900639">
  <ele>442.9</ele>
  <time>2026-09-01T19:59:04Z</time>
  <course>170.28</course>
  <speed>0.1345362404707371</speed>
  <fix>3d</fix>
</trkpt>
<trkpt lat="-27.2766845" lon="151.2900639">
  <ele>442.99</ele>
  <time>2026-09-01T19:59:04Z</time>
  <course>136.46</course>
  <speed>0.18</speed>
  <fix>3d</fix>
</trkpt>
<trkpt lat="-27.2766847" lon="151.290064">
  <ele>442.9</ele>
  <time>2026-09-01T19:59:04Z</time>
  <course>170.29</course>
  <speed>0.12727922061357855</speed>
  <fix>3d</fix>
</trkpt>
<trkpt lat="-27.2766847" lon="151.2900642">
  <ele>442.99</ele>
  <time>2026-09-01T19:59:04Z</time>
  <course>135.26</course>
  <speed>0.18</speed>
  <fix>3d</fix>
</trkpt>
<trkpt lat="-27.2766848" lon="151.2900642">
  <ele>442.9</ele>
  <time>2026-09-01T19:59:04Z</time>
  <course>170.3</course>
  <speed>0.12041594578792296</speed>
  <fix>3d</fix>
</trkpt>
<trkpt lat="-27.2766847" lon="151.2900642">
  <ele>442.99</ele>
  <time>2026-09-01T19:59:04Z</time>
  <course>135.26</course>
  <speed>0.18</speed>
  <fix>3d</fix>
</trkpt>
<trkpt lat="-27.2766849" lon="151.2900643">
  <ele>442.9</ele>
  <time>2026-09-01T19:59:04Z</time>
  <course>170.31</course>
  <speed>0.12041594578792296</speed>
  <fix>3d</fix>
</trkpt>
<trkpt lat="-27.276685" lon="151.2900644">
  <ele>442.99</ele>
  <time>2026-09-01T19:59:04Z</time>
  <course>134.29</course>
  <speed>0.17</speed>
  <fix>3d</fix>
</trkpt>
<trkpt lat="-27.276685" lon="151.2900644">
  <ele>442.9</ele>
  <time>2026-09-01T19:59:04Z</time>
  <course>170.31</course>
  <speed>0.1131370849898476</speed>
  <fix>3d</fix>
</trkpt>
<trkpt lat="-27.276685" lon="151.2900644">
  <ele>442.99</ele>
  <time>2026-09-01T19:59:04Z</time>
  <course>134.29</course>
  <speed>0.17</speed>
  <fix>3d</fix>
</trkpt>
<trkpt lat="-27.2766851" lon="151.2900645">
  <ele>442.9</ele>
  <time>2026-09-01T19:59:04Z</time>
  <course>170.32</course>
  <speed>0.1131370849898476</speed>
  <fix>3d</fix>
</trkpt>
<trkpt lat="-27.2766852" lon="151.2900646">
  <ele>442.99</ele>
  <time>2026-09-01T19:59:04Z</time>
  <course>133.36</course>
  <speed>0.17</speed>
  <fix>3d</fix>
</trkpt>
<trkpt lat="-27.2766852" lon="151.2900646">
  <ele>442.9</ele>
  <time>2026-09-01T19:59:04Z</time>
  <course>170.32</course>
  <speed>0.09899494936611665</speed>
  <fix>3d</fix>
</trkpt>
<trkpt lat="-27.2766852" lon="151.2900646">
  <ele>442.99</ele>
  <time>2026-09-01T19:59:04Z</time>
  <course>133.36</course>
  <speed>0.17</speed>
  <fix>3d</fix>
</trkpt>
<trkpt lat="-27.2766853" lon="151.2900647">
  <ele>442.89</ele>
  <time>2026-09-01T19:59:04Z</time>
  <course>170.32</course>
  <speed>0.09899494936611665</speed>
  <fix>3d</fix>
</trkpt>
<trkpt lat="-27.2766854" lon="151.2900649">
  <ele>442.98</ele>
  <time>2026-09-01T19:59:04Z</time>
  <course>132.21</course>
  <speed>0.15</speed>
  <fix>3d</fix>
</trkpt>
<trkpt lat="-27.2766854" lon="151.2900648">
  <ele>442.89</ele>
  <time>2026-09-01T19:59:04Z</time>
  <course>170.32</course>
  <speed>0.0848528137423857</speed>
  <fix>3d</fix>
</trkpt>
<trkpt lat="-27.2766854" lon="151.2900649">
  <ele>442.98</ele>
  <time>2026-09-01T19:59:04Z</time>
  <course>132.21</course>
  <speed>0.15</speed>
  <fix>3d</fix>
</trkpt>
<trkpt lat="-27.2766855" lon="151.2900649">
  <ele>442.89</ele>
  <time>2026-09-01T19:59:04Z</time>
  <course>170.32</course>
  <speed>0.07810249675906654</speed>
  <fix>3d</fix>
</trkpt>
<trkpt lat="-27.2766856" lon="151.2900651">
  <ele>442.98</ele>
  <time>2026-09-01T19:59:04Z</time>
  <course>131.0</course>
  <speed>0.14</speed>
  <fix>3d</fix>
</trkpt>
<trkpt lat="-27.2766855" lon="151.290065">
  <ele>442.88</ele>
  <time>2026-09-01T19:59:04Z</time>
  <course>170.33</course>
  <speed>0.07071067811865475</speed>
  <fix>3d</fix>
</trkpt>
<trkpt lat="-27.2766856" lon="151.2900651">
  <ele>442.98</ele>
  <time>2026-09-01T19:59:04Z</time>
  <course>131.0</course>
  <speed>0.14</speed>
  <fix>3d</fix>
</trkpt>
<trkpt lat="-27.2766856" lon="151.2900651">
  <ele>442.88</ele>
  <time>2026-09-01T19:59:04Z</time>
  <course>170.33</course>
  <speed>0.06403124237432849</speed>
  <fix>3d</fix>
</trkpt>
<trkpt lat="-27.2766857" lon="151.2900654">
  <ele>442.97</ele>
  <time>2026-09-01T19:59:04Z</time>
  <course>129.86</course>
  <speed>0.12</speed>
  <fix>3d</fix>
</trkpt>
<trkpt lat="-27.2766857" lon="151.2900652">
  <ele>442.88</ele>
  <time>2026-09-01T19:59:04Z</time>
  <course>170.33</course>
  <speed>0.05</speed>
  <fix>3d</fix>
</trkpt>
<trkpt lat="-27.2766857" lon="151.2900654">
  <ele>442.97</ele>
  <time>2026-09-01T19:59:04Z</time>
  <course>129.86</course>
  <speed>0.12</speed>
  <fix>3d</fix>
</trkpt>
<trkpt lat="-27.2766857" lon="151.2900653">
  <ele>442.88</ele>
  <time>2026-09-01T19:59:04Z</time>
  <course>170.34</course>
  <speed>0.04242640687119285</speed>
  <fix>3d</fix>
</trkpt>
<trkpt lat="-27.2766858" lon="151.2900656">
  <ele>442.97</ele>
  <time>2026-09-01T19:59:04Z</time>
  <course>128.58</course>
  <speed>0.11</speed>
  <fix>3d</fix>
</trkpt>
<trkpt lat="-27.2766857" lon="151.2900654">
  <ele>442.88</ele>
  <time>2026-09-01T19:59:04Z</time>
  <course>170.34</course>
  <speed>0.03605551275463989</speed>
  <fix>3d</fix>
</trkpt>
<trkpt lat="-27.2766858" lon="151.2900656">
  <ele>442.97</ele>
  <time>2026-09-01T19:59:04Z</time>
  <course>128.58</course>
  <speed>0.11</speed>
  <fix>3d</fix>
</trkpt>
<trkpt lat="-27.2766858" lon="151.2900654">
  <ele>442.88</ele>
  <time>2026-09-01T19:59:04Z</time>
  <course>170.35</course>
  <speed>0.022360679774997897</speed>
  <fix>3d</fix>
</trkpt>
<trkpt lat="-27.2766859" lon="151.2900657">
  <ele>442.97</ele>
  <time>2026-09-01T19:59:04Z</time>
  <course>127.07</course>
  <speed>0.09</speed>
  <fix>3d</fix>
</trkpt>
<trkpt lat="-27.2766858" lon="151.2900655">
  <ele>442.88</ele>
  <time>2026-09-01T19:59:04Z</time>
  <course>170.35</course>
  <speed>0.01414213562373095</speed>
  <fix>3d</fix>
</trkpt>
<trkpt lat="-27.2766859" lon="151.2900657">
  <ele>442.97</ele>
  <time>2026-09-01T19:59:04Z</time>
  <course>127.07</course>
  <speed>0.09</speed>
  <fix>3d</fix>
</trkpt>
<trkpt lat="-27.2766858" lon="151.2900655">
  <ele>442.88</ele>
  <time>2026-09-01T19:59:04Z</time>
  <course>170.36</course>
  <speed>0.01</speed>
  <fix>3d</fix>
</trkpt>
<trkpt lat="-27.276686" lon="151.2900658">
  <ele>442.96</ele>
  <time>2026-09-01T19:59:04Z</time>
  <course>125.3</course>
  <speed>0.07</speed>
  <fix>3d</fix>
</trkpt>
<trkpt lat="-27.2766859" lon="151.2900656">
  <ele>442.88</ele>
  <time>2026-09-01T19:59:04Z</time>
  <course>170.36</course>
  <speed>0.0</speed>
  <fix>3d</fix>
</trkpt>
<trkpt lat="-27.276686" lon="151.2900658">
  <ele>442.96</ele>
  <time>2026-09-01T19:59:04Z</time>
  <course>125.3</course>
  <speed>0.07</speed>
  <fix>3d</fix>
</trkpt>
<trkpt lat="-27.2766859" lon="151.2900656">
  <ele>442.88</ele>
  <time>2026-09-01T19:59:04Z</time>
  <course>170.37</course>
  <speed>0.0</speed>
  <fix>3d</fix>
</trkpt>
<trkpt lat="-27.2766861" lon="151.2900659">
  <ele>442.96</ele>
  <time>2026-09-01T19:59:04Z</time>
  <course>122.88</course>
  <speed>0.05</speed>
  <fix>3d</fix>
</trkpt>
<trkpt lat="-27.2766859" lon="151.2900656">
  <ele>442.88</ele>
  <time>2026-09-01T19:59:04Z</time>
  <course>170.37</course>
  <speed>0.01414213562373095</speed>
  <fix>3d</fix>
</trkpt>
<trkpt lat="-27.2766861" lon="151.2900659">
  <ele>442.96</ele>
  <time>2026-09-01T19:59:04Z</time>
  <course>122.88</course>
  <speed>0.05</speed>
  <fix>3d</fix>
</trkpt>
<trkpt lat="-27.2766859" lon="151.2900657">
  <ele>442.88</ele>
  <time>2026-09-01T19:59:04Z</time>
  <course>170.37</course>
  <speed>0.022360679774997897</speed>
  <fix>3d</fix>
</trkpt>
<trkpt lat="-27.2766862" lon="151.290066">
  <ele>442.96</ele>
  <time>2026-09-01T19:59:04Z</time>
  <course>118.07</course>
  <speed>0.03</speed>
  <fix>3d</fix>
</trkpt>
<trkpt lat="-27.2766859" lon="151.2900657">
  <ele>442.88</ele>
  <time>2026-09-01T19:59:04Z</time>
  <course>170.38</course>
  <speed>0.0282842712474619</speed>
  <fix>3d</fix>
</trkpt>
<trkpt lat="-27.2766862" lon="151.290066">
  <ele>442.96</ele>
  <time>2026-09-01T19:59:04Z</time>
  <course>118.07</course>
  <speed>0.03</speed>
  <fix>3d</fix>
</trkpt>
<trkpt lat="-27.2766859" lon="151.2900657">
  <ele>442.87</ele>
  <time>2026-09-01T19:59:04Z</time>
  <course>170.38</course>
  <speed>0.04242640687119285</speed>
  <fix>3d</fix>
</trkpt>
<trkpt lat="-27.2766862" lon="151.2900661">
  <ele>442.96</ele>
  <time>2026-09-01T19:59:04Z</time>
  <course>100.98</course>
  <speed>0.01</speed>
  <fix>3d</fix>
</trkpt>
<trkpt lat="-27.2766859" lon="151.2900657">
  <ele>442.88</ele>
  <time>2026-09-01T19:59:04Z</time>
  <course>170.39</course>
  <speed>0.05</speed>
  <fix>3d</fix>
</trkpt>
<trkpt lat="-27.2766862" lon="151.2900661">
  <ele>442.96</ele>
  <time>2026-09-01T19:59:04Z</time>
  <course>100.98</course>
  <speed>0.01</speed>
  <fix>3d</fix>
</trkpt>
<trkpt lat="-27.2766859" lon="151.2900657">
  <ele>442.88</ele>
  <time>2026-09-01T19:59:04Z</time>
  <course>170.39</course>
  <speed>0.0565685424949238</speed>
  <fix>3d</fix>
</trkpt>
<trkpt lat="-27.2766862" lon="151.2900661">
  <ele>442.96</ele>
  <time>2026-09-01T19:59:04Z</time>
  <course>355.18</course>
  <speed>0.0</speed>
  <fix>3d</fix>
</trkpt>
<trkpt lat="-27.2766859" lon="151.2900657">
  <ele>442.88</ele>
  <time>2026-09-01T19:59:04Z</time>
  <course>170.38</course>
  <speed>0.06403124237432849</speed>
  <fix>3d</fix>
</trkpt>
<trkpt lat="-27.2766862" lon="151.2900661">
  <ele>442.96</ele>
  <time>2026-09-01T19:59:04Z</time>
  <course>355.18</course>
  <speed>0.0</speed>
  <fix>3d</fix>
</trkpt>
<trkpt lat="-27.2766859" lon="151.2900657">
  <ele>442.88</ele>
  <time>2026-09-01T19:59:04Z</time>
  <course>170.38</course>
  <speed>0.07071067811865475</speed>
  <fix>3d</fix>
</trkpt>
<trkpt lat="-27.2766862" lon="151.2900661">
  <ele>442.96</ele>
  <time>2026-09-01T19:59:04Z</time>
  <course>325.4</course>
  <speed>0.02</speed>
  <fix>3d</fix>
</trkpt>
<trkpt lat="-27.2766859" lon="151.2900657">
  <ele>442.88</ele>
  <time>2026-09-01T19:59:04Z</time>
  <course>170.38</course>
  <speed>0.07810249675906654</speed>
  <fix>3d</fix>
</trkpt>
<trkpt lat="-27.2766862" lon="151.2900661">
  <ele>442.96</ele>
  <time>2026-09-01T19:59:04Z</time>
  <course>325.4</course>
  <speed>0.02</speed>
  <fix>3d</fix>
</trkpt>
<trkpt lat="-27.2766859" lon="151.2900657">
  <ele>442.89</ele>
  <time>2026-09-01T19:59:04Z</time>
  <course>170.37</course>
  <speed>0.0848528137423857</speed>
  <fix>3d</fix>
</trkpt>
<trkpt lat="-27.2766862" lon="151.2900661">
  <ele>442.97</ele>
  <time>2026-09-01T19:59:04Z</time>
  <course>320.1</course>
  <speed>0.04</speed>
  <fix>3d</fix>
</trkpt>
<trkpt lat="-27.2766859" lon="151.2900656">
  <ele>442.89</ele>
  <time>2026-09-01T19:59:04Z</time>
  <course>170.38</course>
  <speed>0.09219544457292887</speed>
  <fix>3d</fix>
</trkpt>
<trkpt lat="-27.2766862" lon="151.2900661">
  <ele>442.97</ele>
  <time>2026-09-01T19:59:04Z</time>
  <course>320.1</course>
  <speed>0.04</speed>
  <fix>3d</fix>
</trkpt>
<trkpt lat="-27.2766858" lon="151.2900656">
  <ele>442.89</ele>
  <time>2026-09-01T19:59:04Z</time>
  <course>170.39</course>
  <speed>0.09219544457292887</speed>
  <fix>3d</fix>
</trkpt>
<trkpt lat="-27.2766861" lon="151.2900661">
  <ele>442.97</ele>
  <time>2026-09-01T19:59:04Z</time>
  <course>318.19</course>
  <speed>0.05</speed>
  <fix>3d</fix>
</trkpt>
<trkpt lat="-27.2766858" lon="151.2900656">
  <ele>442.89</ele>
  <time>2026-09-01T19:59:04Z</time>
  <course>170.4</course>
  <speed>0.09219544457292887</speed>
  <fix>3d</fix>
</trkpt>
<trkpt lat="-27.2766861" lon="151.2900661">
  <ele>442.97</ele>
  <time>2026-09-01T19:59:04Z</time>
  <course>318.19</course>
  <speed>0.05</speed>
  <fix>3d</fix>
</trkpt>
<trkpt lat="-27.2766858" lon="151.2900655">
  <ele>442.89</ele>
  <time>2026-09-01T19:59:04Z</time>
  <course>170.41</course>
  <speed>0.1063014581273465</speed>
  <fix>3d</fix>
</trkpt>
<trkpt lat="-27.276686" lon="151.290066">
  <ele>442.97</ele>
  <time>2026-09-01T19:59:04Z</time>
  <course>316.58</course>
  <speed>0.06</speed>
  <fix>3d</fix>
</trkpt>
<trkpt lat="-27.2766857" lon="151.2900655">
  <ele>442.9</ele>
  <time>2026-09-01T19:59:04Z</time>
  <course>170.42</course>
  <speed>0.1063014581273465</speed>
  <fix>3d</fix>
</trkpt>
<trkpt lat="-27.276686" lon="151.290066">
  <ele>442.97</ele>
  <time>2026-09-01T19:59:04Z</time>
  <course>316.58</course>
  <speed>0.06</speed>
  <fix>3d</fix>
</trkpt>
<trkpt lat="-27.2766857" lon="151.2900655">
  <ele>442.9</ele>
  <time>2026-09-01T19:59:04Z</time>
  <course>170.42</course>
  <speed>0.1063014581273465</speed>
  <fix>3d</fix>
</trkpt>
<trkpt lat="-27.2766859" lon="151.2900659">
  <ele>442.97</ele>
  <time>2026-09-01T19:59:04Z</time>
  <course>314.63</course>
  <speed>0.07</speed>
  <fix>3d</fix>
</trkpt>
<trkpt lat="-27.2766856" lon="151.2900654">
  <ele>442.9</ele>
  <time>2026-09-01T19:59:04Z</time>
  <course>170.41</course>
  <speed>0.11401754250991379</speed>
  <fix>3d</fix>
</trkpt>
<trkpt lat="-27.2766859" lon="151.2900659">
  <ele>442.97</ele>
  <time>2026-09-01T19:59:04Z</time>
  <course>314.63</course>
  <speed>0.07</speed>
  <fix>3d</fix>
</trkpt>
<trkpt lat="-27.2766856" lon="151.2900653">
  <ele>442.9</ele>
  <time>2026-09-01T19:59:04Z</time>
  <course>170.41</course>
  <speed>0.11401754250991379</speed>
  <fix>3d</fix>
</trkpt>
<trkpt lat="-27.2766858" lon="151.2900657">
  <ele>442.96</ele>
  <time>2026-09-01T19:59:04Z</time>
  <course>312.69</course>
  <speed>0.08</speed>
  <fix>3d</fix>
</trkpt>
<trkpt lat="-27.2766855" lon="151.2900653">
  <ele>442.9</ele>
  <time>2026-09-01T19:59:04Z</time>
  <course>170.4</course>
  <speed>0.11401754250991379</speed>
  <fix>3d</fix>
</trkpt>
<trkpt lat="-27.2766858" lon="151.2900657">
  <ele>442.96</ele>
  <time>2026-09-01T19:59:04Z</time>
  <course>312.69</course>
  <speed>0.08</speed>
  <fix>3d</fix>
</trkpt>
<trkpt lat="-27.2766855" lon="151.2900652">
  <ele>442.9</ele>
  <time>2026-09-01T19:59:04Z</time>
  <course>170.4</course>
  <speed>0.11401754250991379</speed>
  <fix>3d</fix>
</trkpt>
<trkpt lat="-27.2766857" lon="151.2900656">
  <ele>442.96</ele>
  <time>2026-09-01T19:59:04Z</time>
  <course>311.26</course>
  <speed>0.08</speed>
  <fix>3d</fix>
</trkpt>
<trkpt lat="-27.2766854" lon="151.2900652">
  <ele>442.9</ele>
  <time>2026-09-01T19:59:04Z</time>
  <course>170.4</course>
  <speed>0.11401754250991379</speed>
  <fix>3d</fix>
</trkpt>
<trkpt lat="-27.2766857" lon="151.2900656">
  <ele>442.96</ele>
  <time>2026-09-01T19:59:04Z</time>
  <course>311.26</course>
  <speed>0.08</speed>
  <fix>3d</fix>
</trkpt>
<trkpt lat="-27.2766854" lon="151.2900651">
  <ele>442.9</ele>
  <time>2026-09-01T19:59:04Z</time>
  <course>170.41</course>
  <speed>0.11401754250991379</speed>
  <fix>3d</fix>
</trkpt>
<trkpt lat="-27.2766856" lon="151.2900655">
  <ele>442.96</ele>
  <time>2026-09-01T19:59:04Z</time>
  <course>310.41</course>
  <speed>0.09</speed>
  <fix>3d</fix>
</trkpt>
<trkpt lat="-27.2766853" lon="151.290065">
  <ele>442.89</ele>
  <time>2026-09-01T19:59:04Z</time>
  <course>170.42</course>
  <speed>0.11401754250991379</speed>
  <fix>3d</fix>
</trkpt>
<trkpt lat="-27.2766856" lon="151.2900655">
  <ele>442.96</ele>
  <time>2026-09-01T19:59:04Z</time>
  <course>310.41</course>
  <speed>0.09</speed>
  <fix>3d</fix>
</trkpt>
<trkpt lat="-27.2766853" lon="151.290065">
  <ele>442.89</ele>
  <time>2026-09-01T19:59:04Z</time>
  <course>170.43</course>
  <speed>0.11401754250991379</speed>
  <fix>3d</fix>
</trkpt>
<trkpt lat="-27.2766855" lon="151.2900654">
  <ele>442.95</ele>
  <time>2026-09-01T19:59:04Z</time>
  <course>309.76</course>
  <speed>0.09</speed>
  <fix>3d</fix>
</trkpt>
<trkpt lat="-27.2766852" lon="151.2900649">
  <ele>442.89</ele>
  <time>2026-09-01T19:59:04Z</time>
  <course>170.43</course>
  <speed>0.11401754250991379</speed>
  <fix>3d</fix>
</trkpt>
<trkpt lat="-27.2766855" lon="151.2900654">
  <ele>442.95</ele>
  <time>2026-09-01T19:59:04Z</time>
  <course>309.76</course>
  <speed>0.09</speed>
  <fix>3d</fix>
</trkpt>
<trkpt lat="-27.2766852" lon="151.2900648">
  <ele>442.89</ele>
  <time>2026-09-01T19:59:04Z</time>
  <course>170.42</course>
  <speed>0.11401754250991379</speed>
  <fix>3d</fix>
</trkpt>
<trkpt lat="-27.2766854" lon="151.2900652">
  <ele>442.95</ele>
  <time>2026-09-01T19:59:04Z</time>
  <course>309.01</course>
  <speed>0.09</speed>
  <fix>3d</fix>
</trkpt>
<trkpt lat="-27.2766851" lon="151.2900648">
  <ele>442.89</ele>
  <time>2026-09-01T19:59:04Z</time>
  <course>170.42</course>
  <speed>0.10816653826391968</speed>
  <fix>3d</fix>
</trkpt>
<trkpt lat="-27.2766854" lon="151.2900652">
  <ele>442.95</ele>
  <time>2026-09-01T19:59:04Z</time>
  <course>309.01</course>
  <speed>0.09</speed>
  <fix>3d</fix>
</trkpt>
<trkpt lat="-27.2766851" lon="151.2900647">
  <ele>442.89</ele>
  <time>2026-09-01T19:59:04Z</time>
  <course>170.42</course>
  <speed>0.10816653826391968</speed>
  <fix>3d</fix>
</trkpt>
<trkpt lat="-27.2766853" lon="151.2900651">
  <ele>442.94</ele>
  <time>2026-09-01T19:59:04Z</time>
  <course>308.38</course>
  <speed>0.08</speed>
  <fix>3d</fix>
</trkpt>
<trkpt lat="-27.2766851" lon="151.2900646">
  <ele>442.89</ele>
  <time>2026-09-01T19:59:04Z</time>
  <course>170.42</course>
  <speed>0.1</speed>
  <fix>3d</fix>
</trkpt>
<trkpt lat="-27.2766853" lon="151.2900651">
  <ele>442.94</ele>
  <time>2026-09-01T19:59:04Z</time>
  <course>308.38</course>
  <speed>0.08</speed>
  <fix>3d</fix>
</trkpt>
<trkpt lat="-27.276685" lon="151.2900646">
  <ele>442.89</ele>
  <time>2026-09-01T19:59:04Z</time>
  <course>170.42</course>
  <speed>0.1</speed>
  <fix>3d</fix>
</trkpt>
<trkpt lat="-27.2766852" lon="151.290065">
  <ele>442.94</ele>
  <time>2026-09-01T19:59:04Z</time>
  <course>308.36</course>
  <speed>0.08</speed>
  <fix>3d</fix>
</trkpt>
<trkpt lat="-27.276685" lon="151.2900645">
  <ele>442.88</ele>
  <time>2026-09-01T19:59:04Z</time>
  <course>170.42</course>
  <speed>0.1</speed>
  <fix>3d</fix>
</trkpt>
<trkpt lat="-27.2766852" lon="151.290065">
  <ele>442.94</ele>
  <time>2026-09-01T19:59:04Z</time>
  <course>308.36</course>
  <speed>0.08</speed>
  <fix>3d</fix>
</trkpt>
<trkpt lat="-27.2766849" lon="151.2900645">
  <ele>442.88</ele>
  <time>2026-09-01T19:59:04Z</time>
  <course>170.43</course>
  <speed>0.1</speed>
  <fix>3d</fix>
</trkpt>
<trkpt lat="-27.2766851" lon="151.2900648">
  <ele>442.94</ele>
  <time>2026-09-01T19:59:04Z</time>
  <course>308.86</course>
  <speed>0.07</speed>
  <fix>3d</fix>
</trkpt>
<trkpt lat="-27.2766849" lon="151.2900644">
  <ele>442.88</ele>
  <time>2026-09-01T19:59:04Z</time>
  <course>170.43</course>
  <speed>0.08602325267042626</speed>
  <fix>3d</fix>
</trkpt>
<trkpt lat="-27.2766851" lon="151.2900648">
  <ele>442.94</ele>
  <time>2026-09-01T19:59:04Z</time>
  <course>308.86</course>
  <speed>0.07</speed>
  <fix>3d</fix>
</trkpt>
<trkpt lat="-27.2766849" lon="151.2900644">
  <ele>442.87</ele>
  <time>2026-09-01T19:59:04Z</time>
  <course>170.44</course>
  <speed>0.08602325267042626</speed>
  <fix>3d</fix>
</trkpt>
<trkpt lat="-27.276685" lon="151.2900647">
  <ele>442.94</ele>
  <time>2026-09-01T19:59:04Z</time>
  <course>309.09</course>
  <speed>0.07</speed>
  <fix>3d</fix>
</trkpt>
<trkpt lat="-27.2766848" lon="151.2900643">
  <ele>442.87</ele>
  <time>2026-09-01T19:59:04Z</time>
  <course>170.44</course>
  <speed>0.08602325267042626</speed>
  <fix>3d</fix>
</trkpt>
<trkpt lat="-27.276685" lon="151.2900647">
  <ele>442.94</ele>
  <time>2026-09-01T19:59:04Z</time>
  <course>309.09</course>
  <speed>0.07</speed>
  <fix>3d</fix>
</trkpt>
<trkpt lat="-27.2766848" lon="151.2900643">
  <ele>442.87</ele>
  <time>2026-09-01T19:59:04Z</time>
  <course>170.44</course>
  <speed>0.08602325267042626</speed>
  <fix>3d</fix>
</trkpt>
<trkpt lat="-27.276685" lon="151.2900646">
  <ele>442.94</ele>
  <time>2026-09-01T19:59:04Z</time>
  <course>308.35</course>
  <speed>0.06</speed>
  <fix>3d</fix>
</trkpt>
<trkpt lat="-27.2766848" lon="151.2900642">
  <ele>442.86</ele>
  <time>2026-09-01T19:59:04Z</time>
  <course>170.44</course>
  <speed>0.07211102550927978</speed>
  <fix>3d</fix>
</trkpt>
<trkpt lat="-27.276685" lon="151.2900646">
  <ele>442.94</ele>
  <time>2026-09-01T19:59:04Z</time>
  <course>308.35</course>
  <speed>0.06</speed>
  <fix>3d</fix>
</trkpt>
<trkpt lat="-27.2766847" lon="151.2900642">
  <ele>442.86</ele>
  <time>2026-09-01T19:59:04Z</time>
  <course>170.44</course>
  <speed>0.07211102550927978</speed>
  <fix>3d</fix>
</trkpt>
<trkpt lat="-27.2766849" lon="151.2900645">
  <ele>442.94</ele>
  <time>2026-09-01T19:59:04Z</time>
  <course>306.83</course>
  <speed>0.05</speed>
  <fix>3d</fix>
</trkpt>
<trkpt lat="-27.2766847" lon="151.2900642">
  <ele>442.86</ele>
  <time>2026-09-01T19:59:04Z</time>
  <course>170.44</course>
  <speed>0.0670820393249937</speed>
  <fix>3d</fix>
</trkpt>
<trkpt lat="-27.2766849" lon="151.2900645">
  <ele>442.94</ele>
  <time>2026-09-01T19:59:04Z</time>
  <course>306.83</course>
  <speed>0.05</speed>
  <fix>3d</fix>
</trkpt>
<trkpt lat="-27.2766847" lon="151.2900641">
  <ele>442.86</ele>
  <time>2026-09-01T19:59:04Z</time>
  <course>170.44</course>
  <speed>0.05830951894845301</speed>
  <fix>3d</fix>
</trkpt>
<trkpt lat="-27.2766849" lon="151.2900644">
  <ele>442.94</ele>
  <time>2026-09-01T19:59:04Z</time>
  <course>304.69</course>
  <speed>0.04</speed>
  <fix>3d</fix>
</trkpt>
<trkpt lat="-27.2766847" lon="151.2900641">
  <ele>442.86</ele>
  <time>2026-09-01T19:59:04Z</time>
  <course>170.45</course>
  <speed>0.05830951894845301</speed>
  <fix>3d</fix>
</trkpt>
<trkpt lat="-27.2766849" lon="151.2900644">
  <ele>442.94</ele>
  <time>2026-09-01T19:59:04Z</time>
  <course>304.69</course>
  <speed>0.04</speed>
  <fix>3d</fix>
</trkpt>
<trkpt lat="-27.2766847" lon="151.2900641">
  <ele>442.86</ele>
  <time>2026-09-01T19:59:04Z</time>
  <course>170.45</course>
  <speed>0.05830951894845301</speed>
  <fix>3d</fix>
</trkpt>
<trkpt lat="-27.2766848" lon="151.2900643">
  <ele>442.94</ele>
  <time>2026-09-01T19:59:04Z</time>
  <course>301.88</course>
  <speed>0.04</speed>
  <fix>3d</fix>
</trkpt>
<trkpt lat="-27.2766847" lon="151.290064">
  <ele>442.87</ele>
  <time>2026-09-01T19:59:04Z</time>
  <course>170.46</course>
  <speed>0.053851648071345036</speed>
  <fix>3d</fix>
</trkpt>
<trkpt lat="-27.2766848" lon="151.2900643">
  <ele>442.94</ele>
  <time>2026-09-01T19:59:04Z</time>
  <course>301.88</course>
  <speed>0.04</speed>
  <fix>3d</fix>
</trkpt>
<trkpt lat="-27.2766847" lon="151.290064">
  <ele>442.87</ele>
  <time>2026-09-01T19:59:04Z</time>
  <course>170.46</course>
  <speed>0.044721359549995794</speed>
  <fix>3d</fix>
</trkpt>
<trkpt lat="-27.2766848" lon="151.2900642">
  <ele>442.94</ele>
  <time>2026-09-01T19:59:04Z</time>
  <course>298.68</course>
  <speed>0.03</speed>
  <fix>3d</fix>
</trkpt>
<trkpt lat="-27.2766847" lon="151.290064">
  <ele>442.87</ele>
  <time>2026-09-01T19:59:04Z</time>
  <course>170.46</course>
  <speed>0.044721359549995794</speed>
  <fix>3d</fix>
</trkpt>
<trkpt lat="-27.2766848" lon="151.2900642">
  <ele>442.94</ele>
  <time>2026-09-01T19:59:04Z</time>
  <course>298.68</course>
  <speed>0.03</speed>
  <fix>3d</fix>
</trkpt>
<trkpt lat="-27.2766847" lon="151.290064">
  <ele>442.87</ele>
  <time>2026-09-01T19:59:04Z</time>
  <course>170.46</course>
  <speed>0.044721359549995794</speed>
  <fix>3d</fix>
</trkpt>
<trkpt lat="-27.2766848" lon="151.2900642">
  <ele>442.95</ele>
  <time>2026-09-01T19:59:04Z</time>
  <course>294.94</course>
  <speed>0.02</speed>
  <fix>3d</fix>
</trkpt>
<trkpt lat="-27.2766847" lon="151.2900639">
  <ele>442.87</ele>
  <time>2026-09-01T19:59:04Z</time>
  <course>170.46</course>
  <speed>0.0316227766016838</speed>
  <fix>3d</fix>
</trkpt>
<trkpt lat="-27.2766848" lon="151.2900642">
  <ele>442.95</ele>
  <time>2026-09-01T19:59:04Z</time>
  <course>294.94</course>
  <speed>0.02</speed>
  <fix>3d</fix>
</trkpt>
<trkpt lat="-27.2766847" lon="151.2900639">
  <ele>442.87</ele>
  <time>2026-09-01T19:59:04Z</time>
  <course>170.46</course>
  <speed>0.0316227766016838</speed>
  <fix>3d</fix>
</trkpt>
<trkpt lat="-27.2766848" lon="151.2900642">
  <ele>442.95</ele>
  <time>2026-09-01T19:59:04Z</time>
  <course>289.27</course>
  <speed>0.01</speed>
  <fix>3d</fix>
</trkpt>
<trkpt lat="-27.2766847" lon="151.2900639">
  <ele>442.88</ele>
  <time>2026-09-01T19:59:04Z</time>
  <course>170.45</course>
  <speed>0.0316227766016838</speed>
  <fix>3d</fix>
</trkpt>
<trkpt lat="-27.2766848" lon="151.2900642">
  <ele>442.95</ele>
  <time>2026-09-01T19:59:04Z</time>
  <course>289.27</course>
  <speed>0.01</speed>
  <fix>3d</fix>
</trkpt>
<trkpt lat="-27.2766847" lon="151.2900639">
  <ele>442.88</ele>
  <time>2026-09-01T19:59:04Z</time>
  <course>170.45</course>
  <speed>0.022360679774997897</speed>
  <fix>3d</fix>
</trkpt>
<trkpt lat="-27.2766848" lon="151.2900642">
  <ele>442.96</ele>
  <time>2026-09-01T19:59:04Z</time>
  <course>273.76</course>
  <speed>0.0</speed>
  <fix>3d</fix>
</trkpt>
<trkpt lat="-27.2766847" lon="151.2900639">
  <ele>442.88</ele>
  <time>2026-09-01T19:59:04Z</time>
  <course>170.46</course>
  <speed>0.02</speed>
  <fix>3d</fix>
</trkpt>
<trkpt lat="-27.2766848" lon="151.2900642">
  <ele>442.96</ele>
  <time>2026-09-01T19:59:04Z</time>
  <course>273.76</course>
  <speed>0.0</speed>
  <fix>3d</fix>
</trkpt>
<trkpt lat="-27.2766847" lon="151.2900639">
  <ele>442.88</ele>
  <time>2026-09-01T19:59:04Z</time>
  <course>170.46</course>
  <speed>0.02</speed>
  <fix>3d</fix>
</trkpt>
<trkpt lat="-27.2766848" lon="151.2900642">
  <ele>442.96</ele>
  <time>2026-09-01T19:59:04Z</time>
  <course>184.97</course>
  <speed>0.0</speed>
  <fix>3d</fix>
</trkpt>
<trkpt lat="-27.2766847" lon="151.290064">
  <ele>442.88</ele>
  <time>2026-09-01T19:59:04Z</time>
  <course>170.46</course>
  <speed>0.01</speed>
  <fix>3d</fix>
</trkpt>
<trkpt lat="-27.2766848" lon="151.2900642">
  <ele>442.96</ele>
  <time>2026-09-01T19:59:04Z</time>
  <course>184.97</course>
  <speed>0.0</speed>
  <fix>3d</fix>
</trkpt>
<trkpt lat="-27.2766847" lon="151.290064">
  <ele>442.88</ele>
  <time>2026-09-01T19:59:04Z</time>
  <course>170.46</course>
  <speed>0.01</speed>
  <fix>3d</fix>
</trkpt>
<trkpt lat="-27.2766848" lon="151.2900642">
  <ele>442.96</ele>
  <time>2026-09-01T19:59:04Z</time>
  <course>141.0</course>
  <speed>0.01</speed>
  <fix>3d</fix>
</trkpt>
<trkpt lat="-27.2766847" lon="151.290064">
  <ele>442.88</ele>
  <time>2026-09-01T19:59:04Z</time>
  <course>170.47</course>
  <speed>0.01</speed>
  <fix>3d</fix>
</trkpt>
<trkpt lat="-27.2766848" lon="151.2900642">
  <ele>442.96</ele>
  <time>2026-09-01T19:59:04Z</time>
  <course>141.0</course>
  <speed>0.01</speed>
  <fix>3d</fix>
</trkpt>
<trkpt lat="-27.2766847" lon="151.290064">
  <ele>442.88</ele>
  <time>2026-09-01T19:59:04Z</time>
  <course>170.47</course>
  <speed>0.0</speed>
  <fix>3d</fix>
</trkpt>
<trkpt lat="-27.2766848" lon="151.2900642">
  <ele>442.97</ele>
  <time>2026-09-01T19:59:04Z</time>
  <course>133.19</course>
  <speed>0.01</speed>
  <fix>3d</fix>
</trkpt>
<trkpt lat="-27.2766847" lon="151.290064">
  <ele>442.88</ele>
  <time>2026-09-01T19:59:04Z</time>
  <course>170.47</course>
  <speed>0.0</speed>
  <fix>3d</fix>
</trkpt>
<trkpt lat="-27.2766848" lon="151.2900642">
  <ele>442.97</ele>
  <time>2026-09-01T19:59:04Z</time>
  <course>133.19</course>
  <speed>0.01</speed>
  <fix>3d</fix>
</trkpt>
<trkpt lat="-27.2766847" lon="151.290064">
  <ele>442.88</ele>
  <time>2026-09-01T19:59:04Z</time>
  <course>170.47</course>
  <speed>0.0</speed>
  <fix>3d</fix>
</trkpt>
<trkpt lat="-27.2766848" lon="151.2900642">
  <ele>442.97</ele>
  <time>2026-09-01T19:59:04Z</time>
  <course>130.28</course>
  <speed>0.02</speed>
  <fix>3d</fix>
</trkpt>
<trkpt lat="-27.2766847" lon="151.290064">
  <ele>442.88</ele>
  <time>2026-09-01T19:59:04Z</time>
  <course>170.47</course>
  <speed>0.0</speed>
  <fix>3d</fix>
</trkpt>
<trkpt lat="-27.2766848" lon="151.2900642">
  <ele>442.97</ele>
  <time>2026-09-01T19:59:04Z</time>
  <course>130.28</course>
  <speed>0.02</speed>
  <fix>3d</fix>
</trkpt>
<trkpt lat="-27.2766847" lon="151.290064">
  <ele>442.89</ele>
  <time>2026-09-01T19:59:04Z</time>
  <course>170.47</course>
  <speed>0.0</speed>
  <fix>3d</fix>
</trkpt>
<trkpt lat="-27.2766848" lon="151.2900642">
  <ele>442.97</ele>
  <time>2026-09-01T19:59:04Z</time>
  <course>128.33</course>
  <speed>0.03</speed>
  <fix>3d</fix>
</trkpt>
<trkpt lat="-27.2766847" lon="151.290064">
  <ele>442.89</ele>
  <time>2026-09-01T19:59:04Z</time>
  <course>170.47</course>
  <speed>0.0</speed>
  <fix>3d</fix>
</trkpt>
<trkpt lat="-27.2766848" lon="151.2900642">
  <ele>442.97</ele>
  <time>2026-09-01T19:59:04Z</time>
  <course>128.33</course>
  <speed>0.03</speed>
  <fix>3d</fix>
</trkpt>
<trkpt lat="-27.2766847" lon="151.290064">
  <ele>442.89</ele>
  <time>2026-09-01T19:59:04Z</time>
  <course>170.48</course>
  <speed>0.0</speed>
  <fix>3d</fix>
</trkpt>
<trkpt lat="-27.2766848" lon="151.2900642">
  <ele>442.97</ele>
  <time>2026-09-01T19:59:04Z</time>
  <course>127.05</course>
  <speed>0.03</speed>
  <fix>3d</fix>
</trkpt>
<trkpt lat="-27.2766848" lon="151.2900641">
  <ele>442.89</ele>
  <time>2026-09-01T19:59:04Z</time>
  <course>170.48</course>
  <speed>0.0</speed>
  <fix>3d</fix>
</trkpt>
<trkpt lat="-27.2766848" lon="151.2900642">
  <ele>442.97</ele>
  <time>2026-09-01T19:59:04Z</time>
  <course>127.05</course>
  <speed>0.03</speed>
  <fix>3d</fix>
</trkpt>
<trkpt lat="-27.2766848" lon="151.2900641">
  <ele>442.89</ele>
  <time>2026-09-01T19:59:04Z</time>
  <course>170.48</course>
  <speed>0.0</speed>
  <fix>3d</fix>
</trkpt>
<trkpt lat="-27.2766848" lon="151.2900642">
  <ele>442.97</ele>
  <time>2026-09-01T19:59:04Z</time>
  <course>126.16</course>
  <speed>0.04</speed>
  <fix>3d</fix>
</trkpt>
<trkpt lat="-27.2766848" lon="151.2900641">
  <ele>442.89</ele>
  <time>2026-09-01T19:59:04Z</time>
  <course>170.48</course>
  <speed>0.0</speed>
  <fix>3d</fix>
</trkpt>
<trkpt lat="-27.2766848" lon="151.2900642">
  <ele>442.97</ele>
  <time>2026-09-01T19:59:04Z</time>
  <course>126.16</course>
  <speed>0.04</speed>
  <fix>3d</fix>
</trkpt>
<trkpt lat="-27.2766848" lon="151.2900641">
  <ele>442.89</ele>
  <time>2026-09-01T19:59:04Z</time>
  <course>170.48</course>
  <speed>0.0</speed>
  <fix>3d</fix>
</trkpt>
<trkpt lat="-27.2766849" lon="151.2900643">
  <ele>442.97</ele>
  <time>2026-09-01T19:59:04Z</time>
  <course>125.49</course>
  <speed>0.04</speed>
  <fix>3d</fix>
</trkpt>
<trkpt lat="-27.2766848" lon="151.2900642">
  <ele>442.89</ele>
  <time>2026-09-01T19:59:04Z</time>
  <course>170.49</course>
  <speed>0.0</speed>
  <fix>3d</fix>
</trkpt>
<trkpt lat="-27.2766849" lon="151.2900643">
  <ele>442.97</ele>
  <time>2026-09-01T19:59:04Z</time>
  <course>125.49</course>
  <speed>0.04</speed>
  <fix>3d</fix>
</trkpt>
<trkpt lat="-27.2766848" lon="151.2900642">
  <ele>442.89</ele>
  <time>2026-09-01T19:59:04Z</time>
  <course>170.49</course>
  <speed>0.0</speed>
  <fix>3d</fix>
</trkpt>
<trkpt lat="-27.2766849" lon="151.2900644">
  <ele>442.97</ele>
  <time>2026-09-01T19:59:04Z</time>
  <course>125.27</course>
  <speed>0.04</speed>
  <fix>3d</fix>
</trkpt>
<trkpt lat="-27.2766849" lon="151.2900642">
  <ele>442.89</ele>
  <time>2026-09-01T19:59:04Z</time>
  <course>170.49</course>
  <speed>0.0</speed>
  <fix>3d</fix>
</trkpt>
<trkpt lat="-27.2766849" lon="151.2900644">
  <ele>442.97</ele>
  <time>2026-09-01T19:59:04Z</time>
  <course>125.27</course>
  <speed>0.04</speed>
  <fix>3d</fix>
</trkpt>
<trkpt lat="-27.2766849" lon="151.2900643">
  <ele>442.89</ele>
  <time>2026-09-01T19:59:04Z</time>
  <course>170.5</course>
  <speed>0.01</speed>
  <fix>3d</fix>
</trkpt>
<trkpt lat="-27.276685" lon="151.2900645">
  <ele>442.97</ele>
  <time>2026-09-01T19:59:04Z</time>
  <course>125.55</course>
  <speed>0.04</speed>
  <fix>3d</fix>
</trkpt>
<trkpt lat="-27.2766849" lon="151.2900643">
  <ele>442.89</ele>
  <time>2026-09-01T19:59:04Z</time>
  <course>170.5</course>
  <speed>0.01</speed>
  <fix>3d</fix>
</trkpt>
<trkpt lat="-27.276685" lon="151.2900645">
  <ele>442.97</ele>
  <time>2026-09-01T19:59:04Z</time>
  <course>125.55</course>
  <speed>0.04</speed>
  <fix>3d</fix>
</trkpt>
<trkpt lat="-27.2766849" lon="151.2900643">
  <ele>442.89</ele>
  <time>2026-09-01T19:59:04Z</time>
  <course>170.5</course>
  <speed>0.01</speed>
  <fix>3d</fix>
</trkpt>
<trkpt lat="-27.276685" lon="151.2900646">
  <ele>442.96</ele>
  <time>2026-09-01T19:59:04Z</time>
  <course>126.3</course>
  <speed>0.05</speed>
  <fix>3d</fix>
</trkpt>
<trkpt lat="-27.2766849" lon="151.2900644">
  <ele>442.89</ele>
  <time>2026-09-01T19:59:04Z</time>
  <course>170.5</course>
  <speed>0.01</speed>
  <fix>3d</fix>
</trkpt>
<trkpt lat="-27.276685" lon="151.2900646">
  <ele>442.96</ele>
  <time>2026-09-01T19:59:04Z</time>
  <course>126.3</course>
  <speed>0.05</speed>
  <fix>3d</fix>
</trkpt>
<trkpt lat="-27.276685" lon="151.2900644">
  <ele>442.88</ele>
  <time>2026-09-01T19:59:04Z</time>
  <course>170.5</course>
  <speed>0.01</speed>
  <fix>3d</fix>
</trkpt>
<trkpt lat="-27.2766851" lon="151.2900646">
  <ele>442.96</ele>
  <time>2026-09-01T19:59:04Z</time>
  <course>127.38</course>
  <speed>0.05</speed>
  <fix>3d</fix>
</trkpt>
<trkpt lat="-27.276685" lon="151.2900644">
  <ele>442.88</ele>
  <time>2026-09-01T19:59:04Z</time>
  <course>170.5</course>
  <speed>0.01</speed>
  <fix>3d</fix>
</trkpt>
<trkpt lat="-27.2766851" lon="151.2900646">
  <ele>442.96</ele>
  <time>2026-09-01T19:59:04Z</time>
  <course>127.38</course>
  <speed>0.05</speed>
  <fix>3d</fix>
</trkpt>
<trkpt lat="-27.276685" lon="151.2900645">
  <ele>442.88</ele>
  <time>2026-09-01T19:59:04Z</time>
  <course>170.49</course>
  <speed>0.0</speed>
  <fix>3d</fix>
</trkpt>
<trkpt lat="-27.2766851" lon="151.2900647">
  <ele>442.96</ele>
  <time>2026-09-01T19:59:04Z</time>
  <course>127.89</course>
  <speed>0.05</speed>
  <fix>3d</fix>
</trkpt>
<trkpt lat="-27.276685" lon="151.2900645">
  <ele>442.88</ele>
  <time>2026-09-01T19:59:04Z</time>
  <course>170.49</course>
  <speed>0.0</speed>
  <fix>3d</fix>
</trkpt>
<trkpt lat="-27.2766851" lon="151.2900647">
  <ele>442.96</ele>
  <time>2026-09-01T19:59:04Z</time>
  <course>127.89</course>
  <speed>0.05</speed>
  <fix>3d</fix>
</trkpt>
<trkpt lat="-27.276685" lon="151.2900645">
  <ele>442.88</ele>
  <time>2026-09-01T19:59:04Z</time>
  <course>170.49</course>
  <speed>0.0</speed>
  <fix>3d</fix>
</trkpt>
<trkpt lat="-27.2766852" lon="151.2900648">
  <ele>442.96</ele>
  <time>2026-09-01T19:59:04Z</time>
  <course>127.22</course>
  <speed>0.05</speed>
  <fix>3d</fix>
</trkpt>
<trkpt lat="-27.2766851" lon="151.2900646">
  <ele>442.88</ele>
  <time>2026-09-01T19:59:04Z</time>
  <course>170.5</course>
  <speed>0.0</speed>
  <fix>3d</fix>
</trkpt>
<trkpt lat="-27.2766852" lon="151.2900648">
  <ele>442.96</ele>
  <time>2026-09-01T19:59:04Z</time>
  <course>127.22</course>
  <speed>0.05</speed>
  <fix>3d</fix>
</trkpt>
<trkpt lat="-27.2766851" lon="151.2900646">
  <ele>442.88</ele>
  <time>2026-09-01T19:59:04Z</time>
  <course>170.51</course>
  <speed>0.0</speed>
  <fix>3d</fix>
</trkpt>
<trkpt lat="-27.2766852" lon="151.2900649">
  <ele>442.96</ele>
  <time>2026-09-01T19:59:04Z</time>
  <course>126.22</course>
  <speed>0.05</speed>
  <fix>3d</fix>
</trkpt>
<trkpt lat="-27.2766851" lon="151.2900646">
  <ele>442.89</ele>
  <time>2026-09-01T19:59:04Z</time>
  <course>170.51</course>
  <speed>0.0</speed>
  <fix>3d</fix>
</trkpt>
<trkpt lat="-27.2766852" lon="151.2900649">
  <ele>442.96</ele>
  <time>2026-09-01T19:59:04Z</time>
  <course>126.22</course>
  <speed>0.05</speed>
  <fix>3d</fix>
</trkpt>
<trkpt lat="-27.2766851" lon="151.2900647">
  <ele>442.89</ele>
  <time>2026-09-01T19:59:04Z</time>
  <course>170.51</course>
  <speed>0.0</speed>
  <fix>3d</fix>
</trkpt>
<trkpt lat="-27.2766853" lon="151.290065">
  <ele>442.96</ele>
  <time>2026-09-01T19:59:04Z</time>
  <course>125.29</course>
  <speed>0.04</speed>
  <fix>3d</fix>
</trkpt>
<trkpt lat="-27.2766851" lon="151.2900647">
  <ele>442.89</ele>
  <time>2026-09-01T19:59:04Z</time>
  <course>170.5</course>
  <speed>0.0</speed>
  <fix>3d</fix>
</trkpt>
<trkpt lat="-27.2766853" lon="151.290065">
  <ele>442.96</ele>
  <time>2026-09-01T19:59:04Z</time>
  <course>125.29</course>
  <speed>0.04</speed>
  <fix>3d</fix>
</trkpt>
<trkpt lat="-27.2766852" lon="151.2900647">
  <ele>442.89</ele>
  <time>2026-09-01T19:59:04Z</time>
  <course>170.5</course>
  <speed>0.0</speed>
  <fix>3d</fix>
</trkpt>
<trkpt lat="-27.2766853" lon="151.2900651">
  <ele>442.96</ele>
  <time>2026-09-01T19:59:04Z</time>
  <course>124.32</course>
  <speed>0.04</speed>
  <fix>3d</fix>
</trkpt>
<trkpt lat="-27.2766852" lon="151.2900648">
  <ele>442.89</ele>
  <time>2026-09-01T19:59:04Z</time>
  <course>170.5</course>
  <speed>0.0</speed>
  <fix>3d</fix>
</trkpt>
<trkpt lat="-27.2766853" lon="151.2900651">
  <ele>442.96</ele>
  <time>2026-09-01T19:59:04Z</time>
  <course>124.32</course>
  <speed>0.04</speed>
  <fix>3d</fix>
</trkpt>
<trkpt lat="-27.2766852" lon="151.2900648">
  <ele>442.89</ele>
  <time>2026-09-01T19:59:04Z</time>
  <course>170.5</course>
  <speed>0.0</speed>
  <fix>3d</fix>
</trkpt>
<trkpt lat="-27.2766854" lon="151.2900651">
  <ele>442.96</ele>
  <time>2026-09-01T19:59:04Z</time>
  <course>123.75</course>
  <speed>0.04</speed>
  <fix>3d</fix>
</trkpt>
<trkpt lat="-27.2766852" lon="151.2900648">
  <ele>442.89</ele>
  <time>2026-09-01T19:59:04Z</time>
  <course>170.5</course>
  <speed>0.0</speed>
  <fix>3d</fix>
</trkpt>
<trkpt lat="-27.2766854" lon="151.2900651">
  <ele>442.96</ele>
  <time>2026-09-01T19:59:04Z</time>
  <course>123.75</course>
  <speed>0.04</speed>
  <fix>3d</fix>
</trkpt>
<trkpt lat="-27.2766852" lon="151.2900649">
  <ele>442.89</ele>
  <time>2026-09-01T19:59:04Z</time>
  <course>170.51</course>
  <speed>0.0</speed>
  <fix>3d</fix>
</trkpt>
<trkpt lat="-27.2766854" lon="151.2900652">
  <ele>442.96</ele>
  <time>2026-09-01T19:59:04Z</time>
  <course>123.82</course>
  <speed>0.03</speed>
  <fix>3d</fix>
</trkpt>
<trkpt lat="-27.2766852" lon="151.2900649">
  <ele>442.89</ele>
  <time>2026-09-01T19:59:04Z</time>
  <course>170.51</course>
  <speed>0.01</speed>
  <fix>3d</fix>
</trkpt>
<trkpt lat="-27.2766854" lon="151.2900652">
  <ele>442.96</ele>
  <time>2026-09-01T19:59:04Z</time>
  <course>123.82</course>
  <speed>0.03</speed>
  <fix>3d</fix>
</trkpt>
<trkpt lat="-27.2766852" lon="151.2900649">
  <ele>442.89</ele>
  <time>2026-09-01T19:59:04Z</time>
  <course>170.51</course>
  <speed>0.01</speed>
  <fix>3d</fix>
</trkpt>
<trkpt lat="-27.2766855" lon="151.2900652">
  <ele>442.96</ele>
  <time>2026-09-01T19:59:04Z</time>
  <course>124.72</course>
  <speed>0.03</speed>
  <fix>3d</fix>
</trkpt>
<trkpt lat="-27.2766853" lon="151.2900649">
  <ele>442.89</ele>
  <time>2026-09-01T19:59:04Z</time>
  <course>170.51</course>
  <speed>0.01</speed>
  <fix>3d</fix>
</trkpt>
<trkpt lat="-27.2766855" lon="151.2900652">
  <ele>442.96</ele>
  <time>2026-09-01T19:59:04Z</time>
  <course>124.72</course>
  <speed>0.03</speed>
  <fix>3d</fix>
</trkpt>
<trkpt lat="-27.2766853" lon="151.290065">
  <ele>442.89</ele>
  <time>2026-09-01T19:59:04Z</time>
  <course>170.51</course>
  <speed>0.01</speed>
  <fix>3d</fix>
</trkpt>
<trkpt lat="-27.2766855" lon="151.2900653">
  <ele>442.96</ele>
  <time>2026-09-01T19:59:04Z</time>
  <course>127.51</course>
  <speed>0.02</speed>
  <fix>3d</fix>
</trkpt>
<trkpt lat="-27.2766853" lon="151.290065">
  <ele>442.89</ele>
  <time>2026-09-01T19:59:04Z</time>
  <course>170.51</course>
  <speed>0.02</speed>
  <fix>3d</fix>
</trkpt>
<trkpt lat="-27.2766855" lon="151.2900653">
  <ele>442.96</ele>
  <time>2026-09-01T19:59:04Z</time>
  <course>127.51</course>
  <speed>0.02</speed>
  <fix>3d</fix>
</trkpt>
<trkpt lat="-27.2766853" lon="151.290065">
  <ele>442.88</ele>
  <time>2026-09-01T19:59:04Z</time>
  <course>170.51</course>
  <speed>0.022360679774997897</speed>
  <fix>3d</fix>
</trkpt>
<trkpt lat="-27.2766855" lon="151.2900654">
  <ele>442.96</ele>
  <time>2026-09-01T19:59:04Z</time>
  <course>132.86</course>
  <speed>0.02</speed>
  <fix>3d</fix>
</trkpt>
<trkpt lat="-27.2766853" lon="151.290065">
  <ele>442.88</ele>
  <time>2026-09-01T19:59:04Z</time>
  <course>170.51</course>
  <speed>0.022360679774997897</speed>
  <fix>3d</fix>
</trkpt>
<trkpt lat="-27.2766855" lon="151.2900654">
  <ele>442.96</ele>
  <time>2026-09-01T19:59:04Z</time>
  <course>132.86</course>
  <speed>0.02</speed>
  <fix>3d</fix>
</trkpt>
<trkpt lat="-27.2766853" lon="151.290065">
  <ele>442.88</ele>
  <time>2026-09-01T19:59:04Z</time>
  <course>170.51</course>
  <speed>0.022360679774997897</speed>
  <fix>3d</fix>
</trkpt>
<trkpt lat="-27.2766855" lon="151.2900654">
  <ele>442.96</ele>
  <time>2026-09-01T19:59:04Z</time>
  <course>139.64</course>
  <speed>0.01</speed>
  <fix>3d</fix>
</trkpt>
<trkpt lat="-27.2766853" lon="151.290065">
  <ele>442.88</ele>
  <time>2026-09-01T19:59:04Z</time>
  <course>170.51</course>
  <speed>0.0316227766016838</speed>
  <fix>3d</fix>
</trkpt>
<trkpt lat="-27.2766855" lon="151.2900654">
  <ele>442.96</ele>
  <time>2026-09-01T19:59:04Z</time>
  <course>139.64</course>
  <speed>0.01</speed>
  <fix>3d</fix>
</trkpt>
<trkpt lat="-27.2766853" lon="151.290065">
  <ele>442.88</ele>
  <time>2026-09-01T19:59:04Z</time>
  <course>170.51</course>
  <speed>0.0316227766016838</speed>
  <fix>3d</fix>
</trkpt>
<trkpt lat="-27.2766856" lon="151.2900654">
  <ele>442.96</ele>
  <time>2026-09-01T19:59:04Z</time>
  <course>150.3</course>
  <speed>0.0</speed>
  <fix>3d</fix>
</trkpt>
<trkpt lat="-27.2766853" lon="151.290065">
  <ele>442.88</ele>
  <time>2026-09-01T19:59:04Z</time>
  <course>170.51</course>
  <speed>0.03605551275463989</speed>
  <fix>3d</fix>
</trkpt>
<trkpt lat="-27.2766856" lon="151.2900654">
  <ele>442.96</ele>
  <time>2026-09-01T19:59:04Z</time>
  <course>150.3</course>
  <speed>0.0</speed>
  <fix>3d</fix>
</trkpt>
<trkpt lat="-27.2766853" lon="151.290065">
  <ele>442.88</ele>
  <time>2026-09-01T19:59:04Z</time>
  <course>170.51</course>
  <speed>0.03605551275463989</speed>
  <fix>3d</fix>
</trkpt>
<trkpt lat="-27.2766856" lon="151.2900654">
  <ele>442.96</ele>
  <time>2026-09-01T19:59:04Z</time>
  <course>185.91</course>
  <speed>0.0</speed>
  <fix>3d</fix>
</trkpt>
<trkpt lat="-27.2766853" lon="151.290065">
  <ele>442.88</ele>
  <time>2026-09-01T19:59:04Z</time>
  <course>170.51</course>
  <speed>0.0316227766016838</speed>
  <fix>3d</fix>
</trkpt>
<trkpt lat="-27.2766856" lon="151.2900654">
  <ele>442.96</ele>
  <time>2026-09-01T19:59:04Z</time>
  <course>185.91</course>
  <speed>0.0</speed>
  <fix>3d</fix>
</trkpt>
<trkpt lat="-27.2766854" lon="151.2900651">
  <ele>442.88</ele>
  <time>2026-09-01T19:59:04Z</time>
  <course>170.53</course>
  <speed>0.04242640687119285</speed>
  <fix>3d</fix>
</trkpt>
<trkpt lat="-27.2766856" lon="151.2900654">
  <ele>442.96</ele>
  <time>2026-09-01T19:59:04Z</time>
  <course>226.95</course>
  <speed>0.0</speed>
  <fix>3d</fix>
</trkpt>
<trkpt lat="-27.2766854" lon="151.2900651">
  <ele>442.88</ele>
  <time>2026-09-01T19:59:04Z</time>
  <course>170.6</course>
  <speed>0.130384048104053</speed>
  <fix>3d</fix>
</trkpt>
<trkpt lat="-27.2766856" lon="151.2900654">
  <ele>442.96</ele>
  <time>2026-09-01T19:59:04Z</time>
  <course>226.95</course>
  <speed>0.0</speed>
  <fix>3d</fix>
</trkpt>
<trkpt lat="-27.2766857" lon="151.2900651">
  <ele>442.88</ele>
  <time>2026-09-01T19:59:04Z</time>
  <course>170.73</course>
  <speed>0.3</speed>
  <fix>3d</fix>
</trkpt>
<trkpt lat="-27.2766856" lon="151.2900654">
  <ele>442.96</ele>
  <time>2026-09-01T19:59:04Z</time>
  <course>176.42</course>
  <speed>0.08</speed>
  <fix>3d</fix>
</trkpt>
<trkpt lat="-27.2766861" lon="151.2900651">
  <ele>442.88</ele>
  <time>2026-09-01T19:59:04Z</time>
  <course>170.9</course>
  <speed>0.5303772242470448</speed>
  <fix>3d</fix>
</trkpt>
<trkpt lat="-27.2766856" lon="151.2900654">
  <ele>442.96</ele>
  <time>2026-09-01T19:59:04Z</time>
  <course>176.42</course>
  <speed>0.08</speed>
  <fix>3d</fix>
</trkpt>
<trkpt lat="-27.2766867" lon="151.2900652">
  <ele>442.88</ele>
  <time>2026-09-01T19:59:04Z</time>
  <course>171.12</course>
  <speed>0.8315046602394962</speed>
  <fix>3d</fix>
</trkpt>
<trkpt lat="-27.276686" lon="151.2900654">
  <ele>442.96</ele>
  <time>2026-09-01T19:59:04Z</time>
  <course>173.62</course>
  <speed>0.35</speed>
  <fix>3d</fix>
</trkpt>
<trkpt lat="-27.2766876" lon="151.2900653">
  <ele>442.88</ele>
  <time>2026-09-01T19:59:04Z</time>
  <course>171.39</course>
  <speed>1.1827087553578015</speed>
  <fix>3d</fix>
</trkpt>
<trkpt lat="-27.276686" lon="151.2900654">
  <ele>442.96</ele>
  <time>2026-09-01T19:59:04Z</time>
  <course>173.62</course>
  <speed>0.35</speed>
  <fix>3d</fix>
</trkpt>
<trkpt lat="-27.2766889" lon="151.2900654">
  <ele>442.88</ele>
  <time>2026-09-01T19:59:04Z</time>
  <course>171.74</course>
  <speed>1.6044936896105264</speed>
  <fix>3d</fix>
</trkpt>
<trkpt lat="-27.276687" lon="151.2900656">
  <ele>442.97</ele>
  <time>2026-09-01T19:59:04Z</time>
  <course>173.77</course>
  <speed>0.87</speed>
  <fix>3d</fix>
</trkpt>
<trkpt lat="-27.2766905" lon="151.2900656">
  <ele>442.88</ele>
  <time>2026-09-01T19:59:04Z</time>
  <course>172.04</course>
  <speed>2.076174366473105</speed>
  <fix>3d</fix>
</trkpt>
<trkpt lat="-27.276687" lon="151.2900656">
  <ele>442.97</ele>
  <time>2026-09-01T19:59:04Z</time>
  <course>173.77</course>
  <speed>0.87</speed>
  <fix>3d</fix>
</trkpt>
<trkpt lat="-27.2766926" lon="151.2900658">
  <ele>442.88</ele>
  <time>2026-09-01T19:59:04Z</time>
  <course>172.34</course>
  <speed>2.617651619295432</speed>
  <fix>3d</fix>
</trkpt>
<trkpt lat="-27.2766892" lon="151.2900658">
  <ele>442.97</ele>
  <time>2026-09-01T19:59:04Z</time>
  <course>174.15</course>
  <speed>1.64</speed>
  <fix>3d</fix>
</trkpt>
<trkpt lat="-27.2766953" lon="151.2900661">
  <ele>442.89</ele>
  <time>2026-09-01T19:59:04Z</time>
  <course>172.77</course>
  <speed>3.2082549773981492</speed>
  <fix>3d</fix>
</trkpt>
<trkpt lat="-27.2766892" lon="151.2900658">
  <ele>442.97</ele>
  <time>2026-09-01T19:59:04Z</time>
  <course>174.15</course>
  <speed>1.64</speed>
  <fix>3d</fix>
</trkpt>
<trkpt lat="-27.2766984" lon="151.2900664">
  <ele>442.89</ele>
  <time>2026-09-01T19:59:05Z</time>
  <course>173.32</course>
  <speed>3.8188610867639583</speed>
  <fix>3d</fix>
</trkpt>
<trkpt lat="-27.276693" lon="151.2900662">
  <ele>442.97</ele>
  <time>2026-09-01T19:59:05Z</time>
  <course>174.69</course>
  <speed>2.64</speed>
  <fix>3d</fix>
</trkpt>
<trkpt lat="-27.2767021" lon="151.2900667">
  <ele>442.89</ele>
  <time>2026-09-01T19:59:05Z</time>
  <course>173.98</course>
  <speed>4.427640455140864</speed>
  <fix>3d</fix>
</trkpt>
<trkpt lat="-27.276693" lon="151.2900662">
  <ele>442.97</ele>
  <time>2026-09-01T19:59:05Z</time>
  <course>174.69</course>
  <speed>2.64</speed>
  <fix>3d</fix>
</trkpt>
<trkpt lat="-27.2767063" lon="151.290067">
  <ele>442.9</ele>
  <time>2026-09-01T19:59:05Z</time>
  <course>174.73</course>
  <speed>5.036208891616789</speed>
  <fix>3d</fix>
</trkpt>
<trkpt lat="-27.2766988" lon="151.2900667">
  <ele>442.98</ele>
  <time>2026-09-01T19:59:05Z</time>
  <course>175.45</course>
  <speed>3.82</speed>
  <fix>3d</fix>
</trkpt>
<trkpt lat="-27.2767111" lon="151.2900672">
  <ele>442.91</ele>
  <time>2026-09-01T19:59:05Z</time>
  <course>175.55</course>
  <speed>5.644289149219767</speed>
  <fix>3d</fix>
</trkpt>
<trkpt lat="-27.2766988" lon="151.2900667">
  <ele>442.98</ele>
  <time>2026-09-01T19:59:05Z</time>
  <course>175.45</course>
  <speed>3.82</speed>
  <fix>3d</fix>
</trkpt>
<trkpt lat="-27.2767164" lon="151.2900675">
  <ele>442.91</ele>
  <time>2026-09-01T19:59:05Z</time>
  <course>176.47</course>
  <speed>6.251799740874622</speed>
  <fix>3d</fix>
</trkpt>
<trkpt lat="-27.2767068" lon="151.2900674">
  <ele>442.99</ele>
  <time>2026-09-01T19:59:05Z</time>
  <course>176.55</course>
  <speed>5.04</speed>
  <fix>3d</fix>
</trkpt>
<trkpt lat="-27.2767223" lon="151.2900676">
  <ele>442.92</ele>
  <time>2026-09-01T19:59:05Z</time>
  <course>177.46</course>
  <speed>6.860357133560905</speed>
  <fix>3d</fix>
</trkpt>
<trkpt lat="-27.2767068" lon="151.2900674">
  <ele>442.99</ele>
  <time>2026-09-01T19:59:05Z</time>
  <course>176.55</course>
  <speed>5.04</speed>
  <fix>3d</fix>
</trkpt>
<trkpt lat="-27.2767286" lon="151.2900677">
  <ele>442.93</ele>
  <time>2026-09-01T19:59:05Z</time>
  <course>178.44</course>
  <speed>7.470167334136498</speed>
  <fix>3d</fix>
</trkpt>
<trkpt lat="-27.2767169" lon="151.290068">
  <ele>443.0</ele>
  <time>2026-09-01T19:59:05Z</time>
  <course>178.06</course>
  <speed>6.26</speed>
  <fix>3d</fix>
</trkpt>
<trkpt lat="-27.2767356" lon="151.2900676">
  <ele>442.94</ele>
  <time>2026-09-01T19:59:05Z</time>
  <course>179.47</course>
  <speed>8.07247793431484</speed>
  <fix>3d</fix>
</trkpt>
<trkpt lat="-27.2767169" lon="151.290068">
  <ele>443.0</ele>
  <time>2026-09-01T19:59:05Z</time>
  <course>178.06</course>
  <speed>6.26</speed>
  <fix>3d</fix>
</trkpt>
<trkpt lat="-27.276743" lon="151.2900674">
  <ele>442.94</ele>
  <time>2026-09-01T19:59:05Z</time>
  <course>180.76</course>
  <speed>8.678767193559231</speed>
  <fix>3d</fix>
</trkpt>
<trkpt lat="-27.2767293" lon="151.2900681">
  <ele>443.02</ele>
  <time>2026-09-01T19:59:05Z</time>
  <course>179.95</course>
  <speed>7.49</speed>
  <fix>3d</fix>
</trkpt>
<trkpt lat="-27.2767511" lon="151.2900669">
  <ele>442.95</ele>
  <time>2026-09-01T19:59:05Z</time>
  <course>182.13</course>
  <speed>9.280732729693277</speed>
  <fix>3d</fix>
</trkpt>
<trkpt lat="-27.2767293" lon="151.2900681">
  <ele>443.02</ele>
  <time>2026-09-01T19:59:05Z</time>
  <course>179.95</course>
  <speed>7.49</speed>
  <fix>3d</fix>
</trkpt>
<trkpt lat="-27.2767596" lon="151.2900663">
  <ele>442.95</ele>
  <time>2026-09-01T19:59:05Z</time>
  <course>183.43</course>
  <speed>9.86024847557099</speed>
  <fix>3d</fix>
</trkpt>
<trkpt lat="-27.2767439" lon="151.2900679">
  <ele>443.03</ele>
  <time>2026-09-01T19:59:05Z</time>
  <course>182.2</course>
  <speed>8.7</speed>
  <fix>3d</fix>
</trkpt>
<trkpt lat="-27.2767686" lon="151.2900653">
  <ele>442.96</ele>
  <time>2026-09-01T19:59:05Z</time>
  <course>184.98</course>
  <speed>10.43805537444595</speed>
  <fix>3d</fix>
</trkpt>
<trkpt lat="-27.2767439" lon="151.2900679">
  <ele>443.03</ele>
  <time>2026-09-01T19:59:05Z</time>
  <course>182.2</course>
  <speed>8.7</speed>
  <fix>3d</fix>
</trkpt>
<trkpt lat="-27.2767781" lon="151.290064">
  <ele>442.97</ele>
  <time>2026-09-01T19:59:05Z</time>
  <course>186.69</course>
  <speed>10.998349876231435</speed>
  <fix>3d</fix>
</trkpt>
<trkpt lat="-27.2767605" lon="151.2900668">
  <ele>443.04</ele>
  <time>2026-09-01T19:59:05Z</time>
  <course>184.78</course>
  <speed>9.89</speed>
  <fix>3d</fix>
</trkpt>
<trkpt lat="-27.2767881" lon="151.2900624">
  <ele>442.98</ele>
  <time>2026-09-01T19:59:05Z</time>
  <course>188.28</course>
  <speed>11.550692619925439</speed>
  <fix>3d</fix>
</trkpt>
<trkpt lat="-27.2767605" lon="151.2900668">
  <ele>443.04</ele>
  <time>2026-09-01T19:59:05Z</time>
  <course>184.78</course>
  <speed>9.89</speed>
  <fix>3d</fix>
</trkpt>
<trkpt lat="-27.2767986" lon="151.2900603">
  <ele>443.0</ele>
  <time>2026-09-01T19:59:05Z</time>
  <course>189.89</course>
  <speed>12.076895296391369</speed>
  <fix>3d</fix>
</trkpt>
<trkpt lat="-27.2767792" lon="151.2900646">
  <ele>443.06</ele>
  <time>2026-09-01T19:59:05Z</time>
  <course>187.67</course>
  <speed>11.03</speed>
  <fix>3d</fix>
</trkpt>
<trkpt lat="-27.2768094" lon="151.2900578">
  <ele>443.03</ele>
  <time>2026-09-01T19:59:05Z</time>
  <course>191.4</course>
  <speed>12.596098602345094</speed>
  <fix>3d</fix>
</trkpt>
<trkpt lat="-27.2767792" lon="151.2900646">
  <ele>443.06</ele>
  <time>2026-09-01T19:59:05Z</time>
  <course>187.67</course>
  <speed>11.03</speed>
  <fix>3d</fix>
</trkpt>
<trkpt lat="-27.2768205" lon="151.290055">
  <ele>443.06</ele>
  <time>2026-09-01T19:59:05Z</time>
  <course>192.77</course>
  <speed>13.08969823945533</speed>
  <fix>3d</fix>
</trkpt>
<trkpt lat="-27.2767998" lon="151.2900608">
  <ele>443.09</ele>
  <time>2026-09-01T19:59:05Z</time>
  <course>190.75</course>
  <speed>12.12</speed>
  <fix>3d</fix>
</trkpt>
<trkpt lat="-27.276832" lon="151.2900516">
  <ele>443.1</ele>
  <time>2026-09-01T19:59:05Z</time>
  <course>194.18</course>
  <speed>13.587818073553974</speed>
  <fix>3d</fix>
</trkpt>
<trkpt lat="-27.2767998" lon="151.2900608">
  <ele>443.09</ele>
  <time>2026-09-01T19:59:05Z</time>
  <course>190.75</course>
  <speed>12.12</speed>
  <fix>3d</fix>
</trkpt>
<trkpt lat="-27.2768438" lon="151.2900478">
  <ele>443.14</ele>
  <time>2026-09-01T19:59:05Z</time>
  <course>195.53</course>
  <speed>14.05657853106509</speed>
  <fix>3d</fix>
</trkpt>
<trkpt lat="-27.276822" lon="151.2900553">
  <ele>443.15</ele>
  <time>2026-09-01T19:59:05Z</time>
  <course>193.88</course>
  <speed>13.15</speed>
  <fix>3d</fix>
</trkpt>
<trkpt lat="-27.2768559" lon="151.2900435">
  <ele>443.18</ele>
  <time>2026-09-01T19:59:05Z</time>
  <course>196.88</course>
  <speed>14.505409335830548</speed>
  <fix>3d</fix>
</trkpt>
<trkpt lat="-27.276822" lon="151.2900553">
  <ele>443.15</ele>
  <time>2026-09-01T19:59:05Z</time>
  <course>193.88</course>
  <speed>13.15</speed>
  <fix>3d</fix>
</trkpt>
<trkpt lat="-27.2768684" lon="151.2900387">
  <ele>443.23</ele>
  <time>2026-09-01T19:59:05Z</time>
  <course>198.23</course>
  <speed>14.956389938751931</speed>
  <fix>3d</fix>
</trkpt>
<trkpt lat="-27.2768456" lon="151.290048">
  <ele>443.22</ele>
  <time>2026-09-01T19:59:05Z</time>
  <course>196.89</course>
  <speed>14.11</speed>
  <fix>3d</fix>
</trkpt>
<trkpt lat="-27.2768811" lon="151.2900335">
  <ele>443.27</ele>
  <time>2026-09-01T19:59:05Z</time>
  <course>199.6</course>
  <speed>15.396717182568498</speed>
  <fix>3d</fix>
</trkpt>
<trkpt lat="-27.2768456" lon="151.290048">
  <ele>443.22</ele>
  <time>2026-09-01T19:59:05Z</time>
  <course>196.89</course>
  <speed>14.11</speed>
  <fix>3d</fix>
</trkpt>
<trkpt lat="-27.2768941" lon="151.2900278">
  <ele>443.32</ele>
  <time>2026-09-01T19:59:05Z</time>
  <course>200.94</course>
  <speed>15.816943446823093</speed>
  <fix>3d</fix>
</trkpt>
<trkpt lat="-27.2768704" lon="151.2900387">
  <ele>443.3</ele>
  <time>2026-09-01T19:59:05Z</time>
  <course>199.69</course>
  <speed>15.03</speed>
  <fix>3d</fix>
</trkpt>
<trkpt lat="-27.2769073" lon="151.2900216">
  <ele>443.36</ele>
  <time>2026-09-01T19:59:05Z</time>
  <course>202.16</course>
  <speed>16.22231179579532</speed>
  <fix>3d</fix>
</trkpt>
<trkpt lat="-27.2768704" lon="151.2900387">
  <ele>443.3</ele>
  <time>2026-09-01T19:59:05Z</time>
  <course>199.69</course>
  <speed>15.03</speed>
  <fix>3d</fix>
</trkpt>
<trkpt lat="-27.2769206" lon="151.2900149">
  <ele>443.41</ele>
  <time>2026-09-01T19:59:05Z</time>
  <course>203.3</course>
  <speed>16.575916264267264</speed>
  <fix>3d</fix>
</trkpt>
<trkpt lat="-27.2768964" lon="151.2900275">
  <ele>443.39</ele>
  <time>2026-09-01T19:59:05Z</time>
  <course>202.32</course>
  <speed>15.9</speed>
  <fix>3d</fix>
</trkpt>
<trkpt lat="-27.2769341" lon="151.2900077">
  <ele>443.45</ele>
  <time>2026-09-01T19:59:05Z</time>
  <course>204.47</course>
  <speed>16.882846324005914</speed>
  <fix>3d</fix>
</trkpt>
<trkpt lat="-27.2768964" lon="151.2900275">
  <ele>443.39</ele>
  <time>2026-09-01T19:59:05Z</time>
  <course>202.32</course>
  <speed>15.9</speed>
  <fix>3d</fix>
</trkpt>
<trkpt lat="-27.2769478" lon="151.2900001">
  <ele>443.49</ele>
  <time>2026-09-01T19:59:05Z</time>
  <course>205.71</course>
  <speed>17.156689657390203</speed>
  <fix>3d</fix>
</trkpt>
<trkpt lat="-27.2769233" lon="151.2900143">
  <ele>443.47</ele>
  <time>2026-09-01T19:59:05Z</time>
  <course>204.79</course>
  <speed>16.66</speed>
  <fix>3d</fix>
</trkpt>
<trkpt lat="-27.2769616" lon="151.289992">
  <ele>443.52</ele>
  <time>2026-09-01T19:59:05Z</time>
  <course>207.0</course>
  <speed>17.389516957063528</speed>
  <fix>3d</fix>
</trkpt>
<trkpt lat="-27.2769233" lon="151.2900143">
  <ele>443.47</ele>
  <time>2026-09-01T19:59:05Z</time>
  <course>204.79</course>
  <speed>16.66</speed>
  <fix>3d</fix>
</trkpt>
<trkpt lat="-27.2769754" lon="151.2899834">
  <ele>443.56</ele>
  <time>2026-09-01T19:59:05Z</time>
  <course>208.22</course>
  <speed>17.590625344199676</speed>
  <fix>3d</fix>
</trkpt>
<trkpt lat="-27.2769507" lon="151.2899992">
  <ele>443.56</ele>
  <time>2026-09-01T19:59:05Z</time>
  <course>207.23</course>
  <speed>17.25</speed>
  <fix>3d</fix>
</trkpt>
<trkpt lat="-27.2769892" lon="151.2899744">
  <ele>443.61</ele>
  <time>2026-09-01T19:59:05Z</time>
  <course>209.47</course>
  <speed>17.77932788380933</speed>
  <fix>3d</fix>
</trkpt>
<trkpt lat="-27.2769507" lon="151.2899992">
  <ele>443.56</ele>
  <time>2026-09-01T19:59:05Z</time>
  <course>207.23</course>
  <speed>17.25</speed>
  <fix>3d</fix>
</trkpt>
<trkpt lat="-27.277003" lon="151.2899649">
  <ele>443.65</ele>
  <time>2026-09-01T19:59:05Z</time>
  <course>210.8</course>
  <speed>17.96002505566181</speed>
  <fix>3d</fix>
</trkpt>
<trkpt lat="-27.2769782" lon="151.2899823">
  <ele>443.64</ele>
  <time>2026-09-01T19:59:05Z</time>
  <course>209.75</course>
  <speed>17.7</speed>
  <fix>3d</fix>
</trkpt>
<trkpt lat="-27.2770167" lon="151.289955">
  <ele>443.7</ele>
  <time>2026-09-01T19:59:05Z</time>
  <course>212.3</course>
  <speed>18.135958756018386</speed>
  <fix>3d</fix>
</trkpt>
<trkpt lat="-27.2769782" lon="151.2899823">
  <ele>443.64</ele>
  <time>2026-09-01T19:59:05Z</time>
  <course>209.75</course>
  <speed>17.7</speed>
  <fix>3d</fix>
</trkpt>
<trkpt lat="-27.2770303" lon="151.2899445">
  <ele>443.75</ele>
  <time>2026-09-01T19:59:05Z</time>
  <course>213.96</course>
  <speed>18.311613801082636</speed>
  <fix>3d</fix>
</trkpt>
<trkpt lat="-27.2770058" lon="151.2899637">
  <ele>443.72</ele>
  <time>2026-09-01T19:59:05Z</time>
  <course>212.36</course>
  <speed>18.07</speed>
  <fix>3d</fix>
</trkpt>
<trkpt lat="-27.2770439" lon="151.2899335">
  <ele>443.8</ele>
  <time>2026-09-01T19:59:05Z</time>
  <course>215.64</course>
  <speed>18.48201558272257</speed>
  <fix>3d</fix>
</trkpt>
<trkpt lat="-27.2770058" lon="151.2899637">
  <ele>443.72</ele>
  <time>2026-09-01T19:59:05Z</time>
  <course>212.36</course>
  <speed>18.07</speed>
  <fix>3d</fix>
</trkpt>
<trkpt lat="-27.2770571" lon="151.2899222">
  <ele>443.85</ele>
  <time>2026-09-01T19:59:05Z</time>
  <course>217.39</course>
  <speed>18.64103269671506</speed>
  <fix>3d</fix>
</trkpt>
<trkpt lat="-27.2770331" lon="151.2899432">
  <ele>443.83</ele>
  <time>2026-09-01T19:59:05Z</time>
  <course>215.18</course>
  <speed>18.4</speed>
  <fix>3d</fix>
</trkpt>
<trkpt lat="-27.2770701" lon="151.2899104">
  <ele>443.9</ele>
  <time>2026-09-01T19:59:05Z</time>
  <course>219.21</course>
  <speed>18.797513133390808</speed>
  <fix>3d</fix>
</trkpt>
<trkpt lat="-27.2770331" lon="151.2899432">
  <ele>443.83</ele>
  <time>2026-09-01T19:59:05Z</time>
  <course>215.18</course>
  <speed>18.4</speed>
  <fix>3d</fix>
</trkpt>
<trkpt lat="-27.2770829" lon="151.289898">
  <ele>443.95</ele>
  <time>2026-09-01T19:59:05Z</time>
  <course>221.13</course>
  <speed>18.946598639333658</speed>
  <fix>3d</fix>
</trkpt>
<trkpt lat="-27.2770597" lon="151.2899207">
  <ele>443.93</ele>
  <time>2026-09-01T19:59:05Z</time>
  <course>218.38</course>
  <speed>18.73</speed>
  <fix>3d</fix>
</trkpt>
<trkpt lat="-27.2770952" lon="151.2898852">
  <ele>444.01</ele>
  <time>2026-09-01T19:59:05Z</time>
  <course>223.07</course>
  <speed>19.101374296107597</speed>
  <fix>3d</fix>
</trkpt>
<trkpt lat="-27.2770597" lon="151.2899207">
  <ele>443.93</ele>
  <time>2026-09-01T19:59:05Z</time>
  <course>218.38</course>
  <speed>18.73</speed>
  <fix>3d</fix>
</trkpt>
<trkpt lat="-27.2771073" lon="151.2898716">
  <ele>444.06</ele>
  <time>2026-09-01T19:59:05Z</time>
  <course>225.11</course>
  <speed>19.251815498804262</speed>
  <fix>3d</fix>
</trkpt>
<trkpt lat="-27.2770857" lon="151.2898961">
  <ele>444.03</ele>
  <time>2026-09-01T19:59:05Z</time>
  <course>222.04</course>
  <speed>19.04</speed>
  <fix>3d</fix>
</trkpt>
<trkpt lat="-27.277119" lon="151.2898575">
  <ele>444.11</ele>
  <time>2026-09-01T19:59:05Z</time>
  <course>227.24</course>
  <speed>19.402765266837612</speed>
  <fix>3d</fix>
</trkpt>
<trkpt lat="-27.2770857" lon="151.2898961">
  <ele>444.03</ele>
  <time>2026-09-01T19:59:05Z</time>
  <course>222.04</course>
  <speed>19.04</speed>
  <fix>3d</fix>
</trkpt>
<trkpt lat="-27.2771304" lon="151.2898427">
  <ele>444.16</ele>
  <time>2026-09-01T19:59:05Z</time>
  <course>229.43</course>
  <speed>19.557198163336178</speed>
  <fix>3d</fix>
</trkpt>
<trkpt lat="-27.2771104" lon="151.2898692">
  <ele>444.14</ele>
  <time>2026-09-01T19:59:05Z</time>
  <course>226.18</course>
  <speed>19.35</speed>
  <fix>3d</fix>
</trkpt>
<trkpt lat="-27.2771413" lon="151.2898272">
  <ele>444.21</ele>
  <time>2026-09-01T19:59:05Z</time>
  <course>231.77</course>
  <speed>19.708000913334665</speed>
  <fix>3d</fix>
</trkpt>
<trkpt lat="-27.2771104" lon="151.2898692">
  <ele>444.14</ele>
  <time>2026-09-01T19:59:05Z</time>
  <course>226.18</course>
  <speed>19.35</speed>
  <fix>3d</fix>
</trkpt>
<trkpt lat="-27.2771517" lon="151.2898111">
  <ele>444.26</ele>
  <time>2026-09-01T19:59:05Z</time>
  <course>234.12</course>
  <speed>19.85994209457822</speed>
  <fix>3d</fix>
</trkpt>
<trkpt lat="-27.2771337" lon="151.2898396">
  <ele>444.24</ele>
  <time>2026-09-01T19:59:05Z</time>
  <course>230.69</course>
  <speed>19.66</speed>
  <fix>3d</fix>
</trkpt>
<trkpt lat="-27.2771615" lon="151.2897945">
  <ele>444.31</ele>
  <time>2026-09-01T19:59:05Z</time>
  <course>236.56</course>
  <speed>20.006418969920627</speed>
  <fix>3d</fix>
</trkpt>
<trkpt lat="-27.2771337" lon="151.2898396">
  <ele>444.24</ele>
  <time>2026-09-01T19:59:05Z</time>
  <course>230.69</course>
  <speed>19.66</speed>
  <fix>3d</fix>
</trkpt>
<trkpt lat="-27.2771709" lon="151.2897771">
  <ele>444.35</ele>
  <time>2026-09-01T19:59:05Z</time>
  <course>239.05</course>
  <speed>20.175886597619446</speed>
  <fix>3d</fix>
</trkpt>
<trkpt lat="-27.2771551" lon="151.2898076">
  <ele>444.33</ele>
  <time>2026-09-01T19:59:05Z</time>
  <course>235.5</course>
  <speed>19.97</speed>
  <fix>3d</fix>
</trkpt>
<trkpt lat="-27.2771796" lon="151.2897591">
  <ele>444.39</ele>
  <time>2026-09-01T19:59:05Z</time>
  <course>241.6</course>
  <speed>20.33497971476736</speed>
  <fix>3d</fix>
</trkpt>
<trkpt lat="-27.2771551" lon="151.2898076">
  <ele>444.33</ele>
  <time>2026-09-01T19:59:05Z</time>
  <course>235.5</course>
  <speed>19.97</speed>
  <fix>3d</fix>
</trkpt>
<trkpt lat="-27.2771876" lon="151.2897404">
  <ele>444.42</ele>
  <time>2026-09-01T19:59:05Z</time>
  <course>244.19</course>
  <speed>20.5</speed>
  <fix>3d</fix>
</trkpt>
<trkpt lat="-27.2771743" lon="151.2897731">
  <ele>444.41</ele>
  <time>2026-09-01T19:59:05Z</time>
  <course>240.55</course>
  <speed>20.27</speed>
  <fix>3d</fix>
</trkpt>
<trkpt lat="-27.277195" lon="151.2897213">
  <ele>444.45</ele>
  <time>2026-09-01T19:59:05Z</time>
  <course>246.78</course>
  <speed>20.664377561397778</speed>
  <fix>3d</fix>
</trkpt>
<trkpt lat="-27.2771743" lon="151.2897731">
  <ele>444.41</ele>
  <time>2026-09-01T19:59:05Z</time>
  <course>240.55</course>
  <speed>20.27</speed>
  <fix>3d</fix>
</trkpt>
<trkpt lat="-27.2772016" lon="151.2897015">
  <ele>444.48</ele>
  <time>2026-09-01T19:59:05Z</time>
  <course>249.43</course>
  <speed>20.840009596926777</speed>
  <fix>3d</fix>
</trkpt>
<trkpt lat="-27.2771909" lon="151.2897362">
  <ele>444.49</ele>
  <time>2026-09-01T19:59:05Z</time>
  <course>245.77</course>
  <speed>20.58</speed>
  <fix>3d</fix>
</trkpt>
<trkpt lat="-27.2772074" lon="151.2896813">
  <ele>444.5</ele>
  <time>2026-09-01T19:59:05Z</time>
  <course>252.07</course>
  <speed>21.01082816073655</speed>
  <fix>3d</fix>
</trkpt>
<trkpt lat="-27.2771909" lon="151.2897362">
  <ele>444.49</ele>
  <time>2026-09-01T19:59:05Z</time>
  <course>245.77</course>
  <speed>20.58</speed>
  <fix>3d</fix>
</trkpt>
<trkpt lat="-27.2772125" lon="151.2896607">
  <ele>444.52</ele>
  <time>2026-09-01T19:59:05Z</time>
  <course>254.77</course>
  <speed>21.169659893347365</speed>
  <fix>3d</fix>
</trkpt>
<trkpt lat="-27.2772045" lon="151.2896971">
  <ele>444.55</ele>
  <time>2026-09-01T19:59:05Z</time>
  <course>251.11</course>
  <speed>20.9</speed>
  <fix>3d</fix>
</trkpt>
<trkpt lat="-27.2772167" lon="151.2896396">
  <ele>444.53</ele>
  <time>2026-09-01T19:59:05Z</time>
  <course>257.49</course>
  <speed>21.34063026248288</speed>
  <fix>3d</fix>
</trkpt>
<trkpt lat="-27.2772045" lon="151.2896971">
  <ele>444.55</ele>
  <time>2026-09-01T19:59:05Z</time>
  <course>251.11</course>
  <speed>20.9</speed>
  <fix>3d</fix>
</trkpt>
<trkpt lat="-27.27722" lon="151.2896182">
  <ele>444.54</ele>
  <time>2026-09-01T19:59:05Z</time>
  <course>260.21</course>
  <speed>21.50744987207921</speed>
  <fix>3d</fix>
</trkpt>
<trkpt lat="-27.277215" lon="151.2896563">
  <ele>444.59</ele>
  <time>2026-09-01T19:59:05Z</time>
  <course>256.55</course>
  <speed>21.21</speed>
  <fix>3d</fix>
</trkpt>
<trkpt lat="-27.2772224" lon="151.2895965">
  <ele>444.55</ele>
  <time>2026-09-01T19:59:05Z</time>
  <course>262.94</course>
  <speed>21.669732347216474</speed>
  <fix>3d</fix>
</trkpt>
<trkpt lat="-27.277215" lon="151.2896563">
  <ele>444.59</ele>
  <time>2026-09-01T19:59:05Z</time>
  <course>256.55</course>
  <speed>21.21</speed>
  <fix>3d</fix>
</trkpt>
<trkpt lat="-27.2772238" lon="151.2895746">
  <ele>444.55</ele>
  <time>2026-09-01T19:59:05Z</time>
  <course>265.67</course>
  <speed>21.830247364608585</speed>
  <fix>3d</fix>
</trkpt>
<trkpt lat="-27.2772221" lon="151.2896139">
  <ele>444.62</ele>
  <time>2026-09-01T19:59:05Z</time>
  <course>262.06</course>
  <speed>21.52</speed>
  <fix>3d</fix>
</trkpt>
<trkpt lat="-27.2772244" lon="151.2895526">
  <ele>444.55</ele>
  <time>2026-09-01T19:59:05Z</time>
  <course>268.46</course>
  <speed>21.980275248504054</speed>
  <fix>3d</fix>
</trkpt>
<trkpt lat="-27.2772221" lon="151.2896139">
  <ele>444.62</ele>
  <time>2026-09-01T19:59:05Z</time>
  <course>262.06</course>
  <speed>21.52</speed>
  <fix>3d</fix>
</trkpt>
<trkpt lat="-27.277224" lon="151.2895304">
  <ele>444.54</ele>
  <time>2026-09-01T19:59:05Z</time>
  <course>271.22</course>
  <speed>22.131479842071112</speed>
  <fix>3d</fix>
</trkpt>
<trkpt lat="-27.2772256" lon="151.2895703">
  <ele>444.62</ele>
  <time>2026-09-01T19:59:05Z</time>
  <course>267.61</course>
  <speed>21.83</speed>
  <fix>3d</fix>
</trkpt>
<trkpt lat="-27.2772226" lon="151.2895082">
  <ele>444.53</ele>
  <time>2026-09-01T19:59:05Z</time>
  <course>274.02</course>
  <speed>22.266014461506128</speed>
  <fix>3d</fix>
</trkpt>
<trkpt lat="-27.2772256" lon="151.2895703">
  <ele>444.62</ele>
  <time>2026-09-01T19:59:05Z</time>
  <course>267.61</course>
  <speed>21.83</speed>
  <fix>3d</fix>
</trkpt>
<trkpt lat="-27.2772203" lon="151.289486">
  <ele>444.52</ele>
  <time>2026-09-01T19:59:05Z</time>
  <course>276.81</course>
  <speed>22.41478306832346</speed>
  <fix>3d</fix>
</trkpt>
<trkpt lat="-27.2772254" lon="151.2895259">
  <ele>444.61</ele>
  <time>2026-09-01T19:59:05Z</time>
  <course>273.2</course>
  <speed>22.13</speed>
  <fix>3d</fix>
</trkpt>
<trkpt lat="-27.2772169" lon="151.2894637">
  <ele>444.5</ele>
  <time>2026-09-01T19:59:05Z</time>
  <course>279.64</course>
  <speed>22.54950997250273</speed>
  <fix>3d</fix>
</trkpt>
<trkpt lat="-27.2772254" lon="151.2895259">
  <ele>444.61</ele>
  <time>2026-09-01T19:59:05Z</time>
  <course>273.2</course>
  <speed>22.13</speed>
  <fix>3d</fix>
</trkpt>
<trkpt lat="-27.2772126" lon="151.2894416">
  <ele>444.47</ele>
  <time>2026-09-01T19:59:05Z</time>
  <course>282.52</course>
  <speed>22.68938518338476</speed>
  <fix>3d</fix>
</trkpt>
<trkpt lat="-27.2772212" lon="151.2894812">
  <ele>444.58</ele>
  <time>2026-09-01T19:59:05Z</time>
  <course>278.83</course>
  <speed>22.42</speed>
  <fix>3d</fix>
</trkpt>
<trkpt lat="-27.2772074" lon="151.2894196">
  <ele>444.44</ele>
  <time>2026-09-01T19:59:05Z</time>
  <course>285.41</course>
  <speed>22.831355632112604</speed>
  <fix>3d</fix>
</trkpt>
<trkpt lat="-27.2772212" lon="151.2894812">
  <ele>444.58</ele>
  <time>2026-09-01T19:59:05Z</time>
  <course>278.83</course>
  <speed>22.42</speed>
  <fix>3d</fix>
</trkpt>
<trkpt lat="-27.277201" lon="151.2893976">
  <ele>444.41</ele>
  <time>2026-09-01T19:59:05Z</time>
  <course>288.32</course>
  <speed>22.966845669355642</speed>
  <fix>3d</fix>
</trkpt>
<trkpt lat="-27.277213" lon="151.2894365">
  <ele>444.53</ele>
  <time>2026-09-01T19:59:05Z</time>
  <course>284.51</course>
  <speed>22.71</speed>
  <fix>3d</fix>
</trkpt>
<trkpt lat="-27.2771936" lon="151.289376">
  <ele>444.37</ele>
  <time>2026-09-01T19:59:05Z</time>
  <course>291.21</course>
  <speed>23.091838385022534</speed>
  <fix>3d</fix>
</trkpt>
<trkpt lat="-27.277213" lon="151.2894365">
  <ele>444.53</ele>
  <time>2026-09-01T19:59:05Z</time>
  <course>284.51</course>
  <speed>22.71</speed>
  <fix>3d</fix>
</trkpt>
<trkpt lat="-27.2771851" lon="151.2893546">
  <ele>444.33</ele>
  <time>2026-09-01T19:59:05Z</time>
  <course>294.06</course>
  <speed>23.234855282527583</speed>
  <fix>3d</fix>
</trkpt>
<trkpt lat="-27.2772007" lon="151.2893924">
  <ele>444.46</ele>
  <time>2026-09-01T19:59:05Z</time>
  <course>290.26</course>
  <speed>22.99</speed>
  <fix>3d</fix>
</trkpt>
<trkpt lat="-27.2771757" lon="151.2893336">
  <ele>444.28</ele>
  <time>2026-09-01T19:59:05Z</time>
  <course>296.93</course>
  <speed>23.374406944348344</speed>
  <fix>3d</fix>
</trkpt>
<trkpt lat="-27.2772007" lon="151.2893924">
  <ele>444.46</ele>
  <time>2026-09-01T19:59:05Z</time>
  <course>290.26</course>
  <speed>22.99</speed>
  <fix>3d</fix>
</trkpt>
<trkpt lat="-27.2771653" lon="151.2893131">
  <ele>444.23</ele>
  <time>2026-09-01T19:59:05Z</time>
  <course>299.81</course>
  <speed>23.493322455540422</speed>
  <fix>3d</fix>
</trkpt>
<trkpt lat="-27.2771844" lon="151.2893494">
  <ele>444.37</ele>
  <time>2026-09-01T19:59:05Z</time>
  <course>296.08</course>
  <speed>23.27</speed>
  <fix>3d</fix>
</trkpt>
<trkpt lat="-27.2771538" lon="151.2892931">
  <ele>444.17</ele>
  <time>2026-09-01T19:59:05Z</time>
  <course>302.73</course>
  <speed>23.621678602504097</speed>
  <fix>3d</fix>
</trkpt>
<trkpt lat="-27.2771844" lon="151.2893494">
  <ele>444.37</ele>
  <time>2026-09-01T19:59:05Z</time>
  <course>296.08</course>
  <speed>23.27</speed>
  <fix>3d</fix>
</trkpt>
<trkpt lat="-27.2771415" lon="151.2892737">
  <ele>444.12</ele>
  <time>2026-09-01T19:59:05Z</time>
  <course>305.61</course>
  <speed>23.747094559124488</speed>
  <fix>3d</fix>
</trkpt>
<trkpt lat="-27.277164" lon="151.289308">
  <ele>444.26</ele>
  <time>2026-09-01T19:59:05Z</time>
  <course>301.93</course>
  <speed>23.53</speed>
  <fix>3d</fix>
</trkpt>
<trkpt lat="-27.2771282" lon="151.289255">
  <ele>444.06</ele>
  <time>2026-09-01T19:59:05Z</time>
  <course>308.54</course>
  <speed>23.866998135500825</speed>
  <fix>3d</fix>
</trkpt>
<trkpt lat="-27.277164" lon="151.289308">
  <ele>444.26</ele>
  <time>2026-09-01T19:59:05Z</time>
  <course>301.93</course>
  <speed>23.53</speed>
  <fix>3d</fix>
</trkpt>
<trkpt lat="-27.2771141" lon="151.2892369">
  <ele>444.0</ele>
  <time>2026-09-01T19:59:05Z</time>
  <course>311.44</course>
  <speed>23.97578987228575</speed>
  <fix>3d</fix>
</trkpt>
<trkpt lat="-27.2771397" lon="151.2892688">
  <ele>444.15</ele>
  <time>2026-09-01T19:59:05Z</time>
  <course>307.76</course>
  <speed>23.79</speed>
  <fix>3d</fix>
</trkpt>
<trkpt lat="-27.2770991" lon="151.2892196">
  <ele>443.94</ele>
  <time>2026-09-01T19:59:05Z</time>
  <course>314.34</course>
  <speed>24.088578206278594</speed>
  <fix>3d</fix>
</trkpt>
<trkpt lat="-27.2771397" lon="151.2892688">
  <ele>444.15</ele>
  <time>2026-09-01T19:59:05Z</time>
  <course>307.76</course>
  <speed>23.79</speed>
  <fix>3d</fix>
</trkpt>
<trkpt lat="-27.2770831" lon="151.289203">
  <ele>443.87</ele>
  <time>2026-09-01T19:59:05Z</time>
  <course>317.12</course>
  <speed>24.20577823578494</speed>
  <fix>3d</fix>
</trkpt>
<trkpt lat="-27.2771117" lon="151.2892321">
  <ele>444.03</ele>
  <time>2026-09-01T19:59:05Z</time>
  <course>313.58</course>
  <speed>24.03</speed>
  <fix>3d</fix>
</trkpt>
<trkpt lat="-27.2770663" lon="151.2891872">
  <ele>443.81</ele>
  <time>2026-09-01T19:59:05Z</time>
  <course>319.85</course>
  <speed>24.312404241456665</speed>
  <fix>3d</fix>
</trkpt>
<trkpt lat="-27.2771117" lon="151.2892321">
  <ele>444.03</ele>
  <time>2026-09-01T19:59:05Z</time>
  <course>313.58</course>
  <speed>24.03</speed>
  <fix>3d</fix>
</trkpt>
<trkpt lat="-27.2770488" lon="151.2891723">
  <ele>443.74</ele>
  <time>2026-09-01T19:59:05Z</time>
  <course>322.6</course>
  <speed>24.43417483771449</speed>
  <fix>3d</fix>
</trkpt>
<trkpt lat="-27.2770802" lon="151.2891985">
  <ele>443.9</ele>
  <time>2026-09-01T19:59:05Z</time>
  <course>319.35</course>
  <speed>24.25</speed>
  <fix>3d</fix>
</trkpt>
<trkpt lat="-27.2770305" lon="151.2891583">
  <ele>443.67</ele>
  <time>2026-09-01T19:59:05Z</time>
  <course>325.34</course>
  <speed>24.533008376471074</speed>
  <fix>3d</fix>
</trkpt>
<trkpt lat="-27.2770802" lon="151.2891985">
  <ele>443.9</ele>
  <time>2026-09-01T19:59:05Z</time>
  <course>319.35</course>
  <speed>24.25</speed>
  <fix>3d</fix>
</trkpt>
<trkpt lat="-27.2770115" lon="151.2891452">
  <ele>443.6</ele>
  <time>2026-09-01T19:59:05Z</time>
  <course>328.0</course>
  <speed>24.63466257126328</speed>
  <fix>3d</fix>
</trkpt>
<trkpt lat="-27.2770457" lon="151.2891684">
  <ele>443.76</ele>
  <time>2026-09-01T19:59:05Z</time>
  <course>325.0</course>
  <speed>24.47</speed>
  <fix>3d</fix>
</trkpt>
<trkpt lat="-27.276992" lon="151.2891331">
  <ele>443.53</ele>
  <time>2026-09-01T19:59:05Z</time>
  <course>330.55</course>
  <speed>24.728309687481673</speed>
  <fix>3d</fix>
</trkpt>
<trkpt lat="-27.2770457" lon="151.2891684">
  <ele>443.76</ele>
  <time>2026-09-01T19:59:05Z</time>
  <course>325.0</course>
  <speed>24.47</speed>
  <fix>3d</fix>
</trkpt>
<trkpt lat="-27.2769719" lon="151.2891219">
  <ele>443.46</ele>
  <time>2026-09-01T19:59:05Z</time>
  <course>333.04</course>
  <speed>24.82432073592347</speed>
  <fix>3d</fix>
</trkpt>
<trkpt lat="-27.2770084" lon="151.2891419">
  <ele>443.63</ele>
  <time>2026-09-01T19:59:05Z</time>
  <course>330.47</course>
  <speed>24.67</speed>
  <fix>3d</fix>
</trkpt>
<trkpt lat="-27.2769513" lon="151.2891118">
  <ele>443.39</ele>
  <time>2026-09-01T19:59:05Z</time>
  <course>335.47</course>
  <speed>24.909837414162304</speed>
  <fix>3d</fix>
</trkpt>
<trkpt lat="-27.2770084" lon="151.2891419">
  <ele>443.63</ele>
  <time>2026-09-01T19:59:05Z</time>
  <course>330.47</course>
  <speed>24.67</speed>
  <fix>3d</fix>
</trkpt>
<trkpt lat="-27.2769303" lon="151.2891026">
  <ele>443.31</ele>
  <time>2026-09-01T19:59:05Z</time>
  <course>337.76</course>
  <speed>24.992608907435013</speed>
  <fix>3d</fix>
</trkpt>
<trkpt lat="-27.2769687" lon="151.2891192">
  <ele>443.49</ele>
  <time>2026-09-01T19:59:05Z</time>
  <course>335.68</course>
  <speed>24.85</speed>
  <fix>3d</fix>
</trkpt>
<trkpt lat="-27.2769089" lon="151.2890944">
  <ele>443.24</ele>
  <time>2026-09-01T19:59:05Z</time>
  <course>340.01</course>
  <speed>25.073703356305387</speed>
  <fix>3d</fix>
</trkpt>
<trkpt lat="-27.2769687" lon="151.2891192">
  <ele>443.49</ele>
  <time>2026-09-01T19:59:05Z</time>
  <course>335.68</course>
  <speed>24.85</speed>
  <fix>3d</fix>
</trkpt>
<trkpt lat="-27.2768875" lon="151.2890872">
  <ele>443.17</ele>
  <time>2026-09-01T19:59:05Z</time>
  <course>342.12</course>
  <speed>25.135634067992</speed>
  <fix>3d</fix>
</trkpt>
<trkpt lat="-27.2769272" lon="151.2891005">
  <ele>443.34</ele>
  <time>2026-09-01T19:59:05Z</time>
  <course>340.57</course>
  <speed>25.0</speed>
  <fix>3d</fix>
</trkpt>
<trkpt lat="-27.2768656" lon="151.2890809">
  <ele>443.09</ele>
  <time>2026-09-01T19:59:05Z</time>
  <course>344.14</course>
  <speed>25.19719230390561</speed>
  <fix>3d</fix>
</trkpt>
<trkpt lat="-27.2769272" lon="151.2891005">
  <ele>443.34</ele>
  <time>2026-09-01T19:59:05Z</time>
  <course>340.57</course>
  <speed>25.0</speed>
  <fix>3d</fix>
</trkpt>
<trkpt lat="-27.2768436" lon="151.2890755">
  <ele>443.02</ele>
  <time>2026-09-01T19:59:05Z</time>
  <course>346.09</course>
  <speed>25.251950419720057</speed>
  <fix>3d</fix>
</trkpt>
<trkpt lat="-27.2768841" lon="151.2890856">
  <ele>443.19</ele>
  <time>2026-09-01T19:59:05Z</time>
  <course>345.1</course>
  <speed>25.15</speed>
  <fix>3d</fix>
</trkpt>
<trkpt lat="-27.2768213" lon="151.2890709">
  <ele>442.94</ele>
  <time>2026-09-01T19:59:05Z</time>
  <course>347.92</course>
  <speed>25.302746886454837</speed>
  <fix>3d</fix>
</trkpt>
<trkpt lat="-27.2768841" lon="151.2890856">
  <ele>443.19</ele>
  <time>2026-09-01T19:59:05Z</time>
  <course>345.1</course>
  <speed>25.15</speed>
  <fix>3d</fix>
</trkpt>
<trkpt lat="-27.2767989" lon="151.2890672">
  <ele>442.86</ele>
  <time>2026-09-01T19:59:05Z</time>
  <course>350.02</course>
  <speed>25.340570238256284</speed>
  <fix>3d</fix>
</trkpt>
<trkpt lat="-27.2768399" lon="151.2890744">
  <ele>443.03</ele>
  <time>2026-09-01T19:59:05Z</time>
  <course>349.24</course>
  <speed>25.28</speed>
  <fix>3d</fix>
</trkpt>
<trkpt lat="-27.2767762" lon="151.2890643">
  <ele>442.79</ele>
  <time>2026-09-01T19:59:05Z</time>
  <course>352.1</course>
  <speed>25.37187419171079</speed>
  <fix>3d</fix>
</trkpt>
<trkpt lat="-27.2768399" lon="151.2890744">
  <ele>443.03</ele>
  <time>2026-09-01T19:59:05Z</time>
  <course>349.24</course>
  <speed>25.28</speed>
  <fix>3d</fix>
</trkpt>
<trkpt lat="-27.2767534" lon="151.2890623">
  <ele>442.73</ele>
  <time>2026-09-01T19:59:05Z</time>
  <course>353.79</course>
  <speed>25.39919093199624</speed>
  <fix>3d</fix>
</trkpt>
<trkpt lat="-27.2767948" lon="151.2890665">
  <ele>442.88</ele>
  <time>2026-09-01T19:59:05Z</time>
  <course>353.16</course>
  <speed>25.38</speed>
  <fix>3d</fix>
</trkpt>
<trkpt lat="-27.2767307" lon="151.2890611">
  <ele>442.68</ele>
  <time>2026-09-01T19:59:05Z</time>
  <course>355.15</course>
  <speed>25.416655956281897</speed>
  <fix>3d</fix>
</trkpt>
<trkpt lat="-27.2767948" lon="151.2890665">
  <ele>442.88</ele>
  <time>2026-09-01T19:59:05Z</time>
  <course>353.16</course>
  <speed>25.38</speed>
  <fix>3d</fix>
</trkpt>
<trkpt lat="-27.2767078" lon="151.2890605">
  <ele>442.63</ele>
  <time>2026-09-01T19:59:05Z</time>
  <course>356.42</course>
  <speed>25.452689445321884</speed>
  <fix>3d</fix>
</trkpt>
<trkpt lat="-27.2767493" lon="151.2890621">
  <ele>442.74</ele>
  <time>2026-09-01T19:59:05Z</time>
  <course>356.76</course>
  <speed>25.46</speed>
  <fix>3d</fix>
</trkpt>
<trkpt lat="-27.2766849" lon="151.2890603">
  <ele>442.57</ele>
  <time>2026-09-01T19:59:05Z</time>
  <course>357.59</course>
  <speed>25.490282462146236</speed>
  <fix>3d</fix>
</trkpt>
<trkpt lat="-27.2767493" lon="151.2890621">
  <ele>442.74</ele>
  <time>2026-09-01T19:59:05Z</time>
  <course>356.76</course>
  <speed>25.46</speed>
  <fix>3d</fix>
</trkpt>
<trkpt lat="-27.2766619" lon="151.2890608">
  <ele>442.49</ele>
  <time>2026-09-01T19:59:05Z</time>
  <course>358.65</course>
  <speed>25.526590058211852</speed>
  <fix>3d</fix>
</trkpt>
<trkpt lat="-27.2767035" lon="151.2890605">
  <ele>442.63</ele>
  <time>2026-09-01T19:59:05Z</time>
  <course>359.59</course>
  <speed>25.52</speed>
  <fix>3d</fix>
</trkpt>
<trkpt lat="-27.2766388" lon="151.2890615">
  <ele>442.41</ele>
  <time>2026-09-01T19:59:05Z</time>
  <course>359.59</course>
  <speed>25.55918034679516</speed>
  <fix>3d</fix>
</trkpt>
<trkpt lat="-27.2767035" lon="151.2890605">
  <ele>442.63</ele>
  <time>2026-09-01T19:59:05Z</time>
  <course>359.59</course>
  <speed>25.52</speed>
  <fix>3d</fix>
</trkpt>
<trkpt lat="-27.2766157" lon="151.2890628">
  <ele>442.31</ele>
  <time>2026-09-01T19:59:05Z</time>
  <course>0.5</course>
  <speed>25.607211874782465</speed>
  <fix>3d</fix>
</trkpt>
<trkpt lat="-27.2766576" lon="151.2890611">
  <ele>442.49</ele>
  <time>2026-09-01T19:59:05Z</time>
  <course>1.76</course>
  <speed>25.59</speed>
  <fix>3d</fix>
</trkpt>
<trkpt lat="-27.2765926" lon="151.2890644">
  <ele>442.19</ele>
  <time>2026-09-01T19:59:05Z</time>
  <course>1.4</course>
  <speed>25.65974473762356</speed>
  <fix>3d</fix>
</trkpt>
<trkpt lat="-27.2766576" lon="151.2890611">
  <ele>442.49</ele>
  <time>2026-09-01T19:59:05Z</time>
  <course>1.76</course>
  <speed>25.59</speed>
  <fix>3d</fix>
</trkpt>
<trkpt lat="-27.2765694" lon="151.2890664">
  <ele>442.06</ele>
  <time>2026-09-01T19:59:05Z</time>
  <course>2.32</course>
  <speed>25.716706632070913</speed>
  <fix>3d</fix>
</trkpt>
<trkpt lat="-27.2766116" lon="151.2890635">
  <ele>442.31</ele>
  <time>2026-09-01T19:59:05Z</time>
  <course>3.57</course>
  <speed>25.66</speed>
  <fix>3d</fix>
</trkpt>
<trkpt lat="-27.2765463" lon="151.2890688">
  <ele>441.93</ele>
  <time>2026-09-01T19:59:05Z</time>
  <course>3.18</course>
  <speed>25.75583817312106</speed>
  <fix>3d</fix>
</trkpt>
<trkpt lat="-27.2766116" lon="151.2890635">
  <ele>442.31</ele>
  <time>2026-09-01T19:59:05Z</time>
  <course>3.57</course>
  <speed>25.66</speed>
  <fix>3d</fix>
</trkpt>
<trkpt lat="-27.2765231" lon="151.2890716">
  <ele>441.78</ele>
  <time>2026-09-01T19:59:05Z</time>
  <course>3.92</course>
  <speed>25.757224229330305</speed>
  <fix>3d</fix>
</trkpt>
<trkpt lat="-27.2765656" lon="151.2890674">
  <ele>442.08</ele>
  <time>2026-09-01T19:59:05Z</time>
  <course>5.15</course>
  <speed>25.75</speed>
  <fix>3d</fix>
</trkpt>
<trkpt lat="-27.2765001" lon="151.2890746">
  <ele>441.63</ele>
  <time>2026-09-01T19:59:05Z</time>
  <course>4.68</course>
  <speed>25.71910768281046</speed>
  <fix>3d</fix>
</trkpt>
<trkpt lat="-27.2765656" lon="151.2890674">
  <ele>442.08</ele>
  <time>2026-09-01T19:59:05Z</time>
  <course>5.15</course>
  <speed>25.75</speed>
  <fix>3d</fix>
</trkpt>
<trkpt lat="-27.2764771" lon="151.2890779">
  <ele>441.48</ele>
  <time>2026-09-01T19:59:05Z</time>
  <course>5.45</course>
  <speed>25.64451208348484</speed>
  <fix>3d</fix>
</trkpt>
<trkpt lat="-27.2765196" lon="151.2890727">
  <ele>441.82</ele>
  <time>2026-09-01T19:59:05Z</time>
  <course>6.56</course>
  <speed>25.77</speed>
  <fix>3d</fix>
</trkpt>
<trkpt lat="-27.2764542" lon="151.2890815">
  <ele>441.32</ele>
  <time>2026-09-01T19:59:05Z</time>
  <course>6.12</course>
  <speed>25.56765339251923</speed>
  <fix>3d</fix>
</trkpt>
<trkpt lat="-27.2765196" lon="151.2890727">
  <ele>441.82</ele>
  <time>2026-09-01T19:59:05Z</time>
  <course>6.56</course>
  <speed>25.77</speed>
  <fix>3d</fix>
</trkpt>
<trkpt lat="-27.2764314" lon="151.2890853">
  <ele>441.17</ele>
  <time>2026-09-01T19:59:05Z</time>
  <course>6.74</course>
  <speed>25.49181241104681</speed>
  <fix>3d</fix>
</trkpt>
<trkpt lat="-27.2764737" lon="151.2890793">
  <ele>441.53</ele>
  <time>2026-09-01T19:59:05Z</time>
  <course>7.8</course>
  <speed>25.67</speed>
  <fix>3d</fix>
</trkpt>
<trkpt lat="-27.2764089" lon="151.2890893">
  <ele>441.01</ele>
  <time>2026-09-01T19:59:05Z</time>
  <course>7.3</course>
  <speed>25.44321717079033</speed>
  <fix>3d</fix>
</trkpt>
<trkpt lat="-27.2764737" lon="151.2890793">
  <ele>441.53</ele>
  <time>2026-09-01T19:59:05Z</time>
  <course>7.8</course>
  <speed>25.67</speed>
  <fix>3d</fix>
</trkpt>
<trkpt lat="-27.2763864" lon="151.2890935">
  <ele>440.84</ele>
  <time>2026-09-01T19:59:05Z</time>
  <course>7.8</course>
  <speed>25.39307188978915</speed>
  <fix>3d</fix>
</trkpt>
<trkpt lat="-27.2764283" lon="151.2890868">
  <ele>441.24</ele>
  <time>2026-09-01T19:59:05Z</time>
  <course>8.88</course>
  <speed>25.52</speed>
  <fix>3d</fix>
</trkpt>
<trkpt lat="-27.276364" lon="151.2890979">
  <ele>440.67</ele>
  <time>2026-09-01T19:59:05Z</time>
  <course>8.24</course>
  <speed>25.352500862834027</speed>
  <fix>3d</fix>
</trkpt>
<trkpt lat="-27.2764283" lon="151.2890868">
  <ele>441.24</ele>
  <time>2026-09-01T19:59:05Z</time>
  <course>8.88</course>
  <speed>25.52</speed>
  <fix>3d</fix>
</trkpt>
<trkpt lat="-27.2763417" lon="151.2891024">
  <ele>440.49</ele>
  <time>2026-09-01T19:59:05Z</time>
  <course>8.65</course>
  <speed>25.317726991181495</speed>
  <fix>3d</fix>
</trkpt>
<trkpt lat="-27.2763832" lon="151.2890952">
  <ele>440.92</ele>
  <time>2026-09-01T19:59:05Z</time>
  <course>9.77</course>
  <speed>25.4</speed>
  <fix>3d</fix>
</trkpt>
<trkpt lat="-27.2763193" lon="151.2891071">
  <ele>440.31</ele>
  <time>2026-09-01T19:59:05Z</time>
  <course>9.1</course>
  <speed>25.293655330932303</speed>
  <fix>3d</fix>
</trkpt>
<trkpt lat="-27.2763832" lon="151.2890952">
  <ele>440.92</ele>
  <time>2026-09-01T19:59:05Z</time>
  <course>9.77</course>
  <speed>25.4</speed>
  <fix>3d</fix>
</trkpt>
<trkpt lat="-27.2762971" lon="151.289112">
  <ele>440.12</ele>
  <time>2026-09-01T19:59:05Z</time>
  <course>9.49</course>
  <speed>25.288202783116084</speed>
  <fix>3d</fix>
</trkpt>
<trkpt lat="-27.2763382" lon="151.2891043">
  <ele>440.58</ele>
  <time>2026-09-01T19:59:05Z</time>
  <course>10.5</course>
  <speed>25.34</speed>
  <fix>3d</fix>
</trkpt>
<trkpt lat="-27.2762749" lon="151.2891169">
  <ele>439.92</ele>
  <time>2026-09-01T19:59:05Z</time>
  <course>9.87</course>
  <speed>25.291342392210026</speed>
  <fix>3d</fix>
</trkpt>
<trkpt lat="-27.2763382" lon="151.2891043">
  <ele>440.58</ele>
  <time>2026-09-01T19:59:05Z</time>
  <course>10.5</course>
  <speed>25.34</speed>
  <fix>3d</fix>
</trkpt>
<trkpt lat="-27.276252" lon="151.2891221">
  <ele>439.71</ele>
  <time>2026-09-01T19:59:05Z</time>
  <course>10.27</course>
  <speed>25.304871072582056</speed>
  <fix>3d</fix>
</trkpt>
<trkpt lat="-27.2762934" lon="151.2891139">
  <ele>440.2</ele>
  <time>2026-09-01T19:59:05Z</time>
  <course>11.1</course>
  <speed>25.33</speed>
  <fix>3d</fix>
</trkpt>
<trkpt lat="-27.2762298" lon="151.2891273">
  <ele>439.51</ele>
  <time>2026-09-01T19:59:05Z</time>
  <course>10.6</course>
  <speed>25.338555602085925</speed>
  <fix>3d</fix>
</trkpt>
<trkpt lat="-27.2762934" lon="151.2891139">
  <ele>440.2</ele>
  <time>2026-09-01T19:59:05Z</time>
  <course>11.1</course>
  <speed>25.33</speed>
  <fix>3d</fix>
</trkpt>
<trkpt lat="-27.2762077" lon="151.2891326">
  <ele>439.31</ele>
  <time>2026-09-01T19:59:05Z</time>
  <course>10.84</course>
  <speed>25.380498419061826</speed>
  <fix>3d</fix>
</trkpt>
<trkpt lat="-27.2762488" lon="151.2891239">
  <ele>439.81</ele>
  <time>2026-09-01T19:59:05Z</time>
  <course>11.61</course>
  <speed>25.36</speed>
  <fix>3d</fix>
</trkpt>
<trkpt lat="-27.2761853" lon="151.289138">
  <ele>439.12</ele>
  <time>2026-09-01T19:59:05Z</time>
  <course>11.09</course>
  <speed>25.442421268424905</speed>
  <fix>3d</fix>
</trkpt>
<trkpt lat="-27.2762488" lon="151.2891239">
  <ele>439.81</ele>
  <time>2026-09-01T19:59:05Z</time>
  <course>11.61</course>
  <speed>25.36</speed>
  <fix>3d</fix>
</trkpt>
<trkpt lat="-27.2761629" lon="151.2891436">
  <ele>438.93</ele>
  <time>2026-09-01T19:59:05Z</time>
  <course>11.3</course>
  <speed>25.50260378863303</speed>
  <fix>3d</fix>
</trkpt>
<trkpt lat="-27.2762042" lon="151.2891345">
  <ele>439.42</ele>
  <time>2026-09-01T19:59:05Z</time>
  <course>12.06</course>
  <speed>25.43</speed>
  <fix>3d</fix>
</trkpt>
<trkpt lat="-27.2761404" lon="151.2891492">
  <ele>438.75</ele>
  <time>2026-09-01T19:59:05Z</time>
  <course>11.56</course>
  <speed>25.56855295084178</speed>
  <fix>3d</fix>
</trkpt>
<trkpt lat="-27.2762042" lon="151.2891345">
  <ele>439.42</ele>
  <time>2026-09-01T19:59:05Z</time>
  <course>12.06</course>
  <speed>25.43</speed>
  <fix>3d</fix>
</trkpt>
<trkpt lat="-27.2761182" lon="151.2891549">
  <ele>438.59</ele>
  <time>2026-09-01T19:59:05Z</time>
  <course>11.74</course>
  <speed>25.636858231850482</speed>
  <fix>3d</fix>
</trkpt>
<trkpt lat="-27.2761595" lon="151.2891454">
  <ele>439.05</ele>
  <time>2026-09-01T19:59:05Z</time>
  <course>12.43</course>
  <speed>25.54</speed>
  <fix>3d</fix>
</trkpt>
<trkpt lat="-27.2760956" lon="151.2891607">
  <ele>438.43</ele>
  <time>2026-09-01T19:59:05Z</time>
  <course>11.88</course>
  <speed>25.71294032194685</speed>
  <fix>3d</fix>
</trkpt>
<trkpt lat="-27.2761595" lon="151.2891454">
  <ele>439.05</ele>
  <time>2026-09-01T19:59:05Z</time>
  <course>12.43</course>
  <speed>25.54</speed>
  <fix>3d</fix>
</trkpt>
<trkpt lat="-27.276073" lon="151.2891665">
  <ele>438.29</ele>
  <time>2026-09-01T19:59:05Z</time>
  <course>12.01</course>
  <speed>25.774983996115303</speed>
  <fix>3d</fix>
</trkpt>
<trkpt lat="-27.2761146" lon="151.2891567">
  <ele>438.72</ele>
  <time>2026-09-01T19:59:05Z</time>
  <course>12.73</course>
  <speed>25.67</speed>
  <fix>3d</fix>
</trkpt>
<trkpt lat="-27.2760505" lon="151.2891724">
  <ele>438.17</ele>
  <time>2026-09-01T19:59:05Z</time>
  <course>12.14</course>
  <speed>25.83711477700248</speed>
  <fix>3d</fix>
</trkpt>
<trkpt lat="-27.2761146" lon="151.2891567">
  <ele>438.72</ele>
  <time>2026-09-01T19:59:05Z</time>
  <course>12.73</course>
  <speed>25.67</speed>
  <fix>3d</fix>
</trkpt>
<trkpt lat="-27.2760279" lon="151.2891784">
  <ele>438.06</ele>
  <time>2026-09-01T19:59:05Z</time>
  <course>12.27</course>
  <speed>25.897075124422837</speed>
  <fix>3d</fix>
</trkpt>
<trkpt lat="-27.2760695" lon="151.2891683">
  <ele>438.44</ele>
  <time>2026-09-01T19:59:05Z</time>
  <course>12.95</course>
  <speed>25.8</speed>
  <fix>3d</fix>
</trkpt>
<trkpt lat="-27.2760052" lon="151.2891844">
  <ele>437.96</ele>
  <time>2026-09-01T19:59:05Z</time>
  <course>12.37</course>
  <speed>25.95482228796799</speed>
  <fix>3d</fix>
</trkpt>
<trkpt lat="-27.2760695" lon="151.2891683">
  <ele>438.44</ele>
  <time>2026-09-01T19:59:05Z</time>
  <course>12.95</course>
  <speed>25.8</speed>
  <fix>3d</fix>
</trkpt>
<trkpt lat="-27.2759825" lon="151.2891904">
  <ele>437.88</ele>
  <time>2026-09-01T19:59:05Z</time>
  <course>12.45</course>
  <speed>26.010324873019176</speed>
  <fix>3d</fix>
</trkpt>
<trkpt lat="-27.2760242" lon="151.2891801">
  <ele>438.2</ele>
  <time>2026-09-01T19:59:05Z</time>
  <course>13.09</course>
  <speed>25.92</speed>
  <fix>3d</fix>
</trkpt>
<trkpt lat="-27.2759598" lon="151.2891964">
  <ele>437.81</ele>
  <time>2026-09-01T19:59:05Z</time>
  <course>12.5</course>
  <speed>26.06583971407789</speed>
  <fix>3d</fix>
</trkpt>
<trkpt lat="-27.2760242" lon="151.2891801">
  <ele>438.2</ele>
  <time>2026-09-01T19:59:05Z</time>
  <course>13.09</course>
  <speed>25.92</speed>
  <fix>3d</fix>
</trkpt>
<trkpt lat="-27.2759373" lon="151.2892024">
  <ele>437.76</ele>
  <time>2026-09-01T19:59:05Z</time>
  <course>12.48</course>
  <speed>26.10934698532309</speed>
  <fix>3d</fix>
</trkpt>
<trkpt lat="-27.2759788" lon="151.289192">
  <ele>438.02</ele>
  <time>2026-09-01T19:59:05Z</time>
  <course>13.17</course>
  <speed>26.05</speed>
  <fix>3d</fix>
</trkpt>
<trkpt lat="-27.2759147" lon="151.2892084">
  <ele>437.72</ele>
  <time>2026-09-01T19:59:05Z</time>
  <course>12.52</course>
  <speed>26.15057360747561</speed>
  <fix>3d</fix>
</trkpt>
<trkpt lat="-27.2759788" lon="151.289192">
  <ele>438.02</ele>
  <time>2026-09-01T19:59:05Z</time>
  <course>13.17</course>
  <speed>26.05</speed>
  <fix>3d</fix>
</trkpt>
<trkpt lat="-27.275892" lon="151.2892145">
  <ele>437.69</ele>
  <time>2026-09-01T19:59:05Z</time>
  <course>12.54</course>
  <speed>26.18206447169512</speed>
  <fix>3d</fix>
</trkpt>
<trkpt lat="-27.2759331" lon="151.289204">
  <ele>437.9</ele>
  <time>2026-09-01T19:59:05Z</time>
  <course>13.2</course>
  <speed>26.15</speed>
  <fix>3d</fix>
</trkpt>
<trkpt lat="-27.2758693" lon="151.2892205">
  <ele>437.67</ele>
  <time>2026-09-01T19:59:05Z</time>
  <course>12.57</course>
  <speed>26.211272384224312</speed>
  <fix>3d</fix>
</trkpt>
<trkpt lat="-27.2759331" lon="151.289204">
  <ele>437.9</ele>
  <time>2026-09-01T19:59:05Z</time>
  <course>13.2</course>
  <speed>26.15</speed>
  <fix>3d</fix>
</trkpt>
<trkpt lat="-27.2758464" lon="151.2892266">
  <ele>437.66</ele>
  <time>2026-09-01T19:59:05Z</time>
  <course>12.56</course>
  <speed>26.240482083986183</speed>
  <fix>3d</fix>
</trkpt>
<trkpt lat="-27.2758872" lon="151.2892162">
  <ele>437.84</ele>
  <time>2026-09-01T19:59:05Z</time>
  <course>13.17</course>
  <speed>26.25</speed>
  <fix>3d</fix>
</trkpt>
<trkpt lat="-27.2758236" lon="151.2892326">
  <ele>437.67</ele>
  <time>2026-09-01T19:59:05Z</time>
  <course>12.57</course>
  <speed>26.269693565018986</speed>
  <fix>3d</fix>
</trkpt>
<trkpt lat="-27.2758872" lon="151.2892162">
  <ele>437.84</ele>
  <time>2026-09-01T19:59:05Z</time>
  <course>13.17</course>
  <speed>26.25</speed>
  <fix>3d</fix>
</trkpt>
<trkpt lat="-27.2758008" lon="151.2892386">
  <ele>437.68</ele>
  <time>2026-09-01T19:59:05Z</time>
  <course>12.57</course>
  <speed>26.289168872370233</speed>
  <fix>3d</fix>
</trkpt>
<trkpt lat="-27.2758411" lon="151.2892283">
  <ele>437.81</ele>
  <time>2026-09-01T19:59:05Z</time>
  <course>13.12</course>
  <speed>26.33</speed>
  <fix>3d</fix>
</trkpt>
<trkpt lat="-27.2757772" lon="151.2892448">
  <ele>437.7</ele>
  <time>2026-09-01T19:59:05Z</time>
  <course>12.57</course>
  <speed>26.30637375238176</speed>
  <fix>3d</fix>
</trkpt>
<trkpt lat="-27.2758411" lon="151.2892283">
  <ele>437.81</ele>
  <time>2026-09-01T19:59:05Z</time>
  <course>13.12</course>
  <speed>26.33</speed>
  <fix>3d</fix>
</trkpt>
<trkpt lat="-27.2757545" lon="151.2892508">
  <ele>437.72</ele>
  <time>2026-09-01T19:59:05Z</time>
  <course>12.56</course>
  <speed>26.325852312888184</speed>
  <fix>3d</fix>
</trkpt>
<trkpt lat="-27.275795" lon="151.2892403">
  <ele>437.82</ele>
  <time>2026-09-01T19:59:05Z</time>
  <course>13.07</course>
  <speed>26.4</speed>
  <fix>3d</fix>
</trkpt>
<trkpt lat="-27.2757316" lon="151.2892568">
  <ele>437.75</ele>
  <time>2026-09-01T19:59:05Z</time>
  <course>12.49</course>
  <speed>26.343067399222893</speed>
  <fix>3d</fix>
</trkpt>
<trkpt lat="-27.275795" lon="151.2892403">
  <ele>437.82</ele>
  <time>2026-09-01T19:59:05Z</time>
  <course>13.07</course>
  <speed>26.4</speed>
  <fix>3d</fix>
</trkpt>
<trkpt lat="-27.2757085" lon="151.2892628">
  <ele>437.79</ele>
  <time>2026-09-01T19:59:05Z</time>
  <course>12.44</course>
  <speed>26.360290210845555</speed>
  <fix>3d</fix>
</trkpt>
<trkpt lat="-27.2757487" lon="151.2892524">
  <ele>437.86</ele>
  <time>2026-09-01T19:59:05Z</time>
  <course>13.02</course>
  <speed>26.46</speed>
  <fix>3d</fix>
</trkpt>
<trkpt lat="-27.2756854" lon="151.2892689">
  <ele>437.83</ele>
  <time>2026-09-01T19:59:05Z</time>
  <course>12.38</course>
  <speed>26.37752073262383</speed>
  <fix>3d</fix>
</trkpt>
<trkpt lat="-27.2757487" lon="151.2892524">
  <ele>437.86</ele>
  <time>2026-09-01T19:59:05Z</time>
  <course>13.02</course>
  <speed>26.46</speed>
  <fix>3d</fix>
</trkpt>
<trkpt lat="-27.2756622" lon="151.2892749">
  <ele>437.89</ele>
  <time>2026-09-01T19:59:05Z</time>
  <course>12.37</course>
  <speed>26.402259373015784</speed>
  <fix>3d</fix>
</trkpt>
<trkpt lat="-27.2757024" lon="151.2892645">
  <ele>437.93</ele>
  <time>2026-09-01T19:59:05Z</time>
  <course>12.95</course>
  <speed>26.5</speed>
  <fix>3d</fix>
</trkpt>
<trkpt lat="-27.2756388" lon="151.2892809">
  <ele>437.94</ele>
  <time>2026-09-01T19:59:05Z</time>
  <course>12.38</course>
  <speed>26.419511729023306</speed>
  <fix>3d</fix>
</trkpt>
<trkpt lat="-27.2757024" lon="151.2892645">
  <ele>437.93</ele>
  <time>2026-09-01T19:59:05Z</time>
  <course>12.95</course>
  <speed>26.5</speed>
  <fix>3d</fix>
</trkpt>
<trkpt lat="-27.2756154" lon="151.2892869">
  <ele>438.0</ele>
  <time>2026-09-01T19:59:05Z</time>
  <course>12.38</course>
  <speed>26.43454179667202</speed>
  <fix>3d</fix>
</trkpt>
<trkpt lat="-27.2756559" lon="151.2892764">
  <ele>438.02</ele>
  <time>2026-09-01T19:59:05Z</time>
  <course>12.85</course>
  <speed>26.54</speed>
  <fix>3d</fix>
</trkpt>
<trkpt lat="-27.2755921" lon="151.2892929">
  <ele>438.06</ele>
  <time>2026-09-01T19:59:05Z</time>
  <course>12.29</course>
  <speed>26.439843040381312</speed>
  <fix>3d</fix>
</trkpt>
<trkpt lat="-27.2756559" lon="151.2892764">
  <ele>438.02</ele>
  <time>2026-09-01T19:59:05Z</time>
  <course>12.85</course>
  <speed>26.54</speed>
  <fix>3d</fix>
</trkpt>
<trkpt lat="-27.2755688" lon="151.2892988">
  <ele>438.13</ele>
  <time>2026-09-01T19:59:05Z</time>
  <course>12.26</course>
  <speed>26.454914477276237</speed>
  <fix>3d</fix>
</trkpt>
<trkpt lat="-27.2756094" lon="151.2892883">
  <ele>438.13</ele>
  <time>2026-09-01T19:59:05Z</time>
  <course>12.75</course>
  <speed>26.56</speed>
  <fix>3d</fix>
</trkpt>
<trkpt lat="-27.2755454" lon="151.2893047">
  <ele>438.21</ele>
  <time>2026-09-01T19:59:05Z</time>
  <course>12.24</course>
  <speed>26.460253211184508</speed>
  <fix>3d</fix>
</trkpt>
<trkpt lat="-27.2756094" lon="151.2892883">
  <ele>438.13</ele>
  <time>2026-09-01T19:59:05Z</time>
  <course>12.75</course>
  <speed>26.56</speed>
  <fix>3d</fix>
</trkpt>
<trkpt lat="-27.2755221" lon="151.2893106">
  <ele>438.29</ele>
  <time>2026-09-01T19:59:05Z</time>
  <course>12.15</course>
  <speed>26.47536590870842</speed>
  <fix>3d</fix>
</trkpt>
<trkpt lat="-27.2755629" lon="151.2893001">
  <ele>438.27</ele>
  <time>2026-09-01T19:59:05Z</time>
  <course>12.63</course>
  <speed>26.57</speed>
  <fix>3d</fix>
</trkpt>
<trkpt lat="-27.2754987" lon="151.2893165">
  <ele>438.37</ele>
  <time>2026-09-01T19:59:05Z</time>
  <course>12.07</course>
  <speed>26.468798612706244</speed>
  <fix>3d</fix>
</trkpt>
<trkpt lat="-27.2755629" lon="151.2893001">
  <ele>438.27</ele>
  <time>2026-09-01T19:59:05Z</time>
  <course>12.63</course>
  <speed>26.57</speed>
  <fix>3d</fix>
</trkpt>
<trkpt lat="-27.2754759" lon="151.2893222">
  <ele>438.46</ele>
  <time>2026-09-01T19:59:05Z</time>
  <course>12.03</course>
  <speed>26.47637626262325</speed>
  <fix>3d</fix>
</trkpt>
<trkpt lat="-27.2755163" lon="151.2893118">
  <ele>438.42</ele>
  <time>2026-09-01T19:59:05Z</time>
  <course>12.53</course>
  <speed>26.57</speed>
  <fix>3d</fix>
</trkpt>
<trkpt lat="-27.2754527" lon="151.2893279">
  <ele>438.55</ele>
  <time>2026-09-01T19:59:05Z</time>
  <course>11.99</course>
  <speed>26.469854551923778</speed>
  <fix>3d</fix>
</trkpt>
<trkpt lat="-27.2755163" lon="151.2893118">
  <ele>438.42</ele>
  <time>2026-09-01T19:59:05Z</time>
  <course>12.53</course>
  <speed>26.57</speed>
  <fix>3d</fix>
</trkpt>
<trkpt lat="-27.2754293" lon="151.2893337">
  <ele>438.64</ele>
  <time>2026-09-01T19:59:05Z</time>
  <course>11.95</course>
  <speed>26.475288478126163</speed>
  <fix>3d</fix>
</trkpt>
<trkpt lat="-27.2754697" lon="151.2893234">
  <ele>438.6</ele>
  <time>2026-09-01T19:59:05Z</time>
  <course>12.42</course>
  <speed>26.56</speed>
  <fix>3d</fix>
</trkpt>
<trkpt lat="-27.2754059" lon="151.2893395">
  <ele>438.74</ele>
  <time>2026-09-01T19:59:05Z</time>
  <course>11.92</course>
  <speed>26.470974670381896</speed>
  <fix>3d</fix>
</trkpt>
<trkpt lat="-27.2754697" lon="151.2893234">
  <ele>438.6</ele>
  <time>2026-09-01T19:59:05Z</time>
  <course>12.42</course>
  <speed>26.56</speed>
  <fix>3d</fix>
</trkpt>
<trkpt lat="-27.2753825" lon="151.2893452">
  <ele>438.83</ele>
  <time>2026-09-01T19:59:05Z</time>
  <course>11.86</course>
  <speed>26.466675272878533</speed>
  <fix>3d</fix>
</trkpt>
<trkpt lat="-27.2754231" lon="151.2893349">
  <ele>438.78</ele>
  <time>2026-09-01T19:59:05Z</time>
  <course>12.32</course>
  <speed>26.55</speed>
  <fix>3d</fix>
</trkpt>
<trkpt lat="-27.275359" lon="151.289351">
  <ele>438.93</ele>
  <time>2026-09-01T19:59:05Z</time>
  <course>11.86</course>
  <speed>26.45262179822635</speed>
  <fix>3d</fix>
</trkpt>
<trkpt lat="-27.2754231" lon="151.2893349">
  <ele>438.78</ele>
  <time>2026-09-01T19:59:05Z</time>
  <course>12.32</course>
  <speed>26.55</speed>
  <fix>3d</fix>
</trkpt>
<trkpt lat="-27.2753356" lon="151.2893567">
  <ele>439.04</ele>
  <time>2026-09-01T19:59:05Z</time>
  <course>11.81</course>
  <speed>26.44834966496019</speed>
  <fix>3d</fix>
</trkpt>
<trkpt lat="-27.2753764" lon="151.2893464">
  <ele>438.97</ele>
  <time>2026-09-01T19:59:05Z</time>
  <course>12.22</course>
  <speed>26.53</speed>
  <fix>3d</fix>
</trkpt>
<trkpt lat="-27.2753122" lon="151.2893624">
  <ele>439.14</ele>
  <time>2026-09-01T19:59:05Z</time>
  <course>11.74</course>
  <speed>26.44409196777231</speed>
  <fix>3d</fix>
</trkpt>
<trkpt lat="-27.2753764" lon="151.2893464">
  <ele>438.97</ele>
  <time>2026-09-01T19:59:05Z</time>
  <course>12.22</course>
  <speed>26.53</speed>
  <fix>3d</fix>
</trkpt>
<trkpt lat="-27.275288" lon="151.2893682">
  <ele>439.25</ele>
  <time>2026-09-01T19:59:05Z</time>
  <course>11.67</course>
  <speed>26.43984871363677</speed>
  <fix>3d</fix>
</trkpt>
<trkpt lat="-27.2753298" lon="151.2893576">
  <ele>439.18</ele>
  <time>2026-09-01T19:59:05Z</time>
  <course>12.13</course>
  <speed>26.5</speed>
  <fix>3d</fix>
</trkpt>
<trkpt lat="-27.2752649" lon="151.2893738">
  <ele>439.35</ele>
  <time>2026-09-01T19:59:05Z</time>
  <course>11.68</course>
  <speed>26.425845303414608</speed>
  <fix>3d</fix>
</trkpt>
<trkpt lat="-27.2753298" lon="151.2893576">
  <ele>439.18</ele>
  <time>2026-09-01T19:59:05Z</time>
  <course>12.13</course>
  <speed>26.5</speed>
  <fix>3d</fix>
</trkpt>
<trkpt lat="-27.2752415" lon="151.2893794">
  <ele>439.46</ele>
  <time>2026-09-01T19:59:05Z</time>
  <course>11.65</course>
  <speed>26.421629397143548</speed>
  <fix>3d</fix>
</trkpt>
<trkpt lat="-27.2752832" lon="151.2893689">
  <ele>439.38</ele>
  <time>2026-09-01T19:59:05Z</time>
  <course>12.05</course>
  <speed>26.47</speed>
  <fix>3d</fix>
</trkpt>
<trkpt lat="-27.2752182" lon="151.289385">
  <ele>439.56</ele>
  <time>2026-09-01T19:59:05Z</time>
  <course>11.57</course>
  <speed>26.40765040665299</speed>
  <fix>3d</fix>
</trkpt>
<trkpt lat="-27.2752832" lon="151.2893689">
  <ele>439.38</ele>
  <time>2026-09-01T19:59:05Z</time>
  <course>12.05</course>
  <speed>26.47</speed>
  <fix>3d</fix>
</trkpt>
<trkpt lat="-27.2751949" lon="151.2893905">
  <ele>439.67</ele>
  <time>2026-09-01T19:59:05Z</time>
  <course>11.55</course>
  <speed>26.393682956343927</speed>
  <fix>3d</fix>
</trkpt>
<trkpt lat="-27.2752368" lon="151.28938">
  <ele>439.59</ele>
  <time>2026-09-01T19:59:05Z</time>
  <course>11.97</course>
  <speed>26.43</speed>
  <fix>3d</fix>
</trkpt>
<trkpt lat="-27.2751714" lon="151.2893961">
  <ele>439.78</ele>
  <time>2026-09-01T19:59:05Z</time>
  <course>11.47</course>
  <speed>26.367863015420877</speed>
  <fix>3d</fix>
</trkpt>
<trkpt lat="-27.2752368" lon="151.28938">
  <ele>439.59</ele>
  <time>2026-09-01T19:59:05Z</time>
  <course>11.97</course>
  <speed>26.43</speed>
  <fix>3d</fix>
</trkpt>
<trkpt lat="-27.2751481" lon="151.2894016">
  <ele>439.89</ele>
  <time>2026-09-01T19:59:05Z</time>
  <course>11.42</course>
  <speed>26.34414166375515</speed>
  <fix>3d</fix>
</trkpt>
<trkpt lat="-27.2751904" lon="151.2893911">
  <ele>439.8</ele>
  <time>2026-09-01T19:59:05Z</time>
  <course>11.88</course>
  <speed>26.39</speed>
  <fix>3d</fix>
</trkpt>
<trkpt lat="-27.2751249" lon="151.2894071">
  <ele>440.0</ele>
  <time>2026-09-01T19:59:05Z</time>
  <course>11.38</course>
  <speed>26.330212684291027</speed>
  <fix>3d</fix>
</trkpt>
<trkpt lat="-27.2751904" lon="151.2893911">
  <ele>439.8</ele>
  <time>2026-09-01T19:59:05Z</time>
  <course>11.88</course>
  <speed>26.39</speed>
  <fix>3d</fix>
</trkpt>
<trkpt lat="-27.2751018" lon="151.2894125">
  <ele>440.1</ele>
  <time>2026-09-01T19:59:05Z</time>
  <course>11.33</course>
  <speed>26.29466295657733</speed>
  <fix>3d</fix>
</trkpt>
<trkpt lat="-27.275144" lon="151.289402">
  <ele>440.02</ele>
  <time>2026-09-01T19:59:05Z</time>
  <course>11.79</course>
  <speed>26.35</speed>
  <fix>3d</fix>
</trkpt>
<trkpt lat="-27.2750787" lon="151.2894179">
  <ele>440.2</ele>
  <time>2026-09-01T19:59:05Z</time>
  <course>11.32</course>
  <speed>26.28076102398863</speed>
  <fix>3d</fix>
</trkpt>
<trkpt lat="-27.275144" lon="151.289402">
  <ele>440.02</ele>
  <time>2026-09-01T19:59:05Z</time>
  <course>11.79</course>
  <speed>26.35</speed>
  <fix>3d</fix>
</trkpt>
<trkpt lat="-27.2750555" lon="151.2894233">
  <ele>440.3</ele>
  <time>2026-09-01T19:59:05Z</time>
  <course>11.35</course>
  <speed>26.257082853965326</speed>
  <fix>3d</fix>
</trkpt>
<trkpt lat="-27.2750977" lon="151.2894128">
  <ele>440.22</ele>
  <time>2026-09-01T19:59:05Z</time>
  <course>11.7</course>
  <speed>26.3</speed>
  <fix>3d</fix>
</trkpt>
<trkpt lat="-27.2750324" lon="151.2894287">
  <ele>440.4</ele>
  <time>2026-09-01T19:59:05Z</time>
  <course>11.32</course>
  <speed>26.243202929520624</speed>
  <fix>3d</fix>
</trkpt>
<trkpt lat="-27.2750977" lon="151.2894128">
  <ele>440.22</ele>
  <time>2026-09-01T19:59:05Z</time>
  <course>11.7</course>
  <speed>26.3</speed>
  <fix>3d</fix>
</trkpt>
<trkpt lat="-27.2750092" lon="151.289434">
  <ele>440.49</ele>
  <time>2026-09-01T19:59:05Z</time>
  <course>11.31</course>
  <speed>26.221582713482416</speed>
  <fix>3d</fix>
</trkpt>
<trkpt lat="-27.2750515" lon="151.2894235">
  <ele>440.42</ele>
  <time>2026-09-01T19:59:05Z</time>
  <course>11.63</course>
  <speed>26.25</speed>
  <fix>3d</fix>
</trkpt>
<trkpt lat="-27.2749861" lon="151.2894394">
  <ele>440.58</ele>
  <time>2026-09-01T19:59:05Z</time>
  <course>11.25</course>
  <speed>26.197927398937495</speed>
  <fix>3d</fix>
</trkpt>
<trkpt lat="-27.2750515" lon="151.2894235">
  <ele>440.42</ele>
  <time>2026-09-01T19:59:05Z</time>
  <course>11.63</course>
  <speed>26.25</speed>
  <fix>3d</fix>
</trkpt>
<trkpt lat="-27.2749629" lon="151.2894447">
  <ele>440.67</ele>
  <time>2026-09-01T19:59:05Z</time>
  <course>11.16</course>
  <speed>26.18610318470467</speed>
  <fix>3d</fix>
</trkpt>
<trkpt lat="-27.2750053" lon="151.2894342">
  <ele>440.61</ele>
  <time>2026-09-01T19:59:05Z</time>
  <course>11.59</course>
  <speed>26.21</speed>
  <fix>3d</fix>
</trkpt>
<trkpt lat="-27.2749398" lon="151.28945">
  <ele>440.76</ele>
  <time>2026-09-01T19:59:05Z</time>
  <course>11.12</course>
  <speed>26.162461657879213</speed>
  <fix>3d</fix>
</trkpt>
<trkpt lat="-27.2750053" lon="151.2894342">
  <ele>440.61</ele>
  <time>2026-09-01T19:59:05Z</time>
  <course>11.59</course>
  <speed>26.21</speed>
  <fix>3d</fix>
</trkpt>
<trkpt lat="-27.2749167" lon="151.2894553">
  <ele>440.85</ele>
  <time>2026-09-01T19:59:05Z</time>
  <course>11.09</course>
  <speed>26.1486232907203</speed>
  <fix>3d</fix>
</trkpt>
<trkpt lat="-27.2749593" lon="151.2894448">
  <ele>440.79</ele>
  <time>2026-09-01T19:59:05Z</time>
  <course>11.54</course>
  <speed>26.16</speed>
  <fix>3d</fix>
</trkpt>
<trkpt lat="-27.2748936" lon="151.2894606">
  <ele>440.94</ele>
  <time>2026-09-01T19:59:05Z</time>
  <course>11.08</course>
  <speed>26.125001435406656</speed>
  <fix>3d</fix>
</trkpt>
<trkpt lat="-27.2749593" lon="151.2894448">
  <ele>440.79</ele>
  <time>2026-09-01T19:59:05Z</time>
  <course>11.54</course>
  <speed>26.16</speed>
  <fix>3d</fix>
</trkpt>
<trkpt lat="-27.2748705" lon="151.2894658">
  <ele>441.02</ele>
  <time>2026-09-01T19:59:05Z</time>
  <course>11.07</course>
  <speed>26.11118534268408</speed>
  <fix>3d</fix>
</trkpt>
<trkpt lat="-27.2749132" lon="151.2894554">
  <ele>440.96</ele>
  <time>2026-09-01T19:59:05Z</time>
  <course>11.48</course>
  <speed>26.12</speed>
  <fix>3d</fix>
</trkpt>
<trkpt lat="-27.2748475" lon="151.289471">
  <ele>441.09</ele>
  <time>2026-09-01T19:59:05Z</time>
  <course>11.05</course>
  <speed>26.09938313447274</speed>
  <fix>3d</fix>
</trkpt>
<trkpt lat="-27.2749132" lon="151.2894554">
  <ele>440.96</ele>
  <time>2026-09-01T19:59:05Z</time>
  <course>11.48</course>
  <speed>26.12</speed>
  <fix>3d</fix>
</trkpt>
<trkpt lat="-27.274825" lon="151.2894761">
  <ele>441.16</ele>
  <time>2026-09-01T19:59:05Z</time>
  <course>11.0</course>
  <speed>26.07578570244816</speed>
  <fix>3d</fix>
</trkpt>
<trkpt lat="-27.2748671" lon="151.2894659">
  <ele>441.12</ele>
  <time>2026-09-01T19:59:05Z</time>
  <course>11.42</course>
  <speed>26.08</speed>
  <fix>3d</fix>
</trkpt>
<trkpt lat="-27.2748012" lon="151.2894815">
  <ele>441.24</ele>
  <time>2026-09-01T19:59:05Z</time>
  <course>11.02</course>
  <speed>26.063990484958364</speed>
  <fix>3d</fix>
</trkpt>
<trkpt lat="-27.2748671" lon="151.2894659">
  <ele>441.12</ele>
  <time>2026-09-01T19:59:05Z</time>
  <course>11.42</course>
  <speed>26.08</speed>
  <fix>3d</fix>
</trkpt>
<trkpt lat="-27.2747785" lon="151.2894866">
  <ele>441.31</ele>
  <time>2026-09-01T19:59:05Z</time>
  <course>11.04</course>
  <speed>26.04239812306079</speed>
  <fix>3d</fix>
</trkpt>
<trkpt lat="-27.2748212" lon="151.2894763">
  <ele>441.27</ele>
  <time>2026-09-01T19:59:05Z</time>
  <course>11.38</course>
  <speed>26.04</speed>
  <fix>3d</fix>
</trkpt>
<trkpt lat="-27.2747557" lon="151.2894918">
  <ele>441.38</ele>
  <time>2026-09-01T19:59:05Z</time>
  <course>11.06</course>
  <speed>26.02279961879582</speed>
  <fix>3d</fix>
</trkpt>
<trkpt lat="-27.2748212" lon="151.2894763">
  <ele>441.27</ele>
  <time>2026-09-01T19:59:05Z</time>
  <course>11.38</course>
  <speed>26.04</speed>
  <fix>3d</fix>
</trkpt>
<trkpt lat="-27.2747327" lon="151.289497">
  <ele>441.45</ele>
  <time>2026-09-01T19:59:05Z</time>
  <course>11.04</course>
  <speed>26.01100728537824</speed>
  <fix>3d</fix>
</trkpt>
<trkpt lat="-27.2747754" lon="151.2894867">
  <ele>441.41</ele>
  <time>2026-09-01T19:59:05Z</time>
  <course>11.35</course>
  <speed>26.0</speed>
  <fix>3d</fix>
</trkpt>
<trkpt lat="-27.2747098" lon="151.2895022">
  <ele>441.51</ele>
  <time>2026-09-01T19:59:05Z</time>
  <course>11.03</course>
  <speed>25.999217295911045</speed>
  <fix>3d</fix>
</trkpt>
<trkpt lat="-27.2747754" lon="151.2894867">
  <ele>441.41</ele>
  <time>2026-09-01T19:59:05Z</time>
  <course>11.35</course>
  <speed>26.0</speed>
  <fix>3d</fix>
</trkpt>
<trkpt lat="-27.2746867" lon="151.2895074">
  <ele>441.58</ele>
  <time>2026-09-01T19:59:05Z</time>
  <course>10.99</course>
  <speed>25.989417076956535</speed>
  <fix>3d</fix>
</trkpt>
<trkpt lat="-27.2747297" lon="151.289497">
  <ele>441.55</ele>
  <time>2026-09-01T19:59:05Z</time>
  <course>11.34</course>
  <speed>25.97</speed>
  <fix>3d</fix>
</trkpt>
<trkpt lat="-27.2746637" lon="151.2895125">
  <ele>441.65</ele>
  <time>2026-09-01T19:59:05Z</time>
  <course>10.94</course>
  <speed>25.987429653584442</speed>
  <fix>3d</fix>
</trkpt>
<trkpt lat="-27.2747297" lon="151.289497">
  <ele>441.55</ele>
  <time>2026-09-01T19:59:05Z</time>
  <course>11.34</course>
  <speed>25.97</speed>
  <fix>3d</fix>
</trkpt>
<trkpt lat="-27.2746408" lon="151.2895177">
  <ele>441.7</ele>
  <time>2026-09-01T19:59:05Z</time>
  <course>10.92</course>
  <speed>25.975644361593805</speed>
  <fix>3d</fix>
</trkpt>
<trkpt lat="-27.2746839" lon="151.2895073">
  <ele>441.68</ele>
  <time>2026-09-01T19:59:05Z</time>
  <course>11.32</course>
  <speed>25.94</speed>
  <fix>3d</fix>
</trkpt>
<trkpt lat="-27.2746179" lon="151.2895228">
  <ele>441.76</ele>
  <time>2026-09-01T19:59:05Z</time>
  <course>10.94</course>
  <speed>25.961883598845443</speed>
  <fix>3d</fix>
</trkpt>
<trkpt lat="-27.2746839" lon="151.2895073">
  <ele>441.68</ele>
  <time>2026-09-01T19:59:05Z</time>
  <course>11.32</course>
  <speed>25.94</speed>
  <fix>3d</fix>
</trkpt>
<trkpt lat="-27.274595" lon="151.2895279">
  <ele>441.81</ele>
  <time>2026-09-01T19:59:05Z</time>
  <course>10.93</course>
  <speed>25.950105972808664</speed>
  <fix>3d</fix>
</trkpt>
<trkpt lat="-27.2746383" lon="151.2895176">
  <ele>441.8</ele>
  <time>2026-09-01T19:59:05Z</time>
  <course>11.29</course>
  <speed>25.92</speed>
  <fix>3d</fix>
</trkpt>
<trkpt lat="-27.2745721" lon="151.2895331">
  <ele>441.87</ele>
  <time>2026-09-01T19:59:05Z</time>
  <course>10.93</course>
  <speed>25.93833070958885</speed>
  <fix>3d</fix>
</trkpt>
<trkpt lat="-27.2746383" lon="151.2895176">
  <ele>441.8</ele>
  <time>2026-09-01T19:59:05Z</time>
  <course>11.29</course>
  <speed>25.92</speed>
  <fix>3d</fix>
</trkpt>
<trkpt lat="-27.2745492" lon="151.2895382">
  <ele>441.92</ele>
  <time>2026-09-01T19:59:05Z</time>
  <course>10.94</course>
  <speed>25.928526761079198</speed>
  <fix>3d</fix>
</trkpt>
<trkpt lat="-27.2745926" lon="151.2895279">
  <ele>441.91</ele>
  <time>2026-09-01T19:59:05Z</time>
  <course>11.25</course>
  <speed>25.89</speed>
  <fix>3d</fix>
</trkpt>
<trkpt lat="-27.2745263" lon="151.2895433">
  <ele>441.97</ele>
  <time>2026-09-01T19:59:05Z</time>
  <course>10.98</course>
  <speed>25.91675326887996</speed>
  <fix>3d</fix>
</trkpt>
<trkpt lat="-27.2745926" lon="151.2895279">
  <ele>441.91</ele>
  <time>2026-09-01T19:59:05Z</time>
  <course>11.25</course>
  <speed>25.89</speed>
  <fix>3d</fix>
</trkpt>
<trkpt lat="-27.2745034" lon="151.2895484">
  <ele>442.02</ele>
  <time>2026-09-01T19:59:06Z</time>
  <course>10.91</course>
  <speed>25.904982146297648</speed>
  <fix>3d</fix>
</trkpt>
<trkpt lat="-27.274547" lon="151.2895381">
  <ele>442.02</ele>
  <time>2026-09-01T19:59:06Z</time>
  <course>11.23</course>
  <speed>25.87</speed>
  <fix>3d</fix>
</trkpt>
<trkpt lat="-27.2744806" lon="151.2895535">
  <ele>442.07</ele>
  <time>2026-09-01T19:59:06Z</time>
  <course>10.86</course>
  <speed>25.893213396563976</speed>
  <fix>3d</fix>
</trkpt>
<trkpt lat="-27.274547" lon="151.2895381">
  <ele>442.02</ele>
  <time>2026-09-01T19:59:06Z</time>
  <course>11.23</course>
  <speed>25.87</speed>
  <fix>3d</fix>
</trkpt>
<trkpt lat="-27.2744579" lon="151.2895585">
  <ele>442.11</ele>
  <time>2026-09-01T19:59:06Z</time>
  <course>10.86</course>
  <speed>25.883407812728215</speed>
  <fix>3d</fix>
</trkpt>
<trkpt lat="-27.2745015" lon="151.2895482">
  <ele>442.12</ele>
  <time>2026-09-01T19:59:06Z</time>
  <course>11.21</course>
  <speed>25.85</speed>
  <fix>3d</fix>
</trkpt>
<trkpt lat="-27.2744351" lon="151.2895636">
  <ele>442.15</ele>
  <time>2026-09-01T19:59:06Z</time>
  <course>10.86</course>
  <speed>25.86968302859546</speed>
  <fix>3d</fix>
</trkpt>
<trkpt lat="-27.2745015" lon="151.2895482">
  <ele>442.12</ele>
  <time>2026-09-01T19:59:06Z</time>
  <course>11.21</course>
  <speed>25.85</speed>
  <fix>3d</fix>
</trkpt>
<trkpt lat="-27.2744125" lon="151.2895686">
  <ele>442.19</ele>
  <time>2026-09-01T19:59:06Z</time>
  <course>10.83</course>
  <speed>25.859876256471143</speed>
  <fix>3d</fix>
</trkpt>
<trkpt lat="-27.2744558" lon="151.2895583">
  <ele>442.21</ele>
  <time>2026-09-01T19:59:06Z</time>
  <course>11.18</course>
  <speed>25.83</speed>
  <fix>3d</fix>
</trkpt>
<trkpt lat="-27.2743898" lon="151.2895736">
  <ele>442.23</ele>
  <time>2026-09-01T19:59:06Z</time>
  <course>10.85</course>
  <speed>25.83830683307248</speed>
  <fix>3d</fix>
</trkpt>
<trkpt lat="-27.2744558" lon="151.2895583">
  <ele>442.21</ele>
  <time>2026-09-01T19:59:06Z</time>
  <course>11.18</course>
  <speed>25.83</speed>
  <fix>3d</fix>
</trkpt>
<trkpt lat="-27.2743673" lon="151.2895786">
  <ele>442.27</ele>
  <time>2026-09-01T19:59:06Z</time>
  <course>10.87</course>
  <speed>25.81673875608614</speed>
  <fix>3d</fix>
</trkpt>
<trkpt lat="-27.2744102" lon="151.2895685">
  <ele>442.3</ele>
  <time>2026-09-01T19:59:06Z</time>
  <course>11.16</course>
  <speed>25.81</speed>
  <fix>3d</fix>
</trkpt>
<trkpt lat="-27.2743448" lon="151.2895836">
  <ele>442.31</ele>
  <time>2026-09-01T19:59:06Z</time>
  <course>10.87</course>
  <speed>25.797123870695355</speed>
  <fix>3d</fix>
</trkpt>
<trkpt lat="-27.2744102" lon="151.2895685">
  <ele>442.3</ele>
  <time>2026-09-01T19:59:06Z</time>
  <course>11.16</course>
  <speed>25.81</speed>
  <fix>3d</fix>
</trkpt>
<trkpt lat="-27.2743223" lon="151.2895886">
  <ele>442.34</ele>
  <time>2026-09-01T19:59:06Z</time>
  <course>10.88</course>
  <speed>25.775556250059864</speed>
  <fix>3d</fix>
</trkpt>
<trkpt lat="-27.2743648" lon="151.2895786">
  <ele>442.38</ele>
  <time>2026-09-01T19:59:06Z</time>
  <course>11.15</course>
  <speed>25.79</speed>
  <fix>3d</fix>
</trkpt>
<trkpt lat="-27.2742999" lon="151.2895935">
  <ele>442.38</ele>
  <time>2026-09-01T19:59:06Z</time>
  <course>10.85</course>
  <speed>25.755941062209317</speed>
  <fix>3d</fix>
</trkpt>
<trkpt lat="-27.2743648" lon="151.2895786">
  <ele>442.38</ele>
  <time>2026-09-01T19:59:06Z</time>
  <course>11.15</course>
  <speed>25.79</speed>
  <fix>3d</fix>
</trkpt>
<trkpt lat="-27.2742775" lon="151.2895985">
  <ele>442.42</ele>
  <time>2026-09-01T19:59:06Z</time>
  <course>10.76</course>
  <speed>25.734373899514242</speed>
  <fix>3d</fix>
</trkpt>
<trkpt lat="-27.2743193" lon="151.2895887">
  <ele>442.46</ele>
  <time>2026-09-01T19:59:06Z</time>
  <course>11.16</course>
  <speed>25.78</speed>
  <fix>3d</fix>
</trkpt>
<trkpt lat="-27.2742551" lon="151.2896034">
  <ele>442.45</ele>
  <time>2026-09-01T19:59:06Z</time>
  <course>10.73</course>
  <speed>25.712808092466293</speed>
  <fix>3d</fix>
</trkpt>
<trkpt lat="-27.2743193" lon="151.2895887">
  <ele>442.46</ele>
  <time>2026-09-01T19:59:06Z</time>
  <course>11.16</course>
  <speed>25.78</speed>
  <fix>3d</fix>
</trkpt>
<trkpt lat="-27.2742327" lon="151.2896084">
  <ele>442.48</ele>
  <time>2026-09-01T19:59:06Z</time>
  <course>10.78</course>
  <speed>25.691243644479336</speed>
  <fix>3d</fix>
</trkpt>
<trkpt lat="-27.274274" lon="151.2895988">
  <ele>442.53</ele>
  <time>2026-09-01T19:59:06Z</time>
  <course>11.15</course>
  <speed>25.76</speed>
  <fix>3d</fix>
</trkpt>
<trkpt lat="-27.2742101" lon="151.2896134">
  <ele>442.52</ele>
  <time>2026-09-01T19:59:06Z</time>
  <course>10.86</course>
  <speed>25.669680558978527</speed>
  <fix>3d</fix>
</trkpt>
<trkpt lat="-27.274274" lon="151.2895988">
  <ele>442.53</ele>
  <time>2026-09-01T19:59:06Z</time>
  <course>11.15</course>
  <speed>25.76</speed>
  <fix>3d</fix>
</trkpt>
<trkpt lat="-27.2741876" lon="151.2896183">
  <ele>442.55</ele>
  <time>2026-09-01T19:59:06Z</time>
  <course>10.81</course>
  <speed>25.6598713948453</speed>
  <fix>3d</fix>
</trkpt>
<trkpt lat="-27.2742286" lon="151.2896089">
  <ele>442.59</ele>
  <time>2026-09-01T19:59:06Z</time>
  <course>11.14</course>
  <speed>25.74</speed>
  <fix>3d</fix>
</trkpt>
<trkpt lat="-27.2741651" lon="151.2896233">
  <ele>442.58</ele>
  <time>2026-09-01T19:59:06Z</time>
  <course>10.83</course>
  <speed>25.650062378091793</speed>
  <fix>3d</fix>
</trkpt>
<trkpt lat="-27.2742286" lon="151.2896089">
  <ele>442.59</ele>
  <time>2026-09-01T19:59:06Z</time>
  <course>11.14</course>
  <speed>25.74</speed>
  <fix>3d</fix>
</trkpt>
<trkpt lat="-27.2741425" lon="151.2896283">
  <ele>442.61</ele>
  <time>2026-09-01T19:59:06Z</time>
  <course>10.85</course>
  <speed>25.640253508887152</speed>
  <fix>3d</fix>
</trkpt>
<trkpt lat="-27.2741831" lon="151.2896189">
  <ele>442.66</ele>
  <time>2026-09-01T19:59:06Z</time>
  <course>11.14</course>
  <speed>25.73</speed>
  <fix>3d</fix>
</trkpt>
<trkpt lat="-27.2741198" lon="151.2896333">
  <ele>442.64</ele>
  <time>2026-09-01T19:59:06Z</time>
  <course>10.84</course>
  <speed>25.630444787400783</speed>
  <fix>3d</fix>
</trkpt>
<trkpt lat="-27.2741831" lon="151.2896189">
  <ele>442.66</ele>
  <time>2026-09-01T19:59:06Z</time>
  <course>11.14</course>
  <speed>25.73</speed>
  <fix>3d</fix>
</trkpt>
<trkpt lat="-27.2740973" lon="151.2896383">
  <ele>442.67</ele>
  <time>2026-09-01T19:59:06Z</time>
  <course>10.85</course>
  <speed>25.630444787400783</speed>
  <fix>3d</fix>
</trkpt>
<trkpt lat="-27.2741378" lon="151.289629">
  <ele>442.71</ele>
  <time>2026-09-01T19:59:06Z</time>
  <course>11.14</course>
  <speed>25.72</speed>
  <fix>3d</fix>
</trkpt>
<trkpt lat="-27.2740747" lon="151.2896433">
  <ele>442.69</ele>
  <time>2026-09-01T19:59:06Z</time>
  <course>10.87</course>
  <speed>25.620636213802342</speed>
  <fix>3d</fix>
</trkpt>
<trkpt lat="-27.2741378" lon="151.289629">
  <ele>442.71</ele>
  <time>2026-09-01T19:59:06Z</time>
  <course>11.14</course>
  <speed>25.72</speed>
  <fix>3d</fix>
</trkpt>
<trkpt lat="-27.2740522" lon="151.2896483">
  <ele>442.72</ele>
  <time>2026-09-01T19:59:06Z</time>
  <course>10.84</course>
  <speed>25.612778060960117</speed>
  <fix>3d</fix>
</trkpt>
<trkpt lat="-27.2740925" lon="151.289639">
  <ele>442.76</ele>
  <time>2026-09-01T19:59:06Z</time>
  <course>11.16</course>
  <speed>25.71</speed>
  <fix>3d</fix>
</trkpt>
<trkpt lat="-27.2740297" lon="151.2896533">
  <ele>442.74</ele>
  <time>2026-09-01T19:59:06Z</time>
  <course>10.85</course>
  <speed>25.60101951094917</speed>
  <fix>3d</fix>
</trkpt>
<trkpt lat="-27.2740925" lon="151.289639">
  <ele>442.76</ele>
  <time>2026-09-01T19:59:06Z</time>
  <course>11.16</course>
  <speed>25.71</speed>
  <fix>3d</fix>
</trkpt>
<trkpt lat="-27.2740072" lon="151.2896583">
  <ele>442.77</ele>
  <time>2026-09-01T19:59:06Z</time>
  <course>10.93</course>
  <speed>25.591211382035045</speed>
  <fix>3d</fix>
</trkpt>
<trkpt lat="-27.2740472" lon="151.2896491">
  <ele>442.81</ele>
  <time>2026-09-01T19:59:06Z</time>
  <course>11.18</course>
  <speed>25.7</speed>
  <fix>3d</fix>
</trkpt>
<trkpt lat="-27.2739847" lon="151.2896633">
  <ele>442.79</ele>
  <time>2026-09-01T19:59:06Z</time>
  <course>10.89</course>
  <speed>25.581403401690064</speed>
  <fix>3d</fix>
</trkpt>
<trkpt lat="-27.2740472" lon="151.2896491">
  <ele>442.81</ele>
  <time>2026-09-01T19:59:06Z</time>
  <course>11.18</course>
  <speed>25.7</speed>
  <fix>3d</fix>
</trkpt>
<trkpt lat="-27.2739622" lon="151.2896683">
  <ele>442.81</ele>
  <time>2026-09-01T19:59:06Z</time>
  <course>10.94</course>
  <speed>25.57159557008518</speed>
  <fix>3d</fix>
</trkpt>
<trkpt lat="-27.2740019" lon="151.2896591">
  <ele>442.85</ele>
  <time>2026-09-01T19:59:06Z</time>
  <course>11.2</course>
  <speed>25.69</speed>
  <fix>3d</fix>
</trkpt>
<trkpt lat="-27.2739397" lon="151.2896733">
  <ele>442.83</ele>
  <time>2026-09-01T19:59:06Z</time>
  <course>10.98</course>
  <speed>25.57159557008518</speed>
  <fix>3d</fix>
</trkpt>
<trkpt lat="-27.2740019" lon="151.2896591">
  <ele>442.85</ele>
  <time>2026-09-01T19:59:06Z</time>
  <course>11.2</course>
  <speed>25.69</speed>
  <fix>3d</fix>
</trkpt>
<trkpt lat="-27.2739171" lon="151.2896784">
  <ele>442.85</ele>
  <time>2026-09-01T19:59:06Z</time>
  <course>10.98</course>
  <speed>25.57159557008518</speed>
  <fix>3d</fix>
</trkpt>
<trkpt lat="-27.2739566" lon="151.2896693">
  <ele>442.89</ele>
  <time>2026-09-01T19:59:06Z</time>
  <course>11.21</course>
  <speed>25.68</speed>
  <fix>3d</fix>
</trkpt>
<trkpt lat="-27.2738945" lon="151.2896834">
  <ele>442.87</ele>
  <time>2026-09-01T19:59:06Z</time>
  <course>11.03</course>
  <speed>25.57159557008518</speed>
  <fix>3d</fix>
</trkpt>
<trkpt lat="-27.2739566" lon="151.2896693">
  <ele>442.89</ele>
  <time>2026-09-01T19:59:06Z</time>
  <course>11.21</course>
  <speed>25.68</speed>
  <fix>3d</fix>
</trkpt>
<trkpt lat="-27.2738717" lon="151.2896885">
  <ele>442.88</ele>
  <time>2026-09-01T19:59:06Z</time>
  <course>11.05</course>
  <speed>25.57354883468464</speed>
  <fix>3d</fix>
</trkpt>
<trkpt lat="-27.2739113" lon="151.2896794">
  <ele>442.93</ele>
  <time>2026-09-01T19:59:06Z</time>
  <course>11.22</course>
  <speed>25.68</speed>
  <fix>3d</fix>
</trkpt>
<trkpt lat="-27.2738491" lon="151.2896935">
  <ele>442.9</ele>
  <time>2026-09-01T19:59:06Z</time>
  <course>11.0</course>
  <speed>25.575505860099817</speed>
  <fix>3d</fix>
</trkpt>
<trkpt lat="-27.2739113" lon="151.2896794">
  <ele>442.93</ele>
  <time>2026-09-01T19:59:06Z</time>
  <course>11.22</course>
  <speed>25.68</speed>
  <fix>3d</fix>
</trkpt>
<trkpt lat="-27.2738263" lon="151.2896986">
  <ele>442.92</ele>
  <time>2026-09-01T19:59:06Z</time>
  <course>10.98</course>
  <speed>25.58335591747103</speed>
  <fix>3d</fix>
</trkpt>
<trkpt lat="-27.273866" lon="151.2896895">
  <ele>442.96</ele>
  <time>2026-09-01T19:59:06Z</time>
  <course>11.24</course>
  <speed>25.68</speed>
  <fix>3d</fix>
</trkpt>
<trkpt lat="-27.2738036" lon="151.2897037">
  <ele>442.93</ele>
  <time>2026-09-01T19:59:06Z</time>
  <course>10.99</course>
  <speed>25.58335591747103</speed>
  <fix>3d</fix>
</trkpt>
<trkpt lat="-27.273866" lon="151.2896895">
  <ele>442.96</ele>
  <time>2026-09-01T19:59:06Z</time>
  <course>11.24</course>
  <speed>25.68</speed>
  <fix>3d</fix>
</trkpt>
<trkpt lat="-27.2737808" lon="151.2897088">
  <ele>442.95</ele>
  <time>2026-09-01T19:59:06Z</time>
  <course>11.02</course>
  <speed>25.595118675247434</speed>
  <fix>3d</fix>
</trkpt>
<trkpt lat="-27.2738208" lon="151.2896996">
  <ele>443.0</ele>
  <time>2026-09-01T19:59:06Z</time>
  <course>11.26</course>
  <speed>25.67</speed>
  <fix>3d</fix>
</trkpt>
<trkpt lat="-27.2737581" lon="151.2897139">
  <ele>442.97</ele>
  <time>2026-09-01T19:59:06Z</time>
  <course>11.01</course>
  <speed>25.595118675247434</speed>
  <fix>3d</fix>
</trkpt>
<trkpt lat="-27.2738208" lon="151.2896996">
  <ele>443.0</ele>
  <time>2026-09-01T19:59:06Z</time>
  <course>11.26</course>
  <speed>25.67</speed>
  <fix>3d</fix>
</trkpt>
<trkpt lat="-27.2737356" lon="151.2897189">
  <ele>442.98</ele>
  <time>2026-09-01T19:59:06Z</time>
  <course>10.99</course>
  <speed>25.595118675247434</speed>
  <fix>3d</fix>
</trkpt>
<trkpt lat="-27.2737756" lon="151.2897098">
  <ele>443.03</ele>
  <time>2026-09-01T19:59:06Z</time>
  <course>11.26</course>
  <speed>25.66</speed>
  <fix>3d</fix>
</trkpt>
<trkpt lat="-27.273713" lon="151.289724">
  <ele>443.0</ele>
  <time>2026-09-01T19:59:06Z</time>
  <course>11.04</course>
  <speed>25.595118675247434</speed>
  <fix>3d</fix>
</trkpt>
<trkpt lat="-27.2737756" lon="151.2897098">
  <ele>443.03</ele>
  <time>2026-09-01T19:59:06Z</time>
  <course>11.26</course>
  <speed>25.66</speed>
  <fix>3d</fix>
</trkpt>
<trkpt lat="-27.2736904" lon="151.289729">
  <ele>443.01</ele>
  <time>2026-09-01T19:59:06Z</time>
  <course>11.04</course>
  <speed>25.595118675247434</speed>
  <fix>3d</fix>
</trkpt>
<trkpt lat="-27.2737304" lon="151.2897199">
  <ele>443.06</ele>
  <time>2026-09-01T19:59:06Z</time>
  <course>11.27</course>
  <speed>25.66</speed>
  <fix>3d</fix>
</trkpt>
<trkpt lat="-27.2736678" lon="151.2897341">
  <ele>443.02</ele>
  <time>2026-09-01T19:59:06Z</time>
  <course>11.08</course>
  <speed>25.595118675247434</speed>
  <fix>3d</fix>
</trkpt>
<trkpt lat="-27.2737304" lon="151.2897199">
  <ele>443.06</ele>
  <time>2026-09-01T19:59:06Z</time>
  <course>11.27</course>
  <speed>25.66</speed>
  <fix>3d</fix>
</trkpt>
<trkpt lat="-27.273645" lon="151.2897392">
  <ele>443.03</ele>
  <time>2026-09-01T19:59:06Z</time>
  <course>11.09</course>
  <speed>25.597077958235783</speed>
  <fix>3d</fix>
</trkpt>
<trkpt lat="-27.2736852" lon="151.28973">
  <ele>443.09</ele>
  <time>2026-09-01T19:59:06Z</time>
  <course>11.28</course>
  <speed>25.65</speed>
  <fix>3d</fix>
</trkpt>
<trkpt lat="-27.2736225" lon="151.2897442">
  <ele>443.04</ele>
  <time>2026-09-01T19:59:06Z</time>
  <course>11.04</course>
  <speed>25.58727222663643</speed>
  <fix>3d</fix>
</trkpt>
<trkpt lat="-27.2736852" lon="151.28973">
  <ele>443.09</ele>
  <time>2026-09-01T19:59:06Z</time>
  <course>11.28</course>
  <speed>25.65</speed>
  <fix>3d</fix>
</trkpt>
<trkpt lat="-27.2736" lon="151.2897493">
  <ele>443.05</ele>
  <time>2026-09-01T19:59:06Z</time>
  <course>10.98</course>
  <speed>25.58727222663643</speed>
  <fix>3d</fix>
</trkpt>
<trkpt lat="-27.27364" lon="151.2897401">
  <ele>443.11</ele>
  <time>2026-09-01T19:59:06Z</time>
  <course>11.3</course>
  <speed>25.65</speed>
  <fix>3d</fix>
</trkpt>
<trkpt lat="-27.2735772" lon="151.2897544">
  <ele>443.07</ele>
  <time>2026-09-01T19:59:06Z</time>
  <course>10.96</course>
  <speed>25.577466645467453</speed>
  <fix>3d</fix>
</trkpt>
<trkpt lat="-27.27364" lon="151.2897401">
  <ele>443.11</ele>
  <time>2026-09-01T19:59:06Z</time>
  <course>11.3</course>
  <speed>25.65</speed>
  <fix>3d</fix>
</trkpt>
<trkpt lat="-27.2735546" lon="151.2897595">
  <ele>443.09</ele>
  <time>2026-09-01T19:59:06Z</time>
  <course>10.98</course>
  <speed>25.575505860099817</speed>
  <fix>3d</fix>
</trkpt>
<trkpt lat="-27.2735948" lon="151.2897504">
  <ele>443.14</ele>
  <time>2026-09-01T19:59:06Z</time>
  <course>11.31</course>
  <speed>25.64</speed>
  <fix>3d</fix>
</trkpt>
<trkpt lat="-27.2735319" lon="151.2897646">
  <ele>443.1</ele>
  <time>2026-09-01T19:59:06Z</time>
  <course>11.03</course>
  <speed>25.575505860099817</speed>
  <fix>3d</fix>
</trkpt>
<trkpt lat="-27.2735948" lon="151.2897504">
  <ele>443.14</ele>
  <time>2026-09-01T19:59:06Z</time>
  <course>11.31</course>
  <speed>25.64</speed>
  <fix>3d</fix>
</trkpt>
<trkpt lat="-27.2735092" lon="151.2897697">
  <ele>443.12</ele>
  <time>2026-09-01T19:59:06Z</time>
  <course>11.05</course>
  <speed>25.58335591747103</speed>
  <fix>3d</fix>
</trkpt>
<trkpt lat="-27.2735496" lon="151.2897605">
  <ele>443.17</ele>
  <time>2026-09-01T19:59:06Z</time>
  <course>11.3</course>
  <speed>25.63</speed>
  <fix>3d</fix>
</trkpt>
<trkpt lat="-27.2734865" lon="151.2897747">
  <ele>443.14</ele>
  <time>2026-09-01T19:59:06Z</time>
  <course>11.07</course>
  <speed>25.58335591747103</speed>
  <fix>3d</fix>
</trkpt>
<trkpt lat="-27.2735496" lon="151.2897605">
  <ele>443.17</ele>
  <time>2026-09-01T19:59:06Z</time>
  <course>11.3</course>
  <speed>25.63</speed>
  <fix>3d</fix>
</trkpt>
<trkpt lat="-27.2734638" lon="151.2897798">
  <ele>443.15</ele>
  <time>2026-09-01T19:59:06Z</time>
  <course>11.06</course>
  <speed>25.593163149560077</speed>
  <fix>3d</fix>
</trkpt>
<trkpt lat="-27.2735044" lon="151.2897707">
  <ele>443.2</ele>
  <time>2026-09-01T19:59:06Z</time>
  <course>11.28</course>
  <speed>25.62</speed>
  <fix>3d</fix>
</trkpt>
<trkpt lat="-27.2734411" lon="151.2897849">
  <ele>443.16</ele>
  <time>2026-09-01T19:59:06Z</time>
  <course>11.03</course>
  <speed>25.57354883468464</speed>
  <fix>3d</fix>
</trkpt>
<trkpt lat="-27.2735044" lon="151.2897707">
  <ele>443.2</ele>
  <time>2026-09-01T19:59:06Z</time>
  <course>11.28</course>
  <speed>25.62</speed>
  <fix>3d</fix>
</trkpt>
<trkpt lat="-27.2734184" lon="151.28979">
  <ele>443.17</ele>
  <time>2026-09-01T19:59:06Z</time>
  <course>10.99</course>
  <speed>25.5107977139093</speed>
  <fix>3d</fix>
</trkpt>
<trkpt lat="-27.2734592" lon="151.2897808">
  <ele>443.23</ele>
  <time>2026-09-01T19:59:06Z</time>
  <course>11.27</course>
  <speed>25.6</speed>
  <fix>3d</fix>
</trkpt>
<trkpt lat="-27.2733959" lon="151.2897951">
  <ele>443.17</ele>
  <time>2026-09-01T19:59:06Z</time>
  <course>11.09</course>
  <speed>25.391157909792142</speed>
  <fix>3d</fix>
</trkpt>
<trkpt lat="-27.2734592" lon="151.2897808">
  <ele>443.23</ele>
  <time>2026-09-01T19:59:06Z</time>
  <course>11.27</course>
  <speed>25.6</speed>
  <fix>3d</fix>
</trkpt>
<trkpt lat="-27.2733734" lon="151.2898002">
  <ele>443.19</ele>
  <time>2026-09-01T19:59:06Z</time>
  <course>11.46</course>
  <speed>25.20719143419195</speed>
  <fix>3d</fix>
</trkpt>
<trkpt lat="-27.2734142" lon="151.2897909">
  <ele>443.25</ele>
  <time>2026-09-01T19:59:06Z</time>
  <course>11.28</course>
  <speed>25.5</speed>
  <fix>3d</fix>
</trkpt>
<trkpt lat="-27.2733512" lon="151.2898054">
  <ele>443.25</ele>
  <time>2026-09-01T19:59:06Z</time>
  <course>12.13</course>
  <speed>24.926520013832654</speed>
  <fix>3d</fix>
</trkpt>
<trkpt lat="-27.2734142" lon="151.2897909">
  <ele>443.25</ele>
  <time>2026-09-01T19:59:06Z</time>
  <course>11.28</course>
  <speed>25.5</speed>
  <fix>3d</fix>
</trkpt>
<trkpt lat="-27.2733295" lon="151.289811">
  <ele>443.35</ele>
  <time>2026-09-01T19:59:06Z</time>
  <course>13.17</course>
  <speed>24.555946326704657</speed>
  <fix>3d</fix>
</trkpt>
<trkpt lat="-27.2733696" lon="151.2898011">
  <ele>443.29</ele>
  <time>2026-09-01T19:59:06Z</time>
  <course>11.78</course>
  <speed>25.17</speed>
  <fix>3d</fix>
</trkpt>
<trkpt lat="-27.2733083" lon="151.289817">
  <ele>443.51</ele>
  <time>2026-09-01T19:59:06Z</time>
  <course>14.54</course>
  <speed>24.118913740050566</speed>
  <fix>3d</fix>
</trkpt>
<trkpt lat="-27.2733696" lon="151.2898011">
  <ele>443.29</ele>
  <time>2026-09-01T19:59:06Z</time>
  <course>11.78</course>
  <speed>25.17</speed>
  <fix>3d</fix>
</trkpt>
<trkpt lat="-27.2732876" lon="151.2898233">
  <ele>443.71</ele>
  <time>2026-09-01T19:59:06Z</time>
  <course>16.06</course>
  <speed>23.650742060239885</speed>
  <fix>3d</fix>
</trkpt>
<trkpt lat="-27.2733259" lon="151.2898119">
  <ele>443.46</ele>
  <time>2026-09-01T19:59:06Z</time>
  <course>13.38</course>
  <speed>24.53</speed>
  <fix>3d</fix>
</trkpt>
<trkpt lat="-27.2732676" lon="151.28983">
  <ele>443.95</ele>
  <time>2026-09-01T19:59:06Z</time>
  <course>17.52</course>
  <speed>23.161651495521642</speed>
  <fix>3d</fix>
</trkpt>
<trkpt lat="-27.2733259" lon="151.2898119">
  <ele>443.46</ele>
  <time>2026-09-01T19:59:06Z</time>
  <course>13.38</course>
  <speed>24.53</speed>
  <fix>3d</fix>
</trkpt>
<trkpt lat="-27.2732479" lon="151.2898372">
  <ele>444.23</ele>
  <time>2026-09-01T19:59:06Z</time>
  <course>18.88</course>
  <speed>22.680141093035555</speed>
  <fix>3d</fix>
</trkpt>
<trkpt lat="-27.273284" lon="151.2898242">
  <ele>443.81</ele>
  <time>2026-09-01T19:59:06Z</time>
  <course>15.84</course>
  <speed>23.64</speed>
  <fix>3d</fix>
</trkpt>
<trkpt lat="-27.2732288" lon="151.2898447">
  <ele>444.54</ele>
  <time>2026-09-01T19:59:06Z</time>
  <course>20.08</course>
  <speed>22.1825517017317</speed>
  <fix>3d</fix>
</trkpt>
<trkpt lat="-27.273284" lon="151.2898242">
  <ele>443.81</ele>
  <time>2026-09-01T19:59:06Z</time>
  <course>15.84</course>
  <speed>23.64</speed>
  <fix>3d</fix>
</trkpt>
<trkpt lat="-27.2732103" lon="151.2898525">
  <ele>444.88</ele>
  <time>2026-09-01T19:59:06Z</time>
  <course>21.1</course>
  <speed>21.688268718364775</speed>
  <fix>3d</fix>
</trkpt>
<trkpt lat="-27.2732443" lon="151.2898381">
  <ele>444.32</ele>
  <time>2026-09-01T19:59:06Z</time>
  <course>18.57</course>
  <speed>22.67</speed>
  <fix>3d</fix>
</trkpt>
<trkpt lat="-27.2731921" lon="151.2898606">
  <ele>445.25</ele>
  <time>2026-09-01T19:59:06Z</time>
  <course>21.87</course>
  <speed>21.19634166548558</speed>
  <fix>3d</fix>
</trkpt>
<trkpt lat="-27.2732443" lon="151.2898381">
  <ele>444.32</ele>
  <time>2026-09-01T19:59:06Z</time>
  <course>18.57</course>
  <speed>22.67</speed>
  <fix>3d</fix>
</trkpt>
<trkpt lat="-27.2731746" lon="151.2898688">
  <ele>445.63</ele>
  <time>2026-09-01T19:59:06Z</time>
  <course>22.38</course>
  <speed>20.731977715596745</speed>
  <fix>3d</fix>
</trkpt>
<trkpt lat="-27.2732068" lon="151.2898533">
  <ele>444.97</ele>
  <time>2026-09-01T19:59:06Z</time>
  <course>21.12</course>
  <speed>21.67</speed>
  <fix>3d</fix>
</trkpt>
<trkpt lat="-27.2731576" lon="151.2898771">
  <ele>446.01</ele>
  <time>2026-09-01T19:59:06Z</time>
  <course>22.74</course>
  <speed>20.3171060931423</speed>
  <fix>3d</fix>
</trkpt>
<trkpt lat="-27.2732068" lon="151.2898533">
  <ele>444.97</ele>
  <time>2026-09-01T19:59:06Z</time>
  <course>21.12</course>
  <speed>21.67</speed>
  <fix>3d</fix>
</trkpt>
<trkpt lat="-27.2731409" lon="151.2898854">
  <ele>446.37</ele>
  <time>2026-09-01T19:59:06Z</time>
  <course>23.03</course>
  <speed>19.938731153210327</speed>
  <fix>3d</fix>
</trkpt>
<trkpt lat="-27.2731716" lon="151.2898695">
  <ele>445.7</ele>
  <time>2026-09-01T19:59:06Z</time>
  <course>23.07</course>
  <speed>20.73</speed>
  <fix>3d</fix>
</trkpt>
<trkpt lat="-27.2731246" lon="151.2898937">
  <ele>446.71</ele>
  <time>2026-09-01T19:59:06Z</time>
  <course>23.27</course>
  <speed>19.58542570382375</speed>
  <fix>3d</fix>
</trkpt>
<trkpt lat="-27.2731716" lon="151.2898695">
  <ele>445.7</ele>
  <time>2026-09-01T19:59:06Z</time>
  <course>23.07</course>
  <speed>20.73</speed>
  <fix>3d</fix>
</trkpt>
<trkpt lat="-27.2731086" lon="151.2899019">
  <ele>447.01</ele>
  <time>2026-09-01T19:59:06Z</time>
  <course>23.49</course>
  <speed>19.269730148603536</speed>
  <fix>3d</fix>
</trkpt>
<trkpt lat="-27.2731382" lon="151.289886">
  <ele>446.42</ele>
  <time>2026-09-01T19:59:06Z</time>
  <course>24.26</course>
  <speed>19.91</speed>
  <fix>3d</fix>
</trkpt>
<trkpt lat="-27.273093" lon="151.28991">
  <ele>447.28</ele>
  <time>2026-09-01T19:59:06Z</time>
  <course>23.69</course>
  <speed>18.964000105462983</speed>
  <fix>3d</fix>
</trkpt>
<trkpt lat="-27.2731382" lon="151.289886">
  <ele>446.42</ele>
  <time>2026-09-01T19:59:06Z</time>
  <course>24.26</course>
  <speed>19.91</speed>
  <fix>3d</fix>
</trkpt>
<trkpt lat="-27.2730775" lon="151.2899181">
  <ele>447.52</ele>
  <time>2026-09-01T19:59:06Z</time>
  <course>23.87</course>
  <speed>18.685571974119497</speed>
  <fix>3d</fix>
</trkpt>
<trkpt lat="-27.2731063" lon="151.2899024">
  <ele>447.05</ele>
  <time>2026-09-01T19:59:06Z</time>
  <course>24.9</course>
  <speed>19.22</speed>
  <fix>3d</fix>
</trkpt>
<trkpt lat="-27.2730624" lon="151.2899261">
  <ele>447.72</ele>
  <time>2026-09-01T19:59:06Z</time>
  <course>24.05</course>
  <speed>18.42105317293232</speed>
  <fix>3d</fix>
</trkpt>
<trkpt lat="-27.2731063" lon="151.2899024">
  <ele>447.05</ele>
  <time>2026-09-01T19:59:06Z</time>
  <course>24.9</course>
  <speed>19.22</speed>
  <fix>3d</fix>
</trkpt>
<trkpt lat="-27.2730474" lon="151.2899339">
  <ele>447.88</ele>
  <time>2026-09-01T19:59:06Z</time>
  <course>24.2</course>
  <speed>18.170374239404097</speed>
  <fix>3d</fix>
</trkpt>
<trkpt lat="-27.2730755" lon="151.2899187">
  <ele>447.55</ele>
  <time>2026-09-01T19:59:06Z</time>
  <course>25.23</course>
  <speed>18.62</speed>
  <fix>3d</fix>
</trkpt>
<trkpt lat="-27.2730326" lon="151.2899418">
  <ele>448.01</ele>
  <time>2026-09-01T19:59:06Z</time>
  <course>24.33</course>
  <speed>17.933513320038546</speed>
  <fix>3d</fix>
</trkpt>
<trkpt lat="-27.2730755" lon="151.2899187">
  <ele>447.55</ele>
  <time>2026-09-01T19:59:06Z</time>
  <course>25.23</course>
  <speed>18.62</speed>
  <fix>3d</fix>
</trkpt>
<trkpt lat="-27.273018" lon="151.2899495">
  <ele>448.11</ele>
  <time>2026-09-01T19:59:06Z</time>
  <course>24.42</course>
  <speed>17.70996612080328</speed>
  <fix>3d</fix>
</trkpt>
<trkpt lat="-27.2730455" lon="151.2899345">
  <ele>447.91</ele>
  <time>2026-09-01T19:59:06Z</time>
  <course>25.36</course>
  <speed>18.1</speed>
  <fix>3d</fix>
</trkpt>
<trkpt lat="-27.2730037" lon="151.2899571">
  <ele>448.18</ele>
  <time>2026-09-01T19:59:06Z</time>
  <course>24.46</course>
  <speed>17.4960138317275</speed>
  <fix>3d</fix>
</trkpt>
<trkpt lat="-27.2730455" lon="151.2899345">
  <ele>447.91</ele>
  <time>2026-09-01T19:59:06Z</time>
  <course>25.36</course>
  <speed>18.1</speed>
  <fix>3d</fix>
</trkpt>
<trkpt lat="-27.2729896" lon="151.2899645">
  <ele>448.22</ele>
  <time>2026-09-01T19:59:06Z</time>
  <course>24.46</course>
  <speed>17.300245662995657</speed>
  <fix>3d</fix>
</trkpt>
<trkpt lat="-27.2730166" lon="151.28995">
  <ele>448.14</ele>
  <time>2026-09-01T19:59:06Z</time>
  <course>25.32</course>
  <speed>17.63</speed>
  <fix>3d</fix>
</trkpt>
<trkpt lat="-27.2729756" lon="151.2899717">
  <ele>448.25</ele>
  <time>2026-09-01T19:59:06Z</time>
  <course>24.41</course>
  <speed>17.100374264910112</speed>
  <fix>3d</fix>
</trkpt>
<trkpt lat="-27.2730166" lon="151.28995">
  <ele>448.14</ele>
  <time>2026-09-01T19:59:06Z</time>
  <course>25.32</course>
  <speed>17.63</speed>
  <fix>3d</fix>
</trkpt>
<trkpt lat="-27.2729618" lon="151.2899789">
  <ele>448.25</ele>
  <time>2026-09-01T19:59:06Z</time>
  <course>24.3</course>
  <speed>16.914668190656297</speed>
  <fix>3d</fix>
</trkpt>
<trkpt lat="-27.2729883" lon="151.2899651">
  <ele>448.25</ele>
  <time>2026-09-01T19:59:06Z</time>
  <course>25.11</course>
  <speed>17.22</speed>
  <fix>3d</fix>
</trkpt>
<trkpt lat="-27.2729482" lon="151.2899858">
  <ele>448.24</ele>
  <time>2026-09-01T19:59:06Z</time>
  <course>24.13</course>
  <speed>16.743347932835892</speed>
  <fix>3d</fix>
</trkpt>
<trkpt lat="-27.2729883" lon="151.2899651">
  <ele>448.25</ele>
  <time>2026-09-01T19:59:06Z</time>
  <course>25.11</course>
  <speed>17.22</speed>
  <fix>3d</fix>
</trkpt>
<trkpt lat="-27.2729346" lon="151.2899927">
  <ele>448.21</ele>
  <time>2026-09-01T19:59:06Z</time>
  <course>23.89</course>
  <speed>16.581619341909885</speed>
  <fix>3d</fix>
</trkpt>
<trkpt lat="-27.2729605" lon="151.2899795">
  <ele>448.28</ele>
  <time>2026-09-01T19:59:06Z</time>
  <course>24.72</course>
  <speed>16.84</speed>
  <fix>3d</fix>
</trkpt>
<trkpt lat="-27.2729211" lon="151.2899994">
  <ele>448.18</ele>
  <time>2026-09-01T19:59:06Z</time>
  <course>23.59</course>
  <speed>16.4163942447786</speed>
  <fix>3d</fix>
</trkpt>
<trkpt lat="-27.2729605" lon="151.2899795">
  <ele>448.28</ele>
  <time>2026-09-01T19:59:06Z</time>
  <course>24.72</course>
  <speed>16.84</speed>
  <fix>3d</fix>
</trkpt>
<trkpt lat="-27.2729077" lon="151.290006">
  <ele>448.14</ele>
  <time>2026-09-01T19:59:06Z</time>
  <course>23.24</course>
  <speed>16.270184387400164</speed>
  <fix>3d</fix>
</trkpt>
<trkpt lat="-27.2729333" lon="151.2899935">
  <ele>448.25</ele>
  <time>2026-09-01T19:59:06Z</time>
  <course>24.14</course>
  <speed>16.51</speed>
  <fix>3d</fix>
</trkpt>
<trkpt lat="-27.2728943" lon="151.2900124">
  <ele>448.09</ele>
  <time>2026-09-01T19:59:06Z</time>
  <course>22.84</course>
  <speed>16.12620538130406</speed>
  <fix>3d</fix>
</trkpt>
<trkpt lat="-27.2729333" lon="151.2899935">
  <ele>448.25</ele>
  <time>2026-09-01T19:59:06Z</time>
  <course>24.14</course>
  <speed>16.51</speed>
  <fix>3d</fix>
</trkpt>
<trkpt lat="-27.2728809" lon="151.2900187">
  <ele>448.05</ele>
  <time>2026-09-01T19:59:06Z</time>
  <course>22.39</course>
  <speed>15.983356969047522</speed>
  <fix>3d</fix>
</trkpt>
<trkpt lat="-27.2729064" lon="151.2900068">
  <ele>448.17</ele>
  <time>2026-09-01T19:59:06Z</time>
  <course>23.37</course>
  <speed>16.2</speed>
  <fix>3d</fix>
</trkpt>
<trkpt lat="-27.2728676" lon="151.2900247">
  <ele>448.0</ele>
  <time>2026-09-01T19:59:06Z</time>
  <course>21.91</course>
  <speed>15.837960727315874</speed>
  <fix>3d</fix>
</trkpt>
<trkpt lat="-27.2729064" lon="151.2900068">
  <ele>448.17</ele>
  <time>2026-09-01T19:59:06Z</time>
  <course>23.37</course>
  <speed>16.2</speed>
  <fix>3d</fix>
</trkpt>
<trkpt lat="-27.2728545" lon="151.2900306">
  <ele>447.95</ele>
  <time>2026-09-01T19:59:06Z</time>
  <course>21.38</course>
  <speed>15.703248071657022</speed>
  <fix>3d</fix>
</trkpt>
<trkpt lat="-27.2728799" lon="151.2900195">
  <ele>448.08</ele>
  <time>2026-09-01T19:59:06Z</time>
  <course>22.43</course>
  <speed>15.91</speed>
  <fix>3d</fix>
</trkpt>
<trkpt lat="-27.2728413" lon="151.2900363">
  <ele>447.9</ele>
  <time>2026-09-01T19:59:06Z</time>
  <course>20.83</course>
  <speed>15.566480013156474</speed>
  <fix>3d</fix>
</trkpt>
<trkpt lat="-27.2728799" lon="151.2900195">
  <ele>448.08</ele>
  <time>2026-09-01T19:59:06Z</time>
  <course>22.43</course>
  <speed>15.91</speed>
  <fix>3d</fix>
</trkpt>
<trkpt lat="-27.2728283" lon="151.2900417">
  <ele>447.85</ele>
  <time>2026-09-01T19:59:06Z</time>
  <course>20.25</course>
  <speed>15.42799079595266</speed>
  <fix>3d</fix>
</trkpt>
<trkpt lat="-27.2728536" lon="151.2900313">
  <ele>447.98</ele>
  <time>2026-09-01T19:59:06Z</time>
  <course>21.34</course>
  <speed>15.63</speed>
  <fix>3d</fix>
</trkpt>
<trkpt lat="-27.2728153" lon="151.290047">
  <ele>447.8</ele>
  <time>2026-09-01T19:59:06Z</time>
  <course>19.65</course>
  <speed>15.28532956792231</speed>
  <fix>3d</fix>
</trkpt>
<trkpt lat="-27.2728536" lon="151.2900313">
  <ele>447.98</ele>
  <time>2026-09-01T19:59:06Z</time>
  <course>21.34</course>
  <speed>15.63</speed>
  <fix>3d</fix>
</trkpt>
<trkpt lat="-27.2728024" lon="151.290052">
  <ele>447.76</ele>
  <time>2026-09-01T19:59:06Z</time>
  <course>19.03</course>
  <speed>15.150646850877358</speed>
  <fix>3d</fix>
</trkpt>
<trkpt lat="-27.2728275" lon="151.2900424">
  <ele>447.89</ele>
  <time>2026-09-01T19:59:06Z</time>
  <course>20.13</course>
  <speed>15.36</speed>
  <fix>3d</fix>
</trkpt>
<trkpt lat="-27.2727896" lon="151.2900569">
  <ele>447.72</ele>
  <time>2026-09-01T19:59:06Z</time>
  <course>18.39</course>
  <speed>15.018019176975372</speed>
  <fix>3d</fix>
</trkpt>
<trkpt lat="-27.2728275" lon="151.2900424">
  <ele>447.89</ele>
  <time>2026-09-01T19:59:06Z</time>
  <course>20.13</course>
  <speed>15.36</speed>
  <fix>3d</fix>
</trkpt>
<trkpt lat="-27.2727769" lon="151.2900615">
  <ele>447.68</ele>
  <time>2026-09-01T19:59:06Z</time>
  <course>17.74</course>
  <speed>14.877956848976273</speed>
  <fix>3d</fix>
</trkpt>
<trkpt lat="-27.2728017" lon="151.2900527">
  <ele>447.8</ele>
  <time>2026-09-01T19:59:06Z</time>
  <course>18.84</course>
  <speed>15.09</speed>
  <fix>3d</fix>
</trkpt>
<trkpt lat="-27.2727642" lon="151.2900659">
  <ele>447.64</ele>
  <time>2026-09-01T19:59:06Z</time>
  <course>17.08</course>
  <speed>14.739989823605713</speed>
  <fix>3d</fix>
</trkpt>
<trkpt lat="-27.2728017" lon="151.2900527">
  <ele>447.8</ele>
  <time>2026-09-01T19:59:06Z</time>
  <course>18.84</course>
  <speed>15.09</speed>
  <fix>3d</fix>
</trkpt>
<trkpt lat="-27.2727515" lon="151.2900701">
  <ele>447.61</ele>
  <time>2026-09-01T19:59:06Z</time>
  <course>16.4</course>
  <speed>14.606933285258751</speed>
  <fix>3d</fix>
</trkpt>
<trkpt lat="-27.2727761" lon="151.2900622">
  <ele>447.72</ele>
  <time>2026-09-01T19:59:06Z</time>
  <course>17.49</course>
  <speed>14.82</speed>
  <fix>3d</fix>
</trkpt>
<trkpt lat="-27.272739" lon="151.2900741">
  <ele>447.58</ele>
  <time>2026-09-01T19:59:06Z</time>
  <course>15.72</course>
  <speed>14.4732166431654</speed>
  <fix>3d</fix>
</trkpt>
<trkpt lat="-27.2727761" lon="151.2900622">
  <ele>447.72</ele>
  <time>2026-09-01T19:59:06Z</time>
  <course>17.49</course>
  <speed>14.82</speed>
  <fix>3d</fix>
</trkpt>
<trkpt lat="-27.2727266" lon="151.2900779">
  <ele>447.55</ele>
  <time>2026-09-01T19:59:06Z</time>
  <course>15.03</course>
  <speed>14.332096845891044</speed>
  <fix>3d</fix>
</trkpt>
<trkpt lat="-27.2727508" lon="151.2900707">
  <ele>447.65</ele>
  <time>2026-09-01T19:59:06Z</time>
  <course>16.1</course>
  <speed>14.55</speed>
  <fix>3d</fix>
</trkpt>
<trkpt lat="-27.2727143" lon="151.2900815">
  <ele>447.52</ele>
  <time>2026-09-01T19:59:06Z</time>
  <course>14.34</course>
  <speed>14.195650742392898</speed>
  <fix>3d</fix>
</trkpt>
<trkpt lat="-27.2727508" lon="151.2900707">
  <ele>447.65</ele>
  <time>2026-09-01T19:59:06Z</time>
  <course>16.1</course>
  <speed>14.55</speed>
  <fix>3d</fix>
</trkpt>
<trkpt lat="-27.272702" lon="151.2900848">
  <ele>447.49</ele>
  <time>2026-09-01T19:59:06Z</time>
  <course>13.64</course>
  <speed>14.051565749054445</speed>
  <fix>3d</fix>
</trkpt>
<trkpt lat="-27.2727259" lon="151.2900785">
  <ele>447.59</ele>
  <time>2026-09-01T19:59:06Z</time>
  <course>14.68</course>
  <speed>14.28</speed>
  <fix>3d</fix>
</trkpt>
<trkpt lat="-27.2726899" lon="151.290088">
  <ele>447.46</ele>
  <time>2026-09-01T19:59:06Z</time>
  <course>12.94</course>
  <speed>13.909583027538963</speed>
  <fix>3d</fix>
</trkpt>
<trkpt lat="-27.2727259" lon="151.2900785">
  <ele>447.59</ele>
  <time>2026-09-01T19:59:06Z</time>
  <course>14.68</course>
  <speed>14.28</speed>
  <fix>3d</fix>
</trkpt>
<trkpt lat="-27.2726779" lon="151.2900909">
  <ele>447.44</ele>
  <time>2026-09-01T19:59:06Z</time>
  <course>12.23</course>
  <speed>13.779557322352558</speed>
  <fix>3d</fix>
</trkpt>
<trkpt lat="-27.2727012" lon="151.2900854">
  <ele>447.53</ele>
  <time>2026-09-01T19:59:06Z</time>
  <course>13.26</course>
  <speed>14.02</speed>
  <fix>3d</fix>
</trkpt>
<trkpt lat="-27.2726659" lon="151.2900937">
  <ele>447.41</ele>
  <time>2026-09-01T19:59:06Z</time>
  <course>11.52</course>
  <speed>13.634104297679405</speed>
  <fix>3d</fix>
</trkpt>
<trkpt lat="-27.2727012" lon="151.2900854">
  <ele>447.53</ele>
  <time>2026-09-01T19:59:06Z</time>
  <course>13.26</course>
  <speed>14.02</speed>
  <fix>3d</fix>
</trkpt>
<trkpt lat="-27.272654" lon="151.2900962">
  <ele>447.39</ele>
  <time>2026-09-01T19:59:06Z</time>
  <course>10.82</course>
  <speed>13.500492583605979</speed>
  <fix>3d</fix>
</trkpt>
<trkpt lat="-27.2726769" lon="151.2900915">
  <ele>447.48</ele>
  <time>2026-09-01T19:59:06Z</time>
  <course>11.83</course>
  <speed>13.75</speed>
  <fix>3d</fix>
</trkpt>
<trkpt lat="-27.2726422" lon="151.2900986">
  <ele>447.36</ele>
  <time>2026-09-01T19:59:06Z</time>
  <course>10.11</course>
  <speed>13.370673131895792</speed>
  <fix>3d</fix>
</trkpt>
<trkpt lat="-27.2726769" lon="151.2900915">
  <ele>447.48</ele>
  <time>2026-09-01T19:59:06Z</time>
  <course>11.83</course>
  <speed>13.75</speed>
  <fix>3d</fix>
</trkpt>
<trkpt lat="-27.2726303" lon="151.2901009">
  <ele>447.34</ele>
  <time>2026-09-01T19:59:06Z</time>
  <course>9.4</course>
  <speed>13.242782940152722</speed>
  <fix>3d</fix>
</trkpt>
<trkpt lat="-27.2726529" lon="151.2900968">
  <ele>447.44</ele>
  <time>2026-09-01T19:59:06Z</time>
  <course>10.41</course>
  <speed>13.49</speed>
  <fix>3d</fix>
</trkpt>
<trkpt lat="-27.2726186" lon="151.2901029">
  <ele>447.32</ele>
  <time>2026-09-01T19:59:06Z</time>
  <course>8.69</course>
  <speed>13.10698287173673</speed>
  <fix>3d</fix>
</trkpt>
<trkpt lat="-27.2726529" lon="151.2900968">
  <ele>447.44</ele>
  <time>2026-09-01T19:59:06Z</time>
  <course>10.41</course>
  <speed>13.49</speed>
  <fix>3d</fix>
</trkpt>
<trkpt lat="-27.272607" lon="151.2901047">
  <ele>447.3</ele>
  <time>2026-09-01T19:59:06Z</time>
  <course>7.99</course>
  <speed>12.9745134783544</speed>
  <fix>3d</fix>
</trkpt>
<trkpt lat="-27.2726292" lon="151.2901013">
  <ele>447.4</ele>
  <time>2026-09-01T19:59:06Z</time>
  <course>9.0</course>
  <speed>13.24</speed>
  <fix>3d</fix>
</trkpt>
<trkpt lat="-27.2725955" lon="151.2901064">
  <ele>447.29</ele>
  <time>2026-09-01T19:59:06Z</time>
  <course>7.28</course>
  <speed>12.843870133258122</speed>
  <fix>3d</fix>
</trkpt>
<trkpt lat="-27.2726292" lon="151.2901013">
  <ele>447.4</ele>
  <time>2026-09-01T19:59:06Z</time>
  <course>9.0</course>
  <speed>13.24</speed>
  <fix>3d</fix>
</trkpt>
<trkpt lat="-27.272584" lon="151.2901079">
  <ele>447.28</ele>
  <time>2026-09-01T19:59:06Z</time>
  <course>6.58</course>
  <speed>12.715109122614717</speed>
  <fix>3d</fix>
</trkpt>
<trkpt lat="-27.2726059" lon="151.2901051">
  <ele>447.36</ele>
  <time>2026-09-01T19:59:06Z</time>
  <course>7.6</course>
  <speed>12.98</speed>
  <fix>3d</fix>
</trkpt>
<trkpt lat="-27.2725727" lon="151.2901093">
  <ele>447.27</ele>
  <time>2026-09-01T19:59:06Z</time>
  <course>5.89</course>
  <speed>12.579300457497627</speed>
  <fix>3d</fix>
</trkpt>
<trkpt lat="-27.2726059" lon="151.2901051">
  <ele>447.36</ele>
  <time>2026-09-01T19:59:06Z</time>
  <course>7.6</course>
  <speed>12.98</speed>
  <fix>3d</fix>
</trkpt>
<trkpt lat="-27.2725615" lon="151.2901104">
  <ele>447.26</ele>
  <time>2026-09-01T19:59:06Z</time>
  <course>5.21</course>
  <speed>12.445223983520746</speed>
  <fix>3d</fix>
</trkpt>
<trkpt lat="-27.272583" lon="151.2901082">
  <ele>447.33</ele>
  <time>2026-09-01T19:59:06Z</time>
  <course>6.23</course>
  <speed>12.72</speed>
  <fix>3d</fix>
</trkpt>
<trkpt lat="-27.2725504" lon="151.2901114">
  <ele>447.25</ele>
  <time>2026-09-01T19:59:06Z</time>
  <course>4.54</course>
  <speed>12.313671264086922</speed>
  <fix>3d</fix>
</trkpt>
<trkpt lat="-27.272583" lon="151.2901082">
  <ele>447.33</ele>
  <time>2026-09-01T19:59:06Z</time>
  <course>6.23</course>
  <speed>12.72</speed>
  <fix>3d</fix>
</trkpt>
<trkpt lat="-27.2725394" lon="151.2901123">
  <ele>447.25</ele>
  <time>2026-09-01T19:59:06Z</time>
  <course>3.89</course>
  <speed>12.17437472727039</speed>
  <fix>3d</fix>
</trkpt>
<trkpt lat="-27.2725605" lon="151.2901107">
  <ele>447.31</ele>
  <time>2026-09-01T19:59:06Z</time>
  <course>4.89</course>
  <speed>12.45</speed>
  <fix>3d</fix>
</trkpt>
<trkpt lat="-27.2725286" lon="151.290113">
  <ele>447.25</ele>
  <time>2026-09-01T19:59:06Z</time>
  <course>3.25</course>
  <speed>12.025992682518977</speed>
  <fix>3d</fix>
</trkpt>
<trkpt lat="-27.2725605" lon="151.2901107">
  <ele>447.31</ele>
  <time>2026-09-01T19:59:06Z</time>
  <course>4.89</course>
  <speed>12.45</speed>
  <fix>3d</fix>
</trkpt>
<trkpt lat="-27.2725178" lon="151.2901136">
  <ele>447.25</ele>
  <time>2026-09-01T19:59:06Z</time>
  <course>2.62</course>
  <speed>11.890100924718848</speed>
  <fix>3d</fix>
</trkpt>
<trkpt lat="-27.2725384" lon="151.2901126">
  <ele>447.31</ele>
  <time>2026-09-01T19:59:06Z</time>
  <course>3.58</course>
  <speed>12.18</speed>
  <fix>3d</fix>
</trkpt>
<trkpt lat="-27.2725072" lon="151.2901141">
  <ele>447.26</ele>
  <time>2026-09-01T19:59:06Z</time>
  <course>2.01</course>
  <speed>11.735522996441189</speed>
  <fix>3d</fix>
</trkpt>
<trkpt lat="-27.2725384" lon="151.2901126">
  <ele>447.31</ele>
  <time>2026-09-01T19:59:06Z</time>
  <course>3.58</course>
  <speed>12.18</speed>
  <fix>3d</fix>
</trkpt>
<trkpt lat="-27.2724967" lon="151.2901144">
  <ele>447.27</ele>
  <time>2026-09-01T19:59:06Z</time>
  <course>1.41</course>
  <speed>11.592484634451752</speed>
  <fix>3d</fix>
</trkpt>
<trkpt lat="-27.2725167" lon="151.2901139">
  <ele>447.31</ele>
  <time>2026-09-01T19:59:06Z</time>
  <course>2.32</course>
  <speed>11.9</speed>
  <fix>3d</fix>
</trkpt>
<trkpt lat="-27.2724863" lon="151.2901146">
  <ele>447.29</ele>
  <time>2026-09-01T19:59:06Z</time>
  <course>0.82</course>
  <speed>11.440629353317938</speed>
  <fix>3d</fix>
</trkpt>
<trkpt lat="-27.2725167" lon="151.2901139">
  <ele>447.31</ele>
  <time>2026-09-01T19:59:06Z</time>
  <course>2.32</course>
  <speed>11.9</speed>
  <fix>3d</fix>
</trkpt>
<trkpt lat="-27.2724761" lon="151.2901146">
  <ele>447.31</ele>
  <time>2026-09-01T19:59:06Z</time>
  <course>0.24</course>
  <speed>11.280004432623244</speed>
  <fix>3d</fix>
</trkpt>
<trkpt lat="-27.2724956" lon="151.2901145">
  <ele>447.33</ele>
  <time>2026-09-01T19:59:06Z</time>
  <course>1.12</course>
  <speed>11.61</speed>
  <fix>3d</fix>
</trkpt>
<trkpt lat="-27.2724661" lon="151.2901146">
  <ele>447.33</ele>
  <time>2026-09-01T19:59:06Z</time>
  <course>359.69</course>
  <speed>11.120364202668904</speed>
  <fix>3d</fix>
</trkpt>
<trkpt lat="-27.2724956" lon="151.2901145">
  <ele>447.33</ele>
  <time>2026-09-01T19:59:06Z</time>
  <course>1.12</course>
  <speed>11.61</speed>
  <fix>3d</fix>
</trkpt>
<trkpt lat="-27.2724562" lon="151.2901146">
  <ele>447.36</ele>
  <time>2026-09-01T19:59:06Z</time>
  <course>359.15</course>
  <speed>10.961646774093754</speed>
  <fix>3d</fix>
</trkpt>
<trkpt lat="-27.272475" lon="151.2901148">
  <ele>447.37</ele>
  <time>2026-09-01T19:59:06Z</time>
  <course>359.97</course>
  <speed>11.3</speed>
  <fix>3d</fix>
</trkpt>
<trkpt lat="-27.2724465" lon="151.2901143">
  <ele>447.39</ele>
  <time>2026-09-01T19:59:06Z</time>
  <course>358.62</course>
  <speed>10.793896423442277</speed>
  <fix>3d</fix>
</trkpt>
<trkpt lat="-27.272475" lon="151.2901148">
  <ele>447.37</ele>
  <time>2026-09-01T19:59:06Z</time>
  <course>359.97</course>
  <speed>11.3</speed>
  <fix>3d</fix>
</trkpt>
<trkpt lat="-27.2724369" lon="151.290114">
  <ele>447.42</ele>
  <time>2026-09-01T19:59:06Z</time>
  <course>358.1</course>
  <speed>10.626443431364983</speed>
  <fix>3d</fix>
</trkpt>
<trkpt lat="-27.272455" lon="151.2901147">
  <ele>447.41</ele>
  <time>2026-09-01T19:59:06Z</time>
  <course>358.88</course>
  <speed>10.99</speed>
  <fix>3d</fix>
</trkpt>
<trkpt lat="-27.2724275" lon="151.2901136">
  <ele>447.45</ele>
  <time>2026-09-01T19:59:06Z</time>
  <course>357.59</course>
  <speed>10.460119502185432</speed>
  <fix>3d</fix>
</trkpt>
<trkpt lat="-27.272455" lon="151.2901147">
  <ele>447.41</ele>
  <time>2026-09-01T19:59:06Z</time>
  <course>358.88</course>
  <speed>10.99</speed>
  <fix>3d</fix>
</trkpt>
<trkpt lat="-27.2724182" lon="151.2901131">
  <ele>447.48</ele>
  <time>2026-09-01T19:59:06Z</time>
  <course>357.1</course>
  <speed>10.283666661264355</speed>
  <fix>3d</fix>
</trkpt>
<trkpt lat="-27.2724356" lon="151.290114">
  <ele>447.47</ele>
  <time>2026-09-01T19:59:06Z</time>
  <course>357.85</course>
  <speed>10.66</speed>
  <fix>3d</fix>
</trkpt>
<trkpt lat="-27.2724091" lon="151.2901125">
  <ele>447.51</ele>
  <time>2026-09-01T19:59:06Z</time>
  <course>356.63</course>
  <speed>10.118404024350877</speed>
  <fix>3d</fix>
</trkpt>
<trkpt lat="-27.2724356" lon="151.290114">
  <ele>447.47</ele>
  <time>2026-09-01T19:59:06Z</time>
  <course>357.85</course>
  <speed>10.66</speed>
  <fix>3d</fix>
</trkpt>
<trkpt lat="-27.2724001" lon="151.2901119">
  <ele>447.55</ele>
  <time>2026-09-01T19:59:06Z</time>
  <course>356.16</course>
  <speed>9.942600263512558</speed>
  <fix>3d</fix>
</trkpt>
<trkpt lat="-27.2724167" lon="151.290113">
  <ele>447.53</ele>
  <time>2026-09-01T19:59:06Z</time>
  <course>356.87</course>
  <speed>10.33</speed>
  <fix>3d</fix>
</trkpt>
<trkpt lat="-27.2723913" lon="151.2901112">
  <ele>447.58</ele>
  <time>2026-09-01T19:59:06Z</time>
  <course>355.71</course>
  <speed>9.768070433816497</speed>
  <fix>3d</fix>
</trkpt>
<trkpt lat="-27.2724167" lon="151.290113">
  <ele>447.53</ele>
  <time>2026-09-01T19:59:06Z</time>
  <course>356.87</course>
  <speed>10.33</speed>
  <fix>3d</fix>
</trkpt>
<trkpt lat="-27.2723825" lon="151.2901104">
  <ele>447.62</ele>
  <time>2026-09-01T19:59:06Z</time>
  <course>355.28</course>
  <speed>9.592585678533187</speed>
  <fix>3d</fix>
</trkpt>
<trkpt lat="-27.2723985" lon="151.2901117">
  <ele>447.6</ele>
  <time>2026-09-01T19:59:06Z</time>
  <course>355.95</course>
  <speed>9.99</speed>
  <fix>3d</fix>
</trkpt>
<trkpt lat="-27.2723738" lon="151.2901095">
  <ele>447.66</ele>
  <time>2026-09-01T19:59:06Z</time>
  <course>354.85</course>
  <speed>9.418434052431433</speed>
  <fix>3d</fix>
</trkpt>
<trkpt lat="-27.2723985" lon="151.2901117">
  <ele>447.6</ele>
  <time>2026-09-01T19:59:06Z</time>
  <course>355.95</course>
  <speed>9.99</speed>
  <fix>3d</fix>
</trkpt>
<trkpt lat="-27.2723654" lon="151.2901086">
  <ele>447.7</ele>
  <time>2026-09-01T19:59:06Z</time>
  <course>354.44</course>
  <speed>9.232995180330162</speed>
  <fix>3d</fix>
</trkpt>
<trkpt lat="-27.2723809" lon="151.2901102">
  <ele>447.67</ele>
  <time>2026-09-01T19:59:06Z</time>
  <course>355.08</course>
  <speed>9.64</speed>
  <fix>3d</fix>
</trkpt>
<trkpt lat="-27.2723572" lon="151.2901077">
  <ele>447.74</ele>
  <time>2026-09-01T19:59:06Z</time>
  <course>354.04</course>
  <speed>9.058901699433546</speed>
  <fix>3d</fix>
</trkpt>
<trkpt lat="-27.2723809" lon="151.2901102">
  <ele>447.67</ele>
  <time>2026-09-01T19:59:06Z</time>
  <course>355.08</course>
  <speed>9.64</speed>
  <fix>3d</fix>
</trkpt>
<trkpt lat="-27.2723491" lon="151.2901067">
  <ele>447.77</ele>
  <time>2026-09-01T19:59:06Z</time>
  <course>353.66</course>
  <speed>8.873178686355864</speed>
  <fix>3d</fix>
</trkpt>
<trkpt lat="-27.2723639" lon="151.2901085">
  <ele>447.75</ele>
  <time>2026-09-01T19:59:06Z</time>
  <course>354.27</course>
  <speed>9.28</speed>
  <fix>3d</fix>
</trkpt>
<trkpt lat="-27.2723412" lon="151.2901057">
  <ele>447.81</ele>
  <time>2026-09-01T19:59:06Z</time>
  <course>353.3</course>
  <speed>8.688900966175181</speed>
  <fix>3d</fix>
</trkpt>
<trkpt lat="-27.2723639" lon="151.2901085">
  <ele>447.75</ele>
  <time>2026-09-01T19:59:06Z</time>
  <course>354.27</course>
  <speed>9.28</speed>
  <fix>3d</fix>
</trkpt>
<trkpt lat="-27.2723334" lon="151.2901046">
  <ele>447.84</ele>
  <time>2026-09-01T19:59:06Z</time>
  <course>352.94</course>
  <speed>8.503834429244257</speed>
  <fix>3d</fix>
</trkpt>
<trkpt lat="-27.2723477" lon="151.2901065">
  <ele>447.82</ele>
  <time>2026-09-01T19:59:06Z</time>
  <course>353.51</course>
  <speed>8.92</speed>
  <fix>3d</fix>
</trkpt>
<trkpt lat="-27.2723258" lon="151.2901036">
  <ele>447.88</ele>
  <time>2026-09-01T19:59:06Z</time>
  <course>352.61</course>
  <speed>8.31781822354877</speed>
  <fix>3d</fix>
</trkpt>
<trkpt lat="-27.2723477" lon="151.2901065">
  <ele>447.82</ele>
  <time>2026-09-01T19:59:06Z</time>
  <course>353.51</course>
  <speed>8.92</speed>
  <fix>3d</fix>
</trkpt>
<trkpt lat="-27.2723184" lon="151.2901025">
  <ele>447.91</ele>
  <time>2026-09-01T19:59:06Z</time>
  <course>352.28</course>
  <speed>8.13203541556479</speed>
  <fix>3d</fix>
</trkpt>
<trkpt lat="-27.2723321" lon="151.2901044">
  <ele>447.89</ele>
  <time>2026-09-01T19:59:06Z</time>
  <course>352.81</course>
  <speed>8.55</speed>
  <fix>3d</fix>
</trkpt>
<trkpt lat="-27.2723112" lon="151.2901013">
  <ele>447.94</ele>
  <time>2026-09-01T19:59:06Z</time>
  <course>351.98</course>
  <speed>7.945124291035352</speed>
  <fix>3d</fix>
</trkpt>
<trkpt lat="-27.2723321" lon="151.2901044">
  <ele>447.89</ele>
  <time>2026-09-01T19:59:06Z</time>
  <course>352.81</course>
  <speed>8.55</speed>
  <fix>3d</fix>
</trkpt>
<trkpt lat="-27.2723042" lon="151.2901002">
  <ele>447.96</ele>
  <time>2026-09-01T19:59:06Z</time>
  <course>351.68</course>
  <speed>7.749903225202234</speed>
  <fix>3d</fix>
</trkpt>
<trkpt lat="-27.2723172" lon="151.2901021">
  <ele>447.96</ele>
  <time>2026-09-01T19:59:06Z</time>
  <course>352.16</course>
  <speed>8.17</speed>
  <fix>3d</fix>
</trkpt>
<trkpt lat="-27.2722974" lon="151.2900991">
  <ele>447.98</ele>
  <time>2026-09-01T19:59:06Z</time>
  <course>351.4</course>
  <speed>7.5619111340983105</speed>
  <fix>3d</fix>
</trkpt>
<trkpt lat="-27.2723172" lon="151.2901021">
  <ele>447.96</ele>
  <time>2026-09-01T19:59:06Z</time>
  <course>352.16</course>
  <speed>8.17</speed>
  <fix>3d</fix>
</trkpt>
<trkpt lat="-27.2722907" lon="151.2900979">
  <ele>448.01</ele>
  <time>2026-09-01T19:59:06Z</time>
  <course>351.13</course>
  <speed>7.365650005260907</speed>
  <fix>3d</fix>
</trkpt>
<trkpt lat="-27.272303" lon="151.2900999">
  <ele>448.02</ele>
  <time>2026-09-01T19:59:06Z</time>
  <course>351.58</course>
  <speed>7.79</speed>
  <fix>3d</fix>
</trkpt>
<trkpt lat="-27.2722842" lon="151.2900968">
  <ele>448.02</ele>
  <time>2026-09-01T19:59:06Z</time>
  <course>350.87</course>
  <speed>7.177917525299382</speed>
  <fix>3d</fix>
</trkpt>
<trkpt lat="-27.272303" lon="151.2900999">
  <ele>448.02</ele>
  <time>2026-09-01T19:59:06Z</time>
  <course>351.58</course>
  <speed>7.79</speed>
  <fix>3d</fix>
</trkpt>
<trkpt lat="-27.2722779" lon="151.2900956">
  <ele>448.03</ele>
  <time>2026-09-01T19:59:06Z</time>
  <course>350.63</course>
  <speed>6.988712327746794</speed>
  <fix>3d</fix>
</trkpt>
<trkpt lat="-27.2722895" lon="151.2900976">
  <ele>448.07</ele>
  <time>2026-09-01T19:59:06Z</time>
  <course>351.05</course>
  <speed>7.41</speed>
  <fix>3d</fix>
</trkpt>
<trkpt lat="-27.2722718" lon="151.2900945">
  <ele>448.04</ele>
  <time>2026-09-01T19:59:06Z</time>
  <course>350.42</course>
  <speed>6.79956616263126</speed>
  <fix>3d</fix>
</trkpt>
<trkpt lat="-27.2722895" lon="151.2900976">
  <ele>448.07</ele>
  <time>2026-09-01T19:59:06Z</time>
  <course>351.05</course>
  <speed>7.41</speed>
  <fix>3d</fix>
</trkpt>
<trkpt lat="-27.2722659" lon="151.2900934">
  <ele>448.03</ele>
  <time>2026-09-01T19:59:06Z</time>
  <course>350.22</course>
  <speed>6.6104840972503665</speed>
  <fix>3d</fix>
</trkpt>
<trkpt lat="-27.2722767" lon="151.2900953">
  <ele>448.09</ele>
  <time>2026-09-01T19:59:06Z</time>
  <course>350.6</course>
  <speed>7.02</speed>
  <fix>3d</fix>
</trkpt>
<trkpt lat="-27.2722601" lon="151.2900923">
  <ele>447.98</ele>
  <time>2026-09-01T19:59:06Z</time>
  <course>350.04</course>
  <speed>6.388552261663044</speed>
  <fix>3d</fix>
</trkpt>
<trkpt lat="-27.2722767" lon="151.2900953">
  <ele>448.09</ele>
  <time>2026-09-01T19:59:06Z</time>
  <course>350.6</course>
  <speed>7.02</speed>
  <fix>3d</fix>
</trkpt>
<trkpt lat="-27.2722546" lon="151.2900912">
  <ele>447.84</ele>
  <time>2026-09-01T19:59:06Z</time>
  <course>349.88</course>
  <speed>6.094276002939151</speed>
  <fix>3d</fix>
</trkpt>
<trkpt lat="-27.2722646" lon="151.290093">
  <ele>448.08</ele>
  <time>2026-09-01T19:59:06Z</time>
  <course>350.3</course>
  <speed>6.63</speed>
  <fix>3d</fix>
</trkpt>
<trkpt lat="-27.2722493" lon="151.2900902">
  <ele>447.63</ele>
  <time>2026-09-01T19:59:06Z</time>
  <course>349.74</course>
  <speed>5.73097722905963</speed>
  <fix>3d</fix>
</trkpt>
<trkpt lat="-27.2722646" lon="151.290093">
  <ele>448.08</ele>
  <time>2026-09-01T19:59:06Z</time>
  <course>350.3</course>
  <speed>6.63</speed>
  <fix>3d</fix>
</trkpt>
<trkpt lat="-27.2722444" lon="151.2900892">
  <ele>447.37</ele>
  <time>2026-09-01T19:59:06Z</time>
  <course>349.56</course>
  <speed>5.275613708375548</speed>
  <fix>3d</fix>
</trkpt>
<trkpt lat="-27.2722533" lon="151.2900907">
  <ele>447.88</ele>
  <time>2026-09-01T19:59:06Z</time>
  <course>350.15</course>
  <speed>6.1</speed>
  <fix>3d</fix>
</trkpt>
<trkpt lat="-27.2722399" lon="151.2900883">
  <ele>447.06</ele>
  <time>2026-09-01T19:59:06Z</time>
  <course>349.32</course>
  <speed>4.761144820313702</speed>
  <fix>3d</fix>
</trkpt>
<trkpt lat="-27.2722533" lon="151.2900907">
  <ele>447.88</ele>
  <time>2026-09-01T19:59:06Z</time>
  <course>350.15</course>
  <speed>6.1</speed>
  <fix>3d</fix>
</trkpt>
<trkpt lat="-27.2722358" lon="151.2900875">
  <ele>446.74</ele>
  <time>2026-09-01T19:59:06Z</time>
  <course>349.01</course>
  <speed>4.225304722738941</speed>
  <fix>3d</fix>
</trkpt>
<trkpt lat="-27.2722432" lon="151.2900887">
  <ele>447.43</ele>
  <time>2026-09-01T19:59:06Z</time>
  <course>349.96</course>
  <speed>5.29</speed>
  <fix>3d</fix>
</trkpt>
<trkpt lat="-27.2722323" lon="151.2900867">
  <ele>446.39</ele>
  <time>2026-09-01T19:59:06Z</time>
  <course>348.63</course>
  <speed>3.6716481312892717</speed>
  <fix>3d</fix>
</trkpt>
<trkpt lat="-27.2722432" lon="151.2900887">
  <ele>447.43</ele>
  <time>2026-09-01T19:59:06Z</time>
  <course>349.96</course>
  <speed>5.29</speed>
  <fix>3d</fix>
</trkpt>
<trkpt lat="-27.2722292" lon="151.2900861">
  <ele>446.05</ele>
  <time>2026-09-01T19:59:06Z</time>
  <course>348.2</course>
  <speed>3.1477134558278963</speed>
  <fix>3d</fix>
</trkpt>
<trkpt lat="-27.2722347" lon="151.2900871">
  <ele>446.82</ele>
  <time>2026-09-01T19:59:06Z</time>
  <course>349.5</course>
  <speed>4.26</speed>
  <fix>3d</fix>
</trkpt>
<trkpt lat="-27.2722266" lon="151.2900855">
  <ele>445.7</ele>
  <time>2026-09-01T19:59:06Z</time>
  <course>347.75</course>
  <speed>2.6359059163786553</speed>
  <fix>3d</fix>
</trkpt>
<trkpt lat="-27.2722347" lon="151.2900871">
  <ele>446.82</ele>
  <time>2026-09-01T19:59:06Z</time>
  <course>349.5</course>
  <speed>4.26</speed>
  <fix>3d</fix>
</trkpt>
<trkpt lat="-27.2722244" lon="151.2900849">
  <ele>445.36</ele>
  <time>2026-09-01T19:59:06Z</time>
  <course>347.28</course>
  <speed>2.175890622251036</speed>
  <fix>3d</fix>
</trkpt>
<trkpt lat="-27.2722282" lon="151.2900856">
  <ele>446.14</ele>
  <time>2026-09-01T19:59:06Z</time>
  <course>348.48</course>
  <speed>3.19</speed>
  <fix>3d</fix>
</trkpt>
<trkpt lat="-27.2722226" lon="151.2900844">
  <ele>445.04</ele>
  <time>2026-09-01T19:59:06Z</time>
  <course>346.82</course>
  <speed>1.768219443394965</speed>
  <fix>3d</fix>
</trkpt>
<trkpt lat="-27.2722282" lon="151.2900856">
  <ele>446.14</ele>
  <time>2026-09-01T19:59:06Z</time>
  <course>348.48</course>
  <speed>3.19</speed>
  <fix>3d</fix>
</trkpt>
<trkpt lat="-27.2722211" lon="151.2900839">
  <ele>444.73</ele>
  <time>2026-09-01T19:59:06Z</time>
  <course>346.37</course>
  <speed>1.4138246001537815</speed>
  <fix>3d</fix>
</trkpt>
<trkpt lat="-27.2722234" lon="151.2900845">
  <ele>445.47</ele>
  <time>2026-09-01T19:59:06Z</time>
  <course>346.34</course>
  <speed>2.23</speed>
  <fix>3d</fix>
</trkpt>
<trkpt lat="-27.27222" lon="151.2900834">
  <ele>444.43</ele>
  <time>2026-09-01T19:59:06Z</time>
  <course>345.94</course>
  <speed>1.104943437466371</speed>
  <fix>3d</fix>
</trkpt>
<trkpt lat="-27.2722234" lon="151.2900845">
  <ele>445.47</ele>
  <time>2026-09-01T19:59:06Z</time>
  <course>346.34</course>
  <speed>2.23</speed>
  <fix>3d</fix>
</trkpt>
<trkpt lat="-27.2722191" lon="151.290083">
  <ele>444.17</ele>
  <time>2026-09-01T19:59:06Z</time>
  <course>345.56</course>
  <speed>0.8586617494683223</speed>
  <fix>3d</fix>
</trkpt>
<trkpt lat="-27.2722203" lon="151.2900835">
  <ele>444.84</ele>
  <time>2026-09-01T19:59:06Z</time>
  <course>341.93</course>
  <speed>1.45</speed>
  <fix>3d</fix>
</trkpt>
<trkpt lat="-27.2722185" lon="151.2900826">
  <ele>443.92</ele>
  <time>2026-09-01T19:59:06Z</time>
  <course>345.25</course>
  <speed>0.660302960768767</speed>
  <fix>3d</fix>
</trkpt>
<trkpt lat="-27.2722203" lon="151.2900835">
  <ele>444.84</ele>
  <time>2026-09-01T19:59:06Z</time>
  <course>341.93</course>
  <speed>1.45</speed>
  <fix>3d</fix>
</trkpt>
<trkpt lat="-27.272218" lon="151.2900822">
  <ele>443.7</ele>
  <time>2026-09-01T19:59:06Z</time>
  <course>345.05</course>
  <speed>0.5303772242470448</speed>
  <fix>3d</fix>
</trkpt>
<trkpt lat="-27.2722184" lon="151.2900826">
  <ele>444.28</ele>
  <time>2026-09-01T19:59:06Z</time>
  <course>332.53</course>
  <speed>0.89</speed>
  <fix>3d</fix>
</trkpt>
<trkpt lat="-27.2722177" lon="151.2900818">
  <ele>443.5</ele>
  <time>2026-09-01T19:59:06Z</time>
  <course>345.0</course>
  <speed>0.4477722635447622</speed>
  <fix>3d</fix>
</trkpt>
<trkpt lat="-27.2722184" lon="151.2900826">
  <ele>444.28</ele>
  <time>2026-09-01T19:59:06Z</time>
  <course>332.53</course>
  <speed>0.89</speed>
  <fix>3d</fix>
</trkpt>
<trkpt lat="-27.2722175" lon="151.2900813">
  <ele>443.33</ele>
  <time>2026-09-01T19:59:06Z</time>
  <course>345.14</course>
  <speed>0.4026164427839479</speed>
  <fix>3d</fix>
</trkpt>
<trkpt lat="-27.2722173" lon="151.2900818">
  <ele>443.82</ele>
  <time>2026-09-01T19:59:06Z</time>
  <course>313.02</course>
  <speed>0.55</speed>
  <fix>3d</fix>
</trkpt>
<trkpt lat="-27.2722174" lon="151.2900809">
  <ele>443.19</ele>
  <time>2026-09-01T19:59:06Z</time>
  <course>345.48</course>
  <speed>0.4</speed>
  <fix>3d</fix>
</trkpt>
<trkpt lat="-27.2722173" lon="151.2900818">
  <ele>443.82</ele>
  <time>2026-09-01T19:59:06Z</time>
  <course>313.02</course>
  <speed>0.55</speed>
  <fix>3d</fix>
</trkpt>
<trkpt lat="-27.2722174" lon="151.2900805">
  <ele>443.08</ele>
  <time>2026-09-01T19:59:06Z</time>
  <course>346.02</course>
  <speed>0.4197618372363071</speed>
  <fix>3d</fix>
</trkpt>
<trkpt lat="-27.2722169" lon="151.2900809">
  <ele>443.47</ele>
  <time>2026-09-01T19:59:06Z</time>
  <course>282.62</course>
  <speed>0.42</speed>
  <fix>3d</fix>
</trkpt>
<trkpt lat="-27.2722175" lon="151.29008">
  <ele>443.0</ele>
  <time>2026-09-01T19:59:06Z</time>
  <course>346.72</course>
  <speed>0.45694638635183454</speed>
  <fix>3d</fix>
</trkpt>
<trkpt lat="-27.2722169" lon="151.2900809">
  <ele>443.47</ele>
  <time>2026-09-01T19:59:06Z</time>
  <course>282.62</course>
  <speed>0.42</speed>
  <fix>3d</fix>
</trkpt>
<trkpt lat="-27.2722176" lon="151.2900796">
  <ele>442.94</ele>
  <time>2026-09-01T19:59:06Z</time>
  <course>347.49</course>
  <speed>0.48877397639399744</speed>
  <fix>3d</fix>
</trkpt>
<trkpt lat="-27.272217" lon="151.2900801">
  <ele>443.22</ele>
  <time>2026-09-01T19:59:06Z</time>
  <course>254.94</course>
  <speed>0.44</speed>
  <fix>3d</fix>
</trkpt>
<trkpt lat="-27.2722178" lon="151.2900791">
  <ele>442.91</ele>
  <time>2026-09-01T19:59:06Z</time>
  <course>348.24</course>
  <speed>0.5243090691567331</speed>
  <fix>3d</fix>
</trkpt>
<trkpt lat="-27.272217" lon="151.2900801">
  <ele>443.22</ele>
  <time>2026-09-01T19:59:06Z</time>
  <course>254.94</course>
  <speed>0.44</speed>
  <fix>3d</fix>
</trkpt>
<trkpt lat="-27.2722181" lon="151.2900787">
  <ele>442.9</ele>
  <time>2026-09-01T19:59:06Z</time>
  <course>348.88</course>
  <speed>0.5360037313302959</speed>
  <fix>3d</fix>
</trkpt>
<trkpt lat="-27.2722173" lon="151.2900792">
  <ele>443.09</ele>
  <time>2026-09-01T19:59:06Z</time>
  <course>238.53</course>
  <speed>0.51</speed>
  <fix>3d</fix>
</trkpt>
<trkpt lat="-27.2722184" lon="151.2900782">
  <ele>442.91</ele>
  <time>2026-09-01T19:59:06Z</time>
  <course>349.32</course>
  <speed>0.5403702434442519</speed>
  <fix>3d</fix>
</trkpt>
<trkpt lat="-27.2722173" lon="151.2900792">
  <ele>443.09</ele>
  <time>2026-09-01T19:59:06Z</time>
  <course>238.53</course>
  <speed>0.51</speed>
  <fix>3d</fix>
</trkpt>
<trkpt lat="-27.2722186" lon="151.2900778">
  <ele>442.94</ele>
  <time>2026-09-01T19:59:06Z</time>
  <course>349.53</course>
  <speed>0.5456189146281496</speed>
  <fix>3d</fix>
</trkpt>
<trkpt lat="-27.2722178" lon="151.2900783">
  <ele>443.05</ele>
  <time>2026-09-01T19:59:06Z</time>
  <course>231.2</course>
  <speed>0.57</speed>
  <fix>3d</fix>
</trkpt>
<trkpt lat="-27.2722189" lon="151.2900773">
  <ele>442.97</ele>
  <time>2026-09-01T19:59:06Z</time>
  <course>349.54</course>
  <speed>0.5448853090330111</speed>
  <fix>3d</fix>
</trkpt>
<trkpt lat="-27.2722178" lon="151.2900783">
  <ele>443.05</ele>
  <time>2026-09-01T19:59:06Z</time>
  <course>231.2</course>
  <speed>0.57</speed>
  <fix>3d</fix>
</trkpt>
<trkpt lat="-27.2722192" lon="151.2900769">
  <ele>443.0</ele>
  <time>2026-09-01T19:59:06Z</time>
  <course>349.38</course>
  <speed>0.530754180388624</speed>
  <fix>3d</fix>
</trkpt>
<trkpt lat="-27.2722184" lon="151.2900774">
  <ele>443.08</ele>
  <time>2026-09-01T19:59:06Z</time>
  <course>227.74</course>
  <speed>0.58</speed>
  <fix>3d</fix>
</trkpt>
<trkpt lat="-27.2722195" lon="151.2900765">
  <ele>443.04</ele>
  <time>2026-09-01T19:59:06Z</time>
  <course>349.13</course>
  <speed>0.5162363799656123</speed>
  <fix>3d</fix>
</trkpt>
<trkpt lat="-27.2722184" lon="151.2900774">
  <ele>443.08</ele>
  <time>2026-09-01T19:59:06Z</time>
  <course>227.74</course>
  <speed>0.58</speed>
  <fix>3d</fix>
</trkpt>
<trkpt lat="-27.2722198" lon="151.2900761">
  <ele>443.08</ele>
  <time>2026-09-01T19:59:06Z</time>
  <course>348.86</course>
  <speed>0.48795491595023405</speed>
  <fix>3d</fix>
</trkpt>
<trkpt lat="-27.2722191" lon="151.2900766">
  <ele>443.14</ele>
  <time>2026-09-01T19:59:06Z</time>
  <course>225.32</course>
  <speed>0.56</speed>
  <fix>3d</fix>
</trkpt>
<trkpt lat="-27.2722201" lon="151.2900757">
  <ele>443.11</ele>
  <time>2026-09-01T19:59:06Z</time>
  <course>348.62</course>
  <speed>0.4669047011971501</speed>
  <fix>3d</fix>
</trkpt>
<trkpt lat="-27.2722191" lon="151.2900766">
  <ele>443.14</ele>
  <time>2026-09-01T19:59:06Z</time>
  <course>225.32</course>
  <speed>0.56</speed>
  <fix>3d</fix>
</trkpt>
<trkpt lat="-27.2722204" lon="151.2900754">
  <ele>443.14</ele>
  <time>2026-09-01T19:59:06Z</time>
  <course>348.47</course>
  <speed>0.4386342439892262</speed>
  <fix>3d</fix>
</trkpt>
<trkpt lat="-27.2722198" lon="151.2900758">
  <ele>443.21</ele>
  <time>2026-09-01T19:59:06Z</time>
  <course>224.48</course>
  <speed>0.53</speed>
  <fix>3d</fix>
</trkpt>
<trkpt lat="-27.2722207" lon="151.290075">
  <ele>443.16</ele>
  <time>2026-09-01T19:59:06Z</time>
  <course>348.4</course>
  <speed>0.41109609582188933</speed>
  <fix>3d</fix>
</trkpt>
<trkpt lat="-27.2722198" lon="151.2900758">
  <ele>443.21</ele>
  <time>2026-09-01T19:59:06Z</time>
  <course>224.48</course>
  <speed>0.53</speed>
  <fix>3d</fix>
</trkpt>
<trkpt lat="-27.2722209" lon="151.2900747">
  <ele>443.18</ele>
  <time>2026-09-01T19:59:06Z</time>
  <course>348.44</course>
  <speed>0.3764306044943742</speed>
  <fix>3d</fix>
</trkpt>
<trkpt lat="-27.2722205" lon="151.2900751">
  <ele>443.28</ele>
  <time>2026-09-01T19:59:06Z</time>
  <course>225.43</course>
  <speed>0.47</speed>
  <fix>3d</fix>
</trkpt>
<trkpt lat="-27.2722211" lon="151.2900744">
  <ele>443.19</ele>
  <time>2026-09-01T19:59:06Z</time>
  <course>348.55</course>
  <speed>0.34409301068170506</speed>
  <fix>3d</fix>
</trkpt>
<trkpt lat="-27.2722205" lon="151.2900751">
  <ele>443.28</ele>
  <time>2026-09-01T19:59:06Z</time>
  <course>225.43</course>
  <speed>0.47</speed>
  <fix>3d</fix>
</trkpt>
<trkpt lat="-27.2722213" lon="151.2900741">
  <ele>443.2</ele>
  <time>2026-09-01T19:59:07Z</time>
  <course>348.72</course>
  <speed>0.30016662039607267</speed>
  <fix>3d</fix>
</trkpt>
<trkpt lat="-27.272221" lon="151.2900744">
  <ele>443.32</ele>
  <time>2026-09-01T19:59:07Z</time>
  <course>228.81</course>
  <speed>0.41</speed>
  <fix>3d</fix>
</trkpt>
<trkpt lat="-27.2722214" lon="151.2900738">
  <ele>443.2</ele>
  <time>2026-09-01T19:59:07Z</time>
  <course>348.92</course>
  <speed>0.27313000567495327</speed>
  <fix>3d</fix>
</trkpt>
<trkpt lat="-27.272221" lon="151.2900744">
  <ele>443.32</ele>
  <time>2026-09-01T19:59:07Z</time>
  <course>228.81</course>
  <speed>0.41</speed>
  <fix>3d</fix>
</trkpt>
<trkpt lat="-27.2722215" lon="151.2900735">
  <ele>443.19</ele>
  <time>2026-09-01T19:59:07Z</time>
  <course>349.1</course>
  <speed>0.23769728648009425</speed>
  <fix>3d</fix>
</trkpt>
<trkpt lat="-27.2722215" lon="151.2900738">
  <ele>443.33</ele>
  <time>2026-09-01T19:59:07Z</time>
  <course>236.23</course>
  <speed>0.33</speed>
  <fix>3d</fix>
</trkpt>
<trkpt lat="-27.2722215" lon="151.2900733">
  <ele>443.18</ele>
  <time>2026-09-01T19:59:07Z</time>
  <course>349.26</course>
  <speed>0.22022715545545238</speed>
  <fix>3d</fix>
</trkpt>
<trkpt lat="-27.2722215" lon="151.2900738">
  <ele>443.33</ele>
  <time>2026-09-01T19:59:07Z</time>
  <course>236.23</course>
  <speed>0.33</speed>
  <fix>3d</fix>
</trkpt>
<trkpt lat="-27.2722216" lon="151.290073">
  <ele>443.17</ele>
  <time>2026-09-01T19:59:07Z</time>
  <course>349.37</course>
  <speed>0.20223748416156684</speed>
  <fix>3d</fix>
</trkpt>
<trkpt lat="-27.2722217" lon="151.2900733">
  <ele>443.32</ele>
  <time>2026-09-01T19:59:07Z</time>
  <course>249.62</course>
  <speed>0.26</speed>
  <fix>3d</fix>
</trkpt>
<trkpt lat="-27.2722215" lon="151.2900728">
  <ele>443.16</ele>
  <time>2026-09-01T19:59:07Z</time>
  <course>349.43</course>
  <speed>0.20615528128088303</speed>
  <fix>3d</fix>
</trkpt>
<trkpt lat="-27.2722217" lon="151.2900733">
  <ele>443.32</ele>
  <time>2026-09-01T19:59:07Z</time>
  <course>249.62</course>
  <speed>0.26</speed>
  <fix>3d</fix>
</trkpt>
<trkpt lat="-27.2722214" lon="151.2900726">
  <ele>443.14</ele>
  <time>2026-09-01T19:59:07Z</time>
  <course>349.44</course>
  <speed>0.22022715545545238</speed>
  <fix>3d</fix>
</trkpt>
<trkpt lat="-27.2722218" lon="151.2900728">
  <ele>443.29</ele>
  <time>2026-09-01T19:59:07Z</time>
  <course>272.84</course>
  <speed>0.21</speed>
  <fix>3d</fix>
</trkpt>
<trkpt lat="-27.2722213" lon="151.2900724">
  <ele>443.12</ele>
  <time>2026-09-01T19:59:07Z</time>
  <course>349.41</course>
  <speed>0.2640075756488817</speed>
  <fix>3d</fix>
</trkpt>
<trkpt lat="-27.2722218" lon="151.2900728">
  <ele>443.29</ele>
  <time>2026-09-01T19:59:07Z</time>
  <course>272.84</course>
  <speed>0.21</speed>
  <fix>3d</fix>
</trkpt>
<trkpt lat="-27.2722212" lon="151.2900723">
  <ele>443.1</ele>
  <time>2026-09-01T19:59:07Z</time>
  <course>349.37</course>
  <speed>0.30886890422961</speed>
  <fix>3d</fix>
</trkpt>
<trkpt lat="-27.2722217" lon="151.2900724">
  <ele>443.26</ele>
  <time>2026-09-01T19:59:07Z</time>
  <course>304.53</course>
  <speed>0.22</speed>
  <fix>3d</fix>
</trkpt>
<trkpt lat="-27.2722209" lon="151.2900721">
  <ele>443.09</ele>
  <time>2026-09-01T19:59:07Z</time>
  <course>349.32</course>
  <speed>0.3676955262170047</speed>
  <fix>3d</fix>
</trkpt>
<trkpt lat="-27.2722217" lon="151.2900724">
  <ele>443.26</ele>
  <time>2026-09-01T19:59:07Z</time>
  <course>304.53</course>
  <speed>0.22</speed>
  <fix>3d</fix>
</trkpt>
<trkpt lat="-27.2722206" lon="151.2900719">
  <ele>443.08</ele>
  <time>2026-09-01T19:59:07Z</time>
  <course>349.27</course>
  <speed>0.4301162633521314</speed>
  <fix>3d</fix>
</trkpt>
<trkpt lat="-27.2722214" lon="151.290072">
  <ele>443.22</ele>
  <time>2026-09-01T19:59:07Z</time>
  <course>328.13</course>
  <speed>0.31</speed>
  <fix>3d</fix>
</trkpt>
<trkpt lat="-27.2722202" lon="151.2900718">
  <ele>443.06</ele>
  <time>2026-09-01T19:59:07Z</time>
  <course>349.24</course>
  <speed>0.49477267507411926</speed>
  <fix>3d</fix>
</trkpt>
<trkpt lat="-27.2722214" lon="151.290072">
  <ele>443.22</ele>
  <time>2026-09-01T19:59:07Z</time>
  <course>328.13</course>
  <speed>0.31</speed>
  <fix>3d</fix>
</trkpt>
<trkpt lat="-27.2722198" lon="151.2900716">
  <ele>443.05</ele>
  <time>2026-09-01T19:59:07Z</time>
  <course>349.23</course>
  <speed>0.570701322935211</speed>
  <fix>3d</fix>
</trkpt>
<trkpt lat="-27.2722208" lon="151.2900717">
  <ele>443.19</ele>
  <time>2026-09-01T19:59:07Z</time>
  <course>340.6</course>
  <speed>0.43</speed>
  <fix>3d</fix>
</trkpt>
<trkpt lat="-27.2722193" lon="151.2900715">
  <ele>443.05</ele>
  <time>2026-09-01T19:59:07Z</time>
  <course>349.23</course>
  <speed>0.6296824596572467</speed>
  <fix>3d</fix>
</trkpt>
<trkpt lat="-27.2722208" lon="151.2900717">
  <ele>443.19</ele>
  <time>2026-09-01T19:59:07Z</time>
  <course>340.6</course>
  <speed>0.43</speed>
  <fix>3d</fix>
</trkpt>
<trkpt lat="-27.2722187" lon="151.2900714">
  <ele>443.04</ele>
  <time>2026-09-01T19:59:07Z</time>
  <course>349.24</course>
  <speed>0.6972087205421343</speed>
  <fix>3d</fix>
</trkpt>
<trkpt lat="-27.27222" lon="151.2900715">
  <ele>443.17</ele>
  <time>2026-09-01T19:59:07Z</time>
  <course>347.06</course>
  <speed>0.56</speed>
  <fix>3d</fix>
</trkpt>
<trkpt lat="-27.2722181" lon="151.2900713">
  <ele>443.04</ele>
  <time>2026-09-01T19:59:07Z</time>
  <course>349.27</course>
  <speed>0.766550715869472</speed>
  <fix>3d</fix>
</trkpt>
<trkpt lat="-27.27222" lon="151.2900715">
  <ele>443.17</ele>
  <time>2026-09-01T19:59:07Z</time>
  <course>347.06</course>
  <speed>0.56</speed>
  <fix>3d</fix>
</trkpt>
<trkpt lat="-27.2722174" lon="151.2900712">
  <ele>443.05</ele>
  <time>2026-09-01T19:59:07Z</time>
  <course>349.3</course>
  <speed>0.8249242389456137</speed>
  <fix>3d</fix>
</trkpt>
<trkpt lat="-27.2722188" lon="151.2900713">
  <ele>443.16</ele>
  <time>2026-09-01T19:59:07Z</time>
  <course>350.62</course>
  <speed>0.7</speed>
  <fix>3d</fix>
</trkpt>
<trkpt lat="-27.2722166" lon="151.2900711">
  <ele>443.05</ele>
  <time>2026-09-01T19:59:07Z</time>
  <course>349.33</course>
  <speed>0.8845903006477066</speed>
  <fix>3d</fix>
</trkpt>
<trkpt lat="-27.2722188" lon="151.2900713">
  <ele>443.16</ele>
  <time>2026-09-01T19:59:07Z</time>
  <course>350.62</course>
  <speed>0.7</speed>
  <fix>3d</fix>
</trkpt>
<trkpt lat="-27.2722158" lon="151.2900709">
  <ele>443.05</ele>
  <time>2026-09-01T19:59:07Z</time>
  <course>349.36</course>
  <speed>0.9442986815621421</speed>
  <fix>3d</fix>
</trkpt>
<trkpt lat="-27.2722174" lon="151.290071">
  <ele>443.16</ele>
  <time>2026-09-01T19:59:07Z</time>
  <course>352.68</course>
  <speed>0.83</speed>
  <fix>3d</fix>
</trkpt>
<trkpt lat="-27.272215" lon="151.2900708">
  <ele>443.06</ele>
  <time>2026-09-01T19:59:07Z</time>
  <course>349.38</course>
  <speed>0.9940824915468535</speed>
  <fix>3d</fix>
</trkpt>
<trkpt lat="-27.2722174" lon="151.290071">
  <ele>443.16</ele>
  <time>2026-09-01T19:59:07Z</time>
  <course>352.68</course>
  <speed>0.83</speed>
  <fix>3d</fix>
</trkpt>
<trkpt lat="-27.2722141" lon="151.2900707">
  <ele>443.06</ele>
  <time>2026-09-01T19:59:07Z</time>
  <course>349.39</course>
  <speed>1.0438869670610895</speed>
  <fix>3d</fix>
</trkpt>
<trkpt lat="-27.2722158" lon="151.2900708">
  <ele>443.16</ele>
  <time>2026-09-01T19:59:07Z</time>
  <course>353.87</course>
  <speed>0.95</speed>
  <fix>3d</fix>
</trkpt>
<trkpt lat="-27.2722132" lon="151.2900706">
  <ele>443.07</ele>
  <time>2026-09-01T19:59:07Z</time>
  <course>349.41</course>
  <speed>1.0837435120913066</speed>
  <fix>3d</fix>
</trkpt>
<trkpt lat="-27.2722158" lon="151.2900708">
  <ele>443.16</ele>
  <time>2026-09-01T19:59:07Z</time>
  <course>353.87</course>
  <speed>0.95</speed>
  <fix>3d</fix>
</trkpt>
<trkpt lat="-27.2722122" lon="151.2900705">
  <ele>443.07</ele>
  <time>2026-09-01T19:59:07Z</time>
  <course>349.42</course>
  <speed>1.1236102527122116</speed>
  <fix>3d</fix>
</trkpt>
<trkpt lat="-27.272214" lon="151.2900705">
  <ele>443.17</ele>
  <time>2026-09-01T19:59:07Z</time>
  <course>354.53</course>
  <speed>1.06</speed>
  <fix>3d</fix>
</trkpt>
<trkpt lat="-27.2722112" lon="151.2900704">
  <ele>443.07</ele>
  <time>2026-09-01T19:59:07Z</time>
  <course>349.42</course>
  <speed>1.163486140871476</speed>
  <fix>3d</fix>
</trkpt>
<trkpt lat="-27.272214" lon="151.2900705">
  <ele>443.17</ele>
  <time>2026-09-01T19:59:07Z</time>
  <course>354.53</course>
  <speed>1.06</speed>
  <fix>3d</fix>
</trkpt>
<trkpt lat="-27.2722101" lon="151.2900703">
  <ele>443.08</ele>
  <time>2026-09-01T19:59:07Z</time>
  <course>349.43</course>
  <speed>1.194194289050153</speed>
  <fix>3d</fix>
</trkpt>
<trkpt lat="-27.2722121" lon="151.2900704">
  <ele>443.18</ele>
  <time>2026-09-01T19:59:07Z</time>
  <course>354.85</course>
  <speed>1.15</speed>
  <fix>3d</fix>
</trkpt>
<trkpt lat="-27.272209" lon="151.2900702">
  <ele>443.08</ele>
  <time>2026-09-01T19:59:07Z</time>
  <course>349.43</course>
  <speed>1.2240914998479484</speed>
  <fix>3d</fix>
</trkpt>
<trkpt lat="-27.2722121" lon="151.2900704">
  <ele>443.18</ele>
  <time>2026-09-01T19:59:07Z</time>
  <course>354.85</course>
  <speed>1.15</speed>
  <fix>3d</fix>
</trkpt>
<trkpt lat="-27.2722079" lon="151.2900701">
  <ele>443.08</ele>
  <time>2026-09-01T19:59:07Z</time>
  <course>349.44</course>
  <speed>1.244025723206719</speed>
  <fix>3d</fix>
</trkpt>
<trkpt lat="-27.27221" lon="151.2900702">
  <ele>443.19</ele>
  <time>2026-09-01T19:59:07Z</time>
  <course>354.93</course>
  <speed>1.22</speed>
  <fix>3d</fix>
</trkpt>
<trkpt lat="-27.2722068" lon="151.29007">
  <ele>443.08</ele>
  <time>2026-09-01T19:59:07Z</time>
  <course>349.44</course>
  <speed>1.264792473095883</speed>
  <fix>3d</fix>
</trkpt>
<trkpt lat="-27.27221" lon="151.2900702">
  <ele>443.19</ele>
  <time>2026-09-01T19:59:07Z</time>
  <course>354.93</course>
  <speed>1.22</speed>
  <fix>3d</fix>
</trkpt>
<trkpt lat="-27.2722056" lon="151.2900698">
  <ele>443.08</ele>
  <time>2026-09-01T19:59:07Z</time>
  <course>349.45</course>
  <speed>1.2747548783981961</speed>
  <fix>3d</fix>
</trkpt>
<trkpt lat="-27.2722077" lon="151.2900699">
  <ele>443.19</ele>
  <time>2026-09-01T19:59:07Z</time>
  <course>354.85</course>
  <speed>1.27</speed>
  <fix>3d</fix>
</trkpt>
<trkpt lat="-27.2722045" lon="151.2900697">
  <ele>443.08</ele>
  <time>2026-09-01T19:59:07Z</time>
  <course>349.45</course>
  <speed>1.2756566936288147</speed>
  <fix>3d</fix>
</trkpt>
<trkpt lat="-27.2722077" lon="151.2900699">
  <ele>443.19</ele>
  <time>2026-09-01T19:59:07Z</time>
  <course>354.85</course>
  <speed>1.27</speed>
  <fix>3d</fix>
</trkpt>
<trkpt lat="-27.2722033" lon="151.2900696">
  <ele>443.08</ele>
  <time>2026-09-01T19:59:07Z</time>
  <course>349.46</course>
  <speed>1.2756566936288147</speed>
  <fix>3d</fix>
</trkpt>
<trkpt lat="-27.2722054" lon="151.2900697">
  <ele>443.19</ele>
  <time>2026-09-01T19:59:07Z</time>
  <course>354.64</course>
  <speed>1.3</speed>
  <fix>3d</fix>
</trkpt>
<trkpt lat="-27.2722022" lon="151.2900694">
  <ele>443.08</ele>
  <time>2026-09-01T19:59:07Z</time>
  <course>349.46</course>
  <speed>1.2756566936288147</speed>
  <fix>3d</fix>
</trkpt>
<trkpt lat="-27.2722054" lon="151.2900697">
  <ele>443.19</ele>
  <time>2026-09-01T19:59:07Z</time>
  <course>354.64</course>
  <speed>1.3</speed>
  <fix>3d</fix>
</trkpt>
<trkpt lat="-27.272201" lon="151.2900693">
  <ele>443.08</ele>
  <time>2026-09-01T19:59:07Z</time>
  <course>349.46</course>
  <speed>1.2666885963013956</speed>
  <fix>3d</fix>
</trkpt>
<trkpt lat="-27.272203" lon="151.2900694">
  <ele>443.19</ele>
  <time>2026-09-01T19:59:07Z</time>
  <course>354.32</course>
  <speed>1.31</speed>
  <fix>3d</fix>
</trkpt>
<trkpt lat="-27.2721999" lon="151.2900691">
  <ele>443.08</ele>
  <time>2026-09-01T19:59:07Z</time>
  <course>349.45</course>
  <speed>1.2567418191498205</speed>
  <fix>3d</fix>
</trkpt>
<trkpt lat="-27.272203" lon="151.2900694">
  <ele>443.19</ele>
  <time>2026-09-01T19:59:07Z</time>
  <course>354.32</course>
  <speed>1.31</speed>
  <fix>3d</fix>
</trkpt>
<trkpt lat="-27.2721987" lon="151.290069">
  <ele>443.08</ele>
  <time>2026-09-01T19:59:07Z</time>
  <course>349.45</course>
  <speed>1.2379418403139946</speed>
  <fix>3d</fix>
</trkpt>
<trkpt lat="-27.2722007" lon="151.2900692">
  <ele>443.18</ele>
  <time>2026-09-01T19:59:07Z</time>
  <course>353.88</course>
  <speed>1.3</speed>
  <fix>3d</fix>
</trkpt>
<trkpt lat="-27.2721976" lon="151.2900688">
  <ele>443.07</ele>
  <time>2026-09-01T19:59:07Z</time>
  <course>349.45</course>
  <speed>1.2081390648431165</speed>
  <fix>3d</fix>
</trkpt>
<trkpt lat="-27.2722007" lon="151.2900692">
  <ele>443.18</ele>
  <time>2026-09-01T19:59:07Z</time>
  <course>353.88</course>
  <speed>1.3</speed>
  <fix>3d</fix>
</trkpt>
<trkpt lat="-27.2721965" lon="151.2900687">
  <ele>443.07</ele>
  <time>2026-09-01T19:59:07Z</time>
  <course>349.45</course>
  <speed>1.1795761950802501</speed>
  <fix>3d</fix>
</trkpt>
<trkpt lat="-27.2721984" lon="151.2900689">
  <ele>443.18</ele>
  <time>2026-09-01T19:59:07Z</time>
  <course>353.34</course>
  <speed>1.27</speed>
  <fix>3d</fix>
</trkpt>
<trkpt lat="-27.2721955" lon="151.2900685">
  <ele>443.07</ele>
  <time>2026-09-01T19:59:07Z</time>
  <course>349.44</course>
  <speed>1.149826073804208</speed>
  <fix>3d</fix>
</trkpt>
<trkpt lat="-27.2721984" lon="151.2900689">
  <ele>443.18</ele>
  <time>2026-09-01T19:59:07Z</time>
  <course>353.34</course>
  <speed>1.27</speed>
  <fix>3d</fix>
</trkpt>
<trkpt lat="-27.2721944" lon="151.2900684">
  <ele>443.07</ele>
  <time>2026-09-01T19:59:07Z</time>
  <course>349.42</course>
  <speed>1.110180165558726</speed>
  <fix>3d</fix>
</trkpt>
<trkpt lat="-27.2721961" lon="151.2900686">
  <ele>443.18</ele>
  <time>2026-09-01T19:59:07Z</time>
  <course>352.72</course>
  <speed>1.22</speed>
  <fix>3d</fix>
</trkpt>
<trkpt lat="-27.2721934" lon="151.2900682">
  <ele>443.07</ele>
  <time>2026-09-01T19:59:07Z</time>
  <course>349.41</course>
  <speed>1.0705606008068858</speed>
  <fix>3d</fix>
</trkpt>
<trkpt lat="-27.2721961" lon="151.2900686">
  <ele>443.18</ele>
  <time>2026-09-01T19:59:07Z</time>
  <course>352.72</course>
  <speed>1.22</speed>
  <fix>3d</fix>
</trkpt>
<trkpt lat="-27.2721925" lon="151.290068">
  <ele>443.07</ele>
  <time>2026-09-01T19:59:07Z</time>
  <course>349.41</course>
  <speed>1.0324727599312247</speed>
  <fix>3d</fix>
</trkpt>
<trkpt lat="-27.272194" lon="151.2900682">
  <ele>443.17</ele>
  <time>2026-09-01T19:59:07Z</time>
  <course>351.95</course>
  <speed>1.16</speed>
  <fix>3d</fix>
</trkpt>
<trkpt lat="-27.2721915" lon="151.2900679">
  <ele>443.07</ele>
  <time>2026-09-01T19:59:07Z</time>
  <course>349.41</course>
  <speed>0.9831073186585481</speed>
  <fix>3d</fix>
</trkpt>
<trkpt lat="-27.272194" lon="151.2900682">
  <ele>443.17</ele>
  <time>2026-09-01T19:59:07Z</time>
  <course>351.95</course>
  <speed>1.16</speed>
  <fix>3d</fix>
</trkpt>
<trkpt lat="-27.2721907" lon="151.2900677">
  <ele>443.07</ele>
  <time>2026-09-01T19:59:07Z</time>
  <course>349.41</course>
  <speed>0.9338094023943002</speed>
  <fix>3d</fix>
</trkpt>
<trkpt lat="-27.272192" lon="151.2900679">
  <ele>443.17</ele>
  <time>2026-09-01T19:59:07Z</time>
  <course>350.99</course>
  <speed>1.07</speed>
  <fix>3d</fix>
</trkpt>
<trkpt lat="-27.2721898" lon="151.2900675">
  <ele>443.07</ele>
  <time>2026-09-01T19:59:07Z</time>
  <course>349.41</course>
  <speed>0.8747571091451616</speed>
  <fix>3d</fix>
</trkpt>
<trkpt lat="-27.272192" lon="151.2900679">
  <ele>443.17</ele>
  <time>2026-09-01T19:59:07Z</time>
  <course>350.99</course>
  <speed>1.07</speed>
  <fix>3d</fix>
</trkpt>
<trkpt lat="-27.272189" lon="151.2900673">
  <ele>443.07</ele>
  <time>2026-09-01T19:59:07Z</time>
  <course>349.4</course>
  <speed>0.8256512580987205</speed>
  <fix>3d</fix>
</trkpt>
<trkpt lat="-27.2721902" lon="151.2900675">
  <ele>443.17</ele>
  <time>2026-09-01T19:59:07Z</time>
  <course>349.84</course>
  <speed>0.97</speed>
  <fix>3d</fix>
</trkpt>
<trkpt lat="-27.2721883" lon="151.2900671">
  <ele>443.07</ele>
  <time>2026-09-01T19:59:07Z</time>
  <course>349.4</course>
  <speed>0.757099729229908</speed>
  <fix>3d</fix>
</trkpt>
<trkpt lat="-27.2721902" lon="151.2900675">
  <ele>443.17</ele>
  <time>2026-09-01T19:59:07Z</time>
  <course>349.84</course>
  <speed>0.97</speed>
  <fix>3d</fix>
</trkpt>
<trkpt lat="-27.2721876" lon="151.290067">
  <ele>443.07</ele>
  <time>2026-09-01T19:59:07Z</time>
  <course>349.4</course>
  <speed>0.6985699678629191</speed>
  <fix>3d</fix>
</trkpt>
<trkpt lat="-27.2721886" lon="151.2900672">
  <ele>443.17</ele>
  <time>2026-09-01T19:59:07Z</time>
  <course>348.38</course>
  <speed>0.86</speed>
  <fix>3d</fix>
</trkpt>
<trkpt lat="-27.272187" lon="151.2900668">
  <ele>443.07</ele>
  <time>2026-09-01T19:59:07Z</time>
  <course>349.39</course>
  <speed>0.6403124237432849</speed>
  <fix>3d</fix>
</trkpt>
<trkpt lat="-27.2721886" lon="151.2900672">
  <ele>443.17</ele>
  <time>2026-09-01T19:59:07Z</time>
  <course>348.38</course>
  <speed>0.86</speed>
  <fix>3d</fix>
</trkpt>
<trkpt lat="-27.2721864" lon="151.2900666">
  <ele>443.07</ele>
  <time>2026-09-01T19:59:07Z</time>
  <course>349.4</course>
  <speed>0.5824087911424415</speed>
  <fix>3d</fix>
</trkpt>
<trkpt lat="-27.2721871" lon="151.2900669">
  <ele>443.16</ele>
  <time>2026-09-01T19:59:07Z</time>
  <course>346.46</course>
  <speed>0.75</speed>
  <fix>3d</fix>
</trkpt>
<trkpt lat="-27.2721859" lon="151.2900664">
  <ele>443.07</ele>
  <time>2026-09-01T19:59:07Z</time>
  <course>349.41</course>
  <speed>0.5154609587543949</speed>
  <fix>3d</fix>
</trkpt>
<trkpt lat="-27.2721871" lon="151.2900669">
  <ele>443.16</ele>
  <time>2026-09-01T19:59:07Z</time>
  <course>346.46</course>
  <speed>0.75</speed>
  <fix>3d</fix>
</trkpt>
<trkpt lat="-27.2721854" lon="151.2900663">
  <ele>443.07</ele>
  <time>2026-09-01T19:59:07Z</time>
  <course>349.41</course>
  <speed>0.45880278987817846</speed>
  <fix>3d</fix>
</trkpt>
<trkpt lat="-27.2721859" lon="151.2900665">
  <ele>443.16</ele>
  <time>2026-09-01T19:59:07Z</time>
  <course>343.83</course>
  <speed>0.62</speed>
  <fix>3d</fix>
</trkpt>
<trkpt lat="-27.272185" lon="151.2900661">
  <ele>443.07</ele>
  <time>2026-09-01T19:59:07Z</time>
  <course>349.42</course>
  <speed>0.39395431207184417</speed>
  <fix>3d</fix>
</trkpt>
<trkpt lat="-27.2721859" lon="151.2900665">
  <ele>443.16</ele>
  <time>2026-09-01T19:59:07Z</time>
  <course>343.83</course>
  <speed>0.62</speed>
  <fix>3d</fix>
</trkpt>
<trkpt lat="-27.2721847" lon="151.2900659">
  <ele>443.07</ele>
  <time>2026-09-01T19:59:07Z</time>
  <course>349.42</course>
  <speed>0.34</speed>
  <fix>3d</fix>
</trkpt>
<trkpt lat="-27.272185" lon="151.2900662">
  <ele>443.16</ele>
  <time>2026-09-01T19:59:07Z</time>
  <course>339.97</course>
  <speed>0.5</speed>
  <fix>3d</fix>
</trkpt>
<trkpt lat="-27.2721844" lon="151.2900658">
  <ele>443.07</ele>
  <time>2026-09-01T19:59:07Z</time>
  <course>349.42</course>
  <speed>0.2745906043549196</speed>
  <fix>3d</fix>
</trkpt>
<trkpt lat="-27.272185" lon="151.2900662">
  <ele>443.16</ele>
  <time>2026-09-01T19:59:07Z</time>
  <course>339.97</course>
  <speed>0.5</speed>
  <fix>3d</fix>
</trkpt>
<trkpt lat="-27.2721842" lon="151.2900656">
  <ele>443.07</ele>
  <time>2026-09-01T19:59:07Z</time>
  <course>349.42</course>
  <speed>0.22671568097509268</speed>
  <fix>3d</fix>
</trkpt>
<trkpt lat="-27.2721843" lon="151.2900658">
  <ele>443.16</ele>
  <time>2026-09-01T19:59:07Z</time>
  <course>333.79</course>
  <speed>0.38</speed>
  <fix>3d</fix>
</trkpt>
<trkpt lat="-27.272184" lon="151.2900654">
  <ele>443.07</ele>
  <time>2026-09-01T19:59:07Z</time>
  <course>349.42</course>
  <speed>0.18601075237738274</speed>
  <fix>3d</fix>
</trkpt>
<trkpt lat="-27.2721843" lon="151.2900658">
  <ele>443.16</ele>
  <time>2026-09-01T19:59:07Z</time>
  <course>333.79</course>
  <speed>0.38</speed>
  <fix>3d</fix>
</trkpt>
<trkpt lat="-27.2721839" lon="151.2900653">
  <ele>443.07</ele>
  <time>2026-09-01T19:59:07Z</time>
  <course>349.43</course>
  <speed>0.14866068747318506</speed>
  <fix>3d</fix>
</trkpt>
<trkpt lat="-27.2721838" lon="151.2900655">
  <ele>443.16</ele>
  <time>2026-09-01T19:59:07Z</time>
  <course>322.58</course>
  <speed>0.26</speed>
  <fix>3d</fix>
</trkpt>
<trkpt lat="-27.2721839" lon="151.2900651">
  <ele>443.07</ele>
  <time>2026-09-01T19:59:07Z</time>
  <course>349.44</course>
  <speed>0.14</speed>
  <fix>3d</fix>
</trkpt>
<trkpt lat="-27.2721838" lon="151.2900655">
  <ele>443.16</ele>
  <time>2026-09-01T19:59:07Z</time>
  <course>322.58</course>
  <speed>0.26</speed>
  <fix>3d</fix>
</trkpt>
<trkpt lat="-27.2721839" lon="151.290065">
  <ele>443.07</ele>
  <time>2026-09-01T19:59:07Z</time>
  <course>349.44</course>
  <speed>0.14317821063276354</speed>
  <fix>3d</fix>
</trkpt>
<trkpt lat="-27.2721835" lon="151.2900652">
  <ele>443.16</ele>
  <time>2026-09-01T19:59:07Z</time>
  <course>299.31</course>
  <speed>0.17</speed>
  <fix>3d</fix>
</trkpt>
<trkpt lat="-27.2721839" lon="151.2900648">
  <ele>443.07</ele>
  <time>2026-09-01T19:59:07Z</time>
  <course>349.45</course>
  <speed>0.17029386365926402</speed>
  <fix>3d</fix>
</trkpt>
<trkpt lat="-27.2721835" lon="151.2900652">
  <ele>443.16</ele>
  <time>2026-09-01T19:59:07Z</time>
  <course>299.31</course>
  <speed>0.17</speed>
  <fix>3d</fix>
</trkpt>
<trkpt lat="-27.272184" lon="151.2900647">
  <ele>443.07</ele>
  <time>2026-09-01T19:59:07Z</time>
  <course>349.45</course>
  <speed>0.2</speed>
  <fix>3d</fix>
</trkpt>
<trkpt lat="-27.2721834" lon="151.2900648">
  <ele>443.16</ele>
  <time>2026-09-01T19:59:07Z</time>
  <course>258.53</course>
  <speed>0.15</speed>
  <fix>3d</fix>
</trkpt>
<trkpt lat="-27.272184" lon="151.2900646">
  <ele>443.07</ele>
  <time>2026-09-01T19:59:07Z</time>
  <course>349.44</course>
  <speed>0.24186773244895649</speed>
  <fix>3d</fix>
</trkpt>
<trkpt lat="-27.2721834" lon="151.2900648">
  <ele>443.16</ele>
  <time>2026-09-01T19:59:07Z</time>
  <course>258.53</course>
  <speed>0.15</speed>
  <fix>3d</fix>
</trkpt>
<trkpt lat="-27.2721842" lon="151.2900644">
  <ele>443.07</ele>
  <time>2026-09-01T19:59:07Z</time>
  <course>349.43</course>
  <speed>0.27313000567495327</speed>
  <fix>3d</fix>
</trkpt>
<trkpt lat="-27.2721835" lon="151.2900646">
  <ele>443.16</ele>
  <time>2026-09-01T19:59:07Z</time>
  <course>226.04</course>
  <speed>0.19</speed>
  <fix>3d</fix>
</trkpt>
<trkpt lat="-27.2721844" lon="151.2900643">
  <ele>443.07</ele>
  <time>2026-09-01T19:59:07Z</time>
  <course>349.42</course>
  <speed>0.3101612483854165</speed>
  <fix>3d</fix>
</trkpt>
<trkpt lat="-27.2721835" lon="151.2900646">
  <ele>443.16</ele>
  <time>2026-09-01T19:59:07Z</time>
  <course>226.04</course>
  <speed>0.19</speed>
  <fix>3d</fix>
</trkpt>
<trkpt lat="-27.2721846" lon="151.2900642">
  <ele>443.07</ele>
  <time>2026-09-01T19:59:07Z</time>
  <course>349.4</course>
  <speed>0.3352610922848042</speed>
  <fix>3d</fix>
</trkpt>
<trkpt lat="-27.2721838" lon="151.2900643">
  <ele>443.16</ele>
  <time>2026-09-01T19:59:07Z</time>
  <course>210.24</course>
  <speed>0.25</speed>
  <fix>3d</fix>
</trkpt>
<trkpt lat="-27.2721849" lon="151.2900641">
  <ele>443.06</ele>
  <time>2026-09-01T19:59:07Z</time>
  <course>349.38</course>
  <speed>0.3640054944640259</speed>
  <fix>3d</fix>
</trkpt>
<trkpt lat="-27.2721838" lon="151.2900643">
  <ele>443.16</ele>
  <time>2026-09-01T19:59:07Z</time>
  <course>210.24</course>
  <speed>0.25</speed>
  <fix>3d</fix>
</trkpt>
<trkpt lat="-27.2721852" lon="151.290064">
  <ele>443.06</ele>
  <time>2026-09-01T19:59:07Z</time>
  <course>349.35</course>
  <speed>0.38078865529319544</speed>
  <fix>3d</fix>
</trkpt>
<trkpt lat="-27.2721843" lon="151.2900641">
  <ele>443.15</ele>
  <time>2026-09-01T19:59:07Z</time>
  <course>202.07</course>
  <speed>0.31</speed>
  <fix>3d</fix>
</trkpt>
<trkpt lat="-27.2721855" lon="151.2900639">
  <ele>443.06</ele>
  <time>2026-09-01T19:59:07Z</time>
  <course>349.31</course>
  <speed>0.39812058474788764</speed>
  <fix>3d</fix>
</trkpt>
<trkpt lat="-27.2721843" lon="151.2900641">
  <ele>443.15</ele>
  <time>2026-09-01T19:59:07Z</time>
  <course>202.07</course>
  <speed>0.31</speed>
  <fix>3d</fix>
</trkpt>
<trkpt lat="-27.2721858" lon="151.2900638">
  <ele>443.06</ele>
  <time>2026-09-01T19:59:07Z</time>
  <course>349.28</course>
  <speed>0.41773197148410846</speed>
  <fix>3d</fix>
</trkpt>
<trkpt lat="-27.2721849" lon="151.2900638">
  <ele>443.15</ele>
  <time>2026-09-01T19:59:07Z</time>
  <course>197.22</course>
  <speed>0.36</speed>
  <fix>3d</fix>
</trkpt>
<trkpt lat="-27.2721861" lon="151.2900637">
  <ele>443.06</ele>
  <time>2026-09-01T19:59:07Z</time>
  <course>349.24</course>
  <speed>0.42579337712087534</speed>
  <fix>3d</fix>
</trkpt>
<trkpt lat="-27.2721849" lon="151.2900638">
  <ele>443.15</ele>
  <time>2026-09-01T19:59:07Z</time>
  <course>197.22</course>
  <speed>0.36</speed>
  <fix>3d</fix>
</trkpt>
<trkpt lat="-27.2721865" lon="151.2900636">
  <ele>443.06</ele>
  <time>2026-09-01T19:59:07Z</time>
  <course>349.21</course>
  <speed>0.4356604182158393</speed>
  <fix>3d</fix>
</trkpt>
<trkpt lat="-27.2721855" lon="151.2900636">
  <ele>443.15</ele>
  <time>2026-09-01T19:59:07Z</time>
  <course>193.96</course>
  <speed>0.4</speed>
  <fix>3d</fix>
</trkpt>
<trkpt lat="-27.2721869" lon="151.2900635">
  <ele>443.06</ele>
  <time>2026-09-01T19:59:07Z</time>
  <course>349.18</course>
  <speed>0.4440720662234904</speed>
  <fix>3d</fix>
</trkpt>
<trkpt lat="-27.2721855" lon="151.2900636">
  <ele>443.15</ele>
  <time>2026-09-01T19:59:07Z</time>
  <course>193.96</course>
  <speed>0.4</speed>
  <fix>3d</fix>
</trkpt>
<trkpt lat="-27.2721872" lon="151.2900634">
  <ele>443.06</ele>
  <time>2026-09-01T19:59:07Z</time>
  <course>349.17</course>
  <speed>0.4428317965096906</speed>
  <fix>3d</fix>
</trkpt>
<trkpt lat="-27.2721863" lon="151.2900634">
  <ele>443.15</ele>
  <time>2026-09-01T19:59:07Z</time>
  <course>191.57</course>
  <speed>0.42</speed>
  <fix>3d</fix>
</trkpt>
<trkpt lat="-27.2721876" lon="151.2900634">
  <ele>443.06</ele>
  <time>2026-09-01T19:59:07Z</time>
  <course>349.17</course>
  <speed>0.45276925690687087</speed>
  <fix>3d</fix>
</trkpt>
<trkpt lat="-27.2721863" lon="151.2900634">
  <ele>443.15</ele>
  <time>2026-09-01T19:59:07Z</time>
  <course>191.57</course>
  <speed>0.42</speed>
  <fix>3d</fix>
</trkpt>
<trkpt lat="-27.272188" lon="151.2900633">
  <ele>443.06</ele>
  <time>2026-09-01T19:59:07Z</time>
  <course>349.17</course>
  <speed>0.45177427992306074</speed>
  <fix>3d</fix>
</trkpt>
<trkpt lat="-27.272187" lon="151.2900632">
  <ele>443.16</ele>
  <time>2026-09-01T19:59:07Z</time>
  <course>189.69</course>
  <speed>0.43</speed>
  <fix>3d</fix>
</trkpt>
<trkpt lat="-27.2721884" lon="151.2900632">
  <ele>443.06</ele>
  <time>2026-09-01T19:59:07Z</time>
  <course>349.18</course>
  <speed>0.44181444068749043</speed>
  <fix>3d</fix>
</trkpt>
<trkpt lat="-27.272187" lon="151.2900632">
  <ele>443.16</ele>
  <time>2026-09-01T19:59:07Z</time>
  <course>189.69</course>
  <speed>0.43</speed>
  <fix>3d</fix>
</trkpt>
<trkpt lat="-27.2721887" lon="151.2900632">
  <ele>443.06</ele>
  <time>2026-09-01T19:59:07Z</time>
  <course>349.19</course>
  <speed>0.4410215414239989</speed>
  <fix>3d</fix>
</trkpt>
<trkpt lat="-27.2721878" lon="151.2900631">
  <ele>443.16</ele>
  <time>2026-09-01T19:59:07Z</time>
  <course>188.09</course>
  <speed>0.43</speed>
  <fix>3d</fix>
</trkpt>
<trkpt lat="-27.2721891" lon="151.2900631">
  <ele>443.06</ele>
  <time>2026-09-01T19:59:07Z</time>
  <course>349.2</course>
  <speed>0.44045431091090476</speed>
  <fix>3d</fix>
</trkpt>
<trkpt lat="-27.2721878" lon="151.2900631">
  <ele>443.16</ele>
  <time>2026-09-01T19:59:07Z</time>
  <course>188.09</course>
  <speed>0.43</speed>
  <fix>3d</fix>
</trkpt>
<trkpt lat="-27.2721895" lon="151.2900631">
  <ele>443.06</ele>
  <time>2026-09-01T19:59:07Z</time>
  <course>349.21</course>
  <speed>0.4304648650006177</speed>
  <fix>3d</fix>
</trkpt>
<trkpt lat="-27.2721886" lon="151.290063">
  <ele>443.16</ele>
  <time>2026-09-01T19:59:07Z</time>
  <course>186.59</course>
  <speed>0.43</speed>
  <fix>3d</fix>
</trkpt>
<trkpt lat="-27.2721898" lon="151.2900631">
  <ele>443.06</ele>
  <time>2026-09-01T19:59:07Z</time>
  <course>349.22</course>
  <speed>0.4201190307520001</speed>
  <fix>3d</fix>
</trkpt>
<trkpt lat="-27.2721886" lon="151.290063">
  <ele>443.16</ele>
  <time>2026-09-01T19:59:07Z</time>
  <course>186.59</course>
  <speed>0.43</speed>
  <fix>3d</fix>
</trkpt>
<trkpt lat="-27.2721902" lon="151.290063">
  <ele>443.06</ele>
  <time>2026-09-01T19:59:07Z</time>
  <course>349.24</course>
  <speed>0.42</speed>
  <fix>3d</fix>
</trkpt>
<trkpt lat="-27.2721893" lon="151.2900629">
  <ele>443.16</ele>
  <time>2026-09-01T19:59:07Z</time>
  <course>185.13</course>
  <speed>0.42</speed>
  <fix>3d</fix>
</trkpt>
<trkpt lat="-27.2721905" lon="151.290063">
  <ele>443.06</ele>
  <time>2026-09-01T19:59:07Z</time>
  <course>349.26</course>
  <speed>0.41</speed>
  <fix>3d</fix>
</trkpt>
<trkpt lat="-27.2721893" lon="151.2900629">
  <ele>443.16</ele>
  <time>2026-09-01T19:59:07Z</time>
  <course>185.13</course>
  <speed>0.42</speed>
  <fix>3d</fix>
</trkpt>
<trkpt lat="-27.2721909" lon="151.290063">
  <ele>443.06</ele>
  <time>2026-09-01T19:59:07Z</time>
  <course>349.27</course>
  <speed>0.4</speed>
  <fix>3d</fix>
</trkpt>
<trkpt lat="-27.27219" lon="151.2900628">
  <ele>443.16</ele>
  <time>2026-09-01T19:59:07Z</time>
  <course>183.76</course>
  <speed>0.4</speed>
  <fix>3d</fix>
</trkpt>
<trkpt lat="-27.2721912" lon="151.290063">
  <ele>443.06</ele>
  <time>2026-09-01T19:59:07Z</time>
  <course>349.28</course>
  <speed>0.39</speed>
  <fix>3d</fix>
</trkpt>
<trkpt lat="-27.27219" lon="151.2900628">
  <ele>443.16</ele>
  <time>2026-09-01T19:59:07Z</time>
  <course>183.76</course>
  <speed>0.4</speed>
  <fix>3d</fix>
</trkpt>
<trkpt lat="-27.2721915" lon="151.290063">
  <ele>443.06</ele>
  <time>2026-09-01T19:59:07Z</time>
  <course>349.29</course>
  <speed>0.37013511046643494</speed>
  <fix>3d</fix>
</trkpt>
<trkpt lat="-27.2721908" lon="151.2900628">
  <ele>443.16</ele>
  <time>2026-09-01T19:59:07Z</time>
  <course>182.43</course>
  <speed>0.39</speed>
  <fix>3d</fix>
</trkpt>
<trkpt lat="-27.2721919" lon="151.290063">
  <ele>443.06</ele>
  <time>2026-09-01T19:59:07Z</time>
  <course>349.29</course>
  <speed>0.36013886210738216</speed>
  <fix>3d</fix>
</trkpt>
<trkpt lat="-27.2721908" lon="151.2900628">
  <ele>443.16</ele>
  <time>2026-09-01T19:59:07Z</time>
  <course>182.43</course>
  <speed>0.39</speed>
  <fix>3d</fix>
</trkpt>
<trkpt lat="-27.2721922" lon="151.290063">
  <ele>443.06</ele>
  <time>2026-09-01T19:59:07Z</time>
  <course>349.3</course>
  <speed>0.3505709628591621</speed>
  <fix>3d</fix>
</trkpt>
<trkpt lat="-27.2721915" lon="151.2900627">
  <ele>443.16</ele>
  <time>2026-09-01T19:59:07Z</time>
  <course>181.08</course>
  <speed>0.37</speed>
  <fix>3d</fix>
</trkpt>
<trkpt lat="-27.2721925" lon="151.290063">
  <ele>443.07</ele>
  <time>2026-09-01T19:59:07Z</time>
  <course>349.32</course>
  <speed>0.34058772731852804</speed>
  <fix>3d</fix>
</trkpt>
<trkpt lat="-27.2721915" lon="151.2900627">
  <ele>443.16</ele>
  <time>2026-09-01T19:59:07Z</time>
  <course>181.08</course>
  <speed>0.37</speed>
  <fix>3d</fix>
</trkpt>
<trkpt lat="-27.2721927" lon="151.290063">
  <ele>443.07</ele>
  <time>2026-09-01T19:59:07Z</time>
  <course>349.35</course>
  <speed>0.32062439083762795</speed>
  <fix>3d</fix>
</trkpt>
<trkpt lat="-27.2721921" lon="151.2900627">
  <ele>443.17</ele>
  <time>2026-09-01T19:59:07Z</time>
  <course>179.62</course>
  <speed>0.34</speed>
  <fix>3d</fix>
</trkpt>
<trkpt lat="-27.272193" lon="151.290063">
  <ele>443.07</ele>
  <time>2026-09-01T19:59:07Z</time>
  <course>349.38</course>
  <speed>0.31144823004794875</speed>
  <fix>3d</fix>
</trkpt>
<trkpt lat="-27.2721921" lon="151.2900627">
  <ele>443.17</ele>
  <time>2026-09-01T19:59:07Z</time>
  <course>179.62</course>
  <speed>0.34</speed>
  <fix>3d</fix>
</trkpt>
<trkpt lat="-27.2721933" lon="151.290063">
  <ele>443.07</ele>
  <time>2026-09-01T19:59:07Z</time>
  <course>349.42</course>
  <speed>0.3014962686336267</speed>
  <fix>3d</fix>
</trkpt>
<trkpt lat="-27.2721927" lon="151.2900627">
  <ele>443.17</ele>
  <time>2026-09-01T19:59:07Z</time>
  <course>178.07</course>
  <speed>0.32</speed>
  <fix>3d</fix>
</trkpt>
<trkpt lat="-27.2721935" lon="151.290063">
  <ele>443.08</ele>
  <time>2026-09-01T19:59:07Z</time>
  <course>349.45</course>
  <speed>0.282842712474619</speed>
  <fix>3d</fix>
</trkpt>
<trkpt lat="-27.2721927" lon="151.2900627">
  <ele>443.17</ele>
  <time>2026-09-01T19:59:07Z</time>
  <course>178.07</course>
  <speed>0.32</speed>
  <fix>3d</fix>
</trkpt>
<trkpt lat="-27.2721938" lon="151.290063">
  <ele>443.08</ele>
  <time>2026-09-01T19:59:07Z</time>
  <course>349.47</course>
  <speed>0.27294688127912364</speed>
  <fix>3d</fix>
</trkpt>
<trkpt lat="-27.2721933" lon="151.2900627">
  <ele>443.17</ele>
  <time>2026-09-01T19:59:07Z</time>
  <course>176.44</course>
  <speed>0.29</speed>
  <fix>3d</fix>
</trkpt>
<trkpt lat="-27.272194" lon="151.290063">
  <ele>443.08</ele>
  <time>2026-09-01T19:59:07Z</time>
  <course>349.49</course>
  <speed>0.26305892875931813</speed>
  <fix>3d</fix>
</trkpt>
<trkpt lat="-27.2721933" lon="151.2900627">
  <ele>443.17</ele>
  <time>2026-09-01T19:59:07Z</time>
  <course>176.44</course>
  <speed>0.29</speed>
  <fix>3d</fix>
</trkpt>
<trkpt lat="-27.2721942" lon="151.290063">
  <ele>443.08</ele>
  <time>2026-09-01T19:59:07Z</time>
  <course>349.5</course>
  <speed>0.24515301344262524</speed>
  <fix>3d</fix>
</trkpt>
<trkpt lat="-27.2721938" lon="151.2900627">
  <ele>443.17</ele>
  <time>2026-09-01T19:59:07Z</time>
  <course>174.56</course>
  <speed>0.26</speed>
  <fix>3d</fix>
</trkpt>
<trkpt lat="-27.2721944" lon="151.290063">
  <ele>443.07</ele>
  <time>2026-09-01T19:59:07Z</time>
  <course>349.52</course>
  <speed>0.2353720459187964</speed>
  <fix>3d</fix>
</trkpt>
<trkpt lat="-27.2721938" lon="151.2900627">
  <ele>443.17</ele>
  <time>2026-09-01T19:59:07Z</time>
  <course>174.56</course>
  <speed>0.26</speed>
  <fix>3d</fix>
</trkpt>
<trkpt lat="-27.2721946" lon="151.290063">
  <ele>443.07</ele>
  <time>2026-09-01T19:59:07Z</time>
  <course>349.53</course>
  <speed>0.215870331449229</speed>
  <fix>3d</fix>
</trkpt>
<trkpt lat="-27.2721943" lon="151.2900628">
  <ele>443.16</ele>
  <time>2026-09-01T19:59:07Z</time>
  <course>172.27</course>
  <speed>0.23</speed>
  <fix>3d</fix>
</trkpt>
<trkpt lat="-27.2721948" lon="151.2900631">
  <ele>443.07</ele>
  <time>2026-09-01T19:59:07Z</time>
  <course>349.54</course>
  <speed>0.20615528128088303</speed>
  <fix>3d</fix>
</trkpt>
<trkpt lat="-27.2721943" lon="151.2900628">
  <ele>443.16</ele>
  <time>2026-09-01T19:59:07Z</time>
  <course>172.27</course>
  <speed>0.23</speed>
  <fix>3d</fix>
</trkpt>
<trkpt lat="-27.272195" lon="151.2900631">
  <ele>443.07</ele>
  <time>2026-09-01T19:59:07Z</time>
  <course>349.57</course>
  <speed>0.18681541692269404</speed>
  <fix>3d</fix>
</trkpt>
<trkpt lat="-27.2721946" lon="151.2900629">
  <ele>443.16</ele>
  <time>2026-09-01T19:59:07Z</time>
  <course>169.78</course>
  <speed>0.2</speed>
  <fix>3d</fix>
</trkpt>
<trkpt lat="-27.2721951" lon="151.2900631">
  <ele>443.07</ele>
  <time>2026-09-01T19:59:07Z</time>
  <course>349.61</course>
  <speed>0.1772004514666935</speed>
  <fix>3d</fix>
</trkpt>
<trkpt lat="-27.2721946" lon="151.2900629">
  <ele>443.16</ele>
  <time>2026-09-01T19:59:07Z</time>
  <course>169.78</course>
  <speed>0.2</speed>
  <fix>3d</fix>
</trkpt>
<trkpt lat="-27.2721953" lon="151.2900632">
  <ele>443.07</ele>
  <time>2026-09-01T19:59:07Z</time>
  <course>349.64</course>
  <speed>0.15811388300841897</speed>
  <fix>3d</fix>
</trkpt>
<trkpt lat="-27.2721949" lon="151.290063">
  <ele>443.16</ele>
  <time>2026-09-01T19:59:07Z</time>
  <course>167.52</course>
  <speed>0.17</speed>
  <fix>3d</fix>
</trkpt>
<trkpt lat="-27.2721954" lon="151.2900632">
  <ele>443.07</ele>
  <time>2026-09-01T19:59:07Z</time>
  <course>349.66</course>
  <speed>0.14866068747318506</speed>
  <fix>3d</fix>
</trkpt>
<trkpt lat="-27.2721949" lon="151.290063">
  <ele>443.16</ele>
  <time>2026-09-01T19:59:07Z</time>
  <course>167.52</course>
  <speed>0.17</speed>
  <fix>3d</fix>
</trkpt>
<trkpt lat="-27.2721955" lon="151.2900632">
  <ele>443.06</ele>
  <time>2026-09-01T19:59:07Z</time>
  <course>349.68</course>
  <speed>0.13</speed>
  <fix>3d</fix>
</trkpt>
<trkpt lat="-27.2721953" lon="151.2900631">
  <ele>443.15</ele>
  <time>2026-09-01T19:59:07Z</time>
  <course>165.16</course>
  <speed>0.15</speed>
  <fix>3d</fix>
</trkpt>
<trkpt lat="-27.2721956" lon="151.2900633">
  <ele>443.06</ele>
  <time>2026-09-01T19:59:07Z</time>
  <course>349.68</course>
  <speed>0.12083045973594572</speed>
  <fix>3d</fix>
</trkpt>
<trkpt lat="-27.2721953" lon="151.2900631">
  <ele>443.15</ele>
  <time>2026-09-01T19:59:07Z</time>
  <course>165.16</course>
  <speed>0.15</speed>
  <fix>3d</fix>
</trkpt>
<trkpt lat="-27.2721957" lon="151.2900633">
  <ele>443.06</ele>
  <time>2026-09-01T19:59:07Z</time>
  <course>349.68</course>
  <speed>0.10295630140987001</speed>
  <fix>3d</fix>
</trkpt>
<trkpt lat="-27.2721955" lon="151.2900631">
  <ele>443.15</ele>
  <time>2026-09-01T19:59:07Z</time>
  <course>161.58</course>
  <speed>0.12</speed>
  <fix>3d</fix>
</trkpt>
<trkpt lat="-27.2721958" lon="151.2900634">
  <ele>443.06</ele>
  <time>2026-09-01T19:59:07Z</time>
  <course>349.66</course>
  <speed>0.09433981132056603</speed>
  <fix>3d</fix>
</trkpt>
<trkpt lat="-27.2721955" lon="151.2900631">
  <ele>443.15</ele>
  <time>2026-09-01T19:59:07Z</time>
  <course>161.58</course>
  <speed>0.12</speed>
  <fix>3d</fix>
</trkpt>
<trkpt lat="-27.2721958" lon="151.2900634">
  <ele>443.06</ele>
  <time>2026-09-01T19:59:07Z</time>
  <course>349.64</course>
  <speed>0.07810249675906654</speed>
  <fix>3d</fix>
</trkpt>
<trkpt lat="-27.2721957" lon="151.2900632">
  <ele>443.14</ele>
  <time>2026-09-01T19:59:07Z</time>
  <course>155.76</course>
  <speed>0.09</speed>
  <fix>3d</fix>
</trkpt>
<trkpt lat="-27.2721959" lon="151.2900634">
  <ele>443.06</ele>
  <time>2026-09-01T19:59:07Z</time>
  <course>349.61</course>
  <speed>0.07071067811865475</speed>
  <fix>3d</fix>
</trkpt>
<trkpt lat="-27.2721957" lon="151.2900632">
  <ele>443.14</ele>
  <time>2026-09-01T19:59:07Z</time>
  <course>155.76</course>
  <speed>0.09</speed>
  <fix>3d</fix>
</trkpt>
<trkpt lat="-27.2721959" lon="151.2900635">
  <ele>443.06</ele>
  <time>2026-09-01T19:59:07Z</time>
  <course>349.59</course>
  <speed>0.05830951894845301</speed>
  <fix>3d</fix>
</trkpt>
<trkpt lat="-27.2721958" lon="151.2900633">
  <ele>443.14</ele>
  <time>2026-09-01T19:59:07Z</time>
  <course>145.41</course>
  <speed>0.06</speed>
  <fix>3d</fix>
</trkpt>
<trkpt lat="-27.2721959" lon="151.2900635">
  <ele>443.06</ele>
  <time>2026-09-01T19:59:07Z</time>
  <course>349.57</course>
  <speed>0.053851648071345036</speed>
  <fix>3d</fix>
</trkpt>
<trkpt lat="-27.2721958" lon="151.2900633">
  <ele>443.14</ele>
  <time>2026-09-01T19:59:07Z</time>
  <course>145.41</course>
  <speed>0.06</speed>
  <fix>3d</fix>
</trkpt>
<trkpt lat="-27.2721959" lon="151.2900635">
  <ele>443.06</ele>
  <time>2026-09-01T19:59:07Z</time>
  <course>349.56</course>
  <speed>0.05</speed>
  <fix>3d</fix>
</trkpt>
<trkpt lat="-27.2721959" lon="151.2900633">
  <ele>443.14</ele>
  <time>2026-09-01T19:59:07Z</time>
  <course>123.16</course>
  <speed>0.04</speed>
  <fix>3d</fix>
</trkpt>
<trkpt lat="-27.2721959" lon="151.2900636">
  <ele>443.06</ele>
  <time>2026-09-01T19:59:07Z</time>
  <course>349.57</course>
  <speed>0.05</speed>
  <fix>3d</fix>
</trkpt>
<trkpt lat="-27.2721959" lon="151.2900633">
  <ele>443.14</ele>
  <time>2026-09-01T19:59:07Z</time>
  <course>123.16</course>
  <speed>0.04</speed>
  <fix>3d</fix>
</trkpt>
<trkpt lat="-27.2721959" lon="151.2900636">
  <ele>443.06</ele>
  <time>2026-09-01T19:59:07Z</time>
  <course>349.59</course>
  <speed>0.053851648071345036</speed>
  <fix>3d</fix>
</trkpt>
<trkpt lat="-27.2721959" lon="151.2900634">
  <ele>443.14</ele>
  <time>2026-09-01T19:59:07Z</time>
  <course>78.99</course>
  <speed>0.03</speed>
  <fix>3d</fix>
</trkpt>
<trkpt lat="-27.2721959" lon="151.2900636">
  <ele>443.06</ele>
  <time>2026-09-01T19:59:07Z</time>
  <course>349.62</course>
  <speed>0.05</speed>
  <fix>3d</fix>
</trkpt>
<trkpt lat="-27.2721959" lon="151.2900634">
  <ele>443.14</ele>
  <time>2026-09-01T19:59:07Z</time>
  <course>78.99</course>
  <speed>0.03</speed>
  <fix>3d</fix>
</trkpt>
<trkpt lat="-27.2721959" lon="151.2900637">
  <ele>443.06</ele>
  <time>2026-09-01T19:59:07Z</time>
  <course>349.64</course>
  <speed>0.0565685424949238</speed>
  <fix>3d</fix>
</trkpt>
<trkpt lat="-27.2721959" lon="151.2900635">
  <ele>443.14</ele>
  <time>2026-09-01T19:59:07Z</time>
  <course>41.67</course>
  <speed>0.04</speed>
  <fix>3d</fix>
</trkpt>
<trkpt lat="-27.2721959" lon="151.2900637">
  <ele>443.06</ele>
  <time>2026-09-01T19:59:07Z</time>
  <course>349.66</course>
  <speed>0.06403124237432849</speed>
  <fix>3d</fix>
</trkpt>
<trkpt lat="-27.2721959" lon="151.2900635">
  <ele>443.14</ele>
  <time>2026-09-01T19:59:07Z</time>
  <course>41.67</course>
  <speed>0.04</speed>
  <fix>3d</fix>
</trkpt>
<trkpt lat="-27.2721958" lon="151.2900637">
  <ele>443.06</ele>
  <time>2026-09-01T19:59:07Z</time>
  <course>349.66</course>
  <speed>0.07211102550927978</speed>
  <fix>3d</fix>
</trkpt>
<trkpt lat="-27.2721958" lon="151.2900636">
  <ele>443.14</ele>
  <time>2026-09-01T19:59:07Z</time>
  <course>24.36</course>
  <speed>0.06</speed>
  <fix>3d</fix>
</trkpt>
<trkpt lat="-27.2721957" lon="151.2900637">
  <ele>443.05</ele>
  <time>2026-09-01T19:59:07Z</time>
  <course>349.66</course>
  <speed>0.07615773105863909</speed>
  <fix>3d</fix>
</trkpt>
<trkpt lat="-27.2721958" lon="151.2900636">
  <ele>443.14</ele>
  <time>2026-09-01T19:59:07Z</time>
  <course>24.36</course>
  <speed>0.06</speed>
  <fix>3d</fix>
</trkpt>
<trkpt lat="-27.2721956" lon="151.2900638">
  <ele>443.05</ele>
  <time>2026-09-01T19:59:07Z</time>
  <course>349.64</course>
  <speed>0.09486832980505139</speed>
  <fix>3d</fix>
</trkpt>
<trkpt lat="-27.2721957" lon="151.2900636">
  <ele>443.14</ele>
  <time>2026-09-01T19:59:07Z</time>
  <course>15.39</course>
  <speed>0.09</speed>
  <fix>3d</fix>
</trkpt>
<trkpt lat="-27.2721955" lon="151.2900638">
  <ele>443.05</ele>
  <time>2026-09-01T19:59:07Z</time>
  <course>349.62</course>
  <speed>0.09486832980505139</speed>
  <fix>3d</fix>
</trkpt>
<trkpt lat="-27.2721957" lon="151.2900636">
  <ele>443.14</ele>
  <time>2026-09-01T19:59:07Z</time>
  <course>15.39</course>
  <speed>0.09</speed>
  <fix>3d</fix>
</trkpt>
<trkpt lat="-27.2721954" lon="151.2900638">
  <ele>443.05</ele>
  <time>2026-09-01T19:59:07Z</time>
  <course>349.6</course>
  <speed>0.1044030650891055</speed>
  <fix>3d</fix>
</trkpt>
<trkpt lat="-27.2721955" lon="151.2900637">
  <ele>443.14</ele>
  <time>2026-09-01T19:59:07Z</time>
  <course>9.91</course>
  <speed>0.1</speed>
  <fix>3d</fix>
</trkpt>
<trkpt lat="-27.2721953" lon="151.2900638">
  <ele>443.05</ele>
  <time>2026-09-01T19:59:07Z</time>
  <course>349.59</course>
  <speed>0.11401754250991379</speed>
  <fix>3d</fix>
</trkpt>
<trkpt lat="-27.2721955" lon="151.2900637">
  <ele>443.14</ele>
  <time>2026-09-01T19:59:07Z</time>
  <course>9.91</course>
  <speed>0.1</speed>
  <fix>3d</fix>
</trkpt>
<trkpt lat="-27.2721952" lon="151.2900638">
  <ele>443.04</ele>
  <time>2026-09-01T19:59:07Z</time>
  <course>349.58</course>
  <speed>0.12165525060596438</speed>
  <fix>3d</fix>
</trkpt>
<trkpt lat="-27.2721953" lon="151.2900637">
  <ele>443.14</ele>
  <time>2026-09-01T19:59:07Z</time>
  <course>6.41</course>
  <speed>0.12</speed>
  <fix>3d</fix>
</trkpt>
<trkpt lat="-27.2721951" lon="151.2900638">
  <ele>443.04</ele>
  <time>2026-09-01T19:59:07Z</time>
  <course>349.57</course>
  <speed>0.13152946437965907</speed>
  <fix>3d</fix>
</trkpt>
<trkpt lat="-27.2721953" lon="151.2900637">
  <ele>443.14</ele>
  <time>2026-09-01T19:59:07Z</time>
  <course>6.41</course>
  <speed>0.12</speed>
  <fix>3d</fix>
</trkpt>
<trkpt lat="-27.272195" lon="151.2900638">
  <ele>443.04</ele>
  <time>2026-09-01T19:59:07Z</time>
  <course>349.58</course>
  <speed>0.13152946437965907</speed>
  <fix>3d</fix>
</trkpt>
<trkpt lat="-27.2721951" lon="151.2900637">
  <ele>443.14</ele>
  <time>2026-09-01T19:59:07Z</time>
  <course>3.96</course>
  <speed>0.14</speed>
  <fix>3d</fix>
</trkpt>
<trkpt lat="-27.2721948" lon="151.2900638">
  <ele>443.04</ele>
  <time>2026-09-01T19:59:07Z</time>
  <course>349.6</course>
  <speed>0.1414213562373095</speed>
  <fix>3d</fix>
</trkpt>
<trkpt lat="-27.2721951" lon="151.2900637">
  <ele>443.14</ele>
  <time>2026-09-01T19:59:07Z</time>
  <course>3.96</course>
  <speed>0.14</speed>
  <fix>3d</fix>
</trkpt>
<trkpt lat="-27.2721947" lon="151.2900638">
  <ele>443.04</ele>
  <time>2026-09-01T19:59:07Z</time>
  <course>349.62</course>
  <speed>0.140356688476182</speed>
  <fix>3d</fix>
</trkpt>
<trkpt lat="-27.2721948" lon="151.2900637">
  <ele>443.14</ele>
  <time>2026-09-01T19:59:07Z</time>
  <course>1.91</course>
  <speed>0.15</speed>
  <fix>3d</fix>
</trkpt>
<trkpt lat="-27.2721945" lon="151.2900638">
  <ele>443.04</ele>
  <time>2026-09-01T19:59:07Z</time>
  <course>349.64</course>
  <speed>0.15033296378372907</speed>
  <fix>3d</fix>
</trkpt>
<trkpt lat="-27.2721948" lon="151.2900637">
  <ele>443.14</ele>
  <time>2026-09-01T19:59:07Z</time>
  <course>1.91</course>
  <speed>0.15</speed>
  <fix>3d</fix>
</trkpt>
<trkpt lat="-27.2721944" lon="151.2900638">
  <ele>443.04</ele>
  <time>2026-09-01T19:59:07Z</time>
  <course>349.65</course>
  <speed>0.15033296378372907</speed>
  <fix>3d</fix>
</trkpt>
<trkpt lat="-27.2721945" lon="151.2900637">
  <ele>443.14</ele>
  <time>2026-09-01T19:59:07Z</time>
  <course>0.26</course>
  <speed>0.16</speed>
  <fix>3d</fix>
</trkpt>
<trkpt lat="-27.2721942" lon="151.2900638">
  <ele>443.04</ele>
  <time>2026-09-01T19:59:07Z</time>
  <course>349.66</course>
  <speed>0.15033296378372907</speed>
  <fix>3d</fix>
</trkpt>
<trkpt lat="-27.2721945" lon="151.2900637">
  <ele>443.14</ele>
  <time>2026-09-01T19:59:07Z</time>
  <course>0.26</course>
  <speed>0.16</speed>
  <fix>3d</fix>
</trkpt>
<trkpt lat="-27.2721941" lon="151.2900638">
  <ele>443.04</ele>
  <time>2026-09-01T19:59:07Z</time>
  <course>349.66</course>
  <speed>0.15033296378372907</speed>
  <fix>3d</fix>
</trkpt>
<trkpt lat="-27.2721942" lon="151.2900637">
  <ele>443.14</ele>
  <time>2026-09-01T19:59:07Z</time>
  <course>359.01</course>
  <speed>0.17</speed>
  <fix>3d</fix>
</trkpt>
<trkpt lat="-27.2721939" lon="151.2900638">
  <ele>443.04</ele>
  <time>2026-09-01T19:59:07Z</time>
  <course>349.67</course>
  <speed>0.15033296378372907</speed>
  <fix>3d</fix>
</trkpt>
<trkpt lat="-27.2721942" lon="151.2900637">
  <ele>443.14</ele>
  <time>2026-09-01T19:59:07Z</time>
  <course>359.01</course>
  <speed>0.17</speed>
  <fix>3d</fix>
</trkpt>
<trkpt lat="-27.2721938" lon="151.2900638">
  <ele>443.04</ele>
  <time>2026-09-01T19:59:07Z</time>
  <course>349.66</course>
  <speed>0.14</speed>
  <fix>3d</fix>
</trkpt>
<trkpt lat="-27.2721939" lon="151.2900637">
  <ele>443.15</ele>
  <time>2026-09-01T19:59:07Z</time>
  <course>358.03</course>
  <speed>0.17</speed>
  <fix>3d</fix>
</trkpt>
<trkpt lat="-27.2721936" lon="151.2900638">
  <ele>443.05</ele>
  <time>2026-09-01T19:59:07Z</time>
  <course>349.65</course>
  <speed>0.14</speed>
  <fix>3d</fix>
</trkpt>
<trkpt lat="-27.2721939" lon="151.2900637">
  <ele>443.15</ele>
  <time>2026-09-01T19:59:07Z</time>
  <course>358.03</course>
  <speed>0.17</speed>
  <fix>3d</fix>
</trkpt>
<trkpt lat="-27.2721935" lon="151.2900638">
  <ele>443.05</ele>
  <time>2026-09-01T19:59:07Z</time>
  <course>349.65</course>
  <speed>0.14</speed>
  <fix>3d</fix>
</trkpt>
<trkpt lat="-27.2721936" lon="151.2900637">
  <ele>443.15</ele>
  <time>2026-09-01T19:59:07Z</time>
  <course>357.18</course>
  <speed>0.17</speed>
  <fix>3d</fix>
</trkpt>
<trkpt lat="-27.2721934" lon="151.2900638">
  <ele>443.05</ele>
  <time>2026-09-01T19:59:07Z</time>
  <course>349.64</course>
  <speed>0.13</speed>
  <fix>3d</fix>
</trkpt>
<trkpt lat="-27.2721936" lon="151.2900637">
  <ele>443.15</ele>
  <time>2026-09-01T19:59:07Z</time>
  <course>357.18</course>
  <speed>0.17</speed>
  <fix>3d</fix>
</trkpt>
<trkpt lat="-27.2721932" lon="151.2900638">
  <ele>443.05</ele>
  <time>2026-09-01T19:59:07Z</time>
  <course>349.64</course>
  <speed>0.13</speed>
  <fix>3d</fix>
</trkpt>
<trkpt lat="-27.2721933" lon="151.2900637">
  <ele>443.15</ele>
  <time>2026-09-01T19:59:07Z</time>
  <course>356.26</course>
  <speed>0.16</speed>
  <fix>3d</fix>
</trkpt>
<trkpt lat="-27.2721931" lon="151.2900638">
  <ele>443.05</ele>
  <time>2026-09-01T19:59:07Z</time>
  <course>349.64</course>
  <speed>0.13</speed>
  <fix>3d</fix>
</trkpt>
<trkpt lat="-27.2721933" lon="151.2900637">
  <ele>443.15</ele>
  <time>2026-09-01T19:59:07Z</time>
  <course>356.26</course>
  <speed>0.16</speed>
  <fix>3d</fix>
</trkpt>
<trkpt lat="-27.2721929" lon="151.2900638">
  <ele>443.05</ele>
  <time>2026-09-01T19:59:07Z</time>
  <course>349.64</course>
  <speed>0.12</speed>
  <fix>3d</fix>
</trkpt>
<trkpt lat="-27.272193" lon="151.2900637">
  <ele>443.16</ele>
  <time>2026-09-01T19:59:07Z</time>
  <course>355.26</course>
  <speed>0.15</speed>
  <fix>3d</fix>
</trkpt>
<trkpt lat="-27.2721928" lon="151.2900638">
  <ele>443.06</ele>
  <time>2026-09-01T19:59:07Z</time>
  <course>349.64</course>
  <speed>0.11</speed>
  <fix>3d</fix>
</trkpt>
<trkpt lat="-27.272193" lon="151.2900637">
  <ele>443.16</ele>
  <time>2026-09-01T19:59:07Z</time>
  <course>355.26</course>
  <speed>0.15</speed>
  <fix>3d</fix>
</trkpt>
<trkpt lat="-27.2721927" lon="151.2900638">
  <ele>443.06</ele>
  <time>2026-09-01T19:59:07Z</time>
  <course>349.65</course>
  <speed>0.11</speed>
  <fix>3d</fix>
</trkpt>
<trkpt lat="-27.2721927" lon="151.2900637">
  <ele>443.16</ele>
  <time>2026-09-01T19:59:07Z</time>
  <course>354.51</course>
  <speed>0.14</speed>
  <fix>3d</fix>
</trkpt>
<trkpt lat="-27.2721926" lon="151.2900638">
  <ele>443.06</ele>
  <time>2026-09-01T19:59:07Z</time>
  <course>349.65</course>
  <speed>0.1</speed>
  <fix>3d</fix>
</trkpt>
<trkpt lat="-27.2721927" lon="151.2900637">
  <ele>443.16</ele>
  <time>2026-09-01T19:59:07Z</time>
  <course>354.51</course>
  <speed>0.14</speed>
  <fix>3d</fix>
</trkpt>
<trkpt lat="-27.2721925" lon="151.2900638">
  <ele>443.06</ele>
  <time>2026-09-01T19:59:07Z</time>
  <course>349.65</course>
  <speed>0.09</speed>
  <fix>3d</fix>
</trkpt>
<trkpt lat="-27.2721925" lon="151.2900637">
  <ele>443.16</ele>
  <time>2026-09-01T19:59:07Z</time>
  <course>354.11</course>
  <speed>0.13</speed>
  <fix>3d</fix>
</trkpt>
<trkpt lat="-27.2721924" lon="151.2900638">
  <ele>443.06</ele>
  <time>2026-09-01T19:59:07Z</time>
  <course>349.65</course>
  <speed>0.08</speed>
  <fix>3d</fix>
</trkpt>
<trkpt lat="-27.2721925" lon="151.2900637">
  <ele>443.16</ele>
  <time>2026-09-01T19:59:07Z</time>
  <course>354.11</course>
  <speed>0.13</speed>
  <fix>3d</fix>
</trkpt>
<trkpt lat="-27.2721923" lon="151.2900638">
  <ele>443.06</ele>
  <time>2026-09-01T19:59:07Z</time>
  <course>349.64</course>
  <speed>0.08</speed>
  <fix>3d</fix>
</trkpt>
<trkpt lat="-27.2721922" lon="151.2900637">
  <ele>443.17</ele>
  <time>2026-09-01T19:59:07Z</time>
  <course>353.51</course>
  <speed>0.12</speed>
  <fix>3d</fix>
</trkpt>
<trkpt lat="-27.2721922" lon="151.2900638">
  <ele>443.06</ele>
  <time>2026-09-01T19:59:07Z</time>
  <course>349.64</course>
  <speed>0.07</speed>
  <fix>3d</fix>
</trkpt>
<trkpt lat="-27.2721922" lon="151.2900637">
  <ele>443.17</ele>
  <time>2026-09-01T19:59:07Z</time>
  <course>353.51</course>
  <speed>0.12</speed>
  <fix>3d</fix>
</trkpt>
<trkpt lat="-27.2721921" lon="151.2900638">
  <ele>443.06</ele>
  <time>2026-09-01T19:59:07Z</time>
  <course>349.64</course>
  <speed>0.06</speed>
  <fix>3d</fix>
</trkpt>
<trkpt lat="-27.272192" lon="151.2900637">
  <ele>443.17</ele>
  <time>2026-09-01T19:59:07Z</time>
  <course>352.13</course>
  <speed>0.1</speed>
  <fix>3d</fix>
</trkpt>
<trkpt lat="-27.272192" lon="151.2900638">
  <ele>443.07</ele>
  <time>2026-09-01T19:59:07Z</time>
  <course>349.64</course>
  <speed>0.05</speed>
  <fix>3d</fix>
</trkpt>
<trkpt lat="-27.272192" lon="151.2900637">
  <ele>443.17</ele>
  <time>2026-09-01T19:59:07Z</time>
  <course>352.13</course>
  <speed>0.1</speed>
  <fix>3d</fix>
</trkpt>
<trkpt lat="-27.272192" lon="151.2900637">
  <ele>443.07</ele>
  <time>2026-09-01T19:59:07Z</time>
  <course>349.65</course>
  <speed>0.04</speed>
  <fix>3d</fix>
</trkpt>
<trkpt lat="-27.2721919" lon="151.2900636">
  <ele>443.17</ele>
  <time>2026-09-01T19:59:07Z</time>
  <course>349.97</course>
  <speed>0.08</speed>
  <fix>3d</fix>
</trkpt>
<trkpt lat="-27.2721919" lon="151.2900637">
  <ele>443.07</ele>
  <time>2026-09-01T19:59:07Z</time>
  <course>349.65</course>
  <speed>0.03</speed>
  <fix>3d</fix>
</trkpt>
<trkpt lat="-27.2721919" lon="151.2900636">
  <ele>443.17</ele>
  <time>2026-09-01T19:59:07Z</time>
  <course>349.97</course>
  <speed>0.08</speed>
  <fix>3d</fix>
</trkpt>
<trkpt lat="-27.2721919" lon="151.2900637">
  <ele>443.07</ele>
  <time>2026-09-01T19:59:07Z</time>
  <course>349.65</course>
  <speed>0.02</speed>
  <fix>3d</fix>
</trkpt>
<trkpt lat="-27.2721917" lon="151.2900636">
  <ele>443.17</ele>
  <time>2026-09-01T19:59:07Z</time>
  <course>346.87</course>
  <speed>0.07</speed>
  <fix>3d</fix>
</trkpt>
<trkpt lat="-27.2721918" lon="151.2900637">
  <ele>443.07</ele>
  <time>2026-09-01T19:59:07Z</time>
  <course>349.65</course>
  <speed>0.01</speed>
  <fix>3d</fix>
</trkpt>
<trkpt lat="-27.2721917" lon="151.2900636">
  <ele>443.17</ele>
  <time>2026-09-01T19:59:07Z</time>
  <course>346.87</course>
  <speed>0.07</speed>
  <fix>3d</fix>
</trkpt>
<trkpt lat="-27.2721918" lon="151.2900637">
  <ele>443.07</ele>
  <time>2026-09-01T19:59:07Z</time>
  <course>349.65</course>
  <speed>0.0</speed>
  <fix>3d</fix>
</trkpt>
<trkpt lat="-27.2721916" lon="151.2900636">
  <ele>443.17</ele>
  <time>2026-09-01T19:59:07Z</time>
  <course>341.47</course>
  <speed>0.05</speed>
  <fix>3d</fix>
</trkpt>
<trkpt lat="-27.2721918" lon="151.2900637">
  <ele>443.06</ele>
  <time>2026-09-01T19:59:07Z</time>
  <course>349.65</course>
  <speed>0.0</speed>
  <fix>3d</fix>
</trkpt>
<trkpt lat="-27.2721916" lon="151.2900636">
  <ele>443.17</ele>
  <time>2026-09-01T19:59:07Z</time>
  <course>341.47</course>
  <speed>0.05</speed>
  <fix>3d</fix>
</trkpt>
<trkpt lat="-27.2721917" lon="151.2900637">
  <ele>443.06</ele>
  <time>2026-09-01T19:59:07Z</time>
  <course>349.65</course>
  <speed>0.0</speed>
  <fix>3d</fix>
</trkpt>
<trkpt lat="-27.2721915" lon="151.2900635">
  <ele>443.17</ele>
  <time>2026-09-01T19:59:07Z</time>
  <course>330.79</course>
  <speed>0.03</speed>
  <fix>3d</fix>
</trkpt>
<trkpt lat="-27.2721917" lon="151.2900637">
  <ele>443.06</ele>
  <time>2026-09-01T19:59:07Z</time>
  <course>349.65</course>
  <speed>0.01</speed>
  <fix>3d</fix>
</trkpt>
<trkpt lat="-27.2721915" lon="151.2900635">
  <ele>443.17</ele>
  <time>2026-09-01T19:59:07Z</time>
  <course>330.79</course>
  <speed>0.03</speed>
  <fix>3d</fix>
</trkpt>
<trkpt lat="-27.2721917" lon="151.2900637">
  <ele>443.06</ele>
  <time>2026-09-01T19:59:07Z</time>
  <course>349.65</course>
  <speed>0.02</speed>
  <fix>3d</fix>
</trkpt>
<trkpt lat="-27.2721915" lon="151.2900635">
  <ele>443.17</ele>
  <time>2026-09-01T19:59:07Z</time>
  <course>304.78</course>
  <speed>0.02</speed>
  <fix>3d</fix>
</trkpt>
<trkpt lat="-27.2721917" lon="151.2900636">
  <ele>443.06</ele>
  <time>2026-09-01T19:59:07Z</time>
  <course>349.65</course>
  <speed>0.03</speed>
  <fix>3d</fix>
</trkpt>
<trkpt lat="-27.2721915" lon="151.2900635">
  <ele>443.17</ele>
  <time>2026-09-01T19:59:07Z</time>
  <course>304.78</course>
  <speed>0.02</speed>
  <fix>3d</fix>
</trkpt>
<trkpt lat="-27.2721918" lon="151.2900636">
  <ele>443.06</ele>
  <time>2026-09-01T19:59:07Z</time>
  <course>349.65</course>
  <speed>0.04</speed>
  <fix>3d</fix>
</trkpt>
<trkpt lat="-27.2721915" lon="151.2900635">
  <ele>443.17</ele>
  <time>2026-09-01T19:59:07Z</time>
  <course>250.08</course>
  <speed>0.01</speed>
  <fix>3d</fix>
</trkpt>
<trkpt lat="-27.2721918" lon="151.2900636">
  <ele>443.06</ele>
  <time>2026-09-01T19:59:07Z</time>
  <course>349.66</course>
  <speed>0.04</speed>
  <fix>3d</fix>
</trkpt>
<trkpt lat="-27.2721915" lon="151.2900635">
  <ele>443.17</ele>
  <time>2026-09-01T19:59:07Z</time>
  <course>250.08</course>
  <speed>0.01</speed>
  <fix>3d</fix>
</trkpt>
<trkpt lat="-27.2721918" lon="151.2900636">
  <ele>443.06</ele>
  <time>2026-09-01T19:59:07Z</time>
  <course>349.65</course>
  <speed>0.05</speed>
  <fix>3d</fix>
</trkpt>
<trkpt lat="-27.2721915" lon="151.2900634">
  <ele>443.17</ele>
  <time>2026-09-01T19:59:07Z</time>
  <course>215.63</course>
  <speed>0.02</speed>
  <fix>3d</fix>
</trkpt>
<trkpt lat="-27.2721918" lon="151.2900636">
  <ele>443.07</ele>
  <time>2026-09-01T19:59:07Z</time>
  <course>349.65</course>
  <speed>0.06</speed>
  <fix>3d</fix>
</trkpt>
<trkpt lat="-27.2721915" lon="151.2900634">
  <ele>443.17</ele>
  <time>2026-09-01T19:59:07Z</time>
  <course>215.63</course>
  <speed>0.02</speed>
  <fix>3d</fix>
</trkpt>
<trkpt lat="-27.2721918" lon="151.2900636">
  <ele>443.07</ele>
  <time>2026-09-01T19:59:07Z</time>
  <course>349.65</course>
  <speed>0.06</speed>
  <fix>3d</fix>
</trkpt>
<trkpt lat="-27.2721916" lon="151.2900633">
  <ele>443.17</ele>
  <time>2026-09-01T19:59:07Z</time>
  <course>202.38</course>
  <speed>0.03</speed>
  <fix>3d</fix>
</trkpt>
<trkpt lat="-27.2721918" lon="151.2900636">
  <ele>443.07</ele>
  <time>2026-09-01T19:59:07Z</time>
  <course>349.65</course>
  <speed>0.07</speed>
  <fix>3d</fix>
</trkpt>
<trkpt lat="-27.2721916" lon="151.2900633">
  <ele>443.17</ele>
  <time>2026-09-01T19:59:07Z</time>
  <course>202.38</course>
  <speed>0.03</speed>
  <fix>3d</fix>
</trkpt>
<trkpt lat="-27.2721919" lon="151.2900635">
  <ele>443.06</ele>
  <time>2026-09-01T19:59:07Z</time>
  <course>349.66</course>
  <speed>0.07</speed>
  <fix>3d</fix>
</trkpt>
<trkpt lat="-27.2721916" lon="151.2900633">
  <ele>443.17</ele>
  <time>2026-09-01T19:59:07Z</time>
  <course>196.03</course>
  <speed>0.05</speed>
  <fix>3d</fix>
</trkpt>
<trkpt lat="-27.2721919" lon="151.2900635">
  <ele>443.06</ele>
  <time>2026-09-01T19:59:07Z</time>
  <course>349.66</course>
  <speed>0.08</speed>
  <fix>3d</fix>
</trkpt>
<trkpt lat="-27.2721916" lon="151.2900633">
  <ele>443.17</ele>
  <time>2026-09-01T19:59:07Z</time>
  <course>196.03</course>
  <speed>0.05</speed>
  <fix>3d</fix>
</trkpt>
<trkpt lat="-27.272192" lon="151.2900635">
  <ele>443.06</ele>
  <time>2026-09-01T19:59:07Z</time>
  <course>349.67</course>
  <speed>0.08</speed>
  <fix>3d</fix>
</trkpt>
<trkpt lat="-27.2721916" lon="151.2900633">
  <ele>443.17</ele>
  <time>2026-09-01T19:59:07Z</time>
  <course>192.05</course>
  <speed>0.06</speed>
  <fix>3d</fix>
</trkpt>
<trkpt lat="-27.272192" lon="151.2900635">
  <ele>443.06</ele>
  <time>2026-09-01T19:59:07Z</time>
  <course>349.67</course>
  <speed>0.08</speed>
  <fix>3d</fix>
</trkpt>
<trkpt lat="-27.2721916" lon="151.2900633">
  <ele>443.17</ele>
  <time>2026-09-01T19:59:07Z</time>
  <course>192.05</course>
  <speed>0.06</speed>
  <fix>3d</fix>
</trkpt>
<trkpt lat="-27.2721921" lon="151.2900635">
  <ele>443.06</ele>
  <time>2026-09-01T19:59:07Z</time>
  <course>349.66</course>
  <speed>0.09</speed>
  <fix>3d</fix>
</trkpt>
<trkpt lat="-27.2721918" lon="151.2900633">
  <ele>443.17</ele>
  <time>2026-09-01T19:59:07Z</time>
  <course>189.13</course>
  <speed>0.07</speed>
  <fix>3d</fix>
</trkpt>
<trkpt lat="-27.2721921" lon="151.2900635">
  <ele>443.06</ele>
  <time>2026-09-01T19:59:07Z</time>
  <course>349.66</course>
  <speed>0.09</speed>
  <fix>3d</fix>
</trkpt>
<trkpt lat="-27.2721918" lon="151.2900633">
  <ele>443.17</ele>
  <time>2026-09-01T19:59:07Z</time>
  <course>189.13</course>
  <speed>0.07</speed>
  <fix>3d</fix>
</trkpt>
<trkpt lat="-27.2721922" lon="151.2900635">
  <ele>443.06</ele>
  <time>2026-09-01T19:59:07Z</time>
  <course>349.65</course>
  <speed>0.09055385138137417</speed>
  <fix>3d</fix>
</trkpt>
<trkpt lat="-27.2721919" lon="151.2900632">
  <ele>443.17</ele>
  <time>2026-09-01T19:59:07Z</time>
  <course>187.12</course>
  <speed>0.07</speed>
  <fix>3d</fix>
</trkpt>
<trkpt lat="-27.2721923" lon="151.2900635">
  <ele>443.06</ele>
  <time>2026-09-01T19:59:08Z</time>
  <course>349.66</course>
  <speed>0.09055385138137417</speed>
  <fix>3d</fix>
</trkpt>
<trkpt lat="-27.2721919" lon="151.2900632">
  <ele>443.17</ele>
  <time>2026-09-01T19:59:08Z</time>
  <course>187.12</course>
  <speed>0.07</speed>
  <fix>3d</fix>
</trkpt>
<trkpt lat="-27.2721923" lon="151.2900634">
  <ele>443.06</ele>
  <time>2026-09-01T19:59:08Z</time>
  <course>349.66</course>
  <speed>0.09055385138137417</speed>
  <fix>3d</fix>
</trkpt>
<trkpt lat="-27.272192" lon="151.2900632">
  <ele>443.17</ele>
  <time>2026-09-01T19:59:08Z</time>
  <course>185.46</course>
  <speed>0.08</speed>
  <fix>3d</fix>
</trkpt>
<trkpt lat="-27.2721924" lon="151.2900634">
  <ele>443.06</ele>
  <time>2026-09-01T19:59:08Z</time>
  <course>349.66</course>
  <speed>0.08062257748298549</speed>
  <fix>3d</fix>
</trkpt>
<trkpt lat="-27.272192" lon="151.2900632">
  <ele>443.17</ele>
  <time>2026-09-01T19:59:08Z</time>
  <course>185.46</course>
  <speed>0.08</speed>
  <fix>3d</fix>
</trkpt>
<trkpt lat="-27.2721924" lon="151.2900634">
  <ele>443.07</ele>
  <time>2026-09-01T19:59:08Z</time>
  <course>349.66</course>
  <speed>0.03</speed>
  <fix>3d</fix>
</trkpt>
<trkpt lat="-27.2721922" lon="151.2900632">
  <ele>443.18</ele>
  <time>2026-09-01T19:59:08Z</time>
  <course>184.34</course>
  <speed>0.07</speed>
  <fix>3d</fix>
</trkpt>
<trkpt lat="-27.2721924" lon="151.2900634">
  <ele>443.07</ele>
  <time>2026-09-01T19:59:08Z</time>
  <course>349.67</course>
  <speed>0.07071067811865475</speed>
  <fix>3d</fix>
</trkpt>
<trkpt lat="-27.2721922" lon="151.2900632">
  <ele>443.18</ele>
  <time>2026-09-01T19:59:08Z</time>
  <course>184.34</course>
  <speed>0.07</speed>
  <fix>3d</fix>
</trkpt>
<trkpt lat="-27.2721923" lon="151.2900634">
  <ele>443.07</ele>
  <time>2026-09-01T19:59:08Z</time>
  <course>349.61</course>
  <speed>0.23345235059857505</speed>
  <fix>3d</fix>
</trkpt>
<trkpt lat="-27.2721923" lon="151.2900632">
  <ele>443.18</ele>
  <time>2026-09-01T19:59:08Z</time>
  <course>269.71</course>
  <speed>0.01</speed>
  <fix>3d</fix>
</trkpt>
<trkpt lat="-27.272192" lon="151.2900633">
  <ele>443.07</ele>
  <time>2026-09-01T19:59:08Z</time>
  <course>349.41</course>
  <speed>0.47675989764240867</speed>
  <fix>3d</fix>
</trkpt>
<trkpt lat="-27.2721923" lon="151.2900632">
  <ele>443.18</ele>
  <time>2026-09-01T19:59:08Z</time>
  <course>269.71</course>
  <speed>0.01</speed>
  <fix>3d</fix>
</trkpt>
<trkpt lat="-27.2721915" lon="151.2900631">
  <ele>443.08</ele>
  <time>2026-09-01T19:59:08Z</time>
  <course>349.11</course>
  <speed>0.762954782408499</speed>
  <fix>3d</fix>
</trkpt>
<trkpt lat="-27.2721921" lon="151.2900632">
  <ele>443.18</ele>
  <time>2026-09-01T19:59:08Z</time>
  <course>345.7</course>
  <speed>0.27</speed>
  <fix>3d</fix>
</trkpt>
<trkpt lat="-27.2721906" lon="151.2900629">
  <ele>443.08</ele>
  <time>2026-09-01T19:59:08Z</time>
  <course>348.84</course>
  <speed>1.1217842929904127</speed>
  <fix>3d</fix>
</trkpt>
<trkpt lat="-27.2721921" lon="151.2900632">
  <ele>443.18</ele>
  <time>2026-09-01T19:59:08Z</time>
  <course>345.7</course>
  <speed>0.27</speed>
  <fix>3d</fix>
</trkpt>
<trkpt lat="-27.2721894" lon="151.2900626">
  <ele>443.08</ele>
  <time>2026-09-01T19:59:08Z</time>
  <course>348.57</course>
  <speed>1.5435349040433133</speed>
  <fix>3d</fix>
</trkpt>
<trkpt lat="-27.2721913" lon="151.2900629">
  <ele>443.18</ele>
  <time>2026-09-01T19:59:08Z</time>
  <course>347.28</course>
  <speed>0.79</speed>
  <fix>3d</fix>
</trkpt>
<trkpt lat="-27.2721879" lon="151.2900622">
  <ele>443.08</ele>
  <time>2026-09-01T19:59:08Z</time>
  <course>348.22</course>
  <speed>2.026153992173349</speed>
  <fix>3d</fix>
</trkpt>
<trkpt lat="-27.2721913" lon="151.2900629">
  <ele>443.18</ele>
  <time>2026-09-01T19:59:08Z</time>
  <course>347.28</course>
  <speed>0.79</speed>
  <fix>3d</fix>
</trkpt>
<trkpt lat="-27.2721859" lon="151.2900617">
  <ele>443.08</ele>
  <time>2026-09-01T19:59:08Z</time>
  <course>347.8</course>
  <speed>2.5641567814780752</speed>
  <fix>3d</fix>
</trkpt>
<trkpt lat="-27.2721892" lon="151.2900624">
  <ele>443.18</ele>
  <time>2026-09-01T19:59:08Z</time>
  <course>346.97</course>
  <speed>1.56</speed>
  <fix>3d</fix>
</trkpt>
<trkpt lat="-27.2721834" lon="151.290061">
  <ele>443.08</ele>
  <time>2026-09-01T19:59:08Z</time>
  <course>347.28</course>
  <speed>3.1653277871335854</speed>
  <fix>3d</fix>
</trkpt>
<trkpt lat="-27.2721892" lon="151.2900624">
  <ele>443.18</ele>
  <time>2026-09-01T19:59:08Z</time>
  <course>346.97</course>
  <speed>1.56</speed>
  <fix>3d</fix>
</trkpt>
<trkpt lat="-27.2721803" lon="151.2900602">
  <ele>443.09</ele>
  <time>2026-09-01T19:59:08Z</time>
  <course>346.82</course>
  <speed>3.771432088742949</speed>
  <fix>3d</fix>
</trkpt>
<trkpt lat="-27.2721856" lon="151.2900614">
  <ele>443.18</ele>
  <time>2026-09-01T19:59:08Z</time>
  <course>346.23</course>
  <speed>2.58</speed>
  <fix>3d</fix>
</trkpt>
<trkpt lat="-27.2721768" lon="151.2900591">
  <ele>443.09</ele>
  <time>2026-09-01T19:59:08Z</time>
  <course>346.27</course>
  <speed>4.380365281571846</speed>
  <fix>3d</fix>
</trkpt>
<trkpt lat="-27.2721856" lon="151.2900614">
  <ele>443.18</ele>
  <time>2026-09-01T19:59:08Z</time>
  <course>346.23</course>
  <speed>2.58</speed>
  <fix>3d</fix>
</trkpt>
<trkpt lat="-27.2721727" lon="151.2900579">
  <ele>443.1</ele>
  <time>2026-09-01T19:59:08Z</time>
  <course>345.53</course>
  <speed>4.987835201768398</speed>
  <fix>3d</fix>
</trkpt>
<trkpt lat="-27.2721801" lon="151.2900599">
  <ele>443.19</ele>
  <time>2026-09-01T19:59:08Z</time>
  <course>345.28</course>
  <speed>3.76</speed>
  <fix>3d</fix>
</trkpt>
<trkpt lat="-27.2721681" lon="151.2900564">
  <ele>443.1</ele>
  <time>2026-09-01T19:59:08Z</time>
  <course>344.72</course>
  <speed>5.6112119902922935</speed>
  <fix>3d</fix>
</trkpt>
<trkpt lat="-27.2721801" lon="151.2900599">
  <ele>443.19</ele>
  <time>2026-09-01T19:59:08Z</time>
  <course>345.28</course>
  <speed>3.76</speed>
  <fix>3d</fix>
</trkpt>
<trkpt lat="-27.2721631" lon="151.2900547">
  <ele>443.11</ele>
  <time>2026-09-01T19:59:08Z</time>
  <course>343.81</course>
  <speed>6.212567907073532</speed>
  <fix>3d</fix>
</trkpt>
<trkpt lat="-27.2721725" lon="151.2900575">
  <ele>443.19</ele>
  <time>2026-09-01T19:59:08Z</time>
  <course>344.04</course>
  <speed>4.98</speed>
  <fix>3d</fix>
</trkpt>
<trkpt lat="-27.2721575" lon="151.2900526">
  <ele>443.11</ele>
  <time>2026-09-01T19:59:08Z</time>
  <course>342.79</course>
  <speed>6.827481233954437</speed>
  <fix>3d</fix>
</trkpt>
<trkpt lat="-27.2721725" lon="151.2900575">
  <ele>443.19</ele>
  <time>2026-09-01T19:59:08Z</time>
  <course>344.04</course>
  <speed>4.98</speed>
  <fix>3d</fix>
</trkpt>
<trkpt lat="-27.2721514" lon="151.2900503">
  <ele>443.12</ele>
  <time>2026-09-01T19:59:08Z</time>
  <course>341.74</course>
  <speed>7.431958019257106</speed>
  <fix>3d</fix>
</trkpt>
<trkpt lat="-27.2721629" lon="151.2900542">
  <ele>443.2</ele>
  <time>2026-09-01T19:59:08Z</time>
  <course>342.36</course>
  <speed>6.21</speed>
  <fix>3d</fix>
</trkpt>
<trkpt lat="-27.272145" lon="151.2900476">
  <ele>443.12</ele>
  <time>2026-09-01T19:59:08Z</time>
  <course>340.73</course>
  <speed>8.030255288594505</speed>
  <fix>3d</fix>
</trkpt>
<trkpt lat="-27.2721629" lon="151.2900542">
  <ele>443.2</ele>
  <time>2026-09-01T19:59:08Z</time>
  <course>342.36</course>
  <speed>6.21</speed>
  <fix>3d</fix>
</trkpt>
<trkpt lat="-27.272138" lon="151.2900446">
  <ele>443.13</ele>
  <time>2026-09-01T19:59:08Z</time>
  <course>339.53</course>
  <speed>8.63674128360923</speed>
  <fix>3d</fix>
</trkpt>
<trkpt lat="-27.2721513" lon="151.2900498">
  <ele>443.22</ele>
  <time>2026-09-01T19:59:08Z</time>
  <course>340.32</course>
  <speed>7.42</speed>
  <fix>3d</fix>
</trkpt>
<trkpt lat="-27.2721306" lon="151.2900411">
  <ele>443.14</ele>
  <time>2026-09-01T19:59:08Z</time>
  <course>338.15</course>
  <speed>9.230926280715277</speed>
  <fix>3d</fix>
</trkpt>
<trkpt lat="-27.2721513" lon="151.2900498">
  <ele>443.22</ele>
  <time>2026-09-01T19:59:08Z</time>
  <course>340.32</course>
  <speed>7.42</speed>
  <fix>3d</fix>
</trkpt>
<trkpt lat="-27.2721227" lon="151.2900372">
  <ele>443.15</ele>
  <time>2026-09-01T19:59:08Z</time>
  <course>336.69</course>
  <speed>9.82369584219707</speed>
  <fix>3d</fix>
</trkpt>
<trkpt lat="-27.2721377" lon="151.2900441">
  <ele>443.23</ele>
  <time>2026-09-01T19:59:08Z</time>
  <course>337.96</course>
  <speed>8.63</speed>
  <fix>3d</fix>
</trkpt>
<trkpt lat="-27.2721145" lon="151.2900328">
  <ele>443.15</ele>
  <time>2026-09-01T19:59:08Z</time>
  <course>335.26</course>
  <speed>10.402941891599703</speed>
  <fix>3d</fix>
</trkpt>
<trkpt lat="-27.2721377" lon="151.2900441">
  <ele>443.23</ele>
  <time>2026-09-01T19:59:08Z</time>
  <course>337.96</course>
  <speed>8.63</speed>
  <fix>3d</fix>
</trkpt>
<trkpt lat="-27.2721059" lon="151.2900279">
  <ele>443.17</ele>
  <time>2026-09-01T19:59:08Z</time>
  <course>333.91</course>
  <speed>10.962454104807007</speed>
  <fix>3d</fix>
</trkpt>
<trkpt lat="-27.2721225" lon="151.2900366">
  <ele>443.24</ele>
  <time>2026-09-01T19:59:08Z</time>
  <course>335.28</course>
  <speed>9.81</speed>
  <fix>3d</fix>
</trkpt>
<trkpt lat="-27.272097" lon="151.2900225">
  <ele>443.18</ele>
  <time>2026-09-01T19:59:08Z</time>
  <course>332.42</course>
  <speed>11.507814736082608</speed>
  <fix>3d</fix>
</trkpt>
<trkpt lat="-27.2721225" lon="151.2900366">
  <ele>443.24</ele>
  <time>2026-09-01T19:59:08Z</time>
  <course>335.28</course>
  <speed>9.81</speed>
  <fix>3d</fix>
</trkpt>
<trkpt lat="-27.2720878" lon="151.2900165">
  <ele>443.19</ele>
  <time>2026-09-01T19:59:08Z</time>
  <course>330.84</course>
  <speed>12.049846472051003</speed>
  <fix>3d</fix>
</trkpt>
<trkpt lat="-27.2721058" lon="151.2900274">
  <ele>443.26</ele>
  <time>2026-09-01T19:59:08Z</time>
  <course>332.34</course>
  <speed>10.96</speed>
  <fix>3d</fix>
</trkpt>
<trkpt lat="-27.2720784" lon="151.29001">
  <ele>443.22</ele>
  <time>2026-09-01T19:59:08Z</time>
  <course>329.29</course>
  <speed>12.571590989210554</speed>
  <fix>3d</fix>
</trkpt>
<trkpt lat="-27.2721058" lon="151.2900274">
  <ele>443.26</ele>
  <time>2026-09-01T19:59:08Z</time>
  <course>332.34</course>
  <speed>10.96</speed>
  <fix>3d</fix>
</trkpt>
<trkpt lat="-27.2720688" lon="151.290003">
  <ele>443.24</ele>
  <time>2026-09-01T19:59:08Z</time>
  <course>327.75</course>
  <speed>13.065963416449627</speed>
  <fix>3d</fix>
</trkpt>
<trkpt lat="-27.2720878" lon="151.2900161">
  <ele>443.28</ele>
  <time>2026-09-01T19:59:08Z</time>
  <course>329.28</course>
  <speed>12.04</speed>
  <fix>3d</fix>
</trkpt>
<trkpt lat="-27.2720591" lon="151.2899954">
  <ele>443.28</ele>
  <time>2026-09-01T19:59:08Z</time>
  <course>326.2</course>
  <speed>13.553497703545014</speed>
  <fix>3d</fix>
</trkpt>
<trkpt lat="-27.2720878" lon="151.2900161">
  <ele>443.28</ele>
  <time>2026-09-01T19:59:08Z</time>
  <course>329.28</course>
  <speed>12.04</speed>
  <fix>3d</fix>
</trkpt>
<trkpt lat="-27.2720493" lon="151.2899874">
  <ele>443.31</ele>
  <time>2026-09-01T19:59:08Z</time>
  <course>324.61</course>
  <speed>14.018024111835448</speed>
  <fix>3d</fix>
</trkpt>
<trkpt lat="-27.2720687" lon="151.2900025">
  <ele>443.33</ele>
  <time>2026-09-01T19:59:08Z</time>
  <course>326.19</course>
  <speed>13.07</speed>
  <fix>3d</fix>
</trkpt>
<trkpt lat="-27.2720393" lon="151.2899787">
  <ele>443.35</ele>
  <time>2026-09-01T19:59:08Z</time>
  <course>323.14</course>
  <speed>14.469948168531909</speed>
  <fix>3d</fix>
</trkpt>
<trkpt lat="-27.2720687" lon="151.2900025">
  <ele>443.33</ele>
  <time>2026-09-01T19:59:08Z</time>
  <course>326.19</course>
  <speed>13.07</speed>
  <fix>3d</fix>
</trkpt>
<trkpt lat="-27.2720291" lon="151.2899695">
  <ele>443.4</ele>
  <time>2026-09-01T19:59:08Z</time>
  <course>321.76</course>
  <speed>14.913778863856068</speed>
  <fix>3d</fix>
</trkpt>
<trkpt lat="-27.2720488" lon="151.2899866">
  <ele>443.4</ele>
  <time>2026-09-01T19:59:08Z</time>
  <course>323.14</course>
  <speed>14.05</speed>
  <fix>3d</fix>
</trkpt>
<trkpt lat="-27.2720189" lon="151.2899596">
  <ele>443.44</ele>
  <time>2026-09-01T19:59:08Z</time>
  <course>320.39</course>
  <speed>15.352615412365413</speed>
  <fix>3d</fix>
</trkpt>
<trkpt lat="-27.2720488" lon="151.2899866">
  <ele>443.4</ele>
  <time>2026-09-01T19:59:08Z</time>
  <course>323.14</course>
  <speed>14.05</speed>
  <fix>3d</fix>
</trkpt>
<trkpt lat="-27.2720085" lon="151.2899492">
  <ele>443.49</ele>
  <time>2026-09-01T19:59:08Z</time>
  <course>319.0</course>
  <speed>15.778228671178525</speed>
  <fix>3d</fix>
</trkpt>
<trkpt lat="-27.2720283" lon="151.2899684">
  <ele>443.47</ele>
  <time>2026-09-01T19:59:08Z</time>
  <course>320.25</course>
  <speed>14.97</speed>
  <fix>3d</fix>
</trkpt>
<trkpt lat="-27.2719981" lon="151.2899382">
  <ele>443.53</ele>
  <time>2026-09-01T19:59:08Z</time>
  <course>317.75</course>
  <speed>16.18310847766893</speed>
  <fix>3d</fix>
</trkpt>
<trkpt lat="-27.2720283" lon="151.2899684">
  <ele>443.47</ele>
  <time>2026-09-01T19:59:08Z</time>
  <course>320.25</course>
  <speed>14.97</speed>
  <fix>3d</fix>
</trkpt>
<trkpt lat="-27.2719876" lon="151.2899267">
  <ele>443.57</ele>
  <time>2026-09-01T19:59:08Z</time>
  <course>316.6</course>
  <speed>16.51803862448566</speed>
  <fix>3d</fix>
</trkpt>
<trkpt lat="-27.2720075" lon="151.2899479">
  <ele>443.56</ele>
  <time>2026-09-01T19:59:08Z</time>
  <course>317.55</course>
  <speed>15.84</speed>
  <fix>3d</fix>
</trkpt>
<trkpt lat="-27.2719771" lon="151.2899147">
  <ele>443.6</ele>
  <time>2026-09-01T19:59:08Z</time>
  <course>315.37</course>
  <speed>16.825638175118353</speed>
  <fix>3d</fix>
</trkpt>
<trkpt lat="-27.2720075" lon="151.2899479">
  <ele>443.56</ele>
  <time>2026-09-01T19:59:08Z</time>
  <course>317.55</course>
  <speed>15.84</speed>
  <fix>3d</fix>
</trkpt>
<trkpt lat="-27.2719667" lon="151.2899022">
  <ele>443.64</ele>
  <time>2026-09-01T19:59:08Z</time>
  <course>314.15</course>
  <speed>17.099520461112352</speed>
  <fix>3d</fix>
</trkpt>
<trkpt lat="-27.2719864" lon="151.2899252">
  <ele>443.63</ele>
  <time>2026-09-01T19:59:08Z</time>
  <course>315.0</course>
  <speed>16.59</speed>
  <fix>3d</fix>
</trkpt>
<trkpt lat="-27.2719564" lon="151.2898893">
  <ele>443.68</ele>
  <time>2026-09-01T19:59:08Z</time>
  <course>312.93</course>
  <speed>17.33279550447648</speed>
  <fix>3d</fix>
</trkpt>
<trkpt lat="-27.2719864" lon="151.2899252">
  <ele>443.63</ele>
  <time>2026-09-01T19:59:08Z</time>
  <course>315.0</course>
  <speed>16.59</speed>
  <fix>3d</fix>
</trkpt>
<trkpt lat="-27.2719463" lon="151.289876">
  <ele>443.73</ele>
  <time>2026-09-01T19:59:08Z</time>
  <course>311.8</course>
  <speed>17.553942577096464</speed>
  <fix>3d</fix>
</trkpt>
<trkpt lat="-27.2719654" lon="151.2899005">
  <ele>443.71</ele>
  <time>2026-09-01T19:59:08Z</time>
  <course>312.49</course>
  <speed>17.18</speed>
  <fix>3d</fix>
</trkpt>
<trkpt lat="-27.2719362" lon="151.2898622">
  <ele>443.77</ele>
  <time>2026-09-01T19:59:08Z</time>
  <course>310.67</course>
  <speed>17.763211984323103</speed>
  <fix>3d</fix>
</trkpt>
<trkpt lat="-27.2719654" lon="151.2899005">
  <ele>443.71</ele>
  <time>2026-09-01T19:59:08Z</time>
  <course>312.49</course>
  <speed>17.18</speed>
  <fix>3d</fix>
</trkpt>
<trkpt lat="-27.2719263" lon="151.289848">
  <ele>443.82</ele>
  <time>2026-09-01T19:59:08Z</time>
  <course>309.28</course>
  <speed>17.97492141846523</speed>
  <fix>3d</fix>
</trkpt>
<trkpt lat="-27.2719448" lon="151.289874">
  <ele>443.78</ele>
  <time>2026-09-01T19:59:08Z</time>
  <course>309.95</course>
  <speed>17.65</speed>
  <fix>3d</fix>
</trkpt>
<trkpt lat="-27.2719166" lon="151.2898334">
  <ele>443.87</ele>
  <time>2026-09-01T19:59:08Z</time>
  <course>307.8</course>
  <speed>18.171584961141942</speed>
  <fix>3d</fix>
</trkpt>
<trkpt lat="-27.2719448" lon="151.289874">
  <ele>443.78</ele>
  <time>2026-09-01T19:59:08Z</time>
  <course>309.95</course>
  <speed>17.65</speed>
  <fix>3d</fix>
</trkpt>
<trkpt lat="-27.271907" lon="151.2898182">
  <ele>443.91</ele>
  <time>2026-09-01T19:59:08Z</time>
  <course>306.22</course>
  <speed>18.38295406075966</speed>
  <fix>3d</fix>
</trkpt>
<trkpt lat="-27.2719247" lon="151.2898459">
  <ele>443.88</ele>
  <time>2026-09-01T19:59:08Z</time>
  <course>307.38</course>
  <speed>18.07</speed>
  <fix>3d</fix>
</trkpt>
<trkpt lat="-27.2718977" lon="151.2898027">
  <ele>443.96</ele>
  <time>2026-09-01T19:59:08Z</time>
  <course>304.56</course>
  <speed>18.572035429645293</speed>
  <fix>3d</fix>
</trkpt>
<trkpt lat="-27.2719247" lon="151.2898459">
  <ele>443.88</ele>
  <time>2026-09-01T19:59:08Z</time>
  <course>307.38</course>
  <speed>18.07</speed>
  <fix>3d</fix>
</trkpt>
<trkpt lat="-27.2718886" lon="151.2897868">
  <ele>444.01</ele>
  <time>2026-09-01T19:59:08Z</time>
  <course>302.86</course>
  <speed>18.77513515264271</speed>
  <fix>3d</fix>
</trkpt>
<trkpt lat="-27.2719054" lon="151.289816">
  <ele>443.97</ele>
  <time>2026-09-01T19:59:08Z</time>
  <course>304.65</course>
  <speed>18.48</speed>
  <fix>3d</fix>
</trkpt>
<trkpt lat="-27.2718799" lon="151.2897704">
  <ele>444.06</ele>
  <time>2026-09-01T19:59:08Z</time>
  <course>301.09</course>
  <speed>18.95382283340224</speed>
  <fix>3d</fix>
</trkpt>
<trkpt lat="-27.2719054" lon="151.289816">
  <ele>443.97</ele>
  <time>2026-09-01T19:59:08Z</time>
  <course>304.65</course>
  <speed>18.48</speed>
  <fix>3d</fix>
</trkpt>
<trkpt lat="-27.2718716" lon="151.2897536">
  <ele>444.11</ele>
  <time>2026-09-01T19:59:08Z</time>
  <course>299.22</course>
  <speed>19.142941257810932</speed>
  <fix>3d</fix>
</trkpt>
<trkpt lat="-27.2718871" lon="151.2897844">
  <ele>444.07</ele>
  <time>2026-09-01T19:59:08Z</time>
  <course>301.57</course>
  <speed>18.87</speed>
  <fix>3d</fix>
</trkpt>
<trkpt lat="-27.2718637" lon="151.2897364">
  <ele>444.15</ele>
  <time>2026-09-01T19:59:08Z</time>
  <course>297.3</course>
  <speed>19.324662998355237</speed>
  <fix>3d</fix>
</trkpt>
<trkpt lat="-27.2718871" lon="151.2897844">
  <ele>444.07</ele>
  <time>2026-09-01T19:59:08Z</time>
  <course>301.57</course>
  <speed>18.87</speed>
  <fix>3d</fix>
</trkpt>
<trkpt lat="-27.2718563" lon="151.2897187">
  <ele>444.2</ele>
  <time>2026-09-01T19:59:08Z</time>
  <course>295.27</course>
  <speed>19.503809884225184</speed>
  <fix>3d</fix>
</trkpt>
<trkpt lat="-27.27187" lon="151.289751">
  <ele>444.16</ele>
  <time>2026-09-01T19:59:08Z</time>
  <course>298.05</course>
  <speed>19.24</speed>
  <fix>3d</fix>
</trkpt>
<trkpt lat="-27.2718494" lon="151.2897006">
  <ele>444.24</ele>
  <time>2026-09-01T19:59:08Z</time>
  <course>293.27</course>
  <speed>19.680020325192757</speed>
  <fix>3d</fix>
</trkpt>
<trkpt lat="-27.27187" lon="151.289751">
  <ele>444.16</ele>
  <time>2026-09-01T19:59:08Z</time>
  <course>298.05</course>
  <speed>19.24</speed>
  <fix>3d</fix>
</trkpt>
<trkpt lat="-27.2718431" lon="151.2896821">
  <ele>444.28</ele>
  <time>2026-09-01T19:59:08Z</time>
  <course>291.13</course>
  <speed>19.857300924345182</speed>
  <fix>3d</fix>
</trkpt>
<trkpt lat="-27.2718547" lon="151.2897156">
  <ele>444.25</ele>
  <time>2026-09-01T19:59:08Z</time>
  <course>294.04</course>
  <speed>19.6</speed>
  <fix>3d</fix>
</trkpt>
<trkpt lat="-27.2718374" lon="151.2896631">
  <ele>444.32</ele>
  <time>2026-09-01T19:59:08Z</time>
  <course>288.9</course>
  <speed>20.033342207430092</speed>
  <fix>3d</fix>
</trkpt>
<trkpt lat="-27.2718547" lon="151.2897156">
  <ele>444.25</ele>
  <time>2026-09-01T19:59:08Z</time>
  <course>294.04</course>
  <speed>19.6</speed>
  <fix>3d</fix>
</trkpt>
<trkpt lat="-27.2718322" lon="151.2896435">
  <ele>444.35</ele>
  <time>2026-09-01T19:59:08Z</time>
  <course>286.59</course>
  <speed>20.205910026524418</speed>
  <fix>3d</fix>
</trkpt>
<trkpt lat="-27.2718414" lon="151.2896784">
  <ele>444.33</ele>
  <time>2026-09-01T19:59:08Z</time>
  <course>289.66</course>
  <speed>19.95</speed>
  <fix>3d</fix>
</trkpt>
<trkpt lat="-27.2718279" lon="151.2896237">
  <ele>444.38</ele>
  <time>2026-09-01T19:59:08Z</time>
  <course>284.29</course>
  <speed>20.379541211715242</speed>
  <fix>3d</fix>
</trkpt>
<trkpt lat="-27.2718414" lon="151.2896784">
  <ele>444.33</ele>
  <time>2026-09-01T19:59:08Z</time>
  <course>289.66</course>
  <speed>19.95</speed>
  <fix>3d</fix>
</trkpt>
<trkpt lat="-27.2718241" lon="151.2896034">
  <ele>444.4</ele>
  <time>2026-09-01T19:59:08Z</time>
  <course>281.92</course>
  <speed>20.56117700911113</speed>
  <fix>3d</fix>
</trkpt>
<trkpt lat="-27.2718307" lon="151.2896397">
  <ele>444.4</ele>
  <time>2026-09-01T19:59:08Z</time>
  <course>285.01</course>
  <speed>20.31</speed>
  <fix>3d</fix>
</trkpt>
<trkpt lat="-27.2718212" lon="151.2895827">
  <ele>444.42</ele>
  <time>2026-09-01T19:59:08Z</time>
  <course>279.56</course>
  <speed>20.755669105090302</speed>
  <fix>3d</fix>
</trkpt>
<trkpt lat="-27.2718307" lon="151.2896397">
  <ele>444.4</ele>
  <time>2026-09-01T19:59:08Z</time>
  <course>285.01</course>
  <speed>20.31</speed>
  <fix>3d</fix>
</trkpt>
<trkpt lat="-27.271819" lon="151.2895618">
  <ele>444.43</ele>
  <time>2026-09-01T19:59:08Z</time>
  <course>277.12</course>
  <speed>20.93548661961312</speed>
  <fix>3d</fix>
</trkpt>
<trkpt lat="-27.2718227" lon="151.2895993">
  <ele>444.45</ele>
  <time>2026-09-01T19:59:08Z</time>
  <course>280.18</course>
  <speed>20.66</speed>
  <fix>3d</fix>
</trkpt>
<trkpt lat="-27.2718176" lon="151.2895406">
  <ele>444.44</ele>
  <time>2026-09-01T19:59:08Z</time>
  <course>274.65</course>
  <speed>21.122746033600837</speed>
  <fix>3d</fix>
</trkpt>
<trkpt lat="-27.2718227" lon="151.2895993">
  <ele>444.45</ele>
  <time>2026-09-01T19:59:08Z</time>
  <course>280.18</course>
  <speed>20.66</speed>
  <fix>3d</fix>
</trkpt>
<trkpt lat="-27.271817" lon="151.2895191">
  <ele>444.44</ele>
  <time>2026-09-01T19:59:08Z</time>
  <course>272.14</course>
  <speed>21.31003754102747</speed>
  <fix>3d</fix>
</trkpt>
<trkpt lat="-27.2718176" lon="151.2895575">
  <ele>444.47</ele>
  <time>2026-09-01T19:59:08Z</time>
  <course>275.21</course>
  <speed>21.01</speed>
  <fix>3d</fix>
</trkpt>
<trkpt lat="-27.2718172" lon="151.2894976">
  <ele>444.42</ele>
  <time>2026-09-01T19:59:08Z</time>
  <course>269.64</course>
  <speed>21.498846480683564</speed>
  <fix>3d</fix>
</trkpt>
<trkpt lat="-27.2718176" lon="151.2895575">
  <ele>444.47</ele>
  <time>2026-09-01T19:59:08Z</time>
  <course>275.21</course>
  <speed>21.01</speed>
  <fix>3d</fix>
</trkpt>
<trkpt lat="-27.2718183" lon="151.2894757">
  <ele>444.4</ele>
  <time>2026-09-01T19:59:08Z</time>
  <course>267.15</course>
  <speed>21.68166045301881</speed>
  <fix>3d</fix>
</trkpt>
<trkpt lat="-27.2718158" lon="151.2895148">
  <ele>444.48</ele>
  <time>2026-09-01T19:59:08Z</time>
  <course>270.15</course>
  <speed>21.37</speed>
  <fix>3d</fix>
</trkpt>
<trkpt lat="-27.2718203" lon="151.2894537">
  <ele>444.38</ele>
  <time>2026-09-01T19:59:08Z</time>
  <course>264.59</course>
  <speed>21.879053910075726</speed>
  <fix>3d</fix>
</trkpt>
<trkpt lat="-27.2718158" lon="151.2895148">
  <ele>444.48</ele>
  <time>2026-09-01T19:59:08Z</time>
  <course>270.15</course>
  <speed>21.37</speed>
  <fix>3d</fix>
</trkpt>
<trkpt lat="-27.2718232" lon="151.2894316">
  <ele>444.34</ele>
  <time>2026-09-01T19:59:08Z</time>
  <course>261.98</course>
  <speed>22.075438840485145</speed>
  <fix>3d</fix>
</trkpt>
<trkpt lat="-27.2718175" lon="151.2894713">
  <ele>444.46</ele>
  <time>2026-09-01T19:59:08Z</time>
  <course>265.01</course>
  <speed>21.73</speed>
  <fix>3d</fix>
</trkpt>
<trkpt lat="-27.2718271" lon="151.2894093">
  <ele>444.3</ele>
  <time>2026-09-01T19:59:08Z</time>
  <course>259.4</course>
  <speed>22.264943296581738</speed>
  <fix>3d</fix>
</trkpt>
<trkpt lat="-27.2718175" lon="151.2894713">
  <ele>444.46</ele>
  <time>2026-09-01T19:59:08Z</time>
  <course>265.01</course>
  <speed>21.73</speed>
  <fix>3d</fix>
</trkpt>
<trkpt lat="-27.2718319" lon="151.2893872">
  <ele>444.25</ele>
  <time>2026-09-01T19:59:08Z</time>
  <course>256.81</course>
  <speed>22.46069678349272</speed>
  <fix>3d</fix>
</trkpt>
<trkpt lat="-27.2718226" lon="151.2894274">
  <ele>444.4</ele>
  <time>2026-09-01T19:59:08Z</time>
  <course>259.8</course>
  <speed>22.08</speed>
  <fix>3d</fix>
</trkpt>
<trkpt lat="-27.2718377" lon="151.2893652">
  <ele>444.19</ele>
  <time>2026-09-01T19:59:08Z</time>
  <course>254.11</course>
  <speed>22.651765935573323</speed>
  <fix>3d</fix>
</trkpt>
<trkpt lat="-27.2718226" lon="151.2894274">
  <ele>444.4</ele>
  <time>2026-09-01T19:59:08Z</time>
  <course>259.8</course>
  <speed>22.08</speed>
  <fix>3d</fix>
</trkpt>
<trkpt lat="-27.2718444" lon="151.2893433">
  <ele>444.13</ele>
  <time>2026-09-01T19:59:08Z</time>
  <course>251.39</course>
  <speed>22.83844565639264</speed>
  <fix>3d</fix>
</trkpt>
<trkpt lat="-27.2718315" lon="151.2893836">
  <ele>444.32</ele>
  <time>2026-09-01T19:59:08Z</time>
  <course>254.5</course>
  <speed>22.44</speed>
  <fix>3d</fix>
</trkpt>
<trkpt lat="-27.2718521" lon="151.2893217">
  <ele>444.06</ele>
  <time>2026-09-01T19:59:08Z</time>
  <course>248.67</course>
  <speed>23.032813549369084</speed>
  <fix>3d</fix>
</trkpt>
<trkpt lat="-27.2718315" lon="151.2893836">
  <ele>444.32</ele>
  <time>2026-09-01T19:59:08Z</time>
  <course>254.5</course>
  <speed>22.44</speed>
  <fix>3d</fix>
</trkpt>
<trkpt lat="-27.2718607" lon="151.2893004">
  <ele>443.99</ele>
  <time>2026-09-01T19:59:08Z</time>
  <course>245.92</course>
  <speed>23.210773360661637</speed>
  <fix>3d</fix>
</trkpt>
<trkpt lat="-27.2718442" lon="151.2893402">
  <ele>444.2</ele>
  <time>2026-09-01T19:59:08Z</time>
  <course>249.12</course>
  <speed>22.8</speed>
  <fix>3d</fix>
</trkpt>
<trkpt lat="-27.2718704" lon="151.2892794">
  <ele>443.91</ele>
  <time>2026-09-01T19:59:08Z</time>
  <course>243.16</course>
  <speed>23.39246032378809</speed>
  <fix>3d</fix>
</trkpt>
<trkpt lat="-27.2718442" lon="151.2893402">
  <ele>444.2</ele>
  <time>2026-09-01T19:59:08Z</time>
  <course>249.12</course>
  <speed>22.8</speed>
  <fix>3d</fix>
</trkpt>
<trkpt lat="-27.271881" lon="151.2892588">
  <ele>443.84</ele>
  <time>2026-09-01T19:59:08Z</time>
  <course>240.34</course>
  <speed>23.571374588682776</speed>
  <fix>3d</fix>
</trkpt>
<trkpt lat="-27.2718607" lon="151.2892977">
  <ele>444.07</ele>
  <time>2026-09-01T19:59:08Z</time>
  <course>243.64</course>
  <speed>23.15</speed>
  <fix>3d</fix>
</trkpt>
<trkpt lat="-27.2718925" lon="151.2892388">
  <ele>443.75</ele>
  <time>2026-09-01T19:59:08Z</time>
  <course>237.46</course>
  <speed>23.746850317463153</speed>
  <fix>3d</fix>
</trkpt>
<trkpt lat="-27.2718607" lon="151.2892977">
  <ele>444.07</ele>
  <time>2026-09-01T19:59:08Z</time>
  <course>243.64</course>
  <speed>23.15</speed>
  <fix>3d</fix>
</trkpt>
<trkpt lat="-27.271905" lon="151.2892192">
  <ele>443.67</ele>
  <time>2026-09-01T19:59:08Z</time>
  <course>234.64</course>
  <speed>23.919048894134566</speed>
  <fix>3d</fix>
</trkpt>
<trkpt lat="-27.2718812" lon="151.2892564">
  <ele>443.91</ele>
  <time>2026-09-01T19:59:08Z</time>
  <course>238.06</course>
  <speed>23.49</speed>
  <fix>3d</fix>
</trkpt>
<trkpt lat="-27.2719185" lon="151.2892003">
  <ele>443.58</ele>
  <time>2026-09-01T19:59:08Z</time>
  <course>231.87</course>
  <speed>24.075441844335902</speed>
  <fix>3d</fix>
</trkpt>
<trkpt lat="-27.2718812" lon="151.2892564">
  <ele>443.91</ele>
  <time>2026-09-01T19:59:08Z</time>
  <course>238.06</course>
  <speed>23.49</speed>
  <fix>3d</fix>
</trkpt>
<trkpt lat="-27.2719329" lon="151.289182">
  <ele>443.49</ele>
  <time>2026-09-01T19:59:08Z</time>
  <course>229.07</course>
  <speed>24.23253391620447</speed>
  <fix>3d</fix>
</trkpt>
<trkpt lat="-27.2719054" lon="151.2892171">
  <ele>443.75</ele>
  <time>2026-09-01T19:59:08Z</time>
  <course>232.41</course>
  <speed>23.83</speed>
  <fix>3d</fix>
</trkpt>
<trkpt lat="-27.2719481" lon="151.2891644">
  <ele>443.39</ele>
  <time>2026-09-01T19:59:08Z</time>
  <course>226.28</course>
  <speed>24.390778995349862</speed>
  <fix>3d</fix>
</trkpt>
<trkpt lat="-27.2719054" lon="151.2892171">
  <ele>443.75</ele>
  <time>2026-09-01T19:59:08Z</time>
  <course>232.41</course>
  <speed>23.83</speed>
  <fix>3d</fix>
</trkpt>
<trkpt lat="-27.2719641" lon="151.2891477">
  <ele>443.3</ele>
  <time>2026-09-01T19:59:08Z</time>
  <course>223.52</course>
  <speed>24.550138492481054</speed>
  <fix>3d</fix>
</trkpt>
<trkpt lat="-27.2719334" lon="151.2891801">
  <ele>443.57</ele>
  <time>2026-09-01T19:59:08Z</time>
  <course>226.75</course>
  <speed>24.15</speed>
  <fix>3d</fix>
</trkpt>
<trkpt lat="-27.2719809" lon="151.2891318">
  <ele>443.21</ele>
  <time>2026-09-01T19:59:08Z</time>
  <course>220.75</course>
  <speed>24.683275714539995</speed>
  <fix>3d</fix>
</trkpt>
<trkpt lat="-27.2719334" lon="151.2891801">
  <ele>443.57</ele>
  <time>2026-09-01T19:59:08Z</time>
  <course>226.75</course>
  <speed>24.15</speed>
  <fix>3d</fix>
</trkpt>
<trkpt lat="-27.2719984" lon="151.2891167">
  <ele>443.12</ele>
  <time>2026-09-01T19:59:08Z</time>
  <course>218.0</course>
  <speed>24.815795373108635</speed>
  <fix>3d</fix>
</trkpt>
<trkpt lat="-27.2719648" lon="151.2891461">
  <ele>443.38</ele>
  <time>2026-09-01T19:59:08Z</time>
  <course>221.14</course>
  <speed>24.46</speed>
  <fix>3d</fix>
</trkpt>
<trkpt lat="-27.2720166" lon="151.2891026">
  <ele>443.02</ele>
  <time>2026-09-01T19:59:08Z</time>
  <course>215.3</course>
  <speed>24.94878153337353</speed>
  <fix>3d</fix>
</trkpt>
<trkpt lat="-27.2719648" lon="151.2891461">
  <ele>443.38</ele>
  <time>2026-09-01T19:59:08Z</time>
  <course>221.14</course>
  <speed>24.46</speed>
  <fix>3d</fix>
</trkpt>
<trkpt lat="-27.2720355" lon="151.2890894">
  <ele>442.93</ele>
  <time>2026-09-01T19:59:08Z</time>
  <course>212.69</course>
  <speed>25.06707801080932</speed>
  <fix>3d</fix>
</trkpt>
<trkpt lat="-27.2719995" lon="151.2891153">
  <ele>443.19</ele>
  <time>2026-09-01T19:59:08Z</time>
  <course>215.62</course>
  <speed>24.76</speed>
  <fix>3d</fix>
</trkpt>
<trkpt lat="-27.272055" lon="151.2890771">
  <ele>442.84</ele>
  <time>2026-09-01T19:59:08Z</time>
  <course>210.12</course>
  <speed>25.193675793738397</speed>
  <fix>3d</fix>
</trkpt>
<trkpt lat="-27.2719995" lon="151.2891153">
  <ele>443.19</ele>
  <time>2026-09-01T19:59:08Z</time>
  <course>215.62</course>
  <speed>24.76</speed>
  <fix>3d</fix>
</trkpt>
<trkpt lat="-27.2720751" lon="151.2890657">
  <ele>442.74</ele>
  <time>2026-09-01T19:59:08Z</time>
  <course>207.66</course>
  <speed>25.318461643630723</speed>
  <fix>3d</fix>
</trkpt>
<trkpt lat="-27.272037" lon="151.2890879">
  <ele>443.0</ele>
  <time>2026-09-01T19:59:08Z</time>
  <course>210.23</course>
  <speed>25.04</speed>
  <fix>3d</fix>
</trkpt>
<trkpt lat="-27.2720959" lon="151.2890553">
  <ele>442.64</ele>
  <time>2026-09-01T19:59:08Z</time>
  <course>205.28</course>
  <speed>25.429376712770605</speed>
  <fix>3d</fix>
</trkpt>
<trkpt lat="-27.272037" lon="151.2890879">
  <ele>443.0</ele>
  <time>2026-09-01T19:59:08Z</time>
  <course>210.23</course>
  <speed>25.04</speed>
  <fix>3d</fix>
</trkpt>
<trkpt lat="-27.2721173" lon="151.2890457">
  <ele>442.54</ele>
  <time>2026-09-01T19:59:08Z</time>
  <course>202.97</course>
  <speed>25.55368075248652</speed>
  <fix>3d</fix>
</trkpt>
<trkpt lat="-27.2720771" lon="151.2890643">
  <ele>442.8</ele>
  <time>2026-09-01T19:59:08Z</time>
  <course>205.06</course>
  <speed>25.3</speed>
  <fix>3d</fix>
</trkpt>
<trkpt lat="-27.272139" lon="151.2890372">
  <ele>442.44</ele>
  <time>2026-09-01T19:59:08Z</time>
  <course>200.72</course>
  <speed>25.65916990083662</speed>
  <fix>3d</fix>
</trkpt>
<trkpt lat="-27.2720771" lon="151.2890643">
  <ele>442.8</ele>
  <time>2026-09-01T19:59:08Z</time>
  <course>205.06</course>
  <speed>25.3</speed>
  <fix>3d</fix>
</trkpt>
<trkpt lat="-27.2721611" lon="151.2890296">
  <ele>442.34</ele>
  <time>2026-09-01T19:59:08Z</time>
  <course>198.53</course>
  <speed>25.76062887431128</speed>
  <fix>3d</fix>
</trkpt>
<trkpt lat="-27.2721192" lon="151.2890446">
  <ele>442.6</ele>
  <time>2026-09-01T19:59:08Z</time>
  <course>200.18</course>
  <speed>25.54</speed>
  <fix>3d</fix>
</trkpt>
<trkpt lat="-27.2721835" lon="151.2890229">
  <ele>442.24</ele>
  <time>2026-09-01T19:59:08Z</time>
  <course>196.49</course>
  <speed>25.85950502233173</speed>
  <fix>3d</fix>
</trkpt>
<trkpt lat="-27.2721192" lon="151.2890446">
  <ele>442.6</ele>
  <time>2026-09-01T19:59:08Z</time>
  <course>200.18</course>
  <speed>25.54</speed>
  <fix>3d</fix>
</trkpt>
<trkpt lat="-27.2722062" lon="151.2890171">
  <ele>442.13</ele>
  <time>2026-09-01T19:59:08Z</time>
  <course>194.56</course>
  <speed>25.958505349884845</speed>
  <fix>3d</fix>
</trkpt>
<trkpt lat="-27.2721631" lon="151.2890287">
  <ele>442.39</ele>
  <time>2026-09-01T19:59:08Z</time>
  <course>195.65</course>
  <speed>25.76</speed>
  <fix>3d</fix>
</trkpt>
<trkpt lat="-27.2722292" lon="151.2890122">
  <ele>442.02</ele>
  <time>2026-09-01T19:59:08Z</time>
  <course>192.71</course>
  <speed>26.037895460270978</speed>
  <fix>3d</fix>
</trkpt>
<trkpt lat="-27.2721631" lon="151.2890287">
  <ele>442.39</ele>
  <time>2026-09-01T19:59:08Z</time>
  <course>195.65</course>
  <speed>25.76</speed>
  <fix>3d</fix>
</trkpt>
<trkpt lat="-27.2722523" lon="151.2890082">
  <ele>441.91</ele>
  <time>2026-09-01T19:59:08Z</time>
  <course>190.95</course>
  <speed>26.078285986621133</speed>
  <fix>3d</fix>
</trkpt>
<trkpt lat="-27.2722082" lon="151.2890165">
  <ele>442.18</ele>
  <time>2026-09-01T19:59:08Z</time>
  <course>191.48</course>
  <speed>25.95</speed>
  <fix>3d</fix>
</trkpt>
<trkpt lat="-27.2722756" lon="151.2890049">
  <ele>441.79</ele>
  <time>2026-09-01T19:59:08Z</time>
  <course>189.3</course>
  <speed>26.101697262821816</speed>
  <fix>3d</fix>
</trkpt>
<trkpt lat="-27.2722082" lon="151.2890165">
  <ele>442.18</ele>
  <time>2026-09-01T19:59:08Z</time>
  <course>191.48</course>
  <speed>25.95</speed>
  <fix>3d</fix>
</trkpt>
<trkpt lat="-27.272299" lon="151.2890025">
  <ele>441.67</ele>
  <time>2026-09-01T19:59:08Z</time>
  <course>187.7</course>
  <speed>26.081480019354732</speed>
  <fix>3d</fix>
</trkpt>
<trkpt lat="-27.2722544" lon="151.2890077">
  <ele>441.95</ele>
  <time>2026-09-01T19:59:08Z</time>
  <course>187.7</course>
  <speed>26.07</speed>
  <fix>3d</fix>
</trkpt>
<trkpt lat="-27.2723224" lon="151.2890008">
  <ele>441.55</ele>
  <time>2026-09-01T19:59:08Z</time>
  <course>186.17</course>
  <speed>26.05499760122806</speed>
  <fix>3d</fix>
</trkpt>
<trkpt lat="-27.2722544" lon="151.2890077">
  <ele>441.95</ele>
  <time>2026-09-01T19:59:08Z</time>
  <course>187.7</course>
  <speed>26.07</speed>
  <fix>3d</fix>
</trkpt>
<trkpt lat="-27.2723458" lon="151.2889997">
  <ele>441.42</ele>
  <time>2026-09-01T19:59:08Z</time>
  <course>184.74</course>
  <speed>26.019150639480912</speed>
  <fix>3d</fix>
</trkpt>
<trkpt lat="-27.2723011" lon="151.2890023">
  <ele>441.72</ele>
  <time>2026-09-01T19:59:08Z</time>
  <course>184.3</course>
  <speed>26.09</speed>
  <fix>3d</fix>
</trkpt>
<trkpt lat="-27.2723692" lon="151.2889994">
  <ele>441.29</ele>
  <time>2026-09-01T19:59:08Z</time>
  <course>183.4</course>
  <speed>26.00012307663177</speed>
  <fix>3d</fix>
</trkpt>
<trkpt lat="-27.2723011" lon="151.2890023">
  <ele>441.72</ele>
  <time>2026-09-01T19:59:08Z</time>
  <course>184.3</course>
  <speed>26.09</speed>
  <fix>3d</fix>
</trkpt>
<trkpt lat="-27.2723924" lon="151.2889996">
  <ele>441.15</ele>
  <time>2026-09-01T19:59:08Z</time>
  <course>181.97</course>
  <speed>25.964814653680854</speed>
  <fix>3d</fix>
</trkpt>
<trkpt lat="-27.2723478" lon="151.2889997">
  <ele>441.47</ele>
  <time>2026-09-01T19:59:08Z</time>
  <course>181.31</course>
  <speed>26.04</speed>
  <fix>3d</fix>
</trkpt>
<trkpt lat="-27.2724156" lon="151.2890004">
  <ele>441.02</ele>
  <time>2026-09-01T19:59:08Z</time>
  <course>180.67</course>
  <speed>25.932917306003198</speed>
  <fix>3d</fix>
</trkpt>
<trkpt lat="-27.2723478" lon="151.2889997">
  <ele>441.47</ele>
  <time>2026-09-01T19:59:08Z</time>
  <course>181.31</course>
  <speed>26.04</speed>
  <fix>3d</fix>
</trkpt>
<trkpt lat="-27.2724387" lon="151.2890018">
  <ele>440.89</ele>
  <time>2026-09-01T19:59:08Z</time>
  <course>179.53</course>
  <speed>25.908222632978894</speed>
  <fix>3d</fix>
</trkpt>
<trkpt lat="-27.2723945" lon="151.2889997">
  <ele>441.2</ele>
  <time>2026-09-01T19:59:08Z</time>
  <course>178.62</course>
  <speed>25.99</speed>
  <fix>3d</fix>
</trkpt>
<trkpt lat="-27.2724618" lon="151.2890035">
  <ele>440.75</ele>
  <time>2026-09-01T19:59:08Z</time>
  <course>178.49</course>
  <speed>25.875865202926065</speed>
  <fix>3d</fix>
</trkpt>
<trkpt lat="-27.2723945" lon="151.2889997">
  <ele>441.2</ele>
  <time>2026-09-01T19:59:08Z</time>
  <course>178.62</course>
  <speed>25.99</speed>
  <fix>3d</fix>
</trkpt>
<trkpt lat="-27.2724848" lon="151.2890057">
  <ele>440.61</ele>
  <time>2026-09-01T19:59:08Z</time>
  <course>177.54</course>
  <speed>25.844341740504824</speed>
  <fix>3d</fix>
</trkpt>
<trkpt lat="-27.2724411" lon="151.289002">
  <ele>440.91</ele>
  <time>2026-09-01T19:59:08Z</time>
  <course>176.31</course>
  <speed>25.95</speed>
  <fix>3d</fix>
</trkpt>
<trkpt lat="-27.2725077" lon="151.2890082">
  <ele>440.45</ele>
  <time>2026-09-01T19:59:08Z</time>
  <course>176.69</course>
  <speed>25.824271528931845</speed>
  <fix>3d</fix>
</trkpt>
<trkpt lat="-27.2724411" lon="151.289002">
  <ele>440.91</ele>
  <time>2026-09-01T19:59:08Z</time>
  <course>176.31</course>
  <speed>25.95</speed>
  <fix>3d</fix>
</trkpt>
<trkpt lat="-27.2725306" lon="151.289011">
  <ele>440.28</ele>
  <time>2026-09-01T19:59:08Z</time>
  <course>175.9</course>
  <speed>25.805735796523994</speed>
  <fix>3d</fix>
</trkpt>
<trkpt lat="-27.2724876" lon="151.2890062">
  <ele>440.63</ele>
  <time>2026-09-01T19:59:08Z</time>
  <course>174.58</course>
  <speed>25.91</speed>
  <fix>3d</fix>
</trkpt>
<trkpt lat="-27.2725535" lon="151.2890141">
  <ele>440.1</ele>
  <time>2026-09-01T19:59:08Z</time>
  <course>175.08</course>
  <speed>25.800467050036126</speed>
  <fix>3d</fix>
</trkpt>
<trkpt lat="-27.2724876" lon="151.2890062">
  <ele>440.63</ele>
  <time>2026-09-01T19:59:08Z</time>
  <course>174.58</course>
  <speed>25.91</speed>
  <fix>3d</fix>
</trkpt>
<trkpt lat="-27.2725762" lon="151.2890175">
  <ele>439.91</ele>
  <time>2026-09-01T19:59:08Z</time>
  <course>174.34</course>
  <speed>25.797164572875058</speed>
  <fix>3d</fix>
</trkpt>
<trkpt lat="-27.2725338" lon="151.2890117">
  <ele>440.3</ele>
  <time>2026-09-01T19:59:08Z</time>
  <course>173.21</course>
  <speed>25.89</speed>
  <fix>3d</fix>
</trkpt>
<trkpt lat="-27.2725991" lon="151.2890212">
  <ele>439.71</ele>
  <time>2026-09-01T19:59:08Z</time>
  <course>173.68</course>
  <speed>25.815290042918363</speed>
  <fix>3d</fix>
</trkpt>
<trkpt lat="-27.2725338" lon="151.2890117">
  <ele>440.3</ele>
  <time>2026-09-01T19:59:08Z</time>
  <course>173.21</course>
  <speed>25.89</speed>
  <fix>3d</fix>
</trkpt>
<trkpt lat="-27.2726221" lon="151.2890252">
  <ele>439.5</ele>
  <time>2026-09-01T19:59:08Z</time>
  <course>173.01</course>
  <speed>25.834682115327062</speed>
  <fix>3d</fix>
</trkpt>
<trkpt lat="-27.2725799" lon="151.2890186">
  <ele>439.91</ele>
  <time>2026-09-01T19:59:08Z</time>
  <course>171.95</course>
  <speed>25.9</speed>
  <fix>3d</fix>
</trkpt>
<trkpt lat="-27.272645" lon="151.2890295">
  <ele>439.29</ele>
  <time>2026-09-01T19:59:08Z</time>
  <course>172.34</course>
  <speed>25.86655176091317</speed>
  <fix>3d</fix>
</trkpt>
<trkpt lat="-27.2725799" lon="151.2890186">
  <ele>439.91</ele>
  <time>2026-09-01T19:59:08Z</time>
  <course>171.95</course>
  <speed>25.9</speed>
  <fix>3d</fix>
</trkpt>
<trkpt lat="-27.2726685" lon="151.2890341">
  <ele>439.09</ele>
  <time>2026-09-01T19:59:08Z</time>
  <course>171.67</course>
  <speed>25.90909106858054</speed>
  <fix>3d</fix>
</trkpt>
<trkpt lat="-27.272626" lon="151.2890264">
  <ele>439.52</ele>
  <time>2026-09-01T19:59:08Z</time>
  <course>170.76</course>
  <speed>25.94</speed>
  <fix>3d</fix>
</trkpt>
<trkpt lat="-27.2726915" lon="151.2890388">
  <ele>438.89</ele>
  <time>2026-09-01T19:59:08Z</time>
  <course>171.09</course>
  <speed>25.95029286925294</speed>
  <fix>3d</fix>
</trkpt>
<trkpt lat="-27.272626" lon="151.2890264">
  <ele>439.52</ele>
  <time>2026-09-01T19:59:08Z</time>
  <course>170.76</course>
  <speed>25.94</speed>
  <fix>3d</fix>
</trkpt>
<trkpt lat="-27.2727145" lon="151.2890438">
  <ele>438.69</ele>
  <time>2026-09-01T19:59:08Z</time>
  <course>170.59</course>
  <speed>25.999448071064894</speed>
  <fix>3d</fix>
</trkpt>
<trkpt lat="-27.2726719" lon="151.2890354">
  <ele>439.12</ele>
  <time>2026-09-01T19:59:08Z</time>
  <course>169.69</course>
  <speed>26.01</speed>
  <fix>3d</fix>
</trkpt>
<trkpt lat="-27.2727374" lon="151.289049">
  <ele>438.51</ele>
  <time>2026-09-01T19:59:08Z</time>
  <course>170.07</course>
  <speed>26.04822066859846</speed>
  <fix>3d</fix>
</trkpt>
<trkpt lat="-27.2726719" lon="151.2890354">
  <ele>439.12</ele>
  <time>2026-09-01T19:59:08Z</time>
  <course>169.69</course>
  <speed>26.01</speed>
  <fix>3d</fix>
</trkpt>
<trkpt lat="-27.2727604" lon="151.2890544">
  <ele>438.33</ele>
  <time>2026-09-01T19:59:08Z</time>
  <course>169.55</course>
  <speed>26.096382891121138</speed>
  <fix>3d</fix>
</trkpt>
<trkpt lat="-27.2727178" lon="151.2890452">
  <ele>438.73</ele>
  <time>2026-09-01T19:59:08Z</time>
  <course>168.76</course>
  <speed>26.09</speed>
  <fix>3d</fix>
</trkpt>
<trkpt lat="-27.2727833" lon="151.28906">
  <ele>438.17</ele>
  <time>2026-09-01T19:59:08Z</time>
  <course>169.15</course>
  <speed>26.141602858279366</speed>
  <fix>3d</fix>
</trkpt>
<trkpt lat="-27.2727178" lon="151.2890452">
  <ele>438.73</ele>
  <time>2026-09-01T19:59:08Z</time>
  <course>168.76</course>
  <speed>26.09</speed>
  <fix>3d</fix>
</trkpt>
<trkpt lat="-27.2728063" lon="151.2890657">
  <ele>438.02</ele>
  <time>2026-09-01T19:59:08Z</time>
  <course>168.8</course>
  <speed>26.193268219143633</speed>
  <fix>3d</fix>
</trkpt>
<trkpt lat="-27.272764" lon="151.2890559">
  <ele>438.39</ele>
  <time>2026-09-01T19:59:08Z</time>
  <course>167.96</course>
  <speed>26.18</speed>
  <fix>3d</fix>
</trkpt>
<trkpt lat="-27.2728293" lon="151.2890716">
  <ele>437.89</ele>
  <time>2026-09-01T19:59:08Z</time>
  <course>168.4</course>
  <speed>26.243484905781852</speed>
  <fix>3d</fix>
</trkpt>
<trkpt lat="-27.272764" lon="151.2890559">
  <ele>438.39</ele>
  <time>2026-09-01T19:59:08Z</time>
  <course>167.96</course>
  <speed>26.18</speed>
  <fix>3d</fix>
</trkpt>
<trkpt lat="-27.2728523" lon="151.2890776">
  <ele>437.78</ele>
  <time>2026-09-01T19:59:08Z</time>
  <course>168.07</course>
  <speed>26.29210147553824</speed>
  <fix>3d</fix>
</trkpt>
<trkpt lat="-27.2728101" lon="151.2890673">
  <ele>438.09</ele>
  <time>2026-09-01T19:59:08Z</time>
  <course>167.29</course>
  <speed>26.29</speed>
  <fix>3d</fix>
</trkpt>
<trkpt lat="-27.2728753" lon="151.2890837">
  <ele>437.67</ele>
  <time>2026-09-01T19:59:08Z</time>
  <course>167.79</course>
  <speed>26.336675948190578</speed>
  <fix>3d</fix>
</trkpt>
<trkpt lat="-27.2728101" lon="151.2890673">
  <ele>438.09</ele>
  <time>2026-09-01T19:59:08Z</time>
  <course>167.29</course>
  <speed>26.29</speed>
  <fix>3d</fix>
</trkpt>
<trkpt lat="-27.2728985" lon="151.28909">
  <ele>437.58</ele>
  <time>2026-09-01T19:59:08Z</time>
  <course>167.54</course>
  <speed>26.391371696067637</speed>
  <fix>3d</fix>
</trkpt>
<trkpt lat="-27.2728562" lon="151.2890793">
  <ele>437.84</ele>
  <time>2026-09-01T19:59:08Z</time>
  <course>166.76</course>
  <speed>26.39</speed>
  <fix>3d</fix>
</trkpt>
<trkpt lat="-27.2729217" lon="151.2890964">
  <ele>437.51</ele>
  <time>2026-09-01T19:59:08Z</time>
  <course>167.33</course>
  <speed>26.451419621638458</speed>
  <fix>3d</fix>
</trkpt>
<trkpt lat="-27.2728562" lon="151.2890793">
  <ele>437.84</ele>
  <time>2026-09-01T19:59:08Z</time>
  <course>166.76</course>
  <speed>26.39</speed>
  <fix>3d</fix>
</trkpt>
<trkpt lat="-27.272945" lon="151.2891029">
  <ele>437.44</ele>
  <time>2026-09-01T19:59:08Z</time>
  <course>167.16</course>
  <speed>26.49959433651768</speed>
  <fix>3d</fix>
</trkpt>
<trkpt lat="-27.2729024" lon="151.2890917">
  <ele>437.65</ele>
  <time>2026-09-01T19:59:08Z</time>
  <course>166.35</course>
  <speed>26.49</speed>
  <fix>3d</fix>
</trkpt>
<trkpt lat="-27.2729683" lon="151.2891094">
  <ele>437.38</ele>
  <time>2026-09-01T19:59:08Z</time>
  <course>167.0</course>
  <speed>26.535836146615015</speed>
  <fix>3d</fix>
</trkpt>
<trkpt lat="-27.2729024" lon="151.2890917">
  <ele>437.65</ele>
  <time>2026-09-01T19:59:08Z</time>
  <course>166.35</course>
  <speed>26.49</speed>
  <fix>3d</fix>
</trkpt>
<trkpt lat="-27.2729914" lon="151.289116">
  <ele>437.34</ele>
  <time>2026-09-01T19:59:08Z</time>
  <course>166.88</course>
  <speed>26.579490213320497</speed>
  <fix>3d</fix>
</trkpt>
<trkpt lat="-27.2729487" lon="151.2891045">
  <ele>437.52</ele>
  <time>2026-09-01T19:59:08Z</time>
  <course>166.03</course>
  <speed>26.58</speed>
  <fix>3d</fix>
</trkpt>
<trkpt lat="-27.2730145" lon="151.2891226">
  <ele>437.32</ele>
  <time>2026-09-01T19:59:08Z</time>
  <course>166.68</course>
  <speed>26.601400339079895</speed>
  <fix>3d</fix>
</trkpt>
<trkpt lat="-27.2729487" lon="151.2891045">
  <ele>437.52</ele>
  <time>2026-09-01T19:59:08Z</time>
  <course>166.03</course>
  <speed>26.58</speed>
  <fix>3d</fix>
</trkpt>
<trkpt lat="-27.2730377" lon="151.2891293">
  <ele>437.31</ele>
  <time>2026-09-01T19:59:08Z</time>
  <course>166.58</course>
  <speed>26.630615839668447</speed>
  <fix>3d</fix>
</trkpt>
<trkpt lat="-27.2729951" lon="151.2891176">
  <ele>437.44</ele>
  <time>2026-09-01T19:59:08Z</time>
  <course>165.8</course>
  <speed>26.66</speed>
  <fix>3d</fix>
</trkpt>
<trkpt lat="-27.2730607" lon="151.2891359">
  <ele>437.31</ele>
  <time>2026-09-01T19:59:08Z</time>
  <course>166.52</course>
  <speed>26.654930125588397</speed>
  <fix>3d</fix>
</trkpt>
<trkpt lat="-27.2729951" lon="151.2891176">
  <ele>437.44</ele>
  <time>2026-09-01T19:59:08Z</time>
  <course>165.8</course>
  <speed>26.66</speed>
  <fix>3d</fix>
</trkpt>
<trkpt lat="-27.273084" lon="151.2891426">
  <ele>437.32</ele>
  <time>2026-09-01T19:59:08Z</time>
  <course>166.45</course>
  <speed>26.681727830108752</speed>
  <fix>3d</fix>
</trkpt>
<trkpt lat="-27.2730415" lon="151.2891309">
  <ele>437.41</ele>
  <time>2026-09-01T19:59:08Z</time>
  <course>165.65</course>
  <speed>26.72</speed>
  <fix>3d</fix>
</trkpt>
<trkpt lat="-27.2731072" lon="151.2891494">
  <ele>437.34</ele>
  <time>2026-09-01T19:59:08Z</time>
  <course>166.41</course>
  <speed>26.703582156706993</speed>
  <fix>3d</fix>
</trkpt>
<trkpt lat="-27.2730415" lon="151.2891309">
  <ele>437.41</ele>
  <time>2026-09-01T19:59:08Z</time>
  <course>165.65</course>
  <speed>26.72</speed>
  <fix>3d</fix>
</trkpt>
<trkpt lat="-27.2731306" lon="151.2891561">
  <ele>437.37</ele>
  <time>2026-09-01T19:59:08Z</time>
  <course>166.38</course>
  <speed>26.72543732102433</speed>
  <fix>3d</fix>
</trkpt>
<trkpt lat="-27.2730881" lon="151.2891443">
  <ele>437.43</ele>
  <time>2026-09-01T19:59:08Z</time>
  <course>165.59</course>
  <speed>26.78</speed>
  <fix>3d</fix>
</trkpt>
<trkpt lat="-27.2731541" lon="151.2891629">
  <ele>437.41</ele>
  <time>2026-09-01T19:59:08Z</time>
  <course>166.36</course>
  <speed>26.744812581134312</speed>
  <fix>3d</fix>
</trkpt>
<trkpt lat="-27.2730881" lon="151.2891443">
  <ele>437.43</ele>
  <time>2026-09-01T19:59:08Z</time>
  <course>165.59</course>
  <speed>26.78</speed>
  <fix>3d</fix>
</trkpt>
<trkpt lat="-27.2731774" lon="151.2891697">
  <ele>437.46</ele>
  <time>2026-09-01T19:59:08Z</time>
  <course>166.3</course>
  <speed>26.75698039764577</speed>
  <fix>3d</fix>
</trkpt>
<trkpt lat="-27.2731347" lon="151.2891578">
  <ele>437.48</ele>
  <time>2026-09-01T19:59:08Z</time>
  <course>165.58</course>
  <speed>26.82</speed>
  <fix>3d</fix>
</trkpt>
<trkpt lat="-27.2732008" lon="151.2891765">
  <ele>437.52</ele>
  <time>2026-09-01T19:59:08Z</time>
  <course>166.32</course>
  <speed>26.766667704441655</speed>
  <fix>3d</fix>
</trkpt>
<trkpt lat="-27.2731347" lon="151.2891578">
  <ele>437.48</ele>
  <time>2026-09-01T19:59:08Z</time>
  <course>165.58</course>
  <speed>26.82</speed>
  <fix>3d</fix>
</trkpt>
<trkpt lat="-27.2732242" lon="151.2891833">
  <ele>437.58</ele>
  <time>2026-09-01T19:59:08Z</time>
  <course>166.33</course>
  <speed>26.776355241145126</speed>
  <fix>3d</fix>
</trkpt>
<trkpt lat="-27.2731814" lon="151.2891713">
  <ele>437.57</ele>
  <time>2026-09-01T19:59:08Z</time>
  <course>165.59</course>
  <speed>26.85</speed>
  <fix>3d</fix>
</trkpt>
<trkpt lat="-27.2732475" lon="151.28919">
  <ele>437.65</ele>
  <time>2026-09-01T19:59:08Z</time>
  <course>166.32</course>
  <speed>26.783565856696526</speed>
  <fix>3d</fix>
</trkpt>
<trkpt lat="-27.2731814" lon="151.2891713">
  <ele>437.57</ele>
  <time>2026-09-01T19:59:08Z</time>
  <course>165.59</course>
  <speed>26.85</speed>
  <fix>3d</fix>
</trkpt>
<trkpt lat="-27.2732708" lon="151.2891967">
  <ele>437.73</ele>
  <time>2026-09-01T19:59:08Z</time>
  <course>166.33</course>
  <speed>26.78109221073704</speed>
  <fix>3d</fix>
</trkpt>
<trkpt lat="-27.2732282" lon="151.2891848">
  <ele>437.69</ele>
  <time>2026-09-01T19:59:08Z</time>
  <course>165.63</course>
  <speed>26.87</speed>
  <fix>3d</fix>
</trkpt>
<trkpt lat="-27.2732943" lon="151.2892035">
  <ele>437.82</ele>
  <time>2026-09-01T19:59:08Z</time>
  <course>166.38</course>
  <speed>26.76893161857604</speed>
  <fix>3d</fix>
</trkpt>
<trkpt lat="-27.2732282" lon="151.2891848">
  <ele>437.69</ele>
  <time>2026-09-01T19:59:08Z</time>
  <course>165.63</course>
  <speed>26.87</speed>
  <fix>3d</fix>
</trkpt>
<trkpt lat="-27.2733175" lon="151.2892102">
  <ele>437.9</ele>
  <time>2026-09-01T19:59:08Z</time>
  <course>166.43</course>
  <speed>26.764000074727246</speed>
  <fix>3d</fix>
</trkpt>
<trkpt lat="-27.2732751" lon="151.2891982">
  <ele>437.84</ele>
  <time>2026-09-01T19:59:08Z</time>
  <course>165.67</course>
  <speed>26.87</speed>
  <fix>3d</fix>
</trkpt>
<trkpt lat="-27.2733407" lon="151.2892168">
  <ele>437.99</ele>
  <time>2026-09-01T19:59:08Z</time>
  <course>166.44</course>
  <speed>26.759082570222766</speed>
  <fix>3d</fix>
</trkpt>
<trkpt lat="-27.2732751" lon="151.2891982">
  <ele>437.84</ele>
  <time>2026-09-01T19:59:08Z</time>
  <course>165.67</course>
  <speed>26.87</speed>
  <fix>3d</fix>
</trkpt>
<trkpt lat="-27.2733641" lon="151.2892235">
  <ele>438.08</ele>
  <time>2026-09-01T19:59:08Z</time>
  <course>166.43</course>
  <speed>26.744483543340298</speed>
  <fix>3d</fix>
</trkpt>
<trkpt lat="-27.2733219" lon="151.2892116">
  <ele>438.0</ele>
  <time>2026-09-01T19:59:08Z</time>
  <course>165.74</course>
  <speed>26.87</speed>
  <fix>3d</fix>
</trkpt>
<trkpt lat="-27.2733874" lon="151.2892301">
  <ele>438.17</ele>
  <time>2026-09-01T19:59:08Z</time>
  <course>166.44</course>
  <speed>26.739592367872774</speed>
  <fix>3d</fix>
</trkpt>
<trkpt lat="-27.2733219" lon="151.2892116">
  <ele>438.0</ele>
  <time>2026-09-01T19:59:08Z</time>
  <course>165.74</course>
  <speed>26.87</speed>
  <fix>3d</fix>
</trkpt>
<trkpt lat="-27.2734109" lon="151.2892367">
  <ele>438.27</ele>
  <time>2026-09-01T19:59:08Z</time>
  <course>166.49</course>
  <speed>26.734715259377648</speed>
  <fix>3d</fix>
</trkpt>
<trkpt lat="-27.2733686" lon="151.289225">
  <ele>438.18</ele>
  <time>2026-09-01T19:59:08Z</time>
  <course>165.83</course>
  <speed>26.86</speed>
  <fix>3d</fix>
</trkpt>
<trkpt lat="-27.2734343" lon="151.2892433">
  <ele>438.37</ele>
  <time>2026-09-01T19:59:08Z</time>
  <course>166.55</course>
  <speed>26.72742598904728</speed>
  <fix>3d</fix>
</trkpt>
<trkpt lat="-27.2733686" lon="151.289225">
  <ele>438.18</ele>
  <time>2026-09-01T19:59:08Z</time>
  <course>165.83</course>
  <speed>26.86</speed>
  <fix>3d</fix>
</trkpt>
<trkpt lat="-27.2734577" lon="151.2892499">
  <ele>438.48</ele>
  <time>2026-09-01T19:59:08Z</time>
  <course>166.63</course>
  <speed>26.72016841264291</speed>
  <fix>3d</fix>
</trkpt>
<trkpt lat="-27.2734154" lon="151.2892383">
  <ele>438.38</ele>
  <time>2026-09-01T19:59:08Z</time>
  <course>165.93</course>
  <speed>26.84</speed>
  <fix>3d</fix>
</trkpt>
<trkpt lat="-27.2734812" lon="151.2892565">
  <ele>438.58</ele>
  <time>2026-09-01T19:59:08Z</time>
  <course>166.68</course>
  <speed>26.715347648870303</speed>
  <fix>3d</fix>
</trkpt>
<trkpt lat="-27.2734154" lon="151.2892383">
  <ele>438.38</ele>
  <time>2026-09-01T19:59:08Z</time>
  <course>165.93</course>
  <speed>26.84</speed>
  <fix>3d</fix>
</trkpt>
<trkpt lat="-27.2735046" lon="151.2892631">
  <ele>438.69</ele>
  <time>2026-09-01T19:59:08Z</time>
  <course>166.7</course>
  <speed>26.70083332032916</speed>
  <fix>3d</fix>
</trkpt>
<trkpt lat="-27.2734621" lon="151.2892514">
  <ele>438.58</ele>
  <time>2026-09-01T19:59:08Z</time>
  <course>166.03</course>
  <speed>26.81</speed>
  <fix>3d</fix>
</trkpt>
<trkpt lat="-27.2735281" lon="151.2892696">
  <ele>438.8</ele>
  <time>2026-09-01T19:59:08Z</time>
  <course>166.75</course>
  <speed>26.683937115800585</speed>
  <fix>3d</fix>
</trkpt>
<trkpt lat="-27.2734621" lon="151.2892514">
  <ele>438.58</ele>
  <time>2026-09-01T19:59:08Z</time>
  <course>166.03</course>
  <speed>26.81</speed>
  <fix>3d</fix>
</trkpt>
<trkpt lat="-27.2735512" lon="151.289276">
  <ele>438.9</ele>
  <time>2026-09-01T19:59:08Z</time>
  <course>166.74</course>
  <speed>26.66706770531773</speed>
  <fix>3d</fix>
</trkpt>
<trkpt lat="-27.2735088" lon="151.2892644">
  <ele>438.78</ele>
  <time>2026-09-01T19:59:08Z</time>
  <course>166.14</course>
  <speed>26.78</speed>
  <fix>3d</fix>
</trkpt>
<trkpt lat="-27.2735745" lon="151.2892824">
  <ele>439.01</ele>
  <time>2026-09-01T19:59:08Z</time>
  <course>166.84</course>
  <speed>26.642884603586005</speed>
  <fix>3d</fix>
</trkpt>
<trkpt lat="-27.2735088" lon="151.2892644">
  <ele>438.78</ele>
  <time>2026-09-01T19:59:08Z</time>
  <course>166.14</course>
  <speed>26.78</speed>
  <fix>3d</fix>
</trkpt>
<trkpt lat="-27.2735977" lon="151.2892888">
  <ele>439.11</ele>
  <time>2026-09-01T19:59:08Z</time>
  <course>166.93</course>
  <speed>26.61634084542802</speed>
  <fix>3d</fix>
</trkpt>
<trkpt lat="-27.2735555" lon="151.2892773">
  <ele>439.0</ele>
  <time>2026-09-01T19:59:08Z</time>
  <course>166.24</course>
  <speed>26.74</speed>
  <fix>3d</fix>
</trkpt>
<trkpt lat="-27.2736208" lon="151.2892951">
  <ele>439.22</ele>
  <time>2026-09-01T19:59:08Z</time>
  <course>167.02</course>
  <speed>26.58010157994134</speed>
  <fix>3d</fix>
</trkpt>
<trkpt lat="-27.2735555" lon="151.2892773">
  <ele>439.0</ele>
  <time>2026-09-01T19:59:08Z</time>
  <course>166.24</course>
  <speed>26.74</speed>
  <fix>3d</fix>
</trkpt>
<trkpt lat="-27.2736442" lon="151.2893015">
  <ele>439.33</ele>
  <time>2026-09-01T19:59:08Z</time>
  <course>167.04</course>
  <speed>26.555952251802232</speed>
  <fix>3d</fix>
</trkpt>
<trkpt lat="-27.2736022" lon="151.2892901">
  <ele>439.21</ele>
  <time>2026-09-01T19:59:08Z</time>
  <course>166.33</course>
  <speed>26.69</speed>
  <fix>3d</fix>
</trkpt>
<trkpt lat="-27.2736673" lon="151.2893078">
  <ele>439.44</ele>
  <time>2026-09-01T19:59:08Z</time>
  <course>167.06</course>
  <speed>26.522090792394177</speed>
  <fix>3d</fix>
</trkpt>
<trkpt lat="-27.2736022" lon="151.2892901">
  <ele>439.21</ele>
  <time>2026-09-01T19:59:08Z</time>
  <course>166.33</course>
  <speed>26.69</speed>
  <fix>3d</fix>
</trkpt>
<trkpt lat="-27.2736904" lon="151.289314">
  <ele>439.55</ele>
  <time>2026-09-01T19:59:08Z</time>
  <course>167.11</course>
  <speed>26.507678132948573</speed>
  <fix>3d</fix>
</trkpt>
<trkpt lat="-27.2736487" lon="151.2893028">
  <ele>439.42</ele>
  <time>2026-09-01T19:59:08Z</time>
  <course>166.42</course>
  <speed>26.64</speed>
  <fix>3d</fix>
</trkpt>
<trkpt lat="-27.2737135" lon="151.2893203">
  <ele>439.66</ele>
  <time>2026-09-01T19:59:08Z</time>
  <course>167.19</course>
  <speed>26.471494102146934</speed>
  <fix>3d</fix>
</trkpt>
<trkpt lat="-27.2736487" lon="151.2893028">
  <ele>439.42</ele>
  <time>2026-09-01T19:59:08Z</time>
  <course>166.42</course>
  <speed>26.64</speed>
  <fix>3d</fix>
</trkpt>
<trkpt lat="-27.2737366" lon="151.2893265">
  <ele>439.77</ele>
  <time>2026-09-01T19:59:08Z</time>
  <course>167.28</course>
  <speed>26.44738172296078</speed>
  <fix>3d</fix>
</trkpt>
<trkpt lat="-27.2736953" lon="151.2893154">
  <ele>439.63</ele>
  <time>2026-09-01T19:59:08Z</time>
  <course>166.49</course>
  <speed>26.6</speed>
  <fix>3d</fix>
</trkpt>
<trkpt lat="-27.2737597" lon="151.2893327">
  <ele>439.87</ele>
  <time>2026-09-01T19:59:08Z</time>
  <course>167.32</course>
  <speed>26.42095569808178</speed>
  <fix>3d</fix>
</trkpt>
<trkpt lat="-27.2736953" lon="151.2893154">
  <ele>439.63</ele>
  <time>2026-09-01T19:59:08Z</time>
  <course>166.49</course>
  <speed>26.6</speed>
  <fix>3d</fix>
</trkpt>
<trkpt lat="-27.2737829" lon="151.2893389">
  <ele>439.98</ele>
  <time>2026-09-01T19:59:08Z</time>
  <course>167.33</course>
  <speed>26.40659387350061</speed>
  <fix>3d</fix>
</trkpt>
<trkpt lat="-27.2737417" lon="151.2893279">
  <ele>439.84</ele>
  <time>2026-09-01T19:59:08Z</time>
  <course>166.57</course>
  <speed>26.55</speed>
  <fix>3d</fix>
</trkpt>
<trkpt lat="-27.273806" lon="151.2893451">
  <ele>440.08</ele>
  <time>2026-09-01T19:59:08Z</time>
  <course>167.36</course>
  <speed>26.380206595097015</speed>
  <fix>3d</fix>
</trkpt>
<trkpt lat="-27.2737417" lon="151.2893279">
  <ele>439.84</ele>
  <time>2026-09-01T19:59:08Z</time>
  <course>166.57</course>
  <speed>26.55</speed>
  <fix>3d</fix>
</trkpt>
<trkpt lat="-27.2738293" lon="151.2893513">
  <ele>440.17</ele>
  <time>2026-09-01T19:59:08Z</time>
  <course>167.39</course>
  <speed>26.365871880140812</speed>
  <fix>3d</fix>
</trkpt>
<trkpt lat="-27.2737881" lon="151.2893403">
  <ele>440.05</ele>
  <time>2026-09-01T19:59:08Z</time>
  <course>166.66</course>
  <speed>26.5</speed>
  <fix>3d</fix>
</trkpt>
<trkpt lat="-27.2738525" lon="151.2893574">
  <ele>440.27</ele>
  <time>2026-09-01T19:59:08Z</time>
  <course>167.41</course>
  <speed>26.35154834160604</speed>
  <fix>3d</fix>
</trkpt>
<trkpt lat="-27.2737881" lon="151.2893403">
  <ele>440.05</ele>
  <time>2026-09-01T19:59:08Z</time>
  <course>166.66</course>
  <speed>26.5</speed>
  <fix>3d</fix>
</trkpt>
<trkpt lat="-27.2738758" lon="151.2893636">
  <ele>440.35</ele>
  <time>2026-09-01T19:59:08Z</time>
  <course>167.44</course>
  <speed>26.337235997727632</speed>
  <fix>3d</fix>
</trkpt>
<trkpt lat="-27.2738344" lon="151.2893526">
  <ele>440.25</ele>
  <time>2026-09-01T19:59:08Z</time>
  <course>166.74</course>
  <speed>26.45</speed>
  <fix>3d</fix>
</trkpt>
<trkpt lat="-27.273899" lon="151.2893697">
  <ele>440.44</ele>
  <time>2026-09-01T19:59:08Z</time>
  <course>167.51</course>
  <speed>26.322934866765898</speed>
  <fix>3d</fix>
</trkpt>
<trkpt lat="-27.2738344" lon="151.2893526">
  <ele>440.25</ele>
  <time>2026-09-01T19:59:08Z</time>
  <course>166.74</course>
  <speed>26.45</speed>
  <fix>3d</fix>
</trkpt>
<trkpt lat="-27.2739222" lon="151.2893758">
  <ele>440.52</ele>
  <time>2026-09-01T19:59:08Z</time>
  <course>167.56</course>
  <speed>26.30864496700657</speed>
  <fix>3d</fix>
</trkpt>
<trkpt lat="-27.2738807" lon="151.2893649">
  <ele>440.43</ele>
  <time>2026-09-01T19:59:08Z</time>
  <course>166.82</course>
  <speed>26.4</speed>
  <fix>3d</fix>
</trkpt>
<trkpt lat="-27.2739456" lon="151.2893819">
  <ele>440.61</ele>
  <time>2026-09-01T19:59:08Z</time>
  <course>167.6</course>
  <speed>26.294366316760705</speed>
  <fix>3d</fix>
</trkpt>
<trkpt lat="-27.2738807" lon="151.2893649">
  <ele>440.43</ele>
  <time>2026-09-01T19:59:08Z</time>
  <course>166.82</course>
  <speed>26.4</speed>
  <fix>3d</fix>
</trkpt>
<trkpt lat="-27.2739688" lon="151.289388">
  <ele>440.69</ele>
  <time>2026-09-01T19:59:08Z</time>
  <course>167.66</course>
  <speed>26.280098934364766</speed>
  <fix>3d</fix>
</trkpt>
<trkpt lat="-27.2739268" lon="151.289377">
  <ele>440.6</ele>
  <time>2026-09-01T19:59:08Z</time>
  <course>166.89</course>
  <speed>26.35</speed>
  <fix>3d</fix>
</trkpt>
<trkpt lat="-27.2739919" lon="151.289394">
  <ele>440.77</ele>
  <time>2026-09-01T19:59:08Z</time>
  <course>167.72</course>
  <speed>26.256100243562447</speed>
  <fix>3d</fix>
</trkpt>
<trkpt lat="-27.2739268" lon="151.289377">
  <ele>440.6</ele>
  <time>2026-09-01T19:59:08Z</time>
  <course>166.89</course>
  <speed>26.35</speed>
  <fix>3d</fix>
</trkpt>
<trkpt lat="-27.2740151" lon="151.2894">
  <ele>440.86</ele>
  <time>2026-09-01T19:59:08Z</time>
  <course>167.75</course>
  <speed>26.241853974138333</speed>
  <fix>3d</fix>
</trkpt>
<trkpt lat="-27.2739728" lon="151.2893889">
  <ele>440.77</ele>
  <time>2026-09-01T19:59:08Z</time>
  <course>166.96</course>
  <speed>26.3</speed>
  <fix>3d</fix>
</trkpt>
<trkpt lat="-27.274038" lon="151.2894059">
  <ele>440.94</ele>
  <time>2026-09-01T19:59:08Z</time>
  <course>167.71</course>
  <speed>26.22761903032755</speed>
  <fix>3d</fix>
</trkpt>
<trkpt lat="-27.2739728" lon="151.2893889">
  <ele>440.77</ele>
  <time>2026-09-01T19:59:08Z</time>
  <course>166.96</course>
  <speed>26.3</speed>
  <fix>3d</fix>
</trkpt>
<trkpt lat="-27.2740609" lon="151.2894119">
  <ele>441.02</ele>
  <time>2026-09-01T19:59:08Z</time>
  <course>167.67</course>
  <speed>26.20588674324912</speed>
  <fix>3d</fix>
</trkpt>
<trkpt lat="-27.2740188" lon="151.2894009">
  <ele>440.94</ele>
  <time>2026-09-01T19:59:08Z</time>
  <course>167.03</course>
  <speed>26.26</speed>
  <fix>3d</fix>
</trkpt>
<trkpt lat="-27.2740839" lon="151.2894178">
  <ele>441.1</ele>
  <time>2026-09-01T19:59:08Z</time>
  <course>167.71</course>
  <speed>26.18191933376925</speed>
  <fix>3d</fix>
</trkpt>
<trkpt lat="-27.2740188" lon="151.2894009">
  <ele>440.94</ele>
  <time>2026-09-01T19:59:08Z</time>
  <course>167.03</course>
  <speed>26.26</speed>
  <fix>3d</fix>
</trkpt>
<trkpt lat="-27.2741067" lon="151.2894236">
  <ele>441.18</ele>
  <time>2026-09-01T19:59:08Z</time>
  <course>167.78</course>
  <speed>26.16019113080025</speed>
  <fix>3d</fix>
</trkpt>
<trkpt lat="-27.2740647" lon="151.2894128">
  <ele>441.09</ele>
  <time>2026-09-01T19:59:08Z</time>
  <course>167.08</course>
  <speed>26.21</speed>
  <fix>3d</fix>
</trkpt>
<trkpt lat="-27.2741297" lon="151.2894296">
  <ele>441.26</ele>
  <time>2026-09-01T19:59:08Z</time>
  <course>167.84</course>
  <speed>26.126486560576794</speed>
  <fix>3d</fix>
</trkpt>
<trkpt lat="-27.2740647" lon="151.2894128">
  <ele>441.09</ele>
  <time>2026-09-01T19:59:08Z</time>
  <course>167.08</course>
  <speed>26.21</speed>
  <fix>3d</fix>
</trkpt>
<trkpt lat="-27.2741525" lon="151.2894354">
  <ele>441.34</ele>
  <time>2026-09-01T19:59:08Z</time>
  <course>167.88</course>
  <speed>26.10253819075838</speed>
  <fix>3d</fix>
</trkpt>
<trkpt lat="-27.2741106" lon="151.2894246">
  <ele>441.26</ele>
  <time>2026-09-01T19:59:08Z</time>
  <course>167.12</course>
  <speed>26.17</speed>
  <fix>3d</fix>
</trkpt>
<trkpt lat="-27.2741752" lon="151.2894412">
  <ele>441.41</ele>
  <time>2026-09-01T19:59:08Z</time>
  <course>167.9</course>
  <speed>26.07106633799239</speed>
  <fix>3d</fix>
</trkpt>
<trkpt lat="-27.2741106" lon="151.2894246">
  <ele>441.26</ele>
  <time>2026-09-01T19:59:08Z</time>
  <course>167.12</course>
  <speed>26.17</speed>
  <fix>3d</fix>
</trkpt>
<trkpt lat="-27.2741979" lon="151.289447">
  <ele>441.48</ele>
  <time>2026-09-01T19:59:08Z</time>
  <course>167.86</course>
  <speed>26.04934548122083</speed>
  <fix>3d</fix>
</trkpt>
<trkpt lat="-27.2741564" lon="151.2894364">
  <ele>441.41</ele>
  <time>2026-09-01T19:59:08Z</time>
  <course>167.16</course>
  <speed>26.12</speed>
  <fix>3d</fix>
</trkpt>
<trkpt lat="-27.2742207" lon="151.2894528">
  <ele>441.54</ele>
  <time>2026-09-01T19:59:09Z</time>
  <course>167.84</course>
  <speed>26.027625708081786</speed>
  <fix>3d</fix>
</trkpt>
<trkpt lat="-27.2741564" lon="151.2894364">
  <ele>441.41</ele>
  <time>2026-09-01T19:59:09Z</time>
  <course>167.16</course>
  <speed>26.12</speed>
  <fix>3d</fix>
</trkpt>
<trkpt lat="-27.2742435" lon="151.2894587">
  <ele>441.61</ele>
  <time>2026-09-01T19:59:09Z</time>
  <course>167.89</course>
  <speed>26.005907021290373</speed>
  <fix>3d</fix>
</trkpt>
<trkpt lat="-27.2742022" lon="151.2894481">
  <ele>441.56</ele>
  <time>2026-09-01T19:59:09Z</time>
  <course>167.19</course>
  <speed>26.08</speed>
  <fix>3d</fix>
</trkpt>
<trkpt lat="-27.2742663" lon="151.2894645">
  <ele>441.67</ele>
  <time>2026-09-01T19:59:09Z</time>
  <course>167.93</course>
  <speed>25.993941601842536</speed>
  <fix>3d</fix>
</trkpt>
<trkpt lat="-27.2742022" lon="151.2894481">
  <ele>441.56</ele>
  <time>2026-09-01T19:59:09Z</time>
  <course>167.19</course>
  <speed>26.08</speed>
  <fix>3d</fix>
</trkpt>
<trkpt lat="-27.2742892" lon="151.2894703">
  <ele>441.73</ele>
  <time>2026-09-01T19:59:09Z</time>
  <course>167.89</course>
  <speed>25.981978369631516</speed>
  <fix>3d</fix>
</trkpt>
<trkpt lat="-27.274248" lon="151.2894598">
  <ele>441.69</ele>
  <time>2026-09-01T19:59:09Z</time>
  <course>167.2</course>
  <speed>26.04</speed>
  <fix>3d</fix>
</trkpt>
<trkpt lat="-27.274312" lon="151.2894762">
  <ele>441.79</ele>
  <time>2026-09-01T19:59:09Z</time>
  <course>167.86</course>
  <speed>25.972225549613572</speed>
  <fix>3d</fix>
</trkpt>
<trkpt lat="-27.274248" lon="151.2894598">
  <ele>441.69</ele>
  <time>2026-09-01T19:59:09Z</time>
  <course>167.2</course>
  <speed>26.04</speed>
  <fix>3d</fix>
</trkpt>
<trkpt lat="-27.2743349" lon="151.289482">
  <ele>441.85</ele>
  <time>2026-09-01T19:59:09Z</time>
  <course>167.87</course>
  <speed>25.960263866147432</speed>
  <fix>3d</fix>
</trkpt>
<trkpt lat="-27.2742936" lon="151.2894714">
  <ele>441.82</ele>
  <time>2026-09-01T19:59:09Z</time>
  <course>167.22</course>
  <speed>26.01</speed>
  <fix>3d</fix>
</trkpt>
<trkpt lat="-27.2743578" lon="151.2894878">
  <ele>441.91</ele>
  <time>2026-09-01T19:59:09Z</time>
  <course>167.91</course>
  <speed>25.94830437620154</speed>
  <fix>3d</fix>
</trkpt>
<trkpt lat="-27.2742936" lon="151.2894714">
  <ele>441.82</ele>
  <time>2026-09-01T19:59:09Z</time>
  <course>167.22</course>
  <speed>26.01</speed>
  <fix>3d</fix>
</trkpt>
<trkpt lat="-27.2743807" lon="151.2894936">
  <ele>441.97</ele>
  <time>2026-09-01T19:59:09Z</time>
  <course>167.92</course>
  <speed>25.938550460656046</speed>
  <fix>3d</fix>
</trkpt>
<trkpt lat="-27.2743391" lon="151.289483">
  <ele>441.93</ele>
  <time>2026-09-01T19:59:09Z</time>
  <course>167.23</course>
  <speed>25.98</speed>
  <fix>3d</fix>
</trkpt>
<trkpt lat="-27.2744035" lon="151.2894994">
  <ele>442.02</ele>
  <time>2026-09-01T19:59:09Z</time>
  <course>167.96</course>
  <speed>25.926592525821825</speed>
  <fix>3d</fix>
</trkpt>
<trkpt lat="-27.2743391" lon="151.289483">
  <ele>441.93</ele>
  <time>2026-09-01T19:59:09Z</time>
  <course>167.23</course>
  <speed>25.98</speed>
  <fix>3d</fix>
</trkpt>
<trkpt lat="-27.2744264" lon="151.2895052">
  <ele>442.07</ele>
  <time>2026-09-01T19:59:09Z</time>
  <course>167.95</course>
  <speed>25.91683815591709</speed>
  <fix>3d</fix>
</trkpt>
<trkpt lat="-27.2743846" lon="151.2894946">
  <ele>442.04</ele>
  <time>2026-09-01T19:59:09Z</time>
  <course>167.23</course>
  <speed>25.94</speed>
  <fix>3d</fix>
</trkpt>
<trkpt lat="-27.2744492" lon="151.289511">
  <ele>442.12</ele>
  <time>2026-09-01T19:59:09Z</time>
  <course>167.98</course>
  <speed>25.895126954699414</speed>
  <fix>3d</fix>
</trkpt>
<trkpt lat="-27.2743846" lon="151.2894946">
  <ele>442.04</ele>
  <time>2026-09-01T19:59:09Z</time>
  <course>167.23</course>
  <speed>25.94</speed>
  <fix>3d</fix>
</trkpt>
<trkpt lat="-27.274472" lon="151.2895168">
  <ele>442.17</ele>
  <time>2026-09-01T19:59:09Z</time>
  <course>168.02</course>
  <speed>25.88317213944226</speed>
  <fix>3d</fix>
</trkpt>
<trkpt lat="-27.27443" lon="151.2895062">
  <ele>442.15</ele>
  <time>2026-09-01T19:59:09Z</time>
  <course>167.24</course>
  <speed>25.9</speed>
  <fix>3d</fix>
</trkpt>
<trkpt lat="-27.2744947" lon="151.2895226">
  <ele>442.22</ele>
  <time>2026-09-01T19:59:09Z</time>
  <course>168.02</course>
  <speed>25.873416859781006</speed>
  <fix>3d</fix>
</trkpt>
<trkpt lat="-27.27443" lon="151.2895062">
  <ele>442.15</ele>
  <time>2026-09-01T19:59:09Z</time>
  <course>167.24</course>
  <speed>25.9</speed>
  <fix>3d</fix>
</trkpt>
<trkpt lat="-27.2745175" lon="151.2895284">
  <ele>442.27</ele>
  <time>2026-09-01T19:59:09Z</time>
  <course>167.99</course>
  <speed>25.861463609007128</speed>
  <fix>3d</fix>
</trkpt>
<trkpt lat="-27.2744753" lon="151.2895178">
  <ele>442.26</ele>
  <time>2026-09-01T19:59:09Z</time>
  <course>167.25</course>
  <speed>25.87</speed>
  <fix>3d</fix>
</trkpt>
<trkpt lat="-27.2745402" lon="151.2895341">
  <ele>442.32</ele>
  <time>2026-09-01T19:59:09Z</time>
  <course>167.99</course>
  <speed>25.851707873949064</speed>
  <fix>3d</fix>
</trkpt>
<trkpt lat="-27.2744753" lon="151.2895178">
  <ele>442.26</ele>
  <time>2026-09-01T19:59:09Z</time>
  <course>167.25</course>
  <speed>25.87</speed>
  <fix>3d</fix>
</trkpt>
<trkpt lat="-27.2745629" lon="151.2895399">
  <ele>442.36</ele>
  <time>2026-09-01T19:59:09Z</time>
  <course>167.98</course>
  <speed>25.839756190800255</speed>
  <fix>3d</fix>
</trkpt>
<trkpt lat="-27.2745206" lon="151.2895293">
  <ele>442.35</ele>
  <time>2026-09-01T19:59:09Z</time>
  <course>167.26</course>
  <speed>25.84</speed>
  <fix>3d</fix>
</trkpt>
<trkpt lat="-27.2745856" lon="151.2895456">
  <ele>442.41</ele>
  <time>2026-09-01T19:59:09Z</time>
  <course>167.99</course>
  <speed>25.82024399574876</speed>
  <fix>3d</fix>
</trkpt>
<trkpt lat="-27.2745206" lon="151.2895293">
  <ele>442.35</ele>
  <time>2026-09-01T19:59:09Z</time>
  <course>167.26</course>
  <speed>25.84</speed>
  <fix>3d</fix>
</trkpt>
<trkpt lat="-27.2746085" lon="151.2895514">
  <ele>442.45</ele>
  <time>2026-09-01T19:59:09Z</time>
  <course>168.0</course>
  <speed>25.818049887627065</speed>
  <fix>3d</fix>
</trkpt>
<trkpt lat="-27.2745659" lon="151.2895408">
  <ele>442.44</ele>
  <time>2026-09-01T19:59:09Z</time>
  <course>167.26</course>
  <speed>25.81</speed>
  <fix>3d</fix>
</trkpt>
<trkpt lat="-27.2746311" lon="151.2895572">
  <ele>442.49</ele>
  <time>2026-09-01T19:59:09Z</time>
  <course>168.03</course>
  <speed>25.808293240739495</speed>
  <fix>3d</fix>
</trkpt>
<trkpt lat="-27.2745659" lon="151.2895408">
  <ele>442.44</ele>
  <time>2026-09-01T19:59:09Z</time>
  <course>167.26</course>
  <speed>25.81</speed>
  <fix>3d</fix>
</trkpt>
<trkpt lat="-27.2746537" lon="151.2895629">
  <ele>442.53</ele>
  <time>2026-09-01T19:59:09Z</time>
  <course>167.97</course>
  <speed>25.786587598982535</speed>
  <fix>3d</fix>
</trkpt>
<trkpt lat="-27.2746111" lon="151.2895523">
  <ele>442.52</ele>
  <time>2026-09-01T19:59:09Z</time>
  <course>167.27</course>
  <speed>25.78</speed>
  <fix>3d</fix>
</trkpt>
<trkpt lat="-27.2746762" lon="151.2895686">
  <ele>442.57</ele>
  <time>2026-09-01T19:59:09Z</time>
  <course>167.99</course>
  <speed>25.774640637650023</speed>
  <fix>3d</fix>
</trkpt>
<trkpt lat="-27.2746111" lon="151.2895523">
  <ele>442.52</ele>
  <time>2026-09-01T19:59:09Z</time>
  <course>167.27</course>
  <speed>25.78</speed>
  <fix>3d</fix>
</trkpt>
<trkpt lat="-27.2746986" lon="151.2895743">
  <ele>442.61</ele>
  <time>2026-09-01T19:59:09Z</time>
  <course>167.98</course>
  <speed>25.75512570344008</speed>
  <fix>3d</fix>
</trkpt>
<trkpt lat="-27.2746563" lon="151.2895637">
  <ele>442.6</ele>
  <time>2026-09-01T19:59:09Z</time>
  <course>167.28</course>
  <speed>25.76</speed>
  <fix>3d</fix>
</trkpt>
<trkpt lat="-27.274721" lon="151.2895799">
  <ele>442.64</ele>
  <time>2026-09-01T19:59:09Z</time>
  <course>167.96</course>
  <speed>25.733421847861585</speed>
  <fix>3d</fix>
</trkpt>
<trkpt lat="-27.2746563" lon="151.2895637">
  <ele>442.6</ele>
  <time>2026-09-01T19:59:09Z</time>
  <course>167.28</course>
  <speed>25.76</speed>
  <fix>3d</fix>
</trkpt>
<trkpt lat="-27.2747435" lon="151.2895856">
  <ele>442.68</ele>
  <time>2026-09-01T19:59:09Z</time>
  <course>168.0</course>
  <speed>25.723664202442077</speed>
  <fix>3d</fix>
</trkpt>
<trkpt lat="-27.2747015" lon="151.2895752">
  <ele>442.67</ele>
  <time>2026-09-01T19:59:09Z</time>
  <course>167.29</course>
  <speed>25.73</speed>
  <fix>3d</fix>
</trkpt>
<trkpt lat="-27.274766" lon="151.2895913">
  <ele>442.72</ele>
  <time>2026-09-01T19:59:09Z</time>
  <course>168.02</course>
  <speed>25.711719117943083</speed>
  <fix>3d</fix>
</trkpt>
<trkpt lat="-27.2747015" lon="151.2895752">
  <ele>442.67</ele>
  <time>2026-09-01T19:59:09Z</time>
  <course>167.29</course>
  <speed>25.73</speed>
  <fix>3d</fix>
</trkpt>
<trkpt lat="-27.2747885" lon="151.289597">
  <ele>442.75</ele>
  <time>2026-09-01T19:59:09Z</time>
  <course>168.05</course>
  <speed>25.701961014677458</speed>
  <fix>3d</fix>
</trkpt>
<trkpt lat="-27.2747466" lon="151.2895867">
  <ele>442.74</ele>
  <time>2026-09-01T19:59:09Z</time>
  <course>167.29</course>
  <speed>25.71</speed>
  <fix>3d</fix>
</trkpt>
<trkpt lat="-27.2748111" lon="151.2896027">
  <ele>442.78</ele>
  <time>2026-09-01T19:59:09Z</time>
  <course>168.04</course>
  <speed>25.69977626361755</speed>
  <fix>3d</fix>
</trkpt>
<trkpt lat="-27.2747466" lon="151.2895867">
  <ele>442.74</ele>
  <time>2026-09-01T19:59:09Z</time>
  <course>167.29</course>
  <speed>25.71</speed>
  <fix>3d</fix>
</trkpt>
<trkpt lat="-27.2748336" lon="151.2896084">
  <ele>442.81</ele>
  <time>2026-09-01T19:59:09Z</time>
  <course>168.04</course>
  <speed>25.69001751653743</speed>
  <fix>3d</fix>
</trkpt>
<trkpt lat="-27.2747916" lon="151.289598">
  <ele>442.81</ele>
  <time>2026-09-01T19:59:09Z</time>
  <course>167.3</course>
  <speed>25.69</speed>
  <fix>3d</fix>
</trkpt>
<trkpt lat="-27.2748562" lon="151.2896141">
  <ele>442.83</ele>
  <time>2026-09-01T19:59:09Z</time>
  <course>168.0</course>
  <speed>25.678076251931333</speed>
  <fix>3d</fix>
</trkpt>
<trkpt lat="-27.2747916" lon="151.289598">
  <ele>442.81</ele>
  <time>2026-09-01T19:59:09Z</time>
  <course>167.3</course>
  <speed>25.69</speed>
  <fix>3d</fix>
</trkpt>
<trkpt lat="-27.2748787" lon="151.2896198">
  <ele>442.86</ele>
  <time>2026-09-01T19:59:09Z</time>
  <course>168.02</course>
  <speed>25.668317046506964</speed>
  <fix>3d</fix>
</trkpt>
<trkpt lat="-27.2748367" lon="151.2896094">
  <ele>442.87</ele>
  <time>2026-09-01T19:59:09Z</time>
  <course>167.3</course>
  <speed>25.67</speed>
  <fix>3d</fix>
</trkpt>
<trkpt lat="-27.2749012" lon="151.2896255">
  <ele>442.89</ele>
  <time>2026-09-01T19:59:09Z</time>
  <course>168.05</course>
  <speed>25.668317046506964</speed>
  <fix>3d</fix>
</trkpt>
<trkpt lat="-27.2748367" lon="151.2896094">
  <ele>442.87</ele>
  <time>2026-09-01T19:59:09Z</time>
  <course>167.3</course>
  <speed>25.67</speed>
  <fix>3d</fix>
</trkpt>
<trkpt lat="-27.2749238" lon="151.2896312">
  <ele>442.91</ele>
  <time>2026-09-01T19:59:09Z</time>
  <course>168.04</course>
  <speed>25.658558026514275</speed>
  <fix>3d</fix>
</trkpt>
<trkpt lat="-27.2748816" lon="151.2896209">
  <ele>442.93</ele>
  <time>2026-09-01T19:59:09Z</time>
  <course>167.3</course>
  <speed>25.65</speed>
  <fix>3d</fix>
</trkpt>
<trkpt lat="-27.2749463" lon="151.2896369">
  <ele>442.93</ele>
  <time>2026-09-01T19:59:09Z</time>
  <course>168.0</course>
  <speed>25.656377374836065</speed>
  <fix>3d</fix>
</trkpt>
<trkpt lat="-27.2748816" lon="151.2896209">
  <ele>442.93</ele>
  <time>2026-09-01T19:59:09Z</time>
  <course>167.3</course>
  <speed>25.65</speed>
  <fix>3d</fix>
</trkpt>
<trkpt lat="-27.2749688" lon="151.2896426">
  <ele>442.95</ele>
  <time>2026-09-01T19:59:09Z</time>
  <course>168.01</course>
  <speed>25.64661771072357</speed>
  <fix>3d</fix>
</trkpt>
<trkpt lat="-27.2749265" lon="151.2896323">
  <ele>442.97</ele>
  <time>2026-09-01T19:59:09Z</time>
  <course>167.3</course>
  <speed>25.64</speed>
  <fix>3d</fix>
</trkpt>
<trkpt lat="-27.2749913" lon="151.2896483">
  <ele>442.97</ele>
  <time>2026-09-01T19:59:09Z</time>
  <course>168.07</course>
  <speed>25.64661771072357</speed>
  <fix>3d</fix>
</trkpt>
<trkpt lat="-27.2749265" lon="151.2896323">
  <ele>442.97</ele>
  <time>2026-09-01T19:59:09Z</time>
  <course>167.3</course>
  <speed>25.64</speed>
  <fix>3d</fix>
</trkpt>
<trkpt lat="-27.2750138" lon="151.289654">
  <ele>442.99</ele>
  <time>2026-09-01T19:59:09Z</time>
  <course>168.08</course>
  <speed>25.64661771072357</speed>
  <fix>3d</fix>
</trkpt>
<trkpt lat="-27.2749714" lon="151.2896437">
  <ele>443.02</ele>
  <time>2026-09-01T19:59:09Z</time>
  <course>167.3</course>
  <speed>25.63</speed>
  <fix>3d</fix>
</trkpt>
<trkpt lat="-27.2750363" lon="151.2896597">
  <ele>443.0</ele>
  <time>2026-09-01T19:59:09Z</time>
  <course>168.05</course>
  <speed>25.63467963521292</speed>
  <fix>3d</fix>
</trkpt>
<trkpt lat="-27.2749714" lon="151.2896437">
  <ele>443.02</ele>
  <time>2026-09-01T19:59:09Z</time>
  <course>167.3</course>
  <speed>25.63</speed>
  <fix>3d</fix>
</trkpt>
<trkpt lat="-27.2750588" lon="151.2896654">
  <ele>443.01</ele>
  <time>2026-09-01T19:59:09Z</time>
  <course>168.05</course>
  <speed>25.6325047547055</speed>
  <fix>3d</fix>
</trkpt>
<trkpt lat="-27.2750163" lon="151.2896551">
  <ele>443.05</ele>
  <time>2026-09-01T19:59:09Z</time>
  <course>167.31</course>
  <speed>25.62</speed>
  <fix>3d</fix>
</trkpt>
<trkpt lat="-27.2750811" lon="151.289671">
  <ele>443.02</ele>
  <time>2026-09-01T19:59:09Z</time>
  <course>168.02</course>
  <speed>25.62274380311367</speed>
  <fix>3d</fix>
</trkpt>
<trkpt lat="-27.2750163" lon="151.2896551">
  <ele>443.05</ele>
  <time>2026-09-01T19:59:09Z</time>
  <course>167.31</course>
  <speed>25.62</speed>
  <fix>3d</fix>
</trkpt>
<trkpt lat="-27.2751034" lon="151.2896766">
  <ele>443.03</ele>
  <time>2026-09-01T19:59:09Z</time>
  <course>168.02</course>
  <speed>25.62274380311367</speed>
  <fix>3d</fix>
</trkpt>
<trkpt lat="-27.2750612" lon="151.2896664">
  <ele>443.08</ele>
  <time>2026-09-01T19:59:09Z</time>
  <course>167.32</course>
  <speed>25.61</speed>
  <fix>3d</fix>
</trkpt>
<trkpt lat="-27.2751258" lon="151.2896823">
  <ele>443.04</ele>
  <time>2026-09-01T19:59:09Z</time>
  <course>168.07</course>
  <speed>25.612983035952684</speed>
  <fix>3d</fix>
</trkpt>
<trkpt lat="-27.2750612" lon="151.2896664">
  <ele>443.08</ele>
  <time>2026-09-01T19:59:09Z</time>
  <course>167.32</course>
  <speed>25.61</speed>
  <fix>3d</fix>
</trkpt>
<trkpt lat="-27.275148" lon="151.2896879">
  <ele>443.05</ele>
  <time>2026-09-01T19:59:09Z</time>
  <course>168.11</course>
  <speed>25.603222453433474</speed>
  <fix>3d</fix>
</trkpt>
<trkpt lat="-27.2751061" lon="151.2896777">
  <ele>443.11</ele>
  <time>2026-09-01T19:59:09Z</time>
  <course>167.33</course>
  <speed>25.6</speed>
  <fix>3d</fix>
</trkpt>
<trkpt lat="-27.2751705" lon="151.2896936">
  <ele>443.06</ele>
  <time>2026-09-01T19:59:09Z</time>
  <course>168.11</course>
  <speed>25.5912875799558</speed>
  <fix>3d</fix>
</trkpt>
<trkpt lat="-27.2751061" lon="151.2896777">
  <ele>443.11</ele>
  <time>2026-09-01T19:59:09Z</time>
  <course>167.33</course>
  <speed>25.6</speed>
  <fix>3d</fix>
</trkpt>
<trkpt lat="-27.2751927" lon="151.2896992">
  <ele>443.07</ele>
  <time>2026-09-01T19:59:09Z</time>
  <course>168.09</course>
  <speed>25.57935495668333</speed>
  <fix>3d</fix>
</trkpt>
<trkpt lat="-27.2751511" lon="151.2896891">
  <ele>443.14</ele>
  <time>2026-09-01T19:59:09Z</time>
  <course>167.32</course>
  <speed>25.6</speed>
  <fix>3d</fix>
</trkpt>
<trkpt lat="-27.2752152" lon="151.2897048">
  <ele>443.08</ele>
  <time>2026-09-01T19:59:09Z</time>
  <course>168.08</course>
  <speed>25.569593270132394</speed>
  <fix>3d</fix>
</trkpt>
<trkpt lat="-27.2751511" lon="151.2896891">
  <ele>443.14</ele>
  <time>2026-09-01T19:59:09Z</time>
  <course>167.32</course>
  <speed>25.6</speed>
  <fix>3d</fix>
</trkpt>
<trkpt lat="-27.2752376" lon="151.2897105">
  <ele>443.09</ele>
  <time>2026-09-01T19:59:09Z</time>
  <course>168.05</course>
  <speed>25.569593270132394</speed>
  <fix>3d</fix>
</trkpt>
<trkpt lat="-27.275196" lon="151.2897004">
  <ele>443.16</ele>
  <time>2026-09-01T19:59:09Z</time>
  <course>167.34</course>
  <speed>25.59</speed>
  <fix>3d</fix>
</trkpt>
<trkpt lat="-27.27526" lon="151.2897161">
  <ele>443.1</ele>
  <time>2026-09-01T19:59:09Z</time>
  <course>168.03</course>
  <speed>25.569593270132394</speed>
  <fix>3d</fix>
</trkpt>
<trkpt lat="-27.275196" lon="151.2897004">
  <ele>443.16</ele>
  <time>2026-09-01T19:59:09Z</time>
  <course>167.34</course>
  <speed>25.59</speed>
  <fix>3d</fix>
</trkpt>
<trkpt lat="-27.2752824" lon="151.2897218">
  <ele>443.11</ele>
  <time>2026-09-01T19:59:09Z</time>
  <course>168.09</course>
  <speed>25.557662256161066</speed>
  <fix>3d</fix>
</trkpt>
<trkpt lat="-27.2752409" lon="151.2897118">
  <ele>443.18</ele>
  <time>2026-09-01T19:59:09Z</time>
  <course>167.35</course>
  <speed>25.59</speed>
  <fix>3d</fix>
</trkpt>
<trkpt lat="-27.2753048" lon="151.2897274">
  <ele>443.11</ele>
  <time>2026-09-01T19:59:09Z</time>
  <course>168.15</course>
  <speed>25.567424586766656</speed>
  <fix>3d</fix>
</trkpt>
<trkpt lat="-27.2752409" lon="151.2897118">
  <ele>443.18</ele>
  <time>2026-09-01T19:59:09Z</time>
  <course>167.35</course>
  <speed>25.59</speed>
  <fix>3d</fix>
</trkpt>
<trkpt lat="-27.2753273" lon="151.2897331">
  <ele>443.12</ele>
  <time>2026-09-01T19:59:09Z</time>
  <course>168.16</course>
  <speed>25.565259630991427</speed>
  <fix>3d</fix>
</trkpt>
<trkpt lat="-27.2752857" lon="151.2897231">
  <ele>443.19</ele>
  <time>2026-09-01T19:59:09Z</time>
  <course>167.35</course>
  <speed>25.59</speed>
  <fix>3d</fix>
</trkpt>
<trkpt lat="-27.2753498" lon="151.2897387">
  <ele>443.13</ele>
  <time>2026-09-01T19:59:09Z</time>
  <course>168.13</course>
  <speed>25.565259630991427</speed>
  <fix>3d</fix>
</trkpt>
<trkpt lat="-27.2752857" lon="151.2897231">
  <ele>443.19</ele>
  <time>2026-09-01T19:59:09Z</time>
  <course>167.35</course>
  <speed>25.59</speed>
  <fix>3d</fix>
</trkpt>
<trkpt lat="-27.2753723" lon="151.2897444">
  <ele>443.14</ele>
  <time>2026-09-01T19:59:09Z</time>
  <course>168.11</course>
  <speed>25.5630984037538</speed>
  <fix>3d</fix>
</trkpt>
<trkpt lat="-27.2753305" lon="151.2897344">
  <ele>443.21</ele>
  <time>2026-09-01T19:59:09Z</time>
  <course>167.38</course>
  <speed>25.59</speed>
  <fix>3d</fix>
</trkpt>
<trkpt lat="-27.2753948" lon="151.28975">
  <ele>443.14</ele>
  <time>2026-09-01T19:59:09Z</time>
  <course>168.15</course>
  <speed>25.57286256952866</speed>
  <fix>3d</fix>
</trkpt>
<trkpt lat="-27.2753305" lon="151.2897344">
  <ele>443.21</ele>
  <time>2026-09-01T19:59:09Z</time>
  <course>167.38</course>
  <speed>25.59</speed>
  <fix>3d</fix>
</trkpt>
<trkpt lat="-27.2754172" lon="151.2897557">
  <ele>443.15</ele>
  <time>2026-09-01T19:59:09Z</time>
  <course>168.16</course>
  <speed>25.570705895614225</speed>
  <fix>3d</fix>
</trkpt>
<trkpt lat="-27.2753754" lon="151.2897457">
  <ele>443.22</ele>
  <time>2026-09-01T19:59:09Z</time>
  <course>167.4</course>
  <speed>25.59</speed>
  <fix>3d</fix>
</trkpt>
<trkpt lat="-27.2754397" lon="151.2897613">
  <ele>443.15</ele>
  <time>2026-09-01T19:59:09Z</time>
  <course>168.22</course>
  <speed>25.54902150768205</speed>
  <fix>3d</fix>
</trkpt>
<trkpt lat="-27.2753754" lon="151.2897457">
  <ele>443.22</ele>
  <time>2026-09-01T19:59:09Z</time>
  <course>167.4</course>
  <speed>25.59</speed>
  <fix>3d</fix>
</trkpt>
<trkpt lat="-27.2754622" lon="151.2897669">
  <ele>443.15</ele>
  <time>2026-09-01T19:59:09Z</time>
  <course>168.22</course>
  <speed>25.48612367544347</speed>
  <fix>3d</fix>
</trkpt>
<trkpt lat="-27.2754203" lon="151.289757">
  <ele>443.23</ele>
  <time>2026-09-01T19:59:09Z</time>
  <course>167.42</course>
  <speed>25.58</speed>
  <fix>3d</fix>
</trkpt>
<trkpt lat="-27.2754845" lon="151.2897725">
  <ele>443.15</ele>
  <time>2026-09-01T19:59:09Z</time>
  <course>168.11</course>
  <speed>25.35702072405195</speed>
  <fix>3d</fix>
</trkpt>
<trkpt lat="-27.2754203" lon="151.289757">
  <ele>443.23</ele>
  <time>2026-09-01T19:59:09Z</time>
  <course>167.42</course>
  <speed>25.58</speed>
  <fix>3d</fix>
</trkpt>
<trkpt lat="-27.2755067" lon="151.2897782">
  <ele>443.17</ele>
  <time>2026-09-01T19:59:09Z</time>
  <course>167.73</course>
  <speed>25.15665518307233</speed>
  <fix>3d</fix>
</trkpt>
<trkpt lat="-27.275465" lon="151.2897682">
  <ele>443.24</ele>
  <time>2026-09-01T19:59:09Z</time>
  <course>167.43</course>
  <speed>25.47</speed>
  <fix>3d</fix>
</trkpt>
<trkpt lat="-27.2755286" lon="151.289784">
  <ele>443.24</ele>
  <time>2026-09-01T19:59:09Z</time>
  <course>167.04</course>
  <speed>24.855808174348304</speed>
  <fix>3d</fix>
</trkpt>
<trkpt lat="-27.275465" lon="151.2897682">
  <ele>443.24</ele>
  <time>2026-09-01T19:59:09Z</time>
  <course>167.43</course>
  <speed>25.47</speed>
  <fix>3d</fix>
</trkpt>
<trkpt lat="-27.2755499" lon="151.2897901">
  <ele>443.36</ele>
  <time>2026-09-01T19:59:09Z</time>
  <course>166.02</course>
  <speed>24.480298200798124</speed>
  <fix>3d</fix>
</trkpt>
<trkpt lat="-27.2755094" lon="151.2897795">
  <ele>443.28</ele>
  <time>2026-09-01T19:59:09Z</time>
  <course>166.9</course>
  <speed>25.12</speed>
  <fix>3d</fix>
</trkpt>
<trkpt lat="-27.2755708" lon="151.2897965">
  <ele>443.53</ele>
  <time>2026-09-01T19:59:09Z</time>
  <course>164.7</course>
  <speed>24.029916770559154</speed>
  <fix>3d</fix>
</trkpt>
<trkpt lat="-27.2755094" lon="151.2897795">
  <ele>443.28</ele>
  <time>2026-09-01T19:59:09Z</time>
  <course>166.9</course>
  <speed>25.12</speed>
  <fix>3d</fix>
</trkpt>
<trkpt lat="-27.2755912" lon="151.2898033">
  <ele>443.74</ele>
  <time>2026-09-01T19:59:09Z</time>
  <course>163.23</course>
  <speed>23.55554499475654</speed>
  <fix>3d</fix>
</trkpt>
<trkpt lat="-27.2755527" lon="151.2897914">
  <ele>443.46</ele>
  <time>2026-09-01T19:59:09Z</time>
  <course>165.27</course>
  <speed>24.46</speed>
  <fix>3d</fix>
</trkpt>
<trkpt lat="-27.275611" lon="151.2898105">
  <ele>443.99</ele>
  <time>2026-09-01T19:59:09Z</time>
  <course>161.8</course>
  <speed>23.06250853658379</speed>
  <fix>3d</fix>
</trkpt>
<trkpt lat="-27.2755527" lon="151.2897914">
  <ele>443.46</ele>
  <time>2026-09-01T19:59:09Z</time>
  <course>165.27</course>
  <speed>24.46</speed>
  <fix>3d</fix>
</trkpt>
<trkpt lat="-27.2756304" lon="151.2898181">
  <ele>444.28</ele>
  <time>2026-09-01T19:59:09Z</time>
  <course>160.48</course>
  <speed>22.563627811147743</speed>
  <fix>3d</fix>
</trkpt>
<trkpt lat="-27.2755943" lon="151.2898048">
  <ele>443.84</ele>
  <time>2026-09-01T19:59:09Z</time>
  <course>162.84</course>
  <speed>23.56</speed>
  <fix>3d</fix>
</trkpt>
<trkpt lat="-27.2756491" lon="151.289826">
  <ele>444.6</ele>
  <time>2026-09-01T19:59:09Z</time>
  <course>159.34</course>
  <speed>22.072988017031136</speed>
  <fix>3d</fix>
</trkpt>
<trkpt lat="-27.2755943" lon="151.2898048">
  <ele>443.84</ele>
  <time>2026-09-01T19:59:09Z</time>
  <course>162.84</course>
  <speed>23.56</speed>
  <fix>3d</fix>
</trkpt>
<trkpt lat="-27.2756672" lon="151.2898342">
  <ele>444.93</ele>
  <time>2026-09-01T19:59:09Z</time>
  <course>158.48</course>
  <speed>21.58253228886731</speed>
  <fix>3d</fix>
</trkpt>
<trkpt lat="-27.2756337" lon="151.2898196">
  <ele>444.38</ele>
  <time>2026-09-01T19:59:09Z</time>
  <course>160.17</course>
  <speed>22.59</speed>
  <fix>3d</fix>
</trkpt>
<trkpt lat="-27.2756854" lon="151.2898428">
  <ele>445.3</ele>
  <time>2026-09-01T19:59:09Z</time>
  <course>157.88</course>
  <speed>21.1062549970382</speed>
  <fix>3d</fix>
</trkpt>
<trkpt lat="-27.2756337" lon="151.2898196">
  <ele>444.38</ele>
  <time>2026-09-01T19:59:09Z</time>
  <course>160.17</course>
  <speed>22.59</speed>
  <fix>3d</fix>
</trkpt>
<trkpt lat="-27.2757025" lon="151.2898511">
  <ele>445.65</ele>
  <time>2026-09-01T19:59:09Z</time>
  <course>157.5</course>
  <speed>20.685671369331963</speed>
  <fix>3d</fix>
</trkpt>
<trkpt lat="-27.2756707" lon="151.2898357">
  <ele>445.03</ele>
  <time>2026-09-01T19:59:09Z</time>
  <course>157.77</course>
  <speed>21.62</speed>
  <fix>3d</fix>
</trkpt>
<trkpt lat="-27.2757192" lon="151.2898596">
  <ele>445.99</ele>
  <time>2026-09-01T19:59:09Z</time>
  <course>157.2</course>
  <speed>20.302071322897078</speed>
  <fix>3d</fix>
</trkpt>
<trkpt lat="-27.2756707" lon="151.2898357">
  <ele>445.03</ele>
  <time>2026-09-01T19:59:09Z</time>
  <course>157.77</course>
  <speed>21.62</speed>
  <fix>3d</fix>
</trkpt>
<trkpt lat="-27.2757357" lon="151.2898681">
  <ele>446.31</ele>
  <time>2026-09-01T19:59:09Z</time>
  <course>156.95</course>
  <speed>19.95778043771401</speed>
  <fix>3d</fix>
</trkpt>
<trkpt lat="-27.2757057" lon="151.2898525">
  <ele>445.72</ele>
  <time>2026-09-01T19:59:09Z</time>
  <course>156.05</course>
  <speed>20.73</speed>
  <fix>3d</fix>
</trkpt>
<trkpt lat="-27.2757519" lon="151.2898766">
  <ele>446.6</ele>
  <time>2026-09-01T19:59:09Z</time>
  <course>156.73</course>
  <speed>19.62872639780788</speed>
  <fix>3d</fix>
</trkpt>
<trkpt lat="-27.2757057" lon="151.2898525">
  <ele>445.72</ele>
  <time>2026-09-01T19:59:09Z</time>
  <course>156.05</course>
  <speed>20.73</speed>
  <fix>3d</fix>
</trkpt>
<trkpt lat="-27.275768" lon="151.2898852">
  <ele>446.85</ele>
  <time>2026-09-01T19:59:09Z</time>
  <course>156.52</course>
  <speed>19.336271615800186</speed>
  <fix>3d</fix>
</trkpt>
<trkpt lat="-27.2757389" lon="151.2898695">
  <ele>446.38</ele>
  <time>2026-09-01T19:59:09Z</time>
  <course>155.05</course>
  <speed>19.99</speed>
  <fix>3d</fix>
</trkpt>
<trkpt lat="-27.2757832" lon="151.2898934">
  <ele>447.06</ele>
  <time>2026-09-01T19:59:09Z</time>
  <course>156.32</course>
  <speed>19.062528688503004</speed>
  <fix>3d</fix>
</trkpt>
<trkpt lat="-27.2757389" lon="151.2898695">
  <ele>446.38</ele>
  <time>2026-09-01T19:59:09Z</time>
  <course>155.05</course>
  <speed>19.99</speed>
  <fix>3d</fix>
</trkpt>
<trkpt lat="-27.2757987" lon="151.2899017">
  <ele>447.24</ele>
  <time>2026-09-01T19:59:09Z</time>
  <course>156.13</course>
  <speed>18.802587587882684</speed>
  <fix>3d</fix>
</trkpt>
<trkpt lat="-27.2757709" lon="151.2898865">
  <ele>446.91</ele>
  <time>2026-09-01T19:59:09Z</time>
  <course>154.48</course>
  <speed>19.35</speed>
  <fix>3d</fix>
</trkpt>
<trkpt lat="-27.2758139" lon="151.28991">
  <ele>447.38</ele>
  <time>2026-09-01T19:59:09Z</time>
  <course>155.95</course>
  <speed>18.551714206509327</speed>
  <fix>3d</fix>
</trkpt>
<trkpt lat="-27.2757709" lon="151.2898865">
  <ele>446.91</ele>
  <time>2026-09-01T19:59:09Z</time>
  <course>154.48</course>
  <speed>19.35</speed>
  <fix>3d</fix>
</trkpt>
<trkpt lat="-27.2758289" lon="151.2899182">
  <ele>447.49</ele>
  <time>2026-09-01T19:59:09Z</time>
  <course>155.79</course>
  <speed>18.323495845498478</speed>
  <fix>3d</fix>
</trkpt>
<trkpt lat="-27.2758018" lon="151.2899032">
  <ele>447.3</ele>
  <time>2026-09-01T19:59:09Z</time>
  <course>154.17</course>
  <speed>18.79</speed>
  <fix>3d</fix>
</trkpt>
<trkpt lat="-27.2758438" lon="151.2899263">
  <ele>447.57</ele>
  <time>2026-09-01T19:59:09Z</time>
  <course>155.67</course>
  <speed>18.104275738068065</speed>
  <fix>3d</fix>
</trkpt>
<trkpt lat="-27.2758018" lon="151.2899032">
  <ele>447.3</ele>
  <time>2026-09-01T19:59:09Z</time>
  <course>154.17</course>
  <speed>18.79</speed>
  <fix>3d</fix>
</trkpt>
<trkpt lat="-27.2758584" lon="151.2899343">
  <ele>447.62</ele>
  <time>2026-09-01T19:59:09Z</time>
  <course>155.59</course>
  <speed>17.894303562866032</speed>
  <fix>3d</fix>
</trkpt>
<trkpt lat="-27.2758317" lon="151.2899196">
  <ele>447.55</ele>
  <time>2026-09-01T19:59:09Z</time>
  <course>154.04</course>
  <speed>18.3</speed>
  <fix>3d</fix>
</trkpt>
<trkpt lat="-27.2758729" lon="151.2899422">
  <ele>447.64</ele>
  <time>2026-09-01T19:59:09Z</time>
  <course>155.56</course>
  <speed>17.69335751065919</speed>
  <fix>3d</fix>
</trkpt>
<trkpt lat="-27.2758317" lon="151.2899196">
  <ele>447.55</ele>
  <time>2026-09-01T19:59:09Z</time>
  <course>154.04</course>
  <speed>18.3</speed>
  <fix>3d</fix>
</trkpt>
<trkpt lat="-27.275887" lon="151.2899498">
  <ele>447.65</ele>
  <time>2026-09-01T19:59:09Z</time>
  <course>155.58</course>
  <speed>17.510468297564174</speed>
  <fix>3d</fix>
</trkpt>
<trkpt lat="-27.2758609" lon="151.2899355">
  <ele>447.67</ele>
  <time>2026-09-01T19:59:09Z</time>
  <course>154.07</course>
  <speed>17.86</speed>
  <fix>3d</fix>
</trkpt>
<trkpt lat="-27.2759011" lon="151.2899574">
  <ele>447.64</ele>
  <time>2026-09-01T19:59:09Z</time>
  <course>155.66</course>
  <speed>17.319021334936913</speed>
  <fix>3d</fix>
</trkpt>
<trkpt lat="-27.2758609" lon="151.2899355">
  <ele>447.67</ele>
  <time>2026-09-01T19:59:09Z</time>
  <course>154.07</course>
  <speed>17.86</speed>
  <fix>3d</fix>
</trkpt>
<trkpt lat="-27.2759151" lon="151.2899649">
  <ele>447.62</ele>
  <time>2026-09-01T19:59:09Z</time>
  <course>155.78</course>
  <speed>17.141540187509406</speed>
  <fix>3d</fix>
</trkpt>
<trkpt lat="-27.2758895" lon="151.2899511">
  <ele>447.71</ele>
  <time>2026-09-01T19:59:09Z</time>
  <course>154.28</course>
  <speed>17.47</speed>
  <fix>3d</fix>
</trkpt>
<trkpt lat="-27.2759289" lon="151.2899722">
  <ele>447.59</ele>
  <time>2026-09-01T19:59:09Z</time>
  <course>155.98</course>
  <speed>16.969186780750576</speed>
  <fix>3d</fix>
</trkpt>
<trkpt lat="-27.2758895" lon="151.2899511">
  <ele>447.71</ele>
  <time>2026-09-01T19:59:09Z</time>
  <course>154.28</course>
  <speed>17.47</speed>
  <fix>3d</fix>
</trkpt>
<trkpt lat="-27.2759426" lon="151.2899793">
  <ele>447.56</ele>
  <time>2026-09-01T19:59:09Z</time>
  <course>156.21</course>
  <speed>16.797261681595604</speed>
  <fix>3d</fix>
</trkpt>
<trkpt lat="-27.2759175" lon="151.2899662">
  <ele>447.68</ele>
  <time>2026-09-01T19:59:09Z</time>
  <course>154.68</course>
  <speed>17.11</speed>
  <fix>3d</fix>
</trkpt>
<trkpt lat="-27.2759563" lon="151.2899863">
  <ele>447.52</ele>
  <time>2026-09-01T19:59:09Z</time>
  <course>156.49</course>
  <speed>16.635747653772583</speed>
  <fix>3d</fix>
</trkpt>
<trkpt lat="-27.2759175" lon="151.2899662">
  <ele>447.68</ele>
  <time>2026-09-01T19:59:09Z</time>
  <course>154.68</course>
  <speed>17.11</speed>
  <fix>3d</fix>
</trkpt>
<trkpt lat="-27.2759698" lon="151.2899932">
  <ele>447.48</ele>
  <time>2026-09-01T19:59:09Z</time>
  <course>156.83</course>
  <speed>16.47501138087619</speed>
  <fix>3d</fix>
</trkpt>
<trkpt lat="-27.2759452" lon="151.2899807">
  <ele>447.62</ele>
  <time>2026-09-01T19:59:09Z</time>
  <course>155.25</course>
  <speed>16.78</speed>
  <fix>3d</fix>
</trkpt>
<trkpt lat="-27.2759833" lon="151.2899998">
  <ele>447.43</ele>
  <time>2026-09-01T19:59:09Z</time>
  <course>157.19</course>
  <speed>16.311088253087224</speed>
  <fix>3d</fix>
</trkpt>
<trkpt lat="-27.2759452" lon="151.2899807">
  <ele>447.62</ele>
  <time>2026-09-01T19:59:09Z</time>
  <course>155.25</course>
  <speed>16.78</speed>
  <fix>3d</fix>
</trkpt>
<trkpt lat="-27.2759972" lon="151.2900066">
  <ele>447.39</ele>
  <time>2026-09-01T19:59:09Z</time>
  <course>157.61</course>
  <speed>16.157329606095185</speed>
  <fix>3d</fix>
</trkpt>
<trkpt lat="-27.2759724" lon="151.2899946">
  <ele>447.53</ele>
  <time>2026-09-01T19:59:09Z</time>
  <course>155.99</course>
  <speed>16.46</speed>
  <fix>3d</fix>
</trkpt>
<trkpt lat="-27.2760104" lon="151.2900128">
  <ele>447.34</ele>
  <time>2026-09-01T19:59:09Z</time>
  <course>158.06</course>
  <speed>16.013859622214753</speed>
  <fix>3d</fix>
</trkpt>
<trkpt lat="-27.2759724" lon="151.2899946">
  <ele>447.53</ele>
  <time>2026-09-01T19:59:09Z</time>
  <course>155.99</course>
  <speed>16.46</speed>
  <fix>3d</fix>
</trkpt>
<trkpt lat="-27.2760238" lon="151.290019">
  <ele>447.29</ele>
  <time>2026-09-01T19:59:09Z</time>
  <course>158.53</course>
  <speed>15.86778497459554</speed>
  <fix>3d</fix>
</trkpt>
<trkpt lat="-27.2759992" lon="151.2900078">
  <ele>447.45</ele>
  <time>2026-09-01T19:59:09Z</time>
  <course>156.88</course>
  <speed>16.16</speed>
  <fix>3d</fix>
</trkpt>
<trkpt lat="-27.276037" lon="151.290025">
  <ele>447.25</ele>
  <time>2026-09-01T19:59:09Z</time>
  <course>159.03</course>
  <speed>15.72870306160047</speed>
  <fix>3d</fix>
</trkpt>
<trkpt lat="-27.2759992" lon="151.2900078">
  <ele>447.45</ele>
  <time>2026-09-01T19:59:09Z</time>
  <course>156.88</course>
  <speed>16.16</speed>
  <fix>3d</fix>
</trkpt>
<trkpt lat="-27.2760502" lon="151.2900308">
  <ele>447.2</ele>
  <time>2026-09-01T19:59:09Z</time>
  <course>159.55</course>
  <speed>15.585480422495804</speed>
  <fix>3d</fix>
</trkpt>
<trkpt lat="-27.2760258" lon="151.2900202">
  <ele>447.36</ele>
  <time>2026-09-01T19:59:09Z</time>
  <course>157.88</course>
  <speed>15.86</speed>
  <fix>3d</fix>
</trkpt>
<trkpt lat="-27.2760635" lon="151.2900364">
  <ele>447.15</ele>
  <time>2026-09-01T19:59:09Z</time>
  <course>160.11</course>
  <speed>15.449585754964435</speed>
  <fix>3d</fix>
</trkpt>
<trkpt lat="-27.2760258" lon="151.2900202">
  <ele>447.36</ele>
  <time>2026-09-01T19:59:09Z</time>
  <course>157.88</course>
  <speed>15.86</speed>
  <fix>3d</fix>
</trkpt>
<trkpt lat="-27.2760766" lon="151.2900418">
  <ele>447.11</ele>
  <time>2026-09-01T19:59:09Z</time>
  <course>160.7</course>
  <speed>15.315417069084342</speed>
  <fix>3d</fix>
</trkpt>
<trkpt lat="-27.276052" lon="151.2900319">
  <ele>447.27</ele>
  <time>2026-09-01T19:59:09Z</time>
  <course>158.99</course>
  <speed>15.58</speed>
  <fix>3d</fix>
</trkpt>
<trkpt lat="-27.2760895" lon="151.290047">
  <ele>447.06</ele>
  <time>2026-09-01T19:59:09Z</time>
  <course>161.31</course>
  <speed>15.179756256277635</speed>
  <fix>3d</fix>
</trkpt>
<trkpt lat="-27.276052" lon="151.2900319">
  <ele>447.27</ele>
  <time>2026-09-01T19:59:09Z</time>
  <course>158.99</course>
  <speed>15.58</speed>
  <fix>3d</fix>
</trkpt>
<trkpt lat="-27.2761025" lon="151.2900519">
  <ele>447.01</ele>
  <time>2026-09-01T19:59:09Z</time>
  <course>161.95</course>
  <speed>15.039793881566329</speed>
  <fix>3d</fix>
</trkpt>
<trkpt lat="-27.276078" lon="151.2900427">
  <ele>447.18</ele>
  <time>2026-09-01T19:59:09Z</time>
  <course>160.19</course>
  <speed>15.3</speed>
  <fix>3d</fix>
</trkpt>
<trkpt lat="-27.2761153" lon="151.2900567">
  <ele>446.97</ele>
  <time>2026-09-01T19:59:09Z</time>
  <course>162.61</course>
  <speed>14.908105178056667</speed>
  <fix>3d</fix>
</trkpt>
<trkpt lat="-27.276078" lon="151.2900427">
  <ele>447.18</ele>
  <time>2026-09-01T19:59:09Z</time>
  <course>160.19</course>
  <speed>15.3</speed>
  <fix>3d</fix>
</trkpt>
<trkpt lat="-27.276128" lon="151.2900612">
  <ele>446.93</ele>
  <time>2026-09-01T19:59:09Z</time>
  <course>163.27</course>
  <speed>14.768997934863421</speed>
  <fix>3d</fix>
</trkpt>
<trkpt lat="-27.2761038" lon="151.2900528">
  <ele>447.1</ele>
  <time>2026-09-01T19:59:09Z</time>
  <course>161.47</course>
  <speed>15.03</speed>
  <fix>3d</fix>
</trkpt>
<trkpt lat="-27.2761407" lon="151.2900655">
  <ele>446.9</ele>
  <time>2026-09-01T19:59:09Z</time>
  <course>163.95</course>
  <speed>14.632019682873585</speed>
  <fix>3d</fix>
</trkpt>
<trkpt lat="-27.2761038" lon="151.2900528">
  <ele>447.1</ele>
  <time>2026-09-01T19:59:09Z</time>
  <course>161.47</course>
  <speed>15.03</speed>
  <fix>3d</fix>
</trkpt>
<trkpt lat="-27.2761529" lon="151.2900695">
  <ele>446.86</ele>
  <time>2026-09-01T19:59:09Z</time>
  <course>164.61</course>
  <speed>14.487601595847396</speed>
  <fix>3d</fix>
</trkpt>
<trkpt lat="-27.2761292" lon="151.2900621">
  <ele>447.02</ele>
  <time>2026-09-01T19:59:09Z</time>
  <course>162.82</course>
  <speed>14.76</speed>
  <fix>3d</fix>
</trkpt>
<trkpt lat="-27.2761652" lon="151.2900733">
  <ele>446.83</ele>
  <time>2026-09-01T19:59:09Z</time>
  <course>165.29</course>
  <speed>14.357611221926856</speed>
  <fix>3d</fix>
</trkpt>
<trkpt lat="-27.2761292" lon="151.2900621">
  <ele>447.02</ele>
  <time>2026-09-01T19:59:09Z</time>
  <course>162.82</course>
  <speed>14.76</speed>
  <fix>3d</fix>
</trkpt>
<trkpt lat="-27.2761777" lon="151.2900771">
  <ele>446.8</ele>
  <time>2026-09-01T19:59:09Z</time>
  <course>165.98</course>
  <speed>14.21753846486796</speed>
  <fix>3d</fix>
</trkpt>
<trkpt lat="-27.2761544" lon="151.2900705">
  <ele>446.95</ele>
  <time>2026-09-01T19:59:09Z</time>
  <course>164.2</course>
  <speed>14.49</speed>
  <fix>3d</fix>
</trkpt>
<trkpt lat="-27.27619" lon="151.2900805">
  <ele>446.78</ele>
  <time>2026-09-01T19:59:09Z</time>
  <course>166.67</course>
  <speed>14.072398516244487</speed>
  <fix>3d</fix>
</trkpt>
<trkpt lat="-27.2761544" lon="151.2900705">
  <ele>446.95</ele>
  <time>2026-09-01T19:59:09Z</time>
  <course>164.2</course>
  <speed>14.49</speed>
  <fix>3d</fix>
</trkpt>
<trkpt lat="-27.2762023" lon="151.2900838">
  <ele>446.75</ele>
  <time>2026-09-01T19:59:09Z</time>
  <course>167.37</course>
  <speed>13.939085335846107</speed>
  <fix>3d</fix>
</trkpt>
<trkpt lat="-27.2761793" lon="151.290078">
  <ele>446.9</ele>
  <time>2026-09-01T19:59:09Z</time>
  <course>165.6</course>
  <speed>14.21</speed>
  <fix>3d</fix>
</trkpt>
<trkpt lat="-27.2762146" lon="151.290087">
  <ele>446.74</ele>
  <time>2026-09-01T19:59:09Z</time>
  <course>168.07</course>
  <speed>13.798191910536683</speed>
  <fix>3d</fix>
</trkpt>
<trkpt lat="-27.2761793" lon="151.290078">
  <ele>446.9</ele>
  <time>2026-09-01T19:59:09Z</time>
  <course>165.6</course>
  <speed>14.21</speed>
  <fix>3d</fix>
</trkpt>
<trkpt lat="-27.2762268" lon="151.2900899">
  <ele>446.72</ele>
  <time>2026-09-01T19:59:09Z</time>
  <course>168.77</course>
  <speed>13.661486009947819</speed>
  <fix>3d</fix>
</trkpt>
<trkpt lat="-27.2762039" lon="151.2900848">
  <ele>446.86</ele>
  <time>2026-09-01T19:59:09Z</time>
  <course>167.02</course>
  <speed>13.94</speed>
  <fix>3d</fix>
</trkpt>
<trkpt lat="-27.2762388" lon="151.2900926">
  <ele>446.71</ele>
  <time>2026-09-01T19:59:09Z</time>
  <course>169.47</course>
  <speed>13.52680671851269</speed>
  <fix>3d</fix>
</trkpt>
<trkpt lat="-27.2762039" lon="151.2900848">
  <ele>446.86</ele>
  <time>2026-09-01T19:59:09Z</time>
  <course>167.02</course>
  <speed>13.94</speed>
  <fix>3d</fix>
</trkpt>
<trkpt lat="-27.2762512" lon="151.2900952">
  <ele>446.7</ele>
  <time>2026-09-01T19:59:09Z</time>
  <course>170.18</course>
  <speed>13.374520552154383</speed>
  <fix>3d</fix>
</trkpt>
<trkpt lat="-27.2762282" lon="151.2900907">
  <ele>446.83</ele>
  <time>2026-09-01T19:59:09Z</time>
  <course>168.43</course>
  <speed>13.66</speed>
  <fix>3d</fix>
</trkpt>
<trkpt lat="-27.276263" lon="151.2900975">
  <ele>446.69</ele>
  <time>2026-09-01T19:59:09Z</time>
  <course>170.88</course>
  <speed>13.235788605141742</speed>
  <fix>3d</fix>
</trkpt>
<trkpt lat="-27.2762282" lon="151.2900907">
  <ele>446.83</ele>
  <time>2026-09-01T19:59:09Z</time>
  <course>168.43</course>
  <speed>13.66</speed>
  <fix>3d</fix>
</trkpt>
<trkpt lat="-27.2762746" lon="151.2900996">
  <ele>446.69</ele>
  <time>2026-09-01T19:59:09Z</time>
  <course>171.56</course>
  <speed>13.08909851746865</speed>
  <fix>3d</fix>
</trkpt>
<trkpt lat="-27.276252" lon="151.2900958">
  <ele>446.81</ele>
  <time>2026-09-01T19:59:09Z</time>
  <course>169.83</course>
  <speed>13.38</speed>
  <fix>3d</fix>
</trkpt>
<trkpt lat="-27.2762862" lon="151.2901015">
  <ele>446.69</ele>
  <time>2026-09-01T19:59:09Z</time>
  <course>172.25</course>
  <speed>12.94574833680927</speed>
  <fix>3d</fix>
</trkpt>
<trkpt lat="-27.276252" lon="151.2900958">
  <ele>446.81</ele>
  <time>2026-09-01T19:59:09Z</time>
  <course>169.83</course>
  <speed>13.38</speed>
  <fix>3d</fix>
</trkpt>
<trkpt lat="-27.2762976" lon="151.2901033">
  <ele>446.7</ele>
  <time>2026-09-01T19:59:09Z</time>
  <course>172.94</course>
  <speed>12.794256523925101</speed>
  <fix>3d</fix>
</trkpt>
<trkpt lat="-27.2762754" lon="151.2901003">
  <ele>446.81</ele>
  <time>2026-09-01T19:59:09Z</time>
  <course>171.21</course>
  <speed>13.09</speed>
  <fix>3d</fix>
</trkpt>
<trkpt lat="-27.2763089" lon="151.2901049">
  <ele>446.71</ele>
  <time>2026-09-01T19:59:09Z</time>
  <course>173.62</course>
  <speed>12.64457195795888</speed>
  <fix>3d</fix>
</trkpt>
<trkpt lat="-27.2762754" lon="151.2901003">
  <ele>446.81</ele>
  <time>2026-09-01T19:59:09Z</time>
  <course>171.21</course>
  <speed>13.09</speed>
  <fix>3d</fix>
</trkpt>
<trkpt lat="-27.2763202" lon="151.2901064">
  <ele>446.72</ele>
  <time>2026-09-01T19:59:09Z</time>
  <course>174.29</course>
  <speed>12.487850095192528</speed>
  <fix>3d</fix>
</trkpt>
<trkpt lat="-27.2762985" lon="151.2901039">
  <ele>446.81</ele>
  <time>2026-09-01T19:59:09Z</time>
  <course>172.56</course>
  <speed>12.8</speed>
  <fix>3d</fix>
</trkpt>
<trkpt lat="-27.2763312" lon="151.2901077">
  <ele>446.73</ele>
  <time>2026-09-01T19:59:09Z</time>
  <course>174.95</course>
  <speed>12.333730173795761</speed>
  <fix>3d</fix>
</trkpt>
<trkpt lat="-27.2762985" lon="151.2901039">
  <ele>446.81</ele>
  <time>2026-09-01T19:59:09Z</time>
  <course>172.56</course>
  <speed>12.8</speed>
  <fix>3d</fix>
</trkpt>
<trkpt lat="-27.2763421" lon="151.2901088">
  <ele>446.75</ele>
  <time>2026-09-01T19:59:09Z</time>
  <course>175.6</course>
  <speed>12.181116533388883</speed>
  <fix>3d</fix>
</trkpt>
<trkpt lat="-27.2763211" lon="151.2901069">
  <ele>446.83</ele>
  <time>2026-09-01T19:59:09Z</time>
  <course>173.88</course>
  <speed>12.5</speed>
  <fix>3d</fix>
</trkpt>
<trkpt lat="-27.2763529" lon="151.2901098">
  <ele>446.77</ele>
  <time>2026-09-01T19:59:09Z</time>
  <course>176.23</course>
  <speed>12.020802801809868</speed>
  <fix>3d</fix>
</trkpt>
<trkpt lat="-27.2763211" lon="151.2901069">
  <ele>446.83</ele>
  <time>2026-09-01T19:59:09Z</time>
  <course>173.88</course>
  <speed>12.5</speed>
  <fix>3d</fix>
</trkpt>
<trkpt lat="-27.2763635" lon="151.2901106">
  <ele>446.79</ele>
  <time>2026-09-01T19:59:09Z</time>
  <course>176.86</course>
  <speed>11.86187169042053</speed>
  <fix>3d</fix>
</trkpt>
<trkpt lat="-27.2763432" lon="151.2901093">
  <ele>446.86</ele>
  <time>2026-09-01T19:59:09Z</time>
  <course>175.17</course>
  <speed>12.2</speed>
  <fix>3d</fix>
</trkpt>
<trkpt lat="-27.276374" lon="151.2901113">
  <ele>446.81</ele>
  <time>2026-09-01T19:59:09Z</time>
  <course>177.47</course>
  <speed>11.704379522213042</speed>
  <fix>3d</fix>
</trkpt>
<trkpt lat="-27.2763432" lon="151.2901093">
  <ele>446.86</ele>
  <time>2026-09-01T19:59:09Z</time>
  <course>175.17</course>
  <speed>12.2</speed>
  <fix>3d</fix>
</trkpt>
<trkpt lat="-27.2763844" lon="151.2901119">
  <ele>446.84</ele>
  <time>2026-09-01T19:59:09Z</time>
  <course>178.08</course>
  <speed>11.549164471943413</speed>
  <fix>3d</fix>
</trkpt>
<trkpt lat="-27.2763648" lon="151.2901111">
  <ele>446.9</ele>
  <time>2026-09-01T19:59:09Z</time>
  <course>176.41</course>
  <speed>11.89</speed>
  <fix>3d</fix>
</trkpt>
<trkpt lat="-27.2763947" lon="151.2901123">
  <ele>446.86</ele>
  <time>2026-09-01T19:59:09Z</time>
  <course>178.67</course>
  <speed>11.385077953180646</speed>
  <fix>3d</fix>
</trkpt>
<trkpt lat="-27.2763648" lon="151.2901111">
  <ele>446.9</ele>
  <time>2026-09-01T19:59:09Z</time>
  <course>176.41</course>
  <speed>11.89</speed>
  <fix>3d</fix>
</trkpt>
<trkpt lat="-27.2764048" lon="151.2901126">
  <ele>446.89</ele>
  <time>2026-09-01T19:59:09Z</time>
  <course>179.25</course>
  <speed>11.232154735401396</speed>
  <fix>3d</fix>
</trkpt>
<trkpt lat="-27.2763858" lon="151.2901124">
  <ele>446.94</ele>
  <time>2026-09-01T19:59:09Z</time>
  <course>177.61</course>
  <speed>11.58</speed>
  <fix>3d</fix>
</trkpt>
<trkpt lat="-27.2764149" lon="151.2901128">
  <ele>446.92</ele>
  <time>2026-09-01T19:59:09Z</time>
  <course>179.83</course>
  <speed>11.070546508641748</speed>
  <fix>3d</fix>
</trkpt>
<trkpt lat="-27.2763858" lon="151.2901124">
  <ele>446.94</ele>
  <time>2026-09-01T19:59:09Z</time>
  <course>177.61</course>
  <speed>11.58</speed>
  <fix>3d</fix>
</trkpt>
<trkpt lat="-27.2764248" lon="151.2901129">
  <ele>446.94</ele>
  <time>2026-09-01T19:59:09Z</time>
  <course>180.4</course>
  <speed>10.9</speed>
  <fix>3d</fix>
</trkpt>
<trkpt lat="-27.2764063" lon="151.290113">
  <ele>447.0</ele>
  <time>2026-09-01T19:59:09Z</time>
  <course>178.78</course>
  <speed>11.26</speed>
  <fix>3d</fix>
</trkpt>
<trkpt lat="-27.2764345" lon="151.2901129">
  <ele>446.98</ele>
  <time>2026-09-01T19:59:09Z</time>
  <course>180.96</course>
  <speed>10.740377088352158</speed>
  <fix>3d</fix>
</trkpt>
<trkpt lat="-27.2764063" lon="151.290113">
  <ele>447.0</ele>
  <time>2026-09-01T19:59:09Z</time>
  <course>178.78</course>
  <speed>11.26</speed>
  <fix>3d</fix>
</trkpt>
<trkpt lat="-27.2764441" lon="151.2901129">
  <ele>447.01</ele>
  <time>2026-09-01T19:59:09Z</time>
  <course>181.5</course>
  <speed>10.571707525277077</speed>
  <fix>3d</fix>
</trkpt>
<trkpt lat="-27.2764263" lon="151.2901133">
  <ele>447.06</ele>
  <time>2026-09-01T19:59:09Z</time>
  <course>179.9</course>
  <speed>10.93</speed>
  <fix>3d</fix>
</trkpt>
<trkpt lat="-27.2764536" lon="151.2901127">
  <ele>447.05</ele>
  <time>2026-09-01T19:59:09Z</time>
  <course>182.04</course>
  <speed>10.403768547982986</speed>
  <fix>3d</fix>
</trkpt>
<trkpt lat="-27.2764263" lon="151.2901133">
  <ele>447.06</ele>
  <time>2026-09-01T19:59:09Z</time>
  <course>179.9</course>
  <speed>10.93</speed>
  <fix>3d</fix>
</trkpt>
<trkpt lat="-27.2764627" lon="151.2901124">
  <ele>447.08</ele>
  <time>2026-09-01T19:59:09Z</time>
  <course>182.55</course>
  <speed>10.23633235099369</speed>
  <fix>3d</fix>
</trkpt>
<trkpt lat="-27.2764456" lon="151.2901132">
  <ele>447.13</ele>
  <time>2026-09-01T19:59:09Z</time>
  <course>180.98</course>
  <speed>10.6</speed>
  <fix>3d</fix>
</trkpt>
<trkpt lat="-27.2764721" lon="151.290112">
  <ele>447.13</ele>
  <time>2026-09-01T19:59:09Z</time>
  <course>183.07</course>
  <speed>10.06006958226433</speed>
  <fix>3d</fix>
</trkpt>
<trkpt lat="-27.2764456" lon="151.2901132">
  <ele>447.13</ele>
  <time>2026-09-01T19:59:09Z</time>
  <course>180.98</course>
  <speed>10.6</speed>
  <fix>3d</fix>
</trkpt>
<trkpt lat="-27.276481" lon="151.2901116">
  <ele>447.17</ele>
  <time>2026-09-01T19:59:09Z</time>
  <course>183.57</course>
  <speed>9.883688582710404</speed>
  <fix>3d</fix>
</trkpt>
<trkpt lat="-27.2764644" lon="151.2901127">
  <ele>447.2</ele>
  <time>2026-09-01T19:59:09Z</time>
  <course>182.01</course>
  <speed>10.26</speed>
  <fix>3d</fix>
</trkpt>
<trkpt lat="-27.2764898" lon="151.290111">
  <ele>447.21</ele>
  <time>2026-09-01T19:59:09Z</time>
  <course>184.06</course>
  <speed>9.707945199680518</speed>
  <fix>3d</fix>
</trkpt>
<trkpt lat="-27.2764644" lon="151.2901127">
  <ele>447.2</ele>
  <time>2026-09-01T19:59:09Z</time>
  <course>182.01</course>
  <speed>10.26</speed>
  <fix>3d</fix>
</trkpt>
<trkpt lat="-27.2764984" lon="151.2901104">
  <ele>447.25</ele>
  <time>2026-09-01T19:59:09Z</time>
  <course>184.53</course>
  <speed>9.522210877732125</speed>
  <fix>3d</fix>
</trkpt>
<trkpt lat="-27.2764825" lon="151.2901118">
  <ele>447.28</ele>
  <time>2026-09-01T19:59:09Z</time>
  <course>183.0</course>
  <speed>9.9</speed>
  <fix>3d</fix>
</trkpt>
<trkpt lat="-27.2765068" lon="151.2901098">
  <ele>447.29</ele>
  <time>2026-09-01T19:59:09Z</time>
  <course>184.99</course>
  <speed>9.347004867870776</speed>
  <fix>3d</fix>
</trkpt>
<trkpt lat="-27.2764825" lon="151.2901118">
  <ele>447.28</ele>
  <time>2026-09-01T19:59:09Z</time>
  <course>183.0</course>
  <speed>9.9</speed>
  <fix>3d</fix>
</trkpt>
<trkpt lat="-27.2765151" lon="151.2901091">
  <ele>447.33</ele>
  <time>2026-09-01T19:59:09Z</time>
  <course>185.43</course>
  <speed>9.161577375103045</speed>
  <fix>3d</fix>
</trkpt>
<trkpt lat="-27.2764999" lon="151.2901106">
  <ele>447.37</ele>
  <time>2026-09-01T19:59:09Z</time>
  <course>183.93</course>
  <speed>9.55</speed>
  <fix>3d</fix>
</trkpt>
<trkpt lat="-27.2765233" lon="151.2901083">
  <ele>447.37</ele>
  <time>2026-09-01T19:59:09Z</time>
  <course>185.87</course>
  <speed>8.97661963101924</speed>
  <fix>3d</fix>
</trkpt>
<trkpt lat="-27.2764999" lon="151.2901106">
  <ele>447.37</ele>
  <time>2026-09-01T19:59:09Z</time>
  <course>183.93</course>
  <speed>9.55</speed>
  <fix>3d</fix>
</trkpt>
<trkpt lat="-27.2765312" lon="151.2901075">
  <ele>447.41</ele>
  <time>2026-09-01T19:59:09Z</time>
  <course>186.28</course>
  <speed>8.792161281505248</speed>
  <fix>3d</fix>
</trkpt>
<trkpt lat="-27.2765167" lon="151.2901092">
  <ele>447.45</ele>
  <time>2026-09-01T19:59:09Z</time>
  <course>184.81</course>
  <speed>9.18</speed>
  <fix>3d</fix>
</trkpt>
<trkpt lat="-27.276539" lon="151.2901066">
  <ele>447.44</ele>
  <time>2026-09-01T19:59:09Z</time>
  <course>186.69</course>
  <speed>8.60718304673486</speed>
  <fix>3d</fix>
</trkpt>
<trkpt lat="-27.2765167" lon="151.2901092">
  <ele>447.45</ele>
  <time>2026-09-01T19:59:09Z</time>
  <course>184.81</course>
  <speed>9.18</speed>
  <fix>3d</fix>
</trkpt>
<trkpt lat="-27.2765466" lon="151.2901057">
  <ele>447.48</ele>
  <time>2026-09-01T19:59:09Z</time>
  <course>187.08</course>
  <speed>8.421508178467798</speed>
  <fix>3d</fix>
</trkpt>
<trkpt lat="-27.2765328" lon="151.2901075">
  <ele>447.53</ele>
  <time>2026-09-01T19:59:09Z</time>
  <course>185.65</course>
  <speed>8.81</speed>
  <fix>3d</fix>
</trkpt>
<trkpt lat="-27.276554" lon="151.2901047">
  <ele>447.51</ele>
  <time>2026-09-01T19:59:09Z</time>
  <course>187.46</course>
  <speed>8.23731145459488</speed>
  <fix>3d</fix>
</trkpt>
<trkpt lat="-27.2765328" lon="151.2901075">
  <ele>447.53</ele>
  <time>2026-09-01T19:59:09Z</time>
  <course>185.65</course>
  <speed>8.81</speed>
  <fix>3d</fix>
</trkpt>
<trkpt lat="-27.2765613" lon="151.2901038">
  <ele>447.54</ele>
  <time>2026-09-01T19:59:09Z</time>
  <course>187.83</course>
  <speed>8.051099303821807</speed>
  <fix>3d</fix>
</trkpt>
<trkpt lat="-27.2765482" lon="151.2901057">
  <ele>447.6</ele>
  <time>2026-09-01T19:59:09Z</time>
  <course>186.43</course>
  <speed>8.44</speed>
  <fix>3d</fix>
</trkpt>
<trkpt lat="-27.2765684" lon="151.2901028">
  <ele>447.57</ele>
  <time>2026-09-01T19:59:09Z</time>
  <course>188.19</course>
  <speed>7.866409600319576</speed>
  <fix>3d</fix>
</trkpt>
<trkpt lat="-27.2765482" lon="151.2901057">
  <ele>447.6</ele>
  <time>2026-09-01T19:59:09Z</time>
  <course>186.43</course>
  <speed>8.44</speed>
  <fix>3d</fix>
</trkpt>
<trkpt lat="-27.2765754" lon="151.2901017">
  <ele>447.59</ele>
  <time>2026-09-01T19:59:09Z</time>
  <course>188.53</course>
  <speed>7.680735641850982</speed>
  <fix>3d</fix>
</trkpt>
<trkpt lat="-27.2765629" lon="151.2901037">
  <ele>447.67</ele>
  <time>2026-09-01T19:59:09Z</time>
  <course>187.16</course>
  <speed>8.07</speed>
  <fix>3d</fix>
</trkpt>
<trkpt lat="-27.2765822" lon="151.2901007">
  <ele>447.62</ele>
  <time>2026-09-01T19:59:09Z</time>
  <course>188.87</course>
  <speed>7.503825690939255</speed>
  <fix>3d</fix>
</trkpt>
<trkpt lat="-27.2765629" lon="151.2901037">
  <ele>447.67</ele>
  <time>2026-09-01T19:59:09Z</time>
  <course>187.16</course>
  <speed>8.07</speed>
  <fix>3d</fix>
</trkpt>
<trkpt lat="-27.2765889" lon="151.2900996">
  <ele>447.64</ele>
  <time>2026-09-01T19:59:09Z</time>
  <course>189.2</course>
  <speed>7.317185251174116</speed>
  <fix>3d</fix>
</trkpt>
<trkpt lat="-27.276577" lon="151.2901016">
  <ele>447.72</ele>
  <time>2026-09-01T19:59:09Z</time>
  <course>187.83</course>
  <speed>7.69</speed>
  <fix>3d</fix>
</trkpt>
<trkpt lat="-27.2765953" lon="151.2900985">
  <ele>447.65</ele>
  <time>2026-09-01T19:59:09Z</time>
  <course>189.51</course>
  <speed>7.130736287368928</speed>
  <fix>3d</fix>
</trkpt>
<trkpt lat="-27.276577" lon="151.2901016">
  <ele>447.72</ele>
  <time>2026-09-01T19:59:09Z</time>
  <course>187.83</course>
  <speed>7.69</speed>
  <fix>3d</fix>
</trkpt>
<trkpt lat="-27.2766017" lon="151.2900974">
  <ele>447.66</ele>
  <time>2026-09-01T19:59:09Z</time>
  <course>189.8</course>
  <speed>6.952826763266866</speed>
  <fix>3d</fix>
</trkpt>
<trkpt lat="-27.2765903" lon="151.2900995">
  <ele>447.75</ele>
  <time>2026-09-01T19:59:09Z</time>
  <course>188.45</course>
  <speed>7.32</speed>
  <fix>3d</fix>
</trkpt>
<trkpt lat="-27.2766078" lon="151.2900964">
  <ele>447.67</ele>
  <time>2026-09-01T19:59:09Z</time>
  <course>190.07</course>
  <speed>6.775027675220227</speed>
  <fix>3d</fix>
</trkpt>
<trkpt lat="-27.2765903" lon="151.2900995">
  <ele>447.75</ele>
  <time>2026-09-01T19:59:09Z</time>
  <course>188.45</course>
  <speed>7.32</speed>
  <fix>3d</fix>
</trkpt>
<trkpt lat="-27.2766138" lon="151.2900953">
  <ele>447.63</ele>
  <time>2026-09-01T19:59:09Z</time>
  <course>190.33</course>
  <speed>6.574389705516398</speed>
  <fix>3d</fix>
</trkpt>
<trkpt lat="-27.2766031" lon="151.2900973">
  <ele>447.77</ele>
  <time>2026-09-01T19:59:09Z</time>
  <course>188.99</course>
  <speed>6.94</speed>
  <fix>3d</fix>
</trkpt>
<trkpt lat="-27.2766196" lon="151.2900942">
  <ele>447.53</ele>
  <time>2026-09-01T19:59:09Z</time>
  <course>190.56</course>
  <speed>6.3113390021452656</speed>
  <fix>3d</fix>
</trkpt>
<trkpt lat="-27.2766031" lon="151.2900973">
  <ele>447.77</ele>
  <time>2026-09-01T19:59:09Z</time>
  <course>188.99</course>
  <speed>6.94</speed>
  <fix>3d</fix>
</trkpt>
<trkpt lat="-27.2766251" lon="151.2900932">
  <ele>447.35</ele>
  <time>2026-09-01T19:59:09Z</time>
  <course>190.76</course>
  <speed>5.985866687456379</speed>
  <fix>3d</fix>
</trkpt>
<trkpt lat="-27.2766151" lon="151.2900951">
  <ele>447.71</ele>
  <time>2026-09-01T19:59:09Z</time>
  <course>189.3</course>
  <speed>6.53</speed>
  <fix>3d</fix>
</trkpt>
<trkpt lat="-27.2766303" lon="151.2900923">
  <ele>447.1</ele>
  <time>2026-09-01T19:59:09Z</time>
  <course>190.96</course>
  <speed>5.571543771702776</speed>
  <fix>3d</fix>
</trkpt>
<trkpt lat="-27.2766151" lon="151.2900951">
  <ele>447.71</ele>
  <time>2026-09-01T19:59:09Z</time>
  <course>189.3</course>
  <speed>6.53</speed>
  <fix>3d</fix>
</trkpt>
<trkpt lat="-27.276635" lon="151.2900914">
  <ele>446.81</ele>
  <time>2026-09-01T19:59:09Z</time>
  <course>191.19</course>
  <speed>5.086531234544815</speed>
  <fix>3d</fix>
</trkpt>
<trkpt lat="-27.2766261" lon="151.290093">
  <ele>447.44</ele>
  <time>2026-09-01T19:59:09Z</time>
  <course>189.45</course>
  <speed>5.93</speed>
  <fix>3d</fix>
</trkpt>
<trkpt lat="-27.2766393" lon="151.2900906">
  <ele>446.49</ele>
  <time>2026-09-01T19:59:09Z</time>
  <course>191.48</course>
  <speed>4.562071897723665</speed>
  <fix>3d</fix>
</trkpt>
<trkpt lat="-27.2766261" lon="151.290093">
  <ele>447.44</ele>
  <time>2026-09-01T19:59:09Z</time>
  <course>189.45</course>
  <speed>5.93</speed>
  <fix>3d</fix>
</trkpt>
<trkpt lat="-27.2766432" lon="151.2900899">
  <ele>446.15</ele>
  <time>2026-09-01T19:59:09Z</time>
  <course>191.83</course>
  <speed>4.008104290060327</speed>
  <fix>3d</fix>
</trkpt>
<trkpt lat="-27.2766359" lon="151.2900912">
  <ele>446.91</ele>
  <time>2026-09-01T19:59:09Z</time>
  <course>189.73</course>
  <speed>5.05</speed>
  <fix>3d</fix>
</trkpt>
<trkpt lat="-27.2766465" lon="151.2900892">
  <ele>445.8</ele>
  <time>2026-09-01T19:59:09Z</time>
  <course>192.25</course>
  <speed>3.473974668877135</speed>
  <fix>3d</fix>
</trkpt>
<trkpt lat="-27.2766359" lon="151.2900912">
  <ele>446.91</ele>
  <time>2026-09-01T19:59:09Z</time>
  <course>189.73</course>
  <speed>5.05</speed>
  <fix>3d</fix>
</trkpt>
<trkpt lat="-27.2766494" lon="151.2900886">
  <ele>445.43</ele>
  <time>2026-09-01T19:59:09Z</time>
  <course>192.74</course>
  <speed>2.941870153490803</speed>
  <fix>3d</fix>
</trkpt>
<trkpt lat="-27.2766439" lon="151.2900896">
  <ele>446.25</ele>
  <time>2026-09-01T19:59:09Z</time>
  <course>190.4</course>
  <speed>3.99</speed>
  <fix>3d</fix>
</trkpt>
<trkpt lat="-27.2766518" lon="151.290088">
  <ele>445.08</ele>
  <time>2026-09-01T19:59:09Z</time>
  <course>193.27</course>
  <speed>2.4613207836444237</speed>
  <fix>3d</fix>
</trkpt>
<trkpt lat="-27.2766439" lon="151.2900896">
  <ele>446.25</ele>
  <time>2026-09-01T19:59:09Z</time>
  <course>190.4</course>
  <speed>3.99</speed>
  <fix>3d</fix>
</trkpt>
<trkpt lat="-27.2766538" lon="151.2900875">
  <ele>444.74</ele>
  <time>2026-09-01T19:59:09Z</time>
  <course>193.82</course>
  <speed>2.022992832414391</speed>
  <fix>3d</fix>
</trkpt>
<trkpt lat="-27.27665" lon="151.2900882">
  <ele>445.54</ele>
  <time>2026-09-01T19:59:09Z</time>
  <course>191.82</course>
  <speed>2.94</speed>
  <fix>3d</fix>
</trkpt>
<trkpt lat="-27.2766554" lon="151.290087">
  <ele>444.41</ele>
  <time>2026-09-01T19:59:09Z</time>
  <course>194.38</course>
  <speed>1.627820628939196</speed>
  <fix>3d</fix>
</trkpt>
<trkpt lat="-27.27665" lon="151.2900882">
  <ele>445.54</ele>
  <time>2026-09-01T19:59:09Z</time>
  <course>191.82</course>
  <speed>2.94</speed>
  <fix>3d</fix>
</trkpt>
<trkpt lat="-27.2766567" lon="151.2900865">
  <ele>444.1</ele>
  <time>2026-09-01T19:59:09Z</time>
  <course>194.91</course>
  <speed>1.290271289303145</speed>
  <fix>3d</fix>
</trkpt>
<trkpt lat="-27.2766543" lon="151.2900871">
  <ele>444.85</ele>
  <time>2026-09-01T19:59:09Z</time>
  <course>194.79</course>
  <speed>2.01</speed>
  <fix>3d</fix>
</trkpt>
<trkpt lat="-27.2766577" lon="151.2900861">
  <ele>443.81</ele>
  <time>2026-09-01T19:59:09Z</time>
  <course>195.38</course>
  <speed>1.0072239075796403</speed>
  <fix>3d</fix>
</trkpt>
<trkpt lat="-27.2766543" lon="151.2900871">
  <ele>444.85</ele>
  <time>2026-09-01T19:59:09Z</time>
  <course>194.79</course>
  <speed>2.01</speed>
  <fix>3d</fix>
</trkpt>
<trkpt lat="-27.2766584" lon="151.2900856">
  <ele>443.56</ele>
  <time>2026-09-01T19:59:09Z</time>
  <course>195.73</course>
  <speed>0.7769813382572325</speed>
  <fix>3d</fix>
</trkpt>
<trkpt lat="-27.2766571" lon="151.2900862">
  <ele>444.22</ele>
  <time>2026-09-01T19:59:09Z</time>
  <course>201.24</course>
  <speed>1.27</speed>
  <fix>3d</fix>
</trkpt>
<trkpt lat="-27.2766589" lon="151.2900852">
  <ele>443.33</ele>
  <time>2026-09-01T19:59:09Z</time>
  <course>195.9</course>
  <speed>0.6224146527838174</speed>
  <fix>3d</fix>
</trkpt>
<trkpt lat="-27.2766571" lon="151.2900862">
  <ele>444.22</ele>
  <time>2026-09-01T19:59:09Z</time>
  <course>201.24</course>
  <speed>1.27</speed>
  <fix>3d</fix>
</trkpt>
<trkpt lat="-27.2766593" lon="151.2900847">
  <ele>443.13</ele>
  <time>2026-09-01T19:59:09Z</time>
  <course>195.85</course>
  <speed>0.53</speed>
  <fix>3d</fix>
</trkpt>
<trkpt lat="-27.2766587" lon="151.2900852">
  <ele>443.68</ele>
  <time>2026-09-01T19:59:09Z</time>
  <course>216.27</course>
  <speed>0.76</speed>
  <fix>3d</fix>
</trkpt>
<trkpt lat="-27.2766595" lon="151.2900842">
  <ele>442.97</ele>
  <time>2026-09-01T19:59:09Z</time>
  <course>195.56</course>
  <speed>0.5</speed>
  <fix>3d</fix>
</trkpt>
<trkpt lat="-27.2766587" lon="151.2900852">
  <ele>443.68</ele>
  <time>2026-09-01T19:59:09Z</time>
  <course>216.27</course>
  <speed>0.76</speed>
  <fix>3d</fix>
</trkpt>
<trkpt lat="-27.2766595" lon="151.2900836">
  <ele>442.83</ele>
  <time>2026-09-01T19:59:09Z</time>
  <course>195.01</course>
  <speed>0.5108815909777921</speed>
  <fix>3d</fix>
</trkpt>
<trkpt lat="-27.2766594" lon="151.2900843">
  <ele>443.26</ele>
  <time>2026-09-01T19:59:09Z</time>
  <course>245.79</course>
  <speed>0.52</speed>
  <fix>3d</fix>
</trkpt>
<trkpt lat="-27.2766595" lon="151.2900831">
  <ele>442.74</ele>
  <time>2026-09-01T19:59:09Z</time>
  <course>194.24</course>
  <speed>0.5333854141237835</speed>
  <fix>3d</fix>
</trkpt>
<trkpt lat="-27.2766594" lon="151.2900843">
  <ele>443.26</ele>
  <time>2026-09-01T19:59:09Z</time>
  <course>245.79</course>
  <speed>0.52</speed>
  <fix>3d</fix>
</trkpt>
<trkpt lat="-27.2766594" lon="151.2900825">
  <ele>442.67</ele>
  <time>2026-09-01T19:59:09Z</time>
  <course>193.32</course>
  <speed>0.570087712549569</speed>
  <fix>3d</fix>
</trkpt>
<trkpt lat="-27.2766595" lon="151.2900833">
  <ele>442.97</ele>
  <time>2026-09-01T19:59:09Z</time>
  <course>276.24</course>
  <speed>0.52</speed>
  <fix>3d</fix>
</trkpt>
<trkpt lat="-27.2766593" lon="151.2900819">
  <ele>442.63</ele>
  <time>2026-09-01T19:59:09Z</time>
  <course>192.37</course>
  <speed>0.6074537019394977</speed>
  <fix>3d</fix>
</trkpt>
<trkpt lat="-27.2766595" lon="151.2900833">
  <ele>442.97</ele>
  <time>2026-09-01T19:59:09Z</time>
  <course>276.24</course>
  <speed>0.52</speed>
  <fix>3d</fix>
</trkpt>
<trkpt lat="-27.2766591" lon="151.2900813">
  <ele>442.62</ele>
  <time>2026-09-01T19:59:09Z</time>
  <course>191.53</course>
  <speed>0.6276941930590086</speed>
  <fix>3d</fix>
</trkpt>
<trkpt lat="-27.2766593" lon="151.2900822">
  <ele>442.82</ele>
  <time>2026-09-01T19:59:09Z</time>
  <course>293.87</course>
  <speed>0.6</speed>
  <fix>3d</fix>
</trkpt>
<trkpt lat="-27.2766588" lon="151.2900807">
  <ele>442.63</ele>
  <time>2026-09-01T19:59:09Z</time>
  <course>190.91</course>
  <speed>0.6356099432828282</speed>
  <fix>3d</fix>
</trkpt>
<trkpt lat="-27.2766593" lon="151.2900822">
  <ele>442.82</ele>
  <time>2026-09-01T19:59:09Z</time>
  <course>293.87</course>
  <speed>0.6</speed>
  <fix>3d</fix>
</trkpt>
<trkpt lat="-27.2766585" lon="151.2900801">
  <ele>442.66</ele>
  <time>2026-09-01T19:59:09Z</time>
  <course>190.57</course>
  <speed>0.6440496875241847</speed>
  <fix>3d</fix>
</trkpt>
<trkpt lat="-27.2766588" lon="151.2900811">
  <ele>442.77</ele>
  <time>2026-09-01T19:59:09Z</time>
  <course>301.4</course>
  <speed>0.66</speed>
  <fix>3d</fix>
</trkpt>
<trkpt lat="-27.2766582" lon="151.2900795">
  <ele>442.7</ele>
  <time>2026-09-01T19:59:09Z</time>
  <course>190.5</course>
  <speed>0.6352952069707436</speed>
  <fix>3d</fix>
</trkpt>
<trkpt lat="-27.2766588" lon="151.2900811">
  <ele>442.77</ele>
  <time>2026-09-01T19:59:09Z</time>
  <course>301.4</course>
  <speed>0.66</speed>
  <fix>3d</fix>
</trkpt>
<trkpt lat="-27.2766579" lon="151.2900789">
  <ele>442.74</ele>
  <time>2026-09-01T19:59:09Z</time>
  <course>190.66</course>
  <speed>0.6313477647065838</speed>
  <fix>3d</fix>
</trkpt>
<trkpt lat="-27.2766581" lon="151.2900799">
  <ele>442.81</ele>
  <time>2026-09-01T19:59:09Z</time>
  <course>305.14</course>
  <speed>0.67</speed>
  <fix>3d</fix>
</trkpt>
<trkpt lat="-27.2766575" lon="151.2900784">
  <ele>442.79</ele>
  <time>2026-09-01T19:59:09Z</time>
  <course>190.95</course>
  <speed>0.6140032573203501</speed>
  <fix>3d</fix>
</trkpt>
<trkpt lat="-27.2766581" lon="151.2900799">
  <ele>442.81</ele>
  <time>2026-09-01T19:59:09Z</time>
  <course>305.14</course>
  <speed>0.67</speed>
  <fix>3d</fix>
</trkpt>
<trkpt lat="-27.2766572" lon="151.2900779">
  <ele>442.84</ele>
  <time>2026-09-01T19:59:09Z</time>
  <course>191.29</course>
  <speed>0.5916924876994806</speed>
  <fix>3d</fix>
</trkpt>
<trkpt lat="-27.2766574" lon="151.2900789">
  <ele>442.89</ele>
  <time>2026-09-01T19:59:09Z</time>
  <course>308.35</course>
  <speed>0.66</speed>
  <fix>3d</fix>
</trkpt>
<trkpt lat="-27.2766569" lon="151.2900773">
  <ele>442.88</ele>
  <time>2026-09-01T19:59:09Z</time>
  <course>191.61</course>
  <speed>0.5643580423808985</speed>
  <fix>3d</fix>
</trkpt>
<trkpt lat="-27.2766574" lon="151.2900789">
  <ele>442.89</ele>
  <time>2026-09-01T19:59:09Z</time>
  <course>308.35</course>
  <speed>0.66</speed>
  <fix>3d</fix>
</trkpt>
<trkpt lat="-27.2766566" lon="151.2900769">
  <ele>442.92</ele>
  <time>2026-09-01T19:59:09Z</time>
  <course>191.84</course>
  <speed>0.5420332093147061</speed>
  <fix>3d</fix>
</trkpt>
<trkpt lat="-27.2766567" lon="151.2900779">
  <ele>442.99</ele>
  <time>2026-09-01T19:59:09Z</time>
  <course>310.13</course>
  <speed>0.62</speed>
  <fix>3d</fix>
</trkpt>
<trkpt lat="-27.2766563" lon="151.2900764">
  <ele>442.96</ele>
  <time>2026-09-01T19:59:09Z</time>
  <course>191.96</course>
  <speed>0.51</speed>
  <fix>3d</fix>
</trkpt>
<trkpt lat="-27.2766567" lon="151.2900779">
  <ele>442.99</ele>
  <time>2026-09-01T19:59:09Z</time>
  <course>310.13</course>
  <speed>0.62</speed>
  <fix>3d</fix>
</trkpt>
<trkpt lat="-27.276656" lon="151.290076">
  <ele>442.98</ele>
  <time>2026-09-01T19:59:09Z</time>
  <course>191.95</course>
  <speed>0.47853944456021597</speed>
  <fix>3d</fix>
</trkpt>
<trkpt lat="-27.276656" lon="151.2900769">
  <ele>443.07</ele>
  <time>2026-09-01T19:59:09Z</time>
  <course>310.4</course>
  <speed>0.56</speed>
  <fix>3d</fix>
</trkpt>
<trkpt lat="-27.2766558" lon="151.2900756">
  <ele>443.0</ele>
  <time>2026-09-01T19:59:09Z</time>
  <course>191.83</course>
  <speed>0.4477722635447622</speed>
  <fix>3d</fix>
</trkpt>
<trkpt lat="-27.276656" lon="151.2900769">
  <ele>443.07</ele>
  <time>2026-09-01T19:59:09Z</time>
  <course>310.4</course>
  <speed>0.56</speed>
  <fix>3d</fix>
</trkpt>
<trkpt lat="-27.2766555" lon="151.2900752">
  <ele>443.01</ele>
  <time>2026-09-01T19:59:09Z</time>
  <course>191.62</course>
  <speed>0.4143669871020132</speed>
  <fix>3d</fix>
</trkpt>
<trkpt lat="-27.2766554" lon="151.2900761">
  <ele>443.13</ele>
  <time>2026-09-01T19:59:09Z</time>
  <course>308.88</course>
  <speed>0.48</speed>
  <fix>3d</fix>
</trkpt>
<trkpt lat="-27.2766554" lon="151.2900748">
  <ele>443.02</ele>
  <time>2026-09-01T19:59:09Z</time>
  <course>191.38</course>
  <speed>0.38078865529319544</speed>
  <fix>3d</fix>
</trkpt>
<trkpt lat="-27.2766554" lon="151.2900761">
  <ele>443.13</ele>
  <time>2026-09-01T19:59:09Z</time>
  <course>308.88</course>
  <speed>0.48</speed>
  <fix>3d</fix>
</trkpt>
<trkpt lat="-27.2766552" lon="151.2900745">
  <ele>443.02</ele>
  <time>2026-09-01T19:59:09Z</time>
  <course>191.12</course>
  <speed>0.34365680554879163</speed>
  <fix>3d</fix>
</trkpt>
<trkpt lat="-27.2766549" lon="151.2900754">
  <ele>443.16</ele>
  <time>2026-09-01T19:59:09Z</time>
  <course>304.33</course>
  <speed>0.4</speed>
  <fix>3d</fix>
</trkpt>
<trkpt lat="-27.2766551" lon="151.2900742">
  <ele>443.01</ele>
  <time>2026-09-01T19:59:10Z</time>
  <course>190.91</course>
  <speed>0.32</speed>
  <fix>3d</fix>
</trkpt>
<trkpt lat="-27.2766549" lon="151.2900754">
  <ele>443.16</ele>
  <time>2026-09-01T19:59:10Z</time>
  <course>304.33</course>
  <speed>0.4</speed>
  <fix>3d</fix>
</trkpt>
<trkpt lat="-27.276655" lon="151.2900739">
  <ele>443.0</ele>
  <time>2026-09-01T19:59:10Z</time>
  <course>190.75</course>
  <speed>0.3014962686336267</speed>
  <fix>3d</fix>
</trkpt>
<trkpt lat="-27.2766546" lon="151.2900748">
  <ele>443.16</ele>
  <time>2026-09-01T19:59:10Z</time>
  <course>295.33</course>
  <speed>0.31</speed>
  <fix>3d</fix>
</trkpt>
<trkpt lat="-27.276655" lon="151.2900737">
  <ele>442.98</ele>
  <time>2026-09-01T19:59:10Z</time>
  <course>190.65</course>
  <speed>0.2816025568065745</speed>
  <fix>3d</fix>
</trkpt>
<trkpt lat="-27.2766546" lon="151.2900748">
  <ele>443.16</ele>
  <time>2026-09-01T19:59:10Z</time>
  <course>295.33</course>
  <speed>0.31</speed>
  <fix>3d</fix>
</trkpt>
<trkpt lat="-27.276655" lon="151.2900735">
  <ele>442.97</ele>
  <time>2026-09-01T19:59:10Z</time>
  <course>190.62</course>
  <speed>0.28653097563788804</speed>
  <fix>3d</fix>
</trkpt>
<trkpt lat="-27.2766544" lon="151.2900743">
  <ele>443.14</ele>
  <time>2026-09-01T19:59:10Z</time>
  <course>278.62</course>
  <speed>0.23</speed>
  <fix>3d</fix>
</trkpt>
<trkpt lat="-27.2766551" lon="151.2900733">
  <ele>442.95</ele>
  <time>2026-09-01T19:59:10Z</time>
  <course>190.64</course>
  <speed>0.3047950130825634</speed>
  <fix>3d</fix>
</trkpt>
<trkpt lat="-27.2766544" lon="151.2900743">
  <ele>443.14</ele>
  <time>2026-09-01T19:59:10Z</time>
  <course>278.62</course>
  <speed>0.23</speed>
  <fix>3d</fix>
</trkpt>
<trkpt lat="-27.2766552" lon="151.2900731">
  <ele>442.93</ele>
  <time>2026-09-01T19:59:10Z</time>
  <course>190.69</course>
  <speed>0.3420526275297414</speed>
  <fix>3d</fix>
</trkpt>
<trkpt lat="-27.2766545" lon="151.2900738">
  <ele>443.11</ele>
  <time>2026-09-01T19:59:10Z</time>
  <course>247.5</course>
  <speed>0.2</speed>
  <fix>3d</fix>
</trkpt>
<trkpt lat="-27.2766555" lon="151.2900729">
  <ele>442.91</ele>
  <time>2026-09-01T19:59:10Z</time>
  <course>190.76</course>
  <speed>0.38078865529319544</speed>
  <fix>3d</fix>
</trkpt>
<trkpt lat="-27.2766545" lon="151.2900738">
  <ele>443.11</ele>
  <time>2026-09-01T19:59:10Z</time>
  <course>247.5</course>
  <speed>0.2</speed>
  <fix>3d</fix>
</trkpt>
<trkpt lat="-27.2766557" lon="151.2900728">
  <ele>442.9</ele>
  <time>2026-09-01T19:59:10Z</time>
  <course>190.83</course>
  <speed>0.4346262762420146</speed>
  <fix>3d</fix>
</trkpt>
<trkpt lat="-27.2766547" lon="151.2900735">
  <ele>443.07</ele>
  <time>2026-09-01T19:59:10Z</time>
  <course>214.76</course>
  <speed>0.25</speed>
  <fix>3d</fix>
</trkpt>
<trkpt lat="-27.2766561" lon="151.2900727">
  <ele>442.89</ele>
  <time>2026-09-01T19:59:10Z</time>
  <course>190.88</course>
  <speed>0.5059644256269408</speed>
  <fix>3d</fix>
</trkpt>
<trkpt lat="-27.2766547" lon="151.2900735">
  <ele>443.07</ele>
  <time>2026-09-01T19:59:10Z</time>
  <course>214.76</course>
  <speed>0.25</speed>
  <fix>3d</fix>
</trkpt>
<trkpt lat="-27.2766565" lon="151.2900726">
  <ele>442.88</ele>
  <time>2026-09-01T19:59:10Z</time>
  <course>190.91</course>
  <speed>0.5675385449465085</speed>
  <fix>3d</fix>
</trkpt>
<trkpt lat="-27.2766552" lon="151.2900733">
  <ele>443.03</ele>
  <time>2026-09-01T19:59:10Z</time>
  <course>196.96</course>
  <speed>0.36</speed>
  <fix>3d</fix>
</trkpt>
<trkpt lat="-27.2766569" lon="151.2900725">
  <ele>442.87</ele>
  <time>2026-09-01T19:59:10Z</time>
  <course>190.92</course>
  <speed>0.6334824385884742</speed>
  <fix>3d</fix>
</trkpt>
<trkpt lat="-27.2766552" lon="151.2900733">
  <ele>443.03</ele>
  <time>2026-09-01T19:59:10Z</time>
  <course>196.96</course>
  <speed>0.36</speed>
  <fix>3d</fix>
</trkpt>
<trkpt lat="-27.2766575" lon="151.2900724">
  <ele>442.87</ele>
  <time>2026-09-01T19:59:10Z</time>
  <course>190.91</course>
  <speed>0.7003570517957252</speed>
  <fix>3d</fix>
</trkpt>
<trkpt lat="-27.2766559" lon="151.2900731">
  <ele>443.01</ele>
  <time>2026-09-01T19:59:10Z</time>
  <course>188.62</course>
  <speed>0.5</speed>
  <fix>3d</fix>
</trkpt>
<trkpt lat="-27.2766581" lon="151.2900724">
  <ele>442.86</ele>
  <time>2026-09-01T19:59:10Z</time>
  <course>190.89</course>
  <speed>0.7679192665899195</speed>
  <fix>3d</fix>
</trkpt>
<trkpt lat="-27.2766559" lon="151.2900731">
  <ele>443.01</ele>
  <time>2026-09-01T19:59:10Z</time>
  <course>188.62</course>
  <speed>0.5</speed>
  <fix>3d</fix>
</trkpt>
<trkpt lat="-27.2766587" lon="151.2900723">
  <ele>442.86</ele>
  <time>2026-09-01T19:59:10Z</time>
  <course>190.85</course>
  <speed>0.8360023923410747</speed>
  <fix>3d</fix>
</trkpt>
<trkpt lat="-27.276657" lon="151.2900729">
  <ele>443.0</ele>
  <time>2026-09-01T19:59:10Z</time>
  <course>184.52</course>
  <speed>0.65</speed>
  <fix>3d</fix>
</trkpt>
<trkpt lat="-27.2766594" lon="151.2900723">
  <ele>442.87</ele>
  <time>2026-09-01T19:59:10Z</time>
  <course>190.81</course>
  <speed>0.8945389874119517</speed>
  <fix>3d</fix>
</trkpt>
<trkpt lat="-27.276657" lon="151.2900729">
  <ele>443.0</ele>
  <time>2026-09-01T19:59:10Z</time>
  <course>184.52</course>
  <speed>0.65</speed>
  <fix>3d</fix>
</trkpt>
<trkpt lat="-27.2766602" lon="151.2900723">
  <ele>442.87</ele>
  <time>2026-09-01T19:59:10Z</time>
  <course>190.78</course>
  <speed>0.9542536350467836</speed>
  <fix>3d</fix>
</trkpt>
<trkpt lat="-27.2766583" lon="151.2900728">
  <ele>443.0</ele>
  <time>2026-09-01T19:59:10Z</time>
  <course>182.47</course>
  <speed>0.79</speed>
  <fix>3d</fix>
</trkpt>
<trkpt lat="-27.276661" lon="151.2900722">
  <ele>442.87</ele>
  <time>2026-09-01T19:59:10Z</time>
  <course>190.75</course>
  <speed>1.0140019723846694</speed>
  <fix>3d</fix>
</trkpt>
<trkpt lat="-27.2766583" lon="151.2900728">
  <ele>443.0</ele>
  <time>2026-09-01T19:59:10Z</time>
  <course>182.47</course>
  <speed>0.79</speed>
  <fix>3d</fix>
</trkpt>
<trkpt lat="-27.2766619" lon="151.2900722">
  <ele>442.88</ele>
  <time>2026-09-01T19:59:10Z</time>
  <course>190.73</course>
  <speed>1.0630145812734648</speed>
  <fix>3d</fix>
</trkpt>
<trkpt lat="-27.2766598" lon="151.2900728">
  <ele>443.0</ele>
  <time>2026-09-01T19:59:10Z</time>
  <course>181.51</course>
  <speed>0.92</speed>
  <fix>3d</fix>
</trkpt>
<trkpt lat="-27.2766629" lon="151.2900722">
  <ele>442.89</ele>
  <time>2026-09-01T19:59:10Z</time>
  <course>190.71</course>
  <speed>1.1128791488746657</speed>
  <fix>3d</fix>
</trkpt>
<trkpt lat="-27.2766598" lon="151.2900728">
  <ele>443.0</ele>
  <time>2026-09-01T19:59:10Z</time>
  <course>181.51</course>
  <speed>0.92</speed>
  <fix>3d</fix>
</trkpt>
<trkpt lat="-27.2766638" lon="151.2900722">
  <ele>442.9</ele>
  <time>2026-09-01T19:59:10Z</time>
  <course>190.7</course>
  <speed>1.1527792503337315</speed>
  <fix>3d</fix>
</trkpt>
<trkpt lat="-27.2766615" lon="151.2900727">
  <ele>443.01</ele>
  <time>2026-09-01T19:59:10Z</time>
  <course>181.19</course>
  <speed>1.04</speed>
  <fix>3d</fix>
</trkpt>
<trkpt lat="-27.2766648" lon="151.2900721">
  <ele>442.9</ele>
  <time>2026-09-01T19:59:10Z</time>
  <course>190.69</course>
  <speed>1.1933985084622822</speed>
  <fix>3d</fix>
</trkpt>
<trkpt lat="-27.2766615" lon="151.2900727">
  <ele>443.01</ele>
  <time>2026-09-01T19:59:10Z</time>
  <course>181.19</course>
  <speed>1.04</speed>
  <fix>3d</fix>
</trkpt>
<trkpt lat="-27.2766659" lon="151.2900721">
  <ele>442.91</ele>
  <time>2026-09-01T19:59:10Z</time>
  <course>190.69</course>
  <speed>1.233288287465668</speed>
  <fix>3d</fix>
</trkpt>
<trkpt lat="-27.2766635" lon="151.2900727">
  <ele>443.02</ele>
  <time>2026-09-01T19:59:10Z</time>
  <course>181.25</course>
  <speed>1.14</speed>
  <fix>3d</fix>
</trkpt>
<trkpt lat="-27.276667" lon="151.2900721">
  <ele>442.91</ele>
  <time>2026-09-01T19:59:10Z</time>
  <course>190.69</course>
  <speed>1.2632101962856381</speed>
  <fix>3d</fix>
</trkpt>
<trkpt lat="-27.2766635" lon="151.2900727">
  <ele>443.02</ele>
  <time>2026-09-01T19:59:10Z</time>
  <course>181.25</course>
  <speed>1.14</speed>
  <fix>3d</fix>
</trkpt>
<trkpt lat="-27.2766681" lon="151.2900721">
  <ele>442.92</ele>
  <time>2026-09-01T19:59:10Z</time>
  <course>190.68</course>
  <speed>1.2938701635017325</speed>
  <fix>3d</fix>
</trkpt>
<trkpt lat="-27.2766657" lon="151.2900726">
  <ele>443.03</ele>
  <time>2026-09-01T19:59:10Z</time>
  <course>181.58</course>
  <speed>1.22</speed>
  <fix>3d</fix>
</trkpt>
<trkpt lat="-27.2766692" lon="151.290072">
  <ele>442.92</ele>
  <time>2026-09-01T19:59:10Z</time>
  <course>190.69</course>
  <speed>1.3146102083887832</speed>
  <fix>3d</fix>
</trkpt>
<trkpt lat="-27.2766657" lon="151.2900726">
  <ele>443.03</ele>
  <time>2026-09-01T19:59:10Z</time>
  <course>181.58</course>
  <speed>1.22</speed>
  <fix>3d</fix>
</trkpt>
<trkpt lat="-27.2766704" lon="151.290072">
  <ele>442.92</ele>
  <time>2026-09-01T19:59:10Z</time>
  <course>190.69</course>
  <speed>1.3245754036671524</speed>
  <fix>3d</fix>
</trkpt>
<trkpt lat="-27.2766679" lon="151.2900725">
  <ele>443.03</ele>
  <time>2026-09-01T19:59:10Z</time>
  <course>182.1</course>
  <speed>1.28</speed>
  <fix>3d</fix>
</trkpt>
<trkpt lat="-27.2766716" lon="151.2900719">
  <ele>442.92</ele>
  <time>2026-09-01T19:59:10Z</time>
  <course>190.7</course>
  <speed>1.3453624047073711</speed>
  <fix>3d</fix>
</trkpt>
<trkpt lat="-27.2766679" lon="151.2900725">
  <ele>443.03</ele>
  <time>2026-09-01T19:59:10Z</time>
  <course>182.1</course>
  <speed>1.28</speed>
  <fix>3d</fix>
</trkpt>
<trkpt lat="-27.2766727" lon="151.2900718">
  <ele>442.92</ele>
  <time>2026-09-01T19:59:10Z</time>
  <course>190.71</course>
  <speed>1.346291201783626</speed>
  <fix>3d</fix>
</trkpt>
<trkpt lat="-27.2766703" lon="151.2900724">
  <ele>443.04</ele>
  <time>2026-09-01T19:59:10Z</time>
  <course>182.77</course>
  <speed>1.33</speed>
  <fix>3d</fix>
</trkpt>
<trkpt lat="-27.2766739" lon="151.2900717">
  <ele>442.92</ele>
  <time>2026-09-01T19:59:10Z</time>
  <course>190.71</course>
  <speed>1.3472935834479431</speed>
  <fix>3d</fix>
</trkpt>
<trkpt lat="-27.2766703" lon="151.2900724">
  <ele>443.04</ele>
  <time>2026-09-01T19:59:10Z</time>
  <course>182.77</course>
  <speed>1.33</speed>
  <fix>3d</fix>
</trkpt>
<trkpt lat="-27.2766751" lon="151.2900716">
  <ele>442.92</ele>
  <time>2026-09-01T19:59:10Z</time>
  <course>190.71</course>
  <speed>1.348369385591352</speed>
  <fix>3d</fix>
</trkpt>
<trkpt lat="-27.2766727" lon="151.2900723">
  <ele>443.03</ele>
  <time>2026-09-01T19:59:10Z</time>
  <course>183.56</course>
  <speed>1.35</speed>
  <fix>3d</fix>
</trkpt>
<trkpt lat="-27.2766763" lon="151.2900715">
  <ele>442.91</ele>
  <time>2026-09-01T19:59:10Z</time>
  <course>190.71</course>
  <speed>1.339589489358587</speed>
  <fix>3d</fix>
</trkpt>
<trkpt lat="-27.2766727" lon="151.2900723">
  <ele>443.03</ele>
  <time>2026-09-01T19:59:10Z</time>
  <course>183.56</course>
  <speed>1.35</speed>
  <fix>3d</fix>
</trkpt>
<trkpt lat="-27.2766775" lon="151.2900714">
  <ele>442.91</ele>
  <time>2026-09-01T19:59:10Z</time>
  <course>190.72</course>
  <speed>1.3209844813622906</speed>
  <fix>3d</fix>
</trkpt>
<trkpt lat="-27.2766751" lon="151.290072">
  <ele>443.03</ele>
  <time>2026-09-01T19:59:10Z</time>
  <course>184.48</course>
  <speed>1.35</speed>
  <fix>3d</fix>
</trkpt>
<trkpt lat="-27.2766786" lon="151.2900713">
  <ele>442.91</ele>
  <time>2026-09-01T19:59:10Z</time>
  <course>190.73</course>
  <speed>1.3024976007655444</speed>
  <fix>3d</fix>
</trkpt>
<trkpt lat="-27.2766751" lon="151.290072">
  <ele>443.03</ele>
  <time>2026-09-01T19:59:10Z</time>
  <course>184.48</course>
  <speed>1.35</speed>
  <fix>3d</fix>
</trkpt>
<trkpt lat="-27.2766797" lon="151.2900712">
  <ele>442.9</ele>
  <time>2026-09-01T19:59:10Z</time>
  <course>190.74</course>
  <speed>1.2826924806827238</speed>
  <fix>3d</fix>
</trkpt>
<trkpt lat="-27.2766775" lon="151.2900718">
  <ele>443.02</ele>
  <time>2026-09-01T19:59:10Z</time>
  <course>185.52</course>
  <speed>1.33</speed>
  <fix>3d</fix>
</trkpt>
<trkpt lat="-27.2766809" lon="151.290071">
  <ele>442.9</ele>
  <time>2026-09-01T19:59:10Z</time>
  <course>190.75</course>
  <speed>1.2544720004846661</speed>
  <fix>3d</fix>
</trkpt>
<trkpt lat="-27.2766775" lon="151.2900718">
  <ele>443.02</ele>
  <time>2026-09-01T19:59:10Z</time>
  <course>185.52</course>
  <speed>1.33</speed>
  <fix>3d</fix>
</trkpt>
<trkpt lat="-27.2766819" lon="151.2900709">
  <ele>442.9</ele>
  <time>2026-09-01T19:59:10Z</time>
  <course>190.76</course>
  <speed>1.216552506059644</speed>
  <fix>3d</fix>
</trkpt>
<trkpt lat="-27.2766798" lon="151.2900716">
  <ele>443.01</ele>
  <time>2026-09-01T19:59:10Z</time>
  <course>186.71</course>
  <speed>1.29</speed>
  <fix>3d</fix>
</trkpt>
<trkpt lat="-27.276683" lon="151.2900707">
  <ele>442.9</ele>
  <time>2026-09-01T19:59:10Z</time>
  <course>190.78</course>
  <speed>1.1788553770501282</speed>
  <fix>3d</fix>
</trkpt>
<trkpt lat="-27.2766798" lon="151.2900716">
  <ele>443.01</ele>
  <time>2026-09-01T19:59:10Z</time>
  <course>186.71</course>
  <speed>1.29</speed>
  <fix>3d</fix>
</trkpt>
<trkpt lat="-27.276684" lon="151.2900705">
  <ele>442.89</ele>
  <time>2026-09-01T19:59:10Z</time>
  <course>190.8</course>
  <speed>1.141402645870422</speed>
  <fix>3d</fix>
</trkpt>
<trkpt lat="-27.2766821" lon="151.2900713">
  <ele>443.01</ele>
  <time>2026-09-01T19:59:10Z</time>
  <course>188.07</course>
  <speed>1.23</speed>
  <fix>3d</fix>
</trkpt>
<trkpt lat="-27.276685" lon="151.2900703">
  <ele>442.89</ele>
  <time>2026-09-01T19:59:10Z</time>
  <course>190.81</course>
  <speed>1.094440496326776</speed>
  <fix>3d</fix>
</trkpt>
<trkpt lat="-27.2766821" lon="151.2900713">
  <ele>443.01</ele>
  <time>2026-09-01T19:59:10Z</time>
  <course>188.07</course>
  <speed>1.23</speed>
  <fix>3d</fix>
</trkpt>
<trkpt lat="-27.276686" lon="151.2900702">
  <ele>442.89</ele>
  <time>2026-09-01T19:59:10Z</time>
  <course>190.82</course>
  <speed>1.0575916035975323</speed>
  <fix>3d</fix>
</trkpt>
<trkpt lat="-27.2766842" lon="151.2900709">
  <ele>443.0</ele>
  <time>2026-09-01T19:59:10Z</time>
  <course>189.66</course>
  <speed>1.16</speed>
  <fix>3d</fix>
</trkpt>
<trkpt lat="-27.2766869" lon="151.29007">
  <ele>442.89</ele>
  <time>2026-09-01T19:59:10Z</time>
  <course>190.83</course>
  <speed>0.9992497185388645</speed>
  <fix>3d</fix>
</trkpt>
<trkpt lat="-27.2766842" lon="151.2900709">
  <ele>443.0</ele>
  <time>2026-09-01T19:59:10Z</time>
  <course>189.66</course>
  <speed>1.16</speed>
  <fix>3d</fix>
</trkpt>
<trkpt lat="-27.2766878" lon="151.2900697">
  <ele>442.89</ele>
  <time>2026-09-01T19:59:10Z</time>
  <course>190.84</course>
  <speed>0.9533624704172071</speed>
  <fix>3d</fix>
</trkpt>
<trkpt lat="-27.2766862" lon="151.2900705">
  <ele>443.0</ele>
  <time>2026-09-01T19:59:10Z</time>
  <course>191.55</course>
  <speed>1.07</speed>
  <fix>3d</fix>
</trkpt>
<trkpt lat="-27.2766886" lon="151.2900695">
  <ele>442.89</ele>
  <time>2026-09-01T19:59:10Z</time>
  <course>190.85</course>
  <speed>0.8984430978086481</speed>
  <fix>3d</fix>
</trkpt>
<trkpt lat="-27.2766862" lon="151.2900705">
  <ele>443.0</ele>
  <time>2026-09-01T19:59:10Z</time>
  <course>191.55</course>
  <speed>1.07</speed>
  <fix>3d</fix>
</trkpt>
<trkpt lat="-27.2766893" lon="151.2900693">
  <ele>442.89</ele>
  <time>2026-09-01T19:59:10Z</time>
  <course>190.87</course>
  <speed>0.8411896337925236</speed>
  <fix>3d</fix>
</trkpt>
<trkpt lat="-27.276688" lon="151.29007">
  <ele>443.0</ele>
  <time>2026-09-01T19:59:10Z</time>
  <course>193.83</course>
  <speed>0.97</speed>
  <fix>3d</fix>
</trkpt>
<trkpt lat="-27.27669" lon="151.2900691">
  <ele>442.89</ele>
  <time>2026-09-01T19:59:10Z</time>
  <course>190.88</course>
  <speed>0.7783315488916018</speed>
  <fix>3d</fix>
</trkpt>
<trkpt lat="-27.276688" lon="151.29007">
  <ele>443.0</ele>
  <time>2026-09-01T19:59:10Z</time>
  <course>193.83</course>
  <speed>0.97</speed>
  <fix>3d</fix>
</trkpt>
<trkpt lat="-27.2766907" lon="151.2900688">
  <ele>442.89</ele>
  <time>2026-09-01T19:59:10Z</time>
  <course>190.89</course>
  <speed>0.722357252334328</speed>
  <fix>3d</fix>
</trkpt>
<trkpt lat="-27.2766896" lon="151.2900695">
  <ele>443.0</ele>
  <time>2026-09-01T19:59:10Z</time>
  <course>196.69</course>
  <speed>0.86</speed>
  <fix>3d</fix>
</trkpt>
<trkpt lat="-27.2766913" lon="151.2900686">
  <ele>442.89</ele>
  <time>2026-09-01T19:59:10Z</time>
  <course>190.9</course>
  <speed>0.6579513659838392</speed>
  <fix>3d</fix>
</trkpt>
<trkpt lat="-27.2766896" lon="151.2900695">
  <ele>443.0</ele>
  <time>2026-09-01T19:59:10Z</time>
  <course>196.69</course>
  <speed>0.86</speed>
  <fix>3d</fix>
</trkpt>
<trkpt lat="-27.2766918" lon="151.2900683">
  <ele>442.89</ele>
  <time>2026-09-01T19:59:10Z</time>
  <course>190.9</course>
  <speed>0.6037383539249432</speed>
  <fix>3d</fix>
</trkpt>
<trkpt lat="-27.276691" lon="151.290069">
  <ele>443.0</ele>
  <time>2026-09-01T19:59:10Z</time>
  <course>200.4</course>
  <speed>0.74</speed>
  <fix>3d</fix>
</trkpt>
<trkpt lat="-27.2766923" lon="151.290068">
  <ele>442.89</ele>
  <time>2026-09-01T19:59:10Z</time>
  <course>190.91</course>
  <speed>0.5470831746635972</speed>
  <fix>3d</fix>
</trkpt>
<trkpt lat="-27.276691" lon="151.290069">
  <ele>443.0</ele>
  <time>2026-09-01T19:59:10Z</time>
  <course>200.4</course>
  <speed>0.74</speed>
  <fix>3d</fix>
</trkpt>
<trkpt lat="-27.2766927" lon="151.2900678">
  <ele>442.89</ele>
  <time>2026-09-01T19:59:10Z</time>
  <course>190.9</course>
  <speed>0.49648766349225637</speed>
  <fix>3d</fix>
</trkpt>
<trkpt lat="-27.2766921" lon="151.2900685">
  <ele>443.0</ele>
  <time>2026-09-01T19:59:10Z</time>
  <course>205.36</course>
  <speed>0.62</speed>
  <fix>3d</fix>
</trkpt>
<trkpt lat="-27.2766931" lon="151.2900675">
  <ele>442.89</ele>
  <time>2026-09-01T19:59:10Z</time>
  <course>190.9</course>
  <speed>0.44045431091090476</speed>
  <fix>3d</fix>
</trkpt>
<trkpt lat="-27.2766921" lon="151.2900685">
  <ele>443.0</ele>
  <time>2026-09-01T19:59:10Z</time>
  <course>205.36</course>
  <speed>0.62</speed>
  <fix>3d</fix>
</trkpt>
<trkpt lat="-27.2766934" lon="151.2900673">
  <ele>442.89</ele>
  <time>2026-09-01T19:59:10Z</time>
  <course>190.89</course>
  <speed>0.3818376618407357</speed>
  <fix>3d</fix>
</trkpt>
<trkpt lat="-27.276693" lon="151.2900679">
  <ele>443.0</ele>
  <time>2026-09-01T19:59:10Z</time>
  <course>212.32</course>
  <speed>0.51</speed>
  <fix>3d</fix>
</trkpt>
<trkpt lat="-27.2766936" lon="151.290067">
  <ele>442.89</ele>
  <time>2026-09-01T19:59:10Z</time>
  <course>190.88</course>
  <speed>0.3420526275297414</speed>
  <fix>3d</fix>
</trkpt>
<trkpt lat="-27.276693" lon="151.2900679">
  <ele>443.0</ele>
  <time>2026-09-01T19:59:10Z</time>
  <course>212.32</course>
  <speed>0.51</speed>
  <fix>3d</fix>
</trkpt>
<trkpt lat="-27.2766938" lon="151.2900667">
  <ele>442.88</ele>
  <time>2026-09-01T19:59:10Z</time>
  <course>190.86</course>
  <speed>0.304138126514911</speed>
  <fix>3d</fix>
</trkpt>
<trkpt lat="-27.2766937" lon="151.2900674">
  <ele>442.99</ele>
  <time>2026-09-01T19:59:10Z</time>
  <course>222.75</course>
  <speed>0.4</speed>
  <fix>3d</fix>
</trkpt>
<trkpt lat="-27.2766939" lon="151.2900665">
  <ele>442.88</ele>
  <time>2026-09-01T19:59:10Z</time>
  <course>190.86</course>
  <speed>0.2816025568065745</speed>
  <fix>3d</fix>
</trkpt>
<trkpt lat="-27.2766937" lon="151.2900674">
  <ele>442.99</ele>
  <time>2026-09-01T19:59:10Z</time>
  <course>222.75</course>
  <speed>0.4</speed>
  <fix>3d</fix>
</trkpt>
<trkpt lat="-27.276694" lon="151.2900662">
  <ele>442.89</ele>
  <time>2026-09-01T19:59:10Z</time>
  <course>190.85</course>
  <speed>0.260768096208106</speed>
  <fix>3d</fix>
</trkpt>
<trkpt lat="-27.2766941" lon="151.2900668">
  <ele>442.99</ele>
  <time>2026-09-01T19:59:10Z</time>
  <course>238.97</course>
  <speed>0.31</speed>
  <fix>3d</fix>
</trkpt>
<trkpt lat="-27.276694" lon="151.290066">
  <ele>442.88</ele>
  <time>2026-09-01T19:59:10Z</time>
  <course>190.85</course>
  <speed>0.261725046566048</speed>
  <fix>3d</fix>
</trkpt>
<trkpt lat="-27.2766941" lon="151.2900668">
  <ele>442.99</ele>
  <time>2026-09-01T19:59:10Z</time>
  <course>238.97</course>
  <speed>0.31</speed>
  <fix>3d</fix>
</trkpt>
<trkpt lat="-27.276694" lon="151.2900657">
  <ele>442.89</ele>
  <time>2026-09-01T19:59:10Z</time>
  <course>190.85</course>
  <speed>0.26570660511172844</speed>
  <fix>3d</fix>
</trkpt>
<trkpt lat="-27.2766943" lon="151.2900662">
  <ele>442.99</ele>
  <time>2026-09-01T19:59:10Z</time>
  <course>262.26</course>
  <speed>0.26</speed>
  <fix>3d</fix>
</trkpt>
<trkpt lat="-27.2766939" lon="151.2900655">
  <ele>442.88</ele>
  <time>2026-09-01T19:59:10Z</time>
  <course>190.85</course>
  <speed>0.28178005607210743</speed>
  <fix>3d</fix>
</trkpt>
<trkpt lat="-27.2766943" lon="151.2900662">
  <ele>442.99</ele>
  <time>2026-09-01T19:59:10Z</time>
  <course>262.26</course>
  <speed>0.26</speed>
  <fix>3d</fix>
</trkpt>
<trkpt lat="-27.2766938" lon="151.2900652">
  <ele>442.88</ele>
  <time>2026-09-01T19:59:10Z</time>
  <course>190.86</course>
  <speed>0.3</speed>
  <fix>3d</fix>
</trkpt>
<trkpt lat="-27.2766943" lon="151.2900657">
  <ele>442.99</ele>
  <time>2026-09-01T19:59:10Z</time>
  <course>286.62</course>
  <speed>0.26</speed>
  <fix>3d</fix>
</trkpt>
<trkpt lat="-27.2766936" lon="151.290065">
  <ele>442.88</ele>
  <time>2026-09-01T19:59:10Z</time>
  <course>190.88</course>
  <speed>0.31827660925679097</speed>
  <fix>3d</fix>
</trkpt>
<trkpt lat="-27.2766943" lon="151.2900657">
  <ele>442.99</ele>
  <time>2026-09-01T19:59:10Z</time>
  <course>286.62</course>
  <speed>0.26</speed>
  <fix>3d</fix>
</trkpt>
<trkpt lat="-27.2766934" lon="151.2900647">
  <ele>442.88</ele>
  <time>2026-09-01T19:59:10Z</time>
  <course>190.91</course>
  <speed>0.3397057550292606</speed>
  <fix>3d</fix>
</trkpt>
<trkpt lat="-27.2766941" lon="151.2900652">
  <ele>442.99</ele>
  <time>2026-09-01T19:59:10Z</time>
  <course>304.69</course>
  <speed>0.3</speed>
  <fix>3d</fix>
</trkpt>
<trkpt lat="-27.2766933" lon="151.2900645">
  <ele>442.88</ele>
  <time>2026-09-01T19:59:10Z</time>
  <course>190.93</course>
  <speed>0.3640054944640259</speed>
  <fix>3d</fix>
</trkpt>
<trkpt lat="-27.2766941" lon="151.2900652">
  <ele>442.99</ele>
  <time>2026-09-01T19:59:10Z</time>
  <course>304.69</course>
  <speed>0.3</speed>
  <fix>3d</fix>
</trkpt>
<trkpt lat="-27.276693" lon="151.2900643">
  <ele>442.88</ele>
  <time>2026-09-01T19:59:10Z</time>
  <course>190.95</course>
  <speed>0.37443290453698114</speed>
  <fix>3d</fix>
</trkpt>
<trkpt lat="-27.2766937" lon="151.2900647">
  <ele>442.99</ele>
  <time>2026-09-01T19:59:10Z</time>
  <course>316.83</course>
  <speed>0.34</speed>
  <fix>3d</fix>
</trkpt>
<trkpt lat="-27.2766928" lon="151.2900641">
  <ele>442.88</ele>
  <time>2026-09-01T19:59:10Z</time>
  <course>190.97</course>
  <speed>0.3944616584663204</speed>
  <fix>3d</fix>
</trkpt>
<trkpt lat="-27.2766937" lon="151.2900647">
  <ele>442.99</ele>
  <time>2026-09-01T19:59:10Z</time>
  <course>316.83</course>
  <speed>0.34</speed>
  <fix>3d</fix>
</trkpt>
<trkpt lat="-27.2766925" lon="151.2900639">
  <ele>442.88</ele>
  <time>2026-09-01T19:59:10Z</time>
  <course>190.99</course>
  <speed>0.4070626487409524</speed>
  <fix>3d</fix>
</trkpt>
<trkpt lat="-27.2766932" lon="151.2900642">
  <ele>442.99</ele>
  <time>2026-09-01T19:59:10Z</time>
  <course>325.06</course>
  <speed>0.38</speed>
  <fix>3d</fix>
</trkpt>
<trkpt lat="-27.2766922" lon="151.2900637">
  <ele>442.88</ele>
  <time>2026-09-01T19:59:10Z</time>
  <course>191.02</course>
  <speed>0.4204759208325728</speed>
  <fix>3d</fix>
</trkpt>
<trkpt lat="-27.2766932" lon="151.2900642">
  <ele>442.99</ele>
  <time>2026-09-01T19:59:10Z</time>
  <course>325.06</course>
  <speed>0.38</speed>
  <fix>3d</fix>
</trkpt>
<trkpt lat="-27.2766918" lon="151.2900635">
  <ele>442.88</ele>
  <time>2026-09-01T19:59:10Z</time>
  <course>191.04</course>
  <speed>0.425440947723653</speed>
  <fix>3d</fix>
</trkpt>
<trkpt lat="-27.2766925" lon="151.2900639">
  <ele>442.99</ele>
  <time>2026-09-01T19:59:10Z</time>
  <course>330.93</course>
  <speed>0.41</speed>
  <fix>3d</fix>
</trkpt>
<trkpt lat="-27.2766915" lon="151.2900633">
  <ele>442.88</ele>
  <time>2026-09-01T19:59:10Z</time>
  <course>191.07</course>
  <speed>0.4308131845707603</speed>
  <fix>3d</fix>
</trkpt>
<trkpt lat="-27.2766925" lon="151.2900639">
  <ele>442.99</ele>
  <time>2026-09-01T19:59:10Z</time>
  <course>330.93</course>
  <speed>0.41</speed>
  <fix>3d</fix>
</trkpt>
<trkpt lat="-27.2766911" lon="151.2900632">
  <ele>442.88</ele>
  <time>2026-09-01T19:59:10Z</time>
  <course>191.08</course>
  <speed>0.43657759905886145</speed>
  <fix>3d</fix>
</trkpt>
<trkpt lat="-27.2766919" lon="151.2900634">
  <ele>443.0</ele>
  <time>2026-09-01T19:59:10Z</time>
  <course>335.38</course>
  <speed>0.43</speed>
  <fix>3d</fix>
</trkpt>
<trkpt lat="-27.2766907" lon="151.290063">
  <ele>442.88</ele>
  <time>2026-09-01T19:59:10Z</time>
  <course>191.1</course>
  <speed>0.4427188724235731</speed>
  <fix>3d</fix>
</trkpt>
<trkpt lat="-27.2766919" lon="151.2900634">
  <ele>443.0</ele>
  <time>2026-09-01T19:59:10Z</time>
  <course>335.38</course>
  <speed>0.43</speed>
  <fix>3d</fix>
</trkpt>
<trkpt lat="-27.2766904" lon="151.2900629">
  <ele>442.88</ele>
  <time>2026-09-01T19:59:10Z</time>
  <course>191.11</course>
  <speed>0.43965895873961214</speed>
  <fix>3d</fix>
</trkpt>
<trkpt lat="-27.2766912" lon="151.2900631">
  <ele>443.0</ele>
  <time>2026-09-01T19:59:10Z</time>
  <course>339.02</course>
  <speed>0.45</speed>
  <fix>3d</fix>
</trkpt>
<trkpt lat="-27.27669" lon="151.2900627">
  <ele>442.89</ele>
  <time>2026-09-01T19:59:10Z</time>
  <course>191.12</course>
  <speed>0.4438468204234429</speed>
  <fix>3d</fix>
</trkpt>
<trkpt lat="-27.2766912" lon="151.2900631">
  <ele>443.0</ele>
  <time>2026-09-01T19:59:10Z</time>
  <course>339.02</course>
  <speed>0.45</speed>
  <fix>3d</fix>
</trkpt>
<trkpt lat="-27.2766896" lon="151.2900626">
  <ele>442.89</ele>
  <time>2026-09-01T19:59:10Z</time>
  <course>191.13</course>
  <speed>0.44147480109288234</speed>
  <fix>3d</fix>
</trkpt>
<trkpt lat="-27.2766904" lon="151.2900628">
  <ele>443.0</ele>
  <time>2026-09-01T19:59:10Z</time>
  <course>342.24</course>
  <speed>0.45</speed>
  <fix>3d</fix>
</trkpt>
<trkpt lat="-27.2766892" lon="151.2900625">
  <ele>442.89</ele>
  <time>2026-09-01T19:59:10Z</time>
  <course>191.13</course>
  <speed>0.4295346318982906</speed>
  <fix>3d</fix>
</trkpt>
<trkpt lat="-27.2766904" lon="151.2900628">
  <ele>443.0</ele>
  <time>2026-09-01T19:59:10Z</time>
  <course>342.24</course>
  <speed>0.45</speed>
  <fix>3d</fix>
</trkpt>
<trkpt lat="-27.2766889" lon="151.2900624">
  <ele>442.89</ele>
  <time>2026-09-01T19:59:10Z</time>
  <course>191.13</course>
  <speed>0.42755116652863895</speed>
  <fix>3d</fix>
</trkpt>
<trkpt lat="-27.2766896" lon="151.2900626">
  <ele>443.0</ele>
  <time>2026-09-01T19:59:10Z</time>
  <course>345.3</course>
  <speed>0.45</speed>
  <fix>3d</fix>
</trkpt>
<trkpt lat="-27.2766885" lon="151.2900623">
  <ele>442.88</ele>
  <time>2026-09-01T19:59:10Z</time>
  <course>191.11</course>
  <speed>0.4242640687119285</speed>
  <fix>3d</fix>
</trkpt>
<trkpt lat="-27.2766896" lon="151.2900626">
  <ele>443.0</ele>
  <time>2026-09-01T19:59:10Z</time>
  <course>345.3</course>
  <speed>0.45</speed>
  <fix>3d</fix>
</trkpt>
<trkpt lat="-27.2766881" lon="151.2900623">
  <ele>442.88</ele>
  <time>2026-09-01T19:59:10Z</time>
  <course>191.09</course>
  <speed>0.41303752856126763</speed>
  <fix>3d</fix>
</trkpt>
<trkpt lat="-27.2766888" lon="151.2900624">
  <ele>443.0</ele>
  <time>2026-09-01T19:59:10Z</time>
  <course>348.35</course>
  <speed>0.44</speed>
  <fix>3d</fix>
</trkpt>
<trkpt lat="-27.2766878" lon="151.2900622">
  <ele>442.88</ele>
  <time>2026-09-01T19:59:10Z</time>
  <course>191.08</course>
  <speed>0.4019950248448356</speed>
  <fix>3d</fix>
</trkpt>
<trkpt lat="-27.2766888" lon="151.2900624">
  <ele>443.0</ele>
  <time>2026-09-01T19:59:10Z</time>
  <course>348.35</course>
  <speed>0.44</speed>
  <fix>3d</fix>
</trkpt>
<trkpt lat="-27.2766874" lon="151.2900622">
  <ele>442.88</ele>
  <time>2026-09-01T19:59:10Z</time>
  <course>191.06</course>
  <speed>0.4011234224026316</speed>
  <fix>3d</fix>
</trkpt>
<trkpt lat="-27.2766881" lon="151.2900622">
  <ele>443.0</ele>
  <time>2026-09-01T19:59:10Z</time>
  <course>351.45</course>
  <speed>0.43</speed>
  <fix>3d</fix>
</trkpt>
<trkpt lat="-27.276687" lon="151.2900622">
  <ele>442.88</ele>
  <time>2026-09-01T19:59:10Z</time>
  <course>191.04</course>
  <speed>0.3901281840626232</speed>
  <fix>3d</fix>
</trkpt>
<trkpt lat="-27.2766881" lon="151.2900622">
  <ele>443.0</ele>
  <time>2026-09-01T19:59:10Z</time>
  <course>351.45</course>
  <speed>0.43</speed>
  <fix>3d</fix>
</trkpt>
<trkpt lat="-27.2766867" lon="151.2900621">
  <ele>442.88</ele>
  <time>2026-09-01T19:59:10Z</time>
  <course>191.03</course>
  <speed>0.38</speed>
  <fix>3d</fix>
</trkpt>
<trkpt lat="-27.2766873" lon="151.2900621">
  <ele>443.0</ele>
  <time>2026-09-01T19:59:10Z</time>
  <course>354.61</course>
  <speed>0.41</speed>
  <fix>3d</fix>
</trkpt>
<trkpt lat="-27.2766863" lon="151.2900621">
  <ele>442.88</ele>
  <time>2026-09-01T19:59:10Z</time>
  <course>191.02</course>
  <speed>0.37</speed>
  <fix>3d</fix>
</trkpt>
<trkpt lat="-27.2766873" lon="151.2900621">
  <ele>443.0</ele>
  <time>2026-09-01T19:59:10Z</time>
  <course>354.61</course>
  <speed>0.41</speed>
  <fix>3d</fix>
</trkpt>
<trkpt lat="-27.276686" lon="151.2900621">
  <ele>442.88</ele>
  <time>2026-09-01T19:59:10Z</time>
  <course>191.01</course>
  <speed>0.36013886210738216</speed>
  <fix>3d</fix>
</trkpt>
<trkpt lat="-27.2766865" lon="151.290062">
  <ele>443.0</ele>
  <time>2026-09-01T19:59:10Z</time>
  <course>357.76</course>
  <speed>0.4</speed>
  <fix>3d</fix>
</trkpt>
<trkpt lat="-27.2766857" lon="151.2900621">
  <ele>442.88</ele>
  <time>2026-09-01T19:59:10Z</time>
  <course>191.0</course>
  <speed>0.3505709628591621</speed>
  <fix>3d</fix>
</trkpt>
<trkpt lat="-27.2766865" lon="151.290062">
  <ele>443.0</ele>
  <time>2026-09-01T19:59:10Z</time>
  <course>357.76</course>
  <speed>0.4</speed>
  <fix>3d</fix>
</trkpt>
<trkpt lat="-27.2766854" lon="151.2900621">
  <ele>442.88</ele>
  <time>2026-09-01T19:59:10Z</time>
  <course>190.99</course>
  <speed>0.34132096331752027</speed>
  <fix>3d</fix>
</trkpt>
<trkpt lat="-27.2766858" lon="151.290062">
  <ele>443.0</ele>
  <time>2026-09-01T19:59:10Z</time>
  <course>0.93</course>
  <speed>0.38</speed>
  <fix>3d</fix>
</trkpt>
<trkpt lat="-27.276685" lon="151.2900621">
  <ele>442.88</ele>
  <time>2026-09-01T19:59:10Z</time>
  <course>190.97</course>
  <speed>0.33241540277189324</speed>
  <fix>3d</fix>
</trkpt>
<trkpt lat="-27.2766858" lon="151.290062">
  <ele>443.0</ele>
  <time>2026-09-01T19:59:10Z</time>
  <course>0.93</course>
  <speed>0.38</speed>
  <fix>3d</fix>
</trkpt>
<trkpt lat="-27.2766847" lon="151.2900621">
  <ele>442.88</ele>
  <time>2026-09-01T19:59:10Z</time>
  <course>190.95</course>
  <speed>0.31400636936215165</speed>
  <fix>3d</fix>
</trkpt>
<trkpt lat="-27.2766852" lon="151.2900621">
  <ele>443.01</ele>
  <time>2026-09-01T19:59:10Z</time>
  <course>4.22</course>
  <speed>0.36</speed>
  <fix>3d</fix>
</trkpt>
<trkpt lat="-27.2766844" lon="151.2900622">
  <ele>442.88</ele>
  <time>2026-09-01T19:59:10Z</time>
  <course>190.93</course>
  <speed>0.3059411708155671</speed>
  <fix>3d</fix>
</trkpt>
<trkpt lat="-27.2766852" lon="151.2900621">
  <ele>443.01</ele>
  <time>2026-09-01T19:59:10Z</time>
  <course>4.22</course>
  <speed>0.36</speed>
  <fix>3d</fix>
</trkpt>
<trkpt lat="-27.2766842" lon="151.2900623">
  <ele>442.88</ele>
  <time>2026-09-01T19:59:10Z</time>
  <course>190.91</course>
  <speed>0.29614185789921693</speed>
  <fix>3d</fix>
</trkpt>
<trkpt lat="-27.2766846" lon="151.2900621">
  <ele>443.01</ele>
  <time>2026-09-01T19:59:10Z</time>
  <course>7.69</course>
  <speed>0.33</speed>
  <fix>3d</fix>
</trkpt>
<trkpt lat="-27.2766839" lon="151.2900623">
  <ele>442.88</ele>
  <time>2026-09-01T19:59:10Z</time>
  <course>190.85</course>
  <speed>0.27892651361962706</speed>
  <fix>3d</fix>
</trkpt>
<trkpt lat="-27.2766846" lon="151.2900621">
  <ele>443.01</ele>
  <time>2026-09-01T19:59:10Z</time>
  <course>7.69</course>
  <speed>0.33</speed>
  <fix>3d</fix>
</trkpt>
<trkpt lat="-27.2766837" lon="151.2900624">
  <ele>442.89</ele>
  <time>2026-09-01T19:59:10Z</time>
  <course>190.76</course>
  <speed>0.2692582403567252</speed>
  <fix>3d</fix>
</trkpt>
<trkpt lat="-27.276684" lon="151.2900621">
  <ele>443.01</ele>
  <time>2026-09-01T19:59:10Z</time>
  <course>10.9</course>
  <speed>0.31</speed>
  <fix>3d</fix>
</trkpt>
<trkpt lat="-27.2766834" lon="151.2900624">
  <ele>442.89</ele>
  <time>2026-09-01T19:59:10Z</time>
  <course>190.66</course>
  <speed>0.25</speed>
  <fix>3d</fix>
</trkpt>
<trkpt lat="-27.276684" lon="151.2900621">
  <ele>443.01</ele>
  <time>2026-09-01T19:59:10Z</time>
  <course>10.9</course>
  <speed>0.31</speed>
  <fix>3d</fix>
</trkpt>
<trkpt lat="-27.2766832" lon="151.2900625">
  <ele>442.89</ele>
  <time>2026-09-01T19:59:10Z</time>
  <course>190.57</course>
  <speed>0.24351591323771843</speed>
  <fix>3d</fix>
</trkpt>
<trkpt lat="-27.2766834" lon="151.2900623">
  <ele>443.01</ele>
  <time>2026-09-01T19:59:10Z</time>
  <course>13.61</course>
  <speed>0.29</speed>
  <fix>3d</fix>
</trkpt>
<trkpt lat="-27.276683" lon="151.2900626">
  <ele>442.9</ele>
  <time>2026-09-01T19:59:10Z</time>
  <course>190.5</course>
  <speed>0.2340939982143925</speed>
  <fix>3d</fix>
</trkpt>
<trkpt lat="-27.2766834" lon="151.2900623">
  <ele>443.01</ele>
  <time>2026-09-01T19:59:10Z</time>
  <course>13.61</course>
  <speed>0.29</speed>
  <fix>3d</fix>
</trkpt>
<trkpt lat="-27.2766828" lon="151.2900626">
  <ele>442.9</ele>
  <time>2026-09-01T19:59:10Z</time>
  <course>190.47</course>
  <speed>0.21540659228538014</speed>
  <fix>3d</fix>
</trkpt>
<trkpt lat="-27.276683" lon="151.2900624">
  <ele>443.01</ele>
  <time>2026-09-01T19:59:10Z</time>
  <course>16.41</course>
  <speed>0.26</speed>
  <fix>3d</fix>
</trkpt>
<trkpt lat="-27.2766826" lon="151.2900627">
  <ele>442.9</ele>
  <time>2026-09-01T19:59:10Z</time>
  <course>190.47</course>
  <speed>0.19697715603592209</speed>
  <fix>3d</fix>
</trkpt>
<trkpt lat="-27.276683" lon="151.2900624">
  <ele>443.01</ele>
  <time>2026-09-01T19:59:10Z</time>
  <course>16.41</course>
  <speed>0.26</speed>
  <fix>3d</fix>
</trkpt>
<trkpt lat="-27.2766824" lon="151.2900628">
  <ele>442.9</ele>
  <time>2026-09-01T19:59:10Z</time>
  <course>190.5</course>
  <speed>0.19235384061671343</speed>
  <fix>3d</fix>
</trkpt>
<trkpt lat="-27.2766826" lon="151.2900626">
  <ele>443.02</ele>
  <time>2026-09-01T19:59:10Z</time>
  <course>19.93</course>
  <speed>0.23</speed>
  <fix>3d</fix>
</trkpt>
<trkpt lat="-27.2766822" lon="151.2900629">
  <ele>442.9</ele>
  <time>2026-09-01T19:59:10Z</time>
  <course>190.55</course>
  <speed>0.17492855684535902</speed>
  <fix>3d</fix>
</trkpt>
<trkpt lat="-27.2766826" lon="151.2900626">
  <ele>443.02</ele>
  <time>2026-09-01T19:59:10Z</time>
  <course>19.93</course>
  <speed>0.23</speed>
  <fix>3d</fix>
</trkpt>
<trkpt lat="-27.2766821" lon="151.290063">
  <ele>442.9</ele>
  <time>2026-09-01T19:59:10Z</time>
  <course>190.6</course>
  <speed>0.1664331697709324</speed>
  <fix>3d</fix>
</trkpt>
<trkpt lat="-27.2766821" lon="151.2900627">
  <ele>443.01</ele>
  <time>2026-09-01T19:59:10Z</time>
  <course>24.4</course>
  <speed>0.2</speed>
  <fix>3d</fix>
</trkpt>
<trkpt lat="-27.2766819" lon="151.2900631">
  <ele>442.9</ele>
  <time>2026-09-01T19:59:10Z</time>
  <course>190.66</course>
  <speed>0.15</speed>
  <fix>3d</fix>
</trkpt>
<trkpt lat="-27.2766821" lon="151.2900627">
  <ele>443.01</ele>
  <time>2026-09-01T19:59:10Z</time>
  <course>24.4</course>
  <speed>0.2</speed>
  <fix>3d</fix>
</trkpt>
<trkpt lat="-27.2766818" lon="151.2900631">
  <ele>442.91</ele>
  <time>2026-09-01T19:59:10Z</time>
  <course>190.71</course>
  <speed>0.1345362404707371</speed>
  <fix>3d</fix>
</trkpt>
<trkpt lat="-27.2766818" lon="151.2900629">
  <ele>443.01</ele>
  <time>2026-09-01T19:59:10Z</time>
  <course>29.8</course>
  <speed>0.18</speed>
  <fix>3d</fix>
</trkpt>
<trkpt lat="-27.2766817" lon="151.2900632">
  <ele>442.91</ele>
  <time>2026-09-01T19:59:10Z</time>
  <course>190.74</course>
  <speed>0.12727922061357855</speed>
  <fix>3d</fix>
</trkpt>
<trkpt lat="-27.2766818" lon="151.2900629">
  <ele>443.01</ele>
  <time>2026-09-01T19:59:10Z</time>
  <course>29.8</course>
  <speed>0.18</speed>
  <fix>3d</fix>
</trkpt>
<trkpt lat="-27.2766816" lon="151.2900633">
  <ele>442.91</ele>
  <time>2026-09-01T19:59:10Z</time>
  <course>190.75</course>
  <speed>0.11401754250991379</speed>
  <fix>3d</fix>
</trkpt>
<trkpt lat="-27.2766815" lon="151.2900631">
  <ele>443.01</ele>
  <time>2026-09-01T19:59:10Z</time>
  <course>36.38</course>
  <speed>0.15</speed>
  <fix>3d</fix>
</trkpt>
<trkpt lat="-27.2766815" lon="151.2900634">
  <ele>442.91</ele>
  <time>2026-09-01T19:59:10Z</time>
  <course>190.75</course>
  <speed>0.10816653826391968</speed>
  <fix>3d</fix>
</trkpt>
<trkpt lat="-27.2766815" lon="151.2900631">
  <ele>443.01</ele>
  <time>2026-09-01T19:59:10Z</time>
  <course>36.38</course>
  <speed>0.15</speed>
  <fix>3d</fix>
</trkpt>
<trkpt lat="-27.2766815" lon="151.2900635">
  <ele>442.91</ele>
  <time>2026-09-01T19:59:10Z</time>
  <course>190.74</course>
  <speed>0.09848857801796104</speed>
  <fix>3d</fix>
</trkpt>
<trkpt lat="-27.2766814" lon="151.2900632">
  <ele>443.0</ele>
  <time>2026-09-01T19:59:10Z</time>
  <course>44.75</course>
  <speed>0.13</speed>
  <fix>3d</fix>
</trkpt>
<trkpt lat="-27.2766814" lon="151.2900636">
  <ele>442.91</ele>
  <time>2026-09-01T19:59:10Z</time>
  <course>190.73</course>
  <speed>0.09486832980505139</speed>
  <fix>3d</fix>
</trkpt>
<trkpt lat="-27.2766814" lon="151.2900632">
  <ele>443.0</ele>
  <time>2026-09-01T19:59:10Z</time>
  <course>44.75</course>
  <speed>0.13</speed>
  <fix>3d</fix>
</trkpt>
<trkpt lat="-27.2766814" lon="151.2900637">
  <ele>442.91</ele>
  <time>2026-09-01T19:59:10Z</time>
  <course>190.72</course>
  <speed>0.09055385138137417</speed>
  <fix>3d</fix>
</trkpt>
<trkpt lat="-27.2766813" lon="151.2900634">
  <ele>443.0</ele>
  <time>2026-09-01T19:59:10Z</time>
  <course>55.87</course>
  <speed>0.11</speed>
  <fix>3d</fix>
</trkpt>
<trkpt lat="-27.2766813" lon="151.2900637">
  <ele>442.9</ele>
  <time>2026-09-01T19:59:10Z</time>
  <course>190.71</course>
  <speed>0.09</speed>
  <fix>3d</fix>
</trkpt>
<trkpt lat="-27.2766813" lon="151.2900634">
  <ele>443.0</ele>
  <time>2026-09-01T19:59:10Z</time>
  <course>55.87</course>
  <speed>0.11</speed>
  <fix>3d</fix>
</trkpt>
<trkpt lat="-27.2766813" lon="151.2900638">
  <ele>442.9</ele>
  <time>2026-09-01T19:59:10Z</time>
  <course>190.71</course>
  <speed>0.08062257748298549</speed>
  <fix>3d</fix>
</trkpt>
<trkpt lat="-27.2766812" lon="151.2900637">
  <ele>442.99</ele>
  <time>2026-09-01T19:59:10Z</time>
  <course>70.86</course>
  <speed>0.09</speed>
  <fix>3d</fix>
</trkpt>
<trkpt lat="-27.2766813" lon="151.2900639">
  <ele>442.9</ele>
  <time>2026-09-01T19:59:10Z</time>
  <course>190.7</course>
  <speed>0.0824621125123532</speed>
  <fix>3d</fix>
</trkpt>
<trkpt lat="-27.2766812" lon="151.2900637">
  <ele>442.99</ele>
  <time>2026-09-01T19:59:10Z</time>
  <course>70.86</course>
  <speed>0.09</speed>
  <fix>3d</fix>
</trkpt>
<trkpt lat="-27.2766814" lon="151.290064">
  <ele>442.9</ele>
  <time>2026-09-01T19:59:10Z</time>
  <course>190.7</course>
  <speed>0.08944271909999159</speed>
  <fix>3d</fix>
</trkpt>
<trkpt lat="-27.2766812" lon="151.2900638">
  <ele>442.99</ele>
  <time>2026-09-01T19:59:10Z</time>
  <course>89.59</course>
  <speed>0.08</speed>
  <fix>3d</fix>
</trkpt>
<trkpt lat="-27.2766813" lon="151.2900641">
  <ele>442.9</ele>
  <time>2026-09-01T19:59:10Z</time>
  <course>190.7</course>
  <speed>0.08602325267042626</speed>
  <fix>3d</fix>
</trkpt>
<trkpt lat="-27.2766812" lon="151.2900638">
  <ele>442.99</ele>
  <time>2026-09-01T19:59:10Z</time>
  <course>89.59</course>
  <speed>0.08</speed>
  <fix>3d</fix>
</trkpt>
<trkpt lat="-27.2766813" lon="151.2900641">
  <ele>442.89</ele>
  <time>2026-09-01T19:59:10Z</time>
  <course>190.71</course>
  <speed>0.09219544457292887</speed>
  <fix>3d</fix>
</trkpt>
<trkpt lat="-27.2766812" lon="151.290064">
  <ele>442.98</ele>
  <time>2026-09-01T19:59:10Z</time>
  <course>109.7</course>
  <speed>0.08</speed>
  <fix>3d</fix>
</trkpt>
<trkpt lat="-27.2766814" lon="151.2900642">
  <ele>442.89</ele>
  <time>2026-09-01T19:59:10Z</time>
  <course>190.72</course>
  <speed>0.1063014581273465</speed>
  <fix>3d</fix>
</trkpt>
<trkpt lat="-27.2766812" lon="151.290064">
  <ele>442.98</ele>
  <time>2026-09-01T19:59:10Z</time>
  <course>109.7</course>
  <speed>0.08</speed>
  <fix>3d</fix>
</trkpt>
<trkpt lat="-27.2766815" lon="151.2900643">
  <ele>442.89</ele>
  <time>2026-09-01T19:59:10Z</time>
  <course>190.73</course>
  <speed>0.10816653826391968</speed>
  <fix>3d</fix>
</trkpt>
<trkpt lat="-27.2766812" lon="151.2900642">
  <ele>442.98</ele>
  <time>2026-09-01T19:59:10Z</time>
  <course>127.55</course>
  <speed>0.09</speed>
  <fix>3d</fix>
</trkpt>
<trkpt lat="-27.2766815" lon="151.2900643">
  <ele>442.89</ele>
  <time>2026-09-01T19:59:10Z</time>
  <course>190.73</course>
  <speed>0.11661903789690602</speed>
  <fix>3d</fix>
</trkpt>
<trkpt lat="-27.2766812" lon="151.2900642">
  <ele>442.98</ele>
  <time>2026-09-01T19:59:10Z</time>
  <course>127.55</course>
  <speed>0.09</speed>
  <fix>3d</fix>
</trkpt>
<trkpt lat="-27.2766816" lon="151.2900644">
  <ele>442.89</ele>
  <time>2026-09-01T19:59:10Z</time>
  <course>190.73</course>
  <speed>0.12083045973594572</speed>
  <fix>3d</fix>
</trkpt>
<trkpt lat="-27.2766813" lon="151.2900643">
  <ele>442.97</ele>
  <time>2026-09-01T19:59:10Z</time>
  <course>141.45</course>
  <speed>0.1</speed>
  <fix>3d</fix>
</trkpt>
<trkpt lat="-27.2766817" lon="151.2900644">
  <ele>442.89</ele>
  <time>2026-09-01T19:59:10Z</time>
  <course>190.73</course>
  <speed>0.13</speed>
  <fix>3d</fix>
</trkpt>
<trkpt lat="-27.2766813" lon="151.2900643">
  <ele>442.97</ele>
  <time>2026-09-01T19:59:10Z</time>
  <course>141.45</course>
  <speed>0.1</speed>
  <fix>3d</fix>
</trkpt>
<trkpt lat="-27.2766818" lon="151.2900645">
  <ele>442.88</ele>
  <time>2026-09-01T19:59:10Z</time>
  <course>190.72</course>
  <speed>0.13601470508735444</speed>
  <fix>3d</fix>
</trkpt>
<trkpt lat="-27.2766815" lon="151.2900644">
  <ele>442.97</ele>
  <time>2026-09-01T19:59:10Z</time>
  <course>151.96</course>
  <speed>0.11</speed>
  <fix>3d</fix>
</trkpt>
<trkpt lat="-27.2766819" lon="151.2900645">
  <ele>442.88</ele>
  <time>2026-09-01T19:59:10Z</time>
  <course>190.73</course>
  <speed>0.14560219778561037</speed>
  <fix>3d</fix>
</trkpt>
<trkpt lat="-27.2766815" lon="151.2900644">
  <ele>442.97</ele>
  <time>2026-09-01T19:59:10Z</time>
  <course>151.96</course>
  <speed>0.11</speed>
  <fix>3d</fix>
</trkpt>
<trkpt lat="-27.276682" lon="151.2900646">
  <ele>442.88</ele>
  <time>2026-09-01T19:59:10Z</time>
  <course>190.73</course>
  <speed>0.14317821063276354</speed>
  <fix>3d</fix>
</trkpt>
<trkpt lat="-27.2766817" lon="151.2900645">
  <ele>442.97</ele>
  <time>2026-09-01T19:59:10Z</time>
  <course>160.07</course>
  <speed>0.12</speed>
  <fix>3d</fix>
</trkpt>
<trkpt lat="-27.2766821" lon="151.2900646">
  <ele>442.88</ele>
  <time>2026-09-01T19:59:10Z</time>
  <course>190.73</course>
  <speed>0.15297058540778355</speed>
  <fix>3d</fix>
</trkpt>
<trkpt lat="-27.2766817" lon="151.2900645">
  <ele>442.97</ele>
  <time>2026-09-01T19:59:10Z</time>
  <course>160.07</course>
  <speed>0.12</speed>
  <fix>3d</fix>
</trkpt>
<trkpt lat="-27.2766823" lon="151.2900646">
  <ele>442.88</ele>
  <time>2026-09-01T19:59:10Z</time>
  <course>190.73</course>
  <speed>0.16124515496597097</speed>
  <fix>3d</fix>
</trkpt>
<trkpt lat="-27.2766819" lon="151.2900646">
  <ele>442.97</ele>
  <time>2026-09-01T19:59:10Z</time>
  <course>166.5</course>
  <speed>0.13</speed>
  <fix>3d</fix>
</trkpt>
<trkpt lat="-27.2766824" lon="151.2900646">
  <ele>442.88</ele>
  <time>2026-09-01T19:59:10Z</time>
  <course>190.73</course>
  <speed>0.16124515496597097</speed>
  <fix>3d</fix>
</trkpt>
<trkpt lat="-27.2766819" lon="151.2900646">
  <ele>442.97</ele>
  <time>2026-09-01T19:59:10Z</time>
  <course>166.5</course>
  <speed>0.13</speed>
  <fix>3d</fix>
</trkpt>
<trkpt lat="-27.2766825" lon="151.2900647">
  <ele>442.88</ele>
  <time>2026-09-01T19:59:10Z</time>
  <course>190.73</course>
  <speed>0.16031219541881397</speed>
  <fix>3d</fix>
</trkpt>
<trkpt lat="-27.2766821" lon="151.2900646">
  <ele>442.97</ele>
  <time>2026-09-01T19:59:10Z</time>
  <course>171.73</course>
  <speed>0.15</speed>
  <fix>3d</fix>
</trkpt>
<trkpt lat="-27.2766827" lon="151.2900647">
  <ele>442.88</ele>
  <time>2026-09-01T19:59:10Z</time>
  <course>190.72</course>
  <speed>0.17029386365926402</speed>
  <fix>3d</fix>
</trkpt>
<trkpt lat="-27.2766821" lon="151.2900646">
  <ele>442.97</ele>
  <time>2026-09-01T19:59:10Z</time>
  <course>171.73</course>
  <speed>0.15</speed>
  <fix>3d</fix>
</trkpt>
<trkpt lat="-27.2766828" lon="151.2900647">
  <ele>442.88</ele>
  <time>2026-09-01T19:59:10Z</time>
  <course>190.72</course>
  <speed>0.17</speed>
  <fix>3d</fix>
</trkpt>
<trkpt lat="-27.2766824" lon="151.2900646">
  <ele>442.97</ele>
  <time>2026-09-01T19:59:10Z</time>
  <course>176.23</course>
  <speed>0.15</speed>
  <fix>3d</fix>
</trkpt>
<trkpt lat="-27.2766829" lon="151.2900647">
  <ele>442.88</ele>
  <time>2026-09-01T19:59:10Z</time>
  <course>190.72</course>
  <speed>0.17</speed>
  <fix>3d</fix>
</trkpt>
<trkpt lat="-27.2766824" lon="151.2900646">
  <ele>442.97</ele>
  <time>2026-09-01T19:59:10Z</time>
  <course>176.23</course>
  <speed>0.15</speed>
  <fix>3d</fix>
</trkpt>
<trkpt lat="-27.2766831" lon="151.2900647">
  <ele>442.88</ele>
  <time>2026-09-01T19:59:10Z</time>
  <course>190.72</course>
  <speed>0.17</speed>
  <fix>3d</fix>
</trkpt>
<trkpt lat="-27.2766827" lon="151.2900646">
  <ele>442.97</ele>
  <time>2026-09-01T19:59:10Z</time>
  <course>180.28</course>
  <speed>0.16</speed>
  <fix>3d</fix>
</trkpt>
<trkpt lat="-27.2766832" lon="151.2900646">
  <ele>442.88</ele>
  <time>2026-09-01T19:59:10Z</time>
  <course>190.72</course>
  <speed>0.17</speed>
  <fix>3d</fix>
</trkpt>
<trkpt lat="-27.2766827" lon="151.2900646">
  <ele>442.97</ele>
  <time>2026-09-01T19:59:10Z</time>
  <course>180.28</course>
  <speed>0.16</speed>
  <fix>3d</fix>
</trkpt>
<trkpt lat="-27.2766834" lon="151.2900646">
  <ele>442.88</ele>
  <time>2026-09-01T19:59:10Z</time>
  <course>190.72</course>
  <speed>0.17029386365926402</speed>
  <fix>3d</fix>
</trkpt>
<trkpt lat="-27.276683" lon="151.2900646">
  <ele>442.97</ele>
  <time>2026-09-01T19:59:10Z</time>
  <course>183.96</course>
  <speed>0.16</speed>
  <fix>3d</fix>
</trkpt>
<trkpt lat="-27.2766835" lon="151.2900646">
  <ele>442.88</ele>
  <time>2026-09-01T19:59:10Z</time>
  <course>190.73</course>
  <speed>0.17029386365926402</speed>
  <fix>3d</fix>
</trkpt>
<trkpt lat="-27.276683" lon="151.2900646">
  <ele>442.97</ele>
  <time>2026-09-01T19:59:10Z</time>
  <course>183.96</course>
  <speed>0.16</speed>
  <fix>3d</fix>
</trkpt>
<trkpt lat="-27.2766836" lon="151.2900646">
  <ele>442.89</ele>
  <time>2026-09-01T19:59:10Z</time>
  <course>190.73</course>
  <speed>0.1711724276862369</speed>
  <fix>3d</fix>
</trkpt>
<trkpt lat="-27.2766833" lon="151.2900646">
  <ele>442.98</ele>
  <time>2026-09-01T19:59:10Z</time>
  <course>187.34</course>
  <speed>0.16</speed>
  <fix>3d</fix>
</trkpt>
<trkpt lat="-27.2766838" lon="151.2900646">
  <ele>442.89</ele>
  <time>2026-09-01T19:59:10Z</time>
  <course>190.73</course>
  <speed>0.16124515496597097</speed>
  <fix>3d</fix>
</trkpt>
<trkpt lat="-27.2766833" lon="151.2900646">
  <ele>442.98</ele>
  <time>2026-09-01T19:59:10Z</time>
  <course>187.34</course>
  <speed>0.16</speed>
  <fix>3d</fix>
</trkpt>
<trkpt lat="-27.2766839" lon="151.2900646">
  <ele>442.88</ele>
  <time>2026-09-01T19:59:10Z</time>
  <course>190.73</course>
  <speed>0.16124515496597097</speed>
  <fix>3d</fix>
</trkpt>
<trkpt lat="-27.2766836" lon="151.2900646">
  <ele>442.98</ele>
  <time>2026-09-01T19:59:10Z</time>
  <course>190.44</course>
  <speed>0.16</speed>
  <fix>3d</fix>
</trkpt>
<trkpt lat="-27.2766841" lon="151.2900646">
  <ele>442.88</ele>
  <time>2026-09-01T19:59:10Z</time>
  <course>190.73</course>
  <speed>0.16278820596099705</speed>
  <fix>3d</fix>
</trkpt>
<trkpt lat="-27.2766836" lon="151.2900646">
  <ele>442.98</ele>
  <time>2026-09-01T19:59:10Z</time>
  <course>190.44</course>
  <speed>0.16</speed>
  <fix>3d</fix>
</trkpt>
<trkpt lat="-27.2766842" lon="151.2900645">
  <ele>442.88</ele>
  <time>2026-09-01T19:59:10Z</time>
  <course>190.73</course>
  <speed>0.15297058540778355</speed>
  <fix>3d</fix>
</trkpt>
<trkpt lat="-27.2766839" lon="151.2900646">
  <ele>442.98</ele>
  <time>2026-09-01T19:59:10Z</time>
  <course>193.27</course>
  <speed>0.15</speed>
  <fix>3d</fix>
</trkpt>
<trkpt lat="-27.2766843" lon="151.2900645">
  <ele>442.88</ele>
  <time>2026-09-01T19:59:10Z</time>
  <course>190.73</course>
  <speed>0.14317821063276354</speed>
  <fix>3d</fix>
</trkpt>
<trkpt lat="-27.2766839" lon="151.2900646">
  <ele>442.98</ele>
  <time>2026-09-01T19:59:10Z</time>
  <course>193.27</course>
  <speed>0.15</speed>
  <fix>3d</fix>
</trkpt>
<trkpt lat="-27.2766844" lon="151.2900645">
  <ele>442.88</ele>
  <time>2026-09-01T19:59:10Z</time>
  <course>190.73</course>
  <speed>0.14317821063276354</speed>
  <fix>3d</fix>
</trkpt>
<trkpt lat="-27.2766841" lon="151.2900645">
  <ele>442.98</ele>
  <time>2026-09-01T19:59:10Z</time>
  <course>196.06</course>
  <speed>0.15</speed>
  <fix>3d</fix>
</trkpt>
<trkpt lat="-27.2766845" lon="151.2900644">
  <ele>442.88</ele>
  <time>2026-09-01T19:59:10Z</time>
  <course>190.73</course>
  <speed>0.13341664064126335</speed>
  <fix>3d</fix>
</trkpt>
<trkpt lat="-27.2766841" lon="151.2900645">
  <ele>442.98</ele>
  <time>2026-09-01T19:59:10Z</time>
  <course>196.06</course>
  <speed>0.15</speed>
  <fix>3d</fix>
</trkpt>
<trkpt lat="-27.2766847" lon="151.2900644">
  <ele>442.88</ele>
  <time>2026-09-01T19:59:10Z</time>
  <course>190.72</course>
  <speed>0.13601470508735444</speed>
  <fix>3d</fix>
</trkpt>
<trkpt lat="-27.2766844" lon="151.2900644">
  <ele>442.98</ele>
  <time>2026-09-01T19:59:10Z</time>
  <course>199.15</course>
  <speed>0.14</speed>
  <fix>3d</fix>
</trkpt>
<trkpt lat="-27.2766848" lon="151.2900643">
  <ele>442.88</ele>
  <time>2026-09-01T19:59:10Z</time>
  <course>190.72</course>
  <speed>0.1264911064067352</speed>
  <fix>3d</fix>
</trkpt>
<trkpt lat="-27.2766844" lon="151.2900644">
  <ele>442.98</ele>
  <time>2026-09-01T19:59:10Z</time>
  <course>199.15</course>
  <speed>0.14</speed>
  <fix>3d</fix>
</trkpt>
<trkpt lat="-27.2766849" lon="151.2900643">
  <ele>442.88</ele>
  <time>2026-09-01T19:59:10Z</time>
  <course>190.72</course>
  <speed>0.11704699910719625</speed>
  <fix>3d</fix>
</trkpt>
<trkpt lat="-27.2766846" lon="151.2900643">
  <ele>442.98</ele>
  <time>2026-09-01T19:59:10Z</time>
  <course>202.86</course>
  <speed>0.13</speed>
  <fix>3d</fix>
</trkpt>
<trkpt lat="-27.2766849" lon="151.2900642">
  <ele>442.88</ele>
  <time>2026-09-01T19:59:10Z</time>
  <course>190.72</course>
  <speed>0.10770329614269007</speed>
  <fix>3d</fix>
</trkpt>
<trkpt lat="-27.2766846" lon="151.2900643">
  <ele>442.98</ele>
  <time>2026-09-01T19:59:10Z</time>
  <course>202.86</course>
  <speed>0.13</speed>
  <fix>3d</fix>
</trkpt>
<trkpt lat="-27.276685" lon="151.2900642">
  <ele>442.88</ele>
  <time>2026-09-01T19:59:10Z</time>
  <course>190.72</course>
  <speed>0.09848857801796104</speed>
  <fix>3d</fix>
</trkpt>
<trkpt lat="-27.2766848" lon="151.2900642">
  <ele>442.98</ele>
  <time>2026-09-01T19:59:10Z</time>
  <course>207.3</course>
  <speed>0.11</speed>
  <fix>3d</fix>
</trkpt>
<trkpt lat="-27.2766851" lon="151.2900641">
  <ele>442.88</ele>
  <time>2026-09-01T19:59:10Z</time>
  <course>190.73</course>
  <speed>0.09848857801796104</speed>
  <fix>3d</fix>
</trkpt>
<trkpt lat="-27.2766848" lon="151.2900642">
  <ele>442.98</ele>
  <time>2026-09-01T19:59:10Z</time>
  <course>207.3</course>
  <speed>0.11</speed>
  <fix>3d</fix>
</trkpt>
<trkpt lat="-27.2766852" lon="151.2900641">
  <ele>442.88</ele>
  <time>2026-09-01T19:59:10Z</time>
  <course>190.73</course>
  <speed>0.08944271909999159</speed>
  <fix>3d</fix>
</trkpt>
<trkpt lat="-27.276685" lon="151.2900641">
  <ele>442.98</ele>
  <time>2026-09-01T19:59:10Z</time>
  <course>212.55</course>
  <speed>0.1</speed>
  <fix>3d</fix>
</trkpt>
<trkpt lat="-27.2766852" lon="151.290064">
  <ele>442.88</ele>
  <time>2026-09-01T19:59:10Z</time>
  <course>190.73</course>
  <speed>0.08062257748298549</speed>
  <fix>3d</fix>
</trkpt>
<trkpt lat="-27.276685" lon="151.2900641">
  <ele>442.98</ele>
  <time>2026-09-01T19:59:10Z</time>
  <course>212.55</course>
  <speed>0.1</speed>
  <fix>3d</fix>
</trkpt>
<trkpt lat="-27.2766853" lon="151.290064">
  <ele>442.89</ele>
  <time>2026-09-01T19:59:10Z</time>
  <course>190.73</course>
  <speed>0.07211102550927978</speed>
  <fix>3d</fix>
</trkpt>
<trkpt lat="-27.2766851" lon="151.290064">
  <ele>442.98</ele>
  <time>2026-09-01T19:59:10Z</time>
  <course>218.93</course>
  <speed>0.09</speed>
  <fix>3d</fix>
</trkpt>
<trkpt lat="-27.2766853" lon="151.2900639">
  <ele>442.89</ele>
  <time>2026-09-01T19:59:10Z</time>
  <course>190.73</course>
  <speed>0.06403124237432849</speed>
  <fix>3d</fix>
</trkpt>
<trkpt lat="-27.2766851" lon="151.290064">
  <ele>442.98</ele>
  <time>2026-09-01T19:59:10Z</time>
  <course>218.93</course>
  <speed>0.09</speed>
  <fix>3d</fix>
</trkpt>
<trkpt lat="-27.2766854" lon="151.2900639">
  <ele>442.89</ele>
  <time>2026-09-01T19:59:10Z</time>
  <course>190.73</course>
  <speed>0.0565685424949238</speed>
  <fix>3d</fix>
</trkpt>
<trkpt lat="-27.2766852" lon="151.2900639">
  <ele>442.98</ele>
  <time>2026-09-01T19:59:10Z</time>
  <course>227.14</course>
  <speed>0.08</speed>
  <fix>3d</fix>
</trkpt>
<trkpt lat="-27.2766854" lon="151.2900638">
  <ele>442.89</ele>
  <time>2026-09-01T19:59:10Z</time>
  <course>190.74</course>
  <speed>0.05</speed>
  <fix>3d</fix>
</trkpt>
<trkpt lat="-27.2766852" lon="151.2900639">
  <ele>442.98</ele>
  <time>2026-09-01T19:59:10Z</time>
  <course>227.14</course>
  <speed>0.08</speed>
  <fix>3d</fix>
</trkpt>
<trkpt lat="-27.2766854" lon="151.2900638">
  <ele>442.89</ele>
  <time>2026-09-01T19:59:10Z</time>
  <course>190.74</course>
  <speed>0.03605551275463989</speed>
  <fix>3d</fix>
</trkpt>
<trkpt lat="-27.2766853" lon="151.2900637">
  <ele>442.98</ele>
  <time>2026-09-01T19:59:10Z</time>
  <course>238.02</course>
  <speed>0.06</speed>
  <fix>3d</fix>
</trkpt>
<trkpt lat="-27.2766854" lon="151.2900637">
  <ele>442.89</ele>
  <time>2026-09-01T19:59:10Z</time>
  <course>190.74</course>
  <speed>0.03605551275463989</speed>
  <fix>3d</fix>
</trkpt>
<trkpt lat="-27.2766853" lon="151.2900637">
  <ele>442.98</ele>
  <time>2026-09-01T19:59:10Z</time>
  <course>238.02</course>
  <speed>0.06</speed>
  <fix>3d</fix>
</trkpt>
<trkpt lat="-27.2766854" lon="151.2900637">
  <ele>442.89</ele>
  <time>2026-09-01T19:59:10Z</time>
  <course>190.74</course>
  <speed>0.0316227766016838</speed>
  <fix>3d</fix>
</trkpt>
<trkpt lat="-27.2766854" lon="151.2900636">
  <ele>442.99</ele>
  <time>2026-09-01T19:59:10Z</time>
  <course>252.37</course>
  <speed>0.05</speed>
  <fix>3d</fix>
</trkpt>
<trkpt lat="-27.2766854" lon="151.2900636">
  <ele>442.89</ele>
  <time>2026-09-01T19:59:10Z</time>
  <course>190.74</course>
  <speed>0.03</speed>
  <fix>3d</fix>
</trkpt>
<trkpt lat="-27.2766854" lon="151.2900636">
  <ele>442.99</ele>
  <time>2026-09-01T19:59:10Z</time>
  <course>252.37</course>
  <speed>0.05</speed>
  <fix>3d</fix>
</trkpt>
<trkpt lat="-27.2766854" lon="151.2900636">
  <ele>442.89</ele>
  <time>2026-09-01T19:59:10Z</time>
  <course>190.73</course>
  <speed>0.03</speed>
  <fix>3d</fix>
</trkpt>
<trkpt lat="-27.2766854" lon="151.2900635">
  <ele>442.99</ele>
  <time>2026-09-01T19:59:10Z</time>
  <course>269.9</course>
  <speed>0.05</speed>
  <fix>3d</fix>
</trkpt>
<trkpt lat="-27.2766854" lon="151.2900635">
  <ele>442.89</ele>
  <time>2026-09-01T19:59:10Z</time>
  <course>190.72</course>
  <speed>0.02</speed>
  <fix>3d</fix>
</trkpt>
<trkpt lat="-27.2766854" lon="151.2900635">
  <ele>442.99</ele>
  <time>2026-09-01T19:59:10Z</time>
  <course>269.9</course>
  <speed>0.05</speed>
  <fix>3d</fix>
</trkpt>
<trkpt lat="-27.2766854" lon="151.2900635">
  <ele>442.89</ele>
  <time>2026-09-01T19:59:10Z</time>
  <course>190.71</course>
  <speed>0.022360679774997897</speed>
  <fix>3d</fix>
</trkpt>
<trkpt lat="-27.2766854" lon="151.2900634">
  <ele>442.99</ele>
  <time>2026-09-01T19:59:10Z</time>
  <course>287.94</course>
  <speed>0.04</speed>
  <fix>3d</fix>
</trkpt>
<trkpt lat="-27.2766854" lon="151.2900635">
  <ele>442.89</ele>
  <time>2026-09-01T19:59:10Z</time>
  <course>190.7</course>
  <speed>0.0282842712474619</speed>
  <fix>3d</fix>
</trkpt>
<trkpt lat="-27.2766854" lon="151.2900634">
  <ele>442.99</ele>
  <time>2026-09-01T19:59:10Z</time>
  <course>287.94</course>
  <speed>0.04</speed>
  <fix>3d</fix>
</trkpt>
<trkpt lat="-27.2766853" lon="151.2900634">
  <ele>442.89</ele>
  <time>2026-09-01T19:59:10Z</time>
  <course>190.7</course>
  <speed>0.0282842712474619</speed>
  <fix>3d</fix>
</trkpt>
<trkpt lat="-27.2766854" lon="151.2900633">
  <ele>442.98</ele>
  <time>2026-09-01T19:59:10Z</time>
  <course>303.96</course>
  <speed>0.05</speed>
  <fix>3d</fix>
</trkpt>
<trkpt lat="-27.2766853" lon="151.2900634">
  <ele>442.89</ele>
  <time>2026-09-01T19:59:10Z</time>
  <course>190.69</course>
  <speed>0.0316227766016838</speed>
  <fix>3d</fix>
</trkpt>
<trkpt lat="-27.2766854" lon="151.2900633">
  <ele>442.98</ele>
  <time>2026-09-01T19:59:10Z</time>
  <course>303.96</course>
  <speed>0.05</speed>
  <fix>3d</fix>
</trkpt>
<trkpt lat="-27.2766853" lon="151.2900634">
  <ele>442.89</ele>
  <time>2026-09-01T19:59:10Z</time>
  <course>190.69</course>
  <speed>0.0316227766016838</speed>
  <fix>3d</fix>
</trkpt>
<trkpt lat="-27.2766854" lon="151.2900632">
  <ele>442.98</ele>
  <time>2026-09-01T19:59:10Z</time>
  <course>317.42</course>
  <speed>0.05</speed>
  <fix>3d</fix>
</trkpt>
<trkpt lat="-27.2766853" lon="151.2900633">
  <ele>442.88</ele>
  <time>2026-09-01T19:59:10Z</time>
  <course>190.69</course>
  <speed>0.0316227766016838</speed>
  <fix>3d</fix>
</trkpt>
<trkpt lat="-27.2766854" lon="151.2900632">
  <ele>442.98</ele>
  <time>2026-09-01T19:59:10Z</time>
  <course>317.42</course>
  <speed>0.05</speed>
  <fix>3d</fix>
</trkpt>
<trkpt lat="-27.2766853" lon="151.2900633">
  <ele>442.89</ele>
  <time>2026-09-01T19:59:10Z</time>
  <course>190.71</course>
  <speed>0.04</speed>
  <fix>3d</fix>
</trkpt>
<trkpt lat="-27.2766853" lon="151.2900632">
  <ele>442.98</ele>
  <time>2026-09-01T19:59:10Z</time>
  <course>328.41</course>
  <speed>0.05</speed>
  <fix>3d</fix>
</trkpt>
<trkpt lat="-27.2766852" lon="151.2900633">
  <ele>442.89</ele>
  <time>2026-09-01T19:59:10Z</time>
  <course>190.73</course>
  <speed>0.04</speed>
  <fix>3d</fix>
</trkpt>
<trkpt lat="-27.2766853" lon="151.2900632">
  <ele>442.98</ele>
  <time>2026-09-01T19:59:10Z</time>
  <course>328.41</course>
  <speed>0.05</speed>
  <fix>3d</fix>
</trkpt>
<trkpt lat="-27.2766852" lon="151.2900633">
  <ele>442.89</ele>
  <time>2026-09-01T19:59:10Z</time>
  <course>190.74</course>
  <speed>0.04</speed>
  <fix>3d</fix>
</trkpt>
<trkpt lat="-27.2766852" lon="151.2900632">
  <ele>442.98</ele>
  <time>2026-09-01T19:59:10Z</time>
  <course>337.12</course>
  <speed>0.06</speed>
  <fix>3d</fix>
</trkpt>
<trkpt lat="-27.2766851" lon="151.2900632">
  <ele>442.89</ele>
  <time>2026-09-01T19:59:10Z</time>
  <course>190.74</course>
  <speed>0.05</speed>
  <fix>3d</fix>
</trkpt>
<trkpt lat="-27.2766852" lon="151.2900632">
  <ele>442.98</ele>
  <time>2026-09-01T19:59:10Z</time>
  <course>337.12</course>
  <speed>0.06</speed>
  <fix>3d</fix>
</trkpt>
<trkpt lat="-27.2766851" lon="151.2900632">
  <ele>442.89</ele>
  <time>2026-09-01T19:59:10Z</time>
  <course>190.73</course>
  <speed>0.05</speed>
  <fix>3d</fix>
</trkpt>
<trkpt lat="-27.2766851" lon="151.2900631">
  <ele>442.98</ele>
  <time>2026-09-01T19:59:10Z</time>
  <course>344.16</course>
  <speed>0.06</speed>
  <fix>3d</fix>
</trkpt>
<trkpt lat="-27.276685" lon="151.2900632">
  <ele>442.89</ele>
  <time>2026-09-01T19:59:10Z</time>
  <course>190.72</course>
  <speed>0.05</speed>
  <fix>3d</fix>
</trkpt>
<trkpt lat="-27.2766851" lon="151.2900631">
  <ele>442.98</ele>
  <time>2026-09-01T19:59:10Z</time>
  <course>344.16</course>
  <speed>0.06</speed>
  <fix>3d</fix>
</trkpt>
<trkpt lat="-27.276685" lon="151.2900632">
  <ele>442.89</ele>
  <time>2026-09-01T19:59:10Z</time>
  <course>190.72</course>
  <speed>0.05099019513592785</speed>
  <fix>3d</fix>
</trkpt>
<trkpt lat="-27.276685" lon="151.2900631">
  <ele>442.98</ele>
  <time>2026-09-01T19:59:10Z</time>
  <course>350.21</course>
  <speed>0.07</speed>
  <fix>3d</fix>
</trkpt>
<trkpt lat="-27.2766849" lon="151.2900632">
  <ele>442.89</ele>
  <time>2026-09-01T19:59:11Z</time>
  <course>190.72</course>
  <speed>0.05099019513592785</speed>
  <fix>3d</fix>
</trkpt>
<trkpt lat="-27.276685" lon="151.2900631">
  <ele>442.98</ele>
  <time>2026-09-01T19:59:11Z</time>
  <course>350.21</course>
  <speed>0.07</speed>
  <fix>3d</fix>
</trkpt>
<trkpt lat="-27.2766849" lon="151.2900632">
  <ele>442.89</ele>
  <time>2026-09-01T19:59:11Z</time>
  <course>190.72</course>
  <speed>0.0412310562561766</speed>
  <fix>3d</fix>
</trkpt>
<trkpt lat="-27.2766848" lon="151.2900631">
  <ele>442.98</ele>
  <time>2026-09-01T19:59:11Z</time>
  <course>355.48</course>
  <speed>0.07</speed>
  <fix>3d</fix>
</trkpt>
<trkpt lat="-27.2766848" lon="151.2900632">
  <ele>442.89</ele>
  <time>2026-09-01T19:59:11Z</time>
  <course>190.72</course>
  <speed>0.0</speed>
  <fix>3d</fix>
</trkpt>
<trkpt lat="-27.2766848" lon="151.2900631">
  <ele>442.98</ele>
  <time>2026-09-01T19:59:11Z</time>
  <course>355.48</course>
  <speed>0.07</speed>
  <fix>3d</fix>
</trkpt>
<trkpt lat="-27.2766849" lon="151.2900632">
  <ele>442.89</ele>
  <time>2026-09-01T19:59:11Z</time>
  <course>190.67</course>
  <speed>0.11</speed>
  <fix>3d</fix>
</trkpt>
<trkpt lat="-27.2766847" lon="151.2900631">
  <ele>442.98</ele>
  <time>2026-09-01T19:59:11Z</time>
  <course>353.88</course>
  <speed>0.04</speed>
  <fix>3d</fix>
</trkpt>
<trkpt lat="-27.2766849" lon="151.2900632">
  <ele>442.89</ele>
  <time>2026-09-01T19:59:11Z</time>
  <course>190.63</course>
  <speed>0.2816025568065745</speed>
  <fix>3d</fix>
</trkpt>
<trkpt lat="-27.2766847" lon="151.2900631">
  <ele>442.98</ele>
  <time>2026-09-01T19:59:11Z</time>
  <course>353.88</course>
  <speed>0.04</speed>
  <fix>3d</fix>
</trkpt>
<trkpt lat="-27.2766853" lon="151.2900631">
  <ele>442.89</ele>
  <time>2026-09-01T19:59:11Z</time>
  <course>190.62</course>
  <speed>0.51478150704935</speed>
  <fix>3d</fix>
</trkpt>
<trkpt lat="-27.2766847" lon="151.290063">
  <ele>442.98</ele>
  <time>2026-09-01T19:59:11Z</time>
  <course>194.26</course>
  <speed>0.11</speed>
  <fix>3d</fix>
</trkpt>
<trkpt lat="-27.2766858" lon="151.290063">
  <ele>442.89</ele>
  <time>2026-09-01T19:59:11Z</time>
  <course>190.69</course>
  <speed>0.8104936767180853</speed>
  <fix>3d</fix>
</trkpt>
<trkpt lat="-27.2766847" lon="151.290063">
  <ele>442.98</ele>
  <time>2026-09-01T19:59:11Z</time>
  <course>194.26</course>
  <speed>0.11</speed>
  <fix>3d</fix>
</trkpt>
<trkpt lat="-27.2766867" lon="151.2900628">
  <ele>442.89</ele>
  <time>2026-09-01T19:59:11Z</time>
  <course>190.85</course>
  <speed>1.1672617529928753</speed>
  <fix>3d</fix>
</trkpt>
<trkpt lat="-27.2766852" lon="151.2900629">
  <ele>442.98</ele>
  <time>2026-09-01T19:59:11Z</time>
  <course>190.97</course>
  <speed>0.51</speed>
  <fix>3d</fix>
</trkpt>
<trkpt lat="-27.2766879" lon="151.2900626">
  <ele>442.89</ele>
  <time>2026-09-01T19:59:11Z</time>
  <course>191.05</course>
  <speed>1.5867261893597142</speed>
  <fix>3d</fix>
</trkpt>
<trkpt lat="-27.2766852" lon="151.2900629">
  <ele>442.98</ele>
  <time>2026-09-01T19:59:11Z</time>
  <course>190.97</course>
  <speed>0.51</speed>
  <fix>3d</fix>
</trkpt>
<trkpt lat="-27.2766895" lon="151.2900622">
  <ele>442.89</ele>
  <time>2026-09-01T19:59:11Z</time>
  <course>191.21</course>
  <speed>2.0573040611440985</speed>
  <fix>3d</fix>
</trkpt>
<trkpt lat="-27.2766866" lon="151.2900626">
  <ele>442.98</ele>
  <time>2026-09-01T19:59:11Z</time>
  <course>191.17</course>
  <speed>1.16</speed>
  <fix>3d</fix>
</trkpt>
<trkpt lat="-27.2766915" lon="151.2900617">
  <ele>442.89</ele>
  <time>2026-09-01T19:59:11Z</time>
  <course>191.5</course>
  <speed>2.590694887477103</speed>
  <fix>3d</fix>
</trkpt>
<trkpt lat="-27.2766866" lon="151.2900626">
  <ele>442.98</ele>
  <time>2026-09-01T19:59:11Z</time>
  <course>191.17</course>
  <speed>1.16</speed>
  <fix>3d</fix>
</trkpt>
<trkpt lat="-27.276694" lon="151.2900611">
  <ele>442.89</ele>
  <time>2026-09-01T19:59:11Z</time>
  <course>191.94</course>
  <speed>3.1890437438203945</speed>
  <fix>3d</fix>
</trkpt>
<trkpt lat="-27.2766894" lon="151.2900619">
  <ele>442.98</ele>
  <time>2026-09-01T19:59:11Z</time>
  <course>191.81</course>
  <speed>2.05</speed>
  <fix>3d</fix>
</trkpt>
<trkpt lat="-27.276697" lon="151.2900603">
  <ele>442.89</ele>
  <time>2026-09-01T19:59:11Z</time>
  <course>192.3</course>
  <speed>3.7919520039156613</speed>
  <fix>3d</fix>
</trkpt>
<trkpt lat="-27.2766894" lon="151.2900619">
  <ele>442.98</ele>
  <time>2026-09-01T19:59:11Z</time>
  <course>191.81</course>
  <speed>2.05</speed>
  <fix>3d</fix>
</trkpt>
<trkpt lat="-27.2767006" lon="151.2900594">
  <ele>442.9</ele>
  <time>2026-09-01T19:59:11Z</time>
  <course>192.8</course>
  <speed>4.409591817844369</speed>
  <fix>3d</fix>
</trkpt>
<trkpt lat="-27.276694" lon="151.2900609">
  <ele>442.98</ele>
  <time>2026-09-01T19:59:11Z</time>
  <course>192.74</course>
  <speed>3.15</speed>
  <fix>3d</fix>
</trkpt>
<trkpt lat="-27.2767047" lon="151.2900582">
  <ele>442.9</ele>
  <time>2026-09-01T19:59:11Z</time>
  <course>193.42</course>
  <speed>5.0132324901205205</speed>
  <fix>3d</fix>
</trkpt>
<trkpt lat="-27.276694" lon="151.2900609">
  <ele>442.98</ele>
  <time>2026-09-01T19:59:11Z</time>
  <course>192.74</course>
  <speed>3.15</speed>
  <fix>3d</fix>
</trkpt>
<trkpt lat="-27.2767091" lon="151.2900569">
  <ele>442.91</ele>
  <time>2026-09-01T19:59:11Z</time>
  <course>194.12</course>
  <speed>5.613198731561177</speed>
  <fix>3d</fix>
</trkpt>
<trkpt lat="-27.2767006" lon="151.2900591">
  <ele>442.99</ele>
  <time>2026-09-01T19:59:11Z</time>
  <course>193.94</course>
  <speed>4.37</speed>
  <fix>3d</fix>
</trkpt>
<trkpt lat="-27.2767142" lon="151.2900553">
  <ele>442.91</ele>
  <time>2026-09-01T19:59:11Z</time>
  <course>195.09</course>
  <speed>6.219686487275705</speed>
  <fix>3d</fix>
</trkpt>
<trkpt lat="-27.2767006" lon="151.2900591">
  <ele>442.99</ele>
  <time>2026-09-01T19:59:11Z</time>
  <course>193.94</course>
  <speed>4.37</speed>
  <fix>3d</fix>
</trkpt>
<trkpt lat="-27.2767197" lon="151.2900534">
  <ele>442.92</ele>
  <time>2026-09-01T19:59:11Z</time>
  <course>196.14</course>
  <speed>6.816927460373919</speed>
  <fix>3d</fix>
</trkpt>
<trkpt lat="-27.2767092" lon="151.2900565">
  <ele>443.0</ele>
  <time>2026-09-01T19:59:11Z</time>
  <course>195.49</course>
  <speed>5.59</speed>
  <fix>3d</fix>
</trkpt>
<trkpt lat="-27.2767257" lon="151.2900512">
  <ele>442.93</ele>
  <time>2026-09-01T19:59:11Z</time>
  <course>197.28</course>
  <speed>7.425200333997729</speed>
  <fix>3d</fix>
</trkpt>
<trkpt lat="-27.2767092" lon="151.2900565">
  <ele>443.0</ele>
  <time>2026-09-01T19:59:11Z</time>
  <course>195.49</course>
  <speed>5.59</speed>
  <fix>3d</fix>
</trkpt>
<trkpt lat="-27.2767322" lon="151.2900487">
  <ele>442.94</ele>
  <time>2026-09-01T19:59:11Z</time>
  <course>198.44</course>
  <speed>8.029875466033081</speed>
  <fix>3d</fix>
</trkpt>
<trkpt lat="-27.2767199" lon="151.2900529">
  <ele>443.02</ele>
  <time>2026-09-01T19:59:11Z</time>
  <course>197.39</course>
  <speed>6.8</speed>
  <fix>3d</fix>
</trkpt>
<trkpt lat="-27.2767391" lon="151.2900459">
  <ele>442.95</ele>
  <time>2026-09-01T19:59:11Z</time>
  <course>199.64</course>
  <speed>8.625937630194182</speed>
  <fix>3d</fix>
</trkpt>
<trkpt lat="-27.2767199" lon="151.2900529">
  <ele>443.02</ele>
  <time>2026-09-01T19:59:11Z</time>
  <course>197.39</course>
  <speed>6.8</speed>
  <fix>3d</fix>
</trkpt>
<trkpt lat="-27.2767465" lon="151.2900426">
  <ele>442.96</ele>
  <time>2026-09-01T19:59:11Z</time>
  <course>200.89</course>
  <speed>9.212350405841063</speed>
  <fix>3d</fix>
</trkpt>
<trkpt lat="-27.2767326" lon="151.2900482">
  <ele>443.03</ele>
  <time>2026-09-01T19:59:11Z</time>
  <course>199.59</course>
  <speed>8.02</speed>
  <fix>3d</fix>
</trkpt>
<trkpt lat="-27.2767543" lon="151.2900389">
  <ele>442.97</ele>
  <time>2026-09-01T19:59:11Z</time>
  <course>202.12</course>
  <speed>9.796780083272258</speed>
  <fix>3d</fix>
</trkpt>
<trkpt lat="-27.2767326" lon="151.2900482">
  <ele>443.03</ele>
  <time>2026-09-01T19:59:11Z</time>
  <course>199.59</course>
  <speed>8.02</speed>
  <fix>3d</fix>
</trkpt>
<trkpt lat="-27.2767624" lon="151.2900348">
  <ele>442.98</ele>
  <time>2026-09-01T19:59:11Z</time>
  <course>203.53</course>
  <speed>10.362610674921644</speed>
  <fix>3d</fix>
</trkpt>
<trkpt lat="-27.276747" lon="151.2900419">
  <ele>443.05</ele>
  <time>2026-09-01T19:59:11Z</time>
  <course>202.13</course>
  <speed>9.21</speed>
  <fix>3d</fix>
</trkpt>
<trkpt lat="-27.276771" lon="151.2900301">
  <ele>442.99</ele>
  <time>2026-09-01T19:59:11Z</time>
  <course>205.03</course>
  <speed>10.916638676808903</speed>
  <fix>3d</fix>
</trkpt>
<trkpt lat="-27.276747" lon="151.2900419">
  <ele>443.05</ele>
  <time>2026-09-01T19:59:11Z</time>
  <course>202.13</course>
  <speed>9.21</speed>
  <fix>3d</fix>
</trkpt>
<trkpt lat="-27.2767799" lon="151.290025">
  <ele>443.01</ele>
  <time>2026-09-01T19:59:11Z</time>
  <course>206.58</course>
  <speed>11.464820103255</speed>
  <fix>3d</fix>
</trkpt>
<trkpt lat="-27.2767631" lon="151.290034">
  <ele>443.07</ele>
  <time>2026-09-01T19:59:11Z</time>
  <course>204.94</course>
  <speed>10.37</speed>
  <fix>3d</fix>
</trkpt>
<trkpt lat="-27.2767891" lon="151.2900193">
  <ele>443.03</ele>
  <time>2026-09-01T19:59:11Z</time>
  <course>208.11</course>
  <speed>11.990700563353252</speed>
  <fix>3d</fix>
</trkpt>
<trkpt lat="-27.2767631" lon="151.290034">
  <ele>443.07</ele>
  <time>2026-09-01T19:59:11Z</time>
  <course>204.94</course>
  <speed>10.37</speed>
  <fix>3d</fix>
</trkpt>
<trkpt lat="-27.2767986" lon="151.290013">
  <ele>443.05</ele>
  <time>2026-09-01T19:59:11Z</time>
  <course>209.66</course>
  <speed>12.509108681277016</speed>
  <fix>3d</fix>
</trkpt>
<trkpt lat="-27.2767807" lon="151.2900242">
  <ele>443.09</ele>
  <time>2026-09-01T19:59:11Z</time>
  <course>207.94</course>
  <speed>11.48</speed>
  <fix>3d</fix>
</trkpt>
<trkpt lat="-27.2768083" lon="151.2900063">
  <ele>443.08</ele>
  <time>2026-09-01T19:59:11Z</time>
  <course>211.21</course>
  <speed>13.016163029095788</speed>
  <fix>3d</fix>
</trkpt>
<trkpt lat="-27.2767807" lon="151.2900242">
  <ele>443.09</ele>
  <time>2026-09-01T19:59:11Z</time>
  <course>207.94</course>
  <speed>11.48</speed>
  <fix>3d</fix>
</trkpt>
<trkpt lat="-27.2768183" lon="151.2899989">
  <ele>443.11</ele>
  <time>2026-09-01T19:59:11Z</time>
  <course>212.7</course>
  <speed>13.512719933455292</speed>
  <fix>3d</fix>
</trkpt>
<trkpt lat="-27.2767995" lon="151.2900123">
  <ele>443.13</ele>
  <time>2026-09-01T19:59:11Z</time>
  <course>211.02</course>
  <speed>12.53</speed>
  <fix>3d</fix>
</trkpt>
<trkpt lat="-27.2768284" lon="151.289991">
  <ele>443.15</ele>
  <time>2026-09-01T19:59:11Z</time>
  <course>214.12</course>
  <speed>13.9799427752763</speed>
  <fix>3d</fix>
</trkpt>
<trkpt lat="-27.2767995" lon="151.2900123">
  <ele>443.13</ele>
  <time>2026-09-01T19:59:11Z</time>
  <course>211.02</course>
  <speed>12.53</speed>
  <fix>3d</fix>
</trkpt>
<trkpt lat="-27.2768387" lon="151.2899825">
  <ele>443.19</ele>
  <time>2026-09-01T19:59:11Z</time>
  <course>215.53</course>
  <speed>14.446027135513765</speed>
  <fix>3d</fix>
</trkpt>
<trkpt lat="-27.2768192" lon="151.2899981">
  <ele>443.19</ele>
  <time>2026-09-01T19:59:11Z</time>
  <course>214.08</course>
  <speed>13.53</speed>
  <fix>3d</fix>
</trkpt>
<trkpt lat="-27.2768491" lon="151.2899734">
  <ele>443.23</ele>
  <time>2026-09-01T19:59:11Z</time>
  <course>216.95</course>
  <speed>14.89915769431279</speed>
  <fix>3d</fix>
</trkpt>
<trkpt lat="-27.2768192" lon="151.2899981">
  <ele>443.19</ele>
  <time>2026-09-01T19:59:11Z</time>
  <course>214.08</course>
  <speed>13.53</speed>
  <fix>3d</fix>
</trkpt>
<trkpt lat="-27.2768596" lon="151.2899638">
  <ele>443.28</ele>
  <time>2026-09-01T19:59:11Z</time>
  <course>218.32</course>
  <speed>15.345230529385994</speed>
  <fix>3d</fix>
</trkpt>
<trkpt lat="-27.2768396" lon="151.2899815">
  <ele>443.26</ele>
  <time>2026-09-01T19:59:11Z</time>
  <course>217.02</course>
  <speed>14.47</speed>
  <fix>3d</fix>
</trkpt>
<trkpt lat="-27.2768703" lon="151.2899536">
  <ele>443.32</ele>
  <time>2026-09-01T19:59:11Z</time>
  <course>219.71</course>
  <speed>15.78438785635984</speed>
  <fix>3d</fix>
</trkpt>
<trkpt lat="-27.2768396" lon="151.2899815">
  <ele>443.26</ele>
  <time>2026-09-01T19:59:11Z</time>
  <course>217.02</course>
  <speed>14.47</speed>
  <fix>3d</fix>
</trkpt>
<trkpt lat="-27.276881" lon="151.2899429">
  <ele>443.37</ele>
  <time>2026-09-01T19:59:11Z</time>
  <course>220.96</course>
  <speed>16.181829315624363</speed>
  <fix>3d</fix>
</trkpt>
<trkpt lat="-27.2768607" lon="151.2899628">
  <ele>443.34</ele>
  <time>2026-09-01T19:59:11Z</time>
  <course>219.79</course>
  <speed>15.38</speed>
  <fix>3d</fix>
</trkpt>
<trkpt lat="-27.2768916" lon="151.2899317">
  <ele>443.41</ele>
  <time>2026-09-01T19:59:11Z</time>
  <course>222.06</course>
  <speed>16.530350873469082</speed>
  <fix>3d</fix>
</trkpt>
<trkpt lat="-27.2768607" lon="151.2899628">
  <ele>443.34</ele>
  <time>2026-09-01T19:59:11Z</time>
  <course>219.79</course>
  <speed>15.38</speed>
  <fix>3d</fix>
</trkpt>
<trkpt lat="-27.2769023" lon="151.28992">
  <ele>443.45</ele>
  <time>2026-09-01T19:59:11Z</time>
  <course>223.31</course>
  <speed>16.836332736080028</speed>
  <fix>3d</fix>
</trkpt>
<trkpt lat="-27.2768821" lon="151.2899418">
  <ele>443.42</ele>
  <time>2026-09-01T19:59:11Z</time>
  <course>222.37</course>
  <speed>16.2</speed>
  <fix>3d</fix>
</trkpt>
<trkpt lat="-27.276913" lon="151.2899079">
  <ele>443.49</ele>
  <time>2026-09-01T19:59:11Z</time>
  <course>224.57</course>
  <speed>17.107872456854476</speed>
  <fix>3d</fix>
</trkpt>
<trkpt lat="-27.2768821" lon="151.2899418">
  <ele>443.42</ele>
  <time>2026-09-01T19:59:11Z</time>
  <course>222.37</course>
  <speed>16.2</speed>
  <fix>3d</fix>
</trkpt>
<trkpt lat="-27.2769235" lon="151.2898954">
  <ele>443.53</ele>
  <time>2026-09-01T19:59:11Z</time>
  <course>225.73</course>
  <speed>17.32441052388219</speed>
  <fix>3d</fix>
</trkpt>
<trkpt lat="-27.2769036" lon="151.2899187">
  <ele>443.5</ele>
  <time>2026-09-01T19:59:11Z</time>
  <course>224.87</course>
  <speed>16.87</speed>
  <fix>3d</fix>
</trkpt>
<trkpt lat="-27.276934" lon="151.2898823">
  <ele>443.58</ele>
  <time>2026-09-01T19:59:11Z</time>
  <course>227.05</course>
  <speed>17.52946091584108</speed>
  <fix>3d</fix>
</trkpt>
<trkpt lat="-27.2769036" lon="151.2899187">
  <ele>443.5</ele>
  <time>2026-09-01T19:59:11Z</time>
  <course>224.87</course>
  <speed>16.87</speed>
  <fix>3d</fix>
</trkpt>
<trkpt lat="-27.2769443" lon="151.2898689">
  <ele>443.63</ele>
  <time>2026-09-01T19:59:11Z</time>
  <course>228.35</course>
  <speed>17.707696066964782</speed>
  <fix>3d</fix>
</trkpt>
<trkpt lat="-27.276925" lon="151.2898937">
  <ele>443.57</ele>
  <time>2026-09-01T19:59:11Z</time>
  <course>227.41</course>
  <speed>17.38</speed>
  <fix>3d</fix>
</trkpt>
<trkpt lat="-27.2769544" lon="151.2898551">
  <ele>443.68</ele>
  <time>2026-09-01T19:59:11Z</time>
  <course>229.67</course>
  <speed>17.889731691671624</speed>
  <fix>3d</fix>
</trkpt>
<trkpt lat="-27.276925" lon="151.2898937">
  <ele>443.57</ele>
  <time>2026-09-01T19:59:11Z</time>
  <course>227.41</course>
  <speed>17.38</speed>
  <fix>3d</fix>
</trkpt>
<trkpt lat="-27.2769646" lon="151.2898405">
  <ele>443.73</ele>
  <time>2026-09-01T19:59:11Z</time>
  <course>231.13</course>
  <speed>18.070708342508325</speed>
  <fix>3d</fix>
</trkpt>
<trkpt lat="-27.2769459" lon="151.2898669">
  <ele>443.65</ele>
  <time>2026-09-01T19:59:11Z</time>
  <course>230.0</course>
  <speed>17.79</speed>
  <fix>3d</fix>
</trkpt>
<trkpt lat="-27.2769742" lon="151.289826">
  <ele>443.79</ele>
  <time>2026-09-01T19:59:11Z</time>
  <course>232.64</course>
  <speed>18.24214899621204</speed>
  <fix>3d</fix>
</trkpt>
<trkpt lat="-27.276966" lon="151.2898386">
  <ele>443.76</ele>
  <time>2026-09-01T19:59:11Z</time>
  <course>232.67</course>
  <speed>18.16</speed>
  <fix>3d</fix>
</trkpt>
<trkpt lat="-27.2769838" lon="151.2898108">
  <ele>443.84</ele>
  <time>2026-09-01T19:59:11Z</time>
  <course>234.25</course>
  <speed>18.40394794602506</speed>
  <fix>3d</fix>
</trkpt>
<trkpt lat="-27.276966" lon="151.2898386">
  <ele>443.76</ele>
  <time>2026-09-01T19:59:11Z</time>
  <course>232.67</course>
  <speed>18.16</speed>
  <fix>3d</fix>
</trkpt>
<trkpt lat="-27.276993" lon="151.2897953">
  <ele>443.89</ele>
  <time>2026-09-01T19:59:11Z</time>
  <course>235.92</course>
  <speed>18.578700169818124</speed>
  <fix>3d</fix>
</trkpt>
<trkpt lat="-27.2769854" lon="151.2898085">
  <ele>443.86</ele>
  <time>2026-09-01T19:59:11Z</time>
  <course>235.58</course>
  <speed>18.5</speed>
  <fix>3d</fix>
</trkpt>
<trkpt lat="-27.277002" lon="151.2897792">
  <ele>443.94</ele>
  <time>2026-09-01T19:59:11Z</time>
  <course>237.73</course>
  <speed>18.750085333139154</speed>
  <fix>3d</fix>
</trkpt>
<trkpt lat="-27.2769854" lon="151.2898085">
  <ele>443.86</ele>
  <time>2026-09-01T19:59:11Z</time>
  <course>235.58</course>
  <speed>18.5</speed>
  <fix>3d</fix>
</trkpt>
<trkpt lat="-27.2770106" lon="151.2897626">
  <ele>444.0</ele>
  <time>2026-09-01T19:59:11Z</time>
  <course>239.62</course>
  <speed>18.91700293386878</speed>
  <fix>3d</fix>
</trkpt>
<trkpt lat="-27.2770035" lon="151.2897769">
  <ele>443.96</ele>
  <time>2026-09-01T19:59:11Z</time>
  <course>238.88</course>
  <speed>18.84</speed>
  <fix>3d</fix>
</trkpt>
<trkpt lat="-27.2770186" lon="151.2897461">
  <ele>444.05</ele>
  <time>2026-09-01T19:59:11Z</time>
  <course>241.54</course>
  <speed>19.08475045684381</speed>
  <fix>3d</fix>
</trkpt>
<trkpt lat="-27.2770035" lon="151.2897769">
  <ele>443.96</ele>
  <time>2026-09-01T19:59:11Z</time>
  <course>238.88</course>
  <speed>18.84</speed>
  <fix>3d</fix>
</trkpt>
<trkpt lat="-27.2770263" lon="151.2897287">
  <ele>444.09</ele>
  <time>2026-09-01T19:59:11Z</time>
  <course>243.63</course>
  <speed>19.252469971408864</speed>
  <fix>3d</fix>
</trkpt>
<trkpt lat="-27.2770035" lon="151.2897769">
  <ele>443.96</ele>
  <time>2026-09-01T19:59:11Z</time>
  <course>238.88</course>
  <speed>18.84</speed>
  <fix>3d</fix>
</trkpt>
<trkpt lat="-27.2770335" lon="151.2897107">
  <ele>444.14</ele>
  <time>2026-09-01T19:59:11Z</time>
  <course>245.78</course>
  <speed>19.412351738004336</speed>
  <fix>3d</fix>
</trkpt>
<trkpt lat="-27.2770202" lon="151.2897434">
  <ele>444.06</ele>
  <time>2026-09-01T19:59:11Z</time>
  <course>242.65</course>
  <speed>19.16</speed>
  <fix>3d</fix>
</trkpt>
<trkpt lat="-27.2770402" lon="151.2896924">
  <ele>444.19</ele>
  <time>2026-09-01T19:59:11Z</time>
  <course>248.04</course>
  <speed>19.591758471357288</speed>
  <fix>3d</fix>
</trkpt>
<trkpt lat="-27.2770202" lon="151.2897434">
  <ele>444.06</ele>
  <time>2026-09-01T19:59:11Z</time>
  <course>242.65</course>
  <speed>19.16</speed>
  <fix>3d</fix>
</trkpt>
<trkpt lat="-27.2770462" lon="151.2896736">
  <ele>444.24</ele>
  <time>2026-09-01T19:59:11Z</time>
  <course>250.26</course>
  <speed>19.754748796175566</speed>
  <fix>3d</fix>
</trkpt>
<trkpt lat="-27.277035" lon="151.289708">
  <ele>444.15</ele>
  <time>2026-09-01T19:59:11Z</time>
  <course>246.91</course>
  <speed>19.48</speed>
  <fix>3d</fix>
</trkpt>
<trkpt lat="-27.2770515" lon="151.2896544">
  <ele>444.28</ele>
  <time>2026-09-01T19:59:11Z</time>
  <course>252.62</course>
  <speed>19.91179801022499</speed>
  <fix>3d</fix>
</trkpt>
<trkpt lat="-27.277035" lon="151.289708">
  <ele>444.15</ele>
  <time>2026-09-01T19:59:11Z</time>
  <course>246.91</course>
  <speed>19.48</speed>
  <fix>3d</fix>
</trkpt>
<trkpt lat="-27.2770562" lon="151.2896348">
  <ele>444.33</ele>
  <time>2026-09-01T19:59:11Z</time>
  <course>255.15</course>
  <speed>20.075519918547563</speed>
  <fix>3d</fix>
</trkpt>
<trkpt lat="-27.2770475" lon="151.289671">
  <ele>444.25</ele>
  <time>2026-09-01T19:59:11Z</time>
  <course>251.57</course>
  <speed>19.8</speed>
  <fix>3d</fix>
</trkpt>
<trkpt lat="-27.2770601" lon="151.2896148">
  <ele>444.37</ele>
  <time>2026-09-01T19:59:11Z</time>
  <course>257.61</course>
  <speed>20.247468977627797</speed>
  <fix>3d</fix>
</trkpt>
<trkpt lat="-27.2770475" lon="151.289671">
  <ele>444.25</ele>
  <time>2026-09-01T19:59:11Z</time>
  <course>251.57</course>
  <speed>19.8</speed>
  <fix>3d</fix>
</trkpt>
<trkpt lat="-27.2770632" lon="151.2895948">
  <ele>444.41</ele>
  <time>2026-09-01T19:59:11Z</time>
  <course>260.12</course>
  <speed>20.407278113457465</speed>
  <fix>3d</fix>
</trkpt>
<trkpt lat="-27.2770573" lon="151.2896321">
  <ele>444.34</ele>
  <time>2026-09-01T19:59:11Z</time>
  <course>256.51</course>
  <speed>20.11</speed>
  <fix>3d</fix>
</trkpt>
<trkpt lat="-27.2770655" lon="151.2895743">
  <ele>444.45</ele>
  <time>2026-09-01T19:59:11Z</time>
  <course>262.74</course>
  <speed>20.562443920896172</speed>
  <fix>3d</fix>
</trkpt>
<trkpt lat="-27.2770573" lon="151.2896321">
  <ele>444.34</ele>
  <time>2026-09-01T19:59:11Z</time>
  <course>256.51</course>
  <speed>20.11</speed>
  <fix>3d</fix>
</trkpt>
<trkpt lat="-27.277067" lon="151.2895537">
  <ele>444.49</ele>
  <time>2026-09-01T19:59:11Z</time>
  <course>265.34</course>
  <speed>20.719753859541864</speed>
  <fix>3d</fix>
</trkpt>
<trkpt lat="-27.2770642" lon="151.2895919">
  <ele>444.41</ele>
  <time>2026-09-01T19:59:11Z</time>
  <course>261.66</course>
  <speed>20.43</speed>
  <fix>3d</fix>
</trkpt>
<trkpt lat="-27.2770677" lon="151.2895328">
  <ele>444.52</ele>
  <time>2026-09-01T19:59:11Z</time>
  <course>267.99</course>
  <speed>20.880538786152048</speed>
  <fix>3d</fix>
</trkpt>
<trkpt lat="-27.2770642" lon="151.2895919">
  <ele>444.41</ele>
  <time>2026-09-01T19:59:11Z</time>
  <course>261.66</course>
  <speed>20.43</speed>
  <fix>3d</fix>
</trkpt>
<trkpt lat="-27.2770676" lon="151.2895116">
  <ele>444.55</ele>
  <time>2026-09-01T19:59:11Z</time>
  <course>270.65</course>
  <speed>21.036777319732224</speed>
  <fix>3d</fix>
</trkpt>
<trkpt lat="-27.2770679" lon="151.2895505">
  <ele>444.49</ele>
  <time>2026-09-01T19:59:11Z</time>
  <course>266.97</course>
  <speed>20.75</speed>
  <fix>3d</fix>
</trkpt>
<trkpt lat="-27.2770664" lon="151.2894904">
  <ele>444.57</ele>
  <time>2026-09-01T19:59:11Z</time>
  <course>273.28</course>
  <speed>21.190908427908415</speed>
  <fix>3d</fix>
</trkpt>
<trkpt lat="-27.2770679" lon="151.2895505">
  <ele>444.49</ele>
  <time>2026-09-01T19:59:11Z</time>
  <course>266.97</course>
  <speed>20.75</speed>
  <fix>3d</fix>
</trkpt>
<trkpt lat="-27.2770644" lon="151.289469">
  <ele>444.58</ele>
  <time>2026-09-01T19:59:11Z</time>
  <course>275.99</course>
  <speed>21.353746743838656</speed>
  <fix>3d</fix>
</trkpt>
<trkpt lat="-27.2770681" lon="151.2895082">
  <ele>444.53</ele>
  <time>2026-09-01T19:59:11Z</time>
  <course>272.37</course>
  <speed>21.07</speed>
  <fix>3d</fix>
</trkpt>
<trkpt lat="-27.2770613" lon="151.2894469">
  <ele>444.59</ele>
  <time>2026-09-01T19:59:11Z</time>
  <course>278.82</course>
  <speed>21.513858324345264</speed>
  <fix>3d</fix>
</trkpt>
<trkpt lat="-27.2770648" lon="151.2894655">
  <ele>444.57</ele>
  <time>2026-09-01T19:59:11Z</time>
  <course>277.81</course>
  <speed>21.38</speed>
  <fix>3d</fix>
</trkpt>
<trkpt lat="-27.2770574" lon="151.2894256">
  <ele>444.59</ele>
  <time>2026-09-01T19:59:11Z</time>
  <course>281.53</course>
  <speed>21.679723245466025</speed>
  <fix>3d</fix>
</trkpt>
<trkpt lat="-27.2770648" lon="151.2894655">
  <ele>444.57</ele>
  <time>2026-09-01T19:59:11Z</time>
  <course>277.81</course>
  <speed>21.38</speed>
  <fix>3d</fix>
</trkpt>
<trkpt lat="-27.2770525" lon="151.2894042">
  <ele>444.59</ele>
  <time>2026-09-01T19:59:11Z</time>
  <course>284.18</course>
  <speed>21.838978913859506</speed>
  <fix>3d</fix>
</trkpt>
<trkpt lat="-27.2770577" lon="151.2894227">
  <ele>444.59</ele>
  <time>2026-09-01T19:59:11Z</time>
  <course>283.31</course>
  <speed>21.69</speed>
  <fix>3d</fix>
</trkpt>
<trkpt lat="-27.2770467" lon="151.2893829">
  <ele>444.58</ele>
  <time>2026-09-01T19:59:11Z</time>
  <course>286.91</course>
  <speed>22.00034772452472</speed>
  <fix>3d</fix>
</trkpt>
<trkpt lat="-27.2770577" lon="151.2894227">
  <ele>444.59</ele>
  <time>2026-09-01T19:59:11Z</time>
  <course>283.31</course>
  <speed>21.69</speed>
  <fix>3d</fix>
</trkpt>
<trkpt lat="-27.2770399" lon="151.2893619">
  <ele>444.56</ele>
  <time>2026-09-01T19:59:11Z</time>
  <course>289.7</course>
  <speed>22.16853626200882</speed>
  <fix>3d</fix>
</trkpt>
<trkpt lat="-27.2770469" lon="151.2893803">
  <ele>444.58</ele>
  <time>2026-09-01T19:59:11Z</time>
  <course>288.85</course>
  <speed>22.0</speed>
  <fix>3d</fix>
</trkpt>
<trkpt lat="-27.2770321" lon="151.2893409">
  <ele>444.54</ele>
  <time>2026-09-01T19:59:11Z</time>
  <course>292.54</course>
  <speed>22.332129320779064</speed>
  <fix>3d</fix>
</trkpt>
<trkpt lat="-27.2770469" lon="151.2893803">
  <ele>444.58</ele>
  <time>2026-09-01T19:59:11Z</time>
  <course>288.85</course>
  <speed>22.0</speed>
  <fix>3d</fix>
</trkpt>
<trkpt lat="-27.2770234" lon="151.2893204">
  <ele>444.52</ele>
  <time>2026-09-01T19:59:11Z</time>
  <course>295.34</course>
  <speed>22.482724479030562</speed>
  <fix>3d</fix>
</trkpt>
<trkpt lat="-27.2770322" lon="151.2893387">
  <ele>444.55</ele>
  <time>2026-09-01T19:59:11Z</time>
  <course>294.42</course>
  <speed>22.3</speed>
  <fix>3d</fix>
</trkpt>
<trkpt lat="-27.2770137" lon="151.2893002">
  <ele>444.48</ele>
  <time>2026-09-01T19:59:11Z</time>
  <course>298.15</course>
  <speed>22.642758224209345</speed>
  <fix>3d</fix>
</trkpt>
<trkpt lat="-27.2770322" lon="151.2893387">
  <ele>444.55</ele>
  <time>2026-09-01T19:59:11Z</time>
  <course>294.42</course>
  <speed>22.3</speed>
  <fix>3d</fix>
</trkpt>
<trkpt lat="-27.2770031" lon="151.2892805">
  <ele>444.45</ele>
  <time>2026-09-01T19:59:11Z</time>
  <course>300.93</course>
  <speed>22.795352596527213</speed>
  <fix>3d</fix>
</trkpt>
<trkpt lat="-27.2770137" lon="151.2892984">
  <ele>444.5</ele>
  <time>2026-09-01T19:59:11Z</time>
  <course>300.06</course>
  <speed>22.6</speed>
  <fix>3d</fix>
</trkpt>
<trkpt lat="-27.2769917" lon="151.2892614">
  <ele>444.41</ele>
  <time>2026-09-01T19:59:11Z</time>
  <course>303.7</course>
  <speed>22.941492976700534</speed>
  <fix>3d</fix>
</trkpt>
<trkpt lat="-27.2770137" lon="151.2892984">
  <ele>444.5</ele>
  <time>2026-09-01T19:59:11Z</time>
  <course>300.06</course>
  <speed>22.6</speed>
  <fix>3d</fix>
</trkpt>
<trkpt lat="-27.2769793" lon="151.2892429">
  <ele>444.37</ele>
  <time>2026-09-01T19:59:11Z</time>
  <course>306.49</course>
  <speed>23.074821776126463</speed>
  <fix>3d</fix>
</trkpt>
<trkpt lat="-27.2769915" lon="151.2892598">
  <ele>444.42</ele>
  <time>2026-09-01T19:59:11Z</time>
  <course>305.71</course>
  <speed>22.89</speed>
  <fix>3d</fix>
</trkpt>
<trkpt lat="-27.2769662" lon="151.289225">
  <ele>444.32</ele>
  <time>2026-09-01T19:59:11Z</time>
  <course>309.24</course>
  <speed>23.215115765380105</speed>
  <fix>3d</fix>
</trkpt>
<trkpt lat="-27.2769915" lon="151.2892598">
  <ele>444.42</ele>
  <time>2026-09-01T19:59:11Z</time>
  <course>305.71</course>
  <speed>22.89</speed>
  <fix>3d</fix>
</trkpt>
<trkpt lat="-27.2769525" lon="151.2892082">
  <ele>444.27</ele>
  <time>2026-09-01T19:59:11Z</time>
  <course>311.94</course>
  <speed>23.345579881425092</speed>
  <fix>3d</fix>
</trkpt>
<trkpt lat="-27.2769915" lon="151.2892598">
  <ele>444.42</ele>
  <time>2026-09-01T19:59:11Z</time>
  <course>305.71</course>
  <speed>22.89</speed>
  <fix>3d</fix>
</trkpt>
<trkpt lat="-27.2769379" lon="151.2891918">
  <ele>444.22</ele>
  <time>2026-09-01T19:59:11Z</time>
  <course>314.64</course>
  <speed>23.464758681904232</speed>
  <fix>3d</fix>
</trkpt>
<trkpt lat="-27.2769657" lon="151.2892234">
  <ele>444.33</ele>
  <time>2026-09-01T19:59:11Z</time>
  <course>311.33</course>
  <speed>23.18</speed>
  <fix>3d</fix>
</trkpt>
<trkpt lat="-27.2769223" lon="151.289176">
  <ele>444.17</ele>
  <time>2026-09-01T19:59:11Z</time>
  <course>317.38</course>
  <speed>23.58142701364784</speed>
  <fix>3d</fix>
</trkpt>
<trkpt lat="-27.2769657" lon="151.2892234">
  <ele>444.33</ele>
  <time>2026-09-01T19:59:11Z</time>
  <course>311.33</course>
  <speed>23.18</speed>
  <fix>3d</fix>
</trkpt>
<trkpt lat="-27.2769059" lon="151.2891609">
  <ele>444.11</ele>
  <time>2026-09-01T19:59:11Z</time>
  <course>320.1</course>
  <speed>23.709510749907935</speed>
  <fix>3d</fix>
</trkpt>
<trkpt lat="-27.2769366" lon="151.2891895">
  <ele>444.23</ele>
  <time>2026-09-01T19:59:11Z</time>
  <course>316.88</course>
  <speed>23.45</speed>
  <fix>3d</fix>
</trkpt>
<trkpt lat="-27.2768888" lon="151.2891466">
  <ele>444.04</ele>
  <time>2026-09-01T19:59:11Z</time>
  <course>322.72</course>
  <speed>23.840574657503538</speed>
  <fix>3d</fix>
</trkpt>
<trkpt lat="-27.2769366" lon="151.2891895">
  <ele>444.23</ele>
  <time>2026-09-01T19:59:11Z</time>
  <course>316.88</course>
  <speed>23.45</speed>
  <fix>3d</fix>
</trkpt>
<trkpt lat="-27.276871" lon="151.2891331">
  <ele>443.98</ele>
  <time>2026-09-01T19:59:11Z</time>
  <course>325.32</course>
  <speed>23.956928016755406</speed>
  <fix>3d</fix>
</trkpt>
<trkpt lat="-27.2769042" lon="151.2891586">
  <ele>444.11</ele>
  <time>2026-09-01T19:59:11Z</time>
  <course>322.37</course>
  <speed>23.71</speed>
  <fix>3d</fix>
</trkpt>
<trkpt lat="-27.2768524" lon="151.2891203">
  <ele>443.91</ele>
  <time>2026-09-01T19:59:11Z</time>
  <course>327.89</course>
  <speed>24.08265766064867</speed>
  <fix>3d</fix>
</trkpt>
<trkpt lat="-27.2769042" lon="151.2891586">
  <ele>444.11</ele>
  <time>2026-09-01T19:59:11Z</time>
  <course>322.37</course>
  <speed>23.71</speed>
  <fix>3d</fix>
</trkpt>
<trkpt lat="-27.2768334" lon="151.2891086">
  <ele>443.83</ele>
  <time>2026-09-01T19:59:11Z</time>
  <course>330.35</course>
  <speed>24.191986276451136</speed>
  <fix>3d</fix>
</trkpt>
<trkpt lat="-27.2768691" lon="151.2891311">
  <ele>443.97</ele>
  <time>2026-09-01T19:59:11Z</time>
  <course>327.72</course>
  <speed>23.95</speed>
  <fix>3d</fix>
</trkpt>
<trkpt lat="-27.2768138" lon="151.2890978">
  <ele>443.75</ele>
  <time>2026-09-01T19:59:11Z</time>
  <course>332.76</course>
  <speed>24.299106979475606</speed>
  <fix>3d</fix>
</trkpt>
<trkpt lat="-27.2768691" lon="151.2891311">
  <ele>443.97</ele>
  <time>2026-09-01T19:59:11Z</time>
  <course>327.72</course>
  <speed>23.95</speed>
  <fix>3d</fix>
</trkpt>
<trkpt lat="-27.276793" lon="151.2890875">
  <ele>443.67</ele>
  <time>2026-09-01T19:59:11Z</time>
  <course>335.22</course>
  <speed>24.412595109901773</speed>
  <fix>3d</fix>
</trkpt>
<trkpt lat="-27.2768315" lon="151.289107">
  <ele>443.83</ele>
  <time>2026-09-01T19:59:11Z</time>
  <course>332.88</course>
  <speed>24.18</speed>
  <fix>3d</fix>
</trkpt>
<trkpt lat="-27.2767727" lon="151.2890786">
  <ele>443.59</ele>
  <time>2026-09-01T19:59:11Z</time>
  <course>337.5</course>
  <speed>24.50724994771955</speed>
  <fix>3d</fix>
</trkpt>
<trkpt lat="-27.2767919" lon="151.2890866">
  <ele>443.68</ele>
  <time>2026-09-01T19:59:11Z</time>
  <course>337.8</course>
  <speed>24.39</speed>
  <fix>3d</fix>
</trkpt>
<trkpt lat="-27.2767518" lon="151.2890706">
  <ele>443.5</ele>
  <time>2026-09-01T19:59:11Z</time>
  <course>339.7</course>
  <speed>24.604552424297417</speed>
  <fix>3d</fix>
</trkpt>
<trkpt lat="-27.2767919" lon="151.2890866">
  <ele>443.68</ele>
  <time>2026-09-01T19:59:11Z</time>
  <course>337.8</course>
  <speed>24.39</speed>
  <fix>3d</fix>
</trkpt>
<trkpt lat="-27.2767306" lon="151.2890634">
  <ele>443.41</ele>
  <time>2026-09-01T19:59:11Z</time>
  <course>341.77</course>
  <speed>24.688541876749223</speed>
  <fix>3d</fix>
</trkpt>
<trkpt lat="-27.2767505" lon="151.2890698">
  <ele>443.51</ele>
  <time>2026-09-01T19:59:11Z</time>
  <course>342.44</course>
  <speed>24.58</speed>
  <fix>3d</fix>
</trkpt>
<trkpt lat="-27.276709" lon="151.2890572">
  <ele>443.32</ele>
  <time>2026-09-01T19:59:11Z</time>
  <course>343.79</course>
  <speed>24.776450512533064</speed>
  <fix>3d</fix>
</trkpt>
<trkpt lat="-27.2767505" lon="151.2890698">
  <ele>443.51</ele>
  <time>2026-09-01T19:59:11Z</time>
  <course>342.44</course>
  <speed>24.58</speed>
  <fix>3d</fix>
</trkpt>
<trkpt lat="-27.276687" lon="151.2890517">
  <ele>443.23</ele>
  <time>2026-09-01T19:59:11Z</time>
  <course>345.77</course>
  <speed>24.859706353857035</speed>
  <fix>3d</fix>
</trkpt>
<trkpt lat="-27.2767077" lon="151.2890565">
  <ele>443.34</ele>
  <time>2026-09-01T19:59:11Z</time>
  <course>346.75</course>
  <speed>24.76</speed>
  <fix>3d</fix>
</trkpt>
<trkpt lat="-27.276665" lon="151.2890471">
  <ele>443.13</ele>
  <time>2026-09-01T19:59:11Z</time>
  <course>347.61</course>
  <speed>24.92946248919138</speed>
  <fix>3d</fix>
</trkpt>
<trkpt lat="-27.2767077" lon="151.2890565">
  <ele>443.34</ele>
  <time>2026-09-01T19:59:11Z</time>
  <course>346.75</course>
  <speed>24.76</speed>
  <fix>3d</fix>
</trkpt>
<trkpt lat="-27.2766428" lon="151.2890434">
  <ele>443.04</ele>
  <time>2026-09-01T19:59:11Z</time>
  <course>349.39</course>
  <speed>25.002745849206246</speed>
  <fix>3d</fix>
</trkpt>
<trkpt lat="-27.2766639" lon="151.2890468">
  <ele>443.16</ele>
  <time>2026-09-01T19:59:11Z</time>
  <course>350.68</course>
  <speed>24.92</speed>
  <fix>3d</fix>
</trkpt>
<trkpt lat="-27.2766205" lon="151.2890404">
  <ele>442.94</ele>
  <time>2026-09-01T19:59:11Z</time>
  <course>351.06</course>
  <speed>25.073093147834793</speed>
  <fix>3d</fix>
</trkpt>
<trkpt lat="-27.2766639" lon="151.2890468">
  <ele>443.16</ele>
  <time>2026-09-01T19:59:11Z</time>
  <course>350.68</course>
  <speed>24.92</speed>
  <fix>3d</fix>
</trkpt>
<trkpt lat="-27.276598" lon="151.2890381">
  <ele>442.83</ele>
  <time>2026-09-01T19:59:11Z</time>
  <course>352.62</course>
  <speed>25.139645980005366</speed>
  <fix>3d</fix>
</trkpt>
<trkpt lat="-27.2766195" lon="151.2890402">
  <ele>442.97</ele>
  <time>2026-09-01T19:59:11Z</time>
  <course>354.25</course>
  <speed>25.05</speed>
  <fix>3d</fix>
</trkpt>
<trkpt lat="-27.2765755" lon="151.2890366">
  <ele>442.73</ele>
  <time>2026-09-01T19:59:11Z</time>
  <course>354.2</course>
  <speed>25.188126170876625</speed>
  <fix>3d</fix>
</trkpt>
<trkpt lat="-27.2766195" lon="151.2890402">
  <ele>442.97</ele>
  <time>2026-09-01T19:59:11Z</time>
  <course>354.25</course>
  <speed>25.05</speed>
  <fix>3d</fix>
</trkpt>
<trkpt lat="-27.276553" lon="151.2890358">
  <ele>442.63</ele>
  <time>2026-09-01T19:59:11Z</time>
  <course>355.66</course>
  <speed>25.24577588429399</speed>
  <fix>3d</fix>
</trkpt>
<trkpt lat="-27.2765745" lon="151.2890365">
  <ele>442.76</ele>
  <time>2026-09-01T19:59:11Z</time>
  <course>357.47</course>
  <speed>25.19</speed>
  <fix>3d</fix>
</trkpt>
<trkpt lat="-27.2765305" lon="151.2890355">
  <ele>442.52</ele>
  <time>2026-09-01T19:59:11Z</time>
  <course>357.01</course>
  <speed>25.300071146145022</speed>
  <fix>3d</fix>
</trkpt>
<trkpt lat="-27.2765745" lon="151.2890365">
  <ele>442.76</ele>
  <time>2026-09-01T19:59:11Z</time>
  <course>357.47</course>
  <speed>25.19</speed>
  <fix>3d</fix>
</trkpt>
<trkpt lat="-27.2765079" lon="151.2890359">
  <ele>442.42</ele>
  <time>2026-09-01T19:59:11Z</time>
  <course>358.26</course>
  <speed>25.34783028189987</speed>
  <fix>3d</fix>
</trkpt>
<trkpt lat="-27.2765292" lon="151.2890356">
  <ele>442.55</ele>
  <time>2026-09-01T19:59:11Z</time>
  <course>0.32</course>
  <speed>25.31</speed>
  <fix>3d</fix>
</trkpt>
<trkpt lat="-27.2764853" lon="151.2890368">
  <ele>442.31</ele>
  <time>2026-09-01T19:59:11Z</time>
  <course>359.59</course>
  <speed>25.38651610599611</speed>
  <fix>3d</fix>
</trkpt>
<trkpt lat="-27.2765292" lon="151.2890356">
  <ele>442.55</ele>
  <time>2026-09-01T19:59:11Z</time>
  <course>0.32</course>
  <speed>25.31</speed>
  <fix>3d</fix>
</trkpt>
<trkpt lat="-27.2764627" lon="151.2890383">
  <ele>442.2</ele>
  <time>2026-09-01T19:59:11Z</time>
  <course>0.81</course>
  <speed>25.424250234766017</speed>
  <fix>3d</fix>
</trkpt>
<trkpt lat="-27.2764837" lon="151.289037">
  <ele>442.34</ele>
  <time>2026-09-01T19:59:11Z</time>
  <course>2.83</course>
  <speed>25.42</speed>
  <fix>3d</fix>
</trkpt>
<trkpt lat="-27.2764401" lon="151.2890402">
  <ele>442.1</ele>
  <time>2026-09-01T19:59:11Z</time>
  <course>1.92</course>
  <speed>25.465908583830263</speed>
  <fix>3d</fix>
</trkpt>
<trkpt lat="-27.2764837" lon="151.289037">
  <ele>442.34</ele>
  <time>2026-09-01T19:59:11Z</time>
  <course>2.83</course>
  <speed>25.42</speed>
  <fix>3d</fix>
</trkpt>
<trkpt lat="-27.2764174" lon="151.2890424">
  <ele>442.0</ele>
  <time>2026-09-01T19:59:11Z</time>
  <course>2.96</course>
  <speed>25.507932099643043</speed>
  <fix>3d</fix>
</trkpt>
<trkpt lat="-27.2764379" lon="151.2890405">
  <ele>442.12</ele>
  <time>2026-09-01T19:59:11Z</time>
  <course>4.89</course>
  <speed>25.52</speed>
  <fix>3d</fix>
</trkpt>
<trkpt lat="-27.2763946" lon="151.2890451">
  <ele>441.89</ele>
  <time>2026-09-01T19:59:11Z</time>
  <course>3.89</course>
  <speed>25.551680962316354</speed>
  <fix>3d</fix>
</trkpt>
<trkpt lat="-27.2764379" lon="151.2890405">
  <ele>442.12</ele>
  <time>2026-09-01T19:59:11Z</time>
  <course>4.89</course>
  <speed>25.52</speed>
  <fix>3d</fix>
</trkpt>
<trkpt lat="-27.2763724" lon="151.289048">
  <ele>441.78</ele>
  <time>2026-09-01T19:59:11Z</time>
  <course>4.69</course>
  <speed>25.60591337953013</speed>
  <fix>3d</fix>
</trkpt>
<trkpt lat="-27.2764379" lon="151.2890405">
  <ele>442.12</ele>
  <time>2026-09-01T19:59:11Z</time>
  <course>4.89</course>
  <speed>25.52</speed>
  <fix>3d</fix>
</trkpt>
<trkpt lat="-27.2763487" lon="151.2890514">
  <ele>441.64</ele>
  <time>2026-09-01T19:59:11Z</time>
  <course>5.49</course>
  <speed>25.662238795553286</speed>
  <fix>3d</fix>
</trkpt>
<trkpt lat="-27.2763921" lon="151.2890456">
  <ele>441.9</ele>
  <time>2026-09-01T19:59:11Z</time>
  <course>6.48</course>
  <speed>25.62</speed>
  <fix>3d</fix>
</trkpt>
<trkpt lat="-27.2763257" lon="151.289055">
  <ele>441.51</ele>
  <time>2026-09-01T19:59:11Z</time>
  <course>6.25</course>
  <speed>25.72030520814246</speed>
  <fix>3d</fix>
</trkpt>
<trkpt lat="-27.2763464" lon="151.2890521">
  <ele>441.67</ele>
  <time>2026-09-01T19:59:11Z</time>
  <course>7.78</course>
  <speed>25.72</speed>
  <fix>3d</fix>
</trkpt>
<trkpt lat="-27.276303" lon="151.2890588">
  <ele>441.38</ele>
  <time>2026-09-01T19:59:11Z</time>
  <course>6.89</course>
  <speed>25.789658780216538</speed>
  <fix>3d</fix>
</trkpt>
<trkpt lat="-27.2763464" lon="151.2890521">
  <ele>441.67</ele>
  <time>2026-09-01T19:59:11Z</time>
  <course>7.78</course>
  <speed>25.72</speed>
  <fix>3d</fix>
</trkpt>
<trkpt lat="-27.2762801" lon="151.289063">
  <ele>441.25</ele>
  <time>2026-09-01T19:59:11Z</time>
  <course>7.39</course>
  <speed>25.828840469521662</speed>
  <fix>3d</fix>
</trkpt>
<trkpt lat="-27.2763006" lon="151.2890597">
  <ele>441.41</ele>
  <time>2026-09-01T19:59:11Z</time>
  <course>8.96</course>
  <speed>25.83</speed>
  <fix>3d</fix>
</trkpt>
<trkpt lat="-27.2762573" lon="151.2890673">
  <ele>441.11</ele>
  <time>2026-09-01T19:59:11Z</time>
  <course>7.9</course>
  <speed>25.825851389644445</speed>
  <fix>3d</fix>
</trkpt>
<trkpt lat="-27.2763006" lon="151.2890597">
  <ele>441.41</ele>
  <time>2026-09-01T19:59:11Z</time>
  <course>8.96</course>
  <speed>25.83</speed>
  <fix>3d</fix>
</trkpt>
<trkpt lat="-27.2762345" lon="151.2890719">
  <ele>440.98</ele>
  <time>2026-09-01T19:59:11Z</time>
  <course>8.42</course>
  <speed>25.789936021634485</speed>
  <fix>3d</fix>
</trkpt>
<trkpt lat="-27.2762547" lon="151.2890683">
  <ele>441.15</ele>
  <time>2026-09-01T19:59:11Z</time>
  <course>9.99</course>
  <speed>25.87</speed>
  <fix>3d</fix>
</trkpt>
<trkpt lat="-27.2762116" lon="151.2890767">
  <ele>440.84</ele>
  <time>2026-09-01T19:59:11Z</time>
  <course>8.95</course>
  <speed>25.712553354344255</speed>
  <fix>3d</fix>
</trkpt>
<trkpt lat="-27.2762547" lon="151.2890683">
  <ele>441.15</ele>
  <time>2026-09-01T19:59:11Z</time>
  <course>9.99</course>
  <speed>25.87</speed>
  <fix>3d</fix>
</trkpt>
<trkpt lat="-27.276189" lon="151.2890817">
  <ele>440.72</ele>
  <time>2026-09-01T19:59:11Z</time>
  <course>9.46</course>
  <speed>25.64252132688983</speed>
  <fix>3d</fix>
</trkpt>
<trkpt lat="-27.2762091" lon="151.2890777">
  <ele>440.89</ele>
  <time>2026-09-01T19:59:11Z</time>
  <course>10.84</course>
  <speed>25.79</speed>
  <fix>3d</fix>
</trkpt>
<trkpt lat="-27.2761662" lon="151.2890868">
  <ele>440.58</ele>
  <time>2026-09-01T19:59:11Z</time>
  <course>9.9</course>
  <speed>25.593174871437892</speed>
  <fix>3d</fix>
</trkpt>
<trkpt lat="-27.2762091" lon="151.2890777">
  <ele>440.89</ele>
  <time>2026-09-01T19:59:11Z</time>
  <course>10.84</course>
  <speed>25.79</speed>
  <fix>3d</fix>
</trkpt>
<trkpt lat="-27.2761436" lon="151.289092">
  <ele>440.45</ele>
  <time>2026-09-01T19:59:11Z</time>
  <course>10.29</course>
  <speed>25.538774442012677</speed>
  <fix>3d</fix>
</trkpt>
<trkpt lat="-27.2761638" lon="151.2890879">
  <ele>440.63</ele>
  <time>2026-09-01T19:59:11Z</time>
  <course>11.53</course>
  <speed>25.66</speed>
  <fix>3d</fix>
</trkpt>
<trkpt lat="-27.276121" lon="151.2890974">
  <ele>440.31</ele>
  <time>2026-09-01T19:59:11Z</time>
  <course>10.59</course>
  <speed>25.512349950563156</speed>
  <fix>3d</fix>
</trkpt>
<trkpt lat="-27.2761638" lon="151.2890879">
  <ele>440.63</ele>
  <time>2026-09-01T19:59:11Z</time>
  <course>11.53</course>
  <speed>25.66</speed>
  <fix>3d</fix>
</trkpt>
<trkpt lat="-27.2760984" lon="151.2891029">
  <ele>440.16</ele>
  <time>2026-09-01T19:59:11Z</time>
  <course>10.86</course>
  <speed>25.49413265831964</speed>
  <fix>3d</fix>
</trkpt>
<trkpt lat="-27.2761187" lon="151.2890985">
  <ele>440.37</ele>
  <time>2026-09-01T19:59:11Z</time>
  <course>12.08</course>
  <speed>25.57</speed>
  <fix>3d</fix>
</trkpt>
<trkpt lat="-27.2760758" lon="151.2891085">
  <ele>440.01</ele>
  <time>2026-09-01T19:59:11Z</time>
  <course>11.1</course>
  <speed>25.481830781951285</speed>
  <fix>3d</fix>
</trkpt>
<trkpt lat="-27.2761187" lon="151.2890985">
  <ele>440.37</ele>
  <time>2026-09-01T19:59:11Z</time>
  <course>12.08</course>
  <speed>25.57</speed>
  <fix>3d</fix>
</trkpt>
<trkpt lat="-27.2760533" lon="151.2891141">
  <ele>439.85</ele>
  <time>2026-09-01T19:59:11Z</time>
  <course>11.34</course>
  <speed>25.479570247553234</speed>
  <fix>3d</fix>
</trkpt>
<trkpt lat="-27.2760739" lon="151.2891095">
  <ele>440.09</ele>
  <time>2026-09-01T19:59:11Z</time>
  <course>12.51</course>
  <speed>25.51</speed>
  <fix>3d</fix>
</trkpt>
<trkpt lat="-27.2760307" lon="151.2891199">
  <ele>439.68</ele>
  <time>2026-09-01T19:59:11Z</time>
  <course>11.61</course>
  <speed>25.489537069158395</speed>
  <fix>3d</fix>
</trkpt>
<trkpt lat="-27.2760739" lon="151.2891095">
  <ele>440.09</ele>
  <time>2026-09-01T19:59:11Z</time>
  <course>12.51</course>
  <speed>25.51</speed>
  <fix>3d</fix>
</trkpt>
<trkpt lat="-27.2760082" lon="151.2891257">
  <ele>439.51</ele>
  <time>2026-09-01T19:59:11Z</time>
  <course>11.73</course>
  <speed>25.505089688138717</speed>
  <fix>3d</fix>
</trkpt>
<trkpt lat="-27.2760292" lon="151.2891208">
  <ele>439.78</ele>
  <time>2026-09-01T19:59:11Z</time>
  <course>12.86</course>
  <speed>25.5</speed>
  <fix>3d</fix>
</trkpt>
<trkpt lat="-27.2759857" lon="151.2891316">
  <ele>439.34</ele>
  <time>2026-09-01T19:59:11Z</time>
  <course>11.9</course>
  <speed>25.538050043024036</speed>
  <fix>3d</fix>
</trkpt>
<trkpt lat="-27.2760292" lon="151.2891208">
  <ele>439.78</ele>
  <time>2026-09-01T19:59:11Z</time>
  <course>12.86</course>
  <speed>25.5</speed>
  <fix>3d</fix>
</trkpt>
<trkpt lat="-27.2759632" lon="151.2891376">
  <ele>439.17</ele>
  <time>2026-09-01T19:59:11Z</time>
  <course>12.11</course>
  <speed>25.561386895080638</speed>
  <fix>3d</fix>
</trkpt>
<trkpt lat="-27.2759845" lon="151.2891325">
  <ele>439.46</ele>
  <time>2026-09-01T19:59:11Z</time>
  <course>13.13</course>
  <speed>25.53</speed>
  <fix>3d</fix>
</trkpt>
<trkpt lat="-27.2759408" lon="151.2891435">
  <ele>439.01</ele>
  <time>2026-09-01T19:59:11Z</time>
  <course>12.28</course>
  <speed>25.6043121368257</speed>
  <fix>3d</fix>
</trkpt>
<trkpt lat="-27.2759845" lon="151.2891325">
  <ele>439.46</ele>
  <time>2026-09-01T19:59:11Z</time>
  <course>13.13</course>
  <speed>25.53</speed>
  <fix>3d</fix>
</trkpt>
<trkpt lat="-27.2759184" lon="151.2891496">
  <ele>438.85</ele>
  <time>2026-09-01T19:59:11Z</time>
  <course>12.44</course>
  <speed>25.645026808330694</speed>
  <fix>3d</fix>
</trkpt>
<trkpt lat="-27.2759397" lon="151.2891443">
  <ele>439.14</ele>
  <time>2026-09-01T19:59:11Z</time>
  <course>13.34</course>
  <speed>25.59</speed>
  <fix>3d</fix>
</trkpt>
<trkpt lat="-27.275896" lon="151.2891556">
  <ele>438.7</ele>
  <time>2026-09-01T19:59:11Z</time>
  <course>12.55</course>
  <speed>25.685809311758117</speed>
  <fix>3d</fix>
</trkpt>
<trkpt lat="-27.2759397" lon="151.2891443">
  <ele>439.14</ele>
  <time>2026-09-01T19:59:11Z</time>
  <course>13.34</course>
  <speed>25.59</speed>
  <fix>3d</fix>
</trkpt>
<trkpt lat="-27.2758736" lon="151.2891617">
  <ele>438.56</ele>
  <time>2026-09-01T19:59:11Z</time>
  <course>12.53</course>
  <speed>25.743762351295896</speed>
  <fix>3d</fix>
</trkpt>
<trkpt lat="-27.2758949" lon="151.2891563">
  <ele>438.84</ele>
  <time>2026-09-01T19:59:11Z</time>
  <course>13.5</course>
  <speed>25.68</speed>
  <fix>3d</fix>
</trkpt>
<trkpt lat="-27.2758512" lon="151.2891678">
  <ele>438.44</ele>
  <time>2026-09-01T19:59:11Z</time>
  <course>12.58</course>
  <speed>25.78733216135395</speed>
  <fix>3d</fix>
</trkpt>
<trkpt lat="-27.2758949" lon="151.2891563">
  <ele>438.84</ele>
  <time>2026-09-01T19:59:11Z</time>
  <course>13.5</course>
  <speed>25.68</speed>
  <fix>3d</fix>
</trkpt>
<trkpt lat="-27.2758287" lon="151.289174">
  <ele>438.32</ele>
  <time>2026-09-01T19:59:11Z</time>
  <course>12.66</course>
  <speed>25.84297390007582</speed>
  <fix>3d</fix>
</trkpt>
<trkpt lat="-27.27585" lon="151.2891685">
  <ele>438.57</ele>
  <time>2026-09-01T19:59:11Z</time>
  <course>13.58</course>
  <speed>25.79</speed>
  <fix>3d</fix>
</trkpt>
<trkpt lat="-27.2758062" lon="151.2891801">
  <ele>438.21</ele>
  <time>2026-09-01T19:59:11Z</time>
  <course>12.78</course>
  <speed>25.896273863241408</speed>
  <fix>3d</fix>
</trkpt>
<trkpt lat="-27.27585" lon="151.2891685">
  <ele>438.57</ele>
  <time>2026-09-01T19:59:11Z</time>
  <course>13.58</course>
  <speed>25.79</speed>
  <fix>3d</fix>
</trkpt>
<trkpt lat="-27.2757836" lon="151.2891863">
  <ele>438.11</ele>
  <time>2026-09-01T19:59:11Z</time>
  <course>12.83</course>
  <speed>25.949576104437618</speed>
  <fix>3d</fix>
</trkpt>
<trkpt lat="-27.2758049" lon="151.2891808">
  <ele>438.35</ele>
  <time>2026-09-01T19:59:11Z</time>
  <course>13.61</course>
  <speed>25.9</speed>
  <fix>3d</fix>
</trkpt>
<trkpt lat="-27.2757611" lon="151.2891925">
  <ele>438.03</ele>
  <time>2026-09-01T19:59:11Z</time>
  <course>12.84</course>
  <speed>25.993162562489392</speed>
  <fix>3d</fix>
</trkpt>
<trkpt lat="-27.2758049" lon="151.2891808">
  <ele>438.35</ele>
  <time>2026-09-01T19:59:11Z</time>
  <course>13.61</course>
  <speed>25.9</speed>
  <fix>3d</fix>
</trkpt>
<trkpt lat="-27.2757382" lon="151.2891988">
  <ele>437.96</ele>
  <time>2026-09-01T19:59:11Z</time>
  <course>12.83</course>
  <speed>26.044110658649874</speed>
  <fix>3d</fix>
</trkpt>
<trkpt lat="-27.2757596" lon="151.2891932">
  <ele>438.16</ele>
  <time>2026-09-01T19:59:11Z</time>
  <course>13.63</course>
  <speed>26.01</speed>
  <fix>3d</fix>
</trkpt>
<trkpt lat="-27.2757154" lon="151.289205">
  <ele>437.89</ele>
  <time>2026-09-01T19:59:11Z</time>
  <course>12.86</course>
  <speed>26.104777340555884</speed>
  <fix>3d</fix>
</trkpt>
<trkpt lat="-27.2757596" lon="151.2891932">
  <ele>438.16</ele>
  <time>2026-09-01T19:59:11Z</time>
  <course>13.63</course>
  <speed>26.01</speed>
  <fix>3d</fix>
</trkpt>
<trkpt lat="-27.2756925" lon="151.2892113">
  <ele>437.84</ele>
  <time>2026-09-01T19:59:11Z</time>
  <course>12.92</course>
  <speed>26.15572595054475</speed>
  <fix>3d</fix>
</trkpt>
<trkpt lat="-27.2757141" lon="151.2892056">
  <ele>438.03</ele>
  <time>2026-09-01T19:59:11Z</time>
  <course>13.61</course>
  <speed>26.12</speed>
  <fix>3d</fix>
</trkpt>
<trkpt lat="-27.2756695" lon="151.2892175">
  <ele>437.8</ele>
  <time>2026-09-01T19:59:11Z</time>
  <course>12.92</course>
  <speed>26.216393726063853</speed>
  <fix>3d</fix>
</trkpt>
<trkpt lat="-27.2757141" lon="151.2892056">
  <ele>438.03</ele>
  <time>2026-09-01T19:59:11Z</time>
  <course>13.61</course>
  <speed>26.12</speed>
  <fix>3d</fix>
</trkpt>
<trkpt lat="-27.2756465" lon="151.2892238">
  <ele>437.78</ele>
  <time>2026-09-01T19:59:11Z</time>
  <course>12.89</course>
  <speed>26.25762365485498</speed>
  <fix>3d</fix>
</trkpt>
<trkpt lat="-27.2756684" lon="151.289218">
  <ele>437.96</ele>
  <time>2026-09-01T19:59:11Z</time>
  <course>13.59</course>
  <speed>26.22</speed>
  <fix>3d</fix>
</trkpt>
<trkpt lat="-27.2756234" lon="151.2892301">
  <ele>437.77</ele>
  <time>2026-09-01T19:59:11Z</time>
  <course>12.86</course>
  <speed>26.30622169753764</speed>
  <fix>3d</fix>
</trkpt>
<trkpt lat="-27.2756684" lon="151.289218">
  <ele>437.96</ele>
  <time>2026-09-01T19:59:11Z</time>
  <course>13.59</course>
  <speed>26.22</speed>
  <fix>3d</fix>
</trkpt>
<trkpt lat="-27.2756004" lon="151.2892364">
  <ele>437.76</ele>
  <time>2026-09-01T19:59:11Z</time>
  <course>12.8</course>
  <speed>26.345103909455357</speed>
  <fix>3d</fix>
</trkpt>
<trkpt lat="-27.2756225" lon="151.2892305">
  <ele>437.91</ele>
  <time>2026-09-01T19:59:11Z</time>
  <course>13.56</course>
  <speed>26.31</speed>
  <fix>3d</fix>
</trkpt>
<trkpt lat="-27.2755772" lon="151.2892427">
  <ele>437.77</ele>
  <time>2026-09-01T19:59:11Z</time>
  <course>12.82</course>
  <speed>26.39371137221895</speed>
  <fix>3d</fix>
</trkpt>
<trkpt lat="-27.2756225" lon="151.2892305">
  <ele>437.91</ele>
  <time>2026-09-01T19:59:11Z</time>
  <course>13.56</course>
  <speed>26.31</speed>
  <fix>3d</fix>
</trkpt>
<trkpt lat="-27.275554" lon="151.289249">
  <ele>437.78</ele>
  <time>2026-09-01T19:59:11Z</time>
  <course>12.79</course>
  <speed>26.42287834434394</speed>
  <fix>3d</fix>
</trkpt>
<trkpt lat="-27.2755765" lon="151.289243">
  <ele>437.91</ele>
  <time>2026-09-01T19:59:11Z</time>
  <course>13.51</course>
  <speed>26.38</speed>
  <fix>3d</fix>
</trkpt>
<trkpt lat="-27.2755308" lon="151.2892553">
  <ele>437.81</ele>
  <time>2026-09-01T19:59:11Z</time>
  <course>12.73</course>
  <speed>26.459436879873316</speed>
  <fix>3d</fix>
</trkpt>
<trkpt lat="-27.2755765" lon="151.289243">
  <ele>437.91</ele>
  <time>2026-09-01T19:59:11Z</time>
  <course>13.51</course>
  <speed>26.38</speed>
  <fix>3d</fix>
</trkpt>
<trkpt lat="-27.2755076" lon="151.2892615">
  <ele>437.84</ele>
  <time>2026-09-01T19:59:11Z</time>
  <course>12.7</course>
  <speed>26.476557555694434</speed>
  <fix>3d</fix>
</trkpt>
<trkpt lat="-27.2755304" lon="151.2892554">
  <ele>437.96</ele>
  <time>2026-09-01T19:59:11Z</time>
  <course>13.46</course>
  <speed>26.43</speed>
  <fix>3d</fix>
</trkpt>
<trkpt lat="-27.2754844" lon="151.2892678">
  <ele>437.88</ele>
  <time>2026-09-01T19:59:11Z</time>
  <course>12.65</course>
  <speed>26.503412987764424</speed>
  <fix>3d</fix>
</trkpt>
<trkpt lat="-27.2755304" lon="151.2892554">
  <ele>437.96</ele>
  <time>2026-09-01T19:59:11Z</time>
  <course>13.46</course>
  <speed>26.43</speed>
  <fix>3d</fix>
</trkpt>
<trkpt lat="-27.2754612" lon="151.289274">
  <ele>437.93</ele>
  <time>2026-09-01T19:59:11Z</time>
  <course>12.68</course>
  <speed>26.520550522189392</speed>
  <fix>3d</fix>
</trkpt>
<trkpt lat="-27.275484" lon="151.2892679">
  <ele>438.03</ele>
  <time>2026-09-01T19:59:11Z</time>
  <course>13.38</course>
  <speed>26.47</speed>
  <fix>3d</fix>
</trkpt>
<trkpt lat="-27.275438" lon="151.2892802">
  <ele>437.99</ele>
  <time>2026-09-01T19:59:11Z</time>
  <course>12.65</course>
  <speed>26.53027892804748</speed>
  <fix>3d</fix>
</trkpt>
<trkpt lat="-27.275484" lon="151.2892679">
  <ele>438.03</ele>
  <time>2026-09-01T19:59:11Z</time>
  <course>13.38</course>
  <speed>26.47</speed>
  <fix>3d</fix>
</trkpt>
<trkpt lat="-27.2754149" lon="151.2892864">
  <ele>438.05</ele>
  <time>2026-09-01T19:59:11Z</time>
  <course>12.63</course>
  <speed>26.535387692664298</speed>
  <fix>3d</fix>
</trkpt>
<trkpt lat="-27.2754376" lon="151.2892802">
  <ele>438.14</ele>
  <time>2026-09-01T19:59:11Z</time>
  <course>13.31</course>
  <speed>26.5</speed>
  <fix>3d</fix>
</trkpt>
<trkpt lat="-27.2753918" lon="151.2892925">
  <ele>438.12</ele>
  <time>2026-09-01T19:59:11Z</time>
  <course>12.58</course>
  <speed>26.5428144702102</speed>
  <fix>3d</fix>
</trkpt>
<trkpt lat="-27.2754376" lon="151.2892802">
  <ele>438.14</ele>
  <time>2026-09-01T19:59:11Z</time>
  <course>13.31</course>
  <speed>26.5</speed>
  <fix>3d</fix>
</trkpt>
<trkpt lat="-27.2753687" lon="151.2892986">
  <ele>438.19</ele>
  <time>2026-09-01T19:59:11Z</time>
  <course>12.46</course>
  <speed>26.538217724632528</speed>
  <fix>3d</fix>
</trkpt>
<trkpt lat="-27.2753913" lon="151.2892925">
  <ele>438.27</ele>
  <time>2026-09-01T19:59:11Z</time>
  <course>13.24</course>
  <speed>26.52</speed>
  <fix>3d</fix>
</trkpt>
<trkpt lat="-27.2753456" lon="151.2893047">
  <ele>438.27</ele>
  <time>2026-09-01T19:59:11Z</time>
  <course>12.42</course>
  <speed>26.53363525791368</speed>
  <fix>3d</fix>
</trkpt>
<trkpt lat="-27.2753913" lon="151.2892925">
  <ele>438.27</ele>
  <time>2026-09-01T19:59:11Z</time>
  <course>13.24</course>
  <speed>26.52</speed>
  <fix>3d</fix>
</trkpt>
<trkpt lat="-27.2753225" lon="151.2893108">
  <ele>438.35</ele>
  <time>2026-09-01T19:59:11Z</time>
  <course>12.42</course>
  <speed>26.529067077452986</speed>
  <fix>3d</fix>
</trkpt>
<trkpt lat="-27.2753449" lon="151.2893048">
  <ele>438.41</ele>
  <time>2026-09-01T19:59:11Z</time>
  <course>13.17</course>
  <speed>26.53</speed>
  <fix>3d</fix>
</trkpt>
<trkpt lat="-27.2752995" lon="151.2893169">
  <ele>438.44</ele>
  <time>2026-09-01T19:59:11Z</time>
  <course>12.36</course>
  <speed>26.526788346876824</speed>
  <fix>3d</fix>
</trkpt>
<trkpt lat="-27.2753449" lon="151.2893048">
  <ele>438.41</ele>
  <time>2026-09-01T19:59:11Z</time>
  <course>13.17</course>
  <speed>26.53</speed>
  <fix>3d</fix>
</trkpt>
<trkpt lat="-27.2752766" lon="151.2893229">
  <ele>438.52</ele>
  <time>2026-09-01T19:59:11Z</time>
  <course>12.3</course>
  <speed>26.52224160963775</speed>
  <fix>3d</fix>
</trkpt>
<trkpt lat="-27.2752985" lon="151.2893169">
  <ele>438.57</ele>
  <time>2026-09-01T19:59:11Z</time>
  <course>13.09</course>
  <speed>26.54</speed>
  <fix>3d</fix>
</trkpt>
<trkpt lat="-27.2752533" lon="151.2893289">
  <ele>438.61</ele>
  <time>2026-09-01T19:59:11Z</time>
  <course>12.26</course>
  <speed>26.517709177076362</speed>
  <fix>3d</fix>
</trkpt>
<trkpt lat="-27.2752985" lon="151.2893169">
  <ele>438.57</ele>
  <time>2026-09-01T19:59:11Z</time>
  <course>13.09</course>
  <speed>26.54</speed>
  <fix>3d</fix>
</trkpt>
<trkpt lat="-27.2752301" lon="151.289335">
  <ele>438.71</ele>
  <time>2026-09-01T19:59:11Z</time>
  <course>12.26</course>
  <speed>26.51319105652882</speed>
  <fix>3d</fix>
</trkpt>
<trkpt lat="-27.275252" lon="151.2893291">
  <ele>438.74</ele>
  <time>2026-09-01T19:59:11Z</time>
  <course>13.02</course>
  <speed>26.53</speed>
  <fix>3d</fix>
</trkpt>
<trkpt lat="-27.2752068" lon="151.289341">
  <ele>438.8</ele>
  <time>2026-09-01T19:59:11Z</time>
  <course>12.27</course>
  <speed>26.51093736554783</speed>
  <fix>3d</fix>
</trkpt>
<trkpt lat="-27.275252" lon="151.2893291">
  <ele>438.74</ele>
  <time>2026-09-01T19:59:11Z</time>
  <course>13.02</course>
  <speed>26.53</speed>
  <fix>3d</fix>
</trkpt>
<trkpt lat="-27.2751835" lon="151.289347">
  <ele>438.9</ele>
  <time>2026-09-01T19:59:11Z</time>
  <course>12.25</course>
  <speed>26.508687255313117</speed>
  <fix>3d</fix>
</trkpt>
<trkpt lat="-27.2752056" lon="151.2893411">
  <ele>438.92</ele>
  <time>2026-09-01T19:59:11Z</time>
  <course>12.95</course>
  <speed>26.52</speed>
  <fix>3d</fix>
</trkpt>
<trkpt lat="-27.27516" lon="151.2893531">
  <ele>439.0</ele>
  <time>2026-09-01T19:59:11Z</time>
  <course>12.2</course>
  <speed>26.506440726736585</speed>
  <fix>3d</fix>
</trkpt>
<trkpt lat="-27.2752056" lon="151.2893411">
  <ele>438.92</ele>
  <time>2026-09-01T19:59:11Z</time>
  <course>12.95</course>
  <speed>26.52</speed>
  <fix>3d</fix>
</trkpt>
<trkpt lat="-27.2751367" lon="151.2893591">
  <ele>439.09</ele>
  <time>2026-09-01T19:59:11Z</time>
  <course>12.13</course>
  <speed>26.504197780729</speed>
  <fix>3d</fix>
</trkpt>
<trkpt lat="-27.2751592" lon="151.2893532">
  <ele>439.11</ele>
  <time>2026-09-01T19:59:11Z</time>
  <course>12.9</course>
  <speed>26.5</speed>
  <fix>3d</fix>
</trkpt>
<trkpt lat="-27.2751134" lon="151.2893651">
  <ele>439.19</ele>
  <time>2026-09-01T19:59:11Z</time>
  <course>12.06</course>
  <speed>26.499722640057954</speed>
  <fix>3d</fix>
</trkpt>
<trkpt lat="-27.2751592" lon="151.2893532">
  <ele>439.11</ele>
  <time>2026-09-01T19:59:11Z</time>
  <course>12.9</course>
  <speed>26.5</speed>
  <fix>3d</fix>
</trkpt>
<trkpt lat="-27.2750899" lon="151.2893711">
  <ele>439.28</ele>
  <time>2026-09-01T19:59:11Z</time>
  <course>11.98</course>
  <speed>26.495261840563117</speed>
  <fix>3d</fix>
</trkpt>
<trkpt lat="-27.2751128" lon="151.2893651">
  <ele>439.3</ele>
  <time>2026-09-01T19:59:11Z</time>
  <course>12.85</course>
  <speed>26.48</speed>
  <fix>3d</fix>
</trkpt>
<trkpt lat="-27.2750666" lon="151.2893771">
  <ele>439.38</ele>
  <time>2026-09-01T19:59:11Z</time>
  <course>11.99</course>
  <speed>26.49081538948924</speed>
  <fix>3d</fix>
</trkpt>
<trkpt lat="-27.2751128" lon="151.2893651">
  <ele>439.3</ele>
  <time>2026-09-01T19:59:11Z</time>
  <course>12.85</course>
  <speed>26.48</speed>
  <fix>3d</fix>
</trkpt>
<trkpt lat="-27.2750433" lon="151.289383">
  <ele>439.48</ele>
  <time>2026-09-01T19:59:11Z</time>
  <course>12.02</course>
  <speed>26.488597546869105</speed>
  <fix>3d</fix>
</trkpt>
<trkpt lat="-27.2750665" lon="151.289377">
  <ele>439.48</ele>
  <time>2026-09-01T19:59:11Z</time>
  <course>12.77</course>
  <speed>26.46</speed>
  <fix>3d</fix>
</trkpt>
<trkpt lat="-27.27502" lon="151.289389">
  <ele>439.57</ele>
  <time>2026-09-01T19:59:11Z</time>
  <course>12.01</course>
  <speed>26.474419729240527</speed>
  <fix>3d</fix>
</trkpt>
<trkpt lat="-27.2750665" lon="151.289377">
  <ele>439.48</ele>
  <time>2026-09-01T19:59:11Z</time>
  <course>12.77</course>
  <speed>26.46</speed>
  <fix>3d</fix>
</trkpt>
<trkpt lat="-27.2749968" lon="151.2893949">
  <ele>439.67</ele>
  <time>2026-09-01T19:59:11Z</time>
  <course>11.99</course>
  <speed>26.472211845631637</speed>
  <fix>3d</fix>
</trkpt>
<trkpt lat="-27.27502" lon="151.2893887">
  <ele>439.68</ele>
  <time>2026-09-01T19:59:11Z</time>
  <course>12.7</course>
  <speed>26.44</speed>
  <fix>3d</fix>
</trkpt>
<trkpt lat="-27.2749737" lon="151.2894007">
  <ele>439.77</ele>
  <time>2026-09-01T19:59:11Z</time>
  <course>11.95</course>
  <speed>26.438541941642697</speed>
  <fix>3d</fix>
</trkpt>
<trkpt lat="-27.27502" lon="151.2893887">
  <ele>439.68</ele>
  <time>2026-09-01T19:59:11Z</time>
  <course>12.7</course>
  <speed>26.44</speed>
  <fix>3d</fix>
</trkpt>
<trkpt lat="-27.2749506" lon="151.2894066">
  <ele>439.87</ele>
  <time>2026-09-01T19:59:11Z</time>
  <course>11.86</course>
  <speed>26.424390248404976</speed>
  <fix>3d</fix>
</trkpt>
<trkpt lat="-27.2749736" lon="151.2894005">
  <ele>439.87</ele>
  <time>2026-09-01T19:59:11Z</time>
  <course>12.65</course>
  <speed>26.41</speed>
  <fix>3d</fix>
</trkpt>
<trkpt lat="-27.2749276" lon="151.2894123">
  <ele>439.97</ele>
  <time>2026-09-01T19:59:11Z</time>
  <course>11.81</course>
  <speed>26.400492419650053</speed>
  <fix>3d</fix>
</trkpt>
<trkpt lat="-27.2749736" lon="151.2894005">
  <ele>439.87</ele>
  <time>2026-09-01T19:59:11Z</time>
  <course>12.65</course>
  <speed>26.41</speed>
  <fix>3d</fix>
</trkpt>
<trkpt lat="-27.2749046" lon="151.2894181">
  <ele>440.06</ele>
  <time>2026-09-01T19:59:11Z</time>
  <course>11.74</course>
  <speed>26.374421320665974</speed>
  <fix>3d</fix>
</trkpt>
<trkpt lat="-27.2749274" lon="151.2894121">
  <ele>440.07</ele>
  <time>2026-09-01T19:59:11Z</time>
  <course>12.58</course>
  <speed>26.37</speed>
  <fix>3d</fix>
</trkpt>
<trkpt lat="-27.2748816" lon="151.2894238">
  <ele>440.16</ele>
  <time>2026-09-01T19:59:11Z</time>
  <course>11.71</course>
  <speed>26.34078586526985</speed>
  <fix>3d</fix>
</trkpt>
<trkpt lat="-27.2749274" lon="151.2894121">
  <ele>440.07</ele>
  <time>2026-09-01T19:59:11Z</time>
  <course>12.58</course>
  <speed>26.37</speed>
  <fix>3d</fix>
</trkpt>
<trkpt lat="-27.2748587" lon="151.2894296">
  <ele>440.25</ele>
  <time>2026-09-01T19:59:11Z</time>
  <course>11.67</course>
  <speed>26.316918512622255</speed>
  <fix>3d</fix>
</trkpt>
<trkpt lat="-27.2748812" lon="151.2894237">
  <ele>440.26</ele>
  <time>2026-09-01T19:59:11Z</time>
  <course>12.5</course>
  <speed>26.33</speed>
  <fix>3d</fix>
</trkpt>
<trkpt lat="-27.2748359" lon="151.2894352">
  <ele>440.35</ele>
  <time>2026-09-01T19:59:11Z</time>
  <course>11.66</course>
  <speed>26.281133917698455</speed>
  <fix>3d</fix>
</trkpt>
<trkpt lat="-27.2748812" lon="151.2894237">
  <ele>440.26</ele>
  <time>2026-09-01T19:59:12Z</time>
  <course>12.5</course>
  <speed>26.33</speed>
  <fix>3d</fix>
</trkpt>
<trkpt lat="-27.2748131" lon="151.2894409">
  <ele>440.44</ele>
  <time>2026-09-01T19:59:12Z</time>
  <course>11.62</course>
  <speed>26.25728851195416</speed>
  <fix>3d</fix>
</trkpt>
<trkpt lat="-27.274835" lon="151.2894352">
  <ele>440.45</ele>
  <time>2026-09-01T19:59:12Z</time>
  <course>12.43</course>
  <speed>26.29</speed>
  <fix>3d</fix>
</trkpt>
<trkpt lat="-27.2747905" lon="151.2894465">
  <ele>440.53</ele>
  <time>2026-09-01T19:59:12Z</time>
  <course>11.62</course>
  <speed>26.22368585839908</speed>
  <fix>3d</fix>
</trkpt>
<trkpt lat="-27.274835" lon="151.2894352">
  <ele>440.45</ele>
  <time>2026-09-01T19:59:12Z</time>
  <course>12.43</course>
  <speed>26.29</speed>
  <fix>3d</fix>
</trkpt>
<trkpt lat="-27.2747677" lon="151.2894521">
  <ele>440.62</ele>
  <time>2026-09-01T19:59:12Z</time>
  <course>11.58</course>
  <speed>26.20200374017224</speed>
  <fix>3d</fix>
</trkpt>
<trkpt lat="-27.2747889" lon="151.2894466">
  <ele>440.63</ele>
  <time>2026-09-01T19:59:12Z</time>
  <course>12.37</course>
  <speed>26.26</speed>
  <fix>3d</fix>
</trkpt>
<trkpt lat="-27.2747449" lon="151.2894577">
  <ele>440.7</ele>
  <time>2026-09-01T19:59:12Z</time>
  <course>11.56</course>
  <speed>26.16841034529992</speed>
  <fix>3d</fix>
</trkpt>
<trkpt lat="-27.2747889" lon="151.2894466">
  <ele>440.63</ele>
  <time>2026-09-01T19:59:12Z</time>
  <course>12.37</course>
  <speed>26.26</speed>
  <fix>3d</fix>
</trkpt>
<trkpt lat="-27.274722" lon="151.2894633">
  <ele>440.79</ele>
  <time>2026-09-01T19:59:12Z</time>
  <course>11.58</course>
  <speed>26.148875692847675</speed>
  <fix>3d</fix>
</trkpt>
<trkpt lat="-27.2747429" lon="151.289458">
  <ele>440.8</ele>
  <time>2026-09-01T19:59:12Z</time>
  <course>12.34</course>
  <speed>26.22</speed>
  <fix>3d</fix>
</trkpt>
<trkpt lat="-27.2746989" lon="151.289469">
  <ele>440.87</ele>
  <time>2026-09-01T19:59:12Z</time>
  <course>11.51</course>
  <speed>26.12719655837572</speed>
  <fix>3d</fix>
</trkpt>
<trkpt lat="-27.2747429" lon="151.289458">
  <ele>440.8</ele>
  <time>2026-09-01T19:59:12Z</time>
  <course>12.34</course>
  <speed>26.22</speed>
  <fix>3d</fix>
</trkpt>
<trkpt lat="-27.274676" lon="151.2894746">
  <ele>440.95</ele>
  <time>2026-09-01T19:59:12Z</time>
  <course>11.43</course>
  <speed>26.1152867110434</speed>
  <fix>3d</fix>
</trkpt>
<trkpt lat="-27.2746969" lon="151.2894693">
  <ele>440.97</ele>
  <time>2026-09-01T19:59:12Z</time>
  <course>12.33</course>
  <speed>26.18</speed>
  <fix>3d</fix>
</trkpt>
<trkpt lat="-27.2746531" lon="151.2894803">
  <ele>441.03</ele>
  <time>2026-09-01T19:59:12Z</time>
  <course>11.5</course>
  <speed>26.09361032896751</speed>
  <fix>3d</fix>
</trkpt>
<trkpt lat="-27.2746969" lon="151.2894693">
  <ele>440.97</ele>
  <time>2026-09-01T19:59:12Z</time>
  <course>12.33</course>
  <speed>26.18</speed>
  <fix>3d</fix>
</trkpt>
<trkpt lat="-27.2746302" lon="151.2894859">
  <ele>441.1</ele>
  <time>2026-09-01T19:59:12Z</time>
  <course>11.51</course>
  <speed>26.083841741584003</speed>
  <fix>3d</fix>
</trkpt>
<trkpt lat="-27.2746509" lon="151.2894806">
  <ele>441.12</ele>
  <time>2026-09-01T19:59:12Z</time>
  <course>12.32</course>
  <speed>26.15</speed>
  <fix>3d</fix>
</trkpt>
<trkpt lat="-27.2746073" lon="151.2894915">
  <ele>441.18</ele>
  <time>2026-09-01T19:59:12Z</time>
  <course>11.46</course>
  <speed>26.0719351027115</speed>
  <fix>3d</fix>
</trkpt>
<trkpt lat="-27.2746509" lon="151.2894806">
  <ele>441.12</ele>
  <time>2026-09-01T19:59:12Z</time>
  <course>12.32</course>
  <speed>26.15</speed>
  <fix>3d</fix>
</trkpt>
<trkpt lat="-27.2745844" lon="151.2894971">
  <ele>441.25</ele>
  <time>2026-09-01T19:59:12Z</time>
  <course>11.43</course>
  <speed>26.062166065006956</speed>
  <fix>3d</fix>
</trkpt>
<trkpt lat="-27.2746051" lon="151.2894918">
  <ele>441.27</ele>
  <time>2026-09-01T19:59:12Z</time>
  <course>12.31</course>
  <speed>26.12</speed>
  <fix>3d</fix>
</trkpt>
<trkpt lat="-27.2745615" lon="151.2895028">
  <ele>441.32</ele>
  <time>2026-09-01T19:59:12Z</time>
  <course>11.4</course>
  <speed>26.050261035160474</speed>
  <fix>3d</fix>
</trkpt>
<trkpt lat="-27.2746051" lon="151.2894918">
  <ele>441.27</ele>
  <time>2026-09-01T19:59:12Z</time>
  <course>12.31</course>
  <speed>26.12</speed>
  <fix>3d</fix>
</trkpt>
<trkpt lat="-27.2745386" lon="151.2895084">
  <ele>441.38</ele>
  <time>2026-09-01T19:59:12Z</time>
  <course>11.42</course>
  <speed>26.040491546819926</speed>
  <fix>3d</fix>
</trkpt>
<trkpt lat="-27.2745593" lon="151.2895031">
  <ele>441.41</ele>
  <time>2026-09-01T19:59:12Z</time>
  <course>12.3</course>
  <speed>26.08</speed>
  <fix>3d</fix>
</trkpt>
<trkpt lat="-27.2745157" lon="151.289514">
  <ele>441.45</ele>
  <time>2026-09-01T19:59:12Z</time>
  <course>11.43</course>
  <speed>26.01881818991785</speed>
  <fix>3d</fix>
</trkpt>
<trkpt lat="-27.2745593" lon="151.2895031">
  <ele>441.41</ele>
  <time>2026-09-01T19:59:12Z</time>
  <course>12.3</course>
  <speed>26.08</speed>
  <fix>3d</fix>
</trkpt>
<trkpt lat="-27.2744928" lon="151.2895196">
  <ele>441.51</ele>
  <time>2026-09-01T19:59:12Z</time>
  <course>11.42</course>
  <speed>26.009048425499923</speed>
  <fix>3d</fix>
</trkpt>
<trkpt lat="-27.2745134" lon="151.2895143">
  <ele>441.54</ele>
  <time>2026-09-01T19:59:12Z</time>
  <course>12.3</course>
  <speed>26.05</speed>
  <fix>3d</fix>
</trkpt>
<trkpt lat="-27.2744699" lon="151.2895252">
  <ele>441.56</ele>
  <time>2026-09-01T19:59:12Z</time>
  <course>11.43</course>
  <speed>25.99927883615236</speed>
  <fix>3d</fix>
</trkpt>
<trkpt lat="-27.2745134" lon="151.2895143">
  <ele>441.54</ele>
  <time>2026-09-01T19:59:12Z</time>
  <course>12.3</course>
  <speed>26.05</speed>
  <fix>3d</fix>
</trkpt>
<trkpt lat="-27.2744469" lon="151.2895308">
  <ele>441.62</ele>
  <time>2026-09-01T19:59:12Z</time>
  <course>11.47</course>
  <speed>25.977605740329494</speed>
  <fix>3d</fix>
</trkpt>
<trkpt lat="-27.2744677" lon="151.2895256">
  <ele>441.66</ele>
  <time>2026-09-01T19:59:12Z</time>
  <course>12.31</course>
  <speed>26.02</speed>
  <fix>3d</fix>
</trkpt>
<trkpt lat="-27.274424" lon="151.2895364">
  <ele>441.67</ele>
  <time>2026-09-01T19:59:12Z</time>
  <course>11.46</course>
  <speed>25.967835874404322</speed>
  <fix>3d</fix>
</trkpt>
<trkpt lat="-27.2744677" lon="151.2895256">
  <ele>441.66</ele>
  <time>2026-09-01T19:59:12Z</time>
  <course>12.31</course>
  <speed>26.02</speed>
  <fix>3d</fix>
</trkpt>
<trkpt lat="-27.2744011" lon="151.289542">
  <ele>441.73</ele>
  <time>2026-09-01T19:59:12Z</time>
  <course>11.44</course>
  <speed>25.958066183751054</speed>
  <fix>3d</fix>
</trkpt>
<trkpt lat="-27.274422" lon="151.2895368">
  <ele>441.77</ele>
  <time>2026-09-01T19:59:12Z</time>
  <course>12.31</course>
  <speed>25.99</speed>
  <fix>3d</fix>
</trkpt>
<trkpt lat="-27.2743783" lon="151.2895476">
  <ele>441.78</ele>
  <time>2026-09-01T19:59:12Z</time>
  <course>11.44</course>
  <speed>25.955933810980486</speed>
  <fix>3d</fix>
</trkpt>
<trkpt lat="-27.274422" lon="151.2895368">
  <ele>441.77</ele>
  <time>2026-09-01T19:59:12Z</time>
  <course>12.31</course>
  <speed>25.99</speed>
  <fix>3d</fix>
</trkpt>
<trkpt lat="-27.2743554" lon="151.2895532">
  <ele>441.84</ele>
  <time>2026-09-01T19:59:12Z</time>
  <course>11.42</course>
  <speed>25.944033996277447</speed>
  <fix>3d</fix>
</trkpt>
<trkpt lat="-27.2743764" lon="151.289548">
  <ele>441.88</ele>
  <time>2026-09-01T19:59:12Z</time>
  <course>12.3</course>
  <speed>25.96</speed>
  <fix>3d</fix>
</trkpt>
<trkpt lat="-27.2743326" lon="151.2895588">
  <ele>441.9</ele>
  <time>2026-09-01T19:59:12Z</time>
  <course>11.38</course>
  <speed>25.932136433390905</speed>
  <fix>3d</fix>
</trkpt>
<trkpt lat="-27.2743764" lon="151.289548">
  <ele>441.88</ele>
  <time>2026-09-01T19:59:12Z</time>
  <course>12.3</course>
  <speed>25.96</speed>
  <fix>3d</fix>
</trkpt>
<trkpt lat="-27.2743099" lon="151.2895644">
  <ele>441.95</ele>
  <time>2026-09-01T19:59:12Z</time>
  <course>11.35</course>
  <speed>25.930013497875393</speed>
  <fix>3d</fix>
</trkpt>
<trkpt lat="-27.2743309" lon="151.2895591">
  <ele>442.0</ele>
  <time>2026-09-01T19:59:12Z</time>
  <course>12.27</course>
  <speed>25.93</speed>
  <fix>3d</fix>
</trkpt>
<trkpt lat="-27.2742871" lon="151.2895699">
  <ele>442.01</ele>
  <time>2026-09-01T19:59:12Z</time>
  <course>11.35</course>
  <speed>25.91812107387416</speed>
  <fix>3d</fix>
</trkpt>
<trkpt lat="-27.2743309" lon="151.2895591">
  <ele>442.0</ele>
  <time>2026-09-01T19:59:12Z</time>
  <course>12.27</course>
  <speed>25.93</speed>
  <fix>3d</fix>
</trkpt>
<trkpt lat="-27.2742643" lon="151.2895755">
  <ele>442.06</ele>
  <time>2026-09-01T19:59:12Z</time>
  <course>11.39</course>
  <speed>25.90623091072879</speed>
  <fix>3d</fix>
</trkpt>
<trkpt lat="-27.2742854" lon="151.2895703">
  <ele>442.11</ele>
  <time>2026-09-01T19:59:12Z</time>
  <course>12.23</course>
  <speed>25.91</speed>
  <fix>3d</fix>
</trkpt>
<trkpt lat="-27.2742415" lon="151.289581">
  <ele>442.11</ele>
  <time>2026-09-01T19:59:12Z</time>
  <course>11.42</course>
  <speed>25.8943430115537</speed>
  <fix>3d</fix>
</trkpt>
<trkpt lat="-27.2742854" lon="151.2895703">
  <ele>442.11</ele>
  <time>2026-09-01T19:59:12Z</time>
  <course>12.23</course>
  <speed>25.91</speed>
  <fix>3d</fix>
</trkpt>
<trkpt lat="-27.2742186" lon="151.2895866">
  <ele>442.16</ele>
  <time>2026-09-01T19:59:12Z</time>
  <course>11.42</course>
  <speed>25.88456876210226</speed>
  <fix>3d</fix>
</trkpt>
<trkpt lat="-27.27424" lon="151.2895813">
  <ele>442.2</ele>
  <time>2026-09-01T19:59:12Z</time>
  <course>12.22</course>
  <speed>25.88</speed>
  <fix>3d</fix>
</trkpt>
<trkpt lat="-27.2741958" lon="151.2895921">
  <ele>442.21</ele>
  <time>2026-09-01T19:59:12Z</time>
  <course>11.41</course>
  <speed>25.874794685175765</speed>
  <fix>3d</fix>
</trkpt>
<trkpt lat="-27.27424" lon="151.2895813">
  <ele>442.2</ele>
  <time>2026-09-01T19:59:12Z</time>
  <course>12.22</course>
  <speed>25.88</speed>
  <fix>3d</fix>
</trkpt>
<trkpt lat="-27.274173" lon="151.2895977">
  <ele>442.25</ele>
  <time>2026-09-01T19:59:12Z</time>
  <course>11.38</course>
  <speed>25.862907802488103</speed>
  <fix>3d</fix>
</trkpt>
<trkpt lat="-27.2741946" lon="151.2895924">
  <ele>442.29</ele>
  <time>2026-09-01T19:59:12Z</time>
  <course>12.22</course>
  <speed>25.85</speed>
  <fix>3d</fix>
</trkpt>
<trkpt lat="-27.2741504" lon="151.2896032">
  <ele>442.3</ele>
  <time>2026-09-01T19:59:12Z</time>
  <course>11.33</course>
  <speed>25.853133272390796</speed>
  <fix>3d</fix>
</trkpt>
<trkpt lat="-27.2741946" lon="151.2895924">
  <ele>442.29</ele>
  <time>2026-09-01T19:59:12Z</time>
  <course>12.22</course>
  <speed>25.85</speed>
  <fix>3d</fix>
</trkpt>
<trkpt lat="-27.2741278" lon="151.2896087">
  <ele>442.35</ele>
  <time>2026-09-01T19:59:12Z</time>
  <course>11.29</course>
  <speed>25.831473051299263</speed>
  <fix>3d</fix>
</trkpt>
<trkpt lat="-27.2741491" lon="151.2896035">
  <ele>442.38</ele>
  <time>2026-09-01T19:59:12Z</time>
  <course>12.21</course>
  <speed>25.83</speed>
  <fix>3d</fix>
</trkpt>
<trkpt lat="-27.2741051" lon="151.2896142">
  <ele>442.39</ele>
  <time>2026-09-01T19:59:12Z</time>
  <course>11.26</course>
  <speed>25.819589462266823</speed>
  <fix>3d</fix>
</trkpt>
<trkpt lat="-27.2741491" lon="151.2896035">
  <ele>442.38</ele>
  <time>2026-09-01T19:59:12Z</time>
  <course>12.21</course>
  <speed>25.83</speed>
  <fix>3d</fix>
</trkpt>
<trkpt lat="-27.2740824" lon="151.2896197">
  <ele>442.44</ele>
  <time>2026-09-01T19:59:12Z</time>
  <course>11.27</course>
  <speed>25.81748438558645</speed>
  <fix>3d</fix>
</trkpt>
<trkpt lat="-27.2741038" lon="151.2896145">
  <ele>442.47</ele>
  <time>2026-09-01T19:59:12Z</time>
  <course>12.2</course>
  <speed>25.8</speed>
  <fix>3d</fix>
</trkpt>
<trkpt lat="-27.2740597" lon="151.2896252">
  <ele>442.48</ele>
  <time>2026-09-01T19:59:12Z</time>
  <course>11.23</course>
  <speed>25.80560598009665</speed>
  <fix>3d</fix>
</trkpt>
<trkpt lat="-27.2741038" lon="151.2896145">
  <ele>442.47</ele>
  <time>2026-09-01T19:59:12Z</time>
  <course>12.2</course>
  <speed>25.8</speed>
  <fix>3d</fix>
</trkpt>
<trkpt lat="-27.274037" lon="151.2896307">
  <ele>442.51</ele>
  <time>2026-09-01T19:59:12Z</time>
  <course>11.29</course>
  <speed>25.80560598009665</speed>
  <fix>3d</fix>
</trkpt>
<trkpt lat="-27.2740585" lon="151.2896255">
  <ele>442.56</ele>
  <time>2026-09-01T19:59:12Z</time>
  <course>12.17</course>
  <speed>25.78</speed>
  <fix>3d</fix>
</trkpt>
<trkpt lat="-27.2740142" lon="151.2896362">
  <ele>442.55</ele>
  <time>2026-09-01T19:59:12Z</time>
  <course>11.36</course>
  <speed>25.795829120227946</speed>
  <fix>3d</fix>
</trkpt>
<trkpt lat="-27.2740585" lon="151.2896255">
  <ele>442.56</ele>
  <time>2026-09-01T19:59:12Z</time>
  <course>12.17</course>
  <speed>25.78</speed>
  <fix>3d</fix>
</trkpt>
<trkpt lat="-27.2739915" lon="151.2896417">
  <ele>442.58</ele>
  <time>2026-09-01T19:59:12Z</time>
  <course>11.3</course>
  <speed>25.795829120227946</speed>
  <fix>3d</fix>
</trkpt>
<trkpt lat="-27.2740132" lon="151.2896366">
  <ele>442.63</ele>
  <time>2026-09-01T19:59:12Z</time>
  <course>12.17</course>
  <speed>25.76</speed>
  <fix>3d</fix>
</trkpt>
<trkpt lat="-27.2739688" lon="151.2896472">
  <ele>442.61</ele>
  <time>2026-09-01T19:59:12Z</time>
  <course>11.3</course>
  <speed>25.786052431498703</speed>
  <fix>3d</fix>
</trkpt>
<trkpt lat="-27.2740132" lon="151.2896366">
  <ele>442.63</ele>
  <time>2026-09-01T19:59:12Z</time>
  <course>12.17</course>
  <speed>25.76</speed>
  <fix>3d</fix>
</trkpt>
<trkpt lat="-27.2739461" lon="151.2896527">
  <ele>442.65</ele>
  <time>2026-09-01T19:59:12Z</time>
  <course>11.3</course>
  <speed>25.786052431498703</speed>
  <fix>3d</fix>
</trkpt>
<trkpt lat="-27.2739679" lon="151.2896475">
  <ele>442.7</ele>
  <time>2026-09-01T19:59:12Z</time>
  <course>12.18</course>
  <speed>25.74</speed>
  <fix>3d</fix>
</trkpt>
<trkpt lat="-27.2739234" lon="151.2896582">
  <ele>442.68</ele>
  <time>2026-09-01T19:59:12Z</time>
  <course>11.32</course>
  <speed>25.77627591410365</speed>
  <fix>3d</fix>
</trkpt>
<trkpt lat="-27.2739679" lon="151.2896475">
  <ele>442.7</ele>
  <time>2026-09-01T19:59:12Z</time>
  <course>12.18</course>
  <speed>25.74</speed>
  <fix>3d</fix>
</trkpt>
<trkpt lat="-27.2739008" lon="151.2896637">
  <ele>442.71</ele>
  <time>2026-09-01T19:59:12Z</time>
  <course>11.32</course>
  <speed>25.774175059543612</speed>
  <fix>3d</fix>
</trkpt>
<trkpt lat="-27.2739228" lon="151.2896585">
  <ele>442.76</ele>
  <time>2026-09-01T19:59:12Z</time>
  <course>12.18</course>
  <speed>25.72</speed>
  <fix>3d</fix>
</trkpt>
<trkpt lat="-27.2738781" lon="151.2896692">
  <ele>442.74</ele>
  <time>2026-09-01T19:59:12Z</time>
  <course>11.31</course>
  <speed>25.76439791650486</speed>
  <fix>3d</fix>
</trkpt>
<trkpt lat="-27.2739228" lon="151.2896585">
  <ele>442.76</ele>
  <time>2026-09-01T19:59:12Z</time>
  <course>12.18</course>
  <speed>25.72</speed>
  <fix>3d</fix>
</trkpt>
<trkpt lat="-27.2738555" lon="151.2896747">
  <ele>442.77</ele>
  <time>2026-09-01T19:59:12Z</time>
  <course>11.29</course>
  <speed>25.76439791650486</speed>
  <fix>3d</fix>
</trkpt>
<trkpt lat="-27.2738776" lon="151.2896695">
  <ele>442.82</ele>
  <time>2026-09-01T19:59:12Z</time>
  <course>12.18</course>
  <speed>25.7</speed>
  <fix>3d</fix>
</trkpt>
<trkpt lat="-27.2738328" lon="151.2896802">
  <ele>442.8</ele>
  <time>2026-09-01T19:59:12Z</time>
  <course>11.27</course>
  <speed>25.752522206572312</speed>
  <fix>3d</fix>
</trkpt>
<trkpt lat="-27.2738776" lon="151.2896695">
  <ele>442.82</ele>
  <time>2026-09-01T19:59:12Z</time>
  <course>12.18</course>
  <speed>25.7</speed>
  <fix>3d</fix>
</trkpt>
<trkpt lat="-27.2738102" lon="151.2896857">
  <ele>442.83</ele>
  <time>2026-09-01T19:59:12Z</time>
  <course>11.28</course>
  <speed>25.750427180922646</speed>
  <fix>3d</fix>
</trkpt>
<trkpt lat="-27.2738325" lon="151.2896804">
  <ele>442.88</ele>
  <time>2026-09-01T19:59:12Z</time>
  <course>12.17</course>
  <speed>25.68</speed>
  <fix>3d</fix>
</trkpt>
<trkpt lat="-27.2737875" lon="151.2896911">
  <ele>442.86</ele>
  <time>2026-09-01T19:59:12Z</time>
  <course>11.25</course>
  <speed>25.740648787472313</speed>
  <fix>3d</fix>
</trkpt>
<trkpt lat="-27.2738325" lon="151.2896804">
  <ele>442.88</ele>
  <time>2026-09-01T19:59:12Z</time>
  <course>12.17</course>
  <speed>25.68</speed>
  <fix>3d</fix>
</trkpt>
<trkpt lat="-27.2737649" lon="151.2896966">
  <ele>442.88</ele>
  <time>2026-09-01T19:59:12Z</time>
  <course>11.18</course>
  <speed>25.73855668059109</speed>
  <fix>3d</fix>
</trkpt>
<trkpt lat="-27.2737874" lon="151.2896913">
  <ele>442.93</ele>
  <time>2026-09-01T19:59:12Z</time>
  <course>12.15</course>
  <speed>25.67</speed>
  <fix>3d</fix>
</trkpt>
<trkpt lat="-27.2737421" lon="151.2897021">
  <ele>442.91</ele>
  <time>2026-09-01T19:59:12Z</time>
  <course>11.16</course>
  <speed>25.736468289180625</speed>
  <fix>3d</fix>
</trkpt>
<trkpt lat="-27.2737874" lon="151.2896913">
  <ele>442.93</ele>
  <time>2026-09-01T19:59:12Z</time>
  <course>12.15</course>
  <speed>25.67</speed>
  <fix>3d</fix>
</trkpt>
<trkpt lat="-27.2737195" lon="151.2897076">
  <ele>442.93</ele>
  <time>2026-09-01T19:59:12Z</time>
  <course>11.15</course>
  <speed>25.73438361414549</speed>
  <fix>3d</fix>
</trkpt>
<trkpt lat="-27.2737424" lon="151.2897022">
  <ele>442.99</ele>
  <time>2026-09-01T19:59:12Z</time>
  <course>12.11</course>
  <speed>25.65</speed>
  <fix>3d</fix>
</trkpt>
<trkpt lat="-27.2736968" lon="151.289713">
  <ele>442.96</ele>
  <time>2026-09-01T19:59:12Z</time>
  <course>11.16</course>
  <speed>25.732302656388914</speed>
  <fix>3d</fix>
</trkpt>
<trkpt lat="-27.2737424" lon="151.2897022">
  <ele>442.99</ele>
  <time>2026-09-01T19:59:12Z</time>
  <course>12.11</course>
  <speed>25.65</speed>
  <fix>3d</fix>
</trkpt>
<trkpt lat="-27.2736742" lon="151.2897184">
  <ele>442.98</ele>
  <time>2026-09-01T19:59:12Z</time>
  <course>11.19</course>
  <speed>25.720443231017615</speed>
  <fix>3d</fix>
</trkpt>
<trkpt lat="-27.2736973" lon="151.2897131">
  <ele>443.04</ele>
  <time>2026-09-01T19:59:12Z</time>
  <course>12.08</course>
  <speed>25.64</speed>
  <fix>3d</fix>
</trkpt>
<trkpt lat="-27.2736516" lon="151.2897239">
  <ele>443.01</ele>
  <time>2026-09-01T19:59:12Z</time>
  <course>11.26</course>
  <speed>25.720443231017615</speed>
  <fix>3d</fix>
</trkpt>
<trkpt lat="-27.2736973" lon="151.2897131">
  <ele>443.04</ele>
  <time>2026-09-01T19:59:12Z</time>
  <course>12.08</course>
  <speed>25.64</speed>
  <fix>3d</fix>
</trkpt>
<trkpt lat="-27.273629" lon="151.2897293">
  <ele>443.03</ele>
  <time>2026-09-01T19:59:12Z</time>
  <course>11.22</course>
  <speed>25.720443231017615</speed>
  <fix>3d</fix>
</trkpt>
<trkpt lat="-27.2736523" lon="151.2897239">
  <ele>443.09</ele>
  <time>2026-09-01T19:59:12Z</time>
  <course>12.07</course>
  <speed>25.62</speed>
  <fix>3d</fix>
</trkpt>
<trkpt lat="-27.2736065" lon="151.2897347">
  <ele>443.05</ele>
  <time>2026-09-01T19:59:12Z</time>
  <course>11.18</course>
  <speed>25.710661212812088</speed>
  <fix>3d</fix>
</trkpt>
<trkpt lat="-27.2736523" lon="151.2897239">
  <ele>443.09</ele>
  <time>2026-09-01T19:59:12Z</time>
  <course>12.07</course>
  <speed>25.62</speed>
  <fix>3d</fix>
</trkpt>
<trkpt lat="-27.2735839" lon="151.2897401">
  <ele>443.08</ele>
  <time>2026-09-01T19:59:12Z</time>
  <course>11.18</course>
  <speed>25.698803474091942</speed>
  <fix>3d</fix>
</trkpt>
<trkpt lat="-27.2736072" lon="151.2897348">
  <ele>443.13</ele>
  <time>2026-09-01T19:59:12Z</time>
  <course>12.06</course>
  <speed>25.61</speed>
  <fix>3d</fix>
</trkpt>
<trkpt lat="-27.2735614" lon="151.2897455">
  <ele>443.1</ele>
  <time>2026-09-01T19:59:12Z</time>
  <course>11.14</course>
  <speed>25.686948047598026</speed>
  <fix>3d</fix>
</trkpt>
<trkpt lat="-27.2736072" lon="151.2897348">
  <ele>443.13</ele>
  <time>2026-09-01T19:59:12Z</time>
  <course>12.06</course>
  <speed>25.61</speed>
  <fix>3d</fix>
</trkpt>
<trkpt lat="-27.2735388" lon="151.2897509">
  <ele>443.13</ele>
  <time>2026-09-01T19:59:12Z</time>
  <course>11.09</course>
  <speed>25.684878820037287</speed>
  <fix>3d</fix>
</trkpt>
<trkpt lat="-27.2735621" lon="151.2897457">
  <ele>443.18</ele>
  <time>2026-09-01T19:59:12Z</time>
  <course>12.03</course>
  <speed>25.59</speed>
  <fix>3d</fix>
</trkpt>
<trkpt lat="-27.2735164" lon="151.2897563">
  <ele>443.15</ele>
  <time>2026-09-01T19:59:12Z</time>
  <course>11.1</course>
  <speed>25.684878820037287</speed>
  <fix>3d</fix>
</trkpt>
<trkpt lat="-27.2735621" lon="151.2897457">
  <ele>443.18</ele>
  <time>2026-09-01T19:59:12Z</time>
  <course>12.03</course>
  <speed>25.59</speed>
  <fix>3d</fix>
</trkpt>
<trkpt lat="-27.2734939" lon="151.2897617">
  <ele>443.16</ele>
  <time>2026-09-01T19:59:12Z</time>
  <course>11.11</course>
  <speed>25.67509493653334</speed>
  <fix>3d</fix>
</trkpt>
<trkpt lat="-27.2735172" lon="151.2897564">
  <ele>443.22</ele>
  <time>2026-09-01T19:59:12Z</time>
  <course>12.01</course>
  <speed>25.57</speed>
  <fix>3d</fix>
</trkpt>
<trkpt lat="-27.2734716" lon="151.289767">
  <ele>443.18</ele>
  <time>2026-09-01T19:59:12Z</time>
  <course>11.13</course>
  <speed>25.66324414410618</speed>
  <fix>3d</fix>
</trkpt>
<trkpt lat="-27.2735172" lon="151.2897564">
  <ele>443.22</ele>
  <time>2026-09-01T19:59:12Z</time>
  <course>12.01</course>
  <speed>25.57</speed>
  <fix>3d</fix>
</trkpt>
<trkpt lat="-27.2734492" lon="151.2897724">
  <ele>443.19</ele>
  <time>2026-09-01T19:59:12Z</time>
  <course>11.13</course>
  <speed>25.653459805648048</speed>
  <fix>3d</fix>
</trkpt>
<trkpt lat="-27.2734723" lon="151.2897671">
  <ele>443.25</ele>
  <time>2026-09-01T19:59:12Z</time>
  <course>12.01</course>
  <speed>25.57</speed>
  <fix>3d</fix>
</trkpt>
<trkpt lat="-27.273427" lon="151.2897777">
  <ele>443.2</ele>
  <time>2026-09-01T19:59:12Z</time>
  <course>11.11</course>
  <speed>25.61225683144693</speed>
  <fix>3d</fix>
</trkpt>
<trkpt lat="-27.2734723" lon="151.2897671">
  <ele>443.25</ele>
  <time>2026-09-01T19:59:12Z</time>
  <course>12.01</course>
  <speed>25.57</speed>
  <fix>3d</fix>
</trkpt>
<trkpt lat="-27.2734048" lon="151.289783">
  <ele>443.21</ele>
  <time>2026-09-01T19:59:12Z</time>
  <course>11.08</course>
  <speed>25.52006661433312</speed>
  <fix>3d</fix>
</trkpt>
<trkpt lat="-27.2734274" lon="151.2897779">
  <ele>443.27</ele>
  <time>2026-09-01T19:59:12Z</time>
  <course>12.0</course>
  <speed>25.51</speed>
  <fix>3d</fix>
</trkpt>
<trkpt lat="-27.2733828" lon="151.2897883">
  <ele>443.22</ele>
  <time>2026-09-01T19:59:12Z</time>
  <course>11.17</course>
  <speed>25.371243564319034</speed>
  <fix>3d</fix>
</trkpt>
<trkpt lat="-27.2734274" lon="151.2897779">
  <ele>443.27</ele>
  <time>2026-09-01T19:59:12Z</time>
  <course>12.0</course>
  <speed>25.51</speed>
  <fix>3d</fix>
</trkpt>
<trkpt lat="-27.2733609" lon="151.2897936">
  <ele>443.25</ele>
  <time>2026-09-01T19:59:12Z</time>
  <course>11.57</course>
  <speed>25.14235470277197</speed>
  <fix>3d</fix>
</trkpt>
<trkpt lat="-27.2733827" lon="151.2897886">
  <ele>443.3</ele>
  <time>2026-09-01T19:59:12Z</time>
  <course>12.2</course>
  <speed>25.29</speed>
  <fix>3d</fix>
</trkpt>
<trkpt lat="-27.2733394" lon="151.2897991">
  <ele>443.33</ele>
  <time>2026-09-01T19:59:12Z</time>
  <course>12.28</course>
  <speed>24.829055559968445</speed>
  <fix>3d</fix>
</trkpt>
<trkpt lat="-27.2733827" lon="151.2897886">
  <ele>443.3</ele>
  <time>2026-09-01T19:59:12Z</time>
  <course>12.2</course>
  <speed>25.29</speed>
  <fix>3d</fix>
</trkpt>
<trkpt lat="-27.2733182" lon="151.2898049">
  <ele>443.47</ele>
  <time>2026-09-01T19:59:12Z</time>
  <course>13.35</course>
  <speed>24.425857200925417</speed>
  <fix>3d</fix>
</trkpt>
<trkpt lat="-27.2733388" lon="151.2897997">
  <ele>443.42</ele>
  <time>2026-09-01T19:59:12Z</time>
  <course>13.28</course>
  <speed>24.77</speed>
  <fix>3d</fix>
</trkpt>
<trkpt lat="-27.2732975" lon="151.2898111">
  <ele>443.65</ele>
  <time>2026-09-01T19:59:12Z</time>
  <course>14.69</course>
  <speed>23.959540897104016</speed>
  <fix>3d</fix>
</trkpt>
<trkpt lat="-27.2733388" lon="151.2897997">
  <ele>443.42</ele>
  <time>2026-09-01T19:59:12Z</time>
  <course>13.28</course>
  <speed>24.77</speed>
  <fix>3d</fix>
</trkpt>
<trkpt lat="-27.2732774" lon="151.2898177">
  <ele>443.87</ele>
  <time>2026-09-01T19:59:12Z</time>
  <course>16.14</course>
  <speed>23.493565076420396</speed>
  <fix>3d</fix>
</trkpt>
<trkpt lat="-27.2732964" lon="151.2898119">
  <ele>443.72</ele>
  <time>2026-09-01T19:59:12Z</time>
  <course>15.4</course>
  <speed>23.96</speed>
  <fix>3d</fix>
</trkpt>
<trkpt lat="-27.2732577" lon="151.2898247">
  <ele>444.13</ele>
  <time>2026-09-01T19:59:12Z</time>
  <course>17.55</course>
  <speed>23.006010084323616</speed>
  <fix>3d</fix>
</trkpt>
<trkpt lat="-27.2732964" lon="151.2898119">
  <ele>443.72</ele>
  <time>2026-09-01T19:59:12Z</time>
  <course>15.4</course>
  <speed>23.96</speed>
  <fix>3d</fix>
</trkpt>
<trkpt lat="-27.2732384" lon="151.2898321">
  <ele>444.42</ele>
  <time>2026-09-01T19:59:12Z</time>
  <course>18.84</course>
  <speed>22.512507634646123</speed>
  <fix>3d</fix>
</trkpt>
<trkpt lat="-27.2732559" lon="151.2898255">
  <ele>444.21</ele>
  <time>2026-09-01T19:59:12Z</time>
  <course>17.99</course>
  <speed>23.01</speed>
  <fix>3d</fix>
</trkpt>
<trkpt lat="-27.2732194" lon="151.2898399">
  <ele>444.75</ele>
  <time>2026-09-01T19:59:12Z</time>
  <course>19.99</course>
  <speed>22.008552882913495</speed>
  <fix>3d</fix>
</trkpt>
<trkpt lat="-27.2732559" lon="151.2898255">
  <ele>444.21</ele>
  <time>2026-09-01T19:59:12Z</time>
  <course>17.99</course>
  <speed>23.01</speed>
  <fix>3d</fix>
</trkpt>
<trkpt lat="-27.2732012" lon="151.289848">
  <ele>445.1</ele>
  <time>2026-09-01T19:59:12Z</time>
  <course>20.85</course>
  <speed>21.518438605066123</speed>
  <fix>3d</fix>
</trkpt>
<trkpt lat="-27.2732178" lon="151.2898405">
  <ele>444.82</ele>
  <time>2026-09-01T19:59:12Z</time>
  <course>20.57</course>
  <speed>22.02</speed>
  <fix>3d</fix>
</trkpt>
<trkpt lat="-27.2731836" lon="151.2898561">
  <ele>445.46</ele>
  <time>2026-09-01T19:59:12Z</time>
  <course>21.45</course>
  <speed>21.05792249961995</speed>
  <fix>3d</fix>
</trkpt>
<trkpt lat="-27.2732178" lon="151.2898405">
  <ele>444.82</ele>
  <time>2026-09-01T19:59:12Z</time>
  <course>20.57</course>
  <speed>22.02</speed>
  <fix>3d</fix>
</trkpt>
<trkpt lat="-27.2731665" lon="151.2898644">
  <ele>445.83</ele>
  <time>2026-09-01T19:59:12Z</time>
  <course>21.86</course>
  <speed>20.62098445758592</speed>
  <fix>3d</fix>
</trkpt>
<trkpt lat="-27.2731818" lon="151.2898566">
  <ele>445.51</ele>
  <time>2026-09-01T19:59:12Z</time>
  <course>22.67</course>
  <speed>21.08</speed>
  <fix>3d</fix>
</trkpt>
<trkpt lat="-27.2731497" lon="151.2898727">
  <ele>446.17</ele>
  <time>2026-09-01T19:59:12Z</time>
  <course>22.16</course>
  <speed>20.23600009883376</speed>
  <fix>3d</fix>
</trkpt>
<trkpt lat="-27.2731818" lon="151.2898566">
  <ele>445.51</ele>
  <time>2026-09-01T19:59:12Z</time>
  <course>22.67</course>
  <speed>21.08</speed>
  <fix>3d</fix>
</trkpt>
<trkpt lat="-27.2731334" lon="151.289881">
  <ele>446.5</ele>
  <time>2026-09-01T19:59:12Z</time>
  <course>22.41</course>
  <speed>19.881632226756434</speed>
  <fix>3d</fix>
</trkpt>
<trkpt lat="-27.2731477" lon="151.2898732">
  <ele>446.22</ele>
  <time>2026-09-01T19:59:12Z</time>
  <course>24.02</course>
  <speed>20.25</speed>
  <fix>3d</fix>
</trkpt>
<trkpt lat="-27.2731173" lon="151.2898892">
  <ele>446.8</ele>
  <time>2026-09-01T19:59:12Z</time>
  <course>22.64</course>
  <speed>19.54280686083757</speed>
  <fix>3d</fix>
</trkpt>
<trkpt lat="-27.2731477" lon="151.2898732">
  <ele>446.22</ele>
  <time>2026-09-01T19:59:12Z</time>
  <course>24.02</course>
  <speed>20.25</speed>
  <fix>3d</fix>
</trkpt>
<trkpt lat="-27.2731016" lon="151.2898974">
  <ele>447.05</ele>
  <time>2026-09-01T19:59:12Z</time>
  <course>22.85</course>
  <speed>19.245531949000526</speed>
  <fix>3d</fix>
</trkpt>
<trkpt lat="-27.2731151" lon="151.2898899">
  <ele>446.84</ele>
  <time>2026-09-01T19:59:12Z</time>
  <course>24.76</course>
  <speed>19.55</speed>
  <fix>3d</fix>
</trkpt>
<trkpt lat="-27.2730861" lon="151.2899055">
  <ele>447.27</ele>
  <time>2026-09-01T19:59:12Z</time>
  <course>23.05</course>
  <speed>18.953303142196614</speed>
  <fix>3d</fix>
</trkpt>
<trkpt lat="-27.2731151" lon="151.2898899">
  <ele>446.84</ele>
  <time>2026-09-01T19:59:12Z</time>
  <course>24.76</course>
  <speed>19.55</speed>
  <fix>3d</fix>
</trkpt>
<trkpt lat="-27.2730708" lon="151.2899136">
  <ele>447.46</ele>
  <time>2026-09-01T19:59:12Z</time>
  <course>23.24</course>
  <speed>18.68407075559285</speed>
  <fix>3d</fix>
</trkpt>
<trkpt lat="-27.2730838" lon="151.2899063">
  <ele>447.32</ele>
  <time>2026-09-01T19:59:12Z</time>
  <course>25.17</course>
  <speed>18.96</speed>
  <fix>3d</fix>
</trkpt>
<trkpt lat="-27.2730557" lon="151.2899216">
  <ele>447.6</ele>
  <time>2026-09-01T19:59:12Z</time>
  <course>23.42</course>
  <speed>18.437703219219035</speed>
  <fix>3d</fix>
</trkpt>
<trkpt lat="-27.2730838" lon="151.2899063">
  <ele>447.32</ele>
  <time>2026-09-01T19:59:12Z</time>
  <course>25.17</course>
  <speed>18.96</speed>
  <fix>3d</fix>
</trkpt>
<trkpt lat="-27.2730408" lon="151.2899296">
  <ele>447.72</ele>
  <time>2026-09-01T19:59:12Z</time>
  <course>23.58</course>
  <speed>18.200379116930502</speed>
  <fix>3d</fix>
</trkpt>
<trkpt lat="-27.2730534" lon="151.2899225">
  <ele>447.65</ele>
  <time>2026-09-01T19:59:12Z</time>
  <course>25.38</course>
  <speed>18.44</speed>
  <fix>3d</fix>
</trkpt>
<trkpt lat="-27.273026" lon="151.2899375">
  <ele>447.8</ele>
  <time>2026-09-01T19:59:12Z</time>
  <course>23.7</course>
  <speed>17.98584165392323</speed>
  <fix>3d</fix>
</trkpt>
<trkpt lat="-27.2730534" lon="151.2899225">
  <ele>447.65</ele>
  <time>2026-09-01T19:59:12Z</time>
  <course>25.38</course>
  <speed>18.44</speed>
  <fix>3d</fix>
</trkpt>
<trkpt lat="-27.2730114" lon="151.2899453">
  <ele>447.85</ele>
  <time>2026-09-01T19:59:12Z</time>
  <course>23.78</course>
  <speed>17.780340266710308</speed>
  <fix>3d</fix>
</trkpt>
<trkpt lat="-27.2730239" lon="151.2899383">
  <ele>447.84</ele>
  <time>2026-09-01T19:59:12Z</time>
  <course>25.42</course>
  <speed>17.98</speed>
  <fix>3d</fix>
</trkpt>
<trkpt lat="-27.2729969" lon="151.2899529">
  <ele>447.87</ele>
  <time>2026-09-01T19:59:12Z</time>
  <course>23.81</course>
  <speed>17.58388466750166</speed>
  <fix>3d</fix>
</trkpt>
<trkpt lat="-27.2730239" lon="151.2899383">
  <ele>447.84</ele>
  <time>2026-09-01T19:59:12Z</time>
  <course>25.42</course>
  <speed>17.98</speed>
  <fix>3d</fix>
</trkpt>
<trkpt lat="-27.2729826" lon="151.2899605">
  <ele>447.88</ele>
  <time>2026-09-01T19:59:12Z</time>
  <course>23.78</course>
  <speed>17.397002615393262</speed>
  <fix>3d</fix>
</trkpt>
<trkpt lat="-27.272995" lon="151.2899536">
  <ele>447.92</ele>
  <time>2026-09-01T19:59:12Z</time>
  <course>25.29</course>
  <speed>17.56</speed>
  <fix>3d</fix>
</trkpt>
<trkpt lat="-27.2729684" lon="151.289968">
  <ele>447.88</ele>
  <time>2026-09-01T19:59:12Z</time>
  <course>23.7</course>
  <speed>17.22412552206933</speed>
  <fix>3d</fix>
</trkpt>
<trkpt lat="-27.272995" lon="151.2899536">
  <ele>447.92</ele>
  <time>2026-09-01T19:59:12Z</time>
  <course>25.29</course>
  <speed>17.56</speed>
  <fix>3d</fix>
</trkpt>
<trkpt lat="-27.2729543" lon="151.2899753">
  <ele>447.86</ele>
  <time>2026-09-01T19:59:12Z</time>
  <course>23.56</course>
  <speed>17.051477941809033</speed>
  <fix>3d</fix>
</trkpt>
<trkpt lat="-27.2729668" lon="151.2899686">
  <ele>447.92</ele>
  <time>2026-09-01T19:59:12Z</time>
  <course>24.98</course>
  <speed>17.19</speed>
  <fix>3d</fix>
</trkpt>
<trkpt lat="-27.2729406" lon="151.2899824">
  <ele>447.83</ele>
  <time>2026-09-01T19:59:12Z</time>
  <course>23.37</course>
  <speed>16.879857819306416</speed>
  <fix>3d</fix>
</trkpt>
<trkpt lat="-27.2729668" lon="151.2899686">
  <ele>447.92</ele>
  <time>2026-09-01T19:59:12Z</time>
  <course>24.98</course>
  <speed>17.19</speed>
  <fix>3d</fix>
</trkpt>
<trkpt lat="-27.2729268" lon="151.2899894">
  <ele>447.79</ele>
  <time>2026-09-01T19:59:12Z</time>
  <course>23.14</course>
  <speed>16.717804879827973</speed>
  <fix>3d</fix>
</trkpt>
<trkpt lat="-27.272939" lon="151.289983">
  <ele>447.88</ele>
  <time>2026-09-01T19:59:12Z</time>
  <course>24.49</course>
  <speed>16.85</speed>
  <fix>3d</fix>
</trkpt>
<trkpt lat="-27.2729132" lon="151.2899962">
  <ele>447.76</ele>
  <time>2026-09-01T19:59:12Z</time>
  <course>22.85</course>
  <speed>16.561358639918407</speed>
  <fix>3d</fix>
</trkpt>
<trkpt lat="-27.272939" lon="151.289983">
  <ele>447.88</ele>
  <time>2026-09-01T19:59:12Z</time>
  <course>24.49</course>
  <speed>16.85</speed>
  <fix>3d</fix>
</trkpt>
<trkpt lat="-27.2728996" lon="151.2900029">
  <ele>447.72</ele>
  <time>2026-09-01T19:59:12Z</time>
  <course>22.52</course>
  <speed>16.40161272558281</speed>
  <fix>3d</fix>
</trkpt>
<trkpt lat="-27.2729117" lon="151.2899968">
  <ele>447.81</ele>
  <time>2026-09-01T19:59:12Z</time>
  <course>23.82</course>
  <speed>16.52</speed>
  <fix>3d</fix>
</trkpt>
<trkpt lat="-27.272886" lon="151.2900094">
  <ele>447.68</ele>
  <time>2026-09-01T19:59:12Z</time>
  <course>22.15</course>
  <speed>16.247990644999767</speed>
  <fix>3d</fix>
</trkpt>
<trkpt lat="-27.2729117" lon="151.2899968">
  <ele>447.81</ele>
  <time>2026-09-01T19:59:12Z</time>
  <course>23.82</course>
  <speed>16.52</speed>
  <fix>3d</fix>
</trkpt>
<trkpt lat="-27.2728727" lon="151.2900157">
  <ele>447.63</ele>
  <time>2026-09-01T19:59:12Z</time>
  <course>21.73</course>
  <speed>16.095418602819873</speed>
  <fix>3d</fix>
</trkpt>
<trkpt lat="-27.2728847" lon="151.29001">
  <ele>447.72</ele>
  <time>2026-09-01T19:59:12Z</time>
  <course>23.0</course>
  <speed>16.22</speed>
  <fix>3d</fix>
</trkpt>
<trkpt lat="-27.2728594" lon="151.2900218">
  <ele>447.59</ele>
  <time>2026-09-01T19:59:12Z</time>
  <course>21.29</course>
  <speed>15.94017879448032</speed>
  <fix>3d</fix>
</trkpt>
<trkpt lat="-27.2728847" lon="151.29001">
  <ele>447.72</ele>
  <time>2026-09-01T19:59:12Z</time>
  <course>23.0</course>
  <speed>16.22</speed>
  <fix>3d</fix>
</trkpt>
<trkpt lat="-27.2728462" lon="151.2900277">
  <ele>447.55</ele>
  <time>2026-09-01T19:59:12Z</time>
  <course>20.83</course>
  <speed>15.79551835173509</speed>
  <fix>3d</fix>
</trkpt>
<trkpt lat="-27.272858" lon="151.2900224">
  <ele>447.64</ele>
  <time>2026-09-01T19:59:12Z</time>
  <course>22.04</course>
  <speed>15.92</speed>
  <fix>3d</fix>
</trkpt>
<trkpt lat="-27.2728331" lon="151.2900334">
  <ele>447.5</ele>
  <time>2026-09-01T19:59:12Z</time>
  <course>20.34</course>
  <speed>15.648667674917249</speed>
  <fix>3d</fix>
</trkpt>
<trkpt lat="-27.272858" lon="151.2900224">
  <ele>447.64</ele>
  <time>2026-09-01T19:59:12Z</time>
  <course>22.04</course>
  <speed>15.92</speed>
  <fix>3d</fix>
</trkpt>
<trkpt lat="-27.27282" lon="151.290039">
  <ele>447.46</ele>
  <time>2026-09-01T19:59:12Z</time>
  <course>19.81</course>
  <speed>15.506892016132698</speed>
  <fix>3d</fix>
</trkpt>
<trkpt lat="-27.2728316" lon="151.2900341">
  <ele>447.55</ele>
  <time>2026-09-01T19:59:12Z</time>
  <course>20.96</course>
  <speed>15.63</speed>
  <fix>3d</fix>
</trkpt>
<trkpt lat="-27.2728068" lon="151.2900444">
  <ele>447.41</ele>
  <time>2026-09-01T19:59:12Z</time>
  <course>19.24</course>
  <speed>15.359817707251606</speed>
  <fix>3d</fix>
</trkpt>
<trkpt lat="-27.2728316" lon="151.2900341">
  <ele>447.55</ele>
  <time>2026-09-01T19:59:12Z</time>
  <course>20.96</course>
  <speed>15.63</speed>
  <fix>3d</fix>
</trkpt>
<trkpt lat="-27.2727938" lon="151.2900496">
  <ele>447.37</ele>
  <time>2026-09-01T19:59:12Z</time>
  <course>18.65</course>
  <speed>15.227360243981884</speed>
  <fix>3d</fix>
</trkpt>
<trkpt lat="-27.2728055" lon="151.290045">
  <ele>447.47</ele>
  <time>2026-09-01T19:59:12Z</time>
  <course>19.8</course>
  <speed>15.35</speed>
  <fix>3d</fix>
</trkpt>
<trkpt lat="-27.2727809" lon="151.2900545">
  <ele>447.33</ele>
  <time>2026-09-01T19:59:12Z</time>
  <course>18.02</course>
  <speed>15.096714874435431</speed>
  <fix>3d</fix>
</trkpt>
<trkpt lat="-27.2728055" lon="151.290045">
  <ele>447.47</ele>
  <time>2026-09-01T19:59:12Z</time>
  <course>19.8</course>
  <speed>15.35</speed>
  <fix>3d</fix>
</trkpt>
<trkpt lat="-27.272768" lon="151.2900593">
  <ele>447.29</ele>
  <time>2026-09-01T19:59:12Z</time>
  <course>17.38</course>
  <speed>14.95535021321801</speed>
  <fix>3d</fix>
</trkpt>
<trkpt lat="-27.2727797" lon="151.2900551">
  <ele>447.39</ele>
  <time>2026-09-01T19:59:12Z</time>
  <course>18.54</course>
  <speed>15.08</speed>
  <fix>3d</fix>
</trkpt>
<trkpt lat="-27.2727552" lon="151.2900639">
  <ele>447.25</ele>
  <time>2026-09-01T19:59:12Z</time>
  <course>16.73</course>
  <speed>14.825602854521632</speed>
  <fix>3d</fix>
</trkpt>
<trkpt lat="-27.2727797" lon="151.2900551">
  <ele>447.39</ele>
  <time>2026-09-01T19:59:12Z</time>
  <course>18.54</course>
  <speed>15.08</speed>
  <fix>3d</fix>
</trkpt>
<trkpt lat="-27.2727424" lon="151.2900682">
  <ele>447.22</ele>
  <time>2026-09-01T19:59:12Z</time>
  <course>16.06</course>
  <speed>14.68845124579171</speed>
  <fix>3d</fix>
</trkpt>
<trkpt lat="-27.2727542" lon="151.2900644">
  <ele>447.31</ele>
  <time>2026-09-01T19:59:12Z</time>
  <course>17.22</course>
  <speed>14.8</speed>
  <fix>3d</fix>
</trkpt>
<trkpt lat="-27.2727297" lon="151.2900723">
  <ele>447.19</ele>
  <time>2026-09-01T19:59:12Z</time>
  <course>15.38</course>
  <speed>14.55618768771549</speed>
  <fix>3d</fix>
</trkpt>
<trkpt lat="-27.2727542" lon="151.2900644">
  <ele>447.31</ele>
  <time>2026-09-01T19:59:12Z</time>
  <course>17.22</course>
  <speed>14.8</speed>
  <fix>3d</fix>
</trkpt>
<trkpt lat="-27.2727171" lon="151.2900763">
  <ele>447.16</ele>
  <time>2026-09-01T19:59:12Z</time>
  <course>14.69</course>
  <speed>14.413674063194296</speed>
  <fix>3d</fix>
</trkpt>
<trkpt lat="-27.2727289" lon="151.2900728">
  <ele>447.25</ele>
  <time>2026-09-01T19:59:12Z</time>
  <course>15.85</course>
  <speed>14.53</speed>
  <fix>3d</fix>
</trkpt>
<trkpt lat="-27.2727047" lon="151.29008">
  <ele>447.13</ele>
  <time>2026-09-01T19:59:12Z</time>
  <course>14.0</course>
  <speed>14.273394830943339</speed>
  <fix>3d</fix>
</trkpt>
<trkpt lat="-27.2727289" lon="151.2900728">
  <ele>447.25</ele>
  <time>2026-09-01T19:59:12Z</time>
  <course>15.85</course>
  <speed>14.53</speed>
  <fix>3d</fix>
</trkpt>
<trkpt lat="-27.2726923" lon="151.2900835">
  <ele>447.11</ele>
  <time>2026-09-01T19:59:12Z</time>
  <course>13.31</course>
  <speed>14.137768565088338</speed>
  <fix>3d</fix>
</trkpt>
<trkpt lat="-27.272704" lon="151.2900804">
  <ele>447.19</ele>
  <time>2026-09-01T19:59:12Z</time>
  <course>14.44</course>
  <speed>14.25</speed>
  <fix>3d</fix>
</trkpt>
<trkpt lat="-27.27268" lon="151.2900867">
  <ele>447.09</ele>
  <time>2026-09-01T19:59:12Z</time>
  <course>12.62</course>
  <speed>13.99451678336912</speed>
  <fix>3d</fix>
</trkpt>
<trkpt lat="-27.272704" lon="151.2900804">
  <ele>447.19</ele>
  <time>2026-09-01T19:59:12Z</time>
  <course>14.44</course>
  <speed>14.25</speed>
  <fix>3d</fix>
</trkpt>
<trkpt lat="-27.2726679" lon="151.2900898">
  <ele>447.07</ele>
  <time>2026-09-01T19:59:12Z</time>
  <course>11.93</course>
  <speed>13.853393086172066</speed>
  <fix>3d</fix>
</trkpt>
<trkpt lat="-27.2726793" lon="151.2900872">
  <ele>447.15</ele>
  <time>2026-09-01T19:59:12Z</time>
  <course>13.03</course>
  <speed>13.97</speed>
  <fix>3d</fix>
</trkpt>
<trkpt lat="-27.2726558" lon="151.2900927">
  <ele>447.05</ele>
  <time>2026-09-01T19:59:12Z</time>
  <course>11.23</course>
  <speed>13.714463168494785</speed>
  <fix>3d</fix>
</trkpt>
<trkpt lat="-27.2726793" lon="151.2900872">
  <ele>447.15</ele>
  <time>2026-09-01T19:59:12Z</time>
  <course>13.03</course>
  <speed>13.97</speed>
  <fix>3d</fix>
</trkpt>
<trkpt lat="-27.2726437" lon="151.2900954">
  <ele>447.04</ele>
  <time>2026-09-01T19:59:12Z</time>
  <course>10.54</course>
  <speed>13.569837876702875</speed>
  <fix>3d</fix>
</trkpt>
<trkpt lat="-27.272655" lon="151.2900932">
  <ele>447.13</ele>
  <time>2026-09-01T19:59:12Z</time>
  <course>11.62</course>
  <speed>13.69</speed>
  <fix>3d</fix>
</trkpt>
<trkpt lat="-27.2726317" lon="151.2900979">
  <ele>447.03</ele>
  <time>2026-09-01T19:59:12Z</time>
  <course>9.85</course>
  <speed>13.42899847345289</speed>
  <fix>3d</fix>
</trkpt>
<trkpt lat="-27.272655" lon="151.2900932">
  <ele>447.13</ele>
  <time>2026-09-01T19:59:12Z</time>
  <course>11.62</course>
  <speed>13.69</speed>
  <fix>3d</fix>
</trkpt>
<trkpt lat="-27.2726198" lon="151.2901003">
  <ele>447.03</ele>
  <time>2026-09-01T19:59:12Z</time>
  <course>9.15</course>
  <speed>13.28837838112687</speed>
  <fix>3d</fix>
</trkpt>
<trkpt lat="-27.2726311" lon="151.2900984">
  <ele>447.12</ele>
  <time>2026-09-01T19:59:12Z</time>
  <course>10.22</course>
  <speed>13.41</speed>
  <fix>3d</fix>
</trkpt>
<trkpt lat="-27.272608" lon="151.2901024">
  <ele>447.02</ele>
  <time>2026-09-01T19:59:12Z</time>
  <course>8.46</course>
  <speed>13.141544810257278</speed>
  <fix>3d</fix>
</trkpt>
<trkpt lat="-27.2726311" lon="151.2900984">
  <ele>447.12</ele>
  <time>2026-09-01T19:59:12Z</time>
  <course>10.22</course>
  <speed>13.41</speed>
  <fix>3d</fix>
</trkpt>
<trkpt lat="-27.2725963" lon="151.2901044">
  <ele>447.03</ele>
  <time>2026-09-01T19:59:12Z</time>
  <course>7.77</course>
  <speed>12.998049853728057</speed>
  <fix>3d</fix>
</trkpt>
<trkpt lat="-27.2726076" lon="151.2901028">
  <ele>447.12</ele>
  <time>2026-09-01T19:59:12Z</time>
  <course>8.84</course>
  <speed>13.12</speed>
  <fix>3d</fix>
</trkpt>
<trkpt lat="-27.2725848" lon="151.2901062">
  <ele>447.03</ele>
  <time>2026-09-01T19:59:12Z</time>
  <course>7.08</course>
  <speed>12.856321402329673</speed>
  <fix>3d</fix>
</trkpt>
<trkpt lat="-27.2726076" lon="151.2901028">
  <ele>447.12</ele>
  <time>2026-09-01T19:59:12Z</time>
  <course>8.84</course>
  <speed>13.12</speed>
  <fix>3d</fix>
</trkpt>
<trkpt lat="-27.2725733" lon="151.2901078">
  <ele>447.04</ele>
  <time>2026-09-01T19:59:12Z</time>
  <course>6.39</course>
  <speed>12.706486532476237</speed>
  <fix>3d</fix>
</trkpt>
<trkpt lat="-27.2725845" lon="151.2901066">
  <ele>447.13</ele>
  <time>2026-09-01T19:59:12Z</time>
  <course>7.48</course>
  <speed>12.82</speed>
  <fix>3d</fix>
</trkpt>
<trkpt lat="-27.272562" lon="151.2901093">
  <ele>447.06</ele>
  <time>2026-09-01T19:59:12Z</time>
  <course>5.71</course>
  <speed>12.559558113245863</speed>
  <fix>3d</fix>
</trkpt>
<trkpt lat="-27.2725845" lon="151.2901066">
  <ele>447.13</ele>
  <time>2026-09-01T19:59:12Z</time>
  <course>7.48</course>
  <speed>12.82</speed>
  <fix>3d</fix>
</trkpt>
<trkpt lat="-27.2725508" lon="151.2901105">
  <ele>447.07</ele>
  <time>2026-09-01T19:59:12Z</time>
  <course>5.04</course>
  <speed>12.414314318559846</speed>
  <fix>3d</fix>
</trkpt>
<trkpt lat="-27.2725619" lon="151.2901096">
  <ele>447.15</ele>
  <time>2026-09-01T19:59:12Z</time>
  <course>6.14</course>
  <speed>12.52</speed>
  <fix>3d</fix>
</trkpt>
<trkpt lat="-27.2725398" lon="151.2901117">
  <ele>447.09</ele>
  <time>2026-09-01T19:59:12Z</time>
  <course>4.38</course>
  <speed>12.261667912645489</speed>
  <fix>3d</fix>
</trkpt>
<trkpt lat="-27.2725619" lon="151.2901096">
  <ele>447.15</ele>
  <time>2026-09-01T19:59:12Z</time>
  <course>6.14</course>
  <speed>12.52</speed>
  <fix>3d</fix>
</trkpt>
<trkpt lat="-27.2725288" lon="151.2901127">
  <ele>447.11</ele>
  <time>2026-09-01T19:59:12Z</time>
  <course>3.73</course>
  <speed>12.110573892264561</speed>
  <fix>3d</fix>
</trkpt>
<trkpt lat="-27.2725397" lon="151.290112">
  <ele>447.18</ele>
  <time>2026-09-01T19:59:12Z</time>
  <course>4.84</course>
  <speed>12.22</speed>
  <fix>3d</fix>
</trkpt>
<trkpt lat="-27.272518" lon="151.2901135">
  <ele>447.13</ele>
  <time>2026-09-01T19:59:12Z</time>
  <course>3.1</course>
  <speed>11.95170699105362</speed>
  <fix>3d</fix>
</trkpt>
<trkpt lat="-27.2725397" lon="151.290112">
  <ele>447.18</ele>
  <time>2026-09-01T19:59:12Z</time>
  <course>4.84</course>
  <speed>12.22</speed>
  <fix>3d</fix>
</trkpt>
<trkpt lat="-27.2725074" lon="151.2901142">
  <ele>447.15</ele>
  <time>2026-09-01T19:59:12Z</time>
  <course>2.47</course>
  <speed>11.794765788263879</speed>
  <fix>3d</fix>
</trkpt>
<trkpt lat="-27.2725182" lon="151.2901138">
  <ele>447.22</ele>
  <time>2026-09-01T19:59:12Z</time>
  <course>3.57</course>
  <speed>11.9</speed>
  <fix>3d</fix>
</trkpt>
<trkpt lat="-27.2724968" lon="151.2901148">
  <ele>447.18</ele>
  <time>2026-09-01T19:59:12Z</time>
  <course>1.85</course>
  <speed>11.638702676845044</speed>
  <fix>3d</fix>
</trkpt>
<trkpt lat="-27.2725182" lon="151.2901138">
  <ele>447.22</ele>
  <time>2026-09-01T19:59:12Z</time>
  <course>3.57</course>
  <speed>11.9</speed>
  <fix>3d</fix>
</trkpt>
<trkpt lat="-27.2724865" lon="151.2901152">
  <ele>447.22</ele>
  <time>2026-09-01T19:59:12Z</time>
  <course>1.25</course>
  <speed>11.474746184556764</speed>
  <fix>3d</fix>
</trkpt>
<trkpt lat="-27.2724971" lon="151.290115">
  <ele>447.28</ele>
  <time>2026-09-01T19:59:12Z</time>
  <course>2.34</course>
  <speed>11.59</speed>
  <fix>3d</fix>
</trkpt>
<trkpt lat="-27.2724762" lon="151.2901155">
  <ele>447.25</ele>
  <time>2026-09-01T19:59:12Z</time>
  <course>0.64</course>
  <speed>11.311949434116121</speed>
  <fix>3d</fix>
</trkpt>
<trkpt lat="-27.2724971" lon="151.290115">
  <ele>447.28</ele>
  <time>2026-09-01T19:59:12Z</time>
  <course>2.34</course>
  <speed>11.59</speed>
  <fix>3d</fix>
</trkpt>
<trkpt lat="-27.2724662" lon="151.2901157">
  <ele>447.29</ele>
  <time>2026-09-01T19:59:12Z</time>
  <course>0.05</course>
  <speed>11.140363548825505</speed>
  <fix>3d</fix>
</trkpt>
<trkpt lat="-27.2724766" lon="151.2901157">
  <ele>447.34</ele>
  <time>2026-09-01T19:59:12Z</time>
  <course>1.16</course>
  <speed>11.26</speed>
  <fix>3d</fix>
</trkpt>
<trkpt lat="-27.2724564" lon="151.2901157">
  <ele>447.32</ele>
  <time>2026-09-01T19:59:12Z</time>
  <course>359.48</course>
  <speed>10.97</speed>
  <fix>3d</fix>
</trkpt>
<trkpt lat="-27.2724766" lon="151.2901157">
  <ele>447.34</ele>
  <time>2026-09-01T19:59:12Z</time>
  <course>1.16</course>
  <speed>11.26</speed>
  <fix>3d</fix>
</trkpt>
<trkpt lat="-27.2724468" lon="151.2901157">
  <ele>447.36</ele>
  <time>2026-09-01T19:59:12Z</time>
  <course>358.92</course>
  <speed>10.800560170657816</speed>
  <fix>3d</fix>
</trkpt>
<trkpt lat="-27.2724566" lon="151.2901159">
  <ele>447.41</ele>
  <time>2026-09-01T19:59:12Z</time>
  <course>0.02</course>
  <speed>10.93</speed>
  <fix>3d</fix>
</trkpt>
<trkpt lat="-27.2724373" lon="151.2901157">
  <ele>447.4</ele>
  <time>2026-09-01T19:59:12Z</time>
  <course>358.36</course>
  <speed>10.621883072224058</speed>
  <fix>3d</fix>
</trkpt>
<trkpt lat="-27.2724566" lon="151.2901159">
  <ele>447.41</ele>
  <time>2026-09-01T19:59:12Z</time>
  <course>0.02</course>
  <speed>10.93</speed>
  <fix>3d</fix>
</trkpt>
<trkpt lat="-27.2724279" lon="151.2901154">
  <ele>447.43</ele>
  <time>2026-09-01T19:59:12Z</time>
  <course>357.82</course>
  <speed>10.454305333210812</speed>
  <fix>3d</fix>
</trkpt>
<trkpt lat="-27.2724373" lon="151.2901158">
  <ele>447.48</ele>
  <time>2026-09-01T19:59:12Z</time>
  <course>358.93</course>
  <speed>10.59</speed>
  <fix>3d</fix>
</trkpt>
<trkpt lat="-27.2724187" lon="151.2901151">
  <ele>447.47</ele>
  <time>2026-09-01T19:59:12Z</time>
  <course>357.29</course>
  <speed>10.277027780443138</speed>
  <fix>3d</fix>
</trkpt>
<trkpt lat="-27.2724373" lon="151.2901158">
  <ele>447.48</ele>
  <time>2026-09-01T19:59:12Z</time>
  <course>358.93</course>
  <speed>10.59</speed>
  <fix>3d</fix>
</trkpt>
<trkpt lat="-27.2724096" lon="151.2901147">
  <ele>447.51</ele>
  <time>2026-09-01T19:59:12Z</time>
  <course>356.77</course>
  <speed>10.10048018660499</speed>
  <fix>3d</fix>
</trkpt>
<trkpt lat="-27.2724186" lon="151.2901152">
  <ele>447.56</ele>
  <time>2026-09-01T19:59:12Z</time>
  <course>357.88</course>
  <speed>10.25</speed>
  <fix>3d</fix>
</trkpt>
<trkpt lat="-27.2724006" lon="151.2901142">
  <ele>447.55</ele>
  <time>2026-09-01T19:59:12Z</time>
  <course>356.25</course>
  <speed>9.924701506846441</speed>
  <fix>3d</fix>
</trkpt>
<trkpt lat="-27.2724186" lon="151.2901152">
  <ele>447.56</ele>
  <time>2026-09-01T19:59:12Z</time>
  <course>357.88</course>
  <speed>10.25</speed>
  <fix>3d</fix>
</trkpt>
<trkpt lat="-27.2723919" lon="151.2901136">
  <ele>447.59</ele>
  <time>2026-09-01T19:59:12Z</time>
  <course>355.75</course>
  <speed>9.74910252279665</speed>
  <fix>3d</fix>
</trkpt>
<trkpt lat="-27.2724005" lon="151.2901143">
  <ele>447.64</ele>
  <time>2026-09-01T19:59:12Z</time>
  <course>356.88</course>
  <speed>9.9</speed>
  <fix>3d</fix>
</trkpt>
<trkpt lat="-27.2723832" lon="151.290113">
  <ele>447.62</ele>
  <time>2026-09-01T19:59:12Z</time>
  <course>355.26</course>
  <speed>9.57417881596119</speed>
  <fix>3d</fix>
</trkpt>
<trkpt lat="-27.2724005" lon="151.2901143">
  <ele>447.64</ele>
  <time>2026-09-01T19:59:12Z</time>
  <course>356.88</course>
  <speed>9.9</speed>
  <fix>3d</fix>
</trkpt>
<trkpt lat="-27.2723748" lon="151.2901123">
  <ele>447.66</ele>
  <time>2026-09-01T19:59:12Z</time>
  <course>354.78</course>
  <speed>9.399175495754934</speed>
  <fix>3d</fix>
</trkpt>
<trkpt lat="-27.2723831" lon="151.290113">
  <ele>447.72</ele>
  <time>2026-09-01T19:59:12Z</time>
  <course>355.92</course>
  <speed>9.55</speed>
  <fix>3d</fix>
</trkpt>
<trkpt lat="-27.2723665" lon="151.2901115">
  <ele>447.7</ele>
  <time>2026-09-01T19:59:12Z</time>
  <course>354.31</course>
  <speed>9.214792455611793</speed>
  <fix>3d</fix>
</trkpt>
<trkpt lat="-27.2723831" lon="151.290113">
  <ele>447.72</ele>
  <time>2026-09-01T19:59:12Z</time>
  <course>355.92</course>
  <speed>9.55</speed>
  <fix>3d</fix>
</trkpt>
<trkpt lat="-27.2723584" lon="151.2901107">
  <ele>447.73</ele>
  <time>2026-09-01T19:59:12Z</time>
  <course>353.86</course>
  <speed>9.04004977862401</speed>
  <fix>3d</fix>
</trkpt>
<trkpt lat="-27.2723662" lon="151.2901116">
  <ele>447.79</ele>
  <time>2026-09-01T19:59:12Z</time>
  <course>355.01</course>
  <speed>9.19</speed>
  <fix>3d</fix>
</trkpt>
<trkpt lat="-27.2723505" lon="151.2901098">
  <ele>447.77</ele>
  <time>2026-09-01T19:59:12Z</time>
  <course>353.42</course>
  <speed>8.855851173094543</speed>
  <fix>3d</fix>
</trkpt>
<trkpt lat="-27.2723662" lon="151.2901116">
  <ele>447.79</ele>
  <time>2026-09-01T19:59:12Z</time>
  <course>355.01</course>
  <speed>9.19</speed>
  <fix>3d</fix>
</trkpt>
<trkpt lat="-27.2723427" lon="151.2901089">
  <ele>447.8</ele>
  <time>2026-09-01T19:59:12Z</time>
  <course>352.99</course>
  <speed>8.671101429460965</speed>
  <fix>3d</fix>
</trkpt>
<trkpt lat="-27.2723501" lon="151.2901099">
  <ele>447.86</ele>
  <time>2026-09-01T19:59:12Z</time>
  <course>354.15</course>
  <speed>8.83</speed>
  <fix>3d</fix>
</trkpt>
<trkpt lat="-27.2723351" lon="151.290108">
  <ele>447.83</ele>
  <time>2026-09-01T19:59:12Z</time>
  <course>352.58</course>
  <speed>8.496705243798916</speed>
  <fix>3d</fix>
</trkpt>
<trkpt lat="-27.2723501" lon="151.2901099">
  <ele>447.86</ele>
  <time>2026-09-01T19:59:12Z</time>
  <course>354.15</course>
  <speed>8.83</speed>
  <fix>3d</fix>
</trkpt>
<trkpt lat="-27.2723277" lon="151.290107">
  <ele>447.86</ele>
  <time>2026-09-01T19:59:12Z</time>
  <course>352.18</course>
  <speed>8.311594311562613</speed>
  <fix>3d</fix>
</trkpt>
<trkpt lat="-27.2723346" lon="151.290108">
  <ele>447.93</ele>
  <time>2026-09-01T19:59:12Z</time>
  <course>353.33</course>
  <speed>8.47</speed>
  <fix>3d</fix>
</trkpt>
<trkpt lat="-27.2723204" lon="151.290106">
  <ele>447.89</ele>
  <time>2026-09-01T19:59:12Z</time>
  <course>351.8</course>
  <speed>8.126819796205648</speed>
  <fix>3d</fix>
</trkpt>
<trkpt lat="-27.2723346" lon="151.290108">
  <ele>447.93</ele>
  <time>2026-09-01T19:59:12Z</time>
  <course>353.33</course>
  <speed>8.47</speed>
  <fix>3d</fix>
</trkpt>
<trkpt lat="-27.2723133" lon="151.2901049">
  <ele>447.92</ele>
  <time>2026-09-01T19:59:12Z</time>
  <course>351.42</course>
  <speed>7.942405177274702</speed>
  <fix>3d</fix>
</trkpt>
<trkpt lat="-27.2723199" lon="151.2901059">
  <ele>447.98</ele>
  <time>2026-09-01T19:59:12Z</time>
  <course>352.57</course>
  <speed>8.11</speed>
  <fix>3d</fix>
</trkpt>
<trkpt lat="-27.2723064" lon="151.2901038">
  <ele>447.94</ele>
  <time>2026-09-01T19:59:12Z</time>
  <course>351.06</course>
  <speed>7.7569646125272484</speed>
  <fix>3d</fix>
</trkpt>
<trkpt lat="-27.2723199" lon="151.2901059">
  <ele>447.98</ele>
  <time>2026-09-01T19:59:12Z</time>
  <course>352.57</course>
  <speed>8.11</speed>
  <fix>3d</fix>
</trkpt>
<trkpt lat="-27.2722996" lon="151.2901027">
  <ele>447.96</ele>
  <time>2026-09-01T19:59:12Z</time>
  <course>350.72</course>
  <speed>7.581695061132438</speed>
  <fix>3d</fix>
</trkpt>
<trkpt lat="-27.2723058" lon="151.2901038">
  <ele>448.03</ele>
  <time>2026-09-01T19:59:12Z</time>
  <course>351.87</course>
  <speed>7.74</speed>
  <fix>3d</fix>
</trkpt>
<trkpt lat="-27.272293" lon="151.2901016">
  <ele>447.98</ele>
  <time>2026-09-01T19:59:12Z</time>
  <course>350.38</course>
  <speed>7.395302563113967</speed>
  <fix>3d</fix>
</trkpt>
<trkpt lat="-27.2723058" lon="151.2901038">
  <ele>448.03</ele>
  <time>2026-09-01T19:59:12Z</time>
  <course>351.87</course>
  <speed>7.74</speed>
  <fix>3d</fix>
</trkpt>
<trkpt lat="-27.2722865" lon="151.2901005">
  <ele>447.99</ele>
  <time>2026-09-01T19:59:12Z</time>
  <course>350.06</course>
  <speed>7.218988848862422</speed>
  <fix>3d</fix>
</trkpt>
<trkpt lat="-27.2722923" lon="151.2901015">
  <ele>448.06</ele>
  <time>2026-09-01T19:59:12Z</time>
  <course>351.22</course>
  <speed>7.38</speed>
  <fix>3d</fix>
</trkpt>
<trkpt lat="-27.2722802" lon="151.2900994">
  <ele>448.0</ele>
  <time>2026-09-01T19:59:12Z</time>
  <course>349.75</course>
  <speed>7.042875833067058</speed>
  <fix>3d</fix>
</trkpt>
<trkpt lat="-27.2722923" lon="151.2901015">
  <ele>448.06</ele>
  <time>2026-09-01T19:59:12Z</time>
  <course>351.22</course>
  <speed>7.38</speed>
  <fix>3d</fix>
</trkpt>
<trkpt lat="-27.272274" lon="151.2900982">
  <ele>448.0</ele>
  <time>2026-09-01T19:59:12Z</time>
  <course>349.46</course>
  <speed>6.865311354920474</speed>
  <fix>3d</fix>
</trkpt>
<trkpt lat="-27.2722796" lon="151.2900992">
  <ele>448.08</ele>
  <time>2026-09-01T19:59:12Z</time>
  <course>350.64</course>
  <speed>7.01</speed>
  <fix>3d</fix>
</trkpt>
<trkpt lat="-27.272268" lon="151.2900971">
  <ele>447.98</ele>
  <time>2026-09-01T19:59:12Z</time>
  <course>349.18</course>
  <speed>6.674638566993722</speed>
  <fix>3d</fix>
</trkpt>
<trkpt lat="-27.2722796" lon="151.2900992">
  <ele>448.08</ele>
  <time>2026-09-01T19:59:12Z</time>
  <course>350.64</course>
  <speed>7.01</speed>
  <fix>3d</fix>
</trkpt>
<trkpt lat="-27.2722622" lon="151.2900959">
  <ele>447.91</ele>
  <time>2026-09-01T19:59:12Z</time>
  <course>348.92</course>
  <speed>6.442872030391416</speed>
  <fix>3d</fix>
</trkpt>
<trkpt lat="-27.2722675" lon="151.2900969">
  <ele>448.04</ele>
  <time>2026-09-01T19:59:12Z</time>
  <course>350.26</course>
  <speed>6.62</speed>
  <fix>3d</fix>
</trkpt>
<trkpt lat="-27.2722565" lon="151.2900948">
  <ele>447.75</ele>
  <time>2026-09-01T19:59:12Z</time>
  <course>348.7</course>
  <speed>6.138737655251282</speed>
  <fix>3d</fix>
</trkpt>
<trkpt lat="-27.2722675" lon="151.2900969">
  <ele>448.04</ele>
  <time>2026-09-01T19:59:12Z</time>
  <course>350.26</course>
  <speed>6.62</speed>
  <fix>3d</fix>
</trkpt>
<trkpt lat="-27.2722513" lon="151.2900938">
  <ele>447.53</ele>
  <time>2026-09-01T19:59:12Z</time>
  <course>348.49</course>
  <speed>5.763922275673051</speed>
  <fix>3d</fix>
</trkpt>
<trkpt lat="-27.2722562" lon="151.2900947">
  <ele>447.81</ele>
  <time>2026-09-01T19:59:12Z</time>
  <course>350.08</course>
  <speed>6.08</speed>
  <fix>3d</fix>
</trkpt>
<trkpt lat="-27.2722464" lon="151.2900929">
  <ele>447.25</ele>
  <time>2026-09-01T19:59:12Z</time>
  <course>348.25</course>
  <speed>5.2987262620369435</speed>
  <fix>3d</fix>
</trkpt>
<trkpt lat="-27.2722562" lon="151.2900947">
  <ele>447.81</ele>
  <time>2026-09-01T19:59:12Z</time>
  <course>350.08</course>
  <speed>6.08</speed>
  <fix>3d</fix>
</trkpt>
<trkpt lat="-27.2722419" lon="151.290092">
  <ele>446.94</ele>
  <time>2026-09-01T19:59:12Z</time>
  <course>347.96</course>
  <speed>4.772724588743834</speed>
  <fix>3d</fix>
</trkpt>
<trkpt lat="-27.2722461" lon="151.2900927">
  <ele>447.33</ele>
  <time>2026-09-01T19:59:12Z</time>
  <course>349.81</course>
  <speed>5.25</speed>
  <fix>3d</fix>
</trkpt>
<trkpt lat="-27.272238" lon="151.2900912">
  <ele>446.61</ele>
  <time>2026-09-01T19:59:12Z</time>
  <course>347.6</course>
  <speed>4.23869083562366</speed>
  <fix>3d</fix>
</trkpt>
<trkpt lat="-27.2722461" lon="151.2900927">
  <ele>447.33</ele>
  <time>2026-09-01T19:59:12Z</time>
  <course>349.81</course>
  <speed>5.25</speed>
  <fix>3d</fix>
</trkpt>
<trkpt lat="-27.2722345" lon="151.2900904">
  <ele>446.26</ele>
  <time>2026-09-01T19:59:12Z</time>
  <course>347.16</course>
  <speed>3.694996617048519</speed>
  <fix>3d</fix>
</trkpt>
<trkpt lat="-27.2722377" lon="151.290091">
  <ele>446.69</ele>
  <time>2026-09-01T19:59:12Z</time>
  <course>349.18</course>
  <speed>4.21</speed>
  <fix>3d</fix>
</trkpt>
<trkpt lat="-27.2722315" lon="151.2900898">
  <ele>445.9</ele>
  <time>2026-09-01T19:59:12Z</time>
  <course>346.68</course>
  <speed>3.1613920984275268</speed>
  <fix>3d</fix>
</trkpt>
<trkpt lat="-27.2722377" lon="151.290091">
  <ele>446.69</ele>
  <time>2026-09-01T19:59:12Z</time>
  <course>349.18</course>
  <speed>4.21</speed>
  <fix>3d</fix>
</trkpt>
<trkpt lat="-27.2722289" lon="151.2900891">
  <ele>445.55</ele>
  <time>2026-09-01T19:59:13Z</time>
  <course>346.15</course>
  <speed>2.671516423307182</speed>
  <fix>3d</fix>
</trkpt>
<trkpt lat="-27.2722312" lon="151.2900895">
  <ele>445.99</ele>
  <time>2026-09-01T19:59:13Z</time>
  <course>347.82</course>
  <speed>3.15</speed>
  <fix>3d</fix>
</trkpt>
<trkpt lat="-27.2722268" lon="151.2900886">
  <ele>445.2</ele>
  <time>2026-09-01T19:59:13Z</time>
  <course>345.61</course>
  <speed>2.2143622106602163</speed>
  <fix>3d</fix>
</trkpt>
<trkpt lat="-27.2722312" lon="151.2900895">
  <ele>445.99</ele>
  <time>2026-09-01T19:59:13Z</time>
  <course>347.82</course>
  <speed>3.15</speed>
  <fix>3d</fix>
</trkpt>
<trkpt lat="-27.272225" lon="151.290088">
  <ele>444.86</ele>
  <time>2026-09-01T19:59:13Z</time>
  <course>345.07</course>
  <speed>1.8173056980046038</speed>
  <fix>3d</fix>
</trkpt>
<trkpt lat="-27.2722265" lon="151.2900882">
  <ele>445.3</ele>
  <time>2026-09-01T19:59:13Z</time>
  <course>345.05</course>
  <speed>2.21</speed>
  <fix>3d</fix>
</trkpt>
<trkpt lat="-27.2722236" lon="151.2900875">
  <ele>444.55</ele>
  <time>2026-09-01T19:59:13Z</time>
  <course>344.56</course>
  <speed>1.4673104647619741</speed>
  <fix>3d</fix>
</trkpt>
<trkpt lat="-27.2722265" lon="151.2900882">
  <ele>445.3</ele>
  <time>2026-09-01T19:59:13Z</time>
  <course>345.05</course>
  <speed>2.21</speed>
  <fix>3d</fix>
</trkpt>
<trkpt lat="-27.2722225" lon="151.290087">
  <ele>444.25</ele>
  <time>2026-09-01T19:59:13Z</time>
  <course>344.1</course>
  <speed>1.1738824472663352</speed>
  <fix>3d</fix>
</trkpt>
<trkpt lat="-27.2722235" lon="151.2900871">
  <ele>444.66</ele>
  <time>2026-09-01T19:59:13Z</time>
  <course>339.36</course>
  <speed>1.45</speed>
  <fix>3d</fix>
</trkpt>
<trkpt lat="-27.2722216" lon="151.2900865">
  <ele>443.98</ele>
  <time>2026-09-01T19:59:13Z</time>
  <course>343.74</course>
  <speed>0.9402127418834527</speed>
  <fix>3d</fix>
</trkpt>
<trkpt lat="-27.2722235" lon="151.2900871">
  <ele>444.66</ele>
  <time>2026-09-01T19:59:13Z</time>
  <course>339.36</course>
  <speed>1.45</speed>
  <fix>3d</fix>
</trkpt>
<trkpt lat="-27.272221" lon="151.290086">
  <ele>443.73</ele>
  <time>2026-09-01T19:59:13Z</time>
  <course>343.53</course>
  <speed>0.7683749084919418</speed>
  <fix>3d</fix>
</trkpt>
<trkpt lat="-27.2722216" lon="151.2900862">
  <ele>444.09</ele>
  <time>2026-09-01T19:59:13Z</time>
  <course>327.43</course>
  <speed>0.92</speed>
  <fix>3d</fix>
</trkpt>
<trkpt lat="-27.2722206" lon="151.2900855">
  <ele>443.52</ele>
  <time>2026-09-01T19:59:13Z</time>
  <course>343.48</course>
  <speed>0.6453681120105021</speed>
  <fix>3d</fix>
</trkpt>
<trkpt lat="-27.2722216" lon="151.2900862">
  <ele>444.09</ele>
  <time>2026-09-01T19:59:13Z</time>
  <course>327.43</course>
  <speed>0.92</speed>
  <fix>3d</fix>
</trkpt>
<trkpt lat="-27.2722202" lon="151.2900849">
  <ele>443.33</ele>
  <time>2026-09-01T19:59:13Z</time>
  <course>343.64</course>
  <speed>0.590592922409336</speed>
  <fix>3d</fix>
</trkpt>
<trkpt lat="-27.2722206" lon="151.2900852">
  <ele>443.64</ele>
  <time>2026-09-01T19:59:13Z</time>
  <course>305.56</course>
  <speed>0.62</speed>
  <fix>3d</fix>
</trkpt>
<trkpt lat="-27.2722201" lon="151.2900844">
  <ele>443.18</ele>
  <time>2026-09-01T19:59:13Z</time>
  <course>344.02</course>
  <speed>0.563205113613149</speed>
  <fix>3d</fix>
</trkpt>
<trkpt lat="-27.2722206" lon="151.2900852">
  <ele>443.64</ele>
  <time>2026-09-01T19:59:13Z</time>
  <course>305.56</course>
  <speed>0.62</speed>
  <fix>3d</fix>
</trkpt>
<trkpt lat="-27.27222" lon="151.2900838">
  <ele>443.05</ele>
  <time>2026-09-01T19:59:13Z</time>
  <course>344.62</course>
  <speed>0.5622277118748239</speed>
  <fix>3d</fix>
</trkpt>
<trkpt lat="-27.2722202" lon="151.2900841">
  <ele>443.3</ele>
  <time>2026-09-01T19:59:13Z</time>
  <course>279.05</course>
  <speed>0.54</speed>
  <fix>3d</fix>
</trkpt>
<trkpt lat="-27.27222" lon="151.2900832">
  <ele>442.96</ele>
  <time>2026-09-01T19:59:13Z</time>
  <course>345.39</course>
  <speed>0.5707889277132134</speed>
  <fix>3d</fix>
</trkpt>
<trkpt lat="-27.2722202" lon="151.2900841">
  <ele>443.3</ele>
  <time>2026-09-01T19:59:13Z</time>
  <course>279.05</course>
  <speed>0.54</speed>
  <fix>3d</fix>
</trkpt>
<trkpt lat="-27.2722201" lon="151.2900826">
  <ele>442.9</ele>
  <time>2026-09-01T19:59:13Z</time>
  <course>346.26</course>
  <speed>0.5903388857258176</speed>
  <fix>3d</fix>
</trkpt>
<trkpt lat="-27.2722202" lon="151.2900829">
  <ele>443.09</ele>
  <time>2026-09-01T19:59:13Z</time>
  <course>258.42</course>
  <speed>0.57</speed>
  <fix>3d</fix>
</trkpt>
<trkpt lat="-27.2722202" lon="151.290082">
  <ele>442.86</ele>
  <time>2026-09-01T19:59:13Z</time>
  <course>347.12</course>
  <speed>0.6140032573203501</speed>
  <fix>3d</fix>
</trkpt>
<trkpt lat="-27.2722202" lon="151.2900829">
  <ele>443.09</ele>
  <time>2026-09-01T19:59:13Z</time>
  <course>258.42</course>
  <speed>0.57</speed>
  <fix>3d</fix>
</trkpt>
<trkpt lat="-27.2722204" lon="151.2900814">
  <ele>442.85</ele>
  <time>2026-09-01T19:59:13Z</time>
  <course>347.85</course>
  <speed>0.6324555320336759</speed>
  <fix>3d</fix>
</trkpt>
<trkpt lat="-27.2722204" lon="151.2900818">
  <ele>442.99</ele>
  <time>2026-09-01T19:59:13Z</time>
  <course>246.73</course>
  <speed>0.62</speed>
  <fix>3d</fix>
</trkpt>
<trkpt lat="-27.2722206" lon="151.2900808">
  <ele>442.86</ele>
  <time>2026-09-01T19:59:13Z</time>
  <course>348.37</course>
  <speed>0.6390618123468184</speed>
  <fix>3d</fix>
</trkpt>
<trkpt lat="-27.2722204" lon="151.2900818">
  <ele>442.99</ele>
  <time>2026-09-01T19:59:13Z</time>
  <course>246.73</course>
  <speed>0.62</speed>
  <fix>3d</fix>
</trkpt>
<trkpt lat="-27.2722208" lon="151.2900802">
  <ele>442.88</ele>
  <time>2026-09-01T19:59:13Z</time>
  <course>348.64</course>
  <speed>0.6332456079595026</speed>
  <fix>3d</fix>
</trkpt>
<trkpt lat="-27.272221" lon="151.2900806">
  <ele>442.99</ele>
  <time>2026-09-01T19:59:13Z</time>
  <course>241.21</course>
  <speed>0.64</speed>
  <fix>3d</fix>
</trkpt>
<trkpt lat="-27.2722211" lon="151.2900796">
  <ele>442.92</ele>
  <time>2026-09-01T19:59:13Z</time>
  <course>348.68</course>
  <speed>0.6224146527838174</speed>
  <fix>3d</fix>
</trkpt>
<trkpt lat="-27.272221" lon="151.2900806">
  <ele>442.99</ele>
  <time>2026-09-01T19:59:13Z</time>
  <course>241.21</course>
  <speed>0.64</speed>
  <fix>3d</fix>
</trkpt>
<trkpt lat="-27.2722214" lon="151.290079">
  <ele>442.96</ele>
  <time>2026-09-01T19:59:13Z</time>
  <course>348.52</course>
  <speed>0.6132699242584786</speed>
  <fix>3d</fix>
</trkpt>
<trkpt lat="-27.2722216" lon="151.2900795">
  <ele>443.04</ele>
  <time>2026-09-01T19:59:13Z</time>
  <course>237.73</course>
  <speed>0.63</speed>
  <fix>3d</fix>
</trkpt>
<trkpt lat="-27.2722217" lon="151.2900784">
  <ele>443.0</ele>
  <time>2026-09-01T19:59:13Z</time>
  <course>348.26</course>
  <speed>0.5950630218724736</speed>
  <fix>3d</fix>
</trkpt>
<trkpt lat="-27.2722216" lon="151.2900795">
  <ele>443.04</ele>
  <time>2026-09-01T19:59:13Z</time>
  <course>237.73</course>
  <speed>0.63</speed>
  <fix>3d</fix>
</trkpt>
<trkpt lat="-27.272222" lon="151.2900779">
  <ele>443.05</ele>
  <time>2026-09-01T19:59:13Z</time>
  <course>347.96</course>
  <speed>0.5727128425310541</speed>
  <fix>3d</fix>
</trkpt>
<trkpt lat="-27.2722222" lon="151.2900785">
  <ele>443.12</ele>
  <time>2026-09-01T19:59:13Z</time>
  <course>235.41</course>
  <speed>0.59</speed>
  <fix>3d</fix>
</trkpt>
<trkpt lat="-27.2722222" lon="151.2900774">
  <ele>443.08</ele>
  <time>2026-09-01T19:59:13Z</time>
  <course>347.7</course>
  <speed>0.5503635162326805</speed>
  <fix>3d</fix>
</trkpt>
<trkpt lat="-27.2722222" lon="151.2900785">
  <ele>443.12</ele>
  <time>2026-09-01T19:59:13Z</time>
  <course>235.41</course>
  <speed>0.59</speed>
  <fix>3d</fix>
</trkpt>
<trkpt lat="-27.2722225" lon="151.2900769">
  <ele>443.12</ele>
  <time>2026-09-01T19:59:13Z</time>
  <course>347.51</course>
  <speed>0.52</speed>
  <fix>3d</fix>
</trkpt>
<trkpt lat="-27.2722228" lon="151.2900775">
  <ele>443.2</ele>
  <time>2026-09-01T19:59:13Z</time>
  <course>234.91</course>
  <speed>0.54</speed>
  <fix>3d</fix>
</trkpt>
<trkpt lat="-27.2722227" lon="151.2900765">
  <ele>443.15</ele>
  <time>2026-09-01T19:59:13Z</time>
  <course>347.43</course>
  <speed>0.48466483264210536</speed>
  <fix>3d</fix>
</trkpt>
<trkpt lat="-27.2722228" lon="151.2900775">
  <ele>443.2</ele>
  <time>2026-09-01T19:59:13Z</time>
  <course>234.91</course>
  <speed>0.54</speed>
  <fix>3d</fix>
</trkpt>
<trkpt lat="-27.2722229" lon="151.2900761">
  <ele>443.17</ele>
  <time>2026-09-01T19:59:13Z</time>
  <course>347.45</course>
  <speed>0.455411901469428</speed>
  <fix>3d</fix>
</trkpt>
<trkpt lat="-27.2722233" lon="151.2900767">
  <ele>443.26</ele>
  <time>2026-09-01T19:59:13Z</time>
  <course>236.5</course>
  <speed>0.47</speed>
  <fix>3d</fix>
</trkpt>
<trkpt lat="-27.2722231" lon="151.2900757">
  <ele>443.18</ele>
  <time>2026-09-01T19:59:13Z</time>
  <course>347.57</course>
  <speed>0.42449970553582245</speed>
  <fix>3d</fix>
</trkpt>
<trkpt lat="-27.2722233" lon="151.2900767">
  <ele>443.26</ele>
  <time>2026-09-01T19:59:13Z</time>
  <course>236.5</course>
  <speed>0.47</speed>
  <fix>3d</fix>
</trkpt>
<trkpt lat="-27.2722233" lon="151.2900753">
  <ele>443.19</ele>
  <time>2026-09-01T19:59:13Z</time>
  <course>347.74</course>
  <speed>0.396232255123179</speed>
  <fix>3d</fix>
</trkpt>
<trkpt lat="-27.2722237" lon="151.290076">
  <ele>443.3</ele>
  <time>2026-09-01T19:59:13Z</time>
  <course>241.38</course>
  <speed>0.39</speed>
  <fix>3d</fix>
</trkpt>
<trkpt lat="-27.2722234" lon="151.2900749">
  <ele>443.19</ele>
  <time>2026-09-01T19:59:13Z</time>
  <course>347.95</course>
  <speed>0.3705401462729781</speed>
  <fix>3d</fix>
</trkpt>
<trkpt lat="-27.2722237" lon="151.290076">
  <ele>443.3</ele>
  <time>2026-09-01T19:59:13Z</time>
  <course>241.38</course>
  <speed>0.39</speed>
  <fix>3d</fix>
</trkpt>
<trkpt lat="-27.2722234" lon="151.2900746">
  <ele>443.18</ele>
  <time>2026-09-01T19:59:13Z</time>
  <course>348.15</course>
  <speed>0.35014282800023194</speed>
  <fix>3d</fix>
</trkpt>
<trkpt lat="-27.272224" lon="151.2900753">
  <ele>443.3</ele>
  <time>2026-09-01T19:59:13Z</time>
  <course>251.47</course>
  <speed>0.31</speed>
  <fix>3d</fix>
</trkpt>
<trkpt lat="-27.2722235" lon="151.2900743">
  <ele>443.17</ele>
  <time>2026-09-01T19:59:13Z</time>
  <course>348.32</course>
  <speed>0.3255764119219941</speed>
  <fix>3d</fix>
</trkpt>
<trkpt lat="-27.272224" lon="151.2900753">
  <ele>443.3</ele>
  <time>2026-09-01T19:59:13Z</time>
  <course>251.47</course>
  <speed>0.31</speed>
  <fix>3d</fix>
</trkpt>
<trkpt lat="-27.2722235" lon="151.2900741">
  <ele>443.16</ele>
  <time>2026-09-01T19:59:13Z</time>
  <course>348.45</course>
  <speed>0.3195309061734092</speed>
  <fix>3d</fix>
</trkpt>
<trkpt lat="-27.2722241" lon="151.2900747">
  <ele>443.28</ele>
  <time>2026-09-01T19:59:13Z</time>
  <course>269.8</course>
  <speed>0.24</speed>
  <fix>3d</fix>
</trkpt>
<trkpt lat="-27.2722235" lon="151.2900738">
  <ele>443.14</ele>
  <time>2026-09-01T19:59:13Z</time>
  <course>348.52</course>
  <speed>0.327566787083184</speed>
  <fix>3d</fix>
</trkpt>
<trkpt lat="-27.2722241" lon="151.2900747">
  <ele>443.28</ele>
  <time>2026-09-01T19:59:13Z</time>
  <course>269.8</course>
  <speed>0.24</speed>
  <fix>3d</fix>
</trkpt>
<trkpt lat="-27.2722234" lon="151.2900736">
  <ele>443.12</ele>
  <time>2026-09-01T19:59:13Z</time>
  <course>348.54</course>
  <speed>0.34713109915419565</speed>
  <fix>3d</fix>
</trkpt>
<trkpt lat="-27.272224" lon="151.2900743">
  <ele>443.26</ele>
  <time>2026-09-01T19:59:13Z</time>
  <course>299.14</course>
  <speed>0.23</speed>
  <fix>3d</fix>
</trkpt>
<trkpt lat="-27.2722232" lon="151.2900734">
  <ele>443.1</ele>
  <time>2026-09-01T19:59:13Z</time>
  <course>348.52</course>
  <speed>0.3841874542459709</speed>
  <fix>3d</fix>
</trkpt>
<trkpt lat="-27.272224" lon="151.2900743">
  <ele>443.26</ele>
  <time>2026-09-01T19:59:13Z</time>
  <course>299.14</course>
  <speed>0.23</speed>
  <fix>3d</fix>
</trkpt>
<trkpt lat="-27.2722229" lon="151.2900732">
  <ele>443.09</ele>
  <time>2026-09-01T19:59:13Z</time>
  <course>348.47</course>
  <speed>0.4219004621945798</speed>
  <fix>3d</fix>
</trkpt>
<trkpt lat="-27.2722237" lon="151.2900739">
  <ele>443.22</ele>
  <time>2026-09-01T19:59:13Z</time>
  <course>326.9</course>
  <speed>0.29</speed>
  <fix>3d</fix>
</trkpt>
<trkpt lat="-27.2722227" lon="151.2900731">
  <ele>443.07</ele>
  <time>2026-09-01T19:59:13Z</time>
  <course>348.41</course>
  <speed>0.474236228055175</speed>
  <fix>3d</fix>
</trkpt>
<trkpt lat="-27.2722237" lon="151.2900739">
  <ele>443.22</ele>
  <time>2026-09-01T19:59:13Z</time>
  <course>326.9</course>
  <speed>0.29</speed>
  <fix>3d</fix>
</trkpt>
<trkpt lat="-27.2722223" lon="151.290073">
  <ele>443.06</ele>
  <time>2026-09-01T19:59:13Z</time>
  <course>348.35</course>
  <speed>0.5442425929675111</speed>
  <fix>3d</fix>
</trkpt>
<trkpt lat="-27.2722231" lon="151.2900737">
  <ele>443.18</ele>
  <time>2026-09-01T19:59:13Z</time>
  <course>342.67</course>
  <speed>0.4</speed>
  <fix>3d</fix>
</trkpt>
<trkpt lat="-27.2722219" lon="151.2900729">
  <ele>443.04</ele>
  <time>2026-09-01T19:59:13Z</time>
  <course>348.32</course>
  <speed>0.6044005294504631</speed>
  <fix>3d</fix>
</trkpt>
<trkpt lat="-27.2722231" lon="151.2900737">
  <ele>443.18</ele>
  <time>2026-09-01T19:59:13Z</time>
  <course>342.67</course>
  <speed>0.4</speed>
  <fix>3d</fix>
</trkpt>
<trkpt lat="-27.2722213" lon="151.2900728">
  <ele>443.03</ele>
  <time>2026-09-01T19:59:13Z</time>
  <course>348.29</course>
  <speed>0.6694027188471824</speed>
  <fix>3d</fix>
</trkpt>
<trkpt lat="-27.2722223" lon="151.2900735">
  <ele>443.16</ele>
  <time>2026-09-01T19:59:13Z</time>
  <course>350.59</course>
  <speed>0.54</speed>
  <fix>3d</fix>
</trkpt>
<trkpt lat="-27.2722208" lon="151.2900727">
  <ele>443.03</ele>
  <time>2026-09-01T19:59:13Z</time>
  <course>348.3</course>
  <speed>0.7354590403278758</speed>
  <fix>3d</fix>
</trkpt>
<trkpt lat="-27.2722223" lon="151.2900735">
  <ele>443.16</ele>
  <time>2026-09-01T19:59:13Z</time>
  <course>350.59</course>
  <speed>0.54</speed>
  <fix>3d</fix>
</trkpt>
<trkpt lat="-27.2722201" lon="151.2900726">
  <ele>443.03</ele>
  <time>2026-09-01T19:59:13Z</time>
  <course>348.31</course>
  <speed>0.8023091673413684</speed>
  <fix>3d</fix>
</trkpt>
<trkpt lat="-27.2722212" lon="151.2900733">
  <ele>443.14</ele>
  <time>2026-09-01T19:59:13Z</time>
  <course>354.69</course>
  <speed>0.68</speed>
  <fix>3d</fix>
</trkpt>
<trkpt lat="-27.2722194" lon="151.2900726">
  <ele>443.03</ele>
  <time>2026-09-01T19:59:13Z</time>
  <course>348.34</course>
  <speed>0.8697700845625813</speed>
  <fix>3d</fix>
</trkpt>
<trkpt lat="-27.2722212" lon="151.2900733">
  <ele>443.14</ele>
  <time>2026-09-01T19:59:13Z</time>
  <course>354.69</course>
  <speed>0.68</speed>
  <fix>3d</fix>
</trkpt>
<trkpt lat="-27.2722187" lon="151.2900725">
  <ele>443.03</ele>
  <time>2026-09-01T19:59:13Z</time>
  <course>348.38</course>
  <speed>0.937709976485267</speed>
  <fix>3d</fix>
</trkpt>
<trkpt lat="-27.2722198" lon="151.2900732">
  <ele>443.14</ele>
  <time>2026-09-01T19:59:13Z</time>
  <course>356.86</course>
  <speed>0.82</speed>
  <fix>3d</fix>
</trkpt>
<trkpt lat="-27.2722178" lon="151.2900725">
  <ele>443.04</ele>
  <time>2026-09-01T19:59:13Z</time>
  <course>348.42</course>
  <speed>0.9960923651951158</speed>
  <fix>3d</fix>
</trkpt>
<trkpt lat="-27.2722198" lon="151.2900732">
  <ele>443.14</ele>
  <time>2026-09-01T19:59:13Z</time>
  <course>356.86</course>
  <speed>0.82</speed>
  <fix>3d</fix>
</trkpt>
<trkpt lat="-27.272217" lon="151.2900724">
  <ele>443.04</ele>
  <time>2026-09-01T19:59:13Z</time>
  <course>348.45</course>
  <speed>1.0458011283222064</speed>
  <fix>3d</fix>
</trkpt>
<trkpt lat="-27.2722183" lon="151.2900731">
  <ele>443.15</ele>
  <time>2026-09-01T19:59:13Z</time>
  <course>357.97</course>
  <speed>0.95</speed>
  <fix>3d</fix>
</trkpt>
<trkpt lat="-27.2722161" lon="151.2900724">
  <ele>443.05</ele>
  <time>2026-09-01T19:59:13Z</time>
  <course>348.48</course>
  <speed>1.105486318323298</speed>
  <fix>3d</fix>
</trkpt>
<trkpt lat="-27.2722183" lon="151.2900731">
  <ele>443.15</ele>
  <time>2026-09-01T19:59:13Z</time>
  <course>357.97</course>
  <speed>0.95</speed>
  <fix>3d</fix>
</trkpt>
<trkpt lat="-27.2722151" lon="151.2900724">
  <ele>443.05</ele>
  <time>2026-09-01T19:59:13Z</time>
  <course>348.5</course>
  <speed>1.145294721894762</speed>
  <fix>3d</fix>
</trkpt>
<trkpt lat="-27.2722164" lon="151.290073">
  <ele>443.16</ele>
  <time>2026-09-01T19:59:13Z</time>
  <course>358.43</course>
  <speed>1.06</speed>
  <fix>3d</fix>
</trkpt>
<trkpt lat="-27.2722141" lon="151.2900723">
  <ele>443.06</ele>
  <time>2026-09-01T19:59:13Z</time>
  <course>348.51</course>
  <speed>1.195073219514185</speed>
  <fix>3d</fix>
</trkpt>
<trkpt lat="-27.2722164" lon="151.290073">
  <ele>443.16</ele>
  <time>2026-09-01T19:59:13Z</time>
  <course>358.43</course>
  <speed>1.06</speed>
  <fix>3d</fix>
</trkpt>
<trkpt lat="-27.272213" lon="151.2900723">
  <ele>443.06</ele>
  <time>2026-09-01T19:59:13Z</time>
  <course>348.52</course>
  <speed>1.2349089035228469</speed>
  <fix>3d</fix>
</trkpt>
<trkpt lat="-27.2722144" lon="151.290073">
  <ele>443.17</ele>
  <time>2026-09-01T19:59:13Z</time>
  <course>358.49</course>
  <speed>1.16</speed>
  <fix>3d</fix>
</trkpt>
<trkpt lat="-27.2722119" lon="151.2900723">
  <ele>443.06</ele>
  <time>2026-09-01T19:59:13Z</time>
  <course>348.53</course>
  <speed>1.264792473095883</speed>
  <fix>3d</fix>
</trkpt>
<trkpt lat="-27.2722144" lon="151.290073">
  <ele>443.17</ele>
  <time>2026-09-01T19:59:13Z</time>
  <course>358.49</course>
  <speed>1.16</speed>
  <fix>3d</fix>
</trkpt>
<trkpt lat="-27.2722108" lon="151.2900722">
  <ele>443.07</ele>
  <time>2026-09-01T19:59:13Z</time>
  <course>348.53</course>
  <speed>1.2955693729013509</speed>
  <fix>3d</fix>
</trkpt>
<trkpt lat="-27.2722123" lon="151.2900729">
  <ele>443.18</ele>
  <time>2026-09-01T19:59:13Z</time>
  <course>358.27</course>
  <speed>1.24</speed>
  <fix>3d</fix>
</trkpt>
<trkpt lat="-27.2722097" lon="151.2900722">
  <ele>443.07</ele>
  <time>2026-09-01T19:59:13Z</time>
  <course>348.53</course>
  <speed>1.3254433220624713</speed>
  <fix>3d</fix>
</trkpt>
<trkpt lat="-27.2722123" lon="151.2900729">
  <ele>443.18</ele>
  <time>2026-09-01T19:59:13Z</time>
  <course>358.27</course>
  <speed>1.24</speed>
  <fix>3d</fix>
</trkpt>
<trkpt lat="-27.2722085" lon="151.2900721">
  <ele>443.07</ele>
  <time>2026-09-01T19:59:13Z</time>
  <course>348.53</course>
  <speed>1.3363382805263044</speed>
  <fix>3d</fix>
</trkpt>
<trkpt lat="-27.27221" lon="151.2900728">
  <ele>443.18</ele>
  <time>2026-09-01T19:59:13Z</time>
  <course>357.86</course>
  <speed>1.3</speed>
  <fix>3d</fix>
</trkpt>
<trkpt lat="-27.2722074" lon="151.2900721">
  <ele>443.07</ele>
  <time>2026-09-01T19:59:13Z</time>
  <course>348.52</course>
  <speed>1.356244815658294</speed>
  <fix>3d</fix>
</trkpt>
<trkpt lat="-27.27221" lon="151.2900728">
  <ele>443.18</ele>
  <time>2026-09-01T19:59:13Z</time>
  <course>357.86</course>
  <speed>1.3</speed>
  <fix>3d</fix>
</trkpt>
<trkpt lat="-27.2722062" lon="151.290072">
  <ele>443.07</ele>
  <time>2026-09-01T19:59:13Z</time>
  <course>348.52</course>
  <speed>1.3572398461583715</speed>
  <fix>3d</fix>
</trkpt>
<trkpt lat="-27.2722076" lon="151.2900727">
  <ele>443.19</ele>
  <time>2026-09-01T19:59:13Z</time>
  <course>357.3</course>
  <speed>1.33</speed>
  <fix>3d</fix>
</trkpt>
<trkpt lat="-27.272205" lon="151.2900719">
  <ele>443.07</ele>
  <time>2026-09-01T19:59:13Z</time>
  <course>348.51</course>
  <speed>1.3682470537150813</speed>
  <fix>3d</fix>
</trkpt>
<trkpt lat="-27.2722076" lon="151.2900727">
  <ele>443.19</ele>
  <time>2026-09-01T19:59:13Z</time>
  <course>357.3</course>
  <speed>1.33</speed>
  <fix>3d</fix>
</trkpt>
<trkpt lat="-27.2722038" lon="151.2900718">
  <ele>443.07</ele>
  <time>2026-09-01T19:59:13Z</time>
  <course>348.5</course>
  <speed>1.369379421489895</speed>
  <fix>3d</fix>
</trkpt>
<trkpt lat="-27.2722052" lon="151.2900725">
  <ele>443.19</ele>
  <time>2026-09-01T19:59:13Z</time>
  <course>356.6</course>
  <speed>1.35</speed>
  <fix>3d</fix>
</trkpt>
<trkpt lat="-27.2722026" lon="151.2900718">
  <ele>443.07</ele>
  <time>2026-09-01T19:59:13Z</time>
  <course>348.5</course>
  <speed>1.3594484175576504</speed>
  <fix>3d</fix>
</trkpt>
<trkpt lat="-27.2722052" lon="151.2900725">
  <ele>443.19</ele>
  <time>2026-09-01T19:59:13Z</time>
  <course>356.6</course>
  <speed>1.35</speed>
  <fix>3d</fix>
</trkpt>
<trkpt lat="-27.2722014" lon="151.2900717">
  <ele>443.07</ele>
  <time>2026-09-01T19:59:13Z</time>
  <course>348.5</course>
  <speed>1.3507405376311175</speed>
  <fix>3d</fix>
</trkpt>
<trkpt lat="-27.2722028" lon="151.2900723">
  <ele>443.19</ele>
  <time>2026-09-01T19:59:13Z</time>
  <course>355.75</course>
  <speed>1.35</speed>
  <fix>3d</fix>
</trkpt>
<trkpt lat="-27.2722003" lon="151.2900716">
  <ele>443.07</ele>
  <time>2026-09-01T19:59:13Z</time>
  <course>348.5</course>
  <speed>1.332216198670471</speed>
  <fix>3d</fix>
</trkpt>
<trkpt lat="-27.2722028" lon="151.2900723">
  <ele>443.19</ele>
  <time>2026-09-01T19:59:13Z</time>
  <course>355.75</course>
  <speed>1.35</speed>
  <fix>3d</fix>
</trkpt>
<trkpt lat="-27.2721991" lon="151.2900714">
  <ele>443.07</ele>
  <time>2026-09-01T19:59:13Z</time>
  <course>348.49</course>
  <speed>1.3138112497615477</speed>
  <fix>3d</fix>
</trkpt>
<trkpt lat="-27.2722004" lon="151.2900722">
  <ele>443.18</ele>
  <time>2026-09-01T19:59:13Z</time>
  <course>354.76</course>
  <speed>1.32</speed>
  <fix>3d</fix>
</trkpt>
<trkpt lat="-27.272198" lon="151.2900713">
  <ele>443.07</ele>
  <time>2026-09-01T19:59:13Z</time>
  <course>348.48</course>
  <speed>1.2856515857727553</speed>
  <fix>3d</fix>
</trkpt>
<trkpt lat="-27.2722004" lon="151.2900722">
  <ele>443.18</ele>
  <time>2026-09-01T19:59:13Z</time>
  <course>354.76</course>
  <speed>1.32</speed>
  <fix>3d</fix>
</trkpt>
<trkpt lat="-27.2721969" lon="151.2900712">
  <ele>443.07</ele>
  <time>2026-09-01T19:59:13Z</time>
  <course>348.47</course>
  <speed>1.257656550891379</speed>
  <fix>3d</fix>
</trkpt>
<trkpt lat="-27.272198" lon="151.2900719">
  <ele>443.18</ele>
  <time>2026-09-01T19:59:13Z</time>
  <course>353.64</course>
  <speed>1.28</speed>
  <fix>3d</fix>
</trkpt>
<trkpt lat="-27.2721958" lon="151.290071">
  <ele>443.06</ele>
  <time>2026-09-01T19:59:13Z</time>
  <course>348.46</course>
  <speed>1.2182364302548172</speed>
  <fix>3d</fix>
</trkpt>
<trkpt lat="-27.272198" lon="151.2900719">
  <ele>443.18</ele>
  <time>2026-09-01T19:59:13Z</time>
  <course>353.64</course>
  <speed>1.28</speed>
  <fix>3d</fix>
</trkpt>
<trkpt lat="-27.2721947" lon="151.2900709">
  <ele>443.06</ele>
  <time>2026-09-01T19:59:13Z</time>
  <course>348.45</course>
  <speed>1.1806777714516352</speed>
  <fix>3d</fix>
</trkpt>
<trkpt lat="-27.2721958" lon="151.2900716">
  <ele>443.18</ele>
  <time>2026-09-01T19:59:13Z</time>
  <course>352.34</course>
  <speed>1.21</speed>
  <fix>3d</fix>
</trkpt>
<trkpt lat="-27.2721937" lon="151.2900707">
  <ele>443.06</ele>
  <time>2026-09-01T19:59:13Z</time>
  <course>348.44</course>
  <speed>1.1433722053644648</speed>
  <fix>3d</fix>
</trkpt>
<trkpt lat="-27.2721958" lon="151.2900716">
  <ele>443.18</ele>
  <time>2026-09-01T19:59:13Z</time>
  <course>352.34</course>
  <speed>1.21</speed>
  <fix>3d</fix>
</trkpt>
<trkpt lat="-27.2721927" lon="151.2900705">
  <ele>443.06</ele>
  <time>2026-09-01T19:59:13Z</time>
  <course>348.43</course>
  <speed>1.0965856099730653</speed>
  <fix>3d</fix>
</trkpt>
<trkpt lat="-27.2721937" lon="151.2900713">
  <ele>443.18</ele>
  <time>2026-09-01T19:59:13Z</time>
  <course>350.82</course>
  <speed>1.14</speed>
  <fix>3d</fix>
</trkpt>
<trkpt lat="-27.2721918" lon="151.2900703">
  <ele>443.06</ele>
  <time>2026-09-01T19:59:13Z</time>
  <course>348.41</course>
  <speed>1.047854951794379</speed>
  <fix>3d</fix>
</trkpt>
<trkpt lat="-27.2721937" lon="151.2900713">
  <ele>443.18</ele>
  <time>2026-09-01T19:59:13Z</time>
  <course>350.82</course>
  <speed>1.14</speed>
  <fix>3d</fix>
</trkpt>
<trkpt lat="-27.2721909" lon="151.2900701">
  <ele>443.06</ele>
  <time>2026-09-01T19:59:13Z</time>
  <course>348.4</course>
  <speed>0.9920181449953424</speed>
  <fix>3d</fix>
</trkpt>
<trkpt lat="-27.2721918" lon="151.2900709">
  <ele>443.17</ele>
  <time>2026-09-01T19:59:13Z</time>
  <course>349.01</course>
  <speed>1.05</speed>
  <fix>3d</fix>
</trkpt>
<trkpt lat="-27.2721901" lon="151.29007">
  <ele>443.06</ele>
  <time>2026-09-01T19:59:13Z</time>
  <course>348.39</course>
  <speed>0.9464142856064675</speed>
  <fix>3d</fix>
</trkpt>
<trkpt lat="-27.2721918" lon="151.2900709">
  <ele>443.17</ele>
  <time>2026-09-01T19:59:13Z</time>
  <course>349.01</course>
  <speed>1.05</speed>
  <fix>3d</fix>
</trkpt>
<trkpt lat="-27.2721893" lon="151.2900697">
  <ele>443.06</ele>
  <time>2026-09-01T19:59:13Z</time>
  <course>348.38</course>
  <speed>0.8888756943465155</speed>
  <fix>3d</fix>
</trkpt>
<trkpt lat="-27.27219" lon="151.2900705">
  <ele>443.17</ele>
  <time>2026-09-01T19:59:13Z</time>
  <course>346.8</course>
  <speed>0.94</speed>
  <fix>3d</fix>
</trkpt>
<trkpt lat="-27.2721885" lon="151.2900695">
  <ele>443.06</ele>
  <time>2026-09-01T19:59:13Z</time>
  <course>348.37</course>
  <speed>0.8348652585896721</speed>
  <fix>3d</fix>
</trkpt>
<trkpt lat="-27.27219" lon="151.2900705">
  <ele>443.17</ele>
  <time>2026-09-01T19:59:13Z</time>
  <course>346.8</course>
  <speed>0.94</speed>
  <fix>3d</fix>
</trkpt>
<trkpt lat="-27.2721879" lon="151.2900693">
  <ele>443.06</ele>
  <time>2026-09-01T19:59:13Z</time>
  <course>348.36</course>
  <speed>0.7689603370785778</speed>
  <fix>3d</fix>
</trkpt>
<trkpt lat="-27.2721885" lon="151.29007">
  <ele>443.17</ele>
  <time>2026-09-01T19:59:13Z</time>
  <course>344.06</course>
  <speed>0.83</speed>
  <fix>3d</fix>
</trkpt>
<trkpt lat="-27.2721872" lon="151.2900691">
  <ele>443.06</ele>
  <time>2026-09-01T19:59:13Z</time>
  <course>348.34</course>
  <speed>0.7130918594402827</speed>
  <fix>3d</fix>
</trkpt>
<trkpt lat="-27.2721885" lon="151.29007">
  <ele>443.17</ele>
  <time>2026-09-01T19:59:13Z</time>
  <course>344.06</course>
  <speed>0.83</speed>
  <fix>3d</fix>
</trkpt>
<trkpt lat="-27.2721867" lon="151.2900689">
  <ele>443.06</ele>
  <time>2026-09-01T19:59:13Z</time>
  <course>348.33</course>
  <speed>0.6488451279003334</speed>
  <fix>3d</fix>
</trkpt>
<trkpt lat="-27.2721871" lon="151.2900695">
  <ele>443.17</ele>
  <time>2026-09-01T19:59:13Z</time>
  <course>340.48</course>
  <speed>0.71</speed>
  <fix>3d</fix>
</trkpt>
<trkpt lat="-27.2721862" lon="151.2900686">
  <ele>443.06</ele>
  <time>2026-09-01T19:59:13Z</time>
  <course>348.32</course>
  <speed>0.5994163828258283</speed>
  <fix>3d</fix>
</trkpt>
<trkpt lat="-27.2721871" lon="151.2900695">
  <ele>443.17</ele>
  <time>2026-09-01T19:59:13Z</time>
  <course>340.48</course>
  <speed>0.71</speed>
  <fix>3d</fix>
</trkpt>
<trkpt lat="-27.2721857" lon="151.2900684">
  <ele>443.06</ele>
  <time>2026-09-01T19:59:13Z</time>
  <course>348.33</course>
  <speed>0.5385164807134504</speed>
  <fix>3d</fix>
</trkpt>
<trkpt lat="-27.272186" lon="151.290069">
  <ele>443.17</ele>
  <time>2026-09-01T19:59:13Z</time>
  <course>335.52</course>
  <speed>0.59</speed>
  <fix>3d</fix>
</trkpt>
<trkpt lat="-27.2721853" lon="151.2900682">
  <ele>443.06</ele>
  <time>2026-09-01T19:59:13Z</time>
  <course>348.34</course>
  <speed>0.4801041553663121</speed>
  <fix>3d</fix>
</trkpt>
<trkpt lat="-27.272186" lon="151.290069">
  <ele>443.17</ele>
  <time>2026-09-01T19:59:13Z</time>
  <course>335.52</course>
  <speed>0.59</speed>
  <fix>3d</fix>
</trkpt>
<trkpt lat="-27.272185" lon="151.2900679">
  <ele>443.06</ele>
  <time>2026-09-01T19:59:13Z</time>
  <course>348.35</course>
  <speed>0.43278170016764805</speed>
  <fix>3d</fix>
</trkpt>
<trkpt lat="-27.2721852" lon="151.2900685">
  <ele>443.18</ele>
  <time>2026-09-01T19:59:13Z</time>
  <course>328.25</course>
  <speed>0.48</speed>
  <fix>3d</fix>
</trkpt>
<trkpt lat="-27.2721847" lon="151.2900677">
  <ele>443.06</ele>
  <time>2026-09-01T19:59:13Z</time>
  <course>348.36</course>
  <speed>0.382099463490856</speed>
  <fix>3d</fix>
</trkpt>
<trkpt lat="-27.2721852" lon="151.2900685">
  <ele>443.18</ele>
  <time>2026-09-01T19:59:13Z</time>
  <course>328.25</course>
  <speed>0.48</speed>
  <fix>3d</fix>
</trkpt>
<trkpt lat="-27.2721845" lon="151.2900675">
  <ele>443.06</ele>
  <time>2026-09-01T19:59:13Z</time>
  <course>348.37</course>
  <speed>0.34409301068170506</speed>
  <fix>3d</fix>
</trkpt>
<trkpt lat="-27.2721845" lon="151.290068">
  <ele>443.18</ele>
  <time>2026-09-01T19:59:13Z</time>
  <course>316.98</course>
  <speed>0.37</speed>
  <fix>3d</fix>
</trkpt>
<trkpt lat="-27.2721843" lon="151.2900672">
  <ele>443.05</ele>
  <time>2026-09-01T19:59:13Z</time>
  <course>348.38</course>
  <speed>0.3087069808086626</speed>
  <fix>3d</fix>
</trkpt>
<trkpt lat="-27.2721845" lon="151.290068">
  <ele>443.18</ele>
  <time>2026-09-01T19:59:13Z</time>
  <course>316.98</course>
  <speed>0.37</speed>
  <fix>3d</fix>
</trkpt>
<trkpt lat="-27.2721842" lon="151.290067">
  <ele>443.05</ele>
  <time>2026-09-01T19:59:13Z</time>
  <course>348.39</course>
  <speed>0.28861739379323625</speed>
  <fix>3d</fix>
</trkpt>
<trkpt lat="-27.2721842" lon="151.2900675">
  <ele>443.18</ele>
  <time>2026-09-01T19:59:13Z</time>
  <course>299.31</course>
  <speed>0.29</speed>
  <fix>3d</fix>
</trkpt>
<trkpt lat="-27.2721842" lon="151.2900667">
  <ele>443.05</ele>
  <time>2026-09-01T19:59:13Z</time>
  <course>348.39</course>
  <speed>0.27018512172212594</speed>
  <fix>3d</fix>
</trkpt>
<trkpt lat="-27.2721842" lon="151.2900675">
  <ele>443.18</ele>
  <time>2026-09-01T19:59:13Z</time>
  <course>299.31</course>
  <speed>0.29</speed>
  <fix>3d</fix>
</trkpt>
<trkpt lat="-27.2721842" lon="151.2900665">
  <ele>443.06</ele>
  <time>2026-09-01T19:59:13Z</time>
  <course>348.39</course>
  <speed>0.27294688127912364</speed>
  <fix>3d</fix>
</trkpt>
<trkpt lat="-27.272184" lon="151.290067">
  <ele>443.18</ele>
  <time>2026-09-01T19:59:13Z</time>
  <course>274.38</course>
  <speed>0.25</speed>
  <fix>3d</fix>
</trkpt>
<trkpt lat="-27.2721842" lon="151.2900662">
  <ele>443.06</ele>
  <time>2026-09-01T19:59:13Z</time>
  <course>348.38</course>
  <speed>0.2751363298439521</speed>
  <fix>3d</fix>
</trkpt>
<trkpt lat="-27.272184" lon="151.290067">
  <ele>443.18</ele>
  <time>2026-09-01T19:59:13Z</time>
  <course>274.38</course>
  <speed>0.25</speed>
  <fix>3d</fix>
</trkpt>
<trkpt lat="-27.2721843" lon="151.290066">
  <ele>443.06</ele>
  <time>2026-09-01T19:59:13Z</time>
  <course>348.38</course>
  <speed>0.295296461204668</speed>
  <fix>3d</fix>
</trkpt>
<trkpt lat="-27.272184" lon="151.2900664">
  <ele>443.18</ele>
  <time>2026-09-01T19:59:13Z</time>
  <course>249.62</course>
  <speed>0.26</speed>
  <fix>3d</fix>
</trkpt>
<trkpt lat="-27.2721845" lon="151.2900658">
  <ele>443.06</ele>
  <time>2026-09-01T19:59:13Z</time>
  <course>348.37</course>
  <speed>0.3080584360149873</speed>
  <fix>3d</fix>
</trkpt>
<trkpt lat="-27.272184" lon="151.2900664">
  <ele>443.18</ele>
  <time>2026-09-01T19:59:13Z</time>
  <course>249.62</course>
  <speed>0.26</speed>
  <fix>3d</fix>
</trkpt>
<trkpt lat="-27.2721846" lon="151.2900655">
  <ele>443.06</ele>
  <time>2026-09-01T19:59:13Z</time>
  <course>348.35</course>
  <speed>0.3330165161069343</speed>
  <fix>3d</fix>
</trkpt>
<trkpt lat="-27.2721843" lon="151.2900659">
  <ele>443.18</ele>
  <time>2026-09-01T19:59:13Z</time>
  <course>232.41</course>
  <speed>0.3</speed>
  <fix>3d</fix>
</trkpt>
<trkpt lat="-27.2721847" lon="151.2900653">
  <ele>443.06</ele>
  <time>2026-09-01T19:59:13Z</time>
  <course>348.33</course>
  <speed>0.34655446902326914</speed>
  <fix>3d</fix>
</trkpt>
<trkpt lat="-27.2721843" lon="151.2900659">
  <ele>443.18</ele>
  <time>2026-09-01T19:59:13Z</time>
  <course>232.41</course>
  <speed>0.3</speed>
  <fix>3d</fix>
</trkpt>
<trkpt lat="-27.272185" lon="151.2900651">
  <ele>443.06</ele>
  <time>2026-09-01T19:59:13Z</time>
  <course>348.3</course>
  <speed>0.3687817782917155</speed>
  <fix>3d</fix>
</trkpt>
<trkpt lat="-27.2721846" lon="151.2900655">
  <ele>443.18</ele>
  <time>2026-09-01T19:59:13Z</time>
  <course>221.34</course>
  <speed>0.34</speed>
  <fix>3d</fix>
</trkpt>
<trkpt lat="-27.2721852" lon="151.2900649">
  <ele>443.06</ele>
  <time>2026-09-01T19:59:13Z</time>
  <course>348.27</course>
  <speed>0.38600518131237566</speed>
  <fix>3d</fix>
</trkpt>
<trkpt lat="-27.2721846" lon="151.2900655">
  <ele>443.18</ele>
  <time>2026-09-01T19:59:13Z</time>
  <course>221.34</course>
  <speed>0.34</speed>
  <fix>3d</fix>
</trkpt>
<trkpt lat="-27.2721855" lon="151.2900647">
  <ele>443.06</ele>
  <time>2026-09-01T19:59:13Z</time>
  <course>348.24</course>
  <speed>0.3966106403010388</speed>
  <fix>3d</fix>
</trkpt>
<trkpt lat="-27.2721852" lon="151.2900651">
  <ele>443.19</ele>
  <time>2026-09-01T19:59:13Z</time>
  <course>213.8</course>
  <speed>0.38</speed>
  <fix>3d</fix>
</trkpt>
<trkpt lat="-27.2721858" lon="151.2900645">
  <ele>443.06</ele>
  <time>2026-09-01T19:59:13Z</time>
  <course>348.22</course>
  <speed>0.408166632639171</speed>
  <fix>3d</fix>
</trkpt>
<trkpt lat="-27.2721852" lon="151.2900651">
  <ele>443.19</ele>
  <time>2026-09-01T19:59:13Z</time>
  <course>213.8</course>
  <speed>0.38</speed>
  <fix>3d</fix>
</trkpt>
<trkpt lat="-27.2721861" lon="151.2900643">
  <ele>443.07</ele>
  <time>2026-09-01T19:59:13Z</time>
  <course>348.19</course>
  <speed>0.4205948168962618</speed>
  <fix>3d</fix>
</trkpt>
<trkpt lat="-27.2721858" lon="151.2900647">
  <ele>443.19</ele>
  <time>2026-09-01T19:59:13Z</time>
  <course>208.32</course>
  <speed>0.41</speed>
  <fix>3d</fix>
</trkpt>
<trkpt lat="-27.2721865" lon="151.2900641">
  <ele>443.07</ele>
  <time>2026-09-01T19:59:13Z</time>
  <course>348.17</course>
  <speed>0.42485291572496003</speed>
  <fix>3d</fix>
</trkpt>
<trkpt lat="-27.2721858" lon="151.2900647">
  <ele>443.19</ele>
  <time>2026-09-01T19:59:13Z</time>
  <course>208.32</course>
  <speed>0.41</speed>
  <fix>3d</fix>
</trkpt>
<trkpt lat="-27.2721868" lon="151.2900639">
  <ele>443.07</ele>
  <time>2026-09-01T19:59:13Z</time>
  <course>348.16</course>
  <speed>0.4295346318982906</speed>
  <fix>3d</fix>
</trkpt>
<trkpt lat="-27.2721864" lon="151.2900642">
  <ele>443.19</ele>
  <time>2026-09-01T19:59:13Z</time>
  <course>204.12</course>
  <speed>0.43</speed>
  <fix>3d</fix>
</trkpt>
<trkpt lat="-27.2721872" lon="151.2900638">
  <ele>443.07</ele>
  <time>2026-09-01T19:59:13Z</time>
  <course>348.15</course>
  <speed>0.4346262762420146</speed>
  <fix>3d</fix>
</trkpt>
<trkpt lat="-27.2721864" lon="151.2900642">
  <ele>443.19</ele>
  <time>2026-09-01T19:59:13Z</time>
  <course>204.12</course>
  <speed>0.43</speed>
  <fix>3d</fix>
</trkpt>
<trkpt lat="-27.2721875" lon="151.2900636">
  <ele>443.08</ele>
  <time>2026-09-01T19:59:13Z</time>
  <course>348.15</course>
  <speed>0.4308131845707603</speed>
  <fix>3d</fix>
</trkpt>
<trkpt lat="-27.2721872" lon="151.2900639">
  <ele>443.19</ele>
  <time>2026-09-01T19:59:13Z</time>
  <course>200.68</course>
  <speed>0.44</speed>
  <fix>3d</fix>
</trkpt>
<trkpt lat="-27.2721879" lon="151.2900635">
  <ele>443.08</ele>
  <time>2026-09-01T19:59:13Z</time>
  <course>348.15</course>
  <speed>0.43657759905886145</speed>
  <fix>3d</fix>
</trkpt>
<trkpt lat="-27.2721872" lon="151.2900639">
  <ele>443.19</ele>
  <time>2026-09-01T19:59:13Z</time>
  <course>200.68</course>
  <speed>0.44</speed>
  <fix>3d</fix>
</trkpt>
<trkpt lat="-27.2721883" lon="151.2900634">
  <ele>443.08</ele>
  <time>2026-09-01T19:59:13Z</time>
  <course>348.15</course>
  <speed>0.4332435804486894</speed>
  <fix>3d</fix>
</trkpt>
<trkpt lat="-27.272188" lon="151.2900636">
  <ele>443.19</ele>
  <time>2026-09-01T19:59:13Z</time>
  <course>197.55</course>
  <speed>0.44</speed>
  <fix>3d</fix>
</trkpt>
<trkpt lat="-27.2721887" lon="151.2900632">
  <ele>443.07</ele>
  <time>2026-09-01T19:59:13Z</time>
  <course>348.15</course>
  <speed>0.42720018726587655</speed>
  <fix>3d</fix>
</trkpt>
<trkpt lat="-27.272188" lon="151.2900636">
  <ele>443.19</ele>
  <time>2026-09-01T19:59:13Z</time>
  <course>197.55</course>
  <speed>0.44</speed>
  <fix>3d</fix>
</trkpt>
<trkpt lat="-27.272189" lon="151.2900631">
  <ele>443.07</ele>
  <time>2026-09-01T19:59:13Z</time>
  <course>348.15</course>
  <speed>0.42449970553582245</speed>
  <fix>3d</fix>
</trkpt>
<trkpt lat="-27.2721887" lon="151.2900634">
  <ele>443.19</ele>
  <time>2026-09-01T19:59:13Z</time>
  <course>194.53</course>
  <speed>0.44</speed>
  <fix>3d</fix>
</trkpt>
<trkpt lat="-27.2721894" lon="151.290063">
  <ele>443.07</ele>
  <time>2026-09-01T19:59:13Z</time>
  <course>348.15</course>
  <speed>0.41231056256176607</speed>
  <fix>3d</fix>
</trkpt>
<trkpt lat="-27.2721887" lon="151.2900634">
  <ele>443.19</ele>
  <time>2026-09-01T19:59:13Z</time>
  <course>194.53</course>
  <speed>0.44</speed>
  <fix>3d</fix>
</trkpt>
<trkpt lat="-27.2721898" lon="151.290063">
  <ele>443.07</ele>
  <time>2026-09-01T19:59:13Z</time>
  <course>348.16</course>
  <speed>0.41</speed>
  <fix>3d</fix>
</trkpt>
<trkpt lat="-27.2721894" lon="151.2900632">
  <ele>443.19</ele>
  <time>2026-09-01T19:59:13Z</time>
  <course>191.71</course>
  <speed>0.43</speed>
  <fix>3d</fix>
</trkpt>
<trkpt lat="-27.2721901" lon="151.2900629">
  <ele>443.07</ele>
  <time>2026-09-01T19:59:13Z</time>
  <course>348.18</course>
  <speed>0.39812058474788764</speed>
  <fix>3d</fix>
</trkpt>
<trkpt lat="-27.2721894" lon="151.2900632">
  <ele>443.19</ele>
  <time>2026-09-01T19:59:13Z</time>
  <course>191.71</course>
  <speed>0.43</speed>
  <fix>3d</fix>
</trkpt>
<trkpt lat="-27.2721905" lon="151.2900628">
  <ele>443.06</ele>
  <time>2026-09-01T19:59:13Z</time>
  <course>348.2</course>
  <speed>0.38639358172723315</speed>
  <fix>3d</fix>
</trkpt>
<trkpt lat="-27.2721902" lon="151.290063">
  <ele>443.19</ele>
  <time>2026-09-01T19:59:13Z</time>
  <course>188.96</course>
  <speed>0.41</speed>
  <fix>3d</fix>
</trkpt>
<trkpt lat="-27.2721908" lon="151.2900628">
  <ele>443.07</ele>
  <time>2026-09-01T19:59:13Z</time>
  <course>348.21</course>
  <speed>0.37483329627982626</speed>
  <fix>3d</fix>
</trkpt>
<trkpt lat="-27.2721902" lon="151.290063">
  <ele>443.19</ele>
  <time>2026-09-01T19:59:13Z</time>
  <course>188.96</course>
  <speed>0.41</speed>
  <fix>3d</fix>
</trkpt>
<trkpt lat="-27.2721912" lon="151.2900628">
  <ele>443.07</ele>
  <time>2026-09-01T19:59:13Z</time>
  <course>348.22</course>
  <speed>0.3634556369077249</speed>
  <fix>3d</fix>
</trkpt>
<trkpt lat="-27.272191" lon="151.2900629">
  <ele>443.19</ele>
  <time>2026-09-01T19:59:13Z</time>
  <course>186.04</course>
  <speed>0.39</speed>
  <fix>3d</fix>
</trkpt>
<trkpt lat="-27.2721915" lon="151.2900627">
  <ele>443.07</ele>
  <time>2026-09-01T19:59:13Z</time>
  <course>348.23</course>
  <speed>0.35128336140500593</speed>
  <fix>3d</fix>
</trkpt>
<trkpt lat="-27.272191" lon="151.2900629">
  <ele>443.19</ele>
  <time>2026-09-01T19:59:13Z</time>
  <course>186.04</course>
  <speed>0.39</speed>
  <fix>3d</fix>
</trkpt>
<trkpt lat="-27.2721918" lon="151.2900627">
  <ele>443.07</ele>
  <time>2026-09-01T19:59:13Z</time>
  <course>348.23</course>
  <speed>0.34058772731852804</speed>
  <fix>3d</fix>
</trkpt>
<trkpt lat="-27.2721917" lon="151.2900628">
  <ele>443.18</ele>
  <time>2026-09-01T19:59:13Z</time>
  <course>182.95</course>
  <speed>0.37</speed>
  <fix>3d</fix>
</trkpt>
<trkpt lat="-27.2721922" lon="151.2900627">
  <ele>443.07</ele>
  <time>2026-09-01T19:59:13Z</time>
  <course>348.24</course>
  <speed>0.3301514803843835</speed>
  <fix>3d</fix>
</trkpt>
<trkpt lat="-27.2721917" lon="151.2900628">
  <ele>443.18</ele>
  <time>2026-09-01T19:59:13Z</time>
  <course>182.95</course>
  <speed>0.37</speed>
  <fix>3d</fix>
</trkpt>
<trkpt lat="-27.2721925" lon="151.2900627">
  <ele>443.07</ele>
  <time>2026-09-01T19:59:13Z</time>
  <course>348.25</course>
  <speed>0.32</speed>
  <fix>3d</fix>
</trkpt>
<trkpt lat="-27.2721923" lon="151.2900628">
  <ele>443.18</ele>
  <time>2026-09-01T19:59:13Z</time>
  <course>179.63</course>
  <speed>0.35</speed>
  <fix>3d</fix>
</trkpt>
<trkpt lat="-27.2721928" lon="151.2900627">
  <ele>443.07</ele>
  <time>2026-09-01T19:59:13Z</time>
  <course>348.28</course>
  <speed>0.31</speed>
  <fix>3d</fix>
</trkpt>
<trkpt lat="-27.2721923" lon="151.2900628">
  <ele>443.18</ele>
  <time>2026-09-01T19:59:13Z</time>
  <course>179.63</course>
  <speed>0.35</speed>
  <fix>3d</fix>
</trkpt>
<trkpt lat="-27.2721931" lon="151.2900627">
  <ele>443.07</ele>
  <time>2026-09-01T19:59:13Z</time>
  <course>348.31</course>
  <speed>0.30016662039607267</speed>
  <fix>3d</fix>
</trkpt>
<trkpt lat="-27.272193" lon="151.2900628">
  <ele>443.18</ele>
  <time>2026-09-01T19:59:13Z</time>
  <course>176.02</course>
  <speed>0.33</speed>
  <fix>3d</fix>
</trkpt>
<trkpt lat="-27.2721933" lon="151.2900627">
  <ele>443.07</ele>
  <time>2026-09-01T19:59:13Z</time>
  <course>348.34</course>
  <speed>0.280178514522438</speed>
  <fix>3d</fix>
</trkpt>
<trkpt lat="-27.272193" lon="151.2900628">
  <ele>443.18</ele>
  <time>2026-09-01T19:59:13Z</time>
  <course>176.02</course>
  <speed>0.33</speed>
  <fix>3d</fix>
</trkpt>
<trkpt lat="-27.2721936" lon="151.2900627">
  <ele>443.07</ele>
  <time>2026-09-01T19:59:13Z</time>
  <course>348.36</course>
  <speed>0.2707397274136177</speed>
  <fix>3d</fix>
</trkpt>
<trkpt lat="-27.2721935" lon="151.2900628">
  <ele>443.18</ele>
  <time>2026-09-01T19:59:13Z</time>
  <course>172.2</course>
  <speed>0.31</speed>
  <fix>3d</fix>
</trkpt>
<trkpt lat="-27.2721939" lon="151.2900628">
  <ele>443.07</ele>
  <time>2026-09-01T19:59:13Z</time>
  <course>348.38</course>
  <speed>0.261725046566048</speed>
  <fix>3d</fix>
</trkpt>
<trkpt lat="-27.2721935" lon="151.2900628">
  <ele>443.18</ele>
  <time>2026-09-01T19:59:13Z</time>
  <course>172.2</course>
  <speed>0.31</speed>
  <fix>3d</fix>
</trkpt>
<trkpt lat="-27.2721941" lon="151.2900628">
  <ele>443.07</ele>
  <time>2026-09-01T19:59:13Z</time>
  <course>348.43</course>
  <speed>0.25179356624028343</speed>
  <fix>3d</fix>
</trkpt>
<trkpt lat="-27.272194" lon="151.2900629">
  <ele>443.18</ele>
  <time>2026-09-01T19:59:13Z</time>
  <course>168.56</course>
  <speed>0.29</speed>
  <fix>3d</fix>
</trkpt>
<trkpt lat="-27.2721943" lon="151.2900629">
  <ele>443.07</ele>
  <time>2026-09-01T19:59:13Z</time>
  <course>348.5</course>
  <speed>0.23345235059857505</speed>
  <fix>3d</fix>
</trkpt>
<trkpt lat="-27.272194" lon="151.2900629">
  <ele>443.18</ele>
  <time>2026-09-01T19:59:13Z</time>
  <course>168.56</course>
  <speed>0.29</speed>
  <fix>3d</fix>
</trkpt>
<trkpt lat="-27.2721946" lon="151.2900629">
  <ele>443.07</ele>
  <time>2026-09-01T19:59:13Z</time>
  <course>348.58</course>
  <speed>0.223606797749979</speed>
  <fix>3d</fix>
</trkpt>
<trkpt lat="-27.2721945" lon="151.2900631">
  <ele>443.18</ele>
  <time>2026-09-01T19:59:13Z</time>
  <course>165.17</course>
  <speed>0.26</speed>
  <fix>3d</fix>
</trkpt>
<trkpt lat="-27.2721948" lon="151.290063">
  <ele>443.07</ele>
  <time>2026-09-01T19:59:13Z</time>
  <course>348.66</course>
  <speed>0.20615528128088303</speed>
  <fix>3d</fix>
</trkpt>
<trkpt lat="-27.2721945" lon="151.2900631">
  <ele>443.18</ele>
  <time>2026-09-01T19:59:13Z</time>
  <course>165.17</course>
  <speed>0.26</speed>
  <fix>3d</fix>
</trkpt>
<trkpt lat="-27.272195" lon="151.2900631">
  <ele>443.07</ele>
  <time>2026-09-01T19:59:13Z</time>
  <course>348.71</course>
  <speed>0.196468827043885</speed>
  <fix>3d</fix>
</trkpt>
<trkpt lat="-27.2721949" lon="151.2900632">
  <ele>443.18</ele>
  <time>2026-09-01T19:59:13Z</time>
  <course>161.39</course>
  <speed>0.24</speed>
  <fix>3d</fix>
</trkpt>
<trkpt lat="-27.2721951" lon="151.2900632">
  <ele>443.07</ele>
  <time>2026-09-01T19:59:13Z</time>
  <course>348.73</course>
  <speed>0.18681541692269404</speed>
  <fix>3d</fix>
</trkpt>
<trkpt lat="-27.2721949" lon="151.2900632">
  <ele>443.18</ele>
  <time>2026-09-01T19:59:13Z</time>
  <course>161.39</course>
  <speed>0.24</speed>
  <fix>3d</fix>
</trkpt>
<trkpt lat="-27.2721953" lon="151.2900632">
  <ele>443.07</ele>
  <time>2026-09-01T19:59:13Z</time>
  <course>348.72</course>
  <speed>0.1708800749063506</speed>
  <fix>3d</fix>
</trkpt>
<trkpt lat="-27.2721954" lon="151.2900634">
  <ele>443.17</ele>
  <time>2026-09-01T19:59:13Z</time>
  <course>156.96</course>
  <speed>0.22</speed>
  <fix>3d</fix>
</trkpt>
<trkpt lat="-27.2721955" lon="151.2900633">
  <ele>443.07</ele>
  <time>2026-09-01T19:59:13Z</time>
  <course>348.7</course>
  <speed>0.1615549442140351</speed>
  <fix>3d</fix>
</trkpt>
<trkpt lat="-27.2721954" lon="151.2900634">
  <ele>443.17</ele>
  <time>2026-09-01T19:59:13Z</time>
  <course>156.96</course>
  <speed>0.22</speed>
  <fix>3d</fix>
</trkpt>
<trkpt lat="-27.2721956" lon="151.2900634">
  <ele>443.07</ele>
  <time>2026-09-01T19:59:13Z</time>
  <course>348.66</course>
  <speed>0.14317821063276354</speed>
  <fix>3d</fix>
</trkpt>
<trkpt lat="-27.2721957" lon="151.2900636">
  <ele>443.17</ele>
  <time>2026-09-01T19:59:13Z</time>
  <course>151.85</course>
  <speed>0.19</speed>
  <fix>3d</fix>
</trkpt>
<trkpt lat="-27.2721958" lon="151.2900635">
  <ele>443.07</ele>
  <time>2026-09-01T19:59:13Z</time>
  <course>348.62</course>
  <speed>0.13892443989449804</speed>
  <fix>3d</fix>
</trkpt>
<trkpt lat="-27.2721957" lon="151.2900636">
  <ele>443.17</ele>
  <time>2026-09-01T19:59:13Z</time>
  <course>151.85</course>
  <speed>0.19</speed>
  <fix>3d</fix>
</trkpt>
<trkpt lat="-27.2721959" lon="151.2900636">
  <ele>443.07</ele>
  <time>2026-09-01T19:59:13Z</time>
  <course>348.57</course>
  <speed>0.12206555615733702</speed>
  <fix>3d</fix>
</trkpt>
<trkpt lat="-27.272196" lon="151.2900637">
  <ele>443.16</ele>
  <time>2026-09-01T19:59:13Z</time>
  <course>145.74</course>
  <speed>0.17</speed>
  <fix>3d</fix>
</trkpt>
<trkpt lat="-27.272196" lon="151.2900637">
  <ele>443.07</ele>
  <time>2026-09-01T19:59:13Z</time>
  <course>348.54</course>
  <speed>0.11401754250991379</speed>
  <fix>3d</fix>
</trkpt>
<trkpt lat="-27.272196" lon="151.2900637">
  <ele>443.16</ele>
  <time>2026-09-01T19:59:13Z</time>
  <course>145.74</course>
  <speed>0.17</speed>
  <fix>3d</fix>
</trkpt>
<trkpt lat="-27.2721961" lon="151.2900638">
  <ele>443.07</ele>
  <time>2026-09-01T19:59:13Z</time>
  <course>348.52</course>
  <speed>0.09899494936611665</speed>
  <fix>3d</fix>
</trkpt>
<trkpt lat="-27.2721963" lon="151.290064">
  <ele>443.16</ele>
  <time>2026-09-01T19:59:13Z</time>
  <course>138.24</course>
  <speed>0.15</speed>
  <fix>3d</fix>
</trkpt>
<trkpt lat="-27.2721962" lon="151.2900639">
  <ele>443.06</ele>
  <time>2026-09-01T19:59:13Z</time>
  <course>348.52</course>
  <speed>0.09219544457292887</speed>
  <fix>3d</fix>
</trkpt>
<trkpt lat="-27.2721963" lon="151.290064">
  <ele>443.16</ele>
  <time>2026-09-01T19:59:13Z</time>
  <course>138.24</course>
  <speed>0.15</speed>
  <fix>3d</fix>
</trkpt>
<trkpt lat="-27.2721962" lon="151.290064">
  <ele>443.06</ele>
  <time>2026-09-01T19:59:13Z</time>
  <course>348.52</course>
  <speed>0.08062257748298549</speed>
  <fix>3d</fix>
</trkpt>
<trkpt lat="-27.2721964" lon="151.2900642">
  <ele>443.16</ele>
  <time>2026-09-01T19:59:13Z</time>
  <course>128.82</course>
  <speed>0.13</speed>
  <fix>3d</fix>
</trkpt>
<trkpt lat="-27.2721963" lon="151.2900641">
  <ele>443.06</ele>
  <time>2026-09-01T19:59:13Z</time>
  <course>348.52</course>
  <speed>0.07615773105863909</speed>
  <fix>3d</fix>
</trkpt>
<trkpt lat="-27.2721964" lon="151.2900642">
  <ele>443.16</ele>
  <time>2026-09-01T19:59:13Z</time>
  <course>128.82</course>
  <speed>0.13</speed>
  <fix>3d</fix>
</trkpt>
<trkpt lat="-27.2721963" lon="151.2900642">
  <ele>443.06</ele>
  <time>2026-09-01T19:59:13Z</time>
  <course>348.53</course>
  <speed>0.07071067811865475</speed>
  <fix>3d</fix>
</trkpt>
<trkpt lat="-27.2721965" lon="151.2900644">
  <ele>443.16</ele>
  <time>2026-09-01T19:59:13Z</time>
  <course>116.78</course>
  <speed>0.11</speed>
  <fix>3d</fix>
</trkpt>
<trkpt lat="-27.2721964" lon="151.2900643">
  <ele>443.06</ele>
  <time>2026-09-01T19:59:13Z</time>
  <course>348.53</course>
  <speed>0.07</speed>
  <fix>3d</fix>
</trkpt>
<trkpt lat="-27.2721965" lon="151.2900644">
  <ele>443.16</ele>
  <time>2026-09-01T19:59:13Z</time>
  <course>116.78</course>
  <speed>0.11</speed>
  <fix>3d</fix>
</trkpt>
<trkpt lat="-27.2721964" lon="151.2900644">
  <ele>443.06</ele>
  <time>2026-09-01T19:59:13Z</time>
  <course>348.54</course>
  <speed>0.06082762530298219</speed>
  <fix>3d</fix>
</trkpt>
<trkpt lat="-27.2721966" lon="151.2900646">
  <ele>443.15</ele>
  <time>2026-09-01T19:59:13Z</time>
  <course>102.14</course>
  <speed>0.1</speed>
  <fix>3d</fix>
</trkpt>
<trkpt lat="-27.2721964" lon="151.2900645">
  <ele>443.06</ele>
  <time>2026-09-01T19:59:13Z</time>
  <course>348.54</course>
  <speed>0.0632455532033676</speed>
  <fix>3d</fix>
</trkpt>
<trkpt lat="-27.2721966" lon="151.2900646">
  <ele>443.15</ele>
  <time>2026-09-01T19:59:13Z</time>
  <course>102.14</course>
  <speed>0.1</speed>
  <fix>3d</fix>
</trkpt>
<trkpt lat="-27.2721964" lon="151.2900646">
  <ele>443.06</ele>
  <time>2026-09-01T19:59:13Z</time>
  <course>348.54</course>
  <speed>0.0670820393249937</speed>
  <fix>3d</fix>
</trkpt>
<trkpt lat="-27.2721966" lon="151.2900647">
  <ele>443.15</ele>
  <time>2026-09-01T19:59:13Z</time>
  <course>85.94</course>
  <speed>0.09</speed>
  <fix>3d</fix>
</trkpt>
<trkpt lat="-27.2721964" lon="151.2900647">
  <ele>443.06</ele>
  <time>2026-09-01T19:59:13Z</time>
  <course>348.54</course>
  <speed>0.07211102550927978</speed>
  <fix>3d</fix>
</trkpt>
<trkpt lat="-27.2721966" lon="151.2900647">
  <ele>443.15</ele>
  <time>2026-09-01T19:59:13Z</time>
  <course>85.94</course>
  <speed>0.09</speed>
  <fix>3d</fix>
</trkpt>
<trkpt lat="-27.2721963" lon="151.2900648">
  <ele>443.06</ele>
  <time>2026-09-01T19:59:13Z</time>
  <course>348.54</course>
  <speed>0.07810249675906654</speed>
  <fix>3d</fix>
</trkpt>
<trkpt lat="-27.2721966" lon="151.290065">
  <ele>443.15</ele>
  <time>2026-09-01T19:59:13Z</time>
  <course>69.9</course>
  <speed>0.09</speed>
  <fix>3d</fix>
</trkpt>
<trkpt lat="-27.2721964" lon="151.2900648">
  <ele>443.06</ele>
  <time>2026-09-01T19:59:13Z</time>
  <course>348.54</course>
  <speed>0.08602325267042626</speed>
  <fix>3d</fix>
</trkpt>
<trkpt lat="-27.2721966" lon="151.290065">
  <ele>443.15</ele>
  <time>2026-09-01T19:59:13Z</time>
  <course>69.9</course>
  <speed>0.09</speed>
  <fix>3d</fix>
</trkpt>
<trkpt lat="-27.2721963" lon="151.2900649">
  <ele>443.06</ele>
  <time>2026-09-01T19:59:13Z</time>
  <course>348.54</course>
  <speed>0.08944271909999159</speed>
  <fix>3d</fix>
</trkpt>
<trkpt lat="-27.2721966" lon="151.2900651">
  <ele>443.15</ele>
  <time>2026-09-01T19:59:13Z</time>
  <course>55.13</course>
  <speed>0.09</speed>
  <fix>3d</fix>
</trkpt>
<trkpt lat="-27.2721963" lon="151.290065">
  <ele>443.06</ele>
  <time>2026-09-01T19:59:13Z</time>
  <course>348.55</course>
  <speed>0.09848857801796104</speed>
  <fix>3d</fix>
</trkpt>
<trkpt lat="-27.2721966" lon="151.2900651">
  <ele>443.15</ele>
  <time>2026-09-01T19:59:13Z</time>
  <course>55.13</course>
  <speed>0.09</speed>
  <fix>3d</fix>
</trkpt>
<trkpt lat="-27.2721962" lon="151.290065">
  <ele>443.06</ele>
  <time>2026-09-01T19:59:13Z</time>
  <course>348.55</course>
  <speed>0.1044030650891055</speed>
  <fix>3d</fix>
</trkpt>
<trkpt lat="-27.2721965" lon="151.2900652">
  <ele>443.15</ele>
  <time>2026-09-01T19:59:13Z</time>
  <course>41.91</course>
  <speed>0.1</speed>
  <fix>3d</fix>
</trkpt>
<trkpt lat="-27.2721961" lon="151.2900651">
  <ele>443.06</ele>
  <time>2026-09-01T19:59:13Z</time>
  <course>348.55</course>
  <speed>0.11401754250991379</speed>
  <fix>3d</fix>
</trkpt>
<trkpt lat="-27.2721965" lon="151.2900652">
  <ele>443.15</ele>
  <time>2026-09-01T19:59:13Z</time>
  <course>41.91</course>
  <speed>0.1</speed>
  <fix>3d</fix>
</trkpt>
<trkpt lat="-27.272196" lon="151.2900652">
  <ele>443.06</ele>
  <time>2026-09-01T19:59:13Z</time>
  <course>348.55</course>
  <speed>0.12165525060596438</speed>
  <fix>3d</fix>
</trkpt>
<trkpt lat="-27.2721963" lon="151.2900654">
  <ele>443.15</ele>
  <time>2026-09-01T19:59:13Z</time>
  <course>30.84</course>
  <speed>0.11</speed>
  <fix>3d</fix>
</trkpt>
<trkpt lat="-27.272196" lon="151.2900652">
  <ele>443.06</ele>
  <time>2026-09-01T19:59:13Z</time>
  <course>348.55</course>
  <speed>0.12041594578792296</speed>
  <fix>3d</fix>
</trkpt>
<trkpt lat="-27.2721963" lon="151.2900654">
  <ele>443.15</ele>
  <time>2026-09-01T19:59:13Z</time>
  <course>30.84</course>
  <speed>0.11</speed>
  <fix>3d</fix>
</trkpt>
<trkpt lat="-27.2721959" lon="151.2900652">
  <ele>443.06</ele>
  <time>2026-09-01T19:59:13Z</time>
  <course>348.54</course>
  <speed>0.130384048104053</speed>
  <fix>3d</fix>
</trkpt>
<trkpt lat="-27.2721961" lon="151.2900655">
  <ele>443.15</ele>
  <time>2026-09-01T19:59:13Z</time>
  <course>21.95</course>
  <speed>0.12</speed>
  <fix>3d</fix>
</trkpt>
<trkpt lat="-27.2721958" lon="151.2900653">
  <ele>443.06</ele>
  <time>2026-09-01T19:59:13Z</time>
  <course>348.54</course>
  <speed>0.14</speed>
  <fix>3d</fix>
</trkpt>
<trkpt lat="-27.2721961" lon="151.2900655">
  <ele>443.15</ele>
  <time>2026-09-01T19:59:13Z</time>
  <course>21.95</course>
  <speed>0.12</speed>
  <fix>3d</fix>
</trkpt>
<trkpt lat="-27.2721956" lon="151.2900653">
  <ele>443.06</ele>
  <time>2026-09-01T19:59:13Z</time>
  <course>348.54</course>
  <speed>0.14</speed>
  <fix>3d</fix>
</trkpt>
<trkpt lat="-27.2721959" lon="151.2900656">
  <ele>443.15</ele>
  <time>2026-09-01T19:59:13Z</time>
  <course>14.68</course>
  <speed>0.13</speed>
  <fix>3d</fix>
</trkpt>
<trkpt lat="-27.2721955" lon="151.2900653">
  <ele>443.06</ele>
  <time>2026-09-01T19:59:13Z</time>
  <course>348.53</course>
  <speed>0.15</speed>
  <fix>3d</fix>
</trkpt>
<trkpt lat="-27.2721959" lon="151.2900656">
  <ele>443.15</ele>
  <time>2026-09-01T19:59:13Z</time>
  <course>14.68</course>
  <speed>0.13</speed>
  <fix>3d</fix>
</trkpt>
<trkpt lat="-27.2721954" lon="151.2900654">
  <ele>443.05</ele>
  <time>2026-09-01T19:59:13Z</time>
  <course>348.53</course>
  <speed>0.15033296378372907</speed>
  <fix>3d</fix>
</trkpt>
<trkpt lat="-27.2721956" lon="151.2900656">
  <ele>443.15</ele>
  <time>2026-09-01T19:59:13Z</time>
  <course>8.8</course>
  <speed>0.14</speed>
  <fix>3d</fix>
</trkpt>
<trkpt lat="-27.2721953" lon="151.2900654">
  <ele>443.06</ele>
  <time>2026-09-01T19:59:13Z</time>
  <course>348.53</course>
  <speed>0.16031219541881397</speed>
  <fix>3d</fix>
</trkpt>
<trkpt lat="-27.2721956" lon="151.2900656">
  <ele>443.15</ele>
  <time>2026-09-01T19:59:13Z</time>
  <course>8.8</course>
  <speed>0.14</speed>
  <fix>3d</fix>
</trkpt>
<trkpt lat="-27.2721951" lon="151.2900654">
  <ele>443.06</ele>
  <time>2026-09-01T19:59:13Z</time>
  <course>348.54</course>
  <speed>0.16124515496597097</speed>
  <fix>3d</fix>
</trkpt>
<trkpt lat="-27.2721954" lon="151.2900656">
  <ele>443.15</ele>
  <time>2026-09-01T19:59:13Z</time>
  <course>4.07</course>
  <speed>0.15</speed>
  <fix>3d</fix>
</trkpt>
<trkpt lat="-27.272195" lon="151.2900654">
  <ele>443.06</ele>
  <time>2026-09-01T19:59:13Z</time>
  <course>348.54</course>
  <speed>0.16124515496597097</speed>
  <fix>3d</fix>
</trkpt>
<trkpt lat="-27.2721954" lon="151.2900656">
  <ele>443.15</ele>
  <time>2026-09-01T19:59:13Z</time>
  <course>4.07</course>
  <speed>0.15</speed>
  <fix>3d</fix>
</trkpt>
<trkpt lat="-27.2721949" lon="151.2900654">
  <ele>443.06</ele>
  <time>2026-09-01T19:59:13Z</time>
  <course>348.53</course>
  <speed>0.16278820596099705</speed>
  <fix>3d</fix>
</trkpt>
<trkpt lat="-27.2721951" lon="151.2900656">
  <ele>443.15</ele>
  <time>2026-09-01T19:59:13Z</time>
  <course>359.97</course>
  <speed>0.15</speed>
  <fix>3d</fix>
</trkpt>
<trkpt lat="-27.2721947" lon="151.2900654">
  <ele>443.06</ele>
  <time>2026-09-01T19:59:13Z</time>
  <course>348.53</course>
  <speed>0.16278820596099705</speed>
  <fix>3d</fix>
</trkpt>
<trkpt lat="-27.2721951" lon="151.2900656">
  <ele>443.15</ele>
  <time>2026-09-01T19:59:13Z</time>
  <course>359.97</course>
  <speed>0.15</speed>
  <fix>3d</fix>
</trkpt>
<trkpt lat="-27.2721946" lon="151.2900653">
  <ele>443.06</ele>
  <time>2026-09-01T19:59:13Z</time>
  <course>348.53</course>
  <speed>0.1649242250247064</speed>
  <fix>3d</fix>
</trkpt>
<trkpt lat="-27.2721948" lon="151.2900656">
  <ele>443.14</ele>
  <time>2026-09-01T19:59:13Z</time>
  <course>356.17</course>
  <speed>0.16</speed>
  <fix>3d</fix>
</trkpt>
<trkpt lat="-27.2721945" lon="151.2900653">
  <ele>443.07</ele>
  <time>2026-09-01T19:59:13Z</time>
  <course>348.54</course>
  <speed>0.1649242250247064</speed>
  <fix>3d</fix>
</trkpt>
<trkpt lat="-27.2721948" lon="151.2900656">
  <ele>443.14</ele>
  <time>2026-09-01T19:59:13Z</time>
  <course>356.17</course>
  <speed>0.16</speed>
  <fix>3d</fix>
</trkpt>
<trkpt lat="-27.2721943" lon="151.2900653">
  <ele>443.07</ele>
  <time>2026-09-01T19:59:13Z</time>
  <course>348.54</course>
  <speed>0.1676305461424021</speed>
  <fix>3d</fix>
</trkpt>
<trkpt lat="-27.2721945" lon="151.2900656">
  <ele>443.14</ele>
  <time>2026-09-01T19:59:13Z</time>
  <course>352.55</course>
  <speed>0.16</speed>
  <fix>3d</fix>
</trkpt>
<trkpt lat="-27.2721942" lon="151.2900653">
  <ele>443.07</ele>
  <time>2026-09-01T19:59:13Z</time>
  <course>348.54</course>
  <speed>0.1676305461424021</speed>
  <fix>3d</fix>
</trkpt>
<trkpt lat="-27.2721945" lon="151.2900656">
  <ele>443.14</ele>
  <time>2026-09-01T19:59:13Z</time>
  <course>352.55</course>
  <speed>0.16</speed>
  <fix>3d</fix>
</trkpt>
<trkpt lat="-27.272194" lon="151.2900653">
  <ele>443.07</ele>
  <time>2026-09-01T19:59:13Z</time>
  <course>348.54</course>
  <speed>0.1708800749063506</speed>
  <fix>3d</fix>
</trkpt>
<trkpt lat="-27.2721942" lon="151.2900656">
  <ele>443.14</ele>
  <time>2026-09-01T19:59:13Z</time>
  <course>349.21</course>
  <speed>0.15</speed>
  <fix>3d</fix>
</trkpt>
<trkpt lat="-27.2721939" lon="151.2900653">
  <ele>443.07</ele>
  <time>2026-09-01T19:59:13Z</time>
  <course>348.54</course>
  <speed>0.1615549442140351</speed>
  <fix>3d</fix>
</trkpt>
<trkpt lat="-27.2721942" lon="151.2900656">
  <ele>443.14</ele>
  <time>2026-09-01T19:59:13Z</time>
  <course>349.21</course>
  <speed>0.15</speed>
  <fix>3d</fix>
</trkpt>
<trkpt lat="-27.2721938" lon="151.2900652">
  <ele>443.07</ele>
  <time>2026-09-01T19:59:13Z</time>
  <course>348.54</course>
  <speed>0.1615549442140351</speed>
  <fix>3d</fix>
</trkpt>
<trkpt lat="-27.272194" lon="151.2900656">
  <ele>443.14</ele>
  <time>2026-09-01T19:59:13Z</time>
  <course>346.09</course>
  <speed>0.15</speed>
  <fix>3d</fix>
</trkpt>
<trkpt lat="-27.2721937" lon="151.2900652">
  <ele>443.06</ele>
  <time>2026-09-01T19:59:13Z</time>
  <course>348.54</course>
  <speed>0.15231546211727817</speed>
  <fix>3d</fix>
</trkpt>
<trkpt lat="-27.272194" lon="151.2900656">
  <ele>443.14</ele>
  <time>2026-09-01T19:59:13Z</time>
  <course>346.09</course>
  <speed>0.15</speed>
  <fix>3d</fix>
</trkpt>
<trkpt lat="-27.2721935" lon="151.2900652">
  <ele>443.06</ele>
  <time>2026-09-01T19:59:13Z</time>
  <course>348.53</course>
  <speed>0.15652475842498528</speed>
  <fix>3d</fix>
</trkpt>
<trkpt lat="-27.2721937" lon="151.2900656">
  <ele>443.14</ele>
  <time>2026-09-01T19:59:13Z</time>
  <course>342.83</course>
  <speed>0.14</speed>
  <fix>3d</fix>
</trkpt>
<trkpt lat="-27.2721934" lon="151.2900651">
  <ele>443.06</ele>
  <time>2026-09-01T19:59:14Z</time>
  <course>348.53</course>
  <speed>0.147648230602334</speed>
  <fix>3d</fix>
</trkpt>
<trkpt lat="-27.2721937" lon="151.2900656">
  <ele>443.14</ele>
  <time>2026-09-01T19:59:14Z</time>
  <course>342.83</course>
  <speed>0.14</speed>
  <fix>3d</fix>
</trkpt>
<trkpt lat="-27.2721933" lon="151.2900651">
  <ele>443.06</ele>
  <time>2026-09-01T19:59:14Z</time>
  <course>348.53</course>
  <speed>0.147648230602334</speed>
  <fix>3d</fix>
</trkpt>
<trkpt lat="-27.2721935" lon="151.2900655">
  <ele>443.13</ele>
  <time>2026-09-01T19:59:14Z</time>
  <course>339.27</course>
  <speed>0.13</speed>
  <fix>3d</fix>
</trkpt>
<trkpt lat="-27.2721932" lon="151.2900651">
  <ele>443.06</ele>
  <time>2026-09-01T19:59:14Z</time>
  <course>348.53</course>
  <speed>0.13892443989449804</speed>
  <fix>3d</fix>
</trkpt>
<trkpt lat="-27.2721935" lon="151.2900655">
  <ele>443.13</ele>
  <time>2026-09-01T19:59:14Z</time>
  <course>339.27</course>
  <speed>0.13</speed>
  <fix>3d</fix>
</trkpt>
<trkpt lat="-27.2721931" lon="151.290065">
  <ele>443.06</ele>
  <time>2026-09-01T19:59:14Z</time>
  <course>348.54</course>
  <speed>0.130384048104053</speed>
  <fix>3d</fix>
</trkpt>
<trkpt lat="-27.2721933" lon="151.2900654">
  <ele>443.13</ele>
  <time>2026-09-01T19:59:14Z</time>
  <course>335.37</course>
  <speed>0.12</speed>
  <fix>3d</fix>
</trkpt>
<trkpt lat="-27.272193" lon="151.290065">
  <ele>443.06</ele>
  <time>2026-09-01T19:59:14Z</time>
  <course>348.54</course>
  <speed>0.12206555615733702</speed>
  <fix>3d</fix>
</trkpt>
<trkpt lat="-27.2721933" lon="151.2900654">
  <ele>443.13</ele>
  <time>2026-09-01T19:59:14Z</time>
  <course>335.37</course>
  <speed>0.12</speed>
  <fix>3d</fix>
</trkpt>
<trkpt lat="-27.2721929" lon="151.2900649">
  <ele>443.06</ele>
  <time>2026-09-01T19:59:14Z</time>
  <course>348.54</course>
  <speed>0.12206555615733702</speed>
  <fix>3d</fix>
</trkpt>
<trkpt lat="-27.2721931" lon="151.2900652">
  <ele>443.13</ele>
  <time>2026-09-01T19:59:14Z</time>
  <course>331.11</course>
  <speed>0.11</speed>
  <fix>3d</fix>
</trkpt>
<trkpt lat="-27.2721929" lon="151.2900649">
  <ele>443.07</ele>
  <time>2026-09-01T19:59:14Z</time>
  <course>348.54</course>
  <speed>0.11401754250991379</speed>
  <fix>3d</fix>
</trkpt>
<trkpt lat="-27.2721931" lon="151.2900652">
  <ele>443.13</ele>
  <time>2026-09-01T19:59:14Z</time>
  <course>331.11</course>
  <speed>0.11</speed>
  <fix>3d</fix>
</trkpt>
<trkpt lat="-27.2721928" lon="151.2900649">
  <ele>443.06</ele>
  <time>2026-09-01T19:59:14Z</time>
  <course>348.55</course>
  <speed>0.1063014581273465</speed>
  <fix>3d</fix>
</trkpt>
<trkpt lat="-27.2721929" lon="151.2900651">
  <ele>443.13</ele>
  <time>2026-09-01T19:59:14Z</time>
  <course>326.42</course>
  <speed>0.1</speed>
  <fix>3d</fix>
</trkpt>
<trkpt lat="-27.2721927" lon="151.2900648">
  <ele>443.07</ele>
  <time>2026-09-01T19:59:14Z</time>
  <course>348.55</course>
  <speed>0.09899494936611665</speed>
  <fix>3d</fix>
</trkpt>
<trkpt lat="-27.2721929" lon="151.2900651">
  <ele>443.13</ele>
  <time>2026-09-01T19:59:14Z</time>
  <course>326.42</course>
  <speed>0.1</speed>
  <fix>3d</fix>
</trkpt>
<trkpt lat="-27.2721927" lon="151.2900648">
  <ele>443.07</ele>
  <time>2026-09-01T19:59:14Z</time>
  <course>348.55</course>
  <speed>0.09899494936611665</speed>
  <fix>3d</fix>
</trkpt>
<trkpt lat="-27.2721927" lon="151.290065">
  <ele>443.13</ele>
  <time>2026-09-01T19:59:14Z</time>
  <course>320.72</course>
  <speed>0.09</speed>
  <fix>3d</fix>
</trkpt>
<trkpt lat="-27.2721926" lon="151.2900647">
  <ele>443.07</ele>
  <time>2026-09-01T19:59:14Z</time>
  <course>348.55</course>
  <speed>0.09219544457292887</speed>
  <fix>3d</fix>
</trkpt>
<trkpt lat="-27.2721927" lon="151.290065">
  <ele>443.13</ele>
  <time>2026-09-01T19:59:14Z</time>
  <course>320.72</course>
  <speed>0.09</speed>
  <fix>3d</fix>
</trkpt>
<trkpt lat="-27.2721926" lon="151.2900647">
  <ele>443.07</ele>
  <time>2026-09-01T19:59:14Z</time>
  <course>348.54</course>
  <speed>0.08602325267042626</speed>
  <fix>3d</fix>
</trkpt>
<trkpt lat="-27.2721926" lon="151.2900649">
  <ele>443.12</ele>
  <time>2026-09-01T19:59:14Z</time>
  <course>312.8</course>
  <speed>0.07</speed>
  <fix>3d</fix>
</trkpt>
<trkpt lat="-27.2721925" lon="151.2900646">
  <ele>443.07</ele>
  <time>2026-09-01T19:59:14Z</time>
  <course>348.54</course>
  <speed>0.08062257748298549</speed>
  <fix>3d</fix>
</trkpt>
<trkpt lat="-27.2721926" lon="151.2900649">
  <ele>443.12</ele>
  <time>2026-09-01T19:59:14Z</time>
  <course>312.8</course>
  <speed>0.07</speed>
  <fix>3d</fix>
</trkpt>
<trkpt lat="-27.2721925" lon="151.2900646">
  <ele>443.07</ele>
  <time>2026-09-01T19:59:14Z</time>
  <course>348.54</course>
  <speed>0.07615773105863909</speed>
  <fix>3d</fix>
</trkpt>
<trkpt lat="-27.2721926" lon="151.2900648">
  <ele>443.12</ele>
  <time>2026-09-01T19:59:14Z</time>
  <course>301.84</course>
  <speed>0.06</speed>
  <fix>3d</fix>
</trkpt>
<trkpt lat="-27.2721925" lon="151.2900645">
  <ele>443.07</ele>
  <time>2026-09-01T19:59:14Z</time>
  <course>348.54</course>
  <speed>0.07280109889280519</speed>
  <fix>3d</fix>
</trkpt>
<trkpt lat="-27.2721926" lon="151.2900648">
  <ele>443.12</ele>
  <time>2026-09-01T19:59:14Z</time>
  <course>301.84</course>
  <speed>0.06</speed>
  <fix>3d</fix>
</trkpt>
<trkpt lat="-27.2721925" lon="151.2900645">
  <ele>443.07</ele>
  <time>2026-09-01T19:59:14Z</time>
  <course>348.54</course>
  <speed>0.06082762530298219</speed>
  <fix>3d</fix>
</trkpt>
<trkpt lat="-27.2721925" lon="151.2900647">
  <ele>443.12</ele>
  <time>2026-09-01T19:59:14Z</time>
  <course>287.92</course>
  <speed>0.05</speed>
  <fix>3d</fix>
</trkpt>
<trkpt lat="-27.2721925" lon="151.2900644">
  <ele>443.07</ele>
  <time>2026-09-01T19:59:14Z</time>
  <course>348.54</course>
  <speed>0.06082762530298219</speed>
  <fix>3d</fix>
</trkpt>
<trkpt lat="-27.2721925" lon="151.2900647">
  <ele>443.12</ele>
  <time>2026-09-01T19:59:14Z</time>
  <course>287.92</course>
  <speed>0.05</speed>
  <fix>3d</fix>
</trkpt>
<trkpt lat="-27.2721925" lon="151.2900644">
  <ele>443.07</ele>
  <time>2026-09-01T19:59:14Z</time>
  <course>348.54</course>
  <speed>0.06</speed>
  <fix>3d</fix>
</trkpt>
<trkpt lat="-27.2721925" lon="151.2900646">
  <ele>443.12</ele>
  <time>2026-09-01T19:59:14Z</time>
  <course>271.17</course>
  <speed>0.05</speed>
  <fix>3d</fix>
</trkpt>
<trkpt lat="-27.2721925" lon="151.2900643">
  <ele>443.07</ele>
  <time>2026-09-01T19:59:14Z</time>
  <course>348.54</course>
  <speed>0.06</speed>
  <fix>3d</fix>
</trkpt>
<trkpt lat="-27.2721925" lon="151.2900646">
  <ele>443.12</ele>
  <time>2026-09-01T19:59:14Z</time>
  <course>271.17</course>
  <speed>0.05</speed>
  <fix>3d</fix>
</trkpt>
<trkpt lat="-27.2721925" lon="151.2900643">
  <ele>443.07</ele>
  <time>2026-09-01T19:59:14Z</time>
  <course>348.53</course>
  <speed>0.05099019513592785</speed>
  <fix>3d</fix>
</trkpt>
<trkpt lat="-27.2721925" lon="151.2900645">
  <ele>443.12</ele>
  <time>2026-09-01T19:59:14Z</time>
  <course>252.94</course>
  <speed>0.04</speed>
  <fix>3d</fix>
</trkpt>
<trkpt lat="-27.2721925" lon="151.2900643">
  <ele>443.06</ele>
  <time>2026-09-01T19:59:14Z</time>
  <course>348.53</course>
  <speed>0.05099019513592785</speed>
  <fix>3d</fix>
</trkpt>
<trkpt lat="-27.2721925" lon="151.2900645">
  <ele>443.12</ele>
  <time>2026-09-01T19:59:14Z</time>
  <course>252.94</course>
  <speed>0.04</speed>
  <fix>3d</fix>
</trkpt>
<trkpt lat="-27.2721925" lon="151.2900642">
  <ele>443.06</ele>
  <time>2026-09-01T19:59:14Z</time>
  <course>348.53</course>
  <speed>0.053851648071345036</speed>
  <fix>3d</fix>
</trkpt>
<trkpt lat="-27.2721925" lon="151.2900644">
  <ele>443.12</ele>
  <time>2026-09-01T19:59:14Z</time>
  <course>236.35</course>
  <speed>0.05</speed>
  <fix>3d</fix>
</trkpt>
<trkpt lat="-27.2721925" lon="151.2900642">
  <ele>443.06</ele>
  <time>2026-09-01T19:59:14Z</time>
  <course>348.54</course>
  <speed>0.053851648071345036</speed>
  <fix>3d</fix>
</trkpt>
<trkpt lat="-27.2721925" lon="151.2900644">
  <ele>443.12</ele>
  <time>2026-09-01T19:59:14Z</time>
  <course>236.35</course>
  <speed>0.05</speed>
  <fix>3d</fix>
</trkpt>
<trkpt lat="-27.2721925" lon="151.2900641">
  <ele>443.06</ele>
  <time>2026-09-01T19:59:14Z</time>
  <course>348.55</course>
  <speed>0.05830951894845301</speed>
  <fix>3d</fix>
</trkpt>
<trkpt lat="-27.2721926" lon="151.2900643">
  <ele>443.12</ele>
  <time>2026-09-01T19:59:14Z</time>
  <course>223.89</course>
  <speed>0.05</speed>
  <fix>3d</fix>
</trkpt>
<trkpt lat="-27.2721925" lon="151.2900641">
  <ele>443.05</ele>
  <time>2026-09-01T19:59:14Z</time>
  <course>348.56</course>
  <speed>0.05830951894845301</speed>
  <fix>3d</fix>
</trkpt>
<trkpt lat="-27.2721926" lon="151.2900643">
  <ele>443.12</ele>
  <time>2026-09-01T19:59:14Z</time>
  <course>223.89</course>
  <speed>0.05</speed>
  <fix>3d</fix>
</trkpt>
<trkpt lat="-27.2721926" lon="151.2900641">
  <ele>443.05</ele>
  <time>2026-09-01T19:59:14Z</time>
  <course>348.56</course>
  <speed>0.0565685424949238</speed>
  <fix>3d</fix>
</trkpt>
<trkpt lat="-27.2721926" lon="151.2900642">
  <ele>443.12</ele>
  <time>2026-09-01T19:59:14Z</time>
  <course>215.22</course>
  <speed>0.06</speed>
  <fix>3d</fix>
</trkpt>
<trkpt lat="-27.2721926" lon="151.2900641">
  <ele>443.05</ele>
  <time>2026-09-01T19:59:14Z</time>
  <course>348.56</course>
  <speed>0.0565685424949238</speed>
  <fix>3d</fix>
</trkpt>
<trkpt lat="-27.2721926" lon="151.2900642">
  <ele>443.12</ele>
  <time>2026-09-01T19:59:14Z</time>
  <course>215.22</course>
  <speed>0.06</speed>
  <fix>3d</fix>
</trkpt>
<trkpt lat="-27.2721927" lon="151.290064">
  <ele>443.05</ele>
  <time>2026-09-01T19:59:14Z</time>
  <course>348.55</course>
  <speed>0.0565685424949238</speed>
  <fix>3d</fix>
</trkpt>
<trkpt lat="-27.2721927" lon="151.2900642">
  <ele>443.12</ele>
  <time>2026-09-01T19:59:14Z</time>
  <course>208.5</course>
  <speed>0.06</speed>
  <fix>3d</fix>
</trkpt>
<trkpt lat="-27.2721927" lon="151.290064">
  <ele>443.05</ele>
  <time>2026-09-01T19:59:14Z</time>
  <course>348.55</course>
  <speed>0.06403124237432849</speed>
  <fix>3d</fix>
</trkpt>
<trkpt lat="-27.2721927" lon="151.2900642">
  <ele>443.12</ele>
  <time>2026-09-01T19:59:14Z</time>
  <course>208.5</course>
  <speed>0.06</speed>
  <fix>3d</fix>
</trkpt>
<trkpt lat="-27.2721928" lon="151.290064">
  <ele>443.05</ele>
  <time>2026-09-01T19:59:14Z</time>
  <course>348.54</course>
  <speed>0.05830951894845301</speed>
  <fix>3d</fix>
</trkpt>
<trkpt lat="-27.2721928" lon="151.2900641">
  <ele>443.12</ele>
  <time>2026-09-01T19:59:14Z</time>
  <course>202.54</course>
  <speed>0.07</speed>
  <fix>3d</fix>
</trkpt>
<trkpt lat="-27.2721928" lon="151.290064">
  <ele>443.05</ele>
  <time>2026-09-01T19:59:14Z</time>
  <course>348.54</course>
  <speed>0.05830951894845301</speed>
  <fix>3d</fix>
</trkpt>
<trkpt lat="-27.2721928" lon="151.2900641">
  <ele>443.12</ele>
  <time>2026-09-01T19:59:14Z</time>
  <course>202.54</course>
  <speed>0.07</speed>
  <fix>3d</fix>
</trkpt>
<trkpt lat="-27.2721929" lon="151.2900639">
  <ele>443.05</ele>
  <time>2026-09-01T19:59:14Z</time>
  <course>348.54</course>
  <speed>0.05830951894845301</speed>
  <fix>3d</fix>
</trkpt>
<trkpt lat="-27.2721929" lon="151.2900641">
  <ele>443.12</ele>
  <time>2026-09-01T19:59:14Z</time>
  <course>196.98</course>
  <speed>0.07</speed>
  <fix>3d</fix>
</trkpt>
<trkpt lat="-27.272193" lon="151.2900639">
  <ele>443.06</ele>
  <time>2026-09-01T19:59:14Z</time>
  <course>348.54</course>
  <speed>0.05830951894845301</speed>
  <fix>3d</fix>
</trkpt>
<trkpt lat="-27.2721929" lon="151.2900641">
  <ele>443.12</ele>
  <time>2026-09-01T19:59:14Z</time>
  <course>196.98</course>
  <speed>0.07</speed>
  <fix>3d</fix>
</trkpt>
<trkpt lat="-27.272193" lon="151.2900639">
  <ele>443.06</ele>
  <time>2026-09-01T19:59:14Z</time>
  <course>348.54</course>
  <speed>0.044721359549995794</speed>
  <fix>3d</fix>
</trkpt>
<trkpt lat="-27.2721931" lon="151.290064">
  <ele>443.12</ele>
  <time>2026-09-01T19:59:14Z</time>
  <course>193.01</course>
  <speed>0.07</speed>
  <fix>3d</fix>
</trkpt>
<trkpt lat="-27.272193" lon="151.2900639">
  <ele>443.06</ele>
  <time>2026-09-01T19:59:14Z</time>
  <course>348.52</course>
  <speed>0.03</speed>
  <fix>3d</fix>
</trkpt>
<trkpt lat="-27.2721931" lon="151.290064">
  <ele>443.12</ele>
  <time>2026-09-01T19:59:14Z</time>
  <course>193.01</course>
  <speed>0.07</speed>
  <fix>3d</fix>
</trkpt>
<trkpt lat="-27.272193" lon="151.2900639">
  <ele>443.06</ele>
  <time>2026-09-01T19:59:14Z</time>
  <course>348.46</course>
  <speed>0.12083045973594572</speed>
  <fix>3d</fix>
</trkpt>
<trkpt lat="-27.2721932" lon="151.290064">
  <ele>443.13</ele>
  <time>2026-09-01T19:59:14Z</time>
  <course>288.31</course>
  <speed>0.02</speed>
  <fix>3d</fix>
</trkpt>
<trkpt lat="-27.2721929" lon="151.2900638">
  <ele>443.06</ele>
  <time>2026-09-01T19:59:14Z</time>
  <course>348.32</course>
  <speed>0.28460498941515416</speed>
  <fix>3d</fix>
</trkpt>
<trkpt lat="-27.2721932" lon="151.290064">
  <ele>443.13</ele>
  <time>2026-09-01T19:59:14Z</time>
  <course>288.31</course>
  <speed>0.02</speed>
  <fix>3d</fix>
</trkpt>
<trkpt lat="-27.2721926" lon="151.2900637">
  <ele>443.05</ele>
  <time>2026-09-01T19:59:14Z</time>
  <course>348.12</course>
  <speed>0.5220153254455275</speed>
  <fix>3d</fix>
</trkpt>
<trkpt lat="-27.272193" lon="151.2900639">
  <ele>443.13</ele>
  <time>2026-09-01T19:59:14Z</time>
  <course>343.58</course>
  <speed>0.29</speed>
  <fix>3d</fix>
</trkpt>
<trkpt lat="-27.272192" lon="151.2900635">
  <ele>443.05</ele>
  <time>2026-09-01T19:59:14Z</time>
  <course>347.93</course>
  <speed>0.8200609733428362</speed>
  <fix>3d</fix>
</trkpt>
<trkpt lat="-27.272193" lon="151.2900639">
  <ele>443.13</ele>
  <time>2026-09-01T19:59:14Z</time>
  <course>343.58</course>
  <speed>0.29</speed>
  <fix>3d</fix>
</trkpt>
<trkpt lat="-27.2721912" lon="151.2900633">
  <ele>443.05</ele>
  <time>2026-09-01T19:59:14Z</time>
  <course>347.72</course>
  <speed>1.1717508267545622</speed>
  <fix>3d</fix>
</trkpt>
<trkpt lat="-27.2721921" lon="151.2900636">
  <ele>443.13</ele>
  <time>2026-09-01T19:59:14Z</time>
  <course>345.52</course>
  <speed>0.81</speed>
  <fix>3d</fix>
</trkpt>
<trkpt lat="-27.27219" lon="151.2900629">
  <ele>443.05</ele>
  <time>2026-09-01T19:59:14Z</time>
  <course>347.51</course>
  <speed>1.5962455951387933</speed>
  <fix>3d</fix>
</trkpt>
<trkpt lat="-27.2721921" lon="151.2900636">
  <ele>443.13</ele>
  <time>2026-09-01T19:59:14Z</time>
  <course>345.52</course>
  <speed>0.81</speed>
  <fix>3d</fix>
</trkpt>
<trkpt lat="-27.2721884" lon="151.2900624">
  <ele>443.05</ele>
  <time>2026-09-01T19:59:14Z</time>
  <course>347.32</course>
  <speed>2.074246851269154</speed>
  <fix>3d</fix>
</trkpt>
<trkpt lat="-27.27219" lon="151.2900629">
  <ele>443.13</ele>
  <time>2026-09-01T19:59:14Z</time>
  <course>345.5</course>
  <speed>1.58</speed>
  <fix>3d</fix>
</trkpt>
<trkpt lat="-27.2721864" lon="151.2900618">
  <ele>443.06</ele>
  <time>2026-09-01T19:59:14Z</time>
  <course>346.95</course>
  <speed>2.615415836917717</speed>
  <fix>3d</fix>
</trkpt>
<trkpt lat="-27.27219" lon="151.2900629">
  <ele>443.13</ele>
  <time>2026-09-01T19:59:14Z</time>
  <course>345.5</course>
  <speed>1.58</speed>
  <fix>3d</fix>
</trkpt>
<trkpt lat="-27.2721839" lon="151.290061">
  <ele>443.06</ele>
  <time>2026-09-01T19:59:14Z</time>
  <course>346.55</course>
  <speed>3.222483514310042</speed>
  <fix>3d</fix>
</trkpt>
<trkpt lat="-27.2721864" lon="151.2900619">
  <ele>443.14</ele>
  <time>2026-09-01T19:59:14Z</time>
  <course>345.03</course>
  <speed>2.59</speed>
  <fix>3d</fix>
</trkpt>
<trkpt lat="-27.2721808" lon="151.2900601">
  <ele>443.07</ele>
  <time>2026-09-01T19:59:14Z</time>
  <course>346.07</course>
  <speed>3.8324013359772224</speed>
  <fix>3d</fix>
</trkpt>
<trkpt lat="-27.2721864" lon="151.2900619">
  <ele>443.14</ele>
  <time>2026-09-01T19:59:14Z</time>
  <course>345.03</course>
  <speed>2.59</speed>
  <fix>3d</fix>
</trkpt>
<trkpt lat="-27.2721773" lon="151.2900589">
  <ele>443.07</ele>
  <time>2026-09-01T19:59:14Z</time>
  <course>345.38</course>
  <speed>4.448145681067562</speed>
  <fix>3d</fix>
</trkpt>
<trkpt lat="-27.2721809" lon="151.2900602">
  <ele>443.14</ele>
  <time>2026-09-01T19:59:14Z</time>
  <course>344.27</course>
  <speed>3.77</speed>
  <fix>3d</fix>
</trkpt>
<trkpt lat="-27.2721732" lon="151.2900575">
  <ele>443.08</ele>
  <time>2026-09-01T19:59:14Z</time>
  <course>344.41</course>
  <speed>5.050990001969911</speed>
  <fix>3d</fix>
</trkpt>
<trkpt lat="-27.2721809" lon="151.2900602">
  <ele>443.14</ele>
  <time>2026-09-01T19:59:14Z</time>
  <course>344.27</course>
  <speed>3.77</speed>
  <fix>3d</fix>
</trkpt>
<trkpt lat="-27.2721686" lon="151.2900559">
  <ele>443.09</ele>
  <time>2026-09-01T19:59:14Z</time>
  <course>343.51</course>
  <speed>5.6605653427904175</speed>
  <fix>3d</fix>
</trkpt>
<trkpt lat="-27.2721734" lon="151.2900577">
  <ele>443.16</ele>
  <time>2026-09-01T19:59:14Z</time>
  <course>343.08</course>
  <speed>4.99</speed>
  <fix>3d</fix>
</trkpt>
<trkpt lat="-27.2721636" lon="151.290054">
  <ele>443.1</ele>
  <time>2026-09-01T19:59:14Z</time>
  <course>342.72</course>
  <speed>6.271084435725611</speed>
  <fix>3d</fix>
</trkpt>
<trkpt lat="-27.2721734" lon="151.2900577">
  <ele>443.16</ele>
  <time>2026-09-01T19:59:14Z</time>
  <course>343.08</course>
  <speed>4.99</speed>
  <fix>3d</fix>
</trkpt>
<trkpt lat="-27.272158" lon="151.2900518">
  <ele>443.11</ele>
  <time>2026-09-01T19:59:14Z</time>
  <course>341.89</course>
  <speed>6.880152614586394</speed>
  <fix>3d</fix>
</trkpt>
<trkpt lat="-27.2721638" lon="151.2900543">
  <ele>443.18</ele>
  <time>2026-09-01T19:59:14Z</time>
  <course>341.47</course>
  <speed>6.21</speed>
  <fix>3d</fix>
</trkpt>
<trkpt lat="-27.272152" lon="151.2900493">
  <ele>443.11</ele>
  <time>2026-09-01T19:59:14Z</time>
  <course>340.88</course>
  <speed>7.491922316735538</speed>
  <fix>3d</fix>
</trkpt>
<trkpt lat="-27.2721638" lon="151.2900543">
  <ele>443.18</ele>
  <time>2026-09-01T19:59:14Z</time>
  <course>341.47</course>
  <speed>6.21</speed>
  <fix>3d</fix>
</trkpt>
<trkpt lat="-27.2721454" lon="151.2900464">
  <ele>443.12</ele>
  <time>2026-09-01T19:59:14Z</time>
  <course>339.72</course>
  <speed>8.098209678688248</speed>
  <fix>3d</fix>
</trkpt>
<trkpt lat="-27.2721522" lon="151.2900497">
  <ele>443.2</ele>
  <time>2026-09-01T19:59:14Z</time>
  <course>339.53</course>
  <speed>7.43</speed>
  <fix>3d</fix>
</trkpt>
<trkpt lat="-27.2721385" lon="151.2900432">
  <ele>443.13</ele>
  <time>2026-09-01T19:59:14Z</time>
  <course>338.53</course>
  <speed>8.700367808317072</speed>
  <fix>3d</fix>
</trkpt>
<trkpt lat="-27.2721522" lon="151.2900497">
  <ele>443.2</ele>
  <time>2026-09-01T19:59:14Z</time>
  <course>339.53</course>
  <speed>7.43</speed>
  <fix>3d</fix>
</trkpt>
<trkpt lat="-27.2721311" lon="151.2900396">
  <ele>443.14</ele>
  <time>2026-09-01T19:59:14Z</time>
  <course>337.18</course>
  <speed>9.299811826053256</speed>
  <fix>3d</fix>
</trkpt>
<trkpt lat="-27.2721388" lon="151.2900437">
  <ele>443.21</ele>
  <time>2026-09-01T19:59:14Z</time>
  <course>337.26</course>
  <speed>8.63</speed>
  <fix>3d</fix>
</trkpt>
<trkpt lat="-27.2721233" lon="151.2900356">
  <ele>443.15</ele>
  <time>2026-09-01T19:59:14Z</time>
  <course>335.73</course>
  <speed>9.875646814259813</speed>
  <fix>3d</fix>
</trkpt>
<trkpt lat="-27.2721388" lon="151.2900437">
  <ele>443.21</ele>
  <time>2026-09-01T19:59:14Z</time>
  <course>337.26</course>
  <speed>8.63</speed>
  <fix>3d</fix>
</trkpt>
<trkpt lat="-27.2721152" lon="151.2900311">
  <ele>443.16</ele>
  <time>2026-09-01T19:59:14Z</time>
  <course>334.24</course>
  <speed>10.447372875512771</speed>
  <fix>3d</fix>
</trkpt>
<trkpt lat="-27.2721236" lon="151.2900361">
  <ele>443.22</ele>
  <time>2026-09-01T19:59:14Z</time>
  <course>334.65</course>
  <speed>9.81</speed>
  <fix>3d</fix>
</trkpt>
<trkpt lat="-27.2721066" lon="151.2900261">
  <ele>443.17</ele>
  <time>2026-09-01T19:59:14Z</time>
  <course>332.69</course>
  <speed>11.012801641725869</speed>
  <fix>3d</fix>
</trkpt>
<trkpt lat="-27.2721236" lon="151.2900361">
  <ele>443.22</ele>
  <time>2026-09-01T19:59:14Z</time>
  <course>334.65</course>
  <speed>9.81</speed>
  <fix>3d</fix>
</trkpt>
<trkpt lat="-27.2720978" lon="151.2900205">
  <ele>443.19</ele>
  <time>2026-09-01T19:59:14Z</time>
  <course>331.02</course>
  <speed>11.56027681329474</speed>
  <fix>3d</fix>
</trkpt>
<trkpt lat="-27.272107" lon="151.2900267">
  <ele>443.25</ele>
  <time>2026-09-01T19:59:14Z</time>
  <course>331.75</course>
  <speed>10.94</speed>
  <fix>3d</fix>
</trkpt>
<trkpt lat="-27.2720887" lon="151.2900144">
  <ele>443.21</ele>
  <time>2026-09-01T19:59:14Z</time>
  <course>329.5</course>
  <speed>12.077830931090235</speed>
  <fix>3d</fix>
</trkpt>
<trkpt lat="-27.272107" lon="151.2900267">
  <ele>443.25</ele>
  <time>2026-09-01T19:59:14Z</time>
  <course>331.75</course>
  <speed>10.94</speed>
  <fix>3d</fix>
</trkpt>
<trkpt lat="-27.2720794" lon="151.2900078">
  <ele>443.24</ele>
  <time>2026-09-01T19:59:14Z</time>
  <course>328.02</course>
  <speed>12.6031623015813</speed>
  <fix>3d</fix>
</trkpt>
<trkpt lat="-27.272089" lon="151.2900151">
  <ele>443.29</ele>
  <time>2026-09-01T19:59:14Z</time>
  <course>328.68</course>
  <speed>12.02</speed>
  <fix>3d</fix>
</trkpt>
<trkpt lat="-27.2720698" lon="151.2900006">
  <ele>443.27</ele>
  <time>2026-09-01T19:59:14Z</time>
  <course>326.54</course>
  <speed>13.098797654746791</speed>
  <fix>3d</fix>
</trkpt>
<trkpt lat="-27.272089" lon="151.2900151">
  <ele>443.29</ele>
  <time>2026-09-01T19:59:14Z</time>
  <course>328.68</course>
  <speed>12.02</speed>
  <fix>3d</fix>
</trkpt>
<trkpt lat="-27.27206" lon="151.2899928">
  <ele>443.3</ele>
  <time>2026-09-01T19:59:14Z</time>
  <course>325.01</course>
  <speed>13.584700953646347</speed>
  <fix>3d</fix>
</trkpt>
<trkpt lat="-27.2720701" lon="151.2900013">
  <ele>443.35</ele>
  <time>2026-09-01T19:59:14Z</time>
  <course>325.57</course>
  <speed>13.04</speed>
  <fix>3d</fix>
</trkpt>
<trkpt lat="-27.2720502" lon="151.2899845">
  <ele>443.34</ele>
  <time>2026-09-01T19:59:14Z</time>
  <course>323.47</course>
  <speed>14.055753270458329</speed>
  <fix>3d</fix>
</trkpt>
<trkpt lat="-27.2720701" lon="151.2900013">
  <ele>443.35</ele>
  <time>2026-09-01T19:59:14Z</time>
  <course>325.57</course>
  <speed>13.04</speed>
  <fix>3d</fix>
</trkpt>
<trkpt lat="-27.2720402" lon="151.2899756">
  <ele>443.38</ele>
  <time>2026-09-01T19:59:14Z</time>
  <course>322.01</course>
  <speed>14.52015495785083</speed>
  <fix>3d</fix>
</trkpt>
<trkpt lat="-27.2720504" lon="151.2899852">
  <ele>443.41</ele>
  <time>2026-09-01T19:59:14Z</time>
  <course>322.55</course>
  <speed>14.01</speed>
  <fix>3d</fix>
</trkpt>
<trkpt lat="-27.2720301" lon="151.2899662">
  <ele>443.43</ele>
  <time>2026-09-01T19:59:14Z</time>
  <course>320.62</course>
  <speed>14.963863137572464</speed>
  <fix>3d</fix>
</trkpt>
<trkpt lat="-27.2720504" lon="151.2899852">
  <ele>443.41</ele>
  <time>2026-09-01T19:59:14Z</time>
  <course>322.55</course>
  <speed>14.01</speed>
  <fix>3d</fix>
</trkpt>
<trkpt lat="-27.2720199" lon="151.2899562">
  <ele>443.48</ele>
  <time>2026-09-01T19:59:14Z</time>
  <course>319.16</course>
  <speed>15.401808335387113</speed>
  <fix>3d</fix>
</trkpt>
<trkpt lat="-27.2720301" lon="151.2899668">
  <ele>443.5</ele>
  <time>2026-09-01T19:59:14Z</time>
  <course>319.69</course>
  <speed>14.93</speed>
  <fix>3d</fix>
</trkpt>
<trkpt lat="-27.2720095" lon="151.2899456">
  <ele>443.52</ele>
  <time>2026-09-01T19:59:14Z</time>
  <course>317.86</course>
  <speed>15.83963699078991</speed>
  <fix>3d</fix>
</trkpt>
<trkpt lat="-27.2720301" lon="151.2899668">
  <ele>443.5</ele>
  <time>2026-09-01T19:59:14Z</time>
  <course>319.69</course>
  <speed>14.93</speed>
  <fix>3d</fix>
</trkpt>
<trkpt lat="-27.2719991" lon="151.2899344">
  <ele>443.56</ele>
  <time>2026-09-01T19:59:14Z</time>
  <course>316.59</course>
  <speed>16.23578763103287</speed>
  <fix>3d</fix>
</trkpt>
<trkpt lat="-27.2720095" lon="151.2899461">
  <ele>443.58</ele>
  <time>2026-09-01T19:59:14Z</time>
  <course>317.02</course>
  <speed>15.79</speed>
  <fix>3d</fix>
</trkpt>
<trkpt lat="-27.2719887" lon="151.2899227">
  <ele>443.6</ele>
  <time>2026-09-01T19:59:14Z</time>
  <course>315.41</course>
  <speed>16.583102845969446</speed>
  <fix>3d</fix>
</trkpt>
<trkpt lat="-27.2720095" lon="151.2899461">
  <ele>443.58</ele>
  <time>2026-09-01T19:59:14Z</time>
  <course>317.02</course>
  <speed>15.79</speed>
  <fix>3d</fix>
</trkpt>
<trkpt lat="-27.2719783" lon="151.2899105">
  <ele>443.64</ele>
  <time>2026-09-01T19:59:14Z</time>
  <course>314.19</course>
  <speed>16.889336872713503</speed>
  <fix>3d</fix>
</trkpt>
<trkpt lat="-27.2719887" lon="151.2899234">
  <ele>443.66</ele>
  <time>2026-09-01T19:59:14Z</time>
  <course>314.46</course>
  <speed>16.54</speed>
  <fix>3d</fix>
</trkpt>
<trkpt lat="-27.2719679" lon="151.2898978">
  <ele>443.68</ele>
  <time>2026-09-01T19:59:14Z</time>
  <course>313.04</course>
  <speed>17.154713637948024</speed>
  <fix>3d</fix>
</trkpt>
<trkpt lat="-27.2719887" lon="151.2899234">
  <ele>443.66</ele>
  <time>2026-09-01T19:59:14Z</time>
  <course>314.46</course>
  <speed>16.54</speed>
  <fix>3d</fix>
</trkpt>
<trkpt lat="-27.2719577" lon="151.2898846">
  <ele>443.72</ele>
  <time>2026-09-01T19:59:14Z</time>
  <course>311.8</course>
  <speed>17.39356202737093</speed>
  <fix>3d</fix>
</trkpt>
<trkpt lat="-27.271968" lon="151.2898985">
  <ele>443.74</ele>
  <time>2026-09-01T19:59:14Z</time>
  <course>311.91</course>
  <speed>17.12</speed>
  <fix>3d</fix>
</trkpt>
<trkpt lat="-27.2719477" lon="151.2898712">
  <ele>443.76</ele>
  <time>2026-09-01T19:59:14Z</time>
  <course>310.61</course>
  <speed>17.60616085351943</speed>
  <fix>3d</fix>
</trkpt>
<trkpt lat="-27.271968" lon="151.2898985">
  <ele>443.74</ele>
  <time>2026-09-01T19:59:14Z</time>
  <course>311.91</course>
  <speed>17.12</speed>
  <fix>3d</fix>
</trkpt>
<trkpt lat="-27.2719377" lon="151.2898572">
  <ele>443.81</ele>
  <time>2026-09-01T19:59:14Z</time>
  <course>309.35</course>
  <speed>17.828836193088993</speed>
  <fix>3d</fix>
</trkpt>
<trkpt lat="-27.2719477" lon="151.2898719">
  <ele>443.83</ele>
  <time>2026-09-01T19:59:14Z</time>
  <course>309.35</course>
  <speed>17.59</speed>
  <fix>3d</fix>
</trkpt>
<trkpt lat="-27.2719279" lon="151.2898428">
  <ele>443.86</ele>
  <time>2026-09-01T19:59:14Z</time>
  <course>308.05</course>
  <speed>18.03421470427809</speed>
  <fix>3d</fix>
</trkpt>
<trkpt lat="-27.2719477" lon="151.2898719">
  <ele>443.83</ele>
  <time>2026-09-01T19:59:14Z</time>
  <course>309.35</course>
  <speed>17.59</speed>
  <fix>3d</fix>
</trkpt>
<trkpt lat="-27.2719181" lon="151.2898277">
  <ele>443.91</ele>
  <time>2026-09-01T19:59:14Z</time>
  <course>306.64</course>
  <speed>18.24529802442262</speed>
  <fix>3d</fix>
</trkpt>
<trkpt lat="-27.271928" lon="151.2898435">
  <ele>443.93</ele>
  <time>2026-09-01T19:59:14Z</time>
  <course>306.76</course>
  <speed>18.01</speed>
  <fix>3d</fix>
</trkpt>
<trkpt lat="-27.2719087" lon="151.2898125">
  <ele>443.97</ele>
  <time>2026-09-01T19:59:14Z</time>
  <course>305.17</course>
  <speed>18.446685339106317</speed>
  <fix>3d</fix>
</trkpt>
<trkpt lat="-27.271928" lon="151.2898435">
  <ele>443.93</ele>
  <time>2026-09-01T19:59:14Z</time>
  <course>306.76</course>
  <speed>18.01</speed>
  <fix>3d</fix>
</trkpt>
<trkpt lat="-27.2718996" lon="151.2897968">
  <ele>444.02</ele>
  <time>2026-09-01T19:59:14Z</time>
  <course>303.63</course>
  <speed>18.631113761662235</speed>
  <fix>3d</fix>
</trkpt>
<trkpt lat="-27.2719091" lon="151.2898136">
  <ele>444.03</ele>
  <time>2026-09-01T19:59:14Z</time>
  <course>304.05</course>
  <speed>18.41</speed>
  <fix>3d</fix>
</trkpt>
<trkpt lat="-27.2718908" lon="151.2897808">
  <ele>444.08</ele>
  <time>2026-09-01T19:59:14Z</time>
  <course>301.99</course>
  <speed>18.828831615371147</speed>
  <fix>3d</fix>
</trkpt>
<trkpt lat="-27.2719091" lon="151.2898136">
  <ele>444.03</ele>
  <time>2026-09-01T19:59:14Z</time>
  <course>304.05</course>
  <speed>18.41</speed>
  <fix>3d</fix>
</trkpt>
<trkpt lat="-27.2718823" lon="151.2897644">
  <ele>444.13</ele>
  <time>2026-09-01T19:59:14Z</time>
  <course>300.24</course>
  <speed>19.010165701539794</speed>
  <fix>3d</fix>
</trkpt>
<trkpt lat="-27.271891" lon="151.2897818">
  <ele>444.14</ele>
  <time>2026-09-01T19:59:14Z</time>
  <course>301.06</course>
  <speed>18.8</speed>
  <fix>3d</fix>
</trkpt>
<trkpt lat="-27.2718741" lon="151.2897475">
  <ele>444.19</ele>
  <time>2026-09-01T19:59:14Z</time>
  <course>298.41</course>
  <speed>19.197260221187815</speed>
  <fix>3d</fix>
</trkpt>
<trkpt lat="-27.271891" lon="151.2897818">
  <ele>444.14</ele>
  <time>2026-09-01T19:59:14Z</time>
  <course>301.06</course>
  <speed>18.8</speed>
  <fix>3d</fix>
</trkpt>
<trkpt lat="-27.2718664" lon="151.2897303">
  <ele>444.24</ele>
  <time>2026-09-01T19:59:14Z</time>
  <course>296.5</course>
  <speed>19.371208016022127</speed>
  <fix>3d</fix>
</trkpt>
<trkpt lat="-27.2718743" lon="151.2897483">
  <ele>444.25</ele>
  <time>2026-09-01T19:59:14Z</time>
  <course>297.65</course>
  <speed>19.18</speed>
  <fix>3d</fix>
</trkpt>
<trkpt lat="-27.2718591" lon="151.2897126">
  <ele>444.28</ele>
  <time>2026-09-01T19:59:14Z</time>
  <course>294.52</course>
  <speed>19.541637597704035</speed>
  <fix>3d</fix>
</trkpt>
<trkpt lat="-27.2718743" lon="151.2897483">
  <ele>444.25</ele>
  <time>2026-09-01T19:59:14Z</time>
  <course>297.65</course>
  <speed>19.18</speed>
  <fix>3d</fix>
</trkpt>
<trkpt lat="-27.2718524" lon="151.2896944">
  <ele>444.33</ele>
  <time>2026-09-01T19:59:14Z</time>
  <course>292.47</course>
  <speed>19.717332476782957</speed>
  <fix>3d</fix>
</trkpt>
<trkpt lat="-27.2718592" lon="151.2897131">
  <ele>444.34</ele>
  <time>2026-09-01T19:59:14Z</time>
  <course>293.77</course>
  <speed>19.54</speed>
  <fix>3d</fix>
</trkpt>
<trkpt lat="-27.2718462" lon="151.2896758">
  <ele>444.37</ele>
  <time>2026-09-01T19:59:14Z</time>
  <course>290.33</course>
  <speed>19.880492951634775</speed>
  <fix>3d</fix>
</trkpt>
<trkpt lat="-27.2718592" lon="151.2897131">
  <ele>444.34</ele>
  <time>2026-09-01T19:59:14Z</time>
  <course>293.77</course>
  <speed>19.54</speed>
  <fix>3d</fix>
</trkpt>
<trkpt lat="-27.2718406" lon="151.2896568">
  <ele>444.41</ele>
  <time>2026-09-01T19:59:14Z</time>
  <course>288.12</course>
  <speed>20.051516152151688</speed>
  <fix>3d</fix>
</trkpt>
<trkpt lat="-27.2718461" lon="151.2896761">
  <ele>444.41</ele>
  <time>2026-09-01T19:59:14Z</time>
  <course>289.47</course>
  <speed>19.89</speed>
  <fix>3d</fix>
</trkpt>
<trkpt lat="-27.2718357" lon="151.2896372">
  <ele>444.44</ele>
  <time>2026-09-01T19:59:14Z</time>
  <course>285.83</course>
  <speed>20.23374656360013</speed>
  <fix>3d</fix>
</trkpt>
<trkpt lat="-27.2718461" lon="151.2896761">
  <ele>444.41</ele>
  <time>2026-09-01T19:59:14Z</time>
  <course>289.47</course>
  <speed>19.89</speed>
  <fix>3d</fix>
</trkpt>
<trkpt lat="-27.2718314" lon="151.2896172">
  <ele>444.47</ele>
  <time>2026-09-01T19:59:14Z</time>
  <course>283.51</course>
  <speed>20.408971066665757</speed>
  <fix>3d</fix>
</trkpt>
<trkpt lat="-27.2718355" lon="151.2896373">
  <ele>444.49</ele>
  <time>2026-09-01T19:59:14Z</time>
  <course>284.87</course>
  <speed>20.24</speed>
  <fix>3d</fix>
</trkpt>
<trkpt lat="-27.2718278" lon="151.2895969">
  <ele>444.49</ele>
  <time>2026-09-01T19:59:14Z</time>
  <course>281.15</course>
  <speed>20.5849289529986</speed>
  <fix>3d</fix>
</trkpt>
<trkpt lat="-27.2718355" lon="151.2896373">
  <ele>444.49</ele>
  <time>2026-09-01T19:59:14Z</time>
  <course>284.87</course>
  <speed>20.24</speed>
  <fix>3d</fix>
</trkpt>
<trkpt lat="-27.271825" lon="151.2895762">
  <ele>444.51</ele>
  <time>2026-09-01T19:59:14Z</time>
  <course>278.79</course>
  <speed>20.762393888952207</speed>
  <fix>3d</fix>
</trkpt>
<trkpt lat="-27.2718275" lon="151.289597">
  <ele>444.53</ele>
  <time>2026-09-01T19:59:14Z</time>
  <course>280.04</course>
  <speed>20.6</speed>
  <fix>3d</fix>
</trkpt>
<trkpt lat="-27.2718229" lon="151.2895551">
  <ele>444.52</ele>
  <time>2026-09-01T19:59:14Z</time>
  <course>276.34</course>
  <speed>20.946622639461474</speed>
  <fix>3d</fix>
</trkpt>
<trkpt lat="-27.2718275" lon="151.289597">
  <ele>444.53</ele>
  <time>2026-09-01T19:59:14Z</time>
  <course>280.04</course>
  <speed>20.6</speed>
  <fix>3d</fix>
</trkpt>
<trkpt lat="-27.2718217" lon="151.2895339">
  <ele>444.52</ele>
  <time>2026-09-01T19:59:14Z</time>
  <course>273.77</course>
  <speed>21.127919916546446</speed>
  <fix>3d</fix>
</trkpt>
<trkpt lat="-27.2718226" lon="151.2895555">
  <ele>444.56</ele>
  <time>2026-09-01T19:59:14Z</time>
  <course>275.08</course>
  <speed>20.95</speed>
  <fix>3d</fix>
</trkpt>
<trkpt lat="-27.2718213" lon="151.2895123">
  <ele>444.51</ele>
  <time>2026-09-01T19:59:14Z</time>
  <course>271.23</course>
  <speed>21.320114915262533</speed>
  <fix>3d</fix>
</trkpt>
<trkpt lat="-27.2718226" lon="151.2895555">
  <ele>444.56</ele>
  <time>2026-09-01T19:59:14Z</time>
  <course>275.08</course>
  <speed>20.95</speed>
  <fix>3d</fix>
</trkpt>
<trkpt lat="-27.2718218" lon="151.2894908">
  <ele>444.5</ele>
  <time>2026-09-01T19:59:14Z</time>
  <course>268.75</course>
  <speed>21.4946923681173</speed>
  <fix>3d</fix>
</trkpt>
<trkpt lat="-27.2718209" lon="151.2895128">
  <ele>444.56</ele>
  <time>2026-09-01T19:59:14Z</time>
  <course>269.99</course>
  <speed>21.31</speed>
  <fix>3d</fix>
</trkpt>
<trkpt lat="-27.2718231" lon="151.289469">
  <ele>444.48</ele>
  <time>2026-09-01T19:59:14Z</time>
  <course>266.27</course>
  <speed>21.684291549414286</speed>
  <fix>3d</fix>
</trkpt>
<trkpt lat="-27.2718209" lon="151.2895128">
  <ele>444.56</ele>
  <time>2026-09-01T19:59:14Z</time>
  <course>269.99</course>
  <speed>21.31</speed>
  <fix>3d</fix>
</trkpt>
<trkpt lat="-27.2718253" lon="151.2894471">
  <ele>444.45</ele>
  <time>2026-09-01T19:59:14Z</time>
  <course>263.7</course>
  <speed>21.869522171277545</speed>
  <fix>3d</fix>
</trkpt>
<trkpt lat="-27.2718226" lon="151.2894694">
  <ele>444.53</ele>
  <time>2026-09-01T19:59:14Z</time>
  <course>264.81</course>
  <speed>21.68</speed>
  <fix>3d</fix>
</trkpt>
<trkpt lat="-27.2718284" lon="151.2894251">
  <ele>444.42</ele>
  <time>2026-09-01T19:59:14Z</time>
  <course>261.05</course>
  <speed>22.06303922853785</speed>
  <fix>3d</fix>
</trkpt>
<trkpt lat="-27.2718226" lon="151.2894694">
  <ele>444.53</ele>
  <time>2026-09-01T19:59:14Z</time>
  <course>264.81</course>
  <speed>21.68</speed>
  <fix>3d</fix>
</trkpt>
<trkpt lat="-27.2718325" lon="151.2894029">
  <ele>444.38</ele>
  <time>2026-09-01T19:59:14Z</time>
  <course>258.28</course>
  <speed>22.250026966275797</speed>
  <fix>3d</fix>
</trkpt>
<trkpt lat="-27.271828" lon="151.2894256">
  <ele>444.47</ele>
  <time>2026-09-01T19:59:14Z</time>
  <course>259.57</course>
  <speed>22.04</speed>
  <fix>3d</fix>
</trkpt>
<trkpt lat="-27.2718375" lon="151.289381">
  <ele>444.33</ele>
  <time>2026-09-01T19:59:14Z</time>
  <course>255.6</course>
  <speed>22.42960989406637</speed>
  <fix>3d</fix>
</trkpt>
<trkpt lat="-27.271828" lon="151.2894256">
  <ele>444.47</ele>
  <time>2026-09-01T19:59:14Z</time>
  <course>259.57</course>
  <speed>22.04</speed>
  <fix>3d</fix>
</trkpt>
<trkpt lat="-27.2718435" lon="151.2893593">
  <ele>444.27</ele>
  <time>2026-09-01T19:59:14Z</time>
  <course>252.92</course>
  <speed>22.60728422433796</speed>
  <fix>3d</fix>
</trkpt>
<trkpt lat="-27.271837" lon="151.2893818">
  <ele>444.39</ele>
  <time>2026-09-01T19:59:14Z</time>
  <course>254.23</course>
  <speed>22.41</speed>
  <fix>3d</fix>
</trkpt>
<trkpt lat="-27.2718505" lon="151.2893377">
  <ele>444.21</ele>
  <time>2026-09-01T19:59:14Z</time>
  <course>250.16</course>
  <speed>22.789131181332912</speed>
  <fix>3d</fix>
</trkpt>
<trkpt lat="-27.271837" lon="151.2893818">
  <ele>444.39</ele>
  <time>2026-09-01T19:59:14Z</time>
  <course>254.23</course>
  <speed>22.41</speed>
  <fix>3d</fix>
</trkpt>
<trkpt lat="-27.2718584" lon="151.2893163">
  <ele>444.14</ele>
  <time>2026-09-01T19:59:14Z</time>
  <course>247.41</course>
  <speed>22.971321250637715</speed>
  <fix>3d</fix>
</trkpt>
<trkpt lat="-27.2718499" lon="151.2893385">
  <ele>444.27</ele>
  <time>2026-09-01T19:59:14Z</time>
  <course>248.75</course>
  <speed>22.77</speed>
  <fix>3d</fix>
</trkpt>
<trkpt lat="-27.2718673" lon="151.2892954">
  <ele>444.07</ele>
  <time>2026-09-01T19:59:14Z</time>
  <course>244.65</course>
  <speed>23.134919494132674</speed>
  <fix>3d</fix>
</trkpt>
<trkpt lat="-27.2718499" lon="151.2893385">
  <ele>444.27</ele>
  <time>2026-09-01T19:59:14Z</time>
  <course>248.75</course>
  <speed>22.77</speed>
  <fix>3d</fix>
</trkpt>
<trkpt lat="-27.2718772" lon="151.2892746">
  <ele>444.0</ele>
  <time>2026-09-01T19:59:14Z</time>
  <course>241.84</course>
  <speed>23.309854139397785</speed>
  <fix>3d</fix>
</trkpt>
<trkpt lat="-27.2718667" lon="151.2892961">
  <ele>444.13</ele>
  <time>2026-09-01T19:59:14Z</time>
  <course>243.17</course>
  <speed>23.12</speed>
  <fix>3d</fix>
</trkpt>
<trkpt lat="-27.2718879" lon="151.2892546">
  <ele>443.92</ele>
  <time>2026-09-01T19:59:14Z</time>
  <course>239.02</course>
  <speed>23.456922219251187</speed>
  <fix>3d</fix>
</trkpt>
<trkpt lat="-27.2718667" lon="151.2892961">
  <ele>444.13</ele>
  <time>2026-09-01T19:59:14Z</time>
  <course>243.17</course>
  <speed>23.12</speed>
  <fix>3d</fix>
</trkpt>
<trkpt lat="-27.2718996" lon="151.2892352">
  <ele>443.84</ele>
  <time>2026-09-01T19:59:14Z</time>
  <course>236.17</course>
  <speed>23.6134220307011</speed>
  <fix>3d</fix>
</trkpt>
<trkpt lat="-27.2718874" lon="151.2892552">
  <ele>443.97</ele>
  <time>2026-09-01T19:59:14Z</time>
  <course>237.54</course>
  <speed>23.46</speed>
  <fix>3d</fix>
</trkpt>
<trkpt lat="-27.2719122" lon="151.2892162">
  <ele>443.76</ele>
  <time>2026-09-01T19:59:14Z</time>
  <course>233.36</course>
  <speed>23.76707807030557</speed>
  <fix>3d</fix>
</trkpt>
<trkpt lat="-27.2718874" lon="151.2892552">
  <ele>443.97</ele>
  <time>2026-09-01T19:59:14Z</time>
  <course>237.54</course>
  <speed>23.46</speed>
  <fix>3d</fix>
</trkpt>
<trkpt lat="-27.2719258" lon="151.2891977">
  <ele>443.68</ele>
  <time>2026-09-01T19:59:14Z</time>
  <course>230.55</course>
  <speed>23.91315119343329</speed>
  <fix>3d</fix>
</trkpt>
<trkpt lat="-27.271912" lon="151.2892163">
  <ele>443.81</ele>
  <time>2026-09-01T19:59:14Z</time>
  <course>231.89</course>
  <speed>23.79</speed>
  <fix>3d</fix>
</trkpt>
<trkpt lat="-27.2719402" lon="151.2891799">
  <ele>443.59</ele>
  <time>2026-09-01T19:59:14Z</time>
  <course>227.76</course>
  <speed>24.066966987969217</speed>
  <fix>3d</fix>
</trkpt>
<trkpt lat="-27.271912" lon="151.2892163">
  <ele>443.81</ele>
  <time>2026-09-01T19:59:14Z</time>
  <course>231.89</course>
  <speed>23.79</speed>
  <fix>3d</fix>
</trkpt>
<trkpt lat="-27.2719556" lon="151.2891629">
  <ele>443.5</ele>
  <time>2026-09-01T19:59:14Z</time>
  <course>224.98</course>
  <speed>24.215649898361185</speed>
  <fix>3d</fix>
</trkpt>
<trkpt lat="-27.2719401" lon="151.2891797">
  <ele>443.64</ele>
  <time>2026-09-01T19:59:14Z</time>
  <course>226.23</course>
  <speed>24.11</speed>
  <fix>3d</fix>
</trkpt>
<trkpt lat="-27.2719717" lon="151.2891465">
  <ele>443.41</ele>
  <time>2026-09-01T19:59:14Z</time>
  <course>222.21</course>
  <speed>24.37331737782118</speed>
  <fix>3d</fix>
</trkpt>
<trkpt lat="-27.2719401" lon="151.2891797">
  <ele>443.64</ele>
  <time>2026-09-01T19:59:14Z</time>
  <course>226.23</course>
  <speed>24.11</speed>
  <fix>3d</fix>
</trkpt>
<trkpt lat="-27.2719887" lon="151.289131">
  <ele>443.32</ele>
  <time>2026-09-01T19:59:14Z</time>
  <course>219.52</course>
  <speed>24.518329877868922</speed>
  <fix>3d</fix>
</trkpt>
<trkpt lat="-27.2719718" lon="151.289146">
  <ele>443.45</ele>
  <time>2026-09-01T19:59:14Z</time>
  <course>220.62</course>
  <speed>24.42</speed>
  <fix>3d</fix>
</trkpt>
<trkpt lat="-27.2720065" lon="151.2891162">
  <ele>443.23</ele>
  <time>2026-09-01T19:59:14Z</time>
  <course>216.85</course>
  <speed>24.662173464640137</speed>
  <fix>3d</fix>
</trkpt>
<trkpt lat="-27.2719718" lon="151.289146">
  <ele>443.45</ele>
  <time>2026-09-01T19:59:14Z</time>
  <course>220.62</course>
  <speed>24.42</speed>
  <fix>3d</fix>
</trkpt>
<trkpt lat="-27.2720249" lon="151.2891024">
  <ele>443.13</ele>
  <time>2026-09-01T19:59:14Z</time>
  <course>214.24</course>
  <speed>24.80309053323799</speed>
  <fix>3d</fix>
</trkpt>
<trkpt lat="-27.2720066" lon="151.2891156">
  <ele>443.26</ele>
  <time>2026-09-01T19:59:14Z</time>
  <course>215.12</course>
  <speed>24.72</speed>
  <fix>3d</fix>
</trkpt>
<trkpt lat="-27.2720438" lon="151.2890895">
  <ele>443.04</ele>
  <time>2026-09-01T19:59:14Z</time>
  <course>211.67</course>
  <speed>24.932264237329107</speed>
  <fix>3d</fix>
</trkpt>
<trkpt lat="-27.2720066" lon="151.2891156">
  <ele>443.26</ele>
  <time>2026-09-01T19:59:14Z</time>
  <course>215.12</course>
  <speed>24.72</speed>
  <fix>3d</fix>
</trkpt>
<trkpt lat="-27.2720636" lon="151.2890775">
  <ele>442.94</ele>
  <time>2026-09-01T19:59:14Z</time>
  <course>209.14</course>
  <speed>25.062769200549248</speed>
  <fix>3d</fix>
</trkpt>
<trkpt lat="-27.2720443" lon="151.2890886">
  <ele>443.07</ele>
  <time>2026-09-01T19:59:14Z</time>
  <course>209.8</course>
  <speed>25.0</speed>
  <fix>3d</fix>
</trkpt>
<trkpt lat="-27.2720839" lon="151.2890663">
  <ele>442.84</ele>
  <time>2026-09-01T19:59:14Z</time>
  <course>206.66</course>
  <speed>25.19400722394117</speed>
  <fix>3d</fix>
</trkpt>
<trkpt lat="-27.2720443" lon="151.2890886">
  <ele>443.07</ele>
  <time>2026-09-01T19:59:14Z</time>
  <course>209.8</course>
  <speed>25.0</speed>
  <fix>3d</fix>
</trkpt>
<trkpt lat="-27.2721047" lon="151.2890562">
  <ele>442.74</ele>
  <time>2026-09-01T19:59:14Z</time>
  <course>204.32</course>
  <speed>25.321779163400034</speed>
  <fix>3d</fix>
</trkpt>
<trkpt lat="-27.2720844" lon="151.2890654">
  <ele>442.87</ele>
  <time>2026-09-01T19:59:14Z</time>
  <course>204.7</course>
  <speed>25.26</speed>
  <fix>3d</fix>
</trkpt>
<trkpt lat="-27.2721261" lon="151.2890469">
  <ele>442.64</ele>
  <time>2026-09-01T19:59:14Z</time>
  <course>202.08</course>
  <speed>25.443871560751127</speed>
  <fix>3d</fix>
</trkpt>
<trkpt lat="-27.2720844" lon="151.2890654">
  <ele>442.87</ele>
  <time>2026-09-01T19:59:14Z</time>
  <course>204.7</course>
  <speed>25.26</speed>
  <fix>3d</fix>
</trkpt>
<trkpt lat="-27.2721478" lon="151.2890386">
  <ele>442.54</ele>
  <time>2026-09-01T19:59:14Z</time>
  <course>199.86</course>
  <speed>25.548498977435056</speed>
  <fix>3d</fix>
</trkpt>
<trkpt lat="-27.2721266" lon="151.2890459">
  <ele>442.66</ele>
  <time>2026-09-01T19:59:14Z</time>
  <course>199.9</course>
  <speed>25.5</speed>
  <fix>3d</fix>
</trkpt>
<trkpt lat="-27.2721698" lon="151.2890312">
  <ele>442.43</ele>
  <time>2026-09-01T19:59:14Z</time>
  <course>197.7</course>
  <speed>25.659216667700516</speed>
  <fix>3d</fix>
</trkpt>
<trkpt lat="-27.2721266" lon="151.2890459">
  <ele>442.66</ele>
  <time>2026-09-01T19:59:14Z</time>
  <course>199.9</course>
  <speed>25.5</speed>
  <fix>3d</fix>
</trkpt>
<trkpt lat="-27.2721922" lon="151.2890247">
  <ele>442.32</ele>
  <time>2026-09-01T19:59:14Z</time>
  <course>195.69</course>
  <speed>25.76006211172636</speed>
  <fix>3d</fix>
</trkpt>
<trkpt lat="-27.2721706" lon="151.2890302">
  <ele>442.46</ele>
  <time>2026-09-01T19:59:14Z</time>
  <course>195.44</course>
  <speed>25.73</speed>
  <fix>3d</fix>
</trkpt>
<trkpt lat="-27.2722147" lon="151.2890191">
  <ele>442.21</ele>
  <time>2026-09-01T19:59:14Z</time>
  <course>193.76</course>
  <speed>25.842269637166158</speed>
  <fix>3d</fix>
</trkpt>
<trkpt lat="-27.2721706" lon="151.2890302">
  <ele>442.46</ele>
  <time>2026-09-01T19:59:14Z</time>
  <course>195.44</course>
  <speed>25.73</speed>
  <fix>3d</fix>
</trkpt>
<trkpt lat="-27.2722375" lon="151.2890144">
  <ele>442.1</ele>
  <time>2026-09-01T19:59:14Z</time>
  <course>191.96</course>
  <speed>25.89953667539248</speed>
  <fix>3d</fix>
</trkpt>
<trkpt lat="-27.2722158" lon="151.2890182">
  <ele>442.23</ele>
  <time>2026-09-01T19:59:14Z</time>
  <course>191.31</course>
  <speed>25.91</speed>
  <fix>3d</fix>
</trkpt>
<trkpt lat="-27.2722604" lon="151.2890105">
  <ele>441.99</ele>
  <time>2026-09-01T19:59:14Z</time>
  <course>190.24</course>
  <speed>25.920009645059935</speed>
  <fix>3d</fix>
</trkpt>
<trkpt lat="-27.2722158" lon="151.2890182">
  <ele>442.23</ele>
  <time>2026-09-01T19:59:14Z</time>
  <course>191.31</course>
  <speed>25.91</speed>
  <fix>3d</fix>
</trkpt>
<trkpt lat="-27.2722833" lon="151.2890074">
  <ele>441.87</ele>
  <time>2026-09-01T19:59:14Z</time>
  <course>188.58</course>
  <speed>25.911783033978963</speed>
  <fix>3d</fix>
</trkpt>
<trkpt lat="-27.2722617" lon="151.2890096">
  <ele>442.0</ele>
  <time>2026-09-01T19:59:14Z</time>
  <course>187.58</course>
  <speed>25.99</speed>
  <fix>3d</fix>
</trkpt>
<trkpt lat="-27.2723063" lon="151.289005">
  <ele>441.75</ele>
  <time>2026-09-01T19:59:14Z</time>
  <course>187.02</course>
  <speed>25.879107403463514</speed>
  <fix>3d</fix>
</trkpt>
<trkpt lat="-27.2722617" lon="151.2890096">
  <ele>442.0</ele>
  <time>2026-09-01T19:59:14Z</time>
  <course>187.58</course>
  <speed>25.99</speed>
  <fix>3d</fix>
</trkpt>
<trkpt lat="-27.2723294" lon="151.2890034">
  <ele>441.62</ele>
  <time>2026-09-01T19:59:14Z</time>
  <course>185.58</course>
  <speed>25.84833650353539</speed>
  <fix>3d</fix>
</trkpt>
<trkpt lat="-27.2723082" lon="151.2890042">
  <ele>441.76</ele>
  <time>2026-09-01T19:59:14Z</time>
  <course>184.25</course>
  <speed>25.99</speed>
  <fix>3d</fix>
</trkpt>
<trkpt lat="-27.2723524" lon="151.2890024">
  <ele>441.49</ele>
  <time>2026-09-01T19:59:14Z</time>
  <course>184.19</course>
  <speed>25.816742629541782</speed>
  <fix>3d</fix>
</trkpt>
<trkpt lat="-27.2723082" lon="151.2890042">
  <ele>441.76</ele>
  <time>2026-09-01T19:59:14Z</time>
  <course>184.25</course>
  <speed>25.99</speed>
  <fix>3d</fix>
</trkpt>
<trkpt lat="-27.2723755" lon="151.289002">
  <ele>441.35</ele>
  <time>2026-09-01T19:59:14Z</time>
  <course>182.88</course>
  <speed>25.800001937984426</speed>
  <fix>3d</fix>
</trkpt>
<trkpt lat="-27.2723548" lon="151.2890018">
  <ele>441.49</ele>
  <time>2026-09-01T19:59:14Z</time>
  <course>181.34</course>
  <speed>25.94</speed>
  <fix>3d</fix>
</trkpt>
<trkpt lat="-27.2723986" lon="151.2890022">
  <ele>441.2</ele>
  <time>2026-09-01T19:59:14Z</time>
  <course>181.47</course>
  <speed>25.776083876337772</speed>
  <fix>3d</fix>
</trkpt>
<trkpt lat="-27.2723548" lon="151.2890018">
  <ele>441.49</ele>
  <time>2026-09-01T19:59:14Z</time>
  <course>181.34</course>
  <speed>25.94</speed>
  <fix>3d</fix>
</trkpt>
<trkpt lat="-27.2724218" lon="151.289003">
  <ele>441.05</ele>
  <time>2026-09-01T19:59:14Z</time>
  <course>180.19</course>
  <speed>25.76392244981342</speed>
  <fix>3d</fix>
</trkpt>
<trkpt lat="-27.2724013" lon="151.2890018">
  <ele>441.2</ele>
  <time>2026-09-01T19:59:14Z</time>
  <course>178.72</course>
  <speed>25.91</speed>
  <fix>3d</fix>
</trkpt>
<trkpt lat="-27.2724448" lon="151.2890043">
  <ele>440.91</ele>
  <time>2026-09-01T19:59:14Z</time>
  <course>179.14</course>
  <speed>25.74791059484245</speed>
  <fix>3d</fix>
</trkpt>
<trkpt lat="-27.2724013" lon="151.2890018">
  <ele>441.2</ele>
  <time>2026-09-01T19:59:14Z</time>
  <course>178.72</course>
  <speed>25.91</speed>
  <fix>3d</fix>
</trkpt>
<trkpt lat="-27.2724679" lon="151.289006">
  <ele>440.76</ele>
  <time>2026-09-01T19:59:14Z</time>
  <course>178.17</course>
  <speed>25.73398725421306</speed>
  <fix>3d</fix>
</trkpt>
<trkpt lat="-27.2724478" lon="151.2890039">
  <ele>440.89</ele>
  <time>2026-09-01T19:59:14Z</time>
  <course>176.5</course>
  <speed>25.89</speed>
  <fix>3d</fix>
</trkpt>
<trkpt lat="-27.2724911" lon="151.2890081">
  <ele>440.58</ele>
  <time>2026-09-01T19:59:14Z</time>
  <course>177.19</course>
  <speed>25.732100574962782</speed>
  <fix>3d</fix>
</trkpt>
<trkpt lat="-27.2724478" lon="151.2890039">
  <ele>440.89</ele>
  <time>2026-09-01T19:59:14Z</time>
  <course>176.5</course>
  <speed>25.89</speed>
  <fix>3d</fix>
</trkpt>
<trkpt lat="-27.272514" lon="151.2890104">
  <ele>440.4</ele>
  <time>2026-09-01T19:59:14Z</time>
  <course>176.3</course>
  <speed>25.731692521091574</speed>
  <fix>3d</fix>
</trkpt>
<trkpt lat="-27.2724942" lon="151.2890079">
  <ele>440.57</ele>
  <time>2026-09-01T19:59:14Z</time>
  <course>174.8</course>
  <speed>25.87</speed>
  <fix>3d</fix>
</trkpt>
<trkpt lat="-27.2725371" lon="151.2890132">
  <ele>440.21</ele>
  <time>2026-09-01T19:59:14Z</time>
  <course>175.5</course>
  <speed>25.744989803843385</speed>
  <fix>3d</fix>
</trkpt>
<trkpt lat="-27.2724942" lon="151.2890079">
  <ele>440.57</ele>
  <time>2026-09-01T19:59:14Z</time>
  <course>174.8</course>
  <speed>25.87</speed>
  <fix>3d</fix>
</trkpt>
<trkpt lat="-27.2725601" lon="151.2890162">
  <ele>440.02</ele>
  <time>2026-09-01T19:59:14Z</time>
  <course>174.71</course>
  <speed>25.759534157278544</speed>
  <fix>3d</fix>
</trkpt>
<trkpt lat="-27.2725404" lon="151.2890133">
  <ele>440.2</ele>
  <time>2026-09-01T19:59:14Z</time>
  <course>173.39</course>
  <speed>25.87</speed>
  <fix>3d</fix>
</trkpt>
<trkpt lat="-27.2725831" lon="151.2890196">
  <ele>439.82</ele>
  <time>2026-09-01T19:59:14Z</time>
  <course>173.96</course>
  <speed>25.77599658597122</speed>
  <fix>3d</fix>
</trkpt>
<trkpt lat="-27.2725404" lon="151.2890133">
  <ele>440.2</ele>
  <time>2026-09-01T19:59:14Z</time>
  <course>173.39</course>
  <speed>25.87</speed>
  <fix>3d</fix>
</trkpt>
<trkpt lat="-27.2726063" lon="151.2890233">
  <ele>439.61</ele>
  <time>2026-09-01T19:59:14Z</time>
  <course>173.21</course>
  <speed>25.80539672239123</speed>
  <fix>3d</fix>
</trkpt>
<trkpt lat="-27.2725865" lon="151.2890198">
  <ele>439.81</ele>
  <time>2026-09-01T19:59:14Z</time>
  <course>172.09</course>
  <speed>25.89</speed>
  <fix>3d</fix>
</trkpt>
<trkpt lat="-27.2726293" lon="151.2890272">
  <ele>439.41</ele>
  <time>2026-09-01T19:59:14Z</time>
  <course>172.49</course>
  <speed>25.846117696861164</speed>
  <fix>3d</fix>
</trkpt>
<trkpt lat="-27.2725865" lon="151.2890198">
  <ele>439.81</ele>
  <time>2026-09-01T19:59:14Z</time>
  <course>172.09</course>
  <speed>25.89</speed>
  <fix>3d</fix>
</trkpt>
<trkpt lat="-27.2726523" lon="151.2890314">
  <ele>439.21</ele>
  <time>2026-09-01T19:59:14Z</time>
  <course>171.8</course>
  <speed>25.879729519452095</speed>
  <fix>3d</fix>
</trkpt>
<trkpt lat="-27.2726325" lon="151.2890276">
  <ele>439.4</ele>
  <time>2026-09-01T19:59:14Z</time>
  <course>170.87</course>
  <speed>25.95</speed>
  <fix>3d</fix>
</trkpt>
<trkpt lat="-27.2726752" lon="151.2890358">
  <ele>439.01</ele>
  <time>2026-09-01T19:59:14Z</time>
  <course>171.18</course>
  <speed>25.92068671929816</speed>
  <fix>3d</fix>
</trkpt>
<trkpt lat="-27.2726325" lon="151.2890276">
  <ele>439.4</ele>
  <time>2026-09-01T19:59:14Z</time>
  <course>170.87</course>
  <speed>25.95</speed>
  <fix>3d</fix>
</trkpt>
<trkpt lat="-27.2726982" lon="151.2890406">
  <ele>438.83</ele>
  <time>2026-09-01T19:59:14Z</time>
  <course>170.56</course>
  <speed>25.96379787319259</speed>
  <fix>3d</fix>
</trkpt>
<trkpt lat="-27.2726786" lon="151.2890365">
  <ele>439.01</ele>
  <time>2026-09-01T19:59:14Z</time>
  <course>169.75</course>
  <speed>26.02</speed>
  <fix>3d</fix>
</trkpt>
<trkpt lat="-27.2727213" lon="151.2890455">
  <ele>438.64</ele>
  <time>2026-09-01T19:59:14Z</time>
  <course>170.02</course>
  <speed>26.024826608452166</speed>
  <fix>3d</fix>
</trkpt>
<trkpt lat="-27.2726786" lon="151.2890365">
  <ele>439.01</ele>
  <time>2026-09-01T19:59:14Z</time>
  <course>169.75</course>
  <speed>26.02</speed>
  <fix>3d</fix>
</trkpt>
<trkpt lat="-27.2727444" lon="151.2890507">
  <ele>438.47</ele>
  <time>2026-09-01T19:59:14Z</time>
  <course>169.56</course>
  <speed>26.083588710144927</speed>
  <fix>3d</fix>
</trkpt>
<trkpt lat="-27.2727247" lon="151.2890463">
  <ele>438.65</ele>
  <time>2026-09-01T19:59:14Z</time>
  <course>168.77</course>
  <speed>26.11</speed>
  <fix>3d</fix>
</trkpt>
<trkpt lat="-27.2727676" lon="151.2890562">
  <ele>438.31</ele>
  <time>2026-09-01T19:59:14Z</time>
  <course>169.09</course>
  <speed>26.151485617455847</speed>
  <fix>3d</fix>
</trkpt>
<trkpt lat="-27.2727247" lon="151.2890463">
  <ele>438.65</ele>
  <time>2026-09-01T19:59:14Z</time>
  <course>168.77</course>
  <speed>26.11</speed>
  <fix>3d</fix>
</trkpt>
<trkpt lat="-27.2727908" lon="151.2890617">
  <ele>438.16</ele>
  <time>2026-09-01T19:59:14Z</time>
  <course>168.66</course>
  <speed>26.20659649782856</speed>
  <fix>3d</fix>
</trkpt>
<trkpt lat="-27.2727707" lon="151.289057">
  <ele>438.33</ele>
  <time>2026-09-01T19:59:14Z</time>
  <course>167.94</course>
  <speed>26.21</speed>
  <fix>3d</fix>
</trkpt>
<trkpt lat="-27.2728139" lon="151.2890675">
  <ele>438.03</ele>
  <time>2026-09-01T19:59:14Z</time>
  <course>168.31</course>
  <speed>26.26811184687624</speed>
  <fix>3d</fix>
</trkpt>
<trkpt lat="-27.2727707" lon="151.289057">
  <ele>438.33</ele>
  <time>2026-09-01T19:59:14Z</time>
  <course>167.94</course>
  <speed>26.21</speed>
  <fix>3d</fix>
</trkpt>
<trkpt lat="-27.2728371" lon="151.2890734">
  <ele>437.9</ele>
  <time>2026-09-01T19:59:14Z</time>
  <course>168.02</course>
  <speed>26.318398507508014</speed>
  <fix>3d</fix>
</trkpt>
<trkpt lat="-27.2728168" lon="151.2890684">
  <ele>438.05</ele>
  <time>2026-09-01T19:59:14Z</time>
  <course>167.27</course>
  <speed>26.31</speed>
  <fix>3d</fix>
</trkpt>
<trkpt lat="-27.2728604" lon="151.2890794">
  <ele>437.79</ele>
  <time>2026-09-01T19:59:14Z</time>
  <course>167.72</course>
  <speed>26.384292675756914</speed>
  <fix>3d</fix>
</trkpt>
<trkpt lat="-27.2728168" lon="151.2890684">
  <ele>438.05</ele>
  <time>2026-09-01T19:59:14Z</time>
  <course>167.27</course>
  <speed>26.31</speed>
  <fix>3d</fix>
</trkpt>
<trkpt lat="-27.2728836" lon="151.2890856">
  <ele>437.69</ele>
  <time>2026-09-01T19:59:14Z</time>
  <course>167.35</course>
  <speed>26.44602994780124</speed>
  <fix>3d</fix>
</trkpt>
<trkpt lat="-27.2728629" lon="151.2890804">
  <ele>437.83</ele>
  <time>2026-09-01T19:59:14Z</time>
  <course>166.76</course>
  <speed>26.41</speed>
  <fix>3d</fix>
</trkpt>
<trkpt lat="-27.2729069" lon="151.2890918">
  <ele>437.6</ele>
  <time>2026-09-01T19:59:14Z</time>
  <course>167.01</course>
  <speed>26.498335796800525</speed>
  <fix>3d</fix>
</trkpt>
<trkpt lat="-27.2728629" lon="151.2890804">
  <ele>437.83</ele>
  <time>2026-09-01T19:59:14Z</time>
  <course>166.76</course>
  <speed>26.41</speed>
  <fix>3d</fix>
</trkpt>
<trkpt lat="-27.2729301" lon="151.2890982">
  <ele>437.53</ele>
  <time>2026-09-01T19:59:14Z</time>
  <course>166.78</course>
  <speed>26.550949135577056</speed>
  <fix>3d</fix>
</trkpt>
<trkpt lat="-27.2729091" lon="151.2890928">
  <ele>437.66</ele>
  <time>2026-09-01T19:59:14Z</time>
  <course>166.36</course>
  <speed>26.5</speed>
  <fix>3d</fix>
</trkpt>
<trkpt lat="-27.2729533" lon="151.2891046">
  <ele>437.48</ele>
  <time>2026-09-01T19:59:14Z</time>
  <course>166.62</course>
  <speed>26.59908645047796</speed>
  <fix>3d</fix>
</trkpt>
<trkpt lat="-27.2729091" lon="151.2890928">
  <ele>437.66</ele>
  <time>2026-09-01T19:59:14Z</time>
  <course>166.36</course>
  <speed>26.5</speed>
  <fix>3d</fix>
</trkpt>
<trkpt lat="-27.2729765" lon="151.2891111">
  <ele>437.44</ele>
  <time>2026-09-01T19:59:14Z</time>
  <course>166.4</course>
  <speed>26.644999530868827</speed>
  <fix>3d</fix>
</trkpt>
<trkpt lat="-27.2729555" lon="151.2891056">
  <ele>437.54</ele>
  <time>2026-09-01T19:59:14Z</time>
  <course>166.04</course>
  <speed>26.59</speed>
  <fix>3d</fix>
</trkpt>
<trkpt lat="-27.2729998" lon="151.2891177">
  <ele>437.41</ele>
  <time>2026-09-01T19:59:14Z</time>
  <course>166.28</course>
  <speed>26.676493397746263</speed>
  <fix>3d</fix>
</trkpt>
<trkpt lat="-27.2729555" lon="151.2891056">
  <ele>437.54</ele>
  <time>2026-09-01T19:59:14Z</time>
  <course>166.04</course>
  <speed>26.59</speed>
  <fix>3d</fix>
</trkpt>
<trkpt lat="-27.273023" lon="151.2891243">
  <ele>437.4</ele>
  <time>2026-09-01T19:59:14Z</time>
  <course>166.16</course>
  <speed>26.717756268070115</speed>
  <fix>3d</fix>
</trkpt>
<trkpt lat="-27.2730019" lon="151.2891187">
  <ele>437.47</ele>
  <time>2026-09-01T19:59:14Z</time>
  <course>165.82</course>
  <speed>26.67</speed>
  <fix>3d</fix>
</trkpt>
<trkpt lat="-27.2730463" lon="151.2891309">
  <ele>437.39</ele>
  <time>2026-09-01T19:59:14Z</time>
  <course>166.05</course>
  <speed>26.746934403777942</speed>
  <fix>3d</fix>
</trkpt>
<trkpt lat="-27.2730019" lon="151.2891187">
  <ele>437.47</ele>
  <time>2026-09-01T19:59:14Z</time>
  <course>165.82</course>
  <speed>26.67</speed>
  <fix>3d</fix>
</trkpt>
<trkpt lat="-27.2730696" lon="151.2891376">
  <ele>437.41</ele>
  <time>2026-09-01T19:59:14Z</time>
  <course>165.97</course>
  <speed>26.771232694816277</speed>
  <fix>3d</fix>
</trkpt>
<trkpt lat="-27.2730483" lon="151.289132">
  <ele>437.46</ele>
  <time>2026-09-01T19:59:14Z</time>
  <course>165.67</course>
  <speed>26.73</speed>
  <fix>3d</fix>
</trkpt>
<trkpt lat="-27.2730931" lon="151.2891444">
  <ele>437.43</ele>
  <time>2026-09-01T19:59:14Z</time>
  <course>165.92</course>
  <speed>26.795538807794106</speed>
  <fix>3d</fix>
</trkpt>
<trkpt lat="-27.2730483" lon="151.289132">
  <ele>437.46</ele>
  <time>2026-09-01T19:59:14Z</time>
  <course>165.67</course>
  <speed>26.73</speed>
  <fix>3d</fix>
</trkpt>
<trkpt lat="-27.2731164" lon="151.2891511">
  <ele>437.46</ele>
  <time>2026-09-01T19:59:14Z</time>
  <course>165.8</course>
  <speed>26.819852721444985</speed>
  <fix>3d</fix>
</trkpt>
<trkpt lat="-27.2730948" lon="151.2891454">
  <ele>437.5</ele>
  <time>2026-09-01T19:59:14Z</time>
  <course>165.6</course>
  <speed>26.78</speed>
  <fix>3d</fix>
</trkpt>
<trkpt lat="-27.2731398" lon="151.2891579">
  <ele>437.49</ele>
  <time>2026-09-01T19:59:14Z</time>
  <course>165.74</course>
  <speed>26.841702628559165</speed>
  <fix>3d</fix>
</trkpt>
<trkpt lat="-27.2730948" lon="151.2891454">
  <ele>437.5</ele>
  <time>2026-09-01T19:59:14Z</time>
  <course>165.6</course>
  <speed>26.78</speed>
  <fix>3d</fix>
</trkpt>
<trkpt lat="-27.2731632" lon="151.2891647">
  <ele>437.54</ele>
  <time>2026-09-01T19:59:14Z</time>
  <course>165.68</course>
  <speed>26.86602687410254</speed>
  <fix>3d</fix>
</trkpt>
<trkpt lat="-27.2731416" lon="151.2891589">
  <ele>437.57</ele>
  <time>2026-09-01T19:59:14Z</time>
  <course>165.57</course>
  <speed>26.81</speed>
  <fix>3d</fix>
</trkpt>
<trkpt lat="-27.2731865" lon="151.2891714">
  <ele>437.59</ele>
  <time>2026-09-01T19:59:14Z</time>
  <course>165.69</course>
  <speed>26.86602687410254</speed>
  <fix>3d</fix>
</trkpt>
<trkpt lat="-27.2731416" lon="151.2891589">
  <ele>437.57</ele>
  <time>2026-09-01T19:59:14Z</time>
  <course>165.57</course>
  <speed>26.81</speed>
  <fix>3d</fix>
</trkpt>
<trkpt lat="-27.2732098" lon="151.2891782">
  <ele>437.65</ele>
  <time>2026-09-01T19:59:14Z</time>
  <course>165.68</course>
  <speed>26.86602687410254</speed>
  <fix>3d</fix>
</trkpt>
<trkpt lat="-27.2731883" lon="151.2891725">
  <ele>437.66</ele>
  <time>2026-09-01T19:59:14Z</time>
  <course>165.56</course>
  <speed>26.83</speed>
  <fix>3d</fix>
</trkpt>
<trkpt lat="-27.273233" lon="151.2891849">
  <ele>437.72</ele>
  <time>2026-09-01T19:59:14Z</time>
  <course>165.65</course>
  <speed>26.87571580442091</speed>
  <fix>3d</fix>
</trkpt>
<trkpt lat="-27.2731883" lon="151.2891725">
  <ele>437.66</ele>
  <time>2026-09-01T19:59:14Z</time>
  <course>165.56</course>
  <speed>26.83</speed>
  <fix>3d</fix>
</trkpt>
<trkpt lat="-27.2732563" lon="151.2891916">
  <ele>437.79</ele>
  <time>2026-09-01T19:59:14Z</time>
  <course>165.67</course>
  <speed>26.873243198393453</speed>
  <fix>3d</fix>
</trkpt>
<trkpt lat="-27.273235" lon="151.289186">
  <ele>437.78</ele>
  <time>2026-09-01T19:59:14Z</time>
  <course>165.58</course>
  <speed>26.85</speed>
  <fix>3d</fix>
</trkpt>
<trkpt lat="-27.2732795" lon="151.2891984">
  <ele>437.86</ele>
  <time>2026-09-01T19:59:14Z</time>
  <course>165.71</course>
  <speed>26.87077408635635</speed>
  <fix>3d</fix>
</trkpt>
<trkpt lat="-27.273235" lon="151.289186">
  <ele>437.78</ele>
  <time>2026-09-01T19:59:14Z</time>
  <course>165.58</course>
  <speed>26.85</speed>
  <fix>3d</fix>
</trkpt>
<trkpt lat="-27.2733028" lon="151.2892051">
  <ele>437.95</ele>
  <time>2026-09-01T19:59:14Z</time>
  <course>165.71</course>
  <speed>26.856153857170238</speed>
  <fix>3d</fix>
</trkpt>
<trkpt lat="-27.2732818" lon="151.2891995">
  <ele>437.93</ele>
  <time>2026-09-01T19:59:14Z</time>
  <course>165.63</course>
  <speed>26.85</speed>
  <fix>3d</fix>
</trkpt>
<trkpt lat="-27.273326" lon="151.2892117">
  <ele>438.04</ele>
  <time>2026-09-01T19:59:14Z</time>
  <course>165.77</course>
  <speed>26.85369434547135</speed>
  <fix>3d</fix>
</trkpt>
<trkpt lat="-27.2732818" lon="151.2891995">
  <ele>437.93</ele>
  <time>2026-09-01T19:59:14Z</time>
  <course>165.63</course>
  <speed>26.85</speed>
  <fix>3d</fix>
</trkpt>
<trkpt lat="-27.2733493" lon="151.2892184">
  <ele>438.13</ele>
  <time>2026-09-01T19:59:14Z</time>
  <course>165.83</course>
  <speed>26.839090893694593</speed>
  <fix>3d</fix>
</trkpt>
<trkpt lat="-27.2733285" lon="151.2892129">
  <ele>438.1</ele>
  <time>2026-09-01T19:59:14Z</time>
  <course>165.7</course>
  <speed>26.84</speed>
  <fix>3d</fix>
</trkpt>
<trkpt lat="-27.2733725" lon="151.2892251">
  <ele>438.23</ele>
  <time>2026-09-01T19:59:14Z</time>
  <course>165.83</course>
  <speed>26.824498131372376</speed>
  <fix>3d</fix>
</trkpt>
<trkpt lat="-27.2733285" lon="151.2892129">
  <ele>438.1</ele>
  <time>2026-09-01T19:59:14Z</time>
  <course>165.7</course>
  <speed>26.84</speed>
  <fix>3d</fix>
</trkpt>
<trkpt lat="-27.2733958" lon="151.2892317">
  <ele>438.32</ele>
  <time>2026-09-01T19:59:14Z</time>
  <course>165.82</course>
  <speed>26.809916075959656</speed>
  <fix>3d</fix>
</trkpt>
<trkpt lat="-27.2733752" lon="151.2892262">
  <ele>438.28</ele>
  <time>2026-09-01T19:59:14Z</time>
  <course>165.78</course>
  <speed>26.83</speed>
  <fix>3d</fix>
</trkpt>
<trkpt lat="-27.2734191" lon="151.2892383">
  <ele>438.42</ele>
  <time>2026-09-01T19:59:14Z</time>
  <course>165.83</course>
  <speed>26.80504430139969</speed>
  <fix>3d</fix>
</trkpt>
<trkpt lat="-27.2733752" lon="151.2892262">
  <ele>438.28</ele>
  <time>2026-09-01T19:59:14Z</time>
  <course>165.78</course>
  <speed>26.83</speed>
  <fix>3d</fix>
</trkpt>
<trkpt lat="-27.2734425" lon="151.289245">
  <ele>438.52</ele>
  <time>2026-09-01T19:59:14Z</time>
  <course>165.81</course>
  <speed>26.802613678520235</speed>
  <fix>3d</fix>
</trkpt>
<trkpt lat="-27.2734219" lon="151.2892395">
  <ele>438.46</ele>
  <time>2026-09-01T19:59:14Z</time>
  <course>165.86</course>
  <speed>26.8</speed>
  <fix>3d</fix>
</trkpt>
<trkpt lat="-27.2734659" lon="151.2892516">
  <ele>438.61</ele>
  <time>2026-09-01T19:59:14Z</time>
  <course>165.84</course>
  <speed>26.792913242124303</speed>
  <fix>3d</fix>
</trkpt>
<trkpt lat="-27.2734219" lon="151.2892395">
  <ele>438.46</ele>
  <time>2026-09-01T19:59:14Z</time>
  <course>165.86</course>
  <speed>26.8</speed>
  <fix>3d</fix>
</trkpt>
<trkpt lat="-27.2734894" lon="151.2892582">
  <ele>438.71</ele>
  <time>2026-09-01T19:59:14Z</time>
  <course>165.91</course>
  <speed>26.788060773411726</speed>
  <fix>3d</fix>
</trkpt>
<trkpt lat="-27.2734686" lon="151.2892527">
  <ele>438.66</ele>
  <time>2026-09-01T19:59:14Z</time>
  <course>165.91</course>
  <speed>26.78</speed>
  <fix>3d</fix>
</trkpt>
<trkpt lat="-27.2735128" lon="151.2892649">
  <ele>438.81</ele>
  <time>2026-09-01T19:59:14Z</time>
  <course>165.97</course>
  <speed>26.773518633156904</speed>
  <fix>3d</fix>
</trkpt>
<trkpt lat="-27.2734686" lon="151.2892527">
  <ele>438.66</ele>
  <time>2026-09-01T19:59:14Z</time>
  <course>165.91</course>
  <speed>26.78</speed>
  <fix>3d</fix>
</trkpt>
<trkpt lat="-27.2735363" lon="151.2892714">
  <ele>438.91</ele>
  <time>2026-09-01T19:59:14Z</time>
  <course>166.0</course>
  <speed>26.771103824833222</speed>
  <fix>3d</fix>
</trkpt>
<trkpt lat="-27.2735152" lon="151.2892658">
  <ele>438.86</ele>
  <time>2026-09-01T19:59:14Z</time>
  <course>165.98</course>
  <speed>26.74</speed>
  <fix>3d</fix>
</trkpt>
<trkpt lat="-27.2735595" lon="151.289278">
  <ele>439.01</ele>
  <time>2026-09-01T19:59:15Z</time>
  <course>166.07</course>
  <speed>26.75417350620273</speed>
  <fix>3d</fix>
</trkpt>
<trkpt lat="-27.2735152" lon="151.2892658">
  <ele>438.86</ele>
  <time>2026-09-01T19:59:15Z</time>
  <course>165.98</course>
  <speed>26.74</speed>
  <fix>3d</fix>
</trkpt>
<trkpt lat="-27.2735829" lon="151.2892845">
  <ele>439.12</ele>
  <time>2026-09-01T19:59:15Z</time>
  <course>166.17</course>
  <speed>26.739665293342775</speed>
  <fix>3d</fix>
</trkpt>
<trkpt lat="-27.2735617" lon="151.2892789">
  <ele>439.06</ele>
  <time>2026-09-01T19:59:15Z</time>
  <course>166.07</course>
  <speed>26.7</speed>
  <fix>3d</fix>
</trkpt>
<trkpt lat="-27.2736063" lon="151.289291">
  <ele>439.22</ele>
  <time>2026-09-01T19:59:15Z</time>
  <course>166.22</course>
  <speed>26.722778672885045</speed>
  <fix>3d</fix>
</trkpt>
<trkpt lat="-27.2735617" lon="151.2892789">
  <ele>439.06</ele>
  <time>2026-09-01T19:59:15Z</time>
  <course>166.07</course>
  <speed>26.7</speed>
  <fix>3d</fix>
</trkpt>
<trkpt lat="-27.2736297" lon="151.2892975">
  <ele>439.33</ele>
  <time>2026-09-01T19:59:15Z</time>
  <course>166.21</course>
  <speed>26.696205722911262</speed>
  <fix>3d</fix>
</trkpt>
<trkpt lat="-27.2735617" lon="151.2892789">
  <ele>439.06</ele>
  <time>2026-09-01T19:59:15Z</time>
  <course>166.07</course>
  <speed>26.7</speed>
  <fix>3d</fix>
</trkpt>
<trkpt lat="-27.2736528" lon="151.2893039">
  <ele>439.43</ele>
  <time>2026-09-01T19:59:15Z</time>
  <course>166.26</course>
  <speed>26.672026544677852</speed>
  <fix>3d</fix>
</trkpt>
<trkpt lat="-27.2736084" lon="151.2892918">
  <ele>439.26</ele>
  <time>2026-09-01T19:59:15Z</time>
  <course>166.18</course>
  <speed>26.66</speed>
  <fix>3d</fix>
</trkpt>
<trkpt lat="-27.2736761" lon="151.2893103">
  <ele>439.54</ele>
  <time>2026-09-01T19:59:15Z</time>
  <course>166.36</course>
  <speed>26.63340947006222</speed>
  <fix>3d</fix>
</trkpt>
<trkpt lat="-27.2736084" lon="151.2892918">
  <ele>439.26</ele>
  <time>2026-09-01T19:59:15Z</time>
  <course>166.18</course>
  <speed>26.66</speed>
  <fix>3d</fix>
</trkpt>
<trkpt lat="-27.2736992" lon="151.2893166">
  <ele>439.65</ele>
  <time>2026-09-01T19:59:15Z</time>
  <course>166.41</course>
  <speed>26.597182181577054</speed>
  <fix>3d</fix>
</trkpt>
<trkpt lat="-27.273655" lon="151.2893047">
  <ele>439.47</ele>
  <time>2026-09-01T19:59:15Z</time>
  <course>166.29</course>
  <speed>26.61</speed>
  <fix>3d</fix>
</trkpt>
<trkpt lat="-27.2737221" lon="151.2893229">
  <ele>439.75</ele>
  <time>2026-09-01T19:59:15Z</time>
  <course>166.43</course>
  <speed>26.570694383098086</speed>
  <fix>3d</fix>
</trkpt>
<trkpt lat="-27.2737014" lon="151.2893173">
  <ele>439.68</ele>
  <time>2026-09-01T19:59:15Z</time>
  <course>166.41</course>
  <speed>26.57</speed>
  <fix>3d</fix>
</trkpt>
<trkpt lat="-27.2737453" lon="151.2893292">
  <ele>439.85</ele>
  <time>2026-09-01T19:59:15Z</time>
  <course>166.46</course>
  <speed>26.546566632994182</speed>
  <fix>3d</fix>
</trkpt>
<trkpt lat="-27.2737014" lon="151.2893173">
  <ele>439.68</ele>
  <time>2026-09-01T19:59:15Z</time>
  <course>166.41</course>
  <speed>26.57</speed>
  <fix>3d</fix>
</trkpt>
<trkpt lat="-27.2737684" lon="151.2893354">
  <ele>439.95</ele>
  <time>2026-09-01T19:59:15Z</time>
  <course>166.49</course>
  <speed>26.52244709675184</speed>
  <fix>3d</fix>
</trkpt>
<trkpt lat="-27.2737477" lon="151.2893299">
  <ele>439.89</ele>
  <time>2026-09-01T19:59:15Z</time>
  <course>166.5</course>
  <speed>26.52</speed>
  <fix>3d</fix>
</trkpt>
<trkpt lat="-27.2737915" lon="151.2893416">
  <ele>440.05</ele>
  <time>2026-09-01T19:59:15Z</time>
  <course>166.6</course>
  <speed>26.498335796800525</speed>
  <fix>3d</fix>
</trkpt>
<trkpt lat="-27.2737477" lon="151.2893299">
  <ele>439.89</ele>
  <time>2026-09-01T19:59:15Z</time>
  <course>166.5</course>
  <speed>26.52</speed>
  <fix>3d</fix>
</trkpt>
<trkpt lat="-27.2738146" lon="151.2893479">
  <ele>440.14</ele>
  <time>2026-09-01T19:59:15Z</time>
  <course>166.65</course>
  <speed>26.471911529015053</speed>
  <fix>3d</fix>
</trkpt>
<trkpt lat="-27.273794" lon="151.2893423">
  <ele>440.08</ele>
  <time>2026-09-01T19:59:15Z</time>
  <course>166.59</course>
  <speed>26.48</speed>
  <fix>3d</fix>
</trkpt>
<trkpt lat="-27.2738379" lon="151.2893541">
  <ele>440.24</ele>
  <time>2026-09-01T19:59:15Z</time>
  <course>166.67</course>
  <speed>26.46959387674847</speed>
  <fix>3d</fix>
</trkpt>
<trkpt lat="-27.273794" lon="151.2893423">
  <ele>440.08</ele>
  <time>2026-09-01T19:59:15Z</time>
  <course>166.59</course>
  <speed>26.48</speed>
  <fix>3d</fix>
</trkpt>
<trkpt lat="-27.2738611" lon="151.2893603">
  <ele>440.33</ele>
  <time>2026-09-01T19:59:15Z</time>
  <course>166.64</course>
  <speed>26.45293178458675</speed>
  <fix>3d</fix>
</trkpt>
<trkpt lat="-27.2738403" lon="151.2893547">
  <ele>440.27</ele>
  <time>2026-09-01T19:59:15Z</time>
  <course>166.67</course>
  <speed>26.43</speed>
  <fix>3d</fix>
</trkpt>
<trkpt lat="-27.2738842" lon="151.2893665">
  <ele>440.42</ele>
  <time>2026-09-01T19:59:15Z</time>
  <course>166.65</course>
  <speed>26.43116531672412</speed>
  <fix>3d</fix>
</trkpt>
<trkpt lat="-27.2738403" lon="151.2893547">
  <ele>440.27</ele>
  <time>2026-09-01T19:59:15Z</time>
  <course>166.67</course>
  <speed>26.43</speed>
  <fix>3d</fix>
</trkpt>
<trkpt lat="-27.2739074" lon="151.2893726">
  <ele>440.51</ele>
  <time>2026-09-01T19:59:15Z</time>
  <course>166.68</course>
  <speed>26.40709942420788</speed>
  <fix>3d</fix>
</trkpt>
<trkpt lat="-27.2738864" lon="151.289367">
  <ele>440.45</ele>
  <time>2026-09-01T19:59:15Z</time>
  <course>166.74</course>
  <speed>26.39</speed>
  <fix>3d</fix>
</trkpt>
<trkpt lat="-27.2739304" lon="151.2893787">
  <ele>440.6</ele>
  <time>2026-09-01T19:59:15Z</time>
  <course>166.77</course>
  <speed>26.385336836963067</speed>
  <fix>3d</fix>
</trkpt>
<trkpt lat="-27.2738864" lon="151.289367">
  <ele>440.45</ele>
  <time>2026-09-01T19:59:15Z</time>
  <course>166.74</course>
  <speed>26.39</speed>
  <fix>3d</fix>
</trkpt>
<trkpt lat="-27.2739535" lon="151.2893848">
  <ele>440.69</ele>
  <time>2026-09-01T19:59:15Z</time>
  <course>166.81</course>
  <speed>26.36128221464199</speed>
  <fix>3d</fix>
</trkpt>
<trkpt lat="-27.2739325" lon="151.2893791">
  <ele>440.63</ele>
  <time>2026-09-01T19:59:15Z</time>
  <course>166.8</course>
  <speed>26.33</speed>
  <fix>3d</fix>
</trkpt>
<trkpt lat="-27.2739765" lon="151.2893909">
  <ele>440.78</ele>
  <time>2026-09-01T19:59:15Z</time>
  <course>166.81</course>
  <speed>26.337235997727632</speed>
  <fix>3d</fix>
</trkpt>
<trkpt lat="-27.2739325" lon="151.2893791">
  <ele>440.63</ele>
  <time>2026-09-01T19:59:15Z</time>
  <course>166.8</course>
  <speed>26.33</speed>
  <fix>3d</fix>
</trkpt>
<trkpt lat="-27.2739995" lon="151.2893969">
  <ele>440.86</ele>
  <time>2026-09-01T19:59:15Z</time>
  <course>166.84</course>
  <speed>26.325216048496163</speed>
  <fix>3d</fix>
</trkpt>
<trkpt lat="-27.2739786" lon="151.2893913">
  <ele>440.81</ele>
  <time>2026-09-01T19:59:15Z</time>
  <course>166.85</course>
  <speed>26.29</speed>
  <fix>3d</fix>
</trkpt>
<trkpt lat="-27.2740225" lon="151.289403">
  <ele>440.93</ele>
  <time>2026-09-01T19:59:15Z</time>
  <course>166.88</course>
  <speed>26.301182482922705</speed>
  <fix>3d</fix>
</trkpt>
<trkpt lat="-27.2739786" lon="151.2893913">
  <ele>440.81</ele>
  <time>2026-09-01T19:59:15Z</time>
  <course>166.85</course>
  <speed>26.29</speed>
  <fix>3d</fix>
</trkpt>
<trkpt lat="-27.2740453" lon="151.2894089">
  <ele>441.01</ele>
  <time>2026-09-01T19:59:15Z</time>
  <course>166.97</course>
  <speed>26.267418982458096</speed>
  <fix>3d</fix>
</trkpt>
<trkpt lat="-27.2740245" lon="151.2894033">
  <ele>440.97</ele>
  <time>2026-09-01T19:59:15Z</time>
  <course>166.91</course>
  <speed>26.24</speed>
  <fix>3d</fix>
</trkpt>
<trkpt lat="-27.2740684" lon="151.289415">
  <ele>441.09</ele>
  <time>2026-09-01T19:59:15Z</time>
  <course>166.94</course>
  <speed>26.25314076448759</speed>
  <fix>3d</fix>
</trkpt>
<trkpt lat="-27.2740245" lon="151.2894033">
  <ele>440.97</ele>
  <time>2026-09-01T19:59:15Z</time>
  <course>166.91</course>
  <speed>26.24</speed>
  <fix>3d</fix>
</trkpt>
<trkpt lat="-27.2740914" lon="151.289421">
  <ele>441.16</ele>
  <time>2026-09-01T19:59:15Z</time>
  <course>166.94</course>
  <speed>26.24113564615678</speed>
  <fix>3d</fix>
</trkpt>
<trkpt lat="-27.2740704" lon="151.2894153">
  <ele>441.13</ele>
  <time>2026-09-01T19:59:15Z</time>
  <course>166.97</course>
  <speed>26.2</speed>
  <fix>3d</fix>
</trkpt>
<trkpt lat="-27.2741145" lon="151.289427">
  <ele>441.24</ele>
  <time>2026-09-01T19:59:15Z</time>
  <course>166.98</course>
  <speed>26.22913265817229</speed>
  <fix>3d</fix>
</trkpt>
<trkpt lat="-27.2740704" lon="151.2894153">
  <ele>441.13</ele>
  <time>2026-09-01T19:59:15Z</time>
  <course>166.97</course>
  <speed>26.2</speed>
  <fix>3d</fix>
</trkpt>
<trkpt lat="-27.2741378" lon="151.289433">
  <ele>441.31</ele>
  <time>2026-09-01T19:59:15Z</time>
  <course>167.03</course>
  <speed>26.21713180346012</speed>
  <fix>3d</fix>
</trkpt>
<trkpt lat="-27.2740704" lon="151.2894153">
  <ele>441.13</ele>
  <time>2026-09-01T19:59:15Z</time>
  <course>166.97</course>
  <speed>26.2</speed>
  <fix>3d</fix>
</trkpt>
<trkpt lat="-27.2741606" lon="151.2894389">
  <ele>441.38</ele>
  <time>2026-09-01T19:59:15Z</time>
  <course>167.06</course>
  <speed>26.193136505581002</speed>
  <fix>3d</fix>
</trkpt>
<trkpt lat="-27.2741163" lon="151.2894272">
  <ele>441.28</ele>
  <time>2026-09-01T19:59:15Z</time>
  <course>167.01</course>
  <speed>26.16</speed>
  <fix>3d</fix>
</trkpt>
<trkpt lat="-27.2741834" lon="151.2894448">
  <ele>441.46</ele>
  <time>2026-09-01T19:59:15Z</time>
  <course>167.07</course>
  <speed>26.16914977602444</speed>
  <fix>3d</fix>
</trkpt>
<trkpt lat="-27.2741163" lon="151.2894272">
  <ele>441.28</ele>
  <time>2026-09-01T19:59:15Z</time>
  <course>167.01</course>
  <speed>26.16</speed>
  <fix>3d</fix>
</trkpt>
<trkpt lat="-27.2742068" lon="151.2894509">
  <ele>441.53</ele>
  <time>2026-09-01T19:59:15Z</time>
  <course>167.07</course>
  <speed>26.147414786169588</speed>
  <fix>3d</fix>
</trkpt>
<trkpt lat="-27.2741622" lon="151.289439">
  <ele>441.42</ele>
  <time>2026-09-01T19:59:15Z</time>
  <course>167.06</course>
  <speed>26.12</speed>
  <fix>3d</fix>
</trkpt>
<trkpt lat="-27.2742295" lon="151.2894567">
  <ele>441.59</ele>
  <time>2026-09-01T19:59:15Z</time>
  <course>167.09</course>
  <speed>26.115935748121302</speed>
  <fix>3d</fix>
</trkpt>
<trkpt lat="-27.2741622" lon="151.289439">
  <ele>441.42</ele>
  <time>2026-09-01T19:59:15Z</time>
  <course>167.06</course>
  <speed>26.12</speed>
  <fix>3d</fix>
</trkpt>
<trkpt lat="-27.2742519" lon="151.2894625">
  <ele>441.65</ele>
  <time>2026-09-01T19:59:15Z</time>
  <course>167.1</course>
  <speed>26.082216163508807</speed>
  <fix>3d</fix>
</trkpt>
<trkpt lat="-27.2742079" lon="151.2894509">
  <ele>441.56</ele>
  <time>2026-09-01T19:59:15Z</time>
  <course>167.1</course>
  <speed>26.07</speed>
  <fix>3d</fix>
</trkpt>
<trkpt lat="-27.2742745" lon="151.2894683">
  <ele>441.71</ele>
  <time>2026-09-01T19:59:15Z</time>
  <course>167.21</course>
  <speed>26.060485413744697</speed>
  <fix>3d</fix>
</trkpt>
<trkpt lat="-27.2742079" lon="151.2894509">
  <ele>441.56</ele>
  <time>2026-09-01T19:59:15Z</time>
  <course>167.1</course>
  <speed>26.07</speed>
  <fix>3d</fix>
</trkpt>
<trkpt lat="-27.274297" lon="151.2894741">
  <ele>441.77</ele>
  <time>2026-09-01T19:59:15Z</time>
  <course>167.23</course>
  <speed>26.026774675322336</speed>
  <fix>3d</fix>
</trkpt>
<trkpt lat="-27.2742535" lon="151.2894626">
  <ele>441.69</ele>
  <time>2026-09-01T19:59:15Z</time>
  <course>167.13</course>
  <speed>26.04</speed>
  <fix>3d</fix>
</trkpt>
<trkpt lat="-27.2743196" lon="151.2894799">
  <ele>441.82</ele>
  <time>2026-09-01T19:59:15Z</time>
  <course>167.22</course>
  <speed>26.00504758695896</speed>
  <fix>3d</fix>
</trkpt>
<trkpt lat="-27.2742535" lon="151.2894626">
  <ele>441.69</ele>
  <time>2026-09-01T19:59:15Z</time>
  <course>167.13</course>
  <speed>26.04</speed>
  <fix>3d</fix>
</trkpt>
<trkpt lat="-27.2743418" lon="151.2894855">
  <ele>441.87</ele>
  <time>2026-09-01T19:59:15Z</time>
  <course>167.22</course>
  <speed>25.983321573655665</speed>
  <fix>3d</fix>
</trkpt>
<trkpt lat="-27.274299" lon="151.2894743">
  <ele>441.81</ele>
  <time>2026-09-01T19:59:15Z</time>
  <course>167.17</course>
  <speed>26.0</speed>
  <fix>3d</fix>
</trkpt>
<trkpt lat="-27.2743643" lon="151.2894913">
  <ele>441.92</ele>
  <time>2026-09-01T19:59:15Z</time>
  <course>167.27</course>
  <speed>25.959372103346414</speed>
  <fix>3d</fix>
</trkpt>
<trkpt lat="-27.2743445" lon="151.2894859">
  <ele>441.91</ele>
  <time>2026-09-01T19:59:15Z</time>
  <course>167.2</course>
  <speed>25.97</speed>
  <fix>3d</fix>
</trkpt>
<trkpt lat="-27.274387" lon="151.2894971">
  <ele>441.97</ele>
  <time>2026-09-01T19:59:15Z</time>
  <course>167.28</course>
  <speed>25.9474006405266</speed>
  <fix>3d</fix>
</trkpt>
<trkpt lat="-27.2743445" lon="151.2894859">
  <ele>441.91</ele>
  <time>2026-09-01T19:59:15Z</time>
  <course>167.2</course>
  <speed>25.97</speed>
  <fix>3d</fix>
</trkpt>
<trkpt lat="-27.2744096" lon="151.2895028">
  <ele>442.02</ele>
  <time>2026-09-01T19:59:15Z</time>
  <course>167.26</course>
  <speed>25.935431363291414</speed>
  <fix>3d</fix>
</trkpt>
<trkpt lat="-27.27439" lon="151.2894976">
  <ele>442.02</ele>
  <time>2026-09-01T19:59:15Z</time>
  <course>167.24</course>
  <speed>25.95</speed>
  <fix>3d</fix>
</trkpt>
<trkpt lat="-27.2744323" lon="151.2895086">
  <ele>442.07</ele>
  <time>2026-09-01T19:59:15Z</time>
  <course>167.22</course>
  <speed>25.92346427466823</speed>
  <fix>3d</fix>
</trkpt>
<trkpt lat="-27.27439" lon="151.2894976">
  <ele>442.02</ele>
  <time>2026-09-01T19:59:15Z</time>
  <course>167.24</course>
  <speed>25.95</speed>
  <fix>3d</fix>
</trkpt>
<trkpt lat="-27.274455" lon="151.2895144">
  <ele>442.12</ele>
  <time>2026-09-01T19:59:15Z</time>
  <course>167.29</course>
  <speed>25.91371258619652</speed>
  <fix>3d</fix>
</trkpt>
<trkpt lat="-27.2744355" lon="151.2895091">
  <ele>442.11</ele>
  <time>2026-09-01T19:59:15Z</time>
  <course>167.27</course>
  <speed>25.92</speed>
  <fix>3d</fix>
</trkpt>
<trkpt lat="-27.2744778" lon="151.2895201">
  <ele>442.16</ele>
  <time>2026-09-01T19:59:15Z</time>
  <course>167.35</course>
  <speed>25.89953667539248</speed>
  <fix>3d</fix>
</trkpt>
<trkpt lat="-27.2744355" lon="151.2895091">
  <ele>442.11</ele>
  <time>2026-09-01T19:59:15Z</time>
  <course>167.27</course>
  <speed>25.92</speed>
  <fix>3d</fix>
</trkpt>
<trkpt lat="-27.2745005" lon="151.2895259">
  <ele>442.21</ele>
  <time>2026-09-01T19:59:15Z</time>
  <course>167.38</course>
  <speed>25.88978369936682</speed>
  <fix>3d</fix>
</trkpt>
<trkpt lat="-27.2744809" lon="151.2895206">
  <ele>442.2</ele>
  <time>2026-09-01T19:59:15Z</time>
  <course>167.29</course>
  <speed>25.89</speed>
  <fix>3d</fix>
</trkpt>
<trkpt lat="-27.274523" lon="151.2895316">
  <ele>442.25</ele>
  <time>2026-09-01T19:59:15Z</time>
  <course>167.34</course>
  <speed>25.877822551366258</speed>
  <fix>3d</fix>
</trkpt>
<trkpt lat="-27.2744809" lon="151.2895206">
  <ele>442.2</ele>
  <time>2026-09-01T19:59:15Z</time>
  <course>167.29</course>
  <speed>25.89</speed>
  <fix>3d</fix>
</trkpt>
<trkpt lat="-27.2745457" lon="151.2895373">
  <ele>442.29</ele>
  <time>2026-09-01T19:59:15Z</time>
  <course>167.32</course>
  <speed>25.86586360437246</speed>
  <fix>3d</fix>
</trkpt>
<trkpt lat="-27.2745262" lon="151.2895321">
  <ele>442.29</ele>
  <time>2026-09-01T19:59:15Z</time>
  <course>167.32</course>
  <speed>25.87</speed>
  <fix>3d</fix>
</trkpt>
<trkpt lat="-27.2745686" lon="151.2895431">
  <ele>442.33</ele>
  <time>2026-09-01T19:59:15Z</time>
  <course>167.34</course>
  <speed>25.86586360437246</speed>
  <fix>3d</fix>
</trkpt>
<trkpt lat="-27.2745262" lon="151.2895321">
  <ele>442.29</ele>
  <time>2026-09-01T19:59:15Z</time>
  <course>167.32</course>
  <speed>25.87</speed>
  <fix>3d</fix>
</trkpt>
<trkpt lat="-27.2745914" lon="151.2895489">
  <ele>442.38</ele>
  <time>2026-09-01T19:59:15Z</time>
  <course>167.28</course>
  <speed>25.863661767042963</speed>
  <fix>3d</fix>
</trkpt>
<trkpt lat="-27.2745262" lon="151.2895321">
  <ele>442.29</ele>
  <time>2026-09-01T19:59:15Z</time>
  <course>167.32</course>
  <speed>25.87</speed>
  <fix>3d</fix>
</trkpt>
<trkpt lat="-27.2746142" lon="151.2895546">
  <ele>442.42</ele>
  <time>2026-09-01T19:59:15Z</time>
  <course>167.31</course>
  <speed>25.844152143183184</speed>
  <fix>3d</fix>
</trkpt>
<trkpt lat="-27.2745716" lon="151.2895436">
  <ele>442.38</ele>
  <time>2026-09-01T19:59:15Z</time>
  <course>167.34</course>
  <speed>25.84</speed>
  <fix>3d</fix>
</trkpt>
<trkpt lat="-27.2746368" lon="151.2895603">
  <ele>442.46</ele>
  <time>2026-09-01T19:59:15Z</time>
  <course>167.36</course>
  <speed>25.832196964253736</speed>
  <fix>3d</fix>
</trkpt>
<trkpt lat="-27.2745716" lon="151.2895436">
  <ele>442.38</ele>
  <time>2026-09-01T19:59:15Z</time>
  <course>167.34</course>
  <speed>25.84</speed>
  <fix>3d</fix>
</trkpt>
<trkpt lat="-27.2746593" lon="151.289566">
  <ele>442.49</ele>
  <time>2026-09-01T19:59:15Z</time>
  <course>167.39</course>
  <speed>25.82024399574876</speed>
  <fix>3d</fix>
</trkpt>
<trkpt lat="-27.274617" lon="151.2895551">
  <ele>442.46</ele>
  <time>2026-09-01T19:59:15Z</time>
  <course>167.35</course>
  <speed>25.82</speed>
  <fix>3d</fix>
</trkpt>
<trkpt lat="-27.2746826" lon="151.2895719">
  <ele>442.53</ele>
  <time>2026-09-01T19:59:15Z</time>
  <course>167.42</course>
  <speed>25.798536780212945</speed>
  <fix>3d</fix>
</trkpt>
<trkpt lat="-27.274617" lon="151.2895551">
  <ele>442.46</ele>
  <time>2026-09-01T19:59:15Z</time>
  <course>167.35</course>
  <speed>25.82</speed>
  <fix>3d</fix>
</trkpt>
<trkpt lat="-27.2747049" lon="151.2895775">
  <ele>442.56</ele>
  <time>2026-09-01T19:59:15Z</time>
  <course>167.38</course>
  <speed>25.786587598982535</speed>
  <fix>3d</fix>
</trkpt>
<trkpt lat="-27.2746622" lon="151.2895664">
  <ele>442.53</ele>
  <time>2026-09-01T19:59:15Z</time>
  <course>167.36</course>
  <speed>25.79</speed>
  <fix>3d</fix>
</trkpt>
<trkpt lat="-27.2747274" lon="151.2895832">
  <ele>442.6</ele>
  <time>2026-09-01T19:59:15Z</time>
  <course>167.39</course>
  <speed>25.77683068183519</speed>
  <fix>3d</fix>
</trkpt>
<trkpt lat="-27.2746622" lon="151.2895664">
  <ele>442.53</ele>
  <time>2026-09-01T19:59:15Z</time>
  <course>167.36</course>
  <speed>25.79</speed>
  <fix>3d</fix>
</trkpt>
<trkpt lat="-27.2747499" lon="151.2895888">
  <ele>442.63</ele>
  <time>2026-09-01T19:59:15Z</time>
  <course>167.46</course>
  <speed>25.764883077553446</speed>
  <fix>3d</fix>
</trkpt>
<trkpt lat="-27.2747074" lon="151.2895778">
  <ele>442.6</ele>
  <time>2026-09-01T19:59:15Z</time>
  <course>167.38</course>
  <speed>25.77</speed>
  <fix>3d</fix>
</trkpt>
<trkpt lat="-27.2747723" lon="151.2895944">
  <ele>442.65</ele>
  <time>2026-09-01T19:59:15Z</time>
  <course>167.46</course>
  <speed>25.74317967928593</speed>
  <fix>3d</fix>
</trkpt>
<trkpt lat="-27.2747074" lon="151.2895778">
  <ele>442.6</ele>
  <time>2026-09-01T19:59:15Z</time>
  <course>167.38</course>
  <speed>25.77</speed>
  <fix>3d</fix>
</trkpt>
<trkpt lat="-27.2747948" lon="151.2896001">
  <ele>442.68</ele>
  <time>2026-09-01T19:59:15Z</time>
  <course>167.44</course>
  <speed>25.731235881706112</speed>
  <fix>3d</fix>
</trkpt>
<trkpt lat="-27.2747526" lon="151.2895892">
  <ele>442.67</ele>
  <time>2026-09-01T19:59:15Z</time>
  <course>167.4</course>
  <speed>25.75</speed>
  <fix>3d</fix>
</trkpt>
<trkpt lat="-27.2748174" lon="151.2896057">
  <ele>442.7</ele>
  <time>2026-09-01T19:59:15Z</time>
  <course>167.47</course>
  <speed>25.71711492372346</speed>
  <fix>3d</fix>
</trkpt>
<trkpt lat="-27.2747526" lon="151.2895892">
  <ele>442.67</ele>
  <time>2026-09-01T19:59:15Z</time>
  <course>167.4</course>
  <speed>25.75</speed>
  <fix>3d</fix>
</trkpt>
<trkpt lat="-27.2748399" lon="151.2896113">
  <ele>442.72</ele>
  <time>2026-09-01T19:59:15Z</time>
  <course>167.47</course>
  <speed>25.70517846660474</speed>
  <fix>3d</fix>
</trkpt>
<trkpt lat="-27.2747977" lon="151.2896005">
  <ele>442.72</ele>
  <time>2026-09-01T19:59:15Z</time>
  <course>167.43</course>
  <speed>25.73</speed>
  <fix>3d</fix>
</trkpt>
<trkpt lat="-27.2748623" lon="151.2896169">
  <ele>442.75</ele>
  <time>2026-09-01T19:59:15Z</time>
  <course>167.45</course>
  <speed>25.70517846660474</speed>
  <fix>3d</fix>
</trkpt>
<trkpt lat="-27.2747977" lon="151.2896005">
  <ele>442.72</ele>
  <time>2026-09-01T19:59:15Z</time>
  <course>167.43</course>
  <speed>25.73</speed>
  <fix>3d</fix>
</trkpt>
<trkpt lat="-27.2748848" lon="151.2896225">
  <ele>442.78</ele>
  <time>2026-09-01T19:59:15Z</time>
  <course>167.46</course>
  <speed>25.69324424824549</speed>
  <fix>3d</fix>
</trkpt>
<trkpt lat="-27.2748428" lon="151.2896118">
  <ele>442.78</ele>
  <time>2026-09-01T19:59:15Z</time>
  <course>167.46</course>
  <speed>25.72</speed>
  <fix>3d</fix>
</trkpt>
<trkpt lat="-27.2749072" lon="151.2896281">
  <ele>442.8</ele>
  <time>2026-09-01T19:59:15Z</time>
  <course>167.47</course>
  <speed>25.68348301924799</speed>
  <fix>3d</fix>
</trkpt>
<trkpt lat="-27.2748428" lon="151.2896118">
  <ele>442.78</ele>
  <time>2026-09-01T19:59:15Z</time>
  <course>167.46</course>
  <speed>25.72</speed>
  <fix>3d</fix>
</trkpt>
<trkpt lat="-27.2749297" lon="151.2896337">
  <ele>442.82</ele>
  <time>2026-09-01T19:59:15Z</time>
  <course>167.53</course>
  <speed>25.6813122717668</speed>
  <fix>3d</fix>
</trkpt>
<trkpt lat="-27.2748879" lon="151.2896231">
  <ele>442.83</ele>
  <time>2026-09-01T19:59:15Z</time>
  <course>167.48</course>
  <speed>25.7</speed>
  <fix>3d</fix>
</trkpt>
<trkpt lat="-27.2749522" lon="151.2896393">
  <ele>442.84</ele>
  <time>2026-09-01T19:59:15Z</time>
  <course>167.54</course>
  <speed>25.669382540294965</speed>
  <fix>3d</fix>
</trkpt>
<trkpt lat="-27.2748879" lon="151.2896231">
  <ele>442.83</ele>
  <time>2026-09-01T19:59:15Z</time>
  <course>167.48</course>
  <speed>25.7</speed>
  <fix>3d</fix>
</trkpt>
<trkpt lat="-27.2749741" lon="151.2896447">
  <ele>442.86</ele>
  <time>2026-09-01T19:59:15Z</time>
  <course>167.5</course>
  <speed>25.667218392338505</speed>
  <fix>3d</fix>
</trkpt>
<trkpt lat="-27.274933" lon="151.2896344">
  <ele>442.88</ele>
  <time>2026-09-01T19:59:15Z</time>
  <course>167.5</course>
  <speed>25.69</speed>
  <fix>3d</fix>
</trkpt>
<trkpt lat="-27.2749963" lon="151.2896503">
  <ele>442.88</ele>
  <time>2026-09-01T19:59:15Z</time>
  <course>167.53</course>
  <speed>25.657455056961517</speed>
  <fix>3d</fix>
</trkpt>
<trkpt lat="-27.274978" lon="151.2896455">
  <ele>442.91</ele>
  <time>2026-09-01T19:59:15Z</time>
  <course>167.52</course>
  <speed>25.68</speed>
  <fix>3d</fix>
</trkpt>
<trkpt lat="-27.275019" lon="151.2896559">
  <ele>442.9</ele>
  <time>2026-09-01T19:59:15Z</time>
  <course>167.55</course>
  <speed>25.655293800695404</speed>
  <fix>3d</fix>
</trkpt>
<trkpt lat="-27.274978" lon="151.2896455">
  <ele>442.91</ele>
  <time>2026-09-01T19:59:15Z</time>
  <course>167.52</course>
  <speed>25.68</speed>
  <fix>3d</fix>
</trkpt>
<trkpt lat="-27.2750416" lon="151.2896615">
  <ele>442.91</ele>
  <time>2026-09-01T19:59:15Z</time>
  <course>167.55</course>
  <speed>25.662901238948024</speed>
  <fix>3d</fix>
</trkpt>
<trkpt lat="-27.2750231" lon="151.2896568">
  <ele>442.95</ele>
  <time>2026-09-01T19:59:15Z</time>
  <course>167.55</course>
  <speed>25.67</speed>
  <fix>3d</fix>
</trkpt>
<trkpt lat="-27.2750643" lon="151.2896671">
  <ele>442.93</ele>
  <time>2026-09-01T19:59:15Z</time>
  <course>167.59</course>
  <speed>25.672666398331124</speed>
  <fix>3d</fix>
</trkpt>
<trkpt lat="-27.2750231" lon="151.2896568">
  <ele>442.95</ele>
  <time>2026-09-01T19:59:15Z</time>
  <course>167.55</course>
  <speed>25.67</speed>
  <fix>3d</fix>
</trkpt>
<trkpt lat="-27.2750871" lon="151.2896728">
  <ele>442.95</ele>
  <time>2026-09-01T19:59:15Z</time>
  <course>167.6</course>
  <speed>25.672666398331124</speed>
  <fix>3d</fix>
</trkpt>
<trkpt lat="-27.2750231" lon="151.2896568">
  <ele>442.95</ele>
  <time>2026-09-01T19:59:15Z</time>
  <course>167.55</course>
  <speed>25.67</speed>
  <fix>3d</fix>
</trkpt>
<trkpt lat="-27.2751096" lon="151.2896783">
  <ele>442.97</ele>
  <time>2026-09-01T19:59:15Z</time>
  <course>167.55</course>
  <speed>25.660748235388613</speed>
  <fix>3d</fix>
</trkpt>
<trkpt lat="-27.2750682" lon="151.289668">
  <ele>442.99</ele>
  <time>2026-09-01T19:59:15Z</time>
  <course>167.58</course>
  <speed>25.66</speed>
  <fix>3d</fix>
</trkpt>
<trkpt lat="-27.2751321" lon="151.2896839">
  <ele>442.99</ele>
  <time>2026-09-01T19:59:15Z</time>
  <course>167.56</course>
  <speed>25.660748235388613</speed>
  <fix>3d</fix>
</trkpt>
<trkpt lat="-27.2750682" lon="151.289668">
  <ele>442.99</ele>
  <time>2026-09-01T19:59:15Z</time>
  <course>167.58</course>
  <speed>25.66</speed>
  <fix>3d</fix>
</trkpt>
<trkpt lat="-27.2751552" lon="151.2896896">
  <ele>443.01</ele>
  <time>2026-09-01T19:59:15Z</time>
  <course>167.6</course>
  <speed>25.64883233209652</speed>
  <fix>3d</fix>
</trkpt>
<trkpt lat="-27.2751133" lon="151.2896791">
  <ele>443.02</ele>
  <time>2026-09-01T19:59:15Z</time>
  <course>167.6</course>
  <speed>25.65</speed>
  <fix>3d</fix>
</trkpt>
<trkpt lat="-27.2751774" lon="151.2896951">
  <ele>443.02</ele>
  <time>2026-09-01T19:59:15Z</time>
  <course>167.62</course>
  <speed>25.63906589562108</speed>
  <fix>3d</fix>
</trkpt>
<trkpt lat="-27.2751133" lon="151.2896791">
  <ele>443.02</ele>
  <time>2026-09-01T19:59:15Z</time>
  <course>167.6</course>
  <speed>25.65</speed>
  <fix>3d</fix>
</trkpt>
<trkpt lat="-27.2751998" lon="151.2897006">
  <ele>443.04</ele>
  <time>2026-09-01T19:59:15Z</time>
  <course>167.65</course>
  <speed>25.636918691605665</speed>
  <fix>3d</fix>
</trkpt>
<trkpt lat="-27.2751583" lon="151.2896902">
  <ele>443.06</ele>
  <time>2026-09-01T19:59:15Z</time>
  <course>167.61</course>
  <speed>25.65</speed>
  <fix>3d</fix>
</trkpt>
<trkpt lat="-27.2752222" lon="151.2897061">
  <ele>443.05</ele>
  <time>2026-09-01T19:59:15Z</time>
  <course>167.65</course>
  <speed>25.62500731707213</speed>
  <fix>3d</fix>
</trkpt>
<trkpt lat="-27.2751583" lon="151.2896902">
  <ele>443.06</ele>
  <time>2026-09-01T19:59:15Z</time>
  <course>167.61</course>
  <speed>25.65</speed>
  <fix>3d</fix>
</trkpt>
<trkpt lat="-27.2752447" lon="151.2897117">
  <ele>443.06</ele>
  <time>2026-09-01T19:59:15Z</time>
  <course>167.65</course>
  <speed>25.62500731707213</speed>
  <fix>3d</fix>
</trkpt>
<trkpt lat="-27.2752033" lon="151.2897013">
  <ele>443.09</ele>
  <time>2026-09-01T19:59:15Z</time>
  <course>167.63</course>
  <speed>25.64</speed>
  <fix>3d</fix>
</trkpt>
<trkpt lat="-27.2752673" lon="151.2897172">
  <ele>443.07</ele>
  <time>2026-09-01T19:59:15Z</time>
  <course>167.64</course>
  <speed>25.62500731707213</speed>
  <fix>3d</fix>
</trkpt>
<trkpt lat="-27.2752033" lon="151.2897013">
  <ele>443.09</ele>
  <time>2026-09-01T19:59:15Z</time>
  <course>167.63</course>
  <speed>25.64</speed>
  <fix>3d</fix>
</trkpt>
<trkpt lat="-27.2752898" lon="151.2897228">
  <ele>443.09</ele>
  <time>2026-09-01T19:59:15Z</time>
  <course>167.65</course>
  <speed>25.62500731707213</speed>
  <fix>3d</fix>
</trkpt>
<trkpt lat="-27.2752483" lon="151.2897124">
  <ele>443.11</ele>
  <time>2026-09-01T19:59:15Z</time>
  <course>167.64</course>
  <speed>25.64</speed>
  <fix>3d</fix>
</trkpt>
<trkpt lat="-27.2753123" lon="151.2897283">
  <ele>443.1</ele>
  <time>2026-09-01T19:59:15Z</time>
  <course>167.67</course>
  <speed>25.615239604579145</speed>
  <fix>3d</fix>
</trkpt>
<trkpt lat="-27.2752483" lon="151.2897124">
  <ele>443.11</ele>
  <time>2026-09-01T19:59:15Z</time>
  <course>167.64</course>
  <speed>25.64</speed>
  <fix>3d</fix>
</trkpt>
<trkpt lat="-27.2753347" lon="151.2897338">
  <ele>443.11</ele>
  <time>2026-09-01T19:59:15Z</time>
  <course>167.66</course>
  <speed>25.613098211657253</speed>
  <fix>3d</fix>
</trkpt>
<trkpt lat="-27.2752932" lon="151.2897235">
  <ele>443.14</ele>
  <time>2026-09-01T19:59:15Z</time>
  <course>167.64</course>
  <speed>25.63</speed>
  <fix>3d</fix>
</trkpt>
<trkpt lat="-27.2753571" lon="151.2897393">
  <ele>443.12</ele>
  <time>2026-09-01T19:59:15Z</time>
  <course>167.65</course>
  <speed>25.60332986156293</speed>
  <fix>3d</fix>
</trkpt>
<trkpt lat="-27.2752932" lon="151.2897235">
  <ele>443.14</ele>
  <time>2026-09-01T19:59:15Z</time>
  <course>167.64</course>
  <speed>25.63</speed>
  <fix>3d</fix>
</trkpt>
<trkpt lat="-27.2753794" lon="151.2897448">
  <ele>443.12</ele>
  <time>2026-09-01T19:59:15Z</time>
  <course>167.62</course>
  <speed>25.593561690393937</speed>
  <fix>3d</fix>
</trkpt>
<trkpt lat="-27.2753382" lon="151.2897346">
  <ele>443.16</ele>
  <time>2026-09-01T19:59:15Z</time>
  <course>167.65</course>
  <speed>25.62</speed>
  <fix>3d</fix>
</trkpt>
<trkpt lat="-27.2754018" lon="151.2897503">
  <ele>443.13</ele>
  <time>2026-09-01T19:59:15Z</time>
  <course>167.58</course>
  <speed>25.583793698355215</speed>
  <fix>3d</fix>
</trkpt>
<trkpt lat="-27.2753382" lon="151.2897346">
  <ele>443.16</ele>
  <time>2026-09-01T19:59:15Z</time>
  <course>167.65</course>
  <speed>25.62</speed>
  <fix>3d</fix>
</trkpt>
<trkpt lat="-27.2754241" lon="151.2897558">
  <ele>443.14</ele>
  <time>2026-09-01T19:59:15Z</time>
  <course>167.61</course>
  <speed>25.581653582206137</speed>
  <fix>3d</fix>
</trkpt>
<trkpt lat="-27.2753831" lon="151.2897456">
  <ele>443.19</ele>
  <time>2026-09-01T19:59:15Z</time>
  <course>167.65</course>
  <speed>25.61</speed>
  <fix>3d</fix>
</trkpt>
<trkpt lat="-27.2754465" lon="151.2897613">
  <ele>443.14</ele>
  <time>2026-09-01T19:59:15Z</time>
  <course>167.62</course>
  <speed>25.540440481714487</speed>
  <fix>3d</fix>
</trkpt>
<trkpt lat="-27.2753831" lon="151.2897456">
  <ele>443.19</ele>
  <time>2026-09-01T19:59:15Z</time>
  <course>167.65</course>
  <speed>25.61</speed>
  <fix>3d</fix>
</trkpt>
<trkpt lat="-27.2754688" lon="151.2897668">
  <ele>443.14</ele>
  <time>2026-09-01T19:59:15Z</time>
  <course>167.6</course>
  <speed>25.460153181000305</speed>
  <fix>3d</fix>
</trkpt>
<trkpt lat="-27.275428" lon="151.2897567">
  <ele>443.2</ele>
  <time>2026-09-01T19:59:15Z</time>
  <course>167.66</course>
  <speed>25.59</speed>
  <fix>3d</fix>
</trkpt>
<trkpt lat="-27.275491" lon="151.2897723">
  <ele>443.15</ele>
  <time>2026-09-01T19:59:15Z</time>
  <course>167.46</course>
  <speed>25.323416041284794</speed>
  <fix>3d</fix>
</trkpt>
<trkpt lat="-27.275428" lon="151.2897567">
  <ele>443.2</ele>
  <time>2026-09-01T19:59:15Z</time>
  <course>167.66</course>
  <speed>25.59</speed>
  <fix>3d</fix>
</trkpt>
<trkpt lat="-27.275513" lon="151.2897778">
  <ele>443.18</ele>
  <time>2026-09-01T19:59:15Z</time>
  <course>167.04</course>
  <speed>25.1003784832022</speed>
  <fix>3d</fix>
</trkpt>
<trkpt lat="-27.2754728" lon="151.2897678">
  <ele>443.21</ele>
  <time>2026-09-01T19:59:15Z</time>
  <course>167.63</course>
  <speed>25.47</speed>
  <fix>3d</fix>
</trkpt>
<trkpt lat="-27.2755347" lon="151.2897836">
  <ele>443.26</ele>
  <time>2026-09-01T19:59:15Z</time>
  <course>166.3</course>
  <speed>24.78277627708405</speed>
  <fix>3d</fix>
</trkpt>
<trkpt lat="-27.2754728" lon="151.2897678">
  <ele>443.21</ele>
  <time>2026-09-01T19:59:15Z</time>
  <course>167.63</course>
  <speed>25.47</speed>
  <fix>3d</fix>
</trkpt>
<trkpt lat="-27.2755562" lon="151.2897897">
  <ele>443.39</ele>
  <time>2026-09-01T19:59:15Z</time>
  <course>165.23</course>
  <speed>24.3936918075145</speed>
  <fix>3d</fix>
</trkpt>
<trkpt lat="-27.2755173" lon="151.2897789">
  <ele>443.27</ele>
  <time>2026-09-01T19:59:15Z</time>
  <course>167.01</course>
  <speed>25.1</speed>
  <fix>3d</fix>
</trkpt>
<trkpt lat="-27.2755772" lon="151.2897961">
  <ele>443.56</ele>
  <time>2026-09-01T19:59:15Z</time>
  <course>163.87</course>
  <speed>23.94469669885171</speed>
  <fix>3d</fix>
</trkpt>
<trkpt lat="-27.2755173" lon="151.2897789">
  <ele>443.27</ele>
  <time>2026-09-01T19:59:15Z</time>
  <course>167.01</course>
  <speed>25.1</speed>
  <fix>3d</fix>
</trkpt>
<trkpt lat="-27.2755971" lon="151.2898028">
  <ele>443.78</ele>
  <time>2026-09-01T19:59:15Z</time>
  <course>162.42</course>
  <speed>23.478443304444184</speed>
  <fix>3d</fix>
</trkpt>
<trkpt lat="-27.2755606" lon="151.2897908">
  <ele>443.47</ele>
  <time>2026-09-01T19:59:15Z</time>
  <course>165.3</course>
  <speed>24.41</speed>
  <fix>3d</fix>
</trkpt>
<trkpt lat="-27.2756176" lon="151.2898103">
  <ele>444.05</ele>
  <time>2026-09-01T19:59:15Z</time>
  <course>160.93</course>
  <speed>22.971007814199183</speed>
  <fix>3d</fix>
</trkpt>
<trkpt lat="-27.2755606" lon="151.2897908">
  <ele>443.47</ele>
  <time>2026-09-01T19:59:15Z</time>
  <course>165.3</course>
  <speed>24.41</speed>
  <fix>3d</fix>
</trkpt>
<trkpt lat="-27.2756368" lon="151.2898177">
  <ele>444.34</ele>
  <time>2026-09-01T19:59:15Z</time>
  <course>159.64</course>
  <speed>22.479866547646584</speed>
  <fix>3d</fix>
</trkpt>
<trkpt lat="-27.2756021" lon="151.2898041">
  <ele>443.87</ele>
  <time>2026-09-01T19:59:15Z</time>
  <course>162.82</course>
  <speed>23.5</speed>
  <fix>3d</fix>
</trkpt>
<trkpt lat="-27.2756555" lon="151.2898256">
  <ele>444.66</ele>
  <time>2026-09-01T19:59:15Z</time>
  <course>158.52</course>
  <speed>21.983414202530053</speed>
  <fix>3d</fix>
</trkpt>
<trkpt lat="-27.2756021" lon="151.2898041">
  <ele>443.87</ele>
  <time>2026-09-01T19:59:15Z</time>
  <course>162.82</course>
  <speed>23.5</speed>
  <fix>3d</fix>
</trkpt>
<trkpt lat="-27.2756737" lon="151.2898338">
  <ele>445.01</ele>
  <time>2026-09-01T19:59:15Z</time>
  <course>157.69</course>
  <speed>21.499325570817334</speed>
  <fix>3d</fix>
</trkpt>
<trkpt lat="-27.2756412" lon="151.2898189">
  <ele>444.41</ele>
  <time>2026-09-01T19:59:15Z</time>
  <course>160.14</course>
  <speed>22.52</speed>
  <fix>3d</fix>
</trkpt>
<trkpt lat="-27.2756914" lon="151.2898421">
  <ele>445.37</ele>
  <time>2026-09-01T19:59:15Z</time>
  <course>157.13</course>
  <speed>21.0472064654671</speed>
  <fix>3d</fix>
</trkpt>
<trkpt lat="-27.2756412" lon="151.2898189">
  <ele>444.41</ele>
  <time>2026-09-01T19:59:15Z</time>
  <course>160.14</course>
  <speed>22.52</speed>
  <fix>3d</fix>
</trkpt>
<trkpt lat="-27.2757088" lon="151.2898505">
  <ele>445.73</ele>
  <time>2026-09-01T19:59:15Z</time>
  <course>156.74</course>
  <speed>20.622730178131118</speed>
  <fix>3d</fix>
</trkpt>
<trkpt lat="-27.2756782" lon="151.2898349">
  <ele>445.08</ele>
  <time>2026-09-01T19:59:15Z</time>
  <course>157.74</course>
  <speed>21.55</speed>
  <fix>3d</fix>
</trkpt>
<trkpt lat="-27.2757256" lon="151.289859">
  <ele>446.08</ele>
  <time>2026-09-01T19:59:15Z</time>
  <course>156.44</course>
  <speed>20.24412260385715</speed>
  <fix>3d</fix>
</trkpt>
<trkpt lat="-27.2756782" lon="151.2898349">
  <ele>445.08</ele>
  <time>2026-09-01T19:59:15Z</time>
  <course>157.74</course>
  <speed>21.55</speed>
  <fix>3d</fix>
</trkpt>
<trkpt lat="-27.275742" lon="151.2898674">
  <ele>446.39</ele>
  <time>2026-09-01T19:59:15Z</time>
  <course>156.18</course>
  <speed>19.899788943604403</speed>
  <fix>3d</fix>
</trkpt>
<trkpt lat="-27.275713" lon="151.2898516">
  <ele>445.79</ele>
  <time>2026-09-01T19:59:15Z</time>
  <course>156.04</course>
  <speed>20.67</speed>
  <fix>3d</fix>
</trkpt>
<trkpt lat="-27.2757582" lon="151.2898758">
  <ele>446.68</ele>
  <time>2026-09-01T19:59:15Z</time>
  <course>155.95</course>
  <speed>19.579749743038086</speed>
  <fix>3d</fix>
</trkpt>
<trkpt lat="-27.275713" lon="151.2898516">
  <ele>445.79</ele>
  <time>2026-09-01T19:59:15Z</time>
  <course>156.04</course>
  <speed>20.67</speed>
  <fix>3d</fix>
</trkpt>
<trkpt lat="-27.2757741" lon="151.2898842">
  <ele>446.94</ele>
  <time>2026-09-01T19:59:15Z</time>
  <course>155.73</course>
  <speed>19.2829510189701</speed>
  <fix>3d</fix>
</trkpt>
<trkpt lat="-27.2757462" lon="151.2898687">
  <ele>446.45</ele>
  <time>2026-09-01T19:59:15Z</time>
  <course>155.04</course>
  <speed>19.92</speed>
  <fix>3d</fix>
</trkpt>
<trkpt lat="-27.2757897" lon="151.2898925">
  <ele>447.15</ele>
  <time>2026-09-01T19:59:15Z</time>
  <course>155.52</course>
  <speed>18.995815328645413</speed>
  <fix>3d</fix>
</trkpt>
<trkpt lat="-27.2757462" lon="151.2898687">
  <ele>446.45</ele>
  <time>2026-09-01T19:59:15Z</time>
  <course>155.04</course>
  <speed>19.92</speed>
  <fix>3d</fix>
</trkpt>
<trkpt lat="-27.275805" lon="151.2899007">
  <ele>447.34</ele>
  <time>2026-09-01T19:59:15Z</time>
  <course>155.32</course>
  <speed>18.735829311775873</speed>
  <fix>3d</fix>
</trkpt>
<trkpt lat="-27.275778" lon="151.2898856">
  <ele>446.98</ele>
  <time>2026-09-01T19:59:15Z</time>
  <course>154.47</course>
  <speed>19.28</speed>
  <fix>3d</fix>
</trkpt>
<trkpt lat="-27.2758202" lon="151.2899089">
  <ele>447.48</ele>
  <time>2026-09-01T19:59:15Z</time>
  <course>155.13</course>
  <speed>18.48491547181106</speed>
  <fix>3d</fix>
</trkpt>
<trkpt lat="-27.275778" lon="151.2898856">
  <ele>446.98</ele>
  <time>2026-09-01T19:59:15Z</time>
  <course>154.47</course>
  <speed>19.28</speed>
  <fix>3d</fix>
</trkpt>
<trkpt lat="-27.2758351" lon="151.289917">
  <ele>447.6</ele>
  <time>2026-09-01T19:59:15Z</time>
  <course>154.97</course>
  <speed>18.256683707617878</speed>
  <fix>3d</fix>
</trkpt>
<trkpt lat="-27.2758087" lon="151.2899022">
  <ele>447.38</ele>
  <time>2026-09-01T19:59:15Z</time>
  <course>154.15</course>
  <speed>18.73</speed>
  <fix>3d</fix>
</trkpt>
<trkpt lat="-27.2758498" lon="151.289925">
  <ele>447.68</ele>
  <time>2026-09-01T19:59:15Z</time>
  <course>154.84</course>
  <speed>18.033094576361542</speed>
  <fix>3d</fix>
</trkpt>
<trkpt lat="-27.2758087" lon="151.2899022">
  <ele>447.38</ele>
  <time>2026-09-01T19:59:15Z</time>
  <course>154.15</course>
  <speed>18.73</speed>
  <fix>3d</fix>
</trkpt>
<trkpt lat="-27.2758644" lon="151.2899329">
  <ele>447.74</ele>
  <time>2026-09-01T19:59:15Z</time>
  <course>154.75</course>
  <speed>17.82750964100146</speed>
  <fix>3d</fix>
</trkpt>
<trkpt lat="-27.2758386" lon="151.2899186">
  <ele>447.64</ele>
  <time>2026-09-01T19:59:15Z</time>
  <course>154.01</course>
  <speed>18.23</speed>
  <fix>3d</fix>
</trkpt>
<trkpt lat="-27.2758788" lon="151.2899407">
  <ele>447.78</ele>
  <time>2026-09-01T19:59:15Z</time>
  <course>154.72</course>
  <speed>17.626596381604703</speed>
  <fix>3d</fix>
</trkpt>
<trkpt lat="-27.2758386" lon="151.2899186">
  <ele>447.64</ele>
  <time>2026-09-01T19:59:15Z</time>
  <course>154.01</course>
  <speed>18.23</speed>
  <fix>3d</fix>
</trkpt>
<trkpt lat="-27.275893" lon="151.2899484">
  <ele>447.79</ele>
  <time>2026-09-01T19:59:15Z</time>
  <course>154.74</course>
  <speed>17.439432330210753</speed>
  <fix>3d</fix>
</trkpt>
<trkpt lat="-27.2758677" lon="151.2899345">
  <ele>447.78</ele>
  <time>2026-09-01T19:59:15Z</time>
  <course>154.04</course>
  <speed>17.79</speed>
  <fix>3d</fix>
</trkpt>
<trkpt lat="-27.2759072" lon="151.2899559">
  <ele>447.79</ele>
  <time>2026-09-01T19:59:15Z</time>
  <course>154.8</course>
  <speed>17.26140782207523</speed>
  <fix>3d</fix>
</trkpt>
<trkpt lat="-27.2758677" lon="151.2899345">
  <ele>447.78</ele>
  <time>2026-09-01T19:59:15Z</time>
  <course>154.04</course>
  <speed>17.79</speed>
  <fix>3d</fix>
</trkpt>
<trkpt lat="-27.2759212" lon="151.2899634">
  <ele>447.78</ele>
  <time>2026-09-01T19:59:15Z</time>
  <course>154.93</course>
  <speed>17.088300090997933</speed>
  <fix>3d</fix>
</trkpt>
<trkpt lat="-27.2758962" lon="151.2899501">
  <ele>447.82</ele>
  <time>2026-09-01T19:59:15Z</time>
  <course>154.23</course>
  <speed>17.39</speed>
  <fix>3d</fix>
</trkpt>
<trkpt lat="-27.275935" lon="151.2899707">
  <ele>447.76</ele>
  <time>2026-09-01T19:59:15Z</time>
  <course>155.12</course>
  <speed>16.929326625710782</speed>
  <fix>3d</fix>
</trkpt>
<trkpt lat="-27.2758962" lon="151.2899501">
  <ele>447.82</ele>
  <time>2026-09-01T19:59:15Z</time>
  <course>154.23</course>
  <speed>17.39</speed>
  <fix>3d</fix>
</trkpt>
<trkpt lat="-27.2759488" lon="151.2899779">
  <ele>447.73</ele>
  <time>2026-09-01T19:59:15Z</time>
  <course>155.35</course>
  <speed>16.766564943362727</speed>
  <fix>3d</fix>
</trkpt>
<trkpt lat="-27.2759241" lon="151.2899651">
  <ele>447.81</ele>
  <time>2026-09-01T19:59:15Z</time>
  <course>154.61</course>
  <speed>17.03</speed>
  <fix>3d</fix>
</trkpt>
<trkpt lat="-27.2759625" lon="151.2899849">
  <ele>447.7</ele>
  <time>2026-09-01T19:59:15Z</time>
  <course>155.62</course>
  <speed>16.60928956939459</speed>
  <fix>3d</fix>
</trkpt>
<trkpt lat="-27.2759241" lon="151.2899651">
  <ele>447.81</ele>
  <time>2026-09-01T19:59:15Z</time>
  <course>154.61</course>
  <speed>17.03</speed>
  <fix>3d</fix>
</trkpt>
<trkpt lat="-27.2759761" lon="151.2899918">
  <ele>447.66</ele>
  <time>2026-09-01T19:59:15Z</time>
  <course>155.95</course>
  <speed>16.452674554612692</speed>
  <fix>3d</fix>
</trkpt>
<trkpt lat="-27.2759515" lon="151.2899795">
  <ele>447.77</ele>
  <time>2026-09-01T19:59:15Z</time>
  <course>155.17</course>
  <speed>16.69</speed>
  <fix>3d</fix>
</trkpt>
<trkpt lat="-27.2759896" lon="151.2899985">
  <ele>447.63</ele>
  <time>2026-09-01T19:59:15Z</time>
  <course>156.32</course>
  <speed>16.30191706517979</speed>
  <fix>3d</fix>
</trkpt>
<trkpt lat="-27.2759515" lon="151.2899795">
  <ele>447.77</ele>
  <time>2026-09-01T19:59:15Z</time>
  <course>155.17</course>
  <speed>16.69</speed>
  <fix>3d</fix>
</trkpt>
<trkpt lat="-27.276003" lon="151.290005">
  <ele>447.59</ele>
  <time>2026-09-01T19:59:15Z</time>
  <course>156.71</course>
  <speed>16.148126826353575</speed>
  <fix>3d</fix>
</trkpt>
<trkpt lat="-27.2759785" lon="151.2899934">
  <ele>447.7</ele>
  <time>2026-09-01T19:59:15Z</time>
  <course>155.9</course>
  <speed>16.37</speed>
  <fix>3d</fix>
</trkpt>
<trkpt lat="-27.2760164" lon="151.2900114">
  <ele>447.55</ele>
  <time>2026-09-01T19:59:15Z</time>
  <course>157.14</course>
  <speed>16.004624331736125</speed>
  <fix>3d</fix>
</trkpt>
<trkpt lat="-27.2759785" lon="151.2899934">
  <ele>447.7</ele>
  <time>2026-09-01T19:59:15Z</time>
  <course>155.9</course>
  <speed>16.37</speed>
  <fix>3d</fix>
</trkpt>
<trkpt lat="-27.2760296" lon="151.2900176">
  <ele>447.5</ele>
  <time>2026-09-01T19:59:15Z</time>
  <course>157.61</course>
  <speed>15.858515062892868</speed>
  <fix>3d</fix>
</trkpt>
<trkpt lat="-27.2760052" lon="151.2900065">
  <ele>447.63</ele>
  <time>2026-09-01T19:59:15Z</time>
  <course>156.78</course>
  <speed>16.06</speed>
  <fix>3d</fix>
</trkpt>
<trkpt lat="-27.2760428" lon="151.2900235">
  <ele>447.46</ele>
  <time>2026-09-01T19:59:15Z</time>
  <course>158.12</course>
  <speed>15.713751938986436</speed>
  <fix>3d</fix>
</trkpt>
<trkpt lat="-27.2760052" lon="151.2900065">
  <ele>447.63</ele>
  <time>2026-09-01T19:59:15Z</time>
  <course>156.78</course>
  <speed>16.06</speed>
  <fix>3d</fix>
</trkpt>
<trkpt lat="-27.2760558" lon="151.2900293">
  <ele>447.42</ele>
  <time>2026-09-01T19:59:15Z</time>
  <course>158.66</course>
  <speed>15.576138802668652</speed>
  <fix>3d</fix>
</trkpt>
<trkpt lat="-27.2760316" lon="151.2900189">
  <ele>447.56</ele>
  <time>2026-09-01T19:59:15Z</time>
  <course>157.78</course>
  <speed>15.76</speed>
  <fix>3d</fix>
</trkpt>
<trkpt lat="-27.2760688" lon="151.2900348">
  <ele>447.38</ele>
  <time>2026-09-01T19:59:15Z</time>
  <course>159.23</course>
  <speed>15.430829530521034</speed>
  <fix>3d</fix>
</trkpt>
<trkpt lat="-27.2760316" lon="151.2900189">
  <ele>447.56</ele>
  <time>2026-09-01T19:59:15Z</time>
  <course>157.78</course>
  <speed>15.76</speed>
  <fix>3d</fix>
</trkpt>
<trkpt lat="-27.2760817" lon="151.2900402">
  <ele>447.35</ele>
  <time>2026-09-01T19:59:15Z</time>
  <course>159.83</course>
  <speed>15.29658785481259</speed>
  <fix>3d</fix>
</trkpt>
<trkpt lat="-27.2760576" lon="151.2900306">
  <ele>447.47</ele>
  <time>2026-09-01T19:59:15Z</time>
  <course>158.9</course>
  <speed>15.47</speed>
  <fix>3d</fix>
</trkpt>
<trkpt lat="-27.2760946" lon="151.2900454">
  <ele>447.31</ele>
  <time>2026-09-01T19:59:15Z</time>
  <course>160.45</course>
  <speed>15.154669247462975</speed>
  <fix>3d</fix>
</trkpt>
<trkpt lat="-27.2760576" lon="151.2900306">
  <ele>447.47</ele>
  <time>2026-09-01T19:59:15Z</time>
  <course>158.9</course>
  <speed>15.47</speed>
  <fix>3d</fix>
</trkpt>
<trkpt lat="-27.2761074" lon="151.2900503">
  <ele>447.28</ele>
  <time>2026-09-01T19:59:15Z</time>
  <course>161.08</course>
  <speed>15.011332385900994</speed>
  <fix>3d</fix>
</trkpt>
<trkpt lat="-27.2760834" lon="151.2900415">
  <ele>447.4</ele>
  <time>2026-09-01T19:59:15Z</time>
  <course>160.13</course>
  <speed>15.18</speed>
  <fix>3d</fix>
</trkpt>
<trkpt lat="-27.2761201" lon="151.290055">
  <ele>447.25</ele>
  <time>2026-09-01T19:59:15Z</time>
  <course>161.73</course>
  <speed>14.870010087420924</speed>
  <fix>3d</fix>
</trkpt>
<trkpt lat="-27.2760834" lon="151.2900415">
  <ele>447.4</ele>
  <time>2026-09-01T19:59:15Z</time>
  <course>160.13</course>
  <speed>15.18</speed>
  <fix>3d</fix>
</trkpt>
<trkpt lat="-27.2761327" lon="151.2900596">
  <ele>447.22</ele>
  <time>2026-09-01T19:59:15Z</time>
  <course>162.39</course>
  <speed>14.733702861127613</speed>
  <fix>3d</fix>
</trkpt>
<trkpt lat="-27.2761089" lon="151.2900515">
  <ele>447.34</ele>
  <time>2026-09-01T19:59:15Z</time>
  <course>161.43</course>
  <speed>14.9</speed>
  <fix>3d</fix>
</trkpt>
<trkpt lat="-27.2761452" lon="151.2900639">
  <ele>447.19</ele>
  <time>2026-09-01T19:59:15Z</time>
  <course>163.06</course>
  <speed>14.586877664531228</speed>
  <fix>3d</fix>
</trkpt>
<trkpt lat="-27.2761089" lon="151.2900515">
  <ele>447.34</ele>
  <time>2026-09-01T19:59:15Z</time>
  <course>161.43</course>
  <speed>14.9</speed>
  <fix>3d</fix>
</trkpt>
<trkpt lat="-27.2761577" lon="151.290068">
  <ele>447.17</ele>
  <time>2026-09-01T19:59:15Z</time>
  <course>163.74</course>
  <speed>14.444891830678413</speed>
  <fix>3d</fix>
</trkpt>
<trkpt lat="-27.2761341" lon="151.2900606">
  <ele>447.29</ele>
  <time>2026-09-01T19:59:15Z</time>
  <course>162.78</course>
  <speed>14.62</speed>
  <fix>3d</fix>
</trkpt>
<trkpt lat="-27.27617" lon="151.2900719">
  <ele>447.15</ele>
  <time>2026-09-01T19:59:15Z</time>
  <course>164.42</course>
  <speed>14.30225506694661</speed>
  <fix>3d</fix>
</trkpt>
<trkpt lat="-27.2761341" lon="151.2900606">
  <ele>447.29</ele>
  <time>2026-09-01T19:59:15Z</time>
  <course>162.78</course>
  <speed>14.62</speed>
  <fix>3d</fix>
</trkpt>
<trkpt lat="-27.2761823" lon="151.2900756">
  <ele>447.13</ele>
  <time>2026-09-01T19:59:15Z</time>
  <course>165.11</course>
  <speed>14.164349614436944</speed>
  <fix>3d</fix>
</trkpt>
<trkpt lat="-27.2761591" lon="151.290069">
  <ele>447.25</ele>
  <time>2026-09-01T19:59:15Z</time>
  <course>164.18</course>
  <speed>14.33</speed>
  <fix>3d</fix>
</trkpt>
<trkpt lat="-27.2761945" lon="151.290079">
  <ele>447.12</ele>
  <time>2026-09-01T19:59:15Z</time>
  <course>165.81</course>
  <speed>14.018801660627059</speed>
  <fix>3d</fix>
</trkpt>
<trkpt lat="-27.2761591" lon="151.290069">
  <ele>447.25</ele>
  <time>2026-09-01T19:59:15Z</time>
  <course>164.18</course>
  <speed>14.33</speed>
  <fix>3d</fix>
</trkpt>
<trkpt lat="-27.2762066" lon="151.2900823">
  <ele>447.11</ele>
  <time>2026-09-01T19:59:15Z</time>
  <course>166.51</course>
  <speed>13.875330626691387</speed>
  <fix>3d</fix>
</trkpt>
<trkpt lat="-27.2761838" lon="151.2900765">
  <ele>447.21</ele>
  <time>2026-09-01T19:59:15Z</time>
  <course>165.59</course>
  <speed>14.05</speed>
  <fix>3d</fix>
</trkpt>
<trkpt lat="-27.2762187" lon="151.2900854">
  <ele>447.1</ele>
  <time>2026-09-01T19:59:15Z</time>
  <course>167.21</course>
  <speed>13.736131187492349</speed>
  <fix>3d</fix>
</trkpt>
<trkpt lat="-27.2761838" lon="151.2900765">
  <ele>447.21</ele>
  <time>2026-09-01T19:59:15Z</time>
  <course>165.59</course>
  <speed>14.05</speed>
  <fix>3d</fix>
</trkpt>
<trkpt lat="-27.2762306" lon="151.2900883">
  <ele>447.09</ele>
  <time>2026-09-01T19:59:15Z</time>
  <course>167.92</course>
  <speed>13.589102251436627</speed>
  <fix>3d</fix>
</trkpt>
<trkpt lat="-27.2762081" lon="151.2900831">
  <ele>447.19</ele>
  <time>2026-09-01T19:59:15Z</time>
  <course>167.02</course>
  <speed>13.77</speed>
  <fix>3d</fix>
</trkpt>
<trkpt lat="-27.2762425" lon="151.290091">
  <ele>447.08</ele>
  <time>2026-09-01T19:59:15Z</time>
  <course>168.62</course>
  <speed>13.444050728854009</speed>
  <fix>3d</fix>
</trkpt>
<trkpt lat="-27.2762081" lon="151.2900831">
  <ele>447.19</ele>
  <time>2026-09-01T19:59:15Z</time>
  <course>167.02</course>
  <speed>13.77</speed>
  <fix>3d</fix>
</trkpt>
<trkpt lat="-27.2762542" lon="151.2900935">
  <ele>447.07</ele>
  <time>2026-09-01T19:59:15Z</time>
  <course>169.33</course>
  <speed>13.302819250068762</speed>
  <fix>3d</fix>
</trkpt>
<trkpt lat="-27.276232" lon="151.290089">
  <ele>447.16</ele>
  <time>2026-09-01T19:59:15Z</time>
  <course>168.44</course>
  <speed>13.48</speed>
  <fix>3d</fix>
</trkpt>
<trkpt lat="-27.2762658" lon="151.2900958">
  <ele>447.06</ele>
  <time>2026-09-01T19:59:15Z</time>
  <course>170.03</course>
  <speed>13.16179319089918</speed>
  <fix>3d</fix>
</trkpt>
<trkpt lat="-27.276232" lon="151.290089">
  <ele>447.16</ele>
  <time>2026-09-01T19:59:15Z</time>
  <course>168.44</course>
  <speed>13.48</speed>
  <fix>3d</fix>
</trkpt>
<trkpt lat="-27.2762773" lon="151.2900979">
  <ele>447.06</ele>
  <time>2026-09-01T19:59:15Z</time>
  <course>170.73</course>
  <speed>13.016132298036926</speed>
  <fix>3d</fix>
</trkpt>
<trkpt lat="-27.2762556" lon="151.290094">
  <ele>447.16</ele>
  <time>2026-09-01T19:59:15Z</time>
  <course>169.86</course>
  <speed>13.2</speed>
  <fix>3d</fix>
</trkpt>
<trkpt lat="-27.2762887" lon="151.2900999">
  <ele>447.06</ele>
  <time>2026-09-01T19:59:15Z</time>
  <course>171.43</course>
  <speed>12.8721870713566</speed>
  <fix>3d</fix>
</trkpt>
<trkpt lat="-27.2762556" lon="151.290094">
  <ele>447.16</ele>
  <time>2026-09-01T19:59:15Z</time>
  <course>169.86</course>
  <speed>13.2</speed>
  <fix>3d</fix>
</trkpt>
<trkpt lat="-27.2763" lon="151.2901016">
  <ele>447.07</ele>
  <time>2026-09-01T19:59:15Z</time>
  <course>172.13</course>
  <speed>12.720102200847286</speed>
  <fix>3d</fix>
</trkpt>
<trkpt lat="-27.2762787" lon="151.2900983">
  <ele>447.16</ele>
  <time>2026-09-01T19:59:15Z</time>
  <course>171.26</course>
  <speed>12.92</speed>
  <fix>3d</fix>
</trkpt>
<trkpt lat="-27.2763112" lon="151.2901032">
  <ele>447.07</ele>
  <time>2026-09-01T19:59:15Z</time>
  <course>172.83</course>
  <speed>12.579749600051663</speed>
  <fix>3d</fix>
</trkpt>
<trkpt lat="-27.2762787" lon="151.2900983">
  <ele>447.16</ele>
  <time>2026-09-01T19:59:15Z</time>
  <course>171.26</course>
  <speed>12.92</speed>
  <fix>3d</fix>
</trkpt>
<trkpt lat="-27.2763224" lon="151.2901047">
  <ele>447.08</ele>
  <time>2026-09-01T19:59:15Z</time>
  <course>173.52</course>
  <speed>12.422483648610692</speed>
  <fix>3d</fix>
</trkpt>
<trkpt lat="-27.2763014" lon="151.290102">
  <ele>447.16</ele>
  <time>2026-09-01T19:59:15Z</time>
  <course>172.64</course>
  <speed>12.63</speed>
  <fix>3d</fix>
</trkpt>
<trkpt lat="-27.2763334" lon="151.290106">
  <ele>447.09</ele>
  <time>2026-09-01T19:59:15Z</time>
  <course>174.2</course>
  <speed>12.277805178451073</speed>
  <fix>3d</fix>
</trkpt>
<trkpt lat="-27.2763014" lon="151.290102">
  <ele>447.16</ele>
  <time>2026-09-01T19:59:15Z</time>
  <course>172.64</course>
  <speed>12.63</speed>
  <fix>3d</fix>
</trkpt>
<trkpt lat="-27.2763442" lon="151.2901071">
  <ele>447.1</ele>
  <time>2026-09-01T19:59:15Z</time>
  <course>174.86</course>
  <speed>12.124685562933168</speed>
  <fix>3d</fix>
</trkpt>
<trkpt lat="-27.2763237" lon="151.2901049">
  <ele>447.17</ele>
  <time>2026-09-01T19:59:15Z</time>
  <course>174.0</course>
  <speed>12.34</speed>
  <fix>3d</fix>
</trkpt>
<trkpt lat="-27.2763551" lon="151.2901081">
  <ele>447.11</ele>
  <time>2026-09-01T19:59:15Z</time>
  <course>175.52</course>
  <speed>11.973124070183188</speed>
  <fix>3d</fix>
</trkpt>
<trkpt lat="-27.2763237" lon="151.2901049">
  <ele>447.17</ele>
  <time>2026-09-01T19:59:15Z</time>
  <course>174.0</course>
  <speed>12.34</speed>
  <fix>3d</fix>
</trkpt>
<trkpt lat="-27.2763657" lon="151.2901089">
  <ele>447.12</ele>
  <time>2026-09-01T19:59:15Z</time>
  <course>176.17</course>
  <speed>11.823810722436317</speed>
  <fix>3d</fix>
</trkpt>
<trkpt lat="-27.2763455" lon="151.2901072">
  <ele>447.19</ele>
  <time>2026-09-01T19:59:15Z</time>
  <course>175.32</course>
  <speed>12.05</speed>
  <fix>3d</fix>
</trkpt>
<trkpt lat="-27.2763761" lon="151.2901096">
  <ele>447.14</ele>
  <time>2026-09-01T19:59:15Z</time>
  <course>176.8</course>
  <speed>11.66648618908024</speed>
  <fix>3d</fix>
</trkpt>
<trkpt lat="-27.2763455" lon="151.2901072">
  <ele>447.19</ele>
  <time>2026-09-01T19:59:15Z</time>
  <course>175.32</course>
  <speed>12.05</speed>
  <fix>3d</fix>
</trkpt>
<trkpt lat="-27.2763864" lon="151.2901101">
  <ele>447.16</ele>
  <time>2026-09-01T19:59:15Z</time>
  <course>177.43</course>
  <speed>11.510434396668096</speed>
  <fix>3d</fix>
</trkpt>
<trkpt lat="-27.2763668" lon="151.2901089">
  <ele>447.22</ele>
  <time>2026-09-01T19:59:15Z</time>
  <course>176.61</course>
  <speed>11.75</speed>
  <fix>3d</fix>
</trkpt>
<trkpt lat="-27.2763966" lon="151.2901105">
  <ele>447.18</ele>
  <time>2026-09-01T19:59:15Z</time>
  <course>178.04</course>
  <speed>11.355707815895935</speed>
  <fix>3d</fix>
</trkpt>
<trkpt lat="-27.2763668" lon="151.2901089">
  <ele>447.22</ele>
  <time>2026-09-01T19:59:15Z</time>
  <course>176.61</course>
  <speed>11.75</speed>
  <fix>3d</fix>
</trkpt>
<trkpt lat="-27.2764066" lon="151.2901108">
  <ele>447.21</ele>
  <time>2026-09-01T19:59:15Z</time>
  <course>178.64</course>
  <speed>11.192792323633991</speed>
  <fix>3d</fix>
</trkpt>
<trkpt lat="-27.2763877" lon="151.29011">
  <ele>447.26</ele>
  <time>2026-09-01T19:59:15Z</time>
  <course>177.86</course>
  <speed>11.44</speed>
  <fix>3d</fix>
</trkpt>
<trkpt lat="-27.2764165" lon="151.290111">
  <ele>447.23</ele>
  <time>2026-09-01T19:59:15Z</time>
  <course>179.23</course>
  <speed>11.030766065872307</speed>
  <fix>3d</fix>
</trkpt>
<trkpt lat="-27.2763877" lon="151.29011">
  <ele>447.26</ele>
  <time>2026-09-01T19:59:15Z</time>
  <course>177.86</course>
  <speed>11.44</speed>
  <fix>3d</fix>
</trkpt>
<trkpt lat="-27.2764262" lon="151.290111">
  <ele>447.26</ele>
  <time>2026-09-01T19:59:15Z</time>
  <course>179.81</course>
  <speed>10.860018416190647</speed>
  <fix>3d</fix>
</trkpt>
<trkpt lat="-27.276408" lon="151.2901106">
  <ele>447.3</ele>
  <time>2026-09-01T19:59:15Z</time>
  <course>179.06</course>
  <speed>11.13</speed>
  <fix>3d</fix>
</trkpt>
<trkpt lat="-27.2764358" lon="151.290111">
  <ele>447.29</ele>
  <time>2026-09-01T19:59:15Z</time>
  <course>180.38</course>
  <speed>10.700228969512755</speed>
  <fix>3d</fix>
</trkpt>
<trkpt lat="-27.276408" lon="151.2901106">
  <ele>447.3</ele>
  <time>2026-09-01T19:59:15Z</time>
  <course>179.06</course>
  <speed>11.13</speed>
  <fix>3d</fix>
</trkpt>
<trkpt lat="-27.2764452" lon="151.2901108">
  <ele>447.31</ele>
  <time>2026-09-01T19:59:15Z</time>
  <course>180.93</course>
  <speed>10.531372180300153</speed>
  <fix>3d</fix>
</trkpt>
<trkpt lat="-27.2764277" lon="151.2901107">
  <ele>447.36</ele>
  <time>2026-09-01T19:59:15Z</time>
  <course>180.21</course>
  <speed>10.81</speed>
  <fix>3d</fix>
</trkpt>
<trkpt lat="-27.2764545" lon="151.2901105">
  <ele>447.34</ele>
  <time>2026-09-01T19:59:15Z</time>
  <course>181.47</course>
  <speed>10.363262034707025</speed>
  <fix>3d</fix>
</trkpt>
<trkpt lat="-27.2764277" lon="151.2901107">
  <ele>447.36</ele>
  <time>2026-09-01T19:59:15Z</time>
  <course>180.21</course>
  <speed>10.81</speed>
  <fix>3d</fix>
</trkpt>
<trkpt lat="-27.2764637" lon="151.2901103">
  <ele>447.37</ele>
  <time>2026-09-01T19:59:15Z</time>
  <course>182.0</course>
  <speed>10.195670649839569</speed>
  <fix>3d</fix>
</trkpt>
<trkpt lat="-27.2764468" lon="151.2901106">
  <ele>447.42</ele>
  <time>2026-09-01T19:59:15Z</time>
  <course>181.31</course>
  <speed>10.49</speed>
  <fix>3d</fix>
</trkpt>
<trkpt lat="-27.2764727" lon="151.2901099">
  <ele>447.41</ele>
  <time>2026-09-01T19:59:15Z</time>
  <course>182.52</course>
  <speed>10.019231507456048</speed>
  <fix>3d</fix>
</trkpt>
<trkpt lat="-27.2764468" lon="151.2901106">
  <ele>447.42</ele>
  <time>2026-09-01T19:59:15Z</time>
  <course>181.31</course>
  <speed>10.49</speed>
  <fix>3d</fix>
</trkpt>
<trkpt lat="-27.2764815" lon="151.2901094">
  <ele>447.44</ele>
  <time>2026-09-01T19:59:15Z</time>
  <course>183.02</course>
  <speed>9.852695062773433</speed>
  <fix>3d</fix>
</trkpt>
<trkpt lat="-27.2764654" lon="151.2901099">
  <ele>447.48</ele>
  <time>2026-09-01T19:59:15Z</time>
  <course>182.37</course>
  <speed>10.16</speed>
  <fix>3d</fix>
</trkpt>
<trkpt lat="-27.2764902" lon="151.2901088">
  <ele>447.47</ele>
  <time>2026-09-01T19:59:15Z</time>
  <course>183.51</course>
  <speed>9.676802157737855</speed>
  <fix>3d</fix>
</trkpt>
<trkpt lat="-27.2764654" lon="151.2901099">
  <ele>447.48</ele>
  <time>2026-09-01T19:59:15Z</time>
  <course>182.37</course>
  <speed>10.16</speed>
  <fix>3d</fix>
</trkpt>
<trkpt lat="-27.2764988" lon="151.2901081">
  <ele>447.51</ele>
  <time>2026-09-01T19:59:15Z</time>
  <course>183.98</course>
  <speed>9.501578816175762</speed>
  <fix>3d</fix>
</trkpt>
<trkpt lat="-27.2764833" lon="151.2901089">
  <ele>447.54</ele>
  <time>2026-09-01T19:59:15Z</time>
  <course>183.38</course>
  <speed>9.82</speed>
  <fix>3d</fix>
</trkpt>
<trkpt lat="-27.2765072" lon="151.2901074">
  <ele>447.54</ele>
  <time>2026-09-01T19:59:15Z</time>
  <course>184.44</course>
  <speed>9.32630687893123</speed>
  <fix>3d</fix>
</trkpt>
<trkpt lat="-27.2764833" lon="151.2901089">
  <ele>447.54</ele>
  <time>2026-09-01T19:59:15Z</time>
  <course>183.38</course>
  <speed>9.82</speed>
  <fix>3d</fix>
</trkpt>
<trkpt lat="-27.2765155" lon="151.2901066">
  <ele>447.57</ele>
  <time>2026-09-01T19:59:15Z</time>
  <course>184.89</course>
  <speed>9.161577375103045</speed>
  <fix>3d</fix>
</trkpt>
<trkpt lat="-27.2765006" lon="151.2901076">
  <ele>447.61</ele>
  <time>2026-09-01T19:59:15Z</time>
  <course>184.33</course>
  <speed>9.48</speed>
  <fix>3d</fix>
</trkpt>
<trkpt lat="-27.2765237" lon="151.2901058">
  <ele>447.61</ele>
  <time>2026-09-01T19:59:15Z</time>
  <course>185.33</course>
  <speed>8.97661963101924</speed>
  <fix>3d</fix>
</trkpt>
<trkpt lat="-27.2765006" lon="151.2901076">
  <ele>447.61</ele>
  <time>2026-09-01T19:59:15Z</time>
  <course>184.33</course>
  <speed>9.48</speed>
  <fix>3d</fix>
</trkpt>
<trkpt lat="-27.2765317" lon="151.2901049">
  <ele>447.64</ele>
  <time>2026-09-01T19:59:15Z</time>
  <course>185.76</course>
  <speed>8.802113382591706</speed>
  <fix>3d</fix>
</trkpt>
<trkpt lat="-27.2765173" lon="151.290106">
  <ele>447.68</ele>
  <time>2026-09-01T19:59:15Z</time>
  <course>185.23</course>
  <speed>9.13</speed>
  <fix>3d</fix>
</trkpt>
<trkpt lat="-27.2765395" lon="151.2901039">
  <ele>447.67</ele>
  <time>2026-09-01T19:59:15Z</time>
  <course>186.16</course>
  <speed>8.627073663763397</speed>
  <fix>3d</fix>
</trkpt>
<trkpt lat="-27.2765173" lon="151.290106">
  <ele>447.68</ele>
  <time>2026-09-01T19:59:15Z</time>
  <course>185.23</course>
  <speed>9.13</speed>
  <fix>3d</fix>
</trkpt>
<trkpt lat="-27.2765472" lon="151.2901029">
  <ele>447.7</ele>
  <time>2026-09-01T19:59:15Z</time>
  <course>186.56</course>
  <speed>8.442493707430287</speed>
  <fix>3d</fix>
</trkpt>
<trkpt lat="-27.2765332" lon="151.2901042">
  <ele>447.74</ele>
  <time>2026-09-01T19:59:15Z</time>
  <course>186.08</course>
  <speed>8.77</speed>
  <fix>3d</fix>
</trkpt>
<trkpt lat="-27.2765546" lon="151.2901019">
  <ele>447.72</ele>
  <time>2026-09-01T19:59:15Z</time>
  <course>186.95</course>
  <speed>8.267103483082815</speed>
  <fix>3d</fix>
</trkpt>
<trkpt lat="-27.2765332" lon="151.2901042">
  <ele>447.74</ele>
  <time>2026-09-01T19:59:15Z</time>
  <course>186.08</course>
  <speed>8.77</speed>
  <fix>3d</fix>
</trkpt>
<trkpt lat="-27.2765619" lon="151.2901009">
  <ele>447.75</ele>
  <time>2026-09-01T19:59:15Z</time>
  <course>187.32</course>
  <speed>8.082103686541023</speed>
  <fix>3d</fix>
</trkpt>
<trkpt lat="-27.2765486" lon="151.2901023">
  <ele>447.8</ele>
  <time>2026-09-01T19:59:15Z</time>
  <course>186.88</course>
  <speed>8.41</speed>
  <fix>3d</fix>
</trkpt>
<trkpt lat="-27.276569" lon="151.2900998">
  <ele>447.78</ele>
  <time>2026-09-01T19:59:15Z</time>
  <course>187.69</course>
  <speed>7.896157293266136</speed>
  <fix>3d</fix>
</trkpt>
<trkpt lat="-27.2765486" lon="151.2901023">
  <ele>447.8</ele>
  <time>2026-09-01T19:59:15Z</time>
  <course>186.88</course>
  <speed>8.41</speed>
  <fix>3d</fix>
</trkpt>
<trkpt lat="-27.2765759" lon="151.2900987">
  <ele>447.8</ele>
  <time>2026-09-01T19:59:15Z</time>
  <course>188.04</course>
  <speed>7.710460427237792</speed>
  <fix>3d</fix>
</trkpt>
<trkpt lat="-27.2765633" lon="151.2901001">
  <ele>447.85</ele>
  <time>2026-09-01T19:59:15Z</time>
  <course>187.63</course>
  <speed>8.05</speed>
  <fix>3d</fix>
</trkpt>
<trkpt lat="-27.2765827" lon="151.2900976">
  <ele>447.82</ele>
  <time>2026-09-01T19:59:15Z</time>
  <course>188.39</course>
  <speed>7.525031561395607</speed>
  <fix>3d</fix>
</trkpt>
<trkpt lat="-27.2765633" lon="151.2901001">
  <ele>447.85</ele>
  <time>2026-09-01T19:59:15Z</time>
  <course>187.63</course>
  <speed>8.05</speed>
  <fix>3d</fix>
</trkpt>
<trkpt lat="-27.2765893" lon="151.2900965">
  <ele>447.83</ele>
  <time>2026-09-01T19:59:15Z</time>
  <course>188.73</course>
  <speed>7.338426261808454</speed>
  <fix>3d</fix>
</trkpt>
<trkpt lat="-27.2765773" lon="151.2900979">
  <ele>447.9</ele>
  <time>2026-09-01T19:59:15Z</time>
  <course>188.33</course>
  <speed>7.68</speed>
  <fix>3d</fix>
</trkpt>
<trkpt lat="-27.2765957" lon="151.2900953">
  <ele>447.85</ele>
  <time>2026-09-01T19:59:15Z</time>
  <course>189.06</course>
  <speed>7.152013702447724</speed>
  <fix>3d</fix>
</trkpt>
<trkpt lat="-27.2765773" lon="151.2900979">
  <ele>447.9</ele>
  <time>2026-09-01T19:59:15Z</time>
  <course>188.33</course>
  <speed>7.68</speed>
  <fix>3d</fix>
</trkpt>
<trkpt lat="-27.276602" lon="151.2900941">
  <ele>447.85</ele>
  <time>2026-09-01T19:59:16Z</time>
  <course>189.38</course>
  <speed>6.955932719628619</speed>
  <fix>3d</fix>
</trkpt>
<trkpt lat="-27.2765906" lon="151.2900956">
  <ele>447.94</ele>
  <time>2026-09-01T19:59:16Z</time>
  <course>188.99</course>
  <speed>7.3</speed>
  <fix>3d</fix>
</trkpt>
<trkpt lat="-27.276608" lon="151.290093">
  <ele>447.85</ele>
  <time>2026-09-01T19:59:16Z</time>
  <course>189.68</course>
  <speed>6.768345440356898</speed>
  <fix>3d</fix>
</trkpt>
<trkpt lat="-27.2765906" lon="151.2900956">
  <ele>447.94</ele>
  <time>2026-09-01T19:59:16Z</time>
  <course>188.99</course>
  <speed>7.3</speed>
  <fix>3d</fix>
</trkpt>
<trkpt lat="-27.2766139" lon="151.2900918">
  <ele>447.79</ele>
  <time>2026-09-01T19:59:16Z</time>
  <course>189.99</course>
  <speed>6.5463883172326405</speed>
  <fix>3d</fix>
</trkpt>
<trkpt lat="-27.2766032" lon="151.2900933">
  <ele>447.95</ele>
  <time>2026-09-01T19:59:16Z</time>
  <course>189.57</course>
  <speed>6.93</speed>
  <fix>3d</fix>
</trkpt>
<trkpt lat="-27.2766195" lon="151.2900907">
  <ele>447.66</ele>
  <time>2026-09-01T19:59:16Z</time>
  <course>190.27</course>
  <speed>6.242251196483525</speed>
  <fix>3d</fix>
</trkpt>
<trkpt lat="-27.2766032" lon="151.2900933">
  <ele>447.95</ele>
  <time>2026-09-01T19:59:16Z</time>
  <course>189.57</course>
  <speed>6.93</speed>
  <fix>3d</fix>
</trkpt>
<trkpt lat="-27.2766249" lon="151.2900897">
  <ele>447.46</ele>
  <time>2026-09-01T19:59:16Z</time>
  <course>190.54</course>
  <speed>5.87891146386812</speed>
  <fix>3d</fix>
</trkpt>
<trkpt lat="-27.2766151" lon="151.290091">
  <ele>447.87</ele>
  <time>2026-09-01T19:59:16Z</time>
  <course>189.9</course>
  <speed>6.48</speed>
  <fix>3d</fix>
</trkpt>
<trkpt lat="-27.2766299" lon="151.2900887">
  <ele>447.2</ele>
  <time>2026-09-01T19:59:16Z</time>
  <course>190.79</course>
  <speed>5.444896693234869</speed>
  <fix>3d</fix>
</trkpt>
<trkpt lat="-27.2766151" lon="151.290091">
  <ele>447.87</ele>
  <time>2026-09-01T19:59:16Z</time>
  <course>189.9</course>
  <speed>6.48</speed>
  <fix>3d</fix>
</trkpt>
<trkpt lat="-27.2766345" lon="151.2900877">
  <ele>446.9</ele>
  <time>2026-09-01T19:59:16Z</time>
  <course>191.01</course>
  <speed>4.930365098042944</speed>
  <fix>3d</fix>
</trkpt>
<trkpt lat="-27.276626" lon="151.2900889">
  <ele>447.55</ele>
  <time>2026-09-01T19:59:16Z</time>
  <course>190.08</course>
  <speed>5.82</speed>
  <fix>3d</fix>
</trkpt>
<trkpt lat="-27.2766386" lon="151.2900869">
  <ele>446.57</ele>
  <time>2026-09-01T19:59:16Z</time>
  <course>191.2</course>
  <speed>4.386342439892261</speed>
  <fix>3d</fix>
</trkpt>
<trkpt lat="-27.276626" lon="151.2900889">
  <ele>447.55</ele>
  <time>2026-09-01T19:59:16Z</time>
  <course>190.08</course>
  <speed>5.82</speed>
  <fix>3d</fix>
</trkpt>
<trkpt lat="-27.2766422" lon="151.2900861">
  <ele>446.22</ele>
  <time>2026-09-01T19:59:16Z</time>
  <course>191.38</course>
  <speed>3.834436073270749</speed>
  <fix>3d</fix>
</trkpt>
<trkpt lat="-27.2766355" lon="151.290087">
  <ele>447.0</ele>
  <time>2026-09-01T19:59:16Z</time>
  <course>190.48</course>
  <speed>4.89</speed>
  <fix>3d</fix>
</trkpt>
<trkpt lat="-27.2766454" lon="151.2900853">
  <ele>445.86</ele>
  <time>2026-09-01T19:59:16Z</time>
  <course>191.56</course>
  <speed>3.2908661473843024</speed>
  <fix>3d</fix>
</trkpt>
<trkpt lat="-27.2766355" lon="151.290087">
  <ele>447.0</ele>
  <time>2026-09-01T19:59:16Z</time>
  <course>190.48</course>
  <speed>4.89</speed>
  <fix>3d</fix>
</trkpt>
<trkpt lat="-27.2766481" lon="151.2900847">
  <ele>445.5</ele>
  <time>2026-09-01T19:59:16Z</time>
  <course>191.77</course>
  <speed>2.7692959394040937</speed>
  <fix>3d</fix>
</trkpt>
<trkpt lat="-27.2766432" lon="151.2900852">
  <ele>446.33</ele>
  <time>2026-09-01T19:59:16Z</time>
  <course>191.34</course>
  <speed>3.81</speed>
  <fix>3d</fix>
</trkpt>
<trkpt lat="-27.2766504" lon="151.2900841">
  <ele>445.15</ele>
  <time>2026-09-01T19:59:16Z</time>
  <course>192.0</course>
  <speed>2.2973245308401684</speed>
  <fix>3d</fix>
</trkpt>
<trkpt lat="-27.2766432" lon="151.2900852">
  <ele>446.33</ele>
  <time>2026-09-01T19:59:16Z</time>
  <course>191.34</course>
  <speed>3.81</speed>
  <fix>3d</fix>
</trkpt>
<trkpt lat="-27.2766523" lon="151.2900835">
  <ele>444.82</ele>
  <time>2026-09-01T19:59:16Z</time>
  <course>192.27</course>
  <speed>1.8700267377767625</speed>
  <fix>3d</fix>
</trkpt>
<trkpt lat="-27.276649" lon="151.2900839">
  <ele>445.62</ele>
  <time>2026-09-01T19:59:16Z</time>
  <course>192.98</course>
  <speed>2.76</speed>
  <fix>3d</fix>
</trkpt>
<trkpt lat="-27.2766538" lon="151.290083">
  <ele>444.5</ele>
  <time>2026-09-01T19:59:16Z</time>
  <course>192.57</course>
  <speed>1.5</speed>
  <fix>3d</fix>
</trkpt>
<trkpt lat="-27.276649" lon="151.2900839">
  <ele>445.62</ele>
  <time>2026-09-01T19:59:16Z</time>
  <course>192.98</course>
  <speed>2.76</speed>
  <fix>3d</fix>
</trkpt>
<trkpt lat="-27.2766549" lon="151.2900825">
  <ele>444.19</ele>
  <time>2026-09-01T19:59:16Z</time>
  <course>192.9</course>
  <speed>1.1765202930676546</speed>
  <fix>3d</fix>
</trkpt>
<trkpt lat="-27.276653" lon="151.2900828">
  <ele>444.94</ele>
  <time>2026-09-01T19:59:16Z</time>
  <course>196.06</course>
  <speed>1.86</speed>
  <fix>3d</fix>
</trkpt>
<trkpt lat="-27.2766558" lon="151.2900821">
  <ele>443.91</ele>
  <time>2026-09-01T19:59:16Z</time>
  <course>193.22</course>
  <speed>0.8955445270895244</speed>
  <fix>3d</fix>
</trkpt>
<trkpt lat="-27.276653" lon="151.2900828">
  <ele>444.94</ele>
  <time>2026-09-01T19:59:16Z</time>
  <course>196.06</course>
  <speed>1.86</speed>
  <fix>3d</fix>
</trkpt>
<trkpt lat="-27.2766565" lon="151.2900816">
  <ele>443.66</ele>
  <time>2026-09-01T19:59:16Z</time>
  <course>193.47</course>
  <speed>0.6723094525588644</speed>
  <fix>3d</fix>
</trkpt>
<trkpt lat="-27.2766555" lon="151.2900818">
  <ele>444.32</ele>
  <time>2026-09-01T19:59:16Z</time>
  <course>202.19</course>
  <speed>1.14</speed>
  <fix>3d</fix>
</trkpt>
<trkpt lat="-27.276657" lon="151.2900812">
  <ele>443.43</ele>
  <time>2026-09-01T19:59:16Z</time>
  <course>193.59</course>
  <speed>0.5173973328110612</speed>
  <fix>3d</fix>
</trkpt>
<trkpt lat="-27.2766555" lon="151.2900818">
  <ele>444.32</ele>
  <time>2026-09-01T19:59:16Z</time>
  <course>202.19</course>
  <speed>1.14</speed>
  <fix>3d</fix>
</trkpt>
<trkpt lat="-27.2766573" lon="151.2900808">
  <ele>443.23</ele>
  <time>2026-09-01T19:59:16Z</time>
  <course>193.52</course>
  <speed>0.41048751503547587</speed>
  <fix>3d</fix>
</trkpt>
<trkpt lat="-27.2766569" lon="151.2900809">
  <ele>443.78</ele>
  <time>2026-09-01T19:59:16Z</time>
  <course>216.29</course>
  <speed>0.65</speed>
  <fix>3d</fix>
</trkpt>
<trkpt lat="-27.2766574" lon="151.2900804">
  <ele>443.07</ele>
  <time>2026-09-01T19:59:16Z</time>
  <course>193.21</course>
  <speed>0.3668787265568828</speed>
  <fix>3d</fix>
</trkpt>
<trkpt lat="-27.2766569" lon="151.2900809">
  <ele>443.78</ele>
  <time>2026-09-01T19:59:16Z</time>
  <course>216.29</course>
  <speed>0.65</speed>
  <fix>3d</fix>
</trkpt>
<trkpt lat="-27.2766575" lon="151.29008">
  <ele>442.93</ele>
  <time>2026-09-01T19:59:16Z</time>
  <course>192.65</course>
  <speed>0.36013886210738216</speed>
  <fix>3d</fix>
</trkpt>
<trkpt lat="-27.2766575" lon="151.2900802">
  <ele>443.37</ele>
  <time>2026-09-01T19:59:16Z</time>
  <course>247.23</course>
  <speed>0.4</speed>
  <fix>3d</fix>
</trkpt>
<trkpt lat="-27.2766575" lon="151.2900796">
  <ele>442.83</ele>
  <time>2026-09-01T19:59:16Z</time>
  <course>191.85</course>
  <speed>0.37483329627982626</speed>
  <fix>3d</fix>
</trkpt>
<trkpt lat="-27.2766575" lon="151.2900802">
  <ele>443.37</ele>
  <time>2026-09-01T19:59:16Z</time>
  <course>247.23</course>
  <speed>0.4</speed>
  <fix>3d</fix>
</trkpt>
<trkpt lat="-27.2766575" lon="151.2900792">
  <ele>442.75</ele>
  <time>2026-09-01T19:59:16Z</time>
  <course>190.9</course>
  <speed>0.4016217125604641</speed>
  <fix>3d</fix>
</trkpt>
<trkpt lat="-27.2766576" lon="151.2900795">
  <ele>443.07</ele>
  <time>2026-09-01T19:59:16Z</time>
  <course>282.0</course>
  <speed>0.39</speed>
  <fix>3d</fix>
</trkpt>
<trkpt lat="-27.2766573" lon="151.2900787">
  <ele>442.7</ele>
  <time>2026-09-01T19:59:16Z</time>
  <course>189.89</course>
  <speed>0.4338202392696773</speed>
  <fix>3d</fix>
</trkpt>
<trkpt lat="-27.2766576" lon="151.2900795">
  <ele>443.07</ele>
  <time>2026-09-01T19:59:16Z</time>
  <course>282.0</course>
  <speed>0.39</speed>
  <fix>3d</fix>
</trkpt>
<trkpt lat="-27.2766571" lon="151.2900783">
  <ele>442.68</ele>
  <time>2026-09-01T19:59:16Z</time>
  <course>188.98</course>
  <speed>0.45276925690687087</speed>
  <fix>3d</fix>
</trkpt>
<trkpt lat="-27.2766574" lon="151.2900786">
  <ele>442.89</ele>
  <time>2026-09-01T19:59:16Z</time>
  <course>301.31</course>
  <speed>0.46</speed>
  <fix>3d</fix>
</trkpt>
<trkpt lat="-27.2766569" lon="151.2900779">
  <ele>442.67</ele>
  <time>2026-09-01T19:59:16Z</time>
  <course>188.29</course>
  <speed>0.4632493928760188</speed>
  <fix>3d</fix>
</trkpt>
<trkpt lat="-27.2766574" lon="151.2900786">
  <ele>442.89</ele>
  <time>2026-09-01T19:59:16Z</time>
  <course>301.31</course>
  <speed>0.46</speed>
  <fix>3d</fix>
</trkpt>
<trkpt lat="-27.2766566" lon="151.2900774">
  <ele>442.69</ele>
  <time>2026-09-01T19:59:16Z</time>
  <course>187.87</course>
  <speed>0.4604345773288535</speed>
  <fix>3d</fix>
</trkpt>
<trkpt lat="-27.2766569" lon="151.2900779">
  <ele>442.82</ele>
  <time>2026-09-01T19:59:16Z</time>
  <course>309.94</course>
  <speed>0.52</speed>
  <fix>3d</fix>
</trkpt>
<trkpt lat="-27.2766563" lon="151.290077">
  <ele>442.72</ele>
  <time>2026-09-01T19:59:16Z</time>
  <course>187.74</course>
  <speed>0.46400431032480727</speed>
  <fix>3d</fix>
</trkpt>
<trkpt lat="-27.2766569" lon="151.2900779">
  <ele>442.82</ele>
  <time>2026-09-01T19:59:16Z</time>
  <course>309.94</course>
  <speed>0.52</speed>
  <fix>3d</fix>
</trkpt>
<trkpt lat="-27.276656" lon="151.2900766">
  <ele>442.75</ele>
  <time>2026-09-01T19:59:16Z</time>
  <course>187.86</course>
  <speed>0.4482186966202994</speed>
  <fix>3d</fix>
</trkpt>
<trkpt lat="-27.2766562" lon="151.2900771">
  <ele>442.83</ele>
  <time>2026-09-01T19:59:16Z</time>
  <course>314.23</course>
  <speed>0.55</speed>
  <fix>3d</fix>
</trkpt>
<trkpt lat="-27.2766557" lon="151.2900763">
  <ele>442.8</ele>
  <time>2026-09-01T19:59:16Z</time>
  <course>188.14</course>
  <speed>0.44045431091090476</speed>
  <fix>3d</fix>
</trkpt>
<trkpt lat="-27.2766562" lon="151.2900771">
  <ele>442.83</ele>
  <time>2026-09-01T19:59:16Z</time>
  <course>314.23</course>
  <speed>0.55</speed>
  <fix>3d</fix>
</trkpt>
<trkpt lat="-27.2766554" lon="151.2900759">
  <ele>442.84</ele>
  <time>2026-09-01T19:59:16Z</time>
  <course>188.5</course>
  <speed>0.4186884283091664</speed>
  <fix>3d</fix>
</trkpt>
<trkpt lat="-27.2766554" lon="151.2900763">
  <ele>442.9</ele>
  <time>2026-09-01T19:59:16Z</time>
  <course>317.34</course>
  <speed>0.54</speed>
  <fix>3d</fix>
</trkpt>
<trkpt lat="-27.2766551" lon="151.2900756">
  <ele>442.88</ele>
  <time>2026-09-01T19:59:16Z</time>
  <course>188.86</course>
  <speed>0.3905124837953327</speed>
  <fix>3d</fix>
</trkpt>
<trkpt lat="-27.2766554" lon="151.2900763">
  <ele>442.9</ele>
  <time>2026-09-01T19:59:16Z</time>
  <course>317.34</course>
  <speed>0.54</speed>
  <fix>3d</fix>
</trkpt>
<trkpt lat="-27.2766548" lon="151.2900752">
  <ele>442.92</ele>
  <time>2026-09-01T19:59:16Z</time>
  <course>189.13</course>
  <speed>0.3764306044943742</speed>
  <fix>3d</fix>
</trkpt>
<trkpt lat="-27.2766548" lon="151.2900755">
  <ele>442.98</ele>
  <time>2026-09-01T19:59:16Z</time>
  <course>319.13</course>
  <speed>0.5</speed>
  <fix>3d</fix>
</trkpt>
<trkpt lat="-27.2766545" lon="151.2900749">
  <ele>442.95</ele>
  <time>2026-09-01T19:59:16Z</time>
  <course>189.3</course>
  <speed>0.3420526275297414</speed>
  <fix>3d</fix>
</trkpt>
<trkpt lat="-27.2766548" lon="151.2900755">
  <ele>442.98</ele>
  <time>2026-09-01T19:59:16Z</time>
  <course>319.13</course>
  <speed>0.5</speed>
  <fix>3d</fix>
</trkpt>
<trkpt lat="-27.2766543" lon="151.2900746">
  <ele>442.98</ele>
  <time>2026-09-01T19:59:16Z</time>
  <course>189.34</course>
  <speed>0.3080584360149873</speed>
  <fix>3d</fix>
</trkpt>
<trkpt lat="-27.2766541" lon="151.2900748">
  <ele>443.06</ele>
  <time>2026-09-01T19:59:16Z</time>
  <course>319.36</course>
  <speed>0.45</speed>
  <fix>3d</fix>
</trkpt>
<trkpt lat="-27.2766541" lon="151.2900744">
  <ele>443.0</ele>
  <time>2026-09-01T19:59:16Z</time>
  <course>189.26</course>
  <speed>0.2830194339616981</speed>
  <fix>3d</fix>
</trkpt>
<trkpt lat="-27.2766541" lon="151.2900748">
  <ele>443.06</ele>
  <time>2026-09-01T19:59:16Z</time>
  <course>319.36</course>
  <speed>0.45</speed>
  <fix>3d</fix>
</trkpt>
<trkpt lat="-27.2766538" lon="151.2900741">
  <ele>443.01</ele>
  <time>2026-09-01T19:59:16Z</time>
  <course>189.1</course>
  <speed>0.25059928172283336</speed>
  <fix>3d</fix>
</trkpt>
<trkpt lat="-27.2766535" lon="151.2900743">
  <ele>443.12</ele>
  <time>2026-09-01T19:59:16Z</time>
  <course>317.64</course>
  <speed>0.39</speed>
  <fix>3d</fix>
</trkpt>
<trkpt lat="-27.2766537" lon="151.2900738">
  <ele>443.01</ele>
  <time>2026-09-01T19:59:16Z</time>
  <course>188.88</course>
  <speed>0.22135943621178655</speed>
  <fix>3d</fix>
</trkpt>
<trkpt lat="-27.2766535" lon="151.2900743">
  <ele>443.12</ele>
  <time>2026-09-01T19:59:16Z</time>
  <course>317.64</course>
  <speed>0.39</speed>
  <fix>3d</fix>
</trkpt>
<trkpt lat="-27.2766535" lon="151.2900736">
  <ele>443.01</ele>
  <time>2026-09-01T19:59:16Z</time>
  <course>188.65</course>
  <speed>0.20223748416156684</speed>
  <fix>3d</fix>
</trkpt>
<trkpt lat="-27.2766531" lon="151.2900738">
  <ele>443.16</ele>
  <time>2026-09-01T19:59:16Z</time>
  <course>312.63</course>
  <speed>0.31</speed>
  <fix>3d</fix>
</trkpt>
<trkpt lat="-27.2766535" lon="151.2900734">
  <ele>443.0</ele>
  <time>2026-09-01T19:59:16Z</time>
  <course>188.44</course>
  <speed>0.18027756377319945</speed>
  <fix>3d</fix>
</trkpt>
<trkpt lat="-27.2766531" lon="151.2900738">
  <ele>443.16</ele>
  <time>2026-09-01T19:59:16Z</time>
  <course>312.63</course>
  <speed>0.31</speed>
  <fix>3d</fix>
</trkpt>
<trkpt lat="-27.2766534" lon="151.2900732">
  <ele>442.99</ele>
  <time>2026-09-01T19:59:16Z</time>
  <course>188.28</course>
  <speed>0.18027756377319945</speed>
  <fix>3d</fix>
</trkpt>
<trkpt lat="-27.2766528" lon="151.2900733">
  <ele>443.16</ele>
  <time>2026-09-01T19:59:16Z</time>
  <course>301.12</course>
  <speed>0.23</speed>
  <fix>3d</fix>
</trkpt>
<trkpt lat="-27.2766534" lon="151.290073">
  <ele>442.98</ele>
  <time>2026-09-01T19:59:16Z</time>
  <course>188.18</course>
  <speed>0.18601075237738274</speed>
  <fix>3d</fix>
</trkpt>
<trkpt lat="-27.2766528" lon="151.2900733">
  <ele>443.16</ele>
  <time>2026-09-01T19:59:16Z</time>
  <course>301.12</course>
  <speed>0.23</speed>
  <fix>3d</fix>
</trkpt>
<trkpt lat="-27.2766534" lon="151.2900729">
  <ele>442.96</ele>
  <time>2026-09-01T19:59:16Z</time>
  <course>188.15</course>
  <speed>0.22022715545545238</speed>
  <fix>3d</fix>
</trkpt>
<trkpt lat="-27.2766527" lon="151.290073">
  <ele>443.14</ele>
  <time>2026-09-01T19:59:16Z</time>
  <course>275.67</course>
  <speed>0.17</speed>
  <fix>3d</fix>
</trkpt>
<trkpt lat="-27.2766535" lon="151.2900727">
  <ele>442.94</ele>
  <time>2026-09-01T19:59:16Z</time>
  <course>188.17</course>
  <speed>0.27294688127912364</speed>
  <fix>3d</fix>
</trkpt>
<trkpt lat="-27.2766527" lon="151.290073">
  <ele>443.14</ele>
  <time>2026-09-01T19:59:16Z</time>
  <course>275.67</course>
  <speed>0.17</speed>
  <fix>3d</fix>
</trkpt>
<trkpt lat="-27.2766537" lon="151.2900726">
  <ele>442.93</ele>
  <time>2026-09-01T19:59:16Z</time>
  <course>188.22</course>
  <speed>0.3231098884280702</speed>
  <fix>3d</fix>
</trkpt>
<trkpt lat="-27.2766527" lon="151.2900727">
  <ele>443.11</ele>
  <time>2026-09-01T19:59:16Z</time>
  <course>235.04</course>
  <speed>0.18</speed>
  <fix>3d</fix>
</trkpt>
<trkpt lat="-27.2766539" lon="151.2900724">
  <ele>442.91</ele>
  <time>2026-09-01T19:59:16Z</time>
  <course>188.3</course>
  <speed>0.3956008088970496</speed>
  <fix>3d</fix>
</trkpt>
<trkpt lat="-27.2766527" lon="151.2900727">
  <ele>443.11</ele>
  <time>2026-09-01T19:59:16Z</time>
  <course>235.04</course>
  <speed>0.18</speed>
  <fix>3d</fix>
</trkpt>
<trkpt lat="-27.2766542" lon="151.2900723">
  <ele>442.9</ele>
  <time>2026-09-01T19:59:16Z</time>
  <course>188.37</course>
  <speed>0.4609772228646444</speed>
  <fix>3d</fix>
</trkpt>
<trkpt lat="-27.2766529" lon="151.2900724">
  <ele>443.07</ele>
  <time>2026-09-01T19:59:16Z</time>
  <course>207.59</course>
  <speed>0.27</speed>
  <fix>3d</fix>
</trkpt>
<trkpt lat="-27.2766545" lon="151.2900722">
  <ele>442.88</ele>
  <time>2026-09-01T19:59:16Z</time>
  <course>188.44</course>
  <speed>0.5277309920783505</speed>
  <fix>3d</fix>
</trkpt>
<trkpt lat="-27.2766529" lon="151.2900724">
  <ele>443.07</ele>
  <time>2026-09-01T19:59:16Z</time>
  <course>207.59</course>
  <speed>0.27</speed>
  <fix>3d</fix>
</trkpt>
<trkpt lat="-27.276655" lon="151.2900721">
  <ele>442.87</ele>
  <time>2026-09-01T19:59:16Z</time>
  <course>188.48</course>
  <speed>0.596824932455071</speed>
  <fix>3d</fix>
</trkpt>
<trkpt lat="-27.2766535" lon="151.2900722">
  <ele>443.04</ele>
  <time>2026-09-01T19:59:16Z</time>
  <course>195.54</course>
  <speed>0.4</speed>
  <fix>3d</fix>
</trkpt>
<trkpt lat="-27.2766555" lon="151.290072">
  <ele>442.87</ele>
  <time>2026-09-01T19:59:16Z</time>
  <course>188.5</course>
  <speed>0.6747592163134936</speed>
  <fix>3d</fix>
</trkpt>
<trkpt lat="-27.2766535" lon="151.2900722">
  <ele>443.04</ele>
  <time>2026-09-01T19:59:16Z</time>
  <course>195.54</course>
  <speed>0.4</speed>
  <fix>3d</fix>
</trkpt>
<trkpt lat="-27.276656" lon="151.2900719">
  <ele>442.86</ele>
  <time>2026-09-01T19:59:16Z</time>
  <course>188.49</course>
  <speed>0.7443117626371358</speed>
  <fix>3d</fix>
</trkpt>
<trkpt lat="-27.2766544" lon="151.290072">
  <ele>443.02</ele>
  <time>2026-09-01T19:59:16Z</time>
  <course>189.99</course>
  <speed>0.55</speed>
  <fix>3d</fix>
</trkpt>
<trkpt lat="-27.2766566" lon="151.2900718">
  <ele>442.86</ele>
  <time>2026-09-01T19:59:16Z</time>
  <course>188.47</course>
  <speed>0.8139410298049853</speed>
  <fix>3d</fix>
</trkpt>
<trkpt lat="-27.2766544" lon="151.290072">
  <ele>443.02</ele>
  <time>2026-09-01T19:59:16Z</time>
  <course>189.99</course>
  <speed>0.55</speed>
  <fix>3d</fix>
</trkpt>
<trkpt lat="-27.2766573" lon="151.2900717">
  <ele>442.86</ele>
  <time>2026-09-01T19:59:16Z</time>
  <course>188.45</course>
  <speed>0.8827797007181349</speed>
  <fix>3d</fix>
</trkpt>
<trkpt lat="-27.2766555" lon="151.2900718">
  <ele>443.01</ele>
  <time>2026-09-01T19:59:16Z</time>
  <course>187.2</course>
  <speed>0.7</speed>
  <fix>3d</fix>
</trkpt>
<trkpt lat="-27.2766581" lon="151.2900717">
  <ele>442.86</ele>
  <time>2026-09-01T19:59:16Z</time>
  <course>188.42</course>
  <speed>0.9426027795418386</speed>
  <fix>3d</fix>
</trkpt>
<trkpt lat="-27.2766555" lon="151.2900718">
  <ele>443.01</ele>
  <time>2026-09-01T19:59:16Z</time>
  <course>187.2</course>
  <speed>0.7</speed>
  <fix>3d</fix>
</trkpt>
<trkpt lat="-27.2766589" lon="151.2900716">
  <ele>442.87</ele>
  <time>2026-09-01T19:59:16Z</time>
  <course>188.4</course>
  <speed>1.0024470060806208</speed>
  <fix>3d</fix>
</trkpt>
<trkpt lat="-27.2766568" lon="151.2900716">
  <ele>443.01</ele>
  <time>2026-09-01T19:59:16Z</time>
  <course>185.73</course>
  <speed>0.84</speed>
  <fix>3d</fix>
</trkpt>
<trkpt lat="-27.2766598" lon="151.2900715">
  <ele>442.87</ele>
  <time>2026-09-01T19:59:16Z</time>
  <course>188.38</course>
  <speed>1.0630145812734648</speed>
  <fix>3d</fix>
</trkpt>
<trkpt lat="-27.2766568" lon="151.2900716">
  <ele>443.01</ele>
  <time>2026-09-01T19:59:16Z</time>
  <course>185.73</course>
  <speed>0.84</speed>
  <fix>3d</fix>
</trkpt>
<trkpt lat="-27.2766607" lon="151.2900714">
  <ele>442.88</ele>
  <time>2026-09-01T19:59:16Z</time>
  <course>188.37</course>
  <speed>1.122853507809456</speed>
  <fix>3d</fix>
</trkpt>
<trkpt lat="-27.2766585" lon="151.2900715">
  <ele>443.02</ele>
  <time>2026-09-01T19:59:16Z</time>
  <course>184.97</course>
  <speed>0.97</speed>
  <fix>3d</fix>
</trkpt>
<trkpt lat="-27.2766617" lon="151.2900713">
  <ele>442.89</ele>
  <time>2026-09-01T19:59:16Z</time>
  <course>188.36</course>
  <speed>1.172731853408954</speed>
  <fix>3d</fix>
</trkpt>
<trkpt lat="-27.2766585" lon="151.2900715">
  <ele>443.02</ele>
  <time>2026-09-01T19:59:16Z</time>
  <course>184.97</course>
  <speed>0.97</speed>
  <fix>3d</fix>
</trkpt>
<trkpt lat="-27.2766627" lon="151.2900712">
  <ele>442.89</ele>
  <time>2026-09-01T19:59:16Z</time>
  <course>188.36</course>
  <speed>1.2126417442921877</speed>
  <fix>3d</fix>
</trkpt>
<trkpt lat="-27.2766603" lon="151.2900713">
  <ele>443.03</ele>
  <time>2026-09-01T19:59:16Z</time>
  <course>184.64</course>
  <speed>1.09</speed>
  <fix>3d</fix>
</trkpt>
<trkpt lat="-27.2766637" lon="151.2900711">
  <ele>442.9</ele>
  <time>2026-09-01T19:59:16Z</time>
  <course>188.36</course>
  <speed>1.2532358118087752</speed>
  <fix>3d</fix>
</trkpt>
<trkpt lat="-27.2766603" lon="151.2900713">
  <ele>443.03</ele>
  <time>2026-09-01T19:59:16Z</time>
  <course>184.64</course>
  <speed>1.09</speed>
  <fix>3d</fix>
</trkpt>
<trkpt lat="-27.2766648" lon="151.290071">
  <ele>442.91</ele>
  <time>2026-09-01T19:59:16Z</time>
  <course>188.37</course>
  <speed>1.2931357237351384</speed>
  <fix>3d</fix>
</trkpt>
<trkpt lat="-27.2766624" lon="151.290071">
  <ele>443.04</ele>
  <time>2026-09-01T19:59:16Z</time>
  <course>184.59</course>
  <speed>1.2</speed>
  <fix>3d</fix>
</trkpt>
<trkpt lat="-27.2766659" lon="151.2900709">
  <ele>442.91</ele>
  <time>2026-09-01T19:59:16Z</time>
  <course>188.37</course>
  <speed>1.323782459469833</speed>
  <fix>3d</fix>
</trkpt>
<trkpt lat="-27.2766624" lon="151.290071">
  <ele>443.04</ele>
  <time>2026-09-01T19:59:16Z</time>
  <course>184.59</course>
  <speed>1.2</speed>
  <fix>3d</fix>
</trkpt>
<trkpt lat="-27.2766671" lon="151.2900708">
  <ele>442.92</ele>
  <time>2026-09-01T19:59:16Z</time>
  <course>188.38</course>
  <speed>1.343726162579266</speed>
  <fix>3d</fix>
</trkpt>
<trkpt lat="-27.2766646" lon="151.2900709">
  <ele>443.05</ele>
  <time>2026-09-01T19:59:16Z</time>
  <course>184.72</course>
  <speed>1.28</speed>
  <fix>3d</fix>
</trkpt>
<trkpt lat="-27.2766683" lon="151.2900707">
  <ele>442.92</ele>
  <time>2026-09-01T19:59:16Z</time>
  <course>188.38</course>
  <speed>1.36444127759314</speed>
  <fix>3d</fix>
</trkpt>
<trkpt lat="-27.2766646" lon="151.2900709">
  <ele>443.05</ele>
  <time>2026-09-01T19:59:16Z</time>
  <course>184.72</course>
  <speed>1.28</speed>
  <fix>3d</fix>
</trkpt>
<trkpt lat="-27.2766695" lon="151.2900705">
  <ele>442.92</ele>
  <time>2026-09-01T19:59:16Z</time>
  <course>188.39</course>
  <speed>1.3852075656738234</speed>
  <fix>3d</fix>
</trkpt>
<trkpt lat="-27.276667" lon="151.2900707">
  <ele>443.06</ele>
  <time>2026-09-01T19:59:16Z</time>
  <course>184.97</course>
  <speed>1.34</speed>
  <fix>3d</fix>
</trkpt>
<trkpt lat="-27.2766707" lon="151.2900704">
  <ele>442.93</ele>
  <time>2026-09-01T19:59:16Z</time>
  <course>188.4</course>
  <speed>1.3951702405083042</speed>
  <fix>3d</fix>
</trkpt>
<trkpt lat="-27.276667" lon="151.2900707">
  <ele>443.06</ele>
  <time>2026-09-01T19:59:16Z</time>
  <course>184.97</course>
  <speed>1.34</speed>
  <fix>3d</fix>
</trkpt>
<trkpt lat="-27.2766719" lon="151.2900703">
  <ele>442.93</ele>
  <time>2026-09-01T19:59:16Z</time>
  <course>188.41</course>
  <speed>1.3960659010233005</speed>
  <fix>3d</fix>
</trkpt>
<trkpt lat="-27.2766694" lon="151.2900704">
  <ele>443.07</ele>
  <time>2026-09-01T19:59:16Z</time>
  <course>185.31</course>
  <speed>1.38</speed>
  <fix>3d</fix>
</trkpt>
<trkpt lat="-27.2766731" lon="151.2900701">
  <ele>442.92</ele>
  <time>2026-09-01T19:59:16Z</time>
  <course>188.42</course>
  <speed>1.3960659010233005</speed>
  <fix>3d</fix>
</trkpt>
<trkpt lat="-27.2766694" lon="151.2900704">
  <ele>443.07</ele>
  <time>2026-09-01T19:59:16Z</time>
  <course>185.31</course>
  <speed>1.38</speed>
  <fix>3d</fix>
</trkpt>
<trkpt lat="-27.2766744" lon="151.29007">
  <ele>442.92</ele>
  <time>2026-09-01T19:59:16Z</time>
  <course>188.43</course>
  <speed>1.3970325694127537</speed>
  <fix>3d</fix>
</trkpt>
<trkpt lat="-27.2766719" lon="151.2900701">
  <ele>443.07</ele>
  <time>2026-09-01T19:59:16Z</time>
  <course>185.75</course>
  <speed>1.4</speed>
  <fix>3d</fix>
</trkpt>
<trkpt lat="-27.2766756" lon="151.2900698">
  <ele>442.92</ele>
  <time>2026-09-01T19:59:16Z</time>
  <course>188.43</course>
  <speed>1.388128236151113</speed>
  <fix>3d</fix>
</trkpt>
<trkpt lat="-27.2766719" lon="151.2900701">
  <ele>443.07</ele>
  <time>2026-09-01T19:59:16Z</time>
  <course>185.75</course>
  <speed>1.4</speed>
  <fix>3d</fix>
</trkpt>
<trkpt lat="-27.2766768" lon="151.2900697">
  <ele>442.92</ele>
  <time>2026-09-01T19:59:16Z</time>
  <course>188.44</course>
  <speed>1.3682470537150813</speed>
  <fix>3d</fix>
</trkpt>
<trkpt lat="-27.2766744" lon="151.2900698">
  <ele>443.06</ele>
  <time>2026-09-01T19:59:16Z</time>
  <course>186.28</course>
  <speed>1.4</speed>
  <fix>3d</fix>
</trkpt>
<trkpt lat="-27.276678" lon="151.2900695">
  <ele>442.92</ele>
  <time>2026-09-01T19:59:16Z</time>
  <course>188.44</course>
  <speed>1.3495184326269871</speed>
  <fix>3d</fix>
</trkpt>
<trkpt lat="-27.2766744" lon="151.2900698">
  <ele>443.06</ele>
  <time>2026-09-01T19:59:16Z</time>
  <course>186.28</course>
  <speed>1.4</speed>
  <fix>3d</fix>
</trkpt>
<trkpt lat="-27.2766792" lon="151.2900693">
  <ele>442.92</ele>
  <time>2026-09-01T19:59:16Z</time>
  <course>188.44</course>
  <speed>1.3197348218486926</speed>
  <fix>3d</fix>
</trkpt>
<trkpt lat="-27.2766769" lon="151.2900695">
  <ele>443.05</ele>
  <time>2026-09-01T19:59:16Z</time>
  <course>186.89</course>
  <speed>1.38</speed>
  <fix>3d</fix>
</trkpt>
<trkpt lat="-27.2766803" lon="151.2900691">
  <ele>442.92</ele>
  <time>2026-09-01T19:59:16Z</time>
  <course>188.44</course>
  <speed>1.291239714383042</speed>
  <fix>3d</fix>
</trkpt>
<trkpt lat="-27.2766769" lon="151.2900695">
  <ele>443.05</ele>
  <time>2026-09-01T19:59:16Z</time>
  <course>186.89</course>
  <speed>1.38</speed>
  <fix>3d</fix>
</trkpt>
<trkpt lat="-27.2766814" lon="151.290069">
  <ele>442.92</ele>
  <time>2026-09-01T19:59:16Z</time>
  <course>188.45</course>
  <speed>1.2615070352558484</speed>
  <fix>3d</fix>
</trkpt>
<trkpt lat="-27.2766794" lon="151.2900692">
  <ele>443.05</ele>
  <time>2026-09-01T19:59:16Z</time>
  <course>187.57</course>
  <speed>1.33</speed>
  <fix>3d</fix>
</trkpt>
<trkpt lat="-27.2766825" lon="151.2900688">
  <ele>442.91</ele>
  <time>2026-09-01T19:59:16Z</time>
  <course>188.45</course>
  <speed>1.213424904969401</speed>
  <fix>3d</fix>
</trkpt>
<trkpt lat="-27.2766794" lon="151.2900692">
  <ele>443.05</ele>
  <time>2026-09-01T19:59:16Z</time>
  <course>187.57</course>
  <speed>1.33</speed>
  <fix>3d</fix>
</trkpt>
<trkpt lat="-27.2766836" lon="151.2900686">
  <ele>442.91</ele>
  <time>2026-09-01T19:59:16Z</time>
  <course>188.46</course>
  <speed>1.1738824472663352</speed>
  <fix>3d</fix>
</trkpt>
<trkpt lat="-27.2766817" lon="151.2900687">
  <ele>443.04</ele>
  <time>2026-09-01T19:59:16Z</time>
  <course>188.35</course>
  <speed>1.27</speed>
  <fix>3d</fix>
</trkpt>
<trkpt lat="-27.2766846" lon="151.2900684">
  <ele>442.9</ele>
  <time>2026-09-01T19:59:16Z</time>
  <course>188.47</course>
  <speed>1.1244998888394786</speed>
  <fix>3d</fix>
</trkpt>
<trkpt lat="-27.2766817" lon="151.2900687">
  <ele>443.04</ele>
  <time>2026-09-01T19:59:16Z</time>
  <course>188.35</course>
  <speed>1.27</speed>
  <fix>3d</fix>
</trkpt>
<trkpt lat="-27.2766856" lon="151.2900682">
  <ele>442.9</ele>
  <time>2026-09-01T19:59:16Z</time>
  <course>188.49</course>
  <speed>1.075174404457249</speed>
  <fix>3d</fix>
</trkpt>
<trkpt lat="-27.2766839" lon="151.2900684">
  <ele>443.03</ele>
  <time>2026-09-01T19:59:16Z</time>
  <course>189.28</course>
  <speed>1.19</speed>
  <fix>3d</fix>
</trkpt>
<trkpt lat="-27.2766866" lon="151.290068">
  <ele>442.9</ele>
  <time>2026-09-01T19:59:16Z</time>
  <course>188.5</course>
  <speed>1.0178899744078433</speed>
  <fix>3d</fix>
</trkpt>
<trkpt lat="-27.2766839" lon="151.2900684">
  <ele>443.03</ele>
  <time>2026-09-01T19:59:16Z</time>
  <course>189.28</course>
  <speed>1.19</speed>
  <fix>3d</fix>
</trkpt>
<trkpt lat="-27.2766875" lon="151.2900678">
  <ele>442.89</ele>
  <time>2026-09-01T19:59:16Z</time>
  <course>188.51</course>
  <speed>0.9688137075826292</speed>
  <fix>3d</fix>
</trkpt>
<trkpt lat="-27.2766859" lon="151.290068">
  <ele>443.03</ele>
  <time>2026-09-01T19:59:16Z</time>
  <course>190.39</course>
  <speed>1.09</speed>
  <fix>3d</fix>
</trkpt>
<trkpt lat="-27.2766883" lon="151.2900676">
  <ele>442.89</ele>
  <time>2026-09-01T19:59:16Z</time>
  <course>188.51</course>
  <speed>0.9100549433962765</speed>
  <fix>3d</fix>
</trkpt>
<trkpt lat="-27.2766859" lon="151.290068">
  <ele>443.03</ele>
  <time>2026-09-01T19:59:16Z</time>
  <course>190.39</course>
  <speed>1.09</speed>
  <fix>3d</fix>
</trkpt>
<trkpt lat="-27.2766891" lon="151.2900674">
  <ele>442.89</ele>
  <time>2026-09-01T19:59:16Z</time>
  <course>188.52</course>
  <speed>0.8417244204607586</speed>
  <fix>3d</fix>
</trkpt>
<trkpt lat="-27.2766877" lon="151.2900676">
  <ele>443.03</ele>
  <time>2026-09-01T19:59:16Z</time>
  <course>191.74</course>
  <speed>0.98</speed>
  <fix>3d</fix>
</trkpt>
<trkpt lat="-27.2766898" lon="151.2900672">
  <ele>442.89</ele>
  <time>2026-09-01T19:59:16Z</time>
  <course>188.51</course>
  <speed>0.7833900688673555</speed>
  <fix>3d</fix>
</trkpt>
<trkpt lat="-27.2766877" lon="151.2900676">
  <ele>443.03</ele>
  <time>2026-09-01T19:59:16Z</time>
  <course>191.74</course>
  <speed>0.98</speed>
  <fix>3d</fix>
</trkpt>
<trkpt lat="-27.2766905" lon="151.290067">
  <ele>442.89</ele>
  <time>2026-09-01T19:59:16Z</time>
  <course>188.5</course>
  <speed>0.7156814934033155</speed>
  <fix>3d</fix>
</trkpt>
<trkpt lat="-27.2766893" lon="151.2900672">
  <ele>443.02</ele>
  <time>2026-09-01T19:59:16Z</time>
  <course>193.47</course>
  <speed>0.86</speed>
  <fix>3d</fix>
</trkpt>
<trkpt lat="-27.2766911" lon="151.2900668">
  <ele>442.89</ele>
  <time>2026-09-01T19:59:16Z</time>
  <course>188.49</course>
  <speed>0.6456004956627589</speed>
  <fix>3d</fix>
</trkpt>
<trkpt lat="-27.2766893" lon="151.2900672">
  <ele>443.02</ele>
  <time>2026-09-01T19:59:16Z</time>
  <course>193.47</course>
  <speed>0.86</speed>
  <fix>3d</fix>
</trkpt>
<trkpt lat="-27.2766916" lon="151.2900666">
  <ele>442.89</ele>
  <time>2026-09-01T19:59:16Z</time>
  <course>188.49</course>
  <speed>0.5787054518492115</speed>
  <fix>3d</fix>
</trkpt>
<trkpt lat="-27.2766907" lon="151.2900667">
  <ele>443.02</ele>
  <time>2026-09-01T19:59:16Z</time>
  <course>195.77</course>
  <speed>0.73</speed>
  <fix>3d</fix>
</trkpt>
<trkpt lat="-27.2766921" lon="151.2900664">
  <ele>442.89</ele>
  <time>2026-09-01T19:59:16Z</time>
  <course>188.49</course>
  <speed>0.5220153254455275</speed>
  <fix>3d</fix>
</trkpt>
<trkpt lat="-27.2766907" lon="151.2900667">
  <ele>443.02</ele>
  <time>2026-09-01T19:59:16Z</time>
  <course>195.77</course>
  <speed>0.73</speed>
  <fix>3d</fix>
</trkpt>
<trkpt lat="-27.2766925" lon="151.2900662">
  <ele>442.89</ele>
  <time>2026-09-01T19:59:16Z</time>
  <course>188.51</course>
  <speed>0.45694638635183454</speed>
  <fix>3d</fix>
</trkpt>
<trkpt lat="-27.2766918" lon="151.2900664">
  <ele>443.02</ele>
  <time>2026-09-01T19:59:16Z</time>
  <course>199.02</course>
  <speed>0.6</speed>
  <fix>3d</fix>
</trkpt>
<trkpt lat="-27.2766929" lon="151.290066">
  <ele>442.89</ele>
  <time>2026-09-01T19:59:16Z</time>
  <course>188.52</course>
  <speed>0.38910152916687435</speed>
  <fix>3d</fix>
</trkpt>
<trkpt lat="-27.2766918" lon="151.2900664">
  <ele>443.02</ele>
  <time>2026-09-01T19:59:16Z</time>
  <course>199.02</course>
  <speed>0.6</speed>
  <fix>3d</fix>
</trkpt>
<trkpt lat="-27.2766932" lon="151.2900658">
  <ele>442.89</ele>
  <time>2026-09-01T19:59:16Z</time>
  <course>188.54</course>
  <speed>0.327566787083184</speed>
  <fix>3d</fix>
</trkpt>
<trkpt lat="-27.2766928" lon="151.290066">
  <ele>443.02</ele>
  <time>2026-09-01T19:59:16Z</time>
  <course>203.92</course>
  <speed>0.46</speed>
  <fix>3d</fix>
</trkpt>
<trkpt lat="-27.2766934" lon="151.2900656">
  <ele>442.89</ele>
  <time>2026-09-01T19:59:16Z</time>
  <course>188.54</course>
  <speed>0.2640075756488817</speed>
  <fix>3d</fix>
</trkpt>
<trkpt lat="-27.2766928" lon="151.290066">
  <ele>443.02</ele>
  <time>2026-09-01T19:59:16Z</time>
  <course>203.92</course>
  <speed>0.46</speed>
  <fix>3d</fix>
</trkpt>
<trkpt lat="-27.2766936" lon="151.2900654">
  <ele>442.89</ele>
  <time>2026-09-01T19:59:16Z</time>
  <course>188.54</course>
  <speed>0.2193171219946131</speed>
  <fix>3d</fix>
</trkpt>
<trkpt lat="-27.2766934" lon="151.2900657">
  <ele>443.02</ele>
  <time>2026-09-01T19:59:16Z</time>
  <course>212.21</course>
  <speed>0.34</speed>
  <fix>3d</fix>
</trkpt>
<trkpt lat="-27.2766937" lon="151.2900653">
  <ele>442.89</ele>
  <time>2026-09-01T19:59:16Z</time>
  <course>188.53</course>
  <speed>0.17</speed>
  <fix>3d</fix>
</trkpt>
<trkpt lat="-27.2766934" lon="151.2900657">
  <ele>443.02</ele>
  <time>2026-09-01T19:59:16Z</time>
  <course>212.21</course>
  <speed>0.34</speed>
  <fix>3d</fix>
</trkpt>
<trkpt lat="-27.2766938" lon="151.2900651">
  <ele>442.89</ele>
  <time>2026-09-01T19:59:16Z</time>
  <course>188.53</course>
  <speed>0.15132745950421556</speed>
  <fix>3d</fix>
</trkpt>
<trkpt lat="-27.2766938" lon="151.2900652">
  <ele>443.02</ele>
  <time>2026-09-01T19:59:16Z</time>
  <course>228.43</course>
  <speed>0.23</speed>
  <fix>3d</fix>
</trkpt>
<trkpt lat="-27.2766938" lon="151.2900649">
  <ele>442.89</ele>
  <time>2026-09-01T19:59:16Z</time>
  <course>188.52</course>
  <speed>0.14317821063276354</speed>
  <fix>3d</fix>
</trkpt>
<trkpt lat="-27.2766938" lon="151.2900652">
  <ele>443.02</ele>
  <time>2026-09-01T19:59:16Z</time>
  <course>228.43</course>
  <speed>0.23</speed>
  <fix>3d</fix>
</trkpt>
<trkpt lat="-27.2766937" lon="151.2900648">
  <ele>442.89</ele>
  <time>2026-09-01T19:59:16Z</time>
  <course>188.52</course>
  <speed>0.1664331697709324</speed>
  <fix>3d</fix>
</trkpt>
<trkpt lat="-27.276694" lon="151.2900649">
  <ele>443.02</ele>
  <time>2026-09-01T19:59:16Z</time>
  <course>262.08</course>
  <speed>0.16</speed>
  <fix>3d</fix>
</trkpt>
<trkpt lat="-27.2766936" lon="151.2900646">
  <ele>442.89</ele>
  <time>2026-09-01T19:59:16Z</time>
  <course>188.53</course>
  <speed>0.191049731745428</speed>
  <fix>3d</fix>
</trkpt>
<trkpt lat="-27.276694" lon="151.2900649">
  <ele>443.02</ele>
  <time>2026-09-01T19:59:16Z</time>
  <course>262.08</course>
  <speed>0.16</speed>
  <fix>3d</fix>
</trkpt>
<trkpt lat="-27.2766935" lon="151.2900645">
  <ele>442.89</ele>
  <time>2026-09-01T19:59:16Z</time>
  <course>188.53</course>
  <speed>0.22472205054244232</speed>
  <fix>3d</fix>
</trkpt>
<trkpt lat="-27.2766939" lon="151.2900646">
  <ele>443.02</ele>
  <time>2026-09-01T19:59:16Z</time>
  <course>302.8</course>
  <speed>0.17</speed>
  <fix>3d</fix>
</trkpt>
<trkpt lat="-27.2766934" lon="151.2900644">
  <ele>442.88</ele>
  <time>2026-09-01T19:59:16Z</time>
  <course>188.54</course>
  <speed>0.25942243542145693</speed>
  <fix>3d</fix>
</trkpt>
<trkpt lat="-27.2766939" lon="151.2900646">
  <ele>443.02</ele>
  <time>2026-09-01T19:59:16Z</time>
  <course>302.8</course>
  <speed>0.17</speed>
  <fix>3d</fix>
</trkpt>
<trkpt lat="-27.2766932" lon="151.2900642">
  <ele>442.88</ele>
  <time>2026-09-01T19:59:16Z</time>
  <course>188.56</course>
  <speed>0.291547594742265</speed>
  <fix>3d</fix>
</trkpt>
<trkpt lat="-27.2766937" lon="151.2900643">
  <ele>443.02</ele>
  <time>2026-09-01T19:59:16Z</time>
  <course>325.26</course>
  <speed>0.24</speed>
  <fix>3d</fix>
</trkpt>
<trkpt lat="-27.2766929" lon="151.2900641">
  <ele>442.88</ele>
  <time>2026-09-01T19:59:16Z</time>
  <course>188.59</course>
  <speed>0.3195309061734092</speed>
  <fix>3d</fix>
</trkpt>
<trkpt lat="-27.2766937" lon="151.2900643">
  <ele>443.02</ele>
  <time>2026-09-01T19:59:16Z</time>
  <course>325.26</course>
  <speed>0.24</speed>
  <fix>3d</fix>
</trkpt>
<trkpt lat="-27.2766927" lon="151.290064">
  <ele>442.88</ele>
  <time>2026-09-01T19:59:16Z</time>
  <course>188.62</course>
  <speed>0.34481879299133333</speed>
  <fix>3d</fix>
</trkpt>
<trkpt lat="-27.2766933" lon="151.2900641">
  <ele>443.02</ele>
  <time>2026-09-01T19:59:16Z</time>
  <course>335.99</course>
  <speed>0.31</speed>
  <fix>3d</fix>
</trkpt>
<trkpt lat="-27.2766924" lon="151.2900639">
  <ele>442.88</ele>
  <time>2026-09-01T19:59:16Z</time>
  <course>188.65</course>
  <speed>0.37107950630558945</speed>
  <fix>3d</fix>
</trkpt>
<trkpt lat="-27.2766933" lon="151.2900641">
  <ele>443.02</ele>
  <time>2026-09-01T19:59:16Z</time>
  <course>335.99</course>
  <speed>0.31</speed>
  <fix>3d</fix>
</trkpt>
<trkpt lat="-27.276692" lon="151.2900638">
  <ele>442.88</ele>
  <time>2026-09-01T19:59:16Z</time>
  <course>188.69</course>
  <speed>0.388329756778952</speed>
  <fix>3d</fix>
</trkpt>
<trkpt lat="-27.2766928" lon="151.2900638">
  <ele>443.02</ele>
  <time>2026-09-01T19:59:16Z</time>
  <course>341.87</course>
  <speed>0.36</speed>
  <fix>3d</fix>
</trkpt>
<trkpt lat="-27.2766917" lon="151.2900637">
  <ele>442.88</ele>
  <time>2026-09-01T19:59:16Z</time>
  <course>188.73</course>
  <speed>0.39812058474788764</speed>
  <fix>3d</fix>
</trkpt>
<trkpt lat="-27.2766928" lon="151.2900638">
  <ele>443.02</ele>
  <time>2026-09-01T19:59:16Z</time>
  <course>341.87</course>
  <speed>0.36</speed>
  <fix>3d</fix>
</trkpt>
<trkpt lat="-27.2766914" lon="151.2900636">
  <ele>442.88</ele>
  <time>2026-09-01T19:59:16Z</time>
  <course>188.77</course>
  <speed>0.40607881008493907</speed>
  <fix>3d</fix>
</trkpt>
<trkpt lat="-27.2766921" lon="151.2900636">
  <ele>443.03</ele>
  <time>2026-09-01T19:59:16Z</time>
  <course>345.71</course>
  <speed>0.41</speed>
  <fix>3d</fix>
</trkpt>
<trkpt lat="-27.276691" lon="151.2900635">
  <ele>442.89</ele>
  <time>2026-09-01T19:59:16Z</time>
  <course>188.81</course>
  <speed>0.4143669871020132</speed>
  <fix>3d</fix>
</trkpt>
<trkpt lat="-27.2766921" lon="151.2900636">
  <ele>443.03</ele>
  <time>2026-09-01T19:59:16Z</time>
  <course>345.71</course>
  <speed>0.41</speed>
  <fix>3d</fix>
</trkpt>
<trkpt lat="-27.2766906" lon="151.2900634">
  <ele>442.89</ele>
  <time>2026-09-01T19:59:16Z</time>
  <course>188.84</course>
  <speed>0.422965719651132</speed>
  <fix>3d</fix>
</trkpt>
<trkpt lat="-27.2766913" lon="151.2900634">
  <ele>443.03</ele>
  <time>2026-09-01T19:59:16Z</time>
  <course>348.49</course>
  <speed>0.43</speed>
  <fix>3d</fix>
</trkpt>
<trkpt lat="-27.2766902" lon="151.2900634">
  <ele>442.89</ele>
  <time>2026-09-01T19:59:16Z</time>
  <course>188.85</course>
  <speed>0.422965719651132</speed>
  <fix>3d</fix>
</trkpt>
<trkpt lat="-27.2766913" lon="151.2900634">
  <ele>443.03</ele>
  <time>2026-09-01T19:59:16Z</time>
  <course>348.49</course>
  <speed>0.43</speed>
  <fix>3d</fix>
</trkpt>
<trkpt lat="-27.2766899" lon="151.2900633">
  <ele>442.89</ele>
  <time>2026-09-01T19:59:16Z</time>
  <course>188.86</course>
  <speed>0.4219004621945798</speed>
  <fix>3d</fix>
</trkpt>
<trkpt lat="-27.2766906" lon="151.2900632">
  <ele>443.03</ele>
  <time>2026-09-01T19:59:16Z</time>
  <course>350.65</course>
  <speed>0.45</speed>
  <fix>3d</fix>
</trkpt>
<trkpt lat="-27.2766895" lon="151.2900632">
  <ele>442.89</ele>
  <time>2026-09-01T19:59:16Z</time>
  <course>188.86</course>
  <speed>0.42107006542854597</speed>
  <fix>3d</fix>
</trkpt>
<trkpt lat="-27.2766906" lon="151.2900632">
  <ele>443.03</ele>
  <time>2026-09-01T19:59:16Z</time>
  <course>350.65</course>
  <speed>0.45</speed>
  <fix>3d</fix>
</trkpt>
<trkpt lat="-27.2766891" lon="151.2900632">
  <ele>442.9</ele>
  <time>2026-09-01T19:59:16Z</time>
  <course>188.86</course>
  <speed>0.42107006542854597</speed>
  <fix>3d</fix>
</trkpt>
<trkpt lat="-27.2766897" lon="151.2900631">
  <ele>443.04</ele>
  <time>2026-09-01T19:59:16Z</time>
  <course>352.45</course>
  <speed>0.46</speed>
  <fix>3d</fix>
</trkpt>
<trkpt lat="-27.2766887" lon="151.2900631">
  <ele>442.9</ele>
  <time>2026-09-01T19:59:16Z</time>
  <course>188.85</course>
  <speed>0.4204759208325728</speed>
  <fix>3d</fix>
</trkpt>
<trkpt lat="-27.2766897" lon="151.2900631">
  <ele>443.04</ele>
  <time>2026-09-01T19:59:16Z</time>
  <course>352.45</course>
  <speed>0.46</speed>
  <fix>3d</fix>
</trkpt>
<trkpt lat="-27.2766883" lon="151.2900631">
  <ele>442.9</ele>
  <time>2026-09-01T19:59:16Z</time>
  <course>188.84</course>
  <speed>0.41012193308819755</speed>
  <fix>3d</fix>
</trkpt>
<trkpt lat="-27.2766888" lon="151.290063">
  <ele>443.04</ele>
  <time>2026-09-01T19:59:16Z</time>
  <course>354.04</course>
  <speed>0.45</speed>
  <fix>3d</fix>
</trkpt>
<trkpt lat="-27.2766879" lon="151.2900631">
  <ele>442.91</ele>
  <time>2026-09-01T19:59:16Z</time>
  <course>188.84</course>
  <speed>0.41012193308819755</speed>
  <fix>3d</fix>
</trkpt>
<trkpt lat="-27.2766888" lon="151.290063">
  <ele>443.04</ele>
  <time>2026-09-01T19:59:16Z</time>
  <course>354.04</course>
  <speed>0.45</speed>
  <fix>3d</fix>
</trkpt>
<trkpt lat="-27.2766875" lon="151.290063">
  <ele>442.91</ele>
  <time>2026-09-01T19:59:16Z</time>
  <course>188.83</course>
  <speed>0.4</speed>
  <fix>3d</fix>
</trkpt>
<trkpt lat="-27.2766881" lon="151.2900629">
  <ele>443.04</ele>
  <time>2026-09-01T19:59:16Z</time>
  <course>355.53</course>
  <speed>0.45</speed>
  <fix>3d</fix>
</trkpt>
<trkpt lat="-27.2766872" lon="151.290063">
  <ele>442.91</ele>
  <time>2026-09-01T19:59:16Z</time>
  <course>188.81</course>
  <speed>0.39</speed>
  <fix>3d</fix>
</trkpt>
<trkpt lat="-27.2766881" lon="151.2900629">
  <ele>443.04</ele>
  <time>2026-09-01T19:59:16Z</time>
  <course>355.53</course>
  <speed>0.45</speed>
  <fix>3d</fix>
</trkpt>
<trkpt lat="-27.2766868" lon="151.290063">
  <ele>442.91</ele>
  <time>2026-09-01T19:59:16Z</time>
  <course>188.79</course>
  <speed>0.38</speed>
  <fix>3d</fix>
</trkpt>
<trkpt lat="-27.2766873" lon="151.2900628">
  <ele>443.04</ele>
  <time>2026-09-01T19:59:16Z</time>
  <course>356.92</course>
  <speed>0.43</speed>
  <fix>3d</fix>
</trkpt>
<trkpt lat="-27.2766864" lon="151.290063">
  <ele>442.91</ele>
  <time>2026-09-01T19:59:16Z</time>
  <course>188.77</course>
  <speed>0.37</speed>
  <fix>3d</fix>
</trkpt>
<trkpt lat="-27.2766873" lon="151.2900628">
  <ele>443.04</ele>
  <time>2026-09-01T19:59:16Z</time>
  <course>356.92</course>
  <speed>0.43</speed>
  <fix>3d</fix>
</trkpt>
<trkpt lat="-27.2766861" lon="151.290063">
  <ele>442.91</ele>
  <time>2026-09-01T19:59:16Z</time>
  <course>188.75</course>
  <speed>0.36013886210738216</speed>
  <fix>3d</fix>
</trkpt>
<trkpt lat="-27.2766865" lon="151.2900628">
  <ele>443.04</ele>
  <time>2026-09-01T19:59:16Z</time>
  <course>358.19</course>
  <speed>0.41</speed>
  <fix>3d</fix>
</trkpt>
<trkpt lat="-27.2766857" lon="151.290063">
  <ele>442.91</ele>
  <time>2026-09-01T19:59:16Z</time>
  <course>188.73</course>
  <speed>0.340147027033899</speed>
  <fix>3d</fix>
</trkpt>
<trkpt lat="-27.2766865" lon="151.2900628">
  <ele>443.04</ele>
  <time>2026-09-01T19:59:16Z</time>
  <course>358.19</course>
  <speed>0.41</speed>
  <fix>3d</fix>
</trkpt>
<trkpt lat="-27.2766854" lon="151.290063">
  <ele>442.91</ele>
  <time>2026-09-01T19:59:16Z</time>
  <course>188.71</course>
  <speed>0.3306055050963308</speed>
  <fix>3d</fix>
</trkpt>
<trkpt lat="-27.2766858" lon="151.2900627">
  <ele>443.03</ele>
  <time>2026-09-01T19:59:16Z</time>
  <course>359.41</course>
  <speed>0.39</speed>
  <fix>3d</fix>
</trkpt>
<trkpt lat="-27.2766851" lon="151.290063">
  <ele>442.9</ele>
  <time>2026-09-01T19:59:16Z</time>
  <course>188.7</course>
  <speed>0.32062439083762795</speed>
  <fix>3d</fix>
</trkpt>
<trkpt lat="-27.2766858" lon="151.2900627">
  <ele>443.03</ele>
  <time>2026-09-01T19:59:16Z</time>
  <course>359.41</course>
  <speed>0.39</speed>
  <fix>3d</fix>
</trkpt>
<trkpt lat="-27.2766848" lon="151.290063">
  <ele>442.9</ele>
  <time>2026-09-01T19:59:16Z</time>
  <course>188.68</course>
  <speed>0.31144823004794875</speed>
  <fix>3d</fix>
</trkpt>
<trkpt lat="-27.2766851" lon="151.2900627">
  <ele>443.03</ele>
  <time>2026-09-01T19:59:16Z</time>
  <course>0.73</course>
  <speed>0.37</speed>
  <fix>3d</fix>
</trkpt>
<trkpt lat="-27.2766845" lon="151.290063">
  <ele>442.9</ele>
  <time>2026-09-01T19:59:16Z</time>
  <course>188.67</course>
  <speed>0.291547594742265</speed>
  <fix>3d</fix>
</trkpt>
<trkpt lat="-27.2766851" lon="151.2900627">
  <ele>443.03</ele>
  <time>2026-09-01T19:59:16Z</time>
  <course>0.73</course>
  <speed>0.37</speed>
  <fix>3d</fix>
</trkpt>
<trkpt lat="-27.2766842" lon="151.290063">
  <ele>442.9</ele>
  <time>2026-09-01T19:59:16Z</time>
  <course>188.65</course>
  <speed>0.2816025568065745</speed>
  <fix>3d</fix>
</trkpt>
<trkpt lat="-27.2766845" lon="151.2900627">
  <ele>443.02</ele>
  <time>2026-09-01T19:59:16Z</time>
  <course>2.19</course>
  <speed>0.34</speed>
  <fix>3d</fix>
</trkpt>
<trkpt lat="-27.2766839" lon="151.290063">
  <ele>442.9</ele>
  <time>2026-09-01T19:59:16Z</time>
  <course>188.64</course>
  <speed>0.27294688127912364</speed>
  <fix>3d</fix>
</trkpt>
<trkpt lat="-27.2766845" lon="151.2900627">
  <ele>443.02</ele>
  <time>2026-09-01T19:59:16Z</time>
  <course>2.19</course>
  <speed>0.34</speed>
  <fix>3d</fix>
</trkpt>
<trkpt lat="-27.2766837" lon="151.290063">
  <ele>442.89</ele>
  <time>2026-09-01T19:59:16Z</time>
  <course>188.62</course>
  <speed>0.25317977802344327</speed>
  <fix>3d</fix>
</trkpt>
<trkpt lat="-27.2766839" lon="151.2900627">
  <ele>443.02</ele>
  <time>2026-09-01T19:59:16Z</time>
  <course>3.63</course>
  <speed>0.32</speed>
  <fix>3d</fix>
</trkpt>
<trkpt lat="-27.2766834" lon="151.290063">
  <ele>442.89</ele>
  <time>2026-09-01T19:59:16Z</time>
  <course>188.61</course>
  <speed>0.24331050121192876</speed>
  <fix>3d</fix>
</trkpt>
<trkpt lat="-27.2766839" lon="151.2900627">
  <ele>443.02</ele>
  <time>2026-09-01T19:59:16Z</time>
  <course>3.63</course>
  <speed>0.32</speed>
  <fix>3d</fix>
</trkpt>
<trkpt lat="-27.2766832" lon="151.290063">
  <ele>442.89</ele>
  <time>2026-09-01T19:59:16Z</time>
  <course>188.61</course>
  <speed>0.223606797749979</speed>
  <fix>3d</fix>
</trkpt>
<trkpt lat="-27.2766833" lon="151.2900628">
  <ele>443.01</ele>
  <time>2026-09-01T19:59:16Z</time>
  <course>5.1</course>
  <speed>0.29</speed>
  <fix>3d</fix>
</trkpt>
<trkpt lat="-27.276683" lon="151.2900631">
  <ele>442.89</ele>
  <time>2026-09-01T19:59:16Z</time>
  <course>188.6</course>
  <speed>0.215870331449229</speed>
  <fix>3d</fix>
</trkpt>
<trkpt lat="-27.2766833" lon="151.2900628">
  <ele>443.01</ele>
  <time>2026-09-01T19:59:16Z</time>
  <course>5.1</course>
  <speed>0.29</speed>
  <fix>3d</fix>
</trkpt>
<trkpt lat="-27.2766827" lon="151.2900631">
  <ele>442.89</ele>
  <time>2026-09-01T19:59:16Z</time>
  <course>188.58</course>
  <speed>0.20615528128088303</speed>
  <fix>3d</fix>
</trkpt>
<trkpt lat="-27.2766828" lon="151.2900628">
  <ele>443.01</ele>
  <time>2026-09-01T19:59:16Z</time>
  <course>6.72</course>
  <speed>0.26</speed>
  <fix>3d</fix>
</trkpt>
<trkpt lat="-27.2766825" lon="151.2900631">
  <ele>442.89</ele>
  <time>2026-09-01T19:59:16Z</time>
  <course>188.57</course>
  <speed>0.18681541692269404</speed>
  <fix>3d</fix>
</trkpt>
<trkpt lat="-27.2766828" lon="151.2900628">
  <ele>443.01</ele>
  <time>2026-09-01T19:59:16Z</time>
  <course>6.72</course>
  <speed>0.26</speed>
  <fix>3d</fix>
</trkpt>
<trkpt lat="-27.2766823" lon="151.2900631">
  <ele>442.89</ele>
  <time>2026-09-01T19:59:16Z</time>
  <course>188.53</course>
  <speed>0.1772004514666935</speed>
  <fix>3d</fix>
</trkpt>
<trkpt lat="-27.2766824" lon="151.2900629">
  <ele>443.01</ele>
  <time>2026-09-01T19:59:16Z</time>
  <course>8.3</course>
  <speed>0.23</speed>
  <fix>3d</fix>
</trkpt>
<trkpt lat="-27.2766822" lon="151.2900632">
  <ele>442.89</ele>
  <time>2026-09-01T19:59:16Z</time>
  <course>188.47</course>
  <speed>0.15811388300841897</speed>
  <fix>3d</fix>
</trkpt>
<trkpt lat="-27.2766824" lon="151.2900629">
  <ele>443.01</ele>
  <time>2026-09-01T19:59:16Z</time>
  <course>8.3</course>
  <speed>0.23</speed>
  <fix>3d</fix>
</trkpt>
<trkpt lat="-27.276682" lon="151.2900632">
  <ele>442.89</ele>
  <time>2026-09-01T19:59:16Z</time>
  <course>188.42</course>
  <speed>0.14866068747318506</speed>
  <fix>3d</fix>
</trkpt>
<trkpt lat="-27.276682" lon="151.290063">
  <ele>443.01</ele>
  <time>2026-09-01T19:59:16Z</time>
  <course>9.61</course>
  <speed>0.2</speed>
  <fix>3d</fix>
</trkpt>
<trkpt lat="-27.2766819" lon="151.2900632">
  <ele>442.89</ele>
  <time>2026-09-01T19:59:16Z</time>
  <course>188.37</course>
  <speed>0.13</speed>
  <fix>3d</fix>
</trkpt>
<trkpt lat="-27.276682" lon="151.290063">
  <ele>443.01</ele>
  <time>2026-09-01T19:59:16Z</time>
  <course>9.61</course>
  <speed>0.2</speed>
  <fix>3d</fix>
</trkpt>
<trkpt lat="-27.2766817" lon="151.2900633">
  <ele>442.9</ele>
  <time>2026-09-01T19:59:16Z</time>
  <course>188.34</course>
  <speed>0.12083045973594572</speed>
  <fix>3d</fix>
</trkpt>
<trkpt lat="-27.2766816" lon="151.2900631">
  <ele>443.01</ele>
  <time>2026-09-01T19:59:16Z</time>
  <course>10.9</course>
  <speed>0.17</speed>
  <fix>3d</fix>
</trkpt>
<trkpt lat="-27.2766816" lon="151.2900633">
  <ele>442.9</ele>
  <time>2026-09-01T19:59:16Z</time>
  <course>188.34</course>
  <speed>0.1118033988749895</speed>
  <fix>3d</fix>
</trkpt>
<trkpt lat="-27.2766816" lon="151.2900631">
  <ele>443.01</ele>
  <time>2026-09-01T19:59:16Z</time>
  <course>10.9</course>
  <speed>0.17</speed>
  <fix>3d</fix>
</trkpt>
<trkpt lat="-27.2766815" lon="151.2900633">
  <ele>442.9</ele>
  <time>2026-09-01T19:59:16Z</time>
  <course>188.34</course>
  <speed>0.09433981132056603</speed>
  <fix>3d</fix>
</trkpt>
<trkpt lat="-27.2766813" lon="151.2900631">
  <ele>443.01</ele>
  <time>2026-09-01T19:59:16Z</time>
  <course>12.73</course>
  <speed>0.15</speed>
  <fix>3d</fix>
</trkpt>
<trkpt lat="-27.2766814" lon="151.2900634">
  <ele>442.9</ele>
  <time>2026-09-01T19:59:16Z</time>
  <course>188.37</course>
  <speed>0.08602325267042626</speed>
  <fix>3d</fix>
</trkpt>
<trkpt lat="-27.2766813" lon="151.2900631">
  <ele>443.01</ele>
  <time>2026-09-01T19:59:16Z</time>
  <course>12.73</course>
  <speed>0.15</speed>
  <fix>3d</fix>
</trkpt>
<trkpt lat="-27.2766813" lon="151.2900634">
  <ele>442.9</ele>
  <time>2026-09-01T19:59:16Z</time>
  <course>188.4</course>
  <speed>0.07071067811865475</speed>
  <fix>3d</fix>
</trkpt>
<trkpt lat="-27.2766811" lon="151.2900632">
  <ele>443.01</ele>
  <time>2026-09-01T19:59:16Z</time>
  <course>15.31</course>
  <speed>0.12</speed>
  <fix>3d</fix>
</trkpt>
<trkpt lat="-27.2766812" lon="151.2900634">
  <ele>442.9</ele>
  <time>2026-09-01T19:59:16Z</time>
  <course>188.43</course>
  <speed>0.0565685424949238</speed>
  <fix>3d</fix>
</trkpt>
<trkpt lat="-27.2766811" lon="151.2900632">
  <ele>443.01</ele>
  <time>2026-09-01T19:59:16Z</time>
  <course>15.31</course>
  <speed>0.12</speed>
  <fix>3d</fix>
</trkpt>
<trkpt lat="-27.2766811" lon="151.2900635">
  <ele>442.9</ele>
  <time>2026-09-01T19:59:16Z</time>
  <course>188.46</course>
  <speed>0.044721359549995794</speed>
  <fix>3d</fix>
</trkpt>
<trkpt lat="-27.2766809" lon="151.2900632">
  <ele>443.01</ele>
  <time>2026-09-01T19:59:16Z</time>
  <course>19.23</course>
  <speed>0.09</speed>
  <fix>3d</fix>
</trkpt>
<trkpt lat="-27.2766811" lon="151.2900635">
  <ele>442.9</ele>
  <time>2026-09-01T19:59:16Z</time>
  <course>188.49</course>
  <speed>0.04</speed>
  <fix>3d</fix>
</trkpt>
<trkpt lat="-27.2766809" lon="151.2900632">
  <ele>443.01</ele>
  <time>2026-09-01T19:59:16Z</time>
  <course>19.23</course>
  <speed>0.09</speed>
  <fix>3d</fix>
</trkpt>
<trkpt lat="-27.2766811" lon="151.2900635">
  <ele>442.89</ele>
  <time>2026-09-01T19:59:16Z</time>
  <course>188.51</course>
  <speed>0.04</speed>
  <fix>3d</fix>
</trkpt>
<trkpt lat="-27.2766807" lon="151.2900633">
  <ele>443.01</ele>
  <time>2026-09-01T19:59:16Z</time>
  <course>26.61</course>
  <speed>0.06</speed>
  <fix>3d</fix>
</trkpt>
<trkpt lat="-27.276681" lon="151.2900635">
  <ele>442.89</ele>
  <time>2026-09-01T19:59:16Z</time>
  <course>188.52</course>
  <speed>0.044721359549995794</speed>
  <fix>3d</fix>
</trkpt>
<trkpt lat="-27.2766807" lon="151.2900633">
  <ele>443.01</ele>
  <time>2026-09-01T19:59:16Z</time>
  <course>26.61</course>
  <speed>0.06</speed>
  <fix>3d</fix>
</trkpt>
<trkpt lat="-27.276681" lon="151.2900635">
  <ele>442.89</ele>
  <time>2026-09-01T19:59:16Z</time>
  <course>188.52</course>
  <speed>0.05</speed>
  <fix>3d</fix>
</trkpt>
<trkpt lat="-27.2766807" lon="151.2900633">
  <ele>443.01</ele>
  <time>2026-09-01T19:59:16Z</time>
  <course>45.69</course>
  <speed>0.03</speed>
  <fix>3d</fix>
</trkpt>
<trkpt lat="-27.276681" lon="151.2900636">
  <ele>442.89</ele>
  <time>2026-09-01T19:59:16Z</time>
  <course>188.52</course>
  <speed>0.0565685424949238</speed>
  <fix>3d</fix>
</trkpt>
<trkpt lat="-27.2766807" lon="151.2900633">
  <ele>443.01</ele>
  <time>2026-09-01T19:59:16Z</time>
  <course>45.69</course>
  <speed>0.03</speed>
  <fix>3d</fix>
</trkpt>
<trkpt lat="-27.2766811" lon="151.2900636">
  <ele>442.89</ele>
  <time>2026-09-01T19:59:16Z</time>
  <course>188.52</course>
  <speed>0.07211102550927978</speed>
  <fix>3d</fix>
</trkpt>
<trkpt lat="-27.2766807" lon="151.2900634">
  <ele>443.01</ele>
  <time>2026-09-01T19:59:16Z</time>
  <course>104.84</course>
  <speed>0.02</speed>
  <fix>3d</fix>
</trkpt>
<trkpt lat="-27.2766811" lon="151.2900636">
  <ele>442.89</ele>
  <time>2026-09-01T19:59:16Z</time>
  <course>188.51</course>
  <speed>0.07615773105863909</speed>
  <fix>3d</fix>
</trkpt>
<trkpt lat="-27.2766807" lon="151.2900634">
  <ele>443.01</ele>
  <time>2026-09-01T19:59:16Z</time>
  <course>104.84</course>
  <speed>0.02</speed>
  <fix>3d</fix>
</trkpt>
<trkpt lat="-27.2766811" lon="151.2900636">
  <ele>442.89</ele>
  <time>2026-09-01T19:59:16Z</time>
  <course>188.5</course>
  <speed>0.09486832980505139</speed>
  <fix>3d</fix>
</trkpt>
<trkpt lat="-27.2766807" lon="151.2900635">
  <ele>443.01</ele>
  <time>2026-09-01T19:59:16Z</time>
  <course>150.38</course>
  <speed>0.04</speed>
  <fix>3d</fix>
</trkpt>
<trkpt lat="-27.2766811" lon="151.2900636">
  <ele>442.9</ele>
  <time>2026-09-01T19:59:16Z</time>
  <course>188.49</course>
  <speed>0.1044030650891055</speed>
  <fix>3d</fix>
</trkpt>
<trkpt lat="-27.2766807" lon="151.2900635">
  <ele>443.01</ele>
  <time>2026-09-01T19:59:16Z</time>
  <course>150.38</course>
  <speed>0.04</speed>
  <fix>3d</fix>
</trkpt>
<trkpt lat="-27.2766811" lon="151.2900637">
  <ele>442.9</ele>
  <time>2026-09-01T19:59:16Z</time>
  <course>188.48</course>
  <speed>0.11401754250991379</speed>
  <fix>3d</fix>
</trkpt>
<trkpt lat="-27.2766807" lon="151.2900635">
  <ele>443.0</ele>
  <time>2026-09-01T19:59:16Z</time>
  <course>164.87</course>
  <speed>0.06</speed>
  <fix>3d</fix>
</trkpt>
<trkpt lat="-27.2766812" lon="151.2900637">
  <ele>442.89</ele>
  <time>2026-09-01T19:59:16Z</time>
  <course>188.48</course>
  <speed>0.12369316876852982</speed>
  <fix>3d</fix>
</trkpt>
<trkpt lat="-27.2766807" lon="151.2900635">
  <ele>443.0</ele>
  <time>2026-09-01T19:59:16Z</time>
  <course>164.87</course>
  <speed>0.06</speed>
  <fix>3d</fix>
</trkpt>
<trkpt lat="-27.2766813" lon="151.2900637">
  <ele>442.89</ele>
  <time>2026-09-01T19:59:16Z</time>
  <course>188.48</course>
  <speed>0.13341664064126335</speed>
  <fix>3d</fix>
</trkpt>
<trkpt lat="-27.2766808" lon="151.2900636">
  <ele>443.0</ele>
  <time>2026-09-01T19:59:16Z</time>
  <course>171.24</course>
  <speed>0.09</speed>
  <fix>3d</fix>
</trkpt>
<trkpt lat="-27.2766814" lon="151.2900637">
  <ele>442.89</ele>
  <time>2026-09-01T19:59:16Z</time>
  <course>188.48</course>
  <speed>0.14317821063276354</speed>
  <fix>3d</fix>
</trkpt>
<trkpt lat="-27.2766808" lon="151.2900636">
  <ele>443.0</ele>
  <time>2026-09-01T19:59:16Z</time>
  <course>171.24</course>
  <speed>0.09</speed>
  <fix>3d</fix>
</trkpt>
<trkpt lat="-27.2766815" lon="151.2900637">
  <ele>442.89</ele>
  <time>2026-09-01T19:59:16Z</time>
  <course>188.49</course>
  <speed>0.15132745950421556</speed>
  <fix>3d</fix>
</trkpt>
<trkpt lat="-27.2766809" lon="151.2900636">
  <ele>443.0</ele>
  <time>2026-09-01T19:59:16Z</time>
  <course>174.63</course>
  <speed>0.11</speed>
  <fix>3d</fix>
</trkpt>
<trkpt lat="-27.2766816" lon="151.2900637">
  <ele>442.89</ele>
  <time>2026-09-01T19:59:16Z</time>
  <course>188.5</course>
  <speed>0.16124515496597097</speed>
  <fix>3d</fix>
</trkpt>
<trkpt lat="-27.2766809" lon="151.2900636">
  <ele>443.0</ele>
  <time>2026-09-01T19:59:16Z</time>
  <course>174.63</course>
  <speed>0.11</speed>
  <fix>3d</fix>
</trkpt>
<trkpt lat="-27.2766817" lon="151.2900637">
  <ele>442.89</ele>
  <time>2026-09-01T19:59:16Z</time>
  <course>188.5</course>
  <speed>0.1711724276862369</speed>
  <fix>3d</fix>
</trkpt>
<trkpt lat="-27.2766812" lon="151.2900636">
  <ele>443.0</ele>
  <time>2026-09-01T19:59:16Z</time>
  <course>176.85</course>
  <speed>0.13</speed>
  <fix>3d</fix>
</trkpt>
<trkpt lat="-27.2766818" lon="151.2900637">
  <ele>442.88</ele>
  <time>2026-09-01T19:59:16Z</time>
  <course>188.51</course>
  <speed>0.1711724276862369</speed>
  <fix>3d</fix>
</trkpt>
<trkpt lat="-27.2766812" lon="151.2900636">
  <ele>443.0</ele>
  <time>2026-09-01T19:59:16Z</time>
  <course>176.85</course>
  <speed>0.13</speed>
  <fix>3d</fix>
</trkpt>
<trkpt lat="-27.276682" lon="151.2900638">
  <ele>442.88</ele>
  <time>2026-09-01T19:59:16Z</time>
  <course>188.51</course>
  <speed>0.18110770276274835</speed>
  <fix>3d</fix>
</trkpt>
<trkpt lat="-27.2766815" lon="151.2900636">
  <ele>443.0</ele>
  <time>2026-09-01T19:59:16Z</time>
  <course>178.71</course>
  <speed>0.15</speed>
  <fix>3d</fix>
</trkpt>
<trkpt lat="-27.2766821" lon="151.2900638">
  <ele>442.88</ele>
  <time>2026-09-01T19:59:16Z</time>
  <course>188.51</course>
  <speed>0.18027756377319945</speed>
  <fix>3d</fix>
</trkpt>
<trkpt lat="-27.2766815" lon="151.2900636">
  <ele>443.0</ele>
  <time>2026-09-01T19:59:16Z</time>
  <course>178.71</course>
  <speed>0.15</speed>
  <fix>3d</fix>
</trkpt>
<trkpt lat="-27.2766823" lon="151.2900637">
  <ele>442.88</ele>
  <time>2026-09-01T19:59:16Z</time>
  <course>188.51</course>
  <speed>0.19026297590440447</speed>
  <fix>3d</fix>
</trkpt>
<trkpt lat="-27.2766818" lon="151.2900636">
  <ele>443.0</ele>
  <time>2026-09-01T19:59:16Z</time>
  <course>180.35</course>
  <speed>0.16</speed>
  <fix>3d</fix>
</trkpt>
<trkpt lat="-27.2766824" lon="151.2900637">
  <ele>442.88</ele>
  <time>2026-09-01T19:59:16Z</time>
  <course>188.51</course>
  <speed>0.19026297590440447</speed>
  <fix>3d</fix>
</trkpt>
<trkpt lat="-27.2766818" lon="151.2900636">
  <ele>443.0</ele>
  <time>2026-09-01T19:59:16Z</time>
  <course>180.35</course>
  <speed>0.16</speed>
  <fix>3d</fix>
</trkpt>
<trkpt lat="-27.2766826" lon="151.2900637">
  <ele>442.88</ele>
  <time>2026-09-01T19:59:16Z</time>
  <course>188.5</course>
  <speed>0.19026297590440447</speed>
  <fix>3d</fix>
</trkpt>
<trkpt lat="-27.2766821" lon="151.2900636">
  <ele>443.0</ele>
  <time>2026-09-01T19:59:16Z</time>
  <course>181.78</course>
  <speed>0.17</speed>
  <fix>3d</fix>
</trkpt>
<trkpt lat="-27.2766827" lon="151.2900637">
  <ele>442.88</ele>
  <time>2026-09-01T19:59:16Z</time>
  <course>188.5</course>
  <speed>0.19026297590440447</speed>
  <fix>3d</fix>
</trkpt>
<trkpt lat="-27.2766821" lon="151.2900636">
  <ele>443.0</ele>
  <time>2026-09-01T19:59:16Z</time>
  <course>181.78</course>
  <speed>0.17</speed>
  <fix>3d</fix>
</trkpt>
<trkpt lat="-27.2766829" lon="151.2900637">
  <ele>442.88</ele>
  <time>2026-09-01T19:59:16Z</time>
  <course>188.5</course>
  <speed>0.19</speed>
  <fix>3d</fix>
</trkpt>
<trkpt lat="-27.2766824" lon="151.2900636">
  <ele>443.01</ele>
  <time>2026-09-01T19:59:16Z</time>
  <course>182.98</course>
  <speed>0.17</speed>
  <fix>3d</fix>
</trkpt>
<trkpt lat="-27.276683" lon="151.2900637">
  <ele>442.88</ele>
  <time>2026-09-01T19:59:16Z</time>
  <course>188.5</course>
  <speed>0.19</speed>
  <fix>3d</fix>
</trkpt>
<trkpt lat="-27.2766824" lon="151.2900636">
  <ele>443.01</ele>
  <time>2026-09-01T19:59:16Z</time>
  <course>182.98</course>
  <speed>0.17</speed>
  <fix>3d</fix>
</trkpt>
<trkpt lat="-27.2766832" lon="151.2900637">
  <ele>442.88</ele>
  <time>2026-09-01T19:59:16Z</time>
  <course>188.51</course>
  <speed>0.19</speed>
  <fix>3d</fix>
</trkpt>
<trkpt lat="-27.2766827" lon="151.2900636">
  <ele>443.01</ele>
  <time>2026-09-01T19:59:16Z</time>
  <course>183.94</course>
  <speed>0.18</speed>
  <fix>3d</fix>
</trkpt>
<trkpt lat="-27.2766833" lon="151.2900637">
  <ele>442.88</ele>
  <time>2026-09-01T19:59:16Z</time>
  <course>188.51</course>
  <speed>0.19</speed>
  <fix>3d</fix>
</trkpt>
<trkpt lat="-27.2766827" lon="151.2900636">
  <ele>443.01</ele>
  <time>2026-09-01T19:59:16Z</time>
  <course>183.94</course>
  <speed>0.18</speed>
  <fix>3d</fix>
</trkpt>
<trkpt lat="-27.2766835" lon="151.2900637">
  <ele>442.88</ele>
  <time>2026-09-01T19:59:16Z</time>
  <course>188.52</course>
  <speed>0.19</speed>
  <fix>3d</fix>
</trkpt>
<trkpt lat="-27.276683" lon="151.2900636">
  <ele>443.01</ele>
  <time>2026-09-01T19:59:16Z</time>
  <course>184.69</course>
  <speed>0.18</speed>
  <fix>3d</fix>
</trkpt>
<trkpt lat="-27.2766836" lon="151.2900637">
  <ele>442.89</ele>
  <time>2026-09-01T19:59:16Z</time>
  <course>188.53</course>
  <speed>0.19</speed>
  <fix>3d</fix>
</trkpt>
<trkpt lat="-27.276683" lon="151.2900636">
  <ele>443.01</ele>
  <time>2026-09-01T19:59:16Z</time>
  <course>184.69</course>
  <speed>0.18</speed>
  <fix>3d</fix>
</trkpt>
<trkpt lat="-27.2766838" lon="151.2900637">
  <ele>442.89</ele>
  <time>2026-09-01T19:59:16Z</time>
  <course>188.53</course>
  <speed>0.18</speed>
  <fix>3d</fix>
</trkpt>
<trkpt lat="-27.2766833" lon="151.2900636">
  <ele>443.01</ele>
  <time>2026-09-01T19:59:16Z</time>
  <course>185.35</course>
  <speed>0.17</speed>
  <fix>3d</fix>
</trkpt>
<trkpt lat="-27.2766839" lon="151.2900637">
  <ele>442.89</ele>
  <time>2026-09-01T19:59:16Z</time>
  <course>188.53</course>
  <speed>0.18</speed>
  <fix>3d</fix>
</trkpt>
<trkpt lat="-27.2766833" lon="151.2900636">
  <ele>443.01</ele>
  <time>2026-09-01T19:59:16Z</time>
  <course>185.35</course>
  <speed>0.17</speed>
  <fix>3d</fix>
</trkpt>
<trkpt lat="-27.2766841" lon="151.2900637">
  <ele>442.89</ele>
  <time>2026-09-01T19:59:16Z</time>
  <course>188.52</course>
  <speed>0.17</speed>
  <fix>3d</fix>
</trkpt>
<trkpt lat="-27.2766836" lon="151.2900636">
  <ele>443.02</ele>
  <time>2026-09-01T19:59:16Z</time>
  <course>186.05</course>
  <speed>0.17</speed>
  <fix>3d</fix>
</trkpt>
<trkpt lat="-27.2766842" lon="151.2900637">
  <ele>442.89</ele>
  <time>2026-09-01T19:59:17Z</time>
  <course>188.51</course>
  <speed>0.17</speed>
  <fix>3d</fix>
</trkpt>
<trkpt lat="-27.2766836" lon="151.2900636">
  <ele>443.02</ele>
  <time>2026-09-01T19:59:17Z</time>
  <course>186.05</course>
  <speed>0.17</speed>
  <fix>3d</fix>
</trkpt>
<trkpt lat="-27.2766843" lon="151.2900637">
  <ele>442.89</ele>
  <time>2026-09-01T19:59:17Z</time>
  <course>188.5</course>
  <speed>0.16</speed>
  <fix>3d</fix>
</trkpt>
<trkpt lat="-27.2766839" lon="151.2900635">
  <ele>443.02</ele>
  <time>2026-09-01T19:59:17Z</time>
  <course>186.82</course>
  <speed>0.16</speed>
  <fix>3d</fix>
</trkpt>
<trkpt lat="-27.2766844" lon="151.2900637">
  <ele>442.89</ele>
  <time>2026-09-01T19:59:17Z</time>
  <course>188.49</course>
  <speed>0.15</speed>
  <fix>3d</fix>
</trkpt>
<trkpt lat="-27.2766839" lon="151.2900635">
  <ele>443.02</ele>
  <time>2026-09-01T19:59:17Z</time>
  <course>186.82</course>
  <speed>0.16</speed>
  <fix>3d</fix>
</trkpt>
<trkpt lat="-27.2766846" lon="151.2900637">
  <ele>442.89</ele>
  <time>2026-09-01T19:59:17Z</time>
  <course>188.49</course>
  <speed>0.14</speed>
  <fix>3d</fix>
</trkpt>
<trkpt lat="-27.2766842" lon="151.2900635">
  <ele>443.02</ele>
  <time>2026-09-01T19:59:17Z</time>
  <course>187.8</course>
  <speed>0.14</speed>
  <fix>3d</fix>
</trkpt>
<trkpt lat="-27.2766847" lon="151.2900637">
  <ele>442.89</ele>
  <time>2026-09-01T19:59:17Z</time>
  <course>188.5</course>
  <speed>0.14</speed>
  <fix>3d</fix>
</trkpt>
<trkpt lat="-27.2766842" lon="151.2900635">
  <ele>443.02</ele>
  <time>2026-09-01T19:59:17Z</time>
  <course>187.8</course>
  <speed>0.14</speed>
  <fix>3d</fix>
</trkpt>
<trkpt lat="-27.2766848" lon="151.2900636">
  <ele>442.89</ele>
  <time>2026-09-01T19:59:17Z</time>
  <course>188.51</course>
  <speed>0.13</speed>
  <fix>3d</fix>
</trkpt>
<trkpt lat="-27.2766845" lon="151.2900635">
  <ele>443.02</ele>
  <time>2026-09-01T19:59:17Z</time>
  <course>189.04</course>
  <speed>0.13</speed>
  <fix>3d</fix>
</trkpt>
<trkpt lat="-27.2766849" lon="151.2900636">
  <ele>442.89</ele>
  <time>2026-09-01T19:59:17Z</time>
  <course>188.52</course>
  <speed>0.12</speed>
  <fix>3d</fix>
</trkpt>
<trkpt lat="-27.2766845" lon="151.2900635">
  <ele>443.02</ele>
  <time>2026-09-01T19:59:17Z</time>
  <course>189.04</course>
  <speed>0.13</speed>
  <fix>3d</fix>
</trkpt>
<trkpt lat="-27.276685" lon="151.2900636">
  <ele>442.89</ele>
  <time>2026-09-01T19:59:17Z</time>
  <course>188.52</course>
  <speed>0.11</speed>
  <fix>3d</fix>
</trkpt>
<trkpt lat="-27.2766846" lon="151.2900634">
  <ele>443.02</ele>
  <time>2026-09-01T19:59:17Z</time>
  <course>190.23</course>
  <speed>0.11</speed>
  <fix>3d</fix>
</trkpt>
<trkpt lat="-27.276685" lon="151.2900636">
  <ele>442.89</ele>
  <time>2026-09-01T19:59:17Z</time>
  <course>188.52</course>
  <speed>0.1</speed>
  <fix>3d</fix>
</trkpt>
<trkpt lat="-27.2766846" lon="151.2900634">
  <ele>443.02</ele>
  <time>2026-09-01T19:59:17Z</time>
  <course>190.23</course>
  <speed>0.11</speed>
  <fix>3d</fix>
</trkpt>
<trkpt lat="-27.2766851" lon="151.2900636">
  <ele>442.89</ele>
  <time>2026-09-01T19:59:17Z</time>
  <course>188.52</course>
  <speed>0.09</speed>
  <fix>3d</fix>
</trkpt>
<trkpt lat="-27.2766849" lon="151.2900633">
  <ele>443.02</ele>
  <time>2026-09-01T19:59:17Z</time>
  <course>191.51</course>
  <speed>0.1</speed>
  <fix>3d</fix>
</trkpt>
<trkpt lat="-27.2766852" lon="151.2900636">
  <ele>442.9</ele>
  <time>2026-09-01T19:59:17Z</time>
  <course>188.52</course>
  <speed>0.09</speed>
  <fix>3d</fix>
</trkpt>
<trkpt lat="-27.2766849" lon="151.2900633">
  <ele>443.02</ele>
  <time>2026-09-01T19:59:17Z</time>
  <course>191.51</course>
  <speed>0.1</speed>
  <fix>3d</fix>
</trkpt>
<trkpt lat="-27.2766853" lon="151.2900635">
  <ele>442.9</ele>
  <time>2026-09-01T19:59:17Z</time>
  <course>188.52</course>
  <speed>0.08</speed>
  <fix>3d</fix>
</trkpt>
<trkpt lat="-27.2766851" lon="151.2900633">
  <ele>443.02</ele>
  <time>2026-09-01T19:59:17Z</time>
  <course>193.41</course>
  <speed>0.08</speed>
  <fix>3d</fix>
</trkpt>
<trkpt lat="-27.2766853" lon="151.2900635">
  <ele>442.9</ele>
  <time>2026-09-01T19:59:17Z</time>
  <course>188.52</course>
  <speed>0.07</speed>
  <fix>3d</fix>
</trkpt>
<trkpt lat="-27.2766851" lon="151.2900633">
  <ele>443.02</ele>
  <time>2026-09-01T19:59:17Z</time>
  <course>193.41</course>
  <speed>0.08</speed>
  <fix>3d</fix>
</trkpt>
<trkpt lat="-27.2766854" lon="151.2900635">
  <ele>442.91</ele>
  <time>2026-09-01T19:59:17Z</time>
  <course>188.53</course>
  <speed>0.06</speed>
  <fix>3d</fix>
</trkpt>
<trkpt lat="-27.2766852" lon="151.2900632">
  <ele>443.02</ele>
  <time>2026-09-01T19:59:17Z</time>
  <course>196.49</course>
  <speed>0.06</speed>
  <fix>3d</fix>
</trkpt>
<trkpt lat="-27.2766854" lon="151.2900635">
  <ele>442.91</ele>
  <time>2026-09-01T19:59:17Z</time>
  <course>188.53</course>
  <speed>0.05</speed>
  <fix>3d</fix>
</trkpt>
<trkpt lat="-27.2766852" lon="151.2900632">
  <ele>443.02</ele>
  <time>2026-09-01T19:59:17Z</time>
  <course>196.49</course>
  <speed>0.06</speed>
  <fix>3d</fix>
</trkpt>
<trkpt lat="-27.2766854" lon="151.2900635">
  <ele>442.91</ele>
  <time>2026-09-01T19:59:17Z</time>
  <course>188.53</course>
  <speed>0.04</speed>
  <fix>3d</fix>
</trkpt>
<trkpt lat="-27.2766853" lon="151.2900632">
  <ele>443.02</ele>
  <time>2026-09-01T19:59:17Z</time>
  <course>201.62</course>
  <speed>0.04</speed>
  <fix>3d</fix>
</trkpt>
<trkpt lat="-27.2766855" lon="151.2900635">
  <ele>442.91</ele>
  <time>2026-09-01T19:59:17Z</time>
  <course>188.53</course>
  <speed>0.03</speed>
  <fix>3d</fix>
</trkpt>
<trkpt lat="-27.2766853" lon="151.2900632">
  <ele>443.02</ele>
  <time>2026-09-01T19:59:17Z</time>
  <course>201.62</course>
  <speed>0.04</speed>
  <fix>3d</fix>
</trkpt>
<trkpt lat="-27.2766855" lon="151.2900634">
  <ele>442.91</ele>
  <time>2026-09-01T19:59:17Z</time>
  <course>188.54</course>
  <speed>0.02</speed>
  <fix>3d</fix>
</trkpt>
<trkpt lat="-27.2766854" lon="151.2900632">
  <ele>443.01</ele>
  <time>2026-09-01T19:59:17Z</time>
  <course>211.1</course>
  <speed>0.02</speed>
  <fix>3d</fix>
</trkpt>
<trkpt lat="-27.2766855" lon="151.2900634">
  <ele>442.91</ele>
  <time>2026-09-01T19:59:17Z</time>
  <course>188.54</course>
  <speed>0.022360679774997897</speed>
  <fix>3d</fix>
</trkpt>
<trkpt lat="-27.2766854" lon="151.2900632">
  <ele>443.01</ele>
  <time>2026-09-01T19:59:17Z</time>
  <course>211.1</course>
  <speed>0.02</speed>
  <fix>3d</fix>
</trkpt>
<trkpt lat="-27.2766855" lon="151.2900634">
  <ele>442.91</ele>
  <time>2026-09-01T19:59:17Z</time>
  <course>188.54</course>
  <speed>0.01414213562373095</speed>
  <fix>3d</fix>
</trkpt>
<trkpt lat="-27.2766854" lon="151.2900632">
  <ele>443.01</ele>
  <time>2026-09-01T19:59:17Z</time>
  <course>237.9</course>
  <speed>0.01</speed>
  <fix>3d</fix>
</trkpt>
<trkpt lat="-27.2766855" lon="151.2900634">
  <ele>442.91</ele>
  <time>2026-09-01T19:59:17Z</time>
  <course>188.54</course>
  <speed>0.01</speed>
  <fix>3d</fix>
</trkpt>
<trkpt lat="-27.2766854" lon="151.2900632">
  <ele>443.01</ele>
  <time>2026-09-01T19:59:17Z</time>
  <course>237.9</course>
  <speed>0.01</speed>
  <fix>3d</fix>
</trkpt>
<trkpt lat="-27.2766855" lon="151.2900634">
  <ele>442.91</ele>
  <time>2026-09-01T19:59:17Z</time>
  <course>188.54</course>
  <speed>0.01</speed>
  <fix>3d</fix>
</trkpt>
<trkpt lat="-27.2766854" lon="151.2900632">
  <ele>443.0</ele>
  <time>2026-09-01T19:59:17Z</time>
  <course>316.13</course>
  <speed>0.01</speed>
  <fix>3d</fix>
</trkpt>
<trkpt lat="-27.2766854" lon="151.2900634">
  <ele>442.91</ele>
  <time>2026-09-01T19:59:17Z</time>
  <course>188.54</course>
  <speed>0.01414213562373095</speed>
  <fix>3d</fix>
</trkpt>
<trkpt lat="-27.2766854" lon="151.2900632">
  <ele>443.0</ele>
  <time>2026-09-01T19:59:17Z</time>
  <course>316.13</course>
  <speed>0.01</speed>
  <fix>3d</fix>
</trkpt>
<trkpt lat="-27.2766854" lon="151.2900634">
  <ele>442.9</ele>
  <time>2026-09-01T19:59:17Z</time>
  <course>188.54</course>
  <speed>0.022360679774997897</speed>
  <fix>3d</fix>
</trkpt>
<trkpt lat="-27.2766854" lon="151.2900632">
  <ele>443.0</ele>
  <time>2026-09-01T19:59:17Z</time>
  <course>346.37</course>
  <speed>0.02</speed>
  <fix>3d</fix>
</trkpt>
<trkpt lat="-27.2766854" lon="151.2900634">
  <ele>442.9</ele>
  <time>2026-09-01T19:59:17Z</time>
  <course>188.54</course>
  <speed>0.022360679774997897</speed>
  <fix>3d</fix>
</trkpt>
<trkpt lat="-27.2766854" lon="151.2900632">
  <ele>443.0</ele>
  <time>2026-09-01T19:59:17Z</time>
  <course>346.37</course>
  <speed>0.02</speed>
  <fix>3d</fix>
</trkpt>
<trkpt lat="-27.2766854" lon="151.2900634">
  <ele>442.9</ele>
  <time>2026-09-01T19:59:17Z</time>
  <course>188.54</course>
  <speed>0.0316227766016838</speed>
  <fix>3d</fix>
</trkpt>
<trkpt lat="-27.2766854" lon="151.2900632">
  <ele>442.99</ele>
  <time>2026-09-01T19:59:17Z</time>
  <course>354.25</course>
  <speed>0.04</speed>
  <fix>3d</fix>
</trkpt>
<trkpt lat="-27.2766854" lon="151.2900634">
  <ele>442.9</ele>
  <time>2026-09-01T19:59:17Z</time>
  <course>188.54</course>
  <speed>0.03605551275463989</speed>
  <fix>3d</fix>
</trkpt>
<trkpt lat="-27.2766854" lon="151.2900632">
  <ele>442.99</ele>
  <time>2026-09-01T19:59:17Z</time>
  <course>354.25</course>
  <speed>0.04</speed>
  <fix>3d</fix>
</trkpt>
<trkpt lat="-27.2766853" lon="151.2900634">
  <ele>442.89</ele>
  <time>2026-09-01T19:59:17Z</time>
  <course>188.55</course>
  <speed>0.044721359549995794</speed>
  <fix>3d</fix>
</trkpt>
<trkpt lat="-27.2766853" lon="151.2900632">
  <ele>442.99</ele>
  <time>2026-09-01T19:59:17Z</time>
  <course>357.58</course>
  <speed>0.05</speed>
  <fix>3d</fix>
</trkpt>
<trkpt lat="-27.2766853" lon="151.2900634">
  <ele>442.89</ele>
  <time>2026-09-01T19:59:17Z</time>
  <course>188.55</course>
  <speed>0.044721359549995794</speed>
  <fix>3d</fix>
</trkpt>
<trkpt lat="-27.2766853" lon="151.2900632">
  <ele>442.99</ele>
  <time>2026-09-01T19:59:17Z</time>
  <course>357.58</course>
  <speed>0.05</speed>
  <fix>3d</fix>
</trkpt>
<trkpt lat="-27.2766852" lon="151.2900634">
  <ele>442.89</ele>
  <time>2026-09-01T19:59:17Z</time>
  <course>188.55</course>
  <speed>0.053851648071345036</speed>
  <fix>3d</fix>
</trkpt>
<trkpt lat="-27.2766852" lon="151.2900632">
  <ele>442.99</ele>
  <time>2026-09-01T19:59:17Z</time>
  <course>359.71</course>
  <speed>0.06</speed>
  <fix>3d</fix>
</trkpt>
<trkpt lat="-27.2766852" lon="151.2900634">
  <ele>442.89</ele>
  <time>2026-09-01T19:59:17Z</time>
  <course>188.55</course>
  <speed>0.053851648071345036</speed>
  <fix>3d</fix>
</trkpt>
<trkpt lat="-27.2766852" lon="151.2900632">
  <ele>442.99</ele>
  <time>2026-09-01T19:59:17Z</time>
  <course>359.71</course>
  <speed>0.06</speed>
  <fix>3d</fix>
</trkpt>
<trkpt lat="-27.2766851" lon="151.2900634">
  <ele>442.89</ele>
  <time>2026-09-01T19:59:17Z</time>
  <course>188.54</course>
  <speed>0.053851648071345036</speed>
  <fix>3d</fix>
</trkpt>
<trkpt lat="-27.276685" lon="151.2900632">
  <ele>442.98</ele>
  <time>2026-09-01T19:59:17Z</time>
  <course>1.14</course>
  <speed>0.07</speed>
  <fix>3d</fix>
</trkpt>
<trkpt lat="-27.276685" lon="151.2900634">
  <ele>442.89</ele>
  <time>2026-09-01T19:59:17Z</time>
  <course>188.54</course>
  <speed>0.053851648071345036</speed>
  <fix>3d</fix>
</trkpt>
<trkpt lat="-27.276685" lon="151.2900632">
  <ele>442.98</ele>
  <time>2026-09-01T19:59:17Z</time>
  <course>1.14</course>
  <speed>0.07</speed>
  <fix>3d</fix>
</trkpt>
<trkpt lat="-27.276685" lon="151.2900634">
  <ele>442.89</ele>
  <time>2026-09-01T19:59:17Z</time>
  <course>188.54</course>
  <speed>0.0632455532033676</speed>
  <fix>3d</fix>
</trkpt>
<trkpt lat="-27.2766849" lon="151.2900632">
  <ele>442.98</ele>
  <time>2026-09-01T19:59:17Z</time>
  <course>1.96</course>
  <speed>0.08</speed>
  <fix>3d</fix>
</trkpt>
<trkpt lat="-27.2766849" lon="151.2900634">
  <ele>442.89</ele>
  <time>2026-09-01T19:59:17Z</time>
  <course>188.54</course>
  <speed>0.053851648071345036</speed>
  <fix>3d</fix>
</trkpt>
<trkpt lat="-27.2766849" lon="151.2900632">
  <ele>442.98</ele>
  <time>2026-09-01T19:59:17Z</time>
  <course>1.96</course>
  <speed>0.08</speed>
  <fix>3d</fix>
</trkpt>
<trkpt lat="-27.2766848" lon="151.2900634">
  <ele>442.89</ele>
  <time>2026-09-01T19:59:17Z</time>
  <course>188.52</course>
  <speed>0.01</speed>
  <fix>3d</fix>
</trkpt>
<trkpt lat="-27.2766848" lon="151.2900632">
  <ele>442.98</ele>
  <time>2026-09-01T19:59:17Z</time>
  <course>2.25</course>
  <speed>0.08</speed>
  <fix>3d</fix>
</trkpt>
<trkpt lat="-27.2766849" lon="151.2900634">
  <ele>442.88</ele>
  <time>2026-09-01T19:59:17Z</time>
  <course>188.48</course>
  <speed>0.1</speed>
  <fix>3d</fix>
</trkpt>
<trkpt lat="-27.2766848" lon="151.2900632">
  <ele>442.98</ele>
  <time>2026-09-01T19:59:17Z</time>
  <course>2.25</course>
  <speed>0.08</speed>
  <fix>3d</fix>
</trkpt>
<trkpt lat="-27.2766849" lon="151.2900634">
  <ele>442.88</ele>
  <time>2026-09-01T19:59:17Z</time>
  <course>188.39</course>
  <speed>0.27018512172212594</speed>
  <fix>3d</fix>
</trkpt>
<trkpt lat="-27.2766846" lon="151.2900632">
  <ele>442.98</ele>
  <time>2026-09-01T19:59:17Z</time>
  <course>314.58</course>
  <speed>0.01</speed>
  <fix>3d</fix>
</trkpt>
<trkpt lat="-27.2766853" lon="151.2900634">
  <ele>442.88</ele>
  <time>2026-09-01T19:59:17Z</time>
  <course>188.26</course>
  <speed>0.5015974481593781</speed>
  <fix>3d</fix>
</trkpt>
<trkpt lat="-27.2766846" lon="151.2900632">
  <ele>442.98</ele>
  <time>2026-09-01T19:59:17Z</time>
  <course>314.58</course>
  <speed>0.01</speed>
  <fix>3d</fix>
</trkpt>
<trkpt lat="-27.2766858" lon="151.2900633">
  <ele>442.88</ele>
  <time>2026-09-01T19:59:17Z</time>
  <course>188.03</course>
  <speed>0.8030566605165541</speed>
  <fix>3d</fix>
</trkpt>
<trkpt lat="-27.2766848" lon="151.2900631">
  <ele>442.98</ele>
  <time>2026-09-01T19:59:17Z</time>
  <course>189.13</course>
  <speed>0.26</speed>
  <fix>3d</fix>
</trkpt>
<trkpt lat="-27.2766867" lon="151.2900632">
  <ele>442.88</ele>
  <time>2026-09-01T19:59:17Z</time>
  <course>187.76</course>
  <speed>1.1543396380615194</speed>
  <fix>3d</fix>
</trkpt>
<trkpt lat="-27.2766848" lon="151.2900631">
  <ele>442.98</ele>
  <time>2026-09-01T19:59:17Z</time>
  <course>189.13</course>
  <speed>0.26</speed>
  <fix>3d</fix>
</trkpt>
<trkpt lat="-27.2766878" lon="151.290063">
  <ele>442.88</ele>
  <time>2026-09-01T19:59:17Z</time>
  <course>187.47</course>
  <speed>1.5753729717117784</speed>
  <fix>3d</fix>
</trkpt>
<trkpt lat="-27.2766857" lon="151.2900629">
  <ele>442.98</ele>
  <time>2026-09-01T19:59:17Z</time>
  <course>187.34</course>
  <speed>0.78</speed>
  <fix>3d</fix>
</trkpt>
<trkpt lat="-27.2766894" lon="151.2900629">
  <ele>442.88</ele>
  <time>2026-09-01T19:59:17Z</time>
  <course>187.18</course>
  <speed>2.0562344224333957</speed>
  <fix>3d</fix>
</trkpt>
<trkpt lat="-27.2766857" lon="151.2900629">
  <ele>442.98</ele>
  <time>2026-09-01T19:59:17Z</time>
  <course>187.34</course>
  <speed>0.78</speed>
  <fix>3d</fix>
</trkpt>
<trkpt lat="-27.2766914" lon="151.2900626">
  <ele>442.88</ele>
  <time>2026-09-01T19:59:17Z</time>
  <course>186.94</course>
  <speed>2.5977105304479178</speed>
  <fix>3d</fix>
</trkpt>
<trkpt lat="-27.2766877" lon="151.2900627">
  <ele>442.98</ele>
  <time>2026-09-01T19:59:17Z</time>
  <course>186.28</course>
  <speed>1.55</speed>
  <fix>3d</fix>
</trkpt>
<trkpt lat="-27.2766939" lon="151.2900624">
  <ele>442.89</ele>
  <time>2026-09-01T19:59:17Z</time>
  <course>186.63</course>
  <speed>3.1783328963467623</speed>
  <fix>3d</fix>
</trkpt>
<trkpt lat="-27.2766877" lon="151.2900627">
  <ele>442.98</ele>
  <time>2026-09-01T19:59:17Z</time>
  <course>186.28</course>
  <speed>1.55</speed>
  <fix>3d</fix>
</trkpt>
<trkpt lat="-27.2766969" lon="151.2900621">
  <ele>442.89</ele>
  <time>2026-09-01T19:59:17Z</time>
  <course>186.11</course>
  <speed>3.77828003197222</speed>
  <fix>3d</fix>
</trkpt>
<trkpt lat="-27.2766914" lon="151.2900622">
  <ele>442.99</ele>
  <time>2026-09-01T19:59:17Z</time>
  <course>185.47</course>
  <speed>2.56</speed>
  <fix>3d</fix>
</trkpt>
<trkpt lat="-27.2767006" lon="151.2900618">
  <ele>442.9</ele>
  <time>2026-09-01T19:59:17Z</time>
  <course>185.62</course>
  <speed>4.397692576795245</speed>
  <fix>3d</fix>
</trkpt>
<trkpt lat="-27.2766914" lon="151.2900622">
  <ele>442.99</ele>
  <time>2026-09-01T19:59:17Z</time>
  <course>185.47</course>
  <speed>2.56</speed>
  <fix>3d</fix>
</trkpt>
<trkpt lat="-27.2767047" lon="151.2900615">
  <ele>442.91</ele>
  <time>2026-09-01T19:59:17Z</time>
  <course>184.93</course>
  <speed>5.006246098625197</speed>
  <fix>3d</fix>
</trkpt>
<trkpt lat="-27.276697" lon="151.2900617">
  <ele>442.99</ele>
  <time>2026-09-01T19:59:17Z</time>
  <course>184.63</course>
  <speed>3.74</speed>
  <fix>3d</fix>
</trkpt>
<trkpt lat="-27.2767094" lon="151.2900613">
  <ele>442.92</ele>
  <time>2026-09-01T19:59:17Z</time>
  <course>184.05</course>
  <speed>5.603936116695122</speed>
  <fix>3d</fix>
</trkpt>
<trkpt lat="-27.276697" lon="151.2900617">
  <ele>442.99</ele>
  <time>2026-09-01T19:59:17Z</time>
  <course>184.63</course>
  <speed>3.74</speed>
  <fix>3d</fix>
</trkpt>
<trkpt lat="-27.2767146" lon="151.290061">
  <ele>442.93</ele>
  <time>2026-09-01T19:59:17Z</time>
  <course>183.07</course>
  <speed>6.221575363201831</speed>
  <fix>3d</fix>
</trkpt>
<trkpt lat="-27.2767048" lon="151.2900611">
  <ele>443.01</ele>
  <time>2026-09-01T19:59:17Z</time>
  <course>183.48</course>
  <speed>4.96</speed>
  <fix>3d</fix>
</trkpt>
<trkpt lat="-27.2767204" lon="151.2900609">
  <ele>442.94</ele>
  <time>2026-09-01T19:59:17Z</time>
  <course>182.09</course>
  <speed>6.820183281994701</speed>
  <fix>3d</fix>
</trkpt>
<trkpt lat="-27.2767048" lon="151.2900611">
  <ele>443.01</ele>
  <time>2026-09-01T19:59:17Z</time>
  <course>183.48</course>
  <speed>4.96</speed>
  <fix>3d</fix>
</trkpt>
<trkpt lat="-27.2767266" lon="151.2900608">
  <ele>442.95</ele>
  <time>2026-09-01T19:59:17Z</time>
  <course>181.04</course>
  <speed>7.420330181332904</speed>
  <fix>3d</fix>
</trkpt>
<trkpt lat="-27.2767148" lon="151.2900606">
  <ele>443.03</ele>
  <time>2026-09-01T19:59:17Z</time>
  <course>181.89</course>
  <speed>6.19</speed>
  <fix>3d</fix>
</trkpt>
<trkpt lat="-27.2767337" lon="151.290061">
  <ele>442.96</ele>
  <time>2026-09-01T19:59:17Z</time>
  <course>179.85</course>
  <speed>8.04328912821117</speed>
  <fix>3d</fix>
</trkpt>
<trkpt lat="-27.2767148" lon="151.2900606">
  <ele>443.03</ele>
  <time>2026-09-01T19:59:17Z</time>
  <course>181.89</course>
  <speed>6.19</speed>
  <fix>3d</fix>
</trkpt>
<trkpt lat="-27.276741" lon="151.2900612">
  <ele>442.97</ele>
  <time>2026-09-01T19:59:17Z</time>
  <course>178.49</course>
  <speed>8.640705989674686</speed>
  <fix>3d</fix>
</trkpt>
<trkpt lat="-27.2767271" lon="151.2900603">
  <ele>443.04</ele>
  <time>2026-09-01T19:59:17Z</time>
  <course>179.89</course>
  <speed>7.41</speed>
  <fix>3d</fix>
</trkpt>
<trkpt lat="-27.2767489" lon="151.2900617">
  <ele>442.97</ele>
  <time>2026-09-01T19:59:17Z</time>
  <course>176.95</course>
  <speed>9.233617925818677</speed>
  <fix>3d</fix>
</trkpt>
<trkpt lat="-27.2767271" lon="151.2900603">
  <ele>443.04</ele>
  <time>2026-09-01T19:59:17Z</time>
  <course>179.89</course>
  <speed>7.41</speed>
  <fix>3d</fix>
</trkpt>
<trkpt lat="-27.2767574" lon="151.2900623">
  <ele>442.98</ele>
  <time>2026-09-01T19:59:17Z</time>
  <course>175.54</course>
  <speed>9.815115893355513</speed>
  <fix>3d</fix>
</trkpt>
<trkpt lat="-27.2767415" lon="151.2900606">
  <ele>443.06</ele>
  <time>2026-09-01T19:59:17Z</time>
  <course>177.56</course>
  <speed>8.62</speed>
  <fix>3d</fix>
</trkpt>
<trkpt lat="-27.2767663" lon="151.2900634">
  <ele>442.99</ele>
  <time>2026-09-01T19:59:17Z</time>
  <course>174.07</course>
  <speed>10.385499506523507</speed>
  <fix>3d</fix>
</trkpt>
<trkpt lat="-27.2767415" lon="151.2900606">
  <ele>443.06</ele>
  <time>2026-09-01T19:59:17Z</time>
  <course>177.56</course>
  <speed>8.62</speed>
  <fix>3d</fix>
</trkpt>
<trkpt lat="-27.2767757" lon="151.2900647">
  <ele>443.0</ele>
  <time>2026-09-01T19:59:17Z</time>
  <course>172.58</course>
  <speed>10.949018220826924</speed>
  <fix>3d</fix>
</trkpt>
<trkpt lat="-27.276758" lon="151.2900618">
  <ele>443.07</ele>
  <time>2026-09-01T19:59:17Z</time>
  <course>174.88</course>
  <speed>9.8</speed>
  <fix>3d</fix>
</trkpt>
<trkpt lat="-27.2767856" lon="151.2900665">
  <ele>443.01</ele>
  <time>2026-09-01T19:59:17Z</time>
  <course>170.98</course>
  <speed>11.495320787172494</speed>
  <fix>3d</fix>
</trkpt>
<trkpt lat="-27.276758" lon="151.2900618">
  <ele>443.07</ele>
  <time>2026-09-01T19:59:17Z</time>
  <course>174.88</course>
  <speed>9.8</speed>
  <fix>3d</fix>
</trkpt>
<trkpt lat="-27.2767959" lon="151.2900686">
  <ele>443.03</ele>
  <time>2026-09-01T19:59:17Z</time>
  <course>169.49</course>
  <speed>12.02399683965361</speed>
  <fix>3d</fix>
</trkpt>
<trkpt lat="-27.2767765" lon="151.2900642">
  <ele>443.09</ele>
  <time>2026-09-01T19:59:17Z</time>
  <course>171.92</course>
  <speed>10.94</speed>
  <fix>3d</fix>
</trkpt>
<trkpt lat="-27.2768066" lon="151.2900711">
  <ele>443.06</ele>
  <time>2026-09-01T19:59:17Z</time>
  <course>167.98</course>
  <speed>12.538205613244664</speed>
  <fix>3d</fix>
</trkpt>
<trkpt lat="-27.2767765" lon="151.2900642">
  <ele>443.09</ele>
  <time>2026-09-01T19:59:17Z</time>
  <course>171.92</course>
  <speed>10.94</speed>
  <fix>3d</fix>
</trkpt>
<trkpt lat="-27.2768177" lon="151.2900741">
  <ele>443.09</ele>
  <time>2026-09-01T19:59:17Z</time>
  <course>166.51</course>
  <speed>13.034649976121338</speed>
  <fix>3d</fix>
</trkpt>
<trkpt lat="-27.2767969" lon="151.2900681">
  <ele>443.13</ele>
  <time>2026-09-01T19:59:17Z</time>
  <course>168.79</course>
  <speed>12.03</speed>
  <fix>3d</fix>
</trkpt>
<trkpt lat="-27.2768291" lon="151.2900776">
  <ele>443.12</ele>
  <time>2026-09-01T19:59:17Z</time>
  <course>165.03</course>
  <speed>13.526011976928011</speed>
  <fix>3d</fix>
</trkpt>
<trkpt lat="-27.2767969" lon="151.2900681">
  <ele>443.13</ele>
  <time>2026-09-01T19:59:17Z</time>
  <course>168.79</course>
  <speed>12.03</speed>
  <fix>3d</fix>
</trkpt>
<trkpt lat="-27.2768408" lon="151.2900815">
  <ele>443.16</ele>
  <time>2026-09-01T19:59:17Z</time>
  <course>163.62</course>
  <speed>13.99415949601833</speed>
  <fix>3d</fix>
</trkpt>
<trkpt lat="-27.2768189" lon="151.2900737">
  <ele>443.18</ele>
  <time>2026-09-01T19:59:17Z</time>
  <course>165.66</course>
  <speed>13.06</speed>
  <fix>3d</fix>
</trkpt>
<trkpt lat="-27.2768529" lon="151.2900859">
  <ele>443.2</ele>
  <time>2026-09-01T19:59:17Z</time>
  <course>162.25</course>
  <speed>14.459017947288121</speed>
  <fix>3d</fix>
</trkpt>
<trkpt lat="-27.2768189" lon="151.2900737">
  <ele>443.18</ele>
  <time>2026-09-01T19:59:17Z</time>
  <course>165.66</course>
  <speed>13.06</speed>
  <fix>3d</fix>
</trkpt>
<trkpt lat="-27.2768653" lon="151.2900908">
  <ele>443.24</ele>
  <time>2026-09-01T19:59:17Z</time>
  <course>160.86</course>
  <speed>14.904026301640775</speed>
  <fix>3d</fix>
</trkpt>
<trkpt lat="-27.2768423" lon="151.2900813">
  <ele>443.25</ele>
  <time>2026-09-01T19:59:17Z</time>
  <course>162.62</course>
  <speed>14.03</speed>
  <fix>3d</fix>
</trkpt>
<trkpt lat="-27.2768779" lon="151.2900962">
  <ele>443.29</ele>
  <time>2026-09-01T19:59:17Z</time>
  <course>159.54</course>
  <speed>15.35515874225988</speed>
  <fix>3d</fix>
</trkpt>
<trkpt lat="-27.2768423" lon="151.2900813">
  <ele>443.25</ele>
  <time>2026-09-01T19:59:17Z</time>
  <course>162.62</course>
  <speed>14.03</speed>
  <fix>3d</fix>
</trkpt>
<trkpt lat="-27.2768908" lon="151.2901021">
  <ele>443.33</ele>
  <time>2026-09-01T19:59:17Z</time>
  <course>158.22</course>
  <speed>15.783035196057822</speed>
  <fix>3d</fix>
</trkpt>
<trkpt lat="-27.2768669" lon="151.2900907">
  <ele>443.33</ele>
  <time>2026-09-01T19:59:17Z</time>
  <course>159.72</course>
  <speed>14.95</speed>
  <fix>3d</fix>
</trkpt>
<trkpt lat="-27.2769039" lon="151.2901085">
  <ele>443.38</ele>
  <time>2026-09-01T19:59:17Z</time>
  <course>156.88</course>
  <speed>16.178040672467105</speed>
  <fix>3d</fix>
</trkpt>
<trkpt lat="-27.2768669" lon="151.2900907">
  <ele>443.33</ele>
  <time>2026-09-01T19:59:17Z</time>
  <course>159.72</course>
  <speed>14.95</speed>
  <fix>3d</fix>
</trkpt>
<trkpt lat="-27.2769172" lon="151.2901153">
  <ele>443.42</ele>
  <time>2026-09-01T19:59:17Z</time>
  <course>155.65</course>
  <speed>16.526720787863514</speed>
  <fix>3d</fix>
</trkpt>
<trkpt lat="-27.2768926" lon="151.2901022">
  <ele>443.42</ele>
  <time>2026-09-01T19:59:17Z</time>
  <course>157.04</course>
  <speed>15.82</speed>
  <fix>3d</fix>
</trkpt>
<trkpt lat="-27.2769306" lon="151.2901227">
  <ele>443.46</ele>
  <time>2026-09-01T19:59:17Z</time>
  <course>154.49</course>
  <speed>16.82890964976638</speed>
  <fix>3d</fix>
</trkpt>
<trkpt lat="-27.2768926" lon="151.2901022">
  <ele>443.42</ele>
  <time>2026-09-01T19:59:17Z</time>
  <course>157.04</course>
  <speed>15.82</speed>
  <fix>3d</fix>
</trkpt>
<trkpt lat="-27.2769441" lon="151.2901305">
  <ele>443.5</ele>
  <time>2026-09-01T19:59:17Z</time>
  <course>153.33</course>
  <speed>17.09001170274614</speed>
  <fix>3d</fix>
</trkpt>
<trkpt lat="-27.2769192" lon="151.2901157">
  <ele>443.5</ele>
  <time>2026-09-01T19:59:17Z</time>
  <course>154.5</course>
  <speed>16.57</speed>
  <fix>3d</fix>
</trkpt>
<trkpt lat="-27.2769573" lon="151.2901385">
  <ele>443.54</ele>
  <time>2026-09-01T19:59:17Z</time>
  <course>152.12</course>
  <speed>17.305678258883702</speed>
  <fix>3d</fix>
</trkpt>
<trkpt lat="-27.2769192" lon="151.2901157">
  <ele>443.5</ele>
  <time>2026-09-01T19:59:17Z</time>
  <course>154.5</course>
  <speed>16.57</speed>
  <fix>3d</fix>
</trkpt>
<trkpt lat="-27.2769713" lon="151.2901475">
  <ele>443.58</ele>
  <time>2026-09-01T19:59:17Z</time>
  <course>150.87</course>
  <speed>17.508526494254163</speed>
  <fix>3d</fix>
</trkpt>
<trkpt lat="-27.2769463" lon="151.290131">
  <ele>443.58</ele>
  <time>2026-09-01T19:59:17Z</time>
  <course>151.99</course>
  <speed>17.15</speed>
  <fix>3d</fix>
</trkpt>
<trkpt lat="-27.2769847" lon="151.2901566">
  <ele>443.63</ele>
  <time>2026-09-01T19:59:17Z</time>
  <course>149.58</course>
  <speed>17.70303081395951</speed>
  <fix>3d</fix>
</trkpt>
<trkpt lat="-27.2769463" lon="151.290131">
  <ele>443.58</ele>
  <time>2026-09-01T19:59:17Z</time>
  <course>151.99</course>
  <speed>17.15</speed>
  <fix>3d</fix>
</trkpt>
<trkpt lat="-27.2769982" lon="151.2901662">
  <ele>443.68</ele>
  <time>2026-09-01T19:59:17Z</time>
  <course>148.19</course>
  <speed>17.884115857374667</speed>
  <fix>3d</fix>
</trkpt>
<trkpt lat="-27.2769735" lon="151.2901482">
  <ele>443.66</ele>
  <time>2026-09-01T19:59:17Z</time>
  <course>149.44</course>
  <speed>17.59</speed>
  <fix>3d</fix>
</trkpt>
<trkpt lat="-27.2770116" lon="151.2901762">
  <ele>443.74</ele>
  <time>2026-09-01T19:59:17Z</time>
  <course>146.78</course>
  <speed>18.060437425488896</speed>
  <fix>3d</fix>
</trkpt>
<trkpt lat="-27.2769735" lon="151.2901482">
  <ele>443.66</ele>
  <time>2026-09-01T19:59:17Z</time>
  <course>149.44</course>
  <speed>17.59</speed>
  <fix>3d</fix>
</trkpt>
<trkpt lat="-27.277025" lon="151.2901867">
  <ele>443.79</ele>
  <time>2026-09-01T19:59:17Z</time>
  <course>145.31</course>
  <speed>18.23405879117428</speed>
  <fix>3d</fix>
</trkpt>
<trkpt lat="-27.2770007" lon="151.2901672">
  <ele>443.76</ele>
  <time>2026-09-01T19:59:17Z</time>
  <course>146.83</course>
  <speed>17.97</speed>
  <fix>3d</fix>
</trkpt>
<trkpt lat="-27.2770383" lon="151.2901979">
  <ele>443.84</ele>
  <time>2026-09-01T19:59:17Z</time>
  <course>143.71</course>
  <speed>18.40108692441835</speed>
  <fix>3d</fix>
</trkpt>
<trkpt lat="-27.2770007" lon="151.2901672">
  <ele>443.76</ele>
  <time>2026-09-01T19:59:17Z</time>
  <course>146.83</course>
  <speed>17.97</speed>
  <fix>3d</fix>
</trkpt>
<trkpt lat="-27.2770514" lon="151.2902094">
  <ele>443.9</ele>
  <time>2026-09-01T19:59:17Z</time>
  <course>141.99</course>
  <speed>18.56804243855555</speed>
  <fix>3d</fix>
</trkpt>
<trkpt lat="-27.2770275" lon="151.290188">
  <ele>443.86</ele>
  <time>2026-09-01T19:59:17Z</time>
  <course>144.04</course>
  <speed>18.31</speed>
  <fix>3d</fix>
</trkpt>
<trkpt lat="-27.2770643" lon="151.2902214">
  <ele>443.95</ele>
  <time>2026-09-01T19:59:17Z</time>
  <course>140.16</course>
  <speed>18.738593864001643</speed>
  <fix>3d</fix>
</trkpt>
<trkpt lat="-27.2770275" lon="151.290188">
  <ele>443.86</ele>
  <time>2026-09-01T19:59:17Z</time>
  <course>144.04</course>
  <speed>18.31</speed>
  <fix>3d</fix>
</trkpt>
<trkpt lat="-27.277077" lon="151.290234">
  <ele>444.0</ele>
  <time>2026-09-01T19:59:17Z</time>
  <course>138.26</course>
  <speed>18.902542157075064</speed>
  <fix>3d</fix>
</trkpt>
<trkpt lat="-27.2770539" lon="151.2902107">
  <ele>443.97</ele>
  <time>2026-09-01T19:59:17Z</time>
  <course>140.93</course>
  <speed>18.65</speed>
  <fix>3d</fix>
</trkpt>
<trkpt lat="-27.2770894" lon="151.2902471">
  <ele>444.05</ele>
  <time>2026-09-01T19:59:17Z</time>
  <course>136.31</course>
  <speed>19.06402370959499</speed>
  <fix>3d</fix>
</trkpt>
<trkpt lat="-27.2770539" lon="151.2902107">
  <ele>443.97</ele>
  <time>2026-09-01T19:59:17Z</time>
  <course>140.93</course>
  <speed>18.65</speed>
  <fix>3d</fix>
</trkpt>
<trkpt lat="-27.2771014" lon="151.2902608">
  <ele>444.1</ele>
  <time>2026-09-01T19:59:17Z</time>
  <course>134.28</course>
  <speed>19.227485535035516</speed>
  <fix>3d</fix>
</trkpt>
<trkpt lat="-27.2770794" lon="151.2902356">
  <ele>444.07</ele>
  <time>2026-09-01T19:59:17Z</time>
  <course>137.38</course>
  <speed>18.98</speed>
  <fix>3d</fix>
</trkpt>
<trkpt lat="-27.2771131" lon="151.2902752">
  <ele>444.14</ele>
  <time>2026-09-01T19:59:17Z</time>
  <course>132.12</course>
  <speed>19.384522176210588</speed>
  <fix>3d</fix>
</trkpt>
<trkpt lat="-27.2770794" lon="151.2902356">
  <ele>444.07</ele>
  <time>2026-09-01T19:59:17Z</time>
  <course>137.38</course>
  <speed>18.98</speed>
  <fix>3d</fix>
</trkpt>
<trkpt lat="-27.2771243" lon="151.2902901">
  <ele>444.19</ele>
  <time>2026-09-01T19:59:17Z</time>
  <course>129.88</course>
  <speed>19.538948282852893</speed>
  <fix>3d</fix>
</trkpt>
<trkpt lat="-27.2771039" lon="151.2902628">
  <ele>444.16</ele>
  <time>2026-09-01T19:59:17Z</time>
  <course>133.33</course>
  <speed>19.3</speed>
  <fix>3d</fix>
</trkpt>
<trkpt lat="-27.2771351" lon="151.2903057">
  <ele>444.23</ele>
  <time>2026-09-01T19:59:17Z</time>
  <course>127.54</course>
  <speed>19.700571057713024</speed>
  <fix>3d</fix>
</trkpt>
<trkpt lat="-27.2771039" lon="151.2902628">
  <ele>444.16</ele>
  <time>2026-09-01T19:59:17Z</time>
  <course>133.33</course>
  <speed>19.3</speed>
  <fix>3d</fix>
</trkpt>
<trkpt lat="-27.2771454" lon="151.2903219">
  <ele>444.28</ele>
  <time>2026-09-01T19:59:17Z</time>
  <course>125.18</course>
  <speed>19.86129149879232</speed>
  <fix>3d</fix>
</trkpt>
<trkpt lat="-27.2771269" lon="151.2902924">
  <ele>444.26</ele>
  <time>2026-09-01T19:59:17Z</time>
  <course>128.85</course>
  <speed>19.62</speed>
  <fix>3d</fix>
</trkpt>
<trkpt lat="-27.2771551" lon="151.2903388">
  <ele>444.32</ele>
  <time>2026-09-01T19:59:17Z</time>
  <course>122.74</course>
  <speed>20.014679612724255</speed>
  <fix>3d</fix>
</trkpt>
<trkpt lat="-27.2771269" lon="151.2902924">
  <ele>444.26</ele>
  <time>2026-09-01T19:59:17Z</time>
  <course>128.85</course>
  <speed>19.62</speed>
  <fix>3d</fix>
</trkpt>
<trkpt lat="-27.2771643" lon="151.2903562">
  <ele>444.36</ele>
  <time>2026-09-01T19:59:17Z</time>
  <course>120.26</course>
  <speed>20.177541971211458</speed>
  <fix>3d</fix>
</trkpt>
<trkpt lat="-27.277148" lon="151.2903246">
  <ele>444.35</ele>
  <time>2026-09-01T19:59:17Z</time>
  <course>124.04</course>
  <speed>19.94</speed>
  <fix>3d</fix>
</trkpt>
<trkpt lat="-27.2771728" lon="151.2903742">
  <ele>444.4</ele>
  <time>2026-09-01T19:59:17Z</time>
  <course>117.78</course>
  <speed>20.343888517193562</speed>
  <fix>3d</fix>
</trkpt>
<trkpt lat="-27.277148" lon="151.2903246">
  <ele>444.35</ele>
  <time>2026-09-01T19:59:17Z</time>
  <course>124.04</course>
  <speed>19.94</speed>
  <fix>3d</fix>
</trkpt>
<trkpt lat="-27.2771807" lon="151.2903929">
  <ele>444.43</ele>
  <time>2026-09-01T19:59:17Z</time>
  <course>115.27</course>
  <speed>20.512213434927006</speed>
  <fix>3d</fix>
</trkpt>
<trkpt lat="-27.2771669" lon="151.2903592">
  <ele>444.43</ele>
  <time>2026-09-01T19:59:17Z</time>
  <course>118.98</course>
  <speed>20.26</speed>
  <fix>3d</fix>
</trkpt>
<trkpt lat="-27.2771879" lon="151.2904121">
  <ele>444.46</ele>
  <time>2026-09-01T19:59:17Z</time>
  <course>112.66</course>
  <speed>20.67505018131758</speed>
  <fix>3d</fix>
</trkpt>
<trkpt lat="-27.2771669" lon="151.2903592">
  <ele>444.43</ele>
  <time>2026-09-01T19:59:17Z</time>
  <course>118.98</course>
  <speed>20.26</speed>
  <fix>3d</fix>
</trkpt>
<trkpt lat="-27.2771943" lon="151.2904319">
  <ele>444.48</ele>
  <time>2026-09-01T19:59:17Z</time>
  <course>110.03</course>
  <speed>20.84257421721223</speed>
  <fix>3d</fix>
</trkpt>
<trkpt lat="-27.2771832" lon="151.2903963">
  <ele>444.5</ele>
  <time>2026-09-01T19:59:17Z</time>
  <course>113.76</course>
  <speed>20.58</speed>
  <fix>3d</fix>
</trkpt>
<trkpt lat="-27.2772" lon="151.2904522">
  <ele>444.5</ele>
  <time>2026-09-01T19:59:17Z</time>
  <course>107.35</course>
  <speed>21.010771047250977</speed>
  <fix>3d</fix>
</trkpt>
<trkpt lat="-27.2771832" lon="151.2903963">
  <ele>444.5</ele>
  <time>2026-09-01T19:59:17Z</time>
  <course>113.76</course>
  <speed>20.58</speed>
  <fix>3d</fix>
</trkpt>
<trkpt lat="-27.2772049" lon="151.2904729">
  <ele>444.52</ele>
  <time>2026-09-01T19:59:17Z</time>
  <course>104.66</course>
  <speed>21.19079045245835</speed>
  <fix>3d</fix>
</trkpt>
<trkpt lat="-27.2771966" lon="151.2904353">
  <ele>444.55</ele>
  <time>2026-09-01T19:59:17Z</time>
  <course>108.46</course>
  <speed>20.9</speed>
  <fix>3d</fix>
</trkpt>
<trkpt lat="-27.2772089" lon="151.2904941">
  <ele>444.52</ele>
  <time>2026-09-01T19:59:17Z</time>
  <course>101.94</course>
  <speed>21.3580359583928</speed>
  <fix>3d</fix>
</trkpt>
<trkpt lat="-27.2771966" lon="151.2904353">
  <ele>444.55</ele>
  <time>2026-09-01T19:59:17Z</time>
  <course>108.46</course>
  <speed>20.9</speed>
  <fix>3d</fix>
</trkpt>
<trkpt lat="-27.2772121" lon="151.2905155">
  <ele>444.53</ele>
  <time>2026-09-01T19:59:17Z</time>
  <course>99.22</course>
  <speed>21.529470499759164</speed>
  <fix>3d</fix>
</trkpt>
<trkpt lat="-27.2772069" lon="151.2904763">
  <ele>444.59</ele>
  <time>2026-09-01T19:59:17Z</time>
  <course>103.08</course>
  <speed>21.22</speed>
  <fix>3d</fix>
</trkpt>
<trkpt lat="-27.2772143" lon="151.2905373">
  <ele>444.52</ele>
  <time>2026-09-01T19:59:17Z</time>
  <course>96.53</course>
  <speed>21.687346541243816</speed>
  <fix>3d</fix>
</trkpt>
<trkpt lat="-27.2772069" lon="151.2904763">
  <ele>444.59</ele>
  <time>2026-09-01T19:59:17Z</time>
  <course>103.08</course>
  <speed>21.22</speed>
  <fix>3d</fix>
</trkpt>
<trkpt lat="-27.2772157" lon="151.2905596">
  <ele>444.51</ele>
  <time>2026-09-01T19:59:17Z</time>
  <course>93.78</course>
  <speed>21.854283333021925</speed>
  <fix>3d</fix>
</trkpt>
<trkpt lat="-27.2772138" lon="151.2905188">
  <ele>444.6</ele>
  <time>2026-09-01T19:59:17Z</time>
  <course>97.6</course>
  <speed>21.54</speed>
  <fix>3d</fix>
</trkpt>
<trkpt lat="-27.277216" lon="151.2905818">
  <ele>444.5</ele>
  <time>2026-09-01T19:59:17Z</time>
  <course>91.0</course>
  <speed>22.01153561203761</speed>
  <fix>3d</fix>
</trkpt>
<trkpt lat="-27.2772138" lon="151.2905188">
  <ele>444.6</ele>
  <time>2026-09-01T19:59:17Z</time>
  <course>97.6</course>
  <speed>21.54</speed>
  <fix>3d</fix>
</trkpt>
<trkpt lat="-27.2772154" lon="151.2906042">
  <ele>444.48</ele>
  <time>2026-09-01T19:59:17Z</time>
  <course>88.24</course>
  <speed>22.179912082783375</speed>
  <fix>3d</fix>
</trkpt>
<trkpt lat="-27.2772171" lon="151.2905625">
  <ele>444.59</ele>
  <time>2026-09-01T19:59:17Z</time>
  <course>92.06</course>
  <speed>21.85</speed>
  <fix>3d</fix>
</trkpt>
<trkpt lat="-27.2772139" lon="151.2906267">
  <ele>444.46</ele>
  <time>2026-09-01T19:59:17Z</time>
  <course>85.4</course>
  <speed>22.342537904186266</speed>
  <fix>3d</fix>
</trkpt>
<trkpt lat="-27.2772171" lon="151.2905625">
  <ele>444.59</ele>
  <time>2026-09-01T19:59:17Z</time>
  <course>92.06</course>
  <speed>21.85</speed>
  <fix>3d</fix>
</trkpt>
<trkpt lat="-27.2772113" lon="151.2906491">
  <ele>444.43</ele>
  <time>2026-09-01T19:59:17Z</time>
  <course>82.63</course>
  <speed>22.48877497775279</speed>
  <fix>3d</fix>
</trkpt>
<trkpt lat="-27.2772166" lon="151.290607">
  <ele>444.57</ele>
  <time>2026-09-01T19:59:17Z</time>
  <course>86.49</course>
  <speed>22.16</speed>
  <fix>3d</fix>
</trkpt>
<trkpt lat="-27.2772078" lon="151.2906715">
  <ele>444.4</ele>
  <time>2026-09-01T19:59:17Z</time>
  <course>79.84</course>
  <speed>22.64261689822976</speed>
  <fix>3d</fix>
</trkpt>
<trkpt lat="-27.2772166" lon="151.290607">
  <ele>444.57</ele>
  <time>2026-09-01T19:59:17Z</time>
  <course>86.49</course>
  <speed>22.16</speed>
  <fix>3d</fix>
</trkpt>
<trkpt lat="-27.2772033" lon="151.2906939">
  <ele>444.36</ele>
  <time>2026-09-01T19:59:17Z</time>
  <course>77.03</course>
  <speed>22.794975323522507</speed>
  <fix>3d</fix>
</trkpt>
<trkpt lat="-27.2772123" lon="151.2906517">
  <ele>444.52</ele>
  <time>2026-09-01T19:59:17Z</time>
  <course>80.86</course>
  <speed>22.47</speed>
  <fix>3d</fix>
</trkpt>
<trkpt lat="-27.2771977" lon="151.2907161">
  <ele>444.33</ele>
  <time>2026-09-01T19:59:17Z</time>
  <course>74.21</course>
  <speed>22.942196930547</speed>
  <fix>3d</fix>
</trkpt>
<trkpt lat="-27.2772123" lon="151.2906517">
  <ele>444.52</ele>
  <time>2026-09-01T19:59:17Z</time>
  <course>80.86</course>
  <speed>22.47</speed>
  <fix>3d</fix>
</trkpt>
<trkpt lat="-27.2771911" lon="151.2907381">
  <ele>444.28</ele>
  <time>2026-09-01T19:59:17Z</time>
  <course>71.32</course>
  <speed>23.0818218518383</speed>
  <fix>3d</fix>
</trkpt>
<trkpt lat="-27.2772038" lon="151.2906964">
  <ele>444.45</ele>
  <time>2026-09-01T19:59:17Z</time>
  <course>75.2</course>
  <speed>22.78</speed>
  <fix>3d</fix>
</trkpt>
<trkpt lat="-27.2771835" lon="151.2907599">
  <ele>444.23</ele>
  <time>2026-09-01T19:59:17Z</time>
  <course>68.44</course>
  <speed>23.22680563486938</speed>
  <fix>3d</fix>
</trkpt>
<trkpt lat="-27.2772038" lon="151.2906964">
  <ele>444.45</ele>
  <time>2026-09-01T19:59:17Z</time>
  <course>75.2</course>
  <speed>22.78</speed>
  <fix>3d</fix>
</trkpt>
<trkpt lat="-27.2771748" lon="151.2907813">
  <ele>444.18</ele>
  <time>2026-09-01T19:59:17Z</time>
  <course>65.54</course>
  <speed>23.358617253596154</speed>
  <fix>3d</fix>
</trkpt>
<trkpt lat="-27.2771913" lon="151.2907406">
  <ele>444.36</ele>
  <time>2026-09-01T19:59:17Z</time>
  <course>69.48</course>
  <speed>23.07</speed>
  <fix>3d</fix>
</trkpt>
<trkpt lat="-27.2771652" lon="151.2908022">
  <ele>444.13</ele>
  <time>2026-09-01T19:59:17Z</time>
  <course>62.63</course>
  <speed>23.4915218749233</speed>
  <fix>3d</fix>
</trkpt>
<trkpt lat="-27.2771913" lon="151.2907406">
  <ele>444.36</ele>
  <time>2026-09-01T19:59:17Z</time>
  <course>69.48</course>
  <speed>23.07</speed>
  <fix>3d</fix>
</trkpt>
<trkpt lat="-27.2771546" lon="151.2908227">
  <ele>444.07</ele>
  <time>2026-09-01T19:59:17Z</time>
  <course>59.72</course>
  <speed>23.62736760623155</speed>
  <fix>3d</fix>
</trkpt>
<trkpt lat="-27.2771748" lon="151.2907836">
  <ele>444.26</ele>
  <time>2026-09-01T19:59:17Z</time>
  <course>63.71</course>
  <speed>23.35</speed>
  <fix>3d</fix>
</trkpt>
<trkpt lat="-27.277143" lon="151.2908426">
  <ele>444.01</ele>
  <time>2026-09-01T19:59:17Z</time>
  <course>56.8</course>
  <speed>23.76271028313058</speed>
  <fix>3d</fix>
</trkpt>
<trkpt lat="-27.2771748" lon="151.2907836">
  <ele>444.26</ele>
  <time>2026-09-01T19:59:17Z</time>
  <course>63.71</course>
  <speed>23.35</speed>
  <fix>3d</fix>
</trkpt>
<trkpt lat="-27.2771305" lon="151.2908619">
  <ele>443.95</ele>
  <time>2026-09-01T19:59:17Z</time>
  <course>53.92</course>
  <speed>23.87705593242182</speed>
  <fix>3d</fix>
</trkpt>
<trkpt lat="-27.2771541" lon="151.2908251">
  <ele>444.15</ele>
  <time>2026-09-01T19:59:17Z</time>
  <course>57.87</course>
  <speed>23.62</speed>
  <fix>3d</fix>
</trkpt>
<trkpt lat="-27.277117" lon="151.2908806">
  <ele>443.88</ele>
  <time>2026-09-01T19:59:17Z</time>
  <course>51.01</course>
  <speed>23.996866462102922</speed>
  <fix>3d</fix>
</trkpt>
<trkpt lat="-27.2771541" lon="151.2908251">
  <ele>444.15</ele>
  <time>2026-09-01T19:59:17Z</time>
  <course>57.87</course>
  <speed>23.62</speed>
  <fix>3d</fix>
</trkpt>
<trkpt lat="-27.2771026" lon="151.2908986">
  <ele>443.82</ele>
  <time>2026-09-01T19:59:17Z</time>
  <course>48.12</course>
  <speed>24.112413815294396</speed>
  <fix>3d</fix>
</trkpt>
<trkpt lat="-27.2771296" lon="151.2908645">
  <ele>444.02</ele>
  <time>2026-09-01T19:59:17Z</time>
  <course>52.01</course>
  <speed>23.89</speed>
  <fix>3d</fix>
</trkpt>
<trkpt lat="-27.2770874" lon="151.2909158">
  <ele>443.75</ele>
  <time>2026-09-01T19:59:17Z</time>
  <course>45.25</course>
  <speed>24.22658250765056</speed>
  <fix>3d</fix>
</trkpt>
<trkpt lat="-27.2771296" lon="151.2908645">
  <ele>444.02</ele>
  <time>2026-09-01T19:59:17Z</time>
  <course>52.01</course>
  <speed>23.89</speed>
  <fix>3d</fix>
</trkpt>
<trkpt lat="-27.2770713" lon="151.2909323">
  <ele>443.69</ele>
  <time>2026-09-01T19:59:17Z</time>
  <course>42.47</course>
  <speed>24.345030293675954</speed>
  <fix>3d</fix>
</trkpt>
<trkpt lat="-27.2771013" lon="151.2909012">
  <ele>443.88</ele>
  <time>2026-09-01T19:59:17Z</time>
  <course>46.18</course>
  <speed>24.13</speed>
  <fix>3d</fix>
</trkpt>
<trkpt lat="-27.2770544" lon="151.2909479">
  <ele>443.62</ele>
  <time>2026-09-01T19:59:17Z</time>
  <course>39.67</course>
  <speed>24.445371750087993</speed>
  <fix>3d</fix>
</trkpt>
<trkpt lat="-27.2771013" lon="151.2909012">
  <ele>443.88</ele>
  <time>2026-09-01T19:59:17Z</time>
  <course>46.18</course>
  <speed>24.13</speed>
  <fix>3d</fix>
</trkpt>
<trkpt lat="-27.2770368" lon="151.2909626">
  <ele>443.55</ele>
  <time>2026-09-01T19:59:17Z</time>
  <course>36.9</course>
  <speed>24.546651502801762</speed>
  <fix>3d</fix>
</trkpt>
<trkpt lat="-27.2770696" lon="151.2909347">
  <ele>443.73</ele>
  <time>2026-09-01T19:59:17Z</time>
  <course>40.43</course>
  <speed>24.37</speed>
  <fix>3d</fix>
</trkpt>
<trkpt lat="-27.2770187" lon="151.2909762">
  <ele>443.48</ele>
  <time>2026-09-01T19:59:17Z</time>
  <course>34.22</course>
  <speed>24.64422447552367</speed>
  <fix>3d</fix>
</trkpt>
<trkpt lat="-27.2770696" lon="151.2909347">
  <ele>443.73</ele>
  <time>2026-09-01T19:59:17Z</time>
  <course>40.43</course>
  <speed>24.37</speed>
  <fix>3d</fix>
</trkpt>
<trkpt lat="-27.2769998" lon="151.2909891">
  <ele>443.4</ele>
  <time>2026-09-01T19:59:17Z</time>
  <course>31.58</course>
  <speed>24.743746684768656</speed>
  <fix>3d</fix>
</trkpt>
<trkpt lat="-27.2770348" lon="151.2909649">
  <ele>443.58</ele>
  <time>2026-09-01T19:59:17Z</time>
  <course>34.8</course>
  <speed>24.59</speed>
  <fix>3d</fix>
</trkpt>
<trkpt lat="-27.2769802" lon="151.291001">
  <ele>443.33</ele>
  <time>2026-09-01T19:59:17Z</time>
  <course>29.01</course>
  <speed>24.829911397344937</speed>
  <fix>3d</fix>
</trkpt>
<trkpt lat="-27.2770348" lon="151.2909649">
  <ele>443.58</ele>
  <time>2026-09-01T19:59:17Z</time>
  <course>34.8</course>
  <speed>24.59</speed>
  <fix>3d</fix>
</trkpt>
<trkpt lat="-27.2769602" lon="151.2910119">
  <ele>443.26</ele>
  <time>2026-09-01T19:59:17Z</time>
  <course>26.51</course>
  <speed>24.9233645401258</speed>
  <fix>3d</fix>
</trkpt>
<trkpt lat="-27.2769972" lon="151.2909914">
  <ele>443.43</ele>
  <time>2026-09-01T19:59:17Z</time>
  <course>29.35</course>
  <speed>24.8</speed>
  <fix>3d</fix>
</trkpt>
<trkpt lat="-27.2769394" lon="151.2910219">
  <ele>443.18</ele>
  <time>2026-09-01T19:59:17Z</time>
  <course>24.06</course>
  <speed>24.99832194368254</speed>
  <fix>3d</fix>
</trkpt>
<trkpt lat="-27.2769972" lon="151.2909914">
  <ele>443.43</ele>
  <time>2026-09-01T19:59:17Z</time>
  <course>29.35</course>
  <speed>24.8</speed>
  <fix>3d</fix>
</trkpt>
<trkpt lat="-27.2769185" lon="151.2910309">
  <ele>443.11</ele>
  <time>2026-09-01T19:59:17Z</time>
  <course>21.72</course>
  <speed>25.071340211484507</speed>
  <fix>3d</fix>
</trkpt>
<trkpt lat="-27.2769573" lon="151.291014">
  <ele>443.28</ele>
  <time>2026-09-01T19:59:17Z</time>
  <course>24.12</course>
  <speed>24.98</speed>
  <fix>3d</fix>
</trkpt>
<trkpt lat="-27.2768971" lon="151.2910389">
  <ele>443.03</ele>
  <time>2026-09-01T19:59:17Z</time>
  <course>19.47</course>
  <speed>25.146550459257828</speed>
  <fix>3d</fix>
</trkpt>
<trkpt lat="-27.2769573" lon="151.291014">
  <ele>443.28</ele>
  <time>2026-09-01T19:59:17Z</time>
  <course>24.12</course>
  <speed>24.98</speed>
  <fix>3d</fix>
</trkpt>
<trkpt lat="-27.2768752" lon="151.291046">
  <ele>442.95</ele>
  <time>2026-09-01T19:59:17Z</time>
  <course>17.34</course>
  <speed>25.216805903999816</speed>
  <fix>3d</fix>
</trkpt>
<trkpt lat="-27.2769154" lon="151.2910326">
  <ele>443.12</ele>
  <time>2026-09-01T19:59:17Z</time>
  <course>19.2</course>
  <speed>25.14</speed>
  <fix>3d</fix>
</trkpt>
<trkpt lat="-27.2768532" lon="151.2910522">
  <ele>442.87</ele>
  <time>2026-09-01T19:59:17Z</time>
  <course>15.35</course>
  <speed>25.27588969749631</speed>
  <fix>3d</fix>
</trkpt>
<trkpt lat="-27.2769154" lon="151.2910326">
  <ele>443.12</ele>
  <time>2026-09-01T19:59:17Z</time>
  <course>19.2</course>
  <speed>25.14</speed>
  <fix>3d</fix>
</trkpt>
<trkpt lat="-27.276831" lon="151.2910574">
  <ele>442.79</ele>
  <time>2026-09-01T19:59:17Z</time>
  <course>13.39</course>
  <speed>25.333584428580174</speed>
  <fix>3d</fix>
</trkpt>
<trkpt lat="-27.2768721" lon="151.2910474">
  <ele>442.96</ele>
  <time>2026-09-01T19:59:17Z</time>
  <course>14.65</course>
  <speed>25.29</speed>
  <fix>3d</fix>
</trkpt>
<trkpt lat="-27.2768086" lon="151.2910618">
  <ele>442.71</ele>
  <time>2026-09-01T19:59:17Z</time>
  <course>11.58</course>
  <speed>25.389765654688503</speed>
  <fix>3d</fix>
</trkpt>
<trkpt lat="-27.2768721" lon="151.2910474">
  <ele>442.96</ele>
  <time>2026-09-01T19:59:17Z</time>
  <course>14.65</course>
  <speed>25.29</speed>
  <fix>3d</fix>
</trkpt>
<trkpt lat="-27.2767859" lon="151.2910654">
  <ele>442.62</ele>
  <time>2026-09-01T19:59:17Z</time>
  <course>9.8</course>
  <speed>25.45073083430022</speed>
  <fix>3d</fix>
</trkpt>
<trkpt lat="-27.2768276" lon="151.2910585">
  <ele>442.79</ele>
  <time>2026-09-01T19:59:17Z</time>
  <course>10.49</course>
  <speed>25.42</speed>
  <fix>3d</fix>
</trkpt>
<trkpt lat="-27.2767632" lon="151.2910682">
  <ele>442.53</ele>
  <time>2026-09-01T19:59:17Z</time>
  <course>7.73</course>
  <speed>25.493061801203872</speed>
  <fix>3d</fix>
</trkpt>
<trkpt lat="-27.2768276" lon="151.2910585">
  <ele>442.79</ele>
  <time>2026-09-01T19:59:17Z</time>
  <course>10.49</course>
  <speed>25.42</speed>
  <fix>3d</fix>
</trkpt>
<trkpt lat="-27.2767403" lon="151.2910701">
  <ele>442.46</ele>
  <time>2026-09-01T19:59:17Z</time>
  <course>5.85</course>
  <speed>25.531778238109464</speed>
  <fix>3d</fix>
</trkpt>
<trkpt lat="-27.2767823" lon="151.2910662">
  <ele>442.62</ele>
  <time>2026-09-01T19:59:17Z</time>
  <course>6.67</course>
  <speed>25.53</speed>
  <fix>3d</fix>
</trkpt>
<trkpt lat="-27.2767173" lon="151.2910712">
  <ele>442.4</ele>
  <time>2026-09-01T19:59:17Z</time>
  <course>4.36</course>
  <speed>25.56042644401693</speed>
  <fix>3d</fix>
</trkpt>
<trkpt lat="-27.2767823" lon="151.2910662">
  <ele>442.62</ele>
  <time>2026-09-01T19:59:17Z</time>
  <course>6.67</course>
  <speed>25.53</speed>
  <fix>3d</fix>
</trkpt>
<trkpt lat="-27.2766942" lon="151.2910717">
  <ele>442.34</ele>
  <time>2026-09-01T19:59:17Z</time>
  <course>3.07</course>
  <speed>25.590330204981726</speed>
  <fix>3d</fix>
</trkpt>
<trkpt lat="-27.2767365" lon="151.2910706">
  <ele>442.47</ele>
  <time>2026-09-01T19:59:17Z</time>
  <course>3.07</course>
  <speed>25.61</speed>
  <fix>3d</fix>
</trkpt>
<trkpt lat="-27.2766712" lon="151.2910716">
  <ele>442.28</ele>
  <time>2026-09-01T19:59:17Z</time>
  <course>1.95</course>
  <speed>25.61267264461091</speed>
  <fix>3d</fix>
</trkpt>
<trkpt lat="-27.2767365" lon="151.2910706">
  <ele>442.47</ele>
  <time>2026-09-01T19:59:17Z</time>
  <course>3.07</course>
  <speed>25.61</speed>
  <fix>3d</fix>
</trkpt>
<trkpt lat="-27.2766481" lon="151.2910711">
  <ele>442.22</ele>
  <time>2026-09-01T19:59:17Z</time>
  <course>0.94</course>
  <speed>25.653108973377865</speed>
  <fix>3d</fix>
</trkpt>
<trkpt lat="-27.2766904" lon="151.2910719">
  <ele>442.35</ele>
  <time>2026-09-01T19:59:17Z</time>
  <course>0.05</course>
  <speed>25.67</speed>
  <fix>3d</fix>
</trkpt>
<trkpt lat="-27.276625" lon="151.2910701">
  <ele>442.14</ele>
  <time>2026-09-01T19:59:17Z</time>
  <course>359.91</course>
  <speed>25.689462820386108</speed>
  <fix>3d</fix>
</trkpt>
<trkpt lat="-27.2766904" lon="151.2910719">
  <ele>442.35</ele>
  <time>2026-09-01T19:59:17Z</time>
  <course>0.05</course>
  <speed>25.67</speed>
  <fix>3d</fix>
</trkpt>
<trkpt lat="-27.2766018" lon="151.2910686">
  <ele>442.05</ele>
  <time>2026-09-01T19:59:17Z</time>
  <course>358.94</course>
  <speed>25.731047394150128</speed>
  <fix>3d</fix>
</trkpt>
<trkpt lat="-27.2766443" lon="151.291071">
  <ele>442.22</ele>
  <time>2026-09-01T19:59:17Z</time>
  <course>357.84</course>
  <speed>25.73</speed>
  <fix>3d</fix>
</trkpt>
<trkpt lat="-27.2765787" lon="151.2910668">
  <ele>441.95</ele>
  <time>2026-09-01T19:59:17Z</time>
  <course>358.08</course>
  <speed>25.775393304467734</speed>
  <fix>3d</fix>
</trkpt>
<trkpt lat="-27.2766443" lon="151.291071">
  <ele>442.22</ele>
  <time>2026-09-01T19:59:17Z</time>
  <course>357.84</course>
  <speed>25.73</speed>
  <fix>3d</fix>
</trkpt>
<trkpt lat="-27.2765557" lon="151.2910646">
  <ele>441.84</ele>
  <time>2026-09-01T19:59:17Z</time>
  <course>357.26</course>
  <speed>25.792752858118888</speed>
  <fix>3d</fix>
</trkpt>
<trkpt lat="-27.276598" lon="151.2910682">
  <ele>442.07</ele>
  <time>2026-09-01T19:59:17Z</time>
  <course>356.06</course>
  <speed>25.8</speed>
  <fix>3d</fix>
</trkpt>
<trkpt lat="-27.2765326" lon="151.2910621">
  <ele>441.71</ele>
  <time>2026-09-01T19:59:17Z</time>
  <course>356.43</course>
  <speed>25.782447517642694</speed>
  <fix>3d</fix>
</trkpt>
<trkpt lat="-27.276598" lon="151.2910682">
  <ele>442.07</ele>
  <time>2026-09-01T19:59:17Z</time>
  <course>356.06</course>
  <speed>25.8</speed>
  <fix>3d</fix>
</trkpt>
<trkpt lat="-27.2765095" lon="151.2910592">
  <ele>441.58</ele>
  <time>2026-09-01T19:59:17Z</time>
  <course>355.64</course>
  <speed>25.73392507955209</speed>
  <fix>3d</fix>
</trkpt>
<trkpt lat="-27.2765518" lon="151.291064">
  <ele>441.86</ele>
  <time>2026-09-01T19:59:17Z</time>
  <course>354.53</course>
  <speed>25.84</speed>
  <fix>3d</fix>
</trkpt>
<trkpt lat="-27.2764866" lon="151.2910561">
  <ele>441.44</ele>
  <time>2026-09-01T19:59:17Z</time>
  <course>354.9</course>
  <speed>25.647902448348482</speed>
  <fix>3d</fix>
</trkpt>
<trkpt lat="-27.2765518" lon="151.291064">
  <ele>441.86</ele>
  <time>2026-09-01T19:59:17Z</time>
  <course>354.53</course>
  <speed>25.84</speed>
  <fix>3d</fix>
</trkpt>
<trkpt lat="-27.2764635" lon="151.2910527">
  <ele>441.29</ele>
  <time>2026-09-01T19:59:17Z</time>
  <course>354.2</course>
  <speed>25.57108718846346</speed>
  <fix>3d</fix>
</trkpt>
<trkpt lat="-27.2765057" lon="151.2910584">
  <ele>441.62</ele>
  <time>2026-09-01T19:59:17Z</time>
  <course>353.17</course>
  <speed>25.77</speed>
  <fix>3d</fix>
</trkpt>
<trkpt lat="-27.2764407" lon="151.2910491">
  <ele>441.15</ele>
  <time>2026-09-01T19:59:17Z</time>
  <course>353.61</course>
  <speed>25.502550852806863</speed>
  <fix>3d</fix>
</trkpt>
<trkpt lat="-27.2765057" lon="151.2910584">
  <ele>441.62</ele>
  <time>2026-09-01T19:59:17Z</time>
  <course>353.17</course>
  <speed>25.77</speed>
  <fix>3d</fix>
</trkpt>
<trkpt lat="-27.2764181" lon="151.2910452">
  <ele>440.99</ele>
  <time>2026-09-01T19:59:17Z</time>
  <course>353.04</course>
  <speed>25.44297545492665</speed>
  <fix>3d</fix>
</trkpt>
<trkpt lat="-27.2764599" lon="151.2910516">
  <ele>441.34</ele>
  <time>2026-09-01T19:59:17Z</time>
  <course>351.97</course>
  <speed>25.62</speed>
  <fix>3d</fix>
</trkpt>
<trkpt lat="-27.2763955" lon="151.2910411">
  <ele>440.83</ele>
  <time>2026-09-01T19:59:17Z</time>
  <course>352.5</course>
  <speed>25.393434190750963</speed>
  <fix>3d</fix>
</trkpt>
<trkpt lat="-27.2764599" lon="151.2910516">
  <ele>441.34</ele>
  <time>2026-09-01T19:59:17Z</time>
  <course>351.97</course>
  <speed>25.62</speed>
  <fix>3d</fix>
</trkpt>
<trkpt lat="-27.2763729" lon="151.2910369">
  <ele>440.66</ele>
  <time>2026-09-01T19:59:17Z</time>
  <course>351.99</course>
  <speed>25.361865073373448</speed>
  <fix>3d</fix>
</trkpt>
<trkpt lat="-27.2764146" lon="151.2910439">
  <ele>441.05</ele>
  <time>2026-09-01T19:59:17Z</time>
  <course>350.98</course>
  <speed>25.49</speed>
  <fix>3d</fix>
</trkpt>
<trkpt lat="-27.2763505" lon="151.2910325">
  <ele>440.47</ele>
  <time>2026-09-01T19:59:17Z</time>
  <course>351.54</course>
  <speed>25.328089150190543</speed>
  <fix>3d</fix>
</trkpt>
<trkpt lat="-27.2764146" lon="151.2910439">
  <ele>441.05</ele>
  <time>2026-09-01T19:59:17Z</time>
  <course>350.98</course>
  <speed>25.49</speed>
  <fix>3d</fix>
</trkpt>
<trkpt lat="-27.276328" lon="151.2910279">
  <ele>440.28</ele>
  <time>2026-09-01T19:59:17Z</time>
  <course>351.13</course>
  <speed>25.324819841412495</speed>
  <fix>3d</fix>
</trkpt>
<trkpt lat="-27.2763695" lon="151.2910355">
  <ele>440.72</ele>
  <time>2026-09-01T19:59:17Z</time>
  <course>350.16</course>
  <speed>25.39</speed>
  <fix>3d</fix>
</trkpt>
<trkpt lat="-27.2763056" lon="151.2910232">
  <ele>440.09</ele>
  <time>2026-09-01T19:59:17Z</time>
  <course>350.75</course>
  <speed>25.33046584648612</speed>
  <fix>3d</fix>
</trkpt>
<trkpt lat="-27.2763695" lon="151.2910355">
  <ele>440.72</ele>
  <time>2026-09-01T19:59:17Z</time>
  <course>350.16</course>
  <speed>25.39</speed>
  <fix>3d</fix>
</trkpt>
<trkpt lat="-27.2762832" lon="151.2910183">
  <ele>439.89</ele>
  <time>2026-09-01T19:59:17Z</time>
  <course>350.38</course>
  <speed>25.346719708869628</speed>
  <fix>3d</fix>
</trkpt>
<trkpt lat="-27.2763245" lon="151.2910264">
  <ele>440.36</ele>
  <time>2026-09-01T19:59:17Z</time>
  <course>349.46</course>
  <speed>25.35</speed>
  <fix>3d</fix>
</trkpt>
<trkpt lat="-27.2762608" lon="151.2910133">
  <ele>439.69</ele>
  <time>2026-09-01T19:59:17Z</time>
  <course>350.02</course>
  <speed>25.369670868972662</speed>
  <fix>3d</fix>
</trkpt>
<trkpt lat="-27.2763245" lon="151.2910264">
  <ele>440.36</ele>
  <time>2026-09-01T19:59:17Z</time>
  <course>349.46</course>
  <speed>25.35</speed>
  <fix>3d</fix>
</trkpt>
<trkpt lat="-27.2762382" lon="151.2910082">
  <ele>439.48</ele>
  <time>2026-09-01T19:59:17Z</time>
  <course>349.67</course>
  <speed>25.402970298766245</speed>
  <fix>3d</fix>
</trkpt>
<trkpt lat="-27.2762797" lon="151.2910167">
  <ele>439.97</ele>
  <time>2026-09-01T19:59:17Z</time>
  <course>348.86</course>
  <speed>25.36</speed>
  <fix>3d</fix>
</trkpt>
<trkpt lat="-27.2762158" lon="151.2910029">
  <ele>439.28</ele>
  <time>2026-09-01T19:59:17Z</time>
  <course>349.37</course>
  <speed>25.45436111946242</speed>
  <fix>3d</fix>
</trkpt>
<trkpt lat="-27.2762797" lon="151.2910167">
  <ele>439.97</ele>
  <time>2026-09-01T19:59:17Z</time>
  <course>348.86</course>
  <speed>25.36</speed>
  <fix>3d</fix>
</trkpt>
<trkpt lat="-27.2761934" lon="151.2909976">
  <ele>439.09</ele>
  <time>2026-09-01T19:59:17Z</time>
  <course>349.06</course>
  <speed>25.50615807996179</speed>
  <fix>3d</fix>
</trkpt>
<trkpt lat="-27.276235" lon="151.2910066">
  <ele>439.58</ele>
  <time>2026-09-01T19:59:17Z</time>
  <course>348.36</course>
  <speed>25.41</speed>
  <fix>3d</fix>
</trkpt>
<trkpt lat="-27.2761709" lon="151.2909922">
  <ele>438.91</ele>
  <time>2026-09-01T19:59:17Z</time>
  <course>348.8</course>
  <speed>25.56604193065481</speed>
  <fix>3d</fix>
</trkpt>
<trkpt lat="-27.276235" lon="151.2910066">
  <ele>439.58</ele>
  <time>2026-09-01T19:59:17Z</time>
  <course>348.36</course>
  <speed>25.41</speed>
  <fix>3d</fix>
</trkpt>
<trkpt lat="-27.2761484" lon="151.2909866">
  <ele>438.74</ele>
  <time>2026-09-01T19:59:17Z</time>
  <course>348.56</course>
  <speed>25.636009829924784</speed>
  <fix>3d</fix>
</trkpt>
<trkpt lat="-27.2761902" lon="151.290996">
  <ele>439.2</ele>
  <time>2026-09-01T19:59:17Z</time>
  <course>347.93</course>
  <speed>25.5</speed>
  <fix>3d</fix>
</trkpt>
<trkpt lat="-27.2761259" lon="151.290981">
  <ele>438.58</ele>
  <time>2026-09-01T19:59:17Z</time>
  <course>348.37</course>
  <speed>25.69219725909016</speed>
  <fix>3d</fix>
</trkpt>
<trkpt lat="-27.2761902" lon="151.290996">
  <ele>439.2</ele>
  <time>2026-09-01T19:59:17Z</time>
  <course>347.93</course>
  <speed>25.5</speed>
  <fix>3d</fix>
</trkpt>
<trkpt lat="-27.2761033" lon="151.2909753">
  <ele>438.43</ele>
  <time>2026-09-01T19:59:17Z</time>
  <course>348.19</course>
  <speed>25.760512417263755</speed>
  <fix>3d</fix>
</trkpt>
<trkpt lat="-27.2761454" lon="151.2909851">
  <ele>438.86</ele>
  <time>2026-09-01T19:59:17Z</time>
  <course>347.57</course>
  <speed>25.62</speed>
  <fix>3d</fix>
</trkpt>
<trkpt lat="-27.2760809" lon="151.2909695">
  <ele>438.3</ele>
  <time>2026-09-01T19:59:17Z</time>
  <course>348.09</course>
  <speed>25.824643269559406</speed>
  <fix>3d</fix>
</trkpt>
<trkpt lat="-27.2761454" lon="151.2909851">
  <ele>438.86</ele>
  <time>2026-09-01T19:59:17Z</time>
  <course>347.57</course>
  <speed>25.62</speed>
  <fix>3d</fix>
</trkpt>
<trkpt lat="-27.2760583" lon="151.2909637">
  <ele>438.18</ele>
  <time>2026-09-01T19:59:17Z</time>
  <course>347.96</course>
  <speed>25.886678041031068</speed>
  <fix>3d</fix>
</trkpt>
<trkpt lat="-27.2761003" lon="151.2909738">
  <ele>438.56</ele>
  <time>2026-09-01T19:59:17Z</time>
  <course>347.28</course>
  <speed>25.74</speed>
  <fix>3d</fix>
</trkpt>
<trkpt lat="-27.2760356" lon="151.2909578">
  <ele>438.07</ele>
  <time>2026-09-01T19:59:17Z</time>
  <course>347.77</course>
  <speed>25.95630944491146</speed>
  <fix>3d</fix>
</trkpt>
<trkpt lat="-27.2761003" lon="151.2909738">
  <ele>438.56</ele>
  <time>2026-09-01T19:59:17Z</time>
  <course>347.28</course>
  <speed>25.74</speed>
  <fix>3d</fix>
</trkpt>
<trkpt lat="-27.2760129" lon="151.2909518">
  <ele>437.98</ele>
  <time>2026-09-01T19:59:17Z</time>
  <course>347.67</course>
  <speed>26.013998154839637</speed>
  <fix>3d</fix>
</trkpt>
<trkpt lat="-27.2760552" lon="151.2909622">
  <ele>438.32</ele>
  <time>2026-09-01T19:59:17Z</time>
  <course>347.07</course>
  <speed>25.87</speed>
  <fix>3d</fix>
</trkpt>
<trkpt lat="-27.2759899" lon="151.2909458">
  <ele>437.91</ele>
  <time>2026-09-01T19:59:17Z</time>
  <course>347.62</course>
  <speed>26.073973613548052</speed>
  <fix>3d</fix>
</trkpt>
<trkpt lat="-27.2760552" lon="151.2909622">
  <ele>438.32</ele>
  <time>2026-09-01T19:59:17Z</time>
  <course>347.07</course>
  <speed>25.87</speed>
  <fix>3d</fix>
</trkpt>
<trkpt lat="-27.2759671" lon="151.2909398">
  <ele>437.85</ele>
  <time>2026-09-01T19:59:17Z</time>
  <course>347.53</course>
  <speed>26.129464211881572</speed>
  <fix>3d</fix>
</trkpt>
<trkpt lat="-27.2760098" lon="151.2909504">
  <ele>438.14</ele>
  <time>2026-09-01T19:59:17Z</time>
  <course>346.94</course>
  <speed>25.98</speed>
  <fix>3d</fix>
</trkpt>
<trkpt lat="-27.2759443" lon="151.2909337">
  <ele>437.8</ele>
  <time>2026-09-01T19:59:17Z</time>
  <course>347.42</course>
  <speed>26.17522874780658</speed>
  <fix>3d</fix>
</trkpt>
<trkpt lat="-27.2760098" lon="151.2909504">
  <ele>438.14</ele>
  <time>2026-09-01T19:59:17Z</time>
  <course>346.94</course>
  <speed>25.98</speed>
  <fix>3d</fix>
</trkpt>
<trkpt lat="-27.2759214" lon="151.2909276">
  <ele>437.77</ele>
  <time>2026-09-01T19:59:17Z</time>
  <course>347.4</course>
  <speed>26.22100875252514</speed>
  <fix>3d</fix>
</trkpt>
<trkpt lat="-27.2759642" lon="151.2909385">
  <ele>438.01</ele>
  <time>2026-09-01T19:59:17Z</time>
  <course>346.85</course>
  <speed>26.09</speed>
  <fix>3d</fix>
</trkpt>
<trkpt lat="-27.2758984" lon="151.2909216">
  <ele>437.74</ele>
  <time>2026-09-01T19:59:17Z</time>
  <course>347.39</course>
  <speed>26.26223524378685</speed>
  <fix>3d</fix>
</trkpt>
<trkpt lat="-27.2759642" lon="151.2909385">
  <ele>438.01</ele>
  <time>2026-09-01T19:59:17Z</time>
  <course>346.85</course>
  <speed>26.09</speed>
  <fix>3d</fix>
</trkpt>
<trkpt lat="-27.2758755" lon="151.2909155">
  <ele>437.72</ele>
  <time>2026-09-01T19:59:17Z</time>
  <course>347.36</course>
  <speed>26.305744619759388</speed>
  <fix>3d</fix>
</trkpt>
<trkpt lat="-27.2759184" lon="151.2909265">
  <ele>437.93</ele>
  <time>2026-09-01T19:59:17Z</time>
  <course>346.81</course>
  <speed>26.19</speed>
  <fix>3d</fix>
</trkpt>
<trkpt lat="-27.2758525" lon="151.2909094">
  <ele>437.71</ele>
  <time>2026-09-01T19:59:17Z</time>
  <course>347.34</course>
  <speed>26.34468826917487</speed>
  <fix>3d</fix>
</trkpt>
<trkpt lat="-27.2759184" lon="151.2909265">
  <ele>437.93</ele>
  <time>2026-09-01T19:59:17Z</time>
  <course>346.81</course>
  <speed>26.19</speed>
  <fix>3d</fix>
</trkpt>
<trkpt lat="-27.2758294" lon="151.2909032">
  <ele>437.72</ele>
  <time>2026-09-01T19:59:17Z</time>
  <course>347.34</course>
  <speed>26.38591480316724</speed>
  <fix>3d</fix>
</trkpt>
<trkpt lat="-27.2758726" lon="151.2909144">
  <ele>437.89</ele>
  <time>2026-09-01T19:59:17Z</time>
  <course>346.82</course>
  <speed>26.27</speed>
  <fix>3d</fix>
</trkpt>
<trkpt lat="-27.2758064" lon="151.2908971">
  <ele>437.73</ele>
  <time>2026-09-01T19:59:17Z</time>
  <course>347.32</course>
  <speed>26.42714135126991</speed>
  <fix>3d</fix>
</trkpt>
<trkpt lat="-27.2758726" lon="151.2909144">
  <ele>437.89</ele>
  <time>2026-09-01T19:59:17Z</time>
  <course>346.82</course>
  <speed>26.27</speed>
  <fix>3d</fix>
</trkpt>
<trkpt lat="-27.2757833" lon="151.290891">
  <ele>437.75</ele>
  <time>2026-09-01T19:59:17Z</time>
  <course>347.36</course>
  <speed>26.444335877461548</speed>
  <fix>3d</fix>
</trkpt>
<trkpt lat="-27.2758265" lon="151.2909023">
  <ele>437.88</ele>
  <time>2026-09-01T19:59:17Z</time>
  <course>346.85</course>
  <speed>26.35</speed>
  <fix>3d</fix>
</trkpt>
<trkpt lat="-27.2757601" lon="151.290885">
  <ele>437.79</ele>
  <time>2026-09-01T19:59:17Z</time>
  <course>347.35</course>
  <speed>26.473549063168694</speed>
  <fix>3d</fix>
</trkpt>
<trkpt lat="-27.2758265" lon="151.2909023">
  <ele>437.88</ele>
  <time>2026-09-01T19:59:17Z</time>
  <course>346.85</course>
  <speed>26.35</speed>
  <fix>3d</fix>
</trkpt>
<trkpt lat="-27.275737" lon="151.2908789">
  <ele>437.83</ele>
  <time>2026-09-01T19:59:17Z</time>
  <course>347.38</course>
  <speed>26.502764006797477</speed>
  <fix>3d</fix>
</trkpt>
<trkpt lat="-27.2757803" lon="151.2908901">
  <ele>437.92</ele>
  <time>2026-09-01T19:59:17Z</time>
  <course>346.9</course>
  <speed>26.41</speed>
  <fix>3d</fix>
</trkpt>
<trkpt lat="-27.2757138" lon="151.2908728">
  <ele>437.88</ele>
  <time>2026-09-01T19:59:17Z</time>
  <course>347.47</course>
  <speed>26.519973604813412</speed>
  <fix>3d</fix>
</trkpt>
<trkpt lat="-27.2757803" lon="151.2908901">
  <ele>437.92</ele>
  <time>2026-09-01T19:59:17Z</time>
  <course>346.9</course>
  <speed>26.41</speed>
  <fix>3d</fix>
</trkpt>
<trkpt lat="-27.2756906" lon="151.2908667">
  <ele>437.94</ele>
  <time>2026-09-01T19:59:17Z</time>
  <course>347.5</course>
  <speed>26.537190883738994</speed>
  <fix>3d</fix>
</trkpt>
<trkpt lat="-27.275734" lon="151.290878">
  <ele>437.99</ele>
  <time>2026-09-01T19:59:17Z</time>
  <course>346.96</course>
  <speed>26.46</speed>
  <fix>3d</fix>
</trkpt>
<trkpt lat="-27.2756674" lon="151.2908607">
  <ele>438.0</ele>
  <time>2026-09-01T19:59:17Z</time>
  <course>347.5</course>
  <speed>26.55441582863385</speed>
  <fix>3d</fix>
</trkpt>
<trkpt lat="-27.275734" lon="151.290878">
  <ele>437.99</ele>
  <time>2026-09-01T19:59:17Z</time>
  <course>346.96</course>
  <speed>26.46</speed>
  <fix>3d</fix>
</trkpt>
<trkpt lat="-27.2756442" lon="151.2908547">
  <ele>438.07</ele>
  <time>2026-09-01T19:59:17Z</time>
  <course>347.52</course>
  <speed>26.561905052160697</speed>
  <fix>3d</fix>
</trkpt>
<trkpt lat="-27.2756877" lon="151.2908661">
  <ele>438.09</ele>
  <time>2026-09-01T19:59:17Z</time>
  <course>347.04</course>
  <speed>26.5</speed>
  <fix>3d</fix>
</trkpt>
<trkpt lat="-27.275621" lon="151.2908486">
  <ele>438.14</ele>
  <time>2026-09-01T19:59:17Z</time>
  <course>347.52</course>
  <speed>26.56715453337071</speed>
  <fix>3d</fix>
</trkpt>
<trkpt lat="-27.2756877" lon="151.2908661">
  <ele>438.09</ele>
  <time>2026-09-01T19:59:17Z</time>
  <course>347.04</course>
  <speed>26.5</speed>
  <fix>3d</fix>
</trkpt>
<trkpt lat="-27.2755977" lon="151.2908427">
  <ele>438.22</ele>
  <time>2026-09-01T19:59:17Z</time>
  <course>347.55</course>
  <speed>26.574658981819503</speed>
  <fix>3d</fix>
</trkpt>
<trkpt lat="-27.2756412" lon="151.2908541">
  <ele>438.21</ele>
  <time>2026-09-01T19:59:17Z</time>
  <course>347.13</course>
  <speed>26.52</speed>
  <fix>3d</fix>
</trkpt>
<trkpt lat="-27.2755745" lon="151.2908367">
  <ele>438.31</ele>
  <time>2026-09-01T19:59:17Z</time>
  <course>347.59</course>
  <speed>26.570188181493936</speed>
  <fix>3d</fix>
</trkpt>
<trkpt lat="-27.2756412" lon="151.2908541">
  <ele>438.21</ele>
  <time>2026-09-01T19:59:17Z</time>
  <course>347.13</course>
  <speed>26.52</speed>
  <fix>3d</fix>
</trkpt>
<trkpt lat="-27.2755513" lon="151.2908308">
  <ele>438.4</ele>
  <time>2026-09-01T19:59:17Z</time>
  <course>347.67</course>
  <speed>26.5657316857639</speed>
  <fix>3d</fix>
</trkpt>
<trkpt lat="-27.2755948" lon="151.2908421">
  <ele>438.36</ele>
  <time>2026-09-01T19:59:17Z</time>
  <course>347.21</course>
  <speed>26.53</speed>
  <fix>3d</fix>
</trkpt>
<trkpt lat="-27.275528" lon="151.2908248">
  <ele>438.49</ele>
  <time>2026-09-01T19:59:17Z</time>
  <course>347.71</course>
  <speed>26.56128950182954</speed>
  <fix>3d</fix>
</trkpt>
<trkpt lat="-27.2755948" lon="151.2908421">
  <ele>438.36</ele>
  <time>2026-09-01T19:59:17Z</time>
  <course>347.21</course>
  <speed>26.53</speed>
  <fix>3d</fix>
</trkpt>
<trkpt lat="-27.2755046" lon="151.2908189">
  <ele>438.6</ele>
  <time>2026-09-01T19:59:17Z</time>
  <course>347.8</course>
  <speed>26.55465307625012</speed>
  <fix>3d</fix>
</trkpt>
<trkpt lat="-27.2755483" lon="151.2908303">
  <ele>438.53</ele>
  <time>2026-09-01T19:59:18Z</time>
  <course>347.31</course>
  <speed>26.53</speed>
  <fix>3d</fix>
</trkpt>
<trkpt lat="-27.2754814" lon="151.290813">
  <ele>438.7</ele>
  <time>2026-09-01T19:59:18Z</time>
  <course>347.88</course>
  <speed>26.550246703185266</speed>
  <fix>3d</fix>
</trkpt>
<trkpt lat="-27.2755483" lon="151.2908303">
  <ele>438.53</ele>
  <time>2026-09-01T19:59:18Z</time>
  <course>347.31</course>
  <speed>26.53</speed>
  <fix>3d</fix>
</trkpt>
<trkpt lat="-27.2754581" lon="151.2908072">
  <ele>438.81</ele>
  <time>2026-09-01T19:59:18Z</time>
  <course>347.93</course>
  <speed>26.543664027409633</speed>
  <fix>3d</fix>
</trkpt>
<trkpt lat="-27.2755018" lon="151.2908186">
  <ele>438.72</ele>
  <time>2026-09-01T19:59:18Z</time>
  <course>347.41</course>
  <speed>26.52</speed>
  <fix>3d</fix>
</trkpt>
<trkpt lat="-27.2754349" lon="151.2908014">
  <ele>438.91</ele>
  <time>2026-09-01T19:59:18Z</time>
  <course>347.97</course>
  <speed>26.53711363355103</speed>
  <fix>3d</fix>
</trkpt>
<trkpt lat="-27.2755018" lon="151.2908186">
  <ele>438.72</ele>
  <time>2026-09-01T19:59:18Z</time>
  <course>347.41</course>
  <speed>26.52</speed>
  <fix>3d</fix>
</trkpt>
<trkpt lat="-27.2754117" lon="151.2907957">
  <ele>439.02</ele>
  <time>2026-09-01T19:59:18Z</time>
  <course>347.96</course>
  <speed>26.5208333202409</speed>
  <fix>3d</fix>
</trkpt>
<trkpt lat="-27.2754553" lon="151.290807">
  <ele>438.91</ele>
  <time>2026-09-01T19:59:18Z</time>
  <course>347.53</course>
  <speed>26.51</speed>
  <fix>3d</fix>
</trkpt>
<trkpt lat="-27.2753885" lon="151.2907899">
  <ele>439.13</ele>
  <time>2026-09-01T19:59:18Z</time>
  <course>347.98</course>
  <speed>26.50674065214356</speed>
  <fix>3d</fix>
</trkpt>
<trkpt lat="-27.2754553" lon="151.290807">
  <ele>438.91</ele>
  <time>2026-09-01T19:59:18Z</time>
  <course>347.53</course>
  <speed>26.51</speed>
  <fix>3d</fix>
</trkpt>
<trkpt lat="-27.2753652" lon="151.2907842">
  <ele>439.23</ele>
  <time>2026-09-01T19:59:18Z</time>
  <course>348.04</course>
  <speed>26.49050584643487</speed>
  <fix>3d</fix>
</trkpt>
<trkpt lat="-27.2754088" lon="151.2907955">
  <ele>439.12</ele>
  <time>2026-09-01T19:59:18Z</time>
  <course>347.65</course>
  <speed>26.49</speed>
  <fix>3d</fix>
</trkpt>
<trkpt lat="-27.275342" lon="151.2907785">
  <ele>439.34</ele>
  <time>2026-09-01T19:59:18Z</time>
  <course>348.09</course>
  <speed>26.47858946394237</speed>
  <fix>3d</fix>
</trkpt>
<trkpt lat="-27.2754088" lon="151.2907955">
  <ele>439.12</ele>
  <time>2026-09-01T19:59:18Z</time>
  <course>347.65</course>
  <speed>26.49</speed>
  <fix>3d</fix>
</trkpt>
<trkpt lat="-27.2753188" lon="151.2907729">
  <ele>439.44</ele>
  <time>2026-09-01T19:59:18Z</time>
  <course>348.18</course>
  <speed>26.464530980162863</speed>
  <fix>3d</fix>
</trkpt>
<trkpt lat="-27.2753622" lon="151.2907841">
  <ele>439.33</ele>
  <time>2026-09-01T19:59:18Z</time>
  <course>347.74</course>
  <speed>26.46</speed>
  <fix>3d</fix>
</trkpt>
<trkpt lat="-27.2752956" lon="151.2907672">
  <ele>439.55</ele>
  <time>2026-09-01T19:59:18Z</time>
  <course>348.2</course>
  <speed>26.460253211184508</speed>
  <fix>3d</fix>
</trkpt>
<trkpt lat="-27.2753622" lon="151.2907841">
  <ele>439.33</ele>
  <time>2026-09-01T19:59:18Z</time>
  <course>347.74</course>
  <speed>26.46</speed>
  <fix>3d</fix>
</trkpt>
<trkpt lat="-27.2752724" lon="151.2907616">
  <ele>439.66</ele>
  <time>2026-09-01T19:59:18Z</time>
  <course>348.25</course>
  <speed>26.436448324235993</speed>
  <fix>3d</fix>
</trkpt>
<trkpt lat="-27.2753157" lon="151.2907727">
  <ele>439.54</ele>
  <time>2026-09-01T19:59:18Z</time>
  <course>347.82</course>
  <speed>26.44</speed>
  <fix>3d</fix>
</trkpt>
<trkpt lat="-27.2752492" lon="151.290756">
  <ele>439.77</ele>
  <time>2026-09-01T19:59:18Z</time>
  <course>348.32</course>
  <speed>26.422424188556207</speed>
  <fix>3d</fix>
</trkpt>
<trkpt lat="-27.2753157" lon="151.2907727">
  <ele>439.54</ele>
  <time>2026-09-01T19:59:18Z</time>
  <course>347.82</course>
  <speed>26.44</speed>
  <fix>3d</fix>
</trkpt>
<trkpt lat="-27.275226" lon="151.2907504">
  <ele>439.88</ele>
  <time>2026-09-01T19:59:18Z</time>
  <course>348.43</course>
  <speed>26.398638222453823</speed>
  <fix>3d</fix>
</trkpt>
<trkpt lat="-27.2752693" lon="151.2907614">
  <ele>439.75</ele>
  <time>2026-09-01T19:59:18Z</time>
  <course>347.9</course>
  <speed>26.41</speed>
  <fix>3d</fix>
</trkpt>
<trkpt lat="-27.2752029" lon="151.2907448">
  <ele>439.99</ele>
  <time>2026-09-01T19:59:18Z</time>
  <course>348.46</course>
  <speed>26.382526414276555</speed>
  <fix>3d</fix>
</trkpt>
<trkpt lat="-27.2752693" lon="151.2907614">
  <ele>439.75</ele>
  <time>2026-09-01T19:59:18Z</time>
  <course>347.9</course>
  <speed>26.41</speed>
  <fix>3d</fix>
</trkpt>
<trkpt lat="-27.2751797" lon="151.2907393">
  <ele>440.11</ele>
  <time>2026-09-01T19:59:18Z</time>
  <course>348.48</course>
  <speed>26.368541863364385</speed>
  <fix>3d</fix>
</trkpt>
<trkpt lat="-27.2752229" lon="151.2907503">
  <ele>439.96</ele>
  <time>2026-09-01T19:59:18Z</time>
  <course>347.99</course>
  <speed>26.37</speed>
  <fix>3d</fix>
</trkpt>
<trkpt lat="-27.2751566" lon="151.2907338">
  <ele>440.22</ele>
  <time>2026-09-01T19:59:18Z</time>
  <course>348.53</course>
  <speed>26.35456886386116</speed>
  <fix>3d</fix>
</trkpt>
<trkpt lat="-27.2752229" lon="151.2907503">
  <ele>439.96</ele>
  <time>2026-09-01T19:59:18Z</time>
  <course>347.99</course>
  <speed>26.37</speed>
  <fix>3d</fix>
</trkpt>
<trkpt lat="-27.2751334" lon="151.2907283">
  <ele>440.32</ele>
  <time>2026-09-01T19:59:18Z</time>
  <course>348.54</course>
  <speed>26.328740949768186</speed>
  <fix>3d</fix>
</trkpt>
<trkpt lat="-27.2751766" lon="151.2907394">
  <ele>440.19</ele>
  <time>2026-09-01T19:59:18Z</time>
  <course>348.08</course>
  <speed>26.33</speed>
  <fix>3d</fix>
</trkpt>
<trkpt lat="-27.2751103" lon="151.2907228">
  <ele>440.43</ele>
  <time>2026-09-01T19:59:18Z</time>
  <course>348.53</course>
  <speed>26.316876714382353</speed>
  <fix>3d</fix>
</trkpt>
<trkpt lat="-27.2751766" lon="151.2907394">
  <ele>440.19</ele>
  <time>2026-09-01T19:59:18Z</time>
  <course>348.08</course>
  <speed>26.33</speed>
  <fix>3d</fix>
</trkpt>
<trkpt lat="-27.2750872" lon="151.2907174">
  <ele>440.53</ele>
  <time>2026-09-01T19:59:18Z</time>
  <course>348.54</course>
  <speed>26.29315500277591</speed>
  <fix>3d</fix>
</trkpt>
<trkpt lat="-27.2751304" lon="151.2907284">
  <ele>440.4</ele>
  <time>2026-09-01T19:59:18Z</time>
  <course>348.16</course>
  <speed>26.3</speed>
  <fix>3d</fix>
</trkpt>
<trkpt lat="-27.2750641" lon="151.290712">
  <ele>440.64</ele>
  <time>2026-09-01T19:59:18Z</time>
  <course>348.6</course>
  <speed>26.269442323734243</speed>
  <fix>3d</fix>
</trkpt>
<trkpt lat="-27.2751304" lon="151.2907284">
  <ele>440.4</ele>
  <time>2026-09-01T19:59:18Z</time>
  <course>348.16</course>
  <speed>26.3</speed>
  <fix>3d</fix>
</trkpt>
<trkpt lat="-27.2750413" lon="151.2907067">
  <ele>440.74</ele>
  <time>2026-09-01T19:59:18Z</time>
  <course>348.66</course>
  <speed>26.25552322845614</speed>
  <fix>3d</fix>
</trkpt>
<trkpt lat="-27.2750842" lon="151.2907175">
  <ele>440.6</ele>
  <time>2026-09-01T19:59:18Z</time>
  <course>348.22</course>
  <speed>26.26</speed>
  <fix>3d</fix>
</trkpt>
<trkpt lat="-27.2750182" lon="151.2907013">
  <ele>440.84</ele>
  <time>2026-09-01T19:59:18Z</time>
  <course>348.71</course>
  <speed>26.231829901857783</speed>
  <fix>3d</fix>
</trkpt>
<trkpt lat="-27.2750842" lon="151.2907175">
  <ele>440.6</ele>
  <time>2026-09-01T19:59:18Z</time>
  <course>348.22</course>
  <speed>26.26</speed>
  <fix>3d</fix>
</trkpt>
<trkpt lat="-27.2749952" lon="151.2906959">
  <ele>440.93</ele>
  <time>2026-09-01T19:59:18Z</time>
  <course>348.73</course>
  <speed>26.208145680303293</speed>
  <fix>3d</fix>
</trkpt>
<trkpt lat="-27.275038" lon="151.2907067">
  <ele>440.8</ele>
  <time>2026-09-01T19:59:18Z</time>
  <course>348.28</course>
  <speed>26.22</speed>
  <fix>3d</fix>
</trkpt>
<trkpt lat="-27.2749721" lon="151.2906906">
  <ele>441.02</ele>
  <time>2026-09-01T19:59:18Z</time>
  <course>348.74</course>
  <speed>26.19425891297557</speed>
  <fix>3d</fix>
</trkpt>
<trkpt lat="-27.275038" lon="151.2907067">
  <ele>440.8</ele>
  <time>2026-09-01T19:59:18Z</time>
  <course>348.28</course>
  <speed>26.22</speed>
  <fix>3d</fix>
</trkpt>
<trkpt lat="-27.2749488" lon="151.2906852">
  <ele>441.12</ele>
  <time>2026-09-01T19:59:18Z</time>
  <course>348.78</course>
  <speed>26.172636473997034</speed>
  <fix>3d</fix>
</trkpt>
<trkpt lat="-27.274992" lon="151.290696">
  <ele>440.99</ele>
  <time>2026-09-01T19:59:18Z</time>
  <course>348.35</course>
  <speed>26.18</speed>
  <fix>3d</fix>
</trkpt>
<trkpt lat="-27.2749258" lon="151.2906799">
  <ele>441.21</ele>
  <time>2026-09-01T19:59:18Z</time>
  <course>348.8</course>
  <speed>26.148975123319843</speed>
  <fix>3d</fix>
</trkpt>
<trkpt lat="-27.274992" lon="151.290696">
  <ele>440.99</ele>
  <time>2026-09-01T19:59:18Z</time>
  <course>348.35</course>
  <speed>26.18</speed>
  <fix>3d</fix>
</trkpt>
<trkpt lat="-27.2749028" lon="151.2906746">
  <ele>441.3</ele>
  <time>2026-09-01T19:59:18Z</time>
  <course>348.78</course>
  <speed>26.137147893371992</speed>
  <fix>3d</fix>
</trkpt>
<trkpt lat="-27.274946" lon="151.2906854">
  <ele>441.16</ele>
  <time>2026-09-01T19:59:18Z</time>
  <course>348.4</course>
  <speed>26.14</speed>
  <fix>3d</fix>
</trkpt>
<trkpt lat="-27.2748798" lon="151.2906693">
  <ele>441.39</ele>
  <time>2026-09-01T19:59:18Z</time>
  <course>348.79</course>
  <speed>26.11553177708622</speed>
  <fix>3d</fix>
</trkpt>
<trkpt lat="-27.274946" lon="151.2906854">
  <ele>441.16</ele>
  <time>2026-09-01T19:59:18Z</time>
  <course>348.4</course>
  <speed>26.14</speed>
  <fix>3d</fix>
</trkpt>
<trkpt lat="-27.2748569" lon="151.290664">
  <ele>441.47</ele>
  <time>2026-09-01T19:59:18Z</time>
  <course>348.84</course>
  <speed>26.101680022557936</speed>
  <fix>3d</fix>
</trkpt>
<trkpt lat="-27.2749" lon="151.2906748">
  <ele>441.35</ele>
  <time>2026-09-01T19:59:18Z</time>
  <course>348.44</course>
  <speed>26.1</speed>
  <fix>3d</fix>
</trkpt>
<trkpt lat="-27.274834" lon="151.2906588">
  <ele>441.56</ele>
  <time>2026-09-01T19:59:18Z</time>
  <course>348.9</course>
  <speed>26.080069018313583</speed>
  <fix>3d</fix>
</trkpt>
<trkpt lat="-27.2749" lon="151.2906748">
  <ele>441.35</ele>
  <time>2026-09-01T19:59:18Z</time>
  <course>348.44</course>
  <speed>26.1</speed>
  <fix>3d</fix>
</trkpt>
<trkpt lat="-27.274811" lon="151.2906536">
  <ele>441.64</ele>
  <time>2026-09-01T19:59:18Z</time>
  <course>348.93</course>
  <speed>26.066232946093304</speed>
  <fix>3d</fix>
</trkpt>
<trkpt lat="-27.274854" lon="151.2906642">
  <ele>441.52</ele>
  <time>2026-09-01T19:59:18Z</time>
  <course>348.48</course>
  <speed>26.07</speed>
  <fix>3d</fix>
</trkpt>
<trkpt lat="-27.2747881" lon="151.2906483">
  <ele>441.72</ele>
  <time>2026-09-01T19:59:18Z</time>
  <course>348.93</course>
  <speed>26.054421889575675</speed>
  <fix>3d</fix>
</trkpt>
<trkpt lat="-27.274854" lon="151.2906642">
  <ele>441.52</ele>
  <time>2026-09-01T19:59:18Z</time>
  <course>348.48</course>
  <speed>26.07</speed>
  <fix>3d</fix>
</trkpt>
<trkpt lat="-27.2747652" lon="151.2906431">
  <ele>441.8</ele>
  <time>2026-09-01T19:59:18Z</time>
  <course>348.92</course>
  <speed>26.03281774990944</speed>
  <fix>3d</fix>
</trkpt>
<trkpt lat="-27.274808" lon="151.2906537">
  <ele>441.68</ele>
  <time>2026-09-01T19:59:18Z</time>
  <course>348.52</course>
  <speed>26.04</speed>
  <fix>3d</fix>
</trkpt>
<trkpt lat="-27.2747423" lon="151.2906379">
  <ele>441.87</ele>
  <time>2026-09-01T19:59:18Z</time>
  <course>348.92</course>
  <speed>26.02879943447258</speed>
  <fix>3d</fix>
</trkpt>
<trkpt lat="-27.274808" lon="151.2906537">
  <ele>441.68</ele>
  <time>2026-09-01T19:59:18Z</time>
  <course>348.52</course>
  <speed>26.04</speed>
  <fix>3d</fix>
</trkpt>
<trkpt lat="-27.2747195" lon="151.2906328">
  <ele>441.94</ele>
  <time>2026-09-01T19:59:18Z</time>
  <course>348.91</course>
  <speed>26.00720092589743</speed>
  <fix>3d</fix>
</trkpt>
<trkpt lat="-27.2747622" lon="151.2906433">
  <ele>441.83</ele>
  <time>2026-09-01T19:59:18Z</time>
  <course>348.56</course>
  <speed>26.01</speed>
  <fix>3d</fix>
</trkpt>
<trkpt lat="-27.2746966" lon="151.2906276">
  <ele>442.01</ele>
  <time>2026-09-01T19:59:18Z</time>
  <course>348.95</course>
  <speed>25.995401516422092</speed>
  <fix>3d</fix>
</trkpt>
<trkpt lat="-27.2747622" lon="151.2906433">
  <ele>441.83</ele>
  <time>2026-09-01T19:59:18Z</time>
  <course>348.56</course>
  <speed>26.01</speed>
  <fix>3d</fix>
</trkpt>
<trkpt lat="-27.2746737" lon="151.2906224">
  <ele>442.08</ele>
  <time>2026-09-01T19:59:18Z</time>
  <course>348.94</course>
  <speed>25.973806036081815</speed>
  <fix>3d</fix>
</trkpt>
<trkpt lat="-27.2747164" lon="151.2906329">
  <ele>441.97</ele>
  <time>2026-09-01T19:59:18Z</time>
  <course>348.6</course>
  <speed>25.98</speed>
  <fix>3d</fix>
</trkpt>
<trkpt lat="-27.2746509" lon="151.2906172">
  <ele>442.15</ele>
  <time>2026-09-01T19:59:18Z</time>
  <course>348.99</course>
  <speed>25.962010707955578</speed>
  <fix>3d</fix>
</trkpt>
<trkpt lat="-27.2747164" lon="151.2906329">
  <ele>441.97</ele>
  <time>2026-09-01T19:59:18Z</time>
  <course>348.6</course>
  <speed>25.98</speed>
  <fix>3d</fix>
</trkpt>
<trkpt lat="-27.274628" lon="151.2906121">
  <ele>442.21</ele>
  <time>2026-09-01T19:59:18Z</time>
  <course>349.01</course>
  <speed>25.95021772548354</speed>
  <fix>3d</fix>
</trkpt>
<trkpt lat="-27.2746707" lon="151.2906225">
  <ele>442.1</ele>
  <time>2026-09-01T19:59:18Z</time>
  <course>348.63</course>
  <speed>25.95</speed>
  <fix>3d</fix>
</trkpt>
<trkpt lat="-27.2746052" lon="151.290607">
  <ele>442.26</ele>
  <time>2026-09-01T19:59:18Z</time>
  <course>348.98</course>
  <speed>25.940418269565352</speed>
  <fix>3d</fix>
</trkpt>
<trkpt lat="-27.2746707" lon="151.2906225">
  <ele>442.1</ele>
  <time>2026-09-01T19:59:18Z</time>
  <course>348.63</course>
  <speed>25.95</speed>
  <fix>3d</fix>
</trkpt>
<trkpt lat="-27.2745824" lon="151.2906018">
  <ele>442.31</ele>
  <time>2026-09-01T19:59:18Z</time>
  <course>348.96</course>
  <speed>25.928627036540135</speed>
  <fix>3d</fix>
</trkpt>
<trkpt lat="-27.274625" lon="151.2906122">
  <ele>442.22</ele>
  <time>2026-09-01T19:59:18Z</time>
  <course>348.65</course>
  <speed>25.92</speed>
  <fix>3d</fix>
</trkpt>
<trkpt lat="-27.2745598" lon="151.2905967">
  <ele>442.36</ele>
  <time>2026-09-01T19:59:18Z</time>
  <course>349.0</course>
  <speed>25.918827133958047</speed>
  <fix>3d</fix>
</trkpt>
<trkpt lat="-27.274625" lon="151.2906122">
  <ele>442.22</ele>
  <time>2026-09-01T19:59:18Z</time>
  <course>348.65</course>
  <speed>25.92</speed>
  <fix>3d</fix>
</trkpt>
<trkpt lat="-27.274537" lon="151.2905916">
  <ele>442.41</ele>
  <time>2026-09-01T19:59:18Z</time>
  <course>349.0</course>
  <speed>25.90902738429214</speed>
  <fix>3d</fix>
</trkpt>
<trkpt lat="-27.2745794" lon="151.2906019">
  <ele>442.33</ele>
  <time>2026-09-01T19:59:18Z</time>
  <course>348.65</course>
  <speed>25.9</speed>
  <fix>3d</fix>
</trkpt>
<trkpt lat="-27.2745142" lon="151.2905864">
  <ele>442.45</ele>
  <time>2026-09-01T19:59:18Z</time>
  <course>349.04</course>
  <speed>25.90902738429214</speed>
  <fix>3d</fix>
</trkpt>
<trkpt lat="-27.2745794" lon="151.2906019">
  <ele>442.33</ele>
  <time>2026-09-01T19:59:18Z</time>
  <course>348.65</course>
  <speed>25.9</speed>
  <fix>3d</fix>
</trkpt>
<trkpt lat="-27.2744914" lon="151.2905813">
  <ele>442.49</ele>
  <time>2026-09-01T19:59:18Z</time>
  <course>349.02</course>
  <speed>25.897237304392142</speed>
  <fix>3d</fix>
</trkpt>
<trkpt lat="-27.2745338" lon="151.2905916">
  <ele>442.42</ele>
  <time>2026-09-01T19:59:18Z</time>
  <course>348.65</course>
  <speed>25.88</speed>
  <fix>3d</fix>
</trkpt>
<trkpt lat="-27.2744684" lon="151.2905761">
  <ele>442.53</ele>
  <time>2026-09-01T19:59:18Z</time>
  <course>349.01</course>
  <speed>25.887437107601055</speed>
  <fix>3d</fix>
</trkpt>
<trkpt lat="-27.2745338" lon="151.2905916">
  <ele>442.42</ele>
  <time>2026-09-01T19:59:18Z</time>
  <course>348.65</course>
  <speed>25.88</speed>
  <fix>3d</fix>
</trkpt>
<trkpt lat="-27.2744457" lon="151.290571">
  <ele>442.57</ele>
  <time>2026-09-01T19:59:18Z</time>
  <course>348.94</course>
  <speed>25.877637063688795</speed>
  <fix>3d</fix>
</trkpt>
<trkpt lat="-27.2744883" lon="151.2905813">
  <ele>442.51</ele>
  <time>2026-09-01T19:59:18Z</time>
  <course>348.65</course>
  <speed>25.86</speed>
  <fix>3d</fix>
</trkpt>
<trkpt lat="-27.2744229" lon="151.2905659">
  <ele>442.61</ele>
  <time>2026-09-01T19:59:18Z</time>
  <course>348.92</course>
  <speed>25.877637063688795</speed>
  <fix>3d</fix>
</trkpt>
<trkpt lat="-27.2744883" lon="151.2905813">
  <ele>442.51</ele>
  <time>2026-09-01T19:59:18Z</time>
  <course>348.65</course>
  <speed>25.86</speed>
  <fix>3d</fix>
</trkpt>
<trkpt lat="-27.2744002" lon="151.2905608">
  <ele>442.65</ele>
  <time>2026-09-01T19:59:18Z</time>
  <course>348.88</course>
  <speed>25.858037435196042</speed>
  <fix>3d</fix>
</trkpt>
<trkpt lat="-27.2744427" lon="151.290571">
  <ele>442.59</ele>
  <time>2026-09-01T19:59:18Z</time>
  <course>348.64</course>
  <speed>25.85</speed>
  <fix>3d</fix>
</trkpt>
<trkpt lat="-27.2743774" lon="151.2905556">
  <ele>442.69</ele>
  <time>2026-09-01T19:59:18Z</time>
  <course>348.9</course>
  <speed>25.848237850963848</speed>
  <fix>3d</fix>
</trkpt>
<trkpt lat="-27.2744427" lon="151.290571">
  <ele>442.59</ele>
  <time>2026-09-01T19:59:18Z</time>
  <course>348.64</course>
  <speed>25.85</speed>
  <fix>3d</fix>
</trkpt>
<trkpt lat="-27.2743547" lon="151.2905505">
  <ele>442.73</ele>
  <time>2026-09-01T19:59:18Z</time>
  <course>348.95</course>
  <speed>25.848237850963848</speed>
  <fix>3d</fix>
</trkpt>
<trkpt lat="-27.2743971" lon="151.2905607">
  <ele>442.66</ele>
  <time>2026-09-01T19:59:18Z</time>
  <course>348.62</course>
  <speed>25.82</speed>
  <fix>3d</fix>
</trkpt>
<trkpt lat="-27.2743318" lon="151.2905453">
  <ele>442.76</ele>
  <time>2026-09-01T19:59:18Z</time>
  <course>348.96</course>
  <speed>25.83843842030706</speed>
  <fix>3d</fix>
</trkpt>
<trkpt lat="-27.2743971" lon="151.2905607">
  <ele>442.66</ele>
  <time>2026-09-01T19:59:18Z</time>
  <course>348.62</course>
  <speed>25.82</speed>
  <fix>3d</fix>
</trkpt>
<trkpt lat="-27.274309" lon="151.2905402">
  <ele>442.8</ele>
  <time>2026-09-01T19:59:18Z</time>
  <course>348.92</course>
  <speed>25.82863914340049</speed>
  <fix>3d</fix>
</trkpt>
<trkpt lat="-27.2743516" lon="151.2905504">
  <ele>442.74</ele>
  <time>2026-09-01T19:59:18Z</time>
  <course>348.61</course>
  <speed>25.81</speed>
  <fix>3d</fix>
</trkpt>
<trkpt lat="-27.2742863" lon="151.290535">
  <ele>442.83</ele>
  <time>2026-09-01T19:59:18Z</time>
  <course>348.92</course>
  <speed>25.82863914340049</speed>
  <fix>3d</fix>
</trkpt>
<trkpt lat="-27.2743516" lon="151.2905504">
  <ele>442.74</ele>
  <time>2026-09-01T19:59:18Z</time>
  <course>348.61</course>
  <speed>25.81</speed>
  <fix>3d</fix>
</trkpt>
<trkpt lat="-27.2742636" lon="151.2905299">
  <ele>442.85</ele>
  <time>2026-09-01T19:59:18Z</time>
  <course>348.93</course>
  <speed>25.8188400204192</speed>
  <fix>3d</fix>
</trkpt>
<trkpt lat="-27.2743062" lon="151.2905401">
  <ele>442.81</ele>
  <time>2026-09-01T19:59:18Z</time>
  <course>348.6</course>
  <speed>25.79</speed>
  <fix>3d</fix>
</trkpt>
<trkpt lat="-27.2742408" lon="151.2905247">
  <ele>442.88</ele>
  <time>2026-09-01T19:59:18Z</time>
  <course>348.96</course>
  <speed>25.80904105153851</speed>
  <fix>3d</fix>
</trkpt>
<trkpt lat="-27.2743062" lon="151.2905401">
  <ele>442.81</ele>
  <time>2026-09-01T19:59:18Z</time>
  <course>348.6</course>
  <speed>25.79</speed>
  <fix>3d</fix>
</trkpt>
<trkpt lat="-27.2742181" lon="151.2905196">
  <ele>442.9</ele>
  <time>2026-09-01T19:59:18Z</time>
  <course>348.96</course>
  <speed>25.80704748707221</speed>
  <fix>3d</fix>
</trkpt>
<trkpt lat="-27.2742608" lon="151.2905298">
  <ele>442.86</ele>
  <time>2026-09-01T19:59:18Z</time>
  <course>348.59</course>
  <speed>25.77</speed>
  <fix>3d</fix>
</trkpt>
<trkpt lat="-27.2741954" lon="151.2905144">
  <ele>442.92</ele>
  <time>2026-09-01T19:59:18Z</time>
  <course>348.92</course>
  <speed>25.80704748707221</speed>
  <fix>3d</fix>
</trkpt>
<trkpt lat="-27.2742608" lon="151.2905298">
  <ele>442.86</ele>
  <time>2026-09-01T19:59:18Z</time>
  <course>348.59</course>
  <speed>25.77</speed>
  <fix>3d</fix>
</trkpt>
<trkpt lat="-27.2741726" lon="151.2905093">
  <ele>442.94</ele>
  <time>2026-09-01T19:59:18Z</time>
  <course>348.95</course>
  <speed>25.79724791523313</speed>
  <fix>3d</fix>
</trkpt>
<trkpt lat="-27.2742154" lon="151.2905195">
  <ele>442.91</ele>
  <time>2026-09-01T19:59:18Z</time>
  <course>348.59</course>
  <speed>25.76</speed>
  <fix>3d</fix>
</trkpt>
<trkpt lat="-27.2741499" lon="151.2905041">
  <ele>442.95</ele>
  <time>2026-09-01T19:59:18Z</time>
  <course>348.89</course>
  <speed>25.795257316026138</speed>
  <fix>3d</fix>
</trkpt>
<trkpt lat="-27.2742154" lon="151.2905195">
  <ele>442.91</ele>
  <time>2026-09-01T19:59:18Z</time>
  <course>348.59</course>
  <speed>25.76</speed>
  <fix>3d</fix>
</trkpt>
<trkpt lat="-27.2741272" lon="151.290499">
  <ele>442.97</ele>
  <time>2026-09-01T19:59:18Z</time>
  <course>348.88</course>
  <speed>25.785457141574977</speed>
  <fix>3d</fix>
</trkpt>
<trkpt lat="-27.27417" lon="151.2905092">
  <ele>442.96</ele>
  <time>2026-09-01T19:59:18Z</time>
  <course>348.6</course>
  <speed>25.75</speed>
  <fix>3d</fix>
</trkpt>
<trkpt lat="-27.2741045" lon="151.2904939">
  <ele>442.99</ele>
  <time>2026-09-01T19:59:18Z</time>
  <course>348.9</course>
  <speed>25.77565712062449</speed>
  <fix>3d</fix>
</trkpt>
<trkpt lat="-27.27417" lon="151.2905092">
  <ele>442.96</ele>
  <time>2026-09-01T19:59:18Z</time>
  <course>348.6</course>
  <speed>25.75</speed>
  <fix>3d</fix>
</trkpt>
<trkpt lat="-27.274082" lon="151.2904888">
  <ele>443.0</ele>
  <time>2026-09-01T19:59:18Z</time>
  <course>348.95</course>
  <speed>25.77565712062449</speed>
  <fix>3d</fix>
</trkpt>
<trkpt lat="-27.2741247" lon="151.2904989">
  <ele>442.99</ele>
  <time>2026-09-01T19:59:18Z</time>
  <course>348.6</course>
  <speed>25.74</speed>
  <fix>3d</fix>
</trkpt>
<trkpt lat="-27.2740593" lon="151.2904836">
  <ele>443.02</ele>
  <time>2026-09-01T19:59:18Z</time>
  <course>348.89</course>
  <speed>25.773668733806602</speed>
  <fix>3d</fix>
</trkpt>
<trkpt lat="-27.2741247" lon="151.2904989">
  <ele>442.99</ele>
  <time>2026-09-01T19:59:18Z</time>
  <course>348.6</course>
  <speed>25.74</speed>
  <fix>3d</fix>
</trkpt>
<trkpt lat="-27.2740367" lon="151.2904785">
  <ele>443.03</ele>
  <time>2026-09-01T19:59:18Z</time>
  <course>348.83</course>
  <speed>25.763868110204257</speed>
  <fix>3d</fix>
</trkpt>
<trkpt lat="-27.2740794" lon="151.2904887">
  <ele>443.02</ele>
  <time>2026-09-01T19:59:18Z</time>
  <course>348.6</course>
  <speed>25.73</speed>
  <fix>3d</fix>
</trkpt>
<trkpt lat="-27.2740142" lon="151.2904734">
  <ele>443.04</ele>
  <time>2026-09-01T19:59:18Z</time>
  <course>348.87</course>
  <speed>25.76585725334983</speed>
  <fix>3d</fix>
</trkpt>
<trkpt lat="-27.2740794" lon="151.2904887">
  <ele>443.02</ele>
  <time>2026-09-01T19:59:18Z</time>
  <course>348.6</course>
  <speed>25.73</speed>
  <fix>3d</fix>
</trkpt>
<trkpt lat="-27.2739915" lon="151.2904683">
  <ele>443.05</ele>
  <time>2026-09-01T19:59:18Z</time>
  <course>348.91</course>
  <speed>25.744267323037178</speed>
  <fix>3d</fix>
</trkpt>
<trkpt lat="-27.2740341" lon="151.2904784">
  <ele>443.05</ele>
  <time>2026-09-01T19:59:18Z</time>
  <course>348.6</course>
  <speed>25.72</speed>
  <fix>3d</fix>
</trkpt>
<trkpt lat="-27.273969" lon="151.2904632">
  <ele>443.06</ele>
  <time>2026-09-01T19:59:18Z</time>
  <course>348.88</course>
  <speed>25.732479476334962</speed>
  <fix>3d</fix>
</trkpt>
<trkpt lat="-27.2740341" lon="151.2904784">
  <ele>443.05</ele>
  <time>2026-09-01T19:59:18Z</time>
  <course>348.6</course>
  <speed>25.72</speed>
  <fix>3d</fix>
</trkpt>
<trkpt lat="-27.2739466" lon="151.2904581">
  <ele>443.07</ele>
  <time>2026-09-01T19:59:18Z</time>
  <course>348.92</course>
  <speed>25.710892633278995</speed>
  <fix>3d</fix>
</trkpt>
<trkpt lat="-27.2739888" lon="151.2904681">
  <ele>443.08</ele>
  <time>2026-09-01T19:59:18Z</time>
  <course>348.59</course>
  <speed>25.71</speed>
  <fix>3d</fix>
</trkpt>
<trkpt lat="-27.2739241" lon="151.2904531">
  <ele>443.08</ele>
  <time>2026-09-01T19:59:18Z</time>
  <course>348.88</course>
  <speed>25.701091416513815</speed>
  <fix>3d</fix>
</trkpt>
<trkpt lat="-27.2739888" lon="151.2904681">
  <ele>443.08</ele>
  <time>2026-09-01T19:59:18Z</time>
  <course>348.59</course>
  <speed>25.71</speed>
  <fix>3d</fix>
</trkpt>
<trkpt lat="-27.2739017" lon="151.290448">
  <ele>443.09</ele>
  <time>2026-09-01T19:59:18Z</time>
  <course>348.87</course>
  <speed>25.68930711405039</speed>
  <fix>3d</fix>
</trkpt>
<trkpt lat="-27.2739435" lon="151.2904578">
  <ele>443.1</ele>
  <time>2026-09-01T19:59:18Z</time>
  <course>348.6</course>
  <speed>25.69</speed>
  <fix>3d</fix>
</trkpt>
<trkpt lat="-27.2738792" lon="151.2904429">
  <ele>443.09</ele>
  <time>2026-09-01T19:59:18Z</time>
  <course>348.88</course>
  <speed>25.68930711405039</speed>
  <fix>3d</fix>
</trkpt>
<trkpt lat="-27.2739435" lon="151.2904578">
  <ele>443.1</ele>
  <time>2026-09-01T19:59:18Z</time>
  <course>348.6</course>
  <speed>25.69</speed>
  <fix>3d</fix>
</trkpt>
<trkpt lat="-27.2738568" lon="151.2904379">
  <ele>443.1</ele>
  <time>2026-09-01T19:59:18Z</time>
  <course>348.86</course>
  <speed>25.67950544695127</speed>
  <fix>3d</fix>
</trkpt>
<trkpt lat="-27.2738982" lon="151.2904476">
  <ele>443.13</ele>
  <time>2026-09-01T19:59:18Z</time>
  <course>348.6</course>
  <speed>25.69</speed>
  <fix>3d</fix>
</trkpt>
<trkpt lat="-27.2738343" lon="151.2904328">
  <ele>443.11</ele>
  <time>2026-09-01T19:59:18Z</time>
  <course>348.85</course>
  <speed>25.669703932846595</speed>
  <fix>3d</fix>
</trkpt>
<trkpt lat="-27.2738982" lon="151.2904476">
  <ele>443.13</ele>
  <time>2026-09-01T19:59:18Z</time>
  <course>348.6</course>
  <speed>25.69</speed>
  <fix>3d</fix>
</trkpt>
<trkpt lat="-27.2738118" lon="151.2904277">
  <ele>443.11</ele>
  <time>2026-09-01T19:59:18Z</time>
  <course>348.87</course>
  <speed>25.669703932846595</speed>
  <fix>3d</fix>
</trkpt>
<trkpt lat="-27.273853" lon="151.2904373">
  <ele>443.14</ele>
  <time>2026-09-01T19:59:18Z</time>
  <course>348.6</course>
  <speed>25.68</speed>
  <fix>3d</fix>
</trkpt>
<trkpt lat="-27.2737893" lon="151.2904226">
  <ele>443.12</ele>
  <time>2026-09-01T19:59:18Z</time>
  <course>348.88</course>
  <speed>25.650101364322133</speed>
  <fix>3d</fix>
</trkpt>
<trkpt lat="-27.273853" lon="151.2904373">
  <ele>443.14</ele>
  <time>2026-09-01T19:59:18Z</time>
  <course>348.6</course>
  <speed>25.68</speed>
  <fix>3d</fix>
</trkpt>
<trkpt lat="-27.2737669" lon="151.2904175">
  <ele>443.14</ele>
  <time>2026-09-01T19:59:18Z</time>
  <course>348.84</course>
  <speed>25.650101364322133</speed>
  <fix>3d</fix>
</trkpt>
<trkpt lat="-27.2738077" lon="151.290427">
  <ele>443.16</ele>
  <time>2026-09-01T19:59:18Z</time>
  <course>348.6</course>
  <speed>25.68</speed>
  <fix>3d</fix>
</trkpt>
<trkpt lat="-27.2737444" lon="151.2904124">
  <ele>443.15</ele>
  <time>2026-09-01T19:59:18Z</time>
  <course>348.84</course>
  <speed>25.640300310253778</speed>
  <fix>3d</fix>
</trkpt>
<trkpt lat="-27.2738077" lon="151.290427">
  <ele>443.16</ele>
  <time>2026-09-01T19:59:18Z</time>
  <course>348.6</course>
  <speed>25.68</speed>
  <fix>3d</fix>
</trkpt>
<trkpt lat="-27.2737219" lon="151.2904073">
  <ele>443.15</ele>
  <time>2026-09-01T19:59:18Z</time>
  <course>348.84</course>
  <speed>25.640300310253778</speed>
  <fix>3d</fix>
</trkpt>
<trkpt lat="-27.2737624" lon="151.2904168">
  <ele>443.18</ele>
  <time>2026-09-01T19:59:18Z</time>
  <course>348.59</course>
  <speed>25.67</speed>
  <fix>3d</fix>
</trkpt>
<trkpt lat="-27.2736992" lon="151.2904022">
  <ele>443.16</ele>
  <time>2026-09-01T19:59:18Z</time>
  <course>348.84</course>
  <speed>25.63049940988275</speed>
  <fix>3d</fix>
</trkpt>
<trkpt lat="-27.2737624" lon="151.2904168">
  <ele>443.18</ele>
  <time>2026-09-01T19:59:18Z</time>
  <course>348.59</course>
  <speed>25.67</speed>
  <fix>3d</fix>
</trkpt>
<trkpt lat="-27.2736765" lon="151.2903971">
  <ele>443.17</ele>
  <time>2026-09-01T19:59:18Z</time>
  <course>348.84</course>
  <speed>25.62851536862797</speed>
  <fix>3d</fix>
</trkpt>
<trkpt lat="-27.2737173" lon="151.2904065">
  <ele>443.21</ele>
  <time>2026-09-01T19:59:18Z</time>
  <course>348.58</course>
  <speed>25.67</speed>
  <fix>3d</fix>
</trkpt>
<trkpt lat="-27.2736539" lon="151.2903919">
  <ele>443.18</ele>
  <time>2026-09-01T19:59:18Z</time>
  <course>348.81</course>
  <speed>25.63049940988275</speed>
  <fix>3d</fix>
</trkpt>
<trkpt lat="-27.2737173" lon="151.2904065">
  <ele>443.21</ele>
  <time>2026-09-01T19:59:18Z</time>
  <course>348.58</course>
  <speed>25.67</speed>
  <fix>3d</fix>
</trkpt>
<trkpt lat="-27.2736313" lon="151.2903868">
  <ele>443.18</ele>
  <time>2026-09-01T19:59:18Z</time>
  <course>348.81</course>
  <speed>25.63049940988275</speed>
  <fix>3d</fix>
</trkpt>
<trkpt lat="-27.2736721" lon="151.2903963">
  <ele>443.22</ele>
  <time>2026-09-01T19:59:18Z</time>
  <course>348.57</course>
  <speed>25.66</speed>
  <fix>3d</fix>
</trkpt>
<trkpt lat="-27.2736089" lon="151.2903817">
  <ele>443.19</ele>
  <time>2026-09-01T19:59:18Z</time>
  <course>348.79</course>
  <speed>25.63049940988275</speed>
  <fix>3d</fix>
</trkpt>
<trkpt lat="-27.2736721" lon="151.2903963">
  <ele>443.22</ele>
  <time>2026-09-01T19:59:18Z</time>
  <course>348.57</course>
  <speed>25.66</speed>
  <fix>3d</fix>
</trkpt>
<trkpt lat="-27.2735864" lon="151.2903766">
  <ele>443.2</ele>
  <time>2026-09-01T19:59:18Z</time>
  <course>348.75</course>
  <speed>25.620698663385433</speed>
  <fix>3d</fix>
</trkpt>
<trkpt lat="-27.273627" lon="151.290386">
  <ele>443.24</ele>
  <time>2026-09-01T19:59:18Z</time>
  <course>348.57</course>
  <speed>25.66</speed>
  <fix>3d</fix>
</trkpt>
<trkpt lat="-27.2735638" lon="151.2903715">
  <ele>443.21</ele>
  <time>2026-09-01T19:59:18Z</time>
  <course>348.74</course>
  <speed>25.620698663385433</speed>
  <fix>3d</fix>
</trkpt>
<trkpt lat="-27.273627" lon="151.290386">
  <ele>443.24</ele>
  <time>2026-09-01T19:59:18Z</time>
  <course>348.57</course>
  <speed>25.66</speed>
  <fix>3d</fix>
</trkpt>
<trkpt lat="-27.2735412" lon="151.2903663">
  <ele>443.21</ele>
  <time>2026-09-01T19:59:18Z</time>
  <course>348.76</course>
  <speed>25.620698663385433</speed>
  <fix>3d</fix>
</trkpt>
<trkpt lat="-27.2735818" lon="151.2903757">
  <ele>443.25</ele>
  <time>2026-09-01T19:59:18Z</time>
  <course>348.56</course>
  <speed>25.65</speed>
  <fix>3d</fix>
</trkpt>
<trkpt lat="-27.2735185" lon="151.2903612">
  <ele>443.22</ele>
  <time>2026-09-01T19:59:18Z</time>
  <course>348.76</course>
  <speed>25.60891251107708</speed>
  <fix>3d</fix>
</trkpt>
<trkpt lat="-27.2735818" lon="151.2903757">
  <ele>443.25</ele>
  <time>2026-09-01T19:59:18Z</time>
  <course>348.56</course>
  <speed>25.65</speed>
  <fix>3d</fix>
</trkpt>
<trkpt lat="-27.273496" lon="151.2903561">
  <ele>443.22</ele>
  <time>2026-09-01T19:59:18Z</time>
  <course>348.75</course>
  <speed>25.60693070244851</speed>
  <fix>3d</fix>
</trkpt>
<trkpt lat="-27.2735366" lon="151.2903655">
  <ele>443.26</ele>
  <time>2026-09-01T19:59:18Z</time>
  <course>348.56</course>
  <speed>25.64</speed>
  <fix>3d</fix>
</trkpt>
<trkpt lat="-27.2734734" lon="151.2903509">
  <ele>443.23</ele>
  <time>2026-09-01T19:59:18Z</time>
  <course>348.8</course>
  <speed>25.597128745232343</speed>
  <fix>3d</fix>
</trkpt>
<trkpt lat="-27.2735366" lon="151.2903655">
  <ele>443.26</ele>
  <time>2026-09-01T19:59:18Z</time>
  <course>348.56</course>
  <speed>25.64</speed>
  <fix>3d</fix>
</trkpt>
<trkpt lat="-27.2734508" lon="151.2903458">
  <ele>443.25</ele>
  <time>2026-09-01T19:59:18Z</time>
  <course>348.83</course>
  <speed>25.597128745232343</speed>
  <fix>3d</fix>
</trkpt>
<trkpt lat="-27.2734915" lon="151.2903552">
  <ele>443.28</ele>
  <time>2026-09-01T19:59:18Z</time>
  <course>348.57</course>
  <speed>25.63</speed>
  <fix>3d</fix>
</trkpt>
<trkpt lat="-27.2734283" lon="151.2903407">
  <ele>443.26</ele>
  <time>2026-09-01T19:59:18Z</time>
  <course>348.8</course>
  <speed>25.57554495998081</speed>
  <fix>3d</fix>
</trkpt>
<trkpt lat="-27.2734915" lon="151.2903552">
  <ele>443.28</ele>
  <time>2026-09-01T19:59:18Z</time>
  <course>348.57</course>
  <speed>25.63</speed>
  <fix>3d</fix>
</trkpt>
<trkpt lat="-27.2734057" lon="151.2903356">
  <ele>443.27</ele>
  <time>2026-09-01T19:59:18Z</time>
  <course>348.74</course>
  <speed>25.493169673463516</speed>
  <fix>3d</fix>
</trkpt>
<trkpt lat="-27.2734462" lon="151.2903449">
  <ele>443.31</ele>
  <time>2026-09-01T19:59:18Z</time>
  <course>348.59</course>
  <speed>25.6</speed>
  <fix>3d</fix>
</trkpt>
<trkpt lat="-27.2733833" lon="151.2903305">
  <ele>443.28</ele>
  <time>2026-09-01T19:59:18Z</time>
  <course>348.61</course>
  <speed>25.35594802013918</speed>
  <fix>3d</fix>
</trkpt>
<trkpt lat="-27.2734462" lon="151.2903449">
  <ele>443.31</ele>
  <time>2026-09-01T19:59:18Z</time>
  <course>348.59</course>
  <speed>25.6</speed>
  <fix>3d</fix>
</trkpt>
<trkpt lat="-27.273361" lon="151.2903254">
  <ele>443.31</ele>
  <time>2026-09-01T19:59:18Z</time>
  <course>348.22</course>
  <speed>25.149244521456307</speed>
  <fix>3d</fix>
</trkpt>
<trkpt lat="-27.2734012" lon="151.2903347">
  <ele>443.32</ele>
  <time>2026-09-01T19:59:18Z</time>
  <course>348.57</course>
  <speed>25.48</speed>
  <fix>3d</fix>
</trkpt>
<trkpt lat="-27.273339" lon="151.29032">
  <ele>443.39</ele>
  <time>2026-09-01T19:59:18Z</time>
  <course>347.48</course>
  <speed>24.83756227974074</speed>
  <fix>3d</fix>
</trkpt>
<trkpt lat="-27.2734012" lon="151.2903347">
  <ele>443.32</ele>
  <time>2026-09-01T19:59:18Z</time>
  <course>348.57</course>
  <speed>25.48</speed>
  <fix>3d</fix>
</trkpt>
<trkpt lat="-27.2733174" lon="151.2903143">
  <ele>443.52</ele>
  <time>2026-09-01T19:59:18Z</time>
  <course>346.38</course>
  <speed>24.455089449846632</speed>
  <fix>3d</fix>
</trkpt>
<trkpt lat="-27.2733567" lon="151.2903243">
  <ele>443.38</ele>
  <time>2026-09-01T19:59:18Z</time>
  <course>347.95</course>
  <speed>25.11</speed>
  <fix>3d</fix>
</trkpt>
<trkpt lat="-27.2732963" lon="151.2903082">
  <ele>443.69</ele>
  <time>2026-09-01T19:59:18Z</time>
  <course>344.99</course>
  <speed>24.00261027471804</speed>
  <fix>3d</fix>
</trkpt>
<trkpt lat="-27.2733567" lon="151.2903243">
  <ele>443.38</ele>
  <time>2026-09-01T19:59:18Z</time>
  <course>347.95</course>
  <speed>25.11</speed>
  <fix>3d</fix>
</trkpt>
<trkpt lat="-27.2732757" lon="151.2903017">
  <ele>443.91</ele>
  <time>2026-09-01T19:59:18Z</time>
  <course>343.5</course>
  <speed>23.533238196219404</speed>
  <fix>3d</fix>
</trkpt>
<trkpt lat="-27.2733132" lon="151.2903132">
  <ele>443.59</ele>
  <time>2026-09-01T19:59:18Z</time>
  <course>346.22</course>
  <speed>24.42</speed>
  <fix>3d</fix>
</trkpt>
<trkpt lat="-27.2732557" lon="151.2902948">
  <ele>444.17</ele>
  <time>2026-09-01T19:59:18Z</time>
  <course>342.06</course>
  <speed>23.04828410099112</speed>
  <fix>3d</fix>
</trkpt>
<trkpt lat="-27.2733132" lon="151.2903132">
  <ele>443.59</ele>
  <time>2026-09-01T19:59:18Z</time>
  <course>346.22</course>
  <speed>24.42</speed>
  <fix>3d</fix>
</trkpt>
<trkpt lat="-27.2732362" lon="151.2902875">
  <ele>444.46</ele>
  <time>2026-09-01T19:59:18Z</time>
  <course>340.75</course>
  <speed>22.55500387940556</speed>
  <fix>3d</fix>
</trkpt>
<trkpt lat="-27.2732716" lon="151.2903007">
  <ele>443.97</ele>
  <time>2026-09-01T19:59:18Z</time>
  <course>343.71</course>
  <speed>23.51</speed>
  <fix>3d</fix>
</trkpt>
<trkpt lat="-27.2732173" lon="151.2902799">
  <ele>444.79</ele>
  <time>2026-09-01T19:59:18Z</time>
  <course>339.59</course>
  <speed>22.057626798910167</speed>
  <fix>3d</fix>
</trkpt>
<trkpt lat="-27.2732716" lon="151.2903007">
  <ele>443.97</ele>
  <time>2026-09-01T19:59:18Z</time>
  <course>343.71</course>
  <speed>23.51</speed>
  <fix>3d</fix>
</trkpt>
<trkpt lat="-27.2731989" lon="151.2902721">
  <ele>445.14</ele>
  <time>2026-09-01T19:59:18Z</time>
  <course>338.62</course>
  <speed>21.559315851853924</speed>
  <fix>3d</fix>
</trkpt>
<trkpt lat="-27.2732322" lon="151.2902866">
  <ele>444.53</ele>
  <time>2026-09-01T19:59:18Z</time>
  <course>341.01</course>
  <speed>22.53</speed>
  <fix>3d</fix>
</trkpt>
<trkpt lat="-27.2731811" lon="151.290264">
  <ele>445.51</ele>
  <time>2026-09-01T19:59:18Z</time>
  <course>337.91</course>
  <speed>21.067700396578644</speed>
  <fix>3d</fix>
</trkpt>
<trkpt lat="-27.2732322" lon="151.2902866">
  <ele>444.53</ele>
  <time>2026-09-01T19:59:18Z</time>
  <course>341.01</course>
  <speed>22.53</speed>
  <fix>3d</fix>
</trkpt>
<trkpt lat="-27.2731638" lon="151.2902558">
  <ele>445.9</ele>
  <time>2026-09-01T19:59:18Z</time>
  <course>337.43</course>
  <speed>20.615338949432775</speed>
  <fix>3d</fix>
</trkpt>
<trkpt lat="-27.2731951" lon="151.2902712">
  <ele>445.2</ele>
  <time>2026-09-01T19:59:18Z</time>
  <course>338.52</course>
  <speed>21.53</speed>
  <fix>3d</fix>
</trkpt>
<trkpt lat="-27.2731469" lon="151.2902475">
  <ele>446.28</ele>
  <time>2026-09-01T19:59:18Z</time>
  <course>337.1</course>
  <speed>20.1932290632281</speed>
  <fix>3d</fix>
</trkpt>
<trkpt lat="-27.2731951" lon="151.2902712">
  <ele>445.2</ele>
  <time>2026-09-01T19:59:18Z</time>
  <course>338.52</course>
  <speed>21.53</speed>
  <fix>3d</fix>
</trkpt>
<trkpt lat="-27.2731305" lon="151.2902393">
  <ele>446.64</ele>
  <time>2026-09-01T19:59:18Z</time>
  <course>336.83</course>
  <speed>19.820335516837247</speed>
  <fix>3d</fix>
</trkpt>
<trkpt lat="-27.2731601" lon="151.2902549">
  <ele>445.94</ele>
  <time>2026-09-01T19:59:18Z</time>
  <course>336.66</course>
  <speed>20.59</speed>
  <fix>3d</fix>
</trkpt>
<trkpt lat="-27.2731143" lon="151.2902311">
  <ele>446.98</ele>
  <time>2026-09-01T19:59:18Z</time>
  <course>336.59</course>
  <speed>19.47223664605584</speed>
  <fix>3d</fix>
</trkpt>
<trkpt lat="-27.2731601" lon="151.2902549">
  <ele>445.94</ele>
  <time>2026-09-01T19:59:18Z</time>
  <course>336.66</course>
  <speed>20.59</speed>
  <fix>3d</fix>
</trkpt>
<trkpt lat="-27.2730984" lon="151.2902228">
  <ele>447.28</ele>
  <time>2026-09-01T19:59:18Z</time>
  <course>336.38</course>
  <speed>19.156711617602852</speed>
  <fix>3d</fix>
</trkpt>
<trkpt lat="-27.273127" lon="151.2902384">
  <ele>446.68</ele>
  <time>2026-09-01T19:59:18Z</time>
  <course>335.54</course>
  <speed>19.78</speed>
  <fix>3d</fix>
</trkpt>
<trkpt lat="-27.2730829" lon="151.2902147">
  <ele>447.55</ele>
  <time>2026-09-01T19:59:18Z</time>
  <course>336.19</course>
  <speed>18.860151112862273</speed>
  <fix>3d</fix>
</trkpt>
<trkpt lat="-27.273127" lon="151.2902384">
  <ele>446.68</ele>
  <time>2026-09-01T19:59:18Z</time>
  <course>335.54</course>
  <speed>19.78</speed>
  <fix>3d</fix>
</trkpt>
<trkpt lat="-27.2730676" lon="151.2902067">
  <ele>447.79</ele>
  <time>2026-09-01T19:59:18Z</time>
  <course>336.0</course>
  <speed>18.577537511737127</speed>
  <fix>3d</fix>
</trkpt>
<trkpt lat="-27.2730954" lon="151.2902219">
  <ele>447.31</ele>
  <time>2026-09-01T19:59:18Z</time>
  <course>334.95</course>
  <speed>19.1</speed>
  <fix>3d</fix>
</trkpt>
<trkpt lat="-27.2730526" lon="151.2901988">
  <ele>447.99</ele>
  <time>2026-09-01T19:59:18Z</time>
  <course>335.83</course>
  <speed>18.308779314853297</speed>
  <fix>3d</fix>
</trkpt>
<trkpt lat="-27.2730954" lon="151.2902219">
  <ele>447.31</ele>
  <time>2026-09-01T19:59:18Z</time>
  <course>334.95</course>
  <speed>19.1</speed>
  <fix>3d</fix>
</trkpt>
<trkpt lat="-27.2730378" lon="151.290191">
  <ele>448.15</ele>
  <time>2026-09-01T19:59:18Z</time>
  <course>335.68</course>
  <speed>18.067146980085152</speed>
  <fix>3d</fix>
</trkpt>
<trkpt lat="-27.2730648" lon="151.2902057">
  <ele>447.8</ele>
  <time>2026-09-01T19:59:18Z</time>
  <course>334.65</course>
  <speed>18.51</speed>
  <fix>3d</fix>
</trkpt>
<trkpt lat="-27.2730232" lon="151.2901832">
  <ele>448.28</ele>
  <time>2026-09-01T19:59:18Z</time>
  <course>335.56</course>
  <speed>17.83455354080948</speed>
  <fix>3d</fix>
</trkpt>
<trkpt lat="-27.2730648" lon="151.2902057">
  <ele>447.8</ele>
  <time>2026-09-01T19:59:18Z</time>
  <course>334.65</course>
  <speed>18.51</speed>
  <fix>3d</fix>
</trkpt>
<trkpt lat="-27.2730088" lon="151.2901756">
  <ele>448.38</ele>
  <time>2026-09-01T19:59:18Z</time>
  <course>335.48</course>
  <speed>17.606725987531014</speed>
  <fix>3d</fix>
</trkpt>
<trkpt lat="-27.2730351" lon="151.2901898">
  <ele>448.15</ele>
  <time>2026-09-01T19:59:18Z</time>
  <course>334.54</course>
  <speed>17.99</speed>
  <fix>3d</fix>
</trkpt>
<trkpt lat="-27.2729946" lon="151.2901681">
  <ele>448.45</ele>
  <time>2026-09-01T19:59:18Z</time>
  <course>335.44</course>
  <speed>17.401795884333318</speed>
  <fix>3d</fix>
</trkpt>
<trkpt lat="-27.2730351" lon="151.2901898">
  <ele>448.15</ele>
  <time>2026-09-01T19:59:18Z</time>
  <course>334.54</course>
  <speed>17.99</speed>
  <fix>3d</fix>
</trkpt>
<trkpt lat="-27.2729805" lon="151.2901607">
  <ele>448.49</ele>
  <time>2026-09-01T19:59:18Z</time>
  <course>335.46</course>
  <speed>17.206001859816244</speed>
  <fix>3d</fix>
</trkpt>
<trkpt lat="-27.2730063" lon="151.2901744">
  <ele>448.38</ele>
  <time>2026-09-01T19:59:18Z</time>
  <course>334.61</course>
  <speed>17.53</speed>
  <fix>3d</fix>
</trkpt>
<trkpt lat="-27.2729666" lon="151.2901534">
  <ele>448.51</ele>
  <time>2026-09-01T19:59:18Z</time>
  <course>335.54</course>
  <speed>17.015172640910816</speed>
  <fix>3d</fix>
</trkpt>
<trkpt lat="-27.2730063" lon="151.2901744">
  <ele>448.38</ele>
  <time>2026-09-01T19:59:18Z</time>
  <course>334.61</course>
  <speed>17.53</speed>
  <fix>3d</fix>
</trkpt>
<trkpt lat="-27.2729528" lon="151.2901462">
  <ele>448.52</ele>
  <time>2026-09-01T19:59:18Z</time>
  <course>335.67</course>
  <speed>16.838533190275214</speed>
  <fix>3d</fix>
</trkpt>
<trkpt lat="-27.2729782" lon="151.2901595">
  <ele>448.49</ele>
  <time>2026-09-01T19:59:18Z</time>
  <course>334.84</course>
  <speed>17.12</speed>
  <fix>3d</fix>
</trkpt>
<trkpt lat="-27.2729391" lon="151.2901392">
  <ele>448.51</ele>
  <time>2026-09-01T19:59:18Z</time>
  <course>335.87</course>
  <speed>16.66720432466105</speed>
  <fix>3d</fix>
</trkpt>
<trkpt lat="-27.2729782" lon="151.2901595">
  <ele>448.49</ele>
  <time>2026-09-01T19:59:18Z</time>
  <course>334.84</course>
  <speed>17.12</speed>
  <fix>3d</fix>
</trkpt>
<trkpt lat="-27.2729255" lon="151.2901324">
  <ele>448.48</ele>
  <time>2026-09-01T19:59:18Z</time>
  <course>336.12</course>
  <speed>16.505468790676623</speed>
  <fix>3d</fix>
</trkpt>
<trkpt lat="-27.2729506" lon="151.2901451">
  <ele>448.51</ele>
  <time>2026-09-01T19:59:18Z</time>
  <course>335.26</course>
  <speed>16.75</speed>
  <fix>3d</fix>
</trkpt>
<trkpt lat="-27.2729121" lon="151.2901257">
  <ele>448.45</ele>
  <time>2026-09-01T19:59:18Z</time>
  <course>336.44</course>
  <speed>16.34940060063365</speed>
  <fix>3d</fix>
</trkpt>
<trkpt lat="-27.2729506" lon="151.2901451">
  <ele>448.51</ele>
  <time>2026-09-01T19:59:18Z</time>
  <course>335.26</course>
  <speed>16.75</speed>
  <fix>3d</fix>
</trkpt>
<trkpt lat="-27.2728987" lon="151.2901191">
  <ele>448.42</ele>
  <time>2026-09-01T19:59:18Z</time>
  <course>336.8</course>
  <speed>16.19927467512049</speed>
  <fix>3d</fix>
</trkpt>
<trkpt lat="-27.2729234" lon="151.2901312">
  <ele>448.48</ele>
  <time>2026-09-01T19:59:18Z</time>
  <course>335.87</course>
  <speed>16.41</speed>
  <fix>3d</fix>
</trkpt>
<trkpt lat="-27.2728854" lon="151.2901128">
  <ele>448.38</ele>
  <time>2026-09-01T19:59:18Z</time>
  <course>337.22</course>
  <speed>16.055407188856968</speed>
  <fix>3d</fix>
</trkpt>
<trkpt lat="-27.2729234" lon="151.2901312">
  <ele>448.48</ele>
  <time>2026-09-01T19:59:18Z</time>
  <course>335.87</course>
  <speed>16.41</speed>
  <fix>3d</fix>
</trkpt>
<trkpt lat="-27.2728721" lon="151.2901066">
  <ele>448.33</ele>
  <time>2026-09-01T19:59:18Z</time>
  <course>337.68</course>
  <speed>15.91267733601106</speed>
  <fix>3d</fix>
</trkpt>
<trkpt lat="-27.2728967" lon="151.290118">
  <ele>448.41</ele>
  <time>2026-09-01T19:59:18Z</time>
  <course>336.67</course>
  <speed>16.1</speed>
  <fix>3d</fix>
</trkpt>
<trkpt lat="-27.272859" lon="151.2901006">
  <ele>448.29</ele>
  <time>2026-09-01T19:59:18Z</time>
  <course>338.18</course>
  <speed>15.773014930570502</speed>
  <fix>3d</fix>
</trkpt>
<trkpt lat="-27.2728967" lon="151.290118">
  <ele>448.41</ele>
  <time>2026-09-01T19:59:18Z</time>
  <course>336.67</course>
  <speed>16.1</speed>
  <fix>3d</fix>
</trkpt>
<trkpt lat="-27.2728459" lon="151.2900948">
  <ele>448.25</ele>
  <time>2026-09-01T19:59:18Z</time>
  <course>338.71</course>
  <speed>15.629245023352855</speed>
  <fix>3d</fix>
</trkpt>
<trkpt lat="-27.2728703" lon="151.2901054">
  <ele>448.34</ele>
  <time>2026-09-01T19:59:18Z</time>
  <course>337.64</course>
  <speed>15.81</speed>
  <fix>3d</fix>
</trkpt>
<trkpt lat="-27.2728329" lon="151.2900892">
  <ele>448.2</ele>
  <time>2026-09-01T19:59:18Z</time>
  <course>339.27</course>
  <speed>15.492740235348942</speed>
  <fix>3d</fix>
</trkpt>
<trkpt lat="-27.2728703" lon="151.2901054">
  <ele>448.34</ele>
  <time>2026-09-01T19:59:18Z</time>
  <course>337.64</course>
  <speed>15.81</speed>
  <fix>3d</fix>
</trkpt>
<trkpt lat="-27.2728199" lon="151.2900838">
  <ele>448.16</ele>
  <time>2026-09-01T19:59:18Z</time>
  <course>339.86</course>
  <speed>15.34513929555545</speed>
  <fix>3d</fix>
</trkpt>
<trkpt lat="-27.2728442" lon="151.2900937">
  <ele>448.25</ele>
  <time>2026-09-01T19:59:18Z</time>
  <course>338.76</course>
  <speed>15.52</speed>
  <fix>3d</fix>
</trkpt>
<trkpt lat="-27.2728071" lon="151.2900786">
  <ele>448.12</ele>
  <time>2026-09-01T19:59:18Z</time>
  <course>340.47</course>
  <speed>15.212166183683376</speed>
  <fix>3d</fix>
</trkpt>
<trkpt lat="-27.2728442" lon="151.2900937">
  <ele>448.25</ele>
  <time>2026-09-01T19:59:18Z</time>
  <course>338.76</course>
  <speed>15.52</speed>
  <fix>3d</fix>
</trkpt>
<trkpt lat="-27.2727943" lon="151.2900736">
  <ele>448.08</ele>
  <time>2026-09-01T19:59:18Z</time>
  <course>341.09</course>
  <speed>15.068327710797902</speed>
  <fix>3d</fix>
</trkpt>
<trkpt lat="-27.2728183" lon="151.2900827">
  <ele>448.16</ele>
  <time>2026-09-01T19:59:18Z</time>
  <course>339.98</course>
  <speed>15.24</speed>
  <fix>3d</fix>
</trkpt>
<trkpt lat="-27.2727816" lon="151.2900689">
  <ele>448.04</ele>
  <time>2026-09-01T19:59:18Z</time>
  <course>341.74</course>
  <speed>14.936000133904658</speed>
  <fix>3d</fix>
</trkpt>
<trkpt lat="-27.2728183" lon="151.2900827">
  <ele>448.16</ele>
  <time>2026-09-01T19:59:18Z</time>
  <course>339.98</course>
  <speed>15.24</speed>
  <fix>3d</fix>
</trkpt>
<trkpt lat="-27.272769" lon="151.2900643">
  <ele>448.01</ele>
  <time>2026-09-01T19:59:18Z</time>
  <course>342.4</course>
  <speed>14.796249524795126</speed>
  <fix>3d</fix>
</trkpt>
<trkpt lat="-27.2727927" lon="151.2900726">
  <ele>448.1</ele>
  <time>2026-09-01T19:59:18Z</time>
  <course>341.29</course>
  <speed>14.97</speed>
  <fix>3d</fix>
</trkpt>
<trkpt lat="-27.2727563" lon="151.2900599">
  <ele>447.98</ele>
  <time>2026-09-01T19:59:18Z</time>
  <course>343.07</course>
  <speed>14.65861180330525</speed>
  <fix>3d</fix>
</trkpt>
<trkpt lat="-27.2727927" lon="151.2900726">
  <ele>448.1</ele>
  <time>2026-09-01T19:59:18Z</time>
  <course>341.29</course>
  <speed>14.97</speed>
  <fix>3d</fix>
</trkpt>
<trkpt lat="-27.2727438" lon="151.2900558">
  <ele>447.95</ele>
  <time>2026-09-01T19:59:18Z</time>
  <course>343.76</course>
  <speed>14.513528172019374</speed>
  <fix>3d</fix>
</trkpt>
<trkpt lat="-27.2727673" lon="151.2900633">
  <ele>448.04</ele>
  <time>2026-09-01T19:59:18Z</time>
  <course>342.66</course>
  <speed>14.69</speed>
  <fix>3d</fix>
</trkpt>
<trkpt lat="-27.2727312" lon="151.2900518">
  <ele>447.92</ele>
  <time>2026-09-01T19:59:18Z</time>
  <course>344.46</course>
  <speed>14.380264253482965</speed>
  <fix>3d</fix>
</trkpt>
<trkpt lat="-27.2727673" lon="151.2900633">
  <ele>448.04</ele>
  <time>2026-09-01T19:59:18Z</time>
  <course>342.66</course>
  <speed>14.69</speed>
  <fix>3d</fix>
</trkpt>
<trkpt lat="-27.2727189" lon="151.2900481">
  <ele>447.9</ele>
  <time>2026-09-01T19:59:18Z</time>
  <course>345.16</course>
  <speed>14.242110096470958</speed>
  <fix>3d</fix>
</trkpt>
<trkpt lat="-27.2727422" lon="151.2900548">
  <ele>447.98</ele>
  <time>2026-09-01T19:59:18Z</time>
  <course>344.07</course>
  <speed>14.42</speed>
  <fix>3d</fix>
</trkpt>
<trkpt lat="-27.2727066" lon="151.2900446">
  <ele>447.87</ele>
  <time>2026-09-01T19:59:18Z</time>
  <course>345.86</course>
  <speed>14.106012902305173</speed>
  <fix>3d</fix>
</trkpt>
<trkpt lat="-27.2727422" lon="151.2900548">
  <ele>447.98</ele>
  <time>2026-09-01T19:59:18Z</time>
  <course>344.07</course>
  <speed>14.42</speed>
  <fix>3d</fix>
</trkpt>
<trkpt lat="-27.2726944" lon="151.2900412">
  <ele>447.85</ele>
  <time>2026-09-01T19:59:18Z</time>
  <course>346.58</course>
  <speed>13.972032779806952</speed>
  <fix>3d</fix>
</trkpt>
<trkpt lat="-27.2727175" lon="151.2900473">
  <ele>447.93</ele>
  <time>2026-09-01T19:59:18Z</time>
  <course>345.5</course>
  <speed>14.14</speed>
  <fix>3d</fix>
</trkpt>
<trkpt lat="-27.2726823" lon="151.2900381">
  <ele>447.82</ele>
  <time>2026-09-01T19:59:18Z</time>
  <course>347.29</course>
  <speed>13.830462754369428</speed>
  <fix>3d</fix>
</trkpt>
<trkpt lat="-27.2727175" lon="151.2900473">
  <ele>447.93</ele>
  <time>2026-09-01T19:59:18Z</time>
  <course>345.5</course>
  <speed>14.14</speed>
  <fix>3d</fix>
</trkpt>
<trkpt lat="-27.2726703" lon="151.2900352">
  <ele>447.8</ele>
  <time>2026-09-01T19:59:18Z</time>
  <course>348.01</course>
  <speed>13.691081038398684</speed>
  <fix>3d</fix>
</trkpt>
<trkpt lat="-27.272693" lon="151.2900406">
  <ele>447.88</ele>
  <time>2026-09-01T19:59:18Z</time>
  <course>346.95</course>
  <speed>13.87</speed>
  <fix>3d</fix>
</trkpt>
<trkpt lat="-27.2726583" lon="151.2900325">
  <ele>447.78</ele>
  <time>2026-09-01T19:59:18Z</time>
  <course>348.74</course>
  <speed>13.56566622027831</speed>
  <fix>3d</fix>
</trkpt>
<trkpt lat="-27.272693" lon="151.2900406">
  <ele>447.88</ele>
  <time>2026-09-01T19:59:18Z</time>
  <course>346.95</course>
  <speed>13.87</speed>
  <fix>3d</fix>
</trkpt>
<trkpt lat="-27.2726465" lon="151.29003">
  <ele>447.76</ele>
  <time>2026-09-01T19:59:18Z</time>
  <course>349.46</course>
  <speed>13.422686020316501</speed>
  <fix>3d</fix>
</trkpt>
<trkpt lat="-27.2726689" lon="151.2900346">
  <ele>447.84</ele>
  <time>2026-09-01T19:59:18Z</time>
  <course>348.4</course>
  <speed>13.61</speed>
  <fix>3d</fix>
</trkpt>
<trkpt lat="-27.2726347" lon="151.2900277">
  <ele>447.75</ele>
  <time>2026-09-01T19:59:18Z</time>
  <course>350.19</course>
  <speed>13.293310347689923</speed>
  <fix>3d</fix>
</trkpt>
<trkpt lat="-27.2726689" lon="151.2900346">
  <ele>447.84</ele>
  <time>2026-09-01T19:59:18Z</time>
  <course>348.4</course>
  <speed>13.61</speed>
  <fix>3d</fix>
</trkpt>
<trkpt lat="-27.2726231" lon="151.2900255">
  <ele>447.73</ele>
  <time>2026-09-01T19:59:18Z</time>
  <course>350.91</course>
  <speed>13.156002432350032</speed>
  <fix>3d</fix>
</trkpt>
<trkpt lat="-27.2726452" lon="151.2900295">
  <ele>447.81</ele>
  <time>2026-09-01T19:59:18Z</time>
  <course>349.85</course>
  <speed>13.34</speed>
  <fix>3d</fix>
</trkpt>
<trkpt lat="-27.2726115" lon="151.2900236">
  <ele>447.71</ele>
  <time>2026-09-01T19:59:18Z</time>
  <course>351.63</course>
  <speed>13.020664345570083</speed>
  <fix>3d</fix>
</trkpt>
<trkpt lat="-27.2726452" lon="151.2900295">
  <ele>447.81</ele>
  <time>2026-09-01T19:59:18Z</time>
  <course>349.85</course>
  <speed>13.34</speed>
  <fix>3d</fix>
</trkpt>
<trkpt lat="-27.2726" lon="151.2900218">
  <ele>447.7</ele>
  <time>2026-09-01T19:59:18Z</time>
  <course>352.35</course>
  <speed>12.888650045679727</speed>
  <fix>3d</fix>
</trkpt>
<trkpt lat="-27.2726217" lon="151.2900252">
  <ele>447.77</ele>
  <time>2026-09-01T19:59:18Z</time>
  <course>351.29</course>
  <speed>13.08</speed>
  <fix>3d</fix>
</trkpt>
<trkpt lat="-27.2725887" lon="151.2900202">
  <ele>447.68</ele>
  <time>2026-09-01T19:59:18Z</time>
  <course>353.06</course>
  <speed>12.7584834521976</speed>
  <fix>3d</fix>
</trkpt>
<trkpt lat="-27.2726217" lon="151.2900252">
  <ele>447.77</ele>
  <time>2026-09-01T19:59:18Z</time>
  <course>351.29</course>
  <speed>13.08</speed>
  <fix>3d</fix>
</trkpt>
<trkpt lat="-27.2725774" lon="151.2900188">
  <ele>447.67</ele>
  <time>2026-09-01T19:59:18Z</time>
  <course>353.78</course>
  <speed>12.620277334512107</speed>
  <fix>3d</fix>
</trkpt>
<trkpt lat="-27.2725986" lon="151.2900215">
  <ele>447.75</ele>
  <time>2026-09-01T19:59:18Z</time>
  <course>352.71</course>
  <speed>12.82</speed>
  <fix>3d</fix>
</trkpt>
<trkpt lat="-27.2725662" lon="151.2900175">
  <ele>447.67</ele>
  <time>2026-09-01T19:59:18Z</time>
  <course>354.48</course>
  <speed>12.48494293138739</speed>
  <fix>3d</fix>
</trkpt>
<trkpt lat="-27.2725986" lon="151.2900215">
  <ele>447.75</ele>
  <time>2026-09-01T19:59:18Z</time>
  <course>352.71</course>
  <speed>12.82</speed>
  <fix>3d</fix>
</trkpt>
<trkpt lat="-27.2725553" lon="151.2900164">
  <ele>447.66</ele>
  <time>2026-09-01T19:59:18Z</time>
  <course>355.16</course>
  <speed>12.352186041345071</speed>
  <fix>3d</fix>
</trkpt>
<trkpt lat="-27.2725761" lon="151.2900186">
  <ele>447.73</ele>
  <time>2026-09-01T19:59:18Z</time>
  <course>354.1</course>
  <speed>12.55</speed>
  <fix>3d</fix>
</trkpt>
<trkpt lat="-27.2725443" lon="151.2900155">
  <ele>447.66</ele>
  <time>2026-09-01T19:59:18Z</time>
  <course>355.84</course>
  <speed>12.211031897427834</speed>
  <fix>3d</fix>
</trkpt>
<trkpt lat="-27.2725761" lon="151.2900186">
  <ele>447.73</ele>
  <time>2026-09-01T19:59:18Z</time>
  <course>354.1</course>
  <speed>12.55</speed>
  <fix>3d</fix>
</trkpt>
<trkpt lat="-27.2725335" lon="151.2900147">
  <ele>447.66</ele>
  <time>2026-09-01T19:59:18Z</time>
  <course>356.51</course>
  <speed>12.0714912086287</speed>
  <fix>3d</fix>
</trkpt>
<trkpt lat="-27.2725539" lon="151.2900163">
  <ele>447.72</ele>
  <time>2026-09-01T19:59:18Z</time>
  <course>355.47</course>
  <speed>12.28</speed>
  <fix>3d</fix>
</trkpt>
<trkpt lat="-27.2725228" lon="151.290014">
  <ele>447.67</ele>
  <time>2026-09-01T19:59:18Z</time>
  <course>357.16</course>
  <speed>11.924114222867876</speed>
  <fix>3d</fix>
</trkpt>
<trkpt lat="-27.2725539" lon="151.2900163">
  <ele>447.72</ele>
  <time>2026-09-01T19:59:18Z</time>
  <course>355.47</course>
  <speed>12.28</speed>
  <fix>3d</fix>
</trkpt>
<trkpt lat="-27.2725121" lon="151.2900135">
  <ele>447.68</ele>
  <time>2026-09-01T19:59:18Z</time>
  <course>357.81</course>
  <speed>11.77822142770291</speed>
  <fix>3d</fix>
</trkpt>
<trkpt lat="-27.272532" lon="151.2900146">
  <ele>447.72</ele>
  <time>2026-09-01T19:59:18Z</time>
  <course>356.79</course>
  <speed>12.01</speed>
  <fix>3d</fix>
</trkpt>
<trkpt lat="-27.2725016" lon="151.2900131">
  <ele>447.68</ele>
  <time>2026-09-01T19:59:18Z</time>
  <course>358.44</course>
  <speed>11.634401574640615</speed>
  <fix>3d</fix>
</trkpt>
<trkpt lat="-27.272532" lon="151.2900146">
  <ele>447.72</ele>
  <time>2026-09-01T19:59:18Z</time>
  <course>356.79</course>
  <speed>12.01</speed>
  <fix>3d</fix>
</trkpt>
<trkpt lat="-27.2724913" lon="151.2900129">
  <ele>447.7</ele>
  <time>2026-09-01T19:59:18Z</time>
  <course>359.05</course>
  <speed>11.48157219199531</speed>
  <fix>3d</fix>
</trkpt>
<trkpt lat="-27.2725107" lon="151.2900136">
  <ele>447.73</ele>
  <time>2026-09-01T19:59:18Z</time>
  <course>358.07</course>
  <speed>11.73</speed>
  <fix>3d</fix>
</trkpt>
<trkpt lat="-27.2724808" lon="151.2900128">
  <ele>447.71</ele>
  <time>2026-09-01T19:59:18Z</time>
  <course>359.67</course>
  <speed>11.330216238007111</speed>
  <fix>3d</fix>
</trkpt>
<trkpt lat="-27.2725107" lon="151.2900136">
  <ele>447.73</ele>
  <time>2026-09-01T19:59:18Z</time>
  <course>358.07</course>
  <speed>11.73</speed>
  <fix>3d</fix>
</trkpt>
<trkpt lat="-27.2724708" lon="151.2900128">
  <ele>447.73</ele>
  <time>2026-09-01T19:59:18Z</time>
  <course>0.24</course>
  <speed>11.180040250374773</speed>
  <fix>3d</fix>
</trkpt>
<trkpt lat="-27.2724899" lon="151.290013">
  <ele>447.75</ele>
  <time>2026-09-01T19:59:18Z</time>
  <course>359.3</course>
  <speed>11.43</speed>
  <fix>3d</fix>
</trkpt>
<trkpt lat="-27.2724608" lon="151.2900129">
  <ele>447.74</ele>
  <time>2026-09-01T19:59:18Z</time>
  <course>0.81</course>
  <speed>11.020889256316844</speed>
  <fix>3d</fix>
</trkpt>
<trkpt lat="-27.2724899" lon="151.290013">
  <ele>447.75</ele>
  <time>2026-09-01T19:59:18Z</time>
  <course>359.3</course>
  <speed>11.43</speed>
  <fix>3d</fix>
</trkpt>
<trkpt lat="-27.2724511" lon="151.2900131">
  <ele>447.76</ele>
  <time>2026-09-01T19:59:18Z</time>
  <course>1.37</course>
  <speed>10.862651609989157</speed>
  <fix>3d</fix>
</trkpt>
<trkpt lat="-27.2724696" lon="151.2900129">
  <ele>447.78</ele>
  <time>2026-09-01T19:59:18Z</time>
  <course>0.47</course>
  <speed>11.13</speed>
  <fix>3d</fix>
</trkpt>
<trkpt lat="-27.2724414" lon="151.2900134">
  <ele>447.79</ele>
  <time>2026-09-01T19:59:18Z</time>
  <course>1.92</course>
  <speed>10.705087575540892</speed>
  <fix>3d</fix>
</trkpt>
<trkpt lat="-27.2724696" lon="151.2900129">
  <ele>447.78</ele>
  <time>2026-09-01T19:59:18Z</time>
  <course>0.47</course>
  <speed>11.13</speed>
  <fix>3d</fix>
</trkpt>
<trkpt lat="-27.272432" lon="151.2900137">
  <ele>447.81</ele>
  <time>2026-09-01T19:59:18Z</time>
  <course>2.44</course>
  <speed>10.538372739659572</speed>
  <fix>3d</fix>
</trkpt>
<trkpt lat="-27.2724499" lon="151.2900133">
  <ele>447.82</ele>
  <time>2026-09-01T19:59:18Z</time>
  <course>1.59</course>
  <speed>10.82</speed>
  <fix>3d</fix>
</trkpt>
<trkpt lat="-27.2724227" lon="151.2900142">
  <ele>447.84</ele>
  <time>2026-09-01T19:59:18Z</time>
  <course>2.96</course>
  <speed>10.372058619194167</speed>
  <fix>3d</fix>
</trkpt>
<trkpt lat="-27.2724499" lon="151.2900133">
  <ele>447.82</ele>
  <time>2026-09-01T19:59:18Z</time>
  <course>1.59</course>
  <speed>10.82</speed>
  <fix>3d</fix>
</trkpt>
<trkpt lat="-27.2724135" lon="151.2900148">
  <ele>447.87</ele>
  <time>2026-09-01T19:59:18Z</time>
  <course>3.46</course>
  <speed>10.206493031399178</speed>
  <fix>3d</fix>
</trkpt>
<trkpt lat="-27.2724307" lon="151.2900141">
  <ele>447.87</ele>
  <time>2026-09-01T19:59:18Z</time>
  <course>2.64</course>
  <speed>10.5</speed>
  <fix>3d</fix>
</trkpt>
<trkpt lat="-27.2724044" lon="151.2900155">
  <ele>447.9</ele>
  <time>2026-09-01T19:59:18Z</time>
  <course>3.95</course>
  <speed>10.031081696407421</speed>
  <fix>3d</fix>
</trkpt>
<trkpt lat="-27.2724307" lon="151.2900141">
  <ele>447.87</ele>
  <time>2026-09-01T19:59:18Z</time>
  <course>2.64</course>
  <speed>10.5</speed>
  <fix>3d</fix>
</trkpt>
<trkpt lat="-27.2723955" lon="151.2900162">
  <ele>447.94</ele>
  <time>2026-09-01T19:59:18Z</time>
  <course>4.42</course>
  <speed>9.866306299725345</speed>
  <fix>3d</fix>
</trkpt>
<trkpt lat="-27.2724122" lon="151.2900152">
  <ele>447.93</ele>
  <time>2026-09-01T19:59:18Z</time>
  <course>3.65</course>
  <speed>10.17</speed>
  <fix>3d</fix>
</trkpt>
<trkpt lat="-27.2723868" lon="151.290017">
  <ele>447.97</ele>
  <time>2026-09-01T19:59:18Z</time>
  <course>4.88</course>
  <speed>9.691439521557156</speed>
  <fix>3d</fix>
</trkpt>
<trkpt lat="-27.2724122" lon="151.2900152">
  <ele>447.93</ele>
  <time>2026-09-01T19:59:18Z</time>
  <course>3.65</course>
  <speed>10.17</speed>
  <fix>3d</fix>
</trkpt>
<trkpt lat="-27.2723782" lon="151.2900179">
  <ele>448.01</ele>
  <time>2026-09-01T19:59:18Z</time>
  <course>5.33</course>
  <speed>9.517142428271208</speed>
  <fix>3d</fix>
</trkpt>
<trkpt lat="-27.2723943" lon="151.2900167">
  <ele>448.0</ele>
  <time>2026-09-01T19:59:18Z</time>
  <course>4.59</course>
  <speed>9.83</speed>
  <fix>3d</fix>
</trkpt>
<trkpt lat="-27.2723698" lon="151.2900188">
  <ele>448.05</ele>
  <time>2026-09-01T19:59:18Z</time>
  <course>5.75</course>
  <speed>9.33253448962285</speed>
  <fix>3d</fix>
</trkpt>
<trkpt lat="-27.2723943" lon="151.2900167">
  <ele>448.0</ele>
  <time>2026-09-01T19:59:18Z</time>
  <course>4.59</course>
  <speed>9.83</speed>
  <fix>3d</fix>
</trkpt>
<trkpt lat="-27.2723616" lon="151.2900198">
  <ele>448.08</ele>
  <time>2026-09-01T19:59:18Z</time>
  <course>6.16</course>
  <speed>9.158367758503696</speed>
  <fix>3d</fix>
</trkpt>
<trkpt lat="-27.272377" lon="151.2900184">
  <ele>448.07</ele>
  <time>2026-09-01T19:59:18Z</time>
  <course>5.48</course>
  <speed>9.48</speed>
  <fix>3d</fix>
</trkpt>
<trkpt lat="-27.2723535" lon="151.2900208">
  <ele>448.12</ele>
  <time>2026-09-01T19:59:18Z</time>
  <course>6.56</course>
  <speed>8.973672603789376</speed>
  <fix>3d</fix>
</trkpt>
<trkpt lat="-27.272377" lon="151.2900184">
  <ele>448.07</ele>
  <time>2026-09-01T19:59:18Z</time>
  <course>5.48</course>
  <speed>9.48</speed>
  <fix>3d</fix>
</trkpt>
<trkpt lat="-27.2723456" lon="151.2900218">
  <ele>448.15</ele>
  <time>2026-09-01T19:59:18Z</time>
  <course>6.95</course>
  <speed>8.799318155402723</speed>
  <fix>3d</fix>
</trkpt>
<trkpt lat="-27.2723603" lon="151.2900204">
  <ele>448.14</ele>
  <time>2026-09-01T19:59:18Z</time>
  <course>6.31</course>
  <speed>9.13</speed>
  <fix>3d</fix>
</trkpt>
<trkpt lat="-27.2723378" lon="151.2900229">
  <ele>448.19</ele>
  <time>2026-09-01T19:59:18Z</time>
  <course>7.31</course>
  <speed>8.614232409216736</speed>
  <fix>3d</fix>
</trkpt>
<trkpt lat="-27.2723603" lon="151.2900204">
  <ele>448.14</ele>
  <time>2026-09-01T19:59:18Z</time>
  <course>6.31</course>
  <speed>9.13</speed>
  <fix>3d</fix>
</trkpt>
<trkpt lat="-27.2723302" lon="151.2900241">
  <ele>448.22</ele>
  <time>2026-09-01T19:59:18Z</time>
  <course>7.67</course>
  <speed>8.42947210684038</speed>
  <fix>3d</fix>
</trkpt>
<trkpt lat="-27.2723443" lon="151.2900225">
  <ele>448.21</ele>
  <time>2026-09-01T19:59:18Z</time>
  <course>7.08</course>
  <speed>8.76</speed>
  <fix>3d</fix>
</trkpt>
<trkpt lat="-27.2723227" lon="151.2900252">
  <ele>448.25</ele>
  <time>2026-09-01T19:59:18Z</time>
  <course>8.02</course>
  <speed>8.24371882101761</speed>
  <fix>3d</fix>
</trkpt>
<trkpt lat="-27.2723443" lon="151.2900225">
  <ele>448.21</ele>
  <time>2026-09-01T19:59:18Z</time>
  <course>7.08</course>
  <speed>8.76</speed>
  <fix>3d</fix>
</trkpt>
<trkpt lat="-27.2723155" lon="151.2900264">
  <ele>448.27</ele>
  <time>2026-09-01T19:59:18Z</time>
  <course>8.35</course>
  <speed>8.05821320144857</speed>
  <fix>3d</fix>
</trkpt>
<trkpt lat="-27.272329" lon="151.2900247">
  <ele>448.28</ele>
  <time>2026-09-01T19:59:18Z</time>
  <course>7.8</course>
  <speed>8.39</speed>
  <fix>3d</fix>
</trkpt>
<trkpt lat="-27.2723084" lon="151.2900276">
  <ele>448.3</ele>
  <time>2026-09-01T19:59:18Z</time>
  <course>8.67</course>
  <speed>7.872972754938251</speed>
  <fix>3d</fix>
</trkpt>
<trkpt lat="-27.272329" lon="151.2900247">
  <ele>448.28</ele>
  <time>2026-09-01T19:59:18Z</time>
  <course>7.8</course>
  <speed>8.39</speed>
  <fix>3d</fix>
</trkpt>
<trkpt lat="-27.2723013" lon="151.2900288">
  <ele>448.32</ele>
  <time>2026-09-01T19:59:18Z</time>
  <course>8.99</course>
  <speed>7.676626863408172</speed>
  <fix>3d</fix>
</trkpt>
<trkpt lat="-27.2723144" lon="151.290027">
  <ele>448.34</ele>
  <time>2026-09-01T19:59:18Z</time>
  <course>8.47</course>
  <speed>8.02</speed>
  <fix>3d</fix>
</trkpt>
<trkpt lat="-27.2722946" lon="151.29003">
  <ele>448.34</ele>
  <time>2026-09-01T19:59:18Z</time>
  <course>9.28</course>
  <speed>7.490367147209809</speed>
  <fix>3d</fix>
</trkpt>
<trkpt lat="-27.2723144" lon="151.290027">
  <ele>448.34</ele>
  <time>2026-09-01T19:59:18Z</time>
  <course>8.47</course>
  <speed>8.02</speed>
  <fix>3d</fix>
</trkpt>
<trkpt lat="-27.272288" lon="151.2900313">
  <ele>448.36</ele>
  <time>2026-09-01T19:59:18Z</time>
  <course>9.56</course>
  <speed>7.302718671837222</speed>
  <fix>3d</fix>
</trkpt>
<trkpt lat="-27.2723005" lon="151.2900295">
  <ele>448.39</ele>
  <time>2026-09-01T19:59:18Z</time>
  <course>9.08</course>
  <speed>7.65</speed>
  <fix>3d</fix>
</trkpt>
<trkpt lat="-27.2722816" lon="151.2900325">
  <ele>448.37</ele>
  <time>2026-09-01T19:59:18Z</time>
  <course>9.83</course>
  <speed>7.115195007868723</speed>
  <fix>3d</fix>
</trkpt>
<trkpt lat="-27.2723005" lon="151.2900295">
  <ele>448.39</ele>
  <time>2026-09-01T19:59:18Z</time>
  <course>9.08</course>
  <speed>7.65</speed>
  <fix>3d</fix>
</trkpt>
<trkpt lat="-27.2722754" lon="151.2900337">
  <ele>448.38</ele>
  <time>2026-09-01T19:59:18Z</time>
  <course>10.08</course>
  <speed>6.9278062905944475</speed>
  <fix>3d</fix>
</trkpt>
<trkpt lat="-27.2722873" lon="151.2900319">
  <ele>448.42</ele>
  <time>2026-09-01T19:59:18Z</time>
  <course>9.63</course>
  <speed>7.27</speed>
  <fix>3d</fix>
</trkpt>
<trkpt lat="-27.2722693" lon="151.2900349">
  <ele>448.37</ele>
  <time>2026-09-01T19:59:18Z</time>
  <course>10.32</course>
  <speed>6.738850050268221</speed>
  <fix>3d</fix>
</trkpt>
<trkpt lat="-27.2722873" lon="151.2900319">
  <ele>448.42</ele>
  <time>2026-09-01T19:59:18Z</time>
  <course>9.63</course>
  <speed>7.27</speed>
  <fix>3d</fix>
</trkpt>
<trkpt lat="-27.2722634" lon="151.2900361">
  <ele>448.32</ele>
  <time>2026-09-01T19:59:18Z</time>
  <course>10.54</course>
  <speed>6.526813924113358</speed>
  <fix>3d</fix>
</trkpt>
<trkpt lat="-27.2722748" lon="151.2900343">
  <ele>448.44</ele>
  <time>2026-09-01T19:59:18Z</time>
  <course>10.1</course>
  <speed>6.9</speed>
  <fix>3d</fix>
</trkpt>
<trkpt lat="-27.2722578" lon="151.2900373">
  <ele>448.18</ele>
  <time>2026-09-01T19:59:18Z</time>
  <course>10.74</course>
  <speed>6.242387363821633</speed>
  <fix>3d</fix>
</trkpt>
<trkpt lat="-27.2722748" lon="151.2900343">
  <ele>448.44</ele>
  <time>2026-09-01T19:59:18Z</time>
  <course>10.1</course>
  <speed>6.9</speed>
  <fix>3d</fix>
</trkpt>
<trkpt lat="-27.2722524" lon="151.2900384">
  <ele>447.98</ele>
  <time>2026-09-01T19:59:18Z</time>
  <course>10.93</course>
  <speed>5.877431411764836</speed>
  <fix>3d</fix>
</trkpt>
<trkpt lat="-27.2722629" lon="151.2900368">
  <ele>448.35</ele>
  <time>2026-09-01T19:59:18Z</time>
  <course>10.37</course>
  <speed>6.46</speed>
  <fix>3d</fix>
</trkpt>
<trkpt lat="-27.2722474" lon="151.2900395">
  <ele>447.72</ele>
  <time>2026-09-01T19:59:18Z</time>
  <course>11.12</course>
  <speed>5.422102913077176</speed>
  <fix>3d</fix>
</trkpt>
<trkpt lat="-27.2722629" lon="151.2900368">
  <ele>448.35</ele>
  <time>2026-09-01T19:59:18Z</time>
  <course>10.37</course>
  <speed>6.46</speed>
  <fix>3d</fix>
</trkpt>
<trkpt lat="-27.2722429" lon="151.2900404">
  <ele>447.42</ele>
  <time>2026-09-01T19:59:18Z</time>
  <course>11.35</course>
  <speed>4.907728598853038</speed>
  <fix>3d</fix>
</trkpt>
<trkpt lat="-27.272252" lon="151.2900391">
  <ele>448.04</ele>
  <time>2026-09-01T19:59:18Z</time>
  <course>10.51</course>
  <speed>5.81</speed>
  <fix>3d</fix>
</trkpt>
<trkpt lat="-27.2722388" lon="151.2900413">
  <ele>447.1</ele>
  <time>2026-09-01T19:59:18Z</time>
  <course>11.61</course>
  <speed>4.3621325060112515</speed>
  <fix>3d</fix>
</trkpt>
<trkpt lat="-27.272252" lon="151.2900391">
  <ele>448.04</ele>
  <time>2026-09-01T19:59:18Z</time>
  <course>10.51</course>
  <speed>5.81</speed>
  <fix>3d</fix>
</trkpt>
<trkpt lat="-27.2722353" lon="151.2900421">
  <ele>446.76</ele>
  <time>2026-09-01T19:59:18Z</time>
  <course>11.91</course>
  <speed>3.826447438551848</speed>
  <fix>3d</fix>
</trkpt>
<trkpt lat="-27.2722426" lon="151.2900411">
  <ele>447.51</ele>
  <time>2026-09-01T19:59:18Z</time>
  <course>10.81</course>
  <speed>4.88</speed>
  <fix>3d</fix>
</trkpt>
<trkpt lat="-27.2722322" lon="151.2900428">
  <ele>446.42</ele>
  <time>2026-09-01T19:59:18Z</time>
  <course>12.25</course>
  <speed>3.292795165205391</speed>
  <fix>3d</fix>
</trkpt>
<trkpt lat="-27.2722426" lon="151.2900411">
  <ele>447.51</ele>
  <time>2026-09-01T19:59:18Z</time>
  <course>10.81</course>
  <speed>4.88</speed>
  <fix>3d</fix>
</trkpt>
<trkpt lat="-27.2722295" lon="151.2900435">
  <ele>446.07</ele>
  <time>2026-09-01T19:59:18Z</time>
  <course>12.62</course>
  <speed>2.779082582436154</speed>
  <fix>3d</fix>
</trkpt>
<trkpt lat="-27.2722349" lon="151.2900427">
  <ele>446.85</ele>
  <time>2026-09-01T19:59:18Z</time>
  <course>11.47</course>
  <speed>3.81</speed>
  <fix>3d</fix>
</trkpt>
<trkpt lat="-27.2722273" lon="151.2900441">
  <ele>445.73</ele>
  <time>2026-09-01T19:59:19Z</time>
  <course>13.01</course>
  <speed>2.2973245308401684</speed>
  <fix>3d</fix>
</trkpt>
<trkpt lat="-27.2722349" lon="151.2900427">
  <ele>446.85</ele>
  <time>2026-09-01T19:59:19Z</time>
  <course>11.47</course>
  <speed>3.81</speed>
  <fix>3d</fix>
</trkpt>
<trkpt lat="-27.2722255" lon="151.2900446">
  <ele>445.4</ele>
  <time>2026-09-01T19:59:19Z</time>
  <course>13.41</course>
  <speed>1.8772320048411704</speed>
  <fix>3d</fix>
</trkpt>
<trkpt lat="-27.2722292" lon="151.2900441">
  <ele>446.16</ele>
  <time>2026-09-01T19:59:19Z</time>
  <course>12.83</course>
  <speed>2.76</speed>
  <fix>3d</fix>
</trkpt>
<trkpt lat="-27.272224" lon="151.2900451">
  <ele>445.09</ele>
  <time>2026-09-01T19:59:19Z</time>
  <course>13.81</course>
  <speed>1.5068510211696442</speed>
  <fix>3d</fix>
</trkpt>
<trkpt lat="-27.2722292" lon="151.2900441">
  <ele>446.16</ele>
  <time>2026-09-01T19:59:19Z</time>
  <course>12.83</course>
  <speed>2.76</speed>
  <fix>3d</fix>
</trkpt>
<trkpt lat="-27.2722228" lon="151.2900456">
  <ele>444.79</ele>
  <time>2026-09-01T19:59:19Z</time>
  <course>14.21</course>
  <speed>1.1921828718783036</speed>
  <fix>3d</fix>
</trkpt>
<trkpt lat="-27.2722252" lon="151.2900453">
  <ele>445.5</ele>
  <time>2026-09-01T19:59:19Z</time>
  <course>15.53</course>
  <speed>1.86</speed>
  <fix>3d</fix>
</trkpt>
<trkpt lat="-27.2722219" lon="151.290046">
  <ele>444.51</ele>
  <time>2026-09-01T19:59:19Z</time>
  <course>14.61</course>
  <speed>0.9284934033152846</speed>
  <fix>3d</fix>
</trkpt>
<trkpt lat="-27.2722252" lon="151.2900453">
  <ele>445.5</ele>
  <time>2026-09-01T19:59:19Z</time>
  <course>15.53</course>
  <speed>1.86</speed>
  <fix>3d</fix>
</trkpt>
<trkpt lat="-27.2722212" lon="151.2900464">
  <ele>444.24</ele>
  <time>2026-09-01T19:59:19Z</time>
  <course>15.0</course>
  <speed>0.702353187506115</speed>
  <fix>3d</fix>
</trkpt>
<trkpt lat="-27.2722226" lon="151.2900462">
  <ele>444.89</ele>
  <time>2026-09-01T19:59:19Z</time>
  <course>20.89</course>
  <speed>1.17</speed>
  <fix>3d</fix>
</trkpt>
<trkpt lat="-27.2722208" lon="151.2900468">
  <ele>444.0</ele>
  <time>2026-09-01T19:59:19Z</time>
  <course>15.31</course>
  <speed>0.5440588203494178</speed>
  <fix>3d</fix>
</trkpt>
<trkpt lat="-27.2722226" lon="151.2900462">
  <ele>444.89</ele>
  <time>2026-09-01T19:59:19Z</time>
  <course>20.89</course>
  <speed>1.17</speed>
  <fix>3d</fix>
</trkpt>
<trkpt lat="-27.2722204" lon="151.2900472">
  <ele>443.79</ele>
  <time>2026-09-01T19:59:19Z</time>
  <course>15.5</course>
  <speed>0.4386342439892262</speed>
  <fix>3d</fix>
</trkpt>
<trkpt lat="-27.272221" lon="151.2900469">
  <ele>444.35</ele>
  <time>2026-09-01T19:59:19Z</time>
  <course>32.04</course>
  <speed>0.69</speed>
  <fix>3d</fix>
</trkpt>
<trkpt lat="-27.2722202" lon="151.2900475">
  <ele>443.6</ele>
  <time>2026-09-01T19:59:19Z</time>
  <course>15.52</course>
  <speed>0.3721558813185679</speed>
  <fix>3d</fix>
</trkpt>
<trkpt lat="-27.272221" lon="151.2900469">
  <ele>444.35</ele>
  <time>2026-09-01T19:59:19Z</time>
  <course>32.04</course>
  <speed>0.69</speed>
  <fix>3d</fix>
</trkpt>
<trkpt lat="-27.2722201" lon="151.2900479">
  <ele>443.43</ele>
  <time>2026-09-01T19:59:19Z</time>
  <course>15.35</course>
  <speed>0.3352610922848042</speed>
  <fix>3d</fix>
</trkpt>
<trkpt lat="-27.2722204" lon="151.2900477">
  <ele>443.9</ele>
  <time>2026-09-01T19:59:19Z</time>
  <course>54.54</course>
  <speed>0.42</speed>
  <fix>3d</fix>
</trkpt>
<trkpt lat="-27.27222" lon="151.2900483">
  <ele>443.29</ele>
  <time>2026-09-01T19:59:19Z</time>
  <course>14.95</course>
  <speed>0.3306055050963308</speed>
  <fix>3d</fix>
</trkpt>
<trkpt lat="-27.2722204" lon="151.2900477">
  <ele>443.9</ele>
  <time>2026-09-01T19:59:19Z</time>
  <course>54.54</course>
  <speed>0.42</speed>
  <fix>3d</fix>
</trkpt>
<trkpt lat="-27.2722201" lon="151.2900487">
  <ele>443.17</ele>
  <time>2026-09-01T19:59:19Z</time>
  <course>14.36</course>
  <speed>0.33376638536557274</speed>
  <fix>3d</fix>
</trkpt>
<trkpt lat="-27.2722201" lon="151.2900484">
  <ele>443.55</ele>
  <time>2026-09-01T19:59:19Z</time>
  <course>85.68</course>
  <speed>0.34</speed>
  <fix>3d</fix>
</trkpt>
<trkpt lat="-27.2722202" lon="151.290049">
  <ele>443.07</ele>
  <time>2026-09-01T19:59:19Z</time>
  <course>13.61</course>
  <speed>0.35735136770411274</speed>
  <fix>3d</fix>
</trkpt>
<trkpt lat="-27.2722201" lon="151.2900484">
  <ele>443.55</ele>
  <time>2026-09-01T19:59:19Z</time>
  <course>85.68</course>
  <speed>0.34</speed>
  <fix>3d</fix>
</trkpt>
<trkpt lat="-27.2722203" lon="151.2900494">
  <ele>443.01</ele>
  <time>2026-09-01T19:59:19Z</time>
  <course>12.77</course>
  <speed>0.38013155617496425</speed>
  <fix>3d</fix>
</trkpt>
<trkpt lat="-27.2722202" lon="151.2900491">
  <ele>443.3</ele>
  <time>2026-09-01T19:59:19Z</time>
  <course>110.48</course>
  <speed>0.37</speed>
  <fix>3d</fix>
</trkpt>
<trkpt lat="-27.2722204" lon="151.2900498">
  <ele>442.97</ele>
  <time>2026-09-01T19:59:19Z</time>
  <course>11.94</course>
  <speed>0.3996248240537617</speed>
  <fix>3d</fix>
</trkpt>
<trkpt lat="-27.2722202" lon="151.2900491">
  <ele>443.3</ele>
  <time>2026-09-01T19:59:19Z</time>
  <course>110.48</course>
  <speed>0.37</speed>
  <fix>3d</fix>
</trkpt>
<trkpt lat="-27.2722207" lon="151.2900502">
  <ele>442.94</ele>
  <time>2026-09-01T19:59:19Z</time>
  <course>11.22</course>
  <speed>0.4161730409336963</speed>
  <fix>3d</fix>
</trkpt>
<trkpt lat="-27.2722204" lon="151.2900498">
  <ele>443.14</ele>
  <time>2026-09-01T19:59:19Z</time>
  <course>125.08</course>
  <speed>0.43</speed>
  <fix>3d</fix>
</trkpt>
<trkpt lat="-27.2722209" lon="151.2900506">
  <ele>442.94</ele>
  <time>2026-09-01T19:59:19Z</time>
  <course>10.69</course>
  <speed>0.4220189569201838</speed>
  <fix>3d</fix>
</trkpt>
<trkpt lat="-27.2722204" lon="151.2900498">
  <ele>443.14</ele>
  <time>2026-09-01T19:59:19Z</time>
  <course>125.08</course>
  <speed>0.43</speed>
  <fix>3d</fix>
</trkpt>
<trkpt lat="-27.2722212" lon="151.2900509">
  <ele>442.95</ele>
  <time>2026-09-01T19:59:19Z</time>
  <course>10.39</course>
  <speed>0.41400483088968904</speed>
  <fix>3d</fix>
</trkpt>
<trkpt lat="-27.272221" lon="151.2900505">
  <ele>443.08</ele>
  <time>2026-09-01T19:59:19Z</time>
  <course>132.04</course>
  <speed>0.47</speed>
  <fix>3d</fix>
</trkpt>
<trkpt lat="-27.2722215" lon="151.2900513">
  <ele>442.97</ele>
  <time>2026-09-01T19:59:19Z</time>
  <course>10.32</course>
  <speed>0.40607881008493907</speed>
  <fix>3d</fix>
</trkpt>
<trkpt lat="-27.272221" lon="151.2900505">
  <ele>443.08</ele>
  <time>2026-09-01T19:59:19Z</time>
  <course>132.04</course>
  <speed>0.47</speed>
  <fix>3d</fix>
</trkpt>
<trkpt lat="-27.2722217" lon="151.2900516">
  <ele>443.0</ele>
  <time>2026-09-01T19:59:19Z</time>
  <course>10.42</course>
  <speed>0.39824615503479754</speed>
  <fix>3d</fix>
</trkpt>
<trkpt lat="-27.2722216" lon="151.2900512">
  <ele>443.08</ele>
  <time>2026-09-01T19:59:19Z</time>
  <course>134.93</course>
  <speed>0.48</speed>
  <fix>3d</fix>
</trkpt>
<trkpt lat="-27.272222" lon="151.290052">
  <ele>443.03</ele>
  <time>2026-09-01T19:59:19Z</time>
  <course>10.64</course>
  <speed>0.3841874542459709</speed>
  <fix>3d</fix>
</trkpt>
<trkpt lat="-27.2722216" lon="151.2900512">
  <ele>443.08</ele>
  <time>2026-09-01T19:59:19Z</time>
  <course>134.93</course>
  <speed>0.48</speed>
  <fix>3d</fix>
</trkpt>
<trkpt lat="-27.2722223" lon="151.2900523">
  <ele>443.06</ele>
  <time>2026-09-01T19:59:19Z</time>
  <course>10.91</course>
  <speed>0.36235341863986875</speed>
  <fix>3d</fix>
</trkpt>
<trkpt lat="-27.2722222" lon="151.2900519">
  <ele>443.13</ele>
  <time>2026-09-01T19:59:19Z</time>
  <course>136.4</course>
  <speed>0.46</speed>
  <fix>3d</fix>
</trkpt>
<trkpt lat="-27.2722225" lon="151.2900526">
  <ele>443.09</ele>
  <time>2026-09-01T19:59:19Z</time>
  <course>11.16</course>
  <speed>0.33600595232822883</speed>
  <fix>3d</fix>
</trkpt>
<trkpt lat="-27.2722222" lon="151.2900519">
  <ele>443.13</ele>
  <time>2026-09-01T19:59:19Z</time>
  <course>136.4</course>
  <speed>0.46</speed>
  <fix>3d</fix>
</trkpt>
<trkpt lat="-27.2722227" lon="151.2900529">
  <ele>443.12</ele>
  <time>2026-09-01T19:59:19Z</time>
  <course>11.35</course>
  <speed>0.31622776601683794</speed>
  <fix>3d</fix>
</trkpt>
<trkpt lat="-27.2722228" lon="151.2900526">
  <ele>443.19</ele>
  <time>2026-09-01T19:59:19Z</time>
  <course>136.36</course>
  <speed>0.42</speed>
  <fix>3d</fix>
</trkpt>
<trkpt lat="-27.2722229" lon="151.2900532">
  <ele>443.14</ele>
  <time>2026-09-01T19:59:19Z</time>
  <course>11.46</course>
  <speed>0.291547594742265</speed>
  <fix>3d</fix>
</trkpt>
<trkpt lat="-27.2722228" lon="151.2900526">
  <ele>443.19</ele>
  <time>2026-09-01T19:59:19Z</time>
  <course>136.36</course>
  <speed>0.42</speed>
  <fix>3d</fix>
</trkpt>
<trkpt lat="-27.2722231" lon="151.2900534">
  <ele>443.16</ele>
  <time>2026-09-01T19:59:19Z</time>
  <course>11.47</course>
  <speed>0.25942243542145693</speed>
  <fix>3d</fix>
</trkpt>
<trkpt lat="-27.2722233" lon="151.2900531">
  <ele>443.24</ele>
  <time>2026-09-01T19:59:19Z</time>
  <course>134.08</course>
  <speed>0.37</speed>
  <fix>3d</fix>
</trkpt>
<trkpt lat="-27.2722233" lon="151.2900537">
  <ele>443.17</ele>
  <time>2026-09-01T19:59:19Z</time>
  <course>11.4</course>
  <speed>0.2340939982143925</speed>
  <fix>3d</fix>
</trkpt>
<trkpt lat="-27.2722233" lon="151.2900531">
  <ele>443.24</ele>
  <time>2026-09-01T19:59:19Z</time>
  <course>134.08</course>
  <speed>0.37</speed>
  <fix>3d</fix>
</trkpt>
<trkpt lat="-27.2722234" lon="151.2900539">
  <ele>443.17</ele>
  <time>2026-09-01T19:59:19Z</time>
  <course>11.27</course>
  <speed>0.21213203435596426</speed>
  <fix>3d</fix>
</trkpt>
<trkpt lat="-27.2722237" lon="151.2900536">
  <ele>443.28</ele>
  <time>2026-09-01T19:59:19Z</time>
  <course>128.37</course>
  <speed>0.31</speed>
  <fix>3d</fix>
</trkpt>
<trkpt lat="-27.2722235" lon="151.2900541">
  <ele>443.17</ele>
  <time>2026-09-01T19:59:19Z</time>
  <course>11.11</course>
  <speed>0.2</speed>
  <fix>3d</fix>
</trkpt>
<trkpt lat="-27.2722237" lon="151.2900536">
  <ele>443.28</ele>
  <time>2026-09-01T19:59:19Z</time>
  <course>128.37</course>
  <speed>0.31</speed>
  <fix>3d</fix>
</trkpt>
<trkpt lat="-27.2722236" lon="151.2900543">
  <ele>443.17</ele>
  <time>2026-09-01T19:59:19Z</time>
  <course>10.94</course>
  <speed>0.196468827043885</speed>
  <fix>3d</fix>
</trkpt>
<trkpt lat="-27.272224" lon="151.2900541">
  <ele>443.3</ele>
  <time>2026-09-01T19:59:19Z</time>
  <course>115.93</course>
  <speed>0.24</speed>
  <fix>3d</fix>
</trkpt>
<trkpt lat="-27.2722236" lon="151.2900545">
  <ele>443.16</ele>
  <time>2026-09-01T19:59:19Z</time>
  <course>10.79</course>
  <speed>0.2109502310972899</speed>
  <fix>3d</fix>
</trkpt>
<trkpt lat="-27.272224" lon="151.2900541">
  <ele>443.3</ele>
  <time>2026-09-01T19:59:19Z</time>
  <course>115.93</course>
  <speed>0.24</speed>
  <fix>3d</fix>
</trkpt>
<trkpt lat="-27.2722235" lon="151.2900547">
  <ele>443.15</ele>
  <time>2026-09-01T19:59:19Z</time>
  <course>10.69</course>
  <speed>0.23345235059857505</speed>
  <fix>3d</fix>
</trkpt>
<trkpt lat="-27.2722241" lon="151.2900545">
  <ele>443.3</ele>
  <time>2026-09-01T19:59:19Z</time>
  <course>91.7</course>
  <speed>0.19</speed>
  <fix>3d</fix>
</trkpt>
<trkpt lat="-27.2722234" lon="151.2900549">
  <ele>443.14</ele>
  <time>2026-09-01T19:59:19Z</time>
  <course>10.63</course>
  <speed>0.2720294101747089</speed>
  <fix>3d</fix>
</trkpt>
<trkpt lat="-27.2722241" lon="151.2900545">
  <ele>443.3</ele>
  <time>2026-09-01T19:59:19Z</time>
  <course>91.7</course>
  <speed>0.19</speed>
  <fix>3d</fix>
</trkpt>
<trkpt lat="-27.2722232" lon="151.2900551">
  <ele>443.13</ele>
  <time>2026-09-01T19:59:19Z</time>
  <course>10.61</course>
  <speed>0.32649655434629016</speed>
  <fix>3d</fix>
</trkpt>
<trkpt lat="-27.272224" lon="151.2900548">
  <ele>443.28</ele>
  <time>2026-09-01T19:59:19Z</time>
  <course>58.09</course>
  <speed>0.2</speed>
  <fix>3d</fix>
</trkpt>
<trkpt lat="-27.272223" lon="151.2900552">
  <ele>443.11</ele>
  <time>2026-09-01T19:59:19Z</time>
  <course>10.64</course>
  <speed>0.38626415831655936</speed>
  <fix>3d</fix>
</trkpt>
<trkpt lat="-27.272224" lon="151.2900548">
  <ele>443.28</ele>
  <time>2026-09-01T19:59:19Z</time>
  <course>58.09</course>
  <speed>0.2</speed>
  <fix>3d</fix>
</trkpt>
<trkpt lat="-27.2722227" lon="151.2900554">
  <ele>443.1</ele>
  <time>2026-09-01T19:59:19Z</time>
  <course>10.68</course>
  <speed>0.44922154890432403</speed>
  <fix>3d</fix>
</trkpt>
<trkpt lat="-27.2722238" lon="151.2900552">
  <ele>443.25</ele>
  <time>2026-09-01T19:59:19Z</time>
  <course>33.14</course>
  <speed>0.28</speed>
  <fix>3d</fix>
</trkpt>
<trkpt lat="-27.2722223" lon="151.2900555">
  <ele>443.08</ele>
  <time>2026-09-01T19:59:19Z</time>
  <course>10.73</course>
  <speed>0.5166236541235796</speed>
  <fix>3d</fix>
</trkpt>
<trkpt lat="-27.2722238" lon="151.2900552">
  <ele>443.25</ele>
  <time>2026-09-01T19:59:19Z</time>
  <course>33.14</course>
  <speed>0.28</speed>
  <fix>3d</fix>
</trkpt>
<trkpt lat="-27.2722219" lon="151.2900557">
  <ele>443.07</ele>
  <time>2026-09-01T19:59:19Z</time>
  <course>10.78</course>
  <speed>0.5824946351684279</speed>
  <fix>3d</fix>
</trkpt>
<trkpt lat="-27.2722232" lon="151.2900555">
  <ele>443.22</ele>
  <time>2026-09-01T19:59:19Z</time>
  <course>20.38</course>
  <speed>0.4</speed>
  <fix>3d</fix>
</trkpt>
<trkpt lat="-27.2722214" lon="151.2900558">
  <ele>443.06</ele>
  <time>2026-09-01T19:59:19Z</time>
  <course>10.82</course>
  <speed>0.6511528238439882</speed>
  <fix>3d</fix>
</trkpt>
<trkpt lat="-27.2722232" lon="151.2900555">
  <ele>443.22</ele>
  <time>2026-09-01T19:59:19Z</time>
  <course>20.38</course>
  <speed>0.4</speed>
  <fix>3d</fix>
</trkpt>
<trkpt lat="-27.2722209" lon="151.2900559">
  <ele>443.06</ele>
  <time>2026-09-01T19:59:19Z</time>
  <course>10.84</course>
  <speed>0.7200694410957876</speed>
  <fix>3d</fix>
</trkpt>
<trkpt lat="-27.2722224" lon="151.2900558">
  <ele>443.2</ele>
  <time>2026-09-01T19:59:19Z</time>
  <course>13.92</course>
  <speed>0.54</speed>
  <fix>3d</fix>
</trkpt>
<trkpt lat="-27.2722202" lon="151.290056">
  <ele>443.05</ele>
  <time>2026-09-01T19:59:19Z</time>
  <course>10.85</course>
  <speed>0.7877182237323191</speed>
  <fix>3d</fix>
</trkpt>
<trkpt lat="-27.2722224" lon="151.2900558">
  <ele>443.2</ele>
  <time>2026-09-01T19:59:19Z</time>
  <course>13.92</course>
  <speed>0.54</speed>
  <fix>3d</fix>
</trkpt>
<trkpt lat="-27.2722196" lon="151.2900562">
  <ele>443.05</ele>
  <time>2026-09-01T19:59:19Z</time>
  <course>10.83</course>
  <speed>0.8570880934886448</speed>
  <fix>3d</fix>
</trkpt>
<trkpt lat="-27.2722214" lon="151.290056">
  <ele>443.18</ele>
  <time>2026-09-01T19:59:19Z</time>
  <course>10.4</course>
  <speed>0.68</speed>
  <fix>3d</fix>
</trkpt>
<trkpt lat="-27.2722188" lon="151.2900563">
  <ele>443.05</ele>
  <time>2026-09-01T19:59:19Z</time>
  <course>10.81</course>
  <speed>0.9166242414424789</speed>
  <fix>3d</fix>
</trkpt>
<trkpt lat="-27.2722214" lon="151.290056">
  <ele>443.18</ele>
  <time>2026-09-01T19:59:19Z</time>
  <course>10.4</course>
  <speed>0.68</speed>
  <fix>3d</fix>
</trkpt>
<trkpt lat="-27.2722181" lon="151.2900564">
  <ele>443.05</ele>
  <time>2026-09-01T19:59:19Z</time>
  <course>10.78</course>
  <speed>0.9762171889492625</speed>
  <fix>3d</fix>
</trkpt>
<trkpt lat="-27.27222" lon="151.2900563">
  <ele>443.17</ele>
  <time>2026-09-01T19:59:19Z</time>
  <course>8.38</course>
  <speed>0.82</speed>
  <fix>3d</fix>
</trkpt>
<trkpt lat="-27.2722172" lon="151.2900565">
  <ele>443.05</ele>
  <time>2026-09-01T19:59:19Z</time>
  <course>10.75</course>
  <speed>1.035857133006285</speed>
  <fix>3d</fix>
</trkpt>
<trkpt lat="-27.27222" lon="151.2900563">
  <ele>443.17</ele>
  <time>2026-09-01T19:59:19Z</time>
  <course>8.38</course>
  <speed>0.82</speed>
  <fix>3d</fix>
</trkpt>
<trkpt lat="-27.2722163" lon="151.2900567">
  <ele>443.06</ele>
  <time>2026-09-01T19:59:19Z</time>
  <course>10.72</course>
  <speed>1.0855873986004074</speed>
  <fix>3d</fix>
</trkpt>
<trkpt lat="-27.2722184" lon="151.2900565">
  <ele>443.17</ele>
  <time>2026-09-01T19:59:19Z</time>
  <course>7.23</course>
  <speed>0.95</speed>
  <fix>3d</fix>
</trkpt>
<trkpt lat="-27.2722153" lon="151.2900568">
  <ele>443.06</ele>
  <time>2026-09-01T19:59:19Z</time>
  <course>10.7</course>
  <speed>1.1363538181394033</speed>
  <fix>3d</fix>
</trkpt>
<trkpt lat="-27.2722184" lon="151.2900565">
  <ele>443.17</ele>
  <time>2026-09-01T19:59:19Z</time>
  <course>7.23</course>
  <speed>0.95</speed>
  <fix>3d</fix>
</trkpt>
<trkpt lat="-27.2722144" lon="151.2900569">
  <ele>443.07</ele>
  <time>2026-09-01T19:59:19Z</time>
  <course>10.68</course>
  <speed>1.1761377470347596</speed>
  <fix>3d</fix>
</trkpt>
<trkpt lat="-27.2722166" lon="151.2900568">
  <ele>443.17</ele>
  <time>2026-09-01T19:59:19Z</time>
  <course>6.61</course>
  <speed>1.06</speed>
  <fix>3d</fix>
</trkpt>
<trkpt lat="-27.2722133" lon="151.2900571">
  <ele>443.07</ele>
  <time>2026-09-01T19:59:19Z</time>
  <course>10.67</course>
  <speed>1.2159358535712317</speed>
  <fix>3d</fix>
</trkpt>
<trkpt lat="-27.2722166" lon="151.2900568">
  <ele>443.17</ele>
  <time>2026-09-01T19:59:19Z</time>
  <course>6.61</course>
  <speed>1.06</speed>
  <fix>3d</fix>
</trkpt>
<trkpt lat="-27.2722123" lon="151.2900572">
  <ele>443.08</ele>
  <time>2026-09-01T19:59:19Z</time>
  <course>10.67</course>
  <speed>1.2467958934805647</speed>
  <fix>3d</fix>
</trkpt>
<trkpt lat="-27.2722146" lon="151.290057">
  <ele>443.18</ele>
  <time>2026-09-01T19:59:19Z</time>
  <course>6.3</course>
  <speed>1.16</speed>
  <fix>3d</fix>
</trkpt>
<trkpt lat="-27.2722112" lon="151.2900573">
  <ele>443.08</ele>
  <time>2026-09-01T19:59:19Z</time>
  <course>10.66</course>
  <speed>1.2766362050325848</speed>
  <fix>3d</fix>
</trkpt>
<trkpt lat="-27.2722146" lon="151.290057">
  <ele>443.18</ele>
  <time>2026-09-01T19:59:19Z</time>
  <course>6.3</course>
  <speed>1.16</speed>
  <fix>3d</fix>
</trkpt>
<trkpt lat="-27.27221" lon="151.2900575">
  <ele>443.09</ele>
  <time>2026-09-01T19:59:19Z</time>
  <course>10.66</course>
  <speed>1.3064838307457156</speed>
  <fix>3d</fix>
</trkpt>
<trkpt lat="-27.2722125" lon="151.2900573">
  <ele>443.19</ele>
  <time>2026-09-01T19:59:19Z</time>
  <course>6.23</course>
  <speed>1.24</speed>
  <fix>3d</fix>
</trkpt>
<trkpt lat="-27.2722089" lon="151.2900576">
  <ele>443.09</ele>
  <time>2026-09-01T19:59:19Z</time>
  <course>10.66</course>
  <speed>1.3274034804836095</speed>
  <fix>3d</fix>
</trkpt>
<trkpt lat="-27.2722125" lon="151.2900573">
  <ele>443.19</ele>
  <time>2026-09-01T19:59:19Z</time>
  <course>6.23</course>
  <speed>1.24</speed>
  <fix>3d</fix>
</trkpt>
<trkpt lat="-27.2722077" lon="151.2900578">
  <ele>443.09</ele>
  <time>2026-09-01T19:59:19Z</time>
  <course>10.66</course>
  <speed>1.3373481222179961</speed>
  <fix>3d</fix>
</trkpt>
<trkpt lat="-27.2722102" lon="151.2900576">
  <ele>443.19</ele>
  <time>2026-09-01T19:59:19Z</time>
  <course>6.31</course>
  <speed>1.3</speed>
  <fix>3d</fix>
</trkpt>
<trkpt lat="-27.2722065" lon="151.2900579">
  <ele>443.09</ele>
  <time>2026-09-01T19:59:19Z</time>
  <course>10.66</course>
  <speed>1.348369385591352</speed>
  <fix>3d</fix>
</trkpt>
<trkpt lat="-27.2722102" lon="151.2900576">
  <ele>443.19</ele>
  <time>2026-09-01T19:59:19Z</time>
  <course>6.31</course>
  <speed>1.3</speed>
  <fix>3d</fix>
</trkpt>
<trkpt lat="-27.2722054" lon="151.2900581">
  <ele>443.09</ele>
  <time>2026-09-01T19:59:19Z</time>
  <course>10.67</course>
  <speed>1.348369385591352</speed>
  <fix>3d</fix>
</trkpt>
<trkpt lat="-27.2722079" lon="151.2900579">
  <ele>443.2</ele>
  <time>2026-09-01T19:59:19Z</time>
  <course>6.5</course>
  <speed>1.33</speed>
  <fix>3d</fix>
</trkpt>
<trkpt lat="-27.2722042" lon="151.2900583">
  <ele>443.08</ele>
  <time>2026-09-01T19:59:19Z</time>
  <course>10.67</course>
  <speed>1.3495184326269871</speed>
  <fix>3d</fix>
</trkpt>
<trkpt lat="-27.2722079" lon="151.2900579">
  <ele>443.2</ele>
  <time>2026-09-01T19:59:19Z</time>
  <course>6.5</course>
  <speed>1.33</speed>
  <fix>3d</fix>
</trkpt>
<trkpt lat="-27.272203" lon="151.2900584">
  <ele>443.08</ele>
  <time>2026-09-01T19:59:19Z</time>
  <course>10.68</course>
  <speed>1.3495184326269871</speed>
  <fix>3d</fix>
</trkpt>
<trkpt lat="-27.2722054" lon="151.2900582">
  <ele>443.19</ele>
  <time>2026-09-01T19:59:19Z</time>
  <course>6.77</course>
  <speed>1.35</speed>
  <fix>3d</fix>
</trkpt>
<trkpt lat="-27.2722018" lon="151.2900586">
  <ele>443.08</ele>
  <time>2026-09-01T19:59:19Z</time>
  <course>10.68</course>
  <speed>1.339589489358587</speed>
  <fix>3d</fix>
</trkpt>
<trkpt lat="-27.2722054" lon="151.2900582">
  <ele>443.19</ele>
  <time>2026-09-01T19:59:19Z</time>
  <course>6.77</course>
  <speed>1.35</speed>
  <fix>3d</fix>
</trkpt>
<trkpt lat="-27.2722006" lon="151.2900588">
  <ele>443.08</ele>
  <time>2026-09-01T19:59:19Z</time>
  <course>10.68</course>
  <speed>1.3209844813622906</speed>
  <fix>3d</fix>
</trkpt>
<trkpt lat="-27.272203" lon="151.2900585">
  <ele>443.19</ele>
  <time>2026-09-01T19:59:19Z</time>
  <course>7.13</course>
  <speed>1.35</speed>
  <fix>3d</fix>
</trkpt>
<trkpt lat="-27.2721995" lon="151.290059">
  <ele>443.07</ele>
  <time>2026-09-01T19:59:19Z</time>
  <course>10.67</course>
  <speed>1.3011533345459327</speed>
  <fix>3d</fix>
</trkpt>
<trkpt lat="-27.272203" lon="151.2900585">
  <ele>443.19</ele>
  <time>2026-09-01T19:59:19Z</time>
  <course>7.13</course>
  <speed>1.35</speed>
  <fix>3d</fix>
</trkpt>
<trkpt lat="-27.2721983" lon="151.2900591">
  <ele>443.07</ele>
  <time>2026-09-01T19:59:19Z</time>
  <course>10.67</course>
  <speed>1.271416532848303</speed>
  <fix>3d</fix>
</trkpt>
<trkpt lat="-27.2722006" lon="151.2900589">
  <ele>443.19</ele>
  <time>2026-09-01T19:59:19Z</time>
  <course>7.59</course>
  <speed>1.32</speed>
  <fix>3d</fix>
</trkpt>
<trkpt lat="-27.2721972" lon="151.2900593">
  <ele>443.07</ele>
  <time>2026-09-01T19:59:19Z</time>
  <course>10.67</course>
  <speed>1.2431009613060398</speed>
  <fix>3d</fix>
</trkpt>
<trkpt lat="-27.2722006" lon="151.2900589">
  <ele>443.19</ele>
  <time>2026-09-01T19:59:19Z</time>
  <course>7.59</course>
  <speed>1.32</speed>
  <fix>3d</fix>
</trkpt>
<trkpt lat="-27.2721961" lon="151.2900595">
  <ele>443.07</ele>
  <time>2026-09-01T19:59:19Z</time>
  <course>10.67</course>
  <speed>1.2035364556173611</speed>
  <fix>3d</fix>
</trkpt>
<trkpt lat="-27.2721983" lon="151.2900592">
  <ele>443.18</ele>
  <time>2026-09-01T19:59:19Z</time>
  <course>8.12</course>
  <speed>1.28</speed>
  <fix>3d</fix>
</trkpt>
<trkpt lat="-27.2721951" lon="151.2900597">
  <ele>443.07</ele>
  <time>2026-09-01T19:59:19Z</time>
  <course>10.67</course>
  <speed>1.1738824472663352</speed>
  <fix>3d</fix>
</trkpt>
<trkpt lat="-27.2721983" lon="151.2900592">
  <ele>443.18</ele>
  <time>2026-09-01T19:59:19Z</time>
  <course>8.12</course>
  <speed>1.28</speed>
  <fix>3d</fix>
</trkpt>
<trkpt lat="-27.2721941" lon="151.2900599">
  <ele>443.08</ele>
  <time>2026-09-01T19:59:19Z</time>
  <course>10.66</course>
  <speed>1.1244998888394786</speed>
  <fix>3d</fix>
</trkpt>
<trkpt lat="-27.2721961" lon="151.2900596">
  <ele>443.18</ele>
  <time>2026-09-01T19:59:19Z</time>
  <course>8.78</course>
  <speed>1.22</speed>
  <fix>3d</fix>
</trkpt>
<trkpt lat="-27.2721931" lon="151.2900601">
  <ele>443.07</ele>
  <time>2026-09-01T19:59:19Z</time>
  <course>10.65</course>
  <speed>1.0850345616615167</speed>
  <fix>3d</fix>
</trkpt>
<trkpt lat="-27.2721961" lon="151.2900596">
  <ele>443.18</ele>
  <time>2026-09-01T19:59:19Z</time>
  <course>8.78</course>
  <speed>1.22</speed>
  <fix>3d</fix>
</trkpt>
<trkpt lat="-27.2721922" lon="151.2900603">
  <ele>443.07</ele>
  <time>2026-09-01T19:59:19Z</time>
  <course>10.65</course>
  <speed>1.0259142264341596</speed>
  <fix>3d</fix>
</trkpt>
<trkpt lat="-27.272194" lon="151.2900599">
  <ele>443.18</ele>
  <time>2026-09-01T19:59:19Z</time>
  <course>9.59</course>
  <speed>1.14</speed>
  <fix>3d</fix>
</trkpt>
<trkpt lat="-27.2721913" lon="151.2900605">
  <ele>443.07</ele>
  <time>2026-09-01T19:59:19Z</time>
  <course>10.66</course>
  <speed>0.9767292357659824</speed>
  <fix>3d</fix>
</trkpt>
<trkpt lat="-27.272194" lon="151.2900599">
  <ele>443.18</ele>
  <time>2026-09-01T19:59:19Z</time>
  <course>9.59</course>
  <speed>1.14</speed>
  <fix>3d</fix>
</trkpt>
<trkpt lat="-27.2721904" lon="151.2900607">
  <ele>443.07</ele>
  <time>2026-09-01T19:59:19Z</time>
  <course>10.67</course>
  <speed>0.9178235124467012</speed>
  <fix>3d</fix>
</trkpt>
<trkpt lat="-27.272192" lon="151.2900604">
  <ele>443.17</ele>
  <time>2026-09-01T19:59:19Z</time>
  <course>10.57</course>
  <speed>1.04</speed>
  <fix>3d</fix>
</trkpt>
<trkpt lat="-27.2721896" lon="151.2900609">
  <ele>443.08</ele>
  <time>2026-09-01T19:59:19Z</time>
  <course>10.68</course>
  <speed>0.8688498144098322</speed>
  <fix>3d</fix>
</trkpt>
<trkpt lat="-27.272192" lon="151.2900604">
  <ele>443.17</ele>
  <time>2026-09-01T19:59:19Z</time>
  <course>10.57</course>
  <speed>1.04</speed>
  <fix>3d</fix>
</trkpt>
<trkpt lat="-27.2721889" lon="151.290061">
  <ele>443.08</ele>
  <time>2026-09-01T19:59:19Z</time>
  <course>10.69</course>
  <speed>0.8004998438475801</speed>
  <fix>3d</fix>
</trkpt>
<trkpt lat="-27.2721903" lon="151.2900608">
  <ele>443.17</ele>
  <time>2026-09-01T19:59:19Z</time>
  <course>11.75</course>
  <speed>0.93</speed>
  <fix>3d</fix>
</trkpt>
<trkpt lat="-27.2721882" lon="151.2900612">
  <ele>443.08</ele>
  <time>2026-09-01T19:59:19Z</time>
  <course>10.7</course>
  <speed>0.7421590126111789</speed>
  <fix>3d</fix>
</trkpt>
<trkpt lat="-27.2721903" lon="151.2900608">
  <ele>443.17</ele>
  <time>2026-09-01T19:59:19Z</time>
  <course>11.75</course>
  <speed>0.93</speed>
  <fix>3d</fix>
</trkpt>
<trkpt lat="-27.2721876" lon="151.2900614">
  <ele>443.08</ele>
  <time>2026-09-01T19:59:19Z</time>
  <course>10.71</course>
  <speed>0.6841052550594828</speed>
  <fix>3d</fix>
</trkpt>
<trkpt lat="-27.2721887" lon="151.2900611">
  <ele>443.17</ele>
  <time>2026-09-01T19:59:19Z</time>
  <course>13.26</course>
  <speed>0.82</speed>
  <fix>3d</fix>
</trkpt>
<trkpt lat="-27.272187" lon="151.2900616">
  <ele>443.08</ele>
  <time>2026-09-01T19:59:19Z</time>
  <course>10.71</course>
  <speed>0.6140032573203501</speed>
  <fix>3d</fix>
</trkpt>
<trkpt lat="-27.2721887" lon="151.2900611">
  <ele>443.17</ele>
  <time>2026-09-01T19:59:19Z</time>
  <course>13.26</course>
  <speed>0.82</speed>
  <fix>3d</fix>
</trkpt>
<trkpt lat="-27.2721865" lon="151.2900618">
  <ele>443.08</ele>
  <time>2026-09-01T19:59:19Z</time>
  <course>10.72</course>
  <speed>0.5565968020030299</speed>
  <fix>3d</fix>
</trkpt>
<trkpt lat="-27.2721874" lon="151.2900615">
  <ele>443.16</ele>
  <time>2026-09-01T19:59:19Z</time>
  <course>15.31</course>
  <speed>0.69</speed>
  <fix>3d</fix>
</trkpt>
<trkpt lat="-27.272186" lon="151.290062">
  <ele>443.08</ele>
  <time>2026-09-01T19:59:19Z</time>
  <course>10.72</course>
  <speed>0.49040799340956914</speed>
  <fix>3d</fix>
</trkpt>
<trkpt lat="-27.2721874" lon="151.2900615">
  <ele>443.16</ele>
  <time>2026-09-01T19:59:19Z</time>
  <course>15.31</course>
  <speed>0.69</speed>
  <fix>3d</fix>
</trkpt>
<trkpt lat="-27.2721856" lon="151.2900621">
  <ele>443.08</ele>
  <time>2026-09-01T19:59:19Z</time>
  <course>10.72</course>
  <speed>0.4308131845707603</speed>
  <fix>3d</fix>
</trkpt>
<trkpt lat="-27.2721863" lon="151.2900619">
  <ele>443.16</ele>
  <time>2026-09-01T19:59:19Z</time>
  <course>18.3</course>
  <speed>0.56</speed>
  <fix>3d</fix>
</trkpt>
<trkpt lat="-27.2721853" lon="151.2900623">
  <ele>443.07</ele>
  <time>2026-09-01T19:59:19Z</time>
  <course>10.71</course>
  <speed>0.366742416417845</speed>
  <fix>3d</fix>
</trkpt>
<trkpt lat="-27.2721863" lon="151.2900619">
  <ele>443.16</ele>
  <time>2026-09-01T19:59:19Z</time>
  <course>18.3</course>
  <speed>0.56</speed>
  <fix>3d</fix>
</trkpt>
<trkpt lat="-27.272185" lon="151.2900625">
  <ele>443.07</ele>
  <time>2026-09-01T19:59:19Z</time>
  <course>10.71</course>
  <speed>0.30016662039607267</speed>
  <fix>3d</fix>
</trkpt>
<trkpt lat="-27.2721854" lon="151.2900622">
  <ele>443.16</ele>
  <time>2026-09-01T19:59:19Z</time>
  <course>22.91</course>
  <speed>0.44</speed>
  <fix>3d</fix>
</trkpt>
<trkpt lat="-27.2721848" lon="151.2900626">
  <ele>443.07</ele>
  <time>2026-09-01T19:59:19Z</time>
  <course>10.7</course>
  <speed>0.25</speed>
  <fix>3d</fix>
</trkpt>
<trkpt lat="-27.2721854" lon="151.2900622">
  <ele>443.16</ele>
  <time>2026-09-01T19:59:19Z</time>
  <course>22.91</course>
  <speed>0.44</speed>
  <fix>3d</fix>
</trkpt>
<trkpt lat="-27.2721846" lon="151.2900628">
  <ele>443.07</ele>
  <time>2026-09-01T19:59:19Z</time>
  <course>10.7</course>
  <speed>0.1979898987322333</speed>
  <fix>3d</fix>
</trkpt>
<trkpt lat="-27.2721848" lon="151.2900626">
  <ele>443.16</ele>
  <time>2026-09-01T19:59:19Z</time>
  <course>30.8</course>
  <speed>0.31</speed>
  <fix>3d</fix>
</trkpt>
<trkpt lat="-27.2721845" lon="151.290063">
  <ele>443.07</ele>
  <time>2026-09-01T19:59:19Z</time>
  <course>10.68</course>
  <speed>0.15652475842498528</speed>
  <fix>3d</fix>
</trkpt>
<trkpt lat="-27.2721848" lon="151.2900626">
  <ele>443.16</ele>
  <time>2026-09-01T19:59:19Z</time>
  <course>30.8</course>
  <speed>0.31</speed>
  <fix>3d</fix>
</trkpt>
<trkpt lat="-27.2721845" lon="151.2900631">
  <ele>443.07</ele>
  <time>2026-09-01T19:59:19Z</time>
  <course>10.67</course>
  <speed>0.130384048104053</speed>
  <fix>3d</fix>
</trkpt>
<trkpt lat="-27.2721845" lon="151.2900629">
  <ele>443.16</ele>
  <time>2026-09-01T19:59:19Z</time>
  <course>46.78</course>
  <speed>0.2</speed>
  <fix>3d</fix>
</trkpt>
<trkpt lat="-27.2721845" lon="151.2900632">
  <ele>443.07</ele>
  <time>2026-09-01T19:59:19Z</time>
  <course>10.67</course>
  <speed>0.13341664064126335</speed>
  <fix>3d</fix>
</trkpt>
<trkpt lat="-27.2721845" lon="151.2900629">
  <ele>443.16</ele>
  <time>2026-09-01T19:59:19Z</time>
  <course>46.78</course>
  <speed>0.2</speed>
  <fix>3d</fix>
</trkpt>
<trkpt lat="-27.2721845" lon="151.2900634">
  <ele>443.07</ele>
  <time>2026-09-01T19:59:19Z</time>
  <course>10.67</course>
  <speed>0.15</speed>
  <fix>3d</fix>
</trkpt>
<trkpt lat="-27.2721843" lon="151.2900632">
  <ele>443.15</ele>
  <time>2026-09-01T19:59:19Z</time>
  <course>82.36</course>
  <speed>0.14</speed>
  <fix>3d</fix>
</trkpt>
<trkpt lat="-27.2721846" lon="151.2900635">
  <ele>443.07</ele>
  <time>2026-09-01T19:59:19Z</time>
  <course>10.67</course>
  <speed>0.17804493814764857</speed>
  <fix>3d</fix>
</trkpt>
<trkpt lat="-27.2721843" lon="151.2900632">
  <ele>443.15</ele>
  <time>2026-09-01T19:59:19Z</time>
  <course>82.36</course>
  <speed>0.14</speed>
  <fix>3d</fix>
</trkpt>
<trkpt lat="-27.2721848" lon="151.2900636">
  <ele>443.08</ele>
  <time>2026-09-01T19:59:19Z</time>
  <course>10.68</course>
  <speed>0.2109502310972899</speed>
  <fix>3d</fix>
</trkpt>
<trkpt lat="-27.2721843" lon="151.2900634">
  <ele>443.15</ele>
  <time>2026-09-01T19:59:19Z</time>
  <course>126.42</course>
  <speed>0.16</speed>
  <fix>3d</fix>
</trkpt>
<trkpt lat="-27.2721849" lon="151.2900637">
  <ele>443.08</ele>
  <time>2026-09-01T19:59:19Z</time>
  <course>10.69</course>
  <speed>0.25079872407968906</speed>
  <fix>3d</fix>
</trkpt>
<trkpt lat="-27.2721843" lon="151.2900634">
  <ele>443.15</ele>
  <time>2026-09-01T19:59:19Z</time>
  <course>126.42</course>
  <speed>0.16</speed>
  <fix>3d</fix>
</trkpt>
<trkpt lat="-27.2721851" lon="151.2900638">
  <ele>443.07</ele>
  <time>2026-09-01T19:59:19Z</time>
  <course>10.71</course>
  <speed>0.2751363298439521</speed>
  <fix>3d</fix>
</trkpt>
<trkpt lat="-27.2721846" lon="151.2900637">
  <ele>443.15</ele>
  <time>2026-09-01T19:59:19Z</time>
  <course>149.09</course>
  <speed>0.22</speed>
  <fix>3d</fix>
</trkpt>
<trkpt lat="-27.2721853" lon="151.2900639">
  <ele>443.07</ele>
  <time>2026-09-01T19:59:19Z</time>
  <course>10.73</course>
  <speed>0.30364452901377953</speed>
  <fix>3d</fix>
</trkpt>
<trkpt lat="-27.2721846" lon="151.2900637">
  <ele>443.15</ele>
  <time>2026-09-01T19:59:19Z</time>
  <course>149.09</course>
  <speed>0.22</speed>
  <fix>3d</fix>
</trkpt>
<trkpt lat="-27.2721856" lon="151.290064">
  <ele>443.07</ele>
  <time>2026-09-01T19:59:19Z</time>
  <course>10.76</course>
  <speed>0.3298484500494128</speed>
  <fix>3d</fix>
</trkpt>
<trkpt lat="-27.272185" lon="151.290064">
  <ele>443.15</ele>
  <time>2026-09-01T19:59:19Z</time>
  <course>159.44</course>
  <speed>0.29</speed>
  <fix>3d</fix>
</trkpt>
<trkpt lat="-27.2721859" lon="151.2900641">
  <ele>443.07</ele>
  <time>2026-09-01T19:59:19Z</time>
  <course>10.79</course>
  <speed>0.356931365951495</speed>
  <fix>3d</fix>
</trkpt>
<trkpt lat="-27.272185" lon="151.290064">
  <ele>443.15</ele>
  <time>2026-09-01T19:59:19Z</time>
  <course>159.44</course>
  <speed>0.29</speed>
  <fix>3d</fix>
</trkpt>
<trkpt lat="-27.2721862" lon="151.2900642">
  <ele>443.07</ele>
  <time>2026-09-01T19:59:19Z</time>
  <course>10.82</course>
  <speed>0.37656340767525465</speed>
  <fix>3d</fix>
</trkpt>
<trkpt lat="-27.2721856" lon="151.2900642">
  <ele>443.15</ele>
  <time>2026-09-01T19:59:19Z</time>
  <course>164.93</course>
  <speed>0.35</speed>
  <fix>3d</fix>
</trkpt>
<trkpt lat="-27.2721865" lon="151.2900643">
  <ele>443.07</ele>
  <time>2026-09-01T19:59:19Z</time>
  <course>10.85</course>
  <speed>0.38470768123342686</speed>
  <fix>3d</fix>
</trkpt>
<trkpt lat="-27.2721856" lon="151.2900642">
  <ele>443.15</ele>
  <time>2026-09-01T19:59:19Z</time>
  <course>164.93</course>
  <speed>0.35</speed>
  <fix>3d</fix>
</trkpt>
<trkpt lat="-27.2721869" lon="151.2900643">
  <ele>443.07</ele>
  <time>2026-09-01T19:59:19Z</time>
  <course>10.88</course>
  <speed>0.39319206502675</speed>
  <fix>3d</fix>
</trkpt>
<trkpt lat="-27.2721862" lon="151.2900643">
  <ele>443.15</ele>
  <time>2026-09-01T19:59:19Z</time>
  <course>168.37</course>
  <speed>0.39</speed>
  <fix>3d</fix>
</trkpt>
<trkpt lat="-27.2721872" lon="151.2900644">
  <ele>443.07</ele>
  <time>2026-09-01T19:59:19Z</time>
  <course>10.9</course>
  <speed>0.40311288741492746</speed>
  <fix>3d</fix>
</trkpt>
<trkpt lat="-27.2721862" lon="151.2900643">
  <ele>443.15</ele>
  <time>2026-09-01T19:59:19Z</time>
  <course>168.37</course>
  <speed>0.39</speed>
  <fix>3d</fix>
</trkpt>
<trkpt lat="-27.2721876" lon="151.2900645">
  <ele>443.06</ele>
  <time>2026-09-01T19:59:19Z</time>
  <course>10.92</course>
  <speed>0.4119465984809196</speed>
  <fix>3d</fix>
</trkpt>
<trkpt lat="-27.2721869" lon="151.2900645">
  <ele>443.15</ele>
  <time>2026-09-01T19:59:19Z</time>
  <course>170.82</course>
  <speed>0.42</speed>
  <fix>3d</fix>
</trkpt>
<trkpt lat="-27.2721879" lon="151.2900645">
  <ele>443.06</ele>
  <time>2026-09-01T19:59:19Z</time>
  <course>10.93</course>
  <speed>0.4119465984809196</speed>
  <fix>3d</fix>
</trkpt>
<trkpt lat="-27.2721869" lon="151.2900645">
  <ele>443.15</ele>
  <time>2026-09-01T19:59:19Z</time>
  <course>170.82</course>
  <speed>0.42</speed>
  <fix>3d</fix>
</trkpt>
<trkpt lat="-27.2721883" lon="151.2900646">
  <ele>443.06</ele>
  <time>2026-09-01T19:59:19Z</time>
  <course>10.94</course>
  <speed>0.41109609582188933</speed>
  <fix>3d</fix>
</trkpt>
<trkpt lat="-27.2721876" lon="151.2900646">
  <ele>443.15</ele>
  <time>2026-09-01T19:59:19Z</time>
  <course>172.7</course>
  <speed>0.43</speed>
  <fix>3d</fix>
</trkpt>
<trkpt lat="-27.2721887" lon="151.2900646">
  <ele>443.06</ele>
  <time>2026-09-01T19:59:19Z</time>
  <course>10.95</course>
  <speed>0.41048751503547587</speed>
  <fix>3d</fix>
</trkpt>
<trkpt lat="-27.2721876" lon="151.2900646">
  <ele>443.15</ele>
  <time>2026-09-01T19:59:19Z</time>
  <course>172.7</course>
  <speed>0.43</speed>
  <fix>3d</fix>
</trkpt>
<trkpt lat="-27.2721891" lon="151.2900647">
  <ele>443.06</ele>
  <time>2026-09-01T19:59:19Z</time>
  <course>10.96</course>
  <speed>0.41048751503547587</speed>
  <fix>3d</fix>
</trkpt>
<trkpt lat="-27.2721885" lon="151.2900647">
  <ele>443.15</ele>
  <time>2026-09-01T19:59:19Z</time>
  <course>174.29</course>
  <speed>0.44</speed>
  <fix>3d</fix>
</trkpt>
<trkpt lat="-27.2721895" lon="151.2900647">
  <ele>443.06</ele>
  <time>2026-09-01T19:59:19Z</time>
  <course>10.96</course>
  <speed>0.41012193308819755</speed>
  <fix>3d</fix>
</trkpt>
<trkpt lat="-27.2721885" lon="151.2900647">
  <ele>443.15</ele>
  <time>2026-09-01T19:59:19Z</time>
  <course>174.29</course>
  <speed>0.44</speed>
  <fix>3d</fix>
</trkpt>
<trkpt lat="-27.2721898" lon="151.2900647">
  <ele>443.06</ele>
  <time>2026-09-01T19:59:19Z</time>
  <course>10.94</course>
  <speed>0.4001249804748511</speed>
  <fix>3d</fix>
</trkpt>
<trkpt lat="-27.2721893" lon="151.2900647">
  <ele>443.15</ele>
  <time>2026-09-01T19:59:19Z</time>
  <course>175.73</course>
  <speed>0.44</speed>
  <fix>3d</fix>
</trkpt>
<trkpt lat="-27.2721902" lon="151.2900647">
  <ele>443.06</ele>
  <time>2026-09-01T19:59:19Z</time>
  <course>10.92</course>
  <speed>0.39</speed>
  <fix>3d</fix>
</trkpt>
<trkpt lat="-27.2721893" lon="151.2900647">
  <ele>443.15</ele>
  <time>2026-09-01T19:59:19Z</time>
  <course>175.73</course>
  <speed>0.44</speed>
  <fix>3d</fix>
</trkpt>
<trkpt lat="-27.2721906" lon="151.2900647">
  <ele>443.06</ele>
  <time>2026-09-01T19:59:19Z</time>
  <course>10.89</course>
  <speed>0.39</speed>
  <fix>3d</fix>
</trkpt>
<trkpt lat="-27.27219" lon="151.2900648">
  <ele>443.15</ele>
  <time>2026-09-01T19:59:19Z</time>
  <course>177.05</course>
  <speed>0.43</speed>
  <fix>3d</fix>
</trkpt>
<trkpt lat="-27.2721909" lon="151.2900647">
  <ele>443.06</ele>
  <time>2026-09-01T19:59:19Z</time>
  <course>10.87</course>
  <speed>0.38</speed>
  <fix>3d</fix>
</trkpt>
<trkpt lat="-27.27219" lon="151.2900648">
  <ele>443.15</ele>
  <time>2026-09-01T19:59:19Z</time>
  <course>177.05</course>
  <speed>0.43</speed>
  <fix>3d</fix>
</trkpt>
<trkpt lat="-27.2721913" lon="151.2900647">
  <ele>443.06</ele>
  <time>2026-09-01T19:59:19Z</time>
  <course>10.86</course>
  <speed>0.37</speed>
  <fix>3d</fix>
</trkpt>
<trkpt lat="-27.2721908" lon="151.2900649">
  <ele>443.15</ele>
  <time>2026-09-01T19:59:19Z</time>
  <course>178.28</course>
  <speed>0.41</speed>
  <fix>3d</fix>
</trkpt>
<trkpt lat="-27.2721916" lon="151.2900647">
  <ele>443.06</ele>
  <time>2026-09-01T19:59:19Z</time>
  <course>10.85</course>
  <speed>0.36013886210738216</speed>
  <fix>3d</fix>
</trkpt>
<trkpt lat="-27.2721908" lon="151.2900649">
  <ele>443.15</ele>
  <time>2026-09-01T19:59:19Z</time>
  <course>178.28</course>
  <speed>0.41</speed>
  <fix>3d</fix>
</trkpt>
<trkpt lat="-27.272192" lon="151.2900647">
  <ele>443.06</ele>
  <time>2026-09-01T19:59:19Z</time>
  <course>10.84</course>
  <speed>0.35014282800023194</speed>
  <fix>3d</fix>
</trkpt>
<trkpt lat="-27.2721915" lon="151.2900649">
  <ele>443.15</ele>
  <time>2026-09-01T19:59:19Z</time>
  <course>179.46</course>
  <speed>0.4</speed>
  <fix>3d</fix>
</trkpt>
<trkpt lat="-27.2721923" lon="151.2900648">
  <ele>443.06</ele>
  <time>2026-09-01T19:59:19Z</time>
  <course>10.83</course>
  <speed>0.34058772731852804</speed>
  <fix>3d</fix>
</trkpt>
<trkpt lat="-27.2721915" lon="151.2900649">
  <ele>443.15</ele>
  <time>2026-09-01T19:59:19Z</time>
  <course>179.46</course>
  <speed>0.4</speed>
  <fix>3d</fix>
</trkpt>
<trkpt lat="-27.2721926" lon="151.2900648">
  <ele>443.06</ele>
  <time>2026-09-01T19:59:19Z</time>
  <course>10.83</course>
  <speed>0.3306055050963308</speed>
  <fix>3d</fix>
</trkpt>
<trkpt lat="-27.2721922" lon="151.2900649">
  <ele>443.15</ele>
  <time>2026-09-01T19:59:19Z</time>
  <course>180.66</course>
  <speed>0.38</speed>
  <fix>3d</fix>
</trkpt>
<trkpt lat="-27.2721929" lon="151.2900648">
  <ele>443.06</ele>
  <time>2026-09-01T19:59:19Z</time>
  <course>10.82</course>
  <speed>0.31064449134018135</speed>
  <fix>3d</fix>
</trkpt>
<trkpt lat="-27.2721922" lon="151.2900649">
  <ele>443.15</ele>
  <time>2026-09-01T19:59:19Z</time>
  <course>180.66</course>
  <speed>0.38</speed>
  <fix>3d</fix>
</trkpt>
<trkpt lat="-27.2721932" lon="151.2900648">
  <ele>443.06</ele>
  <time>2026-09-01T19:59:19Z</time>
  <course>10.82</course>
  <speed>0.3014962686336267</speed>
  <fix>3d</fix>
</trkpt>
<trkpt lat="-27.2721929" lon="151.2900649">
  <ele>443.15</ele>
  <time>2026-09-01T19:59:19Z</time>
  <course>181.87</course>
  <speed>0.36</speed>
  <fix>3d</fix>
</trkpt>
<trkpt lat="-27.2721935" lon="151.2900648">
  <ele>443.06</ele>
  <time>2026-09-01T19:59:19Z</time>
  <course>10.8</course>
  <speed>0.291547594742265</speed>
  <fix>3d</fix>
</trkpt>
<trkpt lat="-27.2721929" lon="151.2900649">
  <ele>443.15</ele>
  <time>2026-09-01T19:59:19Z</time>
  <course>181.87</course>
  <speed>0.36</speed>
  <fix>3d</fix>
</trkpt>
<trkpt lat="-27.2721938" lon="151.2900648">
  <ele>443.06</ele>
  <time>2026-09-01T19:59:19Z</time>
  <course>10.78</course>
  <speed>0.2816025568065745</speed>
  <fix>3d</fix>
</trkpt>
<trkpt lat="-27.2721936" lon="151.2900649">
  <ele>443.16</ele>
  <time>2026-09-01T19:59:19Z</time>
  <course>183.08</course>
  <speed>0.33</speed>
  <fix>3d</fix>
</trkpt>
<trkpt lat="-27.2721941" lon="151.2900647">
  <ele>443.06</ele>
  <time>2026-09-01T19:59:19Z</time>
  <course>10.75</course>
  <speed>0.261725046566048</speed>
  <fix>3d</fix>
</trkpt>
<trkpt lat="-27.2721936" lon="151.2900649">
  <ele>443.16</ele>
  <time>2026-09-01T19:59:19Z</time>
  <course>183.08</course>
  <speed>0.33</speed>
  <fix>3d</fix>
</trkpt>
<trkpt lat="-27.2721943" lon="151.2900647">
  <ele>443.07</ele>
  <time>2026-09-01T19:59:19Z</time>
  <course>10.71</course>
  <speed>0.25179356624028343</speed>
  <fix>3d</fix>
</trkpt>
<trkpt lat="-27.2721941" lon="151.2900649">
  <ele>443.16</ele>
  <time>2026-09-01T19:59:19Z</time>
  <course>184.3</course>
  <speed>0.31</speed>
  <fix>3d</fix>
</trkpt>
<trkpt lat="-27.2721946" lon="151.2900647">
  <ele>443.07</ele>
  <time>2026-09-01T19:59:19Z</time>
  <course>10.67</course>
  <speed>0.23345235059857505</speed>
  <fix>3d</fix>
</trkpt>
<trkpt lat="-27.2721941" lon="151.2900649">
  <ele>443.16</ele>
  <time>2026-09-01T19:59:19Z</time>
  <course>184.3</course>
  <speed>0.31</speed>
  <fix>3d</fix>
</trkpt>
<trkpt lat="-27.2721948" lon="151.2900647">
  <ele>443.07</ele>
  <time>2026-09-01T19:59:19Z</time>
  <course>10.64</course>
  <speed>0.223606797749979</speed>
  <fix>3d</fix>
</trkpt>
<trkpt lat="-27.2721946" lon="151.2900648">
  <ele>443.16</ele>
  <time>2026-09-01T19:59:19Z</time>
  <course>185.55</course>
  <speed>0.28</speed>
  <fix>3d</fix>
</trkpt>
<trkpt lat="-27.272195" lon="151.2900646">
  <ele>443.07</ele>
  <time>2026-09-01T19:59:19Z</time>
  <course>10.62</course>
  <speed>0.2039607805437114</speed>
  <fix>3d</fix>
</trkpt>
<trkpt lat="-27.2721946" lon="151.2900648">
  <ele>443.16</ele>
  <time>2026-09-01T19:59:19Z</time>
  <course>185.55</course>
  <speed>0.28</speed>
  <fix>3d</fix>
</trkpt>
<trkpt lat="-27.2721952" lon="151.2900646">
  <ele>443.07</ele>
  <time>2026-09-01T19:59:19Z</time>
  <course>10.61</course>
  <speed>0.194164878389476</speed>
  <fix>3d</fix>
</trkpt>
<trkpt lat="-27.2721951" lon="151.2900647">
  <ele>443.16</ele>
  <time>2026-09-01T19:59:19Z</time>
  <course>186.91</course>
  <speed>0.25</speed>
  <fix>3d</fix>
</trkpt>
<trkpt lat="-27.2721954" lon="151.2900646">
  <ele>443.07</ele>
  <time>2026-09-01T19:59:19Z</time>
  <course>10.59</course>
  <speed>0.17464249196572978</speed>
  <fix>3d</fix>
</trkpt>
<trkpt lat="-27.2721951" lon="151.2900647">
  <ele>443.16</ele>
  <time>2026-09-01T19:59:19Z</time>
  <course>186.91</course>
  <speed>0.25</speed>
  <fix>3d</fix>
</trkpt>
<trkpt lat="-27.2721956" lon="151.2900645">
  <ele>443.07</ele>
  <time>2026-09-01T19:59:19Z</time>
  <course>10.59</course>
  <speed>0.1649242250247064</speed>
  <fix>3d</fix>
</trkpt>
<trkpt lat="-27.2721955" lon="151.2900647">
  <ele>443.16</ele>
  <time>2026-09-01T19:59:19Z</time>
  <course>188.46</course>
  <speed>0.22</speed>
  <fix>3d</fix>
</trkpt>
<trkpt lat="-27.2721958" lon="151.2900645">
  <ele>443.07</ele>
  <time>2026-09-01T19:59:19Z</time>
  <course>10.59</course>
  <speed>0.14560219778561037</speed>
  <fix>3d</fix>
</trkpt>
<trkpt lat="-27.2721955" lon="151.2900647">
  <ele>443.16</ele>
  <time>2026-09-01T19:59:19Z</time>
  <course>188.46</course>
  <speed>0.22</speed>
  <fix>3d</fix>
</trkpt>
<trkpt lat="-27.2721959" lon="151.2900645">
  <ele>443.07</ele>
  <time>2026-09-01T19:59:19Z</time>
  <course>10.59</course>
  <speed>0.13601470508735444</speed>
  <fix>3d</fix>
</trkpt>
<trkpt lat="-27.2721959" lon="151.2900646">
  <ele>443.15</ele>
  <time>2026-09-01T19:59:19Z</time>
  <course>190.2</course>
  <speed>0.19</speed>
  <fix>3d</fix>
</trkpt>
<trkpt lat="-27.272196" lon="151.2900644">
  <ele>443.07</ele>
  <time>2026-09-01T19:59:19Z</time>
  <course>10.58</course>
  <speed>0.11704699910719625</speed>
  <fix>3d</fix>
</trkpt>
<trkpt lat="-27.2721959" lon="151.2900646">
  <ele>443.15</ele>
  <time>2026-09-01T19:59:19Z</time>
  <course>190.2</course>
  <speed>0.19</speed>
  <fix>3d</fix>
</trkpt>
<trkpt lat="-27.2721962" lon="151.2900644">
  <ele>443.07</ele>
  <time>2026-09-01T19:59:19Z</time>
  <course>10.56</course>
  <speed>0.09848857801796104</speed>
  <fix>3d</fix>
</trkpt>
<trkpt lat="-27.2721962" lon="151.2900646">
  <ele>443.15</ele>
  <time>2026-09-01T19:59:19Z</time>
  <course>191.85</course>
  <speed>0.16</speed>
  <fix>3d</fix>
</trkpt>
<trkpt lat="-27.2721963" lon="151.2900644">
  <ele>443.07</ele>
  <time>2026-09-01T19:59:19Z</time>
  <course>10.53</course>
  <speed>0.08944271909999159</speed>
  <fix>3d</fix>
</trkpt>
<trkpt lat="-27.2721962" lon="151.2900646">
  <ele>443.15</ele>
  <time>2026-09-01T19:59:19Z</time>
  <course>191.85</course>
  <speed>0.16</speed>
  <fix>3d</fix>
</trkpt>
<trkpt lat="-27.2721964" lon="151.2900644">
  <ele>443.06</ele>
  <time>2026-09-01T19:59:19Z</time>
  <course>10.51</course>
  <speed>0.07211102550927978</speed>
  <fix>3d</fix>
</trkpt>
<trkpt lat="-27.2721965" lon="151.2900645">
  <ele>443.15</ele>
  <time>2026-09-01T19:59:19Z</time>
  <course>193.48</course>
  <speed>0.13</speed>
  <fix>3d</fix>
</trkpt>
<trkpt lat="-27.2721964" lon="151.2900643">
  <ele>443.06</ele>
  <time>2026-09-01T19:59:19Z</time>
  <course>10.49</course>
  <speed>0.05830951894845301</speed>
  <fix>3d</fix>
</trkpt>
<trkpt lat="-27.2721965" lon="151.2900645">
  <ele>443.15</ele>
  <time>2026-09-01T19:59:19Z</time>
  <course>193.48</course>
  <speed>0.13</speed>
  <fix>3d</fix>
</trkpt>
<trkpt lat="-27.2721965" lon="151.2900643">
  <ele>443.06</ele>
  <time>2026-09-01T19:59:19Z</time>
  <course>10.48</course>
  <speed>0.04242640687119285</speed>
  <fix>3d</fix>
</trkpt>
<trkpt lat="-27.2721967" lon="151.2900644">
  <ele>443.15</ele>
  <time>2026-09-01T19:59:19Z</time>
  <course>196.02</course>
  <speed>0.1</speed>
  <fix>3d</fix>
</trkpt>
<trkpt lat="-27.2721966" lon="151.2900643">
  <ele>443.06</ele>
  <time>2026-09-01T19:59:19Z</time>
  <course>10.47</course>
  <speed>0.03605551275463989</speed>
  <fix>3d</fix>
</trkpt>
<trkpt lat="-27.2721967" lon="151.2900644">
  <ele>443.15</ele>
  <time>2026-09-01T19:59:19Z</time>
  <course>196.02</course>
  <speed>0.1</speed>
  <fix>3d</fix>
</trkpt>
<trkpt lat="-27.2721966" lon="151.2900643">
  <ele>443.06</ele>
  <time>2026-09-01T19:59:19Z</time>
  <course>10.47</course>
  <speed>0.03</speed>
  <fix>3d</fix>
</trkpt>
<trkpt lat="-27.2721968" lon="151.2900644">
  <ele>443.15</ele>
  <time>2026-09-01T19:59:19Z</time>
  <course>201.11</course>
  <speed>0.07</speed>
  <fix>3d</fix>
</trkpt>
<trkpt lat="-27.2721966" lon="151.2900642">
  <ele>443.06</ele>
  <time>2026-09-01T19:59:19Z</time>
  <course>10.49</course>
  <speed>0.03</speed>
  <fix>3d</fix>
</trkpt>
<trkpt lat="-27.2721968" lon="151.2900644">
  <ele>443.15</ele>
  <time>2026-09-01T19:59:19Z</time>
  <course>201.11</course>
  <speed>0.07</speed>
  <fix>3d</fix>
</trkpt>
<trkpt lat="-27.2721967" lon="151.2900642">
  <ele>443.05</ele>
  <time>2026-09-01T19:59:19Z</time>
  <course>10.51</course>
  <speed>0.03605551275463989</speed>
  <fix>3d</fix>
</trkpt>
<trkpt lat="-27.2721969" lon="151.2900643">
  <ele>443.15</ele>
  <time>2026-09-01T19:59:19Z</time>
  <course>213.41</course>
  <speed>0.04</speed>
  <fix>3d</fix>
</trkpt>
<trkpt lat="-27.2721967" lon="151.2900642">
  <ele>443.05</ele>
  <time>2026-09-01T19:59:19Z</time>
  <course>10.53</course>
  <speed>0.04242640687119285</speed>
  <fix>3d</fix>
</trkpt>
<trkpt lat="-27.2721969" lon="151.2900643">
  <ele>443.15</ele>
  <time>2026-09-01T19:59:19Z</time>
  <course>213.41</course>
  <speed>0.04</speed>
  <fix>3d</fix>
</trkpt>
<trkpt lat="-27.2721966" lon="151.2900642">
  <ele>443.05</ele>
  <time>2026-09-01T19:59:19Z</time>
  <course>10.53</course>
  <speed>0.05</speed>
  <fix>3d</fix>
</trkpt>
<trkpt lat="-27.272197" lon="151.2900642">
  <ele>443.15</ele>
  <time>2026-09-01T19:59:19Z</time>
  <course>255.66</course>
  <speed>0.02</speed>
  <fix>3d</fix>
</trkpt>
<trkpt lat="-27.2721966" lon="151.2900642">
  <ele>443.05</ele>
  <time>2026-09-01T19:59:19Z</time>
  <course>10.54</course>
  <speed>0.0632455532033676</speed>
  <fix>3d</fix>
</trkpt>
<trkpt lat="-27.272197" lon="151.2900642">
  <ele>443.15</ele>
  <time>2026-09-01T19:59:19Z</time>
  <course>255.66</course>
  <speed>0.02</speed>
  <fix>3d</fix>
</trkpt>
<trkpt lat="-27.2721966" lon="151.2900641">
  <ele>443.05</ele>
  <time>2026-09-01T19:59:19Z</time>
  <course>10.53</course>
  <speed>0.07280109889280519</speed>
  <fix>3d</fix>
</trkpt>
<trkpt lat="-27.272197" lon="151.2900642">
  <ele>443.15</ele>
  <time>2026-09-01T19:59:19Z</time>
  <course>324.46</course>
  <speed>0.02</speed>
  <fix>3d</fix>
</trkpt>
<trkpt lat="-27.2721966" lon="151.2900641">
  <ele>443.06</ele>
  <time>2026-09-01T19:59:19Z</time>
  <course>10.53</course>
  <speed>0.09219544457292887</speed>
  <fix>3d</fix>
</trkpt>
<trkpt lat="-27.272197" lon="151.2900642">
  <ele>443.15</ele>
  <time>2026-09-01T19:59:19Z</time>
  <course>324.46</course>
  <speed>0.02</speed>
  <fix>3d</fix>
</trkpt>
<trkpt lat="-27.2721966" lon="151.2900641">
  <ele>443.06</ele>
  <time>2026-09-01T19:59:19Z</time>
  <course>10.52</course>
  <speed>0.1019803902718557</speed>
  <fix>3d</fix>
</trkpt>
<trkpt lat="-27.2721969" lon="151.2900642">
  <ele>443.15</ele>
  <time>2026-09-01T19:59:19Z</time>
  <course>346.27</course>
  <speed>0.05</speed>
  <fix>3d</fix>
</trkpt>
<trkpt lat="-27.2721965" lon="151.2900641">
  <ele>443.06</ele>
  <time>2026-09-01T19:59:19Z</time>
  <course>10.51</course>
  <speed>0.1118033988749895</speed>
  <fix>3d</fix>
</trkpt>
<trkpt lat="-27.2721969" lon="151.2900642">
  <ele>443.15</ele>
  <time>2026-09-01T19:59:19Z</time>
  <course>346.27</course>
  <speed>0.05</speed>
  <fix>3d</fix>
</trkpt>
<trkpt lat="-27.2721964" lon="151.2900641">
  <ele>443.06</ele>
  <time>2026-09-01T19:59:19Z</time>
  <course>10.5</course>
  <speed>0.12041594578792296</speed>
  <fix>3d</fix>
</trkpt>
<trkpt lat="-27.2721968" lon="151.2900642">
  <ele>443.15</ele>
  <time>2026-09-01T19:59:19Z</time>
  <course>353.7</course>
  <speed>0.07</speed>
  <fix>3d</fix>
</trkpt>
<trkpt lat="-27.2721963" lon="151.2900641">
  <ele>443.06</ele>
  <time>2026-09-01T19:59:19Z</time>
  <course>10.49</course>
  <speed>0.130384048104053</speed>
  <fix>3d</fix>
</trkpt>
<trkpt lat="-27.2721968" lon="151.2900642">
  <ele>443.15</ele>
  <time>2026-09-01T19:59:19Z</time>
  <course>353.7</course>
  <speed>0.07</speed>
  <fix>3d</fix>
</trkpt>
<trkpt lat="-27.2721962" lon="151.2900641">
  <ele>443.06</ele>
  <time>2026-09-01T19:59:19Z</time>
  <course>10.48</course>
  <speed>0.140356688476182</speed>
  <fix>3d</fix>
</trkpt>
<trkpt lat="-27.2721967" lon="151.2900642">
  <ele>443.15</ele>
  <time>2026-09-01T19:59:19Z</time>
  <course>356.98</course>
  <speed>0.1</speed>
  <fix>3d</fix>
</trkpt>
<trkpt lat="-27.2721961" lon="151.2900641">
  <ele>443.05</ele>
  <time>2026-09-01T19:59:19Z</time>
  <course>10.47</course>
  <speed>0.15033296378372907</speed>
  <fix>3d</fix>
</trkpt>
<trkpt lat="-27.2721967" lon="151.2900642">
  <ele>443.15</ele>
  <time>2026-09-01T19:59:19Z</time>
  <course>356.98</course>
  <speed>0.1</speed>
  <fix>3d</fix>
</trkpt>
<trkpt lat="-27.272196" lon="151.2900641">
  <ele>443.05</ele>
  <time>2026-09-01T19:59:19Z</time>
  <course>10.46</course>
  <speed>0.15033296378372907</speed>
  <fix>3d</fix>
</trkpt>
<trkpt lat="-27.2721965" lon="151.2900642">
  <ele>443.15</ele>
  <time>2026-09-01T19:59:19Z</time>
  <course>358.75</course>
  <speed>0.12</speed>
  <fix>3d</fix>
</trkpt>
<trkpt lat="-27.2721959" lon="151.2900641">
  <ele>443.05</ele>
  <time>2026-09-01T19:59:19Z</time>
  <course>10.46</course>
  <speed>0.16031219541881397</speed>
  <fix>3d</fix>
</trkpt>
<trkpt lat="-27.2721965" lon="151.2900642">
  <ele>443.15</ele>
  <time>2026-09-01T19:59:19Z</time>
  <course>358.75</course>
  <speed>0.12</speed>
  <fix>3d</fix>
</trkpt>
<trkpt lat="-27.2721958" lon="151.2900641">
  <ele>443.05</ele>
  <time>2026-09-01T19:59:19Z</time>
  <course>10.46</course>
  <speed>0.17</speed>
  <fix>3d</fix>
</trkpt>
<trkpt lat="-27.2721963" lon="151.2900642">
  <ele>443.15</ele>
  <time>2026-09-01T19:59:19Z</time>
  <course>0.14</course>
  <speed>0.13</speed>
  <fix>3d</fix>
</trkpt>
<trkpt lat="-27.2721957" lon="151.2900641">
  <ele>443.05</ele>
  <time>2026-09-01T19:59:19Z</time>
  <course>10.48</course>
  <speed>0.17</speed>
  <fix>3d</fix>
</trkpt>
<trkpt lat="-27.2721963" lon="151.2900642">
  <ele>443.15</ele>
  <time>2026-09-01T19:59:19Z</time>
  <course>0.14</course>
  <speed>0.13</speed>
  <fix>3d</fix>
</trkpt>
<trkpt lat="-27.2721955" lon="151.2900641">
  <ele>443.05</ele>
  <time>2026-09-01T19:59:19Z</time>
  <course>10.5</course>
  <speed>0.18</speed>
  <fix>3d</fix>
</trkpt>
<trkpt lat="-27.272196" lon="151.2900642">
  <ele>443.15</ele>
  <time>2026-09-01T19:59:19Z</time>
  <course>1.51</course>
  <speed>0.15</speed>
  <fix>3d</fix>
</trkpt>
<trkpt lat="-27.2721954" lon="151.2900641">
  <ele>443.05</ele>
  <time>2026-09-01T19:59:19Z</time>
  <course>10.51</course>
  <speed>0.18</speed>
  <fix>3d</fix>
</trkpt>
<trkpt lat="-27.272196" lon="151.2900642">
  <ele>443.15</ele>
  <time>2026-09-01T19:59:19Z</time>
  <course>1.51</course>
  <speed>0.15</speed>
  <fix>3d</fix>
</trkpt>
<trkpt lat="-27.2721953" lon="151.2900641">
  <ele>443.05</ele>
  <time>2026-09-01T19:59:19Z</time>
  <course>10.52</course>
  <speed>0.18</speed>
  <fix>3d</fix>
</trkpt>
<trkpt lat="-27.2721957" lon="151.2900642">
  <ele>443.16</ele>
  <time>2026-09-01T19:59:19Z</time>
  <course>2.69</course>
  <speed>0.16</speed>
  <fix>3d</fix>
</trkpt>
<trkpt lat="-27.2721951" lon="151.2900641">
  <ele>443.05</ele>
  <time>2026-09-01T19:59:19Z</time>
  <course>10.51</course>
  <speed>0.19</speed>
  <fix>3d</fix>
</trkpt>
<trkpt lat="-27.2721957" lon="151.2900642">
  <ele>443.16</ele>
  <time>2026-09-01T19:59:19Z</time>
  <course>2.69</course>
  <speed>0.16</speed>
  <fix>3d</fix>
</trkpt>
<trkpt lat="-27.272195" lon="151.2900641">
  <ele>443.05</ele>
  <time>2026-09-01T19:59:19Z</time>
  <course>10.5</course>
  <speed>0.19</speed>
  <fix>3d</fix>
</trkpt>
<trkpt lat="-27.2721954" lon="151.2900642">
  <ele>443.16</ele>
  <time>2026-09-01T19:59:19Z</time>
  <course>3.6</course>
  <speed>0.17</speed>
  <fix>3d</fix>
</trkpt>
<trkpt lat="-27.2721948" lon="151.2900641">
  <ele>443.05</ele>
  <time>2026-09-01T19:59:19Z</time>
  <course>10.49</course>
  <speed>0.19</speed>
  <fix>3d</fix>
</trkpt>
<trkpt lat="-27.2721954" lon="151.2900642">
  <ele>443.16</ele>
  <time>2026-09-01T19:59:19Z</time>
  <course>3.6</course>
  <speed>0.17</speed>
  <fix>3d</fix>
</trkpt>
<trkpt lat="-27.2721947" lon="151.2900641">
  <ele>443.05</ele>
  <time>2026-09-01T19:59:19Z</time>
  <course>10.49</course>
  <speed>0.19</speed>
  <fix>3d</fix>
</trkpt>
<trkpt lat="-27.2721951" lon="151.2900642">
  <ele>443.16</ele>
  <time>2026-09-01T19:59:19Z</time>
  <course>4.3</course>
  <speed>0.17</speed>
  <fix>3d</fix>
</trkpt>
<trkpt lat="-27.2721945" lon="151.2900641">
  <ele>443.06</ele>
  <time>2026-09-01T19:59:19Z</time>
  <course>10.5</course>
  <speed>0.19</speed>
  <fix>3d</fix>
</trkpt>
<trkpt lat="-27.2721951" lon="151.2900642">
  <ele>443.16</ele>
  <time>2026-09-01T19:59:19Z</time>
  <course>4.3</course>
  <speed>0.17</speed>
  <fix>3d</fix>
</trkpt>
<trkpt lat="-27.2721944" lon="151.2900641">
  <ele>443.06</ele>
  <time>2026-09-01T19:59:19Z</time>
  <course>10.5</course>
  <speed>0.18</speed>
  <fix>3d</fix>
</trkpt>
<trkpt lat="-27.2721948" lon="151.2900642">
  <ele>443.16</ele>
  <time>2026-09-01T19:59:19Z</time>
  <course>4.89</course>
  <speed>0.17</speed>
  <fix>3d</fix>
</trkpt>
<trkpt lat="-27.2721942" lon="151.2900641">
  <ele>443.06</ele>
  <time>2026-09-01T19:59:19Z</time>
  <course>10.51</course>
  <speed>0.18</speed>
  <fix>3d</fix>
</trkpt>
<trkpt lat="-27.2721948" lon="151.2900642">
  <ele>443.16</ele>
  <time>2026-09-01T19:59:19Z</time>
  <course>4.89</course>
  <speed>0.17</speed>
  <fix>3d</fix>
</trkpt>
<trkpt lat="-27.2721941" lon="151.2900642">
  <ele>443.06</ele>
  <time>2026-09-01T19:59:19Z</time>
  <course>10.51</course>
  <speed>0.18</speed>
  <fix>3d</fix>
</trkpt>
<trkpt lat="-27.2721945" lon="151.2900642">
  <ele>443.16</ele>
  <time>2026-09-01T19:59:19Z</time>
  <course>5.38</course>
  <speed>0.17</speed>
  <fix>3d</fix>
</trkpt>
<trkpt lat="-27.2721939" lon="151.2900642">
  <ele>443.06</ele>
  <time>2026-09-01T19:59:19Z</time>
  <course>10.51</course>
  <speed>0.17</speed>
  <fix>3d</fix>
</trkpt>
<trkpt lat="-27.2721945" lon="151.2900642">
  <ele>443.16</ele>
  <time>2026-09-01T19:59:19Z</time>
  <course>5.38</course>
  <speed>0.17</speed>
  <fix>3d</fix>
</trkpt>
<trkpt lat="-27.2721938" lon="151.2900642">
  <ele>443.05</ele>
  <time>2026-09-01T19:59:19Z</time>
  <course>10.51</course>
  <speed>0.17</speed>
  <fix>3d</fix>
</trkpt>
<trkpt lat="-27.2721942" lon="151.2900642">
  <ele>443.17</ele>
  <time>2026-09-01T19:59:19Z</time>
  <course>5.74</course>
  <speed>0.16</speed>
  <fix>3d</fix>
</trkpt>
<trkpt lat="-27.2721937" lon="151.2900642">
  <ele>443.05</ele>
  <time>2026-09-01T19:59:19Z</time>
  <course>10.52</course>
  <speed>0.16</speed>
  <fix>3d</fix>
</trkpt>
<trkpt lat="-27.2721942" lon="151.2900642">
  <ele>443.17</ele>
  <time>2026-09-01T19:59:19Z</time>
  <course>5.74</course>
  <speed>0.16</speed>
  <fix>3d</fix>
</trkpt>
<trkpt lat="-27.2721935" lon="151.2900642">
  <ele>443.05</ele>
  <time>2026-09-01T19:59:19Z</time>
  <course>10.52</course>
  <speed>0.15</speed>
  <fix>3d</fix>
</trkpt>
<trkpt lat="-27.2721939" lon="151.2900642">
  <ele>443.17</ele>
  <time>2026-09-01T19:59:19Z</time>
  <course>6.19</course>
  <speed>0.15</speed>
  <fix>3d</fix>
</trkpt>
<trkpt lat="-27.2721934" lon="151.2900642">
  <ele>443.05</ele>
  <time>2026-09-01T19:59:19Z</time>
  <course>10.52</course>
  <speed>0.15</speed>
  <fix>3d</fix>
</trkpt>
<trkpt lat="-27.2721939" lon="151.2900642">
  <ele>443.17</ele>
  <time>2026-09-01T19:59:19Z</time>
  <course>6.19</course>
  <speed>0.15</speed>
  <fix>3d</fix>
</trkpt>
<trkpt lat="-27.2721933" lon="151.2900642">
  <ele>443.06</ele>
  <time>2026-09-01T19:59:19Z</time>
  <course>10.51</course>
  <speed>0.14</speed>
  <fix>3d</fix>
</trkpt>
<trkpt lat="-27.2721936" lon="151.2900642">
  <ele>443.17</ele>
  <time>2026-09-01T19:59:19Z</time>
  <course>6.91</course>
  <speed>0.14</speed>
  <fix>3d</fix>
</trkpt>
<trkpt lat="-27.2721932" lon="151.2900642">
  <ele>443.06</ele>
  <time>2026-09-01T19:59:19Z</time>
  <course>10.5</course>
  <speed>0.13</speed>
  <fix>3d</fix>
</trkpt>
<trkpt lat="-27.2721936" lon="151.2900642">
  <ele>443.17</ele>
  <time>2026-09-01T19:59:19Z</time>
  <course>6.91</course>
  <speed>0.14</speed>
  <fix>3d</fix>
</trkpt>
<trkpt lat="-27.2721931" lon="151.2900642">
  <ele>443.06</ele>
  <time>2026-09-01T19:59:19Z</time>
  <course>10.49</course>
  <speed>0.13</speed>
  <fix>3d</fix>
</trkpt>
<trkpt lat="-27.2721934" lon="151.2900643">
  <ele>443.17</ele>
  <time>2026-09-01T19:59:19Z</time>
  <course>7.82</course>
  <speed>0.13</speed>
  <fix>3d</fix>
</trkpt>
<trkpt lat="-27.272193" lon="151.2900642">
  <ele>443.06</ele>
  <time>2026-09-01T19:59:19Z</time>
  <course>10.48</course>
  <speed>0.12</speed>
  <fix>3d</fix>
</trkpt>
<trkpt lat="-27.2721934" lon="151.2900643">
  <ele>443.17</ele>
  <time>2026-09-01T19:59:19Z</time>
  <course>7.82</course>
  <speed>0.13</speed>
  <fix>3d</fix>
</trkpt>
<trkpt lat="-27.2721929" lon="151.2900643">
  <ele>443.06</ele>
  <time>2026-09-01T19:59:19Z</time>
  <course>10.47</course>
  <speed>0.11</speed>
  <fix>3d</fix>
</trkpt>
<trkpt lat="-27.2721931" lon="151.2900644">
  <ele>443.17</ele>
  <time>2026-09-01T19:59:19Z</time>
  <course>8.85</course>
  <speed>0.11</speed>
  <fix>3d</fix>
</trkpt>
<trkpt lat="-27.2721928" lon="151.2900643">
  <ele>443.06</ele>
  <time>2026-09-01T19:59:19Z</time>
  <course>10.47</course>
  <speed>0.1</speed>
  <fix>3d</fix>
</trkpt>
<trkpt lat="-27.2721931" lon="151.2900644">
  <ele>443.17</ele>
  <time>2026-09-01T19:59:19Z</time>
  <course>8.85</course>
  <speed>0.11</speed>
  <fix>3d</fix>
</trkpt>
<trkpt lat="-27.2721927" lon="151.2900643">
  <ele>443.06</ele>
  <time>2026-09-01T19:59:19Z</time>
  <course>10.48</course>
  <speed>0.09</speed>
  <fix>3d</fix>
</trkpt>
<trkpt lat="-27.272193" lon="151.2900644">
  <ele>443.17</ele>
  <time>2026-09-01T19:59:19Z</time>
  <course>10.06</course>
  <speed>0.09</speed>
  <fix>3d</fix>
</trkpt>
<trkpt lat="-27.2721927" lon="151.2900643">
  <ele>443.07</ele>
  <time>2026-09-01T19:59:19Z</time>
  <course>10.49</course>
  <speed>0.08</speed>
  <fix>3d</fix>
</trkpt>
<trkpt lat="-27.272193" lon="151.2900644">
  <ele>443.17</ele>
  <time>2026-09-01T19:59:19Z</time>
  <course>10.06</course>
  <speed>0.09</speed>
  <fix>3d</fix>
</trkpt>
<trkpt lat="-27.2721926" lon="151.2900643">
  <ele>443.07</ele>
  <time>2026-09-01T19:59:19Z</time>
  <course>10.5</course>
  <speed>0.07</speed>
  <fix>3d</fix>
</trkpt>
<trkpt lat="-27.2721928" lon="151.2900645">
  <ele>443.17</ele>
  <time>2026-09-01T19:59:19Z</time>
  <course>11.63</course>
  <speed>0.08</speed>
  <fix>3d</fix>
</trkpt>
<trkpt lat="-27.2721925" lon="151.2900643">
  <ele>443.07</ele>
  <time>2026-09-01T19:59:19Z</time>
  <course>10.51</course>
  <speed>0.06</speed>
  <fix>3d</fix>
</trkpt>
<trkpt lat="-27.2721928" lon="151.2900645">
  <ele>443.17</ele>
  <time>2026-09-01T19:59:19Z</time>
  <course>11.63</course>
  <speed>0.08</speed>
  <fix>3d</fix>
</trkpt>
<trkpt lat="-27.2721925" lon="151.2900643">
  <ele>443.07</ele>
  <time>2026-09-01T19:59:19Z</time>
  <course>10.51</course>
  <speed>0.05</speed>
  <fix>3d</fix>
</trkpt>
<trkpt lat="-27.2721927" lon="151.2900645">
  <ele>443.18</ele>
  <time>2026-09-01T19:59:19Z</time>
  <course>14.29</course>
  <speed>0.06</speed>
  <fix>3d</fix>
</trkpt>
<trkpt lat="-27.2721925" lon="151.2900644">
  <ele>443.08</ele>
  <time>2026-09-01T19:59:19Z</time>
  <course>10.5</course>
  <speed>0.04</speed>
  <fix>3d</fix>
</trkpt>
<trkpt lat="-27.2721927" lon="151.2900645">
  <ele>443.18</ele>
  <time>2026-09-01T19:59:19Z</time>
  <course>14.29</course>
  <speed>0.06</speed>
  <fix>3d</fix>
</trkpt>
<trkpt lat="-27.2721925" lon="151.2900644">
  <ele>443.08</ele>
  <time>2026-09-01T19:59:19Z</time>
  <course>10.49</course>
  <speed>0.03</speed>
  <fix>3d</fix>
</trkpt>
<trkpt lat="-27.2721926" lon="151.2900645">
  <ele>443.18</ele>
  <time>2026-09-01T19:59:19Z</time>
  <course>19.34</course>
  <speed>0.04</speed>
  <fix>3d</fix>
</trkpt>
<trkpt lat="-27.2721924" lon="151.2900644">
  <ele>443.08</ele>
  <time>2026-09-01T19:59:20Z</time>
  <course>10.49</course>
  <speed>0.03</speed>
  <fix>3d</fix>
</trkpt>
<trkpt lat="-27.2721926" lon="151.2900645">
  <ele>443.18</ele>
  <time>2026-09-01T19:59:20Z</time>
  <course>19.34</course>
  <speed>0.04</speed>
  <fix>3d</fix>
</trkpt>
<trkpt lat="-27.2721924" lon="151.2900644">
  <ele>443.08</ele>
  <time>2026-09-01T19:59:20Z</time>
  <course>10.49</course>
  <speed>0.02</speed>
  <fix>3d</fix>
</trkpt>
<trkpt lat="-27.2721925" lon="151.2900645">
  <ele>443.18</ele>
  <time>2026-09-01T19:59:20Z</time>
  <course>30.14</course>
  <speed>0.02</speed>
  <fix>3d</fix>
</trkpt>
<trkpt lat="-27.2721924" lon="151.2900644">
  <ele>443.07</ele>
  <time>2026-09-01T19:59:20Z</time>
  <course>10.49</course>
  <speed>0.01</speed>
  <fix>3d</fix>
</trkpt>
<trkpt lat="-27.2721925" lon="151.2900645">
  <ele>443.18</ele>
  <time>2026-09-01T19:59:20Z</time>
  <course>30.14</course>
  <speed>0.02</speed>
  <fix>3d</fix>
</trkpt>
<trkpt lat="-27.2721924" lon="151.2900644">
  <ele>443.07</ele>
  <time>2026-09-01T19:59:20Z</time>
  <course>10.49</course>
  <speed>0.0</speed>
  <fix>3d</fix>
</trkpt>
<trkpt lat="-27.2721925" lon="151.2900646">
  <ele>443.18</ele>
  <time>2026-09-01T19:59:20Z</time>
  <course>67.97</course>
  <speed>0.01</speed>
  <fix>3d</fix>
</trkpt>
<trkpt lat="-27.2721924" lon="151.2900644">
  <ele>443.07</ele>
  <time>2026-09-01T19:59:20Z</time>
  <course>10.49</course>
  <speed>0.0</speed>
  <fix>3d</fix>
</trkpt>
<trkpt lat="-27.2721925" lon="151.2900646">
  <ele>443.18</ele>
  <time>2026-09-01T19:59:20Z</time>
  <course>67.97</course>
  <speed>0.01</speed>
  <fix>3d</fix>
</trkpt>
<trkpt lat="-27.2721925" lon="151.2900644">
  <ele>443.07</ele>
  <time>2026-09-01T19:59:20Z</time>
  <course>10.49</course>
  <speed>0.0</speed>
  <fix>3d</fix>
</trkpt>
<trkpt lat="-27.2721925" lon="151.2900646">
  <ele>443.18</ele>
  <time>2026-09-01T19:59:20Z</time>
  <course>144.77</course>
  <speed>0.01</speed>
  <fix>3d</fix>
</trkpt>
<trkpt lat="-27.2721925" lon="151.2900644">
  <ele>443.07</ele>
  <time>2026-09-01T19:59:20Z</time>
  <course>10.49</course>
  <speed>0.01</speed>
  <fix>3d</fix>
</trkpt>
<trkpt lat="-27.2721925" lon="151.2900646">
  <ele>443.18</ele>
  <time>2026-09-01T19:59:20Z</time>
  <course>144.77</course>
  <speed>0.01</speed>
  <fix>3d</fix>
</trkpt>
<trkpt lat="-27.2721925" lon="151.2900644">
  <ele>443.07</ele>
  <time>2026-09-01T19:59:20Z</time>
  <course>10.49</course>
  <speed>0.02</speed>
  <fix>3d</fix>
</trkpt>
<trkpt lat="-27.2721925" lon="151.2900646">
  <ele>443.18</ele>
  <time>2026-09-01T19:59:20Z</time>
  <course>166.6</course>
  <speed>0.02</speed>
  <fix>3d</fix>
</trkpt>
<trkpt lat="-27.2721925" lon="151.2900644">
  <ele>443.07</ele>
  <time>2026-09-01T19:59:20Z</time>
  <course>10.48</course>
  <speed>0.022360679774997897</speed>
  <fix>3d</fix>
</trkpt>
<trkpt lat="-27.2721925" lon="151.2900646">
  <ele>443.18</ele>
  <time>2026-09-01T19:59:20Z</time>
  <course>166.6</course>
  <speed>0.02</speed>
  <fix>3d</fix>
</trkpt>
<trkpt lat="-27.2721925" lon="151.2900644">
  <ele>443.07</ele>
  <time>2026-09-01T19:59:20Z</time>
  <course>10.48</course>
  <speed>0.0316227766016838</speed>
  <fix>3d</fix>
</trkpt>
<trkpt lat="-27.2721925" lon="151.2900646">
  <ele>443.17</ele>
  <time>2026-09-01T19:59:20Z</time>
  <course>174.22</course>
  <speed>0.04</speed>
  <fix>3d</fix>
</trkpt>
<trkpt lat="-27.2721925" lon="151.2900645">
  <ele>443.07</ele>
  <time>2026-09-01T19:59:20Z</time>
  <course>10.47</course>
  <speed>0.0316227766016838</speed>
  <fix>3d</fix>
</trkpt>
<trkpt lat="-27.2721925" lon="151.2900646">
  <ele>443.17</ele>
  <time>2026-09-01T19:59:20Z</time>
  <course>174.22</course>
  <speed>0.04</speed>
  <fix>3d</fix>
</trkpt>
<trkpt lat="-27.2721926" lon="151.2900645">
  <ele>443.07</ele>
  <time>2026-09-01T19:59:20Z</time>
  <course>10.47</course>
  <speed>0.0316227766016838</speed>
  <fix>3d</fix>
</trkpt>
<trkpt lat="-27.2721926" lon="151.2900646">
  <ele>443.17</ele>
  <time>2026-09-01T19:59:20Z</time>
  <course>178.08</course>
  <speed>0.05</speed>
  <fix>3d</fix>
</trkpt>
<trkpt lat="-27.2721926" lon="151.2900645">
  <ele>443.07</ele>
  <time>2026-09-01T19:59:20Z</time>
  <course>10.47</course>
  <speed>0.0412310562561766</speed>
  <fix>3d</fix>
</trkpt>
<trkpt lat="-27.2721926" lon="151.2900646">
  <ele>443.17</ele>
  <time>2026-09-01T19:59:20Z</time>
  <course>178.08</course>
  <speed>0.05</speed>
  <fix>3d</fix>
</trkpt>
<trkpt lat="-27.2721927" lon="151.2900645">
  <ele>443.07</ele>
  <time>2026-09-01T19:59:20Z</time>
  <course>10.47</course>
  <speed>0.0412310562561766</speed>
  <fix>3d</fix>
</trkpt>
<trkpt lat="-27.2721927" lon="151.2900646">
  <ele>443.17</ele>
  <time>2026-09-01T19:59:20Z</time>
  <course>180.18</course>
  <speed>0.06</speed>
  <fix>3d</fix>
</trkpt>
<trkpt lat="-27.2721927" lon="151.2900645">
  <ele>443.07</ele>
  <time>2026-09-01T19:59:20Z</time>
  <course>10.48</course>
  <speed>0.0412310562561766</speed>
  <fix>3d</fix>
</trkpt>
<trkpt lat="-27.2721927" lon="151.2900646">
  <ele>443.17</ele>
  <time>2026-09-01T19:59:20Z</time>
  <course>180.18</course>
  <speed>0.06</speed>
  <fix>3d</fix>
</trkpt>
<trkpt lat="-27.2721928" lon="151.2900645">
  <ele>443.07</ele>
  <time>2026-09-01T19:59:20Z</time>
  <course>10.49</course>
  <speed>0.05099019513592785</speed>
  <fix>3d</fix>
</trkpt>
<trkpt lat="-27.2721928" lon="151.2900646">
  <ele>443.17</ele>
  <time>2026-09-01T19:59:20Z</time>
  <course>181.71</course>
  <speed>0.07</speed>
  <fix>3d</fix>
</trkpt>
<trkpt lat="-27.2721928" lon="151.2900645">
  <ele>443.07</ele>
  <time>2026-09-01T19:59:20Z</time>
  <course>10.49</course>
  <speed>0.05099019513592785</speed>
  <fix>3d</fix>
</trkpt>
<trkpt lat="-27.2721928" lon="151.2900646">
  <ele>443.17</ele>
  <time>2026-09-01T19:59:20Z</time>
  <course>181.71</course>
  <speed>0.07</speed>
  <fix>3d</fix>
</trkpt>
<trkpt lat="-27.2721929" lon="151.2900645">
  <ele>443.07</ele>
  <time>2026-09-01T19:59:20Z</time>
  <course>10.49</course>
  <speed>0.05099019513592785</speed>
  <fix>3d</fix>
</trkpt>
<trkpt lat="-27.2721929" lon="151.2900646">
  <ele>443.17</ele>
  <time>2026-09-01T19:59:20Z</time>
  <course>183.2</course>
  <speed>0.07</speed>
  <fix>3d</fix>
</trkpt>
<trkpt lat="-27.272193" lon="151.2900645">
  <ele>443.08</ele>
  <time>2026-09-01T19:59:20Z</time>
  <course>10.49</course>
  <speed>0.053851648071345036</speed>
  <fix>3d</fix>
</trkpt>
<trkpt lat="-27.2721929" lon="151.2900646">
  <ele>443.17</ele>
  <time>2026-09-01T19:59:20Z</time>
  <course>183.2</course>
  <speed>0.07</speed>
  <fix>3d</fix>
</trkpt>
<trkpt lat="-27.272193" lon="151.2900645">
  <ele>443.08</ele>
  <time>2026-09-01T19:59:20Z</time>
  <course>10.5</course>
  <speed>0.0632455532033676</speed>
  <fix>3d</fix>
</trkpt>
<trkpt lat="-27.2721931" lon="151.2900646">
  <ele>443.18</ele>
  <time>2026-09-01T19:59:20Z</time>
  <course>184.83</course>
  <speed>0.08</speed>
  <fix>3d</fix>
</trkpt>
<trkpt lat="-27.2721931" lon="151.2900645">
  <ele>443.08</ele>
  <time>2026-09-01T19:59:20Z</time>
  <course>10.48</course>
  <speed>0.053851648071345036</speed>
  <fix>3d</fix>
</trkpt>
<trkpt lat="-27.2721931" lon="151.2900646">
  <ele>443.18</ele>
  <time>2026-09-01T19:59:20Z</time>
  <course>184.83</course>
  <speed>0.08</speed>
  <fix>3d</fix>
</trkpt>
<trkpt lat="-27.2721931" lon="151.2900645">
  <ele>443.08</ele>
  <time>2026-09-01T19:59:20Z</time>
  <course>10.21</course>
  <speed>0.01</speed>
  <fix>3d</fix>
</trkpt>
<trkpt lat="-27.2721933" lon="151.2900646">
  <ele>443.18</ele>
  <time>2026-09-01T19:59:20Z</time>
  <course>186.14</course>
  <speed>0.08</speed>
  <fix>3d</fix>
</trkpt>
<trkpt lat="-27.2721931" lon="151.2900645">
  <ele>443.08</ele>
  <time>2026-09-01T19:59:20Z</time>
  <course>9.77</course>
  <speed>0.0412310562561766</speed>
  <fix>3d</fix>
</trkpt>
<trkpt lat="-27.2721933" lon="151.2900646">
  <ele>443.18</ele>
  <time>2026-09-01T19:59:20Z</time>
  <course>186.14</course>
  <speed>0.08</speed>
  <fix>3d</fix>
</trkpt>
<trkpt lat="-27.2721931" lon="151.2900645">
  <ele>443.09</ele>
  <time>2026-09-01T19:59:20Z</time>
  <course>9.45</course>
  <speed>0.053851648071345036</speed>
  <fix>3d</fix>
</trkpt>
<trkpt lat="-27.2721934" lon="151.2900646">
  <ele>443.18</ele>
  <time>2026-09-01T19:59:20Z</time>
  <course>191.52</course>
  <speed>0.03</speed>
  <fix>3d</fix>
</trkpt>
<trkpt lat="-27.2721931" lon="151.2900645">
  <ele>443.1</ele>
  <time>2026-09-01T19:59:20Z</time>
  <course>9.35</course>
  <speed>0.05830951894845301</speed>
  <fix>3d</fix>
</trkpt>
<trkpt lat="-27.2721934" lon="151.2900646">
  <ele>443.18</ele>
  <time>2026-09-01T19:59:20Z</time>
  <course>191.52</course>
  <speed>0.03</speed>
  <fix>3d</fix>
</trkpt>
<trkpt lat="-27.2721931" lon="151.2900644">
  <ele>443.13</ele>
  <time>2026-09-01T19:59:20Z</time>
  <course>9.47</course>
  <speed>0.06403124237432849</speed>
  <fix>3d</fix>
</trkpt>
<trkpt lat="-27.2721934" lon="151.2900646">
  <ele>443.19</ele>
  <time>2026-09-01T19:59:20Z</time>
  <course>330.24</course>
  <speed>0.02</speed>
  <fix>3d</fix>
</trkpt>
<trkpt lat="-27.272193" lon="151.2900644">
  <ele>443.18</ele>
  <time>2026-09-01T19:59:20Z</time>
  <course>9.71</course>
  <speed>0.0565685424949238</speed>
  <fix>3d</fix>
</trkpt>
<trkpt lat="-27.2721934" lon="151.2900646">
  <ele>443.19</ele>
  <time>2026-09-01T19:59:20Z</time>
  <course>330.24</course>
  <speed>0.02</speed>
  <fix>3d</fix>
</trkpt>
<trkpt lat="-27.272193" lon="151.2900644">
  <ele>443.25</ele>
  <time>2026-09-01T19:59:20Z</time>
  <course>10.0</course>
  <speed>0.0565685424949238</speed>
  <fix>3d</fix>
</trkpt>
<trkpt lat="-27.2721934" lon="151.2900646">
  <ele>443.24</ele>
  <time>2026-09-01T19:59:20Z</time>
  <course>311.79</course>
  <speed>0.03</speed>
  <fix>3d</fix>
</trkpt>
<trkpt lat="-27.272193" lon="151.2900644">
  <ele>443.35</ele>
  <time>2026-09-01T19:59:20Z</time>
  <course>10.21</course>
  <speed>0.0565685424949238</speed>
  <fix>3d</fix>
</trkpt>
<trkpt lat="-27.2721934" lon="151.2900646">
  <ele>443.24</ele>
  <time>2026-09-01T19:59:20Z</time>
  <course>311.79</course>
  <speed>0.03</speed>
  <fix>3d</fix>
</trkpt>
<trkpt lat="-27.272193" lon="151.2900643">
  <ele>443.47</ele>
  <time>2026-09-01T19:59:20Z</time>
  <course>10.28</course>
  <speed>0.05</speed>
  <fix>3d</fix>
</trkpt>
<trkpt lat="-27.2721934" lon="151.2900645">
  <ele>443.36</ele>
  <time>2026-09-01T19:59:20Z</time>
  <course>300.12</course>
  <speed>0.03</speed>
  <fix>3d</fix>
</trkpt>
<trkpt lat="-27.272193" lon="151.2900643">
  <ele>443.63</ele>
  <time>2026-09-01T19:59:20Z</time>
  <course>10.24</course>
  <speed>0.053851648071345036</speed>
  <fix>3d</fix>
</trkpt>
<trkpt lat="-27.2721934" lon="151.2900645">
  <ele>443.36</ele>
  <time>2026-09-01T19:59:20Z</time>
  <course>300.12</course>
  <speed>0.03</speed>
  <fix>3d</fix>
</trkpt>
<trkpt lat="-27.2721931" lon="151.2900643">
  <ele>443.8</ele>
  <time>2026-09-01T19:59:20Z</time>
  <course>10.15</course>
  <speed>0.07071067811865475</speed>
  <fix>3d</fix>
</trkpt>
<trkpt lat="-27.2721933" lon="151.2900645">
  <ele>443.58</ele>
  <time>2026-09-01T19:59:20Z</time>
  <course>319.97</course>
  <speed>0.03</speed>
  <fix>3d</fix>
</trkpt>
<trkpt lat="-27.272193" lon="151.2900643">
  <ele>444.0</ele>
  <time>2026-09-01T19:59:20Z</time>
  <course>10.08</course>
  <speed>0.09055385138137417</speed>
  <fix>3d</fix>
</trkpt>
<trkpt lat="-27.2721933" lon="151.2900645">
  <ele>443.58</ele>
  <time>2026-09-01T19:59:20Z</time>
  <course>319.97</course>
  <speed>0.03</speed>
  <fix>3d</fix>
</trkpt>
<trkpt lat="-27.2721929" lon="151.2900644">
  <ele>444.22</ele>
  <time>2026-09-01T19:59:20Z</time>
  <course>10.07</course>
  <speed>0.12</speed>
  <fix>3d</fix>
</trkpt>
<trkpt lat="-27.2721933" lon="151.2900645">
  <ele>443.91</ele>
  <time>2026-09-01T19:59:20Z</time>
  <course>355.24</course>
  <speed>0.04</speed>
  <fix>3d</fix>
</trkpt>
<trkpt lat="-27.2721928" lon="151.2900644">
  <ele>444.46</ele>
  <time>2026-09-01T19:59:20Z</time>
  <course>10.11</course>
  <speed>0.14</speed>
  <fix>3d</fix>
</trkpt>
<trkpt lat="-27.2721933" lon="151.2900645">
  <ele>443.91</ele>
  <time>2026-09-01T19:59:20Z</time>
  <course>355.24</course>
  <speed>0.04</speed>
  <fix>3d</fix>
</trkpt>
<trkpt lat="-27.2721927" lon="151.2900644">
  <ele>444.7</ele>
  <time>2026-09-01T19:59:20Z</time>
  <course>10.17</course>
  <speed>0.17</speed>
  <fix>3d</fix>
</trkpt>
<trkpt lat="-27.2721931" lon="151.2900645">
  <ele>444.32</ele>
  <time>2026-09-01T19:59:20Z</time>
  <course>4.69</course>
  <speed>0.09</speed>
  <fix>3d</fix>
</trkpt>
<trkpt lat="-27.2721926" lon="151.2900644">
  <ele>444.96</ele>
  <time>2026-09-01T19:59:20Z</time>
  <course>10.25</course>
  <speed>0.2002498439450079</speed>
  <fix>3d</fix>
</trkpt>
<trkpt lat="-27.2721931" lon="151.2900645">
  <ele>444.32</ele>
  <time>2026-09-01T19:59:20Z</time>
  <course>4.69</course>
  <speed>0.09</speed>
  <fix>3d</fix>
</trkpt>
<trkpt lat="-27.2721924" lon="151.2900644">
  <ele>445.23</ele>
  <time>2026-09-01T19:59:20Z</time>
  <course>10.32</course>
  <speed>0.22022715545545238</speed>
  <fix>3d</fix>
</trkpt>
<trkpt lat="-27.2721929" lon="151.2900645">
  <ele>444.8</ele>
  <time>2026-09-01T19:59:20Z</time>
  <course>6.97</course>
  <speed>0.14</speed>
  <fix>3d</fix>
</trkpt>
<trkpt lat="-27.2721922" lon="151.2900644">
  <ele>445.5</ele>
  <time>2026-09-01T19:59:20Z</time>
  <course>10.37</course>
  <speed>0.25079872407968906</speed>
  <fix>3d</fix>
</trkpt>
<trkpt lat="-27.2721929" lon="151.2900645">
  <ele>444.8</ele>
  <time>2026-09-01T19:59:20Z</time>
  <course>6.97</course>
  <speed>0.14</speed>
  <fix>3d</fix>
</trkpt>
<trkpt lat="-27.272192" lon="151.2900644">
  <ele>445.77</ele>
  <time>2026-09-01T19:59:20Z</time>
  <course>10.4</course>
  <speed>0.260768096208106</speed>
  <fix>3d</fix>
</trkpt>
<trkpt lat="-27.2721926" lon="151.2900645">
  <ele>445.32</ele>
  <time>2026-09-01T19:59:20Z</time>
  <course>7.92</course>
  <speed>0.2</speed>
  <fix>3d</fix>
</trkpt>
<trkpt lat="-27.2721918" lon="151.2900645">
  <ele>446.05</ele>
  <time>2026-09-01T19:59:20Z</time>
  <course>10.42</course>
  <speed>0.280713376952364</speed>
  <fix>3d</fix>
</trkpt>
<trkpt lat="-27.2721926" lon="151.2900645">
  <ele>445.32</ele>
  <time>2026-09-01T19:59:20Z</time>
  <course>7.92</course>
  <speed>0.2</speed>
  <fix>3d</fix>
</trkpt>
<trkpt lat="-27.2721916" lon="151.2900645">
  <ele>446.32</ele>
  <time>2026-09-01T19:59:20Z</time>
  <course>10.42</course>
  <speed>0.2906888370749727</speed>
  <fix>3d</fix>
</trkpt>
<trkpt lat="-27.2721922" lon="151.2900645">
  <ele>445.86</ele>
  <time>2026-09-01T19:59:20Z</time>
  <course>8.47</course>
  <speed>0.24</speed>
  <fix>3d</fix>
</trkpt>
<trkpt lat="-27.2721913" lon="151.2900645">
  <ele>446.59</ele>
  <time>2026-09-01T19:59:20Z</time>
  <course>10.42</course>
  <speed>0.3014962686336267</speed>
  <fix>3d</fix>
</trkpt>
<trkpt lat="-27.2721922" lon="151.2900645">
  <ele>445.86</ele>
  <time>2026-09-01T19:59:20Z</time>
  <course>8.47</course>
  <speed>0.24</speed>
  <fix>3d</fix>
</trkpt>
<trkpt lat="-27.2721911" lon="151.2900646">
  <ele>446.86</ele>
  <time>2026-09-01T19:59:20Z</time>
  <course>10.41</course>
  <speed>0.3014962686336267</speed>
  <fix>3d</fix>
</trkpt>
<trkpt lat="-27.2721917" lon="151.2900646">
  <ele>446.4</ele>
  <time>2026-09-01T19:59:20Z</time>
  <course>8.82</course>
  <speed>0.27</speed>
  <fix>3d</fix>
</trkpt>
<trkpt lat="-27.2721908" lon="151.2900646">
  <ele>447.12</ele>
  <time>2026-09-01T19:59:20Z</time>
  <course>10.4</course>
  <speed>0.3014962686336267</speed>
  <fix>3d</fix>
</trkpt>
<trkpt lat="-27.2721917" lon="151.2900646">
  <ele>446.4</ele>
  <time>2026-09-01T19:59:20Z</time>
  <course>8.82</course>
  <speed>0.27</speed>
  <fix>3d</fix>
</trkpt>
<trkpt lat="-27.2721906" lon="151.2900647">
  <ele>447.38</ele>
  <time>2026-09-01T19:59:20Z</time>
  <course>10.4</course>
  <speed>0.3014962686336267</speed>
  <fix>3d</fix>
</trkpt>
<trkpt lat="-27.2721912" lon="151.2900646">
  <ele>446.93</ele>
  <time>2026-09-01T19:59:20Z</time>
  <course>9.01</course>
  <speed>0.28</speed>
  <fix>3d</fix>
</trkpt>
<trkpt lat="-27.2721903" lon="151.2900647">
  <ele>447.64</ele>
  <time>2026-09-01T19:59:20Z</time>
  <course>10.39</course>
  <speed>0.291547594742265</speed>
  <fix>3d</fix>
</trkpt>
<trkpt lat="-27.2721912" lon="151.2900646">
  <ele>446.93</ele>
  <time>2026-09-01T19:59:20Z</time>
  <course>9.01</course>
  <speed>0.28</speed>
  <fix>3d</fix>
</trkpt>
<trkpt lat="-27.2721901" lon="151.2900647">
  <ele>447.9</ele>
  <time>2026-09-01T19:59:20Z</time>
  <course>10.39</course>
  <speed>0.280713376952364</speed>
  <fix>3d</fix>
</trkpt>
<trkpt lat="-27.2721907" lon="151.2900647">
  <ele>447.45</ele>
  <time>2026-09-01T19:59:20Z</time>
  <course>9.1</course>
  <speed>0.28</speed>
  <fix>3d</fix>
</trkpt>
<trkpt lat="-27.2721899" lon="151.2900648">
  <ele>448.16</ele>
  <time>2026-09-01T19:59:20Z</time>
  <course>10.4</course>
  <speed>0.2707397274136177</speed>
  <fix>3d</fix>
</trkpt>
<trkpt lat="-27.2721907" lon="151.2900647">
  <ele>447.45</ele>
  <time>2026-09-01T19:59:20Z</time>
  <course>9.1</course>
  <speed>0.28</speed>
  <fix>3d</fix>
</trkpt>
<trkpt lat="-27.2721897" lon="151.2900648">
  <ele>448.41</ele>
  <time>2026-09-01T19:59:20Z</time>
  <course>10.41</course>
  <speed>0.25079872407968906</speed>
  <fix>3d</fix>
</trkpt>
<trkpt lat="-27.2721903" lon="151.2900648">
  <ele>447.96</ele>
  <time>2026-09-01T19:59:20Z</time>
  <course>9.13</course>
  <speed>0.26</speed>
  <fix>3d</fix>
</trkpt>
<trkpt lat="-27.2721894" lon="151.2900648">
  <ele>448.66</ele>
  <time>2026-09-01T19:59:20Z</time>
  <course>10.41</course>
  <speed>0.24083189157584592</speed>
  <fix>3d</fix>
</trkpt>
<trkpt lat="-27.2721903" lon="151.2900648">
  <ele>447.96</ele>
  <time>2026-09-01T19:59:20Z</time>
  <course>9.13</course>
  <speed>0.26</speed>
  <fix>3d</fix>
</trkpt>
<trkpt lat="-27.2721893" lon="151.2900649">
  <ele>448.9</ele>
  <time>2026-09-01T19:59:20Z</time>
  <course>10.42</course>
  <speed>0.22022715545545238</speed>
  <fix>3d</fix>
</trkpt>
<trkpt lat="-27.2721898" lon="151.2900649">
  <ele>448.45</ele>
  <time>2026-09-01T19:59:20Z</time>
  <course>9.15</course>
  <speed>0.24</speed>
  <fix>3d</fix>
</trkpt>
<trkpt lat="-27.2721891" lon="151.2900649">
  <ele>449.14</ele>
  <time>2026-09-01T19:59:20Z</time>
  <course>10.42</course>
  <speed>0.2002498439450079</speed>
  <fix>3d</fix>
</trkpt>
<trkpt lat="-27.2721898" lon="151.2900649">
  <ele>448.45</ele>
  <time>2026-09-01T19:59:20Z</time>
  <course>9.15</course>
  <speed>0.24</speed>
  <fix>3d</fix>
</trkpt>
<trkpt lat="-27.2721889" lon="151.2900649">
  <ele>449.39</ele>
  <time>2026-09-01T19:59:20Z</time>
  <course>10.42</course>
  <speed>0.18027756377319945</speed>
  <fix>3d</fix>
</trkpt>
<trkpt lat="-27.2721894" lon="151.290065">
  <ele>448.94</ele>
  <time>2026-09-01T19:59:20Z</time>
  <course>9.12</course>
  <speed>0.2</speed>
  <fix>3d</fix>
</trkpt>
<trkpt lat="-27.2721888" lon="151.2900649">
  <ele>449.63</ele>
  <time>2026-09-01T19:59:20Z</time>
  <course>10.42</course>
  <speed>0.16031219541881397</speed>
  <fix>3d</fix>
</trkpt>
<trkpt lat="-27.2721894" lon="151.290065">
  <ele>448.94</ele>
  <time>2026-09-01T19:59:20Z</time>
  <course>9.12</course>
  <speed>0.2</speed>
  <fix>3d</fix>
</trkpt>
<trkpt lat="-27.2721887" lon="151.290065">
  <ele>449.87</ele>
  <time>2026-09-01T19:59:20Z</time>
  <course>10.42</course>
  <speed>0.14</speed>
  <fix>3d</fix>
</trkpt>
<trkpt lat="-27.2721891" lon="151.2900651">
  <ele>449.41</ele>
  <time>2026-09-01T19:59:20Z</time>
  <course>9.04</course>
  <speed>0.16</speed>
  <fix>3d</fix>
</trkpt>
<trkpt lat="-27.2721886" lon="151.290065">
  <ele>450.11</ele>
  <time>2026-09-01T19:59:20Z</time>
  <course>10.42</course>
  <speed>0.12</speed>
  <fix>3d</fix>
</trkpt>
<trkpt lat="-27.2721891" lon="151.2900651">
  <ele>449.41</ele>
  <time>2026-09-01T19:59:20Z</time>
  <course>9.04</course>
  <speed>0.16</speed>
  <fix>3d</fix>
</trkpt>
<trkpt lat="-27.2721885" lon="151.290065">
  <ele>450.35</ele>
  <time>2026-09-01T19:59:20Z</time>
  <course>10.42</course>
  <speed>0.1</speed>
  <fix>3d</fix>
</trkpt>
<trkpt lat="-27.2721888" lon="151.2900651">
  <ele>449.89</ele>
  <time>2026-09-01T19:59:20Z</time>
  <course>9.05</course>
  <speed>0.12</speed>
  <fix>3d</fix>
</trkpt>
<trkpt lat="-27.2721884" lon="151.290065">
  <ele>450.59</ele>
  <time>2026-09-01T19:59:20Z</time>
  <course>10.42</course>
  <speed>0.08</speed>
  <fix>3d</fix>
</trkpt>
<trkpt lat="-27.2721888" lon="151.2900651">
  <ele>449.89</ele>
  <time>2026-09-01T19:59:20Z</time>
  <course>9.05</course>
  <speed>0.12</speed>
  <fix>3d</fix>
</trkpt>
<trkpt lat="-27.2721884" lon="151.290065">
  <ele>450.83</ele>
  <time>2026-09-01T19:59:20Z</time>
  <course>10.43</course>
  <speed>0.06</speed>
  <fix>3d</fix>
</trkpt>
<trkpt lat="-27.2721886" lon="151.2900651">
  <ele>450.36</ele>
  <time>2026-09-01T19:59:20Z</time>
  <course>9.1</course>
  <speed>0.08</speed>
  <fix>3d</fix>
</trkpt>
<trkpt lat="-27.2721884" lon="151.290065">
  <ele>451.07</ele>
  <time>2026-09-01T19:59:20Z</time>
  <course>10.43</course>
  <speed>0.04</speed>
  <fix>3d</fix>
</trkpt>
<trkpt lat="-27.2721886" lon="151.2900651">
  <ele>450.36</ele>
  <time>2026-09-01T19:59:20Z</time>
  <course>9.1</course>
  <speed>0.08</speed>
  <fix>3d</fix>
</trkpt>
<trkpt lat="-27.2721883" lon="151.290065">
  <ele>451.32</ele>
  <time>2026-09-01T19:59:20Z</time>
  <course>10.43</course>
  <speed>0.0316227766016838</speed>
  <fix>3d</fix>
</trkpt>
<trkpt lat="-27.2721885" lon="151.2900651">
  <ele>450.84</ele>
  <time>2026-09-01T19:59:20Z</time>
  <course>8.97</course>
  <speed>0.04</speed>
  <fix>3d</fix>
</trkpt>
<trkpt lat="-27.2721883" lon="151.290065">
  <ele>451.56</ele>
  <time>2026-09-01T19:59:20Z</time>
  <course>10.44</course>
  <speed>0.01414213562373095</speed>
  <fix>3d</fix>
</trkpt>
<trkpt lat="-27.2721885" lon="151.2900651">
  <ele>450.84</ele>
  <time>2026-09-01T19:59:20Z</time>
  <course>8.97</course>
  <speed>0.04</speed>
  <fix>3d</fix>
</trkpt>
<trkpt lat="-27.2721883" lon="151.290065">
  <ele>451.8</ele>
  <time>2026-09-01T19:59:20Z</time>
  <course>10.44</course>
  <speed>0.01</speed>
  <fix>3d</fix>
</trkpt>
<trkpt lat="-27.2721885" lon="151.2900651">
  <ele>451.32</ele>
  <time>2026-09-01T19:59:20Z</time>
  <course>7.32</course>
  <speed>0.01</speed>
  <fix>3d</fix>
</trkpt>
<trkpt lat="-27.2721884" lon="151.290065">
  <ele>452.05</ele>
  <time>2026-09-01T19:59:20Z</time>
  <course>10.45</course>
  <speed>0.01414213562373095</speed>
  <fix>3d</fix>
</trkpt>
<trkpt lat="-27.2721885" lon="151.2900651">
  <ele>451.32</ele>
  <time>2026-09-01T19:59:20Z</time>
  <course>7.32</course>
  <speed>0.01</speed>
  <fix>3d</fix>
</trkpt>
<trkpt lat="-27.2721884" lon="151.290065">
  <ele>452.29</ele>
  <time>2026-09-01T19:59:20Z</time>
  <course>10.45</course>
  <speed>0.022360679774997897</speed>
  <fix>3d</fix>
</trkpt>
<trkpt lat="-27.2721885" lon="151.2900651">
  <ele>451.8</ele>
  <time>2026-09-01T19:59:20Z</time>
  <course>190.4</course>
  <speed>0.01</speed>
  <fix>3d</fix>
</trkpt>
<trkpt lat="-27.2721884" lon="151.290065">
  <ele>452.54</ele>
  <time>2026-09-01T19:59:20Z</time>
  <course>10.46</course>
  <speed>0.03605551275463989</speed>
  <fix>3d</fix>
</trkpt>
<trkpt lat="-27.2721885" lon="151.2900651">
  <ele>451.8</ele>
  <time>2026-09-01T19:59:20Z</time>
  <course>190.4</course>
  <speed>0.01</speed>
  <fix>3d</fix>
</trkpt>
<trkpt lat="-27.2721884" lon="151.290065">
  <ele>452.79</ele>
  <time>2026-09-01T19:59:20Z</time>
  <course>10.47</course>
  <speed>0.044721359549995794</speed>
  <fix>3d</fix>
</trkpt>
<trkpt lat="-27.2721885" lon="151.2900651">
  <ele>452.28</ele>
  <time>2026-09-01T19:59:20Z</time>
  <course>189.2</course>
  <speed>0.04</speed>
  <fix>3d</fix>
</trkpt>
<trkpt lat="-27.2721885" lon="151.290065">
  <ele>453.04</ele>
  <time>2026-09-01T19:59:20Z</time>
  <course>10.47</course>
  <speed>0.053851648071345036</speed>
  <fix>3d</fix>
</trkpt>
<trkpt lat="-27.2721885" lon="151.2900651">
  <ele>452.28</ele>
  <time>2026-09-01T19:59:20Z</time>
  <course>189.2</course>
  <speed>0.04</speed>
  <fix>3d</fix>
</trkpt>
<trkpt lat="-27.2721885" lon="151.290065">
  <ele>453.29</ele>
  <time>2026-09-01T19:59:20Z</time>
  <course>10.48</course>
  <speed>0.0632455532033676</speed>
  <fix>3d</fix>
</trkpt>
<trkpt lat="-27.2721885" lon="151.2900651">
  <ele>452.77</ele>
  <time>2026-09-01T19:59:20Z</time>
  <course>188.6</course>
  <speed>0.06</speed>
  <fix>3d</fix>
</trkpt>
<trkpt lat="-27.2721886" lon="151.290065">
  <ele>453.54</ele>
  <time>2026-09-01T19:59:20Z</time>
  <course>10.5</course>
  <speed>0.0632455532033676</speed>
  <fix>3d</fix>
</trkpt>
<trkpt lat="-27.2721885" lon="151.2900651">
  <ele>452.77</ele>
  <time>2026-09-01T19:59:20Z</time>
  <course>188.6</course>
  <speed>0.06</speed>
  <fix>3d</fix>
</trkpt>
<trkpt lat="-27.2721887" lon="151.290065">
  <ele>453.79</ele>
  <time>2026-09-01T19:59:20Z</time>
  <course>10.51</course>
  <speed>0.07280109889280519</speed>
  <fix>3d</fix>
</trkpt>
<trkpt lat="-27.2721887" lon="151.2900651">
  <ele>453.26</ele>
  <time>2026-09-01T19:59:20Z</time>
  <course>188.96</course>
  <speed>0.08</speed>
  <fix>3d</fix>
</trkpt>
<trkpt lat="-27.2721888" lon="151.290065">
  <ele>454.03</ele>
  <time>2026-09-01T19:59:20Z</time>
  <course>10.52</course>
  <speed>0.07615773105863909</speed>
  <fix>3d</fix>
</trkpt>
<trkpt lat="-27.2721887" lon="151.2900651">
  <ele>453.26</ele>
  <time>2026-09-01T19:59:20Z</time>
  <course>188.96</course>
  <speed>0.08</speed>
  <fix>3d</fix>
</trkpt>
<trkpt lat="-27.2721888" lon="151.290065">
  <ele>454.28</ele>
  <time>2026-09-01T19:59:20Z</time>
  <course>10.52</course>
  <speed>0.0854400374531753</speed>
  <fix>3d</fix>
</trkpt>
<trkpt lat="-27.2721888" lon="151.2900651">
  <ele>453.76</ele>
  <time>2026-09-01T19:59:20Z</time>
  <course>189.58</course>
  <speed>0.09</speed>
  <fix>3d</fix>
</trkpt>
<trkpt lat="-27.2721889" lon="151.2900649">
  <ele>454.53</ele>
  <time>2026-09-01T19:59:20Z</time>
  <course>10.51</course>
  <speed>0.0854400374531753</speed>
  <fix>3d</fix>
</trkpt>
<trkpt lat="-27.2721888" lon="151.2900651">
  <ele>453.76</ele>
  <time>2026-09-01T19:59:20Z</time>
  <course>189.58</course>
  <speed>0.09</speed>
  <fix>3d</fix>
</trkpt>
<trkpt lat="-27.272189" lon="151.2900649">
  <ele>454.78</ele>
  <time>2026-09-01T19:59:20Z</time>
  <course>10.52</course>
  <speed>0.09486832980505139</speed>
  <fix>3d</fix>
</trkpt>
<trkpt lat="-27.272189" lon="151.2900651">
  <ele>454.26</ele>
  <time>2026-09-01T19:59:20Z</time>
  <course>189.45</course>
  <speed>0.1</speed>
  <fix>3d</fix>
</trkpt>
<trkpt lat="-27.2721891" lon="151.2900649">
  <ele>455.03</ele>
  <time>2026-09-01T19:59:20Z</time>
  <course>10.54</course>
  <speed>0.09486832980505139</speed>
  <fix>3d</fix>
</trkpt>
<trkpt lat="-27.272189" lon="151.2900651">
  <ele>454.26</ele>
  <time>2026-09-01T19:59:20Z</time>
  <course>189.45</course>
  <speed>0.1</speed>
  <fix>3d</fix>
</trkpt>
<trkpt lat="-27.2721892" lon="151.2900649">
  <ele>455.28</ele>
  <time>2026-09-01T19:59:20Z</time>
  <course>10.55</course>
  <speed>0.1044030650891055</speed>
  <fix>3d</fix>
</trkpt>
<trkpt lat="-27.2721892" lon="151.2900651">
  <ele>454.75</ele>
  <time>2026-09-01T19:59:20Z</time>
  <course>189.63</course>
  <speed>0.11</speed>
  <fix>3d</fix>
</trkpt>
<trkpt lat="-27.2721893" lon="151.2900649">
  <ele>455.53</ele>
  <time>2026-09-01T19:59:20Z</time>
  <course>10.55</course>
  <speed>0.1044030650891055</speed>
  <fix>3d</fix>
</trkpt>
<trkpt lat="-27.2721892" lon="151.2900651">
  <ele>454.75</ele>
  <time>2026-09-01T19:59:20Z</time>
  <course>189.63</course>
  <speed>0.11</speed>
  <fix>3d</fix>
</trkpt>
<trkpt lat="-27.2721894" lon="151.2900649">
  <ele>455.78</ele>
  <time>2026-09-01T19:59:20Z</time>
  <course>10.55</course>
  <speed>0.1044030650891055</speed>
  <fix>3d</fix>
</trkpt>
<trkpt lat="-27.2721894" lon="151.2900651">
  <ele>455.25</ele>
  <time>2026-09-01T19:59:20Z</time>
  <course>189.93</course>
  <speed>0.12</speed>
  <fix>3d</fix>
</trkpt>
<trkpt lat="-27.2721896" lon="151.2900649">
  <ele>456.03</ele>
  <time>2026-09-01T19:59:20Z</time>
  <course>10.54</course>
  <speed>0.1044030650891055</speed>
  <fix>3d</fix>
</trkpt>
<trkpt lat="-27.2721894" lon="151.2900651">
  <ele>455.25</ele>
  <time>2026-09-01T19:59:20Z</time>
  <course>189.93</course>
  <speed>0.12</speed>
  <fix>3d</fix>
</trkpt>
<trkpt lat="-27.2721897" lon="151.2900648">
  <ele>456.28</ele>
  <time>2026-09-01T19:59:20Z</time>
  <course>10.54</course>
  <speed>0.11401754250991379</speed>
  <fix>3d</fix>
</trkpt>
<trkpt lat="-27.2721897" lon="151.290065">
  <ele>455.75</ele>
  <time>2026-09-01T19:59:20Z</time>
  <course>189.96</course>
  <speed>0.13</speed>
  <fix>3d</fix>
</trkpt>
<trkpt lat="-27.2721898" lon="151.2900648">
  <ele>456.53</ele>
  <time>2026-09-01T19:59:20Z</time>
  <course>10.53</course>
  <speed>0.11401754250991379</speed>
  <fix>3d</fix>
</trkpt>
<trkpt lat="-27.2721897" lon="151.290065">
  <ele>455.75</ele>
  <time>2026-09-01T19:59:20Z</time>
  <course>189.96</course>
  <speed>0.13</speed>
  <fix>3d</fix>
</trkpt>
<trkpt lat="-27.2721899" lon="151.2900648">
  <ele>456.79</ele>
  <time>2026-09-01T19:59:20Z</time>
  <course>10.52</course>
  <speed>0.11401754250991379</speed>
  <fix>3d</fix>
</trkpt>
<trkpt lat="-27.2721899" lon="151.290065">
  <ele>456.25</ele>
  <time>2026-09-01T19:59:20Z</time>
  <course>190.15</course>
  <speed>0.13</speed>
  <fix>3d</fix>
</trkpt>
<trkpt lat="-27.27219" lon="151.2900648">
  <ele>457.04</ele>
  <time>2026-09-01T19:59:20Z</time>
  <course>10.52</course>
  <speed>0.11401754250991379</speed>
  <fix>3d</fix>
</trkpt>
<trkpt lat="-27.2721899" lon="151.290065">
  <ele>456.25</ele>
  <time>2026-09-01T19:59:20Z</time>
  <course>190.15</course>
  <speed>0.13</speed>
  <fix>3d</fix>
</trkpt>
<trkpt lat="-27.2721902" lon="151.2900648">
  <ele>457.29</ele>
  <time>2026-09-01T19:59:20Z</time>
  <course>10.51</course>
  <speed>0.11401754250991379</speed>
  <fix>3d</fix>
</trkpt>
<trkpt lat="-27.2721902" lon="151.2900649">
  <ele>456.75</ele>
  <time>2026-09-01T19:59:20Z</time>
  <course>190.36</course>
  <speed>0.14</speed>
  <fix>3d</fix>
</trkpt>
<trkpt lat="-27.2721903" lon="151.2900647">
  <ele>457.54</ele>
  <time>2026-09-01T19:59:20Z</time>
  <course>10.5</course>
  <speed>0.11401754250991379</speed>
  <fix>3d</fix>
</trkpt>
<trkpt lat="-27.2721902" lon="151.2900649">
  <ele>456.75</ele>
  <time>2026-09-01T19:59:20Z</time>
  <course>190.36</course>
  <speed>0.14</speed>
  <fix>3d</fix>
</trkpt>
<trkpt lat="-27.2721904" lon="151.2900647">
  <ele>457.79</ele>
  <time>2026-09-01T19:59:20Z</time>
  <course>10.49</course>
  <speed>0.11401754250991379</speed>
  <fix>3d</fix>
</trkpt>
<trkpt lat="-27.2721904" lon="151.2900649">
  <ele>457.24</ele>
  <time>2026-09-01T19:59:20Z</time>
  <course>190.19</course>
  <speed>0.14</speed>
  <fix>3d</fix>
</trkpt>
<trkpt lat="-27.2721905" lon="151.2900647">
  <ele>458.05</ele>
  <time>2026-09-01T19:59:20Z</time>
  <course>10.49</course>
  <speed>0.11401754250991379</speed>
  <fix>3d</fix>
</trkpt>
<trkpt lat="-27.2721904" lon="151.2900649">
  <ele>457.24</ele>
  <time>2026-09-01T19:59:20Z</time>
  <course>190.19</course>
  <speed>0.14</speed>
  <fix>3d</fix>
</trkpt>
<trkpt lat="-27.2721906" lon="151.2900647">
  <ele>458.3</ele>
  <time>2026-09-01T19:59:20Z</time>
  <course>10.5</course>
  <speed>0.1044030650891055</speed>
  <fix>3d</fix>
</trkpt>
<trkpt lat="-27.2721906" lon="151.2900648">
  <ele>457.74</ele>
  <time>2026-09-01T19:59:20Z</time>
  <course>189.97</course>
  <speed>0.14</speed>
  <fix>3d</fix>
</trkpt>
<trkpt lat="-27.2721908" lon="151.2900647">
  <ele>458.55</ele>
  <time>2026-09-01T19:59:20Z</time>
  <course>10.52</course>
  <speed>0.1044030650891055</speed>
  <fix>3d</fix>
</trkpt>
<trkpt lat="-27.2721906" lon="151.2900648">
  <ele>457.74</ele>
  <time>2026-09-01T19:59:20Z</time>
  <course>189.97</course>
  <speed>0.14</speed>
  <fix>3d</fix>
</trkpt>
<trkpt lat="-27.2721909" lon="151.2900647">
  <ele>458.8</ele>
  <time>2026-09-01T19:59:20Z</time>
  <course>10.53</course>
  <speed>0.1044030650891055</speed>
  <fix>3d</fix>
</trkpt>
<trkpt lat="-27.2721909" lon="151.2900647">
  <ele>458.24</ele>
  <time>2026-09-01T19:59:20Z</time>
  <course>190.18</course>
  <speed>0.13</speed>
  <fix>3d</fix>
</trkpt>
<trkpt lat="-27.272191" lon="151.2900646">
  <ele>459.05</ele>
  <time>2026-09-01T19:59:20Z</time>
  <course>10.52</course>
  <speed>0.1044030650891055</speed>
  <fix>3d</fix>
</trkpt>
<trkpt lat="-27.2721909" lon="151.2900647">
  <ele>458.24</ele>
  <time>2026-09-01T19:59:20Z</time>
  <course>190.18</course>
  <speed>0.13</speed>
  <fix>3d</fix>
</trkpt>
<trkpt lat="-27.2721911" lon="151.2900646">
  <ele>459.3</ele>
  <time>2026-09-01T19:59:20Z</time>
  <course>10.52</course>
  <speed>0.1044030650891055</speed>
  <fix>3d</fix>
</trkpt>
<trkpt lat="-27.2721912" lon="151.2900647">
  <ele>458.74</ele>
  <time>2026-09-01T19:59:20Z</time>
  <course>190.19</course>
  <speed>0.13</speed>
  <fix>3d</fix>
</trkpt>
<trkpt lat="-27.2721912" lon="151.2900646">
  <ele>459.54</ele>
  <time>2026-09-01T19:59:20Z</time>
  <course>10.52</course>
  <speed>0.1044030650891055</speed>
  <fix>3d</fix>
</trkpt>
<trkpt lat="-27.2721912" lon="151.2900647">
  <ele>458.74</ele>
  <time>2026-09-01T19:59:20Z</time>
  <course>190.19</course>
  <speed>0.13</speed>
  <fix>3d</fix>
</trkpt>
<trkpt lat="-27.2721913" lon="151.2900646">
  <ele>459.79</ele>
  <time>2026-09-01T19:59:20Z</time>
  <course>10.52</course>
  <speed>0.1044030650891055</speed>
  <fix>3d</fix>
</trkpt>
<trkpt lat="-27.2721913" lon="151.2900646">
  <ele>459.23</ele>
  <time>2026-09-01T19:59:20Z</time>
  <course>190.13</course>
  <speed>0.13</speed>
  <fix>3d</fix>
</trkpt>
<trkpt lat="-27.2721914" lon="151.2900645">
  <ele>460.04</ele>
  <time>2026-09-01T19:59:20Z</time>
  <course>10.51</course>
  <speed>0.09486832980505139</speed>
  <fix>3d</fix>
</trkpt>
<trkpt lat="-27.2721913" lon="151.2900646">
  <ele>459.23</ele>
  <time>2026-09-01T19:59:20Z</time>
  <course>190.13</course>
  <speed>0.13</speed>
  <fix>3d</fix>
</trkpt>
<trkpt lat="-27.2721916" lon="151.2900645">
  <ele>460.29</ele>
  <time>2026-09-01T19:59:20Z</time>
  <course>10.49</course>
  <speed>0.09486832980505139</speed>
  <fix>3d</fix>
</trkpt>
<trkpt lat="-27.2721916" lon="151.2900646">
  <ele>459.72</ele>
  <time>2026-09-01T19:59:20Z</time>
  <course>190.01</course>
  <speed>0.13</speed>
  <fix>3d</fix>
</trkpt>
<trkpt lat="-27.2721917" lon="151.2900645">
  <ele>460.54</ele>
  <time>2026-09-01T19:59:20Z</time>
  <course>10.49</course>
  <speed>0.09486832980505139</speed>
  <fix>3d</fix>
</trkpt>
<trkpt lat="-27.2721916" lon="151.2900646">
  <ele>459.72</ele>
  <time>2026-09-01T19:59:20Z</time>
  <course>190.01</course>
  <speed>0.13</speed>
  <fix>3d</fix>
</trkpt>
<trkpt lat="-27.2721918" lon="151.2900645">
  <ele>460.79</ele>
  <time>2026-09-01T19:59:20Z</time>
  <course>10.5</course>
  <speed>0.09486832980505139</speed>
  <fix>3d</fix>
</trkpt>
<trkpt lat="-27.2721919" lon="151.2900646">
  <ele>460.22</ele>
  <time>2026-09-01T19:59:20Z</time>
  <course>189.8</course>
  <speed>0.12</speed>
  <fix>3d</fix>
</trkpt>
<trkpt lat="-27.2721919" lon="151.2900644">
  <ele>461.04</ele>
  <time>2026-09-01T19:59:20Z</time>
  <course>10.51</course>
  <speed>0.09486832980505139</speed>
  <fix>3d</fix>
</trkpt>
<trkpt lat="-27.2721919" lon="151.2900646">
  <ele>460.22</ele>
  <time>2026-09-01T19:59:20Z</time>
  <course>189.8</course>
  <speed>0.12</speed>
  <fix>3d</fix>
</trkpt>
<trkpt lat="-27.272192" lon="151.2900644">
  <ele>461.28</ele>
  <time>2026-09-01T19:59:20Z</time>
  <course>10.51</course>
  <speed>0.0854400374531753</speed>
  <fix>3d</fix>
</trkpt>
<trkpt lat="-27.2721921" lon="151.2900645">
  <ele>460.71</ele>
  <time>2026-09-01T19:59:20Z</time>
  <course>189.9</course>
  <speed>0.12</speed>
  <fix>3d</fix>
</trkpt>
<trkpt lat="-27.2721921" lon="151.2900644">
  <ele>461.53</ele>
  <time>2026-09-01T19:59:20Z</time>
  <course>10.5</course>
  <speed>0.0854400374531753</speed>
  <fix>3d</fix>
</trkpt>
<trkpt lat="-27.2721921" lon="151.2900645">
  <ele>460.71</ele>
  <time>2026-09-01T19:59:20Z</time>
  <course>189.9</course>
  <speed>0.12</speed>
  <fix>3d</fix>
</trkpt>
<trkpt lat="-27.2721922" lon="151.2900644">
  <ele>461.78</ele>
  <time>2026-09-01T19:59:20Z</time>
  <course>10.48</course>
  <speed>0.0854400374531753</speed>
  <fix>3d</fix>
</trkpt>
<trkpt lat="-27.2721923" lon="151.2900645">
  <ele>461.21</ele>
  <time>2026-09-01T19:59:20Z</time>
  <course>189.93</course>
  <speed>0.11</speed>
  <fix>3d</fix>
</trkpt>
<trkpt lat="-27.2721923" lon="151.2900644">
  <ele>462.02</ele>
  <time>2026-09-01T19:59:20Z</time>
  <course>10.46</course>
  <speed>0.07280109889280519</speed>
  <fix>3d</fix>
</trkpt>
<trkpt lat="-27.2721923" lon="151.2900645">
  <ele>461.21</ele>
  <time>2026-09-01T19:59:20Z</time>
  <course>189.93</course>
  <speed>0.11</speed>
  <fix>3d</fix>
</trkpt>
<trkpt lat="-27.2721924" lon="151.2900644">
  <ele>462.27</ele>
  <time>2026-09-01T19:59:20Z</time>
  <course>10.45</course>
  <speed>0.07280109889280519</speed>
  <fix>3d</fix>
</trkpt>
<trkpt lat="-27.2721925" lon="151.2900645">
  <ele>461.71</ele>
  <time>2026-09-01T19:59:20Z</time>
  <course>189.52</course>
  <speed>0.11</speed>
  <fix>3d</fix>
</trkpt>
<trkpt lat="-27.2721925" lon="151.2900643">
  <ele>462.52</ele>
  <time>2026-09-01T19:59:20Z</time>
  <course>10.45</course>
  <speed>0.07280109889280519</speed>
  <fix>3d</fix>
</trkpt>
<trkpt lat="-27.2721925" lon="151.2900645">
  <ele>461.71</ele>
  <time>2026-09-01T19:59:20Z</time>
  <course>189.52</course>
  <speed>0.11</speed>
  <fix>3d</fix>
</trkpt>
<trkpt lat="-27.2721926" lon="151.2900643">
  <ele>462.77</ele>
  <time>2026-09-01T19:59:20Z</time>
  <course>10.46</course>
  <speed>0.0632455532033676</speed>
  <fix>3d</fix>
</trkpt>
<trkpt lat="-27.2721927" lon="151.2900644">
  <ele>462.21</ele>
  <time>2026-09-01T19:59:20Z</time>
  <course>188.84</course>
  <speed>0.1</speed>
  <fix>3d</fix>
</trkpt>
<trkpt lat="-27.2721926" lon="151.2900643">
  <ele>463.02</ele>
  <time>2026-09-01T19:59:20Z</time>
  <course>10.49</course>
  <speed>0.0632455532033676</speed>
  <fix>3d</fix>
</trkpt>
<trkpt lat="-27.2721927" lon="151.2900644">
  <ele>462.21</ele>
  <time>2026-09-01T19:59:20Z</time>
  <course>188.84</course>
  <speed>0.1</speed>
  <fix>3d</fix>
</trkpt>
<trkpt lat="-27.2721927" lon="151.2900643">
  <ele>463.27</ele>
  <time>2026-09-01T19:59:20Z</time>
  <course>10.51</course>
  <speed>0.053851648071345036</speed>
  <fix>3d</fix>
</trkpt>
<trkpt lat="-27.2721929" lon="151.2900644">
  <ele>462.71</ele>
  <time>2026-09-01T19:59:20Z</time>
  <course>188.81</course>
  <speed>0.09</speed>
  <fix>3d</fix>
</trkpt>
<trkpt lat="-27.2721928" lon="151.2900643">
  <ele>463.51</ele>
  <time>2026-09-01T19:59:20Z</time>
  <course>10.52</course>
  <speed>0.053851648071345036</speed>
  <fix>3d</fix>
</trkpt>
<trkpt lat="-27.2721929" lon="151.2900644">
  <ele>462.71</ele>
  <time>2026-09-01T19:59:20Z</time>
  <course>188.81</course>
  <speed>0.09</speed>
  <fix>3d</fix>
</trkpt>
<trkpt lat="-27.2721929" lon="151.2900643">
  <ele>463.77</ele>
  <time>2026-09-01T19:59:20Z</time>
  <course>10.51</course>
  <speed>0.053851648071345036</speed>
  <fix>3d</fix>
</trkpt>
<trkpt lat="-27.272193" lon="151.2900644">
  <ele>463.21</ele>
  <time>2026-09-01T19:59:20Z</time>
  <course>189.02</course>
  <speed>0.08</speed>
  <fix>3d</fix>
</trkpt>
<trkpt lat="-27.2721929" lon="151.2900643">
  <ele>464.02</ele>
  <time>2026-09-01T19:59:20Z</time>
  <course>10.5</course>
  <speed>0.044721359549995794</speed>
  <fix>3d</fix>
</trkpt>
<trkpt lat="-27.272193" lon="151.2900644">
  <ele>463.21</ele>
  <time>2026-09-01T19:59:20Z</time>
  <course>189.02</course>
  <speed>0.08</speed>
  <fix>3d</fix>
</trkpt>
<trkpt lat="-27.272193" lon="151.2900643">
  <ele>464.27</ele>
  <time>2026-09-01T19:59:20Z</time>
  <course>10.49</course>
  <speed>0.0412310562561766</speed>
  <fix>3d</fix>
</trkpt>
<trkpt lat="-27.2721931" lon="151.2900644">
  <ele>463.71</ele>
  <time>2026-09-01T19:59:20Z</time>
  <course>188.26</course>
  <speed>0.07</speed>
  <fix>3d</fix>
</trkpt>
<trkpt lat="-27.2721931" lon="151.2900643">
  <ele>464.52</ele>
  <time>2026-09-01T19:59:20Z</time>
  <course>10.48</course>
  <speed>0.0316227766016838</speed>
  <fix>3d</fix>
</trkpt>
<trkpt lat="-27.2721931" lon="151.2900644">
  <ele>463.71</ele>
  <time>2026-09-01T19:59:20Z</time>
  <course>188.26</course>
  <speed>0.07</speed>
  <fix>3d</fix>
</trkpt>
<trkpt lat="-27.2721931" lon="151.2900643">
  <ele>464.77</ele>
  <time>2026-09-01T19:59:20Z</time>
  <course>10.49</course>
  <speed>0.0316227766016838</speed>
  <fix>3d</fix>
</trkpt>
<trkpt lat="-27.2721933" lon="151.2900643">
  <ele>464.21</ele>
  <time>2026-09-01T19:59:20Z</time>
  <course>187.27</course>
  <speed>0.06</speed>
  <fix>3d</fix>
</trkpt>
<trkpt lat="-27.2721932" lon="151.2900643">
  <ele>465.03</ele>
  <time>2026-09-01T19:59:20Z</time>
  <course>10.5</course>
  <speed>0.022360679774997897</speed>
  <fix>3d</fix>
</trkpt>
<trkpt lat="-27.2721933" lon="151.2900643">
  <ele>464.21</ele>
  <time>2026-09-01T19:59:20Z</time>
  <course>187.27</course>
  <speed>0.06</speed>
  <fix>3d</fix>
</trkpt>
<trkpt lat="-27.2721932" lon="151.2900642">
  <ele>465.29</ele>
  <time>2026-09-01T19:59:20Z</time>
  <course>10.51</course>
  <speed>0.022360679774997897</speed>
  <fix>3d</fix>
</trkpt>
<trkpt lat="-27.2721934" lon="151.2900642">
  <ele>464.71</ele>
  <time>2026-09-01T19:59:20Z</time>
  <course>186.85</course>
  <speed>0.05</speed>
  <fix>3d</fix>
</trkpt>
<trkpt lat="-27.2721933" lon="151.2900642">
  <ele>465.53</ele>
  <time>2026-09-01T19:59:20Z</time>
  <course>10.51</course>
  <speed>0.022360679774997897</speed>
  <fix>3d</fix>
</trkpt>
<trkpt lat="-27.2721934" lon="151.2900642">
  <ele>464.71</ele>
  <time>2026-09-01T19:59:20Z</time>
  <course>186.85</course>
  <speed>0.05</speed>
  <fix>3d</fix>
</trkpt>
<trkpt lat="-27.2721933" lon="151.2900642">
  <ele>465.78</ele>
  <time>2026-09-01T19:59:20Z</time>
  <course>10.5</course>
  <speed>0.01414213562373095</speed>
  <fix>3d</fix>
</trkpt>
<trkpt lat="-27.2721935" lon="151.2900642">
  <ele>465.21</ele>
  <time>2026-09-01T19:59:20Z</time>
  <course>186.19</course>
  <speed>0.05</speed>
  <fix>3d</fix>
</trkpt>
<trkpt lat="-27.2721933" lon="151.2900642">
  <ele>466.03</ele>
  <time>2026-09-01T19:59:20Z</time>
  <course>10.5</course>
  <speed>0.01414213562373095</speed>
  <fix>3d</fix>
</trkpt>
<trkpt lat="-27.2721935" lon="151.2900642">
  <ele>465.21</ele>
  <time>2026-09-01T19:59:20Z</time>
  <course>186.19</course>
  <speed>0.05</speed>
  <fix>3d</fix>
</trkpt>
<trkpt lat="-27.2721934" lon="151.2900642">
  <ele>466.28</ele>
  <time>2026-09-01T19:59:20Z</time>
  <course>10.5</course>
  <speed>0.01414213562373095</speed>
  <fix>3d</fix>
</trkpt>
<trkpt lat="-27.2721936" lon="151.2900642">
  <ele>465.71</ele>
  <time>2026-09-01T19:59:20Z</time>
  <course>184.9</course>
  <speed>0.04</speed>
  <fix>3d</fix>
</trkpt>
<trkpt lat="-27.2721934" lon="151.2900642">
  <ele>466.53</ele>
  <time>2026-09-01T19:59:20Z</time>
  <course>10.5</course>
  <speed>0.01</speed>
  <fix>3d</fix>
</trkpt>
<trkpt lat="-27.2721936" lon="151.2900642">
  <ele>465.71</ele>
  <time>2026-09-01T19:59:20Z</time>
  <course>184.9</course>
  <speed>0.04</speed>
  <fix>3d</fix>
</trkpt>
<trkpt lat="-27.2721935" lon="151.2900642">
  <ele>466.77</ele>
  <time>2026-09-01T19:59:20Z</time>
  <course>10.5</course>
  <speed>0.01</speed>
  <fix>3d</fix>
</trkpt>
<trkpt lat="-27.2721937" lon="151.2900642">
  <ele>466.21</ele>
  <time>2026-09-01T19:59:20Z</time>
  <course>183.55</course>
  <speed>0.03</speed>
  <fix>3d</fix>
</trkpt>
<trkpt lat="-27.2721935" lon="151.2900642">
  <ele>467.02</ele>
  <time>2026-09-01T19:59:20Z</time>
  <course>10.5</course>
  <speed>0.01</speed>
  <fix>3d</fix>
</trkpt>
<trkpt lat="-27.2721937" lon="151.2900642">
  <ele>466.21</ele>
  <time>2026-09-01T19:59:20Z</time>
  <course>183.55</course>
  <speed>0.03</speed>
  <fix>3d</fix>
</trkpt>
<trkpt lat="-27.2721935" lon="151.2900642">
  <ele>467.27</ele>
  <time>2026-09-01T19:59:20Z</time>
  <course>10.5</course>
  <speed>0.01</speed>
  <fix>3d</fix>
</trkpt>
<trkpt lat="-27.2721937" lon="151.2900642">
  <ele>466.72</ele>
  <time>2026-09-01T19:59:20Z</time>
  <course>181.65</course>
  <speed>0.03</speed>
  <fix>3d</fix>
</trkpt>
<trkpt lat="-27.2721935" lon="151.2900642">
  <ele>467.52</ele>
  <time>2026-09-01T19:59:20Z</time>
  <course>10.5</course>
  <speed>0.01</speed>
  <fix>3d</fix>
</trkpt>
<trkpt lat="-27.2721937" lon="151.2900642">
  <ele>466.72</ele>
  <time>2026-09-01T19:59:20Z</time>
  <course>181.65</course>
  <speed>0.03</speed>
  <fix>3d</fix>
</trkpt>
<trkpt lat="-27.2721936" lon="151.2900642">
  <ele>467.77</ele>
  <time>2026-09-01T19:59:20Z</time>
  <course>10.5</course>
  <speed>0.01</speed>
  <fix>3d</fix>
</trkpt>
<trkpt lat="-27.2721938" lon="151.2900642">
  <ele>467.22</ele>
  <time>2026-09-01T19:59:20Z</time>
  <course>179.56</course>
  <speed>0.02</speed>
  <fix>3d</fix>
</trkpt>
<trkpt lat="-27.2721936" lon="151.2900642">
  <ele>468.02</ele>
  <time>2026-09-01T19:59:20Z</time>
  <course>10.49</course>
  <speed>0.01</speed>
  <fix>3d</fix>
</trkpt>
<trkpt lat="-27.2721938" lon="151.2900642">
  <ele>467.22</ele>
  <time>2026-09-01T19:59:20Z</time>
  <course>179.56</course>
  <speed>0.02</speed>
  <fix>3d</fix>
</trkpt>
<trkpt lat="-27.2721936" lon="151.2900642">
  <ele>468.27</ele>
  <time>2026-09-01T19:59:20Z</time>
  <course>10.48</course>
  <speed>0.01</speed>
  <fix>3d</fix>
</trkpt>
<trkpt lat="-27.2721938" lon="151.2900642">
  <ele>467.72</ele>
  <time>2026-09-01T19:59:20Z</time>
  <course>176.93</course>
  <speed>0.02</speed>
  <fix>3d</fix>
</trkpt>
<trkpt lat="-27.2721936" lon="151.2900642">
  <ele>468.52</ele>
  <time>2026-09-01T19:59:20Z</time>
  <course>10.48</course>
  <speed>0.01</speed>
  <fix>3d</fix>
</trkpt>
<trkpt lat="-27.2721938" lon="151.2900642">
  <ele>467.72</ele>
  <time>2026-09-01T19:59:20Z</time>
  <course>176.93</course>
  <speed>0.02</speed>
  <fix>3d</fix>
</trkpt>
<trkpt lat="-27.2721936" lon="151.2900642">
  <ele>468.77</ele>
  <time>2026-09-01T19:59:20Z</time>
  <course>10.49</course>
  <speed>0.01</speed>
  <fix>3d</fix>
</trkpt>
<trkpt lat="-27.2721939" lon="151.2900642">
  <ele>468.22</ele>
  <time>2026-09-01T19:59:20Z</time>
  <course>174.2</course>
  <speed>0.02</speed>
  <fix>3d</fix>
</trkpt>
<trkpt lat="-27.2721936" lon="151.2900642">
  <ele>469.03</ele>
  <time>2026-09-01T19:59:20Z</time>
  <course>10.49</course>
  <speed>0.01</speed>
  <fix>3d</fix>
</trkpt>
<trkpt lat="-27.2721939" lon="151.2900642">
  <ele>468.22</ele>
  <time>2026-09-01T19:59:20Z</time>
  <course>174.2</course>
  <speed>0.02</speed>
  <fix>3d</fix>
</trkpt>
<trkpt lat="-27.2721937" lon="151.2900642">
  <ele>469.28</ele>
  <time>2026-09-01T19:59:20Z</time>
  <course>10.49</course>
  <speed>0.01414213562373095</speed>
  <fix>3d</fix>
</trkpt>
<trkpt lat="-27.2721939" lon="151.2900642">
  <ele>468.72</ele>
  <time>2026-09-01T19:59:20Z</time>
  <course>170.1</course>
  <speed>0.01</speed>
  <fix>3d</fix>
</trkpt>
<trkpt lat="-27.2721937" lon="151.2900642">
  <ele>469.53</ele>
  <time>2026-09-01T19:59:20Z</time>
  <course>10.49</course>
  <speed>0.01414213562373095</speed>
  <fix>3d</fix>
</trkpt>
<trkpt lat="-27.2721939" lon="151.2900642">
  <ele>468.72</ele>
  <time>2026-09-01T19:59:20Z</time>
  <course>170.1</course>
  <speed>0.01</speed>
  <fix>3d</fix>
</trkpt>
<trkpt lat="-27.2721937" lon="151.2900642">
  <ele>469.78</ele>
  <time>2026-09-01T19:59:20Z</time>
  <course>10.49</course>
  <speed>0.01414213562373095</speed>
  <fix>3d</fix>
</trkpt>
<trkpt lat="-27.2721939" lon="151.2900642">
  <ele>469.22</ele>
  <time>2026-09-01T19:59:20Z</time>
  <course>160.12</course>
  <speed>0.01</speed>
  <fix>3d</fix>
</trkpt>
<trkpt lat="-27.2721937" lon="151.2900642">
  <ele>470.03</ele>
  <time>2026-09-01T19:59:20Z</time>
  <course>10.5</course>
  <speed>0.01414213562373095</speed>
  <fix>3d</fix>
</trkpt>
<trkpt lat="-27.2721939" lon="151.2900642">
  <ele>469.22</ele>
  <time>2026-09-01T19:59:20Z</time>
  <course>160.12</course>
  <speed>0.01</speed>
  <fix>3d</fix>
</trkpt>
<trkpt lat="-27.2721937" lon="151.2900642">
  <ele>470.29</ele>
  <time>2026-09-01T19:59:20Z</time>
  <course>10.5</course>
  <speed>0.01414213562373095</speed>
  <fix>3d</fix>
</trkpt>
<trkpt lat="-27.272194" lon="151.2900642">
  <ele>469.72</ele>
  <time>2026-09-01T19:59:20Z</time>
  <course>144.32</course>
  <speed>0.0</speed>
  <fix>3d</fix>
</trkpt>
<trkpt lat="-27.2721937" lon="151.2900642">
  <ele>470.55</ele>
  <time>2026-09-01T19:59:20Z</time>
  <course>10.51</course>
  <speed>0.01414213562373095</speed>
  <fix>3d</fix>
</trkpt>
<trkpt lat="-27.272194" lon="151.2900642">
  <ele>469.72</ele>
  <time>2026-09-01T19:59:20Z</time>
  <course>144.32</course>
  <speed>0.0</speed>
  <fix>3d</fix>
</trkpt>
<trkpt lat="-27.2721937" lon="151.2900642">
  <ele>470.8</ele>
  <time>2026-09-01T19:59:20Z</time>
  <course>10.51</course>
  <speed>0.01414213562373095</speed>
  <fix>3d</fix>
</trkpt>
<trkpt lat="-27.272194" lon="151.2900642">
  <ele>470.22</ele>
  <time>2026-09-01T19:59:20Z</time>
  <course>126.88</course>
  <speed>0.0</speed>
  <fix>3d</fix>
</trkpt>
<trkpt lat="-27.2721937" lon="151.2900642">
  <ele>471.05</ele>
  <time>2026-09-01T19:59:20Z</time>
  <course>10.52</course>
  <speed>0.01</speed>
  <fix>3d</fix>
</trkpt>
<trkpt lat="-27.272194" lon="151.2900642">
  <ele>470.22</ele>
  <time>2026-09-01T19:59:20Z</time>
  <course>126.88</course>
  <speed>0.0</speed>
  <fix>3d</fix>
</trkpt>
<trkpt lat="-27.2721938" lon="151.2900642">
  <ele>471.3</ele>
  <time>2026-09-01T19:59:20Z</time>
  <course>10.51</course>
  <speed>0.02</speed>
  <fix>3d</fix>
</trkpt>
<trkpt lat="-27.272194" lon="151.2900642">
  <ele>470.72</ele>
  <time>2026-09-01T19:59:20Z</time>
  <course>114.52</course>
  <speed>0.0</speed>
  <fix>3d</fix>
</trkpt>
<trkpt lat="-27.2721938" lon="151.2900642">
  <ele>471.55</ele>
  <time>2026-09-01T19:59:20Z</time>
  <course>10.51</course>
  <speed>0.02</speed>
  <fix>3d</fix>
</trkpt>
<trkpt lat="-27.272194" lon="151.2900642">
  <ele>470.72</ele>
  <time>2026-09-01T19:59:20Z</time>
  <course>114.52</course>
  <speed>0.0</speed>
  <fix>3d</fix>
</trkpt>
<trkpt lat="-27.2721938" lon="151.2900642">
  <ele>471.8</ele>
  <time>2026-09-01T19:59:20Z</time>
  <course>10.5</course>
  <speed>0.02</speed>
  <fix>3d</fix>
</trkpt>
<trkpt lat="-27.272194" lon="151.2900642">
  <ele>471.22</ele>
  <time>2026-09-01T19:59:20Z</time>
  <course>99.37</course>
  <speed>0.0</speed>
  <fix>3d</fix>
</trkpt>
<trkpt lat="-27.2721938" lon="151.2900642">
  <ele>472.05</ele>
  <time>2026-09-01T19:59:20Z</time>
  <course>10.5</course>
  <speed>0.02</speed>
  <fix>3d</fix>
</trkpt>
<trkpt lat="-27.272194" lon="151.2900642">
  <ele>471.22</ele>
  <time>2026-09-01T19:59:20Z</time>
  <course>99.37</course>
  <speed>0.0</speed>
  <fix>3d</fix>
</trkpt>
<trkpt lat="-27.2721938" lon="151.2900642">
  <ele>472.3</ele>
  <time>2026-09-01T19:59:20Z</time>
  <course>10.5</course>
  <speed>0.02</speed>
  <fix>3d</fix>
</trkpt>
<trkpt lat="-27.272194" lon="151.2900642">
  <ele>471.72</ele>
  <time>2026-09-01T19:59:20Z</time>
  <course>78.45</course>
  <speed>0.0</speed>
  <fix>3d</fix>
</trkpt>
<trkpt lat="-27.2721938" lon="151.2900642">
  <ele>472.55</ele>
  <time>2026-09-01T19:59:20Z</time>
  <course>10.5</course>
  <speed>0.02</speed>
  <fix>3d</fix>
</trkpt>
<trkpt lat="-27.272194" lon="151.2900642">
  <ele>471.72</ele>
  <time>2026-09-01T19:59:20Z</time>
  <course>78.45</course>
  <speed>0.0</speed>
  <fix>3d</fix>
</trkpt>
<trkpt lat="-27.2721938" lon="151.2900642">
  <ele>472.79</ele>
  <time>2026-09-01T19:59:20Z</time>
  <course>10.5</course>
  <speed>0.02</speed>
  <fix>3d</fix>
</trkpt>
<trkpt lat="-27.272194" lon="151.2900642">
  <ele>472.22</ele>
  <time>2026-09-01T19:59:20Z</time>
  <course>61.63</course>
  <speed>0.0</speed>
  <fix>3d</fix>
</trkpt>
<trkpt lat="-27.2721938" lon="151.2900642">
  <ele>473.04</ele>
  <time>2026-09-01T19:59:20Z</time>
  <course>10.49</course>
  <speed>0.02</speed>
  <fix>3d</fix>
</trkpt>
<trkpt lat="-27.272194" lon="151.2900642">
  <ele>472.22</ele>
  <time>2026-09-01T19:59:20Z</time>
  <course>61.63</course>
  <speed>0.0</speed>
  <fix>3d</fix>
</trkpt>
<trkpt lat="-27.2721938" lon="151.2900642">
  <ele>473.29</ele>
  <time>2026-09-01T19:59:20Z</time>
  <course>10.49</course>
  <speed>0.022360679774997897</speed>
  <fix>3d</fix>
</trkpt>
<trkpt lat="-27.272194" lon="151.2900642">
  <ele>472.71</ele>
  <time>2026-09-01T19:59:20Z</time>
  <course>52.37</course>
  <speed>0.01</speed>
  <fix>3d</fix>
</trkpt>
<trkpt lat="-27.2721938" lon="151.2900642">
  <ele>473.53</ele>
  <time>2026-09-01T19:59:20Z</time>
  <course>10.49</course>
  <speed>0.022360679774997897</speed>
  <fix>3d</fix>
</trkpt>
<trkpt lat="-27.272194" lon="151.2900642">
  <ele>472.71</ele>
  <time>2026-09-01T19:59:20Z</time>
  <course>52.37</course>
  <speed>0.01</speed>
  <fix>3d</fix>
</trkpt>
<trkpt lat="-27.2721938" lon="151.2900642">
  <ele>473.78</ele>
  <time>2026-09-01T19:59:20Z</time>
  <course>10.49</course>
  <speed>0.022360679774997897</speed>
  <fix>3d</fix>
</trkpt>
<trkpt lat="-27.272194" lon="151.2900642">
  <ele>473.21</ele>
  <time>2026-09-01T19:59:20Z</time>
  <course>46.2</course>
  <speed>0.01</speed>
  <fix>3d</fix>
</trkpt>
<trkpt lat="-27.2721938" lon="151.2900642">
  <ele>474.02</ele>
  <time>2026-09-01T19:59:20Z</time>
  <course>10.48</course>
  <speed>0.022360679774997897</speed>
  <fix>3d</fix>
</trkpt>
<trkpt lat="-27.272194" lon="151.2900642">
  <ele>473.21</ele>
  <time>2026-09-01T19:59:20Z</time>
  <course>46.2</course>
  <speed>0.01</speed>
  <fix>3d</fix>
</trkpt>
<trkpt lat="-27.2721938" lon="151.2900642">
  <ele>474.27</ele>
  <time>2026-09-01T19:59:20Z</time>
  <course>10.48</course>
  <speed>0.022360679774997897</speed>
  <fix>3d</fix>
</trkpt>
<trkpt lat="-27.272194" lon="151.2900643">
  <ele>473.71</ele>
  <time>2026-09-01T19:59:20Z</time>
  <course>42.24</course>
  <speed>0.01</speed>
  <fix>3d</fix>
</trkpt>
<trkpt lat="-27.2721938" lon="151.2900642">
  <ele>474.52</ele>
  <time>2026-09-01T19:59:20Z</time>
  <course>10.47</course>
  <speed>0.022360679774997897</speed>
  <fix>3d</fix>
</trkpt>
<trkpt lat="-27.272194" lon="151.2900643">
  <ele>473.71</ele>
  <time>2026-09-01T19:59:20Z</time>
  <course>42.24</course>
  <speed>0.01</speed>
  <fix>3d</fix>
</trkpt>
<trkpt lat="-27.2721938" lon="151.2900642">
  <ele>474.77</ele>
  <time>2026-09-01T19:59:20Z</time>
  <course>10.47</course>
  <speed>0.02</speed>
  <fix>3d</fix>
</trkpt>
<trkpt lat="-27.272194" lon="151.2900644">
  <ele>474.21</ele>
  <time>2026-09-01T19:59:20Z</time>
  <course>41.07</course>
  <speed>0.01</speed>
  <fix>3d</fix>
</trkpt>
<trkpt lat="-27.2721938" lon="151.2900642">
  <ele>475.02</ele>
  <time>2026-09-01T19:59:20Z</time>
  <course>10.47</course>
  <speed>0.03</speed>
  <fix>3d</fix>
</trkpt>
<trkpt lat="-27.272194" lon="151.2900644">
  <ele>474.21</ele>
  <time>2026-09-01T19:59:20Z</time>
  <course>41.07</course>
  <speed>0.01</speed>
  <fix>3d</fix>
</trkpt>
<trkpt lat="-27.2721938" lon="151.2900642">
  <ele>475.27</ele>
  <time>2026-09-01T19:59:20Z</time>
  <course>10.48</course>
  <speed>0.03</speed>
  <fix>3d</fix>
</trkpt>
<trkpt lat="-27.272194" lon="151.2900644">
  <ele>474.71</ele>
  <time>2026-09-01T19:59:20Z</time>
  <course>40.95</course>
  <speed>0.01</speed>
  <fix>3d</fix>
</trkpt>
<trkpt lat="-27.2721938" lon="151.2900642">
  <ele>475.52</ele>
  <time>2026-09-01T19:59:20Z</time>
  <course>10.48</course>
  <speed>0.03</speed>
  <fix>3d</fix>
</trkpt>
<trkpt lat="-27.272194" lon="151.2900644">
  <ele>474.71</ele>
  <time>2026-09-01T19:59:20Z</time>
  <course>40.95</course>
  <speed>0.01</speed>
  <fix>3d</fix>
</trkpt>
<trkpt lat="-27.2721938" lon="151.2900642">
  <ele>475.78</ele>
  <time>2026-09-01T19:59:20Z</time>
  <course>10.48</course>
  <speed>0.03</speed>
  <fix>3d</fix>
</trkpt>
<trkpt lat="-27.272194" lon="151.2900644">
  <ele>475.21</ele>
  <time>2026-09-01T19:59:20Z</time>
  <course>39.86</course>
  <speed>0.01</speed>
  <fix>3d</fix>
</trkpt>
<trkpt lat="-27.2721938" lon="151.2900642">
  <ele>476.03</ele>
  <time>2026-09-01T19:59:20Z</time>
  <course>10.48</course>
  <speed>0.03</speed>
  <fix>3d</fix>
</trkpt>
<trkpt lat="-27.272194" lon="151.2900644">
  <ele>475.21</ele>
  <time>2026-09-01T19:59:20Z</time>
  <course>39.86</course>
  <speed>0.01</speed>
  <fix>3d</fix>
</trkpt>
<trkpt lat="-27.2721938" lon="151.2900642">
  <ele>476.28</ele>
  <time>2026-09-01T19:59:20Z</time>
  <course>10.49</course>
  <speed>0.03</speed>
  <fix>3d</fix>
</trkpt>
<trkpt lat="-27.272194" lon="151.2900644">
  <ele>475.71</ele>
  <time>2026-09-01T19:59:20Z</time>
  <course>36.84</course>
  <speed>0.01</speed>
  <fix>3d</fix>
</trkpt>
<trkpt lat="-27.2721938" lon="151.2900642">
  <ele>476.54</ele>
  <time>2026-09-01T19:59:20Z</time>
  <course>10.48</course>
  <speed>0.03</speed>
  <fix>3d</fix>
</trkpt>
<trkpt lat="-27.272194" lon="151.2900644">
  <ele>475.71</ele>
  <time>2026-09-01T19:59:20Z</time>
  <course>36.84</course>
  <speed>0.01</speed>
  <fix>3d</fix>
</trkpt>
<trkpt lat="-27.2721938" lon="151.2900642">
  <ele>476.79</ele>
  <time>2026-09-01T19:59:20Z</time>
  <course>10.48</course>
  <speed>0.03</speed>
  <fix>3d</fix>
</trkpt>
<trkpt lat="-27.2721939" lon="151.2900644">
  <ele>476.21</ele>
  <time>2026-09-01T19:59:20Z</time>
  <course>33.37</course>
  <speed>0.01</speed>
  <fix>3d</fix>
</trkpt>
<trkpt lat="-27.2721938" lon="151.2900642">
  <ele>477.04</ele>
  <time>2026-09-01T19:59:21Z</time>
  <course>10.47</course>
  <speed>0.03</speed>
  <fix>3d</fix>
</trkpt>
<trkpt lat="-27.2721939" lon="151.2900644">
  <ele>476.21</ele>
  <time>2026-09-01T19:59:21Z</time>
  <course>33.37</course>
  <speed>0.01</speed>
  <fix>3d</fix>
</trkpt>
<trkpt lat="-27.2721937" lon="151.2900642">
  <ele>477.29</ele>
  <time>2026-09-01T19:59:21Z</time>
  <course>10.46</course>
  <speed>0.03</speed>
  <fix>3d</fix>
</trkpt>
<trkpt lat="-27.2721939" lon="151.2900644">
  <ele>476.71</ele>
  <time>2026-09-01T19:59:21Z</time>
  <course>30.47</course>
  <speed>0.01</speed>
  <fix>3d</fix>
</trkpt>
<trkpt lat="-27.2721937" lon="151.2900642">
  <ele>477.54</ele>
  <time>2026-09-01T19:59:21Z</time>
  <course>10.44</course>
  <speed>0.03</speed>
  <fix>3d</fix>
</trkpt>
<trkpt lat="-27.2721939" lon="151.2900644">
  <ele>476.71</ele>
  <time>2026-09-01T19:59:21Z</time>
  <course>30.47</course>
  <speed>0.01</speed>
  <fix>3d</fix>
</trkpt>
<trkpt lat="-27.2721937" lon="151.2900643">
  <ele>477.79</ele>
  <time>2026-09-01T19:59:21Z</time>
  <course>10.43</course>
  <speed>0.03</speed>
  <fix>3d</fix>
</trkpt>
<trkpt lat="-27.2721939" lon="151.2900645">
  <ele>477.21</ele>
  <time>2026-09-01T19:59:21Z</time>
  <course>30.46</course>
  <speed>0.01</speed>
  <fix>3d</fix>
</trkpt>
<trkpt lat="-27.2721937" lon="151.2900643">
  <ele>478.03</ele>
  <time>2026-09-01T19:59:21Z</time>
  <course>10.43</course>
  <speed>0.03</speed>
  <fix>3d</fix>
</trkpt>
<trkpt lat="-27.2721939" lon="151.2900645">
  <ele>477.21</ele>
  <time>2026-09-01T19:59:21Z</time>
  <course>30.46</course>
  <speed>0.01</speed>
  <fix>3d</fix>
</trkpt>
<trkpt lat="-27.2721937" lon="151.2900643">
  <ele>478.28</ele>
  <time>2026-09-01T19:59:21Z</time>
  <course>10.44</course>
  <speed>0.02</speed>
  <fix>3d</fix>
</trkpt>
<trkpt lat="-27.2721939" lon="151.2900645">
  <ele>477.71</ele>
  <time>2026-09-01T19:59:21Z</time>
  <course>33.5</course>
  <speed>0.01</speed>
  <fix>3d</fix>
</trkpt>
<trkpt lat="-27.2721937" lon="151.2900643">
  <ele>478.54</ele>
  <time>2026-09-01T19:59:21Z</time>
  <course>10.45</course>
  <speed>0.02</speed>
  <fix>3d</fix>
</trkpt>
<trkpt lat="-27.2721939" lon="151.2900645">
  <ele>477.71</ele>
  <time>2026-09-01T19:59:21Z</time>
  <course>33.5</course>
  <speed>0.01</speed>
  <fix>3d</fix>
</trkpt>
<trkpt lat="-27.2721937" lon="151.2900643">
  <ele>478.79</ele>
  <time>2026-09-01T19:59:21Z</time>
  <course>10.47</course>
  <speed>0.03</speed>
  <fix>3d</fix>
</trkpt>
<trkpt lat="-27.2721938" lon="151.2900645">
  <ele>478.21</ele>
  <time>2026-09-01T19:59:21Z</time>
  <course>33.04</course>
  <speed>0.01</speed>
  <fix>3d</fix>
</trkpt>
<trkpt lat="-27.2721937" lon="151.2900643">
  <ele>479.04</ele>
  <time>2026-09-01T19:59:21Z</time>
  <course>10.47</course>
  <speed>0.03</speed>
  <fix>3d</fix>
</trkpt>
<trkpt lat="-27.2721938" lon="151.2900645">
  <ele>478.21</ele>
  <time>2026-09-01T19:59:21Z</time>
  <course>33.04</course>
  <speed>0.01</speed>
  <fix>3d</fix>
</trkpt>
<trkpt lat="-27.2721937" lon="151.2900643">
  <ele>479.29</ele>
  <time>2026-09-01T19:59:21Z</time>
  <course>10.47</course>
  <speed>0.03</speed>
  <fix>3d</fix>
</trkpt>
<trkpt lat="-27.2721938" lon="151.2900645">
  <ele>478.71</ele>
  <time>2026-09-01T19:59:21Z</time>
  <course>26.0</course>
  <speed>0.01</speed>
  <fix>3d</fix>
</trkpt>
<trkpt lat="-27.2721937" lon="151.2900643">
  <ele>479.54</ele>
  <time>2026-09-01T19:59:21Z</time>
  <course>10.45</course>
  <speed>0.0316227766016838</speed>
  <fix>3d</fix>
</trkpt>
<trkpt lat="-27.2721938" lon="151.2900645">
  <ele>478.71</ele>
  <time>2026-09-01T19:59:21Z</time>
  <course>26.0</course>
  <speed>0.01</speed>
  <fix>3d</fix>
</trkpt>
<trkpt lat="-27.2721937" lon="151.2900643">
  <ele>479.79</ele>
  <time>2026-09-01T19:59:21Z</time>
  <course>10.44</course>
  <speed>0.0316227766016838</speed>
  <fix>3d</fix>
</trkpt>
<trkpt lat="-27.2721938" lon="151.2900645">
  <ele>479.21</ele>
  <time>2026-09-01T19:59:21Z</time>
  <course>19.0</course>
  <speed>0.01</speed>
  <fix>3d</fix>
</trkpt>
<trkpt lat="-27.2721936" lon="151.2900643">
  <ele>480.04</ele>
  <time>2026-09-01T19:59:21Z</time>
  <course>10.43</course>
  <speed>0.0316227766016838</speed>
  <fix>3d</fix>
</trkpt>
<trkpt lat="-27.2721938" lon="151.2900645">
  <ele>479.21</ele>
  <time>2026-09-01T19:59:21Z</time>
  <course>19.0</course>
  <speed>0.01</speed>
  <fix>3d</fix>
</trkpt>
<trkpt lat="-27.2721936" lon="151.2900643">
  <ele>480.29</ele>
  <time>2026-09-01T19:59:21Z</time>
  <course>10.4</course>
  <speed>0.0316227766016838</speed>
  <fix>3d</fix>
</trkpt>
<trkpt lat="-27.2721938" lon="151.2900645">
  <ele>479.71</ele>
  <time>2026-09-01T19:59:21Z</time>
  <course>15.04</course>
  <speed>0.01</speed>
  <fix>3d</fix>
</trkpt>
<trkpt lat="-27.2721936" lon="151.2900643">
  <ele>480.54</ele>
  <time>2026-09-01T19:59:21Z</time>
  <course>10.38</course>
  <speed>0.0316227766016838</speed>
  <fix>3d</fix>
</trkpt>
<trkpt lat="-27.2721938" lon="151.2900645">
  <ele>479.71</ele>
  <time>2026-09-01T19:59:21Z</time>
  <course>15.04</course>
  <speed>0.01</speed>
  <fix>3d</fix>
</trkpt>
<trkpt lat="-27.2721936" lon="151.2900643">
  <ele>480.8</ele>
  <time>2026-09-01T19:59:21Z</time>
  <course>10.37</course>
  <speed>0.0316227766016838</speed>
  <fix>3d</fix>
</trkpt>
<trkpt lat="-27.2721937" lon="151.2900645">
  <ele>480.21</ele>
  <time>2026-09-01T19:59:21Z</time>
  <course>14.04</course>
  <speed>0.01</speed>
  <fix>3d</fix>
</trkpt>
<trkpt lat="-27.2721936" lon="151.2900643">
  <ele>481.05</ele>
  <time>2026-09-01T19:59:21Z</time>
  <course>10.37</course>
  <speed>0.0316227766016838</speed>
  <fix>3d</fix>
</trkpt>
<trkpt lat="-27.2721937" lon="151.2900645">
  <ele>480.21</ele>
  <time>2026-09-01T19:59:21Z</time>
  <course>14.04</course>
  <speed>0.01</speed>
  <fix>3d</fix>
</trkpt>
<trkpt lat="-27.2721936" lon="151.2900644">
  <ele>481.3</ele>
  <time>2026-09-01T19:59:21Z</time>
  <course>10.36</course>
  <speed>0.0316227766016838</speed>
  <fix>3d</fix>
</trkpt>
<trkpt lat="-27.2721937" lon="151.2900645">
  <ele>480.71</ele>
  <time>2026-09-01T19:59:21Z</time>
  <course>13.04</course>
  <speed>0.01</speed>
  <fix>3d</fix>
</trkpt>
<trkpt lat="-27.2721936" lon="151.2900644">
  <ele>481.55</ele>
  <time>2026-09-01T19:59:21Z</time>
  <course>10.36</course>
  <speed>0.0316227766016838</speed>
  <fix>3d</fix>
</trkpt>
<trkpt lat="-27.2721937" lon="151.2900645">
  <ele>480.71</ele>
  <time>2026-09-01T19:59:21Z</time>
  <course>13.04</course>
  <speed>0.01</speed>
  <fix>3d</fix>
</trkpt>
<trkpt lat="-27.2721936" lon="151.2900644">
  <ele>481.8</ele>
  <time>2026-09-01T19:59:21Z</time>
  <course>10.36</course>
  <speed>0.022360679774997897</speed>
  <fix>3d</fix>
</trkpt>
<trkpt lat="-27.2721937" lon="151.2900645">
  <ele>481.21</ele>
  <time>2026-09-01T19:59:21Z</time>
  <course>10.04</course>
  <speed>0.01</speed>
  <fix>3d</fix>
</trkpt>
<trkpt lat="-27.2721936" lon="151.2900644">
  <ele>482.05</ele>
  <time>2026-09-01T19:59:21Z</time>
  <course>10.36</course>
  <speed>0.022360679774997897</speed>
  <fix>3d</fix>
</trkpt>
<trkpt lat="-27.2721937" lon="151.2900645">
  <ele>481.21</ele>
  <time>2026-09-01T19:59:21Z</time>
  <course>10.04</course>
  <speed>0.01</speed>
  <fix>3d</fix>
</trkpt>
<trkpt lat="-27.2721936" lon="151.2900644">
  <ele>482.3</ele>
  <time>2026-09-01T19:59:21Z</time>
  <course>10.36</course>
  <speed>0.022360679774997897</speed>
  <fix>3d</fix>
</trkpt>
<trkpt lat="-27.2721937" lon="151.2900645">
  <ele>481.71</ele>
  <time>2026-09-01T19:59:21Z</time>
  <course>5.9</course>
  <speed>0.0</speed>
  <fix>3d</fix>
</trkpt>
<trkpt lat="-27.2721936" lon="151.2900644">
  <ele>482.55</ele>
  <time>2026-09-01T19:59:21Z</time>
  <course>10.36</course>
  <speed>0.022360679774997897</speed>
  <fix>3d</fix>
</trkpt>
<trkpt lat="-27.2721937" lon="151.2900645">
  <ele>481.71</ele>
  <time>2026-09-01T19:59:21Z</time>
  <course>5.9</course>
  <speed>0.0</speed>
  <fix>3d</fix>
</trkpt>
<trkpt lat="-27.2721936" lon="151.2900644">
  <ele>482.8</ele>
  <time>2026-09-01T19:59:21Z</time>
  <course>10.36</course>
  <speed>0.022360679774997897</speed>
  <fix>3d</fix>
</trkpt>
<trkpt lat="-27.2721937" lon="151.2900645">
  <ele>482.2</ele>
  <time>2026-09-01T19:59:21Z</time>
  <course>355.68</course>
  <speed>0.0</speed>
  <fix>3d</fix>
</trkpt>
<trkpt lat="-27.2721936" lon="151.2900644">
  <ele>483.05</ele>
  <time>2026-09-01T19:59:21Z</time>
  <course>10.35</course>
  <speed>0.022360679774997897</speed>
  <fix>3d</fix>
</trkpt>
<trkpt lat="-27.2721937" lon="151.2900645">
  <ele>482.2</ele>
  <time>2026-09-01T19:59:21Z</time>
  <course>355.68</course>
  <speed>0.0</speed>
  <fix>3d</fix>
</trkpt>
<trkpt lat="-27.2721936" lon="151.2900644">
  <ele>483.3</ele>
  <time>2026-09-01T19:59:21Z</time>
  <course>10.34</course>
  <speed>0.01414213562373095</speed>
  <fix>3d</fix>
</trkpt>
<trkpt lat="-27.2721937" lon="151.2900645">
  <ele>482.7</ele>
  <time>2026-09-01T19:59:21Z</time>
  <course>308.14</course>
  <speed>0.0</speed>
  <fix>3d</fix>
</trkpt>
<trkpt lat="-27.2721936" lon="151.2900644">
  <ele>483.55</ele>
  <time>2026-09-01T19:59:21Z</time>
  <course>10.34</course>
  <speed>0.01414213562373095</speed>
  <fix>3d</fix>
</trkpt>
<trkpt lat="-27.2721937" lon="151.2900645">
  <ele>482.7</ele>
  <time>2026-09-01T19:59:21Z</time>
  <course>308.14</course>
  <speed>0.0</speed>
  <fix>3d</fix>
</trkpt>
<trkpt lat="-27.2721936" lon="151.2900644">
  <ele>483.8</ele>
  <time>2026-09-01T19:59:21Z</time>
  <course>10.35</course>
  <speed>0.01414213562373095</speed>
  <fix>3d</fix>
</trkpt>
<trkpt lat="-27.2721937" lon="151.2900645">
  <ele>483.2</ele>
  <time>2026-09-01T19:59:21Z</time>
  <course>224.18</course>
  <speed>0.0</speed>
  <fix>3d</fix>
</trkpt>
<trkpt lat="-27.2721936" lon="151.2900644">
  <ele>484.05</ele>
  <time>2026-09-01T19:59:21Z</time>
  <course>10.35</course>
  <speed>0.01414213562373095</speed>
  <fix>3d</fix>
</trkpt>
<trkpt lat="-27.2721937" lon="151.2900645">
  <ele>483.2</ele>
  <time>2026-09-01T19:59:21Z</time>
  <course>224.18</course>
  <speed>0.0</speed>
  <fix>3d</fix>
</trkpt>
<trkpt lat="-27.2721936" lon="151.2900644">
  <ele>484.3</ele>
  <time>2026-09-01T19:59:21Z</time>
  <course>10.35</course>
  <speed>0.01414213562373095</speed>
  <fix>3d</fix>
</trkpt>
<trkpt lat="-27.2721937" lon="151.2900645">
  <ele>483.69</ele>
  <time>2026-09-01T19:59:21Z</time>
  <course>216.64</course>
  <speed>0.0</speed>
  <fix>3d</fix>
</trkpt>
<trkpt lat="-27.2721936" lon="151.2900644">
  <ele>484.54</ele>
  <time>2026-09-01T19:59:21Z</time>
  <course>10.35</course>
  <speed>0.01414213562373095</speed>
  <fix>3d</fix>
</trkpt>
<trkpt lat="-27.2721937" lon="151.2900645">
  <ele>483.69</ele>
  <time>2026-09-01T19:59:21Z</time>
  <course>216.64</course>
  <speed>0.0</speed>
  <fix>3d</fix>
</trkpt>
<trkpt lat="-27.2721936" lon="151.2900644">
  <ele>484.79</ele>
  <time>2026-09-01T19:59:21Z</time>
  <course>10.35</course>
  <speed>0.01414213562373095</speed>
  <fix>3d</fix>
</trkpt>
<trkpt lat="-27.2721937" lon="151.2900645">
  <ele>484.19</ele>
  <time>2026-09-01T19:59:21Z</time>
  <course>220.51</course>
  <speed>0.0</speed>
  <fix>3d</fix>
</trkpt>
<trkpt lat="-27.2721936" lon="151.2900644">
  <ele>485.04</ele>
  <time>2026-09-01T19:59:21Z</time>
  <course>10.35</course>
  <speed>0.01414213562373095</speed>
  <fix>3d</fix>
</trkpt>
<trkpt lat="-27.2721937" lon="151.2900645">
  <ele>484.19</ele>
  <time>2026-09-01T19:59:21Z</time>
  <course>220.51</course>
  <speed>0.0</speed>
  <fix>3d</fix>
</trkpt>
<trkpt lat="-27.2721936" lon="151.2900644">
  <ele>485.29</ele>
  <time>2026-09-01T19:59:21Z</time>
  <course>10.36</course>
  <speed>0.022360679774997897</speed>
  <fix>3d</fix>
</trkpt>
<trkpt lat="-27.2721937" lon="151.2900645">
  <ele>484.69</ele>
  <time>2026-09-01T19:59:21Z</time>
  <course>217.51</course>
  <speed>0.0</speed>
  <fix>3d</fix>
</trkpt>
<trkpt lat="-27.2721936" lon="151.2900644">
  <ele>485.53</ele>
  <time>2026-09-01T19:59:21Z</time>
  <course>10.36</course>
  <speed>0.022360679774997897</speed>
  <fix>3d</fix>
</trkpt>
<trkpt lat="-27.2721937" lon="151.2900645">
  <ele>484.69</ele>
  <time>2026-09-01T19:59:21Z</time>
  <course>217.51</course>
  <speed>0.0</speed>
  <fix>3d</fix>
</trkpt>
<trkpt lat="-27.2721936" lon="151.2900644">
  <ele>485.78</ele>
  <time>2026-09-01T19:59:21Z</time>
  <course>10.37</course>
  <speed>0.022360679774997897</speed>
  <fix>3d</fix>
</trkpt>
<trkpt lat="-27.2721937" lon="151.2900645">
  <ele>485.18</ele>
  <time>2026-09-01T19:59:21Z</time>
  <course>231.55</course>
  <speed>0.0</speed>
  <fix>3d</fix>
</trkpt>
<trkpt lat="-27.2721936" lon="151.2900644">
  <ele>486.03</ele>
  <time>2026-09-01T19:59:21Z</time>
  <course>10.37</course>
  <speed>0.022360679774997897</speed>
  <fix>3d</fix>
</trkpt>
<trkpt lat="-27.2721937" lon="151.2900645">
  <ele>485.18</ele>
  <time>2026-09-01T19:59:21Z</time>
  <course>231.55</course>
  <speed>0.0</speed>
  <fix>3d</fix>
</trkpt>
<trkpt lat="-27.2721936" lon="151.2900644">
  <ele>486.28</ele>
  <time>2026-09-01T19:59:21Z</time>
  <course>10.37</course>
  <speed>0.022360679774997897</speed>
  <fix>3d</fix>
</trkpt>
<trkpt lat="-27.2721937" lon="151.2900645">
  <ele>485.68</ele>
  <time>2026-09-01T19:59:21Z</time>
  <course>263.35</course>
  <speed>0.0</speed>
  <fix>3d</fix>
</trkpt>
<trkpt lat="-27.2721936" lon="151.2900644">
  <ele>486.52</ele>
  <time>2026-09-01T19:59:21Z</time>
  <course>10.36</course>
  <speed>0.022360679774997897</speed>
  <fix>3d</fix>
</trkpt>
<trkpt lat="-27.2721937" lon="151.2900645">
  <ele>485.68</ele>
  <time>2026-09-01T19:59:21Z</time>
  <course>263.35</course>
  <speed>0.0</speed>
  <fix>3d</fix>
</trkpt>
<trkpt lat="-27.2721936" lon="151.2900644">
  <ele>486.77</ele>
  <time>2026-09-01T19:59:21Z</time>
  <course>10.35</course>
  <speed>0.022360679774997897</speed>
  <fix>3d</fix>
</trkpt>
<trkpt lat="-27.2721937" lon="151.2900645">
  <ele>486.18</ele>
  <time>2026-09-01T19:59:21Z</time>
  <course>289.51</course>
  <speed>0.0</speed>
  <fix>3d</fix>
</trkpt>
<trkpt lat="-27.2721936" lon="151.2900644">
  <ele>487.02</ele>
  <time>2026-09-01T19:59:21Z</time>
  <course>10.34</course>
  <speed>0.022360679774997897</speed>
  <fix>3d</fix>
</trkpt>
<trkpt lat="-27.2721937" lon="151.2900645">
  <ele>486.18</ele>
  <time>2026-09-01T19:59:21Z</time>
  <course>289.51</course>
  <speed>0.0</speed>
  <fix>3d</fix>
</trkpt>
<trkpt lat="-27.2721936" lon="151.2900644">
  <ele>487.27</ele>
  <time>2026-09-01T19:59:21Z</time>
  <course>10.32</course>
  <speed>0.022360679774997897</speed>
  <fix>3d</fix>
</trkpt>
<trkpt lat="-27.2721937" lon="151.2900645">
  <ele>486.68</ele>
  <time>2026-09-01T19:59:21Z</time>
  <course>316.36</course>
  <speed>0.0</speed>
  <fix>3d</fix>
</trkpt>
<trkpt lat="-27.2721936" lon="151.2900644">
  <ele>487.52</ele>
  <time>2026-09-01T19:59:21Z</time>
  <course>10.31</course>
  <speed>0.022360679774997897</speed>
  <fix>3d</fix>
</trkpt>
<trkpt lat="-27.2721937" lon="151.2900645">
  <ele>486.68</ele>
  <time>2026-09-01T19:59:21Z</time>
  <course>316.36</course>
  <speed>0.0</speed>
  <fix>3d</fix>
</trkpt>
<trkpt lat="-27.2721936" lon="151.2900644">
  <ele>487.78</ele>
  <time>2026-09-01T19:59:21Z</time>
  <course>10.3</course>
  <speed>0.022360679774997897</speed>
  <fix>3d</fix>
</trkpt>
<trkpt lat="-27.2721937" lon="151.2900645">
  <ele>487.18</ele>
  <time>2026-09-01T19:59:21Z</time>
  <course>330.82</course>
  <speed>0.0</speed>
  <fix>3d</fix>
</trkpt>
<trkpt lat="-27.2721935" lon="151.2900644">
  <ele>488.03</ele>
  <time>2026-09-01T19:59:21Z</time>
  <course>10.3</course>
  <speed>0.022360679774997897</speed>
  <fix>3d</fix>
</trkpt>
<trkpt lat="-27.2721937" lon="151.2900645">
  <ele>487.18</ele>
  <time>2026-09-01T19:59:21Z</time>
  <course>330.82</course>
  <speed>0.0</speed>
  <fix>3d</fix>
</trkpt>
<trkpt lat="-27.2721935" lon="151.2900644">
  <ele>488.28</ele>
  <time>2026-09-01T19:59:21Z</time>
  <course>10.31</course>
  <speed>0.022360679774997897</speed>
  <fix>3d</fix>
</trkpt>
<trkpt lat="-27.2721937" lon="151.2900645">
  <ele>487.69</ele>
  <time>2026-09-01T19:59:21Z</time>
  <course>344.1</course>
  <speed>0.0</speed>
  <fix>3d</fix>
</trkpt>
<trkpt lat="-27.2721935" lon="151.2900644">
  <ele>488.53</ele>
  <time>2026-09-01T19:59:21Z</time>
  <course>10.33</course>
  <speed>0.022360679774997897</speed>
  <fix>3d</fix>
</trkpt>
<trkpt lat="-27.2721937" lon="151.2900645">
  <ele>487.69</ele>
  <time>2026-09-01T19:59:21Z</time>
  <course>344.1</course>
  <speed>0.0</speed>
  <fix>3d</fix>
</trkpt>
<trkpt lat="-27.2721935" lon="151.2900644">
  <ele>488.78</ele>
  <time>2026-09-01T19:59:21Z</time>
  <course>10.35</course>
  <speed>0.022360679774997897</speed>
  <fix>3d</fix>
</trkpt>
<trkpt lat="-27.2721937" lon="151.2900645">
  <ele>488.19</ele>
  <time>2026-09-01T19:59:21Z</time>
  <course>350.54</course>
  <speed>0.0</speed>
  <fix>3d</fix>
</trkpt>
<trkpt lat="-27.2721935" lon="151.2900644">
  <ele>489.04</ele>
  <time>2026-09-01T19:59:21Z</time>
  <course>10.36</course>
  <speed>0.022360679774997897</speed>
  <fix>3d</fix>
</trkpt>
<trkpt lat="-27.2721937" lon="151.2900645">
  <ele>488.19</ele>
  <time>2026-09-01T19:59:21Z</time>
  <course>350.54</course>
  <speed>0.0</speed>
  <fix>3d</fix>
</trkpt>
<trkpt lat="-27.2721935" lon="151.2900644">
  <ele>489.29</ele>
  <time>2026-09-01T19:59:21Z</time>
  <course>10.37</course>
  <speed>0.022360679774997897</speed>
  <fix>3d</fix>
</trkpt>
<trkpt lat="-27.2721937" lon="151.2900645">
  <ele>488.69</ele>
  <time>2026-09-01T19:59:21Z</time>
  <course>352.21</course>
  <speed>0.0</speed>
  <fix>3d</fix>
</trkpt>
<trkpt lat="-27.2721935" lon="151.2900644">
  <ele>489.54</ele>
  <time>2026-09-01T19:59:21Z</time>
  <course>10.37</course>
  <speed>0.022360679774997897</speed>
  <fix>3d</fix>
</trkpt>
<trkpt lat="-27.2721937" lon="151.2900645">
  <ele>488.69</ele>
  <time>2026-09-01T19:59:21Z</time>
  <course>352.21</course>
  <speed>0.0</speed>
  <fix>3d</fix>
</trkpt>
<trkpt lat="-27.2721935" lon="151.2900644">
  <ele>489.79</ele>
  <time>2026-09-01T19:59:21Z</time>
  <course>10.37</course>
  <speed>0.022360679774997897</speed>
  <fix>3d</fix>
</trkpt>
<trkpt lat="-27.2721936" lon="151.2900645">
  <ele>489.19</ele>
  <time>2026-09-01T19:59:21Z</time>
  <course>350.96</course>
  <speed>0.0</speed>
  <fix>3d</fix>
</trkpt>
<trkpt lat="-27.2721935" lon="151.2900644">
  <ele>490.04</ele>
  <time>2026-09-01T19:59:21Z</time>
  <course>10.37</course>
  <speed>0.022360679774997897</speed>
  <fix>3d</fix>
</trkpt>
<trkpt lat="-27.2721936" lon="151.2900645">
  <ele>489.19</ele>
  <time>2026-09-01T19:59:21Z</time>
  <course>350.96</course>
  <speed>0.0</speed>
  <fix>3d</fix>
</trkpt>
<trkpt lat="-27.2721935" lon="151.2900644">
  <ele>490.29</ele>
  <time>2026-09-01T19:59:21Z</time>
  <course>10.36</course>
  <speed>0.022360679774997897</speed>
  <fix>3d</fix>
</trkpt>
<trkpt lat="-27.2721936" lon="151.2900645">
  <ele>489.7</ele>
  <time>2026-09-01T19:59:21Z</time>
  <course>345.46</course>
  <speed>0.0</speed>
  <fix>3d</fix>
</trkpt>
<trkpt lat="-27.2721935" lon="151.2900644">
  <ele>490.54</ele>
  <time>2026-09-01T19:59:21Z</time>
  <course>10.36</course>
  <speed>0.022360679774997897</speed>
  <fix>3d</fix>
</trkpt>
<trkpt lat="-27.2721936" lon="151.2900645">
  <ele>489.7</ele>
  <time>2026-09-01T19:59:21Z</time>
  <course>345.46</course>
  <speed>0.0</speed>
  <fix>3d</fix>
</trkpt>
<trkpt lat="-27.2721935" lon="151.2900644">
  <ele>490.79</ele>
  <time>2026-09-01T19:59:21Z</time>
  <course>10.35</course>
  <speed>0.022360679774997897</speed>
  <fix>3d</fix>
</trkpt>
<trkpt lat="-27.2721936" lon="151.2900645">
  <ele>490.2</ele>
  <time>2026-09-01T19:59:21Z</time>
  <course>329.77</course>
  <speed>0.0</speed>
  <fix>3d</fix>
</trkpt>
<trkpt lat="-27.2721935" lon="151.2900644">
  <ele>491.03</ele>
  <time>2026-09-01T19:59:21Z</time>
  <course>10.35</course>
  <speed>0.022360679774997897</speed>
  <fix>3d</fix>
</trkpt>
<trkpt lat="-27.2721936" lon="151.2900645">
  <ele>490.2</ele>
  <time>2026-09-01T19:59:21Z</time>
  <course>329.77</course>
  <speed>0.0</speed>
  <fix>3d</fix>
</trkpt>
<trkpt lat="-27.2721935" lon="151.2900644">
  <ele>491.27</ele>
  <time>2026-09-01T19:59:21Z</time>
  <course>10.34</course>
  <speed>0.022360679774997897</speed>
  <fix>3d</fix>
</trkpt>
<trkpt lat="-27.2721936" lon="151.2900645">
  <ele>490.7</ele>
  <time>2026-09-01T19:59:21Z</time>
  <course>304.75</course>
  <speed>0.0</speed>
  <fix>3d</fix>
</trkpt>
<trkpt lat="-27.2721935" lon="151.2900644">
  <ele>491.51</ele>
  <time>2026-09-01T19:59:21Z</time>
  <course>10.34</course>
  <speed>0.022360679774997897</speed>
  <fix>3d</fix>
</trkpt>
<trkpt lat="-27.2721936" lon="151.2900645">
  <ele>490.7</ele>
  <time>2026-09-01T19:59:21Z</time>
  <course>304.75</course>
  <speed>0.0</speed>
  <fix>3d</fix>
</trkpt>
<trkpt lat="-27.2721935" lon="151.2900644">
  <ele>491.73</ele>
  <time>2026-09-01T19:59:21Z</time>
  <course>10.34</course>
  <speed>0.022360679774997897</speed>
  <fix>3d</fix>
</trkpt>
<trkpt lat="-27.2721936" lon="151.2900645">
  <ele>491.19</ele>
  <time>2026-09-01T19:59:21Z</time>
  <course>291.18</course>
  <speed>0.0</speed>
  <fix>3d</fix>
</trkpt>
<trkpt lat="-27.2721935" lon="151.2900644">
  <ele>491.95</ele>
  <time>2026-09-01T19:59:21Z</time>
  <course>10.33</course>
  <speed>0.01414213562373095</speed>
  <fix>3d</fix>
</trkpt>
<trkpt lat="-27.2721936" lon="151.2900645">
  <ele>491.19</ele>
  <time>2026-09-01T19:59:21Z</time>
  <course>291.18</course>
  <speed>0.0</speed>
  <fix>3d</fix>
</trkpt>
<trkpt lat="-27.2721935" lon="151.2900644">
  <ele>492.15</ele>
  <time>2026-09-01T19:59:21Z</time>
  <course>10.33</course>
  <speed>0.01414213562373095</speed>
  <fix>3d</fix>
</trkpt>
<trkpt lat="-27.2721936" lon="151.2900645">
  <ele>491.65</ele>
  <time>2026-09-01T19:59:21Z</time>
  <course>236.43</course>
  <speed>0.0</speed>
  <fix>3d</fix>
</trkpt>
<trkpt lat="-27.2721935" lon="151.2900644">
  <ele>492.34</ele>
  <time>2026-09-01T19:59:21Z</time>
  <course>10.33</course>
  <speed>0.01</speed>
  <fix>3d</fix>
</trkpt>
<trkpt lat="-27.2721936" lon="151.2900645">
  <ele>491.65</ele>
  <time>2026-09-01T19:59:21Z</time>
  <course>236.43</course>
  <speed>0.0</speed>
  <fix>3d</fix>
</trkpt>
<trkpt lat="-27.2721935" lon="151.2900644">
  <ele>492.51</ele>
  <time>2026-09-01T19:59:21Z</time>
  <course>10.33</course>
  <speed>0.022360679774997897</speed>
  <fix>3d</fix>
</trkpt>
<trkpt lat="-27.2721936" lon="151.2900645">
  <ele>492.08</ele>
  <time>2026-09-01T19:59:21Z</time>
  <course>202.53</course>
  <speed>0.01</speed>
  <fix>3d</fix>
</trkpt>
<trkpt lat="-27.2721935" lon="151.2900644">
  <ele>492.66</ele>
  <time>2026-09-01T19:59:21Z</time>
  <course>10.33</course>
  <speed>0.0282842712474619</speed>
  <fix>3d</fix>
</trkpt>
<trkpt lat="-27.2721936" lon="151.2900645">
  <ele>492.08</ele>
  <time>2026-09-01T19:59:21Z</time>
  <course>202.53</course>
  <speed>0.01</speed>
  <fix>3d</fix>
</trkpt>
<trkpt lat="-27.2721935" lon="151.2900644">
  <ele>492.79</ele>
  <time>2026-09-01T19:59:21Z</time>
  <course>10.31</course>
  <speed>0.044721359549995794</speed>
  <fix>3d</fix>
</trkpt>
<trkpt lat="-27.2721936" lon="151.2900645">
  <ele>492.44</ele>
  <time>2026-09-01T19:59:21Z</time>
  <course>195.04</course>
  <speed>0.03</speed>
  <fix>3d</fix>
</trkpt>
<trkpt lat="-27.2721936" lon="151.2900644">
  <ele>492.89</ele>
  <time>2026-09-01T19:59:21Z</time>
  <course>10.28</course>
  <speed>0.0632455532033676</speed>
  <fix>3d</fix>
</trkpt>
<trkpt lat="-27.2721936" lon="151.2900645">
  <ele>492.44</ele>
  <time>2026-09-01T19:59:21Z</time>
  <course>195.04</course>
  <speed>0.03</speed>
  <fix>3d</fix>
</trkpt>
<trkpt lat="-27.2721937" lon="151.2900644">
  <ele>492.97</ele>
  <time>2026-09-01T19:59:21Z</time>
  <course>10.26</course>
  <speed>0.09486832980505139</speed>
  <fix>3d</fix>
</trkpt>
<trkpt lat="-27.2721936" lon="151.2900645">
  <ele>492.72</ele>
  <time>2026-09-01T19:59:21Z</time>
  <course>192.05</course>
  <speed>0.07</speed>
  <fix>3d</fix>
</trkpt>
<trkpt lat="-27.2721938" lon="151.2900643">
  <ele>493.03</ele>
  <time>2026-09-01T19:59:21Z</time>
  <course>10.26</course>
  <speed>0.11401754250991379</speed>
  <fix>3d</fix>
</trkpt>
<trkpt lat="-27.2721936" lon="151.2900645">
  <ele>492.72</ele>
  <time>2026-09-01T19:59:21Z</time>
  <course>192.05</course>
  <speed>0.07</speed>
  <fix>3d</fix>
</trkpt>
<trkpt lat="-27.2721939" lon="151.2900643">
  <ele>493.07</ele>
  <time>2026-09-01T19:59:21Z</time>
  <course>10.26</course>
  <speed>0.14560219778561037</speed>
  <fix>3d</fix>
</trkpt>
<trkpt lat="-27.2721938" lon="151.2900645">
  <ele>492.91</ele>
  <time>2026-09-01T19:59:21Z</time>
  <course>190.98</course>
  <speed>0.11</speed>
  <fix>3d</fix>
</trkpt>
<trkpt lat="-27.272194" lon="151.2900643">
  <ele>493.1</ele>
  <time>2026-09-01T19:59:21Z</time>
  <course>10.27</course>
  <speed>0.1649242250247064</speed>
  <fix>3d</fix>
</trkpt>
<trkpt lat="-27.2721938" lon="151.2900645">
  <ele>492.91</ele>
  <time>2026-09-01T19:59:21Z</time>
  <course>190.98</course>
  <speed>0.11</speed>
  <fix>3d</fix>
</trkpt>
<trkpt lat="-27.2721942" lon="151.2900643">
  <ele>493.1</ele>
  <time>2026-09-01T19:59:21Z</time>
  <course>10.27</course>
  <speed>0.194164878389476</speed>
  <fix>3d</fix>
</trkpt>
<trkpt lat="-27.2721941" lon="151.2900644">
  <ele>493.02</ele>
  <time>2026-09-01T19:59:21Z</time>
  <course>190.79</course>
  <speed>0.16</speed>
  <fix>3d</fix>
</trkpt>
<trkpt lat="-27.2721944" lon="151.2900642">
  <ele>493.09</ele>
  <time>2026-09-01T19:59:21Z</time>
  <course>10.29</course>
  <speed>0.20615528128088303</speed>
  <fix>3d</fix>
</trkpt>
<trkpt lat="-27.2721941" lon="151.2900644">
  <ele>493.02</ele>
  <time>2026-09-01T19:59:21Z</time>
  <course>190.79</course>
  <speed>0.16</speed>
  <fix>3d</fix>
</trkpt>
<trkpt lat="-27.2721946" lon="151.2900642">
  <ele>493.07</ele>
  <time>2026-09-01T19:59:21Z</time>
  <course>10.29</course>
  <speed>0.22561028345356957</speed>
  <fix>3d</fix>
</trkpt>
<trkpt lat="-27.2721944" lon="151.2900643">
  <ele>493.05</ele>
  <time>2026-09-01T19:59:21Z</time>
  <course>190.75</course>
  <speed>0.21</speed>
  <fix>3d</fix>
</trkpt>
<trkpt lat="-27.2721948" lon="151.2900641">
  <ele>493.05</ele>
  <time>2026-09-01T19:59:21Z</time>
  <course>10.29</course>
  <speed>0.24515301344262524</speed>
  <fix>3d</fix>
</trkpt>
<trkpt lat="-27.2721944" lon="151.2900643">
  <ele>493.05</ele>
  <time>2026-09-01T19:59:21Z</time>
  <course>190.75</course>
  <speed>0.21</speed>
  <fix>3d</fix>
</trkpt>
<trkpt lat="-27.2721951" lon="151.2900641">
  <ele>493.03</ele>
  <time>2026-09-01T19:59:21Z</time>
  <course>10.29</course>
  <speed>0.25495097567963926</speed>
  <fix>3d</fix>
</trkpt>
<trkpt lat="-27.2721948" lon="151.2900642">
  <ele>493.03</ele>
  <time>2026-09-01T19:59:21Z</time>
  <course>190.7</course>
  <speed>0.25</speed>
  <fix>3d</fix>
</trkpt>
<trkpt lat="-27.2721953" lon="151.290064">
  <ele>493.0</ele>
  <time>2026-09-01T19:59:21Z</time>
  <course>10.28</course>
  <speed>0.2668332812825267</speed>
  <fix>3d</fix>
</trkpt>
<trkpt lat="-27.2721948" lon="151.2900642">
  <ele>493.03</ele>
  <time>2026-09-01T19:59:21Z</time>
  <course>190.7</course>
  <speed>0.25</speed>
  <fix>3d</fix>
</trkpt>
<trkpt lat="-27.2721956" lon="151.290064">
  <ele>492.98</ele>
  <time>2026-09-01T19:59:21Z</time>
  <course>10.27</course>
  <speed>0.2668332812825267</speed>
  <fix>3d</fix>
</trkpt>
<trkpt lat="-27.2721953" lon="151.2900641">
  <ele>492.99</ele>
  <time>2026-09-01T19:59:21Z</time>
  <course>190.64</course>
  <speed>0.28</speed>
  <fix>3d</fix>
</trkpt>
<trkpt lat="-27.2721958" lon="151.2900639">
  <ele>492.95</ele>
  <time>2026-09-01T19:59:21Z</time>
  <course>10.27</course>
  <speed>0.2765863337187866</speed>
  <fix>3d</fix>
</trkpt>
<trkpt lat="-27.2721953" lon="151.2900641">
  <ele>492.99</ele>
  <time>2026-09-01T19:59:21Z</time>
  <course>190.64</course>
  <speed>0.28</speed>
  <fix>3d</fix>
</trkpt>
<trkpt lat="-27.2721961" lon="151.2900639">
  <ele>492.94</ele>
  <time>2026-09-01T19:59:21Z</time>
  <course>10.27</course>
  <speed>0.2765863337187866</speed>
  <fix>3d</fix>
</trkpt>
<trkpt lat="-27.2721958" lon="151.290064">
  <ele>492.95</ele>
  <time>2026-09-01T19:59:21Z</time>
  <course>190.64</course>
  <speed>0.3</speed>
  <fix>3d</fix>
</trkpt>
<trkpt lat="-27.2721964" lon="151.2900638">
  <ele>492.93</ele>
  <time>2026-09-01T19:59:21Z</time>
  <course>10.27</course>
  <speed>0.2765863337187866</speed>
  <fix>3d</fix>
</trkpt>
<trkpt lat="-27.2721958" lon="151.290064">
  <ele>492.95</ele>
  <time>2026-09-01T19:59:21Z</time>
  <course>190.64</course>
  <speed>0.3</speed>
  <fix>3d</fix>
</trkpt>
<trkpt lat="-27.2721966" lon="151.2900638">
  <ele>492.92</ele>
  <time>2026-09-01T19:59:21Z</time>
  <course>10.28</course>
  <speed>0.2668332812825267</speed>
  <fix>3d</fix>
</trkpt>
<trkpt lat="-27.2721964" lon="151.2900639">
  <ele>492.91</ele>
  <time>2026-09-01T19:59:21Z</time>
  <course>190.66</course>
  <speed>0.3</speed>
  <fix>3d</fix>
</trkpt>
<trkpt lat="-27.2721969" lon="151.2900637">
  <ele>492.93</ele>
  <time>2026-09-01T19:59:21Z</time>
  <course>10.3</course>
  <speed>0.2668332812825267</speed>
  <fix>3d</fix>
</trkpt>
<trkpt lat="-27.2721964" lon="151.2900639">
  <ele>492.91</ele>
  <time>2026-09-01T19:59:21Z</time>
  <course>190.66</course>
  <speed>0.3</speed>
  <fix>3d</fix>
</trkpt>
<trkpt lat="-27.2721971" lon="151.2900636">
  <ele>492.93</ele>
  <time>2026-09-01T19:59:21Z</time>
  <course>10.31</course>
  <speed>0.2570992026436488</speed>
  <fix>3d</fix>
</trkpt>
<trkpt lat="-27.2721969" lon="151.2900638">
  <ele>492.91</ele>
  <time>2026-09-01T19:59:21Z</time>
  <course>190.7</course>
  <speed>0.3</speed>
  <fix>3d</fix>
</trkpt>
<trkpt lat="-27.2721974" lon="151.2900636">
  <ele>492.94</ele>
  <time>2026-09-01T19:59:21Z</time>
  <course>10.32</course>
  <speed>0.24738633753705963</speed>
  <fix>3d</fix>
</trkpt>
<trkpt lat="-27.2721969" lon="151.2900638">
  <ele>492.91</ele>
  <time>2026-09-01T19:59:21Z</time>
  <course>190.7</course>
  <speed>0.3</speed>
  <fix>3d</fix>
</trkpt>
<trkpt lat="-27.2721976" lon="151.2900635">
  <ele>492.95</ele>
  <time>2026-09-01T19:59:21Z</time>
  <course>10.33</course>
  <speed>0.23769728648009425</speed>
  <fix>3d</fix>
</trkpt>
<trkpt lat="-27.2721974" lon="151.2900637">
  <ele>492.91</ele>
  <time>2026-09-01T19:59:21Z</time>
  <course>190.74</course>
  <speed>0.29</speed>
  <fix>3d</fix>
</trkpt>
<trkpt lat="-27.2721979" lon="151.2900635">
  <ele>492.96</ele>
  <time>2026-09-01T19:59:21Z</time>
  <course>10.33</course>
  <speed>0.22561028345356957</speed>
  <fix>3d</fix>
</trkpt>
<trkpt lat="-27.2721974" lon="151.2900637">
  <ele>492.91</ele>
  <time>2026-09-01T19:59:21Z</time>
  <course>190.74</course>
  <speed>0.29</speed>
  <fix>3d</fix>
</trkpt>
<trkpt lat="-27.2721981" lon="151.2900634">
  <ele>492.98</ele>
  <time>2026-09-01T19:59:21Z</time>
  <course>10.33</course>
  <speed>0.215870331449229</speed>
  <fix>3d</fix>
</trkpt>
<trkpt lat="-27.2721979" lon="151.2900636">
  <ele>492.94</ele>
  <time>2026-09-01T19:59:21Z</time>
  <course>190.77</course>
  <speed>0.27</speed>
  <fix>3d</fix>
</trkpt>
<trkpt lat="-27.2721983" lon="151.2900634">
  <ele>492.99</ele>
  <time>2026-09-01T19:59:21Z</time>
  <course>10.33</course>
  <speed>0.20615528128088303</speed>
  <fix>3d</fix>
</trkpt>
<trkpt lat="-27.2721979" lon="151.2900636">
  <ele>492.94</ele>
  <time>2026-09-01T19:59:21Z</time>
  <course>190.77</course>
  <speed>0.27</speed>
  <fix>3d</fix>
</trkpt>
<trkpt lat="-27.2721985" lon="151.2900634">
  <ele>493.01</ele>
  <time>2026-09-01T19:59:21Z</time>
  <course>10.32</course>
  <speed>0.18681541692269404</speed>
  <fix>3d</fix>
</trkpt>
<trkpt lat="-27.2721984" lon="151.2900635">
  <ele>492.97</ele>
  <time>2026-09-01T19:59:21Z</time>
  <course>190.78</course>
  <speed>0.25</speed>
  <fix>3d</fix>
</trkpt>
<trkpt lat="-27.2721987" lon="151.2900633">
  <ele>493.02</ele>
  <time>2026-09-01T19:59:21Z</time>
  <course>10.31</course>
  <speed>0.1772004514666935</speed>
  <fix>3d</fix>
</trkpt>
<trkpt lat="-27.2721984" lon="151.2900635">
  <ele>492.97</ele>
  <time>2026-09-01T19:59:21Z</time>
  <course>190.78</course>
  <speed>0.25</speed>
  <fix>3d</fix>
</trkpt>
<trkpt lat="-27.2721989" lon="151.2900633">
  <ele>493.04</ele>
  <time>2026-09-01T19:59:21Z</time>
  <course>10.31</course>
  <speed>0.1649242250247064</speed>
  <fix>3d</fix>
</trkpt>
<trkpt lat="-27.2721989" lon="151.2900634">
  <ele>493.01</ele>
  <time>2026-09-01T19:59:21Z</time>
  <course>190.78</course>
  <speed>0.22</speed>
  <fix>3d</fix>
</trkpt>
<trkpt lat="-27.272199" lon="151.2900632">
  <ele>493.05</ele>
  <time>2026-09-01T19:59:21Z</time>
  <course>10.31</course>
  <speed>0.14560219778561037</speed>
  <fix>3d</fix>
</trkpt>
<trkpt lat="-27.2721989" lon="151.2900634">
  <ele>493.01</ele>
  <time>2026-09-01T19:59:21Z</time>
  <course>190.78</course>
  <speed>0.22</speed>
  <fix>3d</fix>
</trkpt>
<trkpt lat="-27.2721992" lon="151.2900632">
  <ele>493.06</ele>
  <time>2026-09-01T19:59:21Z</time>
  <course>10.31</course>
  <speed>0.1264911064067352</speed>
  <fix>3d</fix>
</trkpt>
<trkpt lat="-27.2721992" lon="151.2900633">
  <ele>493.04</ele>
  <time>2026-09-01T19:59:21Z</time>
  <course>190.78</course>
  <speed>0.19</speed>
  <fix>3d</fix>
</trkpt>
<trkpt lat="-27.2721993" lon="151.2900632">
  <ele>493.06</ele>
  <time>2026-09-01T19:59:21Z</time>
  <course>10.32</course>
  <speed>0.11401754250991379</speed>
  <fix>3d</fix>
</trkpt>
<trkpt lat="-27.2721992" lon="151.2900633">
  <ele>493.04</ele>
  <time>2026-09-01T19:59:21Z</time>
  <course>190.78</course>
  <speed>0.19</speed>
  <fix>3d</fix>
</trkpt>
<trkpt lat="-27.2721994" lon="151.2900631">
  <ele>493.07</ele>
  <time>2026-09-01T19:59:21Z</time>
  <course>10.34</course>
  <speed>0.09486832980505139</speed>
  <fix>3d</fix>
</trkpt>
<trkpt lat="-27.2721995" lon="151.2900632">
  <ele>493.06</ele>
  <time>2026-09-01T19:59:21Z</time>
  <course>190.92</course>
  <speed>0.16</speed>
  <fix>3d</fix>
</trkpt>
<trkpt lat="-27.2721995" lon="151.2900631">
  <ele>493.07</ele>
  <time>2026-09-01T19:59:21Z</time>
  <course>10.36</course>
  <speed>0.07615773105863909</speed>
  <fix>3d</fix>
</trkpt>
<trkpt lat="-27.2721995" lon="151.2900632">
  <ele>493.06</ele>
  <time>2026-09-01T19:59:21Z</time>
  <course>190.92</course>
  <speed>0.16</speed>
  <fix>3d</fix>
</trkpt>
<trkpt lat="-27.2721996" lon="151.2900631">
  <ele>493.07</ele>
  <time>2026-09-01T19:59:21Z</time>
  <course>10.39</course>
  <speed>0.05830951894845301</speed>
  <fix>3d</fix>
</trkpt>
<trkpt lat="-27.2721998" lon="151.2900632">
  <ele>493.08</ele>
  <time>2026-09-01T19:59:21Z</time>
  <course>191.49</course>
  <speed>0.12</speed>
  <fix>3d</fix>
</trkpt>
<trkpt lat="-27.2721997" lon="151.2900631">
  <ele>493.07</ele>
  <time>2026-09-01T19:59:21Z</time>
  <course>10.41</course>
  <speed>0.04242640687119285</speed>
  <fix>3d</fix>
</trkpt>
<trkpt lat="-27.2721998" lon="151.2900632">
  <ele>493.08</ele>
  <time>2026-09-01T19:59:21Z</time>
  <course>191.49</course>
  <speed>0.12</speed>
  <fix>3d</fix>
</trkpt>
<trkpt lat="-27.2721998" lon="151.2900631">
  <ele>493.07</ele>
  <time>2026-09-01T19:59:21Z</time>
  <course>10.43</course>
  <speed>0.022360679774997897</speed>
  <fix>3d</fix>
</trkpt>
<trkpt lat="-27.2722" lon="151.2900632">
  <ele>493.09</ele>
  <time>2026-09-01T19:59:21Z</time>
  <course>192.98</course>
  <speed>0.08</speed>
  <fix>3d</fix>
</trkpt>
<trkpt lat="-27.2721998" lon="151.290063">
  <ele>493.06</ele>
  <time>2026-09-01T19:59:21Z</time>
  <course>10.44</course>
  <speed>0.02</speed>
  <fix>3d</fix>
</trkpt>
<trkpt lat="-27.2722" lon="151.2900632">
  <ele>493.09</ele>
  <time>2026-09-01T19:59:21Z</time>
  <course>192.98</course>
  <speed>0.08</speed>
  <fix>3d</fix>
</trkpt>
<trkpt lat="-27.2721998" lon="151.290063">
  <ele>493.06</ele>
  <time>2026-09-01T19:59:21Z</time>
  <course>10.44</course>
  <speed>0.0282842712474619</speed>
  <fix>3d</fix>
</trkpt>
<trkpt lat="-27.2722001" lon="151.2900631">
  <ele>493.09</ele>
  <time>2026-09-01T19:59:21Z</time>
  <course>196.75</course>
  <speed>0.04</speed>
  <fix>3d</fix>
</trkpt>
<trkpt lat="-27.2721998" lon="151.290063">
  <ele>493.05</ele>
  <time>2026-09-01T19:59:21Z</time>
  <course>10.44</course>
  <speed>0.0412310562561766</speed>
  <fix>3d</fix>
</trkpt>
<trkpt lat="-27.2722001" lon="151.2900631">
  <ele>493.09</ele>
  <time>2026-09-01T19:59:21Z</time>
  <course>196.75</course>
  <speed>0.04</speed>
  <fix>3d</fix>
</trkpt>
<trkpt lat="-27.2721998" lon="151.290063">
  <ele>493.05</ele>
  <time>2026-09-01T19:59:21Z</time>
  <course>10.44</course>
  <speed>0.06082762530298219</speed>
  <fix>3d</fix>
</trkpt>
<trkpt lat="-27.2722001" lon="151.2900631">
  <ele>493.09</ele>
  <time>2026-09-01T19:59:21Z</time>
  <course>228.68</course>
  <speed>0.01</speed>
  <fix>3d</fix>
</trkpt>
<trkpt lat="-27.2721998" lon="151.290063">
  <ele>493.04</ele>
  <time>2026-09-01T19:59:21Z</time>
  <course>10.44</course>
  <speed>0.08062257748298549</speed>
  <fix>3d</fix>
</trkpt>
<trkpt lat="-27.2722001" lon="151.2900631">
  <ele>493.09</ele>
  <time>2026-09-01T19:59:21Z</time>
  <course>228.68</course>
  <speed>0.01</speed>
  <fix>3d</fix>
</trkpt>
<trkpt lat="-27.2721997" lon="151.290063">
  <ele>493.04</ele>
  <time>2026-09-01T19:59:21Z</time>
  <course>10.43</course>
  <speed>0.1</speed>
  <fix>3d</fix>
</trkpt>
<trkpt lat="-27.2722001" lon="151.2900631">
  <ele>493.08</ele>
  <time>2026-09-01T19:59:21Z</time>
  <course>357.87</course>
  <speed>0.03</speed>
  <fix>3d</fix>
</trkpt>
<trkpt lat="-27.2721996" lon="151.290063">
  <ele>493.04</ele>
  <time>2026-09-01T19:59:21Z</time>
  <course>10.42</course>
  <speed>0.12</speed>
  <fix>3d</fix>
</trkpt>
<trkpt lat="-27.2722001" lon="151.2900631">
  <ele>493.08</ele>
  <time>2026-09-01T19:59:21Z</time>
  <course>357.87</course>
  <speed>0.03</speed>
  <fix>3d</fix>
</trkpt>
<trkpt lat="-27.2721996" lon="151.290063">
  <ele>493.03</ele>
  <time>2026-09-01T19:59:21Z</time>
  <course>10.42</course>
  <speed>0.13</speed>
  <fix>3d</fix>
</trkpt>
<trkpt lat="-27.2722001" lon="151.2900631">
  <ele>493.08</ele>
  <time>2026-09-01T19:59:21Z</time>
  <course>4.03</course>
  <speed>0.07</speed>
  <fix>3d</fix>
</trkpt>
<trkpt lat="-27.2721995" lon="151.2900631">
  <ele>493.03</ele>
  <time>2026-09-01T19:59:21Z</time>
  <course>10.42</course>
  <speed>0.15</speed>
  <fix>3d</fix>
</trkpt>
<trkpt lat="-27.2722001" lon="151.2900631">
  <ele>493.08</ele>
  <time>2026-09-01T19:59:21Z</time>
  <course>4.03</course>
  <speed>0.07</speed>
  <fix>3d</fix>
</trkpt>
<trkpt lat="-27.2721994" lon="151.2900631">
  <ele>493.03</ele>
  <time>2026-09-01T19:59:21Z</time>
  <course>10.42</course>
  <speed>0.17</speed>
  <fix>3d</fix>
</trkpt>
<trkpt lat="-27.2722" lon="151.2900631">
  <ele>493.08</ele>
  <time>2026-09-01T19:59:21Z</time>
  <course>6.0</course>
  <speed>0.11</speed>
  <fix>3d</fix>
</trkpt>
<trkpt lat="-27.2721993" lon="151.2900631">
  <ele>493.04</ele>
  <time>2026-09-01T19:59:21Z</time>
  <course>10.42</course>
  <speed>0.19</speed>
  <fix>3d</fix>
</trkpt>
<trkpt lat="-27.2722" lon="151.2900631">
  <ele>493.08</ele>
  <time>2026-09-01T19:59:21Z</time>
  <course>6.0</course>
  <speed>0.11</speed>
  <fix>3d</fix>
</trkpt>
<trkpt lat="-27.2721992" lon="151.2900631">
  <ele>493.04</ele>
  <time>2026-09-01T19:59:21Z</time>
  <course>10.42</course>
  <speed>0.2002498439450079</speed>
  <fix>3d</fix>
</trkpt>
<trkpt lat="-27.2721997" lon="151.2900631">
  <ele>493.09</ele>
  <time>2026-09-01T19:59:21Z</time>
  <course>7.17</course>
  <speed>0.15</speed>
  <fix>3d</fix>
</trkpt>
<trkpt lat="-27.272199" lon="151.2900631">
  <ele>493.04</ele>
  <time>2026-09-01T19:59:21Z</time>
  <course>10.42</course>
  <speed>0.22022715545545238</speed>
  <fix>3d</fix>
</trkpt>
<trkpt lat="-27.2721997" lon="151.2900631">
  <ele>493.09</ele>
  <time>2026-09-01T19:59:21Z</time>
  <course>7.17</course>
  <speed>0.15</speed>
  <fix>3d</fix>
</trkpt>
<trkpt lat="-27.2721988" lon="151.2900631">
  <ele>493.05</ele>
  <time>2026-09-01T19:59:21Z</time>
  <course>10.42</course>
  <speed>0.23021728866442676</speed>
  <fix>3d</fix>
</trkpt>
<trkpt lat="-27.2721994" lon="151.2900631">
  <ele>493.09</ele>
  <time>2026-09-01T19:59:21Z</time>
  <course>7.92</course>
  <speed>0.18</speed>
  <fix>3d</fix>
</trkpt>
<trkpt lat="-27.2721986" lon="151.2900631">
  <ele>493.05</ele>
  <time>2026-09-01T19:59:21Z</time>
  <course>10.42</course>
  <speed>0.24083189157584592</speed>
  <fix>3d</fix>
</trkpt>
<trkpt lat="-27.2721994" lon="151.2900631">
  <ele>493.09</ele>
  <time>2026-09-01T19:59:21Z</time>
  <course>7.92</course>
  <speed>0.18</speed>
  <fix>3d</fix>
</trkpt>
<trkpt lat="-27.2721984" lon="151.2900631">
  <ele>493.05</ele>
  <time>2026-09-01T19:59:21Z</time>
  <course>10.42</course>
  <speed>0.25079872407968906</speed>
  <fix>3d</fix>
</trkpt>
<trkpt lat="-27.2721991" lon="151.2900631">
  <ele>493.1</ele>
  <time>2026-09-01T19:59:21Z</time>
  <course>8.51</course>
  <speed>0.21</speed>
  <fix>3d</fix>
</trkpt>
<trkpt lat="-27.2721982" lon="151.2900632">
  <ele>493.06</ele>
  <time>2026-09-01T19:59:21Z</time>
  <course>10.42</course>
  <speed>0.260768096208106</speed>
  <fix>3d</fix>
</trkpt>
<trkpt lat="-27.2721991" lon="151.2900631">
  <ele>493.1</ele>
  <time>2026-09-01T19:59:21Z</time>
  <course>8.51</course>
  <speed>0.21</speed>
  <fix>3d</fix>
</trkpt>
<trkpt lat="-27.272198" lon="151.2900632">
  <ele>493.06</ele>
  <time>2026-09-01T19:59:21Z</time>
  <course>10.42</course>
  <speed>0.2707397274136177</speed>
  <fix>3d</fix>
</trkpt>
<trkpt lat="-27.2721986" lon="151.2900632">
  <ele>493.11</ele>
  <time>2026-09-01T19:59:21Z</time>
  <course>8.96</course>
  <speed>0.24</speed>
  <fix>3d</fix>
</trkpt>
<trkpt lat="-27.2721978" lon="151.2900632">
  <ele>493.06</ele>
  <time>2026-09-01T19:59:21Z</time>
  <course>10.42</course>
  <speed>0.280713376952364</speed>
  <fix>3d</fix>
</trkpt>
<trkpt lat="-27.2721986" lon="151.2900632">
  <ele>493.11</ele>
  <time>2026-09-01T19:59:21Z</time>
  <course>8.96</course>
  <speed>0.24</speed>
  <fix>3d</fix>
</trkpt>
<trkpt lat="-27.2721976" lon="151.2900633">
  <ele>493.06</ele>
  <time>2026-09-01T19:59:21Z</time>
  <course>10.41</course>
  <speed>0.2906888370749727</speed>
  <fix>3d</fix>
</trkpt>
<trkpt lat="-27.2721982" lon="151.2900633">
  <ele>493.12</ele>
  <time>2026-09-01T19:59:21Z</time>
  <course>9.23</course>
  <speed>0.26</speed>
  <fix>3d</fix>
</trkpt>
<trkpt lat="-27.2721973" lon="151.2900633">
  <ele>493.07</ele>
  <time>2026-09-01T19:59:21Z</time>
  <course>10.41</course>
  <speed>0.291547594742265</speed>
  <fix>3d</fix>
</trkpt>
<trkpt lat="-27.2721982" lon="151.2900633">
  <ele>493.12</ele>
  <time>2026-09-01T19:59:21Z</time>
  <course>9.23</course>
  <speed>0.26</speed>
  <fix>3d</fix>
</trkpt>
<trkpt lat="-27.2721971" lon="151.2900633">
  <ele>493.07</ele>
  <time>2026-09-01T19:59:21Z</time>
  <course>10.41</course>
  <speed>0.3014962686336267</speed>
  <fix>3d</fix>
</trkpt>
<trkpt lat="-27.2721977" lon="151.2900634">
  <ele>493.13</ele>
  <time>2026-09-01T19:59:21Z</time>
  <course>9.5</course>
  <speed>0.27</speed>
  <fix>3d</fix>
</trkpt>
<trkpt lat="-27.2721968" lon="151.2900634">
  <ele>493.07</ele>
  <time>2026-09-01T19:59:21Z</time>
  <course>10.42</course>
  <speed>0.3014962686336267</speed>
  <fix>3d</fix>
</trkpt>
<trkpt lat="-27.2721977" lon="151.2900634">
  <ele>493.13</ele>
  <time>2026-09-01T19:59:21Z</time>
  <course>9.5</course>
  <speed>0.27</speed>
  <fix>3d</fix>
</trkpt>
<trkpt lat="-27.2721966" lon="151.2900634">
  <ele>493.07</ele>
  <time>2026-09-01T19:59:21Z</time>
  <course>10.43</course>
  <speed>0.3014962686336267</speed>
  <fix>3d</fix>
</trkpt>
<trkpt lat="-27.2721972" lon="151.2900635">
  <ele>493.14</ele>
  <time>2026-09-01T19:59:21Z</time>
  <course>9.82</course>
  <speed>0.28</speed>
  <fix>3d</fix>
</trkpt>
<trkpt lat="-27.2721963" lon="151.2900635">
  <ele>493.07</ele>
  <time>2026-09-01T19:59:21Z</time>
  <course>10.43</course>
  <speed>0.3014962686336267</speed>
  <fix>3d</fix>
</trkpt>
<trkpt lat="-27.2721972" lon="151.2900635">
  <ele>493.14</ele>
  <time>2026-09-01T19:59:21Z</time>
  <course>9.82</course>
  <speed>0.28</speed>
  <fix>3d</fix>
</trkpt>
<trkpt lat="-27.2721961" lon="151.2900635">
  <ele>493.07</ele>
  <time>2026-09-01T19:59:21Z</time>
  <course>10.43</course>
  <speed>0.3014962686336267</speed>
  <fix>3d</fix>
</trkpt>
<trkpt lat="-27.2721967" lon="151.2900636">
  <ele>493.14</ele>
  <time>2026-09-01T19:59:21Z</time>
  <course>10.09</course>
  <speed>0.29</speed>
  <fix>3d</fix>
</trkpt>
<trkpt lat="-27.2721958" lon="151.2900636">
  <ele>493.07</ele>
  <time>2026-09-01T19:59:21Z</time>
  <course>10.42</course>
  <speed>0.3014962686336267</speed>
  <fix>3d</fix>
</trkpt>
<trkpt lat="-27.2721967" lon="151.2900636">
  <ele>493.14</ele>
  <time>2026-09-01T19:59:21Z</time>
  <course>10.09</course>
  <speed>0.29</speed>
  <fix>3d</fix>
</trkpt>
<trkpt lat="-27.2721956" lon="151.2900636">
  <ele>493.07</ele>
  <time>2026-09-01T19:59:21Z</time>
  <course>10.42</course>
  <speed>0.291547594742265</speed>
  <fix>3d</fix>
</trkpt>
<trkpt lat="-27.2721962" lon="151.2900637">
  <ele>493.15</ele>
  <time>2026-09-01T19:59:21Z</time>
  <course>10.36</course>
  <speed>0.29</speed>
  <fix>3d</fix>
</trkpt>
<trkpt lat="-27.2721953" lon="151.2900637">
  <ele>493.08</ele>
  <time>2026-09-01T19:59:21Z</time>
  <course>10.42</course>
  <speed>0.291547594742265</speed>
  <fix>3d</fix>
</trkpt>
<trkpt lat="-27.2721962" lon="151.2900637">
  <ele>493.15</ele>
  <time>2026-09-01T19:59:21Z</time>
  <course>10.36</course>
  <speed>0.29</speed>
  <fix>3d</fix>
</trkpt>
<trkpt lat="-27.2721951" lon="151.2900637">
  <ele>493.08</ele>
  <time>2026-09-01T19:59:21Z</time>
  <course>10.42</course>
  <speed>0.2816025568065745</speed>
  <fix>3d</fix>
</trkpt>
<trkpt lat="-27.2721956" lon="151.2900638">
  <ele>493.15</ele>
  <time>2026-09-01T19:59:21Z</time>
  <course>10.67</course>
  <speed>0.28</speed>
  <fix>3d</fix>
</trkpt>
<trkpt lat="-27.2721948" lon="151.2900638">
  <ele>493.08</ele>
  <time>2026-09-01T19:59:21Z</time>
  <course>10.42</course>
  <speed>0.2816025568065745</speed>
  <fix>3d</fix>
</trkpt>
<trkpt lat="-27.2721956" lon="151.2900638">
  <ele>493.15</ele>
  <time>2026-09-01T19:59:21Z</time>
  <course>10.67</course>
  <speed>0.28</speed>
  <fix>3d</fix>
</trkpt>
<trkpt lat="-27.2721946" lon="151.2900638">
  <ele>493.08</ele>
  <time>2026-09-01T19:59:21Z</time>
  <course>10.42</course>
  <speed>0.27166155414412246</speed>
  <fix>3d</fix>
</trkpt>
<trkpt lat="-27.2721952" lon="151.2900639">
  <ele>493.15</ele>
  <time>2026-09-01T19:59:21Z</time>
  <course>10.94</course>
  <speed>0.27</speed>
  <fix>3d</fix>
</trkpt>
<trkpt lat="-27.2721944" lon="151.2900639">
  <ele>493.08</ele>
  <time>2026-09-01T19:59:21Z</time>
  <course>10.42</course>
  <speed>0.261725046566048</speed>
  <fix>3d</fix>
</trkpt>
<trkpt lat="-27.2721952" lon="151.2900639">
  <ele>493.15</ele>
  <time>2026-09-01T19:59:21Z</time>
  <course>10.94</course>
  <speed>0.27</speed>
  <fix>3d</fix>
</trkpt>
<trkpt lat="-27.2721942" lon="151.2900639">
  <ele>493.07</ele>
  <time>2026-09-01T19:59:21Z</time>
  <course>10.42</course>
  <speed>0.25179356624028343</speed>
  <fix>3d</fix>
</trkpt>
<trkpt lat="-27.2721947" lon="151.290064">
  <ele>493.15</ele>
  <time>2026-09-01T19:59:21Z</time>
  <course>11.16</course>
  <speed>0.26</speed>
  <fix>3d</fix>
</trkpt>
<trkpt lat="-27.272194" lon="151.290064">
  <ele>493.07</ele>
  <time>2026-09-01T19:59:21Z</time>
  <course>10.42</course>
  <speed>0.24083189157584592</speed>
  <fix>3d</fix>
</trkpt>
<trkpt lat="-27.2721947" lon="151.290064">
  <ele>493.15</ele>
  <time>2026-09-01T19:59:21Z</time>
  <course>11.16</course>
  <speed>0.26</speed>
  <fix>3d</fix>
</trkpt>
<trkpt lat="-27.2721938" lon="151.290064">
  <ele>493.07</ele>
  <time>2026-09-01T19:59:21Z</time>
  <course>10.42</course>
  <speed>0.2308679276123039</speed>
  <fix>3d</fix>
</trkpt>
<trkpt lat="-27.2721943" lon="151.2900641">
  <ele>493.15</ele>
  <time>2026-09-01T19:59:21Z</time>
  <course>11.3</course>
  <speed>0.24</speed>
  <fix>3d</fix>
</trkpt>
<trkpt lat="-27.2721936" lon="151.2900641">
  <ele>493.06</ele>
  <time>2026-09-01T19:59:21Z</time>
  <course>10.42</course>
  <speed>0.2109502310972899</speed>
  <fix>3d</fix>
</trkpt>
<trkpt lat="-27.2721943" lon="151.2900641">
  <ele>493.15</ele>
  <time>2026-09-01T19:59:21Z</time>
  <course>11.3</course>
  <speed>0.24</speed>
  <fix>3d</fix>
</trkpt>
<trkpt lat="-27.2721934" lon="151.2900641">
  <ele>493.06</ele>
  <time>2026-09-01T19:59:21Z</time>
  <course>10.42</course>
  <speed>0.2009975124224178</speed>
  <fix>3d</fix>
</trkpt>
<trkpt lat="-27.2721939" lon="151.2900642">
  <ele>493.15</ele>
  <time>2026-09-01T19:59:21Z</time>
  <course>11.37</course>
  <speed>0.21</speed>
  <fix>3d</fix>
</trkpt>
<trkpt lat="-27.2721932" lon="151.2900641">
  <ele>493.06</ele>
  <time>2026-09-01T19:59:21Z</time>
  <course>10.42</course>
  <speed>0.191049731745428</speed>
  <fix>3d</fix>
</trkpt>
<trkpt lat="-27.2721939" lon="151.2900642">
  <ele>493.15</ele>
  <time>2026-09-01T19:59:21Z</time>
  <course>11.37</course>
  <speed>0.21</speed>
  <fix>3d</fix>
</trkpt>
<trkpt lat="-27.2721931" lon="151.2900642">
  <ele>493.06</ele>
  <time>2026-09-01T19:59:21Z</time>
  <course>10.42</course>
  <speed>0.17029386365926402</speed>
  <fix>3d</fix>
</trkpt>
<trkpt lat="-27.2721935" lon="151.2900642">
  <ele>493.15</ele>
  <time>2026-09-01T19:59:21Z</time>
  <course>11.55</course>
  <speed>0.19</speed>
  <fix>3d</fix>
</trkpt>
<trkpt lat="-27.272193" lon="151.2900642">
  <ele>493.06</ele>
  <time>2026-09-01T19:59:21Z</time>
  <course>10.42</course>
  <speed>0.16031219541881397</speed>
  <fix>3d</fix>
</trkpt>
<trkpt lat="-27.2721935" lon="151.2900642">
  <ele>493.15</ele>
  <time>2026-09-01T19:59:21Z</time>
  <course>11.55</course>
  <speed>0.19</speed>
  <fix>3d</fix>
</trkpt>
<trkpt lat="-27.2721928" lon="151.2900642">
  <ele>493.06</ele>
  <time>2026-09-01T19:59:21Z</time>
  <course>10.42</course>
  <speed>0.15033296378372907</speed>
  <fix>3d</fix>
</trkpt>
<trkpt lat="-27.2721931" lon="151.2900643">
  <ele>493.15</ele>
  <time>2026-09-01T19:59:21Z</time>
  <course>11.93</course>
  <speed>0.16</speed>
  <fix>3d</fix>
</trkpt>
<trkpt lat="-27.2721927" lon="151.2900643">
  <ele>493.07</ele>
  <time>2026-09-01T19:59:21Z</time>
  <course>10.41</course>
  <speed>0.130384048104053</speed>
  <fix>3d</fix>
</trkpt>
<trkpt lat="-27.2721931" lon="151.2900643">
  <ele>493.15</ele>
  <time>2026-09-01T19:59:21Z</time>
  <course>11.93</course>
  <speed>0.16</speed>
  <fix>3d</fix>
</trkpt>
<trkpt lat="-27.2721926" lon="151.2900643">
  <ele>493.07</ele>
  <time>2026-09-01T19:59:21Z</time>
  <course>10.41</course>
  <speed>0.12041594578792296</speed>
  <fix>3d</fix>
</trkpt>
<trkpt lat="-27.2721929" lon="151.2900644">
  <ele>493.15</ele>
  <time>2026-09-01T19:59:21Z</time>
  <course>12.74</course>
  <speed>0.13</speed>
  <fix>3d</fix>
</trkpt>
<trkpt lat="-27.2721925" lon="151.2900643">
  <ele>493.07</ele>
  <time>2026-09-01T19:59:21Z</time>
  <course>10.41</course>
  <speed>0.11045361017187261</speed>
  <fix>3d</fix>
</trkpt>
<trkpt lat="-27.2721929" lon="151.2900644">
  <ele>493.15</ele>
  <time>2026-09-01T19:59:21Z</time>
  <course>12.74</course>
  <speed>0.13</speed>
  <fix>3d</fix>
</trkpt>
<trkpt lat="-27.2721924" lon="151.2900643">
  <ele>493.07</ele>
  <time>2026-09-01T19:59:21Z</time>
  <course>10.41</course>
  <speed>0.09</speed>
  <fix>3d</fix>
</trkpt>
<trkpt lat="-27.2721927" lon="151.2900645">
  <ele>493.15</ele>
  <time>2026-09-01T19:59:21Z</time>
  <course>14.07</course>
  <speed>0.11</speed>
  <fix>3d</fix>
</trkpt>
<trkpt lat="-27.2721924" lon="151.2900644">
  <ele>493.07</ele>
  <time>2026-09-01T19:59:21Z</time>
  <course>10.41</course>
  <speed>0.08</speed>
  <fix>3d</fix>
</trkpt>
<trkpt lat="-27.2721927" lon="151.2900645">
  <ele>493.15</ele>
  <time>2026-09-01T19:59:21Z</time>
  <course>14.07</course>
  <speed>0.11</speed>
  <fix>3d</fix>
</trkpt>
<trkpt lat="-27.2721923" lon="151.2900644">
  <ele>493.07</ele>
  <time>2026-09-01T19:59:21Z</time>
  <course>10.41</course>
  <speed>0.06</speed>
  <fix>3d</fix>
</trkpt>
<trkpt lat="-27.2721925" lon="151.2900645">
  <ele>493.15</ele>
  <time>2026-09-01T19:59:21Z</time>
  <course>15.67</course>
  <speed>0.08</speed>
  <fix>3d</fix>
</trkpt>
<trkpt lat="-27.2721923" lon="151.2900644">
  <ele>493.07</ele>
  <time>2026-09-01T19:59:21Z</time>
  <course>10.41</course>
  <speed>0.05</speed>
  <fix>3d</fix>
</trkpt>
<trkpt lat="-27.2721925" lon="151.2900645">
  <ele>493.15</ele>
  <time>2026-09-01T19:59:21Z</time>
  <course>15.67</course>
  <speed>0.08</speed>
  <fix>3d</fix>
</trkpt>
<trkpt lat="-27.2721923" lon="151.2900644">
  <ele>493.07</ele>
  <time>2026-09-01T19:59:21Z</time>
  <course>10.41</course>
  <speed>0.04</speed>
  <fix>3d</fix>
</trkpt>
<trkpt lat="-27.2721924" lon="151.2900646">
  <ele>493.16</ele>
  <time>2026-09-01T19:59:21Z</time>
  <course>18.2</course>
  <speed>0.05</speed>
  <fix>3d</fix>
</trkpt>
<trkpt lat="-27.2721922" lon="151.2900644">
  <ele>493.07</ele>
  <time>2026-09-01T19:59:21Z</time>
  <course>10.42</course>
  <speed>0.02</speed>
  <fix>3d</fix>
</trkpt>
<trkpt lat="-27.2721924" lon="151.2900646">
  <ele>493.16</ele>
  <time>2026-09-01T19:59:21Z</time>
  <course>18.2</course>
  <speed>0.05</speed>
  <fix>3d</fix>
</trkpt>
<trkpt lat="-27.2721922" lon="151.2900644">
  <ele>493.07</ele>
  <time>2026-09-01T19:59:21Z</time>
  <course>10.42</course>
  <speed>0.01</speed>
  <fix>3d</fix>
</trkpt>
<trkpt lat="-27.2721923" lon="151.2900646">
  <ele>493.16</ele>
  <time>2026-09-01T19:59:21Z</time>
  <course>25.87</course>
  <speed>0.02</speed>
  <fix>3d</fix>
</trkpt>
<trkpt lat="-27.2721922" lon="151.2900644">
  <ele>493.07</ele>
  <time>2026-09-01T19:59:21Z</time>
  <course>10.41</course>
  <speed>0.0</speed>
  <fix>3d</fix>
</trkpt>
<trkpt lat="-27.2721923" lon="151.2900646">
  <ele>493.16</ele>
  <time>2026-09-01T19:59:21Z</time>
  <course>25.87</course>
  <speed>0.02</speed>
  <fix>3d</fix>
</trkpt>
<trkpt lat="-27.2721922" lon="151.2900644">
  <ele>493.07</ele>
  <time>2026-09-01T19:59:21Z</time>
  <course>10.41</course>
  <speed>0.01</speed>
  <fix>3d</fix>
</trkpt>
<trkpt lat="-27.2721923" lon="151.2900646">
  <ele>493.16</ele>
  <time>2026-09-01T19:59:21Z</time>
  <course>111.02</course>
  <speed>0.0</speed>
  <fix>3d</fix>
</trkpt>
<trkpt lat="-27.2721923" lon="151.2900644">
  <ele>493.08</ele>
  <time>2026-09-01T19:59:21Z</time>
  <course>10.4</course>
  <speed>0.01414213562373095</speed>
  <fix>3d</fix>
</trkpt>
<trkpt lat="-27.2721923" lon="151.2900646">
  <ele>493.16</ele>
  <time>2026-09-01T19:59:21Z</time>
  <course>111.02</course>
  <speed>0.0</speed>
  <fix>3d</fix>
</trkpt>
<trkpt lat="-27.2721923" lon="151.2900644">
  <ele>493.07</ele>
  <time>2026-09-01T19:59:21Z</time>
  <course>10.41</course>
  <speed>0.022360679774997897</speed>
  <fix>3d</fix>
</trkpt>
<trkpt lat="-27.2721923" lon="151.2900646">
  <ele>493.16</ele>
  <time>2026-09-01T19:59:21Z</time>
  <course>176.91</course>
  <speed>0.02</speed>
  <fix>3d</fix>
</trkpt>
<trkpt lat="-27.2721923" lon="151.2900644">
  <ele>493.07</ele>
  <time>2026-09-01T19:59:21Z</time>
  <course>10.42</course>
  <speed>0.0316227766016838</speed>
  <fix>3d</fix>
</trkpt>
<trkpt lat="-27.2721923" lon="151.2900646">
  <ele>493.16</ele>
  <time>2026-09-01T19:59:21Z</time>
  <course>176.91</course>
  <speed>0.02</speed>
  <fix>3d</fix>
</trkpt>
<trkpt lat="-27.2721923" lon="151.2900644">
  <ele>493.07</ele>
  <time>2026-09-01T19:59:21Z</time>
  <course>10.43</course>
  <speed>0.0412310562561766</speed>
  <fix>3d</fix>
</trkpt>
<trkpt lat="-27.2721924" lon="151.2900646">
  <ele>493.16</ele>
  <time>2026-09-01T19:59:21Z</time>
  <course>183.53</course>
  <speed>0.04</speed>
  <fix>3d</fix>
</trkpt>
<trkpt lat="-27.2721924" lon="151.2900644">
  <ele>493.07</ele>
  <time>2026-09-01T19:59:21Z</time>
  <course>10.44</course>
  <speed>0.053851648071345036</speed>
  <fix>3d</fix>
</trkpt>
<trkpt lat="-27.2721924" lon="151.2900646">
  <ele>493.16</ele>
  <time>2026-09-01T19:59:21Z</time>
  <course>183.53</course>
  <speed>0.04</speed>
  <fix>3d</fix>
</trkpt>
<trkpt lat="-27.2721924" lon="151.2900645">
  <ele>493.07</ele>
  <time>2026-09-01T19:59:21Z</time>
  <course>10.45</course>
  <speed>0.053851648071345036</speed>
  <fix>3d</fix>
</trkpt>
<trkpt lat="-27.2721924" lon="151.2900646">
  <ele>493.16</ele>
  <time>2026-09-01T19:59:21Z</time>
  <course>186.04</course>
  <speed>0.06</speed>
  <fix>3d</fix>
</trkpt>
<trkpt lat="-27.2721925" lon="151.2900645">
  <ele>493.07</ele>
  <time>2026-09-01T19:59:21Z</time>
  <course>10.45</course>
  <speed>0.0632455532033676</speed>
  <fix>3d</fix>
</trkpt>
<trkpt lat="-27.2721924" lon="151.2900646">
  <ele>493.16</ele>
  <time>2026-09-01T19:59:21Z</time>
  <course>186.04</course>
  <speed>0.06</speed>
  <fix>3d</fix>
</trkpt>
<trkpt lat="-27.2721926" lon="151.2900645">
  <ele>493.07</ele>
  <time>2026-09-01T19:59:21Z</time>
  <course>10.45</course>
  <speed>0.07280109889280519</speed>
  <fix>3d</fix>
</trkpt>
<trkpt lat="-27.2721925" lon="151.2900646">
  <ele>493.16</ele>
  <time>2026-09-01T19:59:21Z</time>
  <course>187.54</course>
  <speed>0.08</speed>
  <fix>3d</fix>
</trkpt>
<trkpt lat="-27.2721926" lon="151.2900645">
  <ele>493.07</ele>
  <time>2026-09-01T19:59:21Z</time>
  <course>10.44</course>
  <speed>0.07280109889280519</speed>
  <fix>3d</fix>
</trkpt>
<trkpt lat="-27.2721925" lon="151.2900646">
  <ele>493.16</ele>
  <time>2026-09-01T19:59:21Z</time>
  <course>187.54</course>
  <speed>0.08</speed>
  <fix>3d</fix>
</trkpt>
<trkpt lat="-27.2721927" lon="151.2900645">
  <ele>493.07</ele>
  <time>2026-09-01T19:59:21Z</time>
  <course>10.42</course>
  <speed>0.07280109889280519</speed>
  <fix>3d</fix>
</trkpt>
<trkpt lat="-27.2721927" lon="151.2900646">
  <ele>493.16</ele>
  <time>2026-09-01T19:59:21Z</time>
  <course>188.45</course>
  <speed>0.09</speed>
  <fix>3d</fix>
</trkpt>
<trkpt lat="-27.2721928" lon="151.2900645">
  <ele>493.07</ele>
  <time>2026-09-01T19:59:21Z</time>
  <course>10.41</course>
  <speed>0.0824621125123532</speed>
  <fix>3d</fix>
</trkpt>
<trkpt lat="-27.2721927" lon="151.2900646">
  <ele>493.16</ele>
  <time>2026-09-01T19:59:21Z</time>
  <course>188.45</course>
  <speed>0.09</speed>
  <fix>3d</fix>
</trkpt>
<trkpt lat="-27.2721929" lon="151.2900644">
  <ele>493.06</ele>
  <time>2026-09-01T19:59:21Z</time>
  <course>10.41</course>
  <speed>0.0824621125123532</speed>
  <fix>3d</fix>
</trkpt>
<trkpt lat="-27.2721929" lon="151.2900646">
  <ele>493.16</ele>
  <time>2026-09-01T19:59:21Z</time>
  <course>189.05</course>
  <speed>0.1</speed>
  <fix>3d</fix>
</trkpt>
<trkpt lat="-27.272193" lon="151.2900644">
  <ele>493.06</ele>
  <time>2026-09-01T19:59:21Z</time>
  <course>10.42</course>
  <speed>0.0854400374531753</speed>
  <fix>3d</fix>
</trkpt>
<trkpt lat="-27.2721929" lon="151.2900646">
  <ele>493.16</ele>
  <time>2026-09-01T19:59:21Z</time>
  <course>189.05</course>
  <speed>0.1</speed>
  <fix>3d</fix>
</trkpt>
<trkpt lat="-27.2721931" lon="151.2900644">
  <ele>493.06</ele>
  <time>2026-09-01T19:59:21Z</time>
  <course>10.43</course>
  <speed>0.0854400374531753</speed>
  <fix>3d</fix>
</trkpt>
<trkpt lat="-27.2721931" lon="151.2900646">
  <ele>493.16</ele>
  <time>2026-09-01T19:59:21Z</time>
  <course>189.57</course>
  <speed>0.11</speed>
  <fix>3d</fix>
</trkpt>
<trkpt lat="-27.2721932" lon="151.2900644">
  <ele>493.06</ele>
  <time>2026-09-01T19:59:21Z</time>
  <course>10.44</course>
  <speed>0.0854400374531753</speed>
  <fix>3d</fix>
</trkpt>
<trkpt lat="-27.2721931" lon="151.2900646">
  <ele>493.16</ele>
  <time>2026-09-01T19:59:21Z</time>
  <course>189.57</course>
  <speed>0.11</speed>
  <fix>3d</fix>
</trkpt>
<trkpt lat="-27.2721933" lon="151.2900644">
  <ele>493.06</ele>
  <time>2026-09-01T19:59:21Z</time>
  <course>10.46</course>
  <speed>0.0854400374531753</speed>
  <fix>3d</fix>
</trkpt>
<trkpt lat="-27.2721933" lon="151.2900646">
  <ele>493.16</ele>
  <time>2026-09-01T19:59:21Z</time>
  <course>190.09</course>
  <speed>0.11</speed>
  <fix>3d</fix>
</trkpt>
<trkpt lat="-27.2721934" lon="151.2900644">
  <ele>493.06</ele>
  <time>2026-09-01T19:59:21Z</time>
  <course>10.47</course>
  <speed>0.0854400374531753</speed>
  <fix>3d</fix>
</trkpt>
<trkpt lat="-27.2721933" lon="151.2900646">
  <ele>493.16</ele>
  <time>2026-09-01T19:59:21Z</time>
  <course>190.09</course>
  <speed>0.11</speed>
  <fix>3d</fix>
</trkpt>
<trkpt lat="-27.2721935" lon="151.2900644">
  <ele>493.06</ele>
  <time>2026-09-01T19:59:21Z</time>
  <course>10.48</course>
  <speed>0.0854400374531753</speed>
  <fix>3d</fix>
</trkpt>
<trkpt lat="-27.2721935" lon="151.2900645">
  <ele>493.17</ele>
  <time>2026-09-01T19:59:21Z</time>
  <course>190.56</course>
  <speed>0.11</speed>
  <fix>3d</fix>
</trkpt>
<trkpt lat="-27.2721936" lon="151.2900644">
  <ele>493.07</ele>
  <time>2026-09-01T19:59:22Z</time>
  <course>10.47</course>
  <speed>0.0854400374531753</speed>
  <fix>3d</fix>
</trkpt>
<trkpt lat="-27.2721935" lon="151.2900645">
  <ele>493.17</ele>
  <time>2026-09-01T19:59:22Z</time>
  <course>190.56</course>
  <speed>0.11</speed>
  <fix>3d</fix>
</trkpt>
<trkpt lat="-27.2721937" lon="151.2900643">
  <ele>493.07</ele>
  <time>2026-09-01T19:59:22Z</time>
  <course>10.46</course>
  <speed>0.0854400374531753</speed>
  <fix>3d</fix>
</trkpt>
<trkpt lat="-27.2721937" lon="151.2900645">
  <ele>493.17</ele>
  <time>2026-09-01T19:59:22Z</time>
  <course>190.8</course>
  <speed>0.11</speed>
  <fix>3d</fix>
</trkpt>
<trkpt lat="-27.2721937" lon="151.2900643">
  <ele>493.07</ele>
  <time>2026-09-01T19:59:22Z</time>
  <course>10.44</course>
  <speed>0.07280109889280519</speed>
  <fix>3d</fix>
</trkpt>
<trkpt lat="-27.2721937" lon="151.2900645">
  <ele>493.17</ele>
  <time>2026-09-01T19:59:22Z</time>
  <course>190.8</course>
  <speed>0.11</speed>
  <fix>3d</fix>
</trkpt>
<trkpt lat="-27.2721938" lon="151.2900643">
  <ele>493.07</ele>
  <time>2026-09-01T19:59:22Z</time>
  <course>10.42</course>
  <speed>0.07280109889280519</speed>
  <fix>3d</fix>
</trkpt>
<trkpt lat="-27.2721939" lon="151.2900644">
  <ele>493.17</ele>
  <time>2026-09-01T19:59:22Z</time>
  <course>190.9</course>
  <speed>0.11</speed>
  <fix>3d</fix>
</trkpt>
<trkpt lat="-27.2721939" lon="151.2900643">
  <ele>493.07</ele>
  <time>2026-09-01T19:59:22Z</time>
  <course>10.4</course>
  <speed>0.0632455532033676</speed>
  <fix>3d</fix>
</trkpt>
<trkpt lat="-27.2721939" lon="151.2900644">
  <ele>493.17</ele>
  <time>2026-09-01T19:59:22Z</time>
  <course>190.9</course>
  <speed>0.11</speed>
  <fix>3d</fix>
</trkpt>
<trkpt lat="-27.272194" lon="151.2900643">
  <ele>493.07</ele>
  <time>2026-09-01T19:59:22Z</time>
  <course>10.38</course>
  <speed>0.0632455532033676</speed>
  <fix>3d</fix>
</trkpt>
<trkpt lat="-27.2721941" lon="151.2900644">
  <ele>493.18</ele>
  <time>2026-09-01T19:59:22Z</time>
  <course>191.25</course>
  <speed>0.1</speed>
  <fix>3d</fix>
</trkpt>
<trkpt lat="-27.2721941" lon="151.2900643">
  <ele>493.07</ele>
  <time>2026-09-01T19:59:22Z</time>
  <course>10.38</course>
  <speed>0.0632455532033676</speed>
  <fix>3d</fix>
</trkpt>
<trkpt lat="-27.2721941" lon="151.2900644">
  <ele>493.18</ele>
  <time>2026-09-01T19:59:22Z</time>
  <course>191.25</course>
  <speed>0.1</speed>
  <fix>3d</fix>
</trkpt>
<trkpt lat="-27.2721942" lon="151.2900643">
  <ele>493.07</ele>
  <time>2026-09-01T19:59:22Z</time>
  <course>10.38</course>
  <speed>0.053851648071345036</speed>
  <fix>3d</fix>
</trkpt>
<trkpt lat="-27.2721942" lon="151.2900644">
  <ele>493.18</ele>
  <time>2026-09-01T19:59:22Z</time>
  <course>191.94</course>
  <speed>0.09</speed>
  <fix>3d</fix>
</trkpt>
<trkpt lat="-27.2721942" lon="151.2900642">
  <ele>493.07</ele>
  <time>2026-09-01T19:59:22Z</time>
  <course>10.38</course>
  <speed>0.053851648071345036</speed>
  <fix>3d</fix>
</trkpt>
<trkpt lat="-27.2721942" lon="151.2900644">
  <ele>493.18</ele>
  <time>2026-09-01T19:59:22Z</time>
  <course>191.94</course>
  <speed>0.09</speed>
  <fix>3d</fix>
</trkpt>
<trkpt lat="-27.2721943" lon="151.2900642">
  <ele>493.07</ele>
  <time>2026-09-01T19:59:22Z</time>
  <course>10.39</course>
  <speed>0.044721359549995794</speed>
  <fix>3d</fix>
</trkpt>
<trkpt lat="-27.2721943" lon="151.2900643">
  <ele>493.18</ele>
  <time>2026-09-01T19:59:22Z</time>
  <course>192.96</course>
  <speed>0.08</speed>
  <fix>3d</fix>
</trkpt>
<trkpt lat="-27.2721943" lon="151.2900642">
  <ele>493.07</ele>
  <time>2026-09-01T19:59:22Z</time>
  <course>10.39</course>
  <speed>0.03605551275463989</speed>
  <fix>3d</fix>
</trkpt>
<trkpt lat="-27.2721943" lon="151.2900643">
  <ele>493.18</ele>
  <time>2026-09-01T19:59:22Z</time>
  <course>192.96</course>
  <speed>0.08</speed>
  <fix>3d</fix>
</trkpt>
<trkpt lat="-27.2721944" lon="151.2900642">
  <ele>493.07</ele>
  <time>2026-09-01T19:59:22Z</time>
  <course>10.4</course>
  <speed>0.03605551275463989</speed>
  <fix>3d</fix>
</trkpt>
<trkpt lat="-27.2721945" lon="151.2900642">
  <ele>493.18</ele>
  <time>2026-09-01T19:59:22Z</time>
  <course>194.16</course>
  <speed>0.07</speed>
  <fix>3d</fix>
</trkpt>
<trkpt lat="-27.2721944" lon="151.2900642">
  <ele>493.07</ele>
  <time>2026-09-01T19:59:22Z</time>
  <course>10.4</course>
  <speed>0.0282842712474619</speed>
  <fix>3d</fix>
</trkpt>
<trkpt lat="-27.2721945" lon="151.2900642">
  <ele>493.18</ele>
  <time>2026-09-01T19:59:22Z</time>
  <course>194.16</course>
  <speed>0.07</speed>
  <fix>3d</fix>
</trkpt>
<trkpt lat="-27.2721945" lon="151.2900642">
  <ele>493.07</ele>
  <time>2026-09-01T19:59:22Z</time>
  <course>10.4</course>
  <speed>0.0282842712474619</speed>
  <fix>3d</fix>
</trkpt>
<trkpt lat="-27.2721946" lon="151.2900642">
  <ele>493.18</ele>
  <time>2026-09-01T19:59:22Z</time>
  <course>195.24</course>
  <speed>0.06</speed>
  <fix>3d</fix>
</trkpt>
<trkpt lat="-27.2721945" lon="151.2900641">
  <ele>493.07</ele>
  <time>2026-09-01T19:59:22Z</time>
  <course>10.4</course>
  <speed>0.022360679774997897</speed>
  <fix>3d</fix>
</trkpt>
<trkpt lat="-27.2721946" lon="151.2900642">
  <ele>493.18</ele>
  <time>2026-09-01T19:59:22Z</time>
  <course>195.24</course>
  <speed>0.06</speed>
  <fix>3d</fix>
</trkpt>
<trkpt lat="-27.2721946" lon="151.2900641">
  <ele>493.07</ele>
  <time>2026-09-01T19:59:22Z</time>
  <course>10.4</course>
  <speed>0.022360679774997897</speed>
  <fix>3d</fix>
</trkpt>
<trkpt lat="-27.2721947" lon="151.2900642">
  <ele>493.18</ele>
  <time>2026-09-01T19:59:22Z</time>
  <course>196.35</course>
  <speed>0.05</speed>
  <fix>3d</fix>
</trkpt>
<trkpt lat="-27.2721946" lon="151.2900641">
  <ele>493.07</ele>
  <time>2026-09-01T19:59:22Z</time>
  <course>10.4</course>
  <speed>0.02</speed>
  <fix>3d</fix>
</trkpt>
<trkpt lat="-27.2721947" lon="151.2900642">
  <ele>493.18</ele>
  <time>2026-09-01T19:59:22Z</time>
  <course>196.35</course>
  <speed>0.05</speed>
  <fix>3d</fix>
</trkpt>
<trkpt lat="-27.2721946" lon="151.2900641">
  <ele>493.07</ele>
  <time>2026-09-01T19:59:22Z</time>
  <course>10.4</course>
  <speed>0.02</speed>
  <fix>3d</fix>
</trkpt>
<trkpt lat="-27.2721948" lon="151.2900642">
  <ele>493.18</ele>
  <time>2026-09-01T19:59:22Z</time>
  <course>197.93</course>
  <speed>0.04</speed>
  <fix>3d</fix>
</trkpt>
<trkpt lat="-27.2721946" lon="151.2900641">
  <ele>493.07</ele>
  <time>2026-09-01T19:59:22Z</time>
  <course>10.4</course>
  <speed>0.01</speed>
  <fix>3d</fix>
</trkpt>
<trkpt lat="-27.2721948" lon="151.2900642">
  <ele>493.18</ele>
  <time>2026-09-01T19:59:22Z</time>
  <course>197.93</course>
  <speed>0.04</speed>
  <fix>3d</fix>
</trkpt>
<trkpt lat="-27.2721946" lon="151.2900641">
  <ele>493.07</ele>
  <time>2026-09-01T19:59:22Z</time>
  <course>10.4</course>
  <speed>0.01414213562373095</speed>
  <fix>3d</fix>
</trkpt>
<trkpt lat="-27.2721949" lon="151.2900642">
  <ele>493.18</ele>
  <time>2026-09-01T19:59:22Z</time>
  <course>201.13</course>
  <speed>0.03</speed>
  <fix>3d</fix>
</trkpt>
<trkpt lat="-27.2721946" lon="151.2900641">
  <ele>493.07</ele>
  <time>2026-09-01T19:59:22Z</time>
  <course>10.41</course>
  <speed>0.022360679774997897</speed>
  <fix>3d</fix>
</trkpt>
<trkpt lat="-27.2721949" lon="151.2900642">
  <ele>493.18</ele>
  <time>2026-09-01T19:59:22Z</time>
  <course>201.13</course>
  <speed>0.03</speed>
  <fix>3d</fix>
</trkpt>
<trkpt lat="-27.2721947" lon="151.2900641">
  <ele>493.07</ele>
  <time>2026-09-01T19:59:22Z</time>
  <course>10.4</course>
  <speed>0.022360679774997897</speed>
  <fix>3d</fix>
</trkpt>
<trkpt lat="-27.272195" lon="151.2900641">
  <ele>493.18</ele>
  <time>2026-09-01T19:59:22Z</time>
  <course>210.22</course>
  <speed>0.01</speed>
  <fix>3d</fix>
</trkpt>
<trkpt lat="-27.2721946" lon="151.2900641">
  <ele>493.07</ele>
  <time>2026-09-01T19:59:22Z</time>
  <course>10.4</course>
  <speed>0.0316227766016838</speed>
  <fix>3d</fix>
</trkpt>
<trkpt lat="-27.272195" lon="151.2900641">
  <ele>493.18</ele>
  <time>2026-09-01T19:59:22Z</time>
  <course>210.22</course>
  <speed>0.01</speed>
  <fix>3d</fix>
</trkpt>
<trkpt lat="-27.2721946" lon="151.2900641">
  <ele>493.07</ele>
  <time>2026-09-01T19:59:22Z</time>
  <course>10.41</course>
  <speed>0.0316227766016838</speed>
  <fix>3d</fix>
</trkpt>
<trkpt lat="-27.272195" lon="151.2900641">
  <ele>493.18</ele>
  <time>2026-09-01T19:59:22Z</time>
  <course>254.59</course>
  <speed>0.0</speed>
  <fix>3d</fix>
</trkpt>
<trkpt lat="-27.2721946" lon="151.2900641">
  <ele>493.07</ele>
  <time>2026-09-01T19:59:22Z</time>
  <course>10.41</course>
  <speed>0.0412310562561766</speed>
  <fix>3d</fix>
</trkpt>
<trkpt lat="-27.272195" lon="151.2900641">
  <ele>493.18</ele>
  <time>2026-09-01T19:59:22Z</time>
  <course>254.59</course>
  <speed>0.0</speed>
  <fix>3d</fix>
</trkpt>
<trkpt lat="-27.2721946" lon="151.2900641">
  <ele>493.07</ele>
  <time>2026-09-01T19:59:22Z</time>
  <course>10.41</course>
  <speed>0.0412310562561766</speed>
  <fix>3d</fix>
</trkpt>
<trkpt lat="-27.272195" lon="151.2900641">
  <ele>493.18</ele>
  <time>2026-09-01T19:59:22Z</time>
  <course>337.56</course>
  <speed>0.01</speed>
  <fix>3d</fix>
</trkpt>
<trkpt lat="-27.2721946" lon="151.2900641">
  <ele>493.07</ele>
  <time>2026-09-01T19:59:22Z</time>
  <course>10.41</course>
  <speed>0.05099019513592785</speed>
  <fix>3d</fix>
</trkpt>
<trkpt lat="-27.272195" lon="151.2900641">
  <ele>493.18</ele>
  <time>2026-09-01T19:59:22Z</time>
  <course>337.56</course>
  <speed>0.01</speed>
  <fix>3d</fix>
</trkpt>
<trkpt lat="-27.2721947" lon="151.2900641">
  <ele>493.07</ele>
  <time>2026-09-01T19:59:22Z</time>
  <course>10.41</course>
  <speed>0.05099019513592785</speed>
  <fix>3d</fix>
</trkpt>
<trkpt lat="-27.2721949" lon="151.2900641">
  <ele>493.19</ele>
  <time>2026-09-01T19:59:22Z</time>
  <course>354.16</course>
  <speed>0.02</speed>
  <fix>3d</fix>
</trkpt>
<trkpt lat="-27.2721947" lon="151.2900641">
  <ele>493.07</ele>
  <time>2026-09-01T19:59:22Z</time>
  <course>10.41</course>
  <speed>0.06</speed>
  <fix>3d</fix>
</trkpt>
<trkpt lat="-27.2721949" lon="151.2900641">
  <ele>493.19</ele>
  <time>2026-09-01T19:59:22Z</time>
  <course>354.16</course>
  <speed>0.02</speed>
  <fix>3d</fix>
</trkpt>
<trkpt lat="-27.2721946" lon="151.2900641">
  <ele>493.08</ele>
  <time>2026-09-01T19:59:22Z</time>
  <course>10.41</course>
  <speed>0.06</speed>
  <fix>3d</fix>
</trkpt>
<trkpt lat="-27.2721949" lon="151.2900641">
  <ele>493.19</ele>
  <time>2026-09-01T19:59:22Z</time>
  <course>359.61</course>
  <speed>0.03</speed>
  <fix>3d</fix>
</trkpt>
<trkpt lat="-27.2721946" lon="151.2900641">
  <ele>493.08</ele>
  <time>2026-09-01T19:59:22Z</time>
  <course>10.41</course>
  <speed>0.06</speed>
  <fix>3d</fix>
</trkpt>
<trkpt lat="-27.2721949" lon="151.2900641">
  <ele>493.19</ele>
  <time>2026-09-01T19:59:22Z</time>
  <course>359.61</course>
  <speed>0.03</speed>
  <fix>3d</fix>
</trkpt>
<trkpt lat="-27.2721946" lon="151.2900641">
  <ele>493.08</ele>
  <time>2026-09-01T19:59:22Z</time>
  <course>10.41</course>
  <speed>0.07</speed>
  <fix>3d</fix>
</trkpt>
<trkpt lat="-27.2721949" lon="151.2900641">
  <ele>493.19</ele>
  <time>2026-09-01T19:59:22Z</time>
  <course>2.51</course>
  <speed>0.03</speed>
  <fix>3d</fix>
</trkpt>
<trkpt lat="-27.2721945" lon="151.2900641">
  <ele>493.08</ele>
  <time>2026-09-01T19:59:22Z</time>
  <course>10.41</course>
  <speed>0.07</speed>
  <fix>3d</fix>
</trkpt>
<trkpt lat="-27.2721949" lon="151.2900641">
  <ele>493.19</ele>
  <time>2026-09-01T19:59:22Z</time>
  <course>2.51</course>
  <speed>0.03</speed>
  <fix>3d</fix>
</trkpt>
<trkpt lat="-27.2721945" lon="151.2900641">
  <ele>493.07</ele>
  <time>2026-09-01T19:59:22Z</time>
  <course>10.41</course>
  <speed>0.07</speed>
  <fix>3d</fix>
</trkpt>
<trkpt lat="-27.2721948" lon="151.2900641">
  <ele>493.19</ele>
  <time>2026-09-01T19:59:22Z</time>
  <course>4.48</course>
  <speed>0.04</speed>
  <fix>3d</fix>
</trkpt>
<trkpt lat="-27.2721944" lon="151.2900641">
  <ele>493.07</ele>
  <time>2026-09-01T19:59:22Z</time>
  <course>10.41</course>
  <speed>0.08</speed>
  <fix>3d</fix>
</trkpt>
<trkpt lat="-27.2721948" lon="151.2900641">
  <ele>493.19</ele>
  <time>2026-09-01T19:59:22Z</time>
  <course>4.48</course>
  <speed>0.04</speed>
  <fix>3d</fix>
</trkpt>
<trkpt lat="-27.2721944" lon="151.2900641">
  <ele>493.07</ele>
  <time>2026-09-01T19:59:22Z</time>
  <course>10.41</course>
  <speed>0.08</speed>
  <fix>3d</fix>
</trkpt>
<trkpt lat="-27.2721947" lon="151.2900641">
  <ele>493.19</ele>
  <time>2026-09-01T19:59:22Z</time>
  <course>5.93</course>
  <speed>0.05</speed>
  <fix>3d</fix>
</trkpt>
<trkpt lat="-27.2721943" lon="151.2900641">
  <ele>493.06</ele>
  <time>2026-09-01T19:59:22Z</time>
  <course>10.41</course>
  <speed>0.08</speed>
  <fix>3d</fix>
</trkpt>
<trkpt lat="-27.2721947" lon="151.2900641">
  <ele>493.19</ele>
  <time>2026-09-01T19:59:22Z</time>
  <course>5.93</course>
  <speed>0.05</speed>
  <fix>3d</fix>
</trkpt>
<trkpt lat="-27.2721943" lon="151.2900641">
  <ele>493.06</ele>
  <time>2026-09-01T19:59:22Z</time>
  <course>10.41</course>
  <speed>0.08</speed>
  <fix>3d</fix>
</trkpt>
<trkpt lat="-27.2721946" lon="151.2900641">
  <ele>493.19</ele>
  <time>2026-09-01T19:59:22Z</time>
  <course>6.72</course>
  <speed>0.05</speed>
  <fix>3d</fix>
</trkpt>
<trkpt lat="-27.2721942" lon="151.2900641">
  <ele>493.06</ele>
  <time>2026-09-01T19:59:22Z</time>
  <course>10.41</course>
  <speed>0.08</speed>
  <fix>3d</fix>
</trkpt>
<trkpt lat="-27.2721946" lon="151.2900641">
  <ele>493.19</ele>
  <time>2026-09-01T19:59:22Z</time>
  <course>6.72</course>
  <speed>0.05</speed>
  <fix>3d</fix>
</trkpt>
<trkpt lat="-27.2721942" lon="151.2900641">
  <ele>493.06</ele>
  <time>2026-09-01T19:59:22Z</time>
  <course>10.41</course>
  <speed>0.08</speed>
  <fix>3d</fix>
</trkpt>
<trkpt lat="-27.2721945" lon="151.2900641">
  <ele>493.19</ele>
  <time>2026-09-01T19:59:22Z</time>
  <course>7.09</course>
  <speed>0.06</speed>
  <fix>3d</fix>
</trkpt>
<trkpt lat="-27.2721941" lon="151.2900641">
  <ele>493.06</ele>
  <time>2026-09-01T19:59:22Z</time>
  <course>10.4</course>
  <speed>0.09</speed>
  <fix>3d</fix>
</trkpt>
<trkpt lat="-27.2721945" lon="151.2900641">
  <ele>493.19</ele>
  <time>2026-09-01T19:59:22Z</time>
  <course>7.09</course>
  <speed>0.06</speed>
  <fix>3d</fix>
</trkpt>
<trkpt lat="-27.2721941" lon="151.2900641">
  <ele>493.06</ele>
  <time>2026-09-01T19:59:22Z</time>
  <course>10.4</course>
  <speed>0.09</speed>
  <fix>3d</fix>
</trkpt>
<trkpt lat="-27.2721944" lon="151.2900641">
  <ele>493.19</ele>
  <time>2026-09-01T19:59:22Z</time>
  <course>7.38</course>
  <speed>0.06</speed>
  <fix>3d</fix>
</trkpt>
<trkpt lat="-27.272194" lon="151.2900641">
  <ele>493.06</ele>
  <time>2026-09-01T19:59:22Z</time>
  <course>10.4</course>
  <speed>0.09</speed>
  <fix>3d</fix>
</trkpt>
<trkpt lat="-27.2721944" lon="151.2900641">
  <ele>493.19</ele>
  <time>2026-09-01T19:59:22Z</time>
  <course>7.38</course>
  <speed>0.06</speed>
  <fix>3d</fix>
</trkpt>
<trkpt lat="-27.272194" lon="151.2900641">
  <ele>493.07</ele>
  <time>2026-09-01T19:59:22Z</time>
  <course>10.4</course>
  <speed>0.09</speed>
  <fix>3d</fix>
</trkpt>
<trkpt lat="-27.2721943" lon="151.2900641">
  <ele>493.19</ele>
  <time>2026-09-01T19:59:22Z</time>
  <course>7.77</course>
  <speed>0.06</speed>
  <fix>3d</fix>
</trkpt>
<trkpt lat="-27.2721939" lon="151.2900641">
  <ele>493.07</ele>
  <time>2026-09-01T19:59:22Z</time>
  <course>10.4</course>
  <speed>0.09</speed>
  <fix>3d</fix>
</trkpt>
<trkpt lat="-27.2721943" lon="151.2900641">
  <ele>493.19</ele>
  <time>2026-09-01T19:59:22Z</time>
  <course>7.77</course>
  <speed>0.06</speed>
  <fix>3d</fix>
</trkpt>
<trkpt lat="-27.2721939" lon="151.2900641">
  <ele>493.07</ele>
  <time>2026-09-01T19:59:22Z</time>
  <course>10.4</course>
  <speed>0.09</speed>
  <fix>3d</fix>
</trkpt>
<trkpt lat="-27.2721942" lon="151.2900641">
  <ele>493.19</ele>
  <time>2026-09-01T19:59:22Z</time>
  <course>8.57</course>
  <speed>0.07</speed>
  <fix>3d</fix>
</trkpt>
<trkpt lat="-27.2721938" lon="151.2900641">
  <ele>493.08</ele>
  <time>2026-09-01T19:59:22Z</time>
  <course>10.41</course>
  <speed>0.08</speed>
  <fix>3d</fix>
</trkpt>
<trkpt lat="-27.2721942" lon="151.2900641">
  <ele>493.19</ele>
  <time>2026-09-01T19:59:22Z</time>
  <course>8.57</course>
  <speed>0.07</speed>
  <fix>3d</fix>
</trkpt>
<trkpt lat="-27.2721938" lon="151.2900641">
  <ele>493.08</ele>
  <time>2026-09-01T19:59:22Z</time>
  <course>10.41</course>
  <speed>0.08</speed>
  <fix>3d</fix>
</trkpt>
<trkpt lat="-27.272194" lon="151.2900641">
  <ele>493.19</ele>
  <time>2026-09-01T19:59:22Z</time>
  <course>9.8</course>
  <speed>0.06</speed>
  <fix>3d</fix>
</trkpt>
<trkpt lat="-27.2721937" lon="151.2900641">
  <ele>493.08</ele>
  <time>2026-09-01T19:59:22Z</time>
  <course>10.41</course>
  <speed>0.08</speed>
  <fix>3d</fix>
</trkpt>
<trkpt lat="-27.272194" lon="151.2900641">
  <ele>493.19</ele>
  <time>2026-09-01T19:59:22Z</time>
  <course>9.8</course>
  <speed>0.06</speed>
  <fix>3d</fix>
</trkpt>
<trkpt lat="-27.2721936" lon="151.2900641">
  <ele>493.08</ele>
  <time>2026-09-01T19:59:22Z</time>
  <course>10.41</course>
  <speed>0.08</speed>
  <fix>3d</fix>
</trkpt>
<trkpt lat="-27.2721939" lon="151.2900641">
  <ele>493.2</ele>
  <time>2026-09-01T19:59:22Z</time>
  <course>11.13</course>
  <speed>0.06</speed>
  <fix>3d</fix>
</trkpt>
<trkpt lat="-27.2721936" lon="151.2900641">
  <ele>493.08</ele>
  <time>2026-09-01T19:59:22Z</time>
  <course>10.41</course>
  <speed>0.08</speed>
  <fix>3d</fix>
</trkpt>
<trkpt lat="-27.2721939" lon="151.2900641">
  <ele>493.2</ele>
  <time>2026-09-01T19:59:22Z</time>
  <course>11.13</course>
  <speed>0.06</speed>
  <fix>3d</fix>
</trkpt>
<trkpt lat="-27.2721935" lon="151.2900641">
  <ele>493.08</ele>
  <time>2026-09-01T19:59:22Z</time>
  <course>10.41</course>
  <speed>0.07</speed>
  <fix>3d</fix>
</trkpt>
<trkpt lat="-27.2721938" lon="151.2900642">
  <ele>493.2</ele>
  <time>2026-09-01T19:59:22Z</time>
  <course>12.39</course>
  <speed>0.06</speed>
  <fix>3d</fix>
</trkpt>
<trkpt lat="-27.2721935" lon="151.2900641">
  <ele>493.08</ele>
  <time>2026-09-01T19:59:22Z</time>
  <course>10.4</course>
  <speed>0.07</speed>
  <fix>3d</fix>
</trkpt>
<trkpt lat="-27.2721938" lon="151.2900642">
  <ele>493.2</ele>
  <time>2026-09-01T19:59:22Z</time>
  <course>12.39</course>
  <speed>0.06</speed>
  <fix>3d</fix>
</trkpt>
<trkpt lat="-27.2721935" lon="151.2900641">
  <ele>493.08</ele>
  <time>2026-09-01T19:59:22Z</time>
  <course>10.4</course>
  <speed>0.07</speed>
  <fix>3d</fix>
</trkpt>
<trkpt lat="-27.2721937" lon="151.2900642">
  <ele>493.2</ele>
  <time>2026-09-01T19:59:22Z</time>
  <course>13.92</course>
  <speed>0.05</speed>
  <fix>3d</fix>
</trkpt>
<trkpt lat="-27.2721934" lon="151.2900641">
  <ele>493.08</ele>
  <time>2026-09-01T19:59:22Z</time>
  <course>10.4</course>
  <speed>0.06</speed>
  <fix>3d</fix>
</trkpt>
<trkpt lat="-27.2721937" lon="151.2900642">
  <ele>493.2</ele>
  <time>2026-09-01T19:59:22Z</time>
  <course>13.92</course>
  <speed>0.05</speed>
  <fix>3d</fix>
</trkpt>
<trkpt lat="-27.2721934" lon="151.2900641">
  <ele>493.08</ele>
  <time>2026-09-01T19:59:22Z</time>
  <course>10.4</course>
  <speed>0.06</speed>
  <fix>3d</fix>
</trkpt>
<trkpt lat="-27.2721936" lon="151.2900642">
  <ele>493.19</ele>
  <time>2026-09-01T19:59:22Z</time>
  <course>15.95</course>
  <speed>0.05</speed>
  <fix>3d</fix>
</trkpt>
<trkpt lat="-27.2721933" lon="151.2900641">
  <ele>493.08</ele>
  <time>2026-09-01T19:59:22Z</time>
  <course>10.4</course>
  <speed>0.06</speed>
  <fix>3d</fix>
</trkpt>
<trkpt lat="-27.2721936" lon="151.2900642">
  <ele>493.19</ele>
  <time>2026-09-01T19:59:22Z</time>
  <course>15.95</course>
  <speed>0.05</speed>
  <fix>3d</fix>
</trkpt>
<trkpt lat="-27.2721933" lon="151.2900641">
  <ele>493.08</ele>
  <time>2026-09-01T19:59:22Z</time>
  <course>10.4</course>
  <speed>0.05</speed>
  <fix>3d</fix>
</trkpt>
<trkpt lat="-27.2721935" lon="151.2900642">
  <ele>493.19</ele>
  <time>2026-09-01T19:59:22Z</time>
  <course>18.47</course>
  <speed>0.04</speed>
  <fix>3d</fix>
</trkpt>
<trkpt lat="-27.2721933" lon="151.2900641">
  <ele>493.08</ele>
  <time>2026-09-01T19:59:22Z</time>
  <course>10.4</course>
  <speed>0.05</speed>
  <fix>3d</fix>
</trkpt>
<trkpt lat="-27.2721935" lon="151.2900642">
  <ele>493.19</ele>
  <time>2026-09-01T19:59:22Z</time>
  <course>18.47</course>
  <speed>0.04</speed>
  <fix>3d</fix>
</trkpt>
<trkpt lat="-27.2721932" lon="151.2900642">
  <ele>493.08</ele>
  <time>2026-09-01T19:59:22Z</time>
  <course>10.4</course>
  <speed>0.05</speed>
  <fix>3d</fix>
</trkpt>
<trkpt lat="-27.2721934" lon="151.2900642">
  <ele>493.19</ele>
  <time>2026-09-01T19:59:22Z</time>
  <course>21.6</course>
  <speed>0.04</speed>
  <fix>3d</fix>
</trkpt>
<trkpt lat="-27.2721932" lon="151.2900642">
  <ele>493.08</ele>
  <time>2026-09-01T19:59:22Z</time>
  <course>10.41</course>
  <speed>0.05</speed>
  <fix>3d</fix>
</trkpt>
<trkpt lat="-27.2721934" lon="151.2900642">
  <ele>493.19</ele>
  <time>2026-09-01T19:59:22Z</time>
  <course>21.6</course>
  <speed>0.04</speed>
  <fix>3d</fix>
</trkpt>
<trkpt lat="-27.2721932" lon="151.2900642">
  <ele>493.08</ele>
  <time>2026-09-01T19:59:22Z</time>
  <course>10.41</course>
  <speed>0.04</speed>
  <fix>3d</fix>
</trkpt>
<trkpt lat="-27.2721934" lon="151.2900643">
  <ele>493.18</ele>
  <time>2026-09-01T19:59:22Z</time>
  <course>25.31</course>
  <speed>0.03</speed>
  <fix>3d</fix>
</trkpt>
<trkpt lat="-27.2721932" lon="151.2900642">
  <ele>493.08</ele>
  <time>2026-09-01T19:59:22Z</time>
  <course>10.41</course>
  <speed>0.04</speed>
  <fix>3d</fix>
</trkpt>
<trkpt lat="-27.2721934" lon="151.2900643">
  <ele>493.18</ele>
  <time>2026-09-01T19:59:22Z</time>
  <course>25.31</course>
  <speed>0.03</speed>
  <fix>3d</fix>
</trkpt>
<trkpt lat="-27.2721931" lon="151.2900642">
  <ele>493.08</ele>
  <time>2026-09-01T19:59:22Z</time>
  <course>10.41</course>
  <speed>0.03</speed>
  <fix>3d</fix>
</trkpt>
<trkpt lat="-27.2721933" lon="151.2900644">
  <ele>493.18</ele>
  <time>2026-09-01T19:59:22Z</time>
  <course>29.81</course>
  <speed>0.03</speed>
  <fix>3d</fix>
</trkpt>
<trkpt lat="-27.2721931" lon="151.2900642">
  <ele>493.08</ele>
  <time>2026-09-01T19:59:22Z</time>
  <course>10.41</course>
  <speed>0.03</speed>
  <fix>3d</fix>
</trkpt>
<trkpt lat="-27.2721933" lon="151.2900644">
  <ele>493.18</ele>
  <time>2026-09-01T19:59:22Z</time>
  <course>29.81</course>
  <speed>0.03</speed>
  <fix>3d</fix>
</trkpt>
<trkpt lat="-27.2721931" lon="151.2900642">
  <ele>493.08</ele>
  <time>2026-09-01T19:59:22Z</time>
  <course>10.41</course>
  <speed>0.03</speed>
  <fix>3d</fix>
</trkpt>
<trkpt lat="-27.2721933" lon="151.2900644">
  <ele>493.18</ele>
  <time>2026-09-01T19:59:22Z</time>
  <course>36.15</course>
  <speed>0.02</speed>
  <fix>3d</fix>
</trkpt>
<trkpt lat="-27.2721931" lon="151.2900642">
  <ele>493.08</ele>
  <time>2026-09-01T19:59:22Z</time>
  <course>10.41</course>
  <speed>0.02</speed>
  <fix>3d</fix>
</trkpt>
<trkpt lat="-27.2721933" lon="151.2900644">
  <ele>493.18</ele>
  <time>2026-09-01T19:59:22Z</time>
  <course>36.15</course>
  <speed>0.02</speed>
  <fix>3d</fix>
</trkpt>
<trkpt lat="-27.2721931" lon="151.2900643">
  <ele>493.08</ele>
  <time>2026-09-01T19:59:22Z</time>
  <course>10.4</course>
  <speed>0.02</speed>
  <fix>3d</fix>
</trkpt>
<trkpt lat="-27.2721933" lon="151.2900644">
  <ele>493.17</ele>
  <time>2026-09-01T19:59:22Z</time>
  <course>46.3</course>
  <speed>0.01</speed>
  <fix>3d</fix>
</trkpt>
<trkpt lat="-27.2721931" lon="151.2900643">
  <ele>493.07</ele>
  <time>2026-09-01T19:59:22Z</time>
  <course>10.41</course>
  <speed>0.02</speed>
  <fix>3d</fix>
</trkpt>
<trkpt lat="-27.2721933" lon="151.2900644">
  <ele>493.17</ele>
  <time>2026-09-01T19:59:22Z</time>
  <course>46.3</course>
  <speed>0.01</speed>
  <fix>3d</fix>
</trkpt>
<trkpt lat="-27.2721931" lon="151.2900643">
  <ele>493.07</ele>
  <time>2026-09-01T19:59:22Z</time>
  <course>10.4</course>
  <speed>0.01</speed>
  <fix>3d</fix>
</trkpt>
<trkpt lat="-27.2721933" lon="151.2900644">
  <ele>493.17</ele>
  <time>2026-09-01T19:59:22Z</time>
  <course>63.73</course>
  <speed>0.01</speed>
  <fix>3d</fix>
</trkpt>
<trkpt lat="-27.2721931" lon="151.2900643">
  <ele>493.07</ele>
  <time>2026-09-01T19:59:22Z</time>
  <course>10.4</course>
  <speed>0.01</speed>
  <fix>3d</fix>
</trkpt>
<trkpt lat="-27.2721933" lon="151.2900644">
  <ele>493.17</ele>
  <time>2026-09-01T19:59:22Z</time>
  <course>63.73</course>
  <speed>0.01</speed>
  <fix>3d</fix>
</trkpt>
<trkpt lat="-27.2721931" lon="151.2900643">
  <ele>493.07</ele>
  <time>2026-09-01T19:59:22Z</time>
  <course>10.4</course>
  <speed>0.01</speed>
  <fix>3d</fix>
</trkpt>
<trkpt lat="-27.2721933" lon="151.2900645">
  <ele>493.17</ele>
  <time>2026-09-01T19:59:22Z</time>
  <course>92.06</course>
  <speed>0.01</speed>
  <fix>3d</fix>
</trkpt>
<trkpt lat="-27.2721931" lon="151.2900643">
  <ele>493.07</ele>
  <time>2026-09-01T19:59:22Z</time>
  <course>10.4</course>
  <speed>0.01</speed>
  <fix>3d</fix>
</trkpt>
<trkpt lat="-27.2721933" lon="151.2900645">
  <ele>493.17</ele>
  <time>2026-09-01T19:59:22Z</time>
  <course>92.06</course>
  <speed>0.01</speed>
  <fix>3d</fix>
</trkpt>
<trkpt lat="-27.2721931" lon="151.2900643">
  <ele>493.07</ele>
  <time>2026-09-01T19:59:22Z</time>
  <course>10.4</course>
  <speed>0.0</speed>
  <fix>3d</fix>
</trkpt>
<trkpt lat="-27.2721933" lon="151.2900645">
  <ele>493.17</ele>
  <time>2026-09-01T19:59:22Z</time>
  <course>124.13</course>
  <speed>0.01</speed>
  <fix>3d</fix>
</trkpt>
<trkpt lat="-27.2721931" lon="151.2900643">
  <ele>493.07</ele>
  <time>2026-09-01T19:59:22Z</time>
  <course>10.41</course>
  <speed>0.0</speed>
  <fix>3d</fix>
</trkpt>
<trkpt lat="-27.2721933" lon="151.2900645">
  <ele>493.17</ele>
  <time>2026-09-01T19:59:22Z</time>
  <course>124.13</course>
  <speed>0.01</speed>
  <fix>3d</fix>
</trkpt>
<trkpt lat="-27.2721931" lon="151.2900643">
  <ele>493.07</ele>
  <time>2026-09-01T19:59:22Z</time>
  <course>10.41</course>
  <speed>0.0</speed>
  <fix>3d</fix>
</trkpt>
<trkpt lat="-27.2721933" lon="151.2900645">
  <ele>493.17</ele>
  <time>2026-09-01T19:59:22Z</time>
  <course>146.69</course>
  <speed>0.01</speed>
  <fix>3d</fix>
</trkpt>
<trkpt lat="-27.2721931" lon="151.2900643">
  <ele>493.07</ele>
  <time>2026-09-01T19:59:22Z</time>
  <course>10.41</course>
  <speed>0.0</speed>
  <fix>3d</fix>
</trkpt>
<trkpt lat="-27.2721933" lon="151.2900645">
  <ele>493.17</ele>
  <time>2026-09-01T19:59:22Z</time>
  <course>146.69</course>
  <speed>0.01</speed>
  <fix>3d</fix>
</trkpt>
<trkpt lat="-27.2721931" lon="151.2900643">
  <ele>493.07</ele>
  <time>2026-09-01T19:59:22Z</time>
  <course>10.41</course>
  <speed>0.01</speed>
  <fix>3d</fix>
</trkpt>
<trkpt lat="-27.2721933" lon="151.2900645">
  <ele>493.17</ele>
  <time>2026-09-01T19:59:22Z</time>
  <course>160.21</course>
  <speed>0.01</speed>
  <fix>3d</fix>
</trkpt>
<trkpt lat="-27.2721931" lon="151.2900644">
  <ele>493.07</ele>
  <time>2026-09-01T19:59:22Z</time>
  <course>10.4</course>
  <speed>0.01</speed>
  <fix>3d</fix>
</trkpt>
<trkpt lat="-27.2721933" lon="151.2900645">
  <ele>493.17</ele>
  <time>2026-09-01T19:59:22Z</time>
  <course>160.21</course>
  <speed>0.01</speed>
  <fix>3d</fix>
</trkpt>
<trkpt lat="-27.2721932" lon="151.2900644">
  <ele>493.07</ele>
  <time>2026-09-01T19:59:22Z</time>
  <course>10.4</course>
  <speed>0.01</speed>
  <fix>3d</fix>
</trkpt>
<trkpt lat="-27.2721933" lon="151.2900645">
  <ele>493.16</ele>
  <time>2026-09-01T19:59:22Z</time>
  <course>168.22</course>
  <speed>0.02</speed>
  <fix>3d</fix>
</trkpt>
<trkpt lat="-27.2721932" lon="151.2900644">
  <ele>493.08</ele>
  <time>2026-09-01T19:59:22Z</time>
  <course>10.4</course>
  <speed>0.01</speed>
  <fix>3d</fix>
</trkpt>
<trkpt lat="-27.2721933" lon="151.2900645">
  <ele>493.16</ele>
  <time>2026-09-01T19:59:22Z</time>
  <course>168.22</course>
  <speed>0.02</speed>
  <fix>3d</fix>
</trkpt>
<trkpt lat="-27.2721932" lon="151.2900644">
  <ele>493.08</ele>
  <time>2026-09-01T19:59:22Z</time>
  <course>10.39</course>
  <speed>0.01</speed>
  <fix>3d</fix>
</trkpt>
<trkpt lat="-27.2721933" lon="151.2900645">
  <ele>493.16</ele>
  <time>2026-09-01T19:59:22Z</time>
  <course>172.28</course>
  <speed>0.02</speed>
  <fix>3d</fix>
</trkpt>
<trkpt lat="-27.2721932" lon="151.2900644">
  <ele>493.08</ele>
  <time>2026-09-01T19:59:22Z</time>
  <course>10.12</course>
  <speed>0.04</speed>
  <fix>3d</fix>
</trkpt>
<trkpt lat="-27.2721933" lon="151.2900645">
  <ele>493.16</ele>
  <time>2026-09-01T19:59:22Z</time>
  <course>172.28</course>
  <speed>0.02</speed>
  <fix>3d</fix>
</trkpt>
<trkpt lat="-27.2721931" lon="151.2900644">
  <ele>493.08</ele>
  <time>2026-09-01T19:59:22Z</time>
  <course>9.67</course>
  <speed>0.09</speed>
  <fix>3d</fix>
</trkpt>
<trkpt lat="-27.2721933" lon="151.2900646">
  <ele>493.16</ele>
  <time>2026-09-01T19:59:22Z</time>
  <course>91.06</course>
  <speed>0.0</speed>
  <fix>3d</fix>
</trkpt>
<trkpt lat="-27.2721931" lon="151.2900644">
  <ele>493.07</ele>
  <time>2026-09-01T19:59:22Z</time>
  <course>9.34</course>
  <speed>0.1004987562112089</speed>
  <fix>3d</fix>
</trkpt>
<trkpt lat="-27.2721933" lon="151.2900646">
  <ele>493.16</ele>
  <time>2026-09-01T19:59:22Z</time>
  <course>91.06</course>
  <speed>0.0</speed>
  <fix>3d</fix>
</trkpt>
<trkpt lat="-27.2721931" lon="151.2900644">
  <ele>493.05</ele>
  <time>2026-09-01T19:59:22Z</time>
  <course>9.21</course>
  <speed>0.1019803902718557</speed>
  <fix>3d</fix>
</trkpt>
<trkpt lat="-27.2721933" lon="151.2900646">
  <ele>493.15</ele>
  <time>2026-09-01T19:59:22Z</time>
  <course>5.56</course>
  <speed>0.05</speed>
  <fix>3d</fix>
</trkpt>
<trkpt lat="-27.272193" lon="151.2900644">
  <ele>493.02</ele>
  <time>2026-09-01T19:59:22Z</time>
  <course>9.27</course>
  <speed>0.09219544457292887</speed>
  <fix>3d</fix>
</trkpt>
<trkpt lat="-27.2721933" lon="151.2900646">
  <ele>493.15</ele>
  <time>2026-09-01T19:59:22Z</time>
  <course>5.56</course>
  <speed>0.05</speed>
  <fix>3d</fix>
</trkpt>
<trkpt lat="-27.2721929" lon="151.2900644">
  <ele>492.96</ele>
  <time>2026-09-01T19:59:22Z</time>
  <course>9.47</course>
  <speed>0.0824621125123532</speed>
  <fix>3d</fix>
</trkpt>
<trkpt lat="-27.2721932" lon="151.2900646">
  <ele>493.12</ele>
  <time>2026-09-01T19:59:22Z</time>
  <course>355.54</course>
  <speed>0.07</speed>
  <fix>3d</fix>
</trkpt>
<trkpt lat="-27.2721929" lon="151.2900644">
  <ele>492.89</ele>
  <time>2026-09-01T19:59:22Z</time>
  <course>9.72</course>
  <speed>0.0824621125123532</speed>
  <fix>3d</fix>
</trkpt>
<trkpt lat="-27.2721932" lon="151.2900646">
  <ele>493.12</ele>
  <time>2026-09-01T19:59:22Z</time>
  <course>355.54</course>
  <speed>0.07</speed>
  <fix>3d</fix>
</trkpt>
<trkpt lat="-27.2721928" lon="151.2900644">
  <ele>492.79</ele>
  <time>2026-09-01T19:59:22Z</time>
  <course>9.96</course>
  <speed>0.07280109889280519</speed>
  <fix>3d</fix>
</trkpt>
<trkpt lat="-27.2721931" lon="151.2900646">
  <ele>493.03</ele>
  <time>2026-09-01T19:59:22Z</time>
  <course>347.49</course>
  <speed>0.06</speed>
  <fix>3d</fix>
</trkpt>
<trkpt lat="-27.2721928" lon="151.2900644">
  <ele>492.66</ele>
  <time>2026-09-01T19:59:22Z</time>
  <course>10.14</course>
  <speed>0.07280109889280519</speed>
  <fix>3d</fix>
</trkpt>
<trkpt lat="-27.2721931" lon="151.2900646">
  <ele>493.03</ele>
  <time>2026-09-01T19:59:22Z</time>
  <course>347.49</course>
  <speed>0.06</speed>
  <fix>3d</fix>
</trkpt>
<trkpt lat="-27.2721928" lon="151.2900644">
  <ele>492.52</ele>
  <time>2026-09-01T19:59:22Z</time>
  <course>10.22</course>
  <speed>0.06082762530298219</speed>
  <fix>3d</fix>
</trkpt>
<trkpt lat="-27.272193" lon="151.2900646">
  <ele>492.86</ele>
  <time>2026-09-01T19:59:22Z</time>
  <course>345.38</course>
  <speed>0.05</speed>
  <fix>3d</fix>
</trkpt>
<trkpt lat="-27.2721927" lon="151.2900644">
  <ele>492.36</ele>
  <time>2026-09-01T19:59:22Z</time>
  <course>10.21</course>
  <speed>0.06082762530298219</speed>
  <fix>3d</fix>
</trkpt>
<trkpt lat="-27.272193" lon="151.2900646">
  <ele>492.86</ele>
  <time>2026-09-01T19:59:22Z</time>
  <course>345.38</course>
  <speed>0.05</speed>
  <fix>3d</fix>
</trkpt>
<trkpt lat="-27.2721927" lon="151.2900644">
  <ele>492.18</ele>
  <time>2026-09-01T19:59:22Z</time>
  <course>10.13</course>
  <speed>0.06</speed>
  <fix>3d</fix>
</trkpt>
<trkpt lat="-27.2721929" lon="151.2900646">
  <ele>492.6</ele>
  <time>2026-09-01T19:59:22Z</time>
  <course>351.9</course>
  <speed>0.04</speed>
  <fix>3d</fix>
</trkpt>
<trkpt lat="-27.2721926" lon="151.2900644">
  <ele>491.99</ele>
  <time>2026-09-01T19:59:22Z</time>
  <course>10.04</course>
  <speed>0.06</speed>
  <fix>3d</fix>
</trkpt>
<trkpt lat="-27.2721929" lon="151.2900646">
  <ele>492.6</ele>
  <time>2026-09-01T19:59:22Z</time>
  <course>351.9</course>
  <speed>0.04</speed>
  <fix>3d</fix>
</trkpt>
<trkpt lat="-27.2721926" lon="151.2900644">
  <ele>491.79</ele>
  <time>2026-09-01T19:59:22Z</time>
  <course>9.97</course>
  <speed>0.07</speed>
  <fix>3d</fix>
</trkpt>
<trkpt lat="-27.2721928" lon="151.2900646">
  <ele>492.27</ele>
  <time>2026-09-01T19:59:22Z</time>
  <course>2.34</course>
  <speed>0.04</speed>
  <fix>3d</fix>
</trkpt>
<trkpt lat="-27.2721925" lon="151.2900644">
  <ele>491.58</ele>
  <time>2026-09-01T19:59:22Z</time>
  <course>9.94</course>
  <speed>0.07</speed>
  <fix>3d</fix>
</trkpt>
<trkpt lat="-27.2721928" lon="151.2900646">
  <ele>492.27</ele>
  <time>2026-09-01T19:59:22Z</time>
  <course>2.34</course>
  <speed>0.04</speed>
  <fix>3d</fix>
</trkpt>
<trkpt lat="-27.2721925" lon="151.2900644">
  <ele>491.37</ele>
  <time>2026-09-01T19:59:22Z</time>
  <course>9.94</course>
  <speed>0.07</speed>
  <fix>3d</fix>
</trkpt>
<trkpt lat="-27.2721927" lon="151.2900646">
  <ele>491.88</ele>
  <time>2026-09-01T19:59:22Z</time>
  <course>8.44</course>
  <speed>0.05</speed>
  <fix>3d</fix>
</trkpt>
<trkpt lat="-27.2721924" lon="151.2900644">
  <ele>491.15</ele>
  <time>2026-09-01T19:59:22Z</time>
  <course>9.97</course>
  <speed>0.07</speed>
  <fix>3d</fix>
</trkpt>
<trkpt lat="-27.2721927" lon="151.2900646">
  <ele>491.88</ele>
  <time>2026-09-01T19:59:22Z</time>
  <course>8.44</course>
  <speed>0.05</speed>
  <fix>3d</fix>
</trkpt>
<trkpt lat="-27.2721924" lon="151.2900644">
  <ele>490.94</ele>
  <time>2026-09-01T19:59:22Z</time>
  <course>10.02</course>
  <speed>0.07</speed>
  <fix>3d</fix>
</trkpt>
<trkpt lat="-27.2721926" lon="151.2900646">
  <ele>491.47</ele>
  <time>2026-09-01T19:59:22Z</time>
  <course>10.51</course>
  <speed>0.05</speed>
  <fix>3d</fix>
</trkpt>
<trkpt lat="-27.2721923" lon="151.2900645">
  <ele>490.72</ele>
  <time>2026-09-01T19:59:22Z</time>
  <course>10.08</course>
  <speed>0.07</speed>
  <fix>3d</fix>
</trkpt>
<trkpt lat="-27.2721926" lon="151.2900646">
  <ele>491.47</ele>
  <time>2026-09-01T19:59:22Z</time>
  <course>10.51</course>
  <speed>0.05</speed>
  <fix>3d</fix>
</trkpt>
<trkpt lat="-27.2721923" lon="151.2900645">
  <ele>490.51</ele>
  <time>2026-09-01T19:59:22Z</time>
  <course>10.13</course>
  <speed>0.07</speed>
  <fix>3d</fix>
</trkpt>
<trkpt lat="-27.2721925" lon="151.2900646">
  <ele>491.04</ele>
  <time>2026-09-01T19:59:22Z</time>
  <course>11.22</course>
  <speed>0.05</speed>
  <fix>3d</fix>
</trkpt>
<trkpt lat="-27.2721922" lon="151.2900645">
  <ele>490.29</ele>
  <time>2026-09-01T19:59:22Z</time>
  <course>10.18</course>
  <speed>0.07</speed>
  <fix>3d</fix>
</trkpt>
<trkpt lat="-27.2721925" lon="151.2900646">
  <ele>491.04</ele>
  <time>2026-09-01T19:59:22Z</time>
  <course>11.22</course>
  <speed>0.05</speed>
  <fix>3d</fix>
</trkpt>
<trkpt lat="-27.2721922" lon="151.2900645">
  <ele>490.08</ele>
  <time>2026-09-01T19:59:22Z</time>
  <course>10.2</course>
  <speed>0.07</speed>
  <fix>3d</fix>
</trkpt>
<trkpt lat="-27.2721924" lon="151.2900646">
  <ele>490.62</ele>
  <time>2026-09-01T19:59:22Z</time>
  <course>11.65</course>
  <speed>0.05</speed>
  <fix>3d</fix>
</trkpt>
<trkpt lat="-27.2721921" lon="151.2900645">
  <ele>489.88</ele>
  <time>2026-09-01T19:59:22Z</time>
  <course>10.22</course>
  <speed>0.07</speed>
  <fix>3d</fix>
</trkpt>
<trkpt lat="-27.2721924" lon="151.2900646">
  <ele>490.62</ele>
  <time>2026-09-01T19:59:22Z</time>
  <course>11.65</course>
  <speed>0.05</speed>
  <fix>3d</fix>
</trkpt>
<trkpt lat="-27.2721921" lon="151.2900645">
  <ele>489.67</ele>
  <time>2026-09-01T19:59:22Z</time>
  <course>10.22</course>
  <speed>0.06</speed>
  <fix>3d</fix>
</trkpt>
<trkpt lat="-27.2721923" lon="151.2900646">
  <ele>490.2</ele>
  <time>2026-09-01T19:59:22Z</time>
  <course>12.23</course>
  <speed>0.05</speed>
  <fix>3d</fix>
</trkpt>
<trkpt lat="-27.2721921" lon="151.2900645">
  <ele>489.47</ele>
  <time>2026-09-01T19:59:22Z</time>
  <course>10.21</course>
  <speed>0.06</speed>
  <fix>3d</fix>
</trkpt>
<trkpt lat="-27.2721923" lon="151.2900646">
  <ele>490.2</ele>
  <time>2026-09-01T19:59:22Z</time>
  <course>12.23</course>
  <speed>0.05</speed>
  <fix>3d</fix>
</trkpt>
<trkpt lat="-27.272192" lon="151.2900645">
  <ele>489.28</ele>
  <time>2026-09-01T19:59:22Z</time>
  <course>10.18</course>
  <speed>0.05</speed>
  <fix>3d</fix>
</trkpt>
<trkpt lat="-27.2721922" lon="151.2900646">
  <ele>489.78</ele>
  <time>2026-09-01T19:59:22Z</time>
  <course>13.34</course>
  <speed>0.04</speed>
  <fix>3d</fix>
</trkpt>
<trkpt lat="-27.272192" lon="151.2900645">
  <ele>489.08</ele>
  <time>2026-09-01T19:59:22Z</time>
  <course>10.16</course>
  <speed>0.05099019513592785</speed>
  <fix>3d</fix>
</trkpt>
<trkpt lat="-27.2721922" lon="151.2900646">
  <ele>489.78</ele>
  <time>2026-09-01T19:59:22Z</time>
  <course>13.34</course>
  <speed>0.04</speed>
  <fix>3d</fix>
</trkpt>
<trkpt lat="-27.272192" lon="151.2900645">
  <ele>488.89</ele>
  <time>2026-09-01T19:59:22Z</time>
  <course>10.15</course>
  <speed>0.04</speed>
  <fix>3d</fix>
</trkpt>
<trkpt lat="-27.2721922" lon="151.2900646">
  <ele>489.39</ele>
  <time>2026-09-01T19:59:22Z</time>
  <course>15.61</course>
  <speed>0.03</speed>
  <fix>3d</fix>
</trkpt>
<trkpt lat="-27.2721919" lon="151.2900645">
  <ele>488.69</ele>
  <time>2026-09-01T19:59:22Z</time>
  <course>10.16</course>
  <speed>0.04</speed>
  <fix>3d</fix>
</trkpt>
<trkpt lat="-27.2721922" lon="151.2900646">
  <ele>489.39</ele>
  <time>2026-09-01T19:59:22Z</time>
  <course>15.61</course>
  <speed>0.03</speed>
  <fix>3d</fix>
</trkpt>
<trkpt lat="-27.2721919" lon="151.2900645">
  <ele>488.5</ele>
  <time>2026-09-01T19:59:22Z</time>
  <course>10.19</course>
  <speed>0.0316227766016838</speed>
  <fix>3d</fix>
</trkpt>
<trkpt lat="-27.2721921" lon="151.2900646">
  <ele>488.99</ele>
  <time>2026-09-01T19:59:22Z</time>
  <course>17.81</course>
  <speed>0.02</speed>
  <fix>3d</fix>
</trkpt>
<trkpt lat="-27.2721919" lon="151.2900645">
  <ele>488.3</ele>
  <time>2026-09-01T19:59:22Z</time>
  <course>10.21</course>
  <speed>0.03</speed>
  <fix>3d</fix>
</trkpt>
<trkpt lat="-27.2721921" lon="151.2900646">
  <ele>488.99</ele>
  <time>2026-09-01T19:59:22Z</time>
  <course>17.81</course>
  <speed>0.02</speed>
  <fix>3d</fix>
</trkpt>
<trkpt lat="-27.2721919" lon="151.2900645">
  <ele>488.11</ele>
  <time>2026-09-01T19:59:22Z</time>
  <course>10.24</course>
  <speed>0.02</speed>
  <fix>3d</fix>
</trkpt>
<trkpt lat="-27.2721921" lon="151.2900646">
  <ele>488.6</ele>
  <time>2026-09-01T19:59:22Z</time>
  <course>20.59</course>
  <speed>0.01</speed>
  <fix>3d</fix>
</trkpt>
<trkpt lat="-27.2721919" lon="151.2900645">
  <ele>487.9</ele>
  <time>2026-09-01T19:59:22Z</time>
  <course>10.25</course>
  <speed>0.02</speed>
  <fix>3d</fix>
</trkpt>
<trkpt lat="-27.2721921" lon="151.2900646">
  <ele>488.21</ele>
  <time>2026-09-01T19:59:22Z</time>
  <course>39.55</course>
  <speed>0.0</speed>
  <fix>3d</fix>
</trkpt>
<trkpt lat="-27.2721919" lon="151.2900645">
  <ele>487.71</ele>
  <time>2026-09-01T19:59:22Z</time>
  <course>10.24</course>
  <speed>0.01</speed>
  <fix>3d</fix>
</trkpt>
<trkpt lat="-27.2721921" lon="151.2900646">
  <ele>488.21</ele>
  <time>2026-09-01T19:59:22Z</time>
  <course>39.55</course>
  <speed>0.0</speed>
  <fix>3d</fix>
</trkpt>
<trkpt lat="-27.2721919" lon="151.2900645">
  <ele>487.52</ele>
  <time>2026-09-01T19:59:22Z</time>
  <course>10.22</course>
  <speed>0.01</speed>
  <fix>3d</fix>
</trkpt>
<trkpt lat="-27.2721921" lon="151.2900646">
  <ele>487.83</ele>
  <time>2026-09-01T19:59:22Z</time>
  <course>149.03</course>
  <speed>0.0</speed>
  <fix>3d</fix>
</trkpt>
<trkpt lat="-27.2721919" lon="151.2900645">
  <ele>487.32</ele>
  <time>2026-09-01T19:59:22Z</time>
  <course>10.19</course>
  <speed>0.01</speed>
  <fix>3d</fix>
</trkpt>
<trkpt lat="-27.2721921" lon="151.2900646">
  <ele>487.83</ele>
  <time>2026-09-01T19:59:22Z</time>
  <course>149.03</course>
  <speed>0.0</speed>
  <fix>3d</fix>
</trkpt>
<trkpt lat="-27.2721919" lon="151.2900645">
  <ele>487.13</ele>
  <time>2026-09-01T19:59:22Z</time>
  <course>10.17</course>
  <speed>0.0</speed>
  <fix>3d</fix>
</trkpt>
<trkpt lat="-27.2721921" lon="151.2900646">
  <ele>487.44</ele>
  <time>2026-09-01T19:59:22Z</time>
  <course>172.23</course>
  <speed>0.01</speed>
  <fix>3d</fix>
</trkpt>
<trkpt lat="-27.272192" lon="151.2900645">
  <ele>486.94</ele>
  <time>2026-09-01T19:59:22Z</time>
  <course>10.14</course>
  <speed>0.01</speed>
  <fix>3d</fix>
</trkpt>
<trkpt lat="-27.2721921" lon="151.2900646">
  <ele>487.44</ele>
  <time>2026-09-01T19:59:22Z</time>
  <course>172.23</course>
  <speed>0.01</speed>
  <fix>3d</fix>
</trkpt>
<trkpt lat="-27.272192" lon="151.2900645">
  <ele>486.74</ele>
  <time>2026-09-01T19:59:22Z</time>
  <course>10.13</course>
  <speed>0.01</speed>
  <fix>3d</fix>
</trkpt>
<trkpt lat="-27.2721921" lon="151.2900646">
  <ele>487.44</ele>
  <time>2026-09-01T19:59:22Z</time>
  <course>172.23</course>
  <speed>0.01</speed>
  <fix>3d</fix>
</trkpt>
<trkpt lat="-27.272192" lon="151.2900645">
  <ele>486.54</ele>
  <time>2026-09-01T19:59:22Z</time>
  <course>10.13</course>
  <speed>0.02</speed>
  <fix>3d</fix>
</trkpt>
<trkpt lat="-27.2721921" lon="151.2900646">
  <ele>487.05</ele>
  <time>2026-09-01T19:59:22Z</time>
  <course>178.26</course>
  <speed>0.01</speed>
  <fix>3d</fix>
</trkpt>
<trkpt lat="-27.272192" lon="151.2900645">
  <ele>486.34</ele>
  <time>2026-09-01T19:59:22Z</time>
  <course>10.15</course>
  <speed>0.02</speed>
  <fix>3d</fix>
</trkpt>
<trkpt lat="-27.2721921" lon="151.2900646">
  <ele>487.05</ele>
  <time>2026-09-01T19:59:22Z</time>
  <course>178.26</course>
  <speed>0.01</speed>
  <fix>3d</fix>
</trkpt>
<trkpt lat="-27.272192" lon="151.2900645">
  <ele>486.14</ele>
  <time>2026-09-01T19:59:22Z</time>
  <course>10.19</course>
  <speed>0.02</speed>
  <fix>3d</fix>
</trkpt>
<trkpt lat="-27.2721921" lon="151.2900646">
  <ele>486.65</ele>
  <time>2026-09-01T19:59:22Z</time>
  <course>182.08</course>
  <speed>0.02</speed>
  <fix>3d</fix>
</trkpt>
<trkpt lat="-27.272192" lon="151.2900645">
  <ele>485.94</ele>
  <time>2026-09-01T19:59:22Z</time>
  <course>10.25</course>
  <speed>0.03</speed>
  <fix>3d</fix>
</trkpt>
<trkpt lat="-27.2721921" lon="151.2900646">
  <ele>486.65</ele>
  <time>2026-09-01T19:59:22Z</time>
  <course>182.08</course>
  <speed>0.02</speed>
  <fix>3d</fix>
</trkpt>
<trkpt lat="-27.272192" lon="151.2900645">
  <ele>485.74</ele>
  <time>2026-09-01T19:59:22Z</time>
  <course>10.31</course>
  <speed>0.04</speed>
  <fix>3d</fix>
</trkpt>
<trkpt lat="-27.2721921" lon="151.2900646">
  <ele>486.26</ele>
  <time>2026-09-01T19:59:22Z</time>
  <course>186.36</course>
  <speed>0.02</speed>
  <fix>3d</fix>
</trkpt>
<trkpt lat="-27.272192" lon="151.2900645">
  <ele>485.53</ele>
  <time>2026-09-01T19:59:22Z</time>
  <course>10.4</course>
  <speed>0.05</speed>
  <fix>3d</fix>
</trkpt>
<trkpt lat="-27.2721921" lon="151.2900646">
  <ele>486.26</ele>
  <time>2026-09-01T19:59:22Z</time>
  <course>186.36</course>
  <speed>0.02</speed>
  <fix>3d</fix>
</trkpt>
<trkpt lat="-27.272192" lon="151.2900644">
  <ele>485.33</ele>
  <time>2026-09-01T19:59:22Z</time>
  <course>10.49</course>
  <speed>0.05</speed>
  <fix>3d</fix>
</trkpt>
<trkpt lat="-27.2721921" lon="151.2900646">
  <ele>485.86</ele>
  <time>2026-09-01T19:59:22Z</time>
  <course>190.83</course>
  <speed>0.02</speed>
  <fix>3d</fix>
</trkpt>
<trkpt lat="-27.272192" lon="151.2900644">
  <ele>485.13</ele>
  <time>2026-09-01T19:59:22Z</time>
  <course>10.58</course>
  <speed>0.06</speed>
  <fix>3d</fix>
</trkpt>
<trkpt lat="-27.2721921" lon="151.2900646">
  <ele>485.86</ele>
  <time>2026-09-01T19:59:22Z</time>
  <course>190.83</course>
  <speed>0.02</speed>
  <fix>3d</fix>
</trkpt>
<trkpt lat="-27.272192" lon="151.2900644">
  <ele>484.93</ele>
  <time>2026-09-01T19:59:22Z</time>
  <course>10.67</course>
  <speed>0.06</speed>
  <fix>3d</fix>
</trkpt>
<trkpt lat="-27.2721922" lon="151.2900646">
  <ele>485.46</ele>
  <time>2026-09-01T19:59:22Z</time>
  <course>195.74</course>
  <speed>0.03</speed>
  <fix>3d</fix>
</trkpt>
<trkpt lat="-27.2721921" lon="151.2900643">
  <ele>484.73</ele>
  <time>2026-09-01T19:59:22Z</time>
  <course>10.75</course>
  <speed>0.06</speed>
  <fix>3d</fix>
</trkpt>
<trkpt lat="-27.2721922" lon="151.2900646">
  <ele>485.46</ele>
  <time>2026-09-01T19:59:22Z</time>
  <course>195.74</course>
  <speed>0.03</speed>
  <fix>3d</fix>
</trkpt>
<trkpt lat="-27.2721921" lon="151.2900643">
  <ele>484.53</ele>
  <time>2026-09-01T19:59:22Z</time>
  <course>10.84</course>
  <speed>0.06</speed>
  <fix>3d</fix>
</trkpt>
<trkpt lat="-27.2721922" lon="151.2900646">
  <ele>485.06</ele>
  <time>2026-09-01T19:59:22Z</time>
  <course>200.14</course>
  <speed>0.03</speed>
  <fix>3d</fix>
</trkpt>
<trkpt lat="-27.2721921" lon="151.2900643">
  <ele>484.32</ele>
  <time>2026-09-01T19:59:22Z</time>
  <course>10.9</course>
  <speed>0.06</speed>
  <fix>3d</fix>
</trkpt>
<trkpt lat="-27.2721922" lon="151.2900646">
  <ele>485.06</ele>
  <time>2026-09-01T19:59:22Z</time>
  <course>200.14</course>
  <speed>0.03</speed>
  <fix>3d</fix>
</trkpt>
<trkpt lat="-27.2721921" lon="151.2900642">
  <ele>484.13</ele>
  <time>2026-09-01T19:59:22Z</time>
  <course>10.94</course>
  <speed>0.06</speed>
  <fix>3d</fix>
</trkpt>
<trkpt lat="-27.2721923" lon="151.2900646">
  <ele>484.65</ele>
  <time>2026-09-01T19:59:22Z</time>
  <course>202.26</course>
  <speed>0.03</speed>
  <fix>3d</fix>
</trkpt>
<trkpt lat="-27.2721921" lon="151.2900642">
  <ele>483.93</ele>
  <time>2026-09-01T19:59:22Z</time>
  <course>10.95</course>
  <speed>0.05</speed>
  <fix>3d</fix>
</trkpt>
<trkpt lat="-27.2721923" lon="151.2900646">
  <ele>484.65</ele>
  <time>2026-09-01T19:59:22Z</time>
  <course>202.26</course>
  <speed>0.03</speed>
  <fix>3d</fix>
</trkpt>
<trkpt lat="-27.2721922" lon="151.2900642">
  <ele>483.72</ele>
  <time>2026-09-01T19:59:22Z</time>
  <course>10.94</course>
  <speed>0.05</speed>
  <fix>3d</fix>
</trkpt>
<trkpt lat="-27.2721924" lon="151.2900646">
  <ele>484.26</ele>
  <time>2026-09-01T19:59:22Z</time>
  <course>202.93</course>
  <speed>0.03</speed>
  <fix>3d</fix>
</trkpt>
<trkpt lat="-27.2721922" lon="151.2900642">
  <ele>483.53</ele>
  <time>2026-09-01T19:59:22Z</time>
  <course>10.91</course>
  <speed>0.05</speed>
  <fix>3d</fix>
</trkpt>
<trkpt lat="-27.2721924" lon="151.2900646">
  <ele>483.87</ele>
  <time>2026-09-01T19:59:22Z</time>
  <course>202.01</course>
  <speed>0.04</speed>
  <fix>3d</fix>
</trkpt>
<trkpt lat="-27.2721922" lon="151.2900642">
  <ele>483.33</ele>
  <time>2026-09-01T19:59:22Z</time>
  <course>10.86</course>
  <speed>0.05</speed>
  <fix>3d</fix>
</trkpt>
<trkpt lat="-27.2721924" lon="151.2900646">
  <ele>483.87</ele>
  <time>2026-09-01T19:59:22Z</time>
  <course>202.01</course>
  <speed>0.04</speed>
  <fix>3d</fix>
</trkpt>
<trkpt lat="-27.2721923" lon="151.2900641">
  <ele>483.13</ele>
  <time>2026-09-01T19:59:22Z</time>
  <course>10.82</course>
  <speed>0.05</speed>
  <fix>3d</fix>
</trkpt>
<trkpt lat="-27.2721925" lon="151.2900646">
  <ele>483.47</ele>
  <time>2026-09-01T19:59:22Z</time>
  <course>201.26</course>
  <speed>0.04</speed>
  <fix>3d</fix>
</trkpt>
<trkpt lat="-27.2721923" lon="151.2900642">
  <ele>482.93</ele>
  <time>2026-09-01T19:59:22Z</time>
  <course>10.79</course>
  <speed>0.05099019513592785</speed>
  <fix>3d</fix>
</trkpt>
<trkpt lat="-27.2721925" lon="151.2900646">
  <ele>483.47</ele>
  <time>2026-09-01T19:59:22Z</time>
  <course>201.26</course>
  <speed>0.04</speed>
  <fix>3d</fix>
</trkpt>
<trkpt lat="-27.2721923" lon="151.2900641">
  <ele>482.73</ele>
  <time>2026-09-01T19:59:22Z</time>
  <course>10.77</course>
  <speed>0.0412310562561766</speed>
  <fix>3d</fix>
</trkpt>
<trkpt lat="-27.2721926" lon="151.2900646">
  <ele>483.07</ele>
  <time>2026-09-01T19:59:22Z</time>
  <course>201.79</course>
  <speed>0.04</speed>
  <fix>3d</fix>
</trkpt>
<trkpt lat="-27.2721924" lon="151.2900641">
  <ele>482.53</ele>
  <time>2026-09-01T19:59:22Z</time>
  <course>10.76</course>
  <speed>0.0412310562561766</speed>
  <fix>3d</fix>
</trkpt>
<trkpt lat="-27.2721926" lon="151.2900646">
  <ele>483.07</ele>
  <time>2026-09-01T19:59:22Z</time>
  <course>201.79</course>
  <speed>0.04</speed>
  <fix>3d</fix>
</trkpt>
<trkpt lat="-27.2721924" lon="151.2900641">
  <ele>482.34</ele>
  <time>2026-09-01T19:59:22Z</time>
  <course>10.76</course>
  <speed>0.0316227766016838</speed>
  <fix>3d</fix>
</trkpt>
<trkpt lat="-27.2721927" lon="151.2900645">
  <ele>482.68</ele>
  <time>2026-09-01T19:59:22Z</time>
  <course>201.48</course>
  <speed>0.04</speed>
  <fix>3d</fix>
</trkpt>
<trkpt lat="-27.2721924" lon="151.2900642">
  <ele>482.14</ele>
  <time>2026-09-01T19:59:22Z</time>
  <course>10.74</course>
  <speed>0.0316227766016838</speed>
  <fix>3d</fix>
</trkpt>
<trkpt lat="-27.2721927" lon="151.2900645">
  <ele>482.68</ele>
  <time>2026-09-01T19:59:22Z</time>
  <course>201.48</course>
  <speed>0.04</speed>
  <fix>3d</fix>
</trkpt>
<trkpt lat="-27.2721925" lon="151.2900641">
  <ele>481.94</ele>
  <time>2026-09-01T19:59:22Z</time>
  <course>10.73</course>
  <speed>0.0316227766016838</speed>
  <fix>3d</fix>
</trkpt>
<trkpt lat="-27.2721927" lon="151.2900645">
  <ele>482.28</ele>
  <time>2026-09-01T19:59:22Z</time>
  <course>200.73</course>
  <speed>0.04</speed>
  <fix>3d</fix>
</trkpt>
<trkpt lat="-27.2721925" lon="151.2900642">
  <ele>481.74</ele>
  <time>2026-09-01T19:59:22Z</time>
  <course>10.71</course>
  <speed>0.0316227766016838</speed>
  <fix>3d</fix>
</trkpt>
<trkpt lat="-27.2721927" lon="151.2900645">
  <ele>482.28</ele>
  <time>2026-09-01T19:59:22Z</time>
  <course>200.73</course>
  <speed>0.04</speed>
  <fix>3d</fix>
</trkpt>
<trkpt lat="-27.2721926" lon="151.2900642">
  <ele>481.54</ele>
  <time>2026-09-01T19:59:22Z</time>
  <course>10.71</course>
  <speed>0.0316227766016838</speed>
  <fix>3d</fix>
</trkpt>
<trkpt lat="-27.2721928" lon="151.2900645">
  <ele>481.88</ele>
  <time>2026-09-01T19:59:22Z</time>
  <course>200.72</course>
  <speed>0.04</speed>
  <fix>3d</fix>
</trkpt>
<trkpt lat="-27.2721926" lon="151.2900642">
  <ele>481.34</ele>
  <time>2026-09-01T19:59:22Z</time>
  <course>10.71</course>
  <speed>0.0316227766016838</speed>
  <fix>3d</fix>
</trkpt>
<trkpt lat="-27.2721928" lon="151.2900645">
  <ele>481.88</ele>
  <time>2026-09-01T19:59:22Z</time>
  <course>200.72</course>
  <speed>0.04</speed>
  <fix>3d</fix>
</trkpt>
<trkpt lat="-27.2721926" lon="151.2900642">
  <ele>481.14</ele>
  <time>2026-09-01T19:59:22Z</time>
  <course>10.71</course>
  <speed>0.0316227766016838</speed>
  <fix>3d</fix>
</trkpt>
<trkpt lat="-27.2721928" lon="151.2900645">
  <ele>481.88</ele>
  <time>2026-09-01T19:59:22Z</time>
  <course>200.72</course>
  <speed>0.04</speed>
  <fix>3d</fix>
</trkpt>
<trkpt lat="-27.2721927" lon="151.2900642">
  <ele>480.94</ele>
  <time>2026-09-01T19:59:22Z</time>
  <course>10.72</course>
  <speed>0.022360679774997897</speed>
  <fix>3d</fix>
</trkpt>
<trkpt lat="-27.2721929" lon="151.2900644">
  <ele>481.47</ele>
  <time>2026-09-01T19:59:22Z</time>
  <course>201.24</course>
  <speed>0.04</speed>
  <fix>3d</fix>
</trkpt>
<trkpt lat="-27.2721927" lon="151.2900642">
  <ele>480.74</ele>
  <time>2026-09-01T19:59:22Z</time>
  <course>10.7</course>
  <speed>0.022360679774997897</speed>
  <fix>3d</fix>
</trkpt>
<trkpt lat="-27.2721929" lon="151.2900644">
  <ele>481.47</ele>
  <time>2026-09-01T19:59:22Z</time>
  <course>201.24</course>
  <speed>0.04</speed>
  <fix>3d</fix>
</trkpt>
<trkpt lat="-27.2721928" lon="151.2900642">
  <ele>480.54</ele>
  <time>2026-09-01T19:59:22Z</time>
  <course>10.67</course>
  <speed>0.022360679774997897</speed>
  <fix>3d</fix>
</trkpt>
<trkpt lat="-27.272193" lon="151.2900644">
  <ele>481.08</ele>
  <time>2026-09-01T19:59:22Z</time>
  <course>200.63</course>
  <speed>0.04</speed>
  <fix>3d</fix>
</trkpt>
<trkpt lat="-27.2721928" lon="151.2900642">
  <ele>480.34</ele>
  <time>2026-09-01T19:59:22Z</time>
  <course>10.63</course>
  <speed>0.01414213562373095</speed>
  <fix>3d</fix>
</trkpt>
<trkpt lat="-27.272193" lon="151.2900644">
  <ele>481.08</ele>
  <time>2026-09-01T19:59:22Z</time>
  <course>200.63</course>
  <speed>0.04</speed>
  <fix>3d</fix>
</trkpt>
<trkpt lat="-27.2721928" lon="151.2900642">
  <ele>480.14</ele>
  <time>2026-09-01T19:59:22Z</time>
  <course>10.59</course>
  <speed>0.01414213562373095</speed>
  <fix>3d</fix>
</trkpt>
<trkpt lat="-27.272193" lon="151.2900644">
  <ele>480.68</ele>
  <time>2026-09-01T19:59:22Z</time>
  <course>198.58</course>
  <speed>0.04</speed>
  <fix>3d</fix>
</trkpt>
<trkpt lat="-27.2721929" lon="151.2900642">
  <ele>479.94</ele>
  <time>2026-09-01T19:59:22Z</time>
  <course>10.54</course>
  <speed>0.022360679774997897</speed>
  <fix>3d</fix>
</trkpt>
<trkpt lat="-27.272193" lon="151.2900644">
  <ele>480.68</ele>
  <time>2026-09-01T19:59:22Z</time>
  <course>198.58</course>
  <speed>0.04</speed>
  <fix>3d</fix>
</trkpt>
<trkpt lat="-27.2721929" lon="151.2900642">
  <ele>479.74</ele>
  <time>2026-09-01T19:59:22Z</time>
  <course>10.5</course>
  <speed>0.01414213562373095</speed>
  <fix>3d</fix>
</trkpt>
<trkpt lat="-27.2721931" lon="151.2900643">
  <ele>480.28</ele>
  <time>2026-09-01T19:59:22Z</time>
  <course>196.54</course>
  <speed>0.04</speed>
  <fix>3d</fix>
</trkpt>
<trkpt lat="-27.2721929" lon="151.2900642">
  <ele>479.53</ele>
  <time>2026-09-01T19:59:22Z</time>
  <course>10.47</course>
  <speed>0.022360679774997897</speed>
  <fix>3d</fix>
</trkpt>
<trkpt lat="-27.2721932" lon="151.2900642">
  <ele>479.88</ele>
  <time>2026-09-01T19:59:22Z</time>
  <course>196.17</course>
  <speed>0.04</speed>
  <fix>3d</fix>
</trkpt>
<trkpt lat="-27.272193" lon="151.2900642">
  <ele>479.33</ele>
  <time>2026-09-01T19:59:22Z</time>
  <course>10.47</course>
  <speed>0.022360679774997897</speed>
  <fix>3d</fix>
</trkpt>
<trkpt lat="-27.2721932" lon="151.2900642">
  <ele>479.88</ele>
  <time>2026-09-01T19:59:22Z</time>
  <course>196.17</course>
  <speed>0.04</speed>
  <fix>3d</fix>
</trkpt>
<trkpt lat="-27.272193" lon="151.2900642">
  <ele>479.13</ele>
  <time>2026-09-01T19:59:22Z</time>
  <course>10.5</course>
  <speed>0.022360679774997897</speed>
  <fix>3d</fix>
</trkpt>
<trkpt lat="-27.2721933" lon="151.2900642">
  <ele>479.47</ele>
  <time>2026-09-01T19:59:22Z</time>
  <course>197.87</course>
  <speed>0.04</speed>
  <fix>3d</fix>
</trkpt>
<trkpt lat="-27.2721931" lon="151.2900642">
  <ele>478.93</ele>
  <time>2026-09-01T19:59:22Z</time>
  <course>10.54</course>
  <speed>0.022360679774997897</speed>
  <fix>3d</fix>
</trkpt>
<trkpt lat="-27.2721933" lon="151.2900642">
  <ele>479.47</ele>
  <time>2026-09-01T19:59:22Z</time>
  <course>197.87</course>
  <speed>0.04</speed>
  <fix>3d</fix>
</trkpt>
<trkpt lat="-27.2721931" lon="151.2900641">
  <ele>478.73</ele>
  <time>2026-09-01T19:59:22Z</time>
  <course>10.58</course>
  <speed>0.022360679774997897</speed>
  <fix>3d</fix>
</trkpt>
<trkpt lat="-27.2721933" lon="151.2900642">
  <ele>479.08</ele>
  <time>2026-09-01T19:59:22Z</time>
  <course>199.6</course>
  <speed>0.04</speed>
  <fix>3d</fix>
</trkpt>
<trkpt lat="-27.2721931" lon="151.2900641">
  <ele>478.52</ele>
  <time>2026-09-01T19:59:22Z</time>
  <course>10.63</course>
  <speed>0.02</speed>
  <fix>3d</fix>
</trkpt>
<trkpt lat="-27.2721933" lon="151.2900642">
  <ele>479.08</ele>
  <time>2026-09-01T19:59:22Z</time>
  <course>199.6</course>
  <speed>0.04</speed>
  <fix>3d</fix>
</trkpt>
<trkpt lat="-27.2721931" lon="151.2900641">
  <ele>478.32</ele>
  <time>2026-09-01T19:59:22Z</time>
  <course>10.67</course>
  <speed>0.02</speed>
  <fix>3d</fix>
</trkpt>
<trkpt lat="-27.2721934" lon="151.2900642">
  <ele>478.69</ele>
  <time>2026-09-01T19:59:22Z</time>
  <course>200.96</course>
  <speed>0.04</speed>
  <fix>3d</fix>
</trkpt>
<trkpt lat="-27.2721932" lon="151.2900641">
  <ele>478.12</ele>
  <time>2026-09-01T19:59:22Z</time>
  <course>10.7</course>
  <speed>0.02</speed>
  <fix>3d</fix>
</trkpt>
<trkpt lat="-27.2721934" lon="151.2900642">
  <ele>478.69</ele>
  <time>2026-09-01T19:59:22Z</time>
  <course>200.96</course>
  <speed>0.04</speed>
  <fix>3d</fix>
</trkpt>
<trkpt lat="-27.2721932" lon="151.2900641">
  <ele>477.92</ele>
  <time>2026-09-01T19:59:22Z</time>
  <course>10.72</course>
  <speed>0.02</speed>
  <fix>3d</fix>
</trkpt>
<trkpt lat="-27.2721935" lon="151.2900642">
  <ele>478.28</ele>
  <time>2026-09-01T19:59:22Z</time>
  <course>201.83</course>
  <speed>0.03</speed>
  <fix>3d</fix>
</trkpt>
<trkpt lat="-27.2721932" lon="151.2900641">
  <ele>477.72</ele>
  <time>2026-09-01T19:59:22Z</time>
  <course>10.73</course>
  <speed>0.02</speed>
  <fix>3d</fix>
</trkpt>
<trkpt lat="-27.2721935" lon="151.2900642">
  <ele>478.28</ele>
  <time>2026-09-01T19:59:22Z</time>
  <course>201.83</course>
  <speed>0.03</speed>
  <fix>3d</fix>
</trkpt>
<trkpt lat="-27.2721933" lon="151.2900641">
  <ele>477.52</ele>
  <time>2026-09-01T19:59:22Z</time>
  <course>10.72</course>
  <speed>0.02</speed>
  <fix>3d</fix>
</trkpt>
<trkpt lat="-27.2721935" lon="151.2900642">
  <ele>477.89</ele>
  <time>2026-09-01T19:59:22Z</time>
  <course>201.98</course>
  <speed>0.03</speed>
  <fix>3d</fix>
</trkpt>
<trkpt lat="-27.2721933" lon="151.2900641">
  <ele>477.32</ele>
  <time>2026-09-01T19:59:22Z</time>
  <course>10.71</course>
  <speed>0.02</speed>
  <fix>3d</fix>
</trkpt>
<trkpt lat="-27.2721935" lon="151.2900642">
  <ele>477.89</ele>
  <time>2026-09-01T19:59:22Z</time>
  <course>201.98</course>
  <speed>0.03</speed>
  <fix>3d</fix>
</trkpt>
<trkpt lat="-27.2721933" lon="151.290064">
  <ele>477.12</ele>
  <time>2026-09-01T19:59:22Z</time>
  <course>10.68</course>
  <speed>0.01</speed>
  <fix>3d</fix>
</trkpt>
<trkpt lat="-27.2721936" lon="151.2900641">
  <ele>477.49</ele>
  <time>2026-09-01T19:59:22Z</time>
  <course>202.62</course>
  <speed>0.03</speed>
  <fix>3d</fix>
</trkpt>
<trkpt lat="-27.2721934" lon="151.290064">
  <ele>476.91</ele>
  <time>2026-09-01T19:59:22Z</time>
  <course>10.64</course>
  <speed>0.01</speed>
  <fix>3d</fix>
</trkpt>
<trkpt lat="-27.2721936" lon="151.2900641">
  <ele>477.49</ele>
  <time>2026-09-01T19:59:22Z</time>
  <course>202.62</course>
  <speed>0.03</speed>
  <fix>3d</fix>
</trkpt>
<trkpt lat="-27.2721934" lon="151.290064">
  <ele>476.72</ele>
  <time>2026-09-01T19:59:22Z</time>
  <course>10.61</course>
  <speed>0.01</speed>
  <fix>3d</fix>
</trkpt>
<trkpt lat="-27.2721937" lon="151.2900641">
  <ele>477.09</ele>
  <time>2026-09-01T19:59:22Z</time>
  <course>203.71</course>
  <speed>0.03</speed>
  <fix>3d</fix>
</trkpt>
<trkpt lat="-27.2721934" lon="151.290064">
  <ele>476.52</ele>
  <time>2026-09-01T19:59:22Z</time>
  <course>10.58</course>
  <speed>0.01</speed>
  <fix>3d</fix>
</trkpt>
<trkpt lat="-27.2721937" lon="151.2900641">
  <ele>477.09</ele>
  <time>2026-09-01T19:59:22Z</time>
  <course>203.71</course>
  <speed>0.03</speed>
  <fix>3d</fix>
</trkpt>
<trkpt lat="-27.2721934" lon="151.290064">
  <ele>476.32</ele>
  <time>2026-09-01T19:59:22Z</time>
  <course>10.57</course>
  <speed>0.02</speed>
  <fix>3d</fix>
</trkpt>
<trkpt lat="-27.2721937" lon="151.2900641">
  <ele>476.7</ele>
  <time>2026-09-01T19:59:22Z</time>
  <course>205.31</course>
  <speed>0.02</speed>
  <fix>3d</fix>
</trkpt>
<trkpt lat="-27.2721935" lon="151.290064">
  <ele>476.12</ele>
  <time>2026-09-01T19:59:22Z</time>
  <course>10.56</course>
  <speed>0.02</speed>
  <fix>3d</fix>
</trkpt>
<trkpt lat="-27.2721937" lon="151.2900641">
  <ele>476.7</ele>
  <time>2026-09-01T19:59:22Z</time>
  <course>205.31</course>
  <speed>0.02</speed>
  <fix>3d</fix>
</trkpt>
<trkpt lat="-27.2721935" lon="151.290064">
  <ele>475.92</ele>
  <time>2026-09-01T19:59:22Z</time>
  <course>10.56</course>
  <speed>0.01</speed>
  <fix>3d</fix>
</trkpt>
<trkpt lat="-27.2721938" lon="151.2900641">
  <ele>476.3</ele>
  <time>2026-09-01T19:59:22Z</time>
  <course>206.39</course>
  <speed>0.02</speed>
  <fix>3d</fix>
</trkpt>
<trkpt lat="-27.2721935" lon="151.290064">
  <ele>475.72</ele>
  <time>2026-09-01T19:59:22Z</time>
  <course>10.56</course>
  <speed>0.01</speed>
  <fix>3d</fix>
</trkpt>
<trkpt lat="-27.2721938" lon="151.2900641">
  <ele>476.3</ele>
  <time>2026-09-01T19:59:22Z</time>
  <course>206.39</course>
  <speed>0.02</speed>
  <fix>3d</fix>
</trkpt>
<trkpt lat="-27.2721935" lon="151.290064">
  <ele>475.53</ele>
  <time>2026-09-01T19:59:22Z</time>
  <course>10.55</course>
  <speed>0.01</speed>
  <fix>3d</fix>
</trkpt>
<trkpt lat="-27.2721938" lon="151.2900641">
  <ele>476.3</ele>
  <time>2026-09-01T19:59:22Z</time>
  <course>206.39</course>
  <speed>0.02</speed>
  <fix>3d</fix>
</trkpt>
<trkpt lat="-27.2721936" lon="151.290064">
  <ele>475.33</ele>
  <time>2026-09-01T19:59:22Z</time>
  <course>10.55</course>
  <speed>0.0</speed>
  <fix>3d</fix>
</trkpt>
<trkpt lat="-27.2721938" lon="151.2900641">
  <ele>475.9</ele>
  <time>2026-09-01T19:59:22Z</time>
  <course>205.98</course>
  <speed>0.02</speed>
  <fix>3d</fix>
</trkpt>
<trkpt lat="-27.2721936" lon="151.290064">
  <ele>475.13</ele>
  <time>2026-09-01T19:59:22Z</time>
  <course>10.57</course>
  <speed>0.0</speed>
  <fix>3d</fix>
</trkpt>
<trkpt lat="-27.2721938" lon="151.290064">
  <ele>475.51</ele>
  <time>2026-09-01T19:59:22Z</time>
  <course>207.1</course>
  <speed>0.02</speed>
  <fix>3d</fix>
</trkpt>
<trkpt lat="-27.2721936" lon="151.290064">
  <ele>474.94</ele>
  <time>2026-09-01T19:59:22Z</time>
  <course>10.58</course>
  <speed>0.0</speed>
  <fix>3d</fix>
</trkpt>
<trkpt lat="-27.2721938" lon="151.290064">
  <ele>475.51</ele>
  <time>2026-09-01T19:59:22Z</time>
  <course>207.1</course>
  <speed>0.02</speed>
  <fix>3d</fix>
</trkpt>
<trkpt lat="-27.2721936" lon="151.290064">
  <ele>474.74</ele>
  <time>2026-09-01T19:59:22Z</time>
  <course>10.58</course>
  <speed>0.0</speed>
  <fix>3d</fix>
</trkpt>
<trkpt lat="-27.2721939" lon="151.290064">
  <ele>475.12</ele>
  <time>2026-09-01T19:59:22Z</time>
  <course>208.6</course>
  <speed>0.02</speed>
  <fix>3d</fix>
</trkpt>
<trkpt lat="-27.2721937" lon="151.290064">
  <ele>474.54</ele>
  <time>2026-09-01T19:59:22Z</time>
  <course>10.57</course>
  <speed>0.0</speed>
  <fix>3d</fix>
</trkpt>
<trkpt lat="-27.2721939" lon="151.290064">
  <ele>475.12</ele>
  <time>2026-09-01T19:59:23Z</time>
  <course>208.6</course>
  <speed>0.02</speed>
  <fix>3d</fix>
</trkpt>
<trkpt lat="-27.2721937" lon="151.290064">
  <ele>474.34</ele>
  <time>2026-09-01T19:59:23Z</time>
  <course>10.54</course>
  <speed>0.0</speed>
  <fix>3d</fix>
</trkpt>
<trkpt lat="-27.2721939" lon="151.290064">
  <ele>474.72</ele>
  <time>2026-09-01T19:59:23Z</time>
  <course>208.08</course>
  <speed>0.01</speed>
  <fix>3d</fix>
</trkpt>
<trkpt lat="-27.2721937" lon="151.290064">
  <ele>474.14</ele>
  <time>2026-09-01T19:59:23Z</time>
  <course>10.51</course>
  <speed>0.0</speed>
  <fix>3d</fix>
</trkpt>
<trkpt lat="-27.2721939" lon="151.290064">
  <ele>474.72</ele>
  <time>2026-09-01T19:59:23Z</time>
  <course>208.08</course>
  <speed>0.01</speed>
  <fix>3d</fix>
</trkpt>
<trkpt lat="-27.2721937" lon="151.290064">
  <ele>473.94</ele>
  <time>2026-09-01T19:59:23Z</time>
  <course>10.5</course>
  <speed>0.0</speed>
  <fix>3d</fix>
</trkpt>
<trkpt lat="-27.2721939" lon="151.290064">
  <ele>474.33</ele>
  <time>2026-09-01T19:59:23Z</time>
  <course>211.12</course>
  <speed>0.01</speed>
  <fix>3d</fix>
</trkpt>
<trkpt lat="-27.2721937" lon="151.290064">
  <ele>473.74</ele>
  <time>2026-09-01T19:59:23Z</time>
  <course>10.5</course>
  <speed>0.0</speed>
  <fix>3d</fix>
</trkpt>
<trkpt lat="-27.2721939" lon="151.290064">
  <ele>474.33</ele>
  <time>2026-09-01T19:59:23Z</time>
  <course>211.12</course>
  <speed>0.01</speed>
  <fix>3d</fix>
</trkpt>
<trkpt lat="-27.2721937" lon="151.290064">
  <ele>473.54</ele>
  <time>2026-09-01T19:59:23Z</time>
  <course>10.5</course>
  <speed>0.01</speed>
  <fix>3d</fix>
</trkpt>
<trkpt lat="-27.272194" lon="151.290064">
  <ele>473.93</ele>
  <time>2026-09-01T19:59:23Z</time>
  <course>216.5</course>
  <speed>0.01</speed>
  <fix>3d</fix>
</trkpt>
<trkpt lat="-27.2721937" lon="151.290064">
  <ele>473.35</ele>
  <time>2026-09-01T19:59:23Z</time>
  <course>10.5</course>
  <speed>0.01</speed>
  <fix>3d</fix>
</trkpt>
<trkpt lat="-27.272194" lon="151.290064">
  <ele>473.93</ele>
  <time>2026-09-01T19:59:23Z</time>
  <course>216.5</course>
  <speed>0.01</speed>
  <fix>3d</fix>
</trkpt>
<trkpt lat="-27.2721937" lon="151.290064">
  <ele>473.15</ele>
  <time>2026-09-01T19:59:23Z</time>
  <course>10.49</course>
  <speed>0.01</speed>
  <fix>3d</fix>
</trkpt>
<trkpt lat="-27.272194" lon="151.2900639">
  <ele>473.53</ele>
  <time>2026-09-01T19:59:23Z</time>
  <course>221.79</course>
  <speed>0.01</speed>
  <fix>3d</fix>
</trkpt>
<trkpt lat="-27.2721938" lon="151.290064">
  <ele>472.95</ele>
  <time>2026-09-01T19:59:23Z</time>
  <course>10.48</course>
  <speed>0.01</speed>
  <fix>3d</fix>
</trkpt>
<trkpt lat="-27.272194" lon="151.2900639">
  <ele>473.53</ele>
  <time>2026-09-01T19:59:23Z</time>
  <course>221.79</course>
  <speed>0.01</speed>
  <fix>3d</fix>
</trkpt>
<trkpt lat="-27.2721938" lon="151.290064">
  <ele>472.75</ele>
  <time>2026-09-01T19:59:23Z</time>
  <course>10.49</course>
  <speed>0.01</speed>
  <fix>3d</fix>
</trkpt>
<trkpt lat="-27.272194" lon="151.2900639">
  <ele>473.13</ele>
  <time>2026-09-01T19:59:23Z</time>
  <course>233.34</course>
  <speed>0.0</speed>
  <fix>3d</fix>
</trkpt>
<trkpt lat="-27.2721938" lon="151.290064">
  <ele>472.55</ele>
  <time>2026-09-01T19:59:23Z</time>
  <course>10.49</course>
  <speed>0.01</speed>
  <fix>3d</fix>
</trkpt>
<trkpt lat="-27.272194" lon="151.2900639">
  <ele>473.13</ele>
  <time>2026-09-01T19:59:23Z</time>
  <course>233.34</course>
  <speed>0.0</speed>
  <fix>3d</fix>
</trkpt>
<trkpt lat="-27.2721938" lon="151.290064">
  <ele>472.35</ele>
  <time>2026-09-01T19:59:23Z</time>
  <course>10.51</course>
  <speed>0.01</speed>
  <fix>3d</fix>
</trkpt>
<trkpt lat="-27.272194" lon="151.2900639">
  <ele>472.72</ele>
  <time>2026-09-01T19:59:23Z</time>
  <course>249.16</course>
  <speed>0.0</speed>
  <fix>3d</fix>
</trkpt>
<trkpt lat="-27.2721938" lon="151.290064">
  <ele>472.14</ele>
  <time>2026-09-01T19:59:23Z</time>
  <course>10.51</course>
  <speed>0.01</speed>
  <fix>3d</fix>
</trkpt>
<trkpt lat="-27.272194" lon="151.2900639">
  <ele>472.72</ele>
  <time>2026-09-01T19:59:23Z</time>
  <course>249.16</course>
  <speed>0.0</speed>
  <fix>3d</fix>
</trkpt>
<trkpt lat="-27.2721938" lon="151.290064">
  <ele>471.94</ele>
  <time>2026-09-01T19:59:23Z</time>
  <course>10.51</course>
  <speed>0.02</speed>
  <fix>3d</fix>
</trkpt>
<trkpt lat="-27.272194" lon="151.2900639">
  <ele>472.32</ele>
  <time>2026-09-01T19:59:23Z</time>
  <course>271.04</course>
  <speed>0.0</speed>
  <fix>3d</fix>
</trkpt>
<trkpt lat="-27.2721938" lon="151.290064">
  <ele>471.74</ele>
  <time>2026-09-01T19:59:23Z</time>
  <course>10.52</course>
  <speed>0.02</speed>
  <fix>3d</fix>
</trkpt>
<trkpt lat="-27.272194" lon="151.2900639">
  <ele>472.32</ele>
  <time>2026-09-01T19:59:23Z</time>
  <course>271.04</course>
  <speed>0.0</speed>
  <fix>3d</fix>
</trkpt>
<trkpt lat="-27.2721938" lon="151.290064">
  <ele>471.54</ele>
  <time>2026-09-01T19:59:23Z</time>
  <course>10.53</course>
  <speed>0.02</speed>
  <fix>3d</fix>
</trkpt>
<trkpt lat="-27.272194" lon="151.2900639">
  <ele>471.91</ele>
  <time>2026-09-01T19:59:23Z</time>
  <course>296.06</course>
  <speed>0.0</speed>
  <fix>3d</fix>
</trkpt>
<trkpt lat="-27.2721938" lon="151.290064">
  <ele>471.34</ele>
  <time>2026-09-01T19:59:23Z</time>
  <course>10.53</course>
  <speed>0.02</speed>
  <fix>3d</fix>
</trkpt>
<trkpt lat="-27.272194" lon="151.2900639">
  <ele>471.91</ele>
  <time>2026-09-01T19:59:23Z</time>
  <course>296.06</course>
  <speed>0.0</speed>
  <fix>3d</fix>
</trkpt>
<trkpt lat="-27.2721938" lon="151.290064">
  <ele>471.14</ele>
  <time>2026-09-01T19:59:23Z</time>
  <course>10.53</course>
  <speed>0.02</speed>
  <fix>3d</fix>
</trkpt>
<trkpt lat="-27.272194" lon="151.2900639">
  <ele>471.52</ele>
  <time>2026-09-01T19:59:23Z</time>
  <course>313.25</course>
  <speed>0.0</speed>
  <fix>3d</fix>
</trkpt>
<trkpt lat="-27.2721938" lon="151.290064">
  <ele>470.94</ele>
  <time>2026-09-01T19:59:23Z</time>
  <course>10.53</course>
  <speed>0.02</speed>
  <fix>3d</fix>
</trkpt>
<trkpt lat="-27.272194" lon="151.2900639">
  <ele>471.52</ele>
  <time>2026-09-01T19:59:23Z</time>
  <course>313.25</course>
  <speed>0.0</speed>
  <fix>3d</fix>
</trkpt>
<trkpt lat="-27.2721938" lon="151.290064">
  <ele>470.74</ele>
  <time>2026-09-01T19:59:23Z</time>
  <course>10.52</course>
  <speed>0.02</speed>
  <fix>3d</fix>
</trkpt>
<trkpt lat="-27.272194" lon="151.2900639">
  <ele>471.12</ele>
  <time>2026-09-01T19:59:23Z</time>
  <course>323.66</course>
  <speed>0.0</speed>
  <fix>3d</fix>
</trkpt>
<trkpt lat="-27.2721938" lon="151.290064">
  <ele>470.54</ele>
  <time>2026-09-01T19:59:23Z</time>
  <course>10.51</course>
  <speed>0.02</speed>
  <fix>3d</fix>
</trkpt>
<trkpt lat="-27.272194" lon="151.2900639">
  <ele>471.12</ele>
  <time>2026-09-01T19:59:23Z</time>
  <course>323.66</course>
  <speed>0.0</speed>
  <fix>3d</fix>
</trkpt>
<trkpt lat="-27.2721938" lon="151.290064">
  <ele>470.34</ele>
  <time>2026-09-01T19:59:23Z</time>
  <course>10.51</course>
  <speed>0.02</speed>
  <fix>3d</fix>
</trkpt>
<trkpt lat="-27.272194" lon="151.2900639">
  <ele>470.72</ele>
  <time>2026-09-01T19:59:23Z</time>
  <course>331.69</course>
  <speed>0.0</speed>
  <fix>3d</fix>
</trkpt>
<trkpt lat="-27.2721938" lon="151.290064">
  <ele>470.14</ele>
  <time>2026-09-01T19:59:23Z</time>
  <course>10.5</course>
  <speed>0.02</speed>
  <fix>3d</fix>
</trkpt>
<trkpt lat="-27.272194" lon="151.2900639">
  <ele>470.72</ele>
  <time>2026-09-01T19:59:23Z</time>
  <course>331.69</course>
  <speed>0.0</speed>
  <fix>3d</fix>
</trkpt>
<trkpt lat="-27.2721938" lon="151.290064">
  <ele>469.93</ele>
  <time>2026-09-01T19:59:23Z</time>
  <course>10.48</course>
  <speed>0.02</speed>
  <fix>3d</fix>
</trkpt>
<trkpt lat="-27.272194" lon="151.2900638">
  <ele>470.32</ele>
  <time>2026-09-01T19:59:23Z</time>
  <course>335.57</course>
  <speed>0.0</speed>
  <fix>3d</fix>
</trkpt>
<trkpt lat="-27.2721938" lon="151.290064">
  <ele>469.73</ele>
  <time>2026-09-01T19:59:23Z</time>
  <course>10.49</course>
  <speed>0.02</speed>
  <fix>3d</fix>
</trkpt>
<trkpt lat="-27.272194" lon="151.2900638">
  <ele>470.32</ele>
  <time>2026-09-01T19:59:23Z</time>
  <course>335.57</course>
  <speed>0.0</speed>
  <fix>3d</fix>
</trkpt>
<trkpt lat="-27.2721938" lon="151.290064">
  <ele>469.53</ele>
  <time>2026-09-01T19:59:23Z</time>
  <course>10.52</course>
  <speed>0.02</speed>
  <fix>3d</fix>
</trkpt>
<trkpt lat="-27.272194" lon="151.2900637">
  <ele>469.91</ele>
  <time>2026-09-01T19:59:23Z</time>
  <course>336.34</course>
  <speed>0.01</speed>
  <fix>3d</fix>
</trkpt>
<trkpt lat="-27.2721938" lon="151.2900639">
  <ele>469.33</ele>
  <time>2026-09-01T19:59:23Z</time>
  <course>10.55</course>
  <speed>0.03</speed>
  <fix>3d</fix>
</trkpt>
<trkpt lat="-27.272194" lon="151.2900637">
  <ele>469.91</ele>
  <time>2026-09-01T19:59:23Z</time>
  <course>336.34</course>
  <speed>0.01</speed>
  <fix>3d</fix>
</trkpt>
<trkpt lat="-27.2721938" lon="151.2900639">
  <ele>469.13</ele>
  <time>2026-09-01T19:59:23Z</time>
  <course>10.6</course>
  <speed>0.0316227766016838</speed>
  <fix>3d</fix>
</trkpt>
<trkpt lat="-27.272194" lon="151.2900637">
  <ele>469.52</ele>
  <time>2026-09-01T19:59:23Z</time>
  <course>333.63</course>
  <speed>0.01</speed>
  <fix>3d</fix>
</trkpt>
<trkpt lat="-27.2721938" lon="151.2900639">
  <ele>468.93</ele>
  <time>2026-09-01T19:59:23Z</time>
  <course>10.65</course>
  <speed>0.0316227766016838</speed>
  <fix>3d</fix>
</trkpt>
<trkpt lat="-27.272194" lon="151.2900637">
  <ele>469.52</ele>
  <time>2026-09-01T19:59:23Z</time>
  <course>333.63</course>
  <speed>0.01</speed>
  <fix>3d</fix>
</trkpt>
<trkpt lat="-27.2721938" lon="151.2900639">
  <ele>468.72</ele>
  <time>2026-09-01T19:59:23Z</time>
  <course>10.7</course>
  <speed>0.0316227766016838</speed>
  <fix>3d</fix>
</trkpt>
<trkpt lat="-27.272194" lon="151.2900637">
  <ele>469.12</ele>
  <time>2026-09-01T19:59:23Z</time>
  <course>329.19</course>
  <speed>0.01</speed>
  <fix>3d</fix>
</trkpt>
<trkpt lat="-27.2721938" lon="151.2900638">
  <ele>468.53</ele>
  <time>2026-09-01T19:59:23Z</time>
  <course>10.74</course>
  <speed>0.0316227766016838</speed>
  <fix>3d</fix>
</trkpt>
<trkpt lat="-27.272194" lon="151.2900637">
  <ele>469.12</ele>
  <time>2026-09-01T19:59:23Z</time>
  <course>329.19</course>
  <speed>0.01</speed>
  <fix>3d</fix>
</trkpt>
<trkpt lat="-27.2721938" lon="151.2900638">
  <ele>468.33</ele>
  <time>2026-09-01T19:59:23Z</time>
  <course>10.77</course>
  <speed>0.0316227766016838</speed>
  <fix>3d</fix>
</trkpt>
<trkpt lat="-27.272194" lon="151.2900637">
  <ele>468.72</ele>
  <time>2026-09-01T19:59:23Z</time>
  <course>325.52</course>
  <speed>0.01</speed>
  <fix>3d</fix>
</trkpt>
<trkpt lat="-27.2721938" lon="151.2900638">
  <ele>468.13</ele>
  <time>2026-09-01T19:59:23Z</time>
  <course>10.8</course>
  <speed>0.03605551275463989</speed>
  <fix>3d</fix>
</trkpt>
<trkpt lat="-27.272194" lon="151.2900637">
  <ele>468.72</ele>
  <time>2026-09-01T19:59:23Z</time>
  <course>325.52</course>
  <speed>0.01</speed>
  <fix>3d</fix>
</trkpt>
<trkpt lat="-27.2721938" lon="151.2900638">
  <ele>467.93</ele>
  <time>2026-09-01T19:59:23Z</time>
  <course>10.83</course>
  <speed>0.0316227766016838</speed>
  <fix>3d</fix>
</trkpt>
<trkpt lat="-27.272194" lon="151.2900637">
  <ele>468.32</ele>
  <time>2026-09-01T19:59:23Z</time>
  <course>323.41</course>
  <speed>0.01</speed>
  <fix>3d</fix>
</trkpt>
<trkpt lat="-27.2721938" lon="151.2900637">
  <ele>467.73</ele>
  <time>2026-09-01T19:59:23Z</time>
  <course>10.86</course>
  <speed>0.03605551275463989</speed>
  <fix>3d</fix>
</trkpt>
<trkpt lat="-27.272194" lon="151.2900637">
  <ele>468.32</ele>
  <time>2026-09-01T19:59:23Z</time>
  <course>323.41</course>
  <speed>0.01</speed>
  <fix>3d</fix>
</trkpt>
<trkpt lat="-27.2721938" lon="151.2900637">
  <ele>467.53</ele>
  <time>2026-09-01T19:59:23Z</time>
  <course>10.88</course>
  <speed>0.03605551275463989</speed>
  <fix>3d</fix>
</trkpt>
<trkpt lat="-27.2721939" lon="151.2900637">
  <ele>467.91</ele>
  <time>2026-09-01T19:59:23Z</time>
  <course>322.58</course>
  <speed>0.01</speed>
  <fix>3d</fix>
</trkpt>
<trkpt lat="-27.2721938" lon="151.2900637">
  <ele>467.33</ele>
  <time>2026-09-01T19:59:23Z</time>
  <course>10.9</course>
  <speed>0.03605551275463989</speed>
  <fix>3d</fix>
</trkpt>
<trkpt lat="-27.2721939" lon="151.2900637">
  <ele>467.91</ele>
  <time>2026-09-01T19:59:23Z</time>
  <course>322.58</course>
  <speed>0.01</speed>
  <fix>3d</fix>
</trkpt>
<trkpt lat="-27.2721937" lon="151.2900637">
  <ele>467.13</ele>
  <time>2026-09-01T19:59:23Z</time>
  <course>10.92</course>
  <speed>0.03605551275463989</speed>
  <fix>3d</fix>
</trkpt>
<trkpt lat="-27.2721939" lon="151.2900637">
  <ele>467.52</ele>
  <time>2026-09-01T19:59:23Z</time>
  <course>320.91</course>
  <speed>0.01</speed>
  <fix>3d</fix>
</trkpt>
<trkpt lat="-27.2721937" lon="151.2900637">
  <ele>466.93</ele>
  <time>2026-09-01T19:59:23Z</time>
  <course>10.94</course>
  <speed>0.03605551275463989</speed>
  <fix>3d</fix>
</trkpt>
<trkpt lat="-27.2721939" lon="151.2900637">
  <ele>467.52</ele>
  <time>2026-09-01T19:59:23Z</time>
  <course>320.91</course>
  <speed>0.01</speed>
  <fix>3d</fix>
</trkpt>
<trkpt lat="-27.2721937" lon="151.2900636">
  <ele>466.73</ele>
  <time>2026-09-01T19:59:23Z</time>
  <course>10.97</course>
  <speed>0.03605551275463989</speed>
  <fix>3d</fix>
</trkpt>
<trkpt lat="-27.2721939" lon="151.2900637">
  <ele>467.13</ele>
  <time>2026-09-01T19:59:23Z</time>
  <course>319.46</course>
  <speed>0.01</speed>
  <fix>3d</fix>
</trkpt>
<trkpt lat="-27.2721937" lon="151.2900636">
  <ele>466.53</ele>
  <time>2026-09-01T19:59:23Z</time>
  <course>11.0</course>
  <speed>0.03605551275463989</speed>
  <fix>3d</fix>
</trkpt>
<trkpt lat="-27.2721939" lon="151.2900637">
  <ele>467.13</ele>
  <time>2026-09-01T19:59:23Z</time>
  <course>319.46</course>
  <speed>0.01</speed>
  <fix>3d</fix>
</trkpt>
<trkpt lat="-27.2721937" lon="151.2900636">
  <ele>466.33</ele>
  <time>2026-09-01T19:59:23Z</time>
  <course>11.02</course>
  <speed>0.03605551275463989</speed>
  <fix>3d</fix>
</trkpt>
<trkpt lat="-27.2721939" lon="151.2900637">
  <ele>466.72</ele>
  <time>2026-09-01T19:59:23Z</time>
  <course>319.6</course>
  <speed>0.02</speed>
  <fix>3d</fix>
</trkpt>
<trkpt lat="-27.2721937" lon="151.2900636">
  <ele>466.13</ele>
  <time>2026-09-01T19:59:23Z</time>
  <course>11.04</course>
  <speed>0.03605551275463989</speed>
  <fix>3d</fix>
</trkpt>
<trkpt lat="-27.2721939" lon="151.2900637">
  <ele>466.72</ele>
  <time>2026-09-01T19:59:23Z</time>
  <course>319.6</course>
  <speed>0.02</speed>
  <fix>3d</fix>
</trkpt>
<trkpt lat="-27.2721937" lon="151.2900636">
  <ele>465.94</ele>
  <time>2026-09-01T19:59:23Z</time>
  <course>11.05</course>
  <speed>0.03605551275463989</speed>
  <fix>3d</fix>
</trkpt>
<trkpt lat="-27.2721938" lon="151.2900637">
  <ele>466.33</ele>
  <time>2026-09-01T19:59:23Z</time>
  <course>319.04</course>
  <speed>0.02</speed>
  <fix>3d</fix>
</trkpt>
<trkpt lat="-27.2721937" lon="151.2900636">
  <ele>465.74</ele>
  <time>2026-09-01T19:59:23Z</time>
  <course>11.06</course>
  <speed>0.03605551275463989</speed>
  <fix>3d</fix>
</trkpt>
<trkpt lat="-27.2721938" lon="151.2900637">
  <ele>466.33</ele>
  <time>2026-09-01T19:59:23Z</time>
  <course>319.04</course>
  <speed>0.02</speed>
  <fix>3d</fix>
</trkpt>
<trkpt lat="-27.2721937" lon="151.2900636">
  <ele>465.54</ele>
  <time>2026-09-01T19:59:23Z</time>
  <course>11.08</course>
  <speed>0.03605551275463989</speed>
  <fix>3d</fix>
</trkpt>
<trkpt lat="-27.2721938" lon="151.2900636">
  <ele>465.93</ele>
  <time>2026-09-01T19:59:23Z</time>
  <course>318.06</course>
  <speed>0.02</speed>
  <fix>3d</fix>
</trkpt>
<trkpt lat="-27.2721937" lon="151.2900635">
  <ele>465.34</ele>
  <time>2026-09-01T19:59:23Z</time>
  <course>11.09</course>
  <speed>0.03605551275463989</speed>
  <fix>3d</fix>
</trkpt>
<trkpt lat="-27.2721938" lon="151.2900636">
  <ele>465.93</ele>
  <time>2026-09-01T19:59:23Z</time>
  <course>318.06</course>
  <speed>0.02</speed>
  <fix>3d</fix>
</trkpt>
<trkpt lat="-27.2721936" lon="151.2900635">
  <ele>465.14</ele>
  <time>2026-09-01T19:59:23Z</time>
  <course>11.1</course>
  <speed>0.03605551275463989</speed>
  <fix>3d</fix>
</trkpt>
<trkpt lat="-27.2721938" lon="151.2900636">
  <ele>465.53</ele>
  <time>2026-09-01T19:59:23Z</time>
  <course>318.27</course>
  <speed>0.02</speed>
  <fix>3d</fix>
</trkpt>
<trkpt lat="-27.2721936" lon="151.2900635">
  <ele>464.94</ele>
  <time>2026-09-01T19:59:23Z</time>
  <course>11.11</course>
  <speed>0.03605551275463989</speed>
  <fix>3d</fix>
</trkpt>
<trkpt lat="-27.2721938" lon="151.2900636">
  <ele>465.53</ele>
  <time>2026-09-01T19:59:23Z</time>
  <course>318.27</course>
  <speed>0.02</speed>
  <fix>3d</fix>
</trkpt>
<trkpt lat="-27.2721936" lon="151.2900635">
  <ele>464.74</ele>
  <time>2026-09-01T19:59:23Z</time>
  <course>11.11</course>
  <speed>0.03605551275463989</speed>
  <fix>3d</fix>
</trkpt>
<trkpt lat="-27.2721937" lon="151.2900636">
  <ele>465.14</ele>
  <time>2026-09-01T19:59:23Z</time>
  <course>319.34</course>
  <speed>0.02</speed>
  <fix>3d</fix>
</trkpt>
<trkpt lat="-27.2721936" lon="151.2900635">
  <ele>464.54</ele>
  <time>2026-09-01T19:59:23Z</time>
  <course>11.11</course>
  <speed>0.03605551275463989</speed>
  <fix>3d</fix>
</trkpt>
<trkpt lat="-27.2721937" lon="151.2900636">
  <ele>465.14</ele>
  <time>2026-09-01T19:59:23Z</time>
  <course>319.34</course>
  <speed>0.02</speed>
  <fix>3d</fix>
</trkpt>
<trkpt lat="-27.2721936" lon="151.2900635">
  <ele>464.34</ele>
  <time>2026-09-01T19:59:23Z</time>
  <course>11.13</course>
  <speed>0.03605551275463989</speed>
  <fix>3d</fix>
</trkpt>
<trkpt lat="-27.2721937" lon="151.2900635">
  <ele>464.74</ele>
  <time>2026-09-01T19:59:23Z</time>
  <course>319.64</course>
  <speed>0.02</speed>
  <fix>3d</fix>
</trkpt>
<trkpt lat="-27.2721936" lon="151.2900635">
  <ele>464.14</ele>
  <time>2026-09-01T19:59:23Z</time>
  <course>11.16</course>
  <speed>0.03605551275463989</speed>
  <fix>3d</fix>
</trkpt>
<trkpt lat="-27.2721937" lon="151.2900635">
  <ele>464.74</ele>
  <time>2026-09-01T19:59:23Z</time>
  <course>319.64</course>
  <speed>0.02</speed>
  <fix>3d</fix>
</trkpt>
<trkpt lat="-27.2721935" lon="151.2900634">
  <ele>463.94</ele>
  <time>2026-09-01T19:59:23Z</time>
  <course>11.2</course>
  <speed>0.04242640687119285</speed>
  <fix>3d</fix>
</trkpt>
<trkpt lat="-27.2721937" lon="151.2900635">
  <ele>464.34</ele>
  <time>2026-09-01T19:59:23Z</time>
  <course>318.15</course>
  <speed>0.02</speed>
  <fix>3d</fix>
</trkpt>
<trkpt lat="-27.2721935" lon="151.2900634">
  <ele>463.75</ele>
  <time>2026-09-01T19:59:23Z</time>
  <course>11.26</course>
  <speed>0.04242640687119285</speed>
  <fix>3d</fix>
</trkpt>
<trkpt lat="-27.2721937" lon="151.2900635">
  <ele>464.34</ele>
  <time>2026-09-01T19:59:23Z</time>
  <course>318.15</course>
  <speed>0.02</speed>
  <fix>3d</fix>
</trkpt>
<trkpt lat="-27.2721935" lon="151.2900634">
  <ele>463.54</ele>
  <time>2026-09-01T19:59:23Z</time>
  <course>11.32</course>
  <speed>0.04242640687119285</speed>
  <fix>3d</fix>
</trkpt>
<trkpt lat="-27.2721936" lon="151.2900634">
  <ele>463.94</ele>
  <time>2026-09-01T19:59:23Z</time>
  <course>315.57</course>
  <speed>0.02</speed>
  <fix>3d</fix>
</trkpt>
<trkpt lat="-27.2721935" lon="151.2900634">
  <ele>463.35</ele>
  <time>2026-09-01T19:59:23Z</time>
  <course>11.38</course>
  <speed>0.04242640687119285</speed>
  <fix>3d</fix>
</trkpt>
<trkpt lat="-27.2721936" lon="151.2900634">
  <ele>463.94</ele>
  <time>2026-09-01T19:59:23Z</time>
  <course>315.57</course>
  <speed>0.02</speed>
  <fix>3d</fix>
</trkpt>
<trkpt lat="-27.2721935" lon="151.2900633">
  <ele>463.15</ele>
  <time>2026-09-01T19:59:23Z</time>
  <course>11.44</course>
  <speed>0.04242640687119285</speed>
  <fix>3d</fix>
</trkpt>
<trkpt lat="-27.2721936" lon="151.2900633">
  <ele>463.53</ele>
  <time>2026-09-01T19:59:23Z</time>
  <course>312.97</course>
  <speed>0.02</speed>
  <fix>3d</fix>
</trkpt>
<trkpt lat="-27.2721934" lon="151.2900633">
  <ele>462.95</ele>
  <time>2026-09-01T19:59:23Z</time>
  <course>11.48</course>
  <speed>0.04242640687119285</speed>
  <fix>3d</fix>
</trkpt>
<trkpt lat="-27.2721936" lon="151.2900633">
  <ele>463.53</ele>
  <time>2026-09-01T19:59:23Z</time>
  <course>312.97</course>
  <speed>0.02</speed>
  <fix>3d</fix>
</trkpt>
<trkpt lat="-27.2721934" lon="151.2900633">
  <ele>462.75</ele>
  <time>2026-09-01T19:59:23Z</time>
  <course>11.52</course>
  <speed>0.05</speed>
  <fix>3d</fix>
</trkpt>
<trkpt lat="-27.2721936" lon="151.2900633">
  <ele>463.13</ele>
  <time>2026-09-01T19:59:23Z</time>
  <course>310.81</course>
  <speed>0.03</speed>
  <fix>3d</fix>
</trkpt>
<trkpt lat="-27.2721934" lon="151.2900632">
  <ele>462.55</ele>
  <time>2026-09-01T19:59:23Z</time>
  <course>11.55</course>
  <speed>0.05</speed>
  <fix>3d</fix>
</trkpt>
<trkpt lat="-27.2721936" lon="151.2900633">
  <ele>463.13</ele>
  <time>2026-09-01T19:59:23Z</time>
  <course>310.81</course>
  <speed>0.03</speed>
  <fix>3d</fix>
</trkpt>
<trkpt lat="-27.2721934" lon="151.2900632">
  <ele>462.35</ele>
  <time>2026-09-01T19:59:23Z</time>
  <course>11.58</course>
  <speed>0.05</speed>
  <fix>3d</fix>
</trkpt>
<trkpt lat="-27.2721935" lon="151.2900633">
  <ele>462.72</ele>
  <time>2026-09-01T19:59:23Z</time>
  <course>308.59</course>
  <speed>0.03</speed>
  <fix>3d</fix>
</trkpt>
<trkpt lat="-27.2721934" lon="151.2900632">
  <ele>462.15</ele>
  <time>2026-09-01T19:59:23Z</time>
  <course>11.62</course>
  <speed>0.0565685424949238</speed>
  <fix>3d</fix>
</trkpt>
<trkpt lat="-27.2721935" lon="151.2900633">
  <ele>462.72</ele>
  <time>2026-09-01T19:59:23Z</time>
  <course>308.59</course>
  <speed>0.03</speed>
  <fix>3d</fix>
</trkpt>
<trkpt lat="-27.2721934" lon="151.2900632">
  <ele>461.95</ele>
  <time>2026-09-01T19:59:23Z</time>
  <course>11.66</course>
  <speed>0.0565685424949238</speed>
  <fix>3d</fix>
</trkpt>
<trkpt lat="-27.2721935" lon="151.2900632">
  <ele>462.33</ele>
  <time>2026-09-01T19:59:23Z</time>
  <course>306.15</course>
  <speed>0.03</speed>
  <fix>3d</fix>
</trkpt>
<trkpt lat="-27.2721933" lon="151.2900631">
  <ele>461.75</ele>
  <time>2026-09-01T19:59:23Z</time>
  <course>11.71</course>
  <speed>0.0565685424949238</speed>
  <fix>3d</fix>
</trkpt>
<trkpt lat="-27.2721935" lon="151.2900632">
  <ele>462.33</ele>
  <time>2026-09-01T19:59:23Z</time>
  <course>306.15</course>
  <speed>0.03</speed>
  <fix>3d</fix>
</trkpt>
<trkpt lat="-27.2721933" lon="151.2900631">
  <ele>461.55</ele>
  <time>2026-09-01T19:59:23Z</time>
  <course>11.76</course>
  <speed>0.0565685424949238</speed>
  <fix>3d</fix>
</trkpt>
<trkpt lat="-27.2721934" lon="151.2900632">
  <ele>461.93</ele>
  <time>2026-09-01T19:59:23Z</time>
  <course>304.24</course>
  <speed>0.03</speed>
  <fix>3d</fix>
</trkpt>
<trkpt lat="-27.2721933" lon="151.2900631">
  <ele>461.35</ele>
  <time>2026-09-01T19:59:23Z</time>
  <course>11.8</course>
  <speed>0.0565685424949238</speed>
  <fix>3d</fix>
</trkpt>
<trkpt lat="-27.2721934" lon="151.2900632">
  <ele>461.93</ele>
  <time>2026-09-01T19:59:23Z</time>
  <course>304.24</course>
  <speed>0.03</speed>
  <fix>3d</fix>
</trkpt>
<trkpt lat="-27.2721933" lon="151.290063">
  <ele>461.15</ele>
  <time>2026-09-01T19:59:23Z</time>
  <course>11.84</course>
  <speed>0.0565685424949238</speed>
  <fix>3d</fix>
</trkpt>
<trkpt lat="-27.2721934" lon="151.2900631">
  <ele>461.52</ele>
  <time>2026-09-01T19:59:23Z</time>
  <course>302.29</course>
  <speed>0.03</speed>
  <fix>3d</fix>
</trkpt>
<trkpt lat="-27.2721933" lon="151.290063">
  <ele>460.94</ele>
  <time>2026-09-01T19:59:23Z</time>
  <course>11.89</course>
  <speed>0.06403124237432849</speed>
  <fix>3d</fix>
</trkpt>
<trkpt lat="-27.2721934" lon="151.2900631">
  <ele>461.52</ele>
  <time>2026-09-01T19:59:23Z</time>
  <course>302.29</course>
  <speed>0.03</speed>
  <fix>3d</fix>
</trkpt>
<trkpt lat="-27.2721932" lon="151.2900629">
  <ele>460.74</ele>
  <time>2026-09-01T19:59:23Z</time>
  <course>11.95</course>
  <speed>0.06403124237432849</speed>
  <fix>3d</fix>
</trkpt>
<trkpt lat="-27.2721934" lon="151.2900631">
  <ele>461.12</ele>
  <time>2026-09-01T19:59:23Z</time>
  <course>299.76</course>
  <speed>0.04</speed>
  <fix>3d</fix>
</trkpt>
<trkpt lat="-27.2721932" lon="151.2900629">
  <ele>460.54</ele>
  <time>2026-09-01T19:59:23Z</time>
  <course>12.02</course>
  <speed>0.06403124237432849</speed>
  <fix>3d</fix>
</trkpt>
<trkpt lat="-27.2721934" lon="151.2900631">
  <ele>461.12</ele>
  <time>2026-09-01T19:59:23Z</time>
  <course>299.76</course>
  <speed>0.04</speed>
  <fix>3d</fix>
</trkpt>
<trkpt lat="-27.2721932" lon="151.2900629">
  <ele>460.34</ele>
  <time>2026-09-01T19:59:23Z</time>
  <course>12.1</course>
  <speed>0.06403124237432849</speed>
  <fix>3d</fix>
</trkpt>
<trkpt lat="-27.2721933" lon="151.290063">
  <ele>460.72</ele>
  <time>2026-09-01T19:59:23Z</time>
  <course>297.56</course>
  <speed>0.04</speed>
  <fix>3d</fix>
</trkpt>
<trkpt lat="-27.2721932" lon="151.2900628">
  <ele>460.14</ele>
  <time>2026-09-01T19:59:23Z</time>
  <course>12.16</course>
  <speed>0.05</speed>
  <fix>3d</fix>
</trkpt>
<trkpt lat="-27.2721933" lon="151.290063">
  <ele>460.72</ele>
  <time>2026-09-01T19:59:23Z</time>
  <course>297.56</course>
  <speed>0.04</speed>
  <fix>3d</fix>
</trkpt>
<trkpt lat="-27.2721932" lon="151.2900628">
  <ele>459.94</ele>
  <time>2026-09-01T19:59:23Z</time>
  <course>12.2</course>
  <speed>0.04242640687119285</speed>
  <fix>3d</fix>
</trkpt>
<trkpt lat="-27.2721933" lon="151.2900629">
  <ele>460.32</ele>
  <time>2026-09-01T19:59:23Z</time>
  <course>296.01</course>
  <speed>0.04</speed>
  <fix>3d</fix>
</trkpt>
<trkpt lat="-27.2721931" lon="151.2900628">
  <ele>459.74</ele>
  <time>2026-09-01T19:59:23Z</time>
  <course>12.22</course>
  <speed>0.05</speed>
  <fix>3d</fix>
</trkpt>
<trkpt lat="-27.2721933" lon="151.2900629">
  <ele>460.32</ele>
  <time>2026-09-01T19:59:23Z</time>
  <course>296.01</course>
  <speed>0.04</speed>
  <fix>3d</fix>
</trkpt>
<trkpt lat="-27.2721931" lon="151.2900627">
  <ele>459.54</ele>
  <time>2026-09-01T19:59:23Z</time>
  <course>12.24</course>
  <speed>0.06403124237432849</speed>
  <fix>3d</fix>
</trkpt>
<trkpt lat="-27.2721933" lon="151.2900628">
  <ele>459.91</ele>
  <time>2026-09-01T19:59:23Z</time>
  <course>294.21</course>
  <speed>0.04</speed>
  <fix>3d</fix>
</trkpt>
<trkpt lat="-27.2721931" lon="151.2900627">
  <ele>459.34</ele>
  <time>2026-09-01T19:59:23Z</time>
  <course>12.27</course>
  <speed>0.05</speed>
  <fix>3d</fix>
</trkpt>
<trkpt lat="-27.2721933" lon="151.2900628">
  <ele>459.91</ele>
  <time>2026-09-01T19:59:23Z</time>
  <course>294.21</course>
  <speed>0.04</speed>
  <fix>3d</fix>
</trkpt>
<trkpt lat="-27.2721931" lon="151.2900627">
  <ele>459.14</ele>
  <time>2026-09-01T19:59:23Z</time>
  <course>12.31</course>
  <speed>0.05</speed>
  <fix>3d</fix>
</trkpt>
<trkpt lat="-27.2721932" lon="151.2900627">
  <ele>459.51</ele>
  <time>2026-09-01T19:59:23Z</time>
  <course>292.53</course>
  <speed>0.04</speed>
  <fix>3d</fix>
</trkpt>
<trkpt lat="-27.2721931" lon="151.2900626">
  <ele>458.93</ele>
  <time>2026-09-01T19:59:23Z</time>
  <course>12.36</course>
  <speed>0.05830951894845301</speed>
  <fix>3d</fix>
</trkpt>
<trkpt lat="-27.2721932" lon="151.2900627">
  <ele>459.51</ele>
  <time>2026-09-01T19:59:23Z</time>
  <course>292.53</course>
  <speed>0.04</speed>
  <fix>3d</fix>
</trkpt>
<trkpt lat="-27.2721931" lon="151.2900626">
  <ele>458.73</ele>
  <time>2026-09-01T19:59:23Z</time>
  <course>12.4</course>
  <speed>0.05830951894845301</speed>
  <fix>3d</fix>
</trkpt>
<trkpt lat="-27.2721932" lon="151.2900626">
  <ele>459.11</ele>
  <time>2026-09-01T19:59:23Z</time>
  <course>291.2</course>
  <speed>0.04</speed>
  <fix>3d</fix>
</trkpt>
<trkpt lat="-27.272193" lon="151.2900625">
  <ele>458.53</ele>
  <time>2026-09-01T19:59:23Z</time>
  <course>12.45</course>
  <speed>0.05830951894845301</speed>
  <fix>3d</fix>
</trkpt>
<trkpt lat="-27.2721932" lon="151.2900626">
  <ele>459.11</ele>
  <time>2026-09-01T19:59:23Z</time>
  <course>291.2</course>
  <speed>0.04</speed>
  <fix>3d</fix>
</trkpt>
<trkpt lat="-27.272193" lon="151.2900625">
  <ele>458.34</ele>
  <time>2026-09-01T19:59:23Z</time>
  <course>12.5</course>
  <speed>0.05830951894845301</speed>
  <fix>3d</fix>
</trkpt>
<trkpt lat="-27.2721932" lon="151.2900625">
  <ele>458.71</ele>
  <time>2026-09-01T19:59:23Z</time>
  <course>289.94</course>
  <speed>0.05</speed>
  <fix>3d</fix>
</trkpt>
<trkpt lat="-27.272193" lon="151.2900624">
  <ele>458.14</ele>
  <time>2026-09-01T19:59:23Z</time>
  <course>12.56</course>
  <speed>0.05830951894845301</speed>
  <fix>3d</fix>
</trkpt>
<trkpt lat="-27.2721932" lon="151.2900625">
  <ele>458.71</ele>
  <time>2026-09-01T19:59:23Z</time>
  <course>289.94</course>
  <speed>0.05</speed>
  <fix>3d</fix>
</trkpt>
<trkpt lat="-27.272193" lon="151.2900624">
  <ele>457.94</ele>
  <time>2026-09-01T19:59:23Z</time>
  <course>12.63</course>
  <speed>0.07211102550927978</speed>
  <fix>3d</fix>
</trkpt>
<trkpt lat="-27.2721931" lon="151.2900624">
  <ele>458.31</ele>
  <time>2026-09-01T19:59:23Z</time>
  <course>289.0</course>
  <speed>0.05</speed>
  <fix>3d</fix>
</trkpt>
<trkpt lat="-27.272193" lon="151.2900623">
  <ele>457.74</ele>
  <time>2026-09-01T19:59:23Z</time>
  <course>12.71</course>
  <speed>0.07211102550927978</speed>
  <fix>3d</fix>
</trkpt>
<trkpt lat="-27.2721931" lon="151.2900624">
  <ele>458.31</ele>
  <time>2026-09-01T19:59:23Z</time>
  <course>289.0</course>
  <speed>0.05</speed>
  <fix>3d</fix>
</trkpt>
<trkpt lat="-27.272193" lon="151.2900623">
  <ele>457.54</ele>
  <time>2026-09-01T19:59:23Z</time>
  <course>12.8</course>
  <speed>0.07211102550927978</speed>
  <fix>3d</fix>
</trkpt>
<trkpt lat="-27.2721931" lon="151.2900623">
  <ele>457.91</ele>
  <time>2026-09-01T19:59:23Z</time>
  <course>288.24</course>
  <speed>0.05</speed>
  <fix>3d</fix>
</trkpt>
<trkpt lat="-27.2721929" lon="151.2900622">
  <ele>457.34</ele>
  <time>2026-09-01T19:59:23Z</time>
  <course>12.9</course>
  <speed>0.08062257748298549</speed>
  <fix>3d</fix>
</trkpt>
<trkpt lat="-27.2721931" lon="151.2900623">
  <ele>457.91</ele>
  <time>2026-09-01T19:59:23Z</time>
  <course>288.24</course>
  <speed>0.05</speed>
  <fix>3d</fix>
</trkpt>
<trkpt lat="-27.2721929" lon="151.2900621">
  <ele>457.14</ele>
  <time>2026-09-01T19:59:23Z</time>
  <course>13.01</course>
  <speed>0.08944271909999159</speed>
  <fix>3d</fix>
</trkpt>
<trkpt lat="-27.2721931" lon="151.2900622">
  <ele>457.52</ele>
  <time>2026-09-01T19:59:23Z</time>
  <course>287.64</course>
  <speed>0.06</speed>
  <fix>3d</fix>
</trkpt>
<trkpt lat="-27.2721929" lon="151.290062">
  <ele>456.94</ele>
  <time>2026-09-01T19:59:23Z</time>
  <course>13.12</course>
  <speed>0.08944271909999159</speed>
  <fix>3d</fix>
</trkpt>
<trkpt lat="-27.2721931" lon="151.2900622">
  <ele>457.52</ele>
  <time>2026-09-01T19:59:23Z</time>
  <course>287.64</course>
  <speed>0.06</speed>
  <fix>3d</fix>
</trkpt>
<trkpt lat="-27.2721929" lon="151.290062">
  <ele>456.74</ele>
  <time>2026-09-01T19:59:23Z</time>
  <course>13.24</course>
  <speed>0.09848857801796104</speed>
  <fix>3d</fix>
</trkpt>
<trkpt lat="-27.272193" lon="151.2900621">
  <ele>457.11</ele>
  <time>2026-09-01T19:59:23Z</time>
  <course>287.4</course>
  <speed>0.06</speed>
  <fix>3d</fix>
</trkpt>
<trkpt lat="-27.2721929" lon="151.2900619">
  <ele>456.54</ele>
  <time>2026-09-01T19:59:23Z</time>
  <course>13.38</course>
  <speed>0.09848857801796104</speed>
  <fix>3d</fix>
</trkpt>
<trkpt lat="-27.272193" lon="151.2900621">
  <ele>457.11</ele>
  <time>2026-09-01T19:59:23Z</time>
  <course>287.4</course>
  <speed>0.06</speed>
  <fix>3d</fix>
</trkpt>
<trkpt lat="-27.2721928" lon="151.2900618">
  <ele>456.34</ele>
  <time>2026-09-01T19:59:23Z</time>
  <course>13.53</course>
  <speed>0.1118033988749895</speed>
  <fix>3d</fix>
</trkpt>
<trkpt lat="-27.272193" lon="151.2900619">
  <ele>456.71</ele>
  <time>2026-09-01T19:59:23Z</time>
  <course>287.51</course>
  <speed>0.07</speed>
  <fix>3d</fix>
</trkpt>
<trkpt lat="-27.2721928" lon="151.2900617">
  <ele>456.13</ele>
  <time>2026-09-01T19:59:23Z</time>
  <course>13.68</course>
  <speed>0.1118033988749895</speed>
  <fix>3d</fix>
</trkpt>
<trkpt lat="-27.272193" lon="151.2900619">
  <ele>456.71</ele>
  <time>2026-09-01T19:59:23Z</time>
  <course>287.51</course>
  <speed>0.07</speed>
  <fix>3d</fix>
</trkpt>
<trkpt lat="-27.2721928" lon="151.2900616">
  <ele>455.93</ele>
  <time>2026-09-01T19:59:23Z</time>
  <course>13.84</course>
  <speed>0.1118033988749895</speed>
  <fix>3d</fix>
</trkpt>
<trkpt lat="-27.272193" lon="151.2900618">
  <ele>456.31</ele>
  <time>2026-09-01T19:59:23Z</time>
  <course>287.89</course>
  <speed>0.07</speed>
  <fix>3d</fix>
</trkpt>
<trkpt lat="-27.2721928" lon="151.2900615">
  <ele>455.73</ele>
  <time>2026-09-01T19:59:23Z</time>
  <course>13.98</course>
  <speed>0.1118033988749895</speed>
  <fix>3d</fix>
</trkpt>
<trkpt lat="-27.272193" lon="151.2900618">
  <ele>456.31</ele>
  <time>2026-09-01T19:59:23Z</time>
  <course>287.89</course>
  <speed>0.07</speed>
  <fix>3d</fix>
</trkpt>
<trkpt lat="-27.2721927" lon="151.2900614">
  <ele>455.53</ele>
  <time>2026-09-01T19:59:23Z</time>
  <course>14.13</course>
  <speed>0.12083045973594572</speed>
  <fix>3d</fix>
</trkpt>
<trkpt lat="-27.2721929" lon="151.2900617">
  <ele>455.9</ele>
  <time>2026-09-01T19:59:23Z</time>
  <course>288.54</course>
  <speed>0.08</speed>
  <fix>3d</fix>
</trkpt>
<trkpt lat="-27.2721927" lon="151.2900613">
  <ele>455.33</ele>
  <time>2026-09-01T19:59:23Z</time>
  <course>14.27</course>
  <speed>0.12083045973594572</speed>
  <fix>3d</fix>
</trkpt>
<trkpt lat="-27.2721929" lon="151.2900617">
  <ele>455.9</ele>
  <time>2026-09-01T19:59:23Z</time>
  <course>288.54</course>
  <speed>0.08</speed>
  <fix>3d</fix>
</trkpt>
<trkpt lat="-27.2721927" lon="151.2900613">
  <ele>455.13</ele>
  <time>2026-09-01T19:59:23Z</time>
  <course>14.44</course>
  <speed>0.12083045973594572</speed>
  <fix>3d</fix>
</trkpt>
<trkpt lat="-27.2721928" lon="151.2900614">
  <ele>455.51</ele>
  <time>2026-09-01T19:59:23Z</time>
  <course>289.29</course>
  <speed>0.08</speed>
  <fix>3d</fix>
</trkpt>
<trkpt lat="-27.2721926" lon="151.2900612">
  <ele>454.93</ele>
  <time>2026-09-01T19:59:23Z</time>
  <course>14.61</course>
  <speed>0.12529964086141668</speed>
  <fix>3d</fix>
</trkpt>
<trkpt lat="-27.2721928" lon="151.2900614">
  <ele>455.51</ele>
  <time>2026-09-01T19:59:23Z</time>
  <course>289.29</course>
  <speed>0.08</speed>
  <fix>3d</fix>
</trkpt>
<trkpt lat="-27.2721926" lon="151.2900611">
  <ele>454.73</ele>
  <time>2026-09-01T19:59:23Z</time>
  <course>14.8</course>
  <speed>0.1341640786499874</speed>
  <fix>3d</fix>
</trkpt>
<trkpt lat="-27.2721928" lon="151.2900613">
  <ele>455.11</ele>
  <time>2026-09-01T19:59:23Z</time>
  <course>290.16</course>
  <speed>0.09</speed>
  <fix>3d</fix>
</trkpt>
<trkpt lat="-27.2721926" lon="151.290061">
  <ele>454.53</ele>
  <time>2026-09-01T19:59:23Z</time>
  <course>14.98</course>
  <speed>0.1341640786499874</speed>
  <fix>3d</fix>
</trkpt>
<trkpt lat="-27.2721928" lon="151.2900613">
  <ele>455.11</ele>
  <time>2026-09-01T19:59:23Z</time>
  <course>290.16</course>
  <speed>0.09</speed>
  <fix>3d</fix>
</trkpt>
<trkpt lat="-27.2721925" lon="151.2900608">
  <ele>454.33</ele>
  <time>2026-09-01T19:59:23Z</time>
  <course>15.17</course>
  <speed>0.1341640786499874</speed>
  <fix>3d</fix>
</trkpt>
<trkpt lat="-27.2721927" lon="151.2900612">
  <ele>454.71</ele>
  <time>2026-09-01T19:59:23Z</time>
  <course>291.18</course>
  <speed>0.1</speed>
  <fix>3d</fix>
</trkpt>
<trkpt lat="-27.2721925" lon="151.2900608">
  <ele>454.13</ele>
  <time>2026-09-01T19:59:23Z</time>
  <course>15.35</course>
  <speed>0.1341640786499874</speed>
  <fix>3d</fix>
</trkpt>
<trkpt lat="-27.2721927" lon="151.2900612">
  <ele>454.71</ele>
  <time>2026-09-01T19:59:23Z</time>
  <course>291.18</course>
  <speed>0.1</speed>
  <fix>3d</fix>
</trkpt>
<trkpt lat="-27.2721925" lon="151.2900607">
  <ele>453.94</ele>
  <time>2026-09-01T19:59:23Z</time>
  <course>15.55</course>
  <speed>0.13892443989449804</speed>
  <fix>3d</fix>
</trkpt>
<trkpt lat="-27.2721927" lon="151.2900609">
  <ele>454.31</ele>
  <time>2026-09-01T19:59:23Z</time>
  <course>292.39</course>
  <speed>0.1</speed>
  <fix>3d</fix>
</trkpt>
<trkpt lat="-27.2721924" lon="151.2900606">
  <ele>453.74</ele>
  <time>2026-09-01T19:59:23Z</time>
  <course>15.75</course>
  <speed>0.13892443989449804</speed>
  <fix>3d</fix>
</trkpt>
<trkpt lat="-27.2721927" lon="151.2900609">
  <ele>454.31</ele>
  <time>2026-09-01T19:59:23Z</time>
  <course>292.39</course>
  <speed>0.1</speed>
  <fix>3d</fix>
</trkpt>
<trkpt lat="-27.2721924" lon="151.2900605">
  <ele>453.54</ele>
  <time>2026-09-01T19:59:23Z</time>
  <course>15.96</course>
  <speed>0.13892443989449804</speed>
  <fix>3d</fix>
</trkpt>
<trkpt lat="-27.2721926" lon="151.2900607">
  <ele>453.91</ele>
  <time>2026-09-01T19:59:23Z</time>
  <course>293.81</course>
  <speed>0.11</speed>
  <fix>3d</fix>
</trkpt>
<trkpt lat="-27.2721923" lon="151.2900604">
  <ele>453.34</ele>
  <time>2026-09-01T19:59:23Z</time>
  <course>16.16</course>
  <speed>0.13892443989449804</speed>
  <fix>3d</fix>
</trkpt>
<trkpt lat="-27.2721926" lon="151.2900607">
  <ele>453.91</ele>
  <time>2026-09-01T19:59:23Z</time>
  <course>293.81</course>
  <speed>0.11</speed>
  <fix>3d</fix>
</trkpt>
<trkpt lat="-27.2721923" lon="151.2900603">
  <ele>453.14</ele>
  <time>2026-09-01T19:59:23Z</time>
  <course>16.14</course>
  <speed>0.11401754250991379</speed>
  <fix>3d</fix>
</trkpt>
<trkpt lat="-27.2721925" lon="151.2900604">
  <ele>453.52</ele>
  <time>2026-09-01T19:59:23Z</time>
  <course>296.57</course>
  <speed>0.1</speed>
  <fix>3d</fix>
</trkpt>
<trkpt lat="-27.2721923" lon="151.2900602">
  <ele>452.94</ele>
  <time>2026-09-01T19:59:23Z</time>
  <course>15.77</course>
  <speed>0.09219544457292887</speed>
  <fix>3d</fix>
</trkpt>
<trkpt lat="-27.2721925" lon="151.2900604">
  <ele>453.52</ele>
  <time>2026-09-01T19:59:23Z</time>
  <course>296.57</course>
  <speed>0.1</speed>
  <fix>3d</fix>
</trkpt>
<trkpt lat="-27.2721922" lon="151.2900602">
  <ele>452.74</ele>
  <time>2026-09-01T19:59:23Z</time>
  <course>15.16</course>
  <speed>0.06403124237432849</speed>
  <fix>3d</fix>
</trkpt>
<trkpt lat="-27.2721924" lon="151.2900603">
  <ele>453.12</ele>
  <time>2026-09-01T19:59:23Z</time>
  <course>305.33</course>
  <speed>0.06</speed>
  <fix>3d</fix>
</trkpt>
<trkpt lat="-27.2721922" lon="151.2900601">
  <ele>452.54</ele>
  <time>2026-09-01T19:59:23Z</time>
  <course>14.46</course>
  <speed>0.05099019513592785</speed>
  <fix>3d</fix>
</trkpt>
<trkpt lat="-27.2721924" lon="151.2900603">
  <ele>453.12</ele>
  <time>2026-09-01T19:59:23Z</time>
  <course>305.33</course>
  <speed>0.06</speed>
  <fix>3d</fix>
</trkpt>
<trkpt lat="-27.2721922" lon="151.2900602">
  <ele>452.34</ele>
  <time>2026-09-01T19:59:23Z</time>
  <course>13.75</course>
  <speed>0.04</speed>
  <fix>3d</fix>
</trkpt>
<trkpt lat="-27.2721924" lon="151.2900603">
  <ele>452.72</ele>
  <time>2026-09-01T19:59:23Z</time>
  <course>346.65</course>
  <speed>0.02</speed>
  <fix>3d</fix>
</trkpt>
<trkpt lat="-27.2721922" lon="151.2900602">
  <ele>452.14</ele>
  <time>2026-09-01T19:59:23Z</time>
  <course>13.12</course>
  <speed>0.03605551275463989</speed>
  <fix>3d</fix>
</trkpt>
<trkpt lat="-27.2721924" lon="151.2900603">
  <ele>452.72</ele>
  <time>2026-09-01T19:59:23Z</time>
  <course>346.65</course>
  <speed>0.02</speed>
  <fix>3d</fix>
</trkpt>
<trkpt lat="-27.2721922" lon="151.2900602">
  <ele>451.94</ele>
  <time>2026-09-01T19:59:23Z</time>
  <course>12.62</course>
  <speed>0.05</speed>
  <fix>3d</fix>
</trkpt>
<trkpt lat="-27.2721923" lon="151.2900603">
  <ele>452.32</ele>
  <time>2026-09-01T19:59:23Z</time>
  <course>71.31</course>
  <speed>0.03</speed>
  <fix>3d</fix>
</trkpt>
<trkpt lat="-27.2721922" lon="151.2900603">
  <ele>451.74</ele>
  <time>2026-09-01T19:59:23Z</time>
  <course>12.27</course>
  <speed>0.0632455532033676</speed>
  <fix>3d</fix>
</trkpt>
<trkpt lat="-27.2721923" lon="151.2900603">
  <ele>452.32</ele>
  <time>2026-09-01T19:59:23Z</time>
  <course>71.31</course>
  <speed>0.03</speed>
  <fix>3d</fix>
</trkpt>
<trkpt lat="-27.2721922" lon="151.2900604">
  <ele>451.54</ele>
  <time>2026-09-01T19:59:23Z</time>
  <course>12.09</course>
  <speed>0.07071067811865475</speed>
  <fix>3d</fix>
</trkpt>
<trkpt lat="-27.2721923" lon="151.2900604">
  <ele>451.91</ele>
  <time>2026-09-01T19:59:23Z</time>
  <course>92.07</course>
  <speed>0.07</speed>
  <fix>3d</fix>
</trkpt>
<trkpt lat="-27.2721922" lon="151.2900604">
  <ele>451.34</ele>
  <time>2026-09-01T19:59:23Z</time>
  <course>12.04</course>
  <speed>0.09</speed>
  <fix>3d</fix>
</trkpt>
<trkpt lat="-27.2721923" lon="151.2900604">
  <ele>451.91</ele>
  <time>2026-09-01T19:59:23Z</time>
  <course>92.07</course>
  <speed>0.07</speed>
  <fix>3d</fix>
</trkpt>
<trkpt lat="-27.2721922" lon="151.2900605">
  <ele>451.14</ele>
  <time>2026-09-01T19:59:23Z</time>
  <course>12.1</course>
  <speed>0.1</speed>
  <fix>3d</fix>
</trkpt>
<trkpt lat="-27.2721923" lon="151.2900606">
  <ele>451.51</ele>
  <time>2026-09-01T19:59:23Z</time>
  <course>99.78</course>
  <speed>0.1</speed>
  <fix>3d</fix>
</trkpt>
<trkpt lat="-27.2721922" lon="151.2900606">
  <ele>450.94</ele>
  <time>2026-09-01T19:59:23Z</time>
  <course>12.23</course>
  <speed>0.11</speed>
  <fix>3d</fix>
</trkpt>
<trkpt lat="-27.2721923" lon="151.2900606">
  <ele>451.51</ele>
  <time>2026-09-01T19:59:23Z</time>
  <course>99.78</course>
  <speed>0.1</speed>
  <fix>3d</fix>
</trkpt>
<trkpt lat="-27.2721922" lon="151.2900608">
  <ele>450.74</ele>
  <time>2026-09-01T19:59:23Z</time>
  <course>12.39</course>
  <speed>0.12041594578792296</speed>
  <fix>3d</fix>
</trkpt>
<trkpt lat="-27.2721923" lon="151.2900608">
  <ele>451.11</ele>
  <time>2026-09-01T19:59:23Z</time>
  <course>103.92</course>
  <speed>0.13</speed>
  <fix>3d</fix>
</trkpt>
<trkpt lat="-27.2721922" lon="151.2900609">
  <ele>450.54</ele>
  <time>2026-09-01T19:59:23Z</time>
  <course>12.55</course>
  <speed>0.130384048104053</speed>
  <fix>3d</fix>
</trkpt>
<trkpt lat="-27.2721923" lon="151.2900608">
  <ele>451.11</ele>
  <time>2026-09-01T19:59:23Z</time>
  <course>103.92</course>
  <speed>0.13</speed>
  <fix>3d</fix>
</trkpt>
<trkpt lat="-27.2721922" lon="151.2900611">
  <ele>450.34</ele>
  <time>2026-09-01T19:59:23Z</time>
  <course>12.68</course>
  <speed>0.1414213562373095</speed>
  <fix>3d</fix>
</trkpt>
<trkpt lat="-27.2721923" lon="151.290061">
  <ele>450.71</ele>
  <time>2026-09-01T19:59:23Z</time>
  <course>106.38</course>
  <speed>0.15</speed>
  <fix>3d</fix>
</trkpt>
<trkpt lat="-27.2721923" lon="151.2900612">
  <ele>450.14</ele>
  <time>2026-09-01T19:59:23Z</time>
  <course>12.76</course>
  <speed>0.15132745950421556</speed>
  <fix>3d</fix>
</trkpt>
<trkpt lat="-27.2721923" lon="151.290061">
  <ele>450.71</ele>
  <time>2026-09-01T19:59:23Z</time>
  <course>106.38</course>
  <speed>0.15</speed>
  <fix>3d</fix>
</trkpt>
<trkpt lat="-27.2721923" lon="151.2900614">
  <ele>449.94</ele>
  <time>2026-09-01T19:59:23Z</time>
  <course>12.81</course>
  <speed>0.16278820596099705</speed>
  <fix>3d</fix>
</trkpt>
<trkpt lat="-27.2721924" lon="151.2900614">
  <ele>450.31</ele>
  <time>2026-09-01T19:59:23Z</time>
  <course>107.83</course>
  <speed>0.17</speed>
  <fix>3d</fix>
</trkpt>
<trkpt lat="-27.2721923" lon="151.2900616">
  <ele>449.73</ele>
  <time>2026-09-01T19:59:23Z</time>
  <course>12.82</course>
  <speed>0.16278820596099705</speed>
  <fix>3d</fix>
</trkpt>
<trkpt lat="-27.2721924" lon="151.2900614">
  <ele>450.31</ele>
  <time>2026-09-01T19:59:23Z</time>
  <course>107.83</course>
  <speed>0.17</speed>
  <fix>3d</fix>
</trkpt>
<trkpt lat="-27.2721924" lon="151.2900618">
  <ele>449.53</ele>
  <time>2026-09-01T19:59:23Z</time>
  <course>12.79</course>
  <speed>0.17262676501632068</speed>
  <fix>3d</fix>
</trkpt>
<trkpt lat="-27.2721925" lon="151.2900617">
  <ele>449.9</ele>
  <time>2026-09-01T19:59:23Z</time>
  <course>108.79</course>
  <speed>0.19</speed>
  <fix>3d</fix>
</trkpt>
<trkpt lat="-27.2721924" lon="151.290062">
  <ele>449.33</ele>
  <time>2026-09-01T19:59:23Z</time>
  <course>12.75</course>
  <speed>0.17262676501632068</speed>
  <fix>3d</fix>
</trkpt>
<trkpt lat="-27.2721925" lon="151.2900617">
  <ele>449.9</ele>
  <time>2026-09-01T19:59:23Z</time>
  <course>108.79</course>
  <speed>0.19</speed>
  <fix>3d</fix>
</trkpt>
<trkpt lat="-27.2721925" lon="151.2900621">
  <ele>449.13</ele>
  <time>2026-09-01T19:59:23Z</time>
  <course>12.7</course>
  <speed>0.17464249196572978</speed>
  <fix>3d</fix>
</trkpt>
<trkpt lat="-27.2721926" lon="151.2900621">
  <ele>449.51</ele>
  <time>2026-09-01T19:59:23Z</time>
  <course>109.48</course>
  <speed>0.2</speed>
  <fix>3d</fix>
</trkpt>
<trkpt lat="-27.2721925" lon="151.2900623">
  <ele>448.93</ele>
  <time>2026-09-01T19:59:23Z</time>
  <course>12.65</course>
  <speed>0.17464249196572978</speed>
  <fix>3d</fix>
</trkpt>
<trkpt lat="-27.2721926" lon="151.2900621">
  <ele>449.51</ele>
  <time>2026-09-01T19:59:23Z</time>
  <course>109.48</course>
  <speed>0.2</speed>
  <fix>3d</fix>
</trkpt>
<trkpt lat="-27.2721926" lon="151.2900625">
  <ele>448.74</ele>
  <time>2026-09-01T19:59:23Z</time>
  <course>12.6</course>
  <speed>0.18439088914585774</speed>
  <fix>3d</fix>
</trkpt>
<trkpt lat="-27.2721928" lon="151.2900624">
  <ele>449.12</ele>
  <time>2026-09-01T19:59:23Z</time>
  <course>110.01</course>
  <speed>0.2</speed>
  <fix>3d</fix>
</trkpt>
<trkpt lat="-27.2721927" lon="151.2900627">
  <ele>448.54</ele>
  <time>2026-09-01T19:59:23Z</time>
  <course>12.56</course>
  <speed>0.17464249196572978</speed>
  <fix>3d</fix>
</trkpt>
<trkpt lat="-27.2721928" lon="151.2900624">
  <ele>449.12</ele>
  <time>2026-09-01T19:59:23Z</time>
  <course>110.01</course>
  <speed>0.2</speed>
  <fix>3d</fix>
</trkpt>
<trkpt lat="-27.2721927" lon="151.2900629">
  <ele>448.34</ele>
  <time>2026-09-01T19:59:23Z</time>
  <course>12.53</course>
  <speed>0.17464249196572978</speed>
  <fix>3d</fix>
</trkpt>
<trkpt lat="-27.2721929" lon="151.2900629">
  <ele>448.72</ele>
  <time>2026-09-01T19:59:23Z</time>
  <course>110.52</course>
  <speed>0.2</speed>
  <fix>3d</fix>
</trkpt>
<trkpt lat="-27.2721928" lon="151.2900631">
  <ele>448.15</ele>
  <time>2026-09-01T19:59:23Z</time>
  <course>12.51</course>
  <speed>0.17464249196572978</speed>
  <fix>3d</fix>
</trkpt>
<trkpt lat="-27.2721929" lon="151.2900629">
  <ele>448.72</ele>
  <time>2026-09-01T19:59:23Z</time>
  <course>110.52</course>
  <speed>0.2</speed>
  <fix>3d</fix>
</trkpt>
<trkpt lat="-27.2721928" lon="151.2900633">
  <ele>447.95</ele>
  <time>2026-09-01T19:59:23Z</time>
  <course>12.5</course>
  <speed>0.17464249196572978</speed>
  <fix>3d</fix>
</trkpt>
<trkpt lat="-27.272193" lon="151.2900632">
  <ele>448.32</ele>
  <time>2026-09-01T19:59:23Z</time>
  <course>111.12</course>
  <speed>0.2</speed>
  <fix>3d</fix>
</trkpt>
<trkpt lat="-27.2721929" lon="151.2900635">
  <ele>447.74</ele>
  <time>2026-09-01T19:59:23Z</time>
  <course>12.5</course>
  <speed>0.1649242250247064</speed>
  <fix>3d</fix>
</trkpt>
<trkpt lat="-27.272193" lon="151.2900632">
  <ele>448.32</ele>
  <time>2026-09-01T19:59:23Z</time>
  <course>111.12</course>
  <speed>0.2</speed>
  <fix>3d</fix>
</trkpt>
<trkpt lat="-27.272193" lon="151.2900636">
  <ele>447.54</ele>
  <time>2026-09-01T19:59:23Z</time>
  <course>12.51</course>
  <speed>0.15524174696260024</speed>
  <fix>3d</fix>
</trkpt>
<trkpt lat="-27.2721931" lon="151.2900636">
  <ele>447.91</ele>
  <time>2026-09-01T19:59:23Z</time>
  <course>111.85</course>
  <speed>0.19</speed>
  <fix>3d</fix>
</trkpt>
<trkpt lat="-27.272193" lon="151.2900638">
  <ele>447.34</ele>
  <time>2026-09-01T19:59:23Z</time>
  <course>12.52</course>
  <speed>0.15524174696260024</speed>
  <fix>3d</fix>
</trkpt>
<trkpt lat="-27.2721931" lon="151.2900636">
  <ele>447.91</ele>
  <time>2026-09-01T19:59:23Z</time>
  <course>111.85</course>
  <speed>0.19</speed>
  <fix>3d</fix>
</trkpt>
<trkpt lat="-27.2721931" lon="151.290064">
  <ele>447.14</ele>
  <time>2026-09-01T19:59:23Z</time>
  <course>12.54</course>
  <speed>0.14560219778561037</speed>
  <fix>3d</fix>
</trkpt>
<trkpt lat="-27.2721933" lon="151.2900639">
  <ele>447.52</ele>
  <time>2026-09-01T19:59:23Z</time>
  <course>112.67</course>
  <speed>0.18</speed>
  <fix>3d</fix>
</trkpt>
<trkpt lat="-27.2721931" lon="151.2900641">
  <ele>446.94</ele>
  <time>2026-09-01T19:59:23Z</time>
  <course>12.55</course>
  <speed>0.13341664064126335</speed>
  <fix>3d</fix>
</trkpt>
<trkpt lat="-27.2721933" lon="151.2900639">
  <ele>447.52</ele>
  <time>2026-09-01T19:59:23Z</time>
  <course>112.67</course>
  <speed>0.18</speed>
  <fix>3d</fix>
</trkpt>
<trkpt lat="-27.2721932" lon="151.2900643">
  <ele>446.74</ele>
  <time>2026-09-01T19:59:23Z</time>
  <course>12.56</course>
  <speed>0.12369316876852982</speed>
  <fix>3d</fix>
</trkpt>
<trkpt lat="-27.2721934" lon="151.2900643">
  <ele>447.11</ele>
  <time>2026-09-01T19:59:23Z</time>
  <course>113.61</course>
  <speed>0.16</speed>
  <fix>3d</fix>
</trkpt>
<trkpt lat="-27.2721932" lon="151.2900644">
  <ele>446.54</ele>
  <time>2026-09-01T19:59:23Z</time>
  <course>12.57</course>
  <speed>0.11401754250991379</speed>
  <fix>3d</fix>
</trkpt>
<trkpt lat="-27.2721934" lon="151.2900643">
  <ele>447.11</ele>
  <time>2026-09-01T19:59:23Z</time>
  <course>113.61</course>
  <speed>0.16</speed>
  <fix>3d</fix>
</trkpt>
<trkpt lat="-27.2721933" lon="151.2900645">
  <ele>446.34</ele>
  <time>2026-09-01T19:59:23Z</time>
  <course>12.57</course>
  <speed>0.1044030650891055</speed>
  <fix>3d</fix>
</trkpt>
<trkpt lat="-27.2721935" lon="151.2900646">
  <ele>446.71</ele>
  <time>2026-09-01T19:59:23Z</time>
  <course>114.81</course>
  <speed>0.14</speed>
  <fix>3d</fix>
</trkpt>
<trkpt lat="-27.2721933" lon="151.2900646">
  <ele>446.14</ele>
  <time>2026-09-01T19:59:23Z</time>
  <course>12.57</course>
  <speed>0.09219544457292887</speed>
  <fix>3d</fix>
</trkpt>
<trkpt lat="-27.2721935" lon="151.2900646">
  <ele>446.71</ele>
  <time>2026-09-01T19:59:23Z</time>
  <course>114.81</course>
  <speed>0.14</speed>
  <fix>3d</fix>
</trkpt>
<trkpt lat="-27.2721934" lon="151.2900648">
  <ele>445.94</ele>
  <time>2026-09-01T19:59:23Z</time>
  <course>12.58</course>
  <speed>0.0824621125123532</speed>
  <fix>3d</fix>
</trkpt>
<trkpt lat="-27.2721936" lon="151.2900649">
  <ele>446.31</ele>
  <time>2026-09-01T19:59:23Z</time>
  <course>116.66</course>
  <speed>0.12</speed>
  <fix>3d</fix>
</trkpt>
<trkpt lat="-27.2721934" lon="151.2900649">
  <ele>445.73</ele>
  <time>2026-09-01T19:59:23Z</time>
  <course>12.58</course>
  <speed>0.07280109889280519</speed>
  <fix>3d</fix>
</trkpt>
<trkpt lat="-27.2721936" lon="151.2900649">
  <ele>446.31</ele>
  <time>2026-09-01T19:59:23Z</time>
  <course>116.66</course>
  <speed>0.12</speed>
  <fix>3d</fix>
</trkpt>
<trkpt lat="-27.2721935" lon="151.2900649">
  <ele>445.53</ele>
  <time>2026-09-01T19:59:23Z</time>
  <course>12.59</course>
  <speed>0.0632455532033676</speed>
  <fix>3d</fix>
</trkpt>
<trkpt lat="-27.2721937" lon="151.2900651">
  <ele>445.9</ele>
  <time>2026-09-01T19:59:23Z</time>
  <course>119.64</course>
  <speed>0.1</speed>
  <fix>3d</fix>
</trkpt>
<trkpt lat="-27.2721935" lon="151.290065">
  <ele>445.33</ele>
  <time>2026-09-01T19:59:23Z</time>
  <course>12.61</course>
  <speed>0.0412310562561766</speed>
  <fix>3d</fix>
</trkpt>
<trkpt lat="-27.2721937" lon="151.2900651">
  <ele>445.9</ele>
  <time>2026-09-01T19:59:23Z</time>
  <course>119.64</course>
  <speed>0.1</speed>
  <fix>3d</fix>
</trkpt>
<trkpt lat="-27.2721936" lon="151.2900651">
  <ele>445.14</ele>
  <time>2026-09-01T19:59:23Z</time>
  <course>12.63</course>
  <speed>0.0316227766016838</speed>
  <fix>3d</fix>
</trkpt>
<trkpt lat="-27.2721938" lon="151.2900652">
  <ele>445.51</ele>
  <time>2026-09-01T19:59:23Z</time>
  <course>124.61</course>
  <speed>0.07</speed>
  <fix>3d</fix>
</trkpt>
<trkpt lat="-27.2721936" lon="151.2900651">
  <ele>444.94</ele>
  <time>2026-09-01T19:59:23Z</time>
  <course>12.67</course>
  <speed>0.022360679774997897</speed>
  <fix>3d</fix>
</trkpt>
<trkpt lat="-27.2721938" lon="151.2900652">
  <ele>445.51</ele>
  <time>2026-09-01T19:59:23Z</time>
  <course>124.61</course>
  <speed>0.07</speed>
  <fix>3d</fix>
</trkpt>
<trkpt lat="-27.2721936" lon="151.2900652">
  <ele>444.73</ele>
  <time>2026-09-01T19:59:23Z</time>
  <course>12.72</course>
  <speed>0.0</speed>
  <fix>3d</fix>
</trkpt>
<trkpt lat="-27.2721939" lon="151.2900653">
  <ele>445.11</ele>
  <time>2026-09-01T19:59:23Z</time>
  <course>135.04</course>
  <speed>0.05</speed>
  <fix>3d</fix>
</trkpt>
<trkpt lat="-27.2721937" lon="151.2900652">
  <ele>444.54</ele>
  <time>2026-09-01T19:59:23Z</time>
  <course>12.78</course>
  <speed>0.0</speed>
  <fix>3d</fix>
</trkpt>
<trkpt lat="-27.2721939" lon="151.2900653">
  <ele>445.11</ele>
  <time>2026-09-01T19:59:23Z</time>
  <course>135.04</course>
  <speed>0.05</speed>
  <fix>3d</fix>
</trkpt>
<trkpt lat="-27.2721937" lon="151.2900652">
  <ele>444.34</ele>
  <time>2026-09-01T19:59:23Z</time>
  <course>12.83</course>
  <speed>0.01</speed>
  <fix>3d</fix>
</trkpt>
<trkpt lat="-27.272194" lon="151.2900654">
  <ele>444.71</ele>
  <time>2026-09-01T19:59:23Z</time>
  <course>163.72</course>
  <speed>0.03</speed>
  <fix>3d</fix>
</trkpt>
<trkpt lat="-27.2721937" lon="151.2900652">
  <ele>444.15</ele>
  <time>2026-09-01T19:59:23Z</time>
  <course>12.84</course>
  <speed>0.03</speed>
  <fix>3d</fix>
</trkpt>
<trkpt lat="-27.272194" lon="151.2900654">
  <ele>444.71</ele>
  <time>2026-09-01T19:59:23Z</time>
  <course>163.72</course>
  <speed>0.03</speed>
  <fix>3d</fix>
</trkpt>
<trkpt lat="-27.2721937" lon="151.2900651">
  <ele>443.97</ele>
  <time>2026-09-01T19:59:23Z</time>
  <course>12.79</course>
  <speed>0.03</speed>
  <fix>3d</fix>
</trkpt>
<trkpt lat="-27.272194" lon="151.2900654">
  <ele>444.33</ele>
  <time>2026-09-01T19:59:23Z</time>
  <course>208.87</course>
  <speed>0.03</speed>
  <fix>3d</fix>
</trkpt>
<trkpt lat="-27.2721938" lon="151.2900651">
  <ele>443.8</ele>
  <time>2026-09-01T19:59:23Z</time>
  <course>12.63</course>
  <speed>0.04</speed>
  <fix>3d</fix>
</trkpt>
<trkpt lat="-27.272194" lon="151.2900654">
  <ele>444.33</ele>
  <time>2026-09-01T19:59:23Z</time>
  <course>208.87</course>
  <speed>0.03</speed>
  <fix>3d</fix>
</trkpt>
<trkpt lat="-27.2721938" lon="151.2900651">
  <ele>443.64</ele>
  <time>2026-09-01T19:59:23Z</time>
  <course>12.34</course>
  <speed>0.0412310562561766</speed>
  <fix>3d</fix>
</trkpt>
<trkpt lat="-27.2721941" lon="151.2900653">
  <ele>443.98</ele>
  <time>2026-09-01T19:59:23Z</time>
  <course>219.5</course>
  <speed>0.04</speed>
  <fix>3d</fix>
</trkpt>
<trkpt lat="-27.2721938" lon="151.2900651">
  <ele>443.5</ele>
  <time>2026-09-01T19:59:23Z</time>
  <course>11.88</course>
  <speed>0.03605551275463989</speed>
  <fix>3d</fix>
</trkpt>
<trkpt lat="-27.2721941" lon="151.2900653">
  <ele>443.98</ele>
  <time>2026-09-01T19:59:23Z</time>
  <course>219.5</course>
  <speed>0.04</speed>
  <fix>3d</fix>
</trkpt>
<trkpt lat="-27.2721939" lon="151.2900651">
  <ele>443.37</ele>
  <time>2026-09-01T19:59:23Z</time>
  <course>11.25</course>
  <speed>0.0316227766016838</speed>
  <fix>3d</fix>
</trkpt>
<trkpt lat="-27.2721941" lon="151.2900652">
  <ele>443.68</ele>
  <time>2026-09-01T19:59:23Z</time>
  <course>198.18</course>
  <speed>0.05</speed>
  <fix>3d</fix>
</trkpt>
<trkpt lat="-27.272194" lon="151.2900651">
  <ele>443.27</ele>
  <time>2026-09-01T19:59:23Z</time>
  <course>10.47</course>
  <speed>0.05</speed>
  <fix>3d</fix>
</trkpt>
<trkpt lat="-27.2721941" lon="151.2900652">
  <ele>443.68</ele>
  <time>2026-09-01T19:59:23Z</time>
  <course>198.18</course>
  <speed>0.05</speed>
  <fix>3d</fix>
</trkpt>
<trkpt lat="-27.272194" lon="151.2900651">
  <ele>443.18</ele>
  <time>2026-09-01T19:59:23Z</time>
  <course>9.61</course>
  <speed>0.0632455532033676</speed>
  <fix>3d</fix>
</trkpt>
<trkpt lat="-27.2721942" lon="151.2900652">
  <ele>443.45</ele>
  <time>2026-09-01T19:59:23Z</time>
  <course>166.39</course>
  <speed>0.07</speed>
  <fix>3d</fix>
</trkpt>
<trkpt lat="-27.2721941" lon="151.2900652">
  <ele>443.12</ele>
  <time>2026-09-01T19:59:23Z</time>
  <course>8.75</course>
  <speed>0.09433981132056603</speed>
  <fix>3d</fix>
</trkpt>
<trkpt lat="-27.2721942" lon="151.2900652">
  <ele>443.45</ele>
  <time>2026-09-01T19:59:23Z</time>
  <course>166.39</course>
  <speed>0.07</speed>
  <fix>3d</fix>
</trkpt>
<trkpt lat="-27.2721942" lon="151.2900652">
  <ele>443.07</ele>
  <time>2026-09-01T19:59:23Z</time>
  <course>7.99</course>
  <speed>0.12806248474865697</speed>
  <fix>3d</fix>
</trkpt>
<trkpt lat="-27.2721943" lon="151.2900653">
  <ele>443.3</ele>
  <time>2026-09-01T19:59:23Z</time>
  <course>148.72</course>
  <speed>0.12</speed>
  <fix>3d</fix>
</trkpt>
<trkpt lat="-27.2721944" lon="151.2900653">
  <ele>443.04</ele>
  <time>2026-09-01T19:59:23Z</time>
  <course>7.4</course>
  <speed>0.14866068747318506</speed>
  <fix>3d</fix>
</trkpt>
<trkpt lat="-27.2721943" lon="151.2900653">
  <ele>443.3</ele>
  <time>2026-09-01T19:59:23Z</time>
  <course>148.72</course>
  <speed>0.12</speed>
  <fix>3d</fix>
</trkpt>
<trkpt lat="-27.2721945" lon="151.2900655">
  <ele>443.02</ele>
  <time>2026-09-01T19:59:23Z</time>
  <course>7.01</course>
  <speed>0.1697056274847714</speed>
  <fix>3d</fix>
</trkpt>
<trkpt lat="-27.2721946" lon="151.2900655">
  <ele>443.22</ele>
  <time>2026-09-01T19:59:23Z</time>
  <course>140.78</course>
  <speed>0.18</speed>
  <fix>3d</fix>
</trkpt>
<trkpt lat="-27.2721946" lon="151.2900656">
  <ele>443.02</ele>
  <time>2026-09-01T19:59:23Z</time>
  <course>6.83</course>
  <speed>0.191049731745428</speed>
  <fix>3d</fix>
</trkpt>
<trkpt lat="-27.2721946" lon="151.2900655">
  <ele>443.22</ele>
  <time>2026-09-01T19:59:23Z</time>
  <course>140.78</course>
  <speed>0.18</speed>
  <fix>3d</fix>
</trkpt>
<trkpt lat="-27.2721948" lon="151.2900658">
  <ele>443.03</ele>
  <time>2026-09-01T19:59:23Z</time>
  <course>6.83</course>
  <speed>0.20518284528683192</speed>
  <fix>3d</fix>
</trkpt>
<trkpt lat="-27.2721949" lon="151.2900658">
  <ele>443.2</ele>
  <time>2026-09-01T19:59:23Z</time>
  <course>136.37</course>
  <speed>0.22</speed>
  <fix>3d</fix>
</trkpt>
<trkpt lat="-27.2721949" lon="151.290066">
  <ele>443.05</ele>
  <time>2026-09-01T19:59:23Z</time>
  <course>6.96</course>
  <speed>0.22022715545545238</speed>
  <fix>3d</fix>
</trkpt>
<trkpt lat="-27.2721949" lon="151.2900658">
  <ele>443.2</ele>
  <time>2026-09-01T19:59:23Z</time>
  <course>136.37</course>
  <speed>0.22</speed>
  <fix>3d</fix>
</trkpt>
<trkpt lat="-27.2721951" lon="151.2900662">
  <ele>443.07</ele>
  <time>2026-09-01T19:59:23Z</time>
  <course>7.18</course>
  <speed>0.22022715545545238</speed>
  <fix>3d</fix>
</trkpt>
<trkpt lat="-27.2721952" lon="151.2900662">
  <ele>443.22</ele>
  <time>2026-09-01T19:59:23Z</time>
  <course>133.43</course>
  <speed>0.25</speed>
  <fix>3d</fix>
</trkpt>
<trkpt lat="-27.2721952" lon="151.2900664">
  <ele>443.09</ele>
  <time>2026-09-01T19:59:23Z</time>
  <course>7.44</course>
  <speed>0.22803508501982758</speed>
  <fix>3d</fix>
</trkpt>
<trkpt lat="-27.2721952" lon="151.2900662">
  <ele>443.22</ele>
  <time>2026-09-01T19:59:23Z</time>
  <course>133.43</course>
  <speed>0.25</speed>
  <fix>3d</fix>
</trkpt>
<trkpt lat="-27.2721954" lon="151.2900666">
  <ele>443.12</ele>
  <time>2026-09-01T19:59:23Z</time>
  <course>7.7</course>
  <speed>0.23600847442411893</speed>
  <fix>3d</fix>
</trkpt>
<trkpt lat="-27.2721955" lon="151.2900666">
  <ele>443.26</ele>
  <time>2026-09-01T19:59:23Z</time>
  <course>131.36</course>
  <speed>0.26</speed>
  <fix>3d</fix>
</trkpt>
<trkpt lat="-27.2721955" lon="151.2900668">
  <ele>443.14</ele>
  <time>2026-09-01T19:59:23Z</time>
  <course>7.92</course>
  <speed>0.23600847442411893</speed>
  <fix>3d</fix>
</trkpt>
<trkpt lat="-27.2721955" lon="151.2900666">
  <ele>443.26</ele>
  <time>2026-09-01T19:59:23Z</time>
  <course>131.36</course>
  <speed>0.26</speed>
  <fix>3d</fix>
</trkpt>
<trkpt lat="-27.2721957" lon="151.290067">
  <ele>443.16</ele>
  <time>2026-09-01T19:59:23Z</time>
  <course>8.09</course>
  <speed>0.23021728866442676</speed>
  <fix>3d</fix>
</trkpt>
<trkpt lat="-27.2721958" lon="151.290067">
  <ele>443.3</ele>
  <time>2026-09-01T19:59:23Z</time>
  <course>129.49</course>
  <speed>0.26</speed>
  <fix>3d</fix>
</trkpt>
<trkpt lat="-27.2721958" lon="151.2900672">
  <ele>443.18</ele>
  <time>2026-09-01T19:59:23Z</time>
  <course>8.18</course>
  <speed>0.23021728866442676</speed>
  <fix>3d</fix>
</trkpt>
<trkpt lat="-27.2721958" lon="151.290067">
  <ele>443.3</ele>
  <time>2026-09-01T19:59:23Z</time>
  <course>129.49</course>
  <speed>0.26</speed>
  <fix>3d</fix>
</trkpt>
<trkpt lat="-27.272196" lon="151.2900674">
  <ele>443.19</ele>
  <time>2026-09-01T19:59:23Z</time>
  <course>8.21</course>
  <speed>0.22472205054244232</speed>
  <fix>3d</fix>
</trkpt>
<trkpt lat="-27.2721961" lon="151.2900674">
  <ele>443.33</ele>
  <time>2026-09-01T19:59:23Z</time>
  <course>127.47</course>
  <speed>0.25</speed>
  <fix>3d</fix>
</trkpt>
<trkpt lat="-27.2721961" lon="151.2900676">
  <ele>443.19</ele>
  <time>2026-09-01T19:59:23Z</time>
  <course>8.19</course>
  <speed>0.2109502310972899</speed>
  <fix>3d</fix>
</trkpt>
<trkpt lat="-27.2721961" lon="151.2900674">
  <ele>443.33</ele>
  <time>2026-09-01T19:59:23Z</time>
  <course>127.47</course>
  <speed>0.25</speed>
  <fix>3d</fix>
</trkpt>
<trkpt lat="-27.2721962" lon="151.2900678">
  <ele>443.19</ele>
  <time>2026-09-01T19:59:23Z</time>
  <course>8.13</course>
  <speed>0.20591260281974003</speed>
  <fix>3d</fix>
</trkpt>
<trkpt lat="-27.2721964" lon="151.2900677">
  <ele>443.34</ele>
  <time>2026-09-01T19:59:23Z</time>
  <course>124.85</course>
  <speed>0.24</speed>
  <fix>3d</fix>
</trkpt>
<trkpt lat="-27.2721963" lon="151.290068">
  <ele>443.19</ele>
  <time>2026-09-01T19:59:23Z</time>
  <course>8.05</course>
  <speed>0.19235384061671343</speed>
  <fix>3d</fix>
</trkpt>
<trkpt lat="-27.2721964" lon="151.2900677">
  <ele>443.34</ele>
  <time>2026-09-01T19:59:23Z</time>
  <course>124.85</course>
  <speed>0.24</speed>
  <fix>3d</fix>
</trkpt>
<trkpt lat="-27.2721964" lon="151.2900682">
  <ele>443.18</ele>
  <time>2026-09-01T19:59:24Z</time>
  <course>7.98</course>
  <speed>0.17888543819998318</speed>
  <fix>3d</fix>
</trkpt>
<trkpt lat="-27.2721967" lon="151.2900682">
  <ele>443.33</ele>
  <time>2026-09-01T19:59:24Z</time>
  <course>122.16</course>
  <speed>0.22</speed>
  <fix>3d</fix>
</trkpt>
<trkpt lat="-27.2721965" lon="151.2900684">
  <ele>443.17</ele>
  <time>2026-09-01T19:59:24Z</time>
  <course>7.93</course>
  <speed>0.16552945357246848</speed>
  <fix>3d</fix>
</trkpt>
<trkpt lat="-27.2721967" lon="151.2900682">
  <ele>443.33</ele>
  <time>2026-09-01T19:59:24Z</time>
  <course>122.16</course>
  <speed>0.22</speed>
  <fix>3d</fix>
</trkpt>
<trkpt lat="-27.2721966" lon="151.2900685">
  <ele>443.16</ele>
  <time>2026-09-01T19:59:24Z</time>
  <course>7.9</course>
  <speed>0.15231546211727817</speed>
  <fix>3d</fix>
</trkpt>
<trkpt lat="-27.2721968" lon="151.2900685">
  <ele>443.31</ele>
  <time>2026-09-01T19:59:24Z</time>
  <course>120.06</course>
  <speed>0.19</speed>
  <fix>3d</fix>
</trkpt>
<trkpt lat="-27.2721967" lon="151.2900687">
  <ele>443.15</ele>
  <time>2026-09-01T19:59:24Z</time>
  <course>7.9</course>
  <speed>0.1392838827718412</speed>
  <fix>3d</fix>
</trkpt>
<trkpt lat="-27.2721968" lon="151.2900685">
  <ele>443.31</ele>
  <time>2026-09-01T19:59:24Z</time>
  <course>120.06</course>
  <speed>0.19</speed>
  <fix>3d</fix>
</trkpt>
<trkpt lat="-27.2721968" lon="151.2900688">
  <ele>443.13</ele>
  <time>2026-09-01T19:59:24Z</time>
  <course>7.93</course>
  <speed>0.11704699910719625</speed>
  <fix>3d</fix>
</trkpt>
<trkpt lat="-27.272197" lon="151.2900688">
  <ele>443.28</ele>
  <time>2026-09-01T19:59:24Z</time>
  <course>117.86</course>
  <speed>0.16</speed>
  <fix>3d</fix>
</trkpt>
<trkpt lat="-27.2721968" lon="151.2900689">
  <ele>443.12</ele>
  <time>2026-09-01T19:59:24Z</time>
  <course>7.98</course>
  <speed>0.1044030650891055</speed>
  <fix>3d</fix>
</trkpt>
<trkpt lat="-27.272197" lon="151.2900688">
  <ele>443.28</ele>
  <time>2026-09-01T19:59:24Z</time>
  <course>117.86</course>
  <speed>0.16</speed>
  <fix>3d</fix>
</trkpt>
<trkpt lat="-27.2721969" lon="151.2900691">
  <ele>443.1</ele>
  <time>2026-09-01T19:59:24Z</time>
  <course>8.03</course>
  <speed>0.08062257748298549</speed>
  <fix>3d</fix>
</trkpt>
<trkpt lat="-27.2721971" lon="151.2900691">
  <ele>443.25</ele>
  <time>2026-09-01T19:59:24Z</time>
  <course>114.68</course>
  <speed>0.12</speed>
  <fix>3d</fix>
</trkpt>
<trkpt lat="-27.2721969" lon="151.2900691">
  <ele>443.09</ele>
  <time>2026-09-01T19:59:24Z</time>
  <course>8.08</course>
  <speed>0.07</speed>
  <fix>3d</fix>
</trkpt>
<trkpt lat="-27.2721971" lon="151.2900691">
  <ele>443.25</ele>
  <time>2026-09-01T19:59:24Z</time>
  <course>114.68</course>
  <speed>0.12</speed>
  <fix>3d</fix>
</trkpt>
<trkpt lat="-27.2721969" lon="151.2900692">
  <ele>443.08</ele>
  <time>2026-09-01T19:59:24Z</time>
  <course>8.13</course>
  <speed>0.05</speed>
  <fix>3d</fix>
</trkpt>
<trkpt lat="-27.2721972" lon="151.2900693">
  <ele>443.22</ele>
  <time>2026-09-01T19:59:24Z</time>
  <course>109.01</course>
  <speed>0.09</speed>
  <fix>3d</fix>
</trkpt>
<trkpt lat="-27.2721969" lon="151.2900693">
  <ele>443.07</ele>
  <time>2026-09-01T19:59:24Z</time>
  <course>8.17</course>
  <speed>0.0316227766016838</speed>
  <fix>3d</fix>
</trkpt>
<trkpt lat="-27.2721972" lon="151.2900693">
  <ele>443.22</ele>
  <time>2026-09-01T19:59:24Z</time>
  <course>109.01</course>
  <speed>0.09</speed>
  <fix>3d</fix>
</trkpt>
<trkpt lat="-27.2721969" lon="151.2900693">
  <ele>443.07</ele>
  <time>2026-09-01T19:59:24Z</time>
  <course>8.19</course>
  <speed>0.0282842712474619</speed>
  <fix>3d</fix>
</trkpt>
<trkpt lat="-27.2721972" lon="151.2900694">
  <ele>443.2</ele>
  <time>2026-09-01T19:59:24Z</time>
  <course>95.26</course>
  <speed>0.05</speed>
  <fix>3d</fix>
</trkpt>
<trkpt lat="-27.2721969" lon="151.2900693">
  <ele>443.06</ele>
  <time>2026-09-01T19:59:24Z</time>
  <course>8.2</course>
  <speed>0.04</speed>
  <fix>3d</fix>
</trkpt>
<trkpt lat="-27.2721972" lon="151.2900694">
  <ele>443.2</ele>
  <time>2026-09-01T19:59:24Z</time>
  <course>95.26</course>
  <speed>0.05</speed>
  <fix>3d</fix>
</trkpt>
<trkpt lat="-27.272197" lon="151.2900694">
  <ele>443.06</ele>
  <time>2026-09-01T19:59:24Z</time>
  <course>8.21</course>
  <speed>0.05099019513592785</speed>
  <fix>3d</fix>
</trkpt>
<trkpt lat="-27.2721972" lon="151.2900695">
  <ele>443.18</ele>
  <time>2026-09-01T19:59:24Z</time>
  <course>42.94</course>
  <speed>0.02</speed>
  <fix>3d</fix>
</trkpt>
<trkpt lat="-27.272197" lon="151.2900693">
  <ele>443.06</ele>
  <time>2026-09-01T19:59:24Z</time>
  <course>8.21</course>
  <speed>0.0632455532033676</speed>
  <fix>3d</fix>
</trkpt>
<trkpt lat="-27.2721972" lon="151.2900695">
  <ele>443.18</ele>
  <time>2026-09-01T19:59:24Z</time>
  <course>42.94</course>
  <speed>0.02</speed>
  <fix>3d</fix>
</trkpt>
<trkpt lat="-27.2721969" lon="151.2900693">
  <ele>443.06</ele>
  <time>2026-09-01T19:59:24Z</time>
  <course>8.21</course>
  <speed>0.08062257748298549</speed>
  <fix>3d</fix>
</trkpt>
<trkpt lat="-27.2721972" lon="151.2900695">
  <ele>443.18</ele>
  <time>2026-09-01T19:59:24Z</time>
  <course>341.3</course>
  <speed>0.04</speed>
  <fix>3d</fix>
</trkpt>
<trkpt lat="-27.2721969" lon="151.2900693">
  <ele>443.06</ele>
  <time>2026-09-01T19:59:24Z</time>
  <course>8.22</course>
  <speed>0.1</speed>
  <fix>3d</fix>
</trkpt>
<trkpt lat="-27.2721972" lon="151.2900695">
  <ele>443.18</ele>
  <time>2026-09-01T19:59:24Z</time>
  <course>341.3</course>
  <speed>0.04</speed>
  <fix>3d</fix>
</trkpt>
<trkpt lat="-27.2721968" lon="151.2900693">
  <ele>443.07</ele>
  <time>2026-09-01T19:59:24Z</time>
  <course>8.23</course>
  <speed>0.11401754250991379</speed>
  <fix>3d</fix>
</trkpt>
<trkpt lat="-27.2721971" lon="151.2900694">
  <ele>443.18</ele>
  <time>2026-09-01T19:59:24Z</time>
  <course>324.74</course>
  <speed>0.08</speed>
  <fix>3d</fix>
</trkpt>
<trkpt lat="-27.2721968" lon="151.2900692">
  <ele>443.07</ele>
  <time>2026-09-01T19:59:24Z</time>
  <course>8.24</course>
  <speed>0.1345362404707371</speed>
  <fix>3d</fix>
</trkpt>
<trkpt lat="-27.2721971" lon="151.2900694">
  <ele>443.18</ele>
  <time>2026-09-01T19:59:24Z</time>
  <course>324.74</course>
  <speed>0.08</speed>
  <fix>3d</fix>
</trkpt>
<trkpt lat="-27.2721967" lon="151.2900692">
  <ele>443.08</ele>
  <time>2026-09-01T19:59:24Z</time>
  <course>8.26</course>
  <speed>0.14866068747318506</speed>
  <fix>3d</fix>
</trkpt>
<trkpt lat="-27.272197" lon="151.2900694">
  <ele>443.18</ele>
  <time>2026-09-01T19:59:24Z</time>
  <course>318.3</course>
  <speed>0.11</speed>
  <fix>3d</fix>
</trkpt>
<trkpt lat="-27.2721966" lon="151.2900691">
  <ele>443.08</ele>
  <time>2026-09-01T19:59:24Z</time>
  <course>8.28</course>
  <speed>0.1697056274847714</speed>
  <fix>3d</fix>
</trkpt>
<trkpt lat="-27.272197" lon="151.2900694">
  <ele>443.18</ele>
  <time>2026-09-01T19:59:24Z</time>
  <course>318.3</course>
  <speed>0.11</speed>
  <fix>3d</fix>
</trkpt>
<trkpt lat="-27.2721965" lon="151.2900689">
  <ele>443.09</ele>
  <time>2026-09-01T19:59:24Z</time>
  <course>8.31</course>
  <speed>0.18384776310850234</speed>
  <fix>3d</fix>
</trkpt>
<trkpt lat="-27.2721968" lon="151.2900693">
  <ele>443.18</ele>
  <time>2026-09-01T19:59:24Z</time>
  <course>314.89</course>
  <speed>0.15</speed>
  <fix>3d</fix>
</trkpt>
<trkpt lat="-27.2721964" lon="151.2900688">
  <ele>443.09</ele>
  <time>2026-09-01T19:59:24Z</time>
  <course>8.33</course>
  <speed>0.1979898987322333</speed>
  <fix>3d</fix>
</trkpt>
<trkpt lat="-27.2721968" lon="151.2900693">
  <ele>443.18</ele>
  <time>2026-09-01T19:59:24Z</time>
  <course>314.89</course>
  <speed>0.15</speed>
  <fix>3d</fix>
</trkpt>
<trkpt lat="-27.2721963" lon="151.2900687">
  <ele>443.09</ele>
  <time>2026-09-01T19:59:24Z</time>
  <course>8.36</course>
  <speed>0.20518284528683192</speed>
  <fix>3d</fix>
</trkpt>
<trkpt lat="-27.2721966" lon="151.290069">
  <ele>443.18</ele>
  <time>2026-09-01T19:59:24Z</time>
  <course>312.79</course>
  <speed>0.18</speed>
  <fix>3d</fix>
</trkpt>
<trkpt lat="-27.2721962" lon="151.2900686">
  <ele>443.09</ele>
  <time>2026-09-01T19:59:24Z</time>
  <course>8.37</course>
  <speed>0.2193171219946131</speed>
  <fix>3d</fix>
</trkpt>
<trkpt lat="-27.2721966" lon="151.290069">
  <ele>443.18</ele>
  <time>2026-09-01T19:59:24Z</time>
  <course>312.79</course>
  <speed>0.18</speed>
  <fix>3d</fix>
</trkpt>
<trkpt lat="-27.2721961" lon="151.2900684">
  <ele>443.09</ele>
  <time>2026-09-01T19:59:24Z</time>
  <course>8.39</course>
  <speed>0.24083189157584592</speed>
  <fix>3d</fix>
</trkpt>
<trkpt lat="-27.2721964" lon="151.2900687">
  <ele>443.18</ele>
  <time>2026-09-01T19:59:24Z</time>
  <course>311.23</course>
  <speed>0.2</speed>
  <fix>3d</fix>
</trkpt>
<trkpt lat="-27.272196" lon="151.2900682">
  <ele>443.08</ele>
  <time>2026-09-01T19:59:24Z</time>
  <course>8.4</course>
  <speed>0.24083189157584592</speed>
  <fix>3d</fix>
</trkpt>
<trkpt lat="-27.2721964" lon="151.2900687">
  <ele>443.18</ele>
  <time>2026-09-01T19:59:24Z</time>
  <course>311.23</course>
  <speed>0.2</speed>
  <fix>3d</fix>
</trkpt>
<trkpt lat="-27.2721958" lon="151.2900681">
  <ele>443.08</ele>
  <time>2026-09-01T19:59:24Z</time>
  <course>8.42</course>
  <speed>0.25495097567963926</speed>
  <fix>3d</fix>
</trkpt>
<trkpt lat="-27.2721961" lon="151.2900684">
  <ele>443.18</ele>
  <time>2026-09-01T19:59:24Z</time>
  <course>310.03</course>
  <speed>0.23</speed>
  <fix>3d</fix>
</trkpt>
<trkpt lat="-27.2721957" lon="151.2900679">
  <ele>443.08</ele>
  <time>2026-09-01T19:59:24Z</time>
  <course>8.43</course>
  <speed>0.26248809496813374</speed>
  <fix>3d</fix>
</trkpt>
<trkpt lat="-27.2721961" lon="151.2900684">
  <ele>443.18</ele>
  <time>2026-09-01T19:59:24Z</time>
  <course>310.03</course>
  <speed>0.23</speed>
  <fix>3d</fix>
</trkpt>
<trkpt lat="-27.2721956" lon="151.2900677">
  <ele>443.08</ele>
  <time>2026-09-01T19:59:24Z</time>
  <course>8.45</course>
  <speed>0.27018512172212594</speed>
  <fix>3d</fix>
</trkpt>
<trkpt lat="-27.2721958" lon="151.290068">
  <ele>443.17</ele>
  <time>2026-09-01T19:59:24Z</time>
  <course>309.08</course>
  <speed>0.25</speed>
  <fix>3d</fix>
</trkpt>
<trkpt lat="-27.2721954" lon="151.2900675">
  <ele>443.07</ele>
  <time>2026-09-01T19:59:24Z</time>
  <course>8.46</course>
  <speed>0.27018512172212594</speed>
  <fix>3d</fix>
</trkpt>
<trkpt lat="-27.2721958" lon="151.290068">
  <ele>443.17</ele>
  <time>2026-09-01T19:59:24Z</time>
  <course>309.08</course>
  <speed>0.25</speed>
  <fix>3d</fix>
</trkpt>
<trkpt lat="-27.2721953" lon="151.2900673">
  <ele>443.07</ele>
  <time>2026-09-01T19:59:24Z</time>
  <course>8.48</course>
  <speed>0.2842534080710379</speed>
  <fix>3d</fix>
</trkpt>
<trkpt lat="-27.2721955" lon="151.2900675">
  <ele>443.16</ele>
  <time>2026-09-01T19:59:24Z</time>
  <course>308.2</course>
  <speed>0.26</speed>
  <fix>3d</fix>
</trkpt>
<trkpt lat="-27.2721951" lon="151.2900671">
  <ele>443.07</ele>
  <time>2026-09-01T19:59:24Z</time>
  <course>8.49</course>
  <speed>0.2842534080710379</speed>
  <fix>3d</fix>
</trkpt>
<trkpt lat="-27.2721955" lon="151.2900675">
  <ele>443.16</ele>
  <time>2026-09-01T19:59:24Z</time>
  <course>308.2</course>
  <speed>0.26</speed>
  <fix>3d</fix>
</trkpt>
<trkpt lat="-27.272195" lon="151.2900669">
  <ele>443.07</ele>
  <time>2026-09-01T19:59:24Z</time>
  <course>8.51</course>
  <speed>0.2842534080710379</speed>
  <fix>3d</fix>
</trkpt>
<trkpt lat="-27.2721952" lon="151.2900672">
  <ele>443.16</ele>
  <time>2026-09-01T19:59:24Z</time>
  <course>307.45</course>
  <speed>0.27</speed>
  <fix>3d</fix>
</trkpt>
<trkpt lat="-27.2721948" lon="151.2900667">
  <ele>443.06</ele>
  <time>2026-09-01T19:59:24Z</time>
  <course>8.53</course>
  <speed>0.2842534080710379</speed>
  <fix>3d</fix>
</trkpt>
<trkpt lat="-27.2721952" lon="151.2900672">
  <ele>443.16</ele>
  <time>2026-09-01T19:59:24Z</time>
  <course>307.45</course>
  <speed>0.27</speed>
  <fix>3d</fix>
</trkpt>
<trkpt lat="-27.2721947" lon="151.2900664">
  <ele>443.06</ele>
  <time>2026-09-01T19:59:24Z</time>
  <course>8.55</course>
  <speed>0.2780287754891569</speed>
  <fix>3d</fix>
</trkpt>
<trkpt lat="-27.2721949" lon="151.2900667">
  <ele>443.15</ele>
  <time>2026-09-01T19:59:24Z</time>
  <course>306.81</course>
  <speed>0.27</speed>
  <fix>3d</fix>
</trkpt>
<trkpt lat="-27.2721945" lon="151.2900662">
  <ele>443.06</ele>
  <time>2026-09-01T19:59:24Z</time>
  <course>8.58</course>
  <speed>0.2780287754891569</speed>
  <fix>3d</fix>
</trkpt>
<trkpt lat="-27.2721949" lon="151.2900667">
  <ele>443.15</ele>
  <time>2026-09-01T19:59:24Z</time>
  <course>306.81</course>
  <speed>0.27</speed>
  <fix>3d</fix>
</trkpt>
<trkpt lat="-27.2721944" lon="151.290066">
  <ele>443.06</ele>
  <time>2026-09-01T19:59:24Z</time>
  <course>8.6</course>
  <speed>0.2780287754891569</speed>
  <fix>3d</fix>
</trkpt>
<trkpt lat="-27.2721947" lon="151.2900662">
  <ele>443.15</ele>
  <time>2026-09-01T19:59:24Z</time>
  <course>306.19</course>
  <speed>0.26</speed>
  <fix>3d</fix>
</trkpt>
<trkpt lat="-27.2721943" lon="151.2900658">
  <ele>443.06</ele>
  <time>2026-09-01T19:59:24Z</time>
  <course>8.63</course>
  <speed>0.2720294101747089</speed>
  <fix>3d</fix>
</trkpt>
<trkpt lat="-27.2721947" lon="151.2900662">
  <ele>443.15</ele>
  <time>2026-09-01T19:59:24Z</time>
  <course>306.19</course>
  <speed>0.26</speed>
  <fix>3d</fix>
</trkpt>
<trkpt lat="-27.2721941" lon="151.2900656">
  <ele>443.06</ele>
  <time>2026-09-01T19:59:24Z</time>
  <course>8.64</course>
  <speed>0.2640075756488817</speed>
  <fix>3d</fix>
</trkpt>
<trkpt lat="-27.2721944" lon="151.2900659">
  <ele>443.15</ele>
  <time>2026-09-01T19:59:24Z</time>
  <course>305.48</course>
  <speed>0.26</speed>
  <fix>3d</fix>
</trkpt>
<trkpt lat="-27.272194" lon="151.2900654">
  <ele>443.06</ele>
  <time>2026-09-01T19:59:24Z</time>
  <course>8.66</course>
  <speed>0.2580697580112788</speed>
  <fix>3d</fix>
</trkpt>
<trkpt lat="-27.2721944" lon="151.2900659">
  <ele>443.15</ele>
  <time>2026-09-01T19:59:24Z</time>
  <course>305.48</course>
  <speed>0.26</speed>
  <fix>3d</fix>
</trkpt>
<trkpt lat="-27.2721939" lon="151.2900652">
  <ele>443.06</ele>
  <time>2026-09-01T19:59:24Z</time>
  <course>8.67</course>
  <speed>0.25</speed>
  <fix>3d</fix>
</trkpt>
<trkpt lat="-27.2721941" lon="151.2900654">
  <ele>443.15</ele>
  <time>2026-09-01T19:59:24Z</time>
  <course>304.64</course>
  <speed>0.24</speed>
  <fix>3d</fix>
</trkpt>
<trkpt lat="-27.2721938" lon="151.290065">
  <ele>443.06</ele>
  <time>2026-09-01T19:59:24Z</time>
  <course>8.67</course>
  <speed>0.24413111231467405</speed>
  <fix>3d</fix>
</trkpt>
<trkpt lat="-27.2721941" lon="151.2900654">
  <ele>443.15</ele>
  <time>2026-09-01T19:59:24Z</time>
  <course>304.64</course>
  <speed>0.24</speed>
  <fix>3d</fix>
</trkpt>
<trkpt lat="-27.2721937" lon="151.2900648">
  <ele>443.05</ele>
  <time>2026-09-01T19:59:24Z</time>
  <course>8.68</course>
  <speed>0.23600847442411893</speed>
  <fix>3d</fix>
</trkpt>
<trkpt lat="-27.2721939" lon="151.2900651">
  <ele>443.15</ele>
  <time>2026-09-01T19:59:24Z</time>
  <course>303.82</course>
  <speed>0.23</speed>
  <fix>3d</fix>
</trkpt>
<trkpt lat="-27.2721935" lon="151.2900646">
  <ele>443.05</ele>
  <time>2026-09-01T19:59:24Z</time>
  <course>8.69</course>
  <speed>0.2220360331117452</speed>
  <fix>3d</fix>
</trkpt>
<trkpt lat="-27.2721939" lon="151.2900651">
  <ele>443.15</ele>
  <time>2026-09-01T19:59:24Z</time>
  <course>303.82</course>
  <speed>0.23</speed>
  <fix>3d</fix>
</trkpt>
<trkpt lat="-27.2721934" lon="151.2900644">
  <ele>443.05</ele>
  <time>2026-09-01T19:59:24Z</time>
  <course>8.71</course>
  <speed>0.20808652046684814</speed>
  <fix>3d</fix>
</trkpt>
<trkpt lat="-27.2721937" lon="151.2900647">
  <ele>443.15</ele>
  <time>2026-09-01T19:59:24Z</time>
  <course>302.99</course>
  <speed>0.21</speed>
  <fix>3d</fix>
</trkpt>
<trkpt lat="-27.2721934" lon="151.2900643">
  <ele>443.05</ele>
  <time>2026-09-01T19:59:24Z</time>
  <course>8.73</course>
  <speed>0.20808652046684814</speed>
  <fix>3d</fix>
</trkpt>
<trkpt lat="-27.2721937" lon="151.2900647">
  <ele>443.15</ele>
  <time>2026-09-01T19:59:24Z</time>
  <course>302.99</course>
  <speed>0.21</speed>
  <fix>3d</fix>
</trkpt>
<trkpt lat="-27.2721933" lon="151.2900641">
  <ele>443.05</ele>
  <time>2026-09-01T19:59:24Z</time>
  <course>8.74</course>
  <speed>0.194164878389476</speed>
  <fix>3d</fix>
</trkpt>
<trkpt lat="-27.2721935" lon="151.2900643">
  <ele>443.15</ele>
  <time>2026-09-01T19:59:24Z</time>
  <course>301.98</course>
  <speed>0.19</speed>
  <fix>3d</fix>
</trkpt>
<trkpt lat="-27.2721932" lon="151.290064">
  <ele>443.05</ele>
  <time>2026-09-01T19:59:24Z</time>
  <course>8.76</course>
  <speed>0.18027756377319945</speed>
  <fix>3d</fix>
</trkpt>
<trkpt lat="-27.2721935" lon="151.2900643">
  <ele>443.15</ele>
  <time>2026-09-01T19:59:24Z</time>
  <course>301.98</course>
  <speed>0.19</speed>
  <fix>3d</fix>
</trkpt>
<trkpt lat="-27.2721931" lon="151.2900638">
  <ele>443.06</ele>
  <time>2026-09-01T19:59:24Z</time>
  <course>8.79</course>
  <speed>0.1664331697709324</speed>
  <fix>3d</fix>
</trkpt>
<trkpt lat="-27.2721933" lon="151.290064">
  <ele>443.15</ele>
  <time>2026-09-01T19:59:24Z</time>
  <course>300.68</course>
  <speed>0.16</speed>
  <fix>3d</fix>
</trkpt>
<trkpt lat="-27.2721931" lon="151.2900637">
  <ele>443.06</ele>
  <time>2026-09-01T19:59:24Z</time>
  <course>8.82</course>
  <speed>0.15264337522473748</speed>
  <fix>3d</fix>
</trkpt>
<trkpt lat="-27.2721933" lon="151.290064">
  <ele>443.15</ele>
  <time>2026-09-01T19:59:24Z</time>
  <course>300.68</course>
  <speed>0.16</speed>
  <fix>3d</fix>
</trkpt>
<trkpt lat="-27.272193" lon="151.2900636">
  <ele>443.06</ele>
  <time>2026-09-01T19:59:24Z</time>
  <course>8.84</course>
  <speed>0.13892443989449804</speed>
  <fix>3d</fix>
</trkpt>
<trkpt lat="-27.2721931" lon="151.2900637">
  <ele>443.16</ele>
  <time>2026-09-01T19:59:24Z</time>
  <course>298.71</course>
  <speed>0.14</speed>
  <fix>3d</fix>
</trkpt>
<trkpt lat="-27.2721929" lon="151.2900635">
  <ele>443.07</ele>
  <time>2026-09-01T19:59:24Z</time>
  <course>8.87</course>
  <speed>0.130384048104053</speed>
  <fix>3d</fix>
</trkpt>
<trkpt lat="-27.2721931" lon="151.2900637">
  <ele>443.16</ele>
  <time>2026-09-01T19:59:24Z</time>
  <course>298.71</course>
  <speed>0.14</speed>
  <fix>3d</fix>
</trkpt>
<trkpt lat="-27.2721929" lon="151.2900634">
  <ele>443.07</ele>
  <time>2026-09-01T19:59:24Z</time>
  <course>8.89</course>
  <speed>0.11661903789690602</speed>
  <fix>3d</fix>
</trkpt>
<trkpt lat="-27.272193" lon="151.2900634">
  <ele>443.16</ele>
  <time>2026-09-01T19:59:24Z</time>
  <course>295.68</course>
  <speed>0.11</speed>
  <fix>3d</fix>
</trkpt>
<trkpt lat="-27.2721929" lon="151.2900633">
  <ele>443.07</ele>
  <time>2026-09-01T19:59:24Z</time>
  <course>8.9</course>
  <speed>0.10295630140987001</speed>
  <fix>3d</fix>
</trkpt>
<trkpt lat="-27.272193" lon="151.2900634">
  <ele>443.16</ele>
  <time>2026-09-01T19:59:24Z</time>
  <course>295.68</course>
  <speed>0.11</speed>
  <fix>3d</fix>
</trkpt>
<trkpt lat="-27.2721928" lon="151.2900632">
  <ele>443.07</ele>
  <time>2026-09-01T19:59:24Z</time>
  <course>8.92</course>
  <speed>0.08944271909999159</speed>
  <fix>3d</fix>
</trkpt>
<trkpt lat="-27.272193" lon="151.2900632">
  <ele>443.16</ele>
  <time>2026-09-01T19:59:24Z</time>
  <course>291.19</course>
  <speed>0.09</speed>
  <fix>3d</fix>
</trkpt>
<trkpt lat="-27.2721928" lon="151.2900631">
  <ele>443.07</ele>
  <time>2026-09-01T19:59:24Z</time>
  <course>8.93</course>
  <speed>0.07615773105863909</speed>
  <fix>3d</fix>
</trkpt>
<trkpt lat="-27.272193" lon="151.2900632">
  <ele>443.16</ele>
  <time>2026-09-01T19:59:24Z</time>
  <course>291.19</course>
  <speed>0.09</speed>
  <fix>3d</fix>
</trkpt>
<trkpt lat="-27.2721928" lon="151.2900631">
  <ele>443.07</ele>
  <time>2026-09-01T19:59:24Z</time>
  <course>8.94</course>
  <speed>0.0632455532033676</speed>
  <fix>3d</fix>
</trkpt>
<trkpt lat="-27.272193" lon="151.2900631">
  <ele>443.16</ele>
  <time>2026-09-01T19:59:24Z</time>
  <course>284.0</course>
  <speed>0.06</speed>
  <fix>3d</fix>
</trkpt>
<trkpt lat="-27.2721928" lon="151.290063">
  <ele>443.07</ele>
  <time>2026-09-01T19:59:24Z</time>
  <course>8.95</course>
  <speed>0.053851648071345036</speed>
  <fix>3d</fix>
</trkpt>
<trkpt lat="-27.272193" lon="151.2900631">
  <ele>443.16</ele>
  <time>2026-09-01T19:59:24Z</time>
  <course>284.0</course>
  <speed>0.06</speed>
  <fix>3d</fix>
</trkpt>
<trkpt lat="-27.2721928" lon="151.290063">
  <ele>443.07</ele>
  <time>2026-09-01T19:59:24Z</time>
  <course>8.97</course>
  <speed>0.0412310562561766</speed>
  <fix>3d</fix>
</trkpt>
<trkpt lat="-27.272193" lon="151.290063">
  <ele>443.15</ele>
  <time>2026-09-01T19:59:24Z</time>
  <course>270.07</course>
  <speed>0.04</speed>
  <fix>3d</fix>
</trkpt>
<trkpt lat="-27.2721928" lon="151.2900629">
  <ele>443.07</ele>
  <time>2026-09-01T19:59:24Z</time>
  <course>8.98</course>
  <speed>0.03</speed>
  <fix>3d</fix>
</trkpt>
<trkpt lat="-27.272193" lon="151.290063">
  <ele>443.15</ele>
  <time>2026-09-01T19:59:24Z</time>
  <course>270.07</course>
  <speed>0.04</speed>
  <fix>3d</fix>
</trkpt>
<trkpt lat="-27.2721928" lon="151.2900629">
  <ele>443.07</ele>
  <time>2026-09-01T19:59:24Z</time>
  <course>8.99</course>
  <speed>0.02</speed>
  <fix>3d</fix>
</trkpt>
<trkpt lat="-27.272193" lon="151.290063">
  <ele>443.15</ele>
  <time>2026-09-01T19:59:24Z</time>
  <course>234.92</course>
  <speed>0.02</speed>
  <fix>3d</fix>
</trkpt>
<trkpt lat="-27.2721929" lon="151.2900629">
  <ele>443.07</ele>
  <time>2026-09-01T19:59:24Z</time>
  <course>9.01</course>
  <speed>0.01</speed>
  <fix>3d</fix>
</trkpt>
<trkpt lat="-27.272193" lon="151.290063">
  <ele>443.15</ele>
  <time>2026-09-01T19:59:24Z</time>
  <course>234.92</course>
  <speed>0.02</speed>
  <fix>3d</fix>
</trkpt>
<trkpt lat="-27.2721929" lon="151.2900629">
  <ele>443.07</ele>
  <time>2026-09-01T19:59:24Z</time>
  <course>9.02</course>
  <speed>0.01</speed>
  <fix>3d</fix>
</trkpt>
<trkpt lat="-27.272193" lon="151.290063">
  <ele>443.15</ele>
  <time>2026-09-01T19:59:24Z</time>
  <course>179.86</course>
  <speed>0.02</speed>
  <fix>3d</fix>
</trkpt>
<trkpt lat="-27.2721929" lon="151.2900629">
  <ele>443.07</ele>
  <time>2026-09-01T19:59:24Z</time>
  <course>9.03</course>
  <speed>0.01</speed>
  <fix>3d</fix>
</trkpt>
<trkpt lat="-27.272193" lon="151.290063">
  <ele>443.15</ele>
  <time>2026-09-01T19:59:24Z</time>
  <course>179.86</course>
  <speed>0.02</speed>
  <fix>3d</fix>
</trkpt>
<trkpt lat="-27.2721929" lon="151.2900629">
  <ele>443.07</ele>
  <time>2026-09-01T19:59:24Z</time>
  <course>9.05</course>
  <speed>0.022360679774997897</speed>
  <fix>3d</fix>
</trkpt>
<trkpt lat="-27.272193" lon="151.290063">
  <ele>443.14</ele>
  <time>2026-09-01T19:59:24Z</time>
  <course>153.08</course>
  <speed>0.04</speed>
  <fix>3d</fix>
</trkpt>
<trkpt lat="-27.2721929" lon="151.2900629">
  <ele>443.07</ele>
  <time>2026-09-01T19:59:24Z</time>
  <course>9.06</course>
  <speed>0.0282842712474619</speed>
  <fix>3d</fix>
</trkpt>
<trkpt lat="-27.272193" lon="151.290063">
  <ele>443.14</ele>
  <time>2026-09-01T19:59:24Z</time>
  <course>153.08</course>
  <speed>0.04</speed>
  <fix>3d</fix>
</trkpt>
<trkpt lat="-27.2721929" lon="151.2900629">
  <ele>443.07</ele>
  <time>2026-09-01T19:59:24Z</time>
  <course>9.08</course>
  <speed>0.03605551275463989</speed>
  <fix>3d</fix>
</trkpt>
<trkpt lat="-27.272193" lon="151.290063">
  <ele>443.14</ele>
  <time>2026-09-01T19:59:24Z</time>
  <course>141.65</course>
  <speed>0.05</speed>
  <fix>3d</fix>
</trkpt>
<trkpt lat="-27.272193" lon="151.290063">
  <ele>443.07</ele>
  <time>2026-09-01T19:59:24Z</time>
  <course>9.09</course>
  <speed>0.044721359549995794</speed>
  <fix>3d</fix>
</trkpt>
<trkpt lat="-27.272193" lon="151.290063">
  <ele>443.14</ele>
  <time>2026-09-01T19:59:24Z</time>
  <course>141.65</course>
  <speed>0.05</speed>
  <fix>3d</fix>
</trkpt>
<trkpt lat="-27.272193" lon="151.290063">
  <ele>443.07</ele>
  <time>2026-09-01T19:59:24Z</time>
  <course>9.1</course>
  <speed>0.05</speed>
  <fix>3d</fix>
</trkpt>
<trkpt lat="-27.2721931" lon="151.290063">
  <ele>443.14</ele>
  <time>2026-09-01T19:59:24Z</time>
  <course>135.18</course>
  <speed>0.07</speed>
  <fix>3d</fix>
</trkpt>
<trkpt lat="-27.2721931" lon="151.2900631">
  <ele>443.06</ele>
  <time>2026-09-01T19:59:24Z</time>
  <course>9.11</course>
  <speed>0.05830951894845301</speed>
  <fix>3d</fix>
</trkpt>
<trkpt lat="-27.2721931" lon="151.290063">
  <ele>443.14</ele>
  <time>2026-09-01T19:59:24Z</time>
  <course>135.18</course>
  <speed>0.07</speed>
  <fix>3d</fix>
</trkpt>
<trkpt lat="-27.2721931" lon="151.2900632">
  <ele>443.06</ele>
  <time>2026-09-01T19:59:24Z</time>
  <course>9.12</course>
  <speed>0.0670820393249937</speed>
  <fix>3d</fix>
</trkpt>
<trkpt lat="-27.2721932" lon="151.2900631">
  <ele>443.14</ele>
  <time>2026-09-01T19:59:24Z</time>
  <course>130.77</course>
  <speed>0.08</speed>
  <fix>3d</fix>
</trkpt>
<trkpt lat="-27.2721932" lon="151.2900632">
  <ele>443.06</ele>
  <time>2026-09-01T19:59:24Z</time>
  <course>9.13</course>
  <speed>0.0670820393249937</speed>
  <fix>3d</fix>
</trkpt>
<trkpt lat="-27.2721932" lon="151.2900631">
  <ele>443.14</ele>
  <time>2026-09-01T19:59:24Z</time>
  <course>130.77</course>
  <speed>0.08</speed>
  <fix>3d</fix>
</trkpt>
<trkpt lat="-27.2721932" lon="151.2900633">
  <ele>443.06</ele>
  <time>2026-09-01T19:59:24Z</time>
  <course>9.15</course>
  <speed>0.0670820393249937</speed>
  <fix>3d</fix>
</trkpt>
<trkpt lat="-27.2721933" lon="151.2900632">
  <ele>443.14</ele>
  <time>2026-09-01T19:59:24Z</time>
  <course>127.56</course>
  <speed>0.09</speed>
  <fix>3d</fix>
</trkpt>
<trkpt lat="-27.2721932" lon="151.2900634">
  <ele>443.06</ele>
  <time>2026-09-01T19:59:24Z</time>
  <course>9.17</course>
  <speed>0.07615773105863909</speed>
  <fix>3d</fix>
</trkpt>
<trkpt lat="-27.2721933" lon="151.2900632">
  <ele>443.14</ele>
  <time>2026-09-01T19:59:24Z</time>
  <course>127.56</course>
  <speed>0.09</speed>
  <fix>3d</fix>
</trkpt>
<trkpt lat="-27.2721933" lon="151.2900634">
  <ele>443.06</ele>
  <time>2026-09-01T19:59:24Z</time>
  <course>9.18</course>
  <speed>0.07615773105863909</speed>
  <fix>3d</fix>
</trkpt>
<trkpt lat="-27.2721934" lon="151.2900634">
  <ele>443.14</ele>
  <time>2026-09-01T19:59:24Z</time>
  <course>124.94</course>
  <speed>0.1</speed>
  <fix>3d</fix>
</trkpt>
<trkpt lat="-27.2721933" lon="151.2900635">
  <ele>443.06</ele>
  <time>2026-09-01T19:59:24Z</time>
  <course>9.19</course>
  <speed>0.0854400374531753</speed>
  <fix>3d</fix>
</trkpt>
<trkpt lat="-27.2721934" lon="151.2900634">
  <ele>443.14</ele>
  <time>2026-09-01T19:59:24Z</time>
  <course>124.94</course>
  <speed>0.1</speed>
  <fix>3d</fix>
</trkpt>
<trkpt lat="-27.2721934" lon="151.2900636">
  <ele>443.06</ele>
  <time>2026-09-01T19:59:24Z</time>
  <course>9.19</course>
  <speed>0.0854400374531753</speed>
  <fix>3d</fix>
</trkpt>
<trkpt lat="-27.2721935" lon="151.2900637">
  <ele>443.13</ele>
  <time>2026-09-01T19:59:24Z</time>
  <course>122.64</course>
  <speed>0.11</speed>
  <fix>3d</fix>
</trkpt>
<trkpt lat="-27.2721934" lon="151.2900637">
  <ele>443.06</ele>
  <time>2026-09-01T19:59:24Z</time>
  <course>9.2</course>
  <speed>0.0854400374531753</speed>
  <fix>3d</fix>
</trkpt>
<trkpt lat="-27.2721935" lon="151.2900637">
  <ele>443.13</ele>
  <time>2026-09-01T19:59:24Z</time>
  <course>122.64</course>
  <speed>0.11</speed>
  <fix>3d</fix>
</trkpt>
<trkpt lat="-27.2721935" lon="151.2900638">
  <ele>443.06</ele>
  <time>2026-09-01T19:59:24Z</time>
  <course>9.21</course>
  <speed>0.0854400374531753</speed>
  <fix>3d</fix>
</trkpt>
<trkpt lat="-27.2721936" lon="151.2900639">
  <ele>443.13</ele>
  <time>2026-09-01T19:59:24Z</time>
  <course>120.58</course>
  <speed>0.11</speed>
  <fix>3d</fix>
</trkpt>
<trkpt lat="-27.2721935" lon="151.2900639">
  <ele>443.07</ele>
  <time>2026-09-01T19:59:24Z</time>
  <course>9.22</course>
  <speed>0.0824621125123532</speed>
  <fix>3d</fix>
</trkpt>
<trkpt lat="-27.2721936" lon="151.2900639">
  <ele>443.13</ele>
  <time>2026-09-01T19:59:24Z</time>
  <course>120.58</course>
  <speed>0.11</speed>
  <fix>3d</fix>
</trkpt>
<trkpt lat="-27.2721936" lon="151.290064">
  <ele>443.07</ele>
  <time>2026-09-01T19:59:24Z</time>
  <course>9.24</course>
  <speed>0.0824621125123532</speed>
  <fix>3d</fix>
</trkpt>
<trkpt lat="-27.2721937" lon="151.2900641">
  <ele>443.13</ele>
  <time>2026-09-01T19:59:24Z</time>
  <course>118.76</course>
  <speed>0.11</speed>
  <fix>3d</fix>
</trkpt>
<trkpt lat="-27.2721936" lon="151.2900641">
  <ele>443.07</ele>
  <time>2026-09-01T19:59:24Z</time>
  <course>9.26</course>
  <speed>0.0824621125123532</speed>
  <fix>3d</fix>
</trkpt>
<trkpt lat="-27.2721937" lon="151.2900641">
  <ele>443.13</ele>
  <time>2026-09-01T19:59:24Z</time>
  <course>118.76</course>
  <speed>0.11</speed>
  <fix>3d</fix>
</trkpt>
<trkpt lat="-27.2721936" lon="151.2900642">
  <ele>443.07</ele>
  <time>2026-09-01T19:59:24Z</time>
  <course>9.28</course>
  <speed>0.0824621125123532</speed>
  <fix>3d</fix>
</trkpt>
<trkpt lat="-27.2721938" lon="151.2900642">
  <ele>443.13</ele>
  <time>2026-09-01T19:59:24Z</time>
  <course>117.21</course>
  <speed>0.11</speed>
  <fix>3d</fix>
</trkpt>
<trkpt lat="-27.2721937" lon="151.2900643">
  <ele>443.07</ele>
  <time>2026-09-01T19:59:24Z</time>
  <course>9.3</course>
  <speed>0.08062257748298549</speed>
  <fix>3d</fix>
</trkpt>
<trkpt lat="-27.2721938" lon="151.2900642">
  <ele>443.13</ele>
  <time>2026-09-01T19:59:24Z</time>
  <course>117.21</course>
  <speed>0.11</speed>
  <fix>3d</fix>
</trkpt>
<trkpt lat="-27.2721937" lon="151.2900644">
  <ele>443.08</ele>
  <time>2026-09-01T19:59:24Z</time>
  <course>9.3</course>
  <speed>0.08062257748298549</speed>
  <fix>3d</fix>
</trkpt>
<trkpt lat="-27.2721939" lon="151.2900645">
  <ele>443.13</ele>
  <time>2026-09-01T19:59:24Z</time>
  <course>115.7</course>
  <speed>0.11</speed>
  <fix>3d</fix>
</trkpt>
<trkpt lat="-27.2721937" lon="151.2900645">
  <ele>443.07</ele>
  <time>2026-09-01T19:59:24Z</time>
  <course>9.31</course>
  <speed>0.07071067811865475</speed>
  <fix>3d</fix>
</trkpt>
<trkpt lat="-27.2721939" lon="151.2900645">
  <ele>443.13</ele>
  <time>2026-09-01T19:59:24Z</time>
  <course>115.7</course>
  <speed>0.11</speed>
  <fix>3d</fix>
</trkpt>
<trkpt lat="-27.2721938" lon="151.2900646">
  <ele>443.07</ele>
  <time>2026-09-01T19:59:24Z</time>
  <course>9.31</course>
  <speed>0.07071067811865475</speed>
  <fix>3d</fix>
</trkpt>
<trkpt lat="-27.272194" lon="151.2900646">
  <ele>443.13</ele>
  <time>2026-09-01T19:59:24Z</time>
  <course>114.12</course>
  <speed>0.1</speed>
  <fix>3d</fix>
</trkpt>
<trkpt lat="-27.2721938" lon="151.2900647">
  <ele>443.07</ele>
  <time>2026-09-01T19:59:24Z</time>
  <course>9.31</course>
  <speed>0.07</speed>
  <fix>3d</fix>
</trkpt>
<trkpt lat="-27.272194" lon="151.2900646">
  <ele>443.13</ele>
  <time>2026-09-01T19:59:24Z</time>
  <course>114.12</course>
  <speed>0.1</speed>
  <fix>3d</fix>
</trkpt>
<trkpt lat="-27.2721938" lon="151.2900648">
  <ele>443.07</ele>
  <time>2026-09-01T19:59:24Z</time>
  <course>9.32</course>
  <speed>0.06</speed>
  <fix>3d</fix>
</trkpt>
<trkpt lat="-27.2721941" lon="151.2900649">
  <ele>443.12</ele>
  <time>2026-09-01T19:59:24Z</time>
  <course>112.91</course>
  <speed>0.09</speed>
  <fix>3d</fix>
</trkpt>
<trkpt lat="-27.2721939" lon="151.2900648">
  <ele>443.06</ele>
  <time>2026-09-01T19:59:24Z</time>
  <course>9.32</course>
  <speed>0.06</speed>
  <fix>3d</fix>
</trkpt>
<trkpt lat="-27.2721941" lon="151.2900649">
  <ele>443.12</ele>
  <time>2026-09-01T19:59:24Z</time>
  <course>112.91</course>
  <speed>0.09</speed>
  <fix>3d</fix>
</trkpt>
<trkpt lat="-27.2721939" lon="151.2900649">
  <ele>443.06</ele>
  <time>2026-09-01T19:59:24Z</time>
  <course>9.33</course>
  <speed>0.05</speed>
  <fix>3d</fix>
</trkpt>
<trkpt lat="-27.2721942" lon="151.2900651">
  <ele>443.12</ele>
  <time>2026-09-01T19:59:24Z</time>
  <course>112.37</course>
  <speed>0.08</speed>
  <fix>3d</fix>
</trkpt>
<trkpt lat="-27.2721939" lon="151.290065">
  <ele>443.06</ele>
  <time>2026-09-01T19:59:24Z</time>
  <course>9.34</course>
  <speed>0.05</speed>
  <fix>3d</fix>
</trkpt>
<trkpt lat="-27.2721942" lon="151.2900651">
  <ele>443.12</ele>
  <time>2026-09-01T19:59:24Z</time>
  <course>112.37</course>
  <speed>0.08</speed>
  <fix>3d</fix>
</trkpt>
<trkpt lat="-27.2721939" lon="151.2900651">
  <ele>443.06</ele>
  <time>2026-09-01T19:59:24Z</time>
  <course>9.35</course>
  <speed>0.04</speed>
  <fix>3d</fix>
</trkpt>
<trkpt lat="-27.2721942" lon="151.2900652">
  <ele>443.12</ele>
  <time>2026-09-01T19:59:24Z</time>
  <course>112.02</course>
  <speed>0.07</speed>
  <fix>3d</fix>
</trkpt>
<trkpt lat="-27.272194" lon="151.2900651">
  <ele>443.05</ele>
  <time>2026-09-01T19:59:24Z</time>
  <course>9.37</course>
  <speed>0.04</speed>
  <fix>3d</fix>
</trkpt>
<trkpt lat="-27.2721942" lon="151.2900652">
  <ele>443.12</ele>
  <time>2026-09-01T19:59:24Z</time>
  <course>112.02</course>
  <speed>0.07</speed>
  <fix>3d</fix>
</trkpt>
<trkpt lat="-27.272194" lon="151.2900652">
  <ele>443.05</ele>
  <time>2026-09-01T19:59:24Z</time>
  <course>9.38</course>
  <speed>0.03</speed>
  <fix>3d</fix>
</trkpt>
<trkpt lat="-27.2721943" lon="151.2900653">
  <ele>443.12</ele>
  <time>2026-09-01T19:59:24Z</time>
  <course>111.36</course>
  <speed>0.06</speed>
  <fix>3d</fix>
</trkpt>
<trkpt lat="-27.272194" lon="151.2900652">
  <ele>443.05</ele>
  <time>2026-09-01T19:59:24Z</time>
  <course>9.39</course>
  <speed>0.03</speed>
  <fix>3d</fix>
</trkpt>
<trkpt lat="-27.2721943" lon="151.2900653">
  <ele>443.12</ele>
  <time>2026-09-01T19:59:24Z</time>
  <course>111.36</course>
  <speed>0.06</speed>
  <fix>3d</fix>
</trkpt>
<trkpt lat="-27.272194" lon="151.2900653">
  <ele>443.05</ele>
  <time>2026-09-01T19:59:24Z</time>
  <course>9.4</course>
  <speed>0.022360679774997897</speed>
  <fix>3d</fix>
</trkpt>
<trkpt lat="-27.2721943" lon="151.2900654">
  <ele>443.12</ele>
  <time>2026-09-01T19:59:24Z</time>
  <course>110.38</course>
  <speed>0.05</speed>
  <fix>3d</fix>
</trkpt>
<trkpt lat="-27.272194" lon="151.2900653">
  <ele>443.05</ele>
  <time>2026-09-01T19:59:24Z</time>
  <course>9.4</course>
  <speed>0.01414213562373095</speed>
  <fix>3d</fix>
</trkpt>
<trkpt lat="-27.2721943" lon="151.2900654">
  <ele>443.12</ele>
  <time>2026-09-01T19:59:24Z</time>
  <course>110.38</course>
  <speed>0.05</speed>
  <fix>3d</fix>
</trkpt>
<trkpt lat="-27.2721941" lon="151.2900654">
  <ele>443.06</ele>
  <time>2026-09-01T19:59:24Z</time>
  <course>9.41</course>
  <speed>0.01414213562373095</speed>
  <fix>3d</fix>
</trkpt>
<trkpt lat="-27.2721943" lon="151.2900655">
  <ele>443.12</ele>
  <time>2026-09-01T19:59:24Z</time>
  <course>109.11</course>
  <speed>0.03</speed>
  <fix>3d</fix>
</trkpt>
<trkpt lat="-27.2721941" lon="151.2900654">
  <ele>443.06</ele>
  <time>2026-09-01T19:59:24Z</time>
  <course>9.41</course>
  <speed>0.01</speed>
  <fix>3d</fix>
</trkpt>
<trkpt lat="-27.2721943" lon="151.2900655">
  <ele>443.12</ele>
  <time>2026-09-01T19:59:24Z</time>
  <course>109.11</course>
  <speed>0.03</speed>
  <fix>3d</fix>
</trkpt>
<trkpt lat="-27.2721941" lon="151.2900654">
  <ele>443.06</ele>
  <time>2026-09-01T19:59:24Z</time>
  <course>9.42</course>
  <speed>0.02</speed>
  <fix>3d</fix>
</trkpt>
<trkpt lat="-27.2721944" lon="151.2900656">
  <ele>443.12</ele>
  <time>2026-09-01T19:59:24Z</time>
  <course>107.46</course>
  <speed>0.02</speed>
  <fix>3d</fix>
</trkpt>
<trkpt lat="-27.2721941" lon="151.2900654">
  <ele>443.06</ele>
  <time>2026-09-01T19:59:24Z</time>
  <course>9.43</course>
  <speed>0.02</speed>
  <fix>3d</fix>
</trkpt>
<trkpt lat="-27.2721944" lon="151.2900656">
  <ele>443.12</ele>
  <time>2026-09-01T19:59:24Z</time>
  <course>107.46</course>
  <speed>0.02</speed>
  <fix>3d</fix>
</trkpt>
<trkpt lat="-27.2721941" lon="151.2900654">
  <ele>443.06</ele>
  <time>2026-09-01T19:59:24Z</time>
  <course>9.44</course>
  <speed>0.022360679774997897</speed>
  <fix>3d</fix>
</trkpt>
<trkpt lat="-27.2721944" lon="151.2900656">
  <ele>443.12</ele>
  <time>2026-09-01T19:59:24Z</time>
  <course>102.13</course>
  <speed>0.01</speed>
  <fix>3d</fix>
</trkpt>
<trkpt lat="-27.2721941" lon="151.2900654">
  <ele>443.06</ele>
  <time>2026-09-01T19:59:24Z</time>
  <course>9.45</course>
  <speed>0.022360679774997897</speed>
  <fix>3d</fix>
</trkpt>
<trkpt lat="-27.2721944" lon="151.2900656">
  <ele>443.12</ele>
  <time>2026-09-01T19:59:24Z</time>
  <course>102.13</course>
  <speed>0.01</speed>
  <fix>3d</fix>
</trkpt>
<trkpt lat="-27.2721941" lon="151.2900654">
  <ele>443.06</ele>
  <time>2026-09-01T19:59:24Z</time>
  <course>9.46</course>
  <speed>0.03605551275463989</speed>
  <fix>3d</fix>
</trkpt>
<trkpt lat="-27.2721944" lon="151.2900656">
  <ele>443.12</ele>
  <time>2026-09-01T19:59:24Z</time>
  <course>3.85</course>
  <speed>0.0</speed>
  <fix>3d</fix>
</trkpt>
<trkpt lat="-27.2721941" lon="151.2900654">
  <ele>443.06</ele>
  <time>2026-09-01T19:59:24Z</time>
  <course>9.47</course>
  <speed>0.03605551275463989</speed>
  <fix>3d</fix>
</trkpt>
<trkpt lat="-27.2721944" lon="151.2900656">
  <ele>443.12</ele>
  <time>2026-09-01T19:59:24Z</time>
  <course>3.85</course>
  <speed>0.0</speed>
  <fix>3d</fix>
</trkpt>
<trkpt lat="-27.2721941" lon="151.2900654">
  <ele>443.06</ele>
  <time>2026-09-01T19:59:24Z</time>
  <course>9.47</course>
  <speed>0.04242640687119285</speed>
  <fix>3d</fix>
</trkpt>
<trkpt lat="-27.2721944" lon="151.2900656">
  <ele>443.12</ele>
  <time>2026-09-01T19:59:24Z</time>
  <course>305.02</course>
  <speed>0.01</speed>
  <fix>3d</fix>
</trkpt>
<trkpt lat="-27.2721941" lon="151.2900654">
  <ele>443.06</ele>
  <time>2026-09-01T19:59:24Z</time>
  <course>9.49</course>
  <speed>0.04242640687119285</speed>
  <fix>3d</fix>
</trkpt>
<trkpt lat="-27.2721944" lon="151.2900656">
  <ele>443.12</ele>
  <time>2026-09-01T19:59:24Z</time>
  <course>305.02</course>
  <speed>0.01</speed>
  <fix>3d</fix>
</trkpt>
<trkpt lat="-27.2721941" lon="151.2900654">
  <ele>443.06</ele>
  <time>2026-09-01T19:59:24Z</time>
  <course>9.5</course>
  <speed>0.05</speed>
  <fix>3d</fix>
</trkpt>
<trkpt lat="-27.2721944" lon="151.2900656">
  <ele>443.12</ele>
  <time>2026-09-01T19:59:24Z</time>
  <course>300.39</course>
  <speed>0.02</speed>
  <fix>3d</fix>
</trkpt>
<trkpt lat="-27.2721941" lon="151.2900654">
  <ele>443.05</ele>
  <time>2026-09-01T19:59:24Z</time>
  <course>9.51</course>
  <speed>0.0565685424949238</speed>
  <fix>3d</fix>
</trkpt>
<trkpt lat="-27.2721944" lon="151.2900656">
  <ele>443.12</ele>
  <time>2026-09-01T19:59:24Z</time>
  <course>300.39</course>
  <speed>0.02</speed>
  <fix>3d</fix>
</trkpt>
<trkpt lat="-27.2721941" lon="151.2900654">
  <ele>443.05</ele>
  <time>2026-09-01T19:59:24Z</time>
  <course>9.52</course>
  <speed>0.06403124237432849</speed>
  <fix>3d</fix>
</trkpt>
<trkpt lat="-27.2721944" lon="151.2900656">
  <ele>443.12</ele>
  <time>2026-09-01T19:59:24Z</time>
  <course>298.14</course>
  <speed>0.03</speed>
  <fix>3d</fix>
</trkpt>
<trkpt lat="-27.2721941" lon="151.2900653">
  <ele>443.05</ele>
  <time>2026-09-01T19:59:24Z</time>
  <course>9.52</course>
  <speed>0.06403124237432849</speed>
  <fix>3d</fix>
</trkpt>
<trkpt lat="-27.2721944" lon="151.2900656">
  <ele>443.12</ele>
  <time>2026-09-01T19:59:24Z</time>
  <course>298.14</course>
  <speed>0.03</speed>
  <fix>3d</fix>
</trkpt>
<trkpt lat="-27.2721941" lon="151.2900653">
  <ele>443.05</ele>
  <time>2026-09-01T19:59:24Z</time>
  <course>9.53</course>
  <speed>0.07211102550927978</speed>
  <fix>3d</fix>
</trkpt>
<trkpt lat="-27.2721944" lon="151.2900656">
  <ele>443.12</ele>
  <time>2026-09-01T19:59:24Z</time>
  <course>297.43</course>
  <speed>0.04</speed>
  <fix>3d</fix>
</trkpt>
<trkpt lat="-27.2721941" lon="151.2900653">
  <ele>443.04</ele>
  <time>2026-09-01T19:59:24Z</time>
  <course>9.53</course>
  <speed>0.07211102550927978</speed>
  <fix>3d</fix>
</trkpt>
<trkpt lat="-27.2721944" lon="151.2900656">
  <ele>443.12</ele>
  <time>2026-09-01T19:59:24Z</time>
  <course>297.43</course>
  <speed>0.04</speed>
  <fix>3d</fix>
</trkpt>
<trkpt lat="-27.2721941" lon="151.2900652">
  <ele>443.04</ele>
  <time>2026-09-01T19:59:24Z</time>
  <course>9.54</course>
  <speed>0.07810249675906654</speed>
  <fix>3d</fix>
</trkpt>
<trkpt lat="-27.2721943" lon="151.2900655">
  <ele>443.13</ele>
  <time>2026-09-01T19:59:24Z</time>
  <course>297.96</course>
  <speed>0.05</speed>
  <fix>3d</fix>
</trkpt>
<trkpt lat="-27.2721941" lon="151.2900652">
  <ele>443.04</ele>
  <time>2026-09-01T19:59:24Z</time>
  <course>9.55</course>
  <speed>0.07810249675906654</speed>
  <fix>3d</fix>
</trkpt>
<trkpt lat="-27.2721943" lon="151.2900655">
  <ele>443.13</ele>
  <time>2026-09-01T19:59:24Z</time>
  <course>297.96</course>
  <speed>0.05</speed>
  <fix>3d</fix>
</trkpt>
<trkpt lat="-27.272194" lon="151.2900651">
  <ele>443.05</ele>
  <time>2026-09-01T19:59:24Z</time>
  <course>9.56</course>
  <speed>0.08602325267042626</speed>
  <fix>3d</fix>
</trkpt>
<trkpt lat="-27.2721943" lon="151.2900654">
  <ele>443.13</ele>
  <time>2026-09-01T19:59:24Z</time>
  <course>298.78</course>
  <speed>0.06</speed>
  <fix>3d</fix>
</trkpt>
<trkpt lat="-27.272194" lon="151.2900651">
  <ele>443.05</ele>
  <time>2026-09-01T19:59:24Z</time>
  <course>9.57</course>
  <speed>0.08602325267042626</speed>
  <fix>3d</fix>
</trkpt>
<trkpt lat="-27.2721943" lon="151.2900654">
  <ele>443.13</ele>
  <time>2026-09-01T19:59:24Z</time>
  <course>298.78</course>
  <speed>0.06</speed>
  <fix>3d</fix>
</trkpt>
<trkpt lat="-27.272194" lon="151.290065">
  <ele>443.05</ele>
  <time>2026-09-01T19:59:24Z</time>
  <course>9.57</course>
  <speed>0.08602325267042626</speed>
  <fix>3d</fix>
</trkpt>
<trkpt lat="-27.2721942" lon="151.2900652">
  <ele>443.13</ele>
  <time>2026-09-01T19:59:24Z</time>
  <course>299.64</course>
  <speed>0.06</speed>
  <fix>3d</fix>
</trkpt>
<trkpt lat="-27.272194" lon="151.290065">
  <ele>443.05</ele>
  <time>2026-09-01T19:59:24Z</time>
  <course>9.58</course>
  <speed>0.08602325267042626</speed>
  <fix>3d</fix>
</trkpt>
<trkpt lat="-27.2721942" lon="151.2900652">
  <ele>443.13</ele>
  <time>2026-09-01T19:59:24Z</time>
  <course>299.64</course>
  <speed>0.06</speed>
  <fix>3d</fix>
</trkpt>
<trkpt lat="-27.2721939" lon="151.2900649">
  <ele>443.06</ele>
  <time>2026-09-01T19:59:24Z</time>
  <course>9.59</course>
  <speed>0.08602325267042626</speed>
  <fix>3d</fix>
</trkpt>
<trkpt lat="-27.2721941" lon="151.2900651">
  <ele>443.13</ele>
  <time>2026-09-01T19:59:24Z</time>
  <course>300.42</course>
  <speed>0.07</speed>
  <fix>3d</fix>
</trkpt>
<trkpt lat="-27.2721939" lon="151.2900649">
  <ele>443.06</ele>
  <time>2026-09-01T19:59:24Z</time>
  <course>9.59</course>
  <speed>0.08602325267042626</speed>
  <fix>3d</fix>
</trkpt>
<trkpt lat="-27.2721941" lon="151.2900651">
  <ele>443.13</ele>
  <time>2026-09-01T19:59:24Z</time>
  <course>300.42</course>
  <speed>0.07</speed>
  <fix>3d</fix>
</trkpt>
<trkpt lat="-27.2721939" lon="151.2900648">
  <ele>443.06</ele>
  <time>2026-09-01T19:59:24Z</time>
  <course>9.6</course>
  <speed>0.09219544457292887</speed>
  <fix>3d</fix>
</trkpt>
<trkpt lat="-27.2721941" lon="151.290065">
  <ele>443.14</ele>
  <time>2026-09-01T19:59:24Z</time>
  <course>301.01</course>
  <speed>0.07</speed>
  <fix>3d</fix>
</trkpt>
<trkpt lat="-27.2721939" lon="151.2900648">
  <ele>443.06</ele>
  <time>2026-09-01T19:59:24Z</time>
  <course>9.6</course>
  <speed>0.08602325267042626</speed>
  <fix>3d</fix>
</trkpt>
<trkpt lat="-27.2721941" lon="151.290065">
  <ele>443.14</ele>
  <time>2026-09-01T19:59:24Z</time>
  <course>301.01</course>
  <speed>0.07</speed>
  <fix>3d</fix>
</trkpt>
<trkpt lat="-27.2721938" lon="151.2900647">
  <ele>443.06</ele>
  <time>2026-09-01T19:59:24Z</time>
  <course>9.61</course>
  <speed>0.08602325267042626</speed>
  <fix>3d</fix>
</trkpt>
<trkpt lat="-27.272194" lon="151.2900649">
  <ele>443.14</ele>
  <time>2026-09-01T19:59:24Z</time>
  <course>301.39</course>
  <speed>0.07</speed>
  <fix>3d</fix>
</trkpt>
<trkpt lat="-27.2721938" lon="151.2900646">
  <ele>443.07</ele>
  <time>2026-09-01T19:59:24Z</time>
  <course>9.61</course>
  <speed>0.08602325267042626</speed>
  <fix>3d</fix>
</trkpt>
<trkpt lat="-27.272194" lon="151.2900649">
  <ele>443.14</ele>
  <time>2026-09-01T19:59:24Z</time>
  <course>301.39</course>
  <speed>0.07</speed>
  <fix>3d</fix>
</trkpt>
<trkpt lat="-27.2721938" lon="151.2900646">
  <ele>443.07</ele>
  <time>2026-09-01T19:59:24Z</time>
  <course>9.61</course>
  <speed>0.08602325267042626</speed>
  <fix>3d</fix>
</trkpt>
<trkpt lat="-27.2721939" lon="151.2900647">
  <ele>443.14</ele>
  <time>2026-09-01T19:59:24Z</time>
  <course>301.64</course>
  <speed>0.07</speed>
  <fix>3d</fix>
</trkpt>
<trkpt lat="-27.2721937" lon="151.2900645">
  <ele>443.07</ele>
  <time>2026-09-01T19:59:24Z</time>
  <course>9.62</course>
  <speed>0.08602325267042626</speed>
  <fix>3d</fix>
</trkpt>
<trkpt lat="-27.2721939" lon="151.2900647">
  <ele>443.14</ele>
  <time>2026-09-01T19:59:24Z</time>
  <course>301.64</course>
  <speed>0.07</speed>
  <fix>3d</fix>
</trkpt>
<trkpt lat="-27.2721937" lon="151.2900645">
  <ele>443.07</ele>
  <time>2026-09-01T19:59:24Z</time>
  <course>9.62</course>
  <speed>0.07810249675906654</speed>
  <fix>3d</fix>
</trkpt>
<trkpt lat="-27.2721939" lon="151.2900646">
  <ele>443.14</ele>
  <time>2026-09-01T19:59:24Z</time>
  <course>301.62</course>
  <speed>0.07</speed>
  <fix>3d</fix>
</trkpt>
<trkpt lat="-27.2721937" lon="151.2900644">
  <ele>443.06</ele>
  <time>2026-09-01T19:59:24Z</time>
  <course>9.64</course>
  <speed>0.07810249675906654</speed>
  <fix>3d</fix>
</trkpt>
<trkpt lat="-27.2721939" lon="151.2900646">
  <ele>443.14</ele>
  <time>2026-09-01T19:59:24Z</time>
  <course>301.62</course>
  <speed>0.07</speed>
  <fix>3d</fix>
</trkpt>
<trkpt lat="-27.2721936" lon="151.2900644">
  <ele>443.06</ele>
  <time>2026-09-01T19:59:24Z</time>
  <course>9.65</course>
  <speed>0.07810249675906654</speed>
  <fix>3d</fix>
</trkpt>
<trkpt lat="-27.2721938" lon="151.2900645">
  <ele>443.14</ele>
  <time>2026-09-01T19:59:24Z</time>
  <course>301.24</course>
  <speed>0.06</speed>
  <fix>3d</fix>
</trkpt>
<trkpt lat="-27.2721936" lon="151.2900643">
  <ele>443.06</ele>
  <time>2026-09-01T19:59:24Z</time>
  <course>9.67</course>
  <speed>0.07810249675906654</speed>
  <fix>3d</fix>
</trkpt>
<trkpt lat="-27.2721938" lon="151.2900645">
  <ele>443.14</ele>
  <time>2026-09-01T19:59:24Z</time>
  <course>301.24</course>
  <speed>0.06</speed>
  <fix>3d</fix>
</trkpt>
<trkpt lat="-27.2721936" lon="151.2900642">
  <ele>443.07</ele>
  <time>2026-09-01T19:59:24Z</time>
  <course>9.68</course>
  <speed>0.07810249675906654</speed>
  <fix>3d</fix>
</trkpt>
<trkpt lat="-27.2721937" lon="151.2900644">
  <ele>443.14</ele>
  <time>2026-09-01T19:59:24Z</time>
  <course>300.57</course>
  <speed>0.06</speed>
  <fix>3d</fix>
</trkpt>
<trkpt lat="-27.2721936" lon="151.2900642">
  <ele>443.07</ele>
  <time>2026-09-01T19:59:24Z</time>
  <course>9.68</course>
  <speed>0.07810249675906654</speed>
  <fix>3d</fix>
</trkpt>
<trkpt lat="-27.2721937" lon="151.2900644">
  <ele>443.14</ele>
  <time>2026-09-01T19:59:24Z</time>
  <course>300.57</course>
  <speed>0.06</speed>
  <fix>3d</fix>
</trkpt>
<trkpt lat="-27.2721935" lon="151.2900641">
  <ele>443.06</ele>
  <time>2026-09-01T19:59:24Z</time>
  <course>9.68</course>
  <speed>0.07810249675906654</speed>
  <fix>3d</fix>
</trkpt>
<trkpt lat="-27.2721937" lon="151.2900642">
  <ele>443.14</ele>
  <time>2026-09-01T19:59:24Z</time>
  <course>299.95</course>
  <speed>0.06</speed>
  <fix>3d</fix>
</trkpt>
<trkpt lat="-27.2721935" lon="151.2900641">
  <ele>443.06</ele>
  <time>2026-09-01T19:59:24Z</time>
  <course>9.68</course>
  <speed>0.06403124237432849</speed>
  <fix>3d</fix>
</trkpt>
<trkpt lat="-27.2721937" lon="151.2900642">
  <ele>443.14</ele>
  <time>2026-09-01T19:59:24Z</time>
  <course>299.95</course>
  <speed>0.06</speed>
  <fix>3d</fix>
</trkpt>
<trkpt lat="-27.2721935" lon="151.2900641">
  <ele>443.06</ele>
  <time>2026-09-01T19:59:24Z</time>
  <course>9.69</course>
  <speed>0.06403124237432849</speed>
  <fix>3d</fix>
</trkpt>
<trkpt lat="-27.2721936" lon="151.2900641">
  <ele>443.14</ele>
  <time>2026-09-01T19:59:24Z</time>
  <course>299.98</course>
  <speed>0.05</speed>
  <fix>3d</fix>
</trkpt>
<trkpt lat="-27.2721935" lon="151.290064">
  <ele>443.06</ele>
  <time>2026-09-01T19:59:24Z</time>
  <course>9.7</course>
  <speed>0.06403124237432849</speed>
  <fix>3d</fix>
</trkpt>
<trkpt lat="-27.2721936" lon="151.2900641">
  <ele>443.14</ele>
  <time>2026-09-01T19:59:24Z</time>
  <course>299.98</course>
  <speed>0.05</speed>
  <fix>3d</fix>
</trkpt>
<trkpt lat="-27.2721934" lon="151.290064">
  <ele>443.06</ele>
  <time>2026-09-01T19:59:24Z</time>
  <course>9.7</course>
  <speed>0.06403124237432849</speed>
  <fix>3d</fix>
</trkpt>
<trkpt lat="-27.2721936" lon="151.2900641">
  <ele>443.14</ele>
  <time>2026-09-01T19:59:24Z</time>
  <course>301.31</course>
  <speed>0.05</speed>
  <fix>3d</fix>
</trkpt>
<trkpt lat="-27.2721934" lon="151.2900639">
  <ele>443.06</ele>
  <time>2026-09-01T19:59:24Z</time>
  <course>9.71</course>
  <speed>0.0565685424949238</speed>
  <fix>3d</fix>
</trkpt>
<trkpt lat="-27.2721936" lon="151.2900641">
  <ele>443.14</ele>
  <time>2026-09-01T19:59:24Z</time>
  <course>301.31</course>
  <speed>0.05</speed>
  <fix>3d</fix>
</trkpt>
<trkpt lat="-27.2721934" lon="151.2900639">
  <ele>443.06</ele>
  <time>2026-09-01T19:59:24Z</time>
  <course>9.72</course>
  <speed>0.0565685424949238</speed>
  <fix>3d</fix>
</trkpt>
<trkpt lat="-27.2721935" lon="151.290064">
  <ele>443.14</ele>
  <time>2026-09-01T19:59:24Z</time>
  <course>304.06</course>
  <speed>0.04</speed>
  <fix>3d</fix>
</trkpt>
<trkpt lat="-27.2721934" lon="151.2900639">
  <ele>443.06</ele>
  <time>2026-09-01T19:59:24Z</time>
  <course>9.72</course>
  <speed>0.05</speed>
  <fix>3d</fix>
</trkpt>
<trkpt lat="-27.2721935" lon="151.290064">
  <ele>443.14</ele>
  <time>2026-09-01T19:59:24Z</time>
  <course>304.06</course>
  <speed>0.04</speed>
  <fix>3d</fix>
</trkpt>
<trkpt lat="-27.2721933" lon="151.2900638">
  <ele>443.06</ele>
  <time>2026-09-01T19:59:24Z</time>
  <course>9.73</course>
  <speed>0.05</speed>
  <fix>3d</fix>
</trkpt>
<trkpt lat="-27.2721935" lon="151.2900639">
  <ele>443.14</ele>
  <time>2026-09-01T19:59:24Z</time>
  <course>306.84</course>
  <speed>0.03</speed>
  <fix>3d</fix>
</trkpt>
<trkpt lat="-27.2721933" lon="151.2900638">
  <ele>443.06</ele>
  <time>2026-09-01T19:59:24Z</time>
  <course>9.74</course>
  <speed>0.04242640687119285</speed>
  <fix>3d</fix>
</trkpt>
<trkpt lat="-27.2721935" lon="151.2900639">
  <ele>443.14</ele>
  <time>2026-09-01T19:59:24Z</time>
  <course>306.84</course>
  <speed>0.03</speed>
  <fix>3d</fix>
</trkpt>
<trkpt lat="-27.2721933" lon="151.2900638">
  <ele>443.06</ele>
  <time>2026-09-01T19:59:24Z</time>
  <course>9.75</course>
  <speed>0.04242640687119285</speed>
  <fix>3d</fix>
</trkpt>
<trkpt lat="-27.2721935" lon="151.2900639">
  <ele>443.14</ele>
  <time>2026-09-01T19:59:24Z</time>
  <course>308.11</course>
  <speed>0.02</speed>
  <fix>3d</fix>
</trkpt>
<trkpt lat="-27.2721933" lon="151.2900638">
  <ele>443.06</ele>
  <time>2026-09-01T19:59:24Z</time>
  <course>9.76</course>
  <speed>0.03605551275463989</speed>
  <fix>3d</fix>
</trkpt>
<trkpt lat="-27.2721935" lon="151.2900639">
  <ele>443.14</ele>
  <time>2026-09-01T19:59:24Z</time>
  <course>308.11</course>
  <speed>0.02</speed>
  <fix>3d</fix>
</trkpt>
<trkpt lat="-27.2721933" lon="151.2900638">
  <ele>443.06</ele>
  <time>2026-09-01T19:59:24Z</time>
  <course>9.77</course>
  <speed>0.03605551275463989</speed>
  <fix>3d</fix>
</trkpt>
<trkpt lat="-27.2721934" lon="151.2900638">
  <ele>443.14</ele>
  <time>2026-09-01T19:59:24Z</time>
  <course>306.85</course>
  <speed>0.02</speed>
  <fix>3d</fix>
</trkpt>
<trkpt lat="-27.2721933" lon="151.2900638">
  <ele>443.06</ele>
  <time>2026-09-01T19:59:24Z</time>
  <course>9.77</course>
  <speed>0.0282842712474619</speed>
  <fix>3d</fix>
</trkpt>
<trkpt lat="-27.2721934" lon="151.2900638">
  <ele>443.14</ele>
  <time>2026-09-01T19:59:24Z</time>
  <course>306.85</course>
  <speed>0.02</speed>
  <fix>3d</fix>
</trkpt>
<trkpt lat="-27.2721933" lon="151.2900637">
  <ele>443.07</ele>
  <time>2026-09-01T19:59:24Z</time>
  <course>9.78</course>
  <speed>0.022360679774997897</speed>
  <fix>3d</fix>
</trkpt>
<trkpt lat="-27.2721934" lon="151.2900637">
  <ele>443.14</ele>
  <time>2026-09-01T19:59:24Z</time>
  <course>300.78</course>
  <speed>0.01</speed>
  <fix>3d</fix>
</trkpt>
<trkpt lat="-27.2721933" lon="151.2900637">
  <ele>443.07</ele>
  <time>2026-09-01T19:59:24Z</time>
  <course>9.79</course>
  <speed>0.022360679774997897</speed>
  <fix>3d</fix>
</trkpt>
<trkpt lat="-27.2721934" lon="151.2900637">
  <ele>443.14</ele>
  <time>2026-09-01T19:59:24Z</time>
  <course>300.78</course>
  <speed>0.01</speed>
  <fix>3d</fix>
</trkpt>
<trkpt lat="-27.2721933" lon="151.2900637">
  <ele>443.07</ele>
  <time>2026-09-01T19:59:24Z</time>
  <course>9.8</course>
  <speed>0.01414213562373095</speed>
  <fix>3d</fix>
</trkpt>
<trkpt lat="-27.2721934" lon="151.2900637">
  <ele>443.14</ele>
  <time>2026-09-01T19:59:24Z</time>
  <course>276.89</course>
  <speed>0.0</speed>
  <fix>3d</fix>
</trkpt>
<trkpt lat="-27.2721933" lon="151.2900637">
  <ele>443.07</ele>
  <time>2026-09-01T19:59:24Z</time>
  <course>9.8</course>
  <speed>0.01</speed>
  <fix>3d</fix>
</trkpt>
<trkpt lat="-27.2721934" lon="151.2900637">
  <ele>443.14</ele>
  <time>2026-09-01T19:59:24Z</time>
  <course>276.89</course>
  <speed>0.0</speed>
  <fix>3d</fix>
</trkpt>
<trkpt lat="-27.2721933" lon="151.2900637">
  <ele>443.07</ele>
  <time>2026-09-01T19:59:24Z</time>
  <course>9.81</course>
  <speed>0.01</speed>
  <fix>3d</fix>
</trkpt>
<trkpt lat="-27.2721934" lon="151.2900637">
  <ele>443.15</ele>
  <time>2026-09-01T19:59:24Z</time>
  <course>165.64</course>
  <speed>0.0</speed>
  <fix>3d</fix>
</trkpt>
<trkpt lat="-27.2721933" lon="151.2900637">
  <ele>443.08</ele>
  <time>2026-09-01T19:59:24Z</time>
  <course>9.81</course>
  <speed>0.01</speed>
  <fix>3d</fix>
</trkpt>
<trkpt lat="-27.2721934" lon="151.2900637">
  <ele>443.15</ele>
  <time>2026-09-01T19:59:24Z</time>
  <course>165.64</course>
  <speed>0.0</speed>
  <fix>3d</fix>
</trkpt>
<trkpt lat="-27.2721933" lon="151.2900637">
  <ele>443.08</ele>
  <time>2026-09-01T19:59:24Z</time>
  <course>9.8</course>
  <speed>0.01</speed>
  <fix>3d</fix>
</trkpt>
<trkpt lat="-27.2721934" lon="151.2900637">
  <ele>443.14</ele>
  <time>2026-09-01T19:59:24Z</time>
  <course>138.8</course>
  <speed>0.01</speed>
  <fix>3d</fix>
</trkpt>
<trkpt lat="-27.2721933" lon="151.2900637">
  <ele>443.07</ele>
  <time>2026-09-01T19:59:24Z</time>
  <course>9.8</course>
  <speed>0.0</speed>
  <fix>3d</fix>
</trkpt>
<trkpt lat="-27.2721934" lon="151.2900637">
  <ele>443.14</ele>
  <time>2026-09-01T19:59:24Z</time>
  <course>138.8</course>
  <speed>0.01</speed>
  <fix>3d</fix>
</trkpt>
<trkpt lat="-27.2721933" lon="151.2900637">
  <ele>443.07</ele>
  <time>2026-09-01T19:59:24Z</time>
  <course>9.8</course>
  <speed>0.0</speed>
  <fix>3d</fix>
</trkpt>
<trkpt lat="-27.2721934" lon="151.2900637">
  <ele>443.14</ele>
  <time>2026-09-01T19:59:24Z</time>
  <course>129.82</course>
  <speed>0.01</speed>
  <fix>3d</fix>
</trkpt>
<trkpt lat="-27.2721933" lon="151.2900637">
  <ele>443.07</ele>
  <time>2026-09-01T19:59:24Z</time>
  <course>9.8</course>
  <speed>0.0</speed>
  <fix>3d</fix>
</trkpt>
<trkpt lat="-27.2721934" lon="151.2900637">
  <ele>443.14</ele>
  <time>2026-09-01T19:59:24Z</time>
  <course>129.82</course>
  <speed>0.01</speed>
  <fix>3d</fix>
</trkpt>
<trkpt lat="-27.2721933" lon="151.2900637">
  <ele>443.07</ele>
  <time>2026-09-01T19:59:24Z</time>
  <course>9.8</course>
  <speed>0.01</speed>
  <fix>3d</fix>
</trkpt>
<trkpt lat="-27.2721934" lon="151.2900637">
  <ele>443.14</ele>
  <time>2026-09-01T19:59:24Z</time>
  <course>124.66</course>
  <speed>0.02</speed>
  <fix>3d</fix>
</trkpt>
<trkpt lat="-27.2721933" lon="151.2900637">
  <ele>443.07</ele>
  <time>2026-09-01T19:59:24Z</time>
  <course>9.81</course>
  <speed>0.01</speed>
  <fix>3d</fix>
</trkpt>
<trkpt lat="-27.2721934" lon="151.2900637">
  <ele>443.14</ele>
  <time>2026-09-01T19:59:24Z</time>
  <course>124.66</course>
  <speed>0.02</speed>
  <fix>3d</fix>
</trkpt>
<trkpt lat="-27.2721933" lon="151.2900637">
  <ele>443.07</ele>
  <time>2026-09-01T19:59:24Z</time>
  <course>9.81</course>
  <speed>0.01</speed>
  <fix>3d</fix>
</trkpt>
<trkpt lat="-27.2721934" lon="151.2900638">
  <ele>443.14</ele>
  <time>2026-09-01T19:59:24Z</time>
  <course>121.4</course>
  <speed>0.03</speed>
  <fix>3d</fix>
</trkpt>
<trkpt lat="-27.2721933" lon="151.2900637">
  <ele>443.07</ele>
  <time>2026-09-01T19:59:24Z</time>
  <course>9.82</course>
  <speed>0.01</speed>
  <fix>3d</fix>
</trkpt>
<trkpt lat="-27.2721934" lon="151.2900638">
  <ele>443.14</ele>
  <time>2026-09-01T19:59:24Z</time>
  <course>121.4</course>
  <speed>0.03</speed>
  <fix>3d</fix>
</trkpt>
<trkpt lat="-27.2721933" lon="151.2900638">
  <ele>443.07</ele>
  <time>2026-09-01T19:59:24Z</time>
  <course>9.84</course>
  <speed>0.01</speed>
  <fix>3d</fix>
</trkpt>
<trkpt lat="-27.2721934" lon="151.2900639">
  <ele>443.13</ele>
  <time>2026-09-01T19:59:24Z</time>
  <course>119.85</course>
  <speed>0.03</speed>
  <fix>3d</fix>
</trkpt>
<trkpt lat="-27.2721933" lon="151.2900638">
  <ele>443.07</ele>
  <time>2026-09-01T19:59:24Z</time>
  <course>9.84</course>
  <speed>0.022360679774997897</speed>
  <fix>3d</fix>
</trkpt>
<trkpt lat="-27.2721934" lon="151.2900639">
  <ele>443.13</ele>
  <time>2026-09-01T19:59:24Z</time>
  <course>119.85</course>
  <speed>0.03</speed>
  <fix>3d</fix>
</trkpt>
<trkpt lat="-27.2721933" lon="151.2900638">
  <ele>443.07</ele>
  <time>2026-09-01T19:59:24Z</time>
  <course>9.8</course>
  <speed>0.05830951894845301</speed>
  <fix>3d</fix>
</trkpt>
<trkpt lat="-27.2721935" lon="151.2900639">
  <ele>443.13</ele>
  <time>2026-09-01T19:59:24Z</time>
  <course>81.12</course>
  <speed>0.04</speed>
  <fix>3d</fix>
</trkpt>
<trkpt lat="-27.2721933" lon="151.2900639">
  <ele>443.07</ele>
  <time>2026-09-01T19:59:24Z</time>
  <course>9.7</course>
  <speed>0.09486832980505139</speed>
  <fix>3d</fix>
</trkpt>
<trkpt lat="-27.2721935" lon="151.2900639">
  <ele>443.13</ele>
  <time>2026-09-01T19:59:24Z</time>
  <course>81.12</course>
  <speed>0.04</speed>
  <fix>3d</fix>
</trkpt>
<trkpt lat="-27.2721932" lon="151.2900639">
  <ele>443.08</ele>
  <time>2026-09-01T19:59:24Z</time>
  <course>9.57</course>
  <speed>0.10770329614269007</speed>
  <fix>3d</fix>
</trkpt>
<trkpt lat="-27.2721934" lon="151.290064">
  <ele>443.13</ele>
  <time>2026-09-01T19:59:24Z</time>
  <course>43.61</course>
  <speed>0.07</speed>
  <fix>3d</fix>
</trkpt>
<trkpt lat="-27.2721932" lon="151.290064">
  <ele>443.1</ele>
  <time>2026-09-01T19:59:24Z</time>
  <course>9.45</course>
  <speed>0.09486832980505139</speed>
  <fix>3d</fix>
</trkpt>
<trkpt lat="-27.2721934" lon="151.290064">
  <ele>443.13</ele>
  <time>2026-09-01T19:59:24Z</time>
  <course>43.61</course>
  <speed>0.07</speed>
  <fix>3d</fix>
</trkpt>
<trkpt lat="-27.2721931" lon="151.290064">
  <ele>443.13</ele>
  <time>2026-09-01T19:59:24Z</time>
  <course>9.35</course>
  <speed>0.0854400374531753</speed>
  <fix>3d</fix>
</trkpt>
<trkpt lat="-27.2721933" lon="151.2900641">
  <ele>443.16</ele>
  <time>2026-09-01T19:59:24Z</time>
  <course>38.81</course>
  <speed>0.08</speed>
  <fix>3d</fix>
</trkpt>
<trkpt lat="-27.272193" lon="151.2900641">
  <ele>443.18</ele>
  <time>2026-09-01T19:59:24Z</time>
  <course>9.29</course>
  <speed>0.07615773105863909</speed>
  <fix>3d</fix>
</trkpt>
<trkpt lat="-27.2721933" lon="151.2900641">
  <ele>443.16</ele>
  <time>2026-09-01T19:59:24Z</time>
  <course>38.81</course>
  <speed>0.08</speed>
  <fix>3d</fix>
</trkpt>
<trkpt lat="-27.272193" lon="151.2900641">
  <ele>443.26</ele>
  <time>2026-09-01T19:59:24Z</time>
  <course>9.29</course>
  <speed>0.0632455532033676</speed>
  <fix>3d</fix>
</trkpt>
<trkpt lat="-27.2721932" lon="151.2900642">
  <ele>443.25</ele>
  <time>2026-09-01T19:59:24Z</time>
  <course>44.43</course>
  <speed>0.07</speed>
  <fix>3d</fix>
</trkpt>
<trkpt lat="-27.272193" lon="151.2900642">
  <ele>443.36</ele>
  <time>2026-09-01T19:59:24Z</time>
  <course>9.35</course>
  <speed>0.0632455532033676</speed>
  <fix>3d</fix>
</trkpt>
<trkpt lat="-27.2721932" lon="151.2900642">
  <ele>443.25</ele>
  <time>2026-09-01T19:59:24Z</time>
  <course>44.43</course>
  <speed>0.07</speed>
  <fix>3d</fix>
</trkpt>
<trkpt lat="-27.2721929" lon="151.2900642">
  <ele>443.49</ele>
  <time>2026-09-01T19:59:24Z</time>
  <course>9.47</course>
  <speed>0.06082762530298219</speed>
  <fix>3d</fix>
</trkpt>
<trkpt lat="-27.2721932" lon="151.2900643">
  <ele>443.42</ele>
  <time>2026-09-01T19:59:24Z</time>
  <course>45.8</course>
  <speed>0.05</speed>
  <fix>3d</fix>
</trkpt>
<trkpt lat="-27.2721929" lon="151.2900642">
  <ele>443.65</ele>
  <time>2026-09-01T19:59:24Z</time>
  <course>9.63</course>
  <speed>0.07071067811865475</speed>
  <fix>3d</fix>
</trkpt>
<trkpt lat="-27.2721932" lon="151.2900643">
  <ele>443.42</ele>
  <time>2026-09-01T19:59:24Z</time>
  <course>45.8</course>
  <speed>0.05</speed>
  <fix>3d</fix>
</trkpt>
<trkpt lat="-27.2721928" lon="151.2900642">
  <ele>443.83</ele>
  <time>2026-09-01T19:59:24Z</time>
  <course>9.78</course>
  <speed>0.09055385138137417</speed>
  <fix>3d</fix>
</trkpt>
<trkpt lat="-27.2721931" lon="151.2900644">
  <ele>443.7</ele>
  <time>2026-09-01T19:59:24Z</time>
  <course>34.24</course>
  <speed>0.06</speed>
  <fix>3d</fix>
</trkpt>
<trkpt lat="-27.2721928" lon="151.2900643">
  <ele>444.03</ele>
  <time>2026-09-01T19:59:24Z</time>
  <course>9.88</course>
  <speed>0.11045361017187261</speed>
  <fix>3d</fix>
</trkpt>
<trkpt lat="-27.2721931" lon="151.2900644">
  <ele>443.7</ele>
  <time>2026-09-01T19:59:24Z</time>
  <course>34.24</course>
  <speed>0.06</speed>
  <fix>3d</fix>
</trkpt>
<trkpt lat="-27.2721927" lon="151.2900643">
  <ele>444.26</ele>
  <time>2026-09-01T19:59:24Z</time>
  <course>9.91</course>
  <speed>0.130384048104053</speed>
  <fix>3d</fix>
</trkpt>
<trkpt lat="-27.272193" lon="151.2900645">
  <ele>444.08</ele>
  <time>2026-09-01T19:59:24Z</time>
  <course>21.93</course>
  <speed>0.09</speed>
  <fix>3d</fix>
</trkpt>
<trkpt lat="-27.2721926" lon="151.2900643">
  <ele>444.5</ele>
  <time>2026-09-01T19:59:24Z</time>
  <course>9.89</course>
  <speed>0.15033296378372907</speed>
  <fix>3d</fix>
</trkpt>
<trkpt lat="-27.272193" lon="151.2900645">
  <ele>444.08</ele>
  <time>2026-09-01T19:59:24Z</time>
  <course>21.93</course>
  <speed>0.09</speed>
  <fix>3d</fix>
</trkpt>
<trkpt lat="-27.2721925" lon="151.2900644">
  <ele>444.75</ele>
  <time>2026-09-01T19:59:24Z</time>
  <course>9.82</course>
  <speed>0.18110770276274835</speed>
  <fix>3d</fix>
</trkpt>
<trkpt lat="-27.2721928" lon="151.2900645">
  <ele>444.53</ele>
  <time>2026-09-01T19:59:24Z</time>
  <course>16.61</course>
  <speed>0.13</speed>
  <fix>3d</fix>
</trkpt>
<trkpt lat="-27.2721923" lon="151.2900644">
  <ele>445.01</ele>
  <time>2026-09-01T19:59:24Z</time>
  <course>9.73</course>
  <speed>0.2009975124224178</speed>
  <fix>3d</fix>
</trkpt>
<trkpt lat="-27.2721928" lon="151.2900645">
  <ele>444.53</ele>
  <time>2026-09-01T19:59:24Z</time>
  <course>16.61</course>
  <speed>0.13</speed>
  <fix>3d</fix>
</trkpt>
<trkpt lat="-27.2721921" lon="151.2900645">
  <ele>445.27</ele>
  <time>2026-09-01T19:59:24Z</time>
  <course>9.65</course>
  <speed>0.23194827009486402</speed>
  <fix>3d</fix>
</trkpt>
<trkpt lat="-27.2721925" lon="151.2900646">
  <ele>445.03</ele>
  <time>2026-09-01T19:59:24Z</time>
  <course>14.45</course>
  <speed>0.18</speed>
  <fix>3d</fix>
</trkpt>
<trkpt lat="-27.272192" lon="151.2900645">
  <ele>445.54</ele>
  <time>2026-09-01T19:59:24Z</time>
  <course>9.58</course>
  <speed>0.25179356624028343</speed>
  <fix>3d</fix>
</trkpt>
<trkpt lat="-27.2721925" lon="151.2900646">
  <ele>445.03</ele>
  <time>2026-09-01T19:59:24Z</time>
  <course>14.45</course>
  <speed>0.18</speed>
  <fix>3d</fix>
</trkpt>
<trkpt lat="-27.2721917" lon="151.2900646">
  <ele>445.82</ele>
  <time>2026-09-01T19:59:24Z</time>
  <course>9.53</course>
  <speed>0.261725046566048</speed>
  <fix>3d</fix>
</trkpt>
<trkpt lat="-27.2721922" lon="151.2900647">
  <ele>445.56</ele>
  <time>2026-09-01T19:59:24Z</time>
  <course>13.38</course>
  <speed>0.22</speed>
  <fix>3d</fix>
</trkpt>
<trkpt lat="-27.2721915" lon="151.2900646">
  <ele>446.09</ele>
  <time>2026-09-01T19:59:24Z</time>
  <course>9.5</course>
  <speed>0.2816025568065745</speed>
  <fix>3d</fix>
</trkpt>
<trkpt lat="-27.2721922" lon="151.2900647">
  <ele>445.56</ele>
  <time>2026-09-01T19:59:24Z</time>
  <course>13.38</course>
  <speed>0.22</speed>
  <fix>3d</fix>
</trkpt>
<trkpt lat="-27.2721913" lon="151.2900647">
  <ele>446.36</ele>
  <time>2026-09-01T19:59:25Z</time>
  <course>9.49</course>
  <speed>0.29274562336608895</speed>
  <fix>3d</fix>
</trkpt>
<trkpt lat="-27.2721917" lon="151.2900648">
  <ele>446.09</ele>
  <time>2026-09-01T19:59:25Z</time>
  <course>12.77</course>
  <speed>0.26</speed>
  <fix>3d</fix>
</trkpt>
<trkpt lat="-27.2721911" lon="151.2900647">
  <ele>446.63</ele>
  <time>2026-09-01T19:59:25Z</time>
  <course>9.49</course>
  <speed>0.29274562336608895</speed>
  <fix>3d</fix>
</trkpt>
<trkpt lat="-27.2721917" lon="151.2900648">
  <ele>446.09</ele>
  <time>2026-09-01T19:59:25Z</time>
  <course>12.77</course>
  <speed>0.26</speed>
  <fix>3d</fix>
</trkpt>
<trkpt lat="-27.2721908" lon="151.2900648">
  <ele>446.89</ele>
  <time>2026-09-01T19:59:25Z</time>
  <course>9.5</course>
  <speed>0.3026549190084311</speed>
  <fix>3d</fix>
</trkpt>
<trkpt lat="-27.2721912" lon="151.290065">
  <ele>446.63</ele>
  <time>2026-09-01T19:59:25Z</time>
  <course>12.42</course>
  <speed>0.27</speed>
  <fix>3d</fix>
</trkpt>
<trkpt lat="-27.2721906" lon="151.2900649">
  <ele>447.16</ele>
  <time>2026-09-01T19:59:25Z</time>
  <course>9.51</course>
  <speed>0.29274562336608895</speed>
  <fix>3d</fix>
</trkpt>
<trkpt lat="-27.2721912" lon="151.290065">
  <ele>446.63</ele>
  <time>2026-09-01T19:59:25Z</time>
  <course>12.42</course>
  <speed>0.27</speed>
  <fix>3d</fix>
</trkpt>
<trkpt lat="-27.2721903" lon="151.2900649">
  <ele>447.41</ele>
  <time>2026-09-01T19:59:25Z</time>
  <course>9.52</course>
  <speed>0.29274562336608895</speed>
  <fix>3d</fix>
</trkpt>
<trkpt lat="-27.2721907" lon="151.2900651">
  <ele>447.15</ele>
  <time>2026-09-01T19:59:25Z</time>
  <course>12.22</course>
  <speed>0.28</speed>
  <fix>3d</fix>
</trkpt>
<trkpt lat="-27.2721901" lon="151.290065">
  <ele>447.67</ele>
  <time>2026-09-01T19:59:25Z</time>
  <course>9.53</course>
  <speed>0.2816025568065745</speed>
  <fix>3d</fix>
</trkpt>
<trkpt lat="-27.2721907" lon="151.2900651">
  <ele>447.15</ele>
  <time>2026-09-01T19:59:25Z</time>
  <course>12.22</course>
  <speed>0.28</speed>
  <fix>3d</fix>
</trkpt>
<trkpt lat="-27.2721899" lon="151.290065">
  <ele>447.92</ele>
  <time>2026-09-01T19:59:25Z</time>
  <course>9.53</course>
  <speed>0.27166155414412246</speed>
  <fix>3d</fix>
</trkpt>
<trkpt lat="-27.2721902" lon="151.2900652">
  <ele>447.66</ele>
  <time>2026-09-01T19:59:25Z</time>
  <course>12.11</course>
  <speed>0.27</speed>
  <fix>3d</fix>
</trkpt>
<trkpt lat="-27.2721896" lon="151.2900651">
  <ele>448.17</ele>
  <time>2026-09-01T19:59:25Z</time>
  <course>9.54</course>
  <speed>0.261725046566048</speed>
  <fix>3d</fix>
</trkpt>
<trkpt lat="-27.2721902" lon="151.2900652">
  <ele>447.66</ele>
  <time>2026-09-01T19:59:25Z</time>
  <course>12.11</course>
  <speed>0.27</speed>
  <fix>3d</fix>
</trkpt>
<trkpt lat="-27.2721894" lon="151.2900651">
  <ele>448.41</ele>
  <time>2026-09-01T19:59:25Z</time>
  <course>9.53</course>
  <speed>0.25179356624028343</speed>
  <fix>3d</fix>
</trkpt>
<trkpt lat="-27.2721898" lon="151.2900653">
  <ele>448.16</ele>
  <time>2026-09-01T19:59:25Z</time>
  <course>12.04</course>
  <speed>0.24</speed>
  <fix>3d</fix>
</trkpt>
<trkpt lat="-27.2721892" lon="151.2900652">
  <ele>448.65</ele>
  <time>2026-09-01T19:59:25Z</time>
  <course>9.53</course>
  <speed>0.2308679276123039</speed>
  <fix>3d</fix>
</trkpt>
<trkpt lat="-27.2721898" lon="151.2900653">
  <ele>448.16</ele>
  <time>2026-09-01T19:59:25Z</time>
  <course>12.04</course>
  <speed>0.24</speed>
  <fix>3d</fix>
</trkpt>
<trkpt lat="-27.272189" lon="151.2900652">
  <ele>448.9</ele>
  <time>2026-09-01T19:59:25Z</time>
  <course>9.53</course>
  <speed>0.2109502310972899</speed>
  <fix>3d</fix>
</trkpt>
<trkpt lat="-27.2721894" lon="151.2900654">
  <ele>448.65</ele>
  <time>2026-09-01T19:59:25Z</time>
  <course>11.94</course>
  <speed>0.21</speed>
  <fix>3d</fix>
</trkpt>
<trkpt lat="-27.2721889" lon="151.2900653">
  <ele>449.14</ele>
  <time>2026-09-01T19:59:25Z</time>
  <course>9.52</course>
  <speed>0.191049731745428</speed>
  <fix>3d</fix>
</trkpt>
<trkpt lat="-27.2721894" lon="151.2900654">
  <ele>448.65</ele>
  <time>2026-09-01T19:59:25Z</time>
  <course>11.94</course>
  <speed>0.21</speed>
  <fix>3d</fix>
</trkpt>
<trkpt lat="-27.2721887" lon="151.2900653">
  <ele>449.38</ele>
  <time>2026-09-01T19:59:25Z</time>
  <course>9.52</course>
  <speed>0.18027756377319945</speed>
  <fix>3d</fix>
</trkpt>
<trkpt lat="-27.272189" lon="151.2900655">
  <ele>449.13</ele>
  <time>2026-09-01T19:59:25Z</time>
  <course>11.88</course>
  <speed>0.18</speed>
  <fix>3d</fix>
</trkpt>
<trkpt lat="-27.2721886" lon="151.2900654">
  <ele>449.62</ele>
  <time>2026-09-01T19:59:25Z</time>
  <course>9.52</course>
  <speed>0.16031219541881397</speed>
  <fix>3d</fix>
</trkpt>
<trkpt lat="-27.272189" lon="151.2900655">
  <ele>449.13</ele>
  <time>2026-09-01T19:59:25Z</time>
  <course>11.88</course>
  <speed>0.18</speed>
  <fix>3d</fix>
</trkpt>
<trkpt lat="-27.2721885" lon="151.2900654">
  <ele>449.86</ele>
  <time>2026-09-01T19:59:25Z</time>
  <course>9.52</course>
  <speed>0.140356688476182</speed>
  <fix>3d</fix>
</trkpt>
<trkpt lat="-27.2721887" lon="151.2900656">
  <ele>449.6</ele>
  <time>2026-09-01T19:59:25Z</time>
  <course>11.98</course>
  <speed>0.14</speed>
  <fix>3d</fix>
</trkpt>
<trkpt lat="-27.2721884" lon="151.2900654">
  <ele>450.09</ele>
  <time>2026-09-01T19:59:25Z</time>
  <course>9.52</course>
  <speed>0.12</speed>
  <fix>3d</fix>
</trkpt>
<trkpt lat="-27.2721887" lon="151.2900656">
  <ele>449.6</ele>
  <time>2026-09-01T19:59:25Z</time>
  <course>11.98</course>
  <speed>0.14</speed>
  <fix>3d</fix>
</trkpt>
<trkpt lat="-27.2721883" lon="151.2900654">
  <ele>450.33</ele>
  <time>2026-09-01T19:59:25Z</time>
  <course>9.52</course>
  <speed>0.1</speed>
  <fix>3d</fix>
</trkpt>
<trkpt lat="-27.2721885" lon="151.2900656">
  <ele>450.08</ele>
  <time>2026-09-01T19:59:25Z</time>
  <course>12.17</course>
  <speed>0.1</speed>
  <fix>3d</fix>
</trkpt>
<trkpt lat="-27.2721882" lon="151.2900655">
  <ele>450.57</ele>
  <time>2026-09-01T19:59:25Z</time>
  <course>9.52</course>
  <speed>0.08</speed>
  <fix>3d</fix>
</trkpt>
<trkpt lat="-27.2721885" lon="151.2900656">
  <ele>450.08</ele>
  <time>2026-09-01T19:59:25Z</time>
  <course>12.17</course>
  <speed>0.1</speed>
  <fix>3d</fix>
</trkpt>
<trkpt lat="-27.2721882" lon="151.2900655">
  <ele>450.82</ele>
  <time>2026-09-01T19:59:25Z</time>
  <course>9.52</course>
  <speed>0.06</speed>
  <fix>3d</fix>
</trkpt>
<trkpt lat="-27.2721884" lon="151.2900656">
  <ele>450.56</ele>
  <time>2026-09-01T19:59:25Z</time>
  <course>12.46</course>
  <speed>0.06</speed>
  <fix>3d</fix>
</trkpt>
<trkpt lat="-27.2721882" lon="151.2900655">
  <ele>451.06</ele>
  <time>2026-09-01T19:59:25Z</time>
  <course>9.52</course>
  <speed>0.05</speed>
  <fix>3d</fix>
</trkpt>
<trkpt lat="-27.2721884" lon="151.2900656">
  <ele>450.56</ele>
  <time>2026-09-01T19:59:25Z</time>
  <course>12.46</course>
  <speed>0.06</speed>
  <fix>3d</fix>
</trkpt>
<trkpt lat="-27.2721881" lon="151.2900655">
  <ele>451.31</ele>
  <time>2026-09-01T19:59:25Z</time>
  <course>9.53</course>
  <speed>0.03</speed>
  <fix>3d</fix>
</trkpt>
<trkpt lat="-27.2721883" lon="151.2900656">
  <ele>451.04</ele>
  <time>2026-09-01T19:59:25Z</time>
  <course>13.47</course>
  <speed>0.03</speed>
  <fix>3d</fix>
</trkpt>
<trkpt lat="-27.2721881" lon="151.2900655">
  <ele>451.56</ele>
  <time>2026-09-01T19:59:25Z</time>
  <course>9.53</course>
  <speed>0.022360679774997897</speed>
  <fix>3d</fix>
</trkpt>
<trkpt lat="-27.2721883" lon="151.2900656">
  <ele>451.04</ele>
  <time>2026-09-01T19:59:25Z</time>
  <course>13.47</course>
  <speed>0.03</speed>
  <fix>3d</fix>
</trkpt>
<trkpt lat="-27.2721881" lon="151.2900655">
  <ele>451.81</ele>
  <time>2026-09-01T19:59:25Z</time>
  <course>9.53</course>
  <speed>0.01</speed>
  <fix>3d</fix>
</trkpt>
<trkpt lat="-27.2721883" lon="151.2900656">
  <ele>451.53</ele>
  <time>2026-09-01T19:59:25Z</time>
  <course>38.17</course>
  <speed>0.0</speed>
  <fix>3d</fix>
</trkpt>
<trkpt lat="-27.2721882" lon="151.2900655">
  <ele>452.05</ele>
  <time>2026-09-01T19:59:25Z</time>
  <course>9.52</course>
  <speed>0.01</speed>
  <fix>3d</fix>
</trkpt>
<trkpt lat="-27.2721883" lon="151.2900656">
  <ele>451.53</ele>
  <time>2026-09-01T19:59:25Z</time>
  <course>38.17</course>
  <speed>0.0</speed>
  <fix>3d</fix>
</trkpt>
<trkpt lat="-27.2721882" lon="151.2900655">
  <ele>452.3</ele>
  <time>2026-09-01T19:59:25Z</time>
  <course>9.52</course>
  <speed>0.022360679774997897</speed>
  <fix>3d</fix>
</trkpt>
<trkpt lat="-27.2721883" lon="151.2900656">
  <ele>452.02</ele>
  <time>2026-09-01T19:59:25Z</time>
  <course>189.33</course>
  <speed>0.02</speed>
  <fix>3d</fix>
</trkpt>
<trkpt lat="-27.2721882" lon="151.2900655">
  <ele>452.55</ele>
  <time>2026-09-01T19:59:25Z</time>
  <course>9.51</course>
  <speed>0.0282842712474619</speed>
  <fix>3d</fix>
</trkpt>
<trkpt lat="-27.2721883" lon="151.2900656">
  <ele>452.02</ele>
  <time>2026-09-01T19:59:25Z</time>
  <course>189.33</course>
  <speed>0.02</speed>
  <fix>3d</fix>
</trkpt>
<trkpt lat="-27.2721882" lon="151.2900655">
  <ele>452.8</ele>
  <time>2026-09-01T19:59:25Z</time>
  <course>9.51</course>
  <speed>0.03605551275463989</speed>
  <fix>3d</fix>
</trkpt>
<trkpt lat="-27.2721883" lon="151.2900656">
  <ele>452.52</ele>
  <time>2026-09-01T19:59:25Z</time>
  <course>189.42</course>
  <speed>0.04</speed>
  <fix>3d</fix>
</trkpt>
<trkpt lat="-27.2721882" lon="151.2900655">
  <ele>453.05</ele>
  <time>2026-09-01T19:59:25Z</time>
  <course>9.5</course>
  <speed>0.044721359549995794</speed>
  <fix>3d</fix>
</trkpt>
<trkpt lat="-27.2721883" lon="151.2900656">
  <ele>452.52</ele>
  <time>2026-09-01T19:59:25Z</time>
  <course>189.42</course>
  <speed>0.04</speed>
  <fix>3d</fix>
</trkpt>
<trkpt lat="-27.2721883" lon="151.2900655">
  <ele>453.3</ele>
  <time>2026-09-01T19:59:25Z</time>
  <course>9.49</course>
  <speed>0.053851648071345036</speed>
  <fix>3d</fix>
</trkpt>
<trkpt lat="-27.2721883" lon="151.2900656">
  <ele>453.02</ele>
  <time>2026-09-01T19:59:25Z</time>
  <course>188.98</course>
  <speed>0.06</speed>
  <fix>3d</fix>
</trkpt>
<trkpt lat="-27.2721883" lon="151.2900655">
  <ele>453.54</ele>
  <time>2026-09-01T19:59:25Z</time>
  <course>9.5</course>
  <speed>0.0632455532033676</speed>
  <fix>3d</fix>
</trkpt>
<trkpt lat="-27.2721883" lon="151.2900656">
  <ele>453.02</ele>
  <time>2026-09-01T19:59:25Z</time>
  <course>188.98</course>
  <speed>0.06</speed>
  <fix>3d</fix>
</trkpt>
<trkpt lat="-27.2721884" lon="151.2900655">
  <ele>453.79</ele>
  <time>2026-09-01T19:59:25Z</time>
  <course>9.52</course>
  <speed>0.0670820393249937</speed>
  <fix>3d</fix>
</trkpt>
<trkpt lat="-27.2721885" lon="151.2900656">
  <ele>453.51</ele>
  <time>2026-09-01T19:59:25Z</time>
  <course>189.39</course>
  <speed>0.08</speed>
  <fix>3d</fix>
</trkpt>
<trkpt lat="-27.2721885" lon="151.2900655">
  <ele>454.04</ele>
  <time>2026-09-01T19:59:25Z</time>
  <course>9.54</course>
  <speed>0.07615773105863909</speed>
  <fix>3d</fix>
</trkpt>
<trkpt lat="-27.2721885" lon="151.2900656">
  <ele>453.51</ele>
  <time>2026-09-01T19:59:25Z</time>
  <course>189.39</course>
  <speed>0.08</speed>
  <fix>3d</fix>
</trkpt>
<trkpt lat="-27.2721886" lon="151.2900655">
  <ele>454.29</ele>
  <time>2026-09-01T19:59:25Z</time>
  <course>9.56</course>
  <speed>0.0854400374531753</speed>
  <fix>3d</fix>
</trkpt>
<trkpt lat="-27.2721887" lon="151.2900656">
  <ele>454.01</ele>
  <time>2026-09-01T19:59:25Z</time>
  <course>190.15</course>
  <speed>0.1</speed>
  <fix>3d</fix>
</trkpt>
<trkpt lat="-27.2721887" lon="151.2900654">
  <ele>454.54</ele>
  <time>2026-09-01T19:59:25Z</time>
  <course>9.57</course>
  <speed>0.0854400374531753</speed>
  <fix>3d</fix>
</trkpt>
<trkpt lat="-27.2721887" lon="151.2900656">
  <ele>454.01</ele>
  <time>2026-09-01T19:59:25Z</time>
  <course>190.15</course>
  <speed>0.1</speed>
  <fix>3d</fix>
</trkpt>
<trkpt lat="-27.2721888" lon="151.2900654">
  <ele>454.79</ele>
  <time>2026-09-01T19:59:25Z</time>
  <course>9.57</course>
  <speed>0.09486832980505139</speed>
  <fix>3d</fix>
</trkpt>
<trkpt lat="-27.2721888" lon="151.2900656">
  <ele>454.51</ele>
  <time>2026-09-01T19:59:25Z</time>
  <course>190.77</course>
  <speed>0.11</speed>
  <fix>3d</fix>
</trkpt>
<trkpt lat="-27.2721889" lon="151.2900654">
  <ele>455.04</ele>
  <time>2026-09-01T19:59:25Z</time>
  <course>9.55</course>
  <speed>0.09486832980505139</speed>
  <fix>3d</fix>
</trkpt>
<trkpt lat="-27.2721888" lon="151.2900656">
  <ele>454.51</ele>
  <time>2026-09-01T19:59:25Z</time>
  <course>190.77</course>
  <speed>0.11</speed>
  <fix>3d</fix>
</trkpt>
<trkpt lat="-27.272189" lon="151.2900654">
  <ele>455.29</ele>
  <time>2026-09-01T19:59:25Z</time>
  <course>9.52</course>
  <speed>0.09486832980505139</speed>
  <fix>3d</fix>
</trkpt>
<trkpt lat="-27.2721891" lon="151.2900656">
  <ele>455.01</ele>
  <time>2026-09-01T19:59:25Z</time>
  <course>190.78</course>
  <speed>0.12</speed>
  <fix>3d</fix>
</trkpt>
<trkpt lat="-27.2721891" lon="151.2900654">
  <ele>455.54</ele>
  <time>2026-09-01T19:59:25Z</time>
  <course>9.49</course>
  <speed>0.1044030650891055</speed>
  <fix>3d</fix>
</trkpt>
<trkpt lat="-27.2721891" lon="151.2900656">
  <ele>455.01</ele>
  <time>2026-09-01T19:59:25Z</time>
  <course>190.78</course>
  <speed>0.12</speed>
  <fix>3d</fix>
</trkpt>
<trkpt lat="-27.2721892" lon="151.2900653">
  <ele>455.79</ele>
  <time>2026-09-01T19:59:25Z</time>
  <course>9.48</course>
  <speed>0.1044030650891055</speed>
  <fix>3d</fix>
</trkpt>
<trkpt lat="-27.2721893" lon="151.2900656">
  <ele>455.51</ele>
  <time>2026-09-01T19:59:25Z</time>
  <course>190.58</course>
  <speed>0.13</speed>
  <fix>3d</fix>
</trkpt>
<trkpt lat="-27.2721893" lon="151.2900653">
  <ele>456.05</ele>
  <time>2026-09-01T19:59:25Z</time>
  <course>9.49</course>
  <speed>0.1044030650891055</speed>
  <fix>3d</fix>
</trkpt>
<trkpt lat="-27.2721893" lon="151.2900656">
  <ele>455.51</ele>
  <time>2026-09-01T19:59:25Z</time>
  <course>190.58</course>
  <speed>0.13</speed>
  <fix>3d</fix>
</trkpt>
<trkpt lat="-27.2721894" lon="151.2900653">
  <ele>456.3</ele>
  <time>2026-09-01T19:59:25Z</time>
  <course>9.5</course>
  <speed>0.11401754250991379</speed>
  <fix>3d</fix>
</trkpt>
<trkpt lat="-27.2721895" lon="151.2900655">
  <ele>456.01</ele>
  <time>2026-09-01T19:59:25Z</time>
  <course>190.85</course>
  <speed>0.13</speed>
  <fix>3d</fix>
</trkpt>
<trkpt lat="-27.2721895" lon="151.2900653">
  <ele>456.55</ele>
  <time>2026-09-01T19:59:25Z</time>
  <course>9.5</course>
  <speed>0.11401754250991379</speed>
  <fix>3d</fix>
</trkpt>
<trkpt lat="-27.2721895" lon="151.2900655">
  <ele>456.01</ele>
  <time>2026-09-01T19:59:25Z</time>
  <course>190.85</course>
  <speed>0.13</speed>
  <fix>3d</fix>
</trkpt>
<trkpt lat="-27.2721897" lon="151.2900653">
  <ele>456.81</ele>
  <time>2026-09-01T19:59:25Z</time>
  <course>9.49</course>
  <speed>0.11401754250991379</speed>
  <fix>3d</fix>
</trkpt>
<trkpt lat="-27.2721898" lon="151.2900655">
  <ele>456.51</ele>
  <time>2026-09-01T19:59:25Z</time>
  <course>190.62</course>
  <speed>0.14</speed>
  <fix>3d</fix>
</trkpt>
<trkpt lat="-27.2721898" lon="151.2900653">
  <ele>457.06</ele>
  <time>2026-09-01T19:59:25Z</time>
  <course>9.48</course>
  <speed>0.11401754250991379</speed>
  <fix>3d</fix>
</trkpt>
<trkpt lat="-27.2721898" lon="151.2900655">
  <ele>456.51</ele>
  <time>2026-09-01T19:59:25Z</time>
  <course>190.62</course>
  <speed>0.14</speed>
  <fix>3d</fix>
</trkpt>
<trkpt lat="-27.2721899" lon="151.2900652">
  <ele>457.31</ele>
  <time>2026-09-01T19:59:25Z</time>
  <course>9.48</course>
  <speed>0.11401754250991379</speed>
  <fix>3d</fix>
</trkpt>
<trkpt lat="-27.27219" lon="151.2900654">
  <ele>457.01</ele>
  <time>2026-09-01T19:59:25Z</time>
  <course>190.39</course>
  <speed>0.14</speed>
  <fix>3d</fix>
</trkpt>
<trkpt lat="-27.27219" lon="151.2900652">
  <ele>457.56</ele>
  <time>2026-09-01T19:59:25Z</time>
  <course>9.49</course>
  <speed>0.11401754250991379</speed>
  <fix>3d</fix>
</trkpt>
<trkpt lat="-27.27219" lon="151.2900654">
  <ele>457.01</ele>
  <time>2026-09-01T19:59:25Z</time>
  <course>190.39</course>
  <speed>0.14</speed>
  <fix>3d</fix>
</trkpt>
<trkpt lat="-27.2721902" lon="151.2900652">
  <ele>457.81</ele>
  <time>2026-09-01T19:59:25Z</time>
  <course>9.49</course>
  <speed>0.11401754250991379</speed>
  <fix>3d</fix>
</trkpt>
<trkpt lat="-27.2721903" lon="151.2900654">
  <ele>457.51</ele>
  <time>2026-09-01T19:59:25Z</time>
  <course>190.54</course>
  <speed>0.14</speed>
  <fix>3d</fix>
</trkpt>
<trkpt lat="-27.2721903" lon="151.2900652">
  <ele>458.06</ele>
  <time>2026-09-01T19:59:25Z</time>
  <course>9.49</course>
  <speed>0.11401754250991379</speed>
  <fix>3d</fix>
</trkpt>
<trkpt lat="-27.2721903" lon="151.2900654">
  <ele>457.51</ele>
  <time>2026-09-01T19:59:25Z</time>
  <course>190.54</course>
  <speed>0.14</speed>
  <fix>3d</fix>
</trkpt>
<trkpt lat="-27.2721904" lon="151.2900652">
  <ele>458.31</ele>
  <time>2026-09-01T19:59:25Z</time>
  <course>9.5</course>
  <speed>0.11401754250991379</speed>
  <fix>3d</fix>
</trkpt>
<trkpt lat="-27.2721905" lon="151.2900653">
  <ele>458.01</ele>
  <time>2026-09-01T19:59:25Z</time>
  <course>190.48</course>
  <speed>0.14</speed>
  <fix>3d</fix>
</trkpt>
<trkpt lat="-27.2721905" lon="151.2900652">
  <ele>458.56</ele>
  <time>2026-09-01T19:59:25Z</time>
  <course>9.51</course>
  <speed>0.11401754250991379</speed>
  <fix>3d</fix>
</trkpt>
<trkpt lat="-27.2721905" lon="151.2900653">
  <ele>458.01</ele>
  <time>2026-09-01T19:59:25Z</time>
  <course>190.48</course>
  <speed>0.14</speed>
  <fix>3d</fix>
</trkpt>
<trkpt lat="-27.2721907" lon="151.2900651">
  <ele>458.81</ele>
  <time>2026-09-01T19:59:25Z</time>
  <course>9.52</course>
  <speed>0.11401754250991379</speed>
  <fix>3d</fix>
</trkpt>
<trkpt lat="-27.2721908" lon="151.2900652">
  <ele>458.51</ele>
  <time>2026-09-01T19:59:25Z</time>
  <course>190.5</course>
  <speed>0.14</speed>
  <fix>3d</fix>
</trkpt>
<trkpt lat="-27.2721908" lon="151.2900651">
  <ele>459.06</ele>
  <time>2026-09-01T19:59:25Z</time>
  <course>9.53</course>
  <speed>0.11401754250991379</speed>
  <fix>3d</fix>
</trkpt>
<trkpt lat="-27.2721908" lon="151.2900652">
  <ele>458.51</ele>
  <time>2026-09-01T19:59:25Z</time>
  <course>190.5</course>
  <speed>0.14</speed>
  <fix>3d</fix>
</trkpt>
<trkpt lat="-27.2721909" lon="151.2900651">
  <ele>459.31</ele>
  <time>2026-09-01T19:59:25Z</time>
  <course>9.55</course>
  <speed>0.11401754250991379</speed>
  <fix>3d</fix>
</trkpt>
<trkpt lat="-27.2721911" lon="151.2900651">
  <ele>459.01</ele>
  <time>2026-09-01T19:59:25Z</time>
  <course>190.7</course>
  <speed>0.14</speed>
  <fix>3d</fix>
</trkpt>
<trkpt lat="-27.272191" lon="151.2900651">
  <ele>459.56</ele>
  <time>2026-09-01T19:59:25Z</time>
  <course>9.56</course>
  <speed>0.11401754250991379</speed>
  <fix>3d</fix>
</trkpt>
<trkpt lat="-27.2721911" lon="151.2900651">
  <ele>459.01</ele>
  <time>2026-09-01T19:59:25Z</time>
  <course>190.7</course>
  <speed>0.14</speed>
  <fix>3d</fix>
</trkpt>
<trkpt lat="-27.2721912" lon="151.290065">
  <ele>459.81</ele>
  <time>2026-09-01T19:59:25Z</time>
  <course>9.56</course>
  <speed>0.11401754250991379</speed>
  <fix>3d</fix>
</trkpt>
<trkpt lat="-27.2721913" lon="151.2900651">
  <ele>459.51</ele>
  <time>2026-09-01T19:59:25Z</time>
  <course>191.0</course>
  <speed>0.14</speed>
  <fix>3d</fix>
</trkpt>
<trkpt lat="-27.2721913" lon="151.290065">
  <ele>460.06</ele>
  <time>2026-09-01T19:59:25Z</time>
  <course>9.56</course>
  <speed>0.1044030650891055</speed>
  <fix>3d</fix>
</trkpt>
<trkpt lat="-27.2721913" lon="151.2900651">
  <ele>459.51</ele>
  <time>2026-09-01T19:59:25Z</time>
  <course>191.0</course>
  <speed>0.14</speed>
  <fix>3d</fix>
</trkpt>
<trkpt lat="-27.2721914" lon="151.290065">
  <ele>460.3</ele>
  <time>2026-09-01T19:59:25Z</time>
  <course>9.55</course>
  <speed>0.1044030650891055</speed>
  <fix>3d</fix>
</trkpt>
<trkpt lat="-27.2721916" lon="151.2900651">
  <ele>460.0</ele>
  <time>2026-09-01T19:59:25Z</time>
  <course>191.34</course>
  <speed>0.13</speed>
  <fix>3d</fix>
</trkpt>
<trkpt lat="-27.2721915" lon="151.290065">
  <ele>460.55</ele>
  <time>2026-09-01T19:59:25Z</time>
  <course>9.55</course>
  <speed>0.1044030650891055</speed>
  <fix>3d</fix>
</trkpt>
<trkpt lat="-27.2721916" lon="151.2900651">
  <ele>460.0</ele>
  <time>2026-09-01T19:59:25Z</time>
  <course>191.34</course>
  <speed>0.13</speed>
  <fix>3d</fix>
</trkpt>
<trkpt lat="-27.2721916" lon="151.2900649">
  <ele>460.8</ele>
  <time>2026-09-01T19:59:25Z</time>
  <course>9.52</course>
  <speed>0.1044030650891055</speed>
  <fix>3d</fix>
</trkpt>
<trkpt lat="-27.2721918" lon="151.290065">
  <ele>460.5</ele>
  <time>2026-09-01T19:59:25Z</time>
  <course>191.52</course>
  <speed>0.13</speed>
  <fix>3d</fix>
</trkpt>
<trkpt lat="-27.2721918" lon="151.2900649">
  <ele>461.05</ele>
  <time>2026-09-01T19:59:25Z</time>
  <course>9.49</course>
  <speed>0.09486832980505139</speed>
  <fix>3d</fix>
</trkpt>
<trkpt lat="-27.2721918" lon="151.290065">
  <ele>460.5</ele>
  <time>2026-09-01T19:59:25Z</time>
  <course>191.52</course>
  <speed>0.13</speed>
  <fix>3d</fix>
</trkpt>
<trkpt lat="-27.2721919" lon="151.2900649">
  <ele>461.3</ele>
  <time>2026-09-01T19:59:25Z</time>
  <course>9.46</course>
  <speed>0.09486832980505139</speed>
  <fix>3d</fix>
</trkpt>
<trkpt lat="-27.272192" lon="151.290065">
  <ele>461.0</ele>
  <time>2026-09-01T19:59:25Z</time>
  <course>191.6</course>
  <speed>0.12</speed>
  <fix>3d</fix>
</trkpt>
<trkpt lat="-27.272192" lon="151.2900649">
  <ele>461.55</ele>
  <time>2026-09-01T19:59:25Z</time>
  <course>9.45</course>
  <speed>0.09486832980505139</speed>
  <fix>3d</fix>
</trkpt>
<trkpt lat="-27.272192" lon="151.290065">
  <ele>461.0</ele>
  <time>2026-09-01T19:59:25Z</time>
  <course>191.6</course>
  <speed>0.12</speed>
  <fix>3d</fix>
</trkpt>
<trkpt lat="-27.2721921" lon="151.2900648">
  <ele>461.8</ele>
  <time>2026-09-01T19:59:25Z</time>
  <course>9.45</course>
  <speed>0.0854400374531753</speed>
  <fix>3d</fix>
</trkpt>
<trkpt lat="-27.2721923" lon="151.2900649">
  <ele>461.5</ele>
  <time>2026-09-01T19:59:25Z</time>
  <course>191.91</course>
  <speed>0.12</speed>
  <fix>3d</fix>
</trkpt>
<trkpt lat="-27.2721922" lon="151.2900648">
  <ele>462.05</ele>
  <time>2026-09-01T19:59:25Z</time>
  <course>9.45</course>
  <speed>0.0854400374531753</speed>
  <fix>3d</fix>
</trkpt>
<trkpt lat="-27.2721923" lon="151.2900649">
  <ele>461.5</ele>
  <time>2026-09-01T19:59:25Z</time>
  <course>191.91</course>
  <speed>0.12</speed>
  <fix>3d</fix>
</trkpt>
<trkpt lat="-27.2721923" lon="151.2900648">
  <ele>462.3</ele>
  <time>2026-09-01T19:59:25Z</time>
  <course>9.45</course>
  <speed>0.07615773105863909</speed>
  <fix>3d</fix>
</trkpt>
<trkpt lat="-27.2721925" lon="151.2900649">
  <ele>462.0</ele>
  <time>2026-09-01T19:59:25Z</time>
  <course>192.38</course>
  <speed>0.11</speed>
  <fix>3d</fix>
</trkpt>
<trkpt lat="-27.2721924" lon="151.2900648">
  <ele>462.55</ele>
  <time>2026-09-01T19:59:25Z</time>
  <course>9.46</course>
  <speed>0.07615773105863909</speed>
  <fix>3d</fix>
</trkpt>
<trkpt lat="-27.2721925" lon="151.2900649">
  <ele>462.0</ele>
  <time>2026-09-01T19:59:25Z</time>
  <course>192.38</course>
  <speed>0.11</speed>
  <fix>3d</fix>
</trkpt>
<trkpt lat="-27.2721925" lon="151.2900647">
  <ele>462.8</ele>
  <time>2026-09-01T19:59:25Z</time>
  <course>9.47</course>
  <speed>0.07615773105863909</speed>
  <fix>3d</fix>
</trkpt>
<trkpt lat="-27.2721927" lon="151.2900648">
  <ele>462.5</ele>
  <time>2026-09-01T19:59:25Z</time>
  <course>193.04</course>
  <speed>0.1</speed>
  <fix>3d</fix>
</trkpt>
<trkpt lat="-27.2721926" lon="151.2900647">
  <ele>463.05</ele>
  <time>2026-09-01T19:59:25Z</time>
  <course>9.48</course>
  <speed>0.0670820393249937</speed>
  <fix>3d</fix>
</trkpt>
<trkpt lat="-27.2721927" lon="151.2900648">
  <ele>462.5</ele>
  <time>2026-09-01T19:59:25Z</time>
  <course>193.04</course>
  <speed>0.1</speed>
  <fix>3d</fix>
</trkpt>
<trkpt lat="-27.2721926" lon="151.2900647">
  <ele>463.3</ele>
  <time>2026-09-01T19:59:25Z</time>
  <course>9.5</course>
  <speed>0.0670820393249937</speed>
  <fix>3d</fix>
</trkpt>
<trkpt lat="-27.2721928" lon="151.2900647">
  <ele>463.0</ele>
  <time>2026-09-01T19:59:25Z</time>
  <course>193.55</course>
  <speed>0.09</speed>
  <fix>3d</fix>
</trkpt>
<trkpt lat="-27.2721927" lon="151.2900647">
  <ele>463.55</ele>
  <time>2026-09-01T19:59:25Z</time>
  <course>9.5</course>
  <speed>0.0670820393249937</speed>
  <fix>3d</fix>
</trkpt>
<trkpt lat="-27.2721928" lon="151.2900647">
  <ele>463.0</ele>
  <time>2026-09-01T19:59:25Z</time>
  <course>193.55</course>
  <speed>0.09</speed>
  <fix>3d</fix>
</trkpt>
<trkpt lat="-27.2721928" lon="151.2900646">
  <ele>463.81</ele>
  <time>2026-09-01T19:59:25Z</time>
  <course>9.49</course>
  <speed>0.05830951894845301</speed>
  <fix>3d</fix>
</trkpt>
<trkpt lat="-27.272193" lon="151.2900647">
  <ele>463.5</ele>
  <time>2026-09-01T19:59:25Z</time>
  <course>193.34</course>
  <speed>0.09</speed>
  <fix>3d</fix>
</trkpt>
<trkpt lat="-27.2721929" lon="151.2900646">
  <ele>464.06</ele>
  <time>2026-09-01T19:59:25Z</time>
  <course>9.49</course>
  <speed>0.05830951894845301</speed>
  <fix>3d</fix>
</trkpt>
<trkpt lat="-27.272193" lon="151.2900647">
  <ele>463.5</ele>
  <time>2026-09-01T19:59:25Z</time>
  <course>193.34</course>
  <speed>0.09</speed>
  <fix>3d</fix>
</trkpt>
<trkpt lat="-27.2721929" lon="151.2900646">
  <ele>464.31</ele>
  <time>2026-09-01T19:59:25Z</time>
  <course>9.5</course>
  <speed>0.05830951894845301</speed>
  <fix>3d</fix>
</trkpt>
<trkpt lat="-27.2721931" lon="151.2900646">
  <ele>464.0</ele>
  <time>2026-09-01T19:59:25Z</time>
  <course>193.08</course>
  <speed>0.08</speed>
  <fix>3d</fix>
</trkpt>
<trkpt lat="-27.272193" lon="151.2900646">
  <ele>464.56</ele>
  <time>2026-09-01T19:59:25Z</time>
  <course>9.52</course>
  <speed>0.05</speed>
  <fix>3d</fix>
</trkpt>
<trkpt lat="-27.2721931" lon="151.2900646">
  <ele>464.0</ele>
  <time>2026-09-01T19:59:25Z</time>
  <course>193.08</course>
  <speed>0.08</speed>
  <fix>3d</fix>
</trkpt>
<trkpt lat="-27.2721931" lon="151.2900646">
  <ele>464.81</ele>
  <time>2026-09-01T19:59:25Z</time>
  <course>9.53</course>
  <speed>0.05</speed>
  <fix>3d</fix>
</trkpt>
<trkpt lat="-27.2721933" lon="151.2900646">
  <ele>464.51</ele>
  <time>2026-09-01T19:59:25Z</time>
  <course>193.56</course>
  <speed>0.07</speed>
  <fix>3d</fix>
</trkpt>
<trkpt lat="-27.2721931" lon="151.2900645">
  <ele>465.06</ele>
  <time>2026-09-01T19:59:25Z</time>
  <course>9.55</course>
  <speed>0.05</speed>
  <fix>3d</fix>
</trkpt>
<trkpt lat="-27.2721933" lon="151.2900646">
  <ele>464.51</ele>
  <time>2026-09-01T19:59:25Z</time>
  <course>193.56</course>
  <speed>0.07</speed>
  <fix>3d</fix>
</trkpt>
<trkpt lat="-27.2721932" lon="151.2900645">
  <ele>465.31</ele>
  <time>2026-09-01T19:59:25Z</time>
  <course>9.56</course>
  <speed>0.04242640687119285</speed>
  <fix>3d</fix>
</trkpt>
<trkpt lat="-27.2721934" lon="151.2900646">
  <ele>465.01</ele>
  <time>2026-09-01T19:59:25Z</time>
  <course>194.38</course>
  <speed>0.06</speed>
  <fix>3d</fix>
</trkpt>
<trkpt lat="-27.2721933" lon="151.2900645">
  <ele>465.56</ele>
  <time>2026-09-01T19:59:25Z</time>
  <course>9.56</course>
  <speed>0.04242640687119285</speed>
  <fix>3d</fix>
</trkpt>
<trkpt lat="-27.2721934" lon="151.2900646">
  <ele>465.01</ele>
  <time>2026-09-01T19:59:25Z</time>
  <course>194.38</course>
  <speed>0.06</speed>
  <fix>3d</fix>
</trkpt>
<trkpt lat="-27.2721933" lon="151.2900645">
  <ele>465.81</ele>
  <time>2026-09-01T19:59:25Z</time>
  <course>9.56</course>
  <speed>0.0282842712474619</speed>
  <fix>3d</fix>
</trkpt>
<trkpt lat="-27.2721935" lon="151.2900646">
  <ele>465.51</ele>
  <time>2026-09-01T19:59:25Z</time>
  <course>194.89</course>
  <speed>0.06</speed>
  <fix>3d</fix>
</trkpt>
<trkpt lat="-27.2721934" lon="151.2900645">
  <ele>466.06</ele>
  <time>2026-09-01T19:59:25Z</time>
  <course>9.56</course>
  <speed>0.0282842712474619</speed>
  <fix>3d</fix>
</trkpt>
<trkpt lat="-27.2721935" lon="151.2900646">
  <ele>465.51</ele>
  <time>2026-09-01T19:59:25Z</time>
  <course>194.89</course>
  <speed>0.06</speed>
  <fix>3d</fix>
</trkpt>
<trkpt lat="-27.2721934" lon="151.2900644">
  <ele>466.32</ele>
  <time>2026-09-01T19:59:25Z</time>
  <course>9.56</course>
  <speed>0.0282842712474619</speed>
  <fix>3d</fix>
</trkpt>
<trkpt lat="-27.2721936" lon="151.2900646">
  <ele>466.0</ele>
  <time>2026-09-01T19:59:25Z</time>
  <course>194.73</course>
  <speed>0.05</speed>
  <fix>3d</fix>
</trkpt>
<trkpt lat="-27.2721934" lon="151.2900644">
  <ele>466.57</ele>
  <time>2026-09-01T19:59:25Z</time>
  <course>9.55</course>
  <speed>0.0282842712474619</speed>
  <fix>3d</fix>
</trkpt>
<trkpt lat="-27.2721936" lon="151.2900646">
  <ele>466.0</ele>
  <time>2026-09-01T19:59:25Z</time>
  <course>194.73</course>
  <speed>0.05</speed>
  <fix>3d</fix>
</trkpt>
<trkpt lat="-27.2721935" lon="151.2900644">
  <ele>466.82</ele>
  <time>2026-09-01T19:59:25Z</time>
  <course>9.56</course>
  <speed>0.022360679774997897</speed>
  <fix>3d</fix>
</trkpt>
<trkpt lat="-27.2721937" lon="151.2900645">
  <ele>466.5</ele>
  <time>2026-09-01T19:59:25Z</time>
  <course>194.78</course>
  <speed>0.04</speed>
  <fix>3d</fix>
</trkpt>
<trkpt lat="-27.2721935" lon="151.2900644">
  <ele>467.07</ele>
  <time>2026-09-01T19:59:25Z</time>
  <course>9.58</course>
  <speed>0.022360679774997897</speed>
  <fix>3d</fix>
</trkpt>
<trkpt lat="-27.2721937" lon="151.2900645">
  <ele>466.5</ele>
  <time>2026-09-01T19:59:25Z</time>
  <course>194.78</course>
  <speed>0.04</speed>
  <fix>3d</fix>
</trkpt>
<trkpt lat="-27.2721935" lon="151.2900644">
  <ele>467.32</ele>
  <time>2026-09-01T19:59:25Z</time>
  <course>9.6</course>
  <speed>0.022360679774997897</speed>
  <fix>3d</fix>
</trkpt>
<trkpt lat="-27.2721938" lon="151.2900645">
  <ele>467.0</ele>
  <time>2026-09-01T19:59:25Z</time>
  <course>195.89</course>
  <speed>0.04</speed>
  <fix>3d</fix>
</trkpt>
<trkpt lat="-27.2721936" lon="151.2900644">
  <ele>467.57</ele>
  <time>2026-09-01T19:59:25Z</time>
  <course>9.61</course>
  <speed>0.022360679774997897</speed>
  <fix>3d</fix>
</trkpt>
<trkpt lat="-27.2721938" lon="151.2900645">
  <ele>467.0</ele>
  <time>2026-09-01T19:59:25Z</time>
  <course>195.89</course>
  <speed>0.04</speed>
  <fix>3d</fix>
</trkpt>
<trkpt lat="-27.2721936" lon="151.2900644">
  <ele>467.82</ele>
  <time>2026-09-01T19:59:25Z</time>
  <course>9.62</course>
  <speed>0.02</speed>
  <fix>3d</fix>
</trkpt>
<trkpt lat="-27.2721939" lon="151.2900645">
  <ele>467.5</ele>
  <time>2026-09-01T19:59:25Z</time>
  <course>197.47</course>
  <speed>0.03</speed>
  <fix>3d</fix>
</trkpt>
<trkpt lat="-27.2721937" lon="151.2900644">
  <ele>468.07</ele>
  <time>2026-09-01T19:59:25Z</time>
  <course>9.62</course>
  <speed>0.02</speed>
  <fix>3d</fix>
</trkpt>
<trkpt lat="-27.2721939" lon="151.2900645">
  <ele>467.5</ele>
  <time>2026-09-01T19:59:25Z</time>
  <course>197.47</course>
  <speed>0.03</speed>
  <fix>3d</fix>
</trkpt>
<trkpt lat="-27.2721937" lon="151.2900644">
  <ele>468.31</ele>
  <time>2026-09-01T19:59:25Z</time>
  <course>9.61</course>
  <speed>0.02</speed>
  <fix>3d</fix>
</trkpt>
<trkpt lat="-27.2721939" lon="151.2900645">
  <ele>467.99</ele>
  <time>2026-09-01T19:59:25Z</time>
  <course>199.14</course>
  <speed>0.03</speed>
  <fix>3d</fix>
</trkpt>
<trkpt lat="-27.2721937" lon="151.2900644">
  <ele>468.56</ele>
  <time>2026-09-01T19:59:25Z</time>
  <course>9.6</course>
  <speed>0.02</speed>
  <fix>3d</fix>
</trkpt>
<trkpt lat="-27.2721939" lon="151.2900645">
  <ele>467.99</ele>
  <time>2026-09-01T19:59:25Z</time>
  <course>199.14</course>
  <speed>0.03</speed>
  <fix>3d</fix>
</trkpt>
<trkpt lat="-27.2721937" lon="151.2900644">
  <ele>468.81</ele>
  <time>2026-09-01T19:59:25Z</time>
  <course>9.59</course>
  <speed>0.02</speed>
  <fix>3d</fix>
</trkpt>
<trkpt lat="-27.272194" lon="151.2900645">
  <ele>468.49</ele>
  <time>2026-09-01T19:59:25Z</time>
  <course>200.02</course>
  <speed>0.02</speed>
  <fix>3d</fix>
</trkpt>
<trkpt lat="-27.2721938" lon="151.2900644">
  <ele>469.06</ele>
  <time>2026-09-01T19:59:25Z</time>
  <course>9.59</course>
  <speed>0.02</speed>
  <fix>3d</fix>
</trkpt>
<trkpt lat="-27.272194" lon="151.2900645">
  <ele>468.49</ele>
  <time>2026-09-01T19:59:25Z</time>
  <course>200.02</course>
  <speed>0.02</speed>
  <fix>3d</fix>
</trkpt>
<trkpt lat="-27.2721938" lon="151.2900643">
  <ele>469.31</ele>
  <time>2026-09-01T19:59:25Z</time>
  <course>9.6</course>
  <speed>0.02</speed>
  <fix>3d</fix>
</trkpt>
<trkpt lat="-27.272194" lon="151.2900644">
  <ele>468.99</ele>
  <time>2026-09-01T19:59:25Z</time>
  <course>200.02</course>
  <speed>0.02</speed>
  <fix>3d</fix>
</trkpt>
<trkpt lat="-27.2721938" lon="151.2900643">
  <ele>469.56</ele>
  <time>2026-09-01T19:59:25Z</time>
  <course>9.61</course>
  <speed>0.02</speed>
  <fix>3d</fix>
</trkpt>
<trkpt lat="-27.272194" lon="151.2900644">
  <ele>468.99</ele>
  <time>2026-09-01T19:59:25Z</time>
  <course>200.02</course>
  <speed>0.02</speed>
  <fix>3d</fix>
</trkpt>
<trkpt lat="-27.2721938" lon="151.2900643">
  <ele>469.8</ele>
  <time>2026-09-01T19:59:25Z</time>
  <course>9.63</course>
  <speed>0.022360679774997897</speed>
  <fix>3d</fix>
</trkpt>
<trkpt lat="-27.2721941" lon="151.2900644">
  <ele>469.49</ele>
  <time>2026-09-01T19:59:25Z</time>
  <course>201.03</course>
  <speed>0.01</speed>
  <fix>3d</fix>
</trkpt>
<trkpt lat="-27.2721938" lon="151.2900643">
  <ele>470.05</ele>
  <time>2026-09-01T19:59:25Z</time>
  <course>9.65</course>
  <speed>0.022360679774997897</speed>
  <fix>3d</fix>
</trkpt>
<trkpt lat="-27.2721941" lon="151.2900644">
  <ele>469.49</ele>
  <time>2026-09-01T19:59:25Z</time>
  <course>201.03</course>
  <speed>0.01</speed>
  <fix>3d</fix>
</trkpt>
<trkpt lat="-27.2721938" lon="151.2900643">
  <ele>470.3</ele>
  <time>2026-09-01T19:59:25Z</time>
  <course>9.67</course>
  <speed>0.022360679774997897</speed>
  <fix>3d</fix>
</trkpt>
<trkpt lat="-27.2721941" lon="151.2900644">
  <ele>469.98</ele>
  <time>2026-09-01T19:59:25Z</time>
  <course>205.9</course>
  <speed>0.01</speed>
  <fix>3d</fix>
</trkpt>
<trkpt lat="-27.2721938" lon="151.2900643">
  <ele>470.55</ele>
  <time>2026-09-01T19:59:25Z</time>
  <course>9.67</course>
  <speed>0.022360679774997897</speed>
  <fix>3d</fix>
</trkpt>
<trkpt lat="-27.2721941" lon="151.2900644">
  <ele>469.98</ele>
  <time>2026-09-01T19:59:25Z</time>
  <course>205.9</course>
  <speed>0.01</speed>
  <fix>3d</fix>
</trkpt>
<trkpt lat="-27.2721939" lon="151.2900643">
  <ele>470.8</ele>
  <time>2026-09-01T19:59:25Z</time>
  <course>9.67</course>
  <speed>0.022360679774997897</speed>
  <fix>3d</fix>
</trkpt>
<trkpt lat="-27.2721941" lon="151.2900644">
  <ele>470.48</ele>
  <time>2026-09-01T19:59:25Z</time>
  <course>213.7</course>
  <speed>0.01</speed>
  <fix>3d</fix>
</trkpt>
<trkpt lat="-27.2721939" lon="151.2900643">
  <ele>471.06</ele>
  <time>2026-09-01T19:59:25Z</time>
  <course>9.66</course>
  <speed>0.022360679774997897</speed>
  <fix>3d</fix>
</trkpt>
<trkpt lat="-27.2721941" lon="151.2900644">
  <ele>470.48</ele>
  <time>2026-09-01T19:59:25Z</time>
  <course>213.7</course>
  <speed>0.01</speed>
  <fix>3d</fix>
</trkpt>
<trkpt lat="-27.2721939" lon="151.2900643">
  <ele>471.31</ele>
  <time>2026-09-01T19:59:25Z</time>
  <course>9.66</course>
  <speed>0.022360679774997897</speed>
  <fix>3d</fix>
</trkpt>
<trkpt lat="-27.2721942" lon="151.2900644">
  <ele>470.98</ele>
  <time>2026-09-01T19:59:25Z</time>
  <course>221.37</course>
  <speed>0.01</speed>
  <fix>3d</fix>
</trkpt>
<trkpt lat="-27.2721939" lon="151.2900643">
  <ele>471.56</ele>
  <time>2026-09-01T19:59:25Z</time>
  <course>9.65</course>
  <speed>0.01414213562373095</speed>
  <fix>3d</fix>
</trkpt>
<trkpt lat="-27.2721942" lon="151.2900644">
  <ele>470.98</ele>
  <time>2026-09-01T19:59:25Z</time>
  <course>221.37</course>
  <speed>0.01</speed>
  <fix>3d</fix>
</trkpt>
<trkpt lat="-27.2721939" lon="151.2900643">
  <ele>471.81</ele>
  <time>2026-09-01T19:59:25Z</time>
  <course>9.65</course>
  <speed>0.022360679774997897</speed>
  <fix>3d</fix>
</trkpt>
<trkpt lat="-27.2721942" lon="151.2900644">
  <ele>471.48</ele>
  <time>2026-09-01T19:59:25Z</time>
  <course>226.82</course>
  <speed>0.0</speed>
  <fix>3d</fix>
</trkpt>
<trkpt lat="-27.2721939" lon="151.2900643">
  <ele>472.06</ele>
  <time>2026-09-01T19:59:25Z</time>
  <course>9.64</course>
  <speed>0.022360679774997897</speed>
  <fix>3d</fix>
</trkpt>
<trkpt lat="-27.2721942" lon="151.2900644">
  <ele>471.48</ele>
  <time>2026-09-01T19:59:25Z</time>
  <course>226.82</course>
  <speed>0.0</speed>
  <fix>3d</fix>
</trkpt>
<trkpt lat="-27.2721939" lon="151.2900643">
  <ele>472.31</ele>
  <time>2026-09-01T19:59:25Z</time>
  <course>9.64</course>
  <speed>0.022360679774997897</speed>
  <fix>3d</fix>
</trkpt>
<trkpt lat="-27.2721942" lon="151.2900644">
  <ele>471.98</ele>
  <time>2026-09-01T19:59:25Z</time>
  <course>252.9</course>
  <speed>0.0</speed>
  <fix>3d</fix>
</trkpt>
<trkpt lat="-27.2721939" lon="151.2900643">
  <ele>472.56</ele>
  <time>2026-09-01T19:59:25Z</time>
  <course>9.65</course>
  <speed>0.022360679774997897</speed>
  <fix>3d</fix>
</trkpt>
<trkpt lat="-27.2721942" lon="151.2900644">
  <ele>471.98</ele>
  <time>2026-09-01T19:59:25Z</time>
  <course>252.9</course>
  <speed>0.0</speed>
  <fix>3d</fix>
</trkpt>
<trkpt lat="-27.2721939" lon="151.2900643">
  <ele>472.82</ele>
  <time>2026-09-01T19:59:25Z</time>
  <course>9.67</course>
  <speed>0.022360679774997897</speed>
  <fix>3d</fix>
</trkpt>
<trkpt lat="-27.2721942" lon="151.2900644">
  <ele>472.48</ele>
  <time>2026-09-01T19:59:25Z</time>
  <course>331.72</course>
  <speed>0.0</speed>
  <fix>3d</fix>
</trkpt>
<trkpt lat="-27.2721939" lon="151.2900643">
  <ele>473.07</ele>
  <time>2026-09-01T19:59:25Z</time>
  <course>9.69</course>
  <speed>0.022360679774997897</speed>
  <fix>3d</fix>
</trkpt>
<trkpt lat="-27.2721942" lon="151.2900644">
  <ele>472.48</ele>
  <time>2026-09-01T19:59:25Z</time>
  <course>331.72</course>
  <speed>0.0</speed>
  <fix>3d</fix>
</trkpt>
<trkpt lat="-27.2721939" lon="151.2900643">
  <ele>473.31</ele>
  <time>2026-09-01T19:59:25Z</time>
  <course>9.7</course>
  <speed>0.0316227766016838</speed>
  <fix>3d</fix>
</trkpt>
<trkpt lat="-27.2721942" lon="151.2900644">
  <ele>472.98</ele>
  <time>2026-09-01T19:59:25Z</time>
  <course>351.83</course>
  <speed>0.0</speed>
  <fix>3d</fix>
</trkpt>
<trkpt lat="-27.2721939" lon="151.2900643">
  <ele>473.56</ele>
  <time>2026-09-01T19:59:25Z</time>
  <course>9.71</course>
  <speed>0.0316227766016838</speed>
  <fix>3d</fix>
</trkpt>
<trkpt lat="-27.2721942" lon="151.2900644">
  <ele>472.98</ele>
  <time>2026-09-01T19:59:25Z</time>
  <course>351.83</course>
  <speed>0.0</speed>
  <fix>3d</fix>
</trkpt>
<trkpt lat="-27.2721939" lon="151.2900643">
  <ele>473.81</ele>
  <time>2026-09-01T19:59:25Z</time>
  <course>9.72</course>
  <speed>0.0316227766016838</speed>
  <fix>3d</fix>
</trkpt>
<trkpt lat="-27.2721942" lon="151.2900644">
  <ele>473.48</ele>
  <time>2026-09-01T19:59:25Z</time>
  <course>357.81</course>
  <speed>0.0</speed>
  <fix>3d</fix>
</trkpt>
<trkpt lat="-27.2721939" lon="151.2900643">
  <ele>474.06</ele>
  <time>2026-09-01T19:59:25Z</time>
  <course>9.73</course>
  <speed>0.0316227766016838</speed>
  <fix>3d</fix>
</trkpt>
<trkpt lat="-27.2721942" lon="151.2900644">
  <ele>473.48</ele>
  <time>2026-09-01T19:59:25Z</time>
  <course>357.81</course>
  <speed>0.0</speed>
  <fix>3d</fix>
</trkpt>
<trkpt lat="-27.2721939" lon="151.2900643">
  <ele>474.31</ele>
  <time>2026-09-01T19:59:25Z</time>
  <course>9.74</course>
  <speed>0.0316227766016838</speed>
  <fix>3d</fix>
</trkpt>
<trkpt lat="-27.2721942" lon="151.2900644">
  <ele>473.98</ele>
  <time>2026-09-01T19:59:25Z</time>
  <course>358.01</course>
  <speed>0.01</speed>
  <fix>3d</fix>
</trkpt>
<trkpt lat="-27.2721939" lon="151.2900643">
  <ele>474.55</ele>
  <time>2026-09-01T19:59:25Z</time>
  <course>9.74</course>
  <speed>0.0316227766016838</speed>
  <fix>3d</fix>
</trkpt>
<trkpt lat="-27.2721942" lon="151.2900644">
  <ele>473.98</ele>
  <time>2026-09-01T19:59:25Z</time>
  <course>358.01</course>
  <speed>0.01</speed>
  <fix>3d</fix>
</trkpt>
<trkpt lat="-27.2721939" lon="151.2900643">
  <ele>474.8</ele>
  <time>2026-09-01T19:59:25Z</time>
  <course>9.74</course>
  <speed>0.0316227766016838</speed>
  <fix>3d</fix>
</trkpt>
<trkpt lat="-27.2721942" lon="151.2900644">
  <ele>474.47</ele>
  <time>2026-09-01T19:59:25Z</time>
  <course>356.84</course>
  <speed>0.01</speed>
  <fix>3d</fix>
</trkpt>
<trkpt lat="-27.2721939" lon="151.2900643">
  <ele>475.05</ele>
  <time>2026-09-01T19:59:25Z</time>
  <course>9.73</course>
  <speed>0.0316227766016838</speed>
  <fix>3d</fix>
</trkpt>
<trkpt lat="-27.2721942" lon="151.2900644">
  <ele>474.47</ele>
  <time>2026-09-01T19:59:25Z</time>
  <course>356.84</course>
  <speed>0.01</speed>
  <fix>3d</fix>
</trkpt>
<trkpt lat="-27.2721939" lon="151.2900643">
  <ele>475.3</ele>
  <time>2026-09-01T19:59:25Z</time>
  <course>9.72</course>
  <speed>0.0316227766016838</speed>
  <fix>3d</fix>
</trkpt>
<trkpt lat="-27.2721942" lon="151.2900644">
  <ele>474.97</ele>
  <time>2026-09-01T19:59:25Z</time>
  <course>356.95</course>
  <speed>0.01</speed>
  <fix>3d</fix>
</trkpt>
<trkpt lat="-27.2721939" lon="151.2900643">
  <ele>475.55</ele>
  <time>2026-09-01T19:59:25Z</time>
  <course>9.71</course>
  <speed>0.0316227766016838</speed>
  <fix>3d</fix>
</trkpt>
<trkpt lat="-27.2721942" lon="151.2900644">
  <ele>474.97</ele>
  <time>2026-09-01T19:59:25Z</time>
  <course>356.95</course>
  <speed>0.01</speed>
  <fix>3d</fix>
</trkpt>
<trkpt lat="-27.2721939" lon="151.2900643">
  <ele>475.8</ele>
  <time>2026-09-01T19:59:25Z</time>
  <course>9.71</course>
  <speed>0.0316227766016838</speed>
  <fix>3d</fix>
</trkpt>
<trkpt lat="-27.2721941" lon="151.2900644">
  <ele>475.47</ele>
  <time>2026-09-01T19:59:25Z</time>
  <course>358.46</course>
  <speed>0.01</speed>
  <fix>3d</fix>
</trkpt>
<trkpt lat="-27.2721939" lon="151.2900643">
  <ele>476.06</ele>
  <time>2026-09-01T19:59:25Z</time>
  <course>9.7</course>
  <speed>0.0316227766016838</speed>
  <fix>3d</fix>
</trkpt>
<trkpt lat="-27.2721941" lon="151.2900644">
  <ele>475.47</ele>
  <time>2026-09-01T19:59:25Z</time>
  <course>358.46</course>
  <speed>0.01</speed>
  <fix>3d</fix>
</trkpt>
<trkpt lat="-27.2721939" lon="151.2900643">
  <ele>476.31</ele>
  <time>2026-09-01T19:59:25Z</time>
  <course>9.69</course>
  <speed>0.0316227766016838</speed>
  <fix>3d</fix>
</trkpt>
<trkpt lat="-27.2721941" lon="151.2900644">
  <ele>475.97</ele>
  <time>2026-09-01T19:59:25Z</time>
  <course>0.3</course>
  <speed>0.01</speed>
  <fix>3d</fix>
</trkpt>
<trkpt lat="-27.2721939" lon="151.2900643">
  <ele>476.55</ele>
  <time>2026-09-01T19:59:25Z</time>
  <course>9.68</course>
  <speed>0.0316227766016838</speed>
  <fix>3d</fix>
</trkpt>
<trkpt lat="-27.2721941" lon="151.2900644">
  <ele>475.97</ele>
  <time>2026-09-01T19:59:25Z</time>
  <course>0.3</course>
  <speed>0.01</speed>
  <fix>3d</fix>
</trkpt>
<trkpt lat="-27.2721939" lon="151.2900643">
  <ele>476.8</ele>
  <time>2026-09-01T19:59:25Z</time>
  <course>9.68</course>
  <speed>0.0316227766016838</speed>
  <fix>3d</fix>
</trkpt>
<trkpt lat="-27.2721941" lon="151.2900644">
  <ele>476.47</ele>
  <time>2026-09-01T19:59:25Z</time>
  <course>358.78</course>
  <speed>0.01</speed>
  <fix>3d</fix>
</trkpt>
<trkpt lat="-27.2721939" lon="151.2900643">
  <ele>477.05</ele>
  <time>2026-09-01T19:59:25Z</time>
  <course>9.69</course>
  <speed>0.0316227766016838</speed>
  <fix>3d</fix>
</trkpt>
<trkpt lat="-27.2721941" lon="151.2900644">
  <ele>476.47</ele>
  <time>2026-09-01T19:59:25Z</time>
  <course>358.78</course>
  <speed>0.01</speed>
  <fix>3d</fix>
</trkpt>
<trkpt lat="-27.2721939" lon="151.2900643">
  <ele>477.3</ele>
  <time>2026-09-01T19:59:25Z</time>
  <course>9.69</course>
  <speed>0.0316227766016838</speed>
  <fix>3d</fix>
</trkpt>
<trkpt lat="-27.272194" lon="151.2900644">
  <ele>476.97</ele>
  <time>2026-09-01T19:59:25Z</time>
  <course>354.71</course>
  <speed>0.01</speed>
  <fix>3d</fix>
</trkpt>
<trkpt lat="-27.2721939" lon="151.2900643">
  <ele>477.55</ele>
  <time>2026-09-01T19:59:25Z</time>
  <course>9.69</course>
  <speed>0.0316227766016838</speed>
  <fix>3d</fix>
</trkpt>
<trkpt lat="-27.272194" lon="151.2900644">
  <ele>476.97</ele>
  <time>2026-09-01T19:59:25Z</time>
  <course>354.71</course>
  <speed>0.01</speed>
  <fix>3d</fix>
</trkpt>
<trkpt lat="-27.2721938" lon="151.2900643">
  <ele>477.8</ele>
  <time>2026-09-01T19:59:25Z</time>
  <course>9.68</course>
  <speed>0.0316227766016838</speed>
  <fix>3d</fix>
</trkpt>
<trkpt lat="-27.272194" lon="151.2900643">
  <ele>477.47</ele>
  <time>2026-09-01T19:59:25Z</time>
  <course>352.76</course>
  <speed>0.01</speed>
  <fix>3d</fix>
</trkpt>
<trkpt lat="-27.2721938" lon="151.2900643">
  <ele>478.06</ele>
  <time>2026-09-01T19:59:25Z</time>
  <course>9.66</course>
  <speed>0.0316227766016838</speed>
  <fix>3d</fix>
</trkpt>
<trkpt lat="-27.272194" lon="151.2900643">
  <ele>477.47</ele>
  <time>2026-09-01T19:59:25Z</time>
  <course>352.76</course>
  <speed>0.01</speed>
  <fix>3d</fix>
</trkpt>
<trkpt lat="-27.2721938" lon="151.2900643">
  <ele>478.31</ele>
  <time>2026-09-01T19:59:25Z</time>
  <course>9.66</course>
  <speed>0.0316227766016838</speed>
  <fix>3d</fix>
</trkpt>
<trkpt lat="-27.272194" lon="151.2900642">
  <ele>477.97</ele>
  <time>2026-09-01T19:59:25Z</time>
  <course>353.82</course>
  <speed>0.01</speed>
  <fix>3d</fix>
</trkpt>
<trkpt lat="-27.2721938" lon="151.2900643">
  <ele>478.56</ele>
  <time>2026-09-01T19:59:25Z</time>
  <course>9.66</course>
  <speed>0.0316227766016838</speed>
  <fix>3d</fix>
</trkpt>
<trkpt lat="-27.272194" lon="151.2900642">
  <ele>477.97</ele>
  <time>2026-09-01T19:59:25Z</time>
  <course>353.82</course>
  <speed>0.01</speed>
  <fix>3d</fix>
</trkpt>
<trkpt lat="-27.2721938" lon="151.2900643">
  <ele>478.81</ele>
  <time>2026-09-01T19:59:25Z</time>
  <course>9.67</course>
  <speed>0.0316227766016838</speed>
  <fix>3d</fix>
</trkpt>
<trkpt lat="-27.2721939" lon="151.2900642">
  <ele>478.47</ele>
  <time>2026-09-01T19:59:25Z</time>
  <course>355.62</course>
  <speed>0.02</speed>
  <fix>3d</fix>
</trkpt>
<trkpt lat="-27.2721938" lon="151.2900643">
  <ele>479.06</ele>
  <time>2026-09-01T19:59:25Z</time>
  <course>9.67</course>
  <speed>0.0316227766016838</speed>
  <fix>3d</fix>
</trkpt>
<trkpt lat="-27.2721939" lon="151.2900642">
  <ele>478.47</ele>
  <time>2026-09-01T19:59:25Z</time>
  <course>355.62</course>
  <speed>0.02</speed>
  <fix>3d</fix>
</trkpt>
<trkpt lat="-27.2721938" lon="151.2900643">
  <ele>479.31</ele>
  <time>2026-09-01T19:59:25Z</time>
  <course>9.68</course>
  <speed>0.0316227766016838</speed>
  <fix>3d</fix>
</trkpt>
<trkpt lat="-27.2721939" lon="151.2900642">
  <ele>478.97</ele>
  <time>2026-09-01T19:59:25Z</time>
  <course>358.01</course>
  <speed>0.01</speed>
  <fix>3d</fix>
</trkpt>
<trkpt lat="-27.2721937" lon="151.2900642">
  <ele>479.56</ele>
  <time>2026-09-01T19:59:25Z</time>
  <course>9.68</course>
  <speed>0.0316227766016838</speed>
  <fix>3d</fix>
</trkpt>
<trkpt lat="-27.2721939" lon="151.2900642">
  <ele>478.97</ele>
  <time>2026-09-01T19:59:25Z</time>
  <course>358.01</course>
  <speed>0.01</speed>
  <fix>3d</fix>
</trkpt>
<trkpt lat="-27.2721937" lon="151.2900642">
  <ele>479.81</ele>
  <time>2026-09-01T19:59:25Z</time>
  <course>9.68</course>
  <speed>0.0316227766016838</speed>
  <fix>3d</fix>
</trkpt>
<trkpt lat="-27.2721939" lon="151.2900642">
  <ele>479.47</ele>
  <time>2026-09-01T19:59:25Z</time>
  <course>1.67</course>
  <speed>0.01</speed>
  <fix>3d</fix>
</trkpt>
<trkpt lat="-27.2721937" lon="151.2900642">
  <ele>480.06</ele>
  <time>2026-09-01T19:59:25Z</time>
  <course>9.69</course>
  <speed>0.0316227766016838</speed>
  <fix>3d</fix>
</trkpt>
<trkpt lat="-27.2721939" lon="151.2900642">
  <ele>479.47</ele>
  <time>2026-09-01T19:59:25Z</time>
  <course>1.67</course>
  <speed>0.01</speed>
  <fix>3d</fix>
</trkpt>
<trkpt lat="-27.2721937" lon="151.2900642">
  <ele>480.31</ele>
  <time>2026-09-01T19:59:25Z</time>
  <course>9.7</course>
  <speed>0.0316227766016838</speed>
  <fix>3d</fix>
</trkpt>
<trkpt lat="-27.2721938" lon="151.2900642">
  <ele>479.96</ele>
  <time>2026-09-01T19:59:25Z</time>
  <course>5.13</course>
  <speed>0.01</speed>
  <fix>3d</fix>
</trkpt>
<trkpt lat="-27.2721937" lon="151.2900642">
  <ele>480.55</ele>
  <time>2026-09-01T19:59:25Z</time>
  <course>9.72</course>
  <speed>0.0316227766016838</speed>
  <fix>3d</fix>
</trkpt>
<trkpt lat="-27.2721938" lon="151.2900642">
  <ele>479.96</ele>
  <time>2026-09-01T19:59:25Z</time>
  <course>5.13</course>
  <speed>0.01</speed>
  <fix>3d</fix>
</trkpt>
<trkpt lat="-27.2721937" lon="151.2900642">
  <ele>480.8</ele>
  <time>2026-09-01T19:59:25Z</time>
  <course>9.74</course>
  <speed>0.0316227766016838</speed>
  <fix>3d</fix>
</trkpt>
<trkpt lat="-27.2721938" lon="151.2900642">
  <ele>480.46</ele>
  <time>2026-09-01T19:59:25Z</time>
  <course>9.48</course>
  <speed>0.01</speed>
  <fix>3d</fix>
</trkpt>
<trkpt lat="-27.2721937" lon="151.2900642">
  <ele>481.05</ele>
  <time>2026-09-01T19:59:25Z</time>
  <course>9.75</course>
  <speed>0.0316227766016838</speed>
  <fix>3d</fix>
</trkpt>
<trkpt lat="-27.2721938" lon="151.2900642">
  <ele>480.46</ele>
  <time>2026-09-01T19:59:25Z</time>
  <course>9.48</course>
  <speed>0.01</speed>
  <fix>3d</fix>
</trkpt>
<trkpt lat="-27.2721936" lon="151.2900642">
  <ele>481.29</ele>
  <time>2026-09-01T19:59:25Z</time>
  <course>9.76</course>
  <speed>0.0316227766016838</speed>
  <fix>3d</fix>
</trkpt>
<trkpt lat="-27.2721938" lon="151.2900642">
  <ele>480.96</ele>
  <time>2026-09-01T19:59:25Z</time>
  <course>14.95</course>
  <speed>0.01</speed>
  <fix>3d</fix>
</trkpt>
<trkpt lat="-27.2721936" lon="151.2900642">
  <ele>481.54</ele>
  <time>2026-09-01T19:59:25Z</time>
  <course>9.78</course>
  <speed>0.0316227766016838</speed>
  <fix>3d</fix>
</trkpt>
<trkpt lat="-27.2721938" lon="151.2900642">
  <ele>480.96</ele>
  <time>2026-09-01T19:59:25Z</time>
  <course>14.95</course>
  <speed>0.01</speed>
  <fix>3d</fix>
</trkpt>
<trkpt lat="-27.2721936" lon="151.2900642">
  <ele>481.79</ele>
  <time>2026-09-01T19:59:25Z</time>
  <course>9.8</course>
  <speed>0.0316227766016838</speed>
  <fix>3d</fix>
</trkpt>
<trkpt lat="-27.2721938" lon="151.2900642">
  <ele>481.46</ele>
  <time>2026-09-01T19:59:25Z</time>
  <course>18.29</course>
  <speed>0.01</speed>
  <fix>3d</fix>
</trkpt>
<trkpt lat="-27.2721936" lon="151.2900642">
  <ele>482.04</ele>
  <time>2026-09-01T19:59:25Z</time>
  <course>9.81</course>
  <speed>0.0316227766016838</speed>
  <fix>3d</fix>
</trkpt>
<trkpt lat="-27.2721938" lon="151.2900642">
  <ele>481.46</ele>
  <time>2026-09-01T19:59:25Z</time>
  <course>18.29</course>
  <speed>0.01</speed>
  <fix>3d</fix>
</trkpt>
<trkpt lat="-27.2721936" lon="151.2900642">
  <ele>482.29</ele>
  <time>2026-09-01T19:59:25Z</time>
  <course>9.82</course>
  <speed>0.0316227766016838</speed>
  <fix>3d</fix>
</trkpt>
<trkpt lat="-27.2721937" lon="151.2900642">
  <ele>481.96</ele>
  <time>2026-09-01T19:59:25Z</time>
  <course>19.37</course>
  <speed>0.01</speed>
  <fix>3d</fix>
</trkpt>
<trkpt lat="-27.2721936" lon="151.2900642">
  <ele>482.53</ele>
  <time>2026-09-01T19:59:25Z</time>
  <course>9.81</course>
  <speed>0.0316227766016838</speed>
  <fix>3d</fix>
</trkpt>
<trkpt lat="-27.2721937" lon="151.2900642">
  <ele>481.96</ele>
  <time>2026-09-01T19:59:25Z</time>
  <course>19.37</course>
  <speed>0.01</speed>
  <fix>3d</fix>
</trkpt>
<trkpt lat="-27.2721936" lon="151.2900642">
  <ele>482.78</ele>
  <time>2026-09-01T19:59:25Z</time>
  <course>9.8</course>
  <speed>0.0316227766016838</speed>
  <fix>3d</fix>
</trkpt>
<trkpt lat="-27.2721937" lon="151.2900642">
  <ele>482.46</ele>
  <time>2026-09-01T19:59:25Z</time>
  <course>23.66</course>
  <speed>0.01</speed>
  <fix>3d</fix>
</trkpt>
<trkpt lat="-27.2721936" lon="151.2900642">
  <ele>483.04</ele>
  <time>2026-09-01T19:59:25Z</time>
  <course>9.79</course>
  <speed>0.0316227766016838</speed>
  <fix>3d</fix>
</trkpt>
<trkpt lat="-27.2721937" lon="151.2900642">
  <ele>482.46</ele>
  <time>2026-09-01T19:59:25Z</time>
  <course>23.66</course>
  <speed>0.01</speed>
  <fix>3d</fix>
</trkpt>
<trkpt lat="-27.2721936" lon="151.2900642">
  <ele>483.29</ele>
  <time>2026-09-01T19:59:25Z</time>
  <course>9.79</course>
  <speed>0.0316227766016838</speed>
  <fix>3d</fix>
</trkpt>
<trkpt lat="-27.2721937" lon="151.2900642">
  <ele>482.96</ele>
  <time>2026-09-01T19:59:25Z</time>
  <course>29.8</course>
  <speed>0.01</speed>
  <fix>3d</fix>
</trkpt>
<trkpt lat="-27.2721935" lon="151.2900642">
  <ele>483.54</ele>
  <time>2026-09-01T19:59:25Z</time>
  <course>9.8</course>
  <speed>0.0316227766016838</speed>
  <fix>3d</fix>
</trkpt>
<trkpt lat="-27.2721937" lon="151.2900642">
  <ele>482.96</ele>
  <time>2026-09-01T19:59:25Z</time>
  <course>29.8</course>
  <speed>0.01</speed>
  <fix>3d</fix>
</trkpt>
<trkpt lat="-27.2721935" lon="151.2900642">
  <ele>483.8</ele>
  <time>2026-09-01T19:59:25Z</time>
  <course>9.82</course>
  <speed>0.0316227766016838</speed>
  <fix>3d</fix>
</trkpt>
<trkpt lat="-27.2721937" lon="151.2900642">
  <ele>483.47</ele>
  <time>2026-09-01T19:59:25Z</time>
  <course>32.48</course>
  <speed>0.01</speed>
  <fix>3d</fix>
</trkpt>
<trkpt lat="-27.2721935" lon="151.2900642">
  <ele>484.05</ele>
  <time>2026-09-01T19:59:25Z</time>
  <course>9.84</course>
  <speed>0.0316227766016838</speed>
  <fix>3d</fix>
</trkpt>
<trkpt lat="-27.2721937" lon="151.2900642">
  <ele>483.47</ele>
  <time>2026-09-01T19:59:25Z</time>
  <course>32.48</course>
  <speed>0.01</speed>
  <fix>3d</fix>
</trkpt>
<trkpt lat="-27.2721935" lon="151.2900642">
  <ele>484.3</ele>
  <time>2026-09-01T19:59:25Z</time>
  <course>9.85</course>
  <speed>0.0316227766016838</speed>
  <fix>3d</fix>
</trkpt>
<trkpt lat="-27.2721936" lon="151.2900642">
  <ele>483.97</ele>
  <time>2026-09-01T19:59:25Z</time>
  <course>35.06</course>
  <speed>0.01</speed>
  <fix>3d</fix>
</trkpt>
<trkpt lat="-27.2721935" lon="151.2900642">
  <ele>484.55</ele>
  <time>2026-09-01T19:59:25Z</time>
  <course>9.86</course>
  <speed>0.0316227766016838</speed>
  <fix>3d</fix>
</trkpt>
<trkpt lat="-27.2721936" lon="151.2900642">
  <ele>483.97</ele>
  <time>2026-09-01T19:59:25Z</time>
  <course>35.06</course>
  <speed>0.01</speed>
  <fix>3d</fix>
</trkpt>
<trkpt lat="-27.2721935" lon="151.2900642">
  <ele>484.81</ele>
  <time>2026-09-01T19:59:25Z</time>
  <course>9.87</course>
  <speed>0.0316227766016838</speed>
  <fix>3d</fix>
</trkpt>
<trkpt lat="-27.2721936" lon="151.2900642">
  <ele>484.47</ele>
  <time>2026-09-01T19:59:25Z</time>
  <course>39.43</course>
  <speed>0.01</speed>
  <fix>3d</fix>
</trkpt>
<trkpt lat="-27.2721935" lon="151.2900642">
  <ele>485.06</ele>
  <time>2026-09-01T19:59:25Z</time>
  <course>9.88</course>
  <speed>0.0316227766016838</speed>
  <fix>3d</fix>
</trkpt>
<trkpt lat="-27.2721936" lon="151.2900642">
  <ele>484.47</ele>
  <time>2026-09-01T19:59:25Z</time>
  <course>39.43</course>
  <speed>0.01</speed>
  <fix>3d</fix>
</trkpt>
<trkpt lat="-27.2721935" lon="151.2900642">
  <ele>485.31</ele>
  <time>2026-09-01T19:59:25Z</time>
  <course>9.88</course>
  <speed>0.022360679774997897</speed>
  <fix>3d</fix>
</trkpt>
<trkpt lat="-27.2721936" lon="151.2900643">
  <ele>484.98</ele>
  <time>2026-09-01T19:59:25Z</time>
  <course>45.61</course>
  <speed>0.01</speed>
  <fix>3d</fix>
</trkpt>
<trkpt lat="-27.2721935" lon="151.2900642">
  <ele>485.55</ele>
  <time>2026-09-01T19:59:25Z</time>
  <course>9.88</course>
  <speed>0.022360679774997897</speed>
  <fix>3d</fix>
</trkpt>
<trkpt lat="-27.2721936" lon="151.2900643">
  <ele>484.98</ele>
  <time>2026-09-01T19:59:25Z</time>
  <course>45.61</course>
  <speed>0.01</speed>
  <fix>3d</fix>
</trkpt>
<trkpt lat="-27.2721935" lon="151.2900642">
  <ele>485.8</ele>
  <time>2026-09-01T19:59:25Z</time>
  <course>9.89</course>
  <speed>0.022360679774997897</speed>
  <fix>3d</fix>
</trkpt>
<trkpt lat="-27.2721936" lon="151.2900644">
  <ele>485.48</ele>
  <time>2026-09-01T19:59:25Z</time>
  <course>53.71</course>
  <speed>0.01</speed>
  <fix>3d</fix>
</trkpt>
<trkpt lat="-27.2721935" lon="151.2900642">
  <ele>486.05</ele>
  <time>2026-09-01T19:59:25Z</time>
  <course>9.89</course>
  <speed>0.022360679774997897</speed>
  <fix>3d</fix>
</trkpt>
<trkpt lat="-27.2721936" lon="151.2900644">
  <ele>485.48</ele>
  <time>2026-09-01T19:59:25Z</time>
  <course>53.71</course>
  <speed>0.01</speed>
  <fix>3d</fix>
</trkpt>
<trkpt lat="-27.2721934" lon="151.2900642">
  <ele>486.3</ele>
  <time>2026-09-01T19:59:25Z</time>
  <course>9.9</course>
  <speed>0.022360679774997897</speed>
  <fix>3d</fix>
</trkpt>
<trkpt lat="-27.2721936" lon="151.2900644">
  <ele>485.98</ele>
  <time>2026-09-01T19:59:25Z</time>
  <course>60.6</course>
  <speed>0.01</speed>
  <fix>3d</fix>
</trkpt>
<trkpt lat="-27.2721934" lon="151.2900642">
  <ele>486.55</ele>
  <time>2026-09-01T19:59:25Z</time>
  <course>9.9</course>
  <speed>0.022360679774997897</speed>
  <fix>3d</fix>
</trkpt>
<trkpt lat="-27.2721936" lon="151.2900644">
  <ele>485.98</ele>
  <time>2026-09-01T19:59:25Z</time>
  <course>60.6</course>
  <speed>0.01</speed>
  <fix>3d</fix>
</trkpt>
<trkpt lat="-27.2721934" lon="151.2900642">
  <ele>486.8</ele>
  <time>2026-09-01T19:59:25Z</time>
  <course>9.9</course>
  <speed>0.022360679774997897</speed>
  <fix>3d</fix>
</trkpt>
<trkpt lat="-27.2721936" lon="151.2900644">
  <ele>486.48</ele>
  <time>2026-09-01T19:59:25Z</time>
  <course>67.61</course>
  <speed>0.0</speed>
  <fix>3d</fix>
</trkpt>
<trkpt lat="-27.2721934" lon="151.2900642">
  <ele>487.05</ele>
  <time>2026-09-01T19:59:25Z</time>
  <course>9.9</course>
  <speed>0.022360679774997897</speed>
  <fix>3d</fix>
</trkpt>
<trkpt lat="-27.2721936" lon="151.2900644">
  <ele>486.48</ele>
  <time>2026-09-01T19:59:25Z</time>
  <course>67.61</course>
  <speed>0.0</speed>
  <fix>3d</fix>
</trkpt>
<trkpt lat="-27.2721934" lon="151.2900642">
  <ele>487.3</ele>
  <time>2026-09-01T19:59:25Z</time>
  <course>9.91</course>
  <speed>0.022360679774997897</speed>
  <fix>3d</fix>
</trkpt>
<trkpt lat="-27.2721936" lon="151.2900644">
  <ele>486.98</ele>
  <time>2026-09-01T19:59:25Z</time>
  <course>80.08</course>
  <speed>0.0</speed>
  <fix>3d</fix>
</trkpt>
<trkpt lat="-27.2721934" lon="151.2900642">
  <ele>487.54</ele>
  <time>2026-09-01T19:59:25Z</time>
  <course>9.91</course>
  <speed>0.022360679774997897</speed>
  <fix>3d</fix>
</trkpt>
<trkpt lat="-27.2721936" lon="151.2900644">
  <ele>486.98</ele>
  <time>2026-09-01T19:59:25Z</time>
  <course>80.08</course>
  <speed>0.0</speed>
  <fix>3d</fix>
</trkpt>
<trkpt lat="-27.2721934" lon="151.2900642">
  <ele>487.8</ele>
  <time>2026-09-01T19:59:25Z</time>
  <course>9.9</course>
  <speed>0.022360679774997897</speed>
  <fix>3d</fix>
</trkpt>
<trkpt lat="-27.2721936" lon="151.2900644">
  <ele>487.48</ele>
  <time>2026-09-01T19:59:25Z</time>
  <course>93.31</course>
  <speed>0.0</speed>
  <fix>3d</fix>
</trkpt>
<trkpt lat="-27.2721934" lon="151.2900642">
  <ele>488.04</ele>
  <time>2026-09-01T19:59:26Z</time>
  <course>9.89</course>
  <speed>0.022360679774997897</speed>
  <fix>3d</fix>
</trkpt>
<trkpt lat="-27.2721936" lon="151.2900644">
  <ele>487.48</ele>
  <time>2026-09-01T19:59:26Z</time>
  <course>93.31</course>
  <speed>0.0</speed>
  <fix>3d</fix>
</trkpt>
<trkpt lat="-27.2721934" lon="151.2900642">
  <ele>488.29</ele>
  <time>2026-09-01T19:59:26Z</time>
  <course>9.88</course>
  <speed>0.022360679774997897</speed>
  <fix>3d</fix>
</trkpt>
<trkpt lat="-27.2721936" lon="151.2900644">
  <ele>487.98</ele>
  <time>2026-09-01T19:59:26Z</time>
  <course>98.25</course>
  <speed>0.0</speed>
  <fix>3d</fix>
</trkpt>
<trkpt lat="-27.2721935" lon="151.2900642">
  <ele>488.55</ele>
  <time>2026-09-01T19:59:26Z</time>
  <course>9.87</course>
  <speed>0.022360679774997897</speed>
  <fix>3d</fix>
</trkpt>
<trkpt lat="-27.2721936" lon="151.2900644">
  <ele>487.98</ele>
  <time>2026-09-01T19:59:26Z</time>
  <course>98.25</course>
  <speed>0.0</speed>
  <fix>3d</fix>
</trkpt>
<trkpt lat="-27.2721934" lon="151.2900642">
  <ele>488.79</ele>
  <time>2026-09-01T19:59:26Z</time>
  <course>9.87</course>
  <speed>0.022360679774997897</speed>
  <fix>3d</fix>
</trkpt>
<trkpt lat="-27.2721936" lon="151.2900645">
  <ele>488.48</ele>
  <time>2026-09-01T19:59:26Z</time>
  <course>100.42</course>
  <speed>0.0</speed>
  <fix>3d</fix>
</trkpt>
<trkpt lat="-27.2721935" lon="151.2900642">
  <ele>489.04</ele>
  <time>2026-09-01T19:59:26Z</time>
  <course>9.86</course>
  <speed>0.022360679774997897</speed>
  <fix>3d</fix>
</trkpt>
<trkpt lat="-27.2721936" lon="151.2900645">
  <ele>488.48</ele>
  <time>2026-09-01T19:59:26Z</time>
  <course>100.42</course>
  <speed>0.0</speed>
  <fix>3d</fix>
</trkpt>
<trkpt lat="-27.2721935" lon="151.2900642">
  <ele>489.29</ele>
  <time>2026-09-01T19:59:26Z</time>
  <course>9.85</course>
  <speed>0.022360679774997897</speed>
  <fix>3d</fix>
</trkpt>
<trkpt lat="-27.2721936" lon="151.2900645">
  <ele>488.98</ele>
  <time>2026-09-01T19:59:26Z</time>
  <course>108.61</course>
  <speed>0.0</speed>
  <fix>3d</fix>
</trkpt>
<trkpt lat="-27.2721935" lon="151.2900642">
  <ele>489.54</ele>
  <time>2026-09-01T19:59:26Z</time>
  <course>9.84</course>
  <speed>0.022360679774997897</speed>
  <fix>3d</fix>
</trkpt>
<trkpt lat="-27.2721936" lon="151.2900645">
  <ele>488.98</ele>
  <time>2026-09-01T19:59:26Z</time>
  <course>108.61</course>
  <speed>0.0</speed>
  <fix>3d</fix>
</trkpt>
<trkpt lat="-27.2721935" lon="151.2900642">
  <ele>489.79</ele>
  <time>2026-09-01T19:59:26Z</time>
  <course>9.82</course>
  <speed>0.022360679774997897</speed>
  <fix>3d</fix>
</trkpt>
<trkpt lat="-27.2721936" lon="151.2900645">
  <ele>489.48</ele>
  <time>2026-09-01T19:59:26Z</time>
  <course>120.53</course>
  <speed>0.0</speed>
  <fix>3d</fix>
</trkpt>
<trkpt lat="-27.2721935" lon="151.2900642">
  <ele>490.04</ele>
  <time>2026-09-01T19:59:26Z</time>
  <course>9.81</course>
  <speed>0.022360679774997897</speed>
  <fix>3d</fix>
</trkpt>
<trkpt lat="-27.2721936" lon="151.2900645">
  <ele>489.48</ele>
  <time>2026-09-01T19:59:26Z</time>
  <course>120.53</course>
  <speed>0.0</speed>
  <fix>3d</fix>
</trkpt>
<trkpt lat="-27.2721935" lon="151.2900643">
  <ele>490.29</ele>
  <time>2026-09-01T19:59:26Z</time>
  <course>9.8</course>
  <speed>0.022360679774997897</speed>
  <fix>3d</fix>
</trkpt>
<trkpt lat="-27.2721936" lon="151.2900645">
  <ele>489.98</ele>
  <time>2026-09-01T19:59:26Z</time>
  <course>119.22</course>
  <speed>0.0</speed>
  <fix>3d</fix>
</trkpt>
<trkpt lat="-27.2721935" lon="151.2900643">
  <ele>490.54</ele>
  <time>2026-09-01T19:59:26Z</time>
  <course>9.8</course>
  <speed>0.022360679774997897</speed>
  <fix>3d</fix>
</trkpt>
<trkpt lat="-27.2721936" lon="151.2900645">
  <ele>489.98</ele>
  <time>2026-09-01T19:59:26Z</time>
  <course>119.22</course>
  <speed>0.0</speed>
  <fix>3d</fix>
</trkpt>
<trkpt lat="-27.2721935" lon="151.2900643">
  <ele>490.79</ele>
  <time>2026-09-01T19:59:26Z</time>
  <course>9.8</course>
  <speed>0.022360679774997897</speed>
  <fix>3d</fix>
</trkpt>
<trkpt lat="-27.2721936" lon="151.2900645">
  <ele>490.49</ele>
  <time>2026-09-01T19:59:26Z</time>
  <course>104.88</course>
  <speed>0.0</speed>
  <fix>3d</fix>
</trkpt>
<trkpt lat="-27.2721935" lon="151.2900643">
  <ele>491.04</ele>
  <time>2026-09-01T19:59:26Z</time>
  <course>9.82</course>
  <speed>0.022360679774997897</speed>
  <fix>3d</fix>
</trkpt>
<trkpt lat="-27.2721936" lon="151.2900645">
  <ele>490.49</ele>
  <time>2026-09-01T19:59:26Z</time>
  <course>104.88</course>
  <speed>0.0</speed>
  <fix>3d</fix>
</trkpt>
<trkpt lat="-27.2721935" lon="151.2900643">
  <ele>491.29</ele>
  <time>2026-09-01T19:59:26Z</time>
  <course>9.83</course>
  <speed>0.022360679774997897</speed>
  <fix>3d</fix>
</trkpt>
<trkpt lat="-27.2721936" lon="151.2900645">
  <ele>490.98</ele>
  <time>2026-09-01T19:59:26Z</time>
  <course>86.85</course>
  <speed>0.0</speed>
  <fix>3d</fix>
</trkpt>
<trkpt lat="-27.2721935" lon="151.2900643">
  <ele>491.53</ele>
  <time>2026-09-01T19:59:26Z</time>
  <course>9.84</course>
  <speed>0.022360679774997897</speed>
  <fix>3d</fix>
</trkpt>
<trkpt lat="-27.2721936" lon="151.2900645">
  <ele>490.98</ele>
  <time>2026-09-01T19:59:26Z</time>
  <course>86.85</course>
  <speed>0.0</speed>
  <fix>3d</fix>
</trkpt>
<trkpt lat="-27.2721935" lon="151.2900643">
  <ele>491.76</ele>
  <time>2026-09-01T19:59:26Z</time>
  <course>9.85</course>
  <speed>0.022360679774997897</speed>
  <fix>3d</fix>
</trkpt>
<trkpt lat="-27.2721936" lon="151.2900645">
  <ele>491.47</ele>
  <time>2026-09-01T19:59:26Z</time>
  <course>99.34</course>
  <speed>0.0</speed>
  <fix>3d</fix>
</trkpt>
<trkpt lat="-27.2721935" lon="151.2900643">
  <ele>491.98</ele>
  <time>2026-09-01T19:59:26Z</time>
  <course>9.85</course>
  <speed>0.01414213562373095</speed>
  <fix>3d</fix>
</trkpt>
<trkpt lat="-27.2721936" lon="151.2900645">
  <ele>491.47</ele>
  <time>2026-09-01T19:59:26Z</time>
  <course>99.34</course>
  <speed>0.0</speed>
  <fix>3d</fix>
</trkpt>
<trkpt lat="-27.2721935" lon="151.2900643">
  <ele>492.19</ele>
  <time>2026-09-01T19:59:26Z</time>
  <course>9.85</course>
  <speed>0.01</speed>
  <fix>3d</fix>
</trkpt>
<trkpt lat="-27.2721936" lon="151.2900645">
  <ele>491.91</ele>
  <time>2026-09-01T19:59:26Z</time>
  <course>170.06</course>
  <speed>0.0</speed>
  <fix>3d</fix>
</trkpt>
<trkpt lat="-27.2721935" lon="151.2900643">
  <ele>492.38</ele>
  <time>2026-09-01T19:59:26Z</time>
  <course>9.85</course>
  <speed>0.01</speed>
  <fix>3d</fix>
</trkpt>
<trkpt lat="-27.2721936" lon="151.2900645">
  <ele>491.91</ele>
  <time>2026-09-01T19:59:26Z</time>
  <course>170.06</course>
  <speed>0.0</speed>
  <fix>3d</fix>
</trkpt>
<trkpt lat="-27.2721935" lon="151.2900643">
  <ele>492.55</ele>
  <time>2026-09-01T19:59:26Z</time>
  <course>9.84</course>
  <speed>0.01414213562373095</speed>
  <fix>3d</fix>
</trkpt>
<trkpt lat="-27.2721936" lon="151.2900645">
  <ele>492.31</ele>
  <time>2026-09-01T19:59:26Z</time>
  <course>185.57</course>
  <speed>0.02</speed>
  <fix>3d</fix>
</trkpt>
<trkpt lat="-27.2721935" lon="151.2900643">
  <ele>492.7</ele>
  <time>2026-09-01T19:59:26Z</time>
  <course>9.84</course>
  <speed>0.03605551275463989</speed>
  <fix>3d</fix>
</trkpt>
<trkpt lat="-27.2721936" lon="151.2900645">
  <ele>492.31</ele>
  <time>2026-09-01T19:59:26Z</time>
  <course>185.57</course>
  <speed>0.02</speed>
  <fix>3d</fix>
</trkpt>
<trkpt lat="-27.2721935" lon="151.2900643">
  <ele>492.82</ele>
  <time>2026-09-01T19:59:26Z</time>
  <course>9.84</course>
  <speed>0.044721359549995794</speed>
  <fix>3d</fix>
</trkpt>
<trkpt lat="-27.2721936" lon="151.2900645">
  <ele>492.63</ele>
  <time>2026-09-01T19:59:26Z</time>
  <course>189.37</course>
  <speed>0.05</speed>
  <fix>3d</fix>
</trkpt>
<trkpt lat="-27.2721936" lon="151.2900643">
  <ele>492.92</ele>
  <time>2026-09-01T19:59:26Z</time>
  <course>9.84</course>
  <speed>0.07280109889280519</speed>
  <fix>3d</fix>
</trkpt>
<trkpt lat="-27.2721936" lon="151.2900645">
  <ele>492.63</ele>
  <time>2026-09-01T19:59:26Z</time>
  <course>189.37</course>
  <speed>0.05</speed>
  <fix>3d</fix>
</trkpt>
<trkpt lat="-27.2721937" lon="151.2900643">
  <ele>493.0</ele>
  <time>2026-09-01T19:59:26Z</time>
  <course>9.84</course>
  <speed>0.09486832980505139</speed>
  <fix>3d</fix>
</trkpt>
<trkpt lat="-27.2721937" lon="151.2900645">
  <ele>492.86</ele>
  <time>2026-09-01T19:59:26Z</time>
  <course>190.13</course>
  <speed>0.09</speed>
  <fix>3d</fix>
</trkpt>
<trkpt lat="-27.2721938" lon="151.2900643">
  <ele>493.06</ele>
  <time>2026-09-01T19:59:26Z</time>
  <course>9.83</course>
  <speed>0.12369316876852982</speed>
  <fix>3d</fix>
</trkpt>
<trkpt lat="-27.2721937" lon="151.2900645">
  <ele>492.86</ele>
  <time>2026-09-01T19:59:26Z</time>
  <course>190.13</course>
  <speed>0.09</speed>
  <fix>3d</fix>
</trkpt>
<trkpt lat="-27.2721939" lon="151.2900643">
  <ele>493.09</ele>
  <time>2026-09-01T19:59:26Z</time>
  <course>9.82</course>
  <speed>0.14560219778561037</speed>
  <fix>3d</fix>
</trkpt>
<trkpt lat="-27.2721939" lon="151.2900645">
  <ele>493.0</ele>
  <time>2026-09-01T19:59:26Z</time>
  <course>190.09</course>
  <speed>0.14</speed>
  <fix>3d</fix>
</trkpt>
<trkpt lat="-27.2721941" lon="151.2900643">
  <ele>493.11</ele>
  <time>2026-09-01T19:59:26Z</time>
  <course>9.8</course>
  <speed>0.17464249196572978</speed>
  <fix>3d</fix>
</trkpt>
<trkpt lat="-27.2721939" lon="151.2900645">
  <ele>493.0</ele>
  <time>2026-09-01T19:59:26Z</time>
  <course>190.09</course>
  <speed>0.14</speed>
  <fix>3d</fix>
</trkpt>
<trkpt lat="-27.2721942" lon="151.2900643">
  <ele>493.11</ele>
  <time>2026-09-01T19:59:26Z</time>
  <course>9.79</course>
  <speed>0.194164878389476</speed>
  <fix>3d</fix>
</trkpt>
<trkpt lat="-27.2721942" lon="151.2900644">
  <ele>493.06</ele>
  <time>2026-09-01T19:59:26Z</time>
  <course>190.11</course>
  <speed>0.19</speed>
  <fix>3d</fix>
</trkpt>
<trkpt lat="-27.2721944" lon="151.2900642">
  <ele>493.1</ele>
  <time>2026-09-01T19:59:26Z</time>
  <course>9.77</course>
  <speed>0.215870331449229</speed>
  <fix>3d</fix>
</trkpt>
<trkpt lat="-27.2721942" lon="151.2900644">
  <ele>493.06</ele>
  <time>2026-09-01T19:59:26Z</time>
  <course>190.11</course>
  <speed>0.19</speed>
  <fix>3d</fix>
</trkpt>
<trkpt lat="-27.2721946" lon="151.2900642">
  <ele>493.08</ele>
  <time>2026-09-01T19:59:26Z</time>
  <course>9.76</course>
  <speed>0.2353720459187964</speed>
  <fix>3d</fix>
</trkpt>
<trkpt lat="-27.2721946" lon="151.2900644">
  <ele>493.05</ele>
  <time>2026-09-01T19:59:26Z</time>
  <course>190.08</course>
  <speed>0.23</speed>
  <fix>3d</fix>
</trkpt>
<trkpt lat="-27.2721949" lon="151.2900642">
  <ele>493.05</ele>
  <time>2026-09-01T19:59:26Z</time>
  <course>9.74</course>
  <speed>0.24515301344262524</speed>
  <fix>3d</fix>
</trkpt>
<trkpt lat="-27.2721946" lon="151.2900644">
  <ele>493.05</ele>
  <time>2026-09-01T19:59:26Z</time>
  <course>190.08</course>
  <speed>0.23</speed>
  <fix>3d</fix>
</trkpt>
<trkpt lat="-27.2721951" lon="151.2900641">
  <ele>493.03</ele>
  <time>2026-09-01T19:59:26Z</time>
  <course>9.73</course>
  <speed>0.25495097567963926</speed>
  <fix>3d</fix>
</trkpt>
<trkpt lat="-27.272195" lon="151.2900643">
  <ele>493.01</ele>
  <time>2026-09-01T19:59:26Z</time>
  <course>190.04</course>
  <speed>0.27</speed>
  <fix>3d</fix>
</trkpt>
<trkpt lat="-27.2721954" lon="151.2900641">
  <ele>493.0</ele>
  <time>2026-09-01T19:59:26Z</time>
  <course>9.73</course>
  <speed>0.2668332812825267</speed>
  <fix>3d</fix>
</trkpt>
<trkpt lat="-27.272195" lon="151.2900643">
  <ele>493.01</ele>
  <time>2026-09-01T19:59:26Z</time>
  <course>190.04</course>
  <speed>0.27</speed>
  <fix>3d</fix>
</trkpt>
<trkpt lat="-27.2721956" lon="151.290064">
  <ele>492.97</ele>
  <time>2026-09-01T19:59:26Z</time>
  <course>9.72</course>
  <speed>0.2765863337187866</speed>
  <fix>3d</fix>
</trkpt>
<trkpt lat="-27.2721956" lon="151.2900642">
  <ele>492.96</ele>
  <time>2026-09-01T19:59:26Z</time>
  <course>190.01</course>
  <speed>0.29</speed>
  <fix>3d</fix>
</trkpt>
<trkpt lat="-27.2721959" lon="151.290064">
  <ele>492.95</ele>
  <time>2026-09-01T19:59:26Z</time>
  <course>9.72</course>
  <speed>0.2765863337187866</speed>
  <fix>3d</fix>
</trkpt>
<trkpt lat="-27.2721956" lon="151.2900642">
  <ele>492.96</ele>
  <time>2026-09-01T19:59:26Z</time>
  <course>190.01</course>
  <speed>0.29</speed>
  <fix>3d</fix>
</trkpt>
<trkpt lat="-27.2721961" lon="151.2900639">
  <ele>492.93</ele>
  <time>2026-09-01T19:59:26Z</time>
  <course>9.72</course>
  <speed>0.2765863337187866</speed>
  <fix>3d</fix>
</trkpt>
<trkpt lat="-27.2721961" lon="151.2900641">
  <ele>492.92</ele>
  <time>2026-09-01T19:59:26Z</time>
  <course>190.01</course>
  <speed>0.3</speed>
  <fix>3d</fix>
</trkpt>
<trkpt lat="-27.2721964" lon="151.2900639">
  <ele>492.92</ele>
  <time>2026-09-01T19:59:26Z</time>
  <course>9.72</course>
  <speed>0.2765863337187866</speed>
  <fix>3d</fix>
</trkpt>
<trkpt lat="-27.2721961" lon="151.2900641">
  <ele>492.92</ele>
  <time>2026-09-01T19:59:26Z</time>
  <course>190.01</course>
  <speed>0.3</speed>
  <fix>3d</fix>
</trkpt>
<trkpt lat="-27.2721967" lon="151.2900638">
  <ele>492.92</ele>
  <time>2026-09-01T19:59:26Z</time>
  <course>9.72</course>
  <speed>0.2668332812825267</speed>
  <fix>3d</fix>
</trkpt>
<trkpt lat="-27.2721966" lon="151.290064">
  <ele>492.9</ele>
  <time>2026-09-01T19:59:26Z</time>
  <course>190.02</course>
  <speed>0.3</speed>
  <fix>3d</fix>
</trkpt>
<trkpt lat="-27.2721969" lon="151.2900638">
  <ele>492.91</ele>
  <time>2026-09-01T19:59:26Z</time>
  <course>9.72</course>
  <speed>0.26476404589747454</speed>
  <fix>3d</fix>
</trkpt>
<trkpt lat="-27.2721966" lon="151.290064">
  <ele>492.9</ele>
  <time>2026-09-01T19:59:26Z</time>
  <course>190.02</course>
  <speed>0.3</speed>
  <fix>3d</fix>
</trkpt>
<trkpt lat="-27.2721972" lon="151.2900638">
  <ele>492.92</ele>
  <time>2026-09-01T19:59:26Z</time>
  <course>9.72</course>
  <speed>0.25495097567963926</speed>
  <fix>3d</fix>
</trkpt>
<trkpt lat="-27.2721972" lon="151.2900638">
  <ele>492.9</ele>
  <time>2026-09-01T19:59:26Z</time>
  <course>190.03</course>
  <speed>0.29</speed>
  <fix>3d</fix>
</trkpt>
<trkpt lat="-27.2721974" lon="151.2900637">
  <ele>492.92</ele>
  <time>2026-09-01T19:59:26Z</time>
  <course>9.72</course>
  <speed>0.24515301344262524</speed>
  <fix>3d</fix>
</trkpt>
<trkpt lat="-27.2721972" lon="151.2900638">
  <ele>492.9</ele>
  <time>2026-09-01T19:59:26Z</time>
  <course>190.03</course>
  <speed>0.29</speed>
  <fix>3d</fix>
</trkpt>
<trkpt lat="-27.2721977" lon="151.2900637">
  <ele>492.94</ele>
  <time>2026-09-01T19:59:26Z</time>
  <course>9.71</course>
  <speed>0.2353720459187964</speed>
  <fix>3d</fix>
</trkpt>
<trkpt lat="-27.2721977" lon="151.2900637">
  <ele>492.92</ele>
  <time>2026-09-01T19:59:26Z</time>
  <course>190.04</course>
  <speed>0.28</speed>
  <fix>3d</fix>
</trkpt>
<trkpt lat="-27.2721979" lon="151.2900636">
  <ele>492.95</ele>
  <time>2026-09-01T19:59:26Z</time>
  <course>9.71</course>
  <speed>0.22561028345356957</speed>
  <fix>3d</fix>
</trkpt>
<trkpt lat="-27.2721977" lon="151.2900637">
  <ele>492.92</ele>
  <time>2026-09-01T19:59:26Z</time>
  <course>190.04</course>
  <speed>0.28</speed>
  <fix>3d</fix>
</trkpt>
<trkpt lat="-27.2721981" lon="151.2900636">
  <ele>492.97</ele>
  <time>2026-09-01T19:59:26Z</time>
  <course>9.71</course>
  <speed>0.215870331449229</speed>
  <fix>3d</fix>
</trkpt>
<trkpt lat="-27.2721982" lon="151.2900636">
  <ele>492.96</ele>
  <time>2026-09-01T19:59:26Z</time>
  <course>190.05</course>
  <speed>0.26</speed>
  <fix>3d</fix>
</trkpt>
<trkpt lat="-27.2721983" lon="151.2900635">
  <ele>492.98</ele>
  <time>2026-09-01T19:59:26Z</time>
  <course>9.7</course>
  <speed>0.20615528128088303</speed>
  <fix>3d</fix>
</trkpt>
<trkpt lat="-27.2721982" lon="151.2900636">
  <ele>492.96</ele>
  <time>2026-09-01T19:59:26Z</time>
  <course>190.05</course>
  <speed>0.26</speed>
  <fix>3d</fix>
</trkpt>
<trkpt lat="-27.2721985" lon="151.2900635">
  <ele>493.0</ele>
  <time>2026-09-01T19:59:26Z</time>
  <course>9.7</course>
  <speed>0.194164878389476</speed>
  <fix>3d</fix>
</trkpt>
<trkpt lat="-27.2721985" lon="151.2900636">
  <ele>493.0</ele>
  <time>2026-09-01T19:59:26Z</time>
  <course>190.05</course>
  <speed>0.23</speed>
  <fix>3d</fix>
</trkpt>
<trkpt lat="-27.2721987" lon="151.2900634">
  <ele>493.01</ele>
  <time>2026-09-01T19:59:26Z</time>
  <course>9.7</course>
  <speed>0.17464249196572978</speed>
  <fix>3d</fix>
</trkpt>
<trkpt lat="-27.2721985" lon="151.2900636">
  <ele>493.0</ele>
  <time>2026-09-01T19:59:26Z</time>
  <course>190.05</course>
  <speed>0.23</speed>
  <fix>3d</fix>
</trkpt>
<trkpt lat="-27.2721989" lon="151.2900634">
  <ele>493.03</ele>
  <time>2026-09-01T19:59:26Z</time>
  <course>9.7</course>
  <speed>0.1649242250247064</speed>
  <fix>3d</fix>
</trkpt>
<trkpt lat="-27.2721985" lon="151.2900636">
  <ele>493.0</ele>
  <time>2026-09-01T19:59:26Z</time>
  <course>190.05</course>
  <speed>0.23</speed>
  <fix>3d</fix>
</trkpt>
<trkpt lat="-27.272199" lon="151.2900634">
  <ele>493.04</ele>
  <time>2026-09-01T19:59:26Z</time>
  <course>9.7</course>
  <speed>0.14560219778561037</speed>
  <fix>3d</fix>
</trkpt>
<trkpt lat="-27.272199" lon="151.2900635">
  <ele>493.03</ele>
  <time>2026-09-01T19:59:26Z</time>
  <course>190.05</course>
  <speed>0.2</speed>
  <fix>3d</fix>
</trkpt>
<trkpt lat="-27.2721992" lon="151.2900633">
  <ele>493.05</ele>
  <time>2026-09-01T19:59:26Z</time>
  <course>9.7</course>
  <speed>0.12369316876852982</speed>
  <fix>3d</fix>
</trkpt>
<trkpt lat="-27.2721993" lon="151.2900634">
  <ele>493.06</ele>
  <time>2026-09-01T19:59:26Z</time>
  <course>190.14</course>
  <speed>0.17</speed>
  <fix>3d</fix>
</trkpt>
<trkpt lat="-27.2721993" lon="151.2900633">
  <ele>493.05</ele>
  <time>2026-09-01T19:59:26Z</time>
  <course>9.71</course>
  <speed>0.11401754250991379</speed>
  <fix>3d</fix>
</trkpt>
<trkpt lat="-27.2721993" lon="151.2900634">
  <ele>493.06</ele>
  <time>2026-09-01T19:59:26Z</time>
  <course>190.14</course>
  <speed>0.17</speed>
  <fix>3d</fix>
</trkpt>
<trkpt lat="-27.2721994" lon="151.2900633">
  <ele>493.06</ele>
  <time>2026-09-01T19:59:26Z</time>
  <course>9.72</course>
  <speed>0.09486832980505139</speed>
  <fix>3d</fix>
</trkpt>
<trkpt lat="-27.2721996" lon="151.2900633">
  <ele>493.09</ele>
  <time>2026-09-01T19:59:26Z</time>
  <course>190.67</course>
  <speed>0.13</speed>
  <fix>3d</fix>
</trkpt>
<trkpt lat="-27.2721995" lon="151.2900633">
  <ele>493.06</ele>
  <time>2026-09-01T19:59:26Z</time>
  <course>9.74</course>
  <speed>0.07615773105863909</speed>
  <fix>3d</fix>
</trkpt>
<trkpt lat="-27.2721996" lon="151.2900633">
  <ele>493.09</ele>
  <time>2026-09-01T19:59:26Z</time>
  <course>190.67</course>
  <speed>0.13</speed>
  <fix>3d</fix>
</trkpt>
<trkpt lat="-27.2721996" lon="151.2900633">
  <ele>493.06</ele>
  <time>2026-09-01T19:59:26Z</time>
  <course>9.76</course>
  <speed>0.053851648071345036</speed>
  <fix>3d</fix>
</trkpt>
<trkpt lat="-27.2721998" lon="151.2900633">
  <ele>493.1</ele>
  <time>2026-09-01T19:59:26Z</time>
  <course>191.96</course>
  <speed>0.1</speed>
  <fix>3d</fix>
</trkpt>
<trkpt lat="-27.2721997" lon="151.2900632">
  <ele>493.06</ele>
  <time>2026-09-01T19:59:26Z</time>
  <course>9.78</course>
  <speed>0.03605551275463989</speed>
  <fix>3d</fix>
</trkpt>
<trkpt lat="-27.2721998" lon="151.2900633">
  <ele>493.1</ele>
  <time>2026-09-01T19:59:26Z</time>
  <course>191.96</course>
  <speed>0.1</speed>
  <fix>3d</fix>
</trkpt>
<trkpt lat="-27.2721997" lon="151.2900632">
  <ele>493.06</ele>
  <time>2026-09-01T19:59:26Z</time>
  <course>9.8</course>
  <speed>0.022360679774997897</speed>
  <fix>3d</fix>
</trkpt>
<trkpt lat="-27.2722" lon="151.2900632">
  <ele>493.11</ele>
  <time>2026-09-01T19:59:26Z</time>
  <course>194.71</course>
  <speed>0.06</speed>
  <fix>3d</fix>
</trkpt>
<trkpt lat="-27.2721998" lon="151.2900632">
  <ele>493.06</ele>
  <time>2026-09-01T19:59:26Z</time>
  <course>9.82</course>
  <speed>0.02</speed>
  <fix>3d</fix>
</trkpt>
<trkpt lat="-27.2722" lon="151.2900632">
  <ele>493.11</ele>
  <time>2026-09-01T19:59:26Z</time>
  <course>194.71</course>
  <speed>0.06</speed>
  <fix>3d</fix>
</trkpt>
<trkpt lat="-27.2721998" lon="151.2900632">
  <ele>493.05</ele>
  <time>2026-09-01T19:59:26Z</time>
  <course>9.83</course>
  <speed>0.022360679774997897</speed>
  <fix>3d</fix>
</trkpt>
<trkpt lat="-27.2722001" lon="151.2900632">
  <ele>493.11</ele>
  <time>2026-09-01T19:59:26Z</time>
  <course>205.83</course>
  <speed>0.02</speed>
  <fix>3d</fix>
</trkpt>
<trkpt lat="-27.2721998" lon="151.2900632">
  <ele>493.05</ele>
  <time>2026-09-01T19:59:26Z</time>
  <course>9.84</course>
  <speed>0.0412310562561766</speed>
  <fix>3d</fix>
</trkpt>
<trkpt lat="-27.2722001" lon="151.2900632">
  <ele>493.11</ele>
  <time>2026-09-01T19:59:26Z</time>
  <course>205.83</course>
  <speed>0.02</speed>
  <fix>3d</fix>
</trkpt>
<trkpt lat="-27.2721997" lon="151.2900632">
  <ele>493.05</ele>
  <time>2026-09-01T19:59:26Z</time>
  <course>9.84</course>
  <speed>0.06082762530298219</speed>
  <fix>3d</fix>
</trkpt>
<trkpt lat="-27.2722001" lon="151.2900632">
  <ele>493.11</ele>
  <time>2026-09-01T19:59:26Z</time>
  <course>344.07</course>
  <speed>0.01</speed>
  <fix>3d</fix>
</trkpt>
<trkpt lat="-27.2721997" lon="151.2900632">
  <ele>493.05</ele>
  <time>2026-09-01T19:59:26Z</time>
  <course>9.83</course>
  <speed>0.08</speed>
  <fix>3d</fix>
</trkpt>
<trkpt lat="-27.2722001" lon="151.2900632">
  <ele>493.11</ele>
  <time>2026-09-01T19:59:26Z</time>
  <course>344.07</course>
  <speed>0.01</speed>
  <fix>3d</fix>
</trkpt>
<trkpt lat="-27.2721997" lon="151.2900632">
  <ele>493.04</ele>
  <time>2026-09-01T19:59:26Z</time>
  <course>9.82</course>
  <speed>0.1</speed>
  <fix>3d</fix>
</trkpt>
<trkpt lat="-27.2722001" lon="151.2900632">
  <ele>493.11</ele>
  <time>2026-09-01T19:59:26Z</time>
  <course>0.97</course>
  <speed>0.05</speed>
  <fix>3d</fix>
</trkpt>
<trkpt lat="-27.2721996" lon="151.2900632">
  <ele>493.04</ele>
  <time>2026-09-01T19:59:26Z</time>
  <course>9.82</course>
  <speed>0.12</speed>
  <fix>3d</fix>
</trkpt>
<trkpt lat="-27.2722001" lon="151.2900632">
  <ele>493.11</ele>
  <time>2026-09-01T19:59:26Z</time>
  <course>0.97</course>
  <speed>0.05</speed>
  <fix>3d</fix>
</trkpt>
<trkpt lat="-27.2721996" lon="151.2900632">
  <ele>493.04</ele>
  <time>2026-09-01T19:59:26Z</time>
  <course>9.81</course>
  <speed>0.13</speed>
  <fix>3d</fix>
</trkpt>
<trkpt lat="-27.2722" lon="151.2900632">
  <ele>493.11</ele>
  <time>2026-09-01T19:59:26Z</time>
  <course>4.35</course>
  <speed>0.09</speed>
  <fix>3d</fix>
</trkpt>
<trkpt lat="-27.2721995" lon="151.2900632">
  <ele>493.04</ele>
  <time>2026-09-01T19:59:26Z</time>
  <course>9.8</course>
  <speed>0.15</speed>
  <fix>3d</fix>
</trkpt>
<trkpt lat="-27.2722" lon="151.2900632">
  <ele>493.11</ele>
  <time>2026-09-01T19:59:26Z</time>
  <course>4.35</course>
  <speed>0.09</speed>
  <fix>3d</fix>
</trkpt>
<trkpt lat="-27.2721994" lon="151.2900632">
  <ele>493.04</ele>
  <time>2026-09-01T19:59:26Z</time>
  <course>9.8</course>
  <speed>0.17</speed>
  <fix>3d</fix>
</trkpt>
<trkpt lat="-27.2721997" lon="151.2900632">
  <ele>493.11</ele>
  <time>2026-09-01T19:59:26Z</time>
  <course>5.86</course>
  <speed>0.13</speed>
  <fix>3d</fix>
</trkpt>
<trkpt lat="-27.2721992" lon="151.2900632">
  <ele>493.05</ele>
  <time>2026-09-01T19:59:26Z</time>
  <course>9.79</course>
  <speed>0.19</speed>
  <fix>3d</fix>
</trkpt>
<trkpt lat="-27.2721997" lon="151.2900632">
  <ele>493.11</ele>
  <time>2026-09-01T19:59:26Z</time>
  <course>5.86</course>
  <speed>0.13</speed>
  <fix>3d</fix>
</trkpt>
<trkpt lat="-27.2721991" lon="151.2900632">
  <ele>493.05</ele>
  <time>2026-09-01T19:59:26Z</time>
  <course>9.8</course>
  <speed>0.2002498439450079</speed>
  <fix>3d</fix>
</trkpt>
<trkpt lat="-27.2721997" lon="151.2900632">
  <ele>493.11</ele>
  <time>2026-09-01T19:59:26Z</time>
  <course>5.86</course>
  <speed>0.13</speed>
  <fix>3d</fix>
</trkpt>
<trkpt lat="-27.2721989" lon="151.2900632">
  <ele>493.05</ele>
  <time>2026-09-01T19:59:26Z</time>
  <course>9.8</course>
  <speed>0.22022715545545238</speed>
  <fix>3d</fix>
</trkpt>
<trkpt lat="-27.2721994" lon="151.2900632">
  <ele>493.11</ele>
  <time>2026-09-01T19:59:26Z</time>
  <course>6.58</course>
  <speed>0.17</speed>
  <fix>3d</fix>
</trkpt>
<trkpt lat="-27.2721987" lon="151.2900632">
  <ele>493.06</ele>
  <time>2026-09-01T19:59:26Z</time>
  <course>9.81</course>
  <speed>0.23021728866442676</speed>
  <fix>3d</fix>
</trkpt>
<trkpt lat="-27.2721994" lon="151.2900632">
  <ele>493.11</ele>
  <time>2026-09-01T19:59:26Z</time>
  <course>6.58</course>
  <speed>0.17</speed>
  <fix>3d</fix>
</trkpt>
<trkpt lat="-27.2721985" lon="151.2900632">
  <ele>493.06</ele>
  <time>2026-09-01T19:59:26Z</time>
  <course>9.81</course>
  <speed>0.24020824298928628</speed>
  <fix>3d</fix>
</trkpt>
<trkpt lat="-27.2721991" lon="151.2900632">
  <ele>493.12</ele>
  <time>2026-09-01T19:59:26Z</time>
  <course>6.89</course>
  <speed>0.2</speed>
  <fix>3d</fix>
</trkpt>
<trkpt lat="-27.2721983" lon="151.2900632">
  <ele>493.06</ele>
  <time>2026-09-01T19:59:26Z</time>
  <course>9.81</course>
  <speed>0.2501999200639361</speed>
  <fix>3d</fix>
</trkpt>
<trkpt lat="-27.2721991" lon="151.2900632">
  <ele>493.12</ele>
  <time>2026-09-01T19:59:26Z</time>
  <course>6.89</course>
  <speed>0.2</speed>
  <fix>3d</fix>
</trkpt>
<trkpt lat="-27.2721981" lon="151.2900633">
  <ele>493.06</ele>
  <time>2026-09-01T19:59:26Z</time>
  <course>9.82</course>
  <speed>0.260768096208106</speed>
  <fix>3d</fix>
</trkpt>
<trkpt lat="-27.2721986" lon="151.2900633">
  <ele>493.13</ele>
  <time>2026-09-01T19:59:26Z</time>
  <course>7.11</course>
  <speed>0.23</speed>
  <fix>3d</fix>
</trkpt>
<trkpt lat="-27.2721979" lon="151.2900633">
  <ele>493.06</ele>
  <time>2026-09-01T19:59:26Z</time>
  <course>9.82</course>
  <speed>0.2707397274136177</speed>
  <fix>3d</fix>
</trkpt>
<trkpt lat="-27.2721986" lon="151.2900633">
  <ele>493.13</ele>
  <time>2026-09-01T19:59:26Z</time>
  <course>7.11</course>
  <speed>0.23</speed>
  <fix>3d</fix>
</trkpt>
<trkpt lat="-27.2721977" lon="151.2900633">
  <ele>493.06</ele>
  <time>2026-09-01T19:59:26Z</time>
  <course>9.82</course>
  <speed>0.280713376952364</speed>
  <fix>3d</fix>
</trkpt>
<trkpt lat="-27.2721983" lon="151.2900633">
  <ele>493.14</ele>
  <time>2026-09-01T19:59:26Z</time>
  <course>7.24</course>
  <speed>0.25</speed>
  <fix>3d</fix>
</trkpt>
<trkpt lat="-27.2721974" lon="151.2900633">
  <ele>493.07</ele>
  <time>2026-09-01T19:59:26Z</time>
  <course>9.82</course>
  <speed>0.280713376952364</speed>
  <fix>3d</fix>
</trkpt>
<trkpt lat="-27.2721983" lon="151.2900633">
  <ele>493.14</ele>
  <time>2026-09-01T19:59:26Z</time>
  <course>7.24</course>
  <speed>0.25</speed>
  <fix>3d</fix>
</trkpt>
<trkpt lat="-27.2721972" lon="151.2900634">
  <ele>493.07</ele>
  <time>2026-09-01T19:59:26Z</time>
  <course>9.81</course>
  <speed>0.2906888370749727</speed>
  <fix>3d</fix>
</trkpt>
<trkpt lat="-27.2721978" lon="151.2900634">
  <ele>493.14</ele>
  <time>2026-09-01T19:59:26Z</time>
  <course>7.3</course>
  <speed>0.27</speed>
  <fix>3d</fix>
</trkpt>
<trkpt lat="-27.2721969" lon="151.2900634">
  <ele>493.07</ele>
  <time>2026-09-01T19:59:26Z</time>
  <course>9.81</course>
  <speed>0.2906888370749727</speed>
  <fix>3d</fix>
</trkpt>
<trkpt lat="-27.2721973" lon="151.2900635">
  <ele>493.15</ele>
  <time>2026-09-01T19:59:26Z</time>
  <course>7.44</course>
  <speed>0.28</speed>
  <fix>3d</fix>
</trkpt>
<trkpt lat="-27.2721967" lon="151.2900634">
  <ele>493.07</ele>
  <time>2026-09-01T19:59:26Z</time>
  <course>9.81</course>
  <speed>0.30066592756745814</speed>
  <fix>3d</fix>
</trkpt>
<trkpt lat="-27.2721973" lon="151.2900635">
  <ele>493.15</ele>
  <time>2026-09-01T19:59:26Z</time>
  <course>7.44</course>
  <speed>0.28</speed>
  <fix>3d</fix>
</trkpt>
<trkpt lat="-27.2721964" lon="151.2900635">
  <ele>493.07</ele>
  <time>2026-09-01T19:59:26Z</time>
  <course>9.8</course>
  <speed>0.30066592756745814</speed>
  <fix>3d</fix>
</trkpt>
<trkpt lat="-27.2721968" lon="151.2900636">
  <ele>493.15</ele>
  <time>2026-09-01T19:59:26Z</time>
  <course>7.59</course>
  <speed>0.29</speed>
  <fix>3d</fix>
</trkpt>
<trkpt lat="-27.2721962" lon="151.2900635">
  <ele>493.07</ele>
  <time>2026-09-01T19:59:26Z</time>
  <course>9.8</course>
  <speed>0.30066592756745814</speed>
  <fix>3d</fix>
</trkpt>
<trkpt lat="-27.2721968" lon="151.2900636">
  <ele>493.15</ele>
  <time>2026-09-01T19:59:26Z</time>
  <course>7.59</course>
  <speed>0.29</speed>
  <fix>3d</fix>
</trkpt>
<trkpt lat="-27.2721959" lon="151.2900636">
  <ele>493.07</ele>
  <time>2026-09-01T19:59:26Z</time>
  <course>9.8</course>
  <speed>0.2906888370749727</speed>
  <fix>3d</fix>
</trkpt>
<trkpt lat="-27.2721963" lon="151.2900637">
  <ele>493.16</ele>
  <time>2026-09-01T19:59:26Z</time>
  <course>7.74</course>
  <speed>0.29</speed>
  <fix>3d</fix>
</trkpt>
<trkpt lat="-27.2721957" lon="151.2900636">
  <ele>493.07</ele>
  <time>2026-09-01T19:59:26Z</time>
  <course>9.81</course>
  <speed>0.2906888370749727</speed>
  <fix>3d</fix>
</trkpt>
<trkpt lat="-27.2721963" lon="151.2900637">
  <ele>493.16</ele>
  <time>2026-09-01T19:59:26Z</time>
  <course>7.74</course>
  <speed>0.29</speed>
  <fix>3d</fix>
</trkpt>
<trkpt lat="-27.2721954" lon="151.2900636">
  <ele>493.06</ele>
  <time>2026-09-01T19:59:26Z</time>
  <course>9.81</course>
  <speed>0.291547594742265</speed>
  <fix>3d</fix>
</trkpt>
<trkpt lat="-27.2721957" lon="151.2900637">
  <ele>493.16</ele>
  <time>2026-09-01T19:59:26Z</time>
  <course>7.88</course>
  <speed>0.29</speed>
  <fix>3d</fix>
</trkpt>
<trkpt lat="-27.2721952" lon="151.2900637">
  <ele>493.06</ele>
  <time>2026-09-01T19:59:26Z</time>
  <course>9.81</course>
  <speed>0.2816025568065745</speed>
  <fix>3d</fix>
</trkpt>
<trkpt lat="-27.2721957" lon="151.2900637">
  <ele>493.16</ele>
  <time>2026-09-01T19:59:26Z</time>
  <course>7.88</course>
  <speed>0.29</speed>
  <fix>3d</fix>
</trkpt>
<trkpt lat="-27.2721949" lon="151.2900637">
  <ele>493.06</ele>
  <time>2026-09-01T19:59:26Z</time>
  <course>9.82</course>
  <speed>0.280713376952364</speed>
  <fix>3d</fix>
</trkpt>
<trkpt lat="-27.2721952" lon="151.2900638">
  <ele>493.16</ele>
  <time>2026-09-01T19:59:26Z</time>
  <course>8.03</course>
  <speed>0.28</speed>
  <fix>3d</fix>
</trkpt>
<trkpt lat="-27.2721947" lon="151.2900638">
  <ele>493.06</ele>
  <time>2026-09-01T19:59:26Z</time>
  <course>9.82</course>
  <speed>0.2707397274136177</speed>
  <fix>3d</fix>
</trkpt>
<trkpt lat="-27.2721952" lon="151.2900638">
  <ele>493.16</ele>
  <time>2026-09-01T19:59:26Z</time>
  <course>8.03</course>
  <speed>0.28</speed>
  <fix>3d</fix>
</trkpt>
<trkpt lat="-27.2721945" lon="151.2900638">
  <ele>493.06</ele>
  <time>2026-09-01T19:59:26Z</time>
  <course>9.82</course>
  <speed>0.260768096208106</speed>
  <fix>3d</fix>
</trkpt>
<trkpt lat="-27.2721947" lon="151.2900639">
  <ele>493.16</ele>
  <time>2026-09-01T19:59:26Z</time>
  <course>8.17</course>
  <speed>0.27</speed>
  <fix>3d</fix>
</trkpt>
<trkpt lat="-27.2721942" lon="151.2900638">
  <ele>493.06</ele>
  <time>2026-09-01T19:59:26Z</time>
  <course>9.82</course>
  <speed>0.25079872407968906</speed>
  <fix>3d</fix>
</trkpt>
<trkpt lat="-27.2721947" lon="151.2900639">
  <ele>493.16</ele>
  <time>2026-09-01T19:59:26Z</time>
  <course>8.17</course>
  <speed>0.27</speed>
  <fix>3d</fix>
</trkpt>
<trkpt lat="-27.272194" lon="151.2900639">
  <ele>493.06</ele>
  <time>2026-09-01T19:59:26Z</time>
  <course>9.81</course>
  <speed>0.24083189157584592</speed>
  <fix>3d</fix>
</trkpt>
<trkpt lat="-27.2721947" lon="151.2900639">
  <ele>493.16</ele>
  <time>2026-09-01T19:59:26Z</time>
  <course>8.17</course>
  <speed>0.27</speed>
  <fix>3d</fix>
</trkpt>
<trkpt lat="-27.2721938" lon="151.2900639">
  <ele>493.06</ele>
  <time>2026-09-01T19:59:26Z</time>
  <course>9.81</course>
  <speed>0.2308679276123039</speed>
  <fix>3d</fix>
</trkpt>
<trkpt lat="-27.2721943" lon="151.290064">
  <ele>493.16</ele>
  <time>2026-09-01T19:59:26Z</time>
  <course>8.28</course>
  <speed>0.25</speed>
  <fix>3d</fix>
</trkpt>
<trkpt lat="-27.2721936" lon="151.2900639">
  <ele>493.06</ele>
  <time>2026-09-01T19:59:26Z</time>
  <course>9.81</course>
  <speed>0.22090722034374521</speed>
  <fix>3d</fix>
</trkpt>
<trkpt lat="-27.2721943" lon="151.290064">
  <ele>493.16</ele>
  <time>2026-09-01T19:59:26Z</time>
  <course>8.28</course>
  <speed>0.25</speed>
  <fix>3d</fix>
</trkpt>
<trkpt lat="-27.2721934" lon="151.290064">
  <ele>493.07</ele>
  <time>2026-09-01T19:59:26Z</time>
  <course>9.81</course>
  <speed>0.2109502310972899</speed>
  <fix>3d</fix>
</trkpt>
<trkpt lat="-27.2721938" lon="151.290064">
  <ele>493.17</ele>
  <time>2026-09-01T19:59:26Z</time>
  <course>8.38</course>
  <speed>0.23</speed>
  <fix>3d</fix>
</trkpt>
<trkpt lat="-27.2721932" lon="151.290064">
  <ele>493.07</ele>
  <time>2026-09-01T19:59:26Z</time>
  <course>9.82</course>
  <speed>0.2009975124224178</speed>
  <fix>3d</fix>
</trkpt>
<trkpt lat="-27.2721938" lon="151.290064">
  <ele>493.17</ele>
  <time>2026-09-01T19:59:26Z</time>
  <course>8.38</course>
  <speed>0.23</speed>
  <fix>3d</fix>
</trkpt>
<trkpt lat="-27.2721931" lon="151.290064">
  <ele>493.07</ele>
  <time>2026-09-01T19:59:26Z</time>
  <course>9.81</course>
  <speed>0.18110770276274835</speed>
  <fix>3d</fix>
</trkpt>
<trkpt lat="-27.2721934" lon="151.2900641">
  <ele>493.17</ele>
  <time>2026-09-01T19:59:26Z</time>
  <course>8.47</course>
  <speed>0.21</speed>
  <fix>3d</fix>
</trkpt>
<trkpt lat="-27.2721929" lon="151.2900641">
  <ele>493.07</ele>
  <time>2026-09-01T19:59:26Z</time>
  <course>9.81</course>
  <speed>0.17029386365926402</speed>
  <fix>3d</fix>
</trkpt>
<trkpt lat="-27.2721934" lon="151.2900641">
  <ele>493.17</ele>
  <time>2026-09-01T19:59:26Z</time>
  <course>8.47</course>
  <speed>0.21</speed>
  <fix>3d</fix>
</trkpt>
<trkpt lat="-27.2721928" lon="151.2900641">
  <ele>493.07</ele>
  <time>2026-09-01T19:59:26Z</time>
  <course>9.82</course>
  <speed>0.16031219541881397</speed>
  <fix>3d</fix>
</trkpt>
<trkpt lat="-27.2721931" lon="151.2900642">
  <ele>493.17</ele>
  <time>2026-09-01T19:59:26Z</time>
  <course>8.55</course>
  <speed>0.18</speed>
  <fix>3d</fix>
</trkpt>
<trkpt lat="-27.2721926" lon="151.2900641">
  <ele>493.07</ele>
  <time>2026-09-01T19:59:26Z</time>
  <course>9.82</course>
  <speed>0.140356688476182</speed>
  <fix>3d</fix>
</trkpt>
<trkpt lat="-27.2721931" lon="151.2900642">
  <ele>493.17</ele>
  <time>2026-09-01T19:59:26Z</time>
  <course>8.55</course>
  <speed>0.18</speed>
  <fix>3d</fix>
</trkpt>
<trkpt lat="-27.2721925" lon="151.2900641">
  <ele>493.07</ele>
  <time>2026-09-01T19:59:26Z</time>
  <course>9.82</course>
  <speed>0.130384048104053</speed>
  <fix>3d</fix>
</trkpt>
<trkpt lat="-27.2721927" lon="151.2900642">
  <ele>493.18</ele>
  <time>2026-09-01T19:59:26Z</time>
  <course>8.58</course>
  <speed>0.15</speed>
  <fix>3d</fix>
</trkpt>
<trkpt lat="-27.2721924" lon="151.2900642">
  <ele>493.07</ele>
  <time>2026-09-01T19:59:26Z</time>
  <course>9.82</course>
  <speed>0.11045361017187261</speed>
  <fix>3d</fix>
</trkpt>
<trkpt lat="-27.2721927" lon="151.2900642">
  <ele>493.18</ele>
  <time>2026-09-01T19:59:26Z</time>
  <course>8.58</course>
  <speed>0.15</speed>
  <fix>3d</fix>
</trkpt>
<trkpt lat="-27.2721923" lon="151.2900642">
  <ele>493.08</ele>
  <time>2026-09-01T19:59:26Z</time>
  <course>9.82</course>
  <speed>0.1</speed>
  <fix>3d</fix>
</trkpt>
<trkpt lat="-27.2721925" lon="151.2900642">
  <ele>493.18</ele>
  <time>2026-09-01T19:59:26Z</time>
  <course>8.53</course>
  <speed>0.13</speed>
  <fix>3d</fix>
</trkpt>
<trkpt lat="-27.2721922" lon="151.2900642">
  <ele>493.08</ele>
  <time>2026-09-01T19:59:26Z</time>
  <course>9.82</course>
  <speed>0.08</speed>
  <fix>3d</fix>
</trkpt>
<trkpt lat="-27.2721925" lon="151.2900642">
  <ele>493.18</ele>
  <time>2026-09-01T19:59:26Z</time>
  <course>8.53</course>
  <speed>0.13</speed>
  <fix>3d</fix>
</trkpt>
<trkpt lat="-27.2721922" lon="151.2900642">
  <ele>493.08</ele>
  <time>2026-09-01T19:59:26Z</time>
  <course>9.82</course>
  <speed>0.07</speed>
  <fix>3d</fix>
</trkpt>
<trkpt lat="-27.2721923" lon="151.2900643">
  <ele>493.18</ele>
  <time>2026-09-01T19:59:26Z</time>
  <course>8.41</course>
  <speed>0.1</speed>
  <fix>3d</fix>
</trkpt>
<trkpt lat="-27.2721921" lon="151.2900642">
  <ele>493.08</ele>
  <time>2026-09-01T19:59:26Z</time>
  <course>9.82</course>
  <speed>0.06</speed>
  <fix>3d</fix>
</trkpt>
<trkpt lat="-27.2721923" lon="151.2900643">
  <ele>493.18</ele>
  <time>2026-09-01T19:59:26Z</time>
  <course>8.41</course>
  <speed>0.1</speed>
  <fix>3d</fix>
</trkpt>
<trkpt lat="-27.2721921" lon="151.2900642">
  <ele>493.08</ele>
  <time>2026-09-01T19:59:26Z</time>
  <course>9.82</course>
  <speed>0.04</speed>
  <fix>3d</fix>
</trkpt>
<trkpt lat="-27.2721921" lon="151.2900644">
  <ele>493.18</ele>
  <time>2026-09-01T19:59:26Z</time>
  <course>8.18</course>
  <speed>0.07</speed>
  <fix>3d</fix>
</trkpt>
<trkpt lat="-27.272192" lon="151.2900642">
  <ele>493.08</ele>
  <time>2026-09-01T19:59:26Z</time>
  <course>9.82</course>
  <speed>0.03</speed>
  <fix>3d</fix>
</trkpt>
<trkpt lat="-27.272192" lon="151.2900644">
  <ele>493.18</ele>
  <time>2026-09-01T19:59:26Z</time>
  <course>7.6</course>
  <speed>0.04</speed>
  <fix>3d</fix>
</trkpt>
<trkpt lat="-27.272192" lon="151.2900643">
  <ele>493.08</ele>
  <time>2026-09-01T19:59:26Z</time>
  <course>9.82</course>
  <speed>0.02</speed>
  <fix>3d</fix>
</trkpt>
<trkpt lat="-27.272192" lon="151.2900644">
  <ele>493.18</ele>
  <time>2026-09-01T19:59:26Z</time>
  <course>7.6</course>
  <speed>0.04</speed>
  <fix>3d</fix>
</trkpt>
<trkpt lat="-27.272192" lon="151.2900643">
  <ele>493.08</ele>
  <time>2026-09-01T19:59:26Z</time>
  <course>9.82</course>
  <speed>0.0</speed>
  <fix>3d</fix>
</trkpt>
<trkpt lat="-27.272192" lon="151.2900644">
  <ele>493.18</ele>
  <time>2026-09-01T19:59:26Z</time>
  <course>5.51</course>
  <speed>0.01</speed>
  <fix>3d</fix>
</trkpt>
<trkpt lat="-27.272192" lon="151.2900643">
  <ele>493.08</ele>
  <time>2026-09-01T19:59:26Z</time>
  <course>9.82</course>
  <speed>0.0</speed>
  <fix>3d</fix>
</trkpt>
<trkpt lat="-27.272192" lon="151.2900644">
  <ele>493.18</ele>
  <time>2026-09-01T19:59:26Z</time>
  <course>5.51</course>
  <speed>0.01</speed>
  <fix>3d</fix>
</trkpt>
<trkpt lat="-27.272192" lon="151.2900643">
  <ele>493.08</ele>
  <time>2026-09-01T19:59:26Z</time>
  <course>9.82</course>
  <speed>0.01</speed>
  <fix>3d</fix>
</trkpt>
<trkpt lat="-27.272192" lon="151.2900644">
  <ele>493.18</ele>
  <time>2026-09-01T19:59:26Z</time>
  <course>5.51</course>
  <speed>0.01</speed>
  <fix>3d</fix>
</trkpt>
<trkpt lat="-27.272192" lon="151.2900643">
  <ele>493.08</ele>
  <time>2026-09-01T19:59:26Z</time>
  <course>9.82</course>
  <speed>0.02</speed>
  <fix>3d</fix>
</trkpt>
<trkpt lat="-27.272192" lon="151.2900644">
  <ele>493.18</ele>
  <time>2026-09-01T19:59:26Z</time>
  <course>193.38</course>
  <speed>0.0</speed>
  <fix>3d</fix>
</trkpt>
<trkpt lat="-27.2721921" lon="151.2900643">
  <ele>493.08</ele>
  <time>2026-09-01T19:59:26Z</time>
  <course>9.82</course>
  <speed>0.04</speed>
  <fix>3d</fix>
</trkpt>
<trkpt lat="-27.272192" lon="151.2900644">
  <ele>493.18</ele>
  <time>2026-09-01T19:59:26Z</time>
  <course>193.38</course>
  <speed>0.0</speed>
  <fix>3d</fix>
</trkpt>
<trkpt lat="-27.2721921" lon="151.2900643">
  <ele>493.08</ele>
  <time>2026-09-01T19:59:26Z</time>
  <course>9.82</course>
  <speed>0.05099019513592785</speed>
  <fix>3d</fix>
</trkpt>
<trkpt lat="-27.272192" lon="151.2900644">
  <ele>493.18</ele>
  <time>2026-09-01T19:59:26Z</time>
  <course>189.9</course>
  <speed>0.03</speed>
  <fix>3d</fix>
</trkpt>
<trkpt lat="-27.2721921" lon="151.2900643">
  <ele>493.08</ele>
  <time>2026-09-01T19:59:26Z</time>
  <course>9.82</course>
  <speed>0.06082762530298219</speed>
  <fix>3d</fix>
</trkpt>
<trkpt lat="-27.272192" lon="151.2900644">
  <ele>493.18</ele>
  <time>2026-09-01T19:59:26Z</time>
  <course>189.9</course>
  <speed>0.03</speed>
  <fix>3d</fix>
</trkpt>
<trkpt lat="-27.2721921" lon="151.2900643">
  <ele>493.08</ele>
  <time>2026-09-01T19:59:26Z</time>
  <course>9.82</course>
  <speed>0.06082762530298219</speed>
  <fix>3d</fix>
</trkpt>
<trkpt lat="-27.272192" lon="151.2900644">
  <ele>493.18</ele>
  <time>2026-09-01T19:59:26Z</time>
  <course>190.09</course>
  <speed>0.05</speed>
  <fix>3d</fix>
</trkpt>
<trkpt lat="-27.2721922" lon="151.2900643">
  <ele>493.08</ele>
  <time>2026-09-01T19:59:26Z</time>
  <course>9.82</course>
  <speed>0.07071067811865475</speed>
  <fix>3d</fix>
</trkpt>
<trkpt lat="-27.272192" lon="151.2900644">
  <ele>493.18</ele>
  <time>2026-09-01T19:59:26Z</time>
  <course>190.09</course>
  <speed>0.05</speed>
  <fix>3d</fix>
</trkpt>
<trkpt lat="-27.2721923" lon="151.2900643">
  <ele>493.08</ele>
  <time>2026-09-01T19:59:26Z</time>
  <course>9.82</course>
  <speed>0.08062257748298549</speed>
  <fix>3d</fix>
</trkpt>
<trkpt lat="-27.2721921" lon="151.2900644">
  <ele>493.18</ele>
  <time>2026-09-01T19:59:26Z</time>
  <course>190.7</course>
  <speed>0.07</speed>
  <fix>3d</fix>
</trkpt>
<trkpt lat="-27.2721923" lon="151.2900643">
  <ele>493.08</ele>
  <time>2026-09-01T19:59:26Z</time>
  <course>9.81</course>
  <speed>0.08062257748298549</speed>
  <fix>3d</fix>
</trkpt>
<trkpt lat="-27.2721921" lon="151.2900644">
  <ele>493.18</ele>
  <time>2026-09-01T19:59:26Z</time>
  <course>190.7</course>
  <speed>0.07</speed>
  <fix>3d</fix>
</trkpt>
<trkpt lat="-27.2721924" lon="151.2900643">
  <ele>493.08</ele>
  <time>2026-09-01T19:59:26Z</time>
  <course>9.8</course>
  <speed>0.09055385138137417</speed>
  <fix>3d</fix>
</trkpt>
<trkpt lat="-27.2721923" lon="151.2900644">
  <ele>493.17</ele>
  <time>2026-09-01T19:59:26Z</time>
  <course>191.36</course>
  <speed>0.09</speed>
  <fix>3d</fix>
</trkpt>
<trkpt lat="-27.2721925" lon="151.2900643">
  <ele>493.08</ele>
  <time>2026-09-01T19:59:26Z</time>
  <course>9.8</course>
  <speed>0.09219544457292887</speed>
  <fix>3d</fix>
</trkpt>
<trkpt lat="-27.2721923" lon="151.2900644">
  <ele>493.17</ele>
  <time>2026-09-01T19:59:26Z</time>
  <course>191.36</course>
  <speed>0.09</speed>
  <fix>3d</fix>
</trkpt>
<trkpt lat="-27.2721926" lon="151.2900643">
  <ele>493.08</ele>
  <time>2026-09-01T19:59:26Z</time>
  <course>9.8</course>
  <speed>0.09219544457292887</speed>
  <fix>3d</fix>
</trkpt>
<trkpt lat="-27.2721924" lon="151.2900643">
  <ele>493.17</ele>
  <time>2026-09-01T19:59:26Z</time>
  <course>192.13</course>
  <speed>0.1</speed>
  <fix>3d</fix>
</trkpt>
<trkpt lat="-27.2721927" lon="151.2900643">
  <ele>493.08</ele>
  <time>2026-09-01T19:59:26Z</time>
  <course>9.8</course>
  <speed>0.09219544457292887</speed>
  <fix>3d</fix>
</trkpt>
<trkpt lat="-27.2721924" lon="151.2900643">
  <ele>493.17</ele>
  <time>2026-09-01T19:59:26Z</time>
  <course>192.13</course>
  <speed>0.1</speed>
  <fix>3d</fix>
</trkpt>
<trkpt lat="-27.2721927" lon="151.2900643">
  <ele>493.08</ele>
  <time>2026-09-01T19:59:26Z</time>
  <course>9.79</course>
  <speed>0.1019803902718557</speed>
  <fix>3d</fix>
</trkpt>
<trkpt lat="-27.2721925" lon="151.2900642">
  <ele>493.17</ele>
  <time>2026-09-01T19:59:26Z</time>
  <course>192.87</course>
  <speed>0.1</speed>
  <fix>3d</fix>
</trkpt>
<trkpt lat="-27.2721928" lon="151.2900642">
  <ele>493.08</ele>
  <time>2026-09-01T19:59:26Z</time>
  <course>9.8</course>
  <speed>0.1019803902718557</speed>
  <fix>3d</fix>
</trkpt>
<trkpt lat="-27.2721925" lon="151.2900642">
  <ele>493.17</ele>
  <time>2026-09-01T19:59:26Z</time>
  <course>192.87</course>
  <speed>0.1</speed>
  <fix>3d</fix>
</trkpt>
<trkpt lat="-27.2721929" lon="151.2900642">
  <ele>493.08</ele>
  <time>2026-09-01T19:59:26Z</time>
  <course>9.81</course>
  <speed>0.09219544457292887</speed>
  <fix>3d</fix>
</trkpt>
<trkpt lat="-27.2721928" lon="151.2900642">
  <ele>493.17</ele>
  <time>2026-09-01T19:59:26Z</time>
  <course>193.21</course>
  <speed>0.1</speed>
  <fix>3d</fix>
</trkpt>
<trkpt lat="-27.272193" lon="151.2900642">
  <ele>493.08</ele>
  <time>2026-09-01T19:59:26Z</time>
  <course>9.82</course>
  <speed>0.09219544457292887</speed>
  <fix>3d</fix>
</trkpt>
<trkpt lat="-27.2721928" lon="151.2900642">
  <ele>493.17</ele>
  <time>2026-09-01T19:59:26Z</time>
  <course>193.21</course>
  <speed>0.1</speed>
  <fix>3d</fix>
</trkpt>
<trkpt lat="-27.2721931" lon="151.2900642">
  <ele>493.07</ele>
  <time>2026-09-01T19:59:26Z</time>
  <course>9.82</course>
  <speed>0.09219544457292887</speed>
  <fix>3d</fix>
</trkpt>
<trkpt lat="-27.272193" lon="151.2900642">
  <ele>493.17</ele>
  <time>2026-09-01T19:59:26Z</time>
  <course>193.38</course>
  <speed>0.1</speed>
  <fix>3d</fix>
</trkpt>
<trkpt lat="-27.2721932" lon="151.2900641">
  <ele>493.07</ele>
  <time>2026-09-01T19:59:26Z</time>
  <course>9.82</course>
  <speed>0.09219544457292887</speed>
  <fix>3d</fix>
</trkpt>
<trkpt lat="-27.272193" lon="151.2900642">
  <ele>493.17</ele>
  <time>2026-09-01T19:59:26Z</time>
  <course>193.38</course>
  <speed>0.1</speed>
  <fix>3d</fix>
</trkpt>
<trkpt lat="-27.2721933" lon="151.2900641">
  <ele>493.07</ele>
  <time>2026-09-01T19:59:26Z</time>
  <course>9.82</course>
  <speed>0.09219544457292887</speed>
  <fix>3d</fix>
</trkpt>
<trkpt lat="-27.2721931" lon="151.2900641">
  <ele>493.17</ele>
  <time>2026-09-01T19:59:26Z</time>
  <course>193.78</course>
  <speed>0.1</speed>
  <fix>3d</fix>
</trkpt>
<trkpt lat="-27.2721933" lon="151.2900641">
  <ele>493.07</ele>
  <time>2026-09-01T19:59:26Z</time>
  <course>9.82</course>
  <speed>0.0824621125123532</speed>
  <fix>3d</fix>
</trkpt>
<trkpt lat="-27.2721931" lon="151.2900641">
  <ele>493.17</ele>
  <time>2026-09-01T19:59:26Z</time>
  <course>193.78</course>
  <speed>0.1</speed>
  <fix>3d</fix>
</trkpt>
<trkpt lat="-27.2721934" lon="151.2900641">
  <ele>493.07</ele>
  <time>2026-09-01T19:59:26Z</time>
  <course>9.81</course>
  <speed>0.0824621125123532</speed>
  <fix>3d</fix>
</trkpt>
<trkpt lat="-27.2721934" lon="151.2900641">
  <ele>493.16</ele>
  <time>2026-09-01T19:59:26Z</time>
  <course>194.36</course>
  <speed>0.1</speed>
  <fix>3d</fix>
</trkpt>
<trkpt lat="-27.2721935" lon="151.2900641">
  <ele>493.08</ele>
  <time>2026-09-01T19:59:26Z</time>
  <course>9.81</course>
  <speed>0.0824621125123532</speed>
  <fix>3d</fix>
</trkpt>
<trkpt lat="-27.2721934" lon="151.2900641">
  <ele>493.16</ele>
  <time>2026-09-01T19:59:26Z</time>
  <course>194.36</course>
  <speed>0.1</speed>
  <fix>3d</fix>
</trkpt>
<trkpt lat="-27.2721936" lon="151.290064">
  <ele>493.08</ele>
  <time>2026-09-01T19:59:26Z</time>
  <course>9.82</course>
  <speed>0.07071067811865475</speed>
  <fix>3d</fix>
</trkpt>
<trkpt lat="-27.2721936" lon="151.290064">
  <ele>493.16</ele>
  <time>2026-09-01T19:59:26Z</time>
  <course>195.03</course>
  <speed>0.09</speed>
  <fix>3d</fix>
</trkpt>
<trkpt lat="-27.2721937" lon="151.290064">
  <ele>493.08</ele>
  <time>2026-09-01T19:59:26Z</time>
  <course>9.81</course>
  <speed>0.07071067811865475</speed>
  <fix>3d</fix>
</trkpt>
<trkpt lat="-27.2721936" lon="151.290064">
  <ele>493.16</ele>
  <time>2026-09-01T19:59:26Z</time>
  <course>195.03</course>
  <speed>0.09</speed>
  <fix>3d</fix>
</trkpt>
<trkpt lat="-27.2721937" lon="151.290064">
  <ele>493.08</ele>
  <time>2026-09-01T19:59:26Z</time>
  <course>9.81</course>
  <speed>0.07071067811865475</speed>
  <fix>3d</fix>
</trkpt>
<trkpt lat="-27.2721937" lon="151.290064">
  <ele>493.16</ele>
  <time>2026-09-01T19:59:26Z</time>
  <course>195.65</course>
  <speed>0.09</speed>
  <fix>3d</fix>
</trkpt>
<trkpt lat="-27.2721938" lon="151.290064">
  <ele>493.08</ele>
  <time>2026-09-01T19:59:26Z</time>
  <course>9.81</course>
  <speed>0.06082762530298219</speed>
  <fix>3d</fix>
</trkpt>
<trkpt lat="-27.2721937" lon="151.290064">
  <ele>493.16</ele>
  <time>2026-09-01T19:59:26Z</time>
  <course>195.65</course>
  <speed>0.09</speed>
  <fix>3d</fix>
</trkpt>
<trkpt lat="-27.2721939" lon="151.290064">
  <ele>493.08</ele>
  <time>2026-09-01T19:59:26Z</time>
  <course>9.81</course>
  <speed>0.06082762530298219</speed>
  <fix>3d</fix>
</trkpt>
<trkpt lat="-27.2721939" lon="151.2900639">
  <ele>493.16</ele>
  <time>2026-09-01T19:59:26Z</time>
  <course>196.43</course>
  <speed>0.08</speed>
  <fix>3d</fix>
</trkpt>
<trkpt lat="-27.2721939" lon="151.2900639">
  <ele>493.08</ele>
  <time>2026-09-01T19:59:26Z</time>
  <course>9.82</course>
  <speed>0.05099019513592785</speed>
  <fix>3d</fix>
</trkpt>
<trkpt lat="-27.2721939" lon="151.2900639">
  <ele>493.16</ele>
  <time>2026-09-01T19:59:26Z</time>
  <course>196.43</course>
  <speed>0.08</speed>
  <fix>3d</fix>
</trkpt>
<trkpt lat="-27.272194" lon="151.2900639">
  <ele>493.08</ele>
  <time>2026-09-01T19:59:26Z</time>
  <course>9.82</course>
  <speed>0.05099019513592785</speed>
  <fix>3d</fix>
</trkpt>
<trkpt lat="-27.272194" lon="151.2900639">
  <ele>493.16</ele>
  <time>2026-09-01T19:59:26Z</time>
  <course>197.74</course>
  <speed>0.07</speed>
  <fix>3d</fix>
</trkpt>
<trkpt lat="-27.2721941" lon="151.2900639">
  <ele>493.08</ele>
  <time>2026-09-01T19:59:26Z</time>
  <course>9.83</course>
  <speed>0.0412310562561766</speed>
  <fix>3d</fix>
</trkpt>
<trkpt lat="-27.272194" lon="151.2900639">
  <ele>493.16</ele>
  <time>2026-09-01T19:59:26Z</time>
  <course>197.74</course>
  <speed>0.07</speed>
  <fix>3d</fix>
</trkpt>
<trkpt lat="-27.2721941" lon="151.2900639">
  <ele>493.08</ele>
  <time>2026-09-01T19:59:26Z</time>
  <course>9.83</course>
  <speed>0.0412310562561766</speed>
  <fix>3d</fix>
</trkpt>
<trkpt lat="-27.2721941" lon="151.2900639">
  <ele>493.16</ele>
  <time>2026-09-01T19:59:26Z</time>
  <course>199.67</course>
  <speed>0.06</speed>
  <fix>3d</fix>
</trkpt>
<trkpt lat="-27.2721941" lon="151.2900639">
  <ele>493.08</ele>
  <time>2026-09-01T19:59:26Z</time>
  <course>9.83</course>
  <speed>0.0316227766016838</speed>
  <fix>3d</fix>
</trkpt>
<trkpt lat="-27.2721941" lon="151.2900639">
  <ele>493.16</ele>
  <time>2026-09-01T19:59:26Z</time>
  <course>199.67</course>
  <speed>0.06</speed>
  <fix>3d</fix>
</trkpt>
<trkpt lat="-27.2721942" lon="151.2900639">
  <ele>493.08</ele>
  <time>2026-09-01T19:59:26Z</time>
  <course>9.83</course>
  <speed>0.0316227766016838</speed>
  <fix>3d</fix>
</trkpt>
<trkpt lat="-27.2721942" lon="151.2900638">
  <ele>493.16</ele>
  <time>2026-09-01T19:59:26Z</time>
  <course>202.44</course>
  <speed>0.05</speed>
  <fix>3d</fix>
</trkpt>
<trkpt lat="-27.2721942" lon="151.2900638">
  <ele>493.08</ele>
  <time>2026-09-01T19:59:26Z</time>
  <course>9.83</course>
  <speed>0.022360679774997897</speed>
  <fix>3d</fix>
</trkpt>
<trkpt lat="-27.2721942" lon="151.2900638">
  <ele>493.16</ele>
  <time>2026-09-01T19:59:26Z</time>
  <course>202.44</course>
  <speed>0.05</speed>
  <fix>3d</fix>
</trkpt>
<trkpt lat="-27.2721942" lon="151.2900638">
  <ele>493.07</ele>
  <time>2026-09-01T19:59:26Z</time>
  <course>9.83</course>
  <speed>0.01414213562373095</speed>
  <fix>3d</fix>
</trkpt>
<trkpt lat="-27.2721943" lon="151.2900637">
  <ele>493.15</ele>
  <time>2026-09-01T19:59:26Z</time>
  <course>206.82</course>
  <speed>0.04</speed>
  <fix>3d</fix>
</trkpt>
<trkpt lat="-27.2721942" lon="151.2900638">
  <ele>493.07</ele>
  <time>2026-09-01T19:59:26Z</time>
  <course>9.83</course>
  <speed>0.01</speed>
  <fix>3d</fix>
</trkpt>
<trkpt lat="-27.2721943" lon="151.2900637">
  <ele>493.15</ele>
  <time>2026-09-01T19:59:26Z</time>
  <course>206.82</course>
  <speed>0.04</speed>
  <fix>3d</fix>
</trkpt>
<trkpt lat="-27.2721943" lon="151.2900638">
  <ele>493.07</ele>
  <time>2026-09-01T19:59:26Z</time>
  <course>9.83</course>
  <speed>0.0</speed>
  <fix>3d</fix>
</trkpt>
<trkpt lat="-27.2721943" lon="151.2900637">
  <ele>493.15</ele>
  <time>2026-09-01T19:59:26Z</time>
  <course>214.65</course>
  <speed>0.02</speed>
  <fix>3d</fix>
</trkpt>
<trkpt lat="-27.2721943" lon="151.2900638">
  <ele>493.07</ele>
  <time>2026-09-01T19:59:26Z</time>
  <course>9.83</course>
  <speed>0.0</speed>
  <fix>3d</fix>
</trkpt>
<trkpt lat="-27.2721943" lon="151.2900637">
  <ele>493.15</ele>
  <time>2026-09-01T19:59:26Z</time>
  <course>214.65</course>
  <speed>0.02</speed>
  <fix>3d</fix>
</trkpt>
<trkpt lat="-27.2721943" lon="151.2900638">
  <ele>493.07</ele>
  <time>2026-09-01T19:59:26Z</time>
  <course>9.83</course>
  <speed>0.0</speed>
  <fix>3d</fix>
</trkpt>
<trkpt lat="-27.2721944" lon="151.2900637">
  <ele>493.15</ele>
  <time>2026-09-01T19:59:26Z</time>
  <course>232.23</course>
  <speed>0.01</speed>
  <fix>3d</fix>
</trkpt>
<trkpt lat="-27.2721943" lon="151.2900638">
  <ele>493.07</ele>
  <time>2026-09-01T19:59:26Z</time>
  <course>9.83</course>
  <speed>0.01</speed>
  <fix>3d</fix>
</trkpt>
<trkpt lat="-27.2721944" lon="151.2900637">
  <ele>493.15</ele>
  <time>2026-09-01T19:59:26Z</time>
  <course>232.23</course>
  <speed>0.01</speed>
  <fix>3d</fix>
</trkpt>
<trkpt lat="-27.2721943" lon="151.2900637">
  <ele>493.07</ele>
  <time>2026-09-01T19:59:26Z</time>
  <course>9.83</course>
  <speed>0.01</speed>
  <fix>3d</fix>
</trkpt>
<trkpt lat="-27.2721944" lon="151.2900637">
  <ele>493.15</ele>
  <time>2026-09-01T19:59:26Z</time>
  <course>276.22</course>
  <speed>0.01</speed>
  <fix>3d</fix>
</trkpt>
<trkpt lat="-27.2721943" lon="151.2900637">
  <ele>493.07</ele>
  <time>2026-09-01T19:59:26Z</time>
  <course>9.83</course>
  <speed>0.02</speed>
  <fix>3d</fix>
</trkpt>
<trkpt lat="-27.2721944" lon="151.2900637">
  <ele>493.15</ele>
  <time>2026-09-01T19:59:26Z</time>
  <course>276.22</course>
  <speed>0.01</speed>
  <fix>3d</fix>
</trkpt>
<trkpt lat="-27.2721942" lon="151.2900637">
  <ele>493.08</ele>
  <time>2026-09-01T19:59:26Z</time>
  <course>9.83</course>
  <speed>0.02</speed>
  <fix>3d</fix>
</trkpt>
<trkpt lat="-27.2721944" lon="151.2900637">
  <ele>493.15</ele>
  <time>2026-09-01T19:59:26Z</time>
  <course>323.39</course>
  <speed>0.01</speed>
  <fix>3d</fix>
</trkpt>
<trkpt lat="-27.2721942" lon="151.2900637">
  <ele>493.08</ele>
  <time>2026-09-01T19:59:26Z</time>
  <course>9.83</course>
  <speed>0.03</speed>
  <fix>3d</fix>
</trkpt>
<trkpt lat="-27.2721944" lon="151.2900637">
  <ele>493.15</ele>
  <time>2026-09-01T19:59:26Z</time>
  <course>323.39</course>
  <speed>0.01</speed>
  <fix>3d</fix>
</trkpt>
<trkpt lat="-27.2721942" lon="151.2900637">
  <ele>493.08</ele>
  <time>2026-09-01T19:59:26Z</time>
  <course>9.83</course>
  <speed>0.03</speed>
  <fix>3d</fix>
</trkpt>
<trkpt lat="-27.2721944" lon="151.2900637">
  <ele>493.15</ele>
  <time>2026-09-01T19:59:26Z</time>
  <course>342.85</course>
  <speed>0.02</speed>
  <fix>3d</fix>
</trkpt>
<trkpt lat="-27.2721942" lon="151.2900637">
  <ele>493.08</ele>
  <time>2026-09-01T19:59:26Z</time>
  <course>9.83</course>
  <speed>0.04</speed>
  <fix>3d</fix>
</trkpt>
<trkpt lat="-27.2721944" lon="151.2900637">
  <ele>493.15</ele>
  <time>2026-09-01T19:59:26Z</time>
  <course>342.85</course>
  <speed>0.02</speed>
  <fix>3d</fix>
</trkpt>
<trkpt lat="-27.2721942" lon="151.2900637">
  <ele>493.07</ele>
  <time>2026-09-01T19:59:26Z</time>
  <course>9.83</course>
  <speed>0.04</speed>
  <fix>3d</fix>
</trkpt>
<trkpt lat="-27.2721944" lon="151.2900636">
  <ele>493.14</ele>
  <time>2026-09-01T19:59:26Z</time>
  <course>350.9</course>
  <speed>0.03</speed>
  <fix>3d</fix>
</trkpt>
<trkpt lat="-27.2721942" lon="151.2900637">
  <ele>493.07</ele>
  <time>2026-09-01T19:59:26Z</time>
  <course>9.83</course>
  <speed>0.04</speed>
  <fix>3d</fix>
</trkpt>
<trkpt lat="-27.2721944" lon="151.2900636">
  <ele>493.14</ele>
  <time>2026-09-01T19:59:26Z</time>
  <course>350.9</course>
  <speed>0.03</speed>
  <fix>3d</fix>
</trkpt>
<trkpt lat="-27.2721942" lon="151.2900637">
  <ele>493.07</ele>
  <time>2026-09-01T19:59:26Z</time>
  <course>9.83</course>
  <speed>0.05</speed>
  <fix>3d</fix>
</trkpt>
<trkpt lat="-27.2721943" lon="151.2900636">
  <ele>493.14</ele>
  <time>2026-09-01T19:59:26Z</time>
  <course>355.25</course>
  <speed>0.04</speed>
  <fix>3d</fix>
</trkpt>
<trkpt lat="-27.2721941" lon="151.2900637">
  <ele>493.07</ele>
  <time>2026-09-01T19:59:26Z</time>
  <course>9.83</course>
  <speed>0.05</speed>
  <fix>3d</fix>
</trkpt>
<trkpt lat="-27.2721943" lon="151.2900636">
  <ele>493.14</ele>
  <time>2026-09-01T19:59:26Z</time>
  <course>355.25</course>
  <speed>0.04</speed>
  <fix>3d</fix>
</trkpt>
<trkpt lat="-27.2721941" lon="151.2900637">
  <ele>493.07</ele>
  <time>2026-09-01T19:59:26Z</time>
  <course>9.83</course>
  <speed>0.05</speed>
  <fix>3d</fix>
</trkpt>
<trkpt lat="-27.2721942" lon="151.2900636">
  <ele>493.14</ele>
  <time>2026-09-01T19:59:26Z</time>
  <course>358.46</course>
  <speed>0.05</speed>
  <fix>3d</fix>
</trkpt>
<trkpt lat="-27.272194" lon="151.2900637">
  <ele>493.07</ele>
  <time>2026-09-01T19:59:26Z</time>
  <course>9.83</course>
  <speed>0.06</speed>
  <fix>3d</fix>
</trkpt>
<trkpt lat="-27.2721942" lon="151.2900636">
  <ele>493.14</ele>
  <time>2026-09-01T19:59:26Z</time>
  <course>358.46</course>
  <speed>0.05</speed>
  <fix>3d</fix>
</trkpt>
<trkpt lat="-27.272194" lon="151.2900637">
  <ele>493.07</ele>
  <time>2026-09-01T19:59:26Z</time>
  <course>9.83</course>
  <speed>0.06</speed>
  <fix>3d</fix>
</trkpt>
<trkpt lat="-27.2721941" lon="151.2900636">
  <ele>493.14</ele>
  <time>2026-09-01T19:59:26Z</time>
  <course>0.95</course>
  <speed>0.06</speed>
  <fix>3d</fix>
</trkpt>
<trkpt lat="-27.2721939" lon="151.2900637">
  <ele>493.07</ele>
  <time>2026-09-01T19:59:26Z</time>
  <course>9.83</course>
  <speed>0.06082762530298219</speed>
  <fix>3d</fix>
</trkpt>
<trkpt lat="-27.2721941" lon="151.2900636">
  <ele>493.14</ele>
  <time>2026-09-01T19:59:26Z</time>
  <course>0.95</course>
  <speed>0.06</speed>
  <fix>3d</fix>
</trkpt>
<trkpt lat="-27.2721939" lon="151.2900637">
  <ele>493.07</ele>
  <time>2026-09-01T19:59:26Z</time>
  <course>9.83</course>
  <speed>0.06082762530298219</speed>
  <fix>3d</fix>
</trkpt>
<trkpt lat="-27.272194" lon="151.2900636">
  <ele>493.14</ele>
  <time>2026-09-01T19:59:26Z</time>
  <course>2.72</course>
  <speed>0.06</speed>
  <fix>3d</fix>
</trkpt>
<trkpt lat="-27.2721938" lon="151.2900637">
  <ele>493.07</ele>
  <time>2026-09-01T19:59:26Z</time>
  <course>9.83</course>
  <speed>0.06082762530298219</speed>
  <fix>3d</fix>
</trkpt>
<trkpt lat="-27.272194" lon="151.2900636">
  <ele>493.14</ele>
  <time>2026-09-01T19:59:26Z</time>
  <course>2.72</course>
  <speed>0.06</speed>
  <fix>3d</fix>
</trkpt>
<trkpt lat="-27.2721938" lon="151.2900637">
  <ele>493.07</ele>
  <time>2026-09-01T19:59:26Z</time>
  <course>9.83</course>
  <speed>0.06082762530298219</speed>
  <fix>3d</fix>
</trkpt>
<trkpt lat="-27.2721939" lon="151.2900636">
  <ele>493.14</ele>
  <time>2026-09-01T19:59:26Z</time>
  <course>4.09</course>
  <speed>0.07</speed>
  <fix>3d</fix>
</trkpt>
<trkpt lat="-27.2721937" lon="151.2900637">
  <ele>493.07</ele>
  <time>2026-09-01T19:59:26Z</time>
  <course>9.83</course>
  <speed>0.06082762530298219</speed>
  <fix>3d</fix>
</trkpt>
<trkpt lat="-27.2721939" lon="151.2900636">
  <ele>493.14</ele>
  <time>2026-09-01T19:59:26Z</time>
  <course>4.09</course>
  <speed>0.07</speed>
  <fix>3d</fix>
</trkpt>
<trkpt lat="-27.2721937" lon="151.2900637">
  <ele>493.07</ele>
  <time>2026-09-01T19:59:26Z</time>
  <course>9.83</course>
  <speed>0.06082762530298219</speed>
  <fix>3d</fix>
</trkpt>
<trkpt lat="-27.2721937" lon="151.2900636">
  <ele>493.14</ele>
  <time>2026-09-01T19:59:26Z</time>
  <course>5.61</course>
  <speed>0.07</speed>
  <fix>3d</fix>
</trkpt>
<trkpt lat="-27.2721936" lon="151.2900637">
  <ele>493.07</ele>
  <time>2026-09-01T19:59:26Z</time>
  <course>9.83</course>
  <speed>0.06082762530298219</speed>
  <fix>3d</fix>
</trkpt>
<trkpt lat="-27.2721937" lon="151.2900636">
  <ele>493.14</ele>
  <time>2026-09-01T19:59:26Z</time>
  <course>5.61</course>
  <speed>0.07</speed>
  <fix>3d</fix>
</trkpt>
<trkpt lat="-27.2721935" lon="151.2900637">
  <ele>493.06</ele>
  <time>2026-09-01T19:59:26Z</time>
  <course>9.83</course>
  <speed>0.06082762530298219</speed>
  <fix>3d</fix>
</trkpt>
<trkpt lat="-27.2721936" lon="151.2900636">
  <ele>493.14</ele>
  <time>2026-09-01T19:59:26Z</time>
  <course>7.42</course>
  <speed>0.07</speed>
  <fix>3d</fix>
</trkpt>
<trkpt lat="-27.2721935" lon="151.2900637">
  <ele>493.06</ele>
  <time>2026-09-01T19:59:26Z</time>
  <course>9.83</course>
  <speed>0.06082762530298219</speed>
  <fix>3d</fix>
</trkpt>
<trkpt lat="-27.2721936" lon="151.2900636">
  <ele>493.14</ele>
  <time>2026-09-01T19:59:26Z</time>
  <course>7.42</course>
  <speed>0.07</speed>
  <fix>3d</fix>
</trkpt>
<trkpt lat="-27.2721934" lon="151.2900637">
  <ele>493.06</ele>
  <time>2026-09-01T19:59:26Z</time>
  <course>9.83</course>
  <speed>0.06082762530298219</speed>
  <fix>3d</fix>
</trkpt>
<trkpt lat="-27.2721935" lon="151.2900636">
  <ele>493.14</ele>
  <time>2026-09-01T19:59:26Z</time>
  <course>8.72</course>
  <speed>0.07</speed>
  <fix>3d</fix>
</trkpt>
<trkpt lat="-27.2721933" lon="151.2900637">
  <ele>493.06</ele>
  <time>2026-09-01T19:59:26Z</time>
  <course>9.83</course>
  <speed>0.06082762530298219</speed>
  <fix>3d</fix>
</trkpt>
<trkpt lat="-27.2721935" lon="151.2900636">
  <ele>493.14</ele>
  <time>2026-09-01T19:59:26Z</time>
  <course>8.72</course>
  <speed>0.07</speed>
  <fix>3d</fix>
</trkpt>
<trkpt lat="-27.2721933" lon="151.2900637">
  <ele>493.06</ele>
  <time>2026-09-01T19:59:26Z</time>
  <course>9.83</course>
  <speed>0.06082762530298219</speed>
  <fix>3d</fix>
</trkpt>
<trkpt lat="-27.2721933" lon="151.2900636">
  <ele>493.14</ele>
  <time>2026-09-01T19:59:26Z</time>
  <course>9.19</course>
  <speed>0.07</speed>
  <fix>3d</fix>
</trkpt>
<trkpt lat="-27.2721932" lon="151.2900637">
  <ele>493.06</ele>
  <time>2026-09-01T19:59:26Z</time>
  <course>9.83</course>
  <speed>0.06082762530298219</speed>
  <fix>3d</fix>
</trkpt>
<trkpt lat="-27.2721933" lon="151.2900636">
  <ele>493.14</ele>
  <time>2026-09-01T19:59:26Z</time>
  <course>9.19</course>
  <speed>0.07</speed>
  <fix>3d</fix>
</trkpt>
<trkpt lat="-27.2721932" lon="151.2900637">
  <ele>493.06</ele>
  <time>2026-09-01T19:59:26Z</time>
  <course>9.83</course>
  <speed>0.06082762530298219</speed>
  <fix>3d</fix>
</trkpt>
<trkpt lat="-27.2721932" lon="151.2900636">
  <ele>493.14</ele>
  <time>2026-09-01T19:59:26Z</time>
  <course>9.44</course>
  <speed>0.07</speed>
  <fix>3d</fix>
</trkpt>
<trkpt lat="-27.2721931" lon="151.2900637">
  <ele>493.06</ele>
  <time>2026-09-01T19:59:26Z</time>
  <course>9.83</course>
  <speed>0.05099019513592785</speed>
  <fix>3d</fix>
</trkpt>
<trkpt lat="-27.2721932" lon="151.2900636">
  <ele>493.14</ele>
  <time>2026-09-01T19:59:26Z</time>
  <course>9.44</course>
  <speed>0.07</speed>
  <fix>3d</fix>
</trkpt>
<trkpt lat="-27.2721931" lon="151.2900637">
  <ele>493.06</ele>
  <time>2026-09-01T19:59:26Z</time>
  <course>9.83</course>
  <speed>0.05099019513592785</speed>
  <fix>3d</fix>
</trkpt>
<trkpt lat="-27.2721931" lon="151.2900637">
  <ele>493.14</ele>
  <time>2026-09-01T19:59:26Z</time>
  <course>9.81</course>
  <speed>0.07</speed>
  <fix>3d</fix>
</trkpt>
<trkpt lat="-27.272193" lon="151.2900637">
  <ele>493.06</ele>
  <time>2026-09-01T19:59:26Z</time>
  <course>9.83</course>
  <speed>0.05099019513592785</speed>
  <fix>3d</fix>
</trkpt>
<trkpt lat="-27.2721931" lon="151.2900637">
  <ele>493.14</ele>
  <time>2026-09-01T19:59:26Z</time>
  <course>9.81</course>
  <speed>0.07</speed>
  <fix>3d</fix>
</trkpt>
<trkpt lat="-27.2721929" lon="151.2900637">
  <ele>493.07</ele>
  <time>2026-09-01T19:59:26Z</time>
  <course>9.83</course>
  <speed>0.05099019513592785</speed>
  <fix>3d</fix>
</trkpt>
<trkpt lat="-27.2721929" lon="151.2900637">
  <ele>493.14</ele>
  <time>2026-09-01T19:59:26Z</time>
  <course>10.54</course>
  <speed>0.06</speed>
  <fix>3d</fix>
</trkpt>
<trkpt lat="-27.2721929" lon="151.2900638">
  <ele>493.07</ele>
  <time>2026-09-01T19:59:27Z</time>
  <course>9.83</course>
  <speed>0.0412310562561766</speed>
  <fix>3d</fix>
</trkpt>
<trkpt lat="-27.2721929" lon="151.2900637">
  <ele>493.14</ele>
  <time>2026-09-01T19:59:27Z</time>
  <course>10.54</course>
  <speed>0.06</speed>
  <fix>3d</fix>
</trkpt>
<trkpt lat="-27.2721928" lon="151.2900638">
  <ele>493.07</ele>
  <time>2026-09-01T19:59:27Z</time>
  <course>9.83</course>
  <speed>0.0412310562561766</speed>
  <fix>3d</fix>
</trkpt>
<trkpt lat="-27.2721928" lon="151.2900637">
  <ele>493.14</ele>
  <time>2026-09-01T19:59:27Z</time>
  <course>12.25</course>
  <speed>0.06</speed>
  <fix>3d</fix>
</trkpt>
<trkpt lat="-27.2721928" lon="151.2900638">
  <ele>493.07</ele>
  <time>2026-09-01T19:59:27Z</time>
  <course>9.83</course>
  <speed>0.0412310562561766</speed>
  <fix>3d</fix>
</trkpt>
<trkpt lat="-27.2721928" lon="151.2900637">
  <ele>493.14</ele>
  <time>2026-09-01T19:59:27Z</time>
  <course>12.25</course>
  <speed>0.06</speed>
  <fix>3d</fix>
</trkpt>
<trkpt lat="-27.2721928" lon="151.2900638">
  <ele>493.08</ele>
  <time>2026-09-01T19:59:27Z</time>
  <course>9.83</course>
  <speed>0.0316227766016838</speed>
  <fix>3d</fix>
</trkpt>
<trkpt lat="-27.2721927" lon="151.2900637">
  <ele>493.14</ele>
  <time>2026-09-01T19:59:27Z</time>
  <course>14.61</course>
  <speed>0.05</speed>
  <fix>3d</fix>
</trkpt>
<trkpt lat="-27.2721927" lon="151.2900638">
  <ele>493.08</ele>
  <time>2026-09-01T19:59:27Z</time>
  <course>9.83</course>
  <speed>0.0316227766016838</speed>
  <fix>3d</fix>
</trkpt>
<trkpt lat="-27.2721927" lon="151.2900637">
  <ele>493.14</ele>
  <time>2026-09-01T19:59:27Z</time>
  <course>14.61</course>
  <speed>0.05</speed>
  <fix>3d</fix>
</trkpt>
<trkpt lat="-27.2721927" lon="151.2900638">
  <ele>493.08</ele>
  <time>2026-09-01T19:59:27Z</time>
  <course>9.84</course>
  <speed>0.022360679774997897</speed>
  <fix>3d</fix>
</trkpt>
<trkpt lat="-27.2721926" lon="151.2900637">
  <ele>493.14</ele>
  <time>2026-09-01T19:59:27Z</time>
  <course>16.51</course>
  <speed>0.04</speed>
  <fix>3d</fix>
</trkpt>
<trkpt lat="-27.2721926" lon="151.2900638">
  <ele>493.08</ele>
  <time>2026-09-01T19:59:27Z</time>
  <course>9.84</course>
  <speed>0.022360679774997897</speed>
  <fix>3d</fix>
</trkpt>
<trkpt lat="-27.2721926" lon="151.2900637">
  <ele>493.14</ele>
  <time>2026-09-01T19:59:27Z</time>
  <course>16.51</course>
  <speed>0.04</speed>
  <fix>3d</fix>
</trkpt>
<trkpt lat="-27.2721926" lon="151.2900638">
  <ele>493.08</ele>
  <time>2026-09-01T19:59:27Z</time>
  <course>9.84</course>
  <speed>0.01414213562373095</speed>
  <fix>3d</fix>
</trkpt>
<trkpt lat="-27.2721926" lon="151.2900637">
  <ele>493.14</ele>
  <time>2026-09-01T19:59:27Z</time>
  <course>17.92</course>
  <speed>0.03</speed>
  <fix>3d</fix>
</trkpt>
<trkpt lat="-27.2721926" lon="151.2900638">
  <ele>493.08</ele>
  <time>2026-09-01T19:59:27Z</time>
  <course>9.84</course>
  <speed>0.01414213562373095</speed>
  <fix>3d</fix>
</trkpt>
<trkpt lat="-27.2721926" lon="151.2900637">
  <ele>493.14</ele>
  <time>2026-09-01T19:59:27Z</time>
  <course>17.92</course>
  <speed>0.03</speed>
  <fix>3d</fix>
</trkpt>
<trkpt lat="-27.2721926" lon="151.2900638">
  <ele>493.08</ele>
  <time>2026-09-01T19:59:27Z</time>
  <course>9.84</course>
  <speed>0.01414213562373095</speed>
  <fix>3d</fix>
</trkpt>
<trkpt lat="-27.2721925" lon="151.2900637">
  <ele>493.13</ele>
  <time>2026-09-01T19:59:27Z</time>
  <course>19.56</course>
  <speed>0.03</speed>
  <fix>3d</fix>
</trkpt>
<trkpt lat="-27.2721926" lon="151.2900638">
  <ele>493.08</ele>
  <time>2026-09-01T19:59:27Z</time>
  <course>9.83</course>
  <speed>0.01</speed>
  <fix>3d</fix>
</trkpt>
<trkpt lat="-27.2721925" lon="151.2900637">
  <ele>493.13</ele>
  <time>2026-09-01T19:59:27Z</time>
  <course>19.56</course>
  <speed>0.03</speed>
  <fix>3d</fix>
</trkpt>
<trkpt lat="-27.2721926" lon="151.2900638">
  <ele>493.07</ele>
  <time>2026-09-01T19:59:27Z</time>
  <course>9.83</course>
  <speed>0.01</speed>
  <fix>3d</fix>
</trkpt>
<trkpt lat="-27.2721925" lon="151.2900638">
  <ele>493.13</ele>
  <time>2026-09-01T19:59:27Z</time>
  <course>22.96</course>
  <speed>0.02</speed>
  <fix>3d</fix>
</trkpt>
<trkpt lat="-27.2721925" lon="151.2900638">
  <ele>493.07</ele>
  <time>2026-09-01T19:59:27Z</time>
  <course>9.82</course>
  <speed>0.01</speed>
  <fix>3d</fix>
</trkpt>
<trkpt lat="-27.2721925" lon="151.2900638">
  <ele>493.13</ele>
  <time>2026-09-01T19:59:27Z</time>
  <course>22.96</course>
  <speed>0.02</speed>
  <fix>3d</fix>
</trkpt>
<trkpt lat="-27.2721925" lon="151.2900638">
  <ele>493.07</ele>
  <time>2026-09-01T19:59:27Z</time>
  <course>9.82</course>
  <speed>0.01</speed>
  <fix>3d</fix>
</trkpt>
<trkpt lat="-27.2721925" lon="151.2900639">
  <ele>493.13</ele>
  <time>2026-09-01T19:59:27Z</time>
  <course>32.08</course>
  <speed>0.01</speed>
  <fix>3d</fix>
</trkpt>
<trkpt lat="-27.2721925" lon="151.2900638">
  <ele>493.07</ele>
  <time>2026-09-01T19:59:27Z</time>
  <course>9.82</course>
  <speed>0.01</speed>
  <fix>3d</fix>
</trkpt>
<trkpt lat="-27.2721925" lon="151.2900639">
  <ele>493.13</ele>
  <time>2026-09-01T19:59:27Z</time>
  <course>32.08</course>
  <speed>0.01</speed>
  <fix>3d</fix>
</trkpt>
<trkpt lat="-27.2721925" lon="151.2900638">
  <ele>493.06</ele>
  <time>2026-09-01T19:59:27Z</time>
  <course>9.82</course>
  <speed>0.01414213562373095</speed>
  <fix>3d</fix>
</trkpt>
<trkpt lat="-27.2721924" lon="151.2900639">
  <ele>493.12</ele>
  <time>2026-09-01T19:59:27Z</time>
  <course>54.38</course>
  <speed>0.0</speed>
  <fix>3d</fix>
</trkpt>
<trkpt lat="-27.2721925" lon="151.2900639">
  <ele>493.06</ele>
  <time>2026-09-01T19:59:27Z</time>
  <course>9.82</course>
  <speed>0.01414213562373095</speed>
  <fix>3d</fix>
</trkpt>
<trkpt lat="-27.2721924" lon="151.2900639">
  <ele>493.12</ele>
  <time>2026-09-01T19:59:27Z</time>
  <course>54.38</course>
  <speed>0.0</speed>
  <fix>3d</fix>
</trkpt>
<trkpt lat="-27.2721925" lon="151.2900639">
  <ele>493.06</ele>
  <time>2026-09-01T19:59:27Z</time>
  <course>9.83</course>
  <speed>0.01414213562373095</speed>
  <fix>3d</fix>
</trkpt>
<trkpt lat="-27.2721924" lon="151.2900639">
  <ele>493.12</ele>
  <time>2026-09-01T19:59:27Z</time>
  <course>96.63</course>
  <speed>0.0</speed>
  <fix>3d</fix>
</trkpt>
<trkpt lat="-27.2721925" lon="151.2900639">
  <ele>493.06</ele>
  <time>2026-09-01T19:59:27Z</time>
  <course>9.83</course>
  <speed>0.01</speed>
  <fix>3d</fix>
</trkpt>
<trkpt lat="-27.2721924" lon="151.2900639">
  <ele>493.12</ele>
  <time>2026-09-01T19:59:27Z</time>
  <course>96.63</course>
  <speed>0.0</speed>
  <fix>3d</fix>
</trkpt>
<trkpt lat="-27.2721925" lon="151.2900639">
  <ele>493.06</ele>
  <time>2026-09-01T19:59:27Z</time>
  <course>9.83</course>
  <speed>0.02</speed>
  <fix>3d</fix>
</trkpt>
<trkpt lat="-27.2721925" lon="151.2900639">
  <ele>493.12</ele>
  <time>2026-09-01T19:59:27Z</time>
  <course>138.33</course>
  <speed>0.0</speed>
  <fix>3d</fix>
</trkpt>
<trkpt lat="-27.2721925" lon="151.2900639">
  <ele>493.06</ele>
  <time>2026-09-01T19:59:27Z</time>
  <course>9.83</course>
  <speed>0.02</speed>
  <fix>3d</fix>
</trkpt>
<trkpt lat="-27.2721925" lon="151.2900639">
  <ele>493.12</ele>
  <time>2026-09-01T19:59:27Z</time>
  <course>138.33</course>
  <speed>0.0</speed>
  <fix>3d</fix>
</trkpt>
<trkpt lat="-27.2721925" lon="151.2900639">
  <ele>493.06</ele>
  <time>2026-09-01T19:59:27Z</time>
  <course>9.83</course>
  <speed>0.02</speed>
  <fix>3d</fix>
</trkpt>
<trkpt lat="-27.2721925" lon="151.2900639">
  <ele>493.12</ele>
  <time>2026-09-01T19:59:27Z</time>
  <course>160.02</course>
  <speed>0.01</speed>
  <fix>3d</fix>
</trkpt>
<trkpt lat="-27.2721925" lon="151.2900639">
  <ele>493.05</ele>
  <time>2026-09-01T19:59:27Z</time>
  <course>9.83</course>
  <speed>0.03</speed>
  <fix>3d</fix>
</trkpt>
<trkpt lat="-27.2721925" lon="151.2900639">
  <ele>493.12</ele>
  <time>2026-09-01T19:59:27Z</time>
  <course>160.02</course>
  <speed>0.01</speed>
  <fix>3d</fix>
</trkpt>
<trkpt lat="-27.2721925" lon="151.2900639">
  <ele>493.05</ele>
  <time>2026-09-01T19:59:27Z</time>
  <course>9.83</course>
  <speed>0.03</speed>
  <fix>3d</fix>
</trkpt>
<trkpt lat="-27.2721925" lon="151.2900639">
  <ele>493.12</ele>
  <time>2026-09-01T19:59:27Z</time>
  <course>170.57</course>
  <speed>0.01</speed>
  <fix>3d</fix>
</trkpt>
<trkpt lat="-27.2721926" lon="151.2900639">
  <ele>493.05</ele>
  <time>2026-09-01T19:59:27Z</time>
  <course>9.84</course>
  <speed>0.03</speed>
  <fix>3d</fix>
</trkpt>
<trkpt lat="-27.2721925" lon="151.2900639">
  <ele>493.12</ele>
  <time>2026-09-01T19:59:27Z</time>
  <course>170.57</course>
  <speed>0.01</speed>
  <fix>3d</fix>
</trkpt>
<trkpt lat="-27.2721926" lon="151.2900639">
  <ele>493.05</ele>
  <time>2026-09-01T19:59:27Z</time>
  <course>9.84</course>
  <speed>0.03</speed>
  <fix>3d</fix>
</trkpt>
<trkpt lat="-27.2721925" lon="151.2900639">
  <ele>493.12</ele>
  <time>2026-09-01T19:59:27Z</time>
  <course>176.31</course>
  <speed>0.02</speed>
  <fix>3d</fix>
</trkpt>
<trkpt lat="-27.2721926" lon="151.2900639">
  <ele>493.05</ele>
  <time>2026-09-01T19:59:27Z</time>
  <course>9.84</course>
  <speed>0.03</speed>
  <fix>3d</fix>
</trkpt>
<trkpt lat="-27.2721925" lon="151.2900639">
  <ele>493.12</ele>
  <time>2026-09-01T19:59:27Z</time>
  <course>176.31</course>
  <speed>0.02</speed>
  <fix>3d</fix>
</trkpt>
<trkpt lat="-27.2721926" lon="151.2900639">
  <ele>493.05</ele>
  <time>2026-09-01T19:59:27Z</time>
  <course>9.84</course>
  <speed>0.03</speed>
  <fix>3d</fix>
</trkpt>
<trkpt lat="-27.2721925" lon="151.2900639">
  <ele>493.12</ele>
  <time>2026-09-01T19:59:27Z</time>
  <course>179.42</course>
  <speed>0.02</speed>
  <fix>3d</fix>
</trkpt>
<trkpt lat="-27.2721927" lon="151.2900639">
  <ele>493.04</ele>
  <time>2026-09-01T19:59:27Z</time>
  <course>9.84</course>
  <speed>0.03</speed>
  <fix>3d</fix>
</trkpt>
<trkpt lat="-27.2721925" lon="151.2900639">
  <ele>493.12</ele>
  <time>2026-09-01T19:59:27Z</time>
  <course>179.42</course>
  <speed>0.02</speed>
  <fix>3d</fix>
</trkpt>
<trkpt lat="-27.2721927" lon="151.2900639">
  <ele>493.02</ele>
  <time>2026-09-01T19:59:27Z</time>
  <course>9.84</course>
  <speed>0.03</speed>
  <fix>3d</fix>
</trkpt>
<trkpt lat="-27.2721925" lon="151.2900639">
  <ele>493.11</ele>
  <time>2026-09-01T19:59:27Z</time>
  <course>181.9</course>
  <speed>0.02</speed>
  <fix>3d</fix>
</trkpt>
<trkpt lat="-27.2721927" lon="151.2900639">
  <ele>492.98</ele>
  <time>2026-09-01T19:59:27Z</time>
  <course>9.86</course>
  <speed>0.03</speed>
  <fix>3d</fix>
</trkpt>
<trkpt lat="-27.2721925" lon="151.2900639">
  <ele>493.11</ele>
  <time>2026-09-01T19:59:27Z</time>
  <course>181.9</course>
  <speed>0.02</speed>
  <fix>3d</fix>
</trkpt>
<trkpt lat="-27.2721927" lon="151.2900639">
  <ele>492.93</ele>
  <time>2026-09-01T19:59:27Z</time>
  <course>9.87</course>
  <speed>0.03</speed>
  <fix>3d</fix>
</trkpt>
<trkpt lat="-27.2721926" lon="151.2900639">
  <ele>493.08</ele>
  <time>2026-09-01T19:59:27Z</time>
  <course>186.13</course>
  <speed>0.02</speed>
  <fix>3d</fix>
</trkpt>
<trkpt lat="-27.2721927" lon="151.2900639">
  <ele>492.85</ele>
  <time>2026-09-01T19:59:27Z</time>
  <course>9.86</course>
  <speed>0.02</speed>
  <fix>3d</fix>
</trkpt>
<trkpt lat="-27.2721926" lon="151.2900639">
  <ele>493.08</ele>
  <time>2026-09-01T19:59:27Z</time>
  <course>186.13</course>
  <speed>0.02</speed>
  <fix>3d</fix>
</trkpt>
<trkpt lat="-27.2721927" lon="151.2900639">
  <ele>492.76</ele>
  <time>2026-09-01T19:59:27Z</time>
  <course>9.84</course>
  <speed>0.02</speed>
  <fix>3d</fix>
</trkpt>
<trkpt lat="-27.2721926" lon="151.2900639">
  <ele>492.99</ele>
  <time>2026-09-01T19:59:27Z</time>
  <course>188.97</course>
  <speed>0.02</speed>
  <fix>3d</fix>
</trkpt>
<trkpt lat="-27.2721928" lon="151.2900639">
  <ele>492.65</ele>
  <time>2026-09-01T19:59:27Z</time>
  <course>9.81</course>
  <speed>0.02</speed>
  <fix>3d</fix>
</trkpt>
<trkpt lat="-27.2721926" lon="151.2900639">
  <ele>492.99</ele>
  <time>2026-09-01T19:59:27Z</time>
  <course>188.97</course>
  <speed>0.02</speed>
  <fix>3d</fix>
</trkpt>
<trkpt lat="-27.2721928" lon="151.2900639">
  <ele>492.53</ele>
  <time>2026-09-01T19:59:27Z</time>
  <course>9.77</course>
  <speed>0.01</speed>
  <fix>3d</fix>
</trkpt>
<trkpt lat="-27.2721927" lon="151.2900639">
  <ele>492.83</ele>
  <time>2026-09-01T19:59:27Z</time>
  <course>187.74</course>
  <speed>0.01</speed>
  <fix>3d</fix>
</trkpt>
<trkpt lat="-27.2721928" lon="151.2900639">
  <ele>492.39</ele>
  <time>2026-09-01T19:59:27Z</time>
  <course>9.74</course>
  <speed>0.0</speed>
  <fix>3d</fix>
</trkpt>
<trkpt lat="-27.2721927" lon="151.2900639">
  <ele>492.83</ele>
  <time>2026-09-01T19:59:27Z</time>
  <course>187.74</course>
  <speed>0.01</speed>
  <fix>3d</fix>
</trkpt>
<trkpt lat="-27.2721927" lon="151.2900639">
  <ele>492.25</ele>
  <time>2026-09-01T19:59:27Z</time>
  <course>9.72</course>
  <speed>0.01</speed>
  <fix>3d</fix>
</trkpt>
<trkpt lat="-27.2721927" lon="151.2900639">
  <ele>492.61</ele>
  <time>2026-09-01T19:59:27Z</time>
  <course>182.52</course>
  <speed>0.0</speed>
  <fix>3d</fix>
</trkpt>
<trkpt lat="-27.2721927" lon="151.2900639">
  <ele>492.1</ele>
  <time>2026-09-01T19:59:27Z</time>
  <course>9.71</course>
  <speed>0.01</speed>
  <fix>3d</fix>
</trkpt>
<trkpt lat="-27.2721927" lon="151.2900639">
  <ele>492.61</ele>
  <time>2026-09-01T19:59:27Z</time>
  <course>182.52</course>
  <speed>0.0</speed>
  <fix>3d</fix>
</trkpt>
<trkpt lat="-27.2721927" lon="151.2900639">
  <ele>491.94</ele>
  <time>2026-09-01T19:59:27Z</time>
  <course>9.71</course>
  <speed>0.01414213562373095</speed>
  <fix>3d</fix>
</trkpt>
<trkpt lat="-27.2721927" lon="151.2900639">
  <ele>492.33</ele>
  <time>2026-09-01T19:59:27Z</time>
  <course>20.09</course>
  <speed>0.0</speed>
  <fix>3d</fix>
</trkpt>
<trkpt lat="-27.2721927" lon="151.2900639">
  <ele>491.78</ele>
  <time>2026-09-01T19:59:27Z</time>
  <course>9.72</course>
  <speed>0.01414213562373095</speed>
  <fix>3d</fix>
</trkpt>
<trkpt lat="-27.2721927" lon="151.2900639">
  <ele>492.33</ele>
  <time>2026-09-01T19:59:27Z</time>
  <course>20.09</course>
  <speed>0.0</speed>
  <fix>3d</fix>
</trkpt>
<trkpt lat="-27.2721927" lon="151.2900639">
  <ele>491.62</ele>
  <time>2026-09-01T19:59:27Z</time>
  <course>9.73</course>
  <speed>0.022360679774997897</speed>
  <fix>3d</fix>
</trkpt>
<trkpt lat="-27.2721927" lon="151.2900639">
  <ele>492.03</ele>
  <time>2026-09-01T19:59:27Z</time>
  <course>11.75</course>
  <speed>0.01</speed>
  <fix>3d</fix>
</trkpt>
<trkpt lat="-27.2721927" lon="151.2900639">
  <ele>491.45</ele>
  <time>2026-09-01T19:59:27Z</time>
  <course>9.74</course>
  <speed>0.022360679774997897</speed>
  <fix>3d</fix>
</trkpt>
<trkpt lat="-27.2721927" lon="151.2900639">
  <ele>492.03</ele>
  <time>2026-09-01T19:59:27Z</time>
  <course>11.75</course>
  <speed>0.01</speed>
  <fix>3d</fix>
</trkpt>
<trkpt lat="-27.2721927" lon="151.290064">
  <ele>491.28</ele>
  <time>2026-09-01T19:59:27Z</time>
  <course>9.75</course>
  <speed>0.0316227766016838</speed>
  <fix>3d</fix>
</trkpt>
<trkpt lat="-27.2721927" lon="151.2900639">
  <ele>491.7</ele>
  <time>2026-09-01T19:59:27Z</time>
  <course>10.24</course>
  <speed>0.02</speed>
  <fix>3d</fix>
</trkpt>
<trkpt lat="-27.2721927" lon="151.290064">
  <ele>491.12</ele>
  <time>2026-09-01T19:59:27Z</time>
  <course>9.76</course>
  <speed>0.0316227766016838</speed>
  <fix>3d</fix>
</trkpt>
<trkpt lat="-27.2721927" lon="151.2900639">
  <ele>491.7</ele>
  <time>2026-09-01T19:59:27Z</time>
  <course>10.24</course>
  <speed>0.02</speed>
  <fix>3d</fix>
</trkpt>
<trkpt lat="-27.2721926" lon="151.290064">
  <ele>490.96</ele>
  <time>2026-09-01T19:59:27Z</time>
  <course>9.76</course>
  <speed>0.0316227766016838</speed>
  <fix>3d</fix>
</trkpt>
<trkpt lat="-27.2721926" lon="151.2900639">
  <ele>491.38</ele>
  <time>2026-09-01T19:59:27Z</time>
  <course>9.55</course>
  <speed>0.03</speed>
  <fix>3d</fix>
</trkpt>
<trkpt lat="-27.2721926" lon="151.290064">
  <ele>490.8</ele>
  <time>2026-09-01T19:59:27Z</time>
  <course>9.76</course>
  <speed>0.0316227766016838</speed>
  <fix>3d</fix>
</trkpt>
<trkpt lat="-27.2721926" lon="151.2900639">
  <ele>491.38</ele>
  <time>2026-09-01T19:59:27Z</time>
  <course>9.55</course>
  <speed>0.03</speed>
  <fix>3d</fix>
</trkpt>
<trkpt lat="-27.2721926" lon="151.290064">
  <ele>490.64</ele>
  <time>2026-09-01T19:59:27Z</time>
  <course>9.76</course>
  <speed>0.0316227766016838</speed>
  <fix>3d</fix>
</trkpt>
<trkpt lat="-27.2721926" lon="151.2900639">
  <ele>491.06</ele>
  <time>2026-09-01T19:59:27Z</time>
  <course>9.05</course>
  <speed>0.04</speed>
  <fix>3d</fix>
</trkpt>
<trkpt lat="-27.2721925" lon="151.290064">
  <ele>490.49</ele>
  <time>2026-09-01T19:59:27Z</time>
  <course>9.75</course>
  <speed>0.0316227766016838</speed>
  <fix>3d</fix>
</trkpt>
<trkpt lat="-27.2721926" lon="151.2900639">
  <ele>491.06</ele>
  <time>2026-09-01T19:59:27Z</time>
  <course>9.05</course>
  <speed>0.04</speed>
  <fix>3d</fix>
</trkpt>
<trkpt lat="-27.2721925" lon="151.290064">
  <ele>490.33</ele>
  <time>2026-09-01T19:59:27Z</time>
  <course>9.74</course>
  <speed>0.0316227766016838</speed>
  <fix>3d</fix>
</trkpt>
<trkpt lat="-27.2721925" lon="151.290064">
  <ele>490.74</ele>
  <time>2026-09-01T19:59:27Z</time>
  <course>8.58</course>
  <speed>0.04</speed>
  <fix>3d</fix>
</trkpt>
<trkpt lat="-27.2721925" lon="151.290064">
  <ele>490.19</ele>
  <time>2026-09-01T19:59:27Z</time>
  <course>9.74</course>
  <speed>0.022360679774997897</speed>
  <fix>3d</fix>
</trkpt>
<trkpt lat="-27.2721925" lon="151.290064">
  <ele>490.74</ele>
  <time>2026-09-01T19:59:27Z</time>
  <course>8.58</course>
  <speed>0.04</speed>
  <fix>3d</fix>
</trkpt>
<trkpt lat="-27.2721924" lon="151.290064">
  <ele>490.04</ele>
  <time>2026-09-01T19:59:27Z</time>
  <course>9.73</course>
  <speed>0.022360679774997897</speed>
  <fix>3d</fix>
</trkpt>
<trkpt lat="-27.2721924" lon="151.290064">
  <ele>490.44</ele>
  <time>2026-09-01T19:59:27Z</time>
  <course>8.18</course>
  <speed>0.04</speed>
  <fix>3d</fix>
</trkpt>
<trkpt lat="-27.2721924" lon="151.290064">
  <ele>489.9</ele>
  <time>2026-09-01T19:59:27Z</time>
  <course>9.73</course>
  <speed>0.022360679774997897</speed>
  <fix>3d</fix>
</trkpt>
<trkpt lat="-27.2721924" lon="151.290064">
  <ele>490.44</ele>
  <time>2026-09-01T19:59:27Z</time>
  <course>8.18</course>
  <speed>0.04</speed>
  <fix>3d</fix>
</trkpt>
<trkpt lat="-27.2721924" lon="151.290064">
  <ele>489.75</ele>
  <time>2026-09-01T19:59:27Z</time>
  <course>9.72</course>
  <speed>0.022360679774997897</speed>
  <fix>3d</fix>
</trkpt>
<trkpt lat="-27.2721924" lon="151.290064">
  <ele>490.15</ele>
  <time>2026-09-01T19:59:27Z</time>
  <course>8.07</course>
  <speed>0.03</speed>
  <fix>3d</fix>
</trkpt>
<trkpt lat="-27.2721924" lon="151.290064">
  <ele>489.61</ele>
  <time>2026-09-01T19:59:27Z</time>
  <course>9.71</course>
  <speed>0.01414213562373095</speed>
  <fix>3d</fix>
</trkpt>
<trkpt lat="-27.2721924" lon="151.290064">
  <ele>490.15</ele>
  <time>2026-09-01T19:59:27Z</time>
  <course>8.07</course>
  <speed>0.03</speed>
  <fix>3d</fix>
</trkpt>
<trkpt lat="-27.2721924" lon="151.290064">
  <ele>489.47</ele>
  <time>2026-09-01T19:59:27Z</time>
  <course>9.7</course>
  <speed>0.01414213562373095</speed>
  <fix>3d</fix>
</trkpt>
<trkpt lat="-27.2721923" lon="151.290064">
  <ele>489.87</ele>
  <time>2026-09-01T19:59:27Z</time>
  <course>8.22</course>
  <speed>0.03</speed>
  <fix>3d</fix>
</trkpt>
<trkpt lat="-27.2721923" lon="151.2900641">
  <ele>489.32</ele>
  <time>2026-09-01T19:59:27Z</time>
  <course>9.69</course>
  <speed>0.01414213562373095</speed>
  <fix>3d</fix>
</trkpt>
<trkpt lat="-27.2721923" lon="151.290064">
  <ele>489.87</ele>
  <time>2026-09-01T19:59:27Z</time>
  <course>8.22</course>
  <speed>0.03</speed>
  <fix>3d</fix>
</trkpt>
<trkpt lat="-27.2721923" lon="151.2900641">
  <ele>489.18</ele>
  <time>2026-09-01T19:59:27Z</time>
  <course>9.67</course>
  <speed>0.01414213562373095</speed>
  <fix>3d</fix>
</trkpt>
<trkpt lat="-27.2721922" lon="151.290064">
  <ele>489.58</ele>
  <time>2026-09-01T19:59:27Z</time>
  <course>8.85</course>
  <speed>0.02</speed>
  <fix>3d</fix>
</trkpt>
<trkpt lat="-27.2721923" lon="151.2900641">
  <ele>489.03</ele>
  <time>2026-09-01T19:59:27Z</time>
  <course>9.66</course>
  <speed>0.01</speed>
  <fix>3d</fix>
</trkpt>
<trkpt lat="-27.2721922" lon="151.290064">
  <ele>489.58</ele>
  <time>2026-09-01T19:59:27Z</time>
  <course>8.85</course>
  <speed>0.02</speed>
  <fix>3d</fix>
</trkpt>
<trkpt lat="-27.2721923" lon="151.2900641">
  <ele>488.89</ele>
  <time>2026-09-01T19:59:27Z</time>
  <course>9.64</course>
  <speed>0.01</speed>
  <fix>3d</fix>
</trkpt>
<trkpt lat="-27.2721922" lon="151.290064">
  <ele>489.3</ele>
  <time>2026-09-01T19:59:27Z</time>
  <course>10.5</course>
  <speed>0.02</speed>
  <fix>3d</fix>
</trkpt>
<trkpt lat="-27.2721923" lon="151.2900641">
  <ele>488.74</ele>
  <time>2026-09-01T19:59:27Z</time>
  <course>9.64</course>
  <speed>0.01</speed>
  <fix>3d</fix>
</trkpt>
<trkpt lat="-27.2721922" lon="151.290064">
  <ele>489.3</ele>
  <time>2026-09-01T19:59:27Z</time>
  <course>10.5</course>
  <speed>0.02</speed>
  <fix>3d</fix>
</trkpt>
<trkpt lat="-27.2721923" lon="151.2900641">
  <ele>488.6</ele>
  <time>2026-09-01T19:59:27Z</time>
  <course>9.63</course>
  <speed>0.01</speed>
  <fix>3d</fix>
</trkpt>
<trkpt lat="-27.2721922" lon="151.290064">
  <ele>489.02</ele>
  <time>2026-09-01T19:59:27Z</time>
  <course>13.44</course>
  <speed>0.01</speed>
  <fix>3d</fix>
</trkpt>
<trkpt lat="-27.2721923" lon="151.2900641">
  <ele>488.45</ele>
  <time>2026-09-01T19:59:27Z</time>
  <course>9.62</course>
  <speed>0.01</speed>
  <fix>3d</fix>
</trkpt>
<trkpt lat="-27.2721922" lon="151.290064">
  <ele>489.02</ele>
  <time>2026-09-01T19:59:27Z</time>
  <course>13.44</course>
  <speed>0.01</speed>
  <fix>3d</fix>
</trkpt>
<trkpt lat="-27.2721923" lon="151.2900641">
  <ele>488.3</ele>
  <time>2026-09-01T19:59:27Z</time>
  <course>9.62</course>
  <speed>0.01</speed>
  <fix>3d</fix>
</trkpt>
<trkpt lat="-27.2721922" lon="151.290064">
  <ele>488.73</ele>
  <time>2026-09-01T19:59:27Z</time>
  <course>18.99</course>
  <speed>0.01</speed>
  <fix>3d</fix>
</trkpt>
<trkpt lat="-27.2721923" lon="151.2900641">
  <ele>488.15</ele>
  <time>2026-09-01T19:59:27Z</time>
  <course>9.63</course>
  <speed>0.01</speed>
  <fix>3d</fix>
</trkpt>
<trkpt lat="-27.2721922" lon="151.290064">
  <ele>488.73</ele>
  <time>2026-09-01T19:59:27Z</time>
  <course>18.99</course>
  <speed>0.01</speed>
  <fix>3d</fix>
</trkpt>
<trkpt lat="-27.2721923" lon="151.2900641">
  <ele>488.01</ele>
  <time>2026-09-01T19:59:27Z</time>
  <course>9.65</course>
  <speed>0.01</speed>
  <fix>3d</fix>
</trkpt>
<trkpt lat="-27.2721921" lon="151.290064">
  <ele>488.44</ele>
  <time>2026-09-01T19:59:27Z</time>
  <course>27.27</course>
  <speed>0.0</speed>
  <fix>3d</fix>
</trkpt>
<trkpt lat="-27.2721923" lon="151.2900641">
  <ele>487.86</ele>
  <time>2026-09-01T19:59:27Z</time>
  <course>9.67</course>
  <speed>0.01414213562373095</speed>
  <fix>3d</fix>
</trkpt>
<trkpt lat="-27.2721921" lon="151.290064">
  <ele>488.44</ele>
  <time>2026-09-01T19:59:27Z</time>
  <course>27.27</course>
  <speed>0.0</speed>
  <fix>3d</fix>
</trkpt>
<trkpt lat="-27.2721923" lon="151.2900641">
  <ele>487.71</ele>
  <time>2026-09-01T19:59:27Z</time>
  <course>9.68</course>
  <speed>0.01414213562373095</speed>
  <fix>3d</fix>
</trkpt>
<trkpt lat="-27.2721921" lon="151.290064">
  <ele>488.15</ele>
  <time>2026-09-01T19:59:27Z</time>
  <course>42.21</course>
  <speed>0.0</speed>
  <fix>3d</fix>
</trkpt>
<trkpt lat="-27.2721923" lon="151.2900641">
  <ele>487.56</ele>
  <time>2026-09-01T19:59:27Z</time>
  <course>9.68</course>
  <speed>0.01414213562373095</speed>
  <fix>3d</fix>
</trkpt>
<trkpt lat="-27.2721921" lon="151.290064">
  <ele>488.15</ele>
  <time>2026-09-01T19:59:27Z</time>
  <course>42.21</course>
  <speed>0.0</speed>
  <fix>3d</fix>
</trkpt>
<trkpt lat="-27.2721923" lon="151.2900641">
  <ele>487.41</ele>
  <time>2026-09-01T19:59:27Z</time>
  <course>9.67</course>
  <speed>0.01414213562373095</speed>
  <fix>3d</fix>
</trkpt>
<trkpt lat="-27.2721921" lon="151.290064">
  <ele>487.86</ele>
  <time>2026-09-01T19:59:27Z</time>
  <course>85.32</course>
  <speed>0.0</speed>
  <fix>3d</fix>
</trkpt>
<trkpt lat="-27.2721923" lon="151.2900641">
  <ele>487.27</ele>
  <time>2026-09-01T19:59:27Z</time>
  <course>9.64</course>
  <speed>0.01414213562373095</speed>
  <fix>3d</fix>
</trkpt>
<trkpt lat="-27.2721921" lon="151.290064">
  <ele>487.86</ele>
  <time>2026-09-01T19:59:27Z</time>
  <course>85.32</course>
  <speed>0.0</speed>
  <fix>3d</fix>
</trkpt>
<trkpt lat="-27.2721923" lon="151.2900641">
  <ele>487.12</ele>
  <time>2026-09-01T19:59:27Z</time>
  <course>9.61</course>
  <speed>0.01414213562373095</speed>
  <fix>3d</fix>
</trkpt>
<trkpt lat="-27.2721921" lon="151.2900641">
  <ele>487.56</ele>
  <time>2026-09-01T19:59:27Z</time>
  <course>121.73</course>
  <speed>0.0</speed>
  <fix>3d</fix>
</trkpt>
<trkpt lat="-27.2721923" lon="151.2900641">
  <ele>486.97</ele>
  <time>2026-09-01T19:59:27Z</time>
  <course>9.58</course>
  <speed>0.01414213562373095</speed>
  <fix>3d</fix>
</trkpt>
<trkpt lat="-27.2721921" lon="151.2900641">
  <ele>487.56</ele>
  <time>2026-09-01T19:59:27Z</time>
  <course>121.73</course>
  <speed>0.0</speed>
  <fix>3d</fix>
</trkpt>
<trkpt lat="-27.2721923" lon="151.2900641">
  <ele>486.82</ele>
  <time>2026-09-01T19:59:27Z</time>
  <course>9.57</course>
  <speed>0.01414213562373095</speed>
  <fix>3d</fix>
</trkpt>
<trkpt lat="-27.2721921" lon="151.2900641">
  <ele>487.26</ele>
  <time>2026-09-01T19:59:27Z</time>
  <course>136.65</course>
  <speed>0.0</speed>
  <fix>3d</fix>
</trkpt>
<trkpt lat="-27.2721923" lon="151.2900641">
  <ele>486.67</ele>
  <time>2026-09-01T19:59:27Z</time>
  <course>9.57</course>
  <speed>0.01414213562373095</speed>
  <fix>3d</fix>
</trkpt>
<trkpt lat="-27.2721921" lon="151.2900641">
  <ele>487.26</ele>
  <time>2026-09-01T19:59:27Z</time>
  <course>136.65</course>
  <speed>0.0</speed>
  <fix>3d</fix>
</trkpt>
<trkpt lat="-27.2721923" lon="151.2900641">
  <ele>486.53</ele>
  <time>2026-09-01T19:59:27Z</time>
  <course>9.57</course>
  <speed>0.01414213562373095</speed>
  <fix>3d</fix>
</trkpt>
<trkpt lat="-27.2721921" lon="151.2900641">
  <ele>486.97</ele>
  <time>2026-09-01T19:59:27Z</time>
  <course>148.23</course>
  <speed>0.0</speed>
  <fix>3d</fix>
</trkpt>
<trkpt lat="-27.2721923" lon="151.2900641">
  <ele>486.38</ele>
  <time>2026-09-01T19:59:27Z</time>
  <course>9.58</course>
  <speed>0.022360679774997897</speed>
  <fix>3d</fix>
</trkpt>
<trkpt lat="-27.2721921" lon="151.2900641">
  <ele>486.97</ele>
  <time>2026-09-01T19:59:27Z</time>
  <course>148.23</course>
  <speed>0.0</speed>
  <fix>3d</fix>
</trkpt>
<trkpt lat="-27.2721923" lon="151.2900641">
  <ele>486.23</ele>
  <time>2026-09-01T19:59:27Z</time>
  <course>9.58</course>
  <speed>0.022360679774997897</speed>
  <fix>3d</fix>
</trkpt>
<trkpt lat="-27.2721921" lon="151.2900641">
  <ele>486.66</ele>
  <time>2026-09-01T19:59:27Z</time>
  <course>154.69</course>
  <speed>0.0</speed>
  <fix>3d</fix>
</trkpt>
<trkpt lat="-27.2721923" lon="151.2900641">
  <ele>486.07</ele>
  <time>2026-09-01T19:59:27Z</time>
  <course>9.58</course>
  <speed>0.022360679774997897</speed>
  <fix>3d</fix>
</trkpt>
<trkpt lat="-27.2721921" lon="151.2900641">
  <ele>486.66</ele>
  <time>2026-09-01T19:59:27Z</time>
  <course>154.69</course>
  <speed>0.0</speed>
  <fix>3d</fix>
</trkpt>
<trkpt lat="-27.2721923" lon="151.2900641">
  <ele>485.92</ele>
  <time>2026-09-01T19:59:27Z</time>
  <course>9.57</course>
  <speed>0.022360679774997897</speed>
  <fix>3d</fix>
</trkpt>
<trkpt lat="-27.2721921" lon="151.2900641">
  <ele>486.37</ele>
  <time>2026-09-01T19:59:27Z</time>
  <course>159.13</course>
  <speed>0.0</speed>
  <fix>3d</fix>
</trkpt>
<trkpt lat="-27.2721923" lon="151.2900642">
  <ele>485.77</ele>
  <time>2026-09-01T19:59:27Z</time>
  <course>9.56</course>
  <speed>0.022360679774997897</speed>
  <fix>3d</fix>
</trkpt>
<trkpt lat="-27.2721921" lon="151.2900641">
  <ele>486.37</ele>
  <time>2026-09-01T19:59:27Z</time>
  <course>159.13</course>
  <speed>0.0</speed>
  <fix>3d</fix>
</trkpt>
<trkpt lat="-27.2721923" lon="151.2900642">
  <ele>485.61</ele>
  <time>2026-09-01T19:59:27Z</time>
  <course>9.54</course>
  <speed>0.022360679774997897</speed>
  <fix>3d</fix>
</trkpt>
<trkpt lat="-27.2721921" lon="151.2900641">
  <ele>486.07</ele>
  <time>2026-09-01T19:59:27Z</time>
  <course>163.35</course>
  <speed>0.01</speed>
  <fix>3d</fix>
</trkpt>
<trkpt lat="-27.2721923" lon="151.2900642">
  <ele>485.46</ele>
  <time>2026-09-01T19:59:27Z</time>
  <course>9.51</course>
  <speed>0.0282842712474619</speed>
  <fix>3d</fix>
</trkpt>
<trkpt lat="-27.2721921" lon="151.2900641">
  <ele>486.07</ele>
  <time>2026-09-01T19:59:27Z</time>
  <course>163.35</course>
  <speed>0.01</speed>
  <fix>3d</fix>
</trkpt>
<trkpt lat="-27.2721923" lon="151.2900642">
  <ele>485.31</ele>
  <time>2026-09-01T19:59:27Z</time>
  <course>9.48</course>
  <speed>0.0282842712474619</speed>
  <fix>3d</fix>
</trkpt>
<trkpt lat="-27.2721921" lon="151.2900641">
  <ele>485.77</ele>
  <time>2026-09-01T19:59:27Z</time>
  <course>165.09</course>
  <speed>0.01</speed>
  <fix>3d</fix>
</trkpt>
<trkpt lat="-27.2721923" lon="151.2900642">
  <ele>485.16</ele>
  <time>2026-09-01T19:59:27Z</time>
  <course>9.45</course>
  <speed>0.03605551275463989</speed>
  <fix>3d</fix>
</trkpt>
<trkpt lat="-27.2721921" lon="151.2900641">
  <ele>485.77</ele>
  <time>2026-09-01T19:59:27Z</time>
  <course>165.09</course>
  <speed>0.01</speed>
  <fix>3d</fix>
</trkpt>
<trkpt lat="-27.2721923" lon="151.2900642">
  <ele>485.01</ele>
  <time>2026-09-01T19:59:27Z</time>
  <course>9.41</course>
  <speed>0.03605551275463989</speed>
  <fix>3d</fix>
</trkpt>
<trkpt lat="-27.2721921" lon="151.2900641">
  <ele>485.47</ele>
  <time>2026-09-01T19:59:27Z</time>
  <course>165.55</course>
  <speed>0.01</speed>
  <fix>3d</fix>
</trkpt>
<trkpt lat="-27.2721923" lon="151.2900642">
  <ele>484.86</ele>
  <time>2026-09-01T19:59:27Z</time>
  <course>9.37</course>
  <speed>0.03605551275463989</speed>
  <fix>3d</fix>
</trkpt>
<trkpt lat="-27.2721921" lon="151.2900641">
  <ele>485.47</ele>
  <time>2026-09-01T19:59:27Z</time>
  <course>165.55</course>
  <speed>0.01</speed>
  <fix>3d</fix>
</trkpt>
<trkpt lat="-27.2721923" lon="151.2900642">
  <ele>484.71</ele>
  <time>2026-09-01T19:59:27Z</time>
  <course>9.34</course>
  <speed>0.03605551275463989</speed>
  <fix>3d</fix>
</trkpt>
<trkpt lat="-27.2721922" lon="151.2900641">
  <ele>485.16</ele>
  <time>2026-09-01T19:59:27Z</time>
  <course>164.55</course>
  <speed>0.01</speed>
  <fix>3d</fix>
</trkpt>
<trkpt lat="-27.2721923" lon="151.2900642">
  <ele>484.56</ele>
  <time>2026-09-01T19:59:27Z</time>
  <course>9.31</course>
  <speed>0.03605551275463989</speed>
  <fix>3d</fix>
</trkpt>
<trkpt lat="-27.2721922" lon="151.2900641">
  <ele>485.16</ele>
  <time>2026-09-01T19:59:27Z</time>
  <course>164.55</course>
  <speed>0.01</speed>
  <fix>3d</fix>
</trkpt>
<trkpt lat="-27.2721923" lon="151.2900642">
  <ele>484.41</ele>
  <time>2026-09-01T19:59:27Z</time>
  <course>9.3</course>
  <speed>0.03605551275463989</speed>
  <fix>3d</fix>
</trkpt>
<trkpt lat="-27.2721922" lon="151.2900641">
  <ele>484.87</ele>
  <time>2026-09-01T19:59:27Z</time>
  <course>164.66</course>
  <speed>0.01</speed>
  <fix>3d</fix>
</trkpt>
<trkpt lat="-27.2721923" lon="151.2900642">
  <ele>484.26</ele>
  <time>2026-09-01T19:59:27Z</time>
  <course>9.29</course>
  <speed>0.03605551275463989</speed>
  <fix>3d</fix>
</trkpt>
<trkpt lat="-27.2721922" lon="151.2900641">
  <ele>484.87</ele>
  <time>2026-09-01T19:59:27Z</time>
  <course>164.66</course>
  <speed>0.01</speed>
  <fix>3d</fix>
</trkpt>
<trkpt lat="-27.2721924" lon="151.2900642">
  <ele>484.11</ele>
  <time>2026-09-01T19:59:27Z</time>
  <course>9.3</course>
  <speed>0.03605551275463989</speed>
  <fix>3d</fix>
</trkpt>
<trkpt lat="-27.2721922" lon="151.2900641">
  <ele>484.58</ele>
  <time>2026-09-01T19:59:27Z</time>
  <course>166.37</course>
  <speed>0.02</speed>
  <fix>3d</fix>
</trkpt>
<trkpt lat="-27.2721924" lon="151.2900642">
  <ele>483.96</ele>
  <time>2026-09-01T19:59:27Z</time>
  <course>9.33</course>
  <speed>0.03605551275463989</speed>
  <fix>3d</fix>
</trkpt>
<trkpt lat="-27.2721922" lon="151.2900641">
  <ele>484.58</ele>
  <time>2026-09-01T19:59:27Z</time>
  <course>166.37</course>
  <speed>0.02</speed>
  <fix>3d</fix>
</trkpt>
<trkpt lat="-27.2721924" lon="151.2900642">
  <ele>483.81</ele>
  <time>2026-09-01T19:59:27Z</time>
  <course>9.36</course>
  <speed>0.0316227766016838</speed>
  <fix>3d</fix>
</trkpt>
<trkpt lat="-27.2721923" lon="151.2900641">
  <ele>484.28</ele>
  <time>2026-09-01T19:59:27Z</time>
  <course>168.12</course>
  <speed>0.02</speed>
  <fix>3d</fix>
</trkpt>
<trkpt lat="-27.2721924" lon="151.2900642">
  <ele>483.66</ele>
  <time>2026-09-01T19:59:27Z</time>
  <course>9.38</course>
  <speed>0.0316227766016838</speed>
  <fix>3d</fix>
</trkpt>
<trkpt lat="-27.2721923" lon="151.2900641">
  <ele>484.28</ele>
  <time>2026-09-01T19:59:27Z</time>
  <course>168.12</course>
  <speed>0.02</speed>
  <fix>3d</fix>
</trkpt>
<trkpt lat="-27.2721924" lon="151.2900642">
  <ele>483.52</ele>
  <time>2026-09-01T19:59:27Z</time>
  <course>9.4</course>
  <speed>0.0316227766016838</speed>
  <fix>3d</fix>
</trkpt>
<trkpt lat="-27.2721923" lon="151.2900641">
  <ele>483.98</ele>
  <time>2026-09-01T19:59:27Z</time>
  <course>170.01</course>
  <speed>0.02</speed>
  <fix>3d</fix>
</trkpt>
<trkpt lat="-27.2721924" lon="151.2900642">
  <ele>483.37</ele>
  <time>2026-09-01T19:59:27Z</time>
  <course>9.4</course>
  <speed>0.0316227766016838</speed>
  <fix>3d</fix>
</trkpt>
<trkpt lat="-27.2721923" lon="151.2900641">
  <ele>483.98</ele>
  <time>2026-09-01T19:59:27Z</time>
  <course>170.01</course>
  <speed>0.02</speed>
  <fix>3d</fix>
</trkpt>
<trkpt lat="-27.2721925" lon="151.2900643">
  <ele>483.22</ele>
  <time>2026-09-01T19:59:27Z</time>
  <course>9.37</course>
  <speed>0.03605551275463989</speed>
  <fix>3d</fix>
</trkpt>
<trkpt lat="-27.2721923" lon="151.2900642">
  <ele>483.69</ele>
  <time>2026-09-01T19:59:27Z</time>
  <course>169.78</course>
  <speed>0.02</speed>
  <fix>3d</fix>
</trkpt>
<trkpt lat="-27.2721925" lon="151.2900643">
  <ele>483.07</ele>
  <time>2026-09-01T19:59:27Z</time>
  <course>9.33</course>
  <speed>0.0316227766016838</speed>
  <fix>3d</fix>
</trkpt>
<trkpt lat="-27.2721923" lon="151.2900642">
  <ele>483.69</ele>
  <time>2026-09-01T19:59:27Z</time>
  <course>169.78</course>
  <speed>0.02</speed>
  <fix>3d</fix>
</trkpt>
<trkpt lat="-27.2721925" lon="151.2900643">
  <ele>482.92</ele>
  <time>2026-09-01T19:59:27Z</time>
  <course>9.3</course>
  <speed>0.0316227766016838</speed>
  <fix>3d</fix>
</trkpt>
<trkpt lat="-27.2721924" lon="151.2900642">
  <ele>483.39</ele>
  <time>2026-09-01T19:59:27Z</time>
  <course>167.45</course>
  <speed>0.02</speed>
  <fix>3d</fix>
</trkpt>
<trkpt lat="-27.2721925" lon="151.2900643">
  <ele>482.77</ele>
  <time>2026-09-01T19:59:27Z</time>
  <course>9.27</course>
  <speed>0.0316227766016838</speed>
  <fix>3d</fix>
</trkpt>
<trkpt lat="-27.2721924" lon="151.2900642">
  <ele>483.39</ele>
  <time>2026-09-01T19:59:27Z</time>
  <course>167.45</course>
  <speed>0.02</speed>
  <fix>3d</fix>
</trkpt>
<trkpt lat="-27.2721925" lon="151.2900643">
  <ele>482.62</ele>
  <time>2026-09-01T19:59:27Z</time>
  <course>9.25</course>
  <speed>0.0316227766016838</speed>
  <fix>3d</fix>
</trkpt>
<trkpt lat="-27.2721924" lon="151.2900642">
  <ele>483.09</ele>
  <time>2026-09-01T19:59:27Z</time>
  <course>166.14</course>
  <speed>0.02</speed>
  <fix>3d</fix>
</trkpt>
<trkpt lat="-27.2721926" lon="151.2900643">
  <ele>482.47</ele>
  <time>2026-09-01T19:59:27Z</time>
  <course>9.23</course>
  <speed>0.03605551275463989</speed>
  <fix>3d</fix>
</trkpt>
<trkpt lat="-27.2721924" lon="151.2900642">
  <ele>483.09</ele>
  <time>2026-09-01T19:59:27Z</time>
  <course>166.14</course>
  <speed>0.02</speed>
  <fix>3d</fix>
</trkpt>
<trkpt lat="-27.2721926" lon="151.2900643">
  <ele>482.32</ele>
  <time>2026-09-01T19:59:27Z</time>
  <course>9.22</course>
  <speed>0.0316227766016838</speed>
  <fix>3d</fix>
</trkpt>
<trkpt lat="-27.2721925" lon="151.2900642">
  <ele>482.8</ele>
  <time>2026-09-01T19:59:27Z</time>
  <course>165.02</course>
  <speed>0.02</speed>
  <fix>3d</fix>
</trkpt>
<trkpt lat="-27.2721926" lon="151.2900643">
  <ele>482.17</ele>
  <time>2026-09-01T19:59:27Z</time>
  <course>9.22</course>
  <speed>0.0316227766016838</speed>
  <fix>3d</fix>
</trkpt>
<trkpt lat="-27.2721925" lon="151.2900642">
  <ele>482.8</ele>
  <time>2026-09-01T19:59:27Z</time>
  <course>165.02</course>
  <speed>0.02</speed>
  <fix>3d</fix>
</trkpt>
<trkpt lat="-27.2721926" lon="151.2900643">
  <ele>482.02</ele>
  <time>2026-09-01T19:59:27Z</time>
  <course>9.22</course>
  <speed>0.0316227766016838</speed>
  <fix>3d</fix>
</trkpt>
<trkpt lat="-27.2721925" lon="151.2900642">
  <ele>482.5</ele>
  <time>2026-09-01T19:59:27Z</time>
  <course>163.06</course>
  <speed>0.02</speed>
  <fix>3d</fix>
</trkpt>
<trkpt lat="-27.2721926" lon="151.2900643">
  <ele>481.87</ele>
  <time>2026-09-01T19:59:27Z</time>
  <course>9.21</course>
  <speed>0.0316227766016838</speed>
  <fix>3d</fix>
</trkpt>
<trkpt lat="-27.2721925" lon="151.2900642">
  <ele>482.5</ele>
  <time>2026-09-01T19:59:27Z</time>
  <course>163.06</course>
  <speed>0.02</speed>
  <fix>3d</fix>
</trkpt>
<trkpt lat="-27.2721926" lon="151.2900643">
  <ele>481.72</ele>
  <time>2026-09-01T19:59:27Z</time>
  <course>9.19</course>
  <speed>0.0316227766016838</speed>
  <fix>3d</fix>
</trkpt>
<trkpt lat="-27.2721925" lon="151.2900642">
  <ele>482.2</ele>
  <time>2026-09-01T19:59:27Z</time>
  <course>160.68</course>
  <speed>0.02</speed>
  <fix>3d</fix>
</trkpt>
<trkpt lat="-27.2721927" lon="151.2900643">
  <ele>481.57</ele>
  <time>2026-09-01T19:59:27Z</time>
  <course>9.17</course>
  <speed>0.0316227766016838</speed>
  <fix>3d</fix>
</trkpt>
<trkpt lat="-27.2721925" lon="151.2900642">
  <ele>482.2</ele>
  <time>2026-09-01T19:59:27Z</time>
  <course>160.68</course>
  <speed>0.02</speed>
  <fix>3d</fix>
</trkpt>
<trkpt lat="-27.2721927" lon="151.2900643">
  <ele>481.42</ele>
  <time>2026-09-01T19:59:27Z</time>
  <course>9.17</course>
  <speed>0.0316227766016838</speed>
  <fix>3d</fix>
</trkpt>
<trkpt lat="-27.2721926" lon="151.2900642">
  <ele>481.9</ele>
  <time>2026-09-01T19:59:27Z</time>
  <course>157.47</course>
  <speed>0.02</speed>
  <fix>3d</fix>
</trkpt>
<trkpt lat="-27.2721927" lon="151.2900643">
  <ele>481.28</ele>
  <time>2026-09-01T19:59:27Z</time>
  <course>9.16</course>
  <speed>0.0316227766016838</speed>
  <fix>3d</fix>
</trkpt>
<trkpt lat="-27.2721926" lon="151.2900642">
  <ele>481.9</ele>
  <time>2026-09-01T19:59:27Z</time>
  <course>157.47</course>
  <speed>0.02</speed>
  <fix>3d</fix>
</trkpt>
<trkpt lat="-27.2721927" lon="151.2900643">
  <ele>481.13</ele>
  <time>2026-09-01T19:59:27Z</time>
  <course>9.16</course>
  <speed>0.022360679774997897</speed>
  <fix>3d</fix>
</trkpt>
<trkpt lat="-27.2721926" lon="151.2900642">
  <ele>481.6</ele>
  <time>2026-09-01T19:59:27Z</time>
  <course>154.84</course>
  <speed>0.02</speed>
  <fix>3d</fix>
</trkpt>
<trkpt lat="-27.2721927" lon="151.2900643">
  <ele>480.98</ele>
  <time>2026-09-01T19:59:27Z</time>
  <course>9.17</course>
  <speed>0.022360679774997897</speed>
  <fix>3d</fix>
</trkpt>
<trkpt lat="-27.2721926" lon="151.2900642">
  <ele>481.6</ele>
  <time>2026-09-01T19:59:27Z</time>
  <course>154.84</course>
  <speed>0.02</speed>
  <fix>3d</fix>
</trkpt>
<trkpt lat="-27.2721927" lon="151.2900643">
  <ele>480.83</ele>
  <time>2026-09-01T19:59:27Z</time>
  <course>9.18</course>
  <speed>0.022360679774997897</speed>
  <fix>3d</fix>
</trkpt>
<trkpt lat="-27.2721927" lon="151.2900642">
  <ele>481.3</ele>
  <time>2026-09-01T19:59:27Z</time>
  <course>151.97</course>
  <speed>0.02</speed>
  <fix>3d</fix>
</trkpt>
<trkpt lat="-27.2721928" lon="151.2900643">
  <ele>480.68</ele>
  <time>2026-09-01T19:59:27Z</time>
  <course>9.19</course>
  <speed>0.022360679774997897</speed>
  <fix>3d</fix>
</trkpt>
<trkpt lat="-27.2721927" lon="151.2900642">
  <ele>481.3</ele>
  <time>2026-09-01T19:59:27Z</time>
  <course>151.97</course>
  <speed>0.02</speed>
  <fix>3d</fix>
</trkpt>
<trkpt lat="-27.2721928" lon="151.2900643">
  <ele>480.53</ele>
  <time>2026-09-01T19:59:27Z</time>
  <course>9.19</course>
  <speed>0.022360679774997897</speed>
  <fix>3d</fix>
</trkpt>
<trkpt lat="-27.2721927" lon="151.2900642">
  <ele>481.0</ele>
  <time>2026-09-01T19:59:27Z</time>
  <course>149.55</course>
  <speed>0.01</speed>
  <fix>3d</fix>
</trkpt>
<trkpt lat="-27.2721928" lon="151.2900643">
  <ele>480.38</ele>
  <time>2026-09-01T19:59:27Z</time>
  <course>9.19</course>
  <speed>0.022360679774997897</speed>
  <fix>3d</fix>
</trkpt>
<trkpt lat="-27.2721927" lon="151.2900642">
  <ele>481.0</ele>
  <time>2026-09-01T19:59:27Z</time>
  <course>149.55</course>
  <speed>0.01</speed>
  <fix>3d</fix>
</trkpt>
<trkpt lat="-27.2721928" lon="151.2900643">
  <ele>480.22</ele>
  <time>2026-09-01T19:59:27Z</time>
  <course>9.18</course>
  <speed>0.0282842712474619</speed>
  <fix>3d</fix>
</trkpt>
<trkpt lat="-27.2721927" lon="151.2900642">
  <ele>480.7</ele>
  <time>2026-09-01T19:59:27Z</time>
  <course>147.35</course>
  <speed>0.01</speed>
  <fix>3d</fix>
</trkpt>
<trkpt lat="-27.2721928" lon="151.2900643">
  <ele>480.07</ele>
  <time>2026-09-01T19:59:27Z</time>
  <course>9.17</course>
  <speed>0.022360679774997897</speed>
  <fix>3d</fix>
</trkpt>
<trkpt lat="-27.2721927" lon="151.2900642">
  <ele>480.7</ele>
  <time>2026-09-01T19:59:27Z</time>
  <course>147.35</course>
  <speed>0.01</speed>
  <fix>3d</fix>
</trkpt>
<trkpt lat="-27.2721928" lon="151.2900644">
  <ele>479.92</ele>
  <time>2026-09-01T19:59:27Z</time>
  <course>9.16</course>
  <speed>0.022360679774997897</speed>
  <fix>3d</fix>
</trkpt>
<trkpt lat="-27.2721928" lon="151.2900643">
  <ele>480.4</ele>
  <time>2026-09-01T19:59:27Z</time>
  <course>144.97</course>
  <speed>0.01</speed>
  <fix>3d</fix>
</trkpt>
<trkpt lat="-27.2721928" lon="151.2900644">
  <ele>479.77</ele>
  <time>2026-09-01T19:59:27Z</time>
  <course>9.13</course>
  <speed>0.0282842712474619</speed>
  <fix>3d</fix>
</trkpt>
<trkpt lat="-27.2721928" lon="151.2900643">
  <ele>480.4</ele>
  <time>2026-09-01T19:59:27Z</time>
  <course>144.97</course>
  <speed>0.01</speed>
  <fix>3d</fix>
</trkpt>
<trkpt lat="-27.2721929" lon="151.2900644">
  <ele>479.62</ele>
  <time>2026-09-01T19:59:27Z</time>
  <course>9.11</course>
  <speed>0.0282842712474619</speed>
  <fix>3d</fix>
</trkpt>
<trkpt lat="-27.2721928" lon="151.2900644">
  <ele>480.1</ele>
  <time>2026-09-01T19:59:27Z</time>
  <course>140.53</course>
  <speed>0.01</speed>
  <fix>3d</fix>
</trkpt>
<trkpt lat="-27.2721929" lon="151.2900644">
  <ele>479.47</ele>
  <time>2026-09-01T19:59:27Z</time>
  <course>9.08</course>
  <speed>0.0282842712474619</speed>
  <fix>3d</fix>
</trkpt>
<trkpt lat="-27.2721928" lon="151.2900644">
  <ele>480.1</ele>
  <time>2026-09-01T19:59:27Z</time>
  <course>140.53</course>
  <speed>0.01</speed>
  <fix>3d</fix>
</trkpt>
<trkpt lat="-27.2721929" lon="151.2900644">
  <ele>479.32</ele>
  <time>2026-09-01T19:59:27Z</time>
  <course>9.06</course>
  <speed>0.0282842712474619</speed>
  <fix>3d</fix>
</trkpt>
<trkpt lat="-27.2721928" lon="151.2900644">
  <ele>479.8</ele>
  <time>2026-09-01T19:59:27Z</time>
  <course>134.31</course>
  <speed>0.01</speed>
  <fix>3d</fix>
</trkpt>
<trkpt lat="-27.2721929" lon="151.2900644">
  <ele>479.18</ele>
  <time>2026-09-01T19:59:27Z</time>
  <course>9.04</course>
  <speed>0.0282842712474619</speed>
  <fix>3d</fix>
</trkpt>
<trkpt lat="-27.2721928" lon="151.2900644">
  <ele>479.8</ele>
  <time>2026-09-01T19:59:27Z</time>
  <course>134.31</course>
  <speed>0.01</speed>
  <fix>3d</fix>
</trkpt>
<trkpt lat="-27.2721929" lon="151.2900644">
  <ele>479.03</ele>
  <time>2026-09-01T19:59:27Z</time>
  <course>9.01</course>
  <speed>0.0282842712474619</speed>
  <fix>3d</fix>
</trkpt>
<trkpt lat="-27.2721928" lon="151.2900644">
  <ele>479.5</ele>
  <time>2026-09-01T19:59:27Z</time>
  <course>126.91</course>
  <speed>0.01</speed>
  <fix>3d</fix>
</trkpt>
<trkpt lat="-27.2721929" lon="151.2900645">
  <ele>478.88</ele>
  <time>2026-09-01T19:59:27Z</time>
  <course>8.98</course>
  <speed>0.0282842712474619</speed>
  <fix>3d</fix>
</trkpt>
<trkpt lat="-27.2721928" lon="151.2900644">
  <ele>479.5</ele>
  <time>2026-09-01T19:59:27Z</time>
  <course>126.91</course>
  <speed>0.01</speed>
  <fix>3d</fix>
</trkpt>
<trkpt lat="-27.2721929" lon="151.2900645">
  <ele>478.73</ele>
  <time>2026-09-01T19:59:27Z</time>
  <course>8.94</course>
  <speed>0.0282842712474619</speed>
  <fix>3d</fix>
</trkpt>
<trkpt lat="-27.2721928" lon="151.2900644">
  <ele>479.2</ele>
  <time>2026-09-01T19:59:27Z</time>
  <course>119.57</course>
  <speed>0.01</speed>
  <fix>3d</fix>
</trkpt>
<trkpt lat="-27.2721929" lon="151.2900645">
  <ele>478.58</ele>
  <time>2026-09-01T19:59:27Z</time>
  <course>8.91</course>
  <speed>0.0282842712474619</speed>
  <fix>3d</fix>
</trkpt>
<trkpt lat="-27.2721928" lon="151.2900644">
  <ele>479.2</ele>
  <time>2026-09-01T19:59:27Z</time>
  <course>119.57</course>
  <speed>0.01</speed>
  <fix>3d</fix>
</trkpt>
<trkpt lat="-27.2721929" lon="151.2900645">
  <ele>478.43</ele>
  <time>2026-09-01T19:59:27Z</time>
  <course>8.89</course>
  <speed>0.0282842712474619</speed>
  <fix>3d</fix>
</trkpt>
<trkpt lat="-27.2721929" lon="151.2900645">
  <ele>478.9</ele>
  <time>2026-09-01T19:59:27Z</time>
  <course>114.0</course>
  <speed>0.01</speed>
  <fix>3d</fix>
</trkpt>
<trkpt lat="-27.2721929" lon="151.2900645">
  <ele>478.28</ele>
  <time>2026-09-01T19:59:27Z</time>
  <course>8.88</course>
  <speed>0.0282842712474619</speed>
  <fix>3d</fix>
</trkpt>
<trkpt lat="-27.2721929" lon="151.2900645">
  <ele>478.9</ele>
  <time>2026-09-01T19:59:27Z</time>
  <course>114.0</course>
  <speed>0.01</speed>
  <fix>3d</fix>
</trkpt>
<trkpt lat="-27.2721929" lon="151.2900645">
  <ele>478.13</ele>
  <time>2026-09-01T19:59:27Z</time>
  <course>8.87</course>
  <speed>0.01414213562373095</speed>
  <fix>3d</fix>
</trkpt>
<trkpt lat="-27.2721929" lon="151.2900645">
  <ele>478.6</ele>
  <time>2026-09-01T19:59:27Z</time>
  <course>108.86</course>
  <speed>0.01</speed>
  <fix>3d</fix>
</trkpt>
<trkpt lat="-27.272193" lon="151.2900646">
  <ele>477.98</ele>
  <time>2026-09-01T19:59:27Z</time>
  <course>8.86</course>
  <speed>0.0316227766016838</speed>
  <fix>3d</fix>
</trkpt>
<trkpt lat="-27.2721929" lon="151.2900645">
  <ele>478.6</ele>
  <time>2026-09-01T19:59:27Z</time>
  <course>108.86</course>
  <speed>0.01</speed>
  <fix>3d</fix>
</trkpt>
<trkpt lat="-27.272193" lon="151.2900646">
  <ele>477.83</ele>
  <time>2026-09-01T19:59:27Z</time>
  <course>8.85</course>
  <speed>0.022360679774997897</speed>
  <fix>3d</fix>
</trkpt>
<trkpt lat="-27.2721929" lon="151.2900645">
  <ele>478.3</ele>
  <time>2026-09-01T19:59:27Z</time>
  <course>103.66</course>
  <speed>0.01</speed>
  <fix>3d</fix>
</trkpt>
<trkpt lat="-27.272193" lon="151.2900646">
  <ele>477.68</ele>
  <time>2026-09-01T19:59:27Z</time>
  <course>8.82</course>
  <speed>0.0316227766016838</speed>
  <fix>3d</fix>
</trkpt>
<trkpt lat="-27.2721929" lon="151.2900645">
  <ele>478.3</ele>
  <time>2026-09-01T19:59:27Z</time>
  <course>103.66</course>
  <speed>0.01</speed>
  <fix>3d</fix>
</trkpt>
<trkpt lat="-27.272193" lon="151.2900646">
  <ele>477.53</ele>
  <time>2026-09-01T19:59:27Z</time>
  <course>8.78</course>
  <speed>0.0316227766016838</speed>
  <fix>3d</fix>
</trkpt>
<trkpt lat="-27.2721929" lon="151.2900646">
  <ele>478.0</ele>
  <time>2026-09-01T19:59:27Z</time>
  <course>98.49</course>
  <speed>0.01</speed>
  <fix>3d</fix>
</trkpt>
<trkpt lat="-27.272193" lon="151.2900647">
  <ele>477.38</ele>
  <time>2026-09-01T19:59:27Z</time>
  <course>8.74</course>
  <speed>0.0316227766016838</speed>
  <fix>3d</fix>
</trkpt>
<trkpt lat="-27.2721929" lon="151.2900646">
  <ele>478.0</ele>
  <time>2026-09-01T19:59:27Z</time>
  <course>98.49</course>
  <speed>0.01</speed>
  <fix>3d</fix>
</trkpt>
<trkpt lat="-27.272193" lon="151.2900647">
  <ele>477.23</ele>
  <time>2026-09-01T19:59:27Z</time>
  <course>8.69</course>
  <speed>0.0316227766016838</speed>
  <fix>3d</fix>
</trkpt>
<trkpt lat="-27.2721929" lon="151.2900646">
  <ele>477.69</ele>
  <time>2026-09-01T19:59:27Z</time>
  <course>94.73</course>
  <speed>0.02</speed>
  <fix>3d</fix>
</trkpt>
<trkpt lat="-27.272193" lon="151.2900647">
  <ele>477.08</ele>
  <time>2026-09-01T19:59:27Z</time>
  <course>8.64</course>
  <speed>0.0316227766016838</speed>
  <fix>3d</fix>
</trkpt>
<trkpt lat="-27.2721929" lon="151.2900646">
  <ele>477.69</ele>
  <time>2026-09-01T19:59:27Z</time>
  <course>94.73</course>
  <speed>0.02</speed>
  <fix>3d</fix>
</trkpt>
<trkpt lat="-27.272193" lon="151.2900647">
  <ele>476.93</ele>
  <time>2026-09-01T19:59:27Z</time>
  <course>8.61</course>
  <speed>0.0316227766016838</speed>
  <fix>3d</fix>
</trkpt>
<trkpt lat="-27.2721929" lon="151.2900646">
  <ele>477.39</ele>
  <time>2026-09-01T19:59:27Z</time>
  <course>91.78</course>
  <speed>0.02</speed>
  <fix>3d</fix>
</trkpt>
<trkpt lat="-27.272193" lon="151.2900648">
  <ele>476.78</ele>
  <time>2026-09-01T19:59:27Z</time>
  <course>8.58</course>
  <speed>0.0316227766016838</speed>
  <fix>3d</fix>
</trkpt>
<trkpt lat="-27.2721929" lon="151.2900646">
  <ele>477.39</ele>
  <time>2026-09-01T19:59:27Z</time>
  <course>91.78</course>
  <speed>0.02</speed>
  <fix>3d</fix>
</trkpt>
<trkpt lat="-27.272193" lon="151.2900648">
  <ele>476.62</ele>
  <time>2026-09-01T19:59:27Z</time>
  <course>8.55</course>
  <speed>0.0316227766016838</speed>
  <fix>3d</fix>
</trkpt>
<trkpt lat="-27.2721929" lon="151.2900646">
  <ele>477.09</ele>
  <time>2026-09-01T19:59:27Z</time>
  <course>89.08</course>
  <speed>0.02</speed>
  <fix>3d</fix>
</trkpt>
<trkpt lat="-27.272193" lon="151.2900648">
  <ele>476.47</ele>
  <time>2026-09-01T19:59:27Z</time>
  <course>8.53</course>
  <speed>0.0316227766016838</speed>
  <fix>3d</fix>
</trkpt>
<trkpt lat="-27.2721929" lon="151.2900646">
  <ele>477.09</ele>
  <time>2026-09-01T19:59:27Z</time>
  <course>89.08</course>
  <speed>0.02</speed>
  <fix>3d</fix>
</trkpt>
<trkpt lat="-27.272193" lon="151.2900648">
  <ele>476.32</ele>
  <time>2026-09-01T19:59:27Z</time>
  <course>8.51</course>
  <speed>0.0316227766016838</speed>
  <fix>3d</fix>
</trkpt>
<trkpt lat="-27.2721929" lon="151.2900647">
  <ele>476.79</ele>
  <time>2026-09-01T19:59:27Z</time>
  <course>87.46</course>
  <speed>0.02</speed>
  <fix>3d</fix>
</trkpt>
<trkpt lat="-27.272193" lon="151.2900649">
  <ele>476.17</ele>
  <time>2026-09-01T19:59:27Z</time>
  <course>8.49</course>
  <speed>0.0316227766016838</speed>
  <fix>3d</fix>
</trkpt>
<trkpt lat="-27.2721929" lon="151.2900647">
  <ele>476.79</ele>
  <time>2026-09-01T19:59:27Z</time>
  <course>87.46</course>
  <speed>0.02</speed>
  <fix>3d</fix>
</trkpt>
<trkpt lat="-27.272193" lon="151.2900649">
  <ele>476.02</ele>
  <time>2026-09-01T19:59:27Z</time>
  <course>8.47</course>
  <speed>0.0316227766016838</speed>
  <fix>3d</fix>
</trkpt>
<trkpt lat="-27.2721929" lon="151.2900647">
  <ele>476.49</ele>
  <time>2026-09-01T19:59:27Z</time>
  <course>86.74</course>
  <speed>0.02</speed>
  <fix>3d</fix>
</trkpt>
<trkpt lat="-27.272193" lon="151.2900649">
  <ele>475.87</ele>
  <time>2026-09-01T19:59:27Z</time>
  <course>8.44</course>
  <speed>0.0316227766016838</speed>
  <fix>3d</fix>
</trkpt>
<trkpt lat="-27.2721929" lon="151.2900647">
  <ele>476.49</ele>
  <time>2026-09-01T19:59:27Z</time>
  <course>86.74</course>
  <speed>0.02</speed>
  <fix>3d</fix>
</trkpt>
<trkpt lat="-27.272193" lon="151.2900649">
  <ele>475.72</ele>
  <time>2026-09-01T19:59:27Z</time>
  <course>8.41</course>
  <speed>0.0316227766016838</speed>
  <fix>3d</fix>
</trkpt>
<trkpt lat="-27.2721929" lon="151.2900648">
  <ele>476.19</ele>
  <time>2026-09-01T19:59:27Z</time>
  <course>85.95</course>
  <speed>0.02</speed>
  <fix>3d</fix>
</trkpt>
<trkpt lat="-27.272193" lon="151.2900649">
  <ele>475.57</ele>
  <time>2026-09-01T19:59:27Z</time>
  <course>8.37</course>
  <speed>0.0412310562561766</speed>
  <fix>3d</fix>
</trkpt>
<trkpt lat="-27.2721929" lon="151.2900648">
  <ele>476.19</ele>
  <time>2026-09-01T19:59:27Z</time>
  <course>85.95</course>
  <speed>0.02</speed>
  <fix>3d</fix>
</trkpt>
<trkpt lat="-27.272193" lon="151.290065">
  <ele>475.42</ele>
  <time>2026-09-01T19:59:27Z</time>
  <course>8.32</course>
  <speed>0.0412310562561766</speed>
  <fix>3d</fix>
</trkpt>
<trkpt lat="-27.2721929" lon="151.2900649">
  <ele>475.89</ele>
  <time>2026-09-01T19:59:27Z</time>
  <course>84.47</course>
  <speed>0.02</speed>
  <fix>3d</fix>
</trkpt>
<trkpt lat="-27.272193" lon="151.290065">
  <ele>475.27</ele>
  <time>2026-09-01T19:59:27Z</time>
  <course>8.28</course>
  <speed>0.0412310562561766</speed>
  <fix>3d</fix>
</trkpt>
<trkpt lat="-27.2721929" lon="151.2900649">
  <ele>475.89</ele>
  <time>2026-09-01T19:59:27Z</time>
  <course>84.47</course>
  <speed>0.02</speed>
  <fix>3d</fix>
</trkpt>
<trkpt lat="-27.272193" lon="151.290065">
  <ele>475.12</ele>
  <time>2026-09-01T19:59:27Z</time>
  <course>8.23</course>
  <speed>0.0412310562561766</speed>
  <fix>3d</fix>
</trkpt>
<trkpt lat="-27.2721929" lon="151.290065">
  <ele>475.59</ele>
  <time>2026-09-01T19:59:27Z</time>
  <course>82.91</course>
  <speed>0.03</speed>
  <fix>3d</fix>
</trkpt>
<trkpt lat="-27.272193" lon="151.2900651">
  <ele>474.97</ele>
  <time>2026-09-01T19:59:27Z</time>
  <course>8.2</course>
  <speed>0.0412310562561766</speed>
  <fix>3d</fix>
</trkpt>
<trkpt lat="-27.2721929" lon="151.290065">
  <ele>475.59</ele>
  <time>2026-09-01T19:59:27Z</time>
  <course>82.91</course>
  <speed>0.03</speed>
  <fix>3d</fix>
</trkpt>
<trkpt lat="-27.272193" lon="151.2900651">
  <ele>474.82</ele>
  <time>2026-09-01T19:59:27Z</time>
  <course>8.18</course>
  <speed>0.0412310562561766</speed>
  <fix>3d</fix>
</trkpt>
<trkpt lat="-27.2721929" lon="151.290065">
  <ele>475.29</ele>
  <time>2026-09-01T19:59:27Z</time>
  <course>81.67</course>
  <speed>0.03</speed>
  <fix>3d</fix>
</trkpt>
<trkpt lat="-27.272193" lon="151.2900651">
  <ele>474.67</ele>
  <time>2026-09-01T19:59:27Z</time>
  <course>8.23</course>
  <speed>0.0316227766016838</speed>
  <fix>3d</fix>
</trkpt>
<trkpt lat="-27.2721929" lon="151.290065">
  <ele>475.29</ele>
  <time>2026-09-01T19:59:27Z</time>
  <course>81.67</course>
  <speed>0.03</speed>
  <fix>3d</fix>
</trkpt>
<trkpt lat="-27.272193" lon="151.2900652">
  <ele>474.52</ele>
  <time>2026-09-01T19:59:27Z</time>
  <course>8.31</course>
  <speed>0.0316227766016838</speed>
  <fix>3d</fix>
</trkpt>
<trkpt lat="-27.2721929" lon="151.2900651">
  <ele>474.99</ele>
  <time>2026-09-01T19:59:27Z</time>
  <course>78.65</course>
  <speed>0.03</speed>
  <fix>3d</fix>
</trkpt>
<trkpt lat="-27.272193" lon="151.2900652">
  <ele>474.37</ele>
  <time>2026-09-01T19:59:27Z</time>
  <course>8.4</course>
  <speed>0.0316227766016838</speed>
  <fix>3d</fix>
</trkpt>
<trkpt lat="-27.2721929" lon="151.2900651">
  <ele>474.99</ele>
  <time>2026-09-01T19:59:27Z</time>
  <course>78.65</course>
  <speed>0.03</speed>
  <fix>3d</fix>
</trkpt>
<trkpt lat="-27.272193" lon="151.2900652">
  <ele>474.22</ele>
  <time>2026-09-01T19:59:27Z</time>
  <course>8.48</course>
  <speed>0.022360679774997897</speed>
  <fix>3d</fix>
</trkpt>
<trkpt lat="-27.2721929" lon="151.2900651">
  <ele>474.69</ele>
  <time>2026-09-01T19:59:27Z</time>
  <course>71.77</course>
  <speed>0.02</speed>
  <fix>3d</fix>
</trkpt>
<trkpt lat="-27.272193" lon="151.2900652">
  <ele>474.08</ele>
  <time>2026-09-01T19:59:27Z</time>
  <course>8.53</course>
  <speed>0.022360679774997897</speed>
  <fix>3d</fix>
</trkpt>
<trkpt lat="-27.2721929" lon="151.2900651">
  <ele>474.69</ele>
  <time>2026-09-01T19:59:27Z</time>
  <course>71.77</course>
  <speed>0.02</speed>
  <fix>3d</fix>
</trkpt>
<trkpt lat="-27.272193" lon="151.2900652">
  <ele>473.93</ele>
  <time>2026-09-01T19:59:27Z</time>
  <course>8.56</course>
  <speed>0.022360679774997897</speed>
  <fix>3d</fix>
</trkpt>
<trkpt lat="-27.2721929" lon="151.2900651">
  <ele>474.39</ele>
  <time>2026-09-01T19:59:27Z</time>
  <course>61.82</course>
  <speed>0.01</speed>
  <fix>3d</fix>
</trkpt>
<trkpt lat="-27.272193" lon="151.2900652">
  <ele>473.79</ele>
  <time>2026-09-01T19:59:27Z</time>
  <course>8.57</course>
  <speed>0.01414213562373095</speed>
  <fix>3d</fix>
</trkpt>
<trkpt lat="-27.2721929" lon="151.2900651">
  <ele>474.39</ele>
  <time>2026-09-01T19:59:27Z</time>
  <course>61.82</course>
  <speed>0.01</speed>
  <fix>3d</fix>
</trkpt>
<trkpt lat="-27.272193" lon="151.2900652">
  <ele>473.64</ele>
  <time>2026-09-01T19:59:27Z</time>
  <course>8.56</course>
  <speed>0.01414213562373095</speed>
  <fix>3d</fix>
</trkpt>
<trkpt lat="-27.2721929" lon="151.2900651">
  <ele>474.09</ele>
  <time>2026-09-01T19:59:27Z</time>
  <course>46.77</course>
  <speed>0.01</speed>
  <fix>3d</fix>
</trkpt>
<trkpt lat="-27.272193" lon="151.2900652">
  <ele>473.49</ele>
  <time>2026-09-01T19:59:27Z</time>
  <course>8.54</course>
  <speed>0.01414213562373095</speed>
  <fix>3d</fix>
</trkpt>
<trkpt lat="-27.2721929" lon="151.2900651">
  <ele>474.09</ele>
  <time>2026-09-01T19:59:27Z</time>
  <course>46.77</course>
  <speed>0.01</speed>
  <fix>3d</fix>
</trkpt>
<trkpt lat="-27.272193" lon="151.2900652">
  <ele>473.34</ele>
  <time>2026-09-01T19:59:27Z</time>
  <course>8.52</course>
  <speed>0.01</speed>
  <fix>3d</fix>
</trkpt>
<trkpt lat="-27.2721929" lon="151.2900652">
  <ele>473.79</ele>
  <time>2026-09-01T19:59:27Z</time>
  <course>19.16</course>
  <speed>0.01</speed>
  <fix>3d</fix>
</trkpt>
<trkpt lat="-27.272193" lon="151.2900652">
  <ele>473.19</ele>
  <time>2026-09-01T19:59:27Z</time>
  <course>8.49</course>
  <speed>0.01</speed>
  <fix>3d</fix>
</trkpt>
<trkpt lat="-27.2721929" lon="151.2900652">
  <ele>473.79</ele>
  <time>2026-09-01T19:59:27Z</time>
  <course>19.16</course>
  <speed>0.01</speed>
  <fix>3d</fix>
</trkpt>
<trkpt lat="-27.272193" lon="151.2900652">
  <ele>473.04</ele>
  <time>2026-09-01T19:59:27Z</time>
  <course>8.47</course>
  <speed>0.0</speed>
  <fix>3d</fix>
</trkpt>
<trkpt lat="-27.2721929" lon="151.2900652">
  <ele>473.49</ele>
  <time>2026-09-01T19:59:27Z</time>
  <course>344.33</course>
  <speed>0.01</speed>
  <fix>3d</fix>
</trkpt>
<trkpt lat="-27.272193" lon="151.2900652">
  <ele>472.88</ele>
  <time>2026-09-01T19:59:27Z</time>
  <course>8.45</course>
  <speed>0.0</speed>
  <fix>3d</fix>
</trkpt>
<trkpt lat="-27.2721929" lon="151.2900652">
  <ele>473.49</ele>
  <time>2026-09-01T19:59:27Z</time>
  <course>344.33</course>
  <speed>0.01</speed>
  <fix>3d</fix>
</trkpt>
<trkpt lat="-27.272193" lon="151.2900652">
  <ele>472.73</ele>
  <time>2026-09-01T19:59:27Z</time>
  <course>8.45</course>
  <speed>0.0</speed>
  <fix>3d</fix>
</trkpt>
<trkpt lat="-27.2721929" lon="151.2900651">
  <ele>473.18</ele>
  <time>2026-09-01T19:59:27Z</time>
  <course>321.77</course>
  <speed>0.01</speed>
  <fix>3d</fix>
</trkpt>
<trkpt lat="-27.272193" lon="151.2900652">
  <ele>472.58</ele>
  <time>2026-09-01T19:59:27Z</time>
  <course>8.45</course>
  <speed>0.0</speed>
  <fix>3d</fix>
</trkpt>
<trkpt lat="-27.2721929" lon="151.2900651">
  <ele>473.18</ele>
  <time>2026-09-01T19:59:27Z</time>
  <course>321.77</course>
  <speed>0.01</speed>
  <fix>3d</fix>
</trkpt>
<trkpt lat="-27.272193" lon="151.2900652">
  <ele>472.43</ele>
  <time>2026-09-01T19:59:27Z</time>
  <course>8.46</course>
  <speed>0.0</speed>
  <fix>3d</fix>
</trkpt>
<trkpt lat="-27.2721928" lon="151.2900651">
  <ele>472.88</ele>
  <time>2026-09-01T19:59:27Z</time>
  <course>309.88</course>
  <speed>0.01</speed>
  <fix>3d</fix>
</trkpt>
<trkpt lat="-27.272193" lon="151.2900652">
  <ele>472.27</ele>
  <time>2026-09-01T19:59:27Z</time>
  <course>8.48</course>
  <speed>0.01</speed>
  <fix>3d</fix>
</trkpt>
<trkpt lat="-27.2721928" lon="151.2900651">
  <ele>472.88</ele>
  <time>2026-09-01T19:59:27Z</time>
  <course>309.88</course>
  <speed>0.01</speed>
  <fix>3d</fix>
</trkpt>
<trkpt lat="-27.272193" lon="151.2900652">
  <ele>472.12</ele>
  <time>2026-09-01T19:59:27Z</time>
  <course>8.51</course>
  <speed>0.01</speed>
  <fix>3d</fix>
</trkpt>
<trkpt lat="-27.2721928" lon="151.2900651">
  <ele>472.58</ele>
  <time>2026-09-01T19:59:27Z</time>
  <course>302.76</course>
  <speed>0.02</speed>
  <fix>3d</fix>
</trkpt>
<trkpt lat="-27.272193" lon="151.2900652">
  <ele>471.97</ele>
  <time>2026-09-01T19:59:27Z</time>
  <course>8.54</course>
  <speed>0.01</speed>
  <fix>3d</fix>
</trkpt>
<trkpt lat="-27.2721928" lon="151.2900651">
  <ele>472.58</ele>
  <time>2026-09-01T19:59:27Z</time>
  <course>302.76</course>
  <speed>0.02</speed>
  <fix>3d</fix>
</trkpt>
<trkpt lat="-27.272193" lon="151.2900652">
  <ele>471.82</ele>
  <time>2026-09-01T19:59:27Z</time>
  <course>8.58</course>
  <speed>0.02</speed>
  <fix>3d</fix>
</trkpt>
<trkpt lat="-27.2721928" lon="151.2900651">
  <ele>472.27</ele>
  <time>2026-09-01T19:59:27Z</time>
  <course>298.35</course>
  <speed>0.02</speed>
  <fix>3d</fix>
</trkpt>
<trkpt lat="-27.272193" lon="151.2900651">
  <ele>471.67</ele>
  <time>2026-09-01T19:59:27Z</time>
  <course>8.61</course>
  <speed>0.02</speed>
  <fix>3d</fix>
</trkpt>
<trkpt lat="-27.2721928" lon="151.2900651">
  <ele>472.27</ele>
  <time>2026-09-01T19:59:27Z</time>
  <course>298.35</course>
  <speed>0.02</speed>
  <fix>3d</fix>
</trkpt>
<trkpt lat="-27.2721929" lon="151.2900651">
  <ele>471.52</ele>
  <time>2026-09-01T19:59:27Z</time>
  <course>8.64</course>
  <speed>0.02</speed>
  <fix>3d</fix>
</trkpt>
<trkpt lat="-27.2721928" lon="151.2900651">
  <ele>471.97</ele>
  <time>2026-09-01T19:59:27Z</time>
  <course>295.38</course>
  <speed>0.03</speed>
  <fix>3d</fix>
</trkpt>
<trkpt lat="-27.2721929" lon="151.2900651">
  <ele>471.37</ele>
  <time>2026-09-01T19:59:27Z</time>
  <course>8.66</course>
  <speed>0.02</speed>
  <fix>3d</fix>
</trkpt>
<trkpt lat="-27.2721928" lon="151.2900651">
  <ele>471.97</ele>
  <time>2026-09-01T19:59:27Z</time>
  <course>295.38</course>
  <speed>0.03</speed>
  <fix>3d</fix>
</trkpt>
<trkpt lat="-27.2721929" lon="151.290065">
  <ele>471.22</ele>
  <time>2026-09-01T19:59:27Z</time>
  <course>8.67</course>
  <speed>0.03</speed>
  <fix>3d</fix>
</trkpt>
<trkpt lat="-27.2721927" lon="151.2900651">
  <ele>471.66</ele>
  <time>2026-09-01T19:59:27Z</time>
  <course>292.91</course>
  <speed>0.04</speed>
  <fix>3d</fix>
</trkpt>
<trkpt lat="-27.2721929" lon="151.290065">
  <ele>471.07</ele>
  <time>2026-09-01T19:59:27Z</time>
  <course>8.68</course>
  <speed>0.03</speed>
  <fix>3d</fix>
</trkpt>
<trkpt lat="-27.2721927" lon="151.2900651">
  <ele>471.66</ele>
  <time>2026-09-01T19:59:27Z</time>
  <course>292.91</course>
  <speed>0.04</speed>
  <fix>3d</fix>
</trkpt>
<trkpt lat="-27.2721929" lon="151.290065">
  <ele>470.92</ele>
  <time>2026-09-01T19:59:27Z</time>
  <course>8.69</course>
  <speed>0.03</speed>
  <fix>3d</fix>
</trkpt>
<trkpt lat="-27.2721927" lon="151.290065">
  <ele>471.37</ele>
  <time>2026-09-01T19:59:27Z</time>
  <course>290.45</course>
  <speed>0.04</speed>
  <fix>3d</fix>
</trkpt>
<trkpt lat="-27.2721929" lon="151.2900649">
  <ele>470.77</ele>
  <time>2026-09-01T19:59:27Z</time>
  <course>8.68</course>
  <speed>0.03</speed>
  <fix>3d</fix>
</trkpt>
<trkpt lat="-27.2721927" lon="151.290065">
  <ele>471.37</ele>
  <time>2026-09-01T19:59:27Z</time>
  <course>290.45</course>
  <speed>0.04</speed>
  <fix>3d</fix>
</trkpt>
<trkpt lat="-27.2721929" lon="151.2900649">
  <ele>470.62</ele>
  <time>2026-09-01T19:59:27Z</time>
  <course>8.67</course>
  <speed>0.03</speed>
  <fix>3d</fix>
</trkpt>
<trkpt lat="-27.2721927" lon="151.2900649">
  <ele>471.07</ele>
  <time>2026-09-01T19:59:27Z</time>
  <course>287.92</course>
  <speed>0.04</speed>
  <fix>3d</fix>
</trkpt>
<trkpt lat="-27.2721929" lon="151.2900648">
  <ele>470.47</ele>
  <time>2026-09-01T19:59:27Z</time>
  <course>8.66</course>
  <speed>0.03</speed>
  <fix>3d</fix>
</trkpt>
<trkpt lat="-27.2721927" lon="151.2900649">
  <ele>471.07</ele>
  <time>2026-09-01T19:59:27Z</time>
  <course>287.92</course>
  <speed>0.04</speed>
  <fix>3d</fix>
</trkpt>
<trkpt lat="-27.2721929" lon="151.2900648">
  <ele>470.32</ele>
  <time>2026-09-01T19:59:27Z</time>
  <course>8.66</course>
  <speed>0.03</speed>
  <fix>3d</fix>
</trkpt>
<trkpt lat="-27.2721927" lon="151.2900648">
  <ele>470.77</ele>
  <time>2026-09-01T19:59:27Z</time>
  <course>285.75</course>
  <speed>0.05</speed>
  <fix>3d</fix>
</trkpt>
<trkpt lat="-27.2721929" lon="151.2900648">
  <ele>470.17</ele>
  <time>2026-09-01T19:59:28Z</time>
  <course>8.66</course>
  <speed>0.03</speed>
  <fix>3d</fix>
</trkpt>
<trkpt lat="-27.2721927" lon="151.2900648">
  <ele>470.77</ele>
  <time>2026-09-01T19:59:28Z</time>
  <course>285.75</course>
  <speed>0.05</speed>
  <fix>3d</fix>
</trkpt>
<trkpt lat="-27.2721928" lon="151.2900647">
  <ele>470.02</ele>
  <time>2026-09-01T19:59:28Z</time>
  <course>8.66</course>
  <speed>0.03</speed>
  <fix>3d</fix>
</trkpt>
<trkpt lat="-27.2721926" lon="151.2900647">
  <ele>470.47</ele>
  <time>2026-09-01T19:59:28Z</time>
  <course>284.48</course>
  <speed>0.05</speed>
  <fix>3d</fix>
</trkpt>
<trkpt lat="-27.2721928" lon="151.2900647">
  <ele>469.87</ele>
  <time>2026-09-01T19:59:28Z</time>
  <course>8.67</course>
  <speed>0.03</speed>
  <fix>3d</fix>
</trkpt>
<trkpt lat="-27.2721926" lon="151.2900647">
  <ele>470.47</ele>
  <time>2026-09-01T19:59:28Z</time>
  <course>284.48</course>
  <speed>0.05</speed>
  <fix>3d</fix>
</trkpt>
<trkpt lat="-27.2721928" lon="151.2900646">
  <ele>469.71</ele>
  <time>2026-09-01T19:59:28Z</time>
  <course>8.69</course>
  <speed>0.03</speed>
  <fix>3d</fix>
</trkpt>
<trkpt lat="-27.2721926" lon="151.2900646">
  <ele>470.16</ele>
  <time>2026-09-01T19:59:28Z</time>
  <course>284.06</course>
  <speed>0.05</speed>
  <fix>3d</fix>
</trkpt>
<trkpt lat="-27.2721928" lon="151.2900646">
  <ele>469.56</ele>
  <time>2026-09-01T19:59:28Z</time>
  <course>8.71</course>
  <speed>0.03</speed>
  <fix>3d</fix>
</trkpt>
<trkpt lat="-27.2721926" lon="151.2900646">
  <ele>470.16</ele>
  <time>2026-09-01T19:59:28Z</time>
  <course>284.06</course>
  <speed>0.05</speed>
  <fix>3d</fix>
</trkpt>
<trkpt lat="-27.2721928" lon="151.2900645">
  <ele>469.41</ele>
  <time>2026-09-01T19:59:28Z</time>
  <course>8.73</course>
  <speed>0.03</speed>
  <fix>3d</fix>
</trkpt>
<trkpt lat="-27.2721926" lon="151.2900645">
  <ele>469.87</ele>
  <time>2026-09-01T19:59:28Z</time>
  <course>283.8</course>
  <speed>0.05</speed>
  <fix>3d</fix>
</trkpt>
<trkpt lat="-27.2721928" lon="151.2900645">
  <ele>469.26</ele>
  <time>2026-09-01T19:59:28Z</time>
  <course>8.75</course>
  <speed>0.0316227766016838</speed>
  <fix>3d</fix>
</trkpt>
<trkpt lat="-27.2721926" lon="151.2900645">
  <ele>469.87</ele>
  <time>2026-09-01T19:59:28Z</time>
  <course>283.8</course>
  <speed>0.05</speed>
  <fix>3d</fix>
</trkpt>
<trkpt lat="-27.2721928" lon="151.2900644">
  <ele>469.11</ele>
  <time>2026-09-01T19:59:28Z</time>
  <course>8.76</course>
  <speed>0.0316227766016838</speed>
  <fix>3d</fix>
</trkpt>
<trkpt lat="-27.2721926" lon="151.2900643">
  <ele>469.57</ele>
  <time>2026-09-01T19:59:28Z</time>
  <course>283.15</course>
  <speed>0.05</speed>
  <fix>3d</fix>
</trkpt>
<trkpt lat="-27.2721928" lon="151.2900644">
  <ele>468.96</ele>
  <time>2026-09-01T19:59:28Z</time>
  <course>8.77</course>
  <speed>0.0316227766016838</speed>
  <fix>3d</fix>
</trkpt>
<trkpt lat="-27.2721926" lon="151.2900643">
  <ele>469.57</ele>
  <time>2026-09-01T19:59:28Z</time>
  <course>283.15</course>
  <speed>0.05</speed>
  <fix>3d</fix>
</trkpt>
<trkpt lat="-27.2721928" lon="151.2900643">
  <ele>468.81</ele>
  <time>2026-09-01T19:59:28Z</time>
  <course>8.77</course>
  <speed>0.0316227766016838</speed>
  <fix>3d</fix>
</trkpt>
<trkpt lat="-27.2721925" lon="151.2900642">
  <ele>469.27</ele>
  <time>2026-09-01T19:59:28Z</time>
  <course>282.1</course>
  <speed>0.05</speed>
  <fix>3d</fix>
</trkpt>
<trkpt lat="-27.2721928" lon="151.2900643">
  <ele>468.66</ele>
  <time>2026-09-01T19:59:28Z</time>
  <course>8.77</course>
  <speed>0.0316227766016838</speed>
  <fix>3d</fix>
</trkpt>
<trkpt lat="-27.2721925" lon="151.2900642">
  <ele>469.27</ele>
  <time>2026-09-01T19:59:28Z</time>
  <course>282.1</course>
  <speed>0.05</speed>
  <fix>3d</fix>
</trkpt>
<trkpt lat="-27.2721927" lon="151.2900642">
  <ele>468.51</ele>
  <time>2026-09-01T19:59:28Z</time>
  <course>8.77</course>
  <speed>0.0316227766016838</speed>
  <fix>3d</fix>
</trkpt>
<trkpt lat="-27.2721925" lon="151.2900641">
  <ele>468.97</ele>
  <time>2026-09-01T19:59:28Z</time>
  <course>280.77</course>
  <speed>0.05</speed>
  <fix>3d</fix>
</trkpt>
<trkpt lat="-27.2721927" lon="151.2900642">
  <ele>468.37</ele>
  <time>2026-09-01T19:59:28Z</time>
  <course>8.77</course>
  <speed>0.0316227766016838</speed>
  <fix>3d</fix>
</trkpt>
<trkpt lat="-27.2721925" lon="151.2900641">
  <ele>468.97</ele>
  <time>2026-09-01T19:59:28Z</time>
  <course>280.77</course>
  <speed>0.05</speed>
  <fix>3d</fix>
</trkpt>
<trkpt lat="-27.2721927" lon="151.2900641">
  <ele>468.22</ele>
  <time>2026-09-01T19:59:28Z</time>
  <course>8.76</course>
  <speed>0.022360679774997897</speed>
  <fix>3d</fix>
</trkpt>
<trkpt lat="-27.2721925" lon="151.290064">
  <ele>468.66</ele>
  <time>2026-09-01T19:59:28Z</time>
  <course>279.14</course>
  <speed>0.05</speed>
  <fix>3d</fix>
</trkpt>
<trkpt lat="-27.2721927" lon="151.2900641">
  <ele>468.07</ele>
  <time>2026-09-01T19:59:28Z</time>
  <course>8.75</course>
  <speed>0.022360679774997897</speed>
  <fix>3d</fix>
</trkpt>
<trkpt lat="-27.2721925" lon="151.290064">
  <ele>468.66</ele>
  <time>2026-09-01T19:59:28Z</time>
  <course>279.14</course>
  <speed>0.05</speed>
  <fix>3d</fix>
</trkpt>
<trkpt lat="-27.2721927" lon="151.290064">
  <ele>467.93</ele>
  <time>2026-09-01T19:59:28Z</time>
  <course>8.74</course>
  <speed>0.022360679774997897</speed>
  <fix>3d</fix>
</trkpt>
<trkpt lat="-27.2721925" lon="151.2900639">
  <ele>468.37</ele>
  <time>2026-09-01T19:59:28Z</time>
  <course>277.59</course>
  <speed>0.04</speed>
  <fix>3d</fix>
</trkpt>
<trkpt lat="-27.2721927" lon="151.290064">
  <ele>467.78</ele>
  <time>2026-09-01T19:59:28Z</time>
  <course>8.73</course>
  <speed>0.022360679774997897</speed>
  <fix>3d</fix>
</trkpt>
<trkpt lat="-27.2721925" lon="151.2900639">
  <ele>468.37</ele>
  <time>2026-09-01T19:59:28Z</time>
  <course>277.59</course>
  <speed>0.04</speed>
  <fix>3d</fix>
</trkpt>
<trkpt lat="-27.2721927" lon="151.290064">
  <ele>467.63</ele>
  <time>2026-09-01T19:59:28Z</time>
  <course>8.72</course>
  <speed>0.01414213562373095</speed>
  <fix>3d</fix>
</trkpt>
<trkpt lat="-27.2721925" lon="151.2900639">
  <ele>468.08</ele>
  <time>2026-09-01T19:59:28Z</time>
  <course>276.34</course>
  <speed>0.04</speed>
  <fix>3d</fix>
</trkpt>
<trkpt lat="-27.2721927" lon="151.2900639">
  <ele>467.48</ele>
  <time>2026-09-01T19:59:28Z</time>
  <course>8.71</course>
  <speed>0.01414213562373095</speed>
  <fix>3d</fix>
</trkpt>
<trkpt lat="-27.2721925" lon="151.2900639">
  <ele>468.08</ele>
  <time>2026-09-01T19:59:28Z</time>
  <course>276.34</course>
  <speed>0.04</speed>
  <fix>3d</fix>
</trkpt>
<trkpt lat="-27.2721927" lon="151.2900639">
  <ele>467.33</ele>
  <time>2026-09-01T19:59:28Z</time>
  <course>8.7</course>
  <speed>0.01</speed>
  <fix>3d</fix>
</trkpt>
<trkpt lat="-27.2721925" lon="151.2900638">
  <ele>467.78</ele>
  <time>2026-09-01T19:59:28Z</time>
  <course>275.09</course>
  <speed>0.03</speed>
  <fix>3d</fix>
</trkpt>
<trkpt lat="-27.2721927" lon="151.2900639">
  <ele>467.18</ele>
  <time>2026-09-01T19:59:28Z</time>
  <course>8.68</course>
  <speed>0.02</speed>
  <fix>3d</fix>
</trkpt>
<trkpt lat="-27.2721925" lon="151.2900638">
  <ele>467.78</ele>
  <time>2026-09-01T19:59:28Z</time>
  <course>275.09</course>
  <speed>0.03</speed>
  <fix>3d</fix>
</trkpt>
<trkpt lat="-27.2721927" lon="151.2900639">
  <ele>467.03</ele>
  <time>2026-09-01T19:59:28Z</time>
  <course>8.66</course>
  <speed>0.02</speed>
  <fix>3d</fix>
</trkpt>
<trkpt lat="-27.2721925" lon="151.2900637">
  <ele>467.47</ele>
  <time>2026-09-01T19:59:28Z</time>
  <course>273.54</course>
  <speed>0.02</speed>
  <fix>3d</fix>
</trkpt>
<trkpt lat="-27.2721927" lon="151.2900639">
  <ele>466.88</ele>
  <time>2026-09-01T19:59:28Z</time>
  <course>8.63</course>
  <speed>0.02</speed>
  <fix>3d</fix>
</trkpt>
<trkpt lat="-27.2721925" lon="151.2900637">
  <ele>467.47</ele>
  <time>2026-09-01T19:59:28Z</time>
  <course>273.54</course>
  <speed>0.02</speed>
  <fix>3d</fix>
</trkpt>
<trkpt lat="-27.2721927" lon="151.2900639">
  <ele>466.72</ele>
  <time>2026-09-01T19:59:28Z</time>
  <course>8.6</course>
  <speed>0.02</speed>
  <fix>3d</fix>
</trkpt>
<trkpt lat="-27.2721925" lon="151.2900637">
  <ele>467.18</ele>
  <time>2026-09-01T19:59:28Z</time>
  <course>270.23</course>
  <speed>0.01</speed>
  <fix>3d</fix>
</trkpt>
<trkpt lat="-27.2721927" lon="151.2900639">
  <ele>466.57</ele>
  <time>2026-09-01T19:59:28Z</time>
  <course>8.57</course>
  <speed>0.022360679774997897</speed>
  <fix>3d</fix>
</trkpt>
<trkpt lat="-27.2721925" lon="151.2900637">
  <ele>467.18</ele>
  <time>2026-09-01T19:59:28Z</time>
  <course>270.23</course>
  <speed>0.01</speed>
  <fix>3d</fix>
</trkpt>
<trkpt lat="-27.2721927" lon="151.2900639">
  <ele>466.42</ele>
  <time>2026-09-01T19:59:28Z</time>
  <course>8.54</course>
  <speed>0.022360679774997897</speed>
  <fix>3d</fix>
</trkpt>
<trkpt lat="-27.2721925" lon="151.2900637">
  <ele>466.87</ele>
  <time>2026-09-01T19:59:28Z</time>
  <course>261.17</course>
  <speed>0.0</speed>
  <fix>3d</fix>
</trkpt>
<trkpt lat="-27.2721927" lon="151.2900639">
  <ele>466.27</ele>
  <time>2026-09-01T19:59:28Z</time>
  <course>8.51</course>
  <speed>0.0282842712474619</speed>
  <fix>3d</fix>
</trkpt>
<trkpt lat="-27.2721925" lon="151.2900637">
  <ele>466.87</ele>
  <time>2026-09-01T19:59:28Z</time>
  <course>261.17</course>
  <speed>0.0</speed>
  <fix>3d</fix>
</trkpt>
<trkpt lat="-27.2721927" lon="151.2900639">
  <ele>466.12</ele>
  <time>2026-09-01T19:59:28Z</time>
  <course>8.48</course>
  <speed>0.0282842712474619</speed>
  <fix>3d</fix>
</trkpt>
<trkpt lat="-27.2721925" lon="151.2900637">
  <ele>466.57</ele>
  <time>2026-09-01T19:59:28Z</time>
  <course>126.45</course>
  <speed>0.0</speed>
  <fix>3d</fix>
</trkpt>
<trkpt lat="-27.2721927" lon="151.2900639">
  <ele>465.98</ele>
  <time>2026-09-01T19:59:28Z</time>
  <course>8.44</course>
  <speed>0.03605551275463989</speed>
  <fix>3d</fix>
</trkpt>
<trkpt lat="-27.2721925" lon="151.2900637">
  <ele>466.57</ele>
  <time>2026-09-01T19:59:28Z</time>
  <course>126.45</course>
  <speed>0.0</speed>
  <fix>3d</fix>
</trkpt>
<trkpt lat="-27.2721927" lon="151.2900639">
  <ele>465.83</ele>
  <time>2026-09-01T19:59:28Z</time>
  <course>8.36</course>
  <speed>0.044721359549995794</speed>
  <fix>3d</fix>
</trkpt>
<trkpt lat="-27.2721925" lon="151.2900637">
  <ele>466.27</ele>
  <time>2026-09-01T19:59:28Z</time>
  <course>101.35</course>
  <speed>0.01</speed>
  <fix>3d</fix>
</trkpt>
<trkpt lat="-27.2721927" lon="151.2900639">
  <ele>465.68</ele>
  <time>2026-09-01T19:59:28Z</time>
  <course>8.23</course>
  <speed>0.044721359549995794</speed>
  <fix>3d</fix>
</trkpt>
<trkpt lat="-27.2721925" lon="151.2900637">
  <ele>466.27</ele>
  <time>2026-09-01T19:59:28Z</time>
  <course>101.35</course>
  <speed>0.01</speed>
  <fix>3d</fix>
</trkpt>
<trkpt lat="-27.2721927" lon="151.2900639">
  <ele>465.52</ele>
  <time>2026-09-01T19:59:28Z</time>
  <course>8.19</course>
  <speed>0.053851648071345036</speed>
  <fix>3d</fix>
</trkpt>
<trkpt lat="-27.2721925" lon="151.2900637">
  <ele>465.97</ele>
  <time>2026-09-01T19:59:28Z</time>
  <course>98.93</course>
  <speed>0.02</speed>
  <fix>3d</fix>
</trkpt>
<trkpt lat="-27.2721927" lon="151.2900639">
  <ele>465.37</ele>
  <time>2026-09-01T19:59:28Z</time>
  <course>8.23</course>
  <speed>0.053851648071345036</speed>
  <fix>3d</fix>
</trkpt>
<trkpt lat="-27.2721925" lon="151.2900637">
  <ele>465.97</ele>
  <time>2026-09-01T19:59:28Z</time>
  <course>98.93</course>
  <speed>0.02</speed>
  <fix>3d</fix>
</trkpt>
<trkpt lat="-27.2721927" lon="151.2900639">
  <ele>465.22</ele>
  <time>2026-09-01T19:59:28Z</time>
  <course>8.33</course>
  <speed>0.044721359549995794</speed>
  <fix>3d</fix>
</trkpt>
<trkpt lat="-27.2721925" lon="151.2900637">
  <ele>465.66</ele>
  <time>2026-09-01T19:59:28Z</time>
  <course>98.13</course>
  <speed>0.03</speed>
  <fix>3d</fix>
</trkpt>
<trkpt lat="-27.2721927" lon="151.290064">
  <ele>465.07</ele>
  <time>2026-09-01T19:59:28Z</time>
  <course>8.44</course>
  <speed>0.053851648071345036</speed>
  <fix>3d</fix>
</trkpt>
<trkpt lat="-27.2721925" lon="151.2900637">
  <ele>465.66</ele>
  <time>2026-09-01T19:59:28Z</time>
  <course>98.13</course>
  <speed>0.03</speed>
  <fix>3d</fix>
</trkpt>
<trkpt lat="-27.2721927" lon="151.290064">
  <ele>464.92</ele>
  <time>2026-09-01T19:59:28Z</time>
  <course>8.56</course>
  <speed>0.053851648071345036</speed>
  <fix>3d</fix>
</trkpt>
<trkpt lat="-27.2721925" lon="151.2900637">
  <ele>465.37</ele>
  <time>2026-09-01T19:59:28Z</time>
  <course>97.5</course>
  <speed>0.03</speed>
  <fix>3d</fix>
</trkpt>
<trkpt lat="-27.2721927" lon="151.290064">
  <ele>464.77</ele>
  <time>2026-09-01T19:59:28Z</time>
  <course>8.65</course>
  <speed>0.053851648071345036</speed>
  <fix>3d</fix>
</trkpt>
<trkpt lat="-27.2721925" lon="151.2900637">
  <ele>465.37</ele>
  <time>2026-09-01T19:59:28Z</time>
  <course>97.5</course>
  <speed>0.03</speed>
  <fix>3d</fix>
</trkpt>
<trkpt lat="-27.2721927" lon="151.2900641">
  <ele>464.62</ele>
  <time>2026-09-01T19:59:28Z</time>
  <course>8.7</course>
  <speed>0.053851648071345036</speed>
  <fix>3d</fix>
</trkpt>
<trkpt lat="-27.2721925" lon="151.2900638">
  <ele>465.07</ele>
  <time>2026-09-01T19:59:28Z</time>
  <course>97.36</course>
  <speed>0.03</speed>
  <fix>3d</fix>
</trkpt>
<trkpt lat="-27.2721927" lon="151.2900641">
  <ele>464.47</ele>
  <time>2026-09-01T19:59:28Z</time>
  <course>8.72</course>
  <speed>0.053851648071345036</speed>
  <fix>3d</fix>
</trkpt>
<trkpt lat="-27.2721925" lon="151.2900638">
  <ele>465.07</ele>
  <time>2026-09-01T19:59:28Z</time>
  <course>97.36</course>
  <speed>0.03</speed>
  <fix>3d</fix>
</trkpt>
<trkpt lat="-27.2721927" lon="151.2900641">
  <ele>464.32</ele>
  <time>2026-09-01T19:59:28Z</time>
  <course>8.71</course>
  <speed>0.053851648071345036</speed>
  <fix>3d</fix>
</trkpt>
<trkpt lat="-27.2721925" lon="151.2900639">
  <ele>464.77</ele>
  <time>2026-09-01T19:59:28Z</time>
  <course>97.72</course>
  <speed>0.03</speed>
  <fix>3d</fix>
</trkpt>
<trkpt lat="-27.2721927" lon="151.2900642">
  <ele>464.16</ele>
  <time>2026-09-01T19:59:28Z</time>
  <course>8.69</course>
  <speed>0.044721359549995794</speed>
  <fix>3d</fix>
</trkpt>
<trkpt lat="-27.2721925" lon="151.2900639">
  <ele>464.77</ele>
  <time>2026-09-01T19:59:28Z</time>
  <course>97.72</course>
  <speed>0.03</speed>
  <fix>3d</fix>
</trkpt>
<trkpt lat="-27.2721927" lon="151.2900642">
  <ele>464.02</ele>
  <time>2026-09-01T19:59:28Z</time>
  <course>8.67</course>
  <speed>0.044721359549995794</speed>
  <fix>3d</fix>
</trkpt>
<trkpt lat="-27.2721925" lon="151.290064">
  <ele>464.47</ele>
  <time>2026-09-01T19:59:28Z</time>
  <course>98.22</course>
  <speed>0.03</speed>
  <fix>3d</fix>
</trkpt>
<trkpt lat="-27.2721927" lon="151.2900642">
  <ele>463.87</ele>
  <time>2026-09-01T19:59:28Z</time>
  <course>8.63</course>
  <speed>0.044721359549995794</speed>
  <fix>3d</fix>
</trkpt>
<trkpt lat="-27.2721925" lon="151.290064">
  <ele>464.47</ele>
  <time>2026-09-01T19:59:28Z</time>
  <course>98.22</course>
  <speed>0.03</speed>
  <fix>3d</fix>
</trkpt>
<trkpt lat="-27.2721927" lon="151.2900642">
  <ele>463.72</ele>
  <time>2026-09-01T19:59:28Z</time>
  <course>8.6</course>
  <speed>0.044721359549995794</speed>
  <fix>3d</fix>
</trkpt>
<trkpt lat="-27.2721925" lon="151.290064">
  <ele>464.16</ele>
  <time>2026-09-01T19:59:28Z</time>
  <course>98.73</course>
  <speed>0.03</speed>
  <fix>3d</fix>
</trkpt>
<trkpt lat="-27.2721927" lon="151.2900643">
  <ele>463.57</ele>
  <time>2026-09-01T19:59:28Z</time>
  <course>8.57</course>
  <speed>0.044721359549995794</speed>
  <fix>3d</fix>
</trkpt>
<trkpt lat="-27.2721925" lon="151.290064">
  <ele>464.16</ele>
  <time>2026-09-01T19:59:28Z</time>
  <course>98.73</course>
  <speed>0.03</speed>
  <fix>3d</fix>
</trkpt>
<trkpt lat="-27.2721927" lon="151.2900643">
  <ele>463.42</ele>
  <time>2026-09-01T19:59:28Z</time>
  <course>8.54</course>
  <speed>0.044721359549995794</speed>
  <fix>3d</fix>
</trkpt>
<trkpt lat="-27.2721925" lon="151.2900641">
  <ele>463.87</ele>
  <time>2026-09-01T19:59:28Z</time>
  <course>99.63</course>
  <speed>0.03</speed>
  <fix>3d</fix>
</trkpt>
<trkpt lat="-27.2721927" lon="151.2900643">
  <ele>463.27</ele>
  <time>2026-09-01T19:59:28Z</time>
  <course>8.52</course>
  <speed>0.044721359549995794</speed>
  <fix>3d</fix>
</trkpt>
<trkpt lat="-27.2721925" lon="151.2900641">
  <ele>463.87</ele>
  <time>2026-09-01T19:59:28Z</time>
  <course>99.63</course>
  <speed>0.03</speed>
  <fix>3d</fix>
</trkpt>
<trkpt lat="-27.2721927" lon="151.2900644">
  <ele>463.12</ele>
  <time>2026-09-01T19:59:28Z</time>
  <course>8.5</course>
  <speed>0.044721359549995794</speed>
  <fix>3d</fix>
</trkpt>
<trkpt lat="-27.2721925" lon="151.2900642">
  <ele>463.57</ele>
  <time>2026-09-01T19:59:28Z</time>
  <course>100.36</course>
  <speed>0.04</speed>
  <fix>3d</fix>
</trkpt>
<trkpt lat="-27.2721927" lon="151.2900644">
  <ele>462.97</ele>
  <time>2026-09-01T19:59:28Z</time>
  <course>8.49</course>
  <speed>0.044721359549995794</speed>
  <fix>3d</fix>
</trkpt>
<trkpt lat="-27.2721925" lon="151.2900642">
  <ele>463.57</ele>
  <time>2026-09-01T19:59:28Z</time>
  <course>100.36</course>
  <speed>0.04</speed>
  <fix>3d</fix>
</trkpt>
<trkpt lat="-27.2721927" lon="151.2900644">
  <ele>462.81</ele>
  <time>2026-09-01T19:59:28Z</time>
  <course>8.47</course>
  <speed>0.044721359549995794</speed>
  <fix>3d</fix>
</trkpt>
<trkpt lat="-27.2721925" lon="151.2900643">
  <ele>463.27</ele>
  <time>2026-09-01T19:59:28Z</time>
  <course>100.62</course>
  <speed>0.04</speed>
  <fix>3d</fix>
</trkpt>
<trkpt lat="-27.2721927" lon="151.2900645">
  <ele>462.66</ele>
  <time>2026-09-01T19:59:28Z</time>
  <course>8.45</course>
  <speed>0.053851648071345036</speed>
  <fix>3d</fix>
</trkpt>
<trkpt lat="-27.2721925" lon="151.2900643">
  <ele>463.27</ele>
  <time>2026-09-01T19:59:28Z</time>
  <course>100.62</course>
  <speed>0.04</speed>
  <fix>3d</fix>
</trkpt>
<trkpt lat="-27.2721927" lon="151.2900645">
  <ele>462.51</ele>
  <time>2026-09-01T19:59:28Z</time>
  <course>8.42</course>
  <speed>0.053851648071345036</speed>
  <fix>3d</fix>
</trkpt>
<trkpt lat="-27.2721925" lon="151.2900644">
  <ele>462.97</ele>
  <time>2026-09-01T19:59:28Z</time>
  <course>101.19</course>
  <speed>0.04</speed>
  <fix>3d</fix>
</trkpt>
<trkpt lat="-27.2721927" lon="151.2900645">
  <ele>462.36</ele>
  <time>2026-09-01T19:59:28Z</time>
  <course>8.38</course>
  <speed>0.053851648071345036</speed>
  <fix>3d</fix>
</trkpt>
<trkpt lat="-27.2721925" lon="151.2900644">
  <ele>462.97</ele>
  <time>2026-09-01T19:59:28Z</time>
  <course>101.19</course>
  <speed>0.04</speed>
  <fix>3d</fix>
</trkpt>
<trkpt lat="-27.2721927" lon="151.2900646">
  <ele>462.21</ele>
  <time>2026-09-01T19:59:28Z</time>
  <course>8.34</course>
  <speed>0.053851648071345036</speed>
  <fix>3d</fix>
</trkpt>
<trkpt lat="-27.2721925" lon="151.2900644">
  <ele>462.66</ele>
  <time>2026-09-01T19:59:28Z</time>
  <course>101.76</course>
  <speed>0.04</speed>
  <fix>3d</fix>
</trkpt>
<trkpt lat="-27.2721927" lon="151.2900646">
  <ele>462.05</ele>
  <time>2026-09-01T19:59:28Z</time>
  <course>8.28</course>
  <speed>0.053851648071345036</speed>
  <fix>3d</fix>
</trkpt>
<trkpt lat="-27.2721925" lon="151.2900644">
  <ele>462.66</ele>
  <time>2026-09-01T19:59:28Z</time>
  <course>101.76</course>
  <speed>0.04</speed>
  <fix>3d</fix>
</trkpt>
<trkpt lat="-27.2721927" lon="151.2900647">
  <ele>461.9</ele>
  <time>2026-09-01T19:59:28Z</time>
  <course>8.22</course>
  <speed>0.053851648071345036</speed>
  <fix>3d</fix>
</trkpt>
<trkpt lat="-27.2721925" lon="151.2900645">
  <ele>462.37</ele>
  <time>2026-09-01T19:59:28Z</time>
  <course>101.68</course>
  <speed>0.04</speed>
  <fix>3d</fix>
</trkpt>
<trkpt lat="-27.2721927" lon="151.2900647">
  <ele>461.75</ele>
  <time>2026-09-01T19:59:28Z</time>
  <course>8.18</course>
  <speed>0.053851648071345036</speed>
  <fix>3d</fix>
</trkpt>
<trkpt lat="-27.2721925" lon="151.2900645">
  <ele>462.37</ele>
  <time>2026-09-01T19:59:28Z</time>
  <course>101.68</course>
  <speed>0.04</speed>
  <fix>3d</fix>
</trkpt>
<trkpt lat="-27.2721927" lon="151.2900648">
  <ele>461.6</ele>
  <time>2026-09-01T19:59:28Z</time>
  <course>8.14</course>
  <speed>0.053851648071345036</speed>
  <fix>3d</fix>
</trkpt>
<trkpt lat="-27.2721925" lon="151.2900646">
  <ele>462.07</ele>
  <time>2026-09-01T19:59:28Z</time>
  <course>101.47</course>
  <speed>0.04</speed>
  <fix>3d</fix>
</trkpt>
<trkpt lat="-27.2721927" lon="151.2900648">
  <ele>461.45</ele>
  <time>2026-09-01T19:59:28Z</time>
  <course>8.1</course>
  <speed>0.053851648071345036</speed>
  <fix>3d</fix>
</trkpt>
<trkpt lat="-27.2721925" lon="151.2900646">
  <ele>462.07</ele>
  <time>2026-09-01T19:59:28Z</time>
  <course>101.47</course>
  <speed>0.04</speed>
  <fix>3d</fix>
</trkpt>
<trkpt lat="-27.2721927" lon="151.2900648">
  <ele>461.31</ele>
  <time>2026-09-01T19:59:28Z</time>
  <course>8.07</course>
  <speed>0.053851648071345036</speed>
  <fix>3d</fix>
</trkpt>
<trkpt lat="-27.2721926" lon="151.2900647">
  <ele>461.77</ele>
  <time>2026-09-01T19:59:28Z</time>
  <course>101.32</course>
  <speed>0.04</speed>
  <fix>3d</fix>
</trkpt>
<trkpt lat="-27.2721927" lon="151.2900649">
  <ele>461.16</ele>
  <time>2026-09-01T19:59:28Z</time>
  <course>8.03</course>
  <speed>0.053851648071345036</speed>
  <fix>3d</fix>
</trkpt>
<trkpt lat="-27.2721926" lon="151.2900647">
  <ele>461.77</ele>
  <time>2026-09-01T19:59:28Z</time>
  <course>101.32</course>
  <speed>0.04</speed>
  <fix>3d</fix>
</trkpt>
<trkpt lat="-27.2721927" lon="151.2900649">
  <ele>461.0</ele>
  <time>2026-09-01T19:59:28Z</time>
  <course>7.99</course>
  <speed>0.053851648071345036</speed>
  <fix>3d</fix>
</trkpt>
<trkpt lat="-27.2721926" lon="151.2900648">
  <ele>461.47</ele>
  <time>2026-09-01T19:59:28Z</time>
  <course>101.4</course>
  <speed>0.04</speed>
  <fix>3d</fix>
</trkpt>
<trkpt lat="-27.2721927" lon="151.290065">
  <ele>460.86</ele>
  <time>2026-09-01T19:59:28Z</time>
  <course>7.95</course>
  <speed>0.053851648071345036</speed>
  <fix>3d</fix>
</trkpt>
<trkpt lat="-27.2721926" lon="151.2900648">
  <ele>461.47</ele>
  <time>2026-09-01T19:59:28Z</time>
  <course>101.4</course>
  <speed>0.04</speed>
  <fix>3d</fix>
</trkpt>
<trkpt lat="-27.2721927" lon="151.290065">
  <ele>460.71</ele>
  <time>2026-09-01T19:59:28Z</time>
  <course>7.91</course>
  <speed>0.053851648071345036</speed>
  <fix>3d</fix>
</trkpt>
<trkpt lat="-27.2721926" lon="151.2900649">
  <ele>461.18</ele>
  <time>2026-09-01T19:59:28Z</time>
  <course>101.81</course>
  <speed>0.05</speed>
  <fix>3d</fix>
</trkpt>
<trkpt lat="-27.2721927" lon="151.2900651">
  <ele>460.56</ele>
  <time>2026-09-01T19:59:28Z</time>
  <course>7.86</course>
  <speed>0.053851648071345036</speed>
  <fix>3d</fix>
</trkpt>
<trkpt lat="-27.2721926" lon="151.2900649">
  <ele>461.18</ele>
  <time>2026-09-01T19:59:28Z</time>
  <course>101.81</course>
  <speed>0.05</speed>
  <fix>3d</fix>
</trkpt>
<trkpt lat="-27.2721927" lon="151.2900651">
  <ele>460.41</ele>
  <time>2026-09-01T19:59:28Z</time>
  <course>7.82</course>
  <speed>0.0632455532033676</speed>
  <fix>3d</fix>
</trkpt>
<trkpt lat="-27.2721926" lon="151.290065">
  <ele>460.88</ele>
  <time>2026-09-01T19:59:28Z</time>
  <course>101.81</course>
  <speed>0.05</speed>
  <fix>3d</fix>
</trkpt>
<trkpt lat="-27.2721927" lon="151.2900652">
  <ele>460.27</ele>
  <time>2026-09-01T19:59:28Z</time>
  <course>7.78</course>
  <speed>0.0632455532033676</speed>
  <fix>3d</fix>
</trkpt>
<trkpt lat="-27.2721926" lon="151.290065">
  <ele>460.88</ele>
  <time>2026-09-01T19:59:28Z</time>
  <course>101.81</course>
  <speed>0.05</speed>
  <fix>3d</fix>
</trkpt>
<trkpt lat="-27.2721928" lon="151.2900652">
  <ele>460.12</ele>
  <time>2026-09-01T19:59:28Z</time>
  <course>7.74</course>
  <speed>0.0632455532033676</speed>
  <fix>3d</fix>
</trkpt>
<trkpt lat="-27.2721926" lon="151.2900651">
  <ele>460.59</ele>
  <time>2026-09-01T19:59:28Z</time>
  <course>101.02</course>
  <speed>0.05</speed>
  <fix>3d</fix>
</trkpt>
<trkpt lat="-27.2721928" lon="151.2900653">
  <ele>459.97</ele>
  <time>2026-09-01T19:59:28Z</time>
  <course>7.73</course>
  <speed>0.0632455532033676</speed>
  <fix>3d</fix>
</trkpt>
<trkpt lat="-27.2721926" lon="151.2900651">
  <ele>460.59</ele>
  <time>2026-09-01T19:59:28Z</time>
  <course>101.02</course>
  <speed>0.05</speed>
  <fix>3d</fix>
</trkpt>
<trkpt lat="-27.2721928" lon="151.2900653">
  <ele>459.82</ele>
  <time>2026-09-01T19:59:28Z</time>
  <course>7.77</course>
  <speed>0.053851648071345036</speed>
  <fix>3d</fix>
</trkpt>
<trkpt lat="-27.2721926" lon="151.2900652">
  <ele>460.29</ele>
  <time>2026-09-01T19:59:28Z</time>
  <course>99.74</course>
  <speed>0.05</speed>
  <fix>3d</fix>
</trkpt>
<trkpt lat="-27.2721928" lon="151.2900654">
  <ele>459.67</ele>
  <time>2026-09-01T19:59:28Z</time>
  <course>7.91</course>
  <speed>0.044721359549995794</speed>
  <fix>3d</fix>
</trkpt>
<trkpt lat="-27.2721926" lon="151.2900652">
  <ele>460.29</ele>
  <time>2026-09-01T19:59:28Z</time>
  <course>99.74</course>
  <speed>0.05</speed>
  <fix>3d</fix>
</trkpt>
<trkpt lat="-27.2721928" lon="151.2900654">
  <ele>459.52</ele>
  <time>2026-09-01T19:59:28Z</time>
  <course>8.2</course>
  <speed>0.022360679774997897</speed>
  <fix>3d</fix>
</trkpt>
<trkpt lat="-27.2721927" lon="151.2900653">
  <ele>459.99</ele>
  <time>2026-09-01T19:59:28Z</time>
  <course>98.75</course>
  <speed>0.04</speed>
  <fix>3d</fix>
</trkpt>
<trkpt lat="-27.2721928" lon="151.2900654">
  <ele>459.37</ele>
  <time>2026-09-01T19:59:28Z</time>
  <course>8.58</course>
  <speed>0.01414213562373095</speed>
  <fix>3d</fix>
</trkpt>
<trkpt lat="-27.2721927" lon="151.2900653">
  <ele>459.99</ele>
  <time>2026-09-01T19:59:28Z</time>
  <course>98.75</course>
  <speed>0.04</speed>
  <fix>3d</fix>
</trkpt>
<trkpt lat="-27.2721928" lon="151.2900654">
  <ele>459.22</ele>
  <time>2026-09-01T19:59:28Z</time>
  <course>8.98</course>
  <speed>0.01</speed>
  <fix>3d</fix>
</trkpt>
<trkpt lat="-27.2721927" lon="151.2900654">
  <ele>459.69</ele>
  <time>2026-09-01T19:59:28Z</time>
  <course>98.2</course>
  <speed>0.02</speed>
  <fix>3d</fix>
</trkpt>
<trkpt lat="-27.2721928" lon="151.2900654">
  <ele>459.07</ele>
  <time>2026-09-01T19:59:28Z</time>
  <course>9.36</course>
  <speed>0.01414213562373095</speed>
  <fix>3d</fix>
</trkpt>
<trkpt lat="-27.2721927" lon="151.2900654">
  <ele>459.69</ele>
  <time>2026-09-01T19:59:28Z</time>
  <course>98.2</course>
  <speed>0.02</speed>
  <fix>3d</fix>
</trkpt>
<trkpt lat="-27.2721928" lon="151.2900654">
  <ele>458.91</ele>
  <time>2026-09-01T19:59:28Z</time>
  <course>9.65</course>
  <speed>0.0316227766016838</speed>
  <fix>3d</fix>
</trkpt>
<trkpt lat="-27.2721927" lon="151.2900655">
  <ele>459.4</ele>
  <time>2026-09-01T19:59:28Z</time>
  <course>275.87</course>
  <speed>0.01</speed>
  <fix>3d</fix>
</trkpt>
<trkpt lat="-27.2721928" lon="151.2900654">
  <ele>458.76</ele>
  <time>2026-09-01T19:59:28Z</time>
  <course>9.85</course>
  <speed>0.0412310562561766</speed>
  <fix>3d</fix>
</trkpt>
<trkpt lat="-27.2721927" lon="151.2900655">
  <ele>459.4</ele>
  <time>2026-09-01T19:59:28Z</time>
  <course>275.87</course>
  <speed>0.01</speed>
  <fix>3d</fix>
</trkpt>
<trkpt lat="-27.2721928" lon="151.2900654">
  <ele>458.61</ele>
  <time>2026-09-01T19:59:28Z</time>
  <course>9.94</course>
  <speed>0.05099019513592785</speed>
  <fix>3d</fix>
</trkpt>
<trkpt lat="-27.2721927" lon="151.2900655">
  <ele>459.1</ele>
  <time>2026-09-01T19:59:28Z</time>
  <course>275.47</course>
  <speed>0.04</speed>
  <fix>3d</fix>
</trkpt>
<trkpt lat="-27.2721928" lon="151.2900653">
  <ele>458.46</ele>
  <time>2026-09-01T19:59:28Z</time>
  <course>9.95</course>
  <speed>0.07071067811865475</speed>
  <fix>3d</fix>
</trkpt>
<trkpt lat="-27.2721927" lon="151.2900655">
  <ele>459.1</ele>
  <time>2026-09-01T19:59:28Z</time>
  <course>275.47</course>
  <speed>0.04</speed>
  <fix>3d</fix>
</trkpt>
<trkpt lat="-27.2721928" lon="151.2900652">
  <ele>458.31</ele>
  <time>2026-09-01T19:59:28Z</time>
  <course>9.91</course>
  <speed>0.08062257748298549</speed>
  <fix>3d</fix>
</trkpt>
<trkpt lat="-27.2721927" lon="151.2900654">
  <ele>458.8</ele>
  <time>2026-09-01T19:59:28Z</time>
  <course>274.68</course>
  <speed>0.06</speed>
  <fix>3d</fix>
</trkpt>
<trkpt lat="-27.2721927" lon="151.2900652">
  <ele>458.16</ele>
  <time>2026-09-01T19:59:28Z</time>
  <course>9.82</course>
  <speed>0.09055385138137417</speed>
  <fix>3d</fix>
</trkpt>
<trkpt lat="-27.2721927" lon="151.2900654">
  <ele>458.8</ele>
  <time>2026-09-01T19:59:28Z</time>
  <course>274.68</course>
  <speed>0.06</speed>
  <fix>3d</fix>
</trkpt>
<trkpt lat="-27.2721927" lon="151.290065">
  <ele>458.0</ele>
  <time>2026-09-01T19:59:28Z</time>
  <course>9.73</course>
  <speed>0.09055385138137417</speed>
  <fix>3d</fix>
</trkpt>
<trkpt lat="-27.2721927" lon="151.2900651">
  <ele>458.5</ele>
  <time>2026-09-01T19:59:28Z</time>
  <course>274.08</course>
  <speed>0.09</speed>
  <fix>3d</fix>
</trkpt>
<trkpt lat="-27.2721927" lon="151.2900649">
  <ele>457.85</ele>
  <time>2026-09-01T19:59:28Z</time>
  <course>9.65</course>
  <speed>0.1004987562112089</speed>
  <fix>3d</fix>
</trkpt>
<trkpt lat="-27.2721927" lon="151.2900651">
  <ele>458.5</ele>
  <time>2026-09-01T19:59:28Z</time>
  <course>274.08</course>
  <speed>0.09</speed>
  <fix>3d</fix>
</trkpt>
<trkpt lat="-27.2721927" lon="151.2900648">
  <ele>457.7</ele>
  <time>2026-09-01T19:59:28Z</time>
  <course>9.58</course>
  <speed>0.11045361017187261</speed>
  <fix>3d</fix>
</trkpt>
<trkpt lat="-27.2721927" lon="151.290065">
  <ele>458.2</ele>
  <time>2026-09-01T19:59:28Z</time>
  <course>273.79</course>
  <speed>0.11</speed>
  <fix>3d</fix>
</trkpt>
<trkpt lat="-27.2721927" lon="151.2900647">
  <ele>457.56</ele>
  <time>2026-09-01T19:59:28Z</time>
  <course>9.54</course>
  <speed>0.12041594578792296</speed>
  <fix>3d</fix>
</trkpt>
<trkpt lat="-27.2721927" lon="151.290065">
  <ele>458.2</ele>
  <time>2026-09-01T19:59:28Z</time>
  <course>273.79</course>
  <speed>0.11</speed>
  <fix>3d</fix>
</trkpt>
<trkpt lat="-27.2721927" lon="151.2900646">
  <ele>457.41</ele>
  <time>2026-09-01T19:59:28Z</time>
  <course>9.53</course>
  <speed>0.12</speed>
  <fix>3d</fix>
</trkpt>
<trkpt lat="-27.2721927" lon="151.2900647">
  <ele>457.9</ele>
  <time>2026-09-01T19:59:28Z</time>
  <course>273.79</course>
  <speed>0.12</speed>
  <fix>3d</fix>
</trkpt>
<trkpt lat="-27.2721927" lon="151.2900644">
  <ele>457.26</ele>
  <time>2026-09-01T19:59:28Z</time>
  <course>9.54</course>
  <speed>0.12041594578792296</speed>
  <fix>3d</fix>
</trkpt>
<trkpt lat="-27.2721927" lon="151.2900647">
  <ele>457.9</ele>
  <time>2026-09-01T19:59:28Z</time>
  <course>273.79</course>
  <speed>0.12</speed>
  <fix>3d</fix>
</trkpt>
<trkpt lat="-27.2721927" lon="151.2900643">
  <ele>457.12</ele>
  <time>2026-09-01T19:59:28Z</time>
  <course>9.56</course>
  <speed>0.13</speed>
  <fix>3d</fix>
</trkpt>
<trkpt lat="-27.2721927" lon="151.2900645">
  <ele>457.6</ele>
  <time>2026-09-01T19:59:28Z</time>
  <course>273.91</course>
  <speed>0.14</speed>
  <fix>3d</fix>
</trkpt>
<trkpt lat="-27.2721927" lon="151.2900642">
  <ele>456.97</ele>
  <time>2026-09-01T19:59:28Z</time>
  <course>9.58</course>
  <speed>0.13</speed>
  <fix>3d</fix>
</trkpt>
<trkpt lat="-27.2721927" lon="151.2900645">
  <ele>457.6</ele>
  <time>2026-09-01T19:59:28Z</time>
  <course>273.91</course>
  <speed>0.14</speed>
  <fix>3d</fix>
</trkpt>
<trkpt lat="-27.2721927" lon="151.290064">
  <ele>456.82</ele>
  <time>2026-09-01T19:59:28Z</time>
  <course>9.61</course>
  <speed>0.13</speed>
  <fix>3d</fix>
</trkpt>
<trkpt lat="-27.2721927" lon="151.2900642">
  <ele>457.31</ele>
  <time>2026-09-01T19:59:28Z</time>
  <course>274.1</course>
  <speed>0.15</speed>
  <fix>3d</fix>
</trkpt>
<trkpt lat="-27.2721927" lon="151.2900639">
  <ele>456.68</ele>
  <time>2026-09-01T19:59:28Z</time>
  <course>9.63</course>
  <speed>0.13</speed>
  <fix>3d</fix>
</trkpt>
<trkpt lat="-27.2721927" lon="151.2900642">
  <ele>457.31</ele>
  <time>2026-09-01T19:59:28Z</time>
  <course>274.1</course>
  <speed>0.15</speed>
  <fix>3d</fix>
</trkpt>
<trkpt lat="-27.2721927" lon="151.2900637">
  <ele>456.53</ele>
  <time>2026-09-01T19:59:28Z</time>
  <course>9.65</course>
  <speed>0.13</speed>
  <fix>3d</fix>
</trkpt>
<trkpt lat="-27.2721927" lon="151.2900639">
  <ele>457.01</ele>
  <time>2026-09-01T19:59:28Z</time>
  <course>274.36</course>
  <speed>0.15</speed>
  <fix>3d</fix>
</trkpt>
<trkpt lat="-27.2721927" lon="151.2900636">
  <ele>456.38</ele>
  <time>2026-09-01T19:59:28Z</time>
  <course>9.65</course>
  <speed>0.130384048104053</speed>
  <fix>3d</fix>
</trkpt>
<trkpt lat="-27.2721927" lon="151.2900639">
  <ele>457.01</ele>
  <time>2026-09-01T19:59:28Z</time>
  <course>274.36</course>
  <speed>0.15</speed>
  <fix>3d</fix>
</trkpt>
<trkpt lat="-27.2721927" lon="151.2900634">
  <ele>456.23</ele>
  <time>2026-09-01T19:59:28Z</time>
  <course>9.65</course>
  <speed>0.12</speed>
  <fix>3d</fix>
</trkpt>
<trkpt lat="-27.2721926" lon="151.2900635">
  <ele>456.71</ele>
  <time>2026-09-01T19:59:28Z</time>
  <course>274.65</course>
  <speed>0.15</speed>
  <fix>3d</fix>
</trkpt>
<trkpt lat="-27.2721927" lon="151.2900633">
  <ele>456.08</ele>
  <time>2026-09-01T19:59:28Z</time>
  <course>9.65</course>
  <speed>0.12</speed>
  <fix>3d</fix>
</trkpt>
<trkpt lat="-27.2721926" lon="151.2900635">
  <ele>456.71</ele>
  <time>2026-09-01T19:59:28Z</time>
  <course>274.65</course>
  <speed>0.15</speed>
  <fix>3d</fix>
</trkpt>
<trkpt lat="-27.2721927" lon="151.2900631">
  <ele>455.93</ele>
  <time>2026-09-01T19:59:28Z</time>
  <course>9.64</course>
  <speed>0.12</speed>
  <fix>3d</fix>
</trkpt>
<trkpt lat="-27.2721926" lon="151.2900632">
  <ele>456.41</ele>
  <time>2026-09-01T19:59:28Z</time>
  <course>275.1</course>
  <speed>0.15</speed>
  <fix>3d</fix>
</trkpt>
<trkpt lat="-27.2721927" lon="151.290063">
  <ele>455.78</ele>
  <time>2026-09-01T19:59:28Z</time>
  <course>9.63</course>
  <speed>0.11</speed>
  <fix>3d</fix>
</trkpt>
<trkpt lat="-27.2721926" lon="151.2900632">
  <ele>456.41</ele>
  <time>2026-09-01T19:59:28Z</time>
  <course>275.1</course>
  <speed>0.15</speed>
  <fix>3d</fix>
</trkpt>
<trkpt lat="-27.2721927" lon="151.2900629">
  <ele>455.63</ele>
  <time>2026-09-01T19:59:28Z</time>
  <course>9.62</course>
  <speed>0.11</speed>
  <fix>3d</fix>
</trkpt>
<trkpt lat="-27.2721926" lon="151.2900629">
  <ele>456.11</ele>
  <time>2026-09-01T19:59:28Z</time>
  <course>275.73</course>
  <speed>0.14</speed>
  <fix>3d</fix>
</trkpt>
<trkpt lat="-27.2721927" lon="151.2900628">
  <ele>455.47</ele>
  <time>2026-09-01T19:59:28Z</time>
  <course>9.61</course>
  <speed>0.1</speed>
  <fix>3d</fix>
</trkpt>
<trkpt lat="-27.2721926" lon="151.2900629">
  <ele>456.11</ele>
  <time>2026-09-01T19:59:28Z</time>
  <course>275.73</course>
  <speed>0.14</speed>
  <fix>3d</fix>
</trkpt>
<trkpt lat="-27.2721927" lon="151.2900626">
  <ele>455.32</ele>
  <time>2026-09-01T19:59:28Z</time>
  <course>9.6</course>
  <speed>0.09055385138137417</speed>
  <fix>3d</fix>
</trkpt>
<trkpt lat="-27.2721926" lon="151.2900627">
  <ele>455.81</ele>
  <time>2026-09-01T19:59:28Z</time>
  <course>276.3</course>
  <speed>0.13</speed>
  <fix>3d</fix>
</trkpt>
<trkpt lat="-27.2721927" lon="151.2900625">
  <ele>455.17</ele>
  <time>2026-09-01T19:59:28Z</time>
  <course>9.6</course>
  <speed>0.09055385138137417</speed>
  <fix>3d</fix>
</trkpt>
<trkpt lat="-27.2721926" lon="151.2900627">
  <ele>455.81</ele>
  <time>2026-09-01T19:59:28Z</time>
  <course>276.3</course>
  <speed>0.13</speed>
  <fix>3d</fix>
</trkpt>
<trkpt lat="-27.2721927" lon="151.2900624">
  <ele>455.03</ele>
  <time>2026-09-01T19:59:28Z</time>
  <course>9.6</course>
  <speed>0.08062257748298549</speed>
  <fix>3d</fix>
</trkpt>
<trkpt lat="-27.2721925" lon="151.2900624">
  <ele>455.51</ele>
  <time>2026-09-01T19:59:28Z</time>
  <course>276.79</course>
  <speed>0.11</speed>
  <fix>3d</fix>
</trkpt>
<trkpt lat="-27.2721927" lon="151.2900623">
  <ele>454.87</ele>
  <time>2026-09-01T19:59:28Z</time>
  <course>9.61</course>
  <speed>0.07071067811865475</speed>
  <fix>3d</fix>
</trkpt>
<trkpt lat="-27.2721925" lon="151.2900624">
  <ele>455.51</ele>
  <time>2026-09-01T19:59:28Z</time>
  <course>276.79</course>
  <speed>0.11</speed>
  <fix>3d</fix>
</trkpt>
<trkpt lat="-27.2721927" lon="151.2900622">
  <ele>454.73</ele>
  <time>2026-09-01T19:59:28Z</time>
  <course>9.62</course>
  <speed>0.06082762530298219</speed>
  <fix>3d</fix>
</trkpt>
<trkpt lat="-27.2721925" lon="151.2900622">
  <ele>455.21</ele>
  <time>2026-09-01T19:59:28Z</time>
  <course>277.43</course>
  <speed>0.1</speed>
  <fix>3d</fix>
</trkpt>
<trkpt lat="-27.2721927" lon="151.2900621">
  <ele>454.58</ele>
  <time>2026-09-01T19:59:28Z</time>
  <course>9.63</course>
  <speed>0.05099019513592785</speed>
  <fix>3d</fix>
</trkpt>
<trkpt lat="-27.2721925" lon="151.2900622">
  <ele>455.21</ele>
  <time>2026-09-01T19:59:28Z</time>
  <course>277.43</course>
  <speed>0.1</speed>
  <fix>3d</fix>
</trkpt>
<trkpt lat="-27.2721927" lon="151.2900621">
  <ele>454.43</ele>
  <time>2026-09-01T19:59:28Z</time>
  <course>9.63</course>
  <speed>0.0412310562561766</speed>
  <fix>3d</fix>
</trkpt>
<trkpt lat="-27.2721925" lon="151.2900619">
  <ele>454.91</ele>
  <time>2026-09-01T19:59:28Z</time>
  <course>278.41</course>
  <speed>0.08</speed>
  <fix>3d</fix>
</trkpt>
<trkpt lat="-27.2721927" lon="151.290062">
  <ele>454.28</ele>
  <time>2026-09-01T19:59:28Z</time>
  <course>9.64</course>
  <speed>0.0316227766016838</speed>
  <fix>3d</fix>
</trkpt>
<trkpt lat="-27.2721925" lon="151.2900619">
  <ele>454.91</ele>
  <time>2026-09-01T19:59:28Z</time>
  <course>278.41</course>
  <speed>0.08</speed>
  <fix>3d</fix>
</trkpt>
<trkpt lat="-27.2721927" lon="151.2900619">
  <ele>454.12</ele>
  <time>2026-09-01T19:59:28Z</time>
  <course>9.64</course>
  <speed>0.022360679774997897</speed>
  <fix>3d</fix>
</trkpt>
<trkpt lat="-27.2721925" lon="151.2900618">
  <ele>454.6</ele>
  <time>2026-09-01T19:59:28Z</time>
  <course>279.65</course>
  <speed>0.07</speed>
  <fix>3d</fix>
</trkpt>
<trkpt lat="-27.2721927" lon="151.2900619">
  <ele>453.97</ele>
  <time>2026-09-01T19:59:28Z</time>
  <course>9.64</course>
  <speed>0.01414213562373095</speed>
  <fix>3d</fix>
</trkpt>
<trkpt lat="-27.2721925" lon="151.2900618">
  <ele>454.6</ele>
  <time>2026-09-01T19:59:28Z</time>
  <course>279.65</course>
  <speed>0.07</speed>
  <fix>3d</fix>
</trkpt>
<trkpt lat="-27.2721927" lon="151.2900619">
  <ele>453.82</ele>
  <time>2026-09-01T19:59:28Z</time>
  <course>9.64</course>
  <speed>0.01414213562373095</speed>
  <fix>3d</fix>
</trkpt>
<trkpt lat="-27.2721924" lon="151.2900617">
  <ele>454.3</ele>
  <time>2026-09-01T19:59:28Z</time>
  <course>281.33</course>
  <speed>0.05</speed>
  <fix>3d</fix>
</trkpt>
<trkpt lat="-27.2721927" lon="151.2900618">
  <ele>453.67</ele>
  <time>2026-09-01T19:59:28Z</time>
  <course>9.64</course>
  <speed>0.01</speed>
  <fix>3d</fix>
</trkpt>
<trkpt lat="-27.2721924" lon="151.2900617">
  <ele>454.3</ele>
  <time>2026-09-01T19:59:28Z</time>
  <course>281.33</course>
  <speed>0.05</speed>
  <fix>3d</fix>
</trkpt>
<trkpt lat="-27.2721926" lon="151.2900618">
  <ele>453.52</ele>
  <time>2026-09-01T19:59:28Z</time>
  <course>9.62</course>
  <speed>0.01</speed>
  <fix>3d</fix>
</trkpt>
<trkpt lat="-27.2721924" lon="151.2900616">
  <ele>454.0</ele>
  <time>2026-09-01T19:59:28Z</time>
  <course>284.42</course>
  <speed>0.03</speed>
  <fix>3d</fix>
</trkpt>
<trkpt lat="-27.2721926" lon="151.2900618">
  <ele>453.37</ele>
  <time>2026-09-01T19:59:28Z</time>
  <course>9.6</course>
  <speed>0.022360679774997897</speed>
  <fix>3d</fix>
</trkpt>
<trkpt lat="-27.2721924" lon="151.2900616">
  <ele>454.0</ele>
  <time>2026-09-01T19:59:28Z</time>
  <course>284.42</course>
  <speed>0.03</speed>
  <fix>3d</fix>
</trkpt>
<trkpt lat="-27.2721926" lon="151.2900618">
  <ele>453.21</ele>
  <time>2026-09-01T19:59:28Z</time>
  <course>9.57</course>
  <speed>0.03605551275463989</speed>
  <fix>3d</fix>
</trkpt>
<trkpt lat="-27.2721924" lon="151.2900616">
  <ele>453.7</ele>
  <time>2026-09-01T19:59:28Z</time>
  <course>298.42</course>
  <speed>0.01</speed>
  <fix>3d</fix>
</trkpt>
<trkpt lat="-27.2721926" lon="151.2900618">
  <ele>453.06</ele>
  <time>2026-09-01T19:59:28Z</time>
  <course>9.5</course>
  <speed>0.03605551275463989</speed>
  <fix>3d</fix>
</trkpt>
<trkpt lat="-27.2721924" lon="151.2900616">
  <ele>453.7</ele>
  <time>2026-09-01T19:59:28Z</time>
  <course>298.42</course>
  <speed>0.01</speed>
  <fix>3d</fix>
</trkpt>
<trkpt lat="-27.2721926" lon="151.2900618">
  <ele>452.91</ele>
  <time>2026-09-01T19:59:28Z</time>
  <course>9.57</course>
  <speed>0.044721359549995794</speed>
  <fix>3d</fix>
</trkpt>
<trkpt lat="-27.2721924" lon="151.2900616">
  <ele>453.4</ele>
  <time>2026-09-01T19:59:28Z</time>
  <course>71.2</course>
  <speed>0.01</speed>
  <fix>3d</fix>
</trkpt>
<trkpt lat="-27.2721926" lon="151.2900618">
  <ele>452.76</ele>
  <time>2026-09-01T19:59:28Z</time>
  <course>9.74</course>
  <speed>0.03605551275463989</speed>
  <fix>3d</fix>
</trkpt>
<trkpt lat="-27.2721924" lon="151.2900616">
  <ele>453.4</ele>
  <time>2026-09-01T19:59:28Z</time>
  <course>71.2</course>
  <speed>0.01</speed>
  <fix>3d</fix>
</trkpt>
<trkpt lat="-27.2721926" lon="151.2900618">
  <ele>452.61</ele>
  <time>2026-09-01T19:59:28Z</time>
  <course>9.98</course>
  <speed>0.03605551275463989</speed>
  <fix>3d</fix>
</trkpt>
<trkpt lat="-27.2721924" lon="151.2900616">
  <ele>453.1</ele>
  <time>2026-09-01T19:59:28Z</time>
  <course>83.63</course>
  <speed>0.02</speed>
  <fix>3d</fix>
</trkpt>
<trkpt lat="-27.2721926" lon="151.2900618">
  <ele>452.47</ele>
  <time>2026-09-01T19:59:28Z</time>
  <course>10.25</course>
  <speed>0.044721359549995794</speed>
  <fix>3d</fix>
</trkpt>
<trkpt lat="-27.2721924" lon="151.2900616">
  <ele>453.1</ele>
  <time>2026-09-01T19:59:28Z</time>
  <course>83.63</course>
  <speed>0.02</speed>
  <fix>3d</fix>
</trkpt>
<trkpt lat="-27.2721926" lon="151.2900618">
  <ele>452.32</ele>
  <time>2026-09-01T19:59:28Z</time>
  <course>10.5</course>
  <speed>0.044721359549995794</speed>
  <fix>3d</fix>
</trkpt>
<trkpt lat="-27.2721924" lon="151.2900616">
  <ele>452.8</ele>
  <time>2026-09-01T19:59:28Z</time>
  <course>83.0</course>
  <speed>0.02</speed>
  <fix>3d</fix>
</trkpt>
<trkpt lat="-27.2721926" lon="151.2900619">
  <ele>452.16</ele>
  <time>2026-09-01T19:59:28Z</time>
  <course>10.68</course>
  <speed>0.053851648071345036</speed>
  <fix>3d</fix>
</trkpt>
<trkpt lat="-27.2721924" lon="151.2900616">
  <ele>452.8</ele>
  <time>2026-09-01T19:59:28Z</time>
  <course>83.0</course>
  <speed>0.02</speed>
  <fix>3d</fix>
</trkpt>
<trkpt lat="-27.2721926" lon="151.2900619">
  <ele>452.01</ele>
  <time>2026-09-01T19:59:28Z</time>
  <course>10.8</course>
  <speed>0.053851648071345036</speed>
  <fix>3d</fix>
</trkpt>
<trkpt lat="-27.2721924" lon="151.2900616">
  <ele>452.5</ele>
  <time>2026-09-01T19:59:28Z</time>
  <course>82.31</course>
  <speed>0.02</speed>
  <fix>3d</fix>
</trkpt>
<trkpt lat="-27.2721926" lon="151.2900619">
  <ele>451.87</ele>
  <time>2026-09-01T19:59:28Z</time>
  <course>10.84</course>
  <speed>0.053851648071345036</speed>
  <fix>3d</fix>
</trkpt>
<trkpt lat="-27.2721924" lon="151.2900616">
  <ele>452.5</ele>
  <time>2026-09-01T19:59:28Z</time>
  <course>82.31</course>
  <speed>0.02</speed>
  <fix>3d</fix>
</trkpt>
<trkpt lat="-27.2721926" lon="151.290062">
  <ele>451.72</ele>
  <time>2026-09-01T19:59:28Z</time>
  <course>10.84</course>
  <speed>0.0632455532033676</speed>
  <fix>3d</fix>
</trkpt>
<trkpt lat="-27.2721924" lon="151.2900617">
  <ele>452.2</ele>
  <time>2026-09-01T19:59:28Z</time>
  <course>82.39</course>
  <speed>0.02</speed>
  <fix>3d</fix>
</trkpt>
<trkpt lat="-27.2721926" lon="151.290062">
  <ele>451.57</ele>
  <time>2026-09-01T19:59:28Z</time>
  <course>10.78</course>
  <speed>0.07280109889280519</speed>
  <fix>3d</fix>
</trkpt>
<trkpt lat="-27.2721924" lon="151.2900617">
  <ele>452.2</ele>
  <time>2026-09-01T19:59:28Z</time>
  <course>82.39</course>
  <speed>0.02</speed>
  <fix>3d</fix>
</trkpt>
<trkpt lat="-27.2721926" lon="151.290062">
  <ele>451.43</ele>
  <time>2026-09-01T19:59:28Z</time>
  <course>10.69</course>
  <speed>0.0632455532033676</speed>
  <fix>3d</fix>
</trkpt>
<trkpt lat="-27.2721924" lon="151.2900617">
  <ele>451.9</ele>
  <time>2026-09-01T19:59:28Z</time>
  <course>82.71</course>
  <speed>0.02</speed>
  <fix>3d</fix>
</trkpt>
<trkpt lat="-27.2721926" lon="151.2900621">
  <ele>451.28</ele>
  <time>2026-09-01T19:59:28Z</time>
  <course>10.59</course>
  <speed>0.0632455532033676</speed>
  <fix>3d</fix>
</trkpt>
<trkpt lat="-27.2721924" lon="151.2900617">
  <ele>451.9</ele>
  <time>2026-09-01T19:59:28Z</time>
  <course>82.71</course>
  <speed>0.02</speed>
  <fix>3d</fix>
</trkpt>
<trkpt lat="-27.2721926" lon="151.2900621">
  <ele>451.13</ele>
  <time>2026-09-01T19:59:28Z</time>
  <course>10.5</course>
  <speed>0.0632455532033676</speed>
  <fix>3d</fix>
</trkpt>
<trkpt lat="-27.2721924" lon="151.2900617">
  <ele>451.6</ele>
  <time>2026-09-01T19:59:28Z</time>
  <course>83.1</course>
  <speed>0.02</speed>
  <fix>3d</fix>
</trkpt>
<trkpt lat="-27.2721926" lon="151.2900621">
  <ele>450.98</ele>
  <time>2026-09-01T19:59:28Z</time>
  <course>10.43</course>
  <speed>0.0632455532033676</speed>
  <fix>3d</fix>
</trkpt>
<trkpt lat="-27.2721924" lon="151.2900617">
  <ele>451.6</ele>
  <time>2026-09-01T19:59:28Z</time>
  <course>83.1</course>
  <speed>0.02</speed>
  <fix>3d</fix>
</trkpt>
<trkpt lat="-27.2721926" lon="151.2900621">
  <ele>450.84</ele>
  <time>2026-09-01T19:59:28Z</time>
  <course>10.38</course>
  <speed>0.07280109889280519</speed>
  <fix>3d</fix>
</trkpt>
<trkpt lat="-27.2721924" lon="151.2900618">
  <ele>451.3</ele>
  <time>2026-09-01T19:59:28Z</time>
  <course>82.96</course>
  <speed>0.02</speed>
  <fix>3d</fix>
</trkpt>
<trkpt lat="-27.2721926" lon="151.2900622">
  <ele>450.69</ele>
  <time>2026-09-01T19:59:28Z</time>
  <course>10.35</course>
  <speed>0.0632455532033676</speed>
  <fix>3d</fix>
</trkpt>
<trkpt lat="-27.2721924" lon="151.2900618">
  <ele>451.3</ele>
  <time>2026-09-01T19:59:28Z</time>
  <course>82.96</course>
  <speed>0.02</speed>
  <fix>3d</fix>
</trkpt>
<trkpt lat="-27.2721926" lon="151.2900622">
  <ele>450.54</ele>
  <time>2026-09-01T19:59:28Z</time>
  <course>10.35</course>
  <speed>0.0632455532033676</speed>
  <fix>3d</fix>
</trkpt>
<trkpt lat="-27.2721924" lon="151.2900618">
  <ele>451.0</ele>
  <time>2026-09-01T19:59:28Z</time>
  <course>81.31</course>
  <speed>0.02</speed>
  <fix>3d</fix>
</trkpt>
<trkpt lat="-27.2721926" lon="151.2900622">
  <ele>450.39</ele>
  <time>2026-09-01T19:59:28Z</time>
  <course>10.35</course>
  <speed>0.0632455532033676</speed>
  <fix>3d</fix>
</trkpt>
<trkpt lat="-27.2721924" lon="151.2900618">
  <ele>451.0</ele>
  <time>2026-09-01T19:59:28Z</time>
  <course>81.31</course>
  <speed>0.02</speed>
  <fix>3d</fix>
</trkpt>
<trkpt lat="-27.2721926" lon="151.2900623">
  <ele>450.24</ele>
  <time>2026-09-01T19:59:28Z</time>
  <course>10.36</course>
  <speed>0.07280109889280519</speed>
  <fix>3d</fix>
</trkpt>
<trkpt lat="-27.2721924" lon="151.2900618">
  <ele>450.7</ele>
  <time>2026-09-01T19:59:28Z</time>
  <course>79.32</course>
  <speed>0.02</speed>
  <fix>3d</fix>
</trkpt>
<trkpt lat="-27.2721926" lon="151.2900623">
  <ele>450.08</ele>
  <time>2026-09-01T19:59:28Z</time>
  <course>10.38</course>
  <speed>0.0632455532033676</speed>
  <fix>3d</fix>
</trkpt>
<trkpt lat="-27.2721924" lon="151.2900618">
  <ele>450.7</ele>
  <time>2026-09-01T19:59:28Z</time>
  <course>79.32</course>
  <speed>0.02</speed>
  <fix>3d</fix>
</trkpt>
<trkpt lat="-27.2721926" lon="151.2900623">
  <ele>449.93</ele>
  <time>2026-09-01T19:59:28Z</time>
  <course>10.39</course>
  <speed>0.0632455532033676</speed>
  <fix>3d</fix>
</trkpt>
<trkpt lat="-27.2721924" lon="151.2900619">
  <ele>450.39</ele>
  <time>2026-09-01T19:59:28Z</time>
  <course>78.7</course>
  <speed>0.02</speed>
  <fix>3d</fix>
</trkpt>
<trkpt lat="-27.2721926" lon="151.2900623">
  <ele>449.78</ele>
  <time>2026-09-01T19:59:28Z</time>
  <course>10.41</course>
  <speed>0.053851648071345036</speed>
  <fix>3d</fix>
</trkpt>
<trkpt lat="-27.2721924" lon="151.2900619">
  <ele>450.39</ele>
  <time>2026-09-01T19:59:28Z</time>
  <course>78.7</course>
  <speed>0.02</speed>
  <fix>3d</fix>
</trkpt>
<trkpt lat="-27.2721926" lon="151.2900623">
  <ele>449.63</ele>
  <time>2026-09-01T19:59:28Z</time>
  <course>10.42</course>
  <speed>0.053851648071345036</speed>
  <fix>3d</fix>
</trkpt>
<trkpt lat="-27.2721924" lon="151.290062">
  <ele>450.09</ele>
  <time>2026-09-01T19:59:28Z</time>
  <course>78.79</course>
  <speed>0.02</speed>
  <fix>3d</fix>
</trkpt>
<trkpt lat="-27.2721926" lon="151.2900624">
  <ele>449.48</ele>
  <time>2026-09-01T19:59:28Z</time>
  <course>10.45</course>
  <speed>0.053851648071345036</speed>
  <fix>3d</fix>
</trkpt>
<trkpt lat="-27.2721924" lon="151.290062">
  <ele>450.09</ele>
  <time>2026-09-01T19:59:28Z</time>
  <course>78.79</course>
  <speed>0.02</speed>
  <fix>3d</fix>
</trkpt>
<trkpt lat="-27.2721926" lon="151.2900624">
  <ele>449.33</ele>
  <time>2026-09-01T19:59:28Z</time>
  <course>10.49</course>
  <speed>0.053851648071345036</speed>
  <fix>3d</fix>
</trkpt>
<trkpt lat="-27.2721923" lon="151.290062">
  <ele>449.79</ele>
  <time>2026-09-01T19:59:28Z</time>
  <course>77.63</course>
  <speed>0.02</speed>
  <fix>3d</fix>
</trkpt>
<trkpt lat="-27.2721926" lon="151.2900624">
  <ele>449.18</ele>
  <time>2026-09-01T19:59:28Z</time>
  <course>10.53</course>
  <speed>0.053851648071345036</speed>
  <fix>3d</fix>
</trkpt>
<trkpt lat="-27.2721923" lon="151.290062">
  <ele>449.79</ele>
  <time>2026-09-01T19:59:28Z</time>
  <course>77.63</course>
  <speed>0.02</speed>
  <fix>3d</fix>
</trkpt>
<trkpt lat="-27.2721926" lon="151.2900624">
  <ele>449.02</ele>
  <time>2026-09-01T19:59:28Z</time>
  <course>10.56</course>
  <speed>0.053851648071345036</speed>
  <fix>3d</fix>
</trkpt>
<trkpt lat="-27.2721923" lon="151.290062">
  <ele>449.48</ele>
  <time>2026-09-01T19:59:28Z</time>
  <course>75.8</course>
  <speed>0.02</speed>
  <fix>3d</fix>
</trkpt>
<trkpt lat="-27.2721926" lon="151.2900624">
  <ele>448.87</ele>
  <time>2026-09-01T19:59:28Z</time>
  <course>10.58</course>
  <speed>0.053851648071345036</speed>
  <fix>3d</fix>
</trkpt>
<trkpt lat="-27.2721923" lon="151.290062">
  <ele>449.48</ele>
  <time>2026-09-01T19:59:28Z</time>
  <course>75.8</course>
  <speed>0.02</speed>
  <fix>3d</fix>
</trkpt>
<trkpt lat="-27.2721926" lon="151.2900624">
  <ele>448.72</ele>
  <time>2026-09-01T19:59:28Z</time>
  <course>10.59</course>
  <speed>0.044721359549995794</speed>
  <fix>3d</fix>
</trkpt>
<trkpt lat="-27.2721923" lon="151.2900621">
  <ele>449.18</ele>
  <time>2026-09-01T19:59:28Z</time>
  <course>74.76</course>
  <speed>0.01</speed>
  <fix>3d</fix>
</trkpt>
<trkpt lat="-27.2721926" lon="151.2900624">
  <ele>448.57</ele>
  <time>2026-09-01T19:59:28Z</time>
  <course>10.61</course>
  <speed>0.053851648071345036</speed>
  <fix>3d</fix>
</trkpt>
<trkpt lat="-27.2721923" lon="151.2900621">
  <ele>449.18</ele>
  <time>2026-09-01T19:59:28Z</time>
  <course>74.76</course>
  <speed>0.01</speed>
  <fix>3d</fix>
</trkpt>
<trkpt lat="-27.2721926" lon="151.2900624">
  <ele>448.42</ele>
  <time>2026-09-01T19:59:28Z</time>
  <course>10.62</course>
  <speed>0.044721359549995794</speed>
  <fix>3d</fix>
</trkpt>
<trkpt lat="-27.2721923" lon="151.2900621">
  <ele>448.87</ele>
  <time>2026-09-01T19:59:28Z</time>
  <course>74.37</course>
  <speed>0.01</speed>
  <fix>3d</fix>
</trkpt>
<trkpt lat="-27.2721926" lon="151.2900625">
  <ele>448.27</ele>
  <time>2026-09-01T19:59:28Z</time>
  <course>10.63</course>
  <speed>0.044721359549995794</speed>
  <fix>3d</fix>
</trkpt>
<trkpt lat="-27.2721923" lon="151.2900621">
  <ele>448.87</ele>
  <time>2026-09-01T19:59:28Z</time>
  <course>74.37</course>
  <speed>0.01</speed>
  <fix>3d</fix>
</trkpt>
<trkpt lat="-27.2721926" lon="151.2900625">
  <ele>448.11</ele>
  <time>2026-09-01T19:59:28Z</time>
  <course>10.65</course>
  <speed>0.044721359549995794</speed>
  <fix>3d</fix>
</trkpt>
<trkpt lat="-27.2721923" lon="151.2900622">
  <ele>448.57</ele>
  <time>2026-09-01T19:59:28Z</time>
  <course>73.45</course>
  <speed>0.01</speed>
  <fix>3d</fix>
</trkpt>
<trkpt lat="-27.2721926" lon="151.2900625">
  <ele>447.96</ele>
  <time>2026-09-01T19:59:28Z</time>
  <course>10.66</course>
  <speed>0.044721359549995794</speed>
  <fix>3d</fix>
</trkpt>
<trkpt lat="-27.2721923" lon="151.2900622">
  <ele>448.57</ele>
  <time>2026-09-01T19:59:28Z</time>
  <course>73.45</course>
  <speed>0.01</speed>
  <fix>3d</fix>
</trkpt>
<trkpt lat="-27.2721926" lon="151.2900625">
  <ele>447.81</ele>
  <time>2026-09-01T19:59:28Z</time>
  <course>10.67</course>
  <speed>0.0412310562561766</speed>
  <fix>3d</fix>
</trkpt>
<trkpt lat="-27.2721923" lon="151.2900622">
  <ele>448.27</ele>
  <time>2026-09-01T19:59:28Z</time>
  <course>72.33</course>
  <speed>0.01</speed>
  <fix>3d</fix>
</trkpt>
<trkpt lat="-27.2721926" lon="151.2900625">
  <ele>447.66</ele>
  <time>2026-09-01T19:59:28Z</time>
  <course>10.67</course>
  <speed>0.0316227766016838</speed>
  <fix>3d</fix>
</trkpt>
<trkpt lat="-27.2721923" lon="151.2900622">
  <ele>448.27</ele>
  <time>2026-09-01T19:59:28Z</time>
  <course>72.33</course>
  <speed>0.01</speed>
  <fix>3d</fix>
</trkpt>
<trkpt lat="-27.2721926" lon="151.2900625">
  <ele>447.51</ele>
  <time>2026-09-01T19:59:28Z</time>
  <course>10.68</course>
  <speed>0.0316227766016838</speed>
  <fix>3d</fix>
</trkpt>
<trkpt lat="-27.2721923" lon="151.2900622">
  <ele>447.97</ele>
  <time>2026-09-01T19:59:28Z</time>
  <course>72.77</course>
  <speed>0.01</speed>
  <fix>3d</fix>
</trkpt>
<trkpt lat="-27.2721925" lon="151.2900625">
  <ele>447.36</ele>
  <time>2026-09-01T19:59:28Z</time>
  <course>10.68</course>
  <speed>0.0316227766016838</speed>
  <fix>3d</fix>
</trkpt>
<trkpt lat="-27.2721923" lon="151.2900622">
  <ele>447.97</ele>
  <time>2026-09-01T19:59:28Z</time>
  <course>72.77</course>
  <speed>0.01</speed>
  <fix>3d</fix>
</trkpt>
<trkpt lat="-27.2721925" lon="151.2900625">
  <ele>447.21</ele>
  <time>2026-09-01T19:59:28Z</time>
  <course>10.69</course>
  <speed>0.03605551275463989</speed>
  <fix>3d</fix>
</trkpt>
<trkpt lat="-27.2721923" lon="151.2900623">
  <ele>447.66</ele>
  <time>2026-09-01T19:59:28Z</time>
  <course>74.6</course>
  <speed>0.01</speed>
  <fix>3d</fix>
</trkpt>
<trkpt lat="-27.2721925" lon="151.2900625">
  <ele>447.06</ele>
  <time>2026-09-01T19:59:28Z</time>
  <course>10.7</course>
  <speed>0.0282842712474619</speed>
  <fix>3d</fix>
</trkpt>
<trkpt lat="-27.2721923" lon="151.2900623">
  <ele>447.66</ele>
  <time>2026-09-01T19:59:28Z</time>
  <course>74.6</course>
  <speed>0.01</speed>
  <fix>3d</fix>
</trkpt>
<trkpt lat="-27.2721925" lon="151.2900625">
  <ele>446.92</ele>
  <time>2026-09-01T19:59:28Z</time>
  <course>10.72</course>
  <speed>0.0282842712474619</speed>
  <fix>3d</fix>
</trkpt>
<trkpt lat="-27.2721923" lon="151.2900623">
  <ele>447.37</ele>
  <time>2026-09-01T19:59:28Z</time>
  <course>76.71</course>
  <speed>0.01</speed>
  <fix>3d</fix>
</trkpt>
<trkpt lat="-27.2721925" lon="151.2900625">
  <ele>446.77</ele>
  <time>2026-09-01T19:59:28Z</time>
  <course>10.75</course>
  <speed>0.0282842712474619</speed>
  <fix>3d</fix>
</trkpt>
<trkpt lat="-27.2721923" lon="151.2900623">
  <ele>447.37</ele>
  <time>2026-09-01T19:59:28Z</time>
  <course>76.71</course>
  <speed>0.01</speed>
  <fix>3d</fix>
</trkpt>
<trkpt lat="-27.2721925" lon="151.2900625">
  <ele>446.62</ele>
  <time>2026-09-01T19:59:28Z</time>
  <course>10.78</course>
  <speed>0.0282842712474619</speed>
  <fix>3d</fix>
</trkpt>
<trkpt lat="-27.2721923" lon="151.2900623">
  <ele>447.07</ele>
  <time>2026-09-01T19:59:28Z</time>
  <course>78.35</course>
  <speed>0.01</speed>
  <fix>3d</fix>
</trkpt>
<trkpt lat="-27.2721925" lon="151.2900625">
  <ele>446.47</ele>
  <time>2026-09-01T19:59:28Z</time>
  <course>10.82</course>
  <speed>0.0282842712474619</speed>
  <fix>3d</fix>
</trkpt>
<trkpt lat="-27.2721923" lon="151.2900623">
  <ele>447.07</ele>
  <time>2026-09-01T19:59:28Z</time>
  <course>78.35</course>
  <speed>0.01</speed>
  <fix>3d</fix>
</trkpt>
<trkpt lat="-27.2721925" lon="151.2900625">
  <ele>446.32</ele>
  <time>2026-09-01T19:59:28Z</time>
  <course>10.85</course>
  <speed>0.022360679774997897</speed>
  <fix>3d</fix>
</trkpt>
<trkpt lat="-27.2721923" lon="151.2900623">
  <ele>446.77</ele>
  <time>2026-09-01T19:59:28Z</time>
  <course>79.63</course>
  <speed>0.01</speed>
  <fix>3d</fix>
</trkpt>
<trkpt lat="-27.2721925" lon="151.2900625">
  <ele>446.17</ele>
  <time>2026-09-01T19:59:28Z</time>
  <course>10.89</course>
  <speed>0.022360679774997897</speed>
  <fix>3d</fix>
</trkpt>
<trkpt lat="-27.2721923" lon="151.2900623">
  <ele>446.77</ele>
  <time>2026-09-01T19:59:28Z</time>
  <course>79.63</course>
  <speed>0.01</speed>
  <fix>3d</fix>
</trkpt>
<trkpt lat="-27.2721925" lon="151.2900625">
  <ele>446.02</ele>
  <time>2026-09-01T19:59:28Z</time>
  <course>10.94</course>
  <speed>0.022360679774997897</speed>
  <fix>3d</fix>
</trkpt>
<trkpt lat="-27.2721923" lon="151.2900623">
  <ele>446.47</ele>
  <time>2026-09-01T19:59:28Z</time>
  <course>80.9</course>
  <speed>0.01</speed>
  <fix>3d</fix>
</trkpt>
<trkpt lat="-27.2721925" lon="151.2900625">
  <ele>445.87</ele>
  <time>2026-09-01T19:59:28Z</time>
  <course>10.96</course>
  <speed>0.022360679774997897</speed>
  <fix>3d</fix>
</trkpt>
<trkpt lat="-27.2721923" lon="151.2900623">
  <ele>446.47</ele>
  <time>2026-09-01T19:59:28Z</time>
  <course>80.9</course>
  <speed>0.01</speed>
  <fix>3d</fix>
</trkpt>
<trkpt lat="-27.2721925" lon="151.2900625">
  <ele>445.72</ele>
  <time>2026-09-01T19:59:28Z</time>
  <course>10.99</course>
  <speed>0.022360679774997897</speed>
  <fix>3d</fix>
</trkpt>
<trkpt lat="-27.2721923" lon="151.2900623">
  <ele>446.16</ele>
  <time>2026-09-01T19:59:28Z</time>
  <course>83.22</course>
  <speed>0.01</speed>
  <fix>3d</fix>
</trkpt>
<trkpt lat="-27.2721925" lon="151.2900625">
  <ele>445.57</ele>
  <time>2026-09-01T19:59:28Z</time>
  <course>11.01</course>
  <speed>0.022360679774997897</speed>
  <fix>3d</fix>
</trkpt>
<trkpt lat="-27.2721923" lon="151.2900623">
  <ele>446.16</ele>
  <time>2026-09-01T19:59:28Z</time>
  <course>83.22</course>
  <speed>0.01</speed>
  <fix>3d</fix>
</trkpt>
<trkpt lat="-27.2721925" lon="151.2900625">
  <ele>445.42</ele>
  <time>2026-09-01T19:59:28Z</time>
  <course>11.03</course>
  <speed>0.01</speed>
  <fix>3d</fix>
</trkpt>
<trkpt lat="-27.2721923" lon="151.2900623">
  <ele>445.87</ele>
  <time>2026-09-01T19:59:28Z</time>
  <course>82.56</course>
  <speed>0.0</speed>
  <fix>3d</fix>
</trkpt>
<trkpt lat="-27.2721925" lon="151.2900625">
  <ele>445.27</ele>
  <time>2026-09-01T19:59:28Z</time>
  <course>11.05</course>
  <speed>0.01</speed>
  <fix>3d</fix>
</trkpt>
<trkpt lat="-27.2721923" lon="151.2900623">
  <ele>445.87</ele>
  <time>2026-09-01T19:59:28Z</time>
  <course>82.56</course>
  <speed>0.0</speed>
  <fix>3d</fix>
</trkpt>
<trkpt lat="-27.2721925" lon="151.2900625">
  <ele>445.12</ele>
  <time>2026-09-01T19:59:28Z</time>
  <course>11.08</course>
  <speed>0.01</speed>
  <fix>3d</fix>
</trkpt>
<trkpt lat="-27.2721923" lon="151.2900624">
  <ele>445.57</ele>
  <time>2026-09-01T19:59:28Z</time>
  <course>76.89</course>
  <speed>0.0</speed>
  <fix>3d</fix>
</trkpt>
<trkpt lat="-27.2721925" lon="151.2900625">
  <ele>444.97</ele>
  <time>2026-09-01T19:59:28Z</time>
  <course>11.1</course>
  <speed>0.01</speed>
  <fix>3d</fix>
</trkpt>
<trkpt lat="-27.2721923" lon="151.2900624">
  <ele>445.57</ele>
  <time>2026-09-01T19:59:28Z</time>
  <course>76.89</course>
  <speed>0.0</speed>
  <fix>3d</fix>
</trkpt>
<trkpt lat="-27.2721925" lon="151.2900625">
  <ele>444.82</ele>
  <time>2026-09-01T19:59:28Z</time>
  <course>11.1</course>
  <speed>0.01</speed>
  <fix>3d</fix>
</trkpt>
<trkpt lat="-27.2721923" lon="151.2900625">
  <ele>445.27</ele>
  <time>2026-09-01T19:59:28Z</time>
  <course>72.63</course>
  <speed>0.0</speed>
  <fix>3d</fix>
</trkpt>
<trkpt lat="-27.2721925" lon="151.2900625">
  <ele>444.67</ele>
  <time>2026-09-01T19:59:28Z</time>
  <course>11.1</course>
  <speed>0.01</speed>
  <fix>3d</fix>
</trkpt>
<trkpt lat="-27.2721923" lon="151.2900625">
  <ele>445.27</ele>
  <time>2026-09-01T19:59:28Z</time>
  <course>72.63</course>
  <speed>0.0</speed>
  <fix>3d</fix>
</trkpt>
<trkpt lat="-27.2721925" lon="151.2900625">
  <ele>444.52</ele>
  <time>2026-09-01T19:59:28Z</time>
  <course>11.1</course>
  <speed>0.01</speed>
  <fix>3d</fix>
</trkpt>
<trkpt lat="-27.2721922" lon="151.2900625">
  <ele>444.97</ele>
  <time>2026-09-01T19:59:28Z</time>
  <course>71.15</course>
  <speed>0.0</speed>
  <fix>3d</fix>
</trkpt>
<trkpt lat="-27.2721925" lon="151.2900625">
  <ele>444.38</ele>
  <time>2026-09-01T19:59:28Z</time>
  <course>11.13</course>
  <speed>0.01</speed>
  <fix>3d</fix>
</trkpt>
<trkpt lat="-27.2721922" lon="151.2900625">
  <ele>444.97</ele>
  <time>2026-09-01T19:59:29Z</time>
  <course>71.15</course>
  <speed>0.0</speed>
  <fix>3d</fix>
</trkpt>
<trkpt lat="-27.2721925" lon="151.2900625">
  <ele>444.23</ele>
  <time>2026-09-01T19:59:29Z</time>
  <course>11.16</course>
  <speed>0.01</speed>
  <fix>3d</fix>
</trkpt>
<trkpt lat="-27.2721922" lon="151.2900625">
  <ele>444.66</ele>
  <time>2026-09-01T19:59:29Z</time>
  <course>65.82</course>
  <speed>0.0</speed>
  <fix>3d</fix>
</trkpt>
<trkpt lat="-27.2721925" lon="151.2900625">
  <ele>444.08</ele>
  <time>2026-09-01T19:59:29Z</time>
  <course>11.19</course>
  <speed>0.01</speed>
  <fix>3d</fix>
</trkpt>
<trkpt lat="-27.2721922" lon="151.2900625">
  <ele>444.66</ele>
  <time>2026-09-01T19:59:29Z</time>
  <course>65.82</course>
  <speed>0.0</speed>
  <fix>3d</fix>
</trkpt>
<trkpt lat="-27.2721925" lon="151.2900625">
  <ele>443.93</ele>
  <time>2026-09-01T19:59:29Z</time>
  <course>11.23</course>
  <speed>0.01</speed>
  <fix>3d</fix>
</trkpt>
<trkpt lat="-27.2721922" lon="151.2900625">
  <ele>444.37</ele>
  <time>2026-09-01T19:59:29Z</time>
  <course>56.66</course>
  <speed>0.0</speed>
  <fix>3d</fix>
</trkpt>
<trkpt lat="-27.2721925" lon="151.2900625">
  <ele>443.78</ele>
  <time>2026-09-01T19:59:29Z</time>
  <course>11.28</course>
  <speed>0.01414213562373095</speed>
  <fix>3d</fix>
</trkpt>
<trkpt lat="-27.2721922" lon="151.2900625">
  <ele>444.37</ele>
  <time>2026-09-01T19:59:29Z</time>
  <course>56.66</course>
  <speed>0.0</speed>
  <fix>3d</fix>
</trkpt>
<trkpt lat="-27.2721925" lon="151.2900625">
  <ele>443.63</ele>
  <time>2026-09-01T19:59:29Z</time>
  <course>11.33</course>
  <speed>0.01414213562373095</speed>
  <fix>3d</fix>
</trkpt>
<trkpt lat="-27.2721922" lon="151.2900625">
  <ele>444.07</ele>
  <time>2026-09-01T19:59:29Z</time>
  <course>43.46</course>
  <speed>0.0</speed>
  <fix>3d</fix>
</trkpt>
<trkpt lat="-27.2721924" lon="151.2900625">
  <ele>443.48</ele>
  <time>2026-09-01T19:59:29Z</time>
  <course>11.4</course>
  <speed>0.01414213562373095</speed>
  <fix>3d</fix>
</trkpt>
<trkpt lat="-27.2721922" lon="151.2900625">
  <ele>444.07</ele>
  <time>2026-09-01T19:59:29Z</time>
  <course>43.46</course>
  <speed>0.0</speed>
  <fix>3d</fix>
</trkpt>
<trkpt lat="-27.2721924" lon="151.2900625">
  <ele>443.33</ele>
  <time>2026-09-01T19:59:29Z</time>
  <course>11.46</course>
  <speed>0.01414213562373095</speed>
  <fix>3d</fix>
</trkpt>
<trkpt lat="-27.2721922" lon="151.2900625">
  <ele>443.77</ele>
  <time>2026-09-01T19:59:29Z</time>
  <course>20.05</course>
  <speed>0.0</speed>
  <fix>3d</fix>
</trkpt>
<trkpt lat="-27.2721924" lon="151.2900625">
  <ele>443.18</ele>
  <time>2026-09-01T19:59:29Z</time>
  <course>11.51</course>
  <speed>0.022360679774997897</speed>
  <fix>3d</fix>
</trkpt>
<trkpt lat="-27.2721922" lon="151.2900625">
  <ele>443.77</ele>
  <time>2026-09-01T19:59:29Z</time>
  <course>20.05</course>
  <speed>0.0</speed>
  <fix>3d</fix>
</trkpt>
<trkpt lat="-27.2721924" lon="151.2900625">
  <ele>443.03</ele>
  <time>2026-09-01T19:59:29Z</time>
  <course>11.57</course>
  <speed>0.022360679774997897</speed>
  <fix>3d</fix>
</trkpt>
<trkpt lat="-27.2721922" lon="151.2900625">
  <ele>443.47</ele>
  <time>2026-09-01T19:59:29Z</time>
  <course>348.85</course>
  <speed>0.0</speed>
  <fix>3d</fix>
</trkpt>
<trkpt lat="-27.2721924" lon="151.2900625">
  <ele>442.88</ele>
  <time>2026-09-01T19:59:29Z</time>
  <course>11.61</course>
  <speed>0.022360679774997897</speed>
  <fix>3d</fix>
</trkpt>
<trkpt lat="-27.2721922" lon="151.2900625">
  <ele>443.47</ele>
  <time>2026-09-01T19:59:29Z</time>
  <course>348.85</course>
  <speed>0.0</speed>
  <fix>3d</fix>
</trkpt>
<trkpt lat="-27.2721924" lon="151.2900624">
  <ele>442.73</ele>
  <time>2026-09-01T19:59:29Z</time>
  <course>11.64</course>
  <speed>0.022360679774997897</speed>
  <fix>3d</fix>
</trkpt>
<trkpt lat="-27.2721922" lon="151.2900625">
  <ele>443.16</ele>
  <time>2026-09-01T19:59:29Z</time>
  <course>316.8</course>
  <speed>0.0</speed>
  <fix>3d</fix>
</trkpt>
<trkpt lat="-27.2721924" lon="151.2900624">
  <ele>442.58</ele>
  <time>2026-09-01T19:59:29Z</time>
  <course>11.66</course>
  <speed>0.022360679774997897</speed>
  <fix>3d</fix>
</trkpt>
<trkpt lat="-27.2721922" lon="151.2900625">
  <ele>443.16</ele>
  <time>2026-09-01T19:59:29Z</time>
  <course>316.8</course>
  <speed>0.0</speed>
  <fix>3d</fix>
</trkpt>
<trkpt lat="-27.2721924" lon="151.2900624">
  <ele>442.42</ele>
  <time>2026-09-01T19:59:29Z</time>
  <course>11.68</course>
  <speed>0.022360679774997897</speed>
  <fix>3d</fix>
</trkpt>
<trkpt lat="-27.2721922" lon="151.2900625">
  <ele>442.86</ele>
  <time>2026-09-01T19:59:29Z</time>
  <course>301.02</course>
  <speed>0.0</speed>
  <fix>3d</fix>
</trkpt>
<trkpt lat="-27.2721924" lon="151.2900624">
  <ele>442.27</ele>
  <time>2026-09-01T19:59:29Z</time>
  <course>11.69</course>
  <speed>0.022360679774997897</speed>
  <fix>3d</fix>
</trkpt>
<trkpt lat="-27.2721922" lon="151.2900625">
  <ele>442.86</ele>
  <time>2026-09-01T19:59:29Z</time>
  <course>301.02</course>
  <speed>0.0</speed>
  <fix>3d</fix>
</trkpt>
<trkpt lat="-27.2721924" lon="151.2900624">
  <ele>442.12</ele>
  <time>2026-09-01T19:59:29Z</time>
  <course>11.7</course>
  <speed>0.022360679774997897</speed>
  <fix>3d</fix>
</trkpt>
<trkpt lat="-27.2721922" lon="151.2900625">
  <ele>442.56</ele>
  <time>2026-09-01T19:59:29Z</time>
  <course>288.28</course>
  <speed>0.0</speed>
  <fix>3d</fix>
</trkpt>
<trkpt lat="-27.2721924" lon="151.2900624">
  <ele>441.97</ele>
  <time>2026-09-01T19:59:29Z</time>
  <course>11.72</course>
  <speed>0.022360679774997897</speed>
  <fix>3d</fix>
</trkpt>
<trkpt lat="-27.2721922" lon="151.2900625">
  <ele>442.56</ele>
  <time>2026-09-01T19:59:29Z</time>
  <course>288.28</course>
  <speed>0.0</speed>
  <fix>3d</fix>
</trkpt>
<trkpt lat="-27.2721924" lon="151.2900624">
  <ele>441.81</ele>
  <time>2026-09-01T19:59:29Z</time>
  <course>11.73</course>
  <speed>0.022360679774997897</speed>
  <fix>3d</fix>
</trkpt>
<trkpt lat="-27.2721922" lon="151.2900625">
  <ele>442.25</ele>
  <time>2026-09-01T19:59:29Z</time>
  <course>279.87</course>
  <speed>0.0</speed>
  <fix>3d</fix>
</trkpt>
<trkpt lat="-27.2721924" lon="151.2900624">
  <ele>441.66</ele>
  <time>2026-09-01T19:59:29Z</time>
  <course>11.74</course>
  <speed>0.022360679774997897</speed>
  <fix>3d</fix>
</trkpt>
<trkpt lat="-27.2721922" lon="151.2900625">
  <ele>442.25</ele>
  <time>2026-09-01T19:59:29Z</time>
  <course>279.87</course>
  <speed>0.0</speed>
  <fix>3d</fix>
</trkpt>
<trkpt lat="-27.2721924" lon="151.2900624">
  <ele>441.51</ele>
  <time>2026-09-01T19:59:29Z</time>
  <course>11.76</course>
  <speed>0.022360679774997897</speed>
  <fix>3d</fix>
</trkpt>
<trkpt lat="-27.2721922" lon="151.2900625">
  <ele>441.95</ele>
  <time>2026-09-01T19:59:29Z</time>
  <course>275.62</course>
  <speed>0.0</speed>
  <fix>3d</fix>
</trkpt>
<trkpt lat="-27.2721924" lon="151.2900624">
  <ele>441.36</ele>
  <time>2026-09-01T19:59:29Z</time>
  <course>11.78</course>
  <speed>0.022360679774997897</speed>
  <fix>3d</fix>
</trkpt>
<trkpt lat="-27.2721922" lon="151.2900625">
  <ele>441.95</ele>
  <time>2026-09-01T19:59:29Z</time>
  <course>275.62</course>
  <speed>0.0</speed>
  <fix>3d</fix>
</trkpt>
<trkpt lat="-27.2721924" lon="151.2900624">
  <ele>441.2</ele>
  <time>2026-09-01T19:59:29Z</time>
  <course>11.8</course>
  <speed>0.01414213562373095</speed>
  <fix>3d</fix>
</trkpt>
<trkpt lat="-27.2721922" lon="151.2900625">
  <ele>441.65</ele>
  <time>2026-09-01T19:59:29Z</time>
  <course>272.67</course>
  <speed>0.0</speed>
  <fix>3d</fix>
</trkpt>
<trkpt lat="-27.2721924" lon="151.2900624">
  <ele>441.05</ele>
  <time>2026-09-01T19:59:29Z</time>
  <course>11.82</course>
  <speed>0.01414213562373095</speed>
  <fix>3d</fix>
</trkpt>
<trkpt lat="-27.2721922" lon="151.2900625">
  <ele>441.65</ele>
  <time>2026-09-01T19:59:29Z</time>
  <course>272.67</course>
  <speed>0.0</speed>
  <fix>3d</fix>
</trkpt>
<trkpt lat="-27.2721924" lon="151.2900624">
  <ele>440.9</ele>
  <time>2026-09-01T19:59:29Z</time>
  <course>11.83</course>
  <speed>0.01414213562373095</speed>
  <fix>3d</fix>
</trkpt>
<trkpt lat="-27.2721922" lon="151.2900625">
  <ele>441.35</ele>
  <time>2026-09-01T19:59:29Z</time>
  <course>269.82</course>
  <speed>0.0</speed>
  <fix>3d</fix>
</trkpt>
<trkpt lat="-27.2721924" lon="151.2900624">
  <ele>440.75</ele>
  <time>2026-09-01T19:59:29Z</time>
  <course>11.84</course>
  <speed>0.01414213562373095</speed>
  <fix>3d</fix>
</trkpt>
<trkpt lat="-27.2721922" lon="151.2900625">
  <ele>441.35</ele>
  <time>2026-09-01T19:59:29Z</time>
  <course>269.82</course>
  <speed>0.0</speed>
  <fix>3d</fix>
</trkpt>
<trkpt lat="-27.2721924" lon="151.2900624">
  <ele>440.6</ele>
  <time>2026-09-01T19:59:29Z</time>
  <course>11.85</course>
  <speed>0.01414213562373095</speed>
  <fix>3d</fix>
</trkpt>
<trkpt lat="-27.2721922" lon="151.2900625">
  <ele>441.05</ele>
  <time>2026-09-01T19:59:29Z</time>
  <course>267.74</course>
  <speed>0.0</speed>
  <fix>3d</fix>
</trkpt>
<trkpt lat="-27.2721924" lon="151.2900624">
  <ele>440.45</ele>
  <time>2026-09-01T19:59:29Z</time>
  <course>11.87</course>
  <speed>0.01414213562373095</speed>
  <fix>3d</fix>
</trkpt>
<trkpt lat="-27.2721922" lon="151.2900625">
  <ele>441.05</ele>
  <time>2026-09-01T19:59:29Z</time>
  <course>267.74</course>
  <speed>0.0</speed>
  <fix>3d</fix>
</trkpt>
<trkpt lat="-27.2721924" lon="151.2900623">
  <ele>440.31</ele>
  <time>2026-09-01T19:59:29Z</time>
  <course>11.89</course>
  <speed>0.01414213562373095</speed>
  <fix>3d</fix>
</trkpt>
<trkpt lat="-27.2721922" lon="151.2900625">
  <ele>440.75</ele>
  <time>2026-09-01T19:59:29Z</time>
  <course>267.11</course>
  <speed>0.01</speed>
  <fix>3d</fix>
</trkpt>
<trkpt lat="-27.2721924" lon="151.2900623">
  <ele>440.16</ele>
  <time>2026-09-01T19:59:29Z</time>
  <course>11.91</course>
  <speed>0.01414213562373095</speed>
  <fix>3d</fix>
</trkpt>
<trkpt lat="-27.2721922" lon="151.2900625">
  <ele>440.75</ele>
  <time>2026-09-01T19:59:29Z</time>
  <course>267.11</course>
  <speed>0.01</speed>
  <fix>3d</fix>
</trkpt>
<trkpt lat="-27.2721924" lon="151.2900623">
  <ele>440.01</ele>
  <time>2026-09-01T19:59:29Z</time>
  <course>11.93</course>
  <speed>0.01414213562373095</speed>
  <fix>3d</fix>
</trkpt>
<trkpt lat="-27.2721922" lon="151.2900625">
  <ele>440.45</ele>
  <time>2026-09-01T19:59:29Z</time>
  <course>265.84</course>
  <speed>0.01</speed>
  <fix>3d</fix>
</trkpt>
<trkpt lat="-27.2721924" lon="151.2900623">
  <ele>439.86</ele>
  <time>2026-09-01T19:59:29Z</time>
  <course>11.96</course>
  <speed>0.01414213562373095</speed>
  <fix>3d</fix>
</trkpt>
<trkpt lat="-27.2721922" lon="151.2900625">
  <ele>440.45</ele>
  <time>2026-09-01T19:59:29Z</time>
  <course>265.84</course>
  <speed>0.01</speed>
  <fix>3d</fix>
</trkpt>
<trkpt lat="-27.2721924" lon="151.2900623">
  <ele>439.71</ele>
  <time>2026-09-01T19:59:29Z</time>
  <course>11.99</course>
  <speed>0.01414213562373095</speed>
  <fix>3d</fix>
</trkpt>
<trkpt lat="-27.2721922" lon="151.2900624">
  <ele>440.16</ele>
  <time>2026-09-01T19:59:29Z</time>
  <course>265.4</course>
  <speed>0.01</speed>
  <fix>3d</fix>
</trkpt>
<trkpt lat="-27.2721924" lon="151.2900623">
  <ele>439.55</ele>
  <time>2026-09-01T19:59:29Z</time>
  <course>12.01</course>
  <speed>0.01414213562373095</speed>
  <fix>3d</fix>
</trkpt>
<trkpt lat="-27.2721922" lon="151.2900624">
  <ele>440.16</ele>
  <time>2026-09-01T19:59:29Z</time>
  <course>265.4</course>
  <speed>0.01</speed>
  <fix>3d</fix>
</trkpt>
<trkpt lat="-27.2721924" lon="151.2900623">
  <ele>439.4</ele>
  <time>2026-09-01T19:59:29Z</time>
  <course>12.02</course>
  <speed>0.022360679774997897</speed>
  <fix>3d</fix>
</trkpt>
<trkpt lat="-27.2721922" lon="151.2900623">
  <ele>439.86</ele>
  <time>2026-09-01T19:59:29Z</time>
  <course>267.03</course>
  <speed>0.01</speed>
  <fix>3d</fix>
</trkpt>
<trkpt lat="-27.2721924" lon="151.2900623">
  <ele>439.26</ele>
  <time>2026-09-01T19:59:29Z</time>
  <course>12.04</course>
  <speed>0.01414213562373095</speed>
  <fix>3d</fix>
</trkpt>
<trkpt lat="-27.2721922" lon="151.2900623">
  <ele>439.86</ele>
  <time>2026-09-01T19:59:29Z</time>
  <course>267.03</course>
  <speed>0.01</speed>
  <fix>3d</fix>
</trkpt>
<trkpt lat="-27.2721924" lon="151.2900623">
  <ele>439.11</ele>
  <time>2026-09-01T19:59:29Z</time>
  <course>12.05</course>
  <speed>0.022360679774997897</speed>
  <fix>3d</fix>
</trkpt>
<trkpt lat="-27.2721922" lon="151.2900623">
  <ele>439.56</ele>
  <time>2026-09-01T19:59:29Z</time>
  <course>269.98</course>
  <speed>0.01</speed>
  <fix>3d</fix>
</trkpt>
<trkpt lat="-27.2721924" lon="151.2900623">
  <ele>438.96</ele>
  <time>2026-09-01T19:59:29Z</time>
  <course>12.05</course>
  <speed>0.01414213562373095</speed>
  <fix>3d</fix>
</trkpt>
<trkpt lat="-27.2721922" lon="151.2900623">
  <ele>439.56</ele>
  <time>2026-09-01T19:59:29Z</time>
  <course>269.98</course>
  <speed>0.01</speed>
  <fix>3d</fix>
</trkpt>
<trkpt lat="-27.2721924" lon="151.2900622">
  <ele>438.81</ele>
  <time>2026-09-01T19:59:29Z</time>
  <course>12.06</course>
  <speed>0.01414213562373095</speed>
  <fix>3d</fix>
</trkpt>
<trkpt lat="-27.2721922" lon="151.2900623">
  <ele>439.26</ele>
  <time>2026-09-01T19:59:29Z</time>
  <course>272.29</course>
  <speed>0.01</speed>
  <fix>3d</fix>
</trkpt>
<trkpt lat="-27.2721924" lon="151.2900622">
  <ele>438.66</ele>
  <time>2026-09-01T19:59:29Z</time>
  <course>12.08</course>
  <speed>0.01</speed>
  <fix>3d</fix>
</trkpt>
<trkpt lat="-27.2721922" lon="151.2900623">
  <ele>439.26</ele>
  <time>2026-09-01T19:59:29Z</time>
  <course>272.29</course>
  <speed>0.01</speed>
  <fix>3d</fix>
</trkpt>
<trkpt lat="-27.2721924" lon="151.2900622">
  <ele>438.51</ele>
  <time>2026-09-01T19:59:29Z</time>
  <course>12.08</course>
  <speed>0.01</speed>
  <fix>3d</fix>
</trkpt>
<trkpt lat="-27.2721922" lon="151.2900623">
  <ele>438.97</ele>
  <time>2026-09-01T19:59:29Z</time>
  <course>273.7</course>
  <speed>0.01</speed>
  <fix>3d</fix>
</trkpt>
<trkpt lat="-27.2721924" lon="151.2900622">
  <ele>438.37</ele>
  <time>2026-09-01T19:59:29Z</time>
  <course>12.08</course>
  <speed>0.02</speed>
  <fix>3d</fix>
</trkpt>
<trkpt lat="-27.2721922" lon="151.2900623">
  <ele>438.97</ele>
  <time>2026-09-01T19:59:29Z</time>
  <course>273.7</course>
  <speed>0.01</speed>
  <fix>3d</fix>
</trkpt>
<trkpt lat="-27.2721924" lon="151.2900622">
  <ele>438.21</ele>
  <time>2026-09-01T19:59:29Z</time>
  <course>12.08</course>
  <speed>0.01414213562373095</speed>
  <fix>3d</fix>
</trkpt>
<trkpt lat="-27.2721922" lon="151.2900623">
  <ele>438.66</ele>
  <time>2026-09-01T19:59:29Z</time>
  <course>275.18</course>
  <speed>0.01</speed>
  <fix>3d</fix>
</trkpt>
<trkpt lat="-27.2721924" lon="151.2900622">
  <ele>438.06</ele>
  <time>2026-09-01T19:59:29Z</time>
  <course>12.09</course>
  <speed>0.01414213562373095</speed>
  <fix>3d</fix>
</trkpt>
<trkpt lat="-27.2721922" lon="151.2900623">
  <ele>438.66</ele>
  <time>2026-09-01T19:59:29Z</time>
  <course>275.18</course>
  <speed>0.01</speed>
  <fix>3d</fix>
</trkpt>
<trkpt lat="-27.2721924" lon="151.2900622">
  <ele>437.91</ele>
  <time>2026-09-01T19:59:29Z</time>
  <course>12.1</course>
  <speed>0.01414213562373095</speed>
  <fix>3d</fix>
</trkpt>
<trkpt lat="-27.2721922" lon="151.2900622">
  <ele>438.37</ele>
  <time>2026-09-01T19:59:29Z</time>
  <course>276.88</course>
  <speed>0.01</speed>
  <fix>3d</fix>
</trkpt>
<trkpt lat="-27.2721924" lon="151.2900622">
  <ele>437.76</ele>
  <time>2026-09-01T19:59:29Z</time>
  <course>12.13</course>
  <speed>0.01414213562373095</speed>
  <fix>3d</fix>
</trkpt>
<trkpt lat="-27.2721922" lon="151.2900622">
  <ele>438.37</ele>
  <time>2026-09-01T19:59:29Z</time>
  <course>276.88</course>
  <speed>0.01</speed>
  <fix>3d</fix>
</trkpt>
<trkpt lat="-27.2721924" lon="151.2900622">
  <ele>437.62</ele>
  <time>2026-09-01T19:59:29Z</time>
  <course>12.16</course>
  <speed>0.01414213562373095</speed>
  <fix>3d</fix>
</trkpt>
<trkpt lat="-27.2721922" lon="151.2900622">
  <ele>438.07</ele>
  <time>2026-09-01T19:59:29Z</time>
  <course>278.46</course>
  <speed>0.02</speed>
  <fix>3d</fix>
</trkpt>
<trkpt lat="-27.2721924" lon="151.2900622">
  <ele>437.47</ele>
  <time>2026-09-01T19:59:29Z</time>
  <course>12.21</course>
  <speed>0.01414213562373095</speed>
  <fix>3d</fix>
</trkpt>
<trkpt lat="-27.2721922" lon="151.2900622">
  <ele>438.07</ele>
  <time>2026-09-01T19:59:29Z</time>
  <course>278.46</course>
  <speed>0.02</speed>
  <fix>3d</fix>
</trkpt>
<trkpt lat="-27.2721924" lon="151.2900622">
  <ele>437.32</ele>
  <time>2026-09-01T19:59:29Z</time>
  <course>12.26</course>
  <speed>0.01414213562373095</speed>
  <fix>3d</fix>
</trkpt>
<trkpt lat="-27.2721922" lon="151.2900622">
  <ele>437.78</ele>
  <time>2026-09-01T19:59:29Z</time>
  <course>280.03</course>
  <speed>0.02</speed>
  <fix>3d</fix>
</trkpt>
<trkpt lat="-27.2721924" lon="151.2900621">
  <ele>437.17</ele>
  <time>2026-09-01T19:59:29Z</time>
  <course>12.31</course>
  <speed>0.01414213562373095</speed>
  <fix>3d</fix>
</trkpt>
<trkpt lat="-27.2721922" lon="151.2900622">
  <ele>437.78</ele>
  <time>2026-09-01T19:59:29Z</time>
  <course>280.03</course>
  <speed>0.02</speed>
  <fix>3d</fix>
</trkpt>
<trkpt lat="-27.2721924" lon="151.2900621">
  <ele>437.02</ele>
  <time>2026-09-01T19:59:29Z</time>
  <course>12.36</course>
  <speed>0.01414213562373095</speed>
  <fix>3d</fix>
</trkpt>
<trkpt lat="-27.2721922" lon="151.2900621">
  <ele>437.47</ele>
  <time>2026-09-01T19:59:29Z</time>
  <course>282.0</course>
  <speed>0.02</speed>
  <fix>3d</fix>
</trkpt>
<trkpt lat="-27.2721924" lon="151.2900621">
  <ele>436.88</ele>
  <time>2026-09-01T19:59:29Z</time>
  <course>12.38</course>
  <speed>0.01414213562373095</speed>
  <fix>3d</fix>
</trkpt>
<trkpt lat="-27.2721922" lon="151.2900621">
  <ele>437.47</ele>
  <time>2026-09-01T19:59:29Z</time>
  <course>282.0</course>
  <speed>0.02</speed>
  <fix>3d</fix>
</trkpt>
<trkpt lat="-27.2721924" lon="151.2900621">
  <ele>436.73</ele>
  <time>2026-09-01T19:59:29Z</time>
  <course>12.41</course>
  <speed>0.01414213562373095</speed>
  <fix>3d</fix>
</trkpt>
<trkpt lat="-27.2721922" lon="151.2900621">
  <ele>437.18</ele>
  <time>2026-09-01T19:59:29Z</time>
  <course>284.53</course>
  <speed>0.02</speed>
  <fix>3d</fix>
</trkpt>
<trkpt lat="-27.2721924" lon="151.2900621">
  <ele>436.58</ele>
  <time>2026-09-01T19:59:29Z</time>
  <course>12.42</course>
  <speed>0.01414213562373095</speed>
  <fix>3d</fix>
</trkpt>
<trkpt lat="-27.2721922" lon="151.2900621">
  <ele>437.18</ele>
  <time>2026-09-01T19:59:29Z</time>
  <course>284.53</course>
  <speed>0.02</speed>
  <fix>3d</fix>
</trkpt>
<trkpt lat="-27.2721924" lon="151.290062">
  <ele>436.43</ele>
  <time>2026-09-01T19:59:29Z</time>
  <course>12.44</course>
  <speed>0.01414213562373095</speed>
  <fix>3d</fix>
</trkpt>
<trkpt lat="-27.2721922" lon="151.290062">
  <ele>436.88</ele>
  <time>2026-09-01T19:59:29Z</time>
  <course>287.21</course>
  <speed>0.02</speed>
  <fix>3d</fix>
</trkpt>
<trkpt lat="-27.2721924" lon="151.290062">
  <ele>436.28</ele>
  <time>2026-09-01T19:59:29Z</time>
  <course>12.45</course>
  <speed>0.01414213562373095</speed>
  <fix>3d</fix>
</trkpt>
<trkpt lat="-27.2721922" lon="151.290062">
  <ele>436.88</ele>
  <time>2026-09-01T19:59:29Z</time>
  <course>287.21</course>
  <speed>0.02</speed>
  <fix>3d</fix>
</trkpt>
<trkpt lat="-27.2721924" lon="151.290062">
  <ele>436.13</ele>
  <time>2026-09-01T19:59:29Z</time>
  <course>12.47</course>
  <speed>0.01414213562373095</speed>
  <fix>3d</fix>
</trkpt>
<trkpt lat="-27.2721921" lon="151.290062">
  <ele>436.58</ele>
  <time>2026-09-01T19:59:29Z</time>
  <course>289.18</course>
  <speed>0.02</speed>
  <fix>3d</fix>
</trkpt>
<trkpt lat="-27.2721924" lon="151.290062">
  <ele>435.98</ele>
  <time>2026-09-01T19:59:29Z</time>
  <course>12.5</course>
  <speed>0.01414213562373095</speed>
  <fix>3d</fix>
</trkpt>
<trkpt lat="-27.2721921" lon="151.290062">
  <ele>436.58</ele>
  <time>2026-09-01T19:59:29Z</time>
  <course>289.18</course>
  <speed>0.02</speed>
  <fix>3d</fix>
</trkpt>
<trkpt lat="-27.2721923" lon="151.290062">
  <ele>435.83</ele>
  <time>2026-09-01T19:59:29Z</time>
  <course>12.53</course>
  <speed>0.01414213562373095</speed>
  <fix>3d</fix>
</trkpt>
<trkpt lat="-27.2721921" lon="151.2900619">
  <ele>436.27</ele>
  <time>2026-09-01T19:59:29Z</time>
  <course>290.36</course>
  <speed>0.02</speed>
  <fix>3d</fix>
</trkpt>
<trkpt lat="-27.2721923" lon="151.2900619">
  <ele>435.68</ele>
  <time>2026-09-01T19:59:29Z</time>
  <course>12.56</course>
  <speed>0.01414213562373095</speed>
  <fix>3d</fix>
</trkpt>
<trkpt lat="-27.2721921" lon="151.2900619">
  <ele>436.27</ele>
  <time>2026-09-01T19:59:29Z</time>
  <course>290.36</course>
  <speed>0.02</speed>
  <fix>3d</fix>
</trkpt>
<trkpt lat="-27.2721923" lon="151.2900619">
  <ele>435.53</ele>
  <time>2026-09-01T19:59:29Z</time>
  <course>12.59</course>
  <speed>0.01414213562373095</speed>
  <fix>3d</fix>
</trkpt>
<trkpt lat="-27.2721921" lon="151.2900618">
  <ele>435.97</ele>
  <time>2026-09-01T19:59:29Z</time>
  <course>290.89</course>
  <speed>0.03</speed>
  <fix>3d</fix>
</trkpt>
<trkpt lat="-27.2721923" lon="151.2900619">
  <ele>435.38</ele>
  <time>2026-09-01T19:59:29Z</time>
  <course>12.63</course>
  <speed>0.01</speed>
  <fix>3d</fix>
</trkpt>
<trkpt lat="-27.2721921" lon="151.2900618">
  <ele>435.97</ele>
  <time>2026-09-01T19:59:29Z</time>
  <course>290.89</course>
  <speed>0.03</speed>
  <fix>3d</fix>
</trkpt>
<trkpt lat="-27.2721923" lon="151.2900619">
  <ele>435.23</ele>
  <time>2026-09-01T19:59:29Z</time>
  <course>12.66</course>
  <speed>0.01</speed>
  <fix>3d</fix>
</trkpt>
<trkpt lat="-27.2721921" lon="151.2900618">
  <ele>435.66</ele>
  <time>2026-09-01T19:59:29Z</time>
  <course>291.45</course>
  <speed>0.03</speed>
  <fix>3d</fix>
</trkpt>
<trkpt lat="-27.2721923" lon="151.2900618">
  <ele>435.08</ele>
  <time>2026-09-01T19:59:29Z</time>
  <course>12.71</course>
  <speed>0.01</speed>
  <fix>3d</fix>
</trkpt>
<trkpt lat="-27.2721921" lon="151.2900618">
  <ele>435.66</ele>
  <time>2026-09-01T19:59:29Z</time>
  <course>291.45</course>
  <speed>0.03</speed>
  <fix>3d</fix>
</trkpt>
<trkpt lat="-27.2721923" lon="151.2900618">
  <ele>434.93</ele>
  <time>2026-09-01T19:59:29Z</time>
  <course>12.75</course>
  <speed>0.01</speed>
  <fix>3d</fix>
</trkpt>
<trkpt lat="-27.2721921" lon="151.2900617">
  <ele>435.36</ele>
  <time>2026-09-01T19:59:29Z</time>
  <course>291.87</course>
  <speed>0.03</speed>
  <fix>3d</fix>
</trkpt>
<trkpt lat="-27.2721923" lon="151.2900618">
  <ele>434.78</ele>
  <time>2026-09-01T19:59:29Z</time>
  <course>12.8</course>
  <speed>0.01</speed>
  <fix>3d</fix>
</trkpt>
<trkpt lat="-27.2721921" lon="151.2900617">
  <ele>435.36</ele>
  <time>2026-09-01T19:59:29Z</time>
  <course>291.87</course>
  <speed>0.03</speed>
  <fix>3d</fix>
</trkpt>
<trkpt lat="-27.2721923" lon="151.2900617">
  <ele>434.62</ele>
  <time>2026-09-01T19:59:29Z</time>
  <course>12.84</course>
  <speed>0.02</speed>
  <fix>3d</fix>
</trkpt>
<trkpt lat="-27.272192" lon="151.2900616">
  <ele>435.06</ele>
  <time>2026-09-01T19:59:29Z</time>
  <course>292.25</course>
  <speed>0.03</speed>
  <fix>3d</fix>
</trkpt>
<trkpt lat="-27.2721922" lon="151.2900617">
  <ele>434.47</ele>
  <time>2026-09-01T19:59:29Z</time>
  <course>12.88</course>
  <speed>0.02</speed>
  <fix>3d</fix>
</trkpt>
<trkpt lat="-27.272192" lon="151.2900616">
  <ele>435.06</ele>
  <time>2026-09-01T19:59:29Z</time>
  <course>292.25</course>
  <speed>0.03</speed>
  <fix>3d</fix>
</trkpt>
<trkpt lat="-27.2721922" lon="151.2900617">
  <ele>434.32</ele>
  <time>2026-09-01T19:59:29Z</time>
  <course>12.93</course>
  <speed>0.02</speed>
  <fix>3d</fix>
</trkpt>
<trkpt lat="-27.272192" lon="151.2900616">
  <ele>434.76</ele>
  <time>2026-09-01T19:59:29Z</time>
  <course>292.55</course>
  <speed>0.03</speed>
  <fix>3d</fix>
</trkpt>
<trkpt lat="-27.2721922" lon="151.2900616">
  <ele>434.16</ele>
  <time>2026-09-01T19:59:29Z</time>
  <course>12.97</course>
  <speed>0.02</speed>
  <fix>3d</fix>
</trkpt>
<trkpt lat="-27.272192" lon="151.2900616">
  <ele>434.76</ele>
  <time>2026-09-01T19:59:29Z</time>
  <course>292.55</course>
  <speed>0.03</speed>
  <fix>3d</fix>
</trkpt>
<trkpt lat="-27.2721922" lon="151.2900616">
  <ele>434.01</ele>
  <time>2026-09-01T19:59:29Z</time>
  <course>13.03</course>
  <speed>0.02</speed>
  <fix>3d</fix>
</trkpt>
<trkpt lat="-27.272192" lon="151.2900615">
  <ele>434.46</ele>
  <time>2026-09-01T19:59:29Z</time>
  <course>292.37</course>
  <speed>0.04</speed>
  <fix>3d</fix>
</trkpt>
<trkpt lat="-27.2721922" lon="151.2900616">
  <ele>433.86</ele>
  <time>2026-09-01T19:59:29Z</time>
  <course>13.1</course>
  <speed>0.02</speed>
  <fix>3d</fix>
</trkpt>
<trkpt lat="-27.272192" lon="151.2900615">
  <ele>434.46</ele>
  <time>2026-09-01T19:59:29Z</time>
  <course>292.37</course>
  <speed>0.04</speed>
  <fix>3d</fix>
</trkpt>
<trkpt lat="-27.2721922" lon="151.2900615">
  <ele>433.7</ele>
  <time>2026-09-01T19:59:29Z</time>
  <course>13.15</course>
  <speed>0.02</speed>
  <fix>3d</fix>
</trkpt>
<trkpt lat="-27.2721919" lon="151.2900614">
  <ele>434.15</ele>
  <time>2026-09-01T19:59:29Z</time>
  <course>292.54</course>
  <speed>0.04</speed>
  <fix>3d</fix>
</trkpt>
<trkpt lat="-27.2721922" lon="151.2900615">
  <ele>433.55</ele>
  <time>2026-09-01T19:59:29Z</time>
  <course>13.2</course>
  <speed>0.02</speed>
  <fix>3d</fix>
</trkpt>
<trkpt lat="-27.2721919" lon="151.2900614">
  <ele>434.15</ele>
  <time>2026-09-01T19:59:29Z</time>
  <course>292.54</course>
  <speed>0.04</speed>
  <fix>3d</fix>
</trkpt>
<trkpt lat="-27.2721921" lon="151.2900614">
  <ele>433.4</ele>
  <time>2026-09-01T19:59:29Z</time>
  <course>13.25</course>
  <speed>0.02</speed>
  <fix>3d</fix>
</trkpt>
<trkpt lat="-27.2721919" lon="151.2900613">
  <ele>433.85</ele>
  <time>2026-09-01T19:59:29Z</time>
  <course>292.86</course>
  <speed>0.04</speed>
  <fix>3d</fix>
</trkpt>
<trkpt lat="-27.2721921" lon="151.2900614">
  <ele>433.25</ele>
  <time>2026-09-01T19:59:29Z</time>
  <course>13.3</course>
  <speed>0.02</speed>
  <fix>3d</fix>
</trkpt>
<trkpt lat="-27.2721919" lon="151.2900613">
  <ele>433.85</ele>
  <time>2026-09-01T19:59:29Z</time>
  <course>292.86</course>
  <speed>0.04</speed>
  <fix>3d</fix>
</trkpt>
<trkpt lat="-27.2721921" lon="151.2900614">
  <ele>433.1</ele>
  <time>2026-09-01T19:59:29Z</time>
  <course>13.35</course>
  <speed>0.02</speed>
  <fix>3d</fix>
</trkpt>
<trkpt lat="-27.2721919" lon="151.2900612">
  <ele>433.55</ele>
  <time>2026-09-01T19:59:29Z</time>
  <course>292.71</course>
  <speed>0.04</speed>
  <fix>3d</fix>
</trkpt>
<trkpt lat="-27.2721921" lon="151.2900613">
  <ele>432.95</ele>
  <time>2026-09-01T19:59:29Z</time>
  <course>13.4</course>
  <speed>0.02</speed>
  <fix>3d</fix>
</trkpt>
<trkpt lat="-27.2721919" lon="151.2900612">
  <ele>433.55</ele>
  <time>2026-09-01T19:59:29Z</time>
  <course>292.71</course>
  <speed>0.04</speed>
  <fix>3d</fix>
</trkpt>
<trkpt lat="-27.2721921" lon="151.2900613">
  <ele>432.8</ele>
  <time>2026-09-01T19:59:29Z</time>
  <course>13.47</course>
  <speed>0.02</speed>
  <fix>3d</fix>
</trkpt>
<trkpt lat="-27.2721919" lon="151.2900612">
  <ele>433.25</ele>
  <time>2026-09-01T19:59:29Z</time>
  <course>292.52</course>
  <speed>0.04</speed>
  <fix>3d</fix>
</trkpt>
<trkpt lat="-27.2721921" lon="151.2900612">
  <ele>432.66</ele>
  <time>2026-09-01T19:59:29Z</time>
  <course>13.52</course>
  <speed>0.02</speed>
  <fix>3d</fix>
</trkpt>
<trkpt lat="-27.2721919" lon="151.2900612">
  <ele>433.25</ele>
  <time>2026-09-01T19:59:29Z</time>
  <course>292.52</course>
  <speed>0.04</speed>
  <fix>3d</fix>
</trkpt>
<trkpt lat="-27.272192" lon="151.2900612">
  <ele>432.51</ele>
  <time>2026-09-01T19:59:29Z</time>
  <course>13.4</course>
  <speed>0.0</speed>
  <fix>3d</fix>
</trkpt>
<trkpt lat="-27.2721918" lon="151.2900611">
  <ele>432.96</ele>
  <time>2026-09-01T19:59:29Z</time>
  <course>292.93</course>
  <speed>0.04</speed>
  <fix>3d</fix>
</trkpt>
<trkpt lat="-27.272192" lon="151.2900612">
  <ele>432.36</ele>
  <time>2026-09-01T19:59:29Z</time>
  <course>13.11</course>
  <speed>0.01</speed>
  <fix>3d</fix>
</trkpt>
<trkpt lat="-27.2721918" lon="151.2900611">
  <ele>432.96</ele>
  <time>2026-09-01T19:59:29Z</time>
  <course>292.93</course>
  <speed>0.04</speed>
  <fix>3d</fix>
</trkpt>
<trkpt lat="-27.272192" lon="151.2900612">
  <ele>432.21</ele>
  <time>2026-09-01T19:59:29Z</time>
  <course>12.71</course>
  <speed>0.022360679774997897</speed>
  <fix>3d</fix>
</trkpt>
<trkpt lat="-27.2721918" lon="151.290061">
  <ele>432.66</ele>
  <time>2026-09-01T19:59:29Z</time>
  <course>298.23</course>
  <speed>0.03</speed>
  <fix>3d</fix>
</trkpt>
<trkpt lat="-27.272192" lon="151.2900612">
  <ele>432.06</ele>
  <time>2026-09-01T19:59:29Z</time>
  <course>12.29</course>
  <speed>0.03605551275463989</speed>
  <fix>3d</fix>
</trkpt>
<trkpt lat="-27.2721918" lon="151.290061">
  <ele>432.66</ele>
  <time>2026-09-01T19:59:29Z</time>
  <course>298.23</course>
  <speed>0.03</speed>
  <fix>3d</fix>
</trkpt>
<trkpt lat="-27.272192" lon="151.2900612">
  <ele>431.91</ele>
  <time>2026-09-01T19:59:29Z</time>
  <course>11.9</course>
  <speed>0.044721359549995794</speed>
  <fix>3d</fix>
</trkpt>
<trkpt lat="-27.2721918" lon="151.2900609">
  <ele>432.36</ele>
  <time>2026-09-01T19:59:29Z</time>
  <course>4.48</course>
  <speed>0.0</speed>
  <fix>3d</fix>
</trkpt>
<trkpt lat="-27.272192" lon="151.2900612">
  <ele>431.76</ele>
  <time>2026-09-01T19:59:29Z</time>
  <course>11.59</course>
  <speed>0.0632455532033676</speed>
  <fix>3d</fix>
</trkpt>
<trkpt lat="-27.2721918" lon="151.2900609">
  <ele>432.36</ele>
  <time>2026-09-01T19:59:29Z</time>
  <course>4.48</course>
  <speed>0.0</speed>
  <fix>3d</fix>
</trkpt>
<trkpt lat="-27.272192" lon="151.2900612">
  <ele>431.61</ele>
  <time>2026-09-01T19:59:29Z</time>
  <course>11.39</course>
  <speed>0.07615773105863909</speed>
  <fix>3d</fix>
</trkpt>
<trkpt lat="-27.2721918" lon="151.2900609">
  <ele>432.07</ele>
  <time>2026-09-01T19:59:29Z</time>
  <course>87.7</course>
  <speed>0.02</speed>
  <fix>3d</fix>
</trkpt>
<trkpt lat="-27.272192" lon="151.2900612">
  <ele>431.46</ele>
  <time>2026-09-01T19:59:29Z</time>
  <course>11.3</course>
  <speed>0.0854400374531753</speed>
  <fix>3d</fix>
</trkpt>
<trkpt lat="-27.2721918" lon="151.2900609">
  <ele>432.07</ele>
  <time>2026-09-01T19:59:29Z</time>
  <course>87.7</course>
  <speed>0.02</speed>
  <fix>3d</fix>
</trkpt>
<trkpt lat="-27.272192" lon="151.2900613">
  <ele>431.31</ele>
  <time>2026-09-01T19:59:29Z</time>
  <course>11.3</course>
  <speed>0.09486832980505139</speed>
  <fix>3d</fix>
</trkpt>
<trkpt lat="-27.2721918" lon="151.290061">
  <ele>431.77</ele>
  <time>2026-09-01T19:59:29Z</time>
  <course>96.94</course>
  <speed>0.05</speed>
  <fix>3d</fix>
</trkpt>
<trkpt lat="-27.272192" lon="151.2900614">
  <ele>431.17</ele>
  <time>2026-09-01T19:59:29Z</time>
  <course>11.36</course>
  <speed>0.09848857801796104</speed>
  <fix>3d</fix>
</trkpt>
<trkpt lat="-27.2721918" lon="151.290061">
  <ele>431.77</ele>
  <time>2026-09-01T19:59:29Z</time>
  <course>96.94</course>
  <speed>0.05</speed>
  <fix>3d</fix>
</trkpt>
<trkpt lat="-27.272192" lon="151.2900615">
  <ele>431.02</ele>
  <time>2026-09-01T19:59:29Z</time>
  <course>11.45</course>
  <speed>0.10770329614269007</speed>
  <fix>3d</fix>
</trkpt>
<trkpt lat="-27.2721918" lon="151.2900611">
  <ele>431.47</ele>
  <time>2026-09-01T19:59:29Z</time>
  <course>100.63</course>
  <speed>0.07</speed>
  <fix>3d</fix>
</trkpt>
<trkpt lat="-27.272192" lon="151.2900615">
  <ele>430.87</ele>
  <time>2026-09-01T19:59:29Z</time>
  <course>11.56</course>
  <speed>0.11704699910719625</speed>
  <fix>3d</fix>
</trkpt>
<trkpt lat="-27.2721918" lon="151.2900611">
  <ele>431.47</ele>
  <time>2026-09-01T19:59:29Z</time>
  <course>100.63</course>
  <speed>0.07</speed>
  <fix>3d</fix>
</trkpt>
<trkpt lat="-27.272192" lon="151.2900616">
  <ele>430.72</ele>
  <time>2026-09-01T19:59:29Z</time>
  <course>11.65</course>
  <speed>0.13</speed>
  <fix>3d</fix>
</trkpt>
<trkpt lat="-27.2721918" lon="151.2900613">
  <ele>431.18</ele>
  <time>2026-09-01T19:59:29Z</time>
  <course>102.66</course>
  <speed>0.09</speed>
  <fix>3d</fix>
</trkpt>
<trkpt lat="-27.2721921" lon="151.2900617">
  <ele>430.57</ele>
  <time>2026-09-01T19:59:29Z</time>
  <course>11.72</course>
  <speed>0.13</speed>
  <fix>3d</fix>
</trkpt>
<trkpt lat="-27.2721918" lon="151.2900613">
  <ele>431.18</ele>
  <time>2026-09-01T19:59:29Z</time>
  <course>102.66</course>
  <speed>0.09</speed>
  <fix>3d</fix>
</trkpt>
<trkpt lat="-27.2721921" lon="151.2900618">
  <ele>430.42</ele>
  <time>2026-09-01T19:59:29Z</time>
  <course>11.76</course>
  <speed>0.1392838827718412</speed>
  <fix>3d</fix>
</trkpt>
<trkpt lat="-27.2721918" lon="151.2900614">
  <ele>430.88</ele>
  <time>2026-09-01T19:59:29Z</time>
  <course>103.81</course>
  <speed>0.1</speed>
  <fix>3d</fix>
</trkpt>
<trkpt lat="-27.2721921" lon="151.290062">
  <ele>430.27</ele>
  <time>2026-09-01T19:59:29Z</time>
  <course>11.78</course>
  <speed>0.1392838827718412</speed>
  <fix>3d</fix>
</trkpt>
<trkpt lat="-27.2721918" lon="151.2900614">
  <ele>430.88</ele>
  <time>2026-09-01T19:59:29Z</time>
  <course>103.81</course>
  <speed>0.1</speed>
  <fix>3d</fix>
</trkpt>
<trkpt lat="-27.2721921" lon="151.2900621">
  <ele>430.13</ele>
  <time>2026-09-01T19:59:29Z</time>
  <course>11.77</course>
  <speed>0.1392838827718412</speed>
  <fix>3d</fix>
</trkpt>
<trkpt lat="-27.2721918" lon="151.2900617">
  <ele>430.58</ele>
  <time>2026-09-01T19:59:29Z</time>
  <course>104.53</course>
  <speed>0.11</speed>
  <fix>3d</fix>
</trkpt>
<trkpt lat="-27.2721921" lon="151.2900622">
  <ele>429.98</ele>
  <time>2026-09-01T19:59:29Z</time>
  <course>11.74</course>
  <speed>0.14866068747318506</speed>
  <fix>3d</fix>
</trkpt>
<trkpt lat="-27.2721918" lon="151.2900617">
  <ele>430.58</ele>
  <time>2026-09-01T19:59:29Z</time>
  <course>104.53</course>
  <speed>0.11</speed>
  <fix>3d</fix>
</trkpt>
<trkpt lat="-27.2721922" lon="151.2900623">
  <ele>429.83</ele>
  <time>2026-09-01T19:59:29Z</time>
  <course>11.7</course>
  <speed>0.14866068747318506</speed>
  <fix>3d</fix>
</trkpt>
<trkpt lat="-27.2721918" lon="151.2900619">
  <ele>430.28</ele>
  <time>2026-09-01T19:59:29Z</time>
  <course>104.94</course>
  <speed>0.12</speed>
  <fix>3d</fix>
</trkpt>
<trkpt lat="-27.2721922" lon="151.2900624">
  <ele>429.68</ele>
  <time>2026-09-01T19:59:29Z</time>
  <course>11.66</course>
  <speed>0.14866068747318506</speed>
  <fix>3d</fix>
</trkpt>
<trkpt lat="-27.2721918" lon="151.2900619">
  <ele>430.28</ele>
  <time>2026-09-01T19:59:29Z</time>
  <course>104.94</course>
  <speed>0.12</speed>
  <fix>3d</fix>
</trkpt>
<trkpt lat="-27.2721922" lon="151.2900626">
  <ele>429.53</ele>
  <time>2026-09-01T19:59:29Z</time>
  <course>11.62</course>
  <speed>0.14866068747318506</speed>
  <fix>3d</fix>
</trkpt>
<trkpt lat="-27.2721919" lon="151.2900622">
  <ele>429.97</ele>
  <time>2026-09-01T19:59:29Z</time>
  <course>105.12</course>
  <speed>0.13</speed>
  <fix>3d</fix>
</trkpt>
<trkpt lat="-27.2721922" lon="151.2900627">
  <ele>429.38</ele>
  <time>2026-09-01T19:59:29Z</time>
  <course>11.59</course>
  <speed>0.14866068747318506</speed>
  <fix>3d</fix>
</trkpt>
<trkpt lat="-27.2721919" lon="151.2900622">
  <ele>429.97</ele>
  <time>2026-09-01T19:59:29Z</time>
  <course>105.12</course>
  <speed>0.13</speed>
  <fix>3d</fix>
</trkpt>
<trkpt lat="-27.2721923" lon="151.2900628">
  <ele>429.23</ele>
  <time>2026-09-01T19:59:29Z</time>
  <course>11.57</course>
  <speed>0.14866068747318506</speed>
  <fix>3d</fix>
</trkpt>
<trkpt lat="-27.272192" lon="151.2900624">
  <ele>429.68</ele>
  <time>2026-09-01T19:59:29Z</time>
  <course>105.3</course>
  <speed>0.13</speed>
  <fix>3d</fix>
</trkpt>
<trkpt lat="-27.2721923" lon="151.2900629">
  <ele>429.07</ele>
  <time>2026-09-01T19:59:29Z</time>
  <course>11.56</course>
  <speed>0.14866068747318506</speed>
  <fix>3d</fix>
</trkpt>
<trkpt lat="-27.272192" lon="151.2900624">
  <ele>429.68</ele>
  <time>2026-09-01T19:59:29Z</time>
  <course>105.3</course>
  <speed>0.13</speed>
  <fix>3d</fix>
</trkpt>
<trkpt lat="-27.2721923" lon="151.2900631">
  <ele>428.92</ele>
  <time>2026-09-01T19:59:29Z</time>
  <course>11.56</course>
  <speed>0.1392838827718412</speed>
  <fix>3d</fix>
</trkpt>
<trkpt lat="-27.272192" lon="151.2900627">
  <ele>429.38</ele>
  <time>2026-09-01T19:59:29Z</time>
  <course>105.64</course>
  <speed>0.13</speed>
  <fix>3d</fix>
</trkpt>
<trkpt lat="-27.2721923" lon="151.2900632">
  <ele>428.77</ele>
  <time>2026-09-01T19:59:29Z</time>
  <course>11.56</course>
  <speed>0.1392838827718412</speed>
  <fix>3d</fix>
</trkpt>
<trkpt lat="-27.272192" lon="151.2900627">
  <ele>429.38</ele>
  <time>2026-09-01T19:59:29Z</time>
  <course>105.64</course>
  <speed>0.13</speed>
  <fix>3d</fix>
</trkpt>
<trkpt lat="-27.2721924" lon="151.2900633">
  <ele>428.62</ele>
  <time>2026-09-01T19:59:29Z</time>
  <course>11.56</course>
  <speed>0.1392838827718412</speed>
  <fix>3d</fix>
</trkpt>
<trkpt lat="-27.2721921" lon="151.2900629">
  <ele>429.08</ele>
  <time>2026-09-01T19:59:29Z</time>
  <course>106.31</course>
  <speed>0.13</speed>
  <fix>3d</fix>
</trkpt>
<trkpt lat="-27.2721924" lon="151.2900634">
  <ele>428.47</ele>
  <time>2026-09-01T19:59:29Z</time>
  <course>11.56</course>
  <speed>0.13</speed>
  <fix>3d</fix>
</trkpt>
<trkpt lat="-27.2721921" lon="151.2900629">
  <ele>429.08</ele>
  <time>2026-09-01T19:59:29Z</time>
  <course>106.31</course>
  <speed>0.13</speed>
  <fix>3d</fix>
</trkpt>
<trkpt lat="-27.2721924" lon="151.2900635">
  <ele>428.32</ele>
  <time>2026-09-01T19:59:29Z</time>
  <course>11.56</course>
  <speed>0.13</speed>
  <fix>3d</fix>
</trkpt>
<trkpt lat="-27.2721922" lon="151.2900632">
  <ele>428.78</ele>
  <time>2026-09-01T19:59:29Z</time>
  <course>107.28</course>
  <speed>0.12</speed>
  <fix>3d</fix>
</trkpt>
<trkpt lat="-27.2721924" lon="151.2900636">
  <ele>428.17</ele>
  <time>2026-09-01T19:59:29Z</time>
  <course>11.56</course>
  <speed>0.12083045973594572</speed>
  <fix>3d</fix>
</trkpt>
<trkpt lat="-27.2721922" lon="151.2900632">
  <ele>428.78</ele>
  <time>2026-09-01T19:59:29Z</time>
  <course>107.28</course>
  <speed>0.12</speed>
  <fix>3d</fix>
</trkpt>
<trkpt lat="-27.2721925" lon="151.2900637">
  <ele>428.02</ele>
  <time>2026-09-01T19:59:29Z</time>
  <course>11.55</course>
  <speed>0.12083045973594572</speed>
  <fix>3d</fix>
</trkpt>
<trkpt lat="-27.2721922" lon="151.2900634">
  <ele>428.47</ele>
  <time>2026-09-01T19:59:29Z</time>
  <course>108.52</course>
  <speed>0.11</speed>
  <fix>3d</fix>
</trkpt>
<trkpt lat="-27.2721925" lon="151.2900638">
  <ele>427.87</ele>
  <time>2026-09-01T19:59:29Z</time>
  <course>11.55</course>
  <speed>0.1118033988749895</speed>
  <fix>3d</fix>
</trkpt>
<trkpt lat="-27.2721922" lon="151.2900634">
  <ele>428.47</ele>
  <time>2026-09-01T19:59:29Z</time>
  <course>108.52</course>
  <speed>0.11</speed>
  <fix>3d</fix>
</trkpt>
<trkpt lat="-27.2721925" lon="151.2900639">
  <ele>427.72</ele>
  <time>2026-09-01T19:59:29Z</time>
  <course>11.55</course>
  <speed>0.10295630140987001</speed>
  <fix>3d</fix>
</trkpt>
<trkpt lat="-27.2721923" lon="151.2900637">
  <ele>428.16</ele>
  <time>2026-09-01T19:59:29Z</time>
  <course>110.08</course>
  <speed>0.1</speed>
  <fix>3d</fix>
</trkpt>
<trkpt lat="-27.2721925" lon="151.290064">
  <ele>427.57</ele>
  <time>2026-09-01T19:59:29Z</time>
  <course>11.54</course>
  <speed>0.10295630140987001</speed>
  <fix>3d</fix>
</trkpt>
<trkpt lat="-27.2721923" lon="151.2900637">
  <ele>428.16</ele>
  <time>2026-09-01T19:59:29Z</time>
  <course>110.08</course>
  <speed>0.1</speed>
  <fix>3d</fix>
</trkpt>
<trkpt lat="-27.2721926" lon="151.2900641">
  <ele>427.42</ele>
  <time>2026-09-01T19:59:29Z</time>
  <course>11.54</course>
  <speed>0.09433981132056603</speed>
  <fix>3d</fix>
</trkpt>
<trkpt lat="-27.2721924" lon="151.2900639">
  <ele>427.87</ele>
  <time>2026-09-01T19:59:29Z</time>
  <course>111.86</course>
  <speed>0.09</speed>
  <fix>3d</fix>
</trkpt>
<trkpt lat="-27.2721926" lon="151.2900641">
  <ele>427.27</ele>
  <time>2026-09-01T19:59:29Z</time>
  <course>11.54</course>
  <speed>0.08062257748298549</speed>
  <fix>3d</fix>
</trkpt>
<trkpt lat="-27.2721924" lon="151.2900639">
  <ele>427.87</ele>
  <time>2026-09-01T19:59:29Z</time>
  <course>111.86</course>
  <speed>0.09</speed>
  <fix>3d</fix>
</trkpt>
<trkpt lat="-27.2721926" lon="151.2900642">
  <ele>427.12</ele>
  <time>2026-09-01T19:59:29Z</time>
  <course>11.55</course>
  <speed>0.07211102550927978</speed>
  <fix>3d</fix>
</trkpt>
<trkpt lat="-27.2721924" lon="151.290064">
  <ele>427.57</ele>
  <time>2026-09-01T19:59:29Z</time>
  <course>113.83</course>
  <speed>0.07</speed>
  <fix>3d</fix>
</trkpt>
<trkpt lat="-27.2721926" lon="151.2900642">
  <ele>426.97</ele>
  <time>2026-09-01T19:59:29Z</time>
  <course>11.56</course>
  <speed>0.07211102550927978</speed>
  <fix>3d</fix>
</trkpt>
<trkpt lat="-27.2721924" lon="151.290064">
  <ele>427.57</ele>
  <time>2026-09-01T19:59:29Z</time>
  <course>113.83</course>
  <speed>0.07</speed>
  <fix>3d</fix>
</trkpt>
<trkpt lat="-27.2721927" lon="151.2900643">
  <ele>426.82</ele>
  <time>2026-09-01T19:59:29Z</time>
  <course>11.57</course>
  <speed>0.06403124237432849</speed>
  <fix>3d</fix>
</trkpt>
<trkpt lat="-27.2721925" lon="151.2900641">
  <ele>427.27</ele>
  <time>2026-09-01T19:59:29Z</time>
  <course>116.62</course>
  <speed>0.06</speed>
  <fix>3d</fix>
</trkpt>
<trkpt lat="-27.2721927" lon="151.2900643">
  <ele>426.67</ele>
  <time>2026-09-01T19:59:29Z</time>
  <course>11.59</course>
  <speed>0.0565685424949238</speed>
  <fix>3d</fix>
</trkpt>
<trkpt lat="-27.2721925" lon="151.2900641">
  <ele>427.27</ele>
  <time>2026-09-01T19:59:29Z</time>
  <course>116.62</course>
  <speed>0.06</speed>
  <fix>3d</fix>
</trkpt>
<trkpt lat="-27.2721927" lon="151.2900643">
  <ele>426.52</ele>
  <time>2026-09-01T19:59:29Z</time>
  <course>11.62</course>
  <speed>0.04242640687119285</speed>
  <fix>3d</fix>
</trkpt>
<trkpt lat="-27.2721925" lon="151.2900642">
  <ele>426.97</ele>
  <time>2026-09-01T19:59:29Z</time>
  <course>122.19</course>
  <speed>0.04</speed>
  <fix>3d</fix>
</trkpt>
<trkpt lat="-27.2721927" lon="151.2900644">
  <ele>426.37</ele>
  <time>2026-09-01T19:59:29Z</time>
  <course>11.66</course>
  <speed>0.03605551275463989</speed>
  <fix>3d</fix>
</trkpt>
<trkpt lat="-27.2721925" lon="151.2900642">
  <ele>426.97</ele>
  <time>2026-09-01T19:59:29Z</time>
  <course>122.19</course>
  <speed>0.04</speed>
  <fix>3d</fix>
</trkpt>
<trkpt lat="-27.2721927" lon="151.2900644">
  <ele>426.22</ele>
  <time>2026-09-01T19:59:29Z</time>
  <course>11.72</course>
  <speed>0.0316227766016838</speed>
  <fix>3d</fix>
</trkpt>
<trkpt lat="-27.2721926" lon="151.2900643">
  <ele>426.66</ele>
  <time>2026-09-01T19:59:29Z</time>
  <course>135.24</course>
  <speed>0.02</speed>
  <fix>3d</fix>
</trkpt>
<trkpt lat="-27.2721927" lon="151.2900644">
  <ele>426.07</ele>
  <time>2026-09-01T19:59:29Z</time>
  <course>11.81</course>
  <speed>0.03</speed>
  <fix>3d</fix>
</trkpt>
<trkpt lat="-27.2721926" lon="151.2900643">
  <ele>426.66</ele>
  <time>2026-09-01T19:59:29Z</time>
  <course>135.24</course>
  <speed>0.02</speed>
  <fix>3d</fix>
</trkpt>
<trkpt lat="-27.2721927" lon="151.2900643">
  <ele>425.92</ele>
  <time>2026-09-01T19:59:29Z</time>
  <course>11.96</course>
  <speed>0.022360679774997897</speed>
  <fix>3d</fix>
</trkpt>
<trkpt lat="-27.2721926" lon="151.2900644">
  <ele>426.37</ele>
  <time>2026-09-01T19:59:29Z</time>
  <course>185.01</course>
  <speed>0.01</speed>
  <fix>3d</fix>
</trkpt>
<trkpt lat="-27.2721927" lon="151.2900643">
  <ele>425.77</ele>
  <time>2026-09-01T19:59:29Z</time>
  <course>12.05</course>
  <speed>0.022360679774997897</speed>
  <fix>3d</fix>
</trkpt>
<trkpt lat="-27.2721926" lon="151.2900644">
  <ele>426.37</ele>
  <time>2026-09-01T19:59:29Z</time>
  <course>185.01</course>
  <speed>0.01</speed>
  <fix>3d</fix>
</trkpt>
<trkpt lat="-27.2721927" lon="151.2900643">
  <ele>425.62</ele>
  <time>2026-09-01T19:59:29Z</time>
  <course>11.96</course>
  <speed>0.022360679774997897</speed>
  <fix>3d</fix>
</trkpt>
<trkpt lat="-27.2721926" lon="151.2900644">
  <ele>426.07</ele>
  <time>2026-09-01T19:59:29Z</time>
  <course>246.26</course>
  <speed>0.02</speed>
  <fix>3d</fix>
</trkpt>
<trkpt lat="-27.2721928" lon="151.2900643">
  <ele>425.46</ele>
  <time>2026-09-01T19:59:29Z</time>
  <course>11.76</course>
  <speed>0.022360679774997897</speed>
  <fix>3d</fix>
</trkpt>
<trkpt lat="-27.2721926" lon="151.2900644">
  <ele>426.07</ele>
  <time>2026-09-01T19:59:29Z</time>
  <course>246.26</course>
  <speed>0.02</speed>
  <fix>3d</fix>
</trkpt>
<trkpt lat="-27.2721928" lon="151.2900643">
  <ele>425.31</ele>
  <time>2026-09-01T19:59:29Z</time>
  <course>11.51</course>
  <speed>0.022360679774997897</speed>
  <fix>3d</fix>
</trkpt>
<trkpt lat="-27.2721927" lon="151.2900643">
  <ele>425.77</ele>
  <time>2026-09-01T19:59:29Z</time>
  <course>258.54</course>
  <speed>0.03</speed>
  <fix>3d</fix>
</trkpt>
<trkpt lat="-27.2721928" lon="151.2900643">
  <ele>425.16</ele>
  <time>2026-09-01T19:59:29Z</time>
  <course>11.23</course>
  <speed>0.022360679774997897</speed>
  <fix>3d</fix>
</trkpt>
<trkpt lat="-27.2721927" lon="151.2900643">
  <ele>425.77</ele>
  <time>2026-09-01T19:59:29Z</time>
  <course>258.54</course>
  <speed>0.03</speed>
  <fix>3d</fix>
</trkpt>
<trkpt lat="-27.2721928" lon="151.2900643">
  <ele>425.01</ele>
  <time>2026-09-01T19:59:29Z</time>
  <course>10.99</course>
  <speed>0.022360679774997897</speed>
  <fix>3d</fix>
</trkpt>
<trkpt lat="-27.2721927" lon="151.2900642">
  <ele>425.47</ele>
  <time>2026-09-01T19:59:29Z</time>
  <course>261.06</course>
  <speed>0.03</speed>
  <fix>3d</fix>
</trkpt>
<trkpt lat="-27.2721928" lon="151.2900643">
  <ele>424.87</ele>
  <time>2026-09-01T19:59:29Z</time>
  <course>10.8</course>
  <speed>0.02</speed>
  <fix>3d</fix>
</trkpt>
<trkpt lat="-27.2721927" lon="151.2900642">
  <ele>425.47</ele>
  <time>2026-09-01T19:59:29Z</time>
  <course>261.06</course>
  <speed>0.03</speed>
  <fix>3d</fix>
</trkpt>
<trkpt lat="-27.2721928" lon="151.2900643">
  <ele>424.71</ele>
  <time>2026-09-01T19:59:29Z</time>
  <course>10.66</course>
  <speed>0.022360679774997897</speed>
  <fix>3d</fix>
</trkpt>
<trkpt lat="-27.2721927" lon="151.2900642">
  <ele>425.16</ele>
  <time>2026-09-01T19:59:29Z</time>
  <course>262.49</course>
  <speed>0.03</speed>
  <fix>3d</fix>
</trkpt>
<trkpt lat="-27.2721928" lon="151.2900642">
  <ele>424.56</ele>
  <time>2026-09-01T19:59:29Z</time>
  <course>10.59</course>
  <speed>0.022360679774997897</speed>
  <fix>3d</fix>
</trkpt>
<trkpt lat="-27.2721927" lon="151.2900642">
  <ele>425.16</ele>
  <time>2026-09-01T19:59:29Z</time>
  <course>262.49</course>
  <speed>0.03</speed>
  <fix>3d</fix>
</trkpt>
<trkpt lat="-27.2721928" lon="151.2900642">
  <ele>424.41</ele>
  <time>2026-09-01T19:59:29Z</time>
  <course>10.58</course>
  <speed>0.022360679774997897</speed>
  <fix>3d</fix>
</trkpt>
<trkpt lat="-27.2721927" lon="151.2900641">
  <ele>424.87</ele>
  <time>2026-09-01T19:59:29Z</time>
  <course>263.26</course>
  <speed>0.03</speed>
  <fix>3d</fix>
</trkpt>
<trkpt lat="-27.2721928" lon="151.2900642">
  <ele>424.26</ele>
  <time>2026-09-01T19:59:29Z</time>
  <course>10.61</course>
  <speed>0.022360679774997897</speed>
  <fix>3d</fix>
</trkpt>
<trkpt lat="-27.2721927" lon="151.2900641">
  <ele>424.87</ele>
  <time>2026-09-01T19:59:29Z</time>
  <course>263.26</course>
  <speed>0.03</speed>
  <fix>3d</fix>
</trkpt>
<trkpt lat="-27.2721928" lon="151.2900641">
  <ele>424.11</ele>
  <time>2026-09-01T19:59:29Z</time>
  <course>10.67</course>
  <speed>0.022360679774997897</speed>
  <fix>3d</fix>
</trkpt>
<trkpt lat="-27.2721927" lon="151.2900641">
  <ele>424.57</ele>
  <time>2026-09-01T19:59:29Z</time>
  <course>263.62</course>
  <speed>0.03</speed>
  <fix>3d</fix>
</trkpt>
<trkpt lat="-27.2721928" lon="151.2900641">
  <ele>423.96</ele>
  <time>2026-09-01T19:59:29Z</time>
  <course>10.74</course>
  <speed>0.022360679774997897</speed>
  <fix>3d</fix>
</trkpt>
<trkpt lat="-27.2721927" lon="151.2900641">
  <ele>424.57</ele>
  <time>2026-09-01T19:59:29Z</time>
  <course>263.62</course>
  <speed>0.03</speed>
  <fix>3d</fix>
</trkpt>
<trkpt lat="-27.2721928" lon="151.2900641">
  <ele>423.81</ele>
  <time>2026-09-01T19:59:29Z</time>
  <course>10.8</course>
  <speed>0.022360679774997897</speed>
  <fix>3d</fix>
</trkpt>
<trkpt lat="-27.2721927" lon="151.290064">
  <ele>424.27</ele>
  <time>2026-09-01T19:59:29Z</time>
  <course>264.1</course>
  <speed>0.03</speed>
  <fix>3d</fix>
</trkpt>
<trkpt lat="-27.2721928" lon="151.2900641">
  <ele>423.66</ele>
  <time>2026-09-01T19:59:29Z</time>
  <course>10.84</course>
  <speed>0.022360679774997897</speed>
  <fix>3d</fix>
</trkpt>
<trkpt lat="-27.2721927" lon="151.290064">
  <ele>424.27</ele>
  <time>2026-09-01T19:59:29Z</time>
  <course>264.1</course>
  <speed>0.03</speed>
  <fix>3d</fix>
</trkpt>
<trkpt lat="-27.2721928" lon="151.290064">
  <ele>423.51</ele>
  <time>2026-09-01T19:59:29Z</time>
  <course>10.87</course>
  <speed>0.022360679774997897</speed>
  <fix>3d</fix>
</trkpt>
<trkpt lat="-27.2721927" lon="151.290064">
  <ele>423.97</ele>
  <time>2026-09-01T19:59:29Z</time>
  <course>265.39</course>
  <speed>0.03</speed>
  <fix>3d</fix>
</trkpt>
<trkpt lat="-27.2721928" lon="151.290064">
  <ele>423.36</ele>
  <time>2026-09-01T19:59:29Z</time>
  <course>10.89</course>
  <speed>0.022360679774997897</speed>
  <fix>3d</fix>
</trkpt>
<trkpt lat="-27.2721927" lon="151.290064">
  <ele>423.97</ele>
  <time>2026-09-01T19:59:29Z</time>
  <course>265.39</course>
  <speed>0.03</speed>
  <fix>3d</fix>
</trkpt>
<trkpt lat="-27.2721928" lon="151.290064">
  <ele>423.22</ele>
  <time>2026-09-01T19:59:29Z</time>
  <course>10.9</course>
  <speed>0.022360679774997897</speed>
  <fix>3d</fix>
</trkpt>
<trkpt lat="-27.2721927" lon="151.2900639">
  <ele>423.68</ele>
  <time>2026-09-01T19:59:29Z</time>
  <course>267.78</course>
  <speed>0.03</speed>
  <fix>3d</fix>
</trkpt>
<trkpt lat="-27.2721928" lon="151.290064">
  <ele>423.07</ele>
  <time>2026-09-01T19:59:29Z</time>
  <course>10.91</course>
  <speed>0.022360679774997897</speed>
  <fix>3d</fix>
</trkpt>
<trkpt lat="-27.2721927" lon="151.2900639">
  <ele>423.68</ele>
  <time>2026-09-01T19:59:29Z</time>
  <course>267.78</course>
  <speed>0.03</speed>
  <fix>3d</fix>
</trkpt>
<trkpt lat="-27.2721928" lon="151.2900639">
  <ele>422.92</ele>
  <time>2026-09-01T19:59:29Z</time>
  <course>10.91</course>
  <speed>0.022360679774997897</speed>
  <fix>3d</fix>
</trkpt>
<trkpt lat="-27.2721927" lon="151.2900638">
  <ele>423.38</ele>
  <time>2026-09-01T19:59:29Z</time>
  <course>270.48</course>
  <speed>0.03</speed>
  <fix>3d</fix>
</trkpt>
<trkpt lat="-27.2721928" lon="151.2900639">
  <ele>422.77</ele>
  <time>2026-09-01T19:59:29Z</time>
  <course>10.89</course>
  <speed>0.022360679774997897</speed>
  <fix>3d</fix>
</trkpt>
<trkpt lat="-27.2721927" lon="151.2900638">
  <ele>423.38</ele>
  <time>2026-09-01T19:59:29Z</time>
  <course>270.48</course>
  <speed>0.03</speed>
  <fix>3d</fix>
</trkpt>
<trkpt lat="-27.2721928" lon="151.2900639">
  <ele>422.61</ele>
  <time>2026-09-01T19:59:29Z</time>
  <course>10.87</course>
  <speed>0.022360679774997897</speed>
  <fix>3d</fix>
</trkpt>
<trkpt lat="-27.2721927" lon="151.2900637">
  <ele>423.08</ele>
  <time>2026-09-01T19:59:29Z</time>
  <course>272.1</course>
  <speed>0.03</speed>
  <fix>3d</fix>
</trkpt>
<trkpt lat="-27.2721928" lon="151.2900638">
  <ele>422.46</ele>
  <time>2026-09-01T19:59:29Z</time>
  <course>10.85</course>
  <speed>0.022360679774997897</speed>
  <fix>3d</fix>
</trkpt>
<trkpt lat="-27.2721927" lon="151.2900637">
  <ele>423.08</ele>
  <time>2026-09-01T19:59:29Z</time>
  <course>272.1</course>
  <speed>0.03</speed>
  <fix>3d</fix>
</trkpt>
<trkpt lat="-27.2721928" lon="151.2900638">
  <ele>422.31</ele>
  <time>2026-09-01T19:59:29Z</time>
  <course>10.85</course>
  <speed>0.01414213562373095</speed>
  <fix>3d</fix>
</trkpt>
<trkpt lat="-27.2721927" lon="151.2900637">
  <ele>422.78</ele>
  <time>2026-09-01T19:59:29Z</time>
  <course>273.81</course>
  <speed>0.03</speed>
  <fix>3d</fix>
</trkpt>
<trkpt lat="-27.2721928" lon="151.2900638">
  <ele>422.16</ele>
  <time>2026-09-01T19:59:29Z</time>
  <course>10.86</course>
  <speed>0.01414213562373095</speed>
  <fix>3d</fix>
</trkpt>
<trkpt lat="-27.2721927" lon="151.2900637">
  <ele>422.78</ele>
  <time>2026-09-01T19:59:29Z</time>
  <course>273.81</course>
  <speed>0.03</speed>
  <fix>3d</fix>
</trkpt>
<trkpt lat="-27.2721928" lon="151.2900637">
  <ele>422.01</ele>
  <time>2026-09-01T19:59:29Z</time>
  <course>10.88</course>
  <speed>0.01414213562373095</speed>
  <fix>3d</fix>
</trkpt>
<trkpt lat="-27.2721927" lon="151.2900636">
  <ele>422.48</ele>
  <time>2026-09-01T19:59:29Z</time>
  <course>276.36</course>
  <speed>0.03</speed>
  <fix>3d</fix>
</trkpt>
<trkpt lat="-27.2721928" lon="151.2900637">
  <ele>421.86</ele>
  <time>2026-09-01T19:59:29Z</time>
  <course>10.9</course>
  <speed>0.01414213562373095</speed>
  <fix>3d</fix>
</trkpt>
<trkpt lat="-27.2721927" lon="151.2900636">
  <ele>422.48</ele>
  <time>2026-09-01T19:59:29Z</time>
  <course>276.36</course>
  <speed>0.03</speed>
  <fix>3d</fix>
</trkpt>
<trkpt lat="-27.2721928" lon="151.2900637">
  <ele>421.71</ele>
  <time>2026-09-01T19:59:29Z</time>
  <course>10.92</course>
  <speed>0.01414213562373095</speed>
  <fix>3d</fix>
</trkpt>
<trkpt lat="-27.2721927" lon="151.2900636">
  <ele>422.19</ele>
  <time>2026-09-01T19:59:29Z</time>
  <course>279.16</course>
  <speed>0.03</speed>
  <fix>3d</fix>
</trkpt>
<trkpt lat="-27.2721928" lon="151.2900637">
  <ele>421.56</ele>
  <time>2026-09-01T19:59:29Z</time>
  <course>10.95</course>
  <speed>0.01414213562373095</speed>
  <fix>3d</fix>
</trkpt>
<trkpt lat="-27.2721927" lon="151.2900636">
  <ele>422.19</ele>
  <time>2026-09-01T19:59:29Z</time>
  <course>279.16</course>
  <speed>0.03</speed>
  <fix>3d</fix>
</trkpt>
<trkpt lat="-27.2721928" lon="151.2900636">
  <ele>421.41</ele>
  <time>2026-09-01T19:59:29Z</time>
  <course>10.96</course>
  <speed>0.01414213562373095</speed>
  <fix>3d</fix>
</trkpt>
<trkpt lat="-27.2721927" lon="151.2900635">
  <ele>421.89</ele>
  <time>2026-09-01T19:59:29Z</time>
  <course>281.56</course>
  <speed>0.03</speed>
  <fix>3d</fix>
</trkpt>
<trkpt lat="-27.2721928" lon="151.2900636">
  <ele>421.26</ele>
  <time>2026-09-01T19:59:29Z</time>
  <course>10.98</course>
  <speed>0.01414213562373095</speed>
  <fix>3d</fix>
</trkpt>
<trkpt lat="-27.2721927" lon="151.2900635">
  <ele>421.89</ele>
  <time>2026-09-01T19:59:29Z</time>
  <course>281.56</course>
  <speed>0.03</speed>
  <fix>3d</fix>
</trkpt>
<trkpt lat="-27.2721928" lon="151.2900636">
  <ele>421.12</ele>
  <time>2026-09-01T19:59:29Z</time>
  <course>10.99</course>
  <speed>0.01414213562373095</speed>
  <fix>3d</fix>
</trkpt>
<trkpt lat="-27.2721927" lon="151.2900634">
  <ele>421.59</ele>
  <time>2026-09-01T19:59:29Z</time>
  <course>283.0</course>
  <speed>0.03</speed>
  <fix>3d</fix>
</trkpt>
<trkpt lat="-27.2721928" lon="151.2900635">
  <ele>420.97</ele>
  <time>2026-09-01T19:59:29Z</time>
  <course>11.01</course>
  <speed>0.01414213562373095</speed>
  <fix>3d</fix>
</trkpt>
<trkpt lat="-27.2721927" lon="151.2900634">
  <ele>421.59</ele>
  <time>2026-09-01T19:59:29Z</time>
  <course>283.0</course>
  <speed>0.03</speed>
  <fix>3d</fix>
</trkpt>
<trkpt lat="-27.2721928" lon="151.2900635">
  <ele>420.82</ele>
  <time>2026-09-01T19:59:29Z</time>
  <course>11.02</course>
  <speed>0.01414213562373095</speed>
  <fix>3d</fix>
</trkpt>
<trkpt lat="-27.2721927" lon="151.2900633">
  <ele>421.29</ele>
  <time>2026-09-01T19:59:29Z</time>
  <course>284.2</course>
  <speed>0.03</speed>
  <fix>3d</fix>
</trkpt>
<trkpt lat="-27.2721928" lon="151.2900635">
  <ele>420.67</ele>
  <time>2026-09-01T19:59:29Z</time>
  <course>11.03</course>
  <speed>0.01414213562373095</speed>
  <fix>3d</fix>
</trkpt>
<trkpt lat="-27.2721927" lon="151.2900633">
  <ele>421.29</ele>
  <time>2026-09-01T19:59:29Z</time>
  <course>284.2</course>
  <speed>0.03</speed>
  <fix>3d</fix>
</trkpt>
<trkpt lat="-27.2721928" lon="151.2900634">
  <ele>420.53</ele>
  <time>2026-09-01T19:59:29Z</time>
  <course>11.05</course>
  <speed>0.01414213562373095</speed>
  <fix>3d</fix>
</trkpt>
<trkpt lat="-27.2721927" lon="151.2900633">
  <ele>420.99</ele>
  <time>2026-09-01T19:59:29Z</time>
  <course>285.56</course>
  <speed>0.03</speed>
  <fix>3d</fix>
</trkpt>
<trkpt lat="-27.2721928" lon="151.2900634">
  <ele>420.38</ele>
  <time>2026-09-01T19:59:29Z</time>
  <course>11.07</course>
  <speed>0.01414213562373095</speed>
  <fix>3d</fix>
</trkpt>
<trkpt lat="-27.2721927" lon="151.2900633">
  <ele>420.99</ele>
  <time>2026-09-01T19:59:29Z</time>
  <course>285.56</course>
  <speed>0.03</speed>
  <fix>3d</fix>
</trkpt>
<trkpt lat="-27.2721928" lon="151.2900634">
  <ele>420.23</ele>
  <time>2026-09-01T19:59:29Z</time>
  <course>11.09</course>
  <speed>0.01414213562373095</speed>
  <fix>3d</fix>
</trkpt>
<trkpt lat="-27.2721927" lon="151.2900632">
  <ele>420.7</ele>
  <time>2026-09-01T19:59:29Z</time>
  <course>286.98</course>
  <speed>0.03</speed>
  <fix>3d</fix>
</trkpt>
<trkpt lat="-27.2721928" lon="151.2900633">
  <ele>420.09</ele>
  <time>2026-09-01T19:59:29Z</time>
  <course>11.11</course>
  <speed>0.01414213562373095</speed>
  <fix>3d</fix>
</trkpt>
<trkpt lat="-27.2721927" lon="151.2900632">
  <ele>420.7</ele>
  <time>2026-09-01T19:59:29Z</time>
  <course>286.98</course>
  <speed>0.03</speed>
  <fix>3d</fix>
</trkpt>
<trkpt lat="-27.2721928" lon="151.2900633">
  <ele>419.94</ele>
  <time>2026-09-01T19:59:29Z</time>
  <course>11.12</course>
  <speed>0.01414213562373095</speed>
  <fix>3d</fix>
</trkpt>
<trkpt lat="-27.2721927" lon="151.2900632">
  <ele>420.4</ele>
  <time>2026-09-01T19:59:29Z</time>
  <course>288.93</course>
  <speed>0.03</speed>
  <fix>3d</fix>
</trkpt>
<trkpt lat="-27.2721928" lon="151.2900633">
  <ele>419.79</ele>
  <time>2026-09-01T19:59:29Z</time>
  <course>11.13</course>
  <speed>0.01414213562373095</speed>
  <fix>3d</fix>
</trkpt>
<trkpt lat="-27.2721927" lon="151.2900632">
  <ele>420.4</ele>
  <time>2026-09-01T19:59:29Z</time>
  <course>288.93</course>
  <speed>0.03</speed>
  <fix>3d</fix>
</trkpt>
<trkpt lat="-27.2721928" lon="151.2900632">
  <ele>419.64</ele>
  <time>2026-09-01T19:59:29Z</time>
  <course>11.14</course>
  <speed>0.01414213562373095</speed>
  <fix>3d</fix>
</trkpt>
<trkpt lat="-27.2721927" lon="151.2900631">
  <ele>420.1</ele>
  <time>2026-09-01T19:59:29Z</time>
  <course>291.57</course>
  <speed>0.03</speed>
  <fix>3d</fix>
</trkpt>
<trkpt lat="-27.2721928" lon="151.2900632">
  <ele>419.49</ele>
  <time>2026-09-01T19:59:29Z</time>
  <course>11.05</course>
  <speed>0.01</speed>
  <fix>3d</fix>
</trkpt>
<trkpt lat="-27.2721927" lon="151.2900631">
  <ele>420.1</ele>
  <time>2026-09-01T19:59:29Z</time>
  <course>291.57</course>
  <speed>0.03</speed>
  <fix>3d</fix>
</trkpt>
<trkpt lat="-27.2721928" lon="151.2900632">
  <ele>419.34</ele>
  <time>2026-09-01T19:59:29Z</time>
  <course>10.88</course>
  <speed>0.01</speed>
  <fix>3d</fix>
</trkpt>
<trkpt lat="-27.2721926" lon="151.290063">
  <ele>419.8</ele>
  <time>2026-09-01T19:59:29Z</time>
  <course>296.56</course>
  <speed>0.03</speed>
  <fix>3d</fix>
</trkpt>
<trkpt lat="-27.2721928" lon="151.2900632">
  <ele>419.19</ele>
  <time>2026-09-01T19:59:30Z</time>
  <course>10.69</course>
  <speed>0.01</speed>
  <fix>3d</fix>
</trkpt>
<trkpt lat="-27.2721926" lon="151.290063">
  <ele>419.8</ele>
  <time>2026-09-01T19:59:30Z</time>
  <course>296.56</course>
  <speed>0.03</speed>
  <fix>3d</fix>
</trkpt>
<trkpt lat="-27.2721928" lon="151.2900631">
  <ele>419.04</ele>
  <time>2026-09-01T19:59:30Z</time>
  <course>10.5</course>
  <speed>0.01414213562373095</speed>
  <fix>3d</fix>
</trkpt>
<trkpt lat="-27.2721926" lon="151.290063">
  <ele>419.49</ele>
  <time>2026-09-01T19:59:30Z</time>
  <course>309.76</course>
  <speed>0.02</speed>
  <fix>3d</fix>
</trkpt>
<trkpt lat="-27.2721928" lon="151.2900632">
  <ele>418.89</ele>
  <time>2026-09-01T19:59:30Z</time>
  <course>10.36</course>
  <speed>0.01414213562373095</speed>
  <fix>3d</fix>
</trkpt>
<trkpt lat="-27.2721926" lon="151.290063">
  <ele>419.49</ele>
  <time>2026-09-01T19:59:30Z</time>
  <course>309.76</course>
  <speed>0.02</speed>
  <fix>3d</fix>
</trkpt>
<trkpt lat="-27.2721928" lon="151.2900631">
  <ele>418.74</ele>
  <time>2026-09-01T19:59:30Z</time>
  <course>10.26</course>
  <speed>0.022360679774997897</speed>
  <fix>3d</fix>
</trkpt>
<trkpt lat="-27.2721926" lon="151.290063">
  <ele>419.19</ele>
  <time>2026-09-01T19:59:30Z</time>
  <course>344.29</course>
  <speed>0.01</speed>
  <fix>3d</fix>
</trkpt>
<trkpt lat="-27.2721928" lon="151.2900631">
  <ele>418.59</ele>
  <time>2026-09-01T19:59:30Z</time>
  <course>10.22</course>
  <speed>0.0316227766016838</speed>
  <fix>3d</fix>
</trkpt>
<trkpt lat="-27.2721926" lon="151.290063">
  <ele>419.19</ele>
  <time>2026-09-01T19:59:30Z</time>
  <course>344.29</course>
  <speed>0.01</speed>
  <fix>3d</fix>
</trkpt>
<trkpt lat="-27.2721928" lon="151.2900631">
  <ele>418.44</ele>
  <time>2026-09-01T19:59:30Z</time>
  <course>10.22</course>
  <speed>0.0316227766016838</speed>
  <fix>3d</fix>
</trkpt>
<trkpt lat="-27.2721926" lon="151.290063">
  <ele>418.88</ele>
  <time>2026-09-01T19:59:30Z</time>
  <course>34.57</course>
  <speed>0.01</speed>
  <fix>3d</fix>
</trkpt>
<trkpt lat="-27.2721928" lon="151.2900631">
  <ele>418.28</ele>
  <time>2026-09-01T19:59:30Z</time>
  <course>10.26</course>
  <speed>0.0316227766016838</speed>
  <fix>3d</fix>
</trkpt>
<trkpt lat="-27.2721926" lon="151.290063">
  <ele>418.88</ele>
  <time>2026-09-01T19:59:30Z</time>
  <course>34.57</course>
  <speed>0.01</speed>
  <fix>3d</fix>
</trkpt>
<trkpt lat="-27.2721928" lon="151.2900631">
  <ele>418.13</ele>
  <time>2026-09-01T19:59:30Z</time>
  <course>10.31</course>
  <speed>0.0412310562561766</speed>
  <fix>3d</fix>
</trkpt>
<trkpt lat="-27.2721925" lon="151.290063">
  <ele>418.58</ele>
  <time>2026-09-01T19:59:30Z</time>
  <course>61.03</course>
  <speed>0.02</speed>
  <fix>3d</fix>
</trkpt>
<trkpt lat="-27.2721928" lon="151.2900632">
  <ele>417.98</ele>
  <time>2026-09-01T19:59:30Z</time>
  <course>10.37</course>
  <speed>0.044721359549995794</speed>
  <fix>3d</fix>
</trkpt>
<trkpt lat="-27.2721925" lon="151.290063">
  <ele>418.58</ele>
  <time>2026-09-01T19:59:30Z</time>
  <course>61.03</course>
  <speed>0.02</speed>
  <fix>3d</fix>
</trkpt>
<trkpt lat="-27.2721928" lon="151.2900632">
  <ele>417.83</ele>
  <time>2026-09-01T19:59:30Z</time>
  <course>10.42</course>
  <speed>0.044721359549995794</speed>
  <fix>3d</fix>
</trkpt>
<trkpt lat="-27.2721925" lon="151.290063">
  <ele>418.27</ele>
  <time>2026-09-01T19:59:30Z</time>
  <course>72.29</course>
  <speed>0.02</speed>
  <fix>3d</fix>
</trkpt>
<trkpt lat="-27.2721928" lon="151.2900632">
  <ele>417.68</ele>
  <time>2026-09-01T19:59:30Z</time>
  <course>10.46</course>
  <speed>0.053851648071345036</speed>
  <fix>3d</fix>
</trkpt>
<trkpt lat="-27.2721925" lon="151.290063">
  <ele>418.27</ele>
  <time>2026-09-01T19:59:30Z</time>
  <course>72.29</course>
  <speed>0.02</speed>
  <fix>3d</fix>
</trkpt>
<trkpt lat="-27.2721928" lon="151.2900633">
  <ele>417.53</ele>
  <time>2026-09-01T19:59:30Z</time>
  <course>10.48</course>
  <speed>0.053851648071345036</speed>
  <fix>3d</fix>
</trkpt>
<trkpt lat="-27.2721925" lon="151.290063">
  <ele>417.97</ele>
  <time>2026-09-01T19:59:30Z</time>
  <course>78.45</course>
  <speed>0.03</speed>
  <fix>3d</fix>
</trkpt>
<trkpt lat="-27.2721928" lon="151.2900633">
  <ele>417.38</ele>
  <time>2026-09-01T19:59:30Z</time>
  <course>10.48</course>
  <speed>0.053851648071345036</speed>
  <fix>3d</fix>
</trkpt>
<trkpt lat="-27.2721925" lon="151.290063">
  <ele>417.97</ele>
  <time>2026-09-01T19:59:30Z</time>
  <course>78.45</course>
  <speed>0.03</speed>
  <fix>3d</fix>
</trkpt>
<trkpt lat="-27.2721927" lon="151.2900633">
  <ele>417.23</ele>
  <time>2026-09-01T19:59:30Z</time>
  <course>10.47</course>
  <speed>0.053851648071345036</speed>
  <fix>3d</fix>
</trkpt>
<trkpt lat="-27.2721925" lon="151.290063">
  <ele>417.66</ele>
  <time>2026-09-01T19:59:30Z</time>
  <course>81.83</course>
  <speed>0.03</speed>
  <fix>3d</fix>
</trkpt>
<trkpt lat="-27.2721927" lon="151.2900634">
  <ele>417.08</ele>
  <time>2026-09-01T19:59:30Z</time>
  <course>10.45</course>
  <speed>0.053851648071345036</speed>
  <fix>3d</fix>
</trkpt>
<trkpt lat="-27.2721925" lon="151.290063">
  <ele>417.66</ele>
  <time>2026-09-01T19:59:30Z</time>
  <course>81.83</course>
  <speed>0.03</speed>
  <fix>3d</fix>
</trkpt>
<trkpt lat="-27.2721927" lon="151.2900634">
  <ele>416.93</ele>
  <time>2026-09-01T19:59:30Z</time>
  <course>10.43</course>
  <speed>0.053851648071345036</speed>
  <fix>3d</fix>
</trkpt>
<trkpt lat="-27.2721925" lon="151.2900631">
  <ele>417.36</ele>
  <time>2026-09-01T19:59:30Z</time>
  <course>83.68</course>
  <speed>0.04</speed>
  <fix>3d</fix>
</trkpt>
<trkpt lat="-27.2721927" lon="151.2900634">
  <ele>416.77</ele>
  <time>2026-09-01T19:59:30Z</time>
  <course>10.41</course>
  <speed>0.0632455532033676</speed>
  <fix>3d</fix>
</trkpt>
<trkpt lat="-27.2721925" lon="151.2900631">
  <ele>417.36</ele>
  <time>2026-09-01T19:59:30Z</time>
  <course>83.68</course>
  <speed>0.04</speed>
  <fix>3d</fix>
</trkpt>
<trkpt lat="-27.2721927" lon="151.2900635">
  <ele>416.62</ele>
  <time>2026-09-01T19:59:30Z</time>
  <course>10.4</course>
  <speed>0.0632455532033676</speed>
  <fix>3d</fix>
</trkpt>
<trkpt lat="-27.2721925" lon="151.2900632">
  <ele>417.06</ele>
  <time>2026-09-01T19:59:30Z</time>
  <course>85.49</course>
  <speed>0.04</speed>
  <fix>3d</fix>
</trkpt>
<trkpt lat="-27.2721927" lon="151.2900635">
  <ele>416.47</ele>
  <time>2026-09-01T19:59:30Z</time>
  <course>10.39</course>
  <speed>0.0632455532033676</speed>
  <fix>3d</fix>
</trkpt>
<trkpt lat="-27.2721925" lon="151.2900632">
  <ele>417.06</ele>
  <time>2026-09-01T19:59:30Z</time>
  <course>85.49</course>
  <speed>0.04</speed>
  <fix>3d</fix>
</trkpt>
<trkpt lat="-27.2721927" lon="151.2900635">
  <ele>416.32</ele>
  <time>2026-09-01T19:59:30Z</time>
  <course>10.39</course>
  <speed>0.053851648071345036</speed>
  <fix>3d</fix>
</trkpt>
<trkpt lat="-27.2721925" lon="151.2900633">
  <ele>416.76</ele>
  <time>2026-09-01T19:59:30Z</time>
  <course>87.65</course>
  <speed>0.04</speed>
  <fix>3d</fix>
</trkpt>
<trkpt lat="-27.2721927" lon="151.2900636">
  <ele>416.17</ele>
  <time>2026-09-01T19:59:30Z</time>
  <course>10.39</course>
  <speed>0.053851648071345036</speed>
  <fix>3d</fix>
</trkpt>
<trkpt lat="-27.2721925" lon="151.2900633">
  <ele>416.76</ele>
  <time>2026-09-01T19:59:30Z</time>
  <course>87.65</course>
  <speed>0.04</speed>
  <fix>3d</fix>
</trkpt>
<trkpt lat="-27.2721927" lon="151.2900636">
  <ele>416.02</ele>
  <time>2026-09-01T19:59:30Z</time>
  <course>10.4</course>
  <speed>0.053851648071345036</speed>
  <fix>3d</fix>
</trkpt>
<trkpt lat="-27.2721925" lon="151.2900634">
  <ele>416.46</ele>
  <time>2026-09-01T19:59:30Z</time>
  <course>89.61</course>
  <speed>0.04</speed>
  <fix>3d</fix>
</trkpt>
<trkpt lat="-27.2721927" lon="151.2900637">
  <ele>415.87</ele>
  <time>2026-09-01T19:59:30Z</time>
  <course>10.4</course>
  <speed>0.053851648071345036</speed>
  <fix>3d</fix>
</trkpt>
<trkpt lat="-27.2721925" lon="151.2900634">
  <ele>416.46</ele>
  <time>2026-09-01T19:59:30Z</time>
  <course>89.61</course>
  <speed>0.04</speed>
  <fix>3d</fix>
</trkpt>
<trkpt lat="-27.2721927" lon="151.2900637">
  <ele>415.72</ele>
  <time>2026-09-01T19:59:30Z</time>
  <course>10.4</course>
  <speed>0.053851648071345036</speed>
  <fix>3d</fix>
</trkpt>
<trkpt lat="-27.2721925" lon="151.2900635">
  <ele>416.16</ele>
  <time>2026-09-01T19:59:30Z</time>
  <course>90.72</course>
  <speed>0.04</speed>
  <fix>3d</fix>
</trkpt>
<trkpt lat="-27.2721927" lon="151.2900637">
  <ele>415.57</ele>
  <time>2026-09-01T19:59:30Z</time>
  <course>10.4</course>
  <speed>0.053851648071345036</speed>
  <fix>3d</fix>
</trkpt>
<trkpt lat="-27.2721925" lon="151.2900635">
  <ele>416.16</ele>
  <time>2026-09-01T19:59:30Z</time>
  <course>90.72</course>
  <speed>0.04</speed>
  <fix>3d</fix>
</trkpt>
<trkpt lat="-27.2721927" lon="151.2900638">
  <ele>415.42</ele>
  <time>2026-09-01T19:59:30Z</time>
  <course>10.39</course>
  <speed>0.053851648071345036</speed>
  <fix>3d</fix>
</trkpt>
<trkpt lat="-27.2721925" lon="151.2900636">
  <ele>415.86</ele>
  <time>2026-09-01T19:59:30Z</time>
  <course>90.84</course>
  <speed>0.04</speed>
  <fix>3d</fix>
</trkpt>
<trkpt lat="-27.2721927" lon="151.2900638">
  <ele>415.27</ele>
  <time>2026-09-01T19:59:30Z</time>
  <course>10.39</course>
  <speed>0.053851648071345036</speed>
  <fix>3d</fix>
</trkpt>
<trkpt lat="-27.2721925" lon="151.2900636">
  <ele>415.86</ele>
  <time>2026-09-01T19:59:30Z</time>
  <course>90.84</course>
  <speed>0.04</speed>
  <fix>3d</fix>
</trkpt>
<trkpt lat="-27.2721927" lon="151.2900638">
  <ele>415.12</ele>
  <time>2026-09-01T19:59:30Z</time>
  <course>10.38</course>
  <speed>0.044721359549995794</speed>
  <fix>3d</fix>
</trkpt>
<trkpt lat="-27.2721925" lon="151.2900637">
  <ele>415.56</ele>
  <time>2026-09-01T19:59:30Z</time>
  <course>90.47</course>
  <speed>0.04</speed>
  <fix>3d</fix>
</trkpt>
<trkpt lat="-27.2721927" lon="151.2900639">
  <ele>414.97</ele>
  <time>2026-09-01T19:59:30Z</time>
  <course>10.38</course>
  <speed>0.044721359549995794</speed>
  <fix>3d</fix>
</trkpt>
<trkpt lat="-27.2721925" lon="151.2900637">
  <ele>415.56</ele>
  <time>2026-09-01T19:59:30Z</time>
  <course>90.47</course>
  <speed>0.04</speed>
  <fix>3d</fix>
</trkpt>
<trkpt lat="-27.2721927" lon="151.2900639">
  <ele>414.82</ele>
  <time>2026-09-01T19:59:30Z</time>
  <course>10.38</course>
  <speed>0.044721359549995794</speed>
  <fix>3d</fix>
</trkpt>
<trkpt lat="-27.2721925" lon="151.2900637">
  <ele>415.26</ele>
  <time>2026-09-01T19:59:30Z</time>
  <course>90.03</course>
  <speed>0.03</speed>
  <fix>3d</fix>
</trkpt>
<trkpt lat="-27.2721927" lon="151.2900639">
  <ele>414.67</ele>
  <time>2026-09-01T19:59:30Z</time>
  <course>10.37</course>
  <speed>0.044721359549995794</speed>
  <fix>3d</fix>
</trkpt>
<trkpt lat="-27.2721925" lon="151.2900637">
  <ele>415.26</ele>
  <time>2026-09-01T19:59:30Z</time>
  <course>90.03</course>
  <speed>0.03</speed>
  <fix>3d</fix>
</trkpt>
<trkpt lat="-27.2721927" lon="151.290064">
  <ele>414.53</ele>
  <time>2026-09-01T19:59:30Z</time>
  <course>10.38</course>
  <speed>0.044721359549995794</speed>
  <fix>3d</fix>
</trkpt>
<trkpt lat="-27.2721925" lon="151.2900638">
  <ele>414.96</ele>
  <time>2026-09-01T19:59:30Z</time>
  <course>89.84</course>
  <speed>0.03</speed>
  <fix>3d</fix>
</trkpt>
<trkpt lat="-27.2721927" lon="151.290064">
  <ele>414.38</ele>
  <time>2026-09-01T19:59:30Z</time>
  <course>10.38</course>
  <speed>0.03605551275463989</speed>
  <fix>3d</fix>
</trkpt>
<trkpt lat="-27.2721925" lon="151.2900638">
  <ele>414.96</ele>
  <time>2026-09-01T19:59:30Z</time>
  <course>89.84</course>
  <speed>0.03</speed>
  <fix>3d</fix>
</trkpt>
<trkpt lat="-27.2721927" lon="151.290064">
  <ele>414.22</ele>
  <time>2026-09-01T19:59:30Z</time>
  <course>10.39</course>
  <speed>0.03605551275463989</speed>
  <fix>3d</fix>
</trkpt>
<trkpt lat="-27.2721925" lon="151.2900639">
  <ele>414.66</ele>
  <time>2026-09-01T19:59:30Z</time>
  <course>89.23</course>
  <speed>0.03</speed>
  <fix>3d</fix>
</trkpt>
<trkpt lat="-27.2721927" lon="151.290064">
  <ele>414.07</ele>
  <time>2026-09-01T19:59:30Z</time>
  <course>10.4</course>
  <speed>0.03605551275463989</speed>
  <fix>3d</fix>
</trkpt>
<trkpt lat="-27.2721925" lon="151.2900639">
  <ele>414.66</ele>
  <time>2026-09-01T19:59:30Z</time>
  <course>89.23</course>
  <speed>0.03</speed>
  <fix>3d</fix>
</trkpt>
<trkpt lat="-27.2721927" lon="151.290064">
  <ele>413.92</ele>
  <time>2026-09-01T19:59:30Z</time>
  <course>10.4</course>
  <speed>0.0282842712474619</speed>
  <fix>3d</fix>
</trkpt>
<trkpt lat="-27.2721925" lon="151.290064">
  <ele>414.36</ele>
  <time>2026-09-01T19:59:30Z</time>
  <course>87.06</course>
  <speed>0.02</speed>
  <fix>3d</fix>
</trkpt>
<trkpt lat="-27.2721927" lon="151.2900641">
  <ele>413.77</ele>
  <time>2026-09-01T19:59:30Z</time>
  <course>10.41</course>
  <speed>0.0282842712474619</speed>
  <fix>3d</fix>
</trkpt>
<trkpt lat="-27.2721925" lon="151.290064">
  <ele>414.36</ele>
  <time>2026-09-01T19:59:30Z</time>
  <course>87.06</course>
  <speed>0.02</speed>
  <fix>3d</fix>
</trkpt>
<trkpt lat="-27.2721927" lon="151.2900641">
  <ele>413.61</ele>
  <time>2026-09-01T19:59:30Z</time>
  <course>10.41</course>
  <speed>0.0282842712474619</speed>
  <fix>3d</fix>
</trkpt>
<trkpt lat="-27.2721925" lon="151.290064">
  <ele>414.06</ele>
  <time>2026-09-01T19:59:30Z</time>
  <course>83.51</course>
  <speed>0.02</speed>
  <fix>3d</fix>
</trkpt>
<trkpt lat="-27.2721927" lon="151.2900641">
  <ele>413.46</ele>
  <time>2026-09-01T19:59:30Z</time>
  <course>10.43</course>
  <speed>0.0282842712474619</speed>
  <fix>3d</fix>
</trkpt>
<trkpt lat="-27.2721925" lon="151.290064">
  <ele>414.06</ele>
  <time>2026-09-01T19:59:30Z</time>
  <course>83.51</course>
  <speed>0.02</speed>
  <fix>3d</fix>
</trkpt>
<trkpt lat="-27.2721927" lon="151.2900641">
  <ele>413.31</ele>
  <time>2026-09-01T19:59:30Z</time>
  <course>10.44</course>
  <speed>0.022360679774997897</speed>
  <fix>3d</fix>
</trkpt>
<trkpt lat="-27.2721925" lon="151.2900641">
  <ele>413.76</ele>
  <time>2026-09-01T19:59:30Z</time>
  <course>78.33</course>
  <speed>0.01</speed>
  <fix>3d</fix>
</trkpt>
<trkpt lat="-27.2721927" lon="151.2900641">
  <ele>413.16</ele>
  <time>2026-09-01T19:59:30Z</time>
  <course>10.47</course>
  <speed>0.022360679774997897</speed>
  <fix>3d</fix>
</trkpt>
<trkpt lat="-27.2721925" lon="151.2900641">
  <ele>413.76</ele>
  <time>2026-09-01T19:59:30Z</time>
  <course>78.33</course>
  <speed>0.01</speed>
  <fix>3d</fix>
</trkpt>
<trkpt lat="-27.2721927" lon="151.2900641">
  <ele>413.0</ele>
  <time>2026-09-01T19:59:30Z</time>
  <course>10.5</course>
  <speed>0.02</speed>
  <fix>3d</fix>
</trkpt>
<trkpt lat="-27.2721925" lon="151.2900641">
  <ele>413.46</ele>
  <time>2026-09-01T19:59:30Z</time>
  <course>64.94</course>
  <speed>0.0</speed>
  <fix>3d</fix>
</trkpt>
<trkpt lat="-27.2721927" lon="151.2900641">
  <ele>412.85</ele>
  <time>2026-09-01T19:59:30Z</time>
  <course>10.54</course>
  <speed>0.02</speed>
  <fix>3d</fix>
</trkpt>
<trkpt lat="-27.2721925" lon="151.2900641">
  <ele>413.46</ele>
  <time>2026-09-01T19:59:30Z</time>
  <course>64.94</course>
  <speed>0.0</speed>
  <fix>3d</fix>
</trkpt>
<trkpt lat="-27.2721927" lon="151.2900641">
  <ele>412.7</ele>
  <time>2026-09-01T19:59:30Z</time>
  <course>10.6</course>
  <speed>0.01</speed>
  <fix>3d</fix>
</trkpt>
<trkpt lat="-27.2721925" lon="151.2900641">
  <ele>413.16</ele>
  <time>2026-09-01T19:59:30Z</time>
  <course>333.66</course>
  <speed>0.0</speed>
  <fix>3d</fix>
</trkpt>
<trkpt lat="-27.2721927" lon="151.2900641">
  <ele>412.55</ele>
  <time>2026-09-01T19:59:30Z</time>
  <course>10.68</course>
  <speed>0.01414213562373095</speed>
  <fix>3d</fix>
</trkpt>
<trkpt lat="-27.2721925" lon="151.2900641">
  <ele>413.16</ele>
  <time>2026-09-01T19:59:30Z</time>
  <course>333.66</course>
  <speed>0.0</speed>
  <fix>3d</fix>
</trkpt>
<trkpt lat="-27.2721927" lon="151.2900641">
  <ele>412.41</ele>
  <time>2026-09-01T19:59:30Z</time>
  <course>10.82</course>
  <speed>0.01414213562373095</speed>
  <fix>3d</fix>
</trkpt>
<trkpt lat="-27.2721925" lon="151.2900641">
  <ele>412.86</ele>
  <time>2026-09-01T19:59:30Z</time>
  <course>289.72</course>
  <speed>0.01</speed>
  <fix>3d</fix>
</trkpt>
<trkpt lat="-27.2721927" lon="151.2900641">
  <ele>412.26</ele>
  <time>2026-09-01T19:59:30Z</time>
  <course>10.89</course>
  <speed>0.01414213562373095</speed>
  <fix>3d</fix>
</trkpt>
<trkpt lat="-27.2721925" lon="151.2900641">
  <ele>412.86</ele>
  <time>2026-09-01T19:59:30Z</time>
  <course>289.72</course>
  <speed>0.01</speed>
  <fix>3d</fix>
</trkpt>
<trkpt lat="-27.2721927" lon="151.2900641">
  <ele>412.11</ele>
  <time>2026-09-01T19:59:30Z</time>
  <course>10.86</course>
  <speed>0.022360679774997897</speed>
  <fix>3d</fix>
</trkpt>
<trkpt lat="-27.2721924" lon="151.2900641">
  <ele>412.56</ele>
  <time>2026-09-01T19:59:30Z</time>
  <course>283.85</course>
  <speed>0.02</speed>
  <fix>3d</fix>
</trkpt>
<trkpt lat="-27.2721927" lon="151.2900641">
  <ele>411.96</ele>
  <time>2026-09-01T19:59:30Z</time>
  <course>10.77</course>
  <speed>0.01414213562373095</speed>
  <fix>3d</fix>
</trkpt>
<trkpt lat="-27.2721924" lon="151.2900641">
  <ele>412.56</ele>
  <time>2026-09-01T19:59:30Z</time>
  <course>283.85</course>
  <speed>0.02</speed>
  <fix>3d</fix>
</trkpt>
<trkpt lat="-27.2721927" lon="151.2900641">
  <ele>411.81</ele>
  <time>2026-09-01T19:59:30Z</time>
  <course>10.65</course>
  <speed>0.01414213562373095</speed>
  <fix>3d</fix>
</trkpt>
<trkpt lat="-27.2721924" lon="151.2900641">
  <ele>412.27</ele>
  <time>2026-09-01T19:59:30Z</time>
  <course>282.54</course>
  <speed>0.03</speed>
  <fix>3d</fix>
</trkpt>
<trkpt lat="-27.2721927" lon="151.290064">
  <ele>411.66</ele>
  <time>2026-09-01T19:59:30Z</time>
  <course>10.51</course>
  <speed>0.01414213562373095</speed>
  <fix>3d</fix>
</trkpt>
<trkpt lat="-27.2721924" lon="151.2900641">
  <ele>412.27</ele>
  <time>2026-09-01T19:59:30Z</time>
  <course>282.54</course>
  <speed>0.03</speed>
  <fix>3d</fix>
</trkpt>
<trkpt lat="-27.2721927" lon="151.290064">
  <ele>411.52</ele>
  <time>2026-09-01T19:59:30Z</time>
  <course>10.39</course>
  <speed>0.01414213562373095</speed>
  <fix>3d</fix>
</trkpt>
<trkpt lat="-27.2721924" lon="151.290064">
  <ele>411.97</ele>
  <time>2026-09-01T19:59:30Z</time>
  <course>282.14</course>
  <speed>0.03</speed>
  <fix>3d</fix>
</trkpt>
<trkpt lat="-27.2721927" lon="151.290064">
  <ele>411.37</ele>
  <time>2026-09-01T19:59:30Z</time>
  <course>10.3</course>
  <speed>0.01414213562373095</speed>
  <fix>3d</fix>
</trkpt>
<trkpt lat="-27.2721924" lon="151.290064">
  <ele>411.97</ele>
  <time>2026-09-01T19:59:30Z</time>
  <course>282.14</course>
  <speed>0.03</speed>
  <fix>3d</fix>
</trkpt>
<trkpt lat="-27.2721926" lon="151.290064">
  <ele>411.22</ele>
  <time>2026-09-01T19:59:30Z</time>
  <course>10.23</course>
  <speed>0.01414213562373095</speed>
  <fix>3d</fix>
</trkpt>
<trkpt lat="-27.2721924" lon="151.2900639">
  <ele>411.67</ele>
  <time>2026-09-01T19:59:30Z</time>
  <course>281.17</course>
  <speed>0.03</speed>
  <fix>3d</fix>
</trkpt>
<trkpt lat="-27.2721926" lon="151.2900639">
  <ele>411.07</ele>
  <time>2026-09-01T19:59:30Z</time>
  <course>10.21</course>
  <speed>0.01414213562373095</speed>
  <fix>3d</fix>
</trkpt>
<trkpt lat="-27.2721924" lon="151.2900639">
  <ele>411.67</ele>
  <time>2026-09-01T19:59:30Z</time>
  <course>281.17</course>
  <speed>0.03</speed>
  <fix>3d</fix>
</trkpt>
<trkpt lat="-27.2721926" lon="151.2900639">
  <ele>410.92</ele>
  <time>2026-09-01T19:59:30Z</time>
  <course>10.22</course>
  <speed>0.01414213562373095</speed>
  <fix>3d</fix>
</trkpt>
<trkpt lat="-27.2721924" lon="151.2900639">
  <ele>411.38</ele>
  <time>2026-09-01T19:59:30Z</time>
  <course>279.67</course>
  <speed>0.03</speed>
  <fix>3d</fix>
</trkpt>
<trkpt lat="-27.2721926" lon="151.2900639">
  <ele>410.77</ele>
  <time>2026-09-01T19:59:30Z</time>
  <course>10.25</course>
  <speed>0.01414213562373095</speed>
  <fix>3d</fix>
</trkpt>
<trkpt lat="-27.2721924" lon="151.2900639">
  <ele>411.38</ele>
  <time>2026-09-01T19:59:30Z</time>
  <course>279.67</course>
  <speed>0.03</speed>
  <fix>3d</fix>
</trkpt>
<trkpt lat="-27.2721926" lon="151.2900639">
  <ele>410.62</ele>
  <time>2026-09-01T19:59:30Z</time>
  <course>10.3</course>
  <speed>0.01414213562373095</speed>
  <fix>3d</fix>
</trkpt>
<trkpt lat="-27.2721924" lon="151.2900638">
  <ele>411.08</ele>
  <time>2026-09-01T19:59:30Z</time>
  <course>277.77</course>
  <speed>0.03</speed>
  <fix>3d</fix>
</trkpt>
<trkpt lat="-27.2721926" lon="151.2900638">
  <ele>410.47</ele>
  <time>2026-09-01T19:59:30Z</time>
  <course>10.35</course>
  <speed>0.01414213562373095</speed>
  <fix>3d</fix>
</trkpt>
<trkpt lat="-27.2721924" lon="151.2900638">
  <ele>411.08</ele>
  <time>2026-09-01T19:59:30Z</time>
  <course>277.77</course>
  <speed>0.03</speed>
  <fix>3d</fix>
</trkpt>
<trkpt lat="-27.2721926" lon="151.2900638">
  <ele>410.32</ele>
  <time>2026-09-01T19:59:30Z</time>
  <course>10.39</course>
  <speed>0.01414213562373095</speed>
  <fix>3d</fix>
</trkpt>
<trkpt lat="-27.2721924" lon="151.2900637">
  <ele>410.78</ele>
  <time>2026-09-01T19:59:30Z</time>
  <course>276.16</course>
  <speed>0.03</speed>
  <fix>3d</fix>
</trkpt>
<trkpt lat="-27.2721926" lon="151.2900638">
  <ele>410.17</ele>
  <time>2026-09-01T19:59:30Z</time>
  <course>10.42</course>
  <speed>0.01414213562373095</speed>
  <fix>3d</fix>
</trkpt>
<trkpt lat="-27.2721924" lon="151.2900637">
  <ele>410.78</ele>
  <time>2026-09-01T19:59:30Z</time>
  <course>276.16</course>
  <speed>0.03</speed>
  <fix>3d</fix>
</trkpt>
<trkpt lat="-27.2721926" lon="151.2900638">
  <ele>410.02</ele>
  <time>2026-09-01T19:59:30Z</time>
  <course>10.45</course>
  <speed>0.01414213562373095</speed>
  <fix>3d</fix>
</trkpt>
<trkpt lat="-27.2721924" lon="151.2900637">
  <ele>410.47</ele>
  <time>2026-09-01T19:59:30Z</time>
  <course>275.14</course>
  <speed>0.03</speed>
  <fix>3d</fix>
</trkpt>
<trkpt lat="-27.2721926" lon="151.2900637">
  <ele>409.87</ele>
  <time>2026-09-01T19:59:30Z</time>
  <course>10.47</course>
  <speed>0.01414213562373095</speed>
  <fix>3d</fix>
</trkpt>
<trkpt lat="-27.2721924" lon="151.2900637">
  <ele>410.47</ele>
  <time>2026-09-01T19:59:30Z</time>
  <course>275.14</course>
  <speed>0.03</speed>
  <fix>3d</fix>
</trkpt>
<trkpt lat="-27.2721926" lon="151.2900637">
  <ele>409.72</ele>
  <time>2026-09-01T19:59:30Z</time>
  <course>10.5</course>
  <speed>0.01414213562373095</speed>
  <fix>3d</fix>
</trkpt>
<trkpt lat="-27.2721924" lon="151.2900636">
  <ele>410.18</ele>
  <time>2026-09-01T19:59:30Z</time>
  <course>275.03</course>
  <speed>0.03</speed>
  <fix>3d</fix>
</trkpt>
<trkpt lat="-27.2721926" lon="151.2900637">
  <ele>409.57</ele>
  <time>2026-09-01T19:59:30Z</time>
  <course>10.52</course>
  <speed>0.022360679774997897</speed>
  <fix>3d</fix>
</trkpt>
<trkpt lat="-27.2721924" lon="151.2900636">
  <ele>410.18</ele>
  <time>2026-09-01T19:59:30Z</time>
  <course>275.03</course>
  <speed>0.03</speed>
  <fix>3d</fix>
</trkpt>
<trkpt lat="-27.2721926" lon="151.2900636">
  <ele>409.42</ele>
  <time>2026-09-01T19:59:30Z</time>
  <course>10.55</course>
  <speed>0.01414213562373095</speed>
  <fix>3d</fix>
</trkpt>
<trkpt lat="-27.2721924" lon="151.2900635">
  <ele>409.88</ele>
  <time>2026-09-01T19:59:30Z</time>
  <course>275.74</course>
  <speed>0.03</speed>
  <fix>3d</fix>
</trkpt>
<trkpt lat="-27.2721926" lon="151.2900636">
  <ele>409.27</ele>
  <time>2026-09-01T19:59:30Z</time>
  <course>10.57</course>
  <speed>0.01414213562373095</speed>
  <fix>3d</fix>
</trkpt>
<trkpt lat="-27.2721924" lon="151.2900635">
  <ele>409.88</ele>
  <time>2026-09-01T19:59:30Z</time>
  <course>275.74</course>
  <speed>0.03</speed>
  <fix>3d</fix>
</trkpt>
<trkpt lat="-27.2721926" lon="151.2900636">
  <ele>409.12</ele>
  <time>2026-09-01T19:59:30Z</time>
  <course>10.59</course>
  <speed>0.022360679774997897</speed>
  <fix>3d</fix>
</trkpt>
<trkpt lat="-27.2721924" lon="151.2900634">
  <ele>409.58</ele>
  <time>2026-09-01T19:59:30Z</time>
  <course>276.44</course>
  <speed>0.03</speed>
  <fix>3d</fix>
</trkpt>
<trkpt lat="-27.2721926" lon="151.2900635">
  <ele>408.97</ele>
  <time>2026-09-01T19:59:30Z</time>
  <course>10.61</course>
  <speed>0.022360679774997897</speed>
  <fix>3d</fix>
</trkpt>
<trkpt lat="-27.2721924" lon="151.2900634">
  <ele>409.58</ele>
  <time>2026-09-01T19:59:30Z</time>
  <course>276.44</course>
  <speed>0.03</speed>
  <fix>3d</fix>
</trkpt>
<trkpt lat="-27.2721926" lon="151.2900635">
  <ele>408.82</ele>
  <time>2026-09-01T19:59:30Z</time>
  <course>10.62</course>
  <speed>0.01414213562373095</speed>
  <fix>3d</fix>
</trkpt>
<trkpt lat="-27.2721923" lon="151.2900633">
  <ele>409.28</ele>
  <time>2026-09-01T19:59:30Z</time>
  <course>276.99</course>
  <speed>0.03</speed>
  <fix>3d</fix>
</trkpt>
<trkpt lat="-27.2721926" lon="151.2900634">
  <ele>408.67</ele>
  <time>2026-09-01T19:59:30Z</time>
  <course>10.64</course>
  <speed>0.01414213562373095</speed>
  <fix>3d</fix>
</trkpt>
<trkpt lat="-27.2721923" lon="151.2900633">
  <ele>409.28</ele>
  <time>2026-09-01T19:59:30Z</time>
  <course>276.99</course>
  <speed>0.03</speed>
  <fix>3d</fix>
</trkpt>
<trkpt lat="-27.2721926" lon="151.2900634">
  <ele>408.52</ele>
  <time>2026-09-01T19:59:30Z</time>
  <course>10.65</course>
  <speed>0.01414213562373095</speed>
  <fix>3d</fix>
</trkpt>
<trkpt lat="-27.2721923" lon="151.2900633">
  <ele>408.97</ele>
  <time>2026-09-01T19:59:30Z</time>
  <course>277.59</course>
  <speed>0.03</speed>
  <fix>3d</fix>
</trkpt>
<trkpt lat="-27.2721926" lon="151.2900634">
  <ele>408.37</ele>
  <time>2026-09-01T19:59:30Z</time>
  <course>10.65</course>
  <speed>0.01414213562373095</speed>
  <fix>3d</fix>
</trkpt>
<trkpt lat="-27.2721923" lon="151.2900633">
  <ele>408.97</ele>
  <time>2026-09-01T19:59:30Z</time>
  <course>277.59</course>
  <speed>0.03</speed>
  <fix>3d</fix>
</trkpt>
<trkpt lat="-27.2721925" lon="151.2900633">
  <ele>408.22</ele>
  <time>2026-09-01T19:59:30Z</time>
  <course>10.65</course>
  <speed>0.01</speed>
  <fix>3d</fix>
</trkpt>
<trkpt lat="-27.2721923" lon="151.2900632">
  <ele>408.68</ele>
  <time>2026-09-01T19:59:30Z</time>
  <course>278.13</course>
  <speed>0.03</speed>
  <fix>3d</fix>
</trkpt>
<trkpt lat="-27.2721925" lon="151.2900633">
  <ele>408.07</ele>
  <time>2026-09-01T19:59:30Z</time>
  <course>10.66</course>
  <speed>0.02</speed>
  <fix>3d</fix>
</trkpt>
<trkpt lat="-27.2721923" lon="151.2900632">
  <ele>408.68</ele>
  <time>2026-09-01T19:59:30Z</time>
  <course>278.13</course>
  <speed>0.03</speed>
  <fix>3d</fix>
</trkpt>
<trkpt lat="-27.2721925" lon="151.2900633">
  <ele>407.92</ele>
  <time>2026-09-01T19:59:30Z</time>
  <course>10.66</course>
  <speed>0.01</speed>
  <fix>3d</fix>
</trkpt>
<trkpt lat="-27.2721923" lon="151.2900631">
  <ele>408.38</ele>
  <time>2026-09-01T19:59:30Z</time>
  <course>278.2</course>
  <speed>0.03</speed>
  <fix>3d</fix>
</trkpt>
<trkpt lat="-27.2721925" lon="151.2900633">
  <ele>407.77</ele>
  <time>2026-09-01T19:59:30Z</time>
  <course>10.66</course>
  <speed>0.01414213562373095</speed>
  <fix>3d</fix>
</trkpt>
<trkpt lat="-27.2721923" lon="151.2900631">
  <ele>408.38</ele>
  <time>2026-09-01T19:59:30Z</time>
  <course>278.2</course>
  <speed>0.03</speed>
  <fix>3d</fix>
</trkpt>
<trkpt lat="-27.2721925" lon="151.2900632">
  <ele>407.63</ele>
  <time>2026-09-01T19:59:30Z</time>
  <course>10.67</course>
  <speed>0.01414213562373095</speed>
  <fix>3d</fix>
</trkpt>
<trkpt lat="-27.2721923" lon="151.2900631">
  <ele>408.08</ele>
  <time>2026-09-01T19:59:30Z</time>
  <course>278.4</course>
  <speed>0.03</speed>
  <fix>3d</fix>
</trkpt>
<trkpt lat="-27.2721925" lon="151.2900632">
  <ele>407.48</ele>
  <time>2026-09-01T19:59:30Z</time>
  <course>10.69</course>
  <speed>0.01414213562373095</speed>
  <fix>3d</fix>
</trkpt>
<trkpt lat="-27.2721923" lon="151.2900631">
  <ele>408.08</ele>
  <time>2026-09-01T19:59:30Z</time>
  <course>278.4</course>
  <speed>0.03</speed>
  <fix>3d</fix>
</trkpt>
<trkpt lat="-27.2721925" lon="151.2900632">
  <ele>407.33</ele>
  <time>2026-09-01T19:59:30Z</time>
  <course>10.73</course>
  <speed>0.01414213562373095</speed>
  <fix>3d</fix>
</trkpt>
<trkpt lat="-27.2721923" lon="151.290063">
  <ele>407.78</ele>
  <time>2026-09-01T19:59:30Z</time>
  <course>278.4</course>
  <speed>0.04</speed>
  <fix>3d</fix>
</trkpt>
<trkpt lat="-27.2721925" lon="151.2900631">
  <ele>407.18</ele>
  <time>2026-09-01T19:59:30Z</time>
  <course>10.78</course>
  <speed>0.01414213562373095</speed>
  <fix>3d</fix>
</trkpt>
<trkpt lat="-27.2721923" lon="151.290063">
  <ele>407.78</ele>
  <time>2026-09-01T19:59:30Z</time>
  <course>278.4</course>
  <speed>0.04</speed>
  <fix>3d</fix>
</trkpt>
<trkpt lat="-27.2721925" lon="151.2900631">
  <ele>407.03</ele>
  <time>2026-09-01T19:59:30Z</time>
  <course>10.84</course>
  <speed>0.01414213562373095</speed>
  <fix>3d</fix>
</trkpt>
<trkpt lat="-27.2721923" lon="151.2900629">
  <ele>407.47</ele>
  <time>2026-09-01T19:59:30Z</time>
  <course>277.98</course>
  <speed>0.04</speed>
  <fix>3d</fix>
</trkpt>
<trkpt lat="-27.2721925" lon="151.290063">
  <ele>406.88</ele>
  <time>2026-09-01T19:59:30Z</time>
  <course>10.89</course>
  <speed>0.01414213562373095</speed>
  <fix>3d</fix>
</trkpt>
<trkpt lat="-27.2721923" lon="151.2900629">
  <ele>407.47</ele>
  <time>2026-09-01T19:59:30Z</time>
  <course>277.98</course>
  <speed>0.04</speed>
  <fix>3d</fix>
</trkpt>
<trkpt lat="-27.2721925" lon="151.290063">
  <ele>406.73</ele>
  <time>2026-09-01T19:59:30Z</time>
  <course>10.95</course>
  <speed>0.01414213562373095</speed>
  <fix>3d</fix>
</trkpt>
<trkpt lat="-27.2721923" lon="151.2900628">
  <ele>407.18</ele>
  <time>2026-09-01T19:59:30Z</time>
  <course>277.79</course>
  <speed>0.04</speed>
  <fix>3d</fix>
</trkpt>
<trkpt lat="-27.2721925" lon="151.290063">
  <ele>406.57</ele>
  <time>2026-09-01T19:59:30Z</time>
  <course>11.01</course>
  <speed>0.022360679774997897</speed>
  <fix>3d</fix>
</trkpt>
<trkpt lat="-27.2721923" lon="151.2900628">
  <ele>407.18</ele>
  <time>2026-09-01T19:59:30Z</time>
  <course>277.79</course>
  <speed>0.04</speed>
  <fix>3d</fix>
</trkpt>
<trkpt lat="-27.2721925" lon="151.2900629">
  <ele>406.42</ele>
  <time>2026-09-01T19:59:30Z</time>
  <course>11.06</course>
  <speed>0.022360679774997897</speed>
  <fix>3d</fix>
</trkpt>
<trkpt lat="-27.2721923" lon="151.2900627">
  <ele>406.88</ele>
  <time>2026-09-01T19:59:30Z</time>
  <course>278.11</course>
  <speed>0.04</speed>
  <fix>3d</fix>
</trkpt>
<trkpt lat="-27.2721925" lon="151.2900629">
  <ele>406.27</ele>
  <time>2026-09-01T19:59:30Z</time>
  <course>11.1</course>
  <speed>0.022360679774997897</speed>
  <fix>3d</fix>
</trkpt>
<trkpt lat="-27.2721923" lon="151.2900627">
  <ele>406.88</ele>
  <time>2026-09-01T19:59:30Z</time>
  <course>278.11</course>
  <speed>0.04</speed>
  <fix>3d</fix>
</trkpt>
<trkpt lat="-27.2721925" lon="151.2900628">
  <ele>406.12</ele>
  <time>2026-09-01T19:59:30Z</time>
  <course>11.15</course>
  <speed>0.022360679774997897</speed>
  <fix>3d</fix>
</trkpt>
<trkpt lat="-27.2721923" lon="151.2900626">
  <ele>406.57</ele>
  <time>2026-09-01T19:59:30Z</time>
  <course>278.71</course>
  <speed>0.04</speed>
  <fix>3d</fix>
</trkpt>
<trkpt lat="-27.2721925" lon="151.2900627">
  <ele>405.97</ele>
  <time>2026-09-01T19:59:30Z</time>
  <course>11.19</course>
  <speed>0.022360679774997897</speed>
  <fix>3d</fix>
</trkpt>
<trkpt lat="-27.2721923" lon="151.2900626">
  <ele>406.57</ele>
  <time>2026-09-01T19:59:30Z</time>
  <course>278.71</course>
  <speed>0.04</speed>
  <fix>3d</fix>
</trkpt>
<trkpt lat="-27.2721925" lon="151.2900627">
  <ele>405.82</ele>
  <time>2026-09-01T19:59:30Z</time>
  <course>11.24</course>
  <speed>0.0316227766016838</speed>
  <fix>3d</fix>
</trkpt>
<trkpt lat="-27.2721922" lon="151.2900625">
  <ele>406.27</ele>
  <time>2026-09-01T19:59:30Z</time>
  <course>279.28</course>
  <speed>0.04</speed>
  <fix>3d</fix>
</trkpt>
<trkpt lat="-27.2721925" lon="151.2900626">
  <ele>405.67</ele>
  <time>2026-09-01T19:59:30Z</time>
  <course>11.29</course>
  <speed>0.0316227766016838</speed>
  <fix>3d</fix>
</trkpt>
<trkpt lat="-27.2721922" lon="151.2900625">
  <ele>406.27</ele>
  <time>2026-09-01T19:59:30Z</time>
  <course>279.28</course>
  <speed>0.04</speed>
  <fix>3d</fix>
</trkpt>
<trkpt lat="-27.2721925" lon="151.2900626">
  <ele>405.52</ele>
  <time>2026-09-01T19:59:30Z</time>
  <course>11.35</course>
  <speed>0.0316227766016838</speed>
  <fix>3d</fix>
</trkpt>
<trkpt lat="-27.2721922" lon="151.2900624">
  <ele>405.97</ele>
  <time>2026-09-01T19:59:30Z</time>
  <course>280.06</course>
  <speed>0.04</speed>
  <fix>3d</fix>
</trkpt>
<trkpt lat="-27.2721925" lon="151.2900625">
  <ele>405.37</ele>
  <time>2026-09-01T19:59:30Z</time>
  <course>11.41</course>
  <speed>0.0316227766016838</speed>
  <fix>3d</fix>
</trkpt>
<trkpt lat="-27.2721922" lon="151.2900624">
  <ele>405.97</ele>
  <time>2026-09-01T19:59:30Z</time>
  <course>280.06</course>
  <speed>0.04</speed>
  <fix>3d</fix>
</trkpt>
<trkpt lat="-27.2721924" lon="151.2900625">
  <ele>405.21</ele>
  <time>2026-09-01T19:59:30Z</time>
  <course>11.47</course>
  <speed>0.0316227766016838</speed>
  <fix>3d</fix>
</trkpt>
<trkpt lat="-27.2721922" lon="151.2900623">
  <ele>405.66</ele>
  <time>2026-09-01T19:59:30Z</time>
  <course>281.08</course>
  <speed>0.05</speed>
  <fix>3d</fix>
</trkpt>
<trkpt lat="-27.2721924" lon="151.2900624">
  <ele>405.06</ele>
  <time>2026-09-01T19:59:30Z</time>
  <course>11.53</course>
  <speed>0.0316227766016838</speed>
  <fix>3d</fix>
</trkpt>
<trkpt lat="-27.2721922" lon="151.2900623">
  <ele>405.66</ele>
  <time>2026-09-01T19:59:30Z</time>
  <course>281.08</course>
  <speed>0.05</speed>
  <fix>3d</fix>
</trkpt>
<trkpt lat="-27.2721924" lon="151.2900623">
  <ele>404.91</ele>
  <time>2026-09-01T19:59:30Z</time>
  <course>11.58</course>
  <speed>0.0316227766016838</speed>
  <fix>3d</fix>
</trkpt>
<trkpt lat="-27.2721922" lon="151.2900622">
  <ele>405.37</ele>
  <time>2026-09-01T19:59:30Z</time>
  <course>282.09</course>
  <speed>0.05</speed>
  <fix>3d</fix>
</trkpt>
<trkpt lat="-27.2721924" lon="151.2900623">
  <ele>404.75</ele>
  <time>2026-09-01T19:59:30Z</time>
  <course>11.63</course>
  <speed>0.03</speed>
  <fix>3d</fix>
</trkpt>
<trkpt lat="-27.2721922" lon="151.2900622">
  <ele>405.37</ele>
  <time>2026-09-01T19:59:30Z</time>
  <course>282.09</course>
  <speed>0.05</speed>
  <fix>3d</fix>
</trkpt>
<trkpt lat="-27.2721924" lon="151.2900622">
  <ele>404.6</ele>
  <time>2026-09-01T19:59:30Z</time>
  <course>11.69</course>
  <speed>0.03</speed>
  <fix>3d</fix>
</trkpt>
<trkpt lat="-27.2721922" lon="151.2900621">
  <ele>405.07</ele>
  <time>2026-09-01T19:59:30Z</time>
  <course>283.03</course>
  <speed>0.05</speed>
  <fix>3d</fix>
</trkpt>
<trkpt lat="-27.2721924" lon="151.2900622">
  <ele>404.45</ele>
  <time>2026-09-01T19:59:30Z</time>
  <course>11.72</course>
  <speed>0.03</speed>
  <fix>3d</fix>
</trkpt>
<trkpt lat="-27.2721922" lon="151.2900621">
  <ele>405.07</ele>
  <time>2026-09-01T19:59:30Z</time>
  <course>283.03</course>
  <speed>0.05</speed>
  <fix>3d</fix>
</trkpt>
<trkpt lat="-27.2721924" lon="151.2900621">
  <ele>404.3</ele>
  <time>2026-09-01T19:59:30Z</time>
  <course>11.63</course>
  <speed>0.022360679774997897</speed>
  <fix>3d</fix>
</trkpt>
<trkpt lat="-27.2721921" lon="151.290062">
  <ele>404.77</ele>
  <time>2026-09-01T19:59:30Z</time>
  <course>284.16</course>
  <speed>0.05</speed>
  <fix>3d</fix>
</trkpt>
<trkpt lat="-27.2721924" lon="151.2900621">
  <ele>404.16</ele>
  <time>2026-09-01T19:59:30Z</time>
  <course>11.34</course>
  <speed>0.01</speed>
  <fix>3d</fix>
</trkpt>
<trkpt lat="-27.2721921" lon="151.290062">
  <ele>404.77</ele>
  <time>2026-09-01T19:59:30Z</time>
  <course>284.16</course>
  <speed>0.05</speed>
  <fix>3d</fix>
</trkpt>
<trkpt lat="-27.2721923" lon="151.2900621">
  <ele>404.01</ele>
  <time>2026-09-01T19:59:30Z</time>
  <course>10.91</course>
  <speed>0.01414213562373095</speed>
  <fix>3d</fix>
</trkpt>
<trkpt lat="-27.2721921" lon="151.2900619">
  <ele>404.47</ele>
  <time>2026-09-01T19:59:30Z</time>
  <course>286.6</course>
  <speed>0.03</speed>
  <fix>3d</fix>
</trkpt>
<trkpt lat="-27.2721923" lon="151.2900621">
  <ele>403.86</ele>
  <time>2026-09-01T19:59:30Z</time>
  <course>10.43</course>
  <speed>0.0282842712474619</speed>
  <fix>3d</fix>
</trkpt>
<trkpt lat="-27.2721921" lon="151.2900619">
  <ele>404.47</ele>
  <time>2026-09-01T19:59:30Z</time>
  <course>286.6</course>
  <speed>0.03</speed>
  <fix>3d</fix>
</trkpt>
<trkpt lat="-27.2721923" lon="151.290062">
  <ele>403.71</ele>
  <time>2026-09-01T19:59:30Z</time>
  <course>9.98</course>
  <speed>0.044721359549995794</speed>
  <fix>3d</fix>
</trkpt>
<trkpt lat="-27.2721921" lon="151.2900618">
  <ele>404.18</ele>
  <time>2026-09-01T19:59:30Z</time>
  <course>315.23</course>
  <speed>0.0</speed>
  <fix>3d</fix>
</trkpt>
<trkpt lat="-27.2721923" lon="151.290062">
  <ele>403.56</ele>
  <time>2026-09-01T19:59:30Z</time>
  <course>9.62</course>
  <speed>0.053851648071345036</speed>
  <fix>3d</fix>
</trkpt>
<trkpt lat="-27.2721921" lon="151.2900618">
  <ele>404.18</ele>
  <time>2026-09-01T19:59:30Z</time>
  <course>315.23</course>
  <speed>0.0</speed>
  <fix>3d</fix>
</trkpt>
<trkpt lat="-27.2721923" lon="151.2900621">
  <ele>403.41</ele>
  <time>2026-09-01T19:59:30Z</time>
  <course>9.39</course>
  <speed>0.07615773105863909</speed>
  <fix>3d</fix>
</trkpt>
<trkpt lat="-27.2721921" lon="151.2900618">
  <ele>403.88</ele>
  <time>2026-09-01T19:59:30Z</time>
  <course>94.77</course>
  <speed>0.02</speed>
  <fix>3d</fix>
</trkpt>
<trkpt lat="-27.2721923" lon="151.2900621">
  <ele>403.26</ele>
  <time>2026-09-01T19:59:30Z</time>
  <course>9.28</course>
  <speed>0.0854400374531753</speed>
  <fix>3d</fix>
</trkpt>
<trkpt lat="-27.2721921" lon="151.2900618">
  <ele>403.88</ele>
  <time>2026-09-01T19:59:30Z</time>
  <course>94.77</course>
  <speed>0.02</speed>
  <fix>3d</fix>
</trkpt>
<trkpt lat="-27.2721923" lon="151.2900622">
  <ele>403.11</ele>
  <time>2026-09-01T19:59:30Z</time>
  <course>9.28</course>
  <speed>0.09848857801796104</speed>
  <fix>3d</fix>
</trkpt>
<trkpt lat="-27.2721921" lon="151.2900619">
  <ele>403.58</ele>
  <time>2026-09-01T19:59:30Z</time>
  <course>99.68</course>
  <speed>0.06</speed>
  <fix>3d</fix>
</trkpt>
<trkpt lat="-27.2721923" lon="151.2900623">
  <ele>402.96</ele>
  <time>2026-09-01T19:59:30Z</time>
  <course>9.36</course>
  <speed>0.10770329614269007</speed>
  <fix>3d</fix>
</trkpt>
<trkpt lat="-27.2721921" lon="151.2900619">
  <ele>403.58</ele>
  <time>2026-09-01T19:59:30Z</time>
  <course>99.68</course>
  <speed>0.06</speed>
  <fix>3d</fix>
</trkpt>
<trkpt lat="-27.2721923" lon="151.2900624">
  <ele>402.81</ele>
  <time>2026-09-01T19:59:30Z</time>
  <course>9.48</course>
  <speed>0.11704699910719625</speed>
  <fix>3d</fix>
</trkpt>
<trkpt lat="-27.2721921" lon="151.2900621">
  <ele>403.29</ele>
  <time>2026-09-01T19:59:30Z</time>
  <course>101.66</course>
  <speed>0.08</speed>
  <fix>3d</fix>
</trkpt>
<trkpt lat="-27.2721923" lon="151.2900625">
  <ele>402.67</ele>
  <time>2026-09-01T19:59:30Z</time>
  <course>9.61</course>
  <speed>0.1264911064067352</speed>
  <fix>3d</fix>
</trkpt>
<trkpt lat="-27.2721921" lon="151.2900621">
  <ele>403.29</ele>
  <time>2026-09-01T19:59:30Z</time>
  <course>101.66</course>
  <speed>0.08</speed>
  <fix>3d</fix>
</trkpt>
<trkpt lat="-27.2721924" lon="151.2900626">
  <ele>402.52</ele>
  <time>2026-09-01T19:59:30Z</time>
  <course>9.74</course>
  <speed>0.1392838827718412</speed>
  <fix>3d</fix>
</trkpt>
<trkpt lat="-27.2721921" lon="151.2900623">
  <ele>402.99</ele>
  <time>2026-09-01T19:59:30Z</time>
  <course>102.59</course>
  <speed>0.1</speed>
  <fix>3d</fix>
</trkpt>
<trkpt lat="-27.2721924" lon="151.2900627">
  <ele>402.37</ele>
  <time>2026-09-01T19:59:30Z</time>
  <course>9.84</course>
  <speed>0.1392838827718412</speed>
  <fix>3d</fix>
</trkpt>
<trkpt lat="-27.2721921" lon="151.2900623">
  <ele>402.99</ele>
  <time>2026-09-01T19:59:30Z</time>
  <course>102.59</course>
  <speed>0.1</speed>
  <fix>3d</fix>
</trkpt>
<trkpt lat="-27.2721924" lon="151.2900628">
  <ele>402.22</ele>
  <time>2026-09-01T19:59:30Z</time>
  <course>9.91</course>
  <speed>0.14866068747318506</speed>
  <fix>3d</fix>
</trkpt>
<trkpt lat="-27.2721921" lon="151.2900624">
  <ele>402.69</ele>
  <time>2026-09-01T19:59:30Z</time>
  <course>102.99</course>
  <speed>0.12</speed>
  <fix>3d</fix>
</trkpt>
<trkpt lat="-27.2721924" lon="151.290063">
  <ele>402.07</ele>
  <time>2026-09-01T19:59:30Z</time>
  <course>9.95</course>
  <speed>0.14866068747318506</speed>
  <fix>3d</fix>
</trkpt>
<trkpt lat="-27.2721921" lon="151.2900624">
  <ele>402.69</ele>
  <time>2026-09-01T19:59:30Z</time>
  <course>102.99</course>
  <speed>0.12</speed>
  <fix>3d</fix>
</trkpt>
<trkpt lat="-27.2721924" lon="151.2900631">
  <ele>401.92</ele>
  <time>2026-09-01T19:59:30Z</time>
  <course>9.96</course>
  <speed>0.15811388300841897</speed>
  <fix>3d</fix>
</trkpt>
<trkpt lat="-27.2721922" lon="151.2900627">
  <ele>402.39</ele>
  <time>2026-09-01T19:59:30Z</time>
  <course>103.21</course>
  <speed>0.13</speed>
  <fix>3d</fix>
</trkpt>
<trkpt lat="-27.2721925" lon="151.2900632">
  <ele>401.77</ele>
  <time>2026-09-01T19:59:30Z</time>
  <course>9.95</course>
  <speed>0.15811388300841897</speed>
  <fix>3d</fix>
</trkpt>
<trkpt lat="-27.2721922" lon="151.2900627">
  <ele>402.39</ele>
  <time>2026-09-01T19:59:30Z</time>
  <course>103.21</course>
  <speed>0.13</speed>
  <fix>3d</fix>
</trkpt>
<trkpt lat="-27.2721925" lon="151.2900634">
  <ele>401.62</ele>
  <time>2026-09-01T19:59:30Z</time>
  <course>9.92</course>
  <speed>0.15811388300841897</speed>
  <fix>3d</fix>
</trkpt>
<trkpt lat="-27.2721922" lon="151.290063">
  <ele>402.09</ele>
  <time>2026-09-01T19:59:30Z</time>
  <course>103.39</course>
  <speed>0.14</speed>
  <fix>3d</fix>
</trkpt>
<trkpt lat="-27.2721925" lon="151.2900635">
  <ele>401.47</ele>
  <time>2026-09-01T19:59:30Z</time>
  <course>9.9</course>
  <speed>0.15811388300841897</speed>
  <fix>3d</fix>
</trkpt>
<trkpt lat="-27.2721922" lon="151.290063">
  <ele>402.09</ele>
  <time>2026-09-01T19:59:30Z</time>
  <course>103.39</course>
  <speed>0.14</speed>
  <fix>3d</fix>
</trkpt>
<trkpt lat="-27.2721925" lon="151.2900637">
  <ele>401.32</ele>
  <time>2026-09-01T19:59:30Z</time>
  <course>9.87</course>
  <speed>0.15811388300841897</speed>
  <fix>3d</fix>
</trkpt>
<trkpt lat="-27.2721923" lon="151.2900633">
  <ele>401.79</ele>
  <time>2026-09-01T19:59:30Z</time>
  <course>103.44</course>
  <speed>0.15</speed>
  <fix>3d</fix>
</trkpt>
<trkpt lat="-27.2721926" lon="151.2900638">
  <ele>401.17</ele>
  <time>2026-09-01T19:59:30Z</time>
  <course>9.85</course>
  <speed>0.15811388300841897</speed>
  <fix>3d</fix>
</trkpt>
<trkpt lat="-27.2721923" lon="151.2900633">
  <ele>401.79</ele>
  <time>2026-09-01T19:59:30Z</time>
  <course>103.44</course>
  <speed>0.15</speed>
  <fix>3d</fix>
</trkpt>
<trkpt lat="-27.2721926" lon="151.2900639">
  <ele>401.03</ele>
  <time>2026-09-01T19:59:30Z</time>
  <course>9.84</course>
  <speed>0.15811388300841897</speed>
  <fix>3d</fix>
</trkpt>
<trkpt lat="-27.2721923" lon="151.2900636">
  <ele>401.49</ele>
  <time>2026-09-01T19:59:30Z</time>
  <course>103.54</course>
  <speed>0.15</speed>
  <fix>3d</fix>
</trkpt>
<trkpt lat="-27.2721926" lon="151.2900641">
  <ele>400.88</ele>
  <time>2026-09-01T19:59:30Z</time>
  <course>9.83</course>
  <speed>0.14866068747318506</speed>
  <fix>3d</fix>
</trkpt>
<trkpt lat="-27.2721923" lon="151.2900636">
  <ele>401.49</ele>
  <time>2026-09-01T19:59:30Z</time>
  <course>103.54</course>
  <speed>0.15</speed>
  <fix>3d</fix>
</trkpt>
<trkpt lat="-27.2721926" lon="151.2900642">
  <ele>400.73</ele>
  <time>2026-09-01T19:59:30Z</time>
  <course>9.84</course>
  <speed>0.14866068747318506</speed>
  <fix>3d</fix>
</trkpt>
<trkpt lat="-27.2721924" lon="151.2900639">
  <ele>401.19</ele>
  <time>2026-09-01T19:59:30Z</time>
  <course>103.81</course>
  <speed>0.15</speed>
  <fix>3d</fix>
</trkpt>
<trkpt lat="-27.2721927" lon="151.2900644">
  <ele>400.57</ele>
  <time>2026-09-01T19:59:30Z</time>
  <course>9.85</course>
  <speed>0.1392838827718412</speed>
  <fix>3d</fix>
</trkpt>
<trkpt lat="-27.2721924" lon="151.2900639">
  <ele>401.19</ele>
  <time>2026-09-01T19:59:30Z</time>
  <course>103.81</course>
  <speed>0.15</speed>
  <fix>3d</fix>
</trkpt>
<trkpt lat="-27.2721927" lon="151.2900645">
  <ele>400.42</ele>
  <time>2026-09-01T19:59:30Z</time>
  <course>9.86</course>
  <speed>0.1392838827718412</speed>
  <fix>3d</fix>
</trkpt>
<trkpt lat="-27.2721925" lon="151.2900642">
  <ele>400.89</ele>
  <time>2026-09-01T19:59:30Z</time>
  <course>104.02</course>
  <speed>0.14</speed>
  <fix>3d</fix>
</trkpt>
<trkpt lat="-27.2721927" lon="151.2900646">
  <ele>400.27</ele>
  <time>2026-09-01T19:59:30Z</time>
  <course>9.88</course>
  <speed>0.1264911064067352</speed>
  <fix>3d</fix>
</trkpt>
<trkpt lat="-27.2721925" lon="151.2900642">
  <ele>400.89</ele>
  <time>2026-09-01T19:59:30Z</time>
  <course>104.02</course>
  <speed>0.14</speed>
  <fix>3d</fix>
</trkpt>
<trkpt lat="-27.2721927" lon="151.2900647">
  <ele>400.12</ele>
  <time>2026-09-01T19:59:30Z</time>
  <course>9.89</course>
  <speed>0.1264911064067352</speed>
  <fix>3d</fix>
</trkpt>
<trkpt lat="-27.2721925" lon="151.2900645">
  <ele>400.59</ele>
  <time>2026-09-01T19:59:30Z</time>
  <course>104.18</course>
  <speed>0.13</speed>
  <fix>3d</fix>
</trkpt>
<trkpt lat="-27.2721928" lon="151.2900648">
  <ele>399.97</ele>
  <time>2026-09-01T19:59:30Z</time>
  <course>9.91</course>
  <speed>0.11704699910719625</speed>
  <fix>3d</fix>
</trkpt>
<trkpt lat="-27.2721925" lon="151.2900645">
  <ele>400.59</ele>
  <time>2026-09-01T19:59:30Z</time>
  <course>104.18</course>
  <speed>0.13</speed>
  <fix>3d</fix>
</trkpt>
<trkpt lat="-27.2721928" lon="151.2900649">
  <ele>399.82</ele>
  <time>2026-09-01T19:59:30Z</time>
  <course>9.92</course>
  <speed>0.10770329614269007</speed>
  <fix>3d</fix>
</trkpt>
<trkpt lat="-27.2721926" lon="151.2900647">
  <ele>400.29</ele>
  <time>2026-09-01T19:59:30Z</time>
  <course>104.48</course>
  <speed>0.12</speed>
  <fix>3d</fix>
</trkpt>
<trkpt lat="-27.2721928" lon="151.290065">
  <ele>399.67</ele>
  <time>2026-09-01T19:59:30Z</time>
  <course>9.93</course>
  <speed>0.09848857801796104</speed>
  <fix>3d</fix>
</trkpt>
<trkpt lat="-27.2721926" lon="151.2900647">
  <ele>400.29</ele>
  <time>2026-09-01T19:59:30Z</time>
  <course>104.48</course>
  <speed>0.12</speed>
  <fix>3d</fix>
</trkpt>
<trkpt lat="-27.2721928" lon="151.2900651">
  <ele>399.52</ele>
  <time>2026-09-01T19:59:30Z</time>
  <course>9.94</course>
  <speed>0.09848857801796104</speed>
  <fix>3d</fix>
</trkpt>
<trkpt lat="-27.2721926" lon="151.290065">
  <ele>399.99</ele>
  <time>2026-09-01T19:59:30Z</time>
  <course>105.16</course>
  <speed>0.1</speed>
  <fix>3d</fix>
</trkpt>
<trkpt lat="-27.2721928" lon="151.2900652">
  <ele>399.37</ele>
  <time>2026-09-01T19:59:30Z</time>
  <course>9.95</course>
  <speed>0.08944271909999159</speed>
  <fix>3d</fix>
</trkpt>
<trkpt lat="-27.2721926" lon="151.290065">
  <ele>399.99</ele>
  <time>2026-09-01T19:59:30Z</time>
  <course>105.16</course>
  <speed>0.1</speed>
  <fix>3d</fix>
</trkpt>
<trkpt lat="-27.2721928" lon="151.2900653">
  <ele>399.22</ele>
  <time>2026-09-01T19:59:30Z</time>
  <course>9.97</course>
  <speed>0.07615773105863909</speed>
  <fix>3d</fix>
</trkpt>
<trkpt lat="-27.2721927" lon="151.2900651">
  <ele>399.69</ele>
  <time>2026-09-01T19:59:30Z</time>
  <course>106.52</course>
  <speed>0.09</speed>
  <fix>3d</fix>
</trkpt>
<trkpt lat="-27.2721929" lon="151.2900654">
  <ele>399.07</ele>
  <time>2026-09-01T19:59:30Z</time>
  <course>9.99</course>
  <speed>0.0670820393249937</speed>
  <fix>3d</fix>
</trkpt>
<trkpt lat="-27.2721927" lon="151.2900651">
  <ele>399.69</ele>
  <time>2026-09-01T19:59:30Z</time>
  <course>106.52</course>
  <speed>0.09</speed>
  <fix>3d</fix>
</trkpt>
<trkpt lat="-27.2721929" lon="151.2900654">
  <ele>398.92</ele>
  <time>2026-09-01T19:59:30Z</time>
  <course>10.01</course>
  <speed>0.05830951894845301</speed>
  <fix>3d</fix>
</trkpt>
<trkpt lat="-27.2721927" lon="151.2900653">
  <ele>399.39</ele>
  <time>2026-09-01T19:59:30Z</time>
  <course>108.7</course>
  <speed>0.07</speed>
  <fix>3d</fix>
</trkpt>
<trkpt lat="-27.2721929" lon="151.2900654">
  <ele>398.77</ele>
  <time>2026-09-01T19:59:30Z</time>
  <course>10.04</course>
  <speed>0.05</speed>
  <fix>3d</fix>
</trkpt>
<trkpt lat="-27.2721927" lon="151.2900653">
  <ele>399.39</ele>
  <time>2026-09-01T19:59:30Z</time>
  <course>108.7</course>
  <speed>0.07</speed>
  <fix>3d</fix>
</trkpt>
<trkpt lat="-27.2721929" lon="151.2900655">
  <ele>398.62</ele>
  <time>2026-09-01T19:59:30Z</time>
  <course>10.08</course>
  <speed>0.03605551275463989</speed>
  <fix>3d</fix>
</trkpt>
<trkpt lat="-27.2721928" lon="151.2900654">
  <ele>399.09</ele>
  <time>2026-09-01T19:59:30Z</time>
  <course>112.05</course>
  <speed>0.05</speed>
  <fix>3d</fix>
</trkpt>
<trkpt lat="-27.2721929" lon="151.2900655">
  <ele>398.47</ele>
  <time>2026-09-01T19:59:30Z</time>
  <course>10.13</course>
  <speed>0.022360679774997897</speed>
  <fix>3d</fix>
</trkpt>
<trkpt lat="-27.2721928" lon="151.2900654">
  <ele>399.09</ele>
  <time>2026-09-01T19:59:30Z</time>
  <course>112.05</course>
  <speed>0.05</speed>
  <fix>3d</fix>
</trkpt>
<trkpt lat="-27.2721929" lon="151.2900655">
  <ele>398.32</ele>
  <time>2026-09-01T19:59:30Z</time>
  <course>10.2</course>
  <speed>0.02</speed>
  <fix>3d</fix>
</trkpt>
<trkpt lat="-27.2721928" lon="151.2900655">
  <ele>398.79</ele>
  <time>2026-09-01T19:59:30Z</time>
  <course>120.47</course>
  <speed>0.02</speed>
  <fix>3d</fix>
</trkpt>
<trkpt lat="-27.2721929" lon="151.2900655">
  <ele>398.17</ele>
  <time>2026-09-01T19:59:30Z</time>
  <course>10.34</course>
  <speed>0.022360679774997897</speed>
  <fix>3d</fix>
</trkpt>
<trkpt lat="-27.2721928" lon="151.2900655">
  <ele>398.79</ele>
  <time>2026-09-01T19:59:30Z</time>
  <course>120.47</course>
  <speed>0.02</speed>
  <fix>3d</fix>
</trkpt>
<trkpt lat="-27.2721929" lon="151.2900655">
  <ele>398.02</ele>
  <time>2026-09-01T19:59:30Z</time>
  <course>10.44</course>
  <speed>0.022360679774997897</speed>
  <fix>3d</fix>
</trkpt>
<trkpt lat="-27.2721928" lon="151.2900656">
  <ele>398.49</ele>
  <time>2026-09-01T19:59:30Z</time>
  <course>198.17</course>
  <speed>0.0</speed>
  <fix>3d</fix>
</trkpt>
<trkpt lat="-27.2721929" lon="151.2900654">
  <ele>397.87</ele>
  <time>2026-09-01T19:59:30Z</time>
  <course>10.35</course>
  <speed>0.022360679774997897</speed>
  <fix>3d</fix>
</trkpt>
<trkpt lat="-27.2721928" lon="151.2900656">
  <ele>398.49</ele>
  <time>2026-09-01T19:59:30Z</time>
  <course>198.17</course>
  <speed>0.0</speed>
  <fix>3d</fix>
</trkpt>
<trkpt lat="-27.2721929" lon="151.2900654">
  <ele>397.73</ele>
  <time>2026-09-01T19:59:30Z</time>
  <course>10.13</course>
  <speed>0.022360679774997897</speed>
  <fix>3d</fix>
</trkpt>
<trkpt lat="-27.2721929" lon="151.2900655">
  <ele>398.19</ele>
  <time>2026-09-01T19:59:30Z</time>
  <course>256.58</course>
  <speed>0.02</speed>
  <fix>3d</fix>
</trkpt>
<trkpt lat="-27.2721929" lon="151.2900655">
  <ele>397.57</ele>
  <time>2026-09-01T19:59:30Z</time>
  <course>9.82</course>
  <speed>0.022360679774997897</speed>
  <fix>3d</fix>
</trkpt>
<trkpt lat="-27.2721929" lon="151.2900655">
  <ele>398.19</ele>
  <time>2026-09-01T19:59:30Z</time>
  <course>256.58</course>
  <speed>0.02</speed>
  <fix>3d</fix>
</trkpt>
<trkpt lat="-27.272193" lon="151.2900655">
  <ele>397.42</ele>
  <time>2026-09-01T19:59:30Z</time>
  <course>9.48</course>
  <speed>0.022360679774997897</speed>
  <fix>3d</fix>
</trkpt>
<trkpt lat="-27.2721929" lon="151.2900655">
  <ele>397.89</ele>
  <time>2026-09-01T19:59:30Z</time>
  <course>261.13</course>
  <speed>0.02</speed>
  <fix>3d</fix>
</trkpt>
<trkpt lat="-27.272193" lon="151.2900655">
  <ele>397.27</ele>
  <time>2026-09-01T19:59:30Z</time>
  <course>9.17</course>
  <speed>0.022360679774997897</speed>
  <fix>3d</fix>
</trkpt>
<trkpt lat="-27.2721929" lon="151.2900655">
  <ele>397.89</ele>
  <time>2026-09-01T19:59:30Z</time>
  <course>261.13</course>
  <speed>0.02</speed>
  <fix>3d</fix>
</trkpt>
<trkpt lat="-27.272193" lon="151.2900655">
  <ele>397.12</ele>
  <time>2026-09-01T19:59:30Z</time>
  <course>8.92</course>
  <speed>0.022360679774997897</speed>
  <fix>3d</fix>
</trkpt>
<trkpt lat="-27.2721929" lon="151.2900655">
  <ele>397.59</ele>
  <time>2026-09-01T19:59:30Z</time>
  <course>261.96</course>
  <speed>0.02</speed>
  <fix>3d</fix>
</trkpt>
<trkpt lat="-27.272193" lon="151.2900654">
  <ele>396.97</ele>
  <time>2026-09-01T19:59:30Z</time>
  <course>8.75</course>
  <speed>0.022360679774997897</speed>
  <fix>3d</fix>
</trkpt>
<trkpt lat="-27.2721929" lon="151.2900655">
  <ele>397.59</ele>
  <time>2026-09-01T19:59:30Z</time>
  <course>261.96</course>
  <speed>0.02</speed>
  <fix>3d</fix>
</trkpt>
<trkpt lat="-27.272193" lon="151.2900654">
  <ele>396.82</ele>
  <time>2026-09-01T19:59:30Z</time>
  <course>8.65</course>
  <speed>0.022360679774997897</speed>
  <fix>3d</fix>
</trkpt>
<trkpt lat="-27.2721929" lon="151.2900655">
  <ele>397.28</ele>
  <time>2026-09-01T19:59:30Z</time>
  <course>261.76</course>
  <speed>0.02</speed>
  <fix>3d</fix>
</trkpt>
<trkpt lat="-27.272193" lon="151.2900654">
  <ele>396.66</ele>
  <time>2026-09-01T19:59:30Z</time>
  <course>8.63</course>
  <speed>0.0282842712474619</speed>
  <fix>3d</fix>
</trkpt>
<trkpt lat="-27.2721929" lon="151.2900655">
  <ele>397.28</ele>
  <time>2026-09-01T19:59:30Z</time>
  <course>261.76</course>
  <speed>0.02</speed>
  <fix>3d</fix>
</trkpt>
<trkpt lat="-27.272193" lon="151.2900654">
  <ele>396.51</ele>
  <time>2026-09-01T19:59:30Z</time>
  <course>8.68</course>
  <speed>0.0282842712474619</speed>
  <fix>3d</fix>
</trkpt>
<trkpt lat="-27.2721929" lon="151.2900654">
  <ele>396.97</ele>
  <time>2026-09-01T19:59:30Z</time>
  <course>261.68</course>
  <speed>0.02</speed>
  <fix>3d</fix>
</trkpt>
<trkpt lat="-27.272193" lon="151.2900654">
  <ele>396.36</ele>
  <time>2026-09-01T19:59:30Z</time>
  <course>8.76</course>
  <speed>0.0282842712474619</speed>
  <fix>3d</fix>
</trkpt>
<trkpt lat="-27.2721929" lon="151.2900654">
  <ele>396.97</ele>
  <time>2026-09-01T19:59:30Z</time>
  <course>261.68</course>
  <speed>0.02</speed>
  <fix>3d</fix>
</trkpt>
<trkpt lat="-27.272193" lon="151.2900653">
  <ele>396.21</ele>
  <time>2026-09-01T19:59:30Z</time>
  <course>8.87</course>
  <speed>0.0282842712474619</speed>
  <fix>3d</fix>
</trkpt>
<trkpt lat="-27.2721929" lon="151.2900654">
  <ele>396.68</ele>
  <time>2026-09-01T19:59:30Z</time>
  <course>262.11</course>
  <speed>0.02</speed>
  <fix>3d</fix>
</trkpt>
<trkpt lat="-27.272193" lon="151.2900653">
  <ele>396.06</ele>
  <time>2026-09-01T19:59:30Z</time>
  <course>8.96</course>
  <speed>0.02</speed>
  <fix>3d</fix>
</trkpt>
<trkpt lat="-27.2721929" lon="151.2900654">
  <ele>396.68</ele>
  <time>2026-09-01T19:59:30Z</time>
  <course>262.11</course>
  <speed>0.02</speed>
  <fix>3d</fix>
</trkpt>
<trkpt lat="-27.272193" lon="151.2900653">
  <ele>395.91</ele>
  <time>2026-09-01T19:59:30Z</time>
  <course>9.03</course>
  <speed>0.022360679774997897</speed>
  <fix>3d</fix>
</trkpt>
<trkpt lat="-27.2721929" lon="151.2900653">
  <ele>396.38</ele>
  <time>2026-09-01T19:59:30Z</time>
  <course>263.09</course>
  <speed>0.02</speed>
  <fix>3d</fix>
</trkpt>
<trkpt lat="-27.272193" lon="151.2900653">
  <ele>395.76</ele>
  <time>2026-09-01T19:59:30Z</time>
  <course>9.04</course>
  <speed>0.022360679774997897</speed>
  <fix>3d</fix>
</trkpt>
<trkpt lat="-27.2721929" lon="151.2900653">
  <ele>396.38</ele>
  <time>2026-09-01T19:59:30Z</time>
  <course>263.09</course>
  <speed>0.02</speed>
  <fix>3d</fix>
</trkpt>
<trkpt lat="-27.272193" lon="151.2900653">
  <ele>395.61</ele>
  <time>2026-09-01T19:59:30Z</time>
  <course>9.03</course>
  <speed>0.022360679774997897</speed>
  <fix>3d</fix>
</trkpt>
<trkpt lat="-27.2721929" lon="151.2900652">
  <ele>396.08</ele>
  <time>2026-09-01T19:59:30Z</time>
  <course>263.69</course>
  <speed>0.02</speed>
  <fix>3d</fix>
</trkpt>
<trkpt lat="-27.272193" lon="151.2900653">
  <ele>395.46</ele>
  <time>2026-09-01T19:59:30Z</time>
  <course>9.0</course>
  <speed>0.02</speed>
  <fix>3d</fix>
</trkpt>
<trkpt lat="-27.2721929" lon="151.2900652">
  <ele>396.08</ele>
  <time>2026-09-01T19:59:30Z</time>
  <course>263.69</course>
  <speed>0.02</speed>
  <fix>3d</fix>
</trkpt>
<trkpt lat="-27.272193" lon="151.2900653">
  <ele>395.31</ele>
  <time>2026-09-01T19:59:30Z</time>
  <course>8.94</course>
  <speed>0.02</speed>
  <fix>3d</fix>
</trkpt>
<trkpt lat="-27.2721929" lon="151.2900652">
  <ele>395.78</ele>
  <time>2026-09-01T19:59:30Z</time>
  <course>265.01</course>
  <speed>0.01</speed>
  <fix>3d</fix>
</trkpt>
<trkpt lat="-27.272193" lon="151.2900653">
  <ele>395.16</ele>
  <time>2026-09-01T19:59:30Z</time>
  <course>8.88</course>
  <speed>0.02</speed>
  <fix>3d</fix>
</trkpt>
<trkpt lat="-27.2721929" lon="151.2900652">
  <ele>395.78</ele>
  <time>2026-09-01T19:59:30Z</time>
  <course>265.01</course>
  <speed>0.01</speed>
  <fix>3d</fix>
</trkpt>
<trkpt lat="-27.272193" lon="151.2900652">
  <ele>395.01</ele>
  <time>2026-09-01T19:59:30Z</time>
  <course>8.82</course>
  <speed>0.02</speed>
  <fix>3d</fix>
</trkpt>
<trkpt lat="-27.2721929" lon="151.2900652">
  <ele>395.49</ele>
  <time>2026-09-01T19:59:30Z</time>
  <course>267.45</course>
  <speed>0.01</speed>
  <fix>3d</fix>
</trkpt>
<trkpt lat="-27.272193" lon="151.2900652">
  <ele>394.86</ele>
  <time>2026-09-01T19:59:30Z</time>
  <course>8.78</course>
  <speed>0.02</speed>
  <fix>3d</fix>
</trkpt>
<trkpt lat="-27.2721929" lon="151.2900652">
  <ele>395.49</ele>
  <time>2026-09-01T19:59:30Z</time>
  <course>267.45</course>
  <speed>0.01</speed>
  <fix>3d</fix>
</trkpt>
<trkpt lat="-27.272193" lon="151.2900652">
  <ele>394.71</ele>
  <time>2026-09-01T19:59:30Z</time>
  <course>8.75</course>
  <speed>0.02</speed>
  <fix>3d</fix>
</trkpt>
<trkpt lat="-27.2721929" lon="151.2900651">
  <ele>395.19</ele>
  <time>2026-09-01T19:59:30Z</time>
  <course>269.9</course>
  <speed>0.01</speed>
  <fix>3d</fix>
</trkpt>
<trkpt lat="-27.272193" lon="151.2900652">
  <ele>394.56</ele>
  <time>2026-09-01T19:59:30Z</time>
  <course>8.72</course>
  <speed>0.02</speed>
  <fix>3d</fix>
</trkpt>
<trkpt lat="-27.2721929" lon="151.2900651">
  <ele>395.19</ele>
  <time>2026-09-01T19:59:30Z</time>
  <course>269.9</course>
  <speed>0.01</speed>
  <fix>3d</fix>
</trkpt>
<trkpt lat="-27.272193" lon="151.2900652">
  <ele>394.41</ele>
  <time>2026-09-01T19:59:30Z</time>
  <course>8.69</course>
  <speed>0.02</speed>
  <fix>3d</fix>
</trkpt>
<trkpt lat="-27.2721929" lon="151.2900651">
  <ele>394.89</ele>
  <time>2026-09-01T19:59:30Z</time>
  <course>273.17</course>
  <speed>0.01</speed>
  <fix>3d</fix>
</trkpt>
<trkpt lat="-27.272193" lon="151.2900652">
  <ele>394.26</ele>
  <time>2026-09-01T19:59:30Z</time>
  <course>8.67</course>
  <speed>0.02</speed>
  <fix>3d</fix>
</trkpt>
<trkpt lat="-27.2721929" lon="151.2900651">
  <ele>394.89</ele>
  <time>2026-09-01T19:59:30Z</time>
  <course>273.17</course>
  <speed>0.01</speed>
  <fix>3d</fix>
</trkpt>
<trkpt lat="-27.272193" lon="151.2900652">
  <ele>394.11</ele>
  <time>2026-09-01T19:59:30Z</time>
  <course>8.66</course>
  <speed>0.02</speed>
  <fix>3d</fix>
</trkpt>
<trkpt lat="-27.2721929" lon="151.2900651">
  <ele>394.59</ele>
  <time>2026-09-01T19:59:30Z</time>
  <course>276.03</course>
  <speed>0.01</speed>
  <fix>3d</fix>
</trkpt>
<trkpt lat="-27.272193" lon="151.2900652">
  <ele>393.96</ele>
  <time>2026-09-01T19:59:30Z</time>
  <course>8.65</course>
  <speed>0.02</speed>
  <fix>3d</fix>
</trkpt>
<trkpt lat="-27.2721929" lon="151.2900651">
  <ele>394.59</ele>
  <time>2026-09-01T19:59:30Z</time>
  <course>276.03</course>
  <speed>0.01</speed>
  <fix>3d</fix>
</trkpt>
<trkpt lat="-27.272193" lon="151.2900652">
  <ele>393.81</ele>
  <time>2026-09-01T19:59:30Z</time>
  <course>8.66</course>
  <speed>0.02</speed>
  <fix>3d</fix>
</trkpt>
<trkpt lat="-27.2721929" lon="151.2900651">
  <ele>394.29</ele>
  <time>2026-09-01T19:59:30Z</time>
  <course>278.24</course>
  <speed>0.01</speed>
  <fix>3d</fix>
</trkpt>
<trkpt lat="-27.272193" lon="151.2900652">
  <ele>393.66</ele>
  <time>2026-09-01T19:59:30Z</time>
  <course>8.66</course>
  <speed>0.02</speed>
  <fix>3d</fix>
</trkpt>
<trkpt lat="-27.2721929" lon="151.2900651">
  <ele>394.29</ele>
  <time>2026-09-01T19:59:30Z</time>
  <course>278.24</course>
  <speed>0.01</speed>
  <fix>3d</fix>
</trkpt>
<trkpt lat="-27.272193" lon="151.2900652">
  <ele>393.51</ele>
  <time>2026-09-01T19:59:30Z</time>
  <course>8.66</course>
  <speed>0.02</speed>
  <fix>3d</fix>
</trkpt>
<trkpt lat="-27.2721929" lon="151.2900651">
  <ele>393.99</ele>
  <time>2026-09-01T19:59:30Z</time>
  <course>282.09</course>
  <speed>0.01</speed>
  <fix>3d</fix>
</trkpt>
<trkpt lat="-27.272193" lon="151.2900652">
  <ele>393.36</ele>
  <time>2026-09-01T19:59:30Z</time>
  <course>8.66</course>
  <speed>0.02</speed>
  <fix>3d</fix>
</trkpt>
<trkpt lat="-27.2721929" lon="151.2900651">
  <ele>393.99</ele>
  <time>2026-09-01T19:59:30Z</time>
  <course>282.09</course>
  <speed>0.01</speed>
  <fix>3d</fix>
</trkpt>
<trkpt lat="-27.272193" lon="151.2900652">
  <ele>393.22</ele>
  <time>2026-09-01T19:59:30Z</time>
  <course>8.64</course>
  <speed>0.01414213562373095</speed>
  <fix>3d</fix>
</trkpt>
<trkpt lat="-27.2721929" lon="151.2900651">
  <ele>393.69</ele>
  <time>2026-09-01T19:59:30Z</time>
  <course>286.64</course>
  <speed>0.01</speed>
  <fix>3d</fix>
</trkpt>
<trkpt lat="-27.272193" lon="151.2900652">
  <ele>393.07</ele>
  <time>2026-09-01T19:59:30Z</time>
  <course>8.6</course>
  <speed>0.022360679774997897</speed>
  <fix>3d</fix>
</trkpt>
<trkpt lat="-27.2721929" lon="151.2900651">
  <ele>393.69</ele>
  <time>2026-09-01T19:59:30Z</time>
  <course>286.64</course>
  <speed>0.01</speed>
  <fix>3d</fix>
</trkpt>
<trkpt lat="-27.272193" lon="151.2900652">
  <ele>392.92</ele>
  <time>2026-09-01T19:59:30Z</time>
  <course>8.56</course>
  <speed>0.01</speed>
  <fix>3d</fix>
</trkpt>
<trkpt lat="-27.2721929" lon="151.290065">
  <ele>393.4</ele>
  <time>2026-09-01T19:59:30Z</time>
  <course>291.26</course>
  <speed>0.01</speed>
  <fix>3d</fix>
</trkpt>
<trkpt lat="-27.272193" lon="151.2900652">
  <ele>392.77</ele>
  <time>2026-09-01T19:59:30Z</time>
  <course>8.52</course>
  <speed>0.01</speed>
  <fix>3d</fix>
</trkpt>
<trkpt lat="-27.2721929" lon="151.290065">
  <ele>393.4</ele>
  <time>2026-09-01T19:59:30Z</time>
  <course>291.26</course>
  <speed>0.01</speed>
  <fix>3d</fix>
</trkpt>
<trkpt lat="-27.272193" lon="151.2900652">
  <ele>392.62</ele>
  <time>2026-09-01T19:59:30Z</time>
  <course>8.49</course>
  <speed>0.01</speed>
  <fix>3d</fix>
</trkpt>
<trkpt lat="-27.2721929" lon="151.290065">
  <ele>393.1</ele>
  <time>2026-09-01T19:59:30Z</time>
  <course>295.85</course>
  <speed>0.01</speed>
  <fix>3d</fix>
</trkpt>
<trkpt lat="-27.272193" lon="151.2900652">
  <ele>392.48</ele>
  <time>2026-09-01T19:59:30Z</time>
  <course>8.48</course>
  <speed>0.01</speed>
  <fix>3d</fix>
</trkpt>
<trkpt lat="-27.2721929" lon="151.290065">
  <ele>393.1</ele>
  <time>2026-09-01T19:59:30Z</time>
  <course>295.85</course>
  <speed>0.01</speed>
  <fix>3d</fix>
</trkpt>
<trkpt lat="-27.272193" lon="151.2900652">
  <ele>392.33</ele>
  <time>2026-09-01T19:59:31Z</time>
  <course>8.47</course>
  <speed>0.01414213562373095</speed>
  <fix>3d</fix>
</trkpt>
<trkpt lat="-27.2721929" lon="151.290065">
  <ele>392.8</ele>
  <time>2026-09-01T19:59:31Z</time>
  <course>301.89</course>
  <speed>0.01</speed>
  <fix>3d</fix>
</trkpt>
<trkpt lat="-27.272193" lon="151.2900652">
  <ele>392.18</ele>
  <time>2026-09-01T19:59:31Z</time>
  <course>8.47</course>
  <speed>0.01414213562373095</speed>
  <fix>3d</fix>
</trkpt>
<trkpt lat="-27.2721929" lon="151.290065">
  <ele>392.8</ele>
  <time>2026-09-01T19:59:31Z</time>
  <course>301.89</course>
  <speed>0.01</speed>
  <fix>3d</fix>
</trkpt>
<trkpt lat="-27.272193" lon="151.2900651">
  <ele>392.03</ele>
  <time>2026-09-01T19:59:31Z</time>
  <course>8.48</course>
  <speed>0.01414213562373095</speed>
  <fix>3d</fix>
</trkpt>
<trkpt lat="-27.2721929" lon="151.290065">
  <ele>392.5</ele>
  <time>2026-09-01T19:59:31Z</time>
  <course>309.45</course>
  <speed>0.01</speed>
  <fix>3d</fix>
</trkpt>
<trkpt lat="-27.272193" lon="151.2900651">
  <ele>391.88</ele>
  <time>2026-09-01T19:59:31Z</time>
  <course>8.47</course>
  <speed>0.01</speed>
  <fix>3d</fix>
</trkpt>
<trkpt lat="-27.2721929" lon="151.290065">
  <ele>392.5</ele>
  <time>2026-09-01T19:59:31Z</time>
  <course>309.45</course>
  <speed>0.01</speed>
  <fix>3d</fix>
</trkpt>
<trkpt lat="-27.272193" lon="151.2900651">
  <ele>391.73</ele>
  <time>2026-09-01T19:59:31Z</time>
  <course>8.47</course>
  <speed>0.01414213562373095</speed>
  <fix>3d</fix>
</trkpt>
<trkpt lat="-27.2721929" lon="151.290065">
  <ele>392.2</ele>
  <time>2026-09-01T19:59:31Z</time>
  <course>317.21</course>
  <speed>0.01</speed>
  <fix>3d</fix>
</trkpt>
<trkpt lat="-27.272193" lon="151.2900651">
  <ele>391.58</ele>
  <time>2026-09-01T19:59:31Z</time>
  <course>8.47</course>
  <speed>0.01414213562373095</speed>
  <fix>3d</fix>
</trkpt>
<trkpt lat="-27.2721929" lon="151.290065">
  <ele>392.2</ele>
  <time>2026-09-01T19:59:31Z</time>
  <course>317.21</course>
  <speed>0.01</speed>
  <fix>3d</fix>
</trkpt>
<trkpt lat="-27.272193" lon="151.2900651">
  <ele>391.43</ele>
  <time>2026-09-01T19:59:31Z</time>
  <course>8.47</course>
  <speed>0.01414213562373095</speed>
  <fix>3d</fix>
</trkpt>
<trkpt lat="-27.2721929" lon="151.2900649">
  <ele>391.9</ele>
  <time>2026-09-01T19:59:31Z</time>
  <course>322.93</course>
  <speed>0.01</speed>
  <fix>3d</fix>
</trkpt>
<trkpt lat="-27.272193" lon="151.2900651">
  <ele>391.28</ele>
  <time>2026-09-01T19:59:31Z</time>
  <course>8.46</course>
  <speed>0.01414213562373095</speed>
  <fix>3d</fix>
</trkpt>
<trkpt lat="-27.2721929" lon="151.2900649">
  <ele>391.9</ele>
  <time>2026-09-01T19:59:31Z</time>
  <course>322.93</course>
  <speed>0.01</speed>
  <fix>3d</fix>
</trkpt>
<trkpt lat="-27.272193" lon="151.2900651">
  <ele>391.13</ele>
  <time>2026-09-01T19:59:31Z</time>
  <course>8.44</course>
  <speed>0.01414213562373095</speed>
  <fix>3d</fix>
</trkpt>
<trkpt lat="-27.2721929" lon="151.2900649">
  <ele>391.59</ele>
  <time>2026-09-01T19:59:31Z</time>
  <course>327.01</course>
  <speed>0.01</speed>
  <fix>3d</fix>
</trkpt>
<trkpt lat="-27.272193" lon="151.2900651">
  <ele>390.98</ele>
  <time>2026-09-01T19:59:31Z</time>
  <course>8.41</course>
  <speed>0.01414213562373095</speed>
  <fix>3d</fix>
</trkpt>
<trkpt lat="-27.2721929" lon="151.2900649">
  <ele>391.59</ele>
  <time>2026-09-01T19:59:31Z</time>
  <course>327.01</course>
  <speed>0.01</speed>
  <fix>3d</fix>
</trkpt>
<trkpt lat="-27.272193" lon="151.2900651">
  <ele>390.82</ele>
  <time>2026-09-01T19:59:31Z</time>
  <course>8.38</course>
  <speed>0.01414213562373095</speed>
  <fix>3d</fix>
</trkpt>
<trkpt lat="-27.2721929" lon="151.2900649">
  <ele>391.29</ele>
  <time>2026-09-01T19:59:31Z</time>
  <course>333.57</course>
  <speed>0.01</speed>
  <fix>3d</fix>
</trkpt>
<trkpt lat="-27.272193" lon="151.2900651">
  <ele>390.67</ele>
  <time>2026-09-01T19:59:31Z</time>
  <course>8.34</course>
  <speed>0.01414213562373095</speed>
  <fix>3d</fix>
</trkpt>
<trkpt lat="-27.2721929" lon="151.2900649">
  <ele>391.29</ele>
  <time>2026-09-01T19:59:31Z</time>
  <course>333.57</course>
  <speed>0.01</speed>
  <fix>3d</fix>
</trkpt>
<trkpt lat="-27.272193" lon="151.2900651">
  <ele>390.52</ele>
  <time>2026-09-01T19:59:31Z</time>
  <course>8.31</course>
  <speed>0.01414213562373095</speed>
  <fix>3d</fix>
</trkpt>
<trkpt lat="-27.2721929" lon="151.2900649">
  <ele>390.99</ele>
  <time>2026-09-01T19:59:31Z</time>
  <course>341.54</course>
  <speed>0.01</speed>
  <fix>3d</fix>
</trkpt>
<trkpt lat="-27.272193" lon="151.2900651">
  <ele>390.37</ele>
  <time>2026-09-01T19:59:31Z</time>
  <course>8.3</course>
  <speed>0.01414213562373095</speed>
  <fix>3d</fix>
</trkpt>
<trkpt lat="-27.2721929" lon="151.2900649">
  <ele>390.99</ele>
  <time>2026-09-01T19:59:31Z</time>
  <course>341.54</course>
  <speed>0.01</speed>
  <fix>3d</fix>
</trkpt>
<trkpt lat="-27.272193" lon="151.2900651">
  <ele>390.22</ele>
  <time>2026-09-01T19:59:31Z</time>
  <course>8.29</course>
  <speed>0.01414213562373095</speed>
  <fix>3d</fix>
</trkpt>
<trkpt lat="-27.2721928" lon="151.2900649">
  <ele>390.69</ele>
  <time>2026-09-01T19:59:31Z</time>
  <course>346.6</course>
  <speed>0.01</speed>
  <fix>3d</fix>
</trkpt>
<trkpt lat="-27.272193" lon="151.2900651">
  <ele>390.07</ele>
  <time>2026-09-01T19:59:31Z</time>
  <course>8.3</course>
  <speed>0.01414213562373095</speed>
  <fix>3d</fix>
</trkpt>
<trkpt lat="-27.2721928" lon="151.2900649">
  <ele>390.69</ele>
  <time>2026-09-01T19:59:31Z</time>
  <course>346.6</course>
  <speed>0.01</speed>
  <fix>3d</fix>
</trkpt>
<trkpt lat="-27.272193" lon="151.2900651">
  <ele>389.92</ele>
  <time>2026-09-01T19:59:31Z</time>
  <course>8.32</course>
  <speed>0.01414213562373095</speed>
  <fix>3d</fix>
</trkpt>
<trkpt lat="-27.2721928" lon="151.2900649">
  <ele>390.38</ele>
  <time>2026-09-01T19:59:31Z</time>
  <course>348.37</course>
  <speed>0.01</speed>
  <fix>3d</fix>
</trkpt>
<trkpt lat="-27.272193" lon="151.2900651">
  <ele>389.77</ele>
  <time>2026-09-01T19:59:31Z</time>
  <course>8.33</course>
  <speed>0.01414213562373095</speed>
  <fix>3d</fix>
</trkpt>
<trkpt lat="-27.2721928" lon="151.2900649">
  <ele>390.38</ele>
  <time>2026-09-01T19:59:31Z</time>
  <course>348.37</course>
  <speed>0.01</speed>
  <fix>3d</fix>
</trkpt>
<trkpt lat="-27.272193" lon="151.2900651">
  <ele>389.62</ele>
  <time>2026-09-01T19:59:31Z</time>
  <course>8.32</course>
  <speed>0.01414213562373095</speed>
  <fix>3d</fix>
</trkpt>
<trkpt lat="-27.2721928" lon="151.2900649">
  <ele>390.08</ele>
  <time>2026-09-01T19:59:31Z</time>
  <course>352.22</course>
  <speed>0.01</speed>
  <fix>3d</fix>
</trkpt>
<trkpt lat="-27.272193" lon="151.2900651">
  <ele>389.47</ele>
  <time>2026-09-01T19:59:31Z</time>
  <course>8.31</course>
  <speed>0.01414213562373095</speed>
  <fix>3d</fix>
</trkpt>
<trkpt lat="-27.2721928" lon="151.2900649">
  <ele>390.08</ele>
  <time>2026-09-01T19:59:31Z</time>
  <course>352.22</course>
  <speed>0.01</speed>
  <fix>3d</fix>
</trkpt>
<trkpt lat="-27.272193" lon="151.2900651">
  <ele>389.32</ele>
  <time>2026-09-01T19:59:31Z</time>
  <course>8.29</course>
  <speed>0.01414213562373095</speed>
  <fix>3d</fix>
</trkpt>
<trkpt lat="-27.2721928" lon="151.2900649">
  <ele>389.78</ele>
  <time>2026-09-01T19:59:31Z</time>
  <course>357.02</course>
  <speed>0.01</speed>
  <fix>3d</fix>
</trkpt>
<trkpt lat="-27.272193" lon="151.2900651">
  <ele>389.17</ele>
  <time>2026-09-01T19:59:31Z</time>
  <course>8.27</course>
  <speed>0.01414213562373095</speed>
  <fix>3d</fix>
</trkpt>
<trkpt lat="-27.2721928" lon="151.2900649">
  <ele>389.78</ele>
  <time>2026-09-01T19:59:31Z</time>
  <course>357.02</course>
  <speed>0.01</speed>
  <fix>3d</fix>
</trkpt>
<trkpt lat="-27.272193" lon="151.2900651">
  <ele>389.02</ele>
  <time>2026-09-01T19:59:31Z</time>
  <course>8.25</course>
  <speed>0.01414213562373095</speed>
  <fix>3d</fix>
</trkpt>
<trkpt lat="-27.2721927" lon="151.2900649">
  <ele>389.47</ele>
  <time>2026-09-01T19:59:31Z</time>
  <course>0.01</course>
  <speed>0.01</speed>
  <fix>3d</fix>
</trkpt>
<trkpt lat="-27.272193" lon="151.2900651">
  <ele>388.87</ele>
  <time>2026-09-01T19:59:31Z</time>
  <course>8.23</course>
  <speed>0.01414213562373095</speed>
  <fix>3d</fix>
</trkpt>
<trkpt lat="-27.2721927" lon="151.2900649">
  <ele>389.47</ele>
  <time>2026-09-01T19:59:31Z</time>
  <course>0.01</course>
  <speed>0.01</speed>
  <fix>3d</fix>
</trkpt>
<trkpt lat="-27.272193" lon="151.2900651">
  <ele>388.72</ele>
  <time>2026-09-01T19:59:31Z</time>
  <course>8.21</course>
  <speed>0.01414213562373095</speed>
  <fix>3d</fix>
</trkpt>
<trkpt lat="-27.2721927" lon="151.2900649">
  <ele>389.18</ele>
  <time>2026-09-01T19:59:31Z</time>
  <course>2.15</course>
  <speed>0.01</speed>
  <fix>3d</fix>
</trkpt>
<trkpt lat="-27.2721929" lon="151.2900651">
  <ele>388.57</ele>
  <time>2026-09-01T19:59:31Z</time>
  <course>8.2</course>
  <speed>0.01414213562373095</speed>
  <fix>3d</fix>
</trkpt>
<trkpt lat="-27.2721927" lon="151.2900649">
  <ele>389.18</ele>
  <time>2026-09-01T19:59:31Z</time>
  <course>2.15</course>
  <speed>0.01</speed>
  <fix>3d</fix>
</trkpt>
<trkpt lat="-27.2721929" lon="151.2900651">
  <ele>388.42</ele>
  <time>2026-09-01T19:59:31Z</time>
  <course>8.18</course>
  <speed>0.01414213562373095</speed>
  <fix>3d</fix>
</trkpt>
<trkpt lat="-27.2721927" lon="151.2900649">
  <ele>388.88</ele>
  <time>2026-09-01T19:59:31Z</time>
  <course>3.99</course>
  <speed>0.01</speed>
  <fix>3d</fix>
</trkpt>
<trkpt lat="-27.2721929" lon="151.2900651">
  <ele>388.27</ele>
  <time>2026-09-01T19:59:31Z</time>
  <course>8.16</course>
  <speed>0.01414213562373095</speed>
  <fix>3d</fix>
</trkpt>
<trkpt lat="-27.2721927" lon="151.2900649">
  <ele>388.88</ele>
  <time>2026-09-01T19:59:31Z</time>
  <course>3.99</course>
  <speed>0.01</speed>
  <fix>3d</fix>
</trkpt>
<trkpt lat="-27.2721929" lon="151.2900651">
  <ele>388.12</ele>
  <time>2026-09-01T19:59:31Z</time>
  <course>8.15</course>
  <speed>0.01414213562373095</speed>
  <fix>3d</fix>
</trkpt>
<trkpt lat="-27.2721927" lon="151.2900649">
  <ele>388.58</ele>
  <time>2026-09-01T19:59:31Z</time>
  <course>8.19</course>
  <speed>0.01</speed>
  <fix>3d</fix>
</trkpt>
<trkpt lat="-27.2721929" lon="151.2900651">
  <ele>387.97</ele>
  <time>2026-09-01T19:59:31Z</time>
  <course>8.15</course>
  <speed>0.01</speed>
  <fix>3d</fix>
</trkpt>
<trkpt lat="-27.2721927" lon="151.2900649">
  <ele>388.58</ele>
  <time>2026-09-01T19:59:31Z</time>
  <course>8.19</course>
  <speed>0.01</speed>
  <fix>3d</fix>
</trkpt>
<trkpt lat="-27.2721929" lon="151.2900651">
  <ele>387.82</ele>
  <time>2026-09-01T19:59:31Z</time>
  <course>8.15</course>
  <speed>0.01</speed>
  <fix>3d</fix>
</trkpt>
<trkpt lat="-27.2721927" lon="151.2900649">
  <ele>388.28</ele>
  <time>2026-09-01T19:59:31Z</time>
  <course>12.84</course>
  <speed>0.01</speed>
  <fix>3d</fix>
</trkpt>
<trkpt lat="-27.2721929" lon="151.2900651">
  <ele>387.68</ele>
  <time>2026-09-01T19:59:31Z</time>
  <course>8.16</course>
  <speed>0.01</speed>
  <fix>3d</fix>
</trkpt>
<trkpt lat="-27.2721927" lon="151.2900649">
  <ele>388.28</ele>
  <time>2026-09-01T19:59:31Z</time>
  <course>12.84</course>
  <speed>0.01</speed>
  <fix>3d</fix>
</trkpt>
<trkpt lat="-27.2721929" lon="151.2900651">
  <ele>387.53</ele>
  <time>2026-09-01T19:59:31Z</time>
  <course>8.19</course>
  <speed>0.01</speed>
  <fix>3d</fix>
</trkpt>
<trkpt lat="-27.2721926" lon="151.2900649">
  <ele>387.97</ele>
  <time>2026-09-01T19:59:31Z</time>
  <course>13.49</course>
  <speed>0.0</speed>
  <fix>3d</fix>
</trkpt>
<trkpt lat="-27.2721929" lon="151.290065">
  <ele>387.38</ele>
  <time>2026-09-01T19:59:31Z</time>
  <course>8.22</course>
  <speed>0.01</speed>
  <fix>3d</fix>
</trkpt>
<trkpt lat="-27.2721926" lon="151.2900649">
  <ele>387.97</ele>
  <time>2026-09-01T19:59:31Z</time>
  <course>13.49</course>
  <speed>0.0</speed>
  <fix>3d</fix>
</trkpt>
<trkpt lat="-27.2721929" lon="151.290065">
  <ele>387.23</ele>
  <time>2026-09-01T19:59:31Z</time>
  <course>8.25</course>
  <speed>0.01</speed>
  <fix>3d</fix>
</trkpt>
<trkpt lat="-27.2721926" lon="151.2900649">
  <ele>387.68</ele>
  <time>2026-09-01T19:59:31Z</time>
  <course>11.62</course>
  <speed>0.01</speed>
  <fix>3d</fix>
</trkpt>
<trkpt lat="-27.2721929" lon="151.290065">
  <ele>387.07</ele>
  <time>2026-09-01T19:59:31Z</time>
  <course>8.28</course>
  <speed>0.01</speed>
  <fix>3d</fix>
</trkpt>
<trkpt lat="-27.2721926" lon="151.2900649">
  <ele>387.68</ele>
  <time>2026-09-01T19:59:31Z</time>
  <course>11.62</course>
  <speed>0.01</speed>
  <fix>3d</fix>
</trkpt>
<trkpt lat="-27.2721928" lon="151.290065">
  <ele>386.92</ele>
  <time>2026-09-01T19:59:31Z</time>
  <course>8.29</course>
  <speed>0.01</speed>
  <fix>3d</fix>
</trkpt>
<trkpt lat="-27.2721926" lon="151.2900649">
  <ele>387.38</ele>
  <time>2026-09-01T19:59:31Z</time>
  <course>12.45</course>
  <speed>0.01</speed>
  <fix>3d</fix>
</trkpt>
<trkpt lat="-27.2721928" lon="151.290065">
  <ele>386.77</ele>
  <time>2026-09-01T19:59:31Z</time>
  <course>8.3</course>
  <speed>0.01</speed>
  <fix>3d</fix>
</trkpt>
<trkpt lat="-27.2721926" lon="151.2900649">
  <ele>387.38</ele>
  <time>2026-09-01T19:59:31Z</time>
  <course>12.45</course>
  <speed>0.01</speed>
  <fix>3d</fix>
</trkpt>
<trkpt lat="-27.2721928" lon="151.290065">
  <ele>386.62</ele>
  <time>2026-09-01T19:59:31Z</time>
  <course>8.3</course>
  <speed>0.01</speed>
  <fix>3d</fix>
</trkpt>
<trkpt lat="-27.2721926" lon="151.2900649">
  <ele>387.07</ele>
  <time>2026-09-01T19:59:31Z</time>
  <course>15.74</course>
  <speed>0.01</speed>
  <fix>3d</fix>
</trkpt>
<trkpt lat="-27.2721928" lon="151.290065">
  <ele>386.47</ele>
  <time>2026-09-01T19:59:31Z</time>
  <course>8.29</course>
  <speed>0.01</speed>
  <fix>3d</fix>
</trkpt>
<trkpt lat="-27.2721926" lon="151.2900649">
  <ele>387.07</ele>
  <time>2026-09-01T19:59:31Z</time>
  <course>15.74</course>
  <speed>0.01</speed>
  <fix>3d</fix>
</trkpt>
<trkpt lat="-27.2721928" lon="151.290065">
  <ele>386.32</ele>
  <time>2026-09-01T19:59:31Z</time>
  <course>8.26</course>
  <speed>0.01414213562373095</speed>
  <fix>3d</fix>
</trkpt>
<trkpt lat="-27.2721926" lon="151.2900649">
  <ele>386.77</ele>
  <time>2026-09-01T19:59:31Z</time>
  <course>20.24</course>
  <speed>0.0</speed>
  <fix>3d</fix>
</trkpt>
<trkpt lat="-27.2721928" lon="151.290065">
  <ele>386.17</ele>
  <time>2026-09-01T19:59:31Z</time>
  <course>8.23</course>
  <speed>0.01414213562373095</speed>
  <fix>3d</fix>
</trkpt>
<trkpt lat="-27.2721926" lon="151.2900649">
  <ele>386.77</ele>
  <time>2026-09-01T19:59:31Z</time>
  <course>20.24</course>
  <speed>0.0</speed>
  <fix>3d</fix>
</trkpt>
<trkpt lat="-27.2721928" lon="151.290065">
  <ele>386.02</ele>
  <time>2026-09-01T19:59:31Z</time>
  <course>8.21</course>
  <speed>0.01414213562373095</speed>
  <fix>3d</fix>
</trkpt>
<trkpt lat="-27.2721926" lon="151.2900649">
  <ele>386.47</ele>
  <time>2026-09-01T19:59:31Z</time>
  <course>25.38</course>
  <speed>0.0</speed>
  <fix>3d</fix>
</trkpt>
<trkpt lat="-27.2721928" lon="151.290065">
  <ele>385.87</ele>
  <time>2026-09-01T19:59:31Z</time>
  <course>8.21</course>
  <speed>0.01414213562373095</speed>
  <fix>3d</fix>
</trkpt>
<trkpt lat="-27.2721926" lon="151.2900649">
  <ele>386.47</ele>
  <time>2026-09-01T19:59:31Z</time>
  <course>25.38</course>
  <speed>0.0</speed>
  <fix>3d</fix>
</trkpt>
<trkpt lat="-27.2721928" lon="151.290065">
  <ele>385.73</ele>
  <time>2026-09-01T19:59:31Z</time>
  <course>8.19</course>
  <speed>0.01414213562373095</speed>
  <fix>3d</fix>
</trkpt>
<trkpt lat="-27.2721925" lon="151.2900649">
  <ele>386.16</ele>
  <time>2026-09-01T19:59:31Z</time>
  <course>30.63</course>
  <speed>0.0</speed>
  <fix>3d</fix>
</trkpt>
<trkpt lat="-27.2721928" lon="151.290065">
  <ele>385.58</ele>
  <time>2026-09-01T19:59:31Z</time>
  <course>8.16</course>
  <speed>0.022360679774997897</speed>
  <fix>3d</fix>
</trkpt>
<trkpt lat="-27.2721925" lon="151.2900649">
  <ele>386.16</ele>
  <time>2026-09-01T19:59:31Z</time>
  <course>30.63</course>
  <speed>0.0</speed>
  <fix>3d</fix>
</trkpt>
<trkpt lat="-27.2721928" lon="151.290065">
  <ele>385.43</ele>
  <time>2026-09-01T19:59:31Z</time>
  <course>8.12</course>
  <speed>0.022360679774997897</speed>
  <fix>3d</fix>
</trkpt>
<trkpt lat="-27.2721925" lon="151.2900649">
  <ele>385.87</ele>
  <time>2026-09-01T19:59:31Z</time>
  <course>42.01</course>
  <speed>0.0</speed>
  <fix>3d</fix>
</trkpt>
<trkpt lat="-27.2721928" lon="151.290065">
  <ele>385.28</ele>
  <time>2026-09-01T19:59:31Z</time>
  <course>8.09</course>
  <speed>0.022360679774997897</speed>
  <fix>3d</fix>
</trkpt>
<trkpt lat="-27.2721925" lon="151.2900649">
  <ele>385.87</ele>
  <time>2026-09-01T19:59:31Z</time>
  <course>42.01</course>
  <speed>0.0</speed>
  <fix>3d</fix>
</trkpt>
<trkpt lat="-27.2721928" lon="151.290065">
  <ele>385.13</ele>
  <time>2026-09-01T19:59:31Z</time>
  <course>8.07</course>
  <speed>0.022360679774997897</speed>
  <fix>3d</fix>
</trkpt>
<trkpt lat="-27.2721925" lon="151.2900649">
  <ele>385.57</ele>
  <time>2026-09-01T19:59:31Z</time>
  <course>55.03</course>
  <speed>0.0</speed>
  <fix>3d</fix>
</trkpt>
<trkpt lat="-27.2721928" lon="151.290065">
  <ele>384.98</ele>
  <time>2026-09-01T19:59:31Z</time>
  <course>8.07</course>
  <speed>0.022360679774997897</speed>
  <fix>3d</fix>
</trkpt>
<trkpt lat="-27.2721925" lon="151.2900649">
  <ele>385.57</ele>
  <time>2026-09-01T19:59:31Z</time>
  <course>55.03</course>
  <speed>0.0</speed>
  <fix>3d</fix>
</trkpt>
<trkpt lat="-27.2721928" lon="151.290065">
  <ele>384.83</ele>
  <time>2026-09-01T19:59:31Z</time>
  <course>8.08</course>
  <speed>0.022360679774997897</speed>
  <fix>3d</fix>
</trkpt>
<trkpt lat="-27.2721925" lon="151.2900649">
  <ele>385.27</ele>
  <time>2026-09-01T19:59:31Z</time>
  <course>63.03</course>
  <speed>0.0</speed>
  <fix>3d</fix>
</trkpt>
<trkpt lat="-27.2721928" lon="151.290065">
  <ele>384.68</ele>
  <time>2026-09-01T19:59:31Z</time>
  <course>8.09</course>
  <speed>0.022360679774997897</speed>
  <fix>3d</fix>
</trkpt>
<trkpt lat="-27.2721925" lon="151.2900649">
  <ele>385.27</ele>
  <time>2026-09-01T19:59:31Z</time>
  <course>63.03</course>
  <speed>0.0</speed>
  <fix>3d</fix>
</trkpt>
<trkpt lat="-27.2721928" lon="151.290065">
  <ele>384.53</ele>
  <time>2026-09-01T19:59:31Z</time>
  <course>8.09</course>
  <speed>0.022360679774997897</speed>
  <fix>3d</fix>
</trkpt>
<trkpt lat="-27.2721925" lon="151.2900649">
  <ele>384.96</ele>
  <time>2026-09-01T19:59:31Z</time>
  <course>71.66</course>
  <speed>0.0</speed>
  <fix>3d</fix>
</trkpt>
<trkpt lat="-27.2721928" lon="151.290065">
  <ele>384.38</ele>
  <time>2026-09-01T19:59:31Z</time>
  <course>8.07</course>
  <speed>0.022360679774997897</speed>
  <fix>3d</fix>
</trkpt>
<trkpt lat="-27.2721925" lon="151.2900649">
  <ele>384.96</ele>
  <time>2026-09-01T19:59:31Z</time>
  <course>71.66</course>
  <speed>0.0</speed>
  <fix>3d</fix>
</trkpt>
<trkpt lat="-27.2721928" lon="151.290065">
  <ele>384.23</ele>
  <time>2026-09-01T19:59:31Z</time>
  <course>8.04</course>
  <speed>0.0282842712474619</speed>
  <fix>3d</fix>
</trkpt>
<trkpt lat="-27.2721925" lon="151.2900649">
  <ele>384.66</ele>
  <time>2026-09-01T19:59:31Z</time>
  <course>79.64</course>
  <speed>0.0</speed>
  <fix>3d</fix>
</trkpt>
<trkpt lat="-27.2721927" lon="151.290065">
  <ele>384.07</ele>
  <time>2026-09-01T19:59:31Z</time>
  <course>8.01</course>
  <speed>0.022360679774997897</speed>
  <fix>3d</fix>
</trkpt>
<trkpt lat="-27.2721925" lon="151.2900649">
  <ele>384.66</ele>
  <time>2026-09-01T19:59:31Z</time>
  <course>79.64</course>
  <speed>0.0</speed>
  <fix>3d</fix>
</trkpt>
<trkpt lat="-27.2721927" lon="151.290065">
  <ele>383.92</ele>
  <time>2026-09-01T19:59:31Z</time>
  <course>7.98</course>
  <speed>0.0282842712474619</speed>
  <fix>3d</fix>
</trkpt>
<trkpt lat="-27.2721925" lon="151.2900649">
  <ele>384.36</ele>
  <time>2026-09-01T19:59:31Z</time>
  <course>84.73</course>
  <speed>0.0</speed>
  <fix>3d</fix>
</trkpt>
<trkpt lat="-27.2721927" lon="151.290065">
  <ele>383.77</ele>
  <time>2026-09-01T19:59:31Z</time>
  <course>7.96</course>
  <speed>0.0282842712474619</speed>
  <fix>3d</fix>
</trkpt>
<trkpt lat="-27.2721925" lon="151.2900649">
  <ele>384.36</ele>
  <time>2026-09-01T19:59:31Z</time>
  <course>84.73</course>
  <speed>0.0</speed>
  <fix>3d</fix>
</trkpt>
<trkpt lat="-27.2721927" lon="151.290065">
  <ele>383.61</ele>
  <time>2026-09-01T19:59:31Z</time>
  <course>7.94</course>
  <speed>0.0282842712474619</speed>
  <fix>3d</fix>
</trkpt>
<trkpt lat="-27.2721925" lon="151.2900649">
  <ele>384.06</ele>
  <time>2026-09-01T19:59:31Z</time>
  <course>89.31</course>
  <speed>0.01</speed>
  <fix>3d</fix>
</trkpt>
<trkpt lat="-27.2721927" lon="151.290065">
  <ele>383.46</ele>
  <time>2026-09-01T19:59:31Z</time>
  <course>7.92</course>
  <speed>0.0282842712474619</speed>
  <fix>3d</fix>
</trkpt>
<trkpt lat="-27.2721925" lon="151.2900649">
  <ele>384.06</ele>
  <time>2026-09-01T19:59:31Z</time>
  <course>89.31</course>
  <speed>0.01</speed>
  <fix>3d</fix>
</trkpt>
<trkpt lat="-27.2721927" lon="151.290065">
  <ele>383.31</ele>
  <time>2026-09-01T19:59:31Z</time>
  <course>7.9</course>
  <speed>0.0282842712474619</speed>
  <fix>3d</fix>
</trkpt>
<trkpt lat="-27.2721925" lon="151.290065">
  <ele>383.75</ele>
  <time>2026-09-01T19:59:31Z</time>
  <course>93.96</course>
  <speed>0.01</speed>
  <fix>3d</fix>
</trkpt>
<trkpt lat="-27.2721927" lon="151.2900651">
  <ele>383.16</ele>
  <time>2026-09-01T19:59:31Z</time>
  <course>7.88</course>
  <speed>0.0282842712474619</speed>
  <fix>3d</fix>
</trkpt>
<trkpt lat="-27.2721925" lon="151.290065">
  <ele>383.75</ele>
  <time>2026-09-01T19:59:31Z</time>
  <course>93.96</course>
  <speed>0.01</speed>
  <fix>3d</fix>
</trkpt>
<trkpt lat="-27.2721927" lon="151.2900651">
  <ele>383.01</ele>
  <time>2026-09-01T19:59:31Z</time>
  <course>7.86</course>
  <speed>0.0282842712474619</speed>
  <fix>3d</fix>
</trkpt>
<trkpt lat="-27.2721925" lon="151.290065">
  <ele>383.45</ele>
  <time>2026-09-01T19:59:31Z</time>
  <course>97.33</course>
  <speed>0.01</speed>
  <fix>3d</fix>
</trkpt>
<trkpt lat="-27.2721927" lon="151.2900651">
  <ele>382.85</ele>
  <time>2026-09-01T19:59:31Z</time>
  <course>7.84</course>
  <speed>0.0282842712474619</speed>
  <fix>3d</fix>
</trkpt>
<trkpt lat="-27.2721925" lon="151.290065">
  <ele>383.45</ele>
  <time>2026-09-01T19:59:31Z</time>
  <course>97.33</course>
  <speed>0.01</speed>
  <fix>3d</fix>
</trkpt>
<trkpt lat="-27.2721927" lon="151.2900651">
  <ele>382.7</ele>
  <time>2026-09-01T19:59:31Z</time>
  <course>7.82</course>
  <speed>0.0282842712474619</speed>
  <fix>3d</fix>
</trkpt>
<trkpt lat="-27.2721925" lon="151.290065">
  <ele>383.15</ele>
  <time>2026-09-01T19:59:31Z</time>
  <course>100.22</course>
  <speed>0.01</speed>
  <fix>3d</fix>
</trkpt>
<trkpt lat="-27.2721927" lon="151.2900651">
  <ele>382.56</ele>
  <time>2026-09-01T19:59:31Z</time>
  <course>7.8</course>
  <speed>0.0282842712474619</speed>
  <fix>3d</fix>
</trkpt>
<trkpt lat="-27.2721925" lon="151.290065">
  <ele>383.15</ele>
  <time>2026-09-01T19:59:31Z</time>
  <course>100.22</course>
  <speed>0.01</speed>
  <fix>3d</fix>
</trkpt>
<trkpt lat="-27.2721927" lon="151.2900651">
  <ele>382.41</ele>
  <time>2026-09-01T19:59:31Z</time>
  <course>7.78</course>
  <speed>0.0282842712474619</speed>
  <fix>3d</fix>
</trkpt>
<trkpt lat="-27.2721925" lon="151.290065">
  <ele>382.85</ele>
  <time>2026-09-01T19:59:31Z</time>
  <course>102.76</course>
  <speed>0.01</speed>
  <fix>3d</fix>
</trkpt>
<trkpt lat="-27.2721927" lon="151.2900651">
  <ele>382.26</ele>
  <time>2026-09-01T19:59:31Z</time>
  <course>7.75</course>
  <speed>0.03605551275463989</speed>
  <fix>3d</fix>
</trkpt>
<trkpt lat="-27.2721925" lon="151.290065">
  <ele>382.85</ele>
  <time>2026-09-01T19:59:31Z</time>
  <course>102.76</course>
  <speed>0.01</speed>
  <fix>3d</fix>
</trkpt>
<trkpt lat="-27.2721927" lon="151.2900652">
  <ele>382.11</ele>
  <time>2026-09-01T19:59:31Z</time>
  <course>7.72</course>
  <speed>0.03605551275463989</speed>
  <fix>3d</fix>
</trkpt>
<trkpt lat="-27.2721925" lon="151.2900651">
  <ele>382.56</ele>
  <time>2026-09-01T19:59:31Z</time>
  <course>105.22</course>
  <speed>0.01</speed>
  <fix>3d</fix>
</trkpt>
<trkpt lat="-27.2721927" lon="151.2900652">
  <ele>381.97</ele>
  <time>2026-09-01T19:59:31Z</time>
  <course>7.69</course>
  <speed>0.03605551275463989</speed>
  <fix>3d</fix>
</trkpt>
<trkpt lat="-27.2721925" lon="151.2900651">
  <ele>382.56</ele>
  <time>2026-09-01T19:59:31Z</time>
  <course>105.22</course>
  <speed>0.01</speed>
  <fix>3d</fix>
</trkpt>
<trkpt lat="-27.2721927" lon="151.2900652">
  <ele>381.82</ele>
  <time>2026-09-01T19:59:31Z</time>
  <course>7.65</course>
  <speed>0.05</speed>
  <fix>3d</fix>
</trkpt>
<trkpt lat="-27.2721925" lon="151.2900651">
  <ele>382.26</ele>
  <time>2026-09-01T19:59:31Z</time>
  <course>107.13</course>
  <speed>0.01</speed>
  <fix>3d</fix>
</trkpt>
<trkpt lat="-27.2721927" lon="151.2900652">
  <ele>381.67</ele>
  <time>2026-09-01T19:59:31Z</time>
  <course>7.6</course>
  <speed>0.05</speed>
  <fix>3d</fix>
</trkpt>
<trkpt lat="-27.2721925" lon="151.2900651">
  <ele>382.26</ele>
  <time>2026-09-01T19:59:31Z</time>
  <course>107.13</course>
  <speed>0.01</speed>
  <fix>3d</fix>
</trkpt>
<trkpt lat="-27.2721927" lon="151.2900653">
  <ele>381.52</ele>
  <time>2026-09-01T19:59:31Z</time>
  <course>7.54</course>
  <speed>0.05</speed>
  <fix>3d</fix>
</trkpt>
<trkpt lat="-27.2721925" lon="151.2900651">
  <ele>381.96</ele>
  <time>2026-09-01T19:59:31Z</time>
  <course>107.58</course>
  <speed>0.01</speed>
  <fix>3d</fix>
</trkpt>
<trkpt lat="-27.2721927" lon="151.2900653">
  <ele>381.38</ele>
  <time>2026-09-01T19:59:31Z</time>
  <course>7.48</course>
  <speed>0.05</speed>
  <fix>3d</fix>
</trkpt>
<trkpt lat="-27.2721925" lon="151.2900651">
  <ele>381.96</ele>
  <time>2026-09-01T19:59:31Z</time>
  <course>107.58</course>
  <speed>0.01</speed>
  <fix>3d</fix>
</trkpt>
<trkpt lat="-27.2721927" lon="151.2900653">
  <ele>381.23</ele>
  <time>2026-09-01T19:59:31Z</time>
  <course>7.43</course>
  <speed>0.05</speed>
  <fix>3d</fix>
</trkpt>
<trkpt lat="-27.2721925" lon="151.2900651">
  <ele>381.66</ele>
  <time>2026-09-01T19:59:31Z</time>
  <course>107.0</course>
  <speed>0.02</speed>
  <fix>3d</fix>
</trkpt>
<trkpt lat="-27.2721927" lon="151.2900654">
  <ele>381.08</ele>
  <time>2026-09-01T19:59:31Z</time>
  <course>7.39</course>
  <speed>0.044721359549995794</speed>
  <fix>3d</fix>
</trkpt>
<trkpt lat="-27.2721925" lon="151.2900651">
  <ele>381.66</ele>
  <time>2026-09-01T19:59:31Z</time>
  <course>107.0</course>
  <speed>0.02</speed>
  <fix>3d</fix>
</trkpt>
<trkpt lat="-27.2721927" lon="151.2900654">
  <ele>380.92</ele>
  <time>2026-09-01T19:59:31Z</time>
  <course>7.36</course>
  <speed>0.044721359549995794</speed>
  <fix>3d</fix>
</trkpt>
<trkpt lat="-27.2721925" lon="151.2900651">
  <ele>381.36</ele>
  <time>2026-09-01T19:59:31Z</time>
  <course>105.29</course>
  <speed>0.02</speed>
  <fix>3d</fix>
</trkpt>
<trkpt lat="-27.2721927" lon="151.2900654">
  <ele>380.77</ele>
  <time>2026-09-01T19:59:31Z</time>
  <course>7.34</course>
  <speed>0.044721359549995794</speed>
  <fix>3d</fix>
</trkpt>
<trkpt lat="-27.2721925" lon="151.2900651">
  <ele>381.36</ele>
  <time>2026-09-01T19:59:31Z</time>
  <course>105.29</course>
  <speed>0.02</speed>
  <fix>3d</fix>
</trkpt>
<trkpt lat="-27.2721927" lon="151.2900654">
  <ele>380.62</ele>
  <time>2026-09-01T19:59:31Z</time>
  <course>7.33</course>
  <speed>0.044721359549995794</speed>
  <fix>3d</fix>
</trkpt>
<trkpt lat="-27.2721925" lon="151.2900652">
  <ele>381.06</ele>
  <time>2026-09-01T19:59:31Z</time>
  <course>103.76</course>
  <speed>0.02</speed>
  <fix>3d</fix>
</trkpt>
<trkpt lat="-27.2721927" lon="151.2900654">
  <ele>380.47</ele>
  <time>2026-09-01T19:59:31Z</time>
  <course>7.32</course>
  <speed>0.044721359549995794</speed>
  <fix>3d</fix>
</trkpt>
<trkpt lat="-27.2721925" lon="151.2900652">
  <ele>381.06</ele>
  <time>2026-09-01T19:59:31Z</time>
  <course>103.76</course>
  <speed>0.02</speed>
  <fix>3d</fix>
</trkpt>
<trkpt lat="-27.2721927" lon="151.2900655">
  <ele>380.32</ele>
  <time>2026-09-01T19:59:31Z</time>
  <course>7.32</course>
  <speed>0.044721359549995794</speed>
  <fix>3d</fix>
</trkpt>
<trkpt lat="-27.2721925" lon="151.2900652">
  <ele>380.76</ele>
  <time>2026-09-01T19:59:31Z</time>
  <course>103.25</course>
  <speed>0.02</speed>
  <fix>3d</fix>
</trkpt>
<trkpt lat="-27.2721927" lon="151.2900655">
  <ele>380.16</ele>
  <time>2026-09-01T19:59:31Z</time>
  <course>7.3</course>
  <speed>0.044721359549995794</speed>
  <fix>3d</fix>
</trkpt>
<trkpt lat="-27.2721925" lon="151.2900652">
  <ele>380.76</ele>
  <time>2026-09-01T19:59:31Z</time>
  <course>103.25</course>
  <speed>0.02</speed>
  <fix>3d</fix>
</trkpt>
<trkpt lat="-27.2721927" lon="151.2900655">
  <ele>380.01</ele>
  <time>2026-09-01T19:59:31Z</time>
  <course>7.28</course>
  <speed>0.03605551275463989</speed>
  <fix>3d</fix>
</trkpt>
<trkpt lat="-27.2721925" lon="151.2900653">
  <ele>380.46</ele>
  <time>2026-09-01T19:59:31Z</time>
  <course>102.34</course>
  <speed>0.02</speed>
  <fix>3d</fix>
</trkpt>
<trkpt lat="-27.2721927" lon="151.2900655">
  <ele>379.86</ele>
  <time>2026-09-01T19:59:31Z</time>
  <course>7.25</course>
  <speed>0.044721359549995794</speed>
  <fix>3d</fix>
</trkpt>
<trkpt lat="-27.2721925" lon="151.2900653">
  <ele>380.46</ele>
  <time>2026-09-01T19:59:31Z</time>
  <course>102.34</course>
  <speed>0.02</speed>
  <fix>3d</fix>
</trkpt>
<trkpt lat="-27.2721927" lon="151.2900655">
  <ele>379.71</ele>
  <time>2026-09-01T19:59:31Z</time>
  <course>7.23</course>
  <speed>0.044721359549995794</speed>
  <fix>3d</fix>
</trkpt>
<trkpt lat="-27.2721925" lon="151.2900654">
  <ele>380.16</ele>
  <time>2026-09-01T19:59:31Z</time>
  <course>100.63</course>
  <speed>0.02</speed>
  <fix>3d</fix>
</trkpt>
<trkpt lat="-27.2721927" lon="151.2900656">
  <ele>379.56</ele>
  <time>2026-09-01T19:59:31Z</time>
  <course>7.21</course>
  <speed>0.044721359549995794</speed>
  <fix>3d</fix>
</trkpt>
<trkpt lat="-27.2721925" lon="151.2900654">
  <ele>380.16</ele>
  <time>2026-09-01T19:59:31Z</time>
  <course>100.63</course>
  <speed>0.02</speed>
  <fix>3d</fix>
</trkpt>
<trkpt lat="-27.2721927" lon="151.2900656">
  <ele>379.42</ele>
  <time>2026-09-01T19:59:31Z</time>
  <course>7.19</course>
  <speed>0.044721359549995794</speed>
  <fix>3d</fix>
</trkpt>
<trkpt lat="-27.2721925" lon="151.2900654">
  <ele>379.86</ele>
  <time>2026-09-01T19:59:31Z</time>
  <course>99.17</course>
  <speed>0.02</speed>
  <fix>3d</fix>
</trkpt>
<trkpt lat="-27.2721927" lon="151.2900656">
  <ele>379.27</ele>
  <time>2026-09-01T19:59:31Z</time>
  <course>7.15</course>
  <speed>0.044721359549995794</speed>
  <fix>3d</fix>
</trkpt>
<trkpt lat="-27.2721925" lon="151.2900654">
  <ele>379.86</ele>
  <time>2026-09-01T19:59:31Z</time>
  <course>99.17</course>
  <speed>0.02</speed>
  <fix>3d</fix>
</trkpt>
<trkpt lat="-27.2721927" lon="151.2900656">
  <ele>379.12</ele>
  <time>2026-09-01T19:59:31Z</time>
  <course>7.11</course>
  <speed>0.044721359549995794</speed>
  <fix>3d</fix>
</trkpt>
<trkpt lat="-27.2721925" lon="151.2900655">
  <ele>379.56</ele>
  <time>2026-09-01T19:59:31Z</time>
  <course>98.56</course>
  <speed>0.03</speed>
  <fix>3d</fix>
</trkpt>
<trkpt lat="-27.2721927" lon="151.2900657">
  <ele>378.97</ele>
  <time>2026-09-01T19:59:31Z</time>
  <course>7.06</course>
  <speed>0.044721359549995794</speed>
  <fix>3d</fix>
</trkpt>
<trkpt lat="-27.2721925" lon="151.2900655">
  <ele>379.56</ele>
  <time>2026-09-01T19:59:31Z</time>
  <course>98.56</course>
  <speed>0.03</speed>
  <fix>3d</fix>
</trkpt>
<trkpt lat="-27.2721927" lon="151.2900657">
  <ele>378.82</ele>
  <time>2026-09-01T19:59:31Z</time>
  <course>7.01</course>
  <speed>0.044721359549995794</speed>
  <fix>3d</fix>
</trkpt>
<trkpt lat="-27.2721925" lon="151.2900656">
  <ele>379.26</ele>
  <time>2026-09-01T19:59:31Z</time>
  <course>98.66</course>
  <speed>0.03</speed>
  <fix>3d</fix>
</trkpt>
<trkpt lat="-27.2721927" lon="151.2900657">
  <ele>378.67</ele>
  <time>2026-09-01T19:59:31Z</time>
  <course>6.97</course>
  <speed>0.044721359549995794</speed>
  <fix>3d</fix>
</trkpt>
<trkpt lat="-27.2721925" lon="151.2900656">
  <ele>379.26</ele>
  <time>2026-09-01T19:59:31Z</time>
  <course>98.66</course>
  <speed>0.03</speed>
  <fix>3d</fix>
</trkpt>
<trkpt lat="-27.2721927" lon="151.2900658">
  <ele>378.52</ele>
  <time>2026-09-01T19:59:31Z</time>
  <course>6.93</course>
  <speed>0.044721359549995794</speed>
  <fix>3d</fix>
</trkpt>
<trkpt lat="-27.2721925" lon="151.2900656">
  <ele>378.96</ele>
  <time>2026-09-01T19:59:31Z</time>
  <course>98.75</course>
  <speed>0.03</speed>
  <fix>3d</fix>
</trkpt>
<trkpt lat="-27.2721927" lon="151.2900658">
  <ele>378.37</ele>
  <time>2026-09-01T19:59:31Z</time>
  <course>6.89</course>
  <speed>0.044721359549995794</speed>
  <fix>3d</fix>
</trkpt>
<trkpt lat="-27.2721925" lon="151.2900656">
  <ele>378.96</ele>
  <time>2026-09-01T19:59:31Z</time>
  <course>98.75</course>
  <speed>0.03</speed>
  <fix>3d</fix>
</trkpt>
<trkpt lat="-27.2721927" lon="151.2900658">
  <ele>378.22</ele>
  <time>2026-09-01T19:59:31Z</time>
  <course>6.84</course>
  <speed>0.044721359549995794</speed>
  <fix>3d</fix>
</trkpt>
<trkpt lat="-27.2721925" lon="151.2900657">
  <ele>378.66</ele>
  <time>2026-09-01T19:59:31Z</time>
  <course>98.77</course>
  <speed>0.03</speed>
  <fix>3d</fix>
</trkpt>
<trkpt lat="-27.2721927" lon="151.2900659">
  <ele>378.07</ele>
  <time>2026-09-01T19:59:31Z</time>
  <course>6.8</course>
  <speed>0.044721359549995794</speed>
  <fix>3d</fix>
</trkpt>
<trkpt lat="-27.2721925" lon="151.2900657">
  <ele>378.66</ele>
  <time>2026-09-01T19:59:31Z</time>
  <course>98.77</course>
  <speed>0.03</speed>
  <fix>3d</fix>
</trkpt>
<trkpt lat="-27.2721927" lon="151.2900659">
  <ele>377.92</ele>
  <time>2026-09-01T19:59:31Z</time>
  <course>6.76</course>
  <speed>0.053851648071345036</speed>
  <fix>3d</fix>
</trkpt>
<trkpt lat="-27.2721926" lon="151.2900657">
  <ele>378.36</ele>
  <time>2026-09-01T19:59:31Z</time>
  <course>98.84</course>
  <speed>0.03</speed>
  <fix>3d</fix>
</trkpt>
<trkpt lat="-27.2721927" lon="151.2900659">
  <ele>377.76</ele>
  <time>2026-09-01T19:59:31Z</time>
  <course>6.72</course>
  <speed>0.053851648071345036</speed>
  <fix>3d</fix>
</trkpt>
<trkpt lat="-27.2721926" lon="151.2900657">
  <ele>378.36</ele>
  <time>2026-09-01T19:59:31Z</time>
  <course>98.84</course>
  <speed>0.03</speed>
  <fix>3d</fix>
</trkpt>
<trkpt lat="-27.2721927" lon="151.290066">
  <ele>377.61</ele>
  <time>2026-09-01T19:59:31Z</time>
  <course>6.67</course>
  <speed>0.053851648071345036</speed>
  <fix>3d</fix>
</trkpt>
<trkpt lat="-27.2721926" lon="151.2900658">
  <ele>378.06</ele>
  <time>2026-09-01T19:59:31Z</time>
  <course>98.93</course>
  <speed>0.03</speed>
  <fix>3d</fix>
</trkpt>
<trkpt lat="-27.2721927" lon="151.290066">
  <ele>377.46</ele>
  <time>2026-09-01T19:59:31Z</time>
  <course>6.63</course>
  <speed>0.053851648071345036</speed>
  <fix>3d</fix>
</trkpt>
<trkpt lat="-27.2721926" lon="151.2900658">
  <ele>378.06</ele>
  <time>2026-09-01T19:59:31Z</time>
  <course>98.93</course>
  <speed>0.03</speed>
  <fix>3d</fix>
</trkpt>
<trkpt lat="-27.2721927" lon="151.290066">
  <ele>377.31</ele>
  <time>2026-09-01T19:59:31Z</time>
  <course>6.58</course>
  <speed>0.053851648071345036</speed>
  <fix>3d</fix>
</trkpt>
<trkpt lat="-27.2721926" lon="151.2900659">
  <ele>377.76</ele>
  <time>2026-09-01T19:59:31Z</time>
  <course>99.04</course>
  <speed>0.04</speed>
  <fix>3d</fix>
</trkpt>
<trkpt lat="-27.2721927" lon="151.2900661">
  <ele>377.16</ele>
  <time>2026-09-01T19:59:31Z</time>
  <course>6.52</course>
  <speed>0.053851648071345036</speed>
  <fix>3d</fix>
</trkpt>
<trkpt lat="-27.2721926" lon="151.2900659">
  <ele>377.76</ele>
  <time>2026-09-01T19:59:31Z</time>
  <course>99.04</course>
  <speed>0.04</speed>
  <fix>3d</fix>
</trkpt>
<trkpt lat="-27.2721927" lon="151.2900661">
  <ele>377.01</ele>
  <time>2026-09-01T19:59:31Z</time>
  <course>6.45</course>
  <speed>0.053851648071345036</speed>
  <fix>3d</fix>
</trkpt>
<trkpt lat="-27.2721926" lon="151.290066">
  <ele>377.46</ele>
  <time>2026-09-01T19:59:31Z</time>
  <course>98.73</course>
  <speed>0.04</speed>
  <fix>3d</fix>
</trkpt>
<trkpt lat="-27.2721927" lon="151.2900662">
  <ele>376.86</ele>
  <time>2026-09-01T19:59:31Z</time>
  <course>6.38</course>
  <speed>0.053851648071345036</speed>
  <fix>3d</fix>
</trkpt>
<trkpt lat="-27.2721926" lon="151.290066">
  <ele>377.46</ele>
  <time>2026-09-01T19:59:31Z</time>
  <course>98.73</course>
  <speed>0.04</speed>
  <fix>3d</fix>
</trkpt>
<trkpt lat="-27.2721927" lon="151.2900662">
  <ele>376.71</ele>
  <time>2026-09-01T19:59:31Z</time>
  <course>6.3</course>
  <speed>0.053851648071345036</speed>
  <fix>3d</fix>
</trkpt>
<trkpt lat="-27.2721926" lon="151.2900661">
  <ele>377.16</ele>
  <time>2026-09-01T19:59:31Z</time>
  <course>97.92</course>
  <speed>0.04</speed>
  <fix>3d</fix>
</trkpt>
<trkpt lat="-27.2721927" lon="151.2900663">
  <ele>376.56</ele>
  <time>2026-09-01T19:59:31Z</time>
  <course>6.21</course>
  <speed>0.0632455532033676</speed>
  <fix>3d</fix>
</trkpt>
<trkpt lat="-27.2721926" lon="151.2900661">
  <ele>377.16</ele>
  <time>2026-09-01T19:59:31Z</time>
  <course>97.92</course>
  <speed>0.04</speed>
  <fix>3d</fix>
</trkpt>
<trkpt lat="-27.2721927" lon="151.2900663">
  <ele>376.41</ele>
  <time>2026-09-01T19:59:31Z</time>
  <course>6.13</course>
  <speed>0.0632455532033676</speed>
  <fix>3d</fix>
</trkpt>
<trkpt lat="-27.2721926" lon="151.2900662">
  <ele>376.86</ele>
  <time>2026-09-01T19:59:31Z</time>
  <course>96.73</course>
  <speed>0.04</speed>
  <fix>3d</fix>
</trkpt>
<trkpt lat="-27.2721927" lon="151.2900664">
  <ele>376.26</ele>
  <time>2026-09-01T19:59:31Z</time>
  <course>6.04</course>
  <speed>0.0632455532033676</speed>
  <fix>3d</fix>
</trkpt>
<trkpt lat="-27.2721926" lon="151.2900662">
  <ele>376.86</ele>
  <time>2026-09-01T19:59:31Z</time>
  <course>96.73</course>
  <speed>0.04</speed>
  <fix>3d</fix>
</trkpt>
<trkpt lat="-27.2721927" lon="151.2900664">
  <ele>376.11</ele>
  <time>2026-09-01T19:59:31Z</time>
  <course>5.95</course>
  <speed>0.0632455532033676</speed>
  <fix>3d</fix>
</trkpt>
<trkpt lat="-27.2721926" lon="151.2900663">
  <ele>376.57</ele>
  <time>2026-09-01T19:59:31Z</time>
  <course>95.42</course>
  <speed>0.05</speed>
  <fix>3d</fix>
</trkpt>
<trkpt lat="-27.2721928" lon="151.2900665">
  <ele>375.96</ele>
  <time>2026-09-01T19:59:31Z</time>
  <course>5.86</course>
  <speed>0.0632455532033676</speed>
  <fix>3d</fix>
</trkpt>
<trkpt lat="-27.2721926" lon="151.2900663">
  <ele>376.57</ele>
  <time>2026-09-01T19:59:31Z</time>
  <course>95.42</course>
  <speed>0.05</speed>
  <fix>3d</fix>
</trkpt>
<trkpt lat="-27.2721927" lon="151.2900665">
  <ele>375.82</ele>
  <time>2026-09-01T19:59:31Z</time>
  <course>5.78</course>
  <speed>0.0632455532033676</speed>
  <fix>3d</fix>
</trkpt>
<trkpt lat="-27.2721926" lon="151.2900664">
  <ele>376.27</ele>
  <time>2026-09-01T19:59:31Z</time>
  <course>94.08</course>
  <speed>0.05</speed>
  <fix>3d</fix>
</trkpt>
<trkpt lat="-27.2721928" lon="151.2900666">
  <ele>375.67</ele>
  <time>2026-09-01T19:59:31Z</time>
  <course>5.77</course>
  <speed>0.053851648071345036</speed>
  <fix>3d</fix>
</trkpt>
<trkpt lat="-27.2721926" lon="151.2900664">
  <ele>376.27</ele>
  <time>2026-09-01T19:59:31Z</time>
  <course>94.08</course>
  <speed>0.05</speed>
  <fix>3d</fix>
</trkpt>
<trkpt lat="-27.2721927" lon="151.2900666">
  <ele>375.52</ele>
  <time>2026-09-01T19:59:31Z</time>
  <course>5.94</course>
  <speed>0.0412310562561766</speed>
  <fix>3d</fix>
</trkpt>
<trkpt lat="-27.2721926" lon="151.2900665">
  <ele>375.97</ele>
  <time>2026-09-01T19:59:31Z</time>
  <course>92.52</course>
  <speed>0.05</speed>
  <fix>3d</fix>
</trkpt>
<trkpt lat="-27.2721927" lon="151.2900667">
  <ele>375.37</ele>
  <time>2026-09-01T19:59:31Z</time>
  <course>6.28</course>
  <speed>0.022360679774997897</speed>
  <fix>3d</fix>
</trkpt>
<trkpt lat="-27.2721926" lon="151.2900665">
  <ele>375.97</ele>
  <time>2026-09-01T19:59:31Z</time>
  <course>92.52</course>
  <speed>0.05</speed>
  <fix>3d</fix>
</trkpt>
<trkpt lat="-27.2721927" lon="151.2900667">
  <ele>375.22</ele>
  <time>2026-09-01T19:59:31Z</time>
  <course>6.74</course>
  <speed>0.01</speed>
  <fix>3d</fix>
</trkpt>
<trkpt lat="-27.2721926" lon="151.2900666">
  <ele>375.68</ele>
  <time>2026-09-01T19:59:31Z</time>
  <course>88.22</course>
  <speed>0.03</speed>
  <fix>3d</fix>
</trkpt>
<trkpt lat="-27.2721927" lon="151.2900667">
  <ele>375.07</ele>
  <time>2026-09-01T19:59:31Z</time>
  <course>7.24</course>
  <speed>0.01</speed>
  <fix>3d</fix>
</trkpt>
<trkpt lat="-27.2721926" lon="151.2900666">
  <ele>375.68</ele>
  <time>2026-09-01T19:59:31Z</time>
  <course>88.22</course>
  <speed>0.03</speed>
  <fix>3d</fix>
</trkpt>
<trkpt lat="-27.2721927" lon="151.2900667">
  <ele>374.92</ele>
  <time>2026-09-01T19:59:31Z</time>
  <course>7.71</course>
  <speed>0.022360679774997897</speed>
  <fix>3d</fix>
</trkpt>
<trkpt lat="-27.2721926" lon="151.2900666">
  <ele>375.38</ele>
  <time>2026-09-01T19:59:31Z</time>
  <course>321.64</course>
  <speed>0.0</speed>
  <fix>3d</fix>
</trkpt>
<trkpt lat="-27.2721927" lon="151.2900667">
  <ele>374.77</ele>
  <time>2026-09-01T19:59:31Z</time>
  <course>8.08</course>
  <speed>0.0412310562561766</speed>
  <fix>3d</fix>
</trkpt>
<trkpt lat="-27.2721926" lon="151.2900666">
  <ele>375.38</ele>
  <time>2026-09-01T19:59:31Z</time>
  <course>321.64</course>
  <speed>0.0</speed>
  <fix>3d</fix>
</trkpt>
<trkpt lat="-27.2721927" lon="151.2900666">
  <ele>374.62</ele>
  <time>2026-09-01T19:59:31Z</time>
  <course>8.34</course>
  <speed>0.05099019513592785</speed>
  <fix>3d</fix>
</trkpt>
<trkpt lat="-27.2721926" lon="151.2900666">
  <ele>375.08</ele>
  <time>2026-09-01T19:59:31Z</time>
  <course>281.99</course>
  <speed>0.03</speed>
  <fix>3d</fix>
</trkpt>
<trkpt lat="-27.2721927" lon="151.2900666">
  <ele>374.47</ele>
  <time>2026-09-01T19:59:31Z</time>
  <course>8.48</course>
  <speed>0.06082762530298219</speed>
  <fix>3d</fix>
</trkpt>
<trkpt lat="-27.2721926" lon="151.2900666">
  <ele>375.08</ele>
  <time>2026-09-01T19:59:31Z</time>
  <course>281.99</course>
  <speed>0.03</speed>
  <fix>3d</fix>
</trkpt>
<trkpt lat="-27.2721927" lon="151.2900665">
  <ele>374.32</ele>
  <time>2026-09-01T19:59:31Z</time>
  <course>8.5</course>
  <speed>0.07071067811865475</speed>
  <fix>3d</fix>
</trkpt>
<trkpt lat="-27.2721926" lon="151.2900666">
  <ele>374.78</ele>
  <time>2026-09-01T19:59:31Z</time>
  <course>277.89</course>
  <speed>0.06</speed>
  <fix>3d</fix>
</trkpt>
<trkpt lat="-27.2721927" lon="151.2900664">
  <ele>374.16</ele>
  <time>2026-09-01T19:59:31Z</time>
  <course>8.45</course>
  <speed>0.09055385138137417</speed>
  <fix>3d</fix>
</trkpt>
<trkpt lat="-27.2721926" lon="151.2900666">
  <ele>374.78</ele>
  <time>2026-09-01T19:59:31Z</time>
  <course>277.89</course>
  <speed>0.06</speed>
  <fix>3d</fix>
</trkpt>
<trkpt lat="-27.2721927" lon="151.2900663">
  <ele>374.01</ele>
  <time>2026-09-01T19:59:31Z</time>
  <course>8.35</course>
  <speed>0.1004987562112089</speed>
  <fix>3d</fix>
</trkpt>
<trkpt lat="-27.2721926" lon="151.2900664">
  <ele>374.47</ele>
  <time>2026-09-01T19:59:31Z</time>
  <course>275.78</course>
  <speed>0.09</speed>
  <fix>3d</fix>
</trkpt>
<trkpt lat="-27.2721927" lon="151.2900662">
  <ele>373.86</ele>
  <time>2026-09-01T19:59:31Z</time>
  <course>8.23</course>
  <speed>0.1004987562112089</speed>
  <fix>3d</fix>
</trkpt>
<trkpt lat="-27.2721926" lon="151.2900664">
  <ele>374.47</ele>
  <time>2026-09-01T19:59:31Z</time>
  <course>275.78</course>
  <speed>0.09</speed>
  <fix>3d</fix>
</trkpt>
<trkpt lat="-27.2721927" lon="151.290066">
  <ele>373.71</ele>
  <time>2026-09-01T19:59:31Z</time>
  <course>8.13</course>
  <speed>0.11045361017187261</speed>
  <fix>3d</fix>
</trkpt>
<trkpt lat="-27.2721926" lon="151.2900662">
  <ele>374.18</ele>
  <time>2026-09-01T19:59:31Z</time>
  <course>274.4</course>
  <speed>0.11</speed>
  <fix>3d</fix>
</trkpt>
<trkpt lat="-27.2721927" lon="151.2900659">
  <ele>373.56</ele>
  <time>2026-09-01T19:59:31Z</time>
  <course>8.05</course>
  <speed>0.12041594578792296</speed>
  <fix>3d</fix>
</trkpt>
<trkpt lat="-27.2721926" lon="151.2900662">
  <ele>374.18</ele>
  <time>2026-09-01T19:59:31Z</time>
  <course>274.4</course>
  <speed>0.11</speed>
  <fix>3d</fix>
</trkpt>
<trkpt lat="-27.2721927" lon="151.2900658">
  <ele>373.41</ele>
  <time>2026-09-01T19:59:31Z</time>
  <course>8.0</course>
  <speed>0.130384048104053</speed>
  <fix>3d</fix>
</trkpt>
<trkpt lat="-27.2721926" lon="151.2900659">
  <ele>373.88</ele>
  <time>2026-09-01T19:59:31Z</time>
  <course>273.51</course>
  <speed>0.13</speed>
  <fix>3d</fix>
</trkpt>
<trkpt lat="-27.2721927" lon="151.2900656">
  <ele>373.27</ele>
  <time>2026-09-01T19:59:31Z</time>
  <course>7.99</course>
  <speed>0.130384048104053</speed>
  <fix>3d</fix>
</trkpt>
<trkpt lat="-27.2721926" lon="151.2900659">
  <ele>373.88</ele>
  <time>2026-09-01T19:59:31Z</time>
  <course>273.51</course>
  <speed>0.13</speed>
  <fix>3d</fix>
</trkpt>
<trkpt lat="-27.2721927" lon="151.2900655">
  <ele>373.12</ele>
  <time>2026-09-01T19:59:31Z</time>
  <course>8.0</course>
  <speed>0.140356688476182</speed>
  <fix>3d</fix>
</trkpt>
<trkpt lat="-27.2721926" lon="151.2900656">
  <ele>373.58</ele>
  <time>2026-09-01T19:59:31Z</time>
  <course>272.89</course>
  <speed>0.14</speed>
  <fix>3d</fix>
</trkpt>
<trkpt lat="-27.2721927" lon="151.2900653">
  <ele>372.97</ele>
  <time>2026-09-01T19:59:31Z</time>
  <course>8.03</course>
  <speed>0.140356688476182</speed>
  <fix>3d</fix>
</trkpt>
<trkpt lat="-27.2721926" lon="151.2900656">
  <ele>373.58</ele>
  <time>2026-09-01T19:59:31Z</time>
  <course>272.89</course>
  <speed>0.14</speed>
  <fix>3d</fix>
</trkpt>
<trkpt lat="-27.2721927" lon="151.2900652">
  <ele>372.82</ele>
  <time>2026-09-01T19:59:31Z</time>
  <course>8.07</course>
  <speed>0.140356688476182</speed>
  <fix>3d</fix>
</trkpt>
<trkpt lat="-27.2721926" lon="151.2900653">
  <ele>373.28</ele>
  <time>2026-09-01T19:59:31Z</time>
  <course>272.48</course>
  <speed>0.16</speed>
  <fix>3d</fix>
</trkpt>
<trkpt lat="-27.2721927" lon="151.290065">
  <ele>372.68</ele>
  <time>2026-09-01T19:59:31Z</time>
  <course>8.12</course>
  <speed>0.15033296378372907</speed>
  <fix>3d</fix>
</trkpt>
<trkpt lat="-27.2721926" lon="151.2900653">
  <ele>373.28</ele>
  <time>2026-09-01T19:59:31Z</time>
  <course>272.48</course>
  <speed>0.16</speed>
  <fix>3d</fix>
</trkpt>
<trkpt lat="-27.2721927" lon="151.2900648">
  <ele>372.53</ele>
  <time>2026-09-01T19:59:31Z</time>
  <course>8.17</course>
  <speed>0.15033296378372907</speed>
  <fix>3d</fix>
</trkpt>
<trkpt lat="-27.2721926" lon="151.290065">
  <ele>372.98</ele>
  <time>2026-09-01T19:59:31Z</time>
  <course>272.38</course>
  <speed>0.16</speed>
  <fix>3d</fix>
</trkpt>
<trkpt lat="-27.2721927" lon="151.2900647">
  <ele>372.38</ele>
  <time>2026-09-01T19:59:31Z</time>
  <course>8.2</course>
  <speed>0.15033296378372907</speed>
  <fix>3d</fix>
</trkpt>
<trkpt lat="-27.2721926" lon="151.290065">
  <ele>372.98</ele>
  <time>2026-09-01T19:59:31Z</time>
  <course>272.38</course>
  <speed>0.16</speed>
  <fix>3d</fix>
</trkpt>
<trkpt lat="-27.2721927" lon="151.2900645">
  <ele>372.23</ele>
  <time>2026-09-01T19:59:31Z</time>
  <course>8.23</course>
  <speed>0.15033296378372907</speed>
  <fix>3d</fix>
</trkpt>
<trkpt lat="-27.2721926" lon="151.2900647">
  <ele>372.69</ele>
  <time>2026-09-01T19:59:31Z</time>
  <course>272.44</course>
  <speed>0.17</speed>
  <fix>3d</fix>
</trkpt>
<trkpt lat="-27.2721927" lon="151.2900643">
  <ele>372.08</ele>
  <time>2026-09-01T19:59:31Z</time>
  <course>8.24</course>
  <speed>0.140356688476182</speed>
  <fix>3d</fix>
</trkpt>
<trkpt lat="-27.2721926" lon="151.2900647">
  <ele>372.69</ele>
  <time>2026-09-01T19:59:31Z</time>
  <course>272.44</course>
  <speed>0.17</speed>
  <fix>3d</fix>
</trkpt>
<trkpt lat="-27.2721927" lon="151.2900642">
  <ele>371.93</ele>
  <time>2026-09-01T19:59:31Z</time>
  <course>8.25</course>
  <speed>0.140356688476182</speed>
  <fix>3d</fix>
</trkpt>
<trkpt lat="-27.2721926" lon="151.2900643">
  <ele>372.39</ele>
  <time>2026-09-01T19:59:31Z</time>
  <course>272.38</course>
  <speed>0.16</speed>
  <fix>3d</fix>
</trkpt>
<trkpt lat="-27.2721927" lon="151.290064">
  <ele>371.77</ele>
  <time>2026-09-01T19:59:31Z</time>
  <course>8.25</course>
  <speed>0.1414213562373095</speed>
  <fix>3d</fix>
</trkpt>
<trkpt lat="-27.2721926" lon="151.2900643">
  <ele>372.39</ele>
  <time>2026-09-01T19:59:31Z</time>
  <course>272.38</course>
  <speed>0.16</speed>
  <fix>3d</fix>
</trkpt>
<trkpt lat="-27.2721927" lon="151.2900639">
  <ele>371.62</ele>
  <time>2026-09-01T19:59:31Z</time>
  <course>8.25</course>
  <speed>0.13152946437965907</speed>
  <fix>3d</fix>
</trkpt>
<trkpt lat="-27.2721926" lon="151.290064">
  <ele>372.09</ele>
  <time>2026-09-01T19:59:31Z</time>
  <course>272.2</course>
  <speed>0.16</speed>
  <fix>3d</fix>
</trkpt>
<trkpt lat="-27.2721927" lon="151.2900637">
  <ele>371.47</ele>
  <time>2026-09-01T19:59:31Z</time>
  <course>8.24</course>
  <speed>0.12165525060596438</speed>
  <fix>3d</fix>
</trkpt>
<trkpt lat="-27.2721926" lon="151.290064">
  <ele>372.09</ele>
  <time>2026-09-01T19:59:31Z</time>
  <course>272.2</course>
  <speed>0.16</speed>
  <fix>3d</fix>
</trkpt>
<trkpt lat="-27.2721927" lon="151.2900636">
  <ele>371.32</ele>
  <time>2026-09-01T19:59:31Z</time>
  <course>8.25</course>
  <speed>0.12165525060596438</speed>
  <fix>3d</fix>
</trkpt>
<trkpt lat="-27.2721926" lon="151.2900637">
  <ele>371.79</ele>
  <time>2026-09-01T19:59:31Z</time>
  <course>272.13</course>
  <speed>0.15</speed>
  <fix>3d</fix>
</trkpt>
<trkpt lat="-27.2721927" lon="151.2900634">
  <ele>371.17</ele>
  <time>2026-09-01T19:59:31Z</time>
  <course>8.25</course>
  <speed>0.1118033988749895</speed>
  <fix>3d</fix>
</trkpt>
<trkpt lat="-27.2721926" lon="151.2900637">
  <ele>371.79</ele>
  <time>2026-09-01T19:59:31Z</time>
  <course>272.13</course>
  <speed>0.15</speed>
  <fix>3d</fix>
</trkpt>
<trkpt lat="-27.2721927" lon="151.2900633">
  <ele>371.02</ele>
  <time>2026-09-01T19:59:31Z</time>
  <course>8.27</course>
  <speed>0.1019803902718557</speed>
  <fix>3d</fix>
</trkpt>
<trkpt lat="-27.2721926" lon="151.2900634">
  <ele>371.48</ele>
  <time>2026-09-01T19:59:31Z</time>
  <course>272.23</course>
  <speed>0.14</speed>
  <fix>3d</fix>
</trkpt>
<trkpt lat="-27.2721927" lon="151.2900632">
  <ele>370.87</ele>
  <time>2026-09-01T19:59:31Z</time>
  <course>8.29</course>
  <speed>0.1019803902718557</speed>
  <fix>3d</fix>
</trkpt>
<trkpt lat="-27.2721926" lon="151.2900634">
  <ele>371.48</ele>
  <time>2026-09-01T19:59:31Z</time>
  <course>272.23</course>
  <speed>0.14</speed>
  <fix>3d</fix>
</trkpt>
<trkpt lat="-27.2721927" lon="151.2900631">
  <ele>370.72</ele>
  <time>2026-09-01T19:59:31Z</time>
  <course>8.32</course>
  <speed>0.09219544457292887</speed>
  <fix>3d</fix>
</trkpt>
<trkpt lat="-27.2721925" lon="151.2900631">
  <ele>371.18</ele>
  <time>2026-09-01T19:59:31Z</time>
  <course>272.61</course>
  <speed>0.12</speed>
  <fix>3d</fix>
</trkpt>
<trkpt lat="-27.2721927" lon="151.290063">
  <ele>370.57</ele>
  <time>2026-09-01T19:59:31Z</time>
  <course>8.34</course>
  <speed>0.0824621125123532</speed>
  <fix>3d</fix>
</trkpt>
<trkpt lat="-27.2721925" lon="151.2900631">
  <ele>371.18</ele>
  <time>2026-09-01T19:59:31Z</time>
  <course>272.61</course>
  <speed>0.12</speed>
  <fix>3d</fix>
</trkpt>
<trkpt lat="-27.2721927" lon="151.2900629">
  <ele>370.42</ele>
  <time>2026-09-01T19:59:31Z</time>
  <course>8.37</course>
  <speed>0.07280109889280519</speed>
  <fix>3d</fix>
</trkpt>
<trkpt lat="-27.2721925" lon="151.2900629">
  <ele>370.88</ele>
  <time>2026-09-01T19:59:31Z</time>
  <course>273.1</course>
  <speed>0.11</speed>
  <fix>3d</fix>
</trkpt>
<trkpt lat="-27.2721927" lon="151.2900628">
  <ele>370.27</ele>
  <time>2026-09-01T19:59:31Z</time>
  <course>8.39</course>
  <speed>0.0632455532033676</speed>
  <fix>3d</fix>
</trkpt>
<trkpt lat="-27.2721925" lon="151.2900629">
  <ele>370.88</ele>
  <time>2026-09-01T19:59:31Z</time>
  <course>273.1</course>
  <speed>0.11</speed>
  <fix>3d</fix>
</trkpt>
<trkpt lat="-27.2721927" lon="151.2900627">
  <ele>370.12</ele>
  <time>2026-09-01T19:59:31Z</time>
  <course>8.41</course>
  <speed>0.053851648071345036</speed>
  <fix>3d</fix>
</trkpt>
<trkpt lat="-27.2721925" lon="151.2900627">
  <ele>370.58</ele>
  <time>2026-09-01T19:59:31Z</time>
  <course>273.47</course>
  <speed>0.09</speed>
  <fix>3d</fix>
</trkpt>
<trkpt lat="-27.2721927" lon="151.2900626">
  <ele>369.97</ele>
  <time>2026-09-01T19:59:31Z</time>
  <course>8.44</course>
  <speed>0.044721359549995794</speed>
  <fix>3d</fix>
</trkpt>
<trkpt lat="-27.2721925" lon="151.2900627">
  <ele>370.58</ele>
  <time>2026-09-01T19:59:31Z</time>
  <course>273.47</course>
  <speed>0.09</speed>
  <fix>3d</fix>
</trkpt>
<trkpt lat="-27.2721927" lon="151.2900626">
  <ele>369.82</ele>
  <time>2026-09-01T19:59:31Z</time>
  <course>8.45</course>
  <speed>0.044721359549995794</speed>
  <fix>3d</fix>
</trkpt>
<trkpt lat="-27.2721925" lon="151.2900624">
  <ele>370.28</ele>
  <time>2026-09-01T19:59:31Z</time>
  <course>274.03</course>
  <speed>0.07</speed>
  <fix>3d</fix>
</trkpt>
<trkpt lat="-27.2721927" lon="151.2900625">
  <ele>369.67</ele>
  <time>2026-09-01T19:59:31Z</time>
  <course>8.47</course>
  <speed>0.03605551275463989</speed>
  <fix>3d</fix>
</trkpt>
<trkpt lat="-27.2721925" lon="151.2900624">
  <ele>370.28</ele>
  <time>2026-09-01T19:59:31Z</time>
  <course>274.03</course>
  <speed>0.07</speed>
  <fix>3d</fix>
</trkpt>
<trkpt lat="-27.2721927" lon="151.2900624">
  <ele>369.53</ele>
  <time>2026-09-01T19:59:31Z</time>
  <course>8.48</course>
  <speed>0.0282842712474619</speed>
  <fix>3d</fix>
</trkpt>
<trkpt lat="-27.2721925" lon="151.2900623">
  <ele>369.97</ele>
  <time>2026-09-01T19:59:31Z</time>
  <course>274.97</course>
  <speed>0.06</speed>
  <fix>3d</fix>
</trkpt>
<trkpt lat="-27.2721927" lon="151.2900624">
  <ele>369.38</ele>
  <time>2026-09-01T19:59:31Z</time>
  <course>8.48</course>
  <speed>0.022360679774997897</speed>
  <fix>3d</fix>
</trkpt>
<trkpt lat="-27.2721925" lon="151.2900623">
  <ele>369.97</ele>
  <time>2026-09-01T19:59:31Z</time>
  <course>274.97</course>
  <speed>0.06</speed>
  <fix>3d</fix>
</trkpt>
<trkpt lat="-27.2721927" lon="151.2900624">
  <ele>369.23</ele>
  <time>2026-09-01T19:59:31Z</time>
  <course>8.46</course>
  <speed>0.02</speed>
  <fix>3d</fix>
</trkpt>
<trkpt lat="-27.2721925" lon="151.2900622">
  <ele>369.68</ele>
  <time>2026-09-01T19:59:31Z</time>
  <course>276.21</course>
  <speed>0.04</speed>
  <fix>3d</fix>
</trkpt>
<trkpt lat="-27.2721927" lon="151.2900624">
  <ele>369.08</ele>
  <time>2026-09-01T19:59:31Z</time>
  <course>8.44</course>
  <speed>0.02</speed>
  <fix>3d</fix>
</trkpt>
<trkpt lat="-27.2721925" lon="151.2900622">
  <ele>369.68</ele>
  <time>2026-09-01T19:59:31Z</time>
  <course>276.21</course>
  <speed>0.04</speed>
  <fix>3d</fix>
</trkpt>
<trkpt lat="-27.2721927" lon="151.2900623">
  <ele>368.93</ele>
  <time>2026-09-01T19:59:31Z</time>
  <course>8.42</course>
  <speed>0.022360679774997897</speed>
  <fix>3d</fix>
</trkpt>
<trkpt lat="-27.2721925" lon="151.2900622">
  <ele>369.38</ele>
  <time>2026-09-01T19:59:31Z</time>
  <course>278.44</course>
  <speed>0.02</speed>
  <fix>3d</fix>
</trkpt>
<trkpt lat="-27.2721927" lon="151.2900623">
  <ele>368.78</ele>
  <time>2026-09-01T19:59:31Z</time>
  <course>8.36</course>
  <speed>0.0282842712474619</speed>
  <fix>3d</fix>
</trkpt>
<trkpt lat="-27.2721925" lon="151.2900622">
  <ele>369.38</ele>
  <time>2026-09-01T19:59:31Z</time>
  <course>278.44</course>
  <speed>0.02</speed>
  <fix>3d</fix>
</trkpt>
<trkpt lat="-27.2721927" lon="151.2900623">
  <ele>368.63</ele>
  <time>2026-09-01T19:59:31Z</time>
  <course>8.26</course>
  <speed>0.044721359549995794</speed>
  <fix>3d</fix>
</trkpt>
<trkpt lat="-27.2721925" lon="151.2900622">
  <ele>369.08</ele>
  <time>2026-09-01T19:59:31Z</time>
  <course>337.2</course>
  <speed>0.0</speed>
  <fix>3d</fix>
</trkpt>
<trkpt lat="-27.2721927" lon="151.2900623">
  <ele>368.48</ele>
  <time>2026-09-01T19:59:31Z</time>
  <course>8.27</course>
  <speed>0.044721359549995794</speed>
  <fix>3d</fix>
</trkpt>
<trkpt lat="-27.2721925" lon="151.2900622">
  <ele>369.08</ele>
  <time>2026-09-01T19:59:31Z</time>
  <course>337.2</course>
  <speed>0.0</speed>
  <fix>3d</fix>
</trkpt>
<trkpt lat="-27.2721927" lon="151.2900623">
  <ele>368.33</ele>
  <time>2026-09-01T19:59:31Z</time>
  <course>8.42</course>
  <speed>0.044721359549995794</speed>
  <fix>3d</fix>
</trkpt>
<trkpt lat="-27.2721925" lon="151.2900622">
  <ele>368.78</ele>
  <time>2026-09-01T19:59:31Z</time>
  <course>89.27</course>
  <speed>0.01</speed>
  <fix>3d</fix>
</trkpt>
<trkpt lat="-27.2721927" lon="151.2900624">
  <ele>368.17</ele>
  <time>2026-09-01T19:59:31Z</time>
  <course>8.65</course>
  <speed>0.044721359549995794</speed>
  <fix>3d</fix>
</trkpt>
<trkpt lat="-27.2721925" lon="151.2900622">
  <ele>368.78</ele>
  <time>2026-09-01T19:59:31Z</time>
  <course>89.27</course>
  <speed>0.01</speed>
  <fix>3d</fix>
</trkpt>
<trkpt lat="-27.2721927" lon="151.2900624">
  <ele>368.02</ele>
  <time>2026-09-01T19:59:31Z</time>
  <course>8.91</course>
  <speed>0.044721359549995794</speed>
  <fix>3d</fix>
</trkpt>
<trkpt lat="-27.2721925" lon="151.2900622">
  <ele>368.47</ele>
  <time>2026-09-01T19:59:31Z</time>
  <course>88.49</course>
  <speed>0.02</speed>
  <fix>3d</fix>
</trkpt>
<trkpt lat="-27.2721927" lon="151.2900624">
  <ele>367.87</ele>
  <time>2026-09-01T19:59:31Z</time>
  <course>9.15</course>
  <speed>0.044721359549995794</speed>
  <fix>3d</fix>
</trkpt>
<trkpt lat="-27.2721925" lon="151.2900622">
  <ele>368.47</ele>
  <time>2026-09-01T19:59:31Z</time>
  <course>88.49</course>
  <speed>0.02</speed>
  <fix>3d</fix>
</trkpt>
<trkpt lat="-27.2721927" lon="151.2900624">
  <ele>367.72</ele>
  <time>2026-09-01T19:59:31Z</time>
  <course>9.36</course>
  <speed>0.03605551275463989</speed>
  <fix>3d</fix>
</trkpt>
<trkpt lat="-27.2721925" lon="151.2900622">
  <ele>368.17</ele>
  <time>2026-09-01T19:59:31Z</time>
  <course>86.06</course>
  <speed>0.02</speed>
  <fix>3d</fix>
</trkpt>
<trkpt lat="-27.2721927" lon="151.2900625">
  <ele>367.57</ele>
  <time>2026-09-01T19:59:31Z</time>
  <course>9.52</course>
  <speed>0.044721359549995794</speed>
  <fix>3d</fix>
</trkpt>
<trkpt lat="-27.2721925" lon="151.2900622">
  <ele>368.17</ele>
  <time>2026-09-01T19:59:31Z</time>
  <course>86.06</course>
  <speed>0.02</speed>
  <fix>3d</fix>
</trkpt>
<trkpt lat="-27.2721927" lon="151.2900625">
  <ele>367.41</ele>
  <time>2026-09-01T19:59:31Z</time>
  <course>9.62</course>
  <speed>0.044721359549995794</speed>
  <fix>3d</fix>
</trkpt>
<trkpt lat="-27.2721925" lon="151.2900622">
  <ele>367.87</ele>
  <time>2026-09-01T19:59:31Z</time>
  <course>83.94</course>
  <speed>0.02</speed>
  <fix>3d</fix>
</trkpt>
<trkpt lat="-27.2721927" lon="151.2900625">
  <ele>367.26</ele>
  <time>2026-09-01T19:59:31Z</time>
  <course>9.67</course>
  <speed>0.044721359549995794</speed>
  <fix>3d</fix>
</trkpt>
<trkpt lat="-27.2721925" lon="151.2900622">
  <ele>367.87</ele>
  <time>2026-09-01T19:59:31Z</time>
  <course>83.94</course>
  <speed>0.02</speed>
  <fix>3d</fix>
</trkpt>
<trkpt lat="-27.2721927" lon="151.2900625">
  <ele>367.11</ele>
  <time>2026-09-01T19:59:31Z</time>
  <course>9.68</course>
  <speed>0.044721359549995794</speed>
  <fix>3d</fix>
</trkpt>
<trkpt lat="-27.2721925" lon="151.2900622">
  <ele>367.57</ele>
  <time>2026-09-01T19:59:31Z</time>
  <course>82.55</course>
  <speed>0.02</speed>
  <fix>3d</fix>
</trkpt>
<trkpt lat="-27.2721927" lon="151.2900625">
  <ele>366.96</ele>
  <time>2026-09-01T19:59:31Z</time>
  <course>9.66</course>
  <speed>0.044721359549995794</speed>
  <fix>3d</fix>
</trkpt>
<trkpt lat="-27.2721925" lon="151.2900622">
  <ele>367.57</ele>
  <time>2026-09-01T19:59:31Z</time>
  <course>82.55</course>
  <speed>0.02</speed>
  <fix>3d</fix>
</trkpt>
<trkpt lat="-27.2721927" lon="151.2900625">
  <ele>366.81</ele>
  <time>2026-09-01T19:59:31Z</time>
  <course>9.62</course>
  <speed>0.03605551275463989</speed>
  <fix>3d</fix>
</trkpt>
<trkpt lat="-27.2721925" lon="151.2900623">
  <ele>367.27</ele>
  <time>2026-09-01T19:59:31Z</time>
  <course>82.48</course>
  <speed>0.02</speed>
  <fix>3d</fix>
</trkpt>
<trkpt lat="-27.2721927" lon="151.2900625">
  <ele>366.67</ele>
  <time>2026-09-01T19:59:31Z</time>
  <course>9.59</course>
  <speed>0.03605551275463989</speed>
  <fix>3d</fix>
</trkpt>
<trkpt lat="-27.2721925" lon="151.2900623">
  <ele>367.27</ele>
  <time>2026-09-01T19:59:31Z</time>
  <course>82.48</course>
  <speed>0.02</speed>
  <fix>3d</fix>
</trkpt>
<trkpt lat="-27.2721927" lon="151.2900625">
  <ele>366.52</ele>
  <time>2026-09-01T19:59:31Z</time>
  <course>9.55</course>
  <speed>0.03605551275463989</speed>
  <fix>3d</fix>
</trkpt>
<trkpt lat="-27.2721925" lon="151.2900623">
  <ele>366.97</ele>
  <time>2026-09-01T19:59:31Z</time>
  <course>82.32</course>
  <speed>0.02</speed>
  <fix>3d</fix>
</trkpt>
<trkpt lat="-27.2721927" lon="151.2900626">
  <ele>366.37</ele>
  <time>2026-09-01T19:59:31Z</time>
  <course>9.53</course>
  <speed>0.0282842712474619</speed>
  <fix>3d</fix>
</trkpt>
<trkpt lat="-27.2721925" lon="151.2900623">
  <ele>366.97</ele>
  <time>2026-09-01T19:59:31Z</time>
  <course>82.32</course>
  <speed>0.02</speed>
  <fix>3d</fix>
</trkpt>
<trkpt lat="-27.2721927" lon="151.2900626">
  <ele>366.23</ele>
  <time>2026-09-01T19:59:31Z</time>
  <course>9.54</course>
  <speed>0.0282842712474619</speed>
  <fix>3d</fix>
</trkpt>
<trkpt lat="-27.2721925" lon="151.2900623">
  <ele>366.68</ele>
  <time>2026-09-01T19:59:31Z</time>
  <course>82.03</course>
  <speed>0.02</speed>
  <fix>3d</fix>
</trkpt>
<trkpt lat="-27.2721927" lon="151.2900626">
  <ele>366.08</ele>
  <time>2026-09-01T19:59:31Z</time>
  <course>9.57</course>
  <speed>0.0282842712474619</speed>
  <fix>3d</fix>
</trkpt>
<trkpt lat="-27.2721925" lon="151.2900623">
  <ele>366.68</ele>
  <time>2026-09-01T19:59:31Z</time>
  <course>82.03</course>
  <speed>0.02</speed>
  <fix>3d</fix>
</trkpt>
<trkpt lat="-27.2721927" lon="151.2900626">
  <ele>365.93</ele>
  <time>2026-09-01T19:59:31Z</time>
  <course>9.6</course>
  <speed>0.0282842712474619</speed>
  <fix>3d</fix>
</trkpt>
<trkpt lat="-27.2721925" lon="151.2900624">
  <ele>366.38</ele>
  <time>2026-09-01T19:59:31Z</time>
  <course>81.26</course>
  <speed>0.02</speed>
  <fix>3d</fix>
</trkpt>
<trkpt lat="-27.2721927" lon="151.2900626">
  <ele>365.78</ele>
  <time>2026-09-01T19:59:31Z</time>
  <course>9.66</course>
  <speed>0.0282842712474619</speed>
  <fix>3d</fix>
</trkpt>
<trkpt lat="-27.2721925" lon="151.2900624">
  <ele>366.38</ele>
  <time>2026-09-01T19:59:31Z</time>
  <course>81.26</course>
  <speed>0.02</speed>
  <fix>3d</fix>
</trkpt>
<trkpt lat="-27.2721927" lon="151.2900626">
  <ele>365.63</ele>
  <time>2026-09-01T19:59:32Z</time>
  <course>9.71</course>
  <speed>0.0282842712474619</speed>
  <fix>3d</fix>
</trkpt>
<trkpt lat="-27.2721924" lon="151.2900625">
  <ele>366.08</ele>
  <time>2026-09-01T19:59:32Z</time>
  <course>79.45</course>
  <speed>0.01</speed>
  <fix>3d</fix>
</trkpt>
<trkpt lat="-27.2721927" lon="151.2900626">
  <ele>365.49</ele>
  <time>2026-09-01T19:59:32Z</time>
  <course>9.77</course>
  <speed>0.0282842712474619</speed>
  <fix>3d</fix>
</trkpt>
<trkpt lat="-27.2721924" lon="151.2900625">
  <ele>366.08</ele>
  <time>2026-09-01T19:59:32Z</time>
  <course>79.45</course>
  <speed>0.01</speed>
  <fix>3d</fix>
</trkpt>
<trkpt lat="-27.2721927" lon="151.2900626">
  <ele>365.34</ele>
  <time>2026-09-01T19:59:32Z</time>
  <course>9.82</course>
  <speed>0.0282842712474619</speed>
  <fix>3d</fix>
</trkpt>
<trkpt lat="-27.2721924" lon="151.2900625">
  <ele>365.78</ele>
  <time>2026-09-01T19:59:32Z</time>
  <course>77.9</course>
  <speed>0.01</speed>
  <fix>3d</fix>
</trkpt>
<trkpt lat="-27.2721927" lon="151.2900626">
  <ele>365.19</ele>
  <time>2026-09-01T19:59:32Z</time>
  <course>9.85</course>
  <speed>0.0282842712474619</speed>
  <fix>3d</fix>
</trkpt>
<trkpt lat="-27.2721924" lon="151.2900625">
  <ele>365.78</ele>
  <time>2026-09-01T19:59:32Z</time>
  <course>77.9</course>
  <speed>0.01</speed>
  <fix>3d</fix>
</trkpt>
<trkpt lat="-27.2721927" lon="151.2900626">
  <ele>365.04</ele>
  <time>2026-09-01T19:59:32Z</time>
  <course>9.86</course>
  <speed>0.0282842712474619</speed>
  <fix>3d</fix>
</trkpt>
<trkpt lat="-27.2721924" lon="151.2900625">
  <ele>365.47</ele>
  <time>2026-09-01T19:59:32Z</time>
  <course>76.73</course>
  <speed>0.01</speed>
  <fix>3d</fix>
</trkpt>
<trkpt lat="-27.2721927" lon="151.2900626">
  <ele>364.89</ele>
  <time>2026-09-01T19:59:32Z</time>
  <course>9.86</course>
  <speed>0.0282842712474619</speed>
  <fix>3d</fix>
</trkpt>
<trkpt lat="-27.2721924" lon="151.2900625">
  <ele>365.47</ele>
  <time>2026-09-01T19:59:32Z</time>
  <course>76.73</course>
  <speed>0.01</speed>
  <fix>3d</fix>
</trkpt>
<trkpt lat="-27.2721927" lon="151.2900626">
  <ele>364.73</ele>
  <time>2026-09-01T19:59:32Z</time>
  <course>9.86</course>
  <speed>0.022360679774997897</speed>
  <fix>3d</fix>
</trkpt>
<trkpt lat="-27.2721924" lon="151.2900626">
  <ele>365.17</ele>
  <time>2026-09-01T19:59:32Z</time>
  <course>75.4</course>
  <speed>0.01</speed>
  <fix>3d</fix>
</trkpt>
<trkpt lat="-27.2721927" lon="151.2900626">
  <ele>364.58</ele>
  <time>2026-09-01T19:59:32Z</time>
  <course>9.87</course>
  <speed>0.022360679774997897</speed>
  <fix>3d</fix>
</trkpt>
<trkpt lat="-27.2721924" lon="151.2900626">
  <ele>365.17</ele>
  <time>2026-09-01T19:59:32Z</time>
  <course>75.4</course>
  <speed>0.01</speed>
  <fix>3d</fix>
</trkpt>
<trkpt lat="-27.2721926" lon="151.2900627">
  <ele>364.43</ele>
  <time>2026-09-01T19:59:32Z</time>
  <course>9.89</course>
  <speed>0.022360679774997897</speed>
  <fix>3d</fix>
</trkpt>
<trkpt lat="-27.2721924" lon="151.2900626">
  <ele>364.87</ele>
  <time>2026-09-01T19:59:32Z</time>
  <course>73.82</course>
  <speed>0.01</speed>
  <fix>3d</fix>
</trkpt>
<trkpt lat="-27.2721926" lon="151.2900627">
  <ele>364.28</ele>
  <time>2026-09-01T19:59:32Z</time>
  <course>9.92</course>
  <speed>0.022360679774997897</speed>
  <fix>3d</fix>
</trkpt>
<trkpt lat="-27.2721924" lon="151.2900626">
  <ele>364.87</ele>
  <time>2026-09-01T19:59:32Z</time>
  <course>73.82</course>
  <speed>0.01</speed>
  <fix>3d</fix>
</trkpt>
<trkpt lat="-27.2721926" lon="151.2900627">
  <ele>364.13</ele>
  <time>2026-09-01T19:59:32Z</time>
  <course>9.94</course>
  <speed>0.022360679774997897</speed>
  <fix>3d</fix>
</trkpt>
<trkpt lat="-27.2721924" lon="151.2900627">
  <ele>364.57</ele>
  <time>2026-09-01T19:59:32Z</time>
  <course>72.31</course>
  <speed>0.01</speed>
  <fix>3d</fix>
</trkpt>
<trkpt lat="-27.2721926" lon="151.2900627">
  <ele>363.98</ele>
  <time>2026-09-01T19:59:32Z</time>
  <course>9.95</course>
  <speed>0.022360679774997897</speed>
  <fix>3d</fix>
</trkpt>
<trkpt lat="-27.2721924" lon="151.2900627">
  <ele>364.57</ele>
  <time>2026-09-01T19:59:32Z</time>
  <course>72.31</course>
  <speed>0.01</speed>
  <fix>3d</fix>
</trkpt>
<trkpt lat="-27.2721926" lon="151.2900627">
  <ele>363.83</ele>
  <time>2026-09-01T19:59:32Z</time>
  <course>9.95</course>
  <speed>0.022360679774997897</speed>
  <fix>3d</fix>
</trkpt>
<trkpt lat="-27.2721924" lon="151.2900627">
  <ele>364.26</ele>
  <time>2026-09-01T19:59:32Z</time>
  <course>71.55</course>
  <speed>0.01</speed>
  <fix>3d</fix>
</trkpt>
<trkpt lat="-27.2721926" lon="151.2900627">
  <ele>363.68</ele>
  <time>2026-09-01T19:59:32Z</time>
  <course>9.95</course>
  <speed>0.01414213562373095</speed>
  <fix>3d</fix>
</trkpt>
<trkpt lat="-27.2721924" lon="151.2900627">
  <ele>364.26</ele>
  <time>2026-09-01T19:59:32Z</time>
  <course>71.55</course>
  <speed>0.01</speed>
  <fix>3d</fix>
</trkpt>
<trkpt lat="-27.2721926" lon="151.2900627">
  <ele>363.52</ele>
  <time>2026-09-01T19:59:32Z</time>
  <course>9.96</course>
  <speed>0.01414213562373095</speed>
  <fix>3d</fix>
</trkpt>
<trkpt lat="-27.2721924" lon="151.2900627">
  <ele>363.96</ele>
  <time>2026-09-01T19:59:32Z</time>
  <course>71.15</course>
  <speed>0.01</speed>
  <fix>3d</fix>
</trkpt>
<trkpt lat="-27.2721926" lon="151.2900628">
  <ele>363.38</ele>
  <time>2026-09-01T19:59:32Z</time>
  <course>9.97</course>
  <speed>0.01414213562373095</speed>
  <fix>3d</fix>
</trkpt>
<trkpt lat="-27.2721924" lon="151.2900627">
  <ele>363.96</ele>
  <time>2026-09-01T19:59:32Z</time>
  <course>71.15</course>
  <speed>0.01</speed>
  <fix>3d</fix>
</trkpt>
<trkpt lat="-27.2721926" lon="151.2900628">
  <ele>363.23</ele>
  <time>2026-09-01T19:59:32Z</time>
  <course>10.0</course>
  <speed>0.01414213562373095</speed>
  <fix>3d</fix>
</trkpt>
<trkpt lat="-27.2721924" lon="151.2900627">
  <ele>363.66</ele>
  <time>2026-09-01T19:59:32Z</time>
  <course>70.67</course>
  <speed>0.01</speed>
  <fix>3d</fix>
</trkpt>
<trkpt lat="-27.2721926" lon="151.2900628">
  <ele>363.07</ele>
  <time>2026-09-01T19:59:32Z</time>
  <course>10.02</course>
  <speed>0.01414213562373095</speed>
  <fix>3d</fix>
</trkpt>
<trkpt lat="-27.2721924" lon="151.2900627">
  <ele>363.66</ele>
  <time>2026-09-01T19:59:32Z</time>
  <course>70.67</course>
  <speed>0.01</speed>
  <fix>3d</fix>
</trkpt>
<trkpt lat="-27.2721926" lon="151.2900628">
  <ele>362.92</ele>
  <time>2026-09-01T19:59:32Z</time>
  <course>10.03</course>
  <speed>0.01414213562373095</speed>
  <fix>3d</fix>
</trkpt>
<trkpt lat="-27.2721924" lon="151.2900627">
  <ele>363.36</ele>
  <time>2026-09-01T19:59:32Z</time>
  <course>71.1</course>
  <speed>0.01</speed>
  <fix>3d</fix>
</trkpt>
<trkpt lat="-27.2721926" lon="151.2900628">
  <ele>362.77</ele>
  <time>2026-09-01T19:59:32Z</time>
  <course>10.04</course>
  <speed>0.01414213562373095</speed>
  <fix>3d</fix>
</trkpt>
<trkpt lat="-27.2721924" lon="151.2900627">
  <ele>363.36</ele>
  <time>2026-09-01T19:59:32Z</time>
  <course>71.1</course>
  <speed>0.01</speed>
  <fix>3d</fix>
</trkpt>
<trkpt lat="-27.2721926" lon="151.2900628">
  <ele>362.61</ele>
  <time>2026-09-01T19:59:32Z</time>
  <course>10.04</course>
  <speed>0.01414213562373095</speed>
  <fix>3d</fix>
</trkpt>
<trkpt lat="-27.2721924" lon="151.2900627">
  <ele>363.05</ele>
  <time>2026-09-01T19:59:32Z</time>
  <course>73.32</course>
  <speed>0.01</speed>
  <fix>3d</fix>
</trkpt>
<trkpt lat="-27.2721926" lon="151.2900628">
  <ele>362.46</ele>
  <time>2026-09-01T19:59:32Z</time>
  <course>10.04</course>
  <speed>0.022360679774997897</speed>
  <fix>3d</fix>
</trkpt>
<trkpt lat="-27.2721924" lon="151.2900627">
  <ele>363.05</ele>
  <time>2026-09-01T19:59:32Z</time>
  <course>73.32</course>
  <speed>0.01</speed>
  <fix>3d</fix>
</trkpt>
<trkpt lat="-27.2721926" lon="151.2900628">
  <ele>362.3</ele>
  <time>2026-09-01T19:59:32Z</time>
  <course>10.04</course>
  <speed>0.022360679774997897</speed>
  <fix>3d</fix>
</trkpt>
<trkpt lat="-27.2721924" lon="151.2900628">
  <ele>362.75</ele>
  <time>2026-09-01T19:59:32Z</time>
  <course>75.84</course>
  <speed>0.01</speed>
  <fix>3d</fix>
</trkpt>
<trkpt lat="-27.2721926" lon="151.2900628">
  <ele>362.15</ele>
  <time>2026-09-01T19:59:32Z</time>
  <course>10.05</course>
  <speed>0.022360679774997897</speed>
  <fix>3d</fix>
</trkpt>
<trkpt lat="-27.2721924" lon="151.2900628">
  <ele>362.75</ele>
  <time>2026-09-01T19:59:32Z</time>
  <course>75.84</course>
  <speed>0.01</speed>
  <fix>3d</fix>
</trkpt>
<trkpt lat="-27.2721926" lon="151.2900628">
  <ele>362.0</ele>
  <time>2026-09-01T19:59:32Z</time>
  <course>10.05</course>
  <speed>0.022360679774997897</speed>
  <fix>3d</fix>
</trkpt>
<trkpt lat="-27.2721923" lon="151.2900628">
  <ele>362.45</ele>
  <time>2026-09-01T19:59:32Z</time>
  <course>78.74</course>
  <speed>0.01</speed>
  <fix>3d</fix>
</trkpt>
<trkpt lat="-27.2721926" lon="151.2900629">
  <ele>361.85</ele>
  <time>2026-09-01T19:59:32Z</time>
  <course>10.07</course>
  <speed>0.022360679774997897</speed>
  <fix>3d</fix>
</trkpt>
<trkpt lat="-27.2721923" lon="151.2900628">
  <ele>362.45</ele>
  <time>2026-09-01T19:59:32Z</time>
  <course>78.74</course>
  <speed>0.01</speed>
  <fix>3d</fix>
</trkpt>
<trkpt lat="-27.2721926" lon="151.2900629">
  <ele>361.7</ele>
  <time>2026-09-01T19:59:32Z</time>
  <course>10.09</course>
  <speed>0.022360679774997897</speed>
  <fix>3d</fix>
</trkpt>
<trkpt lat="-27.2721923" lon="151.2900628">
  <ele>362.15</ele>
  <time>2026-09-01T19:59:32Z</time>
  <course>81.96</course>
  <speed>0.01</speed>
  <fix>3d</fix>
</trkpt>
<trkpt lat="-27.2721926" lon="151.2900629">
  <ele>361.55</ele>
  <time>2026-09-01T19:59:32Z</time>
  <course>10.1</course>
  <speed>0.022360679774997897</speed>
  <fix>3d</fix>
</trkpt>
<trkpt lat="-27.2721923" lon="151.2900628">
  <ele>362.15</ele>
  <time>2026-09-01T19:59:32Z</time>
  <course>81.96</course>
  <speed>0.01</speed>
  <fix>3d</fix>
</trkpt>
<trkpt lat="-27.2721926" lon="151.2900629">
  <ele>361.41</ele>
  <time>2026-09-01T19:59:32Z</time>
  <course>10.12</course>
  <speed>0.022360679774997897</speed>
  <fix>3d</fix>
</trkpt>
<trkpt lat="-27.2721923" lon="151.2900629">
  <ele>361.86</ele>
  <time>2026-09-01T19:59:32Z</time>
  <course>86.75</course>
  <speed>0.01</speed>
  <fix>3d</fix>
</trkpt>
<trkpt lat="-27.2721926" lon="151.2900629">
  <ele>361.26</ele>
  <time>2026-09-01T19:59:32Z</time>
  <course>10.13</course>
  <speed>0.022360679774997897</speed>
  <fix>3d</fix>
</trkpt>
<trkpt lat="-27.2721923" lon="151.2900629">
  <ele>361.86</ele>
  <time>2026-09-01T19:59:32Z</time>
  <course>86.75</course>
  <speed>0.01</speed>
  <fix>3d</fix>
</trkpt>
<trkpt lat="-27.2721926" lon="151.2900629">
  <ele>361.11</ele>
  <time>2026-09-01T19:59:32Z</time>
  <course>10.13</course>
  <speed>0.022360679774997897</speed>
  <fix>3d</fix>
</trkpt>
<trkpt lat="-27.2721923" lon="151.290063">
  <ele>361.56</ele>
  <time>2026-09-01T19:59:32Z</time>
  <course>92.91</course>
  <speed>0.01</speed>
  <fix>3d</fix>
</trkpt>
<trkpt lat="-27.2721926" lon="151.2900629">
  <ele>360.96</ele>
  <time>2026-09-01T19:59:32Z</time>
  <course>10.14</course>
  <speed>0.022360679774997897</speed>
  <fix>3d</fix>
</trkpt>
<trkpt lat="-27.2721923" lon="151.290063">
  <ele>361.56</ele>
  <time>2026-09-01T19:59:32Z</time>
  <course>92.91</course>
  <speed>0.01</speed>
  <fix>3d</fix>
</trkpt>
<trkpt lat="-27.2721926" lon="151.2900629">
  <ele>360.81</ele>
  <time>2026-09-01T19:59:32Z</time>
  <course>10.14</course>
  <speed>0.022360679774997897</speed>
  <fix>3d</fix>
</trkpt>
<trkpt lat="-27.2721923" lon="151.290063">
  <ele>361.26</ele>
  <time>2026-09-01T19:59:32Z</time>
  <course>96.72</course>
  <speed>0.01</speed>
  <fix>3d</fix>
</trkpt>
<trkpt lat="-27.2721926" lon="151.290063">
  <ele>360.66</ele>
  <time>2026-09-01T19:59:32Z</time>
  <course>10.14</course>
  <speed>0.022360679774997897</speed>
  <fix>3d</fix>
</trkpt>
<trkpt lat="-27.2721923" lon="151.290063">
  <ele>361.26</ele>
  <time>2026-09-01T19:59:32Z</time>
  <course>96.72</course>
  <speed>0.01</speed>
  <fix>3d</fix>
</trkpt>
<trkpt lat="-27.2721926" lon="151.290063">
  <ele>360.52</ele>
  <time>2026-09-01T19:59:32Z</time>
  <course>10.15</course>
  <speed>0.022360679774997897</speed>
  <fix>3d</fix>
</trkpt>
<trkpt lat="-27.2721923" lon="151.290063">
  <ele>360.97</ele>
  <time>2026-09-01T19:59:32Z</time>
  <course>98.97</course>
  <speed>0.01</speed>
  <fix>3d</fix>
</trkpt>
<trkpt lat="-27.2721926" lon="151.290063">
  <ele>360.37</ele>
  <time>2026-09-01T19:59:32Z</time>
  <course>10.15</course>
  <speed>0.022360679774997897</speed>
  <fix>3d</fix>
</trkpt>
<trkpt lat="-27.2721923" lon="151.290063">
  <ele>360.97</ele>
  <time>2026-09-01T19:59:32Z</time>
  <course>98.97</course>
  <speed>0.01</speed>
  <fix>3d</fix>
</trkpt>
<trkpt lat="-27.2721926" lon="151.290063">
  <ele>360.22</ele>
  <time>2026-09-01T19:59:32Z</time>
  <course>10.15</course>
  <speed>0.022360679774997897</speed>
  <fix>3d</fix>
</trkpt>
<trkpt lat="-27.2721923" lon="151.290063">
  <ele>360.66</ele>
  <time>2026-09-01T19:59:32Z</time>
  <course>101.5</course>
  <speed>0.01</speed>
  <fix>3d</fix>
</trkpt>
<trkpt lat="-27.2721926" lon="151.290063">
  <ele>360.07</ele>
  <time>2026-09-01T19:59:32Z</time>
  <course>10.15</course>
  <speed>0.022360679774997897</speed>
  <fix>3d</fix>
</trkpt>
<trkpt lat="-27.2721923" lon="151.290063">
  <ele>360.66</ele>
  <time>2026-09-01T19:59:32Z</time>
  <course>101.5</course>
  <speed>0.01</speed>
  <fix>3d</fix>
</trkpt>
<trkpt lat="-27.2721925" lon="151.290063">
  <ele>359.92</ele>
  <time>2026-09-01T19:59:32Z</time>
  <course>10.15</course>
  <speed>0.022360679774997897</speed>
  <fix>3d</fix>
</trkpt>
<trkpt lat="-27.2721923" lon="151.2900631">
  <ele>360.37</ele>
  <time>2026-09-01T19:59:32Z</time>
  <course>105.74</course>
  <speed>0.01</speed>
  <fix>3d</fix>
</trkpt>
<trkpt lat="-27.2721925" lon="151.2900631">
  <ele>359.77</ele>
  <time>2026-09-01T19:59:32Z</time>
  <course>10.15</course>
  <speed>0.022360679774997897</speed>
  <fix>3d</fix>
</trkpt>
<trkpt lat="-27.2721923" lon="151.2900631">
  <ele>360.37</ele>
  <time>2026-09-01T19:59:32Z</time>
  <course>105.74</course>
  <speed>0.01</speed>
  <fix>3d</fix>
</trkpt>
<trkpt lat="-27.2721925" lon="151.2900631">
  <ele>359.62</ele>
  <time>2026-09-01T19:59:32Z</time>
  <course>10.16</course>
  <speed>0.022360679774997897</speed>
  <fix>3d</fix>
</trkpt>
<trkpt lat="-27.2721923" lon="151.2900631">
  <ele>360.07</ele>
  <time>2026-09-01T19:59:32Z</time>
  <course>111.64</course>
  <speed>0.01</speed>
  <fix>3d</fix>
</trkpt>
<trkpt lat="-27.2721925" lon="151.2900631">
  <ele>359.47</ele>
  <time>2026-09-01T19:59:32Z</time>
  <course>10.17</course>
  <speed>0.022360679774997897</speed>
  <fix>3d</fix>
</trkpt>
<trkpt lat="-27.2721923" lon="151.2900631">
  <ele>360.07</ele>
  <time>2026-09-01T19:59:32Z</time>
  <course>111.64</course>
  <speed>0.01</speed>
  <fix>3d</fix>
</trkpt>
<trkpt lat="-27.2721925" lon="151.2900631">
  <ele>359.32</ele>
  <time>2026-09-01T19:59:32Z</time>
  <course>10.17</course>
  <speed>0.022360679774997897</speed>
  <fix>3d</fix>
</trkpt>
<trkpt lat="-27.2721923" lon="151.2900631">
  <ele>359.78</ele>
  <time>2026-09-01T19:59:32Z</time>
  <course>118.24</course>
  <speed>0.01</speed>
  <fix>3d</fix>
</trkpt>
<trkpt lat="-27.2721925" lon="151.2900631">
  <ele>359.17</ele>
  <time>2026-09-01T19:59:32Z</time>
  <course>10.17</course>
  <speed>0.0282842712474619</speed>
  <fix>3d</fix>
</trkpt>
<trkpt lat="-27.2721923" lon="151.2900631">
  <ele>359.78</ele>
  <time>2026-09-01T19:59:32Z</time>
  <course>118.24</course>
  <speed>0.01</speed>
  <fix>3d</fix>
</trkpt>
<trkpt lat="-27.2721925" lon="151.2900631">
  <ele>359.03</ele>
  <time>2026-09-01T19:59:32Z</time>
  <course>10.17</course>
  <speed>0.0282842712474619</speed>
  <fix>3d</fix>
</trkpt>
<trkpt lat="-27.2721923" lon="151.2900631">
  <ele>359.47</ele>
  <time>2026-09-01T19:59:32Z</time>
  <course>122.26</course>
  <speed>0.01</speed>
  <fix>3d</fix>
</trkpt>
<trkpt lat="-27.2721925" lon="151.2900631">
  <ele>358.88</ele>
  <time>2026-09-01T19:59:32Z</time>
  <course>10.16</course>
  <speed>0.0282842712474619</speed>
  <fix>3d</fix>
</trkpt>
<trkpt lat="-27.2721923" lon="151.2900631">
  <ele>359.47</ele>
  <time>2026-09-01T19:59:32Z</time>
  <course>122.26</course>
  <speed>0.01</speed>
  <fix>3d</fix>
</trkpt>
<trkpt lat="-27.2721925" lon="151.2900632">
  <ele>358.73</ele>
  <time>2026-09-01T19:59:32Z</time>
  <course>10.14</course>
  <speed>0.0282842712474619</speed>
  <fix>3d</fix>
</trkpt>
<trkpt lat="-27.2721923" lon="151.2900631">
  <ele>359.18</ele>
  <time>2026-09-01T19:59:32Z</time>
  <course>122.78</course>
  <speed>0.01</speed>
  <fix>3d</fix>
</trkpt>
<trkpt lat="-27.2721925" lon="151.2900632">
  <ele>358.57</ele>
  <time>2026-09-01T19:59:32Z</time>
  <course>10.12</course>
  <speed>0.0282842712474619</speed>
  <fix>3d</fix>
</trkpt>
<trkpt lat="-27.2721923" lon="151.2900631">
  <ele>359.18</ele>
  <time>2026-09-01T19:59:32Z</time>
  <course>122.78</course>
  <speed>0.01</speed>
  <fix>3d</fix>
</trkpt>
<trkpt lat="-27.2721925" lon="151.2900632">
  <ele>358.42</ele>
  <time>2026-09-01T19:59:32Z</time>
  <course>10.11</course>
  <speed>0.0282842712474619</speed>
  <fix>3d</fix>
</trkpt>
<trkpt lat="-27.2721923" lon="151.2900632">
  <ele>358.87</ele>
  <time>2026-09-01T19:59:32Z</time>
  <course>123.37</course>
  <speed>0.01</speed>
  <fix>3d</fix>
</trkpt>
<trkpt lat="-27.2721925" lon="151.2900632">
  <ele>358.27</ele>
  <time>2026-09-01T19:59:32Z</time>
  <course>10.1</course>
  <speed>0.0282842712474619</speed>
  <fix>3d</fix>
</trkpt>
<trkpt lat="-27.2721923" lon="151.2900632">
  <ele>358.87</ele>
  <time>2026-09-01T19:59:32Z</time>
  <course>123.37</course>
  <speed>0.01</speed>
  <fix>3d</fix>
</trkpt>
<trkpt lat="-27.2721925" lon="151.2900632">
  <ele>358.12</ele>
  <time>2026-09-01T19:59:32Z</time>
  <course>10.11</course>
  <speed>0.0282842712474619</speed>
  <fix>3d</fix>
</trkpt>
<trkpt lat="-27.2721923" lon="151.2900632">
  <ele>358.57</ele>
  <time>2026-09-01T19:59:32Z</time>
  <course>124.48</course>
  <speed>0.01</speed>
  <fix>3d</fix>
</trkpt>
<trkpt lat="-27.2721925" lon="151.2900632">
  <ele>357.97</ele>
  <time>2026-09-01T19:59:32Z</time>
  <course>10.11</course>
  <speed>0.0282842712474619</speed>
  <fix>3d</fix>
</trkpt>
<trkpt lat="-27.2721923" lon="151.2900632">
  <ele>358.57</ele>
  <time>2026-09-01T19:59:32Z</time>
  <course>124.48</course>
  <speed>0.01</speed>
  <fix>3d</fix>
</trkpt>
<trkpt lat="-27.2721925" lon="151.2900633">
  <ele>357.82</ele>
  <time>2026-09-01T19:59:32Z</time>
  <course>10.11</course>
  <speed>0.0282842712474619</speed>
  <fix>3d</fix>
</trkpt>
<trkpt lat="-27.2721923" lon="151.2900632">
  <ele>358.27</ele>
  <time>2026-09-01T19:59:32Z</time>
  <course>123.92</course>
  <speed>0.01</speed>
  <fix>3d</fix>
</trkpt>
<trkpt lat="-27.2721925" lon="151.2900633">
  <ele>357.67</ele>
  <time>2026-09-01T19:59:32Z</time>
  <course>10.11</course>
  <speed>0.0282842712474619</speed>
  <fix>3d</fix>
</trkpt>
<trkpt lat="-27.2721923" lon="151.2900632">
  <ele>358.27</ele>
  <time>2026-09-01T19:59:32Z</time>
  <course>123.92</course>
  <speed>0.01</speed>
  <fix>3d</fix>
</trkpt>
<trkpt lat="-27.2721925" lon="151.2900633">
  <ele>357.52</ele>
  <time>2026-09-01T19:59:32Z</time>
  <course>10.11</course>
  <speed>0.0282842712474619</speed>
  <fix>3d</fix>
</trkpt>
<trkpt lat="-27.2721923" lon="151.2900632">
  <ele>357.97</ele>
  <time>2026-09-01T19:59:32Z</time>
  <course>122.23</course>
  <speed>0.01</speed>
  <fix>3d</fix>
</trkpt>
<trkpt lat="-27.2721925" lon="151.2900633">
  <ele>357.37</ele>
  <time>2026-09-01T19:59:32Z</time>
  <course>10.09</course>
  <speed>0.0282842712474619</speed>
  <fix>3d</fix>
</trkpt>
<trkpt lat="-27.2721923" lon="151.2900632">
  <ele>357.97</ele>
  <time>2026-09-01T19:59:32Z</time>
  <course>122.23</course>
  <speed>0.01</speed>
  <fix>3d</fix>
</trkpt>
<trkpt lat="-27.2721925" lon="151.2900633">
  <ele>357.22</ele>
  <time>2026-09-01T19:59:32Z</time>
  <course>10.08</course>
  <speed>0.0282842712474619</speed>
  <fix>3d</fix>
</trkpt>
<trkpt lat="-27.2721923" lon="151.2900632">
  <ele>357.66</ele>
  <time>2026-09-01T19:59:32Z</time>
  <course>122.29</course>
  <speed>0.01</speed>
  <fix>3d</fix>
</trkpt>
<trkpt lat="-27.2721925" lon="151.2900633">
  <ele>357.07</ele>
  <time>2026-09-01T19:59:32Z</time>
  <course>10.06</course>
  <speed>0.0282842712474619</speed>
  <fix>3d</fix>
</trkpt>
<trkpt lat="-27.2721923" lon="151.2900632">
  <ele>357.66</ele>
  <time>2026-09-01T19:59:32Z</time>
  <course>122.29</course>
  <speed>0.01</speed>
  <fix>3d</fix>
</trkpt>
<trkpt lat="-27.2721925" lon="151.2900633">
  <ele>356.92</ele>
  <time>2026-09-01T19:59:32Z</time>
  <course>10.03</course>
  <speed>0.0282842712474619</speed>
  <fix>3d</fix>
</trkpt>
<trkpt lat="-27.2721924" lon="151.2900632">
  <ele>357.37</ele>
  <time>2026-09-01T19:59:32Z</time>
  <course>122.27</course>
  <speed>0.01</speed>
  <fix>3d</fix>
</trkpt>
<trkpt lat="-27.2721925" lon="151.2900634">
  <ele>356.77</ele>
  <time>2026-09-01T19:59:32Z</time>
  <course>10.02</course>
  <speed>0.0282842712474619</speed>
  <fix>3d</fix>
</trkpt>
<trkpt lat="-27.2721924" lon="151.2900632">
  <ele>357.37</ele>
  <time>2026-09-01T19:59:32Z</time>
  <course>122.27</course>
  <speed>0.01</speed>
  <fix>3d</fix>
</trkpt>
<trkpt lat="-27.2721925" lon="151.2900634">
  <ele>356.62</ele>
  <time>2026-09-01T19:59:32Z</time>
  <course>10.02</course>
  <speed>0.0282842712474619</speed>
  <fix>3d</fix>
</trkpt>
<trkpt lat="-27.2721924" lon="151.2900632">
  <ele>357.07</ele>
  <time>2026-09-01T19:59:32Z</time>
  <course>120.53</course>
  <speed>0.01</speed>
  <fix>3d</fix>
</trkpt>
<trkpt lat="-27.2721925" lon="151.2900634">
  <ele>356.47</ele>
  <time>2026-09-01T19:59:32Z</time>
  <course>10.02</course>
  <speed>0.0282842712474619</speed>
  <fix>3d</fix>
</trkpt>
<trkpt lat="-27.2721924" lon="151.2900632">
  <ele>357.07</ele>
  <time>2026-09-01T19:59:32Z</time>
  <course>120.53</course>
  <speed>0.01</speed>
  <fix>3d</fix>
</trkpt>
<trkpt lat="-27.2721925" lon="151.2900634">
  <ele>356.32</ele>
  <time>2026-09-01T19:59:32Z</time>
  <course>10.02</course>
  <speed>0.0282842712474619</speed>
  <fix>3d</fix>
</trkpt>
<trkpt lat="-27.2721924" lon="151.2900632">
  <ele>356.77</ele>
  <time>2026-09-01T19:59:32Z</time>
  <course>119.23</course>
  <speed>0.01</speed>
  <fix>3d</fix>
</trkpt>
<trkpt lat="-27.2721925" lon="151.2900634">
  <ele>356.17</ele>
  <time>2026-09-01T19:59:32Z</time>
  <course>10.02</course>
  <speed>0.0282842712474619</speed>
  <fix>3d</fix>
</trkpt>
<trkpt lat="-27.2721924" lon="151.2900632">
  <ele>356.77</ele>
  <time>2026-09-01T19:59:32Z</time>
  <course>119.23</course>
  <speed>0.01</speed>
  <fix>3d</fix>
</trkpt>
<trkpt lat="-27.2721925" lon="151.2900634">
  <ele>356.02</ele>
  <time>2026-09-01T19:59:32Z</time>
  <course>10.01</course>
  <speed>0.03605551275463989</speed>
  <fix>3d</fix>
</trkpt>
<trkpt lat="-27.2721924" lon="151.2900633">
  <ele>356.47</ele>
  <time>2026-09-01T19:59:32Z</time>
  <course>117.75</course>
  <speed>0.01</speed>
  <fix>3d</fix>
</trkpt>
<trkpt lat="-27.2721925" lon="151.2900634">
  <ele>355.87</ele>
  <time>2026-09-01T19:59:32Z</time>
  <course>10.0</course>
  <speed>0.03605551275463989</speed>
  <fix>3d</fix>
</trkpt>
<trkpt lat="-27.2721924" lon="151.2900633">
  <ele>356.47</ele>
  <time>2026-09-01T19:59:32Z</time>
  <course>117.75</course>
  <speed>0.01</speed>
  <fix>3d</fix>
</trkpt>
<trkpt lat="-27.2721925" lon="151.2900634">
  <ele>355.72</ele>
  <time>2026-09-01T19:59:32Z</time>
  <course>9.99</course>
  <speed>0.03605551275463989</speed>
  <fix>3d</fix>
</trkpt>
<trkpt lat="-27.2721924" lon="151.2900633">
  <ele>356.16</ele>
  <time>2026-09-01T19:59:32Z</time>
  <course>114.85</course>
  <speed>0.01</speed>
  <fix>3d</fix>
</trkpt>
<trkpt lat="-27.2721926" lon="151.2900634">
  <ele>355.57</ele>
  <time>2026-09-01T19:59:32Z</time>
  <course>9.98</course>
  <speed>0.03605551275463989</speed>
  <fix>3d</fix>
</trkpt>
<trkpt lat="-27.2721924" lon="151.2900633">
  <ele>356.16</ele>
  <time>2026-09-01T19:59:32Z</time>
  <course>114.85</course>
  <speed>0.01</speed>
  <fix>3d</fix>
</trkpt>
<trkpt lat="-27.2721926" lon="151.2900635">
  <ele>355.42</ele>
  <time>2026-09-01T19:59:32Z</time>
  <course>9.96</course>
  <speed>0.03605551275463989</speed>
  <fix>3d</fix>
</trkpt>
<trkpt lat="-27.2721924" lon="151.2900633">
  <ele>355.87</ele>
  <time>2026-09-01T19:59:32Z</time>
  <course>110.5</course>
  <speed>0.01</speed>
  <fix>3d</fix>
</trkpt>
<trkpt lat="-27.2721926" lon="151.2900635">
  <ele>355.26</ele>
  <time>2026-09-01T19:59:32Z</time>
  <course>9.94</course>
  <speed>0.03605551275463989</speed>
  <fix>3d</fix>
</trkpt>
<trkpt lat="-27.2721924" lon="151.2900633">
  <ele>355.87</ele>
  <time>2026-09-01T19:59:32Z</time>
  <course>110.5</course>
  <speed>0.01</speed>
  <fix>3d</fix>
</trkpt>
<trkpt lat="-27.2721926" lon="151.2900635">
  <ele>355.12</ele>
  <time>2026-09-01T19:59:32Z</time>
  <course>9.92</course>
  <speed>0.03605551275463989</speed>
  <fix>3d</fix>
</trkpt>
<trkpt lat="-27.2721924" lon="151.2900633">
  <ele>355.57</ele>
  <time>2026-09-01T19:59:32Z</time>
  <course>106.43</course>
  <speed>0.01</speed>
  <fix>3d</fix>
</trkpt>
<trkpt lat="-27.2721926" lon="151.2900635">
  <ele>354.97</ele>
  <time>2026-09-01T19:59:32Z</time>
  <course>9.9</course>
  <speed>0.03605551275463989</speed>
  <fix>3d</fix>
</trkpt>
<trkpt lat="-27.2721924" lon="151.2900633">
  <ele>355.57</ele>
  <time>2026-09-01T19:59:32Z</time>
  <course>106.43</course>
  <speed>0.01</speed>
  <fix>3d</fix>
</trkpt>
<trkpt lat="-27.2721926" lon="151.2900635">
  <ele>354.81</ele>
  <time>2026-09-01T19:59:32Z</time>
  <course>9.89</course>
  <speed>0.03605551275463989</speed>
  <fix>3d</fix>
</trkpt>
<trkpt lat="-27.2721924" lon="151.2900634">
  <ele>355.27</ele>
  <time>2026-09-01T19:59:32Z</time>
  <course>104.18</course>
  <speed>0.01</speed>
  <fix>3d</fix>
</trkpt>
<trkpt lat="-27.2721926" lon="151.2900635">
  <ele>354.66</ele>
  <time>2026-09-01T19:59:32Z</time>
  <course>9.87</course>
  <speed>0.03605551275463989</speed>
  <fix>3d</fix>
</trkpt>
<trkpt lat="-27.2721924" lon="151.2900634">
  <ele>355.27</ele>
  <time>2026-09-01T19:59:32Z</time>
  <course>104.18</course>
  <speed>0.01</speed>
  <fix>3d</fix>
</trkpt>
<trkpt lat="-27.2721926" lon="151.2900636">
  <ele>354.51</ele>
  <time>2026-09-01T19:59:32Z</time>
  <course>9.86</course>
  <speed>0.03605551275463989</speed>
  <fix>3d</fix>
</trkpt>
<trkpt lat="-27.2721924" lon="151.2900635">
  <ele>354.97</ele>
  <time>2026-09-01T19:59:32Z</time>
  <course>103.81</course>
  <speed>0.01</speed>
  <fix>3d</fix>
</trkpt>
<trkpt lat="-27.2721926" lon="151.2900636">
  <ele>354.37</ele>
  <time>2026-09-01T19:59:32Z</time>
  <course>9.84</course>
  <speed>0.03605551275463989</speed>
  <fix>3d</fix>
</trkpt>
<trkpt lat="-27.2721924" lon="151.2900635">
  <ele>354.97</ele>
  <time>2026-09-01T19:59:32Z</time>
  <course>103.81</course>
  <speed>0.01</speed>
  <fix>3d</fix>
</trkpt>
<trkpt lat="-27.2721926" lon="151.2900636">
  <ele>354.22</ele>
  <time>2026-09-01T19:59:32Z</time>
  <course>9.84</course>
  <speed>0.03605551275463989</speed>
  <fix>3d</fix>
</trkpt>
<trkpt lat="-27.2721924" lon="151.2900635">
  <ele>354.66</ele>
  <time>2026-09-01T19:59:32Z</time>
  <course>105.88</course>
  <speed>0.01</speed>
  <fix>3d</fix>
</trkpt>
<trkpt lat="-27.2721926" lon="151.2900636">
  <ele>354.08</ele>
  <time>2026-09-01T19:59:32Z</time>
  <course>9.83</course>
  <speed>0.03605551275463989</speed>
  <fix>3d</fix>
</trkpt>
<trkpt lat="-27.2721924" lon="151.2900635">
  <ele>354.66</ele>
  <time>2026-09-01T19:59:32Z</time>
  <course>105.88</course>
  <speed>0.01</speed>
  <fix>3d</fix>
</trkpt>
<trkpt lat="-27.2721926" lon="151.2900636">
  <ele>353.93</ele>
  <time>2026-09-01T19:59:32Z</time>
  <course>9.83</course>
  <speed>0.03605551275463989</speed>
  <fix>3d</fix>
</trkpt>
<trkpt lat="-27.2721925" lon="151.2900635">
  <ele>354.37</ele>
  <time>2026-09-01T19:59:32Z</time>
  <course>109.65</course>
  <speed>0.01</speed>
  <fix>3d</fix>
</trkpt>
<trkpt lat="-27.2721926" lon="151.2900636">
  <ele>353.79</ele>
  <time>2026-09-01T19:59:32Z</time>
  <course>9.82</course>
  <speed>0.03605551275463989</speed>
  <fix>3d</fix>
</trkpt>
<trkpt lat="-27.2721925" lon="151.2900635">
  <ele>354.37</ele>
  <time>2026-09-01T19:59:32Z</time>
  <course>109.65</course>
  <speed>0.01</speed>
  <fix>3d</fix>
</trkpt>
<trkpt lat="-27.2721926" lon="151.2900637">
  <ele>353.65</ele>
  <time>2026-09-01T19:59:32Z</time>
  <course>9.8</course>
  <speed>0.04242640687119285</speed>
  <fix>3d</fix>
</trkpt>
<trkpt lat="-27.2721925" lon="151.2900635">
  <ele>354.08</ele>
  <time>2026-09-01T19:59:32Z</time>
  <course>114.56</course>
  <speed>0.01</speed>
  <fix>3d</fix>
</trkpt>
<trkpt lat="-27.2721926" lon="151.2900637">
  <ele>353.51</ele>
  <time>2026-09-01T19:59:32Z</time>
  <course>9.78</course>
  <speed>0.04242640687119285</speed>
  <fix>3d</fix>
</trkpt>
<trkpt lat="-27.2721925" lon="151.2900635">
  <ele>354.08</ele>
  <time>2026-09-01T19:59:32Z</time>
  <course>114.56</course>
  <speed>0.01</speed>
  <fix>3d</fix>
</trkpt>
<trkpt lat="-27.2721926" lon="151.2900637">
  <ele>353.38</ele>
  <time>2026-09-01T19:59:32Z</time>
  <course>9.77</course>
  <speed>0.04242640687119285</speed>
  <fix>3d</fix>
</trkpt>
<trkpt lat="-27.2721925" lon="151.2900636">
  <ele>353.8</ele>
  <time>2026-09-01T19:59:32Z</time>
  <course>120.41</course>
  <speed>0.01</speed>
  <fix>3d</fix>
</trkpt>
<trkpt lat="-27.2721926" lon="151.2900637">
  <ele>353.25</ele>
  <time>2026-09-01T19:59:32Z</time>
  <course>9.74</course>
  <speed>0.05</speed>
  <fix>3d</fix>
</trkpt>
<trkpt lat="-27.2721925" lon="151.2900636">
  <ele>353.8</ele>
  <time>2026-09-01T19:59:32Z</time>
  <course>120.41</course>
  <speed>0.01</speed>
  <fix>3d</fix>
</trkpt>
<trkpt lat="-27.2721926" lon="151.2900637">
  <ele>353.12</ele>
  <time>2026-09-01T19:59:32Z</time>
  <course>9.72</course>
  <speed>0.05</speed>
  <fix>3d</fix>
</trkpt>
<trkpt lat="-27.2721925" lon="151.2900636">
  <ele>353.52</ele>
  <time>2026-09-01T19:59:32Z</time>
  <course>126.79</course>
  <speed>0.01</speed>
  <fix>3d</fix>
</trkpt>
<trkpt lat="-27.2721927" lon="151.2900638">
  <ele>352.99</ele>
  <time>2026-09-01T19:59:32Z</time>
  <course>9.71</course>
  <speed>0.05</speed>
  <fix>3d</fix>
</trkpt>
<trkpt lat="-27.2721925" lon="151.2900636">
  <ele>353.52</ele>
  <time>2026-09-01T19:59:32Z</time>
  <course>126.79</course>
  <speed>0.01</speed>
  <fix>3d</fix>
</trkpt>
<trkpt lat="-27.2721927" lon="151.2900638">
  <ele>352.86</ele>
  <time>2026-09-01T19:59:32Z</time>
  <course>9.69</course>
  <speed>0.0565685424949238</speed>
  <fix>3d</fix>
</trkpt>
<trkpt lat="-27.2721925" lon="151.2900636">
  <ele>353.26</ele>
  <time>2026-09-01T19:59:32Z</time>
  <course>133.56</course>
  <speed>0.01</speed>
  <fix>3d</fix>
</trkpt>
<trkpt lat="-27.2721927" lon="151.2900638">
  <ele>352.74</ele>
  <time>2026-09-01T19:59:32Z</time>
  <course>9.67</course>
  <speed>0.0565685424949238</speed>
  <fix>3d</fix>
</trkpt>
<trkpt lat="-27.2721925" lon="151.2900636">
  <ele>353.26</ele>
  <time>2026-09-01T19:59:32Z</time>
  <course>133.56</course>
  <speed>0.01</speed>
  <fix>3d</fix>
</trkpt>
<trkpt lat="-27.2721927" lon="151.2900638">
  <ele>352.62</ele>
  <time>2026-09-01T19:59:32Z</time>
  <course>9.65</course>
  <speed>0.05</speed>
  <fix>3d</fix>
</trkpt>
<trkpt lat="-27.2721925" lon="151.2900636">
  <ele>353.0</ele>
  <time>2026-09-01T19:59:32Z</time>
  <course>139.91</course>
  <speed>0.01</speed>
  <fix>3d</fix>
</trkpt>
<trkpt lat="-27.2721927" lon="151.2900638">
  <ele>352.5</ele>
  <time>2026-09-01T19:59:32Z</time>
  <course>9.63</course>
  <speed>0.05</speed>
  <fix>3d</fix>
</trkpt>
<trkpt lat="-27.2721925" lon="151.2900636">
  <ele>353.0</ele>
  <time>2026-09-01T19:59:32Z</time>
  <course>139.91</course>
  <speed>0.01</speed>
  <fix>3d</fix>
</trkpt>
<trkpt lat="-27.2721927" lon="151.2900638">
  <ele>352.39</ele>
  <time>2026-09-01T19:59:32Z</time>
  <course>9.62</course>
  <speed>0.05</speed>
  <fix>3d</fix>
</trkpt>
<trkpt lat="-27.2721926" lon="151.2900637">
  <ele>352.76</ele>
  <time>2026-09-01T19:59:32Z</time>
  <course>145.6</course>
  <speed>0.02</speed>
  <fix>3d</fix>
</trkpt>
<trkpt lat="-27.2721928" lon="151.2900639">
  <ele>352.27</ele>
  <time>2026-09-01T19:59:32Z</time>
  <course>9.61</course>
  <speed>0.05</speed>
  <fix>3d</fix>
</trkpt>
<trkpt lat="-27.2721926" lon="151.2900637">
  <ele>352.76</ele>
  <time>2026-09-01T19:59:32Z</time>
  <course>145.6</course>
  <speed>0.02</speed>
  <fix>3d</fix>
</trkpt>
<trkpt lat="-27.2721928" lon="151.2900639">
  <ele>352.16</ele>
  <time>2026-09-01T19:59:32Z</time>
  <course>9.61</course>
  <speed>0.05</speed>
  <fix>3d</fix>
</trkpt>
<trkpt lat="-27.2721926" lon="151.2900637">
  <ele>352.52</ele>
  <time>2026-09-01T19:59:32Z</time>
  <course>150.76</course>
  <speed>0.02</speed>
  <fix>3d</fix>
</trkpt>
<trkpt lat="-27.2721928" lon="151.2900639">
  <ele>352.05</ele>
  <time>2026-09-01T19:59:32Z</time>
  <course>9.6</course>
  <speed>0.05</speed>
  <fix>3d</fix>
</trkpt>
<trkpt lat="-27.2721926" lon="151.2900637">
  <ele>352.52</ele>
  <time>2026-09-01T19:59:32Z</time>
  <course>150.76</course>
  <speed>0.02</speed>
  <fix>3d</fix>
</trkpt>
<trkpt lat="-27.2721928" lon="151.2900639">
  <ele>351.94</ele>
  <time>2026-09-01T19:59:32Z</time>
  <course>9.59</course>
  <speed>0.05</speed>
  <fix>3d</fix>
</trkpt>
<trkpt lat="-27.2721926" lon="151.2900637">
  <ele>352.29</ele>
  <time>2026-09-01T19:59:32Z</time>
  <course>154.07</course>
  <speed>0.02</speed>
  <fix>3d</fix>
</trkpt>
<trkpt lat="-27.2721929" lon="151.2900639">
  <ele>351.83</ele>
  <time>2026-09-01T19:59:32Z</time>
  <course>9.58</course>
  <speed>0.05</speed>
  <fix>3d</fix>
</trkpt>
<trkpt lat="-27.2721926" lon="151.2900637">
  <ele>352.29</ele>
  <time>2026-09-01T19:59:32Z</time>
  <course>154.07</course>
  <speed>0.02</speed>
  <fix>3d</fix>
</trkpt>
<trkpt lat="-27.2721929" lon="151.2900639">
  <ele>351.73</ele>
  <time>2026-09-01T19:59:32Z</time>
  <course>9.57</course>
  <speed>0.05830951894845301</speed>
  <fix>3d</fix>
</trkpt>
<trkpt lat="-27.2721927" lon="151.2900637">
  <ele>352.07</ele>
  <time>2026-09-01T19:59:32Z</time>
  <course>156.43</course>
  <speed>0.02</speed>
  <fix>3d</fix>
</trkpt>
<trkpt lat="-27.2721929" lon="151.2900639">
  <ele>351.62</ele>
  <time>2026-09-01T19:59:32Z</time>
  <course>9.55</course>
  <speed>0.05830951894845301</speed>
  <fix>3d</fix>
</trkpt>
<trkpt lat="-27.2721927" lon="151.2900637">
  <ele>352.07</ele>
  <time>2026-09-01T19:59:32Z</time>
  <course>156.43</course>
  <speed>0.02</speed>
  <fix>3d</fix>
</trkpt>
<trkpt lat="-27.2721929" lon="151.2900639">
  <ele>351.52</ele>
  <time>2026-09-01T19:59:32Z</time>
  <course>9.54</course>
  <speed>0.05830951894845301</speed>
  <fix>3d</fix>
</trkpt>
<trkpt lat="-27.2721927" lon="151.2900637">
  <ele>351.86</ele>
  <time>2026-09-01T19:59:32Z</time>
  <course>158.26</course>
  <speed>0.02</speed>
  <fix>3d</fix>
</trkpt>
<trkpt lat="-27.2721929" lon="151.2900639">
  <ele>351.42</ele>
  <time>2026-09-01T19:59:32Z</time>
  <course>9.53</course>
  <speed>0.05830951894845301</speed>
  <fix>3d</fix>
</trkpt>
<trkpt lat="-27.2721927" lon="151.2900637">
  <ele>351.86</ele>
  <time>2026-09-01T19:59:32Z</time>
  <course>158.26</course>
  <speed>0.02</speed>
  <fix>3d</fix>
</trkpt>
<trkpt lat="-27.272193" lon="151.2900639">
  <ele>351.33</ele>
  <time>2026-09-01T19:59:32Z</time>
  <course>9.53</course>
  <speed>0.053851648071345036</speed>
  <fix>3d</fix>
</trkpt>
<trkpt lat="-27.2721927" lon="151.2900637">
  <ele>351.66</ele>
  <time>2026-09-01T19:59:32Z</time>
  <course>159.91</course>
  <speed>0.02</speed>
  <fix>3d</fix>
</trkpt>
<trkpt lat="-27.272193" lon="151.2900639">
  <ele>351.23</ele>
  <time>2026-09-01T19:59:32Z</time>
  <course>9.52</course>
  <speed>0.053851648071345036</speed>
  <fix>3d</fix>
</trkpt>
<trkpt lat="-27.2721927" lon="151.2900637">
  <ele>351.66</ele>
  <time>2026-09-01T19:59:32Z</time>
  <course>159.91</course>
  <speed>0.02</speed>
  <fix>3d</fix>
</trkpt>
<trkpt lat="-27.272193" lon="151.2900639">
  <ele>351.14</ele>
  <time>2026-09-01T19:59:32Z</time>
  <course>9.53</course>
  <speed>0.053851648071345036</speed>
  <fix>3d</fix>
</trkpt>
<trkpt lat="-27.2721928" lon="151.2900637">
  <ele>351.47</ele>
  <time>2026-09-01T19:59:32Z</time>
  <course>161.33</course>
  <speed>0.02</speed>
  <fix>3d</fix>
</trkpt>
<trkpt lat="-27.272193" lon="151.2900639">
  <ele>351.05</ele>
  <time>2026-09-01T19:59:32Z</time>
  <course>9.53</course>
  <speed>0.053851648071345036</speed>
  <fix>3d</fix>
</trkpt>
<trkpt lat="-27.2721928" lon="151.2900637">
  <ele>351.47</ele>
  <time>2026-09-01T19:59:32Z</time>
  <course>161.33</course>
  <speed>0.02</speed>
  <fix>3d</fix>
</trkpt>
<trkpt lat="-27.272193" lon="151.2900639">
  <ele>350.96</ele>
  <time>2026-09-01T19:59:32Z</time>
  <course>9.53</course>
  <speed>0.044721359549995794</speed>
  <fix>3d</fix>
</trkpt>
<trkpt lat="-27.2721928" lon="151.2900637">
  <ele>351.28</ele>
  <time>2026-09-01T19:59:32Z</time>
  <course>162.0</course>
  <speed>0.02</speed>
  <fix>3d</fix>
</trkpt>
<trkpt lat="-27.2721931" lon="151.2900639">
  <ele>350.87</ele>
  <time>2026-09-01T19:59:32Z</time>
  <course>9.53</course>
  <speed>0.044721359549995794</speed>
  <fix>3d</fix>
</trkpt>
<trkpt lat="-27.2721928" lon="151.2900637">
  <ele>351.28</ele>
  <time>2026-09-01T19:59:32Z</time>
  <course>162.0</course>
  <speed>0.02</speed>
  <fix>3d</fix>
</trkpt>
<trkpt lat="-27.2721931" lon="151.2900639">
  <ele>350.79</ele>
  <time>2026-09-01T19:59:32Z</time>
  <course>9.54</course>
  <speed>0.044721359549995794</speed>
  <fix>3d</fix>
</trkpt>
<trkpt lat="-27.2721929" lon="151.2900638">
  <ele>351.1</ele>
  <time>2026-09-01T19:59:32Z</time>
  <course>162.19</course>
  <speed>0.02</speed>
  <fix>3d</fix>
</trkpt>
<trkpt lat="-27.2721931" lon="151.2900639">
  <ele>350.71</ele>
  <time>2026-09-01T19:59:32Z</time>
  <course>9.56</course>
  <speed>0.0412310562561766</speed>
  <fix>3d</fix>
</trkpt>
<trkpt lat="-27.2721929" lon="151.2900638">
  <ele>351.1</ele>
  <time>2026-09-01T19:59:32Z</time>
  <course>162.19</course>
  <speed>0.02</speed>
  <fix>3d</fix>
</trkpt>
<trkpt lat="-27.2721931" lon="151.2900639">
  <ele>350.62</ele>
  <time>2026-09-01T19:59:32Z</time>
  <course>9.59</course>
  <speed>0.0412310562561766</speed>
  <fix>3d</fix>
</trkpt>
<trkpt lat="-27.2721929" lon="151.2900639">
  <ele>350.92</ele>
  <time>2026-09-01T19:59:32Z</time>
  <course>164.09</course>
  <speed>0.02</speed>
  <fix>3d</fix>
</trkpt>
<trkpt lat="-27.2721931" lon="151.2900639">
  <ele>350.54</ele>
  <time>2026-09-01T19:59:32Z</time>
  <course>9.64</course>
  <speed>0.0412310562561766</speed>
  <fix>3d</fix>
</trkpt>
<trkpt lat="-27.2721929" lon="151.2900639">
  <ele>350.92</ele>
  <time>2026-09-01T19:59:32Z</time>
  <course>164.09</course>
  <speed>0.02</speed>
  <fix>3d</fix>
</trkpt>
<trkpt lat="-27.2721932" lon="151.2900639">
  <ele>350.46</ele>
  <time>2026-09-01T19:59:32Z</time>
  <course>9.7</course>
  <speed>0.0412310562561766</speed>
  <fix>3d</fix>
</trkpt>
<trkpt lat="-27.272193" lon="151.2900639">
  <ele>350.76</ele>
  <time>2026-09-01T19:59:32Z</time>
  <course>170.5</course>
  <speed>0.02</speed>
  <fix>3d</fix>
</trkpt>
<trkpt lat="-27.2721932" lon="151.2900639">
  <ele>350.38</ele>
  <time>2026-09-01T19:59:32Z</time>
  <course>9.78</course>
  <speed>0.04</speed>
  <fix>3d</fix>
</trkpt>
<trkpt lat="-27.272193" lon="151.2900639">
  <ele>350.76</ele>
  <time>2026-09-01T19:59:32Z</time>
  <course>170.5</course>
  <speed>0.02</speed>
  <fix>3d</fix>
</trkpt>
<trkpt lat="-27.2721932" lon="151.2900639">
  <ele>350.3</ele>
  <time>2026-09-01T19:59:32Z</time>
  <course>9.88</course>
  <speed>0.04</speed>
  <fix>3d</fix>
</trkpt>
<trkpt lat="-27.272193" lon="151.2900639">
  <ele>350.59</ele>
  <time>2026-09-01T19:59:32Z</time>
  <course>183.35</course>
  <speed>0.02</speed>
  <fix>3d</fix>
</trkpt>
<trkpt lat="-27.2721932" lon="151.2900639">
  <ele>350.23</ele>
  <time>2026-09-01T19:59:32Z</time>
  <course>9.98</course>
  <speed>0.03</speed>
  <fix>3d</fix>
</trkpt>
<trkpt lat="-27.272193" lon="151.2900639">
  <ele>350.59</ele>
  <time>2026-09-01T19:59:32Z</time>
  <course>183.35</course>
  <speed>0.02</speed>
  <fix>3d</fix>
</trkpt>
<trkpt lat="-27.2721932" lon="151.2900639">
  <ele>350.15</ele>
  <time>2026-09-01T19:59:32Z</time>
  <course>10.08</course>
  <speed>0.03</speed>
  <fix>3d</fix>
</trkpt>
<trkpt lat="-27.272193" lon="151.2900639">
  <ele>350.44</ele>
  <time>2026-09-01T19:59:32Z</time>
  <course>207.4</course>
  <speed>0.01</speed>
  <fix>3d</fix>
</trkpt>
<trkpt lat="-27.2721932" lon="151.2900639">
  <ele>350.08</ele>
  <time>2026-09-01T19:59:32Z</time>
  <course>10.18</course>
  <speed>0.0316227766016838</speed>
  <fix>3d</fix>
</trkpt>
<trkpt lat="-27.272193" lon="151.2900639">
  <ele>350.44</ele>
  <time>2026-09-01T19:59:32Z</time>
  <course>207.4</course>
  <speed>0.01</speed>
  <fix>3d</fix>
</trkpt>
<trkpt lat="-27.2721932" lon="151.2900639">
  <ele>350.01</ele>
  <time>2026-09-01T19:59:32Z</time>
  <course>10.27</course>
  <speed>0.0316227766016838</speed>
  <fix>3d</fix>
</trkpt>
<trkpt lat="-27.2721931" lon="151.2900638">
  <ele>350.28</ele>
  <time>2026-09-01T19:59:32Z</time>
  <course>235.61</course>
  <speed>0.02</speed>
  <fix>3d</fix>
</trkpt>
<trkpt lat="-27.2721932" lon="151.2900639">
  <ele>349.94</ele>
  <time>2026-09-01T19:59:32Z</time>
  <course>10.35</course>
  <speed>0.03605551275463989</speed>
  <fix>3d</fix>
</trkpt>
<trkpt lat="-27.2721931" lon="151.2900638">
  <ele>350.28</ele>
  <time>2026-09-01T19:59:32Z</time>
  <course>235.61</course>
  <speed>0.02</speed>
  <fix>3d</fix>
</trkpt>
<trkpt lat="-27.2721932" lon="151.2900639">
  <ele>349.87</ele>
  <time>2026-09-01T19:59:32Z</time>
  <course>10.41</course>
  <speed>0.0282842712474619</speed>
  <fix>3d</fix>
</trkpt>
<trkpt lat="-27.2721931" lon="151.2900637">
  <ele>350.14</ele>
  <time>2026-09-01T19:59:32Z</time>
  <course>254.01</course>
  <speed>0.03</speed>
  <fix>3d</fix>
</trkpt>
<trkpt lat="-27.2721933" lon="151.2900638">
  <ele>349.81</ele>
  <time>2026-09-01T19:59:32Z</time>
  <course>10.45</course>
  <speed>0.03605551275463989</speed>
  <fix>3d</fix>
</trkpt>
<trkpt lat="-27.2721931" lon="151.2900637">
  <ele>350.14</ele>
  <time>2026-09-01T19:59:32Z</time>
  <course>254.01</course>
  <speed>0.03</speed>
  <fix>3d</fix>
</trkpt>
<trkpt lat="-27.2721933" lon="151.2900638">
  <ele>349.74</ele>
  <time>2026-09-01T19:59:32Z</time>
  <course>10.48</course>
  <speed>0.03605551275463989</speed>
  <fix>3d</fix>
</trkpt>
<trkpt lat="-27.2721931" lon="151.2900637">
  <ele>350.0</ele>
  <time>2026-09-01T19:59:32Z</time>
  <course>264.19</course>
  <speed>0.04</speed>
  <fix>3d</fix>
</trkpt>
<trkpt lat="-27.2721933" lon="151.2900637">
  <ele>349.67</ele>
  <time>2026-09-01T19:59:32Z</time>
  <course>10.49</course>
  <speed>0.044721359549995794</speed>
  <fix>3d</fix>
</trkpt>
<trkpt lat="-27.2721931" lon="151.2900637">
  <ele>350.0</ele>
  <time>2026-09-01T19:59:32Z</time>
  <course>264.19</course>
  <speed>0.04</speed>
  <fix>3d</fix>
</trkpt>
<trkpt lat="-27.2721932" lon="151.2900637">
  <ele>349.61</ele>
  <time>2026-09-01T19:59:32Z</time>
  <course>10.5</course>
  <speed>0.0412310562561766</speed>
  <fix>3d</fix>
</trkpt>
<trkpt lat="-27.2721931" lon="151.2900637">
  <ele>349.86</ele>
  <time>2026-09-01T19:59:32Z</time>
  <course>270.15</course>
  <speed>0.05</speed>
  <fix>3d</fix>
</trkpt>
<trkpt lat="-27.2721932" lon="151.2900636">
  <ele>349.54</ele>
  <time>2026-09-01T19:59:32Z</time>
  <course>10.5</course>
  <speed>0.05099019513592785</speed>
  <fix>3d</fix>
</trkpt>
<trkpt lat="-27.2721931" lon="151.2900637">
  <ele>349.86</ele>
  <time>2026-09-01T19:59:32Z</time>
  <course>270.15</course>
  <speed>0.05</speed>
  <fix>3d</fix>
</trkpt>
<trkpt lat="-27.2721932" lon="151.2900635">
  <ele>349.48</ele>
  <time>2026-09-01T19:59:32Z</time>
  <course>10.49</course>
  <speed>0.05099019513592785</speed>
  <fix>3d</fix>
</trkpt>
<trkpt lat="-27.2721931" lon="151.2900636">
  <ele>349.72</ele>
  <time>2026-09-01T19:59:32Z</time>
  <course>274.13</course>
  <speed>0.05</speed>
  <fix>3d</fix>
</trkpt>
<trkpt lat="-27.2721932" lon="151.2900635">
  <ele>349.42</ele>
  <time>2026-09-01T19:59:32Z</time>
  <course>10.5</course>
  <speed>0.05099019513592785</speed>
  <fix>3d</fix>
</trkpt>
<trkpt lat="-27.2721931" lon="151.2900636">
  <ele>349.72</ele>
  <time>2026-09-01T19:59:32Z</time>
  <course>274.13</course>
  <speed>0.05</speed>
  <fix>3d</fix>
</trkpt>
<trkpt lat="-27.2721932" lon="151.2900634">
  <ele>349.36</ele>
  <time>2026-09-01T19:59:32Z</time>
  <course>10.5</course>
  <speed>0.05099019513592785</speed>
  <fix>3d</fix>
</trkpt>
<trkpt lat="-27.2721931" lon="151.2900634">
  <ele>349.6</ele>
  <time>2026-09-01T19:59:32Z</time>
  <course>277.46</course>
  <speed>0.06</speed>
  <fix>3d</fix>
</trkpt>
<trkpt lat="-27.2721932" lon="151.2900633">
  <ele>349.3</ele>
  <time>2026-09-01T19:59:32Z</time>
  <course>10.51</course>
  <speed>0.06</speed>
  <fix>3d</fix>
</trkpt>
<trkpt lat="-27.2721931" lon="151.2900634">
  <ele>349.6</ele>
  <time>2026-09-01T19:59:32Z</time>
  <course>277.46</course>
  <speed>0.06</speed>
  <fix>3d</fix>
</trkpt>
<trkpt lat="-27.2721932" lon="151.2900633">
  <ele>349.24</ele>
  <time>2026-09-01T19:59:32Z</time>
  <course>10.52</course>
  <speed>0.06</speed>
  <fix>3d</fix>
</trkpt>
<trkpt lat="-27.2721931" lon="151.2900633">
  <ele>349.47</ele>
  <time>2026-09-01T19:59:32Z</time>
  <course>280.14</course>
  <speed>0.07</speed>
  <fix>3d</fix>
</trkpt>
<trkpt lat="-27.2721932" lon="151.2900632">
  <ele>349.18</ele>
  <time>2026-09-01T19:59:32Z</time>
  <course>10.53</course>
  <speed>0.06</speed>
  <fix>3d</fix>
</trkpt>
<trkpt lat="-27.2721931" lon="151.2900633">
  <ele>349.47</ele>
  <time>2026-09-01T19:59:32Z</time>
  <course>280.14</course>
  <speed>0.07</speed>
  <fix>3d</fix>
</trkpt>
<trkpt lat="-27.2721932" lon="151.2900631">
  <ele>349.12</ele>
  <time>2026-09-01T19:59:32Z</time>
  <course>10.55</course>
  <speed>0.06</speed>
  <fix>3d</fix>
</trkpt>
<trkpt lat="-27.2721931" lon="151.2900632">
  <ele>349.35</ele>
  <time>2026-09-01T19:59:32Z</time>
  <course>282.53</course>
  <speed>0.07</speed>
  <fix>3d</fix>
</trkpt>
<trkpt lat="-27.2721932" lon="151.2900631">
  <ele>349.06</ele>
  <time>2026-09-01T19:59:32Z</time>
  <course>10.56</course>
  <speed>0.06</speed>
  <fix>3d</fix>
</trkpt>
<trkpt lat="-27.2721931" lon="151.2900632">
  <ele>349.35</ele>
  <time>2026-09-01T19:59:32Z</time>
  <course>282.53</course>
  <speed>0.07</speed>
  <fix>3d</fix>
</trkpt>
<trkpt lat="-27.2721932" lon="151.290063">
  <ele>349.01</ele>
  <time>2026-09-01T19:59:32Z</time>
  <course>10.57</course>
  <speed>0.05</speed>
  <fix>3d</fix>
</trkpt>
<trkpt lat="-27.2721931" lon="151.290063">
  <ele>349.24</ele>
  <time>2026-09-01T19:59:32Z</time>
  <course>285.15</course>
  <speed>0.07</speed>
  <fix>3d</fix>
</trkpt>
<trkpt lat="-27.2721932" lon="151.2900629">
  <ele>348.96</ele>
  <time>2026-09-01T19:59:32Z</time>
  <course>10.57</course>
  <speed>0.05</speed>
  <fix>3d</fix>
</trkpt>
<trkpt lat="-27.2721931" lon="151.290063">
  <ele>349.24</ele>
  <time>2026-09-01T19:59:32Z</time>
  <course>285.15</course>
  <speed>0.07</speed>
  <fix>3d</fix>
</trkpt>
<trkpt lat="-27.2721932" lon="151.2900629">
  <ele>348.9</ele>
  <time>2026-09-01T19:59:32Z</time>
  <course>10.57</course>
  <speed>0.05</speed>
  <fix>3d</fix>
</trkpt>
<trkpt lat="-27.2721931" lon="151.2900629">
  <ele>349.12</ele>
  <time>2026-09-01T19:59:32Z</time>
  <course>287.53</course>
  <speed>0.07</speed>
  <fix>3d</fix>
</trkpt>
<trkpt lat="-27.2721932" lon="151.2900628">
  <ele>348.85</ele>
  <time>2026-09-01T19:59:32Z</time>
  <course>10.57</course>
  <speed>0.05</speed>
  <fix>3d</fix>
</trkpt>
<trkpt lat="-27.2721931" lon="151.2900629">
  <ele>349.12</ele>
  <time>2026-09-01T19:59:32Z</time>
  <course>287.53</course>
  <speed>0.07</speed>
  <fix>3d</fix>
</trkpt>
<trkpt lat="-27.2721932" lon="151.2900627">
  <ele>348.8</ele>
  <time>2026-09-01T19:59:32Z</time>
  <course>10.57</course>
  <speed>0.05</speed>
  <fix>3d</fix>
</trkpt>
<trkpt lat="-27.272193" lon="151.2900627">
  <ele>349.01</ele>
  <time>2026-09-01T19:59:32Z</time>
  <course>289.62</course>
  <speed>0.07</speed>
  <fix>3d</fix>
</trkpt>
<trkpt lat="-27.2721932" lon="151.2900627">
  <ele>348.75</ele>
  <time>2026-09-01T19:59:32Z</time>
  <course>10.58</course>
  <speed>0.05</speed>
  <fix>3d</fix>
</trkpt>
<trkpt lat="-27.272193" lon="151.2900627">
  <ele>349.01</ele>
  <time>2026-09-01T19:59:32Z</time>
  <course>289.62</course>
  <speed>0.07</speed>
  <fix>3d</fix>
</trkpt>
<trkpt lat="-27.2721931" lon="151.2900626">
  <ele>348.7</ele>
  <time>2026-09-01T19:59:32Z</time>
  <course>10.59</course>
  <speed>0.04</speed>
  <fix>3d</fix>
</trkpt>
<trkpt lat="-27.272193" lon="151.2900626">
  <ele>348.9</ele>
  <time>2026-09-01T19:59:32Z</time>
  <course>291.96</course>
  <speed>0.06</speed>
  <fix>3d</fix>
</trkpt>
<trkpt lat="-27.2721931" lon="151.2900626">
  <ele>348.65</ele>
  <time>2026-09-01T19:59:32Z</time>
  <course>10.59</course>
  <speed>0.04</speed>
  <fix>3d</fix>
</trkpt>
<trkpt lat="-27.272193" lon="151.2900626">
  <ele>348.9</ele>
  <time>2026-09-01T19:59:32Z</time>
  <course>291.96</course>
  <speed>0.06</speed>
  <fix>3d</fix>
</trkpt>
<trkpt lat="-27.2721931" lon="151.2900625">
  <ele>348.6</ele>
  <time>2026-09-01T19:59:32Z</time>
  <course>10.6</course>
  <speed>0.04</speed>
  <fix>3d</fix>
</trkpt>
<trkpt lat="-27.2721929" lon="151.2900625">
  <ele>348.81</ele>
  <time>2026-09-01T19:59:32Z</time>
  <course>295.0</course>
  <speed>0.06</speed>
  <fix>3d</fix>
</trkpt>
<trkpt lat="-27.2721931" lon="151.2900624">
  <ele>348.55</ele>
  <time>2026-09-01T19:59:32Z</time>
  <course>10.6</course>
  <speed>0.03</speed>
  <fix>3d</fix>
</trkpt>
<trkpt lat="-27.2721929" lon="151.2900625">
  <ele>348.81</ele>
  <time>2026-09-01T19:59:32Z</time>
  <course>295.0</course>
  <speed>0.06</speed>
  <fix>3d</fix>
</trkpt>
<trkpt lat="-27.2721931" lon="151.2900624">
  <ele>348.5</ele>
  <time>2026-09-01T19:59:32Z</time>
  <course>10.59</course>
  <speed>0.03</speed>
  <fix>3d</fix>
</trkpt>
<trkpt lat="-27.2721929" lon="151.2900624">
  <ele>348.71</ele>
  <time>2026-09-01T19:59:32Z</time>
  <course>298.86</course>
  <speed>0.05</speed>
  <fix>3d</fix>
</trkpt>
<trkpt lat="-27.272193" lon="151.2900624">
  <ele>348.45</ele>
  <time>2026-09-01T19:59:32Z</time>
  <course>10.59</course>
  <speed>0.02</speed>
  <fix>3d</fix>
</trkpt>
<trkpt lat="-27.2721929" lon="151.2900624">
  <ele>348.71</ele>
  <time>2026-09-01T19:59:32Z</time>
  <course>298.86</course>
  <speed>0.05</speed>
  <fix>3d</fix>
</trkpt>
<trkpt lat="-27.272193" lon="151.2900623">
  <ele>348.4</ele>
  <time>2026-09-01T19:59:32Z</time>
  <course>10.59</course>
  <speed>0.02</speed>
  <fix>3d</fix>
</trkpt>
<trkpt lat="-27.2721928" lon="151.2900623">
  <ele>348.61</ele>
  <time>2026-09-01T19:59:32Z</time>
  <course>303.66</course>
  <speed>0.05</speed>
  <fix>3d</fix>
</trkpt>
<trkpt lat="-27.272193" lon="151.2900623">
  <ele>348.35</ele>
  <time>2026-09-01T19:59:32Z</time>
  <course>10.59</course>
  <speed>0.01</speed>
  <fix>3d</fix>
</trkpt>
<trkpt lat="-27.2721928" lon="151.2900623">
  <ele>348.61</ele>
  <time>2026-09-01T19:59:32Z</time>
  <course>303.66</course>
  <speed>0.05</speed>
  <fix>3d</fix>
</trkpt>
<trkpt lat="-27.272193" lon="151.2900623">
  <ele>348.3</ele>
  <time>2026-09-01T19:59:32Z</time>
  <course>10.6</course>
  <speed>0.01</speed>
  <fix>3d</fix>
</trkpt>
<trkpt lat="-27.2721928" lon="151.2900622">
  <ele>348.51</ele>
  <time>2026-09-01T19:59:32Z</time>
  <course>310.61</course>
  <speed>0.04</speed>
  <fix>3d</fix>
</trkpt>
<trkpt lat="-27.2721929" lon="151.2900623">
  <ele>348.25</ele>
  <time>2026-09-01T19:59:32Z</time>
  <course>10.61</course>
  <speed>0.0</speed>
  <fix>3d</fix>
</trkpt>
<trkpt lat="-27.2721928" lon="151.2900622">
  <ele>348.51</ele>
  <time>2026-09-01T19:59:32Z</time>
  <course>310.61</course>
  <speed>0.04</speed>
  <fix>3d</fix>
</trkpt>
<trkpt lat="-27.2721929" lon="151.2900622">
  <ele>348.2</ele>
  <time>2026-09-01T19:59:32Z</time>
  <course>10.62</course>
  <speed>0.0</speed>
  <fix>3d</fix>
</trkpt>
<trkpt lat="-27.2721927" lon="151.2900621">
  <ele>348.4</ele>
  <time>2026-09-01T19:59:32Z</time>
  <course>320.35</course>
  <speed>0.03</speed>
  <fix>3d</fix>
</trkpt>
<trkpt lat="-27.2721929" lon="151.2900622">
  <ele>348.15</ele>
  <time>2026-09-01T19:59:32Z</time>
  <course>10.63</course>
  <speed>0.0</speed>
  <fix>3d</fix>
</trkpt>
<trkpt lat="-27.2721927" lon="151.2900621">
  <ele>348.4</ele>
  <time>2026-09-01T19:59:32Z</time>
  <course>320.35</course>
  <speed>0.03</speed>
  <fix>3d</fix>
</trkpt>
<trkpt lat="-27.2721929" lon="151.2900622">
  <ele>348.09</ele>
  <time>2026-09-01T19:59:32Z</time>
  <course>10.63</course>
  <speed>0.0</speed>
  <fix>3d</fix>
</trkpt>
<trkpt lat="-27.2721927" lon="151.2900621">
  <ele>348.3</ele>
  <time>2026-09-01T19:59:32Z</time>
  <course>332.21</course>
  <speed>0.03</speed>
  <fix>3d</fix>
</trkpt>
<trkpt lat="-27.2721929" lon="151.2900622">
  <ele>348.04</ele>
  <time>2026-09-01T19:59:32Z</time>
  <course>10.63</course>
  <speed>0.0</speed>
  <fix>3d</fix>
</trkpt>
<trkpt lat="-27.2721927" lon="151.2900621">
  <ele>348.3</ele>
  <time>2026-09-01T19:59:32Z</time>
  <course>332.21</course>
  <speed>0.03</speed>
  <fix>3d</fix>
</trkpt>
<trkpt lat="-27.2721928" lon="151.2900622">
  <ele>347.99</ele>
  <time>2026-09-01T19:59:32Z</time>
  <course>10.65</course>
  <speed>0.01</speed>
  <fix>3d</fix>
</trkpt>
<trkpt lat="-27.2721926" lon="151.2900621">
  <ele>348.2</ele>
  <time>2026-09-01T19:59:32Z</time>
  <course>346.28</course>
  <speed>0.03</speed>
  <fix>3d</fix>
</trkpt>
<trkpt lat="-27.2721928" lon="151.2900622">
  <ele>347.94</ele>
  <time>2026-09-01T19:59:32Z</time>
  <course>10.66</course>
  <speed>0.01</speed>
  <fix>3d</fix>
</trkpt>
<trkpt lat="-27.2721926" lon="151.2900621">
  <ele>348.2</ele>
  <time>2026-09-01T19:59:32Z</time>
  <course>346.28</course>
  <speed>0.03</speed>
  <fix>3d</fix>
</trkpt>
<trkpt lat="-27.2721928" lon="151.2900622">
  <ele>347.89</ele>
  <time>2026-09-01T19:59:32Z</time>
  <course>10.68</course>
  <speed>0.02</speed>
  <fix>3d</fix>
</trkpt>
<trkpt lat="-27.2721926" lon="151.2900621">
  <ele>348.09</ele>
  <time>2026-09-01T19:59:32Z</time>
  <course>1.84</course>
  <speed>0.02</speed>
  <fix>3d</fix>
</trkpt>
<trkpt lat="-27.2721928" lon="151.2900622">
  <ele>347.84</ele>
  <time>2026-09-01T19:59:32Z</time>
  <course>10.69</course>
  <speed>0.02</speed>
  <fix>3d</fix>
</trkpt>
<trkpt lat="-27.2721926" lon="151.2900621">
  <ele>348.09</ele>
  <time>2026-09-01T19:59:32Z</time>
  <course>1.84</course>
  <speed>0.02</speed>
  <fix>3d</fix>
</trkpt>
<trkpt lat="-27.2721927" lon="151.2900622">
  <ele>347.79</ele>
  <time>2026-09-01T19:59:32Z</time>
  <course>10.71</course>
  <speed>0.02</speed>
  <fix>3d</fix>
</trkpt>
<trkpt lat="-27.2721925" lon="151.2900621">
  <ele>348.0</ele>
  <time>2026-09-01T19:59:32Z</time>
  <course>17.13</course>
  <speed>0.03</speed>
  <fix>3d</fix>
</trkpt>
<trkpt lat="-27.2721927" lon="151.2900622">
  <ele>347.74</ele>
  <time>2026-09-01T19:59:32Z</time>
  <course>10.72</course>
  <speed>0.03</speed>
  <fix>3d</fix>
</trkpt>
<trkpt lat="-27.2721925" lon="151.2900621">
  <ele>348.0</ele>
  <time>2026-09-01T19:59:32Z</time>
  <course>17.13</course>
  <speed>0.03</speed>
  <fix>3d</fix>
</trkpt>
<trkpt lat="-27.2721927" lon="151.2900622">
  <ele>347.69</ele>
  <time>2026-09-01T19:59:32Z</time>
  <course>10.72</course>
  <speed>0.03</speed>
  <fix>3d</fix>
</trkpt>
<trkpt lat="-27.2721925" lon="151.2900621">
  <ele>347.9</ele>
  <time>2026-09-01T19:59:32Z</time>
  <course>30.77</course>
  <speed>0.03</speed>
  <fix>3d</fix>
</trkpt>
<trkpt lat="-27.2721927" lon="151.2900622">
  <ele>347.64</ele>
  <time>2026-09-01T19:59:32Z</time>
  <course>10.72</course>
  <speed>0.03</speed>
  <fix>3d</fix>
</trkpt>
<trkpt lat="-27.2721925" lon="151.2900621">
  <ele>347.9</ele>
  <time>2026-09-01T19:59:32Z</time>
  <course>30.77</course>
  <speed>0.03</speed>
  <fix>3d</fix>
</trkpt>
<trkpt lat="-27.2721926" lon="151.2900623">
  <ele>347.59</ele>
  <time>2026-09-01T19:59:32Z</time>
  <course>10.72</course>
  <speed>0.04</speed>
  <fix>3d</fix>
</trkpt>
<trkpt lat="-27.2721924" lon="151.2900621">
  <ele>347.8</ele>
  <time>2026-09-01T19:59:32Z</time>
  <course>42.19</course>
  <speed>0.03</speed>
  <fix>3d</fix>
</trkpt>
<trkpt lat="-27.2721926" lon="151.2900623">
  <ele>347.54</ele>
  <time>2026-09-01T19:59:32Z</time>
  <course>10.72</course>
  <speed>0.04</speed>
  <fix>3d</fix>
</trkpt>
<trkpt lat="-27.2721924" lon="151.2900621">
  <ele>347.8</ele>
  <time>2026-09-01T19:59:32Z</time>
  <course>42.19</course>
  <speed>0.03</speed>
  <fix>3d</fix>
</trkpt>
<trkpt lat="-27.2721926" lon="151.2900623">
  <ele>347.49</ele>
  <time>2026-09-01T19:59:32Z</time>
  <course>10.72</course>
  <speed>0.04</speed>
  <fix>3d</fix>
</trkpt>
<trkpt lat="-27.2721924" lon="151.2900621">
  <ele>347.7</ele>
  <time>2026-09-01T19:59:32Z</time>
  <course>51.39</course>
  <speed>0.03</speed>
  <fix>3d</fix>
</trkpt>
<trkpt lat="-27.2721926" lon="151.2900623">
  <ele>347.44</ele>
  <time>2026-09-01T19:59:32Z</time>
  <course>10.73</course>
  <speed>0.04</speed>
  <fix>3d</fix>
</trkpt>
<trkpt lat="-27.2721924" lon="151.2900621">
  <ele>347.7</ele>
  <time>2026-09-01T19:59:32Z</time>
  <course>51.39</course>
  <speed>0.03</speed>
  <fix>3d</fix>
</trkpt>
<trkpt lat="-27.2721926" lon="151.2900624">
  <ele>347.39</ele>
  <time>2026-09-01T19:59:32Z</time>
  <course>10.73</course>
  <speed>0.05</speed>
  <fix>3d</fix>
</trkpt>
<trkpt lat="-27.2721923" lon="151.2900621">
  <ele>347.59</ele>
  <time>2026-09-01T19:59:32Z</time>
  <course>59.04</course>
  <speed>0.04</speed>
  <fix>3d</fix>
</trkpt>
<trkpt lat="-27.2721926" lon="151.2900624">
  <ele>347.34</ele>
  <time>2026-09-01T19:59:32Z</time>
  <course>10.74</course>
  <speed>0.05099019513592785</speed>
  <fix>3d</fix>
</trkpt>
<trkpt lat="-27.2721923" lon="151.2900621">
  <ele>347.59</ele>
  <time>2026-09-01T19:59:32Z</time>
  <course>59.04</course>
  <speed>0.04</speed>
  <fix>3d</fix>
</trkpt>
<trkpt lat="-27.2721925" lon="151.2900624">
  <ele>347.29</ele>
  <time>2026-09-01T19:59:32Z</time>
  <course>10.75</course>
  <speed>0.05099019513592785</speed>
  <fix>3d</fix>
</trkpt>
<trkpt lat="-27.2721923" lon="151.2900622">
  <ele>347.5</ele>
  <time>2026-09-01T19:59:32Z</time>
  <course>65.2</course>
  <speed>0.04</speed>
  <fix>3d</fix>
</trkpt>
<trkpt lat="-27.2721925" lon="151.2900625">
  <ele>347.24</ele>
  <time>2026-09-01T19:59:32Z</time>
  <course>10.75</course>
  <speed>0.05099019513592785</speed>
  <fix>3d</fix>
</trkpt>
<trkpt lat="-27.2721923" lon="151.2900622">
  <ele>347.5</ele>
  <time>2026-09-01T19:59:32Z</time>
  <course>65.2</course>
  <speed>0.04</speed>
  <fix>3d</fix>
</trkpt>
<trkpt lat="-27.2721925" lon="151.2900625">
  <ele>347.19</ele>
  <time>2026-09-01T19:59:32Z</time>
  <course>10.75</course>
  <speed>0.05099019513592785</speed>
  <fix>3d</fix>
</trkpt>
<trkpt lat="-27.2721923" lon="151.2900623">
  <ele>347.4</ele>
  <time>2026-09-01T19:59:32Z</time>
  <course>70.49</course>
  <speed>0.04</speed>
  <fix>3d</fix>
</trkpt>
<trkpt lat="-27.2721925" lon="151.2900625">
  <ele>347.14</ele>
  <time>2026-09-01T19:59:32Z</time>
  <course>10.74</course>
  <speed>0.05099019513592785</speed>
  <fix>3d</fix>
</trkpt>
<trkpt lat="-27.2721923" lon="151.2900623">
  <ele>347.4</ele>
  <time>2026-09-01T19:59:32Z</time>
  <course>70.49</course>
  <speed>0.04</speed>
  <fix>3d</fix>
</trkpt>
<trkpt lat="-27.2721925" lon="151.2900626">
  <ele>347.1</ele>
  <time>2026-09-01T19:59:32Z</time>
  <course>10.73</course>
  <speed>0.05099019513592785</speed>
  <fix>3d</fix>
</trkpt>
<trkpt lat="-27.2721922" lon="151.2900624">
  <ele>347.3</ele>
  <time>2026-09-01T19:59:32Z</time>
  <course>75.14</course>
  <speed>0.04</speed>
  <fix>3d</fix>
</trkpt>
<trkpt lat="-27.2721925" lon="151.2900626">
  <ele>347.05</ele>
  <time>2026-09-01T19:59:32Z</time>
  <course>10.72</course>
  <speed>0.05099019513592785</speed>
  <fix>3d</fix>
</trkpt>
<trkpt lat="-27.2721922" lon="151.2900624">
  <ele>347.3</ele>
  <time>2026-09-01T19:59:32Z</time>
  <course>75.14</course>
  <speed>0.04</speed>
  <fix>3d</fix>
</trkpt>
<trkpt lat="-27.2721925" lon="151.2900627">
  <ele>347.0</ele>
  <time>2026-09-01T19:59:32Z</time>
  <course>10.71</course>
  <speed>0.05099019513592785</speed>
  <fix>3d</fix>
</trkpt>
<trkpt lat="-27.2721922" lon="151.2900625">
  <ele>347.2</ele>
  <time>2026-09-01T19:59:32Z</time>
  <course>78.29</course>
  <speed>0.04</speed>
  <fix>3d</fix>
</trkpt>
<trkpt lat="-27.2721925" lon="151.2900627">
  <ele>346.95</ele>
  <time>2026-09-01T19:59:32Z</time>
  <course>10.69</course>
  <speed>0.05099019513592785</speed>
  <fix>3d</fix>
</trkpt>
<trkpt lat="-27.2721922" lon="151.2900625">
  <ele>347.2</ele>
  <time>2026-09-01T19:59:32Z</time>
  <course>78.29</course>
  <speed>0.04</speed>
  <fix>3d</fix>
</trkpt>
<trkpt lat="-27.2721925" lon="151.2900628">
  <ele>346.9</ele>
  <time>2026-09-01T19:59:32Z</time>
  <course>10.68</course>
  <speed>0.06082762530298219</speed>
  <fix>3d</fix>
</trkpt>
<trkpt lat="-27.2721922" lon="151.2900626">
  <ele>347.09</ele>
  <time>2026-09-01T19:59:32Z</time>
  <course>80.59</course>
  <speed>0.05</speed>
  <fix>3d</fix>
</trkpt>
<trkpt lat="-27.2721925" lon="151.2900628">
  <ele>346.85</ele>
  <time>2026-09-01T19:59:32Z</time>
  <course>10.67</course>
  <speed>0.0632455532033676</speed>
  <fix>3d</fix>
</trkpt>
<trkpt lat="-27.2721922" lon="151.2900626">
  <ele>347.09</ele>
  <time>2026-09-01T19:59:32Z</time>
  <course>80.59</course>
  <speed>0.05</speed>
  <fix>3d</fix>
</trkpt>
<trkpt lat="-27.2721925" lon="151.2900629">
  <ele>346.8</ele>
  <time>2026-09-01T19:59:32Z</time>
  <course>10.66</course>
  <speed>0.0632455532033676</speed>
  <fix>3d</fix>
</trkpt>
<trkpt lat="-27.2721922" lon="151.2900627">
  <ele>347.0</ele>
  <time>2026-09-01T19:59:32Z</time>
  <course>83.3</course>
  <speed>0.05</speed>
  <fix>3d</fix>
</trkpt>
<trkpt lat="-27.2721925" lon="151.2900629">
  <ele>346.75</ele>
  <time>2026-09-01T19:59:32Z</time>
  <course>10.66</course>
  <speed>0.0632455532033676</speed>
  <fix>3d</fix>
</trkpt>
<trkpt lat="-27.2721922" lon="151.2900627">
  <ele>347.0</ele>
  <time>2026-09-01T19:59:32Z</time>
  <course>83.3</course>
  <speed>0.05</speed>
  <fix>3d</fix>
</trkpt>
<trkpt lat="-27.2721924" lon="151.290063">
  <ele>346.69</ele>
  <time>2026-09-01T19:59:32Z</time>
  <course>10.65</course>
  <speed>0.0632455532033676</speed>
  <fix>3d</fix>
</trkpt>
<trkpt lat="-27.2721922" lon="151.2900628">
  <ele>346.9</ele>
  <time>2026-09-01T19:59:32Z</time>
  <course>86.1</course>
  <speed>0.05</speed>
  <fix>3d</fix>
</trkpt>
<trkpt lat="-27.2721924" lon="151.290063">
  <ele>346.64</ele>
  <time>2026-09-01T19:59:32Z</time>
  <course>10.65</course>
  <speed>0.0632455532033676</speed>
  <fix>3d</fix>
</trkpt>
<trkpt lat="-27.2721922" lon="151.2900628">
  <ele>346.9</ele>
  <time>2026-09-01T19:59:32Z</time>
  <course>86.1</course>
  <speed>0.05</speed>
  <fix>3d</fix>
</trkpt>
<trkpt lat="-27.2721924" lon="151.2900631">
  <ele>346.59</ele>
  <time>2026-09-01T19:59:32Z</time>
  <course>10.65</course>
  <speed>0.053851648071345036</speed>
  <fix>3d</fix>
</trkpt>
<trkpt lat="-27.2721922" lon="151.2900629">
  <ele>346.8</ele>
  <time>2026-09-01T19:59:32Z</time>
  <course>88.49</course>
  <speed>0.05</speed>
  <fix>3d</fix>
</trkpt>
<trkpt lat="-27.2721924" lon="151.2900631">
  <ele>346.55</ele>
  <time>2026-09-01T19:59:33Z</time>
  <course>10.65</course>
  <speed>0.053851648071345036</speed>
  <fix>3d</fix>
</trkpt>
<trkpt lat="-27.2721922" lon="151.2900629">
  <ele>346.8</ele>
  <time>2026-09-01T19:59:33Z</time>
  <course>88.49</course>
  <speed>0.05</speed>
  <fix>3d</fix>
</trkpt>
<trkpt lat="-27.2721924" lon="151.2900632">
  <ele>346.5</ele>
  <time>2026-09-01T19:59:33Z</time>
  <course>10.64</course>
  <speed>0.053851648071345036</speed>
  <fix>3d</fix>
</trkpt>
<trkpt lat="-27.2721922" lon="151.290063">
  <ele>346.7</ele>
  <time>2026-09-01T19:59:33Z</time>
  <course>91.26</course>
  <speed>0.05</speed>
  <fix>3d</fix>
</trkpt>
<trkpt lat="-27.2721924" lon="151.2900632">
  <ele>346.45</ele>
  <time>2026-09-01T19:59:33Z</time>
  <course>10.63</course>
  <speed>0.05830951894845301</speed>
  <fix>3d</fix>
</trkpt>
<trkpt lat="-27.2721922" lon="151.290063">
  <ele>346.7</ele>
  <time>2026-09-01T19:59:33Z</time>
  <course>91.26</course>
  <speed>0.05</speed>
  <fix>3d</fix>
</trkpt>
<trkpt lat="-27.2721924" lon="151.2900632">
  <ele>346.4</ele>
  <time>2026-09-01T19:59:33Z</time>
  <course>10.63</course>
  <speed>0.05830951894845301</speed>
  <fix>3d</fix>
</trkpt>
<trkpt lat="-27.2721922" lon="151.2900631">
  <ele>346.59</ele>
  <time>2026-09-01T19:59:33Z</time>
  <course>94.98</course>
  <speed>0.05</speed>
  <fix>3d</fix>
</trkpt>
<trkpt lat="-27.2721924" lon="151.2900633">
  <ele>346.35</ele>
  <time>2026-09-01T19:59:33Z</time>
  <course>10.62</course>
  <speed>0.05830951894845301</speed>
  <fix>3d</fix>
</trkpt>
<trkpt lat="-27.2721922" lon="151.2900631">
  <ele>346.59</ele>
  <time>2026-09-01T19:59:33Z</time>
  <course>94.98</course>
  <speed>0.05</speed>
  <fix>3d</fix>
</trkpt>
<trkpt lat="-27.2721924" lon="151.2900633">
  <ele>346.3</ele>
  <time>2026-09-01T19:59:33Z</time>
  <course>10.62</course>
  <speed>0.05</speed>
  <fix>3d</fix>
</trkpt>
<trkpt lat="-27.2721922" lon="151.2900632">
  <ele>346.49</ele>
  <time>2026-09-01T19:59:33Z</time>
  <course>98.91</course>
  <speed>0.04</speed>
  <fix>3d</fix>
</trkpt>
<trkpt lat="-27.2721924" lon="151.2900634">
  <ele>346.25</ele>
  <time>2026-09-01T19:59:33Z</time>
  <course>10.63</course>
  <speed>0.05</speed>
  <fix>3d</fix>
</trkpt>
<trkpt lat="-27.2721922" lon="151.2900632">
  <ele>346.49</ele>
  <time>2026-09-01T19:59:33Z</time>
  <course>98.91</course>
  <speed>0.04</speed>
  <fix>3d</fix>
</trkpt>
<trkpt lat="-27.2721924" lon="151.2900634">
  <ele>346.2</ele>
  <time>2026-09-01T19:59:33Z</time>
  <course>10.63</course>
  <speed>0.05</speed>
  <fix>3d</fix>
</trkpt>
<trkpt lat="-27.2721922" lon="151.2900633">
  <ele>346.39</ele>
  <time>2026-09-01T19:59:33Z</time>
  <course>102.51</course>
  <speed>0.04</speed>
  <fix>3d</fix>
</trkpt>
<trkpt lat="-27.2721924" lon="151.2900634">
  <ele>346.15</ele>
  <time>2026-09-01T19:59:33Z</time>
  <course>10.64</course>
  <speed>0.05</speed>
  <fix>3d</fix>
</trkpt>
<trkpt lat="-27.2721922" lon="151.2900633">
  <ele>346.39</ele>
  <time>2026-09-01T19:59:33Z</time>
  <course>102.51</course>
  <speed>0.04</speed>
  <fix>3d</fix>
</trkpt>
<trkpt lat="-27.2721924" lon="151.2900635">
  <ele>346.1</ele>
  <time>2026-09-01T19:59:33Z</time>
  <course>10.65</course>
  <speed>0.05</speed>
  <fix>3d</fix>
</trkpt>
<trkpt lat="-27.2721922" lon="151.2900634">
  <ele>346.28</ele>
  <time>2026-09-01T19:59:33Z</time>
  <course>105.46</course>
  <speed>0.04</speed>
  <fix>3d</fix>
</trkpt>
<trkpt lat="-27.2721924" lon="151.2900635">
  <ele>346.05</ele>
  <time>2026-09-01T19:59:33Z</time>
  <course>10.65</course>
  <speed>0.05</speed>
  <fix>3d</fix>
</trkpt>
<trkpt lat="-27.2721922" lon="151.2900634">
  <ele>346.28</ele>
  <time>2026-09-01T19:59:33Z</time>
  <course>105.46</course>
  <speed>0.04</speed>
  <fix>3d</fix>
</trkpt>
<trkpt lat="-27.2721924" lon="151.2900635">
  <ele>346.0</ele>
  <time>2026-09-01T19:59:33Z</time>
  <course>10.65</course>
  <speed>0.04242640687119285</speed>
  <fix>3d</fix>
</trkpt>
<trkpt lat="-27.2721922" lon="151.2900635">
  <ele>346.19</ele>
  <time>2026-09-01T19:59:33Z</time>
  <course>108.44</course>
  <speed>0.03</speed>
  <fix>3d</fix>
</trkpt>
<trkpt lat="-27.2721924" lon="151.2900636">
  <ele>345.95</ele>
  <time>2026-09-01T19:59:33Z</time>
  <course>10.64</course>
  <speed>0.04242640687119285</speed>
  <fix>3d</fix>
</trkpt>
<trkpt lat="-27.2721922" lon="151.2900635">
  <ele>346.19</ele>
  <time>2026-09-01T19:59:33Z</time>
  <course>108.44</course>
  <speed>0.03</speed>
  <fix>3d</fix>
</trkpt>
<trkpt lat="-27.2721924" lon="151.2900636">
  <ele>345.9</ele>
  <time>2026-09-01T19:59:33Z</time>
  <course>10.64</course>
  <speed>0.04242640687119285</speed>
  <fix>3d</fix>
</trkpt>
<trkpt lat="-27.2721922" lon="151.2900636">
  <ele>346.09</ele>
  <time>2026-09-01T19:59:33Z</time>
  <course>112.72</course>
  <speed>0.03</speed>
  <fix>3d</fix>
</trkpt>
<trkpt lat="-27.2721925" lon="151.2900636">
  <ele>345.85</ele>
  <time>2026-09-01T19:59:33Z</time>
  <course>10.63</course>
  <speed>0.04242640687119285</speed>
  <fix>3d</fix>
</trkpt>
<trkpt lat="-27.2721922" lon="151.2900636">
  <ele>346.09</ele>
  <time>2026-09-01T19:59:33Z</time>
  <course>112.72</course>
  <speed>0.03</speed>
  <fix>3d</fix>
</trkpt>
<trkpt lat="-27.2721925" lon="151.2900637">
  <ele>345.8</ele>
  <time>2026-09-01T19:59:33Z</time>
  <course>10.62</course>
  <speed>0.03605551275463989</speed>
  <fix>3d</fix>
</trkpt>
<trkpt lat="-27.2721922" lon="151.2900636">
  <ele>345.99</ele>
  <time>2026-09-01T19:59:33Z</time>
  <course>118.58</course>
  <speed>0.02</speed>
  <fix>3d</fix>
</trkpt>
<trkpt lat="-27.2721925" lon="151.2900637">
  <ele>345.75</ele>
  <time>2026-09-01T19:59:33Z</time>
  <course>10.61</course>
  <speed>0.03605551275463989</speed>
  <fix>3d</fix>
</trkpt>
<trkpt lat="-27.2721922" lon="151.2900636">
  <ele>345.99</ele>
  <time>2026-09-01T19:59:33Z</time>
  <course>118.58</course>
  <speed>0.02</speed>
  <fix>3d</fix>
</trkpt>
<trkpt lat="-27.2721925" lon="151.2900637">
  <ele>345.7</ele>
  <time>2026-09-01T19:59:33Z</time>
  <course>10.61</course>
  <speed>0.03605551275463989</speed>
  <fix>3d</fix>
</trkpt>
<trkpt lat="-27.2721922" lon="151.2900637">
  <ele>345.88</ele>
  <time>2026-09-01T19:59:33Z</time>
  <course>126.42</course>
  <speed>0.02</speed>
  <fix>3d</fix>
</trkpt>
<trkpt lat="-27.2721925" lon="151.2900637">
  <ele>345.65</ele>
  <time>2026-09-01T19:59:33Z</time>
  <course>10.61</course>
  <speed>0.0316227766016838</speed>
  <fix>3d</fix>
</trkpt>
<trkpt lat="-27.2721922" lon="151.2900637">
  <ele>345.88</ele>
  <time>2026-09-01T19:59:33Z</time>
  <course>126.42</course>
  <speed>0.02</speed>
  <fix>3d</fix>
</trkpt>
<trkpt lat="-27.2721925" lon="151.2900637">
  <ele>345.6</ele>
  <time>2026-09-01T19:59:33Z</time>
  <course>10.62</course>
  <speed>0.0316227766016838</speed>
  <fix>3d</fix>
</trkpt>
<trkpt lat="-27.2721922" lon="151.2900637">
  <ele>345.78</ele>
  <time>2026-09-01T19:59:33Z</time>
  <course>137.44</course>
  <speed>0.01</speed>
  <fix>3d</fix>
</trkpt>
<trkpt lat="-27.2721925" lon="151.2900637">
  <ele>345.54</ele>
  <time>2026-09-01T19:59:33Z</time>
  <course>10.62</course>
  <speed>0.0316227766016838</speed>
  <fix>3d</fix>
</trkpt>
<trkpt lat="-27.2721922" lon="151.2900637">
  <ele>345.78</ele>
  <time>2026-09-01T19:59:33Z</time>
  <course>137.44</course>
  <speed>0.01</speed>
  <fix>3d</fix>
</trkpt>
<trkpt lat="-27.2721925" lon="151.2900637">
  <ele>345.49</ele>
  <time>2026-09-01T19:59:33Z</time>
  <course>10.63</course>
  <speed>0.03</speed>
  <fix>3d</fix>
</trkpt>
<trkpt lat="-27.2721923" lon="151.2900637">
  <ele>345.68</ele>
  <time>2026-09-01T19:59:33Z</time>
  <course>154.15</course>
  <speed>0.01</speed>
  <fix>3d</fix>
</trkpt>
<trkpt lat="-27.2721925" lon="151.2900637">
  <ele>345.44</ele>
  <time>2026-09-01T19:59:33Z</time>
  <course>10.64</course>
  <speed>0.03</speed>
  <fix>3d</fix>
</trkpt>
<trkpt lat="-27.2721923" lon="151.2900637">
  <ele>345.68</ele>
  <time>2026-09-01T19:59:33Z</time>
  <course>154.15</course>
  <speed>0.01</speed>
  <fix>3d</fix>
</trkpt>
<trkpt lat="-27.2721925" lon="151.2900637">
  <ele>345.39</ele>
  <time>2026-09-01T19:59:33Z</time>
  <course>10.63</course>
  <speed>0.03</speed>
  <fix>3d</fix>
</trkpt>
<trkpt lat="-27.2721923" lon="151.2900637">
  <ele>345.58</ele>
  <time>2026-09-01T19:59:33Z</time>
  <course>178.11</course>
  <speed>0.01</speed>
  <fix>3d</fix>
</trkpt>
<trkpt lat="-27.2721925" lon="151.2900637">
  <ele>345.34</ele>
  <time>2026-09-01T19:59:33Z</time>
  <course>10.58</course>
  <speed>0.03</speed>
  <fix>3d</fix>
</trkpt>
<trkpt lat="-27.2721923" lon="151.2900637">
  <ele>345.58</ele>
  <time>2026-09-01T19:59:33Z</time>
  <course>178.11</course>
  <speed>0.01</speed>
  <fix>3d</fix>
</trkpt>
<trkpt lat="-27.2721925" lon="151.2900637">
  <ele>345.29</ele>
  <time>2026-09-01T19:59:33Z</time>
  <course>10.5</course>
  <speed>0.03</speed>
  <fix>3d</fix>
</trkpt>
<trkpt lat="-27.2721923" lon="151.2900637">
  <ele>345.47</ele>
  <time>2026-09-01T19:59:33Z</time>
  <course>192.13</course>
  <speed>0.01</speed>
  <fix>3d</fix>
</trkpt>
<trkpt lat="-27.2721925" lon="151.2900637">
  <ele>345.24</ele>
  <time>2026-09-01T19:59:33Z</time>
  <course>10.43</course>
  <speed>0.03</speed>
  <fix>3d</fix>
</trkpt>
<trkpt lat="-27.2721923" lon="151.2900637">
  <ele>345.47</ele>
  <time>2026-09-01T19:59:33Z</time>
  <course>192.13</course>
  <speed>0.01</speed>
  <fix>3d</fix>
</trkpt>
<trkpt lat="-27.2721925" lon="151.2900637">
  <ele>345.19</ele>
  <time>2026-09-01T19:59:33Z</time>
  <course>10.35</course>
  <speed>0.03</speed>
  <fix>3d</fix>
</trkpt>
<trkpt lat="-27.2721924" lon="151.2900637">
  <ele>345.38</ele>
  <time>2026-09-01T19:59:33Z</time>
  <course>192.45</course>
  <speed>0.01</speed>
  <fix>3d</fix>
</trkpt>
<trkpt lat="-27.2721925" lon="151.2900637">
  <ele>345.14</ele>
  <time>2026-09-01T19:59:33Z</time>
  <course>10.3</course>
  <speed>0.03</speed>
  <fix>3d</fix>
</trkpt>
<trkpt lat="-27.2721924" lon="151.2900637">
  <ele>345.38</ele>
  <time>2026-09-01T19:59:33Z</time>
  <course>192.45</course>
  <speed>0.01</speed>
  <fix>3d</fix>
</trkpt>
<trkpt lat="-27.2721925" lon="151.2900637">
  <ele>345.09</ele>
  <time>2026-09-01T19:59:33Z</time>
  <course>10.26</course>
  <speed>0.03</speed>
  <fix>3d</fix>
</trkpt>
<trkpt lat="-27.2721924" lon="151.2900637">
  <ele>345.28</ele>
  <time>2026-09-01T19:59:33Z</time>
  <course>192.49</course>
  <speed>0.01</speed>
  <fix>3d</fix>
</trkpt>
<trkpt lat="-27.2721926" lon="151.2900637">
  <ele>345.04</ele>
  <time>2026-09-01T19:59:33Z</time>
  <course>10.25</course>
  <speed>0.03</speed>
  <fix>3d</fix>
</trkpt>
<trkpt lat="-27.2721924" lon="151.2900637">
  <ele>345.28</ele>
  <time>2026-09-01T19:59:33Z</time>
  <course>192.49</course>
  <speed>0.01</speed>
  <fix>3d</fix>
</trkpt>
<trkpt lat="-27.2721926" lon="151.2900637">
  <ele>344.99</ele>
  <time>2026-09-01T19:59:33Z</time>
  <course>10.26</course>
  <speed>0.03</speed>
  <fix>3d</fix>
</trkpt>
<trkpt lat="-27.2721924" lon="151.2900637">
  <ele>345.18</ele>
  <time>2026-09-01T19:59:33Z</time>
  <course>192.23</course>
  <speed>0.01</speed>
  <fix>3d</fix>
</trkpt>
<trkpt lat="-27.2721926" lon="151.2900637">
  <ele>344.94</ele>
  <time>2026-09-01T19:59:33Z</time>
  <course>10.27</course>
  <speed>0.03</speed>
  <fix>3d</fix>
</trkpt>
<trkpt lat="-27.2721924" lon="151.2900637">
  <ele>345.18</ele>
  <time>2026-09-01T19:59:33Z</time>
  <course>192.23</course>
  <speed>0.01</speed>
  <fix>3d</fix>
</trkpt>
<trkpt lat="-27.2721926" lon="151.2900637">
  <ele>344.89</ele>
  <time>2026-09-01T19:59:33Z</time>
  <course>10.3</course>
  <speed>0.03</speed>
  <fix>3d</fix>
</trkpt>
<trkpt lat="-27.2721924" lon="151.2900637">
  <ele>345.08</ele>
  <time>2026-09-01T19:59:33Z</time>
  <course>192.33</course>
  <speed>0.01</speed>
  <fix>3d</fix>
</trkpt>
<trkpt lat="-27.2721926" lon="151.2900637">
  <ele>344.84</ele>
  <time>2026-09-01T19:59:33Z</time>
  <course>10.32</course>
  <speed>0.03</speed>
  <fix>3d</fix>
</trkpt>
<trkpt lat="-27.2721924" lon="151.2900637">
  <ele>345.08</ele>
  <time>2026-09-01T19:59:33Z</time>
  <course>192.33</course>
  <speed>0.01</speed>
  <fix>3d</fix>
</trkpt>
<trkpt lat="-27.2721926" lon="151.2900637">
  <ele>344.79</ele>
  <time>2026-09-01T19:59:33Z</time>
  <course>10.33</course>
  <speed>0.03</speed>
  <fix>3d</fix>
</trkpt>
<trkpt lat="-27.2721924" lon="151.2900637">
  <ele>344.97</ele>
  <time>2026-09-01T19:59:33Z</time>
  <course>192.23</course>
  <speed>0.01</speed>
  <fix>3d</fix>
</trkpt>
<trkpt lat="-27.2721926" lon="151.2900637">
  <ele>344.73</ele>
  <time>2026-09-01T19:59:33Z</time>
  <course>10.32</course>
  <speed>0.0316227766016838</speed>
  <fix>3d</fix>
</trkpt>
<trkpt lat="-27.2721924" lon="151.2900637">
  <ele>344.97</ele>
  <time>2026-09-01T19:59:33Z</time>
  <course>192.23</course>
  <speed>0.01</speed>
  <fix>3d</fix>
</trkpt>
<trkpt lat="-27.2721926" lon="151.2900637">
  <ele>344.68</ele>
  <time>2026-09-01T19:59:33Z</time>
  <course>10.32</course>
  <speed>0.0316227766016838</speed>
  <fix>3d</fix>
</trkpt>
<trkpt lat="-27.2721925" lon="151.2900637">
  <ele>344.88</ele>
  <time>2026-09-01T19:59:33Z</time>
  <course>191.75</course>
  <speed>0.01</speed>
  <fix>3d</fix>
</trkpt>
<trkpt lat="-27.2721926" lon="151.2900637">
  <ele>344.63</ele>
  <time>2026-09-01T19:59:33Z</time>
  <course>10.32</course>
  <speed>0.0316227766016838</speed>
  <fix>3d</fix>
</trkpt>
<trkpt lat="-27.2721925" lon="151.2900637">
  <ele>344.88</ele>
  <time>2026-09-01T19:59:33Z</time>
  <course>191.75</course>
  <speed>0.01</speed>
  <fix>3d</fix>
</trkpt>
<trkpt lat="-27.2721926" lon="151.2900637">
  <ele>344.58</ele>
  <time>2026-09-01T19:59:33Z</time>
  <course>10.32</course>
  <speed>0.022360679774997897</speed>
  <fix>3d</fix>
</trkpt>
<trkpt lat="-27.2721925" lon="151.2900637">
  <ele>344.78</ele>
  <time>2026-09-01T19:59:33Z</time>
  <course>192.47</course>
  <speed>0.01</speed>
  <fix>3d</fix>
</trkpt>
<trkpt lat="-27.2721926" lon="151.2900637">
  <ele>344.53</ele>
  <time>2026-09-01T19:59:33Z</time>
  <course>10.33</course>
  <speed>0.022360679774997897</speed>
  <fix>3d</fix>
</trkpt>
<trkpt lat="-27.2721925" lon="151.2900637">
  <ele>344.78</ele>
  <time>2026-09-01T19:59:33Z</time>
  <course>192.47</course>
  <speed>0.01</speed>
  <fix>3d</fix>
</trkpt>
<trkpt lat="-27.2721927" lon="151.2900637">
  <ele>344.48</ele>
  <time>2026-09-01T19:59:33Z</time>
  <course>10.33</course>
  <speed>0.022360679774997897</speed>
  <fix>3d</fix>
</trkpt>
<trkpt lat="-27.2721925" lon="151.2900637">
  <ele>344.68</ele>
  <time>2026-09-01T19:59:33Z</time>
  <course>193.78</course>
  <speed>0.01</speed>
  <fix>3d</fix>
</trkpt>
<trkpt lat="-27.2721927" lon="151.2900637">
  <ele>344.44</ele>
  <time>2026-09-01T19:59:33Z</time>
  <course>10.33</course>
  <speed>0.022360679774997897</speed>
  <fix>3d</fix>
</trkpt>
<trkpt lat="-27.2721925" lon="151.2900637">
  <ele>344.68</ele>
  <time>2026-09-01T19:59:33Z</time>
  <course>193.78</course>
  <speed>0.01</speed>
  <fix>3d</fix>
</trkpt>
<trkpt lat="-27.2721927" lon="151.2900637">
  <ele>344.39</ele>
  <time>2026-09-01T19:59:33Z</time>
  <course>10.31</course>
  <speed>0.022360679774997897</speed>
  <fix>3d</fix>
</trkpt>
<trkpt lat="-27.2721925" lon="151.2900637">
  <ele>344.58</ele>
  <time>2026-09-01T19:59:33Z</time>
  <course>193.57</course>
  <speed>0.0</speed>
  <fix>3d</fix>
</trkpt>
<trkpt lat="-27.2721927" lon="151.2900637">
  <ele>344.34</ele>
  <time>2026-09-01T19:59:33Z</time>
  <course>10.28</course>
  <speed>0.022360679774997897</speed>
  <fix>3d</fix>
</trkpt>
<trkpt lat="-27.2721925" lon="151.2900637">
  <ele>344.58</ele>
  <time>2026-09-01T19:59:33Z</time>
  <course>193.57</course>
  <speed>0.0</speed>
  <fix>3d</fix>
</trkpt>
<trkpt lat="-27.2721927" lon="151.2900637">
  <ele>344.29</ele>
  <time>2026-09-01T19:59:33Z</time>
  <course>10.25</course>
  <speed>0.022360679774997897</speed>
  <fix>3d</fix>
</trkpt>
<trkpt lat="-27.2721926" lon="151.2900637">
  <ele>344.47</ele>
  <time>2026-09-01T19:59:33Z</time>
  <course>192.34</course>
  <speed>0.0</speed>
  <fix>3d</fix>
</trkpt>
<trkpt lat="-27.2721927" lon="151.2900637">
  <ele>344.24</ele>
  <time>2026-09-01T19:59:33Z</time>
  <course>10.22</course>
  <speed>0.022360679774997897</speed>
  <fix>3d</fix>
</trkpt>
<trkpt lat="-27.2721926" lon="151.2900637">
  <ele>344.47</ele>
  <time>2026-09-01T19:59:33Z</time>
  <course>192.34</course>
  <speed>0.0</speed>
  <fix>3d</fix>
</trkpt>
<trkpt lat="-27.2721927" lon="151.2900637">
  <ele>344.19</ele>
  <time>2026-09-01T19:59:33Z</time>
  <course>10.19</course>
  <speed>0.022360679774997897</speed>
  <fix>3d</fix>
</trkpt>
<trkpt lat="-27.2721926" lon="151.2900637">
  <ele>344.38</ele>
  <time>2026-09-01T19:59:33Z</time>
  <course>191.88</course>
  <speed>0.0</speed>
  <fix>3d</fix>
</trkpt>
<trkpt lat="-27.2721927" lon="151.2900637">
  <ele>344.14</ele>
  <time>2026-09-01T19:59:33Z</time>
  <course>10.17</course>
  <speed>0.022360679774997897</speed>
  <fix>3d</fix>
</trkpt>
<trkpt lat="-27.2721926" lon="151.2900637">
  <ele>344.38</ele>
  <time>2026-09-01T19:59:33Z</time>
  <course>191.88</course>
  <speed>0.0</speed>
  <fix>3d</fix>
</trkpt>
<trkpt lat="-27.2721927" lon="151.2900637">
  <ele>344.09</ele>
  <time>2026-09-01T19:59:33Z</time>
  <course>10.15</course>
  <speed>0.022360679774997897</speed>
  <fix>3d</fix>
</trkpt>
<trkpt lat="-27.2721926" lon="151.2900637">
  <ele>344.28</ele>
  <time>2026-09-01T19:59:33Z</time>
  <course>192.01</course>
  <speed>0.0</speed>
  <fix>3d</fix>
</trkpt>
<trkpt lat="-27.2721927" lon="151.2900637">
  <ele>344.04</ele>
  <time>2026-09-01T19:59:33Z</time>
  <course>10.14</course>
  <speed>0.022360679774997897</speed>
  <fix>3d</fix>
</trkpt>
<trkpt lat="-27.2721926" lon="151.2900637">
  <ele>344.28</ele>
  <time>2026-09-01T19:59:33Z</time>
  <course>192.01</course>
  <speed>0.0</speed>
  <fix>3d</fix>
</trkpt>
<trkpt lat="-27.2721927" lon="151.2900637">
  <ele>343.99</ele>
  <time>2026-09-01T19:59:33Z</time>
  <course>10.14</course>
  <speed>0.022360679774997897</speed>
  <fix>3d</fix>
</trkpt>
<trkpt lat="-27.2721926" lon="151.2900637">
  <ele>344.18</ele>
  <time>2026-09-01T19:59:33Z</time>
  <course>192.21</course>
  <speed>0.0</speed>
  <fix>3d</fix>
</trkpt>
<trkpt lat="-27.2721927" lon="151.2900637">
  <ele>343.94</ele>
  <time>2026-09-01T19:59:33Z</time>
  <course>10.14</course>
  <speed>0.022360679774997897</speed>
  <fix>3d</fix>
</trkpt>
<trkpt lat="-27.2721926" lon="151.2900637">
  <ele>344.18</ele>
  <time>2026-09-01T19:59:33Z</time>
  <course>192.21</course>
  <speed>0.0</speed>
  <fix>3d</fix>
</trkpt>
<trkpt lat="-27.2721927" lon="151.2900637">
  <ele>343.89</ele>
  <time>2026-09-01T19:59:33Z</time>
  <course>10.15</course>
  <speed>0.022360679774997897</speed>
  <fix>3d</fix>
</trkpt>
<trkpt lat="-27.2721926" lon="151.2900637">
  <ele>344.08</ele>
  <time>2026-09-01T19:59:33Z</time>
  <course>192.01</course>
  <speed>0.0</speed>
  <fix>3d</fix>
</trkpt>
<trkpt lat="-27.2721927" lon="151.2900638">
  <ele>343.84</ele>
  <time>2026-09-01T19:59:33Z</time>
  <course>10.16</course>
  <speed>0.022360679774997897</speed>
  <fix>3d</fix>
</trkpt>
<trkpt lat="-27.2721926" lon="151.2900637">
  <ele>344.08</ele>
  <time>2026-09-01T19:59:33Z</time>
  <course>192.01</course>
  <speed>0.0</speed>
  <fix>3d</fix>
</trkpt>
<trkpt lat="-27.2721927" lon="151.2900638">
  <ele>343.79</ele>
  <time>2026-09-01T19:59:33Z</time>
  <course>10.17</course>
  <speed>0.022360679774997897</speed>
  <fix>3d</fix>
</trkpt>
<trkpt lat="-27.2721926" lon="151.2900637">
  <ele>343.97</ele>
  <time>2026-09-01T19:59:33Z</time>
  <course>193.36</course>
  <speed>0.0</speed>
  <fix>3d</fix>
</trkpt>
<trkpt lat="-27.2721927" lon="151.2900638">
  <ele>343.74</ele>
  <time>2026-09-01T19:59:33Z</time>
  <course>10.18</course>
  <speed>0.022360679774997897</speed>
  <fix>3d</fix>
</trkpt>
<trkpt lat="-27.2721926" lon="151.2900637">
  <ele>343.97</ele>
  <time>2026-09-01T19:59:33Z</time>
  <course>193.36</course>
  <speed>0.0</speed>
  <fix>3d</fix>
</trkpt>
<trkpt lat="-27.2721927" lon="151.2900638">
  <ele>343.69</ele>
  <time>2026-09-01T19:59:33Z</time>
  <course>10.19</course>
  <speed>0.022360679774997897</speed>
  <fix>3d</fix>
</trkpt>
<trkpt lat="-27.2721926" lon="151.2900637">
  <ele>343.88</ele>
  <time>2026-09-01T19:59:33Z</time>
  <course>202.49</course>
  <speed>0.0</speed>
  <fix>3d</fix>
</trkpt>
<trkpt lat="-27.2721927" lon="151.2900638">
  <ele>343.64</ele>
  <time>2026-09-01T19:59:33Z</time>
  <course>10.19</course>
  <speed>0.022360679774997897</speed>
  <fix>3d</fix>
</trkpt>
<trkpt lat="-27.2721926" lon="151.2900637">
  <ele>343.88</ele>
  <time>2026-09-01T19:59:33Z</time>
  <course>202.49</course>
  <speed>0.0</speed>
  <fix>3d</fix>
</trkpt>
<trkpt lat="-27.2721927" lon="151.2900638">
  <ele>343.59</ele>
  <time>2026-09-01T19:59:33Z</time>
  <course>10.18</course>
  <speed>0.022360679774997897</speed>
  <fix>3d</fix>
</trkpt>
<trkpt lat="-27.2721926" lon="151.2900637">
  <ele>343.78</ele>
  <time>2026-09-01T19:59:33Z</time>
  <course>300.01</course>
  <speed>0.0</speed>
  <fix>3d</fix>
</trkpt>
<trkpt lat="-27.2721927" lon="151.2900638">
  <ele>343.54</ele>
  <time>2026-09-01T19:59:33Z</time>
  <course>10.16</course>
  <speed>0.022360679774997897</speed>
  <fix>3d</fix>
</trkpt>
<trkpt lat="-27.2721926" lon="151.2900637">
  <ele>343.78</ele>
  <time>2026-09-01T19:59:33Z</time>
  <course>300.01</course>
  <speed>0.0</speed>
  <fix>3d</fix>
</trkpt>
<trkpt lat="-27.2721927" lon="151.2900638">
  <ele>343.49</ele>
  <time>2026-09-01T19:59:33Z</time>
  <course>10.15</course>
  <speed>0.022360679774997897</speed>
  <fix>3d</fix>
</trkpt>
<trkpt lat="-27.2721926" lon="151.2900637">
  <ele>343.68</ele>
  <time>2026-09-01T19:59:33Z</time>
  <course>11.4</course>
  <speed>0.0</speed>
  <fix>3d</fix>
</trkpt>
<trkpt lat="-27.2721927" lon="151.2900638">
  <ele>343.44</ele>
  <time>2026-09-01T19:59:33Z</time>
  <course>10.13</course>
  <speed>0.01414213562373095</speed>
  <fix>3d</fix>
</trkpt>
<trkpt lat="-27.2721926" lon="151.2900637">
  <ele>343.68</ele>
  <time>2026-09-01T19:59:33Z</time>
  <course>11.4</course>
  <speed>0.0</speed>
  <fix>3d</fix>
</trkpt>
<trkpt lat="-27.2721927" lon="151.2900638">
  <ele>343.39</ele>
  <time>2026-09-01T19:59:33Z</time>
  <course>10.12</course>
  <speed>0.01414213562373095</speed>
  <fix>3d</fix>
</trkpt>
<trkpt lat="-27.2721926" lon="151.2900637">
  <ele>343.58</ele>
  <time>2026-09-01T19:59:33Z</time>
  <course>19.43</course>
  <speed>0.0</speed>
  <fix>3d</fix>
</trkpt>
<trkpt lat="-27.2721927" lon="151.2900638">
  <ele>343.34</ele>
  <time>2026-09-01T19:59:33Z</time>
  <course>10.11</course>
  <speed>0.01414213562373095</speed>
  <fix>3d</fix>
</trkpt>
<trkpt lat="-27.2721926" lon="151.2900637">
  <ele>343.58</ele>
  <time>2026-09-01T19:59:33Z</time>
  <course>19.43</course>
  <speed>0.0</speed>
  <fix>3d</fix>
</trkpt>
<trkpt lat="-27.2721927" lon="151.2900638">
  <ele>343.29</ele>
  <time>2026-09-01T19:59:33Z</time>
  <course>10.1</course>
  <speed>0.01414213562373095</speed>
  <fix>3d</fix>
</trkpt>
<trkpt lat="-27.2721926" lon="151.2900637">
  <ele>343.47</ele>
  <time>2026-09-01T19:59:33Z</time>
  <course>21.09</course>
  <speed>0.0</speed>
  <fix>3d</fix>
</trkpt>
<trkpt lat="-27.2721927" lon="151.2900638">
  <ele>343.24</ele>
  <time>2026-09-01T19:59:33Z</time>
  <course>10.09</course>
  <speed>0.01414213562373095</speed>
  <fix>3d</fix>
</trkpt>
<trkpt lat="-27.2721926" lon="151.2900637">
  <ele>343.47</ele>
  <time>2026-09-01T19:59:33Z</time>
  <course>21.09</course>
  <speed>0.0</speed>
  <fix>3d</fix>
</trkpt>
<trkpt lat="-27.2721927" lon="151.2900638">
  <ele>343.19</ele>
  <time>2026-09-01T19:59:33Z</time>
  <course>10.08</course>
  <speed>0.01414213562373095</speed>
  <fix>3d</fix>
</trkpt>
<trkpt lat="-27.2721926" lon="151.2900637">
  <ele>343.38</ele>
  <time>2026-09-01T19:59:33Z</time>
  <course>17.9</course>
  <speed>0.0</speed>
  <fix>3d</fix>
</trkpt>
<trkpt lat="-27.2721927" lon="151.2900638">
  <ele>343.14</ele>
  <time>2026-09-01T19:59:33Z</time>
  <course>10.07</course>
  <speed>0.01414213562373095</speed>
  <fix>3d</fix>
</trkpt>
<trkpt lat="-27.2721926" lon="151.2900637">
  <ele>343.38</ele>
  <time>2026-09-01T19:59:33Z</time>
  <course>17.9</course>
  <speed>0.0</speed>
  <fix>3d</fix>
</trkpt>
<trkpt lat="-27.2721927" lon="151.2900638">
  <ele>343.08</ele>
  <time>2026-09-01T19:59:33Z</time>
  <course>10.07</course>
  <speed>0.01414213562373095</speed>
  <fix>3d</fix>
</trkpt>
<trkpt lat="-27.2721926" lon="151.2900637">
  <ele>343.28</ele>
  <time>2026-09-01T19:59:33Z</time>
  <course>12.75</course>
  <speed>0.0</speed>
  <fix>3d</fix>
</trkpt>
<trkpt lat="-27.2721927" lon="151.2900638">
  <ele>343.03</ele>
  <time>2026-09-01T19:59:33Z</time>
  <course>10.06</course>
  <speed>0.01414213562373095</speed>
  <fix>3d</fix>
</trkpt>
<trkpt lat="-27.2721926" lon="151.2900637">
  <ele>343.28</ele>
  <time>2026-09-01T19:59:33Z</time>
  <course>12.75</course>
  <speed>0.0</speed>
  <fix>3d</fix>
</trkpt>
<trkpt lat="-27.2721927" lon="151.2900638">
  <ele>342.98</ele>
  <time>2026-09-01T19:59:33Z</time>
  <course>10.06</course>
  <speed>0.01414213562373095</speed>
  <fix>3d</fix>
</trkpt>
<trkpt lat="-27.2721926" lon="151.2900637">
  <ele>343.18</ele>
  <time>2026-09-01T19:59:33Z</time>
  <course>8.54</course>
  <speed>0.0</speed>
  <fix>3d</fix>
</trkpt>
<trkpt lat="-27.2721927" lon="151.2900638">
  <ele>342.95</ele>
  <time>2026-09-01T19:59:33Z</time>
  <course>10.06</course>
  <speed>0.022360679774997897</speed>
  <fix>3d</fix>
</trkpt>
<trkpt lat="-27.2721926" lon="151.2900637">
  <ele>343.18</ele>
  <time>2026-09-01T19:59:33Z</time>
  <course>8.54</course>
  <speed>0.0</speed>
  <fix>3d</fix>
</trkpt>
<trkpt lat="-27.2721927" lon="151.2900638">
  <ele>342.96</ele>
  <time>2026-09-01T19:59:33Z</time>
  <course>10.06</course>
  <speed>0.022360679774997897</speed>
  <fix>3d</fix>
</trkpt>
<trkpt lat="-27.2721926" lon="151.2900637">
  <ele>343.09</ele>
  <time>2026-09-01T19:59:33Z</time>
  <course>6.7</course>
  <speed>0.0</speed>
  <fix>3d</fix>
</trkpt>
<trkpt lat="-27.2721927" lon="151.2900638">
  <ele>342.98</ele>
  <time>2026-09-01T19:59:33Z</time>
  <course>10.06</course>
  <speed>0.022360679774997897</speed>
  <fix>3d</fix>
</trkpt>
<trkpt lat="-27.2721926" lon="151.2900637">
  <ele>343.09</ele>
  <time>2026-09-01T19:59:33Z</time>
  <course>6.7</course>
  <speed>0.0</speed>
  <fix>3d</fix>
</trkpt>
<trkpt lat="-27.2721927" lon="151.2900638">
  <ele>342.99</ele>
  <time>2026-09-01T19:59:33Z</time>
  <course>10.06</course>
  <speed>0.022360679774997897</speed>
  <fix>3d</fix>
</trkpt>
<trkpt lat="-27.2721926" lon="151.2900637">
  <ele>343.06</ele>
  <time>2026-09-01T19:59:33Z</time>
  <course>185.68</course>
  <speed>0.0</speed>
  <fix>3d</fix>
</trkpt>
<trkpt lat="-27.2721927" lon="151.2900638">
  <ele>342.99</ele>
  <time>2026-09-01T19:59:33Z</time>
  <course>10.06</course>
  <speed>0.022360679774997897</speed>
  <fix>3d</fix>
</trkpt>
<trkpt lat="-27.2721926" lon="151.2900637">
  <ele>343.06</ele>
  <time>2026-09-01T19:59:33Z</time>
  <course>185.68</course>
  <speed>0.0</speed>
  <fix>3d</fix>
</trkpt>
<trkpt lat="-27.2721927" lon="151.2900638">
  <ele>342.99</ele>
  <time>2026-09-01T19:59:33Z</time>
  <course>10.06</course>
  <speed>0.022360679774997897</speed>
  <fix>3d</fix>
</trkpt>
<trkpt lat="-27.2721926" lon="151.2900637">
  <ele>343.07</ele>
  <time>2026-09-01T19:59:33Z</time>
  <course>185.72</course>
  <speed>0.0</speed>
  <fix>3d</fix>
</trkpt>
<trkpt lat="-27.2721927" lon="151.2900638">
  <ele>342.99</ele>
  <time>2026-09-01T19:59:33Z</time>
  <course>10.06</course>
  <speed>0.022360679774997897</speed>
  <fix>3d</fix>
</trkpt>
<trkpt lat="-27.2721926" lon="151.2900637">
  <ele>343.07</ele>
  <time>2026-09-01T19:59:33Z</time>
  <course>185.72</course>
  <speed>0.0</speed>
  <fix>3d</fix>
</trkpt>
<trkpt lat="-27.2721927" lon="151.2900638">
  <ele>342.99</ele>
  <time>2026-09-01T19:59:33Z</time>
  <course>10.06</course>
  <speed>0.022360679774997897</speed>
  <fix>3d</fix>
</trkpt>
<trkpt lat="-27.2721926" lon="151.2900637">
  <ele>343.08</ele>
  <time>2026-09-01T19:59:33Z</time>
  <course>5.71</course>
  <speed>0.0</speed>
  <fix>3d</fix>
</trkpt>
<trkpt lat="-27.2721927" lon="151.2900638">
  <ele>342.99</ele>
  <time>2026-09-01T19:59:33Z</time>
  <course>10.06</course>
  <speed>0.022360679774997897</speed>
  <fix>3d</fix>
</trkpt>
<trkpt lat="-27.2721926" lon="151.2900637">
  <ele>343.08</ele>
  <time>2026-09-01T19:59:33Z</time>
  <course>5.71</course>
  <speed>0.0</speed>
  <fix>3d</fix>
</trkpt>
<trkpt lat="-27.2721927" lon="151.2900638">
  <ele>342.99</ele>
  <time>2026-09-01T19:59:33Z</time>
  <course>10.06</course>
  <speed>0.022360679774997897</speed>
  <fix>3d</fix>
</trkpt>
<trkpt lat="-27.2721926" lon="151.2900637">
  <ele>343.08</ele>
  <time>2026-09-01T19:59:33Z</time>
  <course>5.73</course>
  <speed>0.0</speed>
  <fix>3d</fix>
</trkpt>
<trkpt lat="-27.2721927" lon="151.2900638">
  <ele>342.99</ele>
  <time>2026-09-01T19:59:33Z</time>
  <course>10.06</course>
  <speed>0.022360679774997897</speed>
  <fix>3d</fix>
</trkpt>
<trkpt lat="-27.2721926" lon="151.2900637">
  <ele>343.08</ele>
  <time>2026-09-01T19:59:33Z</time>
  <course>5.73</course>
  <speed>0.0</speed>
  <fix>3d</fix>
</trkpt>
<trkpt lat="-27.2721927" lon="151.2900638">
  <ele>342.99</ele>
  <time>2026-09-01T19:59:33Z</time>
  <course>10.06</course>
  <speed>0.022360679774997897</speed>
  <fix>3d</fix>
</trkpt>
<trkpt lat="-27.2721926" lon="151.2900637">
  <ele>343.08</ele>
  <time>2026-09-01T19:59:33Z</time>
  <course>185.67</course>
  <speed>0.0</speed>
  <fix>3d</fix>
</trkpt>
<trkpt lat="-27.2721927" lon="151.2900638">
  <ele>342.99</ele>
  <time>2026-09-01T19:59:33Z</time>
  <course>10.06</course>
  <speed>0.022360679774997897</speed>
  <fix>3d</fix>
</trkpt>
<trkpt lat="-27.2721926" lon="151.2900637">
  <ele>343.08</ele>
  <time>2026-09-01T19:59:33Z</time>
  <course>185.67</course>
  <speed>0.0</speed>
  <fix>3d</fix>
</trkpt>
<trkpt lat="-27.2721927" lon="151.2900638">
  <ele>342.99</ele>
  <time>2026-09-01T19:59:33Z</time>
  <course>10.06</course>
  <speed>0.022360679774997897</speed>
  <fix>3d</fix>
</trkpt>
<trkpt lat="-27.2721926" lon="151.2900637">
  <ele>343.08</ele>
  <time>2026-09-01T19:59:33Z</time>
  <course>185.68</course>
  <speed>0.0</speed>
  <fix>3d</fix>
</trkpt>
<trkpt lat="-27.2721927" lon="151.2900638">
  <ele>342.99</ele>
  <time>2026-09-01T19:59:33Z</time>
  <course>10.06</course>
  <speed>0.022360679774997897</speed>
  <fix>3d</fix>
</trkpt>
<trkpt lat="-27.2721926" lon="151.2900637">
  <ele>343.08</ele>
  <time>2026-09-01T19:59:33Z</time>
  <course>185.68</course>
  <speed>0.0</speed>
  <fix>3d</fix>
</trkpt>
<trkpt lat="-27.2721927" lon="151.2900638">
  <ele>342.99</ele>
  <time>2026-09-01T19:59:33Z</time>
  <course>10.06</course>
  <speed>0.022360679774997897</speed>
  <fix>3d</fix>
</trkpt>
<trkpt lat="-27.2721926" lon="151.2900637">
  <ele>343.08</ele>
  <time>2026-09-01T19:59:33Z</time>
  <course>5.76</course>
  <speed>0.0</speed>
  <fix>3d</fix>
</trkpt>
<trkpt lat="-27.2721928" lon="151.2900638">
  <ele>342.99</ele>
  <time>2026-09-01T19:59:33Z</time>
  <course>10.06</course>
  <speed>0.022360679774997897</speed>
  <fix>3d</fix>
</trkpt>
<trkpt lat="-27.2721926" lon="151.2900637">
  <ele>343.08</ele>
  <time>2026-09-01T19:59:33Z</time>
  <course>5.76</course>
  <speed>0.0</speed>
  <fix>3d</fix>
</trkpt>
<trkpt lat="-27.2721927" lon="151.2900638">
  <ele>342.99</ele>
  <time>2026-09-01T19:59:33Z</time>
  <course>10.06</course>
  <speed>0.022360679774997897</speed>
  <fix>3d</fix>
</trkpt>
<trkpt lat="-27.2721926" lon="151.2900637">
  <ele>343.08</ele>
  <time>2026-09-01T19:59:33Z</time>
  <course>7.06</course>
  <speed>0.0</speed>
  <fix>3d</fix>
</trkpt>
<trkpt lat="-27.2721928" lon="151.2900638">
  <ele>342.99</ele>
  <time>2026-09-01T19:59:33Z</time>
  <course>10.06</course>
  <speed>0.022360679774997897</speed>
  <fix>3d</fix>
</trkpt>
<trkpt lat="-27.2721926" lon="151.2900637">
  <ele>343.08</ele>
  <time>2026-09-01T19:59:33Z</time>
  <course>7.06</course>
  <speed>0.0</speed>
  <fix>3d</fix>
</trkpt>
<trkpt lat="-27.2721928" lon="151.2900638">
  <ele>342.99</ele>
  <time>2026-09-01T19:59:33Z</time>
  <course>10.06</course>
  <speed>0.022360679774997897</speed>
  <fix>3d</fix>
</trkpt>
<trkpt lat="-27.2721926" lon="151.2900637">
  <ele>343.08</ele>
  <time>2026-09-01T19:59:33Z</time>
  <course>184.11</course>
  <speed>0.0</speed>
  <fix>3d</fix>
</trkpt>
<trkpt lat="-27.2721928" lon="151.2900638">
  <ele>342.99</ele>
  <time>2026-09-01T19:59:33Z</time>
  <course>10.06</course>
  <speed>0.022360679774997897</speed>
  <fix>3d</fix>
</trkpt>
<trkpt lat="-27.2721926" lon="151.2900637">
  <ele>343.08</ele>
  <time>2026-09-01T19:59:33Z</time>
  <course>184.11</course>
  <speed>0.0</speed>
  <fix>3d</fix>
</trkpt>
<trkpt lat="-27.2721928" lon="151.2900638">
  <ele>342.99</ele>
  <time>2026-09-01T19:59:33Z</time>
  <course>10.06</course>
  <speed>0.022360679774997897</speed>
  <fix>3d</fix>
</trkpt>
<trkpt lat="-27.2721926" lon="151.2900637">
  <ele>343.08</ele>
  <time>2026-09-01T19:59:33Z</time>
  <course>150.83</course>
  <speed>0.0</speed>
  <fix>3d</fix>
</trkpt>
<trkpt lat="-27.2721928" lon="151.2900638">
  <ele>342.99</ele>
  <time>2026-09-01T19:59:33Z</time>
  <course>10.06</course>
  <speed>0.022360679774997897</speed>
  <fix>3d</fix>
</trkpt>
<trkpt lat="-27.2721926" lon="151.2900637">
  <ele>343.08</ele>
  <time>2026-09-01T19:59:33Z</time>
  <course>150.83</course>
  <speed>0.0</speed>
  <fix>3d</fix>
</trkpt>
<trkpt lat="-27.2721928" lon="151.2900638">
  <ele>342.99</ele>
  <time>2026-09-01T19:59:33Z</time>
  <course>10.06</course>
  <speed>0.022360679774997897</speed>
  <fix>3d</fix>
</trkpt>
<trkpt lat="-27.2721926" lon="151.2900637">
  <ele>343.08</ele>
  <time>2026-09-01T19:59:33Z</time>
  <course>31.09</course>
  <speed>0.0</speed>
  <fix>3d</fix>
</trkpt>
<trkpt lat="-27.2721928" lon="151.2900638">
  <ele>342.99</ele>
  <time>2026-09-01T19:59:33Z</time>
  <course>10.06</course>
  <speed>0.022360679774997897</speed>
  <fix>3d</fix>
</trkpt>
<trkpt lat="-27.2721926" lon="151.2900637">
  <ele>343.08</ele>
  <time>2026-09-01T19:59:33Z</time>
  <course>31.09</course>
  <speed>0.0</speed>
  <fix>3d</fix>
</trkpt>
<trkpt lat="-27.2721928" lon="151.2900638">
  <ele>342.99</ele>
  <time>2026-09-01T19:59:33Z</time>
  <course>10.06</course>
  <speed>0.022360679774997897</speed>
  <fix>3d</fix>
</trkpt>
<trkpt lat="-27.2721926" lon="151.2900637">
  <ele>343.08</ele>
  <time>2026-09-01T19:59:33Z</time>
  <course>165.4</course>
  <speed>0.0</speed>
  <fix>3d</fix>
</trkpt>
<trkpt lat="-27.2721928" lon="151.2900638">
  <ele>342.99</ele>
  <time>2026-09-01T19:59:33Z</time>
  <course>10.06</course>
  <speed>0.022360679774997897</speed>
  <fix>3d</fix>
</trkpt>
<trkpt lat="-27.2721926" lon="151.2900637">
  <ele>343.08</ele>
  <time>2026-09-01T19:59:33Z</time>
  <course>165.4</course>
  <speed>0.0</speed>
  <fix>3d</fix>
</trkpt>
<trkpt lat="-27.2721928" lon="151.2900638">
  <ele>342.99</ele>
  <time>2026-09-01T19:59:33Z</time>
  <course>10.06</course>
  <speed>0.022360679774997897</speed>
  <fix>3d</fix>
</trkpt>
<trkpt lat="-27.2721926" lon="151.2900637">
  <ele>343.08</ele>
  <time>2026-09-01T19:59:33Z</time>
  <course>153.7</course>
  <speed>0.0</speed>
  <fix>3d</fix>
</trkpt>
<trkpt lat="-27.2721928" lon="151.2900638">
  <ele>342.99</ele>
  <time>2026-09-01T19:59:33Z</time>
  <course>10.06</course>
  <speed>0.022360679774997897</speed>
  <fix>3d</fix>
</trkpt>
<trkpt lat="-27.2721926" lon="151.2900637">
  <ele>343.08</ele>
  <time>2026-09-01T19:59:33Z</time>
  <course>153.7</course>
  <speed>0.0</speed>
  <fix>3d</fix>
</trkpt>
<trkpt lat="-27.2721928" lon="151.2900638">
  <ele>342.99</ele>
  <time>2026-09-01T19:59:33Z</time>
  <course>10.06</course>
  <speed>0.022360679774997897</speed>
  <fix>3d</fix>
</trkpt>
<trkpt lat="-27.2721926" lon="151.2900637">
  <ele>343.08</ele>
  <time>2026-09-01T19:59:33Z</time>
  <course>149.98</course>
  <speed>0.0</speed>
  <fix>3d</fix>
</trkpt>
<trkpt lat="-27.2721928" lon="151.2900638">
  <ele>342.99</ele>
  <time>2026-09-01T19:59:33Z</time>
  <course>10.06</course>
  <speed>0.022360679774997897</speed>
  <fix>3d</fix>
</trkpt>
<trkpt lat="-27.2721926" lon="151.2900637">
  <ele>343.08</ele>
  <time>2026-09-01T19:59:33Z</time>
  <course>149.98</course>
  <speed>0.0</speed>
  <fix>3d</fix>
</trkpt>
<trkpt lat="-27.2721928" lon="151.2900638">
  <ele>342.99</ele>
  <time>2026-09-01T19:59:33Z</time>
  <course>10.06</course>
  <speed>0.022360679774997897</speed>
  <fix>3d</fix>
</trkpt>
<trkpt lat="-27.2721926" lon="151.2900637">
  <ele>343.08</ele>
  <time>2026-09-01T19:59:33Z</time>
  <course>153.83</course>
  <speed>0.0</speed>
  <fix>3d</fix>
</trkpt>
<trkpt lat="-27.2721928" lon="151.2900638">
  <ele>343.0</ele>
  <time>2026-09-01T19:59:33Z</time>
  <course>10.06</course>
  <speed>0.022360679774997897</speed>
  <fix>3d</fix>
</trkpt>
<trkpt lat="-27.2721926" lon="151.2900637">
  <ele>343.08</ele>
  <time>2026-09-01T19:59:33Z</time>
  <course>153.83</course>
  <speed>0.0</speed>
  <fix>3d</fix>
</trkpt>
<trkpt lat="-27.2721928" lon="151.2900638">
  <ele>343.0</ele>
  <time>2026-09-01T19:59:33Z</time>
  <course>10.06</course>
  <speed>0.022360679774997897</speed>
  <fix>3d</fix>
</trkpt>
<trkpt lat="-27.2721926" lon="151.2900637">
  <ele>343.08</ele>
  <time>2026-09-01T19:59:33Z</time>
  <course>156.77</course>
  <speed>0.0</speed>
  <fix>3d</fix>
</trkpt>
<trkpt lat="-27.2721928" lon="151.2900638">
  <ele>343.0</ele>
  <time>2026-09-01T19:59:33Z</time>
  <course>10.06</course>
  <speed>0.022360679774997897</speed>
  <fix>3d</fix>
</trkpt>
<trkpt lat="-27.2721926" lon="151.2900637">
  <ele>343.08</ele>
  <time>2026-09-01T19:59:33Z</time>
  <course>156.77</course>
  <speed>0.0</speed>
  <fix>3d</fix>
</trkpt>
<trkpt lat="-27.2721928" lon="151.2900638">
  <ele>343.0</ele>
  <time>2026-09-01T19:59:33Z</time>
  <course>10.06</course>
  <speed>0.022360679774997897</speed>
  <fix>3d</fix>
</trkpt>
<trkpt lat="-27.2721926" lon="151.2900637">
  <ele>343.08</ele>
  <time>2026-09-01T19:59:33Z</time>
  <course>332.04</course>
  <speed>0.0</speed>
  <fix>3d</fix>
</trkpt>
<trkpt lat="-27.2721928" lon="151.2900638">
  <ele>343.0</ele>
  <time>2026-09-01T19:59:33Z</time>
  <course>10.06</course>
  <speed>0.022360679774997897</speed>
  <fix>3d</fix>
</trkpt>
<trkpt lat="-27.2721926" lon="151.2900637">
  <ele>343.08</ele>
  <time>2026-09-01T19:59:33Z</time>
  <course>332.04</course>
  <speed>0.0</speed>
  <fix>3d</fix>
</trkpt>
<trkpt lat="-27.2721928" lon="151.2900638">
  <ele>343.0</ele>
  <time>2026-09-01T19:59:33Z</time>
  <course>10.06</course>
  <speed>0.022360679774997897</speed>
  <fix>3d</fix>
</trkpt>
<trkpt lat="-27.2721926" lon="151.2900637">
  <ele>343.08</ele>
  <time>2026-09-01T19:59:33Z</time>
  <course>333.39</course>
  <speed>0.0</speed>
  <fix>3d</fix>
</trkpt>
<trkpt lat="-27.2721928" lon="151.2900638">
  <ele>343.0</ele>
  <time>2026-09-01T19:59:33Z</time>
  <course>10.06</course>
  <speed>0.022360679774997897</speed>
  <fix>3d</fix>
</trkpt>
<trkpt lat="-27.2721926" lon="151.2900637">
  <ele>343.08</ele>
  <time>2026-09-01T19:59:33Z</time>
  <course>333.39</course>
  <speed>0.0</speed>
  <fix>3d</fix>
</trkpt>
<trkpt lat="-27.2721928" lon="151.2900638">
  <ele>343.0</ele>
  <time>2026-09-01T19:59:33Z</time>
  <course>10.06</course>
  <speed>0.022360679774997897</speed>
  <fix>3d</fix>
</trkpt>
<trkpt lat="-27.2721926" lon="151.2900637">
  <ele>343.08</ele>
  <time>2026-09-01T19:59:33Z</time>
  <course>332.32</course>
  <speed>0.0</speed>
  <fix>3d</fix>
</trkpt>
<trkpt lat="-27.2721928" lon="151.2900638">
  <ele>343.0</ele>
  <time>2026-09-01T19:59:33Z</time>
  <course>10.06</course>
  <speed>0.022360679774997897</speed>
  <fix>3d</fix>
</trkpt>
<trkpt lat="-27.2721926" lon="151.2900637">
  <ele>343.08</ele>
  <time>2026-09-01T19:59:33Z</time>
  <course>332.32</course>
  <speed>0.0</speed>
  <fix>3d</fix>
</trkpt>
<trkpt lat="-27.2721928" lon="151.2900638">
  <ele>343.0</ele>
  <time>2026-09-01T19:59:33Z</time>
  <course>10.06</course>
  <speed>0.022360679774997897</speed>
  <fix>3d</fix>
</trkpt>
<trkpt lat="-27.2721926" lon="151.2900637">
  <ele>343.08</ele>
  <time>2026-09-01T19:59:33Z</time>
  <course>153.31</course>
  <speed>0.0</speed>
  <fix>3d</fix>
</trkpt>
<trkpt lat="-27.2721928" lon="151.2900638">
  <ele>343.0</ele>
  <time>2026-09-01T19:59:33Z</time>
  <course>10.06</course>
  <speed>0.022360679774997897</speed>
  <fix>3d</fix>
</trkpt>
<trkpt lat="-27.2721926" lon="151.2900637">
  <ele>343.08</ele>
  <time>2026-09-01T19:59:33Z</time>
  <course>153.31</course>
  <speed>0.0</speed>
  <fix>3d</fix>
</trkpt>
<trkpt lat="-27.2721928" lon="151.2900638">
  <ele>343.01</ele>
  <time>2026-09-01T19:59:33Z</time>
  <course>10.06</course>
  <speed>0.022360679774997897</speed>
  <fix>3d</fix>
</trkpt>
<trkpt lat="-27.2721926" lon="151.2900637">
  <ele>343.08</ele>
  <time>2026-09-01T19:59:33Z</time>
  <course>335.36</course>
  <speed>0.0</speed>
  <fix>3d</fix>
</trkpt>
<trkpt lat="-27.2721928" lon="151.2900638">
  <ele>343.01</ele>
  <time>2026-09-01T19:59:33Z</time>
  <course>10.06</course>
  <speed>0.022360679774997897</speed>
  <fix>3d</fix>
</trkpt>
<trkpt lat="-27.2721926" lon="151.2900637">
  <ele>343.08</ele>
  <time>2026-09-01T19:59:33Z</time>
  <course>335.36</course>
  <speed>0.0</speed>
  <fix>3d</fix>
</trkpt>
<trkpt lat="-27.2721928" lon="151.2900638">
  <ele>343.01</ele>
  <time>2026-09-01T19:59:33Z</time>
  <course>10.06</course>
  <speed>0.022360679774997897</speed>
  <fix>3d</fix>
</trkpt>
<trkpt lat="-27.2721926" lon="151.2900637">
  <ele>343.08</ele>
  <time>2026-09-01T19:59:33Z</time>
  <course>333.24</course>
  <speed>0.0</speed>
  <fix>3d</fix>
</trkpt>
<trkpt lat="-27.2721928" lon="151.2900638">
  <ele>343.01</ele>
  <time>2026-09-01T19:59:33Z</time>
  <course>10.06</course>
  <speed>0.022360679774997897</speed>
  <fix>3d</fix>
</trkpt>
<trkpt lat="-27.2721926" lon="151.2900637">
  <ele>343.08</ele>
  <time>2026-09-01T19:59:33Z</time>
  <course>333.24</course>
  <speed>0.0</speed>
  <fix>3d</fix>
</trkpt>
<trkpt lat="-27.2721928" lon="151.2900638">
  <ele>343.01</ele>
  <time>2026-09-01T19:59:33Z</time>
  <course>10.06</course>
  <speed>0.022360679774997897</speed>
  <fix>3d</fix>
</trkpt>
<trkpt lat="-27.2721926" lon="151.2900637">
  <ele>343.08</ele>
  <time>2026-09-01T19:59:33Z</time>
  <course>153.77</course>
  <speed>0.0</speed>
  <fix>3d</fix>
</trkpt>
<trkpt lat="-27.2721928" lon="151.2900638">
  <ele>343.01</ele>
  <time>2026-09-01T19:59:33Z</time>
  <course>10.06</course>
  <speed>0.022360679774997897</speed>
  <fix>3d</fix>
</trkpt>
<trkpt lat="-27.2721926" lon="151.2900637">
  <ele>343.08</ele>
  <time>2026-09-01T19:59:33Z</time>
  <course>153.77</course>
  <speed>0.0</speed>
  <fix>3d</fix>
</trkpt>
<trkpt lat="-27.2721928" lon="151.2900638">
  <ele>343.01</ele>
  <time>2026-09-01T19:59:33Z</time>
  <course>10.06</course>
  <speed>0.022360679774997897</speed>
  <fix>3d</fix>
</trkpt>
<trkpt lat="-27.2721926" lon="151.2900637">
  <ele>343.08</ele>
  <time>2026-09-01T19:59:33Z</time>
  <course>153.15</course>
  <speed>0.0</speed>
  <fix>3d</fix>
</trkpt>
<trkpt lat="-27.2721928" lon="151.2900638">
  <ele>343.01</ele>
  <time>2026-09-01T19:59:33Z</time>
  <course>10.06</course>
  <speed>0.022360679774997897</speed>
  <fix>3d</fix>
</trkpt>
<trkpt lat="-27.2721926" lon="151.2900637">
  <ele>343.08</ele>
  <time>2026-09-01T19:59:33Z</time>
  <course>153.15</course>
  <speed>0.0</speed>
  <fix>3d</fix>
</trkpt>
<trkpt lat="-27.2721928" lon="151.2900638">
  <ele>343.01</ele>
  <time>2026-09-01T19:59:33Z</time>
  <course>10.06</course>
  <speed>0.022360679774997897</speed>
  <fix>3d</fix>
</trkpt>
<trkpt lat="-27.2721926" lon="151.2900637">
  <ele>343.08</ele>
  <time>2026-09-01T19:59:33Z</time>
  <course>333.53</course>
  <speed>0.0</speed>
  <fix>3d</fix>
</trkpt>
<trkpt lat="-27.2721928" lon="151.2900638">
  <ele>343.01</ele>
  <time>2026-09-01T19:59:33Z</time>
  <course>10.06</course>
  <speed>0.022360679774997897</speed>
  <fix>3d</fix>
</trkpt>
<trkpt lat="-27.2721926" lon="151.2900637">
  <ele>343.08</ele>
  <time>2026-09-01T19:59:33Z</time>
  <course>333.53</course>
  <speed>0.0</speed>
  <fix>3d</fix>
</trkpt>
<trkpt lat="-27.2721928" lon="151.2900638">
  <ele>343.01</ele>
  <time>2026-09-01T19:59:33Z</time>
  <course>10.06</course>
  <speed>0.022360679774997897</speed>
  <fix>3d</fix>
</trkpt>
<trkpt lat="-27.2721926" lon="151.2900637">
  <ele>343.08</ele>
  <time>2026-09-01T19:59:33Z</time>
  <course>333.02</course>
  <speed>0.0</speed>
  <fix>3d</fix>
</trkpt>
<trkpt lat="-27.2721928" lon="151.2900638">
  <ele>343.01</ele>
  <time>2026-09-01T19:59:33Z</time>
  <course>10.06</course>
  <speed>0.022360679774997897</speed>
  <fix>3d</fix>
</trkpt>
<trkpt lat="-27.2721926" lon="151.2900637">
  <ele>343.08</ele>
  <time>2026-09-01T19:59:33Z</time>
  <course>333.02</course>
  <speed>0.0</speed>
  <fix>3d</fix>
</trkpt>
<trkpt lat="-27.2721928" lon="151.2900638">
  <ele>343.01</ele>
  <time>2026-09-01T19:59:33Z</time>
  <course>10.06</course>
  <speed>0.022360679774997897</speed>
  <fix>3d</fix>
</trkpt>
<trkpt lat="-27.2721926" lon="151.2900637">
  <ele>343.08</ele>
  <time>2026-09-01T19:59:33Z</time>
  <course>153.4</course>
  <speed>0.0</speed>
  <fix>3d</fix>
</trkpt>
<trkpt lat="-27.2721928" lon="151.2900638">
  <ele>343.01</ele>
  <time>2026-09-01T19:59:33Z</time>
  <course>10.06</course>
  <speed>0.022360679774997897</speed>
  <fix>3d</fix>
</trkpt>
<trkpt lat="-27.2721926" lon="151.2900637">
  <ele>343.08</ele>
  <time>2026-09-01T19:59:33Z</time>
  <course>153.4</course>
  <speed>0.0</speed>
  <fix>3d</fix>
</trkpt>
<trkpt lat="-27.2721928" lon="151.2900638">
  <ele>343.01</ele>
  <time>2026-09-01T19:59:33Z</time>
  <course>10.06</course>
  <speed>0.022360679774997897</speed>
  <fix>3d</fix>
</trkpt>
<trkpt lat="-27.2721926" lon="151.2900637">
  <ele>343.08</ele>
  <time>2026-09-01T19:59:33Z</time>
  <course>152.52</course>
  <speed>0.0</speed>
  <fix>3d</fix>
</trkpt>
<trkpt lat="-27.2721928" lon="151.2900638">
  <ele>343.01</ele>
  <time>2026-09-01T19:59:33Z</time>
  <course>10.06</course>
  <speed>0.022360679774997897</speed>
  <fix>3d</fix>
</trkpt>
<trkpt lat="-27.2721926" lon="151.2900637">
  <ele>343.08</ele>
  <time>2026-09-01T19:59:33Z</time>
  <course>152.52</course>
  <speed>0.0</speed>
  <fix>3d</fix>
</trkpt>
<trkpt lat="-27.2721928" lon="151.2900638">
  <ele>343.01</ele>
  <time>2026-09-01T19:59:33Z</time>
  <course>10.06</course>
  <speed>0.022360679774997897</speed>
  <fix>3d</fix>
</trkpt>
<trkpt lat="-27.2721926" lon="151.2900637">
  <ele>343.08</ele>
  <time>2026-09-01T19:59:33Z</time>
  <course>333.43</course>
  <speed>0.0</speed>
  <fix>3d</fix>
</trkpt>
<trkpt lat="-27.2721928" lon="151.2900638">
  <ele>343.01</ele>
  <time>2026-09-01T19:59:33Z</time>
  <course>10.06</course>
  <speed>0.022360679774997897</speed>
  <fix>3d</fix>
</trkpt>
<trkpt lat="-27.2721926" lon="151.2900637">
  <ele>343.08</ele>
  <time>2026-09-01T19:59:33Z</time>
  <course>333.43</course>
  <speed>0.0</speed>
  <fix>3d</fix>
</trkpt>
<trkpt lat="-27.2721928" lon="151.2900638">
  <ele>343.01</ele>
  <time>2026-09-01T19:59:33Z</time>
  <course>10.06</course>
  <speed>0.022360679774997897</speed>
  <fix>3d</fix>
</trkpt>
<trkpt lat="-27.2721926" lon="151.2900637">
  <ele>343.08</ele>
  <time>2026-09-01T19:59:33Z</time>
  <course>143.91</course>
  <speed>0.0</speed>
  <fix>3d</fix>
</trkpt>
<trkpt lat="-27.2721928" lon="151.2900638">
  <ele>343.01</ele>
  <time>2026-09-01T19:59:33Z</time>
  <course>10.06</course>
  <speed>0.022360679774997897</speed>
  <fix>3d</fix>
</trkpt>
<trkpt lat="-27.2721926" lon="151.2900637">
  <ele>343.08</ele>
  <time>2026-09-01T19:59:33Z</time>
  <course>143.91</course>
  <speed>0.0</speed>
  <fix>3d</fix>
</trkpt>
<trkpt lat="-27.2721928" lon="151.2900638">
  <ele>343.01</ele>
  <time>2026-09-01T19:59:33Z</time>
  <course>10.07</course>
  <speed>0.022360679774997897</speed>
  <fix>3d</fix>
</trkpt>
<trkpt lat="-27.2721926" lon="151.2900637">
  <ele>343.08</ele>
  <time>2026-09-01T19:59:33Z</time>
  <course>152.56</course>
  <speed>0.0</speed>
  <fix>3d</fix>
</trkpt>
<trkpt lat="-27.2721928" lon="151.2900638">
  <ele>343.01</ele>
  <time>2026-09-01T19:59:33Z</time>
  <course>10.07</course>
  <speed>0.022360679774997897</speed>
  <fix>3d</fix>
</trkpt>
<trkpt lat="-27.2721926" lon="151.2900637">
  <ele>343.08</ele>
  <time>2026-09-01T19:59:33Z</time>
  <course>152.56</course>
  <speed>0.0</speed>
  <fix>3d</fix>
</trkpt>
<trkpt lat="-27.2721928" lon="151.2900638">
  <ele>343.01</ele>
  <time>2026-09-01T19:59:33Z</time>
  <course>10.08</course>
  <speed>0.022360679774997897</speed>
  <fix>3d</fix>
</trkpt>
<trkpt lat="-27.2721926" lon="151.2900637">
  <ele>343.08</ele>
  <time>2026-09-01T19:59:33Z</time>
  <course>338.87</course>
  <speed>0.0</speed>
  <fix>3d</fix>
</trkpt>
<trkpt lat="-27.2721928" lon="151.2900638">
  <ele>343.01</ele>
  <time>2026-09-01T19:59:33Z</time>
  <course>10.09</course>
  <speed>0.022360679774997897</speed>
  <fix>3d</fix>
</trkpt>
<trkpt lat="-27.2721926" lon="151.2900637">
  <ele>343.08</ele>
  <time>2026-09-01T19:59:33Z</time>
  <course>338.87</course>
  <speed>0.0</speed>
  <fix>3d</fix>
</trkpt>
<trkpt lat="-27.2721928" lon="151.2900638">
  <ele>343.01</ele>
  <time>2026-09-01T19:59:33Z</time>
  <course>10.09</course>
  <speed>0.022360679774997897</speed>
  <fix>3d</fix>
</trkpt>
<trkpt lat="-27.2721926" lon="151.2900637">
  <ele>343.08</ele>
  <time>2026-09-01T19:59:33Z</time>
  <course>338.33</course>
  <speed>0.0</speed>
  <fix>3d</fix>
</trkpt>
<trkpt lat="-27.2721928" lon="151.2900638">
  <ele>343.0</ele>
  <time>2026-09-01T19:59:33Z</time>
  <course>10.1</course>
  <speed>0.022360679774997897</speed>
  <fix>3d</fix>
</trkpt>
<trkpt lat="-27.2721926" lon="151.2900637">
  <ele>343.08</ele>
  <time>2026-09-01T19:59:33Z</time>
  <course>338.33</course>
  <speed>0.0</speed>
  <fix>3d</fix>
</trkpt>
<trkpt lat="-27.2721928" lon="151.2900638">
  <ele>343.07</ele>
  <time>2026-09-01T19:59:33Z</time>
  <course>10.11</course>
  <speed>0.022360679774997897</speed>
  <fix>3d</fix>
</trkpt>
<trkpt lat="-27.2721926" lon="151.2900637">
  <ele>343.08</ele>
  <time>2026-09-01T19:59:33Z</time>
  <course>113.93</course>
  <speed>0.0</speed>
  <fix>3d</fix>
</trkpt>
<trkpt lat="-27.2721928" lon="151.2900638">
  <ele>343.07</ele>
  <time>2026-09-01T19:59:33Z</time>
  <course>10.11</course>
  <speed>0.022360679774997897</speed>
  <fix>3d</fix>
</trkpt>
<trkpt lat="-27.2721926" lon="151.2900637">
  <ele>343.08</ele>
  <time>2026-09-01T19:59:33Z</time>
  <course>113.93</course>
  <speed>0.0</speed>
  <fix>3d</fix>
</trkpt>
<trkpt lat="-27.2721928" lon="151.2900638">
  <ele>343.07</ele>
  <time>2026-09-01T19:59:33Z</time>
  <course>10.12</course>
  <speed>0.022360679774997897</speed>
  <fix>3d</fix>
</trkpt>
<trkpt lat="-27.2721926" lon="151.2900637">
  <ele>343.08</ele>
  <time>2026-09-01T19:59:33Z</time>
  <course>45.42</course>
  <speed>0.0</speed>
  <fix>3d</fix>
</trkpt>
<trkpt lat="-27.2721928" lon="151.2900638">
  <ele>343.07</ele>
  <time>2026-09-01T19:59:33Z</time>
  <course>10.13</course>
  <speed>0.022360679774997897</speed>
  <fix>3d</fix>
</trkpt>
<trkpt lat="-27.2721926" lon="151.2900637">
  <ele>343.08</ele>
  <time>2026-09-01T19:59:33Z</time>
  <course>45.42</course>
  <speed>0.0</speed>
  <fix>3d</fix>
</trkpt>
<trkpt lat="-27.2721928" lon="151.2900638">
  <ele>343.07</ele>
  <time>2026-09-01T19:59:33Z</time>
  <course>10.13</course>
  <speed>0.022360679774997897</speed>
  <fix>3d</fix>
</trkpt>
<trkpt lat="-27.2721926" lon="151.2900637">
  <ele>343.08</ele>
  <time>2026-09-01T19:59:33Z</time>
  <course>2.35</course>
  <speed>0.0</speed>
  <fix>3d</fix>
</trkpt>
<trkpt lat="-27.2721928" lon="151.2900638">
  <ele>343.06</ele>
  <time>2026-09-01T19:59:33Z</time>
  <course>10.14</course>
  <speed>0.022360679774997897</speed>
  <fix>3d</fix>
</trkpt>
<trkpt lat="-27.2721926" lon="151.2900637">
  <ele>343.08</ele>
  <time>2026-09-01T19:59:33Z</time>
  <course>2.35</course>
  <speed>0.0</speed>
  <fix>3d</fix>
</trkpt>
<trkpt lat="-27.2721928" lon="151.2900638">
  <ele>343.06</ele>
  <time>2026-09-01T19:59:33Z</time>
  <course>10.15</course>
  <speed>0.022360679774997897</speed>
  <fix>3d</fix>
</trkpt>
<trkpt lat="-27.2721926" lon="151.2900637">
  <ele>343.08</ele>
  <time>2026-09-01T19:59:33Z</time>
  <course>8.41</course>
  <speed>0.0</speed>
  <fix>3d</fix>
</trkpt>
<trkpt lat="-27.2721928" lon="151.2900638">
  <ele>343.05</ele>
  <time>2026-09-01T19:59:33Z</time>
  <course>10.16</course>
  <speed>0.022360679774997897</speed>
  <fix>3d</fix>
</trkpt>
<trkpt lat="-27.2721926" lon="151.2900637">
  <ele>343.08</ele>
  <time>2026-09-01T19:59:33Z</time>
  <course>8.41</course>
  <speed>0.0</speed>
  <fix>3d</fix>
</trkpt>
<trkpt lat="-27.2721928" lon="151.2900638">
  <ele>343.05</ele>
  <time>2026-09-01T19:59:33Z</time>
  <course>10.16</course>
  <speed>0.022360679774997897</speed>
  <fix>3d</fix>
</trkpt>
<trkpt lat="-27.2721926" lon="151.2900637">
  <ele>343.08</ele>
  <time>2026-09-01T19:59:33Z</time>
  <course>11.46</course>
  <speed>0.0</speed>
  <fix>3d</fix>
</trkpt>
<trkpt lat="-27.2721928" lon="151.2900638">
  <ele>343.05</ele>
  <time>2026-09-01T19:59:33Z</time>
  <course>10.17</course>
  <speed>0.022360679774997897</speed>
  <fix>3d</fix>
</trkpt>
<trkpt lat="-27.2721926" lon="151.2900637">
  <ele>343.08</ele>
  <time>2026-09-01T19:59:33Z</time>
  <course>11.46</course>
  <speed>0.0</speed>
  <fix>3d</fix>
</trkpt>
<trkpt lat="-27.2721927" lon="151.2900638">
  <ele>343.04</ele>
  <time>2026-09-01T19:59:33Z</time>
  <course>10.18</course>
  <speed>0.022360679774997897</speed>
  <fix>3d</fix>
</trkpt>
<trkpt lat="-27.2721926" lon="151.2900637">
  <ele>343.08</ele>
  <time>2026-09-01T19:59:33Z</time>
  <course>10.01</course>
  <speed>0.0</speed>
  <fix>3d</fix>
</trkpt>
<trkpt lat="-27.2721928" lon="151.2900638">
  <ele>343.04</ele>
  <time>2026-09-01T19:59:33Z</time>
  <course>10.18</course>
  <speed>0.022360679774997897</speed>
  <fix>3d</fix>
</trkpt>
<trkpt lat="-27.2721926" lon="151.2900637">
  <ele>343.08</ele>
  <time>2026-09-01T19:59:33Z</time>
  <course>10.01</course>
  <speed>0.0</speed>
  <fix>3d</fix>
</trkpt>
<trkpt lat="-27.2721927" lon="151.2900638">
  <ele>343.04</ele>
  <time>2026-09-01T19:59:33Z</time>
  <course>10.19</course>
  <speed>0.022360679774997897</speed>
  <fix>3d</fix>
</trkpt>
<trkpt lat="-27.2721926" lon="151.2900637">
  <ele>343.08</ele>
  <time>2026-09-01T19:59:33Z</time>
  <course>9.56</course>
  <speed>0.0</speed>
  <fix>3d</fix>
</trkpt>
<trkpt lat="-27.2721928" lon="151.2900638">
  <ele>343.04</ele>
  <time>2026-09-01T19:59:33Z</time>
  <course>10.2</course>
  <speed>0.022360679774997897</speed>
  <fix>3d</fix>
</trkpt>
<trkpt lat="-27.2721926" lon="151.2900637">
  <ele>343.08</ele>
  <time>2026-09-01T19:59:33Z</time>
  <course>9.56</course>
  <speed>0.0</speed>
  <fix>3d</fix>
</trkpt>
<trkpt lat="-27.2721927" lon="151.2900638">
  <ele>343.04</ele>
  <time>2026-09-01T19:59:33Z</time>
  <course>10.23</course>
  <speed>0.022360679774997897</speed>
  <fix>3d</fix>
</trkpt>
<trkpt lat="-27.2721926" lon="151.2900637">
  <ele>343.08</ele>
  <time>2026-09-01T19:59:33Z</time>
  <course>9.49</course>
  <speed>0.0</speed>
  <fix>3d</fix>
</trkpt>
<trkpt lat="-27.2721927" lon="151.2900638">
  <ele>343.04</ele>
  <time>2026-09-01T19:59:34Z</time>
  <course>10.26</course>
  <speed>0.022360679774997897</speed>
  <fix>3d</fix>
</trkpt>
<trkpt lat="-27.2721926" lon="151.2900637">
  <ele>343.08</ele>
  <time>2026-09-01T19:59:34Z</time>
  <course>9.49</course>
  <speed>0.0</speed>
  <fix>3d</fix>
</trkpt>
<trkpt lat="-27.2721927" lon="151.2900638">
  <ele>343.04</ele>
  <time>2026-09-01T19:59:34Z</time>
  <course>10.26</course>
  <speed>0.022360679774997897</speed>
  <fix>3d</fix>
</trkpt>
<trkpt lat="-27.2721926" lon="151.2900637">
  <ele>343.08</ele>
  <time>2026-09-01T19:59:34Z</time>
  <course>9.49</course>
  <speed>0.0</speed>
  <fix>3d</fix>
</trkpt>
<trkpt lat="-27.2721927" lon="151.2900638">
  <ele>343.04</ele>
  <time>2026-09-01T19:59:34Z</time>
  <course>10.27</course>
  <speed>0.022360679774997897</speed>
  <fix>3d</fix>
</trkpt>
<trkpt lat="-27.2721926" lon="151.2900637">
  <ele>343.08</ele>
  <time>2026-09-01T19:59:34Z</time>
  <course>9.49</course>
  <speed>0.0</speed>
  <fix>3d</fix>
</trkpt>
<trkpt lat="-27.2721927" lon="151.2900638">
  <ele>343.04</ele>
  <time>2026-09-01T19:59:34Z</time>
  <course>10.28</course>
  <speed>0.022360679774997897</speed>
  <fix>3d</fix>
</trkpt>
<trkpt lat="-27.2721926" lon="151.2900637">
  <ele>343.08</ele>
  <time>2026-09-01T19:59:34Z</time>
  <course>9.49</course>
  <speed>0.0</speed>
  <fix>3d</fix>
</trkpt>
<trkpt lat="-27.2721927" lon="151.2900638">
  <ele>343.03</ele>
  <time>2026-09-01T19:59:34Z</time>
  <course>10.29</course>
  <speed>0.022360679774997897</speed>
  <fix>3d</fix>
</trkpt>
<trkpt lat="-27.2721926" lon="151.2900637">
  <ele>343.08</ele>
  <time>2026-09-01T19:59:34Z</time>
  <course>9.49</course>
  <speed>0.0</speed>
  <fix>3d</fix>
</trkpt>
<trkpt lat="-27.2721927" lon="151.2900638">
  <ele>343.03</ele>
  <time>2026-09-01T19:59:34Z</time>
  <course>10.29</course>
  <speed>0.022360679774997897</speed>
  <fix>3d</fix>
</trkpt>
<trkpt lat="-27.2721926" lon="151.2900637">
  <ele>343.08</ele>
  <time>2026-09-01T19:59:34Z</time>
  <course>9.49</course>
  <speed>0.0</speed>
  <fix>3d</fix>
</trkpt>
<trkpt lat="-27.2721927" lon="151.2900638">
  <ele>343.03</ele>
  <time>2026-09-01T19:59:34Z</time>
  <course>10.3</course>
  <speed>0.022360679774997897</speed>
  <fix>3d</fix>
</trkpt>
<trkpt lat="-27.2721926" lon="151.2900637">
  <ele>343.08</ele>
  <time>2026-09-01T19:59:34Z</time>
  <course>9.49</course>
  <speed>0.0</speed>
  <fix>3d</fix>
</trkpt>
<trkpt lat="-27.2721927" lon="151.2900638">
  <ele>343.03</ele>
  <time>2026-09-01T19:59:34Z</time>
  <course>10.31</course>
  <speed>0.022360679774997897</speed>
  <fix>3d</fix>
</trkpt>
<trkpt lat="-27.2721926" lon="151.2900637">
  <ele>343.08</ele>
  <time>2026-09-01T19:59:34Z</time>
  <course>9.49</course>
  <speed>0.0</speed>
  <fix>3d</fix>
</trkpt>
<trkpt lat="-27.2721927" lon="151.2900638">
  <ele>343.03</ele>
  <time>2026-09-01T19:59:34Z</time>
  <course>10.31</course>
  <speed>0.022360679774997897</speed>
  <fix>3d</fix>
</trkpt>
<trkpt lat="-27.2721926" lon="151.2900637">
  <ele>343.08</ele>
  <time>2026-09-01T19:59:34Z</time>
  <course>9.49</course>
  <speed>0.0</speed>
  <fix>3d</fix>
</trkpt>
<trkpt lat="-27.2721927" lon="151.2900638">
  <ele>343.03</ele>
  <time>2026-09-01T19:59:34Z</time>
  <course>10.32</course>
  <speed>0.022360679774997897</speed>
  <fix>3d</fix>
</trkpt>
<trkpt lat="-27.2721926" lon="151.2900637">
  <ele>343.08</ele>
  <time>2026-09-01T19:59:34Z</time>
  <course>9.49</course>
  <speed>0.0</speed>
  <fix>3d</fix>
</trkpt>
<trkpt lat="-27.2721927" lon="151.2900638">
  <ele>343.02</ele>
  <time>2026-09-01T19:59:34Z</time>
  <course>10.33</course>
  <speed>0.022360679774997897</speed>
  <fix>3d</fix>
</trkpt>
<trkpt lat="-27.2721926" lon="151.2900637">
  <ele>343.08</ele>
  <time>2026-09-01T19:59:34Z</time>
  <course>9.49</course>
  <speed>0.0</speed>
  <fix>3d</fix>
</trkpt>
<trkpt lat="-27.2721927" lon="151.2900638">
  <ele>343.02</ele>
  <time>2026-09-01T19:59:34Z</time>
  <course>10.34</course>
  <speed>0.022360679774997897</speed>
  <fix>3d</fix>
</trkpt>
<trkpt lat="-27.2721926" lon="151.2900637">
  <ele>343.08</ele>
  <time>2026-09-01T19:59:34Z</time>
  <course>9.49</course>
  <speed>0.0</speed>
  <fix>3d</fix>
</trkpt>
<trkpt lat="-34.8912803" lon="147.3530858">
  <ele>577.31</ele>
  <time>2026-09-01T19:59:34Z</time>
  <course>178.93</course>
  <speed>0.0</speed>
  <fix>3d</fix>
</trkpt>
<trkpt lat="-34.8912803" lon="147.3530858">
  <ele>577.31</ele>
  <time>2026-09-01T19:59:34Z</time>
  <course>178.93</course>
  <speed>0.0</speed>
  <fix>3d</fix>
</trkpt>
<trkpt lat="-35.2824377" lon="149.0050247">
  <ele>-0.01</ele>
  <time>2026-09-01T19:59:34Z</time>
  <course>350.63</course>
  <speed>0.0</speed>
  <fix>3d</fix>
</trkpt>
<trkpt lat="-35.2824377" lon="149.0050247">
  <ele>583.79</ele>
  <time>2026-09-01T19:59:34Z</time>
  <course>179.96</course>
  <speed>0.0</speed>
  <fix>3d</fix>
</trkpt>
<trkpt lat="-35.2824377" lon="149.0050247">
  <ele>0.02</ele>
  <time>2026-09-01T19:59:34Z</time>
  <course>351.78</course>
  <speed>0.0</speed>
  <fix>3d</fix>
</trkpt>
<trkpt lat="-35.2824377" lon="149.0050247">
  <ele>583.79</ele>
  <time>2026-09-01T19:59:34Z</time>
  <course>179.96</course>
  <speed>0.0</speed>
  <fix>3d</fix>
</trkpt>
<trkpt lat="-35.2824377" lon="149.0050247">
  <ele>-0.07</ele>
  <time>2026-09-01T19:59:34Z</time>
  <course>352.84</course>
  <speed>0.0</speed>
  <fix>3d</fix>
</trkpt>
<trkpt lat="-35.2824377" lon="149.0050247">
  <ele>583.79</ele>
  <time>2026-09-01T19:59:34Z</time>
  <course>180.69</course>
  <speed>0.0</speed>
  <fix>3d</fix>
</trkpt>
<trkpt lat="-35.2824377" lon="149.0050247">
  <ele>0.22</ele>
  <time>2026-09-01T19:59:34Z</time>
  <course>353.8</course>
  <speed>0.0</speed>
  <fix>3d</fix>
</trkpt>
<trkpt lat="-35.2824377" lon="149.0050247">
  <ele>583.79</ele>
  <time>2026-09-01T19:59:34Z</time>
  <course>180.69</course>
  <speed>0.0</speed>
  <fix>3d</fix>
</trkpt>
<trkpt lat="-35.2824377" lon="149.0050247">
  <ele>0.1</ele>
  <time>2026-09-01T19:59:34Z</time>
  <course>354.68</course>
  <speed>0.0</speed>
  <fix>3d</fix>
</trkpt>
<trkpt lat="-35.2824377" lon="149.0050247">
  <ele>583.79</ele>
  <time>2026-09-01T19:59:34Z</time>
  <course>180.77</course>
  <speed>0.0</speed>
  <fix>3d</fix>
</trkpt>
<trkpt lat="-35.2824377" lon="149.0050247">
  <ele>0.08</ele>
  <time>2026-09-01T19:59:34Z</time>
  <course>355.47</course>
  <speed>0.0</speed>
  <fix>3d</fix>
</trkpt>
<trkpt lat="-35.2824377" lon="149.0050247">
  <ele>583.79</ele>
  <time>2026-09-01T19:59:34Z</time>
  <course>180.77</course>
  <speed>0.0</speed>
  <fix>3d</fix>
</trkpt>
<trkpt lat="-35.2824377" lon="149.0050247">
  <ele>0.09</ele>
  <time>2026-09-01T19:59:34Z</time>
  <course>356.19</course>
  <speed>0.0</speed>
  <fix>3d</fix>
</trkpt>
<trkpt lat="-35.2824377" lon="149.0050247">
  <ele>583.79</ele>
  <time>2026-09-01T19:59:34Z</time>
  <course>180.78</course>
  <speed>0.0</speed>
  <fix>3d</fix>
</trkpt>
<trkpt lat="-35.2824377" lon="149.0050247">
  <ele>-0.05</ele>
  <time>2026-09-01T19:59:34Z</time>
  <course>356.83</course>
  <speed>0.0</speed>
  <fix>3d</fix>
</trkpt>
<trkpt lat="-35.2824377" lon="149.0050247">
  <ele>583.79</ele>
  <time>2026-09-01T19:59:34Z</time>
  <course>180.78</course>
  <speed>0.0</speed>
  <fix>3d</fix>
</trkpt>
<trkpt lat="-35.2824377" lon="149.0050247">
  <ele>583.74</ele>
  <time>2026-09-01T19:59:34Z</time>
  <course>357.39</course>
  <speed>0.0</speed>
  <fix>3d</fix>
</trkpt>
<trkpt lat="-35.2824377" lon="149.0050247">
  <ele>583.79</ele>
  <time>2026-09-01T19:59:34Z</time>
  <course>180.78</course>
  <speed>0.0</speed>
  <fix>3d</fix>
</trkpt>
<trkpt lat="-35.2824377" lon="149.0050247">
  <ele>583.87</ele>
  <time>2026-09-01T19:59:34Z</time>
  <course>357.93</course>
  <speed>0.0</speed>
  <fix>3d</fix>
</trkpt>
<trkpt lat="-35.2824377" lon="149.0050247">
  <ele>583.79</ele>
  <time>2026-09-01T19:59:34Z</time>
  <course>180.78</course>
  <speed>0.0</speed>
  <fix>3d</fix>
</trkpt>
<trkpt lat="-35.2824377" lon="149.0050247">
  <ele>583.6</ele>
  <time>2026-09-01T19:59:34Z</time>
  <course>358.41</course>
  <speed>0.0</speed>
  <fix>3d</fix>
</trkpt>
<trkpt lat="-35.2824377" lon="149.0050247">
  <ele>583.79</ele>
  <time>2026-09-01T19:59:34Z</time>
  <course>180.78</course>
  <speed>0.0</speed>
  <fix>3d</fix>
</trkpt>
<trkpt lat="-35.2824377" lon="149.0050247">
  <ele>583.75</ele>
  <time>2026-09-01T19:59:34Z</time>
  <course>358.85</course>
  <speed>0.0</speed>
  <fix>3d</fix>
</trkpt>
<trkpt lat="-35.2824377" lon="149.0050247">
  <ele>583.79</ele>
  <time>2026-09-01T19:59:34Z</time>
  <course>180.78</course>
  <speed>0.0</speed>
  <fix>3d</fix>
</trkpt>
<trkpt lat="-35.2824377" lon="149.0050247">
  <ele>583.82</ele>
  <time>2026-09-01T19:59:34Z</time>
  <course>359.25</course>
  <speed>0.0</speed>
  <fix>3d</fix>
</trkpt>
<trkpt lat="-35.2824377" lon="149.0050247">
  <ele>583.79</ele>
  <time>2026-09-01T19:59:34Z</time>
  <course>180.78</course>
  <speed>0.0</speed>
  <fix>3d</fix>
</trkpt>
<trkpt lat="-35.2824377" lon="149.0050247">
  <ele>583.73</ele>
  <time>2026-09-01T19:59:34Z</time>
  <course>359.62</course>
  <speed>0.0</speed>
  <fix>3d</fix>
</trkpt>
<trkpt lat="-35.2824377" lon="149.0050247">
  <ele>583.79</ele>
  <time>2026-09-01T19:59:34Z</time>
  <course>180.78</course>
  <speed>0.0</speed>
  <fix>3d</fix>
</trkpt>
<trkpt lat="-35.2824377" lon="149.0050247">
  <ele>583.58</ele>
  <time>2026-09-01T19:59:34Z</time>
  <course>359.94</course>
  <speed>0.0</speed>
  <fix>3d</fix>
</trkpt>
<trkpt lat="-35.2824377" lon="149.0050247">
  <ele>583.79</ele>
  <time>2026-09-01T19:59:34Z</time>
  <course>180.78</course>
  <speed>0.0</speed>
  <fix>3d</fix>
</trkpt>
<trkpt lat="-35.2824377" lon="149.0050247">
  <ele>583.71</ele>
  <time>2026-09-01T19:59:34Z</time>
  <course>0.23</course>
  <speed>0.0</speed>
  <fix>3d</fix>
</trkpt>
<trkpt lat="-35.2824377" lon="149.0050247">
  <ele>583.79</ele>
  <time>2026-09-01T19:59:34Z</time>
  <course>180.78</course>
  <speed>0.0</speed>
  <fix>3d</fix>
</trkpt>
<trkpt lat="-35.2824377" lon="149.0050247">
  <ele>583.92</ele>
  <time>2026-09-01T19:59:34Z</time>
  <course>0.51</course>
  <speed>0.0</speed>
  <fix>3d</fix>
</trkpt>
<trkpt lat="-35.2824377" lon="149.0050247">
  <ele>583.79</ele>
  <time>2026-09-01T19:59:34Z</time>
  <course>180.78</course>
  <speed>0.0</speed>
  <fix>3d</fix>
</trkpt>
<trkpt lat="-35.2824377" lon="149.0050247">
  <ele>583.87</ele>
  <time>2026-09-01T19:59:34Z</time>
  <course>0.75</course>
  <speed>0.0</speed>
  <fix>3d</fix>
</trkpt>
<trkpt lat="-35.2824377" lon="149.0050247">
  <ele>583.79</ele>
  <time>2026-09-01T19:59:34Z</time>
  <course>180.78</course>
  <speed>0.0</speed>
  <fix>3d</fix>
</trkpt>
<trkpt lat="-35.2824377" lon="149.0050247">
  <ele>583.73</ele>
  <time>2026-09-01T19:59:34Z</time>
  <course>0.97</course>
  <speed>0.0</speed>
  <fix>3d</fix>
</trkpt>
<trkpt lat="-35.2824377" lon="149.0050247">
  <ele>583.79</ele>
  <time>2026-09-01T19:59:34Z</time>
  <course>180.78</course>
  <speed>0.0</speed>
  <fix>3d</fix>
</trkpt>
<trkpt lat="-35.2824377" lon="149.0050247">
  <ele>583.58</ele>
  <time>2026-09-01T19:59:34Z</time>
  <course>1.17</course>
  <speed>0.0</speed>
  <fix>3d</fix>
</trkpt>
<trkpt lat="-35.2824377" lon="149.0050247">
  <ele>583.79</ele>
  <time>2026-09-01T19:59:34Z</time>
  <course>180.78</course>
  <speed>0.0</speed>
  <fix>3d</fix>
</trkpt>
<trkpt lat="-35.2824377" lon="149.0050247">
  <ele>583.77</ele>
  <time>2026-09-01T19:59:34Z</time>
  <course>1.35</course>
  <speed>0.0</speed>
  <fix>3d</fix>
</trkpt>
<trkpt lat="-35.2824377" lon="149.0050247">
  <ele>583.79</ele>
  <time>2026-09-01T19:59:34Z</time>
  <course>180.78</course>
  <speed>0.0</speed>
  <fix>3d</fix>
</trkpt>
<trkpt lat="-35.2824377" lon="149.0050247">
  <ele>583.88</ele>
  <time>2026-09-01T19:59:34Z</time>
  <course>1.51</course>
  <speed>0.0</speed>
  <fix>3d</fix>
</trkpt>
<trkpt lat="-35.2824377" lon="149.0050247">
  <ele>583.79</ele>
  <time>2026-09-01T19:59:34Z</time>
  <course>180.78</course>
  <speed>0.0</speed>
  <fix>3d</fix>
</trkpt>
<trkpt lat="-35.2824377" lon="149.0050247">
  <ele>583.57</ele>
  <time>2026-09-01T19:59:34Z</time>
  <course>1.66</course>
  <speed>0.0</speed>
  <fix>3d</fix>
</trkpt>
<trkpt lat="-35.2824377" lon="149.0050247">
  <ele>583.79</ele>
  <time>2026-09-01T19:59:34Z</time>
  <course>180.78</course>
  <speed>0.0</speed>
  <fix>3d</fix>
</trkpt>
<trkpt lat="-35.2824377" lon="149.0050247">
  <ele>583.86</ele>
  <time>2026-09-01T19:59:34Z</time>
  <course>1.79</course>
  <speed>0.0</speed>
  <fix>3d</fix>
</trkpt>
<trkpt lat="-35.2824377" lon="149.0050247">
  <ele>583.79</ele>
  <time>2026-09-01T19:59:34Z</time>
  <course>180.78</course>
  <speed>0.0</speed>
  <fix>3d</fix>
</trkpt>
<trkpt lat="-35.2824377" lon="149.0050247">
  <ele>583.58</ele>
  <time>2026-09-01T19:59:34Z</time>
  <course>1.91</course>
  <speed>0.0</speed>
  <fix>3d</fix>
</trkpt>
<trkpt lat="-35.2824377" lon="149.0050247">
  <ele>583.79</ele>
  <time>2026-09-01T19:59:34Z</time>
  <course>180.78</course>
  <speed>0.0</speed>
  <fix>3d</fix>
</trkpt>
<trkpt lat="-35.2824377" lon="149.0050247">
  <ele>583.67</ele>
  <time>2026-09-01T19:59:34Z</time>
  <course>2.02</course>
  <speed>0.0</speed>
  <fix>3d</fix>
</trkpt>
<trkpt lat="-35.2824377" lon="149.0050247">
  <ele>583.79</ele>
  <time>2026-09-01T19:59:34Z</time>
  <course>180.78</course>
  <speed>0.0</speed>
  <fix>3d</fix>
</trkpt>
<trkpt lat="-35.2824377" lon="149.0050247">
  <ele>583.56</ele>
  <time>2026-09-01T19:59:34Z</time>
  <course>2.12</course>
  <speed>0.0</speed>
  <fix>3d</fix>
</trkpt>
<trkpt lat="-35.2824377" lon="149.0050247">
  <ele>583.79</ele>
  <time>2026-09-01T19:59:34Z</time>
  <course>180.78</course>
  <speed>0.0</speed>
  <fix>3d</fix>
</trkpt>
<trkpt lat="-35.2824377" lon="149.0050247">
  <ele>583.78</ele>
  <time>2026-09-01T19:59:34Z</time>
  <course>2.21</course>
  <speed>0.0</speed>
  <fix>3d</fix>
</trkpt>
<trkpt lat="-35.2824377" lon="149.0050247">
  <ele>583.79</ele>
  <time>2026-09-01T19:59:34Z</time>
  <course>180.78</course>
  <speed>0.0</speed>
  <fix>3d</fix>
</trkpt>
<trkpt lat="-35.2824377" lon="149.0050247">
  <ele>583.87</ele>
  <time>2026-09-01T19:59:35Z</time>
  <course>2.3</course>
  <speed>0.0</speed>
  <fix>3d</fix>
</trkpt>
<trkpt lat="-35.2824377" lon="149.0050247">
  <ele>583.79</ele>
  <time>2026-09-01T19:59:35Z</time>
  <course>180.78</course>
  <speed>0.0</speed>
  <fix>3d</fix>
</trkpt>
<trkpt lat="-35.2824377" lon="149.0050247">
  <ele>583.74</ele>
  <time>2026-09-01T19:59:35Z</time>
  <course>2.37</course>
  <speed>0.0</speed>
  <fix>3d</fix>
</trkpt>
<trkpt lat="-35.2824377" lon="149.0050247">
  <ele>583.79</ele>
  <time>2026-09-01T19:59:35Z</time>
  <course>180.78</course>
  <speed>0.0</speed>
  <fix>3d</fix>
</trkpt>
<trkpt lat="-35.2824377" lon="149.0050247">
  <ele>583.65</ele>
  <time>2026-09-01T19:59:35Z</time>
  <course>2.44</course>
  <speed>0.0</speed>
  <fix>3d</fix>
</trkpt>
<trkpt lat="-35.2824377" lon="149.0050247">
  <ele>583.79</ele>
  <time>2026-09-01T19:59:35Z</time>
  <course>180.78</course>
  <speed>0.0</speed>
  <fix>3d</fix>
</trkpt>
<trkpt lat="-35.2824377" lon="149.0050247">
  <ele>583.79</ele>
  <time>2026-09-01T19:59:35Z</time>
  <course>2.5</course>
  <speed>0.0</speed>
  <fix>3d</fix>
</trkpt>
<trkpt lat="-35.2824377" lon="149.0050247">
  <ele>583.79</ele>
  <time>2026-09-01T19:59:35Z</time>
  <course>180.78</course>
  <speed>0.0</speed>
  <fix>3d</fix>
</trkpt>
<trkpt lat="-35.2824377" lon="149.0050247">
  <ele>583.9</ele>
  <time>2026-09-01T19:59:35Z</time>
  <course>2.56</course>
  <speed>0.0</speed>
  <fix>3d</fix>
</trkpt>
<trkpt lat="-35.2824377" lon="149.0050247">
  <ele>583.79</ele>
  <time>2026-09-01T19:59:35Z</time>
  <course>180.78</course>
  <speed>0.0</speed>
  <fix>3d</fix>
</trkpt>
<trkpt lat="-35.2824377" lon="149.0050247">
  <ele>583.86</ele>
  <time>2026-09-01T19:59:35Z</time>
  <course>2.61</course>
  <speed>0.0</speed>
  <fix>3d</fix>
</trkpt>
<trkpt lat="-35.2824377" lon="149.0050247">
  <ele>583.79</ele>
  <time>2026-09-01T19:59:35Z</time>
  <course>180.78</course>
  <speed>0.0</speed>
  <fix>3d</fix>
</trkpt>
<trkpt lat="-35.2824377" lon="149.0050247">
  <ele>583.76</ele>
  <time>2026-09-01T19:59:35Z</time>
  <course>2.65</course>
  <speed>0.0</speed>
  <fix>3d</fix>
</trkpt>
<trkpt lat="-35.2824377" lon="149.0050247">
  <ele>583.79</ele>
  <time>2026-09-01T19:59:35Z</time>
  <course>180.78</course>
  <speed>0.0</speed>
  <fix>3d</fix>
</trkpt>
<trkpt lat="-35.2824377" lon="149.0050247">
  <ele>583.73</ele>
  <time>2026-09-01T19:59:35Z</time>
  <course>2.69</course>
  <speed>0.0</speed>
  <fix>3d</fix>
</trkpt>
<trkpt lat="-35.2824377" lon="149.0050247">
  <ele>583.79</ele>
  <time>2026-09-01T19:59:35Z</time>
  <course>180.78</course>
  <speed>0.0</speed>
  <fix>3d</fix>
</trkpt>
<trkpt lat="-35.2824377" lon="149.0050247">
  <ele>583.87</ele>
  <time>2026-09-01T19:59:35Z</time>
  <course>2.73</course>
  <speed>0.0</speed>
  <fix>3d</fix>
</trkpt>
<trkpt lat="-35.2824377" lon="149.0050247">
  <ele>583.79</ele>
  <time>2026-09-01T19:59:35Z</time>
  <course>180.78</course>
  <speed>0.0</speed>
  <fix>3d</fix>
</trkpt>
<trkpt lat="-35.2824377" lon="149.0050247">
  <ele>583.81</ele>
  <time>2026-09-01T19:59:35Z</time>
  <course>2.76</course>
  <speed>0.0</speed>
  <fix>3d</fix>
</trkpt>
<trkpt lat="-35.2824377" lon="149.0050247">
  <ele>583.79</ele>
  <time>2026-09-01T19:59:35Z</time>
  <course>180.78</course>
  <speed>0.0</speed>
  <fix>3d</fix>
</trkpt>
<trkpt lat="-35.2824377" lon="149.0050247">
  <ele>583.73</ele>
  <time>2026-09-01T19:59:35Z</time>
  <course>2.79</course>
  <speed>0.0</speed>
  <fix>3d</fix>
</trkpt>
<trkpt lat="-35.2824377" lon="149.0050247">
  <ele>583.79</ele>
  <time>2026-09-01T19:59:35Z</time>
  <course>180.78</course>
  <speed>0.0</speed>
  <fix>3d</fix>
</trkpt>
<trkpt lat="-35.2824377" lon="149.0050247">
  <ele>583.76</ele>
  <time>2026-09-01T19:59:35Z</time>
  <course>2.82</course>
  <speed>0.0</speed>
  <fix>3d</fix>
</trkpt>
<trkpt lat="-35.2824377" lon="149.0050247">
  <ele>583.79</ele>
  <time>2026-09-01T19:59:35Z</time>
  <course>180.78</course>
  <speed>0.0</speed>
  <fix>3d</fix>
</trkpt>
<trkpt lat="-35.2824377" lon="149.0050247">
  <ele>583.74</ele>
  <time>2026-09-01T19:59:35Z</time>
  <course>2.85</course>
  <speed>0.0</speed>
  <fix>3d</fix>
</trkpt>
<trkpt lat="-35.2824377" lon="149.0050247">
  <ele>583.79</ele>
  <time>2026-09-01T19:59:35Z</time>
  <course>180.78</course>
  <speed>0.0</speed>
  <fix>3d</fix>
</trkpt>
<trkpt lat="-35.2824377" lon="149.0050247">
  <ele>583.7</ele>
  <time>2026-09-01T19:59:35Z</time>
  <course>2.87</course>
  <speed>0.0</speed>
  <fix>3d</fix>
</trkpt>
<trkpt lat="-35.2824377" lon="149.0050247">
  <ele>583.79</ele>
  <time>2026-09-01T19:59:35Z</time>
  <course>180.78</course>
  <speed>0.0</speed>
  <fix>3d</fix>
</trkpt>
<trkpt lat="-35.2824377" lon="149.0050247">
  <ele>583.89</ele>
  <time>2026-09-01T19:59:35Z</time>
  <course>2.89</course>
  <speed>0.0</speed>
  <fix>3d</fix>
</trkpt>
<trkpt lat="-35.2824377" lon="149.0050247">
  <ele>583.79</ele>
  <time>2026-09-01T19:59:35Z</time>
  <course>180.78</course>
  <speed>0.0</speed>
  <fix>3d</fix>
</trkpt>
<trkpt lat="-35.2824377" lon="149.0050247">
  <ele>583.94</ele>
  <time>2026-09-01T19:59:35Z</time>
  <course>2.91</course>
  <speed>0.0</speed>
  <fix>3d</fix>
</trkpt>
<trkpt lat="-35.2824377" lon="149.0050247">
  <ele>583.79</ele>
  <time>2026-09-01T19:59:35Z</time>
  <course>180.78</course>
  <speed>0.0</speed>
  <fix>3d</fix>
</trkpt>
<trkpt lat="-35.2824377" lon="149.0050247">
  <ele>583.57</ele>
  <time>2026-09-01T19:59:35Z</time>
  <course>2.92</course>
  <speed>0.0</speed>
  <fix>3d</fix>
</trkpt>
<trkpt lat="-35.2824377" lon="149.0050247">
  <ele>583.79</ele>
  <time>2026-09-01T19:59:35Z</time>
  <course>180.78</course>
  <speed>0.0</speed>
  <fix>3d</fix>
</trkpt>
<trkpt lat="-35.2824377" lon="149.0050247">
  <ele>583.9</ele>
  <time>2026-09-01T19:59:35Z</time>
  <course>2.94</course>
  <speed>0.0</speed>
  <fix>3d</fix>
</trkpt>
<trkpt lat="-35.2824377" lon="149.0050247">
  <ele>583.79</ele>
  <time>2026-09-01T19:59:35Z</time>
  <course>180.78</course>
  <speed>0.0</speed>
  <fix>3d</fix>
</trkpt>
<trkpt lat="-35.2824377" lon="149.0050247">
  <ele>583.71</ele>
  <time>2026-09-01T19:59:35Z</time>
  <course>2.95</course>
  <speed>0.0</speed>
  <fix>3d</fix>
</trkpt>
<trkpt lat="-35.2824377" lon="149.0050247">
  <ele>583.79</ele>
  <time>2026-09-01T19:59:35Z</time>
  <course>180.78</course>
  <speed>0.0</speed>
  <fix>3d</fix>
</trkpt>
<trkpt lat="-35.2824377" lon="149.0050247">
  <ele>583.62</ele>
  <time>2026-09-01T19:59:35Z</time>
  <course>2.96</course>
  <speed>0.0</speed>
  <fix>3d</fix>
</trkpt>
<trkpt lat="-35.2824377" lon="149.0050247">
  <ele>583.79</ele>
  <time>2026-09-01T19:59:35Z</time>
  <course>180.78</course>
  <speed>0.0</speed>
  <fix>3d</fix>
</trkpt>
<trkpt lat="-35.2824377" lon="149.0050247">
  <ele>583.76</ele>
  <time>2026-09-01T19:59:35Z</time>
  <course>2.98</course>
  <speed>0.0</speed>
  <fix>3d</fix>
</trkpt>
<trkpt lat="-35.2824377" lon="149.0050247">
  <ele>583.79</ele>
  <time>2026-09-01T19:59:35Z</time>
  <course>180.78</course>
  <speed>0.0</speed>
  <fix>3d</fix>
</trkpt>
<trkpt lat="-35.2824377" lon="149.0050247">
  <ele>583.62</ele>
  <time>2026-09-01T19:59:35Z</time>
  <course>2.99</course>
  <speed>0.0</speed>
  <fix>3d</fix>
</trkpt>
<trkpt lat="-35.2824377" lon="149.0050247">
  <ele>583.79</ele>
  <time>2026-09-01T19:59:35Z</time>
  <course>180.78</course>
  <speed>0.0</speed>
  <fix>3d</fix>
</trkpt>
<trkpt lat="-35.2824377" lon="149.0050247">
  <ele>583.8</ele>
  <time>2026-09-01T19:59:35Z</time>
  <course>2.99</course>
  <speed>0.0</speed>
  <fix>3d</fix>
</trkpt>
<trkpt lat="-35.2824377" lon="149.0050247">
  <ele>583.79</ele>
  <time>2026-09-01T19:59:35Z</time>
  <course>180.78</course>
  <speed>0.0</speed>
  <fix>3d</fix>
</trkpt>
<trkpt lat="-35.2824377" lon="149.0050247">
  <ele>583.94</ele>
  <time>2026-09-01T19:59:35Z</time>
  <course>3.0</course>
  <speed>0.0</speed>
  <fix>3d</fix>
</trkpt>
<trkpt lat="-35.2824377" lon="149.0050247">
  <ele>583.79</ele>
  <time>2026-09-01T19:59:35Z</time>
  <course>180.78</course>
  <speed>0.0</speed>
  <fix>3d</fix>
</trkpt>
<trkpt lat="-35.2824377" lon="149.0050247">
  <ele>583.87</ele>
  <time>2026-09-01T19:59:35Z</time>
  <course>3.01</course>
  <speed>0.0</speed>
  <fix>3d</fix>
</trkpt>
<trkpt lat="-35.2824377" lon="149.0050247">
  <ele>583.79</ele>
  <time>2026-09-01T19:59:35Z</time>
  <course>180.78</course>
  <speed>0.0</speed>
  <fix>3d</fix>
</trkpt>
<trkpt lat="-35.2824377" lon="149.0050247">
  <ele>583.59</ele>
  <time>2026-09-01T19:59:35Z</time>
  <course>3.02</course>
  <speed>0.0</speed>
  <fix>3d</fix>
</trkpt>
<trkpt lat="-35.2824377" lon="149.0050247">
  <ele>583.79</ele>
  <time>2026-09-01T19:59:35Z</time>
  <course>180.78</course>
  <speed>0.0</speed>
  <fix>3d</fix>
</trkpt>
<trkpt lat="-35.2824377" lon="149.0050247">
  <ele>583.92</ele>
  <time>2026-09-01T19:59:35Z</time>
  <course>3.02</course>
  <speed>0.0</speed>
  <fix>3d</fix>
</trkpt>
<trkpt lat="-35.2824377" lon="149.0050247">
  <ele>583.79</ele>
  <time>2026-09-01T19:59:35Z</time>
  <course>180.78</course>
  <speed>0.0</speed>
  <fix>3d</fix>
</trkpt>
<trkpt lat="-35.2824377" lon="149.0050247">
  <ele>583.91</ele>
  <time>2026-09-01T19:59:35Z</time>
  <course>3.03</course>
  <speed>0.0</speed>
  <fix>3d</fix>
</trkpt>
<trkpt lat="-35.2824377" lon="149.0050247">
  <ele>583.79</ele>
  <time>2026-09-01T19:59:35Z</time>
  <course>180.78</course>
  <speed>0.0</speed>
  <fix>3d</fix>
</trkpt>
<trkpt lat="-35.2824377" lon="149.0050247">
  <ele>583.67</ele>
  <time>2026-09-01T19:59:35Z</time>
  <course>3.03</course>
  <speed>0.0</speed>
  <fix>3d</fix>
</trkpt>
<trkpt lat="-35.2824377" lon="149.0050247">
  <ele>583.79</ele>
  <time>2026-09-01T19:59:35Z</time>
  <course>180.78</course>
  <speed>0.0</speed>
  <fix>3d</fix>
</trkpt>
<trkpt lat="-35.2824377" lon="149.0050247">
  <ele>583.82</ele>
  <time>2026-09-01T19:59:35Z</time>
  <course>3.04</course>
  <speed>0.0</speed>
  <fix>3d</fix>
</trkpt>
<trkpt lat="-35.2824377" lon="149.0050247">
  <ele>583.79</ele>
  <time>2026-09-01T19:59:35Z</time>
  <course>180.78</course>
  <speed>0.0</speed>
  <fix>3d</fix>
</trkpt>
<trkpt lat="-35.2824377" lon="149.0050247">
  <ele>583.76</ele>
  <time>2026-09-01T19:59:35Z</time>
  <course>3.04</course>
  <speed>0.0</speed>
  <fix>3d</fix>
</trkpt>
<trkpt lat="-35.2824377" lon="149.0050247">
  <ele>583.79</ele>
  <time>2026-09-01T19:59:35Z</time>
  <course>180.78</course>
  <speed>0.0</speed>
  <fix>3d</fix>
</trkpt>
<trkpt lat="-35.2824377" lon="149.0050247">
  <ele>583.89</ele>
  <time>2026-09-01T19:59:35Z</time>
  <course>3.04</course>
  <speed>0.0</speed>
  <fix>3d</fix>
</trkpt>
<trkpt lat="-35.2824377" lon="149.0050247">
  <ele>583.79</ele>
  <time>2026-09-01T19:59:35Z</time>
  <course>180.78</course>
  <speed>0.0</speed>
  <fix>3d</fix>
</trkpt>
<trkpt lat="-35.2824377" lon="149.0050247">
  <ele>583.62</ele>
  <time>2026-09-01T19:59:35Z</time>
  <course>3.05</course>
  <speed>0.0</speed>
  <fix>3d</fix>
</trkpt>
<trkpt lat="-35.2824377" lon="149.0050247">
  <ele>583.79</ele>
  <time>2026-09-01T19:59:35Z</time>
  <course>180.78</course>
  <speed>0.0</speed>
  <fix>3d</fix>
</trkpt>
<trkpt lat="-35.2824377" lon="149.0050247">
  <ele>583.88</ele>
  <time>2026-09-01T19:59:35Z</time>
  <course>3.05</course>
  <speed>0.0</speed>
  <fix>3d</fix>
</trkpt>
<trkpt lat="-35.2824377" lon="149.0050247">
  <ele>583.79</ele>
  <time>2026-09-01T19:59:35Z</time>
  <course>180.78</course>
  <speed>0.0</speed>
  <fix>3d</fix>
</trkpt>
<trkpt lat="-35.2824377" lon="149.0050247">
  <ele>583.79</ele>
  <time>2026-09-01T19:59:35Z</time>
  <course>3.05</course>
  <speed>0.0</speed>
  <fix>3d</fix>
</trkpt>
<trkpt lat="-35.2824377" lon="149.0050247">
  <ele>583.79</ele>
  <time>2026-09-01T19:59:35Z</time>
  <course>180.78</course>
  <speed>0.0</speed>
  <fix>3d</fix>
</trkpt>
<trkpt lat="-35.2824377" lon="149.0050247">
  <ele>583.7</ele>
  <time>2026-09-01T19:59:35Z</time>
  <course>3.05</course>
  <speed>0.0</speed>
  <fix>3d</fix>
</trkpt>
<trkpt lat="-35.2824377" lon="149.0050247">
  <ele>583.79</ele>
  <time>2026-09-01T19:59:35Z</time>
  <course>180.78</course>
  <speed>0.0</speed>
  <fix>3d</fix>
</trkpt>
<trkpt lat="-35.2824377" lon="149.0050247">
  <ele>583.81</ele>
  <time>2026-09-01T19:59:35Z</time>
  <course>3.06</course>
  <speed>0.0</speed>
  <fix>3d</fix>
</trkpt>
<trkpt lat="-35.2824377" lon="149.0050247">
  <ele>583.79</ele>
  <time>2026-09-01T19:59:35Z</time>
  <course>180.78</course>
  <speed>0.0</speed>
  <fix>3d</fix>
</trkpt>
<trkpt lat="-35.2824377" lon="149.0050247">
  <ele>583.65</ele>
  <time>2026-09-01T19:59:35Z</time>
  <course>3.06</course>
  <speed>0.0</speed>
  <fix>3d</fix>
</trkpt>
<trkpt lat="-35.2824377" lon="149.0050247">
  <ele>583.79</ele>
  <time>2026-09-01T19:59:35Z</time>
  <course>180.78</course>
  <speed>0.0</speed>
  <fix>3d</fix>
</trkpt>
<trkpt lat="-35.2824377" lon="149.0050247">
  <ele>583.87</ele>
  <time>2026-09-01T19:59:35Z</time>
  <course>3.06</course>
  <speed>0.0</speed>
  <fix>3d</fix>
</trkpt>
<trkpt lat="-35.2824377" lon="149.0050247">
  <ele>583.79</ele>
  <time>2026-09-01T19:59:35Z</time>
  <course>180.78</course>
  <speed>0.0</speed>
  <fix>3d</fix>
</trkpt>
<trkpt lat="-35.2824377" lon="149.0050247">
  <ele>583.68</ele>
  <time>2026-09-01T19:59:35Z</time>
  <course>3.06</course>
  <speed>0.0</speed>
  <fix>3d</fix>
</trkpt>
<trkpt lat="-35.2824377" lon="149.0050247">
  <ele>583.79</ele>
  <time>2026-09-01T19:59:35Z</time>
  <course>180.78</course>
  <speed>0.0</speed>
  <fix>3d</fix>
</trkpt>
<trkpt lat="-35.2824377" lon="149.0050247">
  <ele>583.88</ele>
  <time>2026-09-01T19:59:35Z</time>
  <course>3.06</course>
  <speed>0.0</speed>
  <fix>3d</fix>
</trkpt>
<trkpt lat="-35.2824377" lon="149.0050247">
  <ele>583.79</ele>
  <time>2026-09-01T19:59:35Z</time>
  <course>180.78</course>
  <speed>0.0</speed>
  <fix>3d</fix>
</trkpt>
<trkpt lat="-35.2824377" lon="149.0050247">
  <ele>583.89</ele>
  <time>2026-09-01T19:59:35Z</time>
  <course>3.06</course>
  <speed>0.0</speed>
  <fix>3d</fix>
</trkpt>
<trkpt lat="-35.2824377" lon="149.0050247">
  <ele>583.79</ele>
  <time>2026-09-01T19:59:35Z</time>
  <course>180.78</course>
  <speed>0.0</speed>
  <fix>3d</fix>
</trkpt>
<trkpt lat="-35.2824377" lon="149.0050247">
  <ele>583.82</ele>
  <time>2026-09-01T19:59:35Z</time>
  <course>3.07</course>
  <speed>0.0</speed>
  <fix>3d</fix>
</trkpt>
<trkpt lat="-35.2824377" lon="149.0050247">
  <ele>583.79</ele>
  <time>2026-09-01T19:59:35Z</time>
  <course>180.78</course>
  <speed>0.0</speed>
  <fix>3d</fix>
</trkpt>
<trkpt lat="-35.2824377" lon="149.0050247">
  <ele>583.79</ele>
  <time>2026-09-01T19:59:35Z</time>
  <course>3.07</course>
  <speed>0.0</speed>
  <fix>3d</fix>
</trkpt>
<trkpt lat="-35.2824377" lon="149.0050247">
  <ele>583.79</ele>
  <time>2026-09-01T19:59:35Z</time>
  <course>180.78</course>
  <speed>0.0</speed>
  <fix>3d</fix>
</trkpt>
<trkpt lat="-35.2824377" lon="149.0050247">
  <ele>583.81</ele>
  <time>2026-09-01T19:59:35Z</time>
  <course>3.07</course>
  <speed>0.0</speed>
  <fix>3d</fix>
</trkpt>
<trkpt lat="-35.2824377" lon="149.0050247">
  <ele>583.79</ele>
  <time>2026-09-01T19:59:35Z</time>
  <course>180.78</course>
  <speed>0.0</speed>
  <fix>3d</fix>
</trkpt>
<trkpt lat="-35.2824377" lon="149.0050247">
  <ele>583.63</ele>
  <time>2026-09-01T19:59:35Z</time>
  <course>3.07</course>
  <speed>0.0</speed>
  <fix>3d</fix>
</trkpt>
<trkpt lat="-35.2824377" lon="149.0050247">
  <ele>583.79</ele>
  <time>2026-09-01T19:59:35Z</time>
  <course>180.78</course>
  <speed>0.0</speed>
  <fix>3d</fix>
</trkpt>
<trkpt lat="-35.2824377" lon="149.0050247">
  <ele>583.94</ele>
  <time>2026-09-01T19:59:35Z</time>
  <course>3.07</course>
  <speed>0.0</speed>
  <fix>3d</fix>
</trkpt>
<trkpt lat="-35.2824377" lon="149.0050247">
  <ele>583.79</ele>
  <time>2026-09-01T19:59:35Z</time>
  <course>180.78</course>
  <speed>0.0</speed>
  <fix>3d</fix>
</trkpt>
<trkpt lat="-35.2824377" lon="149.0050247">
  <ele>583.61</ele>
  <time>2026-09-01T19:59:35Z</time>
  <course>3.07</course>
  <speed>0.0</speed>
  <fix>3d</fix>
</trkpt>
<trkpt lat="-35.2824377" lon="149.0050247">
  <ele>583.79</ele>
  <time>2026-09-01T19:59:35Z</time>
  <course>180.78</course>
  <speed>0.0</speed>
  <fix>3d</fix>
</trkpt>
<trkpt lat="-35.2824377" lon="149.0050247">
  <ele>583.76</ele>
  <time>2026-09-01T19:59:35Z</time>
  <course>3.07</course>
  <speed>0.0</speed>
  <fix>3d</fix>
</trkpt>
<trkpt lat="-35.2824377" lon="149.0050247">
  <ele>583.79</ele>
  <time>2026-09-01T19:59:35Z</time>
  <course>180.78</course>
  <speed>0.0</speed>
  <fix>3d</fix>
</trkpt>
<trkpt lat="-35.2824377" lon="149.0050247">
  <ele>583.92</ele>
  <time>2026-09-01T19:59:35Z</time>
  <course>3.07</course>
  <speed>0.0</speed>
  <fix>3d</fix>
</trkpt>
<trkpt lat="-35.2824377" lon="149.0050247">
  <ele>583.79</ele>
  <time>2026-09-01T19:59:35Z</time>
  <course>180.78</course>
  <speed>0.0</speed>
  <fix>3d</fix>
</trkpt>
<trkpt lat="-35.2824377" lon="149.0050247">
  <ele>583.7</ele>
  <time>2026-09-01T19:59:35Z</time>
  <course>3.07</course>
  <speed>0.0</speed>
  <fix>3d</fix>
</trkpt>
<trkpt lat="-35.2824377" lon="149.0050247">
  <ele>583.79</ele>
  <time>2026-09-01T19:59:35Z</time>
  <course>180.78</course>
  <speed>0.0</speed>
  <fix>3d</fix>
</trkpt>
<trkpt lat="-35.2824377" lon="149.0050247">
  <ele>583.79</ele>
  <time>2026-09-01T19:59:35Z</time>
  <course>3.07</course>
  <speed>0.0</speed>
  <fix>3d</fix>
</trkpt>
<trkpt lat="-35.2824377" lon="149.0050247">
  <ele>583.79</ele>
  <time>2026-09-01T19:59:35Z</time>
  <course>180.78</course>
  <speed>0.0</speed>
  <fix>3d</fix>
</trkpt>
<trkpt lat="-35.2824377" lon="149.0050247">
  <ele>583.68</ele>
  <time>2026-09-01T19:59:35Z</time>
  <course>3.07</course>
  <speed>0.0</speed>
  <fix>3d</fix>
</trkpt>
<trkpt lat="-35.2824377" lon="149.0050247">
  <ele>583.79</ele>
  <time>2026-09-01T19:59:35Z</time>
  <course>180.78</course>
  <speed>0.0</speed>
  <fix>3d</fix>
</trkpt>
<trkpt lat="-35.2824377" lon="149.0050247">
  <ele>583.56</ele>
  <time>2026-09-01T19:59:35Z</time>
  <course>3.07</course>
  <speed>0.0</speed>
  <fix>3d</fix>
</trkpt>
<trkpt lat="-35.2824377" lon="149.0050247">
  <ele>583.79</ele>
  <time>2026-09-01T19:59:35Z</time>
  <course>180.78</course>
  <speed>0.0</speed>
  <fix>3d</fix>
</trkpt>
<trkpt lat="-35.2824377" lon="149.0050247">
  <ele>583.79</ele>
  <time>2026-09-01T19:59:35Z</time>
  <course>3.07</course>
  <speed>0.0</speed>
  <fix>3d</fix>
</trkpt>
<trkpt lat="-35.2824377" lon="149.0050247">
  <ele>583.79</ele>
  <time>2026-09-01T19:59:35Z</time>
  <course>180.78</course>
  <speed>0.0</speed>
  <fix>3d</fix>
</trkpt>
<trkpt lat="-35.2824377" lon="149.0050247">
  <ele>583.68</ele>
  <time>2026-09-01T19:59:35Z</time>
  <course>3.08</course>
  <speed>0.0</speed>
  <fix>3d</fix>
</trkpt>
<trkpt lat="-35.2824377" lon="149.0050247">
  <ele>583.79</ele>
  <time>2026-09-01T19:59:35Z</time>
  <course>180.78</course>
  <speed>0.0</speed>
  <fix>3d</fix>
</trkpt>
<trkpt lat="-35.2824377" lon="149.0050247">
  <ele>583.6</ele>
  <time>2026-09-01T19:59:35Z</time>
  <course>3.08</course>
  <speed>0.0</speed>
  <fix>3d</fix>
</trkpt>
<trkpt lat="-35.2824377" lon="149.0050247">
  <ele>583.79</ele>
  <time>2026-09-01T19:59:35Z</time>
  <course>180.78</course>
  <speed>0.0</speed>
  <fix>3d</fix>
</trkpt>
<trkpt lat="-35.2824377" lon="149.0050247">
  <ele>583.58</ele>
  <time>2026-09-01T19:59:35Z</time>
  <course>3.08</course>
  <speed>0.0</speed>
  <fix>3d</fix>
</trkpt>
<trkpt lat="-35.2824377" lon="149.0050247">
  <ele>583.79</ele>
  <time>2026-09-01T19:59:35Z</time>
  <course>180.78</course>
  <speed>0.0</speed>
  <fix>3d</fix>
</trkpt>
<trkpt lat="-35.2824377" lon="149.0050247">
  <ele>583.56</ele>
  <time>2026-09-01T19:59:35Z</time>
  <course>3.08</course>
  <speed>0.0</speed>
  <fix>3d</fix>
</trkpt>
<trkpt lat="-35.2824377" lon="149.0050247">
  <ele>583.79</ele>
  <time>2026-09-01T19:59:35Z</time>
  <course>180.78</course>
  <speed>0.0</speed>
  <fix>3d</fix>
</trkpt>
<trkpt lat="-35.2824377" lon="149.0050247">
  <ele>583.81</ele>
  <time>2026-09-01T19:59:35Z</time>
  <course>3.08</course>
  <speed>0.0</speed>
  <fix>3d</fix>
</trkpt>
<trkpt lat="-35.2824377" lon="149.0050247">
  <ele>583.79</ele>
  <time>2026-09-01T19:59:35Z</time>
  <course>180.78</course>
  <speed>0.0</speed>
  <fix>3d</fix>
</trkpt>
<trkpt lat="-35.2824377" lon="149.0050247">
  <ele>583.68</ele>
  <time>2026-09-01T19:59:35Z</time>
  <course>3.08</course>
  <speed>0.0</speed>
  <fix>3d</fix>
</trkpt>
<trkpt lat="-35.2824377" lon="149.0050247">
  <ele>583.79</ele>
  <time>2026-09-01T19:59:35Z</time>
  <course>180.78</course>
  <speed>0.0</speed>
  <fix>3d</fix>
</trkpt>
<trkpt lat="-35.2824377" lon="149.0050247">
  <ele>583.82</ele>
  <time>2026-09-01T19:59:35Z</time>
  <course>3.08</course>
  <speed>0.0</speed>
  <fix>3d</fix>
</trkpt>
<trkpt lat="-35.2824377" lon="149.0050247">
  <ele>583.79</ele>
  <time>2026-09-01T19:59:35Z</time>
  <course>180.78</course>
  <speed>0.0</speed>
  <fix>3d</fix>
</trkpt>
<trkpt lat="-35.2824377" lon="149.0050247">
  <ele>583.69</ele>
  <time>2026-09-01T19:59:35Z</time>
  <course>3.08</course>
  <speed>0.0</speed>
  <fix>3d</fix>
</trkpt>
<trkpt lat="-35.2824377" lon="149.0050247">
  <ele>583.79</ele>
  <time>2026-09-01T19:59:35Z</time>
  <course>180.78</course>
  <speed>0.0</speed>
  <fix>3d</fix>
</trkpt>
<trkpt lat="-35.2824377" lon="149.0050247">
  <ele>583.85</ele>
  <time>2026-09-01T19:59:35Z</time>
  <course>3.08</course>
  <speed>0.0</speed>
  <fix>3d</fix>
</trkpt>
<trkpt lat="-35.2824377" lon="149.0050247">
  <ele>583.79</ele>
  <time>2026-09-01T19:59:35Z</time>
  <course>180.78</course>
  <speed>0.0</speed>
  <fix>3d</fix>
</trkpt>
<trkpt lat="-35.2824377" lon="149.0050247">
  <ele>583.68</ele>
  <time>2026-09-01T19:59:35Z</time>
  <course>3.08</course>
  <speed>0.0</speed>
  <fix>3d</fix>
</trkpt>
<trkpt lat="-35.2824377" lon="149.0050247">
  <ele>583.79</ele>
  <time>2026-09-01T19:59:35Z</time>
  <course>180.78</course>
  <speed>0.0</speed>
  <fix>3d</fix>
</trkpt>
<trkpt lat="-35.2824377" lon="149.0050247">
  <ele>583.68</ele>
  <time>2026-09-01T19:59:35Z</time>
  <course>3.08</course>
  <speed>0.0</speed>
  <fix>3d</fix>
</trkpt>
<trkpt lat="-35.2824377" lon="149.0050247">
  <ele>583.79</ele>
  <time>2026-09-01T19:59:35Z</time>
  <course>180.78</course>
  <speed>0.0</speed>
  <fix>3d</fix>
</trkpt>
<trkpt lat="-35.2824377" lon="149.0050247">
  <ele>583.86</ele>
  <time>2026-09-01T19:59:35Z</time>
  <course>3.08</course>
  <speed>0.0</speed>
  <fix>3d</fix>
</trkpt>
<trkpt lat="-35.2824377" lon="149.0050247">
  <ele>583.79</ele>
  <time>2026-09-01T19:59:35Z</time>
  <course>180.78</course>
  <speed>0.0</speed>
  <fix>3d</fix>
</trkpt>
<trkpt lat="-35.2824377" lon="149.0050247">
  <ele>583.85</ele>
  <time>2026-09-01T19:59:35Z</time>
  <course>3.08</course>
  <speed>0.0</speed>
  <fix>3d</fix>
</trkpt>
<trkpt lat="-35.2824377" lon="149.0050247">
  <ele>583.79</ele>
  <time>2026-09-01T19:59:35Z</time>
  <course>180.78</course>
  <speed>0.0</speed>
  <fix>3d</fix>
</trkpt>
<trkpt lat="-35.2824377" lon="149.0050247">
  <ele>583.56</ele>
  <time>2026-09-01T19:59:35Z</time>
  <course>3.08</course>
  <speed>0.0</speed>
  <fix>3d</fix>
</trkpt>
<trkpt lat="-35.2824377" lon="149.0050247">
  <ele>583.79</ele>
  <time>2026-09-01T19:59:35Z</time>
  <course>180.78</course>
  <speed>0.0</speed>
  <fix>3d</fix>
</trkpt>
<trkpt lat="-35.2824377" lon="149.0050247">
  <ele>583.87</ele>
  <time>2026-09-01T19:59:35Z</time>
  <course>3.08</course>
  <speed>0.0</speed>
  <fix>3d</fix>
</trkpt>
<trkpt lat="-35.2824377" lon="149.0050247">
  <ele>583.79</ele>
  <time>2026-09-01T19:59:35Z</time>
  <course>180.78</course>
  <speed>0.0</speed>
  <fix>3d</fix>
</trkpt>
<trkpt lat="-35.2824377" lon="149.0050247">
  <ele>583.85</ele>
  <time>2026-09-01T19:59:35Z</time>
  <course>3.08</course>
  <speed>0.0</speed>
  <fix>3d</fix>
</trkpt>
<trkpt lat="-35.2824377" lon="149.0050247">
  <ele>583.79</ele>
  <time>2026-09-01T19:59:35Z</time>
  <course>180.78</course>
  <speed>0.0</speed>
  <fix>3d</fix>
</trkpt>
<trkpt lat="-35.2824377" lon="149.0050247">
  <ele>583.9</ele>
  <time>2026-09-01T19:59:35Z</time>
  <course>3.08</course>
  <speed>0.0</speed>
  <fix>3d</fix>
</trkpt>
<trkpt lat="-35.2824377" lon="149.0050247">
  <ele>583.79</ele>
  <time>2026-09-01T19:59:35Z</time>
  <course>180.78</course>
  <speed>0.0</speed>
  <fix>3d</fix>
</trkpt>
<trkpt lat="-35.2824377" lon="149.0050247">
  <ele>583.9</ele>
  <time>2026-09-01T19:59:35Z</time>
  <course>3.08</course>
  <speed>0.0</speed>
  <fix>3d</fix>
</trkpt>
<trkpt lat="-35.2824377" lon="149.0050247">
  <ele>583.79</ele>
  <time>2026-09-01T19:59:35Z</time>
  <course>180.78</course>
  <speed>0.0</speed>
  <fix>3d</fix>
</trkpt>
<trkpt lat="-35.2824377" lon="149.0050247">
  <ele>583.93</ele>
  <time>2026-09-01T19:59:35Z</time>
  <course>3.08</course>
  <speed>0.0</speed>
  <fix>3d</fix>
</trkpt>
<trkpt lat="-35.2824377" lon="149.0050247">
  <ele>583.79</ele>
  <time>2026-09-01T19:59:35Z</time>
  <course>180.78</course>
  <speed>0.0</speed>
  <fix>3d</fix>
</trkpt>
<trkpt lat="-35.2824377" lon="149.0050247">
  <ele>583.69</ele>
  <time>2026-09-01T19:59:35Z</time>
  <course>3.08</course>
  <speed>0.0</speed>
  <fix>3d</fix>
</trkpt>
<trkpt lat="-35.2824377" lon="149.0050247">
  <ele>583.79</ele>
  <time>2026-09-01T19:59:35Z</time>
  <course>180.78</course>
  <speed>0.0</speed>
  <fix>3d</fix>
</trkpt>
<trkpt lat="-35.2824377" lon="149.0050247">
  <ele>583.79</ele>
  <time>2026-09-01T19:59:35Z</time>
  <course>3.08</course>
  <speed>0.0</speed>
  <fix>3d</fix>
</trkpt>
<trkpt lat="-35.2824377" lon="149.0050247">
  <ele>583.79</ele>
  <time>2026-09-01T19:59:35Z</time>
  <course>180.78</course>
  <speed>0.0</speed>
  <fix>3d</fix>
</trkpt>
<trkpt lat="-35.2824377" lon="149.0050247">
  <ele>583.73</ele>
  <time>2026-09-01T19:59:35Z</time>
  <course>3.08</course>
  <speed>0.0</speed>
  <fix>3d</fix>
</trkpt>
<trkpt lat="-35.2824377" lon="149.0050247">
  <ele>583.79</ele>
  <time>2026-09-01T19:59:35Z</time>
  <course>180.78</course>
  <speed>0.0</speed>
  <fix>3d</fix>
</trkpt>
<trkpt lat="-35.2824377" lon="149.0050247">
  <ele>583.56</ele>
  <time>2026-09-01T19:59:35Z</time>
  <course>3.08</course>
  <speed>0.0</speed>
  <fix>3d</fix>
</trkpt>
<trkpt lat="-35.2824377" lon="149.0050247">
  <ele>583.79</ele>
  <time>2026-09-01T19:59:35Z</time>
  <course>180.78</course>
  <speed>0.0</speed>
  <fix>3d</fix>
</trkpt>
<trkpt lat="-35.2824377" lon="149.0050247">
  <ele>583.61</ele>
  <time>2026-09-01T19:59:35Z</time>
  <course>3.08</course>
  <speed>0.0</speed>
  <fix>3d</fix>
</trkpt>
<trkpt lat="-35.2824377" lon="149.0050247">
  <ele>583.79</ele>
  <time>2026-09-01T19:59:35Z</time>
  <course>180.78</course>
  <speed>0.0</speed>
  <fix>3d</fix>
</trkpt>
<trkpt lat="-35.2824377" lon="149.0050247">
  <ele>583.65</ele>
  <time>2026-09-01T19:59:35Z</time>
  <course>3.08</course>
  <speed>0.0</speed>
  <fix>3d</fix>
</trkpt>
<trkpt lat="-35.2824377" lon="149.0050247">
  <ele>583.79</ele>
  <time>2026-09-01T19:59:35Z</time>
  <course>180.78</course>
  <speed>0.0</speed>
  <fix>3d</fix>
</trkpt>
<trkpt lat="-35.2824377" lon="149.0050247">
  <ele>583.84</ele>
  <time>2026-09-01T19:59:35Z</time>
  <course>3.08</course>
  <speed>0.0</speed>
  <fix>3d</fix>
</trkpt>
<trkpt lat="-35.2824377" lon="149.0050247">
  <ele>583.79</ele>
  <time>2026-09-01T19:59:35Z</time>
  <course>180.78</course>
  <speed>0.0</speed>
  <fix>3d</fix>
</trkpt>
<trkpt lat="-35.2824377" lon="149.0050247">
  <ele>583.85</ele>
  <time>2026-09-01T19:59:35Z</time>
  <course>3.08</course>
  <speed>0.0</speed>
  <fix>3d</fix>
</trkpt>
<trkpt lat="-35.2824377" lon="149.0050247">
  <ele>583.79</ele>
  <time>2026-09-01T19:59:35Z</time>
  <course>180.78</course>
  <speed>0.0</speed>
  <fix>3d</fix>
</trkpt>
<trkpt lat="-35.2824377" lon="149.0050247">
  <ele>583.88</ele>
  <time>2026-09-01T19:59:35Z</time>
  <course>3.09</course>
  <speed>0.0</speed>
  <fix>3d</fix>
</trkpt>
<trkpt lat="-35.2824377" lon="149.0050247">
  <ele>583.79</ele>
  <time>2026-09-01T19:59:35Z</time>
  <course>180.78</course>
  <speed>0.0</speed>
  <fix>3d</fix>
</trkpt>
<trkpt lat="-35.2824377" lon="149.0050247">
  <ele>583.82</ele>
  <time>2026-09-01T19:59:35Z</time>
  <course>3.1</course>
  <speed>0.0</speed>
  <fix>3d</fix>
</trkpt>
<trkpt lat="-35.2824377" lon="149.0050247">
  <ele>583.79</ele>
  <time>2026-09-01T19:59:35Z</time>
  <course>180.78</course>
  <speed>0.0</speed>
  <fix>3d</fix>
</trkpt>
<trkpt lat="-35.2824377" lon="149.0050247">
  <ele>583.77</ele>
  <time>2026-09-01T19:59:35Z</time>
  <course>2.99</course>
  <speed>0.0</speed>
  <fix>3d</fix>
</trkpt>
<trkpt lat="-35.2824377" lon="149.0050247">
  <ele>583.79</ele>
  <time>2026-09-01T19:59:35Z</time>
  <course>180.78</course>
  <speed>0.0</speed>
  <fix>3d</fix>
</trkpt>
<trkpt lat="-35.2824377" lon="149.0050247">
  <ele>583.77</ele>
  <time>2026-09-01T19:59:35Z</time>
  <course>2.99</course>
  <speed>0.0</speed>
  <fix>3d</fix>
</trkpt>
<trkpt lat="-35.2824377" lon="149.0050247">
  <ele>583.79</ele>
  <time>2026-09-01T19:59:35Z</time>
  <course>180.78</course>
  <speed>0.0</speed>
  <fix>3d</fix>
</trkpt>
<trkpt lat="-35.2824377" lon="149.0050247">
  <ele>583.78</ele>
  <time>2026-09-01T19:59:35Z</time>
  <course>2.99</course>
  <speed>0.0</speed>
  <fix>3d</fix>
</trkpt>
<trkpt lat="-35.2824377" lon="149.0050247">
  <ele>583.79</ele>
  <time>2026-09-01T19:59:35Z</time>
  <course>180.78</course>
  <speed>0.0</speed>
  <fix>3d</fix>
</trkpt>
<trkpt lat="-35.2824377" lon="149.0050247">
  <ele>583.78</ele>
  <time>2026-09-01T19:59:35Z</time>
  <course>2.99</course>
  <speed>0.0</speed>
  <fix>3d</fix>
</trkpt>
<trkpt lat="-35.2824377" lon="149.0050247">
  <ele>583.79</ele>
  <time>2026-09-01T19:59:35Z</time>
  <course>180.78</course>
  <speed>0.0</speed>
  <fix>3d</fix>
</trkpt>
<trkpt lat="-35.2824377" lon="149.0050247">
  <ele>583.78</ele>
  <time>2026-09-01T19:59:35Z</time>
  <course>2.99</course>
  <speed>0.0</speed>
  <fix>3d</fix>
</trkpt>
<trkpt lat="-35.2824377" lon="149.0050247">
  <ele>583.79</ele>
  <time>2026-09-01T19:59:35Z</time>
  <course>180.78</course>
  <speed>0.0</speed>
  <fix>3d</fix>
</trkpt>
<trkpt lat="-35.2824377" lon="149.0050247">
  <ele>583.78</ele>
  <time>2026-09-01T19:59:35Z</time>
  <course>2.99</course>
  <speed>0.0</speed>
  <fix>3d</fix>
</trkpt>
<trkpt lat="-35.2824377" lon="149.0050247">
  <ele>583.79</ele>
  <time>2026-09-01T19:59:35Z</time>
  <course>180.78</course>
  <speed>0.0</speed>
  <fix>3d</fix>
</trkpt>
<trkpt lat="-35.2824377" lon="149.0050247">
  <ele>583.78</ele>
  <time>2026-09-01T19:59:35Z</time>
  <course>2.99</course>
  <speed>0.0</speed>
  <fix>3d</fix>
</trkpt>
<trkpt lat="-35.2824377" lon="149.0050247">
  <ele>583.79</ele>
  <time>2026-09-01T19:59:35Z</time>
  <course>180.78</course>
  <speed>0.0</speed>
  <fix>3d</fix>
</trkpt>
<trkpt lat="-35.2824377" lon="149.0050247">
  <ele>583.79</ele>
  <time>2026-09-01T19:59:35Z</time>
  <course>2.99</course>
  <speed>0.0</speed>
  <fix>3d</fix>
</trkpt>
<trkpt lat="-35.2824377" lon="149.0050247">
  <ele>583.79</ele>
  <time>2026-09-01T19:59:35Z</time>
  <course>180.78</course>
  <speed>0.0</speed>
  <fix>3d</fix>
</trkpt>
<trkpt lat="-35.2824377" lon="149.0050247">
  <ele>583.79</ele>
  <time>2026-09-01T19:59:35Z</time>
  <course>2.99</course>
  <speed>0.0</speed>
  <fix>3d</fix>
</trkpt>
<trkpt lat="-35.2824377" lon="149.0050247">
  <ele>583.79</ele>
  <time>2026-09-01T19:59:35Z</time>
  <course>180.78</course>
  <speed>0.0</speed>
  <fix>3d</fix>
</trkpt>
<trkpt lat="-35.2824377" lon="149.0050247">
  <ele>583.8</ele>
  <time>2026-09-01T19:59:35Z</time>
  <course>2.99</course>
  <speed>0.0</speed>
  <fix>3d</fix>
</trkpt>
<trkpt lat="-35.2824377" lon="149.0050247">
  <ele>583.79</ele>
  <time>2026-09-01T19:59:35Z</time>
  <course>180.78</course>
  <speed>0.0</speed>
  <fix>3d</fix>
</trkpt>
<trkpt lat="-35.2824377" lon="149.0050247">
  <ele>583.8</ele>
  <time>2026-09-01T19:59:35Z</time>
  <course>2.99</course>
  <speed>0.0</speed>
  <fix>3d</fix>
</trkpt>
<trkpt lat="-35.2824377" lon="149.0050247">
  <ele>583.79</ele>
  <time>2026-09-01T19:59:35Z</time>
  <course>180.78</course>
  <speed>0.0</speed>
  <fix>3d</fix>
</trkpt>
<trkpt lat="-35.2824377" lon="149.0050247">
  <ele>583.8</ele>
  <time>2026-09-01T19:59:35Z</time>
  <course>2.98</course>
  <speed>0.0</speed>
  <fix>3d</fix>
</trkpt>
<trkpt lat="-35.2824377" lon="149.0050247">
  <ele>583.79</ele>
  <time>2026-09-01T19:59:35Z</time>
  <course>180.78</course>
  <speed>0.0</speed>
  <fix>3d</fix>
</trkpt>
<trkpt lat="-35.2824377" lon="149.0050247">
  <ele>583.78</ele>
  <time>2026-09-01T19:59:35Z</time>
  <course>2.98</course>
  <speed>0.0</speed>
  <fix>3d</fix>
</trkpt>
<trkpt lat="-35.2824377" lon="149.0050247">
  <ele>583.79</ele>
  <time>2026-09-01T19:59:35Z</time>
  <course>180.78</course>
  <speed>0.0</speed>
  <fix>3d</fix>
</trkpt>
<trkpt lat="-35.2824377" lon="149.0050247">
  <ele>583.78</ele>
  <time>2026-09-01T19:59:35Z</time>
  <course>2.98</course>
  <speed>0.0</speed>
  <fix>3d</fix>
</trkpt>
<trkpt lat="-35.2824377" lon="149.0050247">
  <ele>583.79</ele>
  <time>2026-09-01T19:59:35Z</time>
  <course>180.78</course>
  <speed>0.0</speed>
  <fix>3d</fix>
</trkpt>
<trkpt lat="-35.2824377" lon="149.0050247">
  <ele>583.78</ele>
  <time>2026-09-01T19:59:35Z</time>
  <course>2.98</course>
  <speed>0.0</speed>
  <fix>3d</fix>
</trkpt>
<trkpt lat="-35.2824377" lon="149.0050247">
  <ele>583.79</ele>
  <time>2026-09-01T19:59:35Z</time>
  <course>180.78</course>
  <speed>0.0</speed>
  <fix>3d</fix>
</trkpt>
<trkpt lat="-35.2824377" lon="149.0050247">
  <ele>583.78</ele>
  <time>2026-09-01T19:59:35Z</time>
  <course>2.98</course>
  <speed>0.0</speed>
  <fix>3d</fix>
</trkpt>
<trkpt lat="-35.2824377" lon="149.0050247">
  <ele>583.79</ele>
  <time>2026-09-01T19:59:35Z</time>
  <course>180.78</course>
  <speed>0.0</speed>
  <fix>3d</fix>
</trkpt>
<trkpt lat="-35.2824377" lon="149.0050247">
  <ele>583.77</ele>
  <time>2026-09-01T19:59:35Z</time>
  <course>2.98</course>
  <speed>0.0</speed>
  <fix>3d</fix>
</trkpt>
<trkpt lat="-35.2824377" lon="149.0050247">
  <ele>583.79</ele>
  <time>2026-09-01T19:59:35Z</time>
  <course>180.78</course>
  <speed>0.0</speed>
  <fix>3d</fix>
</trkpt>
<trkpt lat="-35.2824377" lon="149.0050247">
  <ele>583.77</ele>
  <time>2026-09-01T19:59:35Z</time>
  <course>2.98</course>
  <speed>0.0</speed>
  <fix>3d</fix>
</trkpt>
<trkpt lat="-35.2824377" lon="149.0050247">
  <ele>583.79</ele>
  <time>2026-09-01T19:59:35Z</time>
  <course>180.78</course>
  <speed>0.0</speed>
  <fix>3d</fix>
</trkpt>
<trkpt lat="-35.2824377" lon="149.0050247">
  <ele>583.78</ele>
  <time>2026-09-01T19:59:35Z</time>
  <course>2.98</course>
  <speed>0.0</speed>
  <fix>3d</fix>
</trkpt>
<trkpt lat="-35.2824377" lon="149.0050247">
  <ele>583.79</ele>
  <time>2026-09-01T19:59:35Z</time>
  <course>180.78</course>
  <speed>0.0</speed>
  <fix>3d</fix>
</trkpt>
<trkpt lat="-35.2824377" lon="149.0050247">
  <ele>583.77</ele>
  <time>2026-09-01T19:59:35Z</time>
  <course>2.98</course>
  <speed>0.0</speed>
  <fix>3d</fix>
</trkpt>
<trkpt lat="-35.2824377" lon="149.0050247">
  <ele>583.79</ele>
  <time>2026-09-01T19:59:35Z</time>
  <course>180.78</course>
  <speed>0.0</speed>
  <fix>3d</fix>
</trkpt>
<trkpt lat="-35.2824377" lon="149.0050247">
  <ele>583.77</ele>
  <time>2026-09-01T19:59:35Z</time>
  <course>2.98</course>
  <speed>0.0</speed>
  <fix>3d</fix>
</trkpt>
<trkpt lat="-35.2824377" lon="149.0050247">
  <ele>583.79</ele>
  <time>2026-09-01T19:59:35Z</time>
  <course>180.78</course>
  <speed>0.0</speed>
  <fix>3d</fix>
</trkpt>
<trkpt lat="-35.2824377" lon="149.0050247">
  <ele>583.77</ele>
  <time>2026-09-01T19:59:35Z</time>
  <course>2.98</course>
  <speed>0.0</speed>
  <fix>3d</fix>
</trkpt>
<trkpt lat="-35.2824377" lon="149.0050247">
  <ele>583.79</ele>
  <time>2026-09-01T19:59:35Z</time>
  <course>180.78</course>
  <speed>0.0</speed>
  <fix>3d</fix>
</trkpt>
<trkpt lat="-35.2824377" lon="149.0050247">
  <ele>583.77</ele>
  <time>2026-09-01T19:59:35Z</time>
  <course>2.98</course>
  <speed>0.0</speed>
  <fix>3d</fix>
</trkpt>
<trkpt lat="-35.2824377" lon="149.0050247">
  <ele>583.79</ele>
  <time>2026-09-01T19:59:35Z</time>
  <course>180.78</course>
  <speed>0.0</speed>
  <fix>3d</fix>
</trkpt>
<trkpt lat="-35.2824377" lon="149.0050247">
  <ele>583.77</ele>
  <time>2026-09-01T19:59:35Z</time>
  <course>2.98</course>
  <speed>0.0</speed>
  <fix>3d</fix>
</trkpt>
<trkpt lat="-35.2824377" lon="149.0050247">
  <ele>583.79</ele>
  <time>2026-09-01T19:59:35Z</time>
  <course>180.78</course>
  <speed>0.0</speed>
  <fix>3d</fix>
</trkpt>
<trkpt lat="-35.2824377" lon="149.0050247">
  <ele>583.77</ele>
  <time>2026-09-01T19:59:35Z</time>
  <course>2.98</course>
  <speed>0.0</speed>
  <fix>3d</fix>
</trkpt>
<trkpt lat="-35.2824377" lon="149.0050247">
  <ele>583.79</ele>
  <time>2026-09-01T19:59:35Z</time>
  <course>180.78</course>
  <speed>0.0</speed>
  <fix>3d</fix>
</trkpt>
<trkpt lat="-35.2824377" lon="149.0050247">
  <ele>583.77</ele>
  <time>2026-09-01T19:59:35Z</time>
  <course>2.98</course>
  <speed>0.0</speed>
  <fix>3d</fix>
</trkpt>
<trkpt lat="-35.2824377" lon="149.0050247">
  <ele>583.79</ele>
  <time>2026-09-01T19:59:35Z</time>
  <course>180.78</course>
  <speed>0.0</speed>
  <fix>3d</fix>
</trkpt>
<trkpt lat="-35.2824377" lon="149.0050247">
  <ele>583.77</ele>
  <time>2026-09-01T19:59:35Z</time>
  <course>2.98</course>
  <speed>0.0</speed>
  <fix>3d</fix>
</trkpt>
<trkpt lat="-35.2824377" lon="149.0050247">
  <ele>583.79</ele>
  <time>2026-09-01T19:59:35Z</time>
  <course>180.78</course>
  <speed>0.0</speed>
  <fix>3d</fix>
</trkpt>
<trkpt lat="-35.2824377" lon="149.0050247">
  <ele>583.77</ele>
  <time>2026-09-01T19:59:35Z</time>
  <course>2.98</course>
  <speed>0.0</speed>
  <fix>3d</fix>
</trkpt>
<trkpt lat="-35.2824377" lon="149.0050247">
  <ele>583.79</ele>
  <time>2026-09-01T19:59:35Z</time>
  <course>180.78</course>
  <speed>0.0</speed>
  <fix>3d</fix>
</trkpt>
<trkpt lat="-35.2824377" lon="149.0050247">
  <ele>583.78</ele>
  <time>2026-09-01T19:59:35Z</time>
  <course>2.98</course>
  <speed>0.0</speed>
  <fix>3d</fix>
</trkpt>
<trkpt lat="-35.2824377" lon="149.0050247">
  <ele>583.79</ele>
  <time>2026-09-01T19:59:35Z</time>
  <course>180.78</course>
  <speed>0.0</speed>
  <fix>3d</fix>
</trkpt>
<trkpt lat="-35.2824377" lon="149.0050247">
  <ele>583.78</ele>
  <time>2026-09-01T19:59:35Z</time>
  <course>2.98</course>
  <speed>0.0</speed>
  <fix>3d</fix>
</trkpt>
<trkpt lat="-35.2824377" lon="149.0050247">
  <ele>583.79</ele>
  <time>2026-09-01T19:59:35Z</time>
  <course>180.78</course>
  <speed>0.0</speed>
  <fix>3d</fix>
</trkpt>
<trkpt lat="-35.2824377" lon="149.0050247">
  <ele>583.78</ele>
  <time>2026-09-01T19:59:35Z</time>
  <course>2.98</course>
  <speed>0.0</speed>
  <fix>3d</fix>
</trkpt>
<trkpt lat="-35.2824377" lon="149.0050247">
  <ele>583.79</ele>
  <time>2026-09-01T19:59:35Z</time>
  <course>180.78</course>
  <speed>0.0</speed>
  <fix>3d</fix>
</trkpt>
<trkpt lat="-35.2824377" lon="149.0050247">
  <ele>583.78</ele>
  <time>2026-09-01T19:59:35Z</time>
  <course>2.98</course>
  <speed>0.0</speed>
  <fix>3d</fix>
</trkpt>
<trkpt lat="-35.2824377" lon="149.0050247">
  <ele>583.79</ele>
  <time>2026-09-01T19:59:35Z</time>
  <course>180.78</course>
  <speed>0.0</speed>
  <fix>3d</fix>
</trkpt>
<trkpt lat="-35.2824377" lon="149.0050247">
  <ele>583.78</ele>
  <time>2026-09-01T19:59:35Z</time>
  <course>2.98</course>
  <speed>0.0</speed>
  <fix>3d</fix>
</trkpt>
<trkpt lat="-35.2824377" lon="149.0050247">
  <ele>583.79</ele>
  <time>2026-09-01T19:59:35Z</time>
  <course>180.78</course>
  <speed>0.0</speed>
  <fix>3d</fix>
</trkpt>
<trkpt lat="-35.2824377" lon="149.0050247">
  <ele>583.77</ele>
  <time>2026-09-01T19:59:35Z</time>
  <course>2.98</course>
  <speed>0.0</speed>
  <fix>3d</fix>
</trkpt>
<trkpt lat="-35.2824377" lon="149.0050247">
  <ele>583.79</ele>
  <time>2026-09-01T19:59:35Z</time>
  <course>180.78</course>
  <speed>0.0</speed>
  <fix>3d</fix>
</trkpt>
<trkpt lat="-35.2824377" lon="149.0050247">
  <ele>583.77</ele>
  <time>2026-09-01T19:59:35Z</time>
  <course>2.98</course>
  <speed>0.0</speed>
  <fix>3d</fix>
</trkpt>
<trkpt lat="-35.2824377" lon="149.0050247">
  <ele>583.79</ele>
  <time>2026-09-01T19:59:35Z</time>
  <course>180.78</course>
  <speed>0.0</speed>
  <fix>3d</fix>
</trkpt>
<trkpt lat="-35.2824377" lon="149.0050247">
  <ele>583.77</ele>
  <time>2026-09-01T19:59:35Z</time>
  <course>2.98</course>
  <speed>0.0</speed>
  <fix>3d</fix>
</trkpt>
<trkpt lat="-35.2824377" lon="149.0050247">
  <ele>583.79</ele>
  <time>2026-09-01T19:59:35Z</time>
  <course>180.78</course>
  <speed>0.0</speed>
  <fix>3d</fix>
</trkpt>
<trkpt lat="-35.2824377" lon="149.0050247">
  <ele>583.77</ele>
  <time>2026-09-01T19:59:35Z</time>
  <course>2.98</course>
  <speed>0.0</speed>
  <fix>3d</fix>
</trkpt>
<trkpt lat="-35.2824377" lon="149.0050247">
  <ele>583.79</ele>
  <time>2026-09-01T19:59:35Z</time>
  <course>180.78</course>
  <speed>0.0</speed>
  <fix>3d</fix>
</trkpt>
<trkpt lat="-35.2824377" lon="149.0050247">
  <ele>583.77</ele>
  <time>2026-09-01T19:59:35Z</time>
  <course>2.98</course>
  <speed>0.0</speed>
  <fix>3d</fix>
</trkpt>
<trkpt lat="-35.2824377" lon="149.0050247">
  <ele>583.79</ele>
  <time>2026-09-01T19:59:35Z</time>
  <course>180.78</course>
  <speed>0.0</speed>
  <fix>3d</fix>
</trkpt>
<trkpt lat="-35.2824377" lon="149.0050247">
  <ele>583.77</ele>
  <time>2026-09-01T19:59:35Z</time>
  <course>2.98</course>
  <speed>0.0</speed>
  <fix>3d</fix>
</trkpt>
<trkpt lat="-35.2824377" lon="149.0050247">
  <ele>583.79</ele>
  <time>2026-09-01T19:59:35Z</time>
  <course>180.78</course>
  <speed>0.0</speed>
  <fix>3d</fix>
</trkpt>
<trkpt lat="-35.2824377" lon="149.0050247">
  <ele>583.77</ele>
  <time>2026-09-01T19:59:35Z</time>
  <course>2.98</course>
  <speed>0.0</speed>
  <fix>3d</fix>
</trkpt>
<trkpt lat="-35.2824377" lon="149.0050247">
  <ele>583.76</ele>
  <time>2026-09-01T19:59:35Z</time>
  <course>2.98</course>
  <speed>0.0</speed>
  <fix>3d</fix>
</trkpt>
<trkpt lat="-35.2824377" lon="149.0050247">
  <ele>583.79</ele>
  <time>2026-09-01T19:59:35Z</time>
  <course>180.78</course>
  <speed>0.0</speed>
  <fix>3d</fix>
</trkpt>
<trkpt lat="-35.2824377" lon="149.0050247">
  <ele>583.76</ele>
  <time>2026-09-01T19:59:35Z</time>
  <course>2.98</course>
  <speed>0.0</speed>
  <fix>3d</fix>
</trkpt>
<trkpt lat="-35.2824377" lon="149.0050247">
  <ele>583.76</ele>
  <time>2026-09-01T19:59:35Z</time>
  <course>2.98</course>
  <speed>0.0</speed>
  <fix>3d</fix>
</trkpt>
<trkpt lat="-35.2824377" lon="149.0050247">
  <ele>583.79</ele>
  <time>2026-09-01T19:59:35Z</time>
  <course>115.15</course>
  <speed>0.0</speed>
  <fix>3d</fix>
</trkpt>
<trkpt lat="-35.2824377" lon="149.0050247">
  <ele>583.76</ele>
  <time>2026-09-01T19:59:35Z</time>
  <course>2.98</course>
  <speed>0.0</speed>
  <fix>3d</fix>
</trkpt>
<trkpt lat="-35.2824377" lon="149.0050247">
  <ele>583.76</ele>
  <time>2026-09-01T19:59:35Z</time>
  <course>2.98</course>
  <speed>0.0</speed>
  <fix>3d</fix>
</trkpt>
<trkpt lat="-35.2824377" lon="149.0050247">
  <ele>583.79</ele>
  <time>2026-09-01T19:59:35Z</time>
  <course>115.15</course>
  <speed>0.0</speed>
  <fix>3d</fix>
</trkpt>
<trkpt lat="-35.2824377" lon="149.0050247">
  <ele>583.76</ele>
  <time>2026-09-01T19:59:35Z</time>
  <course>2.98</course>
  <speed>0.0</speed>
  <fix>3d</fix>
</trkpt>
<trkpt lat="-35.2824377" lon="149.0050247">
  <ele>583.76</ele>
  <time>2026-09-01T19:59:35Z</time>
  <course>2.98</course>
  <speed>0.0</speed>
  <fix>3d</fix>
</trkpt>
<trkpt lat="-35.2824377" lon="149.0050247">
  <ele>583.79</ele>
  <time>2026-09-01T19:59:35Z</time>
  <course>111.09</course>
  <speed>0.0</speed>
  <fix>3d</fix>
</trkpt>
<trkpt lat="-35.2824377" lon="149.0050247">
  <ele>583.76</ele>
  <time>2026-09-01T19:59:35Z</time>
  <course>2.98</course>
  <speed>0.0</speed>
  <fix>3d</fix>
</trkpt>
<trkpt lat="-35.2824377" lon="149.0050247">
  <ele>583.76</ele>
  <time>2026-09-01T19:59:35Z</time>
  <course>2.98</course>
  <speed>0.0</speed>
  <fix>3d</fix>
</trkpt>
<trkpt lat="-35.2824377" lon="149.0050247">
  <ele>583.79</ele>
  <time>2026-09-01T19:59:35Z</time>
  <course>111.09</course>
  <speed>0.0</speed>
  <fix>3d</fix>
</trkpt>
<trkpt lat="-35.2824377" lon="149.0050247">
  <ele>583.76</ele>
  <time>2026-09-01T19:59:35Z</time>
  <course>2.98</course>
  <speed>0.0</speed>
  <fix>3d</fix>
</trkpt>
<trkpt lat="-35.2824377" lon="149.0050247">
  <ele>583.76</ele>
  <time>2026-09-01T19:59:35Z</time>
  <course>2.98</course>
  <speed>0.0</speed>
  <fix>3d</fix>
</trkpt>
<trkpt lat="-35.2824377" lon="149.0050247">
  <ele>583.79</ele>
  <time>2026-09-01T19:59:35Z</time>
  <course>289.07</course>
  <speed>0.0</speed>
  <fix>3d</fix>
</trkpt>
<trkpt lat="-35.2824377" lon="149.0050247">
  <ele>583.76</ele>
  <time>2026-09-01T19:59:35Z</time>
  <course>2.98</course>
  <speed>0.0</speed>
  <fix>3d</fix>
</trkpt>
<trkpt lat="-35.2824377" lon="149.0050247">
  <ele>583.76</ele>
  <time>2026-09-01T19:59:35Z</time>
  <course>2.98</course>
  <speed>0.0</speed>
  <fix>3d</fix>
</trkpt>
<trkpt lat="-35.2824377" lon="149.0050247">
  <ele>583.79</ele>
  <time>2026-09-01T19:59:35Z</time>
  <course>289.07</course>
  <speed>0.0</speed>
  <fix>3d</fix>
</trkpt>
<trkpt lat="-35.2824377" lon="149.0050247">
  <ele>583.76</ele>
  <time>2026-09-01T19:59:35Z</time>
  <course>2.98</course>
  <speed>0.0</speed>
  <fix>3d</fix>
</trkpt>
<trkpt lat="-35.2824377" lon="149.0050247">
  <ele>583.76</ele>
  <time>2026-09-01T19:59:35Z</time>
  <course>2.98</course>
  <speed>0.0</speed>
  <fix>3d</fix>
</trkpt>
<trkpt lat="-35.2824377" lon="149.0050247">
  <ele>583.79</ele>
  <time>2026-09-01T19:59:35Z</time>
  <course>292.33</course>
  <speed>0.0</speed>
  <fix>3d</fix>
</trkpt>
<trkpt lat="-35.2824377" lon="149.0050247">
  <ele>583.76</ele>
  <time>2026-09-01T19:59:35Z</time>
  <course>2.98</course>
  <speed>0.0</speed>
  <fix>3d</fix>
</trkpt>
<trkpt lat="-35.2824377" lon="149.0050247">
  <ele>583.77</ele>
  <time>2026-09-01T19:59:35Z</time>
  <course>2.98</course>
  <speed>0.0</speed>
  <fix>3d</fix>
</trkpt>
<trkpt lat="-35.2824377" lon="149.0050247">
  <ele>583.79</ele>
  <time>2026-09-01T19:59:35Z</time>
  <course>292.33</course>
  <speed>0.0</speed>
  <fix>3d</fix>
</trkpt>
<trkpt lat="-35.2824377" lon="149.0050247">
  <ele>583.78</ele>
  <time>2026-09-01T19:59:35Z</time>
  <course>2.98</course>
  <speed>0.0</speed>
  <fix>3d</fix>
</trkpt>
<trkpt lat="-35.2824377" lon="149.0050247">
  <ele>583.8</ele>
  <time>2026-09-01T19:59:35Z</time>
  <course>2.98</course>
  <speed>0.0</speed>
  <fix>3d</fix>
</trkpt>
<trkpt lat="-35.2824377" lon="149.0050247">
  <ele>583.8</ele>
  <time>2026-09-01T19:59:35Z</time>
  <course>359.95</course>
  <speed>0.0</speed>
  <fix>3d</fix>
</trkpt>
<trkpt lat="-35.2824377" lon="149.0050247">
  <ele>583.82</ele>
  <time>2026-09-01T19:59:35Z</time>
  <course>2.98</course>
  <speed>0.0</speed>
  <fix>3d</fix>
</trkpt>
<trkpt lat="-35.2824377" lon="149.0050247">
  <ele>583.85</ele>
  <time>2026-09-01T19:59:35Z</time>
  <course>2.98</course>
  <speed>0.0</speed>
  <fix>3d</fix>
</trkpt>
<trkpt lat="-35.2824377" lon="149.0050247">
  <ele>583.8</ele>
  <time>2026-09-01T19:59:35Z</time>
  <course>359.95</course>
  <speed>0.0</speed>
  <fix>3d</fix>
</trkpt>
<trkpt lat="-35.2824377" lon="149.0050247">
  <ele>583.87</ele>
  <time>2026-09-01T19:59:35Z</time>
  <course>2.98</course>
  <speed>0.0</speed>
  <fix>3d</fix>
</trkpt>
<trkpt lat="-35.2824377" lon="149.0050247">
  <ele>583.91</ele>
  <time>2026-09-01T19:59:35Z</time>
  <course>2.98</course>
  <speed>0.01</speed>
  <fix>3d</fix>
</trkpt>
<trkpt lat="-35.2824377" lon="149.0050247">
  <ele>583.85</ele>
  <time>2026-09-01T19:59:35Z</time>
  <course>359.94</course>
  <speed>0.0</speed>
  <fix>3d</fix>
</trkpt>
<trkpt lat="-35.2824377" lon="149.0050247">
  <ele>583.92</ele>
  <time>2026-09-01T19:59:35Z</time>
  <course>2.98</course>
  <speed>0.01</speed>
  <fix>3d</fix>
</trkpt>
<trkpt lat="-35.2824377" lon="149.0050247">
  <ele>584.03</ele>
  <time>2026-09-01T19:59:35Z</time>
  <course>2.99</course>
  <speed>0.03</speed>
  <fix>3d</fix>
</trkpt>
<trkpt lat="-35.2824377" lon="149.0050247">
  <ele>583.85</ele>
  <time>2026-09-01T19:59:35Z</time>
  <course>359.94</course>
  <speed>0.0</speed>
  <fix>3d</fix>
</trkpt>
<trkpt lat="-35.2824377" lon="149.0050247">
  <ele>584.03</ele>
  <time>2026-09-01T19:59:35Z</time>
  <course>2.99</course>
  <speed>0.03</speed>
  <fix>3d</fix>
</trkpt>
<trkpt lat="-35.2824377" lon="149.0050247">
  <ele>584.22</ele>
  <time>2026-09-01T19:59:35Z</time>
  <course>2.99</course>
  <speed>0.06</speed>
  <fix>3d</fix>
</trkpt>
<trkpt lat="-35.2824377" lon="149.0050247">
  <ele>583.97</ele>
  <time>2026-09-01T19:59:35Z</time>
  <course>359.28</course>
  <speed>0.01</speed>
  <fix>3d</fix>
</trkpt>
<trkpt lat="-35.2824377" lon="149.0050247">
  <ele>584.27</ele>
  <time>2026-09-01T19:59:35Z</time>
  <course>2.99</course>
  <speed>0.07</speed>
  <fix>3d</fix>
</trkpt>
<trkpt lat="-35.2824376" lon="149.0050247">
  <ele>584.45</ele>
  <time>2026-09-01T19:59:35Z</time>
  <course>2.99</course>
  <speed>0.1</speed>
  <fix>3d</fix>
</trkpt>
<trkpt lat="-35.2824377" lon="149.0050247">
  <ele>583.97</ele>
  <time>2026-09-01T19:59:35Z</time>
  <course>359.28</course>
  <speed>0.01</speed>
  <fix>3d</fix>
</trkpt>
<trkpt lat="-35.2824376" lon="149.0050247">
  <ele>584.5</ele>
  <time>2026-09-01T19:59:35Z</time>
  <course>2.99</course>
  <speed>0.11</speed>
  <fix>3d</fix>
</trkpt>
<trkpt lat="-35.2824375" lon="149.0050247">
  <ele>584.69</ele>
  <time>2026-09-01T19:59:35Z</time>
  <course>2.98</course>
  <speed>0.13</speed>
  <fix>3d</fix>
</trkpt>
<trkpt lat="-35.2824377" lon="149.0050247">
  <ele>584.26</ele>
  <time>2026-09-01T19:59:35Z</time>
  <course>359.36</course>
  <speed>0.06</speed>
  <fix>3d</fix>
</trkpt>
<trkpt lat="-35.2824375" lon="149.0050247">
  <ele>584.76</ele>
  <time>2026-09-01T19:59:35Z</time>
  <course>2.98</course>
  <speed>0.14</speed>
  <fix>3d</fix>
</trkpt>
<trkpt lat="-35.2824374" lon="149.0050247">
  <ele>584.95</ele>
  <time>2026-09-01T19:59:35Z</time>
  <course>2.98</course>
  <speed>0.17</speed>
  <fix>3d</fix>
</trkpt>
<trkpt lat="-35.2824377" lon="149.0050247">
  <ele>584.26</ele>
  <time>2026-09-01T19:59:35Z</time>
  <course>359.36</course>
  <speed>0.06</speed>
  <fix>3d</fix>
</trkpt>
<trkpt lat="-35.2824373" lon="149.0050247">
  <ele>585.02</ele>
  <time>2026-09-01T19:59:35Z</time>
  <course>2.98</course>
  <speed>0.18</speed>
  <fix>3d</fix>
</trkpt>
<trkpt lat="-35.2824372" lon="149.0050247">
  <ele>585.22</ele>
  <time>2026-09-01T19:59:35Z</time>
  <course>2.98</course>
  <speed>0.2002498439450079</speed>
  <fix>3d</fix>
</trkpt>
<trkpt lat="-35.2824376" lon="149.0050247">
  <ele>584.73</ele>
  <time>2026-09-01T19:59:35Z</time>
  <course>359.46</course>
  <speed>0.13</speed>
  <fix>3d</fix>
</trkpt>
<trkpt lat="-35.2824372" lon="149.0050247">
  <ele>585.29</ele>
  <time>2026-09-01T19:59:35Z</time>
  <course>2.97</course>
  <speed>0.2102379604162864</speed>
  <fix>3d</fix>
</trkpt>
<trkpt lat="-35.282437" lon="149.0050247">
  <ele>585.5</ele>
  <time>2026-09-01T19:59:35Z</time>
  <course>2.97</course>
  <speed>0.23021728866442676</speed>
  <fix>3d</fix>
</trkpt>
<trkpt lat="-35.2824376" lon="149.0050247">
  <ele>584.73</ele>
  <time>2026-09-01T19:59:35Z</time>
  <course>359.46</course>
  <speed>0.13</speed>
  <fix>3d</fix>
</trkpt>
<trkpt lat="-35.282437" lon="149.0050247">
  <ele>585.51</ele>
  <time>2026-09-01T19:59:35Z</time>
  <course>2.97</course>
  <speed>0.24020824298928628</speed>
  <fix>3d</fix>
</trkpt>
<trkpt lat="-35.2824368" lon="149.0050247">
  <ele>585.79</ele>
  <time>2026-09-01T19:59:35Z</time>
  <course>2.87</course>
  <speed>0.27018512172212594</speed>
  <fix>3d</fix>
</trkpt>
<trkpt lat="-35.2824373" lon="149.0050247">
  <ele>585.26</ele>
  <time>2026-09-01T19:59:35Z</time>
  <course>359.52</course>
  <speed>0.2</speed>
  <fix>3d</fix>
</trkpt>
<trkpt lat="-35.2824367" lon="149.0050247">
  <ele>585.88</ele>
  <time>2026-09-01T19:59:35Z</time>
  <course>2.82</course>
  <speed>0.280178514522438</speed>
  <fix>3d</fix>
</trkpt>
<trkpt lat="-35.2824366" lon="149.0050247">
  <ele>586.09</ele>
  <time>2026-09-01T19:59:35Z</time>
  <course>2.74</course>
  <speed>0.30016662039607267</speed>
  <fix>3d</fix>
</trkpt>
<trkpt lat="-35.2824373" lon="149.0050247">
  <ele>585.26</ele>
  <time>2026-09-01T19:59:35Z</time>
  <course>359.52</course>
  <speed>0.2</speed>
  <fix>3d</fix>
</trkpt>
<trkpt lat="-35.2824365" lon="149.0050247">
  <ele>586.2</ele>
  <time>2026-09-01T19:59:35Z</time>
  <course>2.73</course>
  <speed>0.3101612483854165</speed>
  <fix>3d</fix>
</trkpt>
<trkpt lat="-35.2824363" lon="149.0050247">
  <ele>586.4</ele>
  <time>2026-09-01T19:59:35Z</time>
  <course>2.75</course>
  <speed>0.32015621187164245</speed>
  <fix>3d</fix>
</trkpt>
<trkpt lat="-35.2824369" lon="149.0050247">
  <ele>585.83</ele>
  <time>2026-09-01T19:59:35Z</time>
  <course>359.59</course>
  <speed>0.27</speed>
  <fix>3d</fix>
</trkpt>
<trkpt lat="-35.2824362" lon="149.0050247">
  <ele>586.5</ele>
  <time>2026-09-01T19:59:35Z</time>
  <course>2.77</course>
  <speed>0.3301514803843835</speed>
  <fix>3d</fix>
</trkpt>
<trkpt lat="-35.282436" lon="149.0050247">
  <ele>586.72</ele>
  <time>2026-09-01T19:59:35Z</time>
  <course>2.84</course>
  <speed>0.340147027033899</speed>
  <fix>3d</fix>
</trkpt>
<trkpt lat="-35.2824369" lon="149.0050247">
  <ele>585.83</ele>
  <time>2026-09-01T19:59:35Z</time>
  <course>359.59</course>
  <speed>0.27</speed>
  <fix>3d</fix>
</trkpt>
<trkpt lat="-35.282436" lon="149.0050247">
  <ele>586.73</ele>
  <time>2026-09-01T19:59:35Z</time>
  <course>2.85</course>
  <speed>0.35014282800023194</speed>
  <fix>3d</fix>
</trkpt>
<trkpt lat="-35.2824357" lon="149.0050247">
  <ele>587.04</ele>
  <time>2026-09-01T19:59:35Z</time>
  <course>2.94</course>
  <speed>0.36013886210738216</speed>
  <fix>3d</fix>
</trkpt>
<trkpt lat="-35.2824363" lon="149.0050247">
  <ele>586.45</ele>
  <time>2026-09-01T19:59:35Z</time>
  <course>359.68</course>
  <speed>0.33</speed>
  <fix>3d</fix>
</trkpt>
<trkpt lat="-35.2824357" lon="149.0050247">
  <ele>587.06</ele>
  <time>2026-09-01T19:59:35Z</time>
  <course>2.95</course>
  <speed>0.36013886210738216</speed>
  <fix>3d</fix>
</trkpt>
<trkpt lat="-35.2824354" lon="149.0050247">
  <ele>587.35</ele>
  <time>2026-09-01T19:59:35Z</time>
  <course>3.01</course>
  <speed>0.38013155617496425</speed>
  <fix>3d</fix>
</trkpt>
<trkpt lat="-35.2824363" lon="149.0050247">
  <ele>586.45</ele>
  <time>2026-09-01T19:59:35Z</time>
  <course>359.68</course>
  <speed>0.33</speed>
  <fix>3d</fix>
</trkpt>
<trkpt lat="-35.2824353" lon="149.0050247">
  <ele>587.43</ele>
  <time>2026-09-01T19:59:35Z</time>
  <course>3.02</course>
  <speed>0.38013155617496425</speed>
  <fix>3d</fix>
</trkpt>
<trkpt lat="-35.282435" lon="149.0050247">
  <ele>587.66</ele>
  <time>2026-09-01T19:59:35Z</time>
  <course>3.03</course>
  <speed>0.3901281840626232</speed>
  <fix>3d</fix>
</trkpt>
<trkpt lat="-35.2824357" lon="149.0050247">
  <ele>587.07</ele>
  <time>2026-09-01T19:59:35Z</time>
  <course>359.8</course>
  <speed>0.37</speed>
  <fix>3d</fix>
</trkpt>
<trkpt lat="-35.2824349" lon="149.0050247">
  <ele>587.74</ele>
  <time>2026-09-01T19:59:35Z</time>
  <course>3.03</course>
  <speed>0.3901281840626232</speed>
  <fix>3d</fix>
</trkpt>
<trkpt lat="-35.2824347" lon="149.0050247">
  <ele>587.96</ele>
  <time>2026-09-01T19:59:35Z</time>
  <course>3.03</course>
  <speed>0.3901281840626232</speed>
  <fix>3d</fix>
</trkpt>
<trkpt lat="-35.2824357" lon="149.0050247">
  <ele>587.07</ele>
  <time>2026-09-01T19:59:35Z</time>
  <course>359.8</course>
  <speed>0.37</speed>
  <fix>3d</fix>
</trkpt>
<trkpt lat="-35.2824346" lon="149.0050247">
  <ele>588.03</ele>
  <time>2026-09-01T19:59:35Z</time>
  <course>3.02</course>
  <speed>0.3901281840626232</speed>
  <fix>3d</fix>
</trkpt>
<trkpt lat="-35.2824343" lon="149.0050247">
  <ele>588.26</ele>
  <time>2026-09-01T19:59:35Z</time>
  <course>3.0</course>
  <speed>0.3901281840626232</speed>
  <fix>3d</fix>
</trkpt>
<trkpt lat="-35.282435" lon="149.0050247">
  <ele>587.68</ele>
  <time>2026-09-01T19:59:35Z</time>
  <course>359.97</course>
  <speed>0.4</speed>
  <fix>3d</fix>
</trkpt>
<trkpt lat="-35.2824342" lon="149.0050247">
  <ele>588.34</ele>
  <time>2026-09-01T19:59:35Z</time>
  <course>2.99</course>
  <speed>0.3901281840626232</speed>
  <fix>3d</fix>
</trkpt>
<trkpt lat="-35.282434" lon="149.0050247">
  <ele>588.56</ele>
  <time>2026-09-01T19:59:35Z</time>
  <course>2.98</course>
  <speed>0.38013155617496425</speed>
  <fix>3d</fix>
</trkpt>
<trkpt lat="-35.282435" lon="149.0050247">
  <ele>587.68</ele>
  <time>2026-09-01T19:59:35Z</time>
  <course>359.97</course>
  <speed>0.4</speed>
  <fix>3d</fix>
</trkpt>
<trkpt lat="-35.2824339" lon="149.0050247">
  <ele>588.64</ele>
  <time>2026-09-01T19:59:35Z</time>
  <course>2.97</course>
  <speed>0.38013155617496425</speed>
  <fix>3d</fix>
</trkpt>
<trkpt lat="-35.2824336" lon="149.0050247">
  <ele>588.84</ele>
  <time>2026-09-01T19:59:35Z</time>
  <course>2.96</course>
  <speed>0.37013511046643494</speed>
  <fix>3d</fix>
</trkpt>
<trkpt lat="-35.2824343" lon="149.0050247">
  <ele>588.28</ele>
  <time>2026-09-01T19:59:35Z</time>
  <course>0.19</course>
  <speed>0.4</speed>
  <fix>3d</fix>
</trkpt>
<trkpt lat="-35.2824335" lon="149.0050247">
  <ele>588.93</ele>
  <time>2026-09-01T19:59:35Z</time>
  <course>2.95</course>
  <speed>0.37013511046643494</speed>
  <fix>3d</fix>
</trkpt>
<trkpt lat="-35.2824333" lon="149.0050247">
  <ele>589.12</ele>
  <time>2026-09-01T19:59:35Z</time>
  <course>2.94</course>
  <speed>0.36013886210738216</speed>
  <fix>3d</fix>
</trkpt>
<trkpt lat="-35.2824343" lon="149.0050247">
  <ele>588.28</ele>
  <time>2026-09-01T19:59:35Z</time>
  <course>0.19</course>
  <speed>0.4</speed>
  <fix>3d</fix>
</trkpt>
<trkpt lat="-35.2824332" lon="149.0050247">
  <ele>589.21</ele>
  <time>2026-09-01T19:59:35Z</time>
  <course>2.94</course>
  <speed>0.35</speed>
  <fix>3d</fix>
</trkpt>
<trkpt lat="-35.282433" lon="149.0050247">
  <ele>589.4</ele>
  <time>2026-09-01T19:59:35Z</time>
  <course>2.94</course>
  <speed>0.34</speed>
  <fix>3d</fix>
</trkpt>
<trkpt lat="-35.2824335" lon="149.0050247">
  <ele>588.85</ele>
  <time>2026-09-01T19:59:35Z</time>
  <course>0.48</course>
  <speed>0.38</speed>
  <fix>3d</fix>
</trkpt>
<trkpt lat="-35.2824328" lon="149.0050247">
  <ele>589.52</ele>
  <time>2026-09-01T19:59:35Z</time>
  <course>2.94</course>
  <speed>0.33</speed>
  <fix>3d</fix>
</trkpt>
<trkpt lat="-35.2824327" lon="149.0050247">
  <ele>589.66</ele>
  <time>2026-09-01T19:59:35Z</time>
  <course>2.94</course>
  <speed>0.32</speed>
  <fix>3d</fix>
</trkpt>
<trkpt lat="-35.2824335" lon="149.0050247">
  <ele>588.85</ele>
  <time>2026-09-01T19:59:35Z</time>
  <course>0.48</course>
  <speed>0.38</speed>
  <fix>3d</fix>
</trkpt>
<trkpt lat="-35.2824326" lon="149.0050247">
  <ele>589.73</ele>
  <time>2026-09-01T19:59:35Z</time>
  <course>2.94</course>
  <speed>0.31</speed>
  <fix>3d</fix>
</trkpt>
<trkpt lat="-35.2824324" lon="149.0050247">
  <ele>589.93</ele>
  <time>2026-09-01T19:59:35Z</time>
  <course>2.95</course>
  <speed>0.29</speed>
  <fix>3d</fix>
</trkpt>
<trkpt lat="-35.2824329" lon="149.0050247">
  <ele>589.4</ele>
  <time>2026-09-01T19:59:35Z</time>
  <course>0.88</course>
  <speed>0.35</speed>
  <fix>3d</fix>
</trkpt>
<trkpt lat="-35.2824324" lon="149.0050247">
  <ele>589.94</ele>
  <time>2026-09-01T19:59:35Z</time>
  <course>2.95</course>
  <speed>0.29</speed>
  <fix>3d</fix>
</trkpt>
<trkpt lat="-35.2824321" lon="149.0050247">
  <ele>590.19</ele>
  <time>2026-09-01T19:59:35Z</time>
  <course>2.96</course>
  <speed>0.26</speed>
  <fix>3d</fix>
</trkpt>
<trkpt lat="-35.2824329" lon="149.0050247">
  <ele>589.4</ele>
  <time>2026-09-01T19:59:35Z</time>
  <course>0.88</course>
  <speed>0.35</speed>
  <fix>3d</fix>
</trkpt>
<trkpt lat="-35.2824321" lon="149.0050247">
  <ele>590.2</ele>
  <time>2026-09-01T19:59:35Z</time>
  <course>2.96</course>
  <speed>0.26</speed>
  <fix>3d</fix>
</trkpt>
<trkpt lat="-35.2824319" lon="149.0050247">
  <ele>590.44</ele>
  <time>2026-09-01T19:59:35Z</time>
  <course>2.98</course>
  <speed>0.24</speed>
  <fix>3d</fix>
</trkpt>
<trkpt lat="-35.2824322" lon="149.0050247">
  <ele>589.92</ele>
  <time>2026-09-01T19:59:35Z</time>
  <course>1.54</course>
  <speed>0.31</speed>
  <fix>3d</fix>
</trkpt>
<trkpt lat="-35.2824318" lon="149.0050247">
  <ele>590.51</ele>
  <time>2026-09-01T19:59:35Z</time>
  <course>2.98</course>
  <speed>0.23</speed>
  <fix>3d</fix>
</trkpt>
<trkpt lat="-35.2824317" lon="149.0050247">
  <ele>590.69</ele>
  <time>2026-09-01T19:59:35Z</time>
  <course>2.99</course>
  <speed>0.21</speed>
  <fix>3d</fix>
</trkpt>
<trkpt lat="-35.2824322" lon="149.0050247">
  <ele>589.92</ele>
  <time>2026-09-01T19:59:35Z</time>
  <course>1.54</course>
  <speed>0.31</speed>
  <fix>3d</fix>
</trkpt>
<trkpt lat="-35.2824316" lon="149.0050247">
  <ele>590.76</ele>
  <time>2026-09-01T19:59:35Z</time>
  <course>3.0</course>
  <speed>0.2</speed>
  <fix>3d</fix>
</trkpt>
<trkpt lat="-35.2824315" lon="149.0050247">
  <ele>590.94</ele>
  <time>2026-09-01T19:59:35Z</time>
  <course>3.01</course>
  <speed>0.17</speed>
  <fix>3d</fix>
</trkpt>
<trkpt lat="-35.2824318" lon="149.0050247">
  <ele>590.42</ele>
  <time>2026-09-01T19:59:35Z</time>
  <course>2.62</course>
  <speed>0.25</speed>
  <fix>3d</fix>
</trkpt>
<trkpt lat="-35.2824314" lon="149.0050247">
  <ele>591.04</ele>
  <time>2026-09-01T19:59:35Z</time>
  <course>3.02</course>
  <speed>0.16</speed>
  <fix>3d</fix>
</trkpt>
<trkpt lat="-35.2824313" lon="149.0050247">
  <ele>591.18</ele>
  <time>2026-09-01T19:59:35Z</time>
  <course>3.02</course>
  <speed>0.14</speed>
  <fix>3d</fix>
</trkpt>
<trkpt lat="-35.2824318" lon="149.0050247">
  <ele>590.42</ele>
  <time>2026-09-01T19:59:35Z</time>
  <course>2.62</course>
  <speed>0.25</speed>
  <fix>3d</fix>
</trkpt>
<trkpt lat="-35.2824313" lon="149.0050247">
  <ele>591.25</ele>
  <time>2026-09-01T19:59:35Z</time>
  <course>3.03</course>
  <speed>0.13</speed>
  <fix>3d</fix>
</trkpt>
<trkpt lat="-35.2824312" lon="149.0050247">
  <ele>591.42</ele>
  <time>2026-09-01T19:59:35Z</time>
  <course>3.04</course>
  <speed>0.11</speed>
  <fix>3d</fix>
</trkpt>
<trkpt lat="-35.2824313" lon="149.0050247">
  <ele>590.91</ele>
  <time>2026-09-01T19:59:35Z</time>
  <course>4.38</course>
  <speed>0.19</speed>
  <fix>3d</fix>
</trkpt>
<trkpt lat="-35.2824312" lon="149.0050247">
  <ele>591.49</ele>
  <time>2026-09-01T19:59:35Z</time>
  <course>3.04</course>
  <speed>0.1</speed>
  <fix>3d</fix>
</trkpt>
<trkpt lat="-35.2824311" lon="149.0050247">
  <ele>591.66</ele>
  <time>2026-09-01T19:59:35Z</time>
  <course>3.05</course>
  <speed>0.08</speed>
  <fix>3d</fix>
</trkpt>
<trkpt lat="-35.2824313" lon="149.0050247">
  <ele>590.91</ele>
  <time>2026-09-01T19:59:35Z</time>
  <course>4.38</course>
  <speed>0.19</speed>
  <fix>3d</fix>
</trkpt>
<trkpt lat="-35.2824311" lon="149.0050247">
  <ele>591.72</ele>
  <time>2026-09-01T19:59:35Z</time>
  <course>3.05</course>
  <speed>0.07</speed>
  <fix>3d</fix>
</trkpt>
<trkpt lat="-35.282431" lon="149.0050247">
  <ele>591.9</ele>
  <time>2026-09-01T19:59:35Z</time>
  <course>3.06</course>
  <speed>0.05</speed>
  <fix>3d</fix>
</trkpt>
<trkpt lat="-35.282431" lon="149.0050247">
  <ele>591.39</ele>
  <time>2026-09-01T19:59:35Z</time>
  <course>7.73</course>
  <speed>0.12</speed>
  <fix>3d</fix>
</trkpt>
<trkpt lat="-35.282431" lon="149.0050247">
  <ele>591.98</ele>
  <time>2026-09-01T19:59:35Z</time>
  <course>3.06</course>
  <speed>0.04</speed>
  <fix>3d</fix>
</trkpt>
<trkpt lat="-35.282431" lon="149.0050247">
  <ele>592.13</ele>
  <time>2026-09-01T19:59:35Z</time>
  <course>3.07</course>
  <speed>0.02</speed>
  <fix>3d</fix>
</trkpt>
<trkpt lat="-35.282431" lon="149.0050247">
  <ele>591.39</ele>
  <time>2026-09-01T19:59:35Z</time>
  <course>7.73</course>
  <speed>0.12</speed>
  <fix>3d</fix>
</trkpt>
<trkpt lat="-35.282431" lon="149.0050247">
  <ele>592.2</ele>
  <time>2026-09-01T19:59:35Z</time>
  <course>3.08</course>
  <speed>0.01</speed>
  <fix>3d</fix>
</trkpt>
<trkpt lat="-35.2824309" lon="149.0050247">
  <ele>592.37</ele>
  <time>2026-09-01T19:59:35Z</time>
  <course>3.09</course>
  <speed>0.0</speed>
  <fix>3d</fix>
</trkpt>
<trkpt lat="-35.2824309" lon="149.0050248">
  <ele>591.86</ele>
  <time>2026-09-01T19:59:35Z</time>
  <course>16.96</course>
  <speed>0.06</speed>
  <fix>3d</fix>
</trkpt>
<trkpt lat="-35.2824309" lon="149.0050247">
  <ele>592.44</ele>
  <time>2026-09-01T19:59:35Z</time>
  <course>3.09</course>
  <speed>0.0</speed>
  <fix>3d</fix>
</trkpt>
<trkpt lat="-35.2824309" lon="149.0050247">
  <ele>592.61</ele>
  <time>2026-09-01T19:59:35Z</time>
  <course>3.11</course>
  <speed>0.02</speed>
  <fix>3d</fix>
</trkpt>
<trkpt lat="-35.2824309" lon="149.0050248">
  <ele>591.86</ele>
  <time>2026-09-01T19:59:35Z</time>
  <course>16.96</course>
  <speed>0.06</speed>
  <fix>3d</fix>
</trkpt>
<trkpt lat="-35.2824309" lon="149.0050247">
  <ele>592.62</ele>
  <time>2026-09-01T19:59:35Z</time>
  <course>3.11</course>
  <speed>0.02</speed>
  <fix>3d</fix>
</trkpt>
<trkpt lat="-35.282431" lon="149.0050247">
  <ele>592.86</ele>
  <time>2026-09-01T19:59:35Z</time>
  <course>3.13</course>
  <speed>0.05</speed>
  <fix>3d</fix>
</trkpt>
<trkpt lat="-35.2824309" lon="149.0050248">
  <ele>592.33</ele>
  <time>2026-09-01T19:59:35Z</time>
  <course>85.39</course>
  <speed>0.01</speed>
  <fix>3d</fix>
</trkpt>
<trkpt lat="-35.282431" lon="149.0050247">
  <ele>592.86</ele>
  <time>2026-09-01T19:59:35Z</time>
  <course>3.14</course>
  <speed>0.05</speed>
  <fix>3d</fix>
</trkpt>
<trkpt lat="-35.282431" lon="149.0050247">
  <ele>593.1</ele>
  <time>2026-09-01T19:59:35Z</time>
  <course>3.17</course>
  <speed>0.07</speed>
  <fix>3d</fix>
</trkpt>
<trkpt lat="-35.2824309" lon="149.0050248">
  <ele>592.33</ele>
  <time>2026-09-01T19:59:35Z</time>
  <course>85.39</course>
  <speed>0.01</speed>
  <fix>3d</fix>
</trkpt>
<trkpt lat="-35.282431" lon="149.0050248">
  <ele>593.16</ele>
  <time>2026-09-01T19:59:35Z</time>
  <course>3.18</course>
  <speed>0.07</speed>
  <fix>3d</fix>
</trkpt>
<trkpt lat="-35.2824311" lon="149.0050248">
  <ele>593.34</ele>
  <time>2026-09-01T19:59:35Z</time>
  <course>3.2</course>
  <speed>0.09</speed>
  <fix>3d</fix>
</trkpt>
<trkpt lat="-35.2824309" lon="149.0050248">
  <ele>592.81</ele>
  <time>2026-09-01T19:59:35Z</time>
  <course>160.47</course>
  <speed>0.05</speed>
  <fix>3d</fix>
</trkpt>
<trkpt lat="-35.2824311" lon="149.0050248">
  <ele>593.4</ele>
  <time>2026-09-01T19:59:35Z</time>
  <course>3.21</course>
  <speed>0.09</speed>
  <fix>3d</fix>
</trkpt>
<trkpt lat="-35.2824312" lon="149.0050248">
  <ele>593.58</ele>
  <time>2026-09-01T19:59:35Z</time>
  <course>3.25</course>
  <speed>0.11</speed>
  <fix>3d</fix>
</trkpt>
<trkpt lat="-35.2824309" lon="149.0050248">
  <ele>592.81</ele>
  <time>2026-09-01T19:59:35Z</time>
  <course>160.47</course>
  <speed>0.05</speed>
  <fix>3d</fix>
</trkpt>
<trkpt lat="-35.2824312" lon="149.0050248">
  <ele>593.64</ele>
  <time>2026-09-01T19:59:35Z</time>
  <course>3.26</course>
  <speed>0.11</speed>
  <fix>3d</fix>
</trkpt>
<trkpt lat="-35.2824312" lon="149.0050248">
  <ele>593.82</ele>
  <time>2026-09-01T19:59:35Z</time>
  <course>3.29</course>
  <speed>0.12</speed>
  <fix>3d</fix>
</trkpt>
<trkpt lat="-35.282431" lon="149.0050249">
  <ele>593.29</ele>
  <time>2026-09-01T19:59:35Z</time>
  <course>170.85</course>
  <speed>0.09</speed>
  <fix>3d</fix>
</trkpt>
<trkpt lat="-35.2824312" lon="149.0050248">
  <ele>593.88</ele>
  <time>2026-09-01T19:59:35Z</time>
  <course>3.3</course>
  <speed>0.13</speed>
  <fix>3d</fix>
</trkpt>
<trkpt lat="-35.2824313" lon="149.0050248">
  <ele>594.06</ele>
  <time>2026-09-01T19:59:35Z</time>
  <course>3.33</course>
  <speed>0.140356688476182</speed>
  <fix>3d</fix>
</trkpt>
<trkpt lat="-35.282431" lon="149.0050249">
  <ele>593.29</ele>
  <time>2026-09-01T19:59:35Z</time>
  <course>170.85</course>
  <speed>0.09</speed>
  <fix>3d</fix>
</trkpt>
<trkpt lat="-35.2824313" lon="149.0050248">
  <ele>594.13</ele>
  <time>2026-09-01T19:59:35Z</time>
  <course>3.34</course>
  <speed>0.140356688476182</speed>
  <fix>3d</fix>
</trkpt>
<trkpt lat="-35.2824314" lon="149.0050248">
  <ele>594.31</ele>
  <time>2026-09-01T19:59:35Z</time>
  <course>3.36</course>
  <speed>0.15033296378372907</speed>
  <fix>3d</fix>
</trkpt>
<trkpt lat="-35.2824312" lon="149.0050249">
  <ele>593.77</ele>
  <time>2026-09-01T19:59:35Z</time>
  <course>175.14</course>
  <speed>0.13</speed>
  <fix>3d</fix>
</trkpt>
<trkpt lat="-35.2824315" lon="149.0050248">
  <ele>594.37</ele>
  <time>2026-09-01T19:59:35Z</time>
  <course>3.37</course>
  <speed>0.15033296378372907</speed>
  <fix>3d</fix>
</trkpt>
<trkpt lat="-35.2824316" lon="149.0050248">
  <ele>594.55</ele>
  <time>2026-09-01T19:59:35Z</time>
  <course>3.37</course>
  <speed>0.16031219541881397</speed>
  <fix>3d</fix>
</trkpt>
<trkpt lat="-35.2824312" lon="149.0050249">
  <ele>593.77</ele>
  <time>2026-09-01T19:59:35Z</time>
  <course>175.14</course>
  <speed>0.13</speed>
  <fix>3d</fix>
</trkpt>
<trkpt lat="-35.2824316" lon="149.0050248">
  <ele>594.61</ele>
  <time>2026-09-01T19:59:35Z</time>
  <course>3.37</course>
  <speed>0.16031219541881397</speed>
  <fix>3d</fix>
</trkpt>
<trkpt lat="-35.2824317" lon="149.0050248">
  <ele>594.8</ele>
  <time>2026-09-01T19:59:35Z</time>
  <course>3.36</course>
  <speed>0.1711724276862369</speed>
  <fix>3d</fix>
</trkpt>
<trkpt lat="-35.2824314" lon="149.0050249">
  <ele>594.27</ele>
  <time>2026-09-01T19:59:35Z</time>
  <course>177.37</course>
  <speed>0.15</speed>
  <fix>3d</fix>
</trkpt>
<trkpt lat="-35.2824317" lon="149.0050248">
  <ele>594.86</ele>
  <time>2026-09-01T19:59:35Z</time>
  <course>3.35</course>
  <speed>0.17029386365926402</speed>
  <fix>3d</fix>
</trkpt>
<trkpt lat="-35.2824319" lon="149.0050248">
  <ele>595.05</ele>
  <time>2026-09-01T19:59:35Z</time>
  <course>3.31</course>
  <speed>0.1711724276862369</speed>
  <fix>3d</fix>
</trkpt>
<trkpt lat="-35.2824314" lon="149.0050249">
  <ele>594.27</ele>
  <time>2026-09-01T19:59:35Z</time>
  <course>177.37</course>
  <speed>0.15</speed>
  <fix>3d</fix>
</trkpt>
<trkpt lat="-35.2824319" lon="149.0050248">
  <ele>595.11</ele>
  <time>2026-09-01T19:59:35Z</time>
  <course>3.29</course>
  <speed>0.17029386365926402</speed>
  <fix>3d</fix>
</trkpt>
<trkpt lat="-35.282432" lon="149.0050248">
  <ele>595.3</ele>
  <time>2026-09-01T19:59:35Z</time>
  <course>3.25</course>
  <speed>0.18027756377319945</speed>
  <fix>3d</fix>
</trkpt>
<trkpt lat="-35.2824317" lon="149.005025">
  <ele>594.77</ele>
  <time>2026-09-01T19:59:35Z</time>
  <course>177.9</course>
  <speed>0.17</speed>
  <fix>3d</fix>
</trkpt>
<trkpt lat="-35.282432" lon="149.0050248">
  <ele>595.31</ele>
  <time>2026-09-01T19:59:35Z</time>
  <course>3.24</course>
  <speed>0.18027756377319945</speed>
  <fix>3d</fix>
</trkpt>
<trkpt lat="-35.2824322" lon="149.0050248">
  <ele>595.56</ele>
  <time>2026-09-01T19:59:35Z</time>
  <course>3.2</course>
  <speed>0.18027756377319945</speed>
  <fix>3d</fix>
</trkpt>
<trkpt lat="-35.2824317" lon="149.005025">
  <ele>594.77</ele>
  <time>2026-09-01T19:59:35Z</time>
  <course>177.9</course>
  <speed>0.17</speed>
  <fix>3d</fix>
</trkpt>
<trkpt lat="-35.2824322" lon="149.0050248">
  <ele>595.56</ele>
  <time>2026-09-01T19:59:35Z</time>
  <course>3.2</course>
  <speed>0.18027756377319945</speed>
  <fix>3d</fix>
</trkpt>
<trkpt lat="-35.2824323" lon="149.0050248">
  <ele>595.81</ele>
  <time>2026-09-01T19:59:35Z</time>
  <course>3.18</course>
  <speed>0.19</speed>
  <fix>3d</fix>
</trkpt>
<trkpt lat="-35.282432" lon="149.005025">
  <ele>595.27</ele>
  <time>2026-09-01T19:59:35Z</time>
  <course>177.9</course>
  <speed>0.19</speed>
  <fix>3d</fix>
</trkpt>
<trkpt lat="-35.2824323" lon="149.0050248">
  <ele>595.82</ele>
  <time>2026-09-01T19:59:35Z</time>
  <course>3.18</course>
  <speed>0.19</speed>
  <fix>3d</fix>
</trkpt>
<trkpt lat="-35.2824325" lon="149.0050248">
  <ele>596.07</ele>
  <time>2026-09-01T19:59:35Z</time>
  <course>3.17</course>
  <speed>0.19</speed>
  <fix>3d</fix>
</trkpt>
<trkpt lat="-35.282432" lon="149.005025">
  <ele>595.27</ele>
  <time>2026-09-01T19:59:35Z</time>
  <course>177.9</course>
  <speed>0.19</speed>
  <fix>3d</fix>
</trkpt>
<trkpt lat="-35.2824326" lon="149.0050248">
  <ele>596.13</ele>
  <time>2026-09-01T19:59:35Z</time>
  <course>3.18</course>
  <speed>0.19</speed>
  <fix>3d</fix>
</trkpt>
<trkpt lat="-35.2824327" lon="149.0050248">
  <ele>596.32</ele>
  <time>2026-09-01T19:59:35Z</time>
  <course>3.19</course>
  <speed>0.19</speed>
  <fix>3d</fix>
</trkpt>
<trkpt lat="-35.2824324" lon="149.005025">
  <ele>595.77</ele>
  <time>2026-09-01T19:59:35Z</time>
  <course>178.27</course>
  <speed>0.19</speed>
  <fix>3d</fix>
</trkpt>
<trkpt lat="-35.2824327" lon="149.0050249">
  <ele>596.39</ele>
  <time>2026-09-01T19:59:35Z</time>
  <course>3.19</course>
  <speed>0.19</speed>
  <fix>3d</fix>
</trkpt>
<trkpt lat="-35.2824329" lon="149.0050249">
  <ele>596.58</ele>
  <time>2026-09-01T19:59:35Z</time>
  <course>3.2</course>
  <speed>0.19</speed>
  <fix>3d</fix>
</trkpt>
<trkpt lat="-35.2824324" lon="149.005025">
  <ele>595.77</ele>
  <time>2026-09-01T19:59:35Z</time>
  <course>178.27</course>
  <speed>0.19</speed>
  <fix>3d</fix>
</trkpt>
<trkpt lat="-35.2824329" lon="149.0050249">
  <ele>596.64</ele>
  <time>2026-09-01T19:59:35Z</time>
  <course>3.2</course>
  <speed>0.19</speed>
  <fix>3d</fix>
</trkpt>
<trkpt lat="-35.282433" lon="149.0050249">
  <ele>596.83</ele>
  <time>2026-09-01T19:59:35Z</time>
  <course>3.2</course>
  <speed>0.19</speed>
  <fix>3d</fix>
</trkpt>
<trkpt lat="-35.2824327" lon="149.005025">
  <ele>596.28</ele>
  <time>2026-09-01T19:59:35Z</time>
  <course>179.09</course>
  <speed>0.2</speed>
  <fix>3d</fix>
</trkpt>
<trkpt lat="-35.282433" lon="149.0050249">
  <ele>596.84</ele>
  <time>2026-09-01T19:59:35Z</time>
  <course>3.2</course>
  <speed>0.19</speed>
  <fix>3d</fix>
</trkpt>
<trkpt lat="-35.2824332" lon="149.0050249">
  <ele>597.08</ele>
  <time>2026-09-01T19:59:35Z</time>
  <course>3.17</course>
  <speed>0.191049731745428</speed>
  <fix>3d</fix>
</trkpt>
<trkpt lat="-35.2824327" lon="149.005025">
  <ele>596.28</ele>
  <time>2026-09-01T19:59:35Z</time>
  <course>179.09</course>
  <speed>0.2</speed>
  <fix>3d</fix>
</trkpt>
<trkpt lat="-35.2824332" lon="149.0050249">
  <ele>597.15</ele>
  <time>2026-09-01T19:59:35Z</time>
  <course>3.16</course>
  <speed>0.19026297590440447</speed>
  <fix>3d</fix>
</trkpt>
<trkpt lat="-35.2824334" lon="149.0050249">
  <ele>597.34</ele>
  <time>2026-09-01T19:59:35Z</time>
  <course>3.09</course>
  <speed>0.194164878389476</speed>
  <fix>3d</fix>
</trkpt>
<trkpt lat="-35.2824331" lon="149.005025">
  <ele>596.78</ele>
  <time>2026-09-01T19:59:35Z</time>
  <course>179.69</course>
  <speed>0.2</speed>
  <fix>3d</fix>
</trkpt>
<trkpt lat="-35.2824334" lon="149.0050249">
  <ele>597.35</ele>
  <time>2026-09-01T19:59:35Z</time>
  <course>3.08</course>
  <speed>0.194164878389476</speed>
  <fix>3d</fix>
</trkpt>
<trkpt lat="-35.2824336" lon="149.0050249">
  <ele>597.59</ele>
  <time>2026-09-01T19:59:36Z</time>
  <course>2.99</course>
  <speed>0.19235384061671343</speed>
  <fix>3d</fix>
</trkpt>
<trkpt lat="-35.2824331" lon="149.005025">
  <ele>596.78</ele>
  <time>2026-09-01T19:59:36Z</time>
  <course>179.69</course>
  <speed>0.2</speed>
  <fix>3d</fix>
</trkpt>
<trkpt lat="-35.2824336" lon="149.0050249">
  <ele>597.6</ele>
  <time>2026-09-01T19:59:36Z</time>
  <course>2.98</course>
  <speed>0.19235384061671343</speed>
  <fix>3d</fix>
</trkpt>
<trkpt lat="-35.2824337" lon="149.0050249">
  <ele>597.84</ele>
  <time>2026-09-01T19:59:36Z</time>
  <course>2.89</course>
  <speed>0.19924858845171275</speed>
  <fix>3d</fix>
</trkpt>
<trkpt lat="-35.2824334" lon="149.005025">
  <ele>597.29</ele>
  <time>2026-09-01T19:59:36Z</time>
  <course>179.0</course>
  <speed>0.2</speed>
  <fix>3d</fix>
</trkpt>
<trkpt lat="-35.2824338" lon="149.0050249">
  <ele>597.92</ele>
  <time>2026-09-01T19:59:36Z</time>
  <course>2.87</course>
  <speed>0.196468827043885</speed>
  <fix>3d</fix>
</trkpt>
<trkpt lat="-35.2824339" lon="149.0050248">
  <ele>598.09</ele>
  <time>2026-09-01T19:59:36Z</time>
  <course>2.85</course>
  <speed>0.194164878389476</speed>
  <fix>3d</fix>
</trkpt>
<trkpt lat="-35.2824334" lon="149.005025">
  <ele>597.29</ele>
  <time>2026-09-01T19:59:36Z</time>
  <course>179.0</course>
  <speed>0.2</speed>
  <fix>3d</fix>
</trkpt>
<trkpt lat="-35.2824339" lon="149.0050248">
  <ele>598.1</ele>
  <time>2026-09-01T19:59:36Z</time>
  <course>2.85</course>
  <speed>0.194164878389476</speed>
  <fix>3d</fix>
</trkpt>
<trkpt lat="-35.2824341" lon="149.0050248">
  <ele>598.34</ele>
  <time>2026-09-01T19:59:36Z</time>
  <course>2.9</course>
  <speed>0.19235384061671343</speed>
  <fix>3d</fix>
</trkpt>
<trkpt lat="-35.2824339" lon="149.005025">
  <ele>597.79</ele>
  <time>2026-09-01T19:59:36Z</time>
  <course>177.65</course>
  <speed>0.2</speed>
  <fix>3d</fix>
</trkpt>
<trkpt lat="-35.2824341" lon="149.0050248">
  <ele>598.35</ele>
  <time>2026-09-01T19:59:36Z</time>
  <course>2.9</course>
  <speed>0.19235384061671343</speed>
  <fix>3d</fix>
</trkpt>
<trkpt lat="-35.2824343" lon="149.0050248">
  <ele>598.59</ele>
  <time>2026-09-01T19:59:36Z</time>
  <course>3.02</course>
  <speed>0.19235384061671343</speed>
  <fix>3d</fix>
</trkpt>
<trkpt lat="-35.2824339" lon="149.005025">
  <ele>597.79</ele>
  <time>2026-09-01T19:59:36Z</time>
  <course>177.65</course>
  <speed>0.2</speed>
  <fix>3d</fix>
</trkpt>
<trkpt lat="-35.2824343" lon="149.0050248">
  <ele>598.65</ele>
  <time>2026-09-01T19:59:36Z</time>
  <course>3.06</course>
  <speed>0.19235384061671343</speed>
  <fix>3d</fix>
</trkpt>
<trkpt lat="-35.2824344" lon="149.0050248">
  <ele>598.84</ele>
  <time>2026-09-01T19:59:36Z</time>
  <course>3.18</course>
  <speed>0.18110770276274835</speed>
  <fix>3d</fix>
</trkpt>
<trkpt lat="-35.2824342" lon="149.005025">
  <ele>598.29</ele>
  <time>2026-09-01T19:59:36Z</time>
  <course>177.24</course>
  <speed>0.2</speed>
  <fix>3d</fix>
</trkpt>
<trkpt lat="-35.2824345" lon="149.0050248">
  <ele>598.91</ele>
  <time>2026-09-01T19:59:36Z</time>
  <course>3.22</course>
  <speed>0.18110770276274835</speed>
  <fix>3d</fix>
</trkpt>
<trkpt lat="-35.2824346" lon="149.0050248">
  <ele>599.1</ele>
  <time>2026-09-01T19:59:36Z</time>
  <course>3.31</course>
  <speed>0.18027756377319945</speed>
  <fix>3d</fix>
</trkpt>
<trkpt lat="-35.2824342" lon="149.005025">
  <ele>598.29</ele>
  <time>2026-09-01T19:59:36Z</time>
  <course>177.24</course>
  <speed>0.2</speed>
  <fix>3d</fix>
</trkpt>
<trkpt lat="-35.2824347" lon="149.0050249">
  <ele>599.15</ele>
  <time>2026-09-01T19:59:36Z</time>
  <course>3.34</course>
  <speed>0.18027756377319945</speed>
  <fix>3d</fix>
</trkpt>
<trkpt lat="-35.2824348" lon="149.0050249">
  <ele>599.35</ele>
  <time>2026-09-01T19:59:36Z</time>
  <course>3.41</course>
  <speed>0.18027756377319945</speed>
  <fix>3d</fix>
</trkpt>
<trkpt lat="-35.2824346" lon="149.005025">
  <ele>598.79</ele>
  <time>2026-09-01T19:59:36Z</time>
  <course>177.73</course>
  <speed>0.19</speed>
  <fix>3d</fix>
</trkpt>
<trkpt lat="-35.2824348" lon="149.0050249">
  <ele>599.42</ele>
  <time>2026-09-01T19:59:36Z</time>
  <course>3.43</course>
  <speed>0.18027756377319945</speed>
  <fix>3d</fix>
</trkpt>
<trkpt lat="-35.282435" lon="149.0050249">
  <ele>599.6</ele>
  <time>2026-09-01T19:59:36Z</time>
  <course>3.46</course>
  <speed>0.18027756377319945</speed>
  <fix>3d</fix>
</trkpt>
<trkpt lat="-35.2824346" lon="149.005025">
  <ele>598.79</ele>
  <time>2026-09-01T19:59:36Z</time>
  <course>177.73</course>
  <speed>0.19</speed>
  <fix>3d</fix>
</trkpt>
<trkpt lat="-35.282435" lon="149.0050249">
  <ele>599.66</ele>
  <time>2026-09-01T19:59:36Z</time>
  <course>3.46</course>
  <speed>0.18027756377319945</speed>
  <fix>3d</fix>
</trkpt>
<trkpt lat="-35.2824351" lon="149.0050249">
  <ele>599.85</ele>
  <time>2026-09-01T19:59:36Z</time>
  <course>3.45</course>
  <speed>0.18027756377319945</speed>
  <fix>3d</fix>
</trkpt>
<trkpt lat="-35.2824349" lon="149.005025">
  <ele>599.29</ele>
  <time>2026-09-01T19:59:36Z</time>
  <course>178.35</course>
  <speed>0.19</speed>
  <fix>3d</fix>
</trkpt>
<trkpt lat="-35.2824352" lon="149.0050249">
  <ele>599.92</ele>
  <time>2026-09-01T19:59:36Z</time>
  <course>3.44</course>
  <speed>0.17029386365926402</speed>
  <fix>3d</fix>
</trkpt>
<trkpt lat="-35.2824353" lon="149.0050249">
  <ele>600.1</ele>
  <time>2026-09-01T19:59:36Z</time>
  <course>3.4</course>
  <speed>0.17029386365926402</speed>
  <fix>3d</fix>
</trkpt>
<trkpt lat="-35.2824349" lon="149.005025">
  <ele>599.29</ele>
  <time>2026-09-01T19:59:36Z</time>
  <course>178.35</course>
  <speed>0.19</speed>
  <fix>3d</fix>
</trkpt>
<trkpt lat="-35.2824353" lon="149.0050249">
  <ele>600.17</ele>
  <time>2026-09-01T19:59:36Z</time>
  <course>3.38</course>
  <speed>0.1711724276862369</speed>
  <fix>3d</fix>
</trkpt>
<trkpt lat="-35.2824355" lon="149.0050249">
  <ele>600.35</ele>
  <time>2026-09-01T19:59:36Z</time>
  <course>3.31</course>
  <speed>0.17464249196572978</speed>
  <fix>3d</fix>
</trkpt>
<trkpt lat="-35.2824353" lon="149.005025">
  <ele>599.79</ele>
  <time>2026-09-01T19:59:36Z</time>
  <course>178.72</course>
  <speed>0.18</speed>
  <fix>3d</fix>
</trkpt>
<trkpt lat="-35.2824355" lon="149.0050249">
  <ele>600.42</ele>
  <time>2026-09-01T19:59:36Z</time>
  <course>3.28</course>
  <speed>0.17464249196572978</speed>
  <fix>3d</fix>
</trkpt>
<trkpt lat="-35.2824356" lon="149.0050249">
  <ele>600.6</ele>
  <time>2026-09-01T19:59:36Z</time>
  <course>3.19</course>
  <speed>0.16031219541881397</speed>
  <fix>3d</fix>
</trkpt>
<trkpt lat="-35.2824353" lon="149.005025">
  <ele>599.79</ele>
  <time>2026-09-01T19:59:36Z</time>
  <course>178.72</course>
  <speed>0.18</speed>
  <fix>3d</fix>
</trkpt>
<trkpt lat="-35.2824357" lon="149.0050249">
  <ele>600.67</ele>
  <time>2026-09-01T19:59:36Z</time>
  <course>3.15</course>
  <speed>0.16</speed>
  <fix>3d</fix>
</trkpt>
<trkpt lat="-35.2824358" lon="149.0050249">
  <ele>600.85</ele>
  <time>2026-09-01T19:59:36Z</time>
  <course>3.1</course>
  <speed>0.16</speed>
  <fix>3d</fix>
</trkpt>
<trkpt lat="-35.2824356" lon="149.005025">
  <ele>600.29</ele>
  <time>2026-09-01T19:59:36Z</time>
  <course>178.13</course>
  <speed>0.17</speed>
  <fix>3d</fix>
</trkpt>
<trkpt lat="-35.2824358" lon="149.0050249">
  <ele>600.86</ele>
  <time>2026-09-01T19:59:36Z</time>
  <course>3.1</course>
  <speed>0.16</speed>
  <fix>3d</fix>
</trkpt>
<trkpt lat="-35.2824359" lon="149.0050249">
  <ele>601.1</ele>
  <time>2026-09-01T19:59:36Z</time>
  <course>3.11</course>
  <speed>0.16</speed>
  <fix>3d</fix>
</trkpt>
<trkpt lat="-35.2824356" lon="149.005025">
  <ele>600.29</ele>
  <time>2026-09-01T19:59:36Z</time>
  <course>178.13</course>
  <speed>0.17</speed>
  <fix>3d</fix>
</trkpt>
<trkpt lat="-35.2824359" lon="149.0050249">
  <ele>601.11</ele>
  <time>2026-09-01T19:59:36Z</time>
  <course>3.11</course>
  <speed>0.16</speed>
  <fix>3d</fix>
</trkpt>
<trkpt lat="-35.2824361" lon="149.0050249">
  <ele>601.35</ele>
  <time>2026-09-01T19:59:36Z</time>
  <course>3.15</course>
  <speed>0.15</speed>
  <fix>3d</fix>
</trkpt>
<trkpt lat="-35.2824359" lon="149.005025">
  <ele>600.79</ele>
  <time>2026-09-01T19:59:36Z</time>
  <course>177.86</course>
  <speed>0.16</speed>
  <fix>3d</fix>
</trkpt>
<trkpt lat="-35.2824361" lon="149.0050249">
  <ele>601.42</ele>
  <time>2026-09-01T19:59:36Z</time>
  <course>3.16</course>
  <speed>0.15</speed>
  <fix>3d</fix>
</trkpt>
<trkpt lat="-35.2824362" lon="149.0050249">
  <ele>601.6</ele>
  <time>2026-09-01T19:59:36Z</time>
  <course>3.18</course>
  <speed>0.15</speed>
  <fix>3d</fix>
</trkpt>
<trkpt lat="-35.2824359" lon="149.005025">
  <ele>600.79</ele>
  <time>2026-09-01T19:59:36Z</time>
  <course>177.86</course>
  <speed>0.16</speed>
  <fix>3d</fix>
</trkpt>
<trkpt lat="-35.2824363" lon="149.0050249">
  <ele>601.66</ele>
  <time>2026-09-01T19:59:36Z</time>
  <course>3.18</course>
  <speed>0.14</speed>
  <fix>3d</fix>
</trkpt>
<trkpt lat="-35.2824364" lon="149.0050249">
  <ele>601.84</ele>
  <time>2026-09-01T19:59:36Z</time>
  <course>3.18</course>
  <speed>0.14</speed>
  <fix>3d</fix>
</trkpt>
<trkpt lat="-35.2824362" lon="149.005025">
  <ele>601.28</ele>
  <time>2026-09-01T19:59:36Z</time>
  <course>178.94</course>
  <speed>0.15</speed>
  <fix>3d</fix>
</trkpt>
<trkpt lat="-35.2824364" lon="149.0050249">
  <ele>601.92</ele>
  <time>2026-09-01T19:59:36Z</time>
  <course>3.17</course>
  <speed>0.14</speed>
  <fix>3d</fix>
</trkpt>
<trkpt lat="-35.2824365" lon="149.0050249">
  <ele>602.09</ele>
  <time>2026-09-01T19:59:36Z</time>
  <course>3.13</course>
  <speed>0.14</speed>
  <fix>3d</fix>
</trkpt>
<trkpt lat="-35.2824362" lon="149.005025">
  <ele>601.28</ele>
  <time>2026-09-01T19:59:36Z</time>
  <course>178.94</course>
  <speed>0.15</speed>
  <fix>3d</fix>
</trkpt>
<trkpt lat="-35.2824365" lon="149.0050249">
  <ele>602.16</ele>
  <time>2026-09-01T19:59:36Z</time>
  <course>3.12</course>
  <speed>0.14</speed>
  <fix>3d</fix>
</trkpt>
<trkpt lat="-35.2824366" lon="149.0050249">
  <ele>602.34</ele>
  <time>2026-09-01T19:59:36Z</time>
  <course>3.08</course>
  <speed>0.13</speed>
  <fix>3d</fix>
</trkpt>
<trkpt lat="-35.2824365" lon="149.005025">
  <ele>601.78</ele>
  <time>2026-09-01T19:59:36Z</time>
  <course>180.05</course>
  <speed>0.14</speed>
  <fix>3d</fix>
</trkpt>
<trkpt lat="-35.2824367" lon="149.0050249">
  <ele>602.41</ele>
  <time>2026-09-01T19:59:36Z</time>
  <course>3.06</course>
  <speed>0.13</speed>
  <fix>3d</fix>
</trkpt>
<trkpt lat="-35.2824368" lon="149.0050249">
  <ele>602.59</ele>
  <time>2026-09-01T19:59:36Z</time>
  <course>3.01</course>
  <speed>0.13</speed>
  <fix>3d</fix>
</trkpt>
<trkpt lat="-35.2824365" lon="149.005025">
  <ele>601.78</ele>
  <time>2026-09-01T19:59:36Z</time>
  <course>180.05</course>
  <speed>0.14</speed>
  <fix>3d</fix>
</trkpt>
<trkpt lat="-35.2824368" lon="149.0050249">
  <ele>602.66</ele>
  <time>2026-09-01T19:59:36Z</time>
  <course>2.98</course>
  <speed>0.12</speed>
  <fix>3d</fix>
</trkpt>
<trkpt lat="-35.2824369" lon="149.0050249">
  <ele>602.84</ele>
  <time>2026-09-01T19:59:36Z</time>
  <course>2.93</course>
  <speed>0.12</speed>
  <fix>3d</fix>
</trkpt>
<trkpt lat="-35.2824367" lon="149.005025">
  <ele>602.28</ele>
  <time>2026-09-01T19:59:36Z</time>
  <course>180.65</course>
  <speed>0.13</speed>
  <fix>3d</fix>
</trkpt>
<trkpt lat="-35.2824369" lon="149.0050249">
  <ele>602.92</ele>
  <time>2026-09-01T19:59:36Z</time>
  <course>2.9</course>
  <speed>0.12</speed>
  <fix>3d</fix>
</trkpt>
<trkpt lat="-35.282437" lon="149.0050249">
  <ele>603.09</ele>
  <time>2026-09-01T19:59:36Z</time>
  <course>2.85</course>
  <speed>0.12</speed>
  <fix>3d</fix>
</trkpt>
<trkpt lat="-35.2824367" lon="149.005025">
  <ele>602.28</ele>
  <time>2026-09-01T19:59:36Z</time>
  <course>180.65</course>
  <speed>0.13</speed>
  <fix>3d</fix>
</trkpt>
<trkpt lat="-35.282437" lon="149.0050249">
  <ele>603.17</ele>
  <time>2026-09-01T19:59:36Z</time>
  <course>2.83</course>
  <speed>0.11</speed>
  <fix>3d</fix>
</trkpt>
<trkpt lat="-35.2824371" lon="149.0050249">
  <ele>603.34</ele>
  <time>2026-09-01T19:59:36Z</time>
  <course>2.81</course>
  <speed>0.11</speed>
  <fix>3d</fix>
</trkpt>
<trkpt lat="-35.282437" lon="149.005025">
  <ele>602.78</ele>
  <time>2026-09-01T19:59:36Z</time>
  <course>180.59</course>
  <speed>0.12</speed>
  <fix>3d</fix>
</trkpt>
<trkpt lat="-35.2824371" lon="149.0050249">
  <ele>603.35</ele>
  <time>2026-09-01T19:59:36Z</time>
  <course>2.81</course>
  <speed>0.11</speed>
  <fix>3d</fix>
</trkpt>
<trkpt lat="-35.2824372" lon="149.0050249">
  <ele>603.59</ele>
  <time>2026-09-01T19:59:36Z</time>
  <course>2.8</course>
  <speed>0.11</speed>
  <fix>3d</fix>
</trkpt>
<trkpt lat="-35.282437" lon="149.005025">
  <ele>602.78</ele>
  <time>2026-09-01T19:59:36Z</time>
  <course>180.59</course>
  <speed>0.12</speed>
  <fix>3d</fix>
</trkpt>
<trkpt lat="-35.2824372" lon="149.0050249">
  <ele>603.61</ele>
  <time>2026-09-01T19:59:36Z</time>
  <course>2.8</course>
  <speed>0.11</speed>
  <fix>3d</fix>
</trkpt>
<trkpt lat="-35.2824373" lon="149.0050249">
  <ele>603.84</ele>
  <time>2026-09-01T19:59:36Z</time>
  <course>2.8</course>
  <speed>0.1</speed>
  <fix>3d</fix>
</trkpt>
<trkpt lat="-35.2824371" lon="149.005025">
  <ele>603.28</ele>
  <time>2026-09-01T19:59:36Z</time>
  <course>180.88</course>
  <speed>0.11</speed>
  <fix>3d</fix>
</trkpt>
<trkpt lat="-35.2824373" lon="149.0050249">
  <ele>603.91</ele>
  <time>2026-09-01T19:59:36Z</time>
  <course>2.8</course>
  <speed>0.1</speed>
  <fix>3d</fix>
</trkpt>
<trkpt lat="-35.2824374" lon="149.0050249">
  <ele>604.09</ele>
  <time>2026-09-01T19:59:36Z</time>
  <course>2.8</course>
  <speed>0.09</speed>
  <fix>3d</fix>
</trkpt>
<trkpt lat="-35.2824371" lon="149.005025">
  <ele>603.28</ele>
  <time>2026-09-01T19:59:36Z</time>
  <course>180.88</course>
  <speed>0.11</speed>
  <fix>3d</fix>
</trkpt>
<trkpt lat="-35.2824374" lon="149.0050249">
  <ele>604.1</ele>
  <time>2026-09-01T19:59:36Z</time>
  <course>2.8</course>
  <speed>0.09</speed>
  <fix>3d</fix>
</trkpt>
<trkpt lat="-35.2824375" lon="149.0050249">
  <ele>604.34</ele>
  <time>2026-09-01T19:59:36Z</time>
  <course>2.8</course>
  <speed>0.09</speed>
  <fix>3d</fix>
</trkpt>
<trkpt lat="-35.2824374" lon="149.005025">
  <ele>603.78</ele>
  <time>2026-09-01T19:59:36Z</time>
  <course>182.13</course>
  <speed>0.09</speed>
  <fix>3d</fix>
</trkpt>
<trkpt lat="-35.2824375" lon="149.0050249">
  <ele>604.42</ele>
  <time>2026-09-01T19:59:36Z</time>
  <course>2.81</course>
  <speed>0.09</speed>
  <fix>3d</fix>
</trkpt>
<trkpt lat="-35.2824375" lon="149.005025">
  <ele>604.59</ele>
  <time>2026-09-01T19:59:36Z</time>
  <course>2.81</course>
  <speed>0.08</speed>
  <fix>3d</fix>
</trkpt>
<trkpt lat="-35.2824374" lon="149.005025">
  <ele>603.78</ele>
  <time>2026-09-01T19:59:36Z</time>
  <course>182.13</course>
  <speed>0.09</speed>
  <fix>3d</fix>
</trkpt>
<trkpt lat="-35.2824376" lon="149.005025">
  <ele>604.65</ele>
  <time>2026-09-01T19:59:36Z</time>
  <course>2.81</course>
  <speed>0.08</speed>
  <fix>3d</fix>
</trkpt>
<trkpt lat="-35.2824376" lon="149.005025">
  <ele>604.84</ele>
  <time>2026-09-01T19:59:36Z</time>
  <course>2.81</course>
  <speed>0.08062257748298549</speed>
  <fix>3d</fix>
</trkpt>
<trkpt lat="-35.2824375" lon="149.005025">
  <ele>604.28</ele>
  <time>2026-09-01T19:59:36Z</time>
  <course>183.91</course>
  <speed>0.08</speed>
  <fix>3d</fix>
</trkpt>
<trkpt lat="-35.2824376" lon="149.005025">
  <ele>604.91</ele>
  <time>2026-09-01T19:59:36Z</time>
  <course>2.81</course>
  <speed>0.08062257748298549</speed>
  <fix>3d</fix>
</trkpt>
<trkpt lat="-35.2824377" lon="149.005025">
  <ele>605.09</ele>
  <time>2026-09-01T19:59:36Z</time>
  <course>2.8</course>
  <speed>0.07071067811865475</speed>
  <fix>3d</fix>
</trkpt>
<trkpt lat="-35.2824375" lon="149.005025">
  <ele>604.28</ele>
  <time>2026-09-01T19:59:36Z</time>
  <course>183.91</course>
  <speed>0.08</speed>
  <fix>3d</fix>
</trkpt>
<trkpt lat="-35.2824377" lon="149.005025">
  <ele>605.16</ele>
  <time>2026-09-01T19:59:36Z</time>
  <course>2.8</course>
  <speed>0.07071067811865475</speed>
  <fix>3d</fix>
</trkpt>
<trkpt lat="-35.2824378" lon="149.005025">
  <ele>605.34</ele>
  <time>2026-09-01T19:59:36Z</time>
  <course>2.78</course>
  <speed>0.07071067811865475</speed>
  <fix>3d</fix>
</trkpt>
<trkpt lat="-35.2824377" lon="149.005025">
  <ele>604.78</ele>
  <time>2026-09-01T19:59:36Z</time>
  <course>186.05</course>
  <speed>0.07</speed>
  <fix>3d</fix>
</trkpt>
<trkpt lat="-35.2824378" lon="149.005025">
  <ele>605.41</ele>
  <time>2026-09-01T19:59:36Z</time>
  <course>2.77</course>
  <speed>0.07071067811865475</speed>
  <fix>3d</fix>
</trkpt>
<trkpt lat="-35.2824378" lon="149.005025">
  <ele>605.59</ele>
  <time>2026-09-01T19:59:36Z</time>
  <course>2.75</course>
  <speed>0.06082762530298219</speed>
  <fix>3d</fix>
</trkpt>
<trkpt lat="-35.2824377" lon="149.005025">
  <ele>604.78</ele>
  <time>2026-09-01T19:59:36Z</time>
  <course>186.05</course>
  <speed>0.07</speed>
  <fix>3d</fix>
</trkpt>
<trkpt lat="-35.2824378" lon="149.005025">
  <ele>605.66</ele>
  <time>2026-09-01T19:59:36Z</time>
  <course>2.74</course>
  <speed>0.06082762530298219</speed>
  <fix>3d</fix>
</trkpt>
<trkpt lat="-35.2824379" lon="149.005025">
  <ele>605.84</ele>
  <time>2026-09-01T19:59:36Z</time>
  <course>2.72</course>
  <speed>0.06082762530298219</speed>
  <fix>3d</fix>
</trkpt>
<trkpt lat="-35.2824378" lon="149.005025">
  <ele>605.28</ele>
  <time>2026-09-01T19:59:36Z</time>
  <course>188.18</course>
  <speed>0.06</speed>
  <fix>3d</fix>
</trkpt>
<trkpt lat="-35.2824379" lon="149.005025">
  <ele>605.91</ele>
  <time>2026-09-01T19:59:36Z</time>
  <course>2.71</course>
  <speed>0.06082762530298219</speed>
  <fix>3d</fix>
</trkpt>
<trkpt lat="-35.2824379" lon="149.005025">
  <ele>606.09</ele>
  <time>2026-09-01T19:59:36Z</time>
  <course>2.69</course>
  <speed>0.05099019513592785</speed>
  <fix>3d</fix>
</trkpt>
<trkpt lat="-35.2824378" lon="149.005025">
  <ele>605.28</ele>
  <time>2026-09-01T19:59:36Z</time>
  <course>188.18</course>
  <speed>0.06</speed>
  <fix>3d</fix>
</trkpt>
<trkpt lat="-35.2824379" lon="149.005025">
  <ele>606.1</ele>
  <time>2026-09-01T19:59:36Z</time>
  <course>2.69</course>
  <speed>0.05099019513592785</speed>
  <fix>3d</fix>
</trkpt>
<trkpt lat="-35.282438" lon="149.005025">
  <ele>606.34</ele>
  <time>2026-09-01T19:59:36Z</time>
  <course>2.66</course>
  <speed>0.05099019513592785</speed>
  <fix>3d</fix>
</trkpt>
<trkpt lat="-35.2824379" lon="149.005025">
  <ele>605.78</ele>
  <time>2026-09-01T19:59:36Z</time>
  <course>191.85</course>
  <speed>0.05</speed>
  <fix>3d</fix>
</trkpt>
<trkpt lat="-35.282438" lon="149.005025">
  <ele>606.35</ele>
  <time>2026-09-01T19:59:36Z</time>
  <course>2.66</course>
  <speed>0.05099019513592785</speed>
  <fix>3d</fix>
</trkpt>
<trkpt lat="-35.282438" lon="149.005025">
  <ele>606.59</ele>
  <time>2026-09-01T19:59:36Z</time>
  <course>2.63</course>
  <speed>0.0412310562561766</speed>
  <fix>3d</fix>
</trkpt>
<trkpt lat="-35.2824379" lon="149.005025">
  <ele>605.78</ele>
  <time>2026-09-01T19:59:36Z</time>
  <course>191.85</course>
  <speed>0.05</speed>
  <fix>3d</fix>
</trkpt>
<trkpt lat="-35.282438" lon="149.005025">
  <ele>606.67</ele>
  <time>2026-09-01T19:59:36Z</time>
  <course>2.63</course>
  <speed>0.0412310562561766</speed>
  <fix>3d</fix>
</trkpt>
<trkpt lat="-35.282438" lon="149.005025">
  <ele>606.84</ele>
  <time>2026-09-01T19:59:36Z</time>
  <course>2.61</course>
  <speed>0.0412310562561766</speed>
  <fix>3d</fix>
</trkpt>
<trkpt lat="-35.282438" lon="149.005025">
  <ele>606.28</ele>
  <time>2026-09-01T19:59:36Z</time>
  <course>197.56</course>
  <speed>0.04</speed>
  <fix>3d</fix>
</trkpt>
<trkpt lat="-35.2824381" lon="149.005025">
  <ele>606.92</ele>
  <time>2026-09-01T19:59:36Z</time>
  <course>2.6</course>
  <speed>0.0412310562561766</speed>
  <fix>3d</fix>
</trkpt>
<trkpt lat="-35.2824381" lon="149.005025">
  <ele>607.09</ele>
  <time>2026-09-01T19:59:36Z</time>
  <course>2.58</course>
  <speed>0.0412310562561766</speed>
  <fix>3d</fix>
</trkpt>
<trkpt lat="-35.282438" lon="149.005025">
  <ele>606.28</ele>
  <time>2026-09-01T19:59:36Z</time>
  <course>197.56</course>
  <speed>0.04</speed>
  <fix>3d</fix>
</trkpt>
<trkpt lat="-35.2824381" lon="149.005025">
  <ele>607.17</ele>
  <time>2026-09-01T19:59:36Z</time>
  <course>2.58</course>
  <speed>0.0412310562561766</speed>
  <fix>3d</fix>
</trkpt>
<trkpt lat="-35.2824381" lon="149.005025">
  <ele>607.34</ele>
  <time>2026-09-01T19:59:36Z</time>
  <course>2.56</course>
  <speed>0.0316227766016838</speed>
  <fix>3d</fix>
</trkpt>
<trkpt lat="-35.282438" lon="149.005025">
  <ele>606.78</ele>
  <time>2026-09-01T19:59:36Z</time>
  <course>204.85</course>
  <speed>0.03</speed>
  <fix>3d</fix>
</trkpt>
<trkpt lat="-35.2824381" lon="149.005025">
  <ele>607.43</ele>
  <time>2026-09-01T19:59:36Z</time>
  <course>2.56</course>
  <speed>0.0316227766016838</speed>
  <fix>3d</fix>
</trkpt>
<trkpt lat="-35.2824381" lon="149.005025">
  <ele>607.59</ele>
  <time>2026-09-01T19:59:36Z</time>
  <course>2.56</course>
  <speed>0.0316227766016838</speed>
  <fix>3d</fix>
</trkpt>
<trkpt lat="-35.282438" lon="149.005025">
  <ele>606.78</ele>
  <time>2026-09-01T19:59:36Z</time>
  <course>204.85</course>
  <speed>0.03</speed>
  <fix>3d</fix>
</trkpt>
<trkpt lat="-35.2824381" lon="149.005025">
  <ele>607.6</ele>
  <time>2026-09-01T19:59:36Z</time>
  <course>2.56</course>
  <speed>0.0316227766016838</speed>
  <fix>3d</fix>
</trkpt>
<trkpt lat="-35.2824381" lon="149.005025">
  <ele>607.84</ele>
  <time>2026-09-01T19:59:36Z</time>
  <course>2.57</course>
  <speed>0.022360679774997897</speed>
  <fix>3d</fix>
</trkpt>
<trkpt lat="-35.2824381" lon="149.005025">
  <ele>607.28</ele>
  <time>2026-09-01T19:59:36Z</time>
  <course>215.94</course>
  <speed>0.02</speed>
  <fix>3d</fix>
</trkpt>
<trkpt lat="-35.2824382" lon="149.005025">
  <ele>607.92</ele>
  <time>2026-09-01T19:59:36Z</time>
  <course>2.57</course>
  <speed>0.022360679774997897</speed>
  <fix>3d</fix>
</trkpt>
<trkpt lat="-35.2824382" lon="149.005025">
  <ele>608.09</ele>
  <time>2026-09-01T19:59:36Z</time>
  <course>2.58</course>
  <speed>0.022360679774997897</speed>
  <fix>3d</fix>
</trkpt>
<trkpt lat="-35.2824381" lon="149.005025">
  <ele>607.28</ele>
  <time>2026-09-01T19:59:36Z</time>
  <course>215.94</course>
  <speed>0.02</speed>
  <fix>3d</fix>
</trkpt>
<trkpt lat="-35.2824382" lon="149.005025">
  <ele>608.16</ele>
  <time>2026-09-01T19:59:36Z</time>
  <course>2.58</course>
  <speed>0.022360679774997897</speed>
  <fix>3d</fix>
</trkpt>
<trkpt lat="-35.2824382" lon="149.005025">
  <ele>608.34</ele>
  <time>2026-09-01T19:59:36Z</time>
  <course>2.58</course>
  <speed>0.022360679774997897</speed>
  <fix>3d</fix>
</trkpt>
<trkpt lat="-35.2824381" lon="149.005025">
  <ele>607.78</ele>
  <time>2026-09-01T19:59:36Z</time>
  <course>232.49</course>
  <speed>0.02</speed>
  <fix>3d</fix>
</trkpt>
<trkpt lat="-35.2824382" lon="149.005025">
  <ele>608.41</ele>
  <time>2026-09-01T19:59:36Z</time>
  <course>2.58</course>
  <speed>0.022360679774997897</speed>
  <fix>3d</fix>
</trkpt>
<trkpt lat="-35.2824382" lon="149.005025">
  <ele>608.59</ele>
  <time>2026-09-01T19:59:36Z</time>
  <course>2.58</course>
  <speed>0.01414213562373095</speed>
  <fix>3d</fix>
</trkpt>
<trkpt lat="-35.2824381" lon="149.005025">
  <ele>607.78</ele>
  <time>2026-09-01T19:59:36Z</time>
  <course>232.49</course>
  <speed>0.02</speed>
  <fix>3d</fix>
</trkpt>
<trkpt lat="-35.2824382" lon="149.005025">
  <ele>608.59</ele>
  <time>2026-09-01T19:59:36Z</time>
  <course>2.58</course>
  <speed>0.01414213562373095</speed>
  <fix>3d</fix>
</trkpt>
<trkpt lat="-35.2824382" lon="149.005025">
  <ele>608.83</ele>
  <time>2026-09-01T19:59:36Z</time>
  <course>2.57</course>
  <speed>0.01414213562373095</speed>
  <fix>3d</fix>
</trkpt>
<trkpt lat="-35.2824382" lon="149.0050249">
  <ele>608.28</ele>
  <time>2026-09-01T19:59:36Z</time>
  <course>251.81</course>
  <speed>0.02</speed>
  <fix>3d</fix>
</trkpt>
<trkpt lat="-35.2824382" lon="149.005025">
  <ele>608.84</ele>
  <time>2026-09-01T19:59:36Z</time>
  <course>2.57</course>
  <speed>0.01414213562373095</speed>
  <fix>3d</fix>
</trkpt>
<trkpt lat="-35.2824382" lon="149.005025">
  <ele>609.08</ele>
  <time>2026-09-01T19:59:36Z</time>
  <course>2.56</course>
  <speed>0.01414213562373095</speed>
  <fix>3d</fix>
</trkpt>
<trkpt lat="-35.2824382" lon="149.0050249">
  <ele>608.28</ele>
  <time>2026-09-01T19:59:36Z</time>
  <course>251.81</course>
  <speed>0.02</speed>
  <fix>3d</fix>
</trkpt>
<trkpt lat="-35.2824382" lon="149.005025">
  <ele>609.15</ele>
  <time>2026-09-01T19:59:36Z</time>
  <course>2.56</course>
  <speed>0.01414213562373095</speed>
  <fix>3d</fix>
</trkpt>
<trkpt lat="-35.2824382" lon="149.005025">
  <ele>609.33</ele>
  <time>2026-09-01T19:59:36Z</time>
  <course>2.55</course>
  <speed>0.01</speed>
  <fix>3d</fix>
</trkpt>
<trkpt lat="-35.2824382" lon="149.0050249">
  <ele>608.78</ele>
  <time>2026-09-01T19:59:36Z</time>
  <course>269.96</course>
  <speed>0.02</speed>
  <fix>3d</fix>
</trkpt>
<trkpt lat="-35.2824382" lon="149.005025">
  <ele>609.4</ele>
  <time>2026-09-01T19:59:36Z</time>
  <course>2.55</course>
  <speed>0.01</speed>
  <fix>3d</fix>
</trkpt>
<trkpt lat="-35.2824382" lon="149.005025">
  <ele>609.59</ele>
  <time>2026-09-01T19:59:36Z</time>
  <course>2.56</course>
  <speed>0.01</speed>
  <fix>3d</fix>
</trkpt>
<trkpt lat="-35.2824382" lon="149.0050249">
  <ele>608.78</ele>
  <time>2026-09-01T19:59:36Z</time>
  <course>269.96</course>
  <speed>0.02</speed>
  <fix>3d</fix>
</trkpt>
<trkpt lat="-35.2824382" lon="149.005025">
  <ele>609.65</ele>
  <time>2026-09-01T19:59:36Z</time>
  <course>2.56</course>
  <speed>0.01</speed>
  <fix>3d</fix>
</trkpt>
<trkpt lat="-35.2824382" lon="149.005025">
  <ele>609.84</ele>
  <time>2026-09-01T19:59:36Z</time>
  <course>2.56</course>
  <speed>0.01</speed>
  <fix>3d</fix>
</trkpt>
<trkpt lat="-35.2824382" lon="149.0050248">
  <ele>609.29</ele>
  <time>2026-09-01T19:59:36Z</time>
  <course>283.64</course>
  <speed>0.02</speed>
  <fix>3d</fix>
</trkpt>
<trkpt lat="-35.2824382" lon="149.005025">
  <ele>609.9</ele>
  <time>2026-09-01T19:59:36Z</time>
  <course>2.56</course>
  <speed>0.01</speed>
  <fix>3d</fix>
</trkpt>
<trkpt lat="-35.2824382" lon="149.005025">
  <ele>610.09</ele>
  <time>2026-09-01T19:59:36Z</time>
  <course>2.57</course>
  <speed>0.01</speed>
  <fix>3d</fix>
</trkpt>
<trkpt lat="-35.2824382" lon="149.0050248">
  <ele>609.29</ele>
  <time>2026-09-01T19:59:36Z</time>
  <course>283.64</course>
  <speed>0.02</speed>
  <fix>3d</fix>
</trkpt>
<trkpt lat="-35.2824382" lon="149.005025">
  <ele>610.16</ele>
  <time>2026-09-01T19:59:36Z</time>
  <course>2.57</course>
  <speed>0.01</speed>
  <fix>3d</fix>
</trkpt>
<trkpt lat="-35.2824382" lon="149.0050249">
  <ele>610.34</ele>
  <time>2026-09-01T19:59:36Z</time>
  <course>2.56</course>
  <speed>0.01</speed>
  <fix>3d</fix>
</trkpt>
<trkpt lat="-35.2824382" lon="149.0050248">
  <ele>609.79</ele>
  <time>2026-09-01T19:59:36Z</time>
  <course>293.18</course>
  <speed>0.02</speed>
  <fix>3d</fix>
</trkpt>
<trkpt lat="-35.2824382" lon="149.0050249">
  <ele>610.42</ele>
  <time>2026-09-01T19:59:36Z</time>
  <course>2.56</course>
  <speed>0.01</speed>
  <fix>3d</fix>
</trkpt>
<trkpt lat="-35.2824382" lon="149.0050249">
  <ele>610.59</ele>
  <time>2026-09-01T19:59:36Z</time>
  <course>2.55</course>
  <speed>0.01</speed>
  <fix>3d</fix>
</trkpt>
<trkpt lat="-35.2824382" lon="149.0050248">
  <ele>609.79</ele>
  <time>2026-09-01T19:59:36Z</time>
  <course>293.18</course>
  <speed>0.02</speed>
  <fix>3d</fix>
</trkpt>
<trkpt lat="-35.2824382" lon="149.0050249">
  <ele>610.66</ele>
  <time>2026-09-01T19:59:36Z</time>
  <course>2.55</course>
  <speed>0.01</speed>
  <fix>3d</fix>
</trkpt>
<trkpt lat="-35.2824382" lon="149.0050249">
  <ele>610.85</ele>
  <time>2026-09-01T19:59:36Z</time>
  <course>2.55</course>
  <speed>0.01</speed>
  <fix>3d</fix>
</trkpt>
<trkpt lat="-35.2824382" lon="149.0050247">
  <ele>610.29</ele>
  <time>2026-09-01T19:59:36Z</time>
  <course>299.29</course>
  <speed>0.03</speed>
  <fix>3d</fix>
</trkpt>
<trkpt lat="-35.2824382" lon="149.0050249">
  <ele>610.86</ele>
  <time>2026-09-01T19:59:36Z</time>
  <course>2.55</course>
  <speed>0.01</speed>
  <fix>3d</fix>
</trkpt>
<trkpt lat="-35.2824382" lon="149.0050249">
  <ele>611.1</ele>
  <time>2026-09-01T19:59:36Z</time>
  <course>2.55</course>
  <speed>0.01</speed>
  <fix>3d</fix>
</trkpt>
<trkpt lat="-35.2824382" lon="149.0050247">
  <ele>610.29</ele>
  <time>2026-09-01T19:59:36Z</time>
  <course>299.29</course>
  <speed>0.03</speed>
  <fix>3d</fix>
</trkpt>
<trkpt lat="-35.2824382" lon="149.0050249">
  <ele>611.17</ele>
  <time>2026-09-01T19:59:36Z</time>
  <course>2.55</course>
  <speed>0.01</speed>
  <fix>3d</fix>
</trkpt>
<trkpt lat="-35.2824382" lon="149.0050249">
  <ele>611.35</ele>
  <time>2026-09-01T19:59:36Z</time>
  <course>2.55</course>
  <speed>0.01</speed>
  <fix>3d</fix>
</trkpt>
<trkpt lat="-35.2824382" lon="149.0050247">
  <ele>610.79</ele>
  <time>2026-09-01T19:59:36Z</time>
  <course>303.88</course>
  <speed>0.03</speed>
  <fix>3d</fix>
</trkpt>
<trkpt lat="-35.2824382" lon="149.0050249">
  <ele>611.36</ele>
  <time>2026-09-01T19:59:36Z</time>
  <course>2.55</course>
  <speed>0.01</speed>
  <fix>3d</fix>
</trkpt>
<trkpt lat="-35.2824382" lon="149.0050249">
  <ele>611.6</ele>
  <time>2026-09-01T19:59:36Z</time>
  <course>2.55</course>
  <speed>0.01</speed>
  <fix>3d</fix>
</trkpt>
<trkpt lat="-35.2824382" lon="149.0050247">
  <ele>610.79</ele>
  <time>2026-09-01T19:59:36Z</time>
  <course>303.88</course>
  <speed>0.03</speed>
  <fix>3d</fix>
</trkpt>
<trkpt lat="-35.2824382" lon="149.0050249">
  <ele>611.61</ele>
  <time>2026-09-01T19:59:36Z</time>
  <course>2.55</course>
  <speed>0.01</speed>
  <fix>3d</fix>
</trkpt>
<trkpt lat="-35.2824382" lon="149.0050249">
  <ele>611.85</ele>
  <time>2026-09-01T19:59:36Z</time>
  <course>2.56</course>
  <speed>0.01</speed>
  <fix>3d</fix>
</trkpt>
<trkpt lat="-35.2824382" lon="149.0050246">
  <ele>611.29</ele>
  <time>2026-09-01T19:59:36Z</time>
  <course>308.1</course>
  <speed>0.03</speed>
  <fix>3d</fix>
</trkpt>
<trkpt lat="-35.2824382" lon="149.0050249">
  <ele>611.93</ele>
  <time>2026-09-01T19:59:36Z</time>
  <course>2.57</course>
  <speed>0.01</speed>
  <fix>3d</fix>
</trkpt>
<trkpt lat="-35.2824382" lon="149.0050249">
  <ele>612.1</ele>
  <time>2026-09-01T19:59:36Z</time>
  <course>2.58</course>
  <speed>0.01</speed>
  <fix>3d</fix>
</trkpt>
<trkpt lat="-35.2824382" lon="149.0050246">
  <ele>611.29</ele>
  <time>2026-09-01T19:59:36Z</time>
  <course>308.1</course>
  <speed>0.03</speed>
  <fix>3d</fix>
</trkpt>
<trkpt lat="-35.2824382" lon="149.0050249">
  <ele>612.17</ele>
  <time>2026-09-01T19:59:36Z</time>
  <course>2.58</course>
  <speed>0.01</speed>
  <fix>3d</fix>
</trkpt>
<trkpt lat="-35.2824382" lon="149.0050249">
  <ele>612.35</ele>
  <time>2026-09-01T19:59:36Z</time>
  <course>2.59</course>
  <speed>0.01</speed>
  <fix>3d</fix>
</trkpt>
<trkpt lat="-35.2824381" lon="149.0050245">
  <ele>611.8</ele>
  <time>2026-09-01T19:59:36Z</time>
  <course>312.11</course>
  <speed>0.03</speed>
  <fix>3d</fix>
</trkpt>
<trkpt lat="-35.2824382" lon="149.0050248">
  <ele>612.42</ele>
  <time>2026-09-01T19:59:36Z</time>
  <course>2.59</course>
  <speed>0.01</speed>
  <fix>3d</fix>
</trkpt>
<trkpt lat="-35.2824382" lon="149.0050248">
  <ele>612.6</ele>
  <time>2026-09-01T19:59:36Z</time>
  <course>2.6</course>
  <speed>0.01</speed>
  <fix>3d</fix>
</trkpt>
<trkpt lat="-35.2824381" lon="149.0050245">
  <ele>611.8</ele>
  <time>2026-09-01T19:59:36Z</time>
  <course>312.11</course>
  <speed>0.03</speed>
  <fix>3d</fix>
</trkpt>
<trkpt lat="-35.2824382" lon="149.0050248">
  <ele>612.67</ele>
  <time>2026-09-01T19:59:36Z</time>
  <course>2.61</course>
  <speed>0.01</speed>
  <fix>3d</fix>
</trkpt>
<trkpt lat="-35.2824382" lon="149.0050248">
  <ele>612.85</ele>
  <time>2026-09-01T19:59:36Z</time>
  <course>2.63</course>
  <speed>0.01</speed>
  <fix>3d</fix>
</trkpt>
<trkpt lat="-35.2824381" lon="149.0050245">
  <ele>612.29</ele>
  <time>2026-09-01T19:59:36Z</time>
  <course>315.33</course>
  <speed>0.03</speed>
  <fix>3d</fix>
</trkpt>
<trkpt lat="-35.2824382" lon="149.0050248">
  <ele>612.91</ele>
  <time>2026-09-01T19:59:36Z</time>
  <course>2.63</course>
  <speed>0.01</speed>
  <fix>3d</fix>
</trkpt>
<trkpt lat="-35.2824381" lon="149.0050248">
  <ele>613.1</ele>
  <time>2026-09-01T19:59:36Z</time>
  <course>2.65</course>
  <speed>0.01</speed>
  <fix>3d</fix>
</trkpt>
<trkpt lat="-35.2824381" lon="149.0050245">
  <ele>612.29</ele>
  <time>2026-09-01T19:59:36Z</time>
  <course>315.33</course>
  <speed>0.03</speed>
  <fix>3d</fix>
</trkpt>
<trkpt lat="-35.2824381" lon="149.0050248">
  <ele>613.16</ele>
  <time>2026-09-01T19:59:36Z</time>
  <course>2.65</course>
  <speed>0.01</speed>
  <fix>3d</fix>
</trkpt>
<trkpt lat="-35.2824381" lon="149.0050247">
  <ele>613.34</ele>
  <time>2026-09-01T19:59:36Z</time>
  <course>2.67</course>
  <speed>0.01</speed>
  <fix>3d</fix>
</trkpt>
<trkpt lat="-35.282438" lon="149.0050244">
  <ele>612.79</ele>
  <time>2026-09-01T19:59:36Z</time>
  <course>317.33</course>
  <speed>0.03</speed>
  <fix>3d</fix>
</trkpt>
<trkpt lat="-35.2824381" lon="149.0050247">
  <ele>613.41</ele>
  <time>2026-09-01T19:59:36Z</time>
  <course>2.67</course>
  <speed>0.01</speed>
  <fix>3d</fix>
</trkpt>
<trkpt lat="-35.2824381" lon="149.0050247">
  <ele>613.59</ele>
  <time>2026-09-01T19:59:36Z</time>
  <course>2.68</course>
  <speed>0.01</speed>
  <fix>3d</fix>
</trkpt>
<trkpt lat="-35.282438" lon="149.0050244">
  <ele>612.79</ele>
  <time>2026-09-01T19:59:36Z</time>
  <course>317.33</course>
  <speed>0.03</speed>
  <fix>3d</fix>
</trkpt>
<trkpt lat="-35.2824381" lon="149.0050247">
  <ele>613.65</ele>
  <time>2026-09-01T19:59:36Z</time>
  <course>2.69</course>
  <speed>0.01</speed>
  <fix>3d</fix>
</trkpt>
<trkpt lat="-35.2824381" lon="149.0050247">
  <ele>613.83</ele>
  <time>2026-09-01T19:59:36Z</time>
  <course>2.69</course>
  <speed>0.01</speed>
  <fix>3d</fix>
</trkpt>
<trkpt lat="-35.282438" lon="149.0050244">
  <ele>613.29</ele>
  <time>2026-09-01T19:59:36Z</time>
  <course>319.37</course>
  <speed>0.03</speed>
  <fix>3d</fix>
</trkpt>
<trkpt lat="-35.2824381" lon="149.0050247">
  <ele>613.9</ele>
  <time>2026-09-01T19:59:36Z</time>
  <course>2.7</course>
  <speed>0.0</speed>
  <fix>3d</fix>
</trkpt>
<trkpt lat="-35.2824381" lon="149.0050247">
  <ele>614.08</ele>
  <time>2026-09-01T19:59:36Z</time>
  <course>2.7</course>
  <speed>0.0</speed>
  <fix>3d</fix>
</trkpt>
<trkpt lat="-35.282438" lon="149.0050244">
  <ele>613.29</ele>
  <time>2026-09-01T19:59:36Z</time>
  <course>319.37</course>
  <speed>0.03</speed>
  <fix>3d</fix>
</trkpt>
<trkpt lat="-35.2824381" lon="149.0050247">
  <ele>614.09</ele>
  <time>2026-09-01T19:59:36Z</time>
  <course>2.7</course>
  <speed>0.0</speed>
  <fix>3d</fix>
</trkpt>
<trkpt lat="-35.282438" lon="149.0050246">
  <ele>614.33</ele>
  <time>2026-09-01T19:59:36Z</time>
  <course>2.71</course>
  <speed>0.0</speed>
  <fix>3d</fix>
</trkpt>
<trkpt lat="-35.2824379" lon="149.0050243">
  <ele>613.79</ele>
  <time>2026-09-01T19:59:36Z</time>
  <course>322.07</course>
  <speed>0.03</speed>
  <fix>3d</fix>
</trkpt>
<trkpt lat="-35.282438" lon="149.0050246">
  <ele>614.34</ele>
  <time>2026-09-01T19:59:36Z</time>
  <course>2.71</course>
  <speed>0.0</speed>
  <fix>3d</fix>
</trkpt>
<trkpt lat="-35.282438" lon="149.0050246">
  <ele>614.57</ele>
  <time>2026-09-01T19:59:36Z</time>
  <course>2.71</course>
  <speed>0.0</speed>
  <fix>3d</fix>
</trkpt>
<trkpt lat="-35.2824379" lon="149.0050243">
  <ele>613.79</ele>
  <time>2026-09-01T19:59:36Z</time>
  <course>322.07</course>
  <speed>0.03</speed>
  <fix>3d</fix>
</trkpt>
<trkpt lat="-35.282438" lon="149.0050246">
  <ele>614.65</ele>
  <time>2026-09-01T19:59:36Z</time>
  <course>2.72</course>
  <speed>0.0</speed>
  <fix>3d</fix>
</trkpt>
<trkpt lat="-35.282438" lon="149.0050246">
  <ele>614.82</ele>
  <time>2026-09-01T19:59:36Z</time>
  <course>2.73</course>
  <speed>0.0</speed>
  <fix>3d</fix>
</trkpt>
<trkpt lat="-35.2824379" lon="149.0050243">
  <ele>614.29</ele>
  <time>2026-09-01T19:59:36Z</time>
  <course>324.82</course>
  <speed>0.03</speed>
  <fix>3d</fix>
</trkpt>
<trkpt lat="-35.282438" lon="149.0050246">
  <ele>614.83</ele>
  <time>2026-09-01T19:59:36Z</time>
  <course>2.73</course>
  <speed>0.0</speed>
  <fix>3d</fix>
</trkpt>
<trkpt lat="-35.282438" lon="149.0050246">
  <ele>615.08</ele>
  <time>2026-09-01T19:59:36Z</time>
  <course>2.74</course>
  <speed>0.01</speed>
  <fix>3d</fix>
</trkpt>
<trkpt lat="-35.2824379" lon="149.0050243">
  <ele>614.29</ele>
  <time>2026-09-01T19:59:36Z</time>
  <course>324.82</course>
  <speed>0.03</speed>
  <fix>3d</fix>
</trkpt>
<trkpt lat="-35.282438" lon="149.0050246">
  <ele>615.14</ele>
  <time>2026-09-01T19:59:36Z</time>
  <course>2.74</course>
  <speed>0.01</speed>
  <fix>3d</fix>
</trkpt>
<trkpt lat="-35.282438" lon="149.0050245">
  <ele>615.33</ele>
  <time>2026-09-01T19:59:36Z</time>
  <course>2.76</course>
  <speed>0.01414213562373095</speed>
  <fix>3d</fix>
</trkpt>
<trkpt lat="-35.2824378" lon="149.0050243">
  <ele>614.79</ele>
  <time>2026-09-01T19:59:36Z</time>
  <course>328.73</course>
  <speed>0.03</speed>
  <fix>3d</fix>
</trkpt>
<trkpt lat="-35.2824379" lon="149.0050245">
  <ele>615.4</ele>
  <time>2026-09-01T19:59:36Z</time>
  <course>2.76</course>
  <speed>0.01414213562373095</speed>
  <fix>3d</fix>
</trkpt>
<trkpt lat="-35.2824379" lon="149.0050245">
  <ele>615.58</ele>
  <time>2026-09-01T19:59:36Z</time>
  <course>2.78</course>
  <speed>0.01414213562373095</speed>
  <fix>3d</fix>
</trkpt>
<trkpt lat="-35.2824378" lon="149.0050243">
  <ele>614.79</ele>
  <time>2026-09-01T19:59:36Z</time>
  <course>328.73</course>
  <speed>0.03</speed>
  <fix>3d</fix>
</trkpt>
<trkpt lat="-35.2824379" lon="149.0050245">
  <ele>615.64</ele>
  <time>2026-09-01T19:59:36Z</time>
  <course>2.78</course>
  <speed>0.01414213562373095</speed>
  <fix>3d</fix>
</trkpt>
<trkpt lat="-35.2824379" lon="149.0050245">
  <ele>615.83</ele>
  <time>2026-09-01T19:59:36Z</time>
  <course>2.81</course>
  <speed>0.01414213562373095</speed>
  <fix>3d</fix>
</trkpt>
<trkpt lat="-35.2824377" lon="149.0050242">
  <ele>615.29</ele>
  <time>2026-09-01T19:59:36Z</time>
  <course>334.47</course>
  <speed>0.03</speed>
  <fix>3d</fix>
</trkpt>
<trkpt lat="-35.2824379" lon="149.0050245">
  <ele>615.89</ele>
  <time>2026-09-01T19:59:36Z</time>
  <course>2.81</course>
  <speed>0.01414213562373095</speed>
  <fix>3d</fix>
</trkpt>
<trkpt lat="-35.2824379" lon="149.0050245">
  <ele>616.08</ele>
  <time>2026-09-01T19:59:36Z</time>
  <course>2.83</course>
  <speed>0.01414213562373095</speed>
  <fix>3d</fix>
</trkpt>
<trkpt lat="-35.2824377" lon="149.0050242">
  <ele>615.29</ele>
  <time>2026-09-01T19:59:36Z</time>
  <course>334.47</course>
  <speed>0.03</speed>
  <fix>3d</fix>
</trkpt>
<trkpt lat="-35.2824379" lon="149.0050245">
  <ele>616.14</ele>
  <time>2026-09-01T19:59:36Z</time>
  <course>2.84</course>
  <speed>0.01414213562373095</speed>
  <fix>3d</fix>
</trkpt>
<trkpt lat="-35.2824378" lon="149.0050245">
  <ele>616.33</ele>
  <time>2026-09-01T19:59:36Z</time>
  <course>2.86</course>
  <speed>0.01414213562373095</speed>
  <fix>3d</fix>
</trkpt>
<trkpt lat="-35.2824377" lon="149.0050241">
  <ele>615.8</ele>
  <time>2026-09-01T19:59:36Z</time>
  <course>338.89</course>
  <speed>0.03</speed>
  <fix>3d</fix>
</trkpt>
<trkpt lat="-35.2824378" lon="149.0050245">
  <ele>616.4</ele>
  <time>2026-09-01T19:59:36Z</time>
  <course>2.86</course>
  <speed>0.01</speed>
  <fix>3d</fix>
</trkpt>
<trkpt lat="-35.2824378" lon="149.0050244">
  <ele>616.58</ele>
  <time>2026-09-01T19:59:36Z</time>
  <course>2.88</course>
  <speed>0.01</speed>
  <fix>3d</fix>
</trkpt>
<trkpt lat="-35.2824377" lon="149.0050241">
  <ele>615.8</ele>
  <time>2026-09-01T19:59:36Z</time>
  <course>338.89</course>
  <speed>0.03</speed>
  <fix>3d</fix>
</trkpt>
<trkpt lat="-35.2824378" lon="149.0050244">
  <ele>616.65</ele>
  <time>2026-09-01T19:59:36Z</time>
  <course>2.89</course>
  <speed>0.01</speed>
  <fix>3d</fix>
</trkpt>
<trkpt lat="-35.2824378" lon="149.0050244">
  <ele>616.84</ele>
  <time>2026-09-01T19:59:36Z</time>
  <course>2.9</course>
  <speed>0.01</speed>
  <fix>3d</fix>
</trkpt>
<trkpt lat="-35.2824376" lon="149.0050241">
  <ele>616.3</ele>
  <time>2026-09-01T19:59:36Z</time>
  <course>341.38</course>
  <speed>0.03</speed>
  <fix>3d</fix>
</trkpt>
<trkpt lat="-35.2824378" lon="149.0050244">
  <ele>616.84</ele>
  <time>2026-09-01T19:59:36Z</time>
  <course>2.91</course>
  <speed>0.01</speed>
  <fix>3d</fix>
</trkpt>
<trkpt lat="-35.2824378" lon="149.0050244">
  <ele>617.09</ele>
  <time>2026-09-01T19:59:36Z</time>
  <course>2.92</course>
  <speed>0.01</speed>
  <fix>3d</fix>
</trkpt>
<trkpt lat="-35.2824376" lon="149.0050241">
  <ele>616.3</ele>
  <time>2026-09-01T19:59:36Z</time>
  <course>341.38</course>
  <speed>0.03</speed>
  <fix>3d</fix>
</trkpt>
<trkpt lat="-35.2824378" lon="149.0050244">
  <ele>617.1</ele>
  <time>2026-09-01T19:59:36Z</time>
  <course>2.92</course>
  <speed>0.01</speed>
  <fix>3d</fix>
</trkpt>
<trkpt lat="-35.2824377" lon="149.0050244">
  <ele>617.34</ele>
  <time>2026-09-01T19:59:36Z</time>
  <course>2.93</course>
  <speed>0.01</speed>
  <fix>3d</fix>
</trkpt>
<trkpt lat="-35.2824376" lon="149.0050241">
  <ele>616.81</ele>
  <time>2026-09-01T19:59:36Z</time>
  <course>344.54</course>
  <speed>0.02</speed>
  <fix>3d</fix>
</trkpt>
<trkpt lat="-35.2824377" lon="149.0050244">
  <ele>617.41</ele>
  <time>2026-09-01T19:59:36Z</time>
  <course>2.93</course>
  <speed>0.01</speed>
  <fix>3d</fix>
</trkpt>
<trkpt lat="-35.2824377" lon="149.0050244">
  <ele>617.59</ele>
  <time>2026-09-01T19:59:36Z</time>
  <course>2.94</course>
  <speed>0.01</speed>
  <fix>3d</fix>
</trkpt>
<trkpt lat="-35.2824376" lon="149.0050241">
  <ele>616.81</ele>
  <time>2026-09-01T19:59:36Z</time>
  <course>344.54</course>
  <speed>0.02</speed>
  <fix>3d</fix>
</trkpt>
<trkpt lat="-35.2824377" lon="149.0050244">
  <ele>617.66</ele>
  <time>2026-09-01T19:59:36Z</time>
  <course>2.94</course>
  <speed>0.01</speed>
  <fix>3d</fix>
</trkpt>
<trkpt lat="-35.2824377" lon="149.0050243">
  <ele>617.85</ele>
  <time>2026-09-01T19:59:36Z</time>
  <course>2.95</course>
  <speed>0.01</speed>
  <fix>3d</fix>
</trkpt>
<trkpt lat="-35.2824376" lon="149.0050241">
  <ele>617.31</ele>
  <time>2026-09-01T19:59:36Z</time>
  <course>349.14</course>
  <speed>0.02</speed>
  <fix>3d</fix>
</trkpt>
<trkpt lat="-35.2824377" lon="149.0050243">
  <ele>617.91</ele>
  <time>2026-09-01T19:59:36Z</time>
  <course>2.95</course>
  <speed>0.01</speed>
  <fix>3d</fix>
</trkpt>
<trkpt lat="-35.2824377" lon="149.0050243">
  <ele>618.1</ele>
  <time>2026-09-01T19:59:36Z</time>
  <course>2.96</course>
  <speed>0.01</speed>
  <fix>3d</fix>
</trkpt>
<trkpt lat="-35.2824376" lon="149.0050241">
  <ele>617.31</ele>
  <time>2026-09-01T19:59:36Z</time>
  <course>349.14</course>
  <speed>0.02</speed>
  <fix>3d</fix>
</trkpt>
<trkpt lat="-35.2824377" lon="149.0050243">
  <ele>618.16</ele>
  <time>2026-09-01T19:59:36Z</time>
  <course>2.97</course>
  <speed>0.01</speed>
  <fix>3d</fix>
</trkpt>
<trkpt lat="-35.2824376" lon="149.0050243">
  <ele>618.35</ele>
  <time>2026-09-01T19:59:36Z</time>
  <course>2.98</course>
  <speed>0.01</speed>
  <fix>3d</fix>
</trkpt>
<trkpt lat="-35.2824375" lon="149.0050241">
  <ele>617.82</ele>
  <time>2026-09-01T19:59:36Z</time>
  <course>353.94</course>
  <speed>0.02</speed>
  <fix>3d</fix>
</trkpt>
<trkpt lat="-35.2824376" lon="149.0050243">
  <ele>618.42</ele>
  <time>2026-09-01T19:59:36Z</time>
  <course>2.99</course>
  <speed>0.01</speed>
  <fix>3d</fix>
</trkpt>
<trkpt lat="-35.2824376" lon="149.0050243">
  <ele>618.6</ele>
  <time>2026-09-01T19:59:36Z</time>
  <course>2.99</course>
  <speed>0.01</speed>
  <fix>3d</fix>
</trkpt>
<trkpt lat="-35.2824375" lon="149.0050241">
  <ele>617.82</ele>
  <time>2026-09-01T19:59:36Z</time>
  <course>353.94</course>
  <speed>0.02</speed>
  <fix>3d</fix>
</trkpt>
<trkpt lat="-35.2824376" lon="149.0050243">
  <ele>618.67</ele>
  <time>2026-09-01T19:59:36Z</time>
  <course>3.0</course>
  <speed>0.01</speed>
  <fix>3d</fix>
</trkpt>
<trkpt lat="-35.2824376" lon="149.0050243">
  <ele>618.85</ele>
  <time>2026-09-01T19:59:36Z</time>
  <course>3.0</course>
  <speed>0.01</speed>
  <fix>3d</fix>
</trkpt>
<trkpt lat="-35.2824375" lon="149.0050241">
  <ele>618.32</ele>
  <time>2026-09-01T19:59:36Z</time>
  <course>359.94</course>
  <speed>0.01</speed>
  <fix>3d</fix>
</trkpt>
<trkpt lat="-35.2824376" lon="149.0050243">
  <ele>618.92</ele>
  <time>2026-09-01T19:59:36Z</time>
  <course>3.01</course>
  <speed>0.01</speed>
  <fix>3d</fix>
</trkpt>
<trkpt lat="-35.2824376" lon="149.0050243">
  <ele>619.1</ele>
  <time>2026-09-01T19:59:36Z</time>
  <course>3.01</course>
  <speed>0.01</speed>
  <fix>3d</fix>
</trkpt>
<trkpt lat="-35.2824375" lon="149.0050241">
  <ele>618.32</ele>
  <time>2026-09-01T19:59:36Z</time>
  <course>359.94</course>
  <speed>0.01</speed>
  <fix>3d</fix>
</trkpt>
<trkpt lat="-35.2824376" lon="149.0050243">
  <ele>619.17</ele>
  <time>2026-09-01T19:59:36Z</time>
  <course>3.01</course>
  <speed>0.01</speed>
  <fix>3d</fix>
</trkpt>
<trkpt lat="-35.2824376" lon="149.0050243">
  <ele>619.35</ele>
  <time>2026-09-01T19:59:36Z</time>
  <course>3.02</course>
  <speed>0.01</speed>
  <fix>3d</fix>
</trkpt>
<trkpt lat="-35.2824375" lon="149.0050241">
  <ele>618.82</ele>
  <time>2026-09-01T19:59:36Z</time>
  <course>8.81</course>
  <speed>0.01</speed>
  <fix>3d</fix>
</trkpt>
<trkpt lat="-35.2824376" lon="149.0050243">
  <ele>619.42</ele>
  <time>2026-09-01T19:59:36Z</time>
  <course>3.03</course>
  <speed>0.01</speed>
  <fix>3d</fix>
</trkpt>
<trkpt lat="-35.2824376" lon="149.0050243">
  <ele>619.6</ele>
  <time>2026-09-01T19:59:36Z</time>
  <course>3.04</course>
  <speed>0.01</speed>
  <fix>3d</fix>
</trkpt>
<trkpt lat="-35.2824375" lon="149.0050241">
  <ele>618.82</ele>
  <time>2026-09-01T19:59:36Z</time>
  <course>8.81</course>
  <speed>0.01</speed>
  <fix>3d</fix>
</trkpt>
<trkpt lat="-35.2824376" lon="149.0050243">
  <ele>619.61</ele>
  <time>2026-09-01T19:59:36Z</time>
  <course>3.04</course>
  <speed>0.01</speed>
  <fix>3d</fix>
</trkpt>
<trkpt lat="-35.2824376" lon="149.0050243">
  <ele>619.85</ele>
  <time>2026-09-01T19:59:36Z</time>
  <course>3.06</course>
  <speed>0.0</speed>
  <fix>3d</fix>
</trkpt>
<trkpt lat="-35.2824374" lon="149.0050241">
  <ele>619.32</ele>
  <time>2026-09-01T19:59:36Z</time>
  <course>18.46</course>
  <speed>0.01</speed>
  <fix>3d</fix>
</trkpt>
<trkpt lat="-35.2824376" lon="149.0050243">
  <ele>619.86</ele>
  <time>2026-09-01T19:59:36Z</time>
  <course>3.06</course>
  <speed>0.0</speed>
  <fix>3d</fix>
</trkpt>
<trkpt lat="-35.2824376" lon="149.0050243">
  <ele>620.1</ele>
  <time>2026-09-01T19:59:36Z</time>
  <course>3.08</course>
  <speed>0.0</speed>
  <fix>3d</fix>
</trkpt>
<trkpt lat="-35.2824374" lon="149.0050241">
  <ele>619.32</ele>
  <time>2026-09-01T19:59:36Z</time>
  <course>18.46</course>
  <speed>0.01</speed>
  <fix>3d</fix>
</trkpt>
<trkpt lat="-35.2824376" lon="149.0050243">
  <ele>620.17</ele>
  <time>2026-09-01T19:59:36Z</time>
  <course>3.08</course>
  <speed>0.0</speed>
  <fix>3d</fix>
</trkpt>
<trkpt lat="-35.2824376" lon="149.0050243">
  <ele>620.35</ele>
  <time>2026-09-01T19:59:36Z</time>
  <course>3.09</course>
  <speed>0.0</speed>
  <fix>3d</fix>
</trkpt>
<trkpt lat="-35.2824374" lon="149.0050241">
  <ele>619.82</ele>
  <time>2026-09-01T19:59:36Z</time>
  <course>25.75</course>
  <speed>0.01</speed>
  <fix>3d</fix>
</trkpt>
<trkpt lat="-35.2824375" lon="149.0050243">
  <ele>620.43</ele>
  <time>2026-09-01T19:59:36Z</time>
  <course>3.1</course>
  <speed>0.0</speed>
  <fix>3d</fix>
</trkpt>
<trkpt lat="-35.2824375" lon="149.0050243">
  <ele>620.61</ele>
  <time>2026-09-01T19:59:36Z</time>
  <course>3.11</course>
  <speed>0.0</speed>
  <fix>3d</fix>
</trkpt>
<trkpt lat="-35.2824374" lon="149.0050241">
  <ele>619.82</ele>
  <time>2026-09-01T19:59:36Z</time>
  <course>25.75</course>
  <speed>0.01</speed>
  <fix>3d</fix>
</trkpt>
<trkpt lat="-35.2824375" lon="149.0050243">
  <ele>620.62</ele>
  <time>2026-09-01T19:59:36Z</time>
  <course>3.11</course>
  <speed>0.0</speed>
  <fix>3d</fix>
</trkpt>
<trkpt lat="-35.2824375" lon="149.0050243">
  <ele>620.86</ele>
  <time>2026-09-01T19:59:36Z</time>
  <course>3.12</course>
  <speed>0.0</speed>
  <fix>3d</fix>
</trkpt>
<trkpt lat="-35.2824374" lon="149.0050241">
  <ele>620.32</ele>
  <time>2026-09-01T19:59:36Z</time>
  <course>30.67</course>
  <speed>0.01</speed>
  <fix>3d</fix>
</trkpt>
<trkpt lat="-35.2824375" lon="149.0050243">
  <ele>620.87</ele>
  <time>2026-09-01T19:59:36Z</time>
  <course>3.12</course>
  <speed>0.0</speed>
  <fix>3d</fix>
</trkpt>
<trkpt lat="-35.2824375" lon="149.0050243">
  <ele>621.11</ele>
  <time>2026-09-01T19:59:36Z</time>
  <course>3.12</course>
  <speed>0.0</speed>
  <fix>3d</fix>
</trkpt>
<trkpt lat="-35.2824374" lon="149.0050241">
  <ele>620.32</ele>
  <time>2026-09-01T19:59:36Z</time>
  <course>30.67</course>
  <speed>0.01</speed>
  <fix>3d</fix>
</trkpt>
<trkpt lat="-35.2824375" lon="149.0050243">
  <ele>621.18</ele>
  <time>2026-09-01T19:59:36Z</time>
  <course>3.12</course>
  <speed>0.0</speed>
  <fix>3d</fix>
</trkpt>
<trkpt lat="-35.2824375" lon="149.0050243">
  <ele>621.36</ele>
  <time>2026-09-01T19:59:36Z</time>
  <course>3.12</course>
  <speed>0.0</speed>
  <fix>3d</fix>
</trkpt>
<trkpt lat="-35.2824374" lon="149.0050241">
  <ele>620.82</ele>
  <time>2026-09-01T19:59:36Z</time>
  <course>39.64</course>
  <speed>0.0</speed>
  <fix>3d</fix>
</trkpt>
<trkpt lat="-35.2824375" lon="149.0050243">
  <ele>621.44</ele>
  <time>2026-09-01T19:59:36Z</time>
  <course>3.12</course>
  <speed>0.0</speed>
  <fix>3d</fix>
</trkpt>
<trkpt lat="-35.2824375" lon="149.0050243">
  <ele>621.61</ele>
  <time>2026-09-01T19:59:36Z</time>
  <course>3.12</course>
  <speed>0.0</speed>
  <fix>3d</fix>
</trkpt>
<trkpt lat="-35.2824374" lon="149.0050241">
  <ele>620.82</ele>
  <time>2026-09-01T19:59:36Z</time>
  <course>39.64</course>
  <speed>0.0</speed>
  <fix>3d</fix>
</trkpt>
<trkpt lat="-35.2824375" lon="149.0050243">
  <ele>621.68</ele>
  <time>2026-09-01T19:59:36Z</time>
  <course>3.12</course>
  <speed>0.0</speed>
  <fix>3d</fix>
</trkpt>
<trkpt lat="-35.2824375" lon="149.0050243">
  <ele>621.87</ele>
  <time>2026-09-01T19:59:36Z</time>
  <course>3.12</course>
  <speed>0.0</speed>
  <fix>3d</fix>
</trkpt>
<trkpt lat="-35.2824374" lon="149.0050241">
  <ele>621.32</ele>
  <time>2026-09-01T19:59:36Z</time>
  <course>55.94</course>
  <speed>0.0</speed>
  <fix>3d</fix>
</trkpt>
<trkpt lat="-35.2824375" lon="149.0050243">
  <ele>621.87</ele>
  <time>2026-09-01T19:59:36Z</time>
  <course>3.12</course>
  <speed>0.0</speed>
  <fix>3d</fix>
</trkpt>
<trkpt lat="-35.2824375" lon="149.0050243">
  <ele>622.11</ele>
  <time>2026-09-01T19:59:36Z</time>
  <course>3.12</course>
  <speed>0.01414213562373095</speed>
  <fix>3d</fix>
</trkpt>
<trkpt lat="-35.2824374" lon="149.0050241">
  <ele>621.32</ele>
  <time>2026-09-01T19:59:36Z</time>
  <course>55.94</course>
  <speed>0.0</speed>
  <fix>3d</fix>
</trkpt>
<trkpt lat="-35.2824375" lon="149.0050243">
  <ele>622.12</ele>
  <time>2026-09-01T19:59:36Z</time>
  <course>3.12</course>
  <speed>0.01414213562373095</speed>
  <fix>3d</fix>
</trkpt>
<trkpt lat="-35.2824375" lon="149.0050243">
  <ele>622.36</ele>
  <time>2026-09-01T19:59:36Z</time>
  <course>3.13</course>
  <speed>0.01414213562373095</speed>
  <fix>3d</fix>
</trkpt>
<trkpt lat="-35.2824374" lon="149.0050241">
  <ele>621.82</ele>
  <time>2026-09-01T19:59:36Z</time>
  <course>74.27</course>
  <speed>0.01</speed>
  <fix>3d</fix>
</trkpt>
<trkpt lat="-35.2824375" lon="149.0050243">
  <ele>622.37</ele>
  <time>2026-09-01T19:59:36Z</time>
  <course>3.13</course>
  <speed>0.01414213562373095</speed>
  <fix>3d</fix>
</trkpt>
<trkpt lat="-35.2824375" lon="149.0050243">
  <ele>622.61</ele>
  <time>2026-09-01T19:59:36Z</time>
  <course>3.14</course>
  <speed>0.01414213562373095</speed>
  <fix>3d</fix>
</trkpt>
<trkpt lat="-35.2824374" lon="149.0050241">
  <ele>621.82</ele>
  <time>2026-09-01T19:59:36Z</time>
  <course>74.27</course>
  <speed>0.01</speed>
  <fix>3d</fix>
</trkpt>
<trkpt lat="-35.2824375" lon="149.0050243">
  <ele>622.67</ele>
  <time>2026-09-01T19:59:36Z</time>
  <course>3.14</course>
  <speed>0.01414213562373095</speed>
  <fix>3d</fix>
</trkpt>
<trkpt lat="-35.2824375" lon="149.0050243">
  <ele>622.86</ele>
  <time>2026-09-01T19:59:36Z</time>
  <course>3.15</course>
  <speed>0.01414213562373095</speed>
  <fix>3d</fix>
</trkpt>
<trkpt lat="-35.2824374" lon="149.0050241">
  <ele>622.31</ele>
  <time>2026-09-01T19:59:36Z</time>
  <course>88.42</course>
  <speed>0.01</speed>
  <fix>3d</fix>
</trkpt>
<trkpt lat="-35.2824375" lon="149.0050243">
  <ele>622.93</ele>
  <time>2026-09-01T19:59:36Z</time>
  <course>3.16</course>
  <speed>0.01414213562373095</speed>
  <fix>3d</fix>
</trkpt>
<trkpt lat="-35.2824375" lon="149.0050243">
  <ele>623.11</ele>
  <time>2026-09-01T19:59:36Z</time>
  <course>3.17</course>
  <speed>0.01</speed>
  <fix>3d</fix>
</trkpt>
<trkpt lat="-35.2824374" lon="149.0050241">
  <ele>622.31</ele>
  <time>2026-09-01T19:59:36Z</time>
  <course>88.42</course>
  <speed>0.01</speed>
  <fix>3d</fix>
</trkpt>
<trkpt lat="-35.2824375" lon="149.0050243">
  <ele>623.17</ele>
  <time>2026-09-01T19:59:36Z</time>
  <course>3.17</course>
  <speed>0.01</speed>
  <fix>3d</fix>
</trkpt>
<trkpt lat="-35.2824375" lon="149.0050243">
  <ele>623.36</ele>
  <time>2026-09-01T19:59:36Z</time>
  <course>3.18</course>
  <speed>0.01</speed>
  <fix>3d</fix>
</trkpt>
<trkpt lat="-35.2824374" lon="149.0050241">
  <ele>622.81</ele>
  <time>2026-09-01T19:59:36Z</time>
  <course>98.15</course>
  <speed>0.01</speed>
  <fix>3d</fix>
</trkpt>
<trkpt lat="-35.2824375" lon="149.0050243">
  <ele>623.43</ele>
  <time>2026-09-01T19:59:36Z</time>
  <course>3.18</course>
  <speed>0.01</speed>
  <fix>3d</fix>
</trkpt>
<trkpt lat="-35.2824375" lon="149.0050243">
  <ele>623.61</ele>
  <time>2026-09-01T19:59:36Z</time>
  <course>3.19</course>
  <speed>0.01</speed>
  <fix>3d</fix>
</trkpt>
<trkpt lat="-35.2824374" lon="149.0050241">
  <ele>622.81</ele>
  <time>2026-09-01T19:59:36Z</time>
  <course>98.15</course>
  <speed>0.01</speed>
  <fix>3d</fix>
</trkpt>
<trkpt lat="-35.2824375" lon="149.0050243">
  <ele>623.67</ele>
  <time>2026-09-01T19:59:36Z</time>
  <course>3.2</course>
  <speed>0.01</speed>
  <fix>3d</fix>
</trkpt>
<trkpt lat="-35.2824375" lon="149.0050243">
  <ele>623.86</ele>
  <time>2026-09-01T19:59:36Z</time>
  <course>3.21</course>
  <speed>0.01</speed>
  <fix>3d</fix>
</trkpt>
<trkpt lat="-35.2824374" lon="149.0050241">
  <ele>623.31</ele>
  <time>2026-09-01T19:59:36Z</time>
  <course>106.72</course>
  <speed>0.01</speed>
  <fix>3d</fix>
</trkpt>
<trkpt lat="-35.2824375" lon="149.0050243">
  <ele>623.93</ele>
  <time>2026-09-01T19:59:36Z</time>
  <course>3.21</course>
  <speed>0.01</speed>
  <fix>3d</fix>
</trkpt>
<trkpt lat="-35.2824375" lon="149.0050243">
  <ele>624.1</ele>
  <time>2026-09-01T19:59:36Z</time>
  <course>3.22</course>
  <speed>0.01</speed>
  <fix>3d</fix>
</trkpt>
<trkpt lat="-35.2824374" lon="149.0050241">
  <ele>623.31</ele>
  <time>2026-09-01T19:59:36Z</time>
  <course>106.72</course>
  <speed>0.01</speed>
  <fix>3d</fix>
</trkpt>
<trkpt lat="-35.2824375" lon="149.0050243">
  <ele>624.17</ele>
  <time>2026-09-01T19:59:36Z</time>
  <course>3.22</course>
  <speed>0.01</speed>
  <fix>3d</fix>
</trkpt>
<trkpt lat="-35.2824375" lon="149.0050243">
  <ele>624.35</ele>
  <time>2026-09-01T19:59:36Z</time>
  <course>3.22</course>
  <speed>0.01</speed>
  <fix>3d</fix>
</trkpt>
<trkpt lat="-35.2824374" lon="149.0050242">
  <ele>623.81</ele>
  <time>2026-09-01T19:59:36Z</time>
  <course>113.25</course>
  <speed>0.01</speed>
  <fix>3d</fix>
</trkpt>
<trkpt lat="-35.2824375" lon="149.0050243">
  <ele>624.42</ele>
  <time>2026-09-01T19:59:36Z</time>
  <course>3.21</course>
  <speed>0.01</speed>
  <fix>3d</fix>
</trkpt>
<trkpt lat="-35.2824375" lon="149.0050243">
  <ele>624.6</ele>
  <time>2026-09-01T19:59:36Z</time>
  <course>3.2</course>
  <speed>0.01</speed>
  <fix>3d</fix>
</trkpt>
<trkpt lat="-35.2824374" lon="149.0050242">
  <ele>623.81</ele>
  <time>2026-09-01T19:59:36Z</time>
  <course>113.25</course>
  <speed>0.01</speed>
  <fix>3d</fix>
</trkpt>
<trkpt lat="-35.2824375" lon="149.0050243">
  <ele>624.67</ele>
  <time>2026-09-01T19:59:36Z</time>
  <course>3.2</course>
  <speed>0.01</speed>
  <fix>3d</fix>
</trkpt>
<trkpt lat="-35.2824375" lon="149.0050243">
  <ele>624.85</ele>
  <time>2026-09-01T19:59:36Z</time>
  <course>3.18</course>
  <speed>0.01</speed>
  <fix>3d</fix>
</trkpt>
<trkpt lat="-35.2824374" lon="149.0050243">
  <ele>624.31</ele>
  <time>2026-09-01T19:59:36Z</time>
  <course>115.36</course>
  <speed>0.01</speed>
  <fix>3d</fix>
</trkpt>
<trkpt lat="-35.2824375" lon="149.0050243">
  <ele>624.86</ele>
  <time>2026-09-01T19:59:36Z</time>
  <course>3.18</course>
  <speed>0.01</speed>
  <fix>3d</fix>
</trkpt>
<trkpt lat="-35.2824375" lon="149.0050243">
  <ele>625.11</ele>
  <time>2026-09-01T19:59:36Z</time>
  <course>3.16</course>
  <speed>0.01</speed>
  <fix>3d</fix>
</trkpt>
<trkpt lat="-35.2824374" lon="149.0050243">
  <ele>624.31</ele>
  <time>2026-09-01T19:59:36Z</time>
  <course>115.36</course>
  <speed>0.01</speed>
  <fix>3d</fix>
</trkpt>
<trkpt lat="-35.2824375" lon="149.0050243">
  <ele>625.11</ele>
  <time>2026-09-01T19:59:36Z</time>
  <course>3.16</course>
  <speed>0.01</speed>
  <fix>3d</fix>
</trkpt>
<trkpt lat="-35.2824375" lon="149.0050243">
  <ele>625.36</ele>
  <time>2026-09-01T19:59:36Z</time>
  <course>3.15</course>
  <speed>0.01414213562373095</speed>
  <fix>3d</fix>
</trkpt>
<trkpt lat="-35.2824374" lon="149.0050243">
  <ele>624.81</ele>
  <time>2026-09-01T19:59:36Z</time>
  <course>112.73</course>
  <speed>0.01</speed>
  <fix>3d</fix>
</trkpt>
<trkpt lat="-35.2824375" lon="149.0050243">
  <ele>625.43</ele>
  <time>2026-09-01T19:59:36Z</time>
  <course>3.15</course>
  <speed>0.01414213562373095</speed>
  <fix>3d</fix>
</trkpt>
<trkpt lat="-35.2824375" lon="149.0050243">
  <ele>625.61</ele>
  <time>2026-09-01T19:59:36Z</time>
  <course>3.16</course>
  <speed>0.01414213562373095</speed>
  <fix>3d</fix>
</trkpt>
<trkpt lat="-35.2824374" lon="149.0050243">
  <ele>624.81</ele>
  <time>2026-09-01T19:59:36Z</time>
  <course>112.73</course>
  <speed>0.01</speed>
  <fix>3d</fix>
</trkpt>
<trkpt lat="-35.2824375" lon="149.0050243">
  <ele>625.61</ele>
  <time>2026-09-01T19:59:36Z</time>
  <course>3.16</course>
  <speed>0.01414213562373095</speed>
  <fix>3d</fix>
</trkpt>
<trkpt lat="-35.2824375" lon="149.0050243">
  <ele>625.86</ele>
  <time>2026-09-01T19:59:36Z</time>
  <course>3.17</course>
  <speed>0.01414213562373095</speed>
  <fix>3d</fix>
</trkpt>
<trkpt lat="-35.2824374" lon="149.0050243">
  <ele>625.3</ele>
  <time>2026-09-01T19:59:36Z</time>
  <course>108.94</course>
  <speed>0.01</speed>
  <fix>3d</fix>
</trkpt>
<trkpt lat="-35.2824375" lon="149.0050243">
  <ele>625.93</ele>
  <time>2026-09-01T19:59:36Z</time>
  <course>3.18</course>
  <speed>0.01414213562373095</speed>
  <fix>3d</fix>
</trkpt>
<trkpt lat="-35.2824375" lon="149.0050243">
  <ele>626.11</ele>
  <time>2026-09-01T19:59:36Z</time>
  <course>3.2</course>
  <speed>0.01414213562373095</speed>
  <fix>3d</fix>
</trkpt>
<trkpt lat="-35.2824374" lon="149.0050243">
  <ele>625.3</ele>
  <time>2026-09-01T19:59:36Z</time>
  <course>108.94</course>
  <speed>0.01</speed>
  <fix>3d</fix>
</trkpt>
<trkpt lat="-35.2824375" lon="149.0050243">
  <ele>626.18</ele>
  <time>2026-09-01T19:59:36Z</time>
  <course>3.2</course>
  <speed>0.01414213562373095</speed>
  <fix>3d</fix>
</trkpt>
<trkpt lat="-35.2824375" lon="149.0050243">
  <ele>626.36</ele>
  <time>2026-09-01T19:59:36Z</time>
  <course>3.21</course>
  <speed>0.01414213562373095</speed>
  <fix>3d</fix>
</trkpt>
<trkpt lat="-35.2824374" lon="149.0050244">
  <ele>625.8</ele>
  <time>2026-09-01T19:59:36Z</time>
  <course>106.57</course>
  <speed>0.01</speed>
  <fix>3d</fix>
</trkpt>
<trkpt lat="-35.2824375" lon="149.0050243">
  <ele>626.43</ele>
  <time>2026-09-01T19:59:36Z</time>
  <course>3.22</course>
  <speed>0.01414213562373095</speed>
  <fix>3d</fix>
</trkpt>
<trkpt lat="-35.2824375" lon="149.0050243">
  <ele>626.61</ele>
  <time>2026-09-01T19:59:36Z</time>
  <course>3.22</course>
  <speed>0.01414213562373095</speed>
  <fix>3d</fix>
</trkpt>
<trkpt lat="-35.2824374" lon="149.0050244">
  <ele>625.8</ele>
  <time>2026-09-01T19:59:36Z</time>
  <course>106.57</course>
  <speed>0.01</speed>
  <fix>3d</fix>
</trkpt>
<trkpt lat="-35.2824375" lon="149.0050243">
  <ele>626.67</ele>
  <time>2026-09-01T19:59:36Z</time>
  <course>3.22</course>
  <speed>0.01414213562373095</speed>
  <fix>3d</fix>
</trkpt>
<trkpt lat="-35.2824375" lon="149.0050243">
  <ele>626.86</ele>
  <time>2026-09-01T19:59:36Z</time>
  <course>3.22</course>
  <speed>0.01414213562373095</speed>
  <fix>3d</fix>
</trkpt>
<trkpt lat="-35.2824374" lon="149.0050244">
  <ele>626.3</ele>
  <time>2026-09-01T19:59:36Z</time>
  <course>106.57</course>
  <speed>0.01</speed>
  <fix>3d</fix>
</trkpt>
<trkpt lat="-35.2824375" lon="149.0050243">
  <ele>626.93</ele>
  <time>2026-09-01T19:59:36Z</time>
  <course>3.23</course>
  <speed>0.01414213562373095</speed>
  <fix>3d</fix>
</trkpt>
<trkpt lat="-35.2824375" lon="149.0050243">
  <ele>627.11</ele>
  <time>2026-09-01T19:59:36Z</time>
  <course>3.23</course>
  <speed>0.01414213562373095</speed>
  <fix>3d</fix>
</trkpt>
<trkpt lat="-35.2824374" lon="149.0050244">
  <ele>626.3</ele>
  <time>2026-09-01T19:59:36Z</time>
  <course>106.57</course>
  <speed>0.01</speed>
  <fix>3d</fix>
</trkpt>
<trkpt lat="-35.2824375" lon="149.0050244">
  <ele>627.18</ele>
  <time>2026-09-01T19:59:36Z</time>
  <course>3.23</course>
  <speed>0.01414213562373095</speed>
  <fix>3d</fix>
</trkpt>
<trkpt lat="-35.2824375" lon="149.0050244">
  <ele>627.36</ele>
  <time>2026-09-01T19:59:36Z</time>
  <course>3.24</course>
  <speed>0.01414213562373095</speed>
  <fix>3d</fix>
</trkpt>
<trkpt lat="-35.2824374" lon="149.0050244">
  <ele>626.8</ele>
  <time>2026-09-01T19:59:36Z</time>
  <course>107.13</course>
  <speed>0.01</speed>
  <fix>3d</fix>
</trkpt>
<trkpt lat="-35.2824375" lon="149.0050244">
  <ele>627.37</ele>
  <time>2026-09-01T19:59:36Z</time>
  <course>3.24</course>
  <speed>0.01414213562373095</speed>
  <fix>3d</fix>
</trkpt>
<trkpt lat="-35.2824375" lon="149.0050244">
  <ele>627.61</ele>
  <time>2026-09-01T19:59:36Z</time>
  <course>3.25</course>
  <speed>0.01414213562373095</speed>
  <fix>3d</fix>
</trkpt>
<trkpt lat="-35.2824374" lon="149.0050244">
  <ele>626.8</ele>
  <time>2026-09-01T19:59:36Z</time>
  <course>107.13</course>
  <speed>0.01</speed>
  <fix>3d</fix>
</trkpt>
<trkpt lat="-35.2824375" lon="149.0050244">
  <ele>627.62</ele>
  <time>2026-09-01T19:59:36Z</time>
  <course>3.25</course>
  <speed>0.01414213562373095</speed>
  <fix>3d</fix>
</trkpt>
<trkpt lat="-35.2824375" lon="149.0050244">
  <ele>627.86</ele>
  <time>2026-09-01T19:59:36Z</time>
  <course>3.25</course>
  <speed>0.01414213562373095</speed>
  <fix>3d</fix>
</trkpt>
<trkpt lat="-35.2824374" lon="149.0050245">
  <ele>627.3</ele>
  <time>2026-09-01T19:59:36Z</time>
  <course>106.33</course>
  <speed>0.01</speed>
  <fix>3d</fix>
</trkpt>
<trkpt lat="-35.2824375" lon="149.0050244">
  <ele>627.94</ele>
  <time>2026-09-01T19:59:36Z</time>
  <course>3.25</course>
  <speed>0.01414213562373095</speed>
  <fix>3d</fix>
</trkpt>
<trkpt lat="-35.2824375" lon="149.0050244">
  <ele>628.11</ele>
  <time>2026-09-01T19:59:36Z</time>
  <course>3.24</course>
  <speed>0.01</speed>
  <fix>3d</fix>
</trkpt>
<trkpt lat="-35.2824374" lon="149.0050245">
  <ele>627.3</ele>
  <time>2026-09-01T19:59:36Z</time>
  <course>106.33</course>
  <speed>0.01</speed>
  <fix>3d</fix>
</trkpt>
<trkpt lat="-35.2824375" lon="149.0050244">
  <ele>628.19</ele>
  <time>2026-09-01T19:59:36Z</time>
  <course>3.24</course>
  <speed>0.01</speed>
  <fix>3d</fix>
</trkpt>
<trkpt lat="-35.2824375" lon="149.0050244">
  <ele>628.36</ele>
  <time>2026-09-01T19:59:36Z</time>
  <course>3.23</course>
  <speed>0.01</speed>
  <fix>3d</fix>
</trkpt>
<trkpt lat="-35.2824374" lon="149.0050245">
  <ele>627.8</ele>
  <time>2026-09-01T19:59:36Z</time>
  <course>106.14</course>
  <speed>0.01</speed>
  <fix>3d</fix>
</trkpt>
<trkpt lat="-35.2824375" lon="149.0050244">
  <ele>628.44</ele>
  <time>2026-09-01T19:59:36Z</time>
  <course>3.23</course>
  <speed>0.01</speed>
  <fix>3d</fix>
</trkpt>
<trkpt lat="-35.2824375" lon="149.0050245">
  <ele>628.61</ele>
  <time>2026-09-01T19:59:36Z</time>
  <course>3.22</course>
  <speed>0.01</speed>
  <fix>3d</fix>
</trkpt>
<trkpt lat="-35.2824374" lon="149.0050245">
  <ele>627.8</ele>
  <time>2026-09-01T19:59:36Z</time>
  <course>106.14</course>
  <speed>0.01</speed>
  <fix>3d</fix>
</trkpt>
<trkpt lat="-35.2824375" lon="149.0050245">
  <ele>628.68</ele>
  <time>2026-09-01T19:59:36Z</time>
  <course>3.22</course>
  <speed>0.01</speed>
  <fix>3d</fix>
</trkpt>
<trkpt lat="-35.2824375" lon="149.0050245">
  <ele>628.86</ele>
  <time>2026-09-01T19:59:36Z</time>
  <course>3.21</course>
  <speed>0.01</speed>
  <fix>3d</fix>
</trkpt>
<trkpt lat="-35.2824374" lon="149.0050245">
  <ele>628.29</ele>
  <time>2026-09-01T19:59:36Z</time>
  <course>108.73</course>
  <speed>0.01</speed>
  <fix>3d</fix>
</trkpt>
<trkpt lat="-35.2824375" lon="149.0050245">
  <ele>628.94</ele>
  <time>2026-09-01T19:59:36Z</time>
  <course>3.2</course>
  <speed>0.01</speed>
  <fix>3d</fix>
</trkpt>
<trkpt lat="-35.2824375" lon="149.0050245">
  <ele>629.11</ele>
  <time>2026-09-01T19:59:36Z</time>
  <course>3.19</course>
  <speed>0.01</speed>
  <fix>3d</fix>
</trkpt>
<trkpt lat="-35.2824374" lon="149.0050245">
  <ele>628.29</ele>
  <time>2026-09-01T19:59:36Z</time>
  <course>108.73</course>
  <speed>0.01</speed>
  <fix>3d</fix>
</trkpt>
<trkpt lat="-35.2824375" lon="149.0050245">
  <ele>629.16</ele>
  <time>2026-09-01T19:59:36Z</time>
  <course>3.19</course>
  <speed>0.01</speed>
  <fix>3d</fix>
</trkpt>
<trkpt lat="-35.2824375" lon="149.0050245">
  <ele>629.35</ele>
  <time>2026-09-01T19:59:36Z</time>
  <course>3.19</course>
  <speed>0.01</speed>
  <fix>3d</fix>
</trkpt>
<trkpt lat="-35.2824374" lon="149.0050245">
  <ele>628.79</ele>
  <time>2026-09-01T19:59:36Z</time>
  <course>113.99</course>
  <speed>0.01</speed>
  <fix>3d</fix>
</trkpt>
<trkpt lat="-35.2824375" lon="149.0050245">
  <ele>629.44</ele>
  <time>2026-09-01T19:59:36Z</time>
  <course>3.18</course>
  <speed>0.01</speed>
  <fix>3d</fix>
</trkpt>
<trkpt lat="-35.2824375" lon="149.0050245">
  <ele>629.6</ele>
  <time>2026-09-01T19:59:36Z</time>
  <course>3.18</course>
  <speed>0.01</speed>
  <fix>3d</fix>
</trkpt>
<trkpt lat="-35.2824374" lon="149.0050245">
  <ele>628.79</ele>
  <time>2026-09-01T19:59:36Z</time>
  <course>113.99</course>
  <speed>0.01</speed>
  <fix>3d</fix>
</trkpt>
<trkpt lat="-35.2824375" lon="149.0050245">
  <ele>629.67</ele>
  <time>2026-09-01T19:59:36Z</time>
  <course>3.17</course>
  <speed>0.01</speed>
  <fix>3d</fix>
</trkpt>
<trkpt lat="-35.2824375" lon="149.0050245">
  <ele>629.85</ele>
  <time>2026-09-01T19:59:36Z</time>
  <course>3.16</course>
  <speed>0.01</speed>
  <fix>3d</fix>
</trkpt>
<trkpt lat="-35.2824374" lon="149.0050246">
  <ele>629.29</ele>
  <time>2026-09-01T19:59:36Z</time>
  <course>119.27</course>
  <speed>0.01</speed>
  <fix>3d</fix>
</trkpt>
<trkpt lat="-35.2824375" lon="149.0050245">
  <ele>629.92</ele>
  <time>2026-09-01T19:59:36Z</time>
  <course>3.16</course>
  <speed>0.01</speed>
  <fix>3d</fix>
</trkpt>
<trkpt lat="-35.2824375" lon="149.0050245">
  <ele>630.09</ele>
  <time>2026-09-01T19:59:36Z</time>
  <course>3.15</course>
  <speed>0.01</speed>
  <fix>3d</fix>
</trkpt>
<trkpt lat="-35.2824374" lon="149.0050246">
  <ele>629.29</ele>
  <time>2026-09-01T19:59:36Z</time>
  <course>119.27</course>
  <speed>0.01</speed>
  <fix>3d</fix>
</trkpt>
<trkpt lat="-35.2824375" lon="149.0050245">
  <ele>630.1</ele>
  <time>2026-09-01T19:59:36Z</time>
  <course>3.15</course>
  <speed>0.01</speed>
  <fix>3d</fix>
</trkpt>
<trkpt lat="-35.2824375" lon="149.0050246">
  <ele>630.34</ele>
  <time>2026-09-01T19:59:36Z</time>
  <course>3.14</course>
  <speed>0.01</speed>
  <fix>3d</fix>
</trkpt>
<trkpt lat="-35.2824374" lon="149.0050247">
  <ele>629.79</ele>
  <time>2026-09-01T19:59:36Z</time>
  <course>121.47</course>
  <speed>0.01</speed>
  <fix>3d</fix>
</trkpt>
<trkpt lat="-35.2824375" lon="149.0050246">
  <ele>630.35</ele>
  <time>2026-09-01T19:59:36Z</time>
  <course>3.14</course>
  <speed>0.01</speed>
  <fix>3d</fix>
</trkpt>
<trkpt lat="-35.2824375" lon="149.0050246">
  <ele>630.59</ele>
  <time>2026-09-01T19:59:36Z</time>
  <course>3.13</course>
  <speed>0.01</speed>
  <fix>3d</fix>
</trkpt>
<trkpt lat="-35.2824374" lon="149.0050247">
  <ele>629.79</ele>
  <time>2026-09-01T19:59:36Z</time>
  <course>121.47</course>
  <speed>0.01</speed>
  <fix>3d</fix>
</trkpt>
<trkpt lat="-35.2824375" lon="149.0050246">
  <ele>630.65</ele>
  <time>2026-09-01T19:59:36Z</time>
  <course>3.14</course>
  <speed>0.01</speed>
  <fix>3d</fix>
</trkpt>
<trkpt lat="-35.2824375" lon="149.0050246">
  <ele>630.84</ele>
  <time>2026-09-01T19:59:36Z</time>
  <course>3.14</course>
  <speed>0.01414213562373095</speed>
  <fix>3d</fix>
</trkpt>
<trkpt lat="-35.2824374" lon="149.0050247">
  <ele>630.29</ele>
  <time>2026-09-01T19:59:36Z</time>
  <course>121.77</course>
  <speed>0.01</speed>
  <fix>3d</fix>
</trkpt>
<trkpt lat="-35.2824375" lon="149.0050246">
  <ele>630.9</ele>
  <time>2026-09-01T19:59:36Z</time>
  <course>3.14</course>
  <speed>0.01414213562373095</speed>
  <fix>3d</fix>
</trkpt>
<trkpt lat="-35.2824375" lon="149.0050246">
  <ele>631.09</ele>
  <time>2026-09-01T19:59:36Z</time>
  <course>3.14</course>
  <speed>0.01414213562373095</speed>
  <fix>3d</fix>
</trkpt>
<trkpt lat="-35.2824374" lon="149.0050247">
  <ele>630.29</ele>
  <time>2026-09-01T19:59:36Z</time>
  <course>121.77</course>
  <speed>0.01</speed>
  <fix>3d</fix>
</trkpt>
<trkpt lat="-35.2824375" lon="149.0050246">
  <ele>631.16</ele>
  <time>2026-09-01T19:59:36Z</time>
  <course>3.14</course>
  <speed>0.01414213562373095</speed>
  <fix>3d</fix>
</trkpt>
<trkpt lat="-35.2824375" lon="149.0050246">
  <ele>631.34</ele>
  <time>2026-09-01T19:59:36Z</time>
  <course>3.15</course>
  <speed>0.01</speed>
  <fix>3d</fix>
</trkpt>
<trkpt lat="-35.2824374" lon="149.0050247">
  <ele>630.79</ele>
  <time>2026-09-01T19:59:36Z</time>
  <course>120.25</course>
  <speed>0.01</speed>
  <fix>3d</fix>
</trkpt>
<trkpt lat="-35.2824375" lon="149.0050246">
  <ele>631.41</ele>
  <time>2026-09-01T19:59:36Z</time>
  <course>3.15</course>
  <speed>0.01</speed>
  <fix>3d</fix>
</trkpt>
<trkpt lat="-35.2824375" lon="149.0050246">
  <ele>631.59</ele>
  <time>2026-09-01T19:59:36Z</time>
  <course>3.16</course>
  <speed>0.01</speed>
  <fix>3d</fix>
</trkpt>
<trkpt lat="-35.2824374" lon="149.0050247">
  <ele>630.79</ele>
  <time>2026-09-01T19:59:36Z</time>
  <course>120.25</course>
  <speed>0.01</speed>
  <fix>3d</fix>
</trkpt>
<trkpt lat="-35.2824375" lon="149.0050247">
  <ele>631.66</ele>
  <time>2026-09-01T19:59:36Z</time>
  <course>3.16</course>
  <speed>0.01</speed>
  <fix>3d</fix>
</trkpt>
<trkpt lat="-35.2824375" lon="149.0050247">
  <ele>631.84</ele>
  <time>2026-09-01T19:59:36Z</time>
  <course>3.16</course>
  <speed>0.01</speed>
  <fix>3d</fix>
</trkpt>
<trkpt lat="-35.2824375" lon="149.0050248">
  <ele>631.29</ele>
  <time>2026-09-01T19:59:36Z</time>
  <course>118.33</course>
  <speed>0.01</speed>
  <fix>3d</fix>
</trkpt>
<trkpt lat="-35.2824375" lon="149.0050247">
  <ele>631.91</ele>
  <time>2026-09-01T19:59:36Z</time>
  <course>3.16</course>
  <speed>0.01</speed>
  <fix>3d</fix>
</trkpt>
<trkpt lat="-35.2824375" lon="149.0050247">
  <ele>632.09</ele>
  <time>2026-09-01T19:59:36Z</time>
  <course>3.16</course>
  <speed>0.01</speed>
  <fix>3d</fix>
</trkpt>
<trkpt lat="-35.2824375" lon="149.0050248">
  <ele>631.29</ele>
  <time>2026-09-01T19:59:36Z</time>
  <course>118.33</course>
  <speed>0.01</speed>
  <fix>3d</fix>
</trkpt>
<trkpt lat="-35.2824375" lon="149.0050247">
  <ele>632.16</ele>
  <time>2026-09-01T19:59:36Z</time>
  <course>3.16</course>
  <speed>0.01</speed>
  <fix>3d</fix>
</trkpt>
<trkpt lat="-35.2824375" lon="149.0050247">
  <ele>632.35</ele>
  <time>2026-09-01T19:59:36Z</time>
  <course>3.15</course>
  <speed>0.01</speed>
  <fix>3d</fix>
</trkpt>
<trkpt lat="-35.2824375" lon="149.0050248">
  <ele>631.79</ele>
  <time>2026-09-01T19:59:36Z</time>
  <course>120.6</course>
  <speed>0.01</speed>
  <fix>3d</fix>
</trkpt>
<trkpt lat="-35.2824375" lon="149.0050247">
  <ele>632.41</ele>
  <time>2026-09-01T19:59:36Z</time>
  <course>3.15</course>
  <speed>0.01</speed>
  <fix>3d</fix>
</trkpt>
<trkpt lat="-35.2824375" lon="149.0050247">
  <ele>632.6</ele>
  <time>2026-09-01T19:59:36Z</time>
  <course>3.14</course>
  <speed>0.01</speed>
  <fix>3d</fix>
</trkpt>
<trkpt lat="-35.2824375" lon="149.0050248">
  <ele>631.79</ele>
  <time>2026-09-01T19:59:36Z</time>
  <course>120.6</course>
  <speed>0.01</speed>
  <fix>3d</fix>
</trkpt>
<trkpt lat="-35.2824375" lon="149.0050247">
  <ele>632.62</ele>
  <time>2026-09-01T19:59:36Z</time>
  <course>3.13</course>
  <speed>0.01</speed>
  <fix>3d</fix>
</trkpt>
<trkpt lat="-35.2824375" lon="149.0050247">
  <ele>632.85</ele>
  <time>2026-09-01T19:59:36Z</time>
  <course>3.12</course>
  <speed>0.01</speed>
  <fix>3d</fix>
</trkpt>
<trkpt lat="-35.2824375" lon="149.0050248">
  <ele>632.29</ele>
  <time>2026-09-01T19:59:36Z</time>
  <course>123.82</course>
  <speed>0.01</speed>
  <fix>3d</fix>
</trkpt>
<trkpt lat="-35.2824375" lon="149.0050247">
  <ele>632.87</ele>
  <time>2026-09-01T19:59:36Z</time>
  <course>3.11</course>
  <speed>0.01</speed>
  <fix>3d</fix>
</trkpt>
<trkpt lat="-35.2824375" lon="149.0050247">
  <ele>633.1</ele>
  <time>2026-09-01T19:59:36Z</time>
  <course>3.1</course>
  <speed>0.01</speed>
  <fix>3d</fix>
</trkpt>
<trkpt lat="-35.2824375" lon="149.0050248">
  <ele>632.29</ele>
  <time>2026-09-01T19:59:36Z</time>
  <course>123.82</course>
  <speed>0.01</speed>
  <fix>3d</fix>
</trkpt>
<trkpt lat="-35.2824375" lon="149.0050248">
  <ele>633.16</ele>
  <time>2026-09-01T19:59:36Z</time>
  <course>3.1</course>
  <speed>0.01</speed>
  <fix>3d</fix>
</trkpt>
<trkpt lat="-35.2824375" lon="149.0050248">
  <ele>633.35</ele>
  <time>2026-09-01T19:59:36Z</time>
  <course>3.1</course>
  <speed>0.01</speed>
  <fix>3d</fix>
</trkpt>
<trkpt lat="-35.2824375" lon="149.0050248">
  <ele>632.79</ele>
  <time>2026-09-01T19:59:36Z</time>
  <course>122.42</course>
  <speed>0.01</speed>
  <fix>3d</fix>
</trkpt>
<trkpt lat="-35.2824375" lon="149.0050248">
  <ele>633.41</ele>
  <time>2026-09-01T19:59:36Z</time>
  <course>3.1</course>
  <speed>0.01</speed>
  <fix>3d</fix>
</trkpt>
<trkpt lat="-35.2824375" lon="149.0050248">
  <ele>633.6</ele>
  <time>2026-09-01T19:59:36Z</time>
  <course>3.1</course>
  <speed>0.0</speed>
  <fix>3d</fix>
</trkpt>
<trkpt lat="-35.2824375" lon="149.0050248">
  <ele>632.79</ele>
  <time>2026-09-01T19:59:36Z</time>
  <course>122.42</course>
  <speed>0.01</speed>
  <fix>3d</fix>
</trkpt>
<trkpt lat="-35.2824375" lon="149.0050248">
  <ele>633.65</ele>
  <time>2026-09-01T19:59:36Z</time>
  <course>3.1</course>
  <speed>0.0</speed>
  <fix>3d</fix>
</trkpt>
<trkpt lat="-35.2824375" lon="149.0050248">
  <ele>633.85</ele>
  <time>2026-09-01T19:59:36Z</time>
  <course>3.1</course>
  <speed>0.0</speed>
  <fix>3d</fix>
</trkpt>
<trkpt lat="-35.2824375" lon="149.0050249">
  <ele>633.3</ele>
  <time>2026-09-01T19:59:36Z</time>
  <course>117.74</course>
  <speed>0.01</speed>
  <fix>3d</fix>
</trkpt>
<trkpt lat="-35.2824375" lon="149.0050248">
  <ele>633.9</ele>
  <time>2026-09-01T19:59:36Z</time>
  <course>3.1</course>
  <speed>0.0</speed>
  <fix>3d</fix>
</trkpt>
<trkpt lat="-35.2824375" lon="149.0050248">
  <ele>634.1</ele>
  <time>2026-09-01T19:59:36Z</time>
  <course>3.09</course>
  <speed>0.0</speed>
  <fix>3d</fix>
</trkpt>
<trkpt lat="-35.2824375" lon="149.0050249">
  <ele>633.3</ele>
  <time>2026-09-01T19:59:36Z</time>
  <course>117.74</course>
  <speed>0.01</speed>
  <fix>3d</fix>
</trkpt>
<trkpt lat="-35.2824375" lon="149.0050248">
  <ele>634.16</ele>
  <time>2026-09-01T19:59:36Z</time>
  <course>3.09</course>
  <speed>0.0</speed>
  <fix>3d</fix>
</trkpt>
<trkpt lat="-35.2824375" lon="149.0050248">
  <ele>634.35</ele>
  <time>2026-09-01T19:59:36Z</time>
  <course>3.08</course>
  <speed>0.0</speed>
  <fix>3d</fix>
</trkpt>
<trkpt lat="-35.2824375" lon="149.0050249">
  <ele>633.8</ele>
  <time>2026-09-01T19:59:36Z</time>
  <course>112.39</course>
  <speed>0.0</speed>
  <fix>3d</fix>
</trkpt>
<trkpt lat="-35.2824375" lon="149.0050248">
  <ele>634.42</ele>
  <time>2026-09-01T19:59:36Z</time>
  <course>3.08</course>
  <speed>0.0</speed>
  <fix>3d</fix>
</trkpt>
<trkpt lat="-35.2824375" lon="149.0050248">
  <ele>634.61</ele>
  <time>2026-09-01T19:59:36Z</time>
  <course>3.07</course>
  <speed>0.0</speed>
  <fix>3d</fix>
</trkpt>
<trkpt lat="-35.2824375" lon="149.0050249">
  <ele>633.8</ele>
  <time>2026-09-01T19:59:36Z</time>
  <course>112.39</course>
  <speed>0.0</speed>
  <fix>3d</fix>
</trkpt>
<trkpt lat="-35.2824375" lon="149.0050248">
  <ele>634.66</ele>
  <time>2026-09-01T19:59:36Z</time>
  <course>3.06</course>
  <speed>0.0</speed>
  <fix>3d</fix>
</trkpt>
<trkpt lat="-35.2824375" lon="149.0050248">
  <ele>634.86</ele>
  <time>2026-09-01T19:59:36Z</time>
  <course>3.05</course>
  <speed>0.0</speed>
  <fix>3d</fix>
</trkpt>
<trkpt lat="-35.2824375" lon="149.0050249">
  <ele>634.3</ele>
  <time>2026-09-01T19:59:36Z</time>
  <course>107.64</course>
  <speed>0.0</speed>
  <fix>3d</fix>
</trkpt>
<trkpt lat="-35.2824375" lon="149.0050248">
  <ele>634.93</ele>
  <time>2026-09-01T19:59:36Z</time>
  <course>3.04</course>
  <speed>0.0</speed>
  <fix>3d</fix>
</trkpt>
<trkpt lat="-35.2824375" lon="149.0050249">
  <ele>635.11</ele>
  <time>2026-09-01T19:59:36Z</time>
  <course>3.03</course>
  <speed>0.0</speed>
  <fix>3d</fix>
</trkpt>
<trkpt lat="-35.2824375" lon="149.0050249">
  <ele>634.3</ele>
  <time>2026-09-01T19:59:36Z</time>
  <course>107.64</course>
  <speed>0.0</speed>
  <fix>3d</fix>
</trkpt>
<trkpt lat="-35.2824375" lon="149.0050249">
  <ele>635.18</ele>
  <time>2026-09-01T19:59:36Z</time>
  <course>3.03</course>
  <speed>0.0</speed>
  <fix>3d</fix>
</trkpt>
<trkpt lat="-35.2824375" lon="149.0050249">
  <ele>635.37</ele>
  <time>2026-09-01T19:59:36Z</time>
  <course>3.02</course>
  <speed>0.0</speed>
  <fix>3d</fix>
</trkpt>
<trkpt lat="-35.2824375" lon="149.0050249">
  <ele>634.8</ele>
  <time>2026-09-01T19:59:36Z</time>
  <course>103.84</course>
  <speed>0.0</speed>
  <fix>3d</fix>
</trkpt>
<trkpt lat="-35.2824375" lon="149.0050249">
  <ele>635.37</ele>
  <time>2026-09-01T19:59:36Z</time>
  <course>3.02</course>
  <speed>0.0</speed>
  <fix>3d</fix>
</trkpt>
<trkpt lat="-35.2824375" lon="149.0050249">
  <ele>635.62</ele>
  <time>2026-09-01T19:59:36Z</time>
  <course>3.01</course>
  <speed>0.0</speed>
  <fix>3d</fix>
</trkpt>
<trkpt lat="-35.2824375" lon="149.0050249">
  <ele>634.8</ele>
  <time>2026-09-01T19:59:36Z</time>
  <course>103.84</course>
  <speed>0.0</speed>
  <fix>3d</fix>
</trkpt>
<trkpt lat="-35.2824375" lon="149.0050249">
  <ele>635.63</ele>
  <time>2026-09-01T19:59:36Z</time>
  <course>3.01</course>
  <speed>0.0</speed>
  <fix>3d</fix>
</trkpt>
<trkpt lat="-35.2824375" lon="149.0050249">
  <ele>635.87</ele>
  <time>2026-09-01T19:59:36Z</time>
  <course>3.0</course>
  <speed>0.0</speed>
  <fix>3d</fix>
</trkpt>
<trkpt lat="-35.2824375" lon="149.0050249">
  <ele>635.31</ele>
  <time>2026-09-01T19:59:36Z</time>
  <course>105.82</course>
  <speed>0.0</speed>
  <fix>3d</fix>
</trkpt>
<trkpt lat="-35.2824375" lon="149.0050249">
  <ele>635.94</ele>
  <time>2026-09-01T19:59:36Z</time>
  <course>3.0</course>
  <speed>0.0</speed>
  <fix>3d</fix>
</trkpt>
<trkpt lat="-35.2824375" lon="149.0050249">
  <ele>636.11</ele>
  <time>2026-09-01T19:59:36Z</time>
  <course>2.99</course>
  <speed>0.0</speed>
  <fix>3d</fix>
</trkpt>
<trkpt lat="-35.2824375" lon="149.0050249">
  <ele>635.31</ele>
  <time>2026-09-01T19:59:36Z</time>
  <course>105.82</course>
  <speed>0.0</speed>
  <fix>3d</fix>
</trkpt>
<trkpt lat="-35.2824375" lon="149.0050249">
  <ele>636.18</ele>
  <time>2026-09-01T19:59:36Z</time>
  <course>2.98</course>
  <speed>0.0</speed>
  <fix>3d</fix>
</trkpt>
<trkpt lat="-35.2824375" lon="149.0050249">
  <ele>636.37</ele>
  <time>2026-09-01T19:59:36Z</time>
  <course>2.97</course>
  <speed>0.0</speed>
  <fix>3d</fix>
</trkpt>
<trkpt lat="-35.2824375" lon="149.0050249">
  <ele>635.81</ele>
  <time>2026-09-01T19:59:36Z</time>
  <course>115.02</course>
  <speed>0.0</speed>
  <fix>3d</fix>
</trkpt>
<trkpt lat="-35.2824375" lon="149.0050249">
  <ele>636.38</ele>
  <time>2026-09-01T19:59:36Z</time>
  <course>2.97</course>
  <speed>0.0</speed>
  <fix>3d</fix>
</trkpt>
<trkpt lat="-35.2824375" lon="149.0050249">
  <ele>636.61</ele>
  <time>2026-09-01T19:59:36Z</time>
  <course>2.96</course>
  <speed>0.01</speed>
  <fix>3d</fix>
</trkpt>
<trkpt lat="-35.2824375" lon="149.0050249">
  <ele>635.81</ele>
  <time>2026-09-01T19:59:36Z</time>
  <course>115.02</course>
  <speed>0.0</speed>
  <fix>3d</fix>
</trkpt>
<trkpt lat="-35.2824375" lon="149.0050249">
  <ele>636.67</ele>
  <time>2026-09-01T19:59:36Z</time>
  <course>2.96</course>
  <speed>0.01</speed>
  <fix>3d</fix>
</trkpt>
<trkpt lat="-35.2824375" lon="149.0050249">
  <ele>636.86</ele>
  <time>2026-09-01T19:59:36Z</time>
  <course>2.96</course>
  <speed>0.01</speed>
  <fix>3d</fix>
</trkpt>
<trkpt lat="-35.2824375" lon="149.005025">
  <ele>636.3</ele>
  <time>2026-09-01T19:59:36Z</time>
  <course>129.03</course>
  <speed>0.0</speed>
  <fix>3d</fix>
</trkpt>
<trkpt lat="-35.2824375" lon="149.0050249">
  <ele>636.93</ele>
  <time>2026-09-01T19:59:36Z</time>
  <course>2.96</course>
  <speed>0.01</speed>
  <fix>3d</fix>
</trkpt>
<trkpt lat="-35.2824375" lon="149.0050249">
  <ele>637.11</ele>
  <time>2026-09-01T19:59:36Z</time>
  <course>2.97</course>
  <speed>0.01</speed>
  <fix>3d</fix>
</trkpt>
<trkpt lat="-35.2824375" lon="149.005025">
  <ele>636.3</ele>
  <time>2026-09-01T19:59:36Z</time>
  <course>129.03</course>
  <speed>0.0</speed>
  <fix>3d</fix>
</trkpt>
<trkpt lat="-35.2824375" lon="149.0050249">
  <ele>637.17</ele>
  <time>2026-09-01T19:59:36Z</time>
  <course>2.97</course>
  <speed>0.01</speed>
  <fix>3d</fix>
</trkpt>
<trkpt lat="-35.2824375" lon="149.0050249">
  <ele>637.36</ele>
  <time>2026-09-01T19:59:36Z</time>
  <course>2.98</course>
  <speed>0.01</speed>
  <fix>3d</fix>
</trkpt>
<trkpt lat="-35.2824376" lon="149.005025">
  <ele>636.8</ele>
  <time>2026-09-01T19:59:36Z</time>
  <course>144.95</course>
  <speed>0.0</speed>
  <fix>3d</fix>
</trkpt>
<trkpt lat="-35.2824375" lon="149.0050249">
  <ele>637.43</ele>
  <time>2026-09-01T19:59:36Z</time>
  <course>2.98</course>
  <speed>0.01</speed>
  <fix>3d</fix>
</trkpt>
<trkpt lat="-35.2824375" lon="149.0050249">
  <ele>637.61</ele>
  <time>2026-09-01T19:59:36Z</time>
  <course>2.98</course>
  <speed>0.01</speed>
  <fix>3d</fix>
</trkpt>
<trkpt lat="-35.2824376" lon="149.005025">
  <ele>636.8</ele>
  <time>2026-09-01T19:59:36Z</time>
  <course>144.95</course>
  <speed>0.0</speed>
  <fix>3d</fix>
</trkpt>
<trkpt lat="-35.2824376" lon="149.0050249">
  <ele>637.67</ele>
  <time>2026-09-01T19:59:36Z</time>
  <course>2.98</course>
  <speed>0.01</speed>
  <fix>3d</fix>
</trkpt>
<trkpt lat="-35.2824376" lon="149.0050249">
  <ele>637.86</ele>
  <time>2026-09-01T19:59:36Z</time>
  <course>2.97</course>
  <speed>0.01</speed>
  <fix>3d</fix>
</trkpt>
<trkpt lat="-35.2824376" lon="149.005025">
  <ele>637.3</ele>
  <time>2026-09-01T19:59:36Z</time>
  <course>162.26</course>
  <speed>0.0</speed>
  <fix>3d</fix>
</trkpt>
<trkpt lat="-35.2824376" lon="149.0050249">
  <ele>637.87</ele>
  <time>2026-09-01T19:59:36Z</time>
  <course>2.97</course>
  <speed>0.01</speed>
  <fix>3d</fix>
</trkpt>
<trkpt lat="-35.2824376" lon="149.0050249">
  <ele>638.1</ele>
  <time>2026-09-01T19:59:36Z</time>
  <course>2.97</course>
  <speed>0.01</speed>
  <fix>3d</fix>
</trkpt>
<trkpt lat="-35.2824376" lon="149.005025">
  <ele>637.3</ele>
  <time>2026-09-01T19:59:36Z</time>
  <course>162.26</course>
  <speed>0.0</speed>
  <fix>3d</fix>
</trkpt>
<trkpt lat="-35.2824376" lon="149.0050249">
  <ele>638.11</ele>
  <time>2026-09-01T19:59:36Z</time>
  <course>2.97</course>
  <speed>0.01</speed>
  <fix>3d</fix>
</trkpt>
<trkpt lat="-35.2824376" lon="149.0050249">
  <ele>638.35</ele>
  <time>2026-09-01T19:59:36Z</time>
  <course>2.95</course>
  <speed>0.01</speed>
  <fix>3d</fix>
</trkpt>
<trkpt lat="-35.2824376" lon="149.005025">
  <ele>637.8</ele>
  <time>2026-09-01T19:59:36Z</time>
  <course>183.39</course>
  <speed>0.0</speed>
  <fix>3d</fix>
</trkpt>
<trkpt lat="-35.2824376" lon="149.0050249">
  <ele>638.42</ele>
  <time>2026-09-01T19:59:36Z</time>
  <course>2.95</course>
  <speed>0.01</speed>
  <fix>3d</fix>
</trkpt>
<trkpt lat="-35.2824376" lon="149.0050249">
  <ele>638.6</ele>
  <time>2026-09-01T19:59:36Z</time>
  <course>2.92</course>
  <speed>0.01</speed>
  <fix>3d</fix>
</trkpt>
<trkpt lat="-35.2824376" lon="149.005025">
  <ele>637.8</ele>
  <time>2026-09-01T19:59:36Z</time>
  <course>183.39</course>
  <speed>0.0</speed>
  <fix>3d</fix>
</trkpt>
<trkpt lat="-35.2824376" lon="149.0050249">
  <ele>638.67</ele>
  <time>2026-09-01T19:59:36Z</time>
  <course>2.92</course>
  <speed>0.01</speed>
  <fix>3d</fix>
</trkpt>
<trkpt lat="-35.2824376" lon="149.0050249">
  <ele>638.85</ele>
  <time>2026-09-01T19:59:36Z</time>
  <course>2.89</course>
  <speed>0.01</speed>
  <fix>3d</fix>
</trkpt>
<trkpt lat="-35.2824376" lon="149.005025">
  <ele>638.3</ele>
  <time>2026-09-01T19:59:36Z</time>
  <course>200.32</course>
  <speed>0.0</speed>
  <fix>3d</fix>
</trkpt>
<trkpt lat="-35.2824376" lon="149.0050249">
  <ele>638.91</ele>
  <time>2026-09-01T19:59:36Z</time>
  <course>2.89</course>
  <speed>0.01</speed>
  <fix>3d</fix>
</trkpt>
<trkpt lat="-35.2824376" lon="149.0050249">
  <ele>639.1</ele>
  <time>2026-09-01T19:59:36Z</time>
  <course>2.86</course>
  <speed>0.01</speed>
  <fix>3d</fix>
</trkpt>
<trkpt lat="-35.2824376" lon="149.005025">
  <ele>638.3</ele>
  <time>2026-09-01T19:59:36Z</time>
  <course>200.32</course>
  <speed>0.0</speed>
  <fix>3d</fix>
</trkpt>
<trkpt lat="-35.2824376" lon="149.0050249">
  <ele>639.16</ele>
  <time>2026-09-01T19:59:36Z</time>
  <course>2.86</course>
  <speed>0.01</speed>
  <fix>3d</fix>
</trkpt>
<trkpt lat="-35.2824376" lon="149.0050249">
  <ele>639.34</ele>
  <time>2026-09-01T19:59:36Z</time>
  <course>2.84</course>
  <speed>0.01</speed>
  <fix>3d</fix>
</trkpt>
<trkpt lat="-35.2824376" lon="149.005025">
  <ele>638.8</ele>
  <time>2026-09-01T19:59:36Z</time>
  <course>213.96</course>
  <speed>0.0</speed>
  <fix>3d</fix>
</trkpt>
<trkpt lat="-35.2824376" lon="149.0050249">
  <ele>639.41</ele>
  <time>2026-09-01T19:59:36Z</time>
  <course>2.83</course>
  <speed>0.01</speed>
  <fix>3d</fix>
</trkpt>
<trkpt lat="-35.2824376" lon="149.0050249">
  <ele>639.59</ele>
  <time>2026-09-01T19:59:36Z</time>
  <course>2.82</course>
  <speed>0.01</speed>
  <fix>3d</fix>
</trkpt>
<trkpt lat="-35.2824376" lon="149.005025">
  <ele>638.8</ele>
  <time>2026-09-01T19:59:36Z</time>
  <course>213.96</course>
  <speed>0.0</speed>
  <fix>3d</fix>
</trkpt>
<trkpt lat="-35.2824376" lon="149.0050249">
  <ele>639.6</ele>
  <time>2026-09-01T19:59:36Z</time>
  <course>2.82</course>
  <speed>0.01</speed>
  <fix>3d</fix>
</trkpt>
<trkpt lat="-35.2824376" lon="149.0050249">
  <ele>639.84</ele>
  <time>2026-09-01T19:59:36Z</time>
  <course>2.82</course>
  <speed>0.01</speed>
  <fix>3d</fix>
</trkpt>
<trkpt lat="-35.2824376" lon="149.005025">
  <ele>639.3</ele>
  <time>2026-09-01T19:59:36Z</time>
  <course>226.4</course>
  <speed>0.0</speed>
  <fix>3d</fix>
</trkpt>
<trkpt lat="-35.2824376" lon="149.0050249">
  <ele>639.85</ele>
  <time>2026-09-01T19:59:36Z</time>
  <course>2.82</course>
  <speed>0.01</speed>
  <fix>3d</fix>
</trkpt>
<trkpt lat="-35.2824376" lon="149.0050249">
  <ele>640.09</ele>
  <time>2026-09-01T19:59:36Z</time>
  <course>2.83</course>
  <speed>0.01</speed>
  <fix>3d</fix>
</trkpt>
<trkpt lat="-35.2824376" lon="149.005025">
  <ele>639.3</ele>
  <time>2026-09-01T19:59:36Z</time>
  <course>226.4</course>
  <speed>0.0</speed>
  <fix>3d</fix>
</trkpt>
<trkpt lat="-35.2824376" lon="149.0050249">
  <ele>640.1</ele>
  <time>2026-09-01T19:59:36Z</time>
  <course>2.83</course>
  <speed>0.01</speed>
  <fix>3d</fix>
</trkpt>
<trkpt lat="-35.2824376" lon="149.0050249">
  <ele>640.35</ele>
  <time>2026-09-01T19:59:36Z</time>
  <course>2.84</course>
  <speed>0.01</speed>
  <fix>3d</fix>
</trkpt>
<trkpt lat="-35.2824376" lon="149.005025">
  <ele>639.8</ele>
  <time>2026-09-01T19:59:36Z</time>
  <course>235.87</course>
  <speed>0.0</speed>
  <fix>3d</fix>
</trkpt>
<trkpt lat="-35.2824376" lon="149.0050249">
  <ele>640.41</ele>
  <time>2026-09-01T19:59:36Z</time>
  <course>2.84</course>
  <speed>0.01</speed>
  <fix>3d</fix>
</trkpt>
<trkpt lat="-35.2824376" lon="149.0050249">
  <ele>640.6</ele>
  <time>2026-09-01T19:59:36Z</time>
  <course>2.84</course>
  <speed>0.01</speed>
  <fix>3d</fix>
</trkpt>
<trkpt lat="-35.2824376" lon="149.005025">
  <ele>639.8</ele>
  <time>2026-09-01T19:59:36Z</time>
  <course>235.87</course>
  <speed>0.0</speed>
  <fix>3d</fix>
</trkpt>
<trkpt lat="-35.2824376" lon="149.0050249">
  <ele>640.61</ele>
  <time>2026-09-01T19:59:36Z</time>
  <course>2.84</course>
  <speed>0.01</speed>
  <fix>3d</fix>
</trkpt>
<trkpt lat="-35.2824376" lon="149.0050249">
  <ele>640.85</ele>
  <time>2026-09-01T19:59:36Z</time>
  <course>2.84</course>
  <speed>0.01</speed>
  <fix>3d</fix>
</trkpt>
<trkpt lat="-35.2824376" lon="149.005025">
  <ele>640.3</ele>
  <time>2026-09-01T19:59:36Z</time>
  <course>246.35</course>
  <speed>0.0</speed>
  <fix>3d</fix>
</trkpt>
<trkpt lat="-35.2824376" lon="149.0050249">
  <ele>640.86</ele>
  <time>2026-09-01T19:59:36Z</time>
  <course>2.84</course>
  <speed>0.01</speed>
  <fix>3d</fix>
</trkpt>
<trkpt lat="-35.2824376" lon="149.0050249">
  <ele>641.1</ele>
  <time>2026-09-01T19:59:36Z</time>
  <course>2.84</course>
  <speed>0.0</speed>
  <fix>3d</fix>
</trkpt>
<trkpt lat="-35.2824376" lon="149.005025">
  <ele>640.3</ele>
  <time>2026-09-01T19:59:36Z</time>
  <course>246.35</course>
  <speed>0.0</speed>
  <fix>3d</fix>
</trkpt>
<trkpt lat="-35.2824376" lon="149.0050249">
  <ele>641.17</ele>
  <time>2026-09-01T19:59:36Z</time>
  <course>2.84</course>
  <speed>0.0</speed>
  <fix>3d</fix>
</trkpt>
<trkpt lat="-35.2824376" lon="149.0050249">
  <ele>641.35</ele>
  <time>2026-09-01T19:59:36Z</time>
  <course>2.85</course>
  <speed>0.0</speed>
  <fix>3d</fix>
</trkpt>
<trkpt lat="-35.2824376" lon="149.005025">
  <ele>640.8</ele>
  <time>2026-09-01T19:59:36Z</time>
  <course>269.08</course>
  <speed>0.0</speed>
  <fix>3d</fix>
</trkpt>
<trkpt lat="-35.2824376" lon="149.0050249">
  <ele>641.42</ele>
  <time>2026-09-01T19:59:36Z</time>
  <course>2.85</course>
  <speed>0.0</speed>
  <fix>3d</fix>
</trkpt>
<trkpt lat="-35.2824376" lon="149.0050249">
  <ele>641.6</ele>
  <time>2026-09-01T19:59:36Z</time>
  <course>2.85</course>
  <speed>0.0</speed>
  <fix>3d</fix>
</trkpt>
<trkpt lat="-35.2824376" lon="149.005025">
  <ele>640.8</ele>
  <time>2026-09-01T19:59:36Z</time>
  <course>269.08</course>
  <speed>0.0</speed>
  <fix>3d</fix>
</trkpt>
<trkpt lat="-35.2824376" lon="149.0050249">
  <ele>641.67</ele>
  <time>2026-09-01T19:59:36Z</time>
  <course>2.85</course>
  <speed>0.0</speed>
  <fix>3d</fix>
</trkpt>
<trkpt lat="-35.2824376" lon="149.0050249">
  <ele>641.85</ele>
  <time>2026-09-01T19:59:36Z</time>
  <course>2.85</course>
  <speed>0.0</speed>
  <fix>3d</fix>
</trkpt>
<trkpt lat="-35.2824376" lon="149.005025">
  <ele>641.3</ele>
  <time>2026-09-01T19:59:36Z</time>
  <course>291.1</course>
  <speed>0.0</speed>
  <fix>3d</fix>
</trkpt>
<trkpt lat="-35.2824376" lon="149.0050249">
  <ele>641.92</ele>
  <time>2026-09-01T19:59:36Z</time>
  <course>2.85</course>
  <speed>0.0</speed>
  <fix>3d</fix>
</trkpt>
<trkpt lat="-35.2824376" lon="149.0050249">
  <ele>642.1</ele>
  <time>2026-09-01T19:59:36Z</time>
  <course>2.85</course>
  <speed>0.0</speed>
  <fix>3d</fix>
</trkpt>
<trkpt lat="-35.2824376" lon="149.005025">
  <ele>641.3</ele>
  <time>2026-09-01T19:59:36Z</time>
  <course>291.1</course>
  <speed>0.0</speed>
  <fix>3d</fix>
</trkpt>
<trkpt lat="-35.2824376" lon="149.0050249">
  <ele>642.16</ele>
  <time>2026-09-01T19:59:36Z</time>
  <course>2.84</course>
  <speed>0.0</speed>
  <fix>3d</fix>
</trkpt>
<trkpt lat="-35.2824376" lon="149.0050249">
  <ele>642.35</ele>
  <time>2026-09-01T19:59:36Z</time>
  <course>2.84</course>
  <speed>0.0</speed>
  <fix>3d</fix>
</trkpt>
<trkpt lat="-35.2824376" lon="149.005025">
  <ele>641.81</ele>
  <time>2026-09-01T19:59:36Z</time>
  <course>298.82</course>
  <speed>0.0</speed>
  <fix>3d</fix>
</trkpt>
<trkpt lat="-35.2824376" lon="149.0050249">
  <ele>642.41</ele>
  <time>2026-09-01T19:59:36Z</time>
  <course>2.84</course>
  <speed>0.0</speed>
  <fix>3d</fix>
</trkpt>
<trkpt lat="-35.2824376" lon="149.0050249">
  <ele>642.59</ele>
  <time>2026-09-01T19:59:36Z</time>
  <course>2.83</course>
  <speed>0.0</speed>
  <fix>3d</fix>
</trkpt>
<trkpt lat="-35.2824376" lon="149.005025">
  <ele>641.81</ele>
  <time>2026-09-01T19:59:36Z</time>
  <course>298.82</course>
  <speed>0.0</speed>
  <fix>3d</fix>
</trkpt>
<trkpt lat="-35.2824376" lon="149.0050249">
  <ele>642.66</ele>
  <time>2026-09-01T19:59:36Z</time>
  <course>2.83</course>
  <speed>0.0</speed>
  <fix>3d</fix>
</trkpt>
<trkpt lat="-35.2824376" lon="149.0050249">
  <ele>642.85</ele>
  <time>2026-09-01T19:59:37Z</time>
  <course>2.83</course>
  <speed>0.0</speed>
  <fix>3d</fix>
</trkpt>
<trkpt lat="-35.2824376" lon="149.005025">
  <ele>642.31</ele>
  <time>2026-09-01T19:59:37Z</time>
  <course>298.41</course>
  <speed>0.0</speed>
  <fix>3d</fix>
</trkpt>
<trkpt lat="-35.2824376" lon="149.0050249">
  <ele>642.91</ele>
  <time>2026-09-01T19:59:37Z</time>
  <course>2.83</course>
  <speed>0.0</speed>
  <fix>3d</fix>
</trkpt>
<trkpt lat="-35.2824376" lon="149.0050249">
  <ele>643.1</ele>
  <time>2026-09-01T19:59:37Z</time>
  <course>2.83</course>
  <speed>0.0</speed>
  <fix>3d</fix>
</trkpt>
<trkpt lat="-35.2824376" lon="149.005025">
  <ele>642.31</ele>
  <time>2026-09-01T19:59:37Z</time>
  <course>298.41</course>
  <speed>0.0</speed>
  <fix>3d</fix>
</trkpt>
<trkpt lat="-35.2824376" lon="149.0050249">
  <ele>643.1</ele>
  <time>2026-09-01T19:59:37Z</time>
  <course>2.83</course>
  <speed>0.0</speed>
  <fix>3d</fix>
</trkpt>
<trkpt lat="-35.2824376" lon="149.0050249">
  <ele>643.35</ele>
  <time>2026-09-01T19:59:37Z</time>
  <course>2.82</course>
  <speed>0.0</speed>
  <fix>3d</fix>
</trkpt>
<trkpt lat="-35.2824376" lon="149.005025">
  <ele>642.81</ele>
  <time>2026-09-01T19:59:37Z</time>
  <course>295.37</course>
  <speed>0.0</speed>
  <fix>3d</fix>
</trkpt>
<trkpt lat="-35.2824376" lon="149.0050249">
  <ele>643.41</ele>
  <time>2026-09-01T19:59:37Z</time>
  <course>2.82</course>
  <speed>0.0</speed>
  <fix>3d</fix>
</trkpt>
<trkpt lat="-35.2824376" lon="149.0050249">
  <ele>643.6</ele>
  <time>2026-09-01T19:59:37Z</time>
  <course>2.81</course>
  <speed>0.0</speed>
  <fix>3d</fix>
</trkpt>
<trkpt lat="-35.2824376" lon="149.005025">
  <ele>642.81</ele>
  <time>2026-09-01T19:59:37Z</time>
  <course>295.37</course>
  <speed>0.0</speed>
  <fix>3d</fix>
</trkpt>
<trkpt lat="-35.2824376" lon="149.0050249">
  <ele>643.61</ele>
  <time>2026-09-01T19:59:37Z</time>
  <course>2.81</course>
  <speed>0.0</speed>
  <fix>3d</fix>
</trkpt>
<trkpt lat="-35.2824376" lon="149.0050249">
  <ele>643.85</ele>
  <time>2026-09-01T19:59:37Z</time>
  <course>2.8</course>
  <speed>0.0</speed>
  <fix>3d</fix>
</trkpt>
<trkpt lat="-35.2824376" lon="149.005025">
  <ele>643.31</ele>
  <time>2026-09-01T19:59:37Z</time>
  <course>297.02</course>
  <speed>0.01</speed>
  <fix>3d</fix>
</trkpt>
<trkpt lat="-35.2824376" lon="149.0050249">
  <ele>643.91</ele>
  <time>2026-09-01T19:59:37Z</time>
  <course>2.8</course>
  <speed>0.0</speed>
  <fix>3d</fix>
</trkpt>
<trkpt lat="-35.2824376" lon="149.0050249">
  <ele>644.1</ele>
  <time>2026-09-01T19:59:37Z</time>
  <course>2.79</course>
  <speed>0.0</speed>
  <fix>3d</fix>
</trkpt>
<trkpt lat="-35.2824376" lon="149.005025">
  <ele>643.31</ele>
  <time>2026-09-01T19:59:37Z</time>
  <course>297.02</course>
  <speed>0.01</speed>
  <fix>3d</fix>
</trkpt>
<trkpt lat="-35.2824376" lon="149.0050249">
  <ele>644.17</ele>
  <time>2026-09-01T19:59:37Z</time>
  <course>2.79</course>
  <speed>0.0</speed>
  <fix>3d</fix>
</trkpt>
<trkpt lat="-35.2824376" lon="149.0050249">
  <ele>644.35</ele>
  <time>2026-09-01T19:59:37Z</time>
  <course>2.78</course>
  <speed>0.0</speed>
  <fix>3d</fix>
</trkpt>
<trkpt lat="-35.2824376" lon="149.0050249">
  <ele>643.82</ele>
  <time>2026-09-01T19:59:37Z</time>
  <course>302.62</course>
  <speed>0.01</speed>
  <fix>3d</fix>
</trkpt>
<trkpt lat="-35.2824376" lon="149.0050249">
  <ele>644.43</ele>
  <time>2026-09-01T19:59:37Z</time>
  <course>2.78</course>
  <speed>0.0</speed>
  <fix>3d</fix>
</trkpt>
<trkpt lat="-35.2824376" lon="149.0050249">
  <ele>644.61</ele>
  <time>2026-09-01T19:59:37Z</time>
  <course>2.76</course>
  <speed>0.0</speed>
  <fix>3d</fix>
</trkpt>
<trkpt lat="-35.2824376" lon="149.0050249">
  <ele>643.82</ele>
  <time>2026-09-01T19:59:37Z</time>
  <course>302.62</course>
  <speed>0.01</speed>
  <fix>3d</fix>
</trkpt>
<trkpt lat="-35.2824376" lon="149.0050249">
  <ele>644.67</ele>
  <time>2026-09-01T19:59:37Z</time>
  <course>2.76</course>
  <speed>0.0</speed>
  <fix>3d</fix>
</trkpt>
<trkpt lat="-35.2824376" lon="149.0050249">
  <ele>644.86</ele>
  <time>2026-09-01T19:59:37Z</time>
  <course>2.75</course>
  <speed>0.0</speed>
  <fix>3d</fix>
</trkpt>
<trkpt lat="-35.2824376" lon="149.0050249">
  <ele>644.32</ele>
  <time>2026-09-01T19:59:37Z</time>
  <course>307.72</course>
  <speed>0.01</speed>
  <fix>3d</fix>
</trkpt>
<trkpt lat="-35.2824376" lon="149.0050249">
  <ele>644.93</ele>
  <time>2026-09-01T19:59:37Z</time>
  <course>2.74</course>
  <speed>0.0</speed>
  <fix>3d</fix>
</trkpt>
<trkpt lat="-35.2824376" lon="149.0050249">
  <ele>645.11</ele>
  <time>2026-09-01T19:59:37Z</time>
  <course>2.74</course>
  <speed>0.0</speed>
  <fix>3d</fix>
</trkpt>
<trkpt lat="-35.2824376" lon="149.0050249">
  <ele>644.32</ele>
  <time>2026-09-01T19:59:37Z</time>
  <course>307.72</course>
  <speed>0.01</speed>
  <fix>3d</fix>
</trkpt>
<trkpt lat="-35.2824376" lon="149.0050249">
  <ele>645.18</ele>
  <time>2026-09-01T19:59:37Z</time>
  <course>2.74</course>
  <speed>0.0</speed>
  <fix>3d</fix>
</trkpt>
<trkpt lat="-35.2824376" lon="149.0050249">
  <ele>645.36</ele>
  <time>2026-09-01T19:59:37Z</time>
  <course>2.74</course>
  <speed>0.0</speed>
  <fix>3d</fix>
</trkpt>
<trkpt lat="-35.2824376" lon="149.0050249">
  <ele>644.82</ele>
  <time>2026-09-01T19:59:37Z</time>
  <course>313.04</course>
  <speed>0.01</speed>
  <fix>3d</fix>
</trkpt>
<trkpt lat="-35.2824376" lon="149.0050249">
  <ele>645.43</ele>
  <time>2026-09-01T19:59:37Z</time>
  <course>2.74</course>
  <speed>0.0</speed>
  <fix>3d</fix>
</trkpt>
<trkpt lat="-35.2824376" lon="149.0050249">
  <ele>645.61</ele>
  <time>2026-09-01T19:59:37Z</time>
  <course>2.74</course>
  <speed>0.0</speed>
  <fix>3d</fix>
</trkpt>
<trkpt lat="-35.2824376" lon="149.0050249">
  <ele>644.82</ele>
  <time>2026-09-01T19:59:37Z</time>
  <course>313.04</course>
  <speed>0.01</speed>
  <fix>3d</fix>
</trkpt>
<trkpt lat="-35.2824376" lon="149.0050249">
  <ele>645.62</ele>
  <time>2026-09-01T19:59:37Z</time>
  <course>2.74</course>
  <speed>0.0</speed>
  <fix>3d</fix>
</trkpt>
<trkpt lat="-35.2824376" lon="149.0050249">
  <ele>645.86</ele>
  <time>2026-09-01T19:59:37Z</time>
  <course>2.75</course>
  <speed>0.0</speed>
  <fix>3d</fix>
</trkpt>
<trkpt lat="-35.2824376" lon="149.0050249">
  <ele>645.32</ele>
  <time>2026-09-01T19:59:37Z</time>
  <course>316.29</course>
  <speed>0.01</speed>
  <fix>3d</fix>
</trkpt>
<trkpt lat="-35.2824376" lon="149.0050249">
  <ele>645.87</ele>
  <time>2026-09-01T19:59:37Z</time>
  <course>2.75</course>
  <speed>0.0</speed>
  <fix>3d</fix>
</trkpt>
<trkpt lat="-35.2824376" lon="149.0050249">
  <ele>646.11</ele>
  <time>2026-09-01T19:59:37Z</time>
  <course>2.76</course>
  <speed>0.0</speed>
  <fix>3d</fix>
</trkpt>
<trkpt lat="-35.2824376" lon="149.0050249">
  <ele>645.32</ele>
  <time>2026-09-01T19:59:37Z</time>
  <course>316.29</course>
  <speed>0.01</speed>
  <fix>3d</fix>
</trkpt>
<trkpt lat="-35.2824376" lon="149.0050249">
  <ele>646.12</ele>
  <time>2026-09-01T19:59:37Z</time>
  <course>2.76</course>
  <speed>0.0</speed>
  <fix>3d</fix>
</trkpt>
<trkpt lat="-35.2824376" lon="149.0050249">
  <ele>646.36</ele>
  <time>2026-09-01T19:59:37Z</time>
  <course>2.76</course>
  <speed>0.0</speed>
  <fix>3d</fix>
</trkpt>
<trkpt lat="-35.2824376" lon="149.0050248">
  <ele>645.83</ele>
  <time>2026-09-01T19:59:37Z</time>
  <course>313.66</course>
  <speed>0.01</speed>
  <fix>3d</fix>
</trkpt>
<trkpt lat="-35.2824376" lon="149.0050249">
  <ele>646.42</ele>
  <time>2026-09-01T19:59:37Z</time>
  <course>2.76</course>
  <speed>0.0</speed>
  <fix>3d</fix>
</trkpt>
<trkpt lat="-35.2824376" lon="149.0050249">
  <ele>646.61</ele>
  <time>2026-09-01T19:59:37Z</time>
  <course>2.75</course>
  <speed>0.0</speed>
  <fix>3d</fix>
</trkpt>
<trkpt lat="-35.2824376" lon="149.0050248">
  <ele>645.83</ele>
  <time>2026-09-01T19:59:37Z</time>
  <course>313.66</course>
  <speed>0.01</speed>
  <fix>3d</fix>
</trkpt>
<trkpt lat="-35.2824376" lon="149.0050249">
  <ele>646.67</ele>
  <time>2026-09-01T19:59:37Z</time>
  <course>2.75</course>
  <speed>0.0</speed>
  <fix>3d</fix>
</trkpt>
<trkpt lat="-35.2824376" lon="149.0050249">
  <ele>646.86</ele>
  <time>2026-09-01T19:59:37Z</time>
  <course>2.75</course>
  <speed>0.0</speed>
  <fix>3d</fix>
</trkpt>
<trkpt lat="-35.2824376" lon="149.0050248">
  <ele>646.33</ele>
  <time>2026-09-01T19:59:37Z</time>
  <course>308.55</course>
  <speed>0.01</speed>
  <fix>3d</fix>
</trkpt>
<trkpt lat="-35.2824376" lon="149.0050249">
  <ele>646.92</ele>
  <time>2026-09-01T19:59:37Z</time>
  <course>2.75</course>
  <speed>0.0</speed>
  <fix>3d</fix>
</trkpt>
<trkpt lat="-35.2824376" lon="149.0050249">
  <ele>647.11</ele>
  <time>2026-09-01T19:59:37Z</time>
  <course>2.74</course>
  <speed>0.0</speed>
  <fix>3d</fix>
</trkpt>
<trkpt lat="-35.2824376" lon="149.0050248">
  <ele>646.33</ele>
  <time>2026-09-01T19:59:37Z</time>
  <course>308.55</course>
  <speed>0.01</speed>
  <fix>3d</fix>
</trkpt>
<trkpt lat="-35.2824376" lon="149.0050249">
  <ele>647.16</ele>
  <time>2026-09-01T19:59:37Z</time>
  <course>2.74</course>
  <speed>0.0</speed>
  <fix>3d</fix>
</trkpt>
<trkpt lat="-35.2824376" lon="149.0050249">
  <ele>647.35</ele>
  <time>2026-09-01T19:59:37Z</time>
  <course>2.74</course>
  <speed>0.0</speed>
  <fix>3d</fix>
</trkpt>
<trkpt lat="-35.2824376" lon="149.0050248">
  <ele>646.83</ele>
  <time>2026-09-01T19:59:37Z</time>
  <course>305.26</course>
  <speed>0.01</speed>
  <fix>3d</fix>
</trkpt>
<trkpt lat="-35.2824376" lon="149.0050249">
  <ele>647.42</ele>
  <time>2026-09-01T19:59:37Z</time>
  <course>2.74</course>
  <speed>0.0</speed>
  <fix>3d</fix>
</trkpt>
<trkpt lat="-35.2824376" lon="149.0050249">
  <ele>647.6</ele>
  <time>2026-09-01T19:59:37Z</time>
  <course>2.75</course>
  <speed>0.0</speed>
  <fix>3d</fix>
</trkpt>
<trkpt lat="-35.2824376" lon="149.0050248">
  <ele>646.83</ele>
  <time>2026-09-01T19:59:37Z</time>
  <course>305.26</course>
  <speed>0.01</speed>
  <fix>3d</fix>
</trkpt>
<trkpt lat="-35.2824376" lon="149.0050249">
  <ele>647.66</ele>
  <time>2026-09-01T19:59:37Z</time>
  <course>2.75</course>
  <speed>0.0</speed>
  <fix>3d</fix>
</trkpt>
<trkpt lat="-35.2824376" lon="149.0050249">
  <ele>647.85</ele>
  <time>2026-09-01T19:59:37Z</time>
  <course>2.75</course>
  <speed>0.0</speed>
  <fix>3d</fix>
</trkpt>
<trkpt lat="-35.2824375" lon="149.0050247">
  <ele>647.33</ele>
  <time>2026-09-01T19:59:37Z</time>
  <course>306.25</course>
  <speed>0.01</speed>
  <fix>3d</fix>
</trkpt>
<trkpt lat="-35.2824376" lon="149.0050249">
  <ele>647.91</ele>
  <time>2026-09-01T19:59:37Z</time>
  <course>2.76</course>
  <speed>0.0</speed>
  <fix>3d</fix>
</trkpt>
<trkpt lat="-35.2824376" lon="149.0050249">
  <ele>648.09</ele>
  <time>2026-09-01T19:59:37Z</time>
  <course>2.77</course>
  <speed>0.0</speed>
  <fix>3d</fix>
</trkpt>
<trkpt lat="-35.2824375" lon="149.0050247">
  <ele>647.33</ele>
  <time>2026-09-01T19:59:37Z</time>
  <course>306.25</course>
  <speed>0.01</speed>
  <fix>3d</fix>
</trkpt>
<trkpt lat="-35.2824376" lon="149.0050249">
  <ele>648.16</ele>
  <time>2026-09-01T19:59:37Z</time>
  <course>2.78</course>
  <speed>0.0</speed>
  <fix>3d</fix>
</trkpt>
<trkpt lat="-35.2824376" lon="149.0050248">
  <ele>648.34</ele>
  <time>2026-09-01T19:59:37Z</time>
  <course>2.8</course>
  <speed>0.0</speed>
  <fix>3d</fix>
</trkpt>
<trkpt lat="-35.2824375" lon="149.0050247">
  <ele>647.83</ele>
  <time>2026-09-01T19:59:37Z</time>
  <course>308.2</course>
  <speed>0.01</speed>
  <fix>3d</fix>
</trkpt>
<trkpt lat="-35.2824376" lon="149.0050248">
  <ele>648.41</ele>
  <time>2026-09-01T19:59:37Z</time>
  <course>2.8</course>
  <speed>0.0</speed>
  <fix>3d</fix>
</trkpt>
<trkpt lat="-35.2824376" lon="149.0050248">
  <ele>648.59</ele>
  <time>2026-09-01T19:59:37Z</time>
  <course>2.82</course>
  <speed>0.0</speed>
  <fix>3d</fix>
</trkpt>
<trkpt lat="-35.2824375" lon="149.0050247">
  <ele>647.83</ele>
  <time>2026-09-01T19:59:37Z</time>
  <course>308.2</course>
  <speed>0.01</speed>
  <fix>3d</fix>
</trkpt>
<trkpt lat="-35.2824376" lon="149.0050248">
  <ele>648.6</ele>
  <time>2026-09-01T19:59:37Z</time>
  <course>2.82</course>
  <speed>0.0</speed>
  <fix>3d</fix>
</trkpt>
<trkpt lat="-35.2824376" lon="149.0050248">
  <ele>648.84</ele>
  <time>2026-09-01T19:59:37Z</time>
  <course>2.83</course>
  <speed>0.0</speed>
  <fix>3d</fix>
</trkpt>
<trkpt lat="-35.2824375" lon="149.0050247">
  <ele>648.33</ele>
  <time>2026-09-01T19:59:37Z</time>
  <course>307.8</course>
  <speed>0.01</speed>
  <fix>3d</fix>
</trkpt>
<trkpt lat="-35.2824376" lon="149.0050248">
  <ele>648.85</ele>
  <time>2026-09-01T19:59:37Z</time>
  <course>2.83</course>
  <speed>0.0</speed>
  <fix>3d</fix>
</trkpt>
<trkpt lat="-35.2824376" lon="149.0050248">
  <ele>649.1</ele>
  <time>2026-09-01T19:59:37Z</time>
  <course>2.83</course>
  <speed>0.0</speed>
  <fix>3d</fix>
</trkpt>
<trkpt lat="-35.2824375" lon="149.0050247">
  <ele>648.33</ele>
  <time>2026-09-01T19:59:37Z</time>
  <course>307.8</course>
  <speed>0.01</speed>
  <fix>3d</fix>
</trkpt>
<trkpt lat="-35.2824376" lon="149.0050248">
  <ele>649.15</ele>
  <time>2026-09-01T19:59:37Z</time>
  <course>2.83</course>
  <speed>0.0</speed>
  <fix>3d</fix>
</trkpt>
<trkpt lat="-35.2824376" lon="149.0050248">
  <ele>649.35</ele>
  <time>2026-09-01T19:59:37Z</time>
  <course>2.82</course>
  <speed>0.0</speed>
  <fix>3d</fix>
</trkpt>
<trkpt lat="-35.2824375" lon="149.0050247">
  <ele>648.83</ele>
  <time>2026-09-01T19:59:37Z</time>
  <course>309.45</course>
  <speed>0.01</speed>
  <fix>3d</fix>
</trkpt>
<trkpt lat="-35.2824376" lon="149.0050248">
  <ele>649.41</ele>
  <time>2026-09-01T19:59:37Z</time>
  <course>2.82</course>
  <speed>0.0</speed>
  <fix>3d</fix>
</trkpt>
<trkpt lat="-35.2824376" lon="149.0050248">
  <ele>649.6</ele>
  <time>2026-09-01T19:59:37Z</time>
  <course>2.81</course>
  <speed>0.0</speed>
  <fix>3d</fix>
</trkpt>
<trkpt lat="-35.2824375" lon="149.0050247">
  <ele>648.83</ele>
  <time>2026-09-01T19:59:37Z</time>
  <course>309.45</course>
  <speed>0.01</speed>
  <fix>3d</fix>
</trkpt>
<trkpt lat="-35.2824376" lon="149.0050248">
  <ele>649.66</ele>
  <time>2026-09-01T19:59:37Z</time>
  <course>2.81</course>
  <speed>0.0</speed>
  <fix>3d</fix>
</trkpt>
<trkpt lat="-35.2824376" lon="149.0050248">
  <ele>649.86</ele>
  <time>2026-09-01T19:59:37Z</time>
  <course>2.81</course>
  <speed>0.0</speed>
  <fix>3d</fix>
</trkpt>
<trkpt lat="-35.2824375" lon="149.0050246">
  <ele>649.33</ele>
  <time>2026-09-01T19:59:37Z</time>
  <course>313.58</course>
  <speed>0.01</speed>
  <fix>3d</fix>
</trkpt>
<trkpt lat="-35.2824376" lon="149.0050248">
  <ele>649.92</ele>
  <time>2026-09-01T19:59:37Z</time>
  <course>2.81</course>
  <speed>0.0</speed>
  <fix>3d</fix>
</trkpt>
<trkpt lat="-35.2824376" lon="149.0050248">
  <ele>650.11</ele>
  <time>2026-09-01T19:59:37Z</time>
  <course>2.8</course>
  <speed>0.0</speed>
  <fix>3d</fix>
</trkpt>
<trkpt lat="-35.2824375" lon="149.0050246">
  <ele>649.33</ele>
  <time>2026-09-01T19:59:37Z</time>
  <course>313.58</course>
  <speed>0.01</speed>
  <fix>3d</fix>
</trkpt>
<trkpt lat="-35.2824376" lon="149.0050248">
  <ele>650.17</ele>
  <time>2026-09-01T19:59:37Z</time>
  <course>2.8</course>
  <speed>0.0</speed>
  <fix>3d</fix>
</trkpt>
<trkpt lat="-35.2824376" lon="149.0050247">
  <ele>650.36</ele>
  <time>2026-09-01T19:59:37Z</time>
  <course>2.81</course>
  <speed>0.0</speed>
  <fix>3d</fix>
</trkpt>
<trkpt lat="-35.2824375" lon="149.0050245">
  <ele>649.83</ele>
  <time>2026-09-01T19:59:37Z</time>
  <course>316.73</course>
  <speed>0.01</speed>
  <fix>3d</fix>
</trkpt>
<trkpt lat="-35.2824376" lon="149.0050247">
  <ele>650.42</ele>
  <time>2026-09-01T19:59:37Z</time>
  <course>2.81</course>
  <speed>0.0</speed>
  <fix>3d</fix>
</trkpt>
<trkpt lat="-35.2824376" lon="149.0050247">
  <ele>650.62</ele>
  <time>2026-09-01T19:59:37Z</time>
  <course>2.81</course>
  <speed>0.0</speed>
  <fix>3d</fix>
</trkpt>
<trkpt lat="-35.2824375" lon="149.0050245">
  <ele>649.83</ele>
  <time>2026-09-01T19:59:37Z</time>
  <course>316.73</course>
  <speed>0.01</speed>
  <fix>3d</fix>
</trkpt>
<trkpt lat="-35.2824376" lon="149.0050247">
  <ele>650.68</ele>
  <time>2026-09-01T19:59:37Z</time>
  <course>2.81</course>
  <speed>0.0</speed>
  <fix>3d</fix>
</trkpt>
<trkpt lat="-35.2824376" lon="149.0050247">
  <ele>650.87</ele>
  <time>2026-09-01T19:59:37Z</time>
  <course>2.81</course>
  <speed>0.0</speed>
  <fix>3d</fix>
</trkpt>
<trkpt lat="-35.2824374" lon="149.0050245">
  <ele>650.34</ele>
  <time>2026-09-01T19:59:37Z</time>
  <course>317.06</course>
  <speed>0.01</speed>
  <fix>3d</fix>
</trkpt>
<trkpt lat="-35.2824376" lon="149.0050247">
  <ele>650.94</ele>
  <time>2026-09-01T19:59:37Z</time>
  <course>2.81</course>
  <speed>0.0</speed>
  <fix>3d</fix>
</trkpt>
<trkpt lat="-35.2824376" lon="149.0050247">
  <ele>651.12</ele>
  <time>2026-09-01T19:59:37Z</time>
  <course>2.82</course>
  <speed>0.0</speed>
  <fix>3d</fix>
</trkpt>
<trkpt lat="-35.2824374" lon="149.0050245">
  <ele>650.34</ele>
  <time>2026-09-01T19:59:37Z</time>
  <course>317.06</course>
  <speed>0.01</speed>
  <fix>3d</fix>
</trkpt>
<trkpt lat="-35.2824376" lon="149.0050247">
  <ele>651.18</ele>
  <time>2026-09-01T19:59:37Z</time>
  <course>2.82</course>
  <speed>0.0</speed>
  <fix>3d</fix>
</trkpt>
<trkpt lat="-35.2824376" lon="149.0050247">
  <ele>651.37</ele>
  <time>2026-09-01T19:59:37Z</time>
  <course>2.83</course>
  <speed>0.0</speed>
  <fix>3d</fix>
</trkpt>
<trkpt lat="-35.2824374" lon="149.0050245">
  <ele>650.84</ele>
  <time>2026-09-01T19:59:37Z</time>
  <course>315.35</course>
  <speed>0.01</speed>
  <fix>3d</fix>
</trkpt>
<trkpt lat="-35.2824376" lon="149.0050247">
  <ele>651.38</ele>
  <time>2026-09-01T19:59:37Z</time>
  <course>2.83</course>
  <speed>0.0</speed>
  <fix>3d</fix>
</trkpt>
<trkpt lat="-35.2824376" lon="149.0050247">
  <ele>651.62</ele>
  <time>2026-09-01T19:59:37Z</time>
  <course>2.85</course>
  <speed>0.0</speed>
  <fix>3d</fix>
</trkpt>
<trkpt lat="-35.2824374" lon="149.0050245">
  <ele>650.84</ele>
  <time>2026-09-01T19:59:37Z</time>
  <course>315.35</course>
  <speed>0.01</speed>
  <fix>3d</fix>
</trkpt>
<trkpt lat="-35.2824376" lon="149.0050247">
  <ele>651.63</ele>
  <time>2026-09-01T19:59:37Z</time>
  <course>2.85</course>
  <speed>0.0</speed>
  <fix>3d</fix>
</trkpt>
<trkpt lat="-35.2824376" lon="149.0050246">
  <ele>651.87</ele>
  <time>2026-09-01T19:59:37Z</time>
  <course>2.85</course>
  <speed>0.0</speed>
  <fix>3d</fix>
</trkpt>
<trkpt lat="-35.2824374" lon="149.0050245">
  <ele>651.34</ele>
  <time>2026-09-01T19:59:37Z</time>
  <course>313.1</course>
  <speed>0.01</speed>
  <fix>3d</fix>
</trkpt>
<trkpt lat="-35.2824376" lon="149.0050246">
  <ele>651.93</ele>
  <time>2026-09-01T19:59:37Z</time>
  <course>2.86</course>
  <speed>0.0</speed>
  <fix>3d</fix>
</trkpt>
<trkpt lat="-35.2824376" lon="149.0050246">
  <ele>652.12</ele>
  <time>2026-09-01T19:59:37Z</time>
  <course>2.86</course>
  <speed>0.01</speed>
  <fix>3d</fix>
</trkpt>
<trkpt lat="-35.2824374" lon="149.0050245">
  <ele>651.34</ele>
  <time>2026-09-01T19:59:37Z</time>
  <course>313.1</course>
  <speed>0.01</speed>
  <fix>3d</fix>
</trkpt>
<trkpt lat="-35.2824376" lon="149.0050246">
  <ele>652.18</ele>
  <time>2026-09-01T19:59:37Z</time>
  <course>2.85</course>
  <speed>0.01</speed>
  <fix>3d</fix>
</trkpt>
<trkpt lat="-35.2824376" lon="149.0050246">
  <ele>652.37</ele>
  <time>2026-09-01T19:59:37Z</time>
  <course>2.85</course>
  <speed>0.01</speed>
  <fix>3d</fix>
</trkpt>
<trkpt lat="-35.2824374" lon="149.0050245">
  <ele>651.84</ele>
  <time>2026-09-01T19:59:37Z</time>
  <course>312.17</course>
  <speed>0.01</speed>
  <fix>3d</fix>
</trkpt>
<trkpt lat="-35.2824376" lon="149.0050246">
  <ele>652.43</ele>
  <time>2026-09-01T19:59:37Z</time>
  <course>2.85</course>
  <speed>0.01</speed>
  <fix>3d</fix>
</trkpt>
<trkpt lat="-35.2824376" lon="149.0050246">
  <ele>652.62</ele>
  <time>2026-09-01T19:59:37Z</time>
  <course>2.85</course>
  <speed>0.01</speed>
  <fix>3d</fix>
</trkpt>
<trkpt lat="-35.2824374" lon="149.0050245">
  <ele>651.84</ele>
  <time>2026-09-01T19:59:37Z</time>
  <course>312.17</course>
  <speed>0.01</speed>
  <fix>3d</fix>
</trkpt>
<trkpt lat="-35.2824376" lon="149.0050246">
  <ele>652.68</ele>
  <time>2026-09-01T19:59:37Z</time>
  <course>2.84</course>
  <speed>0.01</speed>
  <fix>3d</fix>
</trkpt>
<trkpt lat="-35.2824376" lon="149.0050246">
  <ele>652.87</ele>
  <time>2026-09-01T19:59:37Z</time>
  <course>2.84</course>
  <speed>0.01</speed>
  <fix>3d</fix>
</trkpt>
<trkpt lat="-35.2824374" lon="149.0050245">
  <ele>652.34</ele>
  <time>2026-09-01T19:59:37Z</time>
  <course>311.26</course>
  <speed>0.01</speed>
  <fix>3d</fix>
</trkpt>
<trkpt lat="-35.2824376" lon="149.0050246">
  <ele>652.93</ele>
  <time>2026-09-01T19:59:37Z</time>
  <course>2.83</course>
  <speed>0.01</speed>
  <fix>3d</fix>
</trkpt>
<trkpt lat="-35.2824376" lon="149.0050246">
  <ele>653.11</ele>
  <time>2026-09-01T19:59:37Z</time>
  <course>2.83</course>
  <speed>0.01</speed>
  <fix>3d</fix>
</trkpt>
<trkpt lat="-35.2824374" lon="149.0050245">
  <ele>652.34</ele>
  <time>2026-09-01T19:59:37Z</time>
  <course>311.26</course>
  <speed>0.01</speed>
  <fix>3d</fix>
</trkpt>
<trkpt lat="-35.2824376" lon="149.0050246">
  <ele>653.18</ele>
  <time>2026-09-01T19:59:37Z</time>
  <course>2.82</course>
  <speed>0.01</speed>
  <fix>3d</fix>
</trkpt>
<trkpt lat="-35.2824376" lon="149.0050246">
  <ele>653.36</ele>
  <time>2026-09-01T19:59:37Z</time>
  <course>2.82</course>
  <speed>0.01</speed>
  <fix>3d</fix>
</trkpt>
<trkpt lat="-35.2824374" lon="149.0050245">
  <ele>652.84</ele>
  <time>2026-09-01T19:59:37Z</time>
  <course>309.61</course>
  <speed>0.0</speed>
  <fix>3d</fix>
</trkpt>
<trkpt lat="-35.2824376" lon="149.0050246">
  <ele>653.43</ele>
  <time>2026-09-01T19:59:37Z</time>
  <course>2.82</course>
  <speed>0.01</speed>
  <fix>3d</fix>
</trkpt>
<trkpt lat="-35.2824376" lon="149.0050246">
  <ele>653.61</ele>
  <time>2026-09-01T19:59:37Z</time>
  <course>2.83</course>
  <speed>0.01</speed>
  <fix>3d</fix>
</trkpt>
<trkpt lat="-35.2824374" lon="149.0050245">
  <ele>652.84</ele>
  <time>2026-09-01T19:59:37Z</time>
  <course>309.61</course>
  <speed>0.0</speed>
  <fix>3d</fix>
</trkpt>
<trkpt lat="-35.2824376" lon="149.0050246">
  <ele>653.68</ele>
  <time>2026-09-01T19:59:37Z</time>
  <course>2.83</course>
  <speed>0.01</speed>
  <fix>3d</fix>
</trkpt>
<trkpt lat="-35.2824376" lon="149.0050246">
  <ele>653.87</ele>
  <time>2026-09-01T19:59:37Z</time>
  <course>2.85</course>
  <speed>0.01</speed>
  <fix>3d</fix>
</trkpt>
<trkpt lat="-35.2824374" lon="149.0050245">
  <ele>653.33</ele>
  <time>2026-09-01T19:59:37Z</time>
  <course>307.43</course>
  <speed>0.0</speed>
  <fix>3d</fix>
</trkpt>
<trkpt lat="-35.2824376" lon="149.0050246">
  <ele>653.94</ele>
  <time>2026-09-01T19:59:37Z</time>
  <course>2.85</course>
  <speed>0.01</speed>
  <fix>3d</fix>
</trkpt>
<trkpt lat="-35.2824376" lon="149.0050246">
  <ele>654.12</ele>
  <time>2026-09-01T19:59:37Z</time>
  <course>2.87</course>
  <speed>0.01</speed>
  <fix>3d</fix>
</trkpt>
<trkpt lat="-35.2824374" lon="149.0050245">
  <ele>653.33</ele>
  <time>2026-09-01T19:59:37Z</time>
  <course>307.43</course>
  <speed>0.0</speed>
  <fix>3d</fix>
</trkpt>
<trkpt lat="-35.2824376" lon="149.0050246">
  <ele>654.14</ele>
  <time>2026-09-01T19:59:37Z</time>
  <course>2.87</course>
  <speed>0.01</speed>
  <fix>3d</fix>
</trkpt>
<trkpt lat="-35.2824376" lon="149.0050246">
  <ele>654.37</ele>
  <time>2026-09-01T19:59:37Z</time>
  <course>2.9</course>
  <speed>0.01</speed>
  <fix>3d</fix>
</trkpt>
<trkpt lat="-35.2824374" lon="149.0050245">
  <ele>653.83</ele>
  <time>2026-09-01T19:59:37Z</time>
  <course>303.13</course>
  <speed>0.0</speed>
  <fix>3d</fix>
</trkpt>
<trkpt lat="-35.2824376" lon="149.0050246">
  <ele>654.38</ele>
  <time>2026-09-01T19:59:37Z</time>
  <course>2.9</course>
  <speed>0.01</speed>
  <fix>3d</fix>
</trkpt>
<trkpt lat="-35.2824375" lon="149.0050246">
  <ele>654.62</ele>
  <time>2026-09-01T19:59:37Z</time>
  <course>2.93</course>
  <speed>0.01</speed>
  <fix>3d</fix>
</trkpt>
<trkpt lat="-35.2824374" lon="149.0050245">
  <ele>653.83</ele>
  <time>2026-09-01T19:59:37Z</time>
  <course>303.13</course>
  <speed>0.0</speed>
  <fix>3d</fix>
</trkpt>
<trkpt lat="-35.2824375" lon="149.0050246">
  <ele>654.69</ele>
  <time>2026-09-01T19:59:37Z</time>
  <course>2.93</course>
  <speed>0.01</speed>
  <fix>3d</fix>
</trkpt>
<trkpt lat="-35.2824375" lon="149.0050246">
  <ele>654.87</ele>
  <time>2026-09-01T19:59:37Z</time>
  <course>2.95</course>
  <speed>0.01</speed>
  <fix>3d</fix>
</trkpt>
<trkpt lat="-35.2824374" lon="149.0050245">
  <ele>654.33</ele>
  <time>2026-09-01T19:59:37Z</time>
  <course>303.92</course>
  <speed>0.0</speed>
  <fix>3d</fix>
</trkpt>
<trkpt lat="-35.2824375" lon="149.0050246">
  <ele>654.95</ele>
  <time>2026-09-01T19:59:37Z</time>
  <course>2.96</course>
  <speed>0.01</speed>
  <fix>3d</fix>
</trkpt>
<trkpt lat="-35.2824375" lon="149.0050246">
  <ele>655.12</ele>
  <time>2026-09-01T19:59:37Z</time>
  <course>2.97</course>
  <speed>0.01</speed>
  <fix>3d</fix>
</trkpt>
<trkpt lat="-35.2824374" lon="149.0050245">
  <ele>654.33</ele>
  <time>2026-09-01T19:59:37Z</time>
  <course>303.92</course>
  <speed>0.0</speed>
  <fix>3d</fix>
</trkpt>
<trkpt lat="-35.2824375" lon="149.0050246">
  <ele>655.19</ele>
  <time>2026-09-01T19:59:37Z</time>
  <course>2.97</course>
  <speed>0.01</speed>
  <fix>3d</fix>
</trkpt>
<trkpt lat="-35.2824375" lon="149.0050246">
  <ele>655.38</ele>
  <time>2026-09-01T19:59:37Z</time>
  <course>2.97</course>
  <speed>0.01</speed>
  <fix>3d</fix>
</trkpt>
<trkpt lat="-35.2824373" lon="149.0050245">
  <ele>654.83</ele>
  <time>2026-09-01T19:59:37Z</time>
  <course>306.93</course>
  <speed>0.0</speed>
  <fix>3d</fix>
</trkpt>
<trkpt lat="-35.2824375" lon="149.0050246">
  <ele>655.44</ele>
  <time>2026-09-01T19:59:37Z</time>
  <course>2.97</course>
  <speed>0.01</speed>
  <fix>3d</fix>
</trkpt>
<trkpt lat="-35.2824375" lon="149.0050246">
  <ele>655.63</ele>
  <time>2026-09-01T19:59:37Z</time>
  <course>2.96</course>
  <speed>0.01</speed>
  <fix>3d</fix>
</trkpt>
<trkpt lat="-35.2824373" lon="149.0050245">
  <ele>654.83</ele>
  <time>2026-09-01T19:59:37Z</time>
  <course>306.93</course>
  <speed>0.0</speed>
  <fix>3d</fix>
</trkpt>
<trkpt lat="-35.2824375" lon="149.0050246">
  <ele>655.69</ele>
  <time>2026-09-01T19:59:37Z</time>
  <course>2.96</course>
  <speed>0.01</speed>
  <fix>3d</fix>
</trkpt>
<trkpt lat="-35.2824375" lon="149.0050246">
  <ele>655.88</ele>
  <time>2026-09-01T19:59:37Z</time>
  <course>2.95</course>
  <speed>0.01</speed>
  <fix>3d</fix>
</trkpt>
<trkpt lat="-35.2824373" lon="149.0050245">
  <ele>655.32</ele>
  <time>2026-09-01T19:59:37Z</time>
  <course>300.81</course>
  <speed>0.0</speed>
  <fix>3d</fix>
</trkpt>
<trkpt lat="-35.2824375" lon="149.0050246">
  <ele>655.95</ele>
  <time>2026-09-01T19:59:37Z</time>
  <course>2.94</course>
  <speed>0.01</speed>
  <fix>3d</fix>
</trkpt>
<trkpt lat="-35.2824375" lon="149.0050246">
  <ele>656.13</ele>
  <time>2026-09-01T19:59:37Z</time>
  <course>2.93</course>
  <speed>0.01</speed>
  <fix>3d</fix>
</trkpt>
<trkpt lat="-35.2824373" lon="149.0050245">
  <ele>655.32</ele>
  <time>2026-09-01T19:59:37Z</time>
  <course>300.81</course>
  <speed>0.0</speed>
  <fix>3d</fix>
</trkpt>
<trkpt lat="-35.2824375" lon="149.0050246">
  <ele>656.19</ele>
  <time>2026-09-01T19:59:37Z</time>
  <course>2.92</course>
  <speed>0.01</speed>
  <fix>3d</fix>
</trkpt>
<trkpt lat="-35.2824375" lon="149.0050246">
  <ele>656.38</ele>
  <time>2026-09-01T19:59:37Z</time>
  <course>2.91</course>
  <speed>0.01</speed>
  <fix>3d</fix>
</trkpt>
<trkpt lat="-35.2824373" lon="149.0050245">
  <ele>655.82</ele>
  <time>2026-09-01T19:59:37Z</time>
  <course>291.86</course>
  <speed>0.0</speed>
  <fix>3d</fix>
</trkpt>
<trkpt lat="-35.2824375" lon="149.0050246">
  <ele>656.44</ele>
  <time>2026-09-01T19:59:37Z</time>
  <course>2.91</course>
  <speed>0.01</speed>
  <fix>3d</fix>
</trkpt>
<trkpt lat="-35.2824375" lon="149.0050246">
  <ele>656.62</ele>
  <time>2026-09-01T19:59:37Z</time>
  <course>2.9</course>
  <speed>0.01</speed>
  <fix>3d</fix>
</trkpt>
<trkpt lat="-35.2824373" lon="149.0050245">
  <ele>655.82</ele>
  <time>2026-09-01T19:59:37Z</time>
  <course>291.86</course>
  <speed>0.0</speed>
  <fix>3d</fix>
</trkpt>
<trkpt lat="-35.2824375" lon="149.0050246">
  <ele>656.68</ele>
  <time>2026-09-01T19:59:37Z</time>
  <course>2.9</course>
  <speed>0.01</speed>
  <fix>3d</fix>
</trkpt>
<trkpt lat="-35.2824375" lon="149.0050246">
  <ele>656.87</ele>
  <time>2026-09-01T19:59:37Z</time>
  <course>2.9</course>
  <speed>0.01</speed>
  <fix>3d</fix>
</trkpt>
<trkpt lat="-35.2824373" lon="149.0050244">
  <ele>656.32</ele>
  <time>2026-09-01T19:59:37Z</time>
  <course>284.55</course>
  <speed>0.0</speed>
  <fix>3d</fix>
</trkpt>
<trkpt lat="-35.2824375" lon="149.0050246">
  <ele>656.88</ele>
  <time>2026-09-01T19:59:37Z</time>
  <course>2.9</course>
  <speed>0.01</speed>
  <fix>3d</fix>
</trkpt>
<trkpt lat="-35.2824375" lon="149.0050246">
  <ele>657.11</ele>
  <time>2026-09-01T19:59:37Z</time>
  <course>2.91</course>
  <speed>0.01</speed>
  <fix>3d</fix>
</trkpt>
<trkpt lat="-35.2824373" lon="149.0050244">
  <ele>656.32</ele>
  <time>2026-09-01T19:59:37Z</time>
  <course>284.55</course>
  <speed>0.0</speed>
  <fix>3d</fix>
</trkpt>
<trkpt lat="-35.2824375" lon="149.0050246">
  <ele>657.12</ele>
  <time>2026-09-01T19:59:37Z</time>
  <course>2.91</course>
  <speed>0.01</speed>
  <fix>3d</fix>
</trkpt>
<trkpt lat="-35.2824375" lon="149.0050246">
  <ele>657.34</ele>
  <time>2026-09-01T19:59:37Z</time>
  <course>2.91</course>
  <speed>0.01</speed>
  <fix>3d</fix>
</trkpt>
<trkpt lat="-35.2824373" lon="149.0050244">
  <ele>656.81</ele>
  <time>2026-09-01T19:59:37Z</time>
  <course>281.1</course>
  <speed>0.0</speed>
  <fix>3d</fix>
</trkpt>
<trkpt lat="-35.2824375" lon="149.0050246">
  <ele>657.4</ele>
  <time>2026-09-01T19:59:37Z</time>
  <course>2.92</course>
  <speed>0.01</speed>
  <fix>3d</fix>
</trkpt>
<trkpt lat="-35.2824375" lon="149.0050246">
  <ele>657.57</ele>
  <time>2026-09-01T19:59:37Z</time>
  <course>2.92</course>
  <speed>0.01</speed>
  <fix>3d</fix>
</trkpt>
<trkpt lat="-35.2824373" lon="149.0050244">
  <ele>656.81</ele>
  <time>2026-09-01T19:59:37Z</time>
  <course>281.1</course>
  <speed>0.0</speed>
  <fix>3d</fix>
</trkpt>
<trkpt lat="-35.2824375" lon="149.0050246">
  <ele>657.58</ele>
  <time>2026-09-01T19:59:37Z</time>
  <course>2.92</course>
  <speed>0.01</speed>
  <fix>3d</fix>
</trkpt>
<trkpt lat="-35.2824375" lon="149.0050245">
  <ele>657.78</ele>
  <time>2026-09-01T19:59:37Z</time>
  <course>2.92</course>
  <speed>0.02</speed>
  <fix>3d</fix>
</trkpt>
<trkpt lat="-35.2824373" lon="149.0050244">
  <ele>657.28</ele>
  <time>2026-09-01T19:59:37Z</time>
  <course>254.68</course>
  <speed>0.0</speed>
  <fix>3d</fix>
</trkpt>
<trkpt lat="-35.2824375" lon="149.0050245">
  <ele>657.86</ele>
  <time>2026-09-01T19:59:37Z</time>
  <course>2.93</course>
  <speed>0.02</speed>
  <fix>3d</fix>
</trkpt>
<trkpt lat="-35.2824375" lon="149.0050245">
  <ele>657.98</ele>
  <time>2026-09-01T19:59:37Z</time>
  <course>2.93</course>
  <speed>0.03</speed>
  <fix>3d</fix>
</trkpt>
<trkpt lat="-35.2824373" lon="149.0050244">
  <ele>657.28</ele>
  <time>2026-09-01T19:59:37Z</time>
  <course>254.68</course>
  <speed>0.0</speed>
  <fix>3d</fix>
</trkpt>
<trkpt lat="-35.2824375" lon="149.0050245">
  <ele>658.16</ele>
  <time>2026-09-01T19:59:37Z</time>
  <course>2.92</course>
  <speed>0.04</speed>
  <fix>3d</fix>
</trkpt>
<trkpt lat="-35.2824373" lon="149.0050244">
  <ele>657.72</ele>
  <time>2026-09-01T19:59:37Z</time>
  <course>204.43</course>
  <speed>0.01</speed>
  <fix>3d</fix>
</trkpt>
<trkpt lat="-35.2824375" lon="149.0050245">
  <ele>658.32</ele>
  <time>2026-09-01T19:59:37Z</time>
  <course>2.92</course>
  <speed>0.05</speed>
  <fix>3d</fix>
</trkpt>
<trkpt lat="-35.2824373" lon="149.0050244">
  <ele>657.72</ele>
  <time>2026-09-01T19:59:37Z</time>
  <course>204.43</course>
  <speed>0.01</speed>
  <fix>3d</fix>
</trkpt>
<trkpt lat="-35.2824375" lon="149.0050245">
  <ele>658.47</ele>
  <time>2026-09-01T19:59:37Z</time>
  <course>2.91</course>
  <speed>0.06</speed>
  <fix>3d</fix>
</trkpt>
<trkpt lat="-35.2824373" lon="149.0050244">
  <ele>658.1</ele>
  <time>2026-09-01T19:59:37Z</time>
  <course>187.76</course>
  <speed>0.02</speed>
  <fix>3d</fix>
</trkpt>
<trkpt lat="-35.2824375" lon="149.0050245">
  <ele>658.59</ele>
  <time>2026-09-01T19:59:37Z</time>
  <course>2.9</course>
  <speed>0.03</speed>
  <fix>3d</fix>
</trkpt>
<trkpt lat="-35.2824373" lon="149.0050244">
  <ele>658.1</ele>
  <time>2026-09-01T19:59:37Z</time>
  <course>187.76</course>
  <speed>0.02</speed>
  <fix>3d</fix>
</trkpt>
<trkpt lat="-35.2824375" lon="149.0050245">
  <ele>658.68</ele>
  <time>2026-09-01T19:59:37Z</time>
  <course>2.93</course>
  <speed>0.05099019513592785</speed>
  <fix>3d</fix>
</trkpt>
<trkpt lat="-35.2824373" lon="149.0050244">
  <ele>658.41</ele>
  <time>2026-09-01T19:59:37Z</time>
  <course>185.09</course>
  <speed>0.02</speed>
  <fix>3d</fix>
</trkpt>
<trkpt lat="-35.2824375" lon="149.0050245">
  <ele>658.75</ele>
  <time>2026-09-01T19:59:37Z</time>
  <course>3.0</course>
  <speed>0.2009975124224178</speed>
  <fix>3d</fix>
</trkpt>
<trkpt lat="-35.2824373" lon="149.0050244">
  <ele>658.41</ele>
  <time>2026-09-01T19:59:37Z</time>
  <course>185.09</course>
  <speed>0.02</speed>
  <fix>3d</fix>
</trkpt>
<trkpt lat="-35.2824372" lon="149.0050245">
  <ele>658.8</ele>
  <time>2026-09-01T19:59:37Z</time>
  <course>3.02</course>
  <speed>0.4219004621945798</speed>
  <fix>3d</fix>
</trkpt>
<trkpt lat="-35.2824373" lon="149.0050244">
  <ele>658.62</ele>
  <time>2026-09-01T19:59:37Z</time>
  <course>0.12</course>
  <speed>0.09</speed>
  <fix>3d</fix>
</trkpt>
<trkpt lat="-35.2824367" lon="149.0050245">
  <ele>658.82</ele>
  <time>2026-09-01T19:59:37Z</time>
  <course>2.91</course>
  <speed>0.6926037828369117</speed>
  <fix>3d</fix>
</trkpt>
<trkpt lat="-35.2824373" lon="149.0050244">
  <ele>658.62</ele>
  <time>2026-09-01T19:59:37Z</time>
  <course>0.12</course>
  <speed>0.09</speed>
  <fix>3d</fix>
</trkpt>
<trkpt lat="-35.2824359" lon="149.0050246">
  <ele>658.83</ele>
  <time>2026-09-01T19:59:37Z</time>
  <course>2.73</course>
  <speed>1.022399139279763</speed>
  <fix>3d</fix>
</trkpt>
<trkpt lat="-35.2824369" lon="149.0050244">
  <ele>658.75</ele>
  <time>2026-09-01T19:59:37Z</time>
  <course>0.74</course>
  <speed>0.45</speed>
  <fix>3d</fix>
</trkpt>
<trkpt lat="-35.2824348" lon="149.0050247">
  <ele>658.82</ele>
  <time>2026-09-01T19:59:37Z</time>
  <course>2.55</course>
  <speed>1.4328293687665674</speed>
  <fix>3d</fix>
</trkpt>
<trkpt lat="-35.2824369" lon="149.0050244">
  <ele>658.75</ele>
  <time>2026-09-01T19:59:37Z</time>
  <course>0.74</course>
  <speed>0.45</speed>
  <fix>3d</fix>
</trkpt>
<trkpt lat="-35.2824332" lon="149.0050247">
  <ele>658.8</ele>
  <time>2026-09-01T19:59:37Z</time>
  <course>2.17</course>
  <speed>1.9021303845951254</speed>
  <fix>3d</fix>
</trkpt>
<trkpt lat="-35.2824356" lon="149.0050244">
  <ele>658.79</ele>
  <time>2026-09-01T19:59:37Z</time>
  <course>0.45</course>
  <speed>1.05</speed>
  <fix>3d</fix>
</trkpt>
<trkpt lat="-35.2824313" lon="149.0050248">
  <ele>658.78</ele>
  <time>2026-09-01T19:59:37Z</time>
  <course>1.81</course>
  <speed>2.421672975444868</speed>
  <fix>3d</fix>
</trkpt>
<trkpt lat="-35.2824356" lon="149.0050244">
  <ele>658.79</ele>
  <time>2026-09-01T19:59:37Z</time>
  <course>0.45</course>
  <speed>1.05</speed>
  <fix>3d</fix>
</trkpt>
<trkpt lat="-35.2824289" lon="149.0050248">
  <ele>658.75</ele>
  <time>2026-09-01T19:59:37Z</time>
  <course>1.25</course>
  <speed>2.991070042643602</speed>
  <fix>3d</fix>
</trkpt>
<trkpt lat="-35.282433" lon="149.0050244">
  <ele>658.77</ele>
  <time>2026-09-01T19:59:37Z</time>
  <course>359.69</course>
  <speed>1.91</speed>
  <fix>3d</fix>
</trkpt>
<trkpt lat="-35.2824259" lon="149.0050248">
  <ele>658.72</ele>
  <time>2026-09-01T19:59:37Z</time>
  <course>0.67</course>
  <speed>3.6002222153639347</speed>
  <fix>3d</fix>
</trkpt>
<trkpt lat="-35.282433" lon="149.0050244">
  <ele>658.77</ele>
  <time>2026-09-01T19:59:37Z</time>
  <course>359.69</course>
  <speed>1.91</speed>
  <fix>3d</fix>
</trkpt>
<trkpt lat="-35.2824224" lon="149.0050247">
  <ele>658.69</ele>
  <time>2026-09-01T19:59:37Z</time>
  <course>359.72</course>
  <speed>4.200011904745033</speed>
  <fix>3d</fix>
</trkpt>
<trkpt lat="-35.2824286" lon="149.0050243">
  <ele>658.72</ele>
  <time>2026-09-01T19:59:37Z</time>
  <course>358.79</course>
  <speed>2.99</speed>
  <fix>3d</fix>
</trkpt>
<trkpt lat="-35.2824184" lon="149.0050246">
  <ele>658.67</ele>
  <time>2026-09-01T19:59:37Z</time>
  <course>358.75</course>
  <speed>4.811039388739195</speed>
  <fix>3d</fix>
</trkpt>
<trkpt lat="-35.2824286" lon="149.0050243">
  <ele>658.72</ele>
  <time>2026-09-01T19:59:37Z</time>
  <course>358.79</course>
  <speed>2.99</speed>
  <fix>3d</fix>
</trkpt>
<trkpt lat="-35.2824138" lon="149.0050243">
  <ele>658.65</ele>
  <time>2026-09-01T19:59:37Z</time>
  <course>357.83</course>
  <speed>5.424463107073362</speed>
  <fix>3d</fix>
</trkpt>
<trkpt lat="-35.2824221" lon="149.0050241">
  <ele>658.66</ele>
  <time>2026-09-01T19:59:37Z</time>
  <course>357.75</course>
  <speed>4.19</speed>
  <fix>3d</fix>
</trkpt>
<trkpt lat="-35.2824087" lon="149.0050239">
  <ele>658.64</ele>
  <time>2026-09-01T19:59:37Z</time>
  <course>356.94</course>
  <speed>6.030165835198897</speed>
  <fix>3d</fix>
</trkpt>
<trkpt lat="-35.2824221" lon="149.0050241">
  <ele>658.66</ele>
  <time>2026-09-01T19:59:37Z</time>
  <course>357.75</course>
  <speed>4.19</speed>
  <fix>3d</fix>
</trkpt>
<trkpt lat="-35.2824031" lon="149.0050232">
  <ele>658.64</ele>
  <time>2026-09-01T19:59:37Z</time>
  <course>355.83</course>
  <speed>6.631214066820645</speed>
  <fix>3d</fix>
</trkpt>
<trkpt lat="-35.2824135" lon="149.0050235">
  <ele>658.63</ele>
  <time>2026-09-01T19:59:37Z</time>
  <course>356.41</course>
  <speed>5.41</speed>
  <fix>3d</fix>
</trkpt>
<trkpt lat="-35.2823969" lon="149.0050224">
  <ele>658.63</ele>
  <time>2026-09-01T19:59:37Z</time>
  <course>354.79</course>
  <speed>7.245860887430837</speed>
  <fix>3d</fix>
</trkpt>
<trkpt lat="-35.2824135" lon="149.0050235">
  <ele>658.63</ele>
  <time>2026-09-01T19:59:37Z</time>
  <course>356.41</course>
  <speed>5.41</speed>
  <fix>3d</fix>
</trkpt>
<trkpt lat="-35.2823902" lon="149.0050213">
  <ele>658.63</ele>
  <time>2026-09-01T19:59:37Z</time>
  <course>353.84</course>
  <speed>7.847713042664086</speed>
  <fix>3d</fix>
</trkpt>
<trkpt lat="-35.2824027" lon="149.0050225">
  <ele>658.62</ele>
  <time>2026-09-01T19:59:37Z</time>
  <course>354.71</course>
  <speed>6.63</speed>
  <fix>3d</fix>
</trkpt>
<trkpt lat="-35.282383" lon="149.00502">
  <ele>658.64</ele>
  <time>2026-09-01T19:59:37Z</time>
  <course>352.68</course>
  <speed>8.445685288950802</speed>
  <fix>3d</fix>
</trkpt>
<trkpt lat="-35.2824027" lon="149.0050225">
  <ele>658.62</ele>
  <time>2026-09-01T19:59:37Z</time>
  <course>354.71</course>
  <speed>6.63</speed>
  <fix>3d</fix>
</trkpt>
<trkpt lat="-35.2823753" lon="149.0050185">
  <ele>658.64</ele>
  <time>2026-09-01T19:59:37Z</time>
  <course>351.51</course>
  <speed>9.051811973301257</speed>
  <fix>3d</fix>
</trkpt>
<trkpt lat="-35.2823898" lon="149.0050208">
  <ele>658.62</ele>
  <time>2026-09-01T19:59:37Z</time>
  <course>352.7</course>
  <speed>7.85</speed>
  <fix>3d</fix>
</trkpt>
<trkpt lat="-35.2823671" lon="149.0050166">
  <ele>658.64</ele>
  <time>2026-09-01T19:59:37Z</time>
  <course>350.32</course>
  <speed>9.647512632798156</speed>
  <fix>3d</fix>
</trkpt>
<trkpt lat="-35.2823898" lon="149.0050208">
  <ele>658.62</ele>
  <time>2026-09-01T19:59:37Z</time>
  <course>352.7</course>
  <speed>7.85</speed>
  <fix>3d</fix>
</trkpt>
<trkpt lat="-35.2823584" lon="149.0050144">
  <ele>658.65</ele>
  <time>2026-09-01T19:59:37Z</time>
  <course>349.12</course>
  <speed>10.236195582344058</speed>
  <fix>3d</fix>
</trkpt>
<trkpt lat="-35.2823747" lon="149.005018">
  <ele>658.63</ele>
  <time>2026-09-01T19:59:37Z</time>
  <course>350.4</course>
  <speed>9.06</speed>
  <fix>3d</fix>
</trkpt>
<trkpt lat="-35.2823492" lon="149.0050118">
  <ele>658.66</ele>
  <time>2026-09-01T19:59:37Z</time>
  <course>347.8</course>
  <speed>10.805563381888055</speed>
  <fix>3d</fix>
</trkpt>
<trkpt lat="-35.2823747" lon="149.005018">
  <ele>658.63</ele>
  <time>2026-09-01T19:59:37Z</time>
  <course>350.4</course>
  <speed>9.06</speed>
  <fix>3d</fix>
</trkpt>
<trkpt lat="-35.2823396" lon="149.0050088">
  <ele>658.68</ele>
  <time>2026-09-01T19:59:37Z</time>
  <course>346.44</course>
  <speed>11.349405270761988</speed>
  <fix>3d</fix>
</trkpt>
<trkpt lat="-35.2823577" lon="149.005014">
  <ele>658.65</ele>
  <time>2026-09-01T19:59:37Z</time>
  <course>347.86</course>
  <speed>10.24</speed>
  <fix>3d</fix>
</trkpt>
<trkpt lat="-35.2823296" lon="149.0050054">
  <ele>658.69</ele>
  <time>2026-09-01T19:59:37Z</time>
  <course>345.07</course>
  <speed>11.89840325421861</speed>
  <fix>3d</fix>
</trkpt>
<trkpt lat="-35.2823577" lon="149.005014">
  <ele>658.65</ele>
  <time>2026-09-01T19:59:37Z</time>
  <course>347.86</course>
  <speed>10.24</speed>
  <fix>3d</fix>
</trkpt>
<trkpt lat="-35.2823192" lon="149.0050014">
  <ele>658.72</ele>
  <time>2026-09-01T19:59:37Z</time>
  <course>343.55</course>
  <speed>12.42227837395379</speed>
  <fix>3d</fix>
</trkpt>
<trkpt lat="-35.2823388" lon="149.0050084">
  <ele>658.69</ele>
  <time>2026-09-01T19:59:37Z</time>
  <course>345.12</course>
  <speed>11.37</speed>
  <fix>3d</fix>
</trkpt>
<trkpt lat="-35.2823084" lon="149.004997">
  <ele>658.74</ele>
  <time>2026-09-01T19:59:37Z</time>
  <course>342.11</course>
  <speed>12.922368204009665</speed>
  <fix>3d</fix>
</trkpt>
<trkpt lat="-35.2823388" lon="149.0050084">
  <ele>658.69</ele>
  <time>2026-09-01T19:59:37Z</time>
  <course>345.12</course>
  <speed>11.37</speed>
  <fix>3d</fix>
</trkpt>
<trkpt lat="-35.2822974" lon="149.0049921">
  <ele>658.78</ele>
  <time>2026-09-01T19:59:37Z</time>
  <course>340.57</course>
  <speed>13.415293511511404</speed>
  <fix>3d</fix>
</trkpt>
<trkpt lat="-35.2823182" lon="149.005001">
  <ele>658.74</ele>
  <time>2026-09-01T19:59:37Z</time>
  <course>342.24</course>
  <speed>12.44</speed>
  <fix>3d</fix>
</trkpt>
<trkpt lat="-35.282286" lon="149.0049867">
  <ele>658.82</ele>
  <time>2026-09-01T19:59:37Z</time>
  <course>339.1</course>
  <speed>13.895844702644023</speed>
  <fix>3d</fix>
</trkpt>
<trkpt lat="-35.2823182" lon="149.005001">
  <ele>658.74</ele>
  <time>2026-09-01T19:59:37Z</time>
  <course>342.24</course>
  <speed>12.44</speed>
  <fix>3d</fix>
</trkpt>
<trkpt lat="-35.2822743" lon="149.0049807">
  <ele>658.86</ele>
  <time>2026-09-01T19:59:37Z</time>
  <course>337.68</course>
  <speed>14.366506186265331</speed>
  <fix>3d</fix>
</trkpt>
<trkpt lat="-35.2822963" lon="149.0049917">
  <ele>658.8</ele>
  <time>2026-09-01T19:59:37Z</time>
  <course>339.32</course>
  <speed>13.45</speed>
  <fix>3d</fix>
</trkpt>
<trkpt lat="-35.2822624" lon="149.0049741">
  <ele>658.9</ele>
  <time>2026-09-01T19:59:37Z</time>
  <course>336.32</course>
  <speed>14.822148967002052</speed>
  <fix>3d</fix>
</trkpt>
<trkpt lat="-35.2822963" lon="149.0049917">
  <ele>658.8</ele>
  <time>2026-09-01T19:59:37Z</time>
  <course>339.32</course>
  <speed>13.45</speed>
  <fix>3d</fix>
</trkpt>
<trkpt lat="-35.2822503" lon="149.004967">
  <ele>658.95</ele>
  <time>2026-09-01T19:59:37Z</time>
  <course>334.88</course>
  <speed>15.250131146977065</speed>
  <fix>3d</fix>
</trkpt>
<trkpt lat="-35.2822731" lon="149.0049801">
  <ele>658.88</ele>
  <time>2026-09-01T19:59:37Z</time>
  <course>336.45</course>
  <speed>14.41</speed>
  <fix>3d</fix>
</trkpt>
<trkpt lat="-35.2822379" lon="149.0049594">
  <ele>658.99</ele>
  <time>2026-09-01T19:59:37Z</time>
  <course>333.6</course>
  <speed>15.646315860291201</speed>
  <fix>3d</fix>
</trkpt>
<trkpt lat="-35.2822731" lon="149.0049801">
  <ele>658.88</ele>
  <time>2026-09-01T19:59:37Z</time>
  <course>336.45</course>
  <speed>14.41</speed>
  <fix>3d</fix>
</trkpt>
<trkpt lat="-35.2822254" lon="149.0049512">
  <ele>659.03</ele>
  <time>2026-09-01T19:59:37Z</time>
  <course>332.33</course>
  <speed>16.0010312167685</speed>
  <fix>3d</fix>
</trkpt>
<trkpt lat="-35.2822488" lon="149.0049662">
  <ele>658.97</ele>
  <time>2026-09-01T19:59:37Z</time>
  <course>333.68</course>
  <speed>15.29</speed>
  <fix>3d</fix>
</trkpt>
<trkpt lat="-35.2822128" lon="149.0049424">
  <ele>659.07</ele>
  <time>2026-09-01T19:59:37Z</time>
  <course>331.12</course>
  <speed>16.328331206831887</speed>
  <fix>3d</fix>
</trkpt>
<trkpt lat="-35.2822488" lon="149.0049662">
  <ele>658.97</ele>
  <time>2026-09-01T19:59:37Z</time>
  <course>333.68</course>
  <speed>15.29</speed>
  <fix>3d</fix>
</trkpt>
<trkpt lat="-35.2822001" lon="149.0049332">
  <ele>659.1</ele>
  <time>2026-09-01T19:59:37Z</time>
  <course>329.97</course>
  <speed>16.604878801123483</speed>
  <fix>3d</fix>
</trkpt>
<trkpt lat="-35.2822239" lon="149.0049502">
  <ele>659.06</ele>
  <time>2026-09-01T19:59:37Z</time>
  <course>331.08</course>
  <speed>16.06</speed>
  <fix>3d</fix>
</trkpt>
<trkpt lat="-35.2821873" lon="149.0049235">
  <ele>659.13</ele>
  <time>2026-09-01T19:59:37Z</time>
  <course>328.86</course>
  <speed>16.863288528635213</speed>
  <fix>3d</fix>
</trkpt>
<trkpt lat="-35.2822239" lon="149.0049502">
  <ele>659.06</ele>
  <time>2026-09-01T19:59:37Z</time>
  <course>331.08</course>
  <speed>16.06</speed>
  <fix>3d</fix>
</trkpt>
<trkpt lat="-35.2821746" lon="149.0049133">
  <ele>659.16</ele>
  <time>2026-09-01T19:59:37Z</time>
  <course>327.62</course>
  <speed>17.10422462434354</speed>
  <fix>3d</fix>
</trkpt>
<trkpt lat="-35.2821985" lon="149.0049321">
  <ele>659.13</ele>
  <time>2026-09-01T19:59:37Z</time>
  <course>328.6</course>
  <speed>16.67</speed>
  <fix>3d</fix>
</trkpt>
<trkpt lat="-35.2821618" lon="149.0049026">
  <ele>659.19</ele>
  <time>2026-09-01T19:59:37Z</time>
  <course>326.38</course>
  <speed>17.350530251263216</speed>
  <fix>3d</fix>
</trkpt>
<trkpt lat="-35.2821985" lon="149.0049321">
  <ele>659.13</ele>
  <time>2026-09-01T19:59:37Z</time>
  <course>328.6</course>
  <speed>16.67</speed>
  <fix>3d</fix>
</trkpt>
<trkpt lat="-35.2821491" lon="149.0048914">
  <ele>659.22</ele>
  <time>2026-09-01T19:59:37Z</time>
  <course>325.18</course>
  <speed>17.582860973118112</speed>
  <fix>3d</fix>
</trkpt>
<trkpt lat="-35.2821728" lon="149.004912">
  <ele>659.19</ele>
  <time>2026-09-01T19:59:37Z</time>
  <course>326.13</course>
  <speed>17.18</speed>
  <fix>3d</fix>
</trkpt>
<trkpt lat="-35.2821363" lon="149.0048798">
  <ele>659.25</ele>
  <time>2026-09-01T19:59:37Z</time>
  <course>323.98</course>
  <speed>17.813309630722753</speed>
  <fix>3d</fix>
</trkpt>
<trkpt lat="-35.2821728" lon="149.004912">
  <ele>659.19</ele>
  <time>2026-09-01T19:59:37Z</time>
  <course>326.13</course>
  <speed>17.18</speed>
  <fix>3d</fix>
</trkpt>
<trkpt lat="-35.2821236" lon="149.0048676">
  <ele>659.28</ele>
  <time>2026-09-01T19:59:37Z</time>
  <course>322.8</course>
  <speed>18.045910894161036</speed>
  <fix>3d</fix>
</trkpt>
<trkpt lat="-35.2821472" lon="149.00489">
  <ele>659.26</ele>
  <time>2026-09-01T19:59:37Z</time>
  <course>323.63</course>
  <speed>17.66</speed>
  <fix>3d</fix>
</trkpt>
<trkpt lat="-35.282111" lon="149.0048549">
  <ele>659.31</ele>
  <time>2026-09-01T19:59:37Z</time>
  <course>321.63</course>
  <speed>18.26971811495733</speed>
  <fix>3d</fix>
</trkpt>
<trkpt lat="-35.2821472" lon="149.00489">
  <ele>659.26</ele>
  <time>2026-09-01T19:59:37Z</time>
  <course>323.63</course>
  <speed>17.66</speed>
  <fix>3d</fix>
</trkpt>
<trkpt lat="-35.2820986" lon="149.0048419">
  <ele>659.34</ele>
  <time>2026-09-01T19:59:37Z</time>
  <course>320.42</course>
  <speed>18.487998810038906</speed>
  <fix>3d</fix>
</trkpt>
<trkpt lat="-35.2821218" lon="149.004866">
  <ele>659.32</ele>
  <time>2026-09-01T19:59:37Z</time>
  <course>321.15</course>
  <speed>18.12</speed>
  <fix>3d</fix>
</trkpt>
<trkpt lat="-35.2820861" lon="149.0048283">
  <ele>659.37</ele>
  <time>2026-09-01T19:59:37Z</time>
  <course>319.08</course>
  <speed>18.699759356740397</speed>
  <fix>3d</fix>
</trkpt>
<trkpt lat="-35.2821218" lon="149.004866">
  <ele>659.32</ele>
  <time>2026-09-01T19:59:37Z</time>
  <course>321.15</course>
  <speed>18.12</speed>
  <fix>3d</fix>
</trkpt>
<trkpt lat="-35.2820737" lon="149.0048141">
  <ele>659.39</ele>
  <time>2026-09-01T19:59:37Z</time>
  <course>317.79</course>
  <speed>18.912482650355557</speed>
  <fix>3d</fix>
</trkpt>
<trkpt lat="-35.2820966" lon="149.00484">
  <ele>659.38</ele>
  <time>2026-09-01T19:59:37Z</time>
  <course>318.68</course>
  <speed>18.57</speed>
  <fix>3d</fix>
</trkpt>
<trkpt lat="-35.2820615" lon="149.0047995">
  <ele>659.41</ele>
  <time>2026-09-01T19:59:37Z</time>
  <course>316.63</course>
  <speed>19.120167363284246</speed>
  <fix>3d</fix>
</trkpt>
<trkpt lat="-35.2820966" lon="149.00484">
  <ele>659.38</ele>
  <time>2026-09-01T19:59:37Z</time>
  <course>318.68</course>
  <speed>18.57</speed>
  <fix>3d</fix>
</trkpt>
<trkpt lat="-35.2820492" lon="149.0047841">
  <ele>659.43</ele>
  <time>2026-09-01T19:59:37Z</time>
  <course>315.48</course>
  <speed>19.315902774656948</speed>
  <fix>3d</fix>
</trkpt>
<trkpt lat="-35.2820717" lon="149.004812">
  <ele>659.43</ele>
  <time>2026-09-01T19:59:37Z</time>
  <course>316.18</course>
  <speed>18.99</speed>
  <fix>3d</fix>
</trkpt>
<trkpt lat="-35.2820372" lon="149.0047685">
  <ele>659.45</ele>
  <time>2026-09-01T19:59:37Z</time>
  <course>314.4</course>
  <speed>19.513085353167497</speed>
  <fix>3d</fix>
</trkpt>
<trkpt lat="-35.2820717" lon="149.004812">
  <ele>659.43</ele>
  <time>2026-09-01T19:59:37Z</time>
  <course>316.18</course>
  <speed>18.99</speed>
  <fix>3d</fix>
</trkpt>
<trkpt lat="-35.2820254" lon="149.0047525">
  <ele>659.46</ele>
  <time>2026-09-01T19:59:37Z</time>
  <course>313.31</course>
  <speed>19.712843529029495</speed>
  <fix>3d</fix>
</trkpt>
<trkpt lat="-35.2820473" lon="149.0047821">
  <ele>659.47</ele>
  <time>2026-09-01T19:59:37Z</time>
  <course>313.7</course>
  <speed>19.4</speed>
  <fix>3d</fix>
</trkpt>
<trkpt lat="-35.2820138" lon="149.004736">
  <ele>659.48</ele>
  <time>2026-09-01T19:59:37Z</time>
  <course>312.21</course>
  <speed>19.898567787657484</speed>
  <fix>3d</fix>
</trkpt>
<trkpt lat="-35.2820473" lon="149.0047821">
  <ele>659.47</ele>
  <time>2026-09-01T19:59:37Z</time>
  <course>313.7</course>
  <speed>19.4</speed>
  <fix>3d</fix>
</trkpt>
<trkpt lat="-35.2820023" lon="149.004719">
  <ele>659.49</ele>
  <time>2026-09-01T19:59:37Z</time>
  <course>311.16</course>
  <speed>20.084384481482125</speed>
  <fix>3d</fix>
</trkpt>
<trkpt lat="-35.2820235" lon="149.0047502">
  <ele>659.5</ele>
  <time>2026-09-01T19:59:37Z</time>
  <course>311.28</course>
  <speed>19.78</speed>
  <fix>3d</fix>
</trkpt>
<trkpt lat="-35.2819909" lon="149.0047016">
  <ele>659.49</ele>
  <time>2026-09-01T19:59:37Z</time>
  <course>310.14</course>
  <speed>20.26971386083188</speed>
  <fix>3d</fix>
</trkpt>
<trkpt lat="-35.2820235" lon="149.0047502">
  <ele>659.5</ele>
  <time>2026-09-01T19:59:37Z</time>
  <course>311.28</course>
  <speed>19.78</speed>
  <fix>3d</fix>
</trkpt>
<trkpt lat="-35.2819797" lon="149.0046838">
  <ele>659.49</ele>
  <time>2026-09-01T19:59:37Z</time>
  <course>309.2</course>
  <speed>20.45203168391835</speed>
  <fix>3d</fix>
</trkpt>
<trkpt lat="-35.2820004" lon="149.0047165">
  <ele>659.53</ele>
  <time>2026-09-01T19:59:37Z</time>
  <course>309.0</course>
  <speed>20.16</speed>
  <fix>3d</fix>
</trkpt>
<trkpt lat="-35.2819687" lon="149.0046657">
  <ele>659.49</ele>
  <time>2026-09-01T19:59:37Z</time>
  <course>308.27</course>
  <speed>20.638209709177783</speed>
  <fix>3d</fix>
</trkpt>
<trkpt lat="-35.2820004" lon="149.0047165">
  <ele>659.53</ele>
  <time>2026-09-01T19:59:37Z</time>
  <course>309.0</course>
  <speed>20.16</speed>
  <fix>3d</fix>
</trkpt>
<trkpt lat="-35.2819578" lon="149.0046471">
  <ele>659.48</ele>
  <time>2026-09-01T19:59:37Z</time>
  <course>307.41</course>
  <speed>20.81347640352279</speed>
  <fix>3d</fix>
</trkpt>
<trkpt lat="-35.2819779" lon="149.0046812">
  <ele>659.54</ele>
  <time>2026-09-01T19:59:37Z</time>
  <course>306.93</course>
  <speed>20.53</speed>
  <fix>3d</fix>
</trkpt>
<trkpt lat="-35.2819471" lon="149.0046282">
  <ele>659.46</ele>
  <time>2026-09-01T19:59:37Z</time>
  <course>306.59</course>
  <speed>20.996694978019754</speed>
  <fix>3d</fix>
</trkpt>
<trkpt lat="-35.2819779" lon="149.0046812">
  <ele>659.54</ele>
  <time>2026-09-01T19:59:37Z</time>
  <course>306.93</course>
  <speed>20.53</speed>
  <fix>3d</fix>
</trkpt>
<trkpt lat="-35.2819365" lon="149.0046089">
  <ele>659.44</ele>
  <time>2026-09-01T19:59:37Z</time>
  <course>305.81</course>
  <speed>21.175752643058523</speed>
  <fix>3d</fix>
</trkpt>
<trkpt lat="-35.2819561" lon="149.0046444">
  <ele>659.53</ele>
  <time>2026-09-01T19:59:37Z</time>
  <course>305.08</course>
  <speed>20.88</speed>
  <fix>3d</fix>
</trkpt>
<trkpt lat="-35.281926" lon="149.0045893">
  <ele>659.4</ele>
  <time>2026-09-01T19:59:37Z</time>
  <course>305.04</course>
  <speed>21.347330043825153</speed>
  <fix>3d</fix>
</trkpt>
<trkpt lat="-35.2819561" lon="149.0046444">
  <ele>659.53</ele>
  <time>2026-09-01T19:59:37Z</time>
  <course>305.08</course>
  <speed>20.88</speed>
  <fix>3d</fix>
</trkpt>
<trkpt lat="-35.2819156" lon="149.0045694">
  <ele>659.35</ele>
  <time>2026-09-01T19:59:37Z</time>
  <course>304.31</course>
  <speed>21.522232690871082</speed>
  <fix>3d</fix>
</trkpt>
<trkpt lat="-35.2819348" lon="149.0046061">
  <ele>659.49</ele>
  <time>2026-09-01T19:59:37Z</time>
  <course>303.44</course>
  <speed>21.24</speed>
  <fix>3d</fix>
</trkpt>
<trkpt lat="-35.2819054" lon="149.0045491">
  <ele>659.3</ele>
  <time>2026-09-01T19:59:37Z</time>
  <course>303.57</course>
  <speed>21.69706201309292</speed>
  <fix>3d</fix>
</trkpt>
<trkpt lat="-35.2819348" lon="149.0046061">
  <ele>659.49</ele>
  <time>2026-09-01T19:59:37Z</time>
  <course>303.44</course>
  <speed>21.24</speed>
  <fix>3d</fix>
</trkpt>
<trkpt lat="-35.2818952" lon="149.0045286">
  <ele>659.24</ele>
  <time>2026-09-01T19:59:37Z</time>
  <course>302.91</course>
  <speed>21.871271110751653</speed>
  <fix>3d</fix>
</trkpt>
<trkpt lat="-35.281914" lon="149.0045664">
  <ele>659.42</ele>
  <time>2026-09-01T19:59:37Z</time>
  <course>302.01</course>
  <speed>21.58</speed>
  <fix>3d</fix>
</trkpt>
<trkpt lat="-35.2818852" lon="149.0045078">
  <ele>659.17</ele>
  <time>2026-09-01T19:59:37Z</time>
  <course>302.3</course>
  <speed>22.03931940872948</speed>
  <fix>3d</fix>
</trkpt>
<trkpt lat="-35.281914" lon="149.0045664">
  <ele>659.42</ele>
  <time>2026-09-01T19:59:37Z</time>
  <course>302.01</course>
  <speed>21.58</speed>
  <fix>3d</fix>
</trkpt>
<trkpt lat="-35.2818752" lon="149.0044866">
  <ele>659.09</ele>
  <time>2026-09-01T19:59:37Z</time>
  <course>301.69</course>
  <speed>22.205947401540875</speed>
  <fix>3d</fix>
</trkpt>
<trkpt lat="-35.2818936" lon="149.0045255">
  <ele>659.31</ele>
  <time>2026-09-01T19:59:37Z</time>
  <course>300.73</course>
  <speed>21.93</speed>
  <fix>3d</fix>
</trkpt>
<trkpt lat="-35.2818654" lon="149.0044654">
  <ele>659.01</ele>
  <time>2026-09-01T19:59:37Z</time>
  <course>301.11</course>
  <speed>22.37944816120362</speed>
  <fix>3d</fix>
</trkpt>
<trkpt lat="-35.2818936" lon="149.0045255">
  <ele>659.31</ele>
  <time>2026-09-01T19:59:37Z</time>
  <course>300.73</course>
  <speed>21.93</speed>
  <fix>3d</fix>
</trkpt>
<trkpt lat="-35.2818557" lon="149.0044438">
  <ele>658.92</ele>
  <time>2026-09-01T19:59:37Z</time>
  <course>300.53</course>
  <speed>22.545970815203322</speed>
  <fix>3d</fix>
</trkpt>
<trkpt lat="-35.2818737" lon="149.0044835">
  <ele>659.17</ele>
  <time>2026-09-01T19:59:37Z</time>
  <course>299.58</course>
  <speed>22.27</speed>
  <fix>3d</fix>
</trkpt>
<trkpt lat="-35.281846" lon="149.0044218">
  <ele>658.83</ele>
  <time>2026-09-01T19:59:37Z</time>
  <course>299.97</course>
  <speed>22.71007926009947</speed>
  <fix>3d</fix>
</trkpt>
<trkpt lat="-35.2818737" lon="149.0044835">
  <ele>659.17</ele>
  <time>2026-09-01T19:59:37Z</time>
  <course>299.58</course>
  <speed>22.27</speed>
  <fix>3d</fix>
</trkpt>
<trkpt lat="-35.2818363" lon="149.0043997">
  <ele>658.74</ele>
  <time>2026-09-01T19:59:37Z</time>
  <course>299.42</course>
  <speed>22.880264421548976</speed>
  <fix>3d</fix>
</trkpt>
<trkpt lat="-35.2818542" lon="149.0044403">
  <ele>659.0</ele>
  <time>2026-09-01T19:59:37Z</time>
  <course>298.56</course>
  <speed>22.6</speed>
  <fix>3d</fix>
</trkpt>
<trkpt lat="-35.2818267" lon="149.004377">
  <ele>658.64</ele>
  <time>2026-09-01T19:59:37Z</time>
  <course>298.91</course>
  <speed>23.038222587691095</speed>
  <fix>3d</fix>
</trkpt>
<trkpt lat="-35.2818542" lon="149.0044403">
  <ele>659.0</ele>
  <time>2026-09-01T19:59:37Z</time>
  <course>298.56</course>
  <speed>22.6</speed>
  <fix>3d</fix>
</trkpt>
<trkpt lat="-35.2818172" lon="149.0043544">
  <ele>658.55</ele>
  <time>2026-09-01T19:59:37Z</time>
  <course>298.43</course>
  <speed>23.206535717336184</speed>
  <fix>3d</fix>
</trkpt>
<trkpt lat="-35.2818349" lon="149.0043961">
  <ele>658.82</ele>
  <time>2026-09-01T19:59:37Z</time>
  <course>297.66</course>
  <speed>22.93</speed>
  <fix>3d</fix>
</trkpt>
<trkpt lat="-35.2818078" lon="149.0043315">
  <ele>658.45</ele>
  <time>2026-09-01T19:59:37Z</time>
  <course>298.02</course>
  <speed>23.35798150525854</speed>
  <fix>3d</fix>
</trkpt>
<trkpt lat="-35.2818349" lon="149.0043961">
  <ele>658.82</ele>
  <time>2026-09-01T19:59:37Z</time>
  <course>297.66</course>
  <speed>22.93</speed>
  <fix>3d</fix>
</trkpt>
<trkpt lat="-35.2817984" lon="149.0043083">
  <ele>658.36</ele>
  <time>2026-09-01T19:59:37Z</time>
  <course>297.64</course>
  <speed>23.51030625066377</speed>
  <fix>3d</fix>
</trkpt>
<trkpt lat="-35.2818159" lon="149.004351">
  <ele>658.64</ele>
  <time>2026-09-01T19:59:37Z</time>
  <course>296.85</course>
  <speed>23.25</speed>
  <fix>3d</fix>
</trkpt>
<trkpt lat="-35.2817891" lon="149.004285">
  <ele>658.26</ele>
  <time>2026-09-01T19:59:37Z</time>
  <course>297.23</course>
  <speed>23.658877826304444</speed>
  <fix>3d</fix>
</trkpt>
<trkpt lat="-35.2818159" lon="149.004351">
  <ele>658.64</ele>
  <time>2026-09-01T19:59:37Z</time>
  <course>296.85</course>
  <speed>23.25</speed>
  <fix>3d</fix>
</trkpt>
<trkpt lat="-35.2817798" lon="149.0042615">
  <ele>658.17</ele>
  <time>2026-09-01T19:59:37Z</time>
  <course>296.92</course>
  <speed>23.803464033623342</speed>
  <fix>3d</fix>
</trkpt>
<trkpt lat="-35.2817971" lon="149.0043048">
  <ele>658.45</ele>
  <time>2026-09-01T19:59:37Z</time>
  <course>296.15</course>
  <speed>23.55</speed>
  <fix>3d</fix>
</trkpt>
<trkpt lat="-35.2817704" lon="149.0042375">
  <ele>658.08</ele>
  <time>2026-09-01T19:59:37Z</time>
  <course>296.67</course>
  <speed>23.94386142626122</speed>
  <fix>3d</fix>
</trkpt>
<trkpt lat="-35.2817971" lon="149.0043048">
  <ele>658.45</ele>
  <time>2026-09-01T19:59:37Z</time>
  <course>296.15</course>
  <speed>23.55</speed>
  <fix>3d</fix>
</trkpt>
<trkpt lat="-35.2817612" lon="149.0042136">
  <ele>657.99</ele>
  <time>2026-09-01T19:59:37Z</time>
  <course>296.44</course>
  <speed>24.08893937059081</speed>
  <fix>3d</fix>
</trkpt>
<trkpt lat="-35.2817785" lon="149.0042578">
  <ele>658.28</ele>
  <time>2026-09-01T19:59:37Z</time>
  <course>295.58</course>
  <speed>23.85</speed>
  <fix>3d</fix>
</trkpt>
<trkpt lat="-35.281752" lon="149.0041895">
  <ele>657.9</ele>
  <time>2026-09-01T19:59:37Z</time>
  <course>296.19</course>
  <speed>24.21623628890336</speed>
  <fix>3d</fix>
</trkpt>
<trkpt lat="-35.2817785" lon="149.0042578">
  <ele>658.28</ele>
  <time>2026-09-01T19:59:37Z</time>
  <course>295.58</course>
  <speed>23.85</speed>
  <fix>3d</fix>
</trkpt>
<trkpt lat="-35.2817428" lon="149.0041652">
  <ele>657.81</ele>
  <time>2026-09-01T19:59:37Z</time>
  <course>295.94</course>
  <speed>24.352219611361917</speed>
  <fix>3d</fix>
</trkpt>
<trkpt lat="-35.2817601" lon="149.0042101">
  <ele>658.1</ele>
  <time>2026-09-01T19:59:37Z</time>
  <course>295.12</course>
  <speed>24.12</speed>
  <fix>3d</fix>
</trkpt>
<trkpt lat="-35.2817336" lon="149.0041407">
  <ele>657.73</ele>
  <time>2026-09-01T19:59:37Z</time>
  <course>295.7</course>
  <speed>24.48418264921253</speed>
  <fix>3d</fix>
</trkpt>
<trkpt lat="-35.2817601" lon="149.0042101">
  <ele>658.1</ele>
  <time>2026-09-01T19:59:37Z</time>
  <course>295.12</course>
  <speed>24.12</speed>
  <fix>3d</fix>
</trkpt>
<trkpt lat="-35.2817244" lon="149.0041161">
  <ele>657.64</ele>
  <time>2026-09-01T19:59:37Z</time>
  <course>295.5</course>
  <speed>24.620513804549248</speed>
  <fix>3d</fix>
</trkpt>
<trkpt lat="-35.2817417" lon="149.0041617">
  <ele>657.93</ele>
  <time>2026-09-01T19:59:37Z</time>
  <course>294.75</course>
  <speed>24.39</speed>
  <fix>3d</fix>
</trkpt>
<trkpt lat="-35.2817152" lon="149.0040913">
  <ele>657.55</ele>
  <time>2026-09-01T19:59:37Z</time>
  <course>295.31</course>
  <speed>24.742936365759014</speed>
  <fix>3d</fix>
</trkpt>
<trkpt lat="-35.2817417" lon="149.0041617">
  <ele>657.93</ele>
  <time>2026-09-01T19:59:37Z</time>
  <course>294.75</course>
  <speed>24.39</speed>
  <fix>3d</fix>
</trkpt>
<trkpt lat="-35.281706" lon="149.0040663">
  <ele>657.46</ele>
  <time>2026-09-01T19:59:37Z</time>
  <course>295.11</course>
  <speed>24.874549242147083</speed>
  <fix>3d</fix>
</trkpt>
<trkpt lat="-35.2817233" lon="149.0041127">
  <ele>657.76</ele>
  <time>2026-09-01T19:59:37Z</time>
  <course>294.47</course>
  <speed>24.64</speed>
  <fix>3d</fix>
</trkpt>
<trkpt lat="-35.2816967" lon="149.0040413">
  <ele>657.37</ele>
  <time>2026-09-01T19:59:37Z</time>
  <course>295.01</course>
  <speed>24.997139836389284</speed>
  <fix>3d</fix>
</trkpt>
<trkpt lat="-35.2817233" lon="149.0041127">
  <ele>657.76</ele>
  <time>2026-09-01T19:59:37Z</time>
  <course>294.47</course>
  <speed>24.64</speed>
  <fix>3d</fix>
</trkpt>
<trkpt lat="-35.2816875" lon="149.004016">
  <ele>657.29</ele>
  <time>2026-09-01T19:59:37Z</time>
  <course>294.98</course>
  <speed>25.12390296112449</speed>
  <fix>3d</fix>
</trkpt>
<trkpt lat="-35.281705" lon="149.0040629">
  <ele>657.59</ele>
  <time>2026-09-01T19:59:37Z</time>
  <course>294.25</course>
  <speed>24.89</speed>
  <fix>3d</fix>
</trkpt>
<trkpt lat="-35.2816783" lon="149.0039907">
  <ele>657.2</ele>
  <time>2026-09-01T19:59:37Z</time>
  <course>294.9</course>
  <speed>25.23245925390547</speed>
  <fix>3d</fix>
</trkpt>
<trkpt lat="-35.281705" lon="149.0040629">
  <ele>657.59</ele>
  <time>2026-09-01T19:59:37Z</time>
  <course>294.25</course>
  <speed>24.89</speed>
  <fix>3d</fix>
</trkpt>
<trkpt lat="-35.2816691" lon="149.0039654">
  <ele>657.11</ele>
  <time>2026-09-01T19:59:37Z</time>
  <course>294.83</course>
  <speed>25.313652442901244</speed>
  <fix>3d</fix>
</trkpt>
<trkpt lat="-35.2816866" lon="149.0040127">
  <ele>657.42</ele>
  <time>2026-09-01T19:59:37Z</time>
  <course>294.09</course>
  <speed>25.13</speed>
  <fix>3d</fix>
</trkpt>
<trkpt lat="-35.2816598" lon="149.0039399">
  <ele>657.02</ele>
  <time>2026-09-01T19:59:37Z</time>
  <course>294.73</course>
  <speed>25.363383055105245</speed>
  <fix>3d</fix>
</trkpt>
<trkpt lat="-35.2816866" lon="149.0040127">
  <ele>657.42</ele>
  <time>2026-09-01T19:59:37Z</time>
  <course>294.09</course>
  <speed>25.13</speed>
  <fix>3d</fix>
</trkpt>
<trkpt lat="-35.2816505" lon="149.0039144">
  <ele>656.94</ele>
  <time>2026-09-01T19:59:37Z</time>
  <course>294.6</course>
  <speed>25.377574746220333</speed>
  <fix>3d</fix>
</trkpt>
<trkpt lat="-35.2816681" lon="149.003962">
  <ele>657.25</ele>
  <time>2026-09-01T19:59:37Z</time>
  <course>293.99</course>
  <speed>25.31</speed>
  <fix>3d</fix>
</trkpt>
<trkpt lat="-35.2816413" lon="149.0038888">
  <ele>656.85</ele>
  <time>2026-09-01T19:59:37Z</time>
  <course>294.54</course>
  <speed>25.39584414820661</speed>
  <fix>3d</fix>
</trkpt>
<trkpt lat="-35.2816681" lon="149.003962">
  <ele>657.25</ele>
  <time>2026-09-01T19:59:37Z</time>
  <course>293.99</course>
  <speed>25.31</speed>
  <fix>3d</fix>
</trkpt>
<trkpt lat="-35.2816319" lon="149.003863">
  <ele>656.75</ele>
  <time>2026-09-01T19:59:37Z</time>
  <course>294.54</course>
  <speed>25.40497982679774</speed>
  <fix>3d</fix>
</trkpt>
<trkpt lat="-35.2816496" lon="149.003911">
  <ele>657.07</ele>
  <time>2026-09-01T19:59:37Z</time>
  <course>293.94</course>
  <speed>25.39</speed>
  <fix>3d</fix>
</trkpt>
<trkpt lat="-35.2816227" lon="149.0038374">
  <ele>656.65</ele>
  <time>2026-09-01T19:59:37Z</time>
  <course>294.51</course>
  <speed>25.423253135663025</speed>
  <fix>3d</fix>
</trkpt>
<trkpt lat="-35.2816496" lon="149.003911">
  <ele>657.07</ele>
  <time>2026-09-01T19:59:37Z</time>
  <course>293.94</course>
  <speed>25.39</speed>
  <fix>3d</fix>
</trkpt>
<trkpt lat="-35.2816134" lon="149.0038117">
  <ele>656.55</ele>
  <time>2026-09-01T19:59:37Z</time>
  <course>294.46</course>
  <speed>25.4364541554046</speed>
  <fix>3d</fix>
</trkpt>
<trkpt lat="-35.2816311" lon="149.00386">
  <ele>656.89</ele>
  <time>2026-09-01T19:59:37Z</time>
  <course>293.91</course>
  <speed>25.42</speed>
  <fix>3d</fix>
</trkpt>
<trkpt lat="-35.2816041" lon="149.0037861">
  <ele>656.44</ele>
  <time>2026-09-01T19:59:37Z</time>
  <course>294.49</course>
  <speed>25.458792194446303</speed>
  <fix>3d</fix>
</trkpt>
<trkpt lat="-35.2816311" lon="149.00386">
  <ele>656.89</ele>
  <time>2026-09-01T19:59:37Z</time>
  <course>293.91</course>
  <speed>25.42</speed>
  <fix>3d</fix>
</trkpt>
<trkpt lat="-35.2815948" lon="149.0037605">
  <ele>656.32</ele>
  <time>2026-09-01T19:59:37Z</time>
  <course>294.49</course>
  <speed>25.48113027320413</speed>
  <fix>3d</fix>
</trkpt>
<trkpt lat="-35.2816126" lon="149.0038088">
  <ele>656.68</ele>
  <time>2026-09-01T19:59:37Z</time>
  <course>293.91</course>
  <speed>25.44</speed>
  <fix>3d</fix>
</trkpt>
<trkpt lat="-35.2815855" lon="149.0037348">
  <ele>656.19</ele>
  <time>2026-09-01T19:59:37Z</time>
  <course>294.47</course>
  <speed>25.507536141305376</speed>
  <fix>3d</fix>
</trkpt>
<trkpt lat="-35.2816126" lon="149.0038088">
  <ele>656.68</ele>
  <time>2026-09-01T19:59:37Z</time>
  <course>293.91</course>
  <speed>25.44</speed>
  <fix>3d</fix>
</trkpt>
<trkpt lat="-35.2815762" lon="149.0037091">
  <ele>656.05</ele>
  <time>2026-09-01T19:59:37Z</time>
  <course>294.42</course>
  <speed>25.543079297531843</speed>
  <fix>3d</fix>
</trkpt>
<trkpt lat="-35.281594" lon="149.0037574">
  <ele>656.44</ele>
  <time>2026-09-01T19:59:37Z</time>
  <course>293.93</course>
  <speed>25.48</speed>
  <fix>3d</fix>
</trkpt>
<trkpt lat="-35.2815669" lon="149.0036834">
  <ele>655.91</ele>
  <time>2026-09-01T19:59:37Z</time>
  <course>294.43</course>
  <speed>25.57862388792642</speed>
  <fix>3d</fix>
</trkpt>
<trkpt lat="-35.281594" lon="149.0037574">
  <ele>656.44</ele>
  <time>2026-09-01T19:59:37Z</time>
  <course>293.93</course>
  <speed>25.48</speed>
  <fix>3d</fix>
</trkpt>
<trkpt lat="-35.2815575" lon="149.0036577">
  <ele>655.76</ele>
  <time>2026-09-01T19:59:37Z</time>
  <course>294.45</course>
  <speed>25.61416990651854</speed>
  <fix>3d</fix>
</trkpt>
<trkpt lat="-35.2815753" lon="149.0037061">
  <ele>656.18</ele>
  <time>2026-09-01T19:59:37Z</time>
  <course>293.97</course>
  <speed>25.54</speed>
  <fix>3d</fix>
</trkpt>
<trkpt lat="-35.2815482" lon="149.0036319">
  <ele>655.59</ele>
  <time>2026-09-01T19:59:37Z</time>
  <course>294.44</course>
  <speed>25.649717347370515</speed>
  <fix>3d</fix>
</trkpt>
<trkpt lat="-35.2815753" lon="149.0037061">
  <ele>656.18</ele>
  <time>2026-09-01T19:59:37Z</time>
  <course>293.97</course>
  <speed>25.54</speed>
  <fix>3d</fix>
</trkpt>
<trkpt lat="-35.2815388" lon="149.0036061">
  <ele>655.38</ele>
  <time>2026-09-01T19:59:37Z</time>
  <course>294.45</course>
  <speed>25.698476608546276</speed>
  <fix>3d</fix>
</trkpt>
<trkpt lat="-35.2815567" lon="149.0036547">
  <ele>655.89</ele>
  <time>2026-09-01T19:59:37Z</time>
  <course>294.0</course>
  <speed>25.61</speed>
  <fix>3d</fix>
</trkpt>
<trkpt lat="-35.2815293" lon="149.0035802">
  <ele>655.14</ele>
  <time>2026-09-01T19:59:37Z</time>
  <course>294.45</course>
  <speed>25.7645434657787</speed>
  <fix>3d</fix>
</trkpt>
<trkpt lat="-35.2815567" lon="149.0036547">
  <ele>655.89</ele>
  <time>2026-09-01T19:59:37Z</time>
  <course>294.0</course>
  <speed>25.61</speed>
  <fix>3d</fix>
</trkpt>
<trkpt lat="-35.2815199" lon="149.0035542">
  <ele>654.9</ele>
  <time>2026-09-01T19:59:37Z</time>
  <course>294.45</course>
  <speed>25.844782839095398</speed>
  <fix>3d</fix>
</trkpt>
<trkpt lat="-35.281538" lon="149.0036031">
  <ele>655.51</ele>
  <time>2026-09-01T19:59:37Z</time>
  <course>294.05</course>
  <speed>25.71</speed>
  <fix>3d</fix>
</trkpt>
<trkpt lat="-35.2815103" lon="149.003528">
  <ele>654.66</ele>
  <time>2026-09-01T19:59:37Z</time>
  <course>294.49</course>
  <speed>25.93414737368476</speed>
  <fix>3d</fix>
</trkpt>
<trkpt lat="-35.281538" lon="149.0036031">
  <ele>655.51</ele>
  <time>2026-09-01T19:59:37Z</time>
  <course>294.05</course>
  <speed>25.71</speed>
  <fix>3d</fix>
</trkpt>
<trkpt lat="-35.2815007" lon="149.0035019">
  <ele>654.42</ele>
  <time>2026-09-01T19:59:37Z</time>
  <course>294.54</course>
  <speed>26.018489579527863</speed>
  <fix>3d</fix>
</trkpt>
<trkpt lat="-35.2815191" lon="149.0035513">
  <ele>655.04</ele>
  <time>2026-09-01T19:59:37Z</time>
  <course>294.12</course>
  <speed>25.85</speed>
  <fix>3d</fix>
</trkpt>
<trkpt lat="-35.2814912" lon="149.0034757">
  <ele>654.18</ele>
  <time>2026-09-01T19:59:37Z</time>
  <course>294.64</course>
  <speed>26.11196086087753</speed>
  <fix>3d</fix>
</trkpt>
<trkpt lat="-35.2815191" lon="149.0035513">
  <ele>655.04</ele>
  <time>2026-09-01T19:59:37Z</time>
  <course>294.12</course>
  <speed>25.85</speed>
  <fix>3d</fix>
</trkpt>
<trkpt lat="-35.2814815" lon="149.0034495">
  <ele>653.96</ele>
  <time>2026-09-01T19:59:37Z</time>
  <course>294.76</course>
  <speed>26.20954978628973</speed>
  <fix>3d</fix>
</trkpt>
<trkpt lat="-35.2814999" lon="149.0034992">
  <ele>654.56</ele>
  <time>2026-09-01T19:59:37Z</time>
  <course>294.18</course>
  <speed>26.02</speed>
  <fix>3d</fix>
</trkpt>
<trkpt lat="-35.2814719" lon="149.0034233">
  <ele>653.75</ele>
  <time>2026-09-01T19:59:37Z</time>
  <course>294.76</course>
  <speed>26.298045554755586</speed>
  <fix>3d</fix>
</trkpt>
<trkpt lat="-35.2814999" lon="149.0034992">
  <ele>654.56</ele>
  <time>2026-09-01T19:59:37Z</time>
  <course>294.18</course>
  <speed>26.02</speed>
  <fix>3d</fix>
</trkpt>
<trkpt lat="-35.2814621" lon="149.0033969">
  <ele>653.56</ele>
  <time>2026-09-01T19:59:37Z</time>
  <course>294.76</course>
  <speed>26.382437340018456</speed>
  <fix>3d</fix>
</trkpt>
<trkpt lat="-35.2814807" lon="149.0034469">
  <ele>654.12</ele>
  <time>2026-09-01T19:59:37Z</time>
  <course>294.26</course>
  <speed>26.2</speed>
  <fix>3d</fix>
</trkpt>
<trkpt lat="-35.2814523" lon="149.0033703">
  <ele>653.37</ele>
  <time>2026-09-01T19:59:37Z</time>
  <course>294.77</course>
  <speed>26.475945686603904</speed>
  <fix>3d</fix>
</trkpt>
<trkpt lat="-35.2814807" lon="149.0034469">
  <ele>654.12</ele>
  <time>2026-09-01T19:59:37Z</time>
  <course>294.26</course>
  <speed>26.2</speed>
  <fix>3d</fix>
</trkpt>
<trkpt lat="-35.2814425" lon="149.0033437">
  <ele>653.2</ele>
  <time>2026-09-01T19:59:37Z</time>
  <course>294.83</course>
  <speed>26.55125232451381</speed>
  <fix>3d</fix>
</trkpt>
<trkpt lat="-35.2814612" lon="149.0033942">
  <ele>653.72</ele>
  <time>2026-09-01T19:59:37Z</time>
  <course>294.35</course>
  <speed>26.38</speed>
  <fix>3d</fix>
</trkpt>
<trkpt lat="-35.2814325" lon="149.0033168">
  <ele>653.05</ele>
  <time>2026-09-01T19:59:37Z</time>
  <course>294.89</course>
  <speed>26.635675324646833</speed>
  <fix>3d</fix>
</trkpt>
<trkpt lat="-35.2814612" lon="149.0033942">
  <ele>653.72</ele>
  <time>2026-09-01T19:59:37Z</time>
  <course>294.35</course>
  <speed>26.38</speed>
  <fix>3d</fix>
</trkpt>
<trkpt lat="-35.2814226" lon="149.0032902">
  <ele>652.91</ele>
  <time>2026-09-01T19:59:37Z</time>
  <course>294.92</course>
  <speed>26.702713345276358</speed>
  <fix>3d</fix>
</trkpt>
<trkpt lat="-35.2814416" lon="149.0033412">
  <ele>653.37</ele>
  <time>2026-09-01T19:59:37Z</time>
  <course>294.43</course>
  <speed>26.55</speed>
  <fix>3d</fix>
</trkpt>
<trkpt lat="-35.2814127" lon="149.0032636">
  <ele>652.79</ele>
  <time>2026-09-01T19:59:37Z</time>
  <course>294.97</course>
  <speed>26.7648015124342</speed>
  <fix>3d</fix>
</trkpt>
<trkpt lat="-35.2814416" lon="149.0033412">
  <ele>653.37</ele>
  <time>2026-09-01T19:59:37Z</time>
  <course>294.43</course>
  <speed>26.55</speed>
  <fix>3d</fix>
</trkpt>
<trkpt lat="-35.2814027" lon="149.0032369">
  <ele>652.67</ele>
  <time>2026-09-01T19:59:37Z</time>
  <course>294.96</course>
  <speed>26.82689881443623</speed>
  <fix>3d</fix>
</trkpt>
<trkpt lat="-35.2814218" lon="149.0032878">
  <ele>653.08</ele>
  <time>2026-09-01T19:59:37Z</time>
  <course>294.5</course>
  <speed>26.7</speed>
  <fix>3d</fix>
</trkpt>
<trkpt lat="-35.2813928" lon="149.0032101">
  <ele>652.57</ele>
  <time>2026-09-01T19:59:37Z</time>
  <course>294.96</course>
  <speed>26.87991257426259</speed>
  <fix>3d</fix>
</trkpt>
<trkpt lat="-35.2814218" lon="149.0032878">
  <ele>653.08</ele>
  <time>2026-09-01T19:59:37Z</time>
  <course>294.5</course>
  <speed>26.7</speed>
  <fix>3d</fix>
</trkpt>
<trkpt lat="-35.2813828" lon="149.0031834">
  <ele>652.48</ele>
  <time>2026-09-01T19:59:37Z</time>
  <course>295.08</course>
  <speed>26.933700080011285</speed>
  <fix>3d</fix>
</trkpt>
<trkpt lat="-35.2814018" lon="149.0032341">
  <ele>652.85</ele>
  <time>2026-09-01T19:59:37Z</time>
  <course>294.56</course>
  <speed>26.83</speed>
  <fix>3d</fix>
</trkpt>
<trkpt lat="-35.2813727" lon="149.0031565">
  <ele>652.4</ele>
  <time>2026-09-01T19:59:37Z</time>
  <course>295.13</course>
  <speed>26.98255918181224</speed>
  <fix>3d</fix>
</trkpt>
<trkpt lat="-35.2814018" lon="149.0032341">
  <ele>652.85</ele>
  <time>2026-09-01T19:59:37Z</time>
  <course>294.56</course>
  <speed>26.83</speed>
  <fix>3d</fix>
</trkpt>
<trkpt lat="-35.2813627" lon="149.0031296">
  <ele>652.33</ele>
  <time>2026-09-01T19:59:37Z</time>
  <course>295.22</course>
  <speed>27.022333355948373</speed>
  <fix>3d</fix>
</trkpt>
<trkpt lat="-35.2813817" lon="149.0031802">
  <ele>652.65</ele>
  <time>2026-09-01T19:59:37Z</time>
  <course>294.61</course>
  <speed>26.96</speed>
  <fix>3d</fix>
</trkpt>
<trkpt lat="-35.2813526" lon="149.0031027">
  <ele>652.26</ele>
  <time>2026-09-01T19:59:37Z</time>
  <course>295.21</course>
  <speed>27.07120241141867</speed>
  <fix>3d</fix>
</trkpt>
<trkpt lat="-35.2813817" lon="149.0031802">
  <ele>652.65</ele>
  <time>2026-09-01T19:59:37Z</time>
  <course>294.61</course>
  <speed>26.96</speed>
  <fix>3d</fix>
</trkpt>
<trkpt lat="-35.2813425" lon="149.0030757">
  <ele>652.21</ele>
  <time>2026-09-01T19:59:37Z</time>
  <course>295.2</course>
  <speed>27.11099039135236</speed>
  <fix>3d</fix>
</trkpt>
<trkpt lat="-35.2813615" lon="149.0031262">
  <ele>652.5</ele>
  <time>2026-09-01T19:59:37Z</time>
  <course>294.65</course>
  <speed>27.06</speed>
  <fix>3d</fix>
</trkpt>
<trkpt lat="-35.2813323" lon="149.0030487">
  <ele>652.17</ele>
  <time>2026-09-01T19:59:37Z</time>
  <course>295.16</course>
  <speed>27.142424357451933</speed>
  <fix>3d</fix>
</trkpt>
<trkpt lat="-35.2813615" lon="149.0031262">
  <ele>652.5</ele>
  <time>2026-09-01T19:59:37Z</time>
  <course>294.65</course>
  <speed>27.06</speed>
  <fix>3d</fix>
</trkpt>
<trkpt lat="-35.2813222" lon="149.0030216">
  <ele>652.13</ele>
  <time>2026-09-01T19:59:37Z</time>
  <course>295.14</course>
  <speed>27.178037088796536</speed>
  <fix>3d</fix>
</trkpt>
<trkpt lat="-35.2813412" lon="149.0030719">
  <ele>652.39</ele>
  <time>2026-09-01T19:59:37Z</time>
  <course>294.7</course>
  <speed>27.16</speed>
  <fix>3d</fix>
</trkpt>
<trkpt lat="-35.281312" lon="149.0029944">
  <ele>652.1</ele>
  <time>2026-09-01T19:59:37Z</time>
  <course>295.16</course>
  <speed>27.209470777653873</speed>
  <fix>3d</fix>
</trkpt>
<trkpt lat="-35.2813412" lon="149.0030719">
  <ele>652.39</ele>
  <time>2026-09-01T19:59:37Z</time>
  <course>294.7</course>
  <speed>27.16</speed>
  <fix>3d</fix>
</trkpt>
<trkpt lat="-35.2813018" lon="149.0029673">
  <ele>652.07</ele>
  <time>2026-09-01T19:59:37Z</time>
  <course>295.19</course>
  <speed>27.236000073432223</speed>
  <fix>3d</fix>
</trkpt>
<trkpt lat="-35.2813207" lon="149.0030176">
  <ele>652.31</ele>
  <time>2026-09-01T19:59:37Z</time>
  <course>294.72</course>
  <speed>27.24</speed>
  <fix>3d</fix>
</trkpt>
<trkpt lat="-35.2812916" lon="149.0029401">
  <ele>652.06</ele>
  <time>2026-09-01T19:59:37Z</time>
  <course>295.25</course>
  <speed>27.26743295581746</speed>
  <fix>3d</fix>
</trkpt>
<trkpt lat="-35.2813207" lon="149.0030176">
  <ele>652.31</ele>
  <time>2026-09-01T19:59:37Z</time>
  <course>294.72</course>
  <speed>27.24</speed>
  <fix>3d</fix>
</trkpt>
<trkpt lat="-35.2812813" lon="149.0029128">
  <ele>652.04</ele>
  <time>2026-09-01T19:59:37Z</time>
  <course>295.26</course>
  <speed>27.289781970547146</speed>
  <fix>3d</fix>
</trkpt>
<trkpt lat="-35.2813002" lon="149.0029631">
  <ele>652.26</ele>
  <time>2026-09-01T19:59:37Z</time>
  <course>294.73</course>
  <speed>27.31</speed>
  <fix>3d</fix>
</trkpt>
<trkpt lat="-35.2812711" lon="149.0028856">
  <ele>652.03</ele>
  <time>2026-09-01T19:59:38Z</time>
  <course>295.3</course>
  <speed>27.3121310043724</speed>
  <fix>3d</fix>
</trkpt>
<trkpt lat="-35.2813002" lon="149.0029631">
  <ele>652.26</ele>
  <time>2026-09-01T19:59:38Z</time>
  <course>294.73</course>
  <speed>27.31</speed>
  <fix>3d</fix>
</trkpt>
<trkpt lat="-35.2812608" lon="149.0028583">
  <ele>652.03</ele>
  <time>2026-09-01T19:59:38Z</time>
  <course>295.25</course>
  <speed>27.325396611943255</speed>
  <fix>3d</fix>
</trkpt>
<trkpt lat="-35.2812797" lon="149.0029085">
  <ele>652.23</ele>
  <time>2026-09-01T19:59:38Z</time>
  <course>294.74</course>
  <speed>27.36</speed>
  <fix>3d</fix>
</trkpt>
<trkpt lat="-35.2812505" lon="149.0028309">
  <ele>652.04</ele>
  <time>2026-09-01T19:59:38Z</time>
  <course>295.33</course>
  <speed>27.32958104325787</speed>
  <fix>3d</fix>
</trkpt>
<trkpt lat="-35.2812797" lon="149.0029085">
  <ele>652.23</ele>
  <time>2026-09-01T19:59:38Z</time>
  <course>294.74</course>
  <speed>27.36</speed>
  <fix>3d</fix>
</trkpt>
<trkpt lat="-35.2812403" lon="149.0028036">
  <ele>652.05</ele>
  <time>2026-09-01T19:59:38Z</time>
  <course>295.36</course>
  <speed>27.338663098257015</speed>
  <fix>3d</fix>
</trkpt>
<trkpt lat="-35.2812591" lon="149.0028538">
  <ele>652.22</ele>
  <time>2026-09-01T19:59:38Z</time>
  <course>294.74</course>
  <speed>27.39</speed>
  <fix>3d</fix>
</trkpt>
<trkpt lat="-35.28123" lon="149.0027763">
  <ele>652.07</ele>
  <time>2026-09-01T19:59:38Z</time>
  <course>295.35</course>
  <speed>27.356118145672646</speed>
  <fix>3d</fix>
</trkpt>
<trkpt lat="-35.2812591" lon="149.0028538">
  <ele>652.22</ele>
  <time>2026-09-01T19:59:38Z</time>
  <course>294.74</course>
  <speed>27.39</speed>
  <fix>3d</fix>
</trkpt>
<trkpt lat="-35.2812196" lon="149.0027487">
  <ele>652.09</ele>
  <time>2026-09-01T19:59:38Z</time>
  <course>295.34</course>
  <speed>27.347038230857834</speed>
  <fix>3d</fix>
</trkpt>
<trkpt lat="-35.2812385" lon="149.0027989">
  <ele>652.24</ele>
  <time>2026-09-01T19:59:38Z</time>
  <course>294.77</course>
  <speed>27.42</speed>
  <fix>3d</fix>
</trkpt>
<trkpt lat="-35.2812093" lon="149.0027214">
  <ele>652.12</ele>
  <time>2026-09-01T19:59:38Z</time>
  <course>295.32</course>
  <speed>27.347038230857834</speed>
  <fix>3d</fix>
</trkpt>
<trkpt lat="-35.2812385" lon="149.0027989">
  <ele>652.24</ele>
  <time>2026-09-01T19:59:38Z</time>
  <course>294.77</course>
  <speed>27.42</speed>
  <fix>3d</fix>
</trkpt>
<trkpt lat="-35.281199" lon="149.002694">
  <ele>652.14</ele>
  <time>2026-09-01T19:59:38Z</time>
  <course>295.31</course>
  <speed>27.342849156589367</speed>
  <fix>3d</fix>
</trkpt>
<trkpt lat="-35.2812178" lon="149.0027442">
  <ele>652.28</ele>
  <time>2026-09-01T19:59:38Z</time>
  <course>294.79</course>
  <speed>27.43</speed>
  <fix>3d</fix>
</trkpt>
<trkpt lat="-35.2811887" lon="149.0026667">
  <ele>652.17</ele>
  <time>2026-09-01T19:59:38Z</time>
  <course>295.34</course>
  <speed>27.333768492470995</speed>
  <fix>3d</fix>
</trkpt>
<trkpt lat="-35.2812178" lon="149.0027442">
  <ele>652.28</ele>
  <time>2026-09-01T19:59:38Z</time>
  <course>294.79</course>
  <speed>27.43</speed>
  <fix>3d</fix>
</trkpt>
<trkpt lat="-35.2811784" lon="149.0026394">
  <ele>652.19</ele>
  <time>2026-09-01T19:59:38Z</time>
  <course>295.37</course>
  <speed>27.32468847031929</speed>
  <fix>3d</fix>
</trkpt>
<trkpt lat="-35.2811971" lon="149.0026892">
  <ele>652.33</ele>
  <time>2026-09-01T19:59:38Z</time>
  <course>294.79</course>
  <speed>27.42</speed>
  <fix>3d</fix>
</trkpt>
<trkpt lat="-35.2811681" lon="149.002612">
  <ele>652.22</ele>
  <time>2026-09-01T19:59:38Z</time>
  <course>295.36</course>
  <speed>27.32468847031929</speed>
  <fix>3d</fix>
</trkpt>
<trkpt lat="-35.2811971" lon="149.0026892">
  <ele>652.33</ele>
  <time>2026-09-01T19:59:38Z</time>
  <course>294.79</course>
  <speed>27.42</speed>
  <fix>3d</fix>
</trkpt>
<trkpt lat="-35.2811577" lon="149.0025847">
  <ele>652.24</ele>
  <time>2026-09-01T19:59:38Z</time>
  <course>295.33</course>
  <speed>27.30233872766214</speed>
  <fix>3d</fix>
</trkpt>
<trkpt lat="-35.2811764" lon="149.0026344">
  <ele>652.38</ele>
  <time>2026-09-01T19:59:38Z</time>
  <course>294.79</course>
  <speed>27.41</speed>
  <fix>3d</fix>
</trkpt>
<trkpt lat="-35.2811474" lon="149.0025574">
  <ele>652.27</ele>
  <time>2026-09-01T19:59:38Z</time>
  <course>295.28</course>
  <speed>27.293259241065368</speed>
  <fix>3d</fix>
</trkpt>
<trkpt lat="-35.2811764" lon="149.0026344">
  <ele>652.38</ele>
  <time>2026-09-01T19:59:38Z</time>
  <course>294.79</course>
  <speed>27.41</speed>
  <fix>3d</fix>
</trkpt>
<trkpt lat="-35.2811371" lon="149.0025301">
  <ele>652.3</ele>
  <time>2026-09-01T19:59:38Z</time>
  <course>295.32</course>
  <speed>27.284180398172126</speed>
  <fix>3d</fix>
</trkpt>
<trkpt lat="-35.2811558" lon="149.0025797">
  <ele>652.42</ele>
  <time>2026-09-01T19:59:38Z</time>
  <course>294.8</course>
  <speed>27.39</speed>
  <fix>3d</fix>
</trkpt>
<trkpt lat="-35.2811268" lon="149.0025028">
  <ele>652.32</ele>
  <time>2026-09-01T19:59:38Z</time>
  <course>295.34</course>
  <speed>27.275102199625213</speed>
  <fix>3d</fix>
</trkpt>
<trkpt lat="-35.2811558" lon="149.0025797">
  <ele>652.42</ele>
  <time>2026-09-01T19:59:38Z</time>
  <course>294.8</course>
  <speed>27.39</speed>
  <fix>3d</fix>
</trkpt>
<trkpt lat="-35.2811165" lon="149.0024755">
  <ele>652.35</ele>
  <time>2026-09-01T19:59:38Z</time>
  <course>295.29</course>
  <speed>27.252752154598994</speed>
  <fix>3d</fix>
</trkpt>
<trkpt lat="-35.2811352" lon="149.002525">
  <ele>652.47</ele>
  <time>2026-09-01T19:59:38Z</time>
  <course>294.8</course>
  <speed>27.37</speed>
  <fix>3d</fix>
</trkpt>
<trkpt lat="-35.2811063" lon="149.0024482">
  <ele>652.37</ele>
  <time>2026-09-01T19:59:38Z</time>
  <course>295.31</course>
  <speed>27.239480538365633</speed>
  <fix>3d</fix>
</trkpt>
<trkpt lat="-35.2811352" lon="149.002525">
  <ele>652.47</ele>
  <time>2026-09-01T19:59:38Z</time>
  <course>294.8</course>
  <speed>27.37</speed>
  <fix>3d</fix>
</trkpt>
<trkpt lat="-35.281096" lon="149.002421">
  <ele>652.4</ele>
  <time>2026-09-01T19:59:38Z</time>
  <course>295.31</course>
  <speed>27.23040212703441</speed>
  <fix>3d</fix>
</trkpt>
<trkpt lat="-35.2811145" lon="149.0024704">
  <ele>652.52</ele>
  <time>2026-09-01T19:59:38Z</time>
  <course>294.81</course>
  <speed>27.34</speed>
  <fix>3d</fix>
</trkpt>
<trkpt lat="-35.2810857" lon="149.0023937">
  <ele>652.42</ele>
  <time>2026-09-01T19:59:38Z</time>
  <course>295.32</course>
  <speed>27.20805211697449</speed>
  <fix>3d</fix>
</trkpt>
<trkpt lat="-35.2811145" lon="149.0024704">
  <ele>652.52</ele>
  <time>2026-09-01T19:59:38Z</time>
  <course>294.81</course>
  <speed>27.34</speed>
  <fix>3d</fix>
</trkpt>
<trkpt lat="-35.2810754" lon="149.0023665">
  <ele>652.44</ele>
  <time>2026-09-01T19:59:38Z</time>
  <course>295.38</course>
  <speed>27.18570212446241</speed>
  <fix>3d</fix>
</trkpt>
<trkpt lat="-35.2810939" lon="149.0024158">
  <ele>652.57</ele>
  <time>2026-09-01T19:59:38Z</time>
  <course>294.81</course>
  <speed>27.3</speed>
  <fix>3d</fix>
</trkpt>
<trkpt lat="-35.2810651" lon="149.0023393">
  <ele>652.46</ele>
  <time>2026-09-01T19:59:38Z</time>
  <course>295.39</course>
  <speed>27.167546816008247</speed>
  <fix>3d</fix>
</trkpt>
<trkpt lat="-35.2810939" lon="149.0024158">
  <ele>652.57</ele>
  <time>2026-09-01T19:59:38Z</time>
  <course>294.81</course>
  <speed>27.3</speed>
  <fix>3d</fix>
</trkpt>
<trkpt lat="-35.2810548" lon="149.0023121">
  <ele>652.47</ele>
  <time>2026-09-01T19:59:38Z</time>
  <course>295.34</course>
  <speed>27.154274065052817</speed>
  <fix>3d</fix>
</trkpt>
<trkpt lat="-35.2810733" lon="149.0023613">
  <ele>652.61</ele>
  <time>2026-09-01T19:59:38Z</time>
  <course>294.81</course>
  <speed>27.26</speed>
  <fix>3d</fix>
</trkpt>
<trkpt lat="-35.2810446" lon="149.0022849">
  <ele>652.49</ele>
  <time>2026-09-01T19:59:38Z</time>
  <course>295.32</course>
  <speed>27.136119840537262</speed>
  <fix>3d</fix>
</trkpt>
<trkpt lat="-35.2810733" lon="149.0023613">
  <ele>652.61</ele>
  <time>2026-09-01T19:59:38Z</time>
  <course>294.81</course>
  <speed>27.26</speed>
  <fix>3d</fix>
</trkpt>
<trkpt lat="-35.2810343" lon="149.0022577">
  <ele>652.5</ele>
  <time>2026-09-01T19:59:38Z</time>
  <course>295.3</course>
  <speed>27.11376956455889</speed>
  <fix>3d</fix>
</trkpt>
<trkpt lat="-35.2810528" lon="149.0023069">
  <ele>652.64</ele>
  <time>2026-09-01T19:59:38Z</time>
  <course>294.81</course>
  <speed>27.22</speed>
  <fix>3d</fix>
</trkpt>
<trkpt lat="-35.2810241" lon="149.0022306">
  <ele>652.52</ele>
  <time>2026-09-01T19:59:38Z</time>
  <course>295.24</course>
  <speed>27.09141930575067</speed>
  <fix>3d</fix>
</trkpt>
<trkpt lat="-35.2810528" lon="149.0023069">
  <ele>652.64</ele>
  <time>2026-09-01T19:59:38Z</time>
  <course>294.81</course>
  <speed>27.22</speed>
  <fix>3d</fix>
</trkpt>
<trkpt lat="-35.2810139" lon="149.0022037">
  <ele>652.53</ele>
  <time>2026-09-01T19:59:38Z</time>
  <course>295.25</course>
  <speed>27.064873914356227</speed>
  <fix>3d</fix>
</trkpt>
<trkpt lat="-35.2810323" lon="149.0022526">
  <ele>652.66</ele>
  <time>2026-09-01T19:59:38Z</time>
  <course>294.82</course>
  <speed>27.17</speed>
  <fix>3d</fix>
</trkpt>
<trkpt lat="-35.2810037" lon="149.0021766">
  <ele>652.54</ele>
  <time>2026-09-01T19:59:38Z</time>
  <course>295.31</course>
  <speed>27.04671883981493</speed>
  <fix>3d</fix>
</trkpt>
<trkpt lat="-35.2810323" lon="149.0022526">
  <ele>652.66</ele>
  <time>2026-09-01T19:59:38Z</time>
  <course>294.82</course>
  <speed>27.17</speed>
  <fix>3d</fix>
</trkpt>
<trkpt lat="-35.2809935" lon="149.0021496">
  <ele>652.54</ele>
  <time>2026-09-01T19:59:38Z</time>
  <course>295.37</course>
  <speed>27.015291965847787</speed>
  <fix>3d</fix>
</trkpt>
<trkpt lat="-35.2810118" lon="149.0021984">
  <ele>652.69</ele>
  <time>2026-09-01T19:59:38Z</time>
  <course>294.81</course>
  <speed>27.12</speed>
  <fix>3d</fix>
</trkpt>
<trkpt lat="-35.2809833" lon="149.0021226">
  <ele>652.54</ele>
  <time>2026-09-01T19:59:38Z</time>
  <course>295.36</course>
  <speed>26.992941669999585</speed>
  <fix>3d</fix>
</trkpt>
<trkpt lat="-35.2810118" lon="149.0021984">
  <ele>652.69</ele>
  <time>2026-09-01T19:59:38Z</time>
  <course>294.81</course>
  <speed>27.12</speed>
  <fix>3d</fix>
</trkpt>
<trkpt lat="-35.2809731" lon="149.0020956">
  <ele>652.54</ele>
  <time>2026-09-01T19:59:38Z</time>
  <course>295.34</course>
  <speed>26.961515165138625</speed>
  <fix>3d</fix>
</trkpt>
<trkpt lat="-35.2809914" lon="149.0021442">
  <ele>652.7</ele>
  <time>2026-09-01T19:59:38Z</time>
  <course>294.81</course>
  <speed>27.06</speed>
  <fix>3d</fix>
</trkpt>
<trkpt lat="-35.2809628" lon="149.0020684">
  <ele>652.54</ele>
  <time>2026-09-01T19:59:38Z</time>
  <course>295.38</course>
  <speed>26.939164797743825</speed>
  <fix>3d</fix>
</trkpt>
<trkpt lat="-35.2809914" lon="149.0021442">
  <ele>652.7</ele>
  <time>2026-09-01T19:59:38Z</time>
  <course>294.81</course>
  <speed>27.06</speed>
  <fix>3d</fix>
</trkpt>
<trkpt lat="-35.2809526" lon="149.0020414">
  <ele>652.54</ele>
  <time>2026-09-01T19:59:38Z</time>
  <course>295.39</course>
  <speed>26.90773866381194</speed>
  <fix>3d</fix>
</trkpt>
<trkpt lat="-35.2809709" lon="149.00209">
  <ele>652.7</ele>
  <time>2026-09-01T19:59:38Z</time>
  <course>294.82</course>
  <speed>27.01</speed>
  <fix>3d</fix>
</trkpt>
<trkpt lat="-35.2809423" lon="149.0020143">
  <ele>652.53</ele>
  <time>2026-09-01T19:59:38Z</time>
  <course>295.42</course>
  <speed>26.8895890634275</speed>
  <fix>3d</fix>
</trkpt>
<trkpt lat="-35.2809709" lon="149.00209">
  <ele>652.7</ele>
  <time>2026-09-01T19:59:38Z</time>
  <course>294.82</course>
  <speed>27.01</speed>
  <fix>3d</fix>
</trkpt>
<trkpt lat="-35.2809322" lon="149.0019874">
  <ele>652.53</ele>
  <time>2026-09-01T19:59:38Z</time>
  <course>295.43</course>
  <speed>26.871442090070268</speed>
  <fix>3d</fix>
</trkpt>
<trkpt lat="-35.2809506" lon="149.0020362">
  <ele>652.7</ele>
  <time>2026-09-01T19:59:38Z</time>
  <course>294.83</course>
  <speed>26.96</speed>
  <fix>3d</fix>
</trkpt>
<trkpt lat="-35.280922" lon="149.0019605">
  <ele>652.52</ele>
  <time>2026-09-01T19:59:38Z</time>
  <course>295.44</course>
  <speed>26.840018628905604</speed>
  <fix>3d</fix>
</trkpt>
<trkpt lat="-35.2809506" lon="149.0020362">
  <ele>652.7</ele>
  <time>2026-09-01T19:59:38Z</time>
  <course>294.83</course>
  <speed>26.96</speed>
  <fix>3d</fix>
</trkpt>
<trkpt lat="-35.2809118" lon="149.0019337">
  <ele>652.51</ele>
  <time>2026-09-01T19:59:38Z</time>
  <course>295.39</course>
  <speed>26.812804776822585</speed>
  <fix>3d</fix>
</trkpt>
<trkpt lat="-35.2809302" lon="149.0019824">
  <ele>652.69</ele>
  <time>2026-09-01T19:59:38Z</time>
  <course>294.86</course>
  <speed>26.9</speed>
  <fix>3d</fix>
</trkpt>
<trkpt lat="-35.2809017" lon="149.0019069">
  <ele>652.5</ele>
  <time>2026-09-01T19:59:38Z</time>
  <course>295.37</course>
  <speed>26.7904535235968</speed>
  <fix>3d</fix>
</trkpt>
<trkpt lat="-35.2809302" lon="149.0019824">
  <ele>652.69</ele>
  <time>2026-09-01T19:59:38Z</time>
  <course>294.86</course>
  <speed>26.9</speed>
  <fix>3d</fix>
</trkpt>
<trkpt lat="-35.2808915" lon="149.0018801">
  <ele>652.49</ele>
  <time>2026-09-01T19:59:38Z</time>
  <course>295.45</course>
  <speed>26.768102286116587</speed>
  <fix>3d</fix>
</trkpt>
<trkpt lat="-35.2809099" lon="149.0019288">
  <ele>652.67</ele>
  <time>2026-09-01T19:59:38Z</time>
  <course>294.88</course>
  <speed>26.85</speed>
  <fix>3d</fix>
</trkpt>
<trkpt lat="-35.2808814" lon="149.0018534">
  <ele>652.49</ele>
  <time>2026-09-01T19:59:38Z</time>
  <course>295.47</course>
  <speed>26.73668079623946</speed>
  <fix>3d</fix>
</trkpt>
<trkpt lat="-35.2809099" lon="149.0019288">
  <ele>652.67</ele>
  <time>2026-09-01T19:59:38Z</time>
  <course>294.88</course>
  <speed>26.85</speed>
  <fix>3d</fix>
</trkpt>
<trkpt lat="-35.2808713" lon="149.0018267">
  <ele>652.47</ele>
  <time>2026-09-01T19:59:38Z</time>
  <course>295.48</course>
  <speed>26.71854225065432</speed>
  <fix>3d</fix>
</trkpt>
<trkpt lat="-35.2808897" lon="149.0018752">
  <ele>652.65</ele>
  <time>2026-09-01T19:59:38Z</time>
  <course>294.89</course>
  <speed>26.8</speed>
  <fix>3d</fix>
</trkpt>
<trkpt lat="-35.2808611" lon="149.0018">
  <ele>652.46</ele>
  <time>2026-09-01T19:59:38Z</time>
  <course>295.5</course>
  <speed>26.68712236266773</speed>
  <fix>3d</fix>
</trkpt>
<trkpt lat="-35.2808897" lon="149.0018752">
  <ele>652.65</ele>
  <time>2026-09-01T19:59:38Z</time>
  <course>294.89</course>
  <speed>26.8</speed>
  <fix>3d</fix>
</trkpt>
<trkpt lat="-35.280851" lon="149.0017733">
  <ele>652.45</ele>
  <time>2026-09-01T19:59:38Z</time>
  <course>295.5</course>
  <speed>26.65570295452739</speed>
  <fix>3d</fix>
</trkpt>
<trkpt lat="-35.2808694" lon="149.0018218">
  <ele>652.62</ele>
  <time>2026-09-01T19:59:38Z</time>
  <course>294.91</course>
  <speed>26.74</speed>
  <fix>3d</fix>
</trkpt>
<trkpt lat="-35.2808409" lon="149.0017467">
  <ele>652.44</ele>
  <time>2026-09-01T19:59:38Z</time>
  <course>295.46</course>
  <speed>26.633351272417823</speed>
  <fix>3d</fix>
</trkpt>
<trkpt lat="-35.2808694" lon="149.0018218">
  <ele>652.62</ele>
  <time>2026-09-01T19:59:38Z</time>
  <course>294.91</course>
  <speed>26.74</speed>
  <fix>3d</fix>
</trkpt>
<trkpt lat="-35.2808308" lon="149.0017201">
  <ele>652.43</ele>
  <time>2026-09-01T19:59:38Z</time>
  <course>295.44</course>
  <speed>26.60193226064603</speed>
  <fix>3d</fix>
</trkpt>
<trkpt lat="-35.2808492" lon="149.0017685">
  <ele>652.6</ele>
  <time>2026-09-01T19:59:38Z</time>
  <course>294.93</course>
  <speed>26.68</speed>
  <fix>3d</fix>
</trkpt>
<trkpt lat="-35.2808207" lon="149.0016935">
  <ele>652.42</ele>
  <time>2026-09-01T19:59:38Z</time>
  <course>295.45</course>
  <speed>26.579580508352645</speed>
  <fix>3d</fix>
</trkpt>
<trkpt lat="-35.2808492" lon="149.0017685">
  <ele>652.6</ele>
  <time>2026-09-01T19:59:38Z</time>
  <course>294.93</course>
  <speed>26.68</speed>
  <fix>3d</fix>
</trkpt>
<trkpt lat="-35.2808106" lon="149.001667">
  <ele>652.41</ele>
  <time>2026-09-01T19:59:38Z</time>
  <course>295.53</course>
  <speed>26.557228771089804</speed>
  <fix>3d</fix>
</trkpt>
<trkpt lat="-35.280829" lon="149.0017153">
  <ele>652.57</ele>
  <time>2026-09-01T19:59:38Z</time>
  <course>294.93</course>
  <speed>26.63</speed>
  <fix>3d</fix>
</trkpt>
<trkpt lat="-35.2808007" lon="149.0016407">
  <ele>652.39</ele>
  <time>2026-09-01T19:59:38Z</time>
  <course>295.55</course>
  <speed>26.534877048895478</speed>
  <fix>3d</fix>
</trkpt>
<trkpt lat="-35.280829" lon="149.0017153">
  <ele>652.57</ele>
  <time>2026-09-01T19:59:38Z</time>
  <course>294.93</course>
  <speed>26.63</speed>
  <fix>3d</fix>
</trkpt>
<trkpt lat="-35.2807906" lon="149.0016142">
  <ele>652.38</ele>
  <time>2026-09-01T19:59:38Z</time>
  <course>295.53</course>
  <speed>26.512525341807788</speed>
  <fix>3d</fix>
</trkpt>
<trkpt lat="-35.2808089" lon="149.0016622">
  <ele>652.54</ele>
  <time>2026-09-01T19:59:38Z</time>
  <course>294.92</course>
  <speed>26.58</speed>
  <fix>3d</fix>
</trkpt>
<trkpt lat="-35.2807806" lon="149.0015877">
  <ele>652.37</ele>
  <time>2026-09-01T19:59:38Z</time>
  <course>295.55</course>
  <speed>26.48110647235119</speed>
  <fix>3d</fix>
</trkpt>
<trkpt lat="-35.2808089" lon="149.0016622">
  <ele>652.54</ele>
  <time>2026-09-01T19:59:38Z</time>
  <course>294.92</course>
  <speed>26.58</speed>
  <fix>3d</fix>
</trkpt>
<trkpt lat="-35.2807705" lon="149.0015613">
  <ele>652.36</ele>
  <time>2026-09-01T19:59:38Z</time>
  <course>295.56</course>
  <speed>26.45875469480754</speed>
  <fix>3d</fix>
</trkpt>
<trkpt lat="-35.2807888" lon="149.0016092">
  <ele>652.51</ele>
  <time>2026-09-01T19:59:38Z</time>
  <course>294.93</course>
  <speed>26.53</speed>
  <fix>3d</fix>
</trkpt>
<trkpt lat="-35.2807604" lon="149.0015346">
  <ele>652.35</ele>
  <time>2026-09-01T19:59:38Z</time>
  <course>295.56</course>
  <speed>26.427336225961177</speed>
  <fix>3d</fix>
</trkpt>
<trkpt lat="-35.2807888" lon="149.0016092">
  <ele>652.51</ele>
  <time>2026-09-01T19:59:38Z</time>
  <course>294.93</course>
  <speed>26.53</speed>
  <fix>3d</fix>
</trkpt>
<trkpt lat="-35.2807504" lon="149.0015083">
  <ele>652.34</ele>
  <time>2026-09-01T19:59:38Z</time>
  <course>295.46</course>
  <speed>26.404984377954097</speed>
  <fix>3d</fix>
</trkpt>
<trkpt lat="-35.2807686" lon="149.0015563">
  <ele>652.49</ele>
  <time>2026-09-01T19:59:38Z</time>
  <course>294.93</course>
  <speed>26.47</speed>
  <fix>3d</fix>
</trkpt>
<trkpt lat="-35.2807404" lon="149.0014819">
  <ele>652.32</ele>
  <time>2026-09-01T19:59:38Z</time>
  <course>295.45</course>
  <speed>26.382632544914845</speed>
  <fix>3d</fix>
</trkpt>
<trkpt lat="-35.2807686" lon="149.0015563">
  <ele>652.49</ele>
  <time>2026-09-01T19:59:38Z</time>
  <course>294.93</course>
  <speed>26.47</speed>
  <fix>3d</fix>
</trkpt>
<trkpt lat="-35.28073" lon="149.0014547">
  <ele>652.31</ele>
  <time>2026-09-01T19:59:38Z</time>
  <course>295.53</course>
  <speed>26.3602807268815</speed>
  <fix>3d</fix>
</trkpt>
<trkpt lat="-35.2807485" lon="149.0015034">
  <ele>652.47</ele>
  <time>2026-09-01T19:59:38Z</time>
  <course>294.94</course>
  <speed>26.42</speed>
  <fix>3d</fix>
</trkpt>
<trkpt lat="-35.2807201" lon="149.0014284">
  <ele>652.3</ele>
  <time>2026-09-01T19:59:38Z</time>
  <course>295.56</course>
  <speed>26.33792892389225</speed>
  <fix>3d</fix>
</trkpt>
<trkpt lat="-35.2807485" lon="149.0015034">
  <ele>652.47</ele>
  <time>2026-09-01T19:59:38Z</time>
  <course>294.94</course>
  <speed>26.42</speed>
  <fix>3d</fix>
</trkpt>
<trkpt lat="-35.2807101" lon="149.0014023">
  <ele>652.29</ele>
  <time>2026-09-01T19:59:38Z</time>
  <course>295.52</course>
  <speed>26.315577135985446</speed>
  <fix>3d</fix>
</trkpt>
<trkpt lat="-35.2807286" lon="149.0014507">
  <ele>652.44</ele>
  <time>2026-09-01T19:59:38Z</time>
  <course>294.93</course>
  <speed>26.38</speed>
  <fix>3d</fix>
</trkpt>
<trkpt lat="-35.2807002" lon="149.001376">
  <ele>652.28</ele>
  <time>2026-09-01T19:59:38Z</time>
  <course>295.53</course>
  <speed>26.288379562080276</speed>
  <fix>3d</fix>
</trkpt>
<trkpt lat="-35.2807286" lon="149.0014507">
  <ele>652.44</ele>
  <time>2026-09-01T19:59:38Z</time>
  <course>294.93</course>
  <speed>26.38</speed>
  <fix>3d</fix>
</trkpt>
<trkpt lat="-35.2806902" lon="149.0013498">
  <ele>652.26</ele>
  <time>2026-09-01T19:59:38Z</time>
  <course>295.48</course>
  <speed>26.26180686853058</speed>
  <fix>3d</fix>
</trkpt>
<trkpt lat="-35.2807086" lon="149.0013981">
  <ele>652.41</ele>
  <time>2026-09-01T19:59:38Z</time>
  <course>294.93</course>
  <speed>26.33</speed>
  <fix>3d</fix>
</trkpt>
<trkpt lat="-35.2806802" lon="149.0013235">
  <ele>652.24</ele>
  <time>2026-09-01T19:59:38Z</time>
  <course>295.47</course>
  <speed>26.24852186314498</speed>
  <fix>3d</fix>
</trkpt>
<trkpt lat="-35.2807086" lon="149.0013981">
  <ele>652.41</ele>
  <time>2026-09-01T19:59:38Z</time>
  <course>294.93</course>
  <speed>26.33</speed>
  <fix>3d</fix>
</trkpt>
<trkpt lat="-35.2806705" lon="149.0012978">
  <ele>652.22</ele>
  <time>2026-09-01T19:59:38Z</time>
  <course>295.51</course>
  <speed>26.226170135953897</speed>
  <fix>3d</fix>
</trkpt>
<trkpt lat="-35.2806887" lon="149.0013457">
  <ele>652.37</ele>
  <time>2026-09-01T19:59:38Z</time>
  <course>294.92</course>
  <speed>26.28</speed>
  <fix>3d</fix>
</trkpt>
<trkpt lat="-35.2806605" lon="149.0012716">
  <ele>652.2</ele>
  <time>2026-09-01T19:59:38Z</time>
  <course>295.48</course>
  <speed>26.199603050428074</speed>
  <fix>3d</fix>
</trkpt>
<trkpt lat="-35.2806887" lon="149.0013457">
  <ele>652.37</ele>
  <time>2026-09-01T19:59:38Z</time>
  <course>294.92</course>
  <speed>26.28</speed>
  <fix>3d</fix>
</trkpt>
<trkpt lat="-35.2806506" lon="149.0012454">
  <ele>652.17</ele>
  <time>2026-09-01T19:59:38Z</time>
  <course>295.48</course>
  <speed>26.177251574601947</speed>
  <fix>3d</fix>
</trkpt>
<trkpt lat="-35.2806688" lon="149.0012932">
  <ele>652.32</ele>
  <time>2026-09-01T19:59:38Z</time>
  <course>294.91</course>
  <speed>26.23</speed>
  <fix>3d</fix>
</trkpt>
<trkpt lat="-35.2806407" lon="149.0012193">
  <ele>652.15</ele>
  <time>2026-09-01T19:59:38Z</time>
  <course>295.46</course>
  <speed>26.163969500058666</speed>
  <fix>3d</fix>
</trkpt>
<trkpt lat="-35.2806688" lon="149.0012932">
  <ele>652.32</ele>
  <time>2026-09-01T19:59:38Z</time>
  <course>294.91</course>
  <speed>26.23</speed>
  <fix>3d</fix>
</trkpt>
<trkpt lat="-35.2806308" lon="149.0011931">
  <ele>652.12</ele>
  <time>2026-09-01T19:59:38Z</time>
  <course>295.49</course>
  <speed>26.1506883274609</speed>
  <fix>3d</fix>
</trkpt>
<trkpt lat="-35.280649" lon="149.0012409">
  <ele>652.28</ele>
  <time>2026-09-01T19:59:38Z</time>
  <course>294.89</course>
  <speed>26.19</speed>
  <fix>3d</fix>
</trkpt>
<trkpt lat="-35.2806209" lon="149.001167">
  <ele>652.09</ele>
  <time>2026-09-01T19:59:38Z</time>
  <course>295.47</course>
  <speed>26.128337107439503</speed>
  <fix>3d</fix>
</trkpt>
<trkpt lat="-35.280649" lon="149.0012409">
  <ele>652.28</ele>
  <time>2026-09-01T19:59:38Z</time>
  <course>294.89</course>
  <speed>26.19</speed>
  <fix>3d</fix>
</trkpt>
<trkpt lat="-35.280611" lon="149.0011409">
  <ele>652.07</ele>
  <time>2026-09-01T19:59:38Z</time>
  <course>295.49</course>
  <speed>26.115056959539643</speed>
  <fix>3d</fix>
</trkpt>
<trkpt lat="-35.2806292" lon="149.0011887">
  <ele>652.23</ele>
  <time>2026-09-01T19:59:38Z</time>
  <course>294.87</course>
  <speed>26.16</speed>
  <fix>3d</fix>
</trkpt>
<trkpt lat="-35.2806012" lon="149.0011148">
  <ele>652.04</ele>
  <time>2026-09-01T19:59:38Z</time>
  <course>295.47</course>
  <speed>26.092705877313684</speed>
  <fix>3d</fix>
</trkpt>
<trkpt lat="-35.2806292" lon="149.0011887">
  <ele>652.23</ele>
  <time>2026-09-01T19:59:38Z</time>
  <course>294.87</course>
  <speed>26.16</speed>
  <fix>3d</fix>
</trkpt>
<trkpt lat="-35.2805914" lon="149.0010889">
  <ele>652.01</ele>
  <time>2026-09-01T19:59:38Z</time>
  <course>295.41</course>
  <speed>26.0794267575037</speed>
  <fix>3d</fix>
</trkpt>
<trkpt lat="-35.2806095" lon="149.0011365">
  <ele>652.17</ele>
  <time>2026-09-01T19:59:38Z</time>
  <course>294.86</course>
  <speed>26.12</speed>
  <fix>3d</fix>
</trkpt>
<trkpt lat="-35.2805815" lon="149.0010628">
  <ele>651.99</ele>
  <time>2026-09-01T19:59:38Z</time>
  <course>295.35</course>
  <speed>26.066148545575352</speed>
  <fix>3d</fix>
</trkpt>
<trkpt lat="-35.2806095" lon="149.0011365">
  <ele>652.17</ele>
  <time>2026-09-01T19:59:38Z</time>
  <course>294.86</course>
  <speed>26.12</speed>
  <fix>3d</fix>
</trkpt>
<trkpt lat="-35.2805717" lon="149.0010367">
  <ele>651.96</ele>
  <time>2026-09-01T19:59:38Z</time>
  <course>295.36</course>
  <speed>26.052871242916776</speed>
  <fix>3d</fix>
</trkpt>
<trkpt lat="-35.2805898" lon="149.0010844">
  <ele>652.11</ele>
  <time>2026-09-01T19:59:38Z</time>
  <course>294.84</course>
  <speed>26.08</speed>
  <fix>3d</fix>
</trkpt>
<trkpt lat="-35.2805618" lon="149.0010107">
  <ele>651.93</ele>
  <time>2026-09-01T19:59:38Z</time>
  <course>295.37</course>
  <speed>26.03959485091886</speed>
  <fix>3d</fix>
</trkpt>
<trkpt lat="-35.2805898" lon="149.0010844">
  <ele>652.11</ele>
  <time>2026-09-01T19:59:38Z</time>
  <course>294.84</course>
  <speed>26.08</speed>
  <fix>3d</fix>
</trkpt>
<trkpt lat="-35.2805519" lon="149.0009844">
  <ele>651.9</ele>
  <time>2026-09-01T19:59:38Z</time>
  <course>295.43</course>
  <speed>26.017244281437648</speed>
  <fix>3d</fix>
</trkpt>
<trkpt lat="-35.2805701" lon="149.0010323">
  <ele>652.05</ele>
  <time>2026-09-01T19:59:38Z</time>
  <course>294.82</course>
  <speed>26.05</speed>
  <fix>3d</fix>
</trkpt>
<trkpt lat="-35.2805421" lon="149.0009584">
  <ele>651.87</ele>
  <time>2026-09-01T19:59:38Z</time>
  <course>295.36</course>
  <speed>26.008169870254232</speed>
  <fix>3d</fix>
</trkpt>
<trkpt lat="-35.2805701" lon="149.0010323">
  <ele>652.05</ele>
  <time>2026-09-01T19:59:38Z</time>
  <course>294.82</course>
  <speed>26.05</speed>
  <fix>3d</fix>
</trkpt>
<trkpt lat="-35.2805323" lon="149.0009324">
  <ele>651.83</ele>
  <time>2026-09-01T19:59:38Z</time>
  <course>295.38</course>
  <speed>25.994893729346153</speed>
  <fix>3d</fix>
</trkpt>
<trkpt lat="-35.2805503" lon="149.0009802">
  <ele>651.99</ele>
  <time>2026-09-01T19:59:38Z</time>
  <course>294.8</course>
  <speed>26.01</speed>
  <fix>3d</fix>
</trkpt>
<trkpt lat="-35.2805221" lon="149.0009055">
  <ele>651.8</ele>
  <time>2026-09-01T19:59:38Z</time>
  <course>295.42</course>
  <speed>25.994893729346153</speed>
  <fix>3d</fix>
</trkpt>
<trkpt lat="-35.2805503" lon="149.0009802">
  <ele>651.99</ele>
  <time>2026-09-01T19:59:38Z</time>
  <course>294.8</course>
  <speed>26.01</speed>
  <fix>3d</fix>
</trkpt>
<trkpt lat="-35.2805124" lon="149.0008797">
  <ele>651.77</ele>
  <time>2026-09-01T19:59:38Z</time>
  <course>295.45</course>
  <speed>25.98581920971513</speed>
  <fix>3d</fix>
</trkpt>
<trkpt lat="-35.2805308" lon="149.0009282">
  <ele>651.93</ele>
  <time>2026-09-01T19:59:38Z</time>
  <course>294.8</course>
  <speed>25.99</speed>
  <fix>3d</fix>
</trkpt>
<trkpt lat="-35.2805026" lon="149.0008538">
  <ele>651.74</ele>
  <time>2026-09-01T19:59:38Z</time>
  <course>295.44</course>
  <speed>25.97674536965707</speed>
  <fix>3d</fix>
</trkpt>
<trkpt lat="-35.2805308" lon="149.0009282">
  <ele>651.93</ele>
  <time>2026-09-01T19:59:38Z</time>
  <course>294.8</course>
  <speed>25.99</speed>
  <fix>3d</fix>
</trkpt>
<trkpt lat="-35.2804928" lon="149.0008278">
  <ele>651.72</ele>
  <time>2026-09-01T19:59:38Z</time>
  <course>295.44</course>
  <speed>25.963468566430024</speed>
  <fix>3d</fix>
</trkpt>
<trkpt lat="-35.2805113" lon="149.0008763">
  <ele>651.87</ele>
  <time>2026-09-01T19:59:38Z</time>
  <course>294.8</course>
  <speed>25.97</speed>
  <fix>3d</fix>
</trkpt>
<trkpt lat="-35.280483" lon="149.0008018">
  <ele>651.7</ele>
  <time>2026-09-01T19:59:38Z</time>
  <course>295.45</course>
  <speed>25.963468566430024</speed>
  <fix>3d</fix>
</trkpt>
<trkpt lat="-35.2805113" lon="149.0008763">
  <ele>651.87</ele>
  <time>2026-09-01T19:59:38Z</time>
  <course>294.8</course>
  <speed>25.97</speed>
  <fix>3d</fix>
</trkpt>
<trkpt lat="-35.2804732" lon="149.0007758">
  <ele>651.68</ele>
  <time>2026-09-01T19:59:38Z</time>
  <course>295.44</course>
  <speed>25.95019267751205</speed>
  <fix>3d</fix>
</trkpt>
<trkpt lat="-35.2804917" lon="149.0008245">
  <ele>651.82</ele>
  <time>2026-09-01T19:59:38Z</time>
  <course>294.8</course>
  <speed>25.95</speed>
  <fix>3d</fix>
</trkpt>
<trkpt lat="-35.2804633" lon="149.0007497">
  <ele>651.67</ele>
  <time>2026-09-01T19:59:38Z</time>
  <course>295.34</course>
  <speed>25.941117940443505</speed>
  <fix>3d</fix>
</trkpt>
<trkpt lat="-35.2804917" lon="149.0008245">
  <ele>651.82</ele>
  <time>2026-09-01T19:59:38Z</time>
  <course>294.8</course>
  <speed>25.95</speed>
  <fix>3d</fix>
</trkpt>
<trkpt lat="-35.2804535" lon="149.0007237">
  <ele>651.66</ele>
  <time>2026-09-01T19:59:38Z</time>
  <course>295.35</course>
  <speed>25.92784217785969</speed>
  <fix>3d</fix>
</trkpt>
<trkpt lat="-35.2804721" lon="149.0007727">
  <ele>651.78</ele>
  <time>2026-09-01T19:59:38Z</time>
  <course>294.79</course>
  <speed>25.93</speed>
  <fix>3d</fix>
</trkpt>
<trkpt lat="-35.2804438" lon="149.0006978">
  <ele>651.65</ele>
  <time>2026-09-01T19:59:38Z</time>
  <course>295.39</course>
  <speed>25.923643648221983</speed>
  <fix>3d</fix>
</trkpt>
<trkpt lat="-35.2804721" lon="149.0007727">
  <ele>651.78</ele>
  <time>2026-09-01T19:59:38Z</time>
  <course>294.79</course>
  <speed>25.93</speed>
  <fix>3d</fix>
</trkpt>
<trkpt lat="-35.280434" lon="149.0006719">
  <ele>651.65</ele>
  <time>2026-09-01T19:59:38Z</time>
  <course>295.44</course>
  <speed>25.91037051066619</speed>
  <fix>3d</fix>
</trkpt>
<trkpt lat="-35.2804526" lon="149.0007209">
  <ele>651.76</ele>
  <time>2026-09-01T19:59:38Z</time>
  <course>294.78</course>
  <speed>25.91</speed>
  <fix>3d</fix>
</trkpt>
<trkpt lat="-35.2804243" lon="149.000646">
  <ele>651.65</ele>
  <time>2026-09-01T19:59:38Z</time>
  <course>295.42</course>
  <speed>25.90129340399819</speed>
  <fix>3d</fix>
</trkpt>
<trkpt lat="-35.2804526" lon="149.0007209">
  <ele>651.76</ele>
  <time>2026-09-01T19:59:38Z</time>
  <course>294.78</course>
  <speed>25.91</speed>
  <fix>3d</fix>
</trkpt>
<trkpt lat="-35.2804145" lon="149.0006202">
  <ele>651.65</ele>
  <time>2026-09-01T19:59:38Z</time>
  <course>295.37</course>
  <speed>25.888020395542025</speed>
  <fix>3d</fix>
</trkpt>
<trkpt lat="-35.2804331" lon="149.0006691">
  <ele>651.74</ele>
  <time>2026-09-01T19:59:38Z</time>
  <course>294.76</course>
  <speed>25.89</speed>
  <fix>3d</fix>
</trkpt>
<trkpt lat="-35.2804048" lon="149.0005943">
  <ele>651.65</ele>
  <time>2026-09-01T19:59:38Z</time>
  <course>295.37</course>
  <speed>25.87894317780384</speed>
  <fix>3d</fix>
</trkpt>
<trkpt lat="-35.2804331" lon="149.0006691">
  <ele>651.74</ele>
  <time>2026-09-01T19:59:38Z</time>
  <course>294.76</course>
  <speed>25.89</speed>
  <fix>3d</fix>
</trkpt>
<trkpt lat="-35.2803953" lon="149.0005691">
  <ele>651.66</ele>
  <time>2026-09-01T19:59:38Z</time>
  <course>295.39</course>
  <speed>25.865670298679678</speed>
  <fix>3d</fix>
</trkpt>
<trkpt lat="-35.2804136" lon="149.0006174">
  <ele>651.74</ele>
  <time>2026-09-01T19:59:38Z</time>
  <course>294.75</course>
  <speed>25.87</speed>
  <fix>3d</fix>
</trkpt>
<trkpt lat="-35.2803856" lon="149.0005435">
  <ele>651.67</ele>
  <time>2026-09-01T19:59:38Z</time>
  <course>295.44</course>
  <speed>25.85239834135317</speed>
  <fix>3d</fix>
</trkpt>
<trkpt lat="-35.2804136" lon="149.0006174">
  <ele>651.74</ele>
  <time>2026-09-01T19:59:38Z</time>
  <course>294.75</course>
  <speed>25.87</speed>
  <fix>3d</fix>
</trkpt>
<trkpt lat="-35.2803759" lon="149.0005176">
  <ele>651.68</ele>
  <time>2026-09-01T19:59:38Z</time>
  <course>295.45</course>
  <speed>25.843320220126515</speed>
  <fix>3d</fix>
</trkpt>
<trkpt lat="-35.2803942" lon="149.0005658">
  <ele>651.75</ele>
  <time>2026-09-01T19:59:38Z</time>
  <course>294.75</course>
  <speed>25.85</speed>
  <fix>3d</fix>
</trkpt>
<trkpt lat="-35.2803662" lon="149.0004918">
  <ele>651.7</ele>
  <time>2026-09-01T19:59:38Z</time>
  <course>295.5</course>
  <speed>25.83844035540845</speed>
  <fix>3d</fix>
</trkpt>
<trkpt lat="-35.2803942" lon="149.0005658">
  <ele>651.75</ele>
  <time>2026-09-01T19:59:38Z</time>
  <course>294.75</course>
  <speed>25.85</speed>
  <fix>3d</fix>
</trkpt>
<trkpt lat="-35.2803564" lon="149.0004659">
  <ele>651.72</ele>
  <time>2026-09-01T19:59:38Z</time>
  <course>295.46</course>
  <speed>25.82936507156148</speed>
  <fix>3d</fix>
</trkpt>
<trkpt lat="-35.2803748" lon="149.0005142">
  <ele>651.77</ele>
  <time>2026-09-01T19:59:38Z</time>
  <course>294.75</course>
  <speed>25.83</speed>
  <fix>3d</fix>
</trkpt>
<trkpt lat="-35.2803466" lon="149.0004399">
  <ele>651.74</ele>
  <time>2026-09-01T19:59:38Z</time>
  <course>295.44</course>
  <speed>25.816089944063958</speed>
  <fix>3d</fix>
</trkpt>
<trkpt lat="-35.2803748" lon="149.0005142">
  <ele>651.77</ele>
  <time>2026-09-01T19:59:38Z</time>
  <course>294.75</course>
  <speed>25.83</speed>
  <fix>3d</fix>
</trkpt>
<trkpt lat="-35.2803369" lon="149.0004141">
  <ele>651.75</ele>
  <time>2026-09-01T19:59:38Z</time>
  <course>295.46</course>
  <speed>25.807014550311706</speed>
  <fix>3d</fix>
</trkpt>
<trkpt lat="-35.2803553" lon="149.0004625">
  <ele>651.81</ele>
  <time>2026-09-01T19:59:38Z</time>
  <course>294.77</course>
  <speed>25.81</speed>
  <fix>3d</fix>
</trkpt>
<trkpt lat="-35.2803271" lon="149.0003883">
  <ele>651.77</ele>
  <time>2026-09-01T19:59:38Z</time>
  <course>295.49</course>
  <speed>25.797939840227556</speed>
  <fix>3d</fix>
</trkpt>
<trkpt lat="-35.2803553" lon="149.0004625">
  <ele>651.81</ele>
  <time>2026-09-01T19:59:38Z</time>
  <course>294.77</course>
  <speed>25.81</speed>
  <fix>3d</fix>
</trkpt>
<trkpt lat="-35.2803171" lon="149.0003616">
  <ele>651.8</ele>
  <time>2026-09-01T19:59:38Z</time>
  <course>295.46</course>
  <speed>25.797939840227556</speed>
  <fix>3d</fix>
</trkpt>
<trkpt lat="-35.2803359" lon="149.0004108">
  <ele>651.85</ele>
  <time>2026-09-01T19:59:38Z</time>
  <course>294.78</course>
  <speed>25.79</speed>
  <fix>3d</fix>
</trkpt>
<trkpt lat="-35.2803074" lon="149.0003359">
  <ele>651.82</ele>
  <time>2026-09-01T19:59:38Z</time>
  <course>295.44</course>
  <speed>25.784664046677047</speed>
  <fix>3d</fix>
</trkpt>
<trkpt lat="-35.2803359" lon="149.0004108">
  <ele>651.85</ele>
  <time>2026-09-01T19:59:38Z</time>
  <course>294.78</course>
  <speed>25.79</speed>
  <fix>3d</fix>
</trkpt>
<trkpt lat="-35.2802977" lon="149.0003101">
  <ele>651.84</ele>
  <time>2026-09-01T19:59:38Z</time>
  <course>295.42</course>
  <speed>25.784664046677047</speed>
  <fix>3d</fix>
</trkpt>
<trkpt lat="-35.2803165" lon="149.0003593">
  <ele>651.89</ele>
  <time>2026-09-01T19:59:38Z</time>
  <course>294.78</course>
  <speed>25.77</speed>
  <fix>3d</fix>
</trkpt>
<trkpt lat="-35.2802879" lon="149.0002843">
  <ele>651.86</ele>
  <time>2026-09-01T19:59:38Z</time>
  <course>295.42</course>
  <speed>25.784664046677047</speed>
  <fix>3d</fix>
</trkpt>
<trkpt lat="-35.2803165" lon="149.0003593">
  <ele>651.89</ele>
  <time>2026-09-01T19:59:38Z</time>
  <course>294.78</course>
  <speed>25.77</speed>
  <fix>3d</fix>
</trkpt>
<trkpt lat="-35.2802782" lon="149.0002585">
  <ele>651.88</ele>
  <time>2026-09-01T19:59:38Z</time>
  <course>295.41</course>
  <speed>25.78046547291185</speed>
  <fix>3d</fix>
</trkpt>
<trkpt lat="-35.2802971" lon="149.0003079">
  <ele>651.94</ele>
  <time>2026-09-01T19:59:38Z</time>
  <course>294.78</course>
  <speed>25.75</speed>
  <fix>3d</fix>
</trkpt>
<trkpt lat="-35.2802684" lon="149.0002324">
  <ele>651.91</ele>
  <time>2026-09-01T19:59:38Z</time>
  <course>295.37</course>
  <speed>25.77138917481943</speed>
  <fix>3d</fix>
</trkpt>
<trkpt lat="-35.2802971" lon="149.0003079">
  <ele>651.94</ele>
  <time>2026-09-01T19:59:38Z</time>
  <course>294.78</course>
  <speed>25.75</speed>
  <fix>3d</fix>
</trkpt>
<trkpt lat="-35.2802587" lon="149.0002066">
  <ele>651.93</ele>
  <time>2026-09-01T19:59:38Z</time>
  <course>295.37</course>
  <speed>25.776270094798434</speed>
  <fix>3d</fix>
</trkpt>
<trkpt lat="-35.2802777" lon="149.0002564">
  <ele>651.98</ele>
  <time>2026-09-01T19:59:38Z</time>
  <course>294.76</course>
  <speed>25.74</speed>
  <fix>3d</fix>
</trkpt>
<trkpt lat="-35.280249" lon="149.0001808">
  <ele>651.95</ele>
  <time>2026-09-01T19:59:38Z</time>
  <course>295.38</course>
  <speed>25.772077913897437</speed>
  <fix>3d</fix>
</trkpt>
<trkpt lat="-35.2802777" lon="149.0002564">
  <ele>651.98</ele>
  <time>2026-09-01T19:59:38Z</time>
  <course>294.76</course>
  <speed>25.74</speed>
  <fix>3d</fix>
</trkpt>
<trkpt lat="-35.2802393" lon="149.000155">
  <ele>651.97</ele>
  <time>2026-09-01T19:59:38Z</time>
  <course>295.37</course>
  <speed>25.75880820224414</speed>
  <fix>3d</fix>
</trkpt>
<trkpt lat="-35.2802583" lon="149.000205">
  <ele>652.02</ele>
  <time>2026-09-01T19:59:38Z</time>
  <course>294.73</course>
  <speed>25.73</speed>
  <fix>3d</fix>
</trkpt>
<trkpt lat="-35.2802296" lon="149.0001292">
  <ele>651.99</ele>
  <time>2026-09-01T19:59:38Z</time>
  <course>295.42</course>
  <speed>25.75880820224414</speed>
  <fix>3d</fix>
</trkpt>
<trkpt lat="-35.2802583" lon="149.000205">
  <ele>652.02</ele>
  <time>2026-09-01T19:59:38Z</time>
  <course>294.73</course>
  <speed>25.73</speed>
  <fix>3d</fix>
</trkpt>
<trkpt lat="-35.2802199" lon="149.0001035">
  <ele>652.01</ele>
  <time>2026-09-01T19:59:38Z</time>
  <course>295.46</course>
  <speed>25.75880820224414</speed>
  <fix>3d</fix>
</trkpt>
<trkpt lat="-35.2802389" lon="149.0001535">
  <ele>652.06</ele>
  <time>2026-09-01T19:59:38Z</time>
  <course>294.71</course>
  <speed>25.72</speed>
  <fix>3d</fix>
</trkpt>
<trkpt lat="-35.2802103" lon="149.0000777">
  <ele>652.03</ele>
  <time>2026-09-01T19:59:38Z</time>
  <course>295.47</course>
  <speed>25.762998660870206</speed>
  <fix>3d</fix>
</trkpt>
<trkpt lat="-35.2802389" lon="149.0001535">
  <ele>652.06</ele>
  <time>2026-09-01T19:59:38Z</time>
  <course>294.71</course>
  <speed>25.72</speed>
  <fix>3d</fix>
</trkpt>
<trkpt lat="-35.2802006" lon="149.0000519">
  <ele>652.05</ele>
  <time>2026-09-01T19:59:38Z</time>
  <course>295.47</course>
  <speed>25.762998660870206</speed>
  <fix>3d</fix>
</trkpt>
<trkpt lat="-35.2802196" lon="149.0001022">
  <ele>652.1</ele>
  <time>2026-09-01T19:59:38Z</time>
  <course>294.71</course>
  <speed>25.71</speed>
  <fix>3d</fix>
</trkpt>
<trkpt lat="-35.2801909" lon="149.0000262">
  <ele>652.07</ele>
  <time>2026-09-01T19:59:38Z</time>
  <course>295.39</course>
  <speed>25.75392008995912</speed>
  <fix>3d</fix>
</trkpt>
<trkpt lat="-35.2802196" lon="149.0001022">
  <ele>652.1</ele>
  <time>2026-09-01T19:59:38Z</time>
  <course>294.71</course>
  <speed>25.71</speed>
  <fix>3d</fix>
</trkpt>
<trkpt lat="-35.2801812" lon="149.0000004">
  <ele>652.09</ele>
  <time>2026-09-01T19:59:38Z</time>
  <course>295.43</course>
  <speed>25.75811522607972</speed>
  <fix>3d</fix>
</trkpt>
<trkpt lat="-35.2802003" lon="149.0000508">
  <ele>652.14</ele>
  <time>2026-09-01T19:59:38Z</time>
  <course>294.73</course>
  <speed>25.71</speed>
  <fix>3d</fix>
</trkpt>
<trkpt lat="-35.2801715" lon="148.9999747">
  <ele>652.11</ele>
  <time>2026-09-01T19:59:38Z</time>
  <course>295.44</course>
  <speed>25.75811522607972</speed>
  <fix>3d</fix>
</trkpt>
<trkpt lat="-35.2802003" lon="149.0000508">
  <ele>652.14</ele>
  <time>2026-09-01T19:59:38Z</time>
  <course>294.73</course>
  <speed>25.71</speed>
  <fix>3d</fix>
</trkpt>
<trkpt lat="-35.2801618" lon="148.9999489">
  <ele>652.13</ele>
  <time>2026-09-01T19:59:38Z</time>
  <course>295.42</course>
  <speed>25.753238631286745</speed>
  <fix>3d</fix>
</trkpt>
<trkpt lat="-35.280181" lon="148.9999993">
  <ele>652.18</ele>
  <time>2026-09-01T19:59:38Z</time>
  <course>294.75</course>
  <speed>25.71</speed>
  <fix>3d</fix>
</trkpt>
<trkpt lat="-35.2801521" lon="148.9999232">
  <ele>652.15</ele>
  <time>2026-09-01T19:59:38Z</time>
  <course>295.46</course>
  <speed>25.749038817012178</speed>
  <fix>3d</fix>
</trkpt>
<trkpt lat="-35.280181" lon="148.9999993">
  <ele>652.18</ele>
  <time>2026-09-01T19:59:38Z</time>
  <course>294.75</course>
  <speed>25.71</speed>
  <fix>3d</fix>
</trkpt>
<trkpt lat="-35.2801424" lon="148.9998975">
  <ele>652.17</ele>
  <time>2026-09-01T19:59:38Z</time>
  <course>295.46</course>
  <speed>25.753238631286745</speed>
  <fix>3d</fix>
</trkpt>
<trkpt lat="-35.2801616" lon="148.9999479">
  <ele>652.22</ele>
  <time>2026-09-01T19:59:38Z</time>
  <course>294.76</course>
  <speed>25.7</speed>
  <fix>3d</fix>
</trkpt>
<trkpt lat="-35.2801327" lon="148.9998718">
  <ele>652.19</ele>
  <time>2026-09-01T19:59:38Z</time>
  <course>295.49</course>
  <speed>25.744164387293676</speed>
  <fix>3d</fix>
</trkpt>
<trkpt lat="-35.2801616" lon="148.9999479">
  <ele>652.22</ele>
  <time>2026-09-01T19:59:38Z</time>
  <course>294.76</course>
  <speed>25.7</speed>
  <fix>3d</fix>
</trkpt>
<trkpt lat="-35.2801233" lon="148.9998467">
  <ele>652.2</ele>
  <time>2026-09-01T19:59:38Z</time>
  <course>295.49</course>
  <speed>25.744164387293676</speed>
  <fix>3d</fix>
</trkpt>
<trkpt lat="-35.2801422" lon="148.9998964">
  <ele>652.26</ele>
  <time>2026-09-01T19:59:38Z</time>
  <course>294.78</course>
  <speed>25.7</speed>
  <fix>3d</fix>
</trkpt>
<trkpt lat="-35.2801132" lon="148.9998202">
  <ele>652.21</ele>
  <time>2026-09-01T19:59:38Z</time>
  <course>295.48</course>
  <speed>25.735090829449195</speed>
  <fix>3d</fix>
</trkpt>
<trkpt lat="-35.2801422" lon="148.9998964">
  <ele>652.26</ele>
  <time>2026-09-01T19:59:38Z</time>
  <course>294.78</course>
  <speed>25.7</speed>
  <fix>3d</fix>
</trkpt>
<trkpt lat="-35.2801037" lon="148.9997948">
  <ele>652.23</ele>
  <time>2026-09-01T19:59:38Z</time>
  <course>295.48</course>
  <speed>25.735090829449195</speed>
  <fix>3d</fix>
</trkpt>
<trkpt lat="-35.2801228" lon="148.9998451">
  <ele>652.29</ele>
  <time>2026-09-01T19:59:38Z</time>
  <course>294.79</course>
  <speed>25.7</speed>
  <fix>3d</fix>
</trkpt>
<trkpt lat="-35.280094" lon="148.9997692">
  <ele>652.24</ele>
  <time>2026-09-01T19:59:38Z</time>
  <course>295.42</course>
  <speed>25.735090829449195</speed>
  <fix>3d</fix>
</trkpt>
<trkpt lat="-35.2801228" lon="148.9998451">
  <ele>652.29</ele>
  <time>2026-09-01T19:59:38Z</time>
  <course>294.79</course>
  <speed>25.7</speed>
  <fix>3d</fix>
</trkpt>
<trkpt lat="-35.2800844" lon="148.9997437">
  <ele>652.24</ele>
  <time>2026-09-01T19:59:38Z</time>
  <course>295.42</course>
  <speed>25.721813699659673</speed>
  <fix>3d</fix>
</trkpt>
<trkpt lat="-35.2801035" lon="148.9997938">
  <ele>652.31</ele>
  <time>2026-09-01T19:59:38Z</time>
  <course>294.8</course>
  <speed>25.7</speed>
  <fix>3d</fix>
</trkpt>
<trkpt lat="-35.2800747" lon="148.9997182">
  <ele>652.25</ele>
  <time>2026-09-01T19:59:38Z</time>
  <course>295.41</course>
  <speed>25.721813699659673</speed>
  <fix>3d</fix>
</trkpt>
<trkpt lat="-35.2801035" lon="148.9997938">
  <ele>652.31</ele>
  <time>2026-09-01T19:59:38Z</time>
  <course>294.8</course>
  <speed>25.7</speed>
  <fix>3d</fix>
</trkpt>
<trkpt lat="-35.2800651" lon="148.9996925">
  <ele>652.25</ele>
  <time>2026-09-01T19:59:38Z</time>
  <course>295.43</course>
  <speed>25.712740032909757</speed>
  <fix>3d</fix>
</trkpt>
<trkpt lat="-35.2800842" lon="148.9997425">
  <ele>652.32</ele>
  <time>2026-09-01T19:59:38Z</time>
  <course>294.79</course>
  <speed>25.7</speed>
  <fix>3d</fix>
</trkpt>
<trkpt lat="-35.2800554" lon="148.999667">
  <ele>652.25</ele>
  <time>2026-09-01T19:59:38Z</time>
  <course>295.42</course>
  <speed>25.712740032909757</speed>
  <fix>3d</fix>
</trkpt>
<trkpt lat="-35.2800842" lon="148.9997425">
  <ele>652.32</ele>
  <time>2026-09-01T19:59:38Z</time>
  <course>294.79</course>
  <speed>25.7</speed>
  <fix>3d</fix>
</trkpt>
<trkpt lat="-35.2800458" lon="148.9996414">
  <ele>652.25</ele>
  <time>2026-09-01T19:59:38Z</time>
  <course>295.45</course>
  <speed>25.712740032909757</speed>
  <fix>3d</fix>
</trkpt>
<trkpt lat="-35.2800648" lon="148.9996911">
  <ele>652.33</ele>
  <time>2026-09-01T19:59:38Z</time>
  <course>294.79</course>
  <speed>25.71</speed>
  <fix>3d</fix>
</trkpt>
<trkpt lat="-35.2800362" lon="148.9996159">
  <ele>652.25</ele>
  <time>2026-09-01T19:59:38Z</time>
  <course>295.48</course>
  <speed>25.703667053554828</speed>
  <fix>3d</fix>
</trkpt>
<trkpt lat="-35.2800648" lon="148.9996911">
  <ele>652.33</ele>
  <time>2026-09-01T19:59:38Z</time>
  <course>294.79</course>
  <speed>25.71</speed>
  <fix>3d</fix>
</trkpt>
<trkpt lat="-35.2800265" lon="148.9995903">
  <ele>652.25</ele>
  <time>2026-09-01T19:59:38Z</time>
  <course>295.43</course>
  <speed>25.703667053554828</speed>
  <fix>3d</fix>
</trkpt>
<trkpt lat="-35.2800454" lon="148.9996398">
  <ele>652.33</ele>
  <time>2026-09-01T19:59:38Z</time>
  <course>294.8</course>
  <speed>25.72</speed>
  <fix>3d</fix>
</trkpt>
<trkpt lat="-35.2800169" lon="148.9995647">
  <ele>652.24</ele>
  <time>2026-09-01T19:59:38Z</time>
  <course>295.39</course>
  <speed>25.712740032909757</speed>
  <fix>3d</fix>
</trkpt>
<trkpt lat="-35.2800454" lon="148.9996398">
  <ele>652.33</ele>
  <time>2026-09-01T19:59:38Z</time>
  <course>294.8</course>
  <speed>25.72</speed>
  <fix>3d</fix>
</trkpt>
<trkpt lat="-35.2800072" lon="148.9995391">
  <ele>652.24</ele>
  <time>2026-09-01T19:59:38Z</time>
  <course>295.36</course>
  <speed>25.712740032909757</speed>
  <fix>3d</fix>
</trkpt>
<trkpt lat="-35.2800261" lon="148.9995884">
  <ele>652.33</ele>
  <time>2026-09-01T19:59:38Z</time>
  <course>294.8</course>
  <speed>25.73</speed>
  <fix>3d</fix>
</trkpt>
<trkpt lat="-35.2799975" lon="148.9995135">
  <ele>652.24</ele>
  <time>2026-09-01T19:59:38Z</time>
  <course>295.37</course>
  <speed>25.721813699659673</speed>
  <fix>3d</fix>
</trkpt>
<trkpt lat="-35.2800261" lon="148.9995884">
  <ele>652.33</ele>
  <time>2026-09-01T19:59:38Z</time>
  <course>294.8</course>
  <speed>25.73</speed>
  <fix>3d</fix>
</trkpt>
<trkpt lat="-35.2799879" lon="148.9994878">
  <ele>652.24</ele>
  <time>2026-09-01T19:59:38Z</time>
  <course>295.37</course>
  <speed>25.721813699659673</speed>
  <fix>3d</fix>
</trkpt>
<trkpt lat="-35.2800067" lon="148.9995369">
  <ele>652.33</ele>
  <time>2026-09-01T19:59:38Z</time>
  <course>294.79</course>
  <speed>25.75</speed>
  <fix>3d</fix>
</trkpt>
<trkpt lat="-35.2799782" lon="148.9994622">
  <ele>652.25</ele>
  <time>2026-09-01T19:59:38Z</time>
  <course>295.32</course>
  <speed>25.72668847714373</speed>
  <fix>3d</fix>
</trkpt>
<trkpt lat="-35.2800067" lon="148.9995369">
  <ele>652.33</ele>
  <time>2026-09-01T19:59:38Z</time>
  <course>294.79</course>
  <speed>25.75</speed>
  <fix>3d</fix>
</trkpt>
<trkpt lat="-35.2799686" lon="148.9994365">
  <ele>652.26</ele>
  <time>2026-09-01T19:59:38Z</time>
  <course>295.31</course>
  <speed>25.735764997372822</speed>
  <fix>3d</fix>
</trkpt>
<trkpt lat="-35.2799873" lon="148.9994855">
  <ele>652.33</ele>
  <time>2026-09-01T19:59:38Z</time>
  <course>294.78</course>
  <speed>25.76</speed>
  <fix>3d</fix>
</trkpt>
<trkpt lat="-35.2799589" lon="148.9994108">
  <ele>652.27</ele>
  <time>2026-09-01T19:59:38Z</time>
  <course>295.3</course>
  <speed>25.731570103668375</speed>
  <fix>3d</fix>
</trkpt>
<trkpt lat="-35.2799873" lon="148.9994855">
  <ele>652.33</ele>
  <time>2026-09-01T19:59:38Z</time>
  <course>294.78</course>
  <speed>25.76</speed>
  <fix>3d</fix>
</trkpt>
<trkpt lat="-35.2799492" lon="148.9993851">
  <ele>652.29</ele>
  <time>2026-09-01T19:59:38Z</time>
  <course>295.32</course>
  <speed>25.740648787472313</speed>
  <fix>3d</fix>
</trkpt>
<trkpt lat="-35.2799678" lon="148.9994339">
  <ele>652.34</ele>
  <time>2026-09-01T19:59:38Z</time>
  <course>294.75</course>
  <speed>25.78</speed>
  <fix>3d</fix>
</trkpt>
<trkpt lat="-35.2799396" lon="148.9993594">
  <ele>652.3</ele>
  <time>2026-09-01T19:59:38Z</time>
  <course>295.37</course>
  <speed>25.736458575336272</speed>
  <fix>3d</fix>
</trkpt>
<trkpt lat="-35.2799678" lon="148.9994339">
  <ele>652.34</ele>
  <time>2026-09-01T19:59:38Z</time>
  <course>294.75</course>
  <speed>25.78</speed>
  <fix>3d</fix>
</trkpt>
<trkpt lat="-35.2799299" lon="148.9993337">
  <ele>652.32</ele>
  <time>2026-09-01T19:59:38Z</time>
  <course>295.37</course>
  <speed>25.736458575336272</speed>
  <fix>3d</fix>
</trkpt>
<trkpt lat="-35.2799483" lon="148.9993823">
  <ele>652.36</ele>
  <time>2026-09-01T19:59:38Z</time>
  <course>294.72</course>
  <speed>25.79</speed>
  <fix>3d</fix>
</trkpt>
<trkpt lat="-35.2799202" lon="148.9993079">
  <ele>652.35</ele>
  <time>2026-09-01T19:59:38Z</time>
  <course>295.37</course>
  <speed>25.72737841288925</speed>
  <fix>3d</fix>
</trkpt>
<trkpt lat="-35.2799483" lon="148.9993823">
  <ele>652.36</ele>
  <time>2026-09-01T19:59:38Z</time>
  <course>294.72</course>
  <speed>25.79</speed>
  <fix>3d</fix>
</trkpt>
<trkpt lat="-35.2799106" lon="148.9992822">
  <ele>652.37</ele>
  <time>2026-09-01T19:59:38Z</time>
  <course>295.29</course>
  <speed>25.718298932861018</speed>
  <fix>3d</fix>
</trkpt>
<trkpt lat="-35.279929" lon="148.9993308">
  <ele>652.4</ele>
  <time>2026-09-01T19:59:38Z</time>
  <course>294.71</course>
  <speed>25.79</speed>
  <fix>3d</fix>
</trkpt>
<trkpt lat="-35.2799009" lon="148.9992565">
  <ele>652.4</ele>
  <time>2026-09-01T19:59:38Z</time>
  <course>295.22</course>
  <speed>25.718298932861018</speed>
  <fix>3d</fix>
</trkpt>
<trkpt lat="-35.279929" lon="148.9993308">
  <ele>652.4</ele>
  <time>2026-09-01T19:59:38Z</time>
  <course>294.71</course>
  <speed>25.79</speed>
  <fix>3d</fix>
</trkpt>
<trkpt lat="-35.2798912" lon="148.9992307">
  <ele>652.43</ele>
  <time>2026-09-01T19:59:38Z</time>
  <course>295.25</course>
  <speed>25.72318992660125</speed>
  <fix>3d</fix>
</trkpt>
<trkpt lat="-35.2799097" lon="148.9992792">
  <ele>652.44</ele>
  <time>2026-09-01T19:59:38Z</time>
  <course>294.72</course>
  <speed>25.79</speed>
  <fix>3d</fix>
</trkpt>
<trkpt lat="-35.2798815" lon="148.999205">
  <ele>652.46</ele>
  <time>2026-09-01T19:59:38Z</time>
  <course>295.32</course>
  <speed>25.72318992660125</speed>
  <fix>3d</fix>
</trkpt>
<trkpt lat="-35.2799097" lon="148.9992792">
  <ele>652.44</ele>
  <time>2026-09-01T19:59:38Z</time>
  <course>294.72</course>
  <speed>25.79</speed>
  <fix>3d</fix>
</trkpt>
<trkpt lat="-35.2798719" lon="148.9991793">
  <ele>652.49</ele>
  <time>2026-09-01T19:59:38Z</time>
  <course>295.29</course>
  <speed>25.72737841288925</speed>
  <fix>3d</fix>
</trkpt>
<trkpt lat="-35.2798903" lon="148.9992277">
  <ele>652.5</ele>
  <time>2026-09-01T19:59:38Z</time>
  <course>294.71</course>
  <speed>25.78</speed>
  <fix>3d</fix>
</trkpt>
<trkpt lat="-35.2798623" lon="148.9991537">
  <ele>652.53</ele>
  <time>2026-09-01T19:59:38Z</time>
  <course>295.3</course>
  <speed>25.718298932861018</speed>
  <fix>3d</fix>
</trkpt>
<trkpt lat="-35.2798903" lon="148.9992277">
  <ele>652.5</ele>
  <time>2026-09-01T19:59:38Z</time>
  <course>294.71</course>
  <speed>25.78</speed>
  <fix>3d</fix>
</trkpt>
<trkpt lat="-35.2798524" lon="148.9991275">
  <ele>652.57</ele>
  <time>2026-09-01T19:59:38Z</time>
  <course>295.3</course>
  <speed>25.718298932861018</speed>
  <fix>3d</fix>
</trkpt>
<trkpt lat="-35.2798709" lon="148.9991761">
  <ele>652.56</ele>
  <time>2026-09-01T19:59:38Z</time>
  <course>294.71</course>
  <speed>25.79</speed>
  <fix>3d</fix>
</trkpt>
<trkpt lat="-35.2798428" lon="148.9991018">
  <ele>652.61</ele>
  <time>2026-09-01T19:59:38Z</time>
  <course>295.29</course>
  <speed>25.718298932861018</speed>
  <fix>3d</fix>
</trkpt>
<trkpt lat="-35.2798709" lon="148.9991761">
  <ele>652.56</ele>
  <time>2026-09-01T19:59:38Z</time>
  <course>294.71</course>
  <speed>25.79</speed>
  <fix>3d</fix>
</trkpt>
<trkpt lat="-35.2798331" lon="148.9990761">
  <ele>652.66</ele>
  <time>2026-09-01T19:59:38Z</time>
  <course>295.3</course>
  <speed>25.718298932861018</speed>
  <fix>3d</fix>
</trkpt>
<trkpt lat="-35.2798516" lon="148.9991246">
  <ele>652.64</ele>
  <time>2026-09-01T19:59:38Z</time>
  <course>294.72</course>
  <speed>25.79</speed>
  <fix>3d</fix>
</trkpt>
<trkpt lat="-35.2798234" lon="148.9990503">
  <ele>652.7</ele>
  <time>2026-09-01T19:59:38Z</time>
  <course>295.3</course>
  <speed>25.718298932861018</speed>
  <fix>3d</fix>
</trkpt>
<trkpt lat="-35.2798516" lon="148.9991246">
  <ele>652.64</ele>
  <time>2026-09-01T19:59:38Z</time>
  <course>294.72</course>
  <speed>25.79</speed>
  <fix>3d</fix>
</trkpt>
<trkpt lat="-35.2798137" lon="148.9990246">
  <ele>652.75</ele>
  <time>2026-09-01T19:59:38Z</time>
  <course>295.33</course>
  <speed>25.709220135974565</speed>
  <fix>3d</fix>
</trkpt>
<trkpt lat="-35.2798322" lon="148.9990731">
  <ele>652.72</ele>
  <time>2026-09-01T19:59:38Z</time>
  <course>294.73</course>
  <speed>25.78</speed>
  <fix>3d</fix>
</trkpt>
<trkpt lat="-35.279804" lon="148.9989989">
  <ele>652.8</ele>
  <time>2026-09-01T19:59:38Z</time>
  <course>295.37</course>
  <speed>25.709220135974565</speed>
  <fix>3d</fix>
</trkpt>
<trkpt lat="-35.2798322" lon="148.9990731">
  <ele>652.72</ele>
  <time>2026-09-01T19:59:38Z</time>
  <course>294.73</course>
  <speed>25.78</speed>
  <fix>3d</fix>
</trkpt>
<trkpt lat="-35.2797944" lon="148.9989731">
  <ele>652.85</ele>
  <time>2026-09-01T19:59:38Z</time>
  <course>295.4</course>
  <speed>25.704338155260874</speed>
  <fix>3d</fix>
</trkpt>
<trkpt lat="-35.2798128" lon="148.9990215">
  <ele>652.81</ele>
  <time>2026-09-01T19:59:38Z</time>
  <course>294.73</course>
  <speed>25.77</speed>
  <fix>3d</fix>
</trkpt>
<trkpt lat="-35.2797847" lon="148.9989474">
  <ele>652.9</ele>
  <time>2026-09-01T19:59:38Z</time>
  <course>295.38</course>
  <speed>25.695262209208916</speed>
  <fix>3d</fix>
</trkpt>
<trkpt lat="-35.2798128" lon="148.9990215">
  <ele>652.81</ele>
  <time>2026-09-01T19:59:38Z</time>
  <course>294.73</course>
  <speed>25.77</speed>
  <fix>3d</fix>
</trkpt>
<trkpt lat="-35.279775" lon="148.9989217">
  <ele>652.96</ele>
  <time>2026-09-01T19:59:38Z</time>
  <course>295.36</course>
  <speed>25.69106459452391</speed>
  <fix>3d</fix>
</trkpt>
<trkpt lat="-35.2797934" lon="148.99897">
  <ele>652.91</ele>
  <time>2026-09-01T19:59:38Z</time>
  <course>294.75</course>
  <speed>25.77</speed>
  <fix>3d</fix>
</trkpt>
<trkpt lat="-35.2797653" lon="148.998896">
  <ele>653.02</ele>
  <time>2026-09-01T19:59:38Z</time>
  <course>295.37</course>
  <speed>25.69106459452391</speed>
  <fix>3d</fix>
</trkpt>
<trkpt lat="-35.2797934" lon="148.99897">
  <ele>652.91</ele>
  <time>2026-09-01T19:59:38Z</time>
  <course>294.75</course>
  <speed>25.77</speed>
  <fix>3d</fix>
</trkpt>
<trkpt lat="-35.2797556" lon="148.9988703">
  <ele>653.08</ele>
  <time>2026-09-01T19:59:38Z</time>
  <course>295.34</course>
  <speed>25.681987851410568</speed>
  <fix>3d</fix>
</trkpt>
<trkpt lat="-35.2797741" lon="148.9989186">
  <ele>653.01</ele>
  <time>2026-09-01T19:59:38Z</time>
  <course>294.76</course>
  <speed>25.76</speed>
  <fix>3d</fix>
</trkpt>
<trkpt lat="-35.279746" lon="148.9988446">
  <ele>653.14</ele>
  <time>2026-09-01T19:59:38Z</time>
  <course>295.3</course>
  <speed>25.672911794340745</speed>
  <fix>3d</fix>
</trkpt>
<trkpt lat="-35.2797741" lon="148.9989186">
  <ele>653.01</ele>
  <time>2026-09-01T19:59:38Z</time>
  <course>294.76</course>
  <speed>25.76</speed>
  <fix>3d</fix>
</trkpt>
<trkpt lat="-35.2797363" lon="148.9988189">
  <ele>653.21</ele>
  <time>2026-09-01T19:59:38Z</time>
  <course>295.3</course>
  <speed>25.66871442047692</speed>
  <fix>3d</fix>
</trkpt>
<trkpt lat="-35.2797546" lon="148.998867">
  <ele>653.13</ele>
  <time>2026-09-01T19:59:38Z</time>
  <course>294.76</course>
  <speed>25.74</speed>
  <fix>3d</fix>
</trkpt>
<trkpt lat="-35.2797266" lon="148.9987932">
  <ele>653.28</ele>
  <time>2026-09-01T19:59:38Z</time>
  <course>295.3</course>
  <speed>25.659637565639933</speed>
  <fix>3d</fix>
</trkpt>
<trkpt lat="-35.2797546" lon="148.998867">
  <ele>653.13</ele>
  <time>2026-09-01T19:59:38Z</time>
  <course>294.76</course>
  <speed>25.74</speed>
  <fix>3d</fix>
</trkpt>
<trkpt lat="-35.2797169" lon="148.9987675">
  <ele>653.35</ele>
  <time>2026-09-01T19:59:38Z</time>
  <course>295.33</course>
  <speed>25.65544191784659</speed>
  <fix>3d</fix>
</trkpt>
<trkpt lat="-35.2797352" lon="148.9988154">
  <ele>653.25</ele>
  <time>2026-09-01T19:59:38Z</time>
  <course>294.75</course>
  <speed>25.73</speed>
  <fix>3d</fix>
</trkpt>
<trkpt lat="-35.2797073" lon="148.9987418">
  <ele>653.41</ele>
  <time>2026-09-01T19:59:38Z</time>
  <course>295.35</course>
  <speed>25.65544191784659</speed>
  <fix>3d</fix>
</trkpt>
<trkpt lat="-35.2797352" lon="148.9988154">
  <ele>653.25</ele>
  <time>2026-09-01T19:59:38Z</time>
  <course>294.75</course>
  <speed>25.73</speed>
  <fix>3d</fix>
</trkpt>
<trkpt lat="-35.2796976" lon="148.9987161">
  <ele>653.48</ele>
  <time>2026-09-01T19:59:38Z</time>
  <course>295.34</course>
  <speed>25.646364264745205</speed>
  <fix>3d</fix>
</trkpt>
<trkpt lat="-35.2797159" lon="148.9987641">
  <ele>653.39</ele>
  <time>2026-09-01T19:59:38Z</time>
  <course>294.74</course>
  <speed>25.72</speed>
  <fix>3d</fix>
</trkpt>
<trkpt lat="-35.2796879" lon="148.9986904">
  <ele>653.56</ele>
  <time>2026-09-01T19:59:38Z</time>
  <course>295.35</course>
  <speed>25.646364264745205</speed>
  <fix>3d</fix>
</trkpt>
<trkpt lat="-35.2797159" lon="148.9987641">
  <ele>653.39</ele>
  <time>2026-09-01T19:59:38Z</time>
  <course>294.74</course>
  <speed>25.72</speed>
  <fix>3d</fix>
</trkpt>
<trkpt lat="-35.2796783" lon="148.9986647">
  <ele>653.63</ele>
  <time>2026-09-01T19:59:38Z</time>
  <course>295.36</course>
  <speed>25.642170344961052</speed>
  <fix>3d</fix>
</trkpt>
<trkpt lat="-35.2796965" lon="148.9987127">
  <ele>653.53</ele>
  <time>2026-09-01T19:59:38Z</time>
  <course>294.74</course>
  <speed>25.7</speed>
  <fix>3d</fix>
</trkpt>
<trkpt lat="-35.2796686" lon="148.998639">
  <ele>653.7</ele>
  <time>2026-09-01T19:59:38Z</time>
  <course>295.31</course>
  <speed>25.633091893097877</speed>
  <fix>3d</fix>
</trkpt>
<trkpt lat="-35.2796965" lon="148.9987127">
  <ele>653.53</ele>
  <time>2026-09-01T19:59:38Z</time>
  <course>294.74</course>
  <speed>25.7</speed>
  <fix>3d</fix>
</trkpt>
<trkpt lat="-35.279659" lon="148.9986136">
  <ele>653.77</ele>
  <time>2026-09-01T19:59:38Z</time>
  <course>295.32</course>
  <speed>25.633091893097877</speed>
  <fix>3d</fix>
</trkpt>
<trkpt lat="-35.2796772" lon="148.9986614">
  <ele>653.67</ele>
  <time>2026-09-01T19:59:38Z</time>
  <course>294.75</course>
  <speed>25.69</speed>
  <fix>3d</fix>
</trkpt>
<trkpt lat="-35.2796494" lon="148.9985879">
  <ele>653.85</ele>
  <time>2026-09-01T19:59:38Z</time>
  <course>295.32</course>
  <speed>25.624014127376686</speed>
  <fix>3d</fix>
</trkpt>
<trkpt lat="-35.2796772" lon="148.9986614">
  <ele>653.67</ele>
  <time>2026-09-01T19:59:38Z</time>
  <course>294.75</course>
  <speed>25.69</speed>
  <fix>3d</fix>
</trkpt>
<trkpt lat="-35.2796397" lon="148.9985622">
  <ele>653.93</ele>
  <time>2026-09-01T19:59:38Z</time>
  <course>295.3</course>
  <speed>25.624014127376686</speed>
  <fix>3d</fix>
</trkpt>
<trkpt lat="-35.2796579" lon="148.99861">
  <ele>653.82</ele>
  <time>2026-09-01T19:59:38Z</time>
  <course>294.75</course>
  <speed>25.68</speed>
  <fix>3d</fix>
</trkpt>
<trkpt lat="-35.27963" lon="148.9985366">
  <ele>654.01</ele>
  <time>2026-09-01T19:59:38Z</time>
  <course>295.3</course>
  <speed>25.614937048526976</speed>
  <fix>3d</fix>
</trkpt>
<trkpt lat="-35.2796579" lon="148.99861">
  <ele>653.82</ele>
  <time>2026-09-01T19:59:38Z</time>
  <course>294.75</course>
  <speed>25.68</speed>
  <fix>3d</fix>
</trkpt>
<trkpt lat="-35.2796203" lon="148.9985107">
  <ele>654.09</ele>
  <time>2026-09-01T19:59:38Z</time>
  <course>295.32</course>
  <speed>25.614937048526976</speed>
  <fix>3d</fix>
</trkpt>
<trkpt lat="-35.2796386" lon="148.9985587">
  <ele>653.98</ele>
  <time>2026-09-01T19:59:38Z</time>
  <course>294.75</course>
  <speed>25.67</speed>
  <fix>3d</fix>
</trkpt>
<trkpt lat="-35.2796106" lon="148.998485">
  <ele>654.18</ele>
  <time>2026-09-01T19:59:38Z</time>
  <course>295.32</course>
  <speed>25.605860657279223</speed>
  <fix>3d</fix>
</trkpt>
<trkpt lat="-35.2796386" lon="148.9985587">
  <ele>653.98</ele>
  <time>2026-09-01T19:59:38Z</time>
  <course>294.75</course>
  <speed>25.67</speed>
  <fix>3d</fix>
</trkpt>
<trkpt lat="-35.279601" lon="148.9984594">
  <ele>654.26</ele>
  <time>2026-09-01T19:59:38Z</time>
  <course>295.35</course>
  <speed>25.605860657279223</speed>
  <fix>3d</fix>
</trkpt>
<trkpt lat="-35.2796193" lon="148.9985074">
  <ele>654.14</ele>
  <time>2026-09-01T19:59:38Z</time>
  <course>294.75</course>
  <speed>25.66</speed>
  <fix>3d</fix>
</trkpt>
<trkpt lat="-35.2795912" lon="148.9984335">
  <ele>654.35</ele>
  <time>2026-09-01T19:59:38Z</time>
  <course>295.37</course>
  <speed>25.596784954364875</speed>
  <fix>3d</fix>
</trkpt>
<trkpt lat="-35.2796193" lon="148.9985074">
  <ele>654.14</ele>
  <time>2026-09-01T19:59:38Z</time>
  <course>294.75</course>
  <speed>25.66</speed>
  <fix>3d</fix>
</trkpt>
<trkpt lat="-35.2795816" lon="148.9984079">
  <ele>654.43</ele>
  <time>2026-09-01T19:59:38Z</time>
  <course>295.37</course>
  <speed>25.592586817279724</speed>
  <fix>3d</fix>
</trkpt>
<trkpt lat="-35.2796" lon="148.9984562">
  <ele>654.31</ele>
  <time>2026-09-01T19:59:38Z</time>
  <course>294.76</course>
  <speed>25.65</speed>
  <fix>3d</fix>
</trkpt>
<trkpt lat="-35.2795719" lon="148.9983823">
  <ele>654.51</ele>
  <time>2026-09-01T19:59:38Z</time>
  <course>295.39</course>
  <speed>25.587709940516365</speed>
  <fix>3d</fix>
</trkpt>
<trkpt lat="-35.2796" lon="148.9984562">
  <ele>654.31</ele>
  <time>2026-09-01T19:59:38Z</time>
  <course>294.76</course>
  <speed>25.65</speed>
  <fix>3d</fix>
</trkpt>
<trkpt lat="-35.2795623" lon="148.9983566">
  <ele>654.6</ele>
  <time>2026-09-01T19:59:38Z</time>
  <course>295.44</course>
  <speed>25.587709940516365</speed>
  <fix>3d</fix>
</trkpt>
<trkpt lat="-35.2795807" lon="148.998405">
  <ele>654.48</ele>
  <time>2026-09-01T19:59:38Z</time>
  <course>294.76</course>
  <speed>25.64</speed>
  <fix>3d</fix>
</trkpt>
<trkpt lat="-35.2795526" lon="148.998331">
  <ele>654.69</ele>
  <time>2026-09-01T19:59:38Z</time>
  <course>295.46</course>
  <speed>25.587709940516365</speed>
  <fix>3d</fix>
</trkpt>
<trkpt lat="-35.2795807" lon="148.998405">
  <ele>654.48</ele>
  <time>2026-09-01T19:59:38Z</time>
  <course>294.76</course>
  <speed>25.64</speed>
  <fix>3d</fix>
</trkpt>
<trkpt lat="-35.2795429" lon="148.9983054">
  <ele>654.78</ele>
  <time>2026-09-01T19:59:38Z</time>
  <course>295.45</course>
  <speed>25.591912785096778</speed>
  <fix>3d</fix>
</trkpt>
<trkpt lat="-35.2795614" lon="148.9983536">
  <ele>654.65</ele>
  <time>2026-09-01T19:59:38Z</time>
  <course>294.78</course>
  <speed>25.63</speed>
  <fix>3d</fix>
</trkpt>
<trkpt lat="-35.2795333" lon="148.9982797">
  <ele>654.87</ele>
  <time>2026-09-01T19:59:38Z</time>
  <course>295.42</course>
  <speed>25.591912785096778</speed>
  <fix>3d</fix>
</trkpt>
<trkpt lat="-35.2795614" lon="148.9983536">
  <ele>654.65</ele>
  <time>2026-09-01T19:59:38Z</time>
  <course>294.78</course>
  <speed>25.63</speed>
  <fix>3d</fix>
</trkpt>
<trkpt lat="-35.2795236" lon="148.9982541">
  <ele>654.95</ele>
  <time>2026-09-01T19:59:38Z</time>
  <course>295.4</course>
  <speed>25.591912785096778</speed>
  <fix>3d</fix>
</trkpt>
<trkpt lat="-35.279542" lon="148.9983023">
  <ele>654.82</ele>
  <time>2026-09-01T19:59:38Z</time>
  <course>294.79</course>
  <speed>25.62</speed>
  <fix>3d</fix>
</trkpt>
<trkpt lat="-35.2795139" lon="148.9982284">
  <ele>655.04</ele>
  <time>2026-09-01T19:59:38Z</time>
  <course>295.44</course>
  <speed>25.591912785096778</speed>
  <fix>3d</fix>
</trkpt>
<trkpt lat="-35.279542" lon="148.9983023">
  <ele>654.82</ele>
  <time>2026-09-01T19:59:38Z</time>
  <course>294.79</course>
  <speed>25.62</speed>
  <fix>3d</fix>
</trkpt>
<trkpt lat="-35.2795042" lon="148.9982028">
  <ele>655.14</ele>
  <time>2026-09-01T19:59:38Z</time>
  <course>295.47</course>
  <speed>25.596118846418886</speed>
  <fix>3d</fix>
</trkpt>
<trkpt lat="-35.2795227" lon="148.9982511">
  <ele>655.0</ele>
  <time>2026-09-01T19:59:38Z</time>
  <course>294.8</course>
  <speed>25.62</speed>
  <fix>3d</fix>
</trkpt>
<trkpt lat="-35.2794945" lon="148.9981771">
  <ele>655.23</ele>
  <time>2026-09-01T19:59:38Z</time>
  <course>295.46</course>
  <speed>25.596118846418886</speed>
  <fix>3d</fix>
</trkpt>
<trkpt lat="-35.2795227" lon="148.9982511">
  <ele>655.0</ele>
  <time>2026-09-01T19:59:38Z</time>
  <course>294.8</course>
  <speed>25.62</speed>
  <fix>3d</fix>
</trkpt>
<trkpt lat="-35.2794848" lon="148.9981515">
  <ele>655.32</ele>
  <time>2026-09-01T19:59:38Z</time>
  <course>295.41</course>
  <speed>25.600328122897178</speed>
  <fix>3d</fix>
</trkpt>
<trkpt lat="-35.2795034" lon="148.9982">
  <ele>655.18</ele>
  <time>2026-09-01T19:59:38Z</time>
  <course>294.83</course>
  <speed>25.61</speed>
  <fix>3d</fix>
</trkpt>
<trkpt lat="-35.2794752" lon="148.9981258">
  <ele>655.41</ele>
  <time>2026-09-01T19:59:38Z</time>
  <course>295.37</course>
  <speed>25.60519087997588</speed>
  <fix>3d</fix>
</trkpt>
<trkpt lat="-35.2795034" lon="148.9982">
  <ele>655.18</ele>
  <time>2026-09-01T19:59:38Z</time>
  <course>294.83</course>
  <speed>25.61</speed>
  <fix>3d</fix>
</trkpt>
<trkpt lat="-35.2794655" lon="148.9981002">
  <ele>655.49</ele>
  <time>2026-09-01T19:59:38Z</time>
  <course>295.4</course>
  <speed>25.614263604484123</speed>
  <fix>3d</fix>
</trkpt>
<trkpt lat="-35.2794841" lon="148.9981488">
  <ele>655.36</ele>
  <time>2026-09-01T19:59:38Z</time>
  <course>294.83</course>
  <speed>25.61</speed>
  <fix>3d</fix>
</trkpt>
<trkpt lat="-35.2794559" lon="148.9980747">
  <ele>655.57</ele>
  <time>2026-09-01T19:59:38Z</time>
  <course>295.41</course>
  <speed>25.614263604484123</speed>
  <fix>3d</fix>
</trkpt>
<trkpt lat="-35.2794841" lon="148.9981488">
  <ele>655.36</ele>
  <time>2026-09-01T19:59:38Z</time>
  <course>294.83</course>
  <speed>25.61</speed>
  <fix>3d</fix>
</trkpt>
<trkpt lat="-35.2794462" lon="148.9980491">
  <ele>655.66</ele>
  <time>2026-09-01T19:59:38Z</time>
  <course>295.47</course>
  <speed>25.619135426473704</speed>
  <fix>3d</fix>
</trkpt>
<trkpt lat="-35.2794647" lon="148.9980977">
  <ele>655.53</ele>
  <time>2026-09-01T19:59:38Z</time>
  <course>294.81</course>
  <speed>25.62</speed>
  <fix>3d</fix>
</trkpt>
<trkpt lat="-35.2794365" lon="148.9980235">
  <ele>655.75</ele>
  <time>2026-09-01T19:59:38Z</time>
  <course>295.53</course>
  <speed>25.623337019209657</speed>
  <fix>3d</fix>
</trkpt>
<trkpt lat="-35.2794647" lon="148.9980977">
  <ele>655.53</ele>
  <time>2026-09-01T19:59:38Z</time>
  <course>294.81</course>
  <speed>25.62</speed>
  <fix>3d</fix>
</trkpt>
<trkpt lat="-35.2794269" lon="148.9979978">
  <ele>655.83</ele>
  <time>2026-09-01T19:59:38Z</time>
  <course>295.54</course>
  <speed>25.623337019209657</speed>
  <fix>3d</fix>
</trkpt>
<trkpt lat="-35.2794454" lon="148.9980465">
  <ele>655.69</ele>
  <time>2026-09-01T19:59:38Z</time>
  <course>294.8</course>
  <speed>25.62</speed>
  <fix>3d</fix>
</trkpt>
<trkpt lat="-35.2794171" lon="148.997972">
  <ele>655.93</ele>
  <time>2026-09-01T19:59:38Z</time>
  <course>295.53</course>
  <speed>25.623337019209657</speed>
  <fix>3d</fix>
</trkpt>
<trkpt lat="-35.2794454" lon="148.9980465">
  <ele>655.69</ele>
  <time>2026-09-01T19:59:38Z</time>
  <course>294.8</course>
  <speed>25.62</speed>
  <fix>3d</fix>
</trkpt>
<trkpt lat="-35.2794074" lon="148.9979463">
  <ele>656.01</ele>
  <time>2026-09-01T19:59:38Z</time>
  <course>295.47</course>
  <speed>25.623337019209657</speed>
  <fix>3d</fix>
</trkpt>
<trkpt lat="-35.2794261" lon="148.9979953">
  <ele>655.87</ele>
  <time>2026-09-01T19:59:38Z</time>
  <course>294.8</course>
  <speed>25.63</speed>
  <fix>3d</fix>
</trkpt>
<trkpt lat="-35.2793978" lon="148.9979207">
  <ele>656.1</ele>
  <time>2026-09-01T19:59:38Z</time>
  <course>295.4</course>
  <speed>25.632411123419505</speed>
  <fix>3d</fix>
</trkpt>
<trkpt lat="-35.2794261" lon="148.9979953">
  <ele>655.87</ele>
  <time>2026-09-01T19:59:38Z</time>
  <course>294.8</course>
  <speed>25.63</speed>
  <fix>3d</fix>
</trkpt>
<trkpt lat="-35.2793881" lon="148.9978951">
  <ele>656.19</ele>
  <time>2026-09-01T19:59:38Z</time>
  <course>295.4</course>
  <speed>25.632411123419505</speed>
  <fix>3d</fix>
</trkpt>
<trkpt lat="-35.2794068" lon="148.9979442">
  <ele>656.04</ele>
  <time>2026-09-01T19:59:38Z</time>
  <course>294.8</course>
  <speed>25.63</speed>
  <fix>3d</fix>
</trkpt>
<trkpt lat="-35.2793784" lon="148.9978694">
  <ele>656.27</ele>
  <time>2026-09-01T19:59:38Z</time>
  <course>295.45</course>
  <speed>25.632411123419505</speed>
  <fix>3d</fix>
</trkpt>
<trkpt lat="-35.2794068" lon="148.9979442">
  <ele>656.04</ele>
  <time>2026-09-01T19:59:38Z</time>
  <course>294.8</course>
  <speed>25.63</speed>
  <fix>3d</fix>
</trkpt>
<trkpt lat="-35.2793688" lon="148.9978438">
  <ele>656.35</ele>
  <time>2026-09-01T19:59:39Z</time>
  <course>295.47</course>
  <speed>25.64148591638168</speed>
  <fix>3d</fix>
</trkpt>
<trkpt lat="-35.2793875" lon="148.9978929">
  <ele>656.21</ele>
  <time>2026-09-01T19:59:39Z</time>
  <course>294.79</course>
  <speed>25.63</speed>
  <fix>3d</fix>
</trkpt>
<trkpt lat="-35.2793591" lon="148.9978182">
  <ele>656.43</ele>
  <time>2026-09-01T19:59:39Z</time>
  <course>295.49</course>
  <speed>25.645687746675854</speed>
  <fix>3d</fix>
</trkpt>
<trkpt lat="-35.2793875" lon="148.9978929">
  <ele>656.21</ele>
  <time>2026-09-01T19:59:39Z</time>
  <course>294.79</course>
  <speed>25.63</speed>
  <fix>3d</fix>
</trkpt>
<trkpt lat="-35.2793494" lon="148.9977925">
  <ele>656.5</ele>
  <time>2026-09-01T19:59:39Z</time>
  <course>295.47</course>
  <speed>25.645687746675854</speed>
  <fix>3d</fix>
</trkpt>
<trkpt lat="-35.2793682" lon="148.9978418">
  <ele>656.37</ele>
  <time>2026-09-01T19:59:39Z</time>
  <course>294.79</course>
  <speed>25.64</speed>
  <fix>3d</fix>
</trkpt>
<trkpt lat="-35.2793398" lon="148.9977669">
  <ele>656.57</ele>
  <time>2026-09-01T19:59:39Z</time>
  <course>295.43</course>
  <speed>25.65476174124406</speed>
  <fix>3d</fix>
</trkpt>
<trkpt lat="-35.2793682" lon="148.9978418">
  <ele>656.37</ele>
  <time>2026-09-01T19:59:39Z</time>
  <course>294.79</course>
  <speed>25.64</speed>
  <fix>3d</fix>
</trkpt>
<trkpt lat="-35.2793301" lon="148.9977413">
  <ele>656.64</ele>
  <time>2026-09-01T19:59:39Z</time>
  <course>295.46</course>
  <speed>25.663836424042298</speed>
  <fix>3d</fix>
</trkpt>
<trkpt lat="-35.2793488" lon="148.9977904">
  <ele>656.52</ele>
  <time>2026-09-01T19:59:39Z</time>
  <course>294.81</course>
  <speed>25.65</speed>
  <fix>3d</fix>
</trkpt>
<trkpt lat="-35.2793203" lon="148.9977154">
  <ele>656.71</ele>
  <time>2026-09-01T19:59:39Z</time>
  <course>295.43</course>
  <speed>25.66803849147807</speed>
  <fix>3d</fix>
</trkpt>
<trkpt lat="-35.2793488" lon="148.9977904">
  <ele>656.52</ele>
  <time>2026-09-01T19:59:39Z</time>
  <course>294.81</course>
  <speed>25.65</speed>
  <fix>3d</fix>
</trkpt>
<trkpt lat="-35.2793106" lon="148.9976897">
  <ele>656.77</ele>
  <time>2026-09-01T19:59:39Z</time>
  <course>295.44</course>
  <speed>25.67711237658939</speed>
  <fix>3d</fix>
</trkpt>
<trkpt lat="-35.2793294" lon="148.9977391">
  <ele>656.67</ele>
  <time>2026-09-01T19:59:39Z</time>
  <course>294.81</course>
  <speed>25.66</speed>
  <fix>3d</fix>
</trkpt>
<trkpt lat="-35.279301" lon="148.9976641">
  <ele>656.84</ele>
  <time>2026-09-01T19:59:39Z</time>
  <course>295.5</course>
  <speed>25.67711237658939</speed>
  <fix>3d</fix>
</trkpt>
<trkpt lat="-35.2793294" lon="148.9977391">
  <ele>656.67</ele>
  <time>2026-09-01T19:59:39Z</time>
  <course>294.81</course>
  <speed>25.66</speed>
  <fix>3d</fix>
</trkpt>
<trkpt lat="-35.2792913" lon="148.9976384">
  <ele>656.9</ele>
  <time>2026-09-01T19:59:39Z</time>
  <course>295.48</course>
  <speed>25.69038925357107</speed>
  <fix>3d</fix>
</trkpt>
<trkpt lat="-35.27931" lon="148.9976878">
  <ele>656.8</ele>
  <time>2026-09-01T19:59:39Z</time>
  <course>294.81</course>
  <speed>25.67</speed>
  <fix>3d</fix>
</trkpt>
<trkpt lat="-35.2792815" lon="148.9976127">
  <ele>656.96</ele>
  <time>2026-09-01T19:59:39Z</time>
  <course>295.42</course>
  <speed>25.699463029409777</speed>
  <fix>3d</fix>
</trkpt>
<trkpt lat="-35.27931" lon="148.9976878">
  <ele>656.8</ele>
  <time>2026-09-01T19:59:39Z</time>
  <course>294.81</course>
  <speed>25.67</speed>
  <fix>3d</fix>
</trkpt>
<trkpt lat="-35.2792718" lon="148.997587">
  <ele>657.01</ele>
  <time>2026-09-01T19:59:39Z</time>
  <course>295.46</course>
  <speed>25.712740032909757</speed>
  <fix>3d</fix>
</trkpt>
<trkpt lat="-35.2792907" lon="148.9976366">
  <ele>656.93</ele>
  <time>2026-09-01T19:59:39Z</time>
  <course>294.82</course>
  <speed>25.68</speed>
  <fix>3d</fix>
</trkpt>
<trkpt lat="-35.2792622" lon="148.9975614">
  <ele>657.06</ele>
  <time>2026-09-01T19:59:39Z</time>
  <course>295.49</course>
  <speed>25.721813699659673</speed>
  <fix>3d</fix>
</trkpt>
<trkpt lat="-35.2792907" lon="148.9976366">
  <ele>656.93</ele>
  <time>2026-09-01T19:59:39Z</time>
  <course>294.82</course>
  <speed>25.68</speed>
  <fix>3d</fix>
</trkpt>
<trkpt lat="-35.2792525" lon="148.9975357">
  <ele>657.11</ele>
  <time>2026-09-01T19:59:39Z</time>
  <course>295.5</course>
  <speed>25.721813699659673</speed>
  <fix>3d</fix>
</trkpt>
<trkpt lat="-35.2792714" lon="148.9975853">
  <ele>657.04</ele>
  <time>2026-09-01T19:59:39Z</time>
  <course>294.81</course>
  <speed>25.69</speed>
  <fix>3d</fix>
</trkpt>
<trkpt lat="-35.2792428" lon="148.99751">
  <ele>657.15</ele>
  <time>2026-09-01T19:59:39Z</time>
  <course>295.5</course>
  <speed>25.744164387293676</speed>
  <fix>3d</fix>
</trkpt>
<trkpt lat="-35.2792714" lon="148.9975853">
  <ele>657.04</ele>
  <time>2026-09-01T19:59:39Z</time>
  <course>294.81</course>
  <speed>25.69</speed>
  <fix>3d</fix>
</trkpt>
<trkpt lat="-35.2792331" lon="148.9974842">
  <ele>657.2</ele>
  <time>2026-09-01T19:59:39Z</time>
  <course>295.46</course>
  <speed>25.744164387293676</speed>
  <fix>3d</fix>
</trkpt>
<trkpt lat="-35.279252" lon="148.9975339">
  <ele>657.13</ele>
  <time>2026-09-01T19:59:39Z</time>
  <course>294.81</course>
  <speed>25.71</speed>
  <fix>3d</fix>
</trkpt>
<trkpt lat="-35.2792233" lon="148.9974585">
  <ele>657.24</ele>
  <time>2026-09-01T19:59:39Z</time>
  <course>295.46</course>
  <speed>25.753238631286745</speed>
  <fix>3d</fix>
</trkpt>
<trkpt lat="-35.279252" lon="148.9975339">
  <ele>657.13</ele>
  <time>2026-09-01T19:59:39Z</time>
  <course>294.81</course>
  <speed>25.71</speed>
  <fix>3d</fix>
</trkpt>
<trkpt lat="-35.2792135" lon="148.9974325">
  <ele>657.28</ele>
  <time>2026-09-01T19:59:39Z</time>
  <course>295.46</course>
  <speed>25.77138917481943</speed>
  <fix>3d</fix>
</trkpt>
<trkpt lat="-35.2792326" lon="148.9974826">
  <ele>657.22</ele>
  <time>2026-09-01T19:59:39Z</time>
  <course>294.8</course>
  <speed>25.73</speed>
  <fix>3d</fix>
</trkpt>
<trkpt lat="-35.2792038" lon="148.9974067">
  <ele>657.32</ele>
  <time>2026-09-01T19:59:39Z</time>
  <course>295.45</course>
  <speed>25.784664046677047</speed>
  <fix>3d</fix>
</trkpt>
<trkpt lat="-35.2792326" lon="148.9974826">
  <ele>657.22</ele>
  <time>2026-09-01T19:59:39Z</time>
  <course>294.8</course>
  <speed>25.73</speed>
  <fix>3d</fix>
</trkpt>
<trkpt lat="-35.2791941" lon="148.997381">
  <ele>657.35</ele>
  <time>2026-09-01T19:59:39Z</time>
  <course>295.4</course>
  <speed>25.784664046677047</speed>
  <fix>3d</fix>
</trkpt>
<trkpt lat="-35.2792132" lon="148.9974312">
  <ele>657.31</ele>
  <time>2026-09-01T19:59:39Z</time>
  <course>294.8</course>
  <speed>25.75</speed>
  <fix>3d</fix>
</trkpt>
<trkpt lat="-35.2791845" lon="148.9973554">
  <ele>657.38</ele>
  <time>2026-09-01T19:59:39Z</time>
  <course>295.44</course>
  <speed>25.793739550518843</speed>
  <fix>3d</fix>
</trkpt>
<trkpt lat="-35.2792132" lon="148.9974312">
  <ele>657.31</ele>
  <time>2026-09-01T19:59:39Z</time>
  <course>294.8</course>
  <speed>25.75</speed>
  <fix>3d</fix>
</trkpt>
<trkpt lat="-35.2791748" lon="148.9973297">
  <ele>657.41</ele>
  <time>2026-09-01T19:59:39Z</time>
  <course>295.41</course>
  <speed>25.793739550518843</speed>
  <fix>3d</fix>
</trkpt>
<trkpt lat="-35.2791938" lon="148.9973797">
  <ele>657.38</ele>
  <time>2026-09-01T19:59:39Z</time>
  <course>294.79</course>
  <speed>25.77</speed>
  <fix>3d</fix>
</trkpt>
<trkpt lat="-35.2791651" lon="148.9973041">
  <ele>657.43</ele>
  <time>2026-09-01T19:59:39Z</time>
  <course>295.37</course>
  <speed>25.793739550518843</speed>
  <fix>3d</fix>
</trkpt>
<trkpt lat="-35.2791938" lon="148.9973797">
  <ele>657.38</ele>
  <time>2026-09-01T19:59:39Z</time>
  <course>294.79</course>
  <speed>25.77</speed>
  <fix>3d</fix>
</trkpt>
<trkpt lat="-35.2791555" lon="148.9972785">
  <ele>657.46</ele>
  <time>2026-09-01T19:59:39Z</time>
  <course>295.35</course>
  <speed>25.793739550518843</speed>
  <fix>3d</fix>
</trkpt>
<trkpt lat="-35.2791744" lon="148.9973282">
  <ele>657.43</ele>
  <time>2026-09-01T19:59:39Z</time>
  <course>294.78</course>
  <speed>25.79</speed>
  <fix>3d</fix>
</trkpt>
<trkpt lat="-35.2791458" lon="148.9972528">
  <ele>657.48</ele>
  <time>2026-09-01T19:59:39Z</time>
  <course>295.41</course>
  <speed>25.793739550518843</speed>
  <fix>3d</fix>
</trkpt>
<trkpt lat="-35.2791744" lon="148.9973282">
  <ele>657.43</ele>
  <time>2026-09-01T19:59:39Z</time>
  <course>294.78</course>
  <speed>25.79</speed>
  <fix>3d</fix>
</trkpt>
<trkpt lat="-35.2791361" lon="148.9972272">
  <ele>657.51</ele>
  <time>2026-09-01T19:59:39Z</time>
  <course>295.41</course>
  <speed>25.793739550518843</speed>
  <fix>3d</fix>
</trkpt>
<trkpt lat="-35.2791549" lon="148.9972766">
  <ele>657.49</ele>
  <time>2026-09-01T19:59:39Z</time>
  <course>294.78</course>
  <speed>25.8</speed>
  <fix>3d</fix>
</trkpt>
<trkpt lat="-35.2791264" lon="148.9972015">
  <ele>657.53</ele>
  <time>2026-09-01T19:59:39Z</time>
  <course>295.37</course>
  <speed>25.797939840227556</speed>
  <fix>3d</fix>
</trkpt>
<trkpt lat="-35.2791549" lon="148.9972766">
  <ele>657.49</ele>
  <time>2026-09-01T19:59:39Z</time>
  <course>294.78</course>
  <speed>25.8</speed>
  <fix>3d</fix>
</trkpt>
<trkpt lat="-35.2791168" lon="148.9971759">
  <ele>657.55</ele>
  <time>2026-09-01T19:59:39Z</time>
  <course>295.37</course>
  <speed>25.807014550311706</speed>
  <fix>3d</fix>
</trkpt>
<trkpt lat="-35.2791354" lon="148.9972249">
  <ele>657.54</ele>
  <time>2026-09-01T19:59:39Z</time>
  <course>294.78</course>
  <speed>25.82</speed>
  <fix>3d</fix>
</trkpt>
<trkpt lat="-35.2791071" lon="148.9971502">
  <ele>657.57</ele>
  <time>2026-09-01T19:59:39Z</time>
  <course>295.42</course>
  <speed>25.807014550311706</speed>
  <fix>3d</fix>
</trkpt>
<trkpt lat="-35.2791354" lon="148.9972249">
  <ele>657.54</ele>
  <time>2026-09-01T19:59:39Z</time>
  <course>294.78</course>
  <speed>25.82</speed>
  <fix>3d</fix>
</trkpt>
<trkpt lat="-35.2790974" lon="148.9971245">
  <ele>657.59</ele>
  <time>2026-09-01T19:59:39Z</time>
  <course>295.4</course>
  <speed>25.811216554048748</speed>
  <fix>3d</fix>
</trkpt>
<trkpt lat="-35.279116" lon="148.9971734">
  <ele>657.57</ele>
  <time>2026-09-01T19:59:39Z</time>
  <course>294.79</course>
  <speed>25.83</speed>
  <fix>3d</fix>
</trkpt>
<trkpt lat="-35.2790877" lon="148.9970988">
  <ele>657.6</ele>
  <time>2026-09-01T19:59:39Z</time>
  <course>295.42</course>
  <speed>25.815421747474897</speed>
  <fix>3d</fix>
</trkpt>
<trkpt lat="-35.279116" lon="148.9971734">
  <ele>657.57</ele>
  <time>2026-09-01T19:59:39Z</time>
  <course>294.79</course>
  <speed>25.83</speed>
  <fix>3d</fix>
</trkpt>
<trkpt lat="-35.279078" lon="148.9970731">
  <ele>657.61</ele>
  <time>2026-09-01T19:59:39Z</time>
  <course>295.44</course>
  <speed>25.815421747474897</speed>
  <fix>3d</fix>
</trkpt>
<trkpt lat="-35.2790965" lon="148.9971217">
  <ele>657.61</ele>
  <time>2026-09-01T19:59:39Z</time>
  <course>294.8</course>
  <speed>25.85</speed>
  <fix>3d</fix>
</trkpt>
<trkpt lat="-35.2790682" lon="148.9970473">
  <ele>657.61</ele>
  <time>2026-09-01T19:59:39Z</time>
  <course>295.48</course>
  <speed>25.828701090066453</speed>
  <fix>3d</fix>
</trkpt>
<trkpt lat="-35.2790965" lon="148.9971217">
  <ele>657.61</ele>
  <time>2026-09-01T19:59:39Z</time>
  <course>294.8</course>
  <speed>25.85</speed>
  <fix>3d</fix>
</trkpt>
<trkpt lat="-35.2790585" lon="148.9970216">
  <ele>657.62</ele>
  <time>2026-09-01T19:59:39Z</time>
  <course>295.51</course>
  <speed>25.823841697160397</speed>
  <fix>3d</fix>
</trkpt>
<trkpt lat="-35.279077" lon="148.9970701">
  <ele>657.64</ele>
  <time>2026-09-01T19:59:39Z</time>
  <course>294.82</course>
  <speed>25.86</speed>
  <fix>3d</fix>
</trkpt>
<trkpt lat="-35.2790488" lon="148.9969959">
  <ele>657.63</ele>
  <time>2026-09-01T19:59:39Z</time>
  <course>295.47</course>
  <speed>25.837124453003668</speed>
  <fix>3d</fix>
</trkpt>
<trkpt lat="-35.279077" lon="148.9970701">
  <ele>657.64</ele>
  <time>2026-09-01T19:59:39Z</time>
  <course>294.82</course>
  <speed>25.86</speed>
  <fix>3d</fix>
</trkpt>
<trkpt lat="-35.279039" lon="148.9969701">
  <ele>657.63</ele>
  <time>2026-09-01T19:59:39Z</time>
  <course>295.42</course>
  <speed>25.84134090948068</speed>
  <fix>3d</fix>
</trkpt>
<trkpt lat="-35.2790575" lon="148.9970184">
  <ele>657.66</ele>
  <time>2026-09-01T19:59:39Z</time>
  <course>294.85</course>
  <speed>25.88</speed>
  <fix>3d</fix>
</trkpt>
<trkpt lat="-35.2790292" lon="148.9969443">
  <ele>657.64</ele>
  <time>2026-09-01T19:59:39Z</time>
  <course>295.39</course>
  <speed>25.85040812056939</speed>
  <fix>3d</fix>
</trkpt>
<trkpt lat="-35.2790575" lon="148.9970184">
  <ele>657.66</ele>
  <time>2026-09-01T19:59:39Z</time>
  <course>294.85</course>
  <speed>25.88</speed>
  <fix>3d</fix>
</trkpt>
<trkpt lat="-35.2790194" lon="148.9969183">
  <ele>657.64</ele>
  <time>2026-09-01T19:59:39Z</time>
  <course>295.41</course>
  <speed>25.85040812056939</speed>
  <fix>3d</fix>
</trkpt>
<trkpt lat="-35.279038" lon="148.9969667">
  <ele>657.67</ele>
  <time>2026-09-01T19:59:39Z</time>
  <course>294.87</course>
  <speed>25.9</speed>
  <fix>3d</fix>
</trkpt>
<trkpt lat="-35.2790096" lon="148.9968925">
  <ele>657.63</ele>
  <time>2026-09-01T19:59:39Z</time>
  <course>295.44</course>
  <speed>25.863692698452788</speed>
  <fix>3d</fix>
</trkpt>
<trkpt lat="-35.279038" lon="148.9969667">
  <ele>657.67</ele>
  <time>2026-09-01T19:59:39Z</time>
  <course>294.87</course>
  <speed>25.9</speed>
  <fix>3d</fix>
</trkpt>
<trkpt lat="-35.2789999" lon="148.9968667">
  <ele>657.63</ele>
  <time>2026-09-01T19:59:39Z</time>
  <course>295.48</course>
  <speed>25.863692698452788</speed>
  <fix>3d</fix>
</trkpt>
<trkpt lat="-35.2790184" lon="148.996915">
  <ele>657.68</ele>
  <time>2026-09-01T19:59:39Z</time>
  <course>294.88</course>
  <speed>25.92</speed>
  <fix>3d</fix>
</trkpt>
<trkpt lat="-35.2789901" lon="148.9968409">
  <ele>657.63</ele>
  <time>2026-09-01T19:59:39Z</time>
  <course>295.38</course>
  <speed>25.872759806406428</speed>
  <fix>3d</fix>
</trkpt>
<trkpt lat="-35.2790184" lon="148.996915">
  <ele>657.68</ele>
  <time>2026-09-01T19:59:39Z</time>
  <course>294.88</course>
  <speed>25.92</speed>
  <fix>3d</fix>
</trkpt>
<trkpt lat="-35.2789803" lon="148.9968151">
  <ele>657.62</ele>
  <time>2026-09-01T19:59:39Z</time>
  <course>295.32</course>
  <speed>25.872759806406428</speed>
  <fix>3d</fix>
</trkpt>
<trkpt lat="-35.2789987" lon="148.9968633">
  <ele>657.67</ele>
  <time>2026-09-01T19:59:39Z</time>
  <course>294.89</course>
  <speed>25.93</speed>
  <fix>3d</fix>
</trkpt>
<trkpt lat="-35.2789705" lon="148.9967893">
  <ele>657.61</ele>
  <time>2026-09-01T19:59:39Z</time>
  <course>295.35</course>
  <speed>25.868544605369667</speed>
  <fix>3d</fix>
</trkpt>
<trkpt lat="-35.2789987" lon="148.9968633">
  <ele>657.67</ele>
  <time>2026-09-01T19:59:39Z</time>
  <course>294.89</course>
  <speed>25.93</speed>
  <fix>3d</fix>
</trkpt>
<trkpt lat="-35.2789607" lon="148.9967634">
  <ele>657.6</ele>
  <time>2026-09-01T19:59:39Z</time>
  <course>295.33</course>
  <speed>25.877613877635625</speed>
  <fix>3d</fix>
</trkpt>
<trkpt lat="-35.2789791" lon="148.9968114">
  <ele>657.66</ele>
  <time>2026-09-01T19:59:39Z</time>
  <course>294.88</course>
  <speed>25.94</speed>
  <fix>3d</fix>
</trkpt>
<trkpt lat="-35.2789509" lon="148.9967375">
  <ele>657.59</ele>
  <time>2026-09-01T19:59:39Z</time>
  <course>295.39</course>
  <speed>25.877613877635625</speed>
  <fix>3d</fix>
</trkpt>
<trkpt lat="-35.2789791" lon="148.9968114">
  <ele>657.66</ele>
  <time>2026-09-01T19:59:39Z</time>
  <course>294.88</course>
  <speed>25.94</speed>
  <fix>3d</fix>
</trkpt>
<trkpt lat="-35.2789412" lon="148.9967117">
  <ele>657.58</ele>
  <time>2026-09-01T19:59:39Z</time>
  <course>295.42</course>
  <speed>25.88668383551667</speed>
  <fix>3d</fix>
</trkpt>
<trkpt lat="-35.2789596" lon="148.9967596">
  <ele>657.65</ele>
  <time>2026-09-01T19:59:39Z</time>
  <course>294.85</course>
  <speed>25.95</speed>
  <fix>3d</fix>
</trkpt>
<trkpt lat="-35.2789314" lon="148.9966858">
  <ele>657.57</ele>
  <time>2026-09-01T19:59:39Z</time>
  <course>295.41</course>
  <speed>25.88668383551667</speed>
  <fix>3d</fix>
</trkpt>
<trkpt lat="-35.2789596" lon="148.9967596">
  <ele>657.65</ele>
  <time>2026-09-01T19:59:39Z</time>
  <course>294.85</course>
  <speed>25.95</speed>
  <fix>3d</fix>
</trkpt>
<trkpt lat="-35.2789216" lon="148.9966599">
  <ele>657.55</ele>
  <time>2026-09-01T19:59:39Z</time>
  <course>295.4</course>
  <speed>25.88668383551667</speed>
  <fix>3d</fix>
</trkpt>
<trkpt lat="-35.2789399" lon="148.9967078">
  <ele>657.63</ele>
  <time>2026-09-01T19:59:39Z</time>
  <course>294.84</course>
  <speed>25.95</speed>
  <fix>3d</fix>
</trkpt>
<trkpt lat="-35.2789118" lon="148.996634">
  <ele>657.53</ele>
  <time>2026-09-01T19:59:39Z</time>
  <course>295.39</course>
  <speed>25.895754478292382</speed>
  <fix>3d</fix>
</trkpt>
<trkpt lat="-35.2789399" lon="148.9967078">
  <ele>657.63</ele>
  <time>2026-09-01T19:59:39Z</time>
  <course>294.84</course>
  <speed>25.95</speed>
  <fix>3d</fix>
</trkpt>
<trkpt lat="-35.278902" lon="148.9966081">
  <ele>657.51</ele>
  <time>2026-09-01T19:59:39Z</time>
  <course>295.42</course>
  <speed>25.895754478292382</speed>
  <fix>3d</fix>
</trkpt>
<trkpt lat="-35.2789202" lon="148.9966559">
  <ele>657.6</ele>
  <time>2026-09-01T19:59:39Z</time>
  <course>294.83</course>
  <speed>25.96</speed>
  <fix>3d</fix>
</trkpt>
<trkpt lat="-35.2788922" lon="148.9965822">
  <ele>657.49</ele>
  <time>2026-09-01T19:59:39Z</time>
  <course>295.43</course>
  <speed>25.895754478292382</speed>
  <fix>3d</fix>
</trkpt>
<trkpt lat="-35.2789202" lon="148.9966559">
  <ele>657.6</ele>
  <time>2026-09-01T19:59:39Z</time>
  <course>294.83</course>
  <speed>25.96</speed>
  <fix>3d</fix>
</trkpt>
<trkpt lat="-35.2788824" lon="148.9965563">
  <ele>657.47</ele>
  <time>2026-09-01T19:59:39Z</time>
  <course>295.44</course>
  <speed>25.904825805243316</speed>
  <fix>3d</fix>
</trkpt>
<trkpt lat="-35.2789007" lon="148.996604">
  <ele>657.57</ele>
  <time>2026-09-01T19:59:39Z</time>
  <course>294.82</course>
  <speed>25.96</speed>
  <fix>3d</fix>
</trkpt>
<trkpt lat="-35.2788726" lon="148.9965304">
  <ele>657.45</ele>
  <time>2026-09-01T19:59:39Z</time>
  <course>295.42</course>
  <speed>25.904825805243316</speed>
  <fix>3d</fix>
</trkpt>
<trkpt lat="-35.2789007" lon="148.996604">
  <ele>657.57</ele>
  <time>2026-09-01T19:59:39Z</time>
  <course>294.82</course>
  <speed>25.96</speed>
  <fix>3d</fix>
</trkpt>
<trkpt lat="-35.2788629" lon="148.9965044">
  <ele>657.42</ele>
  <time>2026-09-01T19:59:39Z</time>
  <course>295.33</course>
  <speed>25.913897815650966</speed>
  <fix>3d</fix>
</trkpt>
<trkpt lat="-35.2788812" lon="148.9965522">
  <ele>657.53</ele>
  <time>2026-09-01T19:59:39Z</time>
  <course>294.83</course>
  <speed>25.97</speed>
  <fix>3d</fix>
</trkpt>
<trkpt lat="-35.2788531" lon="148.9964785">
  <ele>657.39</ele>
  <time>2026-09-01T19:59:39Z</time>
  <course>295.28</course>
  <speed>25.913897815650966</speed>
  <fix>3d</fix>
</trkpt>
<trkpt lat="-35.2788812" lon="148.9965522">
  <ele>657.53</ele>
  <time>2026-09-01T19:59:39Z</time>
  <course>294.83</course>
  <speed>25.97</speed>
  <fix>3d</fix>
</trkpt>
<trkpt lat="-35.2788433" lon="148.9964525">
  <ele>657.36</ele>
  <time>2026-09-01T19:59:39Z</time>
  <course>295.31</course>
  <speed>25.918767331800332</speed>
  <fix>3d</fix>
</trkpt>
<trkpt lat="-35.2788616" lon="148.9965003">
  <ele>657.48</ele>
  <time>2026-09-01T19:59:39Z</time>
  <course>294.82</course>
  <speed>25.97</speed>
  <fix>3d</fix>
</trkpt>
<trkpt lat="-35.2788335" lon="148.9964266">
  <ele>657.32</ele>
  <time>2026-09-01T19:59:39Z</time>
  <course>295.29</course>
  <speed>25.914567331908128</speed>
  <fix>3d</fix>
</trkpt>
<trkpt lat="-35.2788616" lon="148.9965003">
  <ele>657.48</ele>
  <time>2026-09-01T19:59:39Z</time>
  <course>294.82</course>
  <speed>25.97</speed>
  <fix>3d</fix>
</trkpt>
<trkpt lat="-35.2788237" lon="148.9964007">
  <ele>657.29</ele>
  <time>2026-09-01T19:59:39Z</time>
  <course>295.3</course>
  <speed>25.923643648221983</speed>
  <fix>3d</fix>
</trkpt>
<trkpt lat="-35.278842" lon="148.9964484">
  <ele>657.42</ele>
  <time>2026-09-01T19:59:39Z</time>
  <course>294.8</course>
  <speed>25.97</speed>
  <fix>3d</fix>
</trkpt>
<trkpt lat="-35.2788141" lon="148.9963749">
  <ele>657.26</ele>
  <time>2026-09-01T19:59:39Z</time>
  <course>295.33</course>
  <speed>25.923643648221983</speed>
  <fix>3d</fix>
</trkpt>
<trkpt lat="-35.278842" lon="148.9964484">
  <ele>657.42</ele>
  <time>2026-09-01T19:59:39Z</time>
  <course>294.8</course>
  <speed>25.97</speed>
  <fix>3d</fix>
</trkpt>
<trkpt lat="-35.2788043" lon="148.996349">
  <ele>657.22</ele>
  <time>2026-09-01T19:59:39Z</time>
  <course>295.32</course>
  <speed>25.923643648221983</speed>
  <fix>3d</fix>
</trkpt>
<trkpt lat="-35.2788224" lon="148.9963966">
  <ele>657.35</ele>
  <time>2026-09-01T19:59:39Z</time>
  <course>294.77</course>
  <speed>25.97</speed>
  <fix>3d</fix>
</trkpt>
<trkpt lat="-35.2787945" lon="148.996323">
  <ele>657.19</ele>
  <time>2026-09-01T19:59:39Z</time>
  <course>295.34</course>
  <speed>25.91037051066619</speed>
  <fix>3d</fix>
</trkpt>
<trkpt lat="-35.2788224" lon="148.9963966">
  <ele>657.35</ele>
  <time>2026-09-01T19:59:39Z</time>
  <course>294.77</course>
  <speed>25.97</speed>
  <fix>3d</fix>
</trkpt>
<trkpt lat="-35.2787848" lon="148.9962971">
  <ele>657.15</ele>
  <time>2026-09-01T19:59:39Z</time>
  <course>295.31</course>
  <speed>25.91037051066619</speed>
  <fix>3d</fix>
</trkpt>
<trkpt lat="-35.2788029" lon="148.9963447">
  <ele>657.28</ele>
  <time>2026-09-01T19:59:39Z</time>
  <course>294.76</course>
  <speed>25.97</speed>
  <fix>3d</fix>
</trkpt>
<trkpt lat="-35.2787748" lon="148.9962707">
  <ele>657.11</ele>
  <time>2026-09-01T19:59:39Z</time>
  <course>295.31</course>
  <speed>25.91037051066619</speed>
  <fix>3d</fix>
</trkpt>
<trkpt lat="-35.2788029" lon="148.9963447">
  <ele>657.28</ele>
  <time>2026-09-01T19:59:39Z</time>
  <course>294.76</course>
  <speed>25.97</speed>
  <fix>3d</fix>
</trkpt>
<trkpt lat="-35.2787651" lon="148.9962448">
  <ele>657.07</ele>
  <time>2026-09-01T19:59:39Z</time>
  <course>295.33</course>
  <speed>25.91037051066619</speed>
  <fix>3d</fix>
</trkpt>
<trkpt lat="-35.2787833" lon="148.9962928">
  <ele>657.2</ele>
  <time>2026-09-01T19:59:39Z</time>
  <course>294.76</course>
  <speed>25.96</speed>
  <fix>3d</fix>
</trkpt>
<trkpt lat="-35.2787553" lon="148.9962189">
  <ele>657.03</ele>
  <time>2026-09-01T19:59:39Z</time>
  <course>295.35</course>
  <speed>25.90129340399819</speed>
  <fix>3d</fix>
</trkpt>
<trkpt lat="-35.2787833" lon="148.9962928">
  <ele>657.2</ele>
  <time>2026-09-01T19:59:39Z</time>
  <course>294.76</course>
  <speed>25.96</speed>
  <fix>3d</fix>
</trkpt>
<trkpt lat="-35.2787455" lon="148.9961929">
  <ele>656.99</ele>
  <time>2026-09-01T19:59:39Z</time>
  <course>295.31</course>
  <speed>25.90129340399819</speed>
  <fix>3d</fix>
</trkpt>
<trkpt lat="-35.2787638" lon="148.9962409">
  <ele>657.13</ele>
  <time>2026-09-01T19:59:39Z</time>
  <course>294.76</course>
  <speed>25.95</speed>
  <fix>3d</fix>
</trkpt>
<trkpt lat="-35.2787358" lon="148.996167">
  <ele>656.94</ele>
  <time>2026-09-01T19:59:39Z</time>
  <course>295.31</course>
  <speed>25.90129340399819</speed>
  <fix>3d</fix>
</trkpt>
<trkpt lat="-35.2787638" lon="148.9962409">
  <ele>657.13</ele>
  <time>2026-09-01T19:59:39Z</time>
  <course>294.76</course>
  <speed>25.95</speed>
  <fix>3d</fix>
</trkpt>
<trkpt lat="-35.278726" lon="148.996141">
  <ele>656.88</ele>
  <time>2026-09-01T19:59:39Z</time>
  <course>295.31</course>
  <speed>25.914567331908128</speed>
  <fix>3d</fix>
</trkpt>
<trkpt lat="-35.2787443" lon="148.996189">
  <ele>657.05</ele>
  <time>2026-09-01T19:59:39Z</time>
  <course>294.77</course>
  <speed>25.95</speed>
  <fix>3d</fix>
</trkpt>
<trkpt lat="-35.2787162" lon="148.996115">
  <ele>656.83</ele>
  <time>2026-09-01T19:59:39Z</time>
  <course>295.3</course>
  <speed>25.90129340399819</speed>
  <fix>3d</fix>
</trkpt>
<trkpt lat="-35.2787443" lon="148.996189">
  <ele>657.05</ele>
  <time>2026-09-01T19:59:39Z</time>
  <course>294.77</course>
  <speed>25.95</speed>
  <fix>3d</fix>
</trkpt>
<trkpt lat="-35.2787064" lon="148.996089">
  <ele>656.77</ele>
  <time>2026-09-01T19:59:39Z</time>
  <course>295.29</course>
  <speed>25.90549169577756</speed>
  <fix>3d</fix>
</trkpt>
<trkpt lat="-35.2787247" lon="148.9961371">
  <ele>656.94</ele>
  <time>2026-09-01T19:59:39Z</time>
  <course>294.78</course>
  <speed>25.94</speed>
  <fix>3d</fix>
</trkpt>
<trkpt lat="-35.2786966" lon="148.996063">
  <ele>656.71</ele>
  <time>2026-09-01T19:59:39Z</time>
  <course>295.34</course>
  <speed>25.914567331908128</speed>
  <fix>3d</fix>
</trkpt>
<trkpt lat="-35.2787247" lon="148.9961371">
  <ele>656.94</ele>
  <time>2026-09-01T19:59:39Z</time>
  <course>294.78</course>
  <speed>25.94</speed>
  <fix>3d</fix>
</trkpt>
<trkpt lat="-35.2786868" lon="148.996037">
  <ele>656.65</ele>
  <time>2026-09-01T19:59:39Z</time>
  <course>295.38</course>
  <speed>25.914567331908128</speed>
  <fix>3d</fix>
</trkpt>
<trkpt lat="-35.2787051" lon="148.9960853">
  <ele>656.83</ele>
  <time>2026-09-01T19:59:39Z</time>
  <course>294.78</course>
  <speed>25.93</speed>
  <fix>3d</fix>
</trkpt>
<trkpt lat="-35.278677" lon="148.996011">
  <ele>656.59</ele>
  <time>2026-09-01T19:59:39Z</time>
  <course>295.35</course>
  <speed>25.914567331908128</speed>
  <fix>3d</fix>
</trkpt>
<trkpt lat="-35.2787051" lon="148.9960853">
  <ele>656.83</ele>
  <time>2026-09-01T19:59:39Z</time>
  <course>294.78</course>
  <speed>25.93</speed>
  <fix>3d</fix>
</trkpt>
<trkpt lat="-35.2786672" lon="148.9959849">
  <ele>656.53</ele>
  <time>2026-09-01T19:59:39Z</time>
  <course>295.36</course>
  <speed>25.92784217785969</speed>
  <fix>3d</fix>
</trkpt>
<trkpt lat="-35.2786856" lon="148.9960335">
  <ele>656.72</ele>
  <time>2026-09-01T19:59:39Z</time>
  <course>294.79</course>
  <speed>25.93</speed>
  <fix>3d</fix>
</trkpt>
<trkpt lat="-35.2786573" lon="148.9959589">
  <ele>656.47</ele>
  <time>2026-09-01T19:59:39Z</time>
  <course>295.35</course>
  <speed>25.92784217785969</speed>
  <fix>3d</fix>
</trkpt>
<trkpt lat="-35.2786856" lon="148.9960335">
  <ele>656.72</ele>
  <time>2026-09-01T19:59:39Z</time>
  <course>294.79</course>
  <speed>25.93</speed>
  <fix>3d</fix>
</trkpt>
<trkpt lat="-35.2786475" lon="148.9959329">
  <ele>656.4</ele>
  <time>2026-09-01T19:59:39Z</time>
  <course>295.38</course>
  <speed>25.92784217785969</speed>
  <fix>3d</fix>
</trkpt>
<trkpt lat="-35.278666" lon="148.9959816">
  <ele>656.6</ele>
  <time>2026-09-01T19:59:39Z</time>
  <course>294.8</course>
  <speed>25.93</speed>
  <fix>3d</fix>
</trkpt>
<trkpt lat="-35.2786377" lon="148.9959069">
  <ele>656.34</ele>
  <time>2026-09-01T19:59:39Z</time>
  <course>295.39</course>
  <speed>25.92784217785969</speed>
  <fix>3d</fix>
</trkpt>
<trkpt lat="-35.278666" lon="148.9959816">
  <ele>656.6</ele>
  <time>2026-09-01T19:59:39Z</time>
  <course>294.8</course>
  <speed>25.93</speed>
  <fix>3d</fix>
</trkpt>
<trkpt lat="-35.2786279" lon="148.9958809">
  <ele>656.27</ele>
  <time>2026-09-01T19:59:39Z</time>
  <course>295.4</course>
  <speed>25.936917704307117</speed>
  <fix>3d</fix>
</trkpt>
<trkpt lat="-35.2786465" lon="148.9959299">
  <ele>656.47</ele>
  <time>2026-09-01T19:59:39Z</time>
  <course>294.8</course>
  <speed>25.93</speed>
  <fix>3d</fix>
</trkpt>
<trkpt lat="-35.2786181" lon="148.9958549">
  <ele>656.2</ele>
  <time>2026-09-01T19:59:39Z</time>
  <course>295.42</course>
  <speed>25.941117940443505</speed>
  <fix>3d</fix>
</trkpt>
<trkpt lat="-35.2786465" lon="148.9959299">
  <ele>656.47</ele>
  <time>2026-09-01T19:59:39Z</time>
  <course>294.8</course>
  <speed>25.93</speed>
  <fix>3d</fix>
</trkpt>
<trkpt lat="-35.2786084" lon="148.9958291">
  <ele>656.13</ele>
  <time>2026-09-01T19:59:39Z</time>
  <course>295.46</course>
  <speed>25.941117940443505</speed>
  <fix>3d</fix>
</trkpt>
<trkpt lat="-35.278627" lon="148.9958781">
  <ele>656.34</ele>
  <time>2026-09-01T19:59:39Z</time>
  <course>294.81</course>
  <speed>25.92</speed>
  <fix>3d</fix>
</trkpt>
<trkpt lat="-35.2785985" lon="148.9958031">
  <ele>656.06</ele>
  <time>2026-09-01T19:59:39Z</time>
  <course>295.45</course>
  <speed>25.945321350871723</speed>
  <fix>3d</fix>
</trkpt>
<trkpt lat="-35.278627" lon="148.9958781">
  <ele>656.34</ele>
  <time>2026-09-01T19:59:39Z</time>
  <course>294.81</course>
  <speed>25.92</speed>
  <fix>3d</fix>
</trkpt>
<trkpt lat="-35.2785887" lon="148.9957772">
  <ele>655.98</ele>
  <time>2026-09-01T19:59:39Z</time>
  <course>295.47</course>
  <speed>25.945321350871723</speed>
  <fix>3d</fix>
</trkpt>
<trkpt lat="-35.2786074" lon="148.9958263">
  <ele>656.21</ele>
  <time>2026-09-01T19:59:39Z</time>
  <course>294.83</course>
  <speed>25.92</speed>
  <fix>3d</fix>
</trkpt>
<trkpt lat="-35.2785789" lon="148.9957512">
  <ele>655.92</ele>
  <time>2026-09-01T19:59:39Z</time>
  <course>295.45</course>
  <speed>25.945321350871723</speed>
  <fix>3d</fix>
</trkpt>
<trkpt lat="-35.2786074" lon="148.9958263">
  <ele>656.21</ele>
  <time>2026-09-01T19:59:39Z</time>
  <course>294.83</course>
  <speed>25.92</speed>
  <fix>3d</fix>
</trkpt>
<trkpt lat="-35.278569" lon="148.995725">
  <ele>655.85</ele>
  <time>2026-09-01T19:59:39Z</time>
  <course>295.43</course>
  <speed>25.945321350871723</speed>
  <fix>3d</fix>
</trkpt>
<trkpt lat="-35.2785879" lon="148.9957745">
  <ele>656.08</ele>
  <time>2026-09-01T19:59:39Z</time>
  <course>294.83</course>
  <speed>25.92</speed>
  <fix>3d</fix>
</trkpt>
<trkpt lat="-35.2785592" lon="148.9956991">
  <ele>655.78</ele>
  <time>2026-09-01T19:59:39Z</time>
  <course>295.47</course>
  <speed>25.954394618252994</speed>
  <fix>3d</fix>
</trkpt>
<trkpt lat="-35.2785879" lon="148.9957745">
  <ele>656.08</ele>
  <time>2026-09-01T19:59:39Z</time>
  <course>294.83</course>
  <speed>25.92</speed>
  <fix>3d</fix>
</trkpt>
<trkpt lat="-35.2785494" lon="148.9956731">
  <ele>655.71</ele>
  <time>2026-09-01T19:59:39Z</time>
  <course>295.49</course>
  <speed>25.954394618252994</speed>
  <fix>3d</fix>
</trkpt>
<trkpt lat="-35.2785683" lon="148.9957228">
  <ele>655.94</ele>
  <time>2026-09-01T19:59:39Z</time>
  <course>294.83</course>
  <speed>25.92</speed>
  <fix>3d</fix>
</trkpt>
<trkpt lat="-35.2785396" lon="148.9956472">
  <ele>655.64</ele>
  <time>2026-09-01T19:59:39Z</time>
  <course>295.47</course>
  <speed>25.954394618252994</speed>
  <fix>3d</fix>
</trkpt>
<trkpt lat="-35.2785683" lon="148.9957228">
  <ele>655.94</ele>
  <time>2026-09-01T19:59:39Z</time>
  <course>294.83</course>
  <speed>25.92</speed>
  <fix>3d</fix>
</trkpt>
<trkpt lat="-35.2785299" lon="148.9956213">
  <ele>655.57</ele>
  <time>2026-09-01T19:59:39Z</time>
  <course>295.42</course>
  <speed>25.95019267751205</speed>
  <fix>3d</fix>
</trkpt>
<trkpt lat="-35.2785487" lon="148.9956709">
  <ele>655.8</ele>
  <time>2026-09-01T19:59:39Z</time>
  <course>294.82</course>
  <speed>25.92</speed>
  <fix>3d</fix>
</trkpt>
<trkpt lat="-35.2785201" lon="148.9955953">
  <ele>655.51</ele>
  <time>2026-09-01T19:59:39Z</time>
  <course>295.42</course>
  <speed>25.95019267751205</speed>
  <fix>3d</fix>
</trkpt>
<trkpt lat="-35.2785487" lon="148.9956709">
  <ele>655.8</ele>
  <time>2026-09-01T19:59:39Z</time>
  <course>294.82</course>
  <speed>25.92</speed>
  <fix>3d</fix>
</trkpt>
<trkpt lat="-35.2785102" lon="148.9955692">
  <ele>655.45</ele>
  <time>2026-09-01T19:59:39Z</time>
  <course>295.4</course>
  <speed>25.95019267751205</speed>
  <fix>3d</fix>
</trkpt>
<trkpt lat="-35.2785291" lon="148.995619">
  <ele>655.66</ele>
  <time>2026-09-01T19:59:39Z</time>
  <course>294.81</course>
  <speed>25.92</speed>
  <fix>3d</fix>
</trkpt>
<trkpt lat="-35.2785004" lon="148.9955432">
  <ele>655.39</ele>
  <time>2026-09-01T19:59:39Z</time>
  <course>295.41</course>
  <speed>25.945993910428637</speed>
  <fix>3d</fix>
</trkpt>
<trkpt lat="-35.2785291" lon="148.995619">
  <ele>655.66</ele>
  <time>2026-09-01T19:59:39Z</time>
  <course>294.81</course>
  <speed>25.92</speed>
  <fix>3d</fix>
</trkpt>
<trkpt lat="-35.2784906" lon="148.9955173">
  <ele>655.33</ele>
  <time>2026-09-01T19:59:39Z</time>
  <course>295.43</course>
  <speed>25.936917704307117</speed>
  <fix>3d</fix>
</trkpt>
<trkpt lat="-35.2785096" lon="148.9955673">
  <ele>655.54</ele>
  <time>2026-09-01T19:59:39Z</time>
  <course>294.8</course>
  <speed>25.91</speed>
  <fix>3d</fix>
</trkpt>
<trkpt lat="-35.2784808" lon="148.9954914">
  <ele>655.27</ele>
  <time>2026-09-01T19:59:39Z</time>
  <course>295.45</course>
  <speed>25.92784217785969</speed>
  <fix>3d</fix>
</trkpt>
<trkpt lat="-35.2785096" lon="148.9955673">
  <ele>655.54</ele>
  <time>2026-09-01T19:59:39Z</time>
  <course>294.8</course>
  <speed>25.91</speed>
  <fix>3d</fix>
</trkpt>
<trkpt lat="-35.2784711" lon="148.9954654">
  <ele>655.22</ele>
  <time>2026-09-01T19:59:39Z</time>
  <course>295.42</course>
  <speed>25.92784217785969</speed>
  <fix>3d</fix>
</trkpt>
<trkpt lat="-35.27849" lon="148.9955155">
  <ele>655.43</ele>
  <time>2026-09-01T19:59:39Z</time>
  <course>294.8</course>
  <speed>25.9</speed>
  <fix>3d</fix>
</trkpt>
<trkpt lat="-35.2784613" lon="148.9954395">
  <ele>655.17</ele>
  <time>2026-09-01T19:59:39Z</time>
  <course>295.4</course>
  <speed>25.914567331908128</speed>
  <fix>3d</fix>
</trkpt>
<trkpt lat="-35.27849" lon="148.9955155">
  <ele>655.43</ele>
  <time>2026-09-01T19:59:39Z</time>
  <course>294.8</course>
  <speed>25.9</speed>
  <fix>3d</fix>
</trkpt>
<trkpt lat="-35.2784515" lon="148.9954135">
  <ele>655.12</ele>
  <time>2026-09-01T19:59:39Z</time>
  <course>295.34</course>
  <speed>25.914567331908128</speed>
  <fix>3d</fix>
</trkpt>
<trkpt lat="-35.2784705" lon="148.9954638">
  <ele>655.32</ele>
  <time>2026-09-01T19:59:39Z</time>
  <course>294.8</course>
  <speed>25.89</speed>
  <fix>3d</fix>
</trkpt>
<trkpt lat="-35.2784417" lon="148.9953876">
  <ele>655.07</ele>
  <time>2026-09-01T19:59:39Z</time>
  <course>295.32</course>
  <speed>25.91037051066619</speed>
  <fix>3d</fix>
</trkpt>
<trkpt lat="-35.2784705" lon="148.9954638">
  <ele>655.32</ele>
  <time>2026-09-01T19:59:39Z</time>
  <course>294.8</course>
  <speed>25.89</speed>
  <fix>3d</fix>
</trkpt>
<trkpt lat="-35.278432" lon="148.9953617">
  <ele>655.03</ele>
  <time>2026-09-01T19:59:39Z</time>
  <course>295.33</course>
  <speed>25.897098293052064</speed>
  <fix>3d</fix>
</trkpt>
<trkpt lat="-35.278451" lon="148.9954121">
  <ele>655.22</ele>
  <time>2026-09-01T19:59:39Z</time>
  <course>294.79</course>
  <speed>25.87</speed>
  <fix>3d</fix>
</trkpt>
<trkpt lat="-35.2784222" lon="148.9953358">
  <ele>654.98</ele>
  <time>2026-09-01T19:59:39Z</time>
  <course>295.37</course>
  <speed>25.892906364485235</speed>
  <fix>3d</fix>
</trkpt>
<trkpt lat="-35.278451" lon="148.9954121">
  <ele>655.22</ele>
  <time>2026-09-01T19:59:39Z</time>
  <course>294.79</course>
  <speed>25.87</speed>
  <fix>3d</fix>
</trkpt>
<trkpt lat="-35.2784125" lon="148.9953099">
  <ele>654.93</ele>
  <time>2026-09-01T19:59:39Z</time>
  <course>295.37</course>
  <speed>25.892906364485235</speed>
  <fix>3d</fix>
</trkpt>
<trkpt lat="-35.2784316" lon="148.9953604">
  <ele>655.13</ele>
  <time>2026-09-01T19:59:39Z</time>
  <course>294.76</course>
  <speed>25.86</speed>
  <fix>3d</fix>
</trkpt>
<trkpt lat="-35.2784028" lon="148.9952843">
  <ele>654.89</ele>
  <time>2026-09-01T19:59:39Z</time>
  <course>295.32</course>
  <speed>25.88382699679474</speed>
  <fix>3d</fix>
</trkpt>
<trkpt lat="-35.2784316" lon="148.9953604">
  <ele>655.13</ele>
  <time>2026-09-01T19:59:39Z</time>
  <course>294.76</course>
  <speed>25.86</speed>
  <fix>3d</fix>
</trkpt>
<trkpt lat="-35.2783931" lon="148.9952584">
  <ele>654.85</ele>
  <time>2026-09-01T19:59:39Z</time>
  <course>295.31</course>
  <speed>25.870556623312144</speed>
  <fix>3d</fix>
</trkpt>
<trkpt lat="-35.2784121" lon="148.9953088">
  <ele>655.03</ele>
  <time>2026-09-01T19:59:39Z</time>
  <course>294.75</course>
  <speed>25.85</speed>
  <fix>3d</fix>
</trkpt>
<trkpt lat="-35.2783833" lon="148.9952326">
  <ele>654.81</ele>
  <time>2026-09-01T19:59:39Z</time>
  <course>295.32</course>
  <speed>25.870556623312144</speed>
  <fix>3d</fix>
</trkpt>
<trkpt lat="-35.2784121" lon="148.9953088">
  <ele>655.03</ele>
  <time>2026-09-01T19:59:39Z</time>
  <course>294.75</course>
  <speed>25.85</speed>
  <fix>3d</fix>
</trkpt>
<trkpt lat="-35.2783736" lon="148.9952067">
  <ele>654.77</ele>
  <time>2026-09-01T19:59:39Z</time>
  <course>295.31</course>
  <speed>25.857287174025043</speed>
  <fix>3d</fix>
</trkpt>
<trkpt lat="-35.2783927" lon="148.9952571">
  <ele>654.94</ele>
  <time>2026-09-01T19:59:39Z</time>
  <course>294.75</course>
  <speed>25.83</speed>
  <fix>3d</fix>
</trkpt>
<trkpt lat="-35.2783638" lon="148.9951807">
  <ele>654.73</ele>
  <time>2026-09-01T19:59:39Z</time>
  <course>295.3</course>
  <speed>25.844018650356993</speed>
  <fix>3d</fix>
</trkpt>
<trkpt lat="-35.2783927" lon="148.9952571">
  <ele>654.94</ele>
  <time>2026-09-01T19:59:39Z</time>
  <course>294.75</course>
  <speed>25.83</speed>
  <fix>3d</fix>
</trkpt>
<trkpt lat="-35.2783541" lon="148.9951548">
  <ele>654.69</ele>
  <time>2026-09-01T19:59:39Z</time>
  <course>295.37</course>
  <speed>25.83493758459656</speed>
  <fix>3d</fix>
</trkpt>
<trkpt lat="-35.2783733" lon="148.9952055">
  <ele>654.87</ele>
  <time>2026-09-01T19:59:39Z</time>
  <course>294.74</course>
  <speed>25.82</speed>
  <fix>3d</fix>
</trkpt>
<trkpt lat="-35.2783444" lon="148.995129">
  <ele>654.65</ele>
  <time>2026-09-01T19:59:39Z</time>
  <course>295.38</course>
  <speed>25.825857197777577</speed>
  <fix>3d</fix>
</trkpt>
<trkpt lat="-35.2783733" lon="148.9952055">
  <ele>654.87</ele>
  <time>2026-09-01T19:59:39Z</time>
  <course>294.74</course>
  <speed>25.82</speed>
  <fix>3d</fix>
</trkpt>
<trkpt lat="-35.2783347" lon="148.9951032">
  <ele>654.61</ele>
  <time>2026-09-01T19:59:39Z</time>
  <course>295.36</course>
  <speed>25.825857197777577</speed>
  <fix>3d</fix>
</trkpt>
<trkpt lat="-35.2783539" lon="148.9951539">
  <ele>654.79</ele>
  <time>2026-09-01T19:59:39Z</time>
  <course>294.73</course>
  <speed>25.8</speed>
  <fix>3d</fix>
</trkpt>
<trkpt lat="-35.278325" lon="148.9950775">
  <ele>654.57</ele>
  <time>2026-09-01T19:59:39Z</time>
  <course>295.37</course>
  <speed>25.816777490616445</speed>
  <fix>3d</fix>
</trkpt>
<trkpt lat="-35.2783539" lon="148.9951539">
  <ele>654.79</ele>
  <time>2026-09-01T19:59:39Z</time>
  <course>294.73</course>
  <speed>25.8</speed>
  <fix>3d</fix>
</trkpt>
<trkpt lat="-35.2783153" lon="148.9950517">
  <ele>654.53</ele>
  <time>2026-09-01T19:59:39Z</time>
  <course>295.37</course>
  <speed>25.807698463830516</speed>
  <fix>3d</fix>
</trkpt>
<trkpt lat="-35.2783344" lon="148.9951023">
  <ele>654.7</ele>
  <time>2026-09-01T19:59:39Z</time>
  <course>294.75</course>
  <speed>25.79</speed>
  <fix>3d</fix>
</trkpt>
<trkpt lat="-35.2783056" lon="148.9950259">
  <ele>654.49</ele>
  <time>2026-09-01T19:59:39Z</time>
  <course>295.38</course>
  <speed>25.8028157378221</speed>
  <fix>3d</fix>
</trkpt>
<trkpt lat="-35.2783344" lon="148.9951023">
  <ele>654.7</ele>
  <time>2026-09-01T19:59:39Z</time>
  <course>294.75</course>
  <speed>25.79</speed>
  <fix>3d</fix>
</trkpt>
<trkpt lat="-35.2782959" lon="148.9950001">
  <ele>654.46</ele>
  <time>2026-09-01T19:59:39Z</time>
  <course>295.41</course>
  <speed>25.793739550518843</speed>
  <fix>3d</fix>
</trkpt>
<trkpt lat="-35.278315" lon="148.9950507">
  <ele>654.62</ele>
  <time>2026-09-01T19:59:39Z</time>
  <course>294.76</course>
  <speed>25.77</speed>
  <fix>3d</fix>
</trkpt>
<trkpt lat="-35.2782861" lon="148.9949744">
  <ele>654.42</ele>
  <time>2026-09-01T19:59:39Z</time>
  <course>295.41</course>
  <speed>25.784664046677047</speed>
  <fix>3d</fix>
</trkpt>
<trkpt lat="-35.278315" lon="148.9950507">
  <ele>654.62</ele>
  <time>2026-09-01T19:59:39Z</time>
  <course>294.76</course>
  <speed>25.77</speed>
  <fix>3d</fix>
</trkpt>
<trkpt lat="-35.2782764" lon="148.9949486">
  <ele>654.38</ele>
  <time>2026-09-01T19:59:39Z</time>
  <course>295.44</course>
  <speed>25.779792473951375</speed>
  <fix>3d</fix>
</trkpt>
<trkpt lat="-35.2782956" lon="148.9949992">
  <ele>654.55</ele>
  <time>2026-09-01T19:59:39Z</time>
  <course>294.79</course>
  <speed>25.76</speed>
  <fix>3d</fix>
</trkpt>
<trkpt lat="-35.2782667" lon="148.9949229">
  <ele>654.34</ele>
  <time>2026-09-01T19:59:39Z</time>
  <course>295.46</course>
  <speed>25.779792473951375</speed>
  <fix>3d</fix>
</trkpt>
<trkpt lat="-35.2782956" lon="148.9949992">
  <ele>654.55</ele>
  <time>2026-09-01T19:59:39Z</time>
  <course>294.79</course>
  <speed>25.76</speed>
  <fix>3d</fix>
</trkpt>
<trkpt lat="-35.278257" lon="148.9948972">
  <ele>654.3</ele>
  <time>2026-09-01T19:59:39Z</time>
  <course>295.43</course>
  <speed>25.77071981920567</speed>
  <fix>3d</fix>
</trkpt>
<trkpt lat="-35.2782762" lon="148.9949477">
  <ele>654.48</ele>
  <time>2026-09-01T19:59:39Z</time>
  <course>294.81</course>
  <speed>25.75</speed>
  <fix>3d</fix>
</trkpt>
<trkpt lat="-35.2782472" lon="148.9948714">
  <ele>654.26</ele>
  <time>2026-09-01T19:59:39Z</time>
  <course>295.38</course>
  <speed>25.77071981920567</speed>
  <fix>3d</fix>
</trkpt>
<trkpt lat="-35.2782762" lon="148.9949477">
  <ele>654.48</ele>
  <time>2026-09-01T19:59:39Z</time>
  <course>294.81</course>
  <speed>25.75</speed>
  <fix>3d</fix>
</trkpt>
<trkpt lat="-35.2782375" lon="148.9948455">
  <ele>654.23</ele>
  <time>2026-09-01T19:59:39Z</time>
  <course>295.37</course>
  <speed>25.76164785102071</speed>
  <fix>3d</fix>
</trkpt>
<trkpt lat="-35.2782568" lon="148.9948964">
  <ele>654.4</ele>
  <time>2026-09-01T19:59:39Z</time>
  <course>294.83</course>
  <speed>25.74</speed>
  <fix>3d</fix>
</trkpt>
<trkpt lat="-35.2782277" lon="148.9948198">
  <ele>654.19</ele>
  <time>2026-09-01T19:59:39Z</time>
  <course>295.39</course>
  <speed>25.752576570122063</speed>
  <fix>3d</fix>
</trkpt>
<trkpt lat="-35.2782568" lon="148.9948964">
  <ele>654.4</ele>
  <time>2026-09-01T19:59:39Z</time>
  <course>294.83</course>
  <speed>25.74</speed>
  <fix>3d</fix>
</trkpt>
<trkpt lat="-35.278218" lon="148.9947941">
  <ele>654.16</ele>
  <time>2026-09-01T19:59:39Z</time>
  <course>295.39</course>
  <speed>25.752576570122063</speed>
  <fix>3d</fix>
</trkpt>
<trkpt lat="-35.2782373" lon="148.994845">
  <ele>654.33</ele>
  <time>2026-09-01T19:59:39Z</time>
  <course>294.84</course>
  <speed>25.73</speed>
  <fix>3d</fix>
</trkpt>
<trkpt lat="-35.2782083" lon="148.9947685">
  <ele>654.12</ele>
  <time>2026-09-01T19:59:39Z</time>
  <course>295.4</course>
  <speed>25.752576570122063</speed>
  <fix>3d</fix>
</trkpt>
<trkpt lat="-35.2782373" lon="148.994845">
  <ele>654.33</ele>
  <time>2026-09-01T19:59:39Z</time>
  <course>294.84</course>
  <speed>25.73</speed>
  <fix>3d</fix>
</trkpt>
<trkpt lat="-35.2781987" lon="148.994743">
  <ele>654.09</ele>
  <time>2026-09-01T19:59:39Z</time>
  <course>295.43</course>
  <speed>25.74350597723628</speed>
  <fix>3d</fix>
</trkpt>
<trkpt lat="-35.2782179" lon="148.9947935">
  <ele>654.27</ele>
  <time>2026-09-01T19:59:39Z</time>
  <course>294.84</course>
  <speed>25.73</speed>
  <fix>3d</fix>
</trkpt>
<trkpt lat="-35.278189" lon="148.9947173">
  <ele>654.07</ele>
  <time>2026-09-01T19:59:39Z</time>
  <course>295.48</course>
  <speed>25.734436073090855</speed>
  <fix>3d</fix>
</trkpt>
<trkpt lat="-35.2782179" lon="148.9947935">
  <ele>654.27</ele>
  <time>2026-09-01T19:59:39Z</time>
  <course>294.84</course>
  <speed>25.73</speed>
  <fix>3d</fix>
</trkpt>
<trkpt lat="-35.2781792" lon="148.9946917">
  <ele>654.04</ele>
  <time>2026-09-01T19:59:39Z</time>
  <course>295.46</course>
  <speed>25.734436073090855</speed>
  <fix>3d</fix>
</trkpt>
<trkpt lat="-35.2781985" lon="148.9947422">
  <ele>654.21</ele>
  <time>2026-09-01T19:59:39Z</time>
  <course>294.85</course>
  <speed>25.72</speed>
  <fix>3d</fix>
</trkpt>
<trkpt lat="-35.2781695" lon="148.994666">
  <ele>654.01</ele>
  <time>2026-09-01T19:59:39Z</time>
  <course>295.5</course>
  <speed>25.729582196374665</speed>
  <fix>3d</fix>
</trkpt>
<trkpt lat="-35.2781985" lon="148.9947422">
  <ele>654.21</ele>
  <time>2026-09-01T19:59:39Z</time>
  <course>294.85</course>
  <speed>25.72</speed>
  <fix>3d</fix>
</trkpt>
<trkpt lat="-35.2781597" lon="148.9946402">
  <ele>653.98</ele>
  <time>2026-09-01T19:59:39Z</time>
  <course>295.45</course>
  <speed>25.72051515813787</speed>
  <fix>3d</fix>
</trkpt>
<trkpt lat="-35.278179" lon="148.9946909">
  <ele>654.16</ele>
  <time>2026-09-01T19:59:39Z</time>
  <course>294.86</course>
  <speed>25.71</speed>
  <fix>3d</fix>
</trkpt>
<trkpt lat="-35.27815" lon="148.9946146">
  <ele>653.96</ele>
  <time>2026-09-01T19:59:39Z</time>
  <course>295.37</course>
  <speed>25.707230500386462</speed>
  <fix>3d</fix>
</trkpt>
<trkpt lat="-35.278179" lon="148.9946909">
  <ele>654.16</ele>
  <time>2026-09-01T19:59:39Z</time>
  <course>294.86</course>
  <speed>25.71</speed>
  <fix>3d</fix>
</trkpt>
<trkpt lat="-35.2781403" lon="148.994589">
  <ele>653.92</ele>
  <time>2026-09-01T19:59:39Z</time>
  <course>295.4</course>
  <speed>25.707230500386462</speed>
  <fix>3d</fix>
</trkpt>
<trkpt lat="-35.2781596" lon="148.9946396">
  <ele>654.1</ele>
  <time>2026-09-01T19:59:39Z</time>
  <course>294.88</course>
  <speed>25.7</speed>
  <fix>3d</fix>
</trkpt>
<trkpt lat="-35.2781306" lon="148.9945633">
  <ele>653.89</ele>
  <time>2026-09-01T19:59:39Z</time>
  <course>295.42</course>
  <speed>25.707230500386462</speed>
  <fix>3d</fix>
</trkpt>
<trkpt lat="-35.2781596" lon="148.9946396">
  <ele>654.1</ele>
  <time>2026-09-01T19:59:39Z</time>
  <course>294.88</course>
  <speed>25.7</speed>
  <fix>3d</fix>
</trkpt>
<trkpt lat="-35.2781209" lon="148.9945377">
  <ele>653.85</ele>
  <time>2026-09-01T19:59:39Z</time>
  <course>295.4</course>
  <speed>25.69816335849704</speed>
  <fix>3d</fix>
</trkpt>
<trkpt lat="-35.2781402" lon="148.9945882">
  <ele>654.04</ele>
  <time>2026-09-01T19:59:39Z</time>
  <course>294.89</course>
  <speed>25.7</speed>
  <fix>3d</fix>
</trkpt>
<trkpt lat="-35.2781112" lon="148.9945121">
  <ele>653.81</ele>
  <time>2026-09-01T19:59:39Z</time>
  <course>295.4</course>
  <speed>25.69394675794281</speed>
  <fix>3d</fix>
</trkpt>
<trkpt lat="-35.2781402" lon="148.9945882">
  <ele>654.04</ele>
  <time>2026-09-01T19:59:39Z</time>
  <course>294.89</course>
  <speed>25.7</speed>
  <fix>3d</fix>
</trkpt>
<trkpt lat="-35.2781015" lon="148.9944864">
  <ele>653.77</ele>
  <time>2026-09-01T19:59:39Z</time>
  <course>295.43</course>
  <speed>25.69394675794281</speed>
  <fix>3d</fix>
</trkpt>
<trkpt lat="-35.2781207" lon="148.9945368">
  <ele>653.97</ele>
  <time>2026-09-01T19:59:39Z</time>
  <course>294.88</course>
  <speed>25.7</speed>
  <fix>3d</fix>
</trkpt>
<trkpt lat="-35.2780917" lon="148.9944608">
  <ele>653.72</ele>
  <time>2026-09-01T19:59:39Z</time>
  <course>295.43</course>
  <speed>25.69394675794281</speed>
  <fix>3d</fix>
</trkpt>
<trkpt lat="-35.2781207" lon="148.9945368">
  <ele>653.97</ele>
  <time>2026-09-01T19:59:39Z</time>
  <course>294.88</course>
  <speed>25.7</speed>
  <fix>3d</fix>
</trkpt>
<trkpt lat="-35.278082" lon="148.9944351">
  <ele>653.67</ele>
  <time>2026-09-01T19:59:39Z</time>
  <course>295.39</course>
  <speed>25.703015387304266</speed>
  <fix>3d</fix>
</trkpt>
<trkpt lat="-35.2781012" lon="148.9944855">
  <ele>653.89</ele>
  <time>2026-09-01T19:59:39Z</time>
  <course>294.87</course>
  <speed>25.7</speed>
  <fix>3d</fix>
</trkpt>
<trkpt lat="-35.2780723" lon="148.9944095">
  <ele>653.62</ele>
  <time>2026-09-01T19:59:39Z</time>
  <course>295.36</course>
  <speed>25.703015387304266</speed>
  <fix>3d</fix>
</trkpt>
<trkpt lat="-35.2781012" lon="148.9944855">
  <ele>653.89</ele>
  <time>2026-09-01T19:59:39Z</time>
  <course>294.87</course>
  <speed>25.7</speed>
  <fix>3d</fix>
</trkpt>
<trkpt lat="-35.2780626" lon="148.9943838">
  <ele>653.56</ele>
  <time>2026-09-01T19:59:39Z</time>
  <course>295.39</course>
  <speed>25.703015387304266</speed>
  <fix>3d</fix>
</trkpt>
<trkpt lat="-35.2780818" lon="148.9944342">
  <ele>653.79</ele>
  <time>2026-09-01T19:59:39Z</time>
  <course>294.87</course>
  <speed>25.7</speed>
  <fix>3d</fix>
</trkpt>
<trkpt lat="-35.2780529" lon="148.9943582">
  <ele>653.49</ele>
  <time>2026-09-01T19:59:39Z</time>
  <course>295.42</course>
  <speed>25.712084707390026</speed>
  <fix>3d</fix>
</trkpt>
<trkpt lat="-35.2780818" lon="148.9944342">
  <ele>653.79</ele>
  <time>2026-09-01T19:59:39Z</time>
  <course>294.87</course>
  <speed>25.7</speed>
  <fix>3d</fix>
</trkpt>
<trkpt lat="-35.2780432" lon="148.9943325">
  <ele>653.43</ele>
  <time>2026-09-01T19:59:39Z</time>
  <course>295.43</course>
  <speed>25.712084707390026</speed>
  <fix>3d</fix>
</trkpt>
<trkpt lat="-35.2780625" lon="148.9943829">
  <ele>653.68</ele>
  <time>2026-09-01T19:59:39Z</time>
  <course>294.85</course>
  <speed>25.71</speed>
  <fix>3d</fix>
</trkpt>
<trkpt lat="-35.2780335" lon="148.9943068">
  <ele>653.36</ele>
  <time>2026-09-01T19:59:39Z</time>
  <course>295.41</course>
  <speed>25.72115471746943</speed>
  <fix>3d</fix>
</trkpt>
<trkpt lat="-35.2780625" lon="148.9943829">
  <ele>653.68</ele>
  <time>2026-09-01T19:59:39Z</time>
  <course>294.85</course>
  <speed>25.71</speed>
  <fix>3d</fix>
</trkpt>
<trkpt lat="-35.2780238" lon="148.9942812">
  <ele>653.28</ele>
  <time>2026-09-01T19:59:39Z</time>
  <course>295.38</course>
  <speed>25.72115471746943</speed>
  <fix>3d</fix>
</trkpt>
<trkpt lat="-35.2780431" lon="148.9943315">
  <ele>653.55</ele>
  <time>2026-09-01T19:59:39Z</time>
  <course>294.85</course>
  <speed>25.72</speed>
  <fix>3d</fix>
</trkpt>
<trkpt lat="-35.2780141" lon="148.9942555">
  <ele>653.21</ele>
  <time>2026-09-01T19:59:39Z</time>
  <course>295.35</course>
  <speed>25.72115471746943</speed>
  <fix>3d</fix>
</trkpt>
<trkpt lat="-35.2780431" lon="148.9943315">
  <ele>653.55</ele>
  <time>2026-09-01T19:59:39Z</time>
  <course>294.85</course>
  <speed>25.72</speed>
  <fix>3d</fix>
</trkpt>
<trkpt lat="-35.2780043" lon="148.9942298">
  <ele>653.12</ele>
  <time>2026-09-01T19:59:39Z</time>
  <course>295.33</course>
  <speed>25.73022541681281</speed>
  <fix>3d</fix>
</trkpt>
<trkpt lat="-35.2780237" lon="148.9942802">
  <ele>653.4</ele>
  <time>2026-09-01T19:59:39Z</time>
  <course>294.85</course>
  <speed>25.73</speed>
  <fix>3d</fix>
</trkpt>
<trkpt lat="-35.2779946" lon="148.9942041">
  <ele>653.03</ele>
  <time>2026-09-01T19:59:39Z</time>
  <course>295.3</course>
  <speed>25.739296804691463</speed>
  <fix>3d</fix>
</trkpt>
<trkpt lat="-35.2780237" lon="148.9942802">
  <ele>653.4</ele>
  <time>2026-09-01T19:59:39Z</time>
  <course>294.85</course>
  <speed>25.73</speed>
  <fix>3d</fix>
</trkpt>
<trkpt lat="-35.2779849" lon="148.9941784">
  <ele>652.94</ele>
  <time>2026-09-01T19:59:39Z</time>
  <course>295.33</course>
  <speed>25.748368880377647</speed>
  <fix>3d</fix>
</trkpt>
<trkpt lat="-35.2780042" lon="148.9942287">
  <ele>653.25</ele>
  <time>2026-09-01T19:59:39Z</time>
  <course>294.84</course>
  <speed>25.74</speed>
  <fix>3d</fix>
</trkpt>
<trkpt lat="-35.2779752" lon="148.9941527">
  <ele>652.85</ele>
  <time>2026-09-01T19:59:39Z</time>
  <course>295.35</course>
  <speed>25.748368880377647</speed>
  <fix>3d</fix>
</trkpt>
<trkpt lat="-35.2780042" lon="148.9942287">
  <ele>653.25</ele>
  <time>2026-09-01T19:59:39Z</time>
  <course>294.84</course>
  <speed>25.74</speed>
  <fix>3d</fix>
</trkpt>
<trkpt lat="-35.2779655" lon="148.994127">
  <ele>652.75</ele>
  <time>2026-09-01T19:59:39Z</time>
  <course>295.39</course>
  <speed>25.76164785102071</speed>
  <fix>3d</fix>
</trkpt>
<trkpt lat="-35.2779848" lon="148.9941774">
  <ele>653.07</ele>
  <time>2026-09-01T19:59:39Z</time>
  <course>294.82</course>
  <speed>25.76</speed>
  <fix>3d</fix>
</trkpt>
<trkpt lat="-35.2779557" lon="148.994101">
  <ele>652.65</ele>
  <time>2026-09-01T19:59:39Z</time>
  <course>295.35</course>
  <speed>25.77071981920567</speed>
  <fix>3d</fix>
</trkpt>
<trkpt lat="-35.2779848" lon="148.9941774">
  <ele>653.07</ele>
  <time>2026-09-01T19:59:39Z</time>
  <course>294.82</course>
  <speed>25.76</speed>
  <fix>3d</fix>
</trkpt>
<trkpt lat="-35.277946" lon="148.9940753">
  <ele>652.55</ele>
  <time>2026-09-01T19:59:39Z</time>
  <course>295.33</course>
  <speed>25.783998914055203</speed>
  <fix>3d</fix>
</trkpt>
<trkpt lat="-35.2779654" lon="148.9941259">
  <ele>652.88</ele>
  <time>2026-09-01T19:59:39Z</time>
  <course>294.82</course>
  <speed>25.78</speed>
  <fix>3d</fix>
</trkpt>
<trkpt lat="-35.2779363" lon="148.9940495">
  <ele>652.45</ele>
  <time>2026-09-01T19:59:39Z</time>
  <course>295.36</course>
  <speed>25.783998914055203</speed>
  <fix>3d</fix>
</trkpt>
<trkpt lat="-35.2779654" lon="148.9941259">
  <ele>652.88</ele>
  <time>2026-09-01T19:59:39Z</time>
  <course>294.82</course>
  <speed>25.78</speed>
  <fix>3d</fix>
</trkpt>
<trkpt lat="-35.2779266" lon="148.9940238">
  <ele>652.35</ele>
  <time>2026-09-01T19:59:39Z</time>
  <course>295.39</course>
  <speed>25.793070774919375</speed>
  <fix>3d</fix>
</trkpt>
<trkpt lat="-35.2779459" lon="148.9940744">
  <ele>652.69</ele>
  <time>2026-09-01T19:59:39Z</time>
  <course>294.83</course>
  <speed>25.8</speed>
  <fix>3d</fix>
</trkpt>
<trkpt lat="-35.2779168" lon="148.993998">
  <ele>652.25</ele>
  <time>2026-09-01T19:59:39Z</time>
  <course>295.38</course>
  <speed>25.80634999375154</speed>
  <fix>3d</fix>
</trkpt>
<trkpt lat="-35.2779459" lon="148.9940744">
  <ele>652.69</ele>
  <time>2026-09-01T19:59:39Z</time>
  <course>294.83</course>
  <speed>25.8</speed>
  <fix>3d</fix>
</trkpt>
<trkpt lat="-35.2779071" lon="148.9939723">
  <ele>652.15</ele>
  <time>2026-09-01T19:59:39Z</time>
  <course>295.33</course>
  <speed>25.80634999375154</speed>
  <fix>3d</fix>
</trkpt>
<trkpt lat="-35.2779264" lon="148.9940227">
  <ele>652.48</ele>
  <time>2026-09-01T19:59:39Z</time>
  <course>294.83</course>
  <speed>25.82</speed>
  <fix>3d</fix>
</trkpt>
<trkpt lat="-35.2778974" lon="148.9939465">
  <ele>652.04</ele>
  <time>2026-09-01T19:59:39Z</time>
  <course>295.28</course>
  <speed>25.815421747474897</speed>
  <fix>3d</fix>
</trkpt>
<trkpt lat="-35.2779264" lon="148.9940227">
  <ele>652.48</ele>
  <time>2026-09-01T19:59:39Z</time>
  <course>294.83</course>
  <speed>25.82</speed>
  <fix>3d</fix>
</trkpt>
<trkpt lat="-35.2778876" lon="148.9939207">
  <ele>651.93</ele>
  <time>2026-09-01T19:59:39Z</time>
  <course>295.26</course>
  <speed>25.820290470868063</speed>
  <fix>3d</fix>
</trkpt>
<trkpt lat="-35.2779069" lon="148.9939711">
  <ele>652.27</ele>
  <time>2026-09-01T19:59:39Z</time>
  <course>294.82</course>
  <speed>25.84</speed>
  <fix>3d</fix>
</trkpt>
<trkpt lat="-35.2778779" lon="148.9938949">
  <ele>651.83</ele>
  <time>2026-09-01T19:59:39Z</time>
  <course>295.27</course>
  <speed>25.82936507156148</speed>
  <fix>3d</fix>
</trkpt>
<trkpt lat="-35.2779069" lon="148.9939711">
  <ele>652.27</ele>
  <time>2026-09-01T19:59:39Z</time>
  <course>294.82</course>
  <speed>25.84</speed>
  <fix>3d</fix>
</trkpt>
<trkpt lat="-35.2778681" lon="148.993869">
  <ele>651.72</ele>
  <time>2026-09-01T19:59:39Z</time>
  <course>295.31</course>
  <speed>25.83844035540845</speed>
  <fix>3d</fix>
</trkpt>
<trkpt lat="-35.2778874" lon="148.9939195">
  <ele>652.06</ele>
  <time>2026-09-01T19:59:39Z</time>
  <course>294.8</course>
  <speed>25.85</speed>
  <fix>3d</fix>
</trkpt>
<trkpt lat="-35.2778584" lon="148.9938432">
  <ele>651.62</ele>
  <time>2026-09-01T19:59:39Z</time>
  <course>295.31</course>
  <speed>25.83844035540845</speed>
  <fix>3d</fix>
</trkpt>
<trkpt lat="-35.2778874" lon="148.9939195">
  <ele>652.06</ele>
  <time>2026-09-01T19:59:39Z</time>
  <course>294.8</course>
  <speed>25.85</speed>
  <fix>3d</fix>
</trkpt>
<trkpt lat="-35.2778487" lon="148.9938173">
  <ele>651.51</ele>
  <time>2026-09-01T19:59:39Z</time>
  <course>295.28</course>
  <speed>25.83844035540845</speed>
  <fix>3d</fix>
</trkpt>
<trkpt lat="-35.2778679" lon="148.9938678">
  <ele>651.85</ele>
  <time>2026-09-01T19:59:39Z</time>
  <course>294.78</course>
  <speed>25.86</speed>
  <fix>3d</fix>
</trkpt>
<trkpt lat="-35.2778389" lon="148.9937915">
  <ele>651.4</ele>
  <time>2026-09-01T19:59:39Z</time>
  <course>295.21</course>
  <speed>25.85171561038068</speed>
  <fix>3d</fix>
</trkpt>
<trkpt lat="-35.2778679" lon="148.9938678">
  <ele>651.85</ele>
  <time>2026-09-01T19:59:39Z</time>
  <course>294.78</course>
  <speed>25.86</speed>
  <fix>3d</fix>
</trkpt>
<trkpt lat="-35.2778292" lon="148.9937656">
  <ele>651.28</ele>
  <time>2026-09-01T19:59:39Z</time>
  <course>295.26</course>
  <speed>25.860790784506186</speed>
  <fix>3d</fix>
</trkpt>
<trkpt lat="-35.2778484" lon="148.9938161">
  <ele>651.63</ele>
  <time>2026-09-01T19:59:39Z</time>
  <course>294.78</course>
  <speed>25.87</speed>
  <fix>3d</fix>
</trkpt>
<trkpt lat="-35.2778194" lon="148.9937398">
  <ele>651.17</ele>
  <time>2026-09-01T19:59:39Z</time>
  <course>295.29</course>
  <speed>25.860790784506186</speed>
  <fix>3d</fix>
</trkpt>
<trkpt lat="-35.2778484" lon="148.9938161">
  <ele>651.63</ele>
  <time>2026-09-01T19:59:39Z</time>
  <course>294.78</course>
  <speed>25.87</speed>
  <fix>3d</fix>
</trkpt>
<trkpt lat="-35.2778097" lon="148.9937139">
  <ele>651.06</ele>
  <time>2026-09-01T19:59:39Z</time>
  <course>295.27</course>
  <speed>25.860790784506186</speed>
  <fix>3d</fix>
</trkpt>
<trkpt lat="-35.2778289" lon="148.9937644">
  <ele>651.41</ele>
  <time>2026-09-01T19:59:39Z</time>
  <course>294.77</course>
  <speed>25.89</speed>
  <fix>3d</fix>
</trkpt>
<trkpt lat="-35.2778" lon="148.9936881">
  <ele>650.94</ele>
  <time>2026-09-01T19:59:39Z</time>
  <course>295.3</course>
  <speed>25.860790784506186</speed>
  <fix>3d</fix>
</trkpt>
<trkpt lat="-35.2778289" lon="148.9937644">
  <ele>651.41</ele>
  <time>2026-09-01T19:59:39Z</time>
  <course>294.77</course>
  <speed>25.89</speed>
  <fix>3d</fix>
</trkpt>
<trkpt lat="-35.2777902" lon="148.9936622">
  <ele>650.83</ele>
  <time>2026-09-01T19:59:39Z</time>
  <course>295.26</course>
  <speed>25.86986664055306</speed>
  <fix>3d</fix>
</trkpt>
<trkpt lat="-35.2778094" lon="148.9937127">
  <ele>651.19</ele>
  <time>2026-09-01T19:59:39Z</time>
  <course>294.77</course>
  <speed>25.89</speed>
  <fix>3d</fix>
</trkpt>
<trkpt lat="-35.2777805" lon="148.9936363">
  <ele>650.72</ele>
  <time>2026-09-01T19:59:39Z</time>
  <course>295.19</course>
  <speed>25.86986664055306</speed>
  <fix>3d</fix>
</trkpt>
<trkpt lat="-35.2778094" lon="148.9937127">
  <ele>651.19</ele>
  <time>2026-09-01T19:59:39Z</time>
  <course>294.77</course>
  <speed>25.89</speed>
  <fix>3d</fix>
</trkpt>
<trkpt lat="-35.2777707" lon="148.9936105">
  <ele>650.6</ele>
  <time>2026-09-01T19:59:39Z</time>
  <course>295.18</course>
  <speed>25.87406616672378</speed>
  <fix>3d</fix>
</trkpt>
<trkpt lat="-35.27779" lon="148.993661">
  <ele>650.96</ele>
  <time>2026-09-01T19:59:39Z</time>
  <course>294.77</course>
  <speed>25.9</speed>
  <fix>3d</fix>
</trkpt>
<trkpt lat="-35.277761" lon="148.9935846">
  <ele>650.49</ele>
  <time>2026-09-01T19:59:39Z</time>
  <course>295.22</course>
  <speed>25.87406616672378</speed>
  <fix>3d</fix>
</trkpt>
<trkpt lat="-35.27779" lon="148.993661">
  <ele>650.96</ele>
  <time>2026-09-01T19:59:39Z</time>
  <course>294.77</course>
  <speed>25.9</speed>
  <fix>3d</fix>
</trkpt>
<trkpt lat="-35.2777513" lon="148.9935589">
  <ele>650.38</ele>
  <time>2026-09-01T19:59:39Z</time>
  <course>295.28</course>
  <speed>25.87406616672378</speed>
  <fix>3d</fix>
</trkpt>
<trkpt lat="-35.2777705" lon="148.9936092">
  <ele>650.74</ele>
  <time>2026-09-01T19:59:39Z</time>
  <course>294.77</course>
  <speed>25.91</speed>
  <fix>3d</fix>
</trkpt>
<trkpt lat="-35.2777415" lon="148.9935331">
  <ele>650.27</ele>
  <time>2026-09-01T19:59:39Z</time>
  <course>295.27</course>
  <speed>25.88734246692773</speed>
  <fix>3d</fix>
</trkpt>
<trkpt lat="-35.2777705" lon="148.9936092">
  <ele>650.74</ele>
  <time>2026-09-01T19:59:39Z</time>
  <course>294.77</course>
  <speed>25.91</speed>
  <fix>3d</fix>
</trkpt>
<trkpt lat="-35.2777318" lon="148.9935072">
  <ele>650.15</ele>
  <time>2026-09-01T19:59:39Z</time>
  <course>295.22</course>
  <speed>25.88734246692773</speed>
  <fix>3d</fix>
</trkpt>
<trkpt lat="-35.2777509" lon="148.9935575">
  <ele>650.51</ele>
  <time>2026-09-01T19:59:39Z</time>
  <course>294.78</course>
  <speed>25.91</speed>
  <fix>3d</fix>
</trkpt>
<trkpt lat="-35.277722" lon="148.9934813">
  <ele>650.05</ele>
  <time>2026-09-01T19:59:39Z</time>
  <course>295.21</course>
  <speed>25.88734246692773</speed>
  <fix>3d</fix>
</trkpt>
<trkpt lat="-35.2777509" lon="148.9935575">
  <ele>650.51</ele>
  <time>2026-09-01T19:59:39Z</time>
  <course>294.78</course>
  <speed>25.91</speed>
  <fix>3d</fix>
</trkpt>
<trkpt lat="-35.2777122" lon="148.9934552">
  <ele>649.94</ele>
  <time>2026-09-01T19:59:40Z</time>
  <course>295.25</course>
  <speed>25.8964167405454</speed>
  <fix>3d</fix>
</trkpt>
<trkpt lat="-35.2777314" lon="148.9935056">
  <ele>650.29</ele>
  <time>2026-09-01T19:59:40Z</time>
  <course>294.79</course>
  <speed>25.92</speed>
  <fix>3d</fix>
</trkpt>
<trkpt lat="-35.2777024" lon="148.9934293">
  <ele>649.83</ele>
  <time>2026-09-01T19:59:40Z</time>
  <course>295.31</course>
  <speed>25.8964167405454</speed>
  <fix>3d</fix>
</trkpt>
<trkpt lat="-35.2777314" lon="148.9935056">
  <ele>650.29</ele>
  <time>2026-09-01T19:59:40Z</time>
  <course>294.79</course>
  <speed>25.92</speed>
  <fix>3d</fix>
</trkpt>
<trkpt lat="-35.2776925" lon="148.9934032">
  <ele>649.73</ele>
  <time>2026-09-01T19:59:40Z</time>
  <course>295.34</course>
  <speed>25.900619683706413</speed>
  <fix>3d</fix>
</trkpt>
<trkpt lat="-35.2777118" lon="148.9934537">
  <ele>650.07</ele>
  <time>2026-09-01T19:59:40Z</time>
  <course>294.79</course>
  <speed>25.93</speed>
  <fix>3d</fix>
</trkpt>
<trkpt lat="-35.2776828" lon="148.9933773">
  <ele>649.64</ele>
  <time>2026-09-01T19:59:40Z</time>
  <course>295.31</course>
  <speed>25.900619683706413</speed>
  <fix>3d</fix>
</trkpt>
<trkpt lat="-35.2777118" lon="148.9934537">
  <ele>650.07</ele>
  <time>2026-09-01T19:59:40Z</time>
  <course>294.79</course>
  <speed>25.93</speed>
  <fix>3d</fix>
</trkpt>
<trkpt lat="-35.277673" lon="148.9933514">
  <ele>649.56</ele>
  <time>2026-09-01T19:59:40Z</time>
  <course>295.31</course>
  <speed>25.900619683706413</speed>
  <fix>3d</fix>
</trkpt>
<trkpt lat="-35.2776923" lon="148.9934018">
  <ele>649.87</ele>
  <time>2026-09-01T19:59:40Z</time>
  <course>294.8</course>
  <speed>25.93</speed>
  <fix>3d</fix>
</trkpt>
<trkpt lat="-35.2776632" lon="148.9933255">
  <ele>649.48</ele>
  <time>2026-09-01T19:59:40Z</time>
  <course>295.3</course>
  <speed>25.895754478292382</speed>
  <fix>3d</fix>
</trkpt>
<trkpt lat="-35.2776923" lon="148.9934018">
  <ele>649.87</ele>
  <time>2026-09-01T19:59:40Z</time>
  <course>294.8</course>
  <speed>25.93</speed>
  <fix>3d</fix>
</trkpt>
<trkpt lat="-35.2776534" lon="148.9932996">
  <ele>649.41</ele>
  <time>2026-09-01T19:59:40Z</time>
  <course>295.26</course>
  <speed>25.891546883104535</speed>
  <fix>3d</fix>
</trkpt>
<trkpt lat="-35.2776728" lon="148.99335">
  <ele>649.69</ele>
  <time>2026-09-01T19:59:40Z</time>
  <course>294.82</course>
  <speed>25.93</speed>
  <fix>3d</fix>
</trkpt>
<trkpt lat="-35.2776437" lon="148.9932737">
  <ele>649.35</ele>
  <time>2026-09-01T19:59:40Z</time>
  <course>295.24</course>
  <speed>25.891546883104535</speed>
  <fix>3d</fix>
</trkpt>
<trkpt lat="-35.2776728" lon="148.99335">
  <ele>649.69</ele>
  <time>2026-09-01T19:59:40Z</time>
  <course>294.82</course>
  <speed>25.93</speed>
  <fix>3d</fix>
</trkpt>
<trkpt lat="-35.2776339" lon="148.9932478">
  <ele>649.29</ele>
  <time>2026-09-01T19:59:40Z</time>
  <course>295.18</course>
  <speed>25.891546883104535</speed>
  <fix>3d</fix>
</trkpt>
<trkpt lat="-35.2776531" lon="148.9932983">
  <ele>649.54</ele>
  <time>2026-09-01T19:59:40Z</time>
  <course>294.83</course>
  <speed>25.93</speed>
  <fix>3d</fix>
</trkpt>
<trkpt lat="-35.2776241" lon="148.9932219">
  <ele>649.24</ele>
  <time>2026-09-01T19:59:40Z</time>
  <course>295.13</course>
  <speed>25.87406616672378</speed>
  <fix>3d</fix>
</trkpt>
<trkpt lat="-35.2776531" lon="148.9932983">
  <ele>649.54</ele>
  <time>2026-09-01T19:59:40Z</time>
  <course>294.83</course>
  <speed>25.93</speed>
  <fix>3d</fix>
</trkpt>
<trkpt lat="-35.2776144" lon="148.993196">
  <ele>649.19</ele>
  <time>2026-09-01T19:59:40Z</time>
  <course>295.12</course>
  <speed>25.86986664055306</speed>
  <fix>3d</fix>
</trkpt>
<trkpt lat="-35.2776336" lon="148.9932466">
  <ele>649.42</ele>
  <time>2026-09-01T19:59:40Z</time>
  <course>294.82</course>
  <speed>25.92</speed>
  <fix>3d</fix>
</trkpt>
<trkpt lat="-35.2776046" lon="148.9931702">
  <ele>649.15</ele>
  <time>2026-09-01T19:59:40Z</time>
  <course>295.18</course>
  <speed>25.860790784506186</speed>
  <fix>3d</fix>
</trkpt>
<trkpt lat="-35.2776336" lon="148.9932466">
  <ele>649.42</ele>
  <time>2026-09-01T19:59:40Z</time>
  <course>294.82</course>
  <speed>25.92</speed>
  <fix>3d</fix>
</trkpt>
<trkpt lat="-35.2775949" lon="148.9931443">
  <ele>649.12</ele>
  <time>2026-09-01T19:59:40Z</time>
  <course>295.27</course>
  <speed>25.8475163216894</speed>
  <fix>3d</fix>
</trkpt>
<trkpt lat="-35.2776141" lon="148.9931948">
  <ele>649.32</ele>
  <time>2026-09-01T19:59:40Z</time>
  <course>294.8</course>
  <speed>25.91</speed>
  <fix>3d</fix>
</trkpt>
<trkpt lat="-35.2775851" lon="148.9931185">
  <ele>649.1</ele>
  <time>2026-09-01T19:59:40Z</time>
  <course>295.29</course>
  <speed>25.83424277969068</speed>
  <fix>3d</fix>
</trkpt>
<trkpt lat="-35.2776141" lon="148.9931948">
  <ele>649.32</ele>
  <time>2026-09-01T19:59:40Z</time>
  <course>294.8</course>
  <speed>25.91</speed>
  <fix>3d</fix>
</trkpt>
<trkpt lat="-35.2775754" lon="148.9930926">
  <ele>649.09</ele>
  <time>2026-09-01T19:59:40Z</time>
  <course>295.25</course>
  <speed>25.816089944063958</speed>
  <fix>3d</fix>
</trkpt>
<trkpt lat="-35.2775946" lon="148.9931431">
  <ele>649.26</ele>
  <time>2026-09-01T19:59:40Z</time>
  <course>294.78</course>
  <speed>25.89</speed>
  <fix>3d</fix>
</trkpt>
<trkpt lat="-35.2775657" lon="148.9930668">
  <ele>649.08</ele>
  <time>2026-09-01T19:59:40Z</time>
  <course>295.17</course>
  <speed>25.8028157378221</speed>
  <fix>3d</fix>
</trkpt>
<trkpt lat="-35.2775946" lon="148.9931431">
  <ele>649.26</ele>
  <time>2026-09-01T19:59:40Z</time>
  <course>294.78</course>
  <speed>25.89</speed>
  <fix>3d</fix>
</trkpt>
<trkpt lat="-35.277556" lon="148.9930412">
  <ele>649.07</ele>
  <time>2026-09-01T19:59:40Z</time>
  <course>295.17</course>
  <speed>25.78954245425847</speed>
  <fix>3d</fix>
</trkpt>
<trkpt lat="-35.2775751" lon="148.9930914">
  <ele>649.22</ele>
  <time>2026-09-01T19:59:40Z</time>
  <course>294.78</course>
  <speed>25.86</speed>
  <fix>3d</fix>
</trkpt>
<trkpt lat="-35.2775463" lon="148.9930155">
  <ele>649.07</ele>
  <time>2026-09-01T19:59:40Z</time>
  <course>295.23</course>
  <speed>25.767192318915928</speed>
  <fix>3d</fix>
</trkpt>
<trkpt lat="-35.2775751" lon="148.9930914">
  <ele>649.22</ele>
  <time>2026-09-01T19:59:40Z</time>
  <course>294.78</course>
  <speed>25.86</speed>
  <fix>3d</fix>
</trkpt>
<trkpt lat="-35.2775366" lon="148.9929897">
  <ele>649.08</ele>
  <time>2026-09-01T19:59:40Z</time>
  <course>295.21</course>
  <speed>25.75392008995912</speed>
  <fix>3d</fix>
</trkpt>
<trkpt lat="-35.2775556" lon="148.9930398">
  <ele>649.2</ele>
  <time>2026-09-01T19:59:40Z</time>
  <course>294.78</course>
  <speed>25.82</speed>
  <fix>3d</fix>
</trkpt>
<trkpt lat="-35.2775269" lon="148.9929639">
  <ele>649.1</ele>
  <time>2026-09-01T19:59:40Z</time>
  <course>295.17</course>
  <speed>25.735764997372822</speed>
  <fix>3d</fix>
</trkpt>
<trkpt lat="-35.2775556" lon="148.9930398">
  <ele>649.2</ele>
  <time>2026-09-01T19:59:40Z</time>
  <course>294.78</course>
  <speed>25.82</speed>
  <fix>3d</fix>
</trkpt>
<trkpt lat="-35.2775172" lon="148.9929382">
  <ele>649.12</ele>
  <time>2026-09-01T19:59:40Z</time>
  <course>295.15</course>
  <speed>25.722492103215814</speed>
  <fix>3d</fix>
</trkpt>
<trkpt lat="-35.2775361" lon="148.9929881">
  <ele>649.21</ele>
  <time>2026-09-01T19:59:40Z</time>
  <course>294.78</course>
  <speed>25.79</speed>
  <fix>3d</fix>
</trkpt>
<trkpt lat="-35.2775075" lon="148.9929123">
  <ele>649.14</ele>
  <time>2026-09-01T19:59:40Z</time>
  <course>295.15</course>
  <speed>25.700142022953884</speed>
  <fix>3d</fix>
</trkpt>
<trkpt lat="-35.2775361" lon="148.9929881">
  <ele>649.21</ele>
  <time>2026-09-01T19:59:40Z</time>
  <course>294.78</course>
  <speed>25.79</speed>
  <fix>3d</fix>
</trkpt>
<trkpt lat="-35.2774978" lon="148.9928866">
  <ele>649.17</ele>
  <time>2026-09-01T19:59:40Z</time>
  <course>295.17</course>
  <speed>25.682678987987217</speed>
  <fix>3d</fix>
</trkpt>
<trkpt lat="-35.2775167" lon="148.9929365">
  <ele>649.25</ele>
  <time>2026-09-01T19:59:40Z</time>
  <course>294.77</course>
  <speed>25.76</speed>
  <fix>3d</fix>
</trkpt>
<trkpt lat="-35.2774881" lon="148.9928609">
  <ele>649.2</ele>
  <time>2026-09-01T19:59:40Z</time>
  <course>295.2</course>
  <speed>25.664520256572104</speed>
  <fix>3d</fix>
</trkpt>
<trkpt lat="-35.2775167" lon="148.9929365">
  <ele>649.25</ele>
  <time>2026-09-01T19:59:40Z</time>
  <course>294.77</course>
  <speed>25.76</speed>
  <fix>3d</fix>
</trkpt>
<trkpt lat="-35.2774781" lon="148.9928343">
  <ele>649.23</ele>
  <time>2026-09-01T19:59:40Z</time>
  <course>295.18</course>
  <speed>25.642170344961052</speed>
  <fix>3d</fix>
</trkpt>
<trkpt lat="-35.2774974" lon="148.9928851">
  <ele>649.3</ele>
  <time>2026-09-01T19:59:40Z</time>
  <course>294.76</course>
  <speed>25.72</speed>
  <fix>3d</fix>
</trkpt>
<trkpt lat="-35.2774685" lon="148.9928089">
  <ele>649.27</ele>
  <time>2026-09-01T19:59:40Z</time>
  <course>295.16</course>
  <speed>25.633091893097877</speed>
  <fix>3d</fix>
</trkpt>
<trkpt lat="-35.2774974" lon="148.9928851">
  <ele>649.3</ele>
  <time>2026-09-01T19:59:40Z</time>
  <course>294.76</course>
  <speed>25.72</speed>
  <fix>3d</fix>
</trkpt>
<trkpt lat="-35.2774589" lon="148.9927832">
  <ele>649.32</ele>
  <time>2026-09-01T19:59:40Z</time>
  <course>295.15</course>
  <speed>25.610741886950482</speed>
  <fix>3d</fix>
</trkpt>
<trkpt lat="-35.277478" lon="148.9928337">
  <ele>649.36</ele>
  <time>2026-09-01T19:59:40Z</time>
  <course>294.76</course>
  <speed>25.68</speed>
  <fix>3d</fix>
</trkpt>
<trkpt lat="-35.2774492" lon="148.9927576">
  <ele>649.36</ele>
  <time>2026-09-01T19:59:40Z</time>
  <course>295.15</course>
  <speed>25.597470578164554</speed>
  <fix>3d</fix>
</trkpt>
<trkpt lat="-35.277478" lon="148.9928337">
  <ele>649.36</ele>
  <time>2026-09-01T19:59:40Z</time>
  <course>294.76</course>
  <speed>25.68</speed>
  <fix>3d</fix>
</trkpt>
<trkpt lat="-35.2774396" lon="148.992732">
  <ele>649.41</ele>
  <time>2026-09-01T19:59:40Z</time>
  <course>295.12</course>
  <speed>25.58420020246871</speed>
  <fix>3d</fix>
</trkpt>
<trkpt lat="-35.2774587" lon="148.9927824">
  <ele>649.44</ele>
  <time>2026-09-01T19:59:40Z</time>
  <course>294.76</course>
  <speed>25.65</speed>
  <fix>3d</fix>
</trkpt>
<trkpt lat="-35.2774299" lon="148.9927062">
  <ele>649.47</ele>
  <time>2026-09-01T19:59:40Z</time>
  <course>295.13</course>
  <speed>25.561850480745715</speed>
  <fix>3d</fix>
</trkpt>
<trkpt lat="-35.2774587" lon="148.9927824">
  <ele>649.44</ele>
  <time>2026-09-01T19:59:40Z</time>
  <course>294.76</course>
  <speed>25.65</speed>
  <fix>3d</fix>
</trkpt>
<trkpt lat="-35.2774205" lon="148.9926812">
  <ele>649.53</ele>
  <time>2026-09-01T19:59:40Z</time>
  <course>295.16</course>
  <speed>25.548581173912577</speed>
  <fix>3d</fix>
</trkpt>
<trkpt lat="-35.2774394" lon="148.9927313">
  <ele>649.53</ele>
  <time>2026-09-01T19:59:40Z</time>
  <course>294.75</course>
  <speed>25.61</speed>
  <fix>3d</fix>
</trkpt>
<trkpt lat="-35.2774109" lon="148.9926556">
  <ele>649.59</ele>
  <time>2026-09-01T19:59:40Z</time>
  <course>295.16</course>
  <speed>25.53042106977478</speed>
  <fix>3d</fix>
</trkpt>
<trkpt lat="-35.2774394" lon="148.9927313">
  <ele>649.53</ele>
  <time>2026-09-01T19:59:40Z</time>
  <course>294.75</course>
  <speed>25.61</speed>
  <fix>3d</fix>
</trkpt>
<trkpt lat="-35.2774012" lon="148.9926301">
  <ele>649.65</ele>
  <time>2026-09-01T19:59:40Z</time>
  <course>295.23</course>
  <speed>25.517151094900854</speed>
  <fix>3d</fix>
</trkpt>
<trkpt lat="-35.2774201" lon="148.9926801">
  <ele>649.64</ele>
  <time>2026-09-01T19:59:40Z</time>
  <course>294.74</course>
  <speed>25.58</speed>
  <fix>3d</fix>
</trkpt>
<trkpt lat="-35.2773916" lon="148.9926046">
  <ele>649.72</ele>
  <time>2026-09-01T19:59:40Z</time>
  <course>295.23</course>
  <speed>25.50807127165831</speed>
  <fix>3d</fix>
</trkpt>
<trkpt lat="-35.2774201" lon="148.9926801">
  <ele>649.64</ele>
  <time>2026-09-01T19:59:40Z</time>
  <course>294.74</course>
  <speed>25.58</speed>
  <fix>3d</fix>
</trkpt>
<trkpt lat="-35.2773821" lon="148.9925792">
  <ele>649.79</ele>
  <time>2026-09-01T19:59:40Z</time>
  <course>295.17</course>
  <speed>25.489913691497662</speed>
  <fix>3d</fix>
</trkpt>
<trkpt lat="-35.277401" lon="148.992629">
  <ele>649.76</ele>
  <time>2026-09-01T19:59:40Z</time>
  <course>294.74</course>
  <speed>25.54</speed>
  <fix>3d</fix>
</trkpt>
<trkpt lat="-35.2773725" lon="148.9925538">
  <ele>649.85</ele>
  <time>2026-09-01T19:59:40Z</time>
  <course>295.11</course>
  <speed>25.476642243435457</speed>
  <fix>3d</fix>
</trkpt>
<trkpt lat="-35.277401" lon="148.992629">
  <ele>649.76</ele>
  <time>2026-09-01T19:59:40Z</time>
  <course>294.74</course>
  <speed>25.54</speed>
  <fix>3d</fix>
</trkpt>
<trkpt lat="-35.277363" lon="148.9925286">
  <ele>649.93</ele>
  <time>2026-09-01T19:59:40Z</time>
  <course>295.17</course>
  <speed>25.454292368871698</speed>
  <fix>3d</fix>
</trkpt>
<trkpt lat="-35.2773818" lon="148.992578">
  <ele>649.9</ele>
  <time>2026-09-01T19:59:40Z</time>
  <course>294.75</course>
  <speed>25.52</speed>
  <fix>3d</fix>
</trkpt>
<trkpt lat="-35.2773536" lon="148.9925035">
  <ele>650.0</ele>
  <time>2026-09-01T19:59:40Z</time>
  <course>295.25</course>
  <speed>25.4361357128004</speed>
  <fix>3d</fix>
</trkpt>
<trkpt lat="-35.2773818" lon="148.992578">
  <ele>649.9</ele>
  <time>2026-09-01T19:59:40Z</time>
  <course>294.75</course>
  <speed>25.52</speed>
  <fix>3d</fix>
</trkpt>
<trkpt lat="-35.2773441" lon="148.9924782">
  <ele>650.07</ele>
  <time>2026-09-01T19:59:40Z</time>
  <course>295.22</course>
  <speed>25.41378562906361</speed>
  <fix>3d</fix>
</trkpt>
<trkpt lat="-35.2773625" lon="148.9925271">
  <ele>650.04</ele>
  <time>2026-09-01T19:59:40Z</time>
  <course>294.76</course>
  <speed>25.49</speed>
  <fix>3d</fix>
</trkpt>
<trkpt lat="-35.2773345" lon="148.992453">
  <ele>650.15</ele>
  <time>2026-09-01T19:59:40Z</time>
  <course>295.21</course>
  <speed>25.404708225051515</speed>
  <fix>3d</fix>
</trkpt>
<trkpt lat="-35.2773625" lon="148.9925271">
  <ele>650.04</ele>
  <time>2026-09-01T19:59:40Z</time>
  <course>294.76</course>
  <speed>25.49</speed>
  <fix>3d</fix>
</trkpt>
<trkpt lat="-35.277325" lon="148.9924277">
  <ele>650.23</ele>
  <time>2026-09-01T19:59:40Z</time>
  <course>295.16</course>
  <speed>25.390756191968762</speed>
  <fix>3d</fix>
</trkpt>
<trkpt lat="-35.2773434" lon="148.9924761">
  <ele>650.18</ele>
  <time>2026-09-01T19:59:40Z</time>
  <course>294.77</course>
  <speed>25.47</speed>
  <fix>3d</fix>
</trkpt>
<trkpt lat="-35.2773154" lon="148.9924022">
  <ele>650.32</ele>
  <time>2026-09-01T19:59:40Z</time>
  <course>295.18</course>
  <speed>25.38168237134804</speed>
  <fix>3d</fix>
</trkpt>
<trkpt lat="-35.2773434" lon="148.9924761">
  <ele>650.18</ele>
  <time>2026-09-01T19:59:40Z</time>
  <course>294.77</course>
  <speed>25.47</speed>
  <fix>3d</fix>
</trkpt>
<trkpt lat="-35.2773059" lon="148.992377">
  <ele>650.4</ele>
  <time>2026-09-01T19:59:40Z</time>
  <course>295.21</course>
  <speed>25.372609246981284</speed>
  <fix>3d</fix>
</trkpt>
<trkpt lat="-35.2773241" lon="148.9924252">
  <ele>650.33</ele>
  <time>2026-09-01T19:59:40Z</time>
  <course>294.8</course>
  <speed>25.46</speed>
  <fix>3d</fix>
</trkpt>
<trkpt lat="-35.2772963" lon="148.9923517">
  <ele>650.49</ele>
  <time>2026-09-01T19:59:40Z</time>
  <course>295.25</course>
  <speed>25.367745268352092</speed>
  <fix>3d</fix>
</trkpt>
<trkpt lat="-35.2773241" lon="148.9924252">
  <ele>650.33</ele>
  <time>2026-09-01T19:59:40Z</time>
  <course>294.8</course>
  <speed>25.46</speed>
  <fix>3d</fix>
</trkpt>
<trkpt lat="-35.2772864" lon="148.9923257">
  <ele>650.59</ele>
  <time>2026-09-01T19:59:40Z</time>
  <course>295.29</course>
  <speed>25.34960551961312</speed>
  <fix>3d</fix>
</trkpt>
<trkpt lat="-35.277305" lon="148.9923743">
  <ele>650.5</ele>
  <time>2026-09-01T19:59:40Z</time>
  <course>294.84</course>
  <speed>25.44</speed>
  <fix>3d</fix>
</trkpt>
<trkpt lat="-35.2772769" lon="148.9923004">
  <ele>650.69</ele>
  <time>2026-09-01T19:59:40Z</time>
  <course>295.3</course>
  <speed>25.344752908639688</speed>
  <fix>3d</fix>
</trkpt>
<trkpt lat="-35.277305" lon="148.9923743">
  <ele>650.5</ele>
  <time>2026-09-01T19:59:40Z</time>
  <course>294.84</course>
  <speed>25.44</speed>
  <fix>3d</fix>
</trkpt>
<trkpt lat="-35.2772674" lon="148.9922754">
  <ele>650.79</ele>
  <time>2026-09-01T19:59:40Z</time>
  <course>295.3</course>
  <speed>25.335686294237224</speed>
  <fix>3d</fix>
</trkpt>
<trkpt lat="-35.2772857" lon="148.9923235">
  <ele>650.68</ele>
  <time>2026-09-01T19:59:40Z</time>
  <course>294.88</course>
  <speed>25.43</speed>
  <fix>3d</fix>
</trkpt>
<trkpt lat="-35.2772578" lon="148.9922501">
  <ele>650.9</ele>
  <time>2026-09-01T19:59:40Z</time>
  <course>295.29</course>
  <speed>25.32662038251452</speed>
  <fix>3d</fix>
</trkpt>
<trkpt lat="-35.2772857" lon="148.9923235">
  <ele>650.68</ele>
  <time>2026-09-01T19:59:40Z</time>
  <course>294.88</course>
  <speed>25.43</speed>
  <fix>3d</fix>
</trkpt>
<trkpt lat="-35.2772482" lon="148.9922248">
  <ele>651.02</ele>
  <time>2026-09-01T19:59:40Z</time>
  <course>295.28</course>
  <speed>25.31755517422644</speed>
  <fix>3d</fix>
</trkpt>
<trkpt lat="-35.2772664" lon="148.9922727">
  <ele>650.88</ele>
  <time>2026-09-01T19:59:40Z</time>
  <course>294.91</course>
  <speed>25.42</speed>
  <fix>3d</fix>
</trkpt>
<trkpt lat="-35.2772386" lon="148.9921996">
  <ele>651.13</ele>
  <time>2026-09-01T19:59:40Z</time>
  <course>295.36</course>
  <speed>25.30849067012887</speed>
  <fix>3d</fix>
</trkpt>
<trkpt lat="-35.2772664" lon="148.9922727">
  <ele>650.88</ele>
  <time>2026-09-01T19:59:40Z</time>
  <course>294.91</course>
  <speed>25.42</speed>
  <fix>3d</fix>
</trkpt>
<trkpt lat="-35.2772289" lon="148.9921741">
  <ele>651.25</ele>
  <time>2026-09-01T19:59:40Z</time>
  <course>295.44</course>
  <speed>25.30849067012887</speed>
  <fix>3d</fix>
</trkpt>
<trkpt lat="-35.2772473" lon="148.992222">
  <ele>651.1</ele>
  <time>2026-09-01T19:59:40Z</time>
  <course>294.93</course>
  <speed>25.41</speed>
  <fix>3d</fix>
</trkpt>
<trkpt lat="-35.2772193" lon="148.9921488">
  <ele>651.37</ele>
  <time>2026-09-01T19:59:40Z</time>
  <course>295.51</course>
  <speed>25.303653886346137</speed>
  <fix>3d</fix>
</trkpt>
<trkpt lat="-35.2772473" lon="148.992222">
  <ele>651.1</ele>
  <time>2026-09-01T19:59:40Z</time>
  <course>294.93</course>
  <speed>25.41</speed>
  <fix>3d</fix>
</trkpt>
<trkpt lat="-35.2772097" lon="148.9921236">
  <ele>651.5</ele>
  <time>2026-09-01T19:59:40Z</time>
  <course>295.49</course>
  <speed>25.307884147040028</speed>
  <fix>3d</fix>
</trkpt>
<trkpt lat="-35.277228" lon="148.9921713">
  <ele>651.33</ele>
  <time>2026-09-01T19:59:40Z</time>
  <course>294.95</course>
  <speed>25.4</speed>
  <fix>3d</fix>
</trkpt>
<trkpt lat="-35.2772001" lon="148.9920983">
  <ele>651.63</ele>
  <time>2026-09-01T19:59:40Z</time>
  <course>295.4</course>
  <speed>25.30305910359457</speed>
  <fix>3d</fix>
</trkpt>
<trkpt lat="-35.277228" lon="148.9921713">
  <ele>651.33</ele>
  <time>2026-09-01T19:59:40Z</time>
  <course>294.95</course>
  <speed>25.4</speed>
  <fix>3d</fix>
</trkpt>
<trkpt lat="-35.2771904" lon="148.992073">
  <ele>651.76</ele>
  <time>2026-09-01T19:59:40Z</time>
  <course>295.39</course>
  <speed>25.30305910359457</speed>
  <fix>3d</fix>
</trkpt>
<trkpt lat="-35.2772087" lon="148.9921206">
  <ele>651.57</ele>
  <time>2026-09-01T19:59:40Z</time>
  <course>294.99</course>
  <speed>25.4</speed>
  <fix>3d</fix>
</trkpt>
<trkpt lat="-35.2771808" lon="148.9920478">
  <ele>651.89</ele>
  <time>2026-09-01T19:59:40Z</time>
  <course>295.41</course>
  <speed>25.307297366569983</speed>
  <fix>3d</fix>
</trkpt>
<trkpt lat="-35.2772087" lon="148.9921206">
  <ele>651.57</ele>
  <time>2026-09-01T19:59:40Z</time>
  <course>294.99</course>
  <speed>25.4</speed>
  <fix>3d</fix>
</trkpt>
<trkpt lat="-35.2771712" lon="148.9920225">
  <ele>652.03</ele>
  <time>2026-09-01T19:59:40Z</time>
  <course>295.38</course>
  <speed>25.307297366569983</speed>
  <fix>3d</fix>
</trkpt>
<trkpt lat="-35.2771894" lon="148.99207">
  <ele>651.83</ele>
  <time>2026-09-01T19:59:40Z</time>
  <course>295.02</course>
  <speed>25.39</speed>
  <fix>3d</fix>
</trkpt>
<trkpt lat="-35.2771618" lon="148.9919978">
  <ele>652.16</ele>
  <time>2026-09-01T19:59:40Z</time>
  <course>295.39</course>
  <speed>25.30305910359457</speed>
  <fix>3d</fix>
</trkpt>
<trkpt lat="-35.2771894" lon="148.99207">
  <ele>651.83</ele>
  <time>2026-09-01T19:59:40Z</time>
  <course>295.02</course>
  <speed>25.39</speed>
  <fix>3d</fix>
</trkpt>
<trkpt lat="-35.2771522" lon="148.9919728">
  <ele>652.3</ele>
  <time>2026-09-01T19:59:40Z</time>
  <course>295.43</course>
  <speed>25.30305910359457</speed>
  <fix>3d</fix>
</trkpt>
<trkpt lat="-35.2771701" lon="148.9920194">
  <ele>652.09</ele>
  <time>2026-09-01T19:59:40Z</time>
  <course>295.03</course>
  <speed>25.39</speed>
  <fix>3d</fix>
</trkpt>
<trkpt lat="-35.2771426" lon="148.9919475">
  <ele>652.44</ele>
  <time>2026-09-01T19:59:40Z</time>
  <course>295.4</course>
  <speed>25.312117651433276</speed>
  <fix>3d</fix>
</trkpt>
<trkpt lat="-35.2771701" lon="148.9920194">
  <ele>652.09</ele>
  <time>2026-09-01T19:59:40Z</time>
  <course>295.03</course>
  <speed>25.39</speed>
  <fix>3d</fix>
</trkpt>
<trkpt lat="-35.2771329" lon="148.9919221">
  <ele>652.59</ele>
  <time>2026-09-01T19:59:40Z</time>
  <course>295.4</course>
  <speed>25.312117651433276</speed>
  <fix>3d</fix>
</trkpt>
<trkpt lat="-35.2771508" lon="148.9919688">
  <ele>652.37</ele>
  <time>2026-09-01T19:59:40Z</time>
  <course>295.02</course>
  <speed>25.39</speed>
  <fix>3d</fix>
</trkpt>
<trkpt lat="-35.2771233" lon="148.9918968">
  <ele>652.74</ele>
  <time>2026-09-01T19:59:40Z</time>
  <course>295.43</course>
  <speed>25.325412138798452</speed>
  <fix>3d</fix>
</trkpt>
<trkpt lat="-35.2771508" lon="148.9919688">
  <ele>652.37</ele>
  <time>2026-09-01T19:59:40Z</time>
  <course>295.02</course>
  <speed>25.39</speed>
  <fix>3d</fix>
</trkpt>
<trkpt lat="-35.2771135" lon="148.9918712">
  <ele>652.89</ele>
  <time>2026-09-01T19:59:40Z</time>
  <course>295.4</course>
  <speed>25.325412138798452</speed>
  <fix>3d</fix>
</trkpt>
<trkpt lat="-35.2771315" lon="148.9919181">
  <ele>652.65</ele>
  <time>2026-09-01T19:59:40Z</time>
  <course>295.01</course>
  <speed>25.4</speed>
  <fix>3d</fix>
</trkpt>
<trkpt lat="-35.2771038" lon="148.9918459">
  <ele>653.04</ele>
  <time>2026-09-01T19:59:40Z</time>
  <course>295.48</course>
  <speed>25.334470588508456</speed>
  <fix>3d</fix>
</trkpt>
<trkpt lat="-35.2771315" lon="148.9919181">
  <ele>652.65</ele>
  <time>2026-09-01T19:59:40Z</time>
  <course>295.01</course>
  <speed>25.4</speed>
  <fix>3d</fix>
</trkpt>
<trkpt lat="-35.2770942" lon="148.9918205">
  <ele>653.19</ele>
  <time>2026-09-01T19:59:40Z</time>
  <course>295.48</course>
  <speed>25.347765187487436</speed>
  <fix>3d</fix>
</trkpt>
<trkpt lat="-35.2771122" lon="148.9918673">
  <ele>652.94</ele>
  <time>2026-09-01T19:59:40Z</time>
  <course>295.0</course>
  <speed>25.4</speed>
  <fix>3d</fix>
</trkpt>
<trkpt lat="-35.2770842" lon="148.9917942">
  <ele>653.36</ele>
  <time>2026-09-01T19:59:40Z</time>
  <course>295.44</course>
  <speed>25.35682353923693</speed>
  <fix>3d</fix>
</trkpt>
<trkpt lat="-35.2771122" lon="148.9918673">
  <ele>652.94</ele>
  <time>2026-09-01T19:59:40Z</time>
  <course>295.0</course>
  <speed>25.4</speed>
  <fix>3d</fix>
</trkpt>
<trkpt lat="-35.2770745" lon="148.991769">
  <ele>653.51</ele>
  <time>2026-09-01T19:59:40Z</time>
  <course>295.47</course>
  <speed>25.361060703369645</speed>
  <fix>3d</fix>
</trkpt>
<trkpt lat="-35.2770929" lon="148.9918166">
  <ele>653.25</ele>
  <time>2026-09-01T19:59:40Z</time>
  <course>295.0</course>
  <speed>25.41</speed>
  <fix>3d</fix>
</trkpt>
<trkpt lat="-35.2770648" lon="148.9917436">
  <ele>653.67</ele>
  <time>2026-09-01T19:59:40Z</time>
  <course>295.47</course>
  <speed>25.37011824962588</speed>
  <fix>3d</fix>
</trkpt>
<trkpt lat="-35.2770929" lon="148.9918166">
  <ele>653.25</ele>
  <time>2026-09-01T19:59:40Z</time>
  <course>295.0</course>
  <speed>25.41</speed>
  <fix>3d</fix>
</trkpt>
<trkpt lat="-35.2770552" lon="148.9917181">
  <ele>653.84</ele>
  <time>2026-09-01T19:59:40Z</time>
  <course>295.42</course>
  <speed>25.379176503582617</speed>
  <fix>3d</fix>
</trkpt>
<trkpt lat="-35.2770736" lon="148.9917659">
  <ele>653.56</ele>
  <time>2026-09-01T19:59:40Z</time>
  <course>295.01</course>
  <speed>25.41</speed>
  <fix>3d</fix>
</trkpt>
<trkpt lat="-35.2770455" lon="148.9916926">
  <ele>654.0</ele>
  <time>2026-09-01T19:59:40Z</time>
  <course>295.29</course>
  <speed>25.388235464482364</speed>
  <fix>3d</fix>
</trkpt>
<trkpt lat="-35.2770736" lon="148.9917659">
  <ele>653.56</ele>
  <time>2026-09-01T19:59:40Z</time>
  <course>295.01</course>
  <speed>25.41</speed>
  <fix>3d</fix>
</trkpt>
<trkpt lat="-35.2770358" lon="148.9916672">
  <ele>654.17</ele>
  <time>2026-09-01T19:59:40Z</time>
  <course>295.26</course>
  <speed>25.388836129291157</speed>
  <fix>3d</fix>
</trkpt>
<trkpt lat="-35.2770543" lon="148.9917153">
  <ele>653.88</ele>
  <time>2026-09-01T19:59:40Z</time>
  <course>295.0</course>
  <speed>25.42</speed>
  <fix>3d</fix>
</trkpt>
<trkpt lat="-35.277026" lon="148.9916415">
  <ele>654.34</ele>
  <time>2026-09-01T19:59:40Z</time>
  <course>295.3</course>
  <speed>25.4027419779834</speed>
  <fix>3d</fix>
</trkpt>
<trkpt lat="-35.2770543" lon="148.9917153">
  <ele>653.88</ele>
  <time>2026-09-01T19:59:40Z</time>
  <course>295.0</course>
  <speed>25.42</speed>
  <fix>3d</fix>
</trkpt>
<trkpt lat="-35.2770164" lon="148.991616">
  <ele>654.51</ele>
  <time>2026-09-01T19:59:40Z</time>
  <course>295.37</course>
  <speed>25.411808278829746</speed>
  <fix>3d</fix>
</trkpt>
<trkpt lat="-35.277035" lon="148.9916646">
  <ele>654.21</ele>
  <time>2026-09-01T19:59:40Z</time>
  <course>294.95</course>
  <speed>25.42</speed>
  <fix>3d</fix>
</trkpt>
<trkpt lat="-35.2770067" lon="148.9915906">
  <ele>654.69</ele>
  <time>2026-09-01T19:59:40Z</time>
  <course>295.42</course>
  <speed>25.420875279974133</speed>
  <fix>3d</fix>
</trkpt>
<trkpt lat="-35.277035" lon="148.9916646">
  <ele>654.21</ele>
  <time>2026-09-01T19:59:40Z</time>
  <course>294.95</course>
  <speed>25.42</speed>
  <fix>3d</fix>
</trkpt>
<trkpt lat="-35.2769971" lon="148.9915651">
  <ele>654.86</ele>
  <time>2026-09-01T19:59:40Z</time>
  <course>295.43</course>
  <speed>25.420875279974133</speed>
  <fix>3d</fix>
</trkpt>
<trkpt lat="-35.2770158" lon="148.9916139">
  <ele>654.55</ele>
  <time>2026-09-01T19:59:40Z</time>
  <course>294.9</course>
  <speed>25.42</speed>
  <fix>3d</fix>
</trkpt>
<trkpt lat="-35.2769874" lon="148.9915396">
  <ele>655.04</ele>
  <time>2026-09-01T19:59:40Z</time>
  <course>295.42</course>
  <speed>25.43901138016177</speed>
  <fix>3d</fix>
</trkpt>
<trkpt lat="-35.2770158" lon="148.9916139">
  <ele>654.55</ele>
  <time>2026-09-01T19:59:40Z</time>
  <course>294.9</course>
  <speed>25.42</speed>
  <fix>3d</fix>
</trkpt>
<trkpt lat="-35.2769778" lon="148.9915141">
  <ele>655.22</ele>
  <time>2026-09-01T19:59:40Z</time>
  <course>295.43</course>
  <speed>25.43901138016177</speed>
  <fix>3d</fix>
</trkpt>
<trkpt lat="-35.2769965" lon="148.9915631">
  <ele>654.9</ele>
  <time>2026-09-01T19:59:40Z</time>
  <course>294.88</course>
  <speed>25.43</speed>
  <fix>3d</fix>
</trkpt>
<trkpt lat="-35.2769682" lon="148.9914887">
  <ele>655.4</ele>
  <time>2026-09-01T19:59:40Z</time>
  <course>295.41</course>
  <speed>25.43901138016177</speed>
  <fix>3d</fix>
</trkpt>
<trkpt lat="-35.2769965" lon="148.9915631">
  <ele>654.9</ele>
  <time>2026-09-01T19:59:40Z</time>
  <course>294.88</course>
  <speed>25.43</speed>
  <fix>3d</fix>
</trkpt>
<trkpt lat="-35.2769585" lon="148.9914632">
  <ele>655.59</ele>
  <time>2026-09-01T19:59:40Z</time>
  <course>295.38</course>
  <speed>25.448080477709905</speed>
  <fix>3d</fix>
</trkpt>
<trkpt lat="-35.2769773" lon="148.9915124">
  <ele>655.26</ele>
  <time>2026-09-01T19:59:40Z</time>
  <course>294.88</course>
  <speed>25.43</speed>
  <fix>3d</fix>
</trkpt>
<trkpt lat="-35.2769489" lon="148.9914377">
  <ele>655.78</ele>
  <time>2026-09-01T19:59:40Z</time>
  <course>295.34</course>
  <speed>25.46136288575299</speed>
  <fix>3d</fix>
</trkpt>
<trkpt lat="-35.2769773" lon="148.9915124">
  <ele>655.26</ele>
  <time>2026-09-01T19:59:40Z</time>
  <course>294.88</course>
  <speed>25.43</speed>
  <fix>3d</fix>
</trkpt>
<trkpt lat="-35.2769392" lon="148.9914122">
  <ele>655.97</ele>
  <time>2026-09-01T19:59:40Z</time>
  <course>295.32</course>
  <speed>25.45715027256586</speed>
  <fix>3d</fix>
</trkpt>
<trkpt lat="-35.2769581" lon="148.9914615">
  <ele>655.62</ele>
  <time>2026-09-01T19:59:40Z</time>
  <course>294.88</course>
  <speed>25.44</speed>
  <fix>3d</fix>
</trkpt>
<trkpt lat="-35.2769296" lon="148.9913868">
  <ele>656.16</ele>
  <time>2026-09-01T19:59:40Z</time>
  <course>295.32</course>
  <speed>25.466220763984595</speed>
  <fix>3d</fix>
</trkpt>
<trkpt lat="-35.2769581" lon="148.9914615">
  <ele>655.62</ele>
  <time>2026-09-01T19:59:40Z</time>
  <course>294.88</course>
  <speed>25.44</speed>
  <fix>3d</fix>
</trkpt>
<trkpt lat="-35.27692" lon="148.9913613">
  <ele>656.36</ele>
  <time>2026-09-01T19:59:40Z</time>
  <course>295.37</course>
  <speed>25.475291951222072</speed>
  <fix>3d</fix>
</trkpt>
<trkpt lat="-35.2769389" lon="148.9914108">
  <ele>656.0</ele>
  <time>2026-09-01T19:59:40Z</time>
  <course>294.87</course>
  <speed>25.44</speed>
  <fix>3d</fix>
</trkpt>
<trkpt lat="-35.2769103" lon="148.9913358">
  <ele>656.56</ele>
  <time>2026-09-01T19:59:40Z</time>
  <course>295.36</course>
  <speed>25.475291951222072</speed>
  <fix>3d</fix>
</trkpt>
<trkpt lat="-35.2769389" lon="148.9914108">
  <ele>656.0</ele>
  <time>2026-09-01T19:59:40Z</time>
  <course>294.87</course>
  <speed>25.44</speed>
  <fix>3d</fix>
</trkpt>
<trkpt lat="-35.2769007" lon="148.9913104">
  <ele>656.75</ele>
  <time>2026-09-01T19:59:40Z</time>
  <course>295.37</course>
  <speed>25.475291951222072</speed>
  <fix>3d</fix>
</trkpt>
<trkpt lat="-35.2769196" lon="148.9913599">
  <ele>656.39</ele>
  <time>2026-09-01T19:59:40Z</time>
  <course>294.85</course>
  <speed>25.45</speed>
  <fix>3d</fix>
</trkpt>
<trkpt lat="-35.2768913" lon="148.9912855">
  <ele>656.95</ele>
  <time>2026-09-01T19:59:40Z</time>
  <course>295.41</course>
  <speed>25.484363833535262</speed>
  <fix>3d</fix>
</trkpt>
<trkpt lat="-35.2769196" lon="148.9913599">
  <ele>656.39</ele>
  <time>2026-09-01T19:59:40Z</time>
  <course>294.85</course>
  <speed>25.45</speed>
  <fix>3d</fix>
</trkpt>
<trkpt lat="-35.2768814" lon="148.9912592">
  <ele>657.15</ele>
  <time>2026-09-01T19:59:40Z</time>
  <course>295.35</course>
  <speed>25.48857194901276</speed>
  <fix>3d</fix>
</trkpt>
<trkpt lat="-35.2769004" lon="148.991309">
  <ele>656.78</ele>
  <time>2026-09-01T19:59:40Z</time>
  <course>294.84</course>
  <speed>25.46</speed>
  <fix>3d</fix>
</trkpt>
<trkpt lat="-35.2768718" lon="148.9912339">
  <ele>657.34</ele>
  <time>2026-09-01T19:59:40Z</time>
  <course>295.29</course>
  <speed>25.497643028327147</speed>
  <fix>3d</fix>
</trkpt>
<trkpt lat="-35.2769004" lon="148.991309">
  <ele>656.78</ele>
  <time>2026-09-01T19:59:40Z</time>
  <course>294.84</course>
  <speed>25.46</speed>
  <fix>3d</fix>
</trkpt>
<trkpt lat="-35.2768622" lon="148.9912085">
  <ele>657.54</ele>
  <time>2026-09-01T19:59:40Z</time>
  <course>295.22</course>
  <speed>25.506714802184934</speed>
  <fix>3d</fix>
</trkpt>
<trkpt lat="-35.2768812" lon="148.9912581">
  <ele>657.17</ele>
  <time>2026-09-01T19:59:40Z</time>
  <course>294.83</course>
  <speed>25.46</speed>
  <fix>3d</fix>
</trkpt>
<trkpt lat="-35.2768526" lon="148.991183">
  <ele>657.73</ele>
  <time>2026-09-01T19:59:40Z</time>
  <course>295.25</course>
  <speed>25.50250968042165</speed>
  <fix>3d</fix>
</trkpt>
<trkpt lat="-35.2768812" lon="148.9912581">
  <ele>657.17</ele>
  <time>2026-09-01T19:59:40Z</time>
  <course>294.83</course>
  <speed>25.46</speed>
  <fix>3d</fix>
</trkpt>
<trkpt lat="-35.276843" lon="148.9911575">
  <ele>657.92</ele>
  <time>2026-09-01T19:59:40Z</time>
  <course>295.28</course>
  <speed>25.51578726984531</speed>
  <fix>3d</fix>
</trkpt>
<trkpt lat="-35.2768619" lon="148.9912072">
  <ele>657.55</ele>
  <time>2026-09-01T19:59:40Z</time>
  <course>294.82</course>
  <speed>25.47</speed>
  <fix>3d</fix>
</trkpt>
<trkpt lat="-35.2768333" lon="148.9911318">
  <ele>658.11</ele>
  <time>2026-09-01T19:59:40Z</time>
  <course>295.33</course>
  <speed>25.51578726984531</speed>
  <fix>3d</fix>
</trkpt>
<trkpt lat="-35.2768619" lon="148.9912072">
  <ele>657.55</ele>
  <time>2026-09-01T19:59:40Z</time>
  <course>294.82</course>
  <speed>25.47</speed>
  <fix>3d</fix>
</trkpt>
<trkpt lat="-35.2768237" lon="148.9911064">
  <ele>658.3</ele>
  <time>2026-09-01T19:59:40Z</time>
  <course>295.28</course>
  <speed>25.529065787842686</speed>
  <fix>3d</fix>
</trkpt>
<trkpt lat="-35.2768427" lon="148.9911564">
  <ele>657.92</ele>
  <time>2026-09-01T19:59:40Z</time>
  <course>294.81</course>
  <speed>25.48</speed>
  <fix>3d</fix>
</trkpt>
<trkpt lat="-35.276814" lon="148.9910809">
  <ele>658.49</ele>
  <time>2026-09-01T19:59:40Z</time>
  <course>295.24</course>
  <speed>25.529065787842686</speed>
  <fix>3d</fix>
</trkpt>
<trkpt lat="-35.2768427" lon="148.9911564">
  <ele>657.92</ele>
  <time>2026-09-01T19:59:40Z</time>
  <course>294.81</course>
  <speed>25.48</speed>
  <fix>3d</fix>
</trkpt>
<trkpt lat="-35.2768044" lon="148.9910554">
  <ele>658.67</ele>
  <time>2026-09-01T19:59:40Z</time>
  <course>295.27</course>
  <speed>25.5381381467013</speed>
  <fix>3d</fix>
</trkpt>
<trkpt lat="-35.2768235" lon="148.9911055">
  <ele>658.29</ele>
  <time>2026-09-01T19:59:40Z</time>
  <course>294.81</course>
  <speed>25.5</speed>
  <fix>3d</fix>
</trkpt>
<trkpt lat="-35.2767948" lon="148.9910299">
  <ele>658.85</ele>
  <time>2026-09-01T19:59:40Z</time>
  <course>295.32</course>
  <speed>25.5381381467013</speed>
  <fix>3d</fix>
</trkpt>
<trkpt lat="-35.2768235" lon="148.9911055">
  <ele>658.29</ele>
  <time>2026-09-01T19:59:40Z</time>
  <course>294.81</course>
  <speed>25.5</speed>
  <fix>3d</fix>
</trkpt>
<trkpt lat="-35.2767852" lon="148.9910044">
  <ele>659.03</ele>
  <time>2026-09-01T19:59:40Z</time>
  <course>295.32</course>
  <speed>25.560489040704994</speed>
  <fix>3d</fix>
</trkpt>
<trkpt lat="-35.2768042" lon="148.9910545">
  <ele>658.66</ele>
  <time>2026-09-01T19:59:40Z</time>
  <course>294.82</course>
  <speed>25.51</speed>
  <fix>3d</fix>
</trkpt>
<trkpt lat="-35.2767755" lon="148.9909789">
  <ele>659.21</ele>
  <time>2026-09-01T19:59:40Z</time>
  <course>295.3</course>
  <speed>25.573767810004064</speed>
  <fix>3d</fix>
</trkpt>
<trkpt lat="-35.2768042" lon="148.9910545">
  <ele>658.66</ele>
  <time>2026-09-01T19:59:40Z</time>
  <course>294.82</course>
  <speed>25.51</speed>
  <fix>3d</fix>
</trkpt>
<trkpt lat="-35.2767659" lon="148.9909534">
  <ele>659.39</ele>
  <time>2026-09-01T19:59:40Z</time>
  <course>295.29</course>
  <speed>25.577976855099386</speed>
  <fix>3d</fix>
</trkpt>
<trkpt lat="-35.276785" lon="148.9910036">
  <ele>659.02</ele>
  <time>2026-09-01T19:59:40Z</time>
  <course>294.82</course>
  <speed>25.53</speed>
  <fix>3d</fix>
</trkpt>
<trkpt lat="-35.2767562" lon="148.9909278">
  <ele>659.57</ele>
  <time>2026-09-01T19:59:40Z</time>
  <course>295.31</course>
  <speed>25.587047504548078</speed>
  <fix>3d</fix>
</trkpt>
<trkpt lat="-35.276785" lon="148.9910036">
  <ele>659.02</ele>
  <time>2026-09-01T19:59:40Z</time>
  <course>294.82</course>
  <speed>25.53</speed>
  <fix>3d</fix>
</trkpt>
<trkpt lat="-35.2767466" lon="148.9909023">
  <ele>659.74</ele>
  <time>2026-09-01T19:59:40Z</time>
  <course>295.34</course>
  <speed>25.59125827309005</speed>
  <fix>3d</fix>
</trkpt>
<trkpt lat="-35.2767657" lon="148.9909526">
  <ele>659.38</ele>
  <time>2026-09-01T19:59:40Z</time>
  <course>294.84</course>
  <speed>25.56</speed>
  <fix>3d</fix>
</trkpt>
<trkpt lat="-35.2767369" lon="148.9908768">
  <ele>659.92</ele>
  <time>2026-09-01T19:59:40Z</time>
  <course>295.37</course>
  <speed>25.60454061294598</speed>
  <fix>3d</fix>
</trkpt>
<trkpt lat="-35.2767657" lon="148.9909526">
  <ele>659.38</ele>
  <time>2026-09-01T19:59:40Z</time>
  <course>294.84</course>
  <speed>25.56</speed>
  <fix>3d</fix>
</trkpt>
<trkpt lat="-35.2767272" lon="148.9908512">
  <ele>660.09</ele>
  <time>2026-09-01T19:59:40Z</time>
  <course>295.39</course>
  <speed>25.61782387323326</speed>
  <fix>3d</fix>
</trkpt>
<trkpt lat="-35.2767464" lon="148.9909015">
  <ele>659.73</ele>
  <time>2026-09-01T19:59:40Z</time>
  <course>294.85</course>
  <speed>25.57</speed>
  <fix>3d</fix>
</trkpt>
<trkpt lat="-35.2767175" lon="148.9908257">
  <ele>660.27</ele>
  <time>2026-09-01T19:59:40Z</time>
  <course>295.36</course>
  <speed>25.622041292605864</speed>
  <fix>3d</fix>
</trkpt>
<trkpt lat="-35.2767464" lon="148.9909015">
  <ele>659.73</ele>
  <time>2026-09-01T19:59:40Z</time>
  <course>294.85</course>
  <speed>25.57</speed>
  <fix>3d</fix>
</trkpt>
<trkpt lat="-35.2767078" lon="148.9908001">
  <ele>660.44</ele>
  <time>2026-09-01T19:59:40Z</time>
  <course>295.39</course>
  <speed>25.63532718730151</speed>
  <fix>3d</fix>
</trkpt>
<trkpt lat="-35.2767271" lon="148.9908503">
  <ele>660.08</ele>
  <time>2026-09-01T19:59:40Z</time>
  <course>294.89</course>
  <speed>25.59</speed>
  <fix>3d</fix>
</trkpt>
<trkpt lat="-35.2766981" lon="148.9907745">
  <ele>660.61</ele>
  <time>2026-09-01T19:59:40Z</time>
  <course>295.39</course>
  <speed>25.648613997641277</speed>
  <fix>3d</fix>
</trkpt>
<trkpt lat="-35.2767271" lon="148.9908503">
  <ele>660.08</ele>
  <time>2026-09-01T19:59:40Z</time>
  <course>294.89</course>
  <speed>25.59</speed>
  <fix>3d</fix>
</trkpt>
<trkpt lat="-35.2766884" lon="148.9907489">
  <ele>660.78</ele>
  <time>2026-09-01T19:59:40Z</time>
  <course>295.4</course>
  <speed>25.6619017222029</speed>
  <fix>3d</fix>
</trkpt>
<trkpt lat="-35.2767076" lon="148.9907991">
  <ele>660.43</ele>
  <time>2026-09-01T19:59:40Z</time>
  <course>294.92</course>
  <speed>25.61</speed>
  <fix>3d</fix>
</trkpt>
<trkpt lat="-35.2766787" lon="148.9907234">
  <ele>660.95</ele>
  <time>2026-09-01T19:59:40Z</time>
  <course>295.41</course>
  <speed>25.675190359566955</speed>
  <fix>3d</fix>
</trkpt>
<trkpt lat="-35.2767076" lon="148.9907991">
  <ele>660.43</ele>
  <time>2026-09-01T19:59:40Z</time>
  <course>294.92</course>
  <speed>25.61</speed>
  <fix>3d</fix>
</trkpt>
<trkpt lat="-35.276669" lon="148.9906978">
  <ele>661.12</ele>
  <time>2026-09-01T19:59:40Z</time>
  <course>295.43</course>
  <speed>25.67941782829198</speed>
  <fix>3d</fix>
</trkpt>
<trkpt lat="-35.2766882" lon="148.990748">
  <ele>660.78</ele>
  <time>2026-09-01T19:59:40Z</time>
  <course>294.94</course>
  <speed>25.64</speed>
  <fix>3d</fix>
</trkpt>
<trkpt lat="-35.2766592" lon="148.9906721">
  <ele>661.29</ele>
  <time>2026-09-01T19:59:40Z</time>
  <course>295.44</course>
  <speed>25.688479908316882</speed>
  <fix>3d</fix>
</trkpt>
<trkpt lat="-35.2766882" lon="148.990748">
  <ele>660.78</ele>
  <time>2026-09-01T19:59:40Z</time>
  <course>294.94</course>
  <speed>25.64</speed>
  <fix>3d</fix>
</trkpt>
<trkpt lat="-35.2766495" lon="148.9906465">
  <ele>661.45</ele>
  <time>2026-09-01T19:59:40Z</time>
  <course>295.39</course>
  <speed>25.70177036703892</speed>
  <fix>3d</fix>
</trkpt>
<trkpt lat="-35.2766688" lon="148.9906969">
  <ele>661.12</ele>
  <time>2026-09-01T19:59:40Z</time>
  <course>294.96</course>
  <speed>25.66</speed>
  <fix>3d</fix>
</trkpt>
<trkpt lat="-35.2766397" lon="148.9906209">
  <ele>661.62</ele>
  <time>2026-09-01T19:59:40Z</time>
  <course>295.36</course>
  <speed>25.715061734322163</speed>
  <fix>3d</fix>
</trkpt>
<trkpt lat="-35.2766688" lon="148.9906969">
  <ele>661.12</ele>
  <time>2026-09-01T19:59:40Z</time>
  <course>294.96</course>
  <speed>25.66</speed>
  <fix>3d</fix>
</trkpt>
<trkpt lat="-35.2766301" lon="148.9905955">
  <ele>661.78</ele>
  <time>2026-09-01T19:59:40Z</time>
  <course>295.37</course>
  <speed>25.724122919936452</speed>
  <fix>3d</fix>
</trkpt>
<trkpt lat="-35.2766493" lon="148.9906457">
  <ele>661.45</ele>
  <time>2026-09-01T19:59:40Z</time>
  <course>294.98</course>
  <speed>25.68</speed>
  <fix>3d</fix>
</trkpt>
<trkpt lat="-35.2766201" lon="148.9905694">
  <ele>661.95</ele>
  <time>2026-09-01T19:59:40Z</time>
  <course>295.36</course>
  <speed>25.73318480095303</speed>
  <fix>3d</fix>
</trkpt>
<trkpt lat="-35.2766493" lon="148.9906457">
  <ele>661.45</ele>
  <time>2026-09-01T19:59:40Z</time>
  <course>294.98</course>
  <speed>25.68</speed>
  <fix>3d</fix>
</trkpt>
<trkpt lat="-35.2766104" lon="148.9905438">
  <ele>662.12</ele>
  <time>2026-09-01T19:59:40Z</time>
  <course>295.37</course>
  <speed>25.73318480095303</speed>
  <fix>3d</fix>
</trkpt>
<trkpt lat="-35.2766299" lon="148.9905944">
  <ele>661.78</ele>
  <time>2026-09-01T19:59:40Z</time>
  <course>294.98</course>
  <speed>25.7</speed>
  <fix>3d</fix>
</trkpt>
<trkpt lat="-35.2766007" lon="148.9905181">
  <ele>662.29</ele>
  <time>2026-09-01T19:59:40Z</time>
  <course>295.39</course>
  <speed>25.742247376637497</speed>
  <fix>3d</fix>
</trkpt>
<trkpt lat="-35.2766299" lon="148.9905944">
  <ele>661.78</ele>
  <time>2026-09-01T19:59:40Z</time>
  <course>294.98</course>
  <speed>25.7</speed>
  <fix>3d</fix>
</trkpt>
<trkpt lat="-35.2765909" lon="148.9904924">
  <ele>662.45</ele>
  <time>2026-09-01T19:59:40Z</time>
  <course>295.39</course>
  <speed>25.742247376637497</speed>
  <fix>3d</fix>
</trkpt>
<trkpt lat="-35.2766104" lon="148.9905431">
  <ele>662.12</ele>
  <time>2026-09-01T19:59:40Z</time>
  <course>294.97</course>
  <speed>25.72</speed>
  <fix>3d</fix>
</trkpt>
<trkpt lat="-35.2765811" lon="148.9904667">
  <ele>662.62</ele>
  <time>2026-09-01T19:59:40Z</time>
  <course>295.3</course>
  <speed>25.755537268711752</speed>
  <fix>3d</fix>
</trkpt>
<trkpt lat="-35.2766104" lon="148.9905431">
  <ele>662.12</ele>
  <time>2026-09-01T19:59:40Z</time>
  <course>294.97</course>
  <speed>25.72</speed>
  <fix>3d</fix>
</trkpt>
<trkpt lat="-35.2765714" lon="148.990441">
  <ele>662.79</ele>
  <time>2026-09-01T19:59:40Z</time>
  <course>295.32</course>
  <speed>25.760374609077406</speed>
  <fix>3d</fix>
</trkpt>
<trkpt lat="-35.2765909" lon="148.9904918">
  <ele>662.45</ele>
  <time>2026-09-01T19:59:40Z</time>
  <course>294.96</course>
  <speed>25.73</speed>
  <fix>3d</fix>
</trkpt>
<trkpt lat="-35.2765616" lon="148.9904153">
  <ele>662.96</ele>
  <time>2026-09-01T19:59:40Z</time>
  <course>295.36</course>
  <speed>25.773662913912723</speed>
  <fix>3d</fix>
</trkpt>
<trkpt lat="-35.2765909" lon="148.9904918">
  <ele>662.45</ele>
  <time>2026-09-01T19:59:40Z</time>
  <course>294.96</course>
  <speed>25.73</speed>
  <fix>3d</fix>
</trkpt>
<trkpt lat="-35.2765518" lon="148.9903895">
  <ele>663.13</ele>
  <time>2026-09-01T19:59:40Z</time>
  <course>295.32</course>
  <speed>25.782726775886218</speed>
  <fix>3d</fix>
</trkpt>
<trkpt lat="-35.2765713" lon="148.9904404">
  <ele>662.79</ele>
  <time>2026-09-01T19:59:40Z</time>
  <course>294.94</course>
  <speed>25.75</speed>
  <fix>3d</fix>
</trkpt>
<trkpt lat="-35.2765421" lon="148.9903638">
  <ele>663.29</ele>
  <time>2026-09-01T19:59:40Z</time>
  <course>295.3</course>
  <speed>25.79179132980104</speed>
  <fix>3d</fix>
</trkpt>
<trkpt lat="-35.2765713" lon="148.9904404">
  <ele>662.79</ele>
  <time>2026-09-01T19:59:40Z</time>
  <course>294.94</course>
  <speed>25.75</speed>
  <fix>3d</fix>
</trkpt>
<trkpt lat="-35.2765323" lon="148.990338">
  <ele>663.46</ele>
  <time>2026-09-01T19:59:40Z</time>
  <course>295.26</course>
  <speed>25.796637377766892</speed>
  <fix>3d</fix>
</trkpt>
<trkpt lat="-35.2765518" lon="148.9903891">
  <ele>663.12</ele>
  <time>2026-09-01T19:59:40Z</time>
  <course>294.93</course>
  <speed>25.76</speed>
  <fix>3d</fix>
</trkpt>
<trkpt lat="-35.2765225" lon="148.9903123">
  <ele>663.62</ele>
  <time>2026-09-01T19:59:40Z</time>
  <course>295.25</course>
  <speed>25.796637377766892</speed>
  <fix>3d</fix>
</trkpt>
<trkpt lat="-35.2765518" lon="148.9903891">
  <ele>663.12</ele>
  <time>2026-09-01T19:59:40Z</time>
  <course>294.93</course>
  <speed>25.76</speed>
  <fix>3d</fix>
</trkpt>
<trkpt lat="-35.2765128" lon="148.9902865">
  <ele>663.79</ele>
  <time>2026-09-01T19:59:40Z</time>
  <course>295.25</course>
  <speed>25.796637377766892</speed>
  <fix>3d</fix>
</trkpt>
<trkpt lat="-35.2765323" lon="148.9903377">
  <ele>663.45</ele>
  <time>2026-09-01T19:59:40Z</time>
  <course>294.91</course>
  <speed>25.78</speed>
  <fix>3d</fix>
</trkpt>
<trkpt lat="-35.276503" lon="148.9902608">
  <ele>663.95</ele>
  <time>2026-09-01T19:59:40Z</time>
  <course>295.26</course>
  <speed>25.80570479564548</speed>
  <fix>3d</fix>
</trkpt>
<trkpt lat="-35.2765323" lon="148.9903377">
  <ele>663.45</ele>
  <time>2026-09-01T19:59:40Z</time>
  <course>294.91</course>
  <speed>25.78</speed>
  <fix>3d</fix>
</trkpt>
<trkpt lat="-35.2764932" lon="148.990235">
  <ele>664.11</ele>
  <time>2026-09-01T19:59:40Z</time>
  <course>295.29</course>
  <speed>25.814772902351862</speed>
  <fix>3d</fix>
</trkpt>
<trkpt lat="-35.2765128" lon="148.9902861">
  <ele>663.78</ele>
  <time>2026-09-01T19:59:40Z</time>
  <course>294.9</course>
  <speed>25.78</speed>
  <fix>3d</fix>
</trkpt>
<trkpt lat="-35.2764835" lon="148.9902092">
  <ele>664.27</ele>
  <time>2026-09-01T19:59:40Z</time>
  <course>295.29</course>
  <speed>25.814772902351862</speed>
  <fix>3d</fix>
</trkpt>
<trkpt lat="-35.2765128" lon="148.9902861">
  <ele>663.78</ele>
  <time>2026-09-01T19:59:40Z</time>
  <course>294.9</course>
  <speed>25.78</speed>
  <fix>3d</fix>
</trkpt>
<trkpt lat="-35.2764737" lon="148.9901834">
  <ele>664.43</ele>
  <time>2026-09-01T19:59:40Z</time>
  <course>295.27</course>
  <speed>25.823841697160397</speed>
  <fix>3d</fix>
</trkpt>
<trkpt lat="-35.2764932" lon="148.9902345">
  <ele>664.1</ele>
  <time>2026-09-01T19:59:40Z</time>
  <course>294.89</course>
  <speed>25.8</speed>
  <fix>3d</fix>
</trkpt>
<trkpt lat="-35.2764639" lon="148.9901576">
  <ele>664.59</ele>
  <time>2026-09-01T19:59:40Z</time>
  <course>295.32</course>
  <speed>25.823841697160397</speed>
  <fix>3d</fix>
</trkpt>
<trkpt lat="-35.2764932" lon="148.9902345">
  <ele>664.1</ele>
  <time>2026-09-01T19:59:40Z</time>
  <course>294.89</course>
  <speed>25.8</speed>
  <fix>3d</fix>
</trkpt>
<trkpt lat="-35.2764542" lon="148.990132">
  <ele>664.75</ele>
  <time>2026-09-01T19:59:40Z</time>
  <course>295.31</course>
  <speed>25.823841697160397</speed>
  <fix>3d</fix>
</trkpt>
<trkpt lat="-35.2764737" lon="148.990183">
  <ele>664.42</ele>
  <time>2026-09-01T19:59:40Z</time>
  <course>294.88</course>
  <speed>25.81</speed>
  <fix>3d</fix>
</trkpt>
<trkpt lat="-35.2764445" lon="148.9901063">
  <ele>664.92</ele>
  <time>2026-09-01T19:59:40Z</time>
  <course>295.29</course>
  <speed>25.823841697160397</speed>
  <fix>3d</fix>
</trkpt>
<trkpt lat="-35.2764737" lon="148.990183">
  <ele>664.42</ele>
  <time>2026-09-01T19:59:40Z</time>
  <course>294.88</course>
  <speed>25.81</speed>
  <fix>3d</fix>
</trkpt>
<trkpt lat="-35.2764348" lon="148.9900807">
  <ele>665.08</ele>
  <time>2026-09-01T19:59:40Z</time>
  <course>295.25</course>
  <speed>25.814772902351862</speed>
  <fix>3d</fix>
</trkpt>
<trkpt lat="-35.2764542" lon="148.9901315">
  <ele>664.75</ele>
  <time>2026-09-01T19:59:40Z</time>
  <course>294.88</course>
  <speed>25.81</speed>
  <fix>3d</fix>
</trkpt>
<trkpt lat="-35.2764252" lon="148.9900553">
  <ele>665.24</ele>
  <time>2026-09-01T19:59:40Z</time>
  <course>295.16</course>
  <speed>25.80570479564548</speed>
  <fix>3d</fix>
</trkpt>
<trkpt lat="-35.2764542" lon="148.9901315">
  <ele>664.75</ele>
  <time>2026-09-01T19:59:40Z</time>
  <course>294.88</course>
  <speed>25.81</speed>
  <fix>3d</fix>
</trkpt>
<trkpt lat="-35.2764155" lon="148.9900297">
  <ele>665.4</ele>
  <time>2026-09-01T19:59:40Z</time>
  <course>295.14</course>
  <speed>25.8014902670369</speed>
  <fix>3d</fix>
</trkpt>
<trkpt lat="-35.2764347" lon="148.99008">
  <ele>665.07</ele>
  <time>2026-09-01T19:59:40Z</time>
  <course>294.88</course>
  <speed>25.82</speed>
  <fix>3d</fix>
</trkpt>
<trkpt lat="-35.2764058" lon="148.9900041">
  <ele>665.56</ele>
  <time>2026-09-01T19:59:40Z</time>
  <course>295.2</course>
  <speed>25.8014902670369</speed>
  <fix>3d</fix>
</trkpt>
<trkpt lat="-35.2764347" lon="148.99008">
  <ele>665.07</ele>
  <time>2026-09-01T19:59:40Z</time>
  <course>294.88</course>
  <speed>25.82</speed>
  <fix>3d</fix>
</trkpt>
<trkpt lat="-35.2763961" lon="148.9899785">
  <ele>665.72</ele>
  <time>2026-09-01T19:59:40Z</time>
  <course>295.21</course>
  <speed>25.792421367525773</speed>
  <fix>3d</fix>
</trkpt>
<trkpt lat="-35.2764152" lon="148.9900285">
  <ele>665.4</ele>
  <time>2026-09-01T19:59:40Z</time>
  <course>294.88</course>
  <speed>25.82</speed>
  <fix>3d</fix>
</trkpt>
<trkpt lat="-35.2763863" lon="148.9899526">
  <ele>665.88</ele>
  <time>2026-09-01T19:59:40Z</time>
  <course>295.23</course>
  <speed>25.783353156639656</speed>
  <fix>3d</fix>
</trkpt>
<trkpt lat="-35.2764152" lon="148.9900285">
  <ele>665.4</ele>
  <time>2026-09-01T19:59:40Z</time>
  <course>294.88</course>
  <speed>25.82</speed>
  <fix>3d</fix>
</trkpt>
<trkpt lat="-35.2763766" lon="148.989927">
  <ele>666.03</ele>
  <time>2026-09-01T19:59:40Z</time>
  <course>295.28</course>
  <speed>25.783353156639656</speed>
  <fix>3d</fix>
</trkpt>
<trkpt lat="-35.2763957" lon="148.9899769">
  <ele>665.72</ele>
  <time>2026-09-01T19:59:40Z</time>
  <course>294.88</course>
  <speed>25.83</speed>
  <fix>3d</fix>
</trkpt>
<trkpt lat="-35.2763669" lon="148.9899013">
  <ele>666.19</ele>
  <time>2026-09-01T19:59:40Z</time>
  <course>295.32</course>
  <speed>25.783353156639656</speed>
  <fix>3d</fix>
</trkpt>
<trkpt lat="-35.2763957" lon="148.9899769">
  <ele>665.72</ele>
  <time>2026-09-01T19:59:40Z</time>
  <course>294.88</course>
  <speed>25.83</speed>
  <fix>3d</fix>
</trkpt>
<trkpt lat="-35.2763572" lon="148.9898757">
  <ele>666.34</ele>
  <time>2026-09-01T19:59:40Z</time>
  <course>295.32</course>
  <speed>25.778504611400564</speed>
  <fix>3d</fix>
</trkpt>
<trkpt lat="-35.2763762" lon="148.9899254">
  <ele>666.03</ele>
  <time>2026-09-01T19:59:40Z</time>
  <course>294.9</course>
  <speed>25.83</speed>
  <fix>3d</fix>
</trkpt>
<trkpt lat="-35.2763473" lon="148.9898498">
  <ele>666.49</ele>
  <time>2026-09-01T19:59:40Z</time>
  <course>295.24</course>
  <speed>25.778504611400564</speed>
  <fix>3d</fix>
</trkpt>
<trkpt lat="-35.2763762" lon="148.9899254">
  <ele>666.03</ele>
  <time>2026-09-01T19:59:40Z</time>
  <course>294.9</course>
  <speed>25.83</speed>
  <fix>3d</fix>
</trkpt>
<trkpt lat="-35.2763376" lon="148.9898242">
  <ele>666.63</ele>
  <time>2026-09-01T19:59:40Z</time>
  <course>295.24</course>
  <speed>25.77428563510539</speed>
  <fix>3d</fix>
</trkpt>
<trkpt lat="-35.2763566" lon="148.9898738">
  <ele>666.33</ele>
  <time>2026-09-01T19:59:40Z</time>
  <course>294.92</course>
  <speed>25.84</speed>
  <fix>3d</fix>
</trkpt>
<trkpt lat="-35.2763279" lon="148.9897985">
  <ele>666.77</ele>
  <time>2026-09-01T19:59:40Z</time>
  <course>295.22</course>
  <speed>25.77428563510539</speed>
  <fix>3d</fix>
</trkpt>
<trkpt lat="-35.2763566" lon="148.9898738">
  <ele>666.33</ele>
  <time>2026-09-01T19:59:40Z</time>
  <course>294.92</course>
  <speed>25.84</speed>
  <fix>3d</fix>
</trkpt>
<trkpt lat="-35.2763182" lon="148.9897728">
  <ele>666.91</ele>
  <time>2026-09-01T19:59:40Z</time>
  <course>295.18</course>
  <speed>25.77428563510539</speed>
  <fix>3d</fix>
</trkpt>
<trkpt lat="-35.2763371" lon="148.9898222">
  <ele>666.63</ele>
  <time>2026-09-01T19:59:40Z</time>
  <course>294.92</course>
  <speed>25.84</speed>
  <fix>3d</fix>
</trkpt>
<trkpt lat="-35.2763084" lon="148.9897471">
  <ele>667.04</ele>
  <time>2026-09-01T19:59:40Z</time>
  <course>295.18</course>
  <speed>25.77428563510539</speed>
  <fix>3d</fix>
</trkpt>
<trkpt lat="-35.2763371" lon="148.9898222">
  <ele>666.63</ele>
  <time>2026-09-01T19:59:40Z</time>
  <course>294.92</course>
  <speed>25.84</speed>
  <fix>3d</fix>
</trkpt>
<trkpt lat="-35.2762987" lon="148.9897214">
  <ele>667.17</ele>
  <time>2026-09-01T19:59:40Z</time>
  <course>295.18</course>
  <speed>25.77006984856657</speed>
  <fix>3d</fix>
</trkpt>
<trkpt lat="-35.2763175" lon="148.9897705">
  <ele>666.91</ele>
  <time>2026-09-01T19:59:40Z</time>
  <course>294.91</course>
  <speed>25.85</speed>
  <fix>3d</fix>
</trkpt>
<trkpt lat="-35.276289" lon="148.9896957">
  <ele>667.3</ele>
  <time>2026-09-01T19:59:40Z</time>
  <course>295.18</course>
  <speed>25.774927739956908</speed>
  <fix>3d</fix>
</trkpt>
<trkpt lat="-35.2763175" lon="148.9897705">
  <ele>666.91</ele>
  <time>2026-09-01T19:59:40Z</time>
  <course>294.91</course>
  <speed>25.85</speed>
  <fix>3d</fix>
</trkpt>
<trkpt lat="-35.2762792" lon="148.98967">
  <ele>667.43</ele>
  <time>2026-09-01T19:59:40Z</time>
  <course>295.19</course>
  <speed>25.77913885295628</speed>
  <fix>3d</fix>
</trkpt>
<trkpt lat="-35.2762978" lon="148.9897188">
  <ele>667.18</ele>
  <time>2026-09-01T19:59:40Z</time>
  <course>294.89</course>
  <speed>25.86</speed>
  <fix>3d</fix>
</trkpt>
<trkpt lat="-35.2762695" lon="148.9896443">
  <ele>667.56</ele>
  <time>2026-09-01T19:59:40Z</time>
  <course>295.19</course>
  <speed>25.77913885295628</speed>
  <fix>3d</fix>
</trkpt>
<trkpt lat="-35.2762978" lon="148.9897188">
  <ele>667.18</ele>
  <time>2026-09-01T19:59:40Z</time>
  <course>294.89</course>
  <speed>25.86</speed>
  <fix>3d</fix>
</trkpt>
<trkpt lat="-35.2762597" lon="148.9896185">
  <ele>667.68</ele>
  <time>2026-09-01T19:59:40Z</time>
  <course>295.16</course>
  <speed>25.77913885295628</speed>
  <fix>3d</fix>
</trkpt>
<trkpt lat="-35.2762783" lon="148.9896673">
  <ele>667.45</ele>
  <time>2026-09-01T19:59:40Z</time>
  <course>294.89</course>
  <speed>25.86</speed>
  <fix>3d</fix>
</trkpt>
<trkpt lat="-35.27625" lon="148.9895928">
  <ele>667.8</ele>
  <time>2026-09-01T19:59:40Z</time>
  <course>295.13</course>
  <speed>25.783353156639656</speed>
  <fix>3d</fix>
</trkpt>
<trkpt lat="-35.2762783" lon="148.9896673">
  <ele>667.45</ele>
  <time>2026-09-01T19:59:40Z</time>
  <course>294.89</course>
  <speed>25.86</speed>
  <fix>3d</fix>
</trkpt>
<trkpt lat="-35.2762402" lon="148.989567">
  <ele>667.92</ele>
  <time>2026-09-01T19:59:40Z</time>
  <course>295.12</course>
  <speed>25.792421367525773</speed>
  <fix>3d</fix>
</trkpt>
<trkpt lat="-35.2762587" lon="148.9896156">
  <ele>667.7</ele>
  <time>2026-09-01T19:59:40Z</time>
  <course>294.9</course>
  <speed>25.87</speed>
  <fix>3d</fix>
</trkpt>
<trkpt lat="-35.2762304" lon="148.9895411">
  <ele>668.04</ele>
  <time>2026-09-01T19:59:40Z</time>
  <course>295.12</course>
  <speed>25.797278926274377</speed>
  <fix>3d</fix>
</trkpt>
<trkpt lat="-35.2762587" lon="148.9896156">
  <ele>667.7</ele>
  <time>2026-09-01T19:59:40Z</time>
  <course>294.9</course>
  <speed>25.87</speed>
  <fix>3d</fix>
</trkpt>
<trkpt lat="-35.2762207" lon="148.9895155">
  <ele>668.16</ele>
  <time>2026-09-01T19:59:40Z</time>
  <course>295.17</course>
  <speed>25.8014902670369</speed>
  <fix>3d</fix>
</trkpt>
<trkpt lat="-35.2762392" lon="148.989564">
  <ele>667.95</ele>
  <time>2026-09-01T19:59:40Z</time>
  <course>294.89</course>
  <speed>25.88</speed>
  <fix>3d</fix>
</trkpt>
<trkpt lat="-35.2762109" lon="148.9894897">
  <ele>668.28</ele>
  <time>2026-09-01T19:59:40Z</time>
  <course>295.19</course>
  <speed>25.81055985444717</speed>
  <fix>3d</fix>
</trkpt>
<trkpt lat="-35.2762392" lon="148.989564">
  <ele>667.95</ele>
  <time>2026-09-01T19:59:40Z</time>
  <course>294.89</course>
  <speed>25.88</speed>
  <fix>3d</fix>
</trkpt>
<trkpt lat="-35.2762011" lon="148.9894638">
  <ele>668.4</ele>
  <time>2026-09-01T19:59:40Z</time>
  <course>295.26</course>
  <speed>25.814772902351862</speed>
  <fix>3d</fix>
</trkpt>
<trkpt lat="-35.2762196" lon="148.9895123">
  <ele>668.19</ele>
  <time>2026-09-01T19:59:40Z</time>
  <course>294.88</course>
  <speed>25.89</speed>
  <fix>3d</fix>
</trkpt>
<trkpt lat="-35.2761913" lon="148.9894379">
  <ele>668.51</ele>
  <time>2026-09-01T19:59:40Z</time>
  <course>295.25</course>
  <speed>25.81898913590538</speed>
  <fix>3d</fix>
</trkpt>
<trkpt lat="-35.2762196" lon="148.9895123">
  <ele>668.19</ele>
  <time>2026-09-01T19:59:40Z</time>
  <course>294.88</course>
  <speed>25.89</speed>
  <fix>3d</fix>
</trkpt>
<trkpt lat="-35.2761814" lon="148.9894119">
  <ele>668.63</ele>
  <time>2026-09-01T19:59:40Z</time>
  <course>295.14</course>
  <speed>25.81898913590538</speed>
  <fix>3d</fix>
</trkpt>
<trkpt lat="-35.2762" lon="148.9894606">
  <ele>668.42</ele>
  <time>2026-09-01T19:59:40Z</time>
  <course>294.89</course>
  <speed>25.89</speed>
  <fix>3d</fix>
</trkpt>
<trkpt lat="-35.2761716" lon="148.989386">
  <ele>668.74</ele>
  <time>2026-09-01T19:59:40Z</time>
  <course>295.06</course>
  <speed>25.828056450302256</speed>
  <fix>3d</fix>
</trkpt>
<trkpt lat="-35.2762" lon="148.9894606">
  <ele>668.42</ele>
  <time>2026-09-01T19:59:40Z</time>
  <course>294.89</course>
  <speed>25.89</speed>
  <fix>3d</fix>
</trkpt>
<trkpt lat="-35.2761618" lon="148.9893601">
  <ele>668.86</ele>
  <time>2026-09-01T19:59:40Z</time>
  <course>295.07</course>
  <speed>25.828056450302256</speed>
  <fix>3d</fix>
</trkpt>
<trkpt lat="-35.2761804" lon="148.989409">
  <ele>668.65</ele>
  <time>2026-09-01T19:59:40Z</time>
  <course>294.91</course>
  <speed>25.9</speed>
  <fix>3d</fix>
</trkpt>
<trkpt lat="-35.276152" lon="148.9893343">
  <ele>668.97</ele>
  <time>2026-09-01T19:59:40Z</time>
  <course>295.17</course>
  <speed>25.837124453003668</speed>
  <fix>3d</fix>
</trkpt>
<trkpt lat="-35.2761804" lon="148.989409">
  <ele>668.65</ele>
  <time>2026-09-01T19:59:40Z</time>
  <course>294.91</course>
  <speed>25.9</speed>
  <fix>3d</fix>
</trkpt>
<trkpt lat="-35.2761422" lon="148.9893084">
  <ele>669.08</ele>
  <time>2026-09-01T19:59:40Z</time>
  <course>295.26</course>
  <speed>25.84134090948068</speed>
  <fix>3d</fix>
</trkpt>
<trkpt lat="-35.2761609" lon="148.9893573">
  <ele>668.88</ele>
  <time>2026-09-01T19:59:40Z</time>
  <course>294.9</course>
  <speed>25.9</speed>
  <fix>3d</fix>
</trkpt>
<trkpt lat="-35.2761324" lon="148.9892825">
  <ele>669.18</ele>
  <time>2026-09-01T19:59:40Z</time>
  <course>295.21</course>
  <speed>25.84134090948068</speed>
  <fix>3d</fix>
</trkpt>
<trkpt lat="-35.2761609" lon="148.9893573">
  <ele>668.88</ele>
  <time>2026-09-01T19:59:40Z</time>
  <course>294.9</course>
  <speed>25.9</speed>
  <fix>3d</fix>
</trkpt>
<trkpt lat="-35.2761226" lon="148.9892566">
  <ele>669.28</ele>
  <time>2026-09-01T19:59:40Z</time>
  <course>295.2</course>
  <speed>25.85462627848254</speed>
  <fix>3d</fix>
</trkpt>
<trkpt lat="-35.2761413" lon="148.9893056">
  <ele>669.11</ele>
  <time>2026-09-01T19:59:40Z</time>
  <course>294.9</course>
  <speed>25.9</speed>
  <fix>3d</fix>
</trkpt>
<trkpt lat="-35.2761128" lon="148.9892307">
  <ele>669.38</ele>
  <time>2026-09-01T19:59:40Z</time>
  <course>295.25</course>
  <speed>25.85462627848254</speed>
  <fix>3d</fix>
</trkpt>
<trkpt lat="-35.2761413" lon="148.9893056">
  <ele>669.11</ele>
  <time>2026-09-01T19:59:40Z</time>
  <course>294.9</course>
  <speed>25.9</speed>
  <fix>3d</fix>
</trkpt>
<trkpt lat="-35.2761029" lon="148.9892049">
  <ele>669.48</ele>
  <time>2026-09-01T19:59:40Z</time>
  <course>295.27</course>
  <speed>25.858847615468093</speed>
  <fix>3d</fix>
</trkpt>
<trkpt lat="-35.2761216" lon="148.9892538">
  <ele>669.31</ele>
  <time>2026-09-01T19:59:40Z</time>
  <course>294.91</course>
  <speed>25.91</speed>
  <fix>3d</fix>
</trkpt>
<trkpt lat="-35.2760931" lon="148.989179">
  <ele>669.57</ele>
  <time>2026-09-01T19:59:40Z</time>
  <course>295.26</course>
  <speed>25.8630721299694</speed>
  <fix>3d</fix>
</trkpt>
<trkpt lat="-35.2761216" lon="148.9892538">
  <ele>669.31</ele>
  <time>2026-09-01T19:59:40Z</time>
  <course>294.91</course>
  <speed>25.91</speed>
  <fix>3d</fix>
</trkpt>
<trkpt lat="-35.2760832" lon="148.9891529">
  <ele>669.66</ele>
  <time>2026-09-01T19:59:40Z</time>
  <course>295.27</course>
  <speed>25.8630721299694</speed>
  <fix>3d</fix>
</trkpt>
<trkpt lat="-35.2761019" lon="148.989202">
  <ele>669.52</ele>
  <time>2026-09-01T19:59:40Z</time>
  <course>294.93</course>
  <speed>25.91</speed>
  <fix>3d</fix>
</trkpt>
<trkpt lat="-35.2760733" lon="148.989127">
  <ele>669.76</ele>
  <time>2026-09-01T19:59:40Z</time>
  <course>295.29</course>
  <speed>25.867299820429654</speed>
  <fix>3d</fix>
</trkpt>
<trkpt lat="-35.2761019" lon="148.989202">
  <ele>669.52</ele>
  <time>2026-09-01T19:59:40Z</time>
  <course>294.93</course>
  <speed>25.91</speed>
  <fix>3d</fix>
</trkpt>
<trkpt lat="-35.2760635" lon="148.9891011">
  <ele>669.85</ele>
  <time>2026-09-01T19:59:40Z</time>
  <course>295.3</course>
  <speed>25.867299820429654</speed>
  <fix>3d</fix>
</trkpt>
<trkpt lat="-35.2760823" lon="148.9891503">
  <ele>669.71</ele>
  <time>2026-09-01T19:59:40Z</time>
  <course>294.94</course>
  <speed>25.91</speed>
  <fix>3d</fix>
</trkpt>
<trkpt lat="-35.2760536" lon="148.9890752">
  <ele>669.94</ele>
  <time>2026-09-01T19:59:40Z</time>
  <course>295.28</course>
  <speed>25.867299820429654</speed>
  <fix>3d</fix>
</trkpt>
<trkpt lat="-35.2760823" lon="148.9891503">
  <ele>669.71</ele>
  <time>2026-09-01T19:59:40Z</time>
  <course>294.94</course>
  <speed>25.91</speed>
  <fix>3d</fix>
</trkpt>
<trkpt lat="-35.2760438" lon="148.9890493">
  <ele>670.03</ele>
  <time>2026-09-01T19:59:40Z</time>
  <course>295.21</course>
  <speed>25.87636179991306</speed>
  <fix>3d</fix>
</trkpt>
<trkpt lat="-35.2760627" lon="148.9890986">
  <ele>669.9</ele>
  <time>2026-09-01T19:59:40Z</time>
  <course>294.95</course>
  <speed>25.91</speed>
  <fix>3d</fix>
</trkpt>
<trkpt lat="-35.2760339" lon="148.9890234">
  <ele>670.12</ele>
  <time>2026-09-01T19:59:40Z</time>
  <course>295.26</course>
  <speed>25.872135590244575</speed>
  <fix>3d</fix>
</trkpt>
<trkpt lat="-35.2760627" lon="148.9890986">
  <ele>669.9</ele>
  <time>2026-09-01T19:59:40Z</time>
  <course>294.95</course>
  <speed>25.91</speed>
  <fix>3d</fix>
</trkpt>
<trkpt lat="-35.2760241" lon="148.9889974">
  <ele>670.2</ele>
  <time>2026-09-01T19:59:40Z</time>
  <course>295.26</course>
  <speed>25.881199740352066</speed>
  <fix>3d</fix>
</trkpt>
<trkpt lat="-35.276043" lon="148.9890469">
  <ele>670.08</ele>
  <time>2026-09-01T19:59:40Z</time>
  <course>294.94</course>
  <speed>25.91</speed>
  <fix>3d</fix>
</trkpt>
<trkpt lat="-35.2760143" lon="148.9889717">
  <ele>670.28</ele>
  <time>2026-09-01T19:59:40Z</time>
  <course>295.22</course>
  <speed>25.881199740352066</speed>
  <fix>3d</fix>
</trkpt>
<trkpt lat="-35.276043" lon="148.9890469">
  <ele>670.08</ele>
  <time>2026-09-01T19:59:40Z</time>
  <course>294.94</course>
  <speed>25.91</speed>
  <fix>3d</fix>
</trkpt>
<trkpt lat="-35.2760045" lon="148.9889458">
  <ele>670.36</ele>
  <time>2026-09-01T19:59:40Z</time>
  <course>295.2</course>
  <speed>25.890264579567358</speed>
  <fix>3d</fix>
</trkpt>
<trkpt lat="-35.2760235" lon="148.9889953">
  <ele>670.26</ele>
  <time>2026-09-01T19:59:40Z</time>
  <course>294.93</course>
  <speed>25.91</speed>
  <fix>3d</fix>
</trkpt>
<trkpt lat="-35.2759946" lon="148.9889199">
  <ele>670.43</ele>
  <time>2026-09-01T19:59:40Z</time>
  <course>295.23</course>
  <speed>25.895111507773045</speed>
  <fix>3d</fix>
</trkpt>
<trkpt lat="-35.2760235" lon="148.9889953">
  <ele>670.26</ele>
  <time>2026-09-01T19:59:40Z</time>
  <course>294.93</course>
  <speed>25.91</speed>
  <fix>3d</fix>
</trkpt>
<trkpt lat="-35.2759848" lon="148.9888939">
  <ele>670.49</ele>
  <time>2026-09-01T19:59:40Z</time>
  <course>295.23</course>
  <speed>25.895111507773045</speed>
  <fix>3d</fix>
</trkpt>
<trkpt lat="-35.2760039" lon="148.9889436">
  <ele>670.41</ele>
  <time>2026-09-01T19:59:40Z</time>
  <course>294.9</course>
  <speed>25.9</speed>
  <fix>3d</fix>
</trkpt>
<trkpt lat="-35.2759749" lon="148.9888678">
  <ele>670.54</ele>
  <time>2026-09-01T19:59:40Z</time>
  <course>295.23</course>
  <speed>25.895111507773045</speed>
  <fix>3d</fix>
</trkpt>
<trkpt lat="-35.2760039" lon="148.9889436">
  <ele>670.41</ele>
  <time>2026-09-01T19:59:40Z</time>
  <course>294.9</course>
  <speed>25.9</speed>
  <fix>3d</fix>
</trkpt>
<trkpt lat="-35.2759651" lon="148.9888419">
  <ele>670.6</ele>
  <time>2026-09-01T19:59:40Z</time>
  <course>295.25</course>
  <speed>25.904179199503698</speed>
  <fix>3d</fix>
</trkpt>
<trkpt lat="-35.2759843" lon="148.9888919">
  <ele>670.55</ele>
  <time>2026-09-01T19:59:40Z</time>
  <course>294.88</course>
  <speed>25.91</speed>
  <fix>3d</fix>
</trkpt>
<trkpt lat="-35.2759553" lon="148.988816">
  <ele>670.64</ele>
  <time>2026-09-01T19:59:40Z</time>
  <course>295.27</course>
  <speed>25.904179199503698</speed>
  <fix>3d</fix>
</trkpt>
<trkpt lat="-35.2759843" lon="148.9888919">
  <ele>670.55</ele>
  <time>2026-09-01T19:59:40Z</time>
  <course>294.88</course>
  <speed>25.91</speed>
  <fix>3d</fix>
</trkpt>
<trkpt lat="-35.2759455" lon="148.98879">
  <ele>670.69</ele>
  <time>2026-09-01T19:59:40Z</time>
  <course>295.25</course>
  <speed>25.913247577252836</speed>
  <fix>3d</fix>
</trkpt>
<trkpt lat="-35.2759646" lon="148.9888402">
  <ele>670.66</ele>
  <time>2026-09-01T19:59:40Z</time>
  <course>294.88</course>
  <speed>25.91</speed>
  <fix>3d</fix>
</trkpt>
<trkpt lat="-35.2759356" lon="148.9887641">
  <ele>670.73</ele>
  <time>2026-09-01T19:59:40Z</time>
  <course>295.26</course>
  <speed>25.917463224629063</speed>
  <fix>3d</fix>
</trkpt>
<trkpt lat="-35.2759646" lon="148.9888402">
  <ele>670.66</ele>
  <time>2026-09-01T19:59:40Z</time>
  <course>294.88</course>
  <speed>25.91</speed>
  <fix>3d</fix>
</trkpt>
<trkpt lat="-35.2759258" lon="148.9887381">
  <ele>670.76</ele>
  <time>2026-09-01T19:59:40Z</time>
  <course>295.22</course>
  <speed>25.9265308130494</speed>
  <fix>3d</fix>
</trkpt>
<trkpt lat="-35.2759451" lon="148.9887884">
  <ele>670.75</ele>
  <time>2026-09-01T19:59:40Z</time>
  <course>294.87</course>
  <speed>25.91</speed>
  <fix>3d</fix>
</trkpt>
<trkpt lat="-35.275916" lon="148.9887121">
  <ele>670.79</ele>
  <time>2026-09-01T19:59:40Z</time>
  <course>295.25</course>
  <speed>25.935599086969248</speed>
  <fix>3d</fix>
</trkpt>
<trkpt lat="-35.2759451" lon="148.9887884">
  <ele>670.75</ele>
  <time>2026-09-01T19:59:40Z</time>
  <course>294.87</course>
  <speed>25.91</speed>
  <fix>3d</fix>
</trkpt>
<trkpt lat="-35.2759061" lon="148.9886861">
  <ele>670.82</ele>
  <time>2026-09-01T19:59:40Z</time>
  <course>295.27</course>
  <speed>25.93981495693445</speed>
  <fix>3d</fix>
</trkpt>
<trkpt lat="-35.2759255" lon="148.9887367">
  <ele>670.82</ele>
  <time>2026-09-01T19:59:40Z</time>
  <course>294.87</course>
  <speed>25.92</speed>
  <fix>3d</fix>
</trkpt>
<trkpt lat="-35.2758963" lon="148.9886602">
  <ele>670.84</ele>
  <time>2026-09-01T19:59:40Z</time>
  <course>295.32</course>
  <speed>25.948882442217045</speed>
  <fix>3d</fix>
</trkpt>
<trkpt lat="-35.2759255" lon="148.9887367">
  <ele>670.82</ele>
  <time>2026-09-01T19:59:40Z</time>
  <course>294.87</course>
  <speed>25.92</speed>
  <fix>3d</fix>
</trkpt>
<trkpt lat="-35.2758865" lon="148.9886342">
  <ele>670.85</ele>
  <time>2026-09-01T19:59:40Z</time>
  <course>295.38</course>
  <speed>25.962166704649285</speed>
  <fix>3d</fix>
</trkpt>
<trkpt lat="-35.2759059" lon="148.9886849">
  <ele>670.88</ele>
  <time>2026-09-01T19:59:40Z</time>
  <course>294.87</course>
  <speed>25.93</speed>
  <fix>3d</fix>
</trkpt>
<trkpt lat="-35.2758766" lon="148.9886082">
  <ele>670.87</ele>
  <time>2026-09-01T19:59:40Z</time>
  <course>295.36</course>
  <speed>25.96638596339506</speed>
  <fix>3d</fix>
</trkpt>
<trkpt lat="-35.2759059" lon="148.9886849">
  <ele>670.88</ele>
  <time>2026-09-01T19:59:40Z</time>
  <course>294.87</course>
  <speed>25.93</speed>
  <fix>3d</fix>
</trkpt>
<trkpt lat="-35.2758668" lon="148.9885822">
  <ele>670.88</ele>
  <time>2026-09-01T19:59:40Z</time>
  <course>295.23</course>
  <speed>25.970608387174916</speed>
  <fix>3d</fix>
</trkpt>
<trkpt lat="-35.2758862" lon="148.988633">
  <ele>670.92</ele>
  <time>2026-09-01T19:59:40Z</time>
  <course>294.89</course>
  <speed>25.94</speed>
  <fix>3d</fix>
</trkpt>
<trkpt lat="-35.2758569" lon="148.9885562">
  <ele>670.88</ele>
  <time>2026-09-01T19:59:40Z</time>
  <course>295.23</course>
  <speed>25.979672823190057</speed>
  <fix>3d</fix>
</trkpt>
<trkpt lat="-35.2758862" lon="148.988633">
  <ele>670.92</ele>
  <time>2026-09-01T19:59:40Z</time>
  <course>294.89</course>
  <speed>25.94</speed>
  <fix>3d</fix>
</trkpt>
<trkpt lat="-35.275847" lon="148.9885302">
  <ele>670.88</ele>
  <time>2026-09-01T19:59:40Z</time>
  <course>295.29</course>
  <speed>25.98873794550247</speed>
  <fix>3d</fix>
</trkpt>
<trkpt lat="-35.2758666" lon="148.9885812">
  <ele>670.95</ele>
  <time>2026-09-01T19:59:40Z</time>
  <course>294.91</course>
  <speed>25.95</speed>
  <fix>3d</fix>
</trkpt>
<trkpt lat="-35.2758372" lon="148.9885042">
  <ele>670.89</ele>
  <time>2026-09-01T19:59:40Z</time>
  <course>295.34</course>
  <speed>25.992960585512378</speed>
  <fix>3d</fix>
</trkpt>
<trkpt lat="-35.2758666" lon="148.9885812">
  <ele>670.95</ele>
  <time>2026-09-01T19:59:40Z</time>
  <course>294.91</course>
  <speed>25.95</speed>
  <fix>3d</fix>
</trkpt>
<trkpt lat="-35.2758273" lon="148.9884783">
  <ele>670.89</ele>
  <time>2026-09-01T19:59:40Z</time>
  <course>295.33</course>
  <speed>26.002024921147967</speed>
  <fix>3d</fix>
</trkpt>
<trkpt lat="-35.275847" lon="148.9885295">
  <ele>670.96</ele>
  <time>2026-09-01T19:59:40Z</time>
  <course>294.91</course>
  <speed>25.95</speed>
  <fix>3d</fix>
</trkpt>
<trkpt lat="-35.2758175" lon="148.9884523">
  <ele>670.88</ele>
  <time>2026-09-01T19:59:40Z</time>
  <course>295.29</course>
  <speed>26.0062492489786</speed>
  <fix>3d</fix>
</trkpt>
<trkpt lat="-35.275847" lon="148.9885295">
  <ele>670.96</ele>
  <time>2026-09-01T19:59:40Z</time>
  <course>294.91</course>
  <speed>25.95</speed>
  <fix>3d</fix>
</trkpt>
<trkpt lat="-35.2758076" lon="148.9884263">
  <ele>670.88</ele>
  <time>2026-09-01T19:59:41Z</time>
  <course>295.3</course>
  <speed>26.015312798427008</speed>
  <fix>3d</fix>
</trkpt>
<trkpt lat="-35.2758273" lon="148.9884777">
  <ele>670.96</ele>
  <time>2026-09-01T19:59:41Z</time>
  <course>294.92</course>
  <speed>25.96</speed>
  <fix>3d</fix>
</trkpt>
<trkpt lat="-35.2757977" lon="148.9884003">
  <ele>670.88</ele>
  <time>2026-09-01T19:59:41Z</time>
  <course>295.3</course>
  <speed>26.015312798427008</speed>
  <fix>3d</fix>
</trkpt>
<trkpt lat="-35.2758273" lon="148.9884777">
  <ele>670.96</ele>
  <time>2026-09-01T19:59:41Z</time>
  <course>294.92</course>
  <speed>25.96</speed>
  <fix>3d</fix>
</trkpt>
<trkpt lat="-35.2757879" lon="148.9883744">
  <ele>670.88</ele>
  <time>2026-09-01T19:59:41Z</time>
  <course>295.3</course>
  <speed>26.015312798427008</speed>
  <fix>3d</fix>
</trkpt>
<trkpt lat="-35.2758077" lon="148.9884258">
  <ele>670.96</ele>
  <time>2026-09-01T19:59:41Z</time>
  <course>294.93</course>
  <speed>25.97</speed>
  <fix>3d</fix>
</trkpt>
<trkpt lat="-35.275778" lon="148.9883484">
  <ele>670.87</ele>
  <time>2026-09-01T19:59:41Z</time>
  <course>295.26</course>
  <speed>26.01953881220803</speed>
  <fix>3d</fix>
</trkpt>
<trkpt lat="-35.2758077" lon="148.9884258">
  <ele>670.96</ele>
  <time>2026-09-01T19:59:41Z</time>
  <course>294.93</course>
  <speed>25.97</speed>
  <fix>3d</fix>
</trkpt>
<trkpt lat="-35.2757681" lon="148.9883222">
  <ele>670.86</ele>
  <time>2026-09-01T19:59:41Z</time>
  <course>295.27</course>
  <speed>26.01953881220803</speed>
  <fix>3d</fix>
</trkpt>
<trkpt lat="-35.275788" lon="148.988374">
  <ele>670.95</ele>
  <time>2026-09-01T19:59:41Z</time>
  <course>294.93</course>
  <speed>25.98</speed>
  <fix>3d</fix>
</trkpt>
<trkpt lat="-35.2757582" lon="148.9882962">
  <ele>670.86</ele>
  <time>2026-09-01T19:59:41Z</time>
  <course>295.31</course>
  <speed>26.01953881220803</speed>
  <fix>3d</fix>
</trkpt>
<trkpt lat="-35.275788" lon="148.988374">
  <ele>670.95</ele>
  <time>2026-09-01T19:59:41Z</time>
  <course>294.93</course>
  <speed>25.98</speed>
  <fix>3d</fix>
</trkpt>
<trkpt lat="-35.2757484" lon="148.9882703">
  <ele>670.85</ele>
  <time>2026-09-01T19:59:41Z</time>
  <course>295.34</course>
  <speed>26.01953881220803</speed>
  <fix>3d</fix>
</trkpt>
<trkpt lat="-35.2757683" lon="148.9883222">
  <ele>670.95</ele>
  <time>2026-09-01T19:59:41Z</time>
  <course>294.94</course>
  <speed>25.98</speed>
  <fix>3d</fix>
</trkpt>
<trkpt lat="-35.2757385" lon="148.9882444">
  <ele>670.84</ele>
  <time>2026-09-01T19:59:41Z</time>
  <course>295.37</course>
  <speed>26.01953881220803</speed>
  <fix>3d</fix>
</trkpt>
<trkpt lat="-35.2757683" lon="148.9883222">
  <ele>670.95</ele>
  <time>2026-09-01T19:59:41Z</time>
  <course>294.94</course>
  <speed>25.98</speed>
  <fix>3d</fix>
</trkpt>
<trkpt lat="-35.2757287" lon="148.9882184">
  <ele>670.83</ele>
  <time>2026-09-01T19:59:41Z</time>
  <course>295.39</course>
  <speed>26.01953881220803</speed>
  <fix>3d</fix>
</trkpt>
<trkpt lat="-35.2757486" lon="148.9882703">
  <ele>670.94</ele>
  <time>2026-09-01T19:59:41Z</time>
  <course>294.94</course>
  <speed>25.98</speed>
  <fix>3d</fix>
</trkpt>
<trkpt lat="-35.2757188" lon="148.9881925">
  <ele>670.82</ele>
  <time>2026-09-01T19:59:41Z</time>
  <course>295.36</course>
  <speed>26.01953881220803</speed>
  <fix>3d</fix>
</trkpt>
<trkpt lat="-35.2757486" lon="148.9882703">
  <ele>670.94</ele>
  <time>2026-09-01T19:59:41Z</time>
  <course>294.94</course>
  <speed>25.98</speed>
  <fix>3d</fix>
</trkpt>
<trkpt lat="-35.275709" lon="148.9881665">
  <ele>670.81</ele>
  <time>2026-09-01T19:59:41Z</time>
  <course>295.4</course>
  <speed>26.01953881220803</speed>
  <fix>3d</fix>
</trkpt>
<trkpt lat="-35.2757289" lon="148.9882185">
  <ele>670.92</ele>
  <time>2026-09-01T19:59:41Z</time>
  <course>294.95</course>
  <speed>25.99</speed>
  <fix>3d</fix>
</trkpt>
<trkpt lat="-35.2756991" lon="148.9881406">
  <ele>670.79</ele>
  <time>2026-09-01T19:59:41Z</time>
  <course>295.35</course>
  <speed>26.01953881220803</speed>
  <fix>3d</fix>
</trkpt>
<trkpt lat="-35.2757289" lon="148.9882185">
  <ele>670.92</ele>
  <time>2026-09-01T19:59:41Z</time>
  <course>294.95</course>
  <speed>25.99</speed>
  <fix>3d</fix>
</trkpt>
<trkpt lat="-35.2756893" lon="148.9881147">
  <ele>670.78</ele>
  <time>2026-09-01T19:59:41Z</time>
  <course>295.36</course>
  <speed>26.01953881220803</speed>
  <fix>3d</fix>
</trkpt>
<trkpt lat="-35.2757092" lon="148.9881666">
  <ele>670.9</ele>
  <time>2026-09-01T19:59:41Z</time>
  <course>294.96</course>
  <speed>25.99</speed>
  <fix>3d</fix>
</trkpt>
<trkpt lat="-35.2756794" lon="148.9880888">
  <ele>670.76</ele>
  <time>2026-09-01T19:59:41Z</time>
  <course>295.37</course>
  <speed>26.01047673534647</speed>
  <fix>3d</fix>
</trkpt>
<trkpt lat="-35.2757092" lon="148.9881666">
  <ele>670.9</ele>
  <time>2026-09-01T19:59:41Z</time>
  <course>294.96</course>
  <speed>25.99</speed>
  <fix>3d</fix>
</trkpt>
<trkpt lat="-35.2756695" lon="148.9880628">
  <ele>670.74</ele>
  <time>2026-09-01T19:59:41Z</time>
  <course>295.37</course>
  <speed>26.01047673534647</speed>
  <fix>3d</fix>
</trkpt>
<trkpt lat="-35.2756895" lon="148.9881146">
  <ele>670.87</ele>
  <time>2026-09-01T19:59:41Z</time>
  <course>294.97</course>
  <speed>25.99</speed>
  <fix>3d</fix>
</trkpt>
<trkpt lat="-35.2756597" lon="148.9880369">
  <ele>670.72</ele>
  <time>2026-09-01T19:59:41Z</time>
  <course>295.33</course>
  <speed>26.01470737871176</speed>
  <fix>3d</fix>
</trkpt>
<trkpt lat="-35.2756895" lon="148.9881146">
  <ele>670.87</ele>
  <time>2026-09-01T19:59:41Z</time>
  <course>294.97</course>
  <speed>25.99</speed>
  <fix>3d</fix>
</trkpt>
<trkpt lat="-35.2756498" lon="148.988011">
  <ele>670.7</ele>
  <time>2026-09-01T19:59:41Z</time>
  <course>295.3</course>
  <speed>26.01470737871176</speed>
  <fix>3d</fix>
</trkpt>
<trkpt lat="-35.2756697" lon="148.9880628">
  <ele>670.83</ele>
  <time>2026-09-01T19:59:41Z</time>
  <course>294.98</course>
  <speed>25.98</speed>
  <fix>3d</fix>
</trkpt>
<trkpt lat="-35.27564" lon="148.9879851">
  <ele>670.67</ele>
  <time>2026-09-01T19:59:41Z</time>
  <course>295.34</course>
  <speed>26.001415346092223</speed>
  <fix>3d</fix>
</trkpt>
<trkpt lat="-35.2756697" lon="148.9880628">
  <ele>670.83</ele>
  <time>2026-09-01T19:59:41Z</time>
  <course>294.98</course>
  <speed>25.98</speed>
  <fix>3d</fix>
</trkpt>
<trkpt lat="-35.2756301" lon="148.9879592">
  <ele>670.65</ele>
  <time>2026-09-01T19:59:41Z</time>
  <course>295.34</course>
  <speed>26.001415346092223</speed>
  <fix>3d</fix>
</trkpt>
<trkpt lat="-35.27565" lon="148.988011">
  <ele>670.8</ele>
  <time>2026-09-01T19:59:41Z</time>
  <course>294.99</course>
  <speed>25.98</speed>
  <fix>3d</fix>
</trkpt>
<trkpt lat="-35.2756203" lon="148.9879332">
  <ele>670.62</ele>
  <time>2026-09-01T19:59:41Z</time>
  <course>295.31</course>
  <speed>25.997186386222644</speed>
  <fix>3d</fix>
</trkpt>
<trkpt lat="-35.27565" lon="148.988011">
  <ele>670.8</ele>
  <time>2026-09-01T19:59:41Z</time>
  <course>294.99</course>
  <speed>25.98</speed>
  <fix>3d</fix>
</trkpt>
<trkpt lat="-35.2756104" lon="148.9879073">
  <ele>670.58</ele>
  <time>2026-09-01T19:59:41Z</time>
  <course>295.31</course>
  <speed>25.997186386222644</speed>
  <fix>3d</fix>
</trkpt>
<trkpt lat="-35.2756303" lon="148.9879591">
  <ele>670.75</ele>
  <time>2026-09-01T19:59:41Z</time>
  <course>294.97</course>
  <speed>25.98</speed>
  <fix>3d</fix>
</trkpt>
<trkpt lat="-35.2756006" lon="148.9878814">
  <ele>670.55</ele>
  <time>2026-09-01T19:59:41Z</time>
  <course>295.28</course>
  <speed>25.992960585512378</speed>
  <fix>3d</fix>
</trkpt>
<trkpt lat="-35.2756303" lon="148.9879591">
  <ele>670.75</ele>
  <time>2026-09-01T19:59:41Z</time>
  <course>294.97</course>
  <speed>25.98</speed>
  <fix>3d</fix>
</trkpt>
<trkpt lat="-35.2755907" lon="148.9878555">
  <ele>670.52</ele>
  <time>2026-09-01T19:59:41Z</time>
  <course>295.24</course>
  <speed>25.979672823190057</speed>
  <fix>3d</fix>
</trkpt>
<trkpt lat="-35.2756106" lon="148.9879073">
  <ele>670.69</ele>
  <time>2026-09-01T19:59:41Z</time>
  <course>294.96</course>
  <speed>25.98</speed>
  <fix>3d</fix>
</trkpt>
<trkpt lat="-35.2755809" lon="148.9878296">
  <ele>670.48</ele>
  <time>2026-09-01T19:59:41Z</time>
  <course>295.26</course>
  <speed>25.979672823190057</speed>
  <fix>3d</fix>
</trkpt>
<trkpt lat="-35.2756106" lon="148.9879073">
  <ele>670.69</ele>
  <time>2026-09-01T19:59:41Z</time>
  <course>294.96</course>
  <speed>25.98</speed>
  <fix>3d</fix>
</trkpt>
<trkpt lat="-35.2755712" lon="148.9878039">
  <ele>670.45</ele>
  <time>2026-09-01T19:59:41Z</time>
  <course>295.32</course>
  <speed>25.953100007513555</speed>
  <fix>3d</fix>
</trkpt>
<trkpt lat="-35.2755909" lon="148.9878555">
  <ele>670.63</ele>
  <time>2026-09-01T19:59:41Z</time>
  <course>294.93</course>
  <speed>25.97</speed>
  <fix>3d</fix>
</trkpt>
<trkpt lat="-35.2755613" lon="148.9877781">
  <ele>670.41</ele>
  <time>2026-09-01T19:59:41Z</time>
  <course>295.35</course>
  <speed>25.8860445027818</speed>
  <fix>3d</fix>
</trkpt>
<trkpt lat="-35.2755909" lon="148.9878555">
  <ele>670.63</ele>
  <time>2026-09-01T19:59:41Z</time>
  <course>294.93</course>
  <speed>25.97</speed>
  <fix>3d</fix>
</trkpt>
<trkpt lat="-35.2755516" lon="148.9877523">
  <ele>670.37</ele>
  <time>2026-09-01T19:59:41Z</time>
  <course>295.3</course>
  <speed>25.765218803650786</speed>
  <fix>3d</fix>
</trkpt>
<trkpt lat="-35.2755712" lon="148.9878037">
  <ele>670.56</ele>
  <time>2026-09-01T19:59:41Z</time>
  <course>294.92</course>
  <speed>25.92</speed>
  <fix>3d</fix>
</trkpt>
<trkpt lat="-35.2755419" lon="148.9877267">
  <ele>670.34</ele>
  <time>2026-09-01T19:59:41Z</time>
  <course>295.26</course>
  <speed>25.568271353378588</speed>
  <fix>3d</fix>
</trkpt>
<trkpt lat="-35.2755712" lon="148.9878037">
  <ele>670.56</ele>
  <time>2026-09-01T19:59:41Z</time>
  <course>294.92</course>
  <speed>25.92</speed>
  <fix>3d</fix>
</trkpt>
<trkpt lat="-35.2755321" lon="148.9877009">
  <ele>670.37</ele>
  <time>2026-09-01T19:59:41Z</time>
  <course>295.24</course>
  <speed>25.290982582730944</speed>
  <fix>3d</fix>
</trkpt>
<trkpt lat="-35.2755517" lon="148.9877522">
  <ele>670.49</ele>
  <time>2026-09-01T19:59:41Z</time>
  <course>294.92</course>
  <speed>25.73</speed>
  <fix>3d</fix>
</trkpt>
<trkpt lat="-35.2755226" lon="148.9876758">
  <ele>670.43</ele>
  <time>2026-09-01T19:59:41Z</time>
  <course>295.27</course>
  <speed>24.92850577150584</speed>
  <fix>3d</fix>
</trkpt>
<trkpt lat="-35.2755517" lon="148.9877522">
  <ele>670.49</ele>
  <time>2026-09-01T19:59:41Z</time>
  <course>294.92</course>
  <speed>25.73</speed>
  <fix>3d</fix>
</trkpt>
<trkpt lat="-35.2755133" lon="148.9876513">
  <ele>670.55</ele>
  <time>2026-09-01T19:59:41Z</time>
  <course>295.3</course>
  <speed>24.512260197705146</speed>
  <fix>3d</fix>
</trkpt>
<trkpt lat="-35.2755324" lon="148.9877012">
  <ele>670.5</ele>
  <time>2026-09-01T19:59:41Z</time>
  <course>294.93</course>
  <speed>25.26</speed>
  <fix>3d</fix>
</trkpt>
<trkpt lat="-35.2755041" lon="148.9876272">
  <ele>670.7</ele>
  <time>2026-09-01T19:59:41Z</time>
  <course>295.32</course>
  <speed>24.064600557665607</speed>
  <fix>3d</fix>
</trkpt>
<trkpt lat="-35.2755324" lon="148.9877012">
  <ele>670.5</ele>
  <time>2026-09-01T19:59:41Z</time>
  <course>294.93</course>
  <speed>25.26</speed>
  <fix>3d</fix>
</trkpt>
<trkpt lat="-35.2754951" lon="148.9876036">
  <ele>670.9</ele>
  <time>2026-09-01T19:59:41Z</time>
  <course>295.35</course>
  <speed>23.594592600848188</speed>
  <fix>3d</fix>
</trkpt>
<trkpt lat="-35.2755135" lon="148.9876515">
  <ele>670.67</ele>
  <time>2026-09-01T19:59:41Z</time>
  <course>294.95</course>
  <speed>24.53</speed>
  <fix>3d</fix>
</trkpt>
<trkpt lat="-35.2754863" lon="148.9875804">
  <ele>671.15</ele>
  <time>2026-09-01T19:59:41Z</time>
  <course>295.37</course>
  <speed>23.11129593943187</speed>
  <fix>3d</fix>
</trkpt>
<trkpt lat="-35.2755135" lon="148.9876515">
  <ele>670.67</ele>
  <time>2026-09-01T19:59:41Z</time>
  <course>294.95</course>
  <speed>24.53</speed>
  <fix>3d</fix>
</trkpt>
<trkpt lat="-35.2754777" lon="148.9875578">
  <ele>671.43</ele>
  <time>2026-09-01T19:59:41Z</time>
  <course>295.39</course>
  <speed>22.618941177694413</speed>
  <fix>3d</fix>
</trkpt>
<trkpt lat="-35.2754952" lon="148.9876034">
  <ele>671.03</ele>
  <time>2026-09-01T19:59:41Z</time>
  <course>295.0</course>
  <speed>23.64</speed>
  <fix>3d</fix>
</trkpt>
<trkpt lat="-35.2754692" lon="148.9875356">
  <ele>671.75</ele>
  <time>2026-09-01T19:59:41Z</time>
  <course>295.4</course>
  <speed>22.117533768483323</speed>
  <fix>3d</fix>
</trkpt>
<trkpt lat="-35.2754952" lon="148.9876034">
  <ele>671.03</ele>
  <time>2026-09-01T19:59:41Z</time>
  <course>295.0</course>
  <speed>23.64</speed>
  <fix>3d</fix>
</trkpt>
<trkpt lat="-35.275461" lon="148.9875139">
  <ele>672.1</ele>
  <time>2026-09-01T19:59:41Z</time>
  <course>295.42</course>
  <speed>21.611890245880854</speed>
  <fix>3d</fix>
</trkpt>
<trkpt lat="-35.2754776" lon="148.9875571">
  <ele>671.54</ele>
  <time>2026-09-01T19:59:41Z</time>
  <course>295.05</course>
  <speed>22.68</speed>
  <fix>3d</fix>
</trkpt>
<trkpt lat="-35.2754529" lon="148.9874927">
  <ele>672.47</ele>
  <time>2026-09-01T19:59:41Z</time>
  <course>295.43</course>
  <speed>21.10624789013907</speed>
  <fix>3d</fix>
</trkpt>
<trkpt lat="-35.2754776" lon="148.9875571">
  <ele>671.54</ele>
  <time>2026-09-01T19:59:41Z</time>
  <course>295.05</course>
  <speed>22.68</speed>
  <fix>3d</fix>
</trkpt>
<trkpt lat="-35.2754449" lon="148.9874719">
  <ele>672.86</ele>
  <time>2026-09-01T19:59:41Z</time>
  <course>295.44</course>
  <speed>20.641068286307277</speed>
  <fix>3d</fix>
</trkpt>
<trkpt lat="-35.2754607" lon="148.9875128">
  <ele>672.2</ele>
  <time>2026-09-01T19:59:41Z</time>
  <course>295.1</course>
  <speed>21.69</speed>
  <fix>3d</fix>
</trkpt>
<trkpt lat="-35.2754371" lon="148.9874516">
  <ele>673.26</ele>
  <time>2026-09-01T19:59:41Z</time>
  <course>295.46</course>
  <speed>20.202487470606187</speed>
  <fix>3d</fix>
</trkpt>
<trkpt lat="-35.2754607" lon="148.9875128">
  <ele>672.2</ele>
  <time>2026-09-01T19:59:41Z</time>
  <course>295.1</course>
  <speed>21.69</speed>
  <fix>3d</fix>
</trkpt>
<trkpt lat="-35.2754295" lon="148.9874317">
  <ele>673.64</ele>
  <time>2026-09-01T19:59:41Z</time>
  <course>295.47</course>
  <speed>19.80436820501982</speed>
  <fix>3d</fix>
</trkpt>
<trkpt lat="-35.2754445" lon="148.9874707">
  <ele>672.95</ele>
  <time>2026-09-01T19:59:41Z</time>
  <course>295.14</course>
  <speed>20.74</speed>
  <fix>3d</fix>
</trkpt>
<trkpt lat="-35.275422" lon="148.9874121">
  <ele>674.0</ele>
  <time>2026-09-01T19:59:41Z</time>
  <course>295.49</course>
  <speed>19.419549428346684</speed>
  <fix>3d</fix>
</trkpt>
<trkpt lat="-35.2754445" lon="148.9874707">
  <ele>672.95</ele>
  <time>2026-09-01T19:59:41Z</time>
  <course>295.14</course>
  <speed>20.74</speed>
  <fix>3d</fix>
</trkpt>
<trkpt lat="-35.2754147" lon="148.9873929">
  <ele>674.35</ele>
  <time>2026-09-01T19:59:41Z</time>
  <course>295.5</course>
  <speed>19.06613752179502</speed>
  <fix>3d</fix>
</trkpt>
<trkpt lat="-35.275429" lon="148.9874302">
  <ele>673.72</ele>
  <time>2026-09-01T19:59:41Z</time>
  <course>295.16</course>
  <speed>19.89</speed>
  <fix>3d</fix>
</trkpt>
<trkpt lat="-35.2754075" lon="148.9873741">
  <ele>674.67</ele>
  <time>2026-09-01T19:59:41Z</time>
  <course>295.51</course>
  <speed>18.726027341644034</speed>
  <fix>3d</fix>
</trkpt>
<trkpt lat="-35.275429" lon="148.9874302">
  <ele>673.72</ele>
  <time>2026-09-01T19:59:41Z</time>
  <course>295.16</course>
  <speed>19.89</speed>
  <fix>3d</fix>
</trkpt>
<trkpt lat="-35.2754004" lon="148.9873555">
  <ele>674.97</ele>
  <time>2026-09-01T19:59:41Z</time>
  <course>295.52</course>
  <speed>18.39496942101291</speed>
  <fix>3d</fix>
</trkpt>
<trkpt lat="-35.2754141" lon="148.9873913">
  <ele>674.42</ele>
  <time>2026-09-01T19:59:41Z</time>
  <course>295.18</course>
  <speed>19.15</speed>
  <fix>3d</fix>
</trkpt>
<trkpt lat="-35.2753934" lon="148.9873375">
  <ele>675.25</ele>
  <time>2026-09-01T19:59:41Z</time>
  <course>295.52</course>
  <speed>18.086265507284804</speed>
  <fix>3d</fix>
</trkpt>
<trkpt lat="-35.2754141" lon="148.9873913">
  <ele>674.42</ele>
  <time>2026-09-01T19:59:41Z</time>
  <course>295.18</course>
  <speed>19.15</speed>
  <fix>3d</fix>
</trkpt>
<trkpt lat="-35.2753866" lon="148.9873195">
  <ele>675.5</ele>
  <time>2026-09-01T19:59:41Z</time>
  <course>295.53</course>
  <speed>17.786612943447103</speed>
  <fix>3d</fix>
</trkpt>
<trkpt lat="-35.2753997" lon="148.9873539">
  <ele>675.04</ele>
  <time>2026-09-01T19:59:41Z</time>
  <course>295.2</course>
  <speed>18.48</speed>
  <fix>3d</fix>
</trkpt>
<trkpt lat="-35.2753798" lon="148.9873019">
  <ele>675.73</ele>
  <time>2026-09-01T19:59:41Z</time>
  <course>295.53</course>
  <speed>17.500262855168774</speed>
  <fix>3d</fix>
</trkpt>
<trkpt lat="-35.2753997" lon="148.9873539">
  <ele>675.04</ele>
  <time>2026-09-01T19:59:41Z</time>
  <course>295.2</course>
  <speed>18.48</speed>
  <fix>3d</fix>
</trkpt>
<trkpt lat="-35.2753731" lon="148.9872846">
  <ele>675.95</ele>
  <time>2026-09-01T19:59:41Z</time>
  <course>295.54</course>
  <speed>17.227216838479745</speed>
  <fix>3d</fix>
</trkpt>
<trkpt lat="-35.2753858" lon="148.9873178">
  <ele>675.57</ele>
  <time>2026-09-01T19:59:41Z</time>
  <course>295.21</course>
  <speed>17.86</speed>
  <fix>3d</fix>
</trkpt>
<trkpt lat="-35.2753665" lon="148.9872673">
  <ele>676.14</ele>
  <time>2026-09-01T19:59:41Z</time>
  <course>295.54</course>
  <speed>16.958968128987095</speed>
  <fix>3d</fix>
</trkpt>
<trkpt lat="-35.2753858" lon="148.9873178">
  <ele>675.57</ele>
  <time>2026-09-01T19:59:41Z</time>
  <course>295.21</course>
  <speed>17.86</speed>
  <fix>3d</fix>
</trkpt>
<trkpt lat="-35.27536" lon="148.9872505">
  <ele>676.32</ele>
  <time>2026-09-01T19:59:41Z</time>
  <course>295.55</course>
  <speed>16.694972297071953</speed>
  <fix>3d</fix>
</trkpt>
<trkpt lat="-35.2753723" lon="148.9872828">
  <ele>676.01</ele>
  <time>2026-09-01T19:59:41Z</time>
  <course>295.22</course>
  <speed>17.29</speed>
  <fix>3d</fix>
</trkpt>
<trkpt lat="-35.2753537" lon="148.987234">
  <ele>676.49</ele>
  <time>2026-09-01T19:59:41Z</time>
  <course>295.55</course>
  <speed>16.44428168087618</speed>
  <fix>3d</fix>
</trkpt>
<trkpt lat="-35.2753723" lon="148.9872828">
  <ele>676.01</ele>
  <time>2026-09-01T19:59:41Z</time>
  <course>295.22</course>
  <speed>17.29</speed>
  <fix>3d</fix>
</trkpt>
<trkpt lat="-35.2753474" lon="148.9872177">
  <ele>676.64</ele>
  <time>2026-09-01T19:59:41Z</time>
  <course>295.55</course>
  <speed>16.198385722040328</speed>
  <fix>3d</fix>
</trkpt>
<trkpt lat="-35.2753593" lon="148.9872489">
  <ele>676.38</ele>
  <time>2026-09-01T19:59:41Z</time>
  <course>295.23</course>
  <speed>16.76</speed>
  <fix>3d</fix>
</trkpt>
<trkpt lat="-35.2753412" lon="148.9872016">
  <ele>676.78</ele>
  <time>2026-09-01T19:59:41Z</time>
  <course>295.56</course>
  <speed>15.956744655474061</speed>
  <fix>3d</fix>
</trkpt>
<trkpt lat="-35.2753593" lon="148.9872489">
  <ele>676.38</ele>
  <time>2026-09-01T19:59:41Z</time>
  <course>295.23</course>
  <speed>16.76</speed>
  <fix>3d</fix>
</trkpt>
<trkpt lat="-35.2753351" lon="148.9871858">
  <ele>676.91</ele>
  <time>2026-09-01T19:59:41Z</time>
  <course>295.56</course>
  <speed>15.724153395334199</speed>
  <fix>3d</fix>
</trkpt>
<trkpt lat="-35.2753466" lon="148.987216">
  <ele>676.69</ele>
  <time>2026-09-01T19:59:41Z</time>
  <course>295.23</course>
  <speed>16.26</speed>
  <fix>3d</fix>
</trkpt>
<trkpt lat="-35.2753291" lon="148.9871702">
  <ele>677.04</ele>
  <time>2026-09-01T19:59:41Z</time>
  <course>295.56</course>
  <speed>15.495818790886785</speed>
  <fix>3d</fix>
</trkpt>
<trkpt lat="-35.2753466" lon="148.987216">
  <ele>676.69</ele>
  <time>2026-09-01T19:59:41Z</time>
  <course>295.23</course>
  <speed>16.26</speed>
  <fix>3d</fix>
</trkpt>
<trkpt lat="-35.2753232" lon="148.9871547">
  <ele>677.15</ele>
  <time>2026-09-01T19:59:41Z</time>
  <course>295.56</course>
  <speed>15.272275534444761</speed>
  <fix>3d</fix>
</trkpt>
<trkpt lat="-35.2753344" lon="148.987184">
  <ele>676.95</ele>
  <time>2026-09-01T19:59:41Z</time>
  <course>295.24</course>
  <speed>15.78</speed>
  <fix>3d</fix>
</trkpt>
<trkpt lat="-35.2753173" lon="148.9871395">
  <ele>677.26</ele>
  <time>2026-09-01T19:59:41Z</time>
  <course>295.56</course>
  <speed>15.043942302468459</speed>
  <fix>3d</fix>
</trkpt>
<trkpt lat="-35.2753344" lon="148.987184">
  <ele>676.95</ele>
  <time>2026-09-01T19:59:41Z</time>
  <course>295.24</course>
  <speed>15.78</speed>
  <fix>3d</fix>
</trkpt>
<trkpt lat="-35.2753116" lon="148.9871246">
  <ele>677.37</ele>
  <time>2026-09-01T19:59:41Z</time>
  <course>295.56</course>
  <speed>14.829447056448194</speed>
  <fix>3d</fix>
</trkpt>
<trkpt lat="-35.2753225" lon="148.9871531">
  <ele>677.19</ele>
  <time>2026-09-01T19:59:41Z</time>
  <course>295.24</course>
  <speed>15.31</speed>
  <fix>3d</fix>
</trkpt>
<trkpt lat="-35.2753059" lon="148.9871098">
  <ele>677.48</ele>
  <time>2026-09-01T19:59:41Z</time>
  <course>295.56</course>
  <speed>14.610160847848322</speed>
  <fix>3d</fix>
</trkpt>
<trkpt lat="-35.2753225" lon="148.9871531">
  <ele>677.19</ele>
  <time>2026-09-01T19:59:41Z</time>
  <course>295.24</course>
  <speed>15.31</speed>
  <fix>3d</fix>
</trkpt>
<trkpt lat="-35.2753003" lon="148.9870953">
  <ele>677.58</ele>
  <time>2026-09-01T19:59:41Z</time>
  <course>295.56</course>
  <speed>14.390875581423114</speed>
  <fix>3d</fix>
</trkpt>
<trkpt lat="-35.2753108" lon="148.9871231">
  <ele>677.41</ele>
  <time>2026-09-01T19:59:41Z</time>
  <course>295.23</course>
  <speed>14.87</speed>
  <fix>3d</fix>
</trkpt>
<trkpt lat="-35.2752948" lon="148.987081">
  <ele>677.68</ele>
  <time>2026-09-01T19:59:41Z</time>
  <course>295.56</course>
  <speed>14.18063820848695</speed>
  <fix>3d</fix>
</trkpt>
<trkpt lat="-35.2753108" lon="148.9871231">
  <ele>677.41</ele>
  <time>2026-09-01T19:59:41Z</time>
  <course>295.23</course>
  <speed>14.87</speed>
  <fix>3d</fix>
</trkpt>
<trkpt lat="-35.2752894" lon="148.9870669">
  <ele>677.78</ele>
  <time>2026-09-01T19:59:41Z</time>
  <course>295.56</course>
  <speed>13.957094969942707</speed>
  <fix>3d</fix>
</trkpt>
<trkpt lat="-35.2752997" lon="148.9870939">
  <ele>677.62</ele>
  <time>2026-09-01T19:59:41Z</time>
  <course>295.23</course>
  <speed>14.43</speed>
  <fix>3d</fix>
</trkpt>
<trkpt lat="-35.2752841" lon="148.9870531">
  <ele>677.88</ele>
  <time>2026-09-01T19:59:41Z</time>
  <course>295.55</course>
  <speed>13.746857822789904</speed>
  <fix>3d</fix>
</trkpt>
<trkpt lat="-35.2752997" lon="148.9870939">
  <ele>677.62</ele>
  <time>2026-09-01T19:59:41Z</time>
  <course>295.23</course>
  <speed>14.43</speed>
  <fix>3d</fix>
</trkpt>
<trkpt lat="-35.2752788" lon="148.9870394">
  <ele>677.98</ele>
  <time>2026-09-01T19:59:41Z</time>
  <course>295.55</course>
  <speed>13.53662070089873</speed>
  <fix>3d</fix>
</trkpt>
<trkpt lat="-35.2752888" lon="148.9870656">
  <ele>677.81</ele>
  <time>2026-09-01T19:59:41Z</time>
  <course>295.22</course>
  <speed>13.99</speed>
  <fix>3d</fix>
</trkpt>
<trkpt lat="-35.2752736" lon="148.987026">
  <ele>678.08</ele>
  <time>2026-09-01T19:59:41Z</time>
  <course>295.55</course>
  <speed>13.317334568148388</speed>
  <fix>3d</fix>
</trkpt>
<trkpt lat="-35.2752888" lon="148.9870656">
  <ele>677.81</ele>
  <time>2026-09-01T19:59:41Z</time>
  <course>295.22</course>
  <speed>13.99</speed>
  <fix>3d</fix>
</trkpt>
<trkpt lat="-35.2752686" lon="148.9870129">
  <ele>678.18</ele>
  <time>2026-09-01T19:59:41Z</time>
  <course>295.55</course>
  <speed>13.107097314050888</speed>
  <fix>3d</fix>
</trkpt>
<trkpt lat="-35.2752782" lon="148.9870382">
  <ele>678.02</ele>
  <time>2026-09-01T19:59:41Z</time>
  <course>295.21</course>
  <speed>13.56</speed>
  <fix>3d</fix>
</trkpt>
<trkpt lat="-35.2752636" lon="148.9869999">
  <ele>678.28</ele>
  <time>2026-09-01T19:59:41Z</time>
  <course>295.54</course>
  <speed>12.896860082981439</speed>
  <fix>3d</fix>
</trkpt>
<trkpt lat="-35.2752782" lon="148.9870382">
  <ele>678.02</ele>
  <time>2026-09-01T19:59:41Z</time>
  <course>295.21</course>
  <speed>13.56</speed>
  <fix>3d</fix>
</trkpt>
<trkpt lat="-35.2752587" lon="148.9869871">
  <ele>678.38</ele>
  <time>2026-09-01T19:59:41Z</time>
  <course>295.54</course>
  <speed>12.677574689190358</speed>
  <fix>3d</fix>
</trkpt>
<trkpt lat="-35.2752681" lon="148.9870116">
  <ele>678.22</ele>
  <time>2026-09-01T19:59:41Z</time>
  <course>295.2</course>
  <speed>13.12</speed>
  <fix>3d</fix>
</trkpt>
<trkpt lat="-35.2752538" lon="148.9869745">
  <ele>678.48</ele>
  <time>2026-09-01T19:59:41Z</time>
  <course>295.53</course>
  <speed>12.463081480917952</speed>
  <fix>3d</fix>
</trkpt>
<trkpt lat="-35.2752681" lon="148.9870116">
  <ele>678.22</ele>
  <time>2026-09-01T19:59:41Z</time>
  <course>295.2</course>
  <speed>13.12</speed>
  <fix>3d</fix>
</trkpt>
<trkpt lat="-35.2752491" lon="148.9869621">
  <ele>678.58</ele>
  <time>2026-09-01T19:59:41Z</time>
  <course>295.53</course>
  <speed>12.252844567691211</speed>
  <fix>3d</fix>
</trkpt>
<trkpt lat="-35.2752582" lon="148.986986">
  <ele>678.42</ele>
  <time>2026-09-01T19:59:41Z</time>
  <course>295.19</course>
  <speed>12.69</speed>
  <fix>3d</fix>
</trkpt>
<trkpt lat="-35.2752444" lon="148.9869499">
  <ele>678.68</ele>
  <time>2026-09-01T19:59:41Z</time>
  <course>295.52</course>
  <speed>12.055911413078647</speed>
  <fix>3d</fix>
</trkpt>
<trkpt lat="-35.2752582" lon="148.986986">
  <ele>678.42</ele>
  <time>2026-09-01T19:59:41Z</time>
  <course>295.19</course>
  <speed>12.69</speed>
  <fix>3d</fix>
</trkpt>
<trkpt lat="-35.2752398" lon="148.9869379">
  <ele>678.76</ele>
  <time>2026-09-01T19:59:41Z</time>
  <course>295.52</course>
  <speed>11.877078765420393</speed>
  <fix>3d</fix>
</trkpt>
<trkpt lat="-35.2752487" lon="148.9869611">
  <ele>678.61</ele>
  <time>2026-09-01T19:59:41Z</time>
  <course>295.17</course>
  <speed>12.27</speed>
  <fix>3d</fix>
</trkpt>
<trkpt lat="-35.2752353" lon="148.9869262">
  <ele>678.83</ele>
  <time>2026-09-01T19:59:41Z</time>
  <course>295.51</course>
  <speed>11.711549854737417</speed>
  <fix>3d</fix>
</trkpt>
<trkpt lat="-35.2752487" lon="148.9869611">
  <ele>678.61</ele>
  <time>2026-09-01T19:59:41Z</time>
  <course>295.17</course>
  <speed>12.27</speed>
  <fix>3d</fix>
</trkpt>
<trkpt lat="-35.2752308" lon="148.9869145">
  <ele>678.89</ele>
  <time>2026-09-01T19:59:41Z</time>
  <course>295.5</course>
  <speed>11.555072479218813</speed>
  <fix>3d</fix>
</trkpt>
<trkpt lat="-35.2752394" lon="148.9869369">
  <ele>678.79</ele>
  <time>2026-09-01T19:59:41Z</time>
  <course>295.15</course>
  <speed>11.89</speed>
  <fix>3d</fix>
</trkpt>
<trkpt lat="-35.2752264" lon="148.986903">
  <ele>678.93</ele>
  <time>2026-09-01T19:59:41Z</time>
  <course>295.5</course>
  <speed>11.411897300624467</speed>
  <fix>3d</fix>
</trkpt>
<trkpt lat="-35.2752394" lon="148.9869369">
  <ele>678.79</ele>
  <time>2026-09-01T19:59:41Z</time>
  <course>295.15</course>
  <speed>11.89</speed>
  <fix>3d</fix>
</trkpt>
<trkpt lat="-35.2752221" lon="148.9868917">
  <ele>678.96</ele>
  <time>2026-09-01T19:59:41Z</time>
  <course>295.49</course>
  <speed>11.277774603174157</speed>
  <fix>3d</fix>
</trkpt>
<trkpt lat="-35.2752305" lon="148.9869135">
  <ele>678.92</ele>
  <time>2026-09-01T19:59:41Z</time>
  <course>295.13</course>
  <speed>11.56</speed>
  <fix>3d</fix>
</trkpt>
<trkpt lat="-35.2752178" lon="148.9868805">
  <ele>678.97</ele>
  <time>2026-09-01T19:59:41Z</time>
  <course>295.48</course>
  <speed>11.156952989055748</speed>
  <fix>3d</fix>
</trkpt>
<trkpt lat="-35.2752305" lon="148.9869135">
  <ele>678.92</ele>
  <time>2026-09-01T19:59:41Z</time>
  <course>295.13</course>
  <speed>11.56</speed>
  <fix>3d</fix>
</trkpt>
<trkpt lat="-35.2752135" lon="148.9868694">
  <ele>678.96</ele>
  <time>2026-09-01T19:59:41Z</time>
  <course>295.47</course>
  <speed>11.054239005919856</speed>
  <fix>3d</fix>
</trkpt>
<trkpt lat="-35.2752218" lon="148.9868909">
  <ele>678.99</ele>
  <time>2026-09-01T19:59:41Z</time>
  <course>295.11</course>
  <speed>11.28</speed>
  <fix>3d</fix>
</trkpt>
<trkpt lat="-35.2752093" lon="148.9868584">
  <ele>678.94</ele>
  <time>2026-09-01T19:59:41Z</time>
  <course>295.46</course>
  <speed>10.95577016918482</speed>
  <fix>3d</fix>
</trkpt>
<trkpt lat="-35.2752218" lon="148.9868909">
  <ele>678.99</ele>
  <time>2026-09-01T19:59:41Z</time>
  <course>295.11</course>
  <speed>11.28</speed>
  <fix>3d</fix>
</trkpt>
<trkpt lat="-35.2752051" lon="148.9868475">
  <ele>678.91</ele>
  <time>2026-09-01T19:59:41Z</time>
  <course>295.45</course>
  <speed>10.866356335037057</speed>
  <fix>3d</fix>
</trkpt>
<trkpt lat="-35.2752132" lon="148.9868686">
  <ele>679.0</ele>
  <time>2026-09-01T19:59:41Z</time>
  <course>295.09</course>
  <speed>11.05</speed>
  <fix>3d</fix>
</trkpt>
<trkpt lat="-35.275201" lon="148.9868366">
  <ele>678.86</ele>
  <time>2026-09-01T19:59:41Z</time>
  <course>295.43</course>
  <speed>10.790240961164862</speed>
  <fix>3d</fix>
</trkpt>
<trkpt lat="-35.2752132" lon="148.9868686">
  <ele>679.0</ele>
  <time>2026-09-01T19:59:41Z</time>
  <course>295.09</course>
  <speed>11.05</speed>
  <fix>3d</fix>
</trkpt>
<trkpt lat="-35.2751969" lon="148.9868259">
  <ele>678.81</ele>
  <time>2026-09-01T19:59:41Z</time>
  <course>295.42</course>
  <speed>10.723180498340966</speed>
  <fix>3d</fix>
</trkpt>
<trkpt lat="-35.2752049" lon="148.9868467">
  <ele>678.94</ele>
  <time>2026-09-01T19:59:41Z</time>
  <course>295.06</course>
  <speed>10.86</speed>
  <fix>3d</fix>
</trkpt>
<trkpt lat="-35.2751928" lon="148.9868151">
  <ele>678.74</ele>
  <time>2026-09-01T19:59:41Z</time>
  <course>295.41</course>
  <speed>10.656120307128669</speed>
  <fix>3d</fix>
</trkpt>
<trkpt lat="-35.2752049" lon="148.9868467">
  <ele>678.94</ele>
  <time>2026-09-01T19:59:41Z</time>
  <course>295.06</course>
  <speed>10.86</speed>
  <fix>3d</fix>
</trkpt>
<trkpt lat="-35.2751887" lon="148.9868045">
  <ele>678.67</ele>
  <time>2026-09-01T19:59:41Z</time>
  <course>295.39</course>
  <speed>10.598117757413343</speed>
  <fix>3d</fix>
</trkpt>
<trkpt lat="-35.2751966" lon="148.9868253">
  <ele>678.85</ele>
  <time>2026-09-01T19:59:41Z</time>
  <course>295.03</course>
  <speed>10.71</speed>
  <fix>3d</fix>
</trkpt>
<trkpt lat="-35.2751847" lon="148.986794">
  <ele>678.59</ele>
  <time>2026-09-01T19:59:41Z</time>
  <course>295.37</course>
  <speed>10.544353939431282</speed>
  <fix>3d</fix>
</trkpt>
<trkpt lat="-35.2751966" lon="148.9868253">
  <ele>678.85</ele>
  <time>2026-09-01T19:59:41Z</time>
  <course>295.03</course>
  <speed>10.71</speed>
  <fix>3d</fix>
</trkpt>
<trkpt lat="-35.2751807" lon="148.9867834">
  <ele>678.5</ele>
  <time>2026-09-01T19:59:41Z</time>
  <course>295.35</course>
  <speed>10.486353036208536</speed>
  <fix>3d</fix>
</trkpt>
<trkpt lat="-35.2751885" lon="148.986804">
  <ele>678.7</ele>
  <time>2026-09-01T19:59:41Z</time>
  <course>294.99</course>
  <speed>10.58</speed>
  <fix>3d</fix>
</trkpt>
<trkpt lat="-35.2751767" lon="148.9867731">
  <ele>678.41</ele>
  <time>2026-09-01T19:59:41Z</time>
  <course>295.34</course>
  <speed>10.441647379604426</speed>
  <fix>3d</fix>
</trkpt>
<trkpt lat="-35.2751885" lon="148.986804">
  <ele>678.7</ele>
  <time>2026-09-01T19:59:41Z</time>
  <course>294.99</course>
  <speed>10.58</speed>
  <fix>3d</fix>
</trkpt>
<trkpt lat="-35.2751728" lon="148.9867626">
  <ele>678.32</ele>
  <time>2026-09-01T19:59:41Z</time>
  <course>295.32</course>
  <speed>10.396941858065766</speed>
  <fix>3d</fix>
</trkpt>
<trkpt lat="-35.2751806" lon="148.986783">
  <ele>678.54</ele>
  <time>2026-09-01T19:59:41Z</time>
  <course>294.96</course>
  <speed>10.48</speed>
  <fix>3d</fix>
</trkpt>
<trkpt lat="-35.2751688" lon="148.9867523">
  <ele>678.23</ele>
  <time>2026-09-01T19:59:41Z</time>
  <course>295.3</course>
  <speed>10.352236473342366</speed>
  <fix>3d</fix>
</trkpt>
<trkpt lat="-35.2751806" lon="148.986783">
  <ele>678.54</ele>
  <time>2026-09-01T19:59:41Z</time>
  <course>294.96</course>
  <speed>10.48</speed>
  <fix>3d</fix>
</trkpt>
<trkpt lat="-35.2751649" lon="148.9867419">
  <ele>678.14</ele>
  <time>2026-09-01T19:59:41Z</time>
  <course>295.28</course>
  <speed>10.3075312272144</speed>
  <fix>3d</fix>
</trkpt>
<trkpt lat="-35.2751727" lon="148.9867622">
  <ele>678.37</ele>
  <time>2026-09-01T19:59:41Z</time>
  <course>294.92</course>
  <speed>10.38</speed>
  <fix>3d</fix>
</trkpt>
<trkpt lat="-35.275161" lon="148.9867316">
  <ele>678.05</ele>
  <time>2026-09-01T19:59:41Z</time>
  <course>295.26</course>
  <speed>10.262826121493047</speed>
  <fix>3d</fix>
</trkpt>
<trkpt lat="-35.2751727" lon="148.9867622">
  <ele>678.37</ele>
  <time>2026-09-01T19:59:41Z</time>
  <course>294.92</course>
  <speed>10.38</speed>
  <fix>3d</fix>
</trkpt>
<trkpt lat="-35.2751571" lon="148.9867213">
  <ele>677.95</ele>
  <time>2026-09-01T19:59:41Z</time>
  <course>295.24</course>
  <speed>10.218121158021175</speed>
  <fix>3d</fix>
</trkpt>
<trkpt lat="-35.2751648" lon="148.9867416">
  <ele>678.19</ele>
  <time>2026-09-01T19:59:41Z</time>
  <course>294.88</course>
  <speed>10.29</speed>
  <fix>3d</fix>
</trkpt>
<trkpt lat="-35.2751532" lon="148.9867111">
  <ele>677.86</ele>
  <time>2026-09-01T19:59:41Z</time>
  <course>295.22</course>
  <speed>10.173416338674045</speed>
  <fix>3d</fix>
</trkpt>
<trkpt lat="-35.2751648" lon="148.9867416">
  <ele>678.19</ele>
  <time>2026-09-01T19:59:41Z</time>
  <course>294.88</course>
  <speed>10.29</speed>
  <fix>3d</fix>
</trkpt>
<trkpt lat="-35.2751494" lon="148.986701">
  <ele>677.77</ele>
  <time>2026-09-01T19:59:41Z</time>
  <course>295.2</course>
  <speed>10.124490110617916</speed>
  <fix>3d</fix>
</trkpt>
<trkpt lat="-35.2751571" lon="148.9867211">
  <ele>678.01</ele>
  <time>2026-09-01T19:59:41Z</time>
  <course>294.84</course>
  <speed>10.2</speed>
  <fix>3d</fix>
</trkpt>
<trkpt lat="-35.2751456" lon="148.9866909">
  <ele>677.69</ele>
  <time>2026-09-01T19:59:41Z</time>
  <course>295.18</course>
  <speed>10.079786704092504</speed>
  <fix>3d</fix>
</trkpt>
<trkpt lat="-35.2751571" lon="148.9867211">
  <ele>678.01</ele>
  <time>2026-09-01T19:59:41Z</time>
  <course>294.84</course>
  <speed>10.2</speed>
  <fix>3d</fix>
</trkpt>
<trkpt lat="-35.2751418" lon="148.9866809">
  <ele>677.6</ele>
  <time>2026-09-01T19:59:41Z</time>
  <course>295.16</course>
  <speed>10.021801235306954</speed>
  <fix>3d</fix>
</trkpt>
<trkpt lat="-35.2751495" lon="148.9867008">
  <ele>677.82</ele>
  <time>2026-09-01T19:59:41Z</time>
  <course>294.79</course>
  <speed>10.11</speed>
  <fix>3d</fix>
</trkpt>
<trkpt lat="-35.275138" lon="148.9866709">
  <ele>677.52</ele>
  <time>2026-09-01T19:59:41Z</time>
  <course>295.14</course>
  <speed>9.968028892413987</speed>
  <fix>3d</fix>
</trkpt>
<trkpt lat="-35.2751495" lon="148.9867008">
  <ele>677.82</ele>
  <time>2026-09-01T19:59:41Z</time>
  <course>294.79</course>
  <speed>10.11</speed>
  <fix>3d</fix>
</trkpt>
<trkpt lat="-35.2751342" lon="148.9866609">
  <ele>677.44</ele>
  <time>2026-09-01T19:59:41Z</time>
  <course>295.11</course>
  <speed>9.910045408574069</speed>
  <fix>3d</fix>
</trkpt>
<trkpt lat="-35.2751418" lon="148.9866807">
  <ele>677.65</ele>
  <time>2026-09-01T19:59:41Z</time>
  <course>294.75</course>
  <speed>10.01</speed>
  <fix>3d</fix>
</trkpt>
<trkpt lat="-35.2751305" lon="148.9866511">
  <ele>677.37</ele>
  <time>2026-09-01T19:59:41Z</time>
  <course>295.09</course>
  <speed>9.842992431166449</speed>
  <fix>3d</fix>
</trkpt>
<trkpt lat="-35.2751418" lon="148.9866807">
  <ele>677.65</ele>
  <time>2026-09-01T19:59:41Z</time>
  <course>294.75</course>
  <speed>10.01</speed>
  <fix>3d</fix>
</trkpt>
<trkpt lat="-35.2751269" lon="148.9866413">
  <ele>677.3</ele>
  <time>2026-09-01T19:59:41Z</time>
  <course>295.07</course>
  <speed>9.77593985251546</speed>
  <fix>3d</fix>
</trkpt>
<trkpt lat="-35.2751344" lon="148.9866607">
  <ele>677.49</ele>
  <time>2026-09-01T19:59:41Z</time>
  <course>294.71</course>
  <speed>9.89</speed>
  <fix>3d</fix>
</trkpt>
<trkpt lat="-35.2751232" lon="148.9866316">
  <ele>677.23</ele>
  <time>2026-09-01T19:59:41Z</time>
  <course>295.05</course>
  <speed>9.68653704891485</speed>
  <fix>3d</fix>
</trkpt>
<trkpt lat="-35.2751344" lon="148.9866607">
  <ele>677.49</ele>
  <time>2026-09-01T19:59:41Z</time>
  <course>294.71</course>
  <speed>9.89</speed>
  <fix>3d</fix>
</trkpt>
<trkpt lat="-35.2751196" lon="148.9866221">
  <ele>677.18</ele>
  <time>2026-09-01T19:59:41Z</time>
  <course>295.03</course>
  <speed>9.59713498915171</speed>
  <fix>3d</fix>
</trkpt>
<trkpt lat="-35.275127" lon="148.9866411">
  <ele>677.34</ele>
  <time>2026-09-01T19:59:41Z</time>
  <course>294.66</course>
  <speed>9.76</speed>
  <fix>3d</fix>
</trkpt>
<trkpt lat="-35.2751161" lon="148.9866126">
  <ele>677.13</ele>
  <time>2026-09-01T19:59:41Z</time>
  <course>295.0</course>
  <speed>9.48538349251099</speed>
  <fix>3d</fix>
</trkpt>
<trkpt lat="-35.275127" lon="148.9866411">
  <ele>677.34</ele>
  <time>2026-09-01T19:59:41Z</time>
  <course>294.66</course>
  <speed>9.76</speed>
  <fix>3d</fix>
</trkpt>
<trkpt lat="-35.2751126" lon="148.9866032">
  <ele>677.1</ele>
  <time>2026-09-01T19:59:41Z</time>
  <course>294.98</course>
  <speed>9.364555515346149</speed>
  <fix>3d</fix>
</trkpt>
<trkpt lat="-35.2751198" lon="148.9866218">
  <ele>677.23</ele>
  <time>2026-09-01T19:59:41Z</time>
  <course>294.62</course>
  <speed>9.58</speed>
  <fix>3d</fix>
</trkpt>
<trkpt lat="-35.2751091" lon="148.9865939">
  <ele>677.07</ele>
  <time>2026-09-01T19:59:41Z</time>
  <course>294.96</course>
  <speed>9.23953462031503</speed>
  <fix>3d</fix>
</trkpt>
<trkpt lat="-35.2751198" lon="148.9866218">
  <ele>677.23</ele>
  <time>2026-09-01T19:59:41Z</time>
  <course>294.62</course>
  <speed>9.58</speed>
  <fix>3d</fix>
</trkpt>
<trkpt lat="-35.2751057" lon="148.9865848">
  <ele>677.05</ele>
  <time>2026-09-01T19:59:41Z</time>
  <course>294.94</course>
  <speed>9.096356413421805</speed>
  <fix>3d</fix>
</trkpt>
<trkpt lat="-35.2751126" lon="148.9866028">
  <ele>677.15</ele>
  <time>2026-09-01T19:59:41Z</time>
  <course>294.57</course>
  <speed>9.36</speed>
  <fix>3d</fix>
</trkpt>
<trkpt lat="-35.2751024" lon="148.9865758">
  <ele>677.04</ele>
  <time>2026-09-01T19:59:41Z</time>
  <course>294.92</course>
  <speed>8.948994356909608</speed>
  <fix>3d</fix>
</trkpt>
<trkpt lat="-35.2751126" lon="148.9866028">
  <ele>677.15</ele>
  <time>2026-09-01T19:59:41Z</time>
  <course>294.57</course>
  <speed>9.36</speed>
  <fix>3d</fix>
</trkpt>
<trkpt lat="-35.2750991" lon="148.986567">
  <ele>677.03</ele>
  <time>2026-09-01T19:59:41Z</time>
  <course>294.9</course>
  <speed>8.792553667734989</speed>
  <fix>3d</fix>
</trkpt>
<trkpt lat="-35.2751058" lon="148.9865843">
  <ele>677.1</ele>
  <time>2026-09-01T19:59:41Z</time>
  <course>294.53</course>
  <speed>9.1</speed>
  <fix>3d</fix>
</trkpt>
<trkpt lat="-35.2750958" lon="148.9865583">
  <ele>677.03</ele>
  <time>2026-09-01T19:59:41Z</time>
  <course>294.88</course>
  <speed>8.636116025158532</speed>
  <fix>3d</fix>
</trkpt>
<trkpt lat="-35.2751058" lon="148.9865843">
  <ele>677.1</ele>
  <time>2026-09-01T19:59:41Z</time>
  <course>294.53</course>
  <speed>9.1</speed>
  <fix>3d</fix>
</trkpt>
<trkpt lat="-35.2750927" lon="148.9865498">
  <ele>677.03</ele>
  <time>2026-09-01T19:59:41Z</time>
  <course>294.86</course>
  <speed>8.470590298202364</speed>
  <fix>3d</fix>
</trkpt>
<trkpt lat="-35.2750991" lon="148.9865664">
  <ele>677.08</ele>
  <time>2026-09-01T19:59:41Z</time>
  <course>294.48</course>
  <speed>8.81</speed>
  <fix>3d</fix>
</trkpt>
<trkpt lat="-35.2750896" lon="148.9865414">
  <ele>677.03</ele>
  <time>2026-09-01T19:59:41Z</time>
  <course>294.84</course>
  <speed>8.305064719795986</speed>
  <fix>3d</fix>
</trkpt>
<trkpt lat="-35.2750991" lon="148.9865664">
  <ele>677.08</ele>
  <time>2026-09-01T19:59:41Z</time>
  <course>294.48</course>
  <speed>8.81</speed>
  <fix>3d</fix>
</trkpt>
<trkpt lat="-35.2750865" lon="148.9865331">
  <ele>677.04</ele>
  <time>2026-09-01T19:59:41Z</time>
  <course>294.82</course>
  <speed>8.126284513847642</speed>
  <fix>3d</fix>
</trkpt>
<trkpt lat="-35.2750926" lon="148.9865491">
  <ele>677.08</ele>
  <time>2026-09-01T19:59:41Z</time>
  <course>294.44</course>
  <speed>8.49</speed>
  <fix>3d</fix>
</trkpt>
<trkpt lat="-35.2750835" lon="148.9865251">
  <ele>677.04</ele>
  <time>2026-09-01T19:59:41Z</time>
  <course>294.8</course>
  <speed>7.960760013968516</speed>
  <fix>3d</fix>
</trkpt>
<trkpt lat="-35.2750926" lon="148.9865491">
  <ele>677.08</ele>
  <time>2026-09-01T19:59:41Z</time>
  <course>294.44</course>
  <speed>8.49</speed>
  <fix>3d</fix>
</trkpt>
<trkpt lat="-35.2750806" lon="148.9865172">
  <ele>677.05</ele>
  <time>2026-09-01T19:59:41Z</time>
  <course>294.78</course>
  <speed>7.781985607799593</speed>
  <fix>3d</fix>
</trkpt>
<trkpt lat="-35.2750865" lon="148.9865323">
  <ele>677.1</ele>
  <time>2026-09-01T19:59:41Z</time>
  <course>294.39</course>
  <speed>8.16</speed>
  <fix>3d</fix>
</trkpt>
<trkpt lat="-35.2750777" lon="148.9865094">
  <ele>677.05</ele>
  <time>2026-09-01T19:59:41Z</time>
  <course>294.76</course>
  <speed>7.6164624334398185</speed>
  <fix>3d</fix>
</trkpt>
<trkpt lat="-35.2750865" lon="148.9865323">
  <ele>677.1</ele>
  <time>2026-09-01T19:59:41Z</time>
  <course>294.39</course>
  <speed>8.16</speed>
  <fix>3d</fix>
</trkpt>
<trkpt lat="-35.2750749" lon="148.9865018">
  <ele>677.06</ele>
  <time>2026-09-01T19:59:41Z</time>
  <course>294.74</course>
  <speed>7.450939538071692</speed>
  <fix>3d</fix>
</trkpt>
<trkpt lat="-35.2750805" lon="148.9865163">
  <ele>677.11</ele>
  <time>2026-09-01T19:59:41Z</time>
  <course>294.34</course>
  <speed>7.81</speed>
  <fix>3d</fix>
</trkpt>
<trkpt lat="-35.2750722" lon="148.9864944">
  <ele>677.06</ele>
  <time>2026-09-01T19:59:41Z</time>
  <course>294.73</course>
  <speed>7.272172990241637</speed>
  <fix>3d</fix>
</trkpt>
<trkpt lat="-35.2750805" lon="148.9865163">
  <ele>677.11</ele>
  <time>2026-09-01T19:59:41Z</time>
  <course>294.34</course>
  <speed>7.81</speed>
  <fix>3d</fix>
</trkpt>
<trkpt lat="-35.2750696" lon="148.9864871">
  <ele>677.05</ele>
  <time>2026-09-01T19:59:41Z</time>
  <course>294.71</course>
  <speed>7.106651813617999</speed>
  <fix>3d</fix>
</trkpt>
<trkpt lat="-35.2750748" lon="148.9865009">
  <ele>677.12</ele>
  <time>2026-09-01T19:59:41Z</time>
  <course>294.28</course>
  <speed>7.47</speed>
  <fix>3d</fix>
</trkpt>
<trkpt lat="-35.2750669" lon="148.9864801">
  <ele>677.04</ele>
  <time>2026-09-01T19:59:41Z</time>
  <course>294.69</course>
  <speed>6.9411310317555595</speed>
  <fix>3d</fix>
</trkpt>
<trkpt lat="-35.2750748" lon="148.9865009">
  <ele>677.12</ele>
  <time>2026-09-01T19:59:41Z</time>
  <course>294.28</course>
  <speed>7.47</speed>
  <fix>3d</fix>
</trkpt>
<trkpt lat="-35.2750644" lon="148.9864731">
  <ele>677.01</ele>
  <time>2026-09-01T19:59:41Z</time>
  <course>294.66</course>
  <speed>6.771484327678829</speed>
  <fix>3d</fix>
</trkpt>
<trkpt lat="-35.2750695" lon="148.9864863">
  <ele>677.11</ele>
  <time>2026-09-01T19:59:41Z</time>
  <course>294.22</course>
  <speed>7.14</speed>
  <fix>3d</fix>
</trkpt>
<trkpt lat="-35.2750619" lon="148.9864664">
  <ele>676.92</ele>
  <time>2026-09-01T19:59:41Z</time>
  <course>294.63</course>
  <speed>6.529823887364804</speed>
  <fix>3d</fix>
</trkpt>
<trkpt lat="-35.2750695" lon="148.9864863">
  <ele>677.11</ele>
  <time>2026-09-01T19:59:41Z</time>
  <course>294.22</course>
  <speed>7.14</speed>
  <fix>3d</fix>
</trkpt>
<trkpt lat="-35.2750596" lon="148.98646">
  <ele>676.76</ele>
  <time>2026-09-01T19:59:41Z</time>
  <course>294.64</course>
  <speed>6.15410432150772</speed>
  <fix>3d</fix>
</trkpt>
<trkpt lat="-35.2750644" lon="148.9864723">
  <ele>677.05</ele>
  <time>2026-09-01T19:59:41Z</time>
  <course>294.17</course>
  <speed>6.76</speed>
  <fix>3d</fix>
</trkpt>
<trkpt lat="-35.2750574" lon="148.986454">
  <ele>676.56</ele>
  <time>2026-09-01T19:59:41Z</time>
  <course>294.71</course>
  <speed>5.693127435777281</speed>
  <fix>3d</fix>
</trkpt>
<trkpt lat="-35.2750644" lon="148.9864723">
  <ele>677.05</ele>
  <time>2026-09-01T19:59:41Z</time>
  <course>294.17</course>
  <speed>6.76</speed>
  <fix>3d</fix>
</trkpt>
<trkpt lat="-35.2750554" lon="148.9864485">
  <ele>676.32</ele>
  <time>2026-09-01T19:59:41Z</time>
  <course>294.84</course>
  <speed>5.165123425437189</speed>
  <fix>3d</fix>
</trkpt>
<trkpt lat="-35.2750596" lon="148.9864593">
  <ele>676.82</ele>
  <time>2026-09-01T19:59:41Z</time>
  <course>294.13</course>
  <speed>6.14</speed>
  <fix>3d</fix>
</trkpt>
<trkpt lat="-35.2750537" lon="148.9864435">
  <ele>676.07</ele>
  <time>2026-09-01T19:59:41Z</time>
  <course>295.01</course>
  <speed>4.623905275846381</speed>
  <fix>3d</fix>
</trkpt>
<trkpt lat="-35.2750596" lon="148.9864593">
  <ele>676.82</ele>
  <time>2026-09-01T19:59:41Z</time>
  <course>294.13</course>
  <speed>6.14</speed>
  <fix>3d</fix>
</trkpt>
<trkpt lat="-35.2750521" lon="148.9864391">
  <ele>675.8</ele>
  <time>2026-09-01T19:59:41Z</time>
  <course>295.19</course>
  <speed>4.073573369905101</speed>
  <fix>3d</fix>
</trkpt>
<trkpt lat="-35.2750555" lon="148.9864479">
  <ele>676.41</ele>
  <time>2026-09-01T19:59:41Z</time>
  <course>294.04</course>
  <speed>5.19</speed>
  <fix>3d</fix>
</trkpt>
<trkpt lat="-35.2750507" lon="148.9864352">
  <ele>675.53</ele>
  <time>2026-09-01T19:59:41Z</time>
  <course>295.38</course>
  <speed>3.5455888086465976</speed>
  <fix>3d</fix>
</trkpt>
<trkpt lat="-35.2750555" lon="148.9864479">
  <ele>676.41</ele>
  <time>2026-09-01T19:59:41Z</time>
  <course>294.04</course>
  <speed>5.19</speed>
  <fix>3d</fix>
</trkpt>
<trkpt lat="-35.2750495" lon="148.9864319">
  <ele>675.27</ele>
  <time>2026-09-01T19:59:41Z</time>
  <course>295.55</course>
  <speed>3.049098227345259</speed>
  <fix>3d</fix>
</trkpt>
<trkpt lat="-35.275052" lon="148.9864385">
  <ele>675.9</ele>
  <time>2026-09-01T19:59:41Z</time>
  <course>293.89</course>
  <speed>4.12</speed>
  <fix>3d</fix>
</trkpt>
<trkpt lat="-35.2750485" lon="148.986429">
  <ele>675.01</ele>
  <time>2026-09-01T19:59:41Z</time>
  <course>295.7</course>
  <speed>2.6013265846486866</speed>
  <fix>3d</fix>
</trkpt>
<trkpt lat="-35.275052" lon="148.9864385">
  <ele>675.9</ele>
  <time>2026-09-01T19:59:41Z</time>
  <course>293.89</course>
  <speed>4.12</speed>
  <fix>3d</fix>
</trkpt>
<trkpt lat="-35.2750476" lon="148.9864265">
  <ele>674.76</ele>
  <time>2026-09-01T19:59:41Z</time>
  <course>295.83</course>
  <speed>2.194196891803468</speed>
  <fix>3d</fix>
</trkpt>
<trkpt lat="-35.2750494" lon="148.9864313">
  <ele>675.38</ele>
  <time>2026-09-01T19:59:41Z</time>
  <course>293.75</course>
  <speed>3.1</speed>
  <fix>3d</fix>
</trkpt>
<trkpt lat="-35.2750469" lon="148.9864245">
  <ele>674.52</ele>
  <time>2026-09-01T19:59:41Z</time>
  <course>295.94</course>
  <speed>1.8357559750685821</speed>
  <fix>3d</fix>
</trkpt>
<trkpt lat="-35.2750494" lon="148.9864313">
  <ele>675.38</ele>
  <time>2026-09-01T19:59:41Z</time>
  <course>293.75</course>
  <speed>3.1</speed>
  <fix>3d</fix>
</trkpt>
<trkpt lat="-35.2750462" lon="148.9864227">
  <ele>674.3</ele>
  <time>2026-09-01T19:59:41Z</time>
  <course>296.02</course>
  <speed>1.5352198539622917</speed>
  <fix>3d</fix>
</trkpt>
<trkpt lat="-35.2750475" lon="148.9864259">
  <ele>674.88</ele>
  <time>2026-09-01T19:59:41Z</time>
  <course>293.71</course>
  <speed>2.24</speed>
  <fix>3d</fix>
</trkpt>
<trkpt lat="-35.2750457" lon="148.9864212">
  <ele>674.09</ele>
  <time>2026-09-01T19:59:41Z</time>
  <course>296.09</course>
  <speed>1.284445405612866</speed>
  <fix>3d</fix>
</trkpt>
<trkpt lat="-35.2750475" lon="148.9864259">
  <ele>674.88</ele>
  <time>2026-09-01T19:59:41Z</time>
  <course>293.71</course>
  <speed>2.24</speed>
  <fix>3d</fix>
</trkpt>
<trkpt lat="-35.2750453" lon="148.98642">
  <ele>673.9</ele>
  <time>2026-09-01T19:59:41Z</time>
  <course>296.15</course>
  <speed>1.0916501271011696</speed>
  <fix>3d</fix>
</trkpt>
<trkpt lat="-35.2750461" lon="148.9864221">
  <ele>674.43</ele>
  <time>2026-09-01T19:59:41Z</time>
  <course>293.91</course>
  <speed>1.58</speed>
  <fix>3d</fix>
</trkpt>
<trkpt lat="-35.2750449" lon="148.9864189">
  <ele>673.72</ele>
  <time>2026-09-01T19:59:41Z</time>
  <course>296.19</course>
  <speed>0.9303762679690406</speed>
  <fix>3d</fix>
</trkpt>
<trkpt lat="-35.2750461" lon="148.9864221">
  <ele>674.43</ele>
  <time>2026-09-01T19:59:41Z</time>
  <course>293.91</course>
  <speed>1.58</speed>
  <fix>3d</fix>
</trkpt>
<trkpt lat="-35.2750445" lon="148.986418">
  <ele>673.55</ele>
  <time>2026-09-01T19:59:41Z</time>
  <course>296.23</course>
  <speed>0.8139410298049853</speed>
  <fix>3d</fix>
</trkpt>
<trkpt lat="-35.2750451" lon="148.9864194">
  <ele>674.03</ele>
  <time>2026-09-01T19:59:41Z</time>
  <course>294.51</course>
  <speed>1.12</speed>
  <fix>3d</fix>
</trkpt>
<trkpt lat="-35.2750442" lon="148.9864172">
  <ele>673.39</ele>
  <time>2026-09-01T19:59:41Z</time>
  <course>296.26</course>
  <speed>0.7200694410957876</speed>
  <fix>3d</fix>
</trkpt>
<trkpt lat="-35.2750451" lon="148.9864194">
  <ele>674.03</ele>
  <time>2026-09-01T19:59:41Z</time>
  <course>294.51</course>
  <speed>1.12</speed>
  <fix>3d</fix>
</trkpt>
<trkpt lat="-35.2750439" lon="148.9864165">
  <ele>673.24</ele>
  <time>2026-09-01T19:59:41Z</time>
  <course>296.27</course>
  <speed>0.6441273166075167</speed>
  <fix>3d</fix>
</trkpt>
<trkpt lat="-35.2750444" lon="148.9864175">
  <ele>673.68</ele>
  <time>2026-09-01T19:59:41Z</time>
  <course>295.59</course>
  <speed>0.83</speed>
  <fix>3d</fix>
</trkpt>
<trkpt lat="-35.2750436" lon="148.9864159">
  <ele>673.08</ele>
  <time>2026-09-01T19:59:41Z</time>
  <course>296.28</course>
  <speed>0.5818075283115542</speed>
  <fix>3d</fix>
</trkpt>
<trkpt lat="-35.2750444" lon="148.9864175">
  <ele>673.68</ele>
  <time>2026-09-01T19:59:41Z</time>
  <course>295.59</course>
  <speed>0.83</speed>
  <fix>3d</fix>
</trkpt>
<trkpt lat="-35.2750434" lon="148.9864153">
  <ele>672.94</ele>
  <time>2026-09-01T19:59:41Z</time>
  <course>296.28</course>
  <speed>0.5333854141237835</speed>
  <fix>3d</fix>
</trkpt>
<trkpt lat="-35.2750438" lon="148.986416">
  <ele>673.37</ele>
  <time>2026-09-01T19:59:41Z</time>
  <course>297.01</course>
  <speed>0.65</speed>
  <fix>3d</fix>
</trkpt>
<trkpt lat="-35.2750431" lon="148.9864148">
  <ele>672.79</ele>
  <time>2026-09-01T19:59:41Z</time>
  <course>296.28</course>
  <speed>0.48877397639399744</speed>
  <fix>3d</fix>
</trkpt>
<trkpt lat="-35.2750438" lon="148.986416">
  <ele>673.37</ele>
  <time>2026-09-01T19:59:41Z</time>
  <course>297.01</course>
  <speed>0.65</speed>
  <fix>3d</fix>
</trkpt>
<trkpt lat="-35.2750429" lon="148.9864143">
  <ele>672.65</ele>
  <time>2026-09-01T19:59:41Z</time>
  <course>296.27</course>
  <speed>0.45793012567421243</speed>
  <fix>3d</fix>
</trkpt>
<trkpt lat="-35.2750433" lon="148.9864149">
  <ele>673.08</ele>
  <time>2026-09-01T19:59:41Z</time>
  <course>298.59</course>
  <speed>0.53</speed>
  <fix>3d</fix>
</trkpt>
<trkpt lat="-35.2750427" lon="148.9864138">
  <ele>672.5</ele>
  <time>2026-09-01T19:59:41Z</time>
  <course>296.27</course>
  <speed>0.4410215414239989</speed>
  <fix>3d</fix>
</trkpt>
<trkpt lat="-35.2750433" lon="148.9864149">
  <ele>673.08</ele>
  <time>2026-09-01T19:59:41Z</time>
  <course>298.59</course>
  <speed>0.53</speed>
  <fix>3d</fix>
</trkpt>
<trkpt lat="-35.2750425" lon="148.9864134">
  <ele>672.34</ele>
  <time>2026-09-01T19:59:41Z</time>
  <course>296.28</course>
  <speed>0.41880783182743847</speed>
  <fix>3d</fix>
</trkpt>
<trkpt lat="-35.2750429" lon="148.9864139">
  <ele>672.79</ele>
  <time>2026-09-01T19:59:41Z</time>
  <course>300.08</course>
  <speed>0.46</speed>
  <fix>3d</fix>
</trkpt>
<trkpt lat="-35.2750423" lon="148.986413">
  <ele>672.18</ele>
  <time>2026-09-01T19:59:41Z</time>
  <course>296.28</course>
  <speed>0.41048751503547587</speed>
  <fix>3d</fix>
</trkpt>
<trkpt lat="-35.2750429" lon="148.9864139">
  <ele>672.79</ele>
  <time>2026-09-01T19:59:41Z</time>
  <course>300.08</course>
  <speed>0.46</speed>
  <fix>3d</fix>
</trkpt>
<trkpt lat="-35.2750421" lon="148.9864126">
  <ele>672.02</ele>
  <time>2026-09-01T19:59:41Z</time>
  <course>296.29</course>
  <speed>0.41048751503547587</speed>
  <fix>3d</fix>
</trkpt>
<trkpt lat="-35.2750425" lon="148.9864131">
  <ele>672.49</ele>
  <time>2026-09-01T19:59:41Z</time>
  <course>301.17</course>
  <speed>0.42</speed>
  <fix>3d</fix>
</trkpt>
<trkpt lat="-35.2750419" lon="148.9864122">
  <ele>671.85</ele>
  <time>2026-09-01T19:59:41Z</time>
  <course>296.3</course>
  <speed>0.4243819034784589</speed>
  <fix>3d</fix>
</trkpt>
<trkpt lat="-35.2750425" lon="148.9864131">
  <ele>672.49</ele>
  <time>2026-09-01T19:59:41Z</time>
  <course>301.17</course>
  <speed>0.42</speed>
  <fix>3d</fix>
</trkpt>
<trkpt lat="-35.2750417" lon="148.9864117">
  <ele>671.67</ele>
  <time>2026-09-01T19:59:41Z</time>
  <course>296.31</course>
  <speed>0.43266615305567874</speed>
  <fix>3d</fix>
</trkpt>
<trkpt lat="-35.275042" lon="148.9864122">
  <ele>672.17</ele>
  <time>2026-09-01T19:59:41Z</time>
  <course>301.61</course>
  <speed>0.41</speed>
  <fix>3d</fix>
</trkpt>
<trkpt lat="-35.2750414" lon="148.9864113">
  <ele>671.48</ele>
  <time>2026-09-01T19:59:41Z</time>
  <course>296.32</course>
  <speed>0.44654227123532214</speed>
  <fix>3d</fix>
</trkpt>
<trkpt lat="-35.275042" lon="148.9864122">
  <ele>672.17</ele>
  <time>2026-09-01T19:59:41Z</time>
  <course>301.61</course>
  <speed>0.41</speed>
  <fix>3d</fix>
</trkpt>
<trkpt lat="-35.2750412" lon="148.9864109">
  <ele>671.3</ele>
  <time>2026-09-01T19:59:41Z</time>
  <course>296.32</course>
  <speed>0.4687216658103186</speed>
  <fix>3d</fix>
</trkpt>
<trkpt lat="-35.2750417" lon="148.9864115">
  <ele>671.83</ele>
  <time>2026-09-01T19:59:41Z</time>
  <course>301.4</course>
  <speed>0.43</speed>
  <fix>3d</fix>
</trkpt>
<trkpt lat="-35.275041" lon="148.9864104">
  <ele>671.11</ele>
  <time>2026-09-01T19:59:41Z</time>
  <course>296.31</course>
  <speed>0.49929950931279715</speed>
  <fix>3d</fix>
</trkpt>
<trkpt lat="-35.2750417" lon="148.9864115">
  <ele>671.83</ele>
  <time>2026-09-01T19:59:41Z</time>
  <course>301.4</course>
  <speed>0.43</speed>
  <fix>3d</fix>
</trkpt>
<trkpt lat="-35.2750407" lon="148.9864099">
  <ele>670.91</ele>
  <time>2026-09-01T19:59:41Z</time>
  <course>296.3</course>
  <speed>0.5353503525729669</speed>
  <fix>3d</fix>
</trkpt>
<trkpt lat="-35.2750413" lon="148.9864106">
  <ele>671.47</ele>
  <time>2026-09-01T19:59:41Z</time>
  <course>300.74</course>
  <speed>0.47</speed>
  <fix>3d</fix>
</trkpt>
<trkpt lat="-35.2750405" lon="148.9864094">
  <ele>670.71</ele>
  <time>2026-09-01T19:59:41Z</time>
  <course>296.28</course>
  <speed>0.5660388679233962</speed>
  <fix>3d</fix>
</trkpt>
<trkpt lat="-35.2750413" lon="148.9864106">
  <ele>671.47</ele>
  <time>2026-09-01T19:59:41Z</time>
  <course>300.74</course>
  <speed>0.47</speed>
  <fix>3d</fix>
</trkpt>
<trkpt lat="-35.2750402" lon="148.9864088">
  <ele>670.52</ele>
  <time>2026-09-01T19:59:41Z</time>
  <course>296.26</course>
  <speed>0.6105735008989499</speed>
  <fix>3d</fix>
</trkpt>
<trkpt lat="-35.2750408" lon="148.9864097">
  <ele>671.08</ele>
  <time>2026-09-01T19:59:41Z</time>
  <course>299.86</course>
  <speed>0.53</speed>
  <fix>3d</fix>
</trkpt>
<trkpt lat="-35.2750399" lon="148.9864082">
  <ele>670.31</ele>
  <time>2026-09-01T19:59:41Z</time>
  <course>296.24</course>
  <speed>0.655133574166368</speed>
  <fix>3d</fix>
</trkpt>
<trkpt lat="-35.2750408" lon="148.9864097">
  <ele>671.08</ele>
  <time>2026-09-01T19:59:41Z</time>
  <course>299.86</course>
  <speed>0.53</speed>
  <fix>3d</fix>
</trkpt>
<trkpt lat="-35.2750396" lon="148.9864075">
  <ele>670.11</ele>
  <time>2026-09-01T19:59:41Z</time>
  <course>296.21</course>
  <speed>0.6997142273814361</speed>
  <fix>3d</fix>
</trkpt>
<trkpt lat="-35.2750403" lon="148.9864086">
  <ele>670.69</ele>
  <time>2026-09-01T19:59:41Z</time>
  <course>298.97</course>
  <speed>0.6</speed>
  <fix>3d</fix>
</trkpt>
<trkpt lat="-35.2750393" lon="148.9864068">
  <ele>669.9</ele>
  <time>2026-09-01T19:59:41Z</time>
  <course>296.19</course>
  <speed>0.7529276193632427</speed>
  <fix>3d</fix>
</trkpt>
<trkpt lat="-35.2750403" lon="148.9864086">
  <ele>670.69</ele>
  <time>2026-09-01T19:59:41Z</time>
  <course>298.97</course>
  <speed>0.6</speed>
  <fix>3d</fix>
</trkpt>
<trkpt lat="-35.275039" lon="148.9864061">
  <ele>669.7</ele>
  <time>2026-09-01T19:59:41Z</time>
  <course>296.16</course>
  <speed>0.8062257748298549</speed>
  <fix>3d</fix>
</trkpt>
<trkpt lat="-35.2750398" lon="148.9864074">
  <ele>670.28</ele>
  <time>2026-09-01T19:59:41Z</time>
  <course>298.16</course>
  <speed>0.7</speed>
  <fix>3d</fix>
</trkpt>
<trkpt lat="-35.2750386" lon="148.9864053">
  <ele>669.49</ele>
  <time>2026-09-01T19:59:41Z</time>
  <course>296.14</course>
  <speed>0.850881895447306</speed>
  <fix>3d</fix>
</trkpt>
<trkpt lat="-35.2750398" lon="148.9864074">
  <ele>670.28</ele>
  <time>2026-09-01T19:59:41Z</time>
  <course>298.16</course>
  <speed>0.7</speed>
  <fix>3d</fix>
</trkpt>
<trkpt lat="-35.2750383" lon="148.9864044">
  <ele>669.29</ele>
  <time>2026-09-01T19:59:41Z</time>
  <course>296.13</course>
  <speed>0.9130169768410661</speed>
  <fix>3d</fix>
</trkpt>
<trkpt lat="-35.2750391" lon="148.9864059">
  <ele>669.87</ele>
  <time>2026-09-01T19:59:41Z</time>
  <course>297.49</course>
  <speed>0.8</speed>
  <fix>3d</fix>
</trkpt>
<trkpt lat="-35.2750379" lon="148.9864034">
  <ele>669.08</ele>
  <time>2026-09-01T19:59:41Z</time>
  <course>296.11</course>
  <speed>0.9664884893261793</speed>
  <fix>3d</fix>
</trkpt>
<trkpt lat="-35.2750384" lon="148.9864041">
  <ele>669.46</ele>
  <time>2026-09-01T19:59:41Z</time>
  <course>296.95</course>
  <speed>0.91</speed>
  <fix>3d</fix>
</trkpt>
<trkpt lat="-35.2750375" lon="148.9864025">
  <ele>668.87</ele>
  <time>2026-09-01T19:59:41Z</time>
  <course>296.1</course>
  <speed>1.0247438704378766</speed>
  <fix>3d</fix>
</trkpt>
<trkpt lat="-35.2750384" lon="148.9864041">
  <ele>669.46</ele>
  <time>2026-09-01T19:59:41Z</time>
  <course>296.95</course>
  <speed>0.91</speed>
  <fix>3d</fix>
</trkpt>
<trkpt lat="-35.275037" lon="148.9864014">
  <ele>668.67</ele>
  <time>2026-09-01T19:59:41Z</time>
  <course>296.09</course>
  <speed>1.0782393055347221</speed>
  <fix>3d</fix>
</trkpt>
<trkpt lat="-35.2750376" lon="148.9864023">
  <ele>669.06</ele>
  <time>2026-09-01T19:59:41Z</time>
  <course>296.52</course>
  <speed>1.02</speed>
  <fix>3d</fix>
</trkpt>
<trkpt lat="-35.2750366" lon="148.9864003">
  <ele>668.47</ele>
  <time>2026-09-01T19:59:41Z</time>
  <course>296.08</course>
  <speed>1.1317685275708986</speed>
  <fix>3d</fix>
</trkpt>
<trkpt lat="-35.2750376" lon="148.9864023">
  <ele>669.06</ele>
  <time>2026-09-01T19:59:41Z</time>
  <course>296.52</course>
  <speed>1.02</speed>
  <fix>3d</fix>
</trkpt>
<trkpt lat="-35.2750361" lon="148.9863992">
  <ele>668.27</ele>
  <time>2026-09-01T19:59:41Z</time>
  <course>296.07</course>
  <speed>1.1853269591129698</speed>
  <fix>3d</fix>
</trkpt>
<trkpt lat="-35.2750367" lon="148.9864002">
  <ele>668.66</ele>
  <time>2026-09-01T19:59:41Z</time>
  <course>296.16</course>
  <speed>1.13</speed>
  <fix>3d</fix>
</trkpt>
<trkpt lat="-35.2750356" lon="148.986398">
  <ele>668.07</ele>
  <time>2026-09-01T19:59:41Z</time>
  <course>296.06</course>
  <speed>1.2300406497347964</speed>
  <fix>3d</fix>
</trkpt>
<trkpt lat="-35.2750367" lon="148.9864002">
  <ele>668.66</ele>
  <time>2026-09-01T19:59:41Z</time>
  <course>296.16</course>
  <speed>1.13</speed>
  <fix>3d</fix>
</trkpt>
<trkpt lat="-35.2750351" lon="148.9863968">
  <ele>667.87</ele>
  <time>2026-09-01T19:59:41Z</time>
  <course>296.06</course>
  <speed>1.283627671873741</speed>
  <fix>3d</fix>
</trkpt>
<trkpt lat="-35.2750367" lon="148.9864002">
  <ele>668.66</ele>
  <time>2026-09-01T19:59:41Z</time>
  <course>296.16</course>
  <speed>1.13</speed>
  <fix>3d</fix>
</trkpt>
<trkpt lat="-35.2750346" lon="148.9863955">
  <ele>667.68</ele>
  <time>2026-09-01T19:59:41Z</time>
  <course>296.05</course>
  <speed>1.323782459469833</speed>
  <fix>3d</fix>
</trkpt>
<trkpt lat="-35.2750358" lon="148.9863978">
  <ele>668.26</ele>
  <time>2026-09-01T19:59:41Z</time>
  <course>295.87</course>
  <speed>1.24</speed>
  <fix>3d</fix>
</trkpt>
<trkpt lat="-35.2750341" lon="148.9863941">
  <ele>667.48</ele>
  <time>2026-09-01T19:59:41Z</time>
  <course>296.04</course>
  <speed>1.3595955280891445</speed>
  <fix>3d</fix>
</trkpt>
<trkpt lat="-35.2750358" lon="148.9863978">
  <ele>668.26</ele>
  <time>2026-09-01T19:59:41Z</time>
  <course>295.87</course>
  <speed>1.24</speed>
  <fix>3d</fix>
</trkpt>
<trkpt lat="-35.2750336" lon="148.9863927">
  <ele>667.29</ele>
  <time>2026-09-01T19:59:41Z</time>
  <course>296.03</course>
  <speed>1.3997856978837868</speed>
  <fix>3d</fix>
</trkpt>
<trkpt lat="-35.2750348" lon="148.9863952">
  <ele>667.86</ele>
  <time>2026-09-01T19:59:41Z</time>
  <course>295.64</course>
  <speed>1.33</speed>
  <fix>3d</fix>
</trkpt>
<trkpt lat="-35.275033" lon="148.9863913">
  <ele>667.09</ele>
  <time>2026-09-01T19:59:41Z</time>
  <course>296.02</course>
  <speed>1.4310835055998654</speed>
  <fix>3d</fix>
</trkpt>
<trkpt lat="-35.2750348" lon="148.9863952">
  <ele>667.86</ele>
  <time>2026-09-01T19:59:41Z</time>
  <course>295.64</course>
  <speed>1.33</speed>
  <fix>3d</fix>
</trkpt>
<trkpt lat="-35.2750325" lon="148.9863899">
  <ele>666.9</ele>
  <time>2026-09-01T19:59:41Z</time>
  <course>296.01</course>
  <speed>1.4534441853748632</speed>
  <fix>3d</fix>
</trkpt>
<trkpt lat="-35.2750337" lon="148.9863925">
  <ele>667.47</ele>
  <time>2026-09-01T19:59:41Z</time>
  <course>295.47</course>
  <speed>1.41</speed>
  <fix>3d</fix>
</trkpt>
<trkpt lat="-35.2750319" lon="148.9863884">
  <ele>666.7</ele>
  <time>2026-09-01T19:59:41Z</time>
  <course>296.01</course>
  <speed>1.4758048651498612</speed>
  <fix>3d</fix>
</trkpt>
<trkpt lat="-35.2750337" lon="148.9863925">
  <ele>667.47</ele>
  <time>2026-09-01T19:59:41Z</time>
  <course>295.47</course>
  <speed>1.41</speed>
  <fix>3d</fix>
</trkpt>
<trkpt lat="-35.2750313" lon="148.9863869">
  <ele>666.51</ele>
  <time>2026-09-01T19:59:41Z</time>
  <course>296.0</course>
  <speed>1.4981655449248592</speed>
  <fix>3d</fix>
</trkpt>
<trkpt lat="-35.2750326" lon="148.9863896">
  <ele>667.08</ele>
  <time>2026-09-01T19:59:41Z</time>
  <course>295.34</course>
  <speed>1.47</speed>
  <fix>3d</fix>
</trkpt>
<trkpt lat="-35.2750307" lon="148.9863854">
  <ele>666.31</ele>
  <time>2026-09-01T19:59:41Z</time>
  <course>296.0</course>
  <speed>1.5071164520368026</speed>
  <fix>3d</fix>
</trkpt>
<trkpt lat="-35.2750326" lon="148.9863896">
  <ele>667.08</ele>
  <time>2026-09-01T19:59:41Z</time>
  <course>295.34</course>
  <speed>1.47</speed>
  <fix>3d</fix>
</trkpt>
<trkpt lat="-35.2750301" lon="148.9863839">
  <ele>666.11</ele>
  <time>2026-09-01T19:59:41Z</time>
  <course>295.99</course>
  <speed>1.5160804727981954</speed>
  <fix>3d</fix>
</trkpt>
<trkpt lat="-35.2750315" lon="148.9863867">
  <ele>666.69</ele>
  <time>2026-09-01T19:59:41Z</time>
  <course>295.23</course>
  <speed>1.51</speed>
  <fix>3d</fix>
</trkpt>
<trkpt lat="-35.2750296" lon="148.9863824">
  <ele>665.92</ele>
  <time>2026-09-01T19:59:41Z</time>
  <course>295.99</course>
  <speed>1.5160804727981954</speed>
  <fix>3d</fix>
</trkpt>
<trkpt lat="-35.2750315" lon="148.9863867">
  <ele>666.69</ele>
  <time>2026-09-01T19:59:41Z</time>
  <course>295.23</course>
  <speed>1.51</speed>
  <fix>3d</fix>
</trkpt>
<trkpt lat="-35.275029" lon="148.9863808">
  <ele>665.72</ele>
  <time>2026-09-01T19:59:41Z</time>
  <course>295.99</course>
  <speed>1.5160804727981954</speed>
  <fix>3d</fix>
</trkpt>
<trkpt lat="-35.2750303" lon="148.9863836">
  <ele>666.29</ele>
  <time>2026-09-01T19:59:41Z</time>
  <course>295.14</course>
  <speed>1.54</speed>
  <fix>3d</fix>
</trkpt>
<trkpt lat="-35.2750284" lon="148.9863793">
  <ele>665.51</ele>
  <time>2026-09-01T19:59:41Z</time>
  <course>295.99</course>
  <speed>1.5160804727981954</speed>
  <fix>3d</fix>
</trkpt>
<trkpt lat="-35.2750303" lon="148.9863836">
  <ele>666.29</ele>
  <time>2026-09-01T19:59:41Z</time>
  <course>295.14</course>
  <speed>1.54</speed>
  <fix>3d</fix>
</trkpt>
<trkpt lat="-35.2750278" lon="148.9863778">
  <ele>665.31</ele>
  <time>2026-09-01T19:59:42Z</time>
  <course>295.97</course>
  <speed>1.5026975743641833</speed>
  <fix>3d</fix>
</trkpt>
<trkpt lat="-35.2750291" lon="148.9863805">
  <ele>665.9</ele>
  <time>2026-09-01T19:59:42Z</time>
  <course>295.06</course>
  <speed>1.54</speed>
  <fix>3d</fix>
</trkpt>
<trkpt lat="-35.2750272" lon="148.9863762">
  <ele>665.12</ele>
  <time>2026-09-01T19:59:42Z</time>
  <course>295.96</course>
  <speed>1.4893287078412205</speed>
  <fix>3d</fix>
</trkpt>
<trkpt lat="-35.2750291" lon="148.9863805">
  <ele>665.9</ele>
  <time>2026-09-01T19:59:42Z</time>
  <course>295.06</course>
  <speed>1.54</speed>
  <fix>3d</fix>
</trkpt>
<trkpt lat="-35.2750267" lon="148.9863747">
  <ele>664.91</ele>
  <time>2026-09-01T19:59:42Z</time>
  <course>295.95</course>
  <speed>1.46696966567138</speed>
  <fix>3d</fix>
</trkpt>
<trkpt lat="-35.275028" lon="148.9863775">
  <ele>665.5</ele>
  <time>2026-09-01T19:59:42Z</time>
  <course>295.0</course>
  <speed>1.52</speed>
  <fix>3d</fix>
</trkpt>
<trkpt lat="-35.2750261" lon="148.9863732">
  <ele>664.71</ele>
  <time>2026-09-01T19:59:42Z</time>
  <course>295.95</course>
  <speed>1.4446106741956464</speed>
  <fix>3d</fix>
</trkpt>
<trkpt lat="-35.2750268" lon="148.9863745">
  <ele>665.11</ele>
  <time>2026-09-01T19:59:42Z</time>
  <course>294.98</course>
  <speed>1.49</speed>
  <fix>3d</fix>
</trkpt>
<trkpt lat="-35.2750256" lon="148.9863718">
  <ele>664.51</ele>
  <time>2026-09-01T19:59:42Z</time>
  <course>295.96</course>
  <speed>1.4132586458253138</speed>
  <fix>3d</fix>
</trkpt>
<trkpt lat="-35.2750268" lon="148.9863745">
  <ele>665.11</ele>
  <time>2026-09-01T19:59:42Z</time>
  <course>294.98</course>
  <speed>1.49</speed>
  <fix>3d</fix>
</trkpt>
<trkpt lat="-35.275025" lon="148.9863704">
  <ele>664.31</ele>
  <time>2026-09-01T19:59:42Z</time>
  <course>295.97</course>
  <speed>1.377534028617805</speed>
  <fix>3d</fix>
</trkpt>
<trkpt lat="-35.2750257" lon="148.9863715">
  <ele>664.7</ele>
  <time>2026-09-01T19:59:42Z</time>
  <course>294.96</course>
  <speed>1.44</speed>
  <fix>3d</fix>
</trkpt>
<trkpt lat="-35.2750245" lon="148.986369">
  <ele>664.11</ele>
  <time>2026-09-01T19:59:42Z</time>
  <course>295.97</course>
  <speed>1.3461797799699713</speed>
  <fix>3d</fix>
</trkpt>
<trkpt lat="-35.2750257" lon="148.9863715">
  <ele>664.7</ele>
  <time>2026-09-01T19:59:42Z</time>
  <course>294.96</course>
  <speed>1.44</speed>
  <fix>3d</fix>
</trkpt>
<trkpt lat="-35.275024" lon="148.9863677">
  <ele>663.91</ele>
  <time>2026-09-01T19:59:42Z</time>
  <course>295.97</course>
  <speed>1.3014607178090316</speed>
  <fix>3d</fix>
</trkpt>
<trkpt lat="-35.2750246" lon="148.9863686">
  <ele>664.31</ele>
  <time>2026-09-01T19:59:42Z</time>
  <course>294.94</course>
  <speed>1.37</speed>
  <fix>3d</fix>
</trkpt>
<trkpt lat="-35.2750235" lon="148.9863663">
  <ele>663.71</ele>
  <time>2026-09-01T19:59:42Z</time>
  <course>295.98</course>
  <speed>1.2567418191498205</speed>
  <fix>3d</fix>
</trkpt>
<trkpt lat="-35.2750246" lon="148.9863686">
  <ele>664.31</ele>
  <time>2026-09-01T19:59:42Z</time>
  <course>294.94</course>
  <speed>1.37</speed>
  <fix>3d</fix>
</trkpt>
<trkpt lat="-35.275023" lon="148.9863651">
  <ele>663.52</ele>
  <time>2026-09-01T19:59:42Z</time>
  <course>295.98</course>
  <speed>1.212023102090055</speed>
  <fix>3d</fix>
</trkpt>
<trkpt lat="-35.2750236" lon="148.986366">
  <ele>663.91</ele>
  <time>2026-09-01T19:59:42Z</time>
  <course>294.93</course>
  <speed>1.29</speed>
  <fix>3d</fix>
</trkpt>
<trkpt lat="-35.2750226" lon="148.9863639">
  <ele>663.32</ele>
  <time>2026-09-01T19:59:42Z</time>
  <course>295.98</course>
  <speed>1.1583177456984763</speed>
  <fix>3d</fix>
</trkpt>
<trkpt lat="-35.2750236" lon="148.986366">
  <ele>663.91</ele>
  <time>2026-09-01T19:59:42Z</time>
  <course>294.93</course>
  <speed>1.29</speed>
  <fix>3d</fix>
</trkpt>
<trkpt lat="-35.2750221" lon="148.9863627">
  <ele>663.12</ele>
  <time>2026-09-01T19:59:42Z</time>
  <course>295.98</course>
  <speed>1.1002272492535348</speed>
  <fix>3d</fix>
</trkpt>
<trkpt lat="-35.2750227" lon="148.9863636">
  <ele>663.51</ele>
  <time>2026-09-01T19:59:42Z</time>
  <course>294.94</course>
  <speed>1.19</speed>
  <fix>3d</fix>
</trkpt>
<trkpt lat="-35.2750217" lon="148.9863616">
  <ele>662.93</ele>
  <time>2026-09-01T19:59:42Z</time>
  <course>295.98</course>
  <speed>1.0465180361560904</speed>
  <fix>3d</fix>
</trkpt>
<trkpt lat="-35.2750227" lon="148.9863636">
  <ele>663.51</ele>
  <time>2026-09-01T19:59:42Z</time>
  <course>294.94</course>
  <speed>1.19</speed>
  <fix>3d</fix>
</trkpt>
<trkpt lat="-35.2750213" lon="148.9863606">
  <ele>662.73</ele>
  <time>2026-09-01T19:59:42Z</time>
  <course>295.98</course>
  <speed>0.9928242543370907</speed>
  <fix>3d</fix>
</trkpt>
<trkpt lat="-35.2750218" lon="148.9863613">
  <ele>663.12</ele>
  <time>2026-09-01T19:59:42Z</time>
  <course>294.98</course>
  <speed>1.08</speed>
  <fix>3d</fix>
</trkpt>
<trkpt lat="-35.275021" lon="148.9863596">
  <ele>662.54</ele>
  <time>2026-09-01T19:59:42Z</time>
  <course>295.98</course>
  <speed>0.9347192091746055</speed>
  <fix>3d</fix>
</trkpt>
<trkpt lat="-35.2750218" lon="148.9863613">
  <ele>663.12</ele>
  <time>2026-09-01T19:59:42Z</time>
  <course>294.98</course>
  <speed>1.08</speed>
  <fix>3d</fix>
</trkpt>
<trkpt lat="-35.2750206" lon="148.9863587">
  <ele>662.34</ele>
  <time>2026-09-01T19:59:42Z</time>
  <course>295.98</course>
  <speed>0.872066511224918</speed>
  <fix>3d</fix>
</trkpt>
<trkpt lat="-35.2750218" lon="148.9863613">
  <ele>663.12</ele>
  <time>2026-09-01T19:59:42Z</time>
  <course>294.98</course>
  <speed>1.08</speed>
  <fix>3d</fix>
</trkpt>
<trkpt lat="-35.2750203" lon="148.9863578">
  <ele>662.14</ele>
  <time>2026-09-01T19:59:42Z</time>
  <course>295.98</course>
  <speed>0.8139410298049853</speed>
  <fix>3d</fix>
</trkpt>
<trkpt lat="-35.275021" lon="148.9863592">
  <ele>662.72</ele>
  <time>2026-09-01T19:59:42Z</time>
  <course>295.04</course>
  <speed>0.97</speed>
  <fix>3d</fix>
</trkpt>
<trkpt lat="-35.27502" lon="148.986357">
  <ele>661.95</ele>
  <time>2026-09-01T19:59:42Z</time>
  <course>295.98</course>
  <speed>0.7468600939935136</speed>
  <fix>3d</fix>
</trkpt>
<trkpt lat="-35.275021" lon="148.9863592">
  <ele>662.72</ele>
  <time>2026-09-01T19:59:42Z</time>
  <course>295.04</course>
  <speed>0.97</speed>
  <fix>3d</fix>
</trkpt>
<trkpt lat="-35.2750197" lon="148.9863562">
  <ele>661.75</ele>
  <time>2026-09-01T19:59:42Z</time>
  <course>295.99</course>
  <speed>0.6931810730249349</speed>
  <fix>3d</fix>
</trkpt>
<trkpt lat="-35.2750203" lon="148.9863574">
  <ele>662.32</ele>
  <time>2026-09-01T19:59:42Z</time>
  <course>295.13</course>
  <speed>0.85</speed>
  <fix>3d</fix>
</trkpt>
<trkpt lat="-35.2750194" lon="148.9863555">
  <ele>661.55</ele>
  <time>2026-09-01T19:59:42Z</time>
  <course>295.99</course>
  <speed>0.6260990336999411</speed>
  <fix>3d</fix>
</trkpt>
<trkpt lat="-35.2750203" lon="148.9863574">
  <ele>662.32</ele>
  <time>2026-09-01T19:59:42Z</time>
  <course>295.13</course>
  <speed>0.85</speed>
  <fix>3d</fix>
</trkpt>
<trkpt lat="-35.2750192" lon="148.9863549">
  <ele>661.35</ele>
  <time>2026-09-01T19:59:42Z</time>
  <course>295.99</course>
  <speed>0.5635601121442149</speed>
  <fix>3d</fix>
</trkpt>
<trkpt lat="-35.2750197" lon="148.9863558">
  <ele>661.92</ele>
  <time>2026-09-01T19:59:42Z</time>
  <course>295.24</course>
  <speed>0.72</speed>
  <fix>3d</fix>
</trkpt>
<trkpt lat="-35.275019" lon="148.9863543">
  <ele>661.15</ele>
  <time>2026-09-01T19:59:42Z</time>
  <course>296.0</course>
  <speed>0.5053711507397312</speed>
  <fix>3d</fix>
</trkpt>
<trkpt lat="-35.2750197" lon="148.9863558">
  <ele>661.92</ele>
  <time>2026-09-01T19:59:42Z</time>
  <course>295.24</course>
  <speed>0.72</speed>
  <fix>3d</fix>
</trkpt>
<trkpt lat="-35.2750188" lon="148.9863538">
  <ele>660.94</ele>
  <time>2026-09-01T19:59:42Z</time>
  <course>296.0</course>
  <speed>0.45177427992306074</speed>
  <fix>3d</fix>
</trkpt>
<trkpt lat="-35.2750192" lon="148.9863545">
  <ele>661.52</ele>
  <time>2026-09-01T19:59:42Z</time>
  <course>295.4</course>
  <speed>0.6</speed>
  <fix>3d</fix>
</trkpt>
<trkpt lat="-35.2750186" lon="148.9863534">
  <ele>660.74</ele>
  <time>2026-09-01T19:59:42Z</time>
  <course>296.0</course>
  <speed>0.3935733730830886</speed>
  <fix>3d</fix>
</trkpt>
<trkpt lat="-35.2750188" lon="148.9863534">
  <ele>661.12</ele>
  <time>2026-09-01T19:59:42Z</time>
  <course>295.62</course>
  <speed>0.48</speed>
  <fix>3d</fix>
</trkpt>
<trkpt lat="-35.2750184" lon="148.9863529">
  <ele>660.55</ele>
  <time>2026-09-01T19:59:42Z</time>
  <course>296.01</course>
  <speed>0.34</speed>
  <fix>3d</fix>
</trkpt>
<trkpt lat="-35.2750188" lon="148.9863534">
  <ele>661.12</ele>
  <time>2026-09-01T19:59:42Z</time>
  <course>295.62</course>
  <speed>0.48</speed>
  <fix>3d</fix>
</trkpt>
<trkpt lat="-35.2750183" lon="148.9863526">
  <ele>660.35</ele>
  <time>2026-09-01T19:59:42Z</time>
  <course>296.02</course>
  <speed>0.28653097563788804</speed>
  <fix>3d</fix>
</trkpt>
<trkpt lat="-35.2750184" lon="148.9863525">
  <ele>660.72</ele>
  <time>2026-09-01T19:59:42Z</time>
  <course>295.9</course>
  <speed>0.37</speed>
  <fix>3d</fix>
</trkpt>
<trkpt lat="-35.2750182" lon="148.9863523">
  <ele>660.15</ele>
  <time>2026-09-01T19:59:42Z</time>
  <course>296.03</course>
  <speed>0.24186773244895649</speed>
  <fix>3d</fix>
</trkpt>
<trkpt lat="-35.2750184" lon="148.9863525">
  <ele>660.72</ele>
  <time>2026-09-01T19:59:42Z</time>
  <course>295.9</course>
  <speed>0.37</speed>
  <fix>3d</fix>
</trkpt>
<trkpt lat="-35.2750181" lon="148.9863521">
  <ele>659.95</ele>
  <time>2026-09-01T19:59:42Z</time>
  <course>296.04</course>
  <speed>0.1972308292331602</speed>
  <fix>3d</fix>
</trkpt>
<trkpt lat="-35.2750182" lon="148.9863519">
  <ele>660.32</ele>
  <time>2026-09-01T19:59:42Z</time>
  <course>296.27</course>
  <speed>0.27</speed>
  <fix>3d</fix>
</trkpt>
<trkpt lat="-35.275018" lon="148.9863518">
  <ele>659.76</ele>
  <time>2026-09-01T19:59:42Z</time>
  <course>296.06</course>
  <speed>0.15264337522473748</speed>
  <fix>3d</fix>
</trkpt>
<trkpt lat="-35.2750182" lon="148.9863519">
  <ele>660.32</ele>
  <time>2026-09-01T19:59:42Z</time>
  <course>296.27</course>
  <speed>0.27</speed>
  <fix>3d</fix>
</trkpt>
<trkpt lat="-35.2750179" lon="148.9863517">
  <ele>659.57</ele>
  <time>2026-09-01T19:59:42Z</time>
  <course>296.08</course>
  <speed>0.10816653826391968</speed>
  <fix>3d</fix>
</trkpt>
<trkpt lat="-35.275018" lon="148.9863515">
  <ele>659.92</ele>
  <time>2026-09-01T19:59:42Z</time>
  <course>296.72</course>
  <speed>0.18</speed>
  <fix>3d</fix>
</trkpt>
<trkpt lat="-35.2750179" lon="148.9863516">
  <ele>659.38</ele>
  <time>2026-09-01T19:59:42Z</time>
  <course>296.12</course>
  <speed>0.06403124237432849</speed>
  <fix>3d</fix>
</trkpt>
<trkpt lat="-35.275018" lon="148.9863515">
  <ele>659.92</ele>
  <time>2026-09-01T19:59:42Z</time>
  <course>296.72</course>
  <speed>0.18</speed>
  <fix>3d</fix>
</trkpt>
<trkpt lat="-35.2750179" lon="148.9863515">
  <ele>659.21</ele>
  <time>2026-09-01T19:59:42Z</time>
  <course>296.21</course>
  <speed>0.022360679774997897</speed>
  <fix>3d</fix>
</trkpt>
<trkpt lat="-35.2750179" lon="148.9863512">
  <ele>659.55</ele>
  <time>2026-09-01T19:59:42Z</time>
  <course>295.94</course>
  <speed>0.09</speed>
  <fix>3d</fix>
</trkpt>
<trkpt lat="-35.2750179" lon="148.9863515">
  <ele>659.06</ele>
  <time>2026-09-01T19:59:42Z</time>
  <course>296.28</course>
  <speed>0.02</speed>
  <fix>3d</fix>
</trkpt>
<trkpt lat="-35.2750179" lon="148.9863512">
  <ele>659.55</ele>
  <time>2026-09-01T19:59:42Z</time>
  <course>295.94</course>
  <speed>0.09</speed>
  <fix>3d</fix>
</trkpt>
<trkpt lat="-35.2750178" lon="148.9863514">
  <ele>658.91</ele>
  <time>2026-09-01T19:59:42Z</time>
  <course>296.33</course>
  <speed>0.06082762530298219</speed>
  <fix>3d</fix>
</trkpt>
<trkpt lat="-35.2750179" lon="148.9863511">
  <ele>659.23</ele>
  <time>2026-09-01T19:59:42Z</time>
  <course>280.05</course>
  <speed>0.01</speed>
  <fix>3d</fix>
</trkpt>
<trkpt lat="-35.2750178" lon="148.9863514">
  <ele>658.79</ele>
  <time>2026-09-01T19:59:42Z</time>
  <course>296.34</course>
  <speed>0.09486832980505139</speed>
  <fix>3d</fix>
</trkpt>
<trkpt lat="-35.2750179" lon="148.9863511">
  <ele>659.23</ele>
  <time>2026-09-01T19:59:42Z</time>
  <course>280.05</course>
  <speed>0.01</speed>
  <fix>3d</fix>
</trkpt>
<trkpt lat="-35.2750178" lon="148.9863515">
  <ele>658.68</ele>
  <time>2026-09-01T19:59:42Z</time>
  <course>296.32</course>
  <speed>0.13601470508735444</speed>
  <fix>3d</fix>
</trkpt>
<trkpt lat="-35.2750179" lon="148.9863511">
  <ele>658.96</ele>
  <time>2026-09-01T19:59:42Z</time>
  <course>118.17</course>
  <speed>0.07</speed>
  <fix>3d</fix>
</trkpt>
<trkpt lat="-35.2750179" lon="148.9863516">
  <ele>658.59</ele>
  <time>2026-09-01T19:59:42Z</time>
  <course>296.28</course>
  <speed>0.18027756377319945</speed>
  <fix>3d</fix>
</trkpt>
<trkpt lat="-35.2750179" lon="148.9863511">
  <ele>658.96</ele>
  <time>2026-09-01T19:59:42Z</time>
  <course>118.17</course>
  <speed>0.07</speed>
  <fix>3d</fix>
</trkpt>
<trkpt lat="-35.275018" lon="148.9863518">
  <ele>658.53</ele>
  <time>2026-09-01T19:59:42Z</time>
  <course>296.23</course>
  <speed>0.21540659228538014</speed>
  <fix>3d</fix>
</trkpt>
<trkpt lat="-35.2750179" lon="148.9863513">
  <ele>658.77</ele>
  <time>2026-09-01T19:59:42Z</time>
  <course>116.69</course>
  <speed>0.15</speed>
  <fix>3d</fix>
</trkpt>
<trkpt lat="-35.2750181" lon="148.986352">
  <ele>658.48</ele>
  <time>2026-09-01T19:59:42Z</time>
  <course>296.18</course>
  <speed>0.24698178070456936</speed>
  <fix>3d</fix>
</trkpt>
<trkpt lat="-35.2750179" lon="148.9863513">
  <ele>658.77</ele>
  <time>2026-09-01T19:59:42Z</time>
  <course>116.69</course>
  <speed>0.15</speed>
  <fix>3d</fix>
</trkpt>
<trkpt lat="-35.2750181" lon="148.9863523">
  <ele>658.45</ele>
  <time>2026-09-01T19:59:42Z</time>
  <course>296.13</course>
  <speed>0.2823118842698621</speed>
  <fix>3d</fix>
</trkpt>
<trkpt lat="-35.275018" lon="148.9863517">
  <ele>658.65</ele>
  <time>2026-09-01T19:59:42Z</time>
  <course>116.15</course>
  <speed>0.23</speed>
  <fix>3d</fix>
</trkpt>
<trkpt lat="-35.2750182" lon="148.9863525">
  <ele>658.43</ele>
  <time>2026-09-01T19:59:42Z</time>
  <course>296.1</course>
  <speed>0.3138470965295043</speed>
  <fix>3d</fix>
</trkpt>
<trkpt lat="-35.275018" lon="148.9863517">
  <ele>658.65</ele>
  <time>2026-09-01T19:59:42Z</time>
  <course>116.15</course>
  <speed>0.23</speed>
  <fix>3d</fix>
</trkpt>
<trkpt lat="-35.2750184" lon="148.9863528">
  <ele>658.43</ele>
  <time>2026-09-01T19:59:42Z</time>
  <course>296.08</course>
  <speed>0.33241540277189324</speed>
  <fix>3d</fix>
</trkpt>
<trkpt lat="-35.2750183" lon="148.9863522">
  <ele>658.59</ele>
  <time>2026-09-01T19:59:42Z</time>
  <course>115.85</course>
  <speed>0.28</speed>
  <fix>3d</fix>
</trkpt>
<trkpt lat="-35.2750185" lon="148.9863531">
  <ele>658.44</ele>
  <time>2026-09-01T19:59:42Z</time>
  <course>296.07</course>
  <speed>0.3453983207834109</speed>
  <fix>3d</fix>
</trkpt>
<trkpt lat="-35.2750183" lon="148.9863522">
  <ele>658.59</ele>
  <time>2026-09-01T19:59:42Z</time>
  <course>115.85</course>
  <speed>0.28</speed>
  <fix>3d</fix>
</trkpt>
<trkpt lat="-35.2750186" lon="148.9863535">
  <ele>658.45</ele>
  <time>2026-09-01T19:59:42Z</time>
  <course>296.08</course>
  <speed>0.3676955262170047</speed>
  <fix>3d</fix>
</trkpt>
<trkpt lat="-35.2750185" lon="148.9863528">
  <ele>658.58</ele>
  <time>2026-09-01T19:59:42Z</time>
  <course>115.72</course>
  <speed>0.33</speed>
  <fix>3d</fix>
</trkpt>
<trkpt lat="-35.2750187" lon="148.9863538">
  <ele>658.47</ele>
  <time>2026-09-01T19:59:42Z</time>
  <course>296.1</course>
  <speed>0.3676955262170047</speed>
  <fix>3d</fix>
</trkpt>
<trkpt lat="-35.2750185" lon="148.9863528">
  <ele>658.58</ele>
  <time>2026-09-01T19:59:42Z</time>
  <course>115.72</course>
  <speed>0.33</speed>
  <fix>3d</fix>
</trkpt>
<trkpt lat="-35.2750189" lon="148.9863542">
  <ele>658.49</ele>
  <time>2026-09-01T19:59:42Z</time>
  <course>296.12</course>
  <speed>0.38078865529319544</speed>
  <fix>3d</fix>
</trkpt>
<trkpt lat="-35.2750188" lon="148.9863535">
  <ele>658.61</ele>
  <time>2026-09-01T19:59:42Z</time>
  <course>115.75</course>
  <speed>0.35</speed>
  <fix>3d</fix>
</trkpt>
<trkpt lat="-35.275019" lon="148.9863545">
  <ele>658.51</ele>
  <time>2026-09-01T19:59:42Z</time>
  <course>296.15</course>
  <speed>0.38078865529319544</speed>
  <fix>3d</fix>
</trkpt>
<trkpt lat="-35.2750188" lon="148.9863535">
  <ele>658.61</ele>
  <time>2026-09-01T19:59:42Z</time>
  <course>115.75</course>
  <speed>0.35</speed>
  <fix>3d</fix>
</trkpt>
<trkpt lat="-35.2750191" lon="148.9863549">
  <ele>658.53</ele>
  <time>2026-09-01T19:59:42Z</time>
  <course>296.16</course>
  <speed>0.39</speed>
  <fix>3d</fix>
</trkpt>
<trkpt lat="-35.275019" lon="148.9863542">
  <ele>658.65</ele>
  <time>2026-09-01T19:59:42Z</time>
  <course>115.82</course>
  <speed>0.36</speed>
  <fix>3d</fix>
</trkpt>
<trkpt lat="-35.2750193" lon="148.9863552">
  <ele>658.54</ele>
  <time>2026-09-01T19:59:42Z</time>
  <course>296.17</course>
  <speed>0.38078865529319544</speed>
  <fix>3d</fix>
</trkpt>
<trkpt lat="-35.275019" lon="148.9863542">
  <ele>658.65</ele>
  <time>2026-09-01T19:59:42Z</time>
  <course>115.82</course>
  <speed>0.36</speed>
  <fix>3d</fix>
</trkpt>
<trkpt lat="-35.2750194" lon="148.9863556">
  <ele>658.56</ele>
  <time>2026-09-01T19:59:42Z</time>
  <course>296.17</course>
  <speed>0.38078865529319544</speed>
  <fix>3d</fix>
</trkpt>
<trkpt lat="-35.2750193" lon="148.9863549">
  <ele>658.68</ele>
  <time>2026-09-01T19:59:42Z</time>
  <course>115.85</course>
  <speed>0.37</speed>
  <fix>3d</fix>
</trkpt>
<trkpt lat="-35.2750195" lon="148.9863559">
  <ele>658.56</ele>
  <time>2026-09-01T19:59:42Z</time>
  <course>296.16</course>
  <speed>0.3769615364994153</speed>
  <fix>3d</fix>
</trkpt>
<trkpt lat="-35.2750193" lon="148.9863549">
  <ele>658.68</ele>
  <time>2026-09-01T19:59:42Z</time>
  <course>115.85</course>
  <speed>0.37</speed>
  <fix>3d</fix>
</trkpt>
<trkpt lat="-35.2750197" lon="148.9863563">
  <ele>658.57</ele>
  <time>2026-09-01T19:59:42Z</time>
  <course>296.14</course>
  <speed>0.3676955262170047</speed>
  <fix>3d</fix>
</trkpt>
<trkpt lat="-35.2750196" lon="148.9863557">
  <ele>658.69</ele>
  <time>2026-09-01T19:59:42Z</time>
  <course>115.86</course>
  <speed>0.36</speed>
  <fix>3d</fix>
</trkpt>
<trkpt lat="-35.2750198" lon="148.9863566">
  <ele>658.57</ele>
  <time>2026-09-01T19:59:42Z</time>
  <course>296.12</course>
  <speed>0.3584689665786984</speed>
  <fix>3d</fix>
</trkpt>
<trkpt lat="-35.2750196" lon="148.9863557">
  <ele>658.69</ele>
  <time>2026-09-01T19:59:42Z</time>
  <course>115.86</course>
  <speed>0.36</speed>
  <fix>3d</fix>
</trkpt>
<trkpt lat="-35.2750199" lon="148.986357">
  <ele>658.56</ele>
  <time>2026-09-01T19:59:42Z</time>
  <course>296.1</course>
  <speed>0.354682957019364</speed>
  <fix>3d</fix>
</trkpt>
<trkpt lat="-35.2750199" lon="148.9863564">
  <ele>658.68</ele>
  <time>2026-09-01T19:59:42Z</time>
  <course>115.85</course>
  <speed>0.35</speed>
  <fix>3d</fix>
</trkpt>
<trkpt lat="-35.2750201" lon="148.9863573">
  <ele>658.55</ele>
  <time>2026-09-01T19:59:42Z</time>
  <course>296.09</course>
  <speed>0.3453983207834109</speed>
  <fix>3d</fix>
</trkpt>
<trkpt lat="-35.2750199" lon="148.9863564">
  <ele>658.68</ele>
  <time>2026-09-01T19:59:42Z</time>
  <course>115.85</course>
  <speed>0.35</speed>
  <fix>3d</fix>
</trkpt>
<trkpt lat="-35.2750202" lon="148.9863576">
  <ele>658.54</ele>
  <time>2026-09-01T19:59:42Z</time>
  <course>296.08</course>
  <speed>0.33241540277189324</speed>
  <fix>3d</fix>
</trkpt>
<trkpt lat="-35.2750202" lon="148.9863571">
  <ele>658.67</ele>
  <time>2026-09-01T19:59:42Z</time>
  <course>115.84</course>
  <speed>0.33</speed>
  <fix>3d</fix>
</trkpt>
<trkpt lat="-35.2750203" lon="148.9863579">
  <ele>658.53</ele>
  <time>2026-09-01T19:59:42Z</time>
  <course>296.07</course>
  <speed>0.3231098884280702</speed>
  <fix>3d</fix>
</trkpt>
<trkpt lat="-35.2750202" lon="148.9863571">
  <ele>658.67</ele>
  <time>2026-09-01T19:59:42Z</time>
  <course>115.84</course>
  <speed>0.33</speed>
  <fix>3d</fix>
</trkpt>
<trkpt lat="-35.2750204" lon="148.9863582">
  <ele>658.51</ele>
  <time>2026-09-01T19:59:42Z</time>
  <course>296.07</course>
  <speed>0.3101612483854165</speed>
  <fix>3d</fix>
</trkpt>
<trkpt lat="-35.2750204" lon="148.9863576">
  <ele>658.64</ele>
  <time>2026-09-01T19:59:42Z</time>
  <course>115.83</course>
  <speed>0.31</speed>
  <fix>3d</fix>
</trkpt>
<trkpt lat="-35.2750205" lon="148.9863585">
  <ele>658.5</ele>
  <time>2026-09-01T19:59:42Z</time>
  <course>296.07</course>
  <speed>0.30083217912982646</speed>
  <fix>3d</fix>
</trkpt>
<trkpt lat="-35.2750204" lon="148.9863576">
  <ele>658.64</ele>
  <time>2026-09-01T19:59:42Z</time>
  <course>115.83</course>
  <speed>0.31</speed>
  <fix>3d</fix>
</trkpt>
<trkpt lat="-35.2750206" lon="148.9863588">
  <ele>658.48</ele>
  <time>2026-09-01T19:59:42Z</time>
  <course>296.08</course>
  <speed>0.2879236009777594</speed>
  <fix>3d</fix>
</trkpt>
<trkpt lat="-35.2750207" lon="148.9863583">
  <ele>658.61</ele>
  <time>2026-09-01T19:59:42Z</time>
  <course>115.83</course>
  <speed>0.29</speed>
  <fix>3d</fix>
</trkpt>
<trkpt lat="-35.2750207" lon="148.986359">
  <ele>658.47</ele>
  <time>2026-09-01T19:59:42Z</time>
  <course>296.08</course>
  <speed>0.2785677655436824</speed>
  <fix>3d</fix>
</trkpt>
<trkpt lat="-35.2750207" lon="148.9863583">
  <ele>658.61</ele>
  <time>2026-09-01T19:59:42Z</time>
  <course>115.83</course>
  <speed>0.29</speed>
  <fix>3d</fix>
</trkpt>
<trkpt lat="-35.2750208" lon="148.9863593">
  <ele>658.45</ele>
  <time>2026-09-01T19:59:42Z</time>
  <course>296.08</course>
  <speed>0.26570660511172844</speed>
  <fix>3d</fix>
</trkpt>
<trkpt lat="-35.2750209" lon="148.9863588">
  <ele>658.58</ele>
  <time>2026-09-01T19:59:42Z</time>
  <course>115.74</course>
  <speed>0.27</speed>
  <fix>3d</fix>
</trkpt>
<trkpt lat="-35.2750209" lon="148.9863595">
  <ele>658.44</ele>
  <time>2026-09-01T19:59:42Z</time>
  <course>296.07</course>
  <speed>0.25632011235952595</speed>
  <fix>3d</fix>
</trkpt>
<trkpt lat="-35.2750209" lon="148.9863588">
  <ele>658.58</ele>
  <time>2026-09-01T19:59:42Z</time>
  <course>115.74</course>
  <speed>0.27</speed>
  <fix>3d</fix>
</trkpt>
<trkpt lat="-35.275021" lon="148.9863598">
  <ele>658.44</ele>
  <time>2026-09-01T19:59:42Z</time>
  <course>296.06</course>
  <speed>0.24351591323771843</speed>
  <fix>3d</fix>
</trkpt>
<trkpt lat="-35.275021" lon="148.9863594">
  <ele>658.56</ele>
  <time>2026-09-01T19:59:42Z</time>
  <course>115.45</course>
  <speed>0.24</speed>
  <fix>3d</fix>
</trkpt>
<trkpt lat="-35.2750211" lon="148.98636">
  <ele>658.43</ele>
  <time>2026-09-01T19:59:42Z</time>
  <course>296.04</course>
  <speed>0.2308679276123039</speed>
  <fix>3d</fix>
</trkpt>
<trkpt lat="-35.275021" lon="148.9863594">
  <ele>658.56</ele>
  <time>2026-09-01T19:59:42Z</time>
  <course>115.45</course>
  <speed>0.24</speed>
  <fix>3d</fix>
</trkpt>
<trkpt lat="-35.2750212" lon="148.9863602">
  <ele>658.43</ele>
  <time>2026-09-01T19:59:42Z</time>
  <course>296.01</course>
  <speed>0.21189620100417092</speed>
  <fix>3d</fix>
</trkpt>
<trkpt lat="-35.2750213" lon="148.9863598">
  <ele>658.54</ele>
  <time>2026-09-01T19:59:42Z</time>
  <course>114.97</course>
  <speed>0.22</speed>
  <fix>3d</fix>
</trkpt>
<trkpt lat="-35.2750213" lon="148.9863604">
  <ele>658.43</ele>
  <time>2026-09-01T19:59:42Z</time>
  <course>295.99</course>
  <speed>0.19924858845171275</speed>
  <fix>3d</fix>
</trkpt>
<trkpt lat="-35.2750213" lon="148.9863598">
  <ele>658.54</ele>
  <time>2026-09-01T19:59:42Z</time>
  <course>114.97</course>
  <speed>0.22</speed>
  <fix>3d</fix>
</trkpt>
<trkpt lat="-35.2750213" lon="148.9863606">
  <ele>658.43</ele>
  <time>2026-09-01T19:59:42Z</time>
  <course>295.96</course>
  <speed>0.18681541692269404</speed>
  <fix>3d</fix>
</trkpt>
<trkpt lat="-35.2750214" lon="148.9863603">
  <ele>658.53</ele>
  <time>2026-09-01T19:59:42Z</time>
  <course>114.32</course>
  <speed>0.19</speed>
  <fix>3d</fix>
</trkpt>
<trkpt lat="-35.2750214" lon="148.9863608">
  <ele>658.43</ele>
  <time>2026-09-01T19:59:42Z</time>
  <course>295.94</course>
  <speed>0.17464249196572978</speed>
  <fix>3d</fix>
</trkpt>
<trkpt lat="-35.2750214" lon="148.9863603">
  <ele>658.53</ele>
  <time>2026-09-01T19:59:42Z</time>
  <course>114.32</course>
  <speed>0.19</speed>
  <fix>3d</fix>
</trkpt>
<trkpt lat="-35.2750214" lon="148.9863609">
  <ele>658.43</ele>
  <time>2026-09-01T19:59:42Z</time>
  <course>295.92</course>
  <speed>0.15524174696260024</speed>
  <fix>3d</fix>
</trkpt>
<trkpt lat="-35.2750215" lon="148.9863606">
  <ele>658.53</ele>
  <time>2026-09-01T19:59:42Z</time>
  <course>113.34</course>
  <speed>0.16</speed>
  <fix>3d</fix>
</trkpt>
<trkpt lat="-35.2750215" lon="148.9863611">
  <ele>658.43</ele>
  <time>2026-09-01T19:59:42Z</time>
  <course>295.9</course>
  <speed>0.14317821063276354</speed>
  <fix>3d</fix>
</trkpt>
<trkpt lat="-35.2750215" lon="148.9863606">
  <ele>658.53</ele>
  <time>2026-09-01T19:59:42Z</time>
  <course>113.34</course>
  <speed>0.16</speed>
  <fix>3d</fix>
</trkpt>
<trkpt lat="-35.2750215" lon="148.9863612">
  <ele>658.43</ele>
  <time>2026-09-01T19:59:42Z</time>
  <course>295.89</course>
  <speed>0.13152946437965907</speed>
  <fix>3d</fix>
</trkpt>
<trkpt lat="-35.2750216" lon="148.9863609">
  <ele>658.53</ele>
  <time>2026-09-01T19:59:42Z</time>
  <course>111.93</course>
  <speed>0.13</speed>
  <fix>3d</fix>
</trkpt>
<trkpt lat="-35.2750215" lon="148.9863613">
  <ele>658.43</ele>
  <time>2026-09-01T19:59:42Z</time>
  <course>295.89</course>
  <speed>0.12165525060596438</speed>
  <fix>3d</fix>
</trkpt>
<trkpt lat="-35.2750216" lon="148.9863609">
  <ele>658.53</ele>
  <time>2026-09-01T19:59:42Z</time>
  <course>111.93</course>
  <speed>0.13</speed>
  <fix>3d</fix>
</trkpt>
<trkpt lat="-35.2750216" lon="148.9863614">
  <ele>658.43</ele>
  <time>2026-09-01T19:59:42Z</time>
  <course>295.88</course>
  <speed>0.1004987562112089</speed>
  <fix>3d</fix>
</trkpt>
<trkpt lat="-35.2750217" lon="148.9863611">
  <ele>658.54</ele>
  <time>2026-09-01T19:59:42Z</time>
  <course>109.94</course>
  <speed>0.1</speed>
  <fix>3d</fix>
</trkpt>
<trkpt lat="-35.2750216" lon="148.9863615">
  <ele>658.44</ele>
  <time>2026-09-01T19:59:42Z</time>
  <course>295.88</course>
  <speed>0.09</speed>
  <fix>3d</fix>
</trkpt>
<trkpt lat="-35.2750217" lon="148.9863611">
  <ele>658.54</ele>
  <time>2026-09-01T19:59:42Z</time>
  <course>109.94</course>
  <speed>0.1</speed>
  <fix>3d</fix>
</trkpt>
<trkpt lat="-35.2750216" lon="148.9863616">
  <ele>658.44</ele>
  <time>2026-09-01T19:59:42Z</time>
  <course>295.88</course>
  <speed>0.08</speed>
  <fix>3d</fix>
</trkpt>
<trkpt lat="-35.2750218" lon="148.9863614">
  <ele>658.54</ele>
  <time>2026-09-01T19:59:42Z</time>
  <course>106.74</course>
  <speed>0.07</speed>
  <fix>3d</fix>
</trkpt>
<trkpt lat="-35.2750216" lon="148.9863616">
  <ele>658.44</ele>
  <time>2026-09-01T19:59:42Z</time>
  <course>295.88</course>
  <speed>0.07</speed>
  <fix>3d</fix>
</trkpt>
<trkpt lat="-35.2750218" lon="148.9863614">
  <ele>658.54</ele>
  <time>2026-09-01T19:59:42Z</time>
  <course>106.74</course>
  <speed>0.07</speed>
  <fix>3d</fix>
</trkpt>
<trkpt lat="-35.2750216" lon="148.9863617">
  <ele>658.44</ele>
  <time>2026-09-01T19:59:42Z</time>
  <course>295.89</course>
  <speed>0.06082762530298219</speed>
  <fix>3d</fix>
</trkpt>
<trkpt lat="-35.2750218" lon="148.9863615">
  <ele>658.54</ele>
  <time>2026-09-01T19:59:42Z</time>
  <course>100.36</course>
  <speed>0.05</speed>
  <fix>3d</fix>
</trkpt>
<trkpt lat="-35.2750216" lon="148.9863617">
  <ele>658.44</ele>
  <time>2026-09-01T19:59:42Z</time>
  <course>295.89</course>
  <speed>0.0412310562561766</speed>
  <fix>3d</fix>
</trkpt>
<trkpt lat="-35.2750218" lon="148.9863615">
  <ele>658.54</ele>
  <time>2026-09-01T19:59:42Z</time>
  <course>100.36</course>
  <speed>0.05</speed>
  <fix>3d</fix>
</trkpt>
<trkpt lat="-35.2750216" lon="148.9863618">
  <ele>658.43</ele>
  <time>2026-09-01T19:59:42Z</time>
  <course>295.88</course>
  <speed>0.03605551275463989</speed>
  <fix>3d</fix>
</trkpt>
<trkpt lat="-35.2750219" lon="148.9863615">
  <ele>658.54</ele>
  <time>2026-09-01T19:59:42Z</time>
  <course>82.11</course>
  <speed>0.02</speed>
  <fix>3d</fix>
</trkpt>
<trkpt lat="-35.2750216" lon="148.9863618">
  <ele>658.43</ele>
  <time>2026-09-01T19:59:42Z</time>
  <course>295.87</course>
  <speed>0.0282842712474619</speed>
  <fix>3d</fix>
</trkpt>
<trkpt lat="-35.2750219" lon="148.9863615">
  <ele>658.54</ele>
  <time>2026-09-01T19:59:42Z</time>
  <course>82.11</course>
  <speed>0.02</speed>
  <fix>3d</fix>
</trkpt>
<trkpt lat="-35.2750216" lon="148.9863618">
  <ele>658.43</ele>
  <time>2026-09-01T19:59:42Z</time>
  <course>295.87</course>
  <speed>0.0316227766016838</speed>
  <fix>3d</fix>
</trkpt>
<trkpt lat="-35.2750218" lon="148.9863616">
  <ele>658.54</ele>
  <time>2026-09-01T19:59:42Z</time>
  <course>8.04</course>
  <speed>0.01</speed>
  <fix>3d</fix>
</trkpt>
<trkpt lat="-35.2750216" lon="148.9863617">
  <ele>658.42</ele>
  <time>2026-09-01T19:59:42Z</time>
  <course>295.86</course>
  <speed>0.03</speed>
  <fix>3d</fix>
</trkpt>
<trkpt lat="-35.2750218" lon="148.9863616">
  <ele>658.54</ele>
  <time>2026-09-01T19:59:42Z</time>
  <course>8.04</course>
  <speed>0.01</speed>
  <fix>3d</fix>
</trkpt>
<trkpt lat="-35.2750216" lon="148.9863617">
  <ele>658.42</ele>
  <time>2026-09-01T19:59:42Z</time>
  <course>295.86</course>
  <speed>0.04</speed>
  <fix>3d</fix>
</trkpt>
<trkpt lat="-35.2750218" lon="148.9863617">
  <ele>658.53</ele>
  <time>2026-09-01T19:59:42Z</time>
  <course>321.29</course>
  <speed>0.03</speed>
  <fix>3d</fix>
</trkpt>
<trkpt lat="-35.2750216" lon="148.9863617">
  <ele>658.42</ele>
  <time>2026-09-01T19:59:42Z</time>
  <course>295.86</course>
  <speed>0.0412310562561766</speed>
  <fix>3d</fix>
</trkpt>
<trkpt lat="-35.2750218" lon="148.9863617">
  <ele>658.53</ele>
  <time>2026-09-01T19:59:42Z</time>
  <course>321.29</course>
  <speed>0.03</speed>
  <fix>3d</fix>
</trkpt>
<trkpt lat="-35.2750216" lon="148.9863617">
  <ele>658.42</ele>
  <time>2026-09-01T19:59:42Z</time>
  <course>295.87</course>
  <speed>0.053851648071345036</speed>
  <fix>3d</fix>
</trkpt>
<trkpt lat="-35.2750218" lon="148.9863616">
  <ele>658.53</ele>
  <time>2026-09-01T19:59:42Z</time>
  <course>310.6</course>
  <speed>0.05</speed>
  <fix>3d</fix>
</trkpt>
<trkpt lat="-35.2750216" lon="148.9863617">
  <ele>658.42</ele>
  <time>2026-09-01T19:59:42Z</time>
  <course>295.87</course>
  <speed>0.05830951894845301</speed>
  <fix>3d</fix>
</trkpt>
<trkpt lat="-35.2750218" lon="148.9863616">
  <ele>658.53</ele>
  <time>2026-09-01T19:59:42Z</time>
  <course>310.6</course>
  <speed>0.05</speed>
  <fix>3d</fix>
</trkpt>
<trkpt lat="-35.2750215" lon="148.9863616">
  <ele>658.42</ele>
  <time>2026-09-01T19:59:42Z</time>
  <course>295.87</course>
  <speed>0.07211102550927978</speed>
  <fix>3d</fix>
</trkpt>
<trkpt lat="-35.2750217" lon="148.9863615">
  <ele>658.53</ele>
  <time>2026-09-01T19:59:42Z</time>
  <course>306.09</course>
  <speed>0.07</speed>
  <fix>3d</fix>
</trkpt>
<trkpt lat="-35.2750215" lon="148.9863615">
  <ele>658.42</ele>
  <time>2026-09-01T19:59:42Z</time>
  <course>295.87</course>
  <speed>0.07810249675906654</speed>
  <fix>3d</fix>
</trkpt>
<trkpt lat="-35.2750217" lon="148.9863615">
  <ele>658.53</ele>
  <time>2026-09-01T19:59:42Z</time>
  <course>306.09</course>
  <speed>0.07</speed>
  <fix>3d</fix>
</trkpt>
<trkpt lat="-35.2750215" lon="148.9863615">
  <ele>658.42</ele>
  <time>2026-09-01T19:59:42Z</time>
  <course>295.87</course>
  <speed>0.0848528137423857</speed>
  <fix>3d</fix>
</trkpt>
<trkpt lat="-35.2750216" lon="148.9863614">
  <ele>658.53</ele>
  <time>2026-09-01T19:59:42Z</time>
  <course>303.46</course>
  <speed>0.09</speed>
  <fix>3d</fix>
</trkpt>
<trkpt lat="-35.2750214" lon="148.9863614">
  <ele>658.42</ele>
  <time>2026-09-01T19:59:42Z</time>
  <course>295.87</course>
  <speed>0.0848528137423857</speed>
  <fix>3d</fix>
</trkpt>
<trkpt lat="-35.2750216" lon="148.9863614">
  <ele>658.53</ele>
  <time>2026-09-01T19:59:42Z</time>
  <course>303.46</course>
  <speed>0.09</speed>
  <fix>3d</fix>
</trkpt>
<trkpt lat="-35.2750214" lon="148.9863613">
  <ele>658.42</ele>
  <time>2026-09-01T19:59:42Z</time>
  <course>295.87</course>
  <speed>0.09899494936611665</speed>
  <fix>3d</fix>
</trkpt>
<trkpt lat="-35.2750215" lon="148.9863611">
  <ele>658.53</ele>
  <time>2026-09-01T19:59:42Z</time>
  <course>301.56</course>
  <speed>0.11</speed>
  <fix>3d</fix>
</trkpt>
<trkpt lat="-35.2750213" lon="148.9863612">
  <ele>658.43</ele>
  <time>2026-09-01T19:59:42Z</time>
  <course>295.87</course>
  <speed>0.1063014581273465</speed>
  <fix>3d</fix>
</trkpt>
<trkpt lat="-35.2750215" lon="148.9863611">
  <ele>658.53</ele>
  <time>2026-09-01T19:59:42Z</time>
  <course>301.56</course>
  <speed>0.11</speed>
  <fix>3d</fix>
</trkpt>
<trkpt lat="-35.2750213" lon="148.986361">
  <ele>658.43</ele>
  <time>2026-09-01T19:59:42Z</time>
  <course>295.87</course>
  <speed>0.1063014581273465</speed>
  <fix>3d</fix>
</trkpt>
<trkpt lat="-35.2750214" lon="148.9863609">
  <ele>658.53</ele>
  <time>2026-09-01T19:59:42Z</time>
  <course>300.23</course>
  <speed>0.12</speed>
  <fix>3d</fix>
</trkpt>
<trkpt lat="-35.2750212" lon="148.9863609">
  <ele>658.43</ele>
  <time>2026-09-01T19:59:42Z</time>
  <course>295.87</course>
  <speed>0.11401754250991379</speed>
  <fix>3d</fix>
</trkpt>
<trkpt lat="-35.2750214" lon="148.9863609">
  <ele>658.53</ele>
  <time>2026-09-01T19:59:42Z</time>
  <course>300.23</course>
  <speed>0.12</speed>
  <fix>3d</fix>
</trkpt>
<trkpt lat="-35.2750211" lon="148.9863608">
  <ele>658.43</ele>
  <time>2026-09-01T19:59:42Z</time>
  <course>295.87</course>
  <speed>0.11401754250991379</speed>
  <fix>3d</fix>
</trkpt>
<trkpt lat="-35.2750213" lon="148.9863607">
  <ele>658.53</ele>
  <time>2026-09-01T19:59:42Z</time>
  <course>299.45</course>
  <speed>0.13</speed>
  <fix>3d</fix>
</trkpt>
<trkpt lat="-35.2750211" lon="148.9863607">
  <ele>658.43</ele>
  <time>2026-09-01T19:59:42Z</time>
  <course>295.87</course>
  <speed>0.11401754250991379</speed>
  <fix>3d</fix>
</trkpt>
<trkpt lat="-35.2750213" lon="148.9863607">
  <ele>658.53</ele>
  <time>2026-09-01T19:59:42Z</time>
  <course>299.45</course>
  <speed>0.13</speed>
  <fix>3d</fix>
</trkpt>
<trkpt lat="-35.275021" lon="148.9863605">
  <ele>658.43</ele>
  <time>2026-09-01T19:59:42Z</time>
  <course>295.86</course>
  <speed>0.12206555615733702</speed>
  <fix>3d</fix>
</trkpt>
<trkpt lat="-35.2750212" lon="148.9863604">
  <ele>658.53</ele>
  <time>2026-09-01T19:59:42Z</time>
  <course>298.88</course>
  <speed>0.14</speed>
  <fix>3d</fix>
</trkpt>
<trkpt lat="-35.275021" lon="148.9863604">
  <ele>658.42</ele>
  <time>2026-09-01T19:59:42Z</time>
  <course>295.86</course>
  <speed>0.12206555615733702</speed>
  <fix>3d</fix>
</trkpt>
<trkpt lat="-35.2750212" lon="148.9863604">
  <ele>658.53</ele>
  <time>2026-09-01T19:59:42Z</time>
  <course>298.88</course>
  <speed>0.14</speed>
  <fix>3d</fix>
</trkpt>
<trkpt lat="-35.2750209" lon="148.9863603">
  <ele>658.42</ele>
  <time>2026-09-01T19:59:42Z</time>
  <course>295.86</course>
  <speed>0.12206555615733702</speed>
  <fix>3d</fix>
</trkpt>
<trkpt lat="-35.275021" lon="148.9863601">
  <ele>658.53</ele>
  <time>2026-09-01T19:59:42Z</time>
  <course>298.38</course>
  <speed>0.14</speed>
  <fix>3d</fix>
</trkpt>
<trkpt lat="-35.2750209" lon="148.9863601">
  <ele>658.42</ele>
  <time>2026-09-01T19:59:42Z</time>
  <course>295.87</course>
  <speed>0.12206555615733702</speed>
  <fix>3d</fix>
</trkpt>
<trkpt lat="-35.275021" lon="148.9863601">
  <ele>658.53</ele>
  <time>2026-09-01T19:59:42Z</time>
  <course>298.38</course>
  <speed>0.14</speed>
  <fix>3d</fix>
</trkpt>
<trkpt lat="-35.2750208" lon="148.98636">
  <ele>658.42</ele>
  <time>2026-09-01T19:59:42Z</time>
  <course>295.87</course>
  <speed>0.12206555615733702</speed>
  <fix>3d</fix>
</trkpt>
<trkpt lat="-35.2750209" lon="148.9863598">
  <ele>658.53</ele>
  <time>2026-09-01T19:59:42Z</time>
  <course>297.83</course>
  <speed>0.15</speed>
  <fix>3d</fix>
</trkpt>
<trkpt lat="-35.2750207" lon="148.9863598">
  <ele>658.42</ele>
  <time>2026-09-01T19:59:42Z</time>
  <course>295.87</course>
  <speed>0.12206555615733702</speed>
  <fix>3d</fix>
</trkpt>
<trkpt lat="-35.2750209" lon="148.9863598">
  <ele>658.53</ele>
  <time>2026-09-01T19:59:42Z</time>
  <course>297.83</course>
  <speed>0.15</speed>
  <fix>3d</fix>
</trkpt>
<trkpt lat="-35.2750207" lon="148.9863597">
  <ele>658.42</ele>
  <time>2026-09-01T19:59:42Z</time>
  <course>295.86</course>
  <speed>0.12206555615733702</speed>
  <fix>3d</fix>
</trkpt>
<trkpt lat="-35.2750208" lon="148.9863595">
  <ele>658.53</ele>
  <time>2026-09-01T19:59:42Z</time>
  <course>297.29</course>
  <speed>0.14</speed>
  <fix>3d</fix>
</trkpt>
<trkpt lat="-35.2750206" lon="148.9863595">
  <ele>658.42</ele>
  <time>2026-09-01T19:59:42Z</time>
  <course>295.86</course>
  <speed>0.11401754250991379</speed>
  <fix>3d</fix>
</trkpt>
<trkpt lat="-35.2750208" lon="148.9863595">
  <ele>658.53</ele>
  <time>2026-09-01T19:59:42Z</time>
  <course>297.29</course>
  <speed>0.14</speed>
  <fix>3d</fix>
</trkpt>
<trkpt lat="-35.2750206" lon="148.9863594">
  <ele>658.42</ele>
  <time>2026-09-01T19:59:42Z</time>
  <course>295.86</course>
  <speed>0.10816653826391968</speed>
  <fix>3d</fix>
</trkpt>
<trkpt lat="-35.2750207" lon="148.9863593">
  <ele>658.53</ele>
  <time>2026-09-01T19:59:42Z</time>
  <course>296.83</course>
  <speed>0.14</speed>
  <fix>3d</fix>
</trkpt>
<trkpt lat="-35.2750205" lon="148.9863593">
  <ele>658.42</ele>
  <time>2026-09-01T19:59:42Z</time>
  <course>295.86</course>
  <speed>0.10816653826391968</speed>
  <fix>3d</fix>
</trkpt>
<trkpt lat="-35.2750207" lon="148.9863593">
  <ele>658.53</ele>
  <time>2026-09-01T19:59:42Z</time>
  <course>296.83</course>
  <speed>0.14</speed>
  <fix>3d</fix>
</trkpt>
<trkpt lat="-35.2750205" lon="148.9863592">
  <ele>658.42</ele>
  <time>2026-09-01T19:59:42Z</time>
  <course>295.86</course>
  <speed>0.1</speed>
  <fix>3d</fix>
</trkpt>
<trkpt lat="-35.2750206" lon="148.986359">
  <ele>658.53</ele>
  <time>2026-09-01T19:59:42Z</time>
  <course>296.42</course>
  <speed>0.13</speed>
  <fix>3d</fix>
</trkpt>
<trkpt lat="-35.2750204" lon="148.986359">
  <ele>658.42</ele>
  <time>2026-09-01T19:59:42Z</time>
  <course>295.86</course>
  <speed>0.1</speed>
  <fix>3d</fix>
</trkpt>
<trkpt lat="-35.2750206" lon="148.986359">
  <ele>658.53</ele>
  <time>2026-09-01T19:59:42Z</time>
  <course>296.42</course>
  <speed>0.13</speed>
  <fix>3d</fix>
</trkpt>
<trkpt lat="-35.2750204" lon="148.9863589">
  <ele>658.43</ele>
  <time>2026-09-01T19:59:42Z</time>
  <course>295.86</course>
  <speed>0.08602325267042626</speed>
  <fix>3d</fix>
</trkpt>
<trkpt lat="-35.2750205" lon="148.9863587">
  <ele>658.53</ele>
  <time>2026-09-01T19:59:42Z</time>
  <course>296.05</course>
  <speed>0.12</speed>
  <fix>3d</fix>
</trkpt>
<trkpt lat="-35.2750203" lon="148.9863588">
  <ele>658.43</ele>
  <time>2026-09-01T19:59:42Z</time>
  <course>295.86</course>
  <speed>0.08602325267042626</speed>
  <fix>3d</fix>
</trkpt>
<trkpt lat="-35.2750205" lon="148.9863587">
  <ele>658.53</ele>
  <time>2026-09-01T19:59:42Z</time>
  <course>296.05</course>
  <speed>0.12</speed>
  <fix>3d</fix>
</trkpt>
<trkpt lat="-35.2750203" lon="148.9863587">
  <ele>658.43</ele>
  <time>2026-09-01T19:59:42Z</time>
  <course>295.86</course>
  <speed>0.07810249675906654</speed>
  <fix>3d</fix>
</trkpt>
<trkpt lat="-35.2750204" lon="148.9863585">
  <ele>658.53</ele>
  <time>2026-09-01T19:59:42Z</time>
  <course>295.68</course>
  <speed>0.11</speed>
  <fix>3d</fix>
</trkpt>
<trkpt lat="-35.2750203" lon="148.9863586">
  <ele>658.43</ele>
  <time>2026-09-01T19:59:42Z</time>
  <course>295.86</course>
  <speed>0.07211102550927978</speed>
  <fix>3d</fix>
</trkpt>
<trkpt lat="-35.2750204" lon="148.9863585">
  <ele>658.53</ele>
  <time>2026-09-01T19:59:42Z</time>
  <course>295.68</course>
  <speed>0.11</speed>
  <fix>3d</fix>
</trkpt>
<trkpt lat="-35.2750202" lon="148.9863585">
  <ele>658.43</ele>
  <time>2026-09-01T19:59:42Z</time>
  <course>295.86</course>
  <speed>0.06403124237432849</speed>
  <fix>3d</fix>
</trkpt>
<trkpt lat="-35.2750203" lon="148.9863583">
  <ele>658.53</ele>
  <time>2026-09-01T19:59:42Z</time>
  <course>295.44</course>
  <speed>0.09</speed>
  <fix>3d</fix>
</trkpt>
<trkpt lat="-35.2750202" lon="148.9863584">
  <ele>658.44</ele>
  <time>2026-09-01T19:59:42Z</time>
  <course>295.86</course>
  <speed>0.06403124237432849</speed>
  <fix>3d</fix>
</trkpt>
<trkpt lat="-35.2750203" lon="148.9863583">
  <ele>658.53</ele>
  <time>2026-09-01T19:59:42Z</time>
  <course>295.44</course>
  <speed>0.09</speed>
  <fix>3d</fix>
</trkpt>
<trkpt lat="-35.2750202" lon="148.9863583">
  <ele>658.44</ele>
  <time>2026-09-01T19:59:42Z</time>
  <course>295.86</course>
  <speed>0.05</speed>
  <fix>3d</fix>
</trkpt>
<trkpt lat="-35.2750202" lon="148.9863581">
  <ele>658.53</ele>
  <time>2026-09-01T19:59:42Z</time>
  <course>295.17</course>
  <speed>0.08</speed>
  <fix>3d</fix>
</trkpt>
<trkpt lat="-35.2750202" lon="148.9863583">
  <ele>658.44</ele>
  <time>2026-09-01T19:59:42Z</time>
  <course>295.86</course>
  <speed>0.04242640687119285</speed>
  <fix>3d</fix>
</trkpt>
<trkpt lat="-35.2750202" lon="148.9863581">
  <ele>658.53</ele>
  <time>2026-09-01T19:59:42Z</time>
  <course>295.17</course>
  <speed>0.08</speed>
  <fix>3d</fix>
</trkpt>
<trkpt lat="-35.2750201" lon="148.9863582">
  <ele>658.44</ele>
  <time>2026-09-01T19:59:42Z</time>
  <course>295.86</course>
  <speed>0.04242640687119285</speed>
  <fix>3d</fix>
</trkpt>
<trkpt lat="-35.2750202" lon="148.986358">
  <ele>658.54</ele>
  <time>2026-09-01T19:59:42Z</time>
  <course>294.25</course>
  <speed>0.07</speed>
  <fix>3d</fix>
</trkpt>
<trkpt lat="-35.2750201" lon="148.9863581">
  <ele>658.44</ele>
  <time>2026-09-01T19:59:42Z</time>
  <course>295.86</course>
  <speed>0.0282842712474619</speed>
  <fix>3d</fix>
</trkpt>
<trkpt lat="-35.2750202" lon="148.986358">
  <ele>658.54</ele>
  <time>2026-09-01T19:59:42Z</time>
  <course>294.25</course>
  <speed>0.07</speed>
  <fix>3d</fix>
</trkpt>
<trkpt lat="-35.2750201" lon="148.9863581">
  <ele>658.44</ele>
  <time>2026-09-01T19:59:42Z</time>
  <course>295.86</course>
  <speed>0.022360679774997897</speed>
  <fix>3d</fix>
</trkpt>
<trkpt lat="-35.2750202" lon="148.9863578">
  <ele>658.53</ele>
  <time>2026-09-01T19:59:42Z</time>
  <course>292.13</course>
  <speed>0.05</speed>
  <fix>3d</fix>
</trkpt>
<trkpt lat="-35.2750201" lon="148.986358">
  <ele>658.44</ele>
  <time>2026-09-01T19:59:42Z</time>
  <course>295.86</course>
  <speed>0.01414213562373095</speed>
  <fix>3d</fix>
</trkpt>
<trkpt lat="-35.2750202" lon="148.9863578">
  <ele>658.53</ele>
  <time>2026-09-01T19:59:42Z</time>
  <course>292.13</course>
  <speed>0.05</speed>
  <fix>3d</fix>
</trkpt>
<trkpt lat="-35.2750201" lon="148.986358">
  <ele>658.44</ele>
  <time>2026-09-01T19:59:42Z</time>
  <course>295.86</course>
  <speed>0.01</speed>
  <fix>3d</fix>
</trkpt>
<trkpt lat="-35.2750201" lon="148.9863577">
  <ele>658.53</ele>
  <time>2026-09-01T19:59:42Z</time>
  <course>289.17</course>
  <speed>0.04</speed>
  <fix>3d</fix>
</trkpt>
<trkpt lat="-35.2750201" lon="148.986358">
  <ele>658.44</ele>
  <time>2026-09-01T19:59:42Z</time>
  <course>295.86</course>
  <speed>0.01</speed>
  <fix>3d</fix>
</trkpt>
<trkpt lat="-35.2750201" lon="148.9863577">
  <ele>658.53</ele>
  <time>2026-09-01T19:59:42Z</time>
  <course>289.17</course>
  <speed>0.04</speed>
  <fix>3d</fix>
</trkpt>
<trkpt lat="-35.2750201" lon="148.986358">
  <ele>658.44</ele>
  <time>2026-09-01T19:59:42Z</time>
  <course>295.86</course>
  <speed>0.01</speed>
  <fix>3d</fix>
</trkpt>
<trkpt lat="-35.2750201" lon="148.9863576">
  <ele>658.53</ele>
  <time>2026-09-01T19:59:42Z</time>
  <course>285.34</course>
  <speed>0.02</speed>
  <fix>3d</fix>
</trkpt>
<trkpt lat="-35.2750201" lon="148.9863579">
  <ele>658.44</ele>
  <time>2026-09-01T19:59:42Z</time>
  <course>295.86</course>
  <speed>0.01</speed>
  <fix>3d</fix>
</trkpt>
<trkpt lat="-35.2750201" lon="148.9863576">
  <ele>658.53</ele>
  <time>2026-09-01T19:59:42Z</time>
  <course>285.34</course>
  <speed>0.02</speed>
  <fix>3d</fix>
</trkpt>
<trkpt lat="-35.2750201" lon="148.9863579">
  <ele>658.43</ele>
  <time>2026-09-01T19:59:42Z</time>
  <course>295.86</course>
  <speed>0.02</speed>
  <fix>3d</fix>
</trkpt>
<trkpt lat="-35.2750201" lon="148.9863576">
  <ele>658.53</ele>
  <time>2026-09-01T19:59:42Z</time>
  <course>273.51</course>
  <speed>0.0</speed>
  <fix>3d</fix>
</trkpt>
<trkpt lat="-35.2750201" lon="148.9863579">
  <ele>658.43</ele>
  <time>2026-09-01T19:59:42Z</time>
  <course>295.86</course>
  <speed>0.03</speed>
  <fix>3d</fix>
</trkpt>
<trkpt lat="-35.2750201" lon="148.9863576">
  <ele>658.53</ele>
  <time>2026-09-01T19:59:42Z</time>
  <course>273.51</course>
  <speed>0.0</speed>
  <fix>3d</fix>
</trkpt>
<trkpt lat="-35.2750201" lon="148.9863579">
  <ele>658.43</ele>
  <time>2026-09-01T19:59:42Z</time>
  <course>295.86</course>
  <speed>0.03</speed>
  <fix>3d</fix>
</trkpt>
<trkpt lat="-35.2750201" lon="148.9863576">
  <ele>658.52</ele>
  <time>2026-09-01T19:59:42Z</time>
  <course>131.41</course>
  <speed>0.0</speed>
  <fix>3d</fix>
</trkpt>
<trkpt lat="-35.2750201" lon="148.9863579">
  <ele>658.43</ele>
  <time>2026-09-01T19:59:42Z</time>
  <course>295.86</course>
  <speed>0.04</speed>
  <fix>3d</fix>
</trkpt>
<trkpt lat="-35.2750201" lon="148.9863576">
  <ele>658.52</ele>
  <time>2026-09-01T19:59:42Z</time>
  <course>131.41</course>
  <speed>0.0</speed>
  <fix>3d</fix>
</trkpt>
<trkpt lat="-35.2750201" lon="148.9863579">
  <ele>658.42</ele>
  <time>2026-09-01T19:59:42Z</time>
  <course>295.86</course>
  <speed>0.05</speed>
  <fix>3d</fix>
</trkpt>
<trkpt lat="-35.2750201" lon="148.9863576">
  <ele>658.52</ele>
  <time>2026-09-01T19:59:42Z</time>
  <course>116.65</course>
  <speed>0.02</speed>
  <fix>3d</fix>
</trkpt>
<trkpt lat="-35.2750201" lon="148.9863579">
  <ele>658.42</ele>
  <time>2026-09-01T19:59:42Z</time>
  <course>295.86</course>
  <speed>0.05</speed>
  <fix>3d</fix>
</trkpt>
<trkpt lat="-35.2750201" lon="148.9863576">
  <ele>658.52</ele>
  <time>2026-09-01T19:59:42Z</time>
  <course>116.65</course>
  <speed>0.02</speed>
  <fix>3d</fix>
</trkpt>
<trkpt lat="-35.2750201" lon="148.9863579">
  <ele>658.42</ele>
  <time>2026-09-01T19:59:42Z</time>
  <course>295.86</course>
  <speed>0.06082762530298219</speed>
  <fix>3d</fix>
</trkpt>
<trkpt lat="-35.2750201" lon="148.9863576">
  <ele>658.52</ele>
  <time>2026-09-01T19:59:42Z</time>
  <course>114.74</course>
  <speed>0.03</speed>
  <fix>3d</fix>
</trkpt>
<trkpt lat="-35.2750201" lon="148.986358">
  <ele>658.42</ele>
  <time>2026-09-01T19:59:42Z</time>
  <course>295.86</course>
  <speed>0.06082762530298219</speed>
  <fix>3d</fix>
</trkpt>
<trkpt lat="-35.2750201" lon="148.9863576">
  <ele>658.52</ele>
  <time>2026-09-01T19:59:42Z</time>
  <course>114.74</course>
  <speed>0.03</speed>
  <fix>3d</fix>
</trkpt>
<trkpt lat="-35.2750201" lon="148.986358">
  <ele>658.42</ele>
  <time>2026-09-01T19:59:42Z</time>
  <course>295.86</course>
  <speed>0.07071067811865475</speed>
  <fix>3d</fix>
</trkpt>
<trkpt lat="-35.2750201" lon="148.9863577">
  <ele>658.52</ele>
  <time>2026-09-01T19:59:42Z</time>
  <course>114.77</course>
  <speed>0.04</speed>
  <fix>3d</fix>
</trkpt>
<trkpt lat="-35.2750201" lon="148.9863581">
  <ele>658.42</ele>
  <time>2026-09-01T19:59:42Z</time>
  <course>295.86</course>
  <speed>0.07071067811865475</speed>
  <fix>3d</fix>
</trkpt>
<trkpt lat="-35.2750201" lon="148.9863577">
  <ele>658.52</ele>
  <time>2026-09-01T19:59:42Z</time>
  <course>114.77</course>
  <speed>0.04</speed>
  <fix>3d</fix>
</trkpt>
<trkpt lat="-35.2750201" lon="148.9863581">
  <ele>658.42</ele>
  <time>2026-09-01T19:59:42Z</time>
  <course>295.86</course>
  <speed>0.07071067811865475</speed>
  <fix>3d</fix>
</trkpt>
<trkpt lat="-35.2750201" lon="148.9863578">
  <ele>658.52</ele>
  <time>2026-09-01T19:59:42Z</time>
  <course>115.27</course>
  <speed>0.05</speed>
  <fix>3d</fix>
</trkpt>
<trkpt lat="-35.2750201" lon="148.9863582">
  <ele>658.42</ele>
  <time>2026-09-01T19:59:42Z</time>
  <course>295.86</course>
  <speed>0.0824621125123532</speed>
  <fix>3d</fix>
</trkpt>
<trkpt lat="-35.2750201" lon="148.9863578">
  <ele>658.52</ele>
  <time>2026-09-01T19:59:42Z</time>
  <course>115.27</course>
  <speed>0.05</speed>
  <fix>3d</fix>
</trkpt>
<trkpt lat="-35.2750201" lon="148.9863582">
  <ele>658.42</ele>
  <time>2026-09-01T19:59:42Z</time>
  <course>295.86</course>
  <speed>0.0824621125123532</speed>
  <fix>3d</fix>
</trkpt>
<trkpt lat="-35.2750201" lon="148.9863579">
  <ele>658.53</ele>
  <time>2026-09-01T19:59:42Z</time>
  <course>115.8</course>
  <speed>0.06</speed>
  <fix>3d</fix>
</trkpt>
<trkpt lat="-35.2750202" lon="148.9863583">
  <ele>658.42</ele>
  <time>2026-09-01T19:59:42Z</time>
  <course>295.86</course>
  <speed>0.0824621125123532</speed>
  <fix>3d</fix>
</trkpt>
<trkpt lat="-35.2750201" lon="148.9863579">
  <ele>658.53</ele>
  <time>2026-09-01T19:59:42Z</time>
  <course>115.8</course>
  <speed>0.06</speed>
  <fix>3d</fix>
</trkpt>
<trkpt lat="-35.2750202" lon="148.9863584">
  <ele>658.43</ele>
  <time>2026-09-01T19:59:42Z</time>
  <course>295.85</course>
  <speed>0.0824621125123532</speed>
  <fix>3d</fix>
</trkpt>
<trkpt lat="-35.2750202" lon="148.986358">
  <ele>658.53</ele>
  <time>2026-09-01T19:59:42Z</time>
  <course>115.9</course>
  <speed>0.07</speed>
  <fix>3d</fix>
</trkpt>
<trkpt lat="-35.2750202" lon="148.9863584">
  <ele>658.43</ele>
  <time>2026-09-01T19:59:42Z</time>
  <course>295.85</course>
  <speed>0.0824621125123532</speed>
  <fix>3d</fix>
</trkpt>
<trkpt lat="-35.2750202" lon="148.986358">
  <ele>658.53</ele>
  <time>2026-09-01T19:59:42Z</time>
  <course>115.9</course>
  <speed>0.07</speed>
  <fix>3d</fix>
</trkpt>
<trkpt lat="-35.2750202" lon="148.9863585">
  <ele>658.43</ele>
  <time>2026-09-01T19:59:42Z</time>
  <course>295.84</course>
  <speed>0.09219544457292887</speed>
  <fix>3d</fix>
</trkpt>
<trkpt lat="-35.2750203" lon="148.9863581">
  <ele>658.53</ele>
  <time>2026-09-01T19:59:42Z</time>
  <course>115.58</course>
  <speed>0.07</speed>
  <fix>3d</fix>
</trkpt>
<trkpt lat="-35.2750202" lon="148.9863585">
  <ele>658.43</ele>
  <time>2026-09-01T19:59:42Z</time>
  <course>295.85</course>
  <speed>0.09219544457292887</speed>
  <fix>3d</fix>
</trkpt>
<trkpt lat="-35.2750203" lon="148.9863581">
  <ele>658.53</ele>
  <time>2026-09-01T19:59:42Z</time>
  <course>115.58</course>
  <speed>0.07</speed>
  <fix>3d</fix>
</trkpt>
<trkpt lat="-35.2750203" lon="148.9863586">
  <ele>658.43</ele>
  <time>2026-09-01T19:59:42Z</time>
  <course>295.85</course>
  <speed>0.09219544457292887</speed>
  <fix>3d</fix>
</trkpt>
<trkpt lat="-35.2750203" lon="148.9863583">
  <ele>658.53</ele>
  <time>2026-09-01T19:59:42Z</time>
  <course>115.41</course>
  <speed>0.07</speed>
  <fix>3d</fix>
</trkpt>
<trkpt lat="-35.2750203" lon="148.9863587">
  <ele>658.43</ele>
  <time>2026-09-01T19:59:42Z</time>
  <course>295.86</course>
  <speed>0.09219544457292887</speed>
  <fix>3d</fix>
</trkpt>
<trkpt lat="-35.2750203" lon="148.9863583">
  <ele>658.53</ele>
  <time>2026-09-01T19:59:42Z</time>
  <course>115.41</course>
  <speed>0.07</speed>
  <fix>3d</fix>
</trkpt>
<trkpt lat="-35.2750203" lon="148.9863588">
  <ele>658.43</ele>
  <time>2026-09-01T19:59:42Z</time>
  <course>295.86</course>
  <speed>0.09219544457292887</speed>
  <fix>3d</fix>
</trkpt>
<trkpt lat="-35.2750203" lon="148.9863585">
  <ele>658.54</ele>
  <time>2026-09-01T19:59:42Z</time>
  <course>115.54</course>
  <speed>0.07</speed>
  <fix>3d</fix>
</trkpt>
<trkpt lat="-35.2750203" lon="148.9863588">
  <ele>658.43</ele>
  <time>2026-09-01T19:59:42Z</time>
  <course>295.86</course>
  <speed>0.09219544457292887</speed>
  <fix>3d</fix>
</trkpt>
<trkpt lat="-35.2750203" lon="148.9863585">
  <ele>658.54</ele>
  <time>2026-09-01T19:59:42Z</time>
  <course>115.54</course>
  <speed>0.07</speed>
  <fix>3d</fix>
</trkpt>
<trkpt lat="-35.2750204" lon="148.9863589">
  <ele>658.43</ele>
  <time>2026-09-01T19:59:42Z</time>
  <course>295.85</course>
  <speed>0.0824621125123532</speed>
  <fix>3d</fix>
</trkpt>
<trkpt lat="-35.2750204" lon="148.9863586">
  <ele>658.54</ele>
  <time>2026-09-01T19:59:42Z</time>
  <course>115.83</course>
  <speed>0.07</speed>
  <fix>3d</fix>
</trkpt>
<trkpt lat="-35.2750204" lon="148.986359">
  <ele>658.44</ele>
  <time>2026-09-01T19:59:42Z</time>
  <course>295.85</course>
  <speed>0.0824621125123532</speed>
  <fix>3d</fix>
</trkpt>
<trkpt lat="-35.2750204" lon="148.9863586">
  <ele>658.54</ele>
  <time>2026-09-01T19:59:42Z</time>
  <course>115.83</course>
  <speed>0.07</speed>
  <fix>3d</fix>
</trkpt>
<trkpt lat="-35.2750204" lon="148.986359">
  <ele>658.44</ele>
  <time>2026-09-01T19:59:42Z</time>
  <course>295.85</course>
  <speed>0.0824621125123532</speed>
  <fix>3d</fix>
</trkpt>
<trkpt lat="-35.2750205" lon="148.9863588">
  <ele>658.54</ele>
  <time>2026-09-01T19:59:42Z</time>
  <course>116.49</course>
  <speed>0.07</speed>
  <fix>3d</fix>
</trkpt>
<trkpt lat="-35.2750204" lon="148.9863591">
  <ele>658.44</ele>
  <time>2026-09-01T19:59:42Z</time>
  <course>295.85</course>
  <speed>0.0824621125123532</speed>
  <fix>3d</fix>
</trkpt>
<trkpt lat="-35.2750205" lon="148.9863588">
  <ele>658.54</ele>
  <time>2026-09-01T19:59:42Z</time>
  <course>116.49</course>
  <speed>0.07</speed>
  <fix>3d</fix>
</trkpt>
<trkpt lat="-35.2750205" lon="148.9863592">
  <ele>658.44</ele>
  <time>2026-09-01T19:59:42Z</time>
  <course>295.85</course>
  <speed>0.0824621125123532</speed>
  <fix>3d</fix>
</trkpt>
<trkpt lat="-35.2750206" lon="148.9863589">
  <ele>658.54</ele>
  <time>2026-09-01T19:59:42Z</time>
  <course>117.36</course>
  <speed>0.07</speed>
  <fix>3d</fix>
</trkpt>
<trkpt lat="-35.2750205" lon="148.9863592">
  <ele>658.44</ele>
  <time>2026-09-01T19:59:42Z</time>
  <course>295.85</course>
  <speed>0.08062257748298549</speed>
  <fix>3d</fix>
</trkpt>
<trkpt lat="-35.2750206" lon="148.9863589">
  <ele>658.54</ele>
  <time>2026-09-01T19:59:42Z</time>
  <course>117.36</course>
  <speed>0.07</speed>
  <fix>3d</fix>
</trkpt>
<trkpt lat="-35.2750205" lon="148.9863593">
  <ele>658.44</ele>
  <time>2026-09-01T19:59:42Z</time>
  <course>295.85</course>
  <speed>0.07071067811865475</speed>
  <fix>3d</fix>
</trkpt>
<trkpt lat="-35.2750206" lon="148.986359">
  <ele>658.54</ele>
  <time>2026-09-01T19:59:42Z</time>
  <course>118.21</course>
  <speed>0.07</speed>
  <fix>3d</fix>
</trkpt>
<trkpt lat="-35.2750205" lon="148.9863594">
  <ele>658.44</ele>
  <time>2026-09-01T19:59:42Z</time>
  <course>295.85</course>
  <speed>0.07071067811865475</speed>
  <fix>3d</fix>
</trkpt>
<trkpt lat="-35.2750206" lon="148.986359">
  <ele>658.54</ele>
  <time>2026-09-01T19:59:42Z</time>
  <course>118.21</course>
  <speed>0.07</speed>
  <fix>3d</fix>
</trkpt>
<trkpt lat="-35.2750206" lon="148.9863594">
  <ele>658.44</ele>
  <time>2026-09-01T19:59:42Z</time>
  <course>295.85</course>
  <speed>0.07071067811865475</speed>
  <fix>3d</fix>
</trkpt>
<trkpt lat="-35.2750207" lon="148.9863592">
  <ele>658.54</ele>
  <time>2026-09-01T19:59:42Z</time>
  <course>119.04</course>
  <speed>0.06</speed>
  <fix>3d</fix>
</trkpt>
<trkpt lat="-35.2750206" lon="148.9863595">
  <ele>658.44</ele>
  <time>2026-09-01T19:59:42Z</time>
  <course>295.84</course>
  <speed>0.07071067811865475</speed>
  <fix>3d</fix>
</trkpt>
<trkpt lat="-35.2750207" lon="148.9863592">
  <ele>658.54</ele>
  <time>2026-09-01T19:59:42Z</time>
  <course>119.04</course>
  <speed>0.06</speed>
  <fix>3d</fix>
</trkpt>
<trkpt lat="-35.2750206" lon="148.9863595">
  <ele>658.44</ele>
  <time>2026-09-01T19:59:42Z</time>
  <course>295.84</course>
  <speed>0.06082762530298219</speed>
  <fix>3d</fix>
</trkpt>
<trkpt lat="-35.2750207" lon="148.9863593">
  <ele>658.53</ele>
  <time>2026-09-01T19:59:42Z</time>
  <course>120.11</course>
  <speed>0.05</speed>
  <fix>3d</fix>
</trkpt>
<trkpt lat="-35.2750206" lon="148.9863596">
  <ele>658.44</ele>
  <time>2026-09-01T19:59:42Z</time>
  <course>295.84</course>
  <speed>0.06082762530298219</speed>
  <fix>3d</fix>
</trkpt>
<trkpt lat="-35.2750207" lon="148.9863593">
  <ele>658.53</ele>
  <time>2026-09-01T19:59:42Z</time>
  <course>120.11</course>
  <speed>0.05</speed>
  <fix>3d</fix>
</trkpt>
<trkpt lat="-35.2750206" lon="148.9863596">
  <ele>658.44</ele>
  <time>2026-09-01T19:59:42Z</time>
  <course>295.83</course>
  <speed>0.05099019513592785</speed>
  <fix>3d</fix>
</trkpt>
<trkpt lat="-35.2750208" lon="148.9863594">
  <ele>658.53</ele>
  <time>2026-09-01T19:59:42Z</time>
  <course>121.57</course>
  <speed>0.05</speed>
  <fix>3d</fix>
</trkpt>
<trkpt lat="-35.2750207" lon="148.9863596">
  <ele>658.44</ele>
  <time>2026-09-01T19:59:42Z</time>
  <course>295.83</course>
  <speed>0.05</speed>
  <fix>3d</fix>
</trkpt>
<trkpt lat="-35.2750208" lon="148.9863594">
  <ele>658.53</ele>
  <time>2026-09-01T19:59:42Z</time>
  <course>121.57</course>
  <speed>0.05</speed>
  <fix>3d</fix>
</trkpt>
<trkpt lat="-35.2750207" lon="148.9863597">
  <ele>658.44</ele>
  <time>2026-09-01T19:59:42Z</time>
  <course>295.83</course>
  <speed>0.05</speed>
  <fix>3d</fix>
</trkpt>
<trkpt lat="-35.2750208" lon="148.9863595">
  <ele>658.53</ele>
  <time>2026-09-01T19:59:42Z</time>
  <course>123.46</course>
  <speed>0.04</speed>
  <fix>3d</fix>
</trkpt>
<trkpt lat="-35.2750207" lon="148.9863597">
  <ele>658.44</ele>
  <time>2026-09-01T19:59:42Z</time>
  <course>295.84</course>
  <speed>0.04</speed>
  <fix>3d</fix>
</trkpt>
<trkpt lat="-35.2750208" lon="148.9863595">
  <ele>658.53</ele>
  <time>2026-09-01T19:59:42Z</time>
  <course>123.46</course>
  <speed>0.04</speed>
  <fix>3d</fix>
</trkpt>
<trkpt lat="-35.2750207" lon="148.9863597">
  <ele>658.44</ele>
  <time>2026-09-01T19:59:42Z</time>
  <course>295.85</course>
  <speed>0.04</speed>
  <fix>3d</fix>
</trkpt>
<trkpt lat="-35.2750209" lon="148.9863595">
  <ele>658.53</ele>
  <time>2026-09-01T19:59:42Z</time>
  <course>126.06</course>
  <speed>0.03</speed>
  <fix>3d</fix>
</trkpt>
<trkpt lat="-35.2750207" lon="148.9863598">
  <ele>658.44</ele>
  <time>2026-09-01T19:59:42Z</time>
  <course>295.86</course>
  <speed>0.04</speed>
  <fix>3d</fix>
</trkpt>
<trkpt lat="-35.2750209" lon="148.9863595">
  <ele>658.53</ele>
  <time>2026-09-01T19:59:42Z</time>
  <course>126.06</course>
  <speed>0.03</speed>
  <fix>3d</fix>
</trkpt>
<trkpt lat="-35.2750207" lon="148.9863598">
  <ele>658.44</ele>
  <time>2026-09-01T19:59:42Z</time>
  <course>295.86</course>
  <speed>0.03</speed>
  <fix>3d</fix>
</trkpt>
<trkpt lat="-35.2750209" lon="148.9863596">
  <ele>658.53</ele>
  <time>2026-09-01T19:59:42Z</time>
  <course>129.09</course>
  <speed>0.02</speed>
  <fix>3d</fix>
</trkpt>
<trkpt lat="-35.2750208" lon="148.9863598">
  <ele>658.45</ele>
  <time>2026-09-01T19:59:42Z</time>
  <course>295.86</course>
  <speed>0.03</speed>
  <fix>3d</fix>
</trkpt>
<trkpt lat="-35.2750209" lon="148.9863596">
  <ele>658.53</ele>
  <time>2026-09-01T19:59:42Z</time>
  <course>129.09</course>
  <speed>0.02</speed>
  <fix>3d</fix>
</trkpt>
<trkpt lat="-35.2750208" lon="148.9863598">
  <ele>658.45</ele>
  <time>2026-09-01T19:59:42Z</time>
  <course>295.86</course>
  <speed>0.03</speed>
  <fix>3d</fix>
</trkpt>
<trkpt lat="-35.2750209" lon="148.9863596">
  <ele>658.52</ele>
  <time>2026-09-01T19:59:42Z</time>
  <course>132.2</course>
  <speed>0.02</speed>
  <fix>3d</fix>
</trkpt>
<trkpt lat="-35.2750208" lon="148.9863598">
  <ele>658.45</ele>
  <time>2026-09-01T19:59:42Z</time>
  <course>295.85</course>
  <speed>0.02</speed>
  <fix>3d</fix>
</trkpt>
<trkpt lat="-35.2750209" lon="148.9863596">
  <ele>658.52</ele>
  <time>2026-09-01T19:59:42Z</time>
  <course>132.2</course>
  <speed>0.02</speed>
  <fix>3d</fix>
</trkpt>
<trkpt lat="-35.2750208" lon="148.9863598">
  <ele>658.45</ele>
  <time>2026-09-01T19:59:42Z</time>
  <course>295.85</course>
  <speed>0.02</speed>
  <fix>3d</fix>
</trkpt>
<trkpt lat="-35.2750209" lon="148.9863597">
  <ele>658.52</ele>
  <time>2026-09-01T19:59:42Z</time>
  <course>135.66</course>
  <speed>0.01</speed>
  <fix>3d</fix>
</trkpt>
<trkpt lat="-35.2750208" lon="148.9863598">
  <ele>658.44</ele>
  <time>2026-09-01T19:59:42Z</time>
  <course>295.85</course>
  <speed>0.02</speed>
  <fix>3d</fix>
</trkpt>
<trkpt lat="-35.2750209" lon="148.9863597">
  <ele>658.52</ele>
  <time>2026-09-01T19:59:42Z</time>
  <course>135.66</course>
  <speed>0.01</speed>
  <fix>3d</fix>
</trkpt>
<trkpt lat="-35.2750208" lon="148.9863598">
  <ele>658.44</ele>
  <time>2026-09-01T19:59:42Z</time>
  <course>295.85</course>
  <speed>0.02</speed>
  <fix>3d</fix>
</trkpt>
<trkpt lat="-35.2750209" lon="148.9863598">
  <ele>658.52</ele>
  <time>2026-09-01T19:59:42Z</time>
  <course>145.22</course>
  <speed>0.0</speed>
  <fix>3d</fix>
</trkpt>
<trkpt lat="-35.2750208" lon="148.9863598">
  <ele>658.44</ele>
  <time>2026-09-01T19:59:42Z</time>
  <course>295.85</course>
  <speed>0.01414213562373095</speed>
  <fix>3d</fix>
</trkpt>
<trkpt lat="-35.2750209" lon="148.9863598">
  <ele>658.52</ele>
  <time>2026-09-01T19:59:42Z</time>
  <course>145.22</course>
  <speed>0.0</speed>
  <fix>3d</fix>
</trkpt>
<trkpt lat="-35.2750208" lon="148.9863598">
  <ele>658.44</ele>
  <time>2026-09-01T19:59:42Z</time>
  <course>295.85</course>
  <speed>0.01414213562373095</speed>
  <fix>3d</fix>
</trkpt>
<trkpt lat="-35.2750209" lon="148.9863598">
  <ele>658.52</ele>
  <time>2026-09-01T19:59:42Z</time>
  <course>208.35</course>
  <speed>0.0</speed>
  <fix>3d</fix>
</trkpt>
<trkpt lat="-35.2750208" lon="148.9863598">
  <ele>658.43</ele>
  <time>2026-09-01T19:59:43Z</time>
  <course>295.85</course>
  <speed>0.01414213562373095</speed>
  <fix>3d</fix>
</trkpt>
<trkpt lat="-35.2750209" lon="148.9863598">
  <ele>658.52</ele>
  <time>2026-09-01T19:59:43Z</time>
  <course>208.35</course>
  <speed>0.0</speed>
  <fix>3d</fix>
</trkpt>
<trkpt lat="-35.2750208" lon="148.9863598">
  <ele>658.43</ele>
  <time>2026-09-01T19:59:43Z</time>
  <course>295.85</course>
  <speed>0.01414213562373095</speed>
  <fix>3d</fix>
</trkpt>
<trkpt lat="-35.2750209" lon="148.9863598">
  <ele>658.51</ele>
  <time>2026-09-01T19:59:43Z</time>
  <course>264.62</course>
  <speed>0.0</speed>
  <fix>3d</fix>
</trkpt>
<trkpt lat="-35.2750208" lon="148.9863598">
  <ele>658.43</ele>
  <time>2026-09-01T19:59:43Z</time>
  <course>295.85</course>
  <speed>0.01</speed>
  <fix>3d</fix>
</trkpt>
<trkpt lat="-35.2750209" lon="148.9863598">
  <ele>658.51</ele>
  <time>2026-09-01T19:59:43Z</time>
  <course>264.62</course>
  <speed>0.0</speed>
  <fix>3d</fix>
</trkpt>
<trkpt lat="-35.2750208" lon="148.9863598">
  <ele>658.43</ele>
  <time>2026-09-01T19:59:43Z</time>
  <course>295.85</course>
  <speed>0.01</speed>
  <fix>3d</fix>
</trkpt>
<trkpt lat="-35.2750209" lon="148.9863598">
  <ele>658.51</ele>
  <time>2026-09-01T19:59:43Z</time>
  <course>271.04</course>
  <speed>0.01</speed>
  <fix>3d</fix>
</trkpt>
<trkpt lat="-35.2750208" lon="148.9863598">
  <ele>658.43</ele>
  <time>2026-09-01T19:59:43Z</time>
  <course>295.85</course>
  <speed>0.01</speed>
  <fix>3d</fix>
</trkpt>
<trkpt lat="-35.2750209" lon="148.9863598">
  <ele>658.51</ele>
  <time>2026-09-01T19:59:43Z</time>
  <course>271.04</course>
  <speed>0.01</speed>
  <fix>3d</fix>
</trkpt>
<trkpt lat="-35.2750208" lon="148.9863598">
  <ele>658.43</ele>
  <time>2026-09-01T19:59:43Z</time>
  <course>295.85</course>
  <speed>0.01</speed>
  <fix>3d</fix>
</trkpt>
<trkpt lat="-35.2750209" lon="148.9863598">
  <ele>658.51</ele>
  <time>2026-09-01T19:59:43Z</time>
  <course>272.01</course>
  <speed>0.01</speed>
  <fix>3d</fix>
</trkpt>
<trkpt lat="-35.2750208" lon="148.9863598">
  <ele>658.43</ele>
  <time>2026-09-01T19:59:43Z</time>
  <course>295.85</course>
  <speed>0.01</speed>
  <fix>3d</fix>
</trkpt>
<trkpt lat="-35.2750209" lon="148.9863598">
  <ele>658.51</ele>
  <time>2026-09-01T19:59:43Z</time>
  <course>272.01</course>
  <speed>0.01</speed>
  <fix>3d</fix>
</trkpt>
<trkpt lat="-35.2750208" lon="148.9863598">
  <ele>658.43</ele>
  <time>2026-09-01T19:59:43Z</time>
  <course>295.85</course>
  <speed>0.01</speed>
  <fix>3d</fix>
</trkpt>
<trkpt lat="-35.2750209" lon="148.9863597">
  <ele>658.51</ele>
  <time>2026-09-01T19:59:43Z</time>
  <course>274.44</course>
  <speed>0.02</speed>
  <fix>3d</fix>
</trkpt>
<trkpt lat="-35.2750208" lon="148.9863598">
  <ele>658.43</ele>
  <time>2026-09-01T19:59:43Z</time>
  <course>295.85</course>
  <speed>0.01</speed>
  <fix>3d</fix>
</trkpt>
<trkpt lat="-35.2750209" lon="148.9863597">
  <ele>658.51</ele>
  <time>2026-09-01T19:59:43Z</time>
  <course>274.44</course>
  <speed>0.02</speed>
  <fix>3d</fix>
</trkpt>
<trkpt lat="-35.2750208" lon="148.9863598">
  <ele>658.43</ele>
  <time>2026-09-01T19:59:43Z</time>
  <course>295.85</course>
  <speed>0.01</speed>
  <fix>3d</fix>
</trkpt>
<trkpt lat="-35.2750209" lon="148.9863596">
  <ele>658.51</ele>
  <time>2026-09-01T19:59:43Z</time>
  <course>277.57</course>
  <speed>0.02</speed>
  <fix>3d</fix>
</trkpt>
<trkpt lat="-35.2750208" lon="148.9863598">
  <ele>658.43</ele>
  <time>2026-09-01T19:59:43Z</time>
  <course>295.85</course>
  <speed>0.02</speed>
  <fix>3d</fix>
</trkpt>
<trkpt lat="-35.2750209" lon="148.9863596">
  <ele>658.51</ele>
  <time>2026-09-01T19:59:43Z</time>
  <course>277.57</course>
  <speed>0.02</speed>
  <fix>3d</fix>
</trkpt>
<trkpt lat="-35.2750208" lon="148.9863598">
  <ele>658.43</ele>
  <time>2026-09-01T19:59:43Z</time>
  <course>295.85</course>
  <speed>0.02</speed>
  <fix>3d</fix>
</trkpt>
<trkpt lat="-35.2750209" lon="148.9863596">
  <ele>658.51</ele>
  <time>2026-09-01T19:59:43Z</time>
  <course>280.15</course>
  <speed>0.03</speed>
  <fix>3d</fix>
</trkpt>
<trkpt lat="-35.2750208" lon="148.9863597">
  <ele>658.43</ele>
  <time>2026-09-01T19:59:43Z</time>
  <course>295.85</course>
  <speed>0.022360679774997897</speed>
  <fix>3d</fix>
</trkpt>
<trkpt lat="-35.2750209" lon="148.9863596">
  <ele>658.51</ele>
  <time>2026-09-01T19:59:43Z</time>
  <course>280.15</course>
  <speed>0.03</speed>
  <fix>3d</fix>
</trkpt>
<trkpt lat="-35.2750208" lon="148.9863597">
  <ele>658.43</ele>
  <time>2026-09-01T19:59:43Z</time>
  <course>295.84</course>
  <speed>0.022360679774997897</speed>
  <fix>3d</fix>
</trkpt>
<trkpt lat="-35.2750209" lon="148.9863595">
  <ele>658.51</ele>
  <time>2026-09-01T19:59:43Z</time>
  <course>281.99</course>
  <speed>0.03</speed>
  <fix>3d</fix>
</trkpt>
<trkpt lat="-35.2750208" lon="148.9863597">
  <ele>658.44</ele>
  <time>2026-09-01T19:59:43Z</time>
  <course>295.84</course>
  <speed>0.022360679774997897</speed>
  <fix>3d</fix>
</trkpt>
<trkpt lat="-35.2750209" lon="148.9863595">
  <ele>658.51</ele>
  <time>2026-09-01T19:59:43Z</time>
  <course>281.99</course>
  <speed>0.03</speed>
  <fix>3d</fix>
</trkpt>
<trkpt lat="-35.2750208" lon="148.9863596">
  <ele>658.44</ele>
  <time>2026-09-01T19:59:43Z</time>
  <course>295.84</course>
  <speed>0.022360679774997897</speed>
  <fix>3d</fix>
</trkpt>
<trkpt lat="-35.2750209" lon="148.9863594">
  <ele>658.51</ele>
  <time>2026-09-01T19:59:43Z</time>
  <course>283.35</course>
  <speed>0.03</speed>
  <fix>3d</fix>
</trkpt>
<trkpt lat="-35.2750208" lon="148.9863596">
  <ele>658.44</ele>
  <time>2026-09-01T19:59:43Z</time>
  <course>295.84</course>
  <speed>0.022360679774997897</speed>
  <fix>3d</fix>
</trkpt>
<trkpt lat="-35.2750209" lon="148.9863594">
  <ele>658.51</ele>
  <time>2026-09-01T19:59:43Z</time>
  <course>283.35</course>
  <speed>0.03</speed>
  <fix>3d</fix>
</trkpt>
<trkpt lat="-35.2750208" lon="148.9863596">
  <ele>658.44</ele>
  <time>2026-09-01T19:59:43Z</time>
  <course>295.84</course>
  <speed>0.022360679774997897</speed>
  <fix>3d</fix>
</trkpt>
<trkpt lat="-35.2750209" lon="148.9863593">
  <ele>658.51</ele>
  <time>2026-09-01T19:59:43Z</time>
  <course>284.87</course>
  <speed>0.03</speed>
  <fix>3d</fix>
</trkpt>
<trkpt lat="-35.2750208" lon="148.9863595">
  <ele>658.44</ele>
  <time>2026-09-01T19:59:43Z</time>
  <course>295.84</course>
  <speed>0.022360679774997897</speed>
  <fix>3d</fix>
</trkpt>
<trkpt lat="-35.2750209" lon="148.9863593">
  <ele>658.51</ele>
  <time>2026-09-01T19:59:43Z</time>
  <course>284.87</course>
  <speed>0.03</speed>
  <fix>3d</fix>
</trkpt>
<trkpt lat="-35.2750208" lon="148.9863595">
  <ele>658.44</ele>
  <time>2026-09-01T19:59:43Z</time>
  <course>295.84</course>
  <speed>0.022360679774997897</speed>
  <fix>3d</fix>
</trkpt>
<trkpt lat="-35.2750209" lon="148.9863593">
  <ele>658.51</ele>
  <time>2026-09-01T19:59:43Z</time>
  <course>286.52</course>
  <speed>0.04</speed>
  <fix>3d</fix>
</trkpt>
<trkpt lat="-35.2750208" lon="148.9863594">
  <ele>658.44</ele>
  <time>2026-09-01T19:59:43Z</time>
  <course>295.84</course>
  <speed>0.022360679774997897</speed>
  <fix>3d</fix>
</trkpt>
<trkpt lat="-35.2750209" lon="148.9863593">
  <ele>658.51</ele>
  <time>2026-09-01T19:59:43Z</time>
  <course>286.52</course>
  <speed>0.04</speed>
  <fix>3d</fix>
</trkpt>
<trkpt lat="-35.2750207" lon="148.9863594">
  <ele>658.44</ele>
  <time>2026-09-01T19:59:43Z</time>
  <course>295.84</course>
  <speed>0.022360679774997897</speed>
  <fix>3d</fix>
</trkpt>
<trkpt lat="-35.2750209" lon="148.9863592">
  <ele>658.51</ele>
  <time>2026-09-01T19:59:43Z</time>
  <course>287.7</course>
  <speed>0.04</speed>
  <fix>3d</fix>
</trkpt>
<trkpt lat="-35.2750207" lon="148.9863594">
  <ele>658.44</ele>
  <time>2026-09-01T19:59:43Z</time>
  <course>295.85</course>
  <speed>0.022360679774997897</speed>
  <fix>3d</fix>
</trkpt>
<trkpt lat="-35.2750209" lon="148.9863592">
  <ele>658.51</ele>
  <time>2026-09-01T19:59:43Z</time>
  <course>287.7</course>
  <speed>0.04</speed>
  <fix>3d</fix>
</trkpt>
<trkpt lat="-35.2750207" lon="148.9863593">
  <ele>658.44</ele>
  <time>2026-09-01T19:59:43Z</time>
  <course>295.85</course>
  <speed>0.022360679774997897</speed>
  <fix>3d</fix>
</trkpt>
<trkpt lat="-35.2750209" lon="148.9863591">
  <ele>658.51</ele>
  <time>2026-09-01T19:59:43Z</time>
  <course>288.68</course>
  <speed>0.04</speed>
  <fix>3d</fix>
</trkpt>
<trkpt lat="-35.2750207" lon="148.9863593">
  <ele>658.44</ele>
  <time>2026-09-01T19:59:43Z</time>
  <course>295.86</course>
  <speed>0.022360679774997897</speed>
  <fix>3d</fix>
</trkpt>
<trkpt lat="-35.2750209" lon="148.9863591">
  <ele>658.51</ele>
  <time>2026-09-01T19:59:43Z</time>
  <course>288.68</course>
  <speed>0.04</speed>
  <fix>3d</fix>
</trkpt>
<trkpt lat="-35.2750207" lon="148.9863593">
  <ele>658.44</ele>
  <time>2026-09-01T19:59:43Z</time>
  <course>295.86</course>
  <speed>0.022360679774997897</speed>
  <fix>3d</fix>
</trkpt>
<trkpt lat="-35.2750209" lon="148.986359">
  <ele>658.51</ele>
  <time>2026-09-01T19:59:43Z</time>
  <course>289.99</course>
  <speed>0.04</speed>
  <fix>3d</fix>
</trkpt>
<trkpt lat="-35.2750207" lon="148.9863592">
  <ele>658.44</ele>
  <time>2026-09-01T19:59:43Z</time>
  <course>295.85</course>
  <speed>0.022360679774997897</speed>
  <fix>3d</fix>
</trkpt>
<trkpt lat="-35.2750209" lon="148.986359">
  <ele>658.51</ele>
  <time>2026-09-01T19:59:43Z</time>
  <course>289.99</course>
  <speed>0.04</speed>
  <fix>3d</fix>
</trkpt>
<trkpt lat="-35.2750207" lon="148.9863592">
  <ele>658.43</ele>
  <time>2026-09-01T19:59:43Z</time>
  <course>295.84</course>
  <speed>0.02</speed>
  <fix>3d</fix>
</trkpt>
<trkpt lat="-35.2750209" lon="148.9863589">
  <ele>658.5</ele>
  <time>2026-09-01T19:59:43Z</time>
  <course>291.21</course>
  <speed>0.03</speed>
  <fix>3d</fix>
</trkpt>
<trkpt lat="-35.2750207" lon="148.9863591">
  <ele>658.43</ele>
  <time>2026-09-01T19:59:43Z</time>
  <course>295.83</course>
  <speed>0.02</speed>
  <fix>3d</fix>
</trkpt>
<trkpt lat="-35.2750209" lon="148.9863589">
  <ele>658.5</ele>
  <time>2026-09-01T19:59:43Z</time>
  <course>291.21</course>
  <speed>0.03</speed>
  <fix>3d</fix>
</trkpt>
<trkpt lat="-35.2750207" lon="148.9863591">
  <ele>658.43</ele>
  <time>2026-09-01T19:59:43Z</time>
  <course>295.83</course>
  <speed>0.02</speed>
  <fix>3d</fix>
</trkpt>
<trkpt lat="-35.2750209" lon="148.9863588">
  <ele>658.5</ele>
  <time>2026-09-01T19:59:43Z</time>
  <course>292.17</course>
  <speed>0.03</speed>
  <fix>3d</fix>
</trkpt>
<trkpt lat="-35.2750207" lon="148.9863591">
  <ele>658.43</ele>
  <time>2026-09-01T19:59:43Z</time>
  <course>295.84</course>
  <speed>0.02</speed>
  <fix>3d</fix>
</trkpt>
<trkpt lat="-35.2750209" lon="148.9863588">
  <ele>658.5</ele>
  <time>2026-09-01T19:59:43Z</time>
  <course>292.17</course>
  <speed>0.03</speed>
  <fix>3d</fix>
</trkpt>
<trkpt lat="-35.2750207" lon="148.986359">
  <ele>658.43</ele>
  <time>2026-09-01T19:59:43Z</time>
  <course>295.84</course>
  <speed>0.02</speed>
  <fix>3d</fix>
</trkpt>
<trkpt lat="-35.2750209" lon="148.9863588">
  <ele>658.5</ele>
  <time>2026-09-01T19:59:43Z</time>
  <course>293.45</course>
  <speed>0.03</speed>
  <fix>3d</fix>
</trkpt>
<trkpt lat="-35.2750207" lon="148.986359">
  <ele>658.43</ele>
  <time>2026-09-01T19:59:43Z</time>
  <course>295.85</course>
  <speed>0.02</speed>
  <fix>3d</fix>
</trkpt>
<trkpt lat="-35.2750209" lon="148.9863588">
  <ele>658.5</ele>
  <time>2026-09-01T19:59:43Z</time>
  <course>293.45</course>
  <speed>0.03</speed>
  <fix>3d</fix>
</trkpt>
<trkpt lat="-35.2750207" lon="148.986359">
  <ele>658.43</ele>
  <time>2026-09-01T19:59:43Z</time>
  <course>295.85</course>
  <speed>0.02</speed>
  <fix>3d</fix>
</trkpt>
<trkpt lat="-35.2750208" lon="148.9863587">
  <ele>658.5</ele>
  <time>2026-09-01T19:59:43Z</time>
  <course>295.66</course>
  <speed>0.03</speed>
  <fix>3d</fix>
</trkpt>
<trkpt lat="-35.2750207" lon="148.9863589">
  <ele>658.42</ele>
  <time>2026-09-01T19:59:43Z</time>
  <course>295.85</course>
  <speed>0.02</speed>
  <fix>3d</fix>
</trkpt>
<trkpt lat="-35.2750208" lon="148.9863587">
  <ele>658.5</ele>
  <time>2026-09-01T19:59:43Z</time>
  <course>295.66</course>
  <speed>0.03</speed>
  <fix>3d</fix>
</trkpt>
<trkpt lat="-35.2750207" lon="148.9863589">
  <ele>658.42</ele>
  <time>2026-09-01T19:59:43Z</time>
  <course>295.86</course>
  <speed>0.02</speed>
  <fix>3d</fix>
</trkpt>
<trkpt lat="-35.2750208" lon="148.9863586">
  <ele>658.5</ele>
  <time>2026-09-01T19:59:43Z</time>
  <course>299.47</course>
  <speed>0.02</speed>
  <fix>3d</fix>
</trkpt>
<trkpt lat="-35.2750207" lon="148.9863589">
  <ele>658.42</ele>
  <time>2026-09-01T19:59:43Z</time>
  <course>295.86</course>
  <speed>0.02</speed>
  <fix>3d</fix>
</trkpt>
<trkpt lat="-35.2750208" lon="148.9863586">
  <ele>658.5</ele>
  <time>2026-09-01T19:59:43Z</time>
  <course>299.47</course>
  <speed>0.02</speed>
  <fix>3d</fix>
</trkpt>
<trkpt lat="-35.2750207" lon="148.9863589">
  <ele>658.43</ele>
  <time>2026-09-01T19:59:43Z</time>
  <course>295.87</course>
  <speed>0.022360679774997897</speed>
  <fix>3d</fix>
</trkpt>
<trkpt lat="-35.2750208" lon="148.9863586">
  <ele>658.5</ele>
  <time>2026-09-01T19:59:43Z</time>
  <course>305.86</course>
  <speed>0.02</speed>
  <fix>3d</fix>
</trkpt>
<trkpt lat="-35.2750207" lon="148.9863589">
  <ele>658.43</ele>
  <time>2026-09-01T19:59:43Z</time>
  <course>295.87</course>
  <speed>0.01414213562373095</speed>
  <fix>3d</fix>
</trkpt>
<trkpt lat="-35.2750208" lon="148.9863586">
  <ele>658.5</ele>
  <time>2026-09-01T19:59:43Z</time>
  <course>305.86</course>
  <speed>0.02</speed>
  <fix>3d</fix>
</trkpt>
<trkpt lat="-35.2750207" lon="148.9863589">
  <ele>658.42</ele>
  <time>2026-09-01T19:59:43Z</time>
  <course>295.86</course>
  <speed>0.01414213562373095</speed>
  <fix>3d</fix>
</trkpt>
<trkpt lat="-35.2750208" lon="148.9863586">
  <ele>658.5</ele>
  <time>2026-09-01T19:59:43Z</time>
  <course>315.69</course>
  <speed>0.01</speed>
  <fix>3d</fix>
</trkpt>
<trkpt lat="-35.2750207" lon="148.9863588">
  <ele>658.42</ele>
  <time>2026-09-01T19:59:43Z</time>
  <course>295.85</course>
  <speed>0.01414213562373095</speed>
  <fix>3d</fix>
</trkpt>
<trkpt lat="-35.2750208" lon="148.9863586">
  <ele>658.5</ele>
  <time>2026-09-01T19:59:43Z</time>
  <course>315.69</course>
  <speed>0.01</speed>
  <fix>3d</fix>
</trkpt>
<trkpt lat="-35.2750207" lon="148.9863588">
  <ele>658.42</ele>
  <time>2026-09-01T19:59:43Z</time>
  <course>295.83</course>
  <speed>0.01414213562373095</speed>
  <fix>3d</fix>
</trkpt>
<trkpt lat="-35.2750207" lon="148.9863586">
  <ele>658.51</ele>
  <time>2026-09-01T19:59:43Z</time>
  <course>327.9</course>
  <speed>0.01</speed>
  <fix>3d</fix>
</trkpt>
<trkpt lat="-35.2750207" lon="148.9863588">
  <ele>658.42</ele>
  <time>2026-09-01T19:59:43Z</time>
  <course>295.83</course>
  <speed>0.022360679774997897</speed>
  <fix>3d</fix>
</trkpt>
<trkpt lat="-35.2750207" lon="148.9863586">
  <ele>658.51</ele>
  <time>2026-09-01T19:59:43Z</time>
  <course>327.9</course>
  <speed>0.01</speed>
  <fix>3d</fix>
</trkpt>
<trkpt lat="-35.2750207" lon="148.9863588">
  <ele>658.42</ele>
  <time>2026-09-01T19:59:43Z</time>
  <course>295.84</course>
  <speed>0.022360679774997897</speed>
  <fix>3d</fix>
</trkpt>
<trkpt lat="-35.2750207" lon="148.9863586">
  <ele>658.51</ele>
  <time>2026-09-01T19:59:43Z</time>
  <course>331.01</course>
  <speed>0.01</speed>
  <fix>3d</fix>
</trkpt>
<trkpt lat="-35.2750206" lon="148.9863588">
  <ele>658.43</ele>
  <time>2026-09-01T19:59:43Z</time>
  <course>295.88</course>
  <speed>0.05</speed>
  <fix>3d</fix>
</trkpt>
<trkpt lat="-35.2750207" lon="148.9863586">
  <ele>658.51</ele>
  <time>2026-09-01T19:59:43Z</time>
  <course>331.01</course>
  <speed>0.01</speed>
  <fix>3d</fix>
</trkpt>
<trkpt lat="-35.2750206" lon="148.9863587">
  <ele>658.43</ele>
  <time>2026-09-01T19:59:43Z</time>
  <course>295.93</course>
  <speed>0.15</speed>
  <fix>3d</fix>
</trkpt>
<trkpt lat="-35.2750206" lon="148.9863585">
  <ele>658.51</ele>
  <time>2026-09-01T19:59:43Z</time>
  <course>302.77</course>
  <speed>0.09</speed>
  <fix>3d</fix>
</trkpt>
<trkpt lat="-35.2750205" lon="148.9863584">
  <ele>658.43</ele>
  <time>2026-09-01T19:59:43Z</time>
  <course>295.95</course>
  <speed>0.31906112267087633</speed>
  <fix>3d</fix>
</trkpt>
<trkpt lat="-35.2750206" lon="148.9863585">
  <ele>658.51</ele>
  <time>2026-09-01T19:59:43Z</time>
  <course>302.77</course>
  <speed>0.09</speed>
  <fix>3d</fix>
</trkpt>
<trkpt lat="-35.2750203" lon="148.986358">
  <ele>658.43</ele>
  <time>2026-09-01T19:59:43Z</time>
  <course>295.88</course>
  <speed>0.5507267925205745</speed>
  <fix>3d</fix>
</trkpt>
<trkpt lat="-35.2750204" lon="148.986358">
  <ele>658.51</ele>
  <time>2026-09-01T19:59:43Z</time>
  <course>297.79</course>
  <speed>0.37</speed>
  <fix>3d</fix>
</trkpt>
<trkpt lat="-35.27502" lon="148.9863573">
  <ele>658.43</ele>
  <time>2026-09-01T19:59:43Z</time>
  <course>295.78</course>
  <speed>0.85</speed>
  <fix>3d</fix>
</trkpt>
<trkpt lat="-35.2750204" lon="148.986358">
  <ele>658.51</ele>
  <time>2026-09-01T19:59:43Z</time>
  <course>297.79</course>
  <speed>0.37</speed>
  <fix>3d</fix>
</trkpt>
<trkpt lat="-35.2750196" lon="148.9863562">
  <ele>658.44</ele>
  <time>2026-09-01T19:59:43Z</time>
  <course>295.6</course>
  <speed>1.2074767078498865</speed>
  <fix>3d</fix>
</trkpt>
<trkpt lat="-35.27502" lon="148.9863568">
  <ele>658.52</ele>
  <time>2026-09-01T19:59:43Z</time>
  <course>296.05</course>
  <speed>0.89</speed>
  <fix>3d</fix>
</trkpt>
<trkpt lat="-35.275019" lon="148.9863548">
  <ele>658.44</ele>
  <time>2026-09-01T19:59:43Z</time>
  <course>295.32</course>
  <speed>1.6324827717314507</speed>
  <fix>3d</fix>
</trkpt>
<trkpt lat="-35.27502" lon="148.9863568">
  <ele>658.52</ele>
  <time>2026-09-01T19:59:43Z</time>
  <course>296.05</course>
  <speed>0.89</speed>
  <fix>3d</fix>
</trkpt>
<trkpt lat="-35.2750183" lon="148.9863529">
  <ele>658.44</ele>
  <time>2026-09-01T19:59:43Z</time>
  <course>295.09</course>
  <speed>2.1071782079359114</speed>
  <fix>3d</fix>
</trkpt>
<trkpt lat="-35.275019" lon="148.9863543">
  <ele>658.52</ele>
  <time>2026-09-01T19:59:43Z</time>
  <course>294.78</course>
  <speed>1.66</speed>
  <fix>3d</fix>
</trkpt>
<trkpt lat="-35.2750174" lon="148.9863505">
  <ele>658.44</ele>
  <time>2026-09-01T19:59:43Z</time>
  <course>294.85</course>
  <speed>2.649169681239765</speed>
  <fix>3d</fix>
</trkpt>
<trkpt lat="-35.275019" lon="148.9863543">
  <ele>658.52</ele>
  <time>2026-09-01T19:59:43Z</time>
  <course>294.78</course>
  <speed>1.66</speed>
  <fix>3d</fix>
</trkpt>
<trkpt lat="-35.2750163" lon="148.9863475">
  <ele>658.44</ele>
  <time>2026-09-01T19:59:43Z</time>
  <course>294.5</course>
  <speed>3.2369275555687063</speed>
  <fix>3d</fix>
</trkpt>
<trkpt lat="-35.2750174" lon="148.98635">
  <ele>658.52</ele>
  <time>2026-09-01T19:59:43Z</time>
  <course>293.66</course>
  <speed>2.67</speed>
  <fix>3d</fix>
</trkpt>
<trkpt lat="-35.2750151" lon="148.9863439">
  <ele>658.44</ele>
  <time>2026-09-01T19:59:43Z</time>
  <course>294.07</course>
  <speed>3.8394009949469985</speed>
  <fix>3d</fix>
</trkpt>
<trkpt lat="-35.2750174" lon="148.98635">
  <ele>658.52</ele>
  <time>2026-09-01T19:59:43Z</time>
  <course>293.66</course>
  <speed>2.67</speed>
  <fix>3d</fix>
</trkpt>
<trkpt lat="-35.2750136" lon="148.9863397">
  <ele>658.45</ele>
  <time>2026-09-01T19:59:43Z</time>
  <course>293.55</course>
  <speed>4.460773475530897</speed>
  <fix>3d</fix>
</trkpt>
<trkpt lat="-35.2750151" lon="148.9863434">
  <ele>658.52</ele>
  <time>2026-09-01T19:59:43Z</time>
  <course>292.51</course>
  <speed>3.84</speed>
  <fix>3d</fix>
</trkpt>
<trkpt lat="-35.275012" lon="148.9863348">
  <ele>658.45</ele>
  <time>2026-09-01T19:59:43Z</time>
  <course>292.88</course>
  <speed>5.062054918706433</speed>
  <fix>3d</fix>
</trkpt>
<trkpt lat="-35.2750151" lon="148.9863434">
  <ele>658.52</ele>
  <time>2026-09-01T19:59:43Z</time>
  <course>292.51</course>
  <speed>3.84</speed>
  <fix>3d</fix>
</trkpt>
<trkpt lat="-35.2750103" lon="148.9863292">
  <ele>658.46</ele>
  <time>2026-09-01T19:59:43Z</time>
  <course>292.1</course>
  <speed>5.679049216198077</speed>
  <fix>3d</fix>
</trkpt>
<trkpt lat="-35.2750121" lon="148.9863343">
  <ele>658.53</ele>
  <time>2026-09-01T19:59:43Z</time>
  <course>291.17</course>
  <speed>5.06</speed>
  <fix>3d</fix>
</trkpt>
<trkpt lat="-35.2750084" lon="148.986323">
  <ele>658.46</ele>
  <time>2026-09-01T19:59:43Z</time>
  <course>291.18</course>
  <speed>6.282961085348213</speed>
  <fix>3d</fix>
</trkpt>
<trkpt lat="-35.2750121" lon="148.9863343">
  <ele>658.53</ele>
  <time>2026-09-01T19:59:43Z</time>
  <course>291.17</course>
  <speed>5.06</speed>
  <fix>3d</fix>
</trkpt>
<trkpt lat="-35.2750065" lon="148.9863162">
  <ele>658.47</ele>
  <time>2026-09-01T19:59:43Z</time>
  <course>290.27</course>
  <speed>6.897311070264991</speed>
  <fix>3d</fix>
</trkpt>
<trkpt lat="-35.2750086" lon="148.9863226">
  <ele>658.54</ele>
  <time>2026-09-01T19:59:43Z</time>
  <course>289.5</course>
  <speed>6.28</speed>
  <fix>3d</fix>
</trkpt>
<trkpt lat="-35.2750044" lon="148.9863086">
  <ele>658.47</ele>
  <time>2026-09-01T19:59:43Z</time>
  <course>289.29</course>
  <speed>7.507462953621549</speed>
  <fix>3d</fix>
</trkpt>
<trkpt lat="-35.2750086" lon="148.9863226">
  <ele>658.54</ele>
  <time>2026-09-01T19:59:43Z</time>
  <course>289.5</course>
  <speed>6.28</speed>
  <fix>3d</fix>
</trkpt>
<trkpt lat="-35.2750024" lon="148.9863004">
  <ele>658.47</ele>
  <time>2026-09-01T19:59:43Z</time>
  <course>288.17</course>
  <speed>8.117598166945688</speed>
  <fix>3d</fix>
</trkpt>
<trkpt lat="-35.2750047" lon="148.9863082">
  <ele>658.56</ele>
  <time>2026-09-01T19:59:43Z</time>
  <course>287.51</course>
  <speed>7.51</speed>
  <fix>3d</fix>
</trkpt>
<trkpt lat="-35.2750003" lon="148.9862915">
  <ele>658.48</ele>
  <time>2026-09-01T19:59:43Z</time>
  <course>286.99</course>
  <speed>8.719839448063249</speed>
  <fix>3d</fix>
</trkpt>
<trkpt lat="-35.2750047" lon="148.9863082">
  <ele>658.56</ele>
  <time>2026-09-01T19:59:43Z</time>
  <course>287.51</course>
  <speed>7.51</speed>
  <fix>3d</fix>
</trkpt>
<trkpt lat="-35.2749982" lon="148.9862818">
  <ele>658.48</ele>
  <time>2026-09-01T19:59:43Z</time>
  <course>285.67</course>
  <speed>9.328000857632894</speed>
  <fix>3d</fix>
</trkpt>
<trkpt lat="-35.2750006" lon="148.9862911">
  <ele>658.57</ele>
  <time>2026-09-01T19:59:43Z</time>
  <course>285.2</course>
  <speed>8.72</speed>
  <fix>3d</fix>
</trkpt>
<trkpt lat="-35.2749963" lon="148.9862715">
  <ele>658.49</ele>
  <time>2026-09-01T19:59:43Z</time>
  <course>284.32</course>
  <speed>9.917101391031554</speed>
  <fix>3d</fix>
</trkpt>
<trkpt lat="-35.2750006" lon="148.9862911">
  <ele>658.57</ele>
  <time>2026-09-01T19:59:43Z</time>
  <course>285.2</course>
  <speed>8.72</speed>
  <fix>3d</fix>
</trkpt>
<trkpt lat="-35.2749944" lon="148.9862605">
  <ele>658.49</ele>
  <time>2026-09-01T19:59:43Z</time>
  <course>282.96</course>
  <speed>10.496142148427678</speed>
  <fix>3d</fix>
</trkpt>
<trkpt lat="-35.2749965" lon="148.9862711">
  <ele>658.57</ele>
  <time>2026-09-01T19:59:43Z</time>
  <course>282.55</course>
  <speed>9.92</speed>
  <fix>3d</fix>
</trkpt>
<trkpt lat="-35.2749927" lon="148.9862489">
  <ele>658.5</ele>
  <time>2026-09-01T19:59:43Z</time>
  <course>281.48</course>
  <speed>11.054505868649219</speed>
  <fix>3d</fix>
</trkpt>
<trkpt lat="-35.2749965" lon="148.9862711">
  <ele>658.57</ele>
  <time>2026-09-01T19:59:43Z</time>
  <course>282.55</course>
  <speed>9.92</speed>
  <fix>3d</fix>
</trkpt>
<trkpt lat="-35.2749911" lon="148.9862366">
  <ele>658.51</ele>
  <time>2026-09-01T19:59:43Z</time>
  <course>279.79</course>
  <speed>11.61362131292389</speed>
  <fix>3d</fix>
</trkpt>
<trkpt lat="-35.2749929" lon="148.9862484">
  <ele>658.58</ele>
  <time>2026-09-01T19:59:43Z</time>
  <course>279.66</course>
  <speed>11.07</speed>
  <fix>3d</fix>
</trkpt>
<trkpt lat="-35.2749897" lon="148.9862236">
  <ele>658.53</ele>
  <time>2026-09-01T19:59:43Z</time>
  <course>278.03</course>
  <speed>12.155595419394313</speed>
  <fix>3d</fix>
</trkpt>
<trkpt lat="-35.2749929" lon="148.9862484">
  <ele>658.58</ele>
  <time>2026-09-01T19:59:43Z</time>
  <course>279.66</course>
  <speed>11.07</speed>
  <fix>3d</fix>
</trkpt>
<trkpt lat="-35.2749886" lon="148.98621">
  <ele>658.54</ele>
  <time>2026-09-01T19:59:43Z</time>
  <course>276.43</course>
  <speed>12.693116244642212</speed>
  <fix>3d</fix>
</trkpt>
<trkpt lat="-35.27499" lon="148.9862231">
  <ele>658.6</ele>
  <time>2026-09-01T19:59:43Z</time>
  <course>276.63</course>
  <speed>12.16</speed>
  <fix>3d</fix>
</trkpt>
<trkpt lat="-35.2749877" lon="148.9861956">
  <ele>658.57</ele>
  <time>2026-09-01T19:59:43Z</time>
  <course>274.8</course>
  <speed>13.20610843511441</speed>
  <fix>3d</fix>
</trkpt>
<trkpt lat="-35.27499" lon="148.9862231">
  <ele>658.6</ele>
  <time>2026-09-01T19:59:43Z</time>
  <course>276.63</course>
  <speed>12.16</speed>
  <fix>3d</fix>
</trkpt>
<trkpt lat="-35.2749872" lon="148.9861808">
  <ele>658.59</ele>
  <time>2026-09-01T19:59:43Z</time>
  <course>273.28</course>
  <speed>13.709121051329294</speed>
  <fix>3d</fix>
</trkpt>
<trkpt lat="-35.274988" lon="148.9861953">
  <ele>658.64</ele>
  <time>2026-09-01T19:59:43Z</time>
  <course>273.53</course>
  <speed>13.2</speed>
  <fix>3d</fix>
</trkpt>
<trkpt lat="-35.2749869" lon="148.9861654">
  <ele>658.62</ele>
  <time>2026-09-01T19:59:43Z</time>
  <course>271.87</course>
  <speed>14.190690610396661</speed>
  <fix>3d</fix>
</trkpt>
<trkpt lat="-35.274988" lon="148.9861953">
  <ele>658.64</ele>
  <time>2026-09-01T19:59:43Z</time>
  <course>273.53</course>
  <speed>13.2</speed>
  <fix>3d</fix>
</trkpt>
<trkpt lat="-35.274987" lon="148.9861495">
  <ele>658.65</ele>
  <time>2026-09-01T19:59:43Z</time>
  <course>270.55</course>
  <speed>14.661504015618588</speed>
  <fix>3d</fix>
</trkpt>
<trkpt lat="-35.2749871" lon="148.9861651">
  <ele>658.68</ele>
  <time>2026-09-01T19:59:43Z</time>
  <course>270.51</course>
  <speed>14.18</speed>
  <fix>3d</fix>
</trkpt>
<trkpt lat="-35.2749874" lon="148.9861331">
  <ele>658.69</ele>
  <time>2026-09-01T19:59:43Z</time>
  <course>269.22</course>
  <speed>15.11113496730143</speed>
  <fix>3d</fix>
</trkpt>
<trkpt lat="-35.2749871" lon="148.9861651">
  <ele>658.68</ele>
  <time>2026-09-01T19:59:43Z</time>
  <course>270.51</course>
  <speed>14.18</speed>
  <fix>3d</fix>
</trkpt>
<trkpt lat="-35.2749881" lon="148.9861162">
  <ele>658.72</ele>
  <time>2026-09-01T19:59:43Z</time>
  <course>267.85</course>
  <speed>15.560263493912949</speed>
  <fix>3d</fix>
</trkpt>
<trkpt lat="-35.2749875" lon="148.9861328">
  <ele>658.75</ele>
  <time>2026-09-01T19:59:43Z</time>
  <course>267.68</course>
  <speed>15.11</speed>
  <fix>3d</fix>
</trkpt>
<trkpt lat="-35.2749891" lon="148.9860989">
  <ele>658.75</ele>
  <time>2026-09-01T19:59:43Z</time>
  <course>266.43</course>
  <speed>15.997065355870745</speed>
  <fix>3d</fix>
</trkpt>
<trkpt lat="-35.2749875" lon="148.9861328">
  <ele>658.75</ele>
  <time>2026-09-01T19:59:43Z</time>
  <course>267.68</course>
  <speed>15.11</speed>
  <fix>3d</fix>
</trkpt>
<trkpt lat="-35.2749905" lon="148.9860811">
  <ele>658.78</ele>
  <time>2026-09-01T19:59:43Z</time>
  <course>265.18</course>
  <speed>16.412495239907916</speed>
  <fix>3d</fix>
</trkpt>
<trkpt lat="-35.2749893" lon="148.9860987">
  <ele>658.81</ele>
  <time>2026-09-01T19:59:43Z</time>
  <course>265.06</course>
  <speed>15.99</speed>
  <fix>3d</fix>
</trkpt>
<trkpt lat="-35.2749923" lon="148.986063">
  <ele>658.8</ele>
  <time>2026-09-01T19:59:43Z</time>
  <course>264.04</course>
  <speed>16.778322323760502</speed>
  <fix>3d</fix>
</trkpt>
<trkpt lat="-35.2749893" lon="148.9860987">
  <ele>658.81</ele>
  <time>2026-09-01T19:59:43Z</time>
  <course>265.06</course>
  <speed>15.99</speed>
  <fix>3d</fix>
</trkpt>
<trkpt lat="-35.2749944" lon="148.9860445">
  <ele>658.83</ele>
  <time>2026-09-01T19:59:43Z</time>
  <course>262.89</course>
  <speed>17.102681076369283</speed>
  <fix>3d</fix>
</trkpt>
<trkpt lat="-35.2749924" lon="148.9860628">
  <ele>658.87</ele>
  <time>2026-09-01T19:59:43Z</time>
  <course>262.56</course>
  <speed>16.77</speed>
  <fix>3d</fix>
</trkpt>
<trkpt lat="-35.274997" lon="148.9860258">
  <ele>658.85</ele>
  <time>2026-09-01T19:59:43Z</time>
  <course>261.64</course>
  <speed>17.377422133331514</speed>
  <fix>3d</fix>
</trkpt>
<trkpt lat="-35.2749924" lon="148.9860628">
  <ele>658.87</ele>
  <time>2026-09-01T19:59:43Z</time>
  <course>262.56</course>
  <speed>16.77</speed>
  <fix>3d</fix>
</trkpt>
<trkpt lat="-35.2749998" lon="148.9860068">
  <ele>658.88</ele>
  <time>2026-09-01T19:59:43Z</time>
  <course>260.42</course>
  <speed>17.630938715791626</speed>
  <fix>3d</fix>
</trkpt>
<trkpt lat="-35.274997" lon="148.9860257">
  <ele>658.93</ele>
  <time>2026-09-01T19:59:43Z</time>
  <course>260.07</course>
  <speed>17.38</speed>
  <fix>3d</fix>
</trkpt>
<trkpt lat="-35.2750031" lon="148.9859877">
  <ele>658.91</ele>
  <time>2026-09-01T19:59:43Z</time>
  <course>259.23</course>
  <speed>17.84155262302023</speed>
  <fix>3d</fix>
</trkpt>
<trkpt lat="-35.274997" lon="148.9860257">
  <ele>658.93</ele>
  <time>2026-09-01T19:59:43Z</time>
  <course>260.07</course>
  <speed>17.38</speed>
  <fix>3d</fix>
</trkpt>
<trkpt lat="-35.2750067" lon="148.9859684">
  <ele>658.94</ele>
  <time>2026-09-01T19:59:43Z</time>
  <course>258.06</course>
  <speed>18.0525732237817</speed>
  <fix>3d</fix>
</trkpt>
<trkpt lat="-35.2750032" lon="148.9859877">
  <ele>658.99</ele>
  <time>2026-09-01T19:59:43Z</time>
  <course>257.62</course>
  <speed>17.85</speed>
  <fix>3d</fix>
</trkpt>
<trkpt lat="-35.2750107" lon="148.985949">
  <ele>658.97</ele>
  <time>2026-09-01T19:59:43Z</time>
  <course>256.93</course>
  <speed>18.259386627157003</speed>
  <fix>3d</fix>
</trkpt>
<trkpt lat="-35.2750032" lon="148.9859877">
  <ele>658.99</ele>
  <time>2026-09-01T19:59:43Z</time>
  <course>257.62</course>
  <speed>17.85</speed>
  <fix>3d</fix>
</trkpt>
<trkpt lat="-35.2750151" lon="148.9859295">
  <ele>658.99</ele>
  <time>2026-09-01T19:59:43Z</time>
  <course>255.64</course>
  <speed>18.45988624016952</speed>
  <fix>3d</fix>
</trkpt>
<trkpt lat="-35.2750107" lon="148.985949">
  <ele>659.04</ele>
  <time>2026-09-01T19:59:43Z</time>
  <course>255.22</course>
  <speed>18.27</speed>
  <fix>3d</fix>
</trkpt>
<trkpt lat="-35.2750199" lon="148.9859098">
  <ele>659.0</ele>
  <time>2026-09-01T19:59:43Z</time>
  <course>254.28</course>
  <speed>18.67447455753441</speed>
  <fix>3d</fix>
</trkpt>
<trkpt lat="-35.2750107" lon="148.985949">
  <ele>659.04</ele>
  <time>2026-09-01T19:59:43Z</time>
  <course>255.22</course>
  <speed>18.27</speed>
  <fix>3d</fix>
</trkpt>
<trkpt lat="-35.2750251" lon="148.9858901">
  <ele>659.01</ele>
  <time>2026-09-01T19:59:43Z</time>
  <course>252.85</course>
  <speed>18.875648333236132</speed>
  <fix>3d</fix>
</trkpt>
<trkpt lat="-35.27502" lon="148.9859099">
  <ele>659.08</ele>
  <time>2026-09-01T19:59:43Z</time>
  <course>252.74</course>
  <speed>18.68</speed>
  <fix>3d</fix>
</trkpt>
<trkpt lat="-35.2750307" lon="148.9858704">
  <ele>659.0</ele>
  <time>2026-09-01T19:59:43Z</time>
  <course>251.35</course>
  <speed>19.081236857185125</speed>
  <fix>3d</fix>
</trkpt>
<trkpt lat="-35.27502" lon="148.9859099">
  <ele>659.08</ele>
  <time>2026-09-01T19:59:43Z</time>
  <course>252.74</course>
  <speed>18.68</speed>
  <fix>3d</fix>
</trkpt>
<trkpt lat="-35.2750368" lon="148.9858506">
  <ele>658.99</ele>
  <time>2026-09-01T19:59:43Z</time>
  <course>249.74</course>
  <speed>19.27187588170908</speed>
  <fix>3d</fix>
</trkpt>
<trkpt lat="-35.2750308" lon="148.9858705">
  <ele>659.08</ele>
  <time>2026-09-01T19:59:43Z</time>
  <course>250.0</course>
  <speed>19.08</speed>
  <fix>3d</fix>
</trkpt>
<trkpt lat="-35.2750435" lon="148.9858308">
  <ele>658.97</ele>
  <time>2026-09-01T19:59:43Z</time>
  <course>247.99</course>
  <speed>19.48065707310716</speed>
  <fix>3d</fix>
</trkpt>
<trkpt lat="-35.2750308" lon="148.9858705">
  <ele>659.08</ele>
  <time>2026-09-01T19:59:43Z</time>
  <course>250.0</course>
  <speed>19.08</speed>
  <fix>3d</fix>
</trkpt>
<trkpt lat="-35.2750507" lon="148.9858109">
  <ele>658.94</ele>
  <time>2026-09-01T19:59:43Z</time>
  <course>246.18</course>
  <speed>19.6769128676223</speed>
  <fix>3d</fix>
</trkpt>
<trkpt lat="-35.2750435" lon="148.985831">
  <ele>659.04</ele>
  <time>2026-09-01T19:59:43Z</time>
  <course>246.84</course>
  <speed>19.48</speed>
  <fix>3d</fix>
</trkpt>
<trkpt lat="-35.2750584" lon="148.9857914">
  <ele>658.9</ele>
  <time>2026-09-01T19:59:43Z</time>
  <course>244.31</course>
  <speed>19.87433520900762</speed>
  <fix>3d</fix>
</trkpt>
<trkpt lat="-35.2750435" lon="148.985831">
  <ele>659.04</ele>
  <time>2026-09-01T19:59:43Z</time>
  <course>246.84</course>
  <speed>19.48</speed>
  <fix>3d</fix>
</trkpt>
<trkpt lat="-35.2750668" lon="148.985772">
  <ele>658.85</ele>
  <time>2026-09-01T19:59:43Z</time>
  <course>242.35</course>
  <speed>20.064030003964806</speed>
  <fix>3d</fix>
</trkpt>
<trkpt lat="-35.2750584" lon="148.9857918">
  <ele>658.98</ele>
  <time>2026-09-01T19:59:43Z</time>
  <course>243.18</course>
  <speed>19.87</speed>
  <fix>3d</fix>
</trkpt>
<trkpt lat="-35.2750758" lon="148.9857528">
  <ele>658.8</ele>
  <time>2026-09-01T19:59:43Z</time>
  <course>240.36</course>
  <speed>20.240281618594146</speed>
  <fix>3d</fix>
</trkpt>
<trkpt lat="-35.2750584" lon="148.9857918">
  <ele>658.98</ele>
  <time>2026-09-01T19:59:43Z</time>
  <course>243.18</course>
  <speed>19.87</speed>
  <fix>3d</fix>
</trkpt>
<trkpt lat="-35.2750854" lon="148.9857339">
  <ele>658.75</ele>
  <time>2026-09-01T19:59:43Z</time>
  <course>238.3</course>
  <speed>20.433709893213223</speed>
  <fix>3d</fix>
</trkpt>
<trkpt lat="-35.2750758" lon="148.985753">
  <ele>658.88</ele>
  <time>2026-09-01T19:59:43Z</time>
  <course>239.11</course>
  <speed>20.25</speed>
  <fix>3d</fix>
</trkpt>
<trkpt lat="-35.2750957" lon="148.9857153">
  <ele>658.69</ele>
  <time>2026-09-01T19:59:43Z</time>
  <course>236.2</course>
  <speed>20.62027157920089</speed>
  <fix>3d</fix>
</trkpt>
<trkpt lat="-35.2750758" lon="148.985753">
  <ele>658.88</ele>
  <time>2026-09-01T19:59:43Z</time>
  <course>239.11</course>
  <speed>20.25</speed>
  <fix>3d</fix>
</trkpt>
<trkpt lat="-35.2751067" lon="148.985697">
  <ele>658.62</ele>
  <time>2026-09-01T19:59:43Z</time>
  <course>234.1</course>
  <speed>20.79910094210805</speed>
  <fix>3d</fix>
</trkpt>
<trkpt lat="-35.2750958" lon="148.9857153">
  <ele>658.77</ele>
  <time>2026-09-01T19:59:43Z</time>
  <course>234.79</course>
  <speed>20.62</speed>
  <fix>3d</fix>
</trkpt>
<trkpt lat="-35.2751184" lon="148.9856791">
  <ele>658.55</ele>
  <time>2026-09-01T19:59:43Z</time>
  <course>231.94</course>
  <speed>20.98529246877441</speed>
  <fix>3d</fix>
</trkpt>
<trkpt lat="-35.2750958" lon="148.9857153">
  <ele>658.77</ele>
  <time>2026-09-01T19:59:43Z</time>
  <course>234.79</course>
  <speed>20.62</speed>
  <fix>3d</fix>
</trkpt>
<trkpt lat="-35.2751307" lon="148.9856616">
  <ele>658.47</ele>
  <time>2026-09-01T19:59:43Z</time>
  <course>229.81</course>
  <speed>21.17274191029589</speed>
  <fix>3d</fix>
</trkpt>
<trkpt lat="-35.2751186" lon="148.985679">
  <ele>658.63</ele>
  <time>2026-09-01T19:59:43Z</time>
  <course>230.36</course>
  <speed>20.99</speed>
  <fix>3d</fix>
</trkpt>
<trkpt lat="-35.2751438" lon="148.9856445">
  <ele>658.38</ele>
  <time>2026-09-01T19:59:43Z</time>
  <course>227.68</course>
  <speed>21.349925058416478</speed>
  <fix>3d</fix>
</trkpt>
<trkpt lat="-35.2751186" lon="148.985679">
  <ele>658.63</ele>
  <time>2026-09-01T19:59:43Z</time>
  <course>230.36</course>
  <speed>20.99</speed>
  <fix>3d</fix>
</trkpt>
<trkpt lat="-35.2751574" lon="148.9856279">
  <ele>658.28</ele>
  <time>2026-09-01T19:59:43Z</time>
  <course>225.57</course>
  <speed>21.53035067062309</speed>
  <fix>3d</fix>
</trkpt>
<trkpt lat="-35.275144" lon="148.9856443">
  <ele>658.45</ele>
  <time>2026-09-01T19:59:43Z</time>
  <course>225.91</course>
  <speed>21.36</speed>
  <fix>3d</fix>
</trkpt>
<trkpt lat="-35.2751717" lon="148.9856119">
  <ele>658.17</ele>
  <time>2026-09-01T19:59:43Z</time>
  <course>223.53</course>
  <speed>21.699873271519355</speed>
  <fix>3d</fix>
</trkpt>
<trkpt lat="-35.275144" lon="148.9856443">
  <ele>658.45</ele>
  <time>2026-09-01T19:59:43Z</time>
  <course>225.91</course>
  <speed>21.36</speed>
  <fix>3d</fix>
</trkpt>
<trkpt lat="-35.2751866" lon="148.9855963">
  <ele>658.06</ele>
  <time>2026-09-01T19:59:43Z</time>
  <course>221.49</course>
  <speed>21.88610975025027</speed>
  <fix>3d</fix>
</trkpt>
<trkpt lat="-35.275172" lon="148.9856115">
  <ele>658.25</ele>
  <time>2026-09-01T19:59:43Z</time>
  <course>221.54</course>
  <speed>21.72</speed>
  <fix>3d</fix>
</trkpt>
<trkpt lat="-35.275202" lon="148.9855814">
  <ele>657.93</ele>
  <time>2026-09-01T19:59:43Z</time>
  <course>219.42</course>
  <speed>22.05241936840491</speed>
  <fix>3d</fix>
</trkpt>
<trkpt lat="-35.275172" lon="148.9856115">
  <ele>658.25</ele>
  <time>2026-09-01T19:59:43Z</time>
  <course>221.54</course>
  <speed>21.72</speed>
  <fix>3d</fix>
</trkpt>
<trkpt lat="-35.2752181" lon="148.985567">
  <ele>657.8</ele>
  <time>2026-09-01T19:59:43Z</time>
  <course>217.41</course>
  <speed>22.22010351010994</speed>
  <fix>3d</fix>
</trkpt>
<trkpt lat="-35.2752023" lon="148.985581">
  <ele>658.01</ele>
  <time>2026-09-01T19:59:43Z</time>
  <course>217.29</course>
  <speed>22.07</speed>
  <fix>3d</fix>
</trkpt>
<trkpt lat="-35.2752346" lon="148.9855532">
  <ele>657.65</ele>
  <time>2026-09-01T19:59:43Z</time>
  <course>215.46</course>
  <speed>22.39443011107896</speed>
  <fix>3d</fix>
</trkpt>
<trkpt lat="-35.2752023" lon="148.985581">
  <ele>658.01</ele>
  <time>2026-09-01T19:59:43Z</time>
  <course>217.29</course>
  <speed>22.07</speed>
  <fix>3d</fix>
</trkpt>
<trkpt lat="-35.2752517" lon="148.98554">
  <ele>657.49</ele>
  <time>2026-09-01T19:59:43Z</time>
  <course>213.52</course>
  <speed>22.557298153812656</speed>
  <fix>3d</fix>
</trkpt>
<trkpt lat="-35.2752349" lon="148.9855528">
  <ele>657.73</ele>
  <time>2026-09-01T19:59:43Z</time>
  <course>213.17</course>
  <speed>22.41</speed>
  <fix>3d</fix>
</trkpt>
<trkpt lat="-35.2752692" lon="148.9855275">
  <ele>657.32</ele>
  <time>2026-09-01T19:59:43Z</time>
  <course>211.56</course>
  <speed>22.724260163974535</speed>
  <fix>3d</fix>
</trkpt>
<trkpt lat="-35.2752349" lon="148.9855528">
  <ele>657.73</ele>
  <time>2026-09-01T19:59:43Z</time>
  <course>213.17</course>
  <speed>22.41</speed>
  <fix>3d</fix>
</trkpt>
<trkpt lat="-35.2752873" lon="148.9855156">
  <ele>657.14</ele>
  <time>2026-09-01T19:59:43Z</time>
  <course>209.69</course>
  <speed>22.885440786666095</speed>
  <fix>3d</fix>
</trkpt>
<trkpt lat="-35.2752696" lon="148.9855271">
  <ele>657.4</ele>
  <time>2026-09-01T19:59:43Z</time>
  <course>209.21</course>
  <speed>22.74</speed>
  <fix>3d</fix>
</trkpt>
<trkpt lat="-35.2753057" lon="148.9855044">
  <ele>656.95</ele>
  <time>2026-09-01T19:59:43Z</time>
  <course>207.92</course>
  <speed>23.041035132996953</speed>
  <fix>3d</fix>
</trkpt>
<trkpt lat="-35.2752696" lon="148.9855271">
  <ele>657.4</ele>
  <time>2026-09-01T19:59:43Z</time>
  <course>209.21</course>
  <speed>22.74</speed>
  <fix>3d</fix>
</trkpt>
<trkpt lat="-35.2753246" lon="148.9854939">
  <ele>656.75</ele>
  <time>2026-09-01T19:59:43Z</time>
  <course>206.15</course>
  <speed>23.193113201983042</speed>
  <fix>3d</fix>
</trkpt>
<trkpt lat="-35.2753062" lon="148.985504">
  <ele>657.04</ele>
  <time>2026-09-01T19:59:43Z</time>
  <course>205.42</course>
  <speed>23.06</speed>
  <fix>3d</fix>
</trkpt>
<trkpt lat="-35.2753437" lon="148.9854841">
  <ele>656.55</ele>
  <time>2026-09-01T19:59:43Z</time>
  <course>204.39</course>
  <speed>23.34562057431757</speed>
  <fix>3d</fix>
</trkpt>
<trkpt lat="-35.2753062" lon="148.985504">
  <ele>657.04</ele>
  <time>2026-09-01T19:59:43Z</time>
  <course>205.42</course>
  <speed>23.06</speed>
  <fix>3d</fix>
</trkpt>
<trkpt lat="-35.2753634" lon="148.9854749">
  <ele>656.34</ele>
  <time>2026-09-01T19:59:43Z</time>
  <course>202.7</course>
  <speed>23.49571237481426</speed>
  <fix>3d</fix>
</trkpt>
<trkpt lat="-35.2753444" lon="148.9854835">
  <ele>656.64</ele>
  <time>2026-09-01T19:59:43Z</time>
  <course>201.81</course>
  <speed>23.37</speed>
  <fix>3d</fix>
</trkpt>
<trkpt lat="-35.2753833" lon="148.9854663">
  <ele>656.12</ele>
  <time>2026-09-01T19:59:43Z</time>
  <course>201.0</course>
  <speed>23.647519954532232</speed>
  <fix>3d</fix>
</trkpt>
<trkpt lat="-35.2753444" lon="148.9854835">
  <ele>656.64</ele>
  <time>2026-09-01T19:59:43Z</time>
  <course>201.81</course>
  <speed>23.37</speed>
  <fix>3d</fix>
</trkpt>
<trkpt lat="-35.2754036" lon="148.9854584">
  <ele>655.9</ele>
  <time>2026-09-01T19:59:43Z</time>
  <course>199.39</course>
  <speed>23.790502306592856</speed>
  <fix>3d</fix>
</trkpt>
<trkpt lat="-35.2753842" lon="148.9854657">
  <ele>656.21</ele>
  <time>2026-09-01T19:59:43Z</time>
  <course>198.4</course>
  <speed>23.67</speed>
  <fix>3d</fix>
</trkpt>
<trkpt lat="-35.2754244" lon="148.9854511">
  <ele>655.67</ele>
  <time>2026-09-01T19:59:43Z</time>
  <course>197.91</course>
  <speed>23.93580790364094</speed>
  <fix>3d</fix>
</trkpt>
<trkpt lat="-35.2753842" lon="148.9854657">
  <ele>656.21</ele>
  <time>2026-09-01T19:59:43Z</time>
  <course>198.4</course>
  <speed>23.67</speed>
  <fix>3d</fix>
</trkpt>
<trkpt lat="-35.2754453" lon="148.9854445">
  <ele>655.43</ele>
  <time>2026-09-01T19:59:43Z</time>
  <course>196.46</course>
  <speed>24.06479586449883</speed>
  <fix>3d</fix>
</trkpt>
<trkpt lat="-35.2754252" lon="148.9854505">
  <ele>655.76</ele>
  <time>2026-09-01T19:59:43Z</time>
  <course>195.21</course>
  <speed>23.96</speed>
  <fix>3d</fix>
</trkpt>
<trkpt lat="-35.2754666" lon="148.9854384">
  <ele>655.19</ele>
  <time>2026-09-01T19:59:43Z</time>
  <course>195.06</course>
  <speed>24.202109412197938</speed>
  <fix>3d</fix>
</trkpt>
<trkpt lat="-35.2754252" lon="148.9854505">
  <ele>655.76</ele>
  <time>2026-09-01T19:59:43Z</time>
  <course>195.21</course>
  <speed>23.96</speed>
  <fix>3d</fix>
</trkpt>
<trkpt lat="-35.2754879" lon="148.985433">
  <ele>654.94</ele>
  <time>2026-09-01T19:59:43Z</time>
  <course>193.67</course>
  <speed>24.338652386687315</speed>
  <fix>3d</fix>
</trkpt>
<trkpt lat="-35.2754672" lon="148.985438">
  <ele>655.29</ele>
  <time>2026-09-01T19:59:43Z</time>
  <course>192.28</course>
  <speed>24.23</speed>
  <fix>3d</fix>
</trkpt>
<trkpt lat="-35.2755095" lon="148.9854282">
  <ele>654.69</ele>
  <time>2026-09-01T19:59:43Z</time>
  <course>192.35</course>
  <speed>24.462640904039777</speed>
  <fix>3d</fix>
</trkpt>
<trkpt lat="-35.2754672" lon="148.985438">
  <ele>655.29</ele>
  <time>2026-09-01T19:59:43Z</time>
  <course>192.28</course>
  <speed>24.23</speed>
  <fix>3d</fix>
</trkpt>
<trkpt lat="-35.2755313" lon="148.985424">
  <ele>654.44</ele>
  <time>2026-09-01T19:59:43Z</time>
  <course>191.07</course>
  <speed>24.591976333755692</speed>
  <fix>3d</fix>
</trkpt>
<trkpt lat="-35.2755102" lon="148.9854279">
  <ele>654.8</ele>
  <time>2026-09-01T19:59:43Z</time>
  <course>189.61</course>
  <speed>24.49</speed>
  <fix>3d</fix>
</trkpt>
<trkpt lat="-35.2755532" lon="148.9854203">
  <ele>654.19</ele>
  <time>2026-09-01T19:59:43Z</time>
  <course>189.82</course>
  <speed>24.712685001836608</speed>
  <fix>3d</fix>
</trkpt>
<trkpt lat="-35.2755102" lon="148.9854279">
  <ele>654.8</ele>
  <time>2026-09-01T19:59:43Z</time>
  <course>189.61</course>
  <speed>24.49</speed>
  <fix>3d</fix>
</trkpt>
<trkpt lat="-35.2755753" lon="148.9854171">
  <ele>653.94</ele>
  <time>2026-09-01T19:59:43Z</time>
  <course>188.71</course>
  <speed>24.828622595705948</speed>
  <fix>3d</fix>
</trkpt>
<trkpt lat="-35.2755539" lon="148.9854199">
  <ele>654.31</ele>
  <time>2026-09-01T19:59:43Z</time>
  <course>187.17</course>
  <speed>24.74</speed>
  <fix>3d</fix>
</trkpt>
<trkpt lat="-35.2755976" lon="148.9854144">
  <ele>653.7</ele>
  <time>2026-09-01T19:59:43Z</time>
  <course>187.69</course>
  <speed>24.944566542636093</speed>
  <fix>3d</fix>
</trkpt>
<trkpt lat="-35.2755539" lon="148.9854199">
  <ele>654.31</ele>
  <time>2026-09-01T19:59:43Z</time>
  <course>187.17</course>
  <speed>24.74</speed>
  <fix>3d</fix>
</trkpt>
<trkpt lat="-35.27562" lon="148.9854123">
  <ele>653.45</ele>
  <time>2026-09-01T19:59:43Z</time>
  <course>186.67</course>
  <speed>25.051199572076385</speed>
  <fix>3d</fix>
</trkpt>
<trkpt lat="-35.2755983" lon="148.9854142">
  <ele>653.82</ele>
  <time>2026-09-01T19:59:43Z</time>
  <course>184.99</course>
  <speed>24.97</speed>
  <fix>3d</fix>
</trkpt>
<trkpt lat="-35.2756425" lon="148.9854105">
  <ele>653.21</ele>
  <time>2026-09-01T19:59:43Z</time>
  <course>185.67</course>
  <speed>25.15678834827689</speed>
  <fix>3d</fix>
</trkpt>
<trkpt lat="-35.2755983" lon="148.9854142">
  <ele>653.82</ele>
  <time>2026-09-01T19:59:43Z</time>
  <course>184.99</course>
  <speed>24.97</speed>
  <fix>3d</fix>
</trkpt>
<trkpt lat="-35.2756651" lon="148.9854092">
  <ele>652.97</ele>
  <time>2026-09-01T19:59:43Z</time>
  <course>184.72</course>
  <speed>25.25901819152914</speed>
  <fix>3d</fix>
</trkpt>
<trkpt lat="-35.2756433" lon="148.9854103">
  <ele>653.33</ele>
  <time>2026-09-01T19:59:43Z</time>
  <course>183.07</course>
  <speed>25.19</speed>
  <fix>3d</fix>
</trkpt>
<trkpt lat="-35.2756878" lon="148.9854083">
  <ele>652.73</ele>
  <time>2026-09-01T19:59:43Z</time>
  <course>183.87</course>
  <speed>25.368074424362604</speed>
  <fix>3d</fix>
</trkpt>
<trkpt lat="-35.2756433" lon="148.9854103">
  <ele>653.33</ele>
  <time>2026-09-01T19:59:43Z</time>
  <course>183.07</course>
  <speed>25.19</speed>
  <fix>3d</fix>
</trkpt>
<trkpt lat="-35.2757107" lon="148.9854078">
  <ele>652.5</ele>
  <time>2026-09-01T19:59:43Z</time>
  <course>183.04</course>
  <speed>25.471886463314803</speed>
  <fix>3d</fix>
</trkpt>
<trkpt lat="-35.2756887" lon="148.9854082">
  <ele>652.86</ele>
  <time>2026-09-01T19:59:43Z</time>
  <course>181.4</course>
  <speed>25.4</speed>
  <fix>3d</fix>
</trkpt>
<trkpt lat="-35.2757336" lon="148.9854076">
  <ele>652.27</ele>
  <time>2026-09-01T19:59:43Z</time>
  <course>182.22</course>
  <speed>25.56</speed>
  <fix>3d</fix>
</trkpt>
<trkpt lat="-35.2756887" lon="148.9854082">
  <ele>652.86</ele>
  <time>2026-09-01T19:59:43Z</time>
  <course>181.4</course>
  <speed>25.4</speed>
  <fix>3d</fix>
</trkpt>
<trkpt lat="-35.2757566" lon="148.9854076">
  <ele>652.05</ele>
  <time>2026-09-01T19:59:43Z</time>
  <course>181.46</course>
  <speed>25.65142101326942</speed>
  <fix>3d</fix>
</trkpt>
<trkpt lat="-35.2757345" lon="148.9854075">
  <ele>652.41</ele>
  <time>2026-09-01T19:59:43Z</time>
  <course>179.95</course>
  <speed>25.6</speed>
  <fix>3d</fix>
</trkpt>
<trkpt lat="-35.2757797" lon="148.9854081">
  <ele>651.84</ele>
  <time>2026-09-01T19:59:43Z</time>
  <course>180.8</course>
  <speed>25.745663712555555</speed>
  <fix>3d</fix>
</trkpt>
<trkpt lat="-35.2757345" lon="148.9854075">
  <ele>652.41</ele>
  <time>2026-09-01T19:59:43Z</time>
  <course>179.95</course>
  <speed>25.6</speed>
  <fix>3d</fix>
</trkpt>
<trkpt lat="-35.2758027" lon="148.9854088">
  <ele>651.63</ele>
  <time>2026-09-01T19:59:43Z</time>
  <course>180.24</course>
  <speed>25.83147885816838</speed>
  <fix>3d</fix>
</trkpt>
<trkpt lat="-35.2757806" lon="148.9854082">
  <ele>651.97</ele>
  <time>2026-09-01T19:59:43Z</time>
  <course>178.73</course>
  <speed>25.78</speed>
  <fix>3d</fix>
</trkpt>
<trkpt lat="-35.2758259" lon="148.9854098">
  <ele>651.42</ele>
  <time>2026-09-01T19:59:43Z</time>
  <course>179.69</course>
  <speed>25.91891394329631</speed>
  <fix>3d</fix>
</trkpt>
<trkpt lat="-35.2757806" lon="148.9854082">
  <ele>651.97</ele>
  <time>2026-09-01T19:59:43Z</time>
  <course>178.73</course>
  <speed>25.78</speed>
  <fix>3d</fix>
</trkpt>
<trkpt lat="-35.2758492" lon="148.985411">
  <ele>651.23</ele>
  <time>2026-09-01T19:59:43Z</time>
  <course>179.15</course>
  <speed>25.98726034040526</speed>
  <fix>3d</fix>
</trkpt>
<trkpt lat="-35.2758271" lon="148.98541">
  <ele>651.56</ele>
  <time>2026-09-01T19:59:43Z</time>
  <course>177.72</course>
  <speed>25.95</speed>
  <fix>3d</fix>
</trkpt>
<trkpt lat="-35.2758726" lon="148.9854124">
  <ele>651.04</ele>
  <time>2026-09-01T19:59:43Z</time>
  <course>178.62</course>
  <speed>26.025558591507696</speed>
  <fix>3d</fix>
</trkpt>
<trkpt lat="-35.2758271" lon="148.98541">
  <ele>651.56</ele>
  <time>2026-09-01T19:59:43Z</time>
  <course>177.72</course>
  <speed>25.95</speed>
  <fix>3d</fix>
</trkpt>
<trkpt lat="-35.2758961" lon="148.985414">
  <ele>650.85</ele>
  <time>2026-09-01T19:59:43Z</time>
  <course>178.16</course>
  <speed>26.024426986967455</speed>
  <fix>3d</fix>
</trkpt>
<trkpt lat="-35.2758738" lon="148.9854126">
  <ele>651.17</ele>
  <time>2026-09-01T19:59:43Z</time>
  <course>176.9</course>
  <speed>26.05</speed>
  <fix>3d</fix>
</trkpt>
<trkpt lat="-35.2759195" lon="148.9854158">
  <ele>650.67</ele>
  <time>2026-09-01T19:59:43Z</time>
  <course>177.79</course>
  <speed>26.002403735039575</speed>
  <fix>3d</fix>
</trkpt>
<trkpt lat="-35.2758738" lon="148.9854126">
  <ele>651.17</ele>
  <time>2026-09-01T19:59:43Z</time>
  <course>176.9</course>
  <speed>26.05</speed>
  <fix>3d</fix>
</trkpt>
<trkpt lat="-35.2759428" lon="148.9854177">
  <ele>650.5</ele>
  <time>2026-09-01T19:59:43Z</time>
  <course>177.44</course>
  <speed>25.97038698209944</speed>
  <fix>3d</fix>
</trkpt>
<trkpt lat="-35.2759207" lon="148.985416">
  <ele>650.82</ele>
  <time>2026-09-01T19:59:43Z</time>
  <course>176.26</course>
  <speed>26.05</speed>
  <fix>3d</fix>
</trkpt>
<trkpt lat="-35.2759669" lon="148.9854198">
  <ele>650.32</ele>
  <time>2026-09-01T19:59:43Z</time>
  <course>177.16</course>
  <speed>25.936063695171633</speed>
  <fix>3d</fix>
</trkpt>
<trkpt lat="-35.2759207" lon="148.985416">
  <ele>650.82</ele>
  <time>2026-09-01T19:59:43Z</time>
  <course>176.26</course>
  <speed>26.05</speed>
  <fix>3d</fix>
</trkpt>
<trkpt lat="-35.2759899" lon="148.9854219">
  <ele>650.15</ele>
  <time>2026-09-01T19:59:43Z</time>
  <course>176.92</course>
  <speed>25.899054036779024</speed>
  <fix>3d</fix>
</trkpt>
<trkpt lat="-35.2759673" lon="148.9854199">
  <ele>650.47</ele>
  <time>2026-09-01T19:59:43Z</time>
  <course>175.83</course>
  <speed>25.99</speed>
  <fix>3d</fix>
</trkpt>
<trkpt lat="-35.2760132" lon="148.985424">
  <ele>649.95</ele>
  <time>2026-09-01T19:59:43Z</time>
  <course>176.69</course>
  <speed>25.88057572775382</speed>
  <fix>3d</fix>
</trkpt>
<trkpt lat="-35.2759673" lon="148.9854199">
  <ele>650.47</ele>
  <time>2026-09-01T19:59:43Z</time>
  <course>175.83</course>
  <speed>25.99</speed>
  <fix>3d</fix>
</trkpt>
<trkpt lat="-35.2760364" lon="148.9854261">
  <ele>649.74</ele>
  <time>2026-09-01T19:59:43Z</time>
  <course>176.39</course>
  <speed>25.87134321986394</speed>
  <fix>3d</fix>
</trkpt>
<trkpt lat="-35.2760138" lon="148.9854242">
  <ele>650.09</ele>
  <time>2026-09-01T19:59:43Z</time>
  <course>175.65</course>
  <speed>25.93</speed>
  <fix>3d</fix>
</trkpt>
<trkpt lat="-35.2760596" lon="148.9854283">
  <ele>649.52</ele>
  <time>2026-09-01T19:59:43Z</time>
  <course>176.11</course>
  <speed>25.87208727567221</speed>
  <fix>3d</fix>
</trkpt>
<trkpt lat="-35.2760138" lon="148.9854242">
  <ele>650.09</ele>
  <time>2026-09-01T19:59:43Z</time>
  <course>175.65</course>
  <speed>25.93</speed>
  <fix>3d</fix>
</trkpt>
<trkpt lat="-35.276083" lon="148.9854304">
  <ele>649.29</ele>
  <time>2026-09-01T19:59:43Z</time>
  <course>175.96</course>
  <speed>25.87208727567221</speed>
  <fix>3d</fix>
</trkpt>
<trkpt lat="-35.2760603" lon="148.9854286">
  <ele>649.67</ele>
  <time>2026-09-01T19:59:43Z</time>
  <course>175.6</course>
  <speed>25.92</speed>
  <fix>3d</fix>
</trkpt>
<trkpt lat="-35.2761057" lon="148.9854325">
  <ele>649.06</ele>
  <time>2026-09-01T19:59:43Z</time>
  <course>175.93</course>
  <speed>25.892778916137992</speed>
  <fix>3d</fix>
</trkpt>
<trkpt lat="-35.2760603" lon="148.9854286">
  <ele>649.67</ele>
  <time>2026-09-01T19:59:43Z</time>
  <course>175.6</course>
  <speed>25.92</speed>
  <fix>3d</fix>
</trkpt>
<trkpt lat="-35.2761289" lon="148.9854347">
  <ele>648.83</ele>
  <time>2026-09-01T19:59:43Z</time>
  <course>175.9</course>
  <speed>25.913473329524933</speed>
  <fix>3d</fix>
</trkpt>
<trkpt lat="-35.2761067" lon="148.985433">
  <ele>649.22</ele>
  <time>2026-09-01T19:59:43Z</time>
  <course>175.58</course>
  <speed>25.94</speed>
  <fix>3d</fix>
</trkpt>
<trkpt lat="-35.2761522" lon="148.9854369">
  <ele>648.61</ele>
  <time>2026-09-01T19:59:43Z</time>
  <course>175.85</course>
  <speed>25.944141920672575</speed>
  <fix>3d</fix>
</trkpt>
<trkpt lat="-35.2761067" lon="148.985433">
  <ele>649.22</ele>
  <time>2026-09-01T19:59:43Z</time>
  <course>175.58</course>
  <speed>25.94</speed>
  <fix>3d</fix>
</trkpt>
<trkpt lat="-35.2761755" lon="148.9854391">
  <ele>648.38</ele>
  <time>2026-09-01T19:59:43Z</time>
  <course>175.84</course>
  <speed>25.9748128000954</speed>
  <fix>3d</fix>
</trkpt>
<trkpt lat="-35.2761531" lon="148.9854374">
  <ele>648.77</ele>
  <time>2026-09-01T19:59:43Z</time>
  <course>175.55</course>
  <speed>25.99</speed>
  <fix>3d</fix>
</trkpt>
<trkpt lat="-35.2761988" lon="148.9854413">
  <ele>648.17</ele>
  <time>2026-09-01T19:59:43Z</time>
  <course>175.84</course>
  <speed>26.014697768761412</speed>
  <fix>3d</fix>
</trkpt>
<trkpt lat="-35.2761531" lon="148.9854374">
  <ele>648.77</ele>
  <time>2026-09-01T19:59:43Z</time>
  <course>175.55</course>
  <speed>25.99</speed>
  <fix>3d</fix>
</trkpt>
<trkpt lat="-35.2762221" lon="148.9854435">
  <ele>647.96</ele>
  <time>2026-09-01T19:59:43Z</time>
  <course>175.89</course>
  <speed>26.055341103121254</speed>
  <fix>3d</fix>
</trkpt>
<trkpt lat="-35.2761998" lon="148.9854419">
  <ele>648.33</ele>
  <time>2026-09-01T19:59:43Z</time>
  <course>175.53</course>
  <speed>26.06</speed>
  <fix>3d</fix>
</trkpt>
<trkpt lat="-35.2762456" lon="148.9854458">
  <ele>647.77</ele>
  <time>2026-09-01T19:59:43Z</time>
  <course>175.92</course>
  <speed>26.105196800637223</speed>
  <fix>3d</fix>
</trkpt>
<trkpt lat="-35.2761998" lon="148.9854419">
  <ele>648.33</ele>
  <time>2026-09-01T19:59:43Z</time>
  <course>175.53</course>
  <speed>26.06</speed>
  <fix>3d</fix>
</trkpt>
<trkpt lat="-35.276269" lon="148.985448">
  <ele>647.59</ele>
  <time>2026-09-01T19:59:43Z</time>
  <course>175.9</course>
  <speed>26.14432634435242</speed>
  <fix>3d</fix>
</trkpt>
<trkpt lat="-35.2762465" lon="148.9854463">
  <ele>647.94</ele>
  <time>2026-09-01T19:59:43Z</time>
  <course>175.54</course>
  <speed>26.14</speed>
  <fix>3d</fix>
</trkpt>
<trkpt lat="-35.2762923" lon="148.9854502">
  <ele>647.42</ele>
  <time>2026-09-01T19:59:43Z</time>
  <course>175.88</course>
  <speed>26.194184469076337</speed>
  <fix>3d</fix>
</trkpt>
<trkpt lat="-35.2762465" lon="148.9854463">
  <ele>647.94</ele>
  <time>2026-09-01T19:59:43Z</time>
  <course>175.54</course>
  <speed>26.14</speed>
  <fix>3d</fix>
</trkpt>
<trkpt lat="-35.2763159" lon="148.9854524">
  <ele>647.27</ele>
  <time>2026-09-01T19:59:43Z</time>
  <course>175.87</course>
  <speed>26.24329438161299</speed>
  <fix>3d</fix>
</trkpt>
<trkpt lat="-35.2762934" lon="148.9854508">
  <ele>647.6</ele>
  <time>2026-09-01T19:59:43Z</time>
  <course>175.58</course>
  <speed>26.24</speed>
  <fix>3d</fix>
</trkpt>
<trkpt lat="-35.2763395" lon="148.9854547">
  <ele>647.12</ele>
  <time>2026-09-01T19:59:43Z</time>
  <course>175.95</course>
  <speed>26.2924114527367</speed>
  <fix>3d</fix>
</trkpt>
<trkpt lat="-35.2762934" lon="148.9854508">
  <ele>647.6</ele>
  <time>2026-09-01T19:59:43Z</time>
  <course>175.58</course>
  <speed>26.24</speed>
  <fix>3d</fix>
</trkpt>
<trkpt lat="-35.2763631" lon="148.9854568">
  <ele>646.99</ele>
  <time>2026-09-01T19:59:43Z</time>
  <course>175.99</course>
  <speed>26.350774182175368</speed>
  <fix>3d</fix>
</trkpt>
<trkpt lat="-35.2763406" lon="148.9854552">
  <ele>647.3</ele>
  <time>2026-09-01T19:59:43Z</time>
  <course>175.65</course>
  <speed>26.34</speed>
  <fix>3d</fix>
</trkpt>
<trkpt lat="-35.2763871" lon="148.985459">
  <ele>646.88</ele>
  <time>2026-09-01T19:59:43Z</time>
  <course>176.0</course>
  <speed>26.409884513189375</speed>
  <fix>3d</fix>
</trkpt>
<trkpt lat="-35.2763406" lon="148.9854552">
  <ele>647.3</ele>
  <time>2026-09-01T19:59:43Z</time>
  <course>175.65</course>
  <speed>26.34</speed>
  <fix>3d</fix>
</trkpt>
<trkpt lat="-35.2764108" lon="148.9854612">
  <ele>646.78</ele>
  <time>2026-09-01T19:59:43Z</time>
  <course>176.11</course>
  <speed>26.458308713899306</speed>
  <fix>3d</fix>
</trkpt>
<trkpt lat="-35.2763879" lon="148.9854596">
  <ele>647.06</ele>
  <time>2026-09-01T19:59:43Z</time>
  <course>175.74</course>
  <speed>26.44</speed>
  <fix>3d</fix>
</trkpt>
<trkpt lat="-35.2764346" lon="148.9854633">
  <ele>646.69</ele>
  <time>2026-09-01T19:59:43Z</time>
  <course>176.18</course>
  <speed>26.506753856328768</speed>
  <fix>3d</fix>
</trkpt>
<trkpt lat="-35.2763879" lon="148.9854596">
  <ele>647.06</ele>
  <time>2026-09-01T19:59:43Z</time>
  <course>175.74</course>
  <speed>26.44</speed>
  <fix>3d</fix>
</trkpt>
<trkpt lat="-35.2764592" lon="148.9854655">
  <ele>646.62</ele>
  <time>2026-09-01T19:59:43Z</time>
  <course>176.18</course>
  <speed>26.555219825864746</speed>
  <fix>3d</fix>
</trkpt>
<trkpt lat="-35.2764353" lon="148.9854639">
  <ele>646.88</ele>
  <time>2026-09-01T19:59:43Z</time>
  <course>175.84</course>
  <speed>26.54</speed>
  <fix>3d</fix>
</trkpt>
<trkpt lat="-35.2764829" lon="148.9854676">
  <ele>646.56</ele>
  <time>2026-09-01T19:59:43Z</time>
  <course>176.2</course>
  <speed>26.603706508680325</speed>
  <fix>3d</fix>
</trkpt>
<trkpt lat="-35.2764353" lon="148.9854639">
  <ele>646.88</ele>
  <time>2026-09-01T19:59:43Z</time>
  <course>175.84</course>
  <speed>26.54</speed>
  <fix>3d</fix>
</trkpt>
<trkpt lat="-35.2765068" lon="148.9854697">
  <ele>646.51</ele>
  <time>2026-09-01T19:59:43Z</time>
  <course>176.23</course>
  <speed>26.652898529053083</speed>
  <fix>3d</fix>
</trkpt>
<trkpt lat="-35.276483" lon="148.985468">
  <ele>646.74</ele>
  <time>2026-09-01T19:59:43Z</time>
  <course>175.93</course>
  <speed>26.63</speed>
  <fix>3d</fix>
</trkpt>
<trkpt lat="-35.2765308" lon="148.9854717">
  <ele>646.47</ele>
  <time>2026-09-01T19:59:43Z</time>
  <course>176.24</course>
  <speed>26.70141756536533</speed>
  <fix>3d</fix>
</trkpt>
<trkpt lat="-35.276483" lon="148.985468">
  <ele>646.74</ele>
  <time>2026-09-01T19:59:43Z</time>
  <course>175.93</course>
  <speed>26.63</speed>
  <fix>3d</fix>
</trkpt>
<trkpt lat="-35.2765548" lon="148.9854737">
  <ele>646.45</ele>
  <time>2026-09-01T19:59:43Z</time>
  <course>176.27</course>
  <speed>26.730673392191225</speed>
  <fix>3d</fix>
</trkpt>
<trkpt lat="-35.2765308" lon="148.9854721">
  <ele>646.65</ele>
  <time>2026-09-01T19:59:43Z</time>
  <course>176.02</course>
  <speed>26.72</speed>
  <fix>3d</fix>
</trkpt>
<trkpt lat="-35.276579" lon="148.9854758">
  <ele>646.43</ele>
  <time>2026-09-01T19:59:43Z</time>
  <course>176.31</course>
  <speed>26.769912215022295</speed>
  <fix>3d</fix>
</trkpt>
<trkpt lat="-35.2765308" lon="148.9854721">
  <ele>646.65</ele>
  <time>2026-09-01T19:59:43Z</time>
  <course>176.02</course>
  <speed>26.72</speed>
  <fix>3d</fix>
</trkpt>
<trkpt lat="-35.2766031" lon="148.9854778">
  <ele>646.43</ele>
  <time>2026-09-01T19:59:43Z</time>
  <course>176.32</course>
  <speed>26.809157017705726</speed>
  <fix>3d</fix>
</trkpt>
<trkpt lat="-35.2765787" lon="148.9854762">
  <ele>646.61</ele>
  <time>2026-09-01T19:59:43Z</time>
  <course>176.09</course>
  <speed>26.8</speed>
  <fix>3d</fix>
</trkpt>
<trkpt lat="-35.2766272" lon="148.9854798">
  <ele>646.44</ele>
  <time>2026-09-01T19:59:43Z</time>
  <course>176.43</course>
  <speed>26.838429536766863</speed>
  <fix>3d</fix>
</trkpt>
<trkpt lat="-35.2765787" lon="148.9854762">
  <ele>646.61</ele>
  <time>2026-09-01T19:59:43Z</time>
  <course>176.09</course>
  <speed>26.8</speed>
  <fix>3d</fix>
</trkpt>
<trkpt lat="-35.2766512" lon="148.9854818">
  <ele>646.46</ele>
  <time>2026-09-01T19:59:43Z</time>
  <course>176.48</course>
  <speed>26.867054174211212</speed>
  <fix>3d</fix>
</trkpt>
<trkpt lat="-35.2766268" lon="148.9854801">
  <ele>646.61</ele>
  <time>2026-09-01T19:59:43Z</time>
  <course>176.16</course>
  <speed>26.86</speed>
  <fix>3d</fix>
</trkpt>
<trkpt lat="-35.2766754" lon="148.9854837">
  <ele>646.49</ele>
  <time>2026-09-01T19:59:43Z</time>
  <course>176.41</course>
  <speed>26.886362714208854</speed>
  <fix>3d</fix>
</trkpt>
<trkpt lat="-35.2766268" lon="148.9854801">
  <ele>646.61</ele>
  <time>2026-09-01T19:59:43Z</time>
  <course>176.16</course>
  <speed>26.86</speed>
  <fix>3d</fix>
</trkpt>
<trkpt lat="-35.2766995" lon="148.9854857">
  <ele>646.53</ele>
  <time>2026-09-01T19:59:43Z</time>
  <course>176.47</course>
  <speed>26.91565529575678</speed>
  <fix>3d</fix>
</trkpt>
<trkpt lat="-35.276675" lon="148.9854841">
  <ele>646.66</ele>
  <time>2026-09-01T19:59:43Z</time>
  <course>176.22</course>
  <speed>26.91</speed>
  <fix>3d</fix>
</trkpt>
<trkpt lat="-35.2767237" lon="148.9854876">
  <ele>646.58</ele>
  <time>2026-09-01T19:59:43Z</time>
  <course>176.53</course>
  <speed>26.934973547416007</speed>
  <fix>3d</fix>
</trkpt>
<trkpt lat="-35.276675" lon="148.9854841">
  <ele>646.66</ele>
  <time>2026-09-01T19:59:43Z</time>
  <course>176.22</course>
  <speed>26.91</speed>
  <fix>3d</fix>
</trkpt>
<trkpt lat="-35.2767479" lon="148.9854895">
  <ele>646.64</ele>
  <time>2026-09-01T19:59:43Z</time>
  <course>176.55</course>
  <speed>26.94431665490888</speed>
  <fix>3d</fix>
</trkpt>
<trkpt lat="-35.2767233" lon="148.985488">
  <ele>646.74</ele>
  <time>2026-09-01T19:59:43Z</time>
  <course>176.27</course>
  <speed>26.95</speed>
  <fix>3d</fix>
</trkpt>
<trkpt lat="-35.2767713" lon="148.9854914">
  <ele>646.7</ele>
  <time>2026-09-01T19:59:43Z</time>
  <course>176.63</course>
  <speed>26.96364404156085</speed>
  <fix>3d</fix>
</trkpt>
<trkpt lat="-35.2767233" lon="148.985488">
  <ele>646.74</ele>
  <time>2026-09-01T19:59:43Z</time>
  <course>176.27</course>
  <speed>26.95</speed>
  <fix>3d</fix>
</trkpt>
<trkpt lat="-35.2767955" lon="148.9854933">
  <ele>646.77</ele>
  <time>2026-09-01T19:59:43Z</time>
  <course>176.7</course>
  <speed>26.97237104890855</speed>
  <fix>3d</fix>
</trkpt>
<trkpt lat="-35.2767717" lon="148.9854918">
  <ele>646.85</ele>
  <time>2026-09-01T19:59:43Z</time>
  <course>176.33</course>
  <speed>26.98</speed>
  <fix>3d</fix>
</trkpt>
<trkpt lat="-35.2768197" lon="148.9854952">
  <ele>646.85</ele>
  <time>2026-09-01T19:59:43Z</time>
  <course>176.72</course>
  <speed>26.98173085626643</speed>
  <fix>3d</fix>
</trkpt>
<trkpt lat="-35.2767717" lon="148.9854918">
  <ele>646.85</ele>
  <time>2026-09-01T19:59:43Z</time>
  <course>176.33</course>
  <speed>26.98</speed>
  <fix>3d</fix>
</trkpt>
<trkpt lat="-35.276844" lon="148.9854971">
  <ele>646.94</ele>
  <time>2026-09-01T19:59:43Z</time>
  <course>176.75</course>
  <speed>26.981113765002366</speed>
  <fix>3d</fix>
</trkpt>
<trkpt lat="-35.2768201" lon="148.9854955">
  <ele>647.0</ele>
  <time>2026-09-01T19:59:43Z</time>
  <course>176.39</course>
  <speed>27.0</speed>
  <fix>3d</fix>
</trkpt>
<trkpt lat="-35.2768683" lon="148.9854989">
  <ele>647.03</ele>
  <time>2026-09-01T19:59:43Z</time>
  <course>176.76</course>
  <speed>26.989872174576895</speed>
  <fix>3d</fix>
</trkpt>
<trkpt lat="-35.2768201" lon="148.9854955">
  <ele>647.0</ele>
  <time>2026-09-01T19:59:43Z</time>
  <course>176.39</course>
  <speed>27.0</speed>
  <fix>3d</fix>
</trkpt>
<trkpt lat="-35.2768927" lon="148.9855008">
  <ele>647.13</ele>
  <time>2026-09-01T19:59:43Z</time>
  <course>176.77</course>
  <speed>26.999248137679686</speed>
  <fix>3d</fix>
</trkpt>
<trkpt lat="-35.2768686" lon="148.9854992">
  <ele>647.17</ele>
  <time>2026-09-01T19:59:43Z</time>
  <course>176.45</course>
  <speed>27.01</speed>
  <fix>3d</fix>
</trkpt>
<trkpt lat="-35.2769168" lon="148.9855026">
  <ele>647.23</ele>
  <time>2026-09-01T19:59:43Z</time>
  <course>176.78</course>
  <speed>26.988664287066896</speed>
  <fix>3d</fix>
</trkpt>
<trkpt lat="-35.2768686" lon="148.9854992">
  <ele>647.17</ele>
  <time>2026-09-01T19:59:43Z</time>
  <course>176.45</course>
  <speed>27.01</speed>
  <fix>3d</fix>
</trkpt>
<trkpt lat="-35.276941" lon="148.9855044">
  <ele>647.34</ele>
  <time>2026-09-01T19:59:43Z</time>
  <course>176.81</course>
  <speed>26.978083697698025</speed>
  <fix>3d</fix>
</trkpt>
<trkpt lat="-35.2769171" lon="148.9855029">
  <ele>647.36</ele>
  <time>2026-09-01T19:59:43Z</time>
  <course>176.5</course>
  <speed>27.01</speed>
  <fix>3d</fix>
</trkpt>
<trkpt lat="-35.2769659" lon="148.9855062">
  <ele>647.45</ele>
  <time>2026-09-01T19:59:43Z</time>
  <course>176.82</course>
  <speed>26.958119370608923</speed>
  <fix>3d</fix>
</trkpt>
<trkpt lat="-35.2769171" lon="148.9855029">
  <ele>647.36</ele>
  <time>2026-09-01T19:59:43Z</time>
  <course>176.5</course>
  <speed>27.01</speed>
  <fix>3d</fix>
</trkpt>
<trkpt lat="-35.2769898" lon="148.985508">
  <ele>647.57</ele>
  <time>2026-09-01T19:59:44Z</time>
  <course>176.9</course>
  <speed>26.948137226903086</speed>
  <fix>3d</fix>
</trkpt>
<trkpt lat="-35.2769655" lon="148.9855066">
  <ele>647.57</ele>
  <time>2026-09-01T19:59:44Z</time>
  <course>176.52</course>
  <speed>27.0</speed>
  <fix>3d</fix>
</trkpt>
<trkpt lat="-35.2770138" lon="148.9855098">
  <ele>647.69</ele>
  <time>2026-09-01T19:59:44Z</time>
  <course>176.91</course>
  <speed>26.937559280677235</speed>
  <fix>3d</fix>
</trkpt>
<trkpt lat="-35.2769655" lon="148.9855066">
  <ele>647.57</ele>
  <time>2026-09-01T19:59:44Z</time>
  <course>176.52</course>
  <speed>27.0</speed>
  <fix>3d</fix>
</trkpt>
<trkpt lat="-35.2770379" lon="148.9855116">
  <ele>647.81</ele>
  <time>2026-09-01T19:59:44Z</time>
  <course>176.91</course>
  <speed>26.91700206189389</speed>
  <fix>3d</fix>
</trkpt>
<trkpt lat="-35.2770139" lon="148.9855102">
  <ele>647.79</ele>
  <time>2026-09-01T19:59:44Z</time>
  <course>176.54</course>
  <speed>26.98</speed>
  <fix>3d</fix>
</trkpt>
<trkpt lat="-35.277062" lon="148.9855134">
  <ele>647.93</ele>
  <time>2026-09-01T19:59:44Z</time>
  <course>176.94</course>
  <speed>26.897037011537165</speed>
  <fix>3d</fix>
</trkpt>
<trkpt lat="-35.2770139" lon="148.9855102">
  <ele>647.79</ele>
  <time>2026-09-01T19:59:44Z</time>
  <course>176.54</course>
  <speed>26.98</speed>
  <fix>3d</fix>
</trkpt>
<trkpt lat="-35.2770862" lon="148.9855152">
  <ele>648.06</ele>
  <time>2026-09-01T19:59:44Z</time>
  <course>176.97</course>
  <speed>26.87648228470385</speed>
  <fix>3d</fix>
</trkpt>
<trkpt lat="-35.2770622" lon="148.9855137">
  <ele>648.02</ele>
  <time>2026-09-01T19:59:44Z</time>
  <course>176.57</course>
  <speed>26.95</speed>
  <fix>3d</fix>
</trkpt>
<trkpt lat="-35.2771102" lon="148.9855169">
  <ele>648.19</ele>
  <time>2026-09-01T19:59:44Z</time>
  <course>176.97</course>
  <speed>26.8559304437586</speed>
  <fix>3d</fix>
</trkpt>
<trkpt lat="-35.2770622" lon="148.9855137">
  <ele>648.02</ele>
  <time>2026-09-01T19:59:44Z</time>
  <course>176.57</course>
  <speed>26.95</speed>
  <fix>3d</fix>
</trkpt>
<trkpt lat="-35.2771343" lon="148.9855187">
  <ele>648.32</ele>
  <time>2026-09-01T19:59:44Z</time>
  <course>176.95</course>
  <speed>26.845364590558276</speed>
  <fix>3d</fix>
</trkpt>
<trkpt lat="-35.2771105" lon="148.9855172">
  <ele>648.27</ele>
  <time>2026-09-01T19:59:44Z</time>
  <course>176.6</course>
  <speed>26.93</speed>
  <fix>3d</fix>
</trkpt>
<trkpt lat="-35.2771583" lon="148.9855204">
  <ele>648.45</ele>
  <time>2026-09-01T19:59:44Z</time>
  <course>177.01</course>
  <speed>26.825398412698362</speed>
  <fix>3d</fix>
</trkpt>
<trkpt lat="-35.2771105" lon="148.9855172">
  <ele>648.27</ele>
  <time>2026-09-01T19:59:44Z</time>
  <course>176.6</course>
  <speed>26.93</speed>
  <fix>3d</fix>
</trkpt>
<trkpt lat="-35.2771823" lon="148.9855222">
  <ele>648.59</ele>
  <time>2026-09-01T19:59:44Z</time>
  <course>177.01</course>
  <speed>26.805432285266356</speed>
  <fix>3d</fix>
</trkpt>
<trkpt lat="-35.2771588" lon="148.9855207">
  <ele>648.53</ele>
  <time>2026-09-01T19:59:44Z</time>
  <course>176.62</course>
  <speed>26.9</speed>
  <fix>3d</fix>
</trkpt>
<trkpt lat="-35.2772063" lon="148.9855239">
  <ele>648.73</ele>
  <time>2026-09-01T19:59:44Z</time>
  <course>176.98</course>
  <speed>26.78546620837502</speed>
  <fix>3d</fix>
</trkpt>
<trkpt lat="-35.2771588" lon="148.9855207">
  <ele>648.53</ele>
  <time>2026-09-01T19:59:44Z</time>
  <course>176.62</course>
  <speed>26.9</speed>
  <fix>3d</fix>
</trkpt>
<trkpt lat="-35.2772303" lon="148.9855256">
  <ele>648.87</ele>
  <time>2026-09-01T19:59:44Z</time>
  <course>177.03</course>
  <speed>26.754935993195723</speed>
  <fix>3d</fix>
</trkpt>
<trkpt lat="-35.277207" lon="148.9855242">
  <ele>648.8</ele>
  <time>2026-09-01T19:59:44Z</time>
  <course>176.63</course>
  <speed>26.86</speed>
  <fix>3d</fix>
</trkpt>
<trkpt lat="-35.2772543" lon="148.9855274">
  <ele>649.02</ele>
  <time>2026-09-01T19:59:44Z</time>
  <course>176.99</course>
  <speed>26.73496960910934</speed>
  <fix>3d</fix>
</trkpt>
<trkpt lat="-35.277207" lon="148.9855242">
  <ele>648.8</ele>
  <time>2026-09-01T19:59:44Z</time>
  <course>176.63</course>
  <speed>26.86</speed>
  <fix>3d</fix>
</trkpt>
<trkpt lat="-35.2772783" lon="148.9855291">
  <ele>649.16</ele>
  <time>2026-09-01T19:59:44Z</time>
  <course>176.94</course>
  <speed>26.715003275313293</speed>
  <fix>3d</fix>
</trkpt>
<trkpt lat="-35.2772551" lon="148.9855276">
  <ele>649.08</ele>
  <time>2026-09-01T19:59:44Z</time>
  <course>176.63</course>
  <speed>26.82</speed>
  <fix>3d</fix>
</trkpt>
<trkpt lat="-35.2773022" lon="148.9855308">
  <ele>649.31</ele>
  <time>2026-09-01T19:59:44Z</time>
  <course>176.98</course>
  <speed>26.69503699192043</speed>
  <fix>3d</fix>
</trkpt>
<trkpt lat="-35.2772551" lon="148.9855276">
  <ele>649.08</ele>
  <time>2026-09-01T19:59:44Z</time>
  <course>176.63</course>
  <speed>26.82</speed>
  <fix>3d</fix>
</trkpt>
<trkpt lat="-35.2773262" lon="148.9855325">
  <ele>649.47</ele>
  <time>2026-09-01T19:59:44Z</time>
  <course>177.0</course>
  <speed>26.67507075904392</speed>
  <fix>3d</fix>
</trkpt>
<trkpt lat="-35.2773031" lon="148.9855311">
  <ele>649.38</ele>
  <time>2026-09-01T19:59:44Z</time>
  <course>176.63</course>
  <speed>26.77</speed>
  <fix>3d</fix>
</trkpt>
<trkpt lat="-35.2773501" lon="148.9855343">
  <ele>649.62</ele>
  <time>2026-09-01T19:59:44Z</time>
  <course>176.98</course>
  <speed>26.655104576797292</speed>
  <fix>3d</fix>
</trkpt>
<trkpt lat="-35.2773031" lon="148.9855311">
  <ele>649.38</ele>
  <time>2026-09-01T19:59:44Z</time>
  <course>176.63</course>
  <speed>26.77</speed>
  <fix>3d</fix>
</trkpt>
<trkpt lat="-35.277374" lon="148.985536">
  <ele>649.78</ele>
  <time>2026-09-01T19:59:44Z</time>
  <course>176.99</course>
  <speed>26.625739426352087</speed>
  <fix>3d</fix>
</trkpt>
<trkpt lat="-35.2773512" lon="148.9855346">
  <ele>649.68</ele>
  <time>2026-09-01T19:59:44Z</time>
  <course>176.61</course>
  <speed>26.73</speed>
  <fix>3d</fix>
</trkpt>
<trkpt lat="-35.2773979" lon="148.9855377">
  <ele>649.94</ele>
  <time>2026-09-01T19:59:44Z</time>
  <course>177.04</course>
  <speed>26.605189343434485</speed>
  <fix>3d</fix>
</trkpt>
<trkpt lat="-35.2773512" lon="148.9855346">
  <ele>649.68</ele>
  <time>2026-09-01T19:59:44Z</time>
  <course>176.61</course>
  <speed>26.73</speed>
  <fix>3d</fix>
</trkpt>
<trkpt lat="-35.2774212" lon="148.9855394">
  <ele>650.1</ele>
  <time>2026-09-01T19:59:44Z</time>
  <course>177.0</course>
  <speed>26.575240356391888</speed>
  <fix>3d</fix>
</trkpt>
<trkpt lat="-35.2773992" lon="148.985538">
  <ele>650.0</ele>
  <time>2026-09-01T19:59:44Z</time>
  <course>176.6</course>
  <speed>26.68</speed>
  <fix>3d</fix>
</trkpt>
<trkpt lat="-35.2774459" lon="148.9855412">
  <ele>650.27</ele>
  <time>2026-09-01T19:59:44Z</time>
  <course>176.92</course>
  <speed>26.55527442900939</speed>
  <fix>3d</fix>
</trkpt>
<trkpt lat="-35.2773992" lon="148.985538">
  <ele>650.0</ele>
  <time>2026-09-01T19:59:44Z</time>
  <course>176.6</course>
  <speed>26.68</speed>
  <fix>3d</fix>
</trkpt>
<trkpt lat="-35.2774697" lon="148.9855429">
  <ele>650.44</ele>
  <time>2026-09-01T19:59:44Z</time>
  <course>176.94</course>
  <speed>26.525325634193447</speed>
  <fix>3d</fix>
</trkpt>
<trkpt lat="-35.277447" lon="148.9855415">
  <ele>650.32</ele>
  <time>2026-09-01T19:59:44Z</time>
  <course>176.6</course>
  <speed>26.63</speed>
  <fix>3d</fix>
</trkpt>
<trkpt lat="-35.2774934" lon="148.9855447">
  <ele>650.6</ele>
  <time>2026-09-01T19:59:44Z</time>
  <course>176.98</course>
  <speed>26.495376955235038</speed>
  <fix>3d</fix>
</trkpt>
<trkpt lat="-35.277447" lon="148.9855415">
  <ele>650.32</ele>
  <time>2026-09-01T19:59:44Z</time>
  <course>176.6</course>
  <speed>26.63</speed>
  <fix>3d</fix>
</trkpt>
<trkpt lat="-35.2775172" lon="148.9855464">
  <ele>650.77</ele>
  <time>2026-09-01T19:59:44Z</time>
  <course>177.05</course>
  <speed>26.475411233822225</speed>
  <fix>3d</fix>
</trkpt>
<trkpt lat="-35.2774947" lon="148.985545">
  <ele>650.65</ele>
  <time>2026-09-01T19:59:44Z</time>
  <course>176.58</course>
  <speed>26.57</speed>
  <fix>3d</fix>
</trkpt>
<trkpt lat="-35.277541" lon="148.9855481">
  <ele>650.94</ele>
  <time>2026-09-01T19:59:44Z</time>
  <course>177.04</course>
  <speed>26.455445564193397</speed>
  <fix>3d</fix>
</trkpt>
<trkpt lat="-35.2774947" lon="148.985545">
  <ele>650.65</ele>
  <time>2026-09-01T19:59:44Z</time>
  <course>176.58</course>
  <speed>26.57</speed>
  <fix>3d</fix>
</trkpt>
<trkpt lat="-35.2775648" lon="148.9855499">
  <ele>651.11</ele>
  <time>2026-09-01T19:59:44Z</time>
  <course>177.0</course>
  <speed>26.42549715710189</speed>
  <fix>3d</fix>
</trkpt>
<trkpt lat="-35.2775423" lon="148.9855485">
  <ele>650.99</ele>
  <time>2026-09-01T19:59:44Z</time>
  <course>176.58</course>
  <speed>26.52</speed>
  <fix>3d</fix>
</trkpt>
<trkpt lat="-35.2775888" lon="148.9855516">
  <ele>651.28</ele>
  <time>2026-09-01T19:59:44Z</time>
  <course>177.0</course>
  <speed>26.40494650628931</speed>
  <fix>3d</fix>
</trkpt>
<trkpt lat="-35.2775423" lon="148.9855485">
  <ele>650.99</ele>
  <time>2026-09-01T19:59:44Z</time>
  <course>176.58</course>
  <speed>26.52</speed>
  <fix>3d</fix>
</trkpt>
<trkpt lat="-35.2776126" lon="148.9855533">
  <ele>651.45</ele>
  <time>2026-09-01T19:59:44Z</time>
  <course>177.04</course>
  <speed>26.384980576077748</speed>
  <fix>3d</fix>
</trkpt>
<trkpt lat="-35.2775898" lon="148.9855519">
  <ele>651.32</ele>
  <time>2026-09-01T19:59:44Z</time>
  <course>176.59</course>
  <speed>26.46</speed>
  <fix>3d</fix>
</trkpt>
<trkpt lat="-35.2776364" lon="148.9855551">
  <ele>651.62</ele>
  <time>2026-09-01T19:59:44Z</time>
  <course>177.03</course>
  <speed>26.364432480142636</speed>
  <fix>3d</fix>
</trkpt>
<trkpt lat="-35.2775898" lon="148.9855519">
  <ele>651.32</ele>
  <time>2026-09-01T19:59:44Z</time>
  <course>176.59</course>
  <speed>26.46</speed>
  <fix>3d</fix>
</trkpt>
<trkpt lat="-35.2776601" lon="148.9855568">
  <ele>651.79</ele>
  <time>2026-09-01T19:59:44Z</time>
  <course>177.02</course>
  <speed>26.334483097262417</speed>
  <fix>3d</fix>
</trkpt>
<trkpt lat="-35.2776372" lon="148.9855554">
  <ele>651.67</ele>
  <time>2026-09-01T19:59:44Z</time>
  <course>176.6</course>
  <speed>26.41</speed>
  <fix>3d</fix>
</trkpt>
<trkpt lat="-35.2776838" lon="148.9855585">
  <ele>651.97</ele>
  <time>2026-09-01T19:59:44Z</time>
  <course>176.97</course>
  <speed>26.313937371666746</speed>
  <fix>3d</fix>
</trkpt>
<trkpt lat="-35.2776372" lon="148.9855554">
  <ele>651.67</ele>
  <time>2026-09-01T19:59:44Z</time>
  <course>176.6</course>
  <speed>26.41</speed>
  <fix>3d</fix>
</trkpt>
<trkpt lat="-35.2777075" lon="148.9855602">
  <ele>652.14</ele>
  <time>2026-09-01T19:59:44Z</time>
  <course>176.96</course>
  <speed>26.293970791799403</speed>
  <fix>3d</fix>
</trkpt>
<trkpt lat="-35.2776845" lon="148.9855589">
  <ele>652.01</ele>
  <time>2026-09-01T19:59:44Z</time>
  <course>176.61</course>
  <speed>26.36</speed>
  <fix>3d</fix>
</trkpt>
<trkpt lat="-35.2777312" lon="148.9855619">
  <ele>652.31</ele>
  <time>2026-09-01T19:59:44Z</time>
  <course>176.94</course>
  <speed>26.27400426276893</speed>
  <fix>3d</fix>
</trkpt>
<trkpt lat="-35.2776845" lon="148.9855589">
  <ele>652.01</ele>
  <time>2026-09-01T19:59:44Z</time>
  <course>176.61</course>
  <speed>26.36</speed>
  <fix>3d</fix>
</trkpt>
<trkpt lat="-35.2777549" lon="148.9855636">
  <ele>652.48</ele>
  <time>2026-09-01T19:59:44Z</time>
  <course>176.94</course>
  <speed>26.254037784691327</speed>
  <fix>3d</fix>
</trkpt>
<trkpt lat="-35.2777318" lon="148.9855622">
  <ele>652.35</ele>
  <time>2026-09-01T19:59:44Z</time>
  <course>176.61</course>
  <speed>26.31</speed>
  <fix>3d</fix>
</trkpt>
<trkpt lat="-35.2777785" lon="148.9855653">
  <ele>652.65</ele>
  <time>2026-09-01T19:59:44Z</time>
  <course>177.02</course>
  <speed>26.234071357682932</speed>
  <fix>3d</fix>
</trkpt>
<trkpt lat="-35.2777318" lon="148.9855622">
  <ele>652.35</ele>
  <time>2026-09-01T19:59:44Z</time>
  <course>176.61</course>
  <speed>26.31</speed>
  <fix>3d</fix>
</trkpt>
<trkpt lat="-35.2778021" lon="148.985567">
  <ele>652.82</ele>
  <time>2026-09-01T19:59:44Z</time>
  <course>177.04</course>
  <speed>26.21352704234972</speed>
  <fix>3d</fix>
</trkpt>
<trkpt lat="-35.2777789" lon="148.9855657">
  <ele>652.69</ele>
  <time>2026-09-01T19:59:44Z</time>
  <course>176.61</course>
  <speed>26.26</speed>
  <fix>3d</fix>
</trkpt>
<trkpt lat="-35.2778257" lon="148.9855688">
  <ele>652.99</ele>
  <time>2026-09-01T19:59:44Z</time>
  <course>177.03</course>
  <speed>26.19356027728953</speed>
  <fix>3d</fix>
</trkpt>
<trkpt lat="-35.2777789" lon="148.9855657">
  <ele>652.69</ele>
  <time>2026-09-01T19:59:44Z</time>
  <course>176.61</course>
  <speed>26.26</speed>
  <fix>3d</fix>
</trkpt>
<trkpt lat="-35.2778493" lon="148.9855704">
  <ele>653.16</ele>
  <time>2026-09-01T19:59:44Z</time>
  <course>176.99</course>
  <speed>26.173018549643828</speed>
  <fix>3d</fix>
</trkpt>
<trkpt lat="-35.277826" lon="148.9855691">
  <ele>653.03</ele>
  <time>2026-09-01T19:59:44Z</time>
  <course>176.62</course>
  <speed>26.21</speed>
  <fix>3d</fix>
</trkpt>
<trkpt lat="-35.2778729" lon="148.9855721">
  <ele>653.32</ele>
  <time>2026-09-01T19:59:44Z</time>
  <course>177.0</course>
  <speed>26.163034992141107</speed>
  <fix>3d</fix>
</trkpt>
<trkpt lat="-35.277826" lon="148.9855691">
  <ele>653.03</ele>
  <time>2026-09-01T19:59:44Z</time>
  <course>176.62</course>
  <speed>26.21</speed>
  <fix>3d</fix>
</trkpt>
<trkpt lat="-35.2778964" lon="148.9855738">
  <ele>653.48</ele>
  <time>2026-09-01T19:59:44Z</time>
  <course>177.05</course>
  <speed>26.14306791484121</speed>
  <fix>3d</fix>
</trkpt>
<trkpt lat="-35.277873" lon="148.9855725">
  <ele>653.36</ele>
  <time>2026-09-01T19:59:44Z</time>
  <course>176.63</course>
  <speed>26.17</speed>
  <fix>3d</fix>
</trkpt>
<trkpt lat="-35.2779199" lon="148.9855755">
  <ele>653.64</ele>
  <time>2026-09-01T19:59:44Z</time>
  <course>177.13</course>
  <speed>26.132512317035268</speed>
  <fix>3d</fix>
</trkpt>
<trkpt lat="-35.277873" lon="148.9855725">
  <ele>653.36</ele>
  <time>2026-09-01T19:59:44Z</time>
  <course>176.63</course>
  <speed>26.17</speed>
  <fix>3d</fix>
</trkpt>
<trkpt lat="-35.2779434" lon="148.9855772">
  <ele>653.81</ele>
  <time>2026-09-01T19:59:44Z</time>
  <course>177.14</course>
  <speed>26.12139544511357</speed>
  <fix>3d</fix>
</trkpt>
<trkpt lat="-35.2779199" lon="148.9855759">
  <ele>653.68</ele>
  <time>2026-09-01T19:59:44Z</time>
  <course>176.66</course>
  <speed>26.13</speed>
  <fix>3d</fix>
</trkpt>
<trkpt lat="-35.2779669" lon="148.9855788">
  <ele>653.97</ele>
  <time>2026-09-01T19:59:44Z</time>
  <course>177.11</course>
  <speed>26.10086588601995</speed>
  <fix>3d</fix>
</trkpt>
<trkpt lat="-35.2779199" lon="148.9855759">
  <ele>653.68</ele>
  <time>2026-09-01T19:59:44Z</time>
  <course>176.66</course>
  <speed>26.13</speed>
  <fix>3d</fix>
</trkpt>
<trkpt lat="-35.2779904" lon="148.9855805">
  <ele>654.14</ele>
  <time>2026-09-01T19:59:44Z</time>
  <course>177.14</course>
  <speed>26.09088154892433</speed>
  <fix>3d</fix>
</trkpt>
<trkpt lat="-35.2779668" lon="148.9855792">
  <ele>654.01</ele>
  <time>2026-09-01T19:59:44Z</time>
  <course>176.7</course>
  <speed>26.1</speed>
  <fix>3d</fix>
</trkpt>
<trkpt lat="-35.2780138" lon="148.9855821">
  <ele>654.31</ele>
  <time>2026-09-01T19:59:44Z</time>
  <course>177.15</course>
  <speed>26.080339338283157</speed>
  <fix>3d</fix>
</trkpt>
<trkpt lat="-35.2779668" lon="148.9855792">
  <ele>654.01</ele>
  <time>2026-09-01T19:59:44Z</time>
  <course>176.7</course>
  <speed>26.1</speed>
  <fix>3d</fix>
</trkpt>
<trkpt lat="-35.2780372" lon="148.9855837">
  <ele>654.47</ele>
  <time>2026-09-01T19:59:44Z</time>
  <course>177.22</course>
  <speed>26.060370296678443</speed>
  <fix>3d</fix>
</trkpt>
<trkpt lat="-35.2780135" lon="148.9855825">
  <ele>654.34</ele>
  <time>2026-09-01T19:59:44Z</time>
  <course>176.73</course>
  <speed>26.06</speed>
  <fix>3d</fix>
</trkpt>
<trkpt lat="-35.2780606" lon="148.9855854">
  <ele>654.64</ele>
  <time>2026-09-01T19:59:44Z</time>
  <course>177.29</course>
  <speed>26.039846389715894</speed>
  <fix>3d</fix>
</trkpt>
<trkpt lat="-35.2780135" lon="148.9855825">
  <ele>654.34</ele>
  <time>2026-09-01T19:59:44Z</time>
  <course>176.73</course>
  <speed>26.06</speed>
  <fix>3d</fix>
</trkpt>
<trkpt lat="-35.2780842" lon="148.985587">
  <ele>654.81</ele>
  <time>2026-09-01T19:59:44Z</time>
  <course>177.29</course>
  <speed>26.01932551008961</speed>
  <fix>3d</fix>
</trkpt>
<trkpt lat="-35.2780602" lon="148.9855857">
  <ele>654.68</ele>
  <time>2026-09-01T19:59:44Z</time>
  <course>176.76</course>
  <speed>26.03</speed>
  <fix>3d</fix>
</trkpt>
<trkpt lat="-35.2781076" lon="148.9855886">
  <ele>654.99</ele>
  <time>2026-09-01T19:59:44Z</time>
  <course>177.21</course>
  <speed>25.998807664968023</speed>
  <fix>3d</fix>
</trkpt>
<trkpt lat="-35.2780602" lon="148.9855857">
  <ele>654.68</ele>
  <time>2026-09-01T19:59:44Z</time>
  <course>176.76</course>
  <speed>26.03</speed>
  <fix>3d</fix>
</trkpt>
<trkpt lat="-35.2781309" lon="148.9855902">
  <ele>655.16</ele>
  <time>2026-09-01T19:59:44Z</time>
  <course>177.17</course>
  <speed>25.978292861541153</speed>
  <fix>3d</fix>
</trkpt>
<trkpt lat="-35.2781069" lon="148.985589">
  <ele>655.02</ele>
  <time>2026-09-01T19:59:44Z</time>
  <course>176.79</course>
  <speed>25.99</speed>
  <fix>3d</fix>
</trkpt>
<trkpt lat="-35.2781542" lon="148.9855918">
  <ele>655.34</ele>
  <time>2026-09-01T19:59:44Z</time>
  <course>177.17</course>
  <speed>25.968852496789303</speed>
  <fix>3d</fix>
</trkpt>
<trkpt lat="-35.2781069" lon="148.985589">
  <ele>655.02</ele>
  <time>2026-09-01T19:59:44Z</time>
  <course>176.79</course>
  <speed>25.99</speed>
  <fix>3d</fix>
</trkpt>
<trkpt lat="-35.2781776" lon="148.9855934">
  <ele>655.51</ele>
  <time>2026-09-01T19:59:44Z</time>
  <course>177.17</course>
  <speed>25.95886746373963</speed>
  <fix>3d</fix>
</trkpt>
<trkpt lat="-35.2781535" lon="148.9855921">
  <ele>655.37</ele>
  <time>2026-09-01T19:59:44Z</time>
  <course>176.79</course>
  <speed>25.95</speed>
  <fix>3d</fix>
</trkpt>
<trkpt lat="-35.2782009" lon="148.985595">
  <ele>655.69</ele>
  <time>2026-09-01T19:59:44Z</time>
  <course>177.2</course>
  <speed>25.938897432234857</speed>
  <fix>3d</fix>
</trkpt>
<trkpt lat="-35.2781535" lon="148.9855921">
  <ele>655.37</ele>
  <time>2026-09-01T19:59:44Z</time>
  <course>176.79</course>
  <speed>25.95</speed>
  <fix>3d</fix>
</trkpt>
<trkpt lat="-35.2782242" lon="148.9855966">
  <ele>655.86</ele>
  <time>2026-09-01T19:59:44Z</time>
  <course>177.25</course>
  <speed>25.9289124338064</speed>
  <fix>3d</fix>
</trkpt>
<trkpt lat="-35.2782" lon="148.9855953">
  <ele>655.72</ele>
  <time>2026-09-01T19:59:44Z</time>
  <course>176.78</course>
  <speed>25.93</speed>
  <fix>3d</fix>
</trkpt>
<trkpt lat="-35.2782475" lon="148.9855982">
  <ele>656.03</ele>
  <time>2026-09-01T19:59:44Z</time>
  <course>177.28</course>
  <speed>25.91838150811119</speed>
  <fix>3d</fix>
</trkpt>
<trkpt lat="-35.2782" lon="148.9855953">
  <ele>655.72</ele>
  <time>2026-09-01T19:59:44Z</time>
  <course>176.78</course>
  <speed>25.93</speed>
  <fix>3d</fix>
</trkpt>
<trkpt lat="-35.2782708" lon="148.9855998">
  <ele>656.2</ele>
  <time>2026-09-01T19:59:44Z</time>
  <course>177.26</course>
  <speed>25.90785402151247</speed>
  <fix>3d</fix>
</trkpt>
<trkpt lat="-35.2782464" lon="148.9855984">
  <ele>656.06</ele>
  <time>2026-09-01T19:59:44Z</time>
  <course>176.79</course>
  <speed>25.9</speed>
  <fix>3d</fix>
</trkpt>
<trkpt lat="-35.2782939" lon="148.9856014">
  <ele>656.37</ele>
  <time>2026-09-01T19:59:44Z</time>
  <course>177.25</course>
  <speed>25.887883266115058</speed>
  <fix>3d</fix>
</trkpt>
<trkpt lat="-35.2782464" lon="148.9855984">
  <ele>656.06</ele>
  <time>2026-09-01T19:59:44Z</time>
  <course>176.79</course>
  <speed>25.9</speed>
  <fix>3d</fix>
</trkpt>
<trkpt lat="-35.278317" lon="148.9856029">
  <ele>656.55</ele>
  <time>2026-09-01T19:59:44Z</time>
  <course>177.27</course>
  <speed>25.87789790535545</speed>
  <fix>3d</fix>
</trkpt>
<trkpt lat="-35.2782928" lon="148.9856017">
  <ele>656.41</ele>
  <time>2026-09-01T19:59:44Z</time>
  <course>176.8</course>
  <speed>25.87</speed>
  <fix>3d</fix>
</trkpt>
<trkpt lat="-35.2783401" lon="148.9856045">
  <ele>656.72</ele>
  <time>2026-09-01T19:59:44Z</time>
  <course>177.34</course>
  <speed>25.857927217779853</speed>
  <fix>3d</fix>
</trkpt>
<trkpt lat="-35.2782928" lon="148.9856017">
  <ele>656.41</ele>
  <time>2026-09-01T19:59:44Z</time>
  <course>176.8</course>
  <speed>25.87</speed>
  <fix>3d</fix>
</trkpt>
<trkpt lat="-35.2783632" lon="148.9856061">
  <ele>656.89</ele>
  <time>2026-09-01T19:59:44Z</time>
  <course>177.36</course>
  <speed>25.83741666653228</speed>
  <fix>3d</fix>
</trkpt>
<trkpt lat="-35.2783393" lon="148.9856049">
  <ele>656.76</ele>
  <time>2026-09-01T19:59:44Z</time>
  <course>176.82</course>
  <speed>25.85</speed>
  <fix>3d</fix>
</trkpt>
<trkpt lat="-35.2783862" lon="148.9856076">
  <ele>657.07</ele>
  <time>2026-09-01T19:59:44Z</time>
  <course>177.32</course>
  <speed>25.81690918758479</speed>
  <fix>3d</fix>
</trkpt>
<trkpt lat="-35.2783393" lon="148.9856049">
  <ele>656.76</ele>
  <time>2026-09-01T19:59:44Z</time>
  <course>176.82</course>
  <speed>25.85</speed>
  <fix>3d</fix>
</trkpt>
<trkpt lat="-35.2784092" lon="148.9856092">
  <ele>657.24</ele>
  <time>2026-09-01T19:59:44Z</time>
  <course>177.37</course>
  <speed>25.806390681379682</speed>
  <fix>3d</fix>
</trkpt>
<trkpt lat="-35.2783858" lon="148.985608">
  <ele>657.11</ele>
  <time>2026-09-01T19:59:44Z</time>
  <course>176.84</course>
  <speed>25.83</speed>
  <fix>3d</fix>
</trkpt>
<trkpt lat="-35.2784323" lon="148.9856107">
  <ele>657.42</ele>
  <time>2026-09-01T19:59:44Z</time>
  <course>177.4</course>
  <speed>25.796404788264585</speed>
  <fix>3d</fix>
</trkpt>
<trkpt lat="-35.2783858" lon="148.985608">
  <ele>657.11</ele>
  <time>2026-09-01T19:59:44Z</time>
  <course>176.84</course>
  <speed>25.83</speed>
  <fix>3d</fix>
</trkpt>
<trkpt lat="-35.2784553" lon="148.9856123">
  <ele>657.59</ele>
  <time>2026-09-01T19:59:44Z</time>
  <course>177.42</course>
  <speed>25.776433034847937</speed>
  <fix>3d</fix>
</trkpt>
<trkpt lat="-35.2784321" lon="148.9856111">
  <ele>657.46</ele>
  <time>2026-09-01T19:59:44Z</time>
  <course>176.85</course>
  <speed>25.81</speed>
  <fix>3d</fix>
</trkpt>
<trkpt lat="-35.2784783" lon="148.9856138">
  <ele>657.76</ele>
  <time>2026-09-01T19:59:44Z</time>
  <course>177.36</course>
  <speed>25.766447174571816</speed>
  <fix>3d</fix>
</trkpt>
<trkpt lat="-35.2784321" lon="148.9856111">
  <ele>657.46</ele>
  <time>2026-09-01T19:59:44Z</time>
  <course>176.85</course>
  <speed>25.81</speed>
  <fix>3d</fix>
</trkpt>
<trkpt lat="-35.2785014" lon="148.9856153">
  <ele>657.94</ele>
  <time>2026-09-01T19:59:44Z</time>
  <course>177.34</course>
  <speed>25.75646132526749</speed>
  <fix>3d</fix>
</trkpt>
<trkpt lat="-35.2784784" lon="148.9856142">
  <ele>657.81</ele>
  <time>2026-09-01T19:59:44Z</time>
  <course>176.86</course>
  <speed>25.79</speed>
  <fix>3d</fix>
</trkpt>
<trkpt lat="-35.2785244" lon="148.9856169">
  <ele>658.11</ele>
  <time>2026-09-01T19:59:44Z</time>
  <course>177.31</course>
  <speed>25.747009535089703</speed>
  <fix>3d</fix>
</trkpt>
<trkpt lat="-35.2784784" lon="148.9856142">
  <ele>657.81</ele>
  <time>2026-09-01T19:59:44Z</time>
  <course>176.86</course>
  <speed>25.79</speed>
  <fix>3d</fix>
</trkpt>
<trkpt lat="-35.2785472" lon="148.9856184">
  <ele>658.28</ele>
  <time>2026-09-01T19:59:44Z</time>
  <course>177.3</course>
  <speed>25.737023914975097</speed>
  <fix>3d</fix>
</trkpt>
<trkpt lat="-35.2785247" lon="148.9856173">
  <ele>658.16</ele>
  <time>2026-09-01T19:59:44Z</time>
  <course>176.84</course>
  <speed>25.78</speed>
  <fix>3d</fix>
</trkpt>
<trkpt lat="-35.2785703" lon="148.98562">
  <ele>658.46</ele>
  <time>2026-09-01T19:59:44Z</time>
  <course>177.37</course>
  <speed>25.737023914975097</speed>
  <fix>3d</fix>
</trkpt>
<trkpt lat="-35.2785247" lon="148.9856173">
  <ele>658.16</ele>
  <time>2026-09-01T19:59:44Z</time>
  <course>176.84</course>
  <speed>25.78</speed>
  <fix>3d</fix>
</trkpt>
<trkpt lat="-35.2785933" lon="148.9856216">
  <ele>658.63</ele>
  <time>2026-09-01T19:59:44Z</time>
  <course>177.38</course>
  <speed>25.737023914975097</speed>
  <fix>3d</fix>
</trkpt>
<trkpt lat="-35.2785709" lon="148.9856204">
  <ele>658.51</ele>
  <time>2026-09-01T19:59:44Z</time>
  <course>176.84</course>
  <speed>25.78</speed>
  <fix>3d</fix>
</trkpt>
<trkpt lat="-35.2786164" lon="148.9856231">
  <ele>658.81</ele>
  <time>2026-09-01T19:59:44Z</time>
  <course>177.37</course>
  <speed>25.727038306031265</speed>
  <fix>3d</fix>
</trkpt>
<trkpt lat="-35.2785709" lon="148.9856204">
  <ele>658.51</ele>
  <time>2026-09-01T19:59:44Z</time>
  <course>176.84</course>
  <speed>25.78</speed>
  <fix>3d</fix>
</trkpt>
<trkpt lat="-35.2786394" lon="148.9856247">
  <ele>658.98</ele>
  <time>2026-09-01T19:59:44Z</time>
  <course>177.42</course>
  <speed>25.716518038023732</speed>
  <fix>3d</fix>
</trkpt>
<trkpt lat="-35.2786171" lon="148.9856236">
  <ele>658.86</ele>
  <time>2026-09-01T19:59:44Z</time>
  <course>176.85</course>
  <speed>25.77</speed>
  <fix>3d</fix>
</trkpt>
<trkpt lat="-35.2786627" lon="148.9856262">
  <ele>659.15</ele>
  <time>2026-09-01T19:59:44Z</time>
  <course>177.38</course>
  <speed>25.715987245291593</speed>
  <fix>3d</fix>
</trkpt>
<trkpt lat="-35.2786171" lon="148.9856236">
  <ele>658.86</ele>
  <time>2026-09-01T19:59:44Z</time>
  <course>176.85</course>
  <speed>25.77</speed>
  <fix>3d</fix>
</trkpt>
<trkpt lat="-35.2786857" lon="148.9856278">
  <ele>659.32</ele>
  <time>2026-09-01T19:59:44Z</time>
  <course>177.31</course>
  <speed>25.716518038023732</speed>
  <fix>3d</fix>
</trkpt>
<trkpt lat="-35.2786634" lon="148.9856267">
  <ele>659.2</ele>
  <time>2026-09-01T19:59:44Z</time>
  <course>176.85</course>
  <speed>25.76</speed>
  <fix>3d</fix>
</trkpt>
<trkpt lat="-35.2787088" lon="148.9856293">
  <ele>659.5</ele>
  <time>2026-09-01T19:59:44Z</time>
  <course>177.28</course>
  <speed>25.69654646056547</speed>
  <fix>3d</fix>
</trkpt>
<trkpt lat="-35.2786634" lon="148.9856267">
  <ele>659.2</ele>
  <time>2026-09-01T19:59:44Z</time>
  <course>176.85</course>
  <speed>25.76</speed>
  <fix>3d</fix>
</trkpt>
<trkpt lat="-35.278732" lon="148.9856309">
  <ele>659.69</ele>
  <time>2026-09-01T19:59:44Z</time>
  <course>177.29</course>
  <speed>25.686560688422265</speed>
  <fix>3d</fix>
</trkpt>
<trkpt lat="-35.2787096" lon="148.9856298">
  <ele>659.56</ele>
  <time>2026-09-01T19:59:44Z</time>
  <course>176.85</course>
  <speed>25.75</speed>
  <fix>3d</fix>
</trkpt>
<trkpt lat="-35.2787551" lon="148.9856324">
  <ele>659.88</ele>
  <time>2026-09-01T19:59:44Z</time>
  <course>177.35</course>
  <speed>25.67657492735353</speed>
  <fix>3d</fix>
</trkpt>
<trkpt lat="-35.2787096" lon="148.9856298">
  <ele>659.56</ele>
  <time>2026-09-01T19:59:44Z</time>
  <course>176.85</course>
  <speed>25.75</speed>
  <fix>3d</fix>
</trkpt>
<trkpt lat="-35.2787781" lon="148.985634">
  <ele>660.06</ele>
  <time>2026-09-01T19:59:44Z</time>
  <course>177.38</course>
  <speed>25.67657492735353</speed>
  <fix>3d</fix>
</trkpt>
<trkpt lat="-35.2787557" lon="148.9856329">
  <ele>659.93</ele>
  <time>2026-09-01T19:59:44Z</time>
  <course>176.85</course>
  <speed>25.73</speed>
  <fix>3d</fix>
</trkpt>
<trkpt lat="-35.2788012" lon="148.9856355">
  <ele>660.25</ele>
  <time>2026-09-01T19:59:44Z</time>
  <course>177.4</course>
  <speed>25.666589177372206</speed>
  <fix>3d</fix>
</trkpt>
<trkpt lat="-35.2787557" lon="148.9856329">
  <ele>659.93</ele>
  <time>2026-09-01T19:59:44Z</time>
  <course>176.85</course>
  <speed>25.73</speed>
  <fix>3d</fix>
</trkpt>
<trkpt lat="-35.2788242" lon="148.9856371">
  <ele>660.44</ele>
  <time>2026-09-01T19:59:44Z</time>
  <course>177.38</course>
  <speed>25.666589177372206</speed>
  <fix>3d</fix>
</trkpt>
<trkpt lat="-35.2788019" lon="148.985636">
  <ele>660.3</ele>
  <time>2026-09-01T19:59:44Z</time>
  <course>176.85</course>
  <speed>25.72</speed>
  <fix>3d</fix>
</trkpt>
<trkpt lat="-35.2788473" lon="148.9856387">
  <ele>660.62</ele>
  <time>2026-09-01T19:59:44Z</time>
  <course>177.35</course>
  <speed>25.656603438491228</speed>
  <fix>3d</fix>
</trkpt>
<trkpt lat="-35.2788019" lon="148.985636">
  <ele>660.3</ele>
  <time>2026-09-01T19:59:44Z</time>
  <course>176.85</course>
  <speed>25.72</speed>
  <fix>3d</fix>
</trkpt>
<trkpt lat="-35.2788703" lon="148.9856402">
  <ele>660.8</ele>
  <time>2026-09-01T19:59:44Z</time>
  <course>177.37</course>
  <speed>25.656603438491228</speed>
  <fix>3d</fix>
</trkpt>
<trkpt lat="-35.2788482" lon="148.9856391">
  <ele>660.67</ele>
  <time>2026-09-01T19:59:44Z</time>
  <course>176.85</course>
  <speed>25.71</speed>
  <fix>3d</fix>
</trkpt>
<trkpt lat="-35.2788934" lon="148.9856418">
  <ele>660.99</ele>
  <time>2026-09-01T19:59:44Z</time>
  <course>177.35</course>
  <speed>25.667124887684636</speed>
  <fix>3d</fix>
</trkpt>
<trkpt lat="-35.2788482" lon="148.9856391">
  <ele>660.67</ele>
  <time>2026-09-01T19:59:44Z</time>
  <course>176.85</course>
  <speed>25.71</speed>
  <fix>3d</fix>
</trkpt>
<trkpt lat="-35.2789165" lon="148.9856433">
  <ele>661.17</ele>
  <time>2026-09-01T19:59:44Z</time>
  <course>177.38</course>
  <speed>25.657139357301702</speed>
  <fix>3d</fix>
</trkpt>
<trkpt lat="-35.2788943" lon="148.9856422">
  <ele>661.04</ele>
  <time>2026-09-01T19:59:44Z</time>
  <course>176.83</course>
  <speed>25.71</speed>
  <fix>3d</fix>
</trkpt>
<trkpt lat="-35.2789396" lon="148.9856449">
  <ele>661.35</ele>
  <time>2026-09-01T19:59:44Z</time>
  <course>177.33</course>
  <speed>25.667124887684636</speed>
  <fix>3d</fix>
</trkpt>
<trkpt lat="-35.2788943" lon="148.9856422">
  <ele>661.04</ele>
  <time>2026-09-01T19:59:44Z</time>
  <course>176.83</course>
  <speed>25.71</speed>
  <fix>3d</fix>
</trkpt>
<trkpt lat="-35.2789627" lon="148.9856464">
  <ele>661.52</ele>
  <time>2026-09-01T19:59:44Z</time>
  <course>177.33</course>
  <speed>25.657139357301702</speed>
  <fix>3d</fix>
</trkpt>
<trkpt lat="-35.2789404" lon="148.9856453">
  <ele>661.39</ele>
  <time>2026-09-01T19:59:44Z</time>
  <course>176.82</course>
  <speed>25.71</speed>
  <fix>3d</fix>
</trkpt>
<trkpt lat="-35.2789858" lon="148.985648">
  <ele>661.7</ele>
  <time>2026-09-01T19:59:44Z</time>
  <course>177.31</course>
  <speed>25.65767916238723</speed>
  <fix>3d</fix>
</trkpt>
<trkpt lat="-35.2789404" lon="148.9856453">
  <ele>661.39</ele>
  <time>2026-09-01T19:59:44Z</time>
  <course>176.82</course>
  <speed>25.71</speed>
  <fix>3d</fix>
</trkpt>
<trkpt lat="-35.2790088" lon="148.9856496">
  <ele>661.88</ele>
  <time>2026-09-01T19:59:44Z</time>
  <course>177.34</course>
  <speed>25.668207962380233</speed>
  <fix>3d</fix>
</trkpt>
<trkpt lat="-35.2789865" lon="148.9856485">
  <ele>661.74</ele>
  <time>2026-09-01T19:59:44Z</time>
  <course>176.81</course>
  <speed>25.7</speed>
  <fix>3d</fix>
</trkpt>
<trkpt lat="-35.2790317" lon="148.9856512">
  <ele>662.05</ele>
  <time>2026-09-01T19:59:44Z</time>
  <course>177.29</course>
  <speed>25.668207962380233</speed>
  <fix>3d</fix>
</trkpt>
<trkpt lat="-35.2789865" lon="148.9856485">
  <ele>661.74</ele>
  <time>2026-09-01T19:59:44Z</time>
  <course>176.81</course>
  <speed>25.7</speed>
  <fix>3d</fix>
</trkpt>
<trkpt lat="-35.2790548" lon="148.9856528">
  <ele>662.23</ele>
  <time>2026-09-01T19:59:44Z</time>
  <course>177.24</course>
  <speed>25.67874023389777</speed>
  <fix>3d</fix>
</trkpt>
<trkpt lat="-35.2790326" lon="148.9856517">
  <ele>662.1</ele>
  <time>2026-09-01T19:59:44Z</time>
  <course>176.77</course>
  <speed>25.71</speed>
  <fix>3d</fix>
</trkpt>
<trkpt lat="-35.2790779" lon="148.9856544">
  <ele>662.41</ele>
  <time>2026-09-01T19:59:44Z</time>
  <course>177.27</course>
  <speed>25.679291267478547</speed>
  <fix>3d</fix>
</trkpt>
<trkpt lat="-35.2790326" lon="148.9856517">
  <ele>662.1</ele>
  <time>2026-09-01T19:59:44Z</time>
  <course>176.77</course>
  <speed>25.71</speed>
  <fix>3d</fix>
</trkpt>
<trkpt lat="-35.279101" lon="148.985656">
  <ele>662.58</ele>
  <time>2026-09-01T19:59:44Z</time>
  <course>177.27</course>
  <speed>25.679291267478547</speed>
  <fix>3d</fix>
</trkpt>
<trkpt lat="-35.2790787" lon="148.9856548">
  <ele>662.45</ele>
  <time>2026-09-01T19:59:44Z</time>
  <course>176.74</course>
  <speed>25.71</speed>
  <fix>3d</fix>
</trkpt>
<trkpt lat="-35.2791243" lon="148.9856576">
  <ele>662.76</ele>
  <time>2026-09-01T19:59:44Z</time>
  <course>177.28</course>
  <speed>25.67984618333996</speed>
  <fix>3d</fix>
</trkpt>
<trkpt lat="-35.2790787" lon="148.9856548">
  <ele>662.45</ele>
  <time>2026-09-01T19:59:44Z</time>
  <course>176.74</course>
  <speed>25.71</speed>
  <fix>3d</fix>
</trkpt>
<trkpt lat="-35.2791474" lon="148.9856592">
  <ele>662.94</ele>
  <time>2026-09-01T19:59:44Z</time>
  <course>177.32</course>
  <speed>25.67984618333996</speed>
  <fix>3d</fix>
</trkpt>
<trkpt lat="-35.2791248" lon="148.9856581">
  <ele>662.8</ele>
  <time>2026-09-01T19:59:44Z</time>
  <course>176.72</course>
  <speed>25.71</speed>
  <fix>3d</fix>
</trkpt>
<trkpt lat="-35.2791704" lon="148.9856608">
  <ele>663.12</ele>
  <time>2026-09-01T19:59:44Z</time>
  <course>177.37</course>
  <speed>25.67984618333996</speed>
  <fix>3d</fix>
</trkpt>
<trkpt lat="-35.2791248" lon="148.9856581">
  <ele>662.8</ele>
  <time>2026-09-01T19:59:44Z</time>
  <course>176.72</course>
  <speed>25.71</speed>
  <fix>3d</fix>
</trkpt>
<trkpt lat="-35.2791935" lon="148.9856625">
  <ele>663.29</ele>
  <time>2026-09-01T19:59:44Z</time>
  <course>177.34</course>
  <speed>25.689275972669996</speed>
  <fix>3d</fix>
</trkpt>
<trkpt lat="-35.2791709" lon="148.9856613">
  <ele>663.15</ele>
  <time>2026-09-01T19:59:44Z</time>
  <course>176.73</course>
  <speed>25.71</speed>
  <fix>3d</fix>
</trkpt>
<trkpt lat="-35.2792166" lon="148.9856641">
  <ele>663.47</ele>
  <time>2026-09-01T19:59:44Z</time>
  <course>177.32</course>
  <speed>25.689275972669996</speed>
  <fix>3d</fix>
</trkpt>
<trkpt lat="-35.2791709" lon="148.9856613">
  <ele>663.15</ele>
  <time>2026-09-01T19:59:44Z</time>
  <course>176.73</course>
  <speed>25.71</speed>
  <fix>3d</fix>
</trkpt>
<trkpt lat="-35.2792397" lon="148.9856657">
  <ele>663.64</ele>
  <time>2026-09-01T19:59:44Z</time>
  <course>177.33</course>
  <speed>25.689275972669996</speed>
  <fix>3d</fix>
</trkpt>
<trkpt lat="-35.279217" lon="148.9856644">
  <ele>663.5</ele>
  <time>2026-09-01T19:59:44Z</time>
  <course>176.74</course>
  <speed>25.71</speed>
  <fix>3d</fix>
</trkpt>
<trkpt lat="-35.2792628" lon="148.9856673">
  <ele>663.81</ele>
  <time>2026-09-01T19:59:44Z</time>
  <course>177.3</course>
  <speed>25.688725153265196</speed>
  <fix>3d</fix>
</trkpt>
<trkpt lat="-35.279217" lon="148.9856644">
  <ele>663.5</ele>
  <time>2026-09-01T19:59:44Z</time>
  <course>176.74</course>
  <speed>25.71</speed>
  <fix>3d</fix>
</trkpt>
<trkpt lat="-35.2792858" lon="148.9856689">
  <ele>663.99</ele>
  <time>2026-09-01T19:59:44Z</time>
  <course>177.31</course>
  <speed>25.688725153265196</speed>
  <fix>3d</fix>
</trkpt>
<trkpt lat="-35.2792631" lon="148.9856677">
  <ele>663.85</ele>
  <time>2026-09-01T19:59:44Z</time>
  <course>176.75</course>
  <speed>25.71</speed>
  <fix>3d</fix>
</trkpt>
<trkpt lat="-35.2793089" lon="148.9856705">
  <ele>664.16</ele>
  <time>2026-09-01T19:59:44Z</time>
  <course>177.37</course>
  <speed>25.688725153265196</speed>
  <fix>3d</fix>
</trkpt>
<trkpt lat="-35.2792631" lon="148.9856677">
  <ele>663.85</ele>
  <time>2026-09-01T19:59:44Z</time>
  <course>176.75</course>
  <speed>25.71</speed>
  <fix>3d</fix>
</trkpt>
<trkpt lat="-35.279332" lon="148.985672">
  <ele>664.33</ele>
  <time>2026-09-01T19:59:44Z</time>
  <course>177.34</course>
  <speed>25.68817821489099</speed>
  <fix>3d</fix>
</trkpt>
<trkpt lat="-35.2793093" lon="148.9856709">
  <ele>664.2</ele>
  <time>2026-09-01T19:59:44Z</time>
  <course>176.77</course>
  <speed>25.72</speed>
  <fix>3d</fix>
</trkpt>
<trkpt lat="-35.279355" lon="148.9856736">
  <ele>664.5</ele>
  <time>2026-09-01T19:59:44Z</time>
  <course>177.33</course>
  <speed>25.69816335849704</speed>
  <fix>3d</fix>
</trkpt>
<trkpt lat="-35.2793093" lon="148.9856709">
  <ele>664.2</ele>
  <time>2026-09-01T19:59:44Z</time>
  <course>176.77</course>
  <speed>25.72</speed>
  <fix>3d</fix>
</trkpt>
<trkpt lat="-35.2793783" lon="148.9856752">
  <ele>664.67</ele>
  <time>2026-09-01T19:59:44Z</time>
  <course>177.33</course>
  <speed>25.69816335849704</speed>
  <fix>3d</fix>
</trkpt>
<trkpt lat="-35.2793555" lon="148.985674">
  <ele>664.55</ele>
  <time>2026-09-01T19:59:44Z</time>
  <course>176.78</course>
  <speed>25.72</speed>
  <fix>3d</fix>
</trkpt>
<trkpt lat="-35.2794014" lon="148.9856768">
  <ele>664.85</ele>
  <time>2026-09-01T19:59:44Z</time>
  <course>177.34</course>
  <speed>25.687635157795274</speed>
  <fix>3d</fix>
</trkpt>
<trkpt lat="-35.2793555" lon="148.985674">
  <ele>664.55</ele>
  <time>2026-09-01T19:59:44Z</time>
  <course>176.78</course>
  <speed>25.72</speed>
  <fix>3d</fix>
</trkpt>
<trkpt lat="-35.2794245" lon="148.9856784">
  <ele>665.02</ele>
  <time>2026-09-01T19:59:44Z</time>
  <course>177.34</course>
  <speed>25.697620512413206</speed>
  <fix>3d</fix>
</trkpt>
<trkpt lat="-35.2794017" lon="148.9856773">
  <ele>664.89</ele>
  <time>2026-09-01T19:59:44Z</time>
  <course>176.8</course>
  <speed>25.72</speed>
  <fix>3d</fix>
</trkpt>
<trkpt lat="-35.2794476" lon="148.98568">
  <ele>665.19</ele>
  <time>2026-09-01T19:59:44Z</time>
  <course>177.31</course>
  <speed>25.707605878416608</speed>
  <fix>3d</fix>
</trkpt>
<trkpt lat="-35.2794017" lon="148.9856773">
  <ele>664.89</ele>
  <time>2026-09-01T19:59:44Z</time>
  <course>176.8</course>
  <speed>25.72</speed>
  <fix>3d</fix>
</trkpt>
<trkpt lat="-35.2794707" lon="148.9856815">
  <ele>665.36</ele>
  <time>2026-09-01T19:59:44Z</time>
  <course>177.32</course>
  <speed>25.707067121707993</speed>
  <fix>3d</fix>
</trkpt>
<trkpt lat="-35.2794478" lon="148.9856804">
  <ele>665.24</ele>
  <time>2026-09-01T19:59:44Z</time>
  <course>176.8</course>
  <speed>25.73</speed>
  <fix>3d</fix>
</trkpt>
<trkpt lat="-35.2794939" lon="148.9856831">
  <ele>665.53</ele>
  <time>2026-09-01T19:59:44Z</time>
  <course>177.35</course>
  <speed>25.707067121707993</speed>
  <fix>3d</fix>
</trkpt>
<trkpt lat="-35.2794478" lon="148.9856804">
  <ele>665.24</ele>
  <time>2026-09-01T19:59:44Z</time>
  <course>176.8</course>
  <speed>25.73</speed>
  <fix>3d</fix>
</trkpt>
<trkpt lat="-35.2795168" lon="148.9856847">
  <ele>665.7</ele>
  <time>2026-09-01T19:59:44Z</time>
  <course>177.35</course>
  <speed>25.71705270827122</speed>
  <fix>3d</fix>
</trkpt>
<trkpt lat="-35.279494" lon="148.9856836">
  <ele>665.57</ele>
  <time>2026-09-01T19:59:44Z</time>
  <course>176.81</course>
  <speed>25.73</speed>
  <fix>3d</fix>
</trkpt>
<trkpt lat="-35.27954" lon="148.9856862">
  <ele>665.88</ele>
  <time>2026-09-01T19:59:44Z</time>
  <course>177.33</course>
  <speed>25.71705270827122</speed>
  <fix>3d</fix>
</trkpt>
<trkpt lat="-35.279494" lon="148.9856836">
  <ele>665.57</ele>
  <time>2026-09-01T19:59:44Z</time>
  <course>176.81</course>
  <speed>25.73</speed>
  <fix>3d</fix>
</trkpt>
<trkpt lat="-35.2795632" lon="148.9856878">
  <ele>666.05</ele>
  <time>2026-09-01T19:59:44Z</time>
  <course>177.35</course>
  <speed>25.727576644526785</speed>
  <fix>3d</fix>
</trkpt>
<trkpt lat="-35.2795401" lon="148.9856867">
  <ele>665.92</ele>
  <time>2026-09-01T19:59:44Z</time>
  <course>176.8</course>
  <speed>25.73</speed>
  <fix>3d</fix>
</trkpt>
<trkpt lat="-35.2795864" lon="148.9856894">
  <ele>666.22</ele>
  <time>2026-09-01T19:59:44Z</time>
  <course>177.32</course>
  <speed>25.728118858556297</speed>
  <fix>3d</fix>
</trkpt>
<trkpt lat="-35.2795401" lon="148.9856867">
  <ele>665.92</ele>
  <time>2026-09-01T19:59:44Z</time>
  <course>176.8</course>
  <speed>25.73</speed>
  <fix>3d</fix>
</trkpt>
<trkpt lat="-35.2796097" lon="148.985691">
  <ele>666.4</ele>
  <time>2026-09-01T19:59:44Z</time>
  <course>177.3</course>
  <speed>25.728118858556297</speed>
  <fix>3d</fix>
</trkpt>
<trkpt lat="-35.2795863" lon="148.9856899">
  <ele>666.27</ele>
  <time>2026-09-01T19:59:44Z</time>
  <course>176.78</course>
  <speed>25.73</speed>
  <fix>3d</fix>
</trkpt>
<trkpt lat="-35.2796329" lon="148.9856926">
  <ele>666.58</ele>
  <time>2026-09-01T19:59:44Z</time>
  <course>177.27</course>
  <speed>25.738649925743967</speed>
  <fix>3d</fix>
</trkpt>
<trkpt lat="-35.2795863" lon="148.9856899">
  <ele>666.27</ele>
  <time>2026-09-01T19:59:44Z</time>
  <course>176.78</course>
  <speed>25.73</speed>
  <fix>3d</fix>
</trkpt>
<trkpt lat="-35.2796561" lon="148.9856942">
  <ele>666.76</ele>
  <time>2026-09-01T19:59:44Z</time>
  <course>177.32</course>
  <speed>25.738649925743967</speed>
  <fix>3d</fix>
</trkpt>
<trkpt lat="-35.2796324" lon="148.9856931">
  <ele>666.62</ele>
  <time>2026-09-01T19:59:44Z</time>
  <course>176.76</course>
  <speed>25.73</speed>
  <fix>3d</fix>
</trkpt>
<trkpt lat="-35.2796793" lon="148.9856959">
  <ele>666.93</ele>
  <time>2026-09-01T19:59:44Z</time>
  <course>177.34</course>
  <speed>25.748634915272692</speed>
  <fix>3d</fix>
</trkpt>
<trkpt lat="-35.2796324" lon="148.9856931">
  <ele>666.62</ele>
  <time>2026-09-01T19:59:44Z</time>
  <course>176.76</course>
  <speed>25.73</speed>
  <fix>3d</fix>
</trkpt>
<trkpt lat="-35.2797024" lon="148.9856975">
  <ele>667.11</ele>
  <time>2026-09-01T19:59:44Z</time>
  <course>177.36</course>
  <speed>25.748634915272692</speed>
  <fix>3d</fix>
</trkpt>
<trkpt lat="-35.2796785" lon="148.9856962">
  <ele>666.97</ele>
  <time>2026-09-01T19:59:44Z</time>
  <course>176.76</course>
  <speed>25.74</speed>
  <fix>3d</fix>
</trkpt>
<trkpt lat="-35.2797256" lon="148.9856991">
  <ele>667.29</ele>
  <time>2026-09-01T19:59:44Z</time>
  <course>177.39</course>
  <speed>25.758074462195346</speed>
  <fix>3d</fix>
</trkpt>
<trkpt lat="-35.2796785" lon="148.9856962">
  <ele>666.97</ele>
  <time>2026-09-01T19:59:44Z</time>
  <course>176.76</course>
  <speed>25.74</speed>
  <fix>3d</fix>
</trkpt>
<trkpt lat="-35.2797487" lon="148.9857006">
  <ele>667.47</ele>
  <time>2026-09-01T19:59:44Z</time>
  <course>177.4</course>
  <speed>25.758074462195346</speed>
  <fix>3d</fix>
</trkpt>
<trkpt lat="-35.2797247" lon="148.9856995">
  <ele>667.33</ele>
  <time>2026-09-01T19:59:44Z</time>
  <course>176.77</course>
  <speed>25.74</speed>
  <fix>3d</fix>
</trkpt>
<trkpt lat="-35.2797719" lon="148.9857022">
  <ele>667.65</ele>
  <time>2026-09-01T19:59:44Z</time>
  <course>177.35</course>
  <speed>25.758074462195346</speed>
  <fix>3d</fix>
</trkpt>
<trkpt lat="-35.2797247" lon="148.9856995">
  <ele>667.33</ele>
  <time>2026-09-01T19:59:44Z</time>
  <course>176.77</course>
  <speed>25.74</speed>
  <fix>3d</fix>
</trkpt>
<trkpt lat="-35.279795" lon="148.9857038">
  <ele>667.83</ele>
  <time>2026-09-01T19:59:44Z</time>
  <course>177.34</course>
  <speed>25.758074462195346</speed>
  <fix>3d</fix>
</trkpt>
<trkpt lat="-35.2797709" lon="148.9857027">
  <ele>667.69</ele>
  <time>2026-09-01T19:59:44Z</time>
  <course>176.79</course>
  <speed>25.74</speed>
  <fix>3d</fix>
</trkpt>
<trkpt lat="-35.2798182" lon="148.9857054">
  <ele>668.02</ele>
  <time>2026-09-01T19:59:44Z</time>
  <course>177.33</course>
  <speed>25.758074462195346</speed>
  <fix>3d</fix>
</trkpt>
<trkpt lat="-35.2797709" lon="148.9857027">
  <ele>667.69</ele>
  <time>2026-09-01T19:59:44Z</time>
  <course>176.79</course>
  <speed>25.74</speed>
  <fix>3d</fix>
</trkpt>
<trkpt lat="-35.2798413" lon="148.985707">
  <ele>668.2</ele>
  <time>2026-09-01T19:59:44Z</time>
  <course>177.39</course>
  <speed>25.758074462195346</speed>
  <fix>3d</fix>
</trkpt>
<trkpt lat="-35.2798172" lon="148.9857058">
  <ele>668.06</ele>
  <time>2026-09-01T19:59:44Z</time>
  <course>176.8</course>
  <speed>25.74</speed>
  <fix>3d</fix>
</trkpt>
<trkpt lat="-35.2798645" lon="148.9857086">
  <ele>668.39</ele>
  <time>2026-09-01T19:59:44Z</time>
  <course>177.42</course>
  <speed>25.758074462195346</speed>
  <fix>3d</fix>
</trkpt>
<trkpt lat="-35.2798172" lon="148.9857058">
  <ele>668.06</ele>
  <time>2026-09-01T19:59:44Z</time>
  <course>176.8</course>
  <speed>25.74</speed>
  <fix>3d</fix>
</trkpt>
<trkpt lat="-35.2798876" lon="148.9857102">
  <ele>668.57</ele>
  <time>2026-09-01T19:59:44Z</time>
  <course>177.39</course>
  <speed>25.748089249495777</speed>
  <fix>3d</fix>
</trkpt>
<trkpt lat="-35.2798633" lon="148.9857089">
  <ele>668.41</ele>
  <time>2026-09-01T19:59:44Z</time>
  <course>176.79</course>
  <speed>25.73</speed>
  <fix>3d</fix>
</trkpt>
<trkpt lat="-35.2799107" lon="148.9857118">
  <ele>668.75</ele>
  <time>2026-09-01T19:59:44Z</time>
  <course>177.39</course>
  <speed>25.748089249495777</speed>
  <fix>3d</fix>
</trkpt>
<trkpt lat="-35.2798633" lon="148.9857089">
  <ele>668.41</ele>
  <time>2026-09-01T19:59:44Z</time>
  <course>176.79</course>
  <speed>25.73</speed>
  <fix>3d</fix>
</trkpt>
<trkpt lat="-35.2799338" lon="148.9857133">
  <ele>668.94</ele>
  <time>2026-09-01T19:59:44Z</time>
  <course>177.39</course>
  <speed>25.747547456019962</speed>
  <fix>3d</fix>
</trkpt>
<trkpt lat="-35.2799095" lon="148.9857121">
  <ele>668.77</ele>
  <time>2026-09-01T19:59:44Z</time>
  <course>176.79</course>
  <speed>25.73</speed>
  <fix>3d</fix>
</trkpt>
<trkpt lat="-35.2799569" lon="148.9857149">
  <ele>669.13</ele>
  <time>2026-09-01T19:59:44Z</time>
  <course>177.38</course>
  <speed>25.7375620446071</speed>
  <fix>3d</fix>
</trkpt>
<trkpt lat="-35.2799095" lon="148.9857121">
  <ele>668.77</ele>
  <time>2026-09-01T19:59:44Z</time>
  <course>176.79</course>
  <speed>25.73</speed>
  <fix>3d</fix>
</trkpt>
<trkpt lat="-35.27998" lon="148.9857165">
  <ele>669.32</ele>
  <time>2026-09-01T19:59:44Z</time>
  <course>177.39</course>
  <speed>25.747547456019962</speed>
  <fix>3d</fix>
</trkpt>
<trkpt lat="-35.2799556" lon="148.9857152">
  <ele>669.15</ele>
  <time>2026-09-01T19:59:44Z</time>
  <course>176.8</course>
  <speed>25.72</speed>
  <fix>3d</fix>
</trkpt>
<trkpt lat="-35.2800031" lon="148.9857181">
  <ele>669.51</ele>
  <time>2026-09-01T19:59:44Z</time>
  <course>177.37</course>
  <speed>25.747547456019962</speed>
  <fix>3d</fix>
</trkpt>
<trkpt lat="-35.2799556" lon="148.9857152">
  <ele>669.15</ele>
  <time>2026-09-01T19:59:44Z</time>
  <course>176.8</course>
  <speed>25.72</speed>
  <fix>3d</fix>
</trkpt>
<trkpt lat="-35.2800262" lon="148.9857196">
  <ele>669.69</ele>
  <time>2026-09-01T19:59:44Z</time>
  <course>177.41</course>
  <speed>25.7375620446071</speed>
  <fix>3d</fix>
</trkpt>
<trkpt lat="-35.2800018" lon="148.9857185">
  <ele>669.52</ele>
  <time>2026-09-01T19:59:44Z</time>
  <course>176.8</course>
  <speed>25.71</speed>
  <fix>3d</fix>
</trkpt>
<trkpt lat="-35.2800492" lon="148.9857212">
  <ele>669.88</ele>
  <time>2026-09-01T19:59:44Z</time>
  <course>177.44</course>
  <speed>25.7375620446071</speed>
  <fix>3d</fix>
</trkpt>
<trkpt lat="-35.2800018" lon="148.9857185">
  <ele>669.52</ele>
  <time>2026-09-01T19:59:44Z</time>
  <course>176.8</course>
  <speed>25.71</speed>
  <fix>3d</fix>
</trkpt>
<trkpt lat="-35.2800722" lon="148.9857228">
  <ele>670.07</ele>
  <time>2026-09-01T19:59:44Z</time>
  <course>177.39</course>
  <speed>25.727038306031265</speed>
  <fix>3d</fix>
</trkpt>
<trkpt lat="-35.2800479" lon="148.9857216">
  <ele>669.89</ele>
  <time>2026-09-01T19:59:44Z</time>
  <course>176.81</course>
  <speed>25.71</speed>
  <fix>3d</fix>
</trkpt>
<trkpt lat="-35.2800953" lon="148.9857244">
  <ele>670.26</ele>
  <time>2026-09-01T19:59:44Z</time>
  <course>177.42</course>
  <speed>25.71705270827122</speed>
  <fix>3d</fix>
</trkpt>
<trkpt lat="-35.2800479" lon="148.9857216">
  <ele>669.89</ele>
  <time>2026-09-01T19:59:44Z</time>
  <course>176.81</course>
  <speed>25.71</speed>
  <fix>3d</fix>
</trkpt>
<trkpt lat="-35.2801182" lon="148.9857259">
  <ele>670.45</ele>
  <time>2026-09-01T19:59:44Z</time>
  <course>177.43</course>
  <speed>25.707067121707993</speed>
  <fix>3d</fix>
</trkpt>
<trkpt lat="-35.280094" lon="148.9857247">
  <ele>670.27</ele>
  <time>2026-09-01T19:59:44Z</time>
  <course>176.83</course>
  <speed>25.71</speed>
  <fix>3d</fix>
</trkpt>
<trkpt lat="-35.2801411" lon="148.9857275">
  <ele>670.65</ele>
  <time>2026-09-01T19:59:44Z</time>
  <course>177.47</course>
  <speed>25.69654646056547</speed>
  <fix>3d</fix>
</trkpt>
<trkpt lat="-35.280094" lon="148.9857247">
  <ele>670.27</ele>
  <time>2026-09-01T19:59:44Z</time>
  <course>176.83</course>
  <speed>25.71</speed>
  <fix>3d</fix>
</trkpt>
<trkpt lat="-35.2801641" lon="148.985729">
  <ele>670.84</ele>
  <time>2026-09-01T19:59:44Z</time>
  <course>177.5</course>
  <speed>25.686560688422265</speed>
  <fix>3d</fix>
</trkpt>
<trkpt lat="-35.2801401" lon="148.9857278">
  <ele>670.65</ele>
  <time>2026-09-01T19:59:44Z</time>
  <course>176.85</course>
  <speed>25.7</speed>
  <fix>3d</fix>
</trkpt>
<trkpt lat="-35.280187" lon="148.9857306">
  <ele>671.04</ele>
  <time>2026-09-01T19:59:44Z</time>
  <course>177.49</course>
  <speed>25.67657492735353</speed>
  <fix>3d</fix>
</trkpt>
<trkpt lat="-35.2801401" lon="148.9857278">
  <ele>670.65</ele>
  <time>2026-09-01T19:59:44Z</time>
  <course>176.85</course>
  <speed>25.7</speed>
  <fix>3d</fix>
</trkpt>
<trkpt lat="-35.28021" lon="148.9857321">
  <ele>671.24</ele>
  <time>2026-09-01T19:59:44Z</time>
  <course>177.44</course>
  <speed>25.666589177372206</speed>
  <fix>3d</fix>
</trkpt>
<trkpt lat="-35.2801862" lon="148.9857309">
  <ele>671.03</ele>
  <time>2026-09-01T19:59:44Z</time>
  <course>176.86</course>
  <speed>25.69</speed>
  <fix>3d</fix>
</trkpt>
<trkpt lat="-35.2802329" lon="148.9857337">
  <ele>671.44</ele>
  <time>2026-09-01T19:59:44Z</time>
  <course>177.46</course>
  <speed>25.656603438491228</speed>
  <fix>3d</fix>
</trkpt>
<trkpt lat="-35.2801862" lon="148.9857309">
  <ele>671.03</ele>
  <time>2026-09-01T19:59:44Z</time>
  <course>176.86</course>
  <speed>25.69</speed>
  <fix>3d</fix>
</trkpt>
<trkpt lat="-35.2802559" lon="148.9857352">
  <ele>671.64</ele>
  <time>2026-09-01T19:59:44Z</time>
  <course>177.46</course>
  <speed>25.656603438491228</speed>
  <fix>3d</fix>
</trkpt>
<trkpt lat="-35.2802323" lon="148.985734">
  <ele>671.43</ele>
  <time>2026-09-01T19:59:44Z</time>
  <course>176.86</course>
  <speed>25.68</speed>
  <fix>3d</fix>
</trkpt>
<trkpt lat="-35.2802788" lon="148.9857367">
  <ele>671.84</ele>
  <time>2026-09-01T19:59:44Z</time>
  <course>177.46</course>
  <speed>25.637168330375335</speed>
  <fix>3d</fix>
</trkpt>
<trkpt lat="-35.2802323" lon="148.985734">
  <ele>671.43</ele>
  <time>2026-09-01T19:59:44Z</time>
  <course>176.86</course>
  <speed>25.68</speed>
  <fix>3d</fix>
</trkpt>
<trkpt lat="-35.2803017" lon="148.9857383">
  <ele>672.05</ele>
  <time>2026-09-01T19:59:44Z</time>
  <course>177.5</course>
  <speed>25.62718283385827</speed>
  <fix>3d</fix>
</trkpt>
<trkpt lat="-35.2802785" lon="148.9857371">
  <ele>671.83</ele>
  <time>2026-09-01T19:59:44Z</time>
  <course>176.86</course>
  <speed>25.67</speed>
  <fix>3d</fix>
</trkpt>
<trkpt lat="-35.2803247" lon="148.9857398">
  <ele>672.26</ele>
  <time>2026-09-01T19:59:44Z</time>
  <course>177.51</course>
  <speed>25.616660594230467</speed>
  <fix>3d</fix>
</trkpt>
<trkpt lat="-35.2802785" lon="148.9857371">
  <ele>671.83</ele>
  <time>2026-09-01T19:59:44Z</time>
  <course>176.86</course>
  <speed>25.67</speed>
  <fix>3d</fix>
</trkpt>
<trkpt lat="-35.2803476" lon="148.9857414">
  <ele>672.48</ele>
  <time>2026-09-01T19:59:44Z</time>
  <course>177.5</course>
  <speed>25.60667491104614</speed>
  <fix>3d</fix>
</trkpt>
<trkpt lat="-35.2803246" lon="148.9857402">
  <ele>672.25</ele>
  <time>2026-09-01T19:59:44Z</time>
  <course>176.86</course>
  <speed>25.65</speed>
  <fix>3d</fix>
</trkpt>
<trkpt lat="-35.2803706" lon="148.9857429">
  <ele>672.7</ele>
  <time>2026-09-01T19:59:44Z</time>
  <course>177.48</course>
  <speed>25.59668923904027</speed>
  <fix>3d</fix>
</trkpt>
<trkpt lat="-35.2803246" lon="148.9857402">
  <ele>672.25</ele>
  <time>2026-09-01T19:59:44Z</time>
  <course>176.86</course>
  <speed>25.65</speed>
  <fix>3d</fix>
</trkpt>
<trkpt lat="-35.2803935" lon="148.9857445">
  <ele>672.92</ele>
  <time>2026-09-01T19:59:44Z</time>
  <course>177.43</course>
  <speed>25.586703578225936</speed>
  <fix>3d</fix>
</trkpt>
<trkpt lat="-35.2803706" lon="148.9857433">
  <ele>672.67</ele>
  <time>2026-09-01T19:59:44Z</time>
  <course>176.86</course>
  <speed>25.64</speed>
  <fix>3d</fix>
</trkpt>
<trkpt lat="-35.2804165" lon="148.985746">
  <ele>673.13</ele>
  <time>2026-09-01T19:59:44Z</time>
  <course>177.48</course>
  <speed>25.586703578225936</speed>
  <fix>3d</fix>
</trkpt>
<trkpt lat="-35.2803706" lon="148.9857433">
  <ele>672.67</ele>
  <time>2026-09-01T19:59:44Z</time>
  <course>176.86</course>
  <speed>25.64</speed>
  <fix>3d</fix>
</trkpt>
<trkpt lat="-35.2804394" lon="148.9857475">
  <ele>673.36</ele>
  <time>2026-09-01T19:59:44Z</time>
  <course>177.53</course>
  <speed>25.57618423455696</speed>
  <fix>3d</fix>
</trkpt>
<trkpt lat="-35.2804165" lon="148.9857464">
  <ele>673.11</ele>
  <time>2026-09-01T19:59:44Z</time>
  <course>176.87</course>
  <speed>25.63</speed>
  <fix>3d</fix>
</trkpt>
<trkpt lat="-35.2804624" lon="148.9857491">
  <ele>673.58</ele>
  <time>2026-09-01T19:59:44Z</time>
  <course>177.56</course>
  <speed>25.5756544393296</speed>
  <fix>3d</fix>
</trkpt>
<trkpt lat="-35.2804165" lon="148.9857464">
  <ele>673.11</ele>
  <time>2026-09-01T19:59:44Z</time>
  <course>176.87</course>
  <speed>25.63</speed>
  <fix>3d</fix>
</trkpt>
<trkpt lat="-35.2804853" lon="148.9857506">
  <ele>673.81</ele>
  <time>2026-09-01T19:59:44Z</time>
  <course>177.58</course>
  <speed>25.56514228397722</speed>
  <fix>3d</fix>
</trkpt>
<trkpt lat="-35.2804625" lon="148.9857495">
  <ele>673.56</ele>
  <time>2026-09-01T19:59:44Z</time>
  <course>176.89</course>
  <speed>25.62</speed>
  <fix>3d</fix>
</trkpt>
<trkpt lat="-35.2805082" lon="148.9857521">
  <ele>674.04</ele>
  <time>2026-09-01T19:59:44Z</time>
  <course>177.59</course>
  <speed>25.555156035524416</speed>
  <fix>3d</fix>
</trkpt>
<trkpt lat="-35.2804625" lon="148.9857495">
  <ele>673.56</ele>
  <time>2026-09-01T19:59:44Z</time>
  <course>176.89</course>
  <speed>25.62</speed>
  <fix>3d</fix>
</trkpt>
<trkpt lat="-35.2805312" lon="148.9857536">
  <ele>674.28</ele>
  <time>2026-09-01T19:59:44Z</time>
  <course>177.58</course>
  <speed>25.544647188794762</speed>
  <fix>3d</fix>
</trkpt>
<trkpt lat="-35.2805084" lon="148.9857525">
  <ele>674.02</ele>
  <time>2026-09-01T19:59:44Z</time>
  <course>176.92</course>
  <speed>25.61</speed>
  <fix>3d</fix>
</trkpt>
<trkpt lat="-35.2805541" lon="148.9857551">
  <ele>674.51</ele>
  <time>2026-09-01T19:59:44Z</time>
  <course>177.59</course>
  <speed>25.544647188794762</speed>
  <fix>3d</fix>
</trkpt>
<trkpt lat="-35.2805084" lon="148.9857525">
  <ele>674.02</ele>
  <time>2026-09-01T19:59:44Z</time>
  <course>176.92</course>
  <speed>25.61</speed>
  <fix>3d</fix>
</trkpt>
<trkpt lat="-35.2805769" lon="148.9857566">
  <ele>674.75</ele>
  <time>2026-09-01T19:59:44Z</time>
  <course>177.48</course>
  <speed>25.534660757488044</speed>
  <fix>3d</fix>
</trkpt>
<trkpt lat="-35.2805543" lon="148.9857554">
  <ele>674.49</ele>
  <time>2026-09-01T19:59:44Z</time>
  <course>176.94</course>
  <speed>25.6</speed>
  <fix>3d</fix>
</trkpt>
<trkpt lat="-35.2805998" lon="148.9857581">
  <ele>675.0</ele>
  <time>2026-09-01T19:59:44Z</time>
  <course>177.48</course>
  <speed>25.524674336805948</speed>
  <fix>3d</fix>
</trkpt>
<trkpt lat="-35.2805543" lon="148.9857554">
  <ele>674.49</ele>
  <time>2026-09-01T19:59:44Z</time>
  <course>176.94</course>
  <speed>25.6</speed>
  <fix>3d</fix>
</trkpt>
<trkpt lat="-35.2806227" lon="148.9857596">
  <ele>675.24</ele>
  <time>2026-09-01T19:59:44Z</time>
  <course>177.53</course>
  <speed>25.525197354770835</speed>
  <fix>3d</fix>
</trkpt>
<trkpt lat="-35.2806002" lon="148.9857585">
  <ele>674.97</ele>
  <time>2026-09-01T19:59:44Z</time>
  <course>176.93</course>
  <speed>25.58</speed>
  <fix>3d</fix>
</trkpt>
<trkpt lat="-35.280646" lon="148.9857611">
  <ele>675.49</ele>
  <time>2026-09-01T19:59:44Z</time>
  <course>177.49</course>
  <speed>25.515211149430062</speed>
  <fix>3d</fix>
</trkpt>
<trkpt lat="-35.2806002" lon="148.9857585">
  <ele>674.97</ele>
  <time>2026-09-01T19:59:44Z</time>
  <course>176.93</course>
  <speed>25.58</speed>
  <fix>3d</fix>
</trkpt>
<trkpt lat="-35.2806689" lon="148.9857627">
  <ele>675.73</ele>
  <time>2026-09-01T19:59:44Z</time>
  <course>177.46</course>
  <speed>25.51573828052012</speed>
  <fix>3d</fix>
</trkpt>
<trkpt lat="-35.2806461" lon="148.9857616">
  <ele>675.45</ele>
  <time>2026-09-01T19:59:44Z</time>
  <course>176.91</course>
  <speed>25.57</speed>
  <fix>3d</fix>
</trkpt>
<trkpt lat="-35.2806918" lon="148.9857642">
  <ele>675.97</ele>
  <time>2026-09-01T19:59:44Z</time>
  <course>177.46</course>
  <speed>25.51573828052012</speed>
  <fix>3d</fix>
</trkpt>
<trkpt lat="-35.2806461" lon="148.9857616">
  <ele>675.45</ele>
  <time>2026-09-01T19:59:44Z</time>
  <course>176.91</course>
  <speed>25.57</speed>
  <fix>3d</fix>
</trkpt>
<trkpt lat="-35.2807147" lon="148.9857657">
  <ele>676.2</ele>
  <time>2026-09-01T19:59:44Z</time>
  <course>177.48</course>
  <speed>25.506283539551582</speed>
  <fix>3d</fix>
</trkpt>
<trkpt lat="-35.280692" lon="148.9857645">
  <ele>675.93</ele>
  <time>2026-09-01T19:59:44Z</time>
  <course>176.89</course>
  <speed>25.57</speed>
  <fix>3d</fix>
</trkpt>
<trkpt lat="-35.2807376" lon="148.9857673">
  <ele>676.44</ele>
  <time>2026-09-01T19:59:44Z</time>
  <course>177.44</course>
  <speed>25.506283539551582</speed>
  <fix>3d</fix>
</trkpt>
<trkpt lat="-35.280692" lon="148.9857645">
  <ele>675.93</ele>
  <time>2026-09-01T19:59:44Z</time>
  <course>176.89</course>
  <speed>25.57</speed>
  <fix>3d</fix>
</trkpt>
<trkpt lat="-35.2807605" lon="148.9857688">
  <ele>676.67</ele>
  <time>2026-09-01T19:59:44Z</time>
  <course>177.45</course>
  <speed>25.50681869618397</speed>
  <fix>3d</fix>
</trkpt>
<trkpt lat="-35.2807379" lon="148.9857676">
  <ele>676.4</ele>
  <time>2026-09-01T19:59:44Z</time>
  <course>176.86</course>
  <speed>25.56</speed>
  <fix>3d</fix>
</trkpt>
<trkpt lat="-35.2807834" lon="148.9857703">
  <ele>676.89</ele>
  <time>2026-09-01T19:59:44Z</time>
  <course>177.48</course>
  <speed>25.50681869618397</speed>
  <fix>3d</fix>
</trkpt>
<trkpt lat="-35.2807379" lon="148.9857676">
  <ele>676.4</ele>
  <time>2026-09-01T19:59:44Z</time>
  <course>176.86</course>
  <speed>25.56</speed>
  <fix>3d</fix>
</trkpt>
<trkpt lat="-35.2808063" lon="148.9857719">
  <ele>677.12</ele>
  <time>2026-09-01T19:59:44Z</time>
  <course>177.46</course>
  <speed>25.49683313668582</speed>
  <fix>3d</fix>
</trkpt>
<trkpt lat="-35.2807839" lon="148.9857707">
  <ele>676.87</ele>
  <time>2026-09-01T19:59:44Z</time>
  <course>176.84</course>
  <speed>25.55</speed>
  <fix>3d</fix>
</trkpt>
<trkpt lat="-35.2808292" lon="148.9857734">
  <ele>677.34</ele>
  <time>2026-09-01T19:59:44Z</time>
  <course>177.44</course>
  <speed>25.49683313668582</speed>
  <fix>3d</fix>
</trkpt>
<trkpt lat="-35.2807839" lon="148.9857707">
  <ele>676.87</ele>
  <time>2026-09-01T19:59:44Z</time>
  <course>176.84</course>
  <speed>25.55</speed>
  <fix>3d</fix>
</trkpt>
<trkpt lat="-35.2808521" lon="148.985775">
  <ele>677.56</ele>
  <time>2026-09-01T19:59:44Z</time>
  <course>177.39</course>
  <speed>25.50681869618397</speed>
  <fix>3d</fix>
</trkpt>
<trkpt lat="-35.2808297" lon="148.9857738">
  <ele>677.31</ele>
  <time>2026-09-01T19:59:44Z</time>
  <course>176.84</course>
  <speed>25.55</speed>
  <fix>3d</fix>
</trkpt>
<trkpt lat="-35.2808751" lon="148.9857765">
  <ele>677.78</ele>
  <time>2026-09-01T19:59:44Z</time>
  <course>177.38</course>
  <speed>25.507357762026235</speed>
  <fix>3d</fix>
</trkpt>
<trkpt lat="-35.2808297" lon="148.9857738">
  <ele>677.31</ele>
  <time>2026-09-01T19:59:44Z</time>
  <course>176.84</course>
  <speed>25.55</speed>
  <fix>3d</fix>
</trkpt>
<trkpt lat="-35.280898" lon="148.9857781">
  <ele>678.0</ele>
  <time>2026-09-01T19:59:44Z</time>
  <course>177.42</course>
  <speed>25.51680426699237</speed>
  <fix>3d</fix>
</trkpt>
<trkpt lat="-35.2808755" lon="148.9857769">
  <ele>677.76</ele>
  <time>2026-09-01T19:59:44Z</time>
  <course>176.84</course>
  <speed>25.56</speed>
  <fix>3d</fix>
</trkpt>
<trkpt lat="-35.2809209" lon="148.9857796">
  <ele>678.21</ele>
  <time>2026-09-01T19:59:44Z</time>
  <course>177.43</course>
  <speed>25.52678984909775</speed>
  <fix>3d</fix>
</trkpt>
<trkpt lat="-35.2808755" lon="148.9857769">
  <ele>677.76</ele>
  <time>2026-09-01T19:59:44Z</time>
  <course>176.84</course>
  <speed>25.56</speed>
  <fix>3d</fix>
</trkpt>
<trkpt lat="-35.2809438" lon="148.9857812">
  <ele>678.41</ele>
  <time>2026-09-01T19:59:44Z</time>
  <course>177.48</course>
  <speed>25.53677544248686</speed>
  <fix>3d</fix>
</trkpt>
<trkpt lat="-35.2809213" lon="148.98578">
  <ele>678.19</ele>
  <time>2026-09-01T19:59:44Z</time>
  <course>176.84</course>
  <speed>25.57</speed>
  <fix>3d</fix>
</trkpt>
<trkpt lat="-35.2809668" lon="148.9857827">
  <ele>678.62</ele>
  <time>2026-09-01T19:59:44Z</time>
  <course>177.48</course>
  <speed>25.53677544248686</speed>
  <fix>3d</fix>
</trkpt>
<trkpt lat="-35.2809213" lon="148.98578">
  <ele>678.19</ele>
  <time>2026-09-01T19:59:44Z</time>
  <course>176.84</course>
  <speed>25.57</speed>
  <fix>3d</fix>
</trkpt>
<trkpt lat="-35.2809897" lon="148.9857843">
  <ele>678.83</ele>
  <time>2026-09-01T19:59:44Z</time>
  <course>177.5</course>
  <speed>25.546226727248783</speed>
  <fix>3d</fix>
</trkpt>
<trkpt lat="-35.2809672" lon="148.9857831">
  <ele>678.61</ele>
  <time>2026-09-01T19:59:44Z</time>
  <course>176.85</course>
  <speed>25.59</speed>
  <fix>3d</fix>
</trkpt>
<trkpt lat="-35.2810127" lon="148.9857858">
  <ele>679.04</ele>
  <time>2026-09-01T19:59:44Z</time>
  <course>177.55</course>
  <speed>25.55621255194126</speed>
  <fix>3d</fix>
</trkpt>
<trkpt lat="-35.2809672" lon="148.9857831">
  <ele>678.61</ele>
  <time>2026-09-01T19:59:44Z</time>
  <course>176.85</course>
  <speed>25.59</speed>
  <fix>3d</fix>
</trkpt>
<trkpt lat="-35.2810357" lon="148.9857873">
  <ele>679.25</ele>
  <time>2026-09-01T19:59:44Z</time>
  <course>177.61</course>
  <speed>25.565668385551746</speed>
  <fix>3d</fix>
</trkpt>
<trkpt lat="-35.2810131" lon="148.9857862">
  <ele>679.03</ele>
  <time>2026-09-01T19:59:44Z</time>
  <course>176.87</course>
  <speed>25.6</speed>
  <fix>3d</fix>
</trkpt>
<trkpt lat="-35.2810584" lon="148.9857888">
  <ele>679.46</ele>
  <time>2026-09-01T19:59:44Z</time>
  <course>177.58</course>
  <speed>25.575128543176476</speed>
  <fix>3d</fix>
</trkpt>
<trkpt lat="-35.2810131" lon="148.9857862">
  <ele>679.03</ele>
  <time>2026-09-01T19:59:44Z</time>
  <course>176.87</course>
  <speed>25.6</speed>
  <fix>3d</fix>
</trkpt>
<trkpt lat="-35.2810814" lon="148.9857903">
  <ele>679.67</ele>
  <time>2026-09-01T19:59:44Z</time>
  <course>177.58</course>
  <speed>25.575128543176476</speed>
  <fix>3d</fix>
</trkpt>
<trkpt lat="-35.2810591" lon="148.9857893">
  <ele>679.45</ele>
  <time>2026-09-01T19:59:44Z</time>
  <course>176.9</course>
  <speed>25.61</speed>
  <fix>3d</fix>
</trkpt>
<trkpt lat="-35.2811044" lon="148.9857919">
  <ele>679.89</ele>
  <time>2026-09-01T19:59:44Z</time>
  <course>177.59</course>
  <speed>25.585114813109595</speed>
  <fix>3d</fix>
</trkpt>
<trkpt lat="-35.2810591" lon="148.9857893">
  <ele>679.45</ele>
  <time>2026-09-01T19:59:44Z</time>
  <course>176.9</course>
  <speed>25.61</speed>
  <fix>3d</fix>
</trkpt>
<trkpt lat="-35.2811274" lon="148.9857934">
  <ele>680.12</ele>
  <time>2026-09-01T19:59:44Z</time>
  <course>177.55</course>
  <speed>25.594579504262224</speed>
  <fix>3d</fix>
</trkpt>
<trkpt lat="-35.2811051" lon="148.9857922">
  <ele>679.89</ele>
  <time>2026-09-01T19:59:44Z</time>
  <course>176.93</course>
  <speed>25.62</speed>
  <fix>3d</fix>
</trkpt>
<trkpt lat="-35.2811506" lon="148.9857949">
  <ele>680.34</ele>
  <time>2026-09-01T19:59:44Z</time>
  <course>177.55</course>
  <speed>25.594579504262224</speed>
  <fix>3d</fix>
</trkpt>
<trkpt lat="-35.2811051" lon="148.9857922">
  <ele>679.89</ele>
  <time>2026-09-01T19:59:44Z</time>
  <course>176.93</course>
  <speed>25.62</speed>
  <fix>3d</fix>
</trkpt>
<trkpt lat="-35.2811736" lon="148.9857964">
  <ele>680.58</ele>
  <time>2026-09-01T19:59:44Z</time>
  <course>177.53</course>
  <speed>25.594579504262224</speed>
  <fix>3d</fix>
</trkpt>
<trkpt lat="-35.281151" lon="148.9857953">
  <ele>680.33</ele>
  <time>2026-09-01T19:59:44Z</time>
  <course>176.93</course>
  <speed>25.62</speed>
  <fix>3d</fix>
</trkpt>
<trkpt lat="-35.2811966" lon="148.9857979">
  <ele>680.81</ele>
  <time>2026-09-01T19:59:44Z</time>
  <course>177.51</course>
  <speed>25.594579504262224</speed>
  <fix>3d</fix>
</trkpt>
<trkpt lat="-35.281151" lon="148.9857953">
  <ele>680.33</ele>
  <time>2026-09-01T19:59:44Z</time>
  <course>176.93</course>
  <speed>25.62</speed>
  <fix>3d</fix>
</trkpt>
<trkpt lat="-35.2812196" lon="148.9857994">
  <ele>681.05</ele>
  <time>2026-09-01T19:59:44Z</time>
  <course>177.5</course>
  <speed>25.6050873851272</speed>
  <fix>3d</fix>
</trkpt>
<trkpt lat="-35.2811971" lon="148.9857983">
  <ele>680.81</ele>
  <time>2026-09-01T19:59:44Z</time>
  <course>176.93</course>
  <speed>25.63</speed>
  <fix>3d</fix>
</trkpt>
<trkpt lat="-35.2812426" lon="148.9858009">
  <ele>681.29</ele>
  <time>2026-09-01T19:59:44Z</time>
  <course>177.52</course>
  <speed>25.60561266597618</speed>
  <fix>3d</fix>
</trkpt>
<trkpt lat="-35.2811971" lon="148.9857983">
  <ele>680.81</ele>
  <time>2026-09-01T19:59:44Z</time>
  <course>176.93</course>
  <speed>25.63</speed>
  <fix>3d</fix>
</trkpt>
<trkpt lat="-35.2812656" lon="148.9858024">
  <ele>681.54</ele>
  <time>2026-09-01T19:59:44Z</time>
  <course>177.56</course>
  <speed>25.60561266597618</speed>
  <fix>3d</fix>
</trkpt>
<trkpt lat="-35.2812432" lon="148.9858013">
  <ele>681.29</ele>
  <time>2026-09-01T19:59:44Z</time>
  <course>176.91</course>
  <speed>25.63</speed>
  <fix>3d</fix>
</trkpt>
<trkpt lat="-35.2812888" lon="148.985804">
  <ele>681.79</ele>
  <time>2026-09-01T19:59:44Z</time>
  <course>177.58</course>
  <speed>25.61612773234862</speed>
  <fix>3d</fix>
</trkpt>
<trkpt lat="-35.2812432" lon="148.9858013">
  <ele>681.29</ele>
  <time>2026-09-01T19:59:44Z</time>
  <course>176.91</course>
  <speed>25.63</speed>
  <fix>3d</fix>
</trkpt>
<trkpt lat="-35.2813118" lon="148.9858055">
  <ele>682.04</ele>
  <time>2026-09-01T19:59:44Z</time>
  <course>177.65</course>
  <speed>25.61612773234862</speed>
  <fix>3d</fix>
</trkpt>
<trkpt lat="-35.2812891" lon="148.9858044">
  <ele>681.79</ele>
  <time>2026-09-01T19:59:44Z</time>
  <course>176.89</course>
  <speed>25.64</speed>
  <fix>3d</fix>
</trkpt>
<trkpt lat="-35.2813349" lon="148.9858071">
  <ele>682.29</ele>
  <time>2026-09-01T19:59:44Z</time>
  <course>177.58</course>
  <speed>25.61559876325361</speed>
  <fix>3d</fix>
</trkpt>
<trkpt lat="-35.2812891" lon="148.9858044">
  <ele>681.79</ele>
  <time>2026-09-01T19:59:44Z</time>
  <course>176.89</course>
  <speed>25.64</speed>
  <fix>3d</fix>
</trkpt>
<trkpt lat="-35.2813579" lon="148.9858086">
  <ele>682.55</ele>
  <time>2026-09-01T19:59:44Z</time>
  <course>177.51</course>
  <speed>25.61559876325361</speed>
  <fix>3d</fix>
</trkpt>
<trkpt lat="-35.2813351" lon="148.9858075">
  <ele>682.3</ele>
  <time>2026-09-01T19:59:44Z</time>
  <course>176.89</course>
  <speed>25.64</speed>
  <fix>3d</fix>
</trkpt>
<trkpt lat="-35.281381" lon="148.9858101">
  <ele>682.82</ele>
  <time>2026-09-01T19:59:44Z</time>
  <course>177.53</course>
  <speed>25.61559876325361</speed>
  <fix>3d</fix>
</trkpt>
<trkpt lat="-35.2813351" lon="148.9858075">
  <ele>682.3</ele>
  <time>2026-09-01T19:59:44Z</time>
  <course>176.89</course>
  <speed>25.64</speed>
  <fix>3d</fix>
</trkpt>
<trkpt lat="-35.281404" lon="148.9858116">
  <ele>683.08</ele>
  <time>2026-09-01T19:59:44Z</time>
  <course>177.54</course>
  <speed>25.61559876325361</speed>
  <fix>3d</fix>
</trkpt>
<trkpt lat="-35.2813811" lon="148.9858105">
  <ele>682.82</ele>
  <time>2026-09-01T19:59:44Z</time>
  <course>176.89</course>
  <speed>25.63</speed>
  <fix>3d</fix>
</trkpt>
<trkpt lat="-35.2814271" lon="148.9858132">
  <ele>683.35</ele>
  <time>2026-09-01T19:59:44Z</time>
  <course>177.59</course>
  <speed>25.61559876325361</speed>
  <fix>3d</fix>
</trkpt>
<trkpt lat="-35.2813811" lon="148.9858105">
  <ele>682.82</ele>
  <time>2026-09-01T19:59:44Z</time>
  <course>176.89</course>
  <speed>25.63</speed>
  <fix>3d</fix>
</trkpt>
<trkpt lat="-35.2814501" lon="148.9858147">
  <ele>683.61</ele>
  <time>2026-09-01T19:59:45Z</time>
  <course>177.57</course>
  <speed>25.6050873851272</speed>
  <fix>3d</fix>
</trkpt>
<trkpt lat="-35.2814271" lon="148.9858136">
  <ele>683.34</ele>
  <time>2026-09-01T19:59:45Z</time>
  <course>176.9</course>
  <speed>25.62</speed>
  <fix>3d</fix>
</trkpt>
<trkpt lat="-35.2814731" lon="148.9858162">
  <ele>683.88</ele>
  <time>2026-09-01T19:59:45Z</time>
  <course>177.62</course>
  <speed>25.6050873851272</speed>
  <fix>3d</fix>
</trkpt>
<trkpt lat="-35.2814271" lon="148.9858136">
  <ele>683.34</ele>
  <time>2026-09-01T19:59:45Z</time>
  <course>176.9</course>
  <speed>25.62</speed>
  <fix>3d</fix>
</trkpt>
<trkpt lat="-35.2814961" lon="148.9858177">
  <ele>684.15</ele>
  <time>2026-09-01T19:59:45Z</time>
  <course>177.51</course>
  <speed>25.6050873851272</speed>
  <fix>3d</fix>
</trkpt>
<trkpt lat="-35.281473" lon="148.9858166">
  <ele>683.88</ele>
  <time>2026-09-01T19:59:45Z</time>
  <course>176.91</course>
  <speed>25.61</speed>
  <fix>3d</fix>
</trkpt>
<trkpt lat="-35.2815192" lon="148.9858193">
  <ele>684.42</ele>
  <time>2026-09-01T19:59:45Z</time>
  <course>177.5</course>
  <speed>25.59510109376402</speed>
  <fix>3d</fix>
</trkpt>
<trkpt lat="-35.281473" lon="148.9858166">
  <ele>683.88</ele>
  <time>2026-09-01T19:59:45Z</time>
  <course>176.91</course>
  <speed>25.61</speed>
  <fix>3d</fix>
</trkpt>
<trkpt lat="-35.281542" lon="148.9858208">
  <ele>684.69</ele>
  <time>2026-09-01T19:59:45Z</time>
  <course>177.51</course>
  <speed>25.59510109376402</speed>
  <fix>3d</fix>
</trkpt>
<trkpt lat="-35.2815189" lon="148.9858196">
  <ele>684.42</ele>
  <time>2026-09-01T19:59:45Z</time>
  <course>176.91</course>
  <speed>25.6</speed>
  <fix>3d</fix>
</trkpt>
<trkpt lat="-35.281565" lon="148.9858223">
  <ele>684.96</ele>
  <time>2026-09-01T19:59:45Z</time>
  <course>177.53</course>
  <speed>25.595626579554565</speed>
  <fix>3d</fix>
</trkpt>
<trkpt lat="-35.2815189" lon="148.9858196">
  <ele>684.42</ele>
  <time>2026-09-01T19:59:45Z</time>
  <course>176.91</course>
  <speed>25.6</speed>
  <fix>3d</fix>
</trkpt>
<trkpt lat="-35.281588" lon="148.9858238">
  <ele>685.22</ele>
  <time>2026-09-01T19:59:45Z</time>
  <course>177.56</course>
  <speed>25.585640504001457</speed>
  <fix>3d</fix>
</trkpt>
<trkpt lat="-35.2815648" lon="148.9858227">
  <ele>684.95</ele>
  <time>2026-09-01T19:59:45Z</time>
  <course>176.9</course>
  <speed>25.59</speed>
  <fix>3d</fix>
</trkpt>
<trkpt lat="-35.281611" lon="148.9858253">
  <ele>685.48</ele>
  <time>2026-09-01T19:59:45Z</time>
  <course>177.53</course>
  <speed>25.595626579554565</speed>
  <fix>3d</fix>
</trkpt>
<trkpt lat="-35.2815648" lon="148.9858227">
  <ele>684.95</ele>
  <time>2026-09-01T19:59:45Z</time>
  <course>176.9</course>
  <speed>25.59</speed>
  <fix>3d</fix>
</trkpt>
<trkpt lat="-35.2816341" lon="148.9858269">
  <ele>685.75</ele>
  <time>2026-09-01T19:59:45Z</time>
  <course>177.56</course>
  <speed>25.585640504001457</speed>
  <fix>3d</fix>
</trkpt>
<trkpt lat="-35.2816107" lon="148.9858257">
  <ele>685.48</ele>
  <time>2026-09-01T19:59:45Z</time>
  <course>176.89</course>
  <speed>25.58</speed>
  <fix>3d</fix>
</trkpt>
<trkpt lat="-35.2816571" lon="148.9858284">
  <ele>686.01</ele>
  <time>2026-09-01T19:59:45Z</time>
  <course>177.49</course>
  <speed>25.585114813109595</speed>
  <fix>3d</fix>
</trkpt>
<trkpt lat="-35.2816107" lon="148.9858257">
  <ele>685.48</ele>
  <time>2026-09-01T19:59:45Z</time>
  <course>176.89</course>
  <speed>25.58</speed>
  <fix>3d</fix>
</trkpt>
<trkpt lat="-35.2816801" lon="148.9858299">
  <ele>686.26</ele>
  <time>2026-09-01T19:59:45Z</time>
  <course>177.47</course>
  <speed>25.595626579554565</speed>
  <fix>3d</fix>
</trkpt>
<trkpt lat="-35.2816566" lon="148.9858287">
  <ele>686.0</ele>
  <time>2026-09-01T19:59:45Z</time>
  <course>176.89</course>
  <speed>25.58</speed>
  <fix>3d</fix>
</trkpt>
<trkpt lat="-35.281703" lon="148.9858315">
  <ele>686.51</ele>
  <time>2026-09-01T19:59:45Z</time>
  <course>177.52</course>
  <speed>25.596155961393894</speed>
  <fix>3d</fix>
</trkpt>
<trkpt lat="-35.2816566" lon="148.9858287">
  <ele>686.0</ele>
  <time>2026-09-01T19:59:45Z</time>
  <course>176.89</course>
  <speed>25.58</speed>
  <fix>3d</fix>
</trkpt>
<trkpt lat="-35.281726" lon="148.985833">
  <ele>686.75</ele>
  <time>2026-09-01T19:59:45Z</time>
  <course>177.54</course>
  <speed>25.595626579554565</speed>
  <fix>3d</fix>
</trkpt>
<trkpt lat="-35.2817026" lon="148.9858318">
  <ele>686.5</ele>
  <time>2026-09-01T19:59:45Z</time>
  <course>176.89</course>
  <speed>25.58</speed>
  <fix>3d</fix>
</trkpt>
<trkpt lat="-35.281749" lon="148.9858345">
  <ele>687.0</ele>
  <time>2026-09-01T19:59:45Z</time>
  <course>177.53</course>
  <speed>25.596155961393894</speed>
  <fix>3d</fix>
</trkpt>
<trkpt lat="-35.2817026" lon="148.9858318">
  <ele>686.5</ele>
  <time>2026-09-01T19:59:45Z</time>
  <course>176.89</course>
  <speed>25.58</speed>
  <fix>3d</fix>
</trkpt>
<trkpt lat="-35.2817719" lon="148.985836">
  <ele>687.24</ele>
  <time>2026-09-01T19:59:45Z</time>
  <course>177.57</course>
  <speed>25.595626579554565</speed>
  <fix>3d</fix>
</trkpt>
<trkpt lat="-35.2817486" lon="148.9858348">
  <ele>686.99</ele>
  <time>2026-09-01T19:59:45Z</time>
  <course>176.89</course>
  <speed>25.59</speed>
  <fix>3d</fix>
</trkpt>
<trkpt lat="-35.2817949" lon="148.9858376">
  <ele>687.47</ele>
  <time>2026-09-01T19:59:45Z</time>
  <course>177.59</course>
  <speed>25.60561266597618</speed>
  <fix>3d</fix>
</trkpt>
<trkpt lat="-35.2817486" lon="148.9858348">
  <ele>686.99</ele>
  <time>2026-09-01T19:59:45Z</time>
  <course>176.89</course>
  <speed>25.59</speed>
  <fix>3d</fix>
</trkpt>
<trkpt lat="-35.2818179" lon="148.9858391">
  <ele>687.7</ele>
  <time>2026-09-01T19:59:45Z</time>
  <course>177.57</course>
  <speed>25.60561266597618</speed>
  <fix>3d</fix>
</trkpt>
<trkpt lat="-35.2817945" lon="148.9858379">
  <ele>687.47</ele>
  <time>2026-09-01T19:59:45Z</time>
  <course>176.9</course>
  <speed>25.6</speed>
  <fix>3d</fix>
</trkpt>
<trkpt lat="-35.2818409" lon="148.9858406">
  <ele>687.92</ele>
  <time>2026-09-01T19:59:45Z</time>
  <course>177.52</course>
  <speed>25.61559876325361</speed>
  <fix>3d</fix>
</trkpt>
<trkpt lat="-35.2817945" lon="148.9858379">
  <ele>687.47</ele>
  <time>2026-09-01T19:59:45Z</time>
  <course>176.9</course>
  <speed>25.6</speed>
  <fix>3d</fix>
</trkpt>
<trkpt lat="-35.2818639" lon="148.9858421">
  <ele>688.14</ele>
  <time>2026-09-01T19:59:45Z</time>
  <course>177.54</course>
  <speed>25.626113634337923</speed>
  <fix>3d</fix>
</trkpt>
<trkpt lat="-35.2818404" lon="148.985841">
  <ele>687.92</ele>
  <time>2026-09-01T19:59:45Z</time>
  <course>176.9</course>
  <speed>25.61</speed>
  <fix>3d</fix>
</trkpt>
<trkpt lat="-35.2818869" lon="148.9858437">
  <ele>688.36</ele>
  <time>2026-09-01T19:59:45Z</time>
  <course>177.63</course>
  <speed>25.625584871374155</speed>
  <fix>3d</fix>
</trkpt>
<trkpt lat="-35.2818404" lon="148.985841">
  <ele>687.92</ele>
  <time>2026-09-01T19:59:45Z</time>
  <course>176.9</course>
  <speed>25.61</speed>
  <fix>3d</fix>
</trkpt>
<trkpt lat="-35.2819099" lon="148.9858452">
  <ele>688.57</ele>
  <time>2026-09-01T19:59:45Z</time>
  <course>177.59</course>
  <speed>25.635570990325142</speed>
  <fix>3d</fix>
</trkpt>
<trkpt lat="-35.2818864" lon="148.985844">
  <ele>688.35</ele>
  <time>2026-09-01T19:59:45Z</time>
  <course>176.9</course>
  <speed>25.62</speed>
  <fix>3d</fix>
</trkpt>
<trkpt lat="-35.2819331" lon="148.9858467">
  <ele>688.78</ele>
  <time>2026-09-01T19:59:45Z</time>
  <course>177.6</course>
  <speed>25.645557120093923</speed>
  <fix>3d</fix>
</trkpt>
<trkpt lat="-35.2818864" lon="148.985844">
  <ele>688.35</ele>
  <time>2026-09-01T19:59:45Z</time>
  <course>176.9</course>
  <speed>25.62</speed>
  <fix>3d</fix>
</trkpt>
<trkpt lat="-35.2819561" lon="148.9858482">
  <ele>688.99</ele>
  <time>2026-09-01T19:59:45Z</time>
  <course>177.56</course>
  <speed>25.655019002136797</speed>
  <fix>3d</fix>
</trkpt>
<trkpt lat="-35.2819323" lon="148.9858471">
  <ele>688.78</ele>
  <time>2026-09-01T19:59:45Z</time>
  <course>176.92</course>
  <speed>25.64</speed>
  <fix>3d</fix>
</trkpt>
<trkpt lat="-35.2819792" lon="148.9858498">
  <ele>689.2</ele>
  <time>2026-09-01T19:59:45Z</time>
  <course>177.53</course>
  <speed>25.65554326066786</speed>
  <fix>3d</fix>
</trkpt>
<trkpt lat="-35.2819323" lon="148.9858471">
  <ele>688.78</ele>
  <time>2026-09-01T19:59:45Z</time>
  <course>176.92</course>
  <speed>25.64</speed>
  <fix>3d</fix>
</trkpt>
<trkpt lat="-35.282002" lon="148.9858513">
  <ele>689.4</ele>
  <time>2026-09-01T19:59:45Z</time>
  <course>177.55</course>
  <speed>25.665529412034342</speed>
  <fix>3d</fix>
</trkpt>
<trkpt lat="-35.2819783" lon="148.9858501">
  <ele>689.19</ele>
  <time>2026-09-01T19:59:45Z</time>
  <course>176.92</course>
  <speed>25.65</speed>
  <fix>3d</fix>
</trkpt>
<trkpt lat="-35.2820251" lon="148.9858528">
  <ele>689.61</ele>
  <time>2026-09-01T19:59:45Z</time>
  <course>177.54</course>
  <speed>25.665529412034342</speed>
  <fix>3d</fix>
</trkpt>
<trkpt lat="-35.2819783" lon="148.9858501">
  <ele>689.19</ele>
  <time>2026-09-01T19:59:45Z</time>
  <course>176.92</course>
  <speed>25.65</speed>
  <fix>3d</fix>
</trkpt>
<trkpt lat="-35.2820482" lon="148.9858543">
  <ele>689.81</ele>
  <time>2026-09-01T19:59:45Z</time>
  <course>177.51</course>
  <speed>25.675515574180785</speed>
  <fix>3d</fix>
</trkpt>
<trkpt lat="-35.2820244" lon="148.9858531">
  <ele>689.6</ele>
  <time>2026-09-01T19:59:45Z</time>
  <course>176.91</course>
  <speed>25.67</speed>
  <fix>3d</fix>
</trkpt>
<trkpt lat="-35.2820712" lon="148.9858559">
  <ele>690.01</ele>
  <time>2026-09-01T19:59:45Z</time>
  <course>177.55</course>
  <speed>25.685501747094605</speed>
  <fix>3d</fix>
</trkpt>
<trkpt lat="-35.2820244" lon="148.9858531">
  <ele>689.6</ele>
  <time>2026-09-01T19:59:45Z</time>
  <course>176.91</course>
  <speed>25.67</speed>
  <fix>3d</fix>
</trkpt>
<trkpt lat="-35.2820943" lon="148.9858574">
  <ele>690.21</ele>
  <time>2026-09-01T19:59:45Z</time>
  <course>177.55</course>
  <speed>25.695487930763253</speed>
  <fix>3d</fix>
</trkpt>
<trkpt lat="-35.2820704" lon="148.9858562">
  <ele>690.0</ele>
  <time>2026-09-01T19:59:45Z</time>
  <course>176.91</course>
  <speed>25.69</speed>
  <fix>3d</fix>
</trkpt>
<trkpt lat="-35.2821176" lon="148.9858589">
  <ele>690.41</ele>
  <time>2026-09-01T19:59:45Z</time>
  <course>177.57</course>
  <speed>25.705474125174195</speed>
  <fix>3d</fix>
</trkpt>
<trkpt lat="-35.2820704" lon="148.9858562">
  <ele>690.0</ele>
  <time>2026-09-01T19:59:45Z</time>
  <course>176.91</course>
  <speed>25.69</speed>
  <fix>3d</fix>
</trkpt>
<trkpt lat="-35.2821407" lon="148.9858604">
  <ele>690.6</ele>
  <time>2026-09-01T19:59:45Z</time>
  <course>177.55</course>
  <speed>25.71546033031491</speed>
  <fix>3d</fix>
</trkpt>
<trkpt lat="-35.2821165" lon="148.9858592">
  <ele>690.39</ele>
  <time>2026-09-01T19:59:45Z</time>
  <course>176.91</course>
  <speed>25.71</speed>
  <fix>3d</fix>
</trkpt>
<trkpt lat="-35.2821637" lon="148.985862">
  <ele>690.79</ele>
  <time>2026-09-01T19:59:45Z</time>
  <course>177.56</course>
  <speed>25.72597325661364</speed>
  <fix>3d</fix>
</trkpt>
<trkpt lat="-35.2821165" lon="148.9858592">
  <ele>690.39</ele>
  <time>2026-09-01T19:59:45Z</time>
  <course>176.91</course>
  <speed>25.71</speed>
  <fix>3d</fix>
</trkpt>
<trkpt lat="-35.2821867" lon="148.9858635">
  <ele>690.99</ele>
  <time>2026-09-01T19:59:45Z</time>
  <course>177.59</course>
  <speed>25.725446546172915</speed>
  <fix>3d</fix>
</trkpt>
<trkpt lat="-35.2821627" lon="148.9858622">
  <ele>690.78</ele>
  <time>2026-09-01T19:59:45Z</time>
  <course>176.91</course>
  <speed>25.72</speed>
  <fix>3d</fix>
</trkpt>
<trkpt lat="-35.2822097" lon="148.985865">
  <ele>691.18</ele>
  <time>2026-09-01T19:59:45Z</time>
  <course>177.6</course>
  <speed>25.735432772735727</speed>
  <fix>3d</fix>
</trkpt>
<trkpt lat="-35.2821627" lon="148.9858622">
  <ele>690.78</ele>
  <time>2026-09-01T19:59:45Z</time>
  <course>176.91</course>
  <speed>25.72</speed>
  <fix>3d</fix>
</trkpt>
<trkpt lat="-35.2822327" lon="148.9858665">
  <ele>691.36</ele>
  <time>2026-09-01T19:59:45Z</time>
  <course>177.61</course>
  <speed>25.735432772735727</speed>
  <fix>3d</fix>
</trkpt>
<trkpt lat="-35.282209" lon="148.9858653">
  <ele>691.16</ele>
  <time>2026-09-01T19:59:45Z</time>
  <course>176.91</course>
  <speed>25.75</speed>
  <fix>3d</fix>
</trkpt>
<trkpt lat="-35.2822556" lon="148.985868">
  <ele>691.55</ele>
  <time>2026-09-01T19:59:45Z</time>
  <course>177.61</course>
  <speed>25.73595927879899</speed>
  <fix>3d</fix>
</trkpt>
<trkpt lat="-35.282209" lon="148.9858653">
  <ele>691.16</ele>
  <time>2026-09-01T19:59:45Z</time>
  <course>176.91</course>
  <speed>25.75</speed>
  <fix>3d</fix>
</trkpt>
<trkpt lat="-35.2822786" lon="148.9858695">
  <ele>691.74</ele>
  <time>2026-09-01T19:59:45Z</time>
  <course>177.6</course>
  <speed>25.745945311835026</speed>
  <fix>3d</fix>
</trkpt>
<trkpt lat="-35.2822552" lon="148.9858683">
  <ele>691.53</ele>
  <time>2026-09-01T19:59:45Z</time>
  <course>176.9</course>
  <speed>25.77</speed>
  <fix>3d</fix>
</trkpt>
<trkpt lat="-35.2823017" lon="148.9858711">
  <ele>691.92</ele>
  <time>2026-09-01T19:59:45Z</time>
  <course>177.6</course>
  <speed>25.755405257925954</speed>
  <fix>3d</fix>
</trkpt>
<trkpt lat="-35.2822552" lon="148.9858683">
  <ele>691.53</ele>
  <time>2026-09-01T19:59:45Z</time>
  <course>176.9</course>
  <speed>25.77</speed>
  <fix>3d</fix>
</trkpt>
<trkpt lat="-35.2823247" lon="148.9858726">
  <ele>692.1</ele>
  <time>2026-09-01T19:59:45Z</time>
  <course>177.62</course>
  <speed>25.755405257925954</speed>
  <fix>3d</fix>
</trkpt>
<trkpt lat="-35.2823014" lon="148.9858714">
  <ele>691.9</ele>
  <time>2026-09-01T19:59:45Z</time>
  <course>176.91</course>
  <speed>25.79</speed>
  <fix>3d</fix>
</trkpt>
<trkpt lat="-35.2823477" lon="148.9858741">
  <ele>692.28</ele>
  <time>2026-09-01T19:59:45Z</time>
  <course>177.65</course>
  <speed>25.755405257925954</speed>
  <fix>3d</fix>
</trkpt>
<trkpt lat="-35.2823014" lon="148.9858714">
  <ele>691.9</ele>
  <time>2026-09-01T19:59:45Z</time>
  <course>176.91</course>
  <speed>25.79</speed>
  <fix>3d</fix>
</trkpt>
<trkpt lat="-35.2823708" lon="148.9858756">
  <ele>692.47</ele>
  <time>2026-09-01T19:59:45Z</time>
  <course>177.65</course>
  <speed>25.765391516528524</speed>
  <fix>3d</fix>
</trkpt>
<trkpt lat="-35.2823476" lon="148.9858745">
  <ele>692.27</ele>
  <time>2026-09-01T19:59:45Z</time>
  <course>176.92</course>
  <speed>25.8</speed>
  <fix>3d</fix>
</trkpt>
<trkpt lat="-35.2823938" lon="148.9858771">
  <ele>692.65</ele>
  <time>2026-09-01T19:59:45Z</time>
  <course>177.61</course>
  <speed>25.76486949316841</speed>
  <fix>3d</fix>
</trkpt>
<trkpt lat="-35.2823476" lon="148.9858745">
  <ele>692.27</ele>
  <time>2026-09-01T19:59:45Z</time>
  <course>176.92</course>
  <speed>25.8</speed>
  <fix>3d</fix>
</trkpt>
<trkpt lat="-35.2824169" lon="148.9858786">
  <ele>692.83</ele>
  <time>2026-09-01T19:59:45Z</time>
  <course>177.64</course>
  <speed>25.76486949316841</speed>
  <fix>3d</fix>
</trkpt>
<trkpt lat="-35.2823939" lon="148.9858775">
  <ele>692.64</ele>
  <time>2026-09-01T19:59:45Z</time>
  <course>176.92</course>
  <speed>25.82</speed>
  <fix>3d</fix>
</trkpt>
<trkpt lat="-35.2824399" lon="148.9858801">
  <ele>693.01</ele>
  <time>2026-09-01T19:59:45Z</time>
  <course>177.64</course>
  <speed>25.774855964679997</speed>
  <fix>3d</fix>
</trkpt>
<trkpt lat="-35.2823939" lon="148.9858775">
  <ele>692.64</ele>
  <time>2026-09-01T19:59:45Z</time>
  <course>176.92</course>
  <speed>25.82</speed>
  <fix>3d</fix>
</trkpt>
<trkpt lat="-35.282463" lon="148.9858817">
  <ele>693.18</ele>
  <time>2026-09-01T19:59:45Z</time>
  <course>177.6</course>
  <speed>25.774855964679997</speed>
  <fix>3d</fix>
</trkpt>
<trkpt lat="-35.2824403" lon="148.9858806">
  <ele>693.0</ele>
  <time>2026-09-01T19:59:45Z</time>
  <course>176.92</course>
  <speed>25.83</speed>
  <fix>3d</fix>
</trkpt>
<trkpt lat="-35.2824861" lon="148.9858832">
  <ele>693.35</ele>
  <time>2026-09-01T19:59:45Z</time>
  <course>177.56</course>
  <speed>25.784842446677853</speed>
  <fix>3d</fix>
</trkpt>
<trkpt lat="-35.2824403" lon="148.9858806">
  <ele>693.0</ele>
  <time>2026-09-01T19:59:45Z</time>
  <course>176.92</course>
  <speed>25.83</speed>
  <fix>3d</fix>
</trkpt>
<trkpt lat="-35.2825092" lon="148.9858847">
  <ele>693.52</ele>
  <time>2026-09-01T19:59:45Z</time>
  <course>177.51</course>
  <speed>25.78536406568657</speed>
  <fix>3d</fix>
</trkpt>
<trkpt lat="-35.2824866" lon="148.9858836">
  <ele>693.34</ele>
  <time>2026-09-01T19:59:45Z</time>
  <course>176.91</course>
  <speed>25.84</speed>
  <fix>3d</fix>
</trkpt>
<trkpt lat="-35.2825323" lon="148.9858862">
  <ele>693.68</ele>
  <time>2026-09-01T19:59:45Z</time>
  <course>177.52</course>
  <speed>25.795875639334284</speed>
  <fix>3d</fix>
</trkpt>
<trkpt lat="-35.2824866" lon="148.9858836">
  <ele>693.34</ele>
  <time>2026-09-01T19:59:45Z</time>
  <course>176.91</course>
  <speed>25.84</speed>
  <fix>3d</fix>
</trkpt>
<trkpt lat="-35.2825554" lon="148.9858878">
  <ele>693.83</ele>
  <time>2026-09-01T19:59:45Z</time>
  <course>177.58</course>
  <speed>25.795875639334284</speed>
  <fix>3d</fix>
</trkpt>
<trkpt lat="-35.282533" lon="148.9858866">
  <ele>693.67</ele>
  <time>2026-09-01T19:59:45Z</time>
  <course>176.89</course>
  <speed>25.86</speed>
  <fix>3d</fix>
</trkpt>
<trkpt lat="-35.2825788" lon="148.9858893">
  <ele>693.98</ele>
  <time>2026-09-01T19:59:45Z</time>
  <course>177.59</course>
  <speed>25.805861737210016</speed>
  <fix>3d</fix>
</trkpt>
<trkpt lat="-35.282533" lon="148.9858866">
  <ele>693.67</ele>
  <time>2026-09-01T19:59:45Z</time>
  <course>176.89</course>
  <speed>25.86</speed>
  <fix>3d</fix>
</trkpt>
<trkpt lat="-35.2826019" lon="148.9858908">
  <ele>694.12</ele>
  <time>2026-09-01T19:59:45Z</time>
  <course>177.57</course>
  <speed>25.805861737210016</speed>
  <fix>3d</fix>
</trkpt>
<trkpt lat="-35.2825794" lon="148.9858897">
  <ele>693.97</ele>
  <time>2026-09-01T19:59:45Z</time>
  <course>176.88</course>
  <speed>25.87</speed>
  <fix>3d</fix>
</trkpt>
<trkpt lat="-35.2826251" lon="148.9858924">
  <ele>694.26</ele>
  <time>2026-09-01T19:59:45Z</time>
  <course>177.59</course>
  <speed>25.815847845848488</speed>
  <fix>3d</fix>
</trkpt>
<trkpt lat="-35.2825794" lon="148.9858897">
  <ele>693.97</ele>
  <time>2026-09-01T19:59:45Z</time>
  <course>176.88</course>
  <speed>25.87</speed>
  <fix>3d</fix>
</trkpt>
<trkpt lat="-35.2826483" lon="148.9858939">
  <ele>694.38</ele>
  <time>2026-09-01T19:59:45Z</time>
  <course>177.6</course>
  <speed>25.835820095363726</speed>
  <fix>3d</fix>
</trkpt>
<trkpt lat="-35.2826259" lon="148.9858928">
  <ele>694.25</ele>
  <time>2026-09-01T19:59:45Z</time>
  <course>176.87</course>
  <speed>25.89</speed>
  <fix>3d</fix>
</trkpt>
<trkpt lat="-35.2826715" lon="148.9858955">
  <ele>694.51</ele>
  <time>2026-09-01T19:59:45Z</time>
  <course>177.6</course>
  <speed>25.845806236215576</speed>
  <fix>3d</fix>
</trkpt>
<trkpt lat="-35.2826259" lon="148.9858928">
  <ele>694.25</ele>
  <time>2026-09-01T19:59:45Z</time>
  <course>176.87</course>
  <speed>25.89</speed>
  <fix>3d</fix>
</trkpt>
<trkpt lat="-35.2826948" lon="148.985897">
  <ele>694.62</ele>
  <time>2026-09-01T19:59:45Z</time>
  <course>177.54</course>
  <speed>25.855792387780344</speed>
  <fix>3d</fix>
</trkpt>
<trkpt lat="-35.2826724" lon="148.985896">
  <ele>694.51</ele>
  <time>2026-09-01T19:59:45Z</time>
  <course>176.87</course>
  <speed>25.91</speed>
  <fix>3d</fix>
</trkpt>
<trkpt lat="-35.282718" lon="148.9858986">
  <ele>694.73</ele>
  <time>2026-09-01T19:59:45Z</time>
  <course>177.52</course>
  <speed>25.86577855004562</speed>
  <fix>3d</fix>
</trkpt>
<trkpt lat="-35.2826724" lon="148.985896">
  <ele>694.51</ele>
  <time>2026-09-01T19:59:45Z</time>
  <course>176.87</course>
  <speed>25.91</speed>
  <fix>3d</fix>
</trkpt>
<trkpt lat="-35.2827413" lon="148.9859001">
  <ele>694.84</ele>
  <time>2026-09-01T19:59:45Z</time>
  <course>177.55</course>
  <speed>25.875764722999012</speed>
  <fix>3d</fix>
</trkpt>
<trkpt lat="-35.2827189" lon="148.9858991">
  <ele>694.74</ele>
  <time>2026-09-01T19:59:45Z</time>
  <course>176.88</course>
  <speed>25.93</speed>
  <fix>3d</fix>
</trkpt>
<trkpt lat="-35.2827646" lon="148.9859016">
  <ele>694.94</ele>
  <time>2026-09-01T19:59:45Z</time>
  <course>177.6</course>
  <speed>25.89521384348853</speed>
  <fix>3d</fix>
</trkpt>
<trkpt lat="-35.2827189" lon="148.9858991">
  <ele>694.74</ele>
  <time>2026-09-01T19:59:45Z</time>
  <course>176.88</course>
  <speed>25.93</speed>
  <fix>3d</fix>
</trkpt>
<trkpt lat="-35.2827879" lon="148.9859032">
  <ele>695.03</ele>
  <time>2026-09-01T19:59:45Z</time>
  <course>177.56</course>
  <speed>25.905200250142826</speed>
  <fix>3d</fix>
</trkpt>
<trkpt lat="-35.2827654" lon="148.9859022">
  <ele>694.94</ele>
  <time>2026-09-01T19:59:45Z</time>
  <course>176.89</course>
  <speed>25.95</speed>
  <fix>3d</fix>
</trkpt>
<trkpt lat="-35.2828112" lon="148.9859047">
  <ele>695.13</ele>
  <time>2026-09-01T19:59:45Z</time>
  <course>177.57</course>
  <speed>25.915186667280636</speed>
  <fix>3d</fix>
</trkpt>
<trkpt lat="-35.2827654" lon="148.9859022">
  <ele>694.94</ele>
  <time>2026-09-01T19:59:45Z</time>
  <course>176.89</course>
  <speed>25.95</speed>
  <fix>3d</fix>
</trkpt>
<trkpt lat="-35.2828345" lon="148.9859063">
  <ele>695.22</ele>
  <time>2026-09-01T19:59:45Z</time>
  <course>177.56</course>
  <speed>25.92517309488984</speed>
  <fix>3d</fix>
</trkpt>
<trkpt lat="-35.2828121" lon="148.9859052">
  <ele>695.14</ele>
  <time>2026-09-01T19:59:45Z</time>
  <course>176.9</course>
  <speed>25.98</speed>
  <fix>3d</fix>
</trkpt>
<trkpt lat="-35.2828579" lon="148.9859078">
  <ele>695.31</ele>
  <time>2026-09-01T19:59:45Z</time>
  <course>177.55</course>
  <speed>25.94514598147407</speed>
  <fix>3d</fix>
</trkpt>
<trkpt lat="-35.2828121" lon="148.9859052">
  <ele>695.14</ele>
  <time>2026-09-01T19:59:45Z</time>
  <course>176.9</course>
  <speed>25.98</speed>
  <fix>3d</fix>
</trkpt>
<trkpt lat="-35.2828813" lon="148.9859093">
  <ele>695.39</ele>
  <time>2026-09-01T19:59:45Z</time>
  <course>177.61</course>
  <speed>25.955132440424958</speed>
  <fix>3d</fix>
</trkpt>
<trkpt lat="-35.2828587" lon="148.9859083">
  <ele>695.31</ele>
  <time>2026-09-01T19:59:45Z</time>
  <course>176.9</course>
  <speed>26.0</speed>
  <fix>3d</fix>
</trkpt>
<trkpt lat="-35.2829047" lon="148.9859109">
  <ele>695.47</ele>
  <time>2026-09-01T19:59:45Z</time>
  <course>177.63</course>
  <speed>25.96511890979897</speed>
  <fix>3d</fix>
</trkpt>
<trkpt lat="-35.2828587" lon="148.9859083">
  <ele>695.31</ele>
  <time>2026-09-01T19:59:45Z</time>
  <course>176.9</course>
  <speed>26.0</speed>
  <fix>3d</fix>
</trkpt>
<trkpt lat="-35.2829281" lon="148.9859124">
  <ele>695.55</ele>
  <time>2026-09-01T19:59:45Z</time>
  <course>177.61</course>
  <speed>25.975627037667447</speed>
  <fix>3d</fix>
</trkpt>
<trkpt lat="-35.2829053" lon="148.9859114">
  <ele>695.49</ele>
  <time>2026-09-01T19:59:45Z</time>
  <course>176.9</course>
  <speed>26.01</speed>
  <fix>3d</fix>
</trkpt>
<trkpt lat="-35.2829515" lon="148.985914">
  <ele>695.62</ele>
  <time>2026-09-01T19:59:45Z</time>
  <course>177.59</course>
  <speed>25.99559962762929</speed>
  <fix>3d</fix>
</trkpt>
<trkpt lat="-35.2829053" lon="148.9859114">
  <ele>695.49</ele>
  <time>2026-09-01T19:59:45Z</time>
  <course>176.9</course>
  <speed>26.01</speed>
  <fix>3d</fix>
</trkpt>
<trkpt lat="-35.2829749" lon="148.9859155">
  <ele>695.7</ele>
  <time>2026-09-01T19:59:45Z</time>
  <course>177.58</course>
  <speed>26.005585938409464</speed>
  <fix>3d</fix>
</trkpt>
<trkpt lat="-35.2829519" lon="148.9859145">
  <ele>695.65</ele>
  <time>2026-09-01T19:59:45Z</time>
  <course>176.89</course>
  <speed>26.03</speed>
  <fix>3d</fix>
</trkpt>
<trkpt lat="-35.2829984" lon="148.9859171">
  <ele>695.77</ele>
  <time>2026-09-01T19:59:45Z</time>
  <course>177.51</course>
  <speed>26.0155722597063</speed>
  <fix>3d</fix>
</trkpt>
<trkpt lat="-35.2829519" lon="148.9859145">
  <ele>695.65</ele>
  <time>2026-09-01T19:59:45Z</time>
  <course>176.89</course>
  <speed>26.03</speed>
  <fix>3d</fix>
</trkpt>
<trkpt lat="-35.2830218" lon="148.9859186">
  <ele>695.84</ele>
  <time>2026-09-01T19:59:45Z</time>
  <course>177.46</course>
  <speed>26.03606921176851</speed>
  <fix>3d</fix>
</trkpt>
<trkpt lat="-35.2829986" lon="148.9859176">
  <ele>695.8</ele>
  <time>2026-09-01T19:59:45Z</time>
  <course>176.89</course>
  <speed>26.05</speed>
  <fix>3d</fix>
</trkpt>
<trkpt lat="-35.2830453" lon="148.9859202">
  <ele>695.91</ele>
  <time>2026-09-01T19:59:45Z</time>
  <course>177.46</course>
  <speed>26.046583269212107</speed>
  <fix>3d</fix>
</trkpt>
<trkpt lat="-35.2829986" lon="148.9859176">
  <ele>695.8</ele>
  <time>2026-09-01T19:59:45Z</time>
  <course>176.89</course>
  <speed>26.05</speed>
  <fix>3d</fix>
</trkpt>
<trkpt lat="-35.2830685" lon="148.9859218">
  <ele>695.97</ele>
  <time>2026-09-01T19:59:45Z</time>
  <course>177.48</course>
  <speed>26.04711500339337</speed>
  <fix>3d</fix>
</trkpt>
<trkpt lat="-35.2830454" lon="148.9859207">
  <ele>695.95</ele>
  <time>2026-09-01T19:59:45Z</time>
  <course>176.86</course>
  <speed>26.06</speed>
  <fix>3d</fix>
</trkpt>
<trkpt lat="-35.283092" lon="148.9859234">
  <ele>696.04</ele>
  <time>2026-09-01T19:59:45Z</time>
  <course>177.48</course>
  <speed>26.057100759677773</speed>
  <fix>3d</fix>
</trkpt>
<trkpt lat="-35.2830454" lon="148.9859207">
  <ele>695.95</ele>
  <time>2026-09-01T19:59:45Z</time>
  <course>176.86</course>
  <speed>26.06</speed>
  <fix>3d</fix>
</trkpt>
<trkpt lat="-35.2831154" lon="148.9859249">
  <ele>696.1</ele>
  <time>2026-09-01T19:59:45Z</time>
  <course>177.44</course>
  <speed>26.057100759677773</speed>
  <fix>3d</fix>
</trkpt>
<trkpt lat="-35.2830922" lon="148.9859239">
  <ele>696.08</ele>
  <time>2026-09-01T19:59:45Z</time>
  <course>176.84</course>
  <speed>26.07</speed>
  <fix>3d</fix>
</trkpt>
<trkpt lat="-35.2831388" lon="148.9859265">
  <ele>696.16</ele>
  <time>2026-09-01T19:59:45Z</time>
  <course>177.37</course>
  <speed>26.06762167901015</speed>
  <fix>3d</fix>
</trkpt>
<trkpt lat="-35.2830922" lon="148.9859239">
  <ele>696.08</ele>
  <time>2026-09-01T19:59:45Z</time>
  <course>176.84</course>
  <speed>26.07</speed>
  <fix>3d</fix>
</trkpt>
<trkpt lat="-35.2831625" lon="148.9859281">
  <ele>696.22</ele>
  <time>2026-09-01T19:59:45Z</time>
  <course>177.39</course>
  <speed>26.06762167901015</speed>
  <fix>3d</fix>
</trkpt>
<trkpt lat="-35.2830922" lon="148.9859239">
  <ele>696.08</ele>
  <time>2026-09-01T19:59:45Z</time>
  <course>176.84</course>
  <speed>26.07</speed>
  <fix>3d</fix>
</trkpt>
<trkpt lat="-35.2831857" lon="148.9859297">
  <ele>696.28</ele>
  <time>2026-09-01T19:59:45Z</time>
  <course>177.4</course>
  <speed>26.068160656248843</speed>
  <fix>3d</fix>
</trkpt>
<trkpt lat="-35.283139" lon="148.985927">
  <ele>696.2</ele>
  <time>2026-09-01T19:59:45Z</time>
  <course>176.82</course>
  <speed>26.08</speed>
  <fix>3d</fix>
</trkpt>
<trkpt lat="-35.283209" lon="148.9859313">
  <ele>696.33</ele>
  <time>2026-09-01T19:59:45Z</time>
  <course>177.42</course>
  <speed>26.0581753006614</speed>
  <fix>3d</fix>
</trkpt>
<trkpt lat="-35.2831858" lon="148.9859303">
  <ele>696.32</ele>
  <time>2026-09-01T19:59:45Z</time>
  <course>176.8</course>
  <speed>26.08</speed>
  <fix>3d</fix>
</trkpt>
<trkpt lat="-35.2832324" lon="148.9859329">
  <ele>696.39</ele>
  <time>2026-09-01T19:59:45Z</time>
  <course>177.46</course>
  <speed>26.057636116885202</speed>
  <fix>3d</fix>
</trkpt>
<trkpt lat="-35.2831858" lon="148.9859303">
  <ele>696.32</ele>
  <time>2026-09-01T19:59:45Z</time>
  <course>176.8</course>
  <speed>26.08</speed>
  <fix>3d</fix>
</trkpt>
<trkpt lat="-35.2832557" lon="148.9859345">
  <ele>696.44</ele>
  <time>2026-09-01T19:59:45Z</time>
  <course>177.43</course>
  <speed>26.057636116885202</speed>
  <fix>3d</fix>
</trkpt>
<trkpt lat="-35.2832327" lon="148.9859334">
  <ele>696.43</ele>
  <time>2026-09-01T19:59:45Z</time>
  <course>176.81</course>
  <speed>26.09</speed>
  <fix>3d</fix>
</trkpt>
<trkpt lat="-35.2832791" lon="148.9859361">
  <ele>696.48</ele>
  <time>2026-09-01T19:59:45Z</time>
  <course>177.42</course>
  <speed>26.057636116885202</speed>
  <fix>3d</fix>
</trkpt>
<trkpt lat="-35.2832327" lon="148.9859334">
  <ele>696.43</ele>
  <time>2026-09-01T19:59:45Z</time>
  <course>176.81</course>
  <speed>26.09</speed>
  <fix>3d</fix>
</trkpt>
<trkpt lat="-35.2833026" lon="148.9859377">
  <ele>696.53</ele>
  <time>2026-09-01T19:59:45Z</time>
  <course>177.44</course>
  <speed>26.057636116885202</speed>
  <fix>3d</fix>
</trkpt>
<trkpt lat="-35.2832794" lon="148.9859367">
  <ele>696.54</ele>
  <time>2026-09-01T19:59:45Z</time>
  <course>176.82</course>
  <speed>26.09</speed>
  <fix>3d</fix>
</trkpt>
<trkpt lat="-35.283326" lon="148.9859393">
  <ele>696.58</ele>
  <time>2026-09-01T19:59:45Z</time>
  <course>177.45</course>
  <speed>26.06762167901015</speed>
  <fix>3d</fix>
</trkpt>
<trkpt lat="-35.2832794" lon="148.9859367">
  <ele>696.54</ele>
  <time>2026-09-01T19:59:45Z</time>
  <course>176.82</course>
  <speed>26.09</speed>
  <fix>3d</fix>
</trkpt>
<trkpt lat="-35.2833495" lon="148.9859409">
  <ele>696.62</ele>
  <time>2026-09-01T19:59:45Z</time>
  <course>177.47</course>
  <speed>26.06762167901015</speed>
  <fix>3d</fix>
</trkpt>
<trkpt lat="-35.2833263" lon="148.9859398">
  <ele>696.63</ele>
  <time>2026-09-01T19:59:45Z</time>
  <course>176.82</course>
  <speed>26.09</speed>
  <fix>3d</fix>
</trkpt>
<trkpt lat="-35.283373" lon="148.9859425">
  <ele>696.66</ele>
  <time>2026-09-01T19:59:45Z</time>
  <course>177.52</course>
  <speed>26.077607252200114</speed>
  <fix>3d</fix>
</trkpt>
<trkpt lat="-35.2833263" lon="148.9859398">
  <ele>696.63</ele>
  <time>2026-09-01T19:59:45Z</time>
  <course>176.82</course>
  <speed>26.09</speed>
  <fix>3d</fix>
</trkpt>
<trkpt lat="-35.2833965" lon="148.9859441">
  <ele>696.7</ele>
  <time>2026-09-01T19:59:45Z</time>
  <course>177.53</course>
  <speed>26.077072304996204</speed>
  <fix>3d</fix>
</trkpt>
<trkpt lat="-35.283373" lon="148.985943">
  <ele>696.71</ele>
  <time>2026-09-01T19:59:45Z</time>
  <course>176.84</course>
  <speed>26.09</speed>
  <fix>3d</fix>
</trkpt>
<trkpt lat="-35.28342" lon="148.9859457">
  <ele>696.74</ele>
  <time>2026-09-01T19:59:45Z</time>
  <course>177.56</course>
  <speed>26.08652717400306</speed>
  <fix>3d</fix>
</trkpt>
<trkpt lat="-35.283373" lon="148.985943">
  <ele>696.71</ele>
  <time>2026-09-01T19:59:45Z</time>
  <course>176.84</course>
  <speed>26.09</speed>
  <fix>3d</fix>
</trkpt>
<trkpt lat="-35.2834435" lon="148.9859472">
  <ele>696.78</ele>
  <time>2026-09-01T19:59:45Z</time>
  <course>177.58</course>
  <speed>26.086000076669478</speed>
  <fix>3d</fix>
</trkpt>
<trkpt lat="-35.2834199" lon="148.9859461">
  <ele>696.79</ele>
  <time>2026-09-01T19:59:45Z</time>
  <course>176.87</course>
  <speed>26.09</speed>
  <fix>3d</fix>
</trkpt>
<trkpt lat="-35.2834671" lon="148.9859488">
  <ele>696.82</ele>
  <time>2026-09-01T19:59:45Z</time>
  <course>177.61</course>
  <speed>26.085476802236144</speed>
  <fix>3d</fix>
</trkpt>
<trkpt lat="-35.2834199" lon="148.9859461">
  <ele>696.79</ele>
  <time>2026-09-01T19:59:45Z</time>
  <course>176.87</course>
  <speed>26.09</speed>
  <fix>3d</fix>
</trkpt>
<trkpt lat="-35.2834905" lon="148.9859503">
  <ele>696.85</ele>
  <time>2026-09-01T19:59:45Z</time>
  <course>177.59</course>
  <speed>26.084957350933124</speed>
  <fix>3d</fix>
</trkpt>
<trkpt lat="-35.2834666" lon="148.9859492">
  <ele>696.87</ele>
  <time>2026-09-01T19:59:45Z</time>
  <course>176.92</course>
  <speed>26.08</speed>
  <fix>3d</fix>
</trkpt>
<trkpt lat="-35.2835139" lon="148.9859519">
  <ele>696.89</ele>
  <time>2026-09-01T19:59:45Z</time>
  <course>177.59</course>
  <speed>26.08444172298882</speed>
  <fix>3d</fix>
</trkpt>
<trkpt lat="-35.2834666" lon="148.9859492">
  <ele>696.87</ele>
  <time>2026-09-01T19:59:45Z</time>
  <course>176.92</course>
  <speed>26.08</speed>
  <fix>3d</fix>
</trkpt>
<trkpt lat="-35.2835373" lon="148.9859534">
  <ele>696.92</ele>
  <time>2026-09-01T19:59:45Z</time>
  <course>177.61</course>
  <speed>26.073942931593603</speed>
  <fix>3d</fix>
</trkpt>
<trkpt lat="-35.2835134" lon="148.9859523">
  <ele>696.94</ele>
  <time>2026-09-01T19:59:45Z</time>
  <course>176.96</course>
  <speed>26.08</speed>
  <fix>3d</fix>
</trkpt>
<trkpt lat="-35.2835604" lon="148.9859549">
  <ele>696.95</ele>
  <time>2026-09-01T19:59:45Z</time>
  <course>177.63</course>
  <speed>26.06395595453614</speed>
  <fix>3d</fix>
</trkpt>
<trkpt lat="-35.2835134" lon="148.9859523">
  <ele>696.94</ele>
  <time>2026-09-01T19:59:45Z</time>
  <course>176.96</course>
  <speed>26.08</speed>
  <fix>3d</fix>
</trkpt>
<trkpt lat="-35.2835837" lon="148.9859564">
  <ele>696.99</ele>
  <time>2026-09-01T19:59:45Z</time>
  <course>177.64</course>
  <speed>26.05346042275383</speed>
  <fix>3d</fix>
</trkpt>
<trkpt lat="-35.2835601" lon="148.9859553">
  <ele>697.01</ele>
  <time>2026-09-01T19:59:45Z</time>
  <course>176.99</course>
  <speed>26.06</speed>
  <fix>3d</fix>
</trkpt>
<trkpt lat="-35.283607" lon="148.9859579">
  <ele>697.02</ele>
  <time>2026-09-01T19:59:45Z</time>
  <course>177.68</course>
  <speed>26.043473270668027</speed>
  <fix>3d</fix>
</trkpt>
<trkpt lat="-35.2835601" lon="148.9859553">
  <ele>697.01</ele>
  <time>2026-09-01T19:59:45Z</time>
  <course>176.99</course>
  <speed>26.06</speed>
  <fix>3d</fix>
</trkpt>
<trkpt lat="-35.2836303" lon="148.9859594">
  <ele>697.06</ele>
  <time>2026-09-01T19:59:45Z</time>
  <course>177.69</course>
  <speed>26.02349899609966</speed>
  <fix>3d</fix>
</trkpt>
<trkpt lat="-35.2835601" lon="148.9859553">
  <ele>697.01</ele>
  <time>2026-09-01T19:59:45Z</time>
  <course>176.99</course>
  <speed>26.06</speed>
  <fix>3d</fix>
</trkpt>
<trkpt lat="-35.2836536" lon="148.9859608">
  <ele>697.1</ele>
  <time>2026-09-01T19:59:45Z</time>
  <course>177.64</course>
  <speed>26.003019055486615</speed>
  <fix>3d</fix>
</trkpt>
<trkpt lat="-35.283607" lon="148.9859583">
  <ele>697.08</ele>
  <time>2026-09-01T19:59:45Z</time>
  <course>177.02</course>
  <speed>26.05</speed>
  <fix>3d</fix>
</trkpt>
<trkpt lat="-35.2836768" lon="148.9859623">
  <ele>697.13</ele>
  <time>2026-09-01T19:59:45Z</time>
  <course>177.64</course>
  <speed>25.98304447134708</speed>
  <fix>3d</fix>
</trkpt>
<trkpt lat="-35.283607" lon="148.9859583">
  <ele>697.08</ele>
  <time>2026-09-01T19:59:45Z</time>
  <course>177.02</course>
  <speed>26.05</speed>
  <fix>3d</fix>
</trkpt>
<trkpt lat="-35.2836998" lon="148.9859638">
  <ele>697.16</ele>
  <time>2026-09-01T19:59:45Z</time>
  <course>177.66</course>
  <speed>25.963069926339603</speed>
  <fix>3d</fix>
</trkpt>
<trkpt lat="-35.2836538" lon="148.9859612">
  <ele>697.15</ele>
  <time>2026-09-01T19:59:45Z</time>
  <course>177.03</course>
  <speed>26.03</speed>
  <fix>3d</fix>
</trkpt>
<trkpt lat="-35.2837237" lon="148.9859653">
  <ele>697.19</ele>
  <time>2026-09-01T19:59:45Z</time>
  <course>177.68</course>
  <speed>25.953082668538627</speed>
  <fix>3d</fix>
</trkpt>
<trkpt lat="-35.2836538" lon="148.9859612">
  <ele>697.15</ele>
  <time>2026-09-01T19:59:45Z</time>
  <course>177.03</course>
  <speed>26.03</speed>
  <fix>3d</fix>
</trkpt>
<trkpt lat="-35.2837465" lon="148.9859668">
  <ele>697.21</ele>
  <time>2026-09-01T19:59:45Z</time>
  <course>177.66</course>
  <speed>25.93310818239881</speed>
  <fix>3d</fix>
</trkpt>
<trkpt lat="-35.2837004" lon="148.9859642">
  <ele>697.22</ele>
  <time>2026-09-01T19:59:45Z</time>
  <course>177.03</course>
  <speed>26.01</speed>
  <fix>3d</fix>
</trkpt>
<trkpt lat="-35.2837695" lon="148.9859682">
  <ele>697.23</ele>
  <time>2026-09-01T19:59:45Z</time>
  <course>177.66</course>
  <speed>25.90314652701482</speed>
  <fix>3d</fix>
</trkpt>
<trkpt lat="-35.2837004" lon="148.9859642">
  <ele>697.22</ele>
  <time>2026-09-01T19:59:45Z</time>
  <course>177.03</course>
  <speed>26.01</speed>
  <fix>3d</fix>
</trkpt>
<trkpt lat="-35.2837925" lon="148.9859697">
  <ele>697.25</ele>
  <time>2026-09-01T19:59:45Z</time>
  <course>177.69</course>
  <speed>25.813262095287378</speed>
  <fix>3d</fix>
</trkpt>
<trkpt lat="-35.2837471" lon="148.9859672">
  <ele>697.27</ele>
  <time>2026-09-01T19:59:45Z</time>
  <course>177.03</course>
  <speed>26.0</speed>
  <fix>3d</fix>
</trkpt>
<trkpt lat="-35.2838154" lon="148.9859711">
  <ele>697.27</ele>
  <time>2026-09-01T19:59:45Z</time>
  <course>177.64</course>
  <speed>25.68343045622995</speed>
  <fix>3d</fix>
</trkpt>
<trkpt lat="-35.2837471" lon="148.9859672">
  <ele>697.27</ele>
  <time>2026-09-01T19:59:45Z</time>
  <course>177.03</course>
  <speed>26.0</speed>
  <fix>3d</fix>
</trkpt>
<trkpt lat="-35.2838384" lon="148.9859726">
  <ele>697.3</ele>
  <time>2026-09-01T19:59:45Z</time>
  <course>177.51</course>
  <speed>25.465280285125473</speed>
  <fix>3d</fix>
</trkpt>
<trkpt lat="-35.2837937" lon="148.9859702">
  <ele>697.32</ele>
  <time>2026-09-01T19:59:45Z</time>
  <course>177.03</course>
  <speed>25.89</speed>
  <fix>3d</fix>
</trkpt>
<trkpt lat="-35.2838604" lon="148.9859741">
  <ele>697.36</ele>
  <time>2026-09-01T19:59:45Z</time>
  <course>177.33</course>
  <speed>25.188936063279847</speed>
  <fix>3d</fix>
</trkpt>
<trkpt lat="-35.2838399" lon="148.9859732">
  <ele>697.38</ele>
  <time>2026-09-01T19:59:45Z</time>
  <course>176.9</course>
  <speed>25.56</speed>
  <fix>3d</fix>
</trkpt>
<trkpt lat="-35.2838829" lon="148.9859758">
  <ele>697.46</ele>
  <time>2026-09-01T19:59:45Z</time>
  <course>177.07</course>
  <speed>24.83473776789278</speed>
  <fix>3d</fix>
</trkpt>
<trkpt lat="-35.2838399" lon="148.9859732">
  <ele>697.38</ele>
  <time>2026-09-01T19:59:45Z</time>
  <course>176.9</course>
  <speed>25.56</speed>
  <fix>3d</fix>
</trkpt>
<trkpt lat="-35.283905" lon="148.9859775">
  <ele>697.6</ele>
  <time>2026-09-01T19:59:45Z</time>
  <course>176.75</course>
  <speed>24.421814019437626</speed>
  <fix>3d</fix>
</trkpt>
<trkpt lat="-35.2838852" lon="148.9859763">
  <ele>697.55</ele>
  <time>2026-09-01T19:59:45Z</time>
  <course>176.52</course>
  <speed>24.94</speed>
  <fix>3d</fix>
</trkpt>
<trkpt lat="-35.2839267" lon="148.9859794">
  <ele>697.78</ele>
  <time>2026-09-01T19:59:45Z</time>
  <course>176.41</course>
  <speed>23.99030845987604</speed>
  <fix>3d</fix>
</trkpt>
<trkpt lat="-35.2838852" lon="148.9859763">
  <ele>697.55</ele>
  <time>2026-09-01T19:59:45Z</time>
  <course>176.52</course>
  <speed>24.94</speed>
  <fix>3d</fix>
</trkpt>
<trkpt lat="-35.2839481" lon="148.9859813">
  <ele>697.99</ele>
  <time>2026-09-01T19:59:45Z</time>
  <course>176.09</course>
  <speed>23.529719505340477</speed>
  <fix>3d</fix>
</trkpt>
<trkpt lat="-35.2839292" lon="148.9859798">
  <ele>697.86</ele>
  <time>2026-09-01T19:59:45Z</time>
  <course>175.94</course>
  <speed>24.11</speed>
  <fix>3d</fix>
</trkpt>
<trkpt lat="-35.2839691" lon="148.9859834">
  <ele>698.24</ele>
  <time>2026-09-01T19:59:45Z</time>
  <course>175.8</course>
  <speed>23.069204580999322</speed>
  <fix>3d</fix>
</trkpt>
<trkpt lat="-35.2839292" lon="148.9859798">
  <ele>697.86</ele>
  <time>2026-09-01T19:59:45Z</time>
  <course>175.94</course>
  <speed>24.11</speed>
  <fix>3d</fix>
</trkpt>
<trkpt lat="-35.2839897" lon="148.9859856">
  <ele>698.53</ele>
  <time>2026-09-01T19:59:45Z</time>
  <course>175.54</course>
  <speed>22.588713996153032</speed>
  <fix>3d</fix>
</trkpt>
<trkpt lat="-35.2839715" lon="148.9859837">
  <ele>698.32</ele>
  <time>2026-09-01T19:59:45Z</time>
  <course>175.3</course>
  <speed>23.18</speed>
  <fix>3d</fix>
</trkpt>
<trkpt lat="-35.2840098" lon="148.9859879">
  <ele>698.86</ele>
  <time>2026-09-01T19:59:45Z</time>
  <course>175.33</course>
  <speed>22.107125548112307</speed>
  <fix>3d</fix>
</trkpt>
<trkpt lat="-35.2839715" lon="148.9859837">
  <ele>698.32</ele>
  <time>2026-09-01T19:59:45Z</time>
  <course>175.3</course>
  <speed>23.18</speed>
  <fix>3d</fix>
</trkpt>
<trkpt lat="-35.2840294" lon="148.9859902">
  <ele>699.21</ele>
  <time>2026-09-01T19:59:45Z</time>
  <course>175.16</course>
  <speed>21.614219856381588</speed>
  <fix>3d</fix>
</trkpt>
<trkpt lat="-35.2840121" lon="148.9859881">
  <ele>698.92</ele>
  <time>2026-09-01T19:59:45Z</time>
  <course>174.71</course>
  <speed>22.21</speed>
  <fix>3d</fix>
</trkpt>
<trkpt lat="-35.2840487" lon="148.9859925">
  <ele>699.58</ele>
  <time>2026-09-01T19:59:45Z</time>
  <course>175.05</course>
  <speed>21.159513226915216</speed>
  <fix>3d</fix>
</trkpt>
<trkpt lat="-35.2840121" lon="148.9859881">
  <ele>698.92</ele>
  <time>2026-09-01T19:59:45Z</time>
  <course>174.71</course>
  <speed>22.21</speed>
  <fix>3d</fix>
</trkpt>
<trkpt lat="-35.2840675" lon="148.9859949">
  <ele>699.96</ele>
  <time>2026-09-01T19:59:45Z</time>
  <course>174.97</course>
  <speed>20.72392337372439</speed>
  <fix>3d</fix>
</trkpt>
<trkpt lat="-35.284051" lon="148.9859927">
  <ele>699.63</ele>
  <time>2026-09-01T19:59:45Z</time>
  <course>174.27</course>
  <speed>21.26</speed>
  <fix>3d</fix>
</trkpt>
<trkpt lat="-35.2840861" lon="148.9859973">
  <ele>700.33</ele>
  <time>2026-09-01T19:59:45Z</time>
  <course>174.9</course>
  <speed>20.325100245755248</speed>
  <fix>3d</fix>
</trkpt>
<trkpt lat="-35.284051" lon="148.9859927">
  <ele>699.63</ele>
  <time>2026-09-01T19:59:45Z</time>
  <course>174.27</course>
  <speed>21.26</speed>
  <fix>3d</fix>
</trkpt>
<trkpt lat="-35.2841044" lon="148.9859997">
  <ele>700.68</ele>
  <time>2026-09-01T19:59:45Z</time>
  <course>174.84</course>
  <speed>19.956154439169886</speed>
  <fix>3d</fix>
</trkpt>
<trkpt lat="-35.284051" lon="148.9859927">
  <ele>699.63</ele>
  <time>2026-09-01T19:59:45Z</time>
  <course>174.27</course>
  <speed>21.26</speed>
  <fix>3d</fix>
</trkpt>
<trkpt lat="-35.2841221" lon="148.986002">
  <ele>701.01</ele>
  <time>2026-09-01T19:59:45Z</time>
  <course>174.79</course>
  <speed>19.615985827890476</speed>
  <fix>3d</fix>
</trkpt>
<trkpt lat="-35.2840883" lon="148.9859974">
  <ele>700.36</ele>
  <time>2026-09-01T19:59:45Z</time>
  <course>174.0</course>
  <speed>20.41</speed>
  <fix>3d</fix>
</trkpt>
<trkpt lat="-35.2841396" lon="148.9860044">
  <ele>701.31</ele>
  <time>2026-09-01T19:59:45Z</time>
  <course>174.76</course>
  <speed>19.30565202214108</speed>
  <fix>3d</fix>
</trkpt>
<trkpt lat="-35.2840883" lon="148.9859974">
  <ele>700.36</ele>
  <time>2026-09-01T19:59:45Z</time>
  <course>174.0</course>
  <speed>20.41</speed>
  <fix>3d</fix>
</trkpt>
<trkpt lat="-35.2841573" lon="148.9860067">
  <ele>701.58</ele>
  <time>2026-09-01T19:59:45Z</time>
  <course>174.72</course>
  <speed>18.995328373050043</speed>
  <fix>3d</fix>
</trkpt>
<trkpt lat="-35.2841242" lon="148.9860021">
  <ele>701.04</ele>
  <time>2026-09-01T19:59:45Z</time>
  <course>173.87</course>
  <speed>19.69</speed>
  <fix>3d</fix>
</trkpt>
<trkpt lat="-35.284174" lon="148.986009">
  <ele>701.81</ele>
  <time>2026-09-01T19:59:45Z</time>
  <course>174.69</course>
  <speed>18.723666841727344</speed>
  <fix>3d</fix>
</trkpt>
<trkpt lat="-35.2841242" lon="148.9860021">
  <ele>701.04</ele>
  <time>2026-09-01T19:59:45Z</time>
  <course>173.87</course>
  <speed>19.69</speed>
  <fix>3d</fix>
</trkpt>
<trkpt lat="-35.2841906" lon="148.9860112">
  <ele>702.0</ele>
  <time>2026-09-01T19:59:45Z</time>
  <course>174.66</course>
  <speed>18.452005311076626</speed>
  <fix>3d</fix>
</trkpt>
<trkpt lat="-35.2841588" lon="148.9860067">
  <ele>701.58</ele>
  <time>2026-09-01T19:59:45Z</time>
  <course>173.81</course>
  <speed>19.07</speed>
  <fix>3d</fix>
</trkpt>
<trkpt lat="-35.2842069" lon="148.9860133">
  <ele>702.16</ele>
  <time>2026-09-01T19:59:45Z</time>
  <course>174.63</course>
  <speed>18.1991263526577</speed>
  <fix>3d</fix>
</trkpt>
<trkpt lat="-35.2841588" lon="148.9860067">
  <ele>701.58</ele>
  <time>2026-09-01T19:59:45Z</time>
  <course>173.81</course>
  <speed>19.07</speed>
  <fix>3d</fix>
</trkpt>
<trkpt lat="-35.2842229" lon="148.9860155">
  <ele>702.29</ele>
  <time>2026-09-01T19:59:45Z</time>
  <course>174.62</course>
  <speed>17.96722571795657</speed>
  <fix>3d</fix>
</trkpt>
<trkpt lat="-35.2841923" lon="148.9860112">
  <ele>702.0</ele>
  <time>2026-09-01T19:59:45Z</time>
  <course>173.81</course>
  <speed>18.52</speed>
  <fix>3d</fix>
</trkpt>
<trkpt lat="-35.2842389" lon="148.9860176">
  <ele>702.39</ele>
  <time>2026-09-01T19:59:45Z</time>
  <course>174.62</course>
  <speed>17.734240891563417</speed>
  <fix>3d</fix>
</trkpt>
<trkpt lat="-35.2841923" lon="148.9860112">
  <ele>702.0</ele>
  <time>2026-09-01T19:59:45Z</time>
  <course>173.81</course>
  <speed>18.52</speed>
  <fix>3d</fix>
</trkpt>
<trkpt lat="-35.2842545" lon="148.9860196">
  <ele>702.47</ele>
  <time>2026-09-01T19:59:45Z</time>
  <course>174.63</course>
  <speed>17.52222873951827</speed>
  <fix>3d</fix>
</trkpt>
<trkpt lat="-35.2842249" lon="148.9860155">
  <ele>702.29</ele>
  <time>2026-09-01T19:59:45Z</time>
  <course>173.85</course>
  <speed>18.03</speed>
  <fix>3d</fix>
</trkpt>
<trkpt lat="-35.28427" lon="148.9860216">
  <ele>702.51</ele>
  <time>2026-09-01T19:59:45Z</time>
  <course>174.65</course>
  <speed>17.31909062277809</speed>
  <fix>3d</fix>
</trkpt>
<trkpt lat="-35.2842249" lon="148.9860155">
  <ele>702.29</ele>
  <time>2026-09-01T19:59:45Z</time>
  <course>173.85</course>
  <speed>18.03</speed>
  <fix>3d</fix>
</trkpt>
<trkpt lat="-35.2842853" lon="148.9860236">
  <ele>702.53</ele>
  <time>2026-09-01T19:59:45Z</time>
  <course>174.68</course>
  <speed>17.13586006011954</speed>
  <fix>3d</fix>
</trkpt>
<trkpt lat="-35.2842567" lon="148.9860196">
  <ele>702.46</ele>
  <time>2026-09-01T19:59:45Z</time>
  <course>173.92</course>
  <speed>17.6</speed>
  <fix>3d</fix>
</trkpt>
<trkpt lat="-35.2843004" lon="148.9860255">
  <ele>702.54</ele>
  <time>2026-09-01T19:59:45Z</time>
  <course>174.72</course>
  <speed>16.952654659374147</speed>
  <fix>3d</fix>
</trkpt>
<trkpt lat="-35.2842567" lon="148.9860196">
  <ele>702.46</ele>
  <time>2026-09-01T19:59:45Z</time>
  <course>173.92</course>
  <speed>17.6</speed>
  <fix>3d</fix>
</trkpt>
<trkpt lat="-35.2843155" lon="148.9860274">
  <ele>702.53</ele>
  <time>2026-09-01T19:59:45Z</time>
  <course>174.78</course>
  <speed>16.788341192625317</speed>
  <fix>3d</fix>
</trkpt>
<trkpt lat="-35.2842878" lon="148.9860236">
  <ele>702.53</ele>
  <time>2026-09-01T19:59:45Z</time>
  <course>174.04</course>
  <speed>17.22</speed>
  <fix>3d</fix>
</trkpt>
<trkpt lat="-35.2843305" lon="148.9860292">
  <ele>702.5</ele>
  <time>2026-09-01T19:59:45Z</time>
  <course>174.86</course>
  <speed>16.635050345580563</speed>
  <fix>3d</fix>
</trkpt>
<trkpt lat="-35.2842878" lon="148.9860236">
  <ele>702.53</ele>
  <time>2026-09-01T19:59:45Z</time>
  <course>174.04</course>
  <speed>17.22</speed>
  <fix>3d</fix>
</trkpt>
<trkpt lat="-35.2843454" lon="148.986031">
  <ele>702.46</ele>
  <time>2026-09-01T19:59:45Z</time>
  <course>174.96</course>
  <speed>16.480803985242954</speed>
  <fix>3d</fix>
</trkpt>
<trkpt lat="-35.2843182" lon="148.9860275">
  <ele>702.52</ele>
  <time>2026-09-01T19:59:45Z</time>
  <course>174.19</course>
  <speed>16.87</speed>
  <fix>3d</fix>
</trkpt>
<trkpt lat="-35.2843597" lon="148.9860327">
  <ele>702.42</ele>
  <time>2026-09-01T19:59:45Z</time>
  <course>175.06</course>
  <speed>16.346537859742654</speed>
  <fix>3d</fix>
</trkpt>
<trkpt lat="-35.2843481" lon="148.9860312">
  <ele>702.45</ele>
  <time>2026-09-01T19:59:45Z</time>
  <course>174.39</course>
  <speed>16.56</speed>
  <fix>3d</fix>
</trkpt>
<trkpt lat="-35.2843744" lon="148.9860344">
  <ele>702.36</ele>
  <time>2026-09-01T19:59:45Z</time>
  <course>175.18</course>
  <speed>16.21235639874722</speed>
  <fix>3d</fix>
</trkpt>
<trkpt lat="-35.2843481" lon="148.9860312">
  <ele>702.45</ele>
  <time>2026-09-01T19:59:45Z</time>
  <course>174.39</course>
  <speed>16.56</speed>
  <fix>3d</fix>
</trkpt>
<trkpt lat="-35.2843889" lon="148.9860361">
  <ele>702.31</ele>
  <time>2026-09-01T19:59:45Z</time>
  <course>175.31</course>
  <speed>16.088219292389073</speed>
  <fix>3d</fix>
</trkpt>
<trkpt lat="-35.2843775" lon="148.9860346">
  <ele>702.36</ele>
  <time>2026-09-01T19:59:45Z</time>
  <course>174.62</course>
  <speed>16.28</speed>
  <fix>3d</fix>
</trkpt>
<trkpt lat="-35.2844035" lon="148.9860377">
  <ele>702.25</ele>
  <time>2026-09-01T19:59:45Z</time>
  <course>175.44</course>
  <speed>15.964175518954933</speed>
  <fix>3d</fix>
</trkpt>
<trkpt lat="-35.2843775" lon="148.9860346">
  <ele>702.36</ele>
  <time>2026-09-01T19:59:45Z</time>
  <course>174.62</course>
  <speed>16.28</speed>
  <fix>3d</fix>
</trkpt>
<trkpt lat="-35.2844179" lon="148.9860393">
  <ele>702.2</ele>
  <time>2026-09-01T19:59:45Z</time>
  <course>175.58</course>
  <speed>15.830265316791124</speed>
  <fix>3d</fix>
</trkpt>
<trkpt lat="-35.2843775" lon="148.9860346">
  <ele>702.36</ele>
  <time>2026-09-01T19:59:45Z</time>
  <course>174.62</course>
  <speed>16.28</speed>
  <fix>3d</fix>
</trkpt>
<trkpt lat="-35.2844323" lon="148.9860407">
  <ele>702.15</ele>
  <time>2026-09-01T19:59:45Z</time>
  <course>175.73</course>
  <speed>15.705569075967926</speed>
  <fix>3d</fix>
</trkpt>
<trkpt lat="-35.2844065" lon="148.9860378">
  <ele>702.25</ele>
  <time>2026-09-01T19:59:45Z</time>
  <course>174.89</course>
  <speed>16.0</speed>
  <fix>3d</fix>
</trkpt>
<trkpt lat="-35.2844463" lon="148.9860421">
  <ele>702.1</ele>
  <time>2026-09-01T19:59:45Z</time>
  <course>175.89</course>
  <speed>15.571062905274</speed>
  <fix>3d</fix>
</trkpt>
<trkpt lat="-35.2844065" lon="148.9860378">
  <ele>702.25</ele>
  <time>2026-09-01T19:59:45Z</time>
  <course>174.89</course>
  <speed>16.0</speed>
  <fix>3d</fix>
</trkpt>
<trkpt lat="-35.2844602" lon="148.9860435">
  <ele>702.05</ele>
  <time>2026-09-01T19:59:45Z</time>
  <course>176.05</course>
  <speed>15.427524104664364</speed>
  <fix>3d</fix>
</trkpt>
<trkpt lat="-35.2844349" lon="148.9860409">
  <ele>702.15</ele>
  <time>2026-09-01T19:59:45Z</time>
  <course>175.2</course>
  <speed>15.74</speed>
  <fix>3d</fix>
</trkpt>
<trkpt lat="-35.2844744" lon="148.9860448">
  <ele>702.01</ele>
  <time>2026-09-01T19:59:45Z</time>
  <course>176.22</course>
  <speed>15.283327517265343</speed>
  <fix>3d</fix>
</trkpt>
<trkpt lat="-35.2844349" lon="148.9860409">
  <ele>702.15</ele>
  <time>2026-09-01T19:59:45Z</time>
  <course>175.2</course>
  <speed>15.74</speed>
  <fix>3d</fix>
</trkpt>
<trkpt lat="-35.2844878" lon="148.986046">
  <ele>701.98</ele>
  <time>2026-09-01T19:59:45Z</time>
  <course>176.38</course>
  <speed>15.13928994371929</speed>
  <fix>3d</fix>
</trkpt>
<trkpt lat="-35.2844628" lon="148.9860436">
  <ele>702.06</ele>
  <time>2026-09-01T19:59:45Z</time>
  <course>175.52</course>
  <speed>15.46</speed>
  <fix>3d</fix>
</trkpt>
<trkpt lat="-35.2845012" lon="148.9860472">
  <ele>701.95</ele>
  <time>2026-09-01T19:59:45Z</time>
  <course>176.54</course>
  <speed>14.995415966221143</speed>
  <fix>3d</fix>
</trkpt>
<trkpt lat="-35.2844628" lon="148.9860436">
  <ele>702.06</ele>
  <time>2026-09-01T19:59:45Z</time>
  <course>175.52</course>
  <speed>15.46</speed>
  <fix>3d</fix>
</trkpt>
<trkpt lat="-35.2845145" lon="148.9860483">
  <ele>701.92</ele>
  <time>2026-09-01T19:59:45Z</time>
  <course>176.71</course>
  <speed>14.852366814753802</speed>
  <fix>3d</fix>
</trkpt>
<trkpt lat="-35.2844903" lon="148.9860461">
  <ele>701.99</ele>
  <time>2026-09-01T19:59:45Z</time>
  <course>175.85</course>
  <speed>15.19</speed>
  <fix>3d</fix>
</trkpt>
<trkpt lat="-35.2845278" lon="148.9860493">
  <ele>701.9</ele>
  <time>2026-09-01T19:59:45Z</time>
  <course>176.88</course>
  <speed>14.698819680504961</speed>
  <fix>3d</fix>
</trkpt>
<trkpt lat="-35.2844903" lon="148.9860461">
  <ele>701.99</ele>
  <time>2026-09-01T19:59:45Z</time>
  <course>175.85</course>
  <speed>15.19</speed>
  <fix>3d</fix>
</trkpt>
<trkpt lat="-35.284541" lon="148.9860503">
  <ele>701.89</ele>
  <time>2026-09-01T19:59:45Z</time>
  <course>177.05</course>
  <speed>14.556022808445993</speed>
  <fix>3d</fix>
</trkpt>
<trkpt lat="-35.2845172" lon="148.9860484">
  <ele>701.94</ele>
  <time>2026-09-01T19:59:45Z</time>
  <course>176.19</course>
  <speed>14.9</speed>
  <fix>3d</fix>
</trkpt>
<trkpt lat="-35.284554" lon="148.9860512">
  <ele>701.88</ele>
  <time>2026-09-01T19:59:45Z</time>
  <course>177.21</course>
  <speed>14.402794867663706</speed>
  <fix>3d</fix>
</trkpt>
<trkpt lat="-35.2845172" lon="148.9860484">
  <ele>701.94</ele>
  <time>2026-09-01T19:59:45Z</time>
  <course>176.19</course>
  <speed>14.9</speed>
  <fix>3d</fix>
</trkpt>
<trkpt lat="-35.2845669" lon="148.9860521">
  <ele>701.87</ele>
  <time>2026-09-01T19:59:45Z</time>
  <course>177.38</course>
  <speed>14.260266477173559</speed>
  <fix>3d</fix>
</trkpt>
<trkpt lat="-35.2845437" lon="148.9860506">
  <ele>701.91</ele>
  <time>2026-09-01T19:59:45Z</time>
  <course>176.53</course>
  <speed>14.61</speed>
  <fix>3d</fix>
</trkpt>
<trkpt lat="-35.2845796" lon="148.9860529">
  <ele>701.87</ele>
  <time>2026-09-01T19:59:45Z</time>
  <course>177.56</course>
  <speed>14.107877232241567</speed>
  <fix>3d</fix>
</trkpt>
<trkpt lat="-35.2845437" lon="148.9860506">
  <ele>701.91</ele>
  <time>2026-09-01T19:59:45Z</time>
  <course>176.53</course>
  <speed>14.61</speed>
  <fix>3d</fix>
</trkpt>
<trkpt lat="-35.2845923" lon="148.9860537">
  <ele>701.87</ele>
  <time>2026-09-01T19:59:45Z</time>
  <course>177.73</course>
  <speed>13.955615357267481</speed>
  <fix>3d</fix>
</trkpt>
<trkpt lat="-35.2845696" lon="148.9860524">
  <ele>701.9</ele>
  <time>2026-09-01T19:59:45Z</time>
  <course>176.87</course>
  <speed>14.31</speed>
  <fix>3d</fix>
</trkpt>
<trkpt lat="-35.2846048" lon="148.9860544">
  <ele>701.88</ele>
  <time>2026-09-01T19:59:45Z</time>
  <course>177.9</course>
  <speed>13.803485067185028</speed>
  <fix>3d</fix>
</trkpt>
<trkpt lat="-35.2845696" lon="148.9860524">
  <ele>701.9</ele>
  <time>2026-09-01T19:59:45Z</time>
  <course>176.87</course>
  <speed>14.31</speed>
  <fix>3d</fix>
</trkpt>
<trkpt lat="-35.2846171" lon="148.986055">
  <ele>701.89</ele>
  <time>2026-09-01T19:59:45Z</time>
  <course>178.08</course>
  <speed>13.641499184473822</speed>
  <fix>3d</fix>
</trkpt>
<trkpt lat="-35.284595" lon="148.986054">
  <ele>701.9</ele>
  <time>2026-09-01T19:59:45Z</time>
  <course>177.21</course>
  <speed>14.0</speed>
  <fix>3d</fix>
</trkpt>
<trkpt lat="-35.2846294" lon="148.9860556">
  <ele>701.91</ele>
  <time>2026-09-01T19:59:45Z</time>
  <course>178.26</course>
  <speed>13.489644176181963</speed>
  <fix>3d</fix>
</trkpt>
<trkpt lat="-35.284595" lon="148.986054">
  <ele>701.9</ele>
  <time>2026-09-01T19:59:45Z</time>
  <course>177.21</course>
  <speed>14.0</speed>
  <fix>3d</fix>
</trkpt>
<trkpt lat="-35.2846415" lon="148.9860562">
  <ele>701.94</ele>
  <time>2026-09-01T19:59:45Z</time>
  <course>178.43</course>
  <speed>13.328289462642983</speed>
  <fix>3d</fix>
</trkpt>
<trkpt lat="-35.2846198" lon="148.9860554">
  <ele>701.92</ele>
  <time>2026-09-01T19:59:45Z</time>
  <course>177.55</course>
  <speed>13.69</speed>
  <fix>3d</fix>
</trkpt>
<trkpt lat="-35.2846534" lon="148.9860567">
  <ele>701.96</ele>
  <time>2026-09-01T19:59:45Z</time>
  <course>178.6</course>
  <speed>13.16670042189766</speed>
  <fix>3d</fix>
</trkpt>
<trkpt lat="-35.2846198" lon="148.9860554">
  <ele>701.92</ele>
  <time>2026-09-01T19:59:45Z</time>
  <course>177.55</course>
  <speed>13.69</speed>
  <fix>3d</fix>
</trkpt>
<trkpt lat="-35.2846652" lon="148.9860572">
  <ele>701.99</ele>
  <time>2026-09-01T19:59:45Z</time>
  <course>178.78</course>
  <speed>13.00555266030629</speed>
  <fix>3d</fix>
</trkpt>
<trkpt lat="-35.2846442" lon="148.9860565">
  <ele>701.96</ele>
  <time>2026-09-01T19:59:45Z</time>
  <course>177.89</course>
  <speed>13.36</speed>
  <fix>3d</fix>
</trkpt>
<trkpt lat="-35.2846769" lon="148.9860576">
  <ele>702.03</ele>
  <time>2026-09-01T19:59:45Z</time>
  <course>178.95</course>
  <speed>12.834504275584624</speed>
  <fix>3d</fix>
</trkpt>
<trkpt lat="-35.2846442" lon="148.9860565">
  <ele>701.96</ele>
  <time>2026-09-01T19:59:45Z</time>
  <course>177.89</course>
  <speed>13.36</speed>
  <fix>3d</fix>
</trkpt>
<trkpt lat="-35.2846884" lon="148.986058">
  <ele>702.06</ele>
  <time>2026-09-01T19:59:45Z</time>
  <course>179.12</course>
  <speed>12.663554003517339</speed>
  <fix>3d</fix>
</trkpt>
<trkpt lat="-35.2846679" lon="148.9860575">
  <ele>702.02</ele>
  <time>2026-09-01T19:59:45Z</time>
  <course>178.22</course>
  <speed>13.03</speed>
  <fix>3d</fix>
</trkpt>
<trkpt lat="-35.2846998" lon="148.9860583">
  <ele>702.11</ele>
  <time>2026-09-01T19:59:45Z</time>
  <course>179.29</course>
  <speed>12.50270370759861</speed>
  <fix>3d</fix>
</trkpt>
<trkpt lat="-35.2846679" lon="148.9860575">
  <ele>702.02</ele>
  <time>2026-09-01T19:59:45Z</time>
  <course>178.22</course>
  <speed>13.03</speed>
  <fix>3d</fix>
</trkpt>
<trkpt lat="-35.2847109" lon="148.9860586">
  <ele>702.15</ele>
  <time>2026-09-01T19:59:45Z</time>
  <course>179.45</course>
  <speed>12.321964129147593</speed>
  <fix>3d</fix>
</trkpt>
<trkpt lat="-35.2846911" lon="148.9860583">
  <ele>702.1</ele>
  <time>2026-09-01T19:59:45Z</time>
  <course>178.54</course>
  <speed>12.69</speed>
  <fix>3d</fix>
</trkpt>
<trkpt lat="-35.2847216" lon="148.9860588">
  <ele>702.2</ele>
  <time>2026-09-01T19:59:45Z</time>
  <course>179.61</course>
  <speed>12.151333260181781</speed>
  <fix>3d</fix>
</trkpt>
<trkpt lat="-35.2846911" lon="148.9860583">
  <ele>702.1</ele>
  <time>2026-09-01T19:59:45Z</time>
  <course>178.54</course>
  <speed>12.69</speed>
  <fix>3d</fix>
</trkpt>
<trkpt lat="-35.2847329" lon="148.9860591">
  <ele>702.25</ele>
  <time>2026-09-01T19:59:45Z</time>
  <course>179.77</course>
  <speed>11.970939812729826</speed>
  <fix>3d</fix>
</trkpt>
<trkpt lat="-35.2847136" lon="148.986059">
  <ele>702.18</ele>
  <time>2026-09-01T19:59:45Z</time>
  <course>178.86</course>
  <speed>12.35</speed>
  <fix>3d</fix>
</trkpt>
<trkpt lat="-35.2847435" lon="148.9860592">
  <ele>702.3</ele>
  <time>2026-09-01T19:59:45Z</time>
  <course>179.93</course>
  <speed>11.800512700726186</speed>
  <fix>3d</fix>
</trkpt>
<trkpt lat="-35.2847136" lon="148.986059">
  <ele>702.18</ele>
  <time>2026-09-01T19:59:45Z</time>
  <course>178.86</course>
  <speed>12.35</speed>
  <fix>3d</fix>
</trkpt>
<trkpt lat="-35.2847541" lon="148.9860594">
  <ele>702.35</ele>
  <time>2026-09-01T19:59:45Z</time>
  <course>180.09</course>
  <speed>11.62027538400016</speed>
  <fix>3d</fix>
</trkpt>
<trkpt lat="-35.2847354" lon="148.9860594">
  <ele>702.28</ele>
  <time>2026-09-01T19:59:45Z</time>
  <course>179.17</course>
  <speed>11.99</speed>
  <fix>3d</fix>
</trkpt>
<trkpt lat="-35.2847645" lon="148.9860595">
  <ele>702.41</ele>
  <time>2026-09-01T19:59:45Z</time>
  <course>180.24</course>
  <speed>11.440109265212461</speed>
  <fix>3d</fix>
</trkpt>
<trkpt lat="-35.2847354" lon="148.9860594">
  <ele>702.28</ele>
  <time>2026-09-01T19:59:45Z</time>
  <course>179.17</course>
  <speed>11.99</speed>
  <fix>3d</fix>
</trkpt>
<trkpt lat="-35.2847748" lon="148.9860596">
  <ele>702.47</ele>
  <time>2026-09-01T19:59:45Z</time>
  <course>180.38</course>
  <speed>11.260017761975334</speed>
  <fix>3d</fix>
</trkpt>
<trkpt lat="-35.2847566" lon="148.9860597">
  <ele>702.38</ele>
  <time>2026-09-01T19:59:45Z</time>
  <course>179.47</course>
  <speed>11.63</speed>
  <fix>3d</fix>
</trkpt>
<trkpt lat="-35.284785" lon="148.9860596">
  <ele>702.53</ele>
  <time>2026-09-01T19:59:45Z</time>
  <course>180.53</course>
  <speed>11.07</speed>
  <fix>3d</fix>
</trkpt>
<trkpt lat="-35.2847566" lon="148.9860597">
  <ele>702.38</ele>
  <time>2026-09-01T19:59:45Z</time>
  <course>179.47</course>
  <speed>11.63</speed>
  <fix>3d</fix>
</trkpt>
<trkpt lat="-35.2847949" lon="148.9860596">
  <ele>702.59</ele>
  <time>2026-09-01T19:59:45Z</time>
  <course>180.68</course>
  <speed>10.890018365457424</speed>
  <fix>3d</fix>
</trkpt>
<trkpt lat="-35.2847771" lon="148.9860599">
  <ele>702.5</ele>
  <time>2026-09-01T19:59:45Z</time>
  <course>179.76</course>
  <speed>11.26</speed>
  <fix>3d</fix>
</trkpt>
<trkpt lat="-35.2848046" lon="148.9860596">
  <ele>702.65</ele>
  <time>2026-09-01T19:59:45Z</time>
  <course>180.83</course>
  <speed>10.70011682179218</speed>
  <fix>3d</fix>
</trkpt>
<trkpt lat="-35.2847771" lon="148.9860599">
  <ele>702.5</ele>
  <time>2026-09-01T19:59:45Z</time>
  <course>179.76</course>
  <speed>11.26</speed>
  <fix>3d</fix>
</trkpt>
<trkpt lat="-35.2848141" lon="148.9860595">
  <ele>702.71</ele>
  <time>2026-09-01T19:59:45Z</time>
  <course>180.97</course>
  <speed>10.51023310873741</speed>
  <fix>3d</fix>
</trkpt>
<trkpt lat="-35.2847971" lon="148.9860599">
  <ele>702.62</ele>
  <time>2026-09-01T19:59:45Z</time>
  <course>180.03</course>
  <speed>10.89</speed>
  <fix>3d</fix>
</trkpt>
<trkpt lat="-35.2848235" lon="148.9860595">
  <ele>702.77</ele>
  <time>2026-09-01T19:59:45Z</time>
  <course>181.11</course>
  <speed>10.320392434398993</speed>
  <fix>3d</fix>
</trkpt>
<trkpt lat="-35.2847971" lon="148.9860599">
  <ele>702.62</ele>
  <time>2026-09-01T19:59:45Z</time>
  <course>180.03</course>
  <speed>10.89</speed>
  <fix>3d</fix>
</trkpt>
<trkpt lat="-35.2848327" lon="148.9860595">
  <ele>702.83</ele>
  <time>2026-09-01T19:59:45Z</time>
  <course>181.24</course>
  <speed>10.130710735185366</speed>
  <fix>3d</fix>
</trkpt>
<trkpt lat="-35.2848163" lon="148.9860598">
  <ele>702.74</ele>
  <time>2026-09-01T19:59:45Z</time>
  <course>180.3</course>
  <speed>10.51</speed>
  <fix>3d</fix>
</trkpt>
<trkpt lat="-35.2848418" lon="148.9860593">
  <ele>702.89</ele>
  <time>2026-09-01T19:59:45Z</time>
  <course>181.37</course>
  <speed>9.94098586660297</speed>
  <fix>3d</fix>
</trkpt>
<trkpt lat="-35.2848163" lon="148.9860598">
  <ele>702.74</ele>
  <time>2026-09-01T19:59:45Z</time>
  <course>180.3</course>
  <speed>10.51</speed>
  <fix>3d</fix>
</trkpt>
<trkpt lat="-35.2848507" lon="148.9860592">
  <ele>702.94</ele>
  <time>2026-09-01T19:59:45Z</time>
  <course>181.49</course>
  <speed>9.751153777887005</speed>
  <fix>3d</fix>
</trkpt>
<trkpt lat="-35.2848349" lon="148.9860597">
  <ele>702.86</ele>
  <time>2026-09-01T19:59:45Z</time>
  <course>180.56</course>
  <speed>10.13</speed>
  <fix>3d</fix>
</trkpt>
<trkpt lat="-35.2848595" lon="148.9860591">
  <ele>703.0</ele>
  <time>2026-09-01T19:59:45Z</time>
  <course>181.62</course>
  <speed>9.561511386804913</speed>
  <fix>3d</fix>
</trkpt>
<trkpt lat="-35.2848349" lon="148.9860597">
  <ele>702.86</ele>
  <time>2026-09-01T19:59:45Z</time>
  <course>180.56</course>
  <speed>10.13</speed>
  <fix>3d</fix>
</trkpt>
<trkpt lat="-35.2848681" lon="148.9860589">
  <ele>703.06</ele>
  <time>2026-09-01T19:59:45Z</time>
  <course>181.75</course>
  <speed>9.381924109690933</speed>
  <fix>3d</fix>
</trkpt>
<trkpt lat="-35.2848527" lon="148.9860595">
  <ele>702.97</ele>
  <time>2026-09-01T19:59:45Z</time>
  <course>180.81</course>
  <speed>9.74</speed>
  <fix>3d</fix>
</trkpt>
<trkpt lat="-35.2848765" lon="148.9860587">
  <ele>703.11</ele>
  <time>2026-09-01T19:59:45Z</time>
  <course>181.87</course>
  <speed>9.182178390774164</speed>
  <fix>3d</fix>
</trkpt>
<trkpt lat="-35.2848527" lon="148.9860595">
  <ele>702.97</ele>
  <time>2026-09-01T19:59:45Z</time>
  <course>180.81</course>
  <speed>9.74</speed>
  <fix>3d</fix>
</trkpt>
<trkpt lat="-35.2848847" lon="148.9860585">
  <ele>703.16</ele>
  <time>2026-09-01T19:59:45Z</time>
  <course>181.99</course>
  <speed>8.99245239075526</speed>
  <fix>3d</fix>
</trkpt>
<trkpt lat="-35.2848698" lon="148.9860592">
  <ele>703.08</ele>
  <time>2026-09-01T19:59:45Z</time>
  <course>181.04</course>
  <speed>9.35</speed>
  <fix>3d</fix>
</trkpt>
<trkpt lat="-35.2848928" lon="148.9860583">
  <ele>703.2</ele>
  <time>2026-09-01T19:59:45Z</time>
  <course>182.12</course>
  <speed>8.802749570446725</speed>
  <fix>3d</fix>
</trkpt>
<trkpt lat="-35.2848698" lon="148.9860592">
  <ele>703.08</ele>
  <time>2026-09-01T19:59:45Z</time>
  <course>181.04</course>
  <speed>9.35</speed>
  <fix>3d</fix>
</trkpt>
<trkpt lat="-35.2849006" lon="148.9860581">
  <ele>703.25</ele>
  <time>2026-09-01T19:59:45Z</time>
  <course>182.23</course>
  <speed>8.613344298238635</speed>
  <fix>3d</fix>
</trkpt>
<trkpt lat="-35.2848863" lon="148.9860588">
  <ele>703.19</ele>
  <time>2026-09-01T19:59:45Z</time>
  <course>181.27</course>
  <speed>8.96</speed>
  <fix>3d</fix>
</trkpt>
<trkpt lat="-35.2849083" lon="148.9860578">
  <ele>703.29</ele>
  <time>2026-09-01T19:59:45Z</time>
  <course>182.35</course>
  <speed>8.423419733101277</speed>
  <fix>3d</fix>
</trkpt>
<trkpt lat="-35.2848863" lon="148.9860588">
  <ele>703.19</ele>
  <time>2026-09-01T19:59:45Z</time>
  <course>181.27</course>
  <speed>8.96</speed>
  <fix>3d</fix>
</trkpt>
<trkpt lat="-35.2849159" lon="148.9860576">
  <ele>703.33</ele>
  <time>2026-09-01T19:59:45Z</time>
  <course>182.46</course>
  <speed>8.223800824436351</speed>
  <fix>3d</fix>
</trkpt>
<trkpt lat="-35.284902" lon="148.9860583">
  <ele>703.28</ele>
  <time>2026-09-01T19:59:45Z</time>
  <course>181.48</course>
  <speed>8.57</speed>
  <fix>3d</fix>
</trkpt>
<trkpt lat="-35.2849232" lon="148.9860573">
  <ele>703.36</ele>
  <time>2026-09-01T19:59:45Z</time>
  <course>182.57</course>
  <speed>8.034208112813609</speed>
  <fix>3d</fix>
</trkpt>
<trkpt lat="-35.284902" lon="148.9860583">
  <ele>703.28</ele>
  <time>2026-09-01T19:59:45Z</time>
  <course>181.48</course>
  <speed>8.57</speed>
  <fix>3d</fix>
</trkpt>
<trkpt lat="-35.2849304" lon="148.9860571">
  <ele>703.39</ele>
  <time>2026-09-01T19:59:45Z</time>
  <course>182.68</course>
  <speed>7.844647856978668</speed>
  <fix>3d</fix>
</trkpt>
<trkpt lat="-35.2849171" lon="148.9860578">
  <ele>703.36</ele>
  <time>2026-09-01T19:59:45Z</time>
  <course>181.68</course>
  <speed>8.18</speed>
  <fix>3d</fix>
</trkpt>
<trkpt lat="-35.2849373" lon="148.9860568">
  <ele>703.42</ele>
  <time>2026-09-01T19:59:45Z</time>
  <course>182.78</course>
  <speed>7.654763222987371</speed>
  <fix>3d</fix>
</trkpt>
<trkpt lat="-35.2849171" lon="148.9860578">
  <ele>703.36</ele>
  <time>2026-09-01T19:59:45Z</time>
  <course>181.68</course>
  <speed>8.18</speed>
  <fix>3d</fix>
</trkpt>
<trkpt lat="-35.2849442" lon="148.9860565">
  <ele>703.44</ele>
  <time>2026-09-01T19:59:45Z</time>
  <course>182.88</course>
  <speed>7.465252842335616</speed>
  <fix>3d</fix>
</trkpt>
<trkpt lat="-35.2849315" lon="148.9860572">
  <ele>703.43</ele>
  <time>2026-09-01T19:59:45Z</time>
  <course>181.86</course>
  <speed>7.8</speed>
  <fix>3d</fix>
</trkpt>
<trkpt lat="-35.2849508" lon="148.9860562">
  <ele>703.45</ele>
  <time>2026-09-01T19:59:45Z</time>
  <course>182.98</course>
  <speed>7.27539002390937</speed>
  <fix>3d</fix>
</trkpt>
<trkpt lat="-35.2849315" lon="148.9860572">
  <ele>703.43</ele>
  <time>2026-09-01T19:59:45Z</time>
  <course>181.86</course>
  <speed>7.8</speed>
  <fix>3d</fix>
</trkpt>
<trkpt lat="-35.2849573" lon="148.9860559">
  <ele>703.46</ele>
  <time>2026-09-01T19:59:45Z</time>
  <course>183.07</course>
  <speed>7.085534559932651</speed>
  <fix>3d</fix>
</trkpt>
<trkpt lat="-35.2849451" lon="148.9860567">
  <ele>703.48</ele>
  <time>2026-09-01T19:59:45Z</time>
  <course>182.03</course>
  <speed>7.41</speed>
  <fix>3d</fix>
</trkpt>
<trkpt lat="-35.2849635" lon="148.9860556">
  <ele>703.46</ele>
  <time>2026-09-01T19:59:45Z</time>
  <course>183.15</course>
  <speed>6.895687057864502</speed>
  <fix>3d</fix>
</trkpt>
<trkpt lat="-35.2849451" lon="148.9860567">
  <ele>703.48</ele>
  <time>2026-09-01T19:59:45Z</time>
  <course>182.03</course>
  <speed>7.41</speed>
  <fix>3d</fix>
</trkpt>
<trkpt lat="-35.2849696" lon="148.9860554">
  <ele>703.42</ele>
  <time>2026-09-01T19:59:45Z</time>
  <course>183.23</course>
  <speed>6.685454360026699</speed>
  <fix>3d</fix>
</trkpt>
<trkpt lat="-35.2849582" lon="148.986056">
  <ele>703.5</ele>
  <time>2026-09-01T19:59:45Z</time>
  <course>182.16</course>
  <speed>7.03</speed>
  <fix>3d</fix>
</trkpt>
<trkpt lat="-35.2849755" lon="148.9860551">
  <ele>703.3</ele>
  <time>2026-09-01T19:59:45Z</time>
  <course>183.29</course>
  <speed>6.405279072764902</speed>
  <fix>3d</fix>
</trkpt>
<trkpt lat="-35.2849582" lon="148.986056">
  <ele>703.5</ele>
  <time>2026-09-01T19:59:45Z</time>
  <course>182.16</course>
  <speed>7.03</speed>
  <fix>3d</fix>
</trkpt>
<trkpt lat="-35.284981" lon="148.9860548">
  <ele>703.12</ele>
  <time>2026-09-01T19:59:46Z</time>
  <course>183.33</course>
  <speed>6.0647506131744615</speed>
  <fix>3d</fix>
</trkpt>
<trkpt lat="-35.2849704" lon="148.9860555">
  <ele>703.43</ele>
  <time>2026-09-01T19:59:46Z</time>
  <course>182.24</course>
  <speed>6.61</speed>
  <fix>3d</fix>
</trkpt>
<trkpt lat="-35.2849862" lon="148.9860546">
  <ele>702.87</ele>
  <time>2026-09-01T19:59:46Z</time>
  <course>183.38</course>
  <speed>5.634296761797341</speed>
  <fix>3d</fix>
</trkpt>
<trkpt lat="-35.2849704" lon="148.9860555">
  <ele>703.43</ele>
  <time>2026-09-01T19:59:46Z</time>
  <course>182.24</course>
  <speed>6.61</speed>
  <fix>3d</fix>
</trkpt>
<trkpt lat="-35.2849911" lon="148.9860544">
  <ele>702.58</ele>
  <time>2026-09-01T19:59:46Z</time>
  <course>183.47</course>
  <speed>5.1139123965903055</speed>
  <fix>3d</fix>
</trkpt>
<trkpt lat="-35.2849818" lon="148.986055">
  <ele>703.14</ele>
  <time>2026-09-01T19:59:46Z</time>
  <course>182.27</course>
  <speed>5.99</speed>
  <fix>3d</fix>
</trkpt>
<trkpt lat="-35.2849954" lon="148.9860542">
  <ele>702.25</ele>
  <time>2026-09-01T19:59:46Z</time>
  <course>183.63</course>
  <speed>4.553174716612575</speed>
  <fix>3d</fix>
</trkpt>
<trkpt lat="-35.2849818" lon="148.986055">
  <ele>703.14</ele>
  <time>2026-09-01T19:59:46Z</time>
  <course>182.27</course>
  <speed>5.99</speed>
  <fix>3d</fix>
</trkpt>
<trkpt lat="-35.2849992" lon="148.986054">
  <ele>701.92</ele>
  <time>2026-09-01T19:59:46Z</time>
  <course>183.84</course>
  <speed>3.9528470752104745</speed>
  <fix>3d</fix>
</trkpt>
<trkpt lat="-35.2849917" lon="148.9860545">
  <ele>702.61</ele>
  <time>2026-09-01T19:59:46Z</time>
  <course>182.31</course>
  <speed>5.07</speed>
  <fix>3d</fix>
</trkpt>
<trkpt lat="-35.2850025" lon="148.9860539">
  <ele>701.58</ele>
  <time>2026-09-01T19:59:46Z</time>
  <course>184.11</course>
  <speed>3.3625139404915485</speed>
  <fix>3d</fix>
</trkpt>
<trkpt lat="-35.2849917" lon="148.9860545">
  <ele>702.61</ele>
  <time>2026-09-01T19:59:46Z</time>
  <course>182.31</course>
  <speed>5.07</speed>
  <fix>3d</fix>
</trkpt>
<trkpt lat="-35.2850053" lon="148.9860537">
  <ele>701.25</ele>
  <time>2026-09-01T19:59:46Z</time>
  <course>184.4</course>
  <speed>2.792579452764057</speed>
  <fix>3d</fix>
</trkpt>
<trkpt lat="-35.2849998" lon="148.9860541">
  <ele>701.97</ele>
  <time>2026-09-01T19:59:46Z</time>
  <course>182.45</course>
  <speed>3.93</speed>
  <fix>3d</fix>
</trkpt>
<trkpt lat="-35.2850076" lon="148.9860536">
  <ele>700.94</ele>
  <time>2026-09-01T19:59:46Z</time>
  <course>184.69</course>
  <speed>2.2526872841120227</speed>
  <fix>3d</fix>
</trkpt>
<trkpt lat="-35.2849998" lon="148.9860541">
  <ele>701.97</ele>
  <time>2026-09-01T19:59:46Z</time>
  <course>182.45</course>
  <speed>3.93</speed>
  <fix>3d</fix>
</trkpt>
<trkpt lat="-35.2850094" lon="148.9860535">
  <ele>700.65</ele>
  <time>2026-09-01T19:59:46Z</time>
  <course>184.96</course>
  <speed>1.7628386199536246</speed>
  <fix>3d</fix>
</trkpt>
<trkpt lat="-35.2850059" lon="148.9860537">
  <ele>701.31</ele>
  <time>2026-09-01T19:59:46Z</time>
  <course>182.88</course>
  <speed>2.78</speed>
  <fix>3d</fix>
</trkpt>
<trkpt lat="-35.2850108" lon="148.9860534">
  <ele>700.4</ele>
  <time>2026-09-01T19:59:46Z</time>
  <course>185.19</course>
  <speed>1.3245754036671524</speed>
  <fix>3d</fix>
</trkpt>
<trkpt lat="-35.2850059" lon="148.9860537">
  <ele>701.31</ele>
  <time>2026-09-01T19:59:46Z</time>
  <course>182.88</course>
  <speed>2.78</speed>
  <fix>3d</fix>
</trkpt>
<trkpt lat="-35.2850118" lon="148.9860532">
  <ele>700.19</ele>
  <time>2026-09-01T19:59:46Z</time>
  <course>185.37</course>
  <speed>0.9563472172804185</speed>
  <fix>3d</fix>
</trkpt>
<trkpt lat="-35.2850099" lon="148.9860534">
  <ele>700.72</ele>
  <time>2026-09-01T19:59:46Z</time>
  <course>184.2</course>
  <speed>1.75</speed>
  <fix>3d</fix>
</trkpt>
<trkpt lat="-35.2850126" lon="148.9860531">
  <ele>700.02</ele>
  <time>2026-09-01T19:59:46Z</time>
  <course>185.5</course>
  <speed>0.6432728814430156</speed>
  <fix>3d</fix>
</trkpt>
<trkpt lat="-35.2850099" lon="148.9860534">
  <ele>700.72</ele>
  <time>2026-09-01T19:59:46Z</time>
  <course>184.2</course>
  <speed>1.75</speed>
  <fix>3d</fix>
</trkpt>
<trkpt lat="-35.2850131" lon="148.9860529">
  <ele>699.88</ele>
  <time>2026-09-01T19:59:46Z</time>
  <course>185.57</course>
  <speed>0.4049691346263317</speed>
  <fix>3d</fix>
</trkpt>
<trkpt lat="-35.2850123" lon="148.9860531">
  <ele>700.26</ele>
  <time>2026-09-01T19:59:46Z</time>
  <course>188.25</course>
  <speed>0.93</speed>
  <fix>3d</fix>
</trkpt>
<trkpt lat="-35.2850133" lon="148.9860528">
  <ele>699.79</ele>
  <time>2026-09-01T19:59:46Z</time>
  <course>185.58</course>
  <speed>0.24083189157584592</speed>
  <fix>3d</fix>
</trkpt>
<trkpt lat="-35.2850123" lon="148.9860531">
  <ele>700.26</ele>
  <time>2026-09-01T19:59:46Z</time>
  <course>188.25</course>
  <speed>0.93</speed>
  <fix>3d</fix>
</trkpt>
<trkpt lat="-35.2850134" lon="148.9860526">
  <ele>699.73</ele>
  <time>2026-09-01T19:59:46Z</time>
  <course>185.51</course>
  <speed>0.18681541692269404</speed>
  <fix>3d</fix>
</trkpt>
<trkpt lat="-35.2850133" lon="148.9860529">
  <ele>699.95</ele>
  <time>2026-09-01T19:59:46Z</time>
  <course>203.96</course>
  <speed>0.37</speed>
  <fix>3d</fix>
</trkpt>
<trkpt lat="-35.2850135" lon="148.9860524">
  <ele>699.71</ele>
  <time>2026-09-01T19:59:46Z</time>
  <course>185.37</course>
  <speed>0.20223748416156684</speed>
  <fix>3d</fix>
</trkpt>
<trkpt lat="-35.2850133" lon="148.9860529">
  <ele>699.95</ele>
  <time>2026-09-01T19:59:46Z</time>
  <course>203.96</course>
  <speed>0.37</speed>
  <fix>3d</fix>
</trkpt>
<trkpt lat="-35.2850134" lon="148.9860521">
  <ele>699.71</ele>
  <time>2026-09-01T19:59:46Z</time>
  <course>185.19</course>
  <speed>0.2340939982143925</speed>
  <fix>3d</fix>
</trkpt>
<trkpt lat="-35.2850137" lon="148.9860524">
  <ele>699.81</ele>
  <time>2026-09-01T19:59:46Z</time>
  <course>269.47</course>
  <speed>0.18</speed>
  <fix>3d</fix>
</trkpt>
<trkpt lat="-35.2850133" lon="148.9860519">
  <ele>699.75</ele>
  <time>2026-09-01T19:59:46Z</time>
  <course>185.02</course>
  <speed>0.25079872407968906</speed>
  <fix>3d</fix>
</trkpt>
<trkpt lat="-35.2850137" lon="148.9860524">
  <ele>699.81</ele>
  <time>2026-09-01T19:59:46Z</time>
  <course>269.47</course>
  <speed>0.18</speed>
  <fix>3d</fix>
</trkpt>
<trkpt lat="-35.2850132" lon="148.9860516">
  <ele>699.8</ele>
  <time>2026-09-01T19:59:46Z</time>
  <course>184.93</course>
  <speed>0.25495097567963926</speed>
  <fix>3d</fix>
</trkpt>
<trkpt lat="-35.2850135" lon="148.9860521">
  <ele>699.8</ele>
  <time>2026-09-01T19:59:46Z</time>
  <course>306.37</course>
  <speed>0.25</speed>
  <fix>3d</fix>
</trkpt>
<trkpt lat="-35.2850131" lon="148.9860514">
  <ele>699.87</ele>
  <time>2026-09-01T19:59:46Z</time>
  <course>184.94</course>
  <speed>0.25079872407968906</speed>
  <fix>3d</fix>
</trkpt>
<trkpt lat="-35.2850135" lon="148.9860521">
  <ele>699.8</ele>
  <time>2026-09-01T19:59:46Z</time>
  <course>306.37</course>
  <speed>0.25</speed>
  <fix>3d</fix>
</trkpt>
<trkpt lat="-35.2850131" lon="148.9860511">
  <ele>699.95</ele>
  <time>2026-09-01T19:59:46Z</time>
  <course>185.05</course>
  <speed>0.24698178070456936</speed>
  <fix>3d</fix>
</trkpt>
<trkpt lat="-35.2850131" lon="148.9860516">
  <ele>699.89</ele>
  <time>2026-09-01T19:59:46Z</time>
  <course>311.75</course>
  <speed>0.28</speed>
  <fix>3d</fix>
</trkpt>
<trkpt lat="-35.285013" lon="148.9860509">
  <ele>700.03</ele>
  <time>2026-09-01T19:59:46Z</time>
  <course>185.24</course>
  <speed>0.24351591323771843</speed>
  <fix>3d</fix>
</trkpt>
<trkpt lat="-35.2850131" lon="148.9860516">
  <ele>699.89</ele>
  <time>2026-09-01T19:59:46Z</time>
  <course>311.75</course>
  <speed>0.28</speed>
  <fix>3d</fix>
</trkpt>
<trkpt lat="-35.2850129" lon="148.9860506">
  <ele>700.1</ele>
  <time>2026-09-01T19:59:46Z</time>
  <course>185.44</course>
  <speed>0.22803508501982758</speed>
  <fix>3d</fix>
</trkpt>
<trkpt lat="-35.2850129" lon="148.9860511">
  <ele>700.04</ele>
  <time>2026-09-01T19:59:46Z</time>
  <course>310.98</course>
  <speed>0.27</speed>
  <fix>3d</fix>
</trkpt>
<trkpt lat="-35.2850128" lon="148.9860504">
  <ele>700.18</ele>
  <time>2026-09-01T19:59:46Z</time>
  <course>185.6</course>
  <speed>0.223606797749979</speed>
  <fix>3d</fix>
</trkpt>
<trkpt lat="-35.2850129" lon="148.9860511">
  <ele>700.04</ele>
  <time>2026-09-01T19:59:46Z</time>
  <course>310.98</course>
  <speed>0.27</speed>
  <fix>3d</fix>
</trkpt>
<trkpt lat="-35.2850128" lon="148.9860502">
  <ele>700.24</ele>
  <time>2026-09-01T19:59:46Z</time>
  <course>185.68</course>
  <speed>0.2109502310972899</speed>
  <fix>3d</fix>
</trkpt>
<trkpt lat="-35.2850126" lon="148.9860507">
  <ele>700.19</ele>
  <time>2026-09-01T19:59:46Z</time>
  <course>307.12</course>
  <speed>0.23</speed>
  <fix>3d</fix>
</trkpt>
<trkpt lat="-35.2850127" lon="148.98605">
  <ele>700.29</ele>
  <time>2026-09-01T19:59:46Z</time>
  <course>185.66</course>
  <speed>0.21</speed>
  <fix>3d</fix>
</trkpt>
<trkpt lat="-35.2850126" lon="148.9860507">
  <ele>700.19</ele>
  <time>2026-09-01T19:59:46Z</time>
  <course>307.12</course>
  <speed>0.23</speed>
  <fix>3d</fix>
</trkpt>
<trkpt lat="-35.2850127" lon="148.9860498">
  <ele>700.33</ele>
  <time>2026-09-01T19:59:46Z</time>
  <course>185.54</course>
  <speed>0.2009975124224178</speed>
  <fix>3d</fix>
</trkpt>
<trkpt lat="-35.2850124" lon="148.9860502">
  <ele>700.33</ele>
  <time>2026-09-01T19:59:46Z</time>
  <course>299.1</course>
  <speed>0.19</speed>
  <fix>3d</fix>
</trkpt>
<trkpt lat="-35.2850127" lon="148.9860495">
  <ele>700.36</ele>
  <time>2026-09-01T19:59:46Z</time>
  <course>185.34</course>
  <speed>0.20615528128088303</speed>
  <fix>3d</fix>
</trkpt>
<trkpt lat="-35.2850124" lon="148.9860502">
  <ele>700.33</ele>
  <time>2026-09-01T19:59:46Z</time>
  <course>299.1</course>
  <speed>0.19</speed>
  <fix>3d</fix>
</trkpt>
<trkpt lat="-35.2850127" lon="148.9860494">
  <ele>700.37</ele>
  <time>2026-09-01T19:59:46Z</time>
  <course>185.09</course>
  <speed>0.2102379604162864</speed>
  <fix>3d</fix>
</trkpt>
<trkpt lat="-35.2850123" lon="148.9860499">
  <ele>700.42</ele>
  <time>2026-09-01T19:59:46Z</time>
  <course>283.78</course>
  <speed>0.16</speed>
  <fix>3d</fix>
</trkpt>
<trkpt lat="-35.2850128" lon="148.9860492">
  <ele>700.38</ele>
  <time>2026-09-01T19:59:46Z</time>
  <course>184.84</course>
  <speed>0.23021728866442676</speed>
  <fix>3d</fix>
</trkpt>
<trkpt lat="-35.2850123" lon="148.9860499">
  <ele>700.42</ele>
  <time>2026-09-01T19:59:46Z</time>
  <course>283.78</course>
  <speed>0.16</speed>
  <fix>3d</fix>
</trkpt>
<trkpt lat="-35.2850128" lon="148.986049">
  <ele>700.37</ele>
  <time>2026-09-01T19:59:46Z</time>
  <course>184.62</course>
  <speed>0.24758836806279894</speed>
  <fix>3d</fix>
</trkpt>
<trkpt lat="-35.2850123" lon="148.9860496">
  <ele>700.45</ele>
  <time>2026-09-01T19:59:46Z</time>
  <course>257.06</course>
  <speed>0.14</speed>
  <fix>3d</fix>
</trkpt>
<trkpt lat="-35.2850129" lon="148.9860488">
  <ele>700.35</ele>
  <time>2026-09-01T19:59:46Z</time>
  <course>184.46</course>
  <speed>0.2920616373302047</speed>
  <fix>3d</fix>
</trkpt>
<trkpt lat="-35.2850123" lon="148.9860496">
  <ele>700.45</ele>
  <time>2026-09-01T19:59:46Z</time>
  <course>257.06</course>
  <speed>0.14</speed>
  <fix>3d</fix>
</trkpt>
<trkpt lat="-35.2850131" lon="148.9860487">
  <ele>700.33</ele>
  <time>2026-09-01T19:59:46Z</time>
  <course>184.37</course>
  <speed>0.327566787083184</speed>
  <fix>3d</fix>
</trkpt>
<trkpt lat="-35.2850124" lon="148.9860493">
  <ele>700.45</ele>
  <time>2026-09-01T19:59:46Z</time>
  <course>225.94</course>
  <speed>0.17</speed>
  <fix>3d</fix>
</trkpt>
<trkpt lat="-35.2850133" lon="148.9860485">
  <ele>700.31</ele>
  <time>2026-09-01T19:59:46Z</time>
  <course>184.36</course>
  <speed>0.3757658845611187</speed>
  <fix>3d</fix>
</trkpt>
<trkpt lat="-35.2850124" lon="148.9860493">
  <ele>700.45</ele>
  <time>2026-09-01T19:59:46Z</time>
  <course>225.94</course>
  <speed>0.17</speed>
  <fix>3d</fix>
</trkpt>
<trkpt lat="-35.2850136" lon="148.9860484">
  <ele>700.28</ele>
  <time>2026-09-01T19:59:46Z</time>
  <course>184.4</course>
  <speed>0.4308131845707603</speed>
  <fix>3d</fix>
</trkpt>
<trkpt lat="-35.2850126" lon="148.986049">
  <ele>700.41</ele>
  <time>2026-09-01T19:59:46Z</time>
  <course>205.15</course>
  <speed>0.26</speed>
  <fix>3d</fix>
</trkpt>
<trkpt lat="-35.285014" lon="148.9860483">
  <ele>700.25</ele>
  <time>2026-09-01T19:59:46Z</time>
  <course>184.48</course>
  <speed>0.4933558553417604</speed>
  <fix>3d</fix>
</trkpt>
<trkpt lat="-35.2850126" lon="148.986049">
  <ele>700.41</ele>
  <time>2026-09-01T19:59:46Z</time>
  <course>205.15</course>
  <speed>0.26</speed>
  <fix>3d</fix>
</trkpt>
<trkpt lat="-35.2850144" lon="148.9860482">
  <ele>700.23</ele>
  <time>2026-09-01T19:59:46Z</time>
  <course>184.57</course>
  <speed>0.5578530272392541</speed>
  <fix>3d</fix>
</trkpt>
<trkpt lat="-35.2850132" lon="148.9860488">
  <ele>700.36</ele>
  <time>2026-09-01T19:59:46Z</time>
  <course>194.12</course>
  <speed>0.37</speed>
  <fix>3d</fix>
</trkpt>
<trkpt lat="-35.2850148" lon="148.9860481">
  <ele>700.21</ele>
  <time>2026-09-01T19:59:46Z</time>
  <course>184.65</course>
  <speed>0.6334824385884742</speed>
  <fix>3d</fix>
</trkpt>
<trkpt lat="-35.2850132" lon="148.9860488">
  <ele>700.36</ele>
  <time>2026-09-01T19:59:46Z</time>
  <course>194.12</course>
  <speed>0.37</speed>
  <fix>3d</fix>
</trkpt>
<trkpt lat="-35.2850154" lon="148.986048">
  <ele>700.19</ele>
  <time>2026-09-01T19:59:46Z</time>
  <course>184.7</course>
  <speed>0.7021395872616784</speed>
  <fix>3d</fix>
</trkpt>
<trkpt lat="-35.285014" lon="148.9860486">
  <ele>700.3</ele>
  <time>2026-09-01T19:59:46Z</time>
  <course>188.14</course>
  <speed>0.51</speed>
  <fix>3d</fix>
</trkpt>
<trkpt lat="-35.285016" lon="148.9860479">
  <ele>700.17</ele>
  <time>2026-09-01T19:59:46Z</time>
  <course>184.73</course>
  <speed>0.7792945527847606</speed>
  <fix>3d</fix>
</trkpt>
<trkpt lat="-35.285014" lon="148.9860486">
  <ele>700.3</ele>
  <time>2026-09-01T19:59:46Z</time>
  <course>188.14</course>
  <speed>0.51</speed>
  <fix>3d</fix>
</trkpt>
<trkpt lat="-35.2850166" lon="148.9860478">
  <ele>700.16</ele>
  <time>2026-09-01T19:59:46Z</time>
  <course>184.73</course>
  <speed>0.8471717653463199</speed>
  <fix>3d</fix>
</trkpt>
<trkpt lat="-35.285015" lon="148.9860485">
  <ele>700.26</ele>
  <time>2026-09-01T19:59:46Z</time>
  <course>184.72</course>
  <speed>0.67</speed>
  <fix>3d</fix>
</trkpt>
<trkpt lat="-35.2850174" lon="148.9860478">
  <ele>700.15</ele>
  <time>2026-09-01T19:59:46Z</time>
  <course>184.71</course>
  <speed>0.9154780172128657</speed>
  <fix>3d</fix>
</trkpt>
<trkpt lat="-35.285015" lon="148.9860485">
  <ele>700.26</ele>
  <time>2026-09-01T19:59:46Z</time>
  <course>184.72</course>
  <speed>0.67</speed>
  <fix>3d</fix>
</trkpt>
<trkpt lat="-35.2850182" lon="148.9860477">
  <ele>700.15</ele>
  <time>2026-09-01T19:59:46Z</time>
  <course>184.67</course>
  <speed>0.9850888284819801</speed>
  <fix>3d</fix>
</trkpt>
<trkpt lat="-35.2850164" lon="148.9860484">
  <ele>700.24</ele>
  <time>2026-09-01T19:59:46Z</time>
  <course>182.65</course>
  <speed>0.82</speed>
  <fix>3d</fix>
</trkpt>
<trkpt lat="-35.2850191" lon="148.9860477">
  <ele>700.15</ele>
  <time>2026-09-01T19:59:46Z</time>
  <course>184.63</course>
  <speed>1.0538500842150178</speed>
  <fix>3d</fix>
</trkpt>
<trkpt lat="-35.2850164" lon="148.9860484">
  <ele>700.24</ele>
  <time>2026-09-01T19:59:46Z</time>
  <course>182.65</course>
  <speed>0.82</speed>
  <fix>3d</fix>
</trkpt>
<trkpt lat="-35.28502" lon="148.9860477">
  <ele>700.16</ele>
  <time>2026-09-01T19:59:46Z</time>
  <course>184.59</course>
  <speed>1.1128791488746657</speed>
  <fix>3d</fix>
</trkpt>
<trkpt lat="-35.285018" lon="148.9860483">
  <ele>700.23</ele>
  <time>2026-09-01T19:59:46Z</time>
  <course>181.36</course>
  <speed>0.97</speed>
  <fix>3d</fix>
</trkpt>
<trkpt lat="-35.285021" lon="148.9860477">
  <ele>700.16</ele>
  <time>2026-09-01T19:59:46Z</time>
  <course>184.56</course>
  <speed>1.172731853408954</speed>
  <fix>3d</fix>
</trkpt>
<trkpt lat="-35.285018" lon="148.9860483">
  <ele>700.23</ele>
  <time>2026-09-01T19:59:46Z</time>
  <course>181.36</course>
  <speed>0.97</speed>
  <fix>3d</fix>
</trkpt>
<trkpt lat="-35.285022" lon="148.9860477">
  <ele>700.17</ele>
  <time>2026-09-01T19:59:46Z</time>
  <course>184.53</course>
  <speed>1.231990259701756</speed>
  <fix>3d</fix>
</trkpt>
<trkpt lat="-35.2850198" lon="148.9860483">
  <ele>700.23</ele>
  <time>2026-09-01T19:59:46Z</time>
  <course>180.57</course>
  <speed>1.11</speed>
  <fix>3d</fix>
</trkpt>
<trkpt lat="-35.2850231" lon="148.9860477">
  <ele>700.18</ele>
  <time>2026-09-01T19:59:46Z</time>
  <course>184.52</course>
  <speed>1.28191263352851</speed>
  <fix>3d</fix>
</trkpt>
<trkpt lat="-35.2850198" lon="148.9860483">
  <ele>700.23</ele>
  <time>2026-09-01T19:59:46Z</time>
  <course>180.57</course>
  <speed>1.11</speed>
  <fix>3d</fix>
</trkpt>
<trkpt lat="-35.2850242" lon="148.9860477">
  <ele>700.19</ele>
  <time>2026-09-01T19:59:46Z</time>
  <course>184.51</course>
  <speed>1.3318408313308314</speed>
  <fix>3d</fix>
</trkpt>
<trkpt lat="-35.285022" lon="148.9860483">
  <ele>700.25</ele>
  <time>2026-09-01T19:59:46Z</time>
  <course>180.12</course>
  <speed>1.24</speed>
  <fix>3d</fix>
</trkpt>
<trkpt lat="-35.2850254" lon="148.9860477">
  <ele>700.2</ele>
  <time>2026-09-01T19:59:46Z</time>
  <course>184.51</course>
  <speed>1.3713132391981053</speed>
  <fix>3d</fix>
</trkpt>
<trkpt lat="-35.285022" lon="148.9860483">
  <ele>700.25</ele>
  <time>2026-09-01T19:59:46Z</time>
  <course>180.12</course>
  <speed>1.24</speed>
  <fix>3d</fix>
</trkpt>
<trkpt lat="-35.2850267" lon="148.9860477">
  <ele>700.2</ele>
  <time>2026-09-01T19:59:46Z</time>
  <course>184.51</course>
  <speed>1.4112760183606892</speed>
  <fix>3d</fix>
</trkpt>
<trkpt lat="-35.2850244" lon="148.9860483">
  <ele>700.26</ele>
  <time>2026-09-01T19:59:46Z</time>
  <course>179.9</course>
  <speed>1.34</speed>
  <fix>3d</fix>
</trkpt>
<trkpt lat="-35.2850279" lon="148.9860477">
  <ele>700.21</ele>
  <time>2026-09-01T19:59:46Z</time>
  <course>184.51</course>
  <speed>1.4412494579357176</speed>
  <fix>3d</fix>
</trkpt>
<trkpt lat="-35.2850244" lon="148.9860483">
  <ele>700.26</ele>
  <time>2026-09-01T19:59:46Z</time>
  <course>179.9</course>
  <speed>1.34</speed>
  <fix>3d</fix>
</trkpt>
<trkpt lat="-35.2850292" lon="148.9860477">
  <ele>700.21</ele>
  <time>2026-09-01T19:59:46Z</time>
  <course>184.51</course>
  <speed>1.4712239802287073</speed>
  <fix>3d</fix>
</trkpt>
<trkpt lat="-35.2850269" lon="148.9860483">
  <ele>700.28</ele>
  <time>2026-09-01T19:59:46Z</time>
  <course>179.84</course>
  <speed>1.43</speed>
  <fix>3d</fix>
</trkpt>
<trkpt lat="-35.2850306" lon="148.9860477">
  <ele>700.21</ele>
  <time>2026-09-01T19:59:46Z</time>
  <course>184.51</course>
  <speed>1.4912075643584968</speed>
  <fix>3d</fix>
</trkpt>
<trkpt lat="-35.2850269" lon="148.9860483">
  <ele>700.28</ele>
  <time>2026-09-01T19:59:46Z</time>
  <course>179.84</course>
  <speed>1.43</speed>
  <fix>3d</fix>
</trkpt>
<trkpt lat="-35.2850319" lon="148.9860477">
  <ele>700.21</ele>
  <time>2026-09-01T19:59:46Z</time>
  <course>184.51</course>
  <speed>1.5111915828246265</speed>
  <fix>3d</fix>
</trkpt>
<trkpt lat="-35.2850295" lon="148.9860483">
  <ele>700.29</ele>
  <time>2026-09-01T19:59:46Z</time>
  <course>179.89</course>
  <speed>1.5</speed>
  <fix>3d</fix>
</trkpt>
<trkpt lat="-35.2850333" lon="148.9860477">
  <ele>700.21</ele>
  <time>2026-09-01T19:59:46Z</time>
  <course>184.51</course>
  <speed>1.5211837495845133</speed>
  <fix>3d</fix>
</trkpt>
<trkpt lat="-35.2850295" lon="148.9860483">
  <ele>700.29</ele>
  <time>2026-09-01T19:59:46Z</time>
  <course>179.89</course>
  <speed>1.5</speed>
  <fix>3d</fix>
</trkpt>
<trkpt lat="-35.2850347" lon="148.9860478">
  <ele>700.21</ele>
  <time>2026-09-01T19:59:46Z</time>
  <course>184.5</course>
  <speed>1.5311760186209813</speed>
  <fix>3d</fix>
</trkpt>
<trkpt lat="-35.2850323" lon="148.9860483">
  <ele>700.3</ele>
  <time>2026-09-01T19:59:46Z</time>
  <course>180.02</course>
  <speed>1.55</speed>
  <fix>3d</fix>
</trkpt>
<trkpt lat="-35.2850361" lon="148.9860478">
  <ele>700.21</ele>
  <time>2026-09-01T19:59:46Z</time>
  <course>184.5</course>
  <speed>1.5311760186209813</speed>
  <fix>3d</fix>
</trkpt>
<trkpt lat="-35.2850323" lon="148.9860483">
  <ele>700.3</ele>
  <time>2026-09-01T19:59:46Z</time>
  <course>180.02</course>
  <speed>1.55</speed>
  <fix>3d</fix>
</trkpt>
<trkpt lat="-35.2850374" lon="148.9860478">
  <ele>700.21</ele>
  <time>2026-09-01T19:59:46Z</time>
  <course>184.5</course>
  <speed>1.5311760186209813</speed>
  <fix>3d</fix>
</trkpt>
<trkpt lat="-35.2850351" lon="148.9860483">
  <ele>700.31</ele>
  <time>2026-09-01T19:59:46Z</time>
  <course>180.23</course>
  <speed>1.57</speed>
  <fix>3d</fix>
</trkpt>
<trkpt lat="-35.2850388" lon="148.9860477">
  <ele>700.21</ele>
  <time>2026-09-01T19:59:46Z</time>
  <course>184.5</course>
  <speed>1.5216109883935514</speed>
  <fix>3d</fix>
</trkpt>
<trkpt lat="-35.2850351" lon="148.9860483">
  <ele>700.31</ele>
  <time>2026-09-01T19:59:46Z</time>
  <course>180.23</course>
  <speed>1.57</speed>
  <fix>3d</fix>
</trkpt>
<trkpt lat="-35.2850402" lon="148.9860477">
  <ele>700.21</ele>
  <time>2026-09-01T19:59:46Z</time>
  <course>184.5</course>
  <speed>1.5016324450410627</speed>
  <fix>3d</fix>
</trkpt>
<trkpt lat="-35.2850379" lon="148.9860483">
  <ele>700.31</ele>
  <time>2026-09-01T19:59:46Z</time>
  <course>180.51</course>
  <speed>1.57</speed>
  <fix>3d</fix>
</trkpt>
<trkpt lat="-35.2850415" lon="148.9860477">
  <ele>700.21</ele>
  <time>2026-09-01T19:59:46Z</time>
  <course>184.51</course>
  <speed>1.4816544806398015</speed>
  <fix>3d</fix>
</trkpt>
<trkpt lat="-35.2850379" lon="148.9860483">
  <ele>700.31</ele>
  <time>2026-09-01T19:59:46Z</time>
  <course>180.51</course>
  <speed>1.57</speed>
  <fix>3d</fix>
</trkpt>
<trkpt lat="-35.2850429" lon="148.9860477">
  <ele>700.21</ele>
  <time>2026-09-01T19:59:46Z</time>
  <course>184.51</course>
  <speed>1.4516886718577091</speed>
  <fix>3d</fix>
</trkpt>
<trkpt lat="-35.2850408" lon="148.9860482">
  <ele>700.31</ele>
  <time>2026-09-01T19:59:46Z</time>
  <course>180.86</course>
  <speed>1.55</speed>
  <fix>3d</fix>
</trkpt>
<trkpt lat="-35.2850442" lon="148.9860477">
  <ele>700.21</ele>
  <time>2026-09-01T19:59:46Z</time>
  <course>184.52</course>
  <speed>1.422251735804882</speed>
  <fix>3d</fix>
</trkpt>
<trkpt lat="-35.2850408" lon="148.9860482">
  <ele>700.31</ele>
  <time>2026-09-01T19:59:46Z</time>
  <course>180.86</course>
  <speed>1.55</speed>
  <fix>3d</fix>
</trkpt>
<trkpt lat="-35.2850455" lon="148.9860477">
  <ele>700.21</ele>
  <time>2026-09-01T19:59:46Z</time>
  <course>184.52</course>
  <speed>1.3923002549737609</speed>
  <fix>3d</fix>
</trkpt>
<trkpt lat="-35.2850435" lon="148.9860481">
  <ele>700.31</ele>
  <time>2026-09-01T19:59:46Z</time>
  <course>181.28</course>
  <speed>1.51</speed>
  <fix>3d</fix>
</trkpt>
<trkpt lat="-35.2850467" lon="148.9860476">
  <ele>700.2</ele>
  <time>2026-09-01T19:59:46Z</time>
  <course>184.53</course>
  <speed>1.3529966740535615</speed>
  <fix>3d</fix>
</trkpt>
<trkpt lat="-35.2850435" lon="148.9860481">
  <ele>700.31</ele>
  <time>2026-09-01T19:59:46Z</time>
  <course>181.28</course>
  <speed>1.51</speed>
  <fix>3d</fix>
</trkpt>
<trkpt lat="-35.285048" lon="148.9860476">
  <ele>700.2</ele>
  <time>2026-09-01T19:59:46Z</time>
  <course>184.55</course>
  <speed>1.3031116606031887</speed>
  <fix>3d</fix>
</trkpt>
<trkpt lat="-35.2850461" lon="148.986048">
  <ele>700.31</ele>
  <time>2026-09-01T19:59:46Z</time>
  <course>181.76</course>
  <speed>1.45</speed>
  <fix>3d</fix>
</trkpt>
<trkpt lat="-35.2850491" lon="148.9860475">
  <ele>700.2</ele>
  <time>2026-09-01T19:59:46Z</time>
  <course>184.56</course>
  <speed>1.2532358118087752</speed>
  <fix>3d</fix>
</trkpt>
<trkpt lat="-35.2850461" lon="148.986048">
  <ele>700.31</ele>
  <time>2026-09-01T19:59:46Z</time>
  <course>181.76</course>
  <speed>1.45</speed>
  <fix>3d</fix>
</trkpt>
<trkpt lat="-35.2850503" lon="148.9860475">
  <ele>700.2</ele>
  <time>2026-09-01T19:59:46Z</time>
  <course>184.56</course>
  <speed>1.2041594578792294</speed>
  <fix>3d</fix>
</trkpt>
<trkpt lat="-35.2850487" lon="148.9860479">
  <ele>700.31</ele>
  <time>2026-09-01T19:59:46Z</time>
  <course>182.32</course>
  <speed>1.36</speed>
  <fix>3d</fix>
</trkpt>
<trkpt lat="-35.2850514" lon="148.9860474">
  <ele>700.2</ele>
  <time>2026-09-01T19:59:46Z</time>
  <course>184.57</course>
  <speed>1.1443775600735975</speed>
  <fix>3d</fix>
</trkpt>
<trkpt lat="-35.2850487" lon="148.9860479">
  <ele>700.31</ele>
  <time>2026-09-01T19:59:46Z</time>
  <course>182.32</course>
  <speed>1.36</speed>
  <fix>3d</fix>
</trkpt>
<trkpt lat="-35.2850524" lon="148.9860473">
  <ele>700.2</ele>
  <time>2026-09-01T19:59:46Z</time>
  <course>184.57</course>
  <speed>1.0846197490365</speed>
  <fix>3d</fix>
</trkpt>
<trkpt lat="-35.285051" lon="148.9860478">
  <ele>700.31</ele>
  <time>2026-09-01T19:59:46Z</time>
  <course>182.98</course>
  <speed>1.27</speed>
  <fix>3d</fix>
</trkpt>
<trkpt lat="-35.2850534" lon="148.9860472">
  <ele>700.2</ele>
  <time>2026-09-01T19:59:46Z</time>
  <course>184.58</course>
  <speed>1.0259142264341596</speed>
  <fix>3d</fix>
</trkpt>
<trkpt lat="-35.285051" lon="148.9860478">
  <ele>700.31</ele>
  <time>2026-09-01T19:59:46Z</time>
  <course>182.98</course>
  <speed>1.27</speed>
  <fix>3d</fix>
</trkpt>
<trkpt lat="-35.2850544" lon="148.9860472">
  <ele>700.2</ele>
  <time>2026-09-01T19:59:46Z</time>
  <course>184.58</course>
  <speed>0.9662815324738437</speed>
  <fix>3d</fix>
</trkpt>
<trkpt lat="-35.2850532" lon="148.9860477">
  <ele>700.31</ele>
  <time>2026-09-01T19:59:46Z</time>
  <course>183.77</course>
  <speed>1.15</speed>
  <fix>3d</fix>
</trkpt>
<trkpt lat="-35.2850553" lon="148.9860471">
  <ele>700.2</ele>
  <time>2026-09-01T19:59:46Z</time>
  <course>184.58</course>
  <speed>0.8967719888578144</speed>
  <fix>3d</fix>
</trkpt>
<trkpt lat="-35.2850532" lon="148.9860477">
  <ele>700.31</ele>
  <time>2026-09-01T19:59:46Z</time>
  <course>183.77</course>
  <speed>1.15</speed>
  <fix>3d</fix>
</trkpt>
<trkpt lat="-35.2850561" lon="148.986047">
  <ele>700.21</ele>
  <time>2026-09-01T19:59:46Z</time>
  <course>184.58</course>
  <speed>0.8287339742040264</speed>
  <fix>3d</fix>
</trkpt>
<trkpt lat="-35.2850552" lon="148.9860474">
  <ele>700.31</ele>
  <time>2026-09-01T19:59:46Z</time>
  <course>184.76</course>
  <speed>1.02</speed>
  <fix>3d</fix>
</trkpt>
<trkpt lat="-35.2850569" lon="148.9860469">
  <ele>700.21</ele>
  <time>2026-09-01T19:59:46Z</time>
  <course>184.59</course>
  <speed>0.7595393340703298</speed>
  <fix>3d</fix>
</trkpt>
<trkpt lat="-35.2850552" lon="148.9860474">
  <ele>700.31</ele>
  <time>2026-09-01T19:59:46Z</time>
  <course>184.76</course>
  <speed>1.02</speed>
  <fix>3d</fix>
</trkpt>
<trkpt lat="-35.2850576" lon="148.9860468">
  <ele>700.21</ele>
  <time>2026-09-01T19:59:46Z</time>
  <course>184.59</course>
  <speed>0.6905070600652827</speed>
  <fix>3d</fix>
</trkpt>
<trkpt lat="-35.2850569" lon="148.9860473">
  <ele>700.31</ele>
  <time>2026-09-01T19:59:46Z</time>
  <course>186.01</course>
  <speed>0.89</speed>
  <fix>3d</fix>
</trkpt>
<trkpt lat="-35.2850582" lon="148.9860467">
  <ele>700.21</ele>
  <time>2026-09-01T19:59:46Z</time>
  <course>184.59</course>
  <speed>0.6118823416311342</speed>
  <fix>3d</fix>
</trkpt>
<trkpt lat="-35.2850569" lon="148.9860473">
  <ele>700.31</ele>
  <time>2026-09-01T19:59:46Z</time>
  <course>186.01</course>
  <speed>0.89</speed>
  <fix>3d</fix>
</trkpt>
<trkpt lat="-35.2850588" lon="148.9860466">
  <ele>700.21</ele>
  <time>2026-09-01T19:59:46Z</time>
  <course>184.6</course>
  <speed>0.5434151267677411</speed>
  <fix>3d</fix>
</trkpt>
<trkpt lat="-35.2850584" lon="148.9860471">
  <ele>700.31</ele>
  <time>2026-09-01T19:59:46Z</time>
  <course>187.69</course>
  <speed>0.74</speed>
  <fix>3d</fix>
</trkpt>
<trkpt lat="-35.2850593" lon="148.9860465">
  <ele>700.21</ele>
  <time>2026-09-01T19:59:46Z</time>
  <course>184.59</course>
  <speed>0.46840153714521476</speed>
  <fix>3d</fix>
</trkpt>
<trkpt lat="-35.2850584" lon="148.9860471">
  <ele>700.31</ele>
  <time>2026-09-01T19:59:46Z</time>
  <course>187.69</course>
  <speed>0.74</speed>
  <fix>3d</fix>
</trkpt>
<trkpt lat="-35.2850597" lon="148.9860464">
  <ele>700.21</ele>
  <time>2026-09-01T19:59:46Z</time>
  <course>184.59</course>
  <speed>0.4016217125604641</speed>
  <fix>3d</fix>
</trkpt>
<trkpt lat="-35.2850596" lon="148.9860469">
  <ele>700.31</ele>
  <time>2026-09-01T19:59:46Z</time>
  <course>190.09</course>
  <speed>0.6</speed>
  <fix>3d</fix>
</trkpt>
<trkpt lat="-35.2850601" lon="148.9860463">
  <ele>700.21</ele>
  <time>2026-09-01T19:59:46Z</time>
  <course>184.58</course>
  <speed>0.3361547262794322</speed>
  <fix>3d</fix>
</trkpt>
<trkpt lat="-35.2850596" lon="148.9860469">
  <ele>700.31</ele>
  <time>2026-09-01T19:59:46Z</time>
  <course>190.09</course>
  <speed>0.6</speed>
  <fix>3d</fix>
</trkpt>
<trkpt lat="-35.2850604" lon="148.9860462">
  <ele>700.21</ele>
  <time>2026-09-01T19:59:46Z</time>
  <course>184.58</course>
  <speed>0.2641968962724581</speed>
  <fix>3d</fix>
</trkpt>
<trkpt lat="-35.2850605" lon="148.9860466">
  <ele>700.31</ele>
  <time>2026-09-01T19:59:46Z</time>
  <course>193.88</course>
  <speed>0.45</speed>
  <fix>3d</fix>
</trkpt>
<trkpt lat="-35.2850607" lon="148.986046">
  <ele>700.21</ele>
  <time>2026-09-01T19:59:46Z</time>
  <course>184.58</course>
  <speed>0.20615528128088303</speed>
  <fix>3d</fix>
</trkpt>
<trkpt lat="-35.2850605" lon="148.9860466">
  <ele>700.31</ele>
  <time>2026-09-01T19:59:46Z</time>
  <course>193.88</course>
  <speed>0.45</speed>
  <fix>3d</fix>
</trkpt>
<trkpt lat="-35.2850609" lon="148.9860459">
  <ele>700.21</ele>
  <time>2026-09-01T19:59:46Z</time>
  <course>184.58</course>
  <speed>0.15811388300841897</speed>
  <fix>3d</fix>
</trkpt>
<trkpt lat="-35.2850612" lon="148.9860464">
  <ele>700.31</ele>
  <time>2026-09-01T19:59:46Z</time>
  <course>200.87</course>
  <speed>0.31</speed>
  <fix>3d</fix>
</trkpt>
<trkpt lat="-35.285061" lon="148.9860458">
  <ele>700.21</ele>
  <time>2026-09-01T19:59:46Z</time>
  <course>184.57</course>
  <speed>0.13152946437965907</speed>
  <fix>3d</fix>
</trkpt>
<trkpt lat="-35.2850612" lon="148.9860464">
  <ele>700.31</ele>
  <time>2026-09-01T19:59:46Z</time>
  <course>200.87</course>
  <speed>0.31</speed>
  <fix>3d</fix>
</trkpt>
<trkpt lat="-35.285061" lon="148.9860457">
  <ele>700.21</ele>
  <time>2026-09-01T19:59:46Z</time>
  <course>184.56</course>
  <speed>0.13341664064126335</speed>
  <fix>3d</fix>
</trkpt>
<trkpt lat="-35.2850616" lon="148.9860461">
  <ele>700.31</ele>
  <time>2026-09-01T19:59:46Z</time>
  <course>217.19</course>
  <speed>0.18</speed>
  <fix>3d</fix>
</trkpt>
<trkpt lat="-35.2850611" lon="148.9860456">
  <ele>700.21</ele>
  <time>2026-09-01T19:59:46Z</time>
  <course>184.56</course>
  <speed>0.15</speed>
  <fix>3d</fix>
</trkpt>
<trkpt lat="-35.2850616" lon="148.9860461">
  <ele>700.31</ele>
  <time>2026-09-01T19:59:46Z</time>
  <course>217.19</course>
  <speed>0.18</speed>
  <fix>3d</fix>
</trkpt>
<trkpt lat="-35.285061" lon="148.9860455">
  <ele>700.21</ele>
  <time>2026-09-01T19:59:46Z</time>
  <course>184.56</course>
  <speed>0.19209372712298545</speed>
  <fix>3d</fix>
</trkpt>
<trkpt lat="-35.2850617" lon="148.9860459">
  <ele>700.31</ele>
  <time>2026-09-01T19:59:46Z</time>
  <course>264.05</course>
  <speed>0.11</speed>
  <fix>3d</fix>
</trkpt>
<trkpt lat="-35.2850609" lon="148.9860454">
  <ele>700.21</ele>
  <time>2026-09-01T19:59:46Z</time>
  <course>184.56</course>
  <speed>0.23323807579381203</speed>
  <fix>3d</fix>
</trkpt>
<trkpt lat="-35.2850617" lon="148.9860459">
  <ele>700.31</ele>
  <time>2026-09-01T19:59:46Z</time>
  <course>264.05</course>
  <speed>0.11</speed>
  <fix>3d</fix>
</trkpt>
<trkpt lat="-35.2850609" lon="148.9860453">
  <ele>700.21</ele>
  <time>2026-09-01T19:59:46Z</time>
  <course>184.57</course>
  <speed>0.27730849247724093</speed>
  <fix>3d</fix>
</trkpt>
<trkpt lat="-35.2850616" lon="148.9860456">
  <ele>700.31</ele>
  <time>2026-09-01T19:59:46Z</time>
  <course>315.68</course>
  <speed>0.15</speed>
  <fix>3d</fix>
</trkpt>
<trkpt lat="-35.2850607" lon="148.9860451">
  <ele>700.21</ele>
  <time>2026-09-01T19:59:46Z</time>
  <course>184.58</course>
  <speed>0.3195309061734092</speed>
  <fix>3d</fix>
</trkpt>
<trkpt lat="-35.2850616" lon="148.9860456">
  <ele>700.31</ele>
  <time>2026-09-01T19:59:46Z</time>
  <course>315.68</course>
  <speed>0.15</speed>
  <fix>3d</fix>
</trkpt>
<trkpt lat="-35.2850604" lon="148.986045">
  <ele>700.21</ele>
  <time>2026-09-01T19:59:46Z</time>
  <course>184.6</course>
  <speed>0.35735136770411274</speed>
  <fix>3d</fix>
</trkpt>
<trkpt lat="-35.2850613" lon="148.9860454">
  <ele>700.3</ele>
  <time>2026-09-01T19:59:46Z</time>
  <course>334.29</course>
  <speed>0.24</speed>
  <fix>3d</fix>
</trkpt>
<trkpt lat="-35.2850602" lon="148.9860449">
  <ele>700.21</ele>
  <time>2026-09-01T19:59:46Z</time>
  <course>184.63</course>
  <speed>0.38600518131237566</speed>
  <fix>3d</fix>
</trkpt>
<trkpt lat="-35.2850613" lon="148.9860454">
  <ele>700.3</ele>
  <time>2026-09-01T19:59:46Z</time>
  <course>334.29</course>
  <speed>0.24</speed>
  <fix>3d</fix>
</trkpt>
<trkpt lat="-35.2850599" lon="148.9860448">
  <ele>700.2</ele>
  <time>2026-09-01T19:59:46Z</time>
  <course>184.68</course>
  <speed>0.41231056256176607</speed>
  <fix>3d</fix>
</trkpt>
<trkpt lat="-35.2850609" lon="148.9860451">
  <ele>700.3</ele>
  <time>2026-09-01T19:59:46Z</time>
  <course>342.01</course>
  <speed>0.32</speed>
  <fix>3d</fix>
</trkpt>
<trkpt lat="-35.2850595" lon="148.9860447">
  <ele>700.2</ele>
  <time>2026-09-01T19:59:46Z</time>
  <course>184.72</course>
  <speed>0.431740662898458</speed>
  <fix>3d</fix>
</trkpt>
<trkpt lat="-35.2850609" lon="148.9860451">
  <ele>700.3</ele>
  <time>2026-09-01T19:59:46Z</time>
  <course>342.01</course>
  <speed>0.32</speed>
  <fix>3d</fix>
</trkpt>
<trkpt lat="-35.2850592" lon="148.9860446">
  <ele>700.2</ele>
  <time>2026-09-01T19:59:46Z</time>
  <course>184.77</course>
  <speed>0.4491102314577124</speed>
  <fix>3d</fix>
</trkpt>
<trkpt lat="-35.2850603" lon="148.986045">
  <ele>700.3</ele>
  <time>2026-09-01T19:59:46Z</time>
  <course>346.24</course>
  <speed>0.38</speed>
  <fix>3d</fix>
</trkpt>
<trkpt lat="-35.2850588" lon="148.9860446">
  <ele>700.21</ele>
  <time>2026-09-01T19:59:46Z</time>
  <course>184.8</course>
  <speed>0.4687216658103186</speed>
  <fix>3d</fix>
</trkpt>
<trkpt lat="-35.2850603" lon="148.986045">
  <ele>700.3</ele>
  <time>2026-09-01T19:59:46Z</time>
  <course>346.24</course>
  <speed>0.38</speed>
  <fix>3d</fix>
</trkpt>
<trkpt lat="-35.2850585" lon="148.9860445">
  <ele>700.21</ele>
  <time>2026-09-01T19:59:46Z</time>
  <course>184.83</course>
  <speed>0.47675989764240867</speed>
  <fix>3d</fix>
</trkpt>
<trkpt lat="-35.2850596" lon="148.9860448">
  <ele>700.3</ele>
  <time>2026-09-01T19:59:46Z</time>
  <course>349.04</course>
  <speed>0.42</speed>
  <fix>3d</fix>
</trkpt>
<trkpt lat="-35.2850581" lon="148.9860444">
  <ele>700.21</ele>
  <time>2026-09-01T19:59:46Z</time>
  <course>184.86</course>
  <speed>0.48662100242385753</speed>
  <fix>3d</fix>
</trkpt>
<trkpt lat="-35.2850596" lon="148.9860448">
  <ele>700.3</ele>
  <time>2026-09-01T19:59:46Z</time>
  <course>349.04</course>
  <speed>0.42</speed>
  <fix>3d</fix>
</trkpt>
<trkpt lat="-35.2850577" lon="148.9860443">
  <ele>700.21</ele>
  <time>2026-09-01T19:59:46Z</time>
  <course>184.88</course>
  <speed>0.4850773134253961</speed>
  <fix>3d</fix>
</trkpt>
<trkpt lat="-35.2850588" lon="148.9860446">
  <ele>700.31</ele>
  <time>2026-09-01T19:59:46Z</time>
  <course>351.1</course>
  <speed>0.45</speed>
  <fix>3d</fix>
</trkpt>
<trkpt lat="-35.2850573" lon="148.9860443">
  <ele>700.21</ele>
  <time>2026-09-01T19:59:46Z</time>
  <course>184.89</course>
  <speed>0.4850773134253961</speed>
  <fix>3d</fix>
</trkpt>
<trkpt lat="-35.2850588" lon="148.9860446">
  <ele>700.31</ele>
  <time>2026-09-01T19:59:46Z</time>
  <course>351.1</course>
  <speed>0.45</speed>
  <fix>3d</fix>
</trkpt>
<trkpt lat="-35.2850569" lon="148.9860442">
  <ele>700.21</ele>
  <time>2026-09-01T19:59:46Z</time>
  <course>184.89</course>
  <speed>0.48373546489791297</speed>
  <fix>3d</fix>
</trkpt>
<trkpt lat="-35.285058" lon="148.9860445">
  <ele>700.31</ele>
  <time>2026-09-01T19:59:46Z</time>
  <course>352.72</course>
  <speed>0.46</speed>
  <fix>3d</fix>
</trkpt>
<trkpt lat="-35.2850565" lon="148.9860442">
  <ele>700.22</ele>
  <time>2026-09-01T19:59:46Z</time>
  <course>184.89</course>
  <speed>0.48373546489791297</speed>
  <fix>3d</fix>
</trkpt>
<trkpt lat="-35.285058" lon="148.9860445">
  <ele>700.31</ele>
  <time>2026-09-01T19:59:46Z</time>
  <course>352.72</course>
  <speed>0.46</speed>
  <fix>3d</fix>
</trkpt>
<trkpt lat="-35.2850561" lon="148.9860441">
  <ele>700.22</ele>
  <time>2026-09-01T19:59:46Z</time>
  <course>184.88</course>
  <speed>0.472652091923859</speed>
  <fix>3d</fix>
</trkpt>
<trkpt lat="-35.2850572" lon="148.9860443">
  <ele>700.31</ele>
  <time>2026-09-01T19:59:46Z</time>
  <course>354.1</course>
  <speed>0.46</speed>
  <fix>3d</fix>
</trkpt>
<trkpt lat="-35.2850557" lon="148.9860441">
  <ele>700.21</ele>
  <time>2026-09-01T19:59:46Z</time>
  <course>184.86</course>
  <speed>0.472652091923859</speed>
  <fix>3d</fix>
</trkpt>
<trkpt lat="-35.2850572" lon="148.9860443">
  <ele>700.31</ele>
  <time>2026-09-01T19:59:46Z</time>
  <course>354.1</course>
  <speed>0.46</speed>
  <fix>3d</fix>
</trkpt>
<trkpt lat="-35.2850553" lon="148.986044">
  <ele>700.21</ele>
  <time>2026-09-01T19:59:46Z</time>
  <course>184.85</course>
  <speed>0.4617358552246078</speed>
  <fix>3d</fix>
</trkpt>
<trkpt lat="-35.2850564" lon="148.9860442">
  <ele>700.31</ele>
  <time>2026-09-01T19:59:46Z</time>
  <course>355.36</course>
  <speed>0.46</speed>
  <fix>3d</fix>
</trkpt>
<trkpt lat="-35.285055" lon="148.986044">
  <ele>700.21</ele>
  <time>2026-09-01T19:59:46Z</time>
  <course>184.83</course>
  <speed>0.45177427992306074</speed>
  <fix>3d</fix>
</trkpt>
<trkpt lat="-35.2850564" lon="148.9860442">
  <ele>700.31</ele>
  <time>2026-09-01T19:59:46Z</time>
  <course>355.36</course>
  <speed>0.46</speed>
  <fix>3d</fix>
</trkpt>
<trkpt lat="-35.2850546" lon="148.986044">
  <ele>700.21</ele>
  <time>2026-09-01T19:59:46Z</time>
  <course>184.81</course>
  <speed>0.4410215414239989</speed>
  <fix>3d</fix>
</trkpt>
<trkpt lat="-35.2850555" lon="148.9860441">
  <ele>700.31</ele>
  <time>2026-09-01T19:59:46Z</time>
  <course>356.63</course>
  <speed>0.45</speed>
  <fix>3d</fix>
</trkpt>
<trkpt lat="-35.2850542" lon="148.986044">
  <ele>700.21</ele>
  <time>2026-09-01T19:59:46Z</time>
  <course>184.8</course>
  <speed>0.4310452412450461</speed>
  <fix>3d</fix>
</trkpt>
<trkpt lat="-35.2850555" lon="148.9860441">
  <ele>700.31</ele>
  <time>2026-09-01T19:59:46Z</time>
  <course>356.63</course>
  <speed>0.45</speed>
  <fix>3d</fix>
</trkpt>
<trkpt lat="-35.2850539" lon="148.9860439">
  <ele>700.21</ele>
  <time>2026-09-01T19:59:46Z</time>
  <course>184.78</course>
  <speed>0.4204759208325728</speed>
  <fix>3d</fix>
</trkpt>
<trkpt lat="-35.2850548" lon="148.9860441">
  <ele>700.3</ele>
  <time>2026-09-01T19:59:46Z</time>
  <course>357.89</course>
  <speed>0.43</speed>
  <fix>3d</fix>
</trkpt>
<trkpt lat="-35.2850535" lon="148.9860439">
  <ele>700.21</ele>
  <time>2026-09-01T19:59:46Z</time>
  <course>184.76</course>
  <speed>0.4004996878900158</speed>
  <fix>3d</fix>
</trkpt>
<trkpt lat="-35.2850548" lon="148.9860441">
  <ele>700.3</ele>
  <time>2026-09-01T19:59:46Z</time>
  <course>357.89</course>
  <speed>0.43</speed>
  <fix>3d</fix>
</trkpt>
<trkpt lat="-35.2850532" lon="148.9860439">
  <ele>700.21</ele>
  <time>2026-09-01T19:59:46Z</time>
  <course>184.74</course>
  <speed>0.3901281840626232</speed>
  <fix>3d</fix>
</trkpt>
<trkpt lat="-35.285054" lon="148.9860441">
  <ele>700.3</ele>
  <time>2026-09-01T19:59:46Z</time>
  <course>359.18</course>
  <speed>0.4</speed>
  <fix>3d</fix>
</trkpt>
<trkpt lat="-35.2850529" lon="148.9860439">
  <ele>700.21</ele>
  <time>2026-09-01T19:59:46Z</time>
  <course>184.72</course>
  <speed>0.38013155617496425</speed>
  <fix>3d</fix>
</trkpt>
<trkpt lat="-35.285054" lon="148.9860441">
  <ele>700.3</ele>
  <time>2026-09-01T19:59:46Z</time>
  <course>359.18</course>
  <speed>0.4</speed>
  <fix>3d</fix>
</trkpt>
<trkpt lat="-35.2850525" lon="148.9860439">
  <ele>700.21</ele>
  <time>2026-09-01T19:59:46Z</time>
  <course>184.7</course>
  <speed>0.37013511046643494</speed>
  <fix>3d</fix>
</trkpt>
<trkpt lat="-35.2850532" lon="148.986044">
  <ele>700.3</ele>
  <time>2026-09-01T19:59:46Z</time>
  <course>0.51</course>
  <speed>0.38</speed>
  <fix>3d</fix>
</trkpt>
<trkpt lat="-35.2850522" lon="148.9860439">
  <ele>700.2</ele>
  <time>2026-09-01T19:59:46Z</time>
  <course>184.67</course>
  <speed>0.35</speed>
  <fix>3d</fix>
</trkpt>
<trkpt lat="-35.2850532" lon="148.986044">
  <ele>700.3</ele>
  <time>2026-09-01T19:59:46Z</time>
  <course>0.51</course>
  <speed>0.38</speed>
  <fix>3d</fix>
</trkpt>
<trkpt lat="-35.2850519" lon="148.986044">
  <ele>700.2</ele>
  <time>2026-09-01T19:59:46Z</time>
  <course>184.65</course>
  <speed>0.34</speed>
  <fix>3d</fix>
</trkpt>
<trkpt lat="-35.2850526" lon="148.986044">
  <ele>700.3</ele>
  <time>2026-09-01T19:59:46Z</time>
  <course>1.8</course>
  <speed>0.35</speed>
  <fix>3d</fix>
</trkpt>
<trkpt lat="-35.2850516" lon="148.986044">
  <ele>700.2</ele>
  <time>2026-09-01T19:59:46Z</time>
  <course>184.63</course>
  <speed>0.33</speed>
  <fix>3d</fix>
</trkpt>
<trkpt lat="-35.2850526" lon="148.986044">
  <ele>700.3</ele>
  <time>2026-09-01T19:59:46Z</time>
  <course>1.8</course>
  <speed>0.35</speed>
  <fix>3d</fix>
</trkpt>
<trkpt lat="-35.2850514" lon="148.986044">
  <ele>700.2</ele>
  <time>2026-09-01T19:59:46Z</time>
  <course>184.61</course>
  <speed>0.31</speed>
  <fix>3d</fix>
</trkpt>
<trkpt lat="-35.2850519" lon="148.986044">
  <ele>700.3</ele>
  <time>2026-09-01T19:59:46Z</time>
  <course>3.1</course>
  <speed>0.33</speed>
  <fix>3d</fix>
</trkpt>
<trkpt lat="-35.2850511" lon="148.986044">
  <ele>700.2</ele>
  <time>2026-09-01T19:59:46Z</time>
  <course>184.56</course>
  <speed>0.3</speed>
  <fix>3d</fix>
</trkpt>
<trkpt lat="-35.2850519" lon="148.986044">
  <ele>700.3</ele>
  <time>2026-09-01T19:59:46Z</time>
  <course>3.1</course>
  <speed>0.33</speed>
  <fix>3d</fix>
</trkpt>
<trkpt lat="-35.2850509" lon="148.986044">
  <ele>700.2</ele>
  <time>2026-09-01T19:59:46Z</time>
  <course>184.48</course>
  <speed>0.28</speed>
  <fix>3d</fix>
</trkpt>
<trkpt lat="-35.2850514" lon="148.9860441">
  <ele>700.3</ele>
  <time>2026-09-01T19:59:46Z</time>
  <course>4.08</course>
  <speed>0.3</speed>
  <fix>3d</fix>
</trkpt>
<trkpt lat="-35.2850506" lon="148.986044">
  <ele>700.2</ele>
  <time>2026-09-01T19:59:46Z</time>
  <course>184.39</course>
  <speed>0.27</speed>
  <fix>3d</fix>
</trkpt>
<trkpt lat="-35.2850514" lon="148.9860441">
  <ele>700.3</ele>
  <time>2026-09-01T19:59:46Z</time>
  <course>4.08</course>
  <speed>0.3</speed>
  <fix>3d</fix>
</trkpt>
<trkpt lat="-35.2850504" lon="148.986044">
  <ele>700.2</ele>
  <time>2026-09-01T19:59:46Z</time>
  <course>184.31</course>
  <speed>0.25</speed>
  <fix>3d</fix>
</trkpt>
<trkpt lat="-35.2850509" lon="148.9860441">
  <ele>700.3</ele>
  <time>2026-09-01T19:59:46Z</time>
  <course>4.52</course>
  <speed>0.27</speed>
  <fix>3d</fix>
</trkpt>
<trkpt lat="-35.2850502" lon="148.986044">
  <ele>700.2</ele>
  <time>2026-09-01T19:59:46Z</time>
  <course>184.26</course>
  <speed>0.24</speed>
  <fix>3d</fix>
</trkpt>
<trkpt lat="-35.2850509" lon="148.9860441">
  <ele>700.3</ele>
  <time>2026-09-01T19:59:46Z</time>
  <course>4.52</course>
  <speed>0.27</speed>
  <fix>3d</fix>
</trkpt>
<trkpt lat="-35.28505" lon="148.986044">
  <ele>700.2</ele>
  <time>2026-09-01T19:59:46Z</time>
  <course>184.23</course>
  <speed>0.22</speed>
  <fix>3d</fix>
</trkpt>
<trkpt lat="-35.2850504" lon="148.9860442">
  <ele>700.3</ele>
  <time>2026-09-01T19:59:46Z</time>
  <course>5.01</course>
  <speed>0.24</speed>
  <fix>3d</fix>
</trkpt>
<trkpt lat="-35.2850498" lon="148.986044">
  <ele>700.2</ele>
  <time>2026-09-01T19:59:46Z</time>
  <course>184.22</course>
  <speed>0.21</speed>
  <fix>3d</fix>
</trkpt>
<trkpt lat="-35.2850504" lon="148.9860442">
  <ele>700.3</ele>
  <time>2026-09-01T19:59:46Z</time>
  <course>5.01</course>
  <speed>0.24</speed>
  <fix>3d</fix>
</trkpt>
<trkpt lat="-35.2850496" lon="148.986044">
  <ele>700.2</ele>
  <time>2026-09-01T19:59:46Z</time>
  <course>184.24</course>
  <speed>0.19</speed>
  <fix>3d</fix>
</trkpt>
<trkpt lat="-35.28505" lon="148.9860443">
  <ele>700.3</ele>
  <time>2026-09-01T19:59:46Z</time>
  <course>5.97</course>
  <speed>0.21</speed>
  <fix>3d</fix>
</trkpt>
<trkpt lat="-35.2850495" lon="148.986044">
  <ele>700.2</ele>
  <time>2026-09-01T19:59:46Z</time>
  <course>184.27</course>
  <speed>0.17</speed>
  <fix>3d</fix>
</trkpt>
<trkpt lat="-35.28505" lon="148.9860443">
  <ele>700.3</ele>
  <time>2026-09-01T19:59:46Z</time>
  <course>5.97</course>
  <speed>0.21</speed>
  <fix>3d</fix>
</trkpt>
<trkpt lat="-35.2850493" lon="148.986044">
  <ele>700.2</ele>
  <time>2026-09-01T19:59:46Z</time>
  <course>184.32</course>
  <speed>0.16</speed>
  <fix>3d</fix>
</trkpt>
<trkpt lat="-35.2850496" lon="148.9860443">
  <ele>700.31</ele>
  <time>2026-09-01T19:59:46Z</time>
  <course>7.4</course>
  <speed>0.18</speed>
  <fix>3d</fix>
</trkpt>
<trkpt lat="-35.2850492" lon="148.986044">
  <ele>700.2</ele>
  <time>2026-09-01T19:59:46Z</time>
  <course>184.37</course>
  <speed>0.14</speed>
  <fix>3d</fix>
</trkpt>
<trkpt lat="-35.2850496" lon="148.9860443">
  <ele>700.31</ele>
  <time>2026-09-01T19:59:46Z</time>
  <course>7.4</course>
  <speed>0.18</speed>
  <fix>3d</fix>
</trkpt>
<trkpt lat="-35.2850491" lon="148.9860441">
  <ele>700.2</ele>
  <time>2026-09-01T19:59:46Z</time>
  <course>184.41</course>
  <speed>0.13</speed>
  <fix>3d</fix>
</trkpt>
<trkpt lat="-35.2850494" lon="148.9860444">
  <ele>700.31</ele>
  <time>2026-09-01T19:59:46Z</time>
  <course>9.46</course>
  <speed>0.14</speed>
  <fix>3d</fix>
</trkpt>
<trkpt lat="-35.285049" lon="148.9860441">
  <ele>700.2</ele>
  <time>2026-09-01T19:59:46Z</time>
  <course>184.45</course>
  <speed>0.11</speed>
  <fix>3d</fix>
</trkpt>
<trkpt lat="-35.2850494" lon="148.9860444">
  <ele>700.31</ele>
  <time>2026-09-01T19:59:46Z</time>
  <course>9.46</course>
  <speed>0.14</speed>
  <fix>3d</fix>
</trkpt>
<trkpt lat="-35.2850489" lon="148.9860441">
  <ele>700.2</ele>
  <time>2026-09-01T19:59:46Z</time>
  <course>184.47</course>
  <speed>0.09</speed>
  <fix>3d</fix>
</trkpt>
<trkpt lat="-35.2850492" lon="148.9860444">
  <ele>700.31</ele>
  <time>2026-09-01T19:59:46Z</time>
  <course>12.57</course>
  <speed>0.11</speed>
  <fix>3d</fix>
</trkpt>
<trkpt lat="-35.2850488" lon="148.9860442">
  <ele>700.2</ele>
  <time>2026-09-01T19:59:46Z</time>
  <course>184.48</course>
  <speed>0.07</speed>
  <fix>3d</fix>
</trkpt>
<trkpt lat="-35.2850492" lon="148.9860444">
  <ele>700.31</ele>
  <time>2026-09-01T19:59:46Z</time>
  <course>12.57</course>
  <speed>0.11</speed>
  <fix>3d</fix>
</trkpt>
<trkpt lat="-35.2850488" lon="148.9860442">
  <ele>700.2</ele>
  <time>2026-09-01T19:59:46Z</time>
  <course>184.47</course>
  <speed>0.06</speed>
  <fix>3d</fix>
</trkpt>
<trkpt lat="-35.285049" lon="148.9860445">
  <ele>700.31</ele>
  <time>2026-09-01T19:59:46Z</time>
  <course>18.0</course>
  <speed>0.08</speed>
  <fix>3d</fix>
</trkpt>
<trkpt lat="-35.2850488" lon="148.9860442">
  <ele>700.2</ele>
  <time>2026-09-01T19:59:46Z</time>
  <course>184.46</course>
  <speed>0.04</speed>
  <fix>3d</fix>
</trkpt>
<trkpt lat="-35.285049" lon="148.9860445">
  <ele>700.31</ele>
  <time>2026-09-01T19:59:46Z</time>
  <course>18.0</course>
  <speed>0.08</speed>
  <fix>3d</fix>
</trkpt>
<trkpt lat="-35.2850487" lon="148.9860442">
  <ele>700.21</ele>
  <time>2026-09-01T19:59:46Z</time>
  <course>184.45</course>
  <speed>0.02</speed>
  <fix>3d</fix>
</trkpt>
<trkpt lat="-35.2850488" lon="148.9860445">
  <ele>700.31</ele>
  <time>2026-09-01T19:59:46Z</time>
  <course>31.45</course>
  <speed>0.04</speed>
  <fix>3d</fix>
</trkpt>
<trkpt lat="-35.2850487" lon="148.9860443">
  <ele>700.21</ele>
  <time>2026-09-01T19:59:46Z</time>
  <course>184.44</course>
  <speed>0.01</speed>
  <fix>3d</fix>
</trkpt>
<trkpt lat="-35.2850488" lon="148.9860445">
  <ele>700.31</ele>
  <time>2026-09-01T19:59:46Z</time>
  <course>31.45</course>
  <speed>0.04</speed>
  <fix>3d</fix>
</trkpt>
<trkpt lat="-35.2850488" lon="148.9860443">
  <ele>700.2</ele>
  <time>2026-09-01T19:59:46Z</time>
  <course>184.43</course>
  <speed>0.0</speed>
  <fix>3d</fix>
</trkpt>
<trkpt lat="-35.2850488" lon="148.9860445">
  <ele>700.31</ele>
  <time>2026-09-01T19:59:46Z</time>
  <course>76.31</course>
  <speed>0.02</speed>
  <fix>3d</fix>
</trkpt>
<trkpt lat="-35.2850488" lon="148.9860443">
  <ele>700.2</ele>
  <time>2026-09-01T19:59:46Z</time>
  <course>184.43</course>
  <speed>0.02</speed>
  <fix>3d</fix>
</trkpt>
<trkpt lat="-35.2850488" lon="148.9860445">
  <ele>700.31</ele>
  <time>2026-09-01T19:59:46Z</time>
  <course>76.31</course>
  <speed>0.02</speed>
  <fix>3d</fix>
</trkpt>
<trkpt lat="-35.2850488" lon="148.9860443">
  <ele>700.2</ele>
  <time>2026-09-01T19:59:46Z</time>
  <course>184.43</course>
  <speed>0.03</speed>
  <fix>3d</fix>
</trkpt>
<trkpt lat="-35.2850488" lon="148.9860446">
  <ele>700.32</ele>
  <time>2026-09-01T19:59:46Z</time>
  <course>137.01</course>
  <speed>0.03</speed>
  <fix>3d</fix>
</trkpt>
<trkpt lat="-35.2850488" lon="148.9860443">
  <ele>700.2</ele>
  <time>2026-09-01T19:59:46Z</time>
  <course>184.43</course>
  <speed>0.05</speed>
  <fix>3d</fix>
</trkpt>
<trkpt lat="-35.2850488" lon="148.9860446">
  <ele>700.32</ele>
  <time>2026-09-01T19:59:46Z</time>
  <course>137.01</course>
  <speed>0.03</speed>
  <fix>3d</fix>
</trkpt>
<trkpt lat="-35.2850488" lon="148.9860444">
  <ele>700.2</ele>
  <time>2026-09-01T19:59:46Z</time>
  <course>184.44</course>
  <speed>0.06</speed>
  <fix>3d</fix>
</trkpt>
<trkpt lat="-35.2850489" lon="148.9860446">
  <ele>700.32</ele>
  <time>2026-09-01T19:59:46Z</time>
  <course>157.62</course>
  <speed>0.06</speed>
  <fix>3d</fix>
</trkpt>
<trkpt lat="-35.2850489" lon="148.9860444">
  <ele>700.2</ele>
  <time>2026-09-01T19:59:46Z</time>
  <course>184.44</course>
  <speed>0.07</speed>
  <fix>3d</fix>
</trkpt>
<trkpt lat="-35.2850489" lon="148.9860446">
  <ele>700.32</ele>
  <time>2026-09-01T19:59:46Z</time>
  <course>157.62</course>
  <speed>0.06</speed>
  <fix>3d</fix>
</trkpt>
<trkpt lat="-35.285049" lon="148.9860444">
  <ele>700.2</ele>
  <time>2026-09-01T19:59:46Z</time>
  <course>184.44</course>
  <speed>0.09</speed>
  <fix>3d</fix>
</trkpt>
<trkpt lat="-35.285049" lon="148.9860447">
  <ele>700.32</ele>
  <time>2026-09-01T19:59:46Z</time>
  <course>165.96</course>
  <speed>0.09</speed>
  <fix>3d</fix>
</trkpt>
<trkpt lat="-35.2850491" lon="148.9860444">
  <ele>700.2</ele>
  <time>2026-09-01T19:59:46Z</time>
  <course>184.44</course>
  <speed>0.1004987562112089</speed>
  <fix>3d</fix>
</trkpt>
<trkpt lat="-35.285049" lon="148.9860447">
  <ele>700.32</ele>
  <time>2026-09-01T19:59:46Z</time>
  <course>165.96</course>
  <speed>0.09</speed>
  <fix>3d</fix>
</trkpt>
<trkpt lat="-35.2850492" lon="148.9860444">
  <ele>700.2</ele>
  <time>2026-09-01T19:59:46Z</time>
  <course>184.43</course>
  <speed>0.11045361017187261</speed>
  <fix>3d</fix>
</trkpt>
<trkpt lat="-35.2850492" lon="148.9860448">
  <ele>700.32</ele>
  <time>2026-09-01T19:59:46Z</time>
  <course>170.45</course>
  <speed>0.11</speed>
  <fix>3d</fix>
</trkpt>
<trkpt lat="-35.2850493" lon="148.9860445">
  <ele>700.2</ele>
  <time>2026-09-01T19:59:46Z</time>
  <course>184.43</course>
  <speed>0.12041594578792296</speed>
  <fix>3d</fix>
</trkpt>
<trkpt lat="-35.2850492" lon="148.9860448">
  <ele>700.32</ele>
  <time>2026-09-01T19:59:46Z</time>
  <course>170.45</course>
  <speed>0.11</speed>
  <fix>3d</fix>
</trkpt>
<trkpt lat="-35.2850495" lon="148.9860445">
  <ele>700.2</ele>
  <time>2026-09-01T19:59:46Z</time>
  <course>184.43</course>
  <speed>0.130384048104053</speed>
  <fix>3d</fix>
</trkpt>
<trkpt lat="-35.2850494" lon="148.9860448">
  <ele>700.32</ele>
  <time>2026-09-01T19:59:46Z</time>
  <course>173.11</course>
  <speed>0.14</speed>
  <fix>3d</fix>
</trkpt>
<trkpt lat="-35.2850496" lon="148.9860445">
  <ele>700.2</ele>
  <time>2026-09-01T19:59:46Z</time>
  <course>184.43</course>
  <speed>0.140356688476182</speed>
  <fix>3d</fix>
</trkpt>
<trkpt lat="-35.2850494" lon="148.9860448">
  <ele>700.32</ele>
  <time>2026-09-01T19:59:46Z</time>
  <course>173.11</course>
  <speed>0.14</speed>
  <fix>3d</fix>
</trkpt>
<trkpt lat="-35.2850498" lon="148.9860445">
  <ele>700.2</ele>
  <time>2026-09-01T19:59:46Z</time>
  <course>184.42</course>
  <speed>0.15033296378372907</speed>
  <fix>3d</fix>
</trkpt>
<trkpt lat="-35.2850496" lon="148.9860449">
  <ele>700.32</ele>
  <time>2026-09-01T19:59:46Z</time>
  <course>174.79</course>
  <speed>0.16</speed>
  <fix>3d</fix>
</trkpt>
<trkpt lat="-35.2850499" lon="148.9860445">
  <ele>700.2</ele>
  <time>2026-09-01T19:59:46Z</time>
  <course>184.42</course>
  <speed>0.15033296378372907</speed>
  <fix>3d</fix>
</trkpt>
<trkpt lat="-35.2850496" lon="148.9860449">
  <ele>700.32</ele>
  <time>2026-09-01T19:59:46Z</time>
  <course>174.79</course>
  <speed>0.16</speed>
  <fix>3d</fix>
</trkpt>
<trkpt lat="-35.2850501" lon="148.9860445">
  <ele>700.2</ele>
  <time>2026-09-01T19:59:46Z</time>
  <course>184.42</course>
  <speed>0.16031219541881397</speed>
  <fix>3d</fix>
</trkpt>
<trkpt lat="-35.2850499" lon="148.9860449">
  <ele>700.32</ele>
  <time>2026-09-01T19:59:46Z</time>
  <course>176.05</course>
  <speed>0.17</speed>
  <fix>3d</fix>
</trkpt>
<trkpt lat="-35.2850502" lon="148.9860445">
  <ele>700.21</ele>
  <time>2026-09-01T19:59:46Z</time>
  <course>184.42</course>
  <speed>0.16031219541881397</speed>
  <fix>3d</fix>
</trkpt>
<trkpt lat="-35.2850499" lon="148.9860449">
  <ele>700.32</ele>
  <time>2026-09-01T19:59:46Z</time>
  <course>176.05</course>
  <speed>0.17</speed>
  <fix>3d</fix>
</trkpt>
<trkpt lat="-35.2850504" lon="148.9860446">
  <ele>700.21</ele>
  <time>2026-09-01T19:59:46Z</time>
  <course>184.43</course>
  <speed>0.16124515496597097</speed>
  <fix>3d</fix>
</trkpt>
<trkpt lat="-35.2850502" lon="148.9860449">
  <ele>700.32</ele>
  <time>2026-09-01T19:59:46Z</time>
  <course>177.25</course>
  <speed>0.19</speed>
  <fix>3d</fix>
</trkpt>
<trkpt lat="-35.2850506" lon="148.9860446">
  <ele>700.21</ele>
  <time>2026-09-01T19:59:46Z</time>
  <course>184.43</course>
  <speed>0.1711724276862369</speed>
  <fix>3d</fix>
</trkpt>
<trkpt lat="-35.2850502" lon="148.9860449">
  <ele>700.32</ele>
  <time>2026-09-01T19:59:46Z</time>
  <course>177.25</course>
  <speed>0.19</speed>
  <fix>3d</fix>
</trkpt>
<trkpt lat="-35.2850507" lon="148.9860446">
  <ele>700.21</ele>
  <time>2026-09-01T19:59:46Z</time>
  <course>184.42</course>
  <speed>0.1711724276862369</speed>
  <fix>3d</fix>
</trkpt>
<trkpt lat="-35.2850506" lon="148.986045">
  <ele>700.33</ele>
  <time>2026-09-01T19:59:46Z</time>
  <course>178.47</course>
  <speed>0.19</speed>
  <fix>3d</fix>
</trkpt>
<trkpt lat="-35.2850509" lon="148.9860446">
  <ele>700.21</ele>
  <time>2026-09-01T19:59:46Z</time>
  <course>184.42</course>
  <speed>0.1711724276862369</speed>
  <fix>3d</fix>
</trkpt>
<trkpt lat="-35.2850506" lon="148.986045">
  <ele>700.33</ele>
  <time>2026-09-01T19:59:46Z</time>
  <course>178.47</course>
  <speed>0.19</speed>
  <fix>3d</fix>
</trkpt>
<trkpt lat="-35.2850511" lon="148.9860446">
  <ele>700.21</ele>
  <time>2026-09-01T19:59:46Z</time>
  <course>184.42</course>
  <speed>0.1711724276862369</speed>
  <fix>3d</fix>
</trkpt>
<trkpt lat="-35.2850509" lon="148.986045">
  <ele>700.33</ele>
  <time>2026-09-01T19:59:46Z</time>
  <course>179.66</course>
  <speed>0.2</speed>
  <fix>3d</fix>
</trkpt>
<trkpt lat="-35.2850512" lon="148.9860446">
  <ele>700.21</ele>
  <time>2026-09-01T19:59:46Z</time>
  <course>184.41</course>
  <speed>0.1711724276862369</speed>
  <fix>3d</fix>
</trkpt>
<trkpt lat="-35.2850509" lon="148.986045">
  <ele>700.33</ele>
  <time>2026-09-01T19:59:46Z</time>
  <course>179.66</course>
  <speed>0.2</speed>
  <fix>3d</fix>
</trkpt>
<trkpt lat="-35.2850514" lon="148.9860446">
  <ele>700.21</ele>
  <time>2026-09-01T19:59:46Z</time>
  <course>184.42</course>
  <speed>0.1711724276862369</speed>
  <fix>3d</fix>
</trkpt>
<trkpt lat="-35.2850514" lon="148.986045">
  <ele>700.33</ele>
  <time>2026-09-01T19:59:46Z</time>
  <course>180.75</course>
  <speed>0.2</speed>
  <fix>3d</fix>
</trkpt>
<trkpt lat="-35.2850516" lon="148.9860446">
  <ele>700.21</ele>
  <time>2026-09-01T19:59:46Z</time>
  <course>184.42</course>
  <speed>0.16278820596099705</speed>
  <fix>3d</fix>
</trkpt>
<trkpt lat="-35.2850514" lon="148.986045">
  <ele>700.33</ele>
  <time>2026-09-01T19:59:46Z</time>
  <course>180.75</course>
  <speed>0.2</speed>
  <fix>3d</fix>
</trkpt>
<trkpt lat="-35.2850518" lon="148.9860446">
  <ele>700.2</ele>
  <time>2026-09-01T19:59:46Z</time>
  <course>184.43</course>
  <speed>0.16278820596099705</speed>
  <fix>3d</fix>
</trkpt>
<trkpt lat="-35.2850517" lon="148.9860449">
  <ele>700.33</ele>
  <time>2026-09-01T19:59:46Z</time>
  <course>181.88</course>
  <speed>0.2</speed>
  <fix>3d</fix>
</trkpt>
<trkpt lat="-35.2850519" lon="148.9860446">
  <ele>700.2</ele>
  <time>2026-09-01T19:59:46Z</time>
  <course>184.43</course>
  <speed>0.16278820596099705</speed>
  <fix>3d</fix>
</trkpt>
<trkpt lat="-35.2850517" lon="148.9860449">
  <ele>700.33</ele>
  <time>2026-09-01T19:59:46Z</time>
  <course>181.88</course>
  <speed>0.2</speed>
  <fix>3d</fix>
</trkpt>
<trkpt lat="-35.2850521" lon="148.9860446">
  <ele>700.2</ele>
  <time>2026-09-01T19:59:46Z</time>
  <course>184.43</course>
  <speed>0.15297058540778355</speed>
  <fix>3d</fix>
</trkpt>
<trkpt lat="-35.2850521" lon="148.9860449">
  <ele>700.33</ele>
  <time>2026-09-01T19:59:46Z</time>
  <course>183.19</course>
  <speed>0.19</speed>
  <fix>3d</fix>
</trkpt>
<trkpt lat="-35.2850523" lon="148.9860446">
  <ele>700.2</ele>
  <time>2026-09-01T19:59:46Z</time>
  <course>184.44</course>
  <speed>0.15524174696260024</speed>
  <fix>3d</fix>
</trkpt>
<trkpt lat="-35.2850521" lon="148.9860449">
  <ele>700.33</ele>
  <time>2026-09-01T19:59:46Z</time>
  <course>183.19</course>
  <speed>0.19</speed>
  <fix>3d</fix>
</trkpt>
<trkpt lat="-35.2850524" lon="148.9860446">
  <ele>700.2</ele>
  <time>2026-09-01T19:59:46Z</time>
  <course>184.43</course>
  <speed>0.14560219778561037</speed>
  <fix>3d</fix>
</trkpt>
<trkpt lat="-35.2850525" lon="148.9860449">
  <ele>700.33</ele>
  <time>2026-09-01T19:59:46Z</time>
  <course>184.72</course>
  <speed>0.19</speed>
  <fix>3d</fix>
</trkpt>
<trkpt lat="-35.2850526" lon="148.9860446">
  <ele>700.2</ele>
  <time>2026-09-01T19:59:46Z</time>
  <course>184.43</course>
  <speed>0.13601470508735444</speed>
  <fix>3d</fix>
</trkpt>
<trkpt lat="-35.2850525" lon="148.9860449">
  <ele>700.33</ele>
  <time>2026-09-01T19:59:46Z</time>
  <course>184.72</course>
  <speed>0.19</speed>
  <fix>3d</fix>
</trkpt>
<trkpt lat="-35.2850527" lon="148.9860446">
  <ele>700.2</ele>
  <time>2026-09-01T19:59:46Z</time>
  <course>184.42</course>
  <speed>0.1264911064067352</speed>
  <fix>3d</fix>
</trkpt>
<trkpt lat="-35.2850528" lon="148.9860449">
  <ele>700.33</ele>
  <time>2026-09-01T19:59:46Z</time>
  <course>186.39</course>
  <speed>0.17</speed>
  <fix>3d</fix>
</trkpt>
<trkpt lat="-35.2850529" lon="148.9860446">
  <ele>700.2</ele>
  <time>2026-09-01T19:59:46Z</time>
  <course>184.41</course>
  <speed>0.11704699910719625</speed>
  <fix>3d</fix>
</trkpt>
<trkpt lat="-35.2850528" lon="148.9860449">
  <ele>700.33</ele>
  <time>2026-09-01T19:59:46Z</time>
  <course>186.39</course>
  <speed>0.17</speed>
  <fix>3d</fix>
</trkpt>
<trkpt lat="-35.285053" lon="148.9860446">
  <ele>700.21</ele>
  <time>2026-09-01T19:59:46Z</time>
  <course>184.41</course>
  <speed>0.10770329614269007</speed>
  <fix>3d</fix>
</trkpt>
<trkpt lat="-35.2850531" lon="148.9860449">
  <ele>700.33</ele>
  <time>2026-09-01T19:59:46Z</time>
  <course>188.25</course>
  <speed>0.16</speed>
  <fix>3d</fix>
</trkpt>
<trkpt lat="-35.2850531" lon="148.9860445">
  <ele>700.21</ele>
  <time>2026-09-01T19:59:46Z</time>
  <course>184.41</course>
  <speed>0.09848857801796104</speed>
  <fix>3d</fix>
</trkpt>
<trkpt lat="-35.2850531" lon="148.9860449">
  <ele>700.33</ele>
  <time>2026-09-01T19:59:46Z</time>
  <course>188.25</course>
  <speed>0.16</speed>
  <fix>3d</fix>
</trkpt>
<trkpt lat="-35.2850532" lon="148.9860445">
  <ele>700.21</ele>
  <time>2026-09-01T19:59:46Z</time>
  <course>184.41</course>
  <speed>0.08944271909999159</speed>
  <fix>3d</fix>
</trkpt>
<trkpt lat="-35.2850533" lon="148.9860448">
  <ele>700.33</ele>
  <time>2026-09-01T19:59:46Z</time>
  <course>190.56</course>
  <speed>0.14</speed>
  <fix>3d</fix>
</trkpt>
<trkpt lat="-35.2850533" lon="148.9860445">
  <ele>700.21</ele>
  <time>2026-09-01T19:59:46Z</time>
  <course>184.42</course>
  <speed>0.08062257748298549</speed>
  <fix>3d</fix>
</trkpt>
<trkpt lat="-35.2850533" lon="148.9860448">
  <ele>700.33</ele>
  <time>2026-09-01T19:59:46Z</time>
  <course>190.56</course>
  <speed>0.14</speed>
  <fix>3d</fix>
</trkpt>
<trkpt lat="-35.2850534" lon="148.9860445">
  <ele>700.22</ele>
  <time>2026-09-01T19:59:46Z</time>
  <course>184.42</course>
  <speed>0.07211102550927978</speed>
  <fix>3d</fix>
</trkpt>
<trkpt lat="-35.2850536" lon="148.9860448">
  <ele>700.33</ele>
  <time>2026-09-01T19:59:46Z</time>
  <course>193.45</course>
  <speed>0.12</speed>
  <fix>3d</fix>
</trkpt>
<trkpt lat="-35.2850535" lon="148.9860444">
  <ele>700.22</ele>
  <time>2026-09-01T19:59:46Z</time>
  <course>184.43</course>
  <speed>0.06403124237432849</speed>
  <fix>3d</fix>
</trkpt>
<trkpt lat="-35.2850536" lon="148.9860448">
  <ele>700.33</ele>
  <time>2026-09-01T19:59:46Z</time>
  <course>193.45</course>
  <speed>0.12</speed>
  <fix>3d</fix>
</trkpt>
<trkpt lat="-35.2850536" lon="148.9860444">
  <ele>700.22</ele>
  <time>2026-09-01T19:59:46Z</time>
  <course>184.43</course>
  <speed>0.0565685424949238</speed>
  <fix>3d</fix>
</trkpt>
<trkpt lat="-35.2850538" lon="148.9860447">
  <ele>700.34</ele>
  <time>2026-09-01T19:59:46Z</time>
  <course>197.1</course>
  <speed>0.1</speed>
  <fix>3d</fix>
</trkpt>
<trkpt lat="-35.2850537" lon="148.9860444">
  <ele>700.22</ele>
  <time>2026-09-01T19:59:47Z</time>
  <course>184.42</course>
  <speed>0.05</speed>
  <fix>3d</fix>
</trkpt>
<trkpt lat="-35.2850538" lon="148.9860447">
  <ele>700.34</ele>
  <time>2026-09-01T19:59:47Z</time>
  <course>197.1</course>
  <speed>0.1</speed>
  <fix>3d</fix>
</trkpt>
<trkpt lat="-35.2850537" lon="148.9860444">
  <ele>700.22</ele>
  <time>2026-09-01T19:59:47Z</time>
  <course>184.42</course>
  <speed>0.044721359549995794</speed>
  <fix>3d</fix>
</trkpt>
<trkpt lat="-35.2850539" lon="148.9860446">
  <ele>700.34</ele>
  <time>2026-09-01T19:59:47Z</time>
  <course>202.42</course>
  <speed>0.08</speed>
  <fix>3d</fix>
</trkpt>
<trkpt lat="-35.2850537" lon="148.9860443">
  <ele>700.22</ele>
  <time>2026-09-01T19:59:47Z</time>
  <course>184.41</course>
  <speed>0.04</speed>
  <fix>3d</fix>
</trkpt>
<trkpt lat="-35.2850539" lon="148.9860446">
  <ele>700.34</ele>
  <time>2026-09-01T19:59:47Z</time>
  <course>202.42</course>
  <speed>0.08</speed>
  <fix>3d</fix>
</trkpt>
<trkpt lat="-35.2850538" lon="148.9860443">
  <ele>700.22</ele>
  <time>2026-09-01T19:59:47Z</time>
  <course>184.41</course>
  <speed>0.04</speed>
  <fix>3d</fix>
</trkpt>
<trkpt lat="-35.285054" lon="148.9860445">
  <ele>700.34</ele>
  <time>2026-09-01T19:59:47Z</time>
  <course>211.1</course>
  <speed>0.05</speed>
  <fix>3d</fix>
</trkpt>
<trkpt lat="-35.2850538" lon="148.9860443">
  <ele>700.22</ele>
  <time>2026-09-01T19:59:47Z</time>
  <course>184.41</course>
  <speed>0.0412310562561766</speed>
  <fix>3d</fix>
</trkpt>
<trkpt lat="-35.285054" lon="148.9860445">
  <ele>700.34</ele>
  <time>2026-09-01T19:59:47Z</time>
  <course>211.1</course>
  <speed>0.05</speed>
  <fix>3d</fix>
</trkpt>
<trkpt lat="-35.2850538" lon="148.9860442">
  <ele>700.23</ele>
  <time>2026-09-01T19:59:47Z</time>
  <course>184.41</course>
  <speed>0.044721359549995794</speed>
  <fix>3d</fix>
</trkpt>
<trkpt lat="-35.2850541" lon="148.9860445">
  <ele>700.33</ele>
  <time>2026-09-01T19:59:47Z</time>
  <course>226.77</course>
  <speed>0.04</speed>
  <fix>3d</fix>
</trkpt>
<trkpt lat="-35.2850538" lon="148.9860442">
  <ele>700.23</ele>
  <time>2026-09-01T19:59:47Z</time>
  <course>184.41</course>
  <speed>0.05</speed>
  <fix>3d</fix>
</trkpt>
<trkpt lat="-35.2850541" lon="148.9860445">
  <ele>700.33</ele>
  <time>2026-09-01T19:59:47Z</time>
  <course>226.77</course>
  <speed>0.04</speed>
  <fix>3d</fix>
</trkpt>
<trkpt lat="-35.2850538" lon="148.9860442">
  <ele>700.23</ele>
  <time>2026-09-01T19:59:47Z</time>
  <course>184.42</course>
  <speed>0.0565685424949238</speed>
  <fix>3d</fix>
</trkpt>
<trkpt lat="-35.2850542" lon="148.9860444">
  <ele>700.33</ele>
  <time>2026-09-01T19:59:47Z</time>
  <course>257.26</course>
  <speed>0.02</speed>
  <fix>3d</fix>
</trkpt>
<trkpt lat="-35.2850538" lon="148.9860442">
  <ele>700.23</ele>
  <time>2026-09-01T19:59:47Z</time>
  <course>184.42</course>
  <speed>0.06403124237432849</speed>
  <fix>3d</fix>
</trkpt>
<trkpt lat="-35.2850542" lon="148.9860444">
  <ele>700.33</ele>
  <time>2026-09-01T19:59:47Z</time>
  <course>257.26</course>
  <speed>0.02</speed>
  <fix>3d</fix>
</trkpt>
<trkpt lat="-35.2850538" lon="148.9860441">
  <ele>700.23</ele>
  <time>2026-09-01T19:59:47Z</time>
  <course>184.43</course>
  <speed>0.07211102550927978</speed>
  <fix>3d</fix>
</trkpt>
<trkpt lat="-35.2850542" lon="148.9860444">
  <ele>700.33</ele>
  <time>2026-09-01T19:59:47Z</time>
  <course>297.02</course>
  <speed>0.03</speed>
  <fix>3d</fix>
</trkpt>
<trkpt lat="-35.2850538" lon="148.9860441">
  <ele>700.23</ele>
  <time>2026-09-01T19:59:47Z</time>
  <course>184.43</course>
  <speed>0.07211102550927978</speed>
  <fix>3d</fix>
</trkpt>
<trkpt lat="-35.2850542" lon="148.9860444">
  <ele>700.33</ele>
  <time>2026-09-01T19:59:47Z</time>
  <course>297.02</course>
  <speed>0.03</speed>
  <fix>3d</fix>
</trkpt>
<trkpt lat="-35.2850538" lon="148.9860441">
  <ele>700.23</ele>
  <time>2026-09-01T19:59:47Z</time>
  <course>184.43</course>
  <speed>0.08062257748298549</speed>
  <fix>3d</fix>
</trkpt>
<trkpt lat="-35.2850542" lon="148.9860443">
  <ele>700.32</ele>
  <time>2026-09-01T19:59:47Z</time>
  <course>321.98</course>
  <speed>0.04</speed>
  <fix>3d</fix>
</trkpt>
<trkpt lat="-35.2850538" lon="148.9860441">
  <ele>700.23</ele>
  <time>2026-09-01T19:59:47Z</time>
  <course>184.42</course>
  <speed>0.0854400374531753</speed>
  <fix>3d</fix>
</trkpt>
<trkpt lat="-35.2850542" lon="148.9860443">
  <ele>700.32</ele>
  <time>2026-09-01T19:59:47Z</time>
  <course>321.98</course>
  <speed>0.04</speed>
  <fix>3d</fix>
</trkpt>
<trkpt lat="-35.2850537" lon="148.986044">
  <ele>700.22</ele>
  <time>2026-09-01T19:59:47Z</time>
  <course>184.41</course>
  <speed>0.09486832980505139</speed>
  <fix>3d</fix>
</trkpt>
<trkpt lat="-35.2850541" lon="148.9860443">
  <ele>700.32</ele>
  <time>2026-09-01T19:59:47Z</time>
  <course>334.75</course>
  <speed>0.05</speed>
  <fix>3d</fix>
</trkpt>
<trkpt lat="-35.2850537" lon="148.986044">
  <ele>700.22</ele>
  <time>2026-09-01T19:59:47Z</time>
  <course>184.4</course>
  <speed>0.09486832980505139</speed>
  <fix>3d</fix>
</trkpt>
<trkpt lat="-35.2850541" lon="148.9860443">
  <ele>700.32</ele>
  <time>2026-09-01T19:59:47Z</time>
  <course>334.75</course>
  <speed>0.05</speed>
  <fix>3d</fix>
</trkpt>
<trkpt lat="-35.2850536" lon="148.986044">
  <ele>700.22</ele>
  <time>2026-09-01T19:59:47Z</time>
  <course>184.4</course>
  <speed>0.1044030650891055</speed>
  <fix>3d</fix>
</trkpt>
<trkpt lat="-35.285054" lon="148.9860442">
  <ele>700.31</ele>
  <time>2026-09-01T19:59:47Z</time>
  <course>341.8</course>
  <speed>0.06</speed>
  <fix>3d</fix>
</trkpt>
<trkpt lat="-35.2850536" lon="148.986044">
  <ele>700.22</ele>
  <time>2026-09-01T19:59:47Z</time>
  <course>184.39</course>
  <speed>0.1044030650891055</speed>
  <fix>3d</fix>
</trkpt>
<trkpt lat="-35.285054" lon="148.9860442">
  <ele>700.31</ele>
  <time>2026-09-01T19:59:47Z</time>
  <course>341.8</course>
  <speed>0.06</speed>
  <fix>3d</fix>
</trkpt>
<trkpt lat="-35.2850535" lon="148.986044">
  <ele>700.22</ele>
  <time>2026-09-01T19:59:47Z</time>
  <course>184.39</course>
  <speed>0.1044030650891055</speed>
  <fix>3d</fix>
</trkpt>
<trkpt lat="-35.2850539" lon="148.9860441">
  <ele>700.31</ele>
  <time>2026-09-01T19:59:47Z</time>
  <course>345.94</course>
  <speed>0.08</speed>
  <fix>3d</fix>
</trkpt>
<trkpt lat="-35.2850534" lon="148.9860439">
  <ele>700.21</ele>
  <time>2026-09-01T19:59:47Z</time>
  <course>184.4</course>
  <speed>0.11401754250991379</speed>
  <fix>3d</fix>
</trkpt>
<trkpt lat="-35.2850539" lon="148.9860441">
  <ele>700.31</ele>
  <time>2026-09-01T19:59:47Z</time>
  <course>345.94</course>
  <speed>0.08</speed>
  <fix>3d</fix>
</trkpt>
<trkpt lat="-35.2850534" lon="148.9860439">
  <ele>700.21</ele>
  <time>2026-09-01T19:59:47Z</time>
  <course>184.4</course>
  <speed>0.11401754250991379</speed>
  <fix>3d</fix>
</trkpt>
<trkpt lat="-35.2850538" lon="148.9860441">
  <ele>700.3</ele>
  <time>2026-09-01T19:59:47Z</time>
  <course>348.56</course>
  <speed>0.08</speed>
  <fix>3d</fix>
</trkpt>
<trkpt lat="-35.2850533" lon="148.9860439">
  <ele>700.21</ele>
  <time>2026-09-01T19:59:47Z</time>
  <course>184.41</course>
  <speed>0.11401754250991379</speed>
  <fix>3d</fix>
</trkpt>
<trkpt lat="-35.2850538" lon="148.9860441">
  <ele>700.3</ele>
  <time>2026-09-01T19:59:47Z</time>
  <course>348.56</course>
  <speed>0.08</speed>
  <fix>3d</fix>
</trkpt>
<trkpt lat="-35.2850532" lon="148.9860439">
  <ele>700.21</ele>
  <time>2026-09-01T19:59:47Z</time>
  <course>184.43</course>
  <speed>0.1118033988749895</speed>
  <fix>3d</fix>
</trkpt>
<trkpt lat="-35.2850536" lon="148.986044">
  <ele>700.3</ele>
  <time>2026-09-01T19:59:47Z</time>
  <course>350.83</course>
  <speed>0.09</speed>
  <fix>3d</fix>
</trkpt>
<trkpt lat="-35.2850531" lon="148.9860439">
  <ele>700.2</ele>
  <time>2026-09-01T19:59:47Z</time>
  <course>184.44</course>
  <speed>0.1118033988749895</speed>
  <fix>3d</fix>
</trkpt>
<trkpt lat="-35.2850536" lon="148.986044">
  <ele>700.3</ele>
  <time>2026-09-01T19:59:47Z</time>
  <course>350.83</course>
  <speed>0.09</speed>
  <fix>3d</fix>
</trkpt>
<trkpt lat="-35.2850531" lon="148.9860439">
  <ele>700.2</ele>
  <time>2026-09-01T19:59:47Z</time>
  <course>184.46</course>
  <speed>0.12165525060596438</speed>
  <fix>3d</fix>
</trkpt>
<trkpt lat="-35.2850534" lon="148.986044">
  <ele>700.3</ele>
  <time>2026-09-01T19:59:47Z</time>
  <course>353.38</course>
  <speed>0.09</speed>
  <fix>3d</fix>
</trkpt>
<trkpt lat="-35.285053" lon="148.9860439">
  <ele>700.2</ele>
  <time>2026-09-01T19:59:47Z</time>
  <course>184.47</course>
  <speed>0.12165525060596438</speed>
  <fix>3d</fix>
</trkpt>
<trkpt lat="-35.2850534" lon="148.986044">
  <ele>700.3</ele>
  <time>2026-09-01T19:59:47Z</time>
  <course>353.38</course>
  <speed>0.09</speed>
  <fix>3d</fix>
</trkpt>
<trkpt lat="-35.2850529" lon="148.9860439">
  <ele>700.2</ele>
  <time>2026-09-01T19:59:47Z</time>
  <course>184.48</course>
  <speed>0.12165525060596438</speed>
  <fix>3d</fix>
</trkpt>
<trkpt lat="-35.2850533" lon="148.986044">
  <ele>700.3</ele>
  <time>2026-09-01T19:59:47Z</time>
  <course>355.96</course>
  <speed>0.1</speed>
  <fix>3d</fix>
</trkpt>
<trkpt lat="-35.2850528" lon="148.9860438">
  <ele>700.2</ele>
  <time>2026-09-01T19:59:47Z</time>
  <course>184.47</course>
  <speed>0.12165525060596438</speed>
  <fix>3d</fix>
</trkpt>
<trkpt lat="-35.2850533" lon="148.986044">
  <ele>700.3</ele>
  <time>2026-09-01T19:59:47Z</time>
  <course>355.96</course>
  <speed>0.1</speed>
  <fix>3d</fix>
</trkpt>
<trkpt lat="-35.2850527" lon="148.9860438">
  <ele>700.2</ele>
  <time>2026-09-01T19:59:47Z</time>
  <course>184.46</course>
  <speed>0.11045361017187261</speed>
  <fix>3d</fix>
</trkpt>
<trkpt lat="-35.2850531" lon="148.986044">
  <ele>700.3</ele>
  <time>2026-09-01T19:59:47Z</time>
  <course>358.28</course>
  <speed>0.1</speed>
  <fix>3d</fix>
</trkpt>
<trkpt lat="-35.2850526" lon="148.9860438">
  <ele>700.21</ele>
  <time>2026-09-01T19:59:47Z</time>
  <course>184.43</course>
  <speed>0.11045361017187261</speed>
  <fix>3d</fix>
</trkpt>
<trkpt lat="-35.2850531" lon="148.986044">
  <ele>700.3</ele>
  <time>2026-09-01T19:59:47Z</time>
  <course>358.28</course>
  <speed>0.1</speed>
  <fix>3d</fix>
</trkpt>
<trkpt lat="-35.2850526" lon="148.9860438">
  <ele>700.21</ele>
  <time>2026-09-01T19:59:47Z</time>
  <course>184.41</course>
  <speed>0.11045361017187261</speed>
  <fix>3d</fix>
</trkpt>
<trkpt lat="-35.2850528" lon="148.986044">
  <ele>700.3</ele>
  <time>2026-09-01T19:59:47Z</time>
  <course>0.27</course>
  <speed>0.1</speed>
  <fix>3d</fix>
</trkpt>
<trkpt lat="-35.2850525" lon="148.9860438">
  <ele>700.21</ele>
  <time>2026-09-01T19:59:47Z</time>
  <course>184.39</course>
  <speed>0.11045361017187261</speed>
  <fix>3d</fix>
</trkpt>
<trkpt lat="-35.2850528" lon="148.986044">
  <ele>700.3</ele>
  <time>2026-09-01T19:59:47Z</time>
  <course>0.27</course>
  <speed>0.1</speed>
  <fix>3d</fix>
</trkpt>
<trkpt lat="-35.2850524" lon="148.9860438">
  <ele>700.21</ele>
  <time>2026-09-01T19:59:47Z</time>
  <course>184.39</course>
  <speed>0.11045361017187261</speed>
  <fix>3d</fix>
</trkpt>
<trkpt lat="-35.2850526" lon="148.986044">
  <ele>700.3</ele>
  <time>2026-09-01T19:59:47Z</time>
  <course>1.96</course>
  <speed>0.1</speed>
  <fix>3d</fix>
</trkpt>
<trkpt lat="-35.2850523" lon="148.9860438">
  <ele>700.21</ele>
  <time>2026-09-01T19:59:47Z</time>
  <course>184.38</course>
  <speed>0.1004987562112089</speed>
  <fix>3d</fix>
</trkpt>
<trkpt lat="-35.2850526" lon="148.986044">
  <ele>700.3</ele>
  <time>2026-09-01T19:59:47Z</time>
  <course>1.96</course>
  <speed>0.1</speed>
  <fix>3d</fix>
</trkpt>
<trkpt lat="-35.2850522" lon="148.9860439">
  <ele>700.21</ele>
  <time>2026-09-01T19:59:47Z</time>
  <course>184.38</course>
  <speed>0.09055385138137417</speed>
  <fix>3d</fix>
</trkpt>
<trkpt lat="-35.2850525" lon="148.986044">
  <ele>700.3</ele>
  <time>2026-09-01T19:59:47Z</time>
  <course>3.72</course>
  <speed>0.09</speed>
  <fix>3d</fix>
</trkpt>
<trkpt lat="-35.2850522" lon="148.9860439">
  <ele>700.21</ele>
  <time>2026-09-01T19:59:47Z</time>
  <course>184.39</course>
  <speed>0.0412310562561766</speed>
  <fix>3d</fix>
</trkpt>
<trkpt lat="-35.2850525" lon="148.986044">
  <ele>700.3</ele>
  <time>2026-09-01T19:59:47Z</time>
  <course>3.72</course>
  <speed>0.09</speed>
  <fix>3d</fix>
</trkpt>
<trkpt lat="-35.2850522" lon="148.9860439">
  <ele>700.22</ele>
  <time>2026-09-01T19:59:47Z</time>
  <course>184.42</course>
  <speed>0.0632455532033676</speed>
  <fix>3d</fix>
</trkpt>
<trkpt lat="-35.2850523" lon="148.986044">
  <ele>700.3</ele>
  <time>2026-09-01T19:59:47Z</time>
  <course>6.79</course>
  <speed>0.06</speed>
  <fix>3d</fix>
</trkpt>
<trkpt lat="-35.2850523" lon="148.9860438">
  <ele>700.22</ele>
  <time>2026-09-01T19:59:47Z</time>
  <course>184.47</course>
  <speed>0.23194827009486402</speed>
  <fix>3d</fix>
</trkpt>
<trkpt lat="-35.2850523" lon="148.986044">
  <ele>700.3</ele>
  <time>2026-09-01T19:59:47Z</time>
  <course>6.79</course>
  <speed>0.06</speed>
  <fix>3d</fix>
</trkpt>
<trkpt lat="-35.2850526" lon="148.9860438">
  <ele>700.22</ele>
  <time>2026-09-01T19:59:47Z</time>
  <course>184.59</course>
  <speed>0.4738143096192854</speed>
  <fix>3d</fix>
</trkpt>
<trkpt lat="-35.2850523" lon="148.986044">
  <ele>700.3</ele>
  <time>2026-09-01T19:59:47Z</time>
  <course>181.41</course>
  <speed>0.11</speed>
  <fix>3d</fix>
</trkpt>
<trkpt lat="-35.2850531" lon="148.9860438">
  <ele>700.21</ele>
  <time>2026-09-01T19:59:47Z</time>
  <course>184.75</course>
  <speed>0.7653103945458993</speed>
  <fix>3d</fix>
</trkpt>
<trkpt lat="-35.2850523" lon="148.986044">
  <ele>700.3</ele>
  <time>2026-09-01T19:59:47Z</time>
  <course>181.41</course>
  <speed>0.11</speed>
  <fix>3d</fix>
</trkpt>
<trkpt lat="-35.285054" lon="148.9860437">
  <ele>700.21</ele>
  <time>2026-09-01T19:59:47Z</time>
  <course>184.9</course>
  <speed>1.1175866856758807</speed>
  <fix>3d</fix>
</trkpt>
<trkpt lat="-35.2850528" lon="148.986044">
  <ele>700.3</ele>
  <time>2026-09-01T19:59:47Z</time>
  <course>184.19</course>
  <speed>0.51</speed>
  <fix>3d</fix>
</trkpt>
<trkpt lat="-35.2850552" lon="148.9860435">
  <ele>700.21</ele>
  <time>2026-09-01T19:59:47Z</time>
  <course>185.09</course>
  <speed>1.540551849176132</speed>
  <fix>3d</fix>
</trkpt>
<trkpt lat="-35.2850528" lon="148.986044">
  <ele>700.3</ele>
  <time>2026-09-01T19:59:47Z</time>
  <course>184.19</course>
  <speed>0.51</speed>
  <fix>3d</fix>
</trkpt>
<trkpt lat="-35.2850568" lon="148.9860433">
  <ele>700.22</ele>
  <time>2026-09-01T19:59:47Z</time>
  <course>185.37</course>
  <speed>2.025487595617411</speed>
  <fix>3d</fix>
</trkpt>
<trkpt lat="-35.2850543" lon="148.9860439">
  <ele>700.3</ele>
  <time>2026-09-01T19:59:47Z</time>
  <course>185.23</course>
  <speed>1.16</speed>
  <fix>3d</fix>
</trkpt>
<trkpt lat="-35.2850588" lon="148.986043">
  <ele>700.22</ele>
  <time>2026-09-01T19:59:47Z</time>
  <course>185.67</course>
  <speed>2.5712642804659342</speed>
  <fix>3d</fix>
</trkpt>
<trkpt lat="-35.2850543" lon="148.9860439">
  <ele>700.3</ele>
  <time>2026-09-01T19:59:47Z</time>
  <course>185.23</course>
  <speed>1.16</speed>
  <fix>3d</fix>
</trkpt>
<trkpt lat="-35.2850614" lon="148.9860426">
  <ele>700.22</ele>
  <time>2026-09-01T19:59:47Z</time>
  <course>186.07</course>
  <speed>3.167964646267379</speed>
  <fix>3d</fix>
</trkpt>
<trkpt lat="-35.2850571" lon="148.9860435">
  <ele>700.3</ele>
  <time>2026-09-01T19:59:47Z</time>
  <course>186.03</course>
  <speed>2.06</speed>
  <fix>3d</fix>
</trkpt>
<trkpt lat="-35.2850645" lon="148.9860421">
  <ele>700.23</ele>
  <time>2026-09-01T19:59:47Z</time>
  <course>186.58</course>
  <speed>3.7872681447185648</speed>
  <fix>3d</fix>
</trkpt>
<trkpt lat="-35.2850571" lon="148.9860435">
  <ele>700.3</ele>
  <time>2026-09-01T19:59:47Z</time>
  <course>186.03</course>
  <speed>2.06</speed>
  <fix>3d</fix>
</trkpt>
<trkpt lat="-35.2850681" lon="148.9860415">
  <ele>700.23</ele>
  <time>2026-09-01T19:59:47Z</time>
  <course>187.13</course>
  <speed>4.399784085611475</speed>
  <fix>3d</fix>
</trkpt>
<trkpt lat="-35.2850617" lon="148.9860429">
  <ele>700.3</ele>
  <time>2026-09-01T19:59:47Z</time>
  <course>186.88</course>
  <speed>3.17</speed>
  <fix>3d</fix>
</trkpt>
<trkpt lat="-35.2850723" lon="148.9860407">
  <ele>700.24</ele>
  <time>2026-09-01T19:59:47Z</time>
  <course>187.76</course>
  <speed>5.014229751417459</speed>
  <fix>3d</fix>
</trkpt>
<trkpt lat="-35.2850617" lon="148.9860429">
  <ele>700.3</ele>
  <time>2026-09-01T19:59:47Z</time>
  <course>186.88</course>
  <speed>3.17</speed>
  <fix>3d</fix>
</trkpt>
<trkpt lat="-35.285077" lon="148.9860398">
  <ele>700.24</ele>
  <time>2026-09-01T19:59:47Z</time>
  <course>188.47</course>
  <speed>5.6242777314069405</speed>
  <fix>3d</fix>
</trkpt>
<trkpt lat="-35.2850685" lon="148.9860418">
  <ele>700.3</ele>
  <time>2026-09-01T19:59:47Z</time>
  <course>187.96</course>
  <speed>4.39</speed>
  <fix>3d</fix>
</trkpt>
<trkpt lat="-35.2850822" lon="148.9860387">
  <ele>700.25</ele>
  <time>2026-09-01T19:59:47Z</time>
  <course>189.22</course>
  <speed>6.238789946776539</speed>
  <fix>3d</fix>
</trkpt>
<trkpt lat="-35.2850685" lon="148.9860418">
  <ele>700.3</ele>
  <time>2026-09-01T19:59:47Z</time>
  <course>187.96</course>
  <speed>4.39</speed>
  <fix>3d</fix>
</trkpt>
<trkpt lat="-35.285088" lon="148.9860374">
  <ele>700.25</ele>
  <time>2026-09-01T19:59:47Z</time>
  <course>190.19</course>
  <speed>6.850437942204864</speed>
  <fix>3d</fix>
</trkpt>
<trkpt lat="-35.2850775" lon="148.9860402">
  <ele>700.31</ele>
  <time>2026-09-01T19:59:47Z</time>
  <course>189.38</course>
  <speed>5.63</speed>
  <fix>3d</fix>
</trkpt>
<trkpt lat="-35.2850943" lon="148.9860357">
  <ele>700.26</ele>
  <time>2026-09-01T19:59:47Z</time>
  <course>191.38</course>
  <speed>7.47219512593187</speed>
  <fix>3d</fix>
</trkpt>
<trkpt lat="-35.2850775" lon="148.9860402">
  <ele>700.31</ele>
  <time>2026-09-01T19:59:47Z</time>
  <course>189.38</course>
  <speed>5.63</speed>
  <fix>3d</fix>
</trkpt>
<trkpt lat="-35.285101" lon="148.9860339">
  <ele>700.26</ele>
  <time>2026-09-01T19:59:47Z</time>
  <course>192.48</course>
  <speed>8.074063413176788</speed>
  <fix>3d</fix>
</trkpt>
<trkpt lat="-35.2850885" lon="148.9860377">
  <ele>700.32</ele>
  <time>2026-09-01T19:59:47Z</time>
  <course>191.19</course>
  <speed>6.86</speed>
  <fix>3d</fix>
</trkpt>
<trkpt lat="-35.2851083" lon="148.9860316">
  <ele>700.26</ele>
  <time>2026-09-01T19:59:47Z</time>
  <course>193.64</course>
  <speed>8.68646072920381</speed>
  <fix>3d</fix>
</trkpt>
<trkpt lat="-35.2850885" lon="148.9860377">
  <ele>700.32</ele>
  <time>2026-09-01T19:59:47Z</time>
  <course>191.19</course>
  <speed>6.86</speed>
  <fix>3d</fix>
</trkpt>
<trkpt lat="-35.2851161" lon="148.986029">
  <ele>700.27</ele>
  <time>2026-09-01T19:59:47Z</time>
  <course>195.01</course>
  <speed>9.29400344308092</speed>
  <fix>3d</fix>
</trkpt>
<trkpt lat="-35.2851016" lon="148.9860341">
  <ele>700.33</ele>
  <time>2026-09-01T19:59:47Z</time>
  <course>193.36</course>
  <speed>8.09</speed>
  <fix>3d</fix>
</trkpt>
<trkpt lat="-35.2851243" lon="148.986026">
  <ele>700.27</ele>
  <time>2026-09-01T19:59:47Z</time>
  <course>196.39</course>
  <speed>9.886172161155196</speed>
  <fix>3d</fix>
</trkpt>
<trkpt lat="-35.2851016" lon="148.9860341">
  <ele>700.33</ele>
  <time>2026-09-01T19:59:47Z</time>
  <course>193.36</course>
  <speed>8.09</speed>
  <fix>3d</fix>
</trkpt>
<trkpt lat="-35.285133" lon="148.9860226">
  <ele>700.28</ele>
  <time>2026-09-01T19:59:47Z</time>
  <course>197.87</course>
  <speed>10.467903323970852</speed>
  <fix>3d</fix>
</trkpt>
<trkpt lat="-35.2851167" lon="148.9860293">
  <ele>700.33</ele>
  <time>2026-09-01T19:59:47Z</time>
  <course>195.88</course>
  <speed>9.3</speed>
  <fix>3d</fix>
</trkpt>
<trkpt lat="-35.2851419" lon="148.9860187">
  <ele>700.29</ele>
  <time>2026-09-01T19:59:47Z</time>
  <course>199.43</course>
  <speed>11.034640909427003</speed>
  <fix>3d</fix>
</trkpt>
<trkpt lat="-35.2851167" lon="148.9860293">
  <ele>700.33</ele>
  <time>2026-09-01T19:59:47Z</time>
  <course>195.88</course>
  <speed>9.3</speed>
  <fix>3d</fix>
</trkpt>
<trkpt lat="-35.2851513" lon="148.9860143">
  <ele>700.3</ele>
  <time>2026-09-01T19:59:47Z</time>
  <course>200.97</course>
  <speed>11.5819903298181</speed>
  <fix>3d</fix>
</trkpt>
<trkpt lat="-35.2851337" lon="148.9860229">
  <ele>700.35</ele>
  <time>2026-09-01T19:59:47Z</time>
  <course>198.71</course>
  <speed>10.48</speed>
  <fix>3d</fix>
</trkpt>
<trkpt lat="-35.2851611" lon="148.9860093">
  <ele>700.32</ele>
  <time>2026-09-01T19:59:47Z</time>
  <course>202.44</course>
  <speed>12.121340684924256</speed>
  <fix>3d</fix>
</trkpt>
<trkpt lat="-35.2851337" lon="148.9860229">
  <ele>700.35</ele>
  <time>2026-09-01T19:59:47Z</time>
  <course>198.71</course>
  <speed>10.48</speed>
  <fix>3d</fix>
</trkpt>
<trkpt lat="-35.2851711" lon="148.9860038">
  <ele>700.35</ele>
  <time>2026-09-01T19:59:47Z</time>
  <course>203.85</course>
  <speed>12.63286586646118</speed>
  <fix>3d</fix>
</trkpt>
<trkpt lat="-35.2851523" lon="148.9860144">
  <ele>700.37</ele>
  <time>2026-09-01T19:59:47Z</time>
  <course>201.76</course>
  <speed>11.61</speed>
  <fix>3d</fix>
</trkpt>
<trkpt lat="-35.2851815" lon="148.9859977">
  <ele>700.38</ele>
  <time>2026-09-01T19:59:47Z</time>
  <course>205.37</course>
  <speed>13.139227526761228</speed>
  <fix>3d</fix>
</trkpt>
<trkpt lat="-35.2851523" lon="148.9860144">
  <ele>700.37</ele>
  <time>2026-09-01T19:59:47Z</time>
  <course>201.76</course>
  <speed>11.61</speed>
  <fix>3d</fix>
</trkpt>
<trkpt lat="-35.2851921" lon="148.9859911">
  <ele>700.42</ele>
  <time>2026-09-01T19:59:47Z</time>
  <course>206.83</course>
  <speed>13.623600845591447</speed>
  <fix>3d</fix>
</trkpt>
<trkpt lat="-35.2851724" lon="148.9860038">
  <ele>700.41</ele>
  <time>2026-09-01T19:59:47Z</time>
  <course>204.91</course>
  <speed>12.67</speed>
  <fix>3d</fix>
</trkpt>
<trkpt lat="-35.2852029" lon="148.9859839">
  <ele>700.46</ele>
  <time>2026-09-01T19:59:47Z</time>
  <course>208.31</course>
  <speed>14.095307729879472</speed>
  <fix>3d</fix>
</trkpt>
<trkpt lat="-35.2851724" lon="148.9860038">
  <ele>700.41</ele>
  <time>2026-09-01T19:59:47Z</time>
  <course>204.91</course>
  <speed>12.67</speed>
  <fix>3d</fix>
</trkpt>
<trkpt lat="-35.2852143" lon="148.9859758">
  <ele>700.5</ele>
  <time>2026-09-01T19:59:47Z</time>
  <course>209.89</course>
  <speed>14.568942995289671</speed>
  <fix>3d</fix>
</trkpt>
<trkpt lat="-35.2851936" lon="148.9859908">
  <ele>700.47</ele>
  <time>2026-09-01T19:59:47Z</time>
  <course>207.98</course>
  <speed>13.68</speed>
  <fix>3d</fix>
</trkpt>
<trkpt lat="-35.2852255" lon="148.9859674">
  <ele>700.55</ele>
  <time>2026-09-01T19:59:47Z</time>
  <course>211.37</course>
  <speed>15.026463323084378</speed>
  <fix>3d</fix>
</trkpt>
<trkpt lat="-35.2851936" lon="148.9859908">
  <ele>700.47</ele>
  <time>2026-09-01T19:59:47Z</time>
  <course>207.98</course>
  <speed>13.68</speed>
  <fix>3d</fix>
</trkpt>
<trkpt lat="-35.2852369" lon="148.9859583">
  <ele>700.6</ele>
  <time>2026-09-01T19:59:47Z</time>
  <course>212.68</course>
  <speed>15.473571016413763</speed>
  <fix>3d</fix>
</trkpt>
<trkpt lat="-35.2852158" lon="148.9859755">
  <ele>700.55</ele>
  <time>2026-09-01T19:59:47Z</time>
  <course>210.94</course>
  <speed>14.64</speed>
  <fix>3d</fix>
</trkpt>
<trkpt lat="-35.2852485" lon="148.9859486">
  <ele>700.64</ele>
  <time>2026-09-01T19:59:47Z</time>
  <course>213.99</course>
  <speed>15.915542717733507</speed>
  <fix>3d</fix>
</trkpt>
<trkpt lat="-35.2852158" lon="148.9859755">
  <ele>700.55</ele>
  <time>2026-09-01T19:59:47Z</time>
  <course>210.94</course>
  <speed>14.64</speed>
  <fix>3d</fix>
</trkpt>
<trkpt lat="-35.2852603" lon="148.9859383">
  <ele>700.69</ele>
  <time>2026-09-01T19:59:47Z</time>
  <course>215.18</course>
  <speed>16.346158570135064</speed>
  <fix>3d</fix>
</trkpt>
<trkpt lat="-35.2852387" lon="148.9859577">
  <ele>700.64</ele>
  <time>2026-09-01T19:59:47Z</time>
  <course>213.77</course>
  <speed>15.55</speed>
  <fix>3d</fix>
</trkpt>
<trkpt lat="-35.2852722" lon="148.9859273">
  <ele>700.73</ele>
  <time>2026-09-01T19:59:47Z</time>
  <course>216.47</course>
  <speed>16.748307377165013</speed>
  <fix>3d</fix>
</trkpt>
<trkpt lat="-35.2852387" lon="148.9859577">
  <ele>700.64</ele>
  <time>2026-09-01T19:59:47Z</time>
  <course>213.77</course>
  <speed>15.55</speed>
  <fix>3d</fix>
</trkpt>
<trkpt lat="-35.285284" lon="148.985916">
  <ele>700.77</ele>
  <time>2026-09-01T19:59:47Z</time>
  <course>217.65</course>
  <speed>17.106051560778134</speed>
  <fix>3d</fix>
</trkpt>
<trkpt lat="-35.2852622" lon="148.9859374">
  <ele>700.73</ele>
  <time>2026-09-01T19:59:47Z</time>
  <course>216.39</course>
  <speed>16.41</speed>
  <fix>3d</fix>
</trkpt>
<trkpt lat="-35.285296" lon="148.9859039">
  <ele>700.81</ele>
  <time>2026-09-01T19:59:47Z</time>
  <course>218.82</course>
  <speed>17.412254305517134</speed>
  <fix>3d</fix>
</trkpt>
<trkpt lat="-35.2852622" lon="148.9859374">
  <ele>700.73</ele>
  <time>2026-09-01T19:59:47Z</time>
  <course>216.39</course>
  <speed>16.41</speed>
  <fix>3d</fix>
</trkpt>
<trkpt lat="-35.285308" lon="148.9858914">
  <ele>700.85</ele>
  <time>2026-09-01T19:59:47Z</time>
  <course>219.96</course>
  <speed>17.689570373528014</speed>
  <fix>3d</fix>
</trkpt>
<trkpt lat="-35.285286" lon="148.9859148">
  <ele>700.81</ele>
  <time>2026-09-01T19:59:47Z</time>
  <course>218.86</course>
  <speed>17.17</speed>
  <fix>3d</fix>
</trkpt>
<trkpt lat="-35.2853199" lon="148.9858783">
  <ele>700.9</ele>
  <time>2026-09-01T19:59:47Z</time>
  <course>221.17</course>
  <speed>17.9179016628622</speed>
  <fix>3d</fix>
</trkpt>
<trkpt lat="-35.285286" lon="148.9859148">
  <ele>700.81</ele>
  <time>2026-09-01T19:59:47Z</time>
  <course>218.86</course>
  <speed>17.17</speed>
  <fix>3d</fix>
</trkpt>
<trkpt lat="-35.2853317" lon="148.9858648">
  <ele>700.95</ele>
  <time>2026-09-01T19:59:47Z</time>
  <course>222.44</course>
  <speed>18.111800020980798</speed>
  <fix>3d</fix>
</trkpt>
<trkpt lat="-35.2853101" lon="148.9858901">
  <ele>700.89</ele>
  <time>2026-09-01T19:59:47Z</time>
  <course>221.34</course>
  <speed>17.75</speed>
  <fix>3d</fix>
</trkpt>
<trkpt lat="-35.2853433" lon="148.9858509">
  <ele>701.0</ele>
  <time>2026-09-01T19:59:47Z</time>
  <course>223.78</course>
  <speed>18.285978234702128</speed>
  <fix>3d</fix>
</trkpt>
<trkpt lat="-35.2853101" lon="148.9858901">
  <ele>700.89</ele>
  <time>2026-09-01T19:59:47Z</time>
  <course>221.34</course>
  <speed>17.75</speed>
  <fix>3d</fix>
</trkpt>
<trkpt lat="-35.2853549" lon="148.9858365">
  <ele>701.05</ele>
  <time>2026-09-01T19:59:47Z</time>
  <course>225.22</course>
  <speed>18.448371201816165</speed>
  <fix>3d</fix>
</trkpt>
<trkpt lat="-35.2853339" lon="148.9858633">
  <ele>700.98</ele>
  <time>2026-09-01T19:59:47Z</time>
  <course>223.87</course>
  <speed>18.19</speed>
  <fix>3d</fix>
</trkpt>
<trkpt lat="-35.2853662" lon="148.9858216">
  <ele>701.1</ele>
  <time>2026-09-01T19:59:47Z</time>
  <course>226.75</course>
  <speed>18.608369084903707</speed>
  <fix>3d</fix>
</trkpt>
<trkpt lat="-35.2853339" lon="148.9858633">
  <ele>700.98</ele>
  <time>2026-09-01T19:59:47Z</time>
  <course>223.87</course>
  <speed>18.19</speed>
  <fix>3d</fix>
</trkpt>
<trkpt lat="-35.2853771" lon="148.9858065">
  <ele>701.16</ele>
  <time>2026-09-01T19:59:47Z</time>
  <course>228.3</course>
  <speed>18.753666308218243</speed>
  <fix>3d</fix>
</trkpt>
<trkpt lat="-35.2853571" lon="148.9858346">
  <ele>701.08</ele>
  <time>2026-09-01T19:59:47Z</time>
  <course>226.52</course>
  <speed>18.54</speed>
  <fix>3d</fix>
</trkpt>
<trkpt lat="-35.2853879" lon="148.9857907">
  <ele>701.22</ele>
  <time>2026-09-01T19:59:47Z</time>
  <course>229.96</course>
  <speed>18.901878213553278</speed>
  <fix>3d</fix>
</trkpt>
<trkpt lat="-35.2853571" lon="148.9858346">
  <ele>701.08</ele>
  <time>2026-09-01T19:59:47Z</time>
  <course>226.52</course>
  <speed>18.54</speed>
  <fix>3d</fix>
</trkpt>
<trkpt lat="-35.2853984" lon="148.9857745">
  <ele>701.28</ele>
  <time>2026-09-01T19:59:47Z</time>
  <course>231.73</course>
  <speed>19.04229502974891</speed>
  <fix>3d</fix>
</trkpt>
<trkpt lat="-35.2853796" lon="148.985804">
  <ele>701.18</ele>
  <time>2026-09-01T19:59:47Z</time>
  <course>229.44</course>
  <speed>18.85</speed>
  <fix>3d</fix>
</trkpt>
<trkpt lat="-35.2854086" lon="148.9857578">
  <ele>701.34</ele>
  <time>2026-09-01T19:59:47Z</time>
  <course>233.62</course>
  <speed>19.19256626926165</speed>
  <fix>3d</fix>
</trkpt>
<trkpt lat="-35.2853796" lon="148.985804">
  <ele>701.18</ele>
  <time>2026-09-01T19:59:47Z</time>
  <course>229.44</course>
  <speed>18.85</speed>
  <fix>3d</fix>
</trkpt>
<trkpt lat="-35.2854184" lon="148.9857404">
  <ele>701.39</ele>
  <time>2026-09-01T19:59:47Z</time>
  <course>235.59</course>
  <speed>19.339909513749024</speed>
  <fix>3d</fix>
</trkpt>
<trkpt lat="-35.2854011" lon="148.9857714">
  <ele>701.29</ele>
  <time>2026-09-01T19:59:47Z</time>
  <course>232.77</course>
  <speed>19.16</speed>
  <fix>3d</fix>
</trkpt>
<trkpt lat="-35.2854277" lon="148.9857226">
  <ele>701.45</ele>
  <time>2026-09-01T19:59:47Z</time>
  <course>237.66</course>
  <speed>19.47572848444956</speed>
  <fix>3d</fix>
</trkpt>
<trkpt lat="-35.2854011" lon="148.9857714">
  <ele>701.29</ele>
  <time>2026-09-01T19:59:47Z</time>
  <course>232.77</course>
  <speed>19.16</speed>
  <fix>3d</fix>
</trkpt>
<trkpt lat="-35.2854366" lon="148.9857042">
  <ele>701.51</ele>
  <time>2026-09-01T19:59:47Z</time>
  <course>239.82</course>
  <speed>19.620960730810303</speed>
  <fix>3d</fix>
</trkpt>
<trkpt lat="-35.2854212" lon="148.9857367">
  <ele>701.41</ele>
  <time>2026-09-01T19:59:47Z</time>
  <course>236.57</course>
  <speed>19.45</speed>
  <fix>3d</fix>
</trkpt>
<trkpt lat="-35.2854452" lon="148.9856846">
  <ele>701.57</ele>
  <time>2026-09-01T19:59:47Z</time>
  <course>242.16</course>
  <speed>19.77588430386869</speed>
  <fix>3d</fix>
</trkpt>
<trkpt lat="-35.2854212" lon="148.9857367">
  <ele>701.41</ele>
  <time>2026-09-01T19:59:47Z</time>
  <course>236.57</course>
  <speed>19.45</speed>
  <fix>3d</fix>
</trkpt>
<trkpt lat="-35.2854529" lon="148.9856653">
  <ele>701.62</ele>
  <time>2026-09-01T19:59:47Z</time>
  <course>244.48</course>
  <speed>19.920507021659866</speed>
  <fix>3d</fix>
</trkpt>
<trkpt lat="-35.2854395" lon="148.9856998">
  <ele>701.52</ele>
  <time>2026-09-01T19:59:47Z</time>
  <course>240.84</course>
  <speed>19.75</speed>
  <fix>3d</fix>
</trkpt>
<trkpt lat="-35.28546" lon="148.9856452">
  <ele>701.67</ele>
  <time>2026-09-01T19:59:47Z</time>
  <course>246.86</course>
  <speed>20.06626023951648</speed>
  <fix>3d</fix>
</trkpt>
<trkpt lat="-35.2854395" lon="148.9856998">
  <ele>701.52</ele>
  <time>2026-09-01T19:59:47Z</time>
  <course>240.84</course>
  <speed>19.75</speed>
  <fix>3d</fix>
</trkpt>
<trkpt lat="-35.2854665" lon="148.9856245">
  <ele>701.72</ele>
  <time>2026-09-01T19:59:47Z</time>
  <course>249.3</course>
  <speed>20.222175946223</speed>
  <fix>3d</fix>
</trkpt>
<trkpt lat="-35.2854556" lon="148.9856608">
  <ele>701.63</ele>
  <time>2026-09-01T19:59:47Z</time>
  <course>245.53</course>
  <speed>20.04</speed>
  <fix>3d</fix>
</trkpt>
<trkpt lat="-35.2854723" lon="148.9856033">
  <ele>701.77</ele>
  <time>2026-09-01T19:59:47Z</time>
  <course>251.75</course>
  <speed>20.376812802791314</speed>
  <fix>3d</fix>
</trkpt>
<trkpt lat="-35.2854556" lon="148.9856608">
  <ele>701.63</ele>
  <time>2026-09-01T19:59:47Z</time>
  <course>245.53</course>
  <speed>20.04</speed>
  <fix>3d</fix>
</trkpt>
<trkpt lat="-35.2854774" lon="148.9855816">
  <ele>701.81</ele>
  <time>2026-09-01T19:59:47Z</time>
  <course>254.29</course>
  <speed>20.545250059320278</speed>
  <fix>3d</fix>
</trkpt>
<trkpt lat="-35.2854692" lon="148.9856197">
  <ele>701.73</ele>
  <time>2026-09-01T19:59:47Z</time>
  <course>250.52</course>
  <speed>20.33</speed>
  <fix>3d</fix>
</trkpt>
<trkpt lat="-35.2854817" lon="148.9855593">
  <ele>701.85</ele>
  <time>2026-09-01T19:59:47Z</time>
  <course>256.92</course>
  <speed>20.706061914328373</speed>
  <fix>3d</fix>
</trkpt>
<trkpt lat="-35.2854692" lon="148.9856197">
  <ele>701.73</ele>
  <time>2026-09-01T19:59:47Z</time>
  <course>250.52</course>
  <speed>20.33</speed>
  <fix>3d</fix>
</trkpt>
<trkpt lat="-35.2854852" lon="148.9855367">
  <ele>701.89</ele>
  <time>2026-09-01T19:59:47Z</time>
  <course>259.59</course>
  <speed>20.86836121979874</speed>
  <fix>3d</fix>
</trkpt>
<trkpt lat="-35.2854799" lon="148.9855765">
  <ele>701.82</ele>
  <time>2026-09-01T19:59:47Z</time>
  <course>255.71</course>
  <speed>20.63</speed>
  <fix>3d</fix>
</trkpt>
<trkpt lat="-35.2854878" lon="148.9855138">
  <ele>701.92</ele>
  <time>2026-09-01T19:59:47Z</time>
  <course>262.23</course>
  <speed>21.020763544647945</speed>
  <fix>3d</fix>
</trkpt>
<trkpt lat="-35.2854799" lon="148.9855765">
  <ele>701.82</ele>
  <time>2026-09-01T19:59:47Z</time>
  <course>255.71</course>
  <speed>20.63</speed>
  <fix>3d</fix>
</trkpt>
<trkpt lat="-35.2854896" lon="148.9854906">
  <ele>701.95</ele>
  <time>2026-09-01T19:59:47Z</time>
  <course>264.92</course>
  <speed>21.18809571433922</speed>
  <fix>3d</fix>
</trkpt>
<trkpt lat="-35.2854873" lon="148.9855317">
  <ele>701.91</ele>
  <time>2026-09-01T19:59:47Z</time>
  <course>261.04</course>
  <speed>20.93</speed>
  <fix>3d</fix>
</trkpt>
<trkpt lat="-35.2854905" lon="148.9854671">
  <ele>701.98</ele>
  <time>2026-09-01T19:59:47Z</time>
  <course>267.63</course>
  <speed>21.341583821263125</speed>
  <fix>3d</fix>
</trkpt>
<trkpt lat="-35.2854873" lon="148.9855317">
  <ele>701.91</ele>
  <time>2026-09-01T19:59:47Z</time>
  <course>261.04</course>
  <speed>20.93</speed>
  <fix>3d</fix>
</trkpt>
<trkpt lat="-35.2854904" lon="148.9854434">
  <ele>702.0</ele>
  <time>2026-09-01T19:59:47Z</time>
  <course>270.34</course>
  <speed>21.50343460938275</speed>
  <fix>3d</fix>
</trkpt>
<trkpt lat="-35.2854915" lon="148.9854856">
  <ele>701.98</ele>
  <time>2026-09-01T19:59:47Z</time>
  <course>266.48</course>
  <speed>21.23</speed>
  <fix>3d</fix>
</trkpt>
<trkpt lat="-35.2854895" lon="148.9854197">
  <ele>702.02</ele>
  <time>2026-09-01T19:59:47Z</time>
  <course>273.06</course>
  <speed>21.655772902392563</speed>
  <fix>3d</fix>
</trkpt>
<trkpt lat="-35.2854915" lon="148.9854856">
  <ele>701.98</ele>
  <time>2026-09-01T19:59:47Z</time>
  <course>266.48</course>
  <speed>21.23</speed>
  <fix>3d</fix>
</trkpt>
<trkpt lat="-35.2854877" lon="148.9853964">
  <ele>702.03</ele>
  <time>2026-09-01T19:59:47Z</time>
  <course>275.74</course>
  <speed>21.805733191066977</speed>
  <fix>3d</fix>
</trkpt>
<trkpt lat="-35.285492" lon="148.9854386">
  <ele>702.03</ele>
  <time>2026-09-01T19:59:47Z</time>
  <course>272.0</course>
  <speed>21.53</speed>
  <fix>3d</fix>
</trkpt>
<trkpt lat="-35.2854848" lon="148.9853727">
  <ele>702.04</ele>
  <time>2026-09-01T19:59:47Z</time>
  <course>278.48</course>
  <speed>21.959100619105513</speed>
  <fix>3d</fix>
</trkpt>
<trkpt lat="-35.285492" lon="148.9854386">
  <ele>702.03</ele>
  <time>2026-09-01T19:59:47Z</time>
  <course>272.0</course>
  <speed>21.53</speed>
  <fix>3d</fix>
</trkpt>
<trkpt lat="-35.285481" lon="148.9853489">
  <ele>702.04</ele>
  <time>2026-09-01T19:59:47Z</time>
  <course>281.23</course>
  <speed>22.117931639283093</speed>
  <fix>3d</fix>
</trkpt>
<trkpt lat="-35.2854888" lon="148.9853911">
  <ele>702.07</ele>
  <time>2026-09-01T19:59:47Z</time>
  <course>277.57</course>
  <speed>21.82</speed>
  <fix>3d</fix>
</trkpt>
<trkpt lat="-35.2854762" lon="148.9853252">
  <ele>702.04</ele>
  <time>2026-09-01T19:59:47Z</time>
  <course>284.02</course>
  <speed>22.260727750906977</speed>
  <fix>3d</fix>
</trkpt>
<trkpt lat="-35.2854888" lon="148.9853911">
  <ele>702.07</ele>
  <time>2026-09-01T19:59:47Z</time>
  <course>277.57</course>
  <speed>21.82</speed>
  <fix>3d</fix>
</trkpt>
<trkpt lat="-35.2854704" lon="148.9853016">
  <ele>702.03</ele>
  <time>2026-09-01T19:59:47Z</time>
  <course>286.82</course>
  <speed>22.411160166309998</speed>
  <fix>3d</fix>
</trkpt>
<trkpt lat="-35.2854817" lon="148.9853436">
  <ele>702.08</ele>
  <time>2026-09-01T19:59:47Z</time>
  <course>283.15</course>
  <speed>22.12</speed>
  <fix>3d</fix>
</trkpt>
<trkpt lat="-35.2854636" lon="148.9852781">
  <ele>702.01</ele>
  <time>2026-09-01T19:59:47Z</time>
  <course>289.67</course>
  <speed>22.558758831105933</speed>
  <fix>3d</fix>
</trkpt>
<trkpt lat="-35.2854817" lon="148.9853436">
  <ele>702.08</ele>
  <time>2026-09-01T19:59:47Z</time>
  <course>283.15</course>
  <speed>22.12</speed>
  <fix>3d</fix>
</trkpt>
<trkpt lat="-35.2854559" lon="148.985255">
  <ele>701.99</ele>
  <time>2026-09-01T19:59:47Z</time>
  <course>292.47</course>
  <speed>22.710493169458033</speed>
  <fix>3d</fix>
</trkpt>
<trkpt lat="-35.2854707" lon="148.9852963">
  <ele>702.08</ele>
  <time>2026-09-01T19:59:47Z</time>
  <course>288.78</course>
  <speed>22.4</speed>
  <fix>3d</fix>
</trkpt>
<trkpt lat="-35.2854472" lon="148.9852324">
  <ele>701.96</ele>
  <time>2026-09-01T19:59:47Z</time>
  <course>295.27</course>
  <speed>22.8489518359158</speed>
  <fix>3d</fix>
</trkpt>
<trkpt lat="-35.2854707" lon="148.9852963">
  <ele>702.08</ele>
  <time>2026-09-01T19:59:47Z</time>
  <course>288.78</course>
  <speed>22.4</speed>
  <fix>3d</fix>
</trkpt>
<trkpt lat="-35.2854372" lon="148.9852094">
  <ele>701.93</ele>
  <time>2026-09-01T19:59:47Z</time>
  <course>298.14</course>
  <speed>22.99989782586001</speed>
  <fix>3d</fix>
</trkpt>
<trkpt lat="-35.2854557" lon="148.9852502">
  <ele>702.05</ele>
  <time>2026-09-01T19:59:47Z</time>
  <course>294.44</course>
  <speed>22.68</speed>
  <fix>3d</fix>
</trkpt>
<trkpt lat="-35.2854266" lon="148.9851878">
  <ele>701.9</ele>
  <time>2026-09-01T19:59:47Z</time>
  <course>300.97</course>
  <speed>23.1342105981596</speed>
  <fix>3d</fix>
</trkpt>
<trkpt lat="-35.2854557" lon="148.9852502">
  <ele>702.05</ele>
  <time>2026-09-01T19:59:47Z</time>
  <course>294.44</course>
  <speed>22.68</speed>
  <fix>3d</fix>
</trkpt>
<trkpt lat="-35.285415" lon="148.9851666">
  <ele>701.86</ele>
  <time>2026-09-01T19:59:47Z</time>
  <course>303.78</course>
  <speed>23.26812841635528</speed>
  <fix>3d</fix>
</trkpt>
<trkpt lat="-35.2854369" lon="148.9852055">
  <ele>702.0</ele>
  <time>2026-09-01T19:59:47Z</time>
  <course>300.11</course>
  <speed>22.96</speed>
  <fix>3d</fix>
</trkpt>
<trkpt lat="-35.2854025" lon="148.9851461">
  <ele>701.81</ele>
  <time>2026-09-01T19:59:47Z</time>
  <course>306.56</course>
  <speed>23.398215743940817</speed>
  <fix>3d</fix>
</trkpt>
<trkpt lat="-35.2854369" lon="148.9852055">
  <ele>702.0</ele>
  <time>2026-09-01T19:59:47Z</time>
  <course>300.11</course>
  <speed>22.96</speed>
  <fix>3d</fix>
</trkpt>
<trkpt lat="-35.2853892" lon="148.9851262">
  <ele>701.77</ele>
  <time>2026-09-01T19:59:47Z</time>
  <course>309.37</course>
  <speed>23.528370109295714</speed>
  <fix>3d</fix>
</trkpt>
<trkpt lat="-35.2854144" lon="148.9851629">
  <ele>701.93</ele>
  <time>2026-09-01T19:59:47Z</time>
  <course>305.78</course>
  <speed>23.23</speed>
  <fix>3d</fix>
</trkpt>
<trkpt lat="-35.2853748" lon="148.9851068">
  <ele>701.71</ele>
  <time>2026-09-01T19:59:47Z</time>
  <course>312.12</course>
  <speed>23.642260890194066</speed>
  <fix>3d</fix>
</trkpt>
<trkpt lat="-35.2854144" lon="148.9851629">
  <ele>701.93</ele>
  <time>2026-09-01T19:59:47Z</time>
  <course>305.78</course>
  <speed>23.23</speed>
  <fix>3d</fix>
</trkpt>
<trkpt lat="-35.2853598" lon="148.9850885">
  <ele>701.65</ele>
  <time>2026-09-01T19:59:47Z</time>
  <course>314.8</course>
  <speed>23.75559723517807</speed>
  <fix>3d</fix>
</trkpt>
<trkpt lat="-35.2853882" lon="148.9851228">
  <ele>701.83</ele>
  <time>2026-09-01T19:59:47Z</time>
  <course>311.42</course>
  <speed>23.48</speed>
  <fix>3d</fix>
</trkpt>
<trkpt lat="-35.2853439" lon="148.985071">
  <ele>701.59</ele>
  <time>2026-09-01T19:59:47Z</time>
  <course>317.48</course>
  <speed>23.859107275839136</speed>
  <fix>3d</fix>
</trkpt>
<trkpt lat="-35.2853882" lon="148.9851228">
  <ele>701.83</ele>
  <time>2026-09-01T19:59:47Z</time>
  <course>311.42</course>
  <speed>23.48</speed>
  <fix>3d</fix>
</trkpt>
<trkpt lat="-35.2853275" lon="148.9850543">
  <ele>701.53</ele>
  <time>2026-09-01T19:59:47Z</time>
  <course>320.11</course>
  <speed>23.96385820355312</speed>
  <fix>3d</fix>
</trkpt>
<trkpt lat="-35.2853585" lon="148.9850856">
  <ele>701.73</ele>
  <time>2026-09-01T19:59:47Z</time>
  <course>316.97</course>
  <speed>23.72</speed>
  <fix>3d</fix>
</trkpt>
<trkpt lat="-35.2853103" lon="148.9850386">
  <ele>701.46</ele>
  <time>2026-09-01T19:59:47Z</time>
  <course>322.69</course>
  <speed>24.061163729129976</speed>
  <fix>3d</fix>
</trkpt>
<trkpt lat="-35.2853585" lon="148.9850856">
  <ele>701.73</ele>
  <time>2026-09-01T19:59:47Z</time>
  <course>316.97</course>
  <speed>23.72</speed>
  <fix>3d</fix>
</trkpt>
<trkpt lat="-35.2852925" lon="148.9850238">
  <ele>701.39</ele>
  <time>2026-09-01T19:59:47Z</time>
  <course>325.24</course>
  <speed>24.155040881770415</speed>
  <fix>3d</fix>
</trkpt>
<trkpt lat="-35.285326" lon="148.9850516">
  <ele>701.6</ele>
  <time>2026-09-01T19:59:47Z</time>
  <course>322.36</course>
  <speed>23.94</speed>
  <fix>3d</fix>
</trkpt>
<trkpt lat="-35.285274" lon="148.9850098">
  <ele>701.31</ele>
  <time>2026-09-01T19:59:47Z</time>
  <course>327.72</course>
  <speed>24.252043212892396</speed>
  <fix>3d</fix>
</trkpt>
<trkpt lat="-35.285326" lon="148.9850516">
  <ele>701.6</ele>
  <time>2026-09-01T19:59:47Z</time>
  <course>322.36</course>
  <speed>23.94</speed>
  <fix>3d</fix>
</trkpt>
<trkpt lat="-35.285255" lon="148.9849968">
  <ele>701.23</ele>
  <time>2026-09-01T19:59:47Z</time>
  <course>330.13</course>
  <speed>24.338046347231735</speed>
  <fix>3d</fix>
</trkpt>
<trkpt lat="-35.2852906" lon="148.9850213">
  <ele>701.45</ele>
  <time>2026-09-01T19:59:47Z</time>
  <course>327.56</course>
  <speed>24.15</speed>
  <fix>3d</fix>
</trkpt>
<trkpt lat="-35.2852354" lon="148.9849848">
  <ele>701.15</ele>
  <time>2026-09-01T19:59:47Z</time>
  <course>332.44</course>
  <speed>24.428035123603372</speed>
  <fix>3d</fix>
</trkpt>
<trkpt lat="-35.2852906" lon="148.9850213">
  <ele>701.45</ele>
  <time>2026-09-01T19:59:47Z</time>
  <course>327.56</course>
  <speed>24.15</speed>
  <fix>3d</fix>
</trkpt>
<trkpt lat="-35.2852154" lon="148.9849737">
  <ele>701.06</ele>
  <time>2026-09-01T19:59:47Z</time>
  <course>334.63</course>
  <speed>24.50979396078229</speed>
  <fix>3d</fix>
</trkpt>
<trkpt lat="-35.2852528" lon="148.9849947">
  <ele>701.29</ele>
  <time>2026-09-01T19:59:47Z</time>
  <course>332.55</course>
  <speed>24.34</speed>
  <fix>3d</fix>
</trkpt>
<trkpt lat="-35.2851949" lon="148.9849636">
  <ele>700.97</ele>
  <time>2026-09-01T19:59:47Z</time>
  <course>336.75</course>
  <speed>24.578828287776457</speed>
  <fix>3d</fix>
</trkpt>
<trkpt lat="-35.2852528" lon="148.9849947">
  <ele>701.29</ele>
  <time>2026-09-01T19:59:47Z</time>
  <course>332.55</course>
  <speed>24.34</speed>
  <fix>3d</fix>
</trkpt>
<trkpt lat="-35.2851741" lon="148.9849545">
  <ele>700.87</ele>
  <time>2026-09-01T19:59:47Z</time>
  <course>338.78</course>
  <speed>24.653275644425023</speed>
  <fix>3d</fix>
</trkpt>
<trkpt lat="-35.2852131" lon="148.984972">
  <ele>701.12</ele>
  <time>2026-09-01T19:59:47Z</time>
  <course>337.28</course>
  <speed>24.52</speed>
  <fix>3d</fix>
</trkpt>
<trkpt lat="-35.2851529" lon="148.9849462">
  <ele>700.77</ele>
  <time>2026-09-01T19:59:47Z</time>
  <course>340.74</course>
  <speed>24.72247964909669</speed>
  <fix>3d</fix>
</trkpt>
<trkpt lat="-35.2852131" lon="148.984972">
  <ele>701.12</ele>
  <time>2026-09-01T19:59:47Z</time>
  <course>337.28</course>
  <speed>24.52</speed>
  <fix>3d</fix>
</trkpt>
<trkpt lat="-35.2851315" lon="148.9849388">
  <ele>700.67</ele>
  <time>2026-09-01T19:59:47Z</time>
  <course>342.62</course>
  <speed>24.77900926187324</speed>
  <fix>3d</fix>
</trkpt>
<trkpt lat="-35.2851716" lon="148.984953">
  <ele>700.93</ele>
  <time>2026-09-01T19:59:47Z</time>
  <course>341.66</course>
  <speed>24.67</speed>
  <fix>3d</fix>
</trkpt>
<trkpt lat="-35.2851098" lon="148.9849323">
  <ele>700.56</ele>
  <time>2026-09-01T19:59:47Z</time>
  <course>344.42</course>
  <speed>24.838850617530593</speed>
  <fix>3d</fix>
</trkpt>
<trkpt lat="-35.2851716" lon="148.984953">
  <ele>700.93</ele>
  <time>2026-09-01T19:59:47Z</time>
  <course>341.66</course>
  <speed>24.67</speed>
  <fix>3d</fix>
</trkpt>
<trkpt lat="-35.2850885" lon="148.9849268">
  <ele>700.45</ele>
  <time>2026-09-01T19:59:47Z</time>
  <course>346.07</course>
  <speed>24.89516017221018</speed>
  <fix>3d</fix>
</trkpt>
<trkpt lat="-35.2851289" lon="148.9849377">
  <ele>700.72</ele>
  <time>2026-09-01T19:59:47Z</time>
  <course>345.66</course>
  <speed>24.8</speed>
  <fix>3d</fix>
</trkpt>
<trkpt lat="-35.2850657" lon="148.9849217">
  <ele>700.33</ele>
  <time>2026-09-01T19:59:47Z</time>
  <course>347.78</course>
  <speed>24.952514903311847</speed>
  <fix>3d</fix>
</trkpt>
<trkpt lat="-35.2851289" lon="148.9849377">
  <ele>700.72</ele>
  <time>2026-09-01T19:59:47Z</time>
  <course>345.66</course>
  <speed>24.8</speed>
  <fix>3d</fix>
</trkpt>
<trkpt lat="-35.2850438" lon="148.9849177">
  <ele>700.21</ele>
  <time>2026-09-01T19:59:47Z</time>
  <course>349.34</course>
  <speed>25.000899983800583</speed>
  <fix>3d</fix>
</trkpt>
<trkpt lat="-35.2850853" lon="148.9849259">
  <ele>700.5</ele>
  <time>2026-09-01T19:59:47Z</time>
  <course>349.28</course>
  <speed>24.92</speed>
  <fix>3d</fix>
</trkpt>
<trkpt lat="-35.2850215" lon="148.9849143">
  <ele>700.09</ele>
  <time>2026-09-01T19:59:47Z</time>
  <course>350.82</course>
  <speed>25.05030139539243</speed>
  <fix>3d</fix>
</trkpt>
<trkpt lat="-35.2850853" lon="148.9849259">
  <ele>700.5</ele>
  <time>2026-09-01T19:59:47Z</time>
  <course>349.28</course>
  <speed>24.92</speed>
  <fix>3d</fix>
</trkpt>
<trkpt lat="-35.2849991" lon="148.9849117">
  <ele>699.96</ele>
  <time>2026-09-01T19:59:47Z</time>
  <course>352.23</course>
  <speed>25.100537842843128</speed>
  <fix>3d</fix>
</trkpt>
<trkpt lat="-35.2850409" lon="148.9849172">
  <ele>700.27</ele>
  <time>2026-09-01T19:59:47Z</time>
  <course>352.55</course>
  <speed>25.03</speed>
  <fix>3d</fix>
</trkpt>
<trkpt lat="-35.2849765" lon="148.9849097">
  <ele>699.83</ele>
  <time>2026-09-01T19:59:47Z</time>
  <course>353.62</course>
  <speed>25.147813026185794</speed>
  <fix>3d</fix>
</trkpt>
<trkpt lat="-35.2850409" lon="148.9849172">
  <ele>700.27</ele>
  <time>2026-09-01T19:59:47Z</time>
  <course>352.55</course>
  <speed>25.03</speed>
  <fix>3d</fix>
</trkpt>
<trkpt lat="-35.2849537" lon="148.9849083">
  <ele>699.7</ele>
  <time>2026-09-01T19:59:47Z</time>
  <course>354.84</course>
  <speed>25.20024801465255</speed>
  <fix>3d</fix>
</trkpt>
<trkpt lat="-35.2849961" lon="148.9849115">
  <ele>700.02</ele>
  <time>2026-09-01T19:59:47Z</time>
  <course>355.47</course>
  <speed>25.14</speed>
  <fix>3d</fix>
</trkpt>
<trkpt lat="-35.284931" lon="148.9849074">
  <ele>699.57</ele>
  <time>2026-09-01T19:59:47Z</time>
  <course>355.9</course>
  <speed>25.245991761069718</speed>
  <fix>3d</fix>
</trkpt>
<trkpt lat="-35.2849961" lon="148.9849115">
  <ele>700.02</ele>
  <time>2026-09-01T19:59:47Z</time>
  <course>355.47</course>
  <speed>25.14</speed>
  <fix>3d</fix>
</trkpt>
<trkpt lat="-35.2849082" lon="148.9849071">
  <ele>699.44</ele>
  <time>2026-09-01T19:59:47Z</time>
  <course>356.93</course>
  <speed>25.290506123840228</speed>
  <fix>3d</fix>
</trkpt>
<trkpt lat="-35.284951" lon="148.9849084">
  <ele>699.76</ele>
  <time>2026-09-01T19:59:47Z</time>
  <course>357.98</course>
  <speed>25.23</speed>
  <fix>3d</fix>
</trkpt>
<trkpt lat="-35.2848854" lon="148.9849072">
  <ele>699.29</ele>
  <time>2026-09-01T19:59:47Z</time>
  <course>357.95</course>
  <speed>25.330570463374883</speed>
  <fix>3d</fix>
</trkpt>
<trkpt lat="-35.284951" lon="148.9849084">
  <ele>699.76</ele>
  <time>2026-09-01T19:59:47Z</time>
  <course>357.98</course>
  <speed>25.23</speed>
  <fix>3d</fix>
</trkpt>
<trkpt lat="-35.2848625" lon="148.9849075">
  <ele>699.15</ele>
  <time>2026-09-01T19:59:47Z</time>
  <course>358.85</course>
  <speed>25.374731525673333</speed>
  <fix>3d</fix>
</trkpt>
<trkpt lat="-35.2849056" lon="148.9849074">
  <ele>699.5</ele>
  <time>2026-09-01T19:59:47Z</time>
  <course>359.95</course>
  <speed>25.32</speed>
  <fix>3d</fix>
</trkpt>
<trkpt lat="-35.2848396" lon="148.9849083">
  <ele>698.99</ele>
  <time>2026-09-01T19:59:47Z</time>
  <course>359.71</course>
  <speed>25.432272804450648</speed>
  <fix>3d</fix>
</trkpt>
<trkpt lat="-35.2849056" lon="148.9849074">
  <ele>699.5</ele>
  <time>2026-09-01T19:59:47Z</time>
  <course>359.95</course>
  <speed>25.32</speed>
  <fix>3d</fix>
</trkpt>
<trkpt lat="-35.2848167" lon="148.9849094">
  <ele>698.83</ele>
  <time>2026-09-01T19:59:47Z</time>
  <course>0.49</course>
  <speed>25.482474369652568</speed>
  <fix>3d</fix>
</trkpt>
<trkpt lat="-35.2848601" lon="148.984908">
  <ele>699.22</ele>
  <time>2026-09-01T19:59:47Z</time>
  <course>1.46</course>
  <speed>25.41</speed>
  <fix>3d</fix>
</trkpt>
<trkpt lat="-35.2847938" lon="148.9849108">
  <ele>698.66</ele>
  <time>2026-09-01T19:59:47Z</time>
  <course>1.25</course>
  <speed>25.54569631072913</speed>
  <fix>3d</fix>
</trkpt>
<trkpt lat="-35.2848601" lon="148.984908">
  <ele>699.22</ele>
  <time>2026-09-01T19:59:47Z</time>
  <course>1.46</course>
  <speed>25.41</speed>
  <fix>3d</fix>
</trkpt>
<trkpt lat="-35.2847708" lon="148.9849125">
  <ele>698.49</ele>
  <time>2026-09-01T19:59:47Z</time>
  <course>1.83</course>
  <speed>25.611286574477276</speed>
  <fix>3d</fix>
</trkpt>
<trkpt lat="-35.2848144" lon="148.9849101">
  <ele>698.92</ele>
  <time>2026-09-01T19:59:47Z</time>
  <course>2.75</course>
  <speed>25.51</speed>
  <fix>3d</fix>
</trkpt>
<trkpt lat="-35.2847477" lon="148.9849145">
  <ele>698.32</ele>
  <time>2026-09-01T19:59:47Z</time>
  <course>2.39</course>
  <speed>25.67745509196735</speed>
  <fix>3d</fix>
</trkpt>
<trkpt lat="-35.2848144" lon="148.9849101">
  <ele>698.92</ele>
  <time>2026-09-01T19:59:47Z</time>
  <course>2.75</course>
  <speed>25.51</speed>
  <fix>3d</fix>
</trkpt>
<trkpt lat="-35.2847247" lon="148.9849167">
  <ele>698.15</ele>
  <time>2026-09-01T19:59:47Z</time>
  <course>2.99</course>
  <speed>25.74497426683507</speed>
  <fix>3d</fix>
</trkpt>
<trkpt lat="-35.2847685" lon="148.9849134">
  <ele>698.6</ele>
  <time>2026-09-01T19:59:47Z</time>
  <course>3.92</course>
  <speed>25.63</speed>
  <fix>3d</fix>
</trkpt>
<trkpt lat="-35.2847017" lon="148.9849192">
  <ele>697.98</ele>
  <time>2026-09-01T19:59:47Z</time>
  <course>3.55</course>
  <speed>25.812673243970686</speed>
  <fix>3d</fix>
</trkpt>
<trkpt lat="-35.2847685" lon="148.9849134">
  <ele>698.6</ele>
  <time>2026-09-01T19:59:47Z</time>
  <course>3.92</course>
  <speed>25.63</speed>
  <fix>3d</fix>
</trkpt>
<trkpt lat="-35.2846787" lon="148.984922">
  <ele>697.82</ele>
  <time>2026-09-01T19:59:47Z</time>
  <course>4.04</course>
  <speed>25.881995672667905</speed>
  <fix>3d</fix>
</trkpt>
<trkpt lat="-35.2847224" lon="148.9849178">
  <ele>698.27</ele>
  <time>2026-09-01T19:59:47Z</time>
  <course>4.95</course>
  <speed>25.77</speed>
  <fix>3d</fix>
</trkpt>
<trkpt lat="-35.2846556" lon="148.9849249">
  <ele>697.66</ele>
  <time>2026-09-01T19:59:47Z</time>
  <course>4.54</course>
  <speed>25.949801540666936</speed>
  <fix>3d</fix>
</trkpt>
<trkpt lat="-35.2847224" lon="148.9849178">
  <ele>698.27</ele>
  <time>2026-09-01T19:59:47Z</time>
  <course>4.95</course>
  <speed>25.77</speed>
  <fix>3d</fix>
</trkpt>
<trkpt lat="-35.2846326" lon="148.984928">
  <ele>697.51</ele>
  <time>2026-09-01T19:59:47Z</time>
  <course>5.02</course>
  <speed>26.026513404603392</speed>
  <fix>3d</fix>
</trkpt>
<trkpt lat="-35.2846761" lon="148.9849232">
  <ele>697.95</ele>
  <time>2026-09-01T19:59:47Z</time>
  <course>5.81</course>
  <speed>25.92</speed>
  <fix>3d</fix>
</trkpt>
<trkpt lat="-35.2846095" lon="148.9849313">
  <ele>697.37</ele>
  <time>2026-09-01T19:59:47Z</time>
  <course>5.44</course>
  <speed>26.0830998924591</speed>
  <fix>3d</fix>
</trkpt>
<trkpt lat="-35.2846761" lon="148.9849232">
  <ele>697.95</ele>
  <time>2026-09-01T19:59:47Z</time>
  <course>5.81</course>
  <speed>25.92</speed>
  <fix>3d</fix>
</trkpt>
<trkpt lat="-35.2845865" lon="148.9849348">
  <ele>697.24</ele>
  <time>2026-09-01T19:59:47Z</time>
  <course>5.84</course>
  <speed>26.118227351793994</speed>
  <fix>3d</fix>
</trkpt>
<trkpt lat="-35.2846296" lon="148.9849294">
  <ele>697.65</ele>
  <time>2026-09-01T19:59:47Z</time>
  <course>6.53</course>
  <speed>26.07</speed>
  <fix>3d</fix>
</trkpt>
<trkpt lat="-35.2845635" lon="148.9849383">
  <ele>697.11</ele>
  <time>2026-09-01T19:59:47Z</time>
  <course>6.13</course>
  <speed>26.093190682628293</speed>
  <fix>3d</fix>
</trkpt>
<trkpt lat="-35.2846296" lon="148.9849294">
  <ele>697.65</ele>
  <time>2026-09-01T19:59:47Z</time>
  <course>6.53</course>
  <speed>26.07</speed>
  <fix>3d</fix>
</trkpt>
<trkpt lat="-35.2845405" lon="148.984942">
  <ele>697.0</ele>
  <time>2026-09-01T19:59:47Z</time>
  <course>6.34</course>
  <speed>26.014013531172</speed>
  <fix>3d</fix>
</trkpt>
<trkpt lat="-35.2845831" lon="148.9849362">
  <ele>697.38</ele>
  <time>2026-09-01T19:59:47Z</time>
  <course>7.11</course>
  <speed>26.16</speed>
  <fix>3d</fix>
</trkpt>
<trkpt lat="-35.2845176" lon="148.9849458">
  <ele>696.88</ele>
  <time>2026-09-01T19:59:47Z</time>
  <course>6.58</course>
  <speed>25.91401358338766</speed>
  <fix>3d</fix>
</trkpt>
<trkpt lat="-35.2845831" lon="148.9849362">
  <ele>697.38</ele>
  <time>2026-09-01T19:59:47Z</time>
  <course>7.11</course>
  <speed>26.16</speed>
  <fix>3d</fix>
</trkpt>
<trkpt lat="-35.2844948" lon="148.9849496">
  <ele>696.78</ele>
  <time>2026-09-01T19:59:47Z</time>
  <course>6.84</course>
  <speed>25.812942490154043</speed>
  <fix>3d</fix>
</trkpt>
<trkpt lat="-35.2845365" lon="148.9849436">
  <ele>697.13</ele>
  <time>2026-09-01T19:59:47Z</time>
  <course>7.56</course>
  <speed>26.11</speed>
  <fix>3d</fix>
</trkpt>
<trkpt lat="-35.2844719" lon="148.9849536">
  <ele>696.67</ele>
  <time>2026-09-01T19:59:47Z</time>
  <course>7.08</course>
  <speed>25.721990591709655</speed>
  <fix>3d</fix>
</trkpt>
<trkpt lat="-35.2845365" lon="148.9849436">
  <ele>697.13</ele>
  <time>2026-09-01T19:59:47Z</time>
  <course>7.56</course>
  <speed>26.11</speed>
  <fix>3d</fix>
</trkpt>
<trkpt lat="-35.2844491" lon="148.9849575">
  <ele>696.56</ele>
  <time>2026-09-01T19:59:47Z</time>
  <course>7.19</course>
  <speed>25.648266997986433</speed>
  <fix>3d</fix>
</trkpt>
<trkpt lat="-35.2844902" lon="148.9849512">
  <ele>696.91</ele>
  <time>2026-09-01T19:59:47Z</time>
  <course>7.88</course>
  <speed>25.95</speed>
  <fix>3d</fix>
</trkpt>
<trkpt lat="-35.2844264" lon="148.9849615">
  <ele>696.44</ele>
  <time>2026-09-01T19:59:47Z</time>
  <course>7.33</course>
  <speed>25.583138978632</speed>
  <fix>3d</fix>
</trkpt>
<trkpt lat="-35.2844902" lon="148.9849512">
  <ele>696.91</ele>
  <time>2026-09-01T19:59:47Z</time>
  <course>7.88</course>
  <speed>25.95</speed>
  <fix>3d</fix>
</trkpt>
<trkpt lat="-35.2844035" lon="148.9849656">
  <ele>696.3</ele>
  <time>2026-09-01T19:59:47Z</time>
  <course>7.44</course>
  <speed>25.549187854019937</speed>
  <fix>3d</fix>
</trkpt>
<trkpt lat="-35.2844441" lon="148.9849592">
  <ele>696.68</ele>
  <time>2026-09-01T19:59:47Z</time>
  <course>8.12</course>
  <speed>25.8</speed>
  <fix>3d</fix>
</trkpt>
<trkpt lat="-35.2843808" lon="148.9849697">
  <ele>696.16</ele>
  <time>2026-09-01T19:59:47Z</time>
  <course>7.53</course>
  <speed>25.512447942132095</speed>
  <fix>3d</fix>
</trkpt>
<trkpt lat="-35.2844441" lon="148.9849592">
  <ele>696.68</ele>
  <time>2026-09-01T19:59:47Z</time>
  <course>8.12</course>
  <speed>25.8</speed>
  <fix>3d</fix>
</trkpt>
<trkpt lat="-35.2843581" lon="148.9849738">
  <ele>696.01</ele>
  <time>2026-09-01T19:59:47Z</time>
  <course>7.62</course>
  <speed>25.49552509755388</speed>
  <fix>3d</fix>
</trkpt>
<trkpt lat="-35.2843984" lon="148.9849673">
  <ele>696.44</ele>
  <time>2026-09-01T19:59:47Z</time>
  <course>8.27</course>
  <speed>25.69</speed>
  <fix>3d</fix>
</trkpt>
<trkpt lat="-35.2843354" lon="148.9849779">
  <ele>695.84</ele>
  <time>2026-09-01T19:59:47Z</time>
  <course>7.7</course>
  <speed>25.498411715242188</speed>
  <fix>3d</fix>
</trkpt>
<trkpt lat="-35.2843984" lon="148.9849673">
  <ele>696.44</ele>
  <time>2026-09-01T19:59:47Z</time>
  <course>8.27</course>
  <speed>25.69</speed>
  <fix>3d</fix>
</trkpt>
<trkpt lat="-35.2843127" lon="148.9849821">
  <ele>695.67</ele>
  <time>2026-09-01T19:59:47Z</time>
  <course>7.73</course>
  <speed>25.50131369165126</speed>
  <fix>3d</fix>
</trkpt>
<trkpt lat="-35.2843527" lon="148.9849755">
  <ele>696.15</ele>
  <time>2026-09-01T19:59:47Z</time>
  <course>8.36</course>
  <speed>25.64</speed>
  <fix>3d</fix>
</trkpt>
<trkpt lat="-35.28429" lon="148.9849862">
  <ele>695.5</ele>
  <time>2026-09-01T19:59:47Z</time>
  <course>7.77</course>
  <speed>25.512663522258904</speed>
  <fix>3d</fix>
</trkpt>
<trkpt lat="-35.2843527" lon="148.9849755">
  <ele>696.15</ele>
  <time>2026-09-01T19:59:47Z</time>
  <course>8.36</course>
  <speed>25.64</speed>
  <fix>3d</fix>
</trkpt>
<trkpt lat="-35.2842674" lon="148.9849904">
  <ele>695.32</ele>
  <time>2026-09-01T19:59:47Z</time>
  <course>7.86</course>
  <speed>25.543801596473457</speed>
  <fix>3d</fix>
</trkpt>
<trkpt lat="-35.2843072" lon="148.9849837">
  <ele>695.82</ele>
  <time>2026-09-01T19:59:47Z</time>
  <course>8.42</course>
  <speed>25.64</speed>
  <fix>3d</fix>
</trkpt>
<trkpt lat="-35.2842447" lon="148.9849945">
  <ele>695.15</ele>
  <time>2026-09-01T19:59:47Z</time>
  <course>7.85</course>
  <speed>25.573480404512797</speed>
  <fix>3d</fix>
</trkpt>
<trkpt lat="-35.2843072" lon="148.9849837">
  <ele>695.82</ele>
  <time>2026-09-01T19:59:47Z</time>
  <course>8.42</course>
  <speed>25.64</speed>
  <fix>3d</fix>
</trkpt>
<trkpt lat="-35.2842219" lon="148.9849987">
  <ele>694.97</ele>
  <time>2026-09-01T19:59:47Z</time>
  <course>7.91</course>
  <speed>25.62440438332177</speed>
  <fix>3d</fix>
</trkpt>
<trkpt lat="-35.2842616" lon="148.984992">
  <ele>695.47</ele>
  <time>2026-09-01T19:59:47Z</time>
  <course>8.43</course>
  <speed>25.69</speed>
  <fix>3d</fix>
</trkpt>
<trkpt lat="-35.2841991" lon="148.9850029">
  <ele>694.8</ele>
  <time>2026-09-01T19:59:47Z</time>
  <course>7.95</course>
  <speed>25.673869984869828</speed>
  <fix>3d</fix>
</trkpt>
<trkpt lat="-35.2842616" lon="148.984992">
  <ele>695.47</ele>
  <time>2026-09-01T19:59:47Z</time>
  <course>8.43</course>
  <speed>25.69</speed>
  <fix>3d</fix>
</trkpt>
<trkpt lat="-35.2841761" lon="148.9850071">
  <ele>694.64</ele>
  <time>2026-09-01T19:59:47Z</time>
  <course>7.95</course>
  <speed>25.73323143330429</speed>
  <fix>3d</fix>
</trkpt>
<trkpt lat="-35.2842158" lon="148.9850003">
  <ele>695.12</ele>
  <time>2026-09-01T19:59:47Z</time>
  <course>8.4</course>
  <speed>25.76</speed>
  <fix>3d</fix>
</trkpt>
<trkpt lat="-35.2841531" lon="148.9850112">
  <ele>694.48</ele>
  <time>2026-09-01T19:59:47Z</time>
  <course>7.97</course>
  <speed>25.80394155938197</speed>
  <fix>3d</fix>
</trkpt>
<trkpt lat="-35.2842158" lon="148.9850003">
  <ele>695.12</ele>
  <time>2026-09-01T19:59:47Z</time>
  <course>8.4</course>
  <speed>25.76</speed>
  <fix>3d</fix>
</trkpt>
<trkpt lat="-35.2841299" lon="148.9850154">
  <ele>694.33</ele>
  <time>2026-09-01T19:59:47Z</time>
  <course>7.97</course>
  <speed>25.87320042051234</speed>
  <fix>3d</fix>
</trkpt>
<trkpt lat="-35.2841698" lon="148.9850086">
  <ele>694.79</ele>
  <time>2026-09-01T19:59:47Z</time>
  <course>8.36</course>
  <speed>25.87</speed>
  <fix>3d</fix>
</trkpt>
<trkpt lat="-35.2841067" lon="148.9850196">
  <ele>694.2</ele>
  <time>2026-09-01T19:59:47Z</time>
  <course>7.89</course>
  <speed>25.943910653561847</speed>
  <fix>3d</fix>
</trkpt>
<trkpt lat="-35.2841698" lon="148.9850086">
  <ele>694.79</ele>
  <time>2026-09-01T19:59:47Z</time>
  <course>8.36</course>
  <speed>25.87</speed>
  <fix>3d</fix>
</trkpt>
<trkpt lat="-35.2840833" lon="148.9850238">
  <ele>694.07</ele>
  <time>2026-09-01T19:59:47Z</time>
  <course>7.84</course>
  <speed>26.02162562177851</speed>
  <fix>3d</fix>
</trkpt>
<trkpt lat="-35.2841237" lon="148.9850169">
  <ele>694.49</ele>
  <time>2026-09-01T19:59:47Z</time>
  <course>8.31</course>
  <speed>26.0</speed>
  <fix>3d</fix>
</trkpt>
<trkpt lat="-35.28406" lon="148.985028">
  <ele>693.96</ele>
  <time>2026-09-01T19:59:47Z</time>
  <course>7.81</course>
  <speed>26.079564796982332</speed>
  <fix>3d</fix>
</trkpt>
<trkpt lat="-35.2841237" lon="148.9850169">
  <ele>694.49</ele>
  <time>2026-09-01T19:59:47Z</time>
  <course>8.31</course>
  <speed>26.0</speed>
  <fix>3d</fix>
</trkpt>
<trkpt lat="-35.2840364" lon="148.9850322">
  <ele>693.87</ele>
  <time>2026-09-01T19:59:47Z</time>
  <course>7.81</course>
  <speed>26.158740413100933</speed>
  <fix>3d</fix>
</trkpt>
<trkpt lat="-35.2840774" lon="148.9850252">
  <ele>694.24</ele>
  <time>2026-09-01T19:59:47Z</time>
  <course>8.24</course>
  <speed>26.12</speed>
  <fix>3d</fix>
</trkpt>
<trkpt lat="-35.284013" lon="148.9850364">
  <ele>693.78</ele>
  <time>2026-09-01T19:59:47Z</time>
  <course>7.76</course>
  <speed>26.218125409723708</speed>
  <fix>3d</fix>
</trkpt>
<trkpt lat="-35.2840774" lon="148.9850252">
  <ele>694.24</ele>
  <time>2026-09-01T19:59:47Z</time>
  <course>8.24</course>
  <speed>26.12</speed>
  <fix>3d</fix>
</trkpt>
<trkpt lat="-35.2839897" lon="148.9850405">
  <ele>693.71</ele>
  <time>2026-09-01T19:59:47Z</time>
  <course>7.7</course>
  <speed>26.285990565318247</speed>
  <fix>3d</fix>
</trkpt>
<trkpt lat="-35.2840309" lon="148.9850334">
  <ele>694.04</ele>
  <time>2026-09-01T19:59:47Z</time>
  <course>8.16</course>
  <speed>26.24</speed>
  <fix>3d</fix>
</trkpt>
<trkpt lat="-35.2839662" lon="148.9850446">
  <ele>693.64</ele>
  <time>2026-09-01T19:59:47Z</time>
  <course>7.71</course>
  <speed>26.334071086711983</speed>
  <fix>3d</fix>
</trkpt>
<trkpt lat="-35.2840309" lon="148.9850334">
  <ele>694.04</ele>
  <time>2026-09-01T19:59:47Z</time>
  <course>8.16</course>
  <speed>26.24</speed>
  <fix>3d</fix>
</trkpt>
<trkpt lat="-35.2839427" lon="148.9850487">
  <ele>693.59</ele>
  <time>2026-09-01T19:59:47Z</time>
  <course>7.66</course>
  <speed>26.392063200894317</speed>
  <fix>3d</fix>
</trkpt>
<trkpt lat="-35.2839841" lon="148.9850416">
  <ele>693.89</ele>
  <time>2026-09-01T19:59:47Z</time>
  <course>8.07</course>
  <speed>26.35</speed>
  <fix>3d</fix>
</trkpt>
<trkpt lat="-35.2839191" lon="148.9850528">
  <ele>693.54</ele>
  <time>2026-09-01T19:59:47Z</time>
  <course>7.65</course>
  <speed>26.430264849221622</speed>
  <fix>3d</fix>
</trkpt>
<trkpt lat="-35.2839841" lon="148.9850416">
  <ele>693.89</ele>
  <time>2026-09-01T19:59:47Z</time>
  <course>8.07</course>
  <speed>26.35</speed>
  <fix>3d</fix>
</trkpt>
<trkpt lat="-35.2838954" lon="148.9850569">
  <ele>693.51</ele>
  <time>2026-09-01T19:59:47Z</time>
  <course>7.61</course>
  <speed>26.478377971469477</speed>
  <fix>3d</fix>
</trkpt>
<trkpt lat="-35.2839371" lon="148.9850497">
  <ele>693.77</ele>
  <time>2026-09-01T19:59:47Z</time>
  <course>7.98</course>
  <speed>26.45</speed>
  <fix>3d</fix>
</trkpt>
<trkpt lat="-35.2838718" lon="148.9850609">
  <ele>693.48</ele>
  <time>2026-09-01T19:59:47Z</time>
  <course>7.51</course>
  <speed>26.52650184249706</speed>
  <fix>3d</fix>
</trkpt>
<trkpt lat="-35.2839371" lon="148.9850497">
  <ele>693.77</ele>
  <time>2026-09-01T19:59:47Z</time>
  <course>7.98</course>
  <speed>26.45</speed>
  <fix>3d</fix>
</trkpt>
<trkpt lat="-35.2838481" lon="148.985065">
  <ele>693.47</ele>
  <time>2026-09-01T19:59:47Z</time>
  <course>7.39</course>
  <speed>26.554828186226324</speed>
  <fix>3d</fix>
</trkpt>
<trkpt lat="-35.28389" lon="148.9850578">
  <ele>693.69</ele>
  <time>2026-09-01T19:59:47Z</time>
  <course>7.9</course>
  <speed>26.54</speed>
  <fix>3d</fix>
</trkpt>
<trkpt lat="-35.2838243" lon="148.985069">
  <ele>693.46</ele>
  <time>2026-09-01T19:59:47Z</time>
  <course>7.32</course>
  <speed>26.58041572285881</speed>
  <fix>3d</fix>
</trkpt>
<trkpt lat="-35.28389" lon="148.9850578">
  <ele>693.69</ele>
  <time>2026-09-01T19:59:47Z</time>
  <course>7.9</course>
  <speed>26.54</speed>
  <fix>3d</fix>
</trkpt>
<trkpt lat="-35.2838005" lon="148.985073">
  <ele>693.46</ele>
  <time>2026-09-01T19:59:47Z</time>
  <course>7.3</course>
  <speed>26.617312035590672</speed>
  <fix>3d</fix>
</trkpt>
<trkpt lat="-35.2838427" lon="148.9850657">
  <ele>693.66</ele>
  <time>2026-09-01T19:59:47Z</time>
  <course>7.8</course>
  <speed>26.61</speed>
  <fix>3d</fix>
</trkpt>
<trkpt lat="-35.2837767" lon="148.985077">
  <ele>693.47</ele>
  <time>2026-09-01T19:59:47Z</time>
  <course>7.31</course>
  <speed>26.644323973409424</speed>
  <fix>3d</fix>
</trkpt>
<trkpt lat="-35.2838427" lon="148.9850657">
  <ele>693.66</ele>
  <time>2026-09-01T19:59:47Z</time>
  <course>7.8</course>
  <speed>26.61</speed>
  <fix>3d</fix>
</trkpt>
<trkpt lat="-35.2837527" lon="148.9850809">
  <ele>693.47</ele>
  <time>2026-09-01T19:59:48Z</time>
  <course>7.3</course>
  <speed>26.681266836490355</speed>
  <fix>3d</fix>
</trkpt>
<trkpt lat="-35.2837953" lon="148.9850736">
  <ele>693.65</ele>
  <time>2026-09-01T19:59:48Z</time>
  <course>7.68</course>
  <speed>26.67</speed>
  <fix>3d</fix>
</trkpt>
<trkpt lat="-35.2837288" lon="148.9850848">
  <ele>693.48</ele>
  <time>2026-09-01T19:59:48Z</time>
  <course>7.28</course>
  <speed>26.69974718981436</speed>
  <fix>3d</fix>
</trkpt>
<trkpt lat="-35.2837953" lon="148.9850736">
  <ele>693.65</ele>
  <time>2026-09-01T19:59:48Z</time>
  <course>7.68</course>
  <speed>26.67</speed>
  <fix>3d</fix>
</trkpt>
<trkpt lat="-35.2837048" lon="148.9850887">
  <ele>693.49</ele>
  <time>2026-09-01T19:59:48Z</time>
  <course>7.23</course>
  <speed>26.736725678362337</speed>
  <fix>3d</fix>
</trkpt>
<trkpt lat="-35.2837477" lon="148.9850814">
  <ele>693.66</ele>
  <time>2026-09-01T19:59:48Z</time>
  <course>7.57</course>
  <speed>26.71</speed>
  <fix>3d</fix>
</trkpt>
<trkpt lat="-35.2836808" lon="148.9850926">
  <ele>693.5</ele>
  <time>2026-09-01T19:59:48Z</time>
  <course>7.15</course>
  <speed>26.765135904754903</speed>
  <fix>3d</fix>
</trkpt>
<trkpt lat="-35.2837477" lon="148.9850814">
  <ele>693.66</ele>
  <time>2026-09-01T19:59:48Z</time>
  <course>7.57</course>
  <speed>26.71</speed>
  <fix>3d</fix>
</trkpt>
<trkpt lat="-35.2836568" lon="148.9850965">
  <ele>693.51</ele>
  <time>2026-09-01T19:59:48Z</time>
  <course>7.06</course>
  <speed>26.782324395018446</speed>
  <fix>3d</fix>
</trkpt>
<trkpt lat="-35.2836999" lon="148.9850892">
  <ele>693.68</ele>
  <time>2026-09-01T19:59:48Z</time>
  <course>7.47</course>
  <speed>26.75</speed>
  <fix>3d</fix>
</trkpt>
<trkpt lat="-35.2836328" lon="148.9851003">
  <ele>693.52</ele>
  <time>2026-09-01T19:59:48Z</time>
  <course>7.02</course>
  <speed>26.809446096478755</speed>
  <fix>3d</fix>
</trkpt>
<trkpt lat="-35.2836999" lon="148.9850892">
  <ele>693.68</ele>
  <time>2026-09-01T19:59:48Z</time>
  <course>7.47</course>
  <speed>26.75</speed>
  <fix>3d</fix>
</trkpt>
<trkpt lat="-35.2836087" lon="148.9851041">
  <ele>693.54</ele>
  <time>2026-09-01T19:59:48Z</time>
  <course>7.0</course>
  <speed>26.827972342314652</speed>
  <fix>3d</fix>
</trkpt>
<trkpt lat="-35.2836523" lon="148.9850968">
  <ele>693.69</ele>
  <time>2026-09-01T19:59:48Z</time>
  <course>7.38</course>
  <speed>26.79</speed>
  <fix>3d</fix>
</trkpt>
<trkpt lat="-35.2835846" lon="148.9851079">
  <ele>693.55</ele>
  <time>2026-09-01T19:59:48Z</time>
  <course>6.94</course>
  <speed>26.835293924233437</speed>
  <fix>3d</fix>
</trkpt>
<trkpt lat="-35.2836523" lon="148.9850968">
  <ele>693.69</ele>
  <time>2026-09-01T19:59:48Z</time>
  <course>7.38</course>
  <speed>26.79</speed>
  <fix>3d</fix>
</trkpt>
<trkpt lat="-35.2835607" lon="148.9851117">
  <ele>693.57</ele>
  <time>2026-09-01T19:59:48Z</time>
  <course>6.89</course>
  <speed>26.84263213621198</speed>
  <fix>3d</fix>
</trkpt>
<trkpt lat="-35.2836045" lon="148.9851043">
  <ele>693.71</ele>
  <time>2026-09-01T19:59:48Z</time>
  <course>7.3</course>
  <speed>26.81</speed>
  <fix>3d</fix>
</trkpt>
<trkpt lat="-35.2835367" lon="148.9851154">
  <ele>693.58</ele>
  <time>2026-09-01T19:59:48Z</time>
  <course>6.91</course>
  <speed>26.841348699348178</speed>
  <fix>3d</fix>
</trkpt>
<trkpt lat="-35.2836045" lon="148.9851043">
  <ele>693.71</ele>
  <time>2026-09-01T19:59:48Z</time>
  <course>7.3</course>
  <speed>26.81</speed>
  <fix>3d</fix>
</trkpt>
<trkpt lat="-35.2835129" lon="148.9851191">
  <ele>693.6</ele>
  <time>2026-09-01T19:59:48Z</time>
  <course>6.98</course>
  <speed>26.848711328479062</speed>
  <fix>3d</fix>
</trkpt>
<trkpt lat="-35.2835568" lon="148.9851118">
  <ele>693.74</ele>
  <time>2026-09-01T19:59:48Z</time>
  <course>7.22</course>
  <speed>26.82</speed>
  <fix>3d</fix>
</trkpt>
<trkpt lat="-35.2834892" lon="148.9851228">
  <ele>693.61</ele>
  <time>2026-09-01T19:59:48Z</time>
  <course>6.98</course>
  <speed>26.83879281935013</speed>
  <fix>3d</fix>
</trkpt>
<trkpt lat="-35.2835568" lon="148.9851118">
  <ele>693.74</ele>
  <time>2026-09-01T19:59:48Z</time>
  <course>7.22</course>
  <speed>26.82</speed>
  <fix>3d</fix>
</trkpt>
<trkpt lat="-35.2834652" lon="148.9851265">
  <ele>693.62</ele>
  <time>2026-09-01T19:59:48Z</time>
  <course>6.88</course>
  <speed>26.837520377262873</speed>
  <fix>3d</fix>
</trkpt>
<trkpt lat="-35.2835089" lon="148.9851191">
  <ele>693.77</ele>
  <time>2026-09-01T19:59:48Z</time>
  <course>7.16</course>
  <speed>26.82</speed>
  <fix>3d</fix>
</trkpt>
<trkpt lat="-35.2834412" lon="148.9851302">
  <ele>693.64</ele>
  <time>2026-09-01T19:59:48Z</time>
  <course>6.86</course>
  <speed>26.84617104914591</speed>
  <fix>3d</fix>
</trkpt>
<trkpt lat="-35.2835089" lon="148.9851191">
  <ele>693.77</ele>
  <time>2026-09-01T19:59:48Z</time>
  <course>7.16</course>
  <speed>26.82</speed>
  <fix>3d</fix>
</trkpt>
<trkpt lat="-35.2834171" lon="148.9851339">
  <ele>693.65</ele>
  <time>2026-09-01T19:59:48Z</time>
  <course>6.87</course>
  <speed>26.84617104914591</speed>
  <fix>3d</fix>
</trkpt>
<trkpt lat="-35.2834612" lon="148.9851265">
  <ele>693.8</ele>
  <time>2026-09-01T19:59:48Z</time>
  <course>7.12</course>
  <speed>26.82</speed>
  <fix>3d</fix>
</trkpt>
<trkpt lat="-35.2833929" lon="148.9851376">
  <ele>693.66</ele>
  <time>2026-09-01T19:59:48Z</time>
  <course>6.91</course>
  <speed>26.844906406989015</speed>
  <fix>3d</fix>
</trkpt>
<trkpt lat="-35.2834612" lon="148.9851265">
  <ele>693.8</ele>
  <time>2026-09-01T19:59:48Z</time>
  <course>7.12</course>
  <speed>26.82</speed>
  <fix>3d</fix>
</trkpt>
<trkpt lat="-35.2833688" lon="148.9851413">
  <ele>693.67</ele>
  <time>2026-09-01T19:59:48Z</time>
  <course>6.89</course>
  <speed>26.844906406989015</speed>
  <fix>3d</fix>
</trkpt>
<trkpt lat="-35.2834134" lon="148.9851338">
  <ele>693.82</ele>
  <time>2026-09-01T19:59:48Z</time>
  <course>7.09</course>
  <speed>26.81</speed>
  <fix>3d</fix>
</trkpt>
<trkpt lat="-35.2833448" lon="148.9851449">
  <ele>693.68</ele>
  <time>2026-09-01T19:59:48Z</time>
  <course>6.84</course>
  <speed>26.833725048900682</speed>
  <fix>3d</fix>
</trkpt>
<trkpt lat="-35.2834134" lon="148.9851338">
  <ele>693.82</ele>
  <time>2026-09-01T19:59:48Z</time>
  <course>7.09</course>
  <speed>26.81</speed>
  <fix>3d</fix>
</trkpt>
<trkpt lat="-35.2833208" lon="148.9851486">
  <ele>693.69</ele>
  <time>2026-09-01T19:59:48Z</time>
  <course>6.84</course>
  <speed>26.833725048900682</speed>
  <fix>3d</fix>
</trkpt>
<trkpt lat="-35.2833655" lon="148.9851411">
  <ele>693.84</ele>
  <time>2026-09-01T19:59:48Z</time>
  <course>7.07</course>
  <speed>26.8</speed>
  <fix>3d</fix>
</trkpt>
<trkpt lat="-35.2832968" lon="148.9851522">
  <ele>693.69</ele>
  <time>2026-09-01T19:59:48Z</time>
  <course>6.8</course>
  <speed>26.832467273808426</speed>
  <fix>3d</fix>
</trkpt>
<trkpt lat="-35.2833655" lon="148.9851411">
  <ele>693.84</ele>
  <time>2026-09-01T19:59:48Z</time>
  <course>7.07</course>
  <speed>26.8</speed>
  <fix>3d</fix>
</trkpt>
<trkpt lat="-35.2832728" lon="148.9851559">
  <ele>693.7</ele>
  <time>2026-09-01T19:59:48Z</time>
  <course>6.75</course>
  <speed>26.831213166757852</speed>
  <fix>3d</fix>
</trkpt>
<trkpt lat="-35.2833178" lon="148.9851484">
  <ele>693.85</ele>
  <time>2026-09-01T19:59:48Z</time>
  <course>7.06</course>
  <speed>26.78</speed>
  <fix>3d</fix>
</trkpt>
<trkpt lat="-35.2832488" lon="148.9851595">
  <ele>693.7</ele>
  <time>2026-09-01T19:59:48Z</time>
  <course>6.8</course>
  <speed>26.831213166757852</speed>
  <fix>3d</fix>
</trkpt>
<trkpt lat="-35.2833178" lon="148.9851484">
  <ele>693.85</ele>
  <time>2026-09-01T19:59:48Z</time>
  <course>7.06</course>
  <speed>26.78</speed>
  <fix>3d</fix>
</trkpt>
<trkpt lat="-35.2832248" lon="148.9851631">
  <ele>693.71</ele>
  <time>2026-09-01T19:59:48Z</time>
  <course>6.78</course>
  <speed>26.820041014137168</speed>
  <fix>3d</fix>
</trkpt>
<trkpt lat="-35.2832701" lon="148.9851555">
  <ele>693.86</ele>
  <time>2026-09-01T19:59:48Z</time>
  <course>7.04</course>
  <speed>26.77</speed>
  <fix>3d</fix>
</trkpt>
<trkpt lat="-35.2832008" lon="148.9851668">
  <ele>693.71</ele>
  <time>2026-09-01T19:59:48Z</time>
  <course>6.79</course>
  <speed>26.818793783464614</speed>
  <fix>3d</fix>
</trkpt>
<trkpt lat="-35.2832701" lon="148.9851555">
  <ele>693.86</ele>
  <time>2026-09-01T19:59:48Z</time>
  <course>7.04</course>
  <speed>26.77</speed>
  <fix>3d</fix>
</trkpt>
<trkpt lat="-35.2831769" lon="148.9851703">
  <ele>693.71</ele>
  <time>2026-09-01T19:59:48Z</time>
  <course>6.77</course>
  <speed>26.80762764587721</speed>
  <fix>3d</fix>
</trkpt>
<trkpt lat="-35.2832223" lon="148.9851628">
  <ele>693.87</ele>
  <time>2026-09-01T19:59:48Z</time>
  <course>7.01</course>
  <speed>26.75</speed>
  <fix>3d</fix>
</trkpt>
<trkpt lat="-35.2831527" lon="148.985174">
  <ele>693.7</ele>
  <time>2026-09-01T19:59:48Z</time>
  <course>6.76</course>
  <speed>26.806387298552558</speed>
  <fix>3d</fix>
</trkpt>
<trkpt lat="-35.2832223" lon="148.9851628">
  <ele>693.87</ele>
  <time>2026-09-01T19:59:48Z</time>
  <course>7.01</course>
  <speed>26.75</speed>
  <fix>3d</fix>
</trkpt>
<trkpt lat="-35.2831288" lon="148.9851775">
  <ele>693.69</ele>
  <time>2026-09-01T19:59:48Z</time>
  <course>6.75</course>
  <speed>26.795227186945066</speed>
  <fix>3d</fix>
</trkpt>
<trkpt lat="-35.2831745" lon="148.98517">
  <ele>693.86</ele>
  <time>2026-09-01T19:59:48Z</time>
  <course>6.98</course>
  <speed>26.73</speed>
  <fix>3d</fix>
</trkpt>
<trkpt lat="-35.2831049" lon="148.9851811">
  <ele>693.68</ele>
  <time>2026-09-01T19:59:48Z</time>
  <course>6.76</course>
  <speed>26.7853038063786</speed>
  <fix>3d</fix>
</trkpt>
<trkpt lat="-35.2831745" lon="148.98517">
  <ele>693.86</ele>
  <time>2026-09-01T19:59:48Z</time>
  <course>6.98</course>
  <speed>26.73</speed>
  <fix>3d</fix>
</trkpt>
<trkpt lat="-35.2830811" lon="148.9851847">
  <ele>693.67</ele>
  <time>2026-09-01T19:59:48Z</time>
  <course>6.73</course>
  <speed>26.764222387358835</speed>
  <fix>3d</fix>
</trkpt>
<trkpt lat="-35.2831269" lon="148.9851771">
  <ele>693.85</ele>
  <time>2026-09-01T19:59:48Z</time>
  <course>6.95</course>
  <speed>26.71</speed>
  <fix>3d</fix>
</trkpt>
<trkpt lat="-35.2830574" lon="148.9851882">
  <ele>693.66</ele>
  <time>2026-09-01T19:59:48Z</time>
  <course>6.7</course>
  <speed>26.743143046396025</speed>
  <fix>3d</fix>
</trkpt>
<trkpt lat="-35.2831269" lon="148.9851771">
  <ele>693.85</ele>
  <time>2026-09-01T19:59:48Z</time>
  <course>6.95</course>
  <speed>26.71</speed>
  <fix>3d</fix>
</trkpt>
<trkpt lat="-35.2830338" lon="148.9851917">
  <ele>693.65</ele>
  <time>2026-09-01T19:59:48Z</time>
  <course>6.71</course>
  <speed>26.722065788407903</speed>
  <fix>3d</fix>
</trkpt>
<trkpt lat="-35.2830793" lon="148.9851842">
  <ele>693.83</ele>
  <time>2026-09-01T19:59:48Z</time>
  <course>6.93</course>
  <speed>26.69</speed>
  <fix>3d</fix>
</trkpt>
<trkpt lat="-35.2830103" lon="148.9851952">
  <ele>693.64</ele>
  <time>2026-09-01T19:59:48Z</time>
  <course>6.72</course>
  <speed>26.691065921015593</speed>
  <fix>3d</fix>
</trkpt>
<trkpt lat="-35.2830793" lon="148.9851842">
  <ele>693.83</ele>
  <time>2026-09-01T19:59:48Z</time>
  <course>6.93</course>
  <speed>26.69</speed>
  <fix>3d</fix>
</trkpt>
<trkpt lat="-35.2829866" lon="148.9851987">
  <ele>693.62</ele>
  <time>2026-09-01T19:59:48Z</time>
  <course>6.71</course>
  <speed>26.681141279937783</speed>
  <fix>3d</fix>
</trkpt>
<trkpt lat="-35.2830317" lon="148.9851913">
  <ele>693.81</ele>
  <time>2026-09-01T19:59:48Z</time>
  <course>6.91</course>
  <speed>26.66</speed>
  <fix>3d</fix>
</trkpt>
<trkpt lat="-35.2829629" lon="148.9852022">
  <ele>693.61</ele>
  <time>2026-09-01T19:59:48Z</time>
  <course>6.67</course>
  <speed>26.660067516793724</speed>
  <fix>3d</fix>
</trkpt>
<trkpt lat="-35.2830317" lon="148.9851913">
  <ele>693.81</ele>
  <time>2026-09-01T19:59:48Z</time>
  <course>6.91</course>
  <speed>26.66</speed>
  <fix>3d</fix>
</trkpt>
<trkpt lat="-35.2829392" lon="148.9852057">
  <ele>693.59</ele>
  <time>2026-09-01T19:59:48Z</time>
  <course>6.62</course>
  <speed>26.63899585194607</speed>
  <fix>3d</fix>
</trkpt>
<trkpt lat="-35.2829842" lon="148.9851984">
  <ele>693.78</ele>
  <time>2026-09-01T19:59:48Z</time>
  <course>6.89</course>
  <speed>26.63</speed>
  <fix>3d</fix>
</trkpt>
<trkpt lat="-35.2829154" lon="148.9852092">
  <ele>693.57</ele>
  <time>2026-09-01T19:59:48Z</time>
  <course>6.63</course>
  <speed>26.627851959930975</speed>
  <fix>3d</fix>
</trkpt>
<trkpt lat="-35.2829842" lon="148.9851984">
  <ele>693.78</ele>
  <time>2026-09-01T19:59:48Z</time>
  <course>6.89</course>
  <speed>26.63</speed>
  <fix>3d</fix>
</trkpt>
<trkpt lat="-35.2828915" lon="148.9852127">
  <ele>693.55</ele>
  <time>2026-09-01T19:59:48Z</time>
  <course>6.62</course>
  <speed>26.60678484898166</speed>
  <fix>3d</fix>
</trkpt>
<trkpt lat="-35.2829367" lon="148.9852053">
  <ele>693.74</ele>
  <time>2026-09-01T19:59:48Z</time>
  <course>6.86</course>
  <speed>26.6</speed>
  <fix>3d</fix>
</trkpt>
<trkpt lat="-35.2828677" lon="148.9852162">
  <ele>693.53</ele>
  <time>2026-09-01T19:59:48Z</time>
  <course>6.56</course>
  <speed>26.595646260243424</speed>
  <fix>3d</fix>
</trkpt>
<trkpt lat="-35.2829367" lon="148.9852053">
  <ele>693.74</ele>
  <time>2026-09-01T19:59:48Z</time>
  <course>6.86</course>
  <speed>26.6</speed>
  <fix>3d</fix>
</trkpt>
<trkpt lat="-35.282844" lon="148.9852197">
  <ele>693.52</ele>
  <time>2026-09-01T19:59:48Z</time>
  <course>6.57</course>
  <speed>26.574583722045396</speed>
  <fix>3d</fix>
</trkpt>
<trkpt lat="-35.2828893" lon="148.9852124">
  <ele>693.69</ele>
  <time>2026-09-01T19:59:48Z</time>
  <course>6.83</course>
  <speed>26.57</speed>
  <fix>3d</fix>
</trkpt>
<trkpt lat="-35.2828203" lon="148.9852231">
  <ele>693.5</ele>
  <time>2026-09-01T19:59:48Z</time>
  <course>6.65</course>
  <speed>26.563450453583773</speed>
  <fix>3d</fix>
</trkpt>
<trkpt lat="-35.2828893" lon="148.9852124">
  <ele>693.69</ele>
  <time>2026-09-01T19:59:48Z</time>
  <course>6.83</course>
  <speed>26.57</speed>
  <fix>3d</fix>
</trkpt>
<trkpt lat="-35.2827966" lon="148.9852266">
  <ele>693.49</ele>
  <time>2026-09-01T19:59:48Z</time>
  <course>6.67</course>
  <speed>26.543596214529785</speed>
  <fix>3d</fix>
</trkpt>
<trkpt lat="-35.2828419" lon="148.9852193">
  <ele>693.66</ele>
  <time>2026-09-01T19:59:48Z</time>
  <course>6.81</course>
  <speed>26.53</speed>
  <fix>3d</fix>
</trkpt>
<trkpt lat="-35.2827729" lon="148.98523">
  <ele>693.47</ele>
  <time>2026-09-01T19:59:48Z</time>
  <course>6.64</course>
  <speed>26.523742194494353</speed>
  <fix>3d</fix>
</trkpt>
<trkpt lat="-35.2828419" lon="148.9852193">
  <ele>693.66</ele>
  <time>2026-09-01T19:59:48Z</time>
  <course>6.81</course>
  <speed>26.53</speed>
  <fix>3d</fix>
</trkpt>
<trkpt lat="-35.2827493" lon="148.9852335">
  <ele>693.46</ele>
  <time>2026-09-01T19:59:48Z</time>
  <course>6.62</course>
  <speed>26.502682883059215</speed>
  <fix>3d</fix>
</trkpt>
<trkpt lat="-35.2827946" lon="148.9852262">
  <ele>693.63</ele>
  <time>2026-09-01T19:59:48Z</time>
  <course>6.8</course>
  <speed>26.5</speed>
  <fix>3d</fix>
</trkpt>
<trkpt lat="-35.2827256" lon="148.9852369">
  <ele>693.45</ele>
  <time>2026-09-01T19:59:48Z</time>
  <course>6.6</course>
  <speed>26.482828398794567</speed>
  <fix>3d</fix>
</trkpt>
<trkpt lat="-35.2827946" lon="148.9852262">
  <ele>693.63</ele>
  <time>2026-09-01T19:59:48Z</time>
  <course>6.8</course>
  <speed>26.5</speed>
  <fix>3d</fix>
</trkpt>
<trkpt lat="-35.282702" lon="148.9852404">
  <ele>693.43</ele>
  <time>2026-09-01T19:59:48Z</time>
  <course>6.6</course>
  <speed>26.461770537891073</speed>
  <fix>3d</fix>
</trkpt>
<trkpt lat="-35.2827474" lon="148.9852331">
  <ele>693.59</ele>
  <time>2026-09-01T19:59:48Z</time>
  <course>6.8</course>
  <speed>26.46</speed>
  <fix>3d</fix>
</trkpt>
<trkpt lat="-35.2826784" lon="148.9852438">
  <ele>693.42</ele>
  <time>2026-09-01T19:59:48Z</time>
  <course>6.64</course>
  <speed>26.441915588701207</speed>
  <fix>3d</fix>
</trkpt>
<trkpt lat="-35.2827474" lon="148.9852331">
  <ele>693.59</ele>
  <time>2026-09-01T19:59:48Z</time>
  <course>6.8</course>
  <speed>26.46</speed>
  <fix>3d</fix>
</trkpt>
<trkpt lat="-35.2826548" lon="148.9852472">
  <ele>693.42</ele>
  <time>2026-09-01T19:59:48Z</time>
  <course>6.66</course>
  <speed>26.422060858305507</speed>
  <fix>3d</fix>
</trkpt>
<trkpt lat="-35.2827001" lon="148.98524">
  <ele>693.57</ele>
  <time>2026-09-01T19:59:48Z</time>
  <course>6.79</course>
  <speed>26.42</speed>
  <fix>3d</fix>
</trkpt>
<trkpt lat="-35.2826313" lon="148.9852507">
  <ele>693.42</ele>
  <time>2026-09-01T19:59:48Z</time>
  <course>6.64</course>
  <speed>26.39107614327237</speed>
  <fix>3d</fix>
</trkpt>
<trkpt lat="-35.2827001" lon="148.98524">
  <ele>693.57</ele>
  <time>2026-09-01T19:59:48Z</time>
  <course>6.79</course>
  <speed>26.42</speed>
  <fix>3d</fix>
</trkpt>
<trkpt lat="-35.2826079" lon="148.9852541">
  <ele>693.41</ele>
  <time>2026-09-01T19:59:48Z</time>
  <course>6.59</course>
  <speed>26.36009294369047</speed>
  <fix>3d</fix>
</trkpt>
<trkpt lat="-35.2826529" lon="148.9852469">
  <ele>693.55</ele>
  <time>2026-09-01T19:59:48Z</time>
  <course>6.79</course>
  <speed>26.38</speed>
  <fix>3d</fix>
</trkpt>
<trkpt lat="-35.2825845" lon="148.9852575">
  <ele>693.41</ele>
  <time>2026-09-01T19:59:48Z</time>
  <course>6.6</course>
  <speed>26.330309531032864</speed>
  <fix>3d</fix>
</trkpt>
<trkpt lat="-35.2826529" lon="148.9852469">
  <ele>693.55</ele>
  <time>2026-09-01T19:59:48Z</time>
  <course>6.79</course>
  <speed>26.38</speed>
  <fix>3d</fix>
</trkpt>
<trkpt lat="-35.2825612" lon="148.9852609">
  <ele>693.41</ele>
  <time>2026-09-01T19:59:48Z</time>
  <course>6.62</course>
  <speed>26.299326987586582</speed>
  <fix>3d</fix>
</trkpt>
<trkpt lat="-35.282606" lon="148.9852538">
  <ele>693.54</ele>
  <time>2026-09-01T19:59:48Z</time>
  <course>6.79</course>
  <speed>26.33</speed>
  <fix>3d</fix>
</trkpt>
<trkpt lat="-35.2825379" lon="148.9852642">
  <ele>693.4</ele>
  <time>2026-09-01T19:59:48Z</time>
  <course>6.64</course>
  <speed>26.26954320120546</speed>
  <fix>3d</fix>
</trkpt>
<trkpt lat="-35.282606" lon="148.9852538">
  <ele>693.54</ele>
  <time>2026-09-01T19:59:48Z</time>
  <course>6.79</course>
  <speed>26.33</speed>
  <fix>3d</fix>
</trkpt>
<trkpt lat="-35.2825147" lon="148.9852676">
  <ele>693.4</ele>
  <time>2026-09-01T19:59:48Z</time>
  <course>6.63</course>
  <speed>26.238561317267376</speed>
  <fix>3d</fix>
</trkpt>
<trkpt lat="-35.282559" lon="148.9852606">
  <ele>693.53</ele>
  <time>2026-09-01T19:59:48Z</time>
  <course>6.79</course>
  <speed>26.29</speed>
  <fix>3d</fix>
</trkpt>
<trkpt lat="-35.2824915" lon="148.985271">
  <ele>693.4</ele>
  <time>2026-09-01T19:59:48Z</time>
  <course>6.66</course>
  <speed>26.208777155754518</speed>
  <fix>3d</fix>
</trkpt>
<trkpt lat="-35.282559" lon="148.9852606">
  <ele>693.53</ele>
  <time>2026-09-01T19:59:48Z</time>
  <course>6.79</course>
  <speed>26.29</speed>
  <fix>3d</fix>
</trkpt>
<trkpt lat="-35.2824681" lon="148.9852744">
  <ele>693.39</ele>
  <time>2026-09-01T19:59:48Z</time>
  <course>6.67</course>
  <speed>26.18892132181087</speed>
  <fix>3d</fix>
</trkpt>
<trkpt lat="-35.2825122" lon="148.9852675">
  <ele>693.52</ele>
  <time>2026-09-01T19:59:48Z</time>
  <course>6.8</course>
  <speed>26.25</speed>
  <fix>3d</fix>
</trkpt>
<trkpt lat="-35.2824448" lon="148.9852778">
  <ele>693.38</ele>
  <time>2026-09-01T19:59:48Z</time>
  <course>6.69</course>
  <speed>26.167867700674428</speed>
  <fix>3d</fix>
</trkpt>
<trkpt lat="-35.2825122" lon="148.9852675">
  <ele>693.52</ele>
  <time>2026-09-01T19:59:48Z</time>
  <course>6.8</course>
  <speed>26.25</speed>
  <fix>3d</fix>
</trkpt>
<trkpt lat="-35.2824213" lon="148.9852812">
  <ele>693.38</ele>
  <time>2026-09-01T19:59:48Z</time>
  <course>6.7</course>
  <speed>26.148011396662653</speed>
  <fix>3d</fix>
</trkpt>
<trkpt lat="-35.2824653" lon="148.9852742">
  <ele>693.51</ele>
  <time>2026-09-01T19:59:48Z</time>
  <course>6.8</course>
  <speed>26.21</speed>
  <fix>3d</fix>
</trkpt>
<trkpt lat="-35.2823979" lon="148.9852846">
  <ele>693.37</ele>
  <time>2026-09-01T19:59:48Z</time>
  <course>6.68</course>
  <speed>26.12695925667585</speed>
  <fix>3d</fix>
</trkpt>
<trkpt lat="-35.2824653" lon="148.9852742">
  <ele>693.51</ele>
  <time>2026-09-01T19:59:48Z</time>
  <course>6.8</course>
  <speed>26.21</speed>
  <fix>3d</fix>
</trkpt>
<trkpt lat="-35.2823746" lon="148.985288">
  <ele>693.37</ele>
  <time>2026-09-01T19:59:48Z</time>
  <course>6.65</course>
  <speed>26.11703084196211</speed>
  <fix>3d</fix>
</trkpt>
<trkpt lat="-35.2824186" lon="148.9852811">
  <ele>693.5</ele>
  <time>2026-09-01T19:59:48Z</time>
  <course>6.8</course>
  <speed>26.17</speed>
  <fix>3d</fix>
</trkpt>
<trkpt lat="-35.2823512" lon="148.9852914">
  <ele>693.36</ele>
  <time>2026-09-01T19:59:48Z</time>
  <course>6.64</course>
  <speed>26.095980533407825</speed>
  <fix>3d</fix>
</trkpt>
<trkpt lat="-35.2824186" lon="148.9852811">
  <ele>693.5</ele>
  <time>2026-09-01T19:59:48Z</time>
  <course>6.8</course>
  <speed>26.17</speed>
  <fix>3d</fix>
</trkpt>
<trkpt lat="-35.2823279" lon="148.9852948">
  <ele>693.35</ele>
  <time>2026-09-01T19:59:48Z</time>
  <course>6.72</course>
  <speed>26.08605182851556</speed>
  <fix>3d</fix>
</trkpt>
<trkpt lat="-35.282372" lon="148.985288">
  <ele>693.49</ele>
  <time>2026-09-01T19:59:48Z</time>
  <course>6.8</course>
  <speed>26.14</speed>
  <fix>3d</fix>
</trkpt>
<trkpt lat="-35.2823046" lon="148.9852982">
  <ele>693.34</ele>
  <time>2026-09-01T19:59:48Z</time>
  <course>6.77</course>
  <speed>26.07612317811066</speed>
  <fix>3d</fix>
</trkpt>
<trkpt lat="-35.282372" lon="148.985288">
  <ele>693.49</ele>
  <time>2026-09-01T19:59:48Z</time>
  <course>6.8</course>
  <speed>26.14</speed>
  <fix>3d</fix>
</trkpt>
<trkpt lat="-35.2822813" lon="148.9853016">
  <ele>693.34</ele>
  <time>2026-09-01T19:59:48Z</time>
  <course>6.75</course>
  <speed>26.05626604101209</speed>
  <fix>3d</fix>
</trkpt>
<trkpt lat="-35.2823254" lon="148.9852948">
  <ele>693.47</ele>
  <time>2026-09-01T19:59:48Z</time>
  <course>6.8</course>
  <speed>26.11</speed>
  <fix>3d</fix>
</trkpt>
<trkpt lat="-35.282258" lon="148.985305">
  <ele>693.33</ele>
  <time>2026-09-01T19:59:48Z</time>
  <course>6.72</course>
  <speed>26.036409122611357</speed>
  <fix>3d</fix>
</trkpt>
<trkpt lat="-35.2823254" lon="148.9852948">
  <ele>693.47</ele>
  <time>2026-09-01T19:59:48Z</time>
  <course>6.8</course>
  <speed>26.11</speed>
  <fix>3d</fix>
</trkpt>
<trkpt lat="-35.2822347" lon="148.9853084">
  <ele>693.32</ele>
  <time>2026-09-01T19:59:48Z</time>
  <course>6.72</course>
  <speed>26.026480745579107</speed>
  <fix>3d</fix>
</trkpt>
<trkpt lat="-35.2822788" lon="148.9853015">
  <ele>693.45</ele>
  <time>2026-09-01T19:59:48Z</time>
  <course>6.81</course>
  <speed>26.08</speed>
  <fix>3d</fix>
</trkpt>
<trkpt lat="-35.2822114" lon="148.9853118">
  <ele>693.31</ele>
  <time>2026-09-01T19:59:48Z</time>
  <course>6.76</course>
  <speed>26.016552423409216</speed>
  <fix>3d</fix>
</trkpt>
<trkpt lat="-35.2822788" lon="148.9853015">
  <ele>693.45</ele>
  <time>2026-09-01T19:59:48Z</time>
  <course>6.81</course>
  <speed>26.08</speed>
  <fix>3d</fix>
</trkpt>
<trkpt lat="-35.2821881" lon="148.9853152">
  <ele>693.31</ele>
  <time>2026-09-01T19:59:48Z</time>
  <course>6.76</course>
  <speed>26.00662415616452</speed>
  <fix>3d</fix>
</trkpt>
<trkpt lat="-35.2822323" lon="148.9853084">
  <ele>693.43</ele>
  <time>2026-09-01T19:59:48Z</time>
  <course>6.82</course>
  <speed>26.05</speed>
  <fix>3d</fix>
</trkpt>
<trkpt lat="-35.2821649" lon="148.9853186">
  <ele>693.3</ele>
  <time>2026-09-01T19:59:48Z</time>
  <course>6.7</course>
  <speed>25.986767786702526</speed>
  <fix>3d</fix>
</trkpt>
<trkpt lat="-35.2822323" lon="148.9853084">
  <ele>693.43</ele>
  <time>2026-09-01T19:59:48Z</time>
  <course>6.82</course>
  <speed>26.05</speed>
  <fix>3d</fix>
</trkpt>
<trkpt lat="-35.2821417" lon="148.985322">
  <ele>693.29</ele>
  <time>2026-09-01T19:59:48Z</time>
  <course>6.71</course>
  <speed>25.976839684611367</speed>
  <fix>3d</fix>
</trkpt>
<trkpt lat="-35.2821858" lon="148.9853152">
  <ele>693.42</ele>
  <time>2026-09-01T19:59:48Z</time>
  <course>6.83</course>
  <speed>26.02</speed>
  <fix>3d</fix>
</trkpt>
<trkpt lat="-35.2821185" lon="148.9853254">
  <ele>693.29</ele>
  <time>2026-09-01T19:59:48Z</time>
  <course>6.76</course>
  <speed>25.96571585764583</speed>
  <fix>3d</fix>
</trkpt>
<trkpt lat="-35.2821858" lon="148.9853152">
  <ele>693.42</ele>
  <time>2026-09-01T19:59:48Z</time>
  <course>6.83</course>
  <speed>26.02</speed>
  <fix>3d</fix>
</trkpt>
<trkpt lat="-35.2820954" lon="148.9853287">
  <ele>693.28</ele>
  <time>2026-09-01T19:59:48Z</time>
  <course>6.8</course>
  <speed>25.94705570965615</speed>
  <fix>3d</fix>
</trkpt>
<trkpt lat="-35.2821394" lon="148.985322">
  <ele>693.4</ele>
  <time>2026-09-01T19:59:48Z</time>
  <course>6.84</course>
  <speed>26.0</speed>
  <fix>3d</fix>
</trkpt>
<trkpt lat="-35.2820723" lon="148.9853321">
  <ele>693.27</ele>
  <time>2026-09-01T19:59:48Z</time>
  <course>6.84</course>
  <speed>25.927200003085563</speed>
  <fix>3d</fix>
</trkpt>
<trkpt lat="-35.2821394" lon="148.985322">
  <ele>693.4</ele>
  <time>2026-09-01T19:59:48Z</time>
  <course>6.84</course>
  <speed>26.0</speed>
  <fix>3d</fix>
</trkpt>
<trkpt lat="-35.2820493" lon="148.9853355">
  <ele>693.26</ele>
  <time>2026-09-01T19:59:48Z</time>
  <course>6.8</course>
  <speed>25.917272233010944</speed>
  <fix>3d</fix>
</trkpt>
<trkpt lat="-35.282093" lon="148.9853288">
  <ele>693.39</ele>
  <time>2026-09-01T19:59:48Z</time>
  <course>6.85</course>
  <speed>25.97</speed>
  <fix>3d</fix>
</trkpt>
<trkpt lat="-35.2820263" lon="148.9853389">
  <ele>693.25</ele>
  <time>2026-09-01T19:59:48Z</time>
  <course>6.82</course>
  <speed>25.89741685960204</speed>
  <fix>3d</fix>
</trkpt>
<trkpt lat="-35.282093" lon="148.9853288">
  <ele>693.39</ele>
  <time>2026-09-01T19:59:48Z</time>
  <course>6.85</course>
  <speed>25.97</speed>
  <fix>3d</fix>
</trkpt>
<trkpt lat="-35.2820034" lon="148.9853423">
  <ele>693.23</ele>
  <time>2026-09-01T19:59:48Z</time>
  <course>6.82</course>
  <speed>25.877561708940043</speed>
  <fix>3d</fix>
</trkpt>
<trkpt lat="-35.2820467" lon="148.9853357">
  <ele>693.36</ele>
  <time>2026-09-01T19:59:48Z</time>
  <course>6.87</course>
  <speed>25.95</speed>
  <fix>3d</fix>
</trkpt>
<trkpt lat="-35.2819804" lon="148.9853457">
  <ele>693.22</ele>
  <time>2026-09-01T19:59:48Z</time>
  <course>6.82</course>
  <speed>25.85891142333722</speed>
  <fix>3d</fix>
</trkpt>
<trkpt lat="-35.2820467" lon="148.9853357">
  <ele>693.36</ele>
  <time>2026-09-01T19:59:48Z</time>
  <course>6.87</course>
  <speed>25.95</speed>
  <fix>3d</fix>
</trkpt>
<trkpt lat="-35.2819575" lon="148.9853491">
  <ele>693.2</ele>
  <time>2026-09-01T19:59:48Z</time>
  <course>6.82</course>
  <speed>25.848984506165806</speed>
  <fix>3d</fix>
</trkpt>
<trkpt lat="-35.2820004" lon="148.9853425">
  <ele>693.32</ele>
  <time>2026-09-01T19:59:48Z</time>
  <course>6.89</course>
  <speed>25.93</speed>
  <fix>3d</fix>
</trkpt>
<trkpt lat="-35.2819348" lon="148.9853524">
  <ele>693.17</ele>
  <time>2026-09-01T19:59:48Z</time>
  <course>6.82</course>
  <speed>25.829130840971015</speed>
  <fix>3d</fix>
</trkpt>
<trkpt lat="-35.2820004" lon="148.9853425">
  <ele>693.32</ele>
  <time>2026-09-01T19:59:48Z</time>
  <course>6.89</course>
  <speed>25.93</speed>
  <fix>3d</fix>
</trkpt>
<trkpt lat="-35.2819117" lon="148.9853558">
  <ele>693.15</ele>
  <time>2026-09-01T19:59:48Z</time>
  <course>6.8</course>
  <speed>25.819204093077698</speed>
  <fix>3d</fix>
</trkpt>
<trkpt lat="-35.2819542" lon="148.9853494">
  <ele>693.29</ele>
  <time>2026-09-01T19:59:48Z</time>
  <course>6.9</course>
  <speed>25.91</speed>
  <fix>3d</fix>
</trkpt>
<trkpt lat="-35.2818887" lon="148.9853593">
  <ele>693.12</ele>
  <time>2026-09-01T19:59:48Z</time>
  <course>6.82</course>
  <speed>25.817997598574525</speed>
  <fix>3d</fix>
</trkpt>
<trkpt lat="-35.2819542" lon="148.9853494">
  <ele>693.29</ele>
  <time>2026-09-01T19:59:48Z</time>
  <course>6.9</course>
  <speed>25.91</speed>
  <fix>3d</fix>
</trkpt>
<trkpt lat="-35.2818655" lon="148.9853627">
  <ele>693.08</ele>
  <time>2026-09-01T19:59:48Z</time>
  <course>6.88</course>
  <speed>25.817997598574525</speed>
  <fix>3d</fix>
</trkpt>
<trkpt lat="-35.281908" lon="148.9853562">
  <ele>693.24</ele>
  <time>2026-09-01T19:59:48Z</time>
  <course>6.9</course>
  <speed>25.9</speed>
  <fix>3d</fix>
</trkpt>
<trkpt lat="-35.281842" lon="148.9853661">
  <ele>693.05</ele>
  <time>2026-09-01T19:59:48Z</time>
  <course>6.9</course>
  <speed>25.817997598574525</speed>
  <fix>3d</fix>
</trkpt>
<trkpt lat="-35.281908" lon="148.9853562">
  <ele>693.24</ele>
  <time>2026-09-01T19:59:48Z</time>
  <course>6.9</course>
  <speed>25.9</speed>
  <fix>3d</fix>
</trkpt>
<trkpt lat="-35.2818189" lon="148.9853696">
  <ele>693.01</ele>
  <time>2026-09-01T19:59:48Z</time>
  <course>6.91</course>
  <speed>25.817997598574525</speed>
  <fix>3d</fix>
</trkpt>
<trkpt lat="-35.2818618" lon="148.9853631">
  <ele>693.17</ele>
  <time>2026-09-01T19:59:48Z</time>
  <course>6.89</course>
  <speed>25.89</speed>
  <fix>3d</fix>
</trkpt>
<trkpt lat="-35.2817957" lon="148.985373">
  <ele>692.96</ele>
  <time>2026-09-01T19:59:48Z</time>
  <course>6.86</course>
  <speed>25.817997598574525</speed>
  <fix>3d</fix>
</trkpt>
<trkpt lat="-35.2818618" lon="148.9853631">
  <ele>693.17</ele>
  <time>2026-09-01T19:59:48Z</time>
  <course>6.89</course>
  <speed>25.89</speed>
  <fix>3d</fix>
</trkpt>
<trkpt lat="-35.2817726" lon="148.9853764">
  <ele>692.92</ele>
  <time>2026-09-01T19:59:48Z</time>
  <course>6.8</course>
  <speed>25.817997598574525</speed>
  <fix>3d</fix>
</trkpt>
<trkpt lat="-35.2818157" lon="148.9853699">
  <ele>693.1</ele>
  <time>2026-09-01T19:59:48Z</time>
  <course>6.9</course>
  <speed>25.88</speed>
  <fix>3d</fix>
</trkpt>
<trkpt lat="-35.2817494" lon="148.9853798">
  <ele>692.87</ele>
  <time>2026-09-01T19:59:48Z</time>
  <course>6.77</course>
  <speed>25.816794921136125</speed>
  <fix>3d</fix>
</trkpt>
<trkpt lat="-35.2818157" lon="148.9853699">
  <ele>693.1</ele>
  <time>2026-09-01T19:59:48Z</time>
  <course>6.9</course>
  <speed>25.88</speed>
  <fix>3d</fix>
</trkpt>
<trkpt lat="-35.2817263" lon="148.9853833">
  <ele>692.82</ele>
  <time>2026-09-01T19:59:48Z</time>
  <course>6.82</course>
  <speed>25.816794921136125</speed>
  <fix>3d</fix>
</trkpt>
<trkpt lat="-35.2817694" lon="148.9853767">
  <ele>693.01</ele>
  <time>2026-09-01T19:59:48Z</time>
  <course>6.9</course>
  <speed>25.88</speed>
  <fix>3d</fix>
</trkpt>
<trkpt lat="-35.2817031" lon="148.9853867">
  <ele>692.76</ele>
  <time>2026-09-01T19:59:48Z</time>
  <course>6.84</course>
  <speed>25.826722595017742</speed>
  <fix>3d</fix>
</trkpt>
<trkpt lat="-35.2817694" lon="148.9853767">
  <ele>693.01</ele>
  <time>2026-09-01T19:59:48Z</time>
  <course>6.9</course>
  <speed>25.88</speed>
  <fix>3d</fix>
</trkpt>
<trkpt lat="-35.28168" lon="148.9853901">
  <ele>692.71</ele>
  <time>2026-09-01T19:59:48Z</time>
  <course>6.86</course>
  <speed>25.826722595017742</speed>
  <fix>3d</fix>
</trkpt>
<trkpt lat="-35.2817232" lon="148.9853835">
  <ele>692.91</ele>
  <time>2026-09-01T19:59:48Z</time>
  <course>6.89</course>
  <speed>25.87</speed>
  <fix>3d</fix>
</trkpt>
<trkpt lat="-35.2816568" lon="148.9853935">
  <ele>692.64</ele>
  <time>2026-09-01T19:59:48Z</time>
  <course>6.9</course>
  <speed>25.83665032468412</speed>
  <fix>3d</fix>
</trkpt>
<trkpt lat="-35.2817232" lon="148.9853835">
  <ele>692.91</ele>
  <time>2026-09-01T19:59:48Z</time>
  <course>6.89</course>
  <speed>25.87</speed>
  <fix>3d</fix>
</trkpt>
<trkpt lat="-35.2816338" lon="148.9853969">
  <ele>692.58</ele>
  <time>2026-09-01T19:59:48Z</time>
  <course>6.93</course>
  <speed>25.83665032468412</speed>
  <fix>3d</fix>
</trkpt>
<trkpt lat="-35.2816771" lon="148.9853904">
  <ele>692.8</ele>
  <time>2026-09-01T19:59:48Z</time>
  <course>6.89</course>
  <speed>25.87</speed>
  <fix>3d</fix>
</trkpt>
<trkpt lat="-35.2816108" lon="148.9854003">
  <ele>692.51</ele>
  <time>2026-09-01T19:59:48Z</time>
  <course>6.91</course>
  <speed>25.83665032468412</speed>
  <fix>3d</fix>
</trkpt>
<trkpt lat="-35.2816771" lon="148.9853904">
  <ele>692.8</ele>
  <time>2026-09-01T19:59:48Z</time>
  <course>6.89</course>
  <speed>25.87</speed>
  <fix>3d</fix>
</trkpt>
<trkpt lat="-35.2815878" lon="148.9854037">
  <ele>692.45</ele>
  <time>2026-09-01T19:59:48Z</time>
  <course>6.89</course>
  <speed>25.83665032468412</speed>
  <fix>3d</fix>
</trkpt>
<trkpt lat="-35.281631" lon="148.9853973">
  <ele>692.68</ele>
  <time>2026-09-01T19:59:48Z</time>
  <course>6.88</course>
  <speed>25.88</speed>
  <fix>3d</fix>
</trkpt>
<trkpt lat="-35.2815649" lon="148.9854071">
  <ele>692.38</ele>
  <time>2026-09-01T19:59:48Z</time>
  <course>6.85</course>
  <speed>25.83665032468412</speed>
  <fix>3d</fix>
</trkpt>
<trkpt lat="-35.281631" lon="148.9853973">
  <ele>692.68</ele>
  <time>2026-09-01T19:59:48Z</time>
  <course>6.88</course>
  <speed>25.88</speed>
  <fix>3d</fix>
</trkpt>
<trkpt lat="-35.2815419" lon="148.9854105">
  <ele>692.31</ele>
  <time>2026-09-01T19:59:48Z</time>
  <course>6.85</course>
  <speed>25.8354523862076</speed>
  <fix>3d</fix>
</trkpt>
<trkpt lat="-35.2815848" lon="148.985404">
  <ele>692.55</ele>
  <time>2026-09-01T19:59:48Z</time>
  <course>6.88</course>
  <speed>25.88</speed>
  <fix>3d</fix>
</trkpt>
<trkpt lat="-35.281519" lon="148.9854139">
  <ele>692.24</ele>
  <time>2026-09-01T19:59:48Z</time>
  <course>6.87</course>
  <speed>25.8354523862076</speed>
  <fix>3d</fix>
</trkpt>
<trkpt lat="-35.2815848" lon="148.985404">
  <ele>692.55</ele>
  <time>2026-09-01T19:59:48Z</time>
  <course>6.88</course>
  <speed>25.88</speed>
  <fix>3d</fix>
</trkpt>
<trkpt lat="-35.281496" lon="148.9854172">
  <ele>692.17</ele>
  <time>2026-09-01T19:59:48Z</time>
  <course>6.82</course>
  <speed>25.834258263011925</speed>
  <fix>3d</fix>
</trkpt>
<trkpt lat="-35.2815387" lon="148.9854109">
  <ele>692.42</ele>
  <time>2026-09-01T19:59:48Z</time>
  <course>6.87</course>
  <speed>25.89</speed>
  <fix>3d</fix>
</trkpt>
<trkpt lat="-35.2814731" lon="148.9854206">
  <ele>692.1</ele>
  <time>2026-09-01T19:59:48Z</time>
  <course>6.81</course>
  <speed>25.824329613757644</speed>
  <fix>3d</fix>
</trkpt>
<trkpt lat="-35.2815387" lon="148.9854109">
  <ele>692.42</ele>
  <time>2026-09-01T19:59:48Z</time>
  <course>6.87</course>
  <speed>25.89</speed>
  <fix>3d</fix>
</trkpt>
<trkpt lat="-35.2814503" lon="148.9854239">
  <ele>692.04</ele>
  <time>2026-09-01T19:59:48Z</time>
  <course>6.84</course>
  <speed>25.82313884871473</speed>
  <fix>3d</fix>
</trkpt>
<trkpt lat="-35.2814925" lon="148.9854178">
  <ele>692.29</ele>
  <time>2026-09-01T19:59:48Z</time>
  <course>6.85</course>
  <speed>25.9</speed>
  <fix>3d</fix>
</trkpt>
<trkpt lat="-35.2814273" lon="148.9854273">
  <ele>691.97</ele>
  <time>2026-09-01T19:59:48Z</time>
  <course>6.86</course>
  <speed>25.82313884871473</speed>
  <fix>3d</fix>
</trkpt>
<trkpt lat="-35.2814925" lon="148.9854178">
  <ele>692.29</ele>
  <time>2026-09-01T19:59:48Z</time>
  <course>6.85</course>
  <speed>25.9</speed>
  <fix>3d</fix>
</trkpt>
<trkpt lat="-35.2814042" lon="148.9854307">
  <ele>691.89</ele>
  <time>2026-09-01T19:59:48Z</time>
  <course>6.85</course>
  <speed>25.833067955626174</speed>
  <fix>3d</fix>
</trkpt>
<trkpt lat="-35.2814463" lon="148.9854245">
  <ele>692.15</ele>
  <time>2026-09-01T19:59:48Z</time>
  <course>6.83</course>
  <speed>25.91</speed>
  <fix>3d</fix>
</trkpt>
<trkpt lat="-35.2813811" lon="148.9854341">
  <ele>691.82</ele>
  <time>2026-09-01T19:59:48Z</time>
  <course>6.86</course>
  <speed>25.84299711720759</speed>
  <fix>3d</fix>
</trkpt>
<trkpt lat="-35.2814463" lon="148.9854245">
  <ele>692.15</ele>
  <time>2026-09-01T19:59:48Z</time>
  <course>6.83</course>
  <speed>25.91</speed>
  <fix>3d</fix>
</trkpt>
<trkpt lat="-35.2813577" lon="148.9854375">
  <ele>691.74</ele>
  <time>2026-09-01T19:59:48Z</time>
  <course>6.84</course>
  <speed>25.84181108204299</speed>
  <fix>3d</fix>
</trkpt>
<trkpt lat="-35.2814001" lon="148.9854312">
  <ele>692.0</ele>
  <time>2026-09-01T19:59:48Z</time>
  <course>6.82</course>
  <speed>25.92</speed>
  <fix>3d</fix>
</trkpt>
<trkpt lat="-35.2813345" lon="148.9854409">
  <ele>691.67</ele>
  <time>2026-09-01T19:59:48Z</time>
  <course>6.82</course>
  <speed>25.851740753767434</speed>
  <fix>3d</fix>
</trkpt>
<trkpt lat="-35.2814001" lon="148.9854312">
  <ele>692.0</ele>
  <time>2026-09-01T19:59:48Z</time>
  <course>6.82</course>
  <speed>25.92</speed>
  <fix>3d</fix>
</trkpt>
<trkpt lat="-35.2813113" lon="148.9854443">
  <ele>691.59</ele>
  <time>2026-09-01T19:59:48Z</time>
  <course>6.78</course>
  <speed>25.861670479688666</speed>
  <fix>3d</fix>
</trkpt>
<trkpt lat="-35.2813538" lon="148.9854381">
  <ele>691.85</ele>
  <time>2026-09-01T19:59:48Z</time>
  <course>6.8</course>
  <speed>25.92</speed>
  <fix>3d</fix>
</trkpt>
<trkpt lat="-35.2812881" lon="148.9854477">
  <ele>691.51</ele>
  <time>2026-09-01T19:59:48Z</time>
  <course>6.81</course>
  <speed>25.871600259744273</speed>
  <fix>3d</fix>
</trkpt>
<trkpt lat="-35.2813538" lon="148.9854381">
  <ele>691.85</ele>
  <time>2026-09-01T19:59:48Z</time>
  <course>6.8</course>
  <speed>25.92</speed>
  <fix>3d</fix>
</trkpt>
<trkpt lat="-35.2812648" lon="148.9854511">
  <ele>691.44</ele>
  <time>2026-09-01T19:59:48Z</time>
  <course>6.84</course>
  <speed>25.881530093871962</speed>
  <fix>3d</fix>
</trkpt>
<trkpt lat="-35.2813074" lon="148.9854449">
  <ele>691.7</ele>
  <time>2026-09-01T19:59:48Z</time>
  <course>6.79</course>
  <speed>25.93</speed>
  <fix>3d</fix>
</trkpt>
<trkpt lat="-35.2812416" lon="148.9854545">
  <ele>691.36</ele>
  <time>2026-09-01T19:59:48Z</time>
  <course>6.88</course>
  <speed>25.881530093871962</speed>
  <fix>3d</fix>
</trkpt>
<trkpt lat="-35.2813074" lon="148.9854449">
  <ele>691.7</ele>
  <time>2026-09-01T19:59:48Z</time>
  <course>6.79</course>
  <speed>25.93</speed>
  <fix>3d</fix>
</trkpt>
<trkpt lat="-35.2812181" lon="148.9854579">
  <ele>691.28</ele>
  <time>2026-09-01T19:59:48Z</time>
  <course>6.9</course>
  <speed>25.89264374296298</speed>
  <fix>3d</fix>
</trkpt>
<trkpt lat="-35.2812611" lon="148.9854516">
  <ele>691.55</ele>
  <time>2026-09-01T19:59:48Z</time>
  <course>6.79</course>
  <speed>25.93</speed>
  <fix>3d</fix>
</trkpt>
<trkpt lat="-35.2811949" lon="148.9854613">
  <ele>691.2</ele>
  <time>2026-09-01T19:59:48Z</time>
  <course>6.83</course>
  <speed>25.902573231244805</speed>
  <fix>3d</fix>
</trkpt>
<trkpt lat="-35.2812611" lon="148.9854516">
  <ele>691.55</ele>
  <time>2026-09-01T19:59:48Z</time>
  <course>6.79</course>
  <speed>25.93</speed>
  <fix>3d</fix>
</trkpt>
<trkpt lat="-35.2811717" lon="148.9854647">
  <ele>691.12</ele>
  <time>2026-09-01T19:59:48Z</time>
  <course>6.77</course>
  <speed>25.902573231244805</speed>
  <fix>3d</fix>
</trkpt>
<trkpt lat="-35.2812148" lon="148.9854584">
  <ele>691.39</ele>
  <time>2026-09-01T19:59:48Z</time>
  <course>6.8</course>
  <speed>25.93</speed>
  <fix>3d</fix>
</trkpt>
<trkpt lat="-35.2811486" lon="148.9854681">
  <ele>691.04</ele>
  <time>2026-09-01T19:59:48Z</time>
  <course>6.81</course>
  <speed>25.902573231244805</speed>
  <fix>3d</fix>
</trkpt>
<trkpt lat="-35.2812148" lon="148.9854584">
  <ele>691.39</ele>
  <time>2026-09-01T19:59:48Z</time>
  <course>6.8</course>
  <speed>25.93</speed>
  <fix>3d</fix>
</trkpt>
<trkpt lat="-35.2811256" lon="148.9854714">
  <ele>690.96</ele>
  <time>2026-09-01T19:59:48Z</time>
  <course>6.86</course>
  <speed>25.89264374296298</speed>
  <fix>3d</fix>
</trkpt>
<trkpt lat="-35.2811686" lon="148.9854651">
  <ele>691.24</ele>
  <time>2026-09-01T19:59:48Z</time>
  <course>6.8</course>
  <speed>25.93</speed>
  <fix>3d</fix>
</trkpt>
<trkpt lat="-35.2811026" lon="148.9854748">
  <ele>690.87</ele>
  <time>2026-09-01T19:59:48Z</time>
  <course>6.89</course>
  <speed>25.871600259744273</speed>
  <fix>3d</fix>
</trkpt>
<trkpt lat="-35.2811686" lon="148.9854651">
  <ele>691.24</ele>
  <time>2026-09-01T19:59:48Z</time>
  <course>6.8</course>
  <speed>25.93</speed>
  <fix>3d</fix>
</trkpt>
<trkpt lat="-35.2810798" lon="148.9854781">
  <ele>690.79</ele>
  <time>2026-09-01T19:59:48Z</time>
  <course>6.91</course>
  <speed>25.861670479688666</speed>
  <fix>3d</fix>
</trkpt>
<trkpt lat="-35.2811224" lon="148.9854719">
  <ele>691.07</ele>
  <time>2026-09-01T19:59:48Z</time>
  <course>6.79</course>
  <speed>25.92</speed>
  <fix>3d</fix>
</trkpt>
<trkpt lat="-35.2810569" lon="148.9854815">
  <ele>690.69</ele>
  <time>2026-09-01T19:59:48Z</time>
  <course>6.88</course>
  <speed>25.84299711720759</speed>
  <fix>3d</fix>
</trkpt>
<trkpt lat="-35.2811224" lon="148.9854719">
  <ele>691.07</ele>
  <time>2026-09-01T19:59:48Z</time>
  <course>6.79</course>
  <speed>25.92</speed>
  <fix>3d</fix>
</trkpt>
<trkpt lat="-35.2810341" lon="148.9854848">
  <ele>690.59</ele>
  <time>2026-09-01T19:59:48Z</time>
  <course>6.88</course>
  <speed>25.831881464577837</speed>
  <fix>3d</fix>
</trkpt>
<trkpt lat="-35.2810762" lon="148.9854786">
  <ele>690.9</ele>
  <time>2026-09-01T19:59:48Z</time>
  <course>6.8</course>
  <speed>25.91</speed>
  <fix>3d</fix>
</trkpt>
<trkpt lat="-35.2810113" lon="148.9854881">
  <ele>690.48</ele>
  <time>2026-09-01T19:59:48Z</time>
  <course>6.88</course>
  <speed>25.812022392675857</speed>
  <fix>3d</fix>
</trkpt>
<trkpt lat="-35.2810762" lon="148.9854786">
  <ele>690.9</ele>
  <time>2026-09-01T19:59:48Z</time>
  <course>6.8</course>
  <speed>25.91</speed>
  <fix>3d</fix>
</trkpt>
<trkpt lat="-35.2809884" lon="148.9854915">
  <ele>690.37</ele>
  <time>2026-09-01T19:59:48Z</time>
  <course>6.85</course>
  <speed>25.802092938364517</speed>
  <fix>3d</fix>
</trkpt>
<trkpt lat="-35.28103" lon="148.9854853">
  <ele>690.7</ele>
  <time>2026-09-01T19:59:48Z</time>
  <course>6.81</course>
  <speed>25.91</speed>
  <fix>3d</fix>
</trkpt>
<trkpt lat="-35.2809658" lon="148.9854948">
  <ele>690.25</ele>
  <time>2026-09-01T19:59:48Z</time>
  <course>6.84</course>
  <speed>25.79097904306853</speed>
  <fix>3d</fix>
</trkpt>
<trkpt lat="-35.28103" lon="148.9854853">
  <ele>690.7</ele>
  <time>2026-09-01T19:59:48Z</time>
  <course>6.81</course>
  <speed>25.91</speed>
  <fix>3d</fix>
</trkpt>
<trkpt lat="-35.2809429" lon="148.9854981">
  <ele>690.12</ele>
  <time>2026-09-01T19:59:48Z</time>
  <course>6.87</course>
  <speed>25.79097904306853</speed>
  <fix>3d</fix>
</trkpt>
<trkpt lat="-35.2809838" lon="148.9854921">
  <ele>690.48</ele>
  <time>2026-09-01T19:59:48Z</time>
  <course>6.8</course>
  <speed>25.9</speed>
  <fix>3d</fix>
</trkpt>
<trkpt lat="-35.2809199" lon="148.9855015">
  <ele>689.99</ele>
  <time>2026-09-01T19:59:48Z</time>
  <course>6.85</course>
  <speed>25.79097904306853</speed>
  <fix>3d</fix>
</trkpt>
<trkpt lat="-35.2809838" lon="148.9854921">
  <ele>690.48</ele>
  <time>2026-09-01T19:59:48Z</time>
  <course>6.8</course>
  <speed>25.9</speed>
  <fix>3d</fix>
</trkpt>
<trkpt lat="-35.2808968" lon="148.9855048">
  <ele>689.86</ele>
  <time>2026-09-01T19:59:48Z</time>
  <course>6.87</course>
  <speed>25.79097904306853</speed>
  <fix>3d</fix>
</trkpt>
<trkpt lat="-35.2809376" lon="148.9854988">
  <ele>690.24</ele>
  <time>2026-09-01T19:59:48Z</time>
  <course>6.79</course>
  <speed>25.9</speed>
  <fix>3d</fix>
</trkpt>
<trkpt lat="-35.2808736" lon="148.9855082">
  <ele>689.71</ele>
  <time>2026-09-01T19:59:48Z</time>
  <course>6.85</course>
  <speed>25.79097904306853</speed>
  <fix>3d</fix>
</trkpt>
<trkpt lat="-35.2809376" lon="148.9854988">
  <ele>690.24</ele>
  <time>2026-09-01T19:59:48Z</time>
  <course>6.79</course>
  <speed>25.9</speed>
  <fix>3d</fix>
</trkpt>
<trkpt lat="-35.2808505" lon="148.9855116">
  <ele>689.56</ele>
  <time>2026-09-01T19:59:48Z</time>
  <course>6.82</course>
  <speed>25.79097904306853</speed>
  <fix>3d</fix>
</trkpt>
<trkpt lat="-35.2808914" lon="148.9855056">
  <ele>689.96</ele>
  <time>2026-09-01T19:59:48Z</time>
  <course>6.78</course>
  <speed>25.9</speed>
  <fix>3d</fix>
</trkpt>
<trkpt lat="-35.2808274" lon="148.9855149">
  <ele>689.4</ele>
  <time>2026-09-01T19:59:48Z</time>
  <course>6.83</course>
  <speed>25.79972868074391</speed>
  <fix>3d</fix>
</trkpt>
<trkpt lat="-35.2808914" lon="148.9855056">
  <ele>689.96</ele>
  <time>2026-09-01T19:59:48Z</time>
  <course>6.78</course>
  <speed>25.9</speed>
  <fix>3d</fix>
</trkpt>
<trkpt lat="-35.2808043" lon="148.9855183">
  <ele>689.24</ele>
  <time>2026-09-01T19:59:48Z</time>
  <course>6.88</course>
  <speed>25.80965904462901</speed>
  <fix>3d</fix>
</trkpt>
<trkpt lat="-35.2808452" lon="148.9855124">
  <ele>689.67</ele>
  <time>2026-09-01T19:59:48Z</time>
  <course>6.77</course>
  <speed>25.91</speed>
  <fix>3d</fix>
</trkpt>
<trkpt lat="-35.2807811" lon="148.9855217">
  <ele>689.08</ele>
  <time>2026-09-01T19:59:48Z</time>
  <course>6.88</course>
  <speed>25.819589462266823</speed>
  <fix>3d</fix>
</trkpt>
<trkpt lat="-35.2808452" lon="148.9855124">
  <ele>689.67</ele>
  <time>2026-09-01T19:59:48Z</time>
  <course>6.77</course>
  <speed>25.91</speed>
  <fix>3d</fix>
</trkpt>
<trkpt lat="-35.280758" lon="148.985525">
  <ele>688.91</ele>
  <time>2026-09-01T19:59:48Z</time>
  <course>6.94</course>
  <speed>25.82951993359536</speed>
  <fix>3d</fix>
</trkpt>
<trkpt lat="-35.2807988" lon="148.9855191">
  <ele>689.35</ele>
  <time>2026-09-01T19:59:48Z</time>
  <course>6.76</course>
  <speed>25.91</speed>
  <fix>3d</fix>
</trkpt>
<trkpt lat="-35.2807348" lon="148.9855284">
  <ele>688.74</ele>
  <time>2026-09-01T19:59:48Z</time>
  <course>6.92</course>
  <speed>25.840628862316798</speed>
  <fix>3d</fix>
</trkpt>
<trkpt lat="-35.2807988" lon="148.9855191">
  <ele>689.35</ele>
  <time>2026-09-01T19:59:48Z</time>
  <course>6.76</course>
  <speed>25.91</speed>
  <fix>3d</fix>
</trkpt>
<trkpt lat="-35.2807116" lon="148.9855318">
  <ele>688.57</ele>
  <time>2026-09-01T19:59:48Z</time>
  <course>6.89</course>
  <speed>25.85055898815343</speed>
  <fix>3d</fix>
</trkpt>
<trkpt lat="-35.2807525" lon="148.9855258">
  <ele>689.02</ele>
  <time>2026-09-01T19:59:48Z</time>
  <course>6.76</course>
  <speed>25.92</speed>
  <fix>3d</fix>
</trkpt>
<trkpt lat="-35.2806884" lon="148.9855351">
  <ele>688.39</ele>
  <time>2026-09-01T19:59:48Z</time>
  <course>6.89</course>
  <speed>25.85055898815343</speed>
  <fix>3d</fix>
</trkpt>
<trkpt lat="-35.2807525" lon="148.9855258">
  <ele>689.02</ele>
  <time>2026-09-01T19:59:48Z</time>
  <course>6.76</course>
  <speed>25.92</speed>
  <fix>3d</fix>
</trkpt>
<trkpt lat="-35.2806652" lon="148.9855385">
  <ele>688.21</ele>
  <time>2026-09-01T19:59:48Z</time>
  <course>6.92</course>
  <speed>25.861670479688666</speed>
  <fix>3d</fix>
</trkpt>
<trkpt lat="-35.2807063" lon="148.9855325">
  <ele>688.68</ele>
  <time>2026-09-01T19:59:48Z</time>
  <course>6.77</course>
  <speed>25.93</speed>
  <fix>3d</fix>
</trkpt>
<trkpt lat="-35.2806421" lon="148.9855419">
  <ele>688.03</ele>
  <time>2026-09-01T19:59:48Z</time>
  <course>6.92</course>
  <speed>25.871600259744273</speed>
  <fix>3d</fix>
</trkpt>
<trkpt lat="-35.2807063" lon="148.9855325">
  <ele>688.68</ele>
  <time>2026-09-01T19:59:48Z</time>
  <course>6.77</course>
  <speed>25.93</speed>
  <fix>3d</fix>
</trkpt>
<trkpt lat="-35.2806189" lon="148.9855453">
  <ele>687.84</ele>
  <time>2026-09-01T19:59:48Z</time>
  <course>6.91</course>
  <speed>25.881530093871962</speed>
  <fix>3d</fix>
</trkpt>
<trkpt lat="-35.28066" lon="148.9855393">
  <ele>688.33</ele>
  <time>2026-09-01T19:59:48Z</time>
  <course>6.78</course>
  <speed>25.94</speed>
  <fix>3d</fix>
</trkpt>
<trkpt lat="-35.2805957" lon="148.9855487">
  <ele>687.66</ele>
  <time>2026-09-01T19:59:48Z</time>
  <course>6.91</course>
  <speed>25.89264374296298</speed>
  <fix>3d</fix>
</trkpt>
<trkpt lat="-35.28066" lon="148.9855393">
  <ele>688.33</ele>
  <time>2026-09-01T19:59:48Z</time>
  <course>6.78</course>
  <speed>25.94</speed>
  <fix>3d</fix>
</trkpt>
<trkpt lat="-35.2805724" lon="148.9855521">
  <ele>687.47</ele>
  <time>2026-09-01T19:59:48Z</time>
  <course>6.93</course>
  <speed>25.89264374296298</speed>
  <fix>3d</fix>
</trkpt>
<trkpt lat="-35.2806137" lon="148.985546">
  <ele>687.96</ele>
  <time>2026-09-01T19:59:48Z</time>
  <course>6.79</course>
  <speed>25.94</speed>
  <fix>3d</fix>
</trkpt>
<trkpt lat="-35.2805493" lon="148.9855555">
  <ele>687.28</ele>
  <time>2026-09-01T19:59:48Z</time>
  <course>6.94</course>
  <speed>25.89264374296298</speed>
  <fix>3d</fix>
</trkpt>
<trkpt lat="-35.2806137" lon="148.985546">
  <ele>687.96</ele>
  <time>2026-09-01T19:59:48Z</time>
  <course>6.79</course>
  <speed>25.94</speed>
  <fix>3d</fix>
</trkpt>
<trkpt lat="-35.2805261" lon="148.9855588">
  <ele>687.08</ele>
  <time>2026-09-01T19:59:48Z</time>
  <course>6.92</course>
  <speed>25.902573231244805</speed>
  <fix>3d</fix>
</trkpt>
<trkpt lat="-35.2805674" lon="148.9855528">
  <ele>687.59</ele>
  <time>2026-09-01T19:59:48Z</time>
  <course>6.8</course>
  <speed>25.95</speed>
  <fix>3d</fix>
</trkpt>
<trkpt lat="-35.280503" lon="148.9855622">
  <ele>686.88</ele>
  <time>2026-09-01T19:59:48Z</time>
  <course>6.9</course>
  <speed>25.903760344783922</speed>
  <fix>3d</fix>
</trkpt>
<trkpt lat="-35.2805674" lon="148.9855528">
  <ele>687.59</ele>
  <time>2026-09-01T19:59:48Z</time>
  <course>6.8</course>
  <speed>25.95</speed>
  <fix>3d</fix>
</trkpt>
<trkpt lat="-35.2804799" lon="148.9855656">
  <ele>686.69</ele>
  <time>2026-09-01T19:59:48Z</time>
  <course>6.9</course>
  <speed>25.91368943242162</speed>
  <fix>3d</fix>
</trkpt>
<trkpt lat="-35.2805211" lon="148.9855595">
  <ele>687.2</ele>
  <time>2026-09-01T19:59:48Z</time>
  <course>6.81</course>
  <speed>25.96</speed>
  <fix>3d</fix>
</trkpt>
<trkpt lat="-35.2804567" lon="148.985569">
  <ele>686.49</ele>
  <time>2026-09-01T19:59:48Z</time>
  <course>6.91</course>
  <speed>25.91368943242162</speed>
  <fix>3d</fix>
</trkpt>
<trkpt lat="-35.2805211" lon="148.9855595">
  <ele>687.2</ele>
  <time>2026-09-01T19:59:48Z</time>
  <course>6.81</course>
  <speed>25.96</speed>
  <fix>3d</fix>
</trkpt>
<trkpt lat="-35.2804334" lon="148.9855724">
  <ele>686.29</ele>
  <time>2026-09-01T19:59:48Z</time>
  <course>6.85</course>
  <speed>25.92361857457404</speed>
  <fix>3d</fix>
</trkpt>
<trkpt lat="-35.2804748" lon="148.9855663">
  <ele>686.81</ele>
  <time>2026-09-01T19:59:48Z</time>
  <course>6.82</course>
  <speed>25.96</speed>
  <fix>3d</fix>
</trkpt>
<trkpt lat="-35.2804102" lon="148.9855758">
  <ele>686.08</ele>
  <time>2026-09-01T19:59:48Z</time>
  <course>6.83</course>
  <speed>25.92361857457404</speed>
  <fix>3d</fix>
</trkpt>
<trkpt lat="-35.2804748" lon="148.9855663">
  <ele>686.81</ele>
  <time>2026-09-01T19:59:48Z</time>
  <course>6.82</course>
  <speed>25.96</speed>
  <fix>3d</fix>
</trkpt>
<trkpt lat="-35.2803868" lon="148.9855792">
  <ele>685.87</ele>
  <time>2026-09-01T19:59:48Z</time>
  <course>6.89</course>
  <speed>25.932362021227455</speed>
  <fix>3d</fix>
</trkpt>
<trkpt lat="-35.2804285" lon="148.9855731">
  <ele>686.41</ele>
  <time>2026-09-01T19:59:48Z</time>
  <course>6.82</course>
  <speed>25.96</speed>
  <fix>3d</fix>
</trkpt>
<trkpt lat="-35.2803635" lon="148.9855826">
  <ele>685.66</ele>
  <time>2026-09-01T19:59:48Z</time>
  <course>6.94</course>
  <speed>25.932362021227455</speed>
  <fix>3d</fix>
</trkpt>
<trkpt lat="-35.2804285" lon="148.9855731">
  <ele>686.41</ele>
  <time>2026-09-01T19:59:48Z</time>
  <course>6.82</course>
  <speed>25.96</speed>
  <fix>3d</fix>
</trkpt>
<trkpt lat="-35.2803403" lon="148.985586">
  <ele>685.45</ele>
  <time>2026-09-01T19:59:48Z</time>
  <course>6.97</course>
  <speed>25.94229172605998</speed>
  <fix>3d</fix>
</trkpt>
<trkpt lat="-35.2803822" lon="148.9855799">
  <ele>686.0</ele>
  <time>2026-09-01T19:59:48Z</time>
  <course>6.81</course>
  <speed>25.96</speed>
  <fix>3d</fix>
</trkpt>
<trkpt lat="-35.280317" lon="148.9855894">
  <ele>685.23</ele>
  <time>2026-09-01T19:59:48Z</time>
  <course>6.97</course>
  <speed>25.94229172605998</speed>
  <fix>3d</fix>
</trkpt>
<trkpt lat="-35.2803822" lon="148.9855799">
  <ele>686.0</ele>
  <time>2026-09-01T19:59:48Z</time>
  <course>6.81</course>
  <speed>25.96</speed>
  <fix>3d</fix>
</trkpt>
<trkpt lat="-35.2802939" lon="148.9855928">
  <ele>685.02</ele>
  <time>2026-09-01T19:59:48Z</time>
  <course>6.98</course>
  <speed>25.943477022172647</speed>
  <fix>3d</fix>
</trkpt>
<trkpt lat="-35.2803358" lon="148.9855867">
  <ele>685.58</ele>
  <time>2026-09-01T19:59:48Z</time>
  <course>6.8</course>
  <speed>25.96</speed>
  <fix>3d</fix>
</trkpt>
<trkpt lat="-35.2802708" lon="148.9855962">
  <ele>684.8</ele>
  <time>2026-09-01T19:59:48Z</time>
  <course>6.98</course>
  <speed>25.943477022172647</speed>
  <fix>3d</fix>
</trkpt>
<trkpt lat="-35.2803358" lon="148.9855867">
  <ele>685.58</ele>
  <time>2026-09-01T19:59:48Z</time>
  <course>6.8</course>
  <speed>25.96</speed>
  <fix>3d</fix>
</trkpt>
<trkpt lat="-35.2802477" lon="148.9855996">
  <ele>684.59</ele>
  <time>2026-09-01T19:59:48Z</time>
  <course>7.0</course>
  <speed>25.943477022172647</speed>
  <fix>3d</fix>
</trkpt>
<trkpt lat="-35.2802894" lon="148.9855935">
  <ele>685.16</ele>
  <time>2026-09-01T19:59:48Z</time>
  <course>6.81</course>
  <speed>25.96</speed>
  <fix>3d</fix>
</trkpt>
<trkpt lat="-35.2802247" lon="148.985603">
  <ele>684.37</ele>
  <time>2026-09-01T19:59:48Z</time>
  <course>6.98</course>
  <speed>25.943477022172647</speed>
  <fix>3d</fix>
</trkpt>
<trkpt lat="-35.2802894" lon="148.9855935">
  <ele>685.16</ele>
  <time>2026-09-01T19:59:48Z</time>
  <course>6.81</course>
  <speed>25.96</speed>
  <fix>3d</fix>
</trkpt>
<trkpt lat="-35.2802016" lon="148.9856063">
  <ele>684.15</ele>
  <time>2026-09-01T19:59:48Z</time>
  <course>6.96</course>
  <speed>25.93354777117855</speed>
  <fix>3d</fix>
</trkpt>
<trkpt lat="-35.2802431" lon="148.9856002">
  <ele>684.73</ele>
  <time>2026-09-01T19:59:48Z</time>
  <course>6.81</course>
  <speed>25.97</speed>
  <fix>3d</fix>
</trkpt>
<trkpt lat="-35.2801786" lon="148.9856097">
  <ele>683.94</ele>
  <time>2026-09-01T19:59:48Z</time>
  <course>6.94</course>
  <speed>25.92361857457404</speed>
  <fix>3d</fix>
</trkpt>
<trkpt lat="-35.2802431" lon="148.9856002">
  <ele>684.73</ele>
  <time>2026-09-01T19:59:48Z</time>
  <course>6.81</course>
  <speed>25.97</speed>
  <fix>3d</fix>
</trkpt>
<trkpt lat="-35.2801554" lon="148.9856131">
  <ele>683.73</ele>
  <time>2026-09-01T19:59:48Z</time>
  <course>6.92</course>
  <speed>25.93354777117855</speed>
  <fix>3d</fix>
</trkpt>
<trkpt lat="-35.2801968" lon="148.985607">
  <ele>684.3</ele>
  <time>2026-09-01T19:59:48Z</time>
  <course>6.82</course>
  <speed>25.97</speed>
  <fix>3d</fix>
</trkpt>
<trkpt lat="-35.2801322" lon="148.9856165">
  <ele>683.51</ele>
  <time>2026-09-01T19:59:48Z</time>
  <course>6.95</course>
  <speed>25.93354777117855</speed>
  <fix>3d</fix>
</trkpt>
<trkpt lat="-35.2801968" lon="148.985607">
  <ele>684.3</ele>
  <time>2026-09-01T19:59:48Z</time>
  <course>6.82</course>
  <speed>25.97</speed>
  <fix>3d</fix>
</trkpt>
<trkpt lat="-35.2801089" lon="148.9856199">
  <ele>683.3</ele>
  <time>2026-09-01T19:59:48Z</time>
  <course>6.96</course>
  <speed>25.93354777117855</speed>
  <fix>3d</fix>
</trkpt>
<trkpt lat="-35.2801505" lon="148.9856139">
  <ele>683.88</ele>
  <time>2026-09-01T19:59:48Z</time>
  <course>6.81</course>
  <speed>25.97</speed>
  <fix>3d</fix>
</trkpt>
<trkpt lat="-35.2800857" lon="148.9856233">
  <ele>683.08</ele>
  <time>2026-09-01T19:59:48Z</time>
  <course>6.95</course>
  <speed>25.943477022172647</speed>
  <fix>3d</fix>
</trkpt>
<trkpt lat="-35.2801505" lon="148.9856139">
  <ele>683.88</ele>
  <time>2026-09-01T19:59:48Z</time>
  <course>6.81</course>
  <speed>25.97</speed>
  <fix>3d</fix>
</trkpt>
<trkpt lat="-35.2800624" lon="148.9856267">
  <ele>682.87</ele>
  <time>2026-09-01T19:59:48Z</time>
  <course>6.94</course>
  <speed>25.953406327493894</speed>
  <fix>3d</fix>
</trkpt>
<trkpt lat="-35.2801042" lon="148.9856207">
  <ele>683.45</ele>
  <time>2026-09-01T19:59:48Z</time>
  <course>6.81</course>
  <speed>25.97</speed>
  <fix>3d</fix>
</trkpt>
<trkpt lat="-35.2800391" lon="148.9856302">
  <ele>682.65</ele>
  <time>2026-09-01T19:59:48Z</time>
  <course>6.99</course>
  <speed>25.953406327493894</speed>
  <fix>3d</fix>
</trkpt>
<trkpt lat="-35.2801042" lon="148.9856207">
  <ele>683.45</ele>
  <time>2026-09-01T19:59:48Z</time>
  <course>6.81</course>
  <speed>25.97</speed>
  <fix>3d</fix>
</trkpt>
<trkpt lat="-35.2800158" lon="148.9856336">
  <ele>682.44</ele>
  <time>2026-09-01T19:59:48Z</time>
  <course>6.96</course>
  <speed>25.96333568707996</speed>
  <fix>3d</fix>
</trkpt>
<trkpt lat="-35.2800579" lon="148.9856274">
  <ele>683.03</ele>
  <time>2026-09-01T19:59:48Z</time>
  <course>6.81</course>
  <speed>25.97</speed>
  <fix>3d</fix>
</trkpt>
<trkpt lat="-35.2799925" lon="148.985637">
  <ele>682.23</ele>
  <time>2026-09-01T19:59:48Z</time>
  <course>6.95</course>
  <speed>25.962151297610145</speed>
  <fix>3d</fix>
</trkpt>
<trkpt lat="-35.2800579" lon="148.9856274">
  <ele>683.03</ele>
  <time>2026-09-01T19:59:48Z</time>
  <course>6.81</course>
  <speed>25.97</speed>
  <fix>3d</fix>
</trkpt>
<trkpt lat="-35.2799692" lon="148.9856404">
  <ele>682.03</ele>
  <time>2026-09-01T19:59:48Z</time>
  <course>6.95</course>
  <speed>25.962151297610145</speed>
  <fix>3d</fix>
</trkpt>
<trkpt lat="-35.2800116" lon="148.9856342">
  <ele>682.61</ele>
  <time>2026-09-01T19:59:48Z</time>
  <course>6.8</course>
  <speed>25.96</speed>
  <fix>3d</fix>
</trkpt>
<trkpt lat="-35.2799459" lon="148.9856438">
  <ele>681.82</ele>
  <time>2026-09-01T19:59:48Z</time>
  <course>6.95</course>
  <speed>25.962151297610145</speed>
  <fix>3d</fix>
</trkpt>
<trkpt lat="-35.2800116" lon="148.9856342">
  <ele>682.61</ele>
  <time>2026-09-01T19:59:48Z</time>
  <course>6.8</course>
  <speed>25.96</speed>
  <fix>3d</fix>
</trkpt>
<trkpt lat="-35.2799226" lon="148.9856472">
  <ele>681.62</ele>
  <time>2026-09-01T19:59:48Z</time>
  <course>6.97</course>
  <speed>25.962151297610145</speed>
  <fix>3d</fix>
</trkpt>
<trkpt lat="-35.2799653" lon="148.9856409">
  <ele>682.19</ele>
  <time>2026-09-01T19:59:48Z</time>
  <course>6.78</course>
  <speed>25.95</speed>
  <fix>3d</fix>
</trkpt>
<trkpt lat="-35.2798992" lon="148.9856506">
  <ele>681.41</ele>
  <time>2026-09-01T19:59:48Z</time>
  <course>6.97</course>
  <speed>25.951040441569965</speed>
  <fix>3d</fix>
</trkpt>
<trkpt lat="-35.2799653" lon="148.9856409">
  <ele>682.19</ele>
  <time>2026-09-01T19:59:48Z</time>
  <course>6.78</course>
  <speed>25.95</speed>
  <fix>3d</fix>
</trkpt>
<trkpt lat="-35.2798761" lon="148.9856539">
  <ele>681.21</ele>
  <time>2026-09-01T19:59:48Z</time>
  <course>6.96</course>
  <speed>25.951040441569965</speed>
  <fix>3d</fix>
</trkpt>
<trkpt lat="-35.279919" lon="148.9856476">
  <ele>681.78</ele>
  <time>2026-09-01T19:59:48Z</time>
  <course>6.77</course>
  <speed>25.94</speed>
  <fix>3d</fix>
</trkpt>
<trkpt lat="-35.279853" lon="148.9856573">
  <ele>681.02</ele>
  <time>2026-09-01T19:59:48Z</time>
  <course>6.98</course>
  <speed>25.941110230674397</speed>
  <fix>3d</fix>
</trkpt>
<trkpt lat="-35.279919" lon="148.9856476">
  <ele>681.78</ele>
  <time>2026-09-01T19:59:48Z</time>
  <course>6.77</course>
  <speed>25.94</speed>
  <fix>3d</fix>
</trkpt>
<trkpt lat="-35.2798299" lon="148.9856606">
  <ele>680.82</ele>
  <time>2026-09-01T19:59:48Z</time>
  <course>7.01</course>
  <speed>25.921249969860636</speed>
  <fix>3d</fix>
</trkpt>
<trkpt lat="-35.2798728" lon="148.9856544">
  <ele>681.38</ele>
  <time>2026-09-01T19:59:48Z</time>
  <course>6.76</course>
  <speed>25.92</speed>
  <fix>3d</fix>
</trkpt>
<trkpt lat="-35.2798069" lon="148.985664">
  <ele>680.62</ele>
  <time>2026-09-01T19:59:48Z</time>
  <course>7.01</course>
  <speed>25.901389924094804</speed>
  <fix>3d</fix>
</trkpt>
<trkpt lat="-35.2798728" lon="148.9856544">
  <ele>681.38</ele>
  <time>2026-09-01T19:59:48Z</time>
  <course>6.76</course>
  <speed>25.92</speed>
  <fix>3d</fix>
</trkpt>
<trkpt lat="-35.2797838" lon="148.9856673">
  <ele>680.42</ele>
  <time>2026-09-01T19:59:48Z</time>
  <course>6.99</course>
  <speed>25.890280029385544</speed>
  <fix>3d</fix>
</trkpt>
<trkpt lat="-35.2798265" lon="148.9856611">
  <ele>680.99</ele>
  <time>2026-09-01T19:59:48Z</time>
  <course>6.76</course>
  <speed>25.9</speed>
  <fix>3d</fix>
</trkpt>
<trkpt lat="-35.2797608" lon="148.9856707">
  <ele>680.22</ele>
  <time>2026-09-01T19:59:48Z</time>
  <course>6.97</course>
  <speed>25.880349688518507</speed>
  <fix>3d</fix>
</trkpt>
<trkpt lat="-35.2798265" lon="148.9856611">
  <ele>680.99</ele>
  <time>2026-09-01T19:59:48Z</time>
  <course>6.76</course>
  <speed>25.9</speed>
  <fix>3d</fix>
</trkpt>
<trkpt lat="-35.2797376" lon="148.985674">
  <ele>680.02</ele>
  <time>2026-09-01T19:59:48Z</time>
  <course>6.95</course>
  <speed>25.870419401316244</speed>
  <fix>3d</fix>
</trkpt>
<trkpt lat="-35.2797802" lon="148.9856678">
  <ele>680.59</ele>
  <time>2026-09-01T19:59:48Z</time>
  <course>6.76</course>
  <speed>25.88</speed>
  <fix>3d</fix>
</trkpt>
<trkpt lat="-35.2797145" lon="148.9856774">
  <ele>679.82</ele>
  <time>2026-09-01T19:59:48Z</time>
  <course>6.93</course>
  <speed>25.85931166910674</speed>
  <fix>3d</fix>
</trkpt>
<trkpt lat="-35.2797802" lon="148.9856678">
  <ele>680.59</ele>
  <time>2026-09-01T19:59:48Z</time>
  <course>6.76</course>
  <speed>25.88</speed>
  <fix>3d</fix>
</trkpt>
<trkpt lat="-35.2796914" lon="148.9856807">
  <ele>679.62</ele>
  <time>2026-09-01T19:59:48Z</time>
  <course>6.92</course>
  <speed>25.85931166910674</speed>
  <fix>3d</fix>
</trkpt>
<trkpt lat="-35.279734" lon="148.9856745">
  <ele>680.2</ele>
  <time>2026-09-01T19:59:48Z</time>
  <course>6.75</course>
  <speed>25.86</speed>
  <fix>3d</fix>
</trkpt>
<trkpt lat="-35.2796683" lon="148.9856841">
  <ele>679.42</ele>
  <time>2026-09-01T19:59:48Z</time>
  <course>6.92</course>
  <speed>25.84820690105989</speed>
  <fix>3d</fix>
</trkpt>
<trkpt lat="-35.279734" lon="148.9856745">
  <ele>680.2</ele>
  <time>2026-09-01T19:59:48Z</time>
  <course>6.75</course>
  <speed>25.86</speed>
  <fix>3d</fix>
</trkpt>
<trkpt lat="-35.2796451" lon="148.9856874">
  <ele>679.22</ele>
  <time>2026-09-01T19:59:48Z</time>
  <course>6.92</course>
  <speed>25.838275871272835</speed>
  <fix>3d</fix>
</trkpt>
<trkpt lat="-35.2796879" lon="148.9856812">
  <ele>679.8</ele>
  <time>2026-09-01T19:59:48Z</time>
  <course>6.73</course>
  <speed>25.84</speed>
  <fix>3d</fix>
</trkpt>
<trkpt lat="-35.279622" lon="148.9856907">
  <ele>679.02</ele>
  <time>2026-09-01T19:59:48Z</time>
  <course>6.9</course>
  <speed>25.837105100997675</speed>
  <fix>3d</fix>
</trkpt>
<trkpt lat="-35.2796879" lon="148.9856812">
  <ele>679.8</ele>
  <time>2026-09-01T19:59:48Z</time>
  <course>6.73</course>
  <speed>25.84</speed>
  <fix>3d</fix>
</trkpt>
<trkpt lat="-35.2795989" lon="148.9856941">
  <ele>678.82</ele>
  <time>2026-09-01T19:59:48Z</time>
  <course>6.88</course>
  <speed>25.82717367425247</speed>
  <fix>3d</fix>
</trkpt>
<trkpt lat="-35.2796418" lon="148.9856879">
  <ele>679.4</ele>
  <time>2026-09-01T19:59:48Z</time>
  <course>6.71</course>
  <speed>25.82</speed>
  <fix>3d</fix>
</trkpt>
<trkpt lat="-35.2795758" lon="148.9856974">
  <ele>678.62</ele>
  <time>2026-09-01T19:59:48Z</time>
  <course>6.91</course>
  <speed>25.82717367425247</speed>
  <fix>3d</fix>
</trkpt>
<trkpt lat="-35.2796418" lon="148.9856879">
  <ele>679.4</ele>
  <time>2026-09-01T19:59:48Z</time>
  <course>6.71</course>
  <speed>25.82</speed>
  <fix>3d</fix>
</trkpt>
<trkpt lat="-35.2795527" lon="148.9857007">
  <ele>678.41</ele>
  <time>2026-09-01T19:59:48Z</time>
  <course>6.96</course>
  <speed>25.817242300447198</speed>
  <fix>3d</fix>
</trkpt>
<trkpt lat="-35.2795957" lon="148.9856945">
  <ele>679.0</ele>
  <time>2026-09-01T19:59:48Z</time>
  <course>6.7</course>
  <speed>25.8</speed>
  <fix>3d</fix>
</trkpt>
<trkpt lat="-35.2795296" lon="148.9857041">
  <ele>678.21</ele>
  <time>2026-09-01T19:59:48Z</time>
  <course>6.98</course>
  <speed>25.807310979642956</speed>
  <fix>3d</fix>
</trkpt>
<trkpt lat="-35.2795957" lon="148.9856945">
  <ele>679.0</ele>
  <time>2026-09-01T19:59:48Z</time>
  <course>6.7</course>
  <speed>25.8</speed>
  <fix>3d</fix>
</trkpt>
<trkpt lat="-35.2795066" lon="148.9857074">
  <ele>678.0</ele>
  <time>2026-09-01T19:59:48Z</time>
  <course>6.93</course>
  <speed>25.807310979642956</speed>
  <fix>3d</fix>
</trkpt>
<trkpt lat="-35.2795498" lon="148.9857012">
  <ele>678.59</ele>
  <time>2026-09-01T19:59:48Z</time>
  <course>6.7</course>
  <speed>25.78</speed>
  <fix>3d</fix>
</trkpt>
<trkpt lat="-35.2794835" lon="148.9857107">
  <ele>677.8</ele>
  <time>2026-09-01T19:59:48Z</time>
  <course>6.91</course>
  <speed>25.796210962077357</speed>
  <fix>3d</fix>
</trkpt>
<trkpt lat="-35.2795498" lon="148.9857012">
  <ele>678.59</ele>
  <time>2026-09-01T19:59:48Z</time>
  <course>6.7</course>
  <speed>25.78</speed>
  <fix>3d</fix>
</trkpt>
<trkpt lat="-35.2794605" lon="148.985714">
  <ele>677.6</ele>
  <time>2026-09-01T19:59:48Z</time>
  <course>6.94</course>
  <speed>25.796210962077357</speed>
  <fix>3d</fix>
</trkpt>
<trkpt lat="-35.2795038" lon="148.9857078">
  <ele>678.18</ele>
  <time>2026-09-01T19:59:48Z</time>
  <course>6.7</course>
  <speed>25.77</speed>
  <fix>3d</fix>
</trkpt>
<trkpt lat="-35.2794375" lon="148.9857173">
  <ele>677.39</ele>
  <time>2026-09-01T19:59:48Z</time>
  <course>6.96</course>
  <speed>25.78627929733175</speed>
  <fix>3d</fix>
</trkpt>
<trkpt lat="-35.2795038" lon="148.9857078">
  <ele>678.18</ele>
  <time>2026-09-01T19:59:48Z</time>
  <course>6.7</course>
  <speed>25.77</speed>
  <fix>3d</fix>
</trkpt>
<trkpt lat="-35.2794147" lon="148.9857206">
  <ele>677.18</ele>
  <time>2026-09-01T19:59:48Z</time>
  <course>6.93</course>
  <speed>25.776347685426654</speed>
  <fix>3d</fix>
</trkpt>
<trkpt lat="-35.2794578" lon="148.9857144">
  <ele>677.77</ele>
  <time>2026-09-01T19:59:48Z</time>
  <course>6.69</course>
  <speed>25.75</speed>
  <fix>3d</fix>
</trkpt>
<trkpt lat="-35.2793918" lon="148.9857239">
  <ele>676.98</ele>
  <time>2026-09-01T19:59:48Z</time>
  <course>6.93</course>
  <speed>25.776347685426654</speed>
  <fix>3d</fix>
</trkpt>
<trkpt lat="-35.2794578" lon="148.9857144">
  <ele>677.77</ele>
  <time>2026-09-01T19:59:48Z</time>
  <course>6.69</course>
  <speed>25.75</speed>
  <fix>3d</fix>
</trkpt>
<trkpt lat="-35.279369" lon="148.9857272">
  <ele>676.77</ele>
  <time>2026-09-01T19:59:48Z</time>
  <course>6.91</course>
  <speed>25.756484620382494</speed>
  <fix>3d</fix>
</trkpt>
<trkpt lat="-35.2794119" lon="148.9857209">
  <ele>677.36</ele>
  <time>2026-09-01T19:59:48Z</time>
  <course>6.69</course>
  <speed>25.74</speed>
  <fix>3d</fix>
</trkpt>
<trkpt lat="-35.2793462" lon="148.9857305">
  <ele>676.56</ele>
  <time>2026-09-01T19:59:48Z</time>
  <course>6.91</course>
  <speed>25.746553167365917</speed>
  <fix>3d</fix>
</trkpt>
<trkpt lat="-35.2794119" lon="148.9857209">
  <ele>677.36</ele>
  <time>2026-09-01T19:59:48Z</time>
  <course>6.69</course>
  <speed>25.74</speed>
  <fix>3d</fix>
</trkpt>
<trkpt lat="-35.2793232" lon="148.9857338">
  <ele>676.36</ele>
  <time>2026-09-01T19:59:48Z</time>
  <course>6.92</course>
  <speed>25.735454144040283</speed>
  <fix>3d</fix>
</trkpt>
<trkpt lat="-35.2793659" lon="148.9857276">
  <ele>676.94</ele>
  <time>2026-09-01T19:59:48Z</time>
  <course>6.68</course>
  <speed>25.74</speed>
  <fix>3d</fix>
</trkpt>
<trkpt lat="-35.2793004" lon="148.985737">
  <ele>676.15</ele>
  <time>2026-09-01T19:59:48Z</time>
  <course>6.93</course>
  <speed>25.725522346494735</speed>
  <fix>3d</fix>
</trkpt>
<trkpt lat="-35.2793659" lon="148.9857276">
  <ele>676.94</ele>
  <time>2026-09-01T19:59:48Z</time>
  <course>6.68</course>
  <speed>25.74</speed>
  <fix>3d</fix>
</trkpt>
<trkpt lat="-35.2792775" lon="148.9857403">
  <ele>675.95</ele>
  <time>2026-09-01T19:59:48Z</time>
  <course>6.96</course>
  <speed>25.715590601811968</speed>
  <fix>3d</fix>
</trkpt>
<trkpt lat="-35.2793198" lon="148.9857343">
  <ele>676.53</ele>
  <time>2026-09-01T19:59:48Z</time>
  <course>6.69</course>
  <speed>25.73</speed>
  <fix>3d</fix>
</trkpt>
<trkpt lat="-35.2792547" lon="148.9857436">
  <ele>675.74</ele>
  <time>2026-09-01T19:59:48Z</time>
  <course>6.94</course>
  <speed>25.70565891005325</speed>
  <fix>3d</fix>
</trkpt>
<trkpt lat="-35.2793198" lon="148.9857343">
  <ele>676.53</ele>
  <time>2026-09-01T19:59:48Z</time>
  <course>6.69</course>
  <speed>25.73</speed>
  <fix>3d</fix>
</trkpt>
<trkpt lat="-35.2792318" lon="148.9857469">
  <ele>675.54</ele>
  <time>2026-09-01T19:59:48Z</time>
  <course>6.95</course>
  <speed>25.70565891005325</speed>
  <fix>3d</fix>
</trkpt>
<trkpt lat="-35.2792739" lon="148.9857409">
  <ele>676.13</ele>
  <time>2026-09-01T19:59:48Z</time>
  <course>6.69</course>
  <speed>25.73</speed>
  <fix>3d</fix>
</trkpt>
<trkpt lat="-35.2792088" lon="148.9857502">
  <ele>675.34</ele>
  <time>2026-09-01T19:59:48Z</time>
  <course>6.97</course>
  <speed>25.70565891005325</speed>
  <fix>3d</fix>
</trkpt>
<trkpt lat="-35.2792739" lon="148.9857409">
  <ele>676.13</ele>
  <time>2026-09-01T19:59:48Z</time>
  <course>6.69</course>
  <speed>25.73</speed>
  <fix>3d</fix>
</trkpt>
<trkpt lat="-35.2791859" lon="148.9857535">
  <ele>675.13</ele>
  <time>2026-09-01T19:59:49Z</time>
  <course>6.97</course>
  <speed>25.70565891005325</speed>
  <fix>3d</fix>
</trkpt>
<trkpt lat="-35.279228" lon="148.9857475">
  <ele>675.72</ele>
  <time>2026-09-01T19:59:49Z</time>
  <course>6.69</course>
  <speed>25.72</speed>
  <fix>3d</fix>
</trkpt>
<trkpt lat="-35.2791629" lon="148.9857568">
  <ele>674.93</ele>
  <time>2026-09-01T19:59:49Z</time>
  <course>6.98</course>
  <speed>25.70682788676969</speed>
  <fix>3d</fix>
</trkpt>
<trkpt lat="-35.279228" lon="148.9857475">
  <ele>675.72</ele>
  <time>2026-09-01T19:59:49Z</time>
  <course>6.69</course>
  <speed>25.72</speed>
  <fix>3d</fix>
</trkpt>
<trkpt lat="-35.2791398" lon="148.9857602">
  <ele>674.72</ele>
  <time>2026-09-01T19:59:49Z</time>
  <course>6.99</course>
  <speed>25.716759127075093</speed>
  <fix>3d</fix>
</trkpt>
<trkpt lat="-35.2791821" lon="148.9857541">
  <ele>675.32</ele>
  <time>2026-09-01T19:59:49Z</time>
  <course>6.7</course>
  <speed>25.72</speed>
  <fix>3d</fix>
</trkpt>
<trkpt lat="-35.2791168" lon="148.9857635">
  <ele>674.52</ele>
  <time>2026-09-01T19:59:49Z</time>
  <course>6.97</course>
  <speed>25.715590601811968</speed>
  <fix>3d</fix>
</trkpt>
<trkpt lat="-35.2791821" lon="148.9857541">
  <ele>675.32</ele>
  <time>2026-09-01T19:59:49Z</time>
  <course>6.7</course>
  <speed>25.72</speed>
  <fix>3d</fix>
</trkpt>
<trkpt lat="-35.2790938" lon="148.9857668">
  <ele>674.33</ele>
  <time>2026-09-01T19:59:49Z</time>
  <course>6.99</course>
  <speed>25.725522346494735</speed>
  <fix>3d</fix>
</trkpt>
<trkpt lat="-35.2791363" lon="148.9857606">
  <ele>674.92</ele>
  <time>2026-09-01T19:59:49Z</time>
  <course>6.7</course>
  <speed>25.73</speed>
  <fix>3d</fix>
</trkpt>
<trkpt lat="-35.2790708" lon="148.9857701">
  <ele>674.14</ele>
  <time>2026-09-01T19:59:49Z</time>
  <course>7.03</course>
  <speed>25.725522346494735</speed>
  <fix>3d</fix>
</trkpt>
<trkpt lat="-35.2791363" lon="148.9857606">
  <ele>674.92</ele>
  <time>2026-09-01T19:59:49Z</time>
  <course>6.7</course>
  <speed>25.73</speed>
  <fix>3d</fix>
</trkpt>
<trkpt lat="-35.2790477" lon="148.9857734">
  <ele>673.94</ele>
  <time>2026-09-01T19:59:49Z</time>
  <course>7.06</course>
  <speed>25.726690420650687</speed>
  <fix>3d</fix>
</trkpt>
<trkpt lat="-35.2790904" lon="148.9857673">
  <ele>674.52</ele>
  <time>2026-09-01T19:59:49Z</time>
  <course>6.7</course>
  <speed>25.73</speed>
  <fix>3d</fix>
</trkpt>
<trkpt lat="-35.2790247" lon="148.9857768">
  <ele>673.75</ele>
  <time>2026-09-01T19:59:49Z</time>
  <course>7.03</course>
  <speed>25.72786232861176</speed>
  <fix>3d</fix>
</trkpt>
<trkpt lat="-35.2790904" lon="148.9857673">
  <ele>674.52</ele>
  <time>2026-09-01T19:59:49Z</time>
  <course>6.7</course>
  <speed>25.73</speed>
  <fix>3d</fix>
</trkpt>
<trkpt lat="-35.2790017" lon="148.9857801">
  <ele>673.56</ele>
  <time>2026-09-01T19:59:49Z</time>
  <course>7.04</course>
  <speed>25.72786232861176</speed>
  <fix>3d</fix>
</trkpt>
<trkpt lat="-35.2790445" lon="148.9857739">
  <ele>674.14</ele>
  <time>2026-09-01T19:59:49Z</time>
  <course>6.71</course>
  <speed>25.73</speed>
  <fix>3d</fix>
</trkpt>
<trkpt lat="-35.2789787" lon="148.9857834">
  <ele>673.37</ele>
  <time>2026-09-01T19:59:49Z</time>
  <course>7.01</course>
  <speed>25.72786232861176</speed>
  <fix>3d</fix>
</trkpt>
<trkpt lat="-35.2790445" lon="148.9857739">
  <ele>674.14</ele>
  <time>2026-09-01T19:59:49Z</time>
  <course>6.71</course>
  <speed>25.73</speed>
  <fix>3d</fix>
</trkpt>
<trkpt lat="-35.278956" lon="148.9857867">
  <ele>673.18</ele>
  <time>2026-09-01T19:59:49Z</time>
  <course>6.97</course>
  <speed>25.72786232861176</speed>
  <fix>3d</fix>
</trkpt>
<trkpt lat="-35.2789986" lon="148.9857805">
  <ele>673.76</ele>
  <time>2026-09-01T19:59:49Z</time>
  <course>6.72</course>
  <speed>25.73</speed>
  <fix>3d</fix>
</trkpt>
<trkpt lat="-35.2789331" lon="148.98579">
  <ele>673.0</ele>
  <time>2026-09-01T19:59:49Z</time>
  <course>7.01</course>
  <speed>25.717931487582746</speed>
  <fix>3d</fix>
</trkpt>
<trkpt lat="-35.2789986" lon="148.9857805">
  <ele>673.76</ele>
  <time>2026-09-01T19:59:49Z</time>
  <course>6.72</course>
  <speed>25.73</speed>
  <fix>3d</fix>
</trkpt>
<trkpt lat="-35.2789103" lon="148.9857933">
  <ele>672.82</ele>
  <time>2026-09-01T19:59:49Z</time>
  <course>7.07</course>
  <speed>25.70800070017114</speed>
  <fix>3d</fix>
</trkpt>
<trkpt lat="-35.2789527" lon="148.9857871">
  <ele>673.38</ele>
  <time>2026-09-01T19:59:49Z</time>
  <course>6.73</course>
  <speed>25.73</speed>
  <fix>3d</fix>
</trkpt>
<trkpt lat="-35.2788875" lon="148.9857966">
  <ele>672.63</ele>
  <time>2026-09-01T19:59:49Z</time>
  <course>7.08</course>
  <speed>25.688139286448912</speed>
  <fix>3d</fix>
</trkpt>
<trkpt lat="-35.2789527" lon="148.9857871">
  <ele>673.38</ele>
  <time>2026-09-01T19:59:49Z</time>
  <course>6.73</course>
  <speed>25.73</speed>
  <fix>3d</fix>
</trkpt>
<trkpt lat="-35.2788647" lon="148.9857999">
  <ele>672.45</ele>
  <time>2026-09-01T19:59:49Z</time>
  <course>7.08</course>
  <speed>25.679386674918856</speed>
  <fix>3d</fix>
</trkpt>
<trkpt lat="-35.2789067" lon="148.9857938">
  <ele>673.02</ele>
  <time>2026-09-01T19:59:49Z</time>
  <course>6.73</course>
  <speed>25.72</speed>
  <fix>3d</fix>
</trkpt>
<trkpt lat="-35.2788417" lon="148.9858032">
  <ele>672.27</ele>
  <time>2026-09-01T19:59:49Z</time>
  <course>7.09</course>
  <speed>25.669456558330175</speed>
  <fix>3d</fix>
</trkpt>
<trkpt lat="-35.2789067" lon="148.9857938">
  <ele>673.02</ele>
  <time>2026-09-01T19:59:49Z</time>
  <course>6.73</course>
  <speed>25.72</speed>
  <fix>3d</fix>
</trkpt>
<trkpt lat="-35.278819" lon="148.9858065">
  <ele>672.09</ele>
  <time>2026-09-01T19:59:49Z</time>
  <course>7.07</course>
  <speed>25.658347569553268</speed>
  <fix>3d</fix>
</trkpt>
<trkpt lat="-35.2788607" lon="148.9858004">
  <ele>672.66</ele>
  <time>2026-09-01T19:59:49Z</time>
  <course>6.75</course>
  <speed>25.71</speed>
  <fix>3d</fix>
</trkpt>
<trkpt lat="-35.2787962" lon="148.9858099">
  <ele>671.91</ele>
  <time>2026-09-01T19:59:49Z</time>
  <course>7.09</course>
  <speed>25.648417105154852</speed>
  <fix>3d</fix>
</trkpt>
<trkpt lat="-35.2788607" lon="148.9858004">
  <ele>672.66</ele>
  <time>2026-09-01T19:59:49Z</time>
  <course>6.75</course>
  <speed>25.71</speed>
  <fix>3d</fix>
</trkpt>
<trkpt lat="-35.2787727" lon="148.9858133">
  <ele>671.72</ele>
  <time>2026-09-01T19:59:49Z</time>
  <course>7.08</course>
  <speed>25.638486694810986</speed>
  <fix>3d</fix>
</trkpt>
<trkpt lat="-35.2788149" lon="148.9858071">
  <ele>672.3</ele>
  <time>2026-09-01T19:59:49Z</time>
  <course>6.76</course>
  <speed>25.71</speed>
  <fix>3d</fix>
</trkpt>
<trkpt lat="-35.2787501" lon="148.9858166">
  <ele>671.55</ele>
  <time>2026-09-01T19:59:49Z</time>
  <course>7.07</course>
  <speed>25.628556338584502</speed>
  <fix>3d</fix>
</trkpt>
<trkpt lat="-35.2788149" lon="148.9858071">
  <ele>672.3</ele>
  <time>2026-09-01T19:59:49Z</time>
  <course>6.76</course>
  <speed>25.71</speed>
  <fix>3d</fix>
</trkpt>
<trkpt lat="-35.2787271" lon="148.9858199">
  <ele>671.37</ele>
  <time>2026-09-01T19:59:49Z</time>
  <course>7.1</course>
  <speed>25.638486694810986</speed>
  <fix>3d</fix>
</trkpt>
<trkpt lat="-35.278769" lon="148.9858138">
  <ele>671.94</ele>
  <time>2026-09-01T19:59:49Z</time>
  <course>6.77</course>
  <speed>25.7</speed>
  <fix>3d</fix>
</trkpt>
<trkpt lat="-35.2787042" lon="148.9858232">
  <ele>671.19</ele>
  <time>2026-09-01T19:59:49Z</time>
  <course>7.07</course>
  <speed>25.639666534492996</speed>
  <fix>3d</fix>
</trkpt>
<trkpt lat="-35.278769" lon="148.9858138">
  <ele>671.94</ele>
  <time>2026-09-01T19:59:49Z</time>
  <course>6.77</course>
  <speed>25.7</speed>
  <fix>3d</fix>
</trkpt>
<trkpt lat="-35.2786812" lon="148.9858266">
  <ele>671.01</ele>
  <time>2026-09-01T19:59:49Z</time>
  <course>7.05</course>
  <speed>25.638486694810986</speed>
  <fix>3d</fix>
</trkpt>
<trkpt lat="-35.2787232" lon="148.9858204">
  <ele>671.58</ele>
  <time>2026-09-01T19:59:49Z</time>
  <course>6.77</course>
  <speed>25.7</speed>
  <fix>3d</fix>
</trkpt>
<trkpt lat="-35.2786586" lon="148.9858298">
  <ele>670.84</ele>
  <time>2026-09-01T19:59:49Z</time>
  <course>7.05</course>
  <speed>25.648417105154852</speed>
  <fix>3d</fix>
</trkpt>
<trkpt lat="-35.2787232" lon="148.9858204">
  <ele>671.58</ele>
  <time>2026-09-01T19:59:49Z</time>
  <course>6.77</course>
  <speed>25.7</speed>
  <fix>3d</fix>
</trkpt>
<trkpt lat="-35.2786356" lon="148.9858332">
  <ele>670.66</ele>
  <time>2026-09-01T19:59:49Z</time>
  <course>7.04</course>
  <speed>25.648417105154852</speed>
  <fix>3d</fix>
</trkpt>
<trkpt lat="-35.2786774" lon="148.9858271">
  <ele>671.23</ele>
  <time>2026-09-01T19:59:49Z</time>
  <course>6.77</course>
  <speed>25.7</speed>
  <fix>3d</fix>
</trkpt>
<trkpt lat="-35.2786126" lon="148.9858365">
  <ele>670.48</ele>
  <time>2026-09-01T19:59:49Z</time>
  <course>7.07</course>
  <speed>25.658347569553268</speed>
  <fix>3d</fix>
</trkpt>
<trkpt lat="-35.2786774" lon="148.9858271">
  <ele>671.23</ele>
  <time>2026-09-01T19:59:49Z</time>
  <course>6.77</course>
  <speed>25.7</speed>
  <fix>3d</fix>
</trkpt>
<trkpt lat="-35.2785895" lon="148.9858399">
  <ele>670.31</ele>
  <time>2026-09-01T19:59:49Z</time>
  <course>7.07</course>
  <speed>25.667103459486817</speed>
  <fix>3d</fix>
</trkpt>
<trkpt lat="-35.2786315" lon="148.9858338">
  <ele>670.87</ele>
  <time>2026-09-01T19:59:49Z</time>
  <course>6.76</course>
  <speed>25.7</speed>
  <fix>3d</fix>
</trkpt>
<trkpt lat="-35.2785665" lon="148.9858432">
  <ele>670.14</ele>
  <time>2026-09-01T19:59:49Z</time>
  <course>7.07</course>
  <speed>25.667103459486817</speed>
  <fix>3d</fix>
</trkpt>
<trkpt lat="-35.2786315" lon="148.9858338">
  <ele>670.87</ele>
  <time>2026-09-01T19:59:49Z</time>
  <course>6.76</course>
  <speed>25.7</speed>
  <fix>3d</fix>
</trkpt>
<trkpt lat="-35.2785435" lon="148.9858465">
  <ele>669.97</ele>
  <time>2026-09-01T19:59:49Z</time>
  <course>7.08</course>
  <speed>25.677034486092822</speed>
  <fix>3d</fix>
</trkpt>
<trkpt lat="-35.2785856" lon="148.9858404">
  <ele>670.52</ele>
  <time>2026-09-01T19:59:49Z</time>
  <course>6.74</course>
  <speed>25.7</speed>
  <fix>3d</fix>
</trkpt>
<trkpt lat="-35.2785205" lon="148.9858499">
  <ele>669.8</ele>
  <time>2026-09-01T19:59:49Z</time>
  <course>7.11</course>
  <speed>25.677034486092822</speed>
  <fix>3d</fix>
</trkpt>
<trkpt lat="-35.2785856" lon="148.9858404">
  <ele>670.52</ele>
  <time>2026-09-01T19:59:49Z</time>
  <course>6.74</course>
  <speed>25.7</speed>
  <fix>3d</fix>
</trkpt>
<trkpt lat="-35.2784974" lon="148.9858532">
  <ele>669.63</ele>
  <time>2026-09-01T19:59:49Z</time>
  <course>7.09</course>
  <speed>25.686965566216653</speed>
  <fix>3d</fix>
</trkpt>
<trkpt lat="-35.2785398" lon="148.9858471">
  <ele>670.18</ele>
  <time>2026-09-01T19:59:49Z</time>
  <course>6.72</course>
  <speed>25.7</speed>
  <fix>3d</fix>
</trkpt>
<trkpt lat="-35.2784746" lon="148.9858565">
  <ele>669.46</ele>
  <time>2026-09-01T19:59:49Z</time>
  <course>7.1</course>
  <speed>25.686965566216653</speed>
  <fix>3d</fix>
</trkpt>
<trkpt lat="-35.2785398" lon="148.9858471">
  <ele>670.18</ele>
  <time>2026-09-01T19:59:49Z</time>
  <course>6.72</course>
  <speed>25.7</speed>
  <fix>3d</fix>
</trkpt>
<trkpt lat="-35.2784517" lon="148.9858598">
  <ele>669.29</ele>
  <time>2026-09-01T19:59:49Z</time>
  <course>7.12</course>
  <speed>25.686965566216653</speed>
  <fix>3d</fix>
</trkpt>
<trkpt lat="-35.2784939" lon="148.9858537">
  <ele>669.83</ele>
  <time>2026-09-01T19:59:49Z</time>
  <course>6.72</course>
  <speed>25.7</speed>
  <fix>3d</fix>
</trkpt>
<trkpt lat="-35.2784288" lon="148.9858631">
  <ele>669.12</ele>
  <time>2026-09-01T19:59:49Z</time>
  <course>7.09</course>
  <speed>25.688139286448912</speed>
  <fix>3d</fix>
</trkpt>
<trkpt lat="-35.2784939" lon="148.9858537">
  <ele>669.83</ele>
  <time>2026-09-01T19:59:49Z</time>
  <course>6.72</course>
  <speed>25.7</speed>
  <fix>3d</fix>
</trkpt>
<trkpt lat="-35.278406" lon="148.9858664">
  <ele>668.95</ele>
  <time>2026-09-01T19:59:49Z</time>
  <course>7.09</course>
  <speed>25.67820866026289</speed>
  <fix>3d</fix>
</trkpt>
<trkpt lat="-35.2784481" lon="148.9858602">
  <ele>669.5</ele>
  <time>2026-09-01T19:59:49Z</time>
  <course>6.72</course>
  <speed>25.7</speed>
  <fix>3d</fix>
</trkpt>
<trkpt lat="-35.278383" lon="148.9858697">
  <ele>668.79</ele>
  <time>2026-09-01T19:59:49Z</time>
  <course>7.08</course>
  <speed>25.66827808794349</speed>
  <fix>3d</fix>
</trkpt>
<trkpt lat="-35.2784481" lon="148.9858602">
  <ele>669.5</ele>
  <time>2026-09-01T19:59:49Z</time>
  <course>6.72</course>
  <speed>25.7</speed>
  <fix>3d</fix>
</trkpt>
<trkpt lat="-35.2783602" lon="148.985873">
  <ele>668.62</ele>
  <time>2026-09-01T19:59:49Z</time>
  <course>7.08</course>
  <speed>25.66827808794349</speed>
  <fix>3d</fix>
</trkpt>
<trkpt lat="-35.2784022" lon="148.9858669">
  <ele>669.16</ele>
  <time>2026-09-01T19:59:49Z</time>
  <course>6.73</course>
  <speed>25.7</speed>
  <fix>3d</fix>
</trkpt>
<trkpt lat="-35.2783374" lon="148.9858763">
  <ele>668.46</ele>
  <time>2026-09-01T19:59:49Z</time>
  <course>7.1</course>
  <speed>25.658347569553268</speed>
  <fix>3d</fix>
</trkpt>
<trkpt lat="-35.2784022" lon="148.9858669">
  <ele>669.16</ele>
  <time>2026-09-01T19:59:49Z</time>
  <course>6.73</course>
  <speed>25.7</speed>
  <fix>3d</fix>
</trkpt>
<trkpt lat="-35.2783137" lon="148.9858798">
  <ele>668.3</ele>
  <time>2026-09-01T19:59:49Z</time>
  <course>7.1</course>
  <speed>25.65717248646078</speed>
  <fix>3d</fix>
</trkpt>
<trkpt lat="-35.2783562" lon="148.9858736">
  <ele>668.82</ele>
  <time>2026-09-01T19:59:49Z</time>
  <course>6.73</course>
  <speed>25.7</speed>
  <fix>3d</fix>
</trkpt>
<trkpt lat="-35.2782908" lon="148.9858831">
  <ele>668.13</ele>
  <time>2026-09-01T19:59:49Z</time>
  <course>7.1</course>
  <speed>25.667103459486817</speed>
  <fix>3d</fix>
</trkpt>
<trkpt lat="-35.2783562" lon="148.9858736">
  <ele>668.82</ele>
  <time>2026-09-01T19:59:49Z</time>
  <course>6.73</course>
  <speed>25.7</speed>
  <fix>3d</fix>
</trkpt>
<trkpt lat="-35.2782679" lon="148.9858864">
  <ele>667.97</ele>
  <time>2026-09-01T19:59:49Z</time>
  <course>7.12</course>
  <speed>25.667103459486817</speed>
  <fix>3d</fix>
</trkpt>
<trkpt lat="-35.2783103" lon="148.9858802">
  <ele>668.5</ele>
  <time>2026-09-01T19:59:49Z</time>
  <course>6.72</course>
  <speed>25.7</speed>
  <fix>3d</fix>
</trkpt>
<trkpt lat="-35.2782449" lon="148.9858897">
  <ele>667.8</ele>
  <time>2026-09-01T19:59:49Z</time>
  <course>7.11</course>
  <speed>25.677034486092822</speed>
  <fix>3d</fix>
</trkpt>
<trkpt lat="-35.2783103" lon="148.9858802">
  <ele>668.5</ele>
  <time>2026-09-01T19:59:49Z</time>
  <course>6.72</course>
  <speed>25.7</speed>
  <fix>3d</fix>
</trkpt>
<trkpt lat="-35.2782218" lon="148.985893">
  <ele>667.64</ele>
  <time>2026-09-01T19:59:49Z</time>
  <course>7.15</course>
  <speed>25.686965566216653</speed>
  <fix>3d</fix>
</trkpt>
<trkpt lat="-35.2782645" lon="148.9858869">
  <ele>668.17</ele>
  <time>2026-09-01T19:59:49Z</time>
  <course>6.72</course>
  <speed>25.7</speed>
  <fix>3d</fix>
</trkpt>
<trkpt lat="-35.2781988" lon="148.9858964">
  <ele>667.48</ele>
  <time>2026-09-01T19:59:49Z</time>
  <course>7.14</course>
  <speed>25.686965566216653</speed>
  <fix>3d</fix>
</trkpt>
<trkpt lat="-35.2782645" lon="148.9858869">
  <ele>668.17</ele>
  <time>2026-09-01T19:59:49Z</time>
  <course>6.72</course>
  <speed>25.7</speed>
  <fix>3d</fix>
</trkpt>
<trkpt lat="-35.2781755" lon="148.9858997">
  <ele>667.32</ele>
  <time>2026-09-01T19:59:49Z</time>
  <course>7.14</course>
  <speed>25.698069966439117</speed>
  <fix>3d</fix>
</trkpt>
<trkpt lat="-35.2782186" lon="148.9858935">
  <ele>667.85</ele>
  <time>2026-09-01T19:59:49Z</time>
  <course>6.72</course>
  <speed>25.7</speed>
  <fix>3d</fix>
</trkpt>
<trkpt lat="-35.2781524" lon="148.9859031">
  <ele>667.16</ele>
  <time>2026-09-01T19:59:49Z</time>
  <course>7.09</course>
  <speed>25.70682788676969</speed>
  <fix>3d</fix>
</trkpt>
<trkpt lat="-35.2782186" lon="148.9858935">
  <ele>667.85</ele>
  <time>2026-09-01T19:59:49Z</time>
  <course>6.72</course>
  <speed>25.7</speed>
  <fix>3d</fix>
</trkpt>
<trkpt lat="-35.2781293" lon="148.9859064">
  <ele>667.0</ele>
  <time>2026-09-01T19:59:49Z</time>
  <course>7.12</course>
  <speed>25.70682788676969</speed>
  <fix>3d</fix>
</trkpt>
<trkpt lat="-35.2781728" lon="148.9859">
  <ele>667.52</ele>
  <time>2026-09-01T19:59:49Z</time>
  <course>6.72</course>
  <speed>25.7</speed>
  <fix>3d</fix>
</trkpt>
<trkpt lat="-35.2781063" lon="148.9859097">
  <ele>666.84</ele>
  <time>2026-09-01T19:59:49Z</time>
  <course>7.16</course>
  <speed>25.717931487582746</speed>
  <fix>3d</fix>
</trkpt>
<trkpt lat="-35.2781728" lon="148.9859">
  <ele>667.52</ele>
  <time>2026-09-01T19:59:49Z</time>
  <course>6.72</course>
  <speed>25.7</speed>
  <fix>3d</fix>
</trkpt>
<trkpt lat="-35.2780833" lon="148.985913">
  <ele>666.68</ele>
  <time>2026-09-01T19:59:49Z</time>
  <course>7.13</course>
  <speed>25.717931487582746</speed>
  <fix>3d</fix>
</trkpt>
<trkpt lat="-35.2781269" lon="148.9859066">
  <ele>667.19</ele>
  <time>2026-09-01T19:59:49Z</time>
  <course>6.71</course>
  <speed>25.71</speed>
  <fix>3d</fix>
</trkpt>
<trkpt lat="-35.2780604" lon="148.9859163">
  <ele>666.52</ele>
  <time>2026-09-01T19:59:49Z</time>
  <course>7.14</course>
  <speed>25.717931487582746</speed>
  <fix>3d</fix>
</trkpt>
<trkpt lat="-35.2781269" lon="148.9859066">
  <ele>667.19</ele>
  <time>2026-09-01T19:59:49Z</time>
  <course>6.71</course>
  <speed>25.71</speed>
  <fix>3d</fix>
</trkpt>
<trkpt lat="-35.2780375" lon="148.9859196">
  <ele>666.35</ele>
  <time>2026-09-01T19:59:49Z</time>
  <course>7.12</course>
  <speed>25.717931487582746</speed>
  <fix>3d</fix>
</trkpt>
<trkpt lat="-35.278081" lon="148.9859133">
  <ele>666.88</ele>
  <time>2026-09-01T19:59:49Z</time>
  <course>6.71</course>
  <speed>25.71</speed>
  <fix>3d</fix>
</trkpt>
<trkpt lat="-35.2780152" lon="148.9859229">
  <ele>666.19</ele>
  <time>2026-09-01T19:59:49Z</time>
  <course>7.13</course>
  <speed>25.70800070017114</speed>
  <fix>3d</fix>
</trkpt>
<trkpt lat="-35.278081" lon="148.9859133">
  <ele>666.88</ele>
  <time>2026-09-01T19:59:49Z</time>
  <course>6.71</course>
  <speed>25.71</speed>
  <fix>3d</fix>
</trkpt>
<trkpt lat="-35.2779927" lon="148.9859261">
  <ele>666.03</ele>
  <time>2026-09-01T19:59:49Z</time>
  <course>7.16</course>
  <speed>25.698069966439117</speed>
  <fix>3d</fix>
</trkpt>
<trkpt lat="-35.2780352" lon="148.98592">
  <ele>666.55</ele>
  <time>2026-09-01T19:59:49Z</time>
  <course>6.72</course>
  <speed>25.71</speed>
  <fix>3d</fix>
</trkpt>
<trkpt lat="-35.27797" lon="148.9859294">
  <ele>665.87</ele>
  <time>2026-09-01T19:59:49Z</time>
  <course>7.15</course>
  <speed>25.68931684572402</speed>
  <fix>3d</fix>
</trkpt>
<trkpt lat="-35.2780352" lon="148.98592">
  <ele>666.55</ele>
  <time>2026-09-01T19:59:49Z</time>
  <course>6.72</course>
  <speed>25.71</speed>
  <fix>3d</fix>
</trkpt>
<trkpt lat="-35.2779472" lon="148.9859327">
  <ele>665.71</ele>
  <time>2026-09-01T19:59:49Z</time>
  <course>7.15</course>
  <speed>25.67820866026289</speed>
  <fix>3d</fix>
</trkpt>
<trkpt lat="-35.2779893" lon="148.9859266">
  <ele>666.23</ele>
  <time>2026-09-01T19:59:49Z</time>
  <course>6.73</course>
  <speed>25.71</speed>
  <fix>3d</fix>
</trkpt>
<trkpt lat="-35.2779244" lon="148.985936">
  <ele>665.54</ele>
  <time>2026-09-01T19:59:49Z</time>
  <course>7.2</course>
  <speed>25.66827808794349</speed>
  <fix>3d</fix>
</trkpt>
<trkpt lat="-35.2779893" lon="148.9859266">
  <ele>666.23</ele>
  <time>2026-09-01T19:59:49Z</time>
  <course>6.73</course>
  <speed>25.71</speed>
  <fix>3d</fix>
</trkpt>
<trkpt lat="-35.2779014" lon="148.9859394">
  <ele>665.38</ele>
  <time>2026-09-01T19:59:49Z</time>
  <course>7.18</course>
  <speed>25.66827808794349</speed>
  <fix>3d</fix>
</trkpt>
<trkpt lat="-35.2779434" lon="148.9859332">
  <ele>665.91</ele>
  <time>2026-09-01T19:59:49Z</time>
  <course>6.74</course>
  <speed>25.71</speed>
  <fix>3d</fix>
</trkpt>
<trkpt lat="-35.2778785" lon="148.9859427">
  <ele>665.23</ele>
  <time>2026-09-01T19:59:49Z</time>
  <course>7.18</course>
  <speed>25.659526496020927</speed>
  <fix>3d</fix>
</trkpt>
<trkpt lat="-35.2779434" lon="148.9859332">
  <ele>665.91</ele>
  <time>2026-09-01T19:59:49Z</time>
  <course>6.74</course>
  <speed>25.71</speed>
  <fix>3d</fix>
</trkpt>
<trkpt lat="-35.2778557" lon="148.985946">
  <ele>665.07</ele>
  <time>2026-09-01T19:59:49Z</time>
  <course>7.19</course>
  <speed>25.659526496020927</speed>
  <fix>3d</fix>
</trkpt>
<trkpt lat="-35.2778974" lon="148.9859399">
  <ele>665.58</ele>
  <time>2026-09-01T19:59:49Z</time>
  <course>6.74</course>
  <speed>25.7</speed>
  <fix>3d</fix>
</trkpt>
<trkpt lat="-35.277832" lon="148.9859494">
  <ele>664.9</ele>
  <time>2026-09-01T19:59:49Z</time>
  <course>7.21</course>
  <speed>25.659526496020927</speed>
  <fix>3d</fix>
</trkpt>
<trkpt lat="-35.2778974" lon="148.9859399">
  <ele>665.58</ele>
  <time>2026-09-01T19:59:49Z</time>
  <course>6.74</course>
  <speed>25.7</speed>
  <fix>3d</fix>
</trkpt>
<trkpt lat="-35.2778093" lon="148.9859527">
  <ele>664.75</ele>
  <time>2026-09-01T19:59:49Z</time>
  <course>7.21</course>
  <speed>25.669456558330175</speed>
  <fix>3d</fix>
</trkpt>
<trkpt lat="-35.2778516" lon="148.9859465">
  <ele>665.27</ele>
  <time>2026-09-01T19:59:49Z</time>
  <course>6.75</course>
  <speed>25.7</speed>
  <fix>3d</fix>
</trkpt>
<trkpt lat="-35.2777864" lon="148.9859561">
  <ele>664.59</ele>
  <time>2026-09-01T19:59:49Z</time>
  <course>7.19</course>
  <speed>25.669456558330175</speed>
  <fix>3d</fix>
</trkpt>
<trkpt lat="-35.2778516" lon="148.9859465">
  <ele>665.27</ele>
  <time>2026-09-01T19:59:49Z</time>
  <course>6.75</course>
  <speed>25.7</speed>
  <fix>3d</fix>
</trkpt>
<trkpt lat="-35.2777635" lon="148.9859594">
  <ele>664.43</ele>
  <time>2026-09-01T19:59:49Z</time>
  <course>7.17</course>
  <speed>25.669456558330175</speed>
  <fix>3d</fix>
</trkpt>
<trkpt lat="-35.2778057" lon="148.9859531">
  <ele>664.96</ele>
  <time>2026-09-01T19:59:49Z</time>
  <course>6.75</course>
  <speed>25.71</speed>
  <fix>3d</fix>
</trkpt>
<trkpt lat="-35.2777406" lon="148.9859627">
  <ele>664.27</ele>
  <time>2026-09-01T19:59:49Z</time>
  <course>7.16</course>
  <speed>25.669456558330175</speed>
  <fix>3d</fix>
</trkpt>
<trkpt lat="-35.2778057" lon="148.9859531">
  <ele>664.96</ele>
  <time>2026-09-01T19:59:49Z</time>
  <course>6.75</course>
  <speed>25.71</speed>
  <fix>3d</fix>
</trkpt>
<trkpt lat="-35.2777176" lon="148.985966">
  <ele>664.12</ele>
  <time>2026-09-01T19:59:49Z</time>
  <course>7.2</course>
  <speed>25.669456558330175</speed>
  <fix>3d</fix>
</trkpt>
<trkpt lat="-35.2777599" lon="148.9859598">
  <ele>664.65</ele>
  <time>2026-09-01T19:59:49Z</time>
  <course>6.75</course>
  <speed>25.71</speed>
  <fix>3d</fix>
</trkpt>
<trkpt lat="-35.2776945" lon="148.9859694">
  <ele>663.96</ele>
  <time>2026-09-01T19:59:49Z</time>
  <course>7.22</course>
  <speed>25.669456558330175</speed>
  <fix>3d</fix>
</trkpt>
<trkpt lat="-35.2777599" lon="148.9859598">
  <ele>664.65</ele>
  <time>2026-09-01T19:59:49Z</time>
  <course>6.75</course>
  <speed>25.71</speed>
  <fix>3d</fix>
</trkpt>
<trkpt lat="-35.2776717" lon="148.9859727">
  <ele>663.8</ele>
  <time>2026-09-01T19:59:49Z</time>
  <course>7.21</course>
  <speed>25.670638870117745</speed>
  <fix>3d</fix>
</trkpt>
<trkpt lat="-35.277714" lon="148.9859665">
  <ele>664.34</ele>
  <time>2026-09-01T19:59:49Z</time>
  <course>6.75</course>
  <speed>25.71</speed>
  <fix>3d</fix>
</trkpt>
<trkpt lat="-35.2776488" lon="148.985976">
  <ele>663.65</ele>
  <time>2026-09-01T19:59:49Z</time>
  <course>7.21</course>
  <speed>25.670638870117745</speed>
  <fix>3d</fix>
</trkpt>
<trkpt lat="-35.277714" lon="148.9859665">
  <ele>664.34</ele>
  <time>2026-09-01T19:59:49Z</time>
  <course>6.75</course>
  <speed>25.71</speed>
  <fix>3d</fix>
</trkpt>
<trkpt lat="-35.2776261" lon="148.9859793">
  <ele>663.49</ele>
  <time>2026-09-01T19:59:49Z</time>
  <course>7.2</course>
  <speed>25.670638870117745</speed>
  <fix>3d</fix>
</trkpt>
<trkpt lat="-35.2776681" lon="148.9859731">
  <ele>664.03</ele>
  <time>2026-09-01T19:59:49Z</time>
  <course>6.77</course>
  <speed>25.72</speed>
  <fix>3d</fix>
</trkpt>
<trkpt lat="-35.2776032" lon="148.9859827">
  <ele>663.34</ele>
  <time>2026-09-01T19:59:49Z</time>
  <course>7.23</course>
  <speed>25.660709265334035</speed>
  <fix>3d</fix>
</trkpt>
<trkpt lat="-35.2776681" lon="148.9859731">
  <ele>664.03</ele>
  <time>2026-09-01T19:59:49Z</time>
  <course>6.77</course>
  <speed>25.72</speed>
  <fix>3d</fix>
</trkpt>
<trkpt lat="-35.2775803" lon="148.985986">
  <ele>663.19</ele>
  <time>2026-09-01T19:59:49Z</time>
  <course>7.25</course>
  <speed>25.661895876961236</speed>
  <fix>3d</fix>
</trkpt>
<trkpt lat="-35.2776223" lon="148.9859798">
  <ele>663.72</ele>
  <time>2026-09-01T19:59:49Z</time>
  <course>6.78</course>
  <speed>25.72</speed>
  <fix>3d</fix>
</trkpt>
<trkpt lat="-35.2775574" lon="148.9859894">
  <ele>663.04</ele>
  <time>2026-09-01T19:59:49Z</time>
  <course>7.29</course>
  <speed>25.670638870117745</speed>
  <fix>3d</fix>
</trkpt>
<trkpt lat="-35.2776223" lon="148.9859798">
  <ele>663.72</ele>
  <time>2026-09-01T19:59:49Z</time>
  <course>6.78</course>
  <speed>25.72</speed>
  <fix>3d</fix>
</trkpt>
<trkpt lat="-35.2775344" lon="148.9859927">
  <ele>662.89</ele>
  <time>2026-09-01T19:59:49Z</time>
  <course>7.28</course>
  <speed>25.670638870117745</speed>
  <fix>3d</fix>
</trkpt>
<trkpt lat="-35.2775764" lon="148.9859865">
  <ele>663.42</ele>
  <time>2026-09-01T19:59:49Z</time>
  <course>6.78</course>
  <speed>25.73</speed>
  <fix>3d</fix>
</trkpt>
<trkpt lat="-35.2775115" lon="148.9859961">
  <ele>662.75</ele>
  <time>2026-09-01T19:59:49Z</time>
  <course>7.26</course>
  <speed>25.680568529532206</speed>
  <fix>3d</fix>
</trkpt>
<trkpt lat="-35.2775764" lon="148.9859865">
  <ele>663.42</ele>
  <time>2026-09-01T19:59:49Z</time>
  <course>6.78</course>
  <speed>25.73</speed>
  <fix>3d</fix>
</trkpt>
<trkpt lat="-35.2774884" lon="148.9859994">
  <ele>662.6</ele>
  <time>2026-09-01T19:59:49Z</time>
  <course>7.23</course>
  <speed>25.680568529532206</speed>
  <fix>3d</fix>
</trkpt>
<trkpt lat="-35.2775305" lon="148.9859932">
  <ele>663.12</ele>
  <time>2026-09-01T19:59:49Z</time>
  <course>6.78</course>
  <speed>25.73</speed>
  <fix>3d</fix>
</trkpt>
<trkpt lat="-35.2774654" lon="148.9860027">
  <ele>662.46</ele>
  <time>2026-09-01T19:59:49Z</time>
  <course>7.2</course>
  <speed>25.68931684572402</speed>
  <fix>3d</fix>
</trkpt>
<trkpt lat="-35.2775305" lon="148.9859932">
  <ele>663.12</ele>
  <time>2026-09-01T19:59:49Z</time>
  <course>6.78</course>
  <speed>25.73</speed>
  <fix>3d</fix>
</trkpt>
<trkpt lat="-35.2774424" lon="148.9860061">
  <ele>662.33</ele>
  <time>2026-09-01T19:59:49Z</time>
  <course>7.2</course>
  <speed>25.69924707068283</speed>
  <fix>3d</fix>
</trkpt>
<trkpt lat="-35.2774846" lon="148.9859999">
  <ele>662.83</ele>
  <time>2026-09-01T19:59:49Z</time>
  <course>6.77</course>
  <speed>25.74</speed>
  <fix>3d</fix>
</trkpt>
<trkpt lat="-35.2774194" lon="148.9860094">
  <ele>662.19</ele>
  <time>2026-09-01T19:59:49Z</time>
  <course>7.23</course>
  <speed>25.69924707068283</speed>
  <fix>3d</fix>
</trkpt>
<trkpt lat="-35.2774846" lon="148.9859999">
  <ele>662.83</ele>
  <time>2026-09-01T19:59:49Z</time>
  <course>6.77</course>
  <speed>25.74</speed>
  <fix>3d</fix>
</trkpt>
<trkpt lat="-35.2773963" lon="148.9860128">
  <ele>662.05</ele>
  <time>2026-09-01T19:59:49Z</time>
  <course>7.23</course>
  <speed>25.709177349732528</speed>
  <fix>3d</fix>
</trkpt>
<trkpt lat="-35.2774386" lon="148.9860066">
  <ele>662.55</ele>
  <time>2026-09-01T19:59:49Z</time>
  <course>6.76</course>
  <speed>25.74</speed>
  <fix>3d</fix>
</trkpt>
<trkpt lat="-35.2773739" lon="148.986016">
  <ele>661.92</ele>
  <time>2026-09-01T19:59:49Z</time>
  <course>7.21</course>
  <speed>25.709177349732528</speed>
  <fix>3d</fix>
</trkpt>
<trkpt lat="-35.2774386" lon="148.9860066">
  <ele>662.55</ele>
  <time>2026-09-01T19:59:49Z</time>
  <course>6.76</course>
  <speed>25.74</speed>
  <fix>3d</fix>
</trkpt>
<trkpt lat="-35.2773502" lon="148.9860195">
  <ele>661.78</ele>
  <time>2026-09-01T19:59:49Z</time>
  <course>7.2</course>
  <speed>25.71910768281046</speed>
  <fix>3d</fix>
</trkpt>
<trkpt lat="-35.2773926" lon="148.9860133">
  <ele>662.27</ele>
  <time>2026-09-01T19:59:49Z</time>
  <course>6.75</course>
  <speed>25.75</speed>
  <fix>3d</fix>
</trkpt>
<trkpt lat="-35.2773274" lon="148.9860228">
  <ele>661.66</ele>
  <time>2026-09-01T19:59:49Z</time>
  <course>7.19</course>
  <speed>25.709177349732528</speed>
  <fix>3d</fix>
</trkpt>
<trkpt lat="-35.2773926" lon="148.9860133">
  <ele>662.27</ele>
  <time>2026-09-01T19:59:49Z</time>
  <course>6.75</course>
  <speed>25.75</speed>
  <fix>3d</fix>
</trkpt>
<trkpt lat="-35.2773044" lon="148.9860261">
  <ele>661.53</ele>
  <time>2026-09-01T19:59:49Z</time>
  <course>7.23</course>
  <speed>25.71910768281046</speed>
  <fix>3d</fix>
</trkpt>
<trkpt lat="-35.2773466" lon="148.9860199">
  <ele>662.01</ele>
  <time>2026-09-01T19:59:49Z</time>
  <course>6.75</course>
  <speed>25.75</speed>
  <fix>3d</fix>
</trkpt>
<trkpt lat="-35.2772814" lon="148.9860294">
  <ele>661.41</ele>
  <time>2026-09-01T19:59:49Z</time>
  <course>7.3</course>
  <speed>25.709177349732528</speed>
  <fix>3d</fix>
</trkpt>
<trkpt lat="-35.2773466" lon="148.9860199">
  <ele>662.01</ele>
  <time>2026-09-01T19:59:49Z</time>
  <course>6.75</course>
  <speed>25.75</speed>
  <fix>3d</fix>
</trkpt>
<trkpt lat="-35.2772583" lon="148.9860328">
  <ele>661.28</ele>
  <time>2026-09-01T19:59:49Z</time>
  <course>7.31</course>
  <speed>25.72028771223215</speed>
  <fix>3d</fix>
</trkpt>
<trkpt lat="-35.2773007" lon="148.9860266">
  <ele>661.75</ele>
  <time>2026-09-01T19:59:49Z</time>
  <course>6.75</course>
  <speed>25.75</speed>
  <fix>3d</fix>
</trkpt>
<trkpt lat="-35.2772351" lon="148.9860362">
  <ele>661.16</ele>
  <time>2026-09-01T19:59:49Z</time>
  <course>7.28</course>
  <speed>25.721471575320102</speed>
  <fix>3d</fix>
</trkpt>
<trkpt lat="-35.2773007" lon="148.9860266">
  <ele>661.75</ele>
  <time>2026-09-01T19:59:49Z</time>
  <course>6.75</course>
  <speed>25.75</speed>
  <fix>3d</fix>
</trkpt>
<trkpt lat="-35.277212" lon="148.9860395">
  <ele>661.05</ele>
  <time>2026-09-01T19:59:49Z</time>
  <course>7.33</course>
  <speed>25.721471575320102</speed>
  <fix>3d</fix>
</trkpt>
<trkpt lat="-35.2772547" lon="148.9860332">
  <ele>661.51</ele>
  <time>2026-09-01T19:59:49Z</time>
  <course>6.77</course>
  <speed>25.75</speed>
  <fix>3d</fix>
</trkpt>
<trkpt lat="-35.277189" lon="148.9860429">
  <ele>660.93</ele>
  <time>2026-09-01T19:59:49Z</time>
  <course>7.32</course>
  <speed>25.722659271544998</speed>
  <fix>3d</fix>
</trkpt>
<trkpt lat="-35.2772547" lon="148.9860332">
  <ele>661.51</ele>
  <time>2026-09-01T19:59:49Z</time>
  <course>6.77</course>
  <speed>25.75</speed>
  <fix>3d</fix>
</trkpt>
<trkpt lat="-35.2771659" lon="148.9860463">
  <ele>660.82</ele>
  <time>2026-09-01T19:59:49Z</time>
  <course>7.3</course>
  <speed>25.722659271544998</speed>
  <fix>3d</fix>
</trkpt>
<trkpt lat="-35.2772088" lon="148.9860399">
  <ele>661.27</ele>
  <time>2026-09-01T19:59:49Z</time>
  <course>6.8</course>
  <speed>25.74</speed>
  <fix>3d</fix>
</trkpt>
<trkpt lat="-35.2771429" lon="148.9860497">
  <ele>660.7</ele>
  <time>2026-09-01T19:59:49Z</time>
  <course>7.3</course>
  <speed>25.722659271544998</speed>
  <fix>3d</fix>
</trkpt>
<trkpt lat="-35.2772088" lon="148.9860399">
  <ele>661.27</ele>
  <time>2026-09-01T19:59:49Z</time>
  <course>6.8</course>
  <speed>25.74</speed>
  <fix>3d</fix>
</trkpt>
<trkpt lat="-35.2771198" lon="148.9860531">
  <ele>660.59</ele>
  <time>2026-09-01T19:59:49Z</time>
  <course>7.28</course>
  <speed>25.722659271544998</speed>
  <fix>3d</fix>
</trkpt>
<trkpt lat="-35.2771629" lon="148.9860467">
  <ele>661.04</ele>
  <time>2026-09-01T19:59:49Z</time>
  <course>6.83</course>
  <speed>25.73</speed>
  <fix>3d</fix>
</trkpt>
<trkpt lat="-35.2770968" lon="148.9860564">
  <ele>660.48</ele>
  <time>2026-09-01T19:59:49Z</time>
  <course>7.26</course>
  <speed>25.722659271544998</speed>
  <fix>3d</fix>
</trkpt>
<trkpt lat="-35.2771629" lon="148.9860467">
  <ele>661.04</ele>
  <time>2026-09-01T19:59:49Z</time>
  <course>6.83</course>
  <speed>25.73</speed>
  <fix>3d</fix>
</trkpt>
<trkpt lat="-35.2770737" lon="148.9860598">
  <ele>660.38</ele>
  <time>2026-09-01T19:59:49Z</time>
  <course>7.25</course>
  <speed>25.722659271544998</speed>
  <fix>3d</fix>
</trkpt>
<trkpt lat="-35.2771171" lon="148.9860534">
  <ele>660.82</ele>
  <time>2026-09-01T19:59:49Z</time>
  <course>6.83</course>
  <speed>25.72</speed>
  <fix>3d</fix>
</trkpt>
<trkpt lat="-35.2770507" lon="148.9860632">
  <ele>660.27</ele>
  <time>2026-09-01T19:59:49Z</time>
  <course>7.31</course>
  <speed>25.721471575320102</speed>
  <fix>3d</fix>
</trkpt>
<trkpt lat="-35.2771171" lon="148.9860534">
  <ele>660.82</ele>
  <time>2026-09-01T19:59:49Z</time>
  <course>6.83</course>
  <speed>25.72</speed>
  <fix>3d</fix>
</trkpt>
<trkpt lat="-35.2770277" lon="148.9860665">
  <ele>660.17</ele>
  <time>2026-09-01T19:59:49Z</time>
  <course>7.4</course>
  <speed>25.721471575320102</speed>
  <fix>3d</fix>
</trkpt>
<trkpt lat="-35.2770712" lon="148.9860601">
  <ele>660.6</ele>
  <time>2026-09-01T19:59:49Z</time>
  <course>6.82</course>
  <speed>25.72</speed>
  <fix>3d</fix>
</trkpt>
<trkpt lat="-35.2770047" lon="148.9860699">
  <ele>660.06</ele>
  <time>2026-09-01T19:59:49Z</time>
  <course>7.41</course>
  <speed>25.722659271544998</speed>
  <fix>3d</fix>
</trkpt>
<trkpt lat="-35.2770712" lon="148.9860601">
  <ele>660.6</ele>
  <time>2026-09-01T19:59:49Z</time>
  <course>6.82</course>
  <speed>25.72</speed>
  <fix>3d</fix>
</trkpt>
<trkpt lat="-35.2769818" lon="148.9860733">
  <ele>659.96</ele>
  <time>2026-09-01T19:59:49Z</time>
  <course>7.35</course>
  <speed>25.71273031010126</speed>
  <fix>3d</fix>
</trkpt>
<trkpt lat="-35.2770253" lon="148.9860668">
  <ele>660.38</ele>
  <time>2026-09-01T19:59:49Z</time>
  <course>6.81</course>
  <speed>25.71</speed>
  <fix>3d</fix>
</trkpt>
<trkpt lat="-35.2769589" lon="148.9860766">
  <ele>659.86</ele>
  <time>2026-09-01T19:59:49Z</time>
  <course>7.3</course>
  <speed>25.702801403738075</speed>
  <fix>3d</fix>
</trkpt>
<trkpt lat="-35.2770253" lon="148.9860668">
  <ele>660.38</ele>
  <time>2026-09-01T19:59:49Z</time>
  <course>6.81</course>
  <speed>25.71</speed>
  <fix>3d</fix>
</trkpt>
<trkpt lat="-35.276936" lon="148.98608">
  <ele>659.76</ele>
  <time>2026-09-01T19:59:49Z</time>
  <course>7.27</course>
  <speed>25.69168347928956</speed>
  <fix>3d</fix>
</trkpt>
<trkpt lat="-35.2769794" lon="148.9860736">
  <ele>660.17</ele>
  <time>2026-09-01T19:59:49Z</time>
  <course>6.82</course>
  <speed>25.7</speed>
  <fix>3d</fix>
</trkpt>
<trkpt lat="-35.2769132" lon="148.9860833">
  <ele>659.65</ele>
  <time>2026-09-01T19:59:49Z</time>
  <course>7.29</course>
  <speed>25.69168347928956</speed>
  <fix>3d</fix>
</trkpt>
<trkpt lat="-35.2769794" lon="148.9860736">
  <ele>660.17</ele>
  <time>2026-09-01T19:59:49Z</time>
  <course>6.82</course>
  <speed>25.7</speed>
  <fix>3d</fix>
</trkpt>
<trkpt lat="-35.2768902" lon="148.9860866">
  <ele>659.55</ele>
  <time>2026-09-01T19:59:49Z</time>
  <course>7.32</course>
  <speed>25.680568529532206</speed>
  <fix>3d</fix>
</trkpt>
<trkpt lat="-35.2769335" lon="148.9860803">
  <ele>659.97</ele>
  <time>2026-09-01T19:59:49Z</time>
  <course>6.81</course>
  <speed>25.69</speed>
  <fix>3d</fix>
</trkpt>
<trkpt lat="-35.2768673" lon="148.98609">
  <ele>659.44</ele>
  <time>2026-09-01T19:59:49Z</time>
  <course>7.31</course>
  <speed>25.680568529532206</speed>
  <fix>3d</fix>
</trkpt>
<trkpt lat="-35.2769335" lon="148.9860803">
  <ele>659.97</ele>
  <time>2026-09-01T19:59:49Z</time>
  <course>6.81</course>
  <speed>25.69</speed>
  <fix>3d</fix>
</trkpt>
<trkpt lat="-35.2768443" lon="148.9860933">
  <ele>659.34</ele>
  <time>2026-09-01T19:59:49Z</time>
  <course>7.27</course>
  <speed>25.69049824351408</speed>
  <fix>3d</fix>
</trkpt>
<trkpt lat="-35.2768877" lon="148.986087">
  <ele>659.76</ele>
  <time>2026-09-01T19:59:49Z</time>
  <course>6.79</course>
  <speed>25.68</speed>
  <fix>3d</fix>
</trkpt>
<trkpt lat="-35.2768213" lon="148.9860967">
  <ele>659.24</ele>
  <time>2026-09-01T19:59:49Z</time>
  <course>7.24</course>
  <speed>25.68931684572402</speed>
  <fix>3d</fix>
</trkpt>
<trkpt lat="-35.2768877" lon="148.986087">
  <ele>659.76</ele>
  <time>2026-09-01T19:59:49Z</time>
  <course>6.79</course>
  <speed>25.68</speed>
  <fix>3d</fix>
</trkpt>
<trkpt lat="-35.2767983" lon="148.9861">
  <ele>659.13</ele>
  <time>2026-09-01T19:59:49Z</time>
  <course>7.27</course>
  <speed>25.688139286448912</speed>
  <fix>3d</fix>
</trkpt>
<trkpt lat="-35.2768418" lon="148.9860937">
  <ele>659.55</ele>
  <time>2026-09-01T19:59:49Z</time>
  <course>6.77</course>
  <speed>25.67</speed>
  <fix>3d</fix>
</trkpt>
<trkpt lat="-35.2767753" lon="148.9861034">
  <ele>659.03</ele>
  <time>2026-09-01T19:59:49Z</time>
  <course>7.29</course>
  <speed>25.688139286448912</speed>
  <fix>3d</fix>
</trkpt>
<trkpt lat="-35.2768418" lon="148.9860937">
  <ele>659.55</ele>
  <time>2026-09-01T19:59:49Z</time>
  <course>6.77</course>
  <speed>25.67</speed>
  <fix>3d</fix>
</trkpt>
<trkpt lat="-35.2767525" lon="148.9861067">
  <ele>658.93</ele>
  <time>2026-09-01T19:59:49Z</time>
  <course>7.3</course>
  <speed>25.698069966439117</speed>
  <fix>3d</fix>
</trkpt>
<trkpt lat="-35.2767961" lon="148.9861004">
  <ele>659.35</ele>
  <time>2026-09-01T19:59:49Z</time>
  <course>6.76</course>
  <speed>25.67</speed>
  <fix>3d</fix>
</trkpt>
<trkpt lat="-35.2767291" lon="148.9861101">
  <ele>658.82</ele>
  <time>2026-09-01T19:59:49Z</time>
  <course>7.28</course>
  <speed>25.698069966439117</speed>
  <fix>3d</fix>
</trkpt>
<trkpt lat="-35.2767961" lon="148.9861004">
  <ele>659.35</ele>
  <time>2026-09-01T19:59:49Z</time>
  <course>6.76</course>
  <speed>25.67</speed>
  <fix>3d</fix>
</trkpt>
<trkpt lat="-35.2767061" lon="148.9861134">
  <ele>658.73</ele>
  <time>2026-09-01T19:59:49Z</time>
  <course>7.27</course>
  <speed>25.70800070017114</speed>
  <fix>3d</fix>
</trkpt>
<trkpt lat="-35.2767503" lon="148.986107">
  <ele>659.14</ele>
  <time>2026-09-01T19:59:49Z</time>
  <course>6.75</course>
  <speed>25.67</speed>
  <fix>3d</fix>
</trkpt>
<trkpt lat="-35.2766831" lon="148.9861167">
  <ele>658.63</ele>
  <time>2026-09-01T19:59:49Z</time>
  <course>7.25</course>
  <speed>25.709177349732528</speed>
  <fix>3d</fix>
</trkpt>
<trkpt lat="-35.2767503" lon="148.986107">
  <ele>659.14</ele>
  <time>2026-09-01T19:59:49Z</time>
  <course>6.75</course>
  <speed>25.67</speed>
  <fix>3d</fix>
</trkpt>
<trkpt lat="-35.2766602" lon="148.9861201">
  <ele>658.54</ele>
  <time>2026-09-01T19:59:49Z</time>
  <course>7.26</course>
  <speed>25.709177349732528</speed>
  <fix>3d</fix>
</trkpt>
<trkpt lat="-35.2767044" lon="148.9861136">
  <ele>658.94</ele>
  <time>2026-09-01T19:59:49Z</time>
  <course>6.74</course>
  <speed>25.67</speed>
  <fix>3d</fix>
</trkpt>
<trkpt lat="-35.2766373" lon="148.9861234">
  <ele>658.45</ele>
  <time>2026-09-01T19:59:49Z</time>
  <course>7.28</course>
  <speed>25.698069966439117</speed>
  <fix>3d</fix>
</trkpt>
<trkpt lat="-35.2767044" lon="148.9861136">
  <ele>658.94</ele>
  <time>2026-09-01T19:59:49Z</time>
  <course>6.74</course>
  <speed>25.67</speed>
  <fix>3d</fix>
</trkpt>
<trkpt lat="-35.2766145" lon="148.9861267">
  <ele>658.36</ele>
  <time>2026-09-01T19:59:49Z</time>
  <course>7.24</course>
  <speed>25.698069966439117</speed>
  <fix>3d</fix>
</trkpt>
<trkpt lat="-35.2766587" lon="148.9861202">
  <ele>658.75</ele>
  <time>2026-09-01T19:59:49Z</time>
  <course>6.74</course>
  <speed>25.67</speed>
  <fix>3d</fix>
</trkpt>
<trkpt lat="-35.2765917" lon="148.98613">
  <ele>658.28</ele>
  <time>2026-09-01T19:59:49Z</time>
  <course>7.17</course>
  <speed>25.688139286448912</speed>
  <fix>3d</fix>
</trkpt>
<trkpt lat="-35.2766587" lon="148.9861202">
  <ele>658.75</ele>
  <time>2026-09-01T19:59:49Z</time>
  <course>6.74</course>
  <speed>25.67</speed>
  <fix>3d</fix>
</trkpt>
<trkpt lat="-35.276569" lon="148.9861333">
  <ele>658.21</ele>
  <time>2026-09-01T19:59:49Z</time>
  <course>7.17</course>
  <speed>25.686965566216653</speed>
  <fix>3d</fix>
</trkpt>
<trkpt lat="-35.276613" lon="148.9861268">
  <ele>658.57</ele>
  <time>2026-09-01T19:59:49Z</time>
  <course>6.73</course>
  <speed>25.67</speed>
  <fix>3d</fix>
</trkpt>
<trkpt lat="-35.2765462" lon="148.9861365">
  <ele>658.13</ele>
  <time>2026-09-01T19:59:49Z</time>
  <course>7.23</course>
  <speed>25.67586415293553</speed>
  <fix>3d</fix>
</trkpt>
<trkpt lat="-35.276613" lon="148.9861268">
  <ele>658.57</ele>
  <time>2026-09-01T19:59:49Z</time>
  <course>6.73</course>
  <speed>25.67</speed>
  <fix>3d</fix>
</trkpt>
<trkpt lat="-35.2765235" lon="148.9861398">
  <ele>658.06</ele>
  <time>2026-09-01T19:59:49Z</time>
  <course>7.25</course>
  <speed>25.66593267348763</speed>
  <fix>3d</fix>
</trkpt>
<trkpt lat="-35.2765672" lon="148.9861335">
  <ele>658.41</ele>
  <time>2026-09-01T19:59:49Z</time>
  <course>6.71</course>
  <speed>25.68</speed>
  <fix>3d</fix>
</trkpt>
<trkpt lat="-35.2765007" lon="148.9861431">
  <ele>657.99</ele>
  <time>2026-09-01T19:59:49Z</time>
  <course>7.22</course>
  <speed>25.66593267348763</speed>
  <fix>3d</fix>
</trkpt>
<trkpt lat="-35.2765672" lon="148.9861335">
  <ele>658.41</ele>
  <time>2026-09-01T19:59:49Z</time>
  <course>6.71</course>
  <speed>25.68</speed>
  <fix>3d</fix>
</trkpt>
<trkpt lat="-35.276478" lon="148.9861464">
  <ele>657.92</ele>
  <time>2026-09-01T19:59:49Z</time>
  <course>7.2</course>
  <speed>25.656001247271565</speed>
  <fix>3d</fix>
</trkpt>
<trkpt lat="-35.2765213" lon="148.9861401">
  <ele>658.25</ele>
  <time>2026-09-01T19:59:49Z</time>
  <course>6.69</course>
  <speed>25.68</speed>
  <fix>3d</fix>
</trkpt>
<trkpt lat="-35.2764552" lon="148.9861496">
  <ele>657.85</ele>
  <time>2026-09-01T19:59:49Z</time>
  <course>7.18</course>
  <speed>25.654833852512084</speed>
  <fix>3d</fix>
</trkpt>
<trkpt lat="-35.2765213" lon="148.9861401">
  <ele>658.25</ele>
  <time>2026-09-01T19:59:49Z</time>
  <course>6.69</course>
  <speed>25.68</speed>
  <fix>3d</fix>
</trkpt>
<trkpt lat="-35.2764323" lon="148.9861529">
  <ele>657.79</ele>
  <time>2026-09-01T19:59:49Z</time>
  <course>7.23</course>
  <speed>25.656001247271565</speed>
  <fix>3d</fix>
</trkpt>
<trkpt lat="-35.2764753" lon="148.9861467">
  <ele>658.11</ele>
  <time>2026-09-01T19:59:49Z</time>
  <course>6.68</course>
  <speed>25.68</speed>
  <fix>3d</fix>
</trkpt>
<trkpt lat="-35.2764094" lon="148.9861562">
  <ele>657.74</ele>
  <time>2026-09-01T19:59:49Z</time>
  <course>7.24</course>
  <speed>25.656001247271565</speed>
  <fix>3d</fix>
</trkpt>
<trkpt lat="-35.2764753" lon="148.9861467">
  <ele>658.11</ele>
  <time>2026-09-01T19:59:49Z</time>
  <course>6.68</course>
  <speed>25.68</speed>
  <fix>3d</fix>
</trkpt>
<trkpt lat="-35.2763864" lon="148.9861595">
  <ele>657.68</ele>
  <time>2026-09-01T19:59:49Z</time>
  <course>7.2</course>
  <speed>25.656001247271565</speed>
  <fix>3d</fix>
</trkpt>
<trkpt lat="-35.2764295" lon="148.9861532">
  <ele>657.99</ele>
  <time>2026-09-01T19:59:49Z</time>
  <course>6.68</course>
  <speed>25.68</speed>
  <fix>3d</fix>
</trkpt>
<trkpt lat="-35.2763634" lon="148.9861628">
  <ele>657.63</ele>
  <time>2026-09-01T19:59:49Z</time>
  <course>7.2</course>
  <speed>25.667103459486817</speed>
  <fix>3d</fix>
</trkpt>
<trkpt lat="-35.2764295" lon="148.9861532">
  <ele>657.99</ele>
  <time>2026-09-01T19:59:49Z</time>
  <course>6.68</course>
  <speed>25.68</speed>
  <fix>3d</fix>
</trkpt>
<trkpt lat="-35.2763404" lon="148.9861661">
  <ele>657.58</ele>
  <time>2026-09-01T19:59:49Z</time>
  <course>7.21</course>
  <speed>25.667103459486817</speed>
  <fix>3d</fix>
</trkpt>
<trkpt lat="-35.2763836" lon="148.9861599">
  <ele>657.87</ele>
  <time>2026-09-01T19:59:49Z</time>
  <course>6.7</course>
  <speed>25.68</speed>
  <fix>3d</fix>
</trkpt>
<trkpt lat="-35.2763174" lon="148.9861695">
  <ele>657.54</ele>
  <time>2026-09-01T19:59:49Z</time>
  <course>7.21</course>
  <speed>25.677034486092822</speed>
  <fix>3d</fix>
</trkpt>
<trkpt lat="-35.2763836" lon="148.9861599">
  <ele>657.87</ele>
  <time>2026-09-01T19:59:49Z</time>
  <course>6.7</course>
  <speed>25.68</speed>
  <fix>3d</fix>
</trkpt>
<trkpt lat="-35.2762943" lon="148.9861728">
  <ele>657.51</ele>
  <time>2026-09-01T19:59:49Z</time>
  <course>7.24</course>
  <speed>25.647241567076954</speed>
  <fix>3d</fix>
</trkpt>
<trkpt lat="-35.2763379" lon="148.9861665">
  <ele>657.77</ele>
  <time>2026-09-01T19:59:49Z</time>
  <course>6.71</course>
  <speed>25.68</speed>
  <fix>3d</fix>
</trkpt>
<trkpt lat="-35.2762716" lon="148.9861761">
  <ele>657.48</ele>
  <time>2026-09-01T19:59:49Z</time>
  <course>7.3</course>
  <speed>25.577726638620565</speed>
  <fix>3d</fix>
</trkpt>
<trkpt lat="-35.2763379" lon="148.9861665">
  <ele>657.77</ele>
  <time>2026-09-01T19:59:49Z</time>
  <course>6.71</course>
  <speed>25.68</speed>
  <fix>3d</fix>
</trkpt>
<trkpt lat="-35.2762487" lon="148.9861794">
  <ele>657.45</ele>
  <time>2026-09-01T19:59:49Z</time>
  <course>7.41</course>
  <speed>25.449819252796274</speed>
  <fix>3d</fix>
</trkpt>
<trkpt lat="-35.2762921" lon="148.9861731">
  <ele>657.69</ele>
  <time>2026-09-01T19:59:49Z</time>
  <course>6.72</course>
  <speed>25.63</speed>
  <fix>3d</fix>
</trkpt>
<trkpt lat="-35.276226" lon="148.9861828">
  <ele>657.47</ele>
  <time>2026-09-01T19:59:49Z</time>
  <course>7.79</course>
  <speed>25.238605349741498</speed>
  <fix>3d</fix>
</trkpt>
<trkpt lat="-35.2762921" lon="148.9861731">
  <ele>657.69</ele>
  <time>2026-09-01T19:59:49Z</time>
  <course>6.72</course>
  <speed>25.63</speed>
  <fix>3d</fix>
</trkpt>
<trkpt lat="-35.2762036" lon="148.9861864">
  <ele>657.53</ele>
  <time>2026-09-01T19:59:49Z</time>
  <course>8.51</course>
  <speed>24.92135630337964</speed>
  <fix>3d</fix>
</trkpt>
<trkpt lat="-35.2762465" lon="148.9861797">
  <ele>657.65</ele>
  <time>2026-09-01T19:59:49Z</time>
  <course>6.93</course>
  <speed>25.41</speed>
  <fix>3d</fix>
</trkpt>
<trkpt lat="-35.2761813" lon="148.9861905">
  <ele>657.65</ele>
  <time>2026-09-01T19:59:49Z</time>
  <course>9.6</course>
  <speed>24.51421220435199</speed>
  <fix>3d</fix>
</trkpt>
<trkpt lat="-35.2762465" lon="148.9861797">
  <ele>657.65</ele>
  <time>2026-09-01T19:59:49Z</time>
  <course>6.93</course>
  <speed>25.41</speed>
  <fix>3d</fix>
</trkpt>
<trkpt lat="-35.2761598" lon="148.986195">
  <ele>657.83</ele>
  <time>2026-09-01T19:59:49Z</time>
  <course>10.97</course>
  <speed>24.0654628046086</speed>
  <fix>3d</fix>
</trkpt>
<trkpt lat="-35.2762017" lon="148.9861869">
  <ele>657.73</ele>
  <time>2026-09-01T19:59:49Z</time>
  <course>8.04</course>
  <speed>24.89</speed>
  <fix>3d</fix>
</trkpt>
<trkpt lat="-35.2761387" lon="148.9862">
  <ele>658.04</ele>
  <time>2026-09-01T19:59:49Z</time>
  <course>12.47</course>
  <speed>23.60088981373372</speed>
  <fix>3d</fix>
</trkpt>
<trkpt lat="-35.2762017" lon="148.9861869">
  <ele>657.73</ele>
  <time>2026-09-01T19:59:49Z</time>
  <course>8.04</course>
  <speed>24.89</speed>
  <fix>3d</fix>
</trkpt>
<trkpt lat="-35.2761179" lon="148.9862055">
  <ele>658.3</ele>
  <time>2026-09-01T19:59:49Z</time>
  <course>13.94</course>
  <speed>23.117813477922173</speed>
  <fix>3d</fix>
</trkpt>
<trkpt lat="-35.2761582" lon="148.9861953">
  <ele>658.01</ele>
  <time>2026-09-01T19:59:49Z</time>
  <course>10.2</course>
  <speed>24.08</speed>
  <fix>3d</fix>
</trkpt>
<trkpt lat="-35.2760979" lon="148.9862114">
  <ele>658.59</ele>
  <time>2026-09-01T19:59:49Z</time>
  <course>15.26</course>
  <speed>22.62154946063598</speed>
  <fix>3d</fix>
</trkpt>
<trkpt lat="-35.2761582" lon="148.9861953">
  <ele>658.01</ele>
  <time>2026-09-01T19:59:49Z</time>
  <course>10.2</course>
  <speed>24.08</speed>
  <fix>3d</fix>
</trkpt>
<trkpt lat="-35.2760786" lon="148.9862177">
  <ele>658.9</ele>
  <time>2026-09-01T19:59:49Z</time>
  <course>16.42</course>
  <speed>22.125067231536267</speed>
  <fix>3d</fix>
</trkpt>
<trkpt lat="-35.2761167" lon="148.9862057">
  <ele>658.47</ele>
  <time>2026-09-01T19:59:49Z</time>
  <course>12.84</course>
  <speed>23.14</speed>
  <fix>3d</fix>
</trkpt>
<trkpt lat="-35.2760598" lon="148.9862243">
  <ele>659.25</ele>
  <time>2026-09-01T19:59:49Z</time>
  <course>17.31</course>
  <speed>21.629648633299617</speed>
  <fix>3d</fix>
</trkpt>
<trkpt lat="-35.2761167" lon="148.9862057">
  <ele>658.47</ele>
  <time>2026-09-01T19:59:49Z</time>
  <course>12.84</course>
  <speed>23.14</speed>
  <fix>3d</fix>
</trkpt>
<trkpt lat="-35.2760417" lon="148.9862312">
  <ele>659.6</ele>
  <time>2026-09-01T19:59:49Z</time>
  <course>17.92</course>
  <speed>21.160588366111185</speed>
  <fix>3d</fix>
</trkpt>
<trkpt lat="-35.2760772" lon="148.9862179">
  <ele>659.06</ele>
  <time>2026-09-01T19:59:49Z</time>
  <course>15.46</course>
  <speed>22.18</speed>
  <fix>3d</fix>
</trkpt>
<trkpt lat="-35.2760239" lon="148.9862382">
  <ele>659.96</ele>
  <time>2026-09-01T19:59:49Z</time>
  <course>18.33</course>
  <speed>20.731893304761147</speed>
  <fix>3d</fix>
</trkpt>
<trkpt lat="-35.2760772" lon="148.9862179">
  <ele>659.06</ele>
  <time>2026-09-01T19:59:49Z</time>
  <course>15.46</course>
  <speed>22.18</speed>
  <fix>3d</fix>
</trkpt>
<trkpt lat="-35.2760065" lon="148.9862454">
  <ele>660.31</ele>
  <time>2026-09-01T19:59:49Z</time>
  <course>18.63</course>
  <speed>20.34378774958095</speed>
  <fix>3d</fix>
</trkpt>
<trkpt lat="-35.2760397" lon="148.9862316">
  <ele>659.75</ele>
  <time>2026-09-01T19:59:49Z</time>
  <course>17.59</course>
  <speed>21.25</speed>
  <fix>3d</fix>
</trkpt>
<trkpt lat="-35.2759895" lon="148.9862526">
  <ele>660.63</ele>
  <time>2026-09-01T19:59:49Z</time>
  <course>18.88</course>
  <speed>20.000844982150127</speed>
  <fix>3d</fix>
</trkpt>
<trkpt lat="-35.2760397" lon="148.9862316">
  <ele>659.75</ele>
  <time>2026-09-01T19:59:49Z</time>
  <course>17.59</course>
  <speed>21.25</speed>
  <fix>3d</fix>
</trkpt>
<trkpt lat="-35.2759727" lon="148.9862598">
  <ele>660.92</ele>
  <time>2026-09-01T19:59:49Z</time>
  <course>19.1</course>
  <speed>19.67702467346118</speed>
  <fix>3d</fix>
</trkpt>
<trkpt lat="-35.2760041" lon="148.986246">
  <ele>660.44</ele>
  <time>2026-09-01T19:59:49Z</time>
  <course>18.97</course>
  <speed>20.45</speed>
  <fix>3d</fix>
</trkpt>
<trkpt lat="-35.2759561" lon="148.9862671">
  <ele>661.18</ele>
  <time>2026-09-01T19:59:49Z</time>
  <course>19.3</course>
  <speed>19.37515161231003</speed>
  <fix>3d</fix>
</trkpt>
<trkpt lat="-35.2760041" lon="148.986246">
  <ele>660.44</ele>
  <time>2026-09-01T19:59:49Z</time>
  <course>18.97</course>
  <speed>20.45</speed>
  <fix>3d</fix>
</trkpt>
<trkpt lat="-35.2759399" lon="148.9862743">
  <ele>661.4</ele>
  <time>2026-09-01T19:59:49Z</time>
  <course>19.49</course>
  <speed>19.101759081299292</speed>
  <fix>3d</fix>
</trkpt>
<trkpt lat="-35.27597" lon="148.9862607">
  <ele>661.05</ele>
  <time>2026-09-01T19:59:49Z</time>
  <course>19.76</course>
  <speed>19.77</speed>
  <fix>3d</fix>
</trkpt>
<trkpt lat="-35.2759238" lon="148.9862815">
  <ele>661.58</ele>
  <time>2026-09-01T19:59:49Z</time>
  <course>19.68</course>
  <speed>18.84044850846179</speed>
  <fix>3d</fix>
</trkpt>
<trkpt lat="-35.27597" lon="148.9862607">
  <ele>661.05</ele>
  <time>2026-09-01T19:59:49Z</time>
  <course>19.76</course>
  <speed>19.77</speed>
  <fix>3d</fix>
</trkpt>
<trkpt lat="-35.275908" lon="148.9862886">
  <ele>661.73</ele>
  <time>2026-09-01T19:59:49Z</time>
  <course>19.85</course>
  <speed>18.594518009348885</speed>
  <fix>3d</fix>
</trkpt>
<trkpt lat="-35.2759372" lon="148.9862754">
  <ele>661.52</ele>
  <time>2026-09-01T19:59:49Z</time>
  <course>20.21</course>
  <speed>19.19</speed>
  <fix>3d</fix>
</trkpt>
<trkpt lat="-35.2758924" lon="148.9862957">
  <ele>661.85</ele>
  <time>2026-09-01T19:59:49Z</time>
  <course>20.01</course>
  <speed>18.367375969364815</speed>
  <fix>3d</fix>
</trkpt>
<trkpt lat="-35.2759372" lon="148.9862754">
  <ele>661.52</ele>
  <time>2026-09-01T19:59:49Z</time>
  <course>20.21</course>
  <speed>19.19</speed>
  <fix>3d</fix>
</trkpt>
<trkpt lat="-35.275877" lon="148.9863027">
  <ele>661.94</ele>
  <time>2026-09-01T19:59:49Z</time>
  <course>20.13</course>
  <speed>18.15551706782266</speed>
  <fix>3d</fix>
</trkpt>
<trkpt lat="-35.2759054" lon="148.9862899">
  <ele>661.85</ele>
  <time>2026-09-01T19:59:49Z</time>
  <course>20.46</course>
  <speed>18.67</speed>
  <fix>3d</fix>
</trkpt>
<trkpt lat="-35.2758618" lon="148.9863097">
  <ele>661.99</ele>
  <time>2026-09-01T19:59:49Z</time>
  <course>20.21</course>
  <speed>17.94955431201566</speed>
  <fix>3d</fix>
</trkpt>
<trkpt lat="-35.2759054" lon="148.9862899">
  <ele>661.85</ele>
  <time>2026-09-01T19:59:49Z</time>
  <course>20.46</course>
  <speed>18.67</speed>
  <fix>3d</fix>
</trkpt>
<trkpt lat="-35.2758467" lon="148.9863166">
  <ele>662.03</ele>
  <time>2026-09-01T19:59:49Z</time>
  <course>20.25</course>
  <speed>17.749507035408055</speed>
  <fix>3d</fix>
</trkpt>
<trkpt lat="-35.2758743" lon="148.986304">
  <ele>662.04</ele>
  <time>2026-09-01T19:59:49Z</time>
  <course>20.54</course>
  <speed>18.21</speed>
  <fix>3d</fix>
</trkpt>
<trkpt lat="-35.2758317" lon="148.9863233">
  <ele>662.04</ele>
  <time>2026-09-01T19:59:49Z</time>
  <course>20.23</course>
  <speed>17.568258308665662</speed>
  <fix>3d</fix>
</trkpt>
<trkpt lat="-35.2758743" lon="148.986304">
  <ele>662.04</ele>
  <time>2026-09-01T19:59:49Z</time>
  <course>20.54</course>
  <speed>18.21</speed>
  <fix>3d</fix>
</trkpt>
<trkpt lat="-35.2758168" lon="148.9863301">
  <ele>662.03</ele>
  <time>2026-09-01T19:59:49Z</time>
  <course>20.16</course>
  <speed>17.39899422380501</speed>
  <fix>3d</fix>
</trkpt>
<trkpt lat="-35.275844" lon="148.9863179">
  <ele>662.13</ele>
  <time>2026-09-01T19:59:49Z</time>
  <course>20.45</course>
  <speed>17.8</speed>
  <fix>3d</fix>
</trkpt>
<trkpt lat="-35.2758021" lon="148.9863366">
  <ele>662.01</ele>
  <time>2026-09-01T19:59:49Z</time>
  <course>20.03</course>
  <speed>17.22990713846131</speed>
  <fix>3d</fix>
</trkpt>
<trkpt lat="-35.275844" lon="148.9863179">
  <ele>662.13</ele>
  <time>2026-09-01T19:59:49Z</time>
  <course>20.45</course>
  <speed>17.8</speed>
  <fix>3d</fix>
</trkpt>
<trkpt lat="-35.2757876" lon="148.986343">
  <ele>661.98</ele>
  <time>2026-09-01T19:59:49Z</time>
  <course>19.84</course>
  <speed>17.073142651544853</speed>
  <fix>3d</fix>
</trkpt>
<trkpt lat="-35.2758144" lon="148.9863314">
  <ele>662.13</ele>
  <time>2026-09-01T19:59:49Z</time>
  <course>20.18</course>
  <speed>17.43</speed>
  <fix>3d</fix>
</trkpt>
<trkpt lat="-35.2757732" lon="148.9863493">
  <ele>661.94</ele>
  <time>2026-09-01T19:59:49Z</time>
  <course>19.6</course>
  <speed>16.91677569751399</speed>
  <fix>3d</fix>
</trkpt>
<trkpt lat="-35.2758144" lon="148.9863314">
  <ele>662.13</ele>
  <time>2026-09-01T19:59:49Z</time>
  <course>20.18</course>
  <speed>17.43</speed>
  <fix>3d</fix>
</trkpt>
<trkpt lat="-35.2757589" lon="148.9863554">
  <ele>661.9</ele>
  <time>2026-09-01T19:59:49Z</time>
  <course>19.31</course>
  <speed>16.7637853720453</speed>
  <fix>3d</fix>
</trkpt>
<trkpt lat="-35.2757852" lon="148.9863444">
  <ele>662.08</ele>
  <time>2026-09-01T19:59:49Z</time>
  <course>19.72</course>
  <speed>17.1</speed>
  <fix>3d</fix>
</trkpt>
<trkpt lat="-35.2757447" lon="148.9863613">
  <ele>661.85</ele>
  <time>2026-09-01T19:59:49Z</time>
  <course>18.97</course>
  <speed>16.620950634665874</speed>
  <fix>3d</fix>
</trkpt>
<trkpt lat="-35.2757852" lon="148.9863444">
  <ele>662.08</ele>
  <time>2026-09-01T19:59:49Z</time>
  <course>19.72</course>
  <speed>17.1</speed>
  <fix>3d</fix>
</trkpt>
<trkpt lat="-35.2757307" lon="148.9863671">
  <ele>661.8</ele>
  <time>2026-09-01T19:59:49Z</time>
  <course>18.59</course>
  <speed>16.472634883345165</speed>
  <fix>3d</fix>
</trkpt>
<trkpt lat="-35.2757565" lon="148.9863568">
  <ele>662.0</ele>
  <time>2026-09-01T19:59:49Z</time>
  <course>19.07</course>
  <speed>16.79</speed>
  <fix>3d</fix>
</trkpt>
<trkpt lat="-35.2757167" lon="148.9863726">
  <ele>661.75</ele>
  <time>2026-09-01T19:59:49Z</time>
  <course>18.16</course>
  <speed>16.325354513761717</speed>
  <fix>3d</fix>
</trkpt>
<trkpt lat="-35.2757565" lon="148.9863568">
  <ele>662.0</ele>
  <time>2026-09-01T19:59:49Z</time>
  <course>19.07</course>
  <speed>16.79</speed>
  <fix>3d</fix>
</trkpt>
<trkpt lat="-35.2757029" lon="148.986378">
  <ele>661.7</ele>
  <time>2026-09-01T19:59:49Z</time>
  <course>17.7</course>
  <speed>16.176192382634426</speed>
  <fix>3d</fix>
</trkpt>
<trkpt lat="-35.2757281" lon="148.9863686">
  <ele>661.9</ele>
  <time>2026-09-01T19:59:49Z</time>
  <course>18.24</course>
  <speed>16.49</speed>
  <fix>3d</fix>
</trkpt>
<trkpt lat="-35.2756891" lon="148.9863832">
  <ele>661.65</ele>
  <time>2026-09-01T19:59:49Z</time>
  <course>17.21</course>
  <speed>16.037870806313414</speed>
  <fix>3d</fix>
</trkpt>
<trkpt lat="-35.2757281" lon="148.9863686">
  <ele>661.9</ele>
  <time>2026-09-01T19:59:49Z</time>
  <course>18.24</course>
  <speed>16.49</speed>
  <fix>3d</fix>
</trkpt>
<trkpt lat="-35.2756753" lon="148.9863882">
  <ele>661.6</ele>
  <time>2026-09-01T19:59:49Z</time>
  <course>16.68</course>
  <speed>15.898128820713461</speed>
  <fix>3d</fix>
</trkpt>
<trkpt lat="-35.2757001" lon="148.9863796">
  <ele>661.8</ele>
  <time>2026-09-01T19:59:49Z</time>
  <course>17.27</course>
  <speed>16.2</speed>
  <fix>3d</fix>
</trkpt>
<trkpt lat="-35.2756616" lon="148.9863929">
  <ele>661.55</ele>
  <time>2026-09-01T19:59:49Z</time>
  <course>16.13</course>
  <speed>15.750314282578618</speed>
  <fix>3d</fix>
</trkpt>
<trkpt lat="-35.2757001" lon="148.9863796">
  <ele>661.8</ele>
  <time>2026-09-01T19:59:49Z</time>
  <course>17.27</course>
  <speed>16.2</speed>
  <fix>3d</fix>
</trkpt>
<trkpt lat="-35.275648" lon="148.9863975">
  <ele>661.51</ele>
  <time>2026-09-01T19:59:49Z</time>
  <course>15.56</course>
  <speed>15.61115306439598</speed>
  <fix>3d</fix>
</trkpt>
<trkpt lat="-35.2756725" lon="148.9863897">
  <ele>661.7</ele>
  <time>2026-09-01T19:59:49Z</time>
  <course>16.17</course>
  <speed>15.92</speed>
  <fix>3d</fix>
</trkpt>
<trkpt lat="-35.2756345" lon="148.9864019">
  <ele>661.48</ele>
  <time>2026-09-01T19:59:49Z</time>
  <course>14.96</course>
  <speed>15.476307699189752</speed>
  <fix>3d</fix>
</trkpt>
<trkpt lat="-35.2756725" lon="148.9863897">
  <ele>661.7</ele>
  <time>2026-09-01T19:59:49Z</time>
  <course>16.17</course>
  <speed>15.92</speed>
  <fix>3d</fix>
</trkpt>
<trkpt lat="-35.275621" lon="148.9864061">
  <ele>661.44</ele>
  <time>2026-09-01T19:59:49Z</time>
  <course>14.35</course>
  <speed>15.33108280585556</speed>
  <fix>3d</fix>
</trkpt>
<trkpt lat="-35.2756452" lon="148.986399">
  <ele>661.61</ele>
  <time>2026-09-01T19:59:49Z</time>
  <course>14.99</course>
  <speed>15.64</speed>
  <fix>3d</fix>
</trkpt>
<trkpt lat="-35.2756077" lon="148.98641">
  <ele>661.41</ele>
  <time>2026-09-01T19:59:49Z</time>
  <course>13.73</course>
  <speed>15.187761520382125</speed>
  <fix>3d</fix>
</trkpt>
<trkpt lat="-35.2756452" lon="148.986399">
  <ele>661.61</ele>
  <time>2026-09-01T19:59:49Z</time>
  <course>14.99</course>
  <speed>15.64</speed>
  <fix>3d</fix>
</trkpt>
<trkpt lat="-35.2755944" lon="148.9864137">
  <ele>661.39</ele>
  <time>2026-09-01T19:59:49Z</time>
  <course>13.1</course>
  <speed>15.046398240110488</speed>
  <fix>3d</fix>
</trkpt>
<trkpt lat="-35.2756182" lon="148.9864075">
  <ele>661.54</ele>
  <time>2026-09-01T19:59:49Z</time>
  <course>13.73</course>
  <speed>15.35</speed>
  <fix>3d</fix>
</trkpt>
<trkpt lat="-35.2755813" lon="148.9864172">
  <ele>661.36</ele>
  <time>2026-09-01T19:59:49Z</time>
  <course>12.46</course>
  <speed>14.909071064288346</speed>
  <fix>3d</fix>
</trkpt>
<trkpt lat="-35.2756182" lon="148.9864075">
  <ele>661.54</ele>
  <time>2026-09-01T19:59:49Z</time>
  <course>13.73</course>
  <speed>15.35</speed>
  <fix>3d</fix>
</trkpt>
<trkpt lat="-35.2755682" lon="148.9864205">
  <ele>661.34</ele>
  <time>2026-09-01T19:59:49Z</time>
  <course>11.8</course>
  <speed>14.771675598929189</speed>
  <fix>3d</fix>
</trkpt>
<trkpt lat="-35.2755916" lon="148.9864151">
  <ele>661.48</ele>
  <time>2026-09-01T19:59:49Z</time>
  <course>12.42</course>
  <speed>15.07</speed>
  <fix>3d</fix>
</trkpt>
<trkpt lat="-35.2755551" lon="148.9864235">
  <ele>661.32</ele>
  <time>2026-09-01T19:59:49Z</time>
  <course>11.14</course>
  <speed>14.626568291981549</speed>
  <fix>3d</fix>
</trkpt>
<trkpt lat="-35.2755916" lon="148.9864151">
  <ele>661.48</ele>
  <time>2026-09-01T19:59:49Z</time>
  <course>12.42</course>
  <speed>15.07</speed>
  <fix>3d</fix>
</trkpt>
<trkpt lat="-35.2755421" lon="148.9864264">
  <ele>661.31</ele>
  <time>2026-09-01T19:59:49Z</time>
  <course>10.47</course>
  <speed>14.495137115598459</speed>
  <fix>3d</fix>
</trkpt>
<trkpt lat="-35.2755654" lon="148.9864218">
  <ele>661.44</ele>
  <time>2026-09-01T19:59:49Z</time>
  <course>11.07</course>
  <speed>14.78</speed>
  <fix>3d</fix>
</trkpt>
<trkpt lat="-35.2755291" lon="148.9864291">
  <ele>661.29</ele>
  <time>2026-09-01T19:59:49Z</time>
  <course>9.78</course>
  <speed>14.345957618785858</speed>
  <fix>3d</fix>
</trkpt>
<trkpt lat="-35.2755654" lon="148.9864218">
  <ele>661.44</ele>
  <time>2026-09-01T19:59:49Z</time>
  <course>11.07</course>
  <speed>14.78</speed>
  <fix>3d</fix>
</trkpt>
<trkpt lat="-35.2755163" lon="148.9864315">
  <ele>661.28</ele>
  <time>2026-09-01T19:59:49Z</time>
  <course>9.1</course>
  <speed>14.2086628505289</speed>
  <fix>3d</fix>
</trkpt>
<trkpt lat="-35.2755395" lon="148.9864276">
  <ele>661.4</ele>
  <time>2026-09-01T19:59:49Z</time>
  <course>9.69</course>
  <speed>14.49</speed>
  <fix>3d</fix>
</trkpt>
<trkpt lat="-35.2755037" lon="148.9864338">
  <ele>661.28</ele>
  <time>2026-09-01T19:59:49Z</time>
  <course>8.41</course>
  <speed>14.073453733892046</speed>
  <fix>3d</fix>
</trkpt>
<trkpt lat="-35.2755395" lon="148.9864276">
  <ele>661.4</ele>
  <time>2026-09-01T19:59:49Z</time>
  <course>9.69</course>
  <speed>14.49</speed>
  <fix>3d</fix>
</trkpt>
<trkpt lat="-35.2754911" lon="148.9864358">
  <ele>661.27</ele>
  <time>2026-09-01T19:59:49Z</time>
  <course>7.72</course>
  <speed>13.931665370658312</speed>
  <fix>3d</fix>
</trkpt>
<trkpt lat="-35.275514" lon="148.9864325">
  <ele>661.38</ele>
  <time>2026-09-01T19:59:49Z</time>
  <course>8.3</course>
  <speed>14.2</speed>
  <fix>3d</fix>
</trkpt>
<trkpt lat="-35.2754786" lon="148.9864376">
  <ele>661.27</ele>
  <time>2026-09-01T19:59:49Z</time>
  <course>7.03</course>
  <speed>13.781872151489432</speed>
  <fix>3d</fix>
</trkpt>
<trkpt lat="-35.275514" lon="148.9864325">
  <ele>661.38</ele>
  <time>2026-09-01T19:59:49Z</time>
  <course>8.3</course>
  <speed>14.2</speed>
  <fix>3d</fix>
</trkpt>
<trkpt lat="-35.2754663" lon="148.9864392">
  <ele>661.28</ele>
  <time>2026-09-01T19:59:49Z</time>
  <course>6.34</course>
  <speed>13.644002345353067</speed>
  <fix>3d</fix>
</trkpt>
<trkpt lat="-35.2754889" lon="148.9864366">
  <ele>661.37</ele>
  <time>2026-09-01T19:59:49Z</time>
  <course>6.91</course>
  <speed>13.91</speed>
  <fix>3d</fix>
</trkpt>
<trkpt lat="-35.275454" lon="148.9864406">
  <ele>661.28</ele>
  <time>2026-09-01T19:59:49Z</time>
  <course>5.64</course>
  <speed>13.499074042318608</speed>
  <fix>3d</fix>
</trkpt>
<trkpt lat="-35.2754889" lon="148.9864366">
  <ele>661.37</ele>
  <time>2026-09-01T19:59:49Z</time>
  <course>6.91</course>
  <speed>13.91</speed>
  <fix>3d</fix>
</trkpt>
<trkpt lat="-35.2754419" lon="148.9864418">
  <ele>661.29</ele>
  <time>2026-09-01T19:59:49Z</time>
  <course>4.95</course>
  <speed>13.35600239592671</speed>
  <fix>3d</fix>
</trkpt>
<trkpt lat="-35.2754644" lon="148.9864399">
  <ele>661.37</ele>
  <time>2026-09-01T19:59:49Z</time>
  <course>5.51</course>
  <speed>13.62</speed>
  <fix>3d</fix>
</trkpt>
<trkpt lat="-35.27543" lon="148.9864428">
  <ele>661.3</ele>
  <time>2026-09-01T19:59:49Z</time>
  <course>4.27</course>
  <speed>13.204866527155811</speed>
  <fix>3d</fix>
</trkpt>
<trkpt lat="-35.2754644" lon="148.9864399">
  <ele>661.37</ele>
  <time>2026-09-01T19:59:49Z</time>
  <course>5.51</course>
  <speed>13.62</speed>
  <fix>3d</fix>
</trkpt>
<trkpt lat="-35.2754181" lon="148.9864437">
  <ele>661.31</ele>
  <time>2026-09-01T19:59:49Z</time>
  <course>3.58</course>
  <speed>13.056190102782663</speed>
  <fix>3d</fix>
</trkpt>
<trkpt lat="-35.2754403" lon="148.9864424">
  <ele>661.38</ele>
  <time>2026-09-01T19:59:49Z</time>
  <course>4.12</course>
  <speed>13.32</speed>
  <fix>3d</fix>
</trkpt>
<trkpt lat="-35.2754064" lon="148.9864444">
  <ele>661.33</ele>
  <time>2026-09-01T19:59:49Z</time>
  <course>2.9</course>
  <speed>12.90930284717188</speed>
  <fix>3d</fix>
</trkpt>
<trkpt lat="-35.2754403" lon="148.9864424">
  <ele>661.38</ele>
  <time>2026-09-01T19:59:49Z</time>
  <course>4.12</course>
  <speed>13.32</speed>
  <fix>3d</fix>
</trkpt>
<trkpt lat="-35.2753949" lon="148.9864448">
  <ele>661.35</ele>
  <time>2026-09-01T19:59:49Z</time>
  <course>2.22</course>
  <speed>12.754532527693833</speed>
  <fix>3d</fix>
</trkpt>
<trkpt lat="-35.2754166" lon="148.9864442">
  <ele>661.4</ele>
  <time>2026-09-01T19:59:49Z</time>
  <course>2.75</course>
  <speed>13.02</speed>
  <fix>3d</fix>
</trkpt>
<trkpt lat="-35.2753834" lon="148.9864452">
  <ele>661.36</ele>
  <time>2026-09-01T19:59:49Z</time>
  <course>1.55</course>
  <speed>12.60143245825648</speed>
  <fix>3d</fix>
</trkpt>
<trkpt lat="-35.2754166" lon="148.9864442">
  <ele>661.4</ele>
  <time>2026-09-01T19:59:49Z</time>
  <course>2.75</course>
  <speed>13.02</speed>
  <fix>3d</fix>
</trkpt>
<trkpt lat="-35.2753722" lon="148.9864453">
  <ele>661.38</ele>
  <time>2026-09-01T19:59:49Z</time>
  <course>0.88</course>
  <speed>12.450100401201588</speed>
  <fix>3d</fix>
</trkpt>
<trkpt lat="-35.2753935" lon="148.9864452">
  <ele>661.42</ele>
  <time>2026-09-01T19:59:49Z</time>
  <course>1.4</course>
  <speed>12.72</speed>
  <fix>3d</fix>
</trkpt>
<trkpt lat="-35.2753611" lon="148.9864453">
  <ele>661.41</ele>
  <time>2026-09-01T19:59:49Z</time>
  <course>0.22</course>
  <speed>12.290199347447542</speed>
  <fix>3d</fix>
</trkpt>
<trkpt lat="-35.2753935" lon="148.9864452">
  <ele>661.42</ele>
  <time>2026-09-01T19:59:49Z</time>
  <course>1.4</course>
  <speed>12.72</speed>
  <fix>3d</fix>
</trkpt>
<trkpt lat="-35.2753502" lon="148.9864452">
  <ele>661.43</ele>
  <time>2026-09-01T19:59:49Z</time>
  <course>359.59</course>
  <speed>12.131817670901587</speed>
  <fix>3d</fix>
</trkpt>
<trkpt lat="-35.2753709" lon="148.9864455">
  <ele>661.45</ele>
  <time>2026-09-01T19:59:49Z</time>
  <course>0.08</course>
  <speed>12.41</speed>
  <fix>3d</fix>
</trkpt>
<trkpt lat="-35.2753394" lon="148.986445">
  <ele>661.46</ele>
  <time>2026-09-01T19:59:49Z</time>
  <course>358.96</course>
  <speed>11.964551809407656</speed>
  <fix>3d</fix>
</trkpt>
<trkpt lat="-35.2753709" lon="148.9864455">
  <ele>661.45</ele>
  <time>2026-09-01T19:59:49Z</time>
  <course>0.08</course>
  <speed>12.41</speed>
  <fix>3d</fix>
</trkpt>
<trkpt lat="-35.2753288" lon="148.9864446">
  <ele>661.48</ele>
  <time>2026-09-01T19:59:50Z</time>
  <course>358.34</course>
  <speed>11.798584660882</speed>
  <fix>3d</fix>
</trkpt>
<trkpt lat="-35.2753489" lon="148.9864453">
  <ele>661.5</ele>
  <time>2026-09-01T19:59:50Z</time>
  <course>358.8</course>
  <speed>12.09</speed>
  <fix>3d</fix>
</trkpt>
<trkpt lat="-35.2753184" lon="148.986444">
  <ele>661.52</ele>
  <time>2026-09-01T19:59:50Z</time>
  <course>357.73</course>
  <speed>11.6434745673274</speed>
  <fix>3d</fix>
</trkpt>
<trkpt lat="-35.2753489" lon="148.9864453">
  <ele>661.5</ele>
  <time>2026-09-01T19:59:50Z</time>
  <course>358.8</course>
  <speed>12.09</speed>
  <fix>3d</fix>
</trkpt>
<trkpt lat="-35.275308" lon="148.9864433">
  <ele>661.55</ele>
  <time>2026-09-01T19:59:50Z</time>
  <course>357.13</course>
  <speed>11.479568807233136</speed>
  <fix>3d</fix>
</trkpt>
<trkpt lat="-35.2753275" lon="148.9864445">
  <ele>661.56</ele>
  <time>2026-09-01T19:59:50Z</time>
  <course>357.56</course>
  <speed>11.78</speed>
  <fix>3d</fix>
</trkpt>
<trkpt lat="-35.2752978" lon="148.9864425">
  <ele>661.58</ele>
  <time>2026-09-01T19:59:50Z</time>
  <course>356.55</course>
  <speed>11.316912123013061</speed>
  <fix>3d</fix>
</trkpt>
<trkpt lat="-35.2753275" lon="148.9864445">
  <ele>661.56</ele>
  <time>2026-09-01T19:59:50Z</time>
  <course>357.56</course>
  <speed>11.78</speed>
  <fix>3d</fix>
</trkpt>
<trkpt lat="-35.2752876" lon="148.9864416">
  <ele>661.61</ele>
  <time>2026-09-01T19:59:50Z</time>
  <course>355.97</course>
  <speed>11.14479699231888</speed>
  <fix>3d</fix>
</trkpt>
<trkpt lat="-35.2753067" lon="148.9864432">
  <ele>661.62</ele>
  <time>2026-09-01T19:59:50Z</time>
  <course>356.36</course>
  <speed>11.46</speed>
  <fix>3d</fix>
</trkpt>
<trkpt lat="-35.2752777" lon="148.9864405">
  <ele>661.64</ele>
  <time>2026-09-01T19:59:50Z</time>
  <course>355.4</course>
  <speed>10.98291855564813</speed>
  <fix>3d</fix>
</trkpt>
<trkpt lat="-35.2753067" lon="148.9864432">
  <ele>661.62</ele>
  <time>2026-09-01T19:59:50Z</time>
  <course>356.36</course>
  <speed>11.46</speed>
  <fix>3d</fix>
</trkpt>
<trkpt lat="-35.2752679" lon="148.9864394">
  <ele>661.68</ele>
  <time>2026-09-01T19:59:50Z</time>
  <course>354.84</course>
  <speed>10.822037700913816</speed>
  <fix>3d</fix>
</trkpt>
<trkpt lat="-35.2752864" lon="148.9864413">
  <ele>661.68</ele>
  <time>2026-09-01T19:59:50Z</time>
  <course>355.2</course>
  <speed>11.13</speed>
  <fix>3d</fix>
</trkpt>
<trkpt lat="-35.2752583" lon="148.9864382">
  <ele>661.72</ele>
  <time>2026-09-01T19:59:50Z</time>
  <course>354.29</course>
  <speed>10.651183032884187</speed>
  <fix>3d</fix>
</trkpt>
<trkpt lat="-35.2752864" lon="148.9864413">
  <ele>661.68</ele>
  <time>2026-09-01T19:59:50Z</time>
  <course>355.2</course>
  <speed>11.13</speed>
  <fix>3d</fix>
</trkpt>
<trkpt lat="-35.2752488" lon="148.9864368">
  <ele>661.75</ele>
  <time>2026-09-01T19:59:50Z</time>
  <course>353.75</course>
  <speed>10.48124515503764</speed>
  <fix>3d</fix>
</trkpt>
<trkpt lat="-35.2752668" lon="148.986439">
  <ele>661.74</ele>
  <time>2026-09-01T19:59:50Z</time>
  <course>354.08</course>
  <speed>10.8</speed>
  <fix>3d</fix>
</trkpt>
<trkpt lat="-35.2752396" lon="148.9864354">
  <ele>661.79</ele>
  <time>2026-09-01T19:59:50Z</time>
  <course>353.22</course>
  <speed>10.31101352923174</speed>
  <fix>3d</fix>
</trkpt>
<trkpt lat="-35.2752668" lon="148.986439">
  <ele>661.74</ele>
  <time>2026-09-01T19:59:50Z</time>
  <course>354.08</course>
  <speed>10.8</speed>
  <fix>3d</fix>
</trkpt>
<trkpt lat="-35.2752304" lon="148.9864339">
  <ele>661.83</ele>
  <time>2026-09-01T19:59:50Z</time>
  <course>352.71</course>
  <speed>10.140266268693342</speed>
  <fix>3d</fix>
</trkpt>
<trkpt lat="-35.2752478" lon="148.9864365">
  <ele>661.82</ele>
  <time>2026-09-01T19:59:50Z</time>
  <course>353.0</course>
  <speed>10.47</speed>
  <fix>3d</fix>
</trkpt>
<trkpt lat="-35.2752215" lon="148.9864324">
  <ele>661.87</ele>
  <time>2026-09-01T19:59:50Z</time>
  <course>352.21</course>
  <speed>9.960306220192228</speed>
  <fix>3d</fix>
</trkpt>
<trkpt lat="-35.2752478" lon="148.9864365">
  <ele>661.82</ele>
  <time>2026-09-01T19:59:50Z</time>
  <course>353.0</course>
  <speed>10.47</speed>
  <fix>3d</fix>
</trkpt>
<trkpt lat="-35.2752127" lon="148.9864307">
  <ele>661.91</ele>
  <time>2026-09-01T19:59:50Z</time>
  <course>351.73</course>
  <speed>9.781094008340784</speed>
  <fix>3d</fix>
</trkpt>
<trkpt lat="-35.2752294" lon="148.9864335">
  <ele>661.89</ele>
  <time>2026-09-01T19:59:50Z</time>
  <course>351.97</course>
  <speed>10.12</speed>
  <fix>3d</fix>
</trkpt>
<trkpt lat="-35.275204" lon="148.986429">
  <ele>661.95</ele>
  <time>2026-09-01T19:59:50Z</time>
  <course>351.26</course>
  <speed>9.610957288428661</speed>
  <fix>3d</fix>
</trkpt>
<trkpt lat="-35.2752294" lon="148.9864335">
  <ele>661.89</ele>
  <time>2026-09-01T19:59:50Z</time>
  <course>351.97</course>
  <speed>10.12</speed>
  <fix>3d</fix>
</trkpt>
<trkpt lat="-35.2751956" lon="148.9864273">
  <ele>661.99</ele>
  <time>2026-09-01T19:59:50Z</time>
  <course>350.8</course>
  <speed>9.429931070797918</speed>
  <fix>3d</fix>
</trkpt>
<trkpt lat="-35.2752117" lon="148.9864303">
  <ele>661.97</ele>
  <time>2026-09-01T19:59:50Z</time>
  <course>351.0</course>
  <speed>9.77</speed>
  <fix>3d</fix>
</trkpt>
<trkpt lat="-35.2751873" lon="148.9864255">
  <ele>662.03</ele>
  <time>2026-09-01T19:59:50Z</time>
  <course>350.36</course>
  <speed>9.249437820754297</speed>
  <fix>3d</fix>
</trkpt>
<trkpt lat="-35.2752117" lon="148.9864303">
  <ele>661.97</ele>
  <time>2026-09-01T19:59:50Z</time>
  <course>351.0</course>
  <speed>9.77</speed>
  <fix>3d</fix>
</trkpt>
<trkpt lat="-35.2751792" lon="148.9864237">
  <ele>662.07</ele>
  <time>2026-09-01T19:59:50Z</time>
  <course>349.93</course>
  <speed>9.069509358283943</speed>
  <fix>3d</fix>
</trkpt>
<trkpt lat="-35.2751947" lon="148.9864268">
  <ele>662.04</ele>
  <time>2026-09-01T19:59:50Z</time>
  <course>350.08</course>
  <speed>9.42</speed>
  <fix>3d</fix>
</trkpt>
<trkpt lat="-35.2751713" lon="148.9864219">
  <ele>662.11</ele>
  <time>2026-09-01T19:59:50Z</time>
  <course>349.51</course>
  <speed>8.878473967974452</speed>
  <fix>3d</fix>
</trkpt>
<trkpt lat="-35.2751947" lon="148.9864268">
  <ele>662.04</ele>
  <time>2026-09-01T19:59:50Z</time>
  <course>350.08</course>
  <speed>9.42</speed>
  <fix>3d</fix>
</trkpt>
<trkpt lat="-35.2751636" lon="148.98642">
  <ele>662.14</ele>
  <time>2026-09-01T19:59:50Z</time>
  <course>349.11</course>
  <speed>8.695803585638306</speed>
  <fix>3d</fix>
</trkpt>
<trkpt lat="-35.2751784" lon="148.9864231">
  <ele>662.11</ele>
  <time>2026-09-01T19:59:50Z</time>
  <course>349.21</course>
  <speed>9.06</speed>
  <fix>3d</fix>
</trkpt>
<trkpt lat="-35.2751561" lon="148.9864181">
  <ele>662.18</ele>
  <time>2026-09-01T19:59:50Z</time>
  <course>348.71</course>
  <speed>8.51350104246191</speed>
  <fix>3d</fix>
</trkpt>
<trkpt lat="-35.2751784" lon="148.9864231">
  <ele>662.11</ele>
  <time>2026-09-01T19:59:50Z</time>
  <course>349.21</course>
  <speed>9.06</speed>
  <fix>3d</fix>
</trkpt>
<trkpt lat="-35.2751487" lon="148.9864161">
  <ele>662.21</ele>
  <time>2026-09-01T19:59:50Z</time>
  <course>348.33</course>
  <speed>8.321808697632985</speed>
  <fix>3d</fix>
</trkpt>
<trkpt lat="-35.2751627" lon="148.9864193">
  <ele>662.18</ele>
  <time>2026-09-01T19:59:50Z</time>
  <course>348.39</course>
  <speed>8.69</speed>
  <fix>3d</fix>
</trkpt>
<trkpt lat="-35.2751415" lon="148.9864142">
  <ele>662.24</ele>
  <time>2026-09-01T19:59:50Z</time>
  <course>347.96</course>
  <speed>8.138187758954693</speed>
  <fix>3d</fix>
</trkpt>
<trkpt lat="-35.2751627" lon="148.9864193">
  <ele>662.18</ele>
  <time>2026-09-01T19:59:50Z</time>
  <course>348.39</course>
  <speed>8.69</speed>
  <fix>3d</fix>
</trkpt>
<trkpt lat="-35.2751345" lon="148.9864122">
  <ele>662.26</ele>
  <time>2026-09-01T19:59:50Z</time>
  <course>347.6</course>
  <speed>7.952685081153408</speed>
  <fix>3d</fix>
</trkpt>
<trkpt lat="-35.2751478" lon="148.9864154">
  <ele>662.25</ele>
  <time>2026-09-01T19:59:50Z</time>
  <course>347.63</course>
  <speed>8.33</speed>
  <fix>3d</fix>
</trkpt>
<trkpt lat="-35.2751276" lon="148.9864103">
  <ele>662.28</ele>
  <time>2026-09-01T19:59:50Z</time>
  <course>347.24</course>
  <speed>7.759903349913579</speed>
  <fix>3d</fix>
</trkpt>
<trkpt lat="-35.2751478" lon="148.9864154">
  <ele>662.25</ele>
  <time>2026-09-01T19:59:50Z</time>
  <course>347.63</course>
  <speed>8.33</speed>
  <fix>3d</fix>
</trkpt>
<trkpt lat="-35.275121" lon="148.9864083">
  <ele>662.3</ele>
  <time>2026-09-01T19:59:50Z</time>
  <course>346.9</course>
  <speed>7.574919141482634</speed>
  <fix>3d</fix>
</trkpt>
<trkpt lat="-35.2751335" lon="148.9864114">
  <ele>662.3</ele>
  <time>2026-09-01T19:59:50Z</time>
  <course>346.91</course>
  <speed>7.96</speed>
  <fix>3d</fix>
</trkpt>
<trkpt lat="-35.2751145" lon="148.9864063">
  <ele>662.32</ele>
  <time>2026-09-01T19:59:50Z</time>
  <course>346.56</course>
  <speed>7.390189442768027</speed>
  <fix>3d</fix>
</trkpt>
<trkpt lat="-35.2751335" lon="148.9864114">
  <ele>662.3</ele>
  <time>2026-09-01T19:59:50Z</time>
  <course>346.91</course>
  <speed>7.96</speed>
  <fix>3d</fix>
</trkpt>
<trkpt lat="-35.2751081" lon="148.9864044">
  <ele>662.33</ele>
  <time>2026-09-01T19:59:50Z</time>
  <course>346.23</course>
  <speed>7.20331173836035</speed>
  <fix>3d</fix>
</trkpt>
<trkpt lat="-35.2751199" lon="148.9864074">
  <ele>662.33</ele>
  <time>2026-09-01T19:59:50Z</time>
  <course>346.23</course>
  <speed>7.59</speed>
  <fix>3d</fix>
</trkpt>
<trkpt lat="-35.2751019" lon="148.9864024">
  <ele>662.33</ele>
  <time>2026-09-01T19:59:50Z</time>
  <course>345.91</course>
  <speed>7.016615993482898</speed>
  <fix>3d</fix>
</trkpt>
<trkpt lat="-35.2751199" lon="148.9864074">
  <ele>662.33</ele>
  <time>2026-09-01T19:59:50Z</time>
  <course>346.23</course>
  <speed>7.59</speed>
  <fix>3d</fix>
</trkpt>
<trkpt lat="-35.2750958" lon="148.9864004">
  <ele>662.33</ele>
  <time>2026-09-01T19:59:50Z</time>
  <course>345.6</course>
  <speed>6.82760572968299</speed>
  <fix>3d</fix>
</trkpt>
<trkpt lat="-35.275107" lon="148.9864035">
  <ele>662.36</ele>
  <time>2026-09-01T19:59:50Z</time>
  <course>345.6</course>
  <speed>7.22</speed>
  <fix>3d</fix>
</trkpt>
<trkpt lat="-35.2750899" lon="148.9863985">
  <ele>662.26</ele>
  <time>2026-09-01T19:59:50Z</time>
  <course>345.29</course>
  <speed>6.592419889539803</speed>
  <fix>3d</fix>
</trkpt>
<trkpt lat="-35.275107" lon="148.9864035">
  <ele>662.36</ele>
  <time>2026-09-01T19:59:50Z</time>
  <course>345.6</course>
  <speed>7.22</speed>
  <fix>3d</fix>
</trkpt>
<trkpt lat="-35.2750843" lon="148.9863966">
  <ele>662.11</ele>
  <time>2026-09-01T19:59:50Z</time>
  <course>345.01</course>
  <speed>6.284464973249514</speed>
  <fix>3d</fix>
</trkpt>
<trkpt lat="-35.2750948" lon="148.9863996">
  <ele>662.33</ele>
  <time>2026-09-01T19:59:50Z</time>
  <course>345.16</course>
  <speed>6.82</speed>
  <fix>3d</fix>
</trkpt>
<trkpt lat="-35.2750789" lon="148.9863949">
  <ele>661.9</ele>
  <time>2026-09-01T19:59:50Z</time>
  <course>344.74</course>
  <speed>5.913408492570085</speed>
  <fix>3d</fix>
</trkpt>
<trkpt lat="-35.2750948" lon="148.9863996">
  <ele>662.33</ele>
  <time>2026-09-01T19:59:50Z</time>
  <course>345.16</course>
  <speed>6.82</speed>
  <fix>3d</fix>
</trkpt>
<trkpt lat="-35.275074" lon="148.9863932">
  <ele>661.63</ele>
  <time>2026-09-01T19:59:50Z</time>
  <course>344.51</course>
  <speed>5.452788277569559</speed>
  <fix>3d</fix>
</trkpt>
<trkpt lat="-35.2750834" lon="148.9863959">
  <ele>662.13</ele>
  <time>2026-09-01T19:59:50Z</time>
  <course>344.94</course>
  <speed>6.27</speed>
  <fix>3d</fix>
</trkpt>
<trkpt lat="-35.2750695" lon="148.9863917">
  <ele>661.32</ele>
  <time>2026-09-01T19:59:50Z</time>
  <course>344.34</course>
  <speed>4.931703559623186</speed>
  <fix>3d</fix>
</trkpt>
<trkpt lat="-35.2750834" lon="148.9863959">
  <ele>662.13</ele>
  <time>2026-09-01T19:59:50Z</time>
  <course>344.94</course>
  <speed>6.27</speed>
  <fix>3d</fix>
</trkpt>
<trkpt lat="-35.2750654" lon="148.9863903">
  <ele>660.99</ele>
  <time>2026-09-01T19:59:50Z</time>
  <course>344.22</course>
  <speed>4.369553752959219</speed>
  <fix>3d</fix>
</trkpt>
<trkpt lat="-35.2750732" lon="148.9863925">
  <ele>661.67</ele>
  <time>2026-09-01T19:59:50Z</time>
  <course>344.66</course>
  <speed>5.45</speed>
  <fix>3d</fix>
</trkpt>
<trkpt lat="-35.2750619" lon="148.986389">
  <ele>660.64</ele>
  <time>2026-09-01T19:59:50Z</time>
  <course>344.12</course>
  <speed>3.7980258029665883</speed>
  <fix>3d</fix>
</trkpt>
<trkpt lat="-35.2750732" lon="148.9863925">
  <ele>661.67</ele>
  <time>2026-09-01T19:59:50Z</time>
  <course>344.66</course>
  <speed>5.45</speed>
  <fix>3d</fix>
</trkpt>
<trkpt lat="-35.2750588" lon="148.9863879">
  <ele>660.28</ele>
  <time>2026-09-01T19:59:50Z</time>
  <course>344.02</course>
  <speed>3.2393826572357884</speed>
  <fix>3d</fix>
</trkpt>
<trkpt lat="-35.2750647" lon="148.9863896">
  <ele>661.04</ele>
  <time>2026-09-01T19:59:50Z</time>
  <course>344.04</course>
  <speed>4.39</speed>
  <fix>3d</fix>
</trkpt>
<trkpt lat="-35.2750562" lon="148.9863868">
  <ele>659.94</ele>
  <time>2026-09-01T19:59:50Z</time>
  <course>343.93</course>
  <speed>2.7102213931706762</speed>
  <fix>3d</fix>
</trkpt>
<trkpt lat="-35.2750647" lon="148.9863896">
  <ele>661.04</ele>
  <time>2026-09-01T19:59:50Z</time>
  <course>344.04</course>
  <speed>4.39</speed>
  <fix>3d</fix>
</trkpt>
<trkpt lat="-35.2750541" lon="148.9863859">
  <ele>659.6</ele>
  <time>2026-09-01T19:59:50Z</time>
  <course>343.82</course>
  <speed>2.2043819995635965</speed>
  <fix>3d</fix>
</trkpt>
<trkpt lat="-35.275058" lon="148.9863872">
  <ele>660.35</ele>
  <time>2026-09-01T19:59:50Z</time>
  <course>342.76</course>
  <speed>3.28</speed>
  <fix>3d</fix>
</trkpt>
<trkpt lat="-35.2750524" lon="148.9863851">
  <ele>659.28</ele>
  <time>2026-09-01T19:59:50Z</time>
  <course>343.72</course>
  <speed>1.751142484208524</speed>
  <fix>3d</fix>
</trkpt>
<trkpt lat="-35.275058" lon="148.9863872">
  <ele>660.35</ele>
  <time>2026-09-01T19:59:50Z</time>
  <course>342.76</course>
  <speed>3.28</speed>
  <fix>3d</fix>
</trkpt>
<trkpt lat="-35.275051" lon="148.9863844">
  <ele>658.99</ele>
  <time>2026-09-01T19:59:50Z</time>
  <course>343.64</course>
  <speed>1.3556548233234005</speed>
  <fix>3d</fix>
</trkpt>
<trkpt lat="-35.2750533" lon="148.9863853">
  <ele>659.67</ele>
  <time>2026-09-01T19:59:50Z</time>
  <course>340.2</course>
  <speed>2.25</speed>
  <fix>3d</fix>
</trkpt>
<trkpt lat="-35.2750501" lon="148.9863837">
  <ele>658.72</ele>
  <time>2026-09-01T19:59:50Z</time>
  <course>343.59</course>
  <speed>1.0084641788382966</speed>
  <fix>3d</fix>
</trkpt>
<trkpt lat="-35.2750533" lon="148.9863853">
  <ele>659.67</ele>
  <time>2026-09-01T19:59:50Z</time>
  <course>340.2</course>
  <speed>2.25</speed>
  <fix>3d</fix>
</trkpt>
<trkpt lat="-35.2750493" lon="148.9863832">
  <ele>658.49</ele>
  <time>2026-09-01T19:59:50Z</time>
  <course>343.61</course>
  <speed>0.7247068372797375</speed>
  <fix>3d</fix>
</trkpt>
<trkpt lat="-35.2750503" lon="148.9863838">
  <ele>659.06</ele>
  <time>2026-09-01T19:59:50Z</time>
  <course>334.62</course>
  <speed>1.39</speed>
  <fix>3d</fix>
</trkpt>
<trkpt lat="-35.2750489" lon="148.9863826">
  <ele>658.3</ele>
  <time>2026-09-01T19:59:50Z</time>
  <course>343.75</course>
  <speed>0.5243090691567331</speed>
  <fix>3d</fix>
</trkpt>
<trkpt lat="-35.2750503" lon="148.9863838">
  <ele>659.06</ele>
  <time>2026-09-01T19:59:50Z</time>
  <course>334.62</course>
  <speed>1.39</speed>
  <fix>3d</fix>
</trkpt>
<trkpt lat="-35.2750487" lon="148.9863821">
  <ele>658.14</ele>
  <time>2026-09-01T19:59:50Z</time>
  <course>344.06</course>
  <speed>0.4295346318982906</speed>
  <fix>3d</fix>
</trkpt>
<trkpt lat="-35.2750487" lon="148.9863826">
  <ele>658.57</ele>
  <time>2026-09-01T19:59:50Z</time>
  <course>320.22</course>
  <speed>0.76</speed>
  <fix>3d</fix>
</trkpt>
<trkpt lat="-35.2750486" lon="148.9863816">
  <ele>658.03</ele>
  <time>2026-09-01T19:59:50Z</time>
  <course>344.54</course>
  <speed>0.422965719651132</speed>
  <fix>3d</fix>
</trkpt>
<trkpt lat="-35.2750487" lon="148.9863826">
  <ele>658.57</ele>
  <time>2026-09-01T19:59:50Z</time>
  <course>320.22</course>
  <speed>0.76</speed>
  <fix>3d</fix>
</trkpt>
<trkpt lat="-35.2750487" lon="148.9863811">
  <ele>657.96</ele>
  <time>2026-09-01T19:59:50Z</time>
  <course>345.15</course>
  <speed>0.45880278987817846</speed>
  <fix>3d</fix>
</trkpt>
<trkpt lat="-35.2750481" lon="148.9863815">
  <ele>658.24</ele>
  <time>2026-09-01T19:59:50Z</time>
  <course>284.06</course>
  <speed>0.45</speed>
  <fix>3d</fix>
</trkpt>
<trkpt lat="-35.2750488" lon="148.9863806">
  <ele>657.93</ele>
  <time>2026-09-01T19:59:50Z</time>
  <course>345.83</course>
  <speed>0.49244289008980524</speed>
  <fix>3d</fix>
</trkpt>
<trkpt lat="-35.2750481" lon="148.9863815">
  <ele>658.24</ele>
  <time>2026-09-01T19:59:50Z</time>
  <course>284.06</course>
  <speed>0.45</speed>
  <fix>3d</fix>
</trkpt>
<trkpt lat="-35.275049" lon="148.98638">
  <ele>657.92</ele>
  <time>2026-09-01T19:59:50Z</time>
  <course>346.45</course>
  <speed>0.5162363799656123</speed>
  <fix>3d</fix>
</trkpt>
<trkpt lat="-35.2750481" lon="148.9863806">
  <ele>658.06</ele>
  <time>2026-09-01T19:59:50Z</time>
  <course>248.76</course>
  <speed>0.47</speed>
  <fix>3d</fix>
</trkpt>
<trkpt lat="-35.2750491" lon="148.9863795">
  <ele>657.95</ele>
  <time>2026-09-01T19:59:50Z</time>
  <course>346.92</course>
  <speed>0.532541078227774</speed>
  <fix>3d</fix>
</trkpt>
<trkpt lat="-35.2750481" lon="148.9863806">
  <ele>658.06</ele>
  <time>2026-09-01T19:59:50Z</time>
  <course>248.76</course>
  <speed>0.47</speed>
  <fix>3d</fix>
</trkpt>
<trkpt lat="-35.2750494" lon="148.986379">
  <ele>658.0</ele>
  <time>2026-09-01T19:59:50Z</time>
  <course>347.17</course>
  <speed>0.5360037313302959</speed>
  <fix>3d</fix>
</trkpt>
<trkpt lat="-35.2750485" lon="148.9863796">
  <ele>658.02</ele>
  <time>2026-09-01T19:59:50Z</time>
  <course>236.34</course>
  <speed>0.54</speed>
  <fix>3d</fix>
</trkpt>
<trkpt lat="-35.2750496" lon="148.9863785">
  <ele>658.07</ele>
  <time>2026-09-01T19:59:50Z</time>
  <course>347.18</course>
  <speed>0.5341348144429456</speed>
  <fix>3d</fix>
</trkpt>
<trkpt lat="-35.2750485" lon="148.9863796">
  <ele>658.02</ele>
  <time>2026-09-01T19:59:50Z</time>
  <course>236.34</course>
  <speed>0.54</speed>
  <fix>3d</fix>
</trkpt>
<trkpt lat="-35.2750499" lon="148.986378">
  <ele>658.14</ele>
  <time>2026-09-01T19:59:50Z</time>
  <course>346.99</course>
  <speed>0.518555686498567</speed>
  <fix>3d</fix>
</trkpt>
<trkpt lat="-35.2750491" lon="148.9863787">
  <ele>658.1</ele>
  <time>2026-09-01T19:59:50Z</time>
  <course>231.98</course>
  <speed>0.56</speed>
  <fix>3d</fix>
</trkpt>
<trkpt lat="-35.2750502" lon="148.9863776">
  <ele>658.23</ele>
  <time>2026-09-01T19:59:50Z</time>
  <course>346.67</course>
  <speed>0.49678969393496886</speed>
  <fix>3d</fix>
</trkpt>
<trkpt lat="-35.2750491" lon="148.9863787">
  <ele>658.1</ele>
  <time>2026-09-01T19:59:50Z</time>
  <course>231.98</course>
  <speed>0.56</speed>
  <fix>3d</fix>
</trkpt>
<trkpt lat="-35.2750504" lon="148.9863771">
  <ele>658.31</ele>
  <time>2026-09-01T19:59:50Z</time>
  <course>346.31</course>
  <speed>0.46861498055439926</speed>
  <fix>3d</fix>
</trkpt>
<trkpt lat="-35.2750497" lon="148.9863777">
  <ele>658.24</ele>
  <time>2026-09-01T19:59:50Z</time>
  <course>229.6</course>
  <speed>0.55</speed>
  <fix>3d</fix>
</trkpt>
<trkpt lat="-35.2750507" lon="148.9863767">
  <ele>658.38</ele>
  <time>2026-09-01T19:59:50Z</time>
  <course>345.99</course>
  <speed>0.44045431091090476</speed>
  <fix>3d</fix>
</trkpt>
<trkpt lat="-35.2750497" lon="148.9863777">
  <ele>658.24</ele>
  <time>2026-09-01T19:59:50Z</time>
  <course>229.6</course>
  <speed>0.55</speed>
  <fix>3d</fix>
</trkpt>
<trkpt lat="-35.2750509" lon="148.9863763">
  <ele>658.45</ele>
  <time>2026-09-01T19:59:50Z</time>
  <course>345.78</course>
  <speed>0.41231056256176607</speed>
  <fix>3d</fix>
</trkpt>
<trkpt lat="-35.2750504" lon="148.9863767">
  <ele>658.4</ele>
  <time>2026-09-01T19:59:50Z</time>
  <course>228.84</course>
  <speed>0.51</speed>
  <fix>3d</fix>
</trkpt>
<trkpt lat="-35.2750512" lon="148.9863759">
  <ele>658.5</ele>
  <time>2026-09-01T19:59:50Z</time>
  <course>345.69</course>
  <speed>0.3920459156782532</speed>
  <fix>3d</fix>
</trkpt>
<trkpt lat="-35.2750504" lon="148.9863767">
  <ele>658.4</ele>
  <time>2026-09-01T19:59:50Z</time>
  <course>228.84</course>
  <speed>0.51</speed>
  <fix>3d</fix>
</trkpt>
<trkpt lat="-35.2750514" lon="148.9863756">
  <ele>658.55</ele>
  <time>2026-09-01T19:59:50Z</time>
  <course>345.75</course>
  <speed>0.35805027579936316</speed>
  <fix>3d</fix>
</trkpt>
<trkpt lat="-35.2750509" lon="148.986376">
  <ele>658.54</ele>
  <time>2026-09-01T19:59:50Z</time>
  <course>229.49</course>
  <speed>0.45</speed>
  <fix>3d</fix>
</trkpt>
<trkpt lat="-35.2750515" lon="148.9863752">
  <ele>658.58</ele>
  <time>2026-09-01T19:59:50Z</time>
  <course>345.93</course>
  <speed>0.3301514803843835</speed>
  <fix>3d</fix>
</trkpt>
<trkpt lat="-35.2750509" lon="148.986376">
  <ele>658.54</ele>
  <time>2026-09-01T19:59:50Z</time>
  <course>229.49</course>
  <speed>0.45</speed>
  <fix>3d</fix>
</trkpt>
<trkpt lat="-35.2750517" lon="148.9863749">
  <ele>658.59</ele>
  <time>2026-09-01T19:59:50Z</time>
  <course>346.2</course>
  <speed>0.30016662039607267</speed>
  <fix>3d</fix>
</trkpt>
<trkpt lat="-35.2750514" lon="148.9863752">
  <ele>658.63</ele>
  <time>2026-09-01T19:59:50Z</time>
  <course>231.86</course>
  <speed>0.4</speed>
  <fix>3d</fix>
</trkpt>
<trkpt lat="-35.2750518" lon="148.9863746">
  <ele>658.6</ele>
  <time>2026-09-01T19:59:50Z</time>
  <course>346.51</course>
  <speed>0.27313000567495327</speed>
  <fix>3d</fix>
</trkpt>
<trkpt lat="-35.2750514" lon="148.9863752">
  <ele>658.63</ele>
  <time>2026-09-01T19:59:50Z</time>
  <course>231.86</course>
  <speed>0.4</speed>
  <fix>3d</fix>
</trkpt>
<trkpt lat="-35.2750519" lon="148.9863743">
  <ele>658.6</ele>
  <time>2026-09-01T19:59:50Z</time>
  <course>346.8</course>
  <speed>0.24041630560342614</speed>
  <fix>3d</fix>
</trkpt>
<trkpt lat="-35.2750518" lon="148.9863745">
  <ele>658.68</ele>
  <time>2026-09-01T19:59:50Z</time>
  <course>237.45</course>
  <speed>0.34</speed>
  <fix>3d</fix>
</trkpt>
<trkpt lat="-35.275052" lon="148.986374">
  <ele>658.59</ele>
  <time>2026-09-01T19:59:50Z</time>
  <course>347.05</course>
  <speed>0.22090722034374521</speed>
  <fix>3d</fix>
</trkpt>
<trkpt lat="-35.2750518" lon="148.9863745">
  <ele>658.68</ele>
  <time>2026-09-01T19:59:50Z</time>
  <course>237.45</course>
  <speed>0.34</speed>
  <fix>3d</fix>
</trkpt>
<trkpt lat="-35.275052" lon="148.9863737">
  <ele>658.57</ele>
  <time>2026-09-01T19:59:50Z</time>
  <course>347.22</course>
  <speed>0.2002498439450079</speed>
  <fix>3d</fix>
</trkpt>
<trkpt lat="-35.275052" lon="148.986374">
  <ele>658.69</ele>
  <time>2026-09-01T19:59:50Z</time>
  <course>248.76</course>
  <speed>0.27</speed>
  <fix>3d</fix>
</trkpt>
<trkpt lat="-35.275052" lon="148.9863735">
  <ele>658.55</ele>
  <time>2026-09-01T19:59:50Z</time>
  <course>347.3</course>
  <speed>0.20248456731316586</speed>
  <fix>3d</fix>
</trkpt>
<trkpt lat="-35.275052" lon="148.986374">
  <ele>658.69</ele>
  <time>2026-09-01T19:59:50Z</time>
  <course>248.76</course>
  <speed>0.27</speed>
  <fix>3d</fix>
</trkpt>
<trkpt lat="-35.2750519" lon="148.9863733">
  <ele>658.52</ele>
  <time>2026-09-01T19:59:50Z</time>
  <course>347.3</course>
  <speed>0.2220360331117452</speed>
  <fix>3d</fix>
</trkpt>
<trkpt lat="-35.2750522" lon="148.9863734">
  <ele>658.66</ele>
  <time>2026-09-01T19:59:50Z</time>
  <course>269.24</course>
  <speed>0.23</speed>
  <fix>3d</fix>
</trkpt>
<trkpt lat="-35.2750517" lon="148.986373">
  <ele>658.49</ele>
  <time>2026-09-01T19:59:50Z</time>
  <course>347.24</course>
  <speed>0.25495097567963926</speed>
  <fix>3d</fix>
</trkpt>
<trkpt lat="-35.2750522" lon="148.9863734">
  <ele>658.66</ele>
  <time>2026-09-01T19:59:50Z</time>
  <course>269.24</course>
  <speed>0.23</speed>
  <fix>3d</fix>
</trkpt>
<trkpt lat="-35.2750516" lon="148.9863728">
  <ele>658.46</ele>
  <time>2026-09-01T19:59:50Z</time>
  <course>347.14</course>
  <speed>0.30528675044947495</speed>
  <fix>3d</fix>
</trkpt>
<trkpt lat="-35.2750521" lon="148.986373">
  <ele>658.61</ele>
  <time>2026-09-01T19:59:50Z</time>
  <course>298.39</course>
  <speed>0.23</speed>
  <fix>3d</fix>
</trkpt>
<trkpt lat="-35.2750514" lon="148.9863726">
  <ele>658.44</ele>
  <time>2026-09-01T19:59:50Z</time>
  <course>347.04</course>
  <speed>0.3624913792078372</speed>
  <fix>3d</fix>
</trkpt>
<trkpt lat="-35.2750521" lon="148.986373">
  <ele>658.61</ele>
  <time>2026-09-01T19:59:50Z</time>
  <course>298.39</course>
  <speed>0.23</speed>
  <fix>3d</fix>
</trkpt>
<trkpt lat="-35.2750511" lon="148.9863724">
  <ele>658.42</ele>
  <time>2026-09-01T19:59:50Z</time>
  <course>346.95</course>
  <speed>0.42379240200834184</speed>
  <fix>3d</fix>
</trkpt>
<trkpt lat="-35.2750518" lon="148.9863725">
  <ele>658.56</ele>
  <time>2026-09-01T19:59:50Z</time>
  <course>322.51</course>
  <speed>0.3</speed>
  <fix>3d</fix>
</trkpt>
<trkpt lat="-35.2750507" lon="148.9863723">
  <ele>658.4</ele>
  <time>2026-09-01T19:59:50Z</time>
  <course>346.88</course>
  <speed>0.49040799340956914</speed>
  <fix>3d</fix>
</trkpt>
<trkpt lat="-35.2750518" lon="148.9863725">
  <ele>658.56</ele>
  <time>2026-09-01T19:59:50Z</time>
  <course>322.51</course>
  <speed>0.3</speed>
  <fix>3d</fix>
</trkpt>
<trkpt lat="-35.2750503" lon="148.9863721">
  <ele>658.39</ele>
  <time>2026-09-01T19:59:50Z</time>
  <course>346.85</course>
  <speed>0.5651548460377916</speed>
  <fix>3d</fix>
</trkpt>
<trkpt lat="-35.2750513" lon="148.9863722">
  <ele>658.51</ele>
  <time>2026-09-01T19:59:50Z</time>
  <course>336.02</course>
  <speed>0.42</speed>
  <fix>3d</fix>
</trkpt>
<trkpt lat="-35.2750498" lon="148.9863719">
  <ele>658.39</ele>
  <time>2026-09-01T19:59:50Z</time>
  <course>346.85</course>
  <speed>0.6334824385884742</speed>
  <fix>3d</fix>
</trkpt>
<trkpt lat="-35.2750513" lon="148.9863722">
  <ele>658.51</ele>
  <time>2026-09-01T19:59:50Z</time>
  <course>336.02</course>
  <speed>0.42</speed>
  <fix>3d</fix>
</trkpt>
<trkpt lat="-35.2750492" lon="148.9863717">
  <ele>658.38</ele>
  <time>2026-09-01T19:59:50Z</time>
  <course>346.87</course>
  <speed>0.7021395872616784</speed>
  <fix>3d</fix>
</trkpt>
<trkpt lat="-35.2750505" lon="148.9863717">
  <ele>658.49</ele>
  <time>2026-09-01T19:59:50Z</time>
  <course>343.05</course>
  <speed>0.57</speed>
  <fix>3d</fix>
</trkpt>
<trkpt lat="-35.2750486" lon="148.9863715">
  <ele>658.38</ele>
  <time>2026-09-01T19:59:50Z</time>
  <course>346.9</course>
  <speed>0.7710382610480494</speed>
  <fix>3d</fix>
</trkpt>
<trkpt lat="-35.2750505" lon="148.9863717">
  <ele>658.49</ele>
  <time>2026-09-01T19:59:50Z</time>
  <course>343.05</course>
  <speed>0.57</speed>
  <fix>3d</fix>
</trkpt>
<trkpt lat="-35.2750479" lon="148.9863714">
  <ele>658.39</ele>
  <time>2026-09-01T19:59:50Z</time>
  <course>346.94</course>
  <speed>0.840119039184329</speed>
  <fix>3d</fix>
</trkpt>
<trkpt lat="-35.2750493" lon="148.9863714">
  <ele>658.47</ele>
  <time>2026-09-01T19:59:50Z</time>
  <course>346.83</course>
  <speed>0.71</speed>
  <fix>3d</fix>
</trkpt>
<trkpt lat="-35.2750471" lon="148.9863712">
  <ele>658.4</ele>
  <time>2026-09-01T19:59:50Z</time>
  <course>346.97</course>
  <speed>0.9093404203047393</speed>
  <fix>3d</fix>
</trkpt>
<trkpt lat="-35.2750493" lon="148.9863714">
  <ele>658.47</ele>
  <time>2026-09-01T19:59:50Z</time>
  <course>346.83</course>
  <speed>0.71</speed>
  <fix>3d</fix>
</trkpt>
<trkpt lat="-35.2750463" lon="148.986371">
  <ele>658.4</ele>
  <time>2026-09-01T19:59:50Z</time>
  <course>347.0</course>
  <speed>0.9687620966986684</speed>
  <fix>3d</fix>
</trkpt>
<trkpt lat="-35.2750479" lon="148.986371">
  <ele>658.47</ele>
  <time>2026-09-01T19:59:50Z</time>
  <course>348.94</course>
  <speed>0.85</speed>
  <fix>3d</fix>
</trkpt>
<trkpt lat="-35.2750454" lon="148.9863708">
  <ele>658.41</ele>
  <time>2026-09-01T19:59:50Z</time>
  <course>347.02</course>
  <speed>1.0295630140987</speed>
  <fix>3d</fix>
</trkpt>
<trkpt lat="-35.2750479" lon="148.986371">
  <ele>658.47</ele>
  <time>2026-09-01T19:59:50Z</time>
  <course>348.94</course>
  <speed>0.85</speed>
  <fix>3d</fix>
</trkpt>
<trkpt lat="-35.2750445" lon="148.9863706">
  <ele>658.42</ele>
  <time>2026-09-01T19:59:50Z</time>
  <course>347.03</course>
  <speed>1.0791200118615167</speed>
  <fix>3d</fix>
</trkpt>
<trkpt lat="-35.2750463" lon="148.9863707">
  <ele>658.49</ele>
  <time>2026-09-01T19:59:50Z</time>
  <course>350.12</course>
  <speed>0.98</speed>
  <fix>3d</fix>
</trkpt>
<trkpt lat="-35.2750435" lon="148.9863704">
  <ele>658.42</ele>
  <time>2026-09-01T19:59:50Z</time>
  <course>347.04</course>
  <speed>1.13</speed>
  <fix>3d</fix>
</trkpt>
<trkpt lat="-35.2750463" lon="148.9863707">
  <ele>658.49</ele>
  <time>2026-09-01T19:59:50Z</time>
  <course>350.12</course>
  <speed>0.98</speed>
  <fix>3d</fix>
</trkpt>
<trkpt lat="-35.2750425" lon="148.9863702">
  <ele>658.43</ele>
  <time>2026-09-01T19:59:50Z</time>
  <course>347.04</course>
  <speed>1.1795761950802501</speed>
  <fix>3d</fix>
</trkpt>
<trkpt lat="-35.2750444" lon="148.9863702">
  <ele>658.51</ele>
  <time>2026-09-01T19:59:50Z</time>
  <course>350.72</course>
  <speed>1.1</speed>
  <fix>3d</fix>
</trkpt>
<trkpt lat="-35.2750414" lon="148.98637">
  <ele>658.43</ele>
  <time>2026-09-01T19:59:50Z</time>
  <course>347.03</course>
  <speed>1.2205326705991937</speed>
  <fix>3d</fix>
</trkpt>
<trkpt lat="-35.2750444" lon="148.9863702">
  <ele>658.51</ele>
  <time>2026-09-01T19:59:50Z</time>
  <course>350.72</course>
  <speed>1.1</speed>
  <fix>3d</fix>
</trkpt>
<trkpt lat="-35.2750403" lon="148.9863698">
  <ele>658.44</ele>
  <time>2026-09-01T19:59:50Z</time>
  <course>347.02</course>
  <speed>1.2515989773086265</speed>
  <fix>3d</fix>
</trkpt>
<trkpt lat="-35.2750424" lon="148.9863699">
  <ele>658.52</ele>
  <time>2026-09-01T19:59:50Z</time>
  <course>350.97</course>
  <speed>1.2</speed>
  <fix>3d</fix>
</trkpt>
<trkpt lat="-35.2750392" lon="148.9863696">
  <ele>658.45</ele>
  <time>2026-09-01T19:59:50Z</time>
  <course>347.02</course>
  <speed>1.291239714383042</speed>
  <fix>3d</fix>
</trkpt>
<trkpt lat="-35.2750424" lon="148.9863699">
  <ele>658.52</ele>
  <time>2026-09-01T19:59:50Z</time>
  <course>350.97</course>
  <speed>1.2</speed>
  <fix>3d</fix>
</trkpt>
<trkpt lat="-35.275038" lon="148.9863693">
  <ele>658.45</ele>
  <time>2026-09-01T19:59:50Z</time>
  <course>347.01</course>
  <speed>1.3124023773218334</speed>
  <fix>3d</fix>
</trkpt>
<trkpt lat="-35.2750402" lon="148.9863695">
  <ele>658.53</ele>
  <time>2026-09-01T19:59:50Z</time>
  <course>350.98</course>
  <speed>1.28</speed>
  <fix>3d</fix>
</trkpt>
<trkpt lat="-35.2750368" lon="148.9863691">
  <ele>658.45</ele>
  <time>2026-09-01T19:59:50Z</time>
  <course>347.01</course>
  <speed>1.333604139165742</speed>
  <fix>3d</fix>
</trkpt>
<trkpt lat="-35.2750402" lon="148.9863695">
  <ele>658.53</ele>
  <time>2026-09-01T19:59:50Z</time>
  <course>350.98</course>
  <speed>1.28</speed>
  <fix>3d</fix>
</trkpt>
<trkpt lat="-35.2750357" lon="148.9863688">
  <ele>658.45</ele>
  <time>2026-09-01T19:59:50Z</time>
  <course>347.0</course>
  <speed>1.354843164355196</speed>
  <fix>3d</fix>
</trkpt>
<trkpt lat="-35.2750379" lon="148.986369">
  <ele>658.54</ele>
  <time>2026-09-01T19:59:50Z</time>
  <course>350.8</course>
  <speed>1.34</speed>
  <fix>3d</fix>
</trkpt>
<trkpt lat="-35.2750344" lon="148.9863686">
  <ele>658.45</ele>
  <time>2026-09-01T19:59:50Z</time>
  <course>346.99</course>
  <speed>1.364734406395618</speed>
  <fix>3d</fix>
</trkpt>
<trkpt lat="-35.2750379" lon="148.986369">
  <ele>658.54</ele>
  <time>2026-09-01T19:59:50Z</time>
  <course>350.8</course>
  <speed>1.34</speed>
  <fix>3d</fix>
</trkpt>
<trkpt lat="-35.2750332" lon="148.9863683">
  <ele>658.45</ele>
  <time>2026-09-01T19:59:50Z</time>
  <course>346.98</course>
  <speed>1.3662357044082838</speed>
  <fix>3d</fix>
</trkpt>
<trkpt lat="-35.2750355" lon="148.9863685">
  <ele>658.55</ele>
  <time>2026-09-01T19:59:50Z</time>
  <course>350.5</course>
  <speed>1.38</speed>
  <fix>3d</fix>
</trkpt>
<trkpt lat="-35.275032" lon="148.9863681">
  <ele>658.45</ele>
  <time>2026-09-01T19:59:50Z</time>
  <course>346.98</course>
  <speed>1.367808466123821</speed>
  <fix>3d</fix>
</trkpt>
<trkpt lat="-35.2750355" lon="148.9863685">
  <ele>658.55</ele>
  <time>2026-09-01T19:59:50Z</time>
  <course>350.5</course>
  <speed>1.38</speed>
  <fix>3d</fix>
</trkpt>
<trkpt lat="-35.2750308" lon="148.9863678">
  <ele>658.45</ele>
  <time>2026-09-01T19:59:50Z</time>
  <course>346.98</course>
  <speed>1.367808466123821</speed>
  <fix>3d</fix>
</trkpt>
<trkpt lat="-35.275033" lon="148.986368">
  <ele>658.55</ele>
  <time>2026-09-01T19:59:50Z</time>
  <course>350.1</course>
  <speed>1.41</speed>
  <fix>3d</fix>
</trkpt>
<trkpt lat="-35.2750296" lon="148.9863675">
  <ele>658.45</ele>
  <time>2026-09-01T19:59:50Z</time>
  <course>346.98</course>
  <speed>1.3595955280891445</speed>
  <fix>3d</fix>
</trkpt>
<trkpt lat="-35.275033" lon="148.986368">
  <ele>658.55</ele>
  <time>2026-09-01T19:59:50Z</time>
  <course>350.1</course>
  <speed>1.41</speed>
  <fix>3d</fix>
</trkpt>
<trkpt lat="-35.2750284" lon="148.9863672">
  <ele>658.45</ele>
  <time>2026-09-01T19:59:50Z</time>
  <course>346.99</course>
  <speed>1.3398880550254935</speed>
  <fix>3d</fix>
</trkpt>
<trkpt lat="-35.2750305" lon="148.9863674">
  <ele>658.55</ele>
  <time>2026-09-01T19:59:50Z</time>
  <course>349.61</course>
  <speed>1.41</speed>
  <fix>3d</fix>
</trkpt>
<trkpt lat="-35.2750272" lon="148.9863669">
  <ele>658.44</ele>
  <time>2026-09-01T19:59:50Z</time>
  <course>346.99</course>
  <speed>1.3219682295728592</speed>
  <fix>3d</fix>
</trkpt>
<trkpt lat="-35.2750305" lon="148.9863674">
  <ele>658.55</ele>
  <time>2026-09-01T19:59:50Z</time>
  <course>349.61</course>
  <speed>1.41</speed>
  <fix>3d</fix>
</trkpt>
<trkpt lat="-35.275026" lon="148.9863666">
  <ele>658.44</ele>
  <time>2026-09-01T19:59:50Z</time>
  <course>346.98</course>
  <speed>1.3023056476879764</speed>
  <fix>3d</fix>
</trkpt>
<trkpt lat="-35.275028" lon="148.9863669">
  <ele>658.54</ele>
  <time>2026-09-01T19:59:50Z</time>
  <course>349.05</course>
  <speed>1.39</speed>
  <fix>3d</fix>
</trkpt>
<trkpt lat="-35.2750249" lon="148.9863663">
  <ele>658.43</ele>
  <time>2026-09-01T19:59:50Z</time>
  <course>346.98</course>
  <speed>1.27283148923964</speed>
  <fix>3d</fix>
</trkpt>
<trkpt lat="-35.275028" lon="148.9863669">
  <ele>658.54</ele>
  <time>2026-09-01T19:59:50Z</time>
  <course>349.05</course>
  <speed>1.39</speed>
  <fix>3d</fix>
</trkpt>
<trkpt lat="-35.2750237" lon="148.986366">
  <ele>658.43</ele>
  <time>2026-09-01T19:59:50Z</time>
  <course>346.97</course>
  <speed>1.235556554755791</speed>
  <fix>3d</fix>
</trkpt>
<trkpt lat="-35.2750256" lon="148.9863662">
  <ele>658.54</ele>
  <time>2026-09-01T19:59:50Z</time>
  <course>348.39</course>
  <speed>1.34</speed>
  <fix>3d</fix>
</trkpt>
<trkpt lat="-35.2750226" lon="148.9863657">
  <ele>658.43</ele>
  <time>2026-09-01T19:59:50Z</time>
  <course>346.96</course>
  <speed>1.1964113005150028</speed>
  <fix>3d</fix>
</trkpt>
<trkpt lat="-35.2750256" lon="148.9863662">
  <ele>658.54</ele>
  <time>2026-09-01T19:59:50Z</time>
  <course>348.39</course>
  <speed>1.34</speed>
  <fix>3d</fix>
</trkpt>
<trkpt lat="-35.2750215" lon="148.9863654">
  <ele>658.43</ele>
  <time>2026-09-01T19:59:50Z</time>
  <course>346.95</course>
  <speed>1.1573245007343447</speed>
  <fix>3d</fix>
</trkpt>
<trkpt lat="-35.2750233" lon="148.9863657">
  <ele>658.53</ele>
  <time>2026-09-01T19:59:50Z</time>
  <course>347.6</course>
  <speed>1.28</speed>
  <fix>3d</fix>
</trkpt>
<trkpt lat="-35.2750205" lon="148.9863651">
  <ele>658.43</ele>
  <time>2026-09-01T19:59:50Z</time>
  <course>346.94</course>
  <speed>1.1183022847155415</speed>
  <fix>3d</fix>
</trkpt>
<trkpt lat="-35.2750233" lon="148.9863657">
  <ele>658.53</ele>
  <time>2026-09-01T19:59:50Z</time>
  <course>347.6</course>
  <speed>1.28</speed>
  <fix>3d</fix>
</trkpt>
<trkpt lat="-35.2750195" lon="148.9863648">
  <ele>658.43</ele>
  <time>2026-09-01T19:59:50Z</time>
  <course>346.93</course>
  <speed>1.0696261028976435</speed>
  <fix>3d</fix>
</trkpt>
<trkpt lat="-35.275021" lon="148.9863651">
  <ele>658.53</ele>
  <time>2026-09-01T19:59:50Z</time>
  <course>346.69</course>
  <speed>1.21</speed>
  <fix>3d</fix>
</trkpt>
<trkpt lat="-35.2750186" lon="148.9863645">
  <ele>658.43</ele>
  <time>2026-09-01T19:59:50Z</time>
  <course>346.91</course>
  <speed>1.0113851887386922</speed>
  <fix>3d</fix>
</trkpt>
<trkpt lat="-35.275021" lon="148.9863651">
  <ele>658.53</ele>
  <time>2026-09-01T19:59:50Z</time>
  <course>346.69</course>
  <speed>1.21</speed>
  <fix>3d</fix>
</trkpt>
<trkpt lat="-35.2750177" lon="148.9863641">
  <ele>658.43</ele>
  <time>2026-09-01T19:59:50Z</time>
  <course>346.9</course>
  <speed>0.9630160954002794</speed>
  <fix>3d</fix>
</trkpt>
<trkpt lat="-35.275019" lon="148.9863644">
  <ele>658.53</ele>
  <time>2026-09-01T19:59:50Z</time>
  <course>345.61</course>
  <speed>1.12</speed>
  <fix>3d</fix>
</trkpt>
<trkpt lat="-35.2750168" lon="148.9863638">
  <ele>658.43</ele>
  <time>2026-09-01T19:59:50Z</time>
  <course>346.89</course>
  <speed>0.9052071586106685</speed>
  <fix>3d</fix>
</trkpt>
<trkpt lat="-35.275019" lon="148.9863644">
  <ele>658.53</ele>
  <time>2026-09-01T19:59:50Z</time>
  <course>345.61</course>
  <speed>1.12</speed>
  <fix>3d</fix>
</trkpt>
<trkpt lat="-35.275016" lon="148.9863635">
  <ele>658.43</ele>
  <time>2026-09-01T19:59:50Z</time>
  <course>346.89</course>
  <speed>0.8448076704197234</speed>
  <fix>3d</fix>
</trkpt>
<trkpt lat="-35.2750171" lon="148.9863639">
  <ele>658.53</ele>
  <time>2026-09-01T19:59:50Z</time>
  <course>344.29</course>
  <speed>1.01</speed>
  <fix>3d</fix>
</trkpt>
<trkpt lat="-35.2750153" lon="148.9863633">
  <ele>658.43</ele>
  <time>2026-09-01T19:59:50Z</time>
  <course>346.89</course>
  <speed>0.7874642849044012</speed>
  <fix>3d</fix>
</trkpt>
<trkpt lat="-35.2750171" lon="148.9863639">
  <ele>658.53</ele>
  <time>2026-09-01T19:59:50Z</time>
  <course>344.29</course>
  <speed>1.01</speed>
  <fix>3d</fix>
</trkpt>
<trkpt lat="-35.2750146" lon="148.986363">
  <ele>658.44</ele>
  <time>2026-09-01T19:59:50Z</time>
  <course>346.89</course>
  <speed>0.7178439941937245</speed>
  <fix>3d</fix>
</trkpt>
<trkpt lat="-35.2750155" lon="148.9863633">
  <ele>658.53</ele>
  <time>2026-09-01T19:59:50Z</time>
  <course>342.62</course>
  <speed>0.89</speed>
  <fix>3d</fix>
</trkpt>
<trkpt lat="-35.275014" lon="148.9863627">
  <ele>658.44</ele>
  <time>2026-09-01T19:59:50Z</time>
  <course>346.9</course>
  <speed>0.6612866246946176</speed>
  <fix>3d</fix>
</trkpt>
<trkpt lat="-35.2750155" lon="148.9863633">
  <ele>658.53</ele>
  <time>2026-09-01T19:59:50Z</time>
  <course>342.62</course>
  <speed>0.89</speed>
  <fix>3d</fix>
</trkpt>
<trkpt lat="-35.2750134" lon="148.9863624">
  <ele>658.44</ele>
  <time>2026-09-01T19:59:50Z</time>
  <course>346.91</course>
  <speed>0.5923681287847955</speed>
  <fix>3d</fix>
</trkpt>
<trkpt lat="-35.2750141" lon="148.9863626">
  <ele>658.53</ele>
  <time>2026-09-01T19:59:50Z</time>
  <course>340.41</course>
  <speed>0.77</speed>
  <fix>3d</fix>
</trkpt>
<trkpt lat="-35.2750129" lon="148.9863621">
  <ele>658.44</ele>
  <time>2026-09-01T19:59:50Z</time>
  <course>346.91</course>
  <speed>0.5280151512977634</speed>
  <fix>3d</fix>
</trkpt>
<trkpt lat="-35.2750141" lon="148.9863626">
  <ele>658.53</ele>
  <time>2026-09-01T19:59:50Z</time>
  <course>340.41</course>
  <speed>0.77</speed>
  <fix>3d</fix>
</trkpt>
<trkpt lat="-35.2750124" lon="148.9863619">
  <ele>658.44</ele>
  <time>2026-09-01T19:59:50Z</time>
  <course>346.91</course>
  <speed>0.4606517122512408</speed>
  <fix>3d</fix>
</trkpt>
<trkpt lat="-35.2750129" lon="148.9863621">
  <ele>658.54</ele>
  <time>2026-09-01T19:59:50Z</time>
  <course>337.36</course>
  <speed>0.64</speed>
  <fix>3d</fix>
</trkpt>
<trkpt lat="-35.275012" lon="148.9863616">
  <ele>658.44</ele>
  <time>2026-09-01T19:59:50Z</time>
  <course>346.91</course>
  <speed>0.40311288741492746</speed>
  <fix>3d</fix>
</trkpt>
<trkpt lat="-35.2750129" lon="148.9863621">
  <ele>658.54</ele>
  <time>2026-09-01T19:59:50Z</time>
  <course>337.36</course>
  <speed>0.64</speed>
  <fix>3d</fix>
</trkpt>
<trkpt lat="-35.2750117" lon="148.9863613">
  <ele>658.45</ele>
  <time>2026-09-01T19:59:50Z</time>
  <course>346.9</course>
  <speed>0.34409301068170506</speed>
  <fix>3d</fix>
</trkpt>
<trkpt lat="-35.275012" lon="148.9863616">
  <ele>658.53</ele>
  <time>2026-09-01T19:59:50Z</time>
  <course>332.91</course>
  <speed>0.51</speed>
  <fix>3d</fix>
</trkpt>
<trkpt lat="-35.2750115" lon="148.9863611">
  <ele>658.45</ele>
  <time>2026-09-01T19:59:50Z</time>
  <course>346.89</course>
  <speed>0.2831960451701259</speed>
  <fix>3d</fix>
</trkpt>
<trkpt lat="-35.275012" lon="148.9863616">
  <ele>658.53</ele>
  <time>2026-09-01T19:59:50Z</time>
  <course>332.91</course>
  <speed>0.51</speed>
  <fix>3d</fix>
</trkpt>
<trkpt lat="-35.2750113" lon="148.9863609">
  <ele>658.45</ele>
  <time>2026-09-01T19:59:50Z</time>
  <course>346.88</course>
  <speed>0.23430749027719963</speed>
  <fix>3d</fix>
</trkpt>
<trkpt lat="-35.2750113" lon="148.9863611">
  <ele>658.53</ele>
  <time>2026-09-01T19:59:50Z</time>
  <course>325.72</course>
  <speed>0.38</speed>
  <fix>3d</fix>
</trkpt>
<trkpt lat="-35.2750111" lon="148.9863607">
  <ele>658.45</ele>
  <time>2026-09-01T19:59:50Z</time>
  <course>346.87</course>
  <speed>0.18788294228055935</speed>
  <fix>3d</fix>
</trkpt>
<trkpt lat="-35.2750113" lon="148.9863611">
  <ele>658.53</ele>
  <time>2026-09-01T19:59:50Z</time>
  <course>325.72</course>
  <speed>0.38</speed>
  <fix>3d</fix>
</trkpt>
<trkpt lat="-35.275011" lon="148.9863604">
  <ele>658.45</ele>
  <time>2026-09-01T19:59:50Z</time>
  <course>346.86</course>
  <speed>0.16124515496597097</speed>
  <fix>3d</fix>
</trkpt>
<trkpt lat="-35.2750108" lon="148.9863606">
  <ele>658.53</ele>
  <time>2026-09-01T19:59:50Z</time>
  <course>312.7</course>
  <speed>0.27</speed>
  <fix>3d</fix>
</trkpt>
<trkpt lat="-35.275011" lon="148.9863603">
  <ele>658.45</ele>
  <time>2026-09-01T19:59:50Z</time>
  <course>346.85</course>
  <speed>0.15297058540778355</speed>
  <fix>3d</fix>
</trkpt>
<trkpt lat="-35.2750108" lon="148.9863606">
  <ele>658.53</ele>
  <time>2026-09-01T19:59:50Z</time>
  <course>312.7</course>
  <speed>0.27</speed>
  <fix>3d</fix>
</trkpt>
<trkpt lat="-35.275011" lon="148.9863601">
  <ele>658.45</ele>
  <time>2026-09-01T19:59:50Z</time>
  <course>346.86</course>
  <speed>0.1664331697709324</speed>
  <fix>3d</fix>
</trkpt>
<trkpt lat="-35.2750106" lon="148.9863601">
  <ele>658.53</ele>
  <time>2026-09-01T19:59:50Z</time>
  <course>287.36</course>
  <speed>0.19</speed>
  <fix>3d</fix>
</trkpt>
<trkpt lat="-35.275011" lon="148.9863599">
  <ele>658.45</ele>
  <time>2026-09-01T19:59:50Z</time>
  <course>346.87</course>
  <speed>0.191049731745428</speed>
  <fix>3d</fix>
</trkpt>
<trkpt lat="-35.2750106" lon="148.9863601">
  <ele>658.53</ele>
  <time>2026-09-01T19:59:50Z</time>
  <course>287.36</course>
  <speed>0.19</speed>
  <fix>3d</fix>
</trkpt>
<trkpt lat="-35.2750111" lon="148.9863597">
  <ele>658.45</ele>
  <time>2026-09-01T19:59:50Z</time>
  <course>346.88</course>
  <speed>0.22472205054244232</speed>
  <fix>3d</fix>
</trkpt>
<trkpt lat="-35.2750106" lon="148.9863598">
  <ele>658.52</ele>
  <time>2026-09-01T19:59:50Z</time>
  <course>249.24</course>
  <speed>0.17</speed>
  <fix>3d</fix>
</trkpt>
<trkpt lat="-35.2750113" lon="148.9863595">
  <ele>658.44</ele>
  <time>2026-09-01T19:59:50Z</time>
  <course>346.89</course>
  <speed>0.2640075756488817</speed>
  <fix>3d</fix>
</trkpt>
<trkpt lat="-35.2750106" lon="148.9863598">
  <ele>658.52</ele>
  <time>2026-09-01T19:59:50Z</time>
  <course>249.24</course>
  <speed>0.17</speed>
  <fix>3d</fix>
</trkpt>
<trkpt lat="-35.2750115" lon="148.9863594">
  <ele>658.44</ele>
  <time>2026-09-01T19:59:50Z</time>
  <course>346.88</course>
  <speed>0.30083217912982646</speed>
  <fix>3d</fix>
</trkpt>
<trkpt lat="-35.2750108" lon="148.9863595">
  <ele>658.52</ele>
  <time>2026-09-01T19:59:50Z</time>
  <course>220.79</course>
  <speed>0.22</speed>
  <fix>3d</fix>
</trkpt>
<trkpt lat="-35.2750117" lon="148.9863593">
  <ele>658.44</ele>
  <time>2026-09-01T19:59:50Z</time>
  <course>346.86</course>
  <speed>0.32572994949804657</speed>
  <fix>3d</fix>
</trkpt>
<trkpt lat="-35.2750108" lon="148.9863595">
  <ele>658.52</ele>
  <time>2026-09-01T19:59:50Z</time>
  <course>220.79</course>
  <speed>0.22</speed>
  <fix>3d</fix>
</trkpt>
<trkpt lat="-35.2750119" lon="148.9863591">
  <ele>658.44</ele>
  <time>2026-09-01T19:59:50Z</time>
  <course>346.83</course>
  <speed>0.35171010790137947</speed>
  <fix>3d</fix>
</trkpt>
<trkpt lat="-35.2750111" lon="148.9863591">
  <ele>658.52</ele>
  <time>2026-09-01T19:59:50Z</time>
  <course>206.28</course>
  <speed>0.28</speed>
  <fix>3d</fix>
</trkpt>
<trkpt lat="-35.2750122" lon="148.986359">
  <ele>658.44</ele>
  <time>2026-09-01T19:59:50Z</time>
  <course>346.79</course>
  <speed>0.378549864614954</speed>
  <fix>3d</fix>
</trkpt>
<trkpt lat="-35.2750111" lon="148.9863591">
  <ele>658.52</ele>
  <time>2026-09-01T19:59:50Z</time>
  <course>206.28</course>
  <speed>0.28</speed>
  <fix>3d</fix>
</trkpt>
<trkpt lat="-35.2750125" lon="148.9863589">
  <ele>658.43</ele>
  <time>2026-09-01T19:59:50Z</time>
  <course>346.75</course>
  <speed>0.396232255123179</speed>
  <fix>3d</fix>
</trkpt>
<trkpt lat="-35.2750116" lon="148.9863589">
  <ele>658.51</ele>
  <time>2026-09-01T19:59:50Z</time>
  <course>198.46</course>
  <speed>0.33</speed>
  <fix>3d</fix>
</trkpt>
<trkpt lat="-35.2750129" lon="148.9863588">
  <ele>658.43</ele>
  <time>2026-09-01T19:59:50Z</time>
  <course>346.71</course>
  <speed>0.4143669871020132</speed>
  <fix>3d</fix>
</trkpt>
<trkpt lat="-35.2750116" lon="148.9863589">
  <ele>658.51</ele>
  <time>2026-09-01T19:59:50Z</time>
  <course>198.46</course>
  <speed>0.33</speed>
  <fix>3d</fix>
</trkpt>
<trkpt lat="-35.2750132" lon="148.9863587">
  <ele>658.43</ele>
  <time>2026-09-01T19:59:50Z</time>
  <course>346.67</course>
  <speed>0.422965719651132</speed>
  <fix>3d</fix>
</trkpt>
<trkpt lat="-35.2750122" lon="148.9863586">
  <ele>658.51</ele>
  <time>2026-09-01T19:59:50Z</time>
  <course>193.58</course>
  <speed>0.38</speed>
  <fix>3d</fix>
</trkpt>
<trkpt lat="-35.2750136" lon="148.9863586">
  <ele>658.43</ele>
  <time>2026-09-01T19:59:50Z</time>
  <course>346.63</course>
  <speed>0.4428317965096906</speed>
  <fix>3d</fix>
</trkpt>
<trkpt lat="-35.2750122" lon="148.9863586">
  <ele>658.51</ele>
  <time>2026-09-01T19:59:50Z</time>
  <course>193.58</course>
  <speed>0.38</speed>
  <fix>3d</fix>
</trkpt>
<trkpt lat="-35.2750139" lon="148.9863586">
  <ele>658.43</ele>
  <time>2026-09-01T19:59:50Z</time>
  <course>346.61</course>
  <speed>0.45177427992306074</speed>
  <fix>3d</fix>
</trkpt>
<trkpt lat="-35.2750129" lon="148.9863585">
  <ele>658.51</ele>
  <time>2026-09-01T19:59:50Z</time>
  <course>190.15</course>
  <speed>0.41</speed>
  <fix>3d</fix>
</trkpt>
<trkpt lat="-35.2750143" lon="148.9863585">
  <ele>658.43</ele>
  <time>2026-09-01T19:59:50Z</time>
  <course>346.59</course>
  <speed>0.4509988913511872</speed>
  <fix>3d</fix>
</trkpt>
<trkpt lat="-35.2750129" lon="148.9863585">
  <ele>658.51</ele>
  <time>2026-09-01T19:59:50Z</time>
  <course>190.15</course>
  <speed>0.41</speed>
  <fix>3d</fix>
</trkpt>
<trkpt lat="-35.2750147" lon="148.9863584">
  <ele>658.43</ele>
  <time>2026-09-01T19:59:50Z</time>
  <course>346.57</course>
  <speed>0.4604345773288535</speed>
  <fix>3d</fix>
</trkpt>
<trkpt lat="-35.2750137" lon="148.9863584">
  <ele>658.51</ele>
  <time>2026-09-01T19:59:50Z</time>
  <course>187.53</course>
  <speed>0.43</speed>
  <fix>3d</fix>
</trkpt>
<trkpt lat="-35.2750151" lon="148.9863584">
  <ele>658.42</ele>
  <time>2026-09-01T19:59:50Z</time>
  <course>346.56</course>
  <speed>0.46010868281309364</speed>
  <fix>3d</fix>
</trkpt>
<trkpt lat="-35.2750137" lon="148.9863584">
  <ele>658.51</ele>
  <time>2026-09-01T19:59:50Z</time>
  <course>187.53</course>
  <speed>0.43</speed>
  <fix>3d</fix>
</trkpt>
<trkpt lat="-35.2750154" lon="148.9863584">
  <ele>658.42</ele>
  <time>2026-09-01T19:59:50Z</time>
  <course>346.55</course>
  <speed>0.46010868281309364</speed>
  <fix>3d</fix>
</trkpt>
<trkpt lat="-35.2750145" lon="148.9863583">
  <ele>658.51</ele>
  <time>2026-09-01T19:59:50Z</time>
  <course>185.31</course>
  <speed>0.44</speed>
  <fix>3d</fix>
</trkpt>
<trkpt lat="-35.2750158" lon="148.9863584">
  <ele>658.42</ele>
  <time>2026-09-01T19:59:50Z</time>
  <course>346.55</course>
  <speed>0.45</speed>
  <fix>3d</fix>
</trkpt>
<trkpt lat="-35.2750145" lon="148.9863583">
  <ele>658.51</ele>
  <time>2026-09-01T19:59:50Z</time>
  <course>185.31</course>
  <speed>0.44</speed>
  <fix>3d</fix>
</trkpt>
<trkpt lat="-35.2750162" lon="148.9863583">
  <ele>658.42</ele>
  <time>2026-09-01T19:59:50Z</time>
  <course>346.56</course>
  <speed>0.45</speed>
  <fix>3d</fix>
</trkpt>
<trkpt lat="-35.2750152" lon="148.9863582">
  <ele>658.51</ele>
  <time>2026-09-01T19:59:50Z</time>
  <course>183.33</course>
  <speed>0.45</speed>
  <fix>3d</fix>
</trkpt>
<trkpt lat="-35.2750166" lon="148.9863583">
  <ele>658.42</ele>
  <time>2026-09-01T19:59:50Z</time>
  <course>346.58</course>
  <speed>0.44011362169330775</speed>
  <fix>3d</fix>
</trkpt>
<trkpt lat="-35.2750152" lon="148.9863582">
  <ele>658.51</ele>
  <time>2026-09-01T19:59:50Z</time>
  <course>183.33</course>
  <speed>0.45</speed>
  <fix>3d</fix>
</trkpt>
<trkpt lat="-35.275017" lon="148.9863583">
  <ele>658.42</ele>
  <time>2026-09-01T19:59:50Z</time>
  <course>346.59</course>
  <speed>0.44011362169330775</speed>
  <fix>3d</fix>
</trkpt>
<trkpt lat="-35.2750161" lon="148.9863581">
  <ele>658.52</ele>
  <time>2026-09-01T19:59:50Z</time>
  <course>181.48</course>
  <speed>0.44</speed>
  <fix>3d</fix>
</trkpt>
<trkpt lat="-35.2750173" lon="148.9863583">
  <ele>658.43</ele>
  <time>2026-09-01T19:59:50Z</time>
  <course>346.61</course>
  <speed>0.4304648650006177</speed>
  <fix>3d</fix>
</trkpt>
<trkpt lat="-35.2750161" lon="148.9863581">
  <ele>658.52</ele>
  <time>2026-09-01T19:59:50Z</time>
  <course>181.48</course>
  <speed>0.44</speed>
  <fix>3d</fix>
</trkpt>
<trkpt lat="-35.2750177" lon="148.9863583">
  <ele>658.43</ele>
  <time>2026-09-01T19:59:50Z</time>
  <course>346.63</course>
  <speed>0.42107006542854597</speed>
  <fix>3d</fix>
</trkpt>
<trkpt lat="-35.2750169" lon="148.9863581">
  <ele>658.52</ele>
  <time>2026-09-01T19:59:50Z</time>
  <course>179.68</course>
  <speed>0.43</speed>
  <fix>3d</fix>
</trkpt>
<trkpt lat="-35.2750181" lon="148.9863584">
  <ele>658.43</ele>
  <time>2026-09-01T19:59:50Z</time>
  <course>346.65</course>
  <speed>0.41109609582188933</speed>
  <fix>3d</fix>
</trkpt>
<trkpt lat="-35.2750169" lon="148.9863581">
  <ele>658.52</ele>
  <time>2026-09-01T19:59:50Z</time>
  <course>179.68</course>
  <speed>0.43</speed>
  <fix>3d</fix>
</trkpt>
<trkpt lat="-35.2750184" lon="148.9863584">
  <ele>658.43</ele>
  <time>2026-09-01T19:59:50Z</time>
  <course>346.68</course>
  <speed>0.4019950248448356</speed>
  <fix>3d</fix>
</trkpt>
<trkpt lat="-35.2750177" lon="148.9863581">
  <ele>658.52</ele>
  <time>2026-09-01T19:59:50Z</time>
  <course>177.96</course>
  <speed>0.42</speed>
  <fix>3d</fix>
</trkpt>
<trkpt lat="-35.2750188" lon="148.9863584">
  <ele>658.43</ele>
  <time>2026-09-01T19:59:50Z</time>
  <course>346.69</course>
  <speed>0.3920459156782532</speed>
  <fix>3d</fix>
</trkpt>
<trkpt lat="-35.2750177" lon="148.9863581">
  <ele>658.52</ele>
  <time>2026-09-01T19:59:50Z</time>
  <course>177.96</course>
  <speed>0.42</speed>
  <fix>3d</fix>
</trkpt>
<trkpt lat="-35.2750191" lon="148.9863584">
  <ele>658.43</ele>
  <time>2026-09-01T19:59:50Z</time>
  <course>346.69</course>
  <speed>0.383275357934736</speed>
  <fix>3d</fix>
</trkpt>
<trkpt lat="-35.2750184" lon="148.9863582">
  <ele>658.53</ele>
  <time>2026-09-01T19:59:50Z</time>
  <course>176.34</course>
  <speed>0.4</speed>
  <fix>3d</fix>
</trkpt>
<trkpt lat="-35.2750194" lon="148.9863584">
  <ele>658.43</ele>
  <time>2026-09-01T19:59:50Z</time>
  <course>346.69</course>
  <speed>0.3634556369077249</speed>
  <fix>3d</fix>
</trkpt>
<trkpt lat="-35.2750184" lon="148.9863582">
  <ele>658.53</ele>
  <time>2026-09-01T19:59:50Z</time>
  <course>176.34</course>
  <speed>0.4</speed>
  <fix>3d</fix>
</trkpt>
<trkpt lat="-35.2750198" lon="148.9863584">
  <ele>658.44</ele>
  <time>2026-09-01T19:59:50Z</time>
  <course>346.69</course>
  <speed>0.3535533905932738</speed>
  <fix>3d</fix>
</trkpt>
<trkpt lat="-35.2750191" lon="148.9863583">
  <ele>658.53</ele>
  <time>2026-09-01T19:59:50Z</time>
  <course>174.67</course>
  <speed>0.37</speed>
  <fix>3d</fix>
</trkpt>
<trkpt lat="-35.2750201" lon="148.9863585">
  <ele>658.44</ele>
  <time>2026-09-01T19:59:50Z</time>
  <course>346.7</course>
  <speed>0.34525353003264136</speed>
  <fix>3d</fix>
</trkpt>
<trkpt lat="-35.2750191" lon="148.9863583">
  <ele>658.53</ele>
  <time>2026-09-01T19:59:50Z</time>
  <course>174.67</course>
  <speed>0.37</speed>
  <fix>3d</fix>
</trkpt>
<trkpt lat="-35.2750203" lon="148.9863585">
  <ele>658.44</ele>
  <time>2026-09-01T19:59:50Z</time>
  <course>346.71</course>
  <speed>0.3255764119219941</speed>
  <fix>3d</fix>
</trkpt>
<trkpt lat="-35.2750197" lon="148.9863583">
  <ele>658.53</ele>
  <time>2026-09-01T19:59:50Z</time>
  <course>172.85</course>
  <speed>0.35</speed>
  <fix>3d</fix>
</trkpt>
<trkpt lat="-35.2750206" lon="148.9863586">
  <ele>658.44</ele>
  <time>2026-09-01T19:59:50Z</time>
  <course>346.73</course>
  <speed>0.3080584360149873</speed>
  <fix>3d</fix>
</trkpt>
<trkpt lat="-35.2750197" lon="148.9863583">
  <ele>658.53</ele>
  <time>2026-09-01T19:59:50Z</time>
  <course>172.85</course>
  <speed>0.35</speed>
  <fix>3d</fix>
</trkpt>
<trkpt lat="-35.2750209" lon="148.9863587">
  <ele>658.43</ele>
  <time>2026-09-01T19:59:50Z</time>
  <course>346.75</course>
  <speed>0.29832867780352595</speed>
  <fix>3d</fix>
</trkpt>
<trkpt lat="-35.2750204" lon="148.9863584">
  <ele>658.53</ele>
  <time>2026-09-01T19:59:50Z</time>
  <course>170.96</course>
  <speed>0.32</speed>
  <fix>3d</fix>
</trkpt>
<trkpt lat="-35.2750211" lon="148.9863587">
  <ele>658.43</ele>
  <time>2026-09-01T19:59:50Z</time>
  <course>346.77</course>
  <speed>0.27892651361962706</speed>
  <fix>3d</fix>
</trkpt>
<trkpt lat="-35.2750204" lon="148.9863584">
  <ele>658.53</ele>
  <time>2026-09-01T19:59:50Z</time>
  <course>170.96</course>
  <speed>0.32</speed>
  <fix>3d</fix>
</trkpt>
<trkpt lat="-35.2750214" lon="148.9863588">
  <ele>658.44</ele>
  <time>2026-09-01T19:59:50Z</time>
  <course>346.79</course>
  <speed>0.2692582403567252</speed>
  <fix>3d</fix>
</trkpt>
<trkpt lat="-35.2750209" lon="148.9863585">
  <ele>658.53</ele>
  <time>2026-09-01T19:59:50Z</time>
  <course>169.1</course>
  <speed>0.29</speed>
  <fix>3d</fix>
</trkpt>
<trkpt lat="-35.2750216" lon="148.9863588">
  <ele>658.44</ele>
  <time>2026-09-01T19:59:50Z</time>
  <course>346.82</course>
  <speed>0.25</speed>
  <fix>3d</fix>
</trkpt>
<trkpt lat="-35.2750209" lon="148.9863585">
  <ele>658.53</ele>
  <time>2026-09-01T19:59:50Z</time>
  <course>169.1</course>
  <speed>0.29</speed>
  <fix>3d</fix>
</trkpt>
<trkpt lat="-35.2750218" lon="148.9863589">
  <ele>658.44</ele>
  <time>2026-09-01T19:59:50Z</time>
  <course>346.87</course>
  <speed>0.24041630560342614</speed>
  <fix>3d</fix>
</trkpt>
<trkpt lat="-35.2750214" lon="148.9863586">
  <ele>658.53</ele>
  <time>2026-09-01T19:59:50Z</time>
  <course>167.29</course>
  <speed>0.26</speed>
  <fix>3d</fix>
</trkpt>
<trkpt lat="-35.275022" lon="148.986359">
  <ele>658.44</ele>
  <time>2026-09-01T19:59:50Z</time>
  <course>346.93</course>
  <speed>0.22135943621178655</speed>
  <fix>3d</fix>
</trkpt>
<trkpt lat="-35.2750214" lon="148.9863586">
  <ele>658.53</ele>
  <time>2026-09-01T19:59:50Z</time>
  <course>167.29</course>
  <speed>0.26</speed>
  <fix>3d</fix>
</trkpt>
<trkpt lat="-35.2750222" lon="148.986359">
  <ele>658.44</ele>
  <time>2026-09-01T19:59:50Z</time>
  <course>346.99</course>
  <speed>0.21189620100417092</speed>
  <fix>3d</fix>
</trkpt>
<trkpt lat="-35.2750219" lon="148.9863587">
  <ele>658.53</ele>
  <time>2026-09-01T19:59:50Z</time>
  <course>165.81</course>
  <speed>0.23</speed>
  <fix>3d</fix>
</trkpt>
<trkpt lat="-35.2750224" lon="148.9863591">
  <ele>658.44</ele>
  <time>2026-09-01T19:59:50Z</time>
  <course>347.04</course>
  <speed>0.18973665961010278</speed>
  <fix>3d</fix>
</trkpt>
<trkpt lat="-35.2750219" lon="148.9863587">
  <ele>658.53</ele>
  <time>2026-09-01T19:59:50Z</time>
  <course>165.81</course>
  <speed>0.23</speed>
  <fix>3d</fix>
</trkpt>
<trkpt lat="-35.2750225" lon="148.9863591">
  <ele>658.44</ele>
  <time>2026-09-01T19:59:50Z</time>
  <course>347.07</course>
  <speed>0.18027756377319945</speed>
  <fix>3d</fix>
</trkpt>
<trkpt lat="-35.2750222" lon="148.9863589">
  <ele>658.53</ele>
  <time>2026-09-01T19:59:50Z</time>
  <course>164.43</course>
  <speed>0.2</speed>
  <fix>3d</fix>
</trkpt>
<trkpt lat="-35.2750227" lon="148.9863592">
  <ele>658.43</ele>
  <time>2026-09-01T19:59:50Z</time>
  <course>347.09</course>
  <speed>0.1615549442140351</speed>
  <fix>3d</fix>
</trkpt>
<trkpt lat="-35.2750222" lon="148.9863589">
  <ele>658.53</ele>
  <time>2026-09-01T19:59:50Z</time>
  <course>164.43</course>
  <speed>0.2</speed>
  <fix>3d</fix>
</trkpt>
<trkpt lat="-35.2750228" lon="148.9863592">
  <ele>658.43</ele>
  <time>2026-09-01T19:59:50Z</time>
  <course>347.08</course>
  <speed>0.15231546211727817</speed>
  <fix>3d</fix>
</trkpt>
<trkpt lat="-35.2750226" lon="148.986359">
  <ele>658.53</ele>
  <time>2026-09-01T19:59:50Z</time>
  <course>162.48</course>
  <speed>0.17</speed>
  <fix>3d</fix>
</trkpt>
<trkpt lat="-35.2750229" lon="148.9863593">
  <ele>658.43</ele>
  <time>2026-09-01T19:59:50Z</time>
  <course>347.06</course>
  <speed>0.1341640786499874</speed>
  <fix>3d</fix>
</trkpt>
<trkpt lat="-35.2750226" lon="148.986359">
  <ele>658.53</ele>
  <time>2026-09-01T19:59:50Z</time>
  <course>162.48</course>
  <speed>0.17</speed>
  <fix>3d</fix>
</trkpt>
<trkpt lat="-35.275023" lon="148.9863593">
  <ele>658.44</ele>
  <time>2026-09-01T19:59:50Z</time>
  <course>347.02</course>
  <speed>0.12529964086141668</speed>
  <fix>3d</fix>
</trkpt>
<trkpt lat="-35.2750228" lon="148.9863591">
  <ele>658.53</ele>
  <time>2026-09-01T19:59:50Z</time>
  <course>159.83</course>
  <speed>0.14</speed>
  <fix>3d</fix>
</trkpt>
<trkpt lat="-35.2750231" lon="148.9863594">
  <ele>658.44</ele>
  <time>2026-09-01T19:59:50Z</time>
  <course>346.98</course>
  <speed>0.10295630140987001</speed>
  <fix>3d</fix>
</trkpt>
<trkpt lat="-35.2750228" lon="148.9863591">
  <ele>658.53</ele>
  <time>2026-09-01T19:59:50Z</time>
  <course>159.83</course>
  <speed>0.14</speed>
  <fix>3d</fix>
</trkpt>
<trkpt lat="-35.2750232" lon="148.9863594">
  <ele>658.44</ele>
  <time>2026-09-01T19:59:50Z</time>
  <course>346.94</course>
  <speed>0.09433981132056603</speed>
  <fix>3d</fix>
</trkpt>
<trkpt lat="-35.2750231" lon="148.9863592">
  <ele>658.53</ele>
  <time>2026-09-01T19:59:50Z</time>
  <course>156.0</course>
  <speed>0.11</speed>
  <fix>3d</fix>
</trkpt>
<trkpt lat="-35.2750233" lon="148.9863595">
  <ele>658.44</ele>
  <time>2026-09-01T19:59:50Z</time>
  <course>346.91</course>
  <speed>0.07810249675906654</speed>
  <fix>3d</fix>
</trkpt>
<trkpt lat="-35.2750231" lon="148.9863592">
  <ele>658.53</ele>
  <time>2026-09-01T19:59:50Z</time>
  <course>156.0</course>
  <speed>0.11</speed>
  <fix>3d</fix>
</trkpt>
<trkpt lat="-35.2750233" lon="148.9863595">
  <ele>658.44</ele>
  <time>2026-09-01T19:59:50Z</time>
  <course>346.89</course>
  <speed>0.07071067811865475</speed>
  <fix>3d</fix>
</trkpt>
<trkpt lat="-35.2750232" lon="148.9863593">
  <ele>658.53</ele>
  <time>2026-09-01T19:59:50Z</time>
  <course>149.89</course>
  <speed>0.08</speed>
  <fix>3d</fix>
</trkpt>
<trkpt lat="-35.2750233" lon="148.9863595">
  <ele>658.43</ele>
  <time>2026-09-01T19:59:50Z</time>
  <course>346.88</course>
  <speed>0.05830951894845301</speed>
  <fix>3d</fix>
</trkpt>
<trkpt lat="-35.2750232" lon="148.9863593">
  <ele>658.53</ele>
  <time>2026-09-01T19:59:50Z</time>
  <course>149.89</course>
  <speed>0.08</speed>
  <fix>3d</fix>
</trkpt>
<trkpt lat="-35.2750234" lon="148.9863596">
  <ele>658.43</ele>
  <time>2026-09-01T19:59:50Z</time>
  <course>346.87</course>
  <speed>0.044721359549995794</speed>
  <fix>3d</fix>
</trkpt>
<trkpt lat="-35.2750233" lon="148.9863594">
  <ele>658.53</ele>
  <time>2026-09-01T19:59:50Z</time>
  <course>138.65</course>
  <speed>0.06</speed>
  <fix>3d</fix>
</trkpt>
<trkpt lat="-35.2750234" lon="148.9863596">
  <ele>658.43</ele>
  <time>2026-09-01T19:59:50Z</time>
  <course>346.88</course>
  <speed>0.04</speed>
  <fix>3d</fix>
</trkpt>
<trkpt lat="-35.2750233" lon="148.9863594">
  <ele>658.53</ele>
  <time>2026-09-01T19:59:50Z</time>
  <course>138.65</course>
  <speed>0.06</speed>
  <fix>3d</fix>
</trkpt>
<trkpt lat="-35.2750234" lon="148.9863596">
  <ele>658.43</ele>
  <time>2026-09-01T19:59:50Z</time>
  <course>346.91</course>
  <speed>0.04</speed>
  <fix>3d</fix>
</trkpt>
<trkpt lat="-35.2750233" lon="148.9863595">
  <ele>658.53</ele>
  <time>2026-09-01T19:59:50Z</time>
  <course>113.11</course>
  <speed>0.03</speed>
  <fix>3d</fix>
</trkpt>
<trkpt lat="-35.2750233" lon="148.9863597">
  <ele>658.43</ele>
  <time>2026-09-01T19:59:50Z</time>
  <course>346.92</course>
  <speed>0.03605551275463989</speed>
  <fix>3d</fix>
</trkpt>
<trkpt lat="-35.2750233" lon="148.9863595">
  <ele>658.53</ele>
  <time>2026-09-01T19:59:50Z</time>
  <course>113.11</course>
  <speed>0.03</speed>
  <fix>3d</fix>
</trkpt>
<trkpt lat="-35.2750233" lon="148.9863597">
  <ele>658.43</ele>
  <time>2026-09-01T19:59:50Z</time>
  <course>346.93</course>
  <speed>0.04242640687119285</speed>
  <fix>3d</fix>
</trkpt>
<trkpt lat="-35.2750233" lon="148.9863595">
  <ele>658.53</ele>
  <time>2026-09-01T19:59:50Z</time>
  <course>64.54</course>
  <speed>0.03</speed>
  <fix>3d</fix>
</trkpt>
<trkpt lat="-35.2750233" lon="148.9863597">
  <ele>658.43</ele>
  <time>2026-09-01T19:59:50Z</time>
  <course>346.93</course>
  <speed>0.05830951894845301</speed>
  <fix>3d</fix>
</trkpt>
<trkpt lat="-35.2750233" lon="148.9863595">
  <ele>658.53</ele>
  <time>2026-09-01T19:59:50Z</time>
  <course>64.54</course>
  <speed>0.03</speed>
  <fix>3d</fix>
</trkpt>
<trkpt lat="-35.2750233" lon="148.9863597">
  <ele>658.43</ele>
  <time>2026-09-01T19:59:50Z</time>
  <course>346.93</course>
  <speed>0.0670820393249937</speed>
  <fix>3d</fix>
</trkpt>
<trkpt lat="-35.2750233" lon="148.9863596">
  <ele>658.53</ele>
  <time>2026-09-01T19:59:50Z</time>
  <course>31.14</course>
  <speed>0.04</speed>
  <fix>3d</fix>
</trkpt>
<trkpt lat="-35.2750232" lon="148.9863598">
  <ele>658.43</ele>
  <time>2026-09-01T19:59:50Z</time>
  <course>346.93</course>
  <speed>0.07280109889280519</speed>
  <fix>3d</fix>
</trkpt>
<trkpt lat="-35.2750233" lon="148.9863596">
  <ele>658.53</ele>
  <time>2026-09-01T19:59:50Z</time>
  <course>31.14</course>
  <speed>0.04</speed>
  <fix>3d</fix>
</trkpt>
<trkpt lat="-35.2750232" lon="148.9863598">
  <ele>658.43</ele>
  <time>2026-09-01T19:59:50Z</time>
  <course>346.92</course>
  <speed>0.0824621125123532</speed>
  <fix>3d</fix>
</trkpt>
<trkpt lat="-35.2750233" lon="148.9863596">
  <ele>658.53</ele>
  <time>2026-09-01T19:59:50Z</time>
  <course>16.34</course>
  <speed>0.07</speed>
  <fix>3d</fix>
</trkpt>
<trkpt lat="-35.2750231" lon="148.9863598">
  <ele>658.43</ele>
  <time>2026-09-01T19:59:50Z</time>
  <course>346.92</course>
  <speed>0.09219544457292887</speed>
  <fix>3d</fix>
</trkpt>
<trkpt lat="-35.2750233" lon="148.9863596">
  <ele>658.53</ele>
  <time>2026-09-01T19:59:50Z</time>
  <course>16.34</course>
  <speed>0.07</speed>
  <fix>3d</fix>
</trkpt>
<trkpt lat="-35.275023" lon="148.9863598">
  <ele>658.43</ele>
  <time>2026-09-01T19:59:51Z</time>
  <course>346.91</course>
  <speed>0.1004987562112089</speed>
  <fix>3d</fix>
</trkpt>
<trkpt lat="-35.2750232" lon="148.9863597">
  <ele>658.53</ele>
  <time>2026-09-01T19:59:51Z</time>
  <course>9.05</course>
  <speed>0.09</speed>
  <fix>3d</fix>
</trkpt>
<trkpt lat="-35.2750229" lon="148.9863598">
  <ele>658.43</ele>
  <time>2026-09-01T19:59:51Z</time>
  <course>346.91</course>
  <speed>0.11045361017187261</speed>
  <fix>3d</fix>
</trkpt>
<trkpt lat="-35.2750232" lon="148.9863597">
  <ele>658.53</ele>
  <time>2026-09-01T19:59:51Z</time>
  <course>9.05</course>
  <speed>0.09</speed>
  <fix>3d</fix>
</trkpt>
<trkpt lat="-35.2750228" lon="148.9863598">
  <ele>658.44</ele>
  <time>2026-09-01T19:59:51Z</time>
  <course>346.9</course>
  <speed>0.12041594578792296</speed>
  <fix>3d</fix>
</trkpt>
<trkpt lat="-35.2750231" lon="148.9863598">
  <ele>658.53</ele>
  <time>2026-09-01T19:59:51Z</time>
  <course>5.34</course>
  <speed>0.11</speed>
  <fix>3d</fix>
</trkpt>
<trkpt lat="-35.2750227" lon="148.9863598">
  <ele>658.44</ele>
  <time>2026-09-01T19:59:51Z</time>
  <course>346.9</course>
  <speed>0.12041594578792296</speed>
  <fix>3d</fix>
</trkpt>
<trkpt lat="-35.2750231" lon="148.9863598">
  <ele>658.53</ele>
  <time>2026-09-01T19:59:51Z</time>
  <course>5.34</course>
  <speed>0.11</speed>
  <fix>3d</fix>
</trkpt>
<trkpt lat="-35.2750226" lon="148.9863598">
  <ele>658.44</ele>
  <time>2026-09-01T19:59:51Z</time>
  <course>346.9</course>
  <speed>0.130384048104053</speed>
  <fix>3d</fix>
</trkpt>
<trkpt lat="-35.2750228" lon="148.9863598">
  <ele>658.53</ele>
  <time>2026-09-01T19:59:51Z</time>
  <course>3.16</course>
  <speed>0.12</speed>
  <fix>3d</fix>
</trkpt>
<trkpt lat="-35.2750225" lon="148.9863598">
  <ele>658.44</ele>
  <time>2026-09-01T19:59:51Z</time>
  <course>346.9</course>
  <speed>0.13</speed>
  <fix>3d</fix>
</trkpt>
<trkpt lat="-35.2750228" lon="148.9863598">
  <ele>658.53</ele>
  <time>2026-09-01T19:59:51Z</time>
  <course>3.16</course>
  <speed>0.12</speed>
  <fix>3d</fix>
</trkpt>
<trkpt lat="-35.2750223" lon="148.9863598">
  <ele>658.44</ele>
  <time>2026-09-01T19:59:51Z</time>
  <course>346.9</course>
  <speed>0.14</speed>
  <fix>3d</fix>
</trkpt>
<trkpt lat="-35.2750226" lon="148.9863598">
  <ele>658.54</ele>
  <time>2026-09-01T19:59:51Z</time>
  <course>1.39</course>
  <speed>0.14</speed>
  <fix>3d</fix>
</trkpt>
<trkpt lat="-35.2750222" lon="148.9863598">
  <ele>658.44</ele>
  <time>2026-09-01T19:59:51Z</time>
  <course>346.9</course>
  <speed>0.14</speed>
  <fix>3d</fix>
</trkpt>
<trkpt lat="-35.2750226" lon="148.9863598">
  <ele>658.54</ele>
  <time>2026-09-01T19:59:51Z</time>
  <course>1.39</course>
  <speed>0.14</speed>
  <fix>3d</fix>
</trkpt>
<trkpt lat="-35.2750221" lon="148.9863598">
  <ele>658.44</ele>
  <time>2026-09-01T19:59:51Z</time>
  <course>346.9</course>
  <speed>0.15</speed>
  <fix>3d</fix>
</trkpt>
<trkpt lat="-35.2750223" lon="148.9863598">
  <ele>658.54</ele>
  <time>2026-09-01T19:59:51Z</time>
  <course>359.8</course>
  <speed>0.15</speed>
  <fix>3d</fix>
</trkpt>
<trkpt lat="-35.2750219" lon="148.9863598">
  <ele>658.43</ele>
  <time>2026-09-01T19:59:51Z</time>
  <course>346.9</course>
  <speed>0.15</speed>
  <fix>3d</fix>
</trkpt>
<trkpt lat="-35.2750223" lon="148.9863598">
  <ele>658.54</ele>
  <time>2026-09-01T19:59:51Z</time>
  <course>359.8</course>
  <speed>0.15</speed>
  <fix>3d</fix>
</trkpt>
<trkpt lat="-35.2750218" lon="148.9863598">
  <ele>658.43</ele>
  <time>2026-09-01T19:59:51Z</time>
  <course>346.9</course>
  <speed>0.15</speed>
  <fix>3d</fix>
</trkpt>
<trkpt lat="-35.275022" lon="148.9863598">
  <ele>658.54</ele>
  <time>2026-09-01T19:59:51Z</time>
  <course>358.42</course>
  <speed>0.16</speed>
  <fix>3d</fix>
</trkpt>
<trkpt lat="-35.2750217" lon="148.9863598">
  <ele>658.43</ele>
  <time>2026-09-01T19:59:51Z</time>
  <course>346.9</course>
  <speed>0.15</speed>
  <fix>3d</fix>
</trkpt>
<trkpt lat="-35.275022" lon="148.9863598">
  <ele>658.54</ele>
  <time>2026-09-01T19:59:51Z</time>
  <course>358.42</course>
  <speed>0.16</speed>
  <fix>3d</fix>
</trkpt>
<trkpt lat="-35.2750215" lon="148.9863598">
  <ele>658.43</ele>
  <time>2026-09-01T19:59:51Z</time>
  <course>346.9</course>
  <speed>0.15</speed>
  <fix>3d</fix>
</trkpt>
<trkpt lat="-35.2750217" lon="148.9863598">
  <ele>658.54</ele>
  <time>2026-09-01T19:59:51Z</time>
  <course>357.24</course>
  <speed>0.16</speed>
  <fix>3d</fix>
</trkpt>
<trkpt lat="-35.2750214" lon="148.9863598">
  <ele>658.43</ele>
  <time>2026-09-01T19:59:51Z</time>
  <course>346.9</course>
  <speed>0.15</speed>
  <fix>3d</fix>
</trkpt>
<trkpt lat="-35.2750217" lon="148.9863598">
  <ele>658.54</ele>
  <time>2026-09-01T19:59:51Z</time>
  <course>357.24</course>
  <speed>0.16</speed>
  <fix>3d</fix>
</trkpt>
<trkpt lat="-35.2750212" lon="148.9863598">
  <ele>658.43</ele>
  <time>2026-09-01T19:59:51Z</time>
  <course>346.9</course>
  <speed>0.15</speed>
  <fix>3d</fix>
</trkpt>
<trkpt lat="-35.2750214" lon="148.9863598">
  <ele>658.54</ele>
  <time>2026-09-01T19:59:51Z</time>
  <course>356.14</course>
  <speed>0.16</speed>
  <fix>3d</fix>
</trkpt>
<trkpt lat="-35.2750211" lon="148.9863598">
  <ele>658.43</ele>
  <time>2026-09-01T19:59:51Z</time>
  <course>346.89</course>
  <speed>0.15</speed>
  <fix>3d</fix>
</trkpt>
<trkpt lat="-35.2750214" lon="148.9863598">
  <ele>658.54</ele>
  <time>2026-09-01T19:59:51Z</time>
  <course>356.14</course>
  <speed>0.16</speed>
  <fix>3d</fix>
</trkpt>
<trkpt lat="-35.2750209" lon="148.9863598">
  <ele>658.43</ele>
  <time>2026-09-01T19:59:51Z</time>
  <course>346.89</course>
  <speed>0.140356688476182</speed>
  <fix>3d</fix>
</trkpt>
<trkpt lat="-35.2750211" lon="148.9863598">
  <ele>658.54</ele>
  <time>2026-09-01T19:59:51Z</time>
  <course>355.11</course>
  <speed>0.16</speed>
  <fix>3d</fix>
</trkpt>
<trkpt lat="-35.2750208" lon="148.9863598">
  <ele>658.43</ele>
  <time>2026-09-01T19:59:51Z</time>
  <course>346.88</course>
  <speed>0.140356688476182</speed>
  <fix>3d</fix>
</trkpt>
<trkpt lat="-35.2750211" lon="148.9863598">
  <ele>658.54</ele>
  <time>2026-09-01T19:59:51Z</time>
  <course>355.11</course>
  <speed>0.16</speed>
  <fix>3d</fix>
</trkpt>
<trkpt lat="-35.2750207" lon="148.9863598">
  <ele>658.43</ele>
  <time>2026-09-01T19:59:51Z</time>
  <course>346.88</course>
  <speed>0.140356688476182</speed>
  <fix>3d</fix>
</trkpt>
<trkpt lat="-35.2750208" lon="148.9863598">
  <ele>658.54</ele>
  <time>2026-09-01T19:59:51Z</time>
  <course>354.16</course>
  <speed>0.15</speed>
  <fix>3d</fix>
</trkpt>
<trkpt lat="-35.2750205" lon="148.9863598">
  <ele>658.43</ele>
  <time>2026-09-01T19:59:51Z</time>
  <course>346.88</course>
  <speed>0.130384048104053</speed>
  <fix>3d</fix>
</trkpt>
<trkpt lat="-35.2750208" lon="148.9863598">
  <ele>658.54</ele>
  <time>2026-09-01T19:59:51Z</time>
  <course>354.16</course>
  <speed>0.15</speed>
  <fix>3d</fix>
</trkpt>
<trkpt lat="-35.2750204" lon="148.9863598">
  <ele>658.43</ele>
  <time>2026-09-01T19:59:51Z</time>
  <course>346.88</course>
  <speed>0.130384048104053</speed>
  <fix>3d</fix>
</trkpt>
<trkpt lat="-35.2750206" lon="148.9863597">
  <ele>658.54</ele>
  <time>2026-09-01T19:59:51Z</time>
  <course>353.25</course>
  <speed>0.15</speed>
  <fix>3d</fix>
</trkpt>
<trkpt lat="-35.2750203" lon="148.9863597">
  <ele>658.43</ele>
  <time>2026-09-01T19:59:51Z</time>
  <course>346.89</course>
  <speed>0.12041594578792296</speed>
  <fix>3d</fix>
</trkpt>
<trkpt lat="-35.2750206" lon="148.9863597">
  <ele>658.54</ele>
  <time>2026-09-01T19:59:51Z</time>
  <course>353.25</course>
  <speed>0.15</speed>
  <fix>3d</fix>
</trkpt>
<trkpt lat="-35.2750202" lon="148.9863597">
  <ele>658.43</ele>
  <time>2026-09-01T19:59:51Z</time>
  <course>346.89</course>
  <speed>0.11045361017187261</speed>
  <fix>3d</fix>
</trkpt>
<trkpt lat="-35.2750203" lon="148.9863596">
  <ele>658.54</ele>
  <time>2026-09-01T19:59:51Z</time>
  <course>352.32</course>
  <speed>0.14</speed>
  <fix>3d</fix>
</trkpt>
<trkpt lat="-35.2750201" lon="148.9863597">
  <ele>658.43</ele>
  <time>2026-09-01T19:59:51Z</time>
  <course>346.89</course>
  <speed>0.11045361017187261</speed>
  <fix>3d</fix>
</trkpt>
<trkpt lat="-35.2750203" lon="148.9863596">
  <ele>658.54</ele>
  <time>2026-09-01T19:59:51Z</time>
  <course>352.32</course>
  <speed>0.14</speed>
  <fix>3d</fix>
</trkpt>
<trkpt lat="-35.27502" lon="148.9863597">
  <ele>658.43</ele>
  <time>2026-09-01T19:59:51Z</time>
  <course>346.88</course>
  <speed>0.1004987562112089</speed>
  <fix>3d</fix>
</trkpt>
<trkpt lat="-35.2750201" lon="148.9863596">
  <ele>658.54</ele>
  <time>2026-09-01T19:59:51Z</time>
  <course>351.34</course>
  <speed>0.12</speed>
  <fix>3d</fix>
</trkpt>
<trkpt lat="-35.2750199" lon="148.9863596">
  <ele>658.43</ele>
  <time>2026-09-01T19:59:51Z</time>
  <course>346.87</course>
  <speed>0.09055385138137417</speed>
  <fix>3d</fix>
</trkpt>
<trkpt lat="-35.2750201" lon="148.9863596">
  <ele>658.54</ele>
  <time>2026-09-01T19:59:51Z</time>
  <course>351.34</course>
  <speed>0.12</speed>
  <fix>3d</fix>
</trkpt>
<trkpt lat="-35.2750198" lon="148.9863596">
  <ele>658.44</ele>
  <time>2026-09-01T19:59:51Z</time>
  <course>346.86</course>
  <speed>0.08062257748298549</speed>
  <fix>3d</fix>
</trkpt>
<trkpt lat="-35.2750198" lon="148.9863596">
  <ele>658.54</ele>
  <time>2026-09-01T19:59:51Z</time>
  <course>350.27</course>
  <speed>0.11</speed>
  <fix>3d</fix>
</trkpt>
<trkpt lat="-35.2750197" lon="148.9863596">
  <ele>658.44</ele>
  <time>2026-09-01T19:59:51Z</time>
  <course>346.86</course>
  <speed>0.07071067811865475</speed>
  <fix>3d</fix>
</trkpt>
<trkpt lat="-35.2750198" lon="148.9863596">
  <ele>658.54</ele>
  <time>2026-09-01T19:59:51Z</time>
  <course>350.27</course>
  <speed>0.11</speed>
  <fix>3d</fix>
</trkpt>
<trkpt lat="-35.2750196" lon="148.9863596">
  <ele>658.44</ele>
  <time>2026-09-01T19:59:51Z</time>
  <course>346.85</course>
  <speed>0.06082762530298219</speed>
  <fix>3d</fix>
</trkpt>
<trkpt lat="-35.2750197" lon="148.9863595">
  <ele>658.55</ele>
  <time>2026-09-01T19:59:51Z</time>
  <course>348.85</course>
  <speed>0.09</speed>
  <fix>3d</fix>
</trkpt>
<trkpt lat="-35.2750196" lon="148.9863595">
  <ele>658.44</ele>
  <time>2026-09-01T19:59:51Z</time>
  <course>346.85</course>
  <speed>0.06082762530298219</speed>
  <fix>3d</fix>
</trkpt>
<trkpt lat="-35.2750197" lon="148.9863595">
  <ele>658.55</ele>
  <time>2026-09-01T19:59:51Z</time>
  <course>348.85</course>
  <speed>0.09</speed>
  <fix>3d</fix>
</trkpt>
<trkpt lat="-35.2750195" lon="148.9863595">
  <ele>658.45</ele>
  <time>2026-09-01T19:59:51Z</time>
  <course>346.86</course>
  <speed>0.05099019513592785</speed>
  <fix>3d</fix>
</trkpt>
<trkpt lat="-35.2750195" lon="148.9863595">
  <ele>658.55</ele>
  <time>2026-09-01T19:59:51Z</time>
  <course>346.87</course>
  <speed>0.08</speed>
  <fix>3d</fix>
</trkpt>
<trkpt lat="-35.2750195" lon="148.9863595">
  <ele>658.45</ele>
  <time>2026-09-01T19:59:51Z</time>
  <course>346.88</course>
  <speed>0.0412310562561766</speed>
  <fix>3d</fix>
</trkpt>
<trkpt lat="-35.2750195" lon="148.9863595">
  <ele>658.55</ele>
  <time>2026-09-01T19:59:51Z</time>
  <course>346.87</course>
  <speed>0.08</speed>
  <fix>3d</fix>
</trkpt>
<trkpt lat="-35.2750194" lon="148.9863595">
  <ele>658.45</ele>
  <time>2026-09-01T19:59:51Z</time>
  <course>346.89</course>
  <speed>0.0316227766016838</speed>
  <fix>3d</fix>
</trkpt>
<trkpt lat="-35.2750194" lon="148.9863595">
  <ele>658.55</ele>
  <time>2026-09-01T19:59:51Z</time>
  <course>344.33</course>
  <speed>0.06</speed>
  <fix>3d</fix>
</trkpt>
<trkpt lat="-35.2750194" lon="148.9863595">
  <ele>658.45</ele>
  <time>2026-09-01T19:59:51Z</time>
  <course>346.91</course>
  <speed>0.022360679774997897</speed>
  <fix>3d</fix>
</trkpt>
<trkpt lat="-35.2750194" lon="148.9863595">
  <ele>658.55</ele>
  <time>2026-09-01T19:59:51Z</time>
  <course>344.33</course>
  <speed>0.06</speed>
  <fix>3d</fix>
</trkpt>
<trkpt lat="-35.2750194" lon="148.9863595">
  <ele>658.45</ele>
  <time>2026-09-01T19:59:51Z</time>
  <course>346.92</course>
  <speed>0.01414213562373095</speed>
  <fix>3d</fix>
</trkpt>
<trkpt lat="-35.2750193" lon="148.9863595">
  <ele>658.55</ele>
  <time>2026-09-01T19:59:51Z</time>
  <course>340.5</course>
  <speed>0.04</speed>
  <fix>3d</fix>
</trkpt>
<trkpt lat="-35.2750193" lon="148.9863595">
  <ele>658.45</ele>
  <time>2026-09-01T19:59:51Z</time>
  <course>346.93</course>
  <speed>0.0</speed>
  <fix>3d</fix>
</trkpt>
<trkpt lat="-35.2750193" lon="148.9863595">
  <ele>658.55</ele>
  <time>2026-09-01T19:59:51Z</time>
  <course>340.5</course>
  <speed>0.04</speed>
  <fix>3d</fix>
</trkpt>
<trkpt lat="-35.2750193" lon="148.9863594">
  <ele>658.45</ele>
  <time>2026-09-01T19:59:51Z</time>
  <course>346.92</course>
  <speed>0.0</speed>
  <fix>3d</fix>
</trkpt>
<trkpt lat="-35.2750192" lon="148.9863594">
  <ele>658.54</ele>
  <time>2026-09-01T19:59:51Z</time>
  <course>332.72</course>
  <speed>0.02</speed>
  <fix>3d</fix>
</trkpt>
<trkpt lat="-35.2750193" lon="148.9863594">
  <ele>658.44</ele>
  <time>2026-09-01T19:59:51Z</time>
  <course>346.91</course>
  <speed>0.0</speed>
  <fix>3d</fix>
</trkpt>
<trkpt lat="-35.2750192" lon="148.9863594">
  <ele>658.54</ele>
  <time>2026-09-01T19:59:51Z</time>
  <course>332.72</course>
  <speed>0.02</speed>
  <fix>3d</fix>
</trkpt>
<trkpt lat="-35.2750193" lon="148.9863594">
  <ele>658.44</ele>
  <time>2026-09-01T19:59:51Z</time>
  <course>346.9</course>
  <speed>0.01</speed>
  <fix>3d</fix>
</trkpt>
<trkpt lat="-35.2750191" lon="148.9863594">
  <ele>658.54</ele>
  <time>2026-09-01T19:59:51Z</time>
  <course>303.5</course>
  <speed>0.01</speed>
  <fix>3d</fix>
</trkpt>
<trkpt lat="-35.2750193" lon="148.9863594">
  <ele>658.44</ele>
  <time>2026-09-01T19:59:51Z</time>
  <course>346.88</course>
  <speed>0.02</speed>
  <fix>3d</fix>
</trkpt>
<trkpt lat="-35.2750191" lon="148.9863594">
  <ele>658.54</ele>
  <time>2026-09-01T19:59:51Z</time>
  <course>303.5</course>
  <speed>0.01</speed>
  <fix>3d</fix>
</trkpt>
<trkpt lat="-35.2750193" lon="148.9863594">
  <ele>658.43</ele>
  <time>2026-09-01T19:59:51Z</time>
  <course>346.86</course>
  <speed>0.03</speed>
  <fix>3d</fix>
</trkpt>
<trkpt lat="-35.2750191" lon="148.9863594">
  <ele>658.54</ele>
  <time>2026-09-01T19:59:51Z</time>
  <course>205.02</course>
  <speed>0.01</speed>
  <fix>3d</fix>
</trkpt>
<trkpt lat="-35.2750193" lon="148.9863594">
  <ele>658.43</ele>
  <time>2026-09-01T19:59:51Z</time>
  <course>346.85</course>
  <speed>0.03</speed>
  <fix>3d</fix>
</trkpt>
<trkpt lat="-35.2750191" lon="148.9863594">
  <ele>658.54</ele>
  <time>2026-09-01T19:59:51Z</time>
  <course>205.02</course>
  <speed>0.01</speed>
  <fix>3d</fix>
</trkpt>
<trkpt lat="-35.2750193" lon="148.9863594">
  <ele>658.43</ele>
  <time>2026-09-01T19:59:51Z</time>
  <course>346.85</course>
  <speed>0.04</speed>
  <fix>3d</fix>
</trkpt>
<trkpt lat="-35.2750191" lon="148.9863594">
  <ele>658.54</ele>
  <time>2026-09-01T19:59:51Z</time>
  <course>182.12</course>
  <speed>0.02</speed>
  <fix>3d</fix>
</trkpt>
<trkpt lat="-35.2750193" lon="148.9863594">
  <ele>658.43</ele>
  <time>2026-09-01T19:59:51Z</time>
  <course>346.86</course>
  <speed>0.05</speed>
  <fix>3d</fix>
</trkpt>
<trkpt lat="-35.2750191" lon="148.9863594">
  <ele>658.54</ele>
  <time>2026-09-01T19:59:51Z</time>
  <course>182.12</course>
  <speed>0.02</speed>
  <fix>3d</fix>
</trkpt>
<trkpt lat="-35.2750193" lon="148.9863594">
  <ele>658.43</ele>
  <time>2026-09-01T19:59:51Z</time>
  <course>346.87</course>
  <speed>0.05</speed>
  <fix>3d</fix>
</trkpt>
<trkpt lat="-35.2750192" lon="148.9863594">
  <ele>658.54</ele>
  <time>2026-09-01T19:59:51Z</time>
  <course>175.63</course>
  <speed>0.04</speed>
  <fix>3d</fix>
</trkpt>
<trkpt lat="-35.2750194" lon="148.9863594">
  <ele>658.43</ele>
  <time>2026-09-01T19:59:51Z</time>
  <course>346.87</course>
  <speed>0.06</speed>
  <fix>3d</fix>
</trkpt>
<trkpt lat="-35.2750192" lon="148.9863594">
  <ele>658.54</ele>
  <time>2026-09-01T19:59:51Z</time>
  <course>175.63</course>
  <speed>0.04</speed>
  <fix>3d</fix>
</trkpt>
<trkpt lat="-35.2750194" lon="148.9863594">
  <ele>658.43</ele>
  <time>2026-09-01T19:59:51Z</time>
  <course>346.86</course>
  <speed>0.06</speed>
  <fix>3d</fix>
</trkpt>
<trkpt lat="-35.2750193" lon="148.9863594">
  <ele>658.54</ele>
  <time>2026-09-01T19:59:51Z</time>
  <course>173.11</course>
  <speed>0.05</speed>
  <fix>3d</fix>
</trkpt>
<trkpt lat="-35.2750195" lon="148.9863594">
  <ele>658.43</ele>
  <time>2026-09-01T19:59:51Z</time>
  <course>346.86</course>
  <speed>0.06</speed>
  <fix>3d</fix>
</trkpt>
<trkpt lat="-35.2750193" lon="148.9863594">
  <ele>658.54</ele>
  <time>2026-09-01T19:59:51Z</time>
  <course>173.11</course>
  <speed>0.05</speed>
  <fix>3d</fix>
</trkpt>
<trkpt lat="-35.2750195" lon="148.9863594">
  <ele>658.43</ele>
  <time>2026-09-01T19:59:51Z</time>
  <course>346.85</course>
  <speed>0.07071067811865475</speed>
  <fix>3d</fix>
</trkpt>
<trkpt lat="-35.2750194" lon="148.9863594">
  <ele>658.54</ele>
  <time>2026-09-01T19:59:51Z</time>
  <course>171.34</course>
  <speed>0.06</speed>
  <fix>3d</fix>
</trkpt>
<trkpt lat="-35.2750196" lon="148.9863594">
  <ele>658.43</ele>
  <time>2026-09-01T19:59:51Z</time>
  <course>346.85</course>
  <speed>0.07071067811865475</speed>
  <fix>3d</fix>
</trkpt>
<trkpt lat="-35.2750194" lon="148.9863594">
  <ele>658.54</ele>
  <time>2026-09-01T19:59:51Z</time>
  <course>171.34</course>
  <speed>0.06</speed>
  <fix>3d</fix>
</trkpt>
<trkpt lat="-35.2750197" lon="148.9863594">
  <ele>658.43</ele>
  <time>2026-09-01T19:59:51Z</time>
  <course>346.85</course>
  <speed>0.07071067811865475</speed>
  <fix>3d</fix>
</trkpt>
<trkpt lat="-35.2750195" lon="148.9863594">
  <ele>658.54</ele>
  <time>2026-09-01T19:59:51Z</time>
  <course>169.77</course>
  <speed>0.07</speed>
  <fix>3d</fix>
</trkpt>
<trkpt lat="-35.2750197" lon="148.9863594">
  <ele>658.43</ele>
  <time>2026-09-01T19:59:51Z</time>
  <course>346.85</course>
  <speed>0.07071067811865475</speed>
  <fix>3d</fix>
</trkpt>
<trkpt lat="-35.2750195" lon="148.9863594">
  <ele>658.54</ele>
  <time>2026-09-01T19:59:51Z</time>
  <course>169.77</course>
  <speed>0.07</speed>
  <fix>3d</fix>
</trkpt>
<trkpt lat="-35.2750198" lon="148.9863594">
  <ele>658.43</ele>
  <time>2026-09-01T19:59:51Z</time>
  <course>346.84</course>
  <speed>0.08062257748298549</speed>
  <fix>3d</fix>
</trkpt>
<trkpt lat="-35.2750197" lon="148.9863594">
  <ele>658.54</ele>
  <time>2026-09-01T19:59:51Z</time>
  <course>168.63</course>
  <speed>0.08</speed>
  <fix>3d</fix>
</trkpt>
<trkpt lat="-35.2750199" lon="148.9863594">
  <ele>658.43</ele>
  <time>2026-09-01T19:59:51Z</time>
  <course>346.85</course>
  <speed>0.08062257748298549</speed>
  <fix>3d</fix>
</trkpt>
<trkpt lat="-35.2750197" lon="148.9863594">
  <ele>658.54</ele>
  <time>2026-09-01T19:59:51Z</time>
  <course>168.63</course>
  <speed>0.08</speed>
  <fix>3d</fix>
</trkpt>
<trkpt lat="-35.2750199" lon="148.9863594">
  <ele>658.43</ele>
  <time>2026-09-01T19:59:51Z</time>
  <course>346.85</course>
  <speed>0.08062257748298549</speed>
  <fix>3d</fix>
</trkpt>
<trkpt lat="-35.2750198" lon="148.9863594">
  <ele>658.54</ele>
  <time>2026-09-01T19:59:51Z</time>
  <course>167.81</course>
  <speed>0.08</speed>
  <fix>3d</fix>
</trkpt>
<trkpt lat="-35.27502" lon="148.9863595">
  <ele>658.43</ele>
  <time>2026-09-01T19:59:51Z</time>
  <course>346.86</course>
  <speed>0.08062257748298549</speed>
  <fix>3d</fix>
</trkpt>
<trkpt lat="-35.2750198" lon="148.9863594">
  <ele>658.54</ele>
  <time>2026-09-01T19:59:51Z</time>
  <course>167.81</course>
  <speed>0.08</speed>
  <fix>3d</fix>
</trkpt>
<trkpt lat="-35.2750201" lon="148.9863595">
  <ele>658.43</ele>
  <time>2026-09-01T19:59:51Z</time>
  <course>346.86</course>
  <speed>0.08062257748298549</speed>
  <fix>3d</fix>
</trkpt>
<trkpt lat="-35.27502" lon="148.9863595">
  <ele>658.54</ele>
  <time>2026-09-01T19:59:51Z</time>
  <course>167.16</course>
  <speed>0.08</speed>
  <fix>3d</fix>
</trkpt>
<trkpt lat="-35.2750201" lon="148.9863595">
  <ele>658.43</ele>
  <time>2026-09-01T19:59:51Z</time>
  <course>346.86</course>
  <speed>0.08062257748298549</speed>
  <fix>3d</fix>
</trkpt>
<trkpt lat="-35.27502" lon="148.9863595">
  <ele>658.54</ele>
  <time>2026-09-01T19:59:51Z</time>
  <course>167.16</course>
  <speed>0.08</speed>
  <fix>3d</fix>
</trkpt>
<trkpt lat="-35.2750202" lon="148.9863595">
  <ele>658.43</ele>
  <time>2026-09-01T19:59:51Z</time>
  <course>346.85</course>
  <speed>0.08062257748298549</speed>
  <fix>3d</fix>
</trkpt>
<trkpt lat="-35.2750201" lon="148.9863595">
  <ele>658.54</ele>
  <time>2026-09-01T19:59:51Z</time>
  <course>166.7</course>
  <speed>0.09</speed>
  <fix>3d</fix>
</trkpt>
<trkpt lat="-35.2750203" lon="148.9863595">
  <ele>658.44</ele>
  <time>2026-09-01T19:59:51Z</time>
  <course>346.85</course>
  <speed>0.08062257748298549</speed>
  <fix>3d</fix>
</trkpt>
<trkpt lat="-35.2750201" lon="148.9863595">
  <ele>658.54</ele>
  <time>2026-09-01T19:59:51Z</time>
  <course>166.7</course>
  <speed>0.09</speed>
  <fix>3d</fix>
</trkpt>
<trkpt lat="-35.2750204" lon="148.9863595">
  <ele>658.44</ele>
  <time>2026-09-01T19:59:51Z</time>
  <course>346.84</course>
  <speed>0.06082762530298219</speed>
  <fix>3d</fix>
</trkpt>
<trkpt lat="-35.2750202" lon="148.9863595">
  <ele>658.55</ele>
  <time>2026-09-01T19:59:51Z</time>
  <course>166.44</course>
  <speed>0.08</speed>
  <fix>3d</fix>
</trkpt>
<trkpt lat="-35.2750204" lon="148.9863595">
  <ele>658.44</ele>
  <time>2026-09-01T19:59:51Z</time>
  <course>346.86</course>
  <speed>0.01</speed>
  <fix>3d</fix>
</trkpt>
<trkpt lat="-35.2750202" lon="148.9863595">
  <ele>658.55</ele>
  <time>2026-09-01T19:59:51Z</time>
  <course>166.44</course>
  <speed>0.08</speed>
  <fix>3d</fix>
</trkpt>
<trkpt lat="-35.2750204" lon="148.9863595">
  <ele>658.44</ele>
  <time>2026-09-01T19:59:51Z</time>
  <course>346.89</course>
  <speed>0.09219544457292887</speed>
  <fix>3d</fix>
</trkpt>
<trkpt lat="-35.2750204" lon="148.9863595">
  <ele>658.55</ele>
  <time>2026-09-01T19:59:51Z</time>
  <course>166.47</course>
  <speed>0.05</speed>
  <fix>3d</fix>
</trkpt>
<trkpt lat="-35.2750203" lon="148.9863595">
  <ele>658.45</ele>
  <time>2026-09-01T19:59:51Z</time>
  <course>346.89</course>
  <speed>0.2668332812825267</speed>
  <fix>3d</fix>
</trkpt>
<trkpt lat="-35.2750204" lon="148.9863595">
  <ele>658.55</ele>
  <time>2026-09-01T19:59:51Z</time>
  <course>166.47</course>
  <speed>0.05</speed>
  <fix>3d</fix>
</trkpt>
<trkpt lat="-35.27502" lon="148.9863595">
  <ele>658.45</ele>
  <time>2026-09-01T19:59:51Z</time>
  <course>346.84</course>
  <speed>0.5044799302251776</speed>
  <fix>3d</fix>
</trkpt>
<trkpt lat="-35.2750204" lon="148.9863595">
  <ele>658.55</ele>
  <time>2026-09-01T19:59:51Z</time>
  <course>346.54</course>
  <speed>0.11</speed>
  <fix>3d</fix>
</trkpt>
<trkpt lat="-35.2750194" lon="148.9863593">
  <ele>658.45</ele>
  <time>2026-09-01T19:59:51Z</time>
  <course>346.69</course>
  <speed>0.802807573457052</speed>
  <fix>3d</fix>
</trkpt>
<trkpt lat="-35.2750204" lon="148.9863595">
  <ele>658.55</ele>
  <time>2026-09-01T19:59:51Z</time>
  <course>346.54</course>
  <speed>0.11</speed>
  <fix>3d</fix>
</trkpt>
<trkpt lat="-35.2750186" lon="148.986359">
  <ele>658.45</ele>
  <time>2026-09-01T19:59:51Z</time>
  <course>346.45</course>
  <speed>1.1569356075426152</speed>
  <fix>3d</fix>
</trkpt>
<trkpt lat="-35.2750199" lon="148.9863595">
  <ele>658.55</ele>
  <time>2026-09-01T19:59:51Z</time>
  <course>346.0</course>
  <speed>0.51</speed>
  <fix>3d</fix>
</trkpt>
<trkpt lat="-35.2750174" lon="148.9863586">
  <ele>658.45</ele>
  <time>2026-09-01T19:59:51Z</time>
  <course>346.14</course>
  <speed>1.5814234094637651</speed>
  <fix>3d</fix>
</trkpt>
<trkpt lat="-35.2750199" lon="148.9863595">
  <ele>658.55</ele>
  <time>2026-09-01T19:59:51Z</time>
  <course>346.0</course>
  <speed>0.51</speed>
  <fix>3d</fix>
</trkpt>
<trkpt lat="-35.2750158" lon="148.9863581">
  <ele>658.45</ele>
  <time>2026-09-01T19:59:51Z</time>
  <course>345.76</course>
  <speed>2.0523157651784483</speed>
  <fix>3d</fix>
</trkpt>
<trkpt lat="-35.2750185" lon="148.9863591">
  <ele>658.55</ele>
  <time>2026-09-01T19:59:51Z</time>
  <course>345.35</course>
  <speed>1.16</speed>
  <fix>3d</fix>
</trkpt>
<trkpt lat="-35.2750138" lon="148.9863575">
  <ele>658.46</ele>
  <time>2026-09-01T19:59:51Z</time>
  <course>345.23</course>
  <speed>2.596150997149434</speed>
  <fix>3d</fix>
</trkpt>
<trkpt lat="-35.2750185" lon="148.9863591">
  <ele>658.55</ele>
  <time>2026-09-01T19:59:51Z</time>
  <course>345.35</course>
  <speed>1.16</speed>
  <fix>3d</fix>
</trkpt>
<trkpt lat="-35.2750113" lon="148.9863566">
  <ele>658.46</ele>
  <time>2026-09-01T19:59:51Z</time>
  <course>344.66</course>
  <speed>3.1964042297556796</speed>
  <fix>3d</fix>
</trkpt>
<trkpt lat="-35.2750158" lon="148.9863581">
  <ele>658.55</ele>
  <time>2026-09-01T19:59:51Z</time>
  <course>344.57</course>
  <speed>2.05</speed>
  <fix>3d</fix>
</trkpt>
<trkpt lat="-35.2750083" lon="148.9863555">
  <ele>658.46</ele>
  <time>2026-09-01T19:59:51Z</time>
  <course>344.05</course>
  <speed>3.8121516234273787</speed>
  <fix>3d</fix>
</trkpt>
<trkpt lat="-35.2750158" lon="148.9863581">
  <ele>658.55</ele>
  <time>2026-09-01T19:59:51Z</time>
  <course>344.57</course>
  <speed>2.05</speed>
  <fix>3d</fix>
</trkpt>
<trkpt lat="-35.2750048" lon="148.9863542">
  <ele>658.46</ele>
  <time>2026-09-01T19:59:51Z</time>
  <course>343.35</course>
  <speed>4.421628659215968</speed>
  <fix>3d</fix>
</trkpt>
<trkpt lat="-35.2750113" lon="148.9863566">
  <ele>658.55</ele>
  <time>2026-09-01T19:59:51Z</time>
  <course>343.49</course>
  <speed>3.16</speed>
  <fix>3d</fix>
</trkpt>
<trkpt lat="-35.2750008" lon="148.9863526">
  <ele>658.47</ele>
  <time>2026-09-01T19:59:51Z</time>
  <course>342.56</course>
  <speed>5.031232453385552</speed>
  <fix>3d</fix>
</trkpt>
<trkpt lat="-35.2750113" lon="148.9863566">
  <ele>658.55</ele>
  <time>2026-09-01T19:59:51Z</time>
  <course>343.49</course>
  <speed>3.16</speed>
  <fix>3d</fix>
</trkpt>
<trkpt lat="-35.2749963" lon="148.9863507">
  <ele>658.47</ele>
  <time>2026-09-01T19:59:51Z</time>
  <course>341.75</course>
  <speed>5.638661188615609</speed>
  <fix>3d</fix>
</trkpt>
<trkpt lat="-35.2750048" lon="148.9863541">
  <ele>658.55</ele>
  <time>2026-09-01T19:59:51Z</time>
  <course>342.18</course>
  <speed>4.38</speed>
  <fix>3d</fix>
</trkpt>
<trkpt lat="-35.2749913" lon="148.9863486">
  <ele>658.48</ele>
  <time>2026-09-01T19:59:51Z</time>
  <course>340.89</course>
  <speed>6.244501581391424</speed>
  <fix>3d</fix>
</trkpt>
<trkpt lat="-35.2750048" lon="148.9863541">
  <ele>658.55</ele>
  <time>2026-09-01T19:59:51Z</time>
  <course>342.18</course>
  <speed>4.38</speed>
  <fix>3d</fix>
</trkpt>
<trkpt lat="-35.2749859" lon="148.986346">
  <ele>658.48</ele>
  <time>2026-09-01T19:59:51Z</time>
  <course>339.84</course>
  <speed>6.856500565157127</speed>
  <fix>3d</fix>
</trkpt>
<trkpt lat="-35.2749963" lon="148.9863506">
  <ele>658.55</ele>
  <time>2026-09-01T19:59:51Z</time>
  <course>340.58</course>
  <speed>5.6</speed>
  <fix>3d</fix>
</trkpt>
<trkpt lat="-35.2749799" lon="148.9863431">
  <ele>658.49</ele>
  <time>2026-09-01T19:59:51Z</time>
  <course>338.76</course>
  <speed>7.472536383317247</speed>
  <fix>3d</fix>
</trkpt>
<trkpt lat="-35.2749963" lon="148.9863506">
  <ele>658.55</ele>
  <time>2026-09-01T19:59:51Z</time>
  <course>340.58</course>
  <speed>5.6</speed>
  <fix>3d</fix>
</trkpt>
<trkpt lat="-35.2749736" lon="148.9863398">
  <ele>658.49</ele>
  <time>2026-09-01T19:59:51Z</time>
  <course>337.65</course>
  <speed>8.080618788186953</speed>
  <fix>3d</fix>
</trkpt>
<trkpt lat="-35.2749859" lon="148.9863459">
  <ele>658.57</ele>
  <time>2026-09-01T19:59:51Z</time>
  <course>338.62</course>
  <speed>6.82</speed>
  <fix>3d</fix>
</trkpt>
<trkpt lat="-35.2749667" lon="148.9863361">
  <ele>658.49</ele>
  <time>2026-09-01T19:59:51Z</time>
  <course>336.46</course>
  <speed>8.689902185870679</speed>
  <fix>3d</fix>
</trkpt>
<trkpt lat="-35.2749859" lon="148.9863459">
  <ele>658.57</ele>
  <time>2026-09-01T19:59:51Z</time>
  <course>338.62</course>
  <speed>6.82</speed>
  <fix>3d</fix>
</trkpt>
<trkpt lat="-35.2749595" lon="148.9863319">
  <ele>658.49</ele>
  <time>2026-09-01T19:59:51Z</time>
  <course>335.15</course>
  <speed>9.284724013130385</speed>
  <fix>3d</fix>
</trkpt>
<trkpt lat="-35.2749735" lon="148.9863396">
  <ele>658.58</ele>
  <time>2026-09-01T19:59:51Z</time>
  <course>336.35</course>
  <speed>8.05</speed>
  <fix>3d</fix>
</trkpt>
<trkpt lat="-35.2749519" lon="148.9863272">
  <ele>658.5</ele>
  <time>2026-09-01T19:59:51Z</time>
  <course>333.73</course>
  <speed>9.866569819344512</speed>
  <fix>3d</fix>
</trkpt>
<trkpt lat="-35.2749735" lon="148.9863396">
  <ele>658.58</ele>
  <time>2026-09-01T19:59:51Z</time>
  <course>336.35</course>
  <speed>8.05</speed>
  <fix>3d</fix>
</trkpt>
<trkpt lat="-35.274944" lon="148.9863219">
  <ele>658.5</ele>
  <time>2026-09-01T19:59:51Z</time>
  <course>332.25</course>
  <speed>10.437490119755802</speed>
  <fix>3d</fix>
</trkpt>
<trkpt lat="-35.2749594" lon="148.9863315">
  <ele>658.58</ele>
  <time>2026-09-01T19:59:51Z</time>
  <course>333.77</course>
  <speed>9.26</speed>
  <fix>3d</fix>
</trkpt>
<trkpt lat="-35.2749357" lon="148.9863161">
  <ele>658.51</ele>
  <time>2026-09-01T19:59:51Z</time>
  <course>330.72</course>
  <speed>11.003862958070679</speed>
  <fix>3d</fix>
</trkpt>
<trkpt lat="-35.2749594" lon="148.9863315">
  <ele>658.58</ele>
  <time>2026-09-01T19:59:51Z</time>
  <course>333.77</course>
  <speed>9.26</speed>
  <fix>3d</fix>
</trkpt>
<trkpt lat="-35.2749271" lon="148.9863097">
  <ele>658.52</ele>
  <time>2026-09-01T19:59:51Z</time>
  <course>329.3</course>
  <speed>11.553977670049393</speed>
  <fix>3d</fix>
</trkpt>
<trkpt lat="-35.2749436" lon="148.9863214">
  <ele>658.6</ele>
  <time>2026-09-01T19:59:51Z</time>
  <course>330.91</course>
  <speed>10.43</speed>
  <fix>3d</fix>
</trkpt>
<trkpt lat="-35.2749182" lon="148.9863027">
  <ele>658.54</ele>
  <time>2026-09-01T19:59:51Z</time>
  <course>327.82</course>
  <speed>12.092510078556892</speed>
  <fix>3d</fix>
</trkpt>
<trkpt lat="-35.2749436" lon="148.9863214">
  <ele>658.6</ele>
  <time>2026-09-01T19:59:51Z</time>
  <course>330.91</course>
  <speed>10.43</speed>
  <fix>3d</fix>
</trkpt>
<trkpt lat="-35.2749091" lon="148.986295">
  <ele>658.56</ele>
  <time>2026-09-01T19:59:51Z</time>
  <course>326.33</course>
  <speed>12.617844506887854</speed>
  <fix>3d</fix>
</trkpt>
<trkpt lat="-35.2749266" lon="148.9863091">
  <ele>658.62</ele>
  <time>2026-09-01T19:59:51Z</time>
  <course>327.86</course>
  <speed>11.55</speed>
  <fix>3d</fix>
</trkpt>
<trkpt lat="-35.2748997" lon="148.9862866">
  <ele>658.59</ele>
  <time>2026-09-01T19:59:51Z</time>
  <course>324.81</course>
  <speed>13.128080590855618</speed>
  <fix>3d</fix>
</trkpt>
<trkpt lat="-35.2749266" lon="148.9863091">
  <ele>658.62</ele>
  <time>2026-09-01T19:59:51Z</time>
  <course>327.86</course>
  <speed>11.55</speed>
  <fix>3d</fix>
</trkpt>
<trkpt lat="-35.2748902" lon="148.9862777">
  <ele>658.62</ele>
  <time>2026-09-01T19:59:51Z</time>
  <course>323.31</course>
  <speed>13.623527443360622</speed>
  <fix>3d</fix>
</trkpt>
<trkpt lat="-35.2749086" lon="148.9862944">
  <ele>658.65</ele>
  <time>2026-09-01T19:59:51Z</time>
  <course>324.77</course>
  <speed>12.61</speed>
  <fix>3d</fix>
</trkpt>
<trkpt lat="-35.2748805" lon="148.9862681">
  <ele>658.65</ele>
  <time>2026-09-01T19:59:51Z</time>
  <course>321.79</course>
  <speed>14.104594995957877</speed>
  <fix>3d</fix>
</trkpt>
<trkpt lat="-35.2749086" lon="148.9862944">
  <ele>658.65</ele>
  <time>2026-09-01T19:59:51Z</time>
  <course>324.77</course>
  <speed>12.61</speed>
  <fix>3d</fix>
</trkpt>
<trkpt lat="-35.2748708" lon="148.9862579">
  <ele>658.68</ele>
  <time>2026-09-01T19:59:51Z</time>
  <course>320.34</course>
  <speed>14.57178094812024</speed>
  <fix>3d</fix>
</trkpt>
<trkpt lat="-35.2748897" lon="148.9862771">
  <ele>658.7</ele>
  <time>2026-09-01T19:59:51Z</time>
  <course>321.74</course>
  <speed>13.62</speed>
  <fix>3d</fix>
</trkpt>
<trkpt lat="-35.2748609" lon="148.9862471">
  <ele>658.71</ele>
  <time>2026-09-01T19:59:51Z</time>
  <course>318.89</course>
  <speed>15.026273656499137</speed>
  <fix>3d</fix>
</trkpt>
<trkpt lat="-35.2748897" lon="148.9862771">
  <ele>658.7</ele>
  <time>2026-09-01T19:59:51Z</time>
  <course>321.74</course>
  <speed>13.62</speed>
  <fix>3d</fix>
</trkpt>
<trkpt lat="-35.2748509" lon="148.9862355">
  <ele>658.75</ele>
  <time>2026-09-01T19:59:51Z</time>
  <course>317.48</course>
  <speed>15.481553539616106</speed>
  <fix>3d</fix>
</trkpt>
<trkpt lat="-35.2748702" lon="148.9862572">
  <ele>658.77</ele>
  <time>2026-09-01T19:59:51Z</time>
  <course>318.83</course>
  <speed>14.57</speed>
  <fix>3d</fix>
</trkpt>
<trkpt lat="-35.2748408" lon="148.9862234">
  <ele>658.78</ele>
  <time>2026-09-01T19:59:51Z</time>
  <course>316.28</course>
  <speed>15.924145188988952</speed>
  <fix>3d</fix>
</trkpt>
<trkpt lat="-35.2748702" lon="148.9862572">
  <ele>658.77</ele>
  <time>2026-09-01T19:59:51Z</time>
  <course>318.83</course>
  <speed>14.57</speed>
  <fix>3d</fix>
</trkpt>
<trkpt lat="-35.2748306" lon="148.9862105">
  <ele>658.82</ele>
  <time>2026-09-01T19:59:51Z</time>
  <course>315.01</course>
  <speed>16.36758992643694</speed>
  <fix>3d</fix>
</trkpt>
<trkpt lat="-35.2748504" lon="148.9862349">
  <ele>658.84</ele>
  <time>2026-09-01T19:59:51Z</time>
  <course>316.06</course>
  <speed>15.49</speed>
  <fix>3d</fix>
</trkpt>
<trkpt lat="-35.2748205" lon="148.9861972">
  <ele>658.85</ele>
  <time>2026-09-01T19:59:51Z</time>
  <course>313.82</course>
  <speed>16.76973762466187</speed>
  <fix>3d</fix>
</trkpt>
<trkpt lat="-35.2748504" lon="148.9862349">
  <ele>658.84</ele>
  <time>2026-09-01T19:59:51Z</time>
  <course>316.06</course>
  <speed>15.49</speed>
  <fix>3d</fix>
</trkpt>
<trkpt lat="-35.2748104" lon="148.9861832">
  <ele>658.88</ele>
  <time>2026-09-01T19:59:51Z</time>
  <course>312.52</course>
  <speed>17.123977341727592</speed>
  <fix>3d</fix>
</trkpt>
<trkpt lat="-35.2748302" lon="148.9862099">
  <ele>658.91</ele>
  <time>2026-09-01T19:59:51Z</time>
  <course>313.49</course>
  <speed>16.35</speed>
  <fix>3d</fix>
</trkpt>
<trkpt lat="-35.2748003" lon="148.9861688">
  <ele>658.91</ele>
  <time>2026-09-01T19:59:51Z</time>
  <course>311.27</course>
  <speed>17.4322259049153</speed>
  <fix>3d</fix>
</trkpt>
<trkpt lat="-35.2748302" lon="148.9862099">
  <ele>658.91</ele>
  <time>2026-09-01T19:59:51Z</time>
  <course>313.49</course>
  <speed>16.35</speed>
  <fix>3d</fix>
</trkpt>
<trkpt lat="-35.2747903" lon="148.9861536">
  <ele>658.95</ele>
  <time>2026-09-01T19:59:51Z</time>
  <course>310.01</course>
  <speed>17.70083896316782</speed>
  <fix>3d</fix>
</trkpt>
<trkpt lat="-35.27481" lon="148.9861826">
  <ele>658.98</ele>
  <time>2026-09-01T19:59:51Z</time>
  <course>311.0</course>
  <speed>17.11</speed>
  <fix>3d</fix>
</trkpt>
<trkpt lat="-35.2747805" lon="148.9861382">
  <ele>658.99</ele>
  <time>2026-09-01T19:59:51Z</time>
  <course>308.79</course>
  <speed>17.92830164851094</speed>
  <fix>3d</fix>
</trkpt>
<trkpt lat="-35.27481" lon="148.9861826">
  <ele>658.98</ele>
  <time>2026-09-01T19:59:51Z</time>
  <course>311.0</course>
  <speed>17.11</speed>
  <fix>3d</fix>
</trkpt>
<trkpt lat="-35.2747708" lon="148.9861223">
  <ele>659.04</ele>
  <time>2026-09-01T19:59:51Z</time>
  <course>307.63</course>
  <speed>18.136286830550514</speed>
  <fix>3d</fix>
</trkpt>
<trkpt lat="-35.2747899" lon="148.9861532">
  <ele>659.04</ele>
  <time>2026-09-01T19:59:51Z</time>
  <course>308.48</course>
  <speed>17.68</speed>
  <fix>3d</fix>
</trkpt>
<trkpt lat="-35.2747614" lon="148.986106">
  <ele>659.08</ele>
  <time>2026-09-01T19:59:51Z</time>
  <course>306.41</course>
  <speed>18.319074758294974</speed>
  <fix>3d</fix>
</trkpt>
<trkpt lat="-35.2747899" lon="148.9861532">
  <ele>659.04</ele>
  <time>2026-09-01T19:59:51Z</time>
  <course>308.48</course>
  <speed>17.68</speed>
  <fix>3d</fix>
</trkpt>
<trkpt lat="-35.2747521" lon="148.9860892">
  <ele>659.13</ele>
  <time>2026-09-01T19:59:51Z</time>
  <course>305.18</course>
  <speed>18.518817456846428</speed>
  <fix>3d</fix>
</trkpt>
<trkpt lat="-35.2747705" lon="148.9861218">
  <ele>659.12</ele>
  <time>2026-09-01T19:59:51Z</time>
  <course>305.97</course>
  <speed>18.13</speed>
  <fix>3d</fix>
</trkpt>
<trkpt lat="-35.2747431" lon="148.986072">
  <ele>659.16</ele>
  <time>2026-09-01T19:59:51Z</time>
  <course>303.9</course>
  <speed>18.708014325416794</speed>
  <fix>3d</fix>
</trkpt>
<trkpt lat="-35.2747705" lon="148.9861218">
  <ele>659.12</ele>
  <time>2026-09-01T19:59:51Z</time>
  <course>305.97</course>
  <speed>18.13</speed>
  <fix>3d</fix>
</trkpt>
<trkpt lat="-35.2747342" lon="148.9860544">
  <ele>659.19</ele>
  <time>2026-09-01T19:59:51Z</time>
  <course>302.52</course>
  <speed>18.90774708948689</speed>
  <fix>3d</fix>
</trkpt>
<trkpt lat="-35.2747517" lon="148.9860885">
  <ele>659.2</ele>
  <time>2026-09-01T19:59:51Z</time>
  <course>303.47</course>
  <speed>18.53</speed>
  <fix>3d</fix>
</trkpt>
<trkpt lat="-35.2747256" lon="148.9860363">
  <ele>659.21</ele>
  <time>2026-09-01T19:59:51Z</time>
  <course>300.98</course>
  <speed>19.094093327518852</speed>
  <fix>3d</fix>
</trkpt>
<trkpt lat="-35.2747517" lon="148.9860885">
  <ele>659.2</ele>
  <time>2026-09-01T19:59:51Z</time>
  <course>303.47</course>
  <speed>18.53</speed>
  <fix>3d</fix>
</trkpt>
<trkpt lat="-35.2747173" lon="148.9860177">
  <ele>659.22</ele>
  <time>2026-09-01T19:59:51Z</time>
  <course>299.36</course>
  <speed>19.28531565725591</speed>
  <fix>3d</fix>
</trkpt>
<trkpt lat="-35.2747337" lon="148.9860536">
  <ele>659.27</ele>
  <time>2026-09-01T19:59:51Z</time>
  <course>300.87</course>
  <speed>18.91</speed>
  <fix>3d</fix>
</trkpt>
<trkpt lat="-35.2747093" lon="148.9859987">
  <ele>659.22</ele>
  <time>2026-09-01T19:59:51Z</time>
  <course>297.66</course>
  <speed>19.476267609580642</speed>
  <fix>3d</fix>
</trkpt>
<trkpt lat="-35.2747337" lon="148.9860536">
  <ele>659.27</ele>
  <time>2026-09-01T19:59:51Z</time>
  <course>300.87</course>
  <speed>18.91</speed>
  <fix>3d</fix>
</trkpt>
<trkpt lat="-35.2747017" lon="148.9859792">
  <ele>659.21</ele>
  <time>2026-09-01T19:59:51Z</time>
  <course>295.88</course>
  <speed>19.679738311268267</speed>
  <fix>3d</fix>
</trkpt>
<trkpt lat="-35.2747169" lon="148.9860171">
  <ele>659.3</ele>
  <time>2026-09-01T19:59:51Z</time>
  <course>297.97</course>
  <speed>19.28</speed>
  <fix>3d</fix>
</trkpt>
<trkpt lat="-35.2746946" lon="148.9859593">
  <ele>659.19</ele>
  <time>2026-09-01T19:59:51Z</time>
  <course>293.98</course>
  <speed>19.87388487437723</speed>
  <fix>3d</fix>
</trkpt>
<trkpt lat="-35.2747169" lon="148.9860171">
  <ele>659.3</ele>
  <time>2026-09-01T19:59:51Z</time>
  <course>297.97</course>
  <speed>19.28</speed>
  <fix>3d</fix>
</trkpt>
<trkpt lat="-35.2746879" lon="148.9859388">
  <ele>659.17</ele>
  <time>2026-09-01T19:59:51Z</time>
  <course>292.01</course>
  <speed>20.06795704599748</speed>
  <fix>3d</fix>
</trkpt>
<trkpt lat="-35.2747014" lon="148.9859786">
  <ele>659.29</ele>
  <time>2026-09-01T19:59:51Z</time>
  <course>294.61</course>
  <speed>19.66</speed>
  <fix>3d</fix>
</trkpt>
<trkpt lat="-35.2746818" lon="148.9859181">
  <ele>659.13</ele>
  <time>2026-09-01T19:59:51Z</time>
  <course>289.98</course>
  <speed>20.251345634302922</speed>
  <fix>3d</fix>
</trkpt>
<trkpt lat="-35.2747014" lon="148.9859786">
  <ele>659.29</ele>
  <time>2026-09-01T19:59:51Z</time>
  <course>294.61</course>
  <speed>19.66</speed>
  <fix>3d</fix>
</trkpt>
<trkpt lat="-35.2746763" lon="148.9858969">
  <ele>659.09</ele>
  <time>2026-09-01T19:59:51Z</time>
  <course>287.85</course>
  <speed>20.437321253040967</speed>
  <fix>3d</fix>
</trkpt>
<trkpt lat="-35.2746877" lon="148.9859383">
  <ele>659.25</ele>
  <time>2026-09-01T19:59:51Z</time>
  <course>290.75</course>
  <speed>20.03</speed>
  <fix>3d</fix>
</trkpt>
<trkpt lat="-35.2746715" lon="148.9858752">
  <ele>659.05</ele>
  <time>2026-09-01T19:59:51Z</time>
  <course>285.63</course>
  <speed>20.618016393436104</speed>
  <fix>3d</fix>
</trkpt>
<trkpt lat="-35.2746877" lon="148.9859383">
  <ele>659.25</ele>
  <time>2026-09-01T19:59:51Z</time>
  <course>290.75</course>
  <speed>20.03</speed>
  <fix>3d</fix>
</trkpt>
<trkpt lat="-35.2746673" lon="148.9858531">
  <ele>659.0</ele>
  <time>2026-09-01T19:59:51Z</time>
  <course>283.36</course>
  <speed>20.795213391547588</speed>
  <fix>3d</fix>
</trkpt>
<trkpt lat="-35.274676" lon="148.9858962">
  <ele>659.18</ele>
  <time>2026-09-01T19:59:51Z</time>
  <course>286.48</course>
  <speed>20.4</speed>
  <fix>3d</fix>
</trkpt>
<trkpt lat="-35.2746638" lon="148.9858305">
  <ele>658.94</ele>
  <time>2026-09-01T19:59:51Z</time>
  <course>281.03</course>
  <speed>20.98717703741978</speed>
  <fix>3d</fix>
</trkpt>
<trkpt lat="-35.274676" lon="148.9858962">
  <ele>659.18</ele>
  <time>2026-09-01T19:59:51Z</time>
  <course>286.48</course>
  <speed>20.4</speed>
  <fix>3d</fix>
</trkpt>
<trkpt lat="-35.2746611" lon="148.9858078">
  <ele>658.87</ele>
  <time>2026-09-01T19:59:51Z</time>
  <course>278.73</course>
  <speed>21.160340261914502</speed>
  <fix>3d</fix>
</trkpt>
<trkpt lat="-35.274667" lon="148.9858524">
  <ele>659.08</ele>
  <time>2026-09-01T19:59:51Z</time>
  <course>281.91</course>
  <speed>20.76</speed>
  <fix>3d</fix>
</trkpt>
<trkpt lat="-35.2746591" lon="148.9857847">
  <ele>658.79</ele>
  <time>2026-09-01T19:59:51Z</time>
  <course>276.36</course>
  <speed>21.340238986478102</speed>
  <fix>3d</fix>
</trkpt>
<trkpt lat="-35.274667" lon="148.9858524">
  <ele>659.08</ele>
  <time>2026-09-01T19:59:51Z</time>
  <course>281.91</course>
  <speed>20.76</speed>
  <fix>3d</fix>
</trkpt>
<trkpt lat="-35.2746579" lon="148.9857614">
  <ele>658.71</ele>
  <time>2026-09-01T19:59:51Z</time>
  <course>273.97</course>
  <speed>21.515631526869015</speed>
  <fix>3d</fix>
</trkpt>
<trkpt lat="-35.2746608" lon="148.9858069">
  <ele>658.95</ele>
  <time>2026-09-01T19:59:51Z</time>
  <course>277.15</course>
  <speed>21.12</speed>
  <fix>3d</fix>
</trkpt>
<trkpt lat="-35.2746576" lon="148.9857378">
  <ele>658.62</ele>
  <time>2026-09-01T19:59:51Z</time>
  <course>271.54</course>
  <speed>21.69018672118799</speed>
  <fix>3d</fix>
</trkpt>
<trkpt lat="-35.2746608" lon="148.9858069">
  <ele>658.95</ele>
  <time>2026-09-01T19:59:51Z</time>
  <course>277.15</course>
  <speed>21.12</speed>
  <fix>3d</fix>
</trkpt>
<trkpt lat="-35.2746581" lon="148.9857139">
  <ele>658.51</ele>
  <time>2026-09-01T19:59:51Z</time>
  <course>269.11</course>
  <speed>21.864747883293784</speed>
  <fix>3d</fix>
</trkpt>
<trkpt lat="-35.2746576" lon="148.9857602">
  <ele>658.79</ele>
  <time>2026-09-01T19:59:51Z</time>
  <course>272.27</course>
  <speed>21.48</speed>
  <fix>3d</fix>
</trkpt>
<trkpt lat="-35.2746593" lon="148.9856898">
  <ele>658.4</ele>
  <time>2026-09-01T19:59:51Z</time>
  <course>266.67</course>
  <speed>22.05088660349057</speed>
  <fix>3d</fix>
</trkpt>
<trkpt lat="-35.2746576" lon="148.9857602">
  <ele>658.79</ele>
  <time>2026-09-01T19:59:51Z</time>
  <course>272.27</course>
  <speed>21.48</speed>
  <fix>3d</fix>
</trkpt>
<trkpt lat="-35.2746615" lon="148.9856656">
  <ele>658.27</ele>
  <time>2026-09-01T19:59:51Z</time>
  <course>264.17</course>
  <speed>22.240548554385974</speed>
  <fix>3d</fix>
</trkpt>
<trkpt lat="-35.2746578" lon="148.9857126">
  <ele>658.59</ele>
  <time>2026-09-01T19:59:51Z</time>
  <course>267.31</course>
  <speed>21.84</speed>
  <fix>3d</fix>
</trkpt>
<trkpt lat="-35.2746646" lon="148.9856413">
  <ele>658.14</ele>
  <time>2026-09-01T19:59:51Z</time>
  <course>261.61</course>
  <speed>22.42599607598289</speed>
  <fix>3d</fix>
</trkpt>
<trkpt lat="-35.2746578" lon="148.9857126">
  <ele>658.59</ele>
  <time>2026-09-01T19:59:51Z</time>
  <course>267.31</course>
  <speed>21.84</speed>
  <fix>3d</fix>
</trkpt>
<trkpt lat="-35.2746687" lon="148.985617">
  <ele>657.99</ele>
  <time>2026-09-01T19:59:51Z</time>
  <course>259.0</course>
  <speed>22.60446858477323</speed>
  <fix>3d</fix>
</trkpt>
<trkpt lat="-35.2746613" lon="148.9856643">
  <ele>658.36</ele>
  <time>2026-09-01T19:59:51Z</time>
  <course>262.29</course>
  <speed>22.2</speed>
  <fix>3d</fix>
</trkpt>
<trkpt lat="-35.2746737" lon="148.9855925">
  <ele>657.83</ele>
  <time>2026-09-01T19:59:51Z</time>
  <course>256.38</course>
  <speed>22.79310860764718</speed>
  <fix>3d</fix>
</trkpt>
<trkpt lat="-35.2746613" lon="148.9856643">
  <ele>658.36</ele>
  <time>2026-09-01T19:59:51Z</time>
  <course>262.29</course>
  <speed>22.2</speed>
  <fix>3d</fix>
</trkpt>
<trkpt lat="-35.2746795" lon="148.9855686">
  <ele>657.67</ele>
  <time>2026-09-01T19:59:51Z</time>
  <course>253.73</course>
  <speed>22.96177911225522</speed>
  <fix>3d</fix>
</trkpt>
<trkpt lat="-35.2746685" lon="148.9856157">
  <ele>658.07</ele>
  <time>2026-09-01T19:59:51Z</time>
  <course>257.18</course>
  <speed>22.56</speed>
  <fix>3d</fix>
</trkpt>
<trkpt lat="-35.2746863" lon="148.9855449">
  <ele>657.5</ele>
  <time>2026-09-01T19:59:51Z</time>
  <course>251.12</course>
  <speed>23.125079459322947</speed>
  <fix>3d</fix>
</trkpt>
<trkpt lat="-35.2746685" lon="148.9856157">
  <ele>658.07</ele>
  <time>2026-09-01T19:59:51Z</time>
  <course>257.18</course>
  <speed>22.56</speed>
  <fix>3d</fix>
</trkpt>
<trkpt lat="-35.274694" lon="148.9855214">
  <ele>657.32</ele>
  <time>2026-09-01T19:59:51Z</time>
  <course>248.48</course>
  <speed>23.282063911947326</speed>
  <fix>3d</fix>
</trkpt>
<trkpt lat="-35.2746793" lon="148.9855675">
  <ele>657.76</ele>
  <time>2026-09-01T19:59:51Z</time>
  <course>251.94</course>
  <speed>22.91</speed>
  <fix>3d</fix>
</trkpt>
<trkpt lat="-35.2747026" lon="148.9854982">
  <ele>657.14</ele>
  <time>2026-09-01T19:59:51Z</time>
  <course>245.82</course>
  <speed>23.43944751908628</speed>
  <fix>3d</fix>
</trkpt>
<trkpt lat="-35.2746793" lon="148.9855675">
  <ele>657.76</ele>
  <time>2026-09-01T19:59:51Z</time>
  <course>251.94</course>
  <speed>22.91</speed>
  <fix>3d</fix>
</trkpt>
<trkpt lat="-35.2747122" lon="148.9854754">
  <ele>656.95</ele>
  <time>2026-09-01T19:59:51Z</time>
  <course>243.11</course>
  <speed>23.602660866944642</speed>
  <fix>3d</fix>
</trkpt>
<trkpt lat="-35.2746939" lon="148.9855201">
  <ele>657.41</ele>
  <time>2026-09-01T19:59:51Z</time>
  <course>246.62</course>
  <speed>23.25</speed>
  <fix>3d</fix>
</trkpt>
<trkpt lat="-35.2747227" lon="148.9854531">
  <ele>656.75</ele>
  <time>2026-09-01T19:59:51Z</time>
  <course>240.43</course>
  <speed>23.75157468463933</speed>
  <fix>3d</fix>
</trkpt>
<trkpt lat="-35.2746939" lon="148.9855201">
  <ele>657.41</ele>
  <time>2026-09-01T19:59:51Z</time>
  <course>246.62</course>
  <speed>23.25</speed>
  <fix>3d</fix>
</trkpt>
<trkpt lat="-35.274734" lon="148.9854314">
  <ele>656.55</ele>
  <time>2026-09-01T19:59:51Z</time>
  <course>237.81</course>
  <speed>23.894271279953276</speed>
  <fix>3d</fix>
</trkpt>
<trkpt lat="-35.2747125" lon="148.9854738">
  <ele>657.03</ele>
  <time>2026-09-01T19:59:51Z</time>
  <course>241.26</course>
  <speed>23.58</speed>
  <fix>3d</fix>
</trkpt>
<trkpt lat="-35.2747463" lon="148.9854101">
  <ele>656.34</ele>
  <time>2026-09-01T19:59:51Z</time>
  <course>235.14</course>
  <speed>24.044069954980582</speed>
  <fix>3d</fix>
</trkpt>
<trkpt lat="-35.2747125" lon="148.9854738">
  <ele>657.03</ele>
  <time>2026-09-01T19:59:51Z</time>
  <course>241.26</course>
  <speed>23.58</speed>
  <fix>3d</fix>
</trkpt>
<trkpt lat="-35.2747596" lon="148.9853893">
  <ele>656.12</ele>
  <time>2026-09-01T19:59:51Z</time>
  <course>232.45</course>
  <speed>24.19820241257602</speed>
  <fix>3d</fix>
</trkpt>
<trkpt lat="-35.2747347" lon="148.9854292">
  <ele>656.63</ele>
  <time>2026-09-01T19:59:51Z</time>
  <course>235.89</course>
  <speed>23.91</speed>
  <fix>3d</fix>
</trkpt>
<trkpt lat="-35.2747737" lon="148.9853691">
  <ele>655.91</ele>
  <time>2026-09-01T19:59:51Z</time>
  <course>229.85</course>
  <speed>24.341446136168656</speed>
  <fix>3d</fix>
</trkpt>
<trkpt lat="-35.2747347" lon="148.9854292">
  <ele>656.63</ele>
  <time>2026-09-01T19:59:51Z</time>
  <course>235.89</course>
  <speed>23.91</speed>
  <fix>3d</fix>
</trkpt>
<trkpt lat="-35.2747889" lon="148.9853494">
  <ele>655.68</ele>
  <time>2026-09-01T19:59:51Z</time>
  <course>227.26</course>
  <speed>24.49437894701558</speed>
  <fix>3d</fix>
</trkpt>
<trkpt lat="-35.2747606" lon="148.9853868">
  <ele>656.21</ele>
  <time>2026-09-01T19:59:51Z</time>
  <course>230.52</course>
  <speed>24.22</speed>
  <fix>3d</fix>
</trkpt>
<trkpt lat="-35.2748047" lon="148.9853306">
  <ele>655.45</ele>
  <time>2026-09-01T19:59:51Z</time>
  <course>224.65</course>
  <speed>24.64250393121608</speed>
  <fix>3d</fix>
</trkpt>
<trkpt lat="-35.2747606" lon="148.9853868">
  <ele>656.21</ele>
  <time>2026-09-01T19:59:51Z</time>
  <course>230.52</course>
  <speed>24.22</speed>
  <fix>3d</fix>
</trkpt>
<trkpt lat="-35.2748214" lon="148.9853126">
  <ele>655.22</ele>
  <time>2026-09-01T19:59:51Z</time>
  <course>222.08</course>
  <speed>24.785560312407707</speed>
  <fix>3d</fix>
</trkpt>
<trkpt lat="-35.2747899" lon="148.9853471">
  <ele>655.77</ele>
  <time>2026-09-01T19:59:51Z</time>
  <course>225.21</course>
  <speed>24.52</speed>
  <fix>3d</fix>
</trkpt>
<trkpt lat="-35.2748387" lon="148.9852954">
  <ele>654.98</ele>
  <time>2026-09-01T19:59:51Z</time>
  <course>219.57</course>
  <speed>24.92135630337964</speed>
  <fix>3d</fix>
</trkpt>
<trkpt lat="-35.2747899" lon="148.9853471">
  <ele>655.77</ele>
  <time>2026-09-01T19:59:51Z</time>
  <course>225.21</course>
  <speed>24.52</speed>
  <fix>3d</fix>
</trkpt>
<trkpt lat="-35.2748568" lon="148.9852791">
  <ele>654.74</ele>
  <time>2026-09-01T19:59:51Z</time>
  <course>217.13</course>
  <speed>25.053752213989824</speed>
  <fix>3d</fix>
</trkpt>
<trkpt lat="-35.2748226" lon="148.9853104">
  <ele>655.31</ele>
  <time>2026-09-01T19:59:51Z</time>
  <course>220.0</course>
  <speed>24.8</speed>
  <fix>3d</fix>
</trkpt>
<trkpt lat="-35.2748756" lon="148.9852636">
  <ele>654.5</ele>
  <time>2026-09-01T19:59:51Z</time>
  <course>214.78</course>
  <speed>25.183298036595602</speed>
  <fix>3d</fix>
</trkpt>
<trkpt lat="-35.2748226" lon="148.9853104">
  <ele>655.31</ele>
  <time>2026-09-01T19:59:51Z</time>
  <course>220.0</course>
  <speed>24.8</speed>
  <fix>3d</fix>
</trkpt>
<trkpt lat="-35.2748949" lon="148.9852491">
  <ele>654.25</ele>
  <time>2026-09-01T19:59:51Z</time>
  <course>212.45</course>
  <speed>25.307352686521757</speed>
  <fix>3d</fix>
</trkpt>
<trkpt lat="-35.2748581" lon="148.9852771">
  <ele>654.83</ele>
  <time>2026-09-01T19:59:51Z</time>
  <course>214.93</course>
  <speed>25.06</speed>
  <fix>3d</fix>
</trkpt>
<trkpt lat="-35.2749149" lon="148.9852355">
  <ele>654.0</ele>
  <time>2026-09-01T19:59:51Z</time>
  <course>210.19</course>
  <speed>25.425571773315145</speed>
  <fix>3d</fix>
</trkpt>
<trkpt lat="-35.2748581" lon="148.9852771">
  <ele>654.83</ele>
  <time>2026-09-01T19:59:51Z</time>
  <course>214.93</course>
  <speed>25.06</speed>
  <fix>3d</fix>
</trkpt>
<trkpt lat="-35.2749353" lon="148.9852228">
  <ele>653.75</ele>
  <time>2026-09-01T19:59:51Z</time>
  <course>208.07</course>
  <speed>25.539812058822985</speed>
  <fix>3d</fix>
</trkpt>
<trkpt lat="-35.2748964" lon="148.9852473">
  <ele>654.35</ele>
  <time>2026-09-01T19:59:51Z</time>
  <course>210.07</course>
  <speed>25.31</speed>
  <fix>3d</fix>
</trkpt>
<trkpt lat="-35.2749562" lon="148.9852111">
  <ele>653.5</ele>
  <time>2026-09-01T19:59:51Z</time>
  <course>205.97</course>
  <speed>25.641704311531242</speed>
  <fix>3d</fix>
</trkpt>
<trkpt lat="-35.2748964" lon="148.9852473">
  <ele>654.35</ele>
  <time>2026-09-01T19:59:51Z</time>
  <course>210.07</course>
  <speed>25.31</speed>
  <fix>3d</fix>
</trkpt>
<trkpt lat="-35.2749776" lon="148.9852003">
  <ele>653.25</ele>
  <time>2026-09-01T19:59:51Z</time>
  <course>203.93</course>
  <speed>25.74562681311139</speed>
  <fix>3d</fix>
</trkpt>
<trkpt lat="-35.2749369" lon="148.9852212">
  <ele>653.86</ele>
  <time>2026-09-01T19:59:51Z</time>
  <course>205.5</course>
  <speed>25.54</speed>
  <fix>3d</fix>
</trkpt>
<trkpt lat="-35.2749993" lon="148.9851903">
  <ele>652.99</ele>
  <time>2026-09-01T19:59:51Z</time>
  <course>201.98</course>
  <speed>25.84851446408478</speed>
  <fix>3d</fix>
</trkpt>
<trkpt lat="-35.2749369" lon="148.9852212">
  <ele>653.86</ele>
  <time>2026-09-01T19:59:51Z</time>
  <course>205.5</course>
  <speed>25.54</speed>
  <fix>3d</fix>
</trkpt>
<trkpt lat="-35.2750214" lon="148.9851813">
  <ele>652.73</ele>
  <time>2026-09-01T19:59:51Z</time>
  <course>200.12</course>
  <speed>25.938004934844162</speed>
  <fix>3d</fix>
</trkpt>
<trkpt lat="-35.2749791" lon="148.9851988">
  <ele>653.35</ele>
  <time>2026-09-01T19:59:51Z</time>
  <course>201.24</course>
  <speed>25.75</speed>
  <fix>3d</fix>
</trkpt>
<trkpt lat="-35.2750437" lon="148.9851731">
  <ele>652.46</ele>
  <time>2026-09-01T19:59:51Z</time>
  <course>198.35</course>
  <speed>26.023552793575288</speed>
  <fix>3d</fix>
</trkpt>
<trkpt lat="-35.2749791" lon="148.9851988">
  <ele>653.35</ele>
  <time>2026-09-01T19:59:51Z</time>
  <course>201.24</course>
  <speed>25.75</speed>
  <fix>3d</fix>
</trkpt>
<trkpt lat="-35.2750663" lon="148.9851658">
  <ele>652.2</ele>
  <time>2026-09-01T19:59:51Z</time>
  <course>196.66</course>
  <speed>26.106706035040116</speed>
  <fix>3d</fix>
</trkpt>
<trkpt lat="-35.275023" lon="148.98518">
  <ele>652.83</ele>
  <time>2026-09-01T19:59:51Z</time>
  <course>197.3</course>
  <speed>25.94</speed>
  <fix>3d</fix>
</trkpt>
<trkpt lat="-35.275089" lon="148.9851593">
  <ele>651.94</ele>
  <time>2026-09-01T19:59:51Z</time>
  <course>195.02</course>
  <speed>26.178588579218705</speed>
  <fix>3d</fix>
</trkpt>
<trkpt lat="-35.275023" lon="148.98518">
  <ele>652.83</ele>
  <time>2026-09-01T19:59:51Z</time>
  <course>197.3</course>
  <speed>25.94</speed>
  <fix>3d</fix>
</trkpt>
<trkpt lat="-35.2751119" lon="148.9851536">
  <ele>651.68</ele>
  <time>2026-09-01T19:59:51Z</time>
  <course>193.5</course>
  <speed>26.23838790779647</speed>
  <fix>3d</fix>
</trkpt>
<trkpt lat="-35.2750681" lon="148.9851648">
  <ele>652.32</ele>
  <time>2026-09-01T19:59:51Z</time>
  <course>193.7</course>
  <speed>26.11</speed>
  <fix>3d</fix>
</trkpt>
<trkpt lat="-35.275135" lon="148.9851487">
  <ele>651.41</ele>
  <time>2026-09-01T19:59:51Z</time>
  <course>192.02</course>
  <speed>26.30265766039622</speed>
  <fix>3d</fix>
</trkpt>
<trkpt lat="-35.2750681" lon="148.9851648">
  <ele>652.32</ele>
  <time>2026-09-01T19:59:51Z</time>
  <course>193.7</course>
  <speed>26.11</speed>
  <fix>3d</fix>
</trkpt>
<trkpt lat="-35.2751584" lon="148.9851444">
  <ele>651.15</ele>
  <time>2026-09-01T19:59:51Z</time>
  <course>190.64</course>
  <speed>26.35879359910085</speed>
  <fix>3d</fix>
</trkpt>
<trkpt lat="-35.275114" lon="148.9851528">
  <ele>651.79</ele>
  <time>2026-09-01T19:59:51Z</time>
  <course>190.46</course>
  <speed>26.27</speed>
  <fix>3d</fix>
</trkpt>
<trkpt lat="-35.2751818" lon="148.9851408">
  <ele>650.88</ele>
  <time>2026-09-01T19:59:51Z</time>
  <course>189.31</course>
  <speed>26.374375821998136</speed>
  <fix>3d</fix>
</trkpt>
<trkpt lat="-35.275114" lon="148.9851528">
  <ele>651.79</ele>
  <time>2026-09-01T19:59:51Z</time>
  <course>190.46</course>
  <speed>26.27</speed>
  <fix>3d</fix>
</trkpt>
<trkpt lat="-35.2752054" lon="148.9851379">
  <ele>650.61</ele>
  <time>2026-09-01T19:59:51Z</time>
  <course>188.06</course>
  <speed>26.367631672184743</speed>
  <fix>3d</fix>
</trkpt>
<trkpt lat="-35.2751607" lon="148.9851438">
  <ele>651.26</ele>
  <time>2026-09-01T19:59:51Z</time>
  <course>187.57</course>
  <speed>26.38</speed>
  <fix>3d</fix>
</trkpt>
<trkpt lat="-35.2752292" lon="148.9851355">
  <ele>650.34</ele>
  <time>2026-09-01T19:59:51Z</time>
  <course>186.73</course>
  <speed>26.352922039121204</speed>
  <fix>3d</fix>
</trkpt>
<trkpt lat="-35.2751607" lon="148.9851438">
  <ele>651.26</ele>
  <time>2026-09-01T19:59:51Z</time>
  <course>187.57</course>
  <speed>26.38</speed>
  <fix>3d</fix>
</trkpt>
<trkpt lat="-35.2752529" lon="148.9851338">
  <ele>650.08</ele>
  <time>2026-09-01T19:59:51Z</time>
  <course>185.56</course>
  <speed>26.34259288680596</speed>
  <fix>3d</fix>
</trkpt>
<trkpt lat="-35.2752079" lon="148.9851374">
  <ele>650.72</ele>
  <time>2026-09-01T19:59:51Z</time>
  <course>184.99</course>
  <speed>26.41</speed>
  <fix>3d</fix>
</trkpt>
<trkpt lat="-35.2752766" lon="148.9851326">
  <ele>649.82</ele>
  <time>2026-09-01T19:59:51Z</time>
  <course>184.55</course>
  <speed>26.3150546265821</speed>
  <fix>3d</fix>
</trkpt>
<trkpt lat="-35.2752079" lon="148.9851374">
  <ele>650.72</ele>
  <time>2026-09-01T19:59:51Z</time>
  <course>184.99</course>
  <speed>26.41</speed>
  <fix>3d</fix>
</trkpt>
<trkpt lat="-35.2753002" lon="148.9851318">
  <ele>649.56</ele>
  <time>2026-09-01T19:59:51Z</time>
  <course>183.6</course>
  <speed>26.275345858808404</speed>
  <fix>3d</fix>
</trkpt>
<trkpt lat="-35.2752552" lon="148.9851335">
  <ele>650.2</ele>
  <time>2026-09-01T19:59:51Z</time>
  <course>182.74</course>
  <speed>26.38</speed>
  <fix>3d</fix>
</trkpt>
<trkpt lat="-35.2753239" lon="148.9851314">
  <ele>649.3</ele>
  <time>2026-09-01T19:59:51Z</time>
  <course>182.7</course>
  <speed>26.23092259147589</speed>
  <fix>3d</fix>
</trkpt>
<trkpt lat="-35.2752552" lon="148.9851335">
  <ele>650.2</ele>
  <time>2026-09-01T19:59:51Z</time>
  <course>182.74</course>
  <speed>26.38</speed>
  <fix>3d</fix>
</trkpt>
<trkpt lat="-35.2753475" lon="148.9851313">
  <ele>649.04</ele>
  <time>2026-09-01T19:59:51Z</time>
  <course>181.89</course>
  <speed>26.180068754684353</speed>
  <fix>3d</fix>
</trkpt>
<trkpt lat="-35.2753025" lon="148.9851316">
  <ele>649.68</ele>
  <time>2026-09-01T19:59:51Z</time>
  <course>180.99</course>
  <speed>26.32</speed>
  <fix>3d</fix>
</trkpt>
<trkpt lat="-35.275371" lon="148.9851315">
  <ele>648.76</ele>
  <time>2026-09-01T19:59:51Z</time>
  <course>181.19</course>
  <speed>26.13183881780997</speed>
  <fix>3d</fix>
</trkpt>
<trkpt lat="-35.2753025" lon="148.9851316">
  <ele>649.68</ele>
  <time>2026-09-01T19:59:51Z</time>
  <course>180.99</course>
  <speed>26.32</speed>
  <fix>3d</fix>
</trkpt>
<trkpt lat="-35.2753945" lon="148.985132">
  <ele>648.48</ele>
  <time>2026-09-01T19:59:51Z</time>
  <course>180.56</course>
  <speed>26.095796596386936</speed>
  <fix>3d</fix>
</trkpt>
<trkpt lat="-35.2753497" lon="148.9851314">
  <ele>649.16</ele>
  <time>2026-09-01T19:59:51Z</time>
  <course>179.66</course>
  <speed>26.22</speed>
  <fix>3d</fix>
</trkpt>
<trkpt lat="-35.275418" lon="148.9851327">
  <ele>648.2</ele>
  <time>2026-09-01T19:59:51Z</time>
  <course>179.98</course>
  <speed>26.061377553767183</speed>
  <fix>3d</fix>
</trkpt>
<trkpt lat="-35.2753497" lon="148.9851314">
  <ele>649.16</ele>
  <time>2026-09-01T19:59:51Z</time>
  <course>179.66</course>
  <speed>26.22</speed>
  <fix>3d</fix>
</trkpt>
<trkpt lat="-35.2754414" lon="148.9851337">
  <ele>647.91</ele>
  <time>2026-09-01T19:59:51Z</time>
  <course>179.38</course>
  <speed>26.03882677848601</speed>
  <fix>3d</fix>
</trkpt>
<trkpt lat="-35.2753968" lon="148.9851322">
  <ele>648.62</ele>
  <time>2026-09-01T19:59:51Z</time>
  <course>178.56</course>
  <speed>26.13</speed>
  <fix>3d</fix>
</trkpt>
<trkpt lat="-35.2754649" lon="148.9851349">
  <ele>647.62</ele>
  <time>2026-09-01T19:59:51Z</time>
  <course>178.84</course>
  <speed>26.027218445312204</speed>
  <fix>3d</fix>
</trkpt>
<trkpt lat="-35.2753968" lon="148.9851322">
  <ele>648.62</ele>
  <time>2026-09-01T19:59:51Z</time>
  <course>178.56</course>
  <speed>26.13</speed>
  <fix>3d</fix>
</trkpt>
<trkpt lat="-35.2754883" lon="148.9851364">
  <ele>647.33</ele>
  <time>2026-09-01T19:59:51Z</time>
  <course>178.35</course>
  <speed>26.026611381430353</speed>
  <fix>3d</fix>
</trkpt>
<trkpt lat="-35.2754438" lon="148.9851342">
  <ele>648.06</ele>
  <time>2026-09-01T19:59:51Z</time>
  <course>177.6</course>
  <speed>26.07</speed>
  <fix>3d</fix>
</trkpt>
<trkpt lat="-35.2755117" lon="148.985138">
  <ele>647.04</ele>
  <time>2026-09-01T19:59:51Z</time>
  <course>177.9</course>
  <speed>26.02619641822447</speed>
  <fix>3d</fix>
</trkpt>
<trkpt lat="-35.2754438" lon="148.9851342">
  <ele>648.06</ele>
  <time>2026-09-01T19:59:51Z</time>
  <course>177.6</course>
  <speed>26.07</speed>
  <fix>3d</fix>
</trkpt>
<trkpt lat="-35.2755349" lon="148.9851399">
  <ele>646.76</ele>
  <time>2026-09-01T19:59:51Z</time>
  <course>177.47</course>
  <speed>26.026236762159833</speed>
  <fix>3d</fix>
</trkpt>
<trkpt lat="-35.2754905" lon="148.985137">
  <ele>647.49</ele>
  <time>2026-09-01T19:59:51Z</time>
  <course>176.75</course>
  <speed>26.05</speed>
  <fix>3d</fix>
</trkpt>
<trkpt lat="-35.2755582" lon="148.9851419">
  <ele>646.49</ele>
  <time>2026-09-01T19:59:51Z</time>
  <course>177.06</course>
  <speed>26.035809954752704</speed>
  <fix>3d</fix>
</trkpt>
<trkpt lat="-35.2754905" lon="148.985137">
  <ele>647.49</ele>
  <time>2026-09-01T19:59:51Z</time>
  <course>176.75</course>
  <speed>26.05</speed>
  <fix>3d</fix>
</trkpt>
<trkpt lat="-35.2755814" lon="148.9851441">
  <ele>646.23</ele>
  <time>2026-09-01T19:59:51Z</time>
  <course>176.68</course>
  <speed>26.055341103121254</speed>
  <fix>3d</fix>
</trkpt>
<trkpt lat="-35.2755372" lon="148.9851406">
  <ele>646.93</ele>
  <time>2026-09-01T19:59:51Z</time>
  <course>176.04</course>
  <speed>26.06</speed>
  <fix>3d</fix>
</trkpt>
<trkpt lat="-35.2756046" lon="148.9851463">
  <ele>645.97</ele>
  <time>2026-09-01T19:59:51Z</time>
  <course>176.31</course>
  <speed>26.07389882622083</speed>
  <fix>3d</fix>
</trkpt>
<trkpt lat="-35.2755372" lon="148.9851406">
  <ele>646.93</ele>
  <time>2026-09-01T19:59:51Z</time>
  <course>176.04</course>
  <speed>26.06</speed>
  <fix>3d</fix>
</trkpt>
<trkpt lat="-35.2756278" lon="148.9851488">
  <ele>645.73</ele>
  <time>2026-09-01T19:59:51Z</time>
  <course>175.96</course>
  <speed>26.09206967643617</speed>
  <fix>3d</fix>
</trkpt>
<trkpt lat="-35.2755839" lon="148.9851449">
  <ele>646.4</ele>
  <time>2026-09-01T19:59:51Z</time>
  <course>175.45</course>
  <speed>26.09</speed>
  <fix>3d</fix>
</trkpt>
<trkpt lat="-35.275651" lon="148.9851513">
  <ele>645.5</ele>
  <time>2026-09-01T19:59:51Z</time>
  <course>175.67</course>
  <speed>26.12057618047504</speed>
  <fix>3d</fix>
</trkpt>
<trkpt lat="-35.2755839" lon="148.9851449">
  <ele>646.4</ele>
  <time>2026-09-01T19:59:51Z</time>
  <course>175.45</course>
  <speed>26.09</speed>
  <fix>3d</fix>
</trkpt>
<trkpt lat="-35.2756743" lon="148.9851539">
  <ele>645.28</ele>
  <time>2026-09-01T19:59:51Z</time>
  <course>175.44</course>
  <speed>26.14853724398365</speed>
  <fix>3d</fix>
</trkpt>
<trkpt lat="-35.2756306" lon="148.9851497">
  <ele>645.9</ele>
  <time>2026-09-01T19:59:51Z</time>
  <course>174.98</course>
  <speed>26.15</speed>
  <fix>3d</fix>
</trkpt>
<trkpt lat="-35.2756975" lon="148.9851566">
  <ele>645.08</ele>
  <time>2026-09-01T19:59:51Z</time>
  <course>175.24</course>
  <speed>26.184869676971854</speed>
  <fix>3d</fix>
</trkpt>
<trkpt lat="-35.2756306" lon="148.9851497">
  <ele>645.9</ele>
  <time>2026-09-01T19:59:51Z</time>
  <course>174.98</course>
  <speed>26.15</speed>
  <fix>3d</fix>
</trkpt>
<trkpt lat="-35.2757208" lon="148.9851594">
  <ele>644.89</ele>
  <time>2026-09-01T19:59:51Z</time>
  <course>175.09</course>
  <speed>26.230367896771863</speed>
  <fix>3d</fix>
</trkpt>
<trkpt lat="-35.2756775" lon="148.9851549">
  <ele>645.46</ele>
  <time>2026-09-01T19:59:51Z</time>
  <course>174.61</course>
  <speed>26.22</speed>
  <fix>3d</fix>
</trkpt>
<trkpt lat="-35.2757443" lon="148.9851623">
  <ele>644.72</ele>
  <time>2026-09-01T19:59:51Z</time>
  <course>174.97</course>
  <speed>26.266033198791174</speed>
  <fix>3d</fix>
</trkpt>
<trkpt lat="-35.2756775" lon="148.9851549">
  <ele>645.46</ele>
  <time>2026-09-01T19:59:51Z</time>
  <course>174.61</course>
  <speed>26.22</speed>
  <fix>3d</fix>
</trkpt>
<trkpt lat="-35.2757679" lon="148.9851652">
  <ele>644.56</ele>
  <time>2026-09-01T19:59:51Z</time>
  <course>174.88</course>
  <speed>26.32072377424299</speed>
  <fix>3d</fix>
</trkpt>
<trkpt lat="-35.2757244" lon="148.9851604">
  <ele>645.08</ele>
  <time>2026-09-01T19:59:51Z</time>
  <course>174.34</course>
  <speed>26.29</speed>
  <fix>3d</fix>
</trkpt>
<trkpt lat="-35.2757919" lon="148.9851682">
  <ele>644.41</ele>
  <time>2026-09-01T19:59:51Z</time>
  <course>174.76</course>
  <speed>26.36352404364788</speed>
  <fix>3d</fix>
</trkpt>
<trkpt lat="-35.2757244" lon="148.9851604">
  <ele>645.08</ele>
  <time>2026-09-01T19:59:51Z</time>
  <course>174.34</course>
  <speed>26.29</speed>
  <fix>3d</fix>
</trkpt>
<trkpt lat="-35.2758155" lon="148.9851712">
  <ele>644.29</ele>
  <time>2026-09-01T19:59:51Z</time>
  <course>174.65</course>
  <speed>26.406349615196724</speed>
  <fix>3d</fix>
</trkpt>
<trkpt lat="-35.2757715" lon="148.9851662">
  <ele>644.76</ele>
  <time>2026-09-01T19:59:51Z</time>
  <course>174.15</course>
  <speed>26.38</speed>
  <fix>3d</fix>
</trkpt>
<trkpt lat="-35.2758391" lon="148.9851742">
  <ele>644.17</ele>
  <time>2026-09-01T19:59:51Z</time>
  <course>174.55</course>
  <speed>26.449200365984602</speed>
  <fix>3d</fix>
</trkpt>
<trkpt lat="-35.2757715" lon="148.9851662">
  <ele>644.76</ele>
  <time>2026-09-01T19:59:51Z</time>
  <course>174.15</course>
  <speed>26.38</speed>
  <fix>3d</fix>
</trkpt>
<trkpt lat="-35.2758627" lon="148.9851773">
  <ele>644.08</ele>
  <time>2026-09-01T19:59:51Z</time>
  <course>174.49</course>
  <speed>26.490015100033446</speed>
  <fix>3d</fix>
</trkpt>
<trkpt lat="-35.2758187" lon="148.9851722">
  <ele>644.49</ele>
  <time>2026-09-01T19:59:51Z</time>
  <course>174.04</course>
  <speed>26.46</speed>
  <fix>3d</fix>
</trkpt>
<trkpt lat="-35.2758864" lon="148.9851803">
  <ele>643.99</ele>
  <time>2026-09-01T19:59:51Z</time>
  <course>174.45</course>
  <speed>26.520884223569922</speed>
  <fix>3d</fix>
</trkpt>
<trkpt lat="-35.2758187" lon="148.9851722">
  <ele>644.49</ele>
  <time>2026-09-01T19:59:51Z</time>
  <course>174.04</course>
  <speed>26.46</speed>
  <fix>3d</fix>
</trkpt>
<trkpt lat="-35.2759101" lon="148.9851834">
  <ele>643.93</ele>
  <time>2026-09-01T19:59:51Z</time>
  <course>174.39</course>
  <speed>26.551755120895493</speed>
  <fix>3d</fix>
</trkpt>
<trkpt lat="-35.2758661" lon="148.9851783">
  <ele>644.29</ele>
  <time>2026-09-01T19:59:51Z</time>
  <course>173.99</course>
  <speed>26.54</speed>
  <fix>3d</fix>
</trkpt>
<trkpt lat="-35.2759338" lon="148.9851865">
  <ele>643.87</ele>
  <time>2026-09-01T19:59:51Z</time>
  <course>174.41</course>
  <speed>26.581595136484943</speed>
  <fix>3d</fix>
</trkpt>
<trkpt lat="-35.2758661" lon="148.9851783">
  <ele>644.29</ele>
  <time>2026-09-01T19:59:51Z</time>
  <course>173.99</course>
  <speed>26.54</speed>
  <fix>3d</fix>
</trkpt>
<trkpt lat="-35.2759575" lon="148.9851896">
  <ele>643.83</ele>
  <time>2026-09-01T19:59:52Z</time>
  <course>174.38</course>
  <speed>26.61143551182461</speed>
  <fix>3d</fix>
</trkpt>
<trkpt lat="-35.2759137" lon="148.9851845">
  <ele>644.14</ele>
  <time>2026-09-01T19:59:52Z</time>
  <course>173.98</course>
  <speed>26.61</speed>
  <fix>3d</fix>
</trkpt>
<trkpt lat="-35.2759813" lon="148.9851926">
  <ele>643.81</ele>
  <time>2026-09-01T19:59:52Z</time>
  <course>174.36</course>
  <speed>26.641276245705647</speed>
  <fix>3d</fix>
</trkpt>
<trkpt lat="-35.2759137" lon="148.9851845">
  <ele>644.14</ele>
  <time>2026-09-01T19:59:52Z</time>
  <course>173.98</course>
  <speed>26.61</speed>
  <fix>3d</fix>
</trkpt>
<trkpt lat="-35.2760051" lon="148.9851957">
  <ele>643.8</ele>
  <time>2026-09-01T19:59:52Z</time>
  <course>174.38</course>
  <speed>26.660144410711656</speed>
  <fix>3d</fix>
</trkpt>
<trkpt lat="-35.2759613" lon="148.9851906">
  <ele>644.05</ele>
  <time>2026-09-01T19:59:52Z</time>
  <course>174.01</course>
  <speed>26.67</speed>
  <fix>3d</fix>
</trkpt>
<trkpt lat="-35.2760289" lon="148.9851987">
  <ele>643.8</ele>
  <time>2026-09-01T19:59:52Z</time>
  <course>174.4</course>
  <speed>26.66907010002411</speed>
  <fix>3d</fix>
</trkpt>
<trkpt lat="-35.2759613" lon="148.9851906">
  <ele>644.05</ele>
  <time>2026-09-01T19:59:52Z</time>
  <course>174.01</course>
  <speed>26.67</speed>
  <fix>3d</fix>
</trkpt>
<trkpt lat="-35.2760529" lon="148.9852018">
  <ele>643.81</ele>
  <time>2026-09-01T19:59:52Z</time>
  <course>174.4</course>
  <speed>26.687948591077586</speed>
  <fix>3d</fix>
</trkpt>
<trkpt lat="-35.276009" lon="148.9851967">
  <ele>644.01</ele>
  <time>2026-09-01T19:59:52Z</time>
  <course>174.05</course>
  <speed>26.72</speed>
  <fix>3d</fix>
</trkpt>
<trkpt lat="-35.2760768" lon="148.9852048">
  <ele>643.84</ele>
  <time>2026-09-01T19:59:52Z</time>
  <course>174.39</course>
  <speed>26.706832459129256</speed>
  <fix>3d</fix>
</trkpt>
<trkpt lat="-35.276009" lon="148.9851967">
  <ele>644.01</ele>
  <time>2026-09-01T19:59:52Z</time>
  <course>174.05</course>
  <speed>26.72</speed>
  <fix>3d</fix>
</trkpt>
<trkpt lat="-35.2761009" lon="148.9852079">
  <ele>643.88</ele>
  <time>2026-09-01T19:59:52Z</time>
  <course>174.44</course>
  <speed>26.72572169278128</speed>
  <fix>3d</fix>
</trkpt>
<trkpt lat="-35.2760568" lon="148.9852028">
  <ele>644.03</ele>
  <time>2026-09-01T19:59:52Z</time>
  <course>174.11</course>
  <speed>26.75</speed>
  <fix>3d</fix>
</trkpt>
<trkpt lat="-35.276125" lon="148.9852109">
  <ele>643.92</ele>
  <time>2026-09-01T19:59:52Z</time>
  <course>174.47</course>
  <speed>26.744616280664786</speed>
  <fix>3d</fix>
</trkpt>
<trkpt lat="-35.2760568" lon="148.9852028">
  <ele>644.03</ele>
  <time>2026-09-01T19:59:52Z</time>
  <course>174.11</course>
  <speed>26.75</speed>
  <fix>3d</fix>
</trkpt>
<trkpt lat="-35.2761492" lon="148.9852139">
  <ele>643.97</ele>
  <time>2026-09-01T19:59:52Z</time>
  <course>174.52</course>
  <speed>26.763516211439782</speed>
  <fix>3d</fix>
</trkpt>
<trkpt lat="-35.2761045" lon="148.9852088">
  <ele>644.08</ele>
  <time>2026-09-01T19:59:52Z</time>
  <course>174.18</course>
  <speed>26.77</speed>
  <fix>3d</fix>
</trkpt>
<trkpt lat="-35.2761733" lon="148.9852169">
  <ele>644.03</ele>
  <time>2026-09-01T19:59:52Z</time>
  <course>174.54</course>
  <speed>26.781430133583232</speed>
  <fix>3d</fix>
</trkpt>
<trkpt lat="-35.2761045" lon="148.9852088">
  <ele>644.08</ele>
  <time>2026-09-01T19:59:52Z</time>
  <course>174.18</course>
  <speed>26.77</speed>
  <fix>3d</fix>
</trkpt>
<trkpt lat="-35.2761975" lon="148.9852199">
  <ele>644.09</ele>
  <time>2026-09-01T19:59:52Z</time>
  <course>174.56</course>
  <speed>26.789410221204943</speed>
  <fix>3d</fix>
</trkpt>
<trkpt lat="-35.2761524" lon="148.9852147">
  <ele>644.17</ele>
  <time>2026-09-01T19:59:52Z</time>
  <course>174.26</course>
  <speed>26.78</speed>
  <fix>3d</fix>
</trkpt>
<trkpt lat="-35.2762214" lon="148.9852228">
  <ele>644.17</ele>
  <time>2026-09-01T19:59:52Z</time>
  <course>174.59</course>
  <speed>26.80735906425696</speed>
  <fix>3d</fix>
</trkpt>
<trkpt lat="-35.2761524" lon="148.9852147">
  <ele>644.17</ele>
  <time>2026-09-01T19:59:52Z</time>
  <course>174.26</course>
  <speed>26.78</speed>
  <fix>3d</fix>
</trkpt>
<trkpt lat="-35.2762455" lon="148.9852257">
  <ele>644.26</ele>
  <time>2026-09-01T19:59:52Z</time>
  <course>174.64</course>
  <speed>26.805419228208315</speed>
  <fix>3d</fix>
</trkpt>
<trkpt lat="-35.2762003" lon="148.9852206">
  <ele>644.3</ele>
  <time>2026-09-01T19:59:52Z</time>
  <course>174.35</course>
  <speed>26.79</speed>
  <fix>3d</fix>
</trkpt>
<trkpt lat="-35.2762695" lon="148.9852286">
  <ele>644.35</ele>
  <time>2026-09-01T19:59:52Z</time>
  <course>174.67</course>
  <speed>26.803494175200367</speed>
  <fix>3d</fix>
</trkpt>
<trkpt lat="-35.2762003" lon="148.9852206">
  <ele>644.3</ele>
  <time>2026-09-01T19:59:52Z</time>
  <course>174.35</course>
  <speed>26.79</speed>
  <fix>3d</fix>
</trkpt>
<trkpt lat="-35.2762935" lon="148.9852314">
  <ele>644.45</ele>
  <time>2026-09-01T19:59:52Z</time>
  <course>174.69</course>
  <speed>26.79162928976138</speed>
  <fix>3d</fix>
</trkpt>
<trkpt lat="-35.2762482" lon="148.9852263">
  <ele>644.45</ele>
  <time>2026-09-01T19:59:52Z</time>
  <course>174.44</course>
  <speed>26.78</speed>
  <fix>3d</fix>
</trkpt>
<trkpt lat="-35.2763176" lon="148.9852342">
  <ele>644.56</ele>
  <time>2026-09-01T19:59:52Z</time>
  <course>174.78</course>
  <speed>26.789733108039727</speed>
  <fix>3d</fix>
</trkpt>
<trkpt lat="-35.2762482" lon="148.9852263">
  <ele>644.45</ele>
  <time>2026-09-01T19:59:52Z</time>
  <course>174.44</course>
  <speed>26.78</speed>
  <fix>3d</fix>
</trkpt>
<trkpt lat="-35.2763415" lon="148.985237">
  <ele>644.67</ele>
  <time>2026-09-01T19:59:52Z</time>
  <course>174.83</course>
  <speed>26.767939778772664</speed>
  <fix>3d</fix>
</trkpt>
<trkpt lat="-35.276296" lon="148.985232">
  <ele>644.64</ele>
  <time>2026-09-01T19:59:52Z</time>
  <course>174.54</course>
  <speed>26.77</speed>
  <fix>3d</fix>
</trkpt>
<trkpt lat="-35.2763654" lon="148.9852398">
  <ele>644.78</ele>
  <time>2026-09-01T19:59:52Z</time>
  <course>174.9</course>
  <speed>26.756115188868506</speed>
  <fix>3d</fix>
</trkpt>
<trkpt lat="-35.276296" lon="148.985232">
  <ele>644.64</ele>
  <time>2026-09-01T19:59:52Z</time>
  <course>174.54</course>
  <speed>26.77</speed>
  <fix>3d</fix>
</trkpt>
<trkpt lat="-35.2763892" lon="148.9852425">
  <ele>644.89</ele>
  <time>2026-09-01T19:59:52Z</time>
  <course>174.99</course>
  <speed>26.73434682201905</speed>
  <fix>3d</fix>
</trkpt>
<trkpt lat="-35.2763439" lon="148.9852374">
  <ele>644.84</ele>
  <time>2026-09-01T19:59:52Z</time>
  <course>174.64</course>
  <speed>26.74</speed>
  <fix>3d</fix>
</trkpt>
<trkpt lat="-35.2764131" lon="148.9852452">
  <ele>645.01</ele>
  <time>2026-09-01T19:59:52Z</time>
  <course>175.03</course>
  <speed>26.721633557849714</speed>
  <fix>3d</fix>
</trkpt>
<trkpt lat="-35.2763439" lon="148.9852374">
  <ele>644.84</ele>
  <time>2026-09-01T19:59:52Z</time>
  <course>174.64</course>
  <speed>26.74</speed>
  <fix>3d</fix>
</trkpt>
<trkpt lat="-35.2764371" lon="148.9852479">
  <ele>645.13</ele>
  <time>2026-09-01T19:59:52Z</time>
  <course>175.04</course>
  <speed>26.709855858839823</speed>
  <fix>3d</fix>
</trkpt>
<trkpt lat="-35.2763918" lon="148.9852429">
  <ele>645.06</ele>
  <time>2026-09-01T19:59:52Z</time>
  <course>174.74</course>
  <speed>26.71</speed>
  <fix>3d</fix>
</trkpt>
<trkpt lat="-35.2764612" lon="148.9852506">
  <ele>645.25</ele>
  <time>2026-09-01T19:59:52Z</time>
  <course>175.05</course>
  <speed>26.68903332831671</speed>
  <fix>3d</fix>
</trkpt>
<trkpt lat="-35.2763918" lon="148.9852429">
  <ele>645.06</ele>
  <time>2026-09-01T19:59:52Z</time>
  <course>174.74</course>
  <speed>26.71</speed>
  <fix>3d</fix>
</trkpt>
<trkpt lat="-35.276485" lon="148.9852532">
  <ele>645.38</ele>
  <time>2026-09-01T19:59:52Z</time>
  <course>175.1</course>
  <speed>26.667315200447156</speed>
  <fix>3d</fix>
</trkpt>
<trkpt lat="-35.2764397" lon="148.9852483">
  <ele>645.29</ele>
  <time>2026-09-01T19:59:52Z</time>
  <course>174.84</course>
  <speed>26.68</speed>
  <fix>3d</fix>
</trkpt>
<trkpt lat="-35.2765088" lon="148.9852559">
  <ele>645.5</ele>
  <time>2026-09-01T19:59:52Z</time>
  <course>175.15</course>
  <speed>26.64560939441994</speed>
  <fix>3d</fix>
</trkpt>
<trkpt lat="-35.2764397" lon="148.9852483">
  <ele>645.29</ele>
  <time>2026-09-01T19:59:52Z</time>
  <course>174.84</course>
  <speed>26.68</speed>
  <fix>3d</fix>
</trkpt>
<trkpt lat="-35.2765325" lon="148.9852584">
  <ele>645.63</ele>
  <time>2026-09-01T19:59:52Z</time>
  <course>175.27</course>
  <speed>26.634761121511865</speed>
  <fix>3d</fix>
</trkpt>
<trkpt lat="-35.2764874" lon="148.9852535">
  <ele>645.53</ele>
  <time>2026-09-01T19:59:52Z</time>
  <course>174.91</course>
  <speed>26.64</speed>
  <fix>3d</fix>
</trkpt>
<trkpt lat="-35.2765563" lon="148.985261">
  <ele>645.76</ele>
  <time>2026-09-01T19:59:52Z</time>
  <course>175.3</course>
  <speed>26.613954986059476</speed>
  <fix>3d</fix>
</trkpt>
<trkpt lat="-35.2764874" lon="148.9852535">
  <ele>645.53</ele>
  <time>2026-09-01T19:59:52Z</time>
  <course>174.91</course>
  <speed>26.64</speed>
  <fix>3d</fix>
</trkpt>
<trkpt lat="-35.2765801" lon="148.9852636">
  <ele>645.88</ele>
  <time>2026-09-01T19:59:52Z</time>
  <course>175.26</course>
  <speed>26.592273313878227</speed>
  <fix>3d</fix>
</trkpt>
<trkpt lat="-35.276535" lon="148.9852586">
  <ele>645.78</ele>
  <time>2026-09-01T19:59:52Z</time>
  <course>174.98</course>
  <speed>26.61</speed>
  <fix>3d</fix>
</trkpt>
<trkpt lat="-35.2766038" lon="148.9852661">
  <ele>646.01</ele>
  <time>2026-09-01T19:59:52Z</time>
  <course>175.26</course>
  <speed>26.571475307178563</speed>
  <fix>3d</fix>
</trkpt>
<trkpt lat="-35.276535" lon="148.9852586">
  <ele>645.78</ele>
  <time>2026-09-01T19:59:52Z</time>
  <course>174.98</course>
  <speed>26.61</speed>
  <fix>3d</fix>
</trkpt>
<trkpt lat="-35.2766276" lon="148.9852686">
  <ele>646.13</ele>
  <time>2026-09-01T19:59:52Z</time>
  <course>175.31</course>
  <speed>26.549811675414947</speed>
  <fix>3d</fix>
</trkpt>
<trkpt lat="-35.2765826" lon="148.9852637">
  <ele>646.03</ele>
  <time>2026-09-01T19:59:52Z</time>
  <course>175.04</course>
  <speed>26.58</speed>
  <fix>3d</fix>
</trkpt>
<trkpt lat="-35.2766513" lon="148.9852711">
  <ele>646.26</ele>
  <time>2026-09-01T19:59:52Z</time>
  <course>175.37</course>
  <speed>26.529021844010757</speed>
  <fix>3d</fix>
</trkpt>
<trkpt lat="-35.2765826" lon="148.9852637">
  <ele>646.03</ele>
  <time>2026-09-01T19:59:52Z</time>
  <course>175.04</course>
  <speed>26.58</speed>
  <fix>3d</fix>
</trkpt>
<trkpt lat="-35.2766751" lon="148.9852736">
  <ele>646.39</ele>
  <time>2026-09-01T19:59:52Z</time>
  <course>175.43</course>
  <speed>26.517339610149435</speed>
  <fix>3d</fix>
</trkpt>
<trkpt lat="-35.2766301" lon="148.9852688">
  <ele>646.27</ele>
  <time>2026-09-01T19:59:52Z</time>
  <course>175.1</course>
  <speed>26.53</speed>
  <fix>3d</fix>
</trkpt>
<trkpt lat="-35.2766986" lon="148.9852761">
  <ele>646.52</ele>
  <time>2026-09-01T19:59:52Z</time>
  <course>175.45</course>
  <speed>26.496558267065556</speed>
  <fix>3d</fix>
</trkpt>
<trkpt lat="-35.2766301" lon="148.9852688">
  <ele>646.27</ele>
  <time>2026-09-01T19:59:52Z</time>
  <course>175.1</course>
  <speed>26.53</speed>
  <fix>3d</fix>
</trkpt>
<trkpt lat="-35.2767222" lon="148.9852785">
  <ele>646.65</ele>
  <time>2026-09-01T19:59:52Z</time>
  <course>175.46</course>
  <speed>26.474931539099398</speed>
  <fix>3d</fix>
</trkpt>
<trkpt lat="-35.2766776" lon="148.9852737">
  <ele>646.52</ele>
  <time>2026-09-01T19:59:52Z</time>
  <course>175.16</course>
  <speed>26.49</speed>
  <fix>3d</fix>
</trkpt>
<trkpt lat="-35.2767457" lon="148.9852809">
  <ele>646.78</ele>
  <time>2026-09-01T19:59:52Z</time>
  <course>175.54</course>
  <speed>26.44419406977645</speed>
  <fix>3d</fix>
</trkpt>
<trkpt lat="-35.2766776" lon="148.9852737">
  <ele>646.52</ele>
  <time>2026-09-01T19:59:52Z</time>
  <course>175.16</course>
  <speed>26.49</speed>
  <fix>3d</fix>
</trkpt>
<trkpt lat="-35.2767692" lon="148.9852833">
  <ele>646.91</ele>
  <time>2026-09-01T19:59:52Z</time>
  <course>175.59</course>
  <speed>26.412620089646538</speed>
  <fix>3d</fix>
</trkpt>
<trkpt lat="-35.276725" lon="148.9852785">
  <ele>646.78</ele>
  <time>2026-09-01T19:59:52Z</time>
  <course>175.22</course>
  <speed>26.45</speed>
  <fix>3d</fix>
</trkpt>
<trkpt lat="-35.2767926" lon="148.9852857">
  <ele>647.03</ele>
  <time>2026-09-01T19:59:52Z</time>
  <course>175.61</course>
  <speed>26.38188962148087</speed>
  <fix>3d</fix>
</trkpt>
<trkpt lat="-35.276725" lon="148.9852785">
  <ele>646.78</ele>
  <time>2026-09-01T19:59:52Z</time>
  <course>175.22</course>
  <speed>26.45</speed>
  <fix>3d</fix>
</trkpt>
<trkpt lat="-35.2768162" lon="148.9852881">
  <ele>647.16</ele>
  <time>2026-09-01T19:59:52Z</time>
  <course>175.59</course>
  <speed>26.360297798014344</speed>
  <fix>3d</fix>
</trkpt>
<trkpt lat="-35.2767723" lon="148.9852833">
  <ele>647.03</ele>
  <time>2026-09-01T19:59:52Z</time>
  <course>175.28</course>
  <speed>26.41</speed>
  <fix>3d</fix>
</trkpt>
<trkpt lat="-35.2768397" lon="148.9852904">
  <ele>647.29</ele>
  <time>2026-09-01T19:59:52Z</time>
  <course>175.6</course>
  <speed>26.330400680582134</speed>
  <fix>3d</fix>
</trkpt>
<trkpt lat="-35.2767723" lon="148.9852833">
  <ele>647.03</ele>
  <time>2026-09-01T19:59:52Z</time>
  <course>175.28</course>
  <speed>26.41</speed>
  <fix>3d</fix>
</trkpt>
<trkpt lat="-35.276863" lon="148.9852928">
  <ele>647.41</ele>
  <time>2026-09-01T19:59:52Z</time>
  <course>175.64</course>
  <speed>26.308819813895113</speed>
  <fix>3d</fix>
</trkpt>
<trkpt lat="-35.2768195" lon="148.9852881">
  <ele>647.28</ele>
  <time>2026-09-01T19:59:52Z</time>
  <course>175.33</course>
  <speed>26.37</speed>
  <fix>3d</fix>
</trkpt>
<trkpt lat="-35.2768864" lon="148.9852951">
  <ele>647.53</ele>
  <time>2026-09-01T19:59:52Z</time>
  <course>175.66</course>
  <speed>26.288067635335995</speed>
  <fix>3d</fix>
</trkpt>
<trkpt lat="-35.2768195" lon="148.9852881">
  <ele>647.28</ele>
  <time>2026-09-01T19:59:52Z</time>
  <course>175.33</course>
  <speed>26.37</speed>
  <fix>3d</fix>
</trkpt>
<trkpt lat="-35.2769099" lon="148.9852974">
  <ele>647.65</ele>
  <time>2026-09-01T19:59:52Z</time>
  <course>175.66</course>
  <speed>26.267318096828994</speed>
  <fix>3d</fix>
</trkpt>
<trkpt lat="-35.2768668" lon="148.9852928">
  <ele>647.53</ele>
  <time>2026-09-01T19:59:52Z</time>
  <course>175.37</course>
  <speed>26.34</speed>
  <fix>3d</fix>
</trkpt>
<trkpt lat="-35.2769334" lon="148.9852997">
  <ele>647.76</ele>
  <time>2026-09-01T19:59:52Z</time>
  <course>175.69</course>
  <speed>26.25653823336199</speed>
  <fix>3d</fix>
</trkpt>
<trkpt lat="-35.2768668" lon="148.9852928">
  <ele>647.53</ele>
  <time>2026-09-01T19:59:52Z</time>
  <course>175.37</course>
  <speed>26.34</speed>
  <fix>3d</fix>
</trkpt>
<trkpt lat="-35.276957" lon="148.985302">
  <ele>647.88</ele>
  <time>2026-09-01T19:59:52Z</time>
  <course>175.71</course>
  <speed>26.246571204635476</speed>
  <fix>3d</fix>
</trkpt>
<trkpt lat="-35.276914" lon="148.9852975">
  <ele>647.76</ele>
  <time>2026-09-01T19:59:52Z</time>
  <course>175.4</course>
  <speed>26.3</speed>
  <fix>3d</fix>
</trkpt>
<trkpt lat="-35.2769806" lon="148.9853043">
  <ele>648.0</ele>
  <time>2026-09-01T19:59:52Z</time>
  <course>175.65</course>
  <speed>26.23660420100132</speed>
  <fix>3d</fix>
</trkpt>
<trkpt lat="-35.276914" lon="148.9852975">
  <ele>647.76</ele>
  <time>2026-09-01T19:59:52Z</time>
  <course>175.4</course>
  <speed>26.3</speed>
  <fix>3d</fix>
</trkpt>
<trkpt lat="-35.2770041" lon="148.9853066">
  <ele>648.11</ele>
  <time>2026-09-01T19:59:52Z</time>
  <course>175.64</course>
  <speed>26.22582696503582</speed>
  <fix>3d</fix>
</trkpt>
<trkpt lat="-35.276961" lon="148.9853021">
  <ele>647.99</ele>
  <time>2026-09-01T19:59:52Z</time>
  <course>175.43</course>
  <speed>26.27</speed>
  <fix>3d</fix>
</trkpt>
<trkpt lat="-35.2770277" lon="148.985309">
  <ele>648.22</ele>
  <time>2026-09-01T19:59:52Z</time>
  <course>175.72</course>
  <speed>26.215859703622158</speed>
  <fix>3d</fix>
</trkpt>
<trkpt lat="-35.276961" lon="148.9853021">
  <ele>647.99</ele>
  <time>2026-09-01T19:59:52Z</time>
  <course>175.43</course>
  <speed>26.27</speed>
  <fix>3d</fix>
</trkpt>
<trkpt lat="-35.2770513" lon="148.9853113">
  <ele>648.33</ele>
  <time>2026-09-01T19:59:52Z</time>
  <course>175.78</course>
  <speed>26.205085384329507</speed>
  <fix>3d</fix>
</trkpt>
<trkpt lat="-35.2770081" lon="148.9853067">
  <ele>648.22</ele>
  <time>2026-09-01T19:59:52Z</time>
  <course>175.44</course>
  <speed>26.24</speed>
  <fix>3d</fix>
</trkpt>
<trkpt lat="-35.2770748" lon="148.9853135">
  <ele>648.44</ele>
  <time>2026-09-01T19:59:52Z</time>
  <course>175.82</course>
  <speed>26.204282092818342</speed>
  <fix>3d</fix>
</trkpt>
<trkpt lat="-35.2770081" lon="148.9853067">
  <ele>648.22</ele>
  <time>2026-09-01T19:59:52Z</time>
  <course>175.44</course>
  <speed>26.24</speed>
  <fix>3d</fix>
</trkpt>
<trkpt lat="-35.2770986" lon="148.9853158">
  <ele>648.56</ele>
  <time>2026-09-01T19:59:52Z</time>
  <course>175.88</course>
  <speed>26.193514464462382</speed>
  <fix>3d</fix>
</trkpt>
<trkpt lat="-35.2770551" lon="148.9853112">
  <ele>648.44</ele>
  <time>2026-09-01T19:59:52Z</time>
  <course>175.46</course>
  <speed>26.21</speed>
  <fix>3d</fix>
</trkpt>
<trkpt lat="-35.2771222" lon="148.9853181">
  <ele>648.67</ele>
  <time>2026-09-01T19:59:52Z</time>
  <course>175.83</course>
  <speed>26.19271845379933</speed>
  <fix>3d</fix>
</trkpt>
<trkpt lat="-35.2770551" lon="148.9853112">
  <ele>648.44</ele>
  <time>2026-09-01T19:59:52Z</time>
  <course>175.46</course>
  <speed>26.21</speed>
  <fix>3d</fix>
</trkpt>
<trkpt lat="-35.2771456" lon="148.9853203">
  <ele>648.79</ele>
  <time>2026-09-01T19:59:52Z</time>
  <course>175.77</course>
  <speed>26.181957528038275</speed>
  <fix>3d</fix>
</trkpt>
<trkpt lat="-35.277102" lon="148.9853158">
  <ele>648.66</ele>
  <time>2026-09-01T19:59:52Z</time>
  <course>175.49</course>
  <speed>26.19</speed>
  <fix>3d</fix>
</trkpt>
<trkpt lat="-35.277169" lon="148.9853226">
  <ele>648.91</ele>
  <time>2026-09-01T19:59:52Z</time>
  <course>175.75</course>
  <speed>26.171988843035983</speed>
  <fix>3d</fix>
</trkpt>
<trkpt lat="-35.277102" lon="148.9853158">
  <ele>648.66</ele>
  <time>2026-09-01T19:59:52Z</time>
  <course>175.49</course>
  <speed>26.19</speed>
  <fix>3d</fix>
</trkpt>
<trkpt lat="-35.2771922" lon="148.9853248">
  <ele>649.03</ele>
  <time>2026-09-01T19:59:52Z</time>
  <course>175.8</course>
  <speed>26.15205154476413</speed>
  <fix>3d</fix>
</trkpt>
<trkpt lat="-35.2771489" lon="148.9853203">
  <ele>648.9</ele>
  <time>2026-09-01T19:59:52Z</time>
  <course>175.53</course>
  <speed>26.16</speed>
  <fix>3d</fix>
</trkpt>
<trkpt lat="-35.2772155" lon="148.985327">
  <ele>649.15</ele>
  <time>2026-09-01T19:59:52Z</time>
  <course>175.79</course>
  <speed>26.141293005511415</speed>
  <fix>3d</fix>
</trkpt>
<trkpt lat="-35.2771489" lon="148.9853203">
  <ele>648.9</ele>
  <time>2026-09-01T19:59:52Z</time>
  <course>175.53</course>
  <speed>26.16</speed>
  <fix>3d</fix>
</trkpt>
<trkpt lat="-35.277239" lon="148.9853293">
  <ele>649.28</ele>
  <time>2026-09-01T19:59:52Z</time>
  <course>175.8</course>
  <speed>26.121355248148976</speed>
  <fix>3d</fix>
</trkpt>
<trkpt lat="-35.2771956" lon="148.9853248">
  <ele>649.14</ele>
  <time>2026-09-01T19:59:52Z</time>
  <course>175.54</course>
  <speed>26.14</speed>
  <fix>3d</fix>
</trkpt>
<trkpt lat="-35.2772624" lon="148.9853315">
  <ele>649.41</ele>
  <time>2026-09-01T19:59:52Z</time>
  <course>175.82</course>
  <speed>26.11138640516815</speed>
  <fix>3d</fix>
</trkpt>
<trkpt lat="-35.2771956" lon="148.9853248">
  <ele>649.14</ele>
  <time>2026-09-01T19:59:52Z</time>
  <course>175.54</course>
  <speed>26.14</speed>
  <fix>3d</fix>
</trkpt>
<trkpt lat="-35.277286" lon="148.9853337">
  <ele>649.54</ele>
  <time>2026-09-01T19:59:52Z</time>
  <course>175.83</course>
  <speed>26.100630260589497</speed>
  <fix>3d</fix>
</trkpt>
<trkpt lat="-35.2772425" lon="148.9853293">
  <ele>649.39</ele>
  <time>2026-09-01T19:59:52Z</time>
  <course>175.54</course>
  <speed>26.11</speed>
  <fix>3d</fix>
</trkpt>
<trkpt lat="-35.2773095" lon="148.985336">
  <ele>649.68</ele>
  <time>2026-09-01T19:59:52Z</time>
  <course>175.85</course>
  <speed>26.089877347354474</speed>
  <fix>3d</fix>
</trkpt>
<trkpt lat="-35.2772425" lon="148.9853293">
  <ele>649.39</ele>
  <time>2026-09-01T19:59:52Z</time>
  <course>175.54</course>
  <speed>26.11</speed>
  <fix>3d</fix>
</trkpt>
<trkpt lat="-35.277333" lon="148.9853382">
  <ele>649.81</ele>
  <time>2026-09-01T19:59:52Z</time>
  <course>175.87</course>
  <speed>26.079907975297765</speed>
  <fix>3d</fix>
</trkpt>
<trkpt lat="-35.2772892" lon="148.9853337">
  <ele>649.65</ele>
  <time>2026-09-01T19:59:52Z</time>
  <course>175.56</course>
  <speed>26.08</speed>
  <fix>3d</fix>
</trkpt>
<trkpt lat="-35.2773564" lon="148.9853404">
  <ele>649.95</ele>
  <time>2026-09-01T19:59:52Z</time>
  <course>175.86</course>
  <speed>26.06915802246018</speed>
  <fix>3d</fix>
</trkpt>
<trkpt lat="-35.2772892" lon="148.9853337">
  <ele>649.65</ele>
  <time>2026-09-01T19:59:52Z</time>
  <course>175.56</course>
  <speed>26.08</speed>
  <fix>3d</fix>
</trkpt>
<trkpt lat="-35.2773799" lon="148.9853426">
  <ele>650.09</ele>
  <time>2026-09-01T19:59:52Z</time>
  <course>175.84</course>
  <speed>26.06915802246018</speed>
  <fix>3d</fix>
</trkpt>
<trkpt lat="-35.277336" lon="148.9853382">
  <ele>649.92</ele>
  <time>2026-09-01T19:59:52Z</time>
  <course>175.58</course>
  <speed>26.04</speed>
  <fix>3d</fix>
</trkpt>
<trkpt lat="-35.2774034" lon="148.9853448">
  <ele>650.23</ele>
  <time>2026-09-01T19:59:52Z</time>
  <course>175.83</course>
  <speed>26.058411309978204</speed>
  <fix>3d</fix>
</trkpt>
<trkpt lat="-35.277336" lon="148.9853382">
  <ele>649.92</ele>
  <time>2026-09-01T19:59:52Z</time>
  <course>175.58</course>
  <speed>26.04</speed>
  <fix>3d</fix>
</trkpt>
<trkpt lat="-35.2774267" lon="148.985347">
  <ele>650.38</ele>
  <time>2026-09-01T19:59:52Z</time>
  <course>175.84</course>
  <speed>26.038471537323385</speed>
  <fix>3d</fix>
</trkpt>
<trkpt lat="-35.2773827" lon="148.9853426">
  <ele>650.19</ele>
  <time>2026-09-01T19:59:52Z</time>
  <course>175.6</course>
  <speed>26.01</speed>
  <fix>3d</fix>
</trkpt>
<trkpt lat="-35.27745" lon="148.9853492">
  <ele>650.52</ele>
  <time>2026-09-01T19:59:52Z</time>
  <course>175.87</course>
  <speed>26.028501685652213</speed>
  <fix>3d</fix>
</trkpt>
<trkpt lat="-35.2773827" lon="148.9853426">
  <ele>650.19</ele>
  <time>2026-09-01T19:59:52Z</time>
  <course>175.6</course>
  <speed>26.01</speed>
  <fix>3d</fix>
</trkpt>
<trkpt lat="-35.2774732" lon="148.9853514">
  <ele>650.66</ele>
  <time>2026-09-01T19:59:52Z</time>
  <course>175.89</course>
  <speed>26.008562051755188</speed>
  <fix>3d</fix>
</trkpt>
<trkpt lat="-35.2774292" lon="148.985347">
  <ele>650.47</ele>
  <time>2026-09-01T19:59:52Z</time>
  <course>175.61</course>
  <speed>25.98</speed>
  <fix>3d</fix>
</trkpt>
<trkpt lat="-35.2774964" lon="148.9853536">
  <ele>650.8</ele>
  <time>2026-09-01T19:59:52Z</time>
  <course>175.87</course>
  <speed>25.987847159778358</speed>
  <fix>3d</fix>
</trkpt>
<trkpt lat="-35.2774292" lon="148.985347">
  <ele>650.47</ele>
  <time>2026-09-01T19:59:52Z</time>
  <course>175.61</course>
  <speed>25.98</speed>
  <fix>3d</fix>
</trkpt>
<trkpt lat="-35.2775196" lon="148.9853557">
  <ele>650.95</ele>
  <time>2026-09-01T19:59:52Z</time>
  <course>175.87</course>
  <speed>25.967907116284902</speed>
  <fix>3d</fix>
</trkpt>
<trkpt lat="-35.2774757" lon="148.9853513">
  <ele>650.76</ele>
  <time>2026-09-01T19:59:52Z</time>
  <course>175.61</course>
  <speed>25.95</speed>
  <fix>3d</fix>
</trkpt>
<trkpt lat="-35.2775428" lon="148.9853579">
  <ele>651.09</ele>
  <time>2026-09-01T19:59:52Z</time>
  <course>175.91</course>
  <speed>25.94796716507865</speed>
  <fix>3d</fix>
</trkpt>
<trkpt lat="-35.2774757" lon="148.9853513">
  <ele>650.76</ele>
  <time>2026-09-01T19:59:52Z</time>
  <course>175.61</course>
  <speed>25.95</speed>
  <fix>3d</fix>
</trkpt>
<trkpt lat="-35.2775659" lon="148.9853601">
  <ele>651.24</ele>
  <time>2026-09-01T19:59:52Z</time>
  <course>175.86</course>
  <speed>25.937224215401308</speed>
  <fix>3d</fix>
</trkpt>
<trkpt lat="-35.2775222" lon="148.9853557">
  <ele>651.04</ele>
  <time>2026-09-01T19:59:52Z</time>
  <course>175.61</course>
  <speed>25.92</speed>
  <fix>3d</fix>
</trkpt>
<trkpt lat="-35.277589" lon="148.9853622">
  <ele>651.39</ele>
  <time>2026-09-01T19:59:52Z</time>
  <course>175.86</course>
  <speed>25.916514040279413</speed>
  <fix>3d</fix>
</trkpt>
<trkpt lat="-35.2775222" lon="148.9853557">
  <ele>651.04</ele>
  <time>2026-09-01T19:59:52Z</time>
  <course>175.61</course>
  <speed>25.92</speed>
  <fix>3d</fix>
</trkpt>
<trkpt lat="-35.2776122" lon="148.9853644">
  <ele>651.53</ele>
  <time>2026-09-01T19:59:52Z</time>
  <course>175.88</course>
  <speed>25.916514040279413</speed>
  <fix>3d</fix>
</trkpt>
<trkpt lat="-35.2775685" lon="148.98536">
  <ele>651.33</ele>
  <time>2026-09-01T19:59:52Z</time>
  <course>175.62</course>
  <speed>25.89</speed>
  <fix>3d</fix>
</trkpt>
<trkpt lat="-35.2776355" lon="148.9853666">
  <ele>651.68</ele>
  <time>2026-09-01T19:59:52Z</time>
  <course>175.88</course>
  <speed>25.9057773479199</speed>
  <fix>3d</fix>
</trkpt>
<trkpt lat="-35.2775685" lon="148.98536">
  <ele>651.33</ele>
  <time>2026-09-01T19:59:52Z</time>
  <course>175.62</course>
  <speed>25.89</speed>
  <fix>3d</fix>
</trkpt>
<trkpt lat="-35.2776587" lon="148.9853687">
  <ele>651.82</ele>
  <time>2026-09-01T19:59:52Z</time>
  <course>175.81</course>
  <speed>25.9057773479199</speed>
  <fix>3d</fix>
</trkpt>
<trkpt lat="-35.2776149" lon="148.9853643">
  <ele>651.62</ele>
  <time>2026-09-01T19:59:52Z</time>
  <course>175.63</course>
  <speed>25.87</speed>
  <fix>3d</fix>
</trkpt>
<trkpt lat="-35.277682" lon="148.9853709">
  <ele>651.97</ele>
  <time>2026-09-01T19:59:52Z</time>
  <course>175.78</course>
  <speed>25.906543574934886</speed>
  <fix>3d</fix>
</trkpt>
<trkpt lat="-35.2776149" lon="148.9853643">
  <ele>651.62</ele>
  <time>2026-09-01T19:59:52Z</time>
  <course>175.63</course>
  <speed>25.87</speed>
  <fix>3d</fix>
</trkpt>
<trkpt lat="-35.2777053" lon="148.985373">
  <ele>652.12</ele>
  <time>2026-09-01T19:59:52Z</time>
  <course>175.81</course>
  <speed>25.896573132366374</speed>
  <fix>3d</fix>
</trkpt>
<trkpt lat="-35.2776612" lon="148.9853687">
  <ele>651.91</ele>
  <time>2026-09-01T19:59:52Z</time>
  <course>175.63</course>
  <speed>25.85</speed>
  <fix>3d</fix>
</trkpt>
<trkpt lat="-35.2777286" lon="148.9853752">
  <ele>652.26</ele>
  <time>2026-09-01T19:59:52Z</time>
  <course>175.87</course>
  <speed>25.896573132366374</speed>
  <fix>3d</fix>
</trkpt>
<trkpt lat="-35.2776612" lon="148.9853687">
  <ele>651.91</ele>
  <time>2026-09-01T19:59:52Z</time>
  <course>175.63</course>
  <speed>25.85</speed>
  <fix>3d</fix>
</trkpt>
<trkpt lat="-35.2777518" lon="148.9853774">
  <ele>652.41</ele>
  <time>2026-09-01T19:59:52Z</time>
  <course>175.88</course>
  <speed>25.886602712600197</speed>
  <fix>3d</fix>
</trkpt>
<trkpt lat="-35.2777075" lon="148.985373">
  <ele>652.2</ele>
  <time>2026-09-01T19:59:52Z</time>
  <course>175.62</course>
  <speed>25.83</speed>
  <fix>3d</fix>
</trkpt>
<trkpt lat="-35.2777753" lon="148.9853796">
  <ele>652.56</ele>
  <time>2026-09-01T19:59:52Z</time>
  <course>175.87</course>
  <speed>25.876632315662718</speed>
  <fix>3d</fix>
</trkpt>
<trkpt lat="-35.2777075" lon="148.985373">
  <ele>652.2</ele>
  <time>2026-09-01T19:59:52Z</time>
  <course>175.62</course>
  <speed>25.83</speed>
  <fix>3d</fix>
</trkpt>
<trkpt lat="-35.2777984" lon="148.9853817">
  <ele>652.7</ele>
  <time>2026-09-01T19:59:52Z</time>
  <course>175.92</course>
  <speed>25.876632315662718</speed>
  <fix>3d</fix>
</trkpt>
<trkpt lat="-35.2777538" lon="148.9853774">
  <ele>652.49</ele>
  <time>2026-09-01T19:59:52Z</time>
  <course>175.61</course>
  <speed>25.81</speed>
  <fix>3d</fix>
</trkpt>
<trkpt lat="-35.2778216" lon="148.9853839">
  <ele>652.85</ele>
  <time>2026-09-01T19:59:52Z</time>
  <course>175.91</course>
  <speed>25.865894533149245</speed>
  <fix>3d</fix>
</trkpt>
<trkpt lat="-35.2777538" lon="148.9853774">
  <ele>652.49</ele>
  <time>2026-09-01T19:59:52Z</time>
  <course>175.61</course>
  <speed>25.81</speed>
  <fix>3d</fix>
</trkpt>
<trkpt lat="-35.2778446" lon="148.985386">
  <ele>653.0</ele>
  <time>2026-09-01T19:59:52Z</time>
  <course>175.88</course>
  <speed>25.8459532615843</speed>
  <fix>3d</fix>
</trkpt>
<trkpt lat="-35.2778" lon="148.9853817">
  <ele>652.78</ele>
  <time>2026-09-01T19:59:52Z</time>
  <course>175.61</course>
  <speed>25.79</speed>
  <fix>3d</fix>
</trkpt>
<trkpt lat="-35.2778677" lon="148.9853882">
  <ele>653.15</ele>
  <time>2026-09-01T19:59:52Z</time>
  <course>175.84</course>
  <speed>25.835218210806737</speed>
  <fix>3d</fix>
</trkpt>
<trkpt lat="-35.2778" lon="148.9853817">
  <ele>652.78</ele>
  <time>2026-09-01T19:59:52Z</time>
  <course>175.61</course>
  <speed>25.79</speed>
  <fix>3d</fix>
</trkpt>
<trkpt lat="-35.2778908" lon="148.9853903">
  <ele>653.3</ele>
  <time>2026-09-01T19:59:52Z</time>
  <course>175.87</course>
  <speed>25.835218210806737</speed>
  <fix>3d</fix>
</trkpt>
<trkpt lat="-35.2778462" lon="148.985386">
  <ele>653.07</ele>
  <time>2026-09-01T19:59:52Z</time>
  <course>175.62</course>
  <speed>25.78</speed>
  <fix>3d</fix>
</trkpt>
<trkpt lat="-35.277914" lon="148.9853925">
  <ele>653.44</ele>
  <time>2026-09-01T19:59:52Z</time>
  <course>175.89</course>
  <speed>25.835218210806737</speed>
  <fix>3d</fix>
</trkpt>
<trkpt lat="-35.2778462" lon="148.985386">
  <ele>653.07</ele>
  <time>2026-09-01T19:59:52Z</time>
  <course>175.62</course>
  <speed>25.78</speed>
  <fix>3d</fix>
</trkpt>
<trkpt lat="-35.2779372" lon="148.9853947">
  <ele>653.59</ele>
  <time>2026-09-01T19:59:52Z</time>
  <course>175.85</course>
  <speed>25.825247336666497</speed>
  <fix>3d</fix>
</trkpt>
<trkpt lat="-35.2778925" lon="148.9853904">
  <ele>653.37</ele>
  <time>2026-09-01T19:59:52Z</time>
  <course>175.63</course>
  <speed>25.76</speed>
  <fix>3d</fix>
</trkpt>
<trkpt lat="-35.2779603" lon="148.9853968">
  <ele>653.74</ele>
  <time>2026-09-01T19:59:52Z</time>
  <course>175.85</course>
  <speed>25.82448644213472</speed>
  <fix>3d</fix>
</trkpt>
<trkpt lat="-35.2778925" lon="148.9853904">
  <ele>653.37</ele>
  <time>2026-09-01T19:59:52Z</time>
  <course>175.63</course>
  <speed>25.76</speed>
  <fix>3d</fix>
</trkpt>
<trkpt lat="-35.2779833" lon="148.9853989">
  <ele>653.88</ele>
  <time>2026-09-01T19:59:52Z</time>
  <course>175.82</course>
  <speed>25.81451529663108</speed>
  <fix>3d</fix>
</trkpt>
<trkpt lat="-35.2779386" lon="148.9853947">
  <ele>653.66</ele>
  <time>2026-09-01T19:59:52Z</time>
  <course>175.63</course>
  <speed>25.75</speed>
  <fix>3d</fix>
</trkpt>
<trkpt lat="-35.2780062" lon="148.9854011">
  <ele>654.03</ele>
  <time>2026-09-01T19:59:52Z</time>
  <course>175.81</course>
  <speed>25.804544173459064</speed>
  <fix>3d</fix>
</trkpt>
<trkpt lat="-35.2779386" lon="148.9853947">
  <ele>653.66</ele>
  <time>2026-09-01T19:59:52Z</time>
  <course>175.63</course>
  <speed>25.75</speed>
  <fix>3d</fix>
</trkpt>
<trkpt lat="-35.2780292" lon="148.9854032">
  <ele>654.18</ele>
  <time>2026-09-01T19:59:52Z</time>
  <course>175.76</course>
  <speed>25.79457307264456</speed>
  <fix>3d</fix>
</trkpt>
<trkpt lat="-35.2779847" lon="148.985399">
  <ele>653.95</ele>
  <time>2026-09-01T19:59:52Z</time>
  <course>175.64</course>
  <speed>25.74</speed>
  <fix>3d</fix>
</trkpt>
<trkpt lat="-35.2780522" lon="148.9854053">
  <ele>654.33</ele>
  <time>2026-09-01T19:59:52Z</time>
  <course>175.78</course>
  <speed>25.78460199421352</speed>
  <fix>3d</fix>
</trkpt>
<trkpt lat="-35.2779847" lon="148.985399">
  <ele>653.95</ele>
  <time>2026-09-01T19:59:52Z</time>
  <course>175.64</course>
  <speed>25.74</speed>
  <fix>3d</fix>
</trkpt>
<trkpt lat="-35.2780751" lon="148.9854075">
  <ele>654.48</ele>
  <time>2026-09-01T19:59:52Z</time>
  <course>175.83</course>
  <speed>25.77463093819192</speed>
  <fix>3d</fix>
</trkpt>
<trkpt lat="-35.2780308" lon="148.9854033">
  <ele>654.25</ele>
  <time>2026-09-01T19:59:52Z</time>
  <course>175.64</course>
  <speed>25.73</speed>
  <fix>3d</fix>
</trkpt>
<trkpt lat="-35.2780981" lon="148.9854096">
  <ele>654.63</ele>
  <time>2026-09-01T19:59:52Z</time>
  <course>175.83</course>
  <speed>25.77463093819192</speed>
  <fix>3d</fix>
</trkpt>
<trkpt lat="-35.2780308" lon="148.9854033">
  <ele>654.25</ele>
  <time>2026-09-01T19:59:52Z</time>
  <course>175.64</course>
  <speed>25.73</speed>
  <fix>3d</fix>
</trkpt>
<trkpt lat="-35.2781211" lon="148.9854118">
  <ele>654.78</ele>
  <time>2026-09-01T19:59:52Z</time>
  <course>175.79</course>
  <speed>25.755451850045265</speed>
  <fix>3d</fix>
</trkpt>
<trkpt lat="-35.2780769" lon="148.9854076">
  <ele>654.55</ele>
  <time>2026-09-01T19:59:52Z</time>
  <course>175.62</course>
  <speed>25.72</speed>
  <fix>3d</fix>
</trkpt>
<trkpt lat="-35.2781441" lon="148.9854139">
  <ele>654.94</ele>
  <time>2026-09-01T19:59:52Z</time>
  <course>175.81</course>
  <speed>25.75621866656672</speed>
  <fix>3d</fix>
</trkpt>
<trkpt lat="-35.2780769" lon="148.9854076">
  <ele>654.55</ele>
  <time>2026-09-01T19:59:52Z</time>
  <course>175.62</course>
  <speed>25.72</speed>
  <fix>3d</fix>
</trkpt>
<trkpt lat="-35.2781671" lon="148.9854161">
  <ele>655.09</ele>
  <time>2026-09-01T19:59:52Z</time>
  <course>175.84</course>
  <speed>25.746248270379123</speed>
  <fix>3d</fix>
</trkpt>
<trkpt lat="-35.2781229" lon="148.985412">
  <ele>654.85</ele>
  <time>2026-09-01T19:59:52Z</time>
  <course>175.6</course>
  <speed>25.71</speed>
  <fix>3d</fix>
</trkpt>
<trkpt lat="-35.2781901" lon="148.9854183">
  <ele>655.25</ele>
  <time>2026-09-01T19:59:52Z</time>
  <course>175.76</course>
  <speed>25.7355104864854</speed>
  <fix>3d</fix>
</trkpt>
<trkpt lat="-35.2781229" lon="148.985412">
  <ele>654.85</ele>
  <time>2026-09-01T19:59:52Z</time>
  <course>175.6</course>
  <speed>25.71</speed>
  <fix>3d</fix>
</trkpt>
<trkpt lat="-35.2782131" lon="148.9854205">
  <ele>655.41</ele>
  <time>2026-09-01T19:59:52Z</time>
  <course>175.76</course>
  <speed>25.736277897162985</speed>
  <fix>3d</fix>
</trkpt>
<trkpt lat="-35.278169" lon="148.9854163">
  <ele>655.16</ele>
  <time>2026-09-01T19:59:52Z</time>
  <course>175.59</course>
  <speed>25.7</speed>
  <fix>3d</fix>
</trkpt>
<trkpt lat="-35.2782361" lon="148.9854226">
  <ele>655.57</ele>
  <time>2026-09-01T19:59:52Z</time>
  <course>175.77</course>
  <speed>25.7355104864854</speed>
  <fix>3d</fix>
</trkpt>
<trkpt lat="-35.278169" lon="148.9854163">
  <ele>655.16</ele>
  <time>2026-09-01T19:59:52Z</time>
  <course>175.59</course>
  <speed>25.7</speed>
  <fix>3d</fix>
</trkpt>
<trkpt lat="-35.2782588" lon="148.9854248">
  <ele>655.73</ele>
  <time>2026-09-01T19:59:52Z</time>
  <course>175.77</course>
  <speed>25.725539838844973</speed>
  <fix>3d</fix>
</trkpt>
<trkpt lat="-35.2782151" lon="148.9854207">
  <ele>655.48</ele>
  <time>2026-09-01T19:59:52Z</time>
  <course>175.58</course>
  <speed>25.7</speed>
  <fix>3d</fix>
</trkpt>
<trkpt lat="-35.2782817" lon="148.9854269">
  <ele>655.89</ele>
  <time>2026-09-01T19:59:52Z</time>
  <course>175.84</course>
  <speed>25.71556921399952</speed>
  <fix>3d</fix>
</trkpt>
<trkpt lat="-35.2782151" lon="148.9854207">
  <ele>655.48</ele>
  <time>2026-09-01T19:59:52Z</time>
  <course>175.58</course>
  <speed>25.7</speed>
  <fix>3d</fix>
</trkpt>
<trkpt lat="-35.2783044" lon="148.9854291">
  <ele>656.05</ele>
  <time>2026-09-01T19:59:52Z</time>
  <course>175.85</course>
  <speed>25.694863299889338</speed>
  <fix>3d</fix>
</trkpt>
<trkpt lat="-35.278261" lon="148.985425">
  <ele>655.8</ele>
  <time>2026-09-01T19:59:52Z</time>
  <course>175.59</course>
  <speed>25.69</speed>
  <fix>3d</fix>
</trkpt>
<trkpt lat="-35.2783273" lon="148.9854312">
  <ele>656.22</ele>
  <time>2026-09-01T19:59:52Z</time>
  <course>175.85</course>
  <speed>25.68489244672829</speed>
  <fix>3d</fix>
</trkpt>
<trkpt lat="-35.278261" lon="148.985425">
  <ele>655.8</ele>
  <time>2026-09-01T19:59:52Z</time>
  <course>175.59</course>
  <speed>25.69</speed>
  <fix>3d</fix>
</trkpt>
<trkpt lat="-35.2783502" lon="148.9854334">
  <ele>656.39</ele>
  <time>2026-09-01T19:59:52Z</time>
  <course>175.8</course>
  <speed>25.674921616238677</speed>
  <fix>3d</fix>
</trkpt>
<trkpt lat="-35.2783072" lon="148.9854293">
  <ele>656.12</ele>
  <time>2026-09-01T19:59:52Z</time>
  <course>175.6</course>
  <speed>25.69</speed>
  <fix>3d</fix>
</trkpt>
<trkpt lat="-35.278373" lon="148.9854355">
  <ele>656.56</ele>
  <time>2026-09-01T19:59:52Z</time>
  <course>175.77</course>
  <speed>25.664950808446914</speed>
  <fix>3d</fix>
</trkpt>
<trkpt lat="-35.2783072" lon="148.9854293">
  <ele>656.12</ele>
  <time>2026-09-01T19:59:52Z</time>
  <course>175.6</course>
  <speed>25.69</speed>
  <fix>3d</fix>
</trkpt>
<trkpt lat="-35.278396" lon="148.9854376">
  <ele>656.73</ele>
  <time>2026-09-01T19:59:52Z</time>
  <course>175.74</course>
  <speed>25.654980023379476</speed>
  <fix>3d</fix>
</trkpt>
<trkpt lat="-35.2783533" lon="148.9854336">
  <ele>656.45</ele>
  <time>2026-09-01T19:59:52Z</time>
  <course>175.61</course>
  <speed>25.68</speed>
  <fix>3d</fix>
</trkpt>
<trkpt lat="-35.2784188" lon="148.9854398">
  <ele>656.9</ele>
  <time>2026-09-01T19:59:52Z</time>
  <course>175.68</course>
  <speed>25.645009261062864</speed>
  <fix>3d</fix>
</trkpt>
<trkpt lat="-35.2783533" lon="148.9854336">
  <ele>656.45</ele>
  <time>2026-09-01T19:59:52Z</time>
  <course>175.61</course>
  <speed>25.68</speed>
  <fix>3d</fix>
</trkpt>
<trkpt lat="-35.2784417" lon="148.9854419">
  <ele>657.07</ele>
  <time>2026-09-01T19:59:52Z</time>
  <course>175.72</course>
  <speed>25.645009261062864</speed>
  <fix>3d</fix>
</trkpt>
<trkpt lat="-35.2783992" lon="148.985438">
  <ele>656.79</ele>
  <time>2026-09-01T19:59:52Z</time>
  <course>175.6</course>
  <speed>25.68</speed>
  <fix>3d</fix>
</trkpt>
<trkpt lat="-35.2784646" lon="148.9854441">
  <ele>657.24</ele>
  <time>2026-09-01T19:59:52Z</time>
  <course>175.75</course>
  <speed>25.645009261062864</speed>
  <fix>3d</fix>
</trkpt>
<trkpt lat="-35.2783992" lon="148.985438">
  <ele>656.79</ele>
  <time>2026-09-01T19:59:52Z</time>
  <course>175.6</course>
  <speed>25.68</speed>
  <fix>3d</fix>
</trkpt>
<trkpt lat="-35.2784876" lon="148.9854463">
  <ele>657.41</ele>
  <time>2026-09-01T19:59:52Z</time>
  <course>175.76</course>
  <speed>25.645775480573793</speed>
  <fix>3d</fix>
</trkpt>
<trkpt lat="-35.2784453" lon="148.9854423">
  <ele>657.13</ele>
  <time>2026-09-01T19:59:52Z</time>
  <course>175.58</course>
  <speed>25.68</speed>
  <fix>3d</fix>
</trkpt>
<trkpt lat="-35.2785106" lon="148.9854484">
  <ele>657.58</ele>
  <time>2026-09-01T19:59:52Z</time>
  <course>175.74</course>
  <speed>25.645775480573793</speed>
  <fix>3d</fix>
</trkpt>
<trkpt lat="-35.2784453" lon="148.9854423">
  <ele>657.13</ele>
  <time>2026-09-01T19:59:52Z</time>
  <course>175.58</course>
  <speed>25.68</speed>
  <fix>3d</fix>
</trkpt>
<trkpt lat="-35.2785337" lon="148.9854506">
  <ele>657.75</ele>
  <time>2026-09-01T19:59:52Z</time>
  <course>175.74</course>
  <speed>25.645775480573793</speed>
  <fix>3d</fix>
</trkpt>
<trkpt lat="-35.2784912" lon="148.9854467">
  <ele>657.46</ele>
  <time>2026-09-01T19:59:52Z</time>
  <course>175.58</course>
  <speed>25.68</speed>
  <fix>3d</fix>
</trkpt>
<trkpt lat="-35.2785567" lon="148.9854528">
  <ele>657.92</ele>
  <time>2026-09-01T19:59:52Z</time>
  <course>175.73</course>
  <speed>25.646545576353944</speed>
  <fix>3d</fix>
</trkpt>
<trkpt lat="-35.2784912" lon="148.9854467">
  <ele>657.46</ele>
  <time>2026-09-01T19:59:52Z</time>
  <course>175.58</course>
  <speed>25.68</speed>
  <fix>3d</fix>
</trkpt>
<trkpt lat="-35.2785798" lon="148.985455">
  <ele>658.09</ele>
  <time>2026-09-01T19:59:52Z</time>
  <course>175.71</course>
  <speed>25.6565157416201</speed>
  <fix>3d</fix>
</trkpt>
<trkpt lat="-35.2785372" lon="148.985451">
  <ele>657.8</ele>
  <time>2026-09-01T19:59:52Z</time>
  <course>175.57</course>
  <speed>25.67</speed>
  <fix>3d</fix>
</trkpt>
<trkpt lat="-35.2786028" lon="148.9854572">
  <ele>658.27</ele>
  <time>2026-09-01T19:59:52Z</time>
  <course>175.68</course>
  <speed>25.6565157416201</speed>
  <fix>3d</fix>
</trkpt>
<trkpt lat="-35.2785372" lon="148.985451">
  <ele>657.8</ele>
  <time>2026-09-01T19:59:52Z</time>
  <course>175.57</course>
  <speed>25.67</speed>
  <fix>3d</fix>
</trkpt>
<trkpt lat="-35.2786259" lon="148.9854594">
  <ele>658.45</ele>
  <time>2026-09-01T19:59:52Z</time>
  <course>175.67</course>
  <speed>25.6565157416201</speed>
  <fix>3d</fix>
</trkpt>
<trkpt lat="-35.2785832" lon="148.9854554">
  <ele>658.14</ele>
  <time>2026-09-01T19:59:52Z</time>
  <course>175.56</course>
  <speed>25.67</speed>
  <fix>3d</fix>
</trkpt>
<trkpt lat="-35.2786489" lon="148.9854616">
  <ele>658.63</ele>
  <time>2026-09-01T19:59:52Z</time>
  <course>175.69</course>
  <speed>25.666485930099583</speed>
  <fix>3d</fix>
</trkpt>
<trkpt lat="-35.2785832" lon="148.9854554">
  <ele>658.14</ele>
  <time>2026-09-01T19:59:52Z</time>
  <course>175.56</course>
  <speed>25.67</speed>
  <fix>3d</fix>
</trkpt>
<trkpt lat="-35.278672" lon="148.9854638">
  <ele>658.81</ele>
  <time>2026-09-01T19:59:52Z</time>
  <course>175.7</course>
  <speed>25.666485930099583</speed>
  <fix>3d</fix>
</trkpt>
<trkpt lat="-35.2786292" lon="148.9854598">
  <ele>658.5</ele>
  <time>2026-09-01T19:59:52Z</time>
  <course>175.56</course>
  <speed>25.67</speed>
  <fix>3d</fix>
</trkpt>
<trkpt lat="-35.2786951" lon="148.985466">
  <ele>659.0</ele>
  <time>2026-09-01T19:59:52Z</time>
  <course>175.74</course>
  <speed>25.676456141765357</speed>
  <fix>3d</fix>
</trkpt>
<trkpt lat="-35.2786292" lon="148.9854598">
  <ele>658.5</ele>
  <time>2026-09-01T19:59:52Z</time>
  <course>175.56</course>
  <speed>25.67</speed>
  <fix>3d</fix>
</trkpt>
<trkpt lat="-35.2787181" lon="148.9854682">
  <ele>659.17</ele>
  <time>2026-09-01T19:59:52Z</time>
  <course>175.69</course>
  <speed>25.676456141765357</speed>
  <fix>3d</fix>
</trkpt>
<trkpt lat="-35.2786751" lon="148.9854642">
  <ele>658.86</ele>
  <time>2026-09-01T19:59:52Z</time>
  <course>175.55</course>
  <speed>25.67</speed>
  <fix>3d</fix>
</trkpt>
<trkpt lat="-35.278741" lon="148.9854703">
  <ele>659.35</ele>
  <time>2026-09-01T19:59:52Z</time>
  <course>175.61</course>
  <speed>25.676456141765357</speed>
  <fix>3d</fix>
</trkpt>
<trkpt lat="-35.2786751" lon="148.9854642">
  <ele>658.86</ele>
  <time>2026-09-01T19:59:52Z</time>
  <course>175.55</course>
  <speed>25.67</speed>
  <fix>3d</fix>
</trkpt>
<trkpt lat="-35.2787639" lon="148.9854725">
  <ele>659.53</ele>
  <time>2026-09-01T19:59:52Z</time>
  <course>175.66</course>
  <speed>25.676456141765357</speed>
  <fix>3d</fix>
</trkpt>
<trkpt lat="-35.2787211" lon="148.9854685">
  <ele>659.21</ele>
  <time>2026-09-01T19:59:52Z</time>
  <course>175.55</course>
  <speed>25.67</speed>
  <fix>3d</fix>
</trkpt>
<trkpt lat="-35.2787868" lon="148.9854747">
  <ele>659.72</ele>
  <time>2026-09-01T19:59:52Z</time>
  <course>175.7</course>
  <speed>25.676456141765357</speed>
  <fix>3d</fix>
</trkpt>
<trkpt lat="-35.2787211" lon="148.9854685">
  <ele>659.21</ele>
  <time>2026-09-01T19:59:52Z</time>
  <course>175.55</course>
  <speed>25.67</speed>
  <fix>3d</fix>
</trkpt>
<trkpt lat="-35.2788097" lon="148.9854769">
  <ele>659.9</ele>
  <time>2026-09-01T19:59:52Z</time>
  <course>175.63</course>
  <speed>25.6565157416201</speed>
  <fix>3d</fix>
</trkpt>
<trkpt lat="-35.278767" lon="148.9854729">
  <ele>659.57</ele>
  <time>2026-09-01T19:59:52Z</time>
  <course>175.55</course>
  <speed>25.67</speed>
  <fix>3d</fix>
</trkpt>
<trkpt lat="-35.2788327" lon="148.9854791">
  <ele>660.09</ele>
  <time>2026-09-01T19:59:52Z</time>
  <course>175.69</course>
  <speed>25.646545576353944</speed>
  <fix>3d</fix>
</trkpt>
<trkpt lat="-35.278767" lon="148.9854729">
  <ele>659.57</ele>
  <time>2026-09-01T19:59:52Z</time>
  <course>175.55</course>
  <speed>25.67</speed>
  <fix>3d</fix>
</trkpt>
<trkpt lat="-35.2788555" lon="148.9854812">
  <ele>660.27</ele>
  <time>2026-09-01T19:59:52Z</time>
  <course>175.69</course>
  <speed>25.645775480573793</speed>
  <fix>3d</fix>
</trkpt>
<trkpt lat="-35.2788131" lon="148.9854773">
  <ele>659.93</ele>
  <time>2026-09-01T19:59:52Z</time>
  <course>175.56</course>
  <speed>25.67</speed>
  <fix>3d</fix>
</trkpt>
<trkpt lat="-35.2788783" lon="148.9854834">
  <ele>660.46</ele>
  <time>2026-09-01T19:59:52Z</time>
  <course>175.66</course>
  <speed>25.635805039046463</speed>
  <fix>3d</fix>
</trkpt>
<trkpt lat="-35.2788131" lon="148.9854773">
  <ele>659.93</ele>
  <time>2026-09-01T19:59:52Z</time>
  <course>175.56</course>
  <speed>25.67</speed>
  <fix>3d</fix>
</trkpt>
<trkpt lat="-35.2789019" lon="148.9854856">
  <ele>660.64</ele>
  <time>2026-09-01T19:59:52Z</time>
  <course>175.66</course>
  <speed>25.635805039046463</speed>
  <fix>3d</fix>
</trkpt>
<trkpt lat="-35.2788592" lon="148.9854816">
  <ele>660.3</ele>
  <time>2026-09-01T19:59:52Z</time>
  <course>175.57</course>
  <speed>25.66</speed>
  <fix>3d</fix>
</trkpt>
<trkpt lat="-35.2789246" lon="148.9854878">
  <ele>660.82</ele>
  <time>2026-09-01T19:59:52Z</time>
  <course>175.67</course>
  <speed>25.635805039046463</speed>
  <fix>3d</fix>
</trkpt>
<trkpt lat="-35.2789051" lon="148.985486">
  <ele>660.66</ele>
  <time>2026-09-01T19:59:52Z</time>
  <course>175.58</course>
  <speed>25.67</speed>
  <fix>3d</fix>
</trkpt>
<trkpt lat="-35.2789475" lon="148.9854899">
  <ele>661.0</ele>
  <time>2026-09-01T19:59:52Z</time>
  <course>175.67</course>
  <speed>25.635805039046463</speed>
  <fix>3d</fix>
</trkpt>
<trkpt lat="-35.2789051" lon="148.985486">
  <ele>660.66</ele>
  <time>2026-09-01T19:59:52Z</time>
  <course>175.58</course>
  <speed>25.67</speed>
  <fix>3d</fix>
</trkpt>
<trkpt lat="-35.2789705" lon="148.9854921">
  <ele>661.18</ele>
  <time>2026-09-01T19:59:52Z</time>
  <course>175.64</course>
  <speed>25.635805039046463</speed>
  <fix>3d</fix>
</trkpt>
<trkpt lat="-35.2789511" lon="148.9854904">
  <ele>661.01</ele>
  <time>2026-09-01T19:59:52Z</time>
  <course>175.58</course>
  <speed>25.67</speed>
  <fix>3d</fix>
</trkpt>
<trkpt lat="-35.2789936" lon="148.9854943">
  <ele>661.36</ele>
  <time>2026-09-01T19:59:52Z</time>
  <course>175.67</course>
  <speed>25.635805039046463</speed>
  <fix>3d</fix>
</trkpt>
<trkpt lat="-35.2789511" lon="148.9854904">
  <ele>661.01</ele>
  <time>2026-09-01T19:59:52Z</time>
  <course>175.58</course>
  <speed>25.67</speed>
  <fix>3d</fix>
</trkpt>
<trkpt lat="-35.2790168" lon="148.9854965">
  <ele>661.54</ele>
  <time>2026-09-01T19:59:52Z</time>
  <course>175.68</course>
  <speed>25.645775480573793</speed>
  <fix>3d</fix>
</trkpt>
<trkpt lat="-35.2789971" lon="148.9854947">
  <ele>661.37</ele>
  <time>2026-09-01T19:59:52Z</time>
  <course>175.58</course>
  <speed>25.67</speed>
  <fix>3d</fix>
</trkpt>
<trkpt lat="-35.2790393" lon="148.9854986">
  <ele>661.71</ele>
  <time>2026-09-01T19:59:52Z</time>
  <course>175.69</course>
  <speed>25.65574594510945</speed>
  <fix>3d</fix>
</trkpt>
<trkpt lat="-35.2789971" lon="148.9854947">
  <ele>661.37</ele>
  <time>2026-09-01T19:59:52Z</time>
  <course>175.58</course>
  <speed>25.67</speed>
  <fix>3d</fix>
</trkpt>
<trkpt lat="-35.2790624" lon="148.9855008">
  <ele>661.89</ele>
  <time>2026-09-01T19:59:52Z</time>
  <course>175.7</course>
  <speed>25.665716432626617</speed>
  <fix>3d</fix>
</trkpt>
<trkpt lat="-35.2789971" lon="148.9854947">
  <ele>661.37</ele>
  <time>2026-09-01T19:59:52Z</time>
  <course>175.58</course>
  <speed>25.67</speed>
  <fix>3d</fix>
</trkpt>
<trkpt lat="-35.2790855" lon="148.985503">
  <ele>662.07</ele>
  <time>2026-09-01T19:59:52Z</time>
  <course>175.71</course>
  <speed>25.665716432626617</speed>
  <fix>3d</fix>
</trkpt>
<trkpt lat="-35.279043" lon="148.985499">
  <ele>661.73</ele>
  <time>2026-09-01T19:59:52Z</time>
  <course>175.58</course>
  <speed>25.67</speed>
  <fix>3d</fix>
</trkpt>
<trkpt lat="-35.2791086" lon="148.9855052">
  <ele>662.25</ele>
  <time>2026-09-01T19:59:52Z</time>
  <course>175.7</course>
  <speed>25.674921616238677</speed>
  <fix>3d</fix>
</trkpt>
<trkpt lat="-35.279043" lon="148.985499">
  <ele>661.73</ele>
  <time>2026-09-01T19:59:52Z</time>
  <course>175.58</course>
  <speed>25.67</speed>
  <fix>3d</fix>
</trkpt>
<trkpt lat="-35.2791317" lon="148.9855074">
  <ele>662.43</ele>
  <time>2026-09-01T19:59:52Z</time>
  <course>175.61</course>
  <speed>25.68489244672829</speed>
  <fix>3d</fix>
</trkpt>
<trkpt lat="-35.2790891" lon="148.9855034">
  <ele>662.08</ele>
  <time>2026-09-01T19:59:52Z</time>
  <course>175.59</course>
  <speed>25.68</speed>
  <fix>3d</fix>
</trkpt>
<trkpt lat="-35.2791547" lon="148.9855095">
  <ele>662.62</ele>
  <time>2026-09-01T19:59:52Z</time>
  <course>175.64</course>
  <speed>25.674921616238677</speed>
  <fix>3d</fix>
</trkpt>
<trkpt lat="-35.2790891" lon="148.9855034">
  <ele>662.08</ele>
  <time>2026-09-01T19:59:52Z</time>
  <course>175.59</course>
  <speed>25.68</speed>
  <fix>3d</fix>
</trkpt>
<trkpt lat="-35.2791778" lon="148.9855117">
  <ele>662.8</ele>
  <time>2026-09-01T19:59:52Z</time>
  <course>175.74</course>
  <speed>25.68489244672829</speed>
  <fix>3d</fix>
</trkpt>
<trkpt lat="-35.2791351" lon="148.9855077">
  <ele>662.45</ele>
  <time>2026-09-01T19:59:52Z</time>
  <course>175.6</course>
  <speed>25.67</speed>
  <fix>3d</fix>
</trkpt>
<trkpt lat="-35.2792009" lon="148.9855139">
  <ele>662.98</ele>
  <time>2026-09-01T19:59:52Z</time>
  <course>175.69</course>
  <speed>25.69410243616227</speed>
  <fix>3d</fix>
</trkpt>
<trkpt lat="-35.2791351" lon="148.9855077">
  <ele>662.45</ele>
  <time>2026-09-01T19:59:52Z</time>
  <course>175.6</course>
  <speed>25.67</speed>
  <fix>3d</fix>
</trkpt>
<trkpt lat="-35.2792237" lon="148.985516">
  <ele>663.16</ele>
  <time>2026-09-01T19:59:52Z</time>
  <course>175.69</course>
  <speed>25.69410243616227</speed>
  <fix>3d</fix>
</trkpt>
<trkpt lat="-35.279181" lon="148.985512">
  <ele>662.8</ele>
  <time>2026-09-01T19:59:52Z</time>
  <course>175.61</course>
  <speed>25.67</speed>
  <fix>3d</fix>
</trkpt>
<trkpt lat="-35.2792466" lon="148.9855181">
  <ele>663.34</ele>
  <time>2026-09-01T19:59:52Z</time>
  <course>175.77</course>
  <speed>25.683373999535185</speed>
  <fix>3d</fix>
</trkpt>
<trkpt lat="-35.279181" lon="148.985512">
  <ele>662.8</ele>
  <time>2026-09-01T19:59:52Z</time>
  <course>175.61</course>
  <speed>25.67</speed>
  <fix>3d</fix>
</trkpt>
<trkpt lat="-35.2792695" lon="148.9855202">
  <ele>663.53</ele>
  <time>2026-09-01T19:59:52Z</time>
  <course>175.79</course>
  <speed>25.683373999535185</speed>
  <fix>3d</fix>
</trkpt>
<trkpt lat="-35.279227" lon="148.9855163">
  <ele>663.16</ele>
  <time>2026-09-01T19:59:52Z</time>
  <course>175.63</course>
  <speed>25.67</speed>
  <fix>3d</fix>
</trkpt>
<trkpt lat="-35.2792924" lon="148.9855224">
  <ele>663.71</ele>
  <time>2026-09-01T19:59:52Z</time>
  <course>175.81</course>
  <speed>25.68262058279879</speed>
  <fix>3d</fix>
</trkpt>
<trkpt lat="-35.279227" lon="148.9855163">
  <ele>663.16</ele>
  <time>2026-09-01T19:59:52Z</time>
  <course>175.63</course>
  <speed>25.67</speed>
  <fix>3d</fix>
</trkpt>
<trkpt lat="-35.2793154" lon="148.9855245">
  <ele>663.89</ele>
  <time>2026-09-01T19:59:52Z</time>
  <course>175.77</course>
  <speed>25.671899033768423</speed>
  <fix>3d</fix>
</trkpt>
<trkpt lat="-35.2792731" lon="148.9855206">
  <ele>663.52</ele>
  <time>2026-09-01T19:59:52Z</time>
  <course>175.65</course>
  <speed>25.67</speed>
  <fix>3d</fix>
</trkpt>
<trkpt lat="-35.2793383" lon="148.9855266">
  <ele>664.07</ele>
  <time>2026-09-01T19:59:52Z</time>
  <course>175.7</course>
  <speed>25.662677179125332</speed>
  <fix>3d</fix>
</trkpt>
<trkpt lat="-35.2792731" lon="148.9855206">
  <ele>663.52</ele>
  <time>2026-09-01T19:59:52Z</time>
  <course>175.65</course>
  <speed>25.67</speed>
  <fix>3d</fix>
</trkpt>
<trkpt lat="-35.2793613" lon="148.9855287">
  <ele>664.25</ele>
  <time>2026-09-01T19:59:52Z</time>
  <course>175.78</course>
  <speed>25.662677179125332</speed>
  <fix>3d</fix>
</trkpt>
<trkpt lat="-35.2793191" lon="148.9855249">
  <ele>663.88</ele>
  <time>2026-09-01T19:59:52Z</time>
  <course>175.67</course>
  <speed>25.67</speed>
  <fix>3d</fix>
</trkpt>
<trkpt lat="-35.2793851" lon="148.9855309">
  <ele>664.43</ele>
  <time>2026-09-01T19:59:52Z</time>
  <course>175.82</course>
  <speed>25.66192705156805</speed>
  <fix>3d</fix>
</trkpt>
<trkpt lat="-35.2793651" lon="148.9855292">
  <ele>664.24</ele>
  <time>2026-09-01T19:59:52Z</time>
  <course>175.67</course>
  <speed>25.67</speed>
  <fix>3d</fix>
</trkpt>
<trkpt lat="-35.279408" lon="148.985533">
  <ele>664.61</ele>
  <time>2026-09-01T19:59:52Z</time>
  <course>175.82</course>
  <speed>25.66192705156805</speed>
  <fix>3d</fix>
</trkpt>
<trkpt lat="-35.2793651" lon="148.9855292">
  <ele>664.24</ele>
  <time>2026-09-01T19:59:52Z</time>
  <course>175.67</course>
  <speed>25.67</speed>
  <fix>3d</fix>
</trkpt>
<trkpt lat="-35.2794311" lon="148.9855352">
  <ele>664.79</ele>
  <time>2026-09-01T19:59:52Z</time>
  <course>175.75</course>
  <speed>25.671899033768423</speed>
  <fix>3d</fix>
</trkpt>
<trkpt lat="-35.2794111" lon="148.9855334">
  <ele>664.6</ele>
  <time>2026-09-01T19:59:52Z</time>
  <course>175.68</course>
  <speed>25.66</speed>
  <fix>3d</fix>
</trkpt>
<trkpt lat="-35.2794542" lon="148.9855373">
  <ele>664.97</ele>
  <time>2026-09-01T19:59:52Z</time>
  <course>175.74</course>
  <speed>25.681871037757354</speed>
  <fix>3d</fix>
</trkpt>
<trkpt lat="-35.2794111" lon="148.9855334">
  <ele>664.6</ele>
  <time>2026-09-01T19:59:52Z</time>
  <course>175.68</course>
  <speed>25.66</speed>
  <fix>3d</fix>
</trkpt>
<trkpt lat="-35.2794773" lon="148.9855394">
  <ele>665.14</ele>
  <time>2026-09-01T19:59:52Z</time>
  <course>175.78</course>
  <speed>25.701815110999455</speed>
  <fix>3d</fix>
</trkpt>
<trkpt lat="-35.2794571" lon="148.9855377">
  <ele>664.96</ele>
  <time>2026-09-01T19:59:52Z</time>
  <course>175.7</course>
  <speed>25.67</speed>
  <fix>3d</fix>
</trkpt>
<trkpt lat="-35.2795007" lon="148.9855416">
  <ele>665.31</ele>
  <time>2026-09-01T19:59:52Z</time>
  <course>175.8</course>
  <speed>25.701815110999455</speed>
  <fix>3d</fix>
</trkpt>
<trkpt lat="-35.2794571" lon="148.9855377">
  <ele>664.96</ele>
  <time>2026-09-01T19:59:52Z</time>
  <course>175.7</course>
  <speed>25.67</speed>
  <fix>3d</fix>
</trkpt>
<trkpt lat="-35.2795238" lon="148.9855437">
  <ele>665.48</ele>
  <time>2026-09-01T19:59:52Z</time>
  <course>175.8</course>
  <speed>25.711787180202</speed>
  <fix>3d</fix>
</trkpt>
<trkpt lat="-35.2795031" lon="148.9855419">
  <ele>665.31</ele>
  <time>2026-09-01T19:59:52Z</time>
  <course>175.7</course>
  <speed>25.67</speed>
  <fix>3d</fix>
</trkpt>
<trkpt lat="-35.279547" lon="148.9855458">
  <ele>665.66</ele>
  <time>2026-09-01T19:59:52Z</time>
  <course>175.81</course>
  <speed>25.721014754476542</speed>
  <fix>3d</fix>
</trkpt>
<trkpt lat="-35.2795031" lon="148.9855419">
  <ele>665.31</ele>
  <time>2026-09-01T19:59:52Z</time>
  <course>175.7</course>
  <speed>25.67</speed>
  <fix>3d</fix>
</trkpt>
<trkpt lat="-35.2795701" lon="148.985548">
  <ele>665.84</ele>
  <time>2026-09-01T19:59:52Z</time>
  <course>175.79</course>
  <speed>25.721014754476542</speed>
  <fix>3d</fix>
</trkpt>
<trkpt lat="-35.279549" lon="148.9855461">
  <ele>665.66</ele>
  <time>2026-09-01T19:59:52Z</time>
  <course>175.72</course>
  <speed>25.67</speed>
  <fix>3d</fix>
</trkpt>
<trkpt lat="-35.2795931" lon="148.9855501">
  <ele>666.01</ele>
  <time>2026-09-01T19:59:52Z</time>
  <course>175.75</course>
  <speed>25.730987155567895</speed>
  <fix>3d</fix>
</trkpt>
<trkpt lat="-35.279549" lon="148.9855461">
  <ele>665.66</ele>
  <time>2026-09-01T19:59:52Z</time>
  <course>175.72</course>
  <speed>25.67</speed>
  <fix>3d</fix>
</trkpt>
<trkpt lat="-35.2796161" lon="148.9855522">
  <ele>666.18</ele>
  <time>2026-09-01T19:59:52Z</time>
  <course>175.72</course>
  <speed>25.721014754476542</speed>
  <fix>3d</fix>
</trkpt>
<trkpt lat="-35.279595" lon="148.9855504">
  <ele>666.01</ele>
  <time>2026-09-01T19:59:52Z</time>
  <course>175.73</course>
  <speed>25.67</speed>
  <fix>3d</fix>
</trkpt>
<trkpt lat="-35.279639" lon="148.9855543">
  <ele>666.36</ele>
  <time>2026-09-01T19:59:52Z</time>
  <course>175.69</course>
  <speed>25.72175927109186</speed>
  <fix>3d</fix>
</trkpt>
<trkpt lat="-35.279595" lon="148.9855504">
  <ele>666.01</ele>
  <time>2026-09-01T19:59:52Z</time>
  <course>175.73</course>
  <speed>25.67</speed>
  <fix>3d</fix>
</trkpt>
<trkpt lat="-35.2796614" lon="148.9855563">
  <ele>666.52</ele>
  <time>2026-09-01T19:59:52Z</time>
  <course>175.69</course>
  <speed>25.72175927109186</speed>
  <fix>3d</fix>
</trkpt>
<trkpt lat="-35.279595" lon="148.9855504">
  <ele>666.01</ele>
  <time>2026-09-01T19:59:52Z</time>
  <course>175.73</course>
  <speed>25.67</speed>
  <fix>3d</fix>
</trkpt>
<trkpt lat="-35.2796841" lon="148.9855584">
  <ele>666.7</ele>
  <time>2026-09-01T19:59:52Z</time>
  <course>175.66</course>
  <speed>25.722507653803895</speed>
  <fix>3d</fix>
</trkpt>
<trkpt lat="-35.279641" lon="148.9855546">
  <ele>666.35</ele>
  <time>2026-09-01T19:59:52Z</time>
  <course>175.71</course>
  <speed>25.68</speed>
  <fix>3d</fix>
</trkpt>
<trkpt lat="-35.279707" lon="148.9855606">
  <ele>666.87</ele>
  <time>2026-09-01T19:59:52Z</time>
  <course>175.74</course>
  <speed>25.712535853159252</speed>
  <fix>3d</fix>
</trkpt>
<trkpt lat="-35.279641" lon="148.9855546">
  <ele>666.35</ele>
  <time>2026-09-01T19:59:52Z</time>
  <course>175.71</course>
  <speed>25.68</speed>
  <fix>3d</fix>
</trkpt>
<trkpt lat="-35.27973" lon="148.9855627">
  <ele>667.04</ele>
  <time>2026-09-01T19:59:52Z</time>
  <course>175.78</course>
  <speed>25.723259902275217</speed>
  <fix>3d</fix>
</trkpt>
<trkpt lat="-35.2796869" lon="148.9855588">
  <ele>666.7</ele>
  <time>2026-09-01T19:59:52Z</time>
  <course>175.68</course>
  <speed>25.68</speed>
  <fix>3d</fix>
</trkpt>
<trkpt lat="-35.2797531" lon="148.9855648">
  <ele>667.22</ele>
  <time>2026-09-01T19:59:52Z</time>
  <course>175.72</course>
  <speed>25.723259902275217</speed>
  <fix>3d</fix>
</trkpt>
<trkpt lat="-35.2796869" lon="148.9855588">
  <ele>666.7</ele>
  <time>2026-09-01T19:59:52Z</time>
  <course>175.68</course>
  <speed>25.68</speed>
  <fix>3d</fix>
</trkpt>
<trkpt lat="-35.2797761" lon="148.985567">
  <ele>667.39</ele>
  <time>2026-09-01T19:59:52Z</time>
  <course>175.73</course>
  <speed>25.73323143330429</speed>
  <fix>3d</fix>
</trkpt>
<trkpt lat="-35.2797331" lon="148.985563">
  <ele>667.05</ele>
  <time>2026-09-01T19:59:52Z</time>
  <course>175.67</course>
  <speed>25.69</speed>
  <fix>3d</fix>
</trkpt>
<trkpt lat="-35.2797994" lon="148.9855691">
  <ele>667.57</ele>
  <time>2026-09-01T19:59:52Z</time>
  <course>175.7</course>
  <speed>25.743202986419544</speed>
  <fix>3d</fix>
</trkpt>
<trkpt lat="-35.2797331" lon="148.985563">
  <ele>667.05</ele>
  <time>2026-09-01T19:59:52Z</time>
  <course>175.67</course>
  <speed>25.69</speed>
  <fix>3d</fix>
</trkpt>
<trkpt lat="-35.2798225" lon="148.9855713">
  <ele>667.74</ele>
  <time>2026-09-01T19:59:52Z</time>
  <course>175.68</course>
  <speed>25.753174561595316</speed>
  <fix>3d</fix>
</trkpt>
<trkpt lat="-35.2797792" lon="148.9855673">
  <ele>667.4</ele>
  <time>2026-09-01T19:59:52Z</time>
  <course>175.67</course>
  <speed>25.7</speed>
  <fix>3d</fix>
</trkpt>
<trkpt lat="-35.2798457" lon="148.9855734">
  <ele>667.91</ele>
  <time>2026-09-01T19:59:52Z</time>
  <course>175.66</course>
  <speed>25.753174561595316</speed>
  <fix>3d</fix>
</trkpt>
<trkpt lat="-35.2797792" lon="148.9855673">
  <ele>667.4</ele>
  <time>2026-09-01T19:59:52Z</time>
  <course>175.67</course>
  <speed>25.7</speed>
  <fix>3d</fix>
</trkpt>
<trkpt lat="-35.2798696" lon="148.9855756">
  <ele>668.09</ele>
  <time>2026-09-01T19:59:52Z</time>
  <course>175.71</course>
  <speed>25.763146158805995</speed>
  <fix>3d</fix>
</trkpt>
<trkpt lat="-35.2798253" lon="148.9855716">
  <ele>667.75</ele>
  <time>2026-09-01T19:59:52Z</time>
  <course>175.68</course>
  <speed>25.71</speed>
  <fix>3d</fix>
</trkpt>
<trkpt lat="-35.2798925" lon="148.9855778">
  <ele>668.26</ele>
  <time>2026-09-01T19:59:52Z</time>
  <course>175.74</course>
  <speed>25.76239507499254</speed>
  <fix>3d</fix>
</trkpt>
<trkpt lat="-35.2798713" lon="148.9855759">
  <ele>668.09</ele>
  <time>2026-09-01T19:59:52Z</time>
  <course>175.69</course>
  <speed>25.71</speed>
  <fix>3d</fix>
</trkpt>
<trkpt lat="-35.2799157" lon="148.9855799">
  <ele>668.44</ele>
  <time>2026-09-01T19:59:52Z</time>
  <course>175.72</course>
  <speed>25.771620049969698</speed>
  <fix>3d</fix>
</trkpt>
<trkpt lat="-35.2798713" lon="148.9855759">
  <ele>668.09</ele>
  <time>2026-09-01T19:59:52Z</time>
  <course>175.69</course>
  <speed>25.71</speed>
  <fix>3d</fix>
</trkpt>
<trkpt lat="-35.2799388" lon="148.985582">
  <ele>668.62</ele>
  <time>2026-09-01T19:59:52Z</time>
  <course>175.67</course>
  <speed>25.771620049969698</speed>
  <fix>3d</fix>
</trkpt>
<trkpt lat="-35.2799174" lon="148.9855801">
  <ele>668.45</ele>
  <time>2026-09-01T19:59:52Z</time>
  <course>175.71</course>
  <speed>25.71</speed>
  <fix>3d</fix>
</trkpt>
<trkpt lat="-35.2799619" lon="148.9855841">
  <ele>668.8</ele>
  <time>2026-09-01T19:59:52Z</time>
  <course>175.66</course>
  <speed>25.771620049969698</speed>
  <fix>3d</fix>
</trkpt>
<trkpt lat="-35.2799174" lon="148.9855801">
  <ele>668.45</ele>
  <time>2026-09-01T19:59:52Z</time>
  <course>175.71</course>
  <speed>25.71</speed>
  <fix>3d</fix>
</trkpt>
<trkpt lat="-35.2799852" lon="148.9855863">
  <ele>668.99</ele>
  <time>2026-09-01T19:59:52Z</time>
  <course>175.72</course>
  <speed>25.78159227045529</speed>
  <fix>3d</fix>
</trkpt>
<trkpt lat="-35.2799634" lon="148.9855842">
  <ele>668.82</ele>
  <time>2026-09-01T19:59:52Z</time>
  <course>175.74</course>
  <speed>25.71</speed>
  <fix>3d</fix>
</trkpt>
<trkpt lat="-35.2800083" lon="148.9855884">
  <ele>669.18</ele>
  <time>2026-09-01T19:59:52Z</time>
  <course>175.72</course>
  <speed>25.78084948173741</speed>
  <fix>3d</fix>
</trkpt>
<trkpt lat="-35.2799634" lon="148.9855842">
  <ele>668.82</ele>
  <time>2026-09-01T19:59:52Z</time>
  <course>175.74</course>
  <speed>25.71</speed>
  <fix>3d</fix>
</trkpt>
<trkpt lat="-35.2800314" lon="148.9855905">
  <ele>669.37</ele>
  <time>2026-09-01T19:59:52Z</time>
  <course>175.76</course>
  <speed>25.770876973824542</speed>
  <fix>3d</fix>
</trkpt>
<trkpt lat="-35.2800095" lon="148.9855885">
  <ele>669.19</ele>
  <time>2026-09-01T19:59:52Z</time>
  <course>175.74</course>
  <speed>25.71</speed>
  <fix>3d</fix>
</trkpt>
<trkpt lat="-35.2800545" lon="148.9855926">
  <ele>669.55</ele>
  <time>2026-09-01T19:59:52Z</time>
  <course>175.73</course>
  <speed>25.78084948173741</speed>
  <fix>3d</fix>
</trkpt>
<trkpt lat="-35.2800095" lon="148.9855885">
  <ele>669.19</ele>
  <time>2026-09-01T19:59:52Z</time>
  <course>175.74</course>
  <speed>25.71</speed>
  <fix>3d</fix>
</trkpt>
<trkpt lat="-35.2800776" lon="148.9855947">
  <ele>669.74</ele>
  <time>2026-09-01T19:59:52Z</time>
  <course>175.68</course>
  <speed>25.78011055057755</speed>
  <fix>3d</fix>
</trkpt>
<trkpt lat="-35.2800555" lon="148.9855926">
  <ele>669.57</ele>
  <time>2026-09-01T19:59:52Z</time>
  <course>175.76</course>
  <speed>25.71</speed>
  <fix>3d</fix>
</trkpt>
<trkpt lat="-35.2801006" lon="148.9855968">
  <ele>669.93</ele>
  <time>2026-09-01T19:59:52Z</time>
  <course>175.76</course>
  <speed>25.77013775671368</speed>
  <fix>3d</fix>
</trkpt>
<trkpt lat="-35.2800555" lon="148.9855926">
  <ele>669.57</ele>
  <time>2026-09-01T19:59:52Z</time>
  <course>175.76</course>
  <speed>25.71</speed>
  <fix>3d</fix>
</trkpt>
<trkpt lat="-35.2801236" lon="148.9855988">
  <ele>670.13</ele>
  <time>2026-09-01T19:59:52Z</time>
  <course>175.78</course>
  <speed>25.760164983943717</speed>
  <fix>3d</fix>
</trkpt>
<trkpt lat="-35.2801015" lon="148.9855969">
  <ele>669.95</ele>
  <time>2026-09-01T19:59:52Z</time>
  <course>175.78</course>
  <speed>25.7</speed>
  <fix>3d</fix>
</trkpt>
<trkpt lat="-35.2801464" lon="148.9856009">
  <ele>670.32</ele>
  <time>2026-09-01T19:59:52Z</time>
  <course>175.74</course>
  <speed>25.749456304939724</speed>
  <fix>3d</fix>
</trkpt>
<trkpt lat="-35.2801015" lon="148.9855969">
  <ele>669.95</ele>
  <time>2026-09-01T19:59:52Z</time>
  <course>175.78</course>
  <speed>25.7</speed>
  <fix>3d</fix>
</trkpt>
<trkpt lat="-35.2801693" lon="148.985603">
  <ele>670.52</ele>
  <time>2026-09-01T19:59:52Z</time>
  <course>175.67</course>
  <speed>25.740219501783585</speed>
  <fix>3d</fix>
</trkpt>
<trkpt lat="-35.2801476" lon="148.985601">
  <ele>670.33</ele>
  <time>2026-09-01T19:59:52Z</time>
  <course>175.79</course>
  <speed>25.7</speed>
  <fix>3d</fix>
</trkpt>
<trkpt lat="-35.2801922" lon="148.985605">
  <ele>670.72</ele>
  <time>2026-09-01T19:59:52Z</time>
  <course>175.72</course>
  <speed>25.73024679244255</speed>
  <fix>3d</fix>
</trkpt>
<trkpt lat="-35.2801476" lon="148.985601">
  <ele>670.33</ele>
  <time>2026-09-01T19:59:52Z</time>
  <course>175.79</course>
  <speed>25.7</speed>
  <fix>3d</fix>
</trkpt>
<trkpt lat="-35.280215" lon="148.9856071">
  <ele>670.92</ele>
  <time>2026-09-01T19:59:52Z</time>
  <course>175.75</course>
  <speed>25.721014754476542</speed>
  <fix>3d</fix>
</trkpt>
<trkpt lat="-35.2801936" lon="148.9856052">
  <ele>670.74</ele>
  <time>2026-09-01T19:59:52Z</time>
  <course>175.78</course>
  <speed>25.69</speed>
  <fix>3d</fix>
</trkpt>
<trkpt lat="-35.2802379" lon="148.9856092">
  <ele>671.12</ele>
  <time>2026-09-01T19:59:52Z</time>
  <course>175.79</course>
  <speed>25.711042374824093</speed>
  <fix>3d</fix>
</trkpt>
<trkpt lat="-35.2801936" lon="148.9856052">
  <ele>670.74</ele>
  <time>2026-09-01T19:59:52Z</time>
  <course>175.78</course>
  <speed>25.69</speed>
  <fix>3d</fix>
</trkpt>
<trkpt lat="-35.2802607" lon="148.9856113">
  <ele>671.32</ele>
  <time>2026-09-01T19:59:52Z</time>
  <course>175.85</course>
  <speed>25.701070016635494</speed>
  <fix>3d</fix>
</trkpt>
<trkpt lat="-35.2802397" lon="148.9856093">
  <ele>671.14</ele>
  <time>2026-09-01T19:59:52Z</time>
  <course>175.76</course>
  <speed>25.69</speed>
  <fix>3d</fix>
</trkpt>
<trkpt lat="-35.2802837" lon="148.9856134">
  <ele>671.52</ele>
  <time>2026-09-01T19:59:52Z</time>
  <course>175.84</course>
  <speed>25.700328791671126</speed>
  <fix>3d</fix>
</trkpt>
<trkpt lat="-35.2802397" lon="148.9856093">
  <ele>671.14</ele>
  <time>2026-09-01T19:59:52Z</time>
  <course>175.76</course>
  <speed>25.69</speed>
  <fix>3d</fix>
</trkpt>
<trkpt lat="-35.2803061" lon="148.9856154">
  <ele>671.72</ele>
  <time>2026-09-01T19:59:52Z</time>
  <course>175.83</course>
  <speed>25.690356167246883</speed>
  <fix>3d</fix>
</trkpt>
<trkpt lat="-35.2802397" lon="148.9856093">
  <ele>671.14</ele>
  <time>2026-09-01T19:59:52Z</time>
  <course>175.76</course>
  <speed>25.69</speed>
  <fix>3d</fix>
</trkpt>
<trkpt lat="-35.2803299" lon="148.9856175">
  <ele>671.94</ele>
  <time>2026-09-01T19:59:52Z</time>
  <course>175.83</course>
  <speed>25.689618525778073</speed>
  <fix>3d</fix>
</trkpt>
<trkpt lat="-35.2802858" lon="148.9856135">
  <ele>671.54</ele>
  <time>2026-09-01T19:59:52Z</time>
  <course>175.76</course>
  <speed>25.68</speed>
  <fix>3d</fix>
</trkpt>
<trkpt lat="-35.2803529" lon="148.9856196">
  <ele>672.15</ele>
  <time>2026-09-01T19:59:52Z</time>
  <course>175.88</course>
  <speed>25.67891158129565</speed>
  <fix>3d</fix>
</trkpt>
<trkpt lat="-35.2803319" lon="148.9856176">
  <ele>671.95</ele>
  <time>2026-09-01T19:59:52Z</time>
  <course>175.79</course>
  <speed>25.67</speed>
  <fix>3d</fix>
</trkpt>
<trkpt lat="-35.2803757" lon="148.9856216">
  <ele>672.36</ele>
  <time>2026-09-01T19:59:52Z</time>
  <course>175.88</course>
  <speed>25.668207962380233</speed>
  <fix>3d</fix>
</trkpt>
<trkpt lat="-35.2803319" lon="148.9856176">
  <ele>671.95</ele>
  <time>2026-09-01T19:59:52Z</time>
  <course>175.79</course>
  <speed>25.67</speed>
  <fix>3d</fix>
</trkpt>
<trkpt lat="-35.2803987" lon="148.9856237">
  <ele>672.58</ele>
  <time>2026-09-01T19:59:52Z</time>
  <course>175.77</course>
  <speed>25.657507673193827</speed>
  <fix>3d</fix>
</trkpt>
<trkpt lat="-35.2803779" lon="148.9856218">
  <ele>672.37</ele>
  <time>2026-09-01T19:59:52Z</time>
  <course>175.82</course>
  <speed>25.66</speed>
  <fix>3d</fix>
</trkpt>
<trkpt lat="-35.2804216" lon="148.9856257">
  <ele>672.8</ele>
  <time>2026-09-01T19:59:52Z</time>
  <course>175.72</course>
  <speed>25.658234545658047</speed>
  <fix>3d</fix>
</trkpt>
<trkpt lat="-35.2803779" lon="148.9856218">
  <ele>672.37</ele>
  <time>2026-09-01T19:59:52Z</time>
  <course>175.82</course>
  <speed>25.66</speed>
  <fix>3d</fix>
</trkpt>
<trkpt lat="-35.2804445" lon="148.9856278">
  <ele>673.02</ele>
  <time>2026-09-01T19:59:52Z</time>
  <course>175.7</course>
  <speed>25.658234545658047</speed>
  <fix>3d</fix>
</trkpt>
<trkpt lat="-35.2804238" lon="148.9856259">
  <ele>672.81</ele>
  <time>2026-09-01T19:59:52Z</time>
  <course>175.83</course>
  <speed>25.65</speed>
  <fix>3d</fix>
</trkpt>
<trkpt lat="-35.2804676" lon="148.9856298">
  <ele>673.24</ele>
  <time>2026-09-01T19:59:53Z</time>
  <course>175.73</course>
  <speed>25.64899218292992</speed>
  <fix>3d</fix>
</trkpt>
<trkpt lat="-35.2804238" lon="148.9856259">
  <ele>672.81</ele>
  <time>2026-09-01T19:59:53Z</time>
  <course>175.83</course>
  <speed>25.65</speed>
  <fix>3d</fix>
</trkpt>
<trkpt lat="-35.2804905" lon="148.9856319">
  <ele>673.46</ele>
  <time>2026-09-01T19:59:53Z</time>
  <course>175.77</course>
  <speed>25.63901909200116</speed>
  <fix>3d</fix>
</trkpt>
<trkpt lat="-35.2804697" lon="148.98563">
  <ele>673.25</ele>
  <time>2026-09-01T19:59:53Z</time>
  <course>175.81</course>
  <speed>25.65</speed>
  <fix>3d</fix>
</trkpt>
<trkpt lat="-35.2805136" lon="148.985634">
  <ele>673.69</ele>
  <time>2026-09-01T19:59:53Z</time>
  <course>175.8</course>
  <speed>25.63901909200116</speed>
  <fix>3d</fix>
</trkpt>
<trkpt lat="-35.2804697" lon="148.98563">
  <ele>673.25</ele>
  <time>2026-09-01T19:59:53Z</time>
  <course>175.81</course>
  <speed>25.65</speed>
  <fix>3d</fix>
</trkpt>
<trkpt lat="-35.2805366" lon="148.9856361">
  <ele>673.92</ele>
  <time>2026-09-01T19:59:53Z</time>
  <course>175.84</course>
  <speed>25.629046022043035</speed>
  <fix>3d</fix>
</trkpt>
<trkpt lat="-35.2805156" lon="148.9856341">
  <ele>673.69</ele>
  <time>2026-09-01T19:59:53Z</time>
  <course>175.8</course>
  <speed>25.63</speed>
  <fix>3d</fix>
</trkpt>
<trkpt lat="-35.2805597" lon="148.9856381">
  <ele>674.16</ele>
  <time>2026-09-01T19:59:53Z</time>
  <course>175.81</course>
  <speed>25.63901909200116</speed>
  <fix>3d</fix>
</trkpt>
<trkpt lat="-35.2805156" lon="148.9856341">
  <ele>673.69</ele>
  <time>2026-09-01T19:59:53Z</time>
  <course>175.8</course>
  <speed>25.63</speed>
  <fix>3d</fix>
</trkpt>
<trkpt lat="-35.2805828" lon="148.9856402">
  <ele>674.39</ele>
  <time>2026-09-01T19:59:53Z</time>
  <course>175.77</course>
  <speed>25.63901909200116</speed>
  <fix>3d</fix>
</trkpt>
<trkpt lat="-35.2805616" lon="148.9856383">
  <ele>674.16</ele>
  <time>2026-09-01T19:59:53Z</time>
  <course>175.81</course>
  <speed>25.62</speed>
  <fix>3d</fix>
</trkpt>
<trkpt lat="-35.280606" lon="148.9856423">
  <ele>674.63</ele>
  <time>2026-09-01T19:59:53Z</time>
  <course>175.75</course>
  <speed>25.63901909200116</speed>
  <fix>3d</fix>
</trkpt>
<trkpt lat="-35.2805616" lon="148.9856383">
  <ele>674.16</ele>
  <time>2026-09-01T19:59:53Z</time>
  <course>175.81</course>
  <speed>25.62</speed>
  <fix>3d</fix>
</trkpt>
<trkpt lat="-35.2806291" lon="148.9856444">
  <ele>674.87</ele>
  <time>2026-09-01T19:59:53Z</time>
  <course>175.77</course>
  <speed>25.63901909200116</speed>
  <fix>3d</fix>
</trkpt>
<trkpt lat="-35.2806075" lon="148.9856424">
  <ele>674.63</ele>
  <time>2026-09-01T19:59:53Z</time>
  <course>175.81</course>
  <speed>25.61</speed>
  <fix>3d</fix>
</trkpt>
<trkpt lat="-35.2806522" lon="148.9856464">
  <ele>675.11</ele>
  <time>2026-09-01T19:59:53Z</time>
  <course>175.84</course>
  <speed>25.648261149637413</speed>
  <fix>3d</fix>
</trkpt>
<trkpt lat="-35.2806075" lon="148.9856424">
  <ele>674.63</ele>
  <time>2026-09-01T19:59:53Z</time>
  <course>175.81</course>
  <speed>25.61</speed>
  <fix>3d</fix>
</trkpt>
<trkpt lat="-35.2806753" lon="148.9856485">
  <ele>675.35</ele>
  <time>2026-09-01T19:59:53Z</time>
  <course>175.72</course>
  <speed>25.638287774342498</speed>
  <fix>3d</fix>
</trkpt>
<trkpt lat="-35.2806533" lon="148.9856465">
  <ele>675.11</ele>
  <time>2026-09-01T19:59:53Z</time>
  <course>175.83</course>
  <speed>25.59</speed>
  <fix>3d</fix>
</trkpt>
<trkpt lat="-35.2806984" lon="148.9856506">
  <ele>675.6</ele>
  <time>2026-09-01T19:59:53Z</time>
  <course>175.71</course>
  <speed>25.638287774342498</speed>
  <fix>3d</fix>
</trkpt>
<trkpt lat="-35.2806533" lon="148.9856465">
  <ele>675.11</ele>
  <time>2026-09-01T19:59:53Z</time>
  <course>175.83</course>
  <speed>25.59</speed>
  <fix>3d</fix>
</trkpt>
<trkpt lat="-35.2807215" lon="148.9856526">
  <ele>675.84</ele>
  <time>2026-09-01T19:59:53Z</time>
  <course>175.77</course>
  <speed>25.638287774342498</speed>
  <fix>3d</fix>
</trkpt>
<trkpt lat="-35.2806992" lon="148.9856505">
  <ele>675.59</ele>
  <time>2026-09-01T19:59:53Z</time>
  <course>175.84</course>
  <speed>25.58</speed>
  <fix>3d</fix>
</trkpt>
<trkpt lat="-35.2807444" lon="148.9856547">
  <ele>676.07</ele>
  <time>2026-09-01T19:59:53Z</time>
  <course>175.81</course>
  <speed>25.63756033635026</speed>
  <fix>3d</fix>
</trkpt>
<trkpt lat="-35.2806992" lon="148.9856505">
  <ele>675.59</ele>
  <time>2026-09-01T19:59:53Z</time>
  <course>175.84</course>
  <speed>25.58</speed>
  <fix>3d</fix>
</trkpt>
<trkpt lat="-35.2807674" lon="148.9856567">
  <ele>676.31</ele>
  <time>2026-09-01T19:59:53Z</time>
  <course>175.86</course>
  <speed>25.626862859117185</speed>
  <fix>3d</fix>
</trkpt>
<trkpt lat="-35.2807452" lon="148.9856546">
  <ele>676.07</ele>
  <time>2026-09-01T19:59:53Z</time>
  <course>175.86</course>
  <speed>25.56</speed>
  <fix>3d</fix>
</trkpt>
<trkpt lat="-35.2807902" lon="148.9856587">
  <ele>676.54</ele>
  <time>2026-09-01T19:59:53Z</time>
  <course>175.85</course>
  <speed>25.626142901341982</speed>
  <fix>3d</fix>
</trkpt>
<trkpt lat="-35.2807452" lon="148.9856546">
  <ele>676.07</ele>
  <time>2026-09-01T19:59:53Z</time>
  <course>175.86</course>
  <speed>25.56</speed>
  <fix>3d</fix>
</trkpt>
<trkpt lat="-35.2808131" lon="148.9856607">
  <ele>676.77</ele>
  <time>2026-09-01T19:59:53Z</time>
  <course>175.71</course>
  <speed>25.626142901341982</speed>
  <fix>3d</fix>
</trkpt>
<trkpt lat="-35.2807909" lon="148.9856586">
  <ele>676.54</ele>
  <time>2026-09-01T19:59:53Z</time>
  <course>175.89</course>
  <speed>25.56</speed>
  <fix>3d</fix>
</trkpt>
<trkpt lat="-35.2808359" lon="148.9856627">
  <ele>677.0</ele>
  <time>2026-09-01T19:59:53Z</time>
  <course>175.67</course>
  <speed>25.61688896021529</speed>
  <fix>3d</fix>
</trkpt>
<trkpt lat="-35.2807909" lon="148.9856586">
  <ele>676.54</ele>
  <time>2026-09-01T19:59:53Z</time>
  <course>175.89</course>
  <speed>25.56</speed>
  <fix>3d</fix>
</trkpt>
<trkpt lat="-35.2808588" lon="148.9856647">
  <ele>677.21</ele>
  <time>2026-09-01T19:59:53Z</time>
  <course>175.68</course>
  <speed>25.61688896021529</speed>
  <fix>3d</fix>
</trkpt>
<trkpt lat="-35.2808368" lon="148.9856627">
  <ele>676.99</ele>
  <time>2026-09-01T19:59:53Z</time>
  <course>175.88</course>
  <speed>25.56</speed>
  <fix>3d</fix>
</trkpt>
<trkpt lat="-35.2808816" lon="148.9856667">
  <ele>677.43</ele>
  <time>2026-09-01T19:59:53Z</time>
  <course>175.77</course>
  <speed>25.617613081628036</speed>
  <fix>3d</fix>
</trkpt>
<trkpt lat="-35.2808368" lon="148.9856627">
  <ele>676.99</ele>
  <time>2026-09-01T19:59:53Z</time>
  <course>175.88</course>
  <speed>25.56</speed>
  <fix>3d</fix>
</trkpt>
<trkpt lat="-35.2809044" lon="148.9856688">
  <ele>677.64</ele>
  <time>2026-09-01T19:59:53Z</time>
  <course>175.79</course>
  <speed>25.617613081628036</speed>
  <fix>3d</fix>
</trkpt>
<trkpt lat="-35.2808826" lon="148.9856668">
  <ele>677.42</ele>
  <time>2026-09-01T19:59:53Z</time>
  <course>175.85</course>
  <speed>25.57</speed>
  <fix>3d</fix>
</trkpt>
<trkpt lat="-35.2809273" lon="148.9856708">
  <ele>677.85</ele>
  <time>2026-09-01T19:59:53Z</time>
  <course>175.79</course>
  <speed>25.61688896021529</speed>
  <fix>3d</fix>
</trkpt>
<trkpt lat="-35.2808826" lon="148.9856668">
  <ele>677.42</ele>
  <time>2026-09-01T19:59:53Z</time>
  <course>175.85</course>
  <speed>25.57</speed>
  <fix>3d</fix>
</trkpt>
<trkpt lat="-35.2809503" lon="148.9856728">
  <ele>678.06</ele>
  <time>2026-09-01T19:59:53Z</time>
  <course>175.76</course>
  <speed>25.617613081628036</speed>
  <fix>3d</fix>
</trkpt>
<trkpt lat="-35.2809283" lon="148.9856708">
  <ele>677.83</ele>
  <time>2026-09-01T19:59:53Z</time>
  <course>175.85</course>
  <speed>25.58</speed>
  <fix>3d</fix>
</trkpt>
<trkpt lat="-35.2809733" lon="148.9856749">
  <ele>678.27</ele>
  <time>2026-09-01T19:59:53Z</time>
  <course>175.77</course>
  <speed>25.627586698711994</speed>
  <fix>3d</fix>
</trkpt>
<trkpt lat="-35.2809283" lon="148.9856708">
  <ele>677.83</ele>
  <time>2026-09-01T19:59:53Z</time>
  <course>175.85</course>
  <speed>25.58</speed>
  <fix>3d</fix>
</trkpt>
<trkpt lat="-35.2809963" lon="148.9856769">
  <ele>678.48</ele>
  <time>2026-09-01T19:59:53Z</time>
  <course>175.82</course>
  <speed>25.638287774342498</speed>
  <fix>3d</fix>
</trkpt>
<trkpt lat="-35.2809742" lon="148.9856749">
  <ele>678.25</ele>
  <time>2026-09-01T19:59:53Z</time>
  <course>175.84</course>
  <speed>25.6</speed>
  <fix>3d</fix>
</trkpt>
<trkpt lat="-35.2810193" lon="148.985679">
  <ele>678.68</ele>
  <time>2026-09-01T19:59:53Z</time>
  <course>175.83</course>
  <speed>25.648261149637413</speed>
  <fix>3d</fix>
</trkpt>
<trkpt lat="-35.2809742" lon="148.9856749">
  <ele>678.25</ele>
  <time>2026-09-01T19:59:53Z</time>
  <course>175.84</course>
  <speed>25.6</speed>
  <fix>3d</fix>
</trkpt>
<trkpt lat="-35.2810423" lon="148.985681">
  <ele>678.9</ele>
  <time>2026-09-01T19:59:53Z</time>
  <course>175.82</course>
  <speed>25.658234545658047</speed>
  <fix>3d</fix>
</trkpt>
<trkpt lat="-35.2810201" lon="148.985679">
  <ele>678.67</ele>
  <time>2026-09-01T19:59:53Z</time>
  <course>175.84</course>
  <speed>25.61</speed>
  <fix>3d</fix>
</trkpt>
<trkpt lat="-35.2810654" lon="148.9856831">
  <ele>679.11</ele>
  <time>2026-09-01T19:59:53Z</time>
  <course>175.8</course>
  <speed>25.66748137235128</speed>
  <fix>3d</fix>
</trkpt>
<trkpt lat="-35.2810201" lon="148.985679">
  <ele>678.67</ele>
  <time>2026-09-01T19:59:53Z</time>
  <course>175.84</course>
  <speed>25.61</speed>
  <fix>3d</fix>
</trkpt>
<trkpt lat="-35.2810885" lon="148.9856851">
  <ele>679.33</ele>
  <time>2026-09-01T19:59:53Z</time>
  <course>175.75</course>
  <speed>25.678181399779852</speed>
  <fix>3d</fix>
</trkpt>
<trkpt lat="-35.281066" lon="148.9856831">
  <ele>679.09</ele>
  <time>2026-09-01T19:59:53Z</time>
  <course>175.85</course>
  <speed>25.62</speed>
  <fix>3d</fix>
</trkpt>
<trkpt lat="-35.2811116" lon="148.9856872">
  <ele>679.55</ele>
  <time>2026-09-01T19:59:53Z</time>
  <course>175.78</course>
  <speed>25.688154857832824</speed>
  <fix>3d</fix>
</trkpt>
<trkpt lat="-35.281066" lon="148.9856831">
  <ele>679.09</ele>
  <time>2026-09-01T19:59:53Z</time>
  <course>175.85</course>
  <speed>25.62</speed>
  <fix>3d</fix>
</trkpt>
<trkpt lat="-35.2811347" lon="148.9856892">
  <ele>679.78</ele>
  <time>2026-09-01T19:59:53Z</time>
  <course>175.77</course>
  <speed>25.687428832018202</speed>
  <fix>3d</fix>
</trkpt>
<trkpt lat="-35.2811119" lon="148.9856871">
  <ele>679.53</ele>
  <time>2026-09-01T19:59:53Z</time>
  <course>175.87</course>
  <speed>25.63</speed>
  <fix>3d</fix>
</trkpt>
<trkpt lat="-35.2811578" lon="148.9856913">
  <ele>680.01</ele>
  <time>2026-09-01T19:59:53Z</time>
  <course>175.74</course>
  <speed>25.687428832018202</speed>
  <fix>3d</fix>
</trkpt>
<trkpt lat="-35.2811119" lon="148.9856871">
  <ele>679.53</ele>
  <time>2026-09-01T19:59:53Z</time>
  <course>175.87</course>
  <speed>25.63</speed>
  <fix>3d</fix>
</trkpt>
<trkpt lat="-35.2811808" lon="148.9856933">
  <ele>680.24</ele>
  <time>2026-09-01T19:59:53Z</time>
  <course>175.76</course>
  <speed>25.687428832018202</speed>
  <fix>3d</fix>
</trkpt>
<trkpt lat="-35.2811578" lon="148.9856912">
  <ele>679.99</ele>
  <time>2026-09-01T19:59:53Z</time>
  <course>175.88</course>
  <speed>25.63</speed>
  <fix>3d</fix>
</trkpt>
<trkpt lat="-35.2812039" lon="148.9856954">
  <ele>680.48</ele>
  <time>2026-09-01T19:59:53Z</time>
  <course>175.75</course>
  <speed>25.686706678747278</speed>
  <fix>3d</fix>
</trkpt>
<trkpt lat="-35.2811578" lon="148.9856912">
  <ele>679.99</ele>
  <time>2026-09-01T19:59:53Z</time>
  <course>175.88</course>
  <speed>25.63</speed>
  <fix>3d</fix>
</trkpt>
<trkpt lat="-35.2812269" lon="148.9856974">
  <ele>680.72</ele>
  <time>2026-09-01T19:59:53Z</time>
  <course>175.82</course>
  <speed>25.686706678747278</speed>
  <fix>3d</fix>
</trkpt>
<trkpt lat="-35.2812038" lon="148.9856952">
  <ele>680.47</ele>
  <time>2026-09-01T19:59:53Z</time>
  <course>175.89</course>
  <speed>25.62</speed>
  <fix>3d</fix>
</trkpt>
<trkpt lat="-35.2812498" lon="148.9856994">
  <ele>680.97</ele>
  <time>2026-09-01T19:59:53Z</time>
  <course>175.83</course>
  <speed>25.685988398346677</speed>
  <fix>3d</fix>
</trkpt>
<trkpt lat="-35.2812038" lon="148.9856952">
  <ele>680.47</ele>
  <time>2026-09-01T19:59:53Z</time>
  <course>175.89</course>
  <speed>25.62</speed>
  <fix>3d</fix>
</trkpt>
<trkpt lat="-35.2812728" lon="148.9857014">
  <ele>681.22</ele>
  <time>2026-09-01T19:59:53Z</time>
  <course>175.86</course>
  <speed>25.676014098765407</speed>
  <fix>3d</fix>
</trkpt>
<trkpt lat="-35.2812498" lon="148.9856993">
  <ele>680.95</ele>
  <time>2026-09-01T19:59:53Z</time>
  <course>175.9</course>
  <speed>25.62</speed>
  <fix>3d</fix>
</trkpt>
<trkpt lat="-35.2812956" lon="148.9857034">
  <ele>681.47</ele>
  <time>2026-09-01T19:59:53Z</time>
  <course>175.85</course>
  <speed>25.656065559629365</speed>
  <fix>3d</fix>
</trkpt>
<trkpt lat="-35.2812498" lon="148.9856993">
  <ele>680.95</ele>
  <time>2026-09-01T19:59:53Z</time>
  <course>175.9</course>
  <speed>25.62</speed>
  <fix>3d</fix>
</trkpt>
<trkpt lat="-35.2813184" lon="148.9857054">
  <ele>681.72</ele>
  <time>2026-09-01T19:59:53Z</time>
  <course>175.76</course>
  <speed>25.646091320121275</speed>
  <fix>3d</fix>
</trkpt>
<trkpt lat="-35.2812957" lon="148.9857033">
  <ele>681.45</ele>
  <time>2026-09-01T19:59:53Z</time>
  <course>175.92</course>
  <speed>25.61</speed>
  <fix>3d</fix>
</trkpt>
<trkpt lat="-35.2813412" lon="148.9857074">
  <ele>681.98</ele>
  <time>2026-09-01T19:59:53Z</time>
  <course>175.76</course>
  <speed>25.636117100684338</speed>
  <fix>3d</fix>
</trkpt>
<trkpt lat="-35.2812957" lon="148.9857033">
  <ele>681.45</ele>
  <time>2026-09-01T19:59:53Z</time>
  <course>175.92</course>
  <speed>25.61</speed>
  <fix>3d</fix>
</trkpt>
<trkpt lat="-35.2813641" lon="148.9857094">
  <ele>682.24</ele>
  <time>2026-09-01T19:59:53Z</time>
  <course>175.8</course>
  <speed>25.626142901341982</speed>
  <fix>3d</fix>
</trkpt>
<trkpt lat="-35.2813416" lon="148.9857073">
  <ele>681.96</ele>
  <time>2026-09-01T19:59:53Z</time>
  <course>175.92</course>
  <speed>25.6</speed>
  <fix>3d</fix>
</trkpt>
<trkpt lat="-35.2813868" lon="148.9857114">
  <ele>682.5</ele>
  <time>2026-09-01T19:59:53Z</time>
  <course>175.79</course>
  <speed>25.616168722117678</speed>
  <fix>3d</fix>
</trkpt>
<trkpt lat="-35.2813416" lon="148.9857073">
  <ele>681.96</ele>
  <time>2026-09-01T19:59:53Z</time>
  <course>175.92</course>
  <speed>25.6</speed>
  <fix>3d</fix>
</trkpt>
<trkpt lat="-35.2814095" lon="148.9857134">
  <ele>682.76</ele>
  <time>2026-09-01T19:59:53Z</time>
  <course>175.76</course>
  <speed>25.606194563034936</speed>
  <fix>3d</fix>
</trkpt>
<trkpt lat="-35.2813874" lon="148.9857113">
  <ele>682.48</ele>
  <time>2026-09-01T19:59:53Z</time>
  <course>175.92</course>
  <speed>25.59</speed>
  <fix>3d</fix>
</trkpt>
<trkpt lat="-35.2814324" lon="148.9857154">
  <ele>683.02</ele>
  <time>2026-09-01T19:59:53Z</time>
  <course>175.77</course>
  <speed>25.59622042411731</speed>
  <fix>3d</fix>
</trkpt>
<trkpt lat="-35.2813874" lon="148.9857113">
  <ele>682.48</ele>
  <time>2026-09-01T19:59:53Z</time>
  <course>175.92</course>
  <speed>25.59</speed>
  <fix>3d</fix>
</trkpt>
<trkpt lat="-35.2814553" lon="148.9857174">
  <ele>683.29</ele>
  <time>2026-09-01T19:59:53Z</time>
  <course>175.8</course>
  <speed>25.59622042411731</speed>
  <fix>3d</fix>
</trkpt>
<trkpt lat="-35.2814333" lon="148.9857152">
  <ele>683.0</ele>
  <time>2026-09-01T19:59:53Z</time>
  <course>175.91</course>
  <speed>25.58</speed>
  <fix>3d</fix>
</trkpt>
<trkpt lat="-35.2814783" lon="148.9857194">
  <ele>683.56</ele>
  <time>2026-09-01T19:59:53Z</time>
  <course>175.84</course>
  <speed>25.585529113153008</speed>
  <fix>3d</fix>
</trkpt>
<trkpt lat="-35.2814333" lon="148.9857152">
  <ele>683.0</ele>
  <time>2026-09-01T19:59:53Z</time>
  <course>175.91</course>
  <speed>25.58</speed>
  <fix>3d</fix>
</trkpt>
<trkpt lat="-35.2815012" lon="148.9857214">
  <ele>683.82</ele>
  <time>2026-09-01T19:59:53Z</time>
  <course>175.86</course>
  <speed>25.59550351135918</speed>
  <fix>3d</fix>
</trkpt>
<trkpt lat="-35.2814791" lon="148.9857193">
  <ele>683.52</ele>
  <time>2026-09-01T19:59:53Z</time>
  <course>175.92</course>
  <speed>25.57</speed>
  <fix>3d</fix>
</trkpt>
<trkpt lat="-35.2815244" lon="148.9857234">
  <ele>684.09</ele>
  <time>2026-09-01T19:59:53Z</time>
  <course>175.84</course>
  <speed>25.59550351135918</speed>
  <fix>3d</fix>
</trkpt>
<trkpt lat="-35.2814791" lon="148.9857193">
  <ele>683.52</ele>
  <time>2026-09-01T19:59:53Z</time>
  <course>175.92</course>
  <speed>25.57</speed>
  <fix>3d</fix>
</trkpt>
<trkpt lat="-35.2815474" lon="148.9857254">
  <ele>684.35</ele>
  <time>2026-09-01T19:59:53Z</time>
  <course>175.79</course>
  <speed>25.60476518150479</speed>
  <fix>3d</fix>
</trkpt>
<trkpt lat="-35.2815248" lon="148.9857233">
  <ele>684.05</ele>
  <time>2026-09-01T19:59:53Z</time>
  <course>175.93</course>
  <speed>25.57</speed>
  <fix>3d</fix>
</trkpt>
<trkpt lat="-35.2815705" lon="148.9857274">
  <ele>684.61</ele>
  <time>2026-09-01T19:59:53Z</time>
  <course>175.75</course>
  <speed>25.60476518150479</speed>
  <fix>3d</fix>
</trkpt>
<trkpt lat="-35.2815248" lon="148.9857233">
  <ele>684.05</ele>
  <time>2026-09-01T19:59:53Z</time>
  <course>175.93</course>
  <speed>25.57</speed>
  <fix>3d</fix>
</trkpt>
<trkpt lat="-35.2815936" lon="148.9857294">
  <ele>684.86</ele>
  <time>2026-09-01T19:59:53Z</time>
  <course>175.68</course>
  <speed>25.615452367662765</speed>
  <fix>3d</fix>
</trkpt>
<trkpt lat="-35.2815707" lon="148.9857273">
  <ele>684.56</ele>
  <time>2026-09-01T19:59:53Z</time>
  <course>175.94</course>
  <speed>25.57</speed>
  <fix>3d</fix>
</trkpt>
<trkpt lat="-35.2816167" lon="148.9857314">
  <ele>685.12</ele>
  <time>2026-09-01T19:59:53Z</time>
  <course>175.73</course>
  <speed>25.626142901341982</speed>
  <fix>3d</fix>
</trkpt>
<trkpt lat="-35.2815707" lon="148.9857273">
  <ele>684.56</ele>
  <time>2026-09-01T19:59:53Z</time>
  <course>175.94</course>
  <speed>25.57</speed>
  <fix>3d</fix>
</trkpt>
<trkpt lat="-35.2816397" lon="148.9857334">
  <ele>685.37</ele>
  <time>2026-09-01T19:59:53Z</time>
  <course>175.79</course>
  <speed>25.636117100684338</speed>
  <fix>3d</fix>
</trkpt>
<trkpt lat="-35.2816166" lon="148.9857313">
  <ele>685.07</ele>
  <time>2026-09-01T19:59:53Z</time>
  <course>175.92</course>
  <speed>25.58</speed>
  <fix>3d</fix>
</trkpt>
<trkpt lat="-35.2816627" lon="148.9857355">
  <ele>685.61</ele>
  <time>2026-09-01T19:59:53Z</time>
  <course>175.81</course>
  <speed>25.636117100684338</speed>
  <fix>3d</fix>
</trkpt>
<trkpt lat="-35.2816166" lon="148.9857313">
  <ele>685.07</ele>
  <time>2026-09-01T19:59:53Z</time>
  <course>175.92</course>
  <speed>25.58</speed>
  <fix>3d</fix>
</trkpt>
<trkpt lat="-35.2816857" lon="148.9857375">
  <ele>685.85</ele>
  <time>2026-09-01T19:59:53Z</time>
  <course>175.83</course>
  <speed>25.646810717904085</speed>
  <fix>3d</fix>
</trkpt>
<trkpt lat="-35.2816624" lon="148.9857352">
  <ele>685.56</ele>
  <time>2026-09-01T19:59:53Z</time>
  <course>175.9</course>
  <speed>25.59</speed>
  <fix>3d</fix>
</trkpt>
<trkpt lat="-35.2817086" lon="148.9857395">
  <ele>686.09</ele>
  <time>2026-09-01T19:59:53Z</time>
  <course>175.82</course>
  <speed>25.646091320121275</speed>
  <fix>3d</fix>
</trkpt>
<trkpt lat="-35.2816624" lon="148.9857352">
  <ele>685.56</ele>
  <time>2026-09-01T19:59:53Z</time>
  <course>175.9</course>
  <speed>25.59</speed>
  <fix>3d</fix>
</trkpt>
<trkpt lat="-35.2817315" lon="148.9857415">
  <ele>686.32</ele>
  <time>2026-09-01T19:59:53Z</time>
  <course>175.76</course>
  <speed>25.646810717904085</speed>
  <fix>3d</fix>
</trkpt>
<trkpt lat="-35.2817084" lon="148.9857393">
  <ele>686.04</ele>
  <time>2026-09-01T19:59:53Z</time>
  <course>175.89</course>
  <speed>25.6</speed>
  <fix>3d</fix>
</trkpt>
<trkpt lat="-35.2817543" lon="148.9857435">
  <ele>686.55</ele>
  <time>2026-09-01T19:59:53Z</time>
  <course>175.73</course>
  <speed>25.63756033635026</speed>
  <fix>3d</fix>
</trkpt>
<trkpt lat="-35.2817084" lon="148.9857393">
  <ele>686.04</ele>
  <time>2026-09-01T19:59:53Z</time>
  <course>175.89</course>
  <speed>25.6</speed>
  <fix>3d</fix>
</trkpt>
<trkpt lat="-35.2817771" lon="148.9857455">
  <ele>686.78</ele>
  <time>2026-09-01T19:59:53Z</time>
  <course>175.68</course>
  <speed>25.63756033635026</speed>
  <fix>3d</fix>
</trkpt>
<trkpt lat="-35.2817543" lon="148.9857434">
  <ele>686.51</ele>
  <time>2026-09-01T19:59:53Z</time>
  <course>175.87</course>
  <speed>25.61</speed>
  <fix>3d</fix>
</trkpt>
<trkpt lat="-35.2817999" lon="148.9857475">
  <ele>687.0</ele>
  <time>2026-09-01T19:59:53Z</time>
  <course>175.67</course>
  <speed>25.638287774342498</speed>
  <fix>3d</fix>
</trkpt>
<trkpt lat="-35.2817543" lon="148.9857434">
  <ele>686.51</ele>
  <time>2026-09-01T19:59:53Z</time>
  <course>175.87</course>
  <speed>25.61</speed>
  <fix>3d</fix>
</trkpt>
<trkpt lat="-35.2818227" lon="148.9857496">
  <ele>687.22</ele>
  <time>2026-09-01T19:59:53Z</time>
  <course>175.66</course>
  <speed>25.63901909200116</speed>
  <fix>3d</fix>
</trkpt>
<trkpt lat="-35.2818002" lon="148.9857474">
  <ele>686.96</ele>
  <time>2026-09-01T19:59:53Z</time>
  <course>175.83</course>
  <speed>25.62</speed>
  <fix>3d</fix>
</trkpt>
<trkpt lat="-35.2818454" lon="148.9857516">
  <ele>687.44</ele>
  <time>2026-09-01T19:59:53Z</time>
  <course>175.68</course>
  <speed>25.62978150511627</speed>
  <fix>3d</fix>
</trkpt>
<trkpt lat="-35.2818002" lon="148.9857474">
  <ele>686.96</ele>
  <time>2026-09-01T19:59:53Z</time>
  <course>175.83</course>
  <speed>25.62</speed>
  <fix>3d</fix>
</trkpt>
<trkpt lat="-35.2818681" lon="148.9857537">
  <ele>687.65</ele>
  <time>2026-09-01T19:59:53Z</time>
  <course>175.66</course>
  <speed>25.630520868683103</speed>
  <fix>3d</fix>
</trkpt>
<trkpt lat="-35.2818461" lon="148.9857515">
  <ele>687.41</ele>
  <time>2026-09-01T19:59:53Z</time>
  <course>175.79</course>
  <speed>25.64</speed>
  <fix>3d</fix>
</trkpt>
<trkpt lat="-35.2818906" lon="148.9857557">
  <ele>687.86</ele>
  <time>2026-09-01T19:59:53Z</time>
  <course>175.69</course>
  <speed>25.630520868683103</speed>
  <fix>3d</fix>
</trkpt>
<trkpt lat="-35.2818461" lon="148.9857515">
  <ele>687.41</ele>
  <time>2026-09-01T19:59:53Z</time>
  <course>175.79</course>
  <speed>25.64</speed>
  <fix>3d</fix>
</trkpt>
<trkpt lat="-35.2819133" lon="148.9857578">
  <ele>688.07</ele>
  <time>2026-09-01T19:59:53Z</time>
  <course>175.69</course>
  <speed>25.641236319647305</speed>
  <fix>3d</fix>
</trkpt>
<trkpt lat="-35.2818921" lon="148.9857556">
  <ele>687.83</ele>
  <time>2026-09-01T19:59:53Z</time>
  <course>175.76</course>
  <speed>25.66</speed>
  <fix>3d</fix>
</trkpt>
<trkpt lat="-35.2819362" lon="148.9857598">
  <ele>688.27</ele>
  <time>2026-09-01T19:59:53Z</time>
  <course>175.69</course>
  <speed>25.640493364988124</speed>
  <fix>3d</fix>
</trkpt>
<trkpt lat="-35.2818921" lon="148.9857556">
  <ele>687.83</ele>
  <time>2026-09-01T19:59:53Z</time>
  <course>175.76</course>
  <speed>25.66</speed>
  <fix>3d</fix>
</trkpt>
<trkpt lat="-35.281959" lon="148.9857619">
  <ele>688.47</ele>
  <time>2026-09-01T19:59:53Z</time>
  <course>175.73</course>
  <speed>25.640493364988124</speed>
  <fix>3d</fix>
</trkpt>
<trkpt lat="-35.2819381" lon="148.9857599">
  <ele>688.24</ele>
  <time>2026-09-01T19:59:53Z</time>
  <course>175.76</course>
  <speed>25.68</speed>
  <fix>3d</fix>
</trkpt>
<trkpt lat="-35.2819822" lon="148.985764">
  <ele>688.67</ele>
  <time>2026-09-01T19:59:53Z</time>
  <course>175.66</course>
  <speed>25.649727094064765</speed>
  <fix>3d</fix>
</trkpt>
<trkpt lat="-35.2819381" lon="148.9857599">
  <ele>688.24</ele>
  <time>2026-09-01T19:59:53Z</time>
  <course>175.76</course>
  <speed>25.68</speed>
  <fix>3d</fix>
</trkpt>
<trkpt lat="-35.2820051" lon="148.985766">
  <ele>688.87</ele>
  <time>2026-09-01T19:59:53Z</time>
  <course>175.59</course>
  <speed>25.65969992030304</speed>
  <fix>3d</fix>
</trkpt>
<trkpt lat="-35.2819841" lon="148.985764">
  <ele>688.64</ele>
  <time>2026-09-01T19:59:53Z</time>
  <course>175.78</course>
  <speed>25.7</speed>
  <fix>3d</fix>
</trkpt>
<trkpt lat="-35.2820281" lon="148.9857681">
  <ele>689.06</ele>
  <time>2026-09-01T19:59:53Z</time>
  <course>175.68</course>
  <speed>25.66967276768444</speed>
  <fix>3d</fix>
</trkpt>
<trkpt lat="-35.2819841" lon="148.985764">
  <ele>688.64</ele>
  <time>2026-09-01T19:59:53Z</time>
  <course>175.78</course>
  <speed>25.7</speed>
  <fix>3d</fix>
</trkpt>
<trkpt lat="-35.2820511" lon="148.9857702">
  <ele>689.26</ele>
  <time>2026-09-01T19:59:53Z</time>
  <course>175.7</course>
  <speed>25.688884755862794</speed>
  <fix>3d</fix>
</trkpt>
<trkpt lat="-35.2820301" lon="148.9857682">
  <ele>689.04</ele>
  <time>2026-09-01T19:59:53Z</time>
  <course>175.8</course>
  <speed>25.72</speed>
  <fix>3d</fix>
</trkpt>
<trkpt lat="-35.2820742" lon="148.9857722">
  <ele>689.45</ele>
  <time>2026-09-01T19:59:53Z</time>
  <course>175.66</course>
  <speed>25.698857951278693</speed>
  <fix>3d</fix>
</trkpt>
<trkpt lat="-35.2820301" lon="148.9857682">
  <ele>689.04</ele>
  <time>2026-09-01T19:59:53Z</time>
  <course>175.8</course>
  <speed>25.72</speed>
  <fix>3d</fix>
</trkpt>
<trkpt lat="-35.2820972" lon="148.9857743">
  <ele>689.64</ele>
  <time>2026-09-01T19:59:53Z</time>
  <course>175.63</course>
  <speed>25.71880440455971</speed>
  <fix>3d</fix>
</trkpt>
<trkpt lat="-35.2820762" lon="148.9857723">
  <ele>689.43</ele>
  <time>2026-09-01T19:59:53Z</time>
  <course>175.82</course>
  <speed>25.75</speed>
  <fix>3d</fix>
</trkpt>
<trkpt lat="-35.2821203" lon="148.9857764">
  <ele>689.83</ele>
  <time>2026-09-01T19:59:53Z</time>
  <course>175.61</course>
  <speed>25.728777662376423</speed>
  <fix>3d</fix>
</trkpt>
<trkpt lat="-35.2820762" lon="148.9857723">
  <ele>689.43</ele>
  <time>2026-09-01T19:59:53Z</time>
  <course>175.82</course>
  <speed>25.75</speed>
  <fix>3d</fix>
</trkpt>
<trkpt lat="-35.2821434" lon="148.9857784">
  <ele>690.02</ele>
  <time>2026-09-01T19:59:53Z</time>
  <course>175.64</course>
  <speed>25.748724240241494</speed>
  <fix>3d</fix>
</trkpt>
<trkpt lat="-35.2821224" lon="148.9857764">
  <ele>689.81</ele>
  <time>2026-09-01T19:59:53Z</time>
  <course>175.83</course>
  <speed>25.77</speed>
  <fix>3d</fix>
</trkpt>
<trkpt lat="-35.2821665" lon="148.9857805">
  <ele>690.21</ele>
  <time>2026-09-01T19:59:53Z</time>
  <course>175.67</course>
  <speed>25.75796964048215</speed>
  <fix>3d</fix>
</trkpt>
<trkpt lat="-35.2821224" lon="148.9857764">
  <ele>689.81</ele>
  <time>2026-09-01T19:59:53Z</time>
  <course>175.83</course>
  <speed>25.77</speed>
  <fix>3d</fix>
</trkpt>
<trkpt lat="-35.2821896" lon="148.9857825">
  <ele>690.39</ele>
  <time>2026-09-01T19:59:53Z</time>
  <course>175.67</course>
  <speed>25.767943262899347</speed>
  <fix>3d</fix>
</trkpt>
<trkpt lat="-35.2821687" lon="148.9857805">
  <ele>690.18</ele>
  <time>2026-09-01T19:59:53Z</time>
  <course>175.85</course>
  <speed>25.8</speed>
  <fix>3d</fix>
</trkpt>
<trkpt lat="-35.2822128" lon="148.9857846">
  <ele>690.57</ele>
  <time>2026-09-01T19:59:53Z</time>
  <course>175.69</course>
  <speed>25.777193408127268</speed>
  <fix>3d</fix>
</trkpt>
<trkpt lat="-35.2821687" lon="148.9857805">
  <ele>690.18</ele>
  <time>2026-09-01T19:59:53Z</time>
  <course>175.85</course>
  <speed>25.8</speed>
  <fix>3d</fix>
</trkpt>
<trkpt lat="-35.2822361" lon="148.9857866">
  <ele>690.75</ele>
  <time>2026-09-01T19:59:53Z</time>
  <course>175.74</course>
  <speed>25.78716735122336</speed>
  <fix>3d</fix>
</trkpt>
<trkpt lat="-35.282215" lon="148.9857846">
  <ele>690.55</ele>
  <time>2026-09-01T19:59:53Z</time>
  <course>175.88</course>
  <speed>25.81</speed>
  <fix>3d</fix>
</trkpt>
<trkpt lat="-35.2822593" lon="148.9857886">
  <ele>690.93</ele>
  <time>2026-09-01T19:59:53Z</time>
  <course>175.75</course>
  <speed>25.796422232550004</speed>
  <fix>3d</fix>
</trkpt>
<trkpt lat="-35.282215" lon="148.9857846">
  <ele>690.55</ele>
  <time>2026-09-01T19:59:53Z</time>
  <course>175.88</course>
  <speed>25.81</speed>
  <fix>3d</fix>
</trkpt>
<trkpt lat="-35.2822825" lon="148.9857907">
  <ele>691.12</ele>
  <time>2026-09-01T19:59:53Z</time>
  <course>175.73</course>
  <speed>25.80639649389275</speed>
  <fix>3d</fix>
</trkpt>
<trkpt lat="-35.2822613" lon="148.9857887">
  <ele>690.92</ele>
  <time>2026-09-01T19:59:53Z</time>
  <course>175.9</course>
  <speed>25.83</speed>
  <fix>3d</fix>
</trkpt>
<trkpt lat="-35.2823057" lon="148.9857927">
  <ele>691.3</ele>
  <time>2026-09-01T19:59:53Z</time>
  <course>175.73</course>
  <speed>25.817089301468513</speed>
  <fix>3d</fix>
</trkpt>
<trkpt lat="-35.2822613" lon="148.9857887">
  <ele>690.92</ele>
  <time>2026-09-01T19:59:53Z</time>
  <course>175.9</course>
  <speed>25.83</speed>
  <fix>3d</fix>
</trkpt>
<trkpt lat="-35.2823289" lon="148.9857947">
  <ele>691.49</ele>
  <time>2026-09-01T19:59:53Z</time>
  <course>175.71</course>
  <speed>25.827063325124673</speed>
  <fix>3d</fix>
</trkpt>
<trkpt lat="-35.2823075" lon="148.9857927">
  <ele>691.29</ele>
  <time>2026-09-01T19:59:53Z</time>
  <course>175.9</course>
  <speed>25.84</speed>
  <fix>3d</fix>
</trkpt>
<trkpt lat="-35.2823521" lon="148.9857968">
  <ele>691.68</ele>
  <time>2026-09-01T19:59:53Z</time>
  <course>175.67</course>
  <speed>25.837037368862553</speed>
  <fix>3d</fix>
</trkpt>
<trkpt lat="-35.2823075" lon="148.9857927">
  <ele>691.29</ele>
  <time>2026-09-01T19:59:53Z</time>
  <course>175.9</course>
  <speed>25.84</speed>
  <fix>3d</fix>
</trkpt>
<trkpt lat="-35.2823751" lon="148.9857988">
  <ele>691.87</ele>
  <time>2026-09-01T19:59:53Z</time>
  <course>175.64</course>
  <speed>25.837759190765752</speed>
  <fix>3d</fix>
</trkpt>
<trkpt lat="-35.2823538" lon="148.9857968">
  <ele>691.67</ele>
  <time>2026-09-01T19:59:53Z</time>
  <course>175.88</course>
  <speed>25.85</speed>
  <fix>3d</fix>
</trkpt>
<trkpt lat="-35.2823984" lon="148.9858009">
  <ele>692.06</ele>
  <time>2026-09-01T19:59:53Z</time>
  <course>175.65</course>
  <speed>25.848458367956876</speed>
  <fix>3d</fix>
</trkpt>
<trkpt lat="-35.2823538" lon="148.9857968">
  <ele>691.67</ele>
  <time>2026-09-01T19:59:53Z</time>
  <course>175.88</course>
  <speed>25.85</speed>
  <fix>3d</fix>
</trkpt>
<trkpt lat="-35.2824216" lon="148.9858029">
  <ele>692.24</ele>
  <time>2026-09-01T19:59:53Z</time>
  <course>175.71</course>
  <speed>25.858431893678315</speed>
  <fix>3d</fix>
</trkpt>
<trkpt lat="-35.2824002" lon="148.9858009">
  <ele>692.05</ele>
  <time>2026-09-01T19:59:53Z</time>
  <course>175.86</course>
  <speed>25.86</speed>
  <fix>3d</fix>
</trkpt>
<trkpt lat="-35.2824448" lon="148.985805">
  <ele>692.42</ele>
  <time>2026-09-01T19:59:53Z</time>
  <course>175.75</course>
  <speed>25.86840543984109</speed>
  <fix>3d</fix>
</trkpt>
<trkpt lat="-35.2824002" lon="148.9858009">
  <ele>692.05</ele>
  <time>2026-09-01T19:59:53Z</time>
  <course>175.86</course>
  <speed>25.86</speed>
  <fix>3d</fix>
</trkpt>
<trkpt lat="-35.2824682" lon="148.9858071">
  <ele>692.6</ele>
  <time>2026-09-01T19:59:53Z</time>
  <course>175.76</course>
  <speed>25.86840543984109</speed>
  <fix>3d</fix>
</trkpt>
<trkpt lat="-35.2824465" lon="148.985805">
  <ele>692.41</ele>
  <time>2026-09-01T19:59:53Z</time>
  <course>175.85</course>
  <speed>25.87</speed>
  <fix>3d</fix>
</trkpt>
<trkpt lat="-35.2824915" lon="148.9858091">
  <ele>692.77</ele>
  <time>2026-09-01T19:59:53Z</time>
  <course>175.76</course>
  <speed>25.877654453215037</speed>
  <fix>3d</fix>
</trkpt>
<trkpt lat="-35.2824465" lon="148.985805">
  <ele>692.41</ele>
  <time>2026-09-01T19:59:53Z</time>
  <course>175.85</course>
  <speed>25.87</speed>
  <fix>3d</fix>
</trkpt>
<trkpt lat="-35.2825147" lon="148.9858112">
  <ele>692.94</ele>
  <time>2026-09-01T19:59:53Z</time>
  <course>175.73</course>
  <speed>25.88762831933432</speed>
  <fix>3d</fix>
</trkpt>
<trkpt lat="-35.2824928" lon="148.9858091">
  <ele>692.76</ele>
  <time>2026-09-01T19:59:53Z</time>
  <course>175.86</course>
  <speed>25.88</speed>
  <fix>3d</fix>
</trkpt>
<trkpt lat="-35.2825378" lon="148.9858132">
  <ele>693.11</ele>
  <time>2026-09-01T19:59:53Z</time>
  <course>175.67</course>
  <speed>25.88762831933432</speed>
  <fix>3d</fix>
</trkpt>
<trkpt lat="-35.2824928" lon="148.9858091">
  <ele>692.76</ele>
  <time>2026-09-01T19:59:53Z</time>
  <course>175.86</course>
  <speed>25.88</speed>
  <fix>3d</fix>
</trkpt>
<trkpt lat="-35.282561" lon="148.9858153">
  <ele>693.27</ele>
  <time>2026-09-01T19:59:53Z</time>
  <course>175.63</course>
  <speed>25.88762831933432</speed>
  <fix>3d</fix>
</trkpt>
<trkpt lat="-35.2825392" lon="148.9858132">
  <ele>693.09</ele>
  <time>2026-09-01T19:59:53Z</time>
  <course>175.87</course>
  <speed>25.88</speed>
  <fix>3d</fix>
</trkpt>
<trkpt lat="-35.2825842" lon="148.9858173">
  <ele>693.43</ele>
  <time>2026-09-01T19:59:53Z</time>
  <course>175.61</course>
  <speed>25.888352593396124</speed>
  <fix>3d</fix>
</trkpt>
<trkpt lat="-35.2825392" lon="148.9858132">
  <ele>693.09</ele>
  <time>2026-09-01T19:59:53Z</time>
  <course>175.87</course>
  <speed>25.88</speed>
  <fix>3d</fix>
</trkpt>
<trkpt lat="-35.2826074" lon="148.9858194">
  <ele>693.58</ele>
  <time>2026-09-01T19:59:53Z</time>
  <course>175.61</course>
  <speed>25.898326200741234</speed>
  <fix>3d</fix>
</trkpt>
<trkpt lat="-35.2825856" lon="148.9858173">
  <ele>693.41</ele>
  <time>2026-09-01T19:59:53Z</time>
  <course>175.86</course>
  <speed>25.89</speed>
  <fix>3d</fix>
</trkpt>
<trkpt lat="-35.2826307" lon="148.9858214">
  <ele>693.72</ele>
  <time>2026-09-01T19:59:53Z</time>
  <course>175.58</course>
  <speed>25.90902738429214</speed>
  <fix>3d</fix>
</trkpt>
<trkpt lat="-35.2825856" lon="148.9858173">
  <ele>693.41</ele>
  <time>2026-09-01T19:59:53Z</time>
  <course>175.86</course>
  <speed>25.89</speed>
  <fix>3d</fix>
</trkpt>
<trkpt lat="-35.282654" lon="148.9858235">
  <ele>693.86</ele>
  <time>2026-09-01T19:59:53Z</time>
  <course>175.64</course>
  <speed>25.91900075234383</speed>
  <fix>3d</fix>
</trkpt>
<trkpt lat="-35.2826321" lon="148.9858214">
  <ele>693.7</ele>
  <time>2026-09-01T19:59:53Z</time>
  <course>175.84</course>
  <speed>25.9</speed>
  <fix>3d</fix>
</trkpt>
<trkpt lat="-35.2826773" lon="148.9858256">
  <ele>693.99</ele>
  <time>2026-09-01T19:59:53Z</time>
  <course>175.72</course>
  <speed>25.938947549968177</speed>
  <fix>3d</fix>
</trkpt>
<trkpt lat="-35.2826321" lon="148.9858214">
  <ele>693.7</ele>
  <time>2026-09-01T19:59:53Z</time>
  <course>175.84</course>
  <speed>25.9</speed>
  <fix>3d</fix>
</trkpt>
<trkpt lat="-35.2827006" lon="148.9858277">
  <ele>694.11</ele>
  <time>2026-09-01T19:59:53Z</time>
  <course>175.66</course>
  <speed>25.948194542202735</speed>
  <fix>3d</fix>
</trkpt>
<trkpt lat="-35.2826785" lon="148.9858256">
  <ele>693.98</ele>
  <time>2026-09-01T19:59:53Z</time>
  <course>175.84</course>
  <speed>25.91</speed>
  <fix>3d</fix>
</trkpt>
<trkpt lat="-35.2827239" lon="148.9858297">
  <ele>694.23</ele>
  <time>2026-09-01T19:59:53Z</time>
  <course>175.66</course>
  <speed>25.95816827127831</speed>
  <fix>3d</fix>
</trkpt>
<trkpt lat="-35.2826785" lon="148.9858256">
  <ele>693.98</ele>
  <time>2026-09-01T19:59:53Z</time>
  <course>175.84</course>
  <speed>25.91</speed>
  <fix>3d</fix>
</trkpt>
<trkpt lat="-35.2827473" lon="148.9858318">
  <ele>694.35</ele>
  <time>2026-09-01T19:59:53Z</time>
  <course>175.66</course>
  <speed>25.9681420205605</speed>
  <fix>3d</fix>
</trkpt>
<trkpt lat="-35.282725" lon="148.9858297">
  <ele>694.22</ele>
  <time>2026-09-01T19:59:53Z</time>
  <course>175.86</course>
  <speed>25.93</speed>
  <fix>3d</fix>
</trkpt>
<trkpt lat="-35.2827706" lon="148.9858338">
  <ele>694.46</ele>
  <time>2026-09-01T19:59:53Z</time>
  <course>175.69</course>
  <speed>25.978115790026035</speed>
  <fix>3d</fix>
</trkpt>
<trkpt lat="-35.282725" lon="148.9858297">
  <ele>694.22</ele>
  <time>2026-09-01T19:59:53Z</time>
  <course>175.86</course>
  <speed>25.93</speed>
  <fix>3d</fix>
</trkpt>
<trkpt lat="-35.2827939" lon="148.9858359">
  <ele>694.57</ele>
  <time>2026-09-01T19:59:53Z</time>
  <course>175.69</course>
  <speed>25.988089579651675</speed>
  <fix>3d</fix>
</trkpt>
<trkpt lat="-35.2827715" lon="148.9858338">
  <ele>694.45</ele>
  <time>2026-09-01T19:59:53Z</time>
  <course>175.87</course>
  <speed>25.94</speed>
  <fix>3d</fix>
</trkpt>
<trkpt lat="-35.2828173" lon="148.985838">
  <ele>694.67</ele>
  <time>2026-09-01T19:59:53Z</time>
  <course>175.68</course>
  <speed>25.99806338941422</speed>
  <fix>3d</fix>
</trkpt>
<trkpt lat="-35.2827715" lon="148.9858338">
  <ele>694.45</ele>
  <time>2026-09-01T19:59:53Z</time>
  <course>175.87</course>
  <speed>25.94</speed>
  <fix>3d</fix>
</trkpt>
<trkpt lat="-35.2828406" lon="148.98584">
  <ele>694.77</ele>
  <time>2026-09-01T19:59:53Z</time>
  <course>175.66</course>
  <speed>26.0080372192905</speed>
  <fix>3d</fix>
</trkpt>
<trkpt lat="-35.282818" lon="148.9858379">
  <ele>694.66</ele>
  <time>2026-09-01T19:59:53Z</time>
  <course>175.87</course>
  <speed>25.96</speed>
  <fix>3d</fix>
</trkpt>
<trkpt lat="-35.282864" lon="148.9858421">
  <ele>694.87</ele>
  <time>2026-09-01T19:59:53Z</time>
  <course>175.64</course>
  <speed>26.01801106925739</speed>
  <fix>3d</fix>
</trkpt>
<trkpt lat="-35.282818" lon="148.9858379">
  <ele>694.66</ele>
  <time>2026-09-01T19:59:53Z</time>
  <course>175.87</course>
  <speed>25.96</speed>
  <fix>3d</fix>
</trkpt>
<trkpt lat="-35.2828873" lon="148.9858442">
  <ele>694.96</ele>
  <time>2026-09-01T19:59:53Z</time>
  <course>175.65</course>
  <speed>26.028709149706216</speed>
  <fix>3d</fix>
</trkpt>
<trkpt lat="-35.2828645" lon="148.985842">
  <ele>694.85</ele>
  <time>2026-09-01T19:59:53Z</time>
  <course>175.87</course>
  <speed>25.97</speed>
  <fix>3d</fix>
</trkpt>
<trkpt lat="-35.2829107" lon="148.9858462">
  <ele>695.05</ele>
  <time>2026-09-01T19:59:53Z</time>
  <course>175.61</course>
  <speed>26.038682762382585</speed>
  <fix>3d</fix>
</trkpt>
<trkpt lat="-35.2828645" lon="148.985842">
  <ele>694.85</ele>
  <time>2026-09-01T19:59:53Z</time>
  <course>175.87</course>
  <speed>25.97</speed>
  <fix>3d</fix>
</trkpt>
<trkpt lat="-35.2829341" lon="148.9858483">
  <ele>695.13</ele>
  <time>2026-09-01T19:59:53Z</time>
  <course>175.54</course>
  <speed>26.03941051560115</speed>
  <fix>3d</fix>
</trkpt>
<trkpt lat="-35.282911" lon="148.9858461">
  <ele>695.04</ele>
  <time>2026-09-01T19:59:53Z</time>
  <course>175.85</course>
  <speed>25.98</speed>
  <fix>3d</fix>
</trkpt>
<trkpt lat="-35.2829576" lon="148.9858504">
  <ele>695.21</ele>
  <time>2026-09-01T19:59:53Z</time>
  <course>175.51</course>
  <speed>26.050115162893235</speed>
  <fix>3d</fix>
</trkpt>
<trkpt lat="-35.282911" lon="148.9858461">
  <ele>695.04</ele>
  <time>2026-09-01T19:59:53Z</time>
  <course>175.85</course>
  <speed>25.98</speed>
  <fix>3d</fix>
</trkpt>
<trkpt lat="-35.282981" lon="148.9858525">
  <ele>695.3</ele>
  <time>2026-09-01T19:59:53Z</time>
  <course>175.51</course>
  <speed>26.06082308753889</speed>
  <fix>3d</fix>
</trkpt>
<trkpt lat="-35.2829576" lon="148.9858503">
  <ele>695.21</ele>
  <time>2026-09-01T19:59:53Z</time>
  <course>175.82</course>
  <speed>25.99</speed>
  <fix>3d</fix>
</trkpt>
<trkpt lat="-35.2830044" lon="148.9858546">
  <ele>695.37</ele>
  <time>2026-09-01T19:59:53Z</time>
  <course>175.52</course>
  <speed>26.07153428549996</speed>
  <fix>3d</fix>
</trkpt>
<trkpt lat="-35.2829576" lon="148.9858503">
  <ele>695.21</ele>
  <time>2026-09-01T19:59:53Z</time>
  <course>175.82</course>
  <speed>25.99</speed>
  <fix>3d</fix>
</trkpt>
<trkpt lat="-35.2830278" lon="148.9858567">
  <ele>695.45</ele>
  <time>2026-09-01T19:59:53Z</time>
  <course>175.55</course>
  <speed>26.081506858308625</speed>
  <fix>3d</fix>
</trkpt>
<trkpt lat="-35.2830041" lon="148.9858545">
  <ele>695.37</ele>
  <time>2026-09-01T19:59:53Z</time>
  <course>175.79</course>
  <speed>26.0</speed>
  <fix>3d</fix>
</trkpt>
<trkpt lat="-35.2830512" lon="148.9858588">
  <ele>695.52</ele>
  <time>2026-09-01T19:59:53Z</time>
  <course>175.63</course>
  <speed>26.09222106299117</speed>
  <fix>3d</fix>
</trkpt>
<trkpt lat="-35.2830041" lon="148.9858545">
  <ele>695.37</ele>
  <time>2026-09-01T19:59:53Z</time>
  <course>175.79</course>
  <speed>26.0</speed>
  <fix>3d</fix>
</trkpt>
<trkpt lat="-35.2830746" lon="148.985861">
  <ele>695.6</ele>
  <time>2026-09-01T19:59:53Z</time>
  <course>175.58</course>
  <speed>26.101452066887006</speed>
  <fix>3d</fix>
</trkpt>
<trkpt lat="-35.2830508" lon="148.9858587">
  <ele>695.52</ele>
  <time>2026-09-01T19:59:53Z</time>
  <course>175.78</course>
  <speed>26.01</speed>
  <fix>3d</fix>
</trkpt>
<trkpt lat="-35.283098" lon="148.9858631">
  <ele>695.66</ele>
  <time>2026-09-01T19:59:53Z</time>
  <course>175.54</course>
  <speed>26.10219339442569</speed>
  <fix>3d</fix>
</trkpt>
<trkpt lat="-35.2830508" lon="148.9858587">
  <ele>695.52</ele>
  <time>2026-09-01T19:59:53Z</time>
  <course>175.78</course>
  <speed>26.01</speed>
  <fix>3d</fix>
</trkpt>
<trkpt lat="-35.2831213" lon="148.9858652">
  <ele>695.73</ele>
  <time>2026-09-01T19:59:53Z</time>
  <course>175.54</course>
  <speed>26.10219339442569</speed>
  <fix>3d</fix>
</trkpt>
<trkpt lat="-35.2830974" lon="148.9858629">
  <ele>695.67</ele>
  <time>2026-09-01T19:59:53Z</time>
  <course>175.77</course>
  <speed>26.01</speed>
  <fix>3d</fix>
</trkpt>
<trkpt lat="-35.2831447" lon="148.9858673">
  <ele>695.8</ele>
  <time>2026-09-01T19:59:53Z</time>
  <course>175.5</course>
  <speed>26.10219339442569</speed>
  <fix>3d</fix>
</trkpt>
<trkpt lat="-35.2830974" lon="148.9858629">
  <ele>695.67</ele>
  <time>2026-09-01T19:59:53Z</time>
  <course>175.77</course>
  <speed>26.01</speed>
  <fix>3d</fix>
</trkpt>
<trkpt lat="-35.2831681" lon="148.9858695">
  <ele>695.87</ele>
  <time>2026-09-01T19:59:53Z</time>
  <course>175.45</course>
  <speed>26.10293853189713</speed>
  <fix>3d</fix>
</trkpt>
<trkpt lat="-35.2831441" lon="148.9858671">
  <ele>695.8</ele>
  <time>2026-09-01T19:59:53Z</time>
  <course>175.75</course>
  <speed>26.01</speed>
  <fix>3d</fix>
</trkpt>
<trkpt lat="-35.2831914" lon="148.9858716">
  <ele>695.93</ele>
  <time>2026-09-01T19:59:53Z</time>
  <course>175.45</course>
  <speed>26.10293853189713</speed>
  <fix>3d</fix>
</trkpt>
<trkpt lat="-35.2831441" lon="148.9858671">
  <ele>695.8</ele>
  <time>2026-09-01T19:59:53Z</time>
  <course>175.75</course>
  <speed>26.01</speed>
  <fix>3d</fix>
</trkpt>
<trkpt lat="-35.2832146" lon="148.9858737">
  <ele>695.98</ele>
  <time>2026-09-01T19:59:53Z</time>
  <course>175.47</course>
  <speed>26.10293853189713</speed>
  <fix>3d</fix>
</trkpt>
<trkpt lat="-35.2831907" lon="148.9858714">
  <ele>695.93</ele>
  <time>2026-09-01T19:59:53Z</time>
  <course>175.74</course>
  <speed>26.01</speed>
  <fix>3d</fix>
</trkpt>
<trkpt lat="-35.2832378" lon="148.9858758">
  <ele>696.03</ele>
  <time>2026-09-01T19:59:53Z</time>
  <course>175.49</course>
  <speed>26.10293853189713</speed>
  <fix>3d</fix>
</trkpt>
<trkpt lat="-35.2831907" lon="148.9858714">
  <ele>695.93</ele>
  <time>2026-09-01T19:59:53Z</time>
  <course>175.74</course>
  <speed>26.01</speed>
  <fix>3d</fix>
</trkpt>
<trkpt lat="-35.2832611" lon="148.9858779">
  <ele>696.09</ele>
  <time>2026-09-01T19:59:53Z</time>
  <course>175.49</course>
  <speed>26.092966485242723</speed>
  <fix>3d</fix>
</trkpt>
<trkpt lat="-35.2832372" lon="148.9858757">
  <ele>696.04</ele>
  <time>2026-09-01T19:59:53Z</time>
  <course>175.74</course>
  <speed>26.02</speed>
  <fix>3d</fix>
</trkpt>
<trkpt lat="-35.2832842" lon="148.98588">
  <ele>696.13</ele>
  <time>2026-09-01T19:59:53Z</time>
  <course>175.48</course>
  <speed>26.082248752743695</speed>
  <fix>3d</fix>
</trkpt>
<trkpt lat="-35.2832372" lon="148.9858757">
  <ele>696.04</ele>
  <time>2026-09-01T19:59:53Z</time>
  <course>175.74</course>
  <speed>26.02</speed>
  <fix>3d</fix>
</trkpt>
<trkpt lat="-35.2833072" lon="148.9858821">
  <ele>696.18</ele>
  <time>2026-09-01T19:59:53Z</time>
  <course>175.44</course>
  <speed>26.072276463707578</speed>
  <fix>3d</fix>
</trkpt>
<trkpt lat="-35.2832839" lon="148.9858799">
  <ele>696.14</ele>
  <time>2026-09-01T19:59:53Z</time>
  <course>175.75</course>
  <speed>26.02</speed>
  <fix>3d</fix>
</trkpt>
<trkpt lat="-35.2833302" lon="148.9858842">
  <ele>696.23</ele>
  <time>2026-09-01T19:59:53Z</time>
  <course>175.39</course>
  <speed>26.052331949366835</speed>
  <fix>3d</fix>
</trkpt>
<trkpt lat="-35.2832839" lon="148.9858799">
  <ele>696.14</ele>
  <time>2026-09-01T19:59:53Z</time>
  <course>175.75</course>
  <speed>26.02</speed>
  <fix>3d</fix>
</trkpt>
<trkpt lat="-35.2833532" lon="148.9858863">
  <ele>696.27</ele>
  <time>2026-09-01T19:59:53Z</time>
  <course>175.4</course>
  <speed>26.043106573525364</speed>
  <fix>3d</fix>
</trkpt>
<trkpt lat="-35.2833306" lon="148.9858841">
  <ele>696.23</ele>
  <time>2026-09-01T19:59:53Z</time>
  <course>175.75</course>
  <speed>26.02</speed>
  <fix>3d</fix>
</trkpt>
<trkpt lat="-35.2833762" lon="148.9858884">
  <ele>696.3</ele>
  <time>2026-09-01T19:59:53Z</time>
  <course>175.42</course>
  <speed>26.03313465566527</speed>
  <fix>3d</fix>
</trkpt>
<trkpt lat="-35.2833306" lon="148.9858841">
  <ele>696.23</ele>
  <time>2026-09-01T19:59:53Z</time>
  <course>175.75</course>
  <speed>26.02</speed>
  <fix>3d</fix>
</trkpt>
<trkpt lat="-35.2833992" lon="148.9858905">
  <ele>696.34</ele>
  <time>2026-09-01T19:59:53Z</time>
  <course>175.46</course>
  <speed>26.023162759357287</speed>
  <fix>3d</fix>
</trkpt>
<trkpt lat="-35.2833772" lon="148.9858884">
  <ele>696.32</ele>
  <time>2026-09-01T19:59:53Z</time>
  <course>175.73</course>
  <speed>26.02</speed>
  <fix>3d</fix>
</trkpt>
<trkpt lat="-35.2834222" lon="148.9858926">
  <ele>696.37</ele>
  <time>2026-09-01T19:59:53Z</time>
  <course>175.42</course>
  <speed>26.01394241555862</speed>
  <fix>3d</fix>
</trkpt>
<trkpt lat="-35.2833772" lon="148.9858884">
  <ele>696.32</ele>
  <time>2026-09-01T19:59:53Z</time>
  <course>175.73</course>
  <speed>26.02</speed>
  <fix>3d</fix>
</trkpt>
<trkpt lat="-35.2834451" lon="148.9858947">
  <ele>696.41</ele>
  <time>2026-09-01T19:59:53Z</time>
  <course>175.39</course>
  <speed>26.003970850622025</speed>
  <fix>3d</fix>
</trkpt>
<trkpt lat="-35.2834237" lon="148.9858927">
  <ele>696.39</ele>
  <time>2026-09-01T19:59:53Z</time>
  <course>175.71</course>
  <speed>26.03</speed>
  <fix>3d</fix>
</trkpt>
<trkpt lat="-35.2834682" lon="148.9858969">
  <ele>696.44</ele>
  <time>2026-09-01T19:59:53Z</time>
  <course>175.38</course>
  <speed>25.993999307532498</speed>
  <fix>3d</fix>
</trkpt>
<trkpt lat="-35.2834237" lon="148.9858927">
  <ele>696.39</ele>
  <time>2026-09-01T19:59:53Z</time>
  <course>175.71</course>
  <speed>26.03</speed>
  <fix>3d</fix>
</trkpt>
<trkpt lat="-35.2834914" lon="148.985899">
  <ele>696.47</ele>
  <time>2026-09-01T19:59:53Z</time>
  <course>175.39</course>
  <speed>25.984784009108097</speed>
  <fix>3d</fix>
</trkpt>
<trkpt lat="-35.2834704" lon="148.9858969">
  <ele>696.45</ele>
  <time>2026-09-01T19:59:53Z</time>
  <course>175.69</course>
  <speed>26.03</speed>
  <fix>3d</fix>
</trkpt>
<trkpt lat="-35.283515" lon="148.9859012">
  <ele>696.5</ele>
  <time>2026-09-01T19:59:53Z</time>
  <course>175.43</course>
  <speed>25.984784009108097</speed>
  <fix>3d</fix>
</trkpt>
<trkpt lat="-35.2834704" lon="148.9858969">
  <ele>696.45</ele>
  <time>2026-09-01T19:59:53Z</time>
  <course>175.69</course>
  <speed>26.03</speed>
  <fix>3d</fix>
</trkpt>
<trkpt lat="-35.2835383" lon="148.9859033">
  <ele>696.54</ele>
  <time>2026-09-01T19:59:53Z</time>
  <course>175.43</course>
  <speed>25.984784009108097</speed>
  <fix>3d</fix>
</trkpt>
<trkpt lat="-35.283517" lon="148.9859013">
  <ele>696.52</ele>
  <time>2026-09-01T19:59:53Z</time>
  <course>175.68</course>
  <speed>26.03</speed>
  <fix>3d</fix>
</trkpt>
<trkpt lat="-35.2835614" lon="148.9859055">
  <ele>696.57</ele>
  <time>2026-09-01T19:59:53Z</time>
  <course>175.42</course>
  <speed>25.984784009108097</speed>
  <fix>3d</fix>
</trkpt>
<trkpt lat="-35.283517" lon="148.9859013">
  <ele>696.52</ele>
  <time>2026-09-01T19:59:53Z</time>
  <course>175.68</course>
  <speed>26.03</speed>
  <fix>3d</fix>
</trkpt>
<trkpt lat="-35.2835846" lon="148.9859076">
  <ele>696.59</ele>
  <time>2026-09-01T19:59:53Z</time>
  <course>175.39</course>
  <speed>25.9748128000954</speed>
  <fix>3d</fix>
</trkpt>
<trkpt lat="-35.2835637" lon="148.9859056">
  <ele>696.59</ele>
  <time>2026-09-01T19:59:53Z</time>
  <course>175.68</course>
  <speed>26.03</speed>
  <fix>3d</fix>
</trkpt>
<trkpt lat="-35.2836078" lon="148.9859098">
  <ele>696.62</ele>
  <time>2026-09-01T19:59:53Z</time>
  <course>175.29</course>
  <speed>25.9748128000954</speed>
  <fix>3d</fix>
</trkpt>
<trkpt lat="-35.2835637" lon="148.9859056">
  <ele>696.59</ele>
  <time>2026-09-01T19:59:53Z</time>
  <course>175.68</course>
  <speed>26.03</speed>
  <fix>3d</fix>
</trkpt>
<trkpt lat="-35.283631" lon="148.9859119">
  <ele>696.65</ele>
  <time>2026-09-01T19:59:53Z</time>
  <course>175.27</course>
  <speed>25.9748128000954</speed>
  <fix>3d</fix>
</trkpt>
<trkpt lat="-35.2836104" lon="148.9859099">
  <ele>696.66</ele>
  <time>2026-09-01T19:59:53Z</time>
  <course>175.67</course>
  <speed>26.03</speed>
  <fix>3d</fix>
</trkpt>
<trkpt lat="-35.2836541" lon="148.9859141">
  <ele>696.68</ele>
  <time>2026-09-01T19:59:53Z</time>
  <course>175.34</course>
  <speed>25.96560224604852</speed>
  <fix>3d</fix>
</trkpt>
<trkpt lat="-35.2836104" lon="148.9859099">
  <ele>696.66</ele>
  <time>2026-09-01T19:59:53Z</time>
  <course>175.67</course>
  <speed>26.03</speed>
  <fix>3d</fix>
</trkpt>
<trkpt lat="-35.2836773" lon="148.9859162">
  <ele>696.71</ele>
  <time>2026-09-01T19:59:53Z</time>
  <course>175.38</course>
  <speed>25.955631373557452</speed>
  <fix>3d</fix>
</trkpt>
<trkpt lat="-35.2836571" lon="148.9859142">
  <ele>696.72</ele>
  <time>2026-09-01T19:59:53Z</time>
  <course>175.66</course>
  <speed>26.03</speed>
  <fix>3d</fix>
</trkpt>
<trkpt lat="-35.2837005" lon="148.9859184">
  <ele>696.73</ele>
  <time>2026-09-01T19:59:53Z</time>
  <course>175.44</course>
  <speed>25.954870448530464</speed>
  <fix>3d</fix>
</trkpt>
<trkpt lat="-35.2836571" lon="148.9859142">
  <ele>696.72</ele>
  <time>2026-09-01T19:59:53Z</time>
  <course>175.66</course>
  <speed>26.03</speed>
  <fix>3d</fix>
</trkpt>
<trkpt lat="-35.2837237" lon="148.9859205">
  <ele>696.76</ele>
  <time>2026-09-01T19:59:53Z</time>
  <course>175.4</course>
  <speed>25.944899306029306</speed>
  <fix>3d</fix>
</trkpt>
<trkpt lat="-35.2837037" lon="148.9859185">
  <ele>696.78</ele>
  <time>2026-09-01T19:59:53Z</time>
  <course>175.67</course>
  <speed>26.02</speed>
  <fix>3d</fix>
</trkpt>
<trkpt lat="-35.283747" lon="148.9859227">
  <ele>696.79</ele>
  <time>2026-09-01T19:59:53Z</time>
  <course>175.38</course>
  <speed>25.944141920672575</speed>
  <fix>3d</fix>
</trkpt>
<trkpt lat="-35.2837037" lon="148.9859185">
  <ele>696.78</ele>
  <time>2026-09-01T19:59:53Z</time>
  <course>175.67</course>
  <speed>26.02</speed>
  <fix>3d</fix>
</trkpt>
<trkpt lat="-35.2837703" lon="148.9859248">
  <ele>696.82</ele>
  <time>2026-09-01T19:59:53Z</time>
  <course>175.4</course>
  <speed>25.924199119741385</speed>
  <fix>3d</fix>
</trkpt>
<trkpt lat="-35.2837502" lon="148.9859228">
  <ele>696.85</ele>
  <time>2026-09-01T19:59:53Z</time>
  <course>175.68</course>
  <speed>26.0</speed>
  <fix>3d</fix>
</trkpt>
<trkpt lat="-35.2837936" lon="148.985927">
  <ele>696.84</ele>
  <time>2026-09-01T19:59:53Z</time>
  <course>175.36</course>
  <speed>25.853643843760207</speed>
  <fix>3d</fix>
</trkpt>
<trkpt lat="-35.2837502" lon="148.9859228">
  <ele>696.85</ele>
  <time>2026-09-01T19:59:53Z</time>
  <course>175.68</course>
  <speed>26.0</speed>
  <fix>3d</fix>
</trkpt>
<trkpt lat="-35.2838169" lon="148.9859291">
  <ele>696.87</ele>
  <time>2026-09-01T19:59:53Z</time>
  <course>175.23</course>
  <speed>25.724775995137453</speed>
  <fix>3d</fix>
</trkpt>
<trkpt lat="-35.2837968" lon="148.9859271">
  <ele>696.91</ele>
  <time>2026-09-01T19:59:53Z</time>
  <course>175.67</course>
  <speed>25.88</speed>
  <fix>3d</fix>
</trkpt>
<trkpt lat="-35.28384" lon="148.9859314">
  <ele>696.93</ele>
  <time>2026-09-01T19:59:53Z</time>
  <course>174.84</course>
  <speed>25.508249645947878</speed>
  <fix>3d</fix>
</trkpt>
<trkpt lat="-35.2837968" lon="148.9859271">
  <ele>696.91</ele>
  <time>2026-09-01T19:59:53Z</time>
  <course>175.67</course>
  <speed>25.88</speed>
  <fix>3d</fix>
</trkpt>
<trkpt lat="-35.2838628" lon="148.9859338">
  <ele>697.04</ele>
  <time>2026-09-01T19:59:53Z</time>
  <course>174.18</course>
  <speed>25.19744629917881</speed>
  <fix>3d</fix>
</trkpt>
<trkpt lat="-35.2838428" lon="148.9859316">
  <ele>697.02</ele>
  <time>2026-09-01T19:59:53Z</time>
  <course>175.1</course>
  <speed>25.52</speed>
  <fix>3d</fix>
</trkpt>
<trkpt lat="-35.2838854" lon="148.9859368">
  <ele>697.19</ele>
  <time>2026-09-01T19:59:53Z</time>
  <course>173.17</course>
  <speed>24.810781930443063</speed>
  <fix>3d</fix>
</trkpt>
<trkpt lat="-35.2838428" lon="148.9859316">
  <ele>697.02</ele>
  <time>2026-09-01T19:59:53Z</time>
  <course>175.1</course>
  <speed>25.52</speed>
  <fix>3d</fix>
</trkpt>
<trkpt lat="-35.2839074" lon="148.9859401">
  <ele>697.39</ele>
  <time>2026-09-01T19:59:53Z</time>
  <course>171.86</course>
  <speed>24.360470028306104</speed>
  <fix>3d</fix>
</trkpt>
<trkpt lat="-35.2838878" lon="148.9859371">
  <ele>697.28</ele>
  <time>2026-09-01T19:59:53Z</time>
  <course>173.49</course>
  <speed>24.83</speed>
  <fix>3d</fix>
</trkpt>
<trkpt lat="-35.2839287" lon="148.9859439">
  <ele>697.63</ele>
  <time>2026-09-01T19:59:53Z</time>
  <course>170.44</course>
  <speed>23.89294665795745</speed>
  <fix>3d</fix>
</trkpt>
<trkpt lat="-35.2838878" lon="148.9859371">
  <ele>697.28</ele>
  <time>2026-09-01T19:59:53Z</time>
  <course>173.49</course>
  <speed>24.83</speed>
  <fix>3d</fix>
</trkpt>
<trkpt lat="-35.2839497" lon="148.9859483">
  <ele>697.91</ele>
  <time>2026-09-01T19:59:53Z</time>
  <course>169.04</course>
  <speed>23.396427077654398</speed>
  <fix>3d</fix>
</trkpt>
<trkpt lat="-35.2839313" lon="148.9859442">
  <ele>697.71</ele>
  <time>2026-09-01T19:59:53Z</time>
  <course>171.11</course>
  <speed>23.92</speed>
  <fix>3d</fix>
</trkpt>
<trkpt lat="-35.2839702" lon="148.9859531">
  <ele>698.21</ele>
  <time>2026-09-01T19:59:53Z</time>
  <course>167.76</course>
  <speed>22.90863810880079</speed>
  <fix>3d</fix>
</trkpt>
<trkpt lat="-35.2839313" lon="148.9859442">
  <ele>697.71</ele>
  <time>2026-09-01T19:59:53Z</time>
  <course>171.11</course>
  <speed>23.92</speed>
  <fix>3d</fix>
</trkpt>
<trkpt lat="-35.2839901" lon="148.9859583">
  <ele>698.55</ele>
  <time>2026-09-01T19:59:53Z</time>
  <course>166.69</course>
  <speed>22.412554517502016</speed>
  <fix>3d</fix>
</trkpt>
<trkpt lat="-35.2839727" lon="148.9859533">
  <ele>698.29</ele>
  <time>2026-09-01T19:59:53Z</time>
  <course>168.52</course>
  <speed>22.94</speed>
  <fix>3d</fix>
</trkpt>
<trkpt lat="-35.2840096" lon="148.985964">
  <ele>698.91</ele>
  <time>2026-09-01T19:59:53Z</time>
  <course>165.89</course>
  <speed>21.927665174386444</speed>
  <fix>3d</fix>
</trkpt>
<trkpt lat="-35.2839727" lon="148.9859533">
  <ele>698.29</ele>
  <time>2026-09-01T19:59:53Z</time>
  <course>168.52</course>
  <speed>22.94</speed>
  <fix>3d</fix>
</trkpt>
<trkpt lat="-35.2840285" lon="148.9859699">
  <ele>699.27</ele>
  <time>2026-09-01T19:59:53Z</time>
  <course>165.35</course>
  <speed>21.47621009396211</speed>
  <fix>3d</fix>
</trkpt>
<trkpt lat="-35.2840121" lon="148.9859641">
  <ele>698.97</ele>
  <time>2026-09-01T19:59:53Z</time>
  <course>166.21</course>
  <speed>21.98</speed>
  <fix>3d</fix>
</trkpt>
<trkpt lat="-35.284047" lon="148.9859759">
  <ele>699.64</ele>
  <time>2026-09-01T19:59:53Z</time>
  <course>164.97</course>
  <speed>21.056614162775553</speed>
  <fix>3d</fix>
</trkpt>
<trkpt lat="-35.2840121" lon="148.9859641">
  <ele>698.97</ele>
  <time>2026-09-01T19:59:53Z</time>
  <course>166.21</course>
  <speed>21.98</speed>
  <fix>3d</fix>
</trkpt>
<trkpt lat="-35.284065" lon="148.9859821">
  <ele>699.98</ele>
  <time>2026-09-01T19:59:53Z</time>
  <course>164.66</course>
  <speed>20.6837738336117</speed>
  <fix>3d</fix>
</trkpt>
<trkpt lat="-35.2840495" lon="148.9859761">
  <ele>699.69</ele>
  <time>2026-09-01T19:59:53Z</time>
  <course>164.58</course>
  <speed>21.12</speed>
  <fix>3d</fix>
</trkpt>
<trkpt lat="-35.2840828" lon="148.9859883">
  <ele>700.3</ele>
  <time>2026-09-01T19:59:53Z</time>
  <course>164.4</course>
  <speed>20.33685570583614</speed>
  <fix>3d</fix>
</trkpt>
<trkpt lat="-35.2840495" lon="148.9859761">
  <ele>699.69</ele>
  <time>2026-09-01T19:59:53Z</time>
  <course>164.58</course>
  <speed>21.12</speed>
  <fix>3d</fix>
</trkpt>
<trkpt lat="-35.2841002" lon="148.9859946">
  <ele>700.59</ele>
  <time>2026-09-01T19:59:53Z</time>
  <course>164.16</course>
  <speed>20.023358859092546</speed>
  <fix>3d</fix>
</trkpt>
<trkpt lat="-35.2840854" lon="148.9859887">
  <ele>700.35</ele>
  <time>2026-09-01T19:59:53Z</time>
  <course>163.6</course>
  <speed>20.39</speed>
  <fix>3d</fix>
</trkpt>
<trkpt lat="-35.2841176" lon="148.986001">
  <ele>700.84</ele>
  <time>2026-09-01T19:59:53Z</time>
  <course>163.94</course>
  <speed>19.723704013191842</speed>
  <fix>3d</fix>
</trkpt>
<trkpt lat="-35.2840854" lon="148.9859887">
  <ele>700.35</ele>
  <time>2026-09-01T19:59:53Z</time>
  <course>163.6</course>
  <speed>20.39</speed>
  <fix>3d</fix>
</trkpt>
<trkpt lat="-35.2841345" lon="148.9860073">
  <ele>701.06</ele>
  <time>2026-09-01T19:59:53Z</time>
  <course>163.73</course>
  <speed>19.450102827491683</speed>
  <fix>3d</fix>
</trkpt>
<trkpt lat="-35.28412" lon="148.9860014">
  <ele>700.88</ele>
  <time>2026-09-01T19:59:53Z</time>
  <course>163.01</course>
  <speed>19.76</speed>
  <fix>3d</fix>
</trkpt>
<trkpt lat="-35.2841513" lon="148.9860136">
  <ele>701.24</ele>
  <time>2026-09-01T19:59:53Z</time>
  <course>163.53</course>
  <speed>19.192837205582713</speed>
  <fix>3d</fix>
</trkpt>
<trkpt lat="-35.28412" lon="148.9860014">
  <ele>700.88</ele>
  <time>2026-09-01T19:59:53Z</time>
  <course>163.01</course>
  <speed>19.76</speed>
  <fix>3d</fix>
</trkpt>
<trkpt lat="-35.2841677" lon="148.9860198">
  <ele>701.39</ele>
  <time>2026-09-01T19:59:53Z</time>
  <course>163.33</course>
  <speed>18.951796748593523</speed>
  <fix>3d</fix>
</trkpt>
<trkpt lat="-35.2841534" lon="148.986014">
  <ele>701.28</ele>
  <time>2026-09-01T19:59:53Z</time>
  <course>162.67</course>
  <speed>19.2</speed>
  <fix>3d</fix>
</trkpt>
<trkpt lat="-35.2841841" lon="148.9860261">
  <ele>701.51</ele>
  <time>2026-09-01T19:59:53Z</time>
  <course>163.17</course>
  <speed>18.717360925087704</speed>
  <fix>3d</fix>
</trkpt>
<trkpt lat="-35.2841534" lon="148.986014">
  <ele>701.28</ele>
  <time>2026-09-01T19:59:53Z</time>
  <course>162.67</course>
  <speed>19.2</speed>
  <fix>3d</fix>
</trkpt>
<trkpt lat="-35.2842001" lon="148.9860322">
  <ele>701.6</ele>
  <time>2026-09-01T19:59:53Z</time>
  <course>163.03</course>
  <speed>18.499029704284492</speed>
  <fix>3d</fix>
</trkpt>
<trkpt lat="-35.2841859" lon="148.9860266">
  <ele>701.54</ele>
  <time>2026-09-01T19:59:53Z</time>
  <course>162.49</course>
  <speed>18.71</speed>
  <fix>3d</fix>
</trkpt>
<trkpt lat="-35.2842161" lon="148.9860383">
  <ele>701.66</ele>
  <time>2026-09-01T19:59:53Z</time>
  <course>162.93</course>
  <speed>18.287246922377353</speed>
  <fix>3d</fix>
</trkpt>
<trkpt lat="-35.2841859" lon="148.9860266">
  <ele>701.54</ele>
  <time>2026-09-01T19:59:53Z</time>
  <course>162.49</course>
  <speed>18.71</speed>
  <fix>3d</fix>
</trkpt>
<trkpt lat="-35.2842318" lon="148.9860444">
  <ele>701.7</ele>
  <time>2026-09-01T19:59:53Z</time>
  <course>162.88</course>
  <speed>18.09157262373838</speed>
  <fix>3d</fix>
</trkpt>
<trkpt lat="-35.2842175" lon="148.9860388">
  <ele>701.69</ele>
  <time>2026-09-01T19:59:53Z</time>
  <course>162.48</course>
  <speed>18.26</speed>
  <fix>3d</fix>
</trkpt>
<trkpt lat="-35.2842473" lon="148.9860503">
  <ele>701.72</ele>
  <time>2026-09-01T19:59:53Z</time>
  <course>162.88</course>
  <speed>17.905476815767848</speed>
  <fix>3d</fix>
</trkpt>
<trkpt lat="-35.2842175" lon="148.9860388">
  <ele>701.69</ele>
  <time>2026-09-01T19:59:53Z</time>
  <course>162.48</course>
  <speed>18.26</speed>
  <fix>3d</fix>
</trkpt>
<trkpt lat="-35.2842626" lon="148.9860561">
  <ele>701.72</ele>
  <time>2026-09-01T19:59:53Z</time>
  <course>162.92</course>
  <speed>17.7230838174399</speed>
  <fix>3d</fix>
</trkpt>
<trkpt lat="-35.2842484" lon="148.9860507">
  <ele>701.75</ele>
  <time>2026-09-01T19:59:53Z</time>
  <course>162.64</course>
  <speed>17.86</speed>
  <fix>3d</fix>
</trkpt>
<trkpt lat="-35.2842777" lon="148.9860617">
  <ele>701.71</ele>
  <time>2026-09-01T19:59:53Z</time>
  <course>163.02</course>
  <speed>17.54748130074513</speed>
  <fix>3d</fix>
</trkpt>
<trkpt lat="-35.2842484" lon="148.9860507">
  <ele>701.75</ele>
  <time>2026-09-01T19:59:53Z</time>
  <course>162.64</course>
  <speed>17.86</speed>
  <fix>3d</fix>
</trkpt>
<trkpt lat="-35.2842926" lon="148.9860672">
  <ele>701.69</ele>
  <time>2026-09-01T19:59:53Z</time>
  <course>163.18</course>
  <speed>17.378806057954613</speed>
  <fix>3d</fix>
</trkpt>
<trkpt lat="-35.2842788" lon="148.9860622">
  <ele>701.74</ele>
  <time>2026-09-01T19:59:53Z</time>
  <course>162.97</course>
  <speed>17.49</speed>
  <fix>3d</fix>
</trkpt>
<trkpt lat="-35.2843075" lon="148.9860727">
  <ele>701.66</ele>
  <time>2026-09-01T19:59:53Z</time>
  <course>163.4</course>
  <speed>17.20763202767888</speed>
  <fix>3d</fix>
</trkpt>
<trkpt lat="-35.2842788" lon="148.9860622">
  <ele>701.74</ele>
  <time>2026-09-01T19:59:53Z</time>
  <course>162.97</course>
  <speed>17.49</speed>
  <fix>3d</fix>
</trkpt>
<trkpt lat="-35.2843224" lon="148.986078">
  <ele>701.63</ele>
  <time>2026-09-01T19:59:53Z</time>
  <course>163.67</course>
  <speed>17.053333984884013</speed>
  <fix>3d</fix>
</trkpt>
<trkpt lat="-35.2843086" lon="148.9860732">
  <ele>701.7</ele>
  <time>2026-09-01T19:59:53Z</time>
  <course>163.49</course>
  <speed>17.15</speed>
  <fix>3d</fix>
</trkpt>
<trkpt lat="-35.2843371" lon="148.9860831">
  <ele>701.59</ele>
  <time>2026-09-01T19:59:53Z</time>
  <course>164.0</course>
  <speed>16.89963904939984</speed>
  <fix>3d</fix>
</trkpt>
<trkpt lat="-35.2843086" lon="148.9860732">
  <ele>701.7</ele>
  <time>2026-09-01T19:59:53Z</time>
  <course>163.49</course>
  <speed>17.15</speed>
  <fix>3d</fix>
</trkpt>
<trkpt lat="-35.2843518" lon="148.9860882">
  <ele>701.56</ele>
  <time>2026-09-01T19:59:53Z</time>
  <course>164.37</course>
  <speed>16.741284299599002</speed>
  <fix>3d</fix>
</trkpt>
<trkpt lat="-35.2843379" lon="148.9860836">
  <ele>701.64</ele>
  <time>2026-09-01T19:59:53Z</time>
  <course>164.19</course>
  <speed>16.82</speed>
  <fix>3d</fix>
</trkpt>
<trkpt lat="-35.2843664" lon="148.986093">
  <ele>701.52</ele>
  <time>2026-09-01T19:59:53Z</time>
  <course>164.77</course>
  <speed>16.593495713682515</speed>
  <fix>3d</fix>
</trkpt>
<trkpt lat="-35.2843379" lon="148.9860836">
  <ele>701.64</ele>
  <time>2026-09-01T19:59:53Z</time>
  <course>164.19</course>
  <speed>16.82</speed>
  <fix>3d</fix>
</trkpt>
<trkpt lat="-35.2843808" lon="148.9860976">
  <ele>701.49</ele>
  <time>2026-09-01T19:59:53Z</time>
  <course>165.21</course>
  <speed>16.441709156897286</speed>
  <fix>3d</fix>
</trkpt>
<trkpt lat="-35.2843668" lon="148.9860933">
  <ele>701.57</ele>
  <time>2026-09-01T19:59:53Z</time>
  <course>165.04</course>
  <speed>16.5</speed>
  <fix>3d</fix>
</trkpt>
<trkpt lat="-35.2843951" lon="148.986102">
  <ele>701.46</ele>
  <time>2026-09-01T19:59:53Z</time>
  <course>165.68</course>
  <speed>16.293630657407206</speed>
  <fix>3d</fix>
</trkpt>
<trkpt lat="-35.2843668" lon="148.9860933">
  <ele>701.57</ele>
  <time>2026-09-01T19:59:53Z</time>
  <course>165.04</course>
  <speed>16.5</speed>
  <fix>3d</fix>
</trkpt>
<trkpt lat="-35.2844093" lon="148.9861063">
  <ele>701.44</ele>
  <time>2026-09-01T19:59:53Z</time>
  <course>166.18</course>
  <speed>16.134695534778462</speed>
  <fix>3d</fix>
</trkpt>
<trkpt lat="-35.2843952" lon="148.9861024">
  <ele>701.52</ele>
  <time>2026-09-01T19:59:53Z</time>
  <course>166.03</course>
  <speed>16.19</speed>
  <fix>3d</fix>
</trkpt>
<trkpt lat="-35.2844234" lon="148.9861103">
  <ele>701.43</ele>
  <time>2026-09-01T19:59:53Z</time>
  <course>166.71</course>
  <speed>15.98464888572783</speed>
  <fix>3d</fix>
</trkpt>
<trkpt lat="-35.2843952" lon="148.9861024">
  <ele>701.52</ele>
  <time>2026-09-01T19:59:53Z</time>
  <course>166.03</course>
  <speed>16.19</speed>
  <fix>3d</fix>
</trkpt>
<trkpt lat="-35.2844373" lon="148.9861141">
  <ele>701.41</ele>
  <time>2026-09-01T19:59:53Z</time>
  <course>167.25</course>
  <speed>15.82644938070444</speed>
  <fix>3d</fix>
</trkpt>
<trkpt lat="-35.2844233" lon="148.9861106">
  <ele>701.48</ele>
  <time>2026-09-01T19:59:53Z</time>
  <course>167.12</course>
  <speed>15.87</speed>
  <fix>3d</fix>
</trkpt>
<trkpt lat="-35.2844512" lon="148.9861177">
  <ele>701.4</ele>
  <time>2026-09-01T19:59:53Z</time>
  <course>167.81</course>
  <speed>15.669875557897708</speed>
  <fix>3d</fix>
</trkpt>
<trkpt lat="-35.2844233" lon="148.9861106">
  <ele>701.48</ele>
  <time>2026-09-01T19:59:53Z</time>
  <course>167.12</course>
  <speed>15.87</speed>
  <fix>3d</fix>
</trkpt>
<trkpt lat="-35.2844649" lon="148.9861211">
  <ele>701.39</ele>
  <time>2026-09-01T19:59:53Z</time>
  <course>168.39</course>
  <speed>15.514976635496426</speed>
  <fix>3d</fix>
</trkpt>
<trkpt lat="-35.2844508" lon="148.9861179">
  <ele>701.45</ele>
  <time>2026-09-01T19:59:53Z</time>
  <course>168.29</course>
  <speed>15.55</speed>
  <fix>3d</fix>
</trkpt>
<trkpt lat="-35.2844785" lon="148.9861243">
  <ele>701.38</ele>
  <time>2026-09-01T19:59:53Z</time>
  <course>168.98</course>
  <speed>15.351967300642611</speed>
  <fix>3d</fix>
</trkpt>
<trkpt lat="-35.2844508" lon="148.9861179">
  <ele>701.45</ele>
  <time>2026-09-01T19:59:53Z</time>
  <course>168.29</course>
  <speed>15.55</speed>
  <fix>3d</fix>
</trkpt>
<trkpt lat="-35.284492" lon="148.9861273">
  <ele>701.38</ele>
  <time>2026-09-01T19:59:53Z</time>
  <course>169.58</course>
  <speed>15.200552621533204</speed>
  <fix>3d</fix>
</trkpt>
<trkpt lat="-35.284478" lon="148.9861245">
  <ele>701.44</ele>
  <time>2026-09-01T19:59:53Z</time>
  <course>169.52</course>
  <speed>15.23</speed>
  <fix>3d</fix>
</trkpt>
<trkpt lat="-35.2845053" lon="148.98613">
  <ele>701.38</ele>
  <time>2026-09-01T19:59:53Z</time>
  <course>170.2</course>
  <speed>15.041097034458623</speed>
  <fix>3d</fix>
</trkpt>
<trkpt lat="-35.284478" lon="148.9861245">
  <ele>701.44</ele>
  <time>2026-09-01T19:59:53Z</time>
  <course>169.52</course>
  <speed>15.23</speed>
  <fix>3d</fix>
</trkpt>
<trkpt lat="-35.2845186" lon="148.9861326">
  <ele>701.39</ele>
  <time>2026-09-01T19:59:53Z</time>
  <course>170.82</course>
  <speed>14.883494213389543</speed>
  <fix>3d</fix>
</trkpt>
<trkpt lat="-35.2845047" lon="148.9861301">
  <ele>701.44</ele>
  <time>2026-09-01T19:59:53Z</time>
  <course>170.79</course>
  <speed>14.91</speed>
  <fix>3d</fix>
</trkpt>
<trkpt lat="-35.2845317" lon="148.9861349">
  <ele>701.39</ele>
  <time>2026-09-01T19:59:53Z</time>
  <course>171.46</course>
  <speed>14.719266286061952</speed>
  <fix>3d</fix>
</trkpt>
<trkpt lat="-35.2845047" lon="148.9861301">
  <ele>701.44</ele>
  <time>2026-09-01T19:59:53Z</time>
  <course>170.79</course>
  <speed>14.91</speed>
  <fix>3d</fix>
</trkpt>
<trkpt lat="-35.2845447" lon="148.9861371">
  <ele>701.4</ele>
  <time>2026-09-01T19:59:53Z</time>
  <course>172.1</course>
  <speed>14.555497243309828</speed>
  <fix>3d</fix>
</trkpt>
<trkpt lat="-35.2845308" lon="148.986135">
  <ele>701.45</ele>
  <time>2026-09-01T19:59:53Z</time>
  <course>172.09</course>
  <speed>14.59</speed>
  <fix>3d</fix>
</trkpt>
<trkpt lat="-35.2845574" lon="148.986139">
  <ele>701.41</ele>
  <time>2026-09-01T19:59:54Z</time>
  <course>172.75</course>
  <speed>14.384943517442117</speed>
  <fix>3d</fix>
</trkpt>
<trkpt lat="-35.2845308" lon="148.986135">
  <ele>701.45</ele>
  <time>2026-09-01T19:59:54Z</time>
  <course>172.09</course>
  <speed>14.59</speed>
  <fix>3d</fix>
</trkpt>
<trkpt lat="-35.2845698" lon="148.9861407">
  <ele>701.42</ele>
  <time>2026-09-01T19:59:54Z</time>
  <course>173.4</course>
  <speed>14.216205541564177</speed>
  <fix>3d</fix>
</trkpt>
<trkpt lat="-35.2845566" lon="148.9861389">
  <ele>701.47</ele>
  <time>2026-09-01T19:59:54Z</time>
  <course>173.42</course>
  <speed>14.27</speed>
  <fix>3d</fix>
</trkpt>
<trkpt lat="-35.2845823" lon="148.9861422">
  <ele>701.43</ele>
  <time>2026-09-01T19:59:54Z</time>
  <course>174.06</course>
  <speed>14.059306526283578</speed>
  <fix>3d</fix>
</trkpt>
<trkpt lat="-35.2845566" lon="148.9861389">
  <ele>701.47</ele>
  <time>2026-09-01T19:59:54Z</time>
  <course>173.42</course>
  <speed>14.27</speed>
  <fix>3d</fix>
</trkpt>
<trkpt lat="-35.2845946" lon="148.9861435">
  <ele>701.44</ele>
  <time>2026-09-01T19:59:54Z</time>
  <course>174.73</course>
  <speed>13.895211405372715</speed>
  <fix>3d</fix>
</trkpt>
<trkpt lat="-35.2845818" lon="148.9861422">
  <ele>701.49</ele>
  <time>2026-09-01T19:59:54Z</time>
  <course>174.75</course>
  <speed>13.96</speed>
  <fix>3d</fix>
</trkpt>
<trkpt lat="-35.2846068" lon="148.9861446">
  <ele>701.45</ele>
  <time>2026-09-01T19:59:54Z</time>
  <course>175.39</course>
  <speed>13.732898455897793</speed>
  <fix>3d</fix>
</trkpt>
<trkpt lat="-35.2845818" lon="148.9861422">
  <ele>701.49</ele>
  <time>2026-09-01T19:59:54Z</time>
  <course>174.75</course>
  <speed>13.96</speed>
  <fix>3d</fix>
</trkpt>
<trkpt lat="-35.2846189" lon="148.9861456">
  <ele>701.46</ele>
  <time>2026-09-01T19:59:54Z</time>
  <course>176.07</course>
  <speed>13.572431617068476</speed>
  <fix>3d</fix>
</trkpt>
<trkpt lat="-35.2846065" lon="148.9861446">
  <ele>701.52</ele>
  <time>2026-09-01T19:59:54Z</time>
  <course>176.09</course>
  <speed>13.65</speed>
  <fix>3d</fix>
</trkpt>
<trkpt lat="-35.284631" lon="148.9861463">
  <ele>701.47</ele>
  <time>2026-09-01T19:59:54Z</time>
  <course>176.75</course>
  <speed>13.41387714272052</speed>
  <fix>3d</fix>
</trkpt>
<trkpt lat="-35.2846065" lon="148.9861446">
  <ele>701.52</ele>
  <time>2026-09-01T19:59:54Z</time>
  <course>176.09</course>
  <speed>13.65</speed>
  <fix>3d</fix>
</trkpt>
<trkpt lat="-35.2846429" lon="148.9861469">
  <ele>701.48</ele>
  <time>2026-09-01T19:59:54Z</time>
  <course>177.42</course>
  <speed>13.257639307206995</speed>
  <fix>3d</fix>
</trkpt>
<trkpt lat="-35.2846308" lon="148.9861462">
  <ele>701.55</ele>
  <time>2026-09-01T19:59:54Z</time>
  <course>177.44</course>
  <speed>13.34</speed>
  <fix>3d</fix>
</trkpt>
<trkpt lat="-35.2846546" lon="148.9861473">
  <ele>701.5</ele>
  <time>2026-09-01T19:59:54Z</time>
  <course>178.1</course>
  <speed>13.103434664239753</speed>
  <fix>3d</fix>
</trkpt>
<trkpt lat="-35.2846308" lon="148.9861462">
  <ele>701.55</ele>
  <time>2026-09-01T19:59:54Z</time>
  <course>177.44</course>
  <speed>13.34</speed>
  <fix>3d</fix>
</trkpt>
<trkpt lat="-35.2846662" lon="148.9861475">
  <ele>701.51</ele>
  <time>2026-09-01T19:59:54Z</time>
  <course>178.78</course>
  <speed>12.95075673464682</speed>
  <fix>3d</fix>
</trkpt>
<trkpt lat="-35.2846545" lon="148.9861472">
  <ele>701.57</ele>
  <time>2026-09-01T19:59:54Z</time>
  <course>178.78</course>
  <speed>13.04</speed>
  <fix>3d</fix>
</trkpt>
<trkpt lat="-35.2846776" lon="148.9861476">
  <ele>701.52</ele>
  <time>2026-09-01T19:59:54Z</time>
  <course>179.46</course>
  <speed>12.79</speed>
  <fix>3d</fix>
</trkpt>
<trkpt lat="-35.2846545" lon="148.9861472">
  <ele>701.57</ele>
  <time>2026-09-01T19:59:54Z</time>
  <course>178.78</course>
  <speed>13.04</speed>
  <fix>3d</fix>
</trkpt>
<trkpt lat="-35.2846889" lon="148.9861475">
  <ele>701.53</ele>
  <time>2026-09-01T19:59:54Z</time>
  <course>180.16</course>
  <speed>12.640775292678848</speed>
  <fix>3d</fix>
</trkpt>
<trkpt lat="-35.2846777" lon="148.9861475">
  <ele>701.6</ele>
  <time>2026-09-01T19:59:54Z</time>
  <course>180.12</course>
  <speed>12.74</speed>
  <fix>3d</fix>
</trkpt>
<trkpt lat="-35.2847001" lon="148.9861473">
  <ele>701.55</ele>
  <time>2026-09-01T19:59:54Z</time>
  <course>180.84</course>
  <speed>12.473143148380844</speed>
  <fix>3d</fix>
</trkpt>
<trkpt lat="-35.2846777" lon="148.9861475">
  <ele>701.6</ele>
  <time>2026-09-01T19:59:54Z</time>
  <course>180.12</course>
  <speed>12.74</speed>
  <fix>3d</fix>
</trkpt>
<trkpt lat="-35.2847111" lon="148.986147">
  <ele>701.57</ele>
  <time>2026-09-01T19:59:54Z</time>
  <course>181.51</course>
  <speed>12.317162822663342</speed>
  <fix>3d</fix>
</trkpt>
<trkpt lat="-35.2847003" lon="148.9861472">
  <ele>701.64</ele>
  <time>2026-09-01T19:59:54Z</time>
  <course>181.45</course>
  <speed>12.43</speed>
  <fix>3d</fix>
</trkpt>
<trkpt lat="-35.2847219" lon="148.9861464">
  <ele>701.59</ele>
  <time>2026-09-01T19:59:54Z</time>
  <course>182.17</course>
  <speed>12.162442188968464</speed>
  <fix>3d</fix>
</trkpt>
<trkpt lat="-35.2847003" lon="148.9861472">
  <ele>701.64</ele>
  <time>2026-09-01T19:59:54Z</time>
  <course>181.45</course>
  <speed>12.43</speed>
  <fix>3d</fix>
</trkpt>
<trkpt lat="-35.2847326" lon="148.9861457">
  <ele>701.61</ele>
  <time>2026-09-01T19:59:54Z</time>
  <course>182.82</course>
  <speed>11.998720765148256</speed>
  <fix>3d</fix>
</trkpt>
<trkpt lat="-35.2847224" lon="148.9861462">
  <ele>701.68</ele>
  <time>2026-09-01T19:59:54Z</time>
  <course>182.75</course>
  <speed>12.13</speed>
  <fix>3d</fix>
</trkpt>
<trkpt lat="-35.2847432" lon="148.9861449">
  <ele>701.63</ele>
  <time>2026-09-01T19:59:54Z</time>
  <course>183.46</course>
  <speed>11.836393031662983</speed>
  <fix>3d</fix>
</trkpt>
<trkpt lat="-35.2847224" lon="148.9861462">
  <ele>701.68</ele>
  <time>2026-09-01T19:59:54Z</time>
  <course>182.75</course>
  <speed>12.13</speed>
  <fix>3d</fix>
</trkpt>
<trkpt lat="-35.2847536" lon="148.986144">
  <ele>701.65</ele>
  <time>2026-09-01T19:59:54Z</time>
  <course>184.08</course>
  <speed>11.68548672499353</speed>
  <fix>3d</fix>
</trkpt>
<trkpt lat="-35.2847438" lon="148.9861446">
  <ele>701.72</ele>
  <time>2026-09-01T19:59:54Z</time>
  <course>184.02</course>
  <speed>11.82</speed>
  <fix>3d</fix>
</trkpt>
<trkpt lat="-35.2847639" lon="148.9861429">
  <ele>701.68</ele>
  <time>2026-09-01T19:59:54Z</time>
  <course>184.71</course>
  <speed>11.515263783344261</speed>
  <fix>3d</fix>
</trkpt>
<trkpt lat="-35.2847438" lon="148.9861446">
  <ele>701.72</ele>
  <time>2026-09-01T19:59:54Z</time>
  <course>184.02</course>
  <speed>11.82</speed>
  <fix>3d</fix>
</trkpt>
<trkpt lat="-35.2847741" lon="148.9861417">
  <ele>701.7</ele>
  <time>2026-09-01T19:59:54Z</time>
  <course>185.32</course>
  <speed>11.3553687742847</speed>
  <fix>3d</fix>
</trkpt>
<trkpt lat="-35.2847648" lon="148.9861426">
  <ele>701.77</ele>
  <time>2026-09-01T19:59:54Z</time>
  <course>185.26</course>
  <speed>11.51</speed>
  <fix>3d</fix>
</trkpt>
<trkpt lat="-35.2847841" lon="148.9861404">
  <ele>701.73</ele>
  <time>2026-09-01T19:59:54Z</time>
  <course>185.91</course>
  <speed>11.196664681948816</speed>
  <fix>3d</fix>
</trkpt>
<trkpt lat="-35.2847648" lon="148.9861426">
  <ele>701.77</ele>
  <time>2026-09-01T19:59:54Z</time>
  <course>185.26</course>
  <speed>11.51</speed>
  <fix>3d</fix>
</trkpt>
<trkpt lat="-35.284794" lon="148.986139">
  <ele>701.76</ele>
  <time>2026-09-01T19:59:54Z</time>
  <course>186.5</course>
  <speed>11.038011596297588</speed>
  <fix>3d</fix>
</trkpt>
<trkpt lat="-35.284785" lon="148.98614">
  <ele>701.82</ele>
  <time>2026-09-01T19:59:54Z</time>
  <course>186.46</course>
  <speed>11.2</speed>
  <fix>3d</fix>
</trkpt>
<trkpt lat="-35.2848038" lon="148.9861375">
  <ele>701.79</ele>
  <time>2026-09-01T19:59:54Z</time>
  <course>187.07</course>
  <speed>10.870528965970331</speed>
  <fix>3d</fix>
</trkpt>
<trkpt lat="-35.284785" lon="148.98614">
  <ele>701.82</ele>
  <time>2026-09-01T19:59:54Z</time>
  <course>186.46</course>
  <speed>11.2</speed>
  <fix>3d</fix>
</trkpt>
<trkpt lat="-35.2848134" lon="148.9861358">
  <ele>701.82</ele>
  <time>2026-09-01T19:59:54Z</time>
  <course>187.64</course>
  <speed>10.712726076960989</speed>
  <fix>3d</fix>
</trkpt>
<trkpt lat="-35.2848047" lon="148.9861371">
  <ele>701.88</ele>
  <time>2026-09-01T19:59:54Z</time>
  <course>187.62</course>
  <speed>10.87</speed>
  <fix>3d</fix>
</trkpt>
<trkpt lat="-35.2848229" lon="148.9861341">
  <ele>701.86</ele>
  <time>2026-09-01T19:59:54Z</time>
  <course>188.2</course>
  <speed>10.546018205939149</speed>
  <fix>3d</fix>
</trkpt>
<trkpt lat="-35.2848047" lon="148.9861371">
  <ele>701.88</ele>
  <time>2026-09-01T19:59:54Z</time>
  <course>187.62</course>
  <speed>10.87</speed>
  <fix>3d</fix>
</trkpt>
<trkpt lat="-35.2848322" lon="148.9861323">
  <ele>701.89</ele>
  <time>2026-09-01T19:59:54Z</time>
  <course>188.75</course>
  <speed>10.378795691215817</speed>
  <fix>3d</fix>
</trkpt>
<trkpt lat="-35.2848237" lon="148.9861336">
  <ele>701.94</ele>
  <time>2026-09-01T19:59:54Z</time>
  <course>188.74</course>
  <speed>10.54</speed>
  <fix>3d</fix>
</trkpt>
<trkpt lat="-35.2848414" lon="148.9861304">
  <ele>701.93</ele>
  <time>2026-09-01T19:59:54Z</time>
  <course>189.28</course>
  <speed>10.212487454092662</speed>
  <fix>3d</fix>
</trkpt>
<trkpt lat="-35.2848237" lon="148.9861336">
  <ele>701.94</ele>
  <time>2026-09-01T19:59:54Z</time>
  <course>188.74</course>
  <speed>10.54</speed>
  <fix>3d</fix>
</trkpt>
<trkpt lat="-35.2848504" lon="148.9861285">
  <ele>701.97</ele>
  <time>2026-09-01T19:59:54Z</time>
  <course>189.81</course>
  <speed>10.03553685659118</speed>
  <fix>3d</fix>
</trkpt>
<trkpt lat="-35.2848421" lon="148.98613">
  <ele>702.01</ele>
  <time>2026-09-01T19:59:54Z</time>
  <course>189.82</course>
  <speed>10.21</speed>
  <fix>3d</fix>
</trkpt>
<trkpt lat="-35.2848592" lon="148.9861265">
  <ele>702.0</ele>
  <time>2026-09-01T19:59:54Z</time>
  <course>190.32</course>
  <speed>9.857596055834302</speed>
  <fix>3d</fix>
</trkpt>
<trkpt lat="-35.2848421" lon="148.98613">
  <ele>702.01</ele>
  <time>2026-09-01T19:59:54Z</time>
  <course>189.82</course>
  <speed>10.21</speed>
  <fix>3d</fix>
</trkpt>
<trkpt lat="-35.2848678" lon="148.9861245">
  <ele>702.04</ele>
  <time>2026-09-01T19:59:54Z</time>
  <course>190.83</course>
  <speed>9.69018575673346</speed>
  <fix>3d</fix>
</trkpt>
<trkpt lat="-35.2848599" lon="148.986126">
  <ele>702.08</ele>
  <time>2026-09-01T19:59:54Z</time>
  <course>190.85</course>
  <speed>9.86</speed>
  <fix>3d</fix>
</trkpt>
<trkpt lat="-35.2848762" lon="148.9861223">
  <ele>702.08</ele>
  <time>2026-09-01T19:59:54Z</time>
  <course>191.32</course>
  <speed>9.513700646961729</speed>
  <fix>3d</fix>
</trkpt>
<trkpt lat="-35.2848599" lon="148.986126">
  <ele>702.08</ele>
  <time>2026-09-01T19:59:54Z</time>
  <course>190.85</course>
  <speed>9.86</speed>
  <fix>3d</fix>
</trkpt>
<trkpt lat="-35.2848845" lon="148.9861202">
  <ele>702.11</ele>
  <time>2026-09-01T19:59:54Z</time>
  <course>191.79</course>
  <speed>9.324054911893215</speed>
  <fix>3d</fix>
</trkpt>
<trkpt lat="-35.284877" lon="148.9861218">
  <ele>702.15</ele>
  <time>2026-09-01T19:59:54Z</time>
  <course>191.83</course>
  <speed>9.51</speed>
  <fix>3d</fix>
</trkpt>
<trkpt lat="-35.2848926" lon="148.986118">
  <ele>702.15</ele>
  <time>2026-09-01T19:59:54Z</time>
  <course>192.25</course>
  <speed>9.146873782883418</speed>
  <fix>3d</fix>
</trkpt>
<trkpt lat="-35.284877" lon="148.9861218">
  <ele>702.15</ele>
  <time>2026-09-01T19:59:54Z</time>
  <course>191.83</course>
  <speed>9.51</speed>
  <fix>3d</fix>
</trkpt>
<trkpt lat="-35.2849006" lon="148.9861158">
  <ele>702.19</ele>
  <time>2026-09-01T19:59:54Z</time>
  <course>192.69</course>
  <speed>8.965913227329384</speed>
  <fix>3d</fix>
</trkpt>
<trkpt lat="-35.2848934" lon="148.9861174">
  <ele>702.22</ele>
  <time>2026-09-01T19:59:54Z</time>
  <course>192.76</course>
  <speed>9.15</speed>
  <fix>3d</fix>
</trkpt>
<trkpt lat="-35.2849084" lon="148.9861135">
  <ele>702.22</ele>
  <time>2026-09-01T19:59:54Z</time>
  <course>193.13</course>
  <speed>8.787684564206888</speed>
  <fix>3d</fix>
</trkpt>
<trkpt lat="-35.2848934" lon="148.9861174">
  <ele>702.22</ele>
  <time>2026-09-01T19:59:54Z</time>
  <course>192.76</course>
  <speed>9.15</speed>
  <fix>3d</fix>
</trkpt>
<trkpt lat="-35.284916" lon="148.9861112">
  <ele>702.25</ele>
  <time>2026-09-01T19:59:54Z</time>
  <course>193.55</course>
  <speed>8.60767680620038</speed>
  <fix>3d</fix>
</trkpt>
<trkpt lat="-35.284909" lon="148.9861129">
  <ele>702.29</ele>
  <time>2026-09-01T19:59:54Z</time>
  <course>193.64</course>
  <speed>8.78</speed>
  <fix>3d</fix>
</trkpt>
<trkpt lat="-35.2849234" lon="148.9861089">
  <ele>702.29</ele>
  <time>2026-09-01T19:59:54Z</time>
  <course>193.97</course>
  <speed>8.416008555128732</speed>
  <fix>3d</fix>
</trkpt>
<trkpt lat="-35.284909" lon="148.9861129">
  <ele>702.29</ele>
  <time>2026-09-01T19:59:54Z</time>
  <course>193.64</course>
  <speed>8.78</speed>
  <fix>3d</fix>
</trkpt>
<trkpt lat="-35.2849307" lon="148.9861066">
  <ele>702.32</ele>
  <time>2026-09-01T19:59:54Z</time>
  <course>194.37</course>
  <speed>8.22474923629894</speed>
  <fix>3d</fix>
</trkpt>
<trkpt lat="-35.2849241" lon="148.9861083">
  <ele>702.36</ele>
  <time>2026-09-01T19:59:54Z</time>
  <course>194.49</course>
  <speed>8.41</speed>
  <fix>3d</fix>
</trkpt>
<trkpt lat="-35.2849378" lon="148.9861042">
  <ele>702.34</ele>
  <time>2026-09-01T19:59:54Z</time>
  <course>194.77</course>
  <speed>8.043587508071258</speed>
  <fix>3d</fix>
</trkpt>
<trkpt lat="-35.2849241" lon="148.9861083">
  <ele>702.36</ele>
  <time>2026-09-01T19:59:54Z</time>
  <course>194.49</course>
  <speed>8.41</speed>
  <fix>3d</fix>
</trkpt>
<trkpt lat="-35.2849447" lon="148.9861019">
  <ele>702.37</ele>
  <time>2026-09-01T19:59:54Z</time>
  <course>195.15</course>
  <speed>7.85056048954468</speed>
  <fix>3d</fix>
</trkpt>
<trkpt lat="-35.2849383" lon="148.9861037">
  <ele>702.42</ele>
  <time>2026-09-01T19:59:54Z</time>
  <course>195.29</course>
  <speed>8.03</speed>
  <fix>3d</fix>
</trkpt>
<trkpt lat="-35.2849514" lon="148.9860996">
  <ele>702.39</ele>
  <time>2026-09-01T19:59:54Z</time>
  <course>195.52</course>
  <speed>7.657891354674601</speed>
  <fix>3d</fix>
</trkpt>
<trkpt lat="-35.2849383" lon="148.9861037">
  <ele>702.42</ele>
  <time>2026-09-01T19:59:54Z</time>
  <course>195.29</course>
  <speed>8.03</speed>
  <fix>3d</fix>
</trkpt>
<trkpt lat="-35.2849579" lon="148.9860972">
  <ele>702.41</ele>
  <time>2026-09-01T19:59:54Z</time>
  <course>195.88</course>
  <speed>7.4628278822441025</speed>
  <fix>3d</fix>
</trkpt>
<trkpt lat="-35.2849518" lon="148.986099">
  <ele>702.47</ele>
  <time>2026-09-01T19:59:54Z</time>
  <course>196.06</course>
  <speed>7.64</speed>
  <fix>3d</fix>
</trkpt>
<trkpt lat="-35.2849643" lon="148.9860949">
  <ele>702.43</ele>
  <time>2026-09-01T19:59:54Z</time>
  <course>196.23</course>
  <speed>7.25845713633414</speed>
  <fix>3d</fix>
</trkpt>
<trkpt lat="-35.2849518" lon="148.986099">
  <ele>702.47</ele>
  <time>2026-09-01T19:59:54Z</time>
  <course>196.06</course>
  <speed>7.64</speed>
  <fix>3d</fix>
</trkpt>
<trkpt lat="-35.2849704" lon="148.9860926">
  <ele>702.44</ele>
  <time>2026-09-01T19:59:54Z</time>
  <course>196.56</course>
  <speed>7.0611047294315075</speed>
  <fix>3d</fix>
</trkpt>
<trkpt lat="-35.2849647" lon="148.9860943">
  <ele>702.5</ele>
  <time>2026-09-01T19:59:54Z</time>
  <course>196.78</course>
  <speed>7.25</speed>
  <fix>3d</fix>
</trkpt>
<trkpt lat="-35.2849764" lon="148.9860904">
  <ele>702.45</ele>
  <time>2026-09-01T19:59:54Z</time>
  <course>196.89</course>
  <speed>6.873521659236989</speed>
  <fix>3d</fix>
</trkpt>
<trkpt lat="-35.2849647" lon="148.9860943">
  <ele>702.5</ele>
  <time>2026-09-01T19:59:54Z</time>
  <course>196.78</course>
  <speed>7.25</speed>
  <fix>3d</fix>
</trkpt>
<trkpt lat="-35.2849822" lon="148.9860881">
  <ele>702.41</ele>
  <time>2026-09-01T19:59:54Z</time>
  <course>197.2</course>
  <speed>6.658115348955739</speed>
  <fix>3d</fix>
</trkpt>
<trkpt lat="-35.2849768" lon="148.9860898">
  <ele>702.51</ele>
  <time>2026-09-01T19:59:54Z</time>
  <course>197.34</course>
  <speed>6.85</speed>
  <fix>3d</fix>
</trkpt>
<trkpt lat="-35.2849878" lon="148.986086">
  <ele>702.3</ele>
  <time>2026-09-01T19:59:54Z</time>
  <course>197.51</course>
  <speed>6.376535109289371</speed>
  <fix>3d</fix>
</trkpt>
<trkpt lat="-35.2849768" lon="148.9860898">
  <ele>702.51</ele>
  <time>2026-09-01T19:59:54Z</time>
  <course>197.34</course>
  <speed>6.85</speed>
  <fix>3d</fix>
</trkpt>
<trkpt lat="-35.284993" lon="148.9860839">
  <ele>702.12</ele>
  <time>2026-09-01T19:59:54Z</time>
  <course>197.77</course>
  <speed>6.003082541494828</speed>
  <fix>3d</fix>
</trkpt>
<trkpt lat="-35.2849881" lon="148.9860855">
  <ele>702.36</ele>
  <time>2026-09-01T19:59:54Z</time>
  <course>197.65</course>
  <speed>6.32</speed>
  <fix>3d</fix>
</trkpt>
<trkpt lat="-35.284998" lon="148.986082">
  <ele>701.89</ele>
  <time>2026-09-01T19:59:54Z</time>
  <course>197.9</course>
  <speed>5.509210469749727</speed>
  <fix>3d</fix>
</trkpt>
<trkpt lat="-35.2849881" lon="148.9860855">
  <ele>702.36</ele>
  <time>2026-09-01T19:59:54Z</time>
  <course>197.65</course>
  <speed>6.32</speed>
  <fix>3d</fix>
</trkpt>
<trkpt lat="-35.2850024" lon="148.9860802">
  <ele>701.63</ele>
  <time>2026-09-01T19:59:54Z</time>
  <course>197.88</course>
  <speed>4.942762385549198</speed>
  <fix>3d</fix>
</trkpt>
<trkpt lat="-35.2849983" lon="148.9860814">
  <ele>701.97</ele>
  <time>2026-09-01T19:59:54Z</time>
  <course>198.07</course>
  <speed>5.47</speed>
  <fix>3d</fix>
</trkpt>
<trkpt lat="-35.2850064" lon="148.9860785">
  <ele>701.36</ele>
  <time>2026-09-01T19:59:54Z</time>
  <course>197.72</course>
  <speed>4.33549305154558</speed>
  <fix>3d</fix>
</trkpt>
<trkpt lat="-35.2849983" lon="148.9860814">
  <ele>701.97</ele>
  <time>2026-09-01T19:59:54Z</time>
  <course>198.07</course>
  <speed>5.47</speed>
  <fix>3d</fix>
</trkpt>
<trkpt lat="-35.2850099" lon="148.986077">
  <ele>701.08</ele>
  <time>2026-09-01T19:59:54Z</time>
  <course>197.48</course>
  <speed>3.713165765219754</speed>
  <fix>3d</fix>
</trkpt>
<trkpt lat="-35.2850066" lon="148.986078">
  <ele>701.45</ele>
  <time>2026-09-01T19:59:54Z</time>
  <course>199.13</course>
  <speed>4.32</speed>
  <fix>3d</fix>
</trkpt>
<trkpt lat="-35.2850127" lon="148.9860757">
  <ele>700.82</ele>
  <time>2026-09-01T19:59:54Z</time>
  <course>197.19</course>
  <speed>3.114514408378937</speed>
  <fix>3d</fix>
</trkpt>
<trkpt lat="-35.2850066" lon="148.986078">
  <ele>701.45</ele>
  <time>2026-09-01T19:59:54Z</time>
  <course>199.13</course>
  <speed>4.32</speed>
  <fix>3d</fix>
</trkpt>
<trkpt lat="-35.2850151" lon="148.9860745">
  <ele>700.57</ele>
  <time>2026-09-01T19:59:54Z</time>
  <course>196.9</course>
  <speed>2.5461539623518448</speed>
  <fix>3d</fix>
</trkpt>
<trkpt lat="-35.285013" lon="148.9860752">
  <ele>700.92</ele>
  <time>2026-09-01T19:59:54Z</time>
  <course>201.37</course>
  <speed>3.13</speed>
  <fix>3d</fix>
</trkpt>
<trkpt lat="-35.285017" lon="148.9860734">
  <ele>700.35</ele>
  <time>2026-09-01T19:59:54Z</time>
  <course>196.62</course>
  <speed>2.0443580899636933</speed>
  <fix>3d</fix>
</trkpt>
<trkpt lat="-35.285013" lon="148.9860752">
  <ele>700.92</ele>
  <time>2026-09-01T19:59:54Z</time>
  <course>201.37</course>
  <speed>3.13</speed>
  <fix>3d</fix>
</trkpt>
<trkpt lat="-35.2850185" lon="148.9860725">
  <ele>700.15</ele>
  <time>2026-09-01T19:59:54Z</time>
  <course>196.33</course>
  <speed>1.5938946012832844</speed>
  <fix>3d</fix>
</trkpt>
<trkpt lat="-35.2850172" lon="148.986073">
  <ele>700.46</ele>
  <time>2026-09-01T19:59:54Z</time>
  <course>206.01</course>
  <speed>2.06</speed>
  <fix>3d</fix>
</trkpt>
<trkpt lat="-35.2850196" lon="148.9860716">
  <ele>700.0</ele>
  <time>2026-09-01T19:59:54Z</time>
  <course>196.05</course>
  <speed>1.2124768039018314</speed>
  <fix>3d</fix>
</trkpt>
<trkpt lat="-35.2850172" lon="148.986073">
  <ele>700.46</ele>
  <time>2026-09-01T19:59:54Z</time>
  <course>206.01</course>
  <speed>2.06</speed>
  <fix>3d</fix>
</trkpt>
<trkpt lat="-35.2850203" lon="148.9860708">
  <ele>699.88</ele>
  <time>2026-09-01T19:59:54Z</time>
  <course>195.77</course>
  <speed>0.9052071586106685</speed>
  <fix>3d</fix>
</trkpt>
<trkpt lat="-35.2850198" lon="148.9860712">
  <ele>700.12</ele>
  <time>2026-09-01T19:59:54Z</time>
  <course>216.22</course>
  <speed>1.23</speed>
  <fix>3d</fix>
</trkpt>
<trkpt lat="-35.2850208" lon="148.9860701">
  <ele>699.79</ele>
  <time>2026-09-01T19:59:54Z</time>
  <course>195.48</course>
  <speed>0.696419413859206</speed>
  <fix>3d</fix>
</trkpt>
<trkpt lat="-35.2850198" lon="148.9860712">
  <ele>700.12</ele>
  <time>2026-09-01T19:59:54Z</time>
  <course>216.22</course>
  <speed>1.23</speed>
  <fix>3d</fix>
</trkpt>
<trkpt lat="-35.285021" lon="148.9860694">
  <ele>699.74</ele>
  <time>2026-09-01T19:59:54Z</time>
  <course>195.2</course>
  <speed>0.5772347875864725</speed>
  <fix>3d</fix>
</trkpt>
<trkpt lat="-35.285021" lon="148.9860696">
  <ele>699.92</ele>
  <time>2026-09-01T19:59:54Z</time>
  <course>239.38</course>
  <speed>0.71</speed>
  <fix>3d</fix>
</trkpt>
<trkpt lat="-35.2850211" lon="148.9860688">
  <ele>699.72</ele>
  <time>2026-09-01T19:59:54Z</time>
  <course>194.95</course>
  <speed>0.540092584655631</speed>
  <fix>3d</fix>
</trkpt>
<trkpt lat="-35.285021" lon="148.9860696">
  <ele>699.92</ele>
  <time>2026-09-01T19:59:54Z</time>
  <course>239.38</course>
  <speed>0.71</speed>
  <fix>3d</fix>
</trkpt>
<trkpt lat="-35.285021" lon="148.9860682">
  <ele>699.73</ele>
  <time>2026-09-01T19:59:54Z</time>
  <course>194.75</course>
  <speed>0.5434151267677411</speed>
  <fix>3d</fix>
</trkpt>
<trkpt lat="-35.2850212" lon="148.9860684">
  <ele>699.84</ele>
  <time>2026-09-01T19:59:54Z</time>
  <course>273.36</course>
  <speed>0.56</speed>
  <fix>3d</fix>
</trkpt>
<trkpt lat="-35.2850209" lon="148.9860675">
  <ele>699.77</ele>
  <time>2026-09-01T19:59:54Z</time>
  <course>194.65</course>
  <speed>0.5502726596879042</speed>
  <fix>3d</fix>
</trkpt>
<trkpt lat="-35.2850212" lon="148.9860684">
  <ele>699.84</ele>
  <time>2026-09-01T19:59:54Z</time>
  <course>273.36</course>
  <speed>0.56</speed>
  <fix>3d</fix>
</trkpt>
<trkpt lat="-35.2850208" lon="148.9860669">
  <ele>699.82</ele>
  <time>2026-09-01T19:59:54Z</time>
  <course>194.66</course>
  <speed>0.5646237685397242</speed>
  <fix>3d</fix>
</trkpt>
<trkpt lat="-35.285021" lon="148.9860671">
  <ele>699.88</ele>
  <time>2026-09-01T19:59:54Z</time>
  <course>292.61</course>
  <speed>0.58</speed>
  <fix>3d</fix>
</trkpt>
<trkpt lat="-35.2850206" lon="148.9860663">
  <ele>699.89</ele>
  <time>2026-09-01T19:59:54Z</time>
  <course>194.77</course>
  <speed>0.5594640292279746</speed>
  <fix>3d</fix>
</trkpt>
<trkpt lat="-35.285021" lon="148.9860671">
  <ele>699.88</ele>
  <time>2026-09-01T19:59:54Z</time>
  <course>292.61</course>
  <speed>0.58</speed>
  <fix>3d</fix>
</trkpt>
<trkpt lat="-35.2850204" lon="148.9860658">
  <ele>699.96</ele>
  <time>2026-09-01T19:59:54Z</time>
  <course>194.95</course>
  <speed>0.5412947441089743</speed>
  <fix>3d</fix>
</trkpt>
<trkpt lat="-35.2850205" lon="148.986066">
  <ele>700.0</ele>
  <time>2026-09-01T19:59:54Z</time>
  <course>298.42</course>
  <speed>0.59</speed>
  <fix>3d</fix>
</trkpt>
<trkpt lat="-35.2850202" lon="148.9860652">
  <ele>700.04</ele>
  <time>2026-09-01T19:59:54Z</time>
  <course>195.17</course>
  <speed>0.5280151512977634</speed>
  <fix>3d</fix>
</trkpt>
<trkpt lat="-35.2850205" lon="148.986066">
  <ele>700.0</ele>
  <time>2026-09-01T19:59:54Z</time>
  <course>298.42</course>
  <speed>0.59</speed>
  <fix>3d</fix>
</trkpt>
<trkpt lat="-35.28502" lon="148.9860646">
  <ele>700.11</ele>
  <time>2026-09-01T19:59:54Z</time>
  <course>195.37</course>
  <speed>0.5056678751908212</speed>
  <fix>3d</fix>
</trkpt>
<trkpt lat="-35.28502" lon="148.9860649">
  <ele>700.14</ele>
  <time>2026-09-01T19:59:54Z</time>
  <course>299.61</course>
  <speed>0.57</speed>
  <fix>3d</fix>
</trkpt>
<trkpt lat="-35.2850198" lon="148.9860641">
  <ele>700.18</ele>
  <time>2026-09-01T19:59:54Z</time>
  <course>195.51</course>
  <speed>0.47927027865287036</speed>
  <fix>3d</fix>
</trkpt>
<trkpt lat="-35.28502" lon="148.9860649">
  <ele>700.14</ele>
  <time>2026-09-01T19:59:54Z</time>
  <course>299.61</course>
  <speed>0.57</speed>
  <fix>3d</fix>
</trkpt>
<trkpt lat="-35.2850196" lon="148.9860636">
  <ele>700.24</ele>
  <time>2026-09-01T19:59:54Z</time>
  <course>195.58</course>
  <speed>0.45694638635183454</speed>
  <fix>3d</fix>
</trkpt>
<trkpt lat="-35.2850196" lon="148.9860639">
  <ele>700.28</ele>
  <time>2026-09-01T19:59:54Z</time>
  <course>299.23</course>
  <speed>0.52</speed>
  <fix>3d</fix>
</trkpt>
<trkpt lat="-35.2850194" lon="148.9860631">
  <ele>700.28</ele>
  <time>2026-09-01T19:59:54Z</time>
  <course>195.55</course>
  <speed>0.4308131845707603</speed>
  <fix>3d</fix>
</trkpt>
<trkpt lat="-35.2850196" lon="148.9860639">
  <ele>700.28</ele>
  <time>2026-09-01T19:59:54Z</time>
  <course>299.23</course>
  <speed>0.52</speed>
  <fix>3d</fix>
</trkpt>
<trkpt lat="-35.2850192" lon="148.9860627">
  <ele>700.32</ele>
  <time>2026-09-01T19:59:54Z</time>
  <course>195.45</course>
  <speed>0.4049691346263317</speed>
  <fix>3d</fix>
</trkpt>
<trkpt lat="-35.2850191" lon="148.9860628">
  <ele>700.39</ele>
  <time>2026-09-01T19:59:54Z</time>
  <course>297.67</course>
  <speed>0.47</speed>
  <fix>3d</fix>
</trkpt>
<trkpt lat="-35.2850191" lon="148.9860622">
  <ele>700.34</ele>
  <time>2026-09-01T19:59:54Z</time>
  <course>195.27</course>
  <speed>0.38600518131237566</speed>
  <fix>3d</fix>
</trkpt>
<trkpt lat="-35.2850191" lon="148.9860628">
  <ele>700.39</ele>
  <time>2026-09-01T19:59:54Z</time>
  <course>297.67</course>
  <speed>0.47</speed>
  <fix>3d</fix>
</trkpt>
<trkpt lat="-35.285019" lon="148.9860618">
  <ele>700.35</ele>
  <time>2026-09-01T19:59:54Z</time>
  <course>195.06</course>
  <speed>0.3590264614203248</speed>
  <fix>3d</fix>
</trkpt>
<trkpt lat="-35.2850188" lon="148.986062">
  <ele>700.44</ele>
  <time>2026-09-01T19:59:54Z</time>
  <course>294.15</course>
  <speed>0.42</speed>
  <fix>3d</fix>
</trkpt>
<trkpt lat="-35.2850189" lon="148.9860614">
  <ele>700.35</ele>
  <time>2026-09-01T19:59:54Z</time>
  <course>194.84</course>
  <speed>0.33241540277189324</speed>
  <fix>3d</fix>
</trkpt>
<trkpt lat="-35.2850188" lon="148.986062">
  <ele>700.44</ele>
  <time>2026-09-01T19:59:54Z</time>
  <course>294.15</course>
  <speed>0.42</speed>
  <fix>3d</fix>
</trkpt>
<trkpt lat="-35.2850188" lon="148.986061">
  <ele>700.35</ele>
  <time>2026-09-01T19:59:54Z</time>
  <course>194.65</course>
  <speed>0.3101612483854165</speed>
  <fix>3d</fix>
</trkpt>
<trkpt lat="-35.2850185" lon="148.9860612">
  <ele>700.46</ele>
  <time>2026-09-01T19:59:54Z</time>
  <course>286.99</course>
  <speed>0.36</speed>
  <fix>3d</fix>
</trkpt>
<trkpt lat="-35.2850188" lon="148.9860607">
  <ele>700.34</ele>
  <time>2026-09-01T19:59:54Z</time>
  <course>194.51</course>
  <speed>0.291547594742265</speed>
  <fix>3d</fix>
</trkpt>
<trkpt lat="-35.2850185" lon="148.9860612">
  <ele>700.46</ele>
  <time>2026-09-01T19:59:54Z</time>
  <course>286.99</course>
  <speed>0.36</speed>
  <fix>3d</fix>
</trkpt>
<trkpt lat="-35.2850188" lon="148.9860604">
  <ele>700.32</ele>
  <time>2026-09-01T19:59:54Z</time>
  <course>194.42</course>
  <speed>0.27892651361962706</speed>
  <fix>3d</fix>
</trkpt>
<trkpt lat="-35.2850184" lon="148.9860604">
  <ele>700.44</ele>
  <time>2026-09-01T19:59:54Z</time>
  <course>274.4</course>
  <speed>0.31</speed>
  <fix>3d</fix>
</trkpt>
<trkpt lat="-35.2850188" lon="148.98606">
  <ele>700.29</ele>
  <time>2026-09-01T19:59:54Z</time>
  <course>194.4</course>
  <speed>0.27730849247724093</speed>
  <fix>3d</fix>
</trkpt>
<trkpt lat="-35.2850184" lon="148.9860604">
  <ele>700.44</ele>
  <time>2026-09-01T19:59:54Z</time>
  <course>274.4</course>
  <speed>0.31</speed>
  <fix>3d</fix>
</trkpt>
<trkpt lat="-35.2850189" lon="148.9860598">
  <ele>700.27</ele>
  <time>2026-09-01T19:59:54Z</time>
  <course>194.42</course>
  <speed>0.2920616373302047</speed>
  <fix>3d</fix>
</trkpt>
<trkpt lat="-35.2850184" lon="148.9860598">
  <ele>700.4</ele>
  <time>2026-09-01T19:59:54Z</time>
  <course>254.56</course>
  <speed>0.28</speed>
  <fix>3d</fix>
</trkpt>
<trkpt lat="-35.2850191" lon="148.9860595">
  <ele>700.24</ele>
  <time>2026-09-01T19:59:54Z</time>
  <course>194.47</course>
  <speed>0.3189043743820395</speed>
  <fix>3d</fix>
</trkpt>
<trkpt lat="-35.2850184" lon="148.9860598">
  <ele>700.4</ele>
  <time>2026-09-01T19:59:54Z</time>
  <course>254.56</course>
  <speed>0.28</speed>
  <fix>3d</fix>
</trkpt>
<trkpt lat="-35.2850192" lon="148.9860592">
  <ele>700.22</ele>
  <time>2026-09-01T19:59:54Z</time>
  <course>194.54</course>
  <speed>0.3605551275463989</speed>
  <fix>3d</fix>
</trkpt>
<trkpt lat="-35.2850186" lon="148.9860592">
  <ele>700.35</ele>
  <time>2026-09-01T19:59:54Z</time>
  <course>231.01</course>
  <speed>0.3</speed>
  <fix>3d</fix>
</trkpt>
<trkpt lat="-35.2850195" lon="148.986059">
  <ele>700.19</ele>
  <time>2026-09-01T19:59:54Z</time>
  <course>194.6</course>
  <speed>0.4114608122288197</speed>
  <fix>3d</fix>
</trkpt>
<trkpt lat="-35.2850186" lon="148.9860592">
  <ele>700.35</ele>
  <time>2026-09-01T19:59:54Z</time>
  <course>231.01</course>
  <speed>0.3</speed>
  <fix>3d</fix>
</trkpt>
<trkpt lat="-35.2850198" lon="148.9860588">
  <ele>700.18</ele>
  <time>2026-09-01T19:59:54Z</time>
  <course>194.65</course>
  <speed>0.47169905660283024</speed>
  <fix>3d</fix>
</trkpt>
<trkpt lat="-35.2850191" lon="148.9860587">
  <ele>700.31</ele>
  <time>2026-09-01T19:59:54Z</time>
  <course>212.9</course>
  <speed>0.38</speed>
  <fix>3d</fix>
</trkpt>
<trkpt lat="-35.2850202" lon="148.9860586">
  <ele>700.16</ele>
  <time>2026-09-01T19:59:54Z</time>
  <course>194.68</course>
  <speed>0.5345091205957107</speed>
  <fix>3d</fix>
</trkpt>
<trkpt lat="-35.2850191" lon="148.9860587">
  <ele>700.31</ele>
  <time>2026-09-01T19:59:54Z</time>
  <course>212.9</course>
  <speed>0.38</speed>
  <fix>3d</fix>
</trkpt>
<trkpt lat="-35.2850206" lon="148.9860584">
  <ele>700.15</ele>
  <time>2026-09-01T19:59:54Z</time>
  <course>194.69</course>
  <speed>0.608769250208977</speed>
  <fix>3d</fix>
</trkpt>
<trkpt lat="-35.2850198" lon="148.9860582">
  <ele>700.28</ele>
  <time>2026-09-01T19:59:54Z</time>
  <course>202.12</course>
  <speed>0.5</speed>
  <fix>3d</fix>
</trkpt>
<trkpt lat="-35.2850212" lon="148.9860582">
  <ele>700.15</ele>
  <time>2026-09-01T19:59:54Z</time>
  <course>194.69</course>
  <speed>0.6768308503607087</speed>
  <fix>3d</fix>
</trkpt>
<trkpt lat="-35.2850198" lon="148.9860582">
  <ele>700.28</ele>
  <time>2026-09-01T19:59:54Z</time>
  <course>202.12</course>
  <speed>0.5</speed>
  <fix>3d</fix>
</trkpt>
<trkpt lat="-35.2850217" lon="148.986058">
  <ele>700.15</ele>
  <time>2026-09-01T19:59:54Z</time>
  <course>194.68</course>
  <speed>0.7433034373659253</speed>
  <fix>3d</fix>
</trkpt>
<trkpt lat="-35.2850207" lon="148.9860579">
  <ele>700.27</ele>
  <time>2026-09-01T19:59:54Z</time>
  <course>196.06</course>
  <speed>0.63</speed>
  <fix>3d</fix>
</trkpt>
<trkpt lat="-35.2850224" lon="148.9860578">
  <ele>700.15</ele>
  <time>2026-09-01T19:59:54Z</time>
  <course>194.66</course>
  <speed>0.8023091673413684</speed>
  <fix>3d</fix>
</trkpt>
<trkpt lat="-35.2850207" lon="148.9860579">
  <ele>700.27</ele>
  <time>2026-09-01T19:59:54Z</time>
  <course>196.06</course>
  <speed>0.63</speed>
  <fix>3d</fix>
</trkpt>
<trkpt lat="-35.2850231" lon="148.9860576">
  <ele>700.15</ele>
  <time>2026-09-01T19:59:54Z</time>
  <course>194.63</course>
  <speed>0.8713208364316786</speed>
  <fix>3d</fix>
</trkpt>
<trkpt lat="-35.285022" lon="148.9860575">
  <ele>700.27</ele>
  <time>2026-09-01T19:59:54Z</time>
  <course>192.67</course>
  <speed>0.77</speed>
  <fix>3d</fix>
</trkpt>
<trkpt lat="-35.2850238" lon="148.9860574">
  <ele>700.16</ele>
  <time>2026-09-01T19:59:54Z</time>
  <course>194.61</course>
  <speed>0.9305912099305473</speed>
  <fix>3d</fix>
</trkpt>
<trkpt lat="-35.285022" lon="148.9860575">
  <ele>700.27</ele>
  <time>2026-09-01T19:59:54Z</time>
  <course>192.67</course>
  <speed>0.77</speed>
  <fix>3d</fix>
</trkpt>
<trkpt lat="-35.2850246" lon="148.9860572">
  <ele>700.17</ele>
  <time>2026-09-01T19:59:54Z</time>
  <course>194.59</course>
  <speed>0.9899494936611666</speed>
  <fix>3d</fix>
</trkpt>
<trkpt lat="-35.2850234" lon="148.9860571">
  <ele>700.28</ele>
  <time>2026-09-01T19:59:54Z</time>
  <course>190.8</course>
  <speed>0.9</speed>
  <fix>3d</fix>
</trkpt>
<trkpt lat="-35.2850255" lon="148.986057">
  <ele>700.18</ele>
  <time>2026-09-01T19:59:54Z</time>
  <course>194.58</course>
  <speed>1.0493807697875923</speed>
  <fix>3d</fix>
</trkpt>
<trkpt lat="-35.2850234" lon="148.9860571">
  <ele>700.28</ele>
  <time>2026-09-01T19:59:54Z</time>
  <course>190.8</course>
  <speed>0.9</speed>
  <fix>3d</fix>
</trkpt>
<trkpt lat="-35.2850264" lon="148.9860569">
  <ele>700.19</ele>
  <time>2026-09-01T19:59:54Z</time>
  <course>194.57</course>
  <speed>1.110180165558726</speed>
  <fix>3d</fix>
</trkpt>
<trkpt lat="-35.2850251" lon="148.9860567">
  <ele>700.3</ele>
  <time>2026-09-01T19:59:54Z</time>
  <course>189.81</course>
  <speed>1.02</speed>
  <fix>3d</fix>
</trkpt>
<trkpt lat="-35.2850274" lon="148.9860567">
  <ele>700.2</ele>
  <time>2026-09-01T19:59:54Z</time>
  <course>194.56</course>
  <speed>1.1597413504743201</speed>
  <fix>3d</fix>
</trkpt>
<trkpt lat="-35.2850251" lon="148.9860567">
  <ele>700.3</ele>
  <time>2026-09-01T19:59:54Z</time>
  <course>189.81</course>
  <speed>1.02</speed>
  <fix>3d</fix>
</trkpt>
<trkpt lat="-35.2850284" lon="148.9860565">
  <ele>700.21</ele>
  <time>2026-09-01T19:59:54Z</time>
  <course>194.56</course>
  <speed>1.200708124399931</speed>
  <fix>3d</fix>
</trkpt>
<trkpt lat="-35.285027" lon="148.9860564">
  <ele>700.32</ele>
  <time>2026-09-01T19:59:54Z</time>
  <course>189.38</course>
  <speed>1.13</speed>
  <fix>3d</fix>
</trkpt>
<trkpt lat="-35.2850295" lon="148.9860562">
  <ele>700.21</ele>
  <time>2026-09-01T19:59:54Z</time>
  <course>194.57</course>
  <speed>1.2416923934694937</speed>
  <fix>3d</fix>
</trkpt>
<trkpt lat="-35.285027" lon="148.9860564">
  <ele>700.32</ele>
  <time>2026-09-01T19:59:54Z</time>
  <course>189.38</course>
  <speed>1.13</speed>
  <fix>3d</fix>
</trkpt>
<trkpt lat="-35.2850305" lon="148.986056">
  <ele>700.22</ele>
  <time>2026-09-01T19:59:54Z</time>
  <course>194.57</course>
  <speed>1.281327436684316</speed>
  <fix>3d</fix>
</trkpt>
<trkpt lat="-35.2850291" lon="148.9860559">
  <ele>700.33</ele>
  <time>2026-09-01T19:59:54Z</time>
  <course>189.3</course>
  <speed>1.22</speed>
  <fix>3d</fix>
</trkpt>
<trkpt lat="-35.2850317" lon="148.9860558">
  <ele>700.22</ele>
  <time>2026-09-01T19:59:54Z</time>
  <course>194.58</course>
  <speed>1.3124023773218334</speed>
  <fix>3d</fix>
</trkpt>
<trkpt lat="-35.2850291" lon="148.9860559">
  <ele>700.33</ele>
  <time>2026-09-01T19:59:54Z</time>
  <course>189.3</course>
  <speed>1.22</speed>
  <fix>3d</fix>
</trkpt>
<trkpt lat="-35.2850328" lon="148.9860555">
  <ele>700.23</ele>
  <time>2026-09-01T19:59:54Z</time>
  <course>194.58</course>
  <speed>1.3435028842544403</speed>
  <fix>3d</fix>
</trkpt>
<trkpt lat="-35.2850314" lon="148.9860555">
  <ele>700.35</ele>
  <time>2026-09-01T19:59:54Z</time>
  <course>189.47</course>
  <speed>1.29</speed>
  <fix>3d</fix>
</trkpt>
<trkpt lat="-35.285034" lon="148.9860553">
  <ele>700.23</ele>
  <time>2026-09-01T19:59:54Z</time>
  <course>194.59</course>
  <speed>1.364734406395618</speed>
  <fix>3d</fix>
</trkpt>
<trkpt lat="-35.2850314" lon="148.9860555">
  <ele>700.35</ele>
  <time>2026-09-01T19:59:54Z</time>
  <course>189.47</course>
  <speed>1.29</speed>
  <fix>3d</fix>
</trkpt>
<trkpt lat="-35.2850352" lon="148.986055">
  <ele>700.23</ele>
  <time>2026-09-01T19:59:54Z</time>
  <course>194.6</course>
  <speed>1.386001443000692</speed>
  <fix>3d</fix>
</trkpt>
<trkpt lat="-35.2850338" lon="148.986055">
  <ele>700.35</ele>
  <time>2026-09-01T19:59:54Z</time>
  <course>189.83</course>
  <speed>1.35</speed>
  <fix>3d</fix>
</trkpt>
<trkpt lat="-35.2850364" lon="148.9860548">
  <ele>700.23</ele>
  <time>2026-09-01T19:59:54Z</time>
  <course>194.6</course>
  <speed>1.3974262055650737</speed>
  <fix>3d</fix>
</trkpt>
<trkpt lat="-35.2850338" lon="148.986055">
  <ele>700.35</ele>
  <time>2026-09-01T19:59:54Z</time>
  <course>189.83</course>
  <speed>1.35</speed>
  <fix>3d</fix>
</trkpt>
<trkpt lat="-35.2850376" lon="148.9860545">
  <ele>700.23</ele>
  <time>2026-09-01T19:59:54Z</time>
  <course>194.6</course>
  <speed>1.408900280360537</speed>
  <fix>3d</fix>
</trkpt>
<trkpt lat="-35.2850362" lon="148.9860545">
  <ele>700.35</ele>
  <time>2026-09-01T19:59:54Z</time>
  <course>190.33</course>
  <speed>1.38</speed>
  <fix>3d</fix>
</trkpt>
<trkpt lat="-35.2850388" lon="148.9860542">
  <ele>700.23</ele>
  <time>2026-09-01T19:59:54Z</time>
  <course>194.61</course>
  <speed>1.4105672617780407</speed>
  <fix>3d</fix>
</trkpt>
<trkpt lat="-35.2850362" lon="148.9860545">
  <ele>700.35</ele>
  <time>2026-09-01T19:59:54Z</time>
  <course>190.33</course>
  <speed>1.38</speed>
  <fix>3d</fix>
</trkpt>
<trkpt lat="-35.2850401" lon="148.9860539">
  <ele>700.22</ele>
  <time>2026-09-01T19:59:54Z</time>
  <course>194.62</course>
  <speed>1.4123030836190935</speed>
  <fix>3d</fix>
</trkpt>
<trkpt lat="-35.2850386" lon="148.9860539">
  <ele>700.35</ele>
  <time>2026-09-01T19:59:54Z</time>
  <course>190.95</course>
  <speed>1.4</speed>
  <fix>3d</fix>
</trkpt>
<trkpt lat="-35.2850413" lon="148.9860536">
  <ele>700.22</ele>
  <time>2026-09-01T19:59:54Z</time>
  <course>194.62</course>
  <speed>1.4042791745233567</speed>
  <fix>3d</fix>
</trkpt>
<trkpt lat="-35.2850386" lon="148.9860539">
  <ele>700.35</ele>
  <time>2026-09-01T19:59:54Z</time>
  <course>190.95</course>
  <speed>1.4</speed>
  <fix>3d</fix>
</trkpt>
<trkpt lat="-35.2850425" lon="148.9860533">
  <ele>700.22</ele>
  <time>2026-09-01T19:59:54Z</time>
  <course>194.63</course>
  <speed>1.3944532978913278</speed>
  <fix>3d</fix>
</trkpt>
<trkpt lat="-35.2850411" lon="148.9860532">
  <ele>700.34</ele>
  <time>2026-09-01T19:59:54Z</time>
  <course>191.68</course>
  <speed>1.4</speed>
  <fix>3d</fix>
</trkpt>
<trkpt lat="-35.2850437" lon="148.9860529">
  <ele>700.22</ele>
  <time>2026-09-01T19:59:54Z</time>
  <course>194.64</course>
  <speed>1.376735268670052</speed>
  <fix>3d</fix>
</trkpt>
<trkpt lat="-35.2850411" lon="148.9860532">
  <ele>700.34</ele>
  <time>2026-09-01T19:59:54Z</time>
  <course>191.68</course>
  <speed>1.4</speed>
  <fix>3d</fix>
</trkpt>
<trkpt lat="-35.2850448" lon="148.9860526">
  <ele>700.21</ele>
  <time>2026-09-01T19:59:54Z</time>
  <course>194.65</course>
  <speed>1.359154148726332</speed>
  <fix>3d</fix>
</trkpt>
<trkpt lat="-35.2850436" lon="148.9860527">
  <ele>700.34</ele>
  <time>2026-09-01T19:59:54Z</time>
  <course>192.51</course>
  <speed>1.37</speed>
  <fix>3d</fix>
</trkpt>
<trkpt lat="-35.285046" lon="148.9860523">
  <ele>700.21</ele>
  <time>2026-09-01T19:59:54Z</time>
  <course>194.67</course>
  <speed>1.329812016790343</speed>
  <fix>3d</fix>
</trkpt>
<trkpt lat="-35.2850436" lon="148.9860527">
  <ele>700.34</ele>
  <time>2026-09-01T19:59:54Z</time>
  <course>192.51</course>
  <speed>1.37</speed>
  <fix>3d</fix>
</trkpt>
<trkpt lat="-35.2850471" lon="148.9860519">
  <ele>700.2</ele>
  <time>2026-09-01T19:59:54Z</time>
  <course>194.68</course>
  <speed>1.3026895255585655</speed>
  <fix>3d</fix>
</trkpt>
<trkpt lat="-35.2850459" lon="148.986052">
  <ele>700.33</ele>
  <time>2026-09-01T19:59:54Z</time>
  <course>193.46</course>
  <speed>1.33</speed>
  <fix>3d</fix>
</trkpt>
<trkpt lat="-35.2850482" lon="148.9860516">
  <ele>700.2</ele>
  <time>2026-09-01T19:59:54Z</time>
  <course>194.7</course>
  <speed>1.2734598540982751</speed>
  <fix>3d</fix>
</trkpt>
<trkpt lat="-35.2850459" lon="148.986052">
  <ele>700.33</ele>
  <time>2026-09-01T19:59:54Z</time>
  <course>193.46</course>
  <speed>1.33</speed>
  <fix>3d</fix>
</trkpt>
<trkpt lat="-35.2850493" lon="148.9860512">
  <ele>700.2</ele>
  <time>2026-09-01T19:59:54Z</time>
  <course>194.71</course>
  <speed>1.2369316876852983</speed>
  <fix>3d</fix>
</trkpt>
<trkpt lat="-35.2850482" lon="148.9860513">
  <ele>700.33</ele>
  <time>2026-09-01T19:59:54Z</time>
  <course>194.57</course>
  <speed>1.26</speed>
  <fix>3d</fix>
</trkpt>
<trkpt lat="-35.2850503" lon="148.9860509">
  <ele>700.2</ele>
  <time>2026-09-01T19:59:54Z</time>
  <course>194.73</course>
  <speed>1.1884864324004711</speed>
  <fix>3d</fix>
</trkpt>
<trkpt lat="-35.2850482" lon="148.9860513">
  <ele>700.33</ele>
  <time>2026-09-01T19:59:54Z</time>
  <course>194.57</course>
  <speed>1.26</speed>
  <fix>3d</fix>
</trkpt>
<trkpt lat="-35.2850513" lon="148.9860505">
  <ele>700.19</ele>
  <time>2026-09-01T19:59:54Z</time>
  <course>194.74</course>
  <speed>1.149826073804208</speed>
  <fix>3d</fix>
</trkpt>
<trkpt lat="-35.2850503" lon="148.9860506">
  <ele>700.33</ele>
  <time>2026-09-01T19:59:54Z</time>
  <course>195.86</course>
  <speed>1.19</speed>
  <fix>3d</fix>
</trkpt>
<trkpt lat="-35.2850523" lon="148.9860501">
  <ele>700.2</ele>
  <time>2026-09-01T19:59:54Z</time>
  <course>194.75</course>
  <speed>1.1044002897500524</speed>
  <fix>3d</fix>
</trkpt>
<trkpt lat="-35.2850503" lon="148.9860506">
  <ele>700.33</ele>
  <time>2026-09-01T19:59:54Z</time>
  <course>195.86</course>
  <speed>1.19</speed>
  <fix>3d</fix>
</trkpt>
<trkpt lat="-35.2850533" lon="148.9860498">
  <ele>700.2</ele>
  <time>2026-09-01T19:59:54Z</time>
  <course>194.76</course>
  <speed>1.0469479452198185</speed>
  <fix>3d</fix>
</trkpt>
<trkpt lat="-35.2850523" lon="148.9860499">
  <ele>700.33</ele>
  <time>2026-09-01T19:59:54Z</time>
  <course>197.39</course>
  <speed>1.09</speed>
  <fix>3d</fix>
</trkpt>
<trkpt lat="-35.2850541" lon="148.9860494">
  <ele>700.2</ele>
  <time>2026-09-01T19:59:54Z</time>
  <course>194.76</course>
  <speed>0.9897979591815695</speed>
  <fix>3d</fix>
</trkpt>
<trkpt lat="-35.2850523" lon="148.9860499">
  <ele>700.33</ele>
  <time>2026-09-01T19:59:54Z</time>
  <course>197.39</course>
  <speed>1.09</speed>
  <fix>3d</fix>
</trkpt>
<trkpt lat="-35.2850549" lon="148.986049">
  <ele>700.2</ele>
  <time>2026-09-01T19:59:54Z</time>
  <course>194.77</course>
  <speed>0.9392017887546851</speed>
  <fix>3d</fix>
</trkpt>
<trkpt lat="-35.2850541" lon="148.9860491">
  <ele>700.33</ele>
  <time>2026-09-01T19:59:54Z</time>
  <course>199.23</course>
  <speed>0.99</speed>
  <fix>3d</fix>
</trkpt>
<trkpt lat="-35.2850557" lon="148.9860487">
  <ele>700.2</ele>
  <time>2026-09-01T19:59:54Z</time>
  <course>194.78</course>
  <speed>0.8825531145489205</speed>
  <fix>3d</fix>
</trkpt>
<trkpt lat="-35.2850541" lon="148.9860491">
  <ele>700.33</ele>
  <time>2026-09-01T19:59:54Z</time>
  <course>199.23</course>
  <speed>0.99</speed>
  <fix>3d</fix>
</trkpt>
<trkpt lat="-35.2850564" lon="148.9860483">
  <ele>700.2</ele>
  <time>2026-09-01T19:59:54Z</time>
  <course>194.79</course>
  <speed>0.8170679286326198</speed>
  <fix>3d</fix>
</trkpt>
<trkpt lat="-35.2850557" lon="148.9860484">
  <ele>700.34</ele>
  <time>2026-09-01T19:59:54Z</time>
  <course>201.48</course>
  <speed>0.88</speed>
  <fix>3d</fix>
</trkpt>
<trkpt lat="-35.285057" lon="148.986048">
  <ele>700.2</ele>
  <time>2026-09-01T19:59:54Z</time>
  <course>194.81</course>
  <speed>0.7576938695805846</speed>
  <fix>3d</fix>
</trkpt>
<trkpt lat="-35.2850557" lon="148.9860484">
  <ele>700.34</ele>
  <time>2026-09-01T19:59:54Z</time>
  <course>201.48</course>
  <speed>0.88</speed>
  <fix>3d</fix>
</trkpt>
<trkpt lat="-35.2850576" lon="148.9860476">
  <ele>700.2</ele>
  <time>2026-09-01T19:59:54Z</time>
  <course>194.82</course>
  <speed>0.7026378868236469</speed>
  <fix>3d</fix>
</trkpt>
<trkpt lat="-35.285057" lon="148.9860477">
  <ele>700.34</ele>
  <time>2026-09-01T19:59:54Z</time>
  <course>204.32</course>
  <speed>0.76</speed>
  <fix>3d</fix>
</trkpt>
<trkpt lat="-35.2850582" lon="148.9860473">
  <ele>700.2</ele>
  <time>2026-09-01T19:59:54Z</time>
  <course>194.83</course>
  <speed>0.6350590523722971</speed>
  <fix>3d</fix>
</trkpt>
<trkpt lat="-35.285057" lon="148.9860477">
  <ele>700.34</ele>
  <time>2026-09-01T19:59:54Z</time>
  <course>204.32</course>
  <speed>0.76</speed>
  <fix>3d</fix>
</trkpt>
<trkpt lat="-35.2850586" lon="148.986047">
  <ele>700.2</ele>
  <time>2026-09-01T19:59:54Z</time>
  <course>194.83</course>
  <speed>0.5730619512757761</speed>
  <fix>3d</fix>
</trkpt>
<trkpt lat="-35.2850581" lon="148.986047">
  <ele>700.34</ele>
  <time>2026-09-01T19:59:54Z</time>
  <course>208.15</course>
  <speed>0.64</speed>
  <fix>3d</fix>
</trkpt>
<trkpt lat="-35.2850591" lon="148.9860466">
  <ele>700.2</ele>
  <time>2026-09-01T19:59:54Z</time>
  <course>194.82</course>
  <speed>0.5162363799656123</speed>
  <fix>3d</fix>
</trkpt>
<trkpt lat="-35.2850581" lon="148.986047">
  <ele>700.34</ele>
  <time>2026-09-01T19:59:54Z</time>
  <course>208.15</course>
  <speed>0.64</speed>
  <fix>3d</fix>
</trkpt>
<trkpt lat="-35.2850594" lon="148.9860463">
  <ele>700.2</ele>
  <time>2026-09-01T19:59:54Z</time>
  <course>194.81</course>
  <speed>0.4522167621838005</speed>
  <fix>3d</fix>
</trkpt>
<trkpt lat="-35.2850591" lon="148.9860464">
  <ele>700.34</ele>
  <time>2026-09-01T19:59:54Z</time>
  <course>213.7</course>
  <speed>0.52</speed>
  <fix>3d</fix>
</trkpt>
<trkpt lat="-35.2850597" lon="148.986046">
  <ele>700.21</ele>
  <time>2026-09-01T19:59:54Z</time>
  <course>194.8</course>
  <speed>0.3905124837953327</speed>
  <fix>3d</fix>
</trkpt>
<trkpt lat="-35.2850591" lon="148.9860464">
  <ele>700.34</ele>
  <time>2026-09-01T19:59:54Z</time>
  <course>213.7</course>
  <speed>0.52</speed>
  <fix>3d</fix>
</trkpt>
<trkpt lat="-35.28506" lon="148.9860457">
  <ele>700.21</ele>
  <time>2026-09-01T19:59:54Z</time>
  <course>194.8</course>
  <speed>0.34655446902326914</speed>
  <fix>3d</fix>
</trkpt>
<trkpt lat="-35.2850597" lon="148.9860458">
  <ele>700.34</ele>
  <time>2026-09-01T19:59:54Z</time>
  <course>222.29</course>
  <speed>0.4</speed>
  <fix>3d</fix>
</trkpt>
<trkpt lat="-35.2850601" lon="148.9860454">
  <ele>700.21</ele>
  <time>2026-09-01T19:59:54Z</time>
  <course>194.8</course>
  <speed>0.3</speed>
  <fix>3d</fix>
</trkpt>
<trkpt lat="-35.2850597" lon="148.9860458">
  <ele>700.34</ele>
  <time>2026-09-01T19:59:54Z</time>
  <course>222.29</course>
  <speed>0.4</speed>
  <fix>3d</fix>
</trkpt>
<trkpt lat="-35.2850603" lon="148.9860451">
  <ele>700.21</ele>
  <time>2026-09-01T19:59:54Z</time>
  <course>194.8</course>
  <speed>0.25495097567963926</speed>
  <fix>3d</fix>
</trkpt>
<trkpt lat="-35.2850601" lon="148.9860451">
  <ele>700.34</ele>
  <time>2026-09-01T19:59:54Z</time>
  <course>236.31</course>
  <speed>0.3</speed>
  <fix>3d</fix>
</trkpt>
<trkpt lat="-35.2850603" lon="148.9860449">
  <ele>700.21</ele>
  <time>2026-09-01T19:59:54Z</time>
  <course>194.8</course>
  <speed>0.22561028345356957</speed>
  <fix>3d</fix>
</trkpt>
<trkpt lat="-35.2850601" lon="148.9860451">
  <ele>700.34</ele>
  <time>2026-09-01T19:59:54Z</time>
  <course>236.31</course>
  <speed>0.3</speed>
  <fix>3d</fix>
</trkpt>
<trkpt lat="-35.2850604" lon="148.9860446">
  <ele>700.21</ele>
  <time>2026-09-01T19:59:54Z</time>
  <course>194.8</course>
  <speed>0.21</speed>
  <fix>3d</fix>
</trkpt>
<trkpt lat="-35.2850603" lon="148.9860446">
  <ele>700.34</ele>
  <time>2026-09-01T19:59:54Z</time>
  <course>259.12</course>
  <speed>0.23</speed>
  <fix>3d</fix>
</trkpt>
<trkpt lat="-35.2850604" lon="148.9860443">
  <ele>700.21</ele>
  <time>2026-09-01T19:59:54Z</time>
  <course>194.8</course>
  <speed>0.20615528128088303</speed>
  <fix>3d</fix>
</trkpt>
<trkpt lat="-35.2850603" lon="148.9860446">
  <ele>700.34</ele>
  <time>2026-09-01T19:59:54Z</time>
  <course>259.12</course>
  <speed>0.23</speed>
  <fix>3d</fix>
</trkpt>
<trkpt lat="-35.2850603" lon="148.9860441">
  <ele>700.21</ele>
  <time>2026-09-01T19:59:54Z</time>
  <course>194.8</course>
  <speed>0.20591260281974003</speed>
  <fix>3d</fix>
</trkpt>
<trkpt lat="-35.2850604" lon="148.9860441">
  <ele>700.34</ele>
  <time>2026-09-01T19:59:54Z</time>
  <course>287.89</course>
  <speed>0.22</speed>
  <fix>3d</fix>
</trkpt>
<trkpt lat="-35.2850602" lon="148.9860439">
  <ele>700.21</ele>
  <time>2026-09-01T19:59:54Z</time>
  <course>194.81</course>
  <speed>0.22671568097509268</speed>
  <fix>3d</fix>
</trkpt>
<trkpt lat="-35.2850604" lon="148.9860441">
  <ele>700.34</ele>
  <time>2026-09-01T19:59:54Z</time>
  <course>287.89</course>
  <speed>0.22</speed>
  <fix>3d</fix>
</trkpt>
<trkpt lat="-35.2850601" lon="148.9860437">
  <ele>700.2</ele>
  <time>2026-09-01T19:59:54Z</time>
  <course>194.82</course>
  <speed>0.24839484696748443</speed>
  <fix>3d</fix>
</trkpt>
<trkpt lat="-35.2850602" lon="148.9860436">
  <ele>700.34</ele>
  <time>2026-09-01T19:59:54Z</time>
  <course>310.87</course>
  <speed>0.25</speed>
  <fix>3d</fix>
</trkpt>
<trkpt lat="-35.2850599" lon="148.9860435">
  <ele>700.2</ele>
  <time>2026-09-01T19:59:54Z</time>
  <course>194.84</course>
  <speed>0.2745906043549196</speed>
  <fix>3d</fix>
</trkpt>
<trkpt lat="-35.2850602" lon="148.9860436">
  <ele>700.34</ele>
  <time>2026-09-01T19:59:54Z</time>
  <course>310.87</course>
  <speed>0.25</speed>
  <fix>3d</fix>
</trkpt>
<trkpt lat="-35.2850596" lon="148.9860433">
  <ele>700.2</ele>
  <time>2026-09-01T19:59:54Z</time>
  <course>194.85</course>
  <speed>0.295296461204668</speed>
  <fix>3d</fix>
</trkpt>
<trkpt lat="-35.2850598" lon="148.9860433">
  <ele>700.34</ele>
  <time>2026-09-01T19:59:54Z</time>
  <course>325.48</course>
  <speed>0.29</speed>
  <fix>3d</fix>
</trkpt>
<trkpt lat="-35.2850594" lon="148.9860431">
  <ele>700.21</ele>
  <time>2026-09-01T19:59:54Z</time>
  <course>194.87</course>
  <speed>0.3178049716414141</speed>
  <fix>3d</fix>
</trkpt>
<trkpt lat="-35.2850598" lon="148.9860433">
  <ele>700.34</ele>
  <time>2026-09-01T19:59:54Z</time>
  <course>325.48</course>
  <speed>0.29</speed>
  <fix>3d</fix>
</trkpt>
<trkpt lat="-35.2850591" lon="148.986043">
  <ele>700.21</ele>
  <time>2026-09-01T19:59:54Z</time>
  <course>194.89</course>
  <speed>0.33241540277189324</speed>
  <fix>3d</fix>
</trkpt>
<trkpt lat="-35.2850593" lon="148.9860429">
  <ele>700.34</ele>
  <time>2026-09-01T19:59:54Z</time>
  <course>334.85</course>
  <speed>0.34</speed>
  <fix>3d</fix>
</trkpt>
<trkpt lat="-35.2850588" lon="148.9860428">
  <ele>700.21</ele>
  <time>2026-09-01T19:59:54Z</time>
  <course>194.92</course>
  <speed>0.34481879299133333</speed>
  <fix>3d</fix>
</trkpt>
<trkpt lat="-35.2850593" lon="148.9860429">
  <ele>700.34</ele>
  <time>2026-09-01T19:59:54Z</time>
  <course>334.85</course>
  <speed>0.34</speed>
  <fix>3d</fix>
</trkpt>
<trkpt lat="-35.2850585" lon="148.9860427">
  <ele>700.21</ele>
  <time>2026-09-01T19:59:54Z</time>
  <course>194.95</course>
  <speed>0.36138621999185305</speed>
  <fix>3d</fix>
</trkpt>
<trkpt lat="-35.2850587" lon="148.9860426">
  <ele>700.34</ele>
  <time>2026-09-01T19:59:54Z</time>
  <course>341.15</course>
  <speed>0.37</speed>
  <fix>3d</fix>
</trkpt>
<trkpt lat="-35.2850581" lon="148.9860426">
  <ele>700.21</ele>
  <time>2026-09-01T19:59:54Z</time>
  <course>194.98</course>
  <speed>0.378549864614954</speed>
  <fix>3d</fix>
</trkpt>
<trkpt lat="-35.2850587" lon="148.9860426">
  <ele>700.34</ele>
  <time>2026-09-01T19:59:54Z</time>
  <course>341.15</course>
  <speed>0.37</speed>
  <fix>3d</fix>
</trkpt>
<trkpt lat="-35.2850578" lon="148.9860425">
  <ele>700.21</ele>
  <time>2026-09-01T19:59:54Z</time>
  <course>195.01</course>
  <speed>0.38639358172723315</speed>
  <fix>3d</fix>
</trkpt>
<trkpt lat="-35.285058" lon="148.9860424">
  <ele>700.34</ele>
  <time>2026-09-01T19:59:54Z</time>
  <course>345.66</course>
  <speed>0.4</speed>
  <fix>3d</fix>
</trkpt>
<trkpt lat="-35.2850574" lon="148.9860424">
  <ele>700.22</ele>
  <time>2026-09-01T19:59:54Z</time>
  <course>195.03</course>
  <speed>0.3945883931389772</speed>
  <fix>3d</fix>
</trkpt>
<trkpt lat="-35.285058" lon="148.9860424">
  <ele>700.34</ele>
  <time>2026-09-01T19:59:54Z</time>
  <course>345.66</course>
  <speed>0.4</speed>
  <fix>3d</fix>
</trkpt>
<trkpt lat="-35.2850571" lon="148.9860423">
  <ele>700.22</ele>
  <time>2026-09-01T19:59:54Z</time>
  <course>195.05</course>
  <speed>0.39319206502675</speed>
  <fix>3d</fix>
</trkpt>
<trkpt lat="-35.2850573" lon="148.9860422">
  <ele>700.34</ele>
  <time>2026-09-01T19:59:54Z</time>
  <course>349.15</course>
  <speed>0.42</speed>
  <fix>3d</fix>
</trkpt>
<trkpt lat="-35.2850567" lon="148.9860422">
  <ele>700.22</ele>
  <time>2026-09-01T19:59:54Z</time>
  <course>195.07</course>
  <speed>0.4019950248448356</speed>
  <fix>3d</fix>
</trkpt>
<trkpt lat="-35.2850573" lon="148.9860422">
  <ele>700.34</ele>
  <time>2026-09-01T19:59:54Z</time>
  <course>349.15</course>
  <speed>0.42</speed>
  <fix>3d</fix>
</trkpt>
<trkpt lat="-35.2850563" lon="148.9860422">
  <ele>700.22</ele>
  <time>2026-09-01T19:59:54Z</time>
  <course>195.08</course>
  <speed>0.4011234224026316</speed>
  <fix>3d</fix>
</trkpt>
<trkpt lat="-35.2850566" lon="148.9860421">
  <ele>700.34</ele>
  <time>2026-09-01T19:59:54Z</time>
  <course>352.05</course>
  <speed>0.42</speed>
  <fix>3d</fix>
</trkpt>
<trkpt lat="-35.285056" lon="148.9860421">
  <ele>700.22</ele>
  <time>2026-09-01T19:59:54Z</time>
  <course>195.07</course>
  <speed>0.3905124837953327</speed>
  <fix>3d</fix>
</trkpt>
<trkpt lat="-35.2850566" lon="148.9860421">
  <ele>700.34</ele>
  <time>2026-09-01T19:59:54Z</time>
  <course>352.05</course>
  <speed>0.42</speed>
  <fix>3d</fix>
</trkpt>
<trkpt lat="-35.2850556" lon="148.9860421">
  <ele>700.22</ele>
  <time>2026-09-01T19:59:54Z</time>
  <course>195.07</course>
  <speed>0.3901281840626232</speed>
  <fix>3d</fix>
</trkpt>
<trkpt lat="-35.2850558" lon="148.9860419">
  <ele>700.33</ele>
  <time>2026-09-01T19:59:54Z</time>
  <course>354.51</course>
  <speed>0.42</speed>
  <fix>3d</fix>
</trkpt>
<trkpt lat="-35.2850552" lon="148.9860421">
  <ele>700.22</ele>
  <time>2026-09-01T19:59:54Z</time>
  <course>195.06</course>
  <speed>0.38</speed>
  <fix>3d</fix>
</trkpt>
<trkpt lat="-35.2850558" lon="148.9860419">
  <ele>700.33</ele>
  <time>2026-09-01T19:59:54Z</time>
  <course>354.51</course>
  <speed>0.42</speed>
  <fix>3d</fix>
</trkpt>
<trkpt lat="-35.2850549" lon="148.986042">
  <ele>700.22</ele>
  <time>2026-09-01T19:59:54Z</time>
  <course>195.05</course>
  <speed>0.38</speed>
  <fix>3d</fix>
</trkpt>
<trkpt lat="-35.285055" lon="148.9860419">
  <ele>700.33</ele>
  <time>2026-09-01T19:59:54Z</time>
  <course>356.71</course>
  <speed>0.41</speed>
  <fix>3d</fix>
</trkpt>
<trkpt lat="-35.2850545" lon="148.986042">
  <ele>700.22</ele>
  <time>2026-09-01T19:59:54Z</time>
  <course>195.04</course>
  <speed>0.37</speed>
  <fix>3d</fix>
</trkpt>
<trkpt lat="-35.285055" lon="148.9860419">
  <ele>700.33</ele>
  <time>2026-09-01T19:59:54Z</time>
  <course>356.71</course>
  <speed>0.41</speed>
  <fix>3d</fix>
</trkpt>
<trkpt lat="-35.2850542" lon="148.986042">
  <ele>700.22</ele>
  <time>2026-09-01T19:59:54Z</time>
  <course>195.03</course>
  <speed>0.36013886210738216</speed>
  <fix>3d</fix>
</trkpt>
<trkpt lat="-35.2850543" lon="148.9860419">
  <ele>700.33</ele>
  <time>2026-09-01T19:59:54Z</time>
  <course>358.84</course>
  <speed>0.4</speed>
  <fix>3d</fix>
</trkpt>
<trkpt lat="-35.2850538" lon="148.986042">
  <ele>700.22</ele>
  <time>2026-09-01T19:59:54Z</time>
  <course>195.01</course>
  <speed>0.3505709628591621</speed>
  <fix>3d</fix>
</trkpt>
<trkpt lat="-35.2850543" lon="148.9860419">
  <ele>700.33</ele>
  <time>2026-09-01T19:59:54Z</time>
  <course>358.84</course>
  <speed>0.4</speed>
  <fix>3d</fix>
</trkpt>
<trkpt lat="-35.2850535" lon="148.9860421">
  <ele>700.22</ele>
  <time>2026-09-01T19:59:54Z</time>
  <course>195.0</course>
  <speed>0.34132096331752027</speed>
  <fix>3d</fix>
</trkpt>
<trkpt lat="-35.2850536" lon="148.9860419">
  <ele>700.32</ele>
  <time>2026-09-01T19:59:54Z</time>
  <course>0.99</course>
  <speed>0.38</speed>
  <fix>3d</fix>
</trkpt>
<trkpt lat="-35.2850532" lon="148.9860421">
  <ele>700.22</ele>
  <time>2026-09-01T19:59:54Z</time>
  <course>194.99</course>
  <speed>0.3313608305156178</speed>
  <fix>3d</fix>
</trkpt>
<trkpt lat="-35.2850536" lon="148.9860419">
  <ele>700.32</ele>
  <time>2026-09-01T19:59:54Z</time>
  <course>0.99</course>
  <speed>0.38</speed>
  <fix>3d</fix>
</trkpt>
<trkpt lat="-35.2850528" lon="148.9860421">
  <ele>700.21</ele>
  <time>2026-09-01T19:59:54Z</time>
  <course>194.98</course>
  <speed>0.32249030993194194</speed>
  <fix>3d</fix>
</trkpt>
<trkpt lat="-35.2850529" lon="148.9860419">
  <ele>700.32</ele>
  <time>2026-09-01T19:59:54Z</time>
  <course>3.22</course>
  <speed>0.36</speed>
  <fix>3d</fix>
</trkpt>
<trkpt lat="-35.2850525" lon="148.9860421">
  <ele>700.21</ele>
  <time>2026-09-01T19:59:54Z</time>
  <course>194.97</course>
  <speed>0.31400636936215165</speed>
  <fix>3d</fix>
</trkpt>
<trkpt lat="-35.2850529" lon="148.9860419">
  <ele>700.32</ele>
  <time>2026-09-01T19:59:54Z</time>
  <course>3.22</course>
  <speed>0.36</speed>
  <fix>3d</fix>
</trkpt>
<trkpt lat="-35.2850522" lon="148.9860421">
  <ele>700.21</ele>
  <time>2026-09-01T19:59:54Z</time>
  <course>194.96</course>
  <speed>0.304138126514911</speed>
  <fix>3d</fix>
</trkpt>
<trkpt lat="-35.2850523" lon="148.9860419">
  <ele>700.32</ele>
  <time>2026-09-01T19:59:54Z</time>
  <course>5.52</course>
  <speed>0.34</speed>
  <fix>3d</fix>
</trkpt>
<trkpt lat="-35.2850519" lon="148.9860422">
  <ele>700.21</ele>
  <time>2026-09-01T19:59:54Z</time>
  <course>194.95</course>
  <speed>0.2863564212655271</speed>
  <fix>3d</fix>
</trkpt>
<trkpt lat="-35.2850523" lon="148.9860419">
  <ele>700.32</ele>
  <time>2026-09-01T19:59:54Z</time>
  <course>5.52</course>
  <speed>0.34</speed>
  <fix>3d</fix>
</trkpt>
<trkpt lat="-35.2850517" lon="148.9860422">
  <ele>700.21</ele>
  <time>2026-09-01T19:59:54Z</time>
  <course>194.94</course>
  <speed>0.2765863337187866</speed>
  <fix>3d</fix>
</trkpt>
<trkpt lat="-35.2850516" lon="148.9860419">
  <ele>700.32</ele>
  <time>2026-09-01T19:59:54Z</time>
  <course>7.91</course>
  <speed>0.32</speed>
  <fix>3d</fix>
</trkpt>
<trkpt lat="-35.2850514" lon="148.9860423">
  <ele>700.21</ele>
  <time>2026-09-01T19:59:54Z</time>
  <course>194.93</course>
  <speed>0.2692582403567252</speed>
  <fix>3d</fix>
</trkpt>
<trkpt lat="-35.2850516" lon="148.9860419">
  <ele>700.32</ele>
  <time>2026-09-01T19:59:54Z</time>
  <course>7.91</course>
  <speed>0.32</speed>
  <fix>3d</fix>
</trkpt>
<trkpt lat="-35.2850511" lon="148.9860423">
  <ele>700.21</ele>
  <time>2026-09-01T19:59:54Z</time>
  <course>194.92</course>
  <speed>0.25</speed>
  <fix>3d</fix>
</trkpt>
<trkpt lat="-35.2850511" lon="148.986042">
  <ele>700.31</ele>
  <time>2026-09-01T19:59:54Z</time>
  <course>10.42</course>
  <speed>0.3</speed>
  <fix>3d</fix>
</trkpt>
<trkpt lat="-35.2850509" lon="148.9860424">
  <ele>700.2</ele>
  <time>2026-09-01T19:59:54Z</time>
  <course>194.92</course>
  <speed>0.24351591323771843</speed>
  <fix>3d</fix>
</trkpt>
<trkpt lat="-35.2850511" lon="148.986042">
  <ele>700.31</ele>
  <time>2026-09-01T19:59:54Z</time>
  <course>10.42</course>
  <speed>0.3</speed>
  <fix>3d</fix>
</trkpt>
<trkpt lat="-35.2850507" lon="148.9860425">
  <ele>700.2</ele>
  <time>2026-09-01T19:59:54Z</time>
  <course>194.92</course>
  <speed>0.2340939982143925</speed>
  <fix>3d</fix>
</trkpt>
<trkpt lat="-35.2850506" lon="148.9860421">
  <ele>700.31</ele>
  <time>2026-09-01T19:59:54Z</time>
  <course>13.03</course>
  <speed>0.27</speed>
  <fix>3d</fix>
</trkpt>
<trkpt lat="-35.2850504" lon="148.9860425">
  <ele>700.2</ele>
  <time>2026-09-01T19:59:54Z</time>
  <course>194.92</course>
  <speed>0.21540659228538014</speed>
  <fix>3d</fix>
</trkpt>
<trkpt lat="-35.2850506" lon="148.9860421">
  <ele>700.31</ele>
  <time>2026-09-01T19:59:54Z</time>
  <course>13.03</course>
  <speed>0.27</speed>
  <fix>3d</fix>
</trkpt>
<trkpt lat="-35.2850502" lon="148.9860426">
  <ele>700.2</ele>
  <time>2026-09-01T19:59:54Z</time>
  <course>194.89</course>
  <speed>0.20615528128088303</speed>
  <fix>3d</fix>
</trkpt>
<trkpt lat="-35.2850502" lon="148.9860423">
  <ele>700.31</ele>
  <time>2026-09-01T19:59:54Z</time>
  <course>15.32</course>
  <speed>0.25</speed>
  <fix>3d</fix>
</trkpt>
<trkpt lat="-35.28505" lon="148.9860426">
  <ele>700.21</ele>
  <time>2026-09-01T19:59:54Z</time>
  <course>194.84</course>
  <speed>0.19697715603592209</speed>
  <fix>3d</fix>
</trkpt>
<trkpt lat="-35.2850502" lon="148.9860423">
  <ele>700.31</ele>
  <time>2026-09-01T19:59:54Z</time>
  <course>15.32</course>
  <speed>0.25</speed>
  <fix>3d</fix>
</trkpt>
<trkpt lat="-35.2850499" lon="148.9860427">
  <ele>700.21</ele>
  <time>2026-09-01T19:59:54Z</time>
  <course>194.77</course>
  <speed>0.17888543819998318</speed>
  <fix>3d</fix>
</trkpt>
<trkpt lat="-35.2850497" lon="148.9860425">
  <ele>700.31</ele>
  <time>2026-09-01T19:59:54Z</time>
  <course>17.22</course>
  <speed>0.22</speed>
  <fix>3d</fix>
</trkpt>
<trkpt lat="-35.2850497" lon="148.9860428">
  <ele>700.21</ele>
  <time>2026-09-01T19:59:54Z</time>
  <course>194.71</course>
  <speed>0.17</speed>
  <fix>3d</fix>
</trkpt>
<trkpt lat="-35.2850497" lon="148.9860425">
  <ele>700.31</ele>
  <time>2026-09-01T19:59:54Z</time>
  <course>17.22</course>
  <speed>0.22</speed>
  <fix>3d</fix>
</trkpt>
<trkpt lat="-35.2850495" lon="148.9860429">
  <ele>700.21</ele>
  <time>2026-09-01T19:59:54Z</time>
  <course>194.67</course>
  <speed>0.15264337522473748</speed>
  <fix>3d</fix>
</trkpt>
<trkpt lat="-35.2850494" lon="148.9860426">
  <ele>700.31</ele>
  <time>2026-09-01T19:59:54Z</time>
  <course>19.44</course>
  <speed>0.19</speed>
  <fix>3d</fix>
</trkpt>
<trkpt lat="-35.2850494" lon="148.9860429">
  <ele>700.21</ele>
  <time>2026-09-01T19:59:54Z</time>
  <course>194.65</course>
  <speed>0.14422205101855956</speed>
  <fix>3d</fix>
</trkpt>
<trkpt lat="-35.2850494" lon="148.9860426">
  <ele>700.31</ele>
  <time>2026-09-01T19:59:54Z</time>
  <course>19.44</course>
  <speed>0.19</speed>
  <fix>3d</fix>
</trkpt>
<trkpt lat="-35.2850493" lon="148.986043">
  <ele>700.21</ele>
  <time>2026-09-01T19:59:54Z</time>
  <course>194.65</course>
  <speed>0.12806248474865697</speed>
  <fix>3d</fix>
</trkpt>
<trkpt lat="-35.285049" lon="148.9860427">
  <ele>700.31</ele>
  <time>2026-09-01T19:59:54Z</time>
  <course>22.38</course>
  <speed>0.17</speed>
  <fix>3d</fix>
</trkpt>
<trkpt lat="-35.2850491" lon="148.9860431">
  <ele>700.21</ele>
  <time>2026-09-01T19:59:54Z</time>
  <course>194.68</course>
  <speed>0.12041594578792296</speed>
  <fix>3d</fix>
</trkpt>
<trkpt lat="-35.285049" lon="148.9860427">
  <ele>700.31</ele>
  <time>2026-09-01T19:59:54Z</time>
  <course>22.38</course>
  <speed>0.17</speed>
  <fix>3d</fix>
</trkpt>
<trkpt lat="-35.285049" lon="148.9860431">
  <ele>700.21</ele>
  <time>2026-09-01T19:59:54Z</time>
  <course>194.71</course>
  <speed>0.1131370849898476</speed>
  <fix>3d</fix>
</trkpt>
<trkpt lat="-35.2850488" lon="148.9860429">
  <ele>700.31</ele>
  <time>2026-09-01T19:59:54Z</time>
  <course>26.13</course>
  <speed>0.14</speed>
  <fix>3d</fix>
</trkpt>
<trkpt lat="-35.2850489" lon="148.9860432">
  <ele>700.21</ele>
  <time>2026-09-01T19:59:54Z</time>
  <course>194.75</course>
  <speed>0.09219544457292887</speed>
  <fix>3d</fix>
</trkpt>
<trkpt lat="-35.2850488" lon="148.9860429">
  <ele>700.31</ele>
  <time>2026-09-01T19:59:54Z</time>
  <course>26.13</course>
  <speed>0.14</speed>
  <fix>3d</fix>
</trkpt>
<trkpt lat="-35.2850489" lon="148.9860433">
  <ele>700.21</ele>
  <time>2026-09-01T19:59:55Z</time>
  <course>194.78</course>
  <speed>0.08602325267042626</speed>
  <fix>3d</fix>
</trkpt>
<trkpt lat="-35.2850485" lon="148.986043">
  <ele>700.31</ele>
  <time>2026-09-01T19:59:55Z</time>
  <course>31.45</course>
  <speed>0.11</speed>
  <fix>3d</fix>
</trkpt>
<trkpt lat="-35.2850488" lon="148.9860433">
  <ele>700.21</ele>
  <time>2026-09-01T19:59:55Z</time>
  <course>194.81</course>
  <speed>0.07615773105863909</speed>
  <fix>3d</fix>
</trkpt>
<trkpt lat="-35.2850485" lon="148.986043">
  <ele>700.31</ele>
  <time>2026-09-01T19:59:55Z</time>
  <course>31.45</course>
  <speed>0.11</speed>
  <fix>3d</fix>
</trkpt>
<trkpt lat="-35.2850487" lon="148.9860434">
  <ele>700.21</ele>
  <time>2026-09-01T19:59:55Z</time>
  <course>194.82</course>
  <speed>0.07280109889280519</speed>
  <fix>3d</fix>
</trkpt>
<trkpt lat="-35.2850484" lon="148.9860431">
  <ele>700.31</ele>
  <time>2026-09-01T19:59:55Z</time>
  <course>39.54</course>
  <speed>0.08</speed>
  <fix>3d</fix>
</trkpt>
<trkpt lat="-35.2850487" lon="148.9860434">
  <ele>700.21</ele>
  <time>2026-09-01T19:59:55Z</time>
  <course>194.82</course>
  <speed>0.07</speed>
  <fix>3d</fix>
</trkpt>
<trkpt lat="-35.2850484" lon="148.9860431">
  <ele>700.31</ele>
  <time>2026-09-01T19:59:55Z</time>
  <course>39.54</course>
  <speed>0.08</speed>
  <fix>3d</fix>
</trkpt>
<trkpt lat="-35.2850486" lon="148.9860435">
  <ele>700.21</ele>
  <time>2026-09-01T19:59:55Z</time>
  <course>194.82</course>
  <speed>0.06</speed>
  <fix>3d</fix>
</trkpt>
<trkpt lat="-35.2850483" lon="148.9860433">
  <ele>700.3</ele>
  <time>2026-09-01T19:59:55Z</time>
  <course>52.24</course>
  <speed>0.06</speed>
  <fix>3d</fix>
</trkpt>
<trkpt lat="-35.2850486" lon="148.9860435">
  <ele>700.2</ele>
  <time>2026-09-01T19:59:55Z</time>
  <course>194.82</course>
  <speed>0.06082762530298219</speed>
  <fix>3d</fix>
</trkpt>
<trkpt lat="-35.2850483" lon="148.9860433">
  <ele>700.3</ele>
  <time>2026-09-01T19:59:55Z</time>
  <course>52.24</course>
  <speed>0.06</speed>
  <fix>3d</fix>
</trkpt>
<trkpt lat="-35.2850486" lon="148.9860436">
  <ele>700.2</ele>
  <time>2026-09-01T19:59:55Z</time>
  <course>194.82</course>
  <speed>0.0670820393249937</speed>
  <fix>3d</fix>
</trkpt>
<trkpt lat="-35.2850483" lon="148.9860434">
  <ele>700.3</ele>
  <time>2026-09-01T19:59:55Z</time>
  <course>74.47</course>
  <speed>0.04</speed>
  <fix>3d</fix>
</trkpt>
<trkpt lat="-35.2850486" lon="148.9860436">
  <ele>700.2</ele>
  <time>2026-09-01T19:59:55Z</time>
  <course>194.83</course>
  <speed>0.06403124237432849</speed>
  <fix>3d</fix>
</trkpt>
<trkpt lat="-35.2850483" lon="148.9860434">
  <ele>700.3</ele>
  <time>2026-09-01T19:59:55Z</time>
  <course>74.47</course>
  <speed>0.04</speed>
  <fix>3d</fix>
</trkpt>
<trkpt lat="-35.2850486" lon="148.9860437">
  <ele>700.2</ele>
  <time>2026-09-01T19:59:55Z</time>
  <course>194.83</course>
  <speed>0.07071067811865475</speed>
  <fix>3d</fix>
</trkpt>
<trkpt lat="-35.2850483" lon="148.9860435">
  <ele>700.3</ele>
  <time>2026-09-01T19:59:55Z</time>
  <course>110.0</course>
  <speed>0.04</speed>
  <fix>3d</fix>
</trkpt>
<trkpt lat="-35.2850486" lon="148.9860437">
  <ele>700.21</ele>
  <time>2026-09-01T19:59:55Z</time>
  <course>194.83</course>
  <speed>0.08602325267042626</speed>
  <fix>3d</fix>
</trkpt>
<trkpt lat="-35.2850483" lon="148.9860435">
  <ele>700.3</ele>
  <time>2026-09-01T19:59:55Z</time>
  <course>110.0</course>
  <speed>0.04</speed>
  <fix>3d</fix>
</trkpt>
<trkpt lat="-35.2850486" lon="148.9860438">
  <ele>700.21</ele>
  <time>2026-09-01T19:59:55Z</time>
  <course>194.83</course>
  <speed>0.08944271909999159</speed>
  <fix>3d</fix>
</trkpt>
<trkpt lat="-35.2850483" lon="148.9860435">
  <ele>700.3</ele>
  <time>2026-09-01T19:59:55Z</time>
  <course>140.96</course>
  <speed>0.05</speed>
  <fix>3d</fix>
</trkpt>
<trkpt lat="-35.2850486" lon="148.9860438">
  <ele>700.21</ele>
  <time>2026-09-01T19:59:55Z</time>
  <course>194.84</course>
  <speed>0.09848857801796104</speed>
  <fix>3d</fix>
</trkpt>
<trkpt lat="-35.2850483" lon="148.9860435">
  <ele>700.3</ele>
  <time>2026-09-01T19:59:55Z</time>
  <course>140.96</course>
  <speed>0.05</speed>
  <fix>3d</fix>
</trkpt>
<trkpt lat="-35.2850487" lon="148.9860438">
  <ele>700.21</ele>
  <time>2026-09-01T19:59:55Z</time>
  <course>194.84</course>
  <speed>0.10770329614269007</speed>
  <fix>3d</fix>
</trkpt>
<trkpt lat="-35.2850483" lon="148.9860436">
  <ele>700.3</ele>
  <time>2026-09-01T19:59:55Z</time>
  <course>158.02</course>
  <speed>0.07</speed>
  <fix>3d</fix>
</trkpt>
<trkpt lat="-35.2850488" lon="148.9860438">
  <ele>700.21</ele>
  <time>2026-09-01T19:59:55Z</time>
  <course>194.84</course>
  <speed>0.11401754250991379</speed>
  <fix>3d</fix>
</trkpt>
<trkpt lat="-35.2850483" lon="148.9860436">
  <ele>700.3</ele>
  <time>2026-09-01T19:59:55Z</time>
  <course>158.02</course>
  <speed>0.07</speed>
  <fix>3d</fix>
</trkpt>
<trkpt lat="-35.2850489" lon="148.9860438">
  <ele>700.22</ele>
  <time>2026-09-01T19:59:55Z</time>
  <course>194.84</course>
  <speed>0.12369316876852982</speed>
  <fix>3d</fix>
</trkpt>
<trkpt lat="-35.2850485" lon="148.9860436">
  <ele>700.3</ele>
  <time>2026-09-01T19:59:55Z</time>
  <course>167.67</course>
  <speed>0.08</speed>
  <fix>3d</fix>
</trkpt>
<trkpt lat="-35.2850489" lon="148.9860439">
  <ele>700.22</ele>
  <time>2026-09-01T19:59:55Z</time>
  <course>194.84</course>
  <speed>0.13341664064126335</speed>
  <fix>3d</fix>
</trkpt>
<trkpt lat="-35.2850485" lon="148.9860436">
  <ele>700.3</ele>
  <time>2026-09-01T19:59:55Z</time>
  <course>167.67</course>
  <speed>0.08</speed>
  <fix>3d</fix>
</trkpt>
<trkpt lat="-35.285049" lon="148.9860439">
  <ele>700.22</ele>
  <time>2026-09-01T19:59:55Z</time>
  <course>194.84</course>
  <speed>0.1414213562373095</speed>
  <fix>3d</fix>
</trkpt>
<trkpt lat="-35.2850487" lon="148.9860436">
  <ele>700.3</ele>
  <time>2026-09-01T19:59:55Z</time>
  <course>174.15</course>
  <speed>0.1</speed>
  <fix>3d</fix>
</trkpt>
<trkpt lat="-35.2850491" lon="148.9860439">
  <ele>700.22</ele>
  <time>2026-09-01T19:59:55Z</time>
  <course>194.84</course>
  <speed>0.15132745950421556</speed>
  <fix>3d</fix>
</trkpt>
<trkpt lat="-35.2850487" lon="148.9860436">
  <ele>700.3</ele>
  <time>2026-09-01T19:59:55Z</time>
  <course>174.15</course>
  <speed>0.1</speed>
  <fix>3d</fix>
</trkpt>
<trkpt lat="-35.2850492" lon="148.9860439">
  <ele>700.22</ele>
  <time>2026-09-01T19:59:55Z</time>
  <course>194.84</course>
  <speed>0.16031219541881397</speed>
  <fix>3d</fix>
</trkpt>
<trkpt lat="-35.2850489" lon="148.9860436">
  <ele>700.3</ele>
  <time>2026-09-01T19:59:55Z</time>
  <course>178.71</course>
  <speed>0.12</speed>
  <fix>3d</fix>
</trkpt>
<trkpt lat="-35.2850494" lon="148.9860438">
  <ele>700.21</ele>
  <time>2026-09-01T19:59:55Z</time>
  <course>194.84</course>
  <speed>0.16031219541881397</speed>
  <fix>3d</fix>
</trkpt>
<trkpt lat="-35.2850489" lon="148.9860436">
  <ele>700.3</ele>
  <time>2026-09-01T19:59:55Z</time>
  <course>178.71</course>
  <speed>0.12</speed>
  <fix>3d</fix>
</trkpt>
<trkpt lat="-35.2850495" lon="148.9860438">
  <ele>700.21</ele>
  <time>2026-09-01T19:59:55Z</time>
  <course>194.85</course>
  <speed>0.17029386365926402</speed>
  <fix>3d</fix>
</trkpt>
<trkpt lat="-35.2850491" lon="148.9860436">
  <ele>700.29</ele>
  <time>2026-09-01T19:59:55Z</time>
  <course>181.87</course>
  <speed>0.13</speed>
  <fix>3d</fix>
</trkpt>
<trkpt lat="-35.2850496" lon="148.9860438">
  <ele>700.21</ele>
  <time>2026-09-01T19:59:55Z</time>
  <course>194.85</course>
  <speed>0.17</speed>
  <fix>3d</fix>
</trkpt>
<trkpt lat="-35.2850491" lon="148.9860436">
  <ele>700.29</ele>
  <time>2026-09-01T19:59:55Z</time>
  <course>181.87</course>
  <speed>0.13</speed>
  <fix>3d</fix>
</trkpt>
<trkpt lat="-35.2850497" lon="148.9860438">
  <ele>700.21</ele>
  <time>2026-09-01T19:59:55Z</time>
  <course>194.85</course>
  <speed>0.17</speed>
  <fix>3d</fix>
</trkpt>
<trkpt lat="-35.2850494" lon="148.9860436">
  <ele>700.29</ele>
  <time>2026-09-01T19:59:55Z</time>
  <course>184.23</course>
  <speed>0.15</speed>
  <fix>3d</fix>
</trkpt>
<trkpt lat="-35.2850499" lon="148.9860438">
  <ele>700.21</ele>
  <time>2026-09-01T19:59:55Z</time>
  <course>194.85</course>
  <speed>0.18</speed>
  <fix>3d</fix>
</trkpt>
<trkpt lat="-35.2850494" lon="148.9860436">
  <ele>700.29</ele>
  <time>2026-09-01T19:59:55Z</time>
  <course>184.23</course>
  <speed>0.15</speed>
  <fix>3d</fix>
</trkpt>
<trkpt lat="-35.28505" lon="148.9860438">
  <ele>700.21</ele>
  <time>2026-09-01T19:59:55Z</time>
  <course>194.85</course>
  <speed>0.18</speed>
  <fix>3d</fix>
</trkpt>
<trkpt lat="-35.2850496" lon="148.9860436">
  <ele>700.29</ele>
  <time>2026-09-01T19:59:55Z</time>
  <course>186.12</course>
  <speed>0.15</speed>
  <fix>3d</fix>
</trkpt>
<trkpt lat="-35.2850501" lon="148.9860438">
  <ele>700.21</ele>
  <time>2026-09-01T19:59:55Z</time>
  <course>194.85</course>
  <speed>0.18</speed>
  <fix>3d</fix>
</trkpt>
<trkpt lat="-35.2850496" lon="148.9860436">
  <ele>700.29</ele>
  <time>2026-09-01T19:59:55Z</time>
  <course>186.12</course>
  <speed>0.15</speed>
  <fix>3d</fix>
</trkpt>
<trkpt lat="-35.2850503" lon="148.9860438">
  <ele>700.21</ele>
  <time>2026-09-01T19:59:55Z</time>
  <course>194.85</course>
  <speed>0.18</speed>
  <fix>3d</fix>
</trkpt>
<trkpt lat="-35.2850499" lon="148.9860436">
  <ele>700.28</ele>
  <time>2026-09-01T19:59:55Z</time>
  <course>187.63</course>
  <speed>0.16</speed>
  <fix>3d</fix>
</trkpt>
<trkpt lat="-35.2850504" lon="148.9860438">
  <ele>700.21</ele>
  <time>2026-09-01T19:59:55Z</time>
  <course>194.85</course>
  <speed>0.18</speed>
  <fix>3d</fix>
</trkpt>
<trkpt lat="-35.2850499" lon="148.9860436">
  <ele>700.28</ele>
  <time>2026-09-01T19:59:55Z</time>
  <course>187.63</course>
  <speed>0.16</speed>
  <fix>3d</fix>
</trkpt>
<trkpt lat="-35.2850506" lon="148.9860437">
  <ele>700.21</ele>
  <time>2026-09-01T19:59:55Z</time>
  <course>194.86</course>
  <speed>0.18</speed>
  <fix>3d</fix>
</trkpt>
<trkpt lat="-35.2850502" lon="148.9860436">
  <ele>700.28</ele>
  <time>2026-09-01T19:59:55Z</time>
  <course>188.87</course>
  <speed>0.16</speed>
  <fix>3d</fix>
</trkpt>
<trkpt lat="-35.2850507" lon="148.9860437">
  <ele>700.21</ele>
  <time>2026-09-01T19:59:55Z</time>
  <course>194.87</course>
  <speed>0.18027756377319945</speed>
  <fix>3d</fix>
</trkpt>
<trkpt lat="-35.2850502" lon="148.9860436">
  <ele>700.28</ele>
  <time>2026-09-01T19:59:55Z</time>
  <course>188.87</course>
  <speed>0.16</speed>
  <fix>3d</fix>
</trkpt>
<trkpt lat="-35.2850508" lon="148.9860437">
  <ele>700.21</ele>
  <time>2026-09-01T19:59:55Z</time>
  <course>194.87</course>
  <speed>0.17029386365926402</speed>
  <fix>3d</fix>
</trkpt>
<trkpt lat="-35.2850505" lon="148.9860436">
  <ele>700.28</ele>
  <time>2026-09-01T19:59:55Z</time>
  <course>190.04</course>
  <speed>0.16</speed>
  <fix>3d</fix>
</trkpt>
<trkpt lat="-35.285051" lon="148.9860437">
  <ele>700.21</ele>
  <time>2026-09-01T19:59:55Z</time>
  <course>194.87</course>
  <speed>0.17029386365926402</speed>
  <fix>3d</fix>
</trkpt>
<trkpt lat="-35.2850505" lon="148.9860436">
  <ele>700.28</ele>
  <time>2026-09-01T19:59:55Z</time>
  <course>190.04</course>
  <speed>0.16</speed>
  <fix>3d</fix>
</trkpt>
<trkpt lat="-35.2850511" lon="148.9860436">
  <ele>700.21</ele>
  <time>2026-09-01T19:59:55Z</time>
  <course>194.87</course>
  <speed>0.17029386365926402</speed>
  <fix>3d</fix>
</trkpt>
<trkpt lat="-35.2850508" lon="148.9860435">
  <ele>700.27</ele>
  <time>2026-09-01T19:59:55Z</time>
  <course>191.34</course>
  <speed>0.15</speed>
  <fix>3d</fix>
</trkpt>
<trkpt lat="-35.2850512" lon="148.9860436">
  <ele>700.21</ele>
  <time>2026-09-01T19:59:55Z</time>
  <course>194.86</course>
  <speed>0.16031219541881397</speed>
  <fix>3d</fix>
</trkpt>
<trkpt lat="-35.2850508" lon="148.9860435">
  <ele>700.27</ele>
  <time>2026-09-01T19:59:55Z</time>
  <course>191.34</course>
  <speed>0.15</speed>
  <fix>3d</fix>
</trkpt>
<trkpt lat="-35.2850514" lon="148.9860436">
  <ele>700.21</ele>
  <time>2026-09-01T19:59:55Z</time>
  <course>194.86</course>
  <speed>0.16031219541881397</speed>
  <fix>3d</fix>
</trkpt>
<trkpt lat="-35.285051" lon="148.9860435">
  <ele>700.27</ele>
  <time>2026-09-01T19:59:55Z</time>
  <course>192.91</course>
  <speed>0.14</speed>
  <fix>3d</fix>
</trkpt>
<trkpt lat="-35.2850515" lon="148.9860435">
  <ele>700.21</ele>
  <time>2026-09-01T19:59:55Z</time>
  <course>194.86</course>
  <speed>0.15033296378372907</speed>
  <fix>3d</fix>
</trkpt>
<trkpt lat="-35.285051" lon="148.9860435">
  <ele>700.27</ele>
  <time>2026-09-01T19:59:55Z</time>
  <course>192.91</course>
  <speed>0.14</speed>
  <fix>3d</fix>
</trkpt>
<trkpt lat="-35.2850516" lon="148.9860435">
  <ele>700.21</ele>
  <time>2026-09-01T19:59:55Z</time>
  <course>194.87</course>
  <speed>0.140356688476182</speed>
  <fix>3d</fix>
</trkpt>
<trkpt lat="-35.2850513" lon="148.9860434">
  <ele>700.27</ele>
  <time>2026-09-01T19:59:55Z</time>
  <course>194.58</course>
  <speed>0.13</speed>
  <fix>3d</fix>
</trkpt>
<trkpt lat="-35.2850517" lon="148.9860435">
  <ele>700.21</ele>
  <time>2026-09-01T19:59:55Z</time>
  <course>194.88</course>
  <speed>0.140356688476182</speed>
  <fix>3d</fix>
</trkpt>
<trkpt lat="-35.2850513" lon="148.9860434">
  <ele>700.27</ele>
  <time>2026-09-01T19:59:55Z</time>
  <course>194.58</course>
  <speed>0.13</speed>
  <fix>3d</fix>
</trkpt>
<trkpt lat="-35.2850518" lon="148.9860435">
  <ele>700.21</ele>
  <time>2026-09-01T19:59:55Z</time>
  <course>194.89</course>
  <speed>0.130384048104053</speed>
  <fix>3d</fix>
</trkpt>
<trkpt lat="-35.2850516" lon="148.9860433">
  <ele>700.27</ele>
  <time>2026-09-01T19:59:55Z</time>
  <course>196.22</course>
  <speed>0.12</speed>
  <fix>3d</fix>
</trkpt>
<trkpt lat="-35.2850519" lon="148.9860434">
  <ele>700.21</ele>
  <time>2026-09-01T19:59:55Z</time>
  <course>194.9</course>
  <speed>0.12041594578792296</speed>
  <fix>3d</fix>
</trkpt>
<trkpt lat="-35.2850516" lon="148.9860433">
  <ele>700.27</ele>
  <time>2026-09-01T19:59:55Z</time>
  <course>196.22</course>
  <speed>0.12</speed>
  <fix>3d</fix>
</trkpt>
<trkpt lat="-35.285052" lon="148.9860434">
  <ele>700.21</ele>
  <time>2026-09-01T19:59:55Z</time>
  <course>194.91</course>
  <speed>0.12041594578792296</speed>
  <fix>3d</fix>
</trkpt>
<trkpt lat="-35.2850518" lon="148.9860432">
  <ele>700.27</ele>
  <time>2026-09-01T19:59:55Z</time>
  <course>197.88</course>
  <speed>0.11</speed>
  <fix>3d</fix>
</trkpt>
<trkpt lat="-35.2850521" lon="148.9860434">
  <ele>700.2</ele>
  <time>2026-09-01T19:59:55Z</time>
  <course>194.91</course>
  <speed>0.11045361017187261</speed>
  <fix>3d</fix>
</trkpt>
<trkpt lat="-35.2850518" lon="148.9860432">
  <ele>700.27</ele>
  <time>2026-09-01T19:59:55Z</time>
  <course>197.88</course>
  <speed>0.11</speed>
  <fix>3d</fix>
</trkpt>
<trkpt lat="-35.2850522" lon="148.9860433">
  <ele>700.2</ele>
  <time>2026-09-01T19:59:55Z</time>
  <course>194.91</course>
  <speed>0.1004987562112089</speed>
  <fix>3d</fix>
</trkpt>
<trkpt lat="-35.2850519" lon="148.9860431">
  <ele>700.26</ele>
  <time>2026-09-01T19:59:55Z</time>
  <course>199.64</course>
  <speed>0.09</speed>
  <fix>3d</fix>
</trkpt>
<trkpt lat="-35.2850522" lon="148.9860433">
  <ele>700.2</ele>
  <time>2026-09-01T19:59:55Z</time>
  <course>194.91</course>
  <speed>0.09055385138137417</speed>
  <fix>3d</fix>
</trkpt>
<trkpt lat="-35.2850519" lon="148.9860431">
  <ele>700.26</ele>
  <time>2026-09-01T19:59:55Z</time>
  <course>199.64</course>
  <speed>0.09</speed>
  <fix>3d</fix>
</trkpt>
<trkpt lat="-35.2850523" lon="148.9860433">
  <ele>700.19</ele>
  <time>2026-09-01T19:59:55Z</time>
  <course>194.91</course>
  <speed>0.09</speed>
  <fix>3d</fix>
</trkpt>
<trkpt lat="-35.2850521" lon="148.9860431">
  <ele>700.26</ele>
  <time>2026-09-01T19:59:55Z</time>
  <course>202.29</course>
  <speed>0.08</speed>
  <fix>3d</fix>
</trkpt>
<trkpt lat="-35.2850523" lon="148.9860432">
  <ele>700.19</ele>
  <time>2026-09-01T19:59:55Z</time>
  <course>194.9</course>
  <speed>0.08</speed>
  <fix>3d</fix>
</trkpt>
<trkpt lat="-35.2850521" lon="148.9860431">
  <ele>700.26</ele>
  <time>2026-09-01T19:59:55Z</time>
  <course>202.29</course>
  <speed>0.08</speed>
  <fix>3d</fix>
</trkpt>
<trkpt lat="-35.2850524" lon="148.9860432">
  <ele>700.19</ele>
  <time>2026-09-01T19:59:55Z</time>
  <course>194.89</course>
  <speed>0.07</speed>
  <fix>3d</fix>
</trkpt>
<trkpt lat="-35.2850522" lon="148.986043">
  <ele>700.26</ele>
  <time>2026-09-01T19:59:55Z</time>
  <course>206.96</course>
  <speed>0.06</speed>
  <fix>3d</fix>
</trkpt>
<trkpt lat="-35.2850524" lon="148.9860432">
  <ele>700.19</ele>
  <time>2026-09-01T19:59:55Z</time>
  <course>194.88</course>
  <speed>0.06</speed>
  <fix>3d</fix>
</trkpt>
<trkpt lat="-35.2850522" lon="148.986043">
  <ele>700.26</ele>
  <time>2026-09-01T19:59:55Z</time>
  <course>206.96</course>
  <speed>0.06</speed>
  <fix>3d</fix>
</trkpt>
<trkpt lat="-35.2850525" lon="148.9860432">
  <ele>700.19</ele>
  <time>2026-09-01T19:59:55Z</time>
  <course>194.87</course>
  <speed>0.05</speed>
  <fix>3d</fix>
</trkpt>
<trkpt lat="-35.2850522" lon="148.986043">
  <ele>700.26</ele>
  <time>2026-09-01T19:59:55Z</time>
  <course>215.31</course>
  <speed>0.04</speed>
  <fix>3d</fix>
</trkpt>
<trkpt lat="-35.2850525" lon="148.9860431">
  <ele>700.19</ele>
  <time>2026-09-01T19:59:55Z</time>
  <course>194.86</course>
  <speed>0.04</speed>
  <fix>3d</fix>
</trkpt>
<trkpt lat="-35.2850522" lon="148.986043">
  <ele>700.26</ele>
  <time>2026-09-01T19:59:55Z</time>
  <course>215.31</course>
  <speed>0.04</speed>
  <fix>3d</fix>
</trkpt>
<trkpt lat="-35.2850525" lon="148.9860431">
  <ele>700.19</ele>
  <time>2026-09-01T19:59:55Z</time>
  <course>194.85</course>
  <speed>0.03</speed>
  <fix>3d</fix>
</trkpt>
<trkpt lat="-35.2850523" lon="148.9860429">
  <ele>700.26</ele>
  <time>2026-09-01T19:59:55Z</time>
  <course>232.03</course>
  <speed>0.03</speed>
  <fix>3d</fix>
</trkpt>
<trkpt lat="-35.2850525" lon="148.9860431">
  <ele>700.19</ele>
  <time>2026-09-01T19:59:55Z</time>
  <course>194.85</course>
  <speed>0.02</speed>
  <fix>3d</fix>
</trkpt>
<trkpt lat="-35.2850523" lon="148.9860429">
  <ele>700.26</ele>
  <time>2026-09-01T19:59:55Z</time>
  <course>232.03</course>
  <speed>0.03</speed>
  <fix>3d</fix>
</trkpt>
<trkpt lat="-35.2850525" lon="148.9860431">
  <ele>700.19</ele>
  <time>2026-09-01T19:59:55Z</time>
  <course>194.86</course>
  <speed>0.01</speed>
  <fix>3d</fix>
</trkpt>
<trkpt lat="-35.2850524" lon="148.9860429">
  <ele>700.26</ele>
  <time>2026-09-01T19:59:55Z</time>
  <course>265.67</course>
  <speed>0.02</speed>
  <fix>3d</fix>
</trkpt>
<trkpt lat="-35.2850525" lon="148.9860431">
  <ele>700.19</ele>
  <time>2026-09-01T19:59:55Z</time>
  <course>194.88</course>
  <speed>0.0</speed>
  <fix>3d</fix>
</trkpt>
<trkpt lat="-35.2850524" lon="148.9860429">
  <ele>700.26</ele>
  <time>2026-09-01T19:59:55Z</time>
  <course>265.67</course>
  <speed>0.02</speed>
  <fix>3d</fix>
</trkpt>
<trkpt lat="-35.2850525" lon="148.9860431">
  <ele>700.2</ele>
  <time>2026-09-01T19:59:55Z</time>
  <course>194.89</course>
  <speed>0.0</speed>
  <fix>3d</fix>
</trkpt>
<trkpt lat="-35.2850524" lon="148.9860428">
  <ele>700.27</ele>
  <time>2026-09-01T19:59:55Z</time>
  <course>307.78</course>
  <speed>0.02</speed>
  <fix>3d</fix>
</trkpt>
<trkpt lat="-35.2850525" lon="148.986043">
  <ele>700.2</ele>
  <time>2026-09-01T19:59:55Z</time>
  <course>194.91</course>
  <speed>0.0</speed>
  <fix>3d</fix>
</trkpt>
<trkpt lat="-35.2850524" lon="148.9860428">
  <ele>700.27</ele>
  <time>2026-09-01T19:59:55Z</time>
  <course>307.78</course>
  <speed>0.02</speed>
  <fix>3d</fix>
</trkpt>
<trkpt lat="-35.2850525" lon="148.986043">
  <ele>700.2</ele>
  <time>2026-09-01T19:59:55Z</time>
  <course>194.91</course>
  <speed>0.01</speed>
  <fix>3d</fix>
</trkpt>
<trkpt lat="-35.2850524" lon="148.9860428">
  <ele>700.27</ele>
  <time>2026-09-01T19:59:55Z</time>
  <course>331.37</course>
  <speed>0.03</speed>
  <fix>3d</fix>
</trkpt>
<trkpt lat="-35.2850525" lon="148.986043">
  <ele>700.19</ele>
  <time>2026-09-01T19:59:55Z</time>
  <course>194.92</course>
  <speed>0.01</speed>
  <fix>3d</fix>
</trkpt>
<trkpt lat="-35.2850524" lon="148.9860428">
  <ele>700.27</ele>
  <time>2026-09-01T19:59:55Z</time>
  <course>331.37</course>
  <speed>0.03</speed>
  <fix>3d</fix>
</trkpt>
<trkpt lat="-35.2850525" lon="148.986043">
  <ele>700.19</ele>
  <time>2026-09-01T19:59:55Z</time>
  <course>194.92</course>
  <speed>0.02</speed>
  <fix>3d</fix>
</trkpt>
<trkpt lat="-35.2850523" lon="148.9860428">
  <ele>700.27</ele>
  <time>2026-09-01T19:59:55Z</time>
  <course>342.26</course>
  <speed>0.04</speed>
  <fix>3d</fix>
</trkpt>
<trkpt lat="-35.2850524" lon="148.986043">
  <ele>700.19</ele>
  <time>2026-09-01T19:59:55Z</time>
  <course>194.92</course>
  <speed>0.022360679774997897</speed>
  <fix>3d</fix>
</trkpt>
<trkpt lat="-35.2850523" lon="148.9860428">
  <ele>700.27</ele>
  <time>2026-09-01T19:59:55Z</time>
  <course>342.26</course>
  <speed>0.04</speed>
  <fix>3d</fix>
</trkpt>
<trkpt lat="-35.2850524" lon="148.986043">
  <ele>700.19</ele>
  <time>2026-09-01T19:59:55Z</time>
  <course>194.91</course>
  <speed>0.0316227766016838</speed>
  <fix>3d</fix>
</trkpt>
<trkpt lat="-35.2850522" lon="148.9860427">
  <ele>700.28</ele>
  <time>2026-09-01T19:59:55Z</time>
  <course>348.73</course>
  <speed>0.05</speed>
  <fix>3d</fix>
</trkpt>
<trkpt lat="-35.2850523" lon="148.986043">
  <ele>700.19</ele>
  <time>2026-09-01T19:59:55Z</time>
  <course>194.91</course>
  <speed>0.0316227766016838</speed>
  <fix>3d</fix>
</trkpt>
<trkpt lat="-35.2850522" lon="148.9860427">
  <ele>700.28</ele>
  <time>2026-09-01T19:59:55Z</time>
  <course>348.73</course>
  <speed>0.05</speed>
  <fix>3d</fix>
</trkpt>
<trkpt lat="-35.2850523" lon="148.986043">
  <ele>700.19</ele>
  <time>2026-09-01T19:59:55Z</time>
  <course>194.9</course>
  <speed>0.0316227766016838</speed>
  <fix>3d</fix>
</trkpt>
<trkpt lat="-35.2850521" lon="148.9860426">
  <ele>700.28</ele>
  <time>2026-09-01T19:59:55Z</time>
  <course>354.11</course>
  <speed>0.06</speed>
  <fix>3d</fix>
</trkpt>
<trkpt lat="-35.2850522" lon="148.986043">
  <ele>700.19</ele>
  <time>2026-09-01T19:59:55Z</time>
  <course>194.9</course>
  <speed>0.044721359549995794</speed>
  <fix>3d</fix>
</trkpt>
<trkpt lat="-35.2850521" lon="148.9860426">
  <ele>700.28</ele>
  <time>2026-09-01T19:59:55Z</time>
  <course>354.11</course>
  <speed>0.06</speed>
  <fix>3d</fix>
</trkpt>
<trkpt lat="-35.2850522" lon="148.986043">
  <ele>700.19</ele>
  <time>2026-09-01T19:59:55Z</time>
  <course>194.9</course>
  <speed>0.044721359549995794</speed>
  <fix>3d</fix>
</trkpt>
<trkpt lat="-35.285052" lon="148.9860426">
  <ele>700.28</ele>
  <time>2026-09-01T19:59:55Z</time>
  <course>358.79</course>
  <speed>0.06</speed>
  <fix>3d</fix>
</trkpt>
<trkpt lat="-35.2850521" lon="148.9860429">
  <ele>700.19</ele>
  <time>2026-09-01T19:59:55Z</time>
  <course>194.9</course>
  <speed>0.044721359549995794</speed>
  <fix>3d</fix>
</trkpt>
<trkpt lat="-35.285052" lon="148.9860426">
  <ele>700.28</ele>
  <time>2026-09-01T19:59:55Z</time>
  <course>358.79</course>
  <speed>0.06</speed>
  <fix>3d</fix>
</trkpt>
<trkpt lat="-35.285052" lon="148.9860429">
  <ele>700.2</ele>
  <time>2026-09-01T19:59:55Z</time>
  <course>194.91</course>
  <speed>0.044721359549995794</speed>
  <fix>3d</fix>
</trkpt>
<trkpt lat="-35.2850519" lon="148.9860426">
  <ele>700.28</ele>
  <time>2026-09-01T19:59:55Z</time>
  <course>2.32</course>
  <speed>0.07</speed>
  <fix>3d</fix>
</trkpt>
<trkpt lat="-35.285052" lon="148.9860429">
  <ele>700.2</ele>
  <time>2026-09-01T19:59:55Z</time>
  <course>194.91</course>
  <speed>0.044721359549995794</speed>
  <fix>3d</fix>
</trkpt>
<trkpt lat="-35.2850519" lon="148.9860426">
  <ele>700.28</ele>
  <time>2026-09-01T19:59:55Z</time>
  <course>2.32</course>
  <speed>0.07</speed>
  <fix>3d</fix>
</trkpt>
<trkpt lat="-35.2850519" lon="148.9860429">
  <ele>700.2</ele>
  <time>2026-09-01T19:59:55Z</time>
  <course>194.92</course>
  <speed>0.044721359549995794</speed>
  <fix>3d</fix>
</trkpt>
<trkpt lat="-35.2850518" lon="148.9860426">
  <ele>700.29</ele>
  <time>2026-09-01T19:59:55Z</time>
  <course>4.68</course>
  <speed>0.07</speed>
  <fix>3d</fix>
</trkpt>
<trkpt lat="-35.2850519" lon="148.9860429">
  <ele>700.2</ele>
  <time>2026-09-01T19:59:55Z</time>
  <course>194.93</course>
  <speed>0.044721359549995794</speed>
  <fix>3d</fix>
</trkpt>
<trkpt lat="-35.2850518" lon="148.9860426">
  <ele>700.29</ele>
  <time>2026-09-01T19:59:55Z</time>
  <course>4.68</course>
  <speed>0.07</speed>
  <fix>3d</fix>
</trkpt>
<trkpt lat="-35.2850518" lon="148.9860429">
  <ele>700.2</ele>
  <time>2026-09-01T19:59:55Z</time>
  <course>194.93</course>
  <speed>0.05</speed>
  <fix>3d</fix>
</trkpt>
<trkpt lat="-35.2850516" lon="148.9860426">
  <ele>700.29</ele>
  <time>2026-09-01T19:59:55Z</time>
  <course>6.37</course>
  <speed>0.07</speed>
  <fix>3d</fix>
</trkpt>
<trkpt lat="-35.2850517" lon="148.9860429">
  <ele>700.2</ele>
  <time>2026-09-01T19:59:55Z</time>
  <course>194.92</course>
  <speed>0.05</speed>
  <fix>3d</fix>
</trkpt>
<trkpt lat="-35.2850516" lon="148.9860426">
  <ele>700.29</ele>
  <time>2026-09-01T19:59:55Z</time>
  <course>6.37</course>
  <speed>0.07</speed>
  <fix>3d</fix>
</trkpt>
<trkpt lat="-35.2850517" lon="148.9860429">
  <ele>700.2</ele>
  <time>2026-09-01T19:59:55Z</time>
  <course>194.91</course>
  <speed>0.05</speed>
  <fix>3d</fix>
</trkpt>
<trkpt lat="-35.2850514" lon="148.9860426">
  <ele>700.29</ele>
  <time>2026-09-01T19:59:55Z</time>
  <course>8.02</course>
  <speed>0.07</speed>
  <fix>3d</fix>
</trkpt>
<trkpt lat="-35.2850516" lon="148.9860429">
  <ele>700.2</ele>
  <time>2026-09-01T19:59:55Z</time>
  <course>194.91</course>
  <speed>0.05</speed>
  <fix>3d</fix>
</trkpt>
<trkpt lat="-35.2850514" lon="148.9860426">
  <ele>700.29</ele>
  <time>2026-09-01T19:59:55Z</time>
  <course>8.02</course>
  <speed>0.07</speed>
  <fix>3d</fix>
</trkpt>
<trkpt lat="-35.2850515" lon="148.9860429">
  <ele>700.2</ele>
  <time>2026-09-01T19:59:55Z</time>
  <course>194.91</course>
  <speed>0.04242640687119285</speed>
  <fix>3d</fix>
</trkpt>
<trkpt lat="-35.2850513" lon="148.9860426">
  <ele>700.29</ele>
  <time>2026-09-01T19:59:55Z</time>
  <course>9.36</course>
  <speed>0.07</speed>
  <fix>3d</fix>
</trkpt>
<trkpt lat="-35.2850515" lon="148.9860429">
  <ele>700.2</ele>
  <time>2026-09-01T19:59:55Z</time>
  <course>194.88</course>
  <speed>0.01414213562373095</speed>
  <fix>3d</fix>
</trkpt>
<trkpt lat="-35.2850513" lon="148.9860426">
  <ele>700.29</ele>
  <time>2026-09-01T19:59:55Z</time>
  <course>9.36</course>
  <speed>0.07</speed>
  <fix>3d</fix>
</trkpt>
<trkpt lat="-35.2850515" lon="148.9860429">
  <ele>700.2</ele>
  <time>2026-09-01T19:59:55Z</time>
  <course>194.78</course>
  <speed>0.12</speed>
  <fix>3d</fix>
</trkpt>
<trkpt lat="-35.2850513" lon="148.9860426">
  <ele>700.29</ele>
  <time>2026-09-01T19:59:55Z</time>
  <course>213.58</course>
  <speed>0.01</speed>
  <fix>3d</fix>
</trkpt>
<trkpt lat="-35.2850516" lon="148.9860429">
  <ele>700.2</ele>
  <time>2026-09-01T19:59:55Z</time>
  <course>194.6</course>
  <speed>0.29274562336608895</speed>
  <fix>3d</fix>
</trkpt>
<trkpt lat="-35.2850513" lon="148.9860426">
  <ele>700.29</ele>
  <time>2026-09-01T19:59:55Z</time>
  <course>213.58</course>
  <speed>0.01</speed>
  <fix>3d</fix>
</trkpt>
<trkpt lat="-35.2850519" lon="148.9860428">
  <ele>700.2</ele>
  <time>2026-09-01T19:59:55Z</time>
  <course>194.33</course>
  <speed>0.5277309920783505</speed>
  <fix>3d</fix>
</trkpt>
<trkpt lat="-35.2850514" lon="148.9860426">
  <ele>700.29</ele>
  <time>2026-09-01T19:59:55Z</time>
  <course>193.99</course>
  <speed>0.29</speed>
  <fix>3d</fix>
</trkpt>
<trkpt lat="-35.2850525" lon="148.9860426">
  <ele>700.2</ele>
  <time>2026-09-01T19:59:55Z</time>
  <course>194.06</course>
  <speed>0.8237718130647589</speed>
  <fix>3d</fix>
</trkpt>
<trkpt lat="-35.2850514" lon="148.9860426">
  <ele>700.29</ele>
  <time>2026-09-01T19:59:55Z</time>
  <course>193.99</course>
  <speed>0.29</speed>
  <fix>3d</fix>
</trkpt>
<trkpt lat="-35.2850534" lon="148.9860424">
  <ele>700.2</ele>
  <time>2026-09-01T19:59:55Z</time>
  <course>193.81</course>
  <speed>1.190504094911059</speed>
  <fix>3d</fix>
</trkpt>
<trkpt lat="-35.2850524" lon="148.9860425">
  <ele>700.29</ele>
  <time>2026-09-01T19:59:55Z</time>
  <course>192.76</course>
  <speed>0.82</speed>
  <fix>3d</fix>
</trkpt>
<trkpt lat="-35.2850546" lon="148.9860421">
  <ele>700.2</ele>
  <time>2026-09-01T19:59:55Z</time>
  <course>193.58</course>
  <speed>1.6063934760823702</speed>
  <fix>3d</fix>
</trkpt>
<trkpt lat="-35.2850524" lon="148.9860425">
  <ele>700.29</ele>
  <time>2026-09-01T19:59:55Z</time>
  <course>192.76</course>
  <speed>0.82</speed>
  <fix>3d</fix>
</trkpt>
<trkpt lat="-35.2850562" lon="148.9860417">
  <ele>700.2</ele>
  <time>2026-09-01T19:59:55Z</time>
  <course>193.27</course>
  <speed>2.092964404857378</speed>
  <fix>3d</fix>
</trkpt>
<trkpt lat="-35.2850544" lon="148.9860418">
  <ele>700.29</ele>
  <time>2026-09-01T19:59:55Z</time>
  <course>191.84</course>
  <speed>1.59</speed>
  <fix>3d</fix>
</trkpt>
<trkpt lat="-35.2850583" lon="148.9860412">
  <ele>700.2</ele>
  <time>2026-09-01T19:59:55Z</time>
  <course>192.86</course>
  <speed>2.6305322655310652</speed>
  <fix>3d</fix>
</trkpt>
<trkpt lat="-35.2850544" lon="148.9860418">
  <ele>700.29</ele>
  <time>2026-09-01T19:59:55Z</time>
  <course>191.84</course>
  <speed>1.59</speed>
  <fix>3d</fix>
</trkpt>
<trkpt lat="-35.2850609" lon="148.9860406">
  <ele>700.21</ele>
  <time>2026-09-01T19:59:55Z</time>
  <course>192.38</course>
  <speed>3.2272124194109066</speed>
  <fix>3d</fix>
</trkpt>
<trkpt lat="-35.2850581" lon="148.9860409">
  <ele>700.3</ele>
  <time>2026-09-01T19:59:55Z</time>
  <course>191.09</course>
  <speed>2.6</speed>
  <fix>3d</fix>
</trkpt>
<trkpt lat="-35.2850639" lon="148.98604">
  <ele>700.21</ele>
  <time>2026-09-01T19:59:55Z</time>
  <course>191.85</course>
  <speed>3.84365711269879</speed>
  <fix>3d</fix>
</trkpt>
<trkpt lat="-35.2850581" lon="148.9860409">
  <ele>700.3</ele>
  <time>2026-09-01T19:59:55Z</time>
  <course>191.09</course>
  <speed>2.6</speed>
  <fix>3d</fix>
</trkpt>
<trkpt lat="-35.2850676" lon="148.9860392">
  <ele>700.22</ele>
  <time>2026-09-01T19:59:55Z</time>
  <course>191.06</course>
  <speed>4.456915974078937</speed>
  <fix>3d</fix>
</trkpt>
<trkpt lat="-35.2850637" lon="148.9860396">
  <ele>700.3</ele>
  <time>2026-09-01T19:59:55Z</time>
  <course>190.29</course>
  <speed>3.78</speed>
  <fix>3d</fix>
</trkpt>
<trkpt lat="-35.2850718" lon="148.9860383">
  <ele>700.23</ele>
  <time>2026-09-01T19:59:55Z</time>
  <course>190.27</course>
  <speed>5.065826684757385</speed>
  <fix>3d</fix>
</trkpt>
<trkpt lat="-35.2850637" lon="148.9860396">
  <ele>700.3</ele>
  <time>2026-09-01T19:59:55Z</time>
  <course>190.29</course>
  <speed>3.78</speed>
  <fix>3d</fix>
</trkpt>
<trkpt lat="-35.2850765" lon="148.9860375">
  <ele>700.23</ele>
  <time>2026-09-01T19:59:55Z</time>
  <course>189.39</course>
  <speed>5.682411459934945</speed>
  <fix>3d</fix>
</trkpt>
<trkpt lat="-35.2850715" lon="148.986038">
  <ele>700.31</ele>
  <time>2026-09-01T19:59:55Z</time>
  <course>189.13</course>
  <speed>5.01</speed>
  <fix>3d</fix>
</trkpt>
<trkpt lat="-35.2850819" lon="148.9860366">
  <ele>700.24</ele>
  <time>2026-09-01T19:59:55Z</time>
  <course>188.5</course>
  <speed>6.297253369525479</speed>
  <fix>3d</fix>
</trkpt>
<trkpt lat="-35.2850715" lon="148.986038">
  <ele>700.31</ele>
  <time>2026-09-01T19:59:55Z</time>
  <course>189.13</course>
  <speed>5.01</speed>
  <fix>3d</fix>
</trkpt>
<trkpt lat="-35.2850877" lon="148.9860357">
  <ele>700.25</ele>
  <time>2026-09-01T19:59:55Z</time>
  <course>187.46</course>
  <speed>6.9086757052274494</speed>
  <fix>3d</fix>
</trkpt>
<trkpt lat="-35.2850815" lon="148.9860363">
  <ele>700.33</ele>
  <time>2026-09-01T19:59:55Z</time>
  <course>187.5</course>
  <speed>6.23</speed>
  <fix>3d</fix>
</trkpt>
<trkpt lat="-35.2850942" lon="148.9860349">
  <ele>700.26</ele>
  <time>2026-09-01T19:59:55Z</time>
  <course>186.48</course>
  <speed>7.519022542857549</speed>
  <fix>3d</fix>
</trkpt>
<trkpt lat="-35.2850815" lon="148.9860363">
  <ele>700.33</ele>
  <time>2026-09-01T19:59:55Z</time>
  <course>187.5</course>
  <speed>6.23</speed>
  <fix>3d</fix>
</trkpt>
<trkpt lat="-35.2851012" lon="148.9860342">
  <ele>700.26</ele>
  <time>2026-09-01T19:59:55Z</time>
  <course>185.32</course>
  <speed>8.128628420588555</speed>
  <fix>3d</fix>
</trkpt>
<trkpt lat="-35.2850938" lon="148.9860345">
  <ele>700.34</ele>
  <time>2026-09-01T19:59:55Z</time>
  <course>185.49</course>
  <speed>7.45</speed>
  <fix>3d</fix>
</trkpt>
<trkpt lat="-35.2851087" lon="148.9860336">
  <ele>700.27</ele>
  <time>2026-09-01T19:59:55Z</time>
  <course>184.19</course>
  <speed>8.729633440185218</speed>
  <fix>3d</fix>
</trkpt>
<trkpt lat="-35.2850938" lon="148.9860345">
  <ele>700.34</ele>
  <time>2026-09-01T19:59:55Z</time>
  <course>185.49</course>
  <speed>7.45</speed>
  <fix>3d</fix>
</trkpt>
<trkpt lat="-35.2851168" lon="148.9860332">
  <ele>700.27</ele>
  <time>2026-09-01T19:59:55Z</time>
  <course>182.94</course>
  <speed>9.342831476592094</speed>
  <fix>3d</fix>
</trkpt>
<trkpt lat="-35.2851082" lon="148.9860332">
  <ele>700.36</ele>
  <time>2026-09-01T19:59:55Z</time>
  <course>183.12</course>
  <speed>8.67</speed>
  <fix>3d</fix>
</trkpt>
<trkpt lat="-35.2851254" lon="148.986033">
  <ele>700.27</ele>
  <time>2026-09-01T19:59:55Z</time>
  <course>181.64</course>
  <speed>9.940005030179814</speed>
  <fix>3d</fix>
</trkpt>
<trkpt lat="-35.2851082" lon="148.9860332">
  <ele>700.36</ele>
  <time>2026-09-01T19:59:55Z</time>
  <course>183.12</course>
  <speed>8.67</speed>
  <fix>3d</fix>
</trkpt>
<trkpt lat="-35.2851347" lon="148.9860331">
  <ele>700.28</ele>
  <time>2026-09-01T19:59:55Z</time>
  <course>180.23</course>
  <speed>10.5327346876298</speed>
  <fix>3d</fix>
</trkpt>
<trkpt lat="-35.2851249" lon="148.9860325">
  <ele>700.37</ele>
  <time>2026-09-01T19:59:55Z</time>
  <course>180.47</course>
  <speed>9.87</speed>
  <fix>3d</fix>
</trkpt>
<trkpt lat="-35.2851444" lon="148.9860333">
  <ele>700.29</ele>
  <time>2026-09-01T19:59:55Z</time>
  <course>178.81</course>
  <speed>11.102657339574161</speed>
  <fix>3d</fix>
</trkpt>
<trkpt lat="-35.2851249" lon="148.9860325">
  <ele>700.37</ele>
  <time>2026-09-01T19:59:55Z</time>
  <course>180.47</course>
  <speed>9.87</speed>
  <fix>3d</fix>
</trkpt>
<trkpt lat="-35.2851546" lon="148.9860341">
  <ele>700.3</ele>
  <time>2026-09-01T19:59:55Z</time>
  <course>177.37</course>
  <speed>11.661753727463122</speed>
  <fix>3d</fix>
</trkpt>
<trkpt lat="-35.2851437" lon="148.9860329">
  <ele>700.39</ele>
  <time>2026-09-01T19:59:55Z</time>
  <course>177.61</course>
  <speed>11.02</speed>
  <fix>3d</fix>
</trkpt>
<trkpt lat="-35.2851652" lon="148.9860351">
  <ele>700.32</ele>
  <time>2026-09-01T19:59:55Z</time>
  <course>175.87</course>
  <speed>12.201147487019407</speed>
  <fix>3d</fix>
</trkpt>
<trkpt lat="-35.2851437" lon="148.9860329">
  <ele>700.39</ele>
  <time>2026-09-01T19:59:55Z</time>
  <course>177.61</course>
  <speed>11.02</speed>
  <fix>3d</fix>
</trkpt>
<trkpt lat="-35.2851763" lon="148.9860366">
  <ele>700.34</ele>
  <time>2026-09-01T19:59:55Z</time>
  <course>174.31</course>
  <speed>12.732203265735274</speed>
  <fix>3d</fix>
</trkpt>
<trkpt lat="-35.2851645" lon="148.9860346">
  <ele>700.42</ele>
  <time>2026-09-01T19:59:55Z</time>
  <course>174.6</course>
  <speed>12.13</speed>
  <fix>3d</fix>
</trkpt>
<trkpt lat="-35.2851877" lon="148.9860385">
  <ele>700.38</ele>
  <time>2026-09-01T19:59:55Z</time>
  <course>172.74</course>
  <speed>13.244942430980966</speed>
  <fix>3d</fix>
</trkpt>
<trkpt lat="-35.2851645" lon="148.9860346">
  <ele>700.42</ele>
  <time>2026-09-01T19:59:55Z</time>
  <course>174.6</course>
  <speed>12.13</speed>
  <fix>3d</fix>
</trkpt>
<trkpt lat="-35.2851995" lon="148.9860409">
  <ele>700.41</ele>
  <time>2026-09-01T19:59:55Z</time>
  <course>171.22</course>
  <speed>13.740192866186412</speed>
  <fix>3d</fix>
</trkpt>
<trkpt lat="-35.2851871" lon="148.986038">
  <ele>700.48</ele>
  <time>2026-09-01T19:59:55Z</time>
  <course>171.54</course>
  <speed>13.18</speed>
  <fix>3d</fix>
</trkpt>
<trkpt lat="-35.2852117" lon="148.9860437">
  <ele>700.45</ele>
  <time>2026-09-01T19:59:55Z</time>
  <course>169.75</course>
  <speed>14.207047546904318</speed>
  <fix>3d</fix>
</trkpt>
<trkpt lat="-35.2851871" lon="148.986038">
  <ele>700.48</ele>
  <time>2026-09-01T19:59:55Z</time>
  <course>171.54</course>
  <speed>13.18</speed>
  <fix>3d</fix>
</trkpt>
<trkpt lat="-35.2852243" lon="148.9860471">
  <ele>700.5</ele>
  <time>2026-09-01T19:59:55Z</time>
  <course>168.34</course>
  <speed>14.677418029067645</speed>
  <fix>3d</fix>
</trkpt>
<trkpt lat="-35.2852112" lon="148.9860431">
  <ele>700.55</ele>
  <time>2026-09-01T19:59:55Z</time>
  <course>168.55</course>
  <speed>14.16</speed>
  <fix>3d</fix>
</trkpt>
<trkpt lat="-35.2852372" lon="148.9860509">
  <ele>700.55</ele>
  <time>2026-09-01T19:59:55Z</time>
  <course>166.97</course>
  <speed>15.115452358431089</speed>
  <fix>3d</fix>
</trkpt>
<trkpt lat="-35.2852112" lon="148.9860431">
  <ele>700.55</ele>
  <time>2026-09-01T19:59:55Z</time>
  <course>168.55</course>
  <speed>14.16</speed>
  <fix>3d</fix>
</trkpt>
<trkpt lat="-35.2852504" lon="148.9860552">
  <ele>700.6</ele>
  <time>2026-09-01T19:59:55Z</time>
  <course>165.62</course>
  <speed>15.564334229256321</speed>
  <fix>3d</fix>
</trkpt>
<trkpt lat="-35.2852368" lon="148.9860504">
  <ele>700.64</ele>
  <time>2026-09-01T19:59:55Z</time>
  <course>165.7</course>
  <speed>15.08</speed>
  <fix>3d</fix>
</trkpt>
<trkpt lat="-35.2852639" lon="148.9860601">
  <ele>700.65</ele>
  <time>2026-09-01T19:59:55Z</time>
  <course>164.26</course>
  <speed>16.00195300580526</speed>
  <fix>3d</fix>
</trkpt>
<trkpt lat="-35.2852368" lon="148.9860504">
  <ele>700.64</ele>
  <time>2026-09-01T19:59:55Z</time>
  <course>165.7</course>
  <speed>15.08</speed>
  <fix>3d</fix>
</trkpt>
<trkpt lat="-35.2852778" lon="148.9860654">
  <ele>700.7</ele>
  <time>2026-09-01T19:59:55Z</time>
  <course>162.96</course>
  <speed>16.421708193729422</speed>
  <fix>3d</fix>
</trkpt>
<trkpt lat="-35.2852637" lon="148.9860596">
  <ele>700.74</ele>
  <time>2026-09-01T19:59:55Z</time>
  <course>163.05</course>
  <speed>15.97</speed>
  <fix>3d</fix>
</trkpt>
<trkpt lat="-35.2852919" lon="148.9860714">
  <ele>700.75</ele>
  <time>2026-09-01T19:59:55Z</time>
  <course>161.71</course>
  <speed>16.82691296702993</speed>
  <fix>3d</fix>
</trkpt>
<trkpt lat="-35.2852637" lon="148.9860596">
  <ele>700.74</ele>
  <time>2026-09-01T19:59:55Z</time>
  <course>163.05</course>
  <speed>15.97</speed>
  <fix>3d</fix>
</trkpt>
<trkpt lat="-35.2853063" lon="148.9860778">
  <ele>700.79</ele>
  <time>2026-09-01T19:59:55Z</time>
  <course>160.56</course>
  <speed>17.170104833692776</speed>
  <fix>3d</fix>
</trkpt>
<trkpt lat="-35.2852917" lon="148.9860709">
  <ele>700.83</ele>
  <time>2026-09-01T19:59:55Z</time>
  <course>160.57</course>
  <speed>16.77</speed>
  <fix>3d</fix>
</trkpt>
<trkpt lat="-35.2853208" lon="148.9860847">
  <ele>700.83</ele>
  <time>2026-09-01T19:59:55Z</time>
  <course>159.35</course>
  <speed>17.474052191749916</speed>
  <fix>3d</fix>
</trkpt>
<trkpt lat="-35.2852917" lon="148.9860709">
  <ele>700.83</ele>
  <time>2026-09-01T19:59:55Z</time>
  <course>160.57</course>
  <speed>16.77</speed>
  <fix>3d</fix>
</trkpt>
<trkpt lat="-35.2853354" lon="148.9860921">
  <ele>700.87</ele>
  <time>2026-09-01T19:59:55Z</time>
  <course>158.01</course>
  <speed>17.739503938949365</speed>
  <fix>3d</fix>
</trkpt>
<trkpt lat="-35.2853204" lon="148.9860842">
  <ele>700.92</ele>
  <time>2026-09-01T19:59:55Z</time>
  <course>158.14</course>
  <speed>17.43</speed>
  <fix>3d</fix>
</trkpt>
<trkpt lat="-35.2853501" lon="148.9861001">
  <ele>700.92</ele>
  <time>2026-09-01T19:59:55Z</time>
  <course>156.7</course>
  <speed>17.971480183891366</speed>
  <fix>3d</fix>
</trkpt>
<trkpt lat="-35.2853204" lon="148.9860842">
  <ele>700.92</ele>
  <time>2026-09-01T19:59:55Z</time>
  <course>158.14</course>
  <speed>17.43</speed>
  <fix>3d</fix>
</trkpt>
<trkpt lat="-35.2853647" lon="148.9861084">
  <ele>700.96</ele>
  <time>2026-09-01T19:59:55Z</time>
  <course>155.47</course>
  <speed>18.15853793673929</speed>
  <fix>3d</fix>
</trkpt>
<trkpt lat="-35.2853497" lon="148.9860994">
  <ele>701.0</ele>
  <time>2026-09-01T19:59:55Z</time>
  <course>155.64</course>
  <speed>17.93</speed>
  <fix>3d</fix>
</trkpt>
<trkpt lat="-35.2853794" lon="148.9861173">
  <ele>701.01</ele>
  <time>2026-09-01T19:59:55Z</time>
  <course>154.24</course>
  <speed>18.34097598275512</speed>
  <fix>3d</fix>
</trkpt>
<trkpt lat="-35.2853497" lon="148.9860994">
  <ele>701.0</ele>
  <time>2026-09-01T19:59:55Z</time>
  <course>155.64</course>
  <speed>17.93</speed>
  <fix>3d</fix>
</trkpt>
<trkpt lat="-35.2853941" lon="148.9861267">
  <ele>701.06</ele>
  <time>2026-09-01T19:59:55Z</time>
  <course>152.87</course>
  <speed>18.51092920412155</speed>
  <fix>3d</fix>
</trkpt>
<trkpt lat="-35.285379" lon="148.9861167">
  <ele>701.1</ele>
  <time>2026-09-01T19:59:55Z</time>
  <course>153.05</course>
  <speed>18.31</speed>
  <fix>3d</fix>
</trkpt>
<trkpt lat="-35.2854087" lon="148.9861367">
  <ele>701.12</ele>
  <time>2026-09-01T19:59:55Z</time>
  <course>151.28</course>
  <speed>18.678396612129212</speed>
  <fix>3d</fix>
</trkpt>
<trkpt lat="-35.285379" lon="148.9861167">
  <ele>701.1</ele>
  <time>2026-09-01T19:59:55Z</time>
  <course>153.05</course>
  <speed>18.31</speed>
  <fix>3d</fix>
</trkpt>
<trkpt lat="-35.2854234" lon="148.9861472">
  <ele>701.18</ele>
  <time>2026-09-01T19:59:55Z</time>
  <course>149.52</course>
  <speed>18.837685632794702</speed>
  <fix>3d</fix>
</trkpt>
<trkpt lat="-35.2854082" lon="148.986136">
  <ele>701.21</ele>
  <time>2026-09-01T19:59:55Z</time>
  <course>150.29</course>
  <speed>18.64</speed>
  <fix>3d</fix>
</trkpt>
<trkpt lat="-35.2854378" lon="148.9861582">
  <ele>701.24</ele>
  <time>2026-09-01T19:59:55Z</time>
  <course>147.78</course>
  <speed>18.989102137805254</speed>
  <fix>3d</fix>
</trkpt>
<trkpt lat="-35.2854082" lon="148.986136">
  <ele>701.21</ele>
  <time>2026-09-01T19:59:55Z</time>
  <course>150.29</course>
  <speed>18.64</speed>
  <fix>3d</fix>
</trkpt>
<trkpt lat="-35.285452" lon="148.9861699">
  <ele>701.3</ele>
  <time>2026-09-01T19:59:55Z</time>
  <course>145.99</course>
  <speed>19.142541628529894</speed>
  <fix>3d</fix>
</trkpt>
<trkpt lat="-35.2854371" lon="148.9861575">
  <ele>701.33</ele>
  <time>2026-09-01T19:59:55Z</time>
  <course>147.18</course>
  <speed>18.96</speed>
  <fix>3d</fix>
</trkpt>
<trkpt lat="-35.2854661" lon="148.9861822">
  <ele>701.36</ele>
  <time>2026-09-01T19:59:55Z</time>
  <course>144.05</course>
  <speed>19.29638567193349</speed>
  <fix>3d</fix>
</trkpt>
<trkpt lat="-35.2854371" lon="148.9861575">
  <ele>701.33</ele>
  <time>2026-09-01T19:59:55Z</time>
  <course>147.18</course>
  <speed>18.96</speed>
  <fix>3d</fix>
</trkpt>
<trkpt lat="-35.2854799" lon="148.9861952">
  <ele>701.43</ele>
  <time>2026-09-01T19:59:55Z</time>
  <course>142.05</course>
  <speed>19.449948586050297</speed>
  <fix>3d</fix>
</trkpt>
<trkpt lat="-35.2854655" lon="148.9861814">
  <ele>701.45</ele>
  <time>2026-09-01T19:59:55Z</time>
  <course>143.57</course>
  <speed>19.26</speed>
  <fix>3d</fix>
</trkpt>
<trkpt lat="-35.2854934" lon="148.9862087">
  <ele>701.49</ele>
  <time>2026-09-01T19:59:55Z</time>
  <course>139.99</course>
  <speed>19.594246604552062</speed>
  <fix>3d</fix>
</trkpt>
<trkpt lat="-35.2854655" lon="148.9861814">
  <ele>701.45</ele>
  <time>2026-09-01T19:59:55Z</time>
  <course>143.57</course>
  <speed>19.26</speed>
  <fix>3d</fix>
</trkpt>
<trkpt lat="-35.2855066" lon="148.9862232">
  <ele>701.57</ele>
  <time>2026-09-01T19:59:55Z</time>
  <course>137.8</course>
  <speed>19.73465226448138</speed>
  <fix>3d</fix>
</trkpt>
<trkpt lat="-35.2854928" lon="148.9862079">
  <ele>701.58</ele>
  <time>2026-09-01T19:59:55Z</time>
  <course>139.45</course>
  <speed>19.55</speed>
  <fix>3d</fix>
</trkpt>
<trkpt lat="-35.2855192" lon="148.9862381">
  <ele>701.64</ele>
  <time>2026-09-01T19:59:55Z</time>
  <course>135.52</course>
  <speed>19.862781778995608</speed>
  <fix>3d</fix>
</trkpt>
<trkpt lat="-35.2854928" lon="148.9862079">
  <ele>701.58</ele>
  <time>2026-09-01T19:59:55Z</time>
  <course>139.45</course>
  <speed>19.55</speed>
  <fix>3d</fix>
</trkpt>
<trkpt lat="-35.2855314" lon="148.9862538">
  <ele>701.71</ele>
  <time>2026-09-01T19:59:55Z</time>
  <course>133.13</course>
  <speed>19.99658220796744</speed>
  <fix>3d</fix>
</trkpt>
<trkpt lat="-35.2855188" lon="148.9862374">
  <ele>701.72</ele>
  <time>2026-09-01T19:59:55Z</time>
  <course>134.9</course>
  <speed>19.84</speed>
  <fix>3d</fix>
</trkpt>
<trkpt lat="-35.2855432" lon="148.9862702">
  <ele>701.78</ele>
  <time>2026-09-01T19:59:55Z</time>
  <course>130.7</course>
  <speed>20.127406688393812</speed>
  <fix>3d</fix>
</trkpt>
<trkpt lat="-35.2855188" lon="148.9862374">
  <ele>701.72</ele>
  <time>2026-09-01T19:59:55Z</time>
  <course>134.9</course>
  <speed>19.84</speed>
  <fix>3d</fix>
</trkpt>
<trkpt lat="-35.2855544" lon="148.9862874">
  <ele>701.85</ele>
  <time>2026-09-01T19:59:55Z</time>
  <course>128.18</course>
  <speed>20.264570066991304</speed>
  <fix>3d</fix>
</trkpt>
<trkpt lat="-35.2855429" lon="148.9862698">
  <ele>701.86</ele>
  <time>2026-09-01T19:59:55Z</time>
  <course>130.0</course>
  <speed>20.13</speed>
  <fix>3d</fix>
</trkpt>
<trkpt lat="-35.2855651" lon="148.9863054">
  <ele>701.92</ele>
  <time>2026-09-01T19:59:55Z</time>
  <course>125.62</course>
  <speed>20.40491362392892</speed>
  <fix>3d</fix>
</trkpt>
<trkpt lat="-35.2855429" lon="148.9862698">
  <ele>701.86</ele>
  <time>2026-09-01T19:59:55Z</time>
  <course>130.0</course>
  <speed>20.13</speed>
  <fix>3d</fix>
</trkpt>
<trkpt lat="-35.2855751" lon="148.9863241">
  <ele>701.99</ele>
  <time>2026-09-01T19:59:55Z</time>
  <course>123.01</course>
  <speed>20.543819021788522</speed>
  <fix>3d</fix>
</trkpt>
<trkpt lat="-35.2855651" lon="148.9863053">
  <ele>701.99</ele>
  <time>2026-09-01T19:59:55Z</time>
  <course>124.82</course>
  <speed>20.41</speed>
  <fix>3d</fix>
</trkpt>
<trkpt lat="-35.2855846" lon="148.9863435">
  <ele>702.06</ele>
  <time>2026-09-01T19:59:55Z</time>
  <course>120.35</course>
  <speed>20.68468032143596</speed>
  <fix>3d</fix>
</trkpt>
<trkpt lat="-35.2855651" lon="148.9863053">
  <ele>701.99</ele>
  <time>2026-09-01T19:59:55Z</time>
  <course>124.82</course>
  <speed>20.41</speed>
  <fix>3d</fix>
</trkpt>
<trkpt lat="-35.2855933" lon="148.9863636">
  <ele>702.12</ele>
  <time>2026-09-01T19:59:55Z</time>
  <course>117.69</course>
  <speed>20.83568333412658</speed>
  <fix>3d</fix>
</trkpt>
<trkpt lat="-35.2855847" lon="148.9863436">
  <ele>702.12</ele>
  <time>2026-09-01T19:59:55Z</time>
  <course>119.46</course>
  <speed>20.71</speed>
  <fix>3d</fix>
</trkpt>
<trkpt lat="-35.2856013" lon="148.9863844">
  <ele>702.19</ele>
  <time>2026-09-01T19:59:55Z</time>
  <course>114.99</course>
  <speed>20.985254346802662</speed>
  <fix>3d</fix>
</trkpt>
<trkpt lat="-35.2855847" lon="148.9863436">
  <ele>702.12</ele>
  <time>2026-09-01T19:59:55Z</time>
  <course>119.46</course>
  <speed>20.71</speed>
  <fix>3d</fix>
</trkpt>
<trkpt lat="-35.2856085" lon="148.9864057">
  <ele>702.25</ele>
  <time>2026-09-01T19:59:55Z</time>
  <course>112.28</course>
  <speed>21.126637214663386</speed>
  <fix>3d</fix>
</trkpt>
<trkpt lat="-35.2856015" lon="148.9863846">
  <ele>702.25</ele>
  <time>2026-09-01T19:59:55Z</time>
  <course>113.98</course>
  <speed>21.01</speed>
  <fix>3d</fix>
</trkpt>
<trkpt lat="-35.2856148" lon="148.9864274">
  <ele>702.3</ele>
  <time>2026-09-01T19:59:55Z</time>
  <course>109.53</course>
  <speed>21.27272667055166</speed>
  <fix>3d</fix>
</trkpt>
<trkpt lat="-35.2856015" lon="148.9863846">
  <ele>702.25</ele>
  <time>2026-09-01T19:59:55Z</time>
  <course>113.98</course>
  <speed>21.01</speed>
  <fix>3d</fix>
</trkpt>
<trkpt lat="-35.2856204" lon="148.9864499">
  <ele>702.35</ele>
  <time>2026-09-01T19:59:55Z</time>
  <course>106.73</course>
  <speed>21.424906067472033</speed>
  <fix>3d</fix>
</trkpt>
<trkpt lat="-35.2856153" lon="148.9864279">
  <ele>702.36</ele>
  <time>2026-09-01T19:59:55Z</time>
  <course>108.42</course>
  <speed>21.3</speed>
  <fix>3d</fix>
</trkpt>
<trkpt lat="-35.2856251" lon="148.9864728">
  <ele>702.4</ele>
  <time>2026-09-01T19:59:55Z</time>
  <course>103.91</course>
  <speed>21.562931155109688</speed>
  <fix>3d</fix>
</trkpt>
<trkpt lat="-35.2856153" lon="148.9864279">
  <ele>702.36</ele>
  <time>2026-09-01T19:59:55Z</time>
  <course>108.42</course>
  <speed>21.3</speed>
  <fix>3d</fix>
</trkpt>
<trkpt lat="-35.2856289" lon="148.9864961">
  <ele>702.44</ele>
  <time>2026-09-01T19:59:55Z</time>
  <course>101.11</course>
  <speed>21.717504460687927</speed>
  <fix>3d</fix>
</trkpt>
<trkpt lat="-35.2856257" lon="148.9864734">
  <ele>702.45</ele>
  <time>2026-09-01T19:59:55Z</time>
  <course>102.81</course>
  <speed>21.6</speed>
  <fix>3d</fix>
</trkpt>
<trkpt lat="-35.2856319" lon="148.98652">
  <ele>702.48</ele>
  <time>2026-09-01T19:59:55Z</time>
  <course>98.34</course>
  <speed>21.861209939067876</speed>
  <fix>3d</fix>
</trkpt>
<trkpt lat="-35.2856257" lon="148.9864734">
  <ele>702.45</ele>
  <time>2026-09-01T19:59:55Z</time>
  <course>102.81</course>
  <speed>21.6</speed>
  <fix>3d</fix>
</trkpt>
<trkpt lat="-35.2856338" lon="148.986544">
  <ele>702.51</ele>
  <time>2026-09-01T19:59:55Z</time>
  <course>95.5</course>
  <speed>22.0067921333392</speed>
  <fix>3d</fix>
</trkpt>
<trkpt lat="-35.2856324" lon="148.9865205">
  <ele>702.53</ele>
  <time>2026-09-01T19:59:55Z</time>
  <course>97.15</course>
  <speed>21.89</speed>
  <fix>3d</fix>
</trkpt>
<trkpt lat="-35.2856348" lon="148.9865682">
  <ele>702.54</ele>
  <time>2026-09-01T19:59:55Z</time>
  <course>92.6</course>
  <speed>22.155419201631005</speed>
  <fix>3d</fix>
</trkpt>
<trkpt lat="-35.2856324" lon="148.9865205">
  <ele>702.53</ele>
  <time>2026-09-01T19:59:55Z</time>
  <course>97.15</course>
  <speed>21.89</speed>
  <fix>3d</fix>
</trkpt>
<trkpt lat="-35.2856348" lon="148.9865926">
  <ele>702.56</ele>
  <time>2026-09-01T19:59:55Z</time>
  <course>89.75</course>
  <speed>22.29834523008378</speed>
  <fix>3d</fix>
</trkpt>
<trkpt lat="-35.2856353" lon="148.9865689">
  <ele>702.58</ele>
  <time>2026-09-01T19:59:55Z</time>
  <course>91.45</course>
  <speed>22.19</speed>
  <fix>3d</fix>
</trkpt>
<trkpt lat="-35.2856339" lon="148.9866171">
  <ele>702.58</ele>
  <time>2026-09-01T19:59:55Z</time>
  <course>86.87</course>
  <speed>22.43756894139826</speed>
  <fix>3d</fix>
</trkpt>
<trkpt lat="-35.2856353" lon="148.9865689">
  <ele>702.58</ele>
  <time>2026-09-01T19:59:55Z</time>
  <course>91.45</course>
  <speed>22.19</speed>
  <fix>3d</fix>
</trkpt>
<trkpt lat="-35.2856319" lon="148.9866416">
  <ele>702.59</ele>
  <time>2026-09-01T19:59:55Z</time>
  <course>84.04</course>
  <speed>22.56582593214793</speed>
  <fix>3d</fix>
</trkpt>
<trkpt lat="-35.2856344" lon="148.9866182">
  <ele>702.62</ele>
  <time>2026-09-01T19:59:55Z</time>
  <course>85.69</course>
  <speed>22.47</speed>
  <fix>3d</fix>
</trkpt>
<trkpt lat="-35.2856289" lon="148.986666">
  <ele>702.59</ele>
  <time>2026-09-01T19:59:55Z</time>
  <course>81.21</course>
  <speed>22.700583692936178</speed>
  <fix>3d</fix>
</trkpt>
<trkpt lat="-35.2856344" lon="148.9866182">
  <ele>702.62</ele>
  <time>2026-09-01T19:59:55Z</time>
  <course>85.69</course>
  <speed>22.47</speed>
  <fix>3d</fix>
</trkpt>
<trkpt lat="-35.2856249" lon="148.9866903">
  <ele>702.59</ele>
  <time>2026-09-01T19:59:55Z</time>
  <course>78.31</course>
  <speed>22.8255405193393</speed>
  <fix>3d</fix>
</trkpt>
<trkpt lat="-35.2856294" lon="148.9866675">
  <ele>702.63</ele>
  <time>2026-09-01T19:59:55Z</time>
  <course>79.9</course>
  <speed>22.76</speed>
  <fix>3d</fix>
</trkpt>
<trkpt lat="-35.2856199" lon="148.9867146">
  <ele>702.59</ele>
  <time>2026-09-01T19:59:55Z</time>
  <course>75.41</course>
  <speed>22.959830138744493</speed>
  <fix>3d</fix>
</trkpt>
<trkpt lat="-35.2856294" lon="148.9866675">
  <ele>702.63</ele>
  <time>2026-09-01T19:59:55Z</time>
  <course>79.9</course>
  <speed>22.76</speed>
  <fix>3d</fix>
</trkpt>
<trkpt lat="-35.2856138" lon="148.9867386">
  <ele>702.58</ele>
  <time>2026-09-01T19:59:55Z</time>
  <course>72.53</course>
  <speed>23.085406645757836</speed>
  <fix>3d</fix>
</trkpt>
<trkpt lat="-35.2856201" lon="148.9867166">
  <ele>702.62</ele>
  <time>2026-09-01T19:59:55Z</time>
  <course>74.1</course>
  <speed>23.03</speed>
  <fix>3d</fix>
</trkpt>
<trkpt lat="-35.2856067" lon="148.9867623">
  <ele>702.57</ele>
  <time>2026-09-01T19:59:55Z</time>
  <course>69.6</course>
  <speed>23.213776082318017</speed>
  <fix>3d</fix>
</trkpt>
<trkpt lat="-35.2856201" lon="148.9867166">
  <ele>702.62</ele>
  <time>2026-09-01T19:59:55Z</time>
  <course>74.1</course>
  <speed>23.03</speed>
  <fix>3d</fix>
</trkpt>
<trkpt lat="-35.2855986" lon="148.9867857">
  <ele>702.55</ele>
  <time>2026-09-01T19:59:55Z</time>
  <course>66.7</course>
  <speed>23.342941117177155</speed>
  <fix>3d</fix>
</trkpt>
<trkpt lat="-35.2856067" lon="148.9867648">
  <ele>702.58</ele>
  <time>2026-09-01T19:59:55Z</time>
  <course>68.28</course>
  <speed>23.3</speed>
  <fix>3d</fix>
</trkpt>
<trkpt lat="-35.2855895" lon="148.9868088">
  <ele>702.52</ele>
  <time>2026-09-01T19:59:55Z</time>
  <course>63.81</course>
  <speed>23.4694737904368</speed>
  <fix>3d</fix>
</trkpt>
<trkpt lat="-35.2856067" lon="148.9867648">
  <ele>702.58</ele>
  <time>2026-09-01T19:59:55Z</time>
  <course>68.28</course>
  <speed>23.3</speed>
  <fix>3d</fix>
</trkpt>
<trkpt lat="-35.2855792" lon="148.9868315">
  <ele>702.5</ele>
  <time>2026-09-01T19:59:55Z</time>
  <course>60.9</course>
  <speed>23.59525799816565</speed>
  <fix>3d</fix>
</trkpt>
<trkpt lat="-35.2855891" lon="148.9868117">
  <ele>702.54</ele>
  <time>2026-09-01T19:59:55Z</time>
  <course>62.43</course>
  <speed>23.56</speed>
  <fix>3d</fix>
</trkpt>
<trkpt lat="-35.2855681" lon="148.9868536">
  <ele>702.46</ele>
  <time>2026-09-01T19:59:55Z</time>
  <course>58.07</course>
  <speed>23.71911676264527</speed>
  <fix>3d</fix>
</trkpt>
<trkpt lat="-35.2855891" lon="148.9868117">
  <ele>702.54</ele>
  <time>2026-09-01T19:59:55Z</time>
  <course>62.43</course>
  <speed>23.56</speed>
  <fix>3d</fix>
</trkpt>
<trkpt lat="-35.285556" lon="148.986875">
  <ele>702.43</ele>
  <time>2026-09-01T19:59:55Z</time>
  <course>55.24</course>
  <speed>23.83685591683601</speed>
  <fix>3d</fix>
</trkpt>
<trkpt lat="-35.2855675" lon="148.9868566">
  <ele>702.47</ele>
  <time>2026-09-01T19:59:55Z</time>
  <course>56.6</course>
  <speed>23.82</speed>
  <fix>3d</fix>
</trkpt>
<trkpt lat="-35.2855429" lon="148.986896">
  <ele>702.38</ele>
  <time>2026-09-01T19:59:55Z</time>
  <course>52.4</course>
  <speed>23.956796530421176</speed>
  <fix>3d</fix>
</trkpt>
<trkpt lat="-35.2855675" lon="148.9868566">
  <ele>702.47</ele>
  <time>2026-09-01T19:59:55Z</time>
  <course>56.6</course>
  <speed>23.82</speed>
  <fix>3d</fix>
</trkpt>
<trkpt lat="-35.285529" lon="148.986916">
  <ele>702.33</ele>
  <time>2026-09-01T19:59:55Z</time>
  <course>49.62</course>
  <speed>24.079794434338513</speed>
  <fix>3d</fix>
</trkpt>
<trkpt lat="-35.2855421" lon="148.986899">
  <ele>702.38</ele>
  <time>2026-09-01T19:59:55Z</time>
  <course>50.83</course>
  <speed>24.06</speed>
  <fix>3d</fix>
</trkpt>
<trkpt lat="-35.2855142" lon="148.9869354">
  <ele>702.28</ele>
  <time>2026-09-01T19:59:55Z</time>
  <course>46.89</course>
  <speed>24.190173624841968</speed>
  <fix>3d</fix>
</trkpt>
<trkpt lat="-35.2855421" lon="148.986899">
  <ele>702.38</ele>
  <time>2026-09-01T19:59:55Z</time>
  <course>50.83</course>
  <speed>24.06</speed>
  <fix>3d</fix>
</trkpt>
<trkpt lat="-35.2854985" lon="148.9869539">
  <ele>702.23</ele>
  <time>2026-09-01T19:59:55Z</time>
  <course>44.18</course>
  <speed>24.301656322152198</speed>
  <fix>3d</fix>
</trkpt>
<trkpt lat="-35.2855131" lon="148.9869385">
  <ele>702.28</ele>
  <time>2026-09-01T19:59:55Z</time>
  <course>45.16</course>
  <speed>24.28</speed>
  <fix>3d</fix>
</trkpt>
<trkpt lat="-35.2854821" lon="148.9869717">
  <ele>702.17</ele>
  <time>2026-09-01T19:59:55Z</time>
  <course>41.54</course>
  <speed>24.41034411883618</speed>
  <fix>3d</fix>
</trkpt>
<trkpt lat="-35.2855131" lon="148.9869385">
  <ele>702.28</ele>
  <time>2026-09-01T19:59:55Z</time>
  <course>45.16</course>
  <speed>24.28</speed>
  <fix>3d</fix>
</trkpt>
<trkpt lat="-35.2854647" lon="148.9869886">
  <ele>702.12</ele>
  <time>2026-09-01T19:59:55Z</time>
  <course>38.91</course>
  <speed>24.51602945013731</speed>
  <fix>3d</fix>
</trkpt>
<trkpt lat="-35.2854807" lon="148.9869747">
  <ele>702.17</ele>
  <time>2026-09-01T19:59:55Z</time>
  <course>39.67</course>
  <speed>24.5</speed>
  <fix>3d</fix>
</trkpt>
<trkpt lat="-35.2854469" lon="148.9870045">
  <ele>702.06</ele>
  <time>2026-09-01T19:59:55Z</time>
  <course>36.38</course>
  <speed>24.60545061566644</speed>
  <fix>3d</fix>
</trkpt>
<trkpt lat="-35.2854807" lon="148.9869747">
  <ele>702.17</ele>
  <time>2026-09-01T19:59:55Z</time>
  <course>39.67</course>
  <speed>24.5</speed>
  <fix>3d</fix>
</trkpt>
<trkpt lat="-35.2854284" lon="148.9870194">
  <ele>702.0</ele>
  <time>2026-09-01T19:59:55Z</time>
  <course>33.93</course>
  <speed>24.69698969510252</speed>
  <fix>3d</fix>
</trkpt>
<trkpt lat="-35.2854454" lon="148.9870072">
  <ele>702.04</ele>
  <time>2026-09-01T19:59:55Z</time>
  <course>34.41</course>
  <speed>24.69</speed>
  <fix>3d</fix>
</trkpt>
<trkpt lat="-35.2854094" lon="148.9870334">
  <ele>701.93</ele>
  <time>2026-09-01T19:59:55Z</time>
  <course>31.59</course>
  <speed>24.783805196135642</speed>
  <fix>3d</fix>
</trkpt>
<trkpt lat="-35.2854454" lon="148.9870072">
  <ele>702.04</ele>
  <time>2026-09-01T19:59:55Z</time>
  <course>34.41</course>
  <speed>24.69</speed>
  <fix>3d</fix>
</trkpt>
<trkpt lat="-35.2853898" lon="148.9870464">
  <ele>701.86</ele>
  <time>2026-09-01T19:59:55Z</time>
  <course>29.29</course>
  <speed>24.870436264770266</speed>
  <fix>3d</fix>
</trkpt>
<trkpt lat="-35.2854076" lon="148.9870361">
  <ele>701.9</ele>
  <time>2026-09-01T19:59:55Z</time>
  <course>29.42</course>
  <speed>24.87</speed>
  <fix>3d</fix>
</trkpt>
<trkpt lat="-35.2853696" lon="148.9870586">
  <ele>701.77</ele>
  <time>2026-09-01T19:59:55Z</time>
  <course>27.13</course>
  <speed>24.94862922086101</speed>
  <fix>3d</fix>
</trkpt>
<trkpt lat="-35.2854076" lon="148.9870361">
  <ele>701.9</ele>
  <time>2026-09-01T19:59:55Z</time>
  <course>29.42</course>
  <speed>24.87</speed>
  <fix>3d</fix>
</trkpt>
<trkpt lat="-35.285349" lon="148.9870698">
  <ele>701.69</ele>
  <time>2026-09-01T19:59:55Z</time>
  <course>25.1</course>
  <speed>25.03230912241218</speed>
  <fix>3d</fix>
</trkpt>
<trkpt lat="-35.2853676" lon="148.9870611">
  <ele>701.75</ele>
  <time>2026-09-01T19:59:55Z</time>
  <course>24.76</course>
  <speed>25.03</speed>
  <fix>3d</fix>
</trkpt>
<trkpt lat="-35.2853279" lon="148.9870802">
  <ele>701.6</ele>
  <time>2026-09-01T19:59:55Z</time>
  <course>23.13</course>
  <speed>25.115861522153686</speed>
  <fix>3d</fix>
</trkpt>
<trkpt lat="-35.2853676" lon="148.9870611">
  <ele>701.75</ele>
  <time>2026-09-01T19:59:55Z</time>
  <course>24.76</course>
  <speed>25.03</speed>
  <fix>3d</fix>
</trkpt>
<trkpt lat="-35.2853066" lon="148.9870896">
  <ele>701.51</ele>
  <time>2026-09-01T19:59:55Z</time>
  <course>21.26</course>
  <speed>25.181288688230392</speed>
  <fix>3d</fix>
</trkpt>
<trkpt lat="-35.285326" lon="148.9870823">
  <ele>701.57</ele>
  <time>2026-09-01T19:59:55Z</time>
  <course>20.5</course>
  <speed>25.18</speed>
  <fix>3d</fix>
</trkpt>
<trkpt lat="-35.2852849" lon="148.9870982">
  <ele>701.41</ele>
  <time>2026-09-01T19:59:55Z</time>
  <course>19.5</course>
  <speed>25.2559636521753</speed>
  <fix>3d</fix>
</trkpt>
<trkpt lat="-35.285326" lon="148.9870823">
  <ele>701.57</ele>
  <time>2026-09-01T19:59:55Z</time>
  <course>20.5</course>
  <speed>25.18</speed>
  <fix>3d</fix>
</trkpt>
<trkpt lat="-35.2852631" lon="148.9871059">
  <ele>701.3</ele>
  <time>2026-09-01T19:59:55Z</time>
  <course>17.82</course>
  <speed>25.309565385442717</speed>
  <fix>3d</fix>
</trkpt>
<trkpt lat="-35.285283" lon="148.9871">
  <ele>701.39</ele>
  <time>2026-09-01T19:59:55Z</time>
  <course>16.66</course>
  <speed>25.3</speed>
  <fix>3d</fix>
</trkpt>
<trkpt lat="-35.2852408" lon="148.9871129">
  <ele>701.19</ele>
  <time>2026-09-01T19:59:55Z</time>
  <course>15.94</course>
  <speed>25.383857074920666</speed>
  <fix>3d</fix>
</trkpt>
<trkpt lat="-35.285283" lon="148.9871">
  <ele>701.39</ele>
  <time>2026-09-01T19:59:55Z</time>
  <course>16.66</course>
  <speed>25.3</speed>
  <fix>3d</fix>
</trkpt>
<trkpt lat="-35.2852184" lon="148.987119">
  <ele>701.08</ele>
  <time>2026-09-01T19:59:55Z</time>
  <course>14.19</course>
  <speed>25.43051906666476</speed>
  <fix>3d</fix>
</trkpt>
<trkpt lat="-35.285239" lon="148.9871143">
  <ele>701.19</ele>
  <time>2026-09-01T19:59:55Z</time>
  <course>13.1</course>
  <speed>25.41</speed>
  <fix>3d</fix>
</trkpt>
<trkpt lat="-35.2851959" lon="148.9871243">
  <ele>700.98</ele>
  <time>2026-09-01T19:59:56Z</time>
  <course>12.72</course>
  <speed>25.476351779640662</speed>
  <fix>3d</fix>
</trkpt>
<trkpt lat="-35.285239" lon="148.9871143">
  <ele>701.19</ele>
  <time>2026-09-01T19:59:56Z</time>
  <course>13.1</course>
  <speed>25.41</speed>
  <fix>3d</fix>
</trkpt>
<trkpt lat="-35.2851733" lon="148.9871289">
  <ele>700.88</ele>
  <time>2026-09-01T19:59:56Z</time>
  <course>11.44</course>
  <speed>25.523567540608425</speed>
  <fix>3d</fix>
</trkpt>
<trkpt lat="-35.2851942" lon="148.9871254">
  <ele>700.99</ele>
  <time>2026-09-01T19:59:56Z</time>
  <course>9.94</course>
  <speed>25.51</speed>
  <fix>3d</fix>
</trkpt>
<trkpt lat="-35.2851506" lon="148.987133">
  <ele>700.78</ele>
  <time>2026-09-01T19:59:56Z</time>
  <course>10.28</course>
  <speed>25.563108183474093</speed>
  <fix>3d</fix>
</trkpt>
<trkpt lat="-35.2851942" lon="148.9871254">
  <ele>700.99</ele>
  <time>2026-09-01T19:59:56Z</time>
  <course>9.94</course>
  <speed>25.51</speed>
  <fix>3d</fix>
</trkpt>
<trkpt lat="-35.2851277" lon="148.9871365">
  <ele>700.66</ele>
  <time>2026-09-01T19:59:56Z</time>
  <course>9.14</course>
  <speed>25.598238220627604</speed>
  <fix>3d</fix>
</trkpt>
<trkpt lat="-35.2851488" lon="148.9871339">
  <ele>700.78</ele>
  <time>2026-09-01T19:59:56Z</time>
  <course>7.45</course>
  <speed>25.59</speed>
  <fix>3d</fix>
</trkpt>
<trkpt lat="-35.2851049" lon="148.9871396">
  <ele>700.54</ele>
  <time>2026-09-01T19:59:56Z</time>
  <course>8.15</course>
  <speed>25.644118234012257</speed>
  <fix>3d</fix>
</trkpt>
<trkpt lat="-35.2851488" lon="148.9871339">
  <ele>700.78</ele>
  <time>2026-09-01T19:59:56Z</time>
  <course>7.45</course>
  <speed>25.59</speed>
  <fix>3d</fix>
</trkpt>
<trkpt lat="-35.2850819" lon="148.9871422">
  <ele>700.4</ele>
  <time>2026-09-01T19:59:56Z</time>
  <course>7.17</course>
  <speed>25.689289597028566</speed>
  <fix>3d</fix>
</trkpt>
<trkpt lat="-35.285103" lon="148.9871402">
  <ele>700.55</ele>
  <time>2026-09-01T19:59:56Z</time>
  <course>5.47</course>
  <speed>25.67</speed>
  <fix>3d</fix>
</trkpt>
<trkpt lat="-35.2850589" lon="148.9871443">
  <ele>700.25</ele>
  <time>2026-09-01T19:59:56Z</time>
  <course>6.25</course>
  <speed>25.730950235076822</speed>
  <fix>3d</fix>
</trkpt>
<trkpt lat="-35.285103" lon="148.9871402">
  <ele>700.55</ele>
  <time>2026-09-01T19:59:56Z</time>
  <course>5.47</course>
  <speed>25.67</speed>
  <fix>3d</fix>
</trkpt>
<trkpt lat="-35.2850359" lon="148.9871461">
  <ele>700.1</ele>
  <time>2026-09-01T19:59:56Z</time>
  <course>5.4</course>
  <speed>25.77913885295628</speed>
  <fix>3d</fix>
</trkpt>
<trkpt lat="-35.285057" lon="148.9871447">
  <ele>700.26</ele>
  <time>2026-09-01T19:59:56Z</time>
  <course>3.75</course>
  <speed>25.76</speed>
  <fix>3d</fix>
</trkpt>
<trkpt lat="-35.2850125" lon="148.9871475">
  <ele>699.93</ele>
  <time>2026-09-01T19:59:56Z</time>
  <course>4.58</course>
  <speed>25.84299711720759</speed>
  <fix>3d</fix>
</trkpt>
<trkpt lat="-35.285057" lon="148.9871447">
  <ele>700.26</ele>
  <time>2026-09-01T19:59:56Z</time>
  <course>3.75</course>
  <speed>25.76</speed>
  <fix>3d</fix>
</trkpt>
<trkpt lat="-35.2849893" lon="148.9871486">
  <ele>699.75</ele>
  <time>2026-09-01T19:59:56Z</time>
  <course>3.76</course>
  <speed>25.90205011191199</speed>
  <fix>3d</fix>
</trkpt>
<trkpt lat="-35.2850107" lon="148.9871476">
  <ele>699.94</ele>
  <time>2026-09-01T19:59:56Z</time>
  <course>2.23</course>
  <speed>25.87</speed>
  <fix>3d</fix>
</trkpt>
<trkpt lat="-35.2849659" lon="148.9871493">
  <ele>699.57</ele>
  <time>2026-09-01T19:59:56Z</time>
  <course>2.97</course>
  <speed>25.9748128000954</speed>
  <fix>3d</fix>
</trkpt>
<trkpt lat="-35.2850107" lon="148.9871476">
  <ele>699.94</ele>
  <time>2026-09-01T19:59:56Z</time>
  <course>2.23</course>
  <speed>25.87</speed>
  <fix>3d</fix>
</trkpt>
<trkpt lat="-35.2849425" lon="148.9871496">
  <ele>699.38</ele>
  <time>2026-09-01T19:59:56Z</time>
  <course>2.22</course>
  <speed>26.05092896616165</speed>
  <fix>3d</fix>
</trkpt>
<trkpt lat="-35.284964" lon="148.9871492">
  <ele>699.58</ele>
  <time>2026-09-01T19:59:56Z</time>
  <course>0.9</course>
  <speed>25.99</speed>
  <fix>3d</fix>
</trkpt>
<trkpt lat="-35.2849192" lon="148.9871497">
  <ele>699.19</ele>
  <time>2026-09-01T19:59:56Z</time>
  <course>1.54</course>
  <speed>26.12001722817196</speed>
  <fix>3d</fix>
</trkpt>
<trkpt lat="-35.284964" lon="148.9871492">
  <ele>699.58</ele>
  <time>2026-09-01T19:59:56Z</time>
  <course>0.9</course>
  <speed>25.99</speed>
  <fix>3d</fix>
</trkpt>
<trkpt lat="-35.2848957" lon="148.9871495">
  <ele>699.0</ele>
  <time>2026-09-01T19:59:56Z</time>
  <course>0.89</course>
  <speed>26.181497283386985</speed>
  <fix>3d</fix>
</trkpt>
<trkpt lat="-35.2849171" lon="148.9871496">
  <ele>699.21</ele>
  <time>2026-09-01T19:59:56Z</time>
  <course>359.71</course>
  <speed>26.13</speed>
  <fix>3d</fix>
</trkpt>
<trkpt lat="-35.2848723" lon="148.9871491">
  <ele>698.8</ele>
  <time>2026-09-01T19:59:56Z</time>
  <course>0.26</course>
  <speed>26.214961377045743</speed>
  <fix>3d</fix>
</trkpt>
<trkpt lat="-35.2849171" lon="148.9871496">
  <ele>699.21</ele>
  <time>2026-09-01T19:59:56Z</time>
  <course>359.71</course>
  <speed>26.13</speed>
  <fix>3d</fix>
</trkpt>
<trkpt lat="-35.2848489" lon="148.9871484">
  <ele>698.62</ele>
  <time>2026-09-01T19:59:56Z</time>
  <course>359.69</course>
  <speed>26.209891262651205</speed>
  <fix>3d</fix>
</trkpt>
<trkpt lat="-35.2848701" lon="148.9871488">
  <ele>698.83</ele>
  <time>2026-09-01T19:59:56Z</time>
  <course>358.67</course>
  <speed>26.21</speed>
  <fix>3d</fix>
</trkpt>
<trkpt lat="-35.2848255" lon="148.9871475">
  <ele>698.43</ele>
  <time>2026-09-01T19:59:56Z</time>
  <course>359.15</course>
  <speed>26.146544704797993</speed>
  <fix>3d</fix>
</trkpt>
<trkpt lat="-35.2848701" lon="148.9871488">
  <ele>698.83</ele>
  <time>2026-09-01T19:59:56Z</time>
  <course>358.67</course>
  <speed>26.21</speed>
  <fix>3d</fix>
</trkpt>
<trkpt lat="-35.2848022" lon="148.9871463">
  <ele>698.26</ele>
  <time>2026-09-01T19:59:56Z</time>
  <course>358.66</course>
  <speed>26.05365617336653</speed>
  <fix>3d</fix>
</trkpt>
<trkpt lat="-35.284823" lon="148.987147">
  <ele>698.46</ele>
  <time>2026-09-01T19:59:56Z</time>
  <course>357.76</course>
  <speed>26.16</speed>
  <fix>3d</fix>
</trkpt>
<trkpt lat="-35.284779" lon="148.9871449">
  <ele>698.09</ele>
  <time>2026-09-01T19:59:56Z</time>
  <course>358.26</course>
  <speed>25.96108241194885</speed>
  <fix>3d</fix>
</trkpt>
<trkpt lat="-35.284823" lon="148.987147">
  <ele>698.46</ele>
  <time>2026-09-01T19:59:56Z</time>
  <course>357.76</course>
  <speed>26.16</speed>
  <fix>3d</fix>
</trkpt>
<trkpt lat="-35.2847558" lon="148.9871434">
  <ele>697.92</ele>
  <time>2026-09-01T19:59:56Z</time>
  <course>357.91</course>
  <speed>25.887883266115058</speed>
  <fix>3d</fix>
</trkpt>
<trkpt lat="-35.2847763" lon="148.9871443">
  <ele>698.1</ele>
  <time>2026-09-01T19:59:56Z</time>
  <course>357.0</course>
  <speed>26.01</speed>
  <fix>3d</fix>
</trkpt>
<trkpt lat="-35.2847327" lon="148.9871418">
  <ele>697.74</ele>
  <time>2026-09-01T19:59:56Z</time>
  <course>357.55</course>
  <speed>25.81478839735085</speed>
  <fix>3d</fix>
</trkpt>
<trkpt lat="-35.2847763" lon="148.9871443">
  <ele>698.1</ele>
  <time>2026-09-01T19:59:56Z</time>
  <course>357.0</course>
  <speed>26.01</speed>
  <fix>3d</fix>
</trkpt>
<trkpt lat="-35.2847097" lon="148.98714">
  <ele>697.56</ele>
  <time>2026-09-01T19:59:56Z</time>
  <course>357.23</course>
  <speed>25.771598708656008</speed>
  <fix>3d</fix>
</trkpt>
<trkpt lat="-35.2847297" lon="148.987141">
  <ele>697.75</ele>
  <time>2026-09-01T19:59:56Z</time>
  <course>356.41</course>
  <speed>25.88</speed>
  <fix>3d</fix>
</trkpt>
<trkpt lat="-35.2846865" lon="148.9871381">
  <ele>697.37</ele>
  <time>2026-09-01T19:59:56Z</time>
  <course>356.96</course>
  <speed>25.727559153561383</speed>
  <fix>3d</fix>
</trkpt>
<trkpt lat="-35.2847297" lon="148.987141">
  <ele>697.75</ele>
  <time>2026-09-01T19:59:56Z</time>
  <course>356.41</course>
  <speed>25.88</speed>
  <fix>3d</fix>
</trkpt>
<trkpt lat="-35.2846634" lon="148.9871361">
  <ele>697.17</ele>
  <time>2026-09-01T19:59:56Z</time>
  <course>356.67</course>
  <speed>25.713080328890975</speed>
  <fix>3d</fix>
</trkpt>
<trkpt lat="-35.2846835" lon="148.9871373">
  <ele>697.38</ele>
  <time>2026-09-01T19:59:56Z</time>
  <course>355.96</course>
  <speed>25.79</speed>
  <fix>3d</fix>
</trkpt>
<trkpt lat="-35.2846402" lon="148.9871339">
  <ele>696.95</ele>
  <time>2026-09-01T19:59:56Z</time>
  <course>356.43</course>
  <speed>25.70883116751907</speed>
  <fix>3d</fix>
</trkpt>
<trkpt lat="-35.2846835" lon="148.9871373">
  <ele>697.38</ele>
  <time>2026-09-01T19:59:56Z</time>
  <course>355.96</course>
  <speed>25.79</speed>
  <fix>3d</fix>
</trkpt>
<trkpt lat="-35.2846171" lon="148.9871318">
  <ele>696.73</ele>
  <time>2026-09-01T19:59:56Z</time>
  <course>356.23</course>
  <speed>25.714044800458755</speed>
  <fix>3d</fix>
</trkpt>
<trkpt lat="-35.2846373" lon="148.9871331">
  <ele>696.98</ele>
  <time>2026-09-01T19:59:56Z</time>
  <course>355.61</course>
  <speed>25.74</speed>
  <fix>3d</fix>
</trkpt>
<trkpt lat="-35.2845939" lon="148.9871295">
  <ele>696.5</ele>
  <time>2026-09-01T19:59:56Z</time>
  <course>356.06</course>
  <speed>25.729417016325883</speed>
  <fix>3d</fix>
</trkpt>
<trkpt lat="-35.2846373" lon="148.9871331">
  <ele>696.98</ele>
  <time>2026-09-01T19:59:56Z</time>
  <course>355.61</course>
  <speed>25.74</speed>
  <fix>3d</fix>
</trkpt>
<trkpt lat="-35.2845707" lon="148.9871272">
  <ele>696.28</ele>
  <time>2026-09-01T19:59:56Z</time>
  <course>355.88</course>
  <speed>25.764099052751682</speed>
  <fix>3d</fix>
</trkpt>
<trkpt lat="-35.2845912" lon="148.9871286">
  <ele>696.55</ele>
  <time>2026-09-01T19:59:56Z</time>
  <course>355.33</course>
  <speed>25.75</speed>
  <fix>3d</fix>
</trkpt>
<trkpt lat="-35.2845477" lon="148.9871248">
  <ele>696.05</ele>
  <time>2026-09-01T19:59:56Z</time>
  <course>355.73</course>
  <speed>25.798081324005476</speed>
  <fix>3d</fix>
</trkpt>
<trkpt lat="-35.2845912" lon="148.9871286">
  <ele>696.55</ele>
  <time>2026-09-01T19:59:56Z</time>
  <course>355.33</course>
  <speed>25.75</speed>
  <fix>3d</fix>
</trkpt>
<trkpt lat="-35.2845245" lon="148.9871223">
  <ele>695.83</ele>
  <time>2026-09-01T19:59:56Z</time>
  <course>355.64</course>
  <speed>25.851237881385874</speed>
  <fix>3d</fix>
</trkpt>
<trkpt lat="-35.284545" lon="148.9871239">
  <ele>696.11</ele>
  <time>2026-09-01T19:59:56Z</time>
  <course>355.12</course>
  <speed>25.8</speed>
  <fix>3d</fix>
</trkpt>
<trkpt lat="-35.2845012" lon="148.9871198">
  <ele>695.61</ele>
  <time>2026-09-01T19:59:56Z</time>
  <course>355.53</course>
  <speed>25.90444363424932</speed>
  <fix>3d</fix>
</trkpt>
<trkpt lat="-35.284545" lon="148.9871239">
  <ele>696.11</ele>
  <time>2026-09-01T19:59:56Z</time>
  <course>355.12</course>
  <speed>25.8</speed>
  <fix>3d</fix>
</trkpt>
<trkpt lat="-35.2844778" lon="148.9871173">
  <ele>695.41</ele>
  <time>2026-09-01T19:59:56Z</time>
  <course>355.38</course>
  <speed>25.957698280086394</speed>
  <fix>3d</fix>
</trkpt>
<trkpt lat="-35.284545" lon="148.9871239">
  <ele>696.11</ele>
  <time>2026-09-01T19:59:56Z</time>
  <course>355.12</course>
  <speed>25.8</speed>
  <fix>3d</fix>
</trkpt>
<trkpt lat="-35.2844547" lon="148.9871148">
  <ele>695.22</ele>
  <time>2026-09-01T19:59:56Z</time>
  <course>355.28</course>
  <speed>26.020084550208516</speed>
  <fix>3d</fix>
</trkpt>
<trkpt lat="-35.2844987" lon="148.987119">
  <ele>695.69</ele>
  <time>2026-09-01T19:59:56Z</time>
  <course>354.98</course>
  <speed>25.89</speed>
  <fix>3d</fix>
</trkpt>
<trkpt lat="-35.2844313" lon="148.9871122">
  <ele>695.04</ele>
  <time>2026-09-01T19:59:56Z</time>
  <course>355.25</course>
  <speed>26.07164935327261</speed>
  <fix>3d</fix>
</trkpt>
<trkpt lat="-35.2844987" lon="148.987119">
  <ele>695.69</ele>
  <time>2026-09-01T19:59:56Z</time>
  <course>354.98</course>
  <speed>25.89</speed>
  <fix>3d</fix>
</trkpt>
<trkpt lat="-35.2844081" lon="148.9871096">
  <ele>694.87</ele>
  <time>2026-09-01T19:59:56Z</time>
  <course>355.18</course>
  <speed>26.113262913699618</speed>
  <fix>3d</fix>
</trkpt>
<trkpt lat="-35.2844522" lon="148.9871139">
  <ele>695.31</ele>
  <time>2026-09-01T19:59:56Z</time>
  <course>354.88</course>
  <speed>26.0</speed>
  <fix>3d</fix>
</trkpt>
<trkpt lat="-35.2843849" lon="148.987107">
  <ele>694.72</ele>
  <time>2026-09-01T19:59:56Z</time>
  <course>355.11</course>
  <speed>26.173914495161014</speed>
  <fix>3d</fix>
</trkpt>
<trkpt lat="-35.2844056" lon="148.9871087">
  <ele>694.97</ele>
  <time>2026-09-01T19:59:56Z</time>
  <course>354.83</course>
  <speed>26.11</speed>
  <fix>3d</fix>
</trkpt>
<trkpt lat="-35.2843615" lon="148.9871043">
  <ele>694.58</ele>
  <time>2026-09-01T19:59:56Z</time>
  <course>355.06</course>
  <speed>26.23546073542449</speed>
  <fix>3d</fix>
</trkpt>
<trkpt lat="-35.2844056" lon="148.9871087">
  <ele>694.97</ele>
  <time>2026-09-01T19:59:56Z</time>
  <course>354.83</course>
  <speed>26.11</speed>
  <fix>3d</fix>
</trkpt>
<trkpt lat="-35.284338" lon="148.9871017">
  <ele>694.46</ele>
  <time>2026-09-01T19:59:56Z</time>
  <course>355.02</course>
  <speed>26.286156052188385</speed>
  <fix>3d</fix>
</trkpt>
<trkpt lat="-35.2843588" lon="148.9871036">
  <ele>694.69</ele>
  <time>2026-09-01T19:59:56Z</time>
  <course>354.8</course>
  <speed>26.24</speed>
  <fix>3d</fix>
</trkpt>
<trkpt lat="-35.2843145" lon="148.987099">
  <ele>694.35</ele>
  <time>2026-09-01T19:59:56Z</time>
  <course>355.08</course>
  <speed>26.34681195135381</speed>
  <fix>3d</fix>
</trkpt>
<trkpt lat="-35.2843588" lon="148.9871036">
  <ele>694.69</ele>
  <time>2026-09-01T19:59:56Z</time>
  <course>354.8</course>
  <speed>26.24</speed>
  <fix>3d</fix>
</trkpt>
<trkpt lat="-35.2842909" lon="148.9870964">
  <ele>694.25</ele>
  <time>2026-09-01T19:59:56Z</time>
  <course>355.07</course>
  <speed>26.397509352209727</speed>
  <fix>3d</fix>
</trkpt>
<trkpt lat="-35.2843118" lon="148.9870983">
  <ele>694.45</ele>
  <time>2026-09-01T19:59:56Z</time>
  <course>354.8</course>
  <speed>26.35</speed>
  <fix>3d</fix>
</trkpt>
<trkpt lat="-35.2842671" lon="148.9870937">
  <ele>694.17</ele>
  <time>2026-09-01T19:59:56Z</time>
  <course>355.05</course>
  <speed>26.467225015101224</speed>
  <fix>3d</fix>
</trkpt>
<trkpt lat="-35.2843118" lon="148.9870983">
  <ele>694.45</ele>
  <time>2026-09-01T19:59:56Z</time>
  <course>354.8</course>
  <speed>26.35</speed>
  <fix>3d</fix>
</trkpt>
<trkpt lat="-35.2842433" lon="148.9870911">
  <ele>694.09</ele>
  <time>2026-09-01T19:59:56Z</time>
  <course>354.98</course>
  <speed>26.516127168197094</speed>
  <fix>3d</fix>
</trkpt>
<trkpt lat="-35.2842645" lon="148.987093">
  <ele>694.28</ele>
  <time>2026-09-01T19:59:56Z</time>
  <course>354.83</course>
  <speed>26.45</speed>
  <fix>3d</fix>
</trkpt>
<trkpt lat="-35.2842195" lon="148.9870884">
  <ele>694.04</ele>
  <time>2026-09-01T19:59:56Z</time>
  <course>354.96</course>
  <speed>26.565927425934145</speed>
  <fix>3d</fix>
</trkpt>
<trkpt lat="-35.2842645" lon="148.987093">
  <ele>694.28</ele>
  <time>2026-09-01T19:59:56Z</time>
  <course>354.83</course>
  <speed>26.45</speed>
  <fix>3d</fix>
</trkpt>
<trkpt lat="-35.2841957" lon="148.9870857">
  <ele>693.99</ele>
  <time>2026-09-01T19:59:56Z</time>
  <course>354.97</course>
  <speed>26.605768171582646</speed>
  <fix>3d</fix>
</trkpt>
<trkpt lat="-35.2842171" lon="148.9870879">
  <ele>694.16</ele>
  <time>2026-09-01T19:59:56Z</time>
  <course>354.87</course>
  <speed>26.54</speed>
  <fix>3d</fix>
</trkpt>
<trkpt lat="-35.2841719" lon="148.9870831">
  <ele>693.96</ele>
  <time>2026-09-01T19:59:56Z</time>
  <course>355.04</course>
  <speed>26.64560939441994</speed>
  <fix>3d</fix>
</trkpt>
<trkpt lat="-35.2842171" lon="148.9870879">
  <ele>694.16</ele>
  <time>2026-09-01T19:59:56Z</time>
  <course>354.87</course>
  <speed>26.54</speed>
  <fix>3d</fix>
</trkpt>
<trkpt lat="-35.284148" lon="148.9870805">
  <ele>693.94</ele>
  <time>2026-09-01T19:59:56Z</time>
  <course>355.07</course>
  <speed>26.675490623416845</speed>
  <fix>3d</fix>
</trkpt>
<trkpt lat="-35.2841696" lon="148.9870826">
  <ele>694.08</ele>
  <time>2026-09-01T19:59:56Z</time>
  <course>354.92</course>
  <speed>26.62</speed>
  <fix>3d</fix>
</trkpt>
<trkpt lat="-35.2841241" lon="148.9870778">
  <ele>693.93</ele>
  <time>2026-09-01T19:59:56Z</time>
  <course>355.07</course>
  <speed>26.70448651444173</speed>
  <fix>3d</fix>
</trkpt>
<trkpt lat="-35.2841696" lon="148.9870826">
  <ele>694.08</ele>
  <time>2026-09-01T19:59:56Z</time>
  <course>354.92</course>
  <speed>26.62</speed>
  <fix>3d</fix>
</trkpt>
<trkpt lat="-35.2841002" lon="148.9870752">
  <ele>693.92</ele>
  <time>2026-09-01T19:59:56Z</time>
  <course>355.1</course>
  <speed>26.733488361977752</speed>
  <fix>3d</fix>
</trkpt>
<trkpt lat="-35.2841219" lon="148.9870775">
  <ele>694.06</ele>
  <time>2026-09-01T19:59:56Z</time>
  <course>354.97</course>
  <speed>26.68</speed>
  <fix>3d</fix>
</trkpt>
<trkpt lat="-35.2840763" lon="148.9870727">
  <ele>693.92</ele>
  <time>2026-09-01T19:59:56Z</time>
  <course>355.14</course>
  <speed>26.752534459374125</speed>
  <fix>3d</fix>
</trkpt>
<trkpt lat="-35.2841219" lon="148.9870775">
  <ele>694.06</ele>
  <time>2026-09-01T19:59:56Z</time>
  <course>354.97</course>
  <speed>26.68</speed>
  <fix>3d</fix>
</trkpt>
<trkpt lat="-35.2840526" lon="148.9870701">
  <ele>693.93</ele>
  <time>2026-09-01T19:59:56Z</time>
  <course>355.23</course>
  <speed>26.7707172111619</speed>
  <fix>3d</fix>
</trkpt>
<trkpt lat="-35.2840741" lon="148.9870724">
  <ele>694.06</ele>
  <time>2026-09-01T19:59:56Z</time>
  <course>355.04</course>
  <speed>26.72</speed>
  <fix>3d</fix>
</trkpt>
<trkpt lat="-35.2840285" lon="148.9870675">
  <ele>693.95</ele>
  <time>2026-09-01T19:59:56Z</time>
  <course>355.21</course>
  <speed>26.79974067038709</speed>
  <fix>3d</fix>
</trkpt>
<trkpt lat="-35.2840741" lon="148.9870724">
  <ele>694.06</ele>
  <time>2026-09-01T19:59:56Z</time>
  <course>355.04</course>
  <speed>26.72</speed>
  <fix>3d</fix>
</trkpt>
<trkpt lat="-35.2840044" lon="148.987065">
  <ele>693.97</ele>
  <time>2026-09-01T19:59:56Z</time>
  <course>355.21</course>
  <speed>26.81880683401109</speed>
  <fix>3d</fix>
</trkpt>
<trkpt lat="-35.2840262" lon="148.9870674">
  <ele>694.08</ele>
  <time>2026-09-01T19:59:56Z</time>
  <course>355.12</course>
  <speed>26.76</speed>
  <fix>3d</fix>
</trkpt>
<trkpt lat="-35.2839802" lon="148.9870625">
  <ele>694.0</ele>
  <time>2026-09-01T19:59:56Z</time>
  <course>355.27</course>
  <speed>26.847841626469716</speed>
  <fix>3d</fix>
</trkpt>
<trkpt lat="-35.2840262" lon="148.9870674">
  <ele>694.08</ele>
  <time>2026-09-01T19:59:56Z</time>
  <course>355.12</course>
  <speed>26.76</speed>
  <fix>3d</fix>
</trkpt>
<trkpt lat="-35.2839559" lon="148.9870599">
  <ele>694.03</ele>
  <time>2026-09-01T19:59:56Z</time>
  <course>355.32</course>
  <speed>26.856954406633676</speed>
  <fix>3d</fix>
</trkpt>
<trkpt lat="-35.2840262" lon="148.9870674">
  <ele>694.08</ele>
  <time>2026-09-01T19:59:56Z</time>
  <course>355.12</course>
  <speed>26.76</speed>
  <fix>3d</fix>
</trkpt>
<trkpt lat="-35.2839319" lon="148.9870575">
  <ele>694.08</ele>
  <time>2026-09-01T19:59:56Z</time>
  <course>355.37</course>
  <speed>26.86522845612894</speed>
  <fix>3d</fix>
</trkpt>
<trkpt lat="-35.2839782" lon="148.9870624">
  <ele>694.14</ele>
  <time>2026-09-01T19:59:56Z</time>
  <course>355.18</course>
  <speed>26.78</speed>
  <fix>3d</fix>
</trkpt>
<trkpt lat="-35.283908" lon="148.987055">
  <ele>694.13</ele>
  <time>2026-09-01T19:59:56Z</time>
  <course>355.39</course>
  <speed>26.863553376275448</speed>
  <fix>3d</fix>
</trkpt>
<trkpt lat="-35.2839782" lon="148.9870624">
  <ele>694.14</ele>
  <time>2026-09-01T19:59:56Z</time>
  <course>355.18</course>
  <speed>26.78</speed>
  <fix>3d</fix>
</trkpt>
<trkpt lat="-35.2838834" lon="148.9870525">
  <ele>694.18</ele>
  <time>2026-09-01T19:59:56Z</time>
  <course>355.4</course>
  <speed>26.85192730513026</speed>
  <fix>3d</fix>
</trkpt>
<trkpt lat="-35.2839302" lon="148.9870574">
  <ele>694.21</ele>
  <time>2026-09-01T19:59:56Z</time>
  <course>355.26</course>
  <speed>26.8</speed>
  <fix>3d</fix>
</trkpt>
<trkpt lat="-35.2838595" lon="148.9870501">
  <ele>694.23</ele>
  <time>2026-09-01T19:59:56Z</time>
  <course>355.43</course>
  <speed>26.841136339581453</speed>
  <fix>3d</fix>
</trkpt>
<trkpt lat="-35.2839302" lon="148.9870574">
  <ele>694.21</ele>
  <time>2026-09-01T19:59:56Z</time>
  <course>355.26</course>
  <speed>26.8</speed>
  <fix>3d</fix>
</trkpt>
<trkpt lat="-35.283836" lon="148.9870478">
  <ele>694.28</ele>
  <time>2026-09-01T19:59:56Z</time>
  <course>355.46</course>
  <speed>26.829530372334137</speed>
  <fix>3d</fix>
</trkpt>
<trkpt lat="-35.2838821" lon="148.9870526">
  <ele>694.31</ele>
  <time>2026-09-01T19:59:56Z</time>
  <course>355.34</course>
  <speed>26.8</speed>
  <fix>3d</fix>
</trkpt>
<trkpt lat="-35.2838122" lon="148.9870454">
  <ele>694.33</ele>
  <time>2026-09-01T19:59:56Z</time>
  <course>355.59</course>
  <speed>26.81793802662688</speed>
  <fix>3d</fix>
</trkpt>
<trkpt lat="-35.2838821" lon="148.9870526">
  <ele>694.31</ele>
  <time>2026-09-01T19:59:56Z</time>
  <course>355.34</course>
  <speed>26.8</speed>
  <fix>3d</fix>
</trkpt>
<trkpt lat="-35.2837885" lon="148.9870431">
  <ele>694.39</ele>
  <time>2026-09-01T19:59:56Z</time>
  <course>355.63</course>
  <speed>26.80635932013148</speed>
  <fix>3d</fix>
</trkpt>
<trkpt lat="-35.2838342" lon="148.9870478">
  <ele>694.41</ele>
  <time>2026-09-01T19:59:56Z</time>
  <course>355.41</course>
  <speed>26.8</speed>
  <fix>3d</fix>
</trkpt>
<trkpt lat="-35.2837647" lon="148.9870408">
  <ele>694.45</ele>
  <time>2026-09-01T19:59:56Z</time>
  <course>355.65</course>
  <speed>26.78562300936829</speed>
  <fix>3d</fix>
</trkpt>
<trkpt lat="-35.2838342" lon="148.9870478">
  <ele>694.41</ele>
  <time>2026-09-01T19:59:56Z</time>
  <course>355.41</course>
  <speed>26.8</speed>
  <fix>3d</fix>
</trkpt>
<trkpt lat="-35.2837413" lon="148.9870385">
  <ele>694.51</ele>
  <time>2026-09-01T19:59:56Z</time>
  <course>355.66</course>
  <speed>26.77406394255456</speed>
  <fix>3d</fix>
</trkpt>
<trkpt lat="-35.2837863" lon="148.9870431">
  <ele>694.51</ele>
  <time>2026-09-01T19:59:56Z</time>
  <course>355.49</course>
  <speed>26.79</speed>
  <fix>3d</fix>
</trkpt>
<trkpt lat="-35.2837175" lon="148.9870362">
  <ele>694.57</ele>
  <time>2026-09-01T19:59:56Z</time>
  <course>355.73</course>
  <speed>26.76251856608417</speed>
  <fix>3d</fix>
</trkpt>
<trkpt lat="-35.2837382" lon="148.9870386">
  <ele>694.63</ele>
  <time>2026-09-01T19:59:56Z</time>
  <course>355.57</course>
  <speed>26.78</speed>
  <fix>3d</fix>
</trkpt>
<trkpt lat="-35.2836937" lon="148.987034">
  <ele>694.63</ele>
  <time>2026-09-01T19:59:56Z</time>
  <course>355.76</course>
  <speed>26.75098689768286</speed>
  <fix>3d</fix>
</trkpt>
<trkpt lat="-35.2837382" lon="148.9870386">
  <ele>694.63</ele>
  <time>2026-09-01T19:59:56Z</time>
  <course>355.57</course>
  <speed>26.78</speed>
  <fix>3d</fix>
</trkpt>
<trkpt lat="-35.2836698" lon="148.9870318">
  <ele>694.69</ele>
  <time>2026-09-01T19:59:56Z</time>
  <course>355.76</course>
  <speed>26.750211214119414</speed>
  <fix>3d</fix>
</trkpt>
<trkpt lat="-35.2836903" lon="148.9870341">
  <ele>694.74</ele>
  <time>2026-09-01T19:59:56Z</time>
  <course>355.65</course>
  <speed>26.77</speed>
  <fix>3d</fix>
</trkpt>
<trkpt lat="-35.2836458" lon="148.9870295">
  <ele>694.75</ele>
  <time>2026-09-01T19:59:56Z</time>
  <course>355.74</course>
  <speed>26.738700417185573</speed>
  <fix>3d</fix>
</trkpt>
<trkpt lat="-35.2836903" lon="148.9870341">
  <ele>694.74</ele>
  <time>2026-09-01T19:59:56Z</time>
  <course>355.65</course>
  <speed>26.77</speed>
  <fix>3d</fix>
</trkpt>
<trkpt lat="-35.2836218" lon="148.9870273">
  <ele>694.82</ele>
  <time>2026-09-01T19:59:56Z</time>
  <course>355.83</course>
  <speed>26.72796475603782</speed>
  <fix>3d</fix>
</trkpt>
<trkpt lat="-35.2836424" lon="148.9870297">
  <ele>694.86</ele>
  <time>2026-09-01T19:59:56Z</time>
  <course>355.71</course>
  <speed>26.75</speed>
  <fix>3d</fix>
</trkpt>
<trkpt lat="-35.2835979" lon="148.9870251">
  <ele>694.88</ele>
  <time>2026-09-01T19:59:56Z</time>
  <course>355.91</course>
  <speed>26.716474318292825</speed>
  <fix>3d</fix>
</trkpt>
<trkpt lat="-35.2836424" lon="148.9870297">
  <ele>694.86</ele>
  <time>2026-09-01T19:59:56Z</time>
  <course>355.71</course>
  <speed>26.75</speed>
  <fix>3d</fix>
</trkpt>
<trkpt lat="-35.2835739" lon="148.987023">
  <ele>694.95</ele>
  <time>2026-09-01T19:59:56Z</time>
  <course>355.95</course>
  <speed>26.705748444857335</speed>
  <fix>3d</fix>
</trkpt>
<trkpt lat="-35.2835945" lon="148.9870253">
  <ele>694.99</ele>
  <time>2026-09-01T19:59:56Z</time>
  <course>355.77</course>
  <speed>26.72</speed>
  <fix>3d</fix>
</trkpt>
<trkpt lat="-35.2835501" lon="148.9870208">
  <ele>695.01</ele>
  <time>2026-09-01T19:59:56Z</time>
  <course>355.93</course>
  <speed>26.695025753874074</speed>
  <fix>3d</fix>
</trkpt>
<trkpt lat="-35.2835945" lon="148.9870253">
  <ele>694.99</ele>
  <time>2026-09-01T19:59:56Z</time>
  <course>355.77</course>
  <speed>26.72</speed>
  <fix>3d</fix>
</trkpt>
<trkpt lat="-35.2835262" lon="148.9870187">
  <ele>695.08</ele>
  <time>2026-09-01T19:59:56Z</time>
  <course>355.92</course>
  <speed>26.68356235587745</speed>
  <fix>3d</fix>
</trkpt>
<trkpt lat="-35.2835466" lon="148.987021">
  <ele>695.12</ele>
  <time>2026-09-01T19:59:56Z</time>
  <course>355.83</course>
  <speed>26.7</speed>
  <fix>3d</fix>
</trkpt>
<trkpt lat="-35.283502" lon="148.9870166">
  <ele>695.15</ele>
  <time>2026-09-01T19:59:56Z</time>
  <course>355.95</course>
  <speed>26.68356235587745</speed>
  <fix>3d</fix>
</trkpt>
<trkpt lat="-35.2835466" lon="148.987021">
  <ele>695.12</ele>
  <time>2026-09-01T19:59:56Z</time>
  <course>355.83</course>
  <speed>26.7</speed>
  <fix>3d</fix>
</trkpt>
<trkpt lat="-35.283478" lon="148.9870144">
  <ele>695.21</ele>
  <time>2026-09-01T19:59:56Z</time>
  <course>355.9</course>
  <speed>26.672112777206085</speed>
  <fix>3d</fix>
</trkpt>
<trkpt lat="-35.2835466" lon="148.987021">
  <ele>695.12</ele>
  <time>2026-09-01T19:59:56Z</time>
  <course>355.83</course>
  <speed>26.7</speed>
  <fix>3d</fix>
</trkpt>
<trkpt lat="-35.2834539" lon="148.9870123">
  <ele>695.28</ele>
  <time>2026-09-01T19:59:56Z</time>
  <course>355.95</course>
  <speed>26.65216689126796</speed>
  <fix>3d</fix>
</trkpt>
<trkpt lat="-35.2834987" lon="148.9870168">
  <ele>695.24</ele>
  <time>2026-09-01T19:59:56Z</time>
  <course>355.88</course>
  <speed>26.66</speed>
  <fix>3d</fix>
</trkpt>
<trkpt lat="-35.2834301" lon="148.9870102">
  <ele>695.34</ele>
  <time>2026-09-01T19:59:56Z</time>
  <course>356.01</course>
  <speed>26.631487003169763</speed>
  <fix>3d</fix>
</trkpt>
<trkpt lat="-35.2834987" lon="148.9870168">
  <ele>695.24</ele>
  <time>2026-09-01T19:59:56Z</time>
  <course>355.88</course>
  <speed>26.66</speed>
  <fix>3d</fix>
</trkpt>
<trkpt lat="-35.2834063" lon="148.9870081">
  <ele>695.4</ele>
  <time>2026-09-01T19:59:56Z</time>
  <course>356.06</course>
  <speed>26.61080983359958</speed>
  <fix>3d</fix>
</trkpt>
<trkpt lat="-35.2834509" lon="148.9870126">
  <ele>695.37</ele>
  <time>2026-09-01T19:59:56Z</time>
  <course>355.92</course>
  <speed>26.63</speed>
  <fix>3d</fix>
</trkpt>
<trkpt lat="-35.2833818" lon="148.987006">
  <ele>695.47</ele>
  <time>2026-09-01T19:59:56Z</time>
  <course>356.1</course>
  <speed>26.58941142635542</speed>
  <fix>3d</fix>
</trkpt>
<trkpt lat="-35.2834509" lon="148.9870126">
  <ele>695.37</ele>
  <time>2026-09-01T19:59:56Z</time>
  <course>355.92</course>
  <speed>26.63</speed>
  <fix>3d</fix>
</trkpt>
<trkpt lat="-35.2833583" lon="148.987004">
  <ele>695.53</ele>
  <time>2026-09-01T19:59:56Z</time>
  <course>356.07</course>
  <speed>26.568742913431187</speed>
  <fix>3d</fix>
</trkpt>
<trkpt lat="-35.2834032" lon="148.9870084">
  <ele>695.49</ele>
  <time>2026-09-01T19:59:56Z</time>
  <course>355.95</course>
  <speed>26.59</speed>
  <fix>3d</fix>
</trkpt>
<trkpt lat="-35.2833346" lon="148.987002">
  <ele>695.58</ele>
  <time>2026-09-01T19:59:56Z</time>
  <course>356.1</course>
  <speed>26.548077143175547</speed>
  <fix>3d</fix>
</trkpt>
<trkpt lat="-35.2834032" lon="148.9870084">
  <ele>695.49</ele>
  <time>2026-09-01T19:59:56Z</time>
  <course>355.95</course>
  <speed>26.59</speed>
  <fix>3d</fix>
</trkpt>
<trkpt lat="-35.2833109" lon="148.9869999">
  <ele>695.64</ele>
  <time>2026-09-01T19:59:56Z</time>
  <course>356.18</course>
  <speed>26.5274141219984</speed>
  <fix>3d</fix>
</trkpt>
<trkpt lat="-35.2833556" lon="148.9870043">
  <ele>695.6</ele>
  <time>2026-09-01T19:59:56Z</time>
  <course>355.99</course>
  <speed>26.56</speed>
  <fix>3d</fix>
</trkpt>
<trkpt lat="-35.2832873" lon="148.9869979">
  <ele>695.68</ele>
  <time>2026-09-01T19:59:56Z</time>
  <course>356.19</course>
  <speed>26.496779049537324</speed>
  <fix>3d</fix>
</trkpt>
<trkpt lat="-35.2833556" lon="148.9870043">
  <ele>695.6</ele>
  <time>2026-09-01T19:59:56Z</time>
  <course>355.99</course>
  <speed>26.56</speed>
  <fix>3d</fix>
</trkpt>
<trkpt lat="-35.2832637" lon="148.986996">
  <ele>695.73</ele>
  <time>2026-09-01T19:59:56Z</time>
  <course>356.18</course>
  <speed>26.48539220022992</speed>
  <fix>3d</fix>
</trkpt>
<trkpt lat="-35.283308" lon="148.9870002">
  <ele>695.71</ele>
  <time>2026-09-01T19:59:56Z</time>
  <course>356.03</course>
  <speed>26.52</speed>
  <fix>3d</fix>
</trkpt>
<trkpt lat="-35.2832398" lon="148.986994">
  <ele>695.78</ele>
  <time>2026-09-01T19:59:56Z</time>
  <course>356.22</course>
  <speed>26.45476516622289</speed>
  <fix>3d</fix>
</trkpt>
<trkpt lat="-35.283308" lon="148.9870002">
  <ele>695.71</ele>
  <time>2026-09-01T19:59:56Z</time>
  <course>356.03</course>
  <speed>26.52</speed>
  <fix>3d</fix>
</trkpt>
<trkpt lat="-35.2832162" lon="148.986992">
  <ele>695.82</ele>
  <time>2026-09-01T19:59:56Z</time>
  <course>356.22</course>
  <speed>26.4341162137114</speed>
  <fix>3d</fix>
</trkpt>
<trkpt lat="-35.2832606" lon="148.9869962">
  <ele>695.81</ele>
  <time>2026-09-01T19:59:56Z</time>
  <course>356.09</course>
  <speed>26.48</speed>
  <fix>3d</fix>
</trkpt>
<trkpt lat="-35.2831926" lon="148.98699">
  <ele>695.87</ele>
  <time>2026-09-01T19:59:56Z</time>
  <course>356.21</course>
  <speed>26.423446028101633</speed>
  <fix>3d</fix>
</trkpt>
<trkpt lat="-35.2832606" lon="148.9869962">
  <ele>695.81</ele>
  <time>2026-09-01T19:59:56Z</time>
  <course>356.09</course>
  <speed>26.48</speed>
  <fix>3d</fix>
</trkpt>
<trkpt lat="-35.2831691" lon="148.9869881">
  <ele>695.91</ele>
  <time>2026-09-01T19:59:56Z</time>
  <course>356.23</course>
  <speed>26.40280288151241</speed>
  <fix>3d</fix>
</trkpt>
<trkpt lat="-35.2832132" lon="148.9869923">
  <ele>695.9</ele>
  <time>2026-09-01T19:59:56Z</time>
  <course>356.13</course>
  <speed>26.45</speed>
  <fix>3d</fix>
</trkpt>
<trkpt lat="-35.2831455" lon="148.9869862">
  <ele>695.96</ele>
  <time>2026-09-01T19:59:56Z</time>
  <course>356.24</course>
  <speed>26.38216253456111</speed>
  <fix>3d</fix>
</trkpt>
<trkpt lat="-35.2832132" lon="148.9869923">
  <ele>695.9</ele>
  <time>2026-09-01T19:59:56Z</time>
  <course>356.13</course>
  <speed>26.45</speed>
  <fix>3d</fix>
</trkpt>
<trkpt lat="-35.2831219" lon="148.9869843">
  <ele>696.0</ele>
  <time>2026-09-01T19:59:56Z</time>
  <course>356.31</course>
  <speed>26.371501663727837</speed>
  <fix>3d</fix>
</trkpt>
<trkpt lat="-35.2831658" lon="148.9869884">
  <ele>695.99</ele>
  <time>2026-09-01T19:59:56Z</time>
  <course>356.16</course>
  <speed>26.41</speed>
  <fix>3d</fix>
</trkpt>
<trkpt lat="-35.2830983" lon="148.9869823">
  <ele>696.03</ele>
  <time>2026-09-01T19:59:56Z</time>
  <course>356.33</course>
  <speed>26.350867158406757</speed>
  <fix>3d</fix>
</trkpt>
<trkpt lat="-35.2831658" lon="148.9869884">
  <ele>695.99</ele>
  <time>2026-09-01T19:59:56Z</time>
  <course>356.16</course>
  <speed>26.41</speed>
  <fix>3d</fix>
</trkpt>
<trkpt lat="-35.2830754" lon="148.9869805">
  <ele>696.07</ele>
  <time>2026-09-01T19:59:56Z</time>
  <course>356.29</course>
  <speed>26.340212603545933</speed>
  <fix>3d</fix>
</trkpt>
<trkpt lat="-35.2831184" lon="148.9869846">
  <ele>696.07</ele>
  <time>2026-09-01T19:59:56Z</time>
  <course>356.19</course>
  <speed>26.38</speed>
  <fix>3d</fix>
</trkpt>
<trkpt lat="-35.283052" lon="148.9869786">
  <ele>696.1</ele>
  <time>2026-09-01T19:59:56Z</time>
  <course>356.33</course>
  <speed>26.319583963277232</speed>
  <fix>3d</fix>
</trkpt>
<trkpt lat="-35.2830711" lon="148.9869807">
  <ele>696.14</ele>
  <time>2026-09-01T19:59:56Z</time>
  <course>356.22</course>
  <speed>26.35</speed>
  <fix>3d</fix>
</trkpt>
<trkpt lat="-35.2830283" lon="148.9869767">
  <ele>696.13</ele>
  <time>2026-09-01T19:59:56Z</time>
  <course>356.35</course>
  <speed>26.308935744343593</speed>
  <fix>3d</fix>
</trkpt>
<trkpt lat="-35.2830711" lon="148.9869807">
  <ele>696.14</ele>
  <time>2026-09-01T19:59:56Z</time>
  <course>356.22</course>
  <speed>26.35</speed>
  <fix>3d</fix>
</trkpt>
<trkpt lat="-35.2830046" lon="148.9869748">
  <ele>696.16</ele>
  <time>2026-09-01T19:59:56Z</time>
  <course>356.35</course>
  <speed>26.308935744343593</speed>
  <fix>3d</fix>
</trkpt>
<trkpt lat="-35.283024" lon="148.9869769">
  <ele>696.2</ele>
  <time>2026-09-01T19:59:56Z</time>
  <course>356.25</course>
  <speed>26.32</speed>
  <fix>3d</fix>
</trkpt>
<trkpt lat="-35.2829808" lon="148.9869729">
  <ele>696.19</ele>
  <time>2026-09-01T19:59:56Z</time>
  <course>356.39</course>
  <speed>26.308268662152592</speed>
  <fix>3d</fix>
</trkpt>
<trkpt lat="-35.283024" lon="148.9869769">
  <ele>696.2</ele>
  <time>2026-09-01T19:59:56Z</time>
  <course>356.25</course>
  <speed>26.32</speed>
  <fix>3d</fix>
</trkpt>
<trkpt lat="-35.2829569" lon="148.986971">
  <ele>696.22</ele>
  <time>2026-09-01T19:59:56Z</time>
  <course>356.4</course>
  <speed>26.298290818986697</speed>
  <fix>3d</fix>
</trkpt>
<trkpt lat="-35.283024" lon="148.9869769">
  <ele>696.2</ele>
  <time>2026-09-01T19:59:56Z</time>
  <course>356.25</course>
  <speed>26.32</speed>
  <fix>3d</fix>
</trkpt>
<trkpt lat="-35.2829333" lon="148.9869692">
  <ele>696.25</ele>
  <time>2026-09-01T19:59:56Z</time>
  <course>356.35</course>
  <speed>26.28764919120765</speed>
  <fix>3d</fix>
</trkpt>
<trkpt lat="-35.2829767" lon="148.9869732">
  <ele>696.27</ele>
  <time>2026-09-01T19:59:56Z</time>
  <course>356.28</course>
  <speed>26.29</speed>
  <fix>3d</fix>
</trkpt>
<trkpt lat="-35.2829099" lon="148.9869673">
  <ele>696.27</ele>
  <time>2026-09-01T19:59:56Z</time>
  <course>356.36</course>
  <speed>26.26769308485235</speed>
  <fix>3d</fix>
</trkpt>
<trkpt lat="-35.2829767" lon="148.9869732">
  <ele>696.27</ele>
  <time>2026-09-01T19:59:56Z</time>
  <course>356.28</course>
  <speed>26.29</speed>
  <fix>3d</fix>
</trkpt>
<trkpt lat="-35.2828857" lon="148.9869654">
  <ele>696.3</ele>
  <time>2026-09-01T19:59:56Z</time>
  <course>356.39</course>
  <speed>26.24707602762639</speed>
  <fix>3d</fix>
</trkpt>
<trkpt lat="-35.2829295" lon="148.9869694">
  <ele>696.32</ele>
  <time>2026-09-01T19:59:56Z</time>
  <course>356.3</course>
  <speed>26.27</speed>
  <fix>3d</fix>
</trkpt>
<trkpt lat="-35.2828625" lon="148.9869636">
  <ele>696.31</ele>
  <time>2026-09-01T19:59:56Z</time>
  <course>356.41</course>
  <speed>26.227119552097214</speed>
  <fix>3d</fix>
</trkpt>
<trkpt lat="-35.2829295" lon="148.9869694">
  <ele>696.32</ele>
  <time>2026-09-01T19:59:56Z</time>
  <course>356.3</course>
  <speed>26.27</speed>
  <fix>3d</fix>
</trkpt>
<trkpt lat="-35.2828391" lon="148.9869618">
  <ele>696.33</ele>
  <time>2026-09-01T19:59:56Z</time>
  <course>356.45</course>
  <speed>26.216483364478922</speed>
  <fix>3d</fix>
</trkpt>
<trkpt lat="-35.2828825" lon="148.9869657">
  <ele>696.36</ele>
  <time>2026-09-01T19:59:56Z</time>
  <course>356.31</course>
  <speed>26.24</speed>
  <fix>3d</fix>
</trkpt>
<trkpt lat="-35.2828157" lon="148.9869599">
  <ele>696.34</ele>
  <time>2026-09-01T19:59:56Z</time>
  <course>356.45</course>
  <speed>26.206504917672635</speed>
  <fix>3d</fix>
</trkpt>
<trkpt lat="-35.2828825" lon="148.9869657">
  <ele>696.36</ele>
  <time>2026-09-01T19:59:56Z</time>
  <course>356.31</course>
  <speed>26.24</speed>
  <fix>3d</fix>
</trkpt>
<trkpt lat="-35.2827922" lon="148.9869581">
  <ele>696.35</ele>
  <time>2026-09-01T19:59:56Z</time>
  <course>356.44</course>
  <speed>26.19587181217682</speed>
  <fix>3d</fix>
</trkpt>
<trkpt lat="-35.2828355" lon="148.986962">
  <ele>696.39</ele>
  <time>2026-09-01T19:59:56Z</time>
  <course>356.33</course>
  <speed>26.22</speed>
  <fix>3d</fix>
</trkpt>
<trkpt lat="-35.2827686" lon="148.9869563">
  <ele>696.35</ele>
  <time>2026-09-01T19:59:56Z</time>
  <course>356.43</course>
  <speed>26.18589314879292</speed>
  <fix>3d</fix>
</trkpt>
<trkpt lat="-35.2828355" lon="148.986962">
  <ele>696.39</ele>
  <time>2026-09-01T19:59:56Z</time>
  <course>356.33</course>
  <speed>26.22</speed>
  <fix>3d</fix>
</trkpt>
<trkpt lat="-35.2827451" lon="148.9869544">
  <ele>696.36</ele>
  <time>2026-09-01T19:59:56Z</time>
  <course>356.44</course>
  <speed>26.17591450169411</speed>
  <fix>3d</fix>
</trkpt>
<trkpt lat="-35.2827884" lon="148.9869583">
  <ele>696.41</ele>
  <time>2026-09-01T19:59:56Z</time>
  <course>356.34</course>
  <speed>26.2</speed>
  <fix>3d</fix>
</trkpt>
<trkpt lat="-35.2827216" lon="148.9869526">
  <ele>696.36</ele>
  <time>2026-09-01T19:59:56Z</time>
  <course>356.46</course>
  <speed>26.16593587089902</speed>
  <fix>3d</fix>
</trkpt>
<trkpt lat="-35.2827884" lon="148.9869583">
  <ele>696.41</ele>
  <time>2026-09-01T19:59:56Z</time>
  <course>356.34</course>
  <speed>26.2</speed>
  <fix>3d</fix>
</trkpt>
<trkpt lat="-35.2826982" lon="148.9869508">
  <ele>696.36</ele>
  <time>2026-09-01T19:59:56Z</time>
  <course>356.45</course>
  <speed>26.155305389155757</speed>
  <fix>3d</fix>
</trkpt>
<trkpt lat="-35.2827415" lon="148.9869546">
  <ele>696.42</ele>
  <time>2026-09-01T19:59:56Z</time>
  <course>356.34</course>
  <speed>26.18</speed>
  <fix>3d</fix>
</trkpt>
<trkpt lat="-35.2826749" lon="148.9869489">
  <ele>696.36</ele>
  <time>2026-09-01T19:59:56Z</time>
  <course>356.44</course>
  <speed>26.136000076522805</speed>
  <fix>3d</fix>
</trkpt>
<trkpt lat="-35.2827415" lon="148.9869546">
  <ele>696.42</ele>
  <time>2026-09-01T19:59:56Z</time>
  <course>356.34</course>
  <speed>26.18</speed>
  <fix>3d</fix>
</trkpt>
<trkpt lat="-35.2826516" lon="148.9869471">
  <ele>696.36</ele>
  <time>2026-09-01T19:59:56Z</time>
  <course>356.4</course>
  <speed>26.125368896917035</speed>
  <fix>3d</fix>
</trkpt>
<trkpt lat="-35.2826946" lon="148.9869509">
  <ele>696.43</ele>
  <time>2026-09-01T19:59:56Z</time>
  <course>356.34</course>
  <speed>26.15</speed>
  <fix>3d</fix>
</trkpt>
<trkpt lat="-35.2826283" lon="148.9869453">
  <ele>696.35</ele>
  <time>2026-09-01T19:59:56Z</time>
  <course>356.36</course>
  <speed>26.115390098560656</speed>
  <fix>3d</fix>
</trkpt>
<trkpt lat="-35.2826946" lon="148.9869509">
  <ele>696.43</ele>
  <time>2026-09-01T19:59:56Z</time>
  <course>356.34</course>
  <speed>26.15</speed>
  <fix>3d</fix>
</trkpt>
<trkpt lat="-35.282605" lon="148.9869435">
  <ele>696.34</ele>
  <time>2026-09-01T19:59:56Z</time>
  <course>356.39</course>
  <speed>26.105411316430164</speed>
  <fix>3d</fix>
</trkpt>
<trkpt lat="-35.2826477" lon="148.9869473">
  <ele>696.42</ele>
  <time>2026-09-01T19:59:56Z</time>
  <course>356.34</course>
  <speed>26.13</speed>
  <fix>3d</fix>
</trkpt>
<trkpt lat="-35.2825817" lon="148.9869417">
  <ele>696.33</ele>
  <time>2026-09-01T19:59:56Z</time>
  <course>356.4</course>
  <speed>26.095432550544164</speed>
  <fix>3d</fix>
</trkpt>
<trkpt lat="-35.2826477" lon="148.9869473">
  <ele>696.42</ele>
  <time>2026-09-01T19:59:56Z</time>
  <course>356.34</course>
  <speed>26.13</speed>
  <fix>3d</fix>
</trkpt>
<trkpt lat="-35.2825584" lon="148.9869399">
  <ele>696.32</ele>
  <time>2026-09-01T19:59:56Z</time>
  <course>356.39</course>
  <speed>26.08545380092131</speed>
  <fix>3d</fix>
</trkpt>
<trkpt lat="-35.2826009" lon="148.9869436">
  <ele>696.41</ele>
  <time>2026-09-01T19:59:56Z</time>
  <course>356.34</course>
  <speed>26.11</speed>
  <fix>3d</fix>
</trkpt>
<trkpt lat="-35.2825351" lon="148.986938">
  <ele>696.3</ele>
  <time>2026-09-01T19:59:56Z</time>
  <course>356.41</course>
  <speed>26.075475067580264</speed>
  <fix>3d</fix>
</trkpt>
<trkpt lat="-35.2826009" lon="148.9869436">
  <ele>696.41</ele>
  <time>2026-09-01T19:59:56Z</time>
  <course>356.34</course>
  <speed>26.11</speed>
  <fix>3d</fix>
</trkpt>
<trkpt lat="-35.2825118" lon="148.9869362">
  <ele>696.29</ele>
  <time>2026-09-01T19:59:56Z</time>
  <course>356.39</course>
  <speed>26.06549635053973</speed>
  <fix>3d</fix>
</trkpt>
<trkpt lat="-35.2825541" lon="148.98694">
  <ele>696.39</ele>
  <time>2026-09-01T19:59:56Z</time>
  <course>356.34</course>
  <speed>26.1</speed>
  <fix>3d</fix>
</trkpt>
<trkpt lat="-35.2824886" lon="148.9869344">
  <ele>696.26</ele>
  <time>2026-09-01T19:59:56Z</time>
  <course>356.35</course>
  <speed>26.055517649818434</speed>
  <fix>3d</fix>
</trkpt>
<trkpt lat="-35.2825541" lon="148.98694">
  <ele>696.39</ele>
  <time>2026-09-01T19:59:56Z</time>
  <course>356.34</course>
  <speed>26.1</speed>
  <fix>3d</fix>
</trkpt>
<trkpt lat="-35.2824652" lon="148.9869326">
  <ele>696.24</ele>
  <time>2026-09-01T19:59:56Z</time>
  <course>356.41</course>
  <speed>26.055517649818434</speed>
  <fix>3d</fix>
</trkpt>
<trkpt lat="-35.2825073" lon="148.9869363">
  <ele>696.36</ele>
  <time>2026-09-01T19:59:56Z</time>
  <course>356.33</course>
  <speed>26.08</speed>
  <fix>3d</fix>
</trkpt>
<trkpt lat="-35.2824418" lon="148.9869308">
  <ele>696.22</ele>
  <time>2026-09-01T19:59:56Z</time>
  <course>356.47</course>
  <speed>26.05486710770178</speed>
  <fix>3d</fix>
</trkpt>
<trkpt lat="-35.2825073" lon="148.9869363">
  <ele>696.36</ele>
  <time>2026-09-01T19:59:56Z</time>
  <course>356.33</course>
  <speed>26.08</speed>
  <fix>3d</fix>
</trkpt>
<trkpt lat="-35.282419" lon="148.986929">
  <ele>696.19</ele>
  <time>2026-09-01T19:59:56Z</time>
  <course>356.48</course>
  <speed>26.054220387491927</speed>
  <fix>3d</fix>
</trkpt>
<trkpt lat="-35.2824604" lon="148.9869326">
  <ele>696.32</ele>
  <time>2026-09-01T19:59:56Z</time>
  <course>356.33</course>
  <speed>26.07</speed>
  <fix>3d</fix>
</trkpt>
<trkpt lat="-35.2823949" lon="148.9869271">
  <ele>696.16</ele>
  <time>2026-09-01T19:59:56Z</time>
  <course>356.42</course>
  <speed>26.054220387491927</speed>
  <fix>3d</fix>
</trkpt>
<trkpt lat="-35.2824604" lon="148.9869326">
  <ele>696.32</ele>
  <time>2026-09-01T19:59:56Z</time>
  <course>356.33</course>
  <speed>26.07</speed>
  <fix>3d</fix>
</trkpt>
<trkpt lat="-35.2823717" lon="148.9869253">
  <ele>696.13</ele>
  <time>2026-09-01T19:59:56Z</time>
  <course>356.39</course>
  <speed>26.053577489473497</speed>
  <fix>3d</fix>
</trkpt>
<trkpt lat="-35.2824136" lon="148.9869289">
  <ele>696.28</ele>
  <time>2026-09-01T19:59:56Z</time>
  <course>356.35</course>
  <speed>26.07</speed>
  <fix>3d</fix>
</trkpt>
<trkpt lat="-35.2823484" lon="148.9869235">
  <ele>696.1</ele>
  <time>2026-09-01T19:59:56Z</time>
  <course>356.39</course>
  <speed>26.053577489473497</speed>
  <fix>3d</fix>
</trkpt>
<trkpt lat="-35.2824136" lon="148.9869289">
  <ele>696.28</ele>
  <time>2026-09-01T19:59:56Z</time>
  <course>356.35</course>
  <speed>26.07</speed>
  <fix>3d</fix>
</trkpt>
<trkpt lat="-35.282325" lon="148.9869217">
  <ele>696.08</ele>
  <time>2026-09-01T19:59:56Z</time>
  <course>356.4</course>
  <speed>26.043598061711826</speed>
  <fix>3d</fix>
</trkpt>
<trkpt lat="-35.2823669" lon="148.9869254">
  <ele>696.22</ele>
  <time>2026-09-01T19:59:56Z</time>
  <course>356.37</course>
  <speed>26.06</speed>
  <fix>3d</fix>
</trkpt>
<trkpt lat="-35.2823017" lon="148.9869199">
  <ele>696.05</ele>
  <time>2026-09-01T19:59:56Z</time>
  <course>356.41</course>
  <speed>26.04295874127976</speed>
  <fix>3d</fix>
</trkpt>
<trkpt lat="-35.2823669" lon="148.9869254">
  <ele>696.22</ele>
  <time>2026-09-01T19:59:56Z</time>
  <course>356.37</course>
  <speed>26.06</speed>
  <fix>3d</fix>
</trkpt>
<trkpt lat="-35.2822781" lon="148.9869181">
  <ele>696.02</ele>
  <time>2026-09-01T19:59:56Z</time>
  <course>356.41</course>
  <speed>26.03297908423083</speed>
  <fix>3d</fix>
</trkpt>
<trkpt lat="-35.2823202" lon="148.9869218">
  <ele>696.16</ele>
  <time>2026-09-01T19:59:56Z</time>
  <course>356.39</course>
  <speed>26.05</speed>
  <fix>3d</fix>
</trkpt>
<trkpt lat="-35.2822548" lon="148.9869163">
  <ele>695.99</ele>
  <time>2026-09-01T19:59:56Z</time>
  <course>356.45</course>
  <speed>26.03297908423083</speed>
  <fix>3d</fix>
</trkpt>
<trkpt lat="-35.2823202" lon="148.9869218">
  <ele>696.16</ele>
  <time>2026-09-01T19:59:56Z</time>
  <course>356.39</course>
  <speed>26.05</speed>
  <fix>3d</fix>
</trkpt>
<trkpt lat="-35.2822315" lon="148.9869146">
  <ele>695.95</ele>
  <time>2026-09-01T19:59:56Z</time>
  <course>356.48</course>
  <speed>26.032343344386035</speed>
  <fix>3d</fix>
</trkpt>
<trkpt lat="-35.2822735" lon="148.9869182">
  <ele>696.11</ele>
  <time>2026-09-01T19:59:56Z</time>
  <course>356.4</course>
  <speed>26.04</speed>
  <fix>3d</fix>
</trkpt>
<trkpt lat="-35.2822081" lon="148.9869128">
  <ele>695.92</ele>
  <time>2026-09-01T19:59:56Z</time>
  <course>356.45</course>
  <speed>26.02173130289374</speed>
  <fix>3d</fix>
</trkpt>
<trkpt lat="-35.2822735" lon="148.9869182">
  <ele>696.11</ele>
  <time>2026-09-01T19:59:56Z</time>
  <course>356.4</course>
  <speed>26.04</speed>
  <fix>3d</fix>
</trkpt>
<trkpt lat="-35.2821848" lon="148.986911">
  <ele>695.9</ele>
  <time>2026-09-01T19:59:56Z</time>
  <course>356.44</course>
  <speed>26.02173130289374</speed>
  <fix>3d</fix>
</trkpt>
<trkpt lat="-35.2822268" lon="148.9869145">
  <ele>696.05</ele>
  <time>2026-09-01T19:59:56Z</time>
  <course>356.41</course>
  <speed>26.04</speed>
  <fix>3d</fix>
</trkpt>
<trkpt lat="-35.2821615" lon="148.9869092">
  <ele>695.87</ele>
  <time>2026-09-01T19:59:56Z</time>
  <course>356.52</course>
  <speed>26.02173130289374</speed>
  <fix>3d</fix>
</trkpt>
<trkpt lat="-35.2822268" lon="148.9869145">
  <ele>696.05</ele>
  <time>2026-09-01T19:59:56Z</time>
  <course>356.41</course>
  <speed>26.04</speed>
  <fix>3d</fix>
</trkpt>
<trkpt lat="-35.2821382" lon="148.9869075">
  <ele>695.84</ele>
  <time>2026-09-01T19:59:56Z</time>
  <course>356.49</course>
  <speed>26.011122620909696</speed>
  <fix>3d</fix>
</trkpt>
<trkpt lat="-35.2821802" lon="148.986911">
  <ele>695.99</ele>
  <time>2026-09-01T19:59:56Z</time>
  <course>356.42</course>
  <speed>26.03</speed>
  <fix>3d</fix>
</trkpt>
<trkpt lat="-35.2821149" lon="148.9869057">
  <ele>695.8</ele>
  <time>2026-09-01T19:59:56Z</time>
  <course>356.47</course>
  <speed>26.011122620909696</speed>
  <fix>3d</fix>
</trkpt>
<trkpt lat="-35.2821802" lon="148.986911">
  <ele>695.99</ele>
  <time>2026-09-01T19:59:56Z</time>
  <course>356.42</course>
  <speed>26.03</speed>
  <fix>3d</fix>
</trkpt>
<trkpt lat="-35.2820916" lon="148.986904">
  <ele>695.77</ele>
  <time>2026-09-01T19:59:56Z</time>
  <course>356.48</course>
  <speed>26.001142282599815</speed>
  <fix>3d</fix>
</trkpt>
<trkpt lat="-35.2821335" lon="148.9869074">
  <ele>695.93</ele>
  <time>2026-09-01T19:59:56Z</time>
  <course>356.43</course>
  <speed>26.02</speed>
  <fix>3d</fix>
</trkpt>
<trkpt lat="-35.2820683" lon="148.9869022">
  <ele>695.74</ele>
  <time>2026-09-01T19:59:56Z</time>
  <course>356.44</course>
  <speed>25.991161959404586</speed>
  <fix>3d</fix>
</trkpt>
<trkpt lat="-35.2821335" lon="148.9869074">
  <ele>695.93</ele>
  <time>2026-09-01T19:59:56Z</time>
  <course>356.43</course>
  <speed>26.02</speed>
  <fix>3d</fix>
</trkpt>
<trkpt lat="-35.2820449" lon="148.9869004">
  <ele>695.7</ele>
  <time>2026-09-01T19:59:56Z</time>
  <course>356.44</course>
  <speed>25.991161959404586</speed>
  <fix>3d</fix>
</trkpt>
<trkpt lat="-35.2820868" lon="148.9869038">
  <ele>695.88</ele>
  <time>2026-09-01T19:59:56Z</time>
  <course>356.44</course>
  <speed>26.0</speed>
  <fix>3d</fix>
</trkpt>
<trkpt lat="-35.2820216" lon="148.9868987">
  <ele>695.66</ele>
  <time>2026-09-01T19:59:56Z</time>
  <course>356.46</course>
  <speed>25.991161959404586</speed>
  <fix>3d</fix>
</trkpt>
<trkpt lat="-35.2820868" lon="148.9869038">
  <ele>695.88</ele>
  <time>2026-09-01T19:59:56Z</time>
  <course>356.44</course>
  <speed>26.0</speed>
  <fix>3d</fix>
</trkpt>
<trkpt lat="-35.2819983" lon="148.9868969">
  <ele>695.62</ele>
  <time>2026-09-01T19:59:56Z</time>
  <course>356.47</course>
  <speed>25.991161959404586</speed>
  <fix>3d</fix>
</trkpt>
<trkpt lat="-35.2820402" lon="148.9869003">
  <ele>695.81</ele>
  <time>2026-09-01T19:59:56Z</time>
  <course>356.45</course>
  <speed>25.99</speed>
  <fix>3d</fix>
</trkpt>
<trkpt lat="-35.2819749" lon="148.9868951">
  <ele>695.57</ele>
  <time>2026-09-01T19:59:56Z</time>
  <course>356.5</course>
  <speed>25.991161959404586</speed>
  <fix>3d</fix>
</trkpt>
<trkpt lat="-35.2820402" lon="148.9869003">
  <ele>695.81</ele>
  <time>2026-09-01T19:59:56Z</time>
  <course>356.45</course>
  <speed>25.99</speed>
  <fix>3d</fix>
</trkpt>
<trkpt lat="-35.2819516" lon="148.9868934">
  <ele>695.53</ele>
  <time>2026-09-01T19:59:56Z</time>
  <course>356.49</course>
  <speed>25.98055619112108</speed>
  <fix>3d</fix>
</trkpt>
<trkpt lat="-35.2819935" lon="148.9868968">
  <ele>695.73</ele>
  <time>2026-09-01T19:59:56Z</time>
  <course>356.45</course>
  <speed>25.98</speed>
  <fix>3d</fix>
</trkpt>
<trkpt lat="-35.2819282" lon="148.9868916">
  <ele>695.48</ele>
  <time>2026-09-01T19:59:56Z</time>
  <course>356.47</course>
  <speed>25.98055619112108</speed>
  <fix>3d</fix>
</trkpt>
<trkpt lat="-35.2819935" lon="148.9868968">
  <ele>695.73</ele>
  <time>2026-09-01T19:59:56Z</time>
  <course>356.45</course>
  <speed>25.98</speed>
  <fix>3d</fix>
</trkpt>
<trkpt lat="-35.2819049" lon="148.9868898">
  <ele>695.42</ele>
  <time>2026-09-01T19:59:56Z</time>
  <course>356.47</course>
  <speed>25.98055619112108</speed>
  <fix>3d</fix>
</trkpt>
<trkpt lat="-35.281947" lon="148.9868932">
  <ele>695.64</ele>
  <time>2026-09-01T19:59:56Z</time>
  <course>356.45</course>
  <speed>25.97</speed>
  <fix>3d</fix>
</trkpt>
<trkpt lat="-35.2818815" lon="148.986888">
  <ele>695.37</ele>
  <time>2026-09-01T19:59:56Z</time>
  <course>356.49</course>
  <speed>25.98055619112108</speed>
  <fix>3d</fix>
</trkpt>
<trkpt lat="-35.281947" lon="148.9868932">
  <ele>695.64</ele>
  <time>2026-09-01T19:59:56Z</time>
  <course>356.45</course>
  <speed>25.97</speed>
  <fix>3d</fix>
</trkpt>
<trkpt lat="-35.2818582" lon="148.9868863">
  <ele>695.31</ele>
  <time>2026-09-01T19:59:56Z</time>
  <course>356.5</course>
  <speed>25.98055619112108</speed>
  <fix>3d</fix>
</trkpt>
<trkpt lat="-35.2819004" lon="148.9868897">
  <ele>695.54</ele>
  <time>2026-09-01T19:59:56Z</time>
  <course>356.45</course>
  <speed>25.95</speed>
  <fix>3d</fix>
</trkpt>
<trkpt lat="-35.2818349" lon="148.9868845">
  <ele>695.24</ele>
  <time>2026-09-01T19:59:56Z</time>
  <course>356.48</course>
  <speed>25.98055619112108</speed>
  <fix>3d</fix>
</trkpt>
<trkpt lat="-35.2819004" lon="148.9868897">
  <ele>695.54</ele>
  <time>2026-09-01T19:59:56Z</time>
  <course>356.45</course>
  <speed>25.95</speed>
  <fix>3d</fix>
</trkpt>
<trkpt lat="-35.2818116" lon="148.9868828">
  <ele>695.18</ele>
  <time>2026-09-01T19:59:56Z</time>
  <course>356.39</course>
  <speed>25.970575657847863</speed>
  <fix>3d</fix>
</trkpt>
<trkpt lat="-35.2818539" lon="148.9868862">
  <ele>695.43</ele>
  <time>2026-09-01T19:59:56Z</time>
  <course>356.45</course>
  <speed>25.95</speed>
  <fix>3d</fix>
</trkpt>
<trkpt lat="-35.2817881" lon="148.986881">
  <ele>695.12</ele>
  <time>2026-09-01T19:59:56Z</time>
  <course>356.36</course>
  <speed>25.971201358427763</speed>
  <fix>3d</fix>
</trkpt>
<trkpt lat="-35.2818539" lon="148.9868862">
  <ele>695.43</ele>
  <time>2026-09-01T19:59:56Z</time>
  <course>356.45</course>
  <speed>25.95</speed>
  <fix>3d</fix>
</trkpt>
<trkpt lat="-35.2817648" lon="148.9868792">
  <ele>695.05</ele>
  <time>2026-09-01T19:59:56Z</time>
  <course>356.35</course>
  <speed>25.971201358427763</speed>
  <fix>3d</fix>
</trkpt>
<trkpt lat="-35.2818073" lon="148.9868827">
  <ele>695.31</ele>
  <time>2026-09-01T19:59:56Z</time>
  <course>356.44</course>
  <speed>25.94</speed>
  <fix>3d</fix>
</trkpt>
<trkpt lat="-35.2817415" lon="148.9868774">
  <ele>694.98</ele>
  <time>2026-09-01T19:59:56Z</time>
  <course>356.39</course>
  <speed>25.971201358427763</speed>
  <fix>3d</fix>
</trkpt>
<trkpt lat="-35.2818073" lon="148.9868827">
  <ele>695.31</ele>
  <time>2026-09-01T19:59:56Z</time>
  <course>356.44</course>
  <speed>25.94</speed>
  <fix>3d</fix>
</trkpt>
<trkpt lat="-35.2817182" lon="148.9868757">
  <ele>694.91</ele>
  <time>2026-09-01T19:59:56Z</time>
  <course>356.45</course>
  <speed>25.971201358427763</speed>
  <fix>3d</fix>
</trkpt>
<trkpt lat="-35.2817608" lon="148.9868791">
  <ele>695.18</ele>
  <time>2026-09-01T19:59:56Z</time>
  <course>356.42</course>
  <speed>25.93</speed>
  <fix>3d</fix>
</trkpt>
<trkpt lat="-35.2816949" lon="148.9868739">
  <ele>694.84</ele>
  <time>2026-09-01T19:59:56Z</time>
  <course>356.44</course>
  <speed>25.971201358427763</speed>
  <fix>3d</fix>
</trkpt>
<trkpt lat="-35.2817608" lon="148.9868791">
  <ele>695.18</ele>
  <time>2026-09-01T19:59:56Z</time>
  <course>356.42</course>
  <speed>25.93</speed>
  <fix>3d</fix>
</trkpt>
<trkpt lat="-35.2816716" lon="148.9868721">
  <ele>694.76</ele>
  <time>2026-09-01T19:59:56Z</time>
  <course>356.42</course>
  <speed>25.971201358427763</speed>
  <fix>3d</fix>
</trkpt>
<trkpt lat="-35.2817144" lon="148.9868756">
  <ele>695.05</ele>
  <time>2026-09-01T19:59:56Z</time>
  <course>356.41</course>
  <speed>25.93</speed>
  <fix>3d</fix>
</trkpt>
<trkpt lat="-35.2816484" lon="148.9868703">
  <ele>694.69</ele>
  <time>2026-09-01T19:59:56Z</time>
  <course>356.38</course>
  <speed>25.971201358427763</speed>
  <fix>3d</fix>
</trkpt>
<trkpt lat="-35.2817144" lon="148.9868756">
  <ele>695.05</ele>
  <time>2026-09-01T19:59:56Z</time>
  <course>356.41</course>
  <speed>25.93</speed>
  <fix>3d</fix>
</trkpt>
<trkpt lat="-35.2816251" lon="148.9868686">
  <ele>694.61</ele>
  <time>2026-09-01T19:59:56Z</time>
  <course>356.39</course>
  <speed>25.970575657847863</speed>
  <fix>3d</fix>
</trkpt>
<trkpt lat="-35.2816679" lon="148.986872">
  <ele>694.9</ele>
  <time>2026-09-01T19:59:56Z</time>
  <course>356.42</course>
  <speed>25.92</speed>
  <fix>3d</fix>
</trkpt>
<trkpt lat="-35.2816019" lon="148.9868668">
  <ele>694.53</ele>
  <time>2026-09-01T19:59:56Z</time>
  <course>356.42</course>
  <speed>25.970575657847863</speed>
  <fix>3d</fix>
</trkpt>
<trkpt lat="-35.2816679" lon="148.986872">
  <ele>694.9</ele>
  <time>2026-09-01T19:59:56Z</time>
  <course>356.42</course>
  <speed>25.92</speed>
  <fix>3d</fix>
</trkpt>
<trkpt lat="-35.2815786" lon="148.986865">
  <ele>694.44</ele>
  <time>2026-09-01T19:59:56Z</time>
  <course>356.39</course>
  <speed>25.970575657847863</speed>
  <fix>3d</fix>
</trkpt>
<trkpt lat="-35.2816214" lon="148.9868684">
  <ele>694.75</ele>
  <time>2026-09-01T19:59:56Z</time>
  <course>356.43</course>
  <speed>25.92</speed>
  <fix>3d</fix>
</trkpt>
<trkpt lat="-35.2815554" lon="148.9868633">
  <ele>694.35</ele>
  <time>2026-09-01T19:59:56Z</time>
  <course>356.39</course>
  <speed>25.970575657847863</speed>
  <fix>3d</fix>
</trkpt>
<trkpt lat="-35.2816214" lon="148.9868684">
  <ele>694.75</ele>
  <time>2026-09-01T19:59:56Z</time>
  <course>356.43</course>
  <speed>25.92</speed>
  <fix>3d</fix>
</trkpt>
<trkpt lat="-35.2815321" lon="148.9868615">
  <ele>694.26</ele>
  <time>2026-09-01T19:59:56Z</time>
  <course>356.42</course>
  <speed>25.970575657847863</speed>
  <fix>3d</fix>
</trkpt>
<trkpt lat="-35.2815749" lon="148.9868649">
  <ele>694.58</ele>
  <time>2026-09-01T19:59:56Z</time>
  <course>356.43</course>
  <speed>25.92</speed>
  <fix>3d</fix>
</trkpt>
<trkpt lat="-35.2815088" lon="148.9868597">
  <ele>694.17</ele>
  <time>2026-09-01T19:59:56Z</time>
  <course>356.4</course>
  <speed>25.970575657847863</speed>
  <fix>3d</fix>
</trkpt>
<trkpt lat="-35.2815749" lon="148.9868649">
  <ele>694.58</ele>
  <time>2026-09-01T19:59:56Z</time>
  <course>356.43</course>
  <speed>25.92</speed>
  <fix>3d</fix>
</trkpt>
<trkpt lat="-35.2814856" lon="148.986858">
  <ele>694.08</ele>
  <time>2026-09-01T19:59:56Z</time>
  <course>356.39</course>
  <speed>25.970575657847863</speed>
  <fix>3d</fix>
</trkpt>
<trkpt lat="-35.2815284" lon="148.9868613">
  <ele>694.41</ele>
  <time>2026-09-01T19:59:56Z</time>
  <course>356.44</course>
  <speed>25.92</speed>
  <fix>3d</fix>
</trkpt>
<trkpt lat="-35.2814623" lon="148.9868562">
  <ele>693.99</ele>
  <time>2026-09-01T19:59:56Z</time>
  <course>356.4</course>
  <speed>25.970575657847863</speed>
  <fix>3d</fix>
</trkpt>
<trkpt lat="-35.2815284" lon="148.9868613">
  <ele>694.41</ele>
  <time>2026-09-01T19:59:56Z</time>
  <course>356.44</course>
  <speed>25.92</speed>
  <fix>3d</fix>
</trkpt>
<trkpt lat="-35.2814391" lon="148.9868544">
  <ele>693.9</ele>
  <time>2026-09-01T19:59:56Z</time>
  <course>356.42</course>
  <speed>25.970575657847863</speed>
  <fix>3d</fix>
</trkpt>
<trkpt lat="-35.2814819" lon="148.9868578">
  <ele>694.23</ele>
  <time>2026-09-01T19:59:56Z</time>
  <course>356.44</course>
  <speed>25.92</speed>
  <fix>3d</fix>
</trkpt>
<trkpt lat="-35.2814158" lon="148.9868527">
  <ele>693.8</ele>
  <time>2026-09-01T19:59:56Z</time>
  <course>356.41</course>
  <speed>25.970575657847863</speed>
  <fix>3d</fix>
</trkpt>
<trkpt lat="-35.2814819" lon="148.9868578">
  <ele>694.23</ele>
  <time>2026-09-01T19:59:56Z</time>
  <course>356.44</course>
  <speed>25.92</speed>
  <fix>3d</fix>
</trkpt>
<trkpt lat="-35.2813926" lon="148.9868509">
  <ele>693.7</ele>
  <time>2026-09-01T19:59:56Z</time>
  <course>356.41</course>
  <speed>25.970575657847863</speed>
  <fix>3d</fix>
</trkpt>
<trkpt lat="-35.2814354" lon="148.9868542">
  <ele>694.04</ele>
  <time>2026-09-01T19:59:56Z</time>
  <course>356.44</course>
  <speed>25.92</speed>
  <fix>3d</fix>
</trkpt>
<trkpt lat="-35.2813693" lon="148.9868491">
  <ele>693.61</ele>
  <time>2026-09-01T19:59:56Z</time>
  <course>356.39</course>
  <speed>25.970575657847863</speed>
  <fix>3d</fix>
</trkpt>
<trkpt lat="-35.2814354" lon="148.9868542">
  <ele>694.04</ele>
  <time>2026-09-01T19:59:56Z</time>
  <course>356.44</course>
  <speed>25.92</speed>
  <fix>3d</fix>
</trkpt>
<trkpt lat="-35.2813461" lon="148.9868473">
  <ele>693.51</ele>
  <time>2026-09-01T19:59:56Z</time>
  <course>356.39</course>
  <speed>25.98055619112108</speed>
  <fix>3d</fix>
</trkpt>
<trkpt lat="-35.2813889" lon="148.9868507">
  <ele>693.85</ele>
  <time>2026-09-01T19:59:56Z</time>
  <course>356.44</course>
  <speed>25.91</speed>
  <fix>3d</fix>
</trkpt>
<trkpt lat="-35.2813228" lon="148.9868456">
  <ele>693.4</ele>
  <time>2026-09-01T19:59:56Z</time>
  <course>356.39</course>
  <speed>25.98055619112108</speed>
  <fix>3d</fix>
</trkpt>
<trkpt lat="-35.2813889" lon="148.9868507">
  <ele>693.85</ele>
  <time>2026-09-01T19:59:56Z</time>
  <course>356.44</course>
  <speed>25.91</speed>
  <fix>3d</fix>
</trkpt>
<trkpt lat="-35.2812997" lon="148.9868438">
  <ele>693.3</ele>
  <time>2026-09-01T19:59:56Z</time>
  <course>356.39</course>
  <speed>25.98055619112108</speed>
  <fix>3d</fix>
</trkpt>
<trkpt lat="-35.2813424" lon="148.9868472">
  <ele>693.66</ele>
  <time>2026-09-01T19:59:56Z</time>
  <course>356.44</course>
  <speed>25.92</speed>
  <fix>3d</fix>
</trkpt>
<trkpt lat="-35.2812765" lon="148.986842">
  <ele>693.2</ele>
  <time>2026-09-01T19:59:56Z</time>
  <course>356.42</course>
  <speed>25.98055619112108</speed>
  <fix>3d</fix>
</trkpt>
<trkpt lat="-35.2813424" lon="148.9868472">
  <ele>693.66</ele>
  <time>2026-09-01T19:59:56Z</time>
  <course>356.44</course>
  <speed>25.92</speed>
  <fix>3d</fix>
</trkpt>
<trkpt lat="-35.2812532" lon="148.9868403">
  <ele>693.1</ele>
  <time>2026-09-01T19:59:56Z</time>
  <course>356.43</course>
  <speed>25.98055619112108</speed>
  <fix>3d</fix>
</trkpt>
<trkpt lat="-35.281296" lon="148.9868436">
  <ele>693.47</ele>
  <time>2026-09-01T19:59:56Z</time>
  <course>356.44</course>
  <speed>25.92</speed>
  <fix>3d</fix>
</trkpt>
<trkpt lat="-35.28123" lon="148.9868385">
  <ele>693.0</ele>
  <time>2026-09-01T19:59:56Z</time>
  <course>356.38</course>
  <speed>25.98055619112108</speed>
  <fix>3d</fix>
</trkpt>
<trkpt lat="-35.281296" lon="148.9868436">
  <ele>693.47</ele>
  <time>2026-09-01T19:59:56Z</time>
  <course>356.44</course>
  <speed>25.92</speed>
  <fix>3d</fix>
</trkpt>
<trkpt lat="-35.2812066" lon="148.9868367">
  <ele>692.89</ele>
  <time>2026-09-01T19:59:56Z</time>
  <course>356.3</course>
  <speed>25.98055619112108</speed>
  <fix>3d</fix>
</trkpt>
<trkpt lat="-35.2812495" lon="148.9868401">
  <ele>693.26</ele>
  <time>2026-09-01T19:59:56Z</time>
  <course>356.45</course>
  <speed>25.92</speed>
  <fix>3d</fix>
</trkpt>
<trkpt lat="-35.2811833" lon="148.986835">
  <ele>692.78</ele>
  <time>2026-09-01T19:59:56Z</time>
  <course>356.28</course>
  <speed>25.98055619112108</speed>
  <fix>3d</fix>
</trkpt>
<trkpt lat="-35.2812495" lon="148.9868401">
  <ele>693.26</ele>
  <time>2026-09-01T19:59:56Z</time>
  <course>356.45</course>
  <speed>25.92</speed>
  <fix>3d</fix>
</trkpt>
<trkpt lat="-35.2811601" lon="148.9868332">
  <ele>692.67</ele>
  <time>2026-09-01T19:59:56Z</time>
  <course>356.32</course>
  <speed>25.981181651341416</speed>
  <fix>3d</fix>
</trkpt>
<trkpt lat="-35.2812031" lon="148.9868366">
  <ele>693.05</ele>
  <time>2026-09-01T19:59:56Z</time>
  <course>356.45</course>
  <speed>25.92</speed>
  <fix>3d</fix>
</trkpt>
<trkpt lat="-35.2811366" lon="148.9868314">
  <ele>692.55</ele>
  <time>2026-09-01T19:59:56Z</time>
  <course>356.36</course>
  <speed>25.981181651341416</speed>
  <fix>3d</fix>
</trkpt>
<trkpt lat="-35.2812031" lon="148.9868366">
  <ele>693.05</ele>
  <time>2026-09-01T19:59:56Z</time>
  <course>356.45</course>
  <speed>25.92</speed>
  <fix>3d</fix>
</trkpt>
<trkpt lat="-35.2811134" lon="148.9868296">
  <ele>692.44</ele>
  <time>2026-09-01T19:59:56Z</time>
  <course>356.34</course>
  <speed>25.971201358427763</speed>
  <fix>3d</fix>
</trkpt>
<trkpt lat="-35.2811566" lon="148.9868331">
  <ele>692.83</ele>
  <time>2026-09-01T19:59:56Z</time>
  <course>356.44</course>
  <speed>25.92</speed>
  <fix>3d</fix>
</trkpt>
<trkpt lat="-35.2810902" lon="148.9868279">
  <ele>692.31</ele>
  <time>2026-09-01T19:59:56Z</time>
  <course>356.37</course>
  <speed>25.971201358427763</speed>
  <fix>3d</fix>
</trkpt>
<trkpt lat="-35.2811566" lon="148.9868331">
  <ele>692.83</ele>
  <time>2026-09-01T19:59:56Z</time>
  <course>356.44</course>
  <speed>25.92</speed>
  <fix>3d</fix>
</trkpt>
<trkpt lat="-35.281067" lon="148.9868261">
  <ele>692.19</ele>
  <time>2026-09-01T19:59:56Z</time>
  <course>356.34</course>
  <speed>25.971201358427763</speed>
  <fix>3d</fix>
</trkpt>
<trkpt lat="-35.2811101" lon="148.9868295">
  <ele>692.61</ele>
  <time>2026-09-01T19:59:56Z</time>
  <course>356.43</course>
  <speed>25.92</speed>
  <fix>3d</fix>
</trkpt>
<trkpt lat="-35.2810439" lon="148.9868243">
  <ele>692.07</ele>
  <time>2026-09-01T19:59:56Z</time>
  <course>356.32</course>
  <speed>25.961221080681085</speed>
  <fix>3d</fix>
</trkpt>
<trkpt lat="-35.2811101" lon="148.9868295">
  <ele>692.61</ele>
  <time>2026-09-01T19:59:56Z</time>
  <course>356.43</course>
  <speed>25.92</speed>
  <fix>3d</fix>
</trkpt>
<trkpt lat="-35.2810208" lon="148.9868226">
  <ele>691.94</ele>
  <time>2026-09-01T19:59:56Z</time>
  <course>356.32</course>
  <speed>25.950614636266323</speed>
  <fix>3d</fix>
</trkpt>
<trkpt lat="-35.2810635" lon="148.986826">
  <ele>692.36</ele>
  <time>2026-09-01T19:59:56Z</time>
  <course>356.43</course>
  <speed>25.92</speed>
  <fix>3d</fix>
</trkpt>
<trkpt lat="-35.2809977" lon="148.9868208">
  <ele>691.81</ele>
  <time>2026-09-01T19:59:56Z</time>
  <course>356.31</course>
  <speed>25.940634147992604</speed>
  <fix>3d</fix>
</trkpt>
<trkpt lat="-35.2810635" lon="148.986826">
  <ele>692.36</ele>
  <time>2026-09-01T19:59:56Z</time>
  <course>356.43</course>
  <speed>25.92</speed>
  <fix>3d</fix>
</trkpt>
<trkpt lat="-35.2809747" lon="148.9868191">
  <ele>691.68</ele>
  <time>2026-09-01T19:59:56Z</time>
  <course>356.36</course>
  <speed>25.930653674753362</speed>
  <fix>3d</fix>
</trkpt>
<trkpt lat="-35.281017" lon="148.9868224">
  <ele>692.11</ele>
  <time>2026-09-01T19:59:56Z</time>
  <course>356.43</course>
  <speed>25.92</speed>
  <fix>3d</fix>
</trkpt>
<trkpt lat="-35.2809516" lon="148.9868173">
  <ele>691.54</ele>
  <time>2026-09-01T19:59:56Z</time>
  <course>356.41</course>
  <speed>25.930653674753362</speed>
  <fix>3d</fix>
</trkpt>
<trkpt lat="-35.281017" lon="148.9868224">
  <ele>692.11</ele>
  <time>2026-09-01T19:59:56Z</time>
  <course>356.43</course>
  <speed>25.92</speed>
  <fix>3d</fix>
</trkpt>
<trkpt lat="-35.2809285" lon="148.9868156">
  <ele>691.4</ele>
  <time>2026-09-01T19:59:56Z</time>
  <course>356.37</course>
  <speed>25.920050154272463</speed>
  <fix>3d</fix>
</trkpt>
<trkpt lat="-35.2809705" lon="148.9868189">
  <ele>691.85</ele>
  <time>2026-09-01T19:59:56Z</time>
  <course>356.44</course>
  <speed>25.91</speed>
  <fix>3d</fix>
</trkpt>
<trkpt lat="-35.2809054" lon="148.9868138">
  <ele>691.26</ele>
  <time>2026-09-01T19:59:56Z</time>
  <course>356.31</course>
  <speed>25.910069471153488</speed>
  <fix>3d</fix>
</trkpt>
<trkpt lat="-35.2809705" lon="148.9868189">
  <ele>691.85</ele>
  <time>2026-09-01T19:59:56Z</time>
  <course>356.44</course>
  <speed>25.91</speed>
  <fix>3d</fix>
</trkpt>
<trkpt lat="-35.2808823" lon="148.9868121">
  <ele>691.12</ele>
  <time>2026-09-01T19:59:56Z</time>
  <course>356.3</course>
  <speed>25.900088802936565</speed>
  <fix>3d</fix>
</trkpt>
<trkpt lat="-35.2809241" lon="148.9868153">
  <ele>691.57</ele>
  <time>2026-09-01T19:59:56Z</time>
  <course>356.46</course>
  <speed>25.91</speed>
  <fix>3d</fix>
</trkpt>
<trkpt lat="-35.2808592" lon="148.9868103">
  <ele>690.97</ele>
  <time>2026-09-01T19:59:56Z</time>
  <course>356.33</course>
  <speed>25.900088802936565</speed>
  <fix>3d</fix>
</trkpt>
<trkpt lat="-35.2809241" lon="148.9868153">
  <ele>691.57</ele>
  <time>2026-09-01T19:59:56Z</time>
  <course>356.46</course>
  <speed>25.91</speed>
  <fix>3d</fix>
</trkpt>
<trkpt lat="-35.2808362" lon="148.9868086">
  <ele>690.82</ele>
  <time>2026-09-01T19:59:56Z</time>
  <course>356.38</course>
  <speed>25.900088802936565</speed>
  <fix>3d</fix>
</trkpt>
<trkpt lat="-35.2808776" lon="148.9868118">
  <ele>691.29</ele>
  <time>2026-09-01T19:59:56Z</time>
  <course>356.47</course>
  <speed>25.91</speed>
  <fix>3d</fix>
</trkpt>
<trkpt lat="-35.2808132" lon="148.9868068">
  <ele>690.67</ele>
  <time>2026-09-01T19:59:56Z</time>
  <course>356.39</course>
  <speed>25.900088802936565</speed>
  <fix>3d</fix>
</trkpt>
<trkpt lat="-35.2808776" lon="148.9868118">
  <ele>691.29</ele>
  <time>2026-09-01T19:59:56Z</time>
  <course>356.47</course>
  <speed>25.91</speed>
  <fix>3d</fix>
</trkpt>
<trkpt lat="-35.28079" lon="148.9868051">
  <ele>690.51</ele>
  <time>2026-09-01T19:59:56Z</time>
  <course>356.39</course>
  <speed>25.89946910652803</speed>
  <fix>3d</fix>
</trkpt>
<trkpt lat="-35.2808311" lon="148.9868083">
  <ele>691.0</ele>
  <time>2026-09-01T19:59:56Z</time>
  <course>356.47</course>
  <speed>25.91</speed>
  <fix>3d</fix>
</trkpt>
<trkpt lat="-35.2807668" lon="148.9868033">
  <ele>690.35</ele>
  <time>2026-09-01T19:59:56Z</time>
  <course>356.34</course>
  <speed>25.89946910652803</speed>
  <fix>3d</fix>
</trkpt>
<trkpt lat="-35.2808311" lon="148.9868083">
  <ele>691.0</ele>
  <time>2026-09-01T19:59:56Z</time>
  <course>356.47</course>
  <speed>25.91</speed>
  <fix>3d</fix>
</trkpt>
<trkpt lat="-35.2807434" lon="148.9868016">
  <ele>690.19</ele>
  <time>2026-09-01T19:59:57Z</time>
  <course>356.36</course>
  <speed>25.90945001346034</speed>
  <fix>3d</fix>
</trkpt>
<trkpt lat="-35.2807847" lon="148.9868048">
  <ele>690.69</ele>
  <time>2026-09-01T19:59:57Z</time>
  <course>356.49</course>
  <speed>25.91</speed>
  <fix>3d</fix>
</trkpt>
<trkpt lat="-35.2807199" lon="148.9867998">
  <ele>690.03</ele>
  <time>2026-09-01T19:59:57Z</time>
  <course>356.33</course>
  <speed>25.918815559357643</speed>
  <fix>3d</fix>
</trkpt>
<trkpt lat="-35.2807847" lon="148.9868048">
  <ele>690.69</ele>
  <time>2026-09-01T19:59:57Z</time>
  <course>356.49</course>
  <speed>25.91</speed>
  <fix>3d</fix>
</trkpt>
<trkpt lat="-35.2806966" lon="148.9867981">
  <ele>689.86</ele>
  <time>2026-09-01T19:59:57Z</time>
  <course>356.33</course>
  <speed>25.92941187146365</speed>
  <fix>3d</fix>
</trkpt>
<trkpt lat="-35.2807382" lon="148.9868013">
  <ele>690.37</ele>
  <time>2026-09-01T19:59:57Z</time>
  <course>356.5</course>
  <speed>25.92</speed>
  <fix>3d</fix>
</trkpt>
<trkpt lat="-35.2806732" lon="148.9867963">
  <ele>689.69</ele>
  <time>2026-09-01T19:59:57Z</time>
  <course>356.31</course>
  <speed>25.939392822500686</speed>
  <fix>3d</fix>
</trkpt>
<trkpt lat="-35.2807382" lon="148.9868013">
  <ele>690.37</ele>
  <time>2026-09-01T19:59:57Z</time>
  <course>356.5</course>
  <speed>25.92</speed>
  <fix>3d</fix>
</trkpt>
<trkpt lat="-35.2806498" lon="148.9867946">
  <ele>689.52</ele>
  <time>2026-09-01T19:59:57Z</time>
  <course>356.34</course>
  <speed>25.939392822500686</speed>
  <fix>3d</fix>
</trkpt>
<trkpt lat="-35.2806918" lon="148.9867979">
  <ele>690.04</ele>
  <time>2026-09-01T19:59:57Z</time>
  <course>356.5</course>
  <speed>25.92</speed>
  <fix>3d</fix>
</trkpt>
<trkpt lat="-35.2806265" lon="148.9867928">
  <ele>689.35</ele>
  <time>2026-09-01T19:59:57Z</time>
  <course>356.39</course>
  <speed>25.94937378820537</speed>
  <fix>3d</fix>
</trkpt>
<trkpt lat="-35.2806918" lon="148.9867979">
  <ele>690.04</ele>
  <time>2026-09-01T19:59:57Z</time>
  <course>356.5</course>
  <speed>25.92</speed>
  <fix>3d</fix>
</trkpt>
<trkpt lat="-35.2806032" lon="148.9867911">
  <ele>689.18</ele>
  <time>2026-09-01T19:59:57Z</time>
  <course>356.34</course>
  <speed>25.94937378820537</speed>
  <fix>3d</fix>
</trkpt>
<trkpt lat="-35.2806453" lon="148.9867944">
  <ele>689.7</ele>
  <time>2026-09-01T19:59:57Z</time>
  <course>356.49</course>
  <speed>25.92</speed>
  <fix>3d</fix>
</trkpt>
<trkpt lat="-35.28058" lon="148.9867893">
  <ele>689.0</ele>
  <time>2026-09-01T19:59:57Z</time>
  <course>356.31</course>
  <speed>25.94937378820537</speed>
  <fix>3d</fix>
</trkpt>
<trkpt lat="-35.2806453" lon="148.9867944">
  <ele>689.7</ele>
  <time>2026-09-01T19:59:57Z</time>
  <course>356.49</course>
  <speed>25.92</speed>
  <fix>3d</fix>
</trkpt>
<trkpt lat="-35.2805568" lon="148.9867876">
  <ele>688.83</ele>
  <time>2026-09-01T19:59:57Z</time>
  <course>356.29</course>
  <speed>25.94937378820537</speed>
  <fix>3d</fix>
</trkpt>
<trkpt lat="-35.2805988" lon="148.9867909">
  <ele>689.37</ele>
  <time>2026-09-01T19:59:57Z</time>
  <course>356.49</course>
  <speed>25.92</speed>
  <fix>3d</fix>
</trkpt>
<trkpt lat="-35.2805337" lon="148.9867858">
  <ele>688.65</ele>
  <time>2026-09-01T19:59:57Z</time>
  <course>356.29</course>
  <speed>25.949992292869762</speed>
  <fix>3d</fix>
</trkpt>
<trkpt lat="-35.2805988" lon="148.9867909">
  <ele>689.37</ele>
  <time>2026-09-01T19:59:57Z</time>
  <course>356.49</course>
  <speed>25.92</speed>
  <fix>3d</fix>
</trkpt>
<trkpt lat="-35.2805105" lon="148.9867841">
  <ele>688.47</ele>
  <time>2026-09-01T19:59:57Z</time>
  <course>356.26</course>
  <speed>25.94001156514777</speed>
  <fix>3d</fix>
</trkpt>
<trkpt lat="-35.2805522" lon="148.9867874">
  <ele>689.02</ele>
  <time>2026-09-01T19:59:57Z</time>
  <course>356.49</course>
  <speed>25.93</speed>
  <fix>3d</fix>
</trkpt>
<trkpt lat="-35.2804872" lon="148.9867823">
  <ele>688.29</ele>
  <time>2026-09-01T19:59:57Z</time>
  <course>356.26</course>
  <speed>25.940634147992604</speed>
  <fix>3d</fix>
</trkpt>
<trkpt lat="-35.2805522" lon="148.9867874">
  <ele>689.02</ele>
  <time>2026-09-01T19:59:57Z</time>
  <course>356.49</course>
  <speed>25.93</speed>
  <fix>3d</fix>
</trkpt>
<trkpt lat="-35.280464" lon="148.9867806">
  <ele>688.11</ele>
  <time>2026-09-01T19:59:57Z</time>
  <course>356.24</course>
  <speed>25.930653674753362</speed>
  <fix>3d</fix>
</trkpt>
<trkpt lat="-35.2805057" lon="148.9867839">
  <ele>688.66</ele>
  <time>2026-09-01T19:59:57Z</time>
  <course>356.47</course>
  <speed>25.93</speed>
  <fix>3d</fix>
</trkpt>
<trkpt lat="-35.2804409" lon="148.9867788">
  <ele>687.93</ele>
  <time>2026-09-01T19:59:57Z</time>
  <course>356.24</course>
  <speed>25.931280338618066</speed>
  <fix>3d</fix>
</trkpt>
<trkpt lat="-35.2805057" lon="148.9867839">
  <ele>688.66</ele>
  <time>2026-09-01T19:59:57Z</time>
  <course>356.47</course>
  <speed>25.93</speed>
  <fix>3d</fix>
</trkpt>
<trkpt lat="-35.2804177" lon="148.9867771">
  <ele>687.74</ele>
  <time>2026-09-01T19:59:57Z</time>
  <course>356.23</course>
  <speed>25.921300121714577</speed>
  <fix>3d</fix>
</trkpt>
<trkpt lat="-35.2804592" lon="148.9867803">
  <ele>688.3</ele>
  <time>2026-09-01T19:59:57Z</time>
  <course>356.45</course>
  <speed>25.93</speed>
  <fix>3d</fix>
</trkpt>
<trkpt lat="-35.2803946" lon="148.9867753">
  <ele>687.56</ele>
  <time>2026-09-01T19:59:57Z</time>
  <course>356.22</course>
  <speed>25.921300121714577</speed>
  <fix>3d</fix>
</trkpt>
<trkpt lat="-35.2804592" lon="148.9867803">
  <ele>688.3</ele>
  <time>2026-09-01T19:59:57Z</time>
  <course>356.45</course>
  <speed>25.93</speed>
  <fix>3d</fix>
</trkpt>
<trkpt lat="-35.2803715" lon="148.9867735">
  <ele>687.37</ele>
  <time>2026-09-01T19:59:57Z</time>
  <course>356.21</course>
  <speed>25.911950910728432</speed>
  <fix>3d</fix>
</trkpt>
<trkpt lat="-35.2804127" lon="148.9867768">
  <ele>687.93</ele>
  <time>2026-09-01T19:59:57Z</time>
  <course>356.43</course>
  <speed>25.93</speed>
  <fix>3d</fix>
</trkpt>
<trkpt lat="-35.2803485" lon="148.9867717">
  <ele>687.19</ele>
  <time>2026-09-01T19:59:57Z</time>
  <course>356.2</course>
  <speed>25.911319920065825</speed>
  <fix>3d</fix>
</trkpt>
<trkpt lat="-35.2804127" lon="148.9867768">
  <ele>687.93</ele>
  <time>2026-09-01T19:59:57Z</time>
  <course>356.43</course>
  <speed>25.93</speed>
  <fix>3d</fix>
</trkpt>
<trkpt lat="-35.2803252" lon="148.98677">
  <ele>687.0</ele>
  <time>2026-09-01T19:59:57Z</time>
  <course>356.17</course>
  <speed>25.911950910728432</speed>
  <fix>3d</fix>
</trkpt>
<trkpt lat="-35.2803662" lon="148.9867732">
  <ele>687.57</ele>
  <time>2026-09-01T19:59:57Z</time>
  <course>356.42</course>
  <speed>25.92</speed>
  <fix>3d</fix>
</trkpt>
<trkpt lat="-35.280302" lon="148.9867682">
  <ele>686.81</ele>
  <time>2026-09-01T19:59:57Z</time>
  <course>356.15</course>
  <speed>25.911950910728432</speed>
  <fix>3d</fix>
</trkpt>
<trkpt lat="-35.2803662" lon="148.9867732">
  <ele>687.57</ele>
  <time>2026-09-01T19:59:57Z</time>
  <course>356.42</course>
  <speed>25.92</speed>
  <fix>3d</fix>
</trkpt>
<trkpt lat="-35.2802786" lon="148.9867664">
  <ele>686.62</ele>
  <time>2026-09-01T19:59:57Z</time>
  <course>356.11</course>
  <speed>25.921930869439493</speed>
  <fix>3d</fix>
</trkpt>
<trkpt lat="-35.2803198" lon="148.9867697">
  <ele>687.2</ele>
  <time>2026-09-01T19:59:57Z</time>
  <course>356.41</course>
  <speed>25.92</speed>
  <fix>3d</fix>
</trkpt>
<trkpt lat="-35.2802553" lon="148.9867646">
  <ele>686.43</ele>
  <time>2026-09-01T19:59:57Z</time>
  <course>356.09</course>
  <speed>25.92256545946022</speed>
  <fix>3d</fix>
</trkpt>
<trkpt lat="-35.2803198" lon="148.9867697">
  <ele>687.2</ele>
  <time>2026-09-01T19:59:57Z</time>
  <course>356.41</course>
  <speed>25.92</speed>
  <fix>3d</fix>
</trkpt>
<trkpt lat="-35.2802317" lon="148.9867627">
  <ele>686.24</ele>
  <time>2026-09-01T19:59:57Z</time>
  <course>356.09</course>
  <speed>25.933183375744676</speed>
  <fix>3d</fix>
</trkpt>
<trkpt lat="-35.2802733" lon="148.9867661">
  <ele>686.83</ele>
  <time>2026-09-01T19:59:57Z</time>
  <course>356.39</course>
  <speed>25.92</speed>
  <fix>3d</fix>
</trkpt>
<trkpt lat="-35.2802084" lon="148.9867609">
  <ele>686.05</ele>
  <time>2026-09-01T19:59:57Z</time>
  <course>356.12</course>
  <speed>25.933183375744676</speed>
  <fix>3d</fix>
</trkpt>
<trkpt lat="-35.2802733" lon="148.9867661">
  <ele>686.83</ele>
  <time>2026-09-01T19:59:57Z</time>
  <course>356.39</course>
  <speed>25.92</speed>
  <fix>3d</fix>
</trkpt>
<trkpt lat="-35.280185" lon="148.9867591">
  <ele>685.86</ele>
  <time>2026-09-01T19:59:57Z</time>
  <course>356.14</course>
  <speed>25.943162875794464</speed>
  <fix>3d</fix>
</trkpt>
<trkpt lat="-35.2802268" lon="148.9867626">
  <ele>686.45</ele>
  <time>2026-09-01T19:59:57Z</time>
  <course>356.36</course>
  <speed>25.92</speed>
  <fix>3d</fix>
</trkpt>
<trkpt lat="-35.2801616" lon="148.9867573">
  <ele>685.67</ele>
  <time>2026-09-01T19:59:57Z</time>
  <course>356.14</course>
  <speed>25.943804655447124</speed>
  <fix>3d</fix>
</trkpt>
<trkpt lat="-35.2802268" lon="148.9867626">
  <ele>686.45</ele>
  <time>2026-09-01T19:59:57Z</time>
  <course>356.36</course>
  <speed>25.92</speed>
  <fix>3d</fix>
</trkpt>
<trkpt lat="-35.2801382" lon="148.9867554">
  <ele>685.47</ele>
  <time>2026-09-01T19:59:57Z</time>
  <course>356.12</course>
  <speed>25.95378392450704</speed>
  <fix>3d</fix>
</trkpt>
<trkpt lat="-35.2801804" lon="148.9867589">
  <ele>686.07</ele>
  <time>2026-09-01T19:59:57Z</time>
  <course>356.34</course>
  <speed>25.92</speed>
  <fix>3d</fix>
</trkpt>
<trkpt lat="-35.2801149" lon="148.9867536">
  <ele>685.29</ele>
  <time>2026-09-01T19:59:57Z</time>
  <course>356.11</course>
  <speed>25.95378392450704</speed>
  <fix>3d</fix>
</trkpt>
<trkpt lat="-35.2801804" lon="148.9867589">
  <ele>686.07</ele>
  <time>2026-09-01T19:59:57Z</time>
  <course>356.34</course>
  <speed>25.92</speed>
  <fix>3d</fix>
</trkpt>
<trkpt lat="-35.2800917" lon="148.9867518">
  <ele>685.1</ele>
  <time>2026-09-01T19:59:57Z</time>
  <course>356.1</course>
  <speed>25.95378392450704</speed>
  <fix>3d</fix>
</trkpt>
<trkpt lat="-35.2801339" lon="148.9867553">
  <ele>685.69</ele>
  <time>2026-09-01T19:59:57Z</time>
  <course>356.34</course>
  <speed>25.91</speed>
  <fix>3d</fix>
</trkpt>
<trkpt lat="-35.2800684" lon="148.98675">
  <ele>684.91</ele>
  <time>2026-09-01T19:59:57Z</time>
  <course>356.09</course>
  <speed>25.95378392450704</speed>
  <fix>3d</fix>
</trkpt>
<trkpt lat="-35.2801339" lon="148.9867553">
  <ele>685.69</ele>
  <time>2026-09-01T19:59:57Z</time>
  <course>356.34</course>
  <speed>25.91</speed>
  <fix>3d</fix>
</trkpt>
<trkpt lat="-35.2800453" lon="148.9867482">
  <ele>684.73</ele>
  <time>2026-09-01T19:59:57Z</time>
  <course>356.06</course>
  <speed>25.943804655447124</speed>
  <fix>3d</fix>
</trkpt>
<trkpt lat="-35.2800874" lon="148.9867516">
  <ele>685.31</ele>
  <time>2026-09-01T19:59:57Z</time>
  <course>356.33</course>
  <speed>25.91</speed>
  <fix>3d</fix>
</trkpt>
<trkpt lat="-35.2800221" lon="148.9867464">
  <ele>684.54</ele>
  <time>2026-09-01T19:59:57Z</time>
  <course>355.99</course>
  <speed>25.934471268950134</speed>
  <fix>3d</fix>
</trkpt>
<trkpt lat="-35.2800874" lon="148.9867516">
  <ele>685.31</ele>
  <time>2026-09-01T19:59:57Z</time>
  <course>356.33</course>
  <speed>25.91</speed>
  <fix>3d</fix>
</trkpt>
<trkpt lat="-35.279999" lon="148.9867445">
  <ele>684.36</ele>
  <time>2026-09-01T19:59:57Z</time>
  <course>355.98</course>
  <speed>25.925142236832567</speed>
  <fix>3d</fix>
</trkpt>
<trkpt lat="-35.2800408" lon="148.9867479">
  <ele>684.93</ele>
  <time>2026-09-01T19:59:57Z</time>
  <course>356.32</course>
  <speed>25.9</speed>
  <fix>3d</fix>
</trkpt>
<trkpt lat="-35.2799759" lon="148.9867427">
  <ele>684.18</ele>
  <time>2026-09-01T19:59:57Z</time>
  <course>356.0</course>
  <speed>25.915163514822744</speed>
  <fix>3d</fix>
</trkpt>
<trkpt lat="-35.2800408" lon="148.9867479">
  <ele>684.93</ele>
  <time>2026-09-01T19:59:57Z</time>
  <course>356.32</course>
  <speed>25.9</speed>
  <fix>3d</fix>
</trkpt>
<trkpt lat="-35.2799528" lon="148.9867409">
  <ele>683.99</ele>
  <time>2026-09-01T19:59:57Z</time>
  <course>356.02</course>
  <speed>25.905184809223037</speed>
  <fix>3d</fix>
</trkpt>
<trkpt lat="-35.2799944" lon="148.9867443">
  <ele>684.57</ele>
  <time>2026-09-01T19:59:57Z</time>
  <course>356.29</course>
  <speed>25.89</speed>
  <fix>3d</fix>
</trkpt>
<trkpt lat="-35.2799297" lon="148.986739">
  <ele>683.81</ele>
  <time>2026-09-01T19:59:57Z</time>
  <course>356.05</course>
  <speed>25.89520612005241</speed>
  <fix>3d</fix>
</trkpt>
<trkpt lat="-35.2799944" lon="148.9867443">
  <ele>684.57</ele>
  <time>2026-09-01T19:59:57Z</time>
  <course>356.29</course>
  <speed>25.89</speed>
  <fix>3d</fix>
</trkpt>
<trkpt lat="-35.2799066" lon="148.9867372">
  <ele>683.62</ele>
  <time>2026-09-01T19:59:57Z</time>
  <course>356.03</course>
  <speed>25.885227447329875</speed>
  <fix>3d</fix>
</trkpt>
<trkpt lat="-35.279948" lon="148.9867406">
  <ele>684.2</ele>
  <time>2026-09-01T19:59:57Z</time>
  <course>356.28</course>
  <speed>25.89</speed>
  <fix>3d</fix>
</trkpt>
<trkpt lat="-35.2798835" lon="148.9867353">
  <ele>683.44</ele>
  <time>2026-09-01T19:59:57Z</time>
  <course>356.02</course>
  <speed>25.875248791074455</speed>
  <fix>3d</fix>
</trkpt>
<trkpt lat="-35.279948" lon="148.9867406">
  <ele>684.2</ele>
  <time>2026-09-01T19:59:57Z</time>
  <course>356.28</course>
  <speed>25.89</speed>
  <fix>3d</fix>
</trkpt>
<trkpt lat="-35.2798604" lon="148.9867335">
  <ele>683.25</ele>
  <time>2026-09-01T19:59:57Z</time>
  <course>356.02</course>
  <speed>25.864618690404075</speed>
  <fix>3d</fix>
</trkpt>
<trkpt lat="-35.2799016" lon="148.9867369">
  <ele>683.83</ele>
  <time>2026-09-01T19:59:57Z</time>
  <course>356.28</course>
  <speed>25.88</speed>
  <fix>3d</fix>
</trkpt>
<trkpt lat="-35.2798373" lon="148.9867317">
  <ele>683.07</ele>
  <time>2026-09-01T19:59:57Z</time>
  <course>355.99</course>
  <speed>25.864618690404075</speed>
  <fix>3d</fix>
</trkpt>
<trkpt lat="-35.2799016" lon="148.9867369">
  <ele>683.83</ele>
  <time>2026-09-01T19:59:57Z</time>
  <course>356.28</course>
  <speed>25.88</speed>
  <fix>3d</fix>
</trkpt>
<trkpt lat="-35.2798142" lon="148.9867299">
  <ele>682.88</ele>
  <time>2026-09-01T19:59:57Z</time>
  <course>355.96</course>
  <speed>25.85463981570813</speed>
  <fix>3d</fix>
</trkpt>
<trkpt lat="-35.2798552" lon="148.9867332">
  <ele>683.46</ele>
  <time>2026-09-01T19:59:57Z</time>
  <course>356.29</course>
  <speed>25.87</speed>
  <fix>3d</fix>
</trkpt>
<trkpt lat="-35.2797911" lon="148.986728">
  <ele>682.7</ele>
  <time>2026-09-01T19:59:57Z</time>
  <course>355.97</course>
  <speed>25.84466095734281</speed>
  <fix>3d</fix>
</trkpt>
<trkpt lat="-35.2798552" lon="148.9867332">
  <ele>683.46</ele>
  <time>2026-09-01T19:59:57Z</time>
  <course>356.29</course>
  <speed>25.87</speed>
  <fix>3d</fix>
</trkpt>
<trkpt lat="-35.2797677" lon="148.9867262">
  <ele>682.51</ele>
  <time>2026-09-01T19:59:57Z</time>
  <course>356.02</course>
  <speed>25.84401284630543</speed>
  <fix>3d</fix>
</trkpt>
<trkpt lat="-35.2798089" lon="148.9867296">
  <ele>683.09</ele>
  <time>2026-09-01T19:59:57Z</time>
  <course>356.29</course>
  <speed>25.86</speed>
  <fix>3d</fix>
</trkpt>
<trkpt lat="-35.2797445" lon="148.9867243">
  <ele>682.33</ele>
  <time>2026-09-01T19:59:57Z</time>
  <course>356.0</course>
  <speed>25.84401284630543</speed>
  <fix>3d</fix>
</trkpt>
<trkpt lat="-35.2798089" lon="148.9867296">
  <ele>683.09</ele>
  <time>2026-09-01T19:59:57Z</time>
  <course>356.29</course>
  <speed>25.86</speed>
  <fix>3d</fix>
</trkpt>
<trkpt lat="-35.2797213" lon="148.9867225">
  <ele>682.14</ele>
  <time>2026-09-01T19:59:57Z</time>
  <course>356.01</course>
  <speed>25.84336858847933</speed>
  <fix>3d</fix>
</trkpt>
<trkpt lat="-35.2797625" lon="148.9867259">
  <ele>682.72</ele>
  <time>2026-09-01T19:59:57Z</time>
  <course>356.31</course>
  <speed>25.85</speed>
  <fix>3d</fix>
</trkpt>
<trkpt lat="-35.279698" lon="148.9867207">
  <ele>681.96</ele>
  <time>2026-09-01T19:59:57Z</time>
  <course>356.04</course>
  <speed>25.84336858847933</speed>
  <fix>3d</fix>
</trkpt>
<trkpt lat="-35.2797625" lon="148.9867259">
  <ele>682.72</ele>
  <time>2026-09-01T19:59:57Z</time>
  <course>356.31</course>
  <speed>25.85</speed>
  <fix>3d</fix>
</trkpt>
<trkpt lat="-35.2796747" lon="148.9867189">
  <ele>681.78</ele>
  <time>2026-09-01T19:59:57Z</time>
  <course>356.04</course>
  <speed>25.842728184152694</speed>
  <fix>3d</fix>
</trkpt>
<trkpt lat="-35.2797161" lon="148.9867223">
  <ele>682.35</ele>
  <time>2026-09-01T19:59:57Z</time>
  <course>356.33</course>
  <speed>25.84</speed>
  <fix>3d</fix>
</trkpt>
<trkpt lat="-35.2796514" lon="148.9867171">
  <ele>681.59</ele>
  <time>2026-09-01T19:59:57Z</time>
  <course>356.04</course>
  <speed>25.842728184152694</speed>
  <fix>3d</fix>
</trkpt>
<trkpt lat="-35.2797161" lon="148.9867223">
  <ele>682.35</ele>
  <time>2026-09-01T19:59:57Z</time>
  <course>356.33</course>
  <speed>25.84</speed>
  <fix>3d</fix>
</trkpt>
<trkpt lat="-35.2796283" lon="148.9867153">
  <ele>681.41</ele>
  <time>2026-09-01T19:59:57Z</time>
  <course>356.07</course>
  <speed>25.832111799076745</speed>
  <fix>3d</fix>
</trkpt>
<trkpt lat="-35.2796698" lon="148.9867186">
  <ele>681.99</ele>
  <time>2026-09-01T19:59:57Z</time>
  <course>356.35</course>
  <speed>25.83</speed>
  <fix>3d</fix>
</trkpt>
<trkpt lat="-35.2796051" lon="148.9867135">
  <ele>681.22</ele>
  <time>2026-09-01T19:59:57Z</time>
  <course>356.08</course>
  <speed>25.832111799076745</speed>
  <fix>3d</fix>
</trkpt>
<trkpt lat="-35.2796698" lon="148.9867186">
  <ele>681.99</ele>
  <time>2026-09-01T19:59:57Z</time>
  <course>356.35</course>
  <speed>25.83</speed>
  <fix>3d</fix>
</trkpt>
<trkpt lat="-35.279582" lon="148.9867117">
  <ele>681.03</ele>
  <time>2026-09-01T19:59:57Z</time>
  <course>356.1</course>
  <speed>25.821498794609116</speed>
  <fix>3d</fix>
</trkpt>
<trkpt lat="-35.2796236" lon="148.986715">
  <ele>681.62</ele>
  <time>2026-09-01T19:59:57Z</time>
  <course>356.37</course>
  <speed>25.82</speed>
  <fix>3d</fix>
</trkpt>
<trkpt lat="-35.2795589" lon="148.9867099">
  <ele>680.85</ele>
  <time>2026-09-01T19:59:57Z</time>
  <course>356.12</course>
  <speed>25.820869466383197</speed>
  <fix>3d</fix>
</trkpt>
<trkpt lat="-35.2796236" lon="148.986715">
  <ele>681.62</ele>
  <time>2026-09-01T19:59:57Z</time>
  <course>356.37</course>
  <speed>25.82</speed>
  <fix>3d</fix>
</trkpt>
<trkpt lat="-35.2795359" lon="148.9867082">
  <ele>680.66</ele>
  <time>2026-09-01T19:59:57Z</time>
  <course>356.13</course>
  <speed>25.810889174919954</speed>
  <fix>3d</fix>
</trkpt>
<trkpt lat="-35.2795772" lon="148.9867114">
  <ele>681.24</ele>
  <time>2026-09-01T19:59:57Z</time>
  <course>356.39</course>
  <speed>25.81</speed>
  <fix>3d</fix>
</trkpt>
<trkpt lat="-35.2795129" lon="148.9867064">
  <ele>680.48</ele>
  <time>2026-09-01T19:59:57Z</time>
  <course>356.14</course>
  <speed>25.800282944184932</speed>
  <fix>3d</fix>
</trkpt>
<trkpt lat="-35.2795772" lon="148.9867114">
  <ele>681.24</ele>
  <time>2026-09-01T19:59:57Z</time>
  <course>356.39</course>
  <speed>25.81</speed>
  <fix>3d</fix>
</trkpt>
<trkpt lat="-35.2794898" lon="148.9867047">
  <ele>680.3</ele>
  <time>2026-09-01T19:59:57Z</time>
  <course>356.19</course>
  <speed>25.79030244103392</speed>
  <fix>3d</fix>
</trkpt>
<trkpt lat="-35.2795309" lon="148.9867079">
  <ele>680.87</ele>
  <time>2026-09-01T19:59:57Z</time>
  <course>356.42</course>
  <speed>25.8</speed>
  <fix>3d</fix>
</trkpt>
<trkpt lat="-35.2794668" lon="148.9867029">
  <ele>680.11</ele>
  <time>2026-09-01T19:59:57Z</time>
  <course>356.2</course>
  <speed>25.77969937761106</speed>
  <fix>3d</fix>
</trkpt>
<trkpt lat="-35.2795309" lon="148.9867079">
  <ele>680.87</ele>
  <time>2026-09-01T19:59:57Z</time>
  <course>356.42</course>
  <speed>25.8</speed>
  <fix>3d</fix>
</trkpt>
<trkpt lat="-35.2794438" lon="148.9867012">
  <ele>679.93</ele>
  <time>2026-09-01T19:59:57Z</time>
  <course>356.17</course>
  <speed>25.77969937761106</speed>
  <fix>3d</fix>
</trkpt>
<trkpt lat="-35.2794846" lon="148.9867043">
  <ele>680.51</ele>
  <time>2026-09-01T19:59:57Z</time>
  <course>356.44</course>
  <speed>25.79</speed>
  <fix>3d</fix>
</trkpt>
<trkpt lat="-35.2794207" lon="148.9866994">
  <ele>679.74</ele>
  <time>2026-09-01T19:59:57Z</time>
  <course>356.18</course>
  <speed>25.769718663578768</speed>
  <fix>3d</fix>
</trkpt>
<trkpt lat="-35.2794846" lon="148.9867043">
  <ele>680.51</ele>
  <time>2026-09-01T19:59:57Z</time>
  <course>356.44</course>
  <speed>25.79</speed>
  <fix>3d</fix>
</trkpt>
<trkpt lat="-35.2793977" lon="148.9866977">
  <ele>679.55</ele>
  <time>2026-09-01T19:59:57Z</time>
  <course>356.15</course>
  <speed>25.769099712640333</speed>
  <fix>3d</fix>
</trkpt>
<trkpt lat="-35.2794383" lon="148.9867008">
  <ele>680.14</ele>
  <time>2026-09-01T19:59:57Z</time>
  <course>356.46</course>
  <speed>25.78</speed>
  <fix>3d</fix>
</trkpt>
<trkpt lat="-35.2793746" lon="148.9866959">
  <ele>679.36</ele>
  <time>2026-09-01T19:59:57Z</time>
  <course>356.13</course>
  <speed>25.7591187737469</speed>
  <fix>3d</fix>
</trkpt>
<trkpt lat="-35.2794383" lon="148.9867008">
  <ele>680.14</ele>
  <time>2026-09-01T19:59:57Z</time>
  <course>356.46</course>
  <speed>25.78</speed>
  <fix>3d</fix>
</trkpt>
<trkpt lat="-35.2793516" lon="148.9866942">
  <ele>679.17</ele>
  <time>2026-09-01T19:59:57Z</time>
  <course>356.15</course>
  <speed>25.7591187737469</speed>
  <fix>3d</fix>
</trkpt>
<trkpt lat="-35.2793921" lon="148.9866973">
  <ele>679.76</ele>
  <time>2026-09-01T19:59:57Z</time>
  <course>356.47</course>
  <speed>25.77</speed>
  <fix>3d</fix>
</trkpt>
<trkpt lat="-35.2793286" lon="148.9866925">
  <ele>678.99</ele>
  <time>2026-09-01T19:59:57Z</time>
  <course>356.15</course>
  <speed>25.749137849644598</speed>
  <fix>3d</fix>
</trkpt>
<trkpt lat="-35.2793921" lon="148.9866973">
  <ele>679.76</ele>
  <time>2026-09-01T19:59:57Z</time>
  <course>356.47</course>
  <speed>25.77</speed>
  <fix>3d</fix>
</trkpt>
<trkpt lat="-35.2793055" lon="148.9866907">
  <ele>678.8</ele>
  <time>2026-09-01T19:59:57Z</time>
  <course>356.15</course>
  <speed>25.749137849644598</speed>
  <fix>3d</fix>
</trkpt>
<trkpt lat="-35.2793459" lon="148.9866938">
  <ele>679.39</ele>
  <time>2026-09-01T19:59:57Z</time>
  <course>356.48</course>
  <speed>25.76</speed>
  <fix>3d</fix>
</trkpt>
<trkpt lat="-35.2792827" lon="148.986689">
  <ele>678.61</ele>
  <time>2026-09-01T19:59:57Z</time>
  <course>356.14</course>
  <speed>25.749137849644598</speed>
  <fix>3d</fix>
</trkpt>
<trkpt lat="-35.2793459" lon="148.9866938">
  <ele>679.39</ele>
  <time>2026-09-01T19:59:57Z</time>
  <course>356.48</course>
  <speed>25.76</speed>
  <fix>3d</fix>
</trkpt>
<trkpt lat="-35.2792595" lon="148.9866873">
  <ele>678.43</ele>
  <time>2026-09-01T19:59:57Z</time>
  <course>356.16</course>
  <speed>25.749137849644598</speed>
  <fix>3d</fix>
</trkpt>
<trkpt lat="-35.2792997" lon="148.9866904">
  <ele>679.01</ele>
  <time>2026-09-01T19:59:57Z</time>
  <course>356.49</course>
  <speed>25.76</speed>
  <fix>3d</fix>
</trkpt>
<trkpt lat="-35.2792363" lon="148.9866855">
  <ele>678.24</ele>
  <time>2026-09-01T19:59:57Z</time>
  <course>356.16</course>
  <speed>25.74852228769643</speed>
  <fix>3d</fix>
</trkpt>
<trkpt lat="-35.2792997" lon="148.9866904">
  <ele>679.01</ele>
  <time>2026-09-01T19:59:57Z</time>
  <course>356.49</course>
  <speed>25.76</speed>
  <fix>3d</fix>
</trkpt>
<trkpt lat="-35.2792127" lon="148.9866837">
  <ele>678.06</ele>
  <time>2026-09-01T19:59:57Z</time>
  <course>356.15</course>
  <speed>25.75850345031714</speed>
  <fix>3d</fix>
</trkpt>
<trkpt lat="-35.2792536" lon="148.9866869">
  <ele>678.64</ele>
  <time>2026-09-01T19:59:57Z</time>
  <course>356.49</course>
  <speed>25.75</speed>
  <fix>3d</fix>
</trkpt>
<trkpt lat="-35.2791895" lon="148.986682">
  <ele>677.88</ele>
  <time>2026-09-01T19:59:57Z</time>
  <course>356.12</course>
  <speed>25.75850345031714</speed>
  <fix>3d</fix>
</trkpt>
<trkpt lat="-35.2792536" lon="148.9866869">
  <ele>678.64</ele>
  <time>2026-09-01T19:59:57Z</time>
  <course>356.49</course>
  <speed>25.75</speed>
  <fix>3d</fix>
</trkpt>
<trkpt lat="-35.2791663" lon="148.9866803">
  <ele>677.7</ele>
  <time>2026-09-01T19:59:57Z</time>
  <course>356.15</course>
  <speed>25.768484627544552</speed>
  <fix>3d</fix>
</trkpt>
<trkpt lat="-35.2792075" lon="148.9866834">
  <ele>678.28</ele>
  <time>2026-09-01T19:59:57Z</time>
  <course>356.49</course>
  <speed>25.75</speed>
  <fix>3d</fix>
</trkpt>
<trkpt lat="-35.2791432" lon="148.9866785">
  <ele>677.52</ele>
  <time>2026-09-01T19:59:57Z</time>
  <course>356.15</course>
  <speed>25.768484627544552</speed>
  <fix>3d</fix>
</trkpt>
<trkpt lat="-35.2792075" lon="148.9866834">
  <ele>678.28</ele>
  <time>2026-09-01T19:59:57Z</time>
  <course>356.49</course>
  <speed>25.75</speed>
  <fix>3d</fix>
</trkpt>
<trkpt lat="-35.2791201" lon="148.9866768">
  <ele>677.35</ele>
  <time>2026-09-01T19:59:57Z</time>
  <course>356.15</course>
  <speed>25.768484627544552</speed>
  <fix>3d</fix>
</trkpt>
<trkpt lat="-35.2791613" lon="148.98668">
  <ele>677.92</ele>
  <time>2026-09-01T19:59:57Z</time>
  <course>356.49</course>
  <speed>25.75</speed>
  <fix>3d</fix>
</trkpt>
<trkpt lat="-35.279097" lon="148.9866751">
  <ele>677.18</ele>
  <time>2026-09-01T19:59:57Z</time>
  <course>356.16</course>
  <speed>25.768484627544552</speed>
  <fix>3d</fix>
</trkpt>
<trkpt lat="-35.2791613" lon="148.98668">
  <ele>677.92</ele>
  <time>2026-09-01T19:59:57Z</time>
  <course>356.49</course>
  <speed>25.75</speed>
  <fix>3d</fix>
</trkpt>
<trkpt lat="-35.2790739" lon="148.9866733">
  <ele>677.01</ele>
  <time>2026-09-01T19:59:57Z</time>
  <course>356.18</course>
  <speed>25.768484627544552</speed>
  <fix>3d</fix>
</trkpt>
<trkpt lat="-35.279115" lon="148.9866765">
  <ele>677.57</ele>
  <time>2026-09-01T19:59:57Z</time>
  <course>356.49</course>
  <speed>25.75</speed>
  <fix>3d</fix>
</trkpt>
<trkpt lat="-35.2790508" lon="148.9866716">
  <ele>676.84</ele>
  <time>2026-09-01T19:59:57Z</time>
  <course>356.2</course>
  <speed>25.768484627544552</speed>
  <fix>3d</fix>
</trkpt>
<trkpt lat="-35.279115" lon="148.9866765">
  <ele>677.57</ele>
  <time>2026-09-01T19:59:57Z</time>
  <course>356.49</course>
  <speed>25.75</speed>
  <fix>3d</fix>
</trkpt>
<trkpt lat="-35.2790277" lon="148.9866699">
  <ele>676.67</ele>
  <time>2026-09-01T19:59:57Z</time>
  <course>356.18</course>
  <speed>25.768484627544552</speed>
  <fix>3d</fix>
</trkpt>
<trkpt lat="-35.2790688" lon="148.9866731">
  <ele>677.23</ele>
  <time>2026-09-01T19:59:57Z</time>
  <course>356.49</course>
  <speed>25.74</speed>
  <fix>3d</fix>
</trkpt>
<trkpt lat="-35.2790046" lon="148.9866682">
  <ele>676.5</ele>
  <time>2026-09-01T19:59:57Z</time>
  <course>356.17</course>
  <speed>25.768484627544552</speed>
  <fix>3d</fix>
</trkpt>
<trkpt lat="-35.2790688" lon="148.9866731">
  <ele>677.23</ele>
  <time>2026-09-01T19:59:57Z</time>
  <course>356.49</course>
  <speed>25.74</speed>
  <fix>3d</fix>
</trkpt>
<trkpt lat="-35.2789815" lon="148.9866664">
  <ele>676.33</ele>
  <time>2026-09-01T19:59:57Z</time>
  <course>356.16</course>
  <speed>25.768484627544552</speed>
  <fix>3d</fix>
</trkpt>
<trkpt lat="-35.2790226" lon="148.9866696">
  <ele>676.89</ele>
  <time>2026-09-01T19:59:57Z</time>
  <course>356.49</course>
  <speed>25.74</speed>
  <fix>3d</fix>
</trkpt>
<trkpt lat="-35.2789583" lon="148.9866647">
  <ele>676.16</ele>
  <time>2026-09-01T19:59:57Z</time>
  <course>356.14</course>
  <speed>25.767873408568274</speed>
  <fix>3d</fix>
</trkpt>
<trkpt lat="-35.2790226" lon="148.9866696">
  <ele>676.89</ele>
  <time>2026-09-01T19:59:57Z</time>
  <course>356.49</course>
  <speed>25.74</speed>
  <fix>3d</fix>
</trkpt>
<trkpt lat="-35.2789352" lon="148.986663">
  <ele>676.0</ele>
  <time>2026-09-01T19:59:57Z</time>
  <course>356.15</course>
  <speed>25.767873408568274</speed>
  <fix>3d</fix>
</trkpt>
<trkpt lat="-35.2789765" lon="148.9866661">
  <ele>676.55</ele>
  <time>2026-09-01T19:59:57Z</time>
  <course>356.5</course>
  <speed>25.74</speed>
  <fix>3d</fix>
</trkpt>
<trkpt lat="-35.2789121" lon="148.9866613">
  <ele>675.82</ele>
  <time>2026-09-01T19:59:57Z</time>
  <course>356.17</course>
  <speed>25.768484627544552</speed>
  <fix>3d</fix>
</trkpt>
<trkpt lat="-35.2789765" lon="148.9866661">
  <ele>676.55</ele>
  <time>2026-09-01T19:59:57Z</time>
  <course>356.5</course>
  <speed>25.74</speed>
  <fix>3d</fix>
</trkpt>
<trkpt lat="-35.278889" lon="148.9866595">
  <ele>675.65</ele>
  <time>2026-09-01T19:59:57Z</time>
  <course>356.18</course>
  <speed>25.767873408568274</speed>
  <fix>3d</fix>
</trkpt>
<trkpt lat="-35.2789303" lon="148.9866627">
  <ele>676.2</ele>
  <time>2026-09-01T19:59:57Z</time>
  <course>356.5</course>
  <speed>25.73</speed>
  <fix>3d</fix>
</trkpt>
<trkpt lat="-35.2788659" lon="148.9866578">
  <ele>675.48</ele>
  <time>2026-09-01T19:59:57Z</time>
  <course>356.2</course>
  <speed>25.767873408568274</speed>
  <fix>3d</fix>
</trkpt>
<trkpt lat="-35.2789303" lon="148.9866627">
  <ele>676.2</ele>
  <time>2026-09-01T19:59:57Z</time>
  <course>356.5</course>
  <speed>25.73</speed>
  <fix>3d</fix>
</trkpt>
<trkpt lat="-35.2788428" lon="148.9866561">
  <ele>675.31</ele>
  <time>2026-09-01T19:59:57Z</time>
  <course>356.2</course>
  <speed>25.767873408568274</speed>
  <fix>3d</fix>
</trkpt>
<trkpt lat="-35.2788842" lon="148.9866592">
  <ele>675.87</ele>
  <time>2026-09-01T19:59:57Z</time>
  <course>356.5</course>
  <speed>25.73</speed>
  <fix>3d</fix>
</trkpt>
<trkpt lat="-35.2788197" lon="148.9866544">
  <ele>675.15</ele>
  <time>2026-09-01T19:59:57Z</time>
  <course>356.19</course>
  <speed>25.767873408568274</speed>
  <fix>3d</fix>
</trkpt>
<trkpt lat="-35.2788842" lon="148.9866592">
  <ele>675.87</ele>
  <time>2026-09-01T19:59:57Z</time>
  <course>356.5</course>
  <speed>25.73</speed>
  <fix>3d</fix>
</trkpt>
<trkpt lat="-35.2787968" lon="148.9866527">
  <ele>674.98</ele>
  <time>2026-09-01T19:59:57Z</time>
  <course>356.19</course>
  <speed>25.767873408568274</speed>
  <fix>3d</fix>
</trkpt>
<trkpt lat="-35.2788381" lon="148.9866558">
  <ele>675.53</ele>
  <time>2026-09-01T19:59:57Z</time>
  <course>356.51</course>
  <speed>25.73</speed>
  <fix>3d</fix>
</trkpt>
<trkpt lat="-35.2787737" lon="148.9866509">
  <ele>674.81</ele>
  <time>2026-09-01T19:59:57Z</time>
  <course>356.22</course>
  <speed>25.767873408568274</speed>
  <fix>3d</fix>
</trkpt>
<trkpt lat="-35.2788381" lon="148.9866558">
  <ele>675.53</ele>
  <time>2026-09-01T19:59:57Z</time>
  <course>356.51</course>
  <speed>25.73</speed>
  <fix>3d</fix>
</trkpt>
<trkpt lat="-35.2787506" lon="148.9866492">
  <ele>674.64</ele>
  <time>2026-09-01T19:59:57Z</time>
  <course>356.18</course>
  <speed>25.767873408568274</speed>
  <fix>3d</fix>
</trkpt>
<trkpt lat="-35.2787919" lon="148.9866523">
  <ele>675.19</ele>
  <time>2026-09-01T19:59:57Z</time>
  <course>356.51</course>
  <speed>25.72</speed>
  <fix>3d</fix>
</trkpt>
<trkpt lat="-35.2787275" lon="148.9866475">
  <ele>674.47</ele>
  <time>2026-09-01T19:59:57Z</time>
  <course>356.14</course>
  <speed>25.767873408568274</speed>
  <fix>3d</fix>
</trkpt>
<trkpt lat="-35.2787919" lon="148.9866523">
  <ele>675.19</ele>
  <time>2026-09-01T19:59:57Z</time>
  <course>356.51</course>
  <speed>25.72</speed>
  <fix>3d</fix>
</trkpt>
<trkpt lat="-35.2787042" lon="148.9866458">
  <ele>674.31</ele>
  <time>2026-09-01T19:59:57Z</time>
  <course>356.09</course>
  <speed>25.768484627544552</speed>
  <fix>3d</fix>
</trkpt>
<trkpt lat="-35.2787458" lon="148.9866489">
  <ele>674.85</ele>
  <time>2026-09-01T19:59:57Z</time>
  <course>356.51</course>
  <speed>25.72</speed>
  <fix>3d</fix>
</trkpt>
<trkpt lat="-35.2786811" lon="148.986644">
  <ele>674.14</ele>
  <time>2026-09-01T19:59:57Z</time>
  <course>356.08</course>
  <speed>25.769099712640333</speed>
  <fix>3d</fix>
</trkpt>
<trkpt lat="-35.2787458" lon="148.9866489">
  <ele>674.85</ele>
  <time>2026-09-01T19:59:57Z</time>
  <course>356.51</course>
  <speed>25.72</speed>
  <fix>3d</fix>
</trkpt>
<trkpt lat="-35.278658" lon="148.9866423">
  <ele>673.97</ele>
  <time>2026-09-01T19:59:57Z</time>
  <course>356.14</course>
  <speed>25.769099712640333</speed>
  <fix>3d</fix>
</trkpt>
<trkpt lat="-35.2786997" lon="148.9866455">
  <ele>674.51</ele>
  <time>2026-09-01T19:59:57Z</time>
  <course>356.49</course>
  <speed>25.72</speed>
  <fix>3d</fix>
</trkpt>
<trkpt lat="-35.2786349" lon="148.9866405">
  <ele>673.81</ele>
  <time>2026-09-01T19:59:57Z</time>
  <course>356.16</course>
  <speed>25.769099712640333</speed>
  <fix>3d</fix>
</trkpt>
<trkpt lat="-35.2786997" lon="148.9866455">
  <ele>674.51</ele>
  <time>2026-09-01T19:59:57Z</time>
  <course>356.49</course>
  <speed>25.72</speed>
  <fix>3d</fix>
</trkpt>
<trkpt lat="-35.2786119" lon="148.9866388">
  <ele>673.64</ele>
  <time>2026-09-01T19:59:57Z</time>
  <course>356.18</course>
  <speed>25.768484627544552</speed>
  <fix>3d</fix>
</trkpt>
<trkpt lat="-35.2786535" lon="148.986642">
  <ele>674.18</ele>
  <time>2026-09-01T19:59:57Z</time>
  <course>356.48</course>
  <speed>25.72</speed>
  <fix>3d</fix>
</trkpt>
<trkpt lat="-35.2785888" lon="148.9866371">
  <ele>673.48</ele>
  <time>2026-09-01T19:59:57Z</time>
  <course>356.18</course>
  <speed>25.77846581936171</speed>
  <fix>3d</fix>
</trkpt>
<trkpt lat="-35.2786535" lon="148.986642">
  <ele>674.18</ele>
  <time>2026-09-01T19:59:57Z</time>
  <course>356.48</course>
  <speed>25.72</speed>
  <fix>3d</fix>
</trkpt>
<trkpt lat="-35.2785655" lon="148.9866353">
  <ele>673.32</ele>
  <time>2026-09-01T19:59:57Z</time>
  <course>356.15</course>
  <speed>25.768484627544552</speed>
  <fix>3d</fix>
</trkpt>
<trkpt lat="-35.2786073" lon="148.9866385">
  <ele>673.85</ele>
  <time>2026-09-01T19:59:57Z</time>
  <course>356.48</course>
  <speed>25.72</speed>
  <fix>3d</fix>
</trkpt>
<trkpt lat="-35.2785424" lon="148.9866336">
  <ele>673.15</ele>
  <time>2026-09-01T19:59:57Z</time>
  <course>356.11</course>
  <speed>25.768484627544552</speed>
  <fix>3d</fix>
</trkpt>
<trkpt lat="-35.2786073" lon="148.9866385">
  <ele>673.85</ele>
  <time>2026-09-01T19:59:57Z</time>
  <course>356.48</course>
  <speed>25.72</speed>
  <fix>3d</fix>
</trkpt>
<trkpt lat="-35.2785193" lon="148.9866319">
  <ele>672.99</ele>
  <time>2026-09-01T19:59:57Z</time>
  <course>356.1</course>
  <speed>25.768484627544552</speed>
  <fix>3d</fix>
</trkpt>
<trkpt lat="-35.2785612" lon="148.986635">
  <ele>673.52</ele>
  <time>2026-09-01T19:59:57Z</time>
  <course>356.48</course>
  <speed>25.72</speed>
  <fix>3d</fix>
</trkpt>
<trkpt lat="-35.2784963" lon="148.9866301">
  <ele>672.83</ele>
  <time>2026-09-01T19:59:57Z</time>
  <course>356.13</course>
  <speed>25.768484627544552</speed>
  <fix>3d</fix>
</trkpt>
<trkpt lat="-35.2785612" lon="148.986635">
  <ele>673.52</ele>
  <time>2026-09-01T19:59:57Z</time>
  <course>356.48</course>
  <speed>25.72</speed>
  <fix>3d</fix>
</trkpt>
<trkpt lat="-35.2784732" lon="148.9866284">
  <ele>672.67</ele>
  <time>2026-09-01T19:59:57Z</time>
  <course>356.14</course>
  <speed>25.768484627544552</speed>
  <fix>3d</fix>
</trkpt>
<trkpt lat="-35.2785151" lon="148.9866316">
  <ele>673.19</ele>
  <time>2026-09-01T19:59:57Z</time>
  <course>356.48</course>
  <speed>25.72</speed>
  <fix>3d</fix>
</trkpt>
<trkpt lat="-35.2784502" lon="148.9866267">
  <ele>672.51</ele>
  <time>2026-09-01T19:59:57Z</time>
  <course>356.11</course>
  <speed>25.75850345031714</speed>
  <fix>3d</fix>
</trkpt>
<trkpt lat="-35.2785151" lon="148.9866316">
  <ele>673.19</ele>
  <time>2026-09-01T19:59:57Z</time>
  <course>356.48</course>
  <speed>25.72</speed>
  <fix>3d</fix>
</trkpt>
<trkpt lat="-35.2784271" lon="148.9866249">
  <ele>672.35</ele>
  <time>2026-09-01T19:59:57Z</time>
  <course>356.08</course>
  <speed>25.75850345031714</speed>
  <fix>3d</fix>
</trkpt>
<trkpt lat="-35.2784689" lon="148.9866281">
  <ele>672.88</ele>
  <time>2026-09-01T19:59:57Z</time>
  <course>356.49</course>
  <speed>25.72</speed>
  <fix>3d</fix>
</trkpt>
<trkpt lat="-35.2784041" lon="148.9866232">
  <ele>672.19</ele>
  <time>2026-09-01T19:59:57Z</time>
  <course>356.1</course>
  <speed>25.7591187737469</speed>
  <fix>3d</fix>
</trkpt>
<trkpt lat="-35.2784689" lon="148.9866281">
  <ele>672.88</ele>
  <time>2026-09-01T19:59:57Z</time>
  <course>356.49</course>
  <speed>25.72</speed>
  <fix>3d</fix>
</trkpt>
<trkpt lat="-35.278381" lon="148.9866215">
  <ele>672.03</ele>
  <time>2026-09-01T19:59:57Z</time>
  <course>356.14</course>
  <speed>25.7591187737469</speed>
  <fix>3d</fix>
</trkpt>
<trkpt lat="-35.2784228" lon="148.9866246">
  <ele>672.56</ele>
  <time>2026-09-01T19:59:57Z</time>
  <course>356.48</course>
  <speed>25.71</speed>
  <fix>3d</fix>
</trkpt>
<trkpt lat="-35.278358" lon="148.9866197">
  <ele>671.87</ele>
  <time>2026-09-01T19:59:57Z</time>
  <course>356.15</course>
  <speed>25.749137849644598</speed>
  <fix>3d</fix>
</trkpt>
<trkpt lat="-35.2784228" lon="148.9866246">
  <ele>672.56</ele>
  <time>2026-09-01T19:59:57Z</time>
  <course>356.48</course>
  <speed>25.71</speed>
  <fix>3d</fix>
</trkpt>
<trkpt lat="-35.2783349" lon="148.986618">
  <ele>671.71</ele>
  <time>2026-09-01T19:59:57Z</time>
  <course>356.18</course>
  <speed>25.749757280409458</speed>
  <fix>3d</fix>
</trkpt>
<trkpt lat="-35.2783767" lon="148.9866212">
  <ele>672.24</ele>
  <time>2026-09-01T19:59:57Z</time>
  <course>356.46</course>
  <speed>25.71</speed>
  <fix>3d</fix>
</trkpt>
<trkpt lat="-35.2783121" lon="148.9866162">
  <ele>671.55</ele>
  <time>2026-09-01T19:59:57Z</time>
  <course>356.17</course>
  <speed>25.749137849644598</speed>
  <fix>3d</fix>
</trkpt>
<trkpt lat="-35.2783767" lon="148.9866212">
  <ele>672.24</ele>
  <time>2026-09-01T19:59:57Z</time>
  <course>356.46</course>
  <speed>25.71</speed>
  <fix>3d</fix>
</trkpt>
<trkpt lat="-35.278289" lon="148.9866145">
  <ele>671.39</ele>
  <time>2026-09-01T19:59:57Z</time>
  <course>356.09</course>
  <speed>25.749137849644598</speed>
  <fix>3d</fix>
</trkpt>
<trkpt lat="-35.2783306" lon="148.9866177">
  <ele>671.93</ele>
  <time>2026-09-01T19:59:57Z</time>
  <course>356.46</course>
  <speed>25.71</speed>
  <fix>3d</fix>
</trkpt>
<trkpt lat="-35.278266" lon="148.9866127">
  <ele>671.23</ele>
  <time>2026-09-01T19:59:57Z</time>
  <course>356.04</course>
  <speed>25.749757280409458</speed>
  <fix>3d</fix>
</trkpt>
<trkpt lat="-35.2783306" lon="148.9866177">
  <ele>671.93</ele>
  <time>2026-09-01T19:59:57Z</time>
  <course>356.46</course>
  <speed>25.71</speed>
  <fix>3d</fix>
</trkpt>
<trkpt lat="-35.2782429" lon="148.986611">
  <ele>671.07</ele>
  <time>2026-09-01T19:59:57Z</time>
  <course>356.03</course>
  <speed>25.750380579711827</speed>
  <fix>3d</fix>
</trkpt>
<trkpt lat="-35.2782845" lon="148.9866142">
  <ele>671.61</ele>
  <time>2026-09-01T19:59:57Z</time>
  <course>356.45</course>
  <speed>25.71</speed>
  <fix>3d</fix>
</trkpt>
<trkpt lat="-35.2782197" lon="148.9866092">
  <ele>670.92</ele>
  <time>2026-09-01T19:59:57Z</time>
  <course>356.05</course>
  <speed>25.750380579711827</speed>
  <fix>3d</fix>
</trkpt>
<trkpt lat="-35.2782845" lon="148.9866142">
  <ele>671.61</ele>
  <time>2026-09-01T19:59:57Z</time>
  <course>356.45</course>
  <speed>25.71</speed>
  <fix>3d</fix>
</trkpt>
<trkpt lat="-35.2781966" lon="148.9866074">
  <ele>670.76</ele>
  <time>2026-09-01T19:59:57Z</time>
  <course>356.0</course>
  <speed>25.750380579711827</speed>
  <fix>3d</fix>
</trkpt>
<trkpt lat="-35.2782385" lon="148.9866107">
  <ele>671.29</ele>
  <time>2026-09-01T19:59:57Z</time>
  <course>356.43</course>
  <speed>25.71</speed>
  <fix>3d</fix>
</trkpt>
<trkpt lat="-35.2781736" lon="148.9866057">
  <ele>670.61</ele>
  <time>2026-09-01T19:59:57Z</time>
  <course>355.95</course>
  <speed>25.751007747270787</speed>
  <fix>3d</fix>
</trkpt>
<trkpt lat="-35.2782385" lon="148.9866107">
  <ele>671.29</ele>
  <time>2026-09-01T19:59:57Z</time>
  <course>356.43</course>
  <speed>25.71</speed>
  <fix>3d</fix>
</trkpt>
<trkpt lat="-35.2781505" lon="148.9866039">
  <ele>670.45</ele>
  <time>2026-09-01T19:59:57Z</time>
  <course>355.97</course>
  <speed>25.751638782803706</speed>
  <fix>3d</fix>
</trkpt>
<trkpt lat="-35.2781924" lon="148.9866071">
  <ele>670.98</ele>
  <time>2026-09-01T19:59:57Z</time>
  <course>356.41</course>
  <speed>25.71</speed>
  <fix>3d</fix>
</trkpt>
<trkpt lat="-35.2781274" lon="148.9866021">
  <ele>670.29</ele>
  <time>2026-09-01T19:59:57Z</time>
  <course>356.0</course>
  <speed>25.751638782803706</speed>
  <fix>3d</fix>
</trkpt>
<trkpt lat="-35.2781924" lon="148.9866071">
  <ele>670.98</ele>
  <time>2026-09-01T19:59:57Z</time>
  <course>356.41</course>
  <speed>25.71</speed>
  <fix>3d</fix>
</trkpt>
<trkpt lat="-35.2781043" lon="148.9866003">
  <ele>670.13</ele>
  <time>2026-09-01T19:59:57Z</time>
  <course>356.02</course>
  <speed>25.751638782803706</speed>
  <fix>3d</fix>
</trkpt>
<trkpt lat="-35.2781462" lon="148.9866036">
  <ele>670.67</ele>
  <time>2026-09-01T19:59:57Z</time>
  <course>356.39</course>
  <speed>25.71</speed>
  <fix>3d</fix>
</trkpt>
<trkpt lat="-35.2780812" lon="148.9865985">
  <ele>669.98</ele>
  <time>2026-09-01T19:59:57Z</time>
  <course>355.97</course>
  <speed>25.75227368602625</speed>
  <fix>3d</fix>
</trkpt>
<trkpt lat="-35.2781462" lon="148.9866036">
  <ele>670.67</ele>
  <time>2026-09-01T19:59:57Z</time>
  <course>356.39</course>
  <speed>25.71</speed>
  <fix>3d</fix>
</trkpt>
<trkpt lat="-35.2780581" lon="148.9865967">
  <ele>669.82</ele>
  <time>2026-09-01T19:59:57Z</time>
  <course>355.95</course>
  <speed>25.75227368602625</speed>
  <fix>3d</fix>
</trkpt>
<trkpt lat="-35.2781" lon="148.9866">
  <ele>670.36</ele>
  <time>2026-09-01T19:59:57Z</time>
  <course>356.37</course>
  <speed>25.71</speed>
  <fix>3d</fix>
</trkpt>
<trkpt lat="-35.278035" lon="148.9865949">
  <ele>669.66</ele>
  <time>2026-09-01T19:59:57Z</time>
  <course>355.94</course>
  <speed>25.762891918416305</speed>
  <fix>3d</fix>
</trkpt>
<trkpt lat="-35.2781" lon="148.9866">
  <ele>670.36</ele>
  <time>2026-09-01T19:59:57Z</time>
  <course>356.37</course>
  <speed>25.71</speed>
  <fix>3d</fix>
</trkpt>
<trkpt lat="-35.2780119" lon="148.9865931">
  <ele>669.51</ele>
  <time>2026-09-01T19:59:57Z</time>
  <course>355.99</course>
  <speed>25.762891918416305</speed>
  <fix>3d</fix>
</trkpt>
<trkpt lat="-35.2780539" lon="148.9865965">
  <ele>670.05</ele>
  <time>2026-09-01T19:59:57Z</time>
  <course>356.35</course>
  <speed>25.71</speed>
  <fix>3d</fix>
</trkpt>
<trkpt lat="-35.2779888" lon="148.9865913">
  <ele>669.35</ele>
  <time>2026-09-01T19:59:57Z</time>
  <course>355.99</course>
  <speed>25.76225339522923</speed>
  <fix>3d</fix>
</trkpt>
<trkpt lat="-35.2780539" lon="148.9865965">
  <ele>670.05</ele>
  <time>2026-09-01T19:59:57Z</time>
  <course>356.35</course>
  <speed>25.71</speed>
  <fix>3d</fix>
</trkpt>
<trkpt lat="-35.2779657" lon="148.9865895">
  <ele>669.2</ele>
  <time>2026-09-01T19:59:57Z</time>
  <course>355.95</course>
  <speed>25.76225339522923</speed>
  <fix>3d</fix>
</trkpt>
<trkpt lat="-35.2780078" lon="148.9865929">
  <ele>669.74</ele>
  <time>2026-09-01T19:59:57Z</time>
  <course>356.35</course>
  <speed>25.72</speed>
  <fix>3d</fix>
</trkpt>
<trkpt lat="-35.2779426" lon="148.9865877">
  <ele>669.04</ele>
  <time>2026-09-01T19:59:57Z</time>
  <course>355.94</course>
  <speed>25.762891918416305</speed>
  <fix>3d</fix>
</trkpt>
<trkpt lat="-35.2780078" lon="148.9865929">
  <ele>669.74</ele>
  <time>2026-09-01T19:59:57Z</time>
  <course>356.35</course>
  <speed>25.72</speed>
  <fix>3d</fix>
</trkpt>
<trkpt lat="-35.2779194" lon="148.9865859">
  <ele>668.89</ele>
  <time>2026-09-01T19:59:57Z</time>
  <course>355.91</course>
  <speed>25.772871396101756</speed>
  <fix>3d</fix>
</trkpt>
<trkpt lat="-35.2779617" lon="148.9865893">
  <ele>669.43</ele>
  <time>2026-09-01T19:59:57Z</time>
  <course>356.35</course>
  <speed>25.72</speed>
  <fix>3d</fix>
</trkpt>
<trkpt lat="-35.2778963" lon="148.9865841">
  <ele>668.73</ele>
  <time>2026-09-01T19:59:57Z</time>
  <course>355.88</course>
  <speed>25.762891918416305</speed>
  <fix>3d</fix>
</trkpt>
<trkpt lat="-35.2779617" lon="148.9865893">
  <ele>669.43</ele>
  <time>2026-09-01T19:59:57Z</time>
  <course>356.35</course>
  <speed>25.72</speed>
  <fix>3d</fix>
</trkpt>
<trkpt lat="-35.2778733" lon="148.9865823">
  <ele>668.58</ele>
  <time>2026-09-01T19:59:57Z</time>
  <course>355.88</course>
  <speed>25.76353430723355</speed>
  <fix>3d</fix>
</trkpt>
<trkpt lat="-35.2779156" lon="148.9865856">
  <ele>669.12</ele>
  <time>2026-09-01T19:59:57Z</time>
  <course>356.34</course>
  <speed>25.72</speed>
  <fix>3d</fix>
</trkpt>
<trkpt lat="-35.2778503" lon="148.9865805">
  <ele>668.43</ele>
  <time>2026-09-01T19:59:57Z</time>
  <course>355.89</course>
  <speed>25.75355509439425</speed>
  <fix>3d</fix>
</trkpt>
<trkpt lat="-35.2779156" lon="148.9865856">
  <ele>669.12</ele>
  <time>2026-09-01T19:59:57Z</time>
  <course>356.34</course>
  <speed>25.72</speed>
  <fix>3d</fix>
</trkpt>
<trkpt lat="-35.2778274" lon="148.9865787">
  <ele>668.28</ele>
  <time>2026-09-01T19:59:57Z</time>
  <course>355.9</course>
  <speed>25.75355509439425</speed>
  <fix>3d</fix>
</trkpt>
<trkpt lat="-35.2778695" lon="148.986582">
  <ele>668.81</ele>
  <time>2026-09-01T19:59:57Z</time>
  <course>356.32</course>
  <speed>25.72</speed>
  <fix>3d</fix>
</trkpt>
<trkpt lat="-35.2778044" lon="148.9865768">
  <ele>668.13</ele>
  <time>2026-09-01T19:59:57Z</time>
  <course>355.9</course>
  <speed>25.76353430723355</speed>
  <fix>3d</fix>
</trkpt>
<trkpt lat="-35.2778695" lon="148.986582">
  <ele>668.81</ele>
  <time>2026-09-01T19:59:57Z</time>
  <course>356.32</course>
  <speed>25.72</speed>
  <fix>3d</fix>
</trkpt>
<trkpt lat="-35.2777813" lon="148.986575">
  <ele>667.99</ele>
  <time>2026-09-01T19:59:57Z</time>
  <course>355.86</course>
  <speed>25.764180561391818</speed>
  <fix>3d</fix>
</trkpt>
<trkpt lat="-35.2778234" lon="148.9865783">
  <ele>668.5</ele>
  <time>2026-09-01T19:59:57Z</time>
  <course>356.31</course>
  <speed>25.72</speed>
  <fix>3d</fix>
</trkpt>
<trkpt lat="-35.2777582" lon="148.9865732">
  <ele>667.84</ele>
  <time>2026-09-01T19:59:57Z</time>
  <course>355.87</course>
  <speed>25.764180561391818</speed>
  <fix>3d</fix>
</trkpt>
<trkpt lat="-35.2778234" lon="148.9865783">
  <ele>668.5</ele>
  <time>2026-09-01T19:59:57Z</time>
  <course>356.31</course>
  <speed>25.72</speed>
  <fix>3d</fix>
</trkpt>
<trkpt lat="-35.2777349" lon="148.9865713">
  <ele>667.68</ele>
  <time>2026-09-01T19:59:57Z</time>
  <course>355.87</course>
  <speed>25.77351353618672</speed>
  <fix>3d</fix>
</trkpt>
<trkpt lat="-35.2777773" lon="148.9865748">
  <ele>668.19</ele>
  <time>2026-09-01T19:59:57Z</time>
  <course>356.31</course>
  <speed>25.72</speed>
  <fix>3d</fix>
</trkpt>
<trkpt lat="-35.2777117" lon="148.9865695">
  <ele>667.53</ele>
  <time>2026-09-01T19:59:57Z</time>
  <course>355.86</course>
  <speed>25.774159540128558</speed>
  <fix>3d</fix>
</trkpt>
<trkpt lat="-35.2777773" lon="148.9865748">
  <ele>668.19</ele>
  <time>2026-09-01T19:59:57Z</time>
  <course>356.31</course>
  <speed>25.72</speed>
  <fix>3d</fix>
</trkpt>
<trkpt lat="-35.2776886" lon="148.9865677">
  <ele>667.38</ele>
  <time>2026-09-01T19:59:57Z</time>
  <course>355.84</course>
  <speed>25.774159540128558</speed>
  <fix>3d</fix>
</trkpt>
<trkpt lat="-35.2777312" lon="148.9865711">
  <ele>667.89</ele>
  <time>2026-09-01T19:59:57Z</time>
  <course>356.31</course>
  <speed>25.72</speed>
  <fix>3d</fix>
</trkpt>
<trkpt lat="-35.2776655" lon="148.9865659">
  <ele>667.23</ele>
  <time>2026-09-01T19:59:57Z</time>
  <course>355.87</course>
  <speed>25.784138535153737</speed>
  <fix>3d</fix>
</trkpt>
<trkpt lat="-35.2777312" lon="148.9865711">
  <ele>667.89</ele>
  <time>2026-09-01T19:59:57Z</time>
  <course>356.31</course>
  <speed>25.72</speed>
  <fix>3d</fix>
</trkpt>
<trkpt lat="-35.2776424" lon="148.986564">
  <ele>667.07</ele>
  <time>2026-09-01T19:59:57Z</time>
  <course>355.94</course>
  <speed>25.78349278123505</speed>
  <fix>3d</fix>
</trkpt>
<trkpt lat="-35.277685" lon="148.9865674">
  <ele>667.58</ele>
  <time>2026-09-01T19:59:57Z</time>
  <course>356.31</course>
  <speed>25.73</speed>
  <fix>3d</fix>
</trkpt>
<trkpt lat="-35.2776192" lon="148.9865622">
  <ele>666.92</ele>
  <time>2026-09-01T19:59:57Z</time>
  <course>355.97</course>
  <speed>25.78349278123505</speed>
  <fix>3d</fix>
</trkpt>
<trkpt lat="-35.277685" lon="148.9865674">
  <ele>667.58</ele>
  <time>2026-09-01T19:59:57Z</time>
  <course>356.31</course>
  <speed>25.73</speed>
  <fix>3d</fix>
</trkpt>
<trkpt lat="-35.2775962" lon="148.9865604">
  <ele>666.77</ele>
  <time>2026-09-01T19:59:57Z</time>
  <course>355.93</course>
  <speed>25.782850889690227</speed>
  <fix>3d</fix>
</trkpt>
<trkpt lat="-35.2776388" lon="148.9865638">
  <ele>667.28</ele>
  <time>2026-09-01T19:59:57Z</time>
  <course>356.31</course>
  <speed>25.73</speed>
  <fix>3d</fix>
</trkpt>
<trkpt lat="-35.2775732" lon="148.9865586">
  <ele>666.62</ele>
  <time>2026-09-01T19:59:57Z</time>
  <course>355.85</course>
  <speed>25.782850889690227</speed>
  <fix>3d</fix>
</trkpt>
<trkpt lat="-35.2776388" lon="148.9865638">
  <ele>667.28</ele>
  <time>2026-09-01T19:59:57Z</time>
  <course>356.31</course>
  <speed>25.73</speed>
  <fix>3d</fix>
</trkpt>
<trkpt lat="-35.2775503" lon="148.9865568">
  <ele>666.47</ele>
  <time>2026-09-01T19:59:57Z</time>
  <course>355.85</course>
  <speed>25.782850889690227</speed>
  <fix>3d</fix>
</trkpt>
<trkpt lat="-35.2775927" lon="148.9865601">
  <ele>666.97</ele>
  <time>2026-09-01T19:59:57Z</time>
  <course>356.33</course>
  <speed>25.74</speed>
  <fix>3d</fix>
</trkpt>
<trkpt lat="-35.2775273" lon="148.986555">
  <ele>666.32</ele>
  <time>2026-09-01T19:59:57Z</time>
  <course>355.9</course>
  <speed>25.772871396101756</speed>
  <fix>3d</fix>
</trkpt>
<trkpt lat="-35.2775927" lon="148.9865601">
  <ele>666.97</ele>
  <time>2026-09-01T19:59:57Z</time>
  <course>356.33</course>
  <speed>25.74</speed>
  <fix>3d</fix>
</trkpt>
<trkpt lat="-35.2775044" lon="148.9865532">
  <ele>666.16</ele>
  <time>2026-09-01T19:59:57Z</time>
  <course>355.89</course>
  <speed>25.762891918416305</speed>
  <fix>3d</fix>
</trkpt>
<trkpt lat="-35.2775465" lon="148.9865566">
  <ele>666.67</ele>
  <time>2026-09-01T19:59:57Z</time>
  <course>356.35</course>
  <speed>25.74</speed>
  <fix>3d</fix>
</trkpt>
<trkpt lat="-35.2774814" lon="148.9865514">
  <ele>666.01</ele>
  <time>2026-09-01T19:59:57Z</time>
  <course>355.84</course>
  <speed>25.762891918416305</speed>
  <fix>3d</fix>
</trkpt>
<trkpt lat="-35.2775465" lon="148.9865566">
  <ele>666.67</ele>
  <time>2026-09-01T19:59:57Z</time>
  <course>356.35</course>
  <speed>25.74</speed>
  <fix>3d</fix>
</trkpt>
<trkpt lat="-35.2774585" lon="148.9865496">
  <ele>665.86</ele>
  <time>2026-09-01T19:59:57Z</time>
  <course>355.84</course>
  <speed>25.762891918416305</speed>
  <fix>3d</fix>
</trkpt>
<trkpt lat="-35.2775004" lon="148.9865529">
  <ele>666.36</ele>
  <time>2026-09-01T19:59:57Z</time>
  <course>356.35</course>
  <speed>25.74</speed>
  <fix>3d</fix>
</trkpt>
<trkpt lat="-35.2774355" lon="148.9865478">
  <ele>665.71</ele>
  <time>2026-09-01T19:59:57Z</time>
  <course>355.88</course>
  <speed>25.762891918416305</speed>
  <fix>3d</fix>
</trkpt>
<trkpt lat="-35.2775004" lon="148.9865529">
  <ele>666.36</ele>
  <time>2026-09-01T19:59:57Z</time>
  <course>356.35</course>
  <speed>25.74</speed>
  <fix>3d</fix>
</trkpt>
<trkpt lat="-35.2774124" lon="148.986546">
  <ele>665.56</ele>
  <time>2026-09-01T19:59:57Z</time>
  <course>355.9</course>
  <speed>25.762891918416305</speed>
  <fix>3d</fix>
</trkpt>
<trkpt lat="-35.2774542" lon="148.9865494">
  <ele>666.06</ele>
  <time>2026-09-01T19:59:57Z</time>
  <course>356.35</course>
  <speed>25.75</speed>
  <fix>3d</fix>
</trkpt>
<trkpt lat="-35.2773893" lon="148.9865442">
  <ele>665.41</ele>
  <time>2026-09-01T19:59:57Z</time>
  <course>355.93</course>
  <speed>25.772871396101756</speed>
  <fix>3d</fix>
</trkpt>
<trkpt lat="-35.2774542" lon="148.9865494">
  <ele>666.06</ele>
  <time>2026-09-01T19:59:57Z</time>
  <course>356.35</course>
  <speed>25.75</speed>
  <fix>3d</fix>
</trkpt>
<trkpt lat="-35.2773661" lon="148.9865424">
  <ele>665.27</ele>
  <time>2026-09-01T19:59:57Z</time>
  <course>355.95</course>
  <speed>25.782850889690227</speed>
  <fix>3d</fix>
</trkpt>
<trkpt lat="-35.277408" lon="148.9865457">
  <ele>665.76</ele>
  <time>2026-09-01T19:59:57Z</time>
  <course>356.35</course>
  <speed>25.76</speed>
  <fix>3d</fix>
</trkpt>
<trkpt lat="-35.2773429" lon="148.9865406">
  <ele>665.13</ele>
  <time>2026-09-01T19:59:57Z</time>
  <course>355.95</course>
  <speed>25.79219261714676</speed>
  <fix>3d</fix>
</trkpt>
<trkpt lat="-35.277408" lon="148.9865457">
  <ele>665.76</ele>
  <time>2026-09-01T19:59:57Z</time>
  <course>356.35</course>
  <speed>25.76</speed>
  <fix>3d</fix>
</trkpt>
<trkpt lat="-35.2773196" lon="148.9865388">
  <ele>664.99</ele>
  <time>2026-09-01T19:59:57Z</time>
  <course>355.93</course>
  <speed>25.79219261714676</speed>
  <fix>3d</fix>
</trkpt>
<trkpt lat="-35.2773618" lon="148.9865421">
  <ele>665.47</ele>
  <time>2026-09-01T19:59:57Z</time>
  <course>356.36</course>
  <speed>25.76</speed>
  <fix>3d</fix>
</trkpt>
<trkpt lat="-35.2772964" lon="148.986537">
  <ele>664.85</ele>
  <time>2026-09-01T19:59:57Z</time>
  <course>355.93</course>
  <speed>25.802172389161342</speed>
  <fix>3d</fix>
</trkpt>
<trkpt lat="-35.2773618" lon="148.9865421">
  <ele>665.47</ele>
  <time>2026-09-01T19:59:57Z</time>
  <course>356.36</course>
  <speed>25.76</speed>
  <fix>3d</fix>
</trkpt>
<trkpt lat="-35.2772732" lon="148.9865352">
  <ele>664.72</ele>
  <time>2026-09-01T19:59:57Z</time>
  <course>355.95</course>
  <speed>25.80153871380542</speed>
  <fix>3d</fix>
</trkpt>
<trkpt lat="-35.2773156" lon="148.9865386">
  <ele>665.19</ele>
  <time>2026-09-01T19:59:57Z</time>
  <course>356.37</course>
  <speed>25.77</speed>
  <fix>3d</fix>
</trkpt>
<trkpt lat="-35.2772497" lon="148.9865334">
  <ele>664.58</ele>
  <time>2026-09-01T19:59:57Z</time>
  <course>355.97</course>
  <speed>25.81151874648216</speed>
  <fix>3d</fix>
</trkpt>
<trkpt lat="-35.2773156" lon="148.9865386">
  <ele>665.19</ele>
  <time>2026-09-01T19:59:57Z</time>
  <course>356.37</course>
  <speed>25.77</speed>
  <fix>3d</fix>
</trkpt>
<trkpt lat="-35.2772266" lon="148.9865316">
  <ele>664.45</ele>
  <time>2026-09-01T19:59:57Z</time>
  <course>355.97</course>
  <speed>25.810889174919954</speed>
  <fix>3d</fix>
</trkpt>
<trkpt lat="-35.2772694" lon="148.986535">
  <ele>664.91</ele>
  <time>2026-09-01T19:59:57Z</time>
  <course>356.39</course>
  <speed>25.76</speed>
  <fix>3d</fix>
</trkpt>
<trkpt lat="-35.2772035" lon="148.9865298">
  <ele>664.32</ele>
  <time>2026-09-01T19:59:57Z</time>
  <course>355.93</course>
  <speed>25.810889174919954</speed>
  <fix>3d</fix>
</trkpt>
<trkpt lat="-35.2772694" lon="148.986535">
  <ele>664.91</ele>
  <time>2026-09-01T19:59:57Z</time>
  <course>356.39</course>
  <speed>25.76</speed>
  <fix>3d</fix>
</trkpt>
<trkpt lat="-35.2771804" lon="148.9865281">
  <ele>664.18</ele>
  <time>2026-09-01T19:59:57Z</time>
  <course>355.95</course>
  <speed>25.810889174919954</speed>
  <fix>3d</fix>
</trkpt>
<trkpt lat="-35.2772232" lon="148.9865315">
  <ele>664.63</ele>
  <time>2026-09-01T19:59:57Z</time>
  <course>356.42</course>
  <speed>25.76</speed>
  <fix>3d</fix>
</trkpt>
<trkpt lat="-35.2771573" lon="148.9865263">
  <ele>664.05</ele>
  <time>2026-09-01T19:59:57Z</time>
  <course>355.99</course>
  <speed>25.800282944184932</speed>
  <fix>3d</fix>
</trkpt>
<trkpt lat="-35.2772232" lon="148.9865315">
  <ele>664.63</ele>
  <time>2026-09-01T19:59:57Z</time>
  <course>356.42</course>
  <speed>25.76</speed>
  <fix>3d</fix>
</trkpt>
<trkpt lat="-35.2771342" lon="148.9865246">
  <ele>663.92</ele>
  <time>2026-09-01T19:59:57Z</time>
  <course>355.97</course>
  <speed>25.800282944184932</speed>
  <fix>3d</fix>
</trkpt>
<trkpt lat="-35.277177" lon="148.9865279">
  <ele>664.37</ele>
  <time>2026-09-01T19:59:57Z</time>
  <course>356.44</course>
  <speed>25.76</speed>
  <fix>3d</fix>
</trkpt>
<trkpt lat="-35.2771111" lon="148.9865228">
  <ele>663.79</ele>
  <time>2026-09-01T19:59:57Z</time>
  <course>355.96</course>
  <speed>25.79030244103392</speed>
  <fix>3d</fix>
</trkpt>
<trkpt lat="-35.277177" lon="148.9865279">
  <ele>664.37</ele>
  <time>2026-09-01T19:59:57Z</time>
  <course>356.44</course>
  <speed>25.76</speed>
  <fix>3d</fix>
</trkpt>
<trkpt lat="-35.277088" lon="148.9865211">
  <ele>663.66</ele>
  <time>2026-09-01T19:59:57Z</time>
  <course>355.99</course>
  <speed>25.79030244103392</speed>
  <fix>3d</fix>
</trkpt>
<trkpt lat="-35.2771308" lon="148.9865244">
  <ele>664.11</ele>
  <time>2026-09-01T19:59:57Z</time>
  <course>356.45</course>
  <speed>25.75</speed>
  <fix>3d</fix>
</trkpt>
<trkpt lat="-35.277065" lon="148.9865193">
  <ele>663.53</ele>
  <time>2026-09-01T19:59:57Z</time>
  <course>355.96</course>
  <speed>25.78032195299353</speed>
  <fix>3d</fix>
</trkpt>
<trkpt lat="-35.2771308" lon="148.9865244">
  <ele>664.11</ele>
  <time>2026-09-01T19:59:57Z</time>
  <course>356.45</course>
  <speed>25.75</speed>
  <fix>3d</fix>
</trkpt>
<trkpt lat="-35.2770419" lon="148.9865176">
  <ele>663.41</ele>
  <time>2026-09-01T19:59:57Z</time>
  <course>355.97</course>
  <speed>25.769718663578768</speed>
  <fix>3d</fix>
</trkpt>
<trkpt lat="-35.2770845" lon="148.9865209">
  <ele>663.85</ele>
  <time>2026-09-01T19:59:57Z</time>
  <course>356.46</course>
  <speed>25.75</speed>
  <fix>3d</fix>
</trkpt>
<trkpt lat="-35.2770188" lon="148.9865158">
  <ele>663.28</ele>
  <time>2026-09-01T19:59:57Z</time>
  <course>355.95</course>
  <speed>25.769718663578768</speed>
  <fix>3d</fix>
</trkpt>
<trkpt lat="-35.2770845" lon="148.9865209">
  <ele>663.85</ele>
  <time>2026-09-01T19:59:57Z</time>
  <course>356.46</course>
  <speed>25.75</speed>
  <fix>3d</fix>
</trkpt>
<trkpt lat="-35.2769958" lon="148.9865141">
  <ele>663.15</ele>
  <time>2026-09-01T19:59:57Z</time>
  <course>355.95</course>
  <speed>25.770341480081324</speed>
  <fix>3d</fix>
</trkpt>
<trkpt lat="-35.2770384" lon="148.9865174">
  <ele>663.59</ele>
  <time>2026-09-01T19:59:57Z</time>
  <course>356.45</course>
  <speed>25.74</speed>
  <fix>3d</fix>
</trkpt>
<trkpt lat="-35.2769727" lon="148.9865123">
  <ele>663.03</ele>
  <time>2026-09-01T19:59:57Z</time>
  <course>355.92</course>
  <speed>25.770341480081324</speed>
  <fix>3d</fix>
</trkpt>
<trkpt lat="-35.2770384" lon="148.9865174">
  <ele>663.59</ele>
  <time>2026-09-01T19:59:57Z</time>
  <course>356.45</course>
  <speed>25.74</speed>
  <fix>3d</fix>
</trkpt>
<trkpt lat="-35.2769497" lon="148.9865106">
  <ele>662.91</ele>
  <time>2026-09-01T19:59:57Z</time>
  <course>355.97</course>
  <speed>25.76098794689365</speed>
  <fix>3d</fix>
</trkpt>
<trkpt lat="-35.2769923" lon="148.9865139">
  <ele>663.34</ele>
  <time>2026-09-01T19:59:57Z</time>
  <course>356.45</course>
  <speed>25.73</speed>
  <fix>3d</fix>
</trkpt>
<trkpt lat="-35.2769266" lon="148.9865088">
  <ele>662.78</ele>
  <time>2026-09-01T19:59:57Z</time>
  <course>355.98</course>
  <speed>25.76098794689365</speed>
  <fix>3d</fix>
</trkpt>
<trkpt lat="-35.2769923" lon="148.9865139">
  <ele>663.34</ele>
  <time>2026-09-01T19:59:57Z</time>
  <course>356.45</course>
  <speed>25.73</speed>
  <fix>3d</fix>
</trkpt>
<trkpt lat="-35.2769035" lon="148.986507">
  <ele>662.66</ele>
  <time>2026-09-01T19:59:57Z</time>
  <course>355.97</course>
  <speed>25.760361022314886</speed>
  <fix>3d</fix>
</trkpt>
<trkpt lat="-35.2769462" lon="148.9865104">
  <ele>663.08</ele>
  <time>2026-09-01T19:59:57Z</time>
  <course>356.43</course>
  <speed>25.73</speed>
  <fix>3d</fix>
</trkpt>
<trkpt lat="-35.2768805" lon="148.9865053">
  <ele>662.53</ele>
  <time>2026-09-01T19:59:57Z</time>
  <course>355.97</course>
  <speed>25.760361022314886</speed>
  <fix>3d</fix>
</trkpt>
<trkpt lat="-35.2769462" lon="148.9865104">
  <ele>663.08</ele>
  <time>2026-09-01T19:59:57Z</time>
  <course>356.43</course>
  <speed>25.73</speed>
  <fix>3d</fix>
</trkpt>
<trkpt lat="-35.2768574" lon="148.9865035">
  <ele>662.4</ele>
  <time>2026-09-01T19:59:57Z</time>
  <course>355.97</course>
  <speed>25.751007747270787</speed>
  <fix>3d</fix>
</trkpt>
<trkpt lat="-35.2769" lon="148.9865069">
  <ele>662.83</ele>
  <time>2026-09-01T19:59:57Z</time>
  <course>356.43</course>
  <speed>25.73</speed>
  <fix>3d</fix>
</trkpt>
<trkpt lat="-35.2768344" lon="148.9865017">
  <ele>662.28</ele>
  <time>2026-09-01T19:59:57Z</time>
  <course>355.95</course>
  <speed>25.751007747270787</speed>
  <fix>3d</fix>
</trkpt>
<trkpt lat="-35.2769" lon="148.9865069">
  <ele>662.83</ele>
  <time>2026-09-01T19:59:57Z</time>
  <course>356.43</course>
  <speed>25.73</speed>
  <fix>3d</fix>
</trkpt>
<trkpt lat="-35.2768113" lon="148.9865">
  <ele>662.15</ele>
  <time>2026-09-01T19:59:57Z</time>
  <course>355.94</course>
  <speed>25.751007747270787</speed>
  <fix>3d</fix>
</trkpt>
<trkpt lat="-35.2768539" lon="148.9865034">
  <ele>662.58</ele>
  <time>2026-09-01T19:59:57Z</time>
  <course>356.42</course>
  <speed>25.73</speed>
  <fix>3d</fix>
</trkpt>
<trkpt lat="-35.2767883" lon="148.9864982">
  <ele>662.02</ele>
  <time>2026-09-01T19:59:57Z</time>
  <course>355.95</course>
  <speed>25.751638782803706</speed>
  <fix>3d</fix>
</trkpt>
<trkpt lat="-35.2768539" lon="148.9865034">
  <ele>662.58</ele>
  <time>2026-09-01T19:59:57Z</time>
  <course>356.42</course>
  <speed>25.73</speed>
  <fix>3d</fix>
</trkpt>
<trkpt lat="-35.2767654" lon="148.9864964">
  <ele>661.89</ele>
  <time>2026-09-01T19:59:57Z</time>
  <course>355.93</course>
  <speed>25.751638782803706</speed>
  <fix>3d</fix>
</trkpt>
<trkpt lat="-35.2768078" lon="148.9864998">
  <ele>662.33</ele>
  <time>2026-09-01T19:59:57Z</time>
  <course>356.4</course>
  <speed>25.73</speed>
  <fix>3d</fix>
</trkpt>
<trkpt lat="-35.2767423" lon="148.9864947">
  <ele>661.77</ele>
  <time>2026-09-01T19:59:57Z</time>
  <course>355.94</course>
  <speed>25.751638782803706</speed>
  <fix>3d</fix>
</trkpt>
<trkpt lat="-35.2768078" lon="148.9864998">
  <ele>662.33</ele>
  <time>2026-09-01T19:59:57Z</time>
  <course>356.4</course>
  <speed>25.73</speed>
  <fix>3d</fix>
</trkpt>
<trkpt lat="-35.2767193" lon="148.9864929">
  <ele>661.64</ele>
  <time>2026-09-01T19:59:57Z</time>
  <course>355.93</course>
  <speed>25.751638782803706</speed>
  <fix>3d</fix>
</trkpt>
<trkpt lat="-35.2767616" lon="148.9864963">
  <ele>662.08</ele>
  <time>2026-09-01T19:59:57Z</time>
  <course>356.39</course>
  <speed>25.73</speed>
  <fix>3d</fix>
</trkpt>
<trkpt lat="-35.2766962" lon="148.9864911">
  <ele>661.51</ele>
  <time>2026-09-01T19:59:57Z</time>
  <course>355.91</course>
  <speed>25.761618737959772</speed>
  <fix>3d</fix>
</trkpt>
<trkpt lat="-35.2767616" lon="148.9864963">
  <ele>662.08</ele>
  <time>2026-09-01T19:59:57Z</time>
  <course>356.39</course>
  <speed>25.73</speed>
  <fix>3d</fix>
</trkpt>
<trkpt lat="-35.276673" lon="148.9864893">
  <ele>661.39</ele>
  <time>2026-09-01T19:59:57Z</time>
  <course>355.88</course>
  <speed>25.75227368602625</speed>
  <fix>3d</fix>
</trkpt>
<trkpt lat="-35.2767154" lon="148.9864926">
  <ele>661.83</ele>
  <time>2026-09-01T19:59:57Z</time>
  <course>356.38</course>
  <speed>25.74</speed>
  <fix>3d</fix>
</trkpt>
<trkpt lat="-35.2766497" lon="148.9864875">
  <ele>661.27</ele>
  <time>2026-09-01T19:59:57Z</time>
  <course>355.89</course>
  <speed>25.76225339522923</speed>
  <fix>3d</fix>
</trkpt>
<trkpt lat="-35.2767154" lon="148.9864926">
  <ele>661.83</ele>
  <time>2026-09-01T19:59:57Z</time>
  <course>356.38</course>
  <speed>25.74</speed>
  <fix>3d</fix>
</trkpt>
<trkpt lat="-35.2766267" lon="148.9864857">
  <ele>661.16</ele>
  <time>2026-09-01T19:59:57Z</time>
  <course>355.9</course>
  <speed>25.76225339522923</speed>
  <fix>3d</fix>
</trkpt>
<trkpt lat="-35.2766692" lon="148.9864891">
  <ele>661.58</ele>
  <time>2026-09-01T19:59:57Z</time>
  <course>356.37</course>
  <speed>25.74</speed>
  <fix>3d</fix>
</trkpt>
<trkpt lat="-35.2766036" lon="148.9864839">
  <ele>661.05</ele>
  <time>2026-09-01T19:59:57Z</time>
  <course>355.9</course>
  <speed>25.76225339522923</speed>
  <fix>3d</fix>
</trkpt>
<trkpt lat="-35.2766692" lon="148.9864891">
  <ele>661.58</ele>
  <time>2026-09-01T19:59:57Z</time>
  <course>356.37</course>
  <speed>25.74</speed>
  <fix>3d</fix>
</trkpt>
<trkpt lat="-35.2765805" lon="148.9864821">
  <ele>660.94</ele>
  <time>2026-09-01T19:59:57Z</time>
  <course>355.88</course>
  <speed>25.76225339522923</speed>
  <fix>3d</fix>
</trkpt>
<trkpt lat="-35.2766231" lon="148.9864855">
  <ele>661.35</ele>
  <time>2026-09-01T19:59:57Z</time>
  <course>356.36</course>
  <speed>25.74</speed>
  <fix>3d</fix>
</trkpt>
<trkpt lat="-35.2765574" lon="148.9864803">
  <ele>660.83</ele>
  <time>2026-09-01T19:59:57Z</time>
  <course>355.87</course>
  <speed>25.762891918416305</speed>
  <fix>3d</fix>
</trkpt>
<trkpt lat="-35.2766231" lon="148.9864855">
  <ele>661.35</ele>
  <time>2026-09-01T19:59:57Z</time>
  <course>356.36</course>
  <speed>25.74</speed>
  <fix>3d</fix>
</trkpt>
<trkpt lat="-35.2765344" lon="148.9864785">
  <ele>660.74</ele>
  <time>2026-09-01T19:59:57Z</time>
  <course>355.86</course>
  <speed>25.76225339522923</speed>
  <fix>3d</fix>
</trkpt>
<trkpt lat="-35.2765769" lon="148.986482">
  <ele>661.13</ele>
  <time>2026-09-01T19:59:57Z</time>
  <course>356.36</course>
  <speed>25.75</speed>
  <fix>3d</fix>
</trkpt>
<trkpt lat="-35.2765113" lon="148.9864767">
  <ele>660.64</ele>
  <time>2026-09-01T19:59:57Z</time>
  <course>355.87</course>
  <speed>25.76225339522923</speed>
  <fix>3d</fix>
</trkpt>
<trkpt lat="-35.2765769" lon="148.986482">
  <ele>661.13</ele>
  <time>2026-09-01T19:59:57Z</time>
  <course>356.36</course>
  <speed>25.75</speed>
  <fix>3d</fix>
</trkpt>
<trkpt lat="-35.2764882" lon="148.9864749">
  <ele>660.56</ele>
  <time>2026-09-01T19:59:57Z</time>
  <course>355.88</course>
  <speed>25.76225339522923</speed>
  <fix>3d</fix>
</trkpt>
<trkpt lat="-35.2765307" lon="148.9864784">
  <ele>660.93</ele>
  <time>2026-09-01T19:59:57Z</time>
  <course>356.35</course>
  <speed>25.75</speed>
  <fix>3d</fix>
</trkpt>
<trkpt lat="-35.2764652" lon="148.9864731">
  <ele>660.47</ele>
  <time>2026-09-01T19:59:57Z</time>
  <course>355.84</course>
  <speed>25.76225339522923</speed>
  <fix>3d</fix>
</trkpt>
<trkpt lat="-35.2765307" lon="148.9864784">
  <ele>660.93</ele>
  <time>2026-09-01T19:59:57Z</time>
  <course>356.35</course>
  <speed>25.75</speed>
  <fix>3d</fix>
</trkpt>
<trkpt lat="-35.2764421" lon="148.9864714">
  <ele>660.4</ele>
  <time>2026-09-01T19:59:57Z</time>
  <course>355.81</course>
  <speed>25.752912456652354</speed>
  <fix>3d</fix>
</trkpt>
<trkpt lat="-35.2764845" lon="148.9864748">
  <ele>660.75</ele>
  <time>2026-09-01T19:59:57Z</time>
  <course>356.35</course>
  <speed>25.75</speed>
  <fix>3d</fix>
</trkpt>
<trkpt lat="-35.276419" lon="148.9864696">
  <ele>660.33</ele>
  <time>2026-09-01T19:59:57Z</time>
  <course>355.83</course>
  <speed>25.752912456652354</speed>
  <fix>3d</fix>
</trkpt>
<trkpt lat="-35.2764845" lon="148.9864748">
  <ele>660.75</ele>
  <time>2026-09-01T19:59:57Z</time>
  <course>356.35</course>
  <speed>25.75</speed>
  <fix>3d</fix>
</trkpt>
<trkpt lat="-35.276396" lon="148.9864678">
  <ele>660.26</ele>
  <time>2026-09-01T19:59:57Z</time>
  <course>355.9</course>
  <speed>25.752912456652354</speed>
  <fix>3d</fix>
</trkpt>
<trkpt lat="-35.2764384" lon="148.9864711">
  <ele>660.59</ele>
  <time>2026-09-01T19:59:57Z</time>
  <course>356.35</course>
  <speed>25.74</speed>
  <fix>3d</fix>
</trkpt>
<trkpt lat="-35.2763729" lon="148.9864659">
  <ele>660.2</ele>
  <time>2026-09-01T19:59:57Z</time>
  <course>355.91</course>
  <speed>25.742933010828427</speed>
  <fix>3d</fix>
</trkpt>
<trkpt lat="-35.2764384" lon="148.9864711">
  <ele>660.59</ele>
  <time>2026-09-01T19:59:57Z</time>
  <course>356.35</course>
  <speed>25.74</speed>
  <fix>3d</fix>
</trkpt>
<trkpt lat="-35.2763498" lon="148.9864641">
  <ele>660.14</ele>
  <time>2026-09-01T19:59:57Z</time>
  <course>355.88</course>
  <speed>25.742293992571835</speed>
  <fix>3d</fix>
</trkpt>
<trkpt lat="-35.2763923" lon="148.9864676">
  <ele>660.45</ele>
  <time>2026-09-01T19:59:57Z</time>
  <course>356.34</course>
  <speed>25.74</speed>
  <fix>3d</fix>
</trkpt>
<trkpt lat="-35.2763268" lon="148.9864624">
  <ele>660.08</ele>
  <time>2026-09-01T19:59:58Z</time>
  <course>355.84</course>
  <speed>25.73231431488431</speed>
  <fix>3d</fix>
</trkpt>
<trkpt lat="-35.2763923" lon="148.9864676">
  <ele>660.45</ele>
  <time>2026-09-01T19:59:58Z</time>
  <course>356.34</course>
  <speed>25.74</speed>
  <fix>3d</fix>
</trkpt>
<trkpt lat="-35.2763039" lon="148.9864606">
  <ele>660.03</ele>
  <time>2026-09-01T19:59:58Z</time>
  <course>355.8</course>
  <speed>25.692395762170563</speed>
  <fix>3d</fix>
</trkpt>
<trkpt lat="-35.2763462" lon="148.986464">
  <ele>660.33</ele>
  <time>2026-09-01T19:59:58Z</time>
  <course>356.34</course>
  <speed>25.73</speed>
  <fix>3d</fix>
</trkpt>
<trkpt lat="-35.276281" lon="148.9864588">
  <ele>659.98</ele>
  <time>2026-09-01T19:59:58Z</time>
  <course>355.83</course>
  <speed>25.611921052509903</speed>
  <fix>3d</fix>
</trkpt>
<trkpt lat="-35.2763462" lon="148.986464">
  <ele>660.33</ele>
  <time>2026-09-01T19:59:58Z</time>
  <course>356.34</course>
  <speed>25.73</speed>
  <fix>3d</fix>
</trkpt>
<trkpt lat="-35.2762581" lon="148.986457">
  <ele>659.93</ele>
  <time>2026-09-01T19:59:58Z</time>
  <course>355.72</course>
  <speed>25.46351507549576</speed>
  <fix>3d</fix>
</trkpt>
<trkpt lat="-35.2763001" lon="148.9864604">
  <ele>660.23</ele>
  <time>2026-09-01T19:59:58Z</time>
  <course>356.35</course>
  <speed>25.66</speed>
  <fix>3d</fix>
</trkpt>
<trkpt lat="-35.2762354" lon="148.9864551">
  <ele>659.92</ele>
  <time>2026-09-01T19:59:58Z</time>
  <course>355.29</course>
  <speed>25.244969795981138</speed>
  <fix>3d</fix>
</trkpt>
<trkpt lat="-35.2763001" lon="148.9864604">
  <ele>660.23</ele>
  <time>2026-09-01T19:59:58Z</time>
  <course>356.35</course>
  <speed>25.66</speed>
  <fix>3d</fix>
</trkpt>
<trkpt lat="-35.2762129" lon="148.986453">
  <ele>659.95</ele>
  <time>2026-09-01T19:59:58Z</time>
  <course>354.49</course>
  <speed>24.932011551417187</speed>
  <fix>3d</fix>
</trkpt>
<trkpt lat="-35.2762541" lon="148.9864567">
  <ele>660.14</ele>
  <time>2026-09-01T19:59:58Z</time>
  <course>356.13</course>
  <speed>25.42</speed>
  <fix>3d</fix>
</trkpt>
<trkpt lat="-35.2761906" lon="148.9864504">
  <ele>660.05</ele>
  <time>2026-09-01T19:59:58Z</time>
  <course>353.33</course>
  <speed>24.527131915493097</speed>
  <fix>3d</fix>
</trkpt>
<trkpt lat="-35.2762541" lon="148.9864567">
  <ele>660.14</ele>
  <time>2026-09-01T19:59:58Z</time>
  <course>356.13</course>
  <speed>25.42</speed>
  <fix>3d</fix>
</trkpt>
<trkpt lat="-35.276169" lon="148.9864472">
  <ele>660.2</ele>
  <time>2026-09-01T19:59:58Z</time>
  <course>351.9</course>
  <speed>24.077807209129322</speed>
  <fix>3d</fix>
</trkpt>
<trkpt lat="-35.2762089" lon="148.9864524">
  <ele>660.17</ele>
  <time>2026-09-01T19:59:58Z</time>
  <course>354.95</course>
  <speed>24.89</speed>
  <fix>3d</fix>
</trkpt>
<trkpt lat="-35.2761478" lon="148.9864436">
  <ele>660.41</ele>
  <time>2026-09-01T19:59:58Z</time>
  <course>350.35</course>
  <speed>23.603078189083725</speed>
  <fix>3d</fix>
</trkpt>
<trkpt lat="-35.2762089" lon="148.9864524">
  <ele>660.17</ele>
  <time>2026-09-01T19:59:58Z</time>
  <course>354.95</course>
  <speed>24.89</speed>
  <fix>3d</fix>
</trkpt>
<trkpt lat="-35.2761264" lon="148.9864392">
  <ele>660.66</ele>
  <time>2026-09-01T19:59:58Z</time>
  <course>348.81</course>
  <speed>23.103116672864726</speed>
  <fix>3d</fix>
</trkpt>
<trkpt lat="-35.2761652" lon="148.9864467">
  <ele>660.41</ele>
  <time>2026-09-01T19:59:58Z</time>
  <course>352.67</course>
  <speed>24.08</speed>
  <fix>3d</fix>
</trkpt>
<trkpt lat="-35.2761063" lon="148.9864346">
  <ele>660.95</ele>
  <time>2026-09-01T19:59:58Z</time>
  <course>347.48</course>
  <speed>22.618278006957116</speed>
  <fix>3d</fix>
</trkpt>
<trkpt lat="-35.2761652" lon="148.9864467">
  <ele>660.41</ele>
  <time>2026-09-01T19:59:58Z</time>
  <course>352.67</course>
  <speed>24.08</speed>
  <fix>3d</fix>
</trkpt>
<trkpt lat="-35.2760866" lon="148.9864294">
  <ele>661.27</ele>
  <time>2026-09-01T19:59:58Z</time>
  <course>346.31</course>
  <speed>22.12399828240818</speed>
  <fix>3d</fix>
</trkpt>
<trkpt lat="-35.2761232" lon="148.9864389">
  <ele>660.85</ele>
  <time>2026-09-01T19:59:58Z</time>
  <course>349.93</course>
  <speed>23.14</speed>
  <fix>3d</fix>
</trkpt>
<trkpt lat="-35.2760675" lon="148.9864238">
  <ele>661.62</ele>
  <time>2026-09-01T19:59:58Z</time>
  <course>345.4</course>
  <speed>21.62690222847461</speed>
  <fix>3d</fix>
</trkpt>
<trkpt lat="-35.2761232" lon="148.9864389">
  <ele>660.85</ele>
  <time>2026-09-01T19:59:58Z</time>
  <course>349.93</course>
  <speed>23.14</speed>
  <fix>3d</fix>
</trkpt>
<trkpt lat="-35.2760488" lon="148.986418">
  <ele>661.99</ele>
  <time>2026-09-01T19:59:58Z</time>
  <course>344.77</course>
  <speed>21.161852470896775</speed>
  <fix>3d</fix>
</trkpt>
<trkpt lat="-35.2760834" lon="148.9864291">
  <ele>661.44</ele>
  <time>2026-09-01T19:59:58Z</time>
  <course>347.25</course>
  <speed>22.17</speed>
  <fix>3d</fix>
</trkpt>
<trkpt lat="-35.2760309" lon="148.986412">
  <ele>662.36</ele>
  <time>2026-09-01T19:59:58Z</time>
  <course>344.36</course>
  <speed>20.72919197653396</speed>
  <fix>3d</fix>
</trkpt>
<trkpt lat="-35.2760834" lon="148.9864291">
  <ele>661.44</ele>
  <time>2026-09-01T19:59:58Z</time>
  <course>347.25</course>
  <speed>22.17</speed>
  <fix>3d</fix>
</trkpt>
<trkpt lat="-35.2760131" lon="148.9864059">
  <ele>662.72</ele>
  <time>2026-09-01T19:59:58Z</time>
  <course>344.06</course>
  <speed>20.335201007120634</speed>
  <fix>3d</fix>
</trkpt>
<trkpt lat="-35.2760456" lon="148.9864176">
  <ele>662.14</ele>
  <time>2026-09-01T19:59:58Z</time>
  <course>345.07</course>
  <speed>21.22</speed>
  <fix>3d</fix>
</trkpt>
<trkpt lat="-35.2759957" lon="148.9863996">
  <ele>663.07</ele>
  <time>2026-09-01T19:59:58Z</time>
  <course>343.82</course>
  <speed>19.972593722398702</speed>
  <fix>3d</fix>
</trkpt>
<trkpt lat="-35.2760456" lon="148.9864176">
  <ele>662.14</ele>
  <time>2026-09-01T19:59:58Z</time>
  <course>345.07</course>
  <speed>21.22</speed>
  <fix>3d</fix>
</trkpt>
<trkpt lat="-35.2759787" lon="148.9863934">
  <ele>663.39</ele>
  <time>2026-09-01T19:59:58Z</time>
  <course>343.6</course>
  <speed>19.647180459292372</speed>
  <fix>3d</fix>
</trkpt>
<trkpt lat="-35.2760096" lon="148.9864052">
  <ele>662.86</ele>
  <time>2026-09-01T19:59:58Z</time>
  <course>343.67</course>
  <speed>20.38</speed>
  <fix>3d</fix>
</trkpt>
<trkpt lat="-35.2759619" lon="148.9863871">
  <ele>663.67</ele>
  <time>2026-09-01T19:59:58Z</time>
  <course>343.4</course>
  <speed>19.33544155172051</speed>
  <fix>3d</fix>
</trkpt>
<trkpt lat="-35.2760096" lon="148.9864052">
  <ele>662.86</ele>
  <time>2026-09-01T19:59:58Z</time>
  <course>343.67</course>
  <speed>20.38</speed>
  <fix>3d</fix>
</trkpt>
<trkpt lat="-35.2759455" lon="148.9863809">
  <ele>663.92</ele>
  <time>2026-09-01T19:59:58Z</time>
  <course>343.21</course>
  <speed>19.046647999057473</speed>
  <fix>3d</fix>
</trkpt>
<trkpt lat="-35.2759752" lon="148.9863925">
  <ele>663.5</ele>
  <time>2026-09-01T19:59:58Z</time>
  <course>342.89</course>
  <speed>19.68</speed>
  <fix>3d</fix>
</trkpt>
<trkpt lat="-35.2759293" lon="148.9863747">
  <ele>664.14</ele>
  <time>2026-09-01T19:59:58Z</time>
  <course>343.04</course>
  <speed>18.77405124100816</speed>
  <fix>3d</fix>
</trkpt>
<trkpt lat="-35.2759752" lon="148.9863925">
  <ele>663.5</ele>
  <time>2026-09-01T19:59:58Z</time>
  <course>342.89</course>
  <speed>19.68</speed>
  <fix>3d</fix>
</trkpt>
<trkpt lat="-35.2759133" lon="148.9863686">
  <ele>664.32</ele>
  <time>2026-09-01T19:59:58Z</time>
  <course>342.88</course>
  <speed>18.527109866355303</speed>
  <fix>3d</fix>
</trkpt>
<trkpt lat="-35.275942" lon="148.9863798">
  <ele>664.03</ele>
  <time>2026-09-01T19:59:58Z</time>
  <course>342.47</course>
  <speed>19.08</speed>
  <fix>3d</fix>
</trkpt>
<trkpt lat="-35.2758977" lon="148.9863625">
  <ele>664.46</ele>
  <time>2026-09-01T19:59:58Z</time>
  <course>342.74</course>
  <speed>18.289715689425027</speed>
  <fix>3d</fix>
</trkpt>
<trkpt lat="-35.275942" lon="148.9863798">
  <ele>664.03</ele>
  <time>2026-09-01T19:59:58Z</time>
  <course>342.47</course>
  <speed>19.08</speed>
  <fix>3d</fix>
</trkpt>
<trkpt lat="-35.2758821" lon="148.9863565">
  <ele>664.57</ele>
  <time>2026-09-01T19:59:58Z</time>
  <course>342.65</course>
  <speed>18.06838398972083</speed>
  <fix>3d</fix>
</trkpt>
<trkpt lat="-35.2759098" lon="148.9863672">
  <ele>664.41</ele>
  <time>2026-09-01T19:59:58Z</time>
  <course>342.26</course>
  <speed>18.55</speed>
  <fix>3d</fix>
</trkpt>
<trkpt lat="-35.2758667" lon="148.9863505">
  <ele>664.65</ele>
  <time>2026-09-01T19:59:58Z</time>
  <course>342.59</course>
  <speed>17.853585074152473</speed>
  <fix>3d</fix>
</trkpt>
<trkpt lat="-35.2759098" lon="148.9863672">
  <ele>664.41</ele>
  <time>2026-09-01T19:59:58Z</time>
  <course>342.26</course>
  <speed>18.55</speed>
  <fix>3d</fix>
</trkpt>
<trkpt lat="-35.2758513" lon="148.9863446">
  <ele>664.71</ele>
  <time>2026-09-01T19:59:58Z</time>
  <course>342.59</course>
  <speed>17.657884924305062</speed>
  <fix>3d</fix>
</trkpt>
<trkpt lat="-35.2758785" lon="148.986355">
  <ele>664.65</ele>
  <time>2026-09-01T19:59:58Z</time>
  <course>342.24</course>
  <speed>18.08</speed>
  <fix>3d</fix>
</trkpt>
<trkpt lat="-35.2758361" lon="148.9863387">
  <ele>664.74</ele>
  <time>2026-09-01T19:59:58Z</time>
  <course>342.63</course>
  <speed>17.475368379522074</speed>
  <fix>3d</fix>
</trkpt>
<trkpt lat="-35.2758785" lon="148.986355">
  <ele>664.65</ele>
  <time>2026-09-01T19:59:58Z</time>
  <course>342.24</course>
  <speed>18.08</speed>
  <fix>3d</fix>
</trkpt>
<trkpt lat="-35.2758211" lon="148.986333">
  <ele>664.75</ele>
  <time>2026-09-01T19:59:58Z</time>
  <course>342.74</course>
  <speed>17.29960982218963</speed>
  <fix>3d</fix>
</trkpt>
<trkpt lat="-35.2758478" lon="148.9863429">
  <ele>664.78</ele>
  <time>2026-09-01T19:59:58Z</time>
  <course>342.38</course>
  <speed>17.65</speed>
  <fix>3d</fix>
</trkpt>
<trkpt lat="-35.2758062" lon="148.9863274">
  <ele>664.74</ele>
  <time>2026-09-01T19:59:58Z</time>
  <course>342.91</course>
  <speed>17.13363942657835</speed>
  <fix>3d</fix>
</trkpt>
<trkpt lat="-35.2758478" lon="148.9863429">
  <ele>664.78</ele>
  <time>2026-09-01T19:59:58Z</time>
  <course>342.38</course>
  <speed>17.65</speed>
  <fix>3d</fix>
</trkpt>
<trkpt lat="-35.2757909" lon="148.9863217">
  <ele>664.73</ele>
  <time>2026-09-01T19:59:58Z</time>
  <course>343.14</course>
  <speed>16.971794248104707</speed>
  <fix>3d</fix>
</trkpt>
<trkpt lat="-35.2758178" lon="148.9863314">
  <ele>664.81</ele>
  <time>2026-09-01T19:59:58Z</time>
  <course>342.71</course>
  <speed>17.28</speed>
  <fix>3d</fix>
</trkpt>
<trkpt lat="-35.2757763" lon="148.9863164">
  <ele>664.7</ele>
  <time>2026-09-01T19:59:58Z</time>
  <course>343.42</course>
  <speed>16.81721142163587</speed>
  <fix>3d</fix>
</trkpt>
<trkpt lat="-35.2758178" lon="148.9863314">
  <ele>664.81</ele>
  <time>2026-09-01T19:59:58Z</time>
  <course>342.71</course>
  <speed>17.28</speed>
  <fix>3d</fix>
</trkpt>
<trkpt lat="-35.275762" lon="148.9863113">
  <ele>664.66</ele>
  <time>2026-09-01T19:59:58Z</time>
  <course>343.75</course>
  <speed>16.67285518440078</speed>
  <fix>3d</fix>
</trkpt>
<trkpt lat="-35.2757885" lon="148.9863204">
  <ele>664.78</ele>
  <time>2026-09-01T19:59:58Z</time>
  <course>343.24</course>
  <speed>16.94</speed>
  <fix>3d</fix>
</trkpt>
<trkpt lat="-35.2757476" lon="148.9863063">
  <ele>664.62</ele>
  <time>2026-09-01T19:59:58Z</time>
  <course>344.13</course>
  <speed>16.523831274858747</speed>
  <fix>3d</fix>
</trkpt>
<trkpt lat="-35.2757885" lon="148.9863204">
  <ele>664.78</ele>
  <time>2026-09-01T19:59:58Z</time>
  <course>343.24</course>
  <speed>16.94</speed>
  <fix>3d</fix>
</trkpt>
<trkpt lat="-35.2757334" lon="148.9863015">
  <ele>664.58</ele>
  <time>2026-09-01T19:59:58Z</time>
  <course>344.55</course>
  <speed>16.373173180541393</speed>
  <fix>3d</fix>
</trkpt>
<trkpt lat="-35.2757596" lon="148.98631">
  <ele>664.72</ele>
  <time>2026-09-01T19:59:58Z</time>
  <course>343.95</course>
  <speed>16.62</speed>
  <fix>3d</fix>
</trkpt>
<trkpt lat="-35.2757193" lon="148.9862969">
  <ele>664.54</ele>
  <time>2026-09-01T19:59:58Z</time>
  <course>345.01</course>
  <speed>16.233326830936413</speed>
  <fix>3d</fix>
</trkpt>
<trkpt lat="-35.2757596" lon="148.98631">
  <ele>664.72</ele>
  <time>2026-09-01T19:59:58Z</time>
  <course>343.95</course>
  <speed>16.62</speed>
  <fix>3d</fix>
</trkpt>
<trkpt lat="-35.2757052" lon="148.9862925">
  <ele>664.49</ele>
  <time>2026-09-01T19:59:58Z</time>
  <course>345.52</course>
  <speed>16.082568202871084</speed>
  <fix>3d</fix>
</trkpt>
<trkpt lat="-35.2757311" lon="148.9863002">
  <ele>664.64</ele>
  <time>2026-09-01T19:59:58Z</time>
  <course>344.85</course>
  <speed>16.32</speed>
  <fix>3d</fix>
</trkpt>
<trkpt lat="-35.2756913" lon="148.9862883">
  <ele>664.45</ele>
  <time>2026-09-01T19:59:58Z</time>
  <course>346.05</course>
  <speed>15.94059283715634</speed>
  <fix>3d</fix>
</trkpt>
<trkpt lat="-35.2757311" lon="148.9863002">
  <ele>664.64</ele>
  <time>2026-09-01T19:59:58Z</time>
  <course>344.85</course>
  <speed>16.32</speed>
  <fix>3d</fix>
</trkpt>
<trkpt lat="-35.2756775" lon="148.9862843">
  <ele>664.4</ele>
  <time>2026-09-01T19:59:58Z</time>
  <course>346.61</course>
  <speed>15.800259491540006</speed>
  <fix>3d</fix>
</trkpt>
<trkpt lat="-35.275703" lon="148.9862913">
  <ele>664.55</ele>
  <time>2026-09-01T19:59:58Z</time>
  <course>345.9</course>
  <speed>16.03</speed>
  <fix>3d</fix>
</trkpt>
<trkpt lat="-35.2756638" lon="148.9862805">
  <ele>664.36</ele>
  <time>2026-09-01T19:59:58Z</time>
  <course>347.19</course>
  <speed>15.661612305251333</speed>
  <fix>3d</fix>
</trkpt>
<trkpt lat="-35.275703" lon="148.9862913">
  <ele>664.55</ele>
  <time>2026-09-01T19:59:58Z</time>
  <course>345.9</course>
  <speed>16.03</speed>
  <fix>3d</fix>
</trkpt>
<trkpt lat="-35.2756502" lon="148.986277">
  <ele>664.32</ele>
  <time>2026-09-01T19:59:58Z</time>
  <course>347.8</course>
  <speed>15.512897859523216</speed>
  <fix>3d</fix>
</trkpt>
<trkpt lat="-35.2756752" lon="148.986283">
  <ele>664.47</ele>
  <time>2026-09-01T19:59:58Z</time>
  <course>347.06</course>
  <speed>15.74</speed>
  <fix>3d</fix>
</trkpt>
<trkpt lat="-35.2756366" lon="148.9862736">
  <ele>664.29</ele>
  <time>2026-09-01T19:59:58Z</time>
  <course>348.42</course>
  <speed>15.375955254877663</speed>
  <fix>3d</fix>
</trkpt>
<trkpt lat="-35.2756752" lon="148.986283">
  <ele>664.47</ele>
  <time>2026-09-01T19:59:58Z</time>
  <course>347.06</course>
  <speed>15.74</speed>
  <fix>3d</fix>
</trkpt>
<trkpt lat="-35.2756232" lon="148.9862705">
  <ele>664.26</ele>
  <time>2026-09-01T19:59:58Z</time>
  <course>349.06</course>
  <speed>15.232997078710413</speed>
  <fix>3d</fix>
</trkpt>
<trkpt lat="-35.2756478" lon="148.9862757">
  <ele>664.39</ele>
  <time>2026-09-01T19:59:58Z</time>
  <course>348.32</course>
  <speed>15.46</speed>
  <fix>3d</fix>
</trkpt>
<trkpt lat="-35.2756102" lon="148.9862676">
  <ele>664.23</ele>
  <time>2026-09-01T19:59:58Z</time>
  <course>349.69</course>
  <speed>15.101738310538956</speed>
  <fix>3d</fix>
</trkpt>
<trkpt lat="-35.2756478" lon="148.9862757">
  <ele>664.39</ele>
  <time>2026-09-01T19:59:58Z</time>
  <course>348.32</course>
  <speed>15.46</speed>
  <fix>3d</fix>
</trkpt>
<trkpt lat="-35.275597" lon="148.9862649">
  <ele>664.2</ele>
  <time>2026-09-01T19:59:58Z</time>
  <course>350.35</course>
  <speed>14.960975903997708</speed>
  <fix>3d</fix>
</trkpt>
<trkpt lat="-35.2756208" lon="148.9862694">
  <ele>664.32</ele>
  <time>2026-09-01T19:59:58Z</time>
  <course>349.64</course>
  <speed>15.18</speed>
  <fix>3d</fix>
</trkpt>
<trkpt lat="-35.2755837" lon="148.9862624">
  <ele>664.17</ele>
  <time>2026-09-01T19:59:58Z</time>
  <course>351.03</course>
  <speed>14.823825417212657</speed>
  <fix>3d</fix>
</trkpt>
<trkpt lat="-35.2756208" lon="148.9862694">
  <ele>664.32</ele>
  <time>2026-09-01T19:59:58Z</time>
  <course>349.64</course>
  <speed>15.18</speed>
  <fix>3d</fix>
</trkpt>
<trkpt lat="-35.2755706" lon="148.9862601">
  <ele>664.15</ele>
  <time>2026-09-01T19:59:58Z</time>
  <course>351.72</course>
  <speed>14.687358509956784</speed>
  <fix>3d</fix>
</trkpt>
<trkpt lat="-35.2755942" lon="148.9862638">
  <ele>664.27</ele>
  <time>2026-09-01T19:59:58Z</time>
  <course>351.0</course>
  <speed>14.9</speed>
  <fix>3d</fix>
</trkpt>
<trkpt lat="-35.2755576" lon="148.986258">
  <ele>664.13</ele>
  <time>2026-09-01T19:59:58Z</time>
  <course>352.42</course>
  <speed>14.554384219196633</speed>
  <fix>3d</fix>
</trkpt>
<trkpt lat="-35.2755942" lon="148.9862638">
  <ele>664.27</ele>
  <time>2026-09-01T19:59:58Z</time>
  <course>351.0</course>
  <speed>14.9</speed>
  <fix>3d</fix>
</trkpt>
<trkpt lat="-35.2755446" lon="148.9862561">
  <ele>664.11</ele>
  <time>2026-09-01T19:59:58Z</time>
  <course>353.13</course>
  <speed>14.413583870779675</speed>
  <fix>3d</fix>
</trkpt>
<trkpt lat="-35.2755679" lon="148.986259">
  <ele>664.22</ele>
  <time>2026-09-01T19:59:58Z</time>
  <course>352.41</course>
  <speed>14.62</speed>
  <fix>3d</fix>
</trkpt>
<trkpt lat="-35.2755318" lon="148.9862545">
  <ele>664.09</ele>
  <time>2026-09-01T19:59:58Z</time>
  <course>353.83</course>
  <speed>14.274932574271586</speed>
  <fix>3d</fix>
</trkpt>
<trkpt lat="-35.2755679" lon="148.986259">
  <ele>664.22</ele>
  <time>2026-09-01T19:59:58Z</time>
  <course>352.41</course>
  <speed>14.62</speed>
  <fix>3d</fix>
</trkpt>
<trkpt lat="-35.2755192" lon="148.986253">
  <ele>664.08</ele>
  <time>2026-09-01T19:59:58Z</time>
  <course>354.55</course>
  <speed>14.139324594901977</speed>
  <fix>3d</fix>
</trkpt>
<trkpt lat="-35.275542" lon="148.9862552">
  <ele>664.18</ele>
  <time>2026-09-01T19:59:58Z</time>
  <course>353.83</course>
  <speed>14.35</speed>
  <fix>3d</fix>
</trkpt>
<trkpt lat="-35.2755062" lon="148.9862517">
  <ele>664.06</ele>
  <time>2026-09-01T19:59:58Z</time>
  <course>355.29</course>
  <speed>14.005034808953528</speed>
  <fix>3d</fix>
</trkpt>
<trkpt lat="-35.275542" lon="148.9862552">
  <ele>664.18</ele>
  <time>2026-09-01T19:59:58Z</time>
  <course>353.83</course>
  <speed>14.35</speed>
  <fix>3d</fix>
</trkpt>
<trkpt lat="-35.2754938" lon="148.9862507">
  <ele>664.04</ele>
  <time>2026-09-01T19:59:58Z</time>
  <course>356.0</course>
  <speed>13.863682771904442</speed>
  <fix>3d</fix>
</trkpt>
<trkpt lat="-35.2755166" lon="148.9862523">
  <ele>664.14</ele>
  <time>2026-09-01T19:59:58Z</time>
  <course>355.27</course>
  <speed>14.07</speed>
  <fix>3d</fix>
</trkpt>
<trkpt lat="-35.2754814" lon="148.9862499">
  <ele>664.03</ele>
  <time>2026-09-01T19:59:58Z</time>
  <course>356.72</course>
  <speed>13.734919002309404</speed>
  <fix>3d</fix>
</trkpt>
<trkpt lat="-35.2755166" lon="148.9862523">
  <ele>664.14</ele>
  <time>2026-09-01T19:59:58Z</time>
  <course>355.27</course>
  <speed>14.07</speed>
  <fix>3d</fix>
</trkpt>
<trkpt lat="-35.2754692" lon="148.9862492">
  <ele>664.01</ele>
  <time>2026-09-01T19:59:58Z</time>
  <course>357.44</course>
  <speed>13.598124870731258</speed>
  <fix>3d</fix>
</trkpt>
<trkpt lat="-35.2754916" lon="148.9862501">
  <ele>664.1</ele>
  <time>2026-09-01T19:59:58Z</time>
  <course>356.7</course>
  <speed>13.8</speed>
  <fix>3d</fix>
</trkpt>
<trkpt lat="-35.2754571" lon="148.9862488">
  <ele>664.0</ele>
  <time>2026-09-01T19:59:58Z</time>
  <course>358.15</course>
  <speed>13.46334282412804</speed>
  <fix>3d</fix>
</trkpt>
<trkpt lat="-35.2754916" lon="148.9862501">
  <ele>664.1</ele>
  <time>2026-09-01T19:59:58Z</time>
  <course>356.7</course>
  <speed>13.8</speed>
  <fix>3d</fix>
</trkpt>
<trkpt lat="-35.2754451" lon="148.9862485">
  <ele>663.99</ele>
  <time>2026-09-01T19:59:58Z</time>
  <course>358.87</course>
  <speed>13.320735715417522</speed>
  <fix>3d</fix>
</trkpt>
<trkpt lat="-35.2754671" lon="148.9862488">
  <ele>664.08</ele>
  <time>2026-09-01T19:59:58Z</time>
  <course>358.13</course>
  <speed>13.53</speed>
  <fix>3d</fix>
</trkpt>
<trkpt lat="-35.2754331" lon="148.9862484">
  <ele>663.99</ele>
  <time>2026-09-01T19:59:58Z</time>
  <course>359.58</course>
  <speed>13.180003793626161</speed>
  <fix>3d</fix>
</trkpt>
<trkpt lat="-35.2754671" lon="148.9862488">
  <ele>664.08</ele>
  <time>2026-09-01T19:59:58Z</time>
  <course>358.13</course>
  <speed>13.53</speed>
  <fix>3d</fix>
</trkpt>
<trkpt lat="-35.2754213" lon="148.9862485">
  <ele>663.98</ele>
  <time>2026-09-01T19:59:58Z</time>
  <course>0.29</course>
  <speed>13.051107232721675</speed>
  <fix>3d</fix>
</trkpt>
<trkpt lat="-35.2754431" lon="148.9862481">
  <ele>664.06</ele>
  <time>2026-09-01T19:59:58Z</time>
  <course>359.55</course>
  <speed>13.26</speed>
  <fix>3d</fix>
</trkpt>
<trkpt lat="-35.2754097" lon="148.9862487">
  <ele>663.98</ele>
  <time>2026-09-01T19:59:58Z</time>
  <course>0.99</course>
  <speed>12.903724268597808</speed>
  <fix>3d</fix>
</trkpt>
<trkpt lat="-35.2754431" lon="148.9862481">
  <ele>664.06</ele>
  <time>2026-09-01T19:59:58Z</time>
  <course>359.55</course>
  <speed>13.26</speed>
  <fix>3d</fix>
</trkpt>
<trkpt lat="-35.2753982" lon="148.9862491">
  <ele>663.98</ele>
  <time>2026-09-01T19:59:58Z</time>
  <course>1.69</course>
  <speed>12.768288843850613</speed>
  <fix>3d</fix>
</trkpt>
<trkpt lat="-35.2754195" lon="148.9862483">
  <ele>664.05</ele>
  <time>2026-09-01T19:59:58Z</time>
  <course>0.94</course>
  <speed>12.98</speed>
  <fix>3d</fix>
</trkpt>
<trkpt lat="-35.2753868" lon="148.9862496">
  <ele>663.98</ele>
  <time>2026-09-01T19:59:58Z</time>
  <course>2.38</course>
  <speed>12.624266315315118</speed>
  <fix>3d</fix>
</trkpt>
<trkpt lat="-35.2754195" lon="148.9862483">
  <ele>664.05</ele>
  <time>2026-09-01T19:59:58Z</time>
  <course>0.94</course>
  <speed>12.98</speed>
  <fix>3d</fix>
</trkpt>
<trkpt lat="-35.2753756" lon="148.9862503">
  <ele>663.98</ele>
  <time>2026-09-01T19:59:58Z</time>
  <course>3.05</course>
  <speed>12.48136611112742</speed>
  <fix>3d</fix>
</trkpt>
<trkpt lat="-35.2753964" lon="148.986249">
  <ele>664.05</ele>
  <time>2026-09-01T19:59:58Z</time>
  <course>2.31</course>
  <speed>12.71</speed>
  <fix>3d</fix>
</trkpt>
<trkpt lat="-35.2753645" lon="148.9862512">
  <ele>663.98</ele>
  <time>2026-09-01T19:59:58Z</time>
  <course>3.71</course>
  <speed>12.340004051863193</speed>
  <fix>3d</fix>
</trkpt>
<trkpt lat="-35.2753964" lon="148.986249">
  <ele>664.05</ele>
  <time>2026-09-01T19:59:58Z</time>
  <course>2.31</course>
  <speed>12.71</speed>
  <fix>3d</fix>
</trkpt>
<trkpt lat="-35.2753535" lon="148.9862522">
  <ele>663.99</ele>
  <time>2026-09-01T19:59:58Z</time>
  <course>4.35</course>
  <speed>12.18945856057602</speed>
  <fix>3d</fix>
</trkpt>
<trkpt lat="-35.2753739" lon="148.9862504">
  <ele>664.05</ele>
  <time>2026-09-01T19:59:58Z</time>
  <course>3.64</course>
  <speed>12.42</speed>
  <fix>3d</fix>
</trkpt>
<trkpt lat="-35.2753427" lon="148.9862534">
  <ele>664.01</ele>
  <time>2026-09-01T19:59:58Z</time>
  <course>4.99</course>
  <speed>12.039443508734115</speed>
  <fix>3d</fix>
</trkpt>
<trkpt lat="-35.2753739" lon="148.9862504">
  <ele>664.05</ele>
  <time>2026-09-01T19:59:58Z</time>
  <course>3.64</course>
  <speed>12.42</speed>
  <fix>3d</fix>
</trkpt>
<trkpt lat="-35.275332" lon="148.9862547">
  <ele>664.02</ele>
  <time>2026-09-01T19:59:58Z</time>
  <course>5.61</course>
  <speed>11.890706455042945</speed>
  <fix>3d</fix>
</trkpt>
<trkpt lat="-35.2753518" lon="148.9862525">
  <ele>664.07</ele>
  <time>2026-09-01T19:59:58Z</time>
  <course>4.93</course>
  <speed>12.14</speed>
  <fix>3d</fix>
</trkpt>
<trkpt lat="-35.2753215" lon="148.9862561">
  <ele>664.04</ele>
  <time>2026-09-01T19:59:58Z</time>
  <course>6.22</course>
  <speed>11.743295959823204</speed>
  <fix>3d</fix>
</trkpt>
<trkpt lat="-35.2753518" lon="148.9862525">
  <ele>664.07</ele>
  <time>2026-09-01T19:59:58Z</time>
  <course>4.93</course>
  <speed>12.14</speed>
  <fix>3d</fix>
</trkpt>
<trkpt lat="-35.2753111" lon="148.9862576">
  <ele>664.06</ele>
  <time>2026-09-01T19:59:58Z</time>
  <course>6.82</course>
  <speed>11.586116691972336</speed>
  <fix>3d</fix>
</trkpt>
<trkpt lat="-35.2753304" lon="148.9862551">
  <ele>664.09</ele>
  <time>2026-09-01T19:59:58Z</time>
  <course>6.17</course>
  <speed>11.84</speed>
  <fix>3d</fix>
</trkpt>
<trkpt lat="-35.2753009" lon="148.9862592">
  <ele>664.08</ele>
  <time>2026-09-01T19:59:58Z</time>
  <course>7.4</course>
  <speed>11.42886258557692</speed>
  <fix>3d</fix>
</trkpt>
<trkpt lat="-35.2753304" lon="148.9862551">
  <ele>664.09</ele>
  <time>2026-09-01T19:59:58Z</time>
  <course>6.17</course>
  <speed>11.84</speed>
  <fix>3d</fix>
</trkpt>
<trkpt lat="-35.2752908" lon="148.9862609">
  <ele>664.1</ele>
  <time>2026-09-01T19:59:58Z</time>
  <course>7.97</course>
  <speed>11.272697104065204</speed>
  <fix>3d</fix>
</trkpt>
<trkpt lat="-35.2753095" lon="148.986258">
  <ele>664.13</ele>
  <time>2026-09-01T19:59:58Z</time>
  <course>7.36</course>
  <speed>11.54</speed>
  <fix>3d</fix>
</trkpt>
<trkpt lat="-35.2752811" lon="148.9862627">
  <ele>664.13</ele>
  <time>2026-09-01T19:59:58Z</time>
  <course>8.51</course>
  <speed>11.11466148832253</speed>
  <fix>3d</fix>
</trkpt>
<trkpt lat="-35.2753095" lon="148.986258">
  <ele>664.13</ele>
  <time>2026-09-01T19:59:58Z</time>
  <course>7.36</course>
  <speed>11.54</speed>
  <fix>3d</fix>
</trkpt>
<trkpt lat="-35.2752711" lon="148.9862647">
  <ele>664.16</ele>
  <time>2026-09-01T19:59:58Z</time>
  <course>9.07</course>
  <speed>10.939268714132586</speed>
  <fix>3d</fix>
</trkpt>
<trkpt lat="-35.2752892" lon="148.9862615">
  <ele>664.17</ele>
  <time>2026-09-01T19:59:58Z</time>
  <course>8.5</course>
  <speed>11.22</speed>
  <fix>3d</fix>
</trkpt>
<trkpt lat="-35.2752615" lon="148.9862666">
  <ele>664.19</ele>
  <time>2026-09-01T19:59:58Z</time>
  <course>9.6</course>
  <speed>10.782995873132847</speed>
  <fix>3d</fix>
</trkpt>
<trkpt lat="-35.2752892" lon="148.9862615">
  <ele>664.17</ele>
  <time>2026-09-01T19:59:58Z</time>
  <course>8.5</course>
  <speed>11.22</speed>
  <fix>3d</fix>
</trkpt>
<trkpt lat="-35.2752521" lon="148.9862687">
  <ele>664.23</ele>
  <time>2026-09-01T19:59:58Z</time>
  <course>10.11</course>
  <speed>10.615997362471411</speed>
  <fix>3d</fix>
</trkpt>
<trkpt lat="-35.2752696" lon="148.9862653">
  <ele>664.23</ele>
  <time>2026-09-01T19:59:58Z</time>
  <course>9.59</course>
  <speed>10.9</speed>
  <fix>3d</fix>
</trkpt>
<trkpt lat="-35.2752428" lon="148.9862709">
  <ele>664.26</ele>
  <time>2026-09-01T19:59:58Z</time>
  <course>10.61</course>
  <speed>10.439947317874742</speed>
  <fix>3d</fix>
</trkpt>
<trkpt lat="-35.2752696" lon="148.9862653">
  <ele>664.23</ele>
  <time>2026-09-01T19:59:58Z</time>
  <course>9.59</course>
  <speed>10.9</speed>
  <fix>3d</fix>
</trkpt>
<trkpt lat="-35.2752336" lon="148.9862731">
  <ele>664.3</ele>
  <time>2026-09-01T19:59:58Z</time>
  <course>11.1</course>
  <speed>10.2726238128338</speed>
  <fix>3d</fix>
</trkpt>
<trkpt lat="-35.2752506" lon="148.9862695">
  <ele>664.29</ele>
  <time>2026-09-01T19:59:58Z</time>
  <course>10.62</course>
  <speed>10.57</speed>
  <fix>3d</fix>
</trkpt>
<trkpt lat="-35.2752246" lon="148.9862753">
  <ele>664.34</ele>
  <time>2026-09-01T19:59:58Z</time>
  <course>11.57</course>
  <speed>10.09418149232517</speed>
  <fix>3d</fix>
</trkpt>
<trkpt lat="-35.2752506" lon="148.9862695">
  <ele>664.29</ele>
  <time>2026-09-01T19:59:58Z</time>
  <course>10.62</course>
  <speed>10.57</speed>
  <fix>3d</fix>
</trkpt>
<trkpt lat="-35.2752158" lon="148.9862776">
  <ele>664.38</ele>
  <time>2026-09-01T19:59:58Z</time>
  <course>12.03</course>
  <speed>9.916329966272805</speed>
  <fix>3d</fix>
</trkpt>
<trkpt lat="-35.2752323" lon="148.9862739">
  <ele>664.36</ele>
  <time>2026-09-01T19:59:58Z</time>
  <course>11.59</course>
  <speed>10.23</speed>
  <fix>3d</fix>
</trkpt>
<trkpt lat="-35.2752072" lon="148.98628">
  <ele>664.41</ele>
  <time>2026-09-01T19:59:58Z</time>
  <course>12.47</course>
  <speed>9.739101601277193</speed>
  <fix>3d</fix>
</trkpt>
<trkpt lat="-35.2752323" lon="148.9862739">
  <ele>664.36</ele>
  <time>2026-09-01T19:59:58Z</time>
  <course>11.59</course>
  <speed>10.23</speed>
  <fix>3d</fix>
</trkpt>
<trkpt lat="-35.2751988" lon="148.9862824">
  <ele>664.45</ele>
  <time>2026-09-01T19:59:58Z</time>
  <course>12.9</course>
  <speed>9.55807512002286</speed>
  <fix>3d</fix>
</trkpt>
<trkpt lat="-35.2752146" lon="148.9862785">
  <ele>664.44</ele>
  <time>2026-09-01T19:59:58Z</time>
  <course>12.51</course>
  <speed>9.88</speed>
  <fix>3d</fix>
</trkpt>
<trkpt lat="-35.2751905" lon="148.9862848">
  <ele>664.49</ele>
  <time>2026-09-01T19:59:58Z</time>
  <course>13.31</course>
  <speed>9.379733471693106</speed>
  <fix>3d</fix>
</trkpt>
<trkpt lat="-35.2752146" lon="148.9862785">
  <ele>664.44</ele>
  <time>2026-09-01T19:59:58Z</time>
  <course>12.51</course>
  <speed>9.88</speed>
  <fix>3d</fix>
</trkpt>
<trkpt lat="-35.2751825" lon="148.9862872">
  <ele>664.53</ele>
  <time>2026-09-01T19:59:58Z</time>
  <course>13.71</course>
  <speed>9.199592382274336</speed>
  <fix>3d</fix>
</trkpt>
<trkpt lat="-35.2751976" lon="148.9862833">
  <ele>664.51</ele>
  <time>2026-09-01T19:59:58Z</time>
  <course>13.36</course>
  <speed>9.52</speed>
  <fix>3d</fix>
</trkpt>
<trkpt lat="-35.2751746" lon="148.9862896">
  <ele>664.56</ele>
  <time>2026-09-01T19:59:58Z</time>
  <course>14.09</course>
  <speed>9.007774419910836</speed>
  <fix>3d</fix>
</trkpt>
<trkpt lat="-35.2751976" lon="148.9862833">
  <ele>664.51</ele>
  <time>2026-09-01T19:59:58Z</time>
  <course>13.36</course>
  <speed>9.52</speed>
  <fix>3d</fix>
</trkpt>
<trkpt lat="-35.2751669" lon="148.9862921">
  <ele>664.6</ele>
  <time>2026-09-01T19:59:58Z</time>
  <course>14.46</course>
  <speed>8.826018354841553</speed>
  <fix>3d</fix>
</trkpt>
<trkpt lat="-35.2751813" lon="148.9862882">
  <ele>664.58</ele>
  <time>2026-09-01T19:59:58Z</time>
  <course>14.16</course>
  <speed>9.16</speed>
  <fix>3d</fix>
</trkpt>
<trkpt lat="-35.2751593" lon="148.9862946">
  <ele>664.63</ele>
  <time>2026-09-01T19:59:58Z</time>
  <course>14.82</course>
  <speed>8.642088867860593</speed>
  <fix>3d</fix>
</trkpt>
<trkpt lat="-35.2751813" lon="148.9862882">
  <ele>664.58</ele>
  <time>2026-09-01T19:59:58Z</time>
  <course>14.16</course>
  <speed>9.16</speed>
  <fix>3d</fix>
</trkpt>
<trkpt lat="-35.2751519" lon="148.986297">
  <ele>664.66</ele>
  <time>2026-09-01T19:59:58Z</time>
  <course>15.16</course>
  <speed>8.448769141123456</speed>
  <fix>3d</fix>
</trkpt>
<trkpt lat="-35.2751657" lon="148.9862931">
  <ele>664.66</ele>
  <time>2026-09-01T19:59:58Z</time>
  <course>14.91</course>
  <speed>8.8</speed>
  <fix>3d</fix>
</trkpt>
<trkpt lat="-35.2751447" lon="148.9862995">
  <ele>664.7</ele>
  <time>2026-09-01T19:59:58Z</time>
  <course>15.5</course>
  <speed>8.265409850697061</speed>
  <fix>3d</fix>
</trkpt>
<trkpt lat="-35.2751657" lon="148.9862931">
  <ele>664.66</ele>
  <time>2026-09-01T19:59:58Z</time>
  <course>14.91</course>
  <speed>8.8</speed>
  <fix>3d</fix>
</trkpt>
<trkpt lat="-35.2751377" lon="148.986302">
  <ele>664.72</ele>
  <time>2026-09-01T19:59:58Z</time>
  <course>15.82</course>
  <speed>8.079653457915136</speed>
  <fix>3d</fix>
</trkpt>
<trkpt lat="-35.2751508" lon="148.9862982">
  <ele>664.73</ele>
  <time>2026-09-01T19:59:58Z</time>
  <course>15.61</course>
  <speed>8.42</speed>
  <fix>3d</fix>
</trkpt>
<trkpt lat="-35.2751309" lon="148.9863044">
  <ele>664.75</ele>
  <time>2026-09-01T19:59:58Z</time>
  <course>16.14</course>
  <speed>7.894111729637477</speed>
  <fix>3d</fix>
</trkpt>
<trkpt lat="-35.2751508" lon="148.9862982">
  <ele>664.73</ele>
  <time>2026-09-01T19:59:58Z</time>
  <course>15.61</course>
  <speed>8.42</speed>
  <fix>3d</fix>
</trkpt>
<trkpt lat="-35.2751241" lon="148.9863069">
  <ele>664.77</ele>
  <time>2026-09-01T19:59:58Z</time>
  <course>16.44</course>
  <speed>7.708800166044</speed>
  <fix>3d</fix>
</trkpt>
<trkpt lat="-35.2751365" lon="148.9863032">
  <ele>664.78</ele>
  <time>2026-09-01T19:59:58Z</time>
  <course>16.26</course>
  <speed>8.05</speed>
  <fix>3d</fix>
</trkpt>
<trkpt lat="-35.2751176" lon="148.9863093">
  <ele>664.79</ele>
  <time>2026-09-01T19:59:58Z</time>
  <course>16.74</course>
  <speed>7.520884256521969</speed>
  <fix>3d</fix>
</trkpt>
<trkpt lat="-35.2751365" lon="148.9863032">
  <ele>664.78</ele>
  <time>2026-09-01T19:59:58Z</time>
  <course>16.26</course>
  <speed>8.05</speed>
  <fix>3d</fix>
</trkpt>
<trkpt lat="-35.2751112" lon="148.9863118">
  <ele>664.8</ele>
  <time>2026-09-01T19:59:58Z</time>
  <course>17.03</course>
  <speed>7.336027535389981</speed>
  <fix>3d</fix>
</trkpt>
<trkpt lat="-35.275123" lon="148.9863081">
  <ele>664.82</ele>
  <time>2026-09-01T19:59:58Z</time>
  <course>16.87</course>
  <speed>7.68</speed>
  <fix>3d</fix>
</trkpt>
<trkpt lat="-35.2751049" lon="148.9863142">
  <ele>664.81</ele>
  <time>2026-09-01T19:59:58Z</time>
  <course>17.32</course>
  <speed>7.155110062046565</speed>
  <fix>3d</fix>
</trkpt>
<trkpt lat="-35.275123" lon="148.9863081">
  <ele>664.82</ele>
  <time>2026-09-01T19:59:58Z</time>
  <course>16.87</course>
  <speed>7.68</speed>
  <fix>3d</fix>
</trkpt>
<trkpt lat="-35.2750989" lon="148.9863166">
  <ele>664.81</ele>
  <time>2026-09-01T19:59:58Z</time>
  <course>17.59</course>
  <speed>6.977248741445298</speed>
  <fix>3d</fix>
</trkpt>
<trkpt lat="-35.2751101" lon="148.986313">
  <ele>664.86</ele>
  <time>2026-09-01T19:59:58Z</time>
  <course>17.43</course>
  <speed>7.31</speed>
  <fix>3d</fix>
</trkpt>
<trkpt lat="-35.275093" lon="148.9863189">
  <ele>664.77</ele>
  <time>2026-09-01T19:59:58Z</time>
  <course>17.87</course>
  <speed>6.771447408050956</speed>
  <fix>3d</fix>
</trkpt>
<trkpt lat="-35.2751101" lon="148.986313">
  <ele>664.86</ele>
  <time>2026-09-01T19:59:58Z</time>
  <course>17.43</course>
  <speed>7.31</speed>
  <fix>3d</fix>
</trkpt>
<trkpt lat="-35.2750873" lon="148.9863212">
  <ele>664.65</ele>
  <time>2026-09-01T19:59:58Z</time>
  <course>18.14</course>
  <speed>6.489884436567419</speed>
  <fix>3d</fix>
</trkpt>
<trkpt lat="-35.2750979" lon="148.9863177">
  <ele>664.86</ele>
  <time>2026-09-01T19:59:58Z</time>
  <course>17.86</course>
  <speed>6.93</speed>
  <fix>3d</fix>
</trkpt>
<trkpt lat="-35.2750818" lon="148.9863234">
  <ele>664.45</ele>
  <time>2026-09-01T19:59:58Z</time>
  <course>18.4</course>
  <speed>6.145087468864865</speed>
  <fix>3d</fix>
</trkpt>
<trkpt lat="-35.2750979" lon="148.9863177">
  <ele>664.86</ele>
  <time>2026-09-01T19:59:58Z</time>
  <course>17.86</course>
  <speed>6.93</speed>
  <fix>3d</fix>
</trkpt>
<trkpt lat="-35.2750767" lon="148.9863255">
  <ele>664.2</ele>
  <time>2026-09-01T19:59:58Z</time>
  <course>18.64</course>
  <speed>5.698929724079777</speed>
  <fix>3d</fix>
</trkpt>
<trkpt lat="-35.2750865" lon="148.9863222">
  <ele>664.69</ele>
  <time>2026-09-01T19:59:58Z</time>
  <course>18.08</course>
  <speed>6.43</speed>
  <fix>3d</fix>
</trkpt>
<trkpt lat="-35.275072" lon="148.9863274">
  <ele>663.9</ele>
  <time>2026-09-01T19:59:58Z</time>
  <course>18.87</course>
  <speed>5.189576090587747</speed>
  <fix>3d</fix>
</trkpt>
<trkpt lat="-35.2750865" lon="148.9863222">
  <ele>664.69</ele>
  <time>2026-09-01T19:59:58Z</time>
  <course>18.08</course>
  <speed>6.43</speed>
  <fix>3d</fix>
</trkpt>
<trkpt lat="-35.2750678" lon="148.9863291">
  <ele>663.57</ele>
  <time>2026-09-01T19:59:58Z</time>
  <course>19.08</course>
  <speed>4.629643614793692</speed>
  <fix>3d</fix>
</trkpt>
<trkpt lat="-35.2750761" lon="148.9863264">
  <ele>664.27</ele>
  <time>2026-09-01T19:59:58Z</time>
  <course>18.28</course>
  <speed>5.64</speed>
  <fix>3d</fix>
</trkpt>
<trkpt lat="-35.2750641" lon="148.9863307">
  <ele>663.23</ele>
  <time>2026-09-01T19:59:58Z</time>
  <course>19.29</course>
  <speed>4.057203470372173</speed>
  <fix>3d</fix>
</trkpt>
<trkpt lat="-35.2750761" lon="148.9863264">
  <ele>664.27</ele>
  <time>2026-09-01T19:59:58Z</time>
  <course>18.28</course>
  <speed>5.64</speed>
  <fix>3d</fix>
</trkpt>
<trkpt lat="-35.2750609" lon="148.9863321">
  <ele>662.87</ele>
  <time>2026-09-01T19:59:58Z</time>
  <course>19.51</course>
  <speed>3.4975705854206858</speed>
  <fix>3d</fix>
</trkpt>
<trkpt lat="-35.2750674" lon="148.98633">
  <ele>663.66</ele>
  <time>2026-09-01T19:59:58Z</time>
  <course>18.76</course>
  <speed>4.61</speed>
  <fix>3d</fix>
</trkpt>
<trkpt lat="-35.2750582" lon="148.9863333">
  <ele>662.51</ele>
  <time>2026-09-01T19:59:58Z</time>
  <course>19.74</course>
  <speed>2.951016773927251</speed>
  <fix>3d</fix>
</trkpt>
<trkpt lat="-35.2750674" lon="148.98633">
  <ele>663.66</ele>
  <time>2026-09-01T19:59:58Z</time>
  <course>18.76</course>
  <speed>4.61</speed>
  <fix>3d</fix>
</trkpt>
<trkpt lat="-35.2750559" lon="148.9863344">
  <ele>662.17</ele>
  <time>2026-09-01T19:59:58Z</time>
  <course>19.99</course>
  <speed>2.455524383914768</speed>
  <fix>3d</fix>
</trkpt>
<trkpt lat="-35.2750605" lon="148.986333">
  <ele>662.97</ele>
  <time>2026-09-01T19:59:58Z</time>
  <course>19.7</course>
  <speed>3.49</speed>
  <fix>3d</fix>
</trkpt>
<trkpt lat="-35.275054" lon="148.9863354">
  <ele>661.83</ele>
  <time>2026-09-01T19:59:58Z</time>
  <course>20.25</course>
  <speed>2.001799190728181</speed>
  <fix>3d</fix>
</trkpt>
<trkpt lat="-35.2750605" lon="148.986333">
  <ele>662.97</ele>
  <time>2026-09-01T19:59:58Z</time>
  <course>19.7</course>
  <speed>3.49</speed>
  <fix>3d</fix>
</trkpt>
<trkpt lat="-35.2750525" lon="148.9863362">
  <ele>661.5</ele>
  <time>2026-09-01T19:59:58Z</time>
  <course>20.53</course>
  <speed>1.603277892319357</speed>
  <fix>3d</fix>
</trkpt>
<trkpt lat="-35.2750555" lon="148.9863353">
  <ele>662.28</ele>
  <time>2026-09-01T19:59:58Z</time>
  <course>21.49</course>
  <speed>2.45</speed>
  <fix>3d</fix>
</trkpt>
<trkpt lat="-35.2750513" lon="148.9863369">
  <ele>661.19</ele>
  <time>2026-09-01T19:59:58Z</time>
  <course>20.85</course>
  <speed>1.2523977004130915</speed>
  <fix>3d</fix>
</trkpt>
<trkpt lat="-35.2750555" lon="148.9863353">
  <ele>662.28</ele>
  <time>2026-09-01T19:59:58Z</time>
  <course>21.49</course>
  <speed>2.45</speed>
  <fix>3d</fix>
</trkpt>
<trkpt lat="-35.2750504" lon="148.9863375">
  <ele>660.9</ele>
  <time>2026-09-01T19:59:58Z</time>
  <course>21.2</course>
  <speed>0.9577055915050303</speed>
  <fix>3d</fix>
</trkpt>
<trkpt lat="-35.2750522" lon="148.986337">
  <ele>661.62</ele>
  <time>2026-09-01T19:59:58Z</time>
  <course>24.79</course>
  <speed>1.59</speed>
  <fix>3d</fix>
</trkpt>
<trkpt lat="-35.2750498" lon="148.9863381">
  <ele>660.63</ele>
  <time>2026-09-01T19:59:58Z</time>
  <course>21.59</course>
  <speed>0.7240165743959182</speed>
  <fix>3d</fix>
</trkpt>
<trkpt lat="-35.2750522" lon="148.986337">
  <ele>661.62</ele>
  <time>2026-09-01T19:59:58Z</time>
  <course>24.79</course>
  <speed>1.59</speed>
  <fix>3d</fix>
</trkpt>
<trkpt lat="-35.2750493" lon="148.9863385">
  <ele>660.38</ele>
  <time>2026-09-01T19:59:58Z</time>
  <course>21.99</course>
  <speed>0.5341348144429456</speed>
  <fix>3d</fix>
</trkpt>
<trkpt lat="-35.2750501" lon="148.9863382">
  <ele>661.03</ele>
  <time>2026-09-01T19:59:58Z</time>
  <course>31.04</course>
  <speed>0.94</speed>
  <fix>3d</fix>
</trkpt>
<trkpt lat="-35.275049" lon="148.9863389">
  <ele>660.14</ele>
  <time>2026-09-01T19:59:58Z</time>
  <course>22.33</course>
  <speed>0.396232255123179</speed>
  <fix>3d</fix>
</trkpt>
<trkpt lat="-35.2750501" lon="148.9863382">
  <ele>661.03</ele>
  <time>2026-09-01T19:59:58Z</time>
  <course>31.04</course>
  <speed>0.94</speed>
  <fix>3d</fix>
</trkpt>
<trkpt lat="-35.2750488" lon="148.9863393">
  <ele>659.93</ele>
  <time>2026-09-01T19:59:58Z</time>
  <course>22.58</course>
  <speed>0.30528675044947495</speed>
  <fix>3d</fix>
</trkpt>
<trkpt lat="-35.2750492" lon="148.9863391">
  <ele>660.51</ele>
  <time>2026-09-01T19:59:58Z</time>
  <course>44.06</course>
  <speed>0.51</speed>
  <fix>3d</fix>
</trkpt>
<trkpt lat="-35.2750487" lon="148.9863396">
  <ele>659.72</ele>
  <time>2026-09-01T19:59:58Z</time>
  <course>22.69</course>
  <speed>0.25632011235952595</speed>
  <fix>3d</fix>
</trkpt>
<trkpt lat="-35.2750492" lon="148.9863391">
  <ele>660.51</ele>
  <time>2026-09-01T19:59:58Z</time>
  <course>44.06</course>
  <speed>0.51</speed>
  <fix>3d</fix>
</trkpt>
<trkpt lat="-35.2750486" lon="148.9863399">
  <ele>659.53</ele>
  <time>2026-09-01T19:59:58Z</time>
  <course>22.62</course>
  <speed>0.22090722034374521</speed>
  <fix>3d</fix>
</trkpt>
<trkpt lat="-35.2750488" lon="148.9863399">
  <ele>660.06</ele>
  <time>2026-09-01T19:59:58Z</time>
  <course>70.54</course>
  <speed>0.28</speed>
  <fix>3d</fix>
</trkpt>
<trkpt lat="-35.2750486" lon="148.9863402">
  <ele>659.36</ele>
  <time>2026-09-01T19:59:58Z</time>
  <course>22.38</course>
  <speed>0.2009975124224178</speed>
  <fix>3d</fix>
</trkpt>
<trkpt lat="-35.2750488" lon="148.9863399">
  <ele>660.06</ele>
  <time>2026-09-01T19:59:58Z</time>
  <course>70.54</course>
  <speed>0.28</speed>
  <fix>3d</fix>
</trkpt>
<trkpt lat="-35.2750487" lon="148.9863404">
  <ele>659.2</ele>
  <time>2026-09-01T19:59:58Z</time>
  <course>21.97</course>
  <speed>0.19924858845171275</speed>
  <fix>3d</fix>
</trkpt>
<trkpt lat="-35.2750487" lon="148.9863404">
  <ele>659.67</ele>
  <time>2026-09-01T19:59:58Z</time>
  <course>104.69</course>
  <speed>0.23</speed>
  <fix>3d</fix>
</trkpt>
<trkpt lat="-35.2750487" lon="148.9863407">
  <ele>659.06</ele>
  <time>2026-09-01T19:59:58Z</time>
  <course>21.41</course>
  <speed>0.20591260281974003</speed>
  <fix>3d</fix>
</trkpt>
<trkpt lat="-35.2750487" lon="148.9863404">
  <ele>659.67</ele>
  <time>2026-09-01T19:59:58Z</time>
  <course>104.69</course>
  <speed>0.23</speed>
  <fix>3d</fix>
</trkpt>
<trkpt lat="-35.2750489" lon="148.9863409">
  <ele>658.94</ele>
  <time>2026-09-01T19:59:58Z</time>
  <course>20.73</course>
  <speed>0.22022715545545238</speed>
  <fix>3d</fix>
</trkpt>
<trkpt lat="-35.2750489" lon="148.9863408">
  <ele>659.35</ele>
  <time>2026-09-01T19:59:58Z</time>
  <course>129.75</course>
  <speed>0.25</speed>
  <fix>3d</fix>
</trkpt>
<trkpt lat="-35.275049" lon="148.9863411">
  <ele>658.83</ele>
  <time>2026-09-01T19:59:58Z</time>
  <course>19.98</course>
  <speed>0.23345235059857505</speed>
  <fix>3d</fix>
</trkpt>
<trkpt lat="-35.2750489" lon="148.9863408">
  <ele>659.35</ele>
  <time>2026-09-01T19:59:58Z</time>
  <course>129.75</course>
  <speed>0.25</speed>
  <fix>3d</fix>
</trkpt>
<trkpt lat="-35.2750493" lon="148.9863413">
  <ele>658.74</ele>
  <time>2026-09-01T19:59:58Z</time>
  <course>19.18</course>
  <speed>0.25</speed>
  <fix>3d</fix>
</trkpt>
<trkpt lat="-35.2750492" lon="148.9863412">
  <ele>659.08</ele>
  <time>2026-09-01T19:59:58Z</time>
  <course>144.53</course>
  <speed>0.29</speed>
  <fix>3d</fix>
</trkpt>
<trkpt lat="-35.2750495" lon="148.9863415">
  <ele>658.66</ele>
  <time>2026-09-01T19:59:58Z</time>
  <course>18.41</course>
  <speed>0.260768096208106</speed>
  <fix>3d</fix>
</trkpt>
<trkpt lat="-35.2750492" lon="148.9863412">
  <ele>659.08</ele>
  <time>2026-09-01T19:59:58Z</time>
  <course>144.53</course>
  <speed>0.29</speed>
  <fix>3d</fix>
</trkpt>
<trkpt lat="-35.2750498" lon="148.9863417">
  <ele>658.61</ele>
  <time>2026-09-01T19:59:58Z</time>
  <course>17.74</course>
  <speed>0.2778488797889961</speed>
  <fix>3d</fix>
</trkpt>
<trkpt lat="-35.2750497" lon="148.9863416">
  <ele>658.89</ele>
  <time>2026-09-01T19:59:58Z</time>
  <course>152.62</course>
  <speed>0.33</speed>
  <fix>3d</fix>
</trkpt>
<trkpt lat="-35.27505" lon="148.9863419">
  <ele>658.57</ele>
  <time>2026-09-01T19:59:58Z</time>
  <course>17.2</course>
  <speed>0.2778488797889961</speed>
  <fix>3d</fix>
</trkpt>
<trkpt lat="-35.2750497" lon="148.9863416">
  <ele>658.89</ele>
  <time>2026-09-01T19:59:58Z</time>
  <course>152.62</course>
  <speed>0.33</speed>
  <fix>3d</fix>
</trkpt>
<trkpt lat="-35.2750503" lon="148.986342">
  <ele>658.55</ele>
  <time>2026-09-01T19:59:58Z</time>
  <course>16.84</course>
  <speed>0.2778488797889961</speed>
  <fix>3d</fix>
</trkpt>
<trkpt lat="-35.2750503" lon="148.9863419">
  <ele>658.76</ele>
  <time>2026-09-01T19:59:58Z</time>
  <course>156.43</course>
  <speed>0.35</speed>
  <fix>3d</fix>
</trkpt>
<trkpt lat="-35.2750506" lon="148.9863422">
  <ele>658.54</ele>
  <time>2026-09-01T19:59:58Z</time>
  <course>16.65</course>
  <speed>0.2692582403567252</speed>
  <fix>3d</fix>
</trkpt>
<trkpt lat="-35.2750503" lon="148.9863419">
  <ele>658.76</ele>
  <time>2026-09-01T19:59:58Z</time>
  <course>156.43</course>
  <speed>0.35</speed>
  <fix>3d</fix>
</trkpt>
<trkpt lat="-35.2750508" lon="148.9863424">
  <ele>658.54</ele>
  <time>2026-09-01T19:59:58Z</time>
  <course>16.62</course>
  <speed>0.25238858928247926</speed>
  <fix>3d</fix>
</trkpt>
<trkpt lat="-35.2750508" lon="148.9863422">
  <ele>658.7</ele>
  <time>2026-09-01T19:59:58Z</time>
  <course>157.08</course>
  <speed>0.36</speed>
  <fix>3d</fix>
</trkpt>
<trkpt lat="-35.2750511" lon="148.9863425">
  <ele>658.54</ele>
  <time>2026-09-01T19:59:58Z</time>
  <course>16.7</course>
  <speed>0.23600847442411893</speed>
  <fix>3d</fix>
</trkpt>
<trkpt lat="-35.2750508" lon="148.9863422">
  <ele>658.7</ele>
  <time>2026-09-01T19:59:58Z</time>
  <course>157.08</course>
  <speed>0.36</speed>
  <fix>3d</fix>
</trkpt>
<trkpt lat="-35.2750513" lon="148.9863427">
  <ele>658.56</ele>
  <time>2026-09-01T19:59:58Z</time>
  <course>16.84</course>
  <speed>0.212602916254693</speed>
  <fix>3d</fix>
</trkpt>
<trkpt lat="-35.2750514" lon="148.9863425">
  <ele>658.69</ele>
  <time>2026-09-01T19:59:58Z</time>
  <course>154.85</course>
  <speed>0.33</speed>
  <fix>3d</fix>
</trkpt>
<trkpt lat="-35.2750515" lon="148.9863429">
  <ele>658.57</ele>
  <time>2026-09-01T19:59:58Z</time>
  <course>17.02</course>
  <speed>0.191049731745428</speed>
  <fix>3d</fix>
</trkpt>
<trkpt lat="-35.2750514" lon="148.9863425">
  <ele>658.69</ele>
  <time>2026-09-01T19:59:58Z</time>
  <course>154.85</course>
  <speed>0.33</speed>
  <fix>3d</fix>
</trkpt>
<trkpt lat="-35.2750517" lon="148.986343">
  <ele>658.59</ele>
  <time>2026-09-01T19:59:58Z</time>
  <course>17.17</course>
  <speed>0.17204650534085253</speed>
  <fix>3d</fix>
</trkpt>
<trkpt lat="-35.2750519" lon="148.9863428">
  <ele>658.7</ele>
  <time>2026-09-01T19:59:58Z</time>
  <course>149.59</course>
  <speed>0.28</speed>
  <fix>3d</fix>
</trkpt>
<trkpt lat="-35.2750518" lon="148.9863432">
  <ele>658.6</ele>
  <time>2026-09-01T19:59:58Z</time>
  <course>17.29</course>
  <speed>0.1615549442140351</speed>
  <fix>3d</fix>
</trkpt>
<trkpt lat="-35.2750519" lon="148.9863428">
  <ele>658.7</ele>
  <time>2026-09-01T19:59:58Z</time>
  <course>149.59</course>
  <speed>0.28</speed>
  <fix>3d</fix>
</trkpt>
<trkpt lat="-35.2750519" lon="148.9863434">
  <ele>658.62</ele>
  <time>2026-09-01T19:59:58Z</time>
  <course>17.35</course>
  <speed>0.15033296378372907</speed>
  <fix>3d</fix>
</trkpt>
<trkpt lat="-35.2750523" lon="148.9863432">
  <ele>658.74</ele>
  <time>2026-09-01T19:59:58Z</time>
  <course>139.44</course>
  <speed>0.23</speed>
  <fix>3d</fix>
</trkpt>
<trkpt lat="-35.2750519" lon="148.9863436">
  <ele>658.63</ele>
  <time>2026-09-01T19:59:58Z</time>
  <course>17.36</course>
  <speed>0.16124515496597097</speed>
  <fix>3d</fix>
</trkpt>
<trkpt lat="-35.2750523" lon="148.9863432">
  <ele>658.74</ele>
  <time>2026-09-01T19:59:58Z</time>
  <course>139.44</course>
  <speed>0.23</speed>
  <fix>3d</fix>
</trkpt>
<trkpt lat="-35.275052" lon="148.9863438">
  <ele>658.64</ele>
  <time>2026-09-01T19:59:58Z</time>
  <course>17.32</course>
  <speed>0.17888543819998318</speed>
  <fix>3d</fix>
</trkpt>
<trkpt lat="-35.2750525" lon="148.9863435">
  <ele>658.77</ele>
  <time>2026-09-01T19:59:58Z</time>
  <course>119.0</course>
  <speed>0.18</speed>
  <fix>3d</fix>
</trkpt>
<trkpt lat="-35.2750519" lon="148.9863439">
  <ele>658.64</ele>
  <time>2026-09-01T19:59:58Z</time>
  <course>17.25</course>
  <speed>0.21400934559032694</speed>
  <fix>3d</fix>
</trkpt>
<trkpt lat="-35.2750525" lon="148.9863435">
  <ele>658.77</ele>
  <time>2026-09-01T19:59:58Z</time>
  <course>119.0</course>
  <speed>0.18</speed>
  <fix>3d</fix>
</trkpt>
<trkpt lat="-35.2750519" lon="148.9863441">
  <ele>658.65</ele>
  <time>2026-09-01T19:59:58Z</time>
  <course>17.17</course>
  <speed>0.261725046566048</speed>
  <fix>3d</fix>
</trkpt>
<trkpt lat="-35.2750526" lon="148.9863439">
  <ele>658.8</ele>
  <time>2026-09-01T19:59:58Z</time>
  <course>84.87</course>
  <speed>0.17</speed>
  <fix>3d</fix>
</trkpt>
<trkpt lat="-35.2750518" lon="148.9863444">
  <ele>658.65</ele>
  <time>2026-09-01T19:59:58Z</time>
  <course>17.09</course>
  <speed>0.3080584360149873</speed>
  <fix>3d</fix>
</trkpt>
<trkpt lat="-35.2750526" lon="148.9863439">
  <ele>658.8</ele>
  <time>2026-09-01T19:59:58Z</time>
  <course>84.87</course>
  <speed>0.17</speed>
  <fix>3d</fix>
</trkpt>
<trkpt lat="-35.2750516" lon="148.9863446">
  <ele>658.65</ele>
  <time>2026-09-01T19:59:58Z</time>
  <course>17.02</course>
  <speed>0.3721558813185679</speed>
  <fix>3d</fix>
</trkpt>
<trkpt lat="-35.2750525" lon="148.9863442">
  <ele>658.81</ele>
  <time>2026-09-01T19:59:58Z</time>
  <course>54.29</course>
  <speed>0.23</speed>
  <fix>3d</fix>
</trkpt>
<trkpt lat="-35.2750513" lon="148.9863448">
  <ele>658.64</ele>
  <time>2026-09-01T19:59:58Z</time>
  <course>16.98</course>
  <speed>0.42941821107167777</speed>
  <fix>3d</fix>
</trkpt>
<trkpt lat="-35.2750525" lon="148.9863442">
  <ele>658.81</ele>
  <time>2026-09-01T19:59:58Z</time>
  <course>54.29</course>
  <speed>0.23</speed>
  <fix>3d</fix>
</trkpt>
<trkpt lat="-35.275051" lon="148.986345">
  <ele>658.63</ele>
  <time>2026-09-01T19:59:58Z</time>
  <course>16.96</course>
  <speed>0.4965883607174055</speed>
  <fix>3d</fix>
</trkpt>
<trkpt lat="-35.2750522" lon="148.9863447">
  <ele>658.8</ele>
  <time>2026-09-01T19:59:58Z</time>
  <course>37.68</course>
  <speed>0.33</speed>
  <fix>3d</fix>
</trkpt>
<trkpt lat="-35.2750507" lon="148.9863453">
  <ele>658.62</ele>
  <time>2026-09-01T19:59:58Z</time>
  <course>16.97</course>
  <speed>0.5646237685397242</speed>
  <fix>3d</fix>
</trkpt>
<trkpt lat="-35.2750522" lon="148.9863447">
  <ele>658.8</ele>
  <time>2026-09-01T19:59:58Z</time>
  <course>37.68</course>
  <speed>0.33</speed>
  <fix>3d</fix>
</trkpt>
<trkpt lat="-35.2750502" lon="148.9863456">
  <ele>658.61</ele>
  <time>2026-09-01T19:59:58Z</time>
  <course>17.0</course>
  <speed>0.6369458375717671</speed>
  <fix>3d</fix>
</trkpt>
<trkpt lat="-35.2750516" lon="148.9863451">
  <ele>658.79</ele>
  <time>2026-09-01T19:59:58Z</time>
  <course>29.16</course>
  <speed>0.46</speed>
  <fix>3d</fix>
</trkpt>
<trkpt lat="-35.2750497" lon="148.9863458">
  <ele>658.6</ele>
  <time>2026-09-01T19:59:58Z</time>
  <course>17.03</course>
  <speed>0.715122367151245</speed>
  <fix>3d</fix>
</trkpt>
<trkpt lat="-35.2750516" lon="148.9863451">
  <ele>658.79</ele>
  <time>2026-09-01T19:59:58Z</time>
  <course>29.16</course>
  <speed>0.46</speed>
  <fix>3d</fix>
</trkpt>
<trkpt lat="-35.2750491" lon="148.9863461">
  <ele>658.59</ele>
  <time>2026-09-01T19:59:58Z</time>
  <course>17.06</course>
  <speed>0.7843468620451032</speed>
  <fix>3d</fix>
</trkpt>
<trkpt lat="-35.2750508" lon="148.9863457">
  <ele>658.77</ele>
  <time>2026-09-01T19:59:58Z</time>
  <course>24.42</course>
  <speed>0.61</speed>
  <fix>3d</fix>
</trkpt>
<trkpt lat="-35.2750485" lon="148.9863464">
  <ele>658.58</ele>
  <time>2026-09-01T19:59:58Z</time>
  <course>17.09</course>
  <speed>0.8538149682454624</speed>
  <fix>3d</fix>
</trkpt>
<trkpt lat="-35.2750508" lon="148.9863457">
  <ele>658.77</ele>
  <time>2026-09-01T19:59:58Z</time>
  <course>24.42</course>
  <speed>0.61</speed>
  <fix>3d</fix>
</trkpt>
<trkpt lat="-35.2750478" lon="148.9863468">
  <ele>658.57</ele>
  <time>2026-09-01T19:59:58Z</time>
  <course>17.11</course>
  <speed>0.9139474820797966</speed>
  <fix>3d</fix>
</trkpt>
<trkpt lat="-35.2750496" lon="148.9863462">
  <ele>658.75</ele>
  <time>2026-09-01T19:59:58Z</time>
  <course>21.58</course>
  <speed>0.75</speed>
  <fix>3d</fix>
</trkpt>
<trkpt lat="-35.275047" lon="148.9863471">
  <ele>658.57</ele>
  <time>2026-09-01T19:59:58Z</time>
  <course>17.12</course>
  <speed>0.9867117106835208</speed>
  <fix>3d</fix>
</trkpt>
<trkpt lat="-35.2750496" lon="148.9863462">
  <ele>658.75</ele>
  <time>2026-09-01T19:59:58Z</time>
  <course>21.58</course>
  <speed>0.75</speed>
  <fix>3d</fix>
</trkpt>
<trkpt lat="-35.2750462" lon="148.9863474">
  <ele>658.56</ele>
  <time>2026-09-01T19:59:58Z</time>
  <course>17.12</course>
  <speed>1.0469479452198185</speed>
  <fix>3d</fix>
</trkpt>
<trkpt lat="-35.2750482" lon="148.9863469">
  <ele>658.73</ele>
  <time>2026-09-01T19:59:58Z</time>
  <course>19.79</course>
  <speed>0.89</speed>
  <fix>3d</fix>
</trkpt>
<trkpt lat="-35.2750453" lon="148.9863478">
  <ele>658.56</ele>
  <time>2026-09-01T19:59:58Z</time>
  <course>17.11</course>
  <speed>1.1072488428533127</speed>
  <fix>3d</fix>
</trkpt>
<trkpt lat="-35.2750482" lon="148.9863469">
  <ele>658.73</ele>
  <time>2026-09-01T19:59:58Z</time>
  <course>19.79</course>
  <speed>0.89</speed>
  <fix>3d</fix>
</trkpt>
<trkpt lat="-35.2750444" lon="148.9863482">
  <ele>658.56</ele>
  <time>2026-09-01T19:59:58Z</time>
  <course>17.09</course>
  <speed>1.158015543937127</speed>
  <fix>3d</fix>
</trkpt>
<trkpt lat="-35.2750465" lon="148.9863476">
  <ele>658.72</ele>
  <time>2026-09-01T19:59:58Z</time>
  <course>18.62</course>
  <speed>1.03</speed>
  <fix>3d</fix>
</trkpt>
<trkpt lat="-35.2750434" lon="148.9863486">
  <ele>658.56</ele>
  <time>2026-09-01T19:59:58Z</time>
  <course>17.08</course>
  <speed>1.2088010589009262</speed>
  <fix>3d</fix>
</trkpt>
<trkpt lat="-35.2750465" lon="148.9863476">
  <ele>658.72</ele>
  <time>2026-09-01T19:59:58Z</time>
  <course>18.62</course>
  <speed>1.03</speed>
  <fix>3d</fix>
</trkpt>
<trkpt lat="-35.2750424" lon="148.986349">
  <ele>658.56</ele>
  <time>2026-09-01T19:59:58Z</time>
  <course>17.07</course>
  <speed>1.2596031120952345</speed>
  <fix>3d</fix>
</trkpt>
<trkpt lat="-35.2750447" lon="148.9863484">
  <ele>658.71</ele>
  <time>2026-09-01T19:59:58Z</time>
  <course>17.83</course>
  <speed>1.15</speed>
  <fix>3d</fix>
</trkpt>
<trkpt lat="-35.2750413" lon="148.9863494">
  <ele>658.56</ele>
  <time>2026-09-01T19:59:58Z</time>
  <course>17.06</course>
  <speed>1.3008074415531299</speed>
  <fix>3d</fix>
</trkpt>
<trkpt lat="-35.2750447" lon="148.9863484">
  <ele>658.71</ele>
  <time>2026-09-01T19:59:58Z</time>
  <course>17.83</course>
  <speed>1.15</speed>
  <fix>3d</fix>
</trkpt>
<trkpt lat="-35.2750402" lon="148.9863498">
  <ele>658.56</ele>
  <time>2026-09-01T19:59:58Z</time>
  <course>17.06</course>
  <speed>1.3324038426843419</speed>
  <fix>3d</fix>
</trkpt>
<trkpt lat="-35.2750427" lon="148.9863492">
  <ele>658.71</ele>
  <time>2026-09-01T19:59:58Z</time>
  <course>17.28</course>
  <speed>1.25</speed>
  <fix>3d</fix>
</trkpt>
<trkpt lat="-35.2750391" lon="148.9863502">
  <ele>658.56</ele>
  <time>2026-09-01T19:59:58Z</time>
  <course>17.06</course>
  <speed>1.3612494260788506</speed>
  <fix>3d</fix>
</trkpt>
<trkpt lat="-35.2750427" lon="148.9863492">
  <ele>658.71</ele>
  <time>2026-09-01T19:59:58Z</time>
  <course>17.28</course>
  <speed>1.25</speed>
  <fix>3d</fix>
</trkpt>
<trkpt lat="-35.2750379" lon="148.9863507">
  <ele>658.56</ele>
  <time>2026-09-01T19:59:58Z</time>
  <course>17.05</course>
  <speed>1.392838827718412</speed>
  <fix>3d</fix>
</trkpt>
<trkpt lat="-35.2750404" lon="148.98635">
  <ele>658.71</ele>
  <time>2026-09-01T19:59:58Z</time>
  <course>16.9</course>
  <speed>1.33</speed>
  <fix>3d</fix>
</trkpt>
<trkpt lat="-35.2750368" lon="148.9863511">
  <ele>658.56</ele>
  <time>2026-09-01T19:59:58Z</time>
  <course>17.05</course>
  <speed>1.4120906486483082</speed>
  <fix>3d</fix>
</trkpt>
<trkpt lat="-35.2750404" lon="148.98635">
  <ele>658.71</ele>
  <time>2026-09-01T19:59:58Z</time>
  <course>16.9</course>
  <speed>1.33</speed>
  <fix>3d</fix>
</trkpt>
<trkpt lat="-35.2750356" lon="148.9863515">
  <ele>658.56</ele>
  <time>2026-09-01T19:59:58Z</time>
  <course>17.05</course>
  <speed>1.421724305201258</speed>
  <fix>3d</fix>
</trkpt>
<trkpt lat="-35.275038" lon="148.9863509">
  <ele>658.7</ele>
  <time>2026-09-01T19:59:58Z</time>
  <course>16.64</course>
  <speed>1.39</speed>
  <fix>3d</fix>
</trkpt>
<trkpt lat="-35.2750343" lon="148.986352">
  <ele>658.55</ele>
  <time>2026-09-01T19:59:58Z</time>
  <course>17.05</course>
  <speed>1.4340502083260542</speed>
  <fix>3d</fix>
</trkpt>
<trkpt lat="-35.275038" lon="148.9863509">
  <ele>658.7</ele>
  <time>2026-09-01T19:59:58Z</time>
  <course>16.64</course>
  <speed>1.39</speed>
  <fix>3d</fix>
</trkpt>
<trkpt lat="-35.2750331" lon="148.9863524">
  <ele>658.55</ele>
  <time>2026-09-01T19:59:58Z</time>
  <course>17.05</course>
  <speed>1.4340502083260542</speed>
  <fix>3d</fix>
</trkpt>
<trkpt lat="-35.2750356" lon="148.9863517">
  <ele>658.7</ele>
  <time>2026-09-01T19:59:58Z</time>
  <course>16.5</course>
  <speed>1.43</speed>
  <fix>3d</fix>
</trkpt>
<trkpt lat="-35.2750319" lon="148.9863529">
  <ele>658.55</ele>
  <time>2026-09-01T19:59:58Z</time>
  <course>17.05</course>
  <speed>1.4340502083260542</speed>
  <fix>3d</fix>
</trkpt>
<trkpt lat="-35.2750356" lon="148.9863517">
  <ele>658.7</ele>
  <time>2026-09-01T19:59:58Z</time>
  <course>16.5</course>
  <speed>1.43</speed>
  <fix>3d</fix>
</trkpt>
<trkpt lat="-35.2750307" lon="148.9863533">
  <ele>658.54</ele>
  <time>2026-09-01T19:59:58Z</time>
  <course>17.06</course>
  <speed>1.4244297104455523</speed>
  <fix>3d</fix>
</trkpt>
<trkpt lat="-35.2750331" lon="148.9863526">
  <ele>658.69</ele>
  <time>2026-09-01T19:59:58Z</time>
  <course>16.43</course>
  <speed>1.44</speed>
  <fix>3d</fix>
</trkpt>
<trkpt lat="-35.2750295" lon="148.9863538">
  <ele>658.53</ele>
  <time>2026-09-01T19:59:58Z</time>
  <course>17.06</course>
  <speed>1.4120906486483082</speed>
  <fix>3d</fix>
</trkpt>
<trkpt lat="-35.2750331" lon="148.9863526">
  <ele>658.69</ele>
  <time>2026-09-01T19:59:58Z</time>
  <course>16.43</course>
  <speed>1.44</speed>
  <fix>3d</fix>
</trkpt>
<trkpt lat="-35.2750283" lon="148.9863542">
  <ele>658.53</ele>
  <time>2026-09-01T19:59:58Z</time>
  <course>17.07</course>
  <speed>1.392838827718412</speed>
  <fix>3d</fix>
</trkpt>
<trkpt lat="-35.2750307" lon="148.9863535">
  <ele>658.68</ele>
  <time>2026-09-01T19:59:58Z</time>
  <course>16.42</course>
  <speed>1.44</speed>
  <fix>3d</fix>
</trkpt>
<trkpt lat="-35.2750271" lon="148.9863546">
  <ele>658.52</ele>
  <time>2026-09-01T19:59:58Z</time>
  <course>17.07</course>
  <speed>1.370875632579411</speed>
  <fix>3d</fix>
</trkpt>
<trkpt lat="-35.2750307" lon="148.9863535">
  <ele>658.68</ele>
  <time>2026-09-01T19:59:58Z</time>
  <course>16.42</course>
  <speed>1.44</speed>
  <fix>3d</fix>
</trkpt>
<trkpt lat="-35.2750259" lon="148.9863551">
  <ele>658.52</ele>
  <time>2026-09-01T19:59:58Z</time>
  <course>17.07</course>
  <speed>1.3420134127496641</speed>
  <fix>3d</fix>
</trkpt>
<trkpt lat="-35.2750282" lon="148.9863544">
  <ele>658.67</ele>
  <time>2026-09-01T19:59:58Z</time>
  <course>16.46</course>
  <speed>1.41</speed>
  <fix>3d</fix>
</trkpt>
<trkpt lat="-35.2750248" lon="148.9863555">
  <ele>658.51</ele>
  <time>2026-09-01T19:59:58Z</time>
  <course>17.07</course>
  <speed>1.3104197800704933</speed>
  <fix>3d</fix>
</trkpt>
<trkpt lat="-35.2750282" lon="148.9863544">
  <ele>658.67</ele>
  <time>2026-09-01T19:59:58Z</time>
  <course>16.46</course>
  <speed>1.41</speed>
  <fix>3d</fix>
</trkpt>
<trkpt lat="-35.2750237" lon="148.9863559">
  <ele>658.51</ele>
  <time>2026-09-01T19:59:58Z</time>
  <course>17.06</course>
  <speed>1.2692123541787639</speed>
  <fix>3d</fix>
</trkpt>
<trkpt lat="-35.2750258" lon="148.9863553">
  <ele>658.66</ele>
  <time>2026-09-01T19:59:58Z</time>
  <course>16.56</course>
  <speed>1.36</speed>
  <fix>3d</fix>
</trkpt>
<trkpt lat="-35.2750226" lon="148.9863563">
  <ele>658.5</ele>
  <time>2026-09-01T19:59:58Z</time>
  <course>17.06</course>
  <speed>1.2280065146407002</speed>
  <fix>3d</fix>
</trkpt>
<trkpt lat="-35.2750258" lon="148.9863553">
  <ele>658.66</ele>
  <time>2026-09-01T19:59:58Z</time>
  <course>16.56</course>
  <speed>1.36</speed>
  <fix>3d</fix>
</trkpt>
<trkpt lat="-35.2750215" lon="148.9863567">
  <ele>658.5</ele>
  <time>2026-09-01T19:59:58Z</time>
  <course>17.06</course>
  <speed>1.186802426691149</speed>
  <fix>3d</fix>
</trkpt>
<trkpt lat="-35.2750235" lon="148.9863562">
  <ele>658.65</ele>
  <time>2026-09-01T19:59:58Z</time>
  <course>16.71</course>
  <speed>1.29</speed>
  <fix>3d</fix>
</trkpt>
<trkpt lat="-35.2750205" lon="148.9863571">
  <ele>658.49</ele>
  <time>2026-09-01T19:59:58Z</time>
  <course>17.06</course>
  <speed>1.136001760562016</speed>
  <fix>3d</fix>
</trkpt>
<trkpt lat="-35.2750235" lon="148.9863562">
  <ele>658.65</ele>
  <time>2026-09-01T19:59:58Z</time>
  <course>16.71</course>
  <speed>1.29</speed>
  <fix>3d</fix>
</trkpt>
<trkpt lat="-35.2750196" lon="148.9863575">
  <ele>658.49</ele>
  <time>2026-09-01T19:59:58Z</time>
  <course>17.07</course>
  <speed>1.0852188719332152</speed>
  <fix>3d</fix>
</trkpt>
<trkpt lat="-35.2750214" lon="148.986357">
  <ele>658.64</ele>
  <time>2026-09-01T19:59:58Z</time>
  <course>16.9</course>
  <speed>1.2</speed>
  <fix>3d</fix>
</trkpt>
<trkpt lat="-35.2750187" lon="148.9863578">
  <ele>658.48</ele>
  <time>2026-09-01T19:59:58Z</time>
  <course>17.07</course>
  <speed>1.0220078277586722</speed>
  <fix>3d</fix>
</trkpt>
<trkpt lat="-35.2750214" lon="148.986357">
  <ele>658.64</ele>
  <time>2026-09-01T19:59:58Z</time>
  <course>16.9</course>
  <speed>1.2</speed>
  <fix>3d</fix>
</trkpt>
<trkpt lat="-35.2750178" lon="148.9863582">
  <ele>658.48</ele>
  <time>2026-09-01T19:59:58Z</time>
  <course>17.07</course>
  <speed>0.9616652224137046</speed>
  <fix>3d</fix>
</trkpt>
<trkpt lat="-35.2750194" lon="148.9863577">
  <ele>658.63</ele>
  <time>2026-09-01T19:59:58Z</time>
  <course>17.18</course>
  <speed>1.1</speed>
  <fix>3d</fix>
</trkpt>
<trkpt lat="-35.275017" lon="148.9863585">
  <ele>658.47</ele>
  <time>2026-09-01T19:59:58Z</time>
  <course>17.08</course>
  <speed>0.9013878188659973</speed>
  <fix>3d</fix>
</trkpt>
<trkpt lat="-35.2750194" lon="148.9863577">
  <ele>658.63</ele>
  <time>2026-09-01T19:59:58Z</time>
  <course>17.18</course>
  <speed>1.1</speed>
  <fix>3d</fix>
</trkpt>
<trkpt lat="-35.2750162" lon="148.9863588">
  <ele>658.47</ele>
  <time>2026-09-01T19:59:58Z</time>
  <course>17.08</course>
  <speed>0.8381527307120105</speed>
  <fix>3d</fix>
</trkpt>
<trkpt lat="-35.2750176" lon="148.9863583">
  <ele>658.61</ele>
  <time>2026-09-01T19:59:58Z</time>
  <course>17.56</course>
  <speed>0.98</speed>
  <fix>3d</fix>
</trkpt>
<trkpt lat="-35.2750155" lon="148.9863591">
  <ele>658.47</ele>
  <time>2026-09-01T19:59:59Z</time>
  <course>17.08</course>
  <speed>0.765375724726098</speed>
  <fix>3d</fix>
</trkpt>
<trkpt lat="-35.2750176" lon="148.9863583">
  <ele>658.61</ele>
  <time>2026-09-01T19:59:59Z</time>
  <course>17.56</course>
  <speed>0.98</speed>
  <fix>3d</fix>
</trkpt>
<trkpt lat="-35.2750149" lon="148.9863593">
  <ele>658.47</ele>
  <time>2026-09-01T19:59:59Z</time>
  <course>17.09</course>
  <speed>0.7051950084905593</speed>
  <fix>3d</fix>
</trkpt>
<trkpt lat="-35.275016" lon="148.986359">
  <ele>658.6</ele>
  <time>2026-09-01T19:59:59Z</time>
  <course>18.08</course>
  <speed>0.85</speed>
  <fix>3d</fix>
</trkpt>
<trkpt lat="-35.2750143" lon="148.9863596">
  <ele>658.46</ele>
  <time>2026-09-01T19:59:59Z</time>
  <course>17.09</course>
  <speed>0.6324555320336759</speed>
  <fix>3d</fix>
</trkpt>
<trkpt lat="-35.275016" lon="148.986359">
  <ele>658.6</ele>
  <time>2026-09-01T19:59:59Z</time>
  <course>18.08</course>
  <speed>0.85</speed>
  <fix>3d</fix>
</trkpt>
<trkpt lat="-35.2750138" lon="148.9863598">
  <ele>658.46</ele>
  <time>2026-09-01T19:59:59Z</time>
  <course>17.09</course>
  <speed>0.5630275304103699</speed>
  <fix>3d</fix>
</trkpt>
<trkpt lat="-35.2750147" lon="148.9863596">
  <ele>658.59</ele>
  <time>2026-09-01T19:59:59Z</time>
  <course>18.86</course>
  <speed>0.72</speed>
  <fix>3d</fix>
</trkpt>
<trkpt lat="-35.2750133" lon="148.98636">
  <ele>658.46</ele>
  <time>2026-09-01T19:59:59Z</time>
  <course>17.09</course>
  <speed>0.49040799340956914</speed>
  <fix>3d</fix>
</trkpt>
<trkpt lat="-35.2750147" lon="148.9863596">
  <ele>658.59</ele>
  <time>2026-09-01T19:59:59Z</time>
  <course>18.86</course>
  <speed>0.72</speed>
  <fix>3d</fix>
</trkpt>
<trkpt lat="-35.2750129" lon="148.9863602">
  <ele>658.45</ele>
  <time>2026-09-01T19:59:59Z</time>
  <course>17.09</course>
  <speed>0.42720018726587655</speed>
  <fix>3d</fix>
</trkpt>
<trkpt lat="-35.2750135" lon="148.9863601">
  <ele>658.58</ele>
  <time>2026-09-01T19:59:59Z</time>
  <course>20.03</course>
  <speed>0.58</speed>
  <fix>3d</fix>
</trkpt>
<trkpt lat="-35.2750126" lon="148.9863604">
  <ele>658.45</ele>
  <time>2026-09-01T19:59:59Z</time>
  <course>17.09</course>
  <speed>0.3584689665786984</speed>
  <fix>3d</fix>
</trkpt>
<trkpt lat="-35.2750135" lon="148.9863601">
  <ele>658.58</ele>
  <time>2026-09-01T19:59:59Z</time>
  <course>20.03</course>
  <speed>0.58</speed>
  <fix>3d</fix>
</trkpt>
<trkpt lat="-35.2750123" lon="148.9863606">
  <ele>658.45</ele>
  <time>2026-09-01T19:59:59Z</time>
  <course>17.09</course>
  <speed>0.2863564212655271</speed>
  <fix>3d</fix>
</trkpt>
<trkpt lat="-35.2750127" lon="148.9863605">
  <ele>658.57</ele>
  <time>2026-09-01T19:59:59Z</time>
  <course>21.93</course>
  <speed>0.44</speed>
  <fix>3d</fix>
</trkpt>
<trkpt lat="-35.2750121" lon="148.9863607">
  <ele>658.45</ele>
  <time>2026-09-01T19:59:59Z</time>
  <course>17.09</course>
  <speed>0.21470910553583888</speed>
  <fix>3d</fix>
</trkpt>
<trkpt lat="-35.2750127" lon="148.9863605">
  <ele>658.57</ele>
  <time>2026-09-01T19:59:59Z</time>
  <course>21.93</course>
  <speed>0.44</speed>
  <fix>3d</fix>
</trkpt>
<trkpt lat="-35.2750119" lon="148.9863609">
  <ele>658.45</ele>
  <time>2026-09-01T19:59:59Z</time>
  <course>17.09</course>
  <speed>0.15811388300841897</speed>
  <fix>3d</fix>
</trkpt>
<trkpt lat="-35.2750121" lon="148.9863608">
  <ele>658.57</ele>
  <time>2026-09-01T19:59:59Z</time>
  <course>25.51</course>
  <speed>0.3</speed>
  <fix>3d</fix>
</trkpt>
<trkpt lat="-35.2750118" lon="148.986361">
  <ele>658.45</ele>
  <time>2026-09-01T19:59:59Z</time>
  <course>17.09</course>
  <speed>0.09219544457292887</speed>
  <fix>3d</fix>
</trkpt>
<trkpt lat="-35.2750121" lon="148.9863608">
  <ele>658.57</ele>
  <time>2026-09-01T19:59:59Z</time>
  <course>25.51</course>
  <speed>0.3</speed>
  <fix>3d</fix>
</trkpt>
<trkpt lat="-35.2750118" lon="148.9863611">
  <ele>658.45</ele>
  <time>2026-09-01T19:59:59Z</time>
  <course>17.09</course>
  <speed>0.05</speed>
  <fix>3d</fix>
</trkpt>
<trkpt lat="-35.2750117" lon="148.986361">
  <ele>658.56</ele>
  <time>2026-09-01T19:59:59Z</time>
  <course>34.57</course>
  <speed>0.17</speed>
  <fix>3d</fix>
</trkpt>
<trkpt lat="-35.2750118" lon="148.9863611">
  <ele>658.45</ele>
  <time>2026-09-01T19:59:59Z</time>
  <course>17.09</course>
  <speed>0.06403124237432849</speed>
  <fix>3d</fix>
</trkpt>
<trkpt lat="-35.2750117" lon="148.986361">
  <ele>658.56</ele>
  <time>2026-09-01T19:59:59Z</time>
  <course>34.57</course>
  <speed>0.17</speed>
  <fix>3d</fix>
</trkpt>
<trkpt lat="-35.2750118" lon="148.9863612">
  <ele>658.45</ele>
  <time>2026-09-01T19:59:59Z</time>
  <course>17.09</course>
  <speed>0.1019803902718557</speed>
  <fix>3d</fix>
</trkpt>
<trkpt lat="-35.2750116" lon="148.9863612">
  <ele>658.56</ele>
  <time>2026-09-01T19:59:59Z</time>
  <course>79.25</course>
  <speed>0.06</speed>
  <fix>3d</fix>
</trkpt>
<trkpt lat="-35.2750119" lon="148.9863612">
  <ele>658.45</ele>
  <time>2026-09-01T19:59:59Z</time>
  <course>17.09</course>
  <speed>0.16031219541881397</speed>
  <fix>3d</fix>
</trkpt>
<trkpt lat="-35.2750116" lon="148.9863612">
  <ele>658.56</ele>
  <time>2026-09-01T19:59:59Z</time>
  <course>79.25</course>
  <speed>0.06</speed>
  <fix>3d</fix>
</trkpt>
<trkpt lat="-35.275012" lon="148.9863612">
  <ele>658.44</ele>
  <time>2026-09-01T19:59:59Z</time>
  <course>17.1</course>
  <speed>0.2</speed>
  <fix>3d</fix>
</trkpt>
<trkpt lat="-35.2750117" lon="148.9863613">
  <ele>658.55</ele>
  <time>2026-09-01T19:59:59Z</time>
  <course>162.77</course>
  <speed>0.11</speed>
  <fix>3d</fix>
</trkpt>
<trkpt lat="-35.2750122" lon="148.9863612">
  <ele>658.44</ele>
  <time>2026-09-01T19:59:59Z</time>
  <course>17.11</course>
  <speed>0.2501999200639361</speed>
  <fix>3d</fix>
</trkpt>
<trkpt lat="-35.2750117" lon="148.9863613">
  <ele>658.55</ele>
  <time>2026-09-01T19:59:59Z</time>
  <course>162.77</course>
  <speed>0.11</speed>
  <fix>3d</fix>
</trkpt>
<trkpt lat="-35.2750124" lon="148.9863612">
  <ele>658.44</ele>
  <time>2026-09-01T19:59:59Z</time>
  <course>17.13</course>
  <speed>0.280713376952364</speed>
  <fix>3d</fix>
</trkpt>
<trkpt lat="-35.2750119" lon="148.9863614">
  <ele>658.55</ele>
  <time>2026-09-01T19:59:59Z</time>
  <course>178.52</course>
  <speed>0.2</speed>
  <fix>3d</fix>
</trkpt>
<trkpt lat="-35.2750127" lon="148.9863612">
  <ele>658.44</ele>
  <time>2026-09-01T19:59:59Z</time>
  <course>17.16</course>
  <speed>0.32140317359976395</speed>
  <fix>3d</fix>
</trkpt>
<trkpt lat="-35.2750119" lon="148.9863614">
  <ele>658.55</ele>
  <time>2026-09-01T19:59:59Z</time>
  <course>178.52</course>
  <speed>0.2</speed>
  <fix>3d</fix>
</trkpt>
<trkpt lat="-35.275013" lon="148.9863612">
  <ele>658.44</ele>
  <time>2026-09-01T19:59:59Z</time>
  <course>17.2</course>
  <speed>0.3423448553724738</speed>
  <fix>3d</fix>
</trkpt>
<trkpt lat="-35.2750123" lon="148.9863614">
  <ele>658.55</ele>
  <time>2026-09-01T19:59:59Z</time>
  <course>183.54</course>
  <speed>0.29</speed>
  <fix>3d</fix>
</trkpt>
<trkpt lat="-35.2750133" lon="148.9863612">
  <ele>658.44</ele>
  <time>2026-09-01T19:59:59Z</time>
  <course>17.25</course>
  <speed>0.3721558813185679</speed>
  <fix>3d</fix>
</trkpt>
<trkpt lat="-35.2750123" lon="148.9863614">
  <ele>658.55</ele>
  <time>2026-09-01T19:59:59Z</time>
  <course>183.54</course>
  <speed>0.29</speed>
  <fix>3d</fix>
</trkpt>
<trkpt lat="-35.2750136" lon="148.9863612">
  <ele>658.44</ele>
  <time>2026-09-01T19:59:59Z</time>
  <course>17.29</course>
  <speed>0.39319206502675</speed>
  <fix>3d</fix>
</trkpt>
<trkpt lat="-35.2750128" lon="148.9863614">
  <ele>658.55</ele>
  <time>2026-09-01T19:59:59Z</time>
  <course>186.03</course>
  <speed>0.35</speed>
  <fix>3d</fix>
</trkpt>
<trkpt lat="-35.275014" lon="148.9863611">
  <ele>658.44</ele>
  <time>2026-09-01T19:59:59Z</time>
  <course>17.33</course>
  <speed>0.4044749683231337</speed>
  <fix>3d</fix>
</trkpt>
<trkpt lat="-35.2750128" lon="148.9863614">
  <ele>658.55</ele>
  <time>2026-09-01T19:59:59Z</time>
  <course>186.03</course>
  <speed>0.35</speed>
  <fix>3d</fix>
</trkpt>
<trkpt lat="-35.2750143" lon="148.9863611">
  <ele>658.44</ele>
  <time>2026-09-01T19:59:59Z</time>
  <course>17.37</course>
  <speed>0.4143669871020132</speed>
  <fix>3d</fix>
</trkpt>
<trkpt lat="-35.2750135" lon="148.9863613">
  <ele>658.55</ele>
  <time>2026-09-01T19:59:59Z</time>
  <course>187.57</course>
  <speed>0.4</speed>
  <fix>3d</fix>
</trkpt>
<trkpt lat="-35.2750147" lon="148.986361">
  <ele>658.44</ele>
  <time>2026-09-01T19:59:59Z</time>
  <course>17.4</course>
  <speed>0.42579337712087534</speed>
  <fix>3d</fix>
</trkpt>
<trkpt lat="-35.2750135" lon="148.9863613">
  <ele>658.55</ele>
  <time>2026-09-01T19:59:59Z</time>
  <course>187.57</course>
  <speed>0.4</speed>
  <fix>3d</fix>
</trkpt>
<trkpt lat="-35.275015" lon="148.986361">
  <ele>658.44</ele>
  <time>2026-09-01T19:59:59Z</time>
  <course>17.42</course>
  <speed>0.42579337712087534</speed>
  <fix>3d</fix>
</trkpt>
<trkpt lat="-35.2750143" lon="148.9863611">
  <ele>658.55</ele>
  <time>2026-09-01T19:59:59Z</time>
  <course>188.67</course>
  <speed>0.43</speed>
  <fix>3d</fix>
</trkpt>
<trkpt lat="-35.2750154" lon="148.9863609">
  <ele>658.44</ele>
  <time>2026-09-01T19:59:59Z</time>
  <course>17.44</course>
  <speed>0.4373785545725808</speed>
  <fix>3d</fix>
</trkpt>
<trkpt lat="-35.2750143" lon="148.9863611">
  <ele>658.55</ele>
  <time>2026-09-01T19:59:59Z</time>
  <course>188.67</course>
  <speed>0.43</speed>
  <fix>3d</fix>
</trkpt>
<trkpt lat="-35.2750158" lon="148.9863608">
  <ele>658.44</ele>
  <time>2026-09-01T19:59:59Z</time>
  <course>17.45</course>
  <speed>0.4373785545725808</speed>
  <fix>3d</fix>
</trkpt>
<trkpt lat="-35.2750151" lon="148.9863609">
  <ele>658.55</ele>
  <time>2026-09-01T19:59:59Z</time>
  <course>189.5</course>
  <speed>0.45</speed>
  <fix>3d</fix>
</trkpt>
<trkpt lat="-35.2750162" lon="148.9863607">
  <ele>658.44</ele>
  <time>2026-09-01T19:59:59Z</time>
  <course>17.45</course>
  <speed>0.42755116652863895</speed>
  <fix>3d</fix>
</trkpt>
<trkpt lat="-35.2750151" lon="148.9863609">
  <ele>658.55</ele>
  <time>2026-09-01T19:59:59Z</time>
  <course>189.5</course>
  <speed>0.45</speed>
  <fix>3d</fix>
</trkpt>
<trkpt lat="-35.2750166" lon="148.9863606">
  <ele>658.45</ele>
  <time>2026-09-01T19:59:59Z</time>
  <course>17.44</course>
  <speed>0.42755116652863895</speed>
  <fix>3d</fix>
</trkpt>
<trkpt lat="-35.2750159" lon="148.9863608">
  <ele>658.55</ele>
  <time>2026-09-01T19:59:59Z</time>
  <course>190.16</course>
  <speed>0.45</speed>
  <fix>3d</fix>
</trkpt>
<trkpt lat="-35.275017" lon="148.9863605">
  <ele>658.45</ele>
  <time>2026-09-01T19:59:59Z</time>
  <course>17.43</course>
  <speed>0.41773197148410846</speed>
  <fix>3d</fix>
</trkpt>
<trkpt lat="-35.2750159" lon="148.9863608">
  <ele>658.55</ele>
  <time>2026-09-01T19:59:59Z</time>
  <course>190.16</course>
  <speed>0.45</speed>
  <fix>3d</fix>
</trkpt>
<trkpt lat="-35.2750173" lon="148.9863604">
  <ele>658.44</ele>
  <time>2026-09-01T19:59:59Z</time>
  <course>17.42</course>
  <speed>0.41773197148410846</speed>
  <fix>3d</fix>
</trkpt>
<trkpt lat="-35.2750168" lon="148.9863606">
  <ele>658.55</ele>
  <time>2026-09-01T19:59:59Z</time>
  <course>190.75</course>
  <speed>0.45</speed>
  <fix>3d</fix>
</trkpt>
<trkpt lat="-35.2750177" lon="148.9863603">
  <ele>658.44</ele>
  <time>2026-09-01T19:59:59Z</time>
  <course>17.41</course>
  <speed>0.4079215610874228</speed>
  <fix>3d</fix>
</trkpt>
<trkpt lat="-35.2750168" lon="148.9863606">
  <ele>658.55</ele>
  <time>2026-09-01T19:59:59Z</time>
  <course>190.75</course>
  <speed>0.45</speed>
  <fix>3d</fix>
</trkpt>
<trkpt lat="-35.2750181" lon="148.9863603">
  <ele>658.44</ele>
  <time>2026-09-01T19:59:59Z</time>
  <course>17.39</course>
  <speed>0.39812058474788764</speed>
  <fix>3d</fix>
</trkpt>
<trkpt lat="-35.2750175" lon="148.9863605">
  <ele>658.55</ele>
  <time>2026-09-01T19:59:59Z</time>
  <course>191.17</course>
  <speed>0.44</speed>
  <fix>3d</fix>
</trkpt>
<trkpt lat="-35.2750185" lon="148.9863602">
  <ele>658.44</ele>
  <time>2026-09-01T19:59:59Z</time>
  <course>17.37</course>
  <speed>0.388329756778952</speed>
  <fix>3d</fix>
</trkpt>
<trkpt lat="-35.2750175" lon="148.9863605">
  <ele>658.55</ele>
  <time>2026-09-01T19:59:59Z</time>
  <course>191.17</course>
  <speed>0.44</speed>
  <fix>3d</fix>
</trkpt>
<trkpt lat="-35.2750188" lon="148.9863601">
  <ele>658.44</ele>
  <time>2026-09-01T19:59:59Z</time>
  <course>17.35</course>
  <speed>0.378549864614954</speed>
  <fix>3d</fix>
</trkpt>
<trkpt lat="-35.2750183" lon="148.9863603">
  <ele>658.54</ele>
  <time>2026-09-01T19:59:59Z</time>
  <course>191.32</course>
  <speed>0.42</speed>
  <fix>3d</fix>
</trkpt>
<trkpt lat="-35.2750191" lon="148.98636">
  <ele>658.44</ele>
  <time>2026-09-01T19:59:59Z</time>
  <course>17.33</course>
  <speed>0.3590264614203248</speed>
  <fix>3d</fix>
</trkpt>
<trkpt lat="-35.2750183" lon="148.9863603">
  <ele>658.54</ele>
  <time>2026-09-01T19:59:59Z</time>
  <course>191.32</course>
  <speed>0.42</speed>
  <fix>3d</fix>
</trkpt>
<trkpt lat="-35.2750195" lon="148.9863599">
  <ele>658.44</ele>
  <time>2026-09-01T19:59:59Z</time>
  <course>17.3</course>
  <speed>0.34713109915419565</speed>
  <fix>3d</fix>
</trkpt>
<trkpt lat="-35.275019" lon="148.9863601">
  <ele>658.54</ele>
  <time>2026-09-01T19:59:59Z</time>
  <course>191.27</course>
  <speed>0.4</speed>
  <fix>3d</fix>
</trkpt>
<trkpt lat="-35.2750198" lon="148.9863598">
  <ele>658.44</ele>
  <time>2026-09-01T19:59:59Z</time>
  <course>17.28</course>
  <speed>0.33734255586865997</speed>
  <fix>3d</fix>
</trkpt>
<trkpt lat="-35.275019" lon="148.9863601">
  <ele>658.54</ele>
  <time>2026-09-01T19:59:59Z</time>
  <course>191.27</course>
  <speed>0.4</speed>
  <fix>3d</fix>
</trkpt>
<trkpt lat="-35.2750201" lon="148.9863598">
  <ele>658.44</ele>
  <time>2026-09-01T19:59:59Z</time>
  <course>17.26</course>
  <speed>0.327566787083184</speed>
  <fix>3d</fix>
</trkpt>
<trkpt lat="-35.2750197" lon="148.9863599">
  <ele>658.54</ele>
  <time>2026-09-01T19:59:59Z</time>
  <course>191.03</course>
  <speed>0.38</speed>
  <fix>3d</fix>
</trkpt>
<trkpt lat="-35.2750204" lon="148.9863597">
  <ele>658.44</ele>
  <time>2026-09-01T19:59:59Z</time>
  <course>17.24</course>
  <speed>0.3059411708155671</speed>
  <fix>3d</fix>
</trkpt>
<trkpt lat="-35.2750197" lon="148.9863599">
  <ele>658.54</ele>
  <time>2026-09-01T19:59:59Z</time>
  <course>191.03</course>
  <speed>0.38</speed>
  <fix>3d</fix>
</trkpt>
<trkpt lat="-35.2750207" lon="148.9863596">
  <ele>658.44</ele>
  <time>2026-09-01T19:59:59Z</time>
  <course>17.22</course>
  <speed>0.29614185789921693</speed>
  <fix>3d</fix>
</trkpt>
<trkpt lat="-35.2750204" lon="148.9863597">
  <ele>658.54</ele>
  <time>2026-09-01T19:59:59Z</time>
  <course>190.71</course>
  <speed>0.35</speed>
  <fix>3d</fix>
</trkpt>
<trkpt lat="-35.275021" lon="148.9863596">
  <ele>658.44</ele>
  <time>2026-09-01T19:59:59Z</time>
  <course>17.22</course>
  <speed>0.2863564212655271</speed>
  <fix>3d</fix>
</trkpt>
<trkpt lat="-35.2750204" lon="148.9863597">
  <ele>658.54</ele>
  <time>2026-09-01T19:59:59Z</time>
  <course>190.71</course>
  <speed>0.35</speed>
  <fix>3d</fix>
</trkpt>
<trkpt lat="-35.2750213" lon="148.9863595">
  <ele>658.44</ele>
  <time>2026-09-01T19:59:59Z</time>
  <course>17.21</course>
  <speed>0.2745906043549196</speed>
  <fix>3d</fix>
</trkpt>
<trkpt lat="-35.2750209" lon="148.9863596">
  <ele>658.53</ele>
  <time>2026-09-01T19:59:59Z</time>
  <course>190.39</course>
  <speed>0.33</speed>
  <fix>3d</fix>
</trkpt>
<trkpt lat="-35.2750215" lon="148.9863594">
  <ele>658.44</ele>
  <time>2026-09-01T19:59:59Z</time>
  <course>17.21</course>
  <speed>0.25495097567963926</speed>
  <fix>3d</fix>
</trkpt>
<trkpt lat="-35.2750209" lon="148.9863596">
  <ele>658.53</ele>
  <time>2026-09-01T19:59:59Z</time>
  <course>190.39</course>
  <speed>0.33</speed>
  <fix>3d</fix>
</trkpt>
<trkpt lat="-35.2750218" lon="148.9863594">
  <ele>658.44</ele>
  <time>2026-09-01T19:59:59Z</time>
  <course>17.2</course>
  <speed>0.24515301344262524</speed>
  <fix>3d</fix>
</trkpt>
<trkpt lat="-35.2750216" lon="148.9863595">
  <ele>658.53</ele>
  <time>2026-09-01T19:59:59Z</time>
  <course>190.02</course>
  <speed>0.3</speed>
  <fix>3d</fix>
</trkpt>
<trkpt lat="-35.275022" lon="148.9863593">
  <ele>658.45</ele>
  <time>2026-09-01T19:59:59Z</time>
  <course>17.19</course>
  <speed>0.22561028345356957</speed>
  <fix>3d</fix>
</trkpt>
<trkpt lat="-35.2750216" lon="148.9863595">
  <ele>658.53</ele>
  <time>2026-09-01T19:59:59Z</time>
  <course>190.02</course>
  <speed>0.3</speed>
  <fix>3d</fix>
</trkpt>
<trkpt lat="-35.2750222" lon="148.9863593">
  <ele>658.45</ele>
  <time>2026-09-01T19:59:59Z</time>
  <course>17.17</course>
  <speed>0.21377558326431947</speed>
  <fix>3d</fix>
</trkpt>
<trkpt lat="-35.2750221" lon="148.9863593">
  <ele>658.53</ele>
  <time>2026-09-01T19:59:59Z</time>
  <course>189.56</course>
  <speed>0.27</speed>
  <fix>3d</fix>
</trkpt>
<trkpt lat="-35.2750224" lon="148.9863592">
  <ele>658.45</ele>
  <time>2026-09-01T19:59:59Z</time>
  <course>17.15</course>
  <speed>0.194164878389476</speed>
  <fix>3d</fix>
</trkpt>
<trkpt lat="-35.2750221" lon="148.9863593">
  <ele>658.53</ele>
  <time>2026-09-01T19:59:59Z</time>
  <course>189.56</course>
  <speed>0.27</speed>
  <fix>3d</fix>
</trkpt>
<trkpt lat="-35.2750226" lon="148.9863592">
  <ele>658.45</ele>
  <time>2026-09-01T19:59:59Z</time>
  <course>17.12</course>
  <speed>0.1824828759089466</speed>
  <fix>3d</fix>
</trkpt>
<trkpt lat="-35.2750226" lon="148.9863593">
  <ele>658.53</ele>
  <time>2026-09-01T19:59:59Z</time>
  <course>188.96</course>
  <speed>0.24</speed>
  <fix>3d</fix>
</trkpt>
<trkpt lat="-35.2750228" lon="148.9863592">
  <ele>658.45</ele>
  <time>2026-09-01T19:59:59Z</time>
  <course>17.1</course>
  <speed>0.17262676501632068</speed>
  <fix>3d</fix>
</trkpt>
<trkpt lat="-35.2750226" lon="148.9863593">
  <ele>658.53</ele>
  <time>2026-09-01T19:59:59Z</time>
  <course>188.96</course>
  <speed>0.24</speed>
  <fix>3d</fix>
</trkpt>
<trkpt lat="-35.275023" lon="148.9863591">
  <ele>658.45</ele>
  <time>2026-09-01T19:59:59Z</time>
  <course>17.08</course>
  <speed>0.15297058540778355</speed>
  <fix>3d</fix>
</trkpt>
<trkpt lat="-35.275023" lon="148.9863592">
  <ele>658.53</ele>
  <time>2026-09-01T19:59:59Z</time>
  <course>188.04</course>
  <speed>0.21</speed>
  <fix>3d</fix>
</trkpt>
<trkpt lat="-35.2750232" lon="148.9863591">
  <ele>658.45</ele>
  <time>2026-09-01T19:59:59Z</time>
  <course>17.08</course>
  <speed>0.1414213562373095</speed>
  <fix>3d</fix>
</trkpt>
<trkpt lat="-35.275023" lon="148.9863592">
  <ele>658.53</ele>
  <time>2026-09-01T19:59:59Z</time>
  <course>188.04</course>
  <speed>0.21</speed>
  <fix>3d</fix>
</trkpt>
<trkpt lat="-35.2750233" lon="148.9863591">
  <ele>658.45</ele>
  <time>2026-09-01T19:59:59Z</time>
  <course>17.07</course>
  <speed>0.12165525060596438</speed>
  <fix>3d</fix>
</trkpt>
<trkpt lat="-35.2750233" lon="148.9863591">
  <ele>658.52</ele>
  <time>2026-09-01T19:59:59Z</time>
  <course>186.61</course>
  <speed>0.18</speed>
  <fix>3d</fix>
</trkpt>
<trkpt lat="-35.2750234" lon="148.9863591">
  <ele>658.45</ele>
  <time>2026-09-01T19:59:59Z</time>
  <course>17.06</course>
  <speed>0.11045361017187261</speed>
  <fix>3d</fix>
</trkpt>
<trkpt lat="-35.2750233" lon="148.9863591">
  <ele>658.52</ele>
  <time>2026-09-01T19:59:59Z</time>
  <course>186.61</course>
  <speed>0.18</speed>
  <fix>3d</fix>
</trkpt>
<trkpt lat="-35.2750236" lon="148.9863591">
  <ele>658.45</ele>
  <time>2026-09-01T19:59:59Z</time>
  <course>17.05</course>
  <speed>0.09055385138137417</speed>
  <fix>3d</fix>
</trkpt>
<trkpt lat="-35.2750236" lon="148.986359">
  <ele>658.52</ele>
  <time>2026-09-01T19:59:59Z</time>
  <course>184.59</course>
  <speed>0.15</speed>
  <fix>3d</fix>
</trkpt>
<trkpt lat="-35.2750237" lon="148.9863591">
  <ele>658.45</ele>
  <time>2026-09-01T19:59:59Z</time>
  <course>17.04</course>
  <speed>0.08062257748298549</speed>
  <fix>3d</fix>
</trkpt>
<trkpt lat="-35.2750236" lon="148.986359">
  <ele>658.52</ele>
  <time>2026-09-01T19:59:59Z</time>
  <course>184.59</course>
  <speed>0.15</speed>
  <fix>3d</fix>
</trkpt>
<trkpt lat="-35.2750238" lon="148.986359">
  <ele>658.44</ele>
  <time>2026-09-01T19:59:59Z</time>
  <course>17.04</course>
  <speed>0.06</speed>
  <fix>3d</fix>
</trkpt>
<trkpt lat="-35.2750239" lon="148.986359">
  <ele>658.52</ele>
  <time>2026-09-01T19:59:59Z</time>
  <course>181.86</course>
  <speed>0.12</speed>
  <fix>3d</fix>
</trkpt>
<trkpt lat="-35.2750239" lon="148.986359">
  <ele>658.44</ele>
  <time>2026-09-01T19:59:59Z</time>
  <course>17.04</course>
  <speed>0.05</speed>
  <fix>3d</fix>
</trkpt>
<trkpt lat="-35.2750239" lon="148.986359">
  <ele>658.52</ele>
  <time>2026-09-01T19:59:59Z</time>
  <course>181.86</course>
  <speed>0.12</speed>
  <fix>3d</fix>
</trkpt>
<trkpt lat="-35.2750239" lon="148.986359">
  <ele>658.44</ele>
  <time>2026-09-01T19:59:59Z</time>
  <course>17.04</course>
  <speed>0.03</speed>
  <fix>3d</fix>
</trkpt>
<trkpt lat="-35.275024" lon="148.986359">
  <ele>658.52</ele>
  <time>2026-09-01T19:59:59Z</time>
  <course>177.7</course>
  <speed>0.09</speed>
  <fix>3d</fix>
</trkpt>
<trkpt lat="-35.275024" lon="148.986359">
  <ele>658.44</ele>
  <time>2026-09-01T19:59:59Z</time>
  <course>17.04</course>
  <speed>0.01</speed>
  <fix>3d</fix>
</trkpt>
<trkpt lat="-35.275024" lon="148.986359">
  <ele>658.52</ele>
  <time>2026-09-01T19:59:59Z</time>
  <course>177.7</course>
  <speed>0.09</speed>
  <fix>3d</fix>
</trkpt>
<trkpt lat="-35.275024" lon="148.986359">
  <ele>658.44</ele>
  <time>2026-09-01T19:59:59Z</time>
  <course>17.04</course>
  <speed>0.0</speed>
  <fix>3d</fix>
</trkpt>
<trkpt lat="-35.2750242" lon="148.986359">
  <ele>658.51</ele>
  <time>2026-09-01T19:59:59Z</time>
  <course>169.67</course>
  <speed>0.06</speed>
  <fix>3d</fix>
</trkpt>
<trkpt lat="-35.275024" lon="148.986359">
  <ele>658.44</ele>
  <time>2026-09-01T19:59:59Z</time>
  <course>17.04</course>
  <speed>0.0</speed>
  <fix>3d</fix>
</trkpt>
<trkpt lat="-35.2750242" lon="148.986359">
  <ele>658.51</ele>
  <time>2026-09-01T19:59:59Z</time>
  <course>169.67</course>
  <speed>0.06</speed>
  <fix>3d</fix>
</trkpt>
<trkpt lat="-35.275024" lon="148.986359">
  <ele>658.44</ele>
  <time>2026-09-01T19:59:59Z</time>
  <course>17.04</course>
  <speed>0.022360679774997897</speed>
  <fix>3d</fix>
</trkpt>
<trkpt lat="-35.2750243" lon="148.986359">
  <ele>658.51</ele>
  <time>2026-09-01T19:59:59Z</time>
  <course>150.54</course>
  <speed>0.03</speed>
  <fix>3d</fix>
</trkpt>
<trkpt lat="-35.275024" lon="148.986359">
  <ele>658.44</ele>
  <time>2026-09-01T19:59:59Z</time>
  <course>17.04</course>
  <speed>0.0316227766016838</speed>
  <fix>3d</fix>
</trkpt>
<trkpt lat="-35.2750243" lon="148.986359">
  <ele>658.51</ele>
  <time>2026-09-01T19:59:59Z</time>
  <course>150.54</course>
  <speed>0.03</speed>
  <fix>3d</fix>
</trkpt>
<trkpt lat="-35.275024" lon="148.986359">
  <ele>658.44</ele>
  <time>2026-09-01T19:59:59Z</time>
  <course>17.03</course>
  <speed>0.05099019513592785</speed>
  <fix>3d</fix>
</trkpt>
<trkpt lat="-35.2750244" lon="148.986359">
  <ele>658.51</ele>
  <time>2026-09-01T19:59:59Z</time>
  <course>100.69</course>
  <speed>0.02</speed>
  <fix>3d</fix>
</trkpt>
<trkpt lat="-35.275024" lon="148.9863591">
  <ele>658.44</ele>
  <time>2026-09-01T19:59:59Z</time>
  <course>17.03</course>
  <speed>0.0632455532033676</speed>
  <fix>3d</fix>
</trkpt>
<trkpt lat="-35.2750244" lon="148.986359">
  <ele>658.51</ele>
  <time>2026-09-01T19:59:59Z</time>
  <course>100.69</course>
  <speed>0.02</speed>
  <fix>3d</fix>
</trkpt>
<trkpt lat="-35.275024" lon="148.9863591">
  <ele>658.44</ele>
  <time>2026-09-01T19:59:59Z</time>
  <course>17.03</course>
  <speed>0.07280109889280519</speed>
  <fix>3d</fix>
</trkpt>
<trkpt lat="-35.2750244" lon="148.9863591">
  <ele>658.51</ele>
  <time>2026-09-01T19:59:59Z</time>
  <course>54.37</course>
  <speed>0.04</speed>
  <fix>3d</fix>
</trkpt>
<trkpt lat="-35.2750239" lon="148.9863591">
  <ele>658.44</ele>
  <time>2026-09-01T19:59:59Z</time>
  <course>17.04</course>
  <speed>0.09219544457292887</speed>
  <fix>3d</fix>
</trkpt>
<trkpt lat="-35.2750244" lon="148.9863591">
  <ele>658.51</ele>
  <time>2026-09-01T19:59:59Z</time>
  <course>54.37</course>
  <speed>0.04</speed>
  <fix>3d</fix>
</trkpt>
<trkpt lat="-35.2750239" lon="148.9863592">
  <ele>658.44</ele>
  <time>2026-09-01T19:59:59Z</time>
  <course>17.04</course>
  <speed>0.1019803902718557</speed>
  <fix>3d</fix>
</trkpt>
<trkpt lat="-35.2750244" lon="148.9863592">
  <ele>658.51</ele>
  <time>2026-09-01T19:59:59Z</time>
  <course>37.21</course>
  <speed>0.06</speed>
  <fix>3d</fix>
</trkpt>
<trkpt lat="-35.2750239" lon="148.9863592">
  <ele>658.44</ele>
  <time>2026-09-01T19:59:59Z</time>
  <course>17.04</course>
  <speed>0.1118033988749895</speed>
  <fix>3d</fix>
</trkpt>
<trkpt lat="-35.2750244" lon="148.9863592">
  <ele>658.51</ele>
  <time>2026-09-01T19:59:59Z</time>
  <course>37.21</course>
  <speed>0.06</speed>
  <fix>3d</fix>
</trkpt>
<trkpt lat="-35.2750238" lon="148.9863593">
  <ele>658.44</ele>
  <time>2026-09-01T19:59:59Z</time>
  <course>17.04</course>
  <speed>0.12369316876852982</speed>
  <fix>3d</fix>
</trkpt>
<trkpt lat="-35.2750243" lon="148.9863593">
  <ele>658.51</ele>
  <time>2026-09-01T19:59:59Z</time>
  <course>29.7</course>
  <speed>0.08</speed>
  <fix>3d</fix>
</trkpt>
<trkpt lat="-35.2750237" lon="148.9863593">
  <ele>658.44</ele>
  <time>2026-09-01T19:59:59Z</time>
  <course>17.04</course>
  <speed>0.13341664064126335</speed>
  <fix>3d</fix>
</trkpt>
<trkpt lat="-35.2750243" lon="148.9863593">
  <ele>658.51</ele>
  <time>2026-09-01T19:59:59Z</time>
  <course>29.7</course>
  <speed>0.08</speed>
  <fix>3d</fix>
</trkpt>
<trkpt lat="-35.2750237" lon="148.9863593">
  <ele>658.44</ele>
  <time>2026-09-01T19:59:59Z</time>
  <course>17.04</course>
  <speed>0.14317821063276354</speed>
  <fix>3d</fix>
</trkpt>
<trkpt lat="-35.2750241" lon="148.9863594">
  <ele>658.51</ele>
  <time>2026-09-01T19:59:59Z</time>
  <course>25.54</course>
  <speed>0.11</speed>
  <fix>3d</fix>
</trkpt>
<trkpt lat="-35.2750236" lon="148.9863594">
  <ele>658.44</ele>
  <time>2026-09-01T19:59:59Z</time>
  <course>17.04</course>
  <speed>0.15297058540778355</speed>
  <fix>3d</fix>
</trkpt>
<trkpt lat="-35.2750241" lon="148.9863594">
  <ele>658.51</ele>
  <time>2026-09-01T19:59:59Z</time>
  <course>25.54</course>
  <speed>0.11</speed>
  <fix>3d</fix>
</trkpt>
<trkpt lat="-35.2750234" lon="148.9863595">
  <ele>658.44</ele>
  <time>2026-09-01T19:59:59Z</time>
  <course>17.04</course>
  <speed>0.16278820596099705</speed>
  <fix>3d</fix>
</trkpt>
<trkpt lat="-35.2750239" lon="148.9863595">
  <ele>658.52</ele>
  <time>2026-09-01T19:59:59Z</time>
  <course>22.87</course>
  <speed>0.13</speed>
  <fix>3d</fix>
</trkpt>
<trkpt lat="-35.2750233" lon="148.9863595">
  <ele>658.43</ele>
  <time>2026-09-01T19:59:59Z</time>
  <course>17.05</course>
  <speed>0.16278820596099705</speed>
  <fix>3d</fix>
</trkpt>
<trkpt lat="-35.2750239" lon="148.9863595">
  <ele>658.52</ele>
  <time>2026-09-01T19:59:59Z</time>
  <course>22.87</course>
  <speed>0.13</speed>
  <fix>3d</fix>
</trkpt>
<trkpt lat="-35.2750232" lon="148.9863596">
  <ele>658.43</ele>
  <time>2026-09-01T19:59:59Z</time>
  <course>17.05</course>
  <speed>0.17262676501632068</speed>
  <fix>3d</fix>
</trkpt>
<trkpt lat="-35.2750237" lon="148.9863596">
  <ele>658.52</ele>
  <time>2026-09-01T19:59:59Z</time>
  <course>20.95</course>
  <speed>0.14</speed>
  <fix>3d</fix>
</trkpt>
<trkpt lat="-35.2750231" lon="148.9863596">
  <ele>658.43</ele>
  <time>2026-09-01T19:59:59Z</time>
  <course>17.05</course>
  <speed>0.1824828759089466</speed>
  <fix>3d</fix>
</trkpt>
<trkpt lat="-35.2750237" lon="148.9863596">
  <ele>658.52</ele>
  <time>2026-09-01T19:59:59Z</time>
  <course>20.95</course>
  <speed>0.14</speed>
  <fix>3d</fix>
</trkpt>
<trkpt lat="-35.2750229" lon="148.9863597">
  <ele>658.43</ele>
  <time>2026-09-01T19:59:59Z</time>
  <course>17.04</course>
  <speed>0.1824828759089466</speed>
  <fix>3d</fix>
</trkpt>
<trkpt lat="-35.2750234" lon="148.9863598">
  <ele>658.52</ele>
  <time>2026-09-01T19:59:59Z</time>
  <course>19.45</course>
  <speed>0.16</speed>
  <fix>3d</fix>
</trkpt>
<trkpt lat="-35.2750228" lon="148.9863597">
  <ele>658.43</ele>
  <time>2026-09-01T19:59:59Z</time>
  <course>17.04</course>
  <speed>0.1824828759089466</speed>
  <fix>3d</fix>
</trkpt>
<trkpt lat="-35.2750234" lon="148.9863598">
  <ele>658.52</ele>
  <time>2026-09-01T19:59:59Z</time>
  <course>19.45</course>
  <speed>0.16</speed>
  <fix>3d</fix>
</trkpt>
<trkpt lat="-35.2750227" lon="148.9863598">
  <ele>658.43</ele>
  <time>2026-09-01T19:59:59Z</time>
  <course>17.04</course>
  <speed>0.19235384061671343</speed>
  <fix>3d</fix>
</trkpt>
<trkpt lat="-35.2750231" lon="148.9863599">
  <ele>658.52</ele>
  <time>2026-09-01T19:59:59Z</time>
  <course>18.2</course>
  <speed>0.17</speed>
  <fix>3d</fix>
</trkpt>
<trkpt lat="-35.2750225" lon="148.9863598">
  <ele>658.44</ele>
  <time>2026-09-01T19:59:59Z</time>
  <course>17.04</course>
  <speed>0.19235384061671343</speed>
  <fix>3d</fix>
</trkpt>
<trkpt lat="-35.2750231" lon="148.9863599">
  <ele>658.52</ele>
  <time>2026-09-01T19:59:59Z</time>
  <course>18.2</course>
  <speed>0.17</speed>
  <fix>3d</fix>
</trkpt>
<trkpt lat="-35.2750224" lon="148.9863599">
  <ele>658.44</ele>
  <time>2026-09-01T19:59:59Z</time>
  <course>17.05</course>
  <speed>0.19235384061671343</speed>
  <fix>3d</fix>
</trkpt>
<trkpt lat="-35.2750228" lon="148.98636">
  <ele>658.52</ele>
  <time>2026-09-01T19:59:59Z</time>
  <course>17.1</course>
  <speed>0.18</speed>
  <fix>3d</fix>
</trkpt>
<trkpt lat="-35.2750222" lon="148.98636">
  <ele>658.44</ele>
  <time>2026-09-01T19:59:59Z</time>
  <course>17.05</course>
  <speed>0.19235384061671343</speed>
  <fix>3d</fix>
</trkpt>
<trkpt lat="-35.2750228" lon="148.98636">
  <ele>658.52</ele>
  <time>2026-09-01T19:59:59Z</time>
  <course>17.1</course>
  <speed>0.18</speed>
  <fix>3d</fix>
</trkpt>
<trkpt lat="-35.2750221" lon="148.98636">
  <ele>658.44</ele>
  <time>2026-09-01T19:59:59Z</time>
  <course>17.06</course>
  <speed>0.19235384061671343</speed>
  <fix>3d</fix>
</trkpt>
<trkpt lat="-35.2750225" lon="148.9863601">
  <ele>658.52</ele>
  <time>2026-09-01T19:59:59Z</time>
  <course>16.06</course>
  <speed>0.18</speed>
  <fix>3d</fix>
</trkpt>
<trkpt lat="-35.2750219" lon="148.9863601">
  <ele>658.44</ele>
  <time>2026-09-01T19:59:59Z</time>
  <course>17.06</course>
  <speed>0.19235384061671343</speed>
  <fix>3d</fix>
</trkpt>
<trkpt lat="-35.2750225" lon="148.9863601">
  <ele>658.52</ele>
  <time>2026-09-01T19:59:59Z</time>
  <course>16.06</course>
  <speed>0.18</speed>
  <fix>3d</fix>
</trkpt>
<trkpt lat="-35.2750218" lon="148.9863601">
  <ele>658.44</ele>
  <time>2026-09-01T19:59:59Z</time>
  <course>17.06</course>
  <speed>0.191049731745428</speed>
  <fix>3d</fix>
</trkpt>
<trkpt lat="-35.2750222" lon="148.9863602">
  <ele>658.52</ele>
  <time>2026-09-01T19:59:59Z</time>
  <course>15.05</course>
  <speed>0.18</speed>
  <fix>3d</fix>
</trkpt>
<trkpt lat="-35.2750216" lon="148.9863602">
  <ele>658.43</ele>
  <time>2026-09-01T19:59:59Z</time>
  <course>17.05</course>
  <speed>0.18110770276274835</speed>
  <fix>3d</fix>
</trkpt>
<trkpt lat="-35.2750222" lon="148.9863602">
  <ele>658.52</ele>
  <time>2026-09-01T19:59:59Z</time>
  <course>15.05</course>
  <speed>0.18</speed>
  <fix>3d</fix>
</trkpt>
<trkpt lat="-35.2750215" lon="148.9863602">
  <ele>658.43</ele>
  <time>2026-09-01T19:59:59Z</time>
  <course>17.05</course>
  <speed>0.18110770276274835</speed>
  <fix>3d</fix>
</trkpt>
<trkpt lat="-35.2750219" lon="148.9863603">
  <ele>658.52</ele>
  <time>2026-09-01T19:59:59Z</time>
  <course>14.06</course>
  <speed>0.18</speed>
  <fix>3d</fix>
</trkpt>
<trkpt lat="-35.2750213" lon="148.9863603">
  <ele>658.43</ele>
  <time>2026-09-01T19:59:59Z</time>
  <course>17.05</course>
  <speed>0.18110770276274835</speed>
  <fix>3d</fix>
</trkpt>
<trkpt lat="-35.2750219" lon="148.9863603">
  <ele>658.52</ele>
  <time>2026-09-01T19:59:59Z</time>
  <course>14.06</course>
  <speed>0.18</speed>
  <fix>3d</fix>
</trkpt>
<trkpt lat="-35.2750212" lon="148.9863603">
  <ele>658.43</ele>
  <time>2026-09-01T19:59:59Z</time>
  <course>17.05</course>
  <speed>0.17029386365926402</speed>
  <fix>3d</fix>
</trkpt>
<trkpt lat="-35.2750215" lon="148.9863604">
  <ele>658.52</ele>
  <time>2026-09-01T19:59:59Z</time>
  <course>12.95</course>
  <speed>0.17</speed>
  <fix>3d</fix>
</trkpt>
<trkpt lat="-35.275021" lon="148.9863603">
  <ele>658.43</ele>
  <time>2026-09-01T19:59:59Z</time>
  <course>17.05</course>
  <speed>0.17029386365926402</speed>
  <fix>3d</fix>
</trkpt>
<trkpt lat="-35.2750215" lon="148.9863604">
  <ele>658.52</ele>
  <time>2026-09-01T19:59:59Z</time>
  <course>12.95</course>
  <speed>0.17</speed>
  <fix>3d</fix>
</trkpt>
<trkpt lat="-35.2750209" lon="148.9863604">
  <ele>658.43</ele>
  <time>2026-09-01T19:59:59Z</time>
  <course>17.06</course>
  <speed>0.16031219541881397</speed>
  <fix>3d</fix>
</trkpt>
<trkpt lat="-35.2750213" lon="148.9863605">
  <ele>658.52</ele>
  <time>2026-09-01T19:59:59Z</time>
  <course>11.68</course>
  <speed>0.16</speed>
  <fix>3d</fix>
</trkpt>
<trkpt lat="-35.2750208" lon="148.9863604">
  <ele>658.43</ele>
  <time>2026-09-01T19:59:59Z</time>
  <course>17.06</course>
  <speed>0.15033296378372907</speed>
  <fix>3d</fix>
</trkpt>
<trkpt lat="-35.2750213" lon="148.9863605">
  <ele>658.52</ele>
  <time>2026-09-01T19:59:59Z</time>
  <course>11.68</course>
  <speed>0.16</speed>
  <fix>3d</fix>
</trkpt>
<trkpt lat="-35.2750206" lon="148.9863604">
  <ele>658.43</ele>
  <time>2026-09-01T19:59:59Z</time>
  <course>17.06</course>
  <speed>0.15</speed>
  <fix>3d</fix>
</trkpt>
<trkpt lat="-35.275021" lon="148.9863605">
  <ele>658.52</ele>
  <time>2026-09-01T19:59:59Z</time>
  <course>10.3</course>
  <speed>0.15</speed>
  <fix>3d</fix>
</trkpt>
<trkpt lat="-35.2750205" lon="148.9863604">
  <ele>658.43</ele>
  <time>2026-09-01T19:59:59Z</time>
  <course>17.07</course>
  <speed>0.14</speed>
  <fix>3d</fix>
</trkpt>
<trkpt lat="-35.275021" lon="148.9863605">
  <ele>658.52</ele>
  <time>2026-09-01T19:59:59Z</time>
  <course>10.3</course>
  <speed>0.15</speed>
  <fix>3d</fix>
</trkpt>
<trkpt lat="-35.2750204" lon="148.9863605">
  <ele>658.43</ele>
  <time>2026-09-01T19:59:59Z</time>
  <course>17.06</course>
  <speed>0.13</speed>
  <fix>3d</fix>
</trkpt>
<trkpt lat="-35.2750207" lon="148.9863606">
  <ele>658.52</ele>
  <time>2026-09-01T19:59:59Z</time>
  <course>8.72</course>
  <speed>0.13</speed>
  <fix>3d</fix>
</trkpt>
<trkpt lat="-35.2750203" lon="148.9863605">
  <ele>658.43</ele>
  <time>2026-09-01T19:59:59Z</time>
  <course>17.06</course>
  <speed>0.12</speed>
  <fix>3d</fix>
</trkpt>
<trkpt lat="-35.2750207" lon="148.9863606">
  <ele>658.52</ele>
  <time>2026-09-01T19:59:59Z</time>
  <course>8.72</course>
  <speed>0.13</speed>
  <fix>3d</fix>
</trkpt>
<trkpt lat="-35.2750202" lon="148.9863605">
  <ele>658.43</ele>
  <time>2026-09-01T19:59:59Z</time>
  <course>17.07</course>
  <speed>0.11</speed>
  <fix>3d</fix>
</trkpt>
<trkpt lat="-35.2750204" lon="148.9863607">
  <ele>658.52</ele>
  <time>2026-09-01T19:59:59Z</time>
  <course>6.78</course>
  <speed>0.12</speed>
  <fix>3d</fix>
</trkpt>
<trkpt lat="-35.2750201" lon="148.9863605">
  <ele>658.44</ele>
  <time>2026-09-01T19:59:59Z</time>
  <course>17.07</course>
  <speed>0.11</speed>
  <fix>3d</fix>
</trkpt>
<trkpt lat="-35.2750204" lon="148.9863607">
  <ele>658.52</ele>
  <time>2026-09-01T19:59:59Z</time>
  <course>6.78</course>
  <speed>0.12</speed>
  <fix>3d</fix>
</trkpt>
<trkpt lat="-35.27502" lon="148.9863605">
  <ele>658.44</ele>
  <time>2026-09-01T19:59:59Z</time>
  <course>17.07</course>
  <speed>0.1</speed>
  <fix>3d</fix>
</trkpt>
<trkpt lat="-35.2750202" lon="148.9863607">
  <ele>658.53</ele>
  <time>2026-09-01T19:59:59Z</time>
  <course>4.28</course>
  <speed>0.1</speed>
  <fix>3d</fix>
</trkpt>
<trkpt lat="-35.27502" lon="148.9863605">
  <ele>658.44</ele>
  <time>2026-09-01T19:59:59Z</time>
  <course>17.06</course>
  <speed>0.09055385138137417</speed>
  <fix>3d</fix>
</trkpt>
<trkpt lat="-35.2750202" lon="148.9863607">
  <ele>658.53</ele>
  <time>2026-09-01T19:59:59Z</time>
  <course>4.28</course>
  <speed>0.1</speed>
  <fix>3d</fix>
</trkpt>
<trkpt lat="-35.2750199" lon="148.9863605">
  <ele>658.44</ele>
  <time>2026-09-01T19:59:59Z</time>
  <course>17.06</course>
  <speed>0.08062257748298549</speed>
  <fix>3d</fix>
</trkpt>
<trkpt lat="-35.2750201" lon="148.9863607">
  <ele>658.53</ele>
  <time>2026-09-01T19:59:59Z</time>
  <course>0.95</course>
  <speed>0.08</speed>
  <fix>3d</fix>
</trkpt>
<trkpt lat="-35.2750198" lon="148.9863605">
  <ele>658.44</ele>
  <time>2026-09-01T19:59:59Z</time>
  <course>17.06</course>
  <speed>0.07071067811865475</speed>
  <fix>3d</fix>
</trkpt>
<trkpt lat="-35.2750201" lon="148.9863607">
  <ele>658.53</ele>
  <time>2026-09-01T19:59:59Z</time>
  <course>0.95</course>
  <speed>0.08</speed>
  <fix>3d</fix>
</trkpt>
<trkpt lat="-35.2750198" lon="148.9863605">
  <ele>658.44</ele>
  <time>2026-09-01T19:59:59Z</time>
  <course>17.07</course>
  <speed>0.06082762530298219</speed>
  <fix>3d</fix>
</trkpt>
<trkpt lat="-35.27502" lon="148.9863607">
  <ele>658.53</ele>
  <time>2026-09-01T19:59:59Z</time>
  <course>355.88</course>
  <speed>0.06</speed>
  <fix>3d</fix>
</trkpt>
<trkpt lat="-35.2750198" lon="148.9863605">
  <ele>658.44</ele>
  <time>2026-09-01T19:59:59Z</time>
  <course>17.07</course>
  <speed>0.053851648071345036</speed>
  <fix>3d</fix>
</trkpt>
<trkpt lat="-35.27502" lon="148.9863607">
  <ele>658.53</ele>
  <time>2026-09-01T19:59:59Z</time>
  <course>355.88</course>
  <speed>0.06</speed>
  <fix>3d</fix>
</trkpt>
<trkpt lat="-35.2750197" lon="148.9863605">
  <ele>658.43</ele>
  <time>2026-09-01T19:59:59Z</time>
  <course>17.07</course>
  <speed>0.044721359549995794</speed>
  <fix>3d</fix>
</trkpt>
<trkpt lat="-35.2750199" lon="148.9863607">
  <ele>658.53</ele>
  <time>2026-09-01T19:59:59Z</time>
  <course>346.42</course>
  <speed>0.04</speed>
  <fix>3d</fix>
</trkpt>
<trkpt lat="-35.2750197" lon="148.9863605">
  <ele>658.43</ele>
  <time>2026-09-01T19:59:59Z</time>
  <course>17.07</course>
  <speed>0.03605551275463989</speed>
  <fix>3d</fix>
</trkpt>
<trkpt lat="-35.2750199" lon="148.9863607">
  <ele>658.53</ele>
  <time>2026-09-01T19:59:59Z</time>
  <course>346.42</course>
  <speed>0.04</speed>
  <fix>3d</fix>
</trkpt>
<trkpt lat="-35.2750197" lon="148.9863605">
  <ele>658.43</ele>
  <time>2026-09-01T19:59:59Z</time>
  <course>17.07</course>
  <speed>0.0282842712474619</speed>
  <fix>3d</fix>
</trkpt>
<trkpt lat="-35.2750198" lon="148.9863607">
  <ele>658.53</ele>
  <time>2026-09-01T19:59:59Z</time>
  <course>326.66</course>
  <speed>0.03</speed>
  <fix>3d</fix>
</trkpt>
<trkpt lat="-35.2750197" lon="148.9863605">
  <ele>658.43</ele>
  <time>2026-09-01T19:59:59Z</time>
  <course>17.07</course>
  <speed>0.0316227766016838</speed>
  <fix>3d</fix>
</trkpt>
<trkpt lat="-35.2750198" lon="148.9863607">
  <ele>658.53</ele>
  <time>2026-09-01T19:59:59Z</time>
  <course>326.66</course>
  <speed>0.03</speed>
  <fix>3d</fix>
</trkpt>
<trkpt lat="-35.2750197" lon="148.9863605">
  <ele>658.43</ele>
  <time>2026-09-01T19:59:59Z</time>
  <course>17.07</course>
  <speed>0.03</speed>
  <fix>3d</fix>
</trkpt>
<trkpt lat="-35.2750198" lon="148.9863607">
  <ele>658.53</ele>
  <time>2026-09-01T19:59:59Z</time>
  <course>287.09</course>
  <speed>0.02</speed>
  <fix>3d</fix>
</trkpt>
<trkpt lat="-35.2750197" lon="148.9863605">
  <ele>658.43</ele>
  <time>2026-09-01T19:59:59Z</time>
  <course>17.07</course>
  <speed>0.03</speed>
  <fix>3d</fix>
</trkpt>
<trkpt lat="-35.2750198" lon="148.9863607">
  <ele>658.53</ele>
  <time>2026-09-01T19:59:59Z</time>
  <course>287.09</course>
  <speed>0.02</speed>
  <fix>3d</fix>
</trkpt>
<trkpt lat="-35.2750197" lon="148.9863605">
  <ele>658.43</ele>
  <time>2026-09-01T19:59:59Z</time>
  <course>17.07</course>
  <speed>0.03</speed>
  <fix>3d</fix>
</trkpt>
<trkpt lat="-35.2750198" lon="148.9863606">
  <ele>658.53</ele>
  <time>2026-09-01T19:59:59Z</time>
  <course>247.58</course>
  <speed>0.02</speed>
  <fix>3d</fix>
</trkpt>
<trkpt lat="-35.2750197" lon="148.9863605">
  <ele>658.43</ele>
  <time>2026-09-01T19:59:59Z</time>
  <course>17.07</course>
  <speed>0.0316227766016838</speed>
  <fix>3d</fix>
</trkpt>
<trkpt lat="-35.2750198" lon="148.9863606">
  <ele>658.53</ele>
  <time>2026-09-01T19:59:59Z</time>
  <course>247.58</course>
  <speed>0.02</speed>
  <fix>3d</fix>
</trkpt>
<trkpt lat="-35.2750197" lon="148.9863604">
  <ele>658.43</ele>
  <time>2026-09-01T19:59:59Z</time>
  <course>17.07</course>
  <speed>0.03605551275463989</speed>
  <fix>3d</fix>
</trkpt>
<trkpt lat="-35.2750198" lon="148.9863605">
  <ele>658.53</ele>
  <time>2026-09-01T19:59:59Z</time>
  <course>228.25</course>
  <speed>0.04</speed>
  <fix>3d</fix>
</trkpt>
<trkpt lat="-35.2750197" lon="148.9863604">
  <ele>658.43</ele>
  <time>2026-09-01T19:59:59Z</time>
  <course>17.07</course>
  <speed>0.044721359549995794</speed>
  <fix>3d</fix>
</trkpt>
<trkpt lat="-35.2750198" lon="148.9863605">
  <ele>658.53</ele>
  <time>2026-09-01T19:59:59Z</time>
  <course>228.25</course>
  <speed>0.04</speed>
  <fix>3d</fix>
</trkpt>
<trkpt lat="-35.2750198" lon="148.9863604">
  <ele>658.43</ele>
  <time>2026-09-01T19:59:59Z</time>
  <course>17.07</course>
  <speed>0.05</speed>
  <fix>3d</fix>
</trkpt>
<trkpt lat="-35.2750198" lon="148.9863605">
  <ele>658.53</ele>
  <time>2026-09-01T19:59:59Z</time>
  <course>218.91</course>
  <speed>0.05</speed>
  <fix>3d</fix>
</trkpt>
<trkpt lat="-35.2750198" lon="148.9863603">
  <ele>658.43</ele>
  <time>2026-09-01T19:59:59Z</time>
  <course>17.07</course>
  <speed>0.05</speed>
  <fix>3d</fix>
</trkpt>
<trkpt lat="-35.2750198" lon="148.9863605">
  <ele>658.53</ele>
  <time>2026-09-01T19:59:59Z</time>
  <course>218.91</course>
  <speed>0.05</speed>
  <fix>3d</fix>
</trkpt>
<trkpt lat="-35.2750199" lon="148.9863603">
  <ele>658.43</ele>
  <time>2026-09-01T19:59:59Z</time>
  <course>17.07</course>
  <speed>0.0565685424949238</speed>
  <fix>3d</fix>
</trkpt>
<trkpt lat="-35.2750199" lon="148.9863604">
  <ele>658.53</ele>
  <time>2026-09-01T19:59:59Z</time>
  <course>213.6</course>
  <speed>0.06</speed>
  <fix>3d</fix>
</trkpt>
<trkpt lat="-35.2750199" lon="148.9863603">
  <ele>658.44</ele>
  <time>2026-09-01T19:59:59Z</time>
  <course>17.07</course>
  <speed>0.0565685424949238</speed>
  <fix>3d</fix>
</trkpt>
<trkpt lat="-35.2750199" lon="148.9863604">
  <ele>658.53</ele>
  <time>2026-09-01T19:59:59Z</time>
  <course>213.6</course>
  <speed>0.06</speed>
  <fix>3d</fix>
</trkpt>
<trkpt lat="-35.27502" lon="148.9863602">
  <ele>658.44</ele>
  <time>2026-09-01T19:59:59Z</time>
  <course>17.07</course>
  <speed>0.0565685424949238</speed>
  <fix>3d</fix>
</trkpt>
<trkpt lat="-35.27502" lon="148.9863603">
  <ele>658.53</ele>
  <time>2026-09-01T19:59:59Z</time>
  <course>210.21</course>
  <speed>0.07</speed>
  <fix>3d</fix>
</trkpt>
<trkpt lat="-35.27502" lon="148.9863602">
  <ele>658.44</ele>
  <time>2026-09-01T19:59:59Z</time>
  <course>17.06</course>
  <speed>0.06403124237432849</speed>
  <fix>3d</fix>
</trkpt>
<trkpt lat="-35.27502" lon="148.9863603">
  <ele>658.53</ele>
  <time>2026-09-01T19:59:59Z</time>
  <course>210.21</course>
  <speed>0.07</speed>
  <fix>3d</fix>
</trkpt>
<trkpt lat="-35.2750201" lon="148.9863601">
  <ele>658.44</ele>
  <time>2026-09-01T19:59:59Z</time>
  <course>17.06</course>
  <speed>0.06403124237432849</speed>
  <fix>3d</fix>
</trkpt>
<trkpt lat="-35.2750201" lon="148.9863602">
  <ele>658.53</ele>
  <time>2026-09-01T19:59:59Z</time>
  <course>207.98</course>
  <speed>0.08</speed>
  <fix>3d</fix>
</trkpt>
<trkpt lat="-35.2750201" lon="148.9863601">
  <ele>658.44</ele>
  <time>2026-09-01T19:59:59Z</time>
  <course>17.07</course>
  <speed>0.06403124237432849</speed>
  <fix>3d</fix>
</trkpt>
<trkpt lat="-35.2750201" lon="148.9863602">
  <ele>658.53</ele>
  <time>2026-09-01T19:59:59Z</time>
  <course>207.98</course>
  <speed>0.08</speed>
  <fix>3d</fix>
</trkpt>
<trkpt lat="-35.2750202" lon="148.9863601">
  <ele>658.44</ele>
  <time>2026-09-01T19:59:59Z</time>
  <course>17.08</course>
  <speed>0.06403124237432849</speed>
  <fix>3d</fix>
</trkpt>
<trkpt lat="-35.2750202" lon="148.9863602">
  <ele>658.53</ele>
  <time>2026-09-01T19:59:59Z</time>
  <course>206.29</course>
  <speed>0.08</speed>
  <fix>3d</fix>
</trkpt>
<trkpt lat="-35.2750203" lon="148.98636">
  <ele>658.44</ele>
  <time>2026-09-01T19:59:59Z</time>
  <course>17.08</course>
  <speed>0.06403124237432849</speed>
  <fix>3d</fix>
</trkpt>
<trkpt lat="-35.2750202" lon="148.9863602">
  <ele>658.53</ele>
  <time>2026-09-01T19:59:59Z</time>
  <course>206.29</course>
  <speed>0.08</speed>
  <fix>3d</fix>
</trkpt>
<trkpt lat="-35.2750203" lon="148.98636">
  <ele>658.43</ele>
  <time>2026-09-01T19:59:59Z</time>
  <course>17.08</course>
  <speed>0.06403124237432849</speed>
  <fix>3d</fix>
</trkpt>
<trkpt lat="-35.2750204" lon="148.9863601">
  <ele>658.53</ele>
  <time>2026-09-01T19:59:59Z</time>
  <course>204.68</course>
  <speed>0.09</speed>
  <fix>3d</fix>
</trkpt>
<trkpt lat="-35.2750204" lon="148.98636">
  <ele>658.43</ele>
  <time>2026-09-01T19:59:59Z</time>
  <course>17.08</course>
  <speed>0.0670820393249937</speed>
  <fix>3d</fix>
</trkpt>
<trkpt lat="-35.2750204" lon="148.9863601">
  <ele>658.53</ele>
  <time>2026-09-01T19:59:59Z</time>
  <course>204.68</course>
  <speed>0.09</speed>
  <fix>3d</fix>
</trkpt>
<trkpt lat="-35.2750205" lon="148.9863599">
  <ele>658.43</ele>
  <time>2026-09-01T19:59:59Z</time>
  <course>17.07</course>
  <speed>0.0670820393249937</speed>
  <fix>3d</fix>
</trkpt>
<trkpt lat="-35.2750206" lon="148.98636">
  <ele>658.53</ele>
  <time>2026-09-01T19:59:59Z</time>
  <course>203.01</course>
  <speed>0.09</speed>
  <fix>3d</fix>
</trkpt>
<trkpt lat="-35.2750206" lon="148.9863599">
  <ele>658.43</ele>
  <time>2026-09-01T19:59:59Z</time>
  <course>17.07</course>
  <speed>0.0670820393249937</speed>
  <fix>3d</fix>
</trkpt>
<trkpt lat="-35.2750206" lon="148.98636">
  <ele>658.53</ele>
  <time>2026-09-01T19:59:59Z</time>
  <course>203.01</course>
  <speed>0.09</speed>
  <fix>3d</fix>
</trkpt>
<trkpt lat="-35.2750206" lon="148.9863599">
  <ele>658.43</ele>
  <time>2026-09-01T19:59:59Z</time>
  <course>17.07</course>
  <speed>0.0670820393249937</speed>
  <fix>3d</fix>
</trkpt>
<trkpt lat="-35.2750208" lon="148.9863599">
  <ele>658.53</ele>
  <time>2026-09-01T19:59:59Z</time>
  <course>201.37</course>
  <speed>0.09</speed>
  <fix>3d</fix>
</trkpt>
<trkpt lat="-35.2750207" lon="148.9863598">
  <ele>658.43</ele>
  <time>2026-09-01T19:59:59Z</time>
  <course>17.06</course>
  <speed>0.05830951894845301</speed>
  <fix>3d</fix>
</trkpt>
<trkpt lat="-35.2750208" lon="148.9863599">
  <ele>658.53</ele>
  <time>2026-09-01T19:59:59Z</time>
  <course>201.37</course>
  <speed>0.09</speed>
  <fix>3d</fix>
</trkpt>
<trkpt lat="-35.2750208" lon="148.9863598">
  <ele>658.43</ele>
  <time>2026-09-01T19:59:59Z</time>
  <course>17.03</course>
  <speed>0.01</speed>
  <fix>3d</fix>
</trkpt>
<trkpt lat="-35.2750209" lon="148.9863598">
  <ele>658.53</ele>
  <time>2026-09-01T19:59:59Z</time>
  <course>199.81</course>
  <speed>0.09</speed>
  <fix>3d</fix>
</trkpt>
<trkpt lat="-35.2750207" lon="148.9863598">
  <ele>658.43</ele>
  <time>2026-09-01T19:59:59Z</time>
  <course>16.96</course>
  <speed>0.1004987562112089</speed>
  <fix>3d</fix>
</trkpt>
<trkpt lat="-35.2750209" lon="148.9863598">
  <ele>658.53</ele>
  <time>2026-09-01T19:59:59Z</time>
  <course>199.81</course>
  <speed>0.09</speed>
  <fix>3d</fix>
</trkpt>
<trkpt lat="-35.2750206" lon="148.9863598">
  <ele>658.43</ele>
  <time>2026-09-01T19:59:59Z</time>
  <course>16.84</course>
  <speed>0.2668332812825267</speed>
  <fix>3d</fix>
</trkpt>
<trkpt lat="-35.275021" lon="148.9863598">
  <ele>658.53</ele>
  <time>2026-09-01T19:59:59Z</time>
  <course>213.49</course>
  <speed>0.0</speed>
  <fix>3d</fix>
</trkpt>
<trkpt lat="-35.2750204" lon="148.9863599">
  <ele>658.43</ele>
  <time>2026-09-01T19:59:59Z</time>
  <course>16.61</course>
  <speed>0.5044799302251776</speed>
  <fix>3d</fix>
</trkpt>
<trkpt lat="-35.275021" lon="148.9863598">
  <ele>658.53</ele>
  <time>2026-09-01T19:59:59Z</time>
  <course>213.49</course>
  <speed>0.0</speed>
  <fix>3d</fix>
</trkpt>
<trkpt lat="-35.2750198" lon="148.98636">
  <ele>658.43</ele>
  <time>2026-09-01T19:59:59Z</time>
  <course>16.33</course>
  <speed>0.7930952023559341</speed>
  <fix>3d</fix>
</trkpt>
<trkpt lat="-35.2750209" lon="148.9863598">
  <ele>658.53</ele>
  <time>2026-09-01T19:59:59Z</time>
  <course>15.81</course>
  <speed>0.27</speed>
  <fix>3d</fix>
</trkpt>
<trkpt lat="-35.275019" lon="148.9863603">
  <ele>658.43</ele>
  <time>2026-09-01T19:59:59Z</time>
  <course>15.96</course>
  <speed>1.1447707194019245</speed>
  <fix>3d</fix>
</trkpt>
<trkpt lat="-35.2750209" lon="148.9863598">
  <ele>658.53</ele>
  <time>2026-09-01T19:59:59Z</time>
  <course>15.81</course>
  <speed>0.27</speed>
  <fix>3d</fix>
</trkpt>
<trkpt lat="-35.2750179" lon="148.9863607">
  <ele>658.43</ele>
  <time>2026-09-01T19:59:59Z</time>
  <course>15.54</course>
  <speed>1.56438486313311</speed>
  <fix>3d</fix>
</trkpt>
<trkpt lat="-35.27502" lon="148.9863601">
  <ele>658.54</ele>
  <time>2026-09-01T19:59:59Z</time>
  <course>15.48</course>
  <speed>0.79</speed>
  <fix>3d</fix>
</trkpt>
<trkpt lat="-35.2750163" lon="148.9863611">
  <ele>658.43</ele>
  <time>2026-09-01T19:59:59Z</time>
  <course>15.21</course>
  <speed>2.04707107839469</speed>
  <fix>3d</fix>
</trkpt>
<trkpt lat="-35.27502" lon="148.9863601">
  <ele>658.54</ele>
  <time>2026-09-01T19:59:59Z</time>
  <course>15.48</course>
  <speed>0.79</speed>
  <fix>3d</fix>
</trkpt>
<trkpt lat="-35.2750144" lon="148.9863617">
  <ele>658.43</ele>
  <time>2026-09-01T19:59:59Z</time>
  <course>14.82</course>
  <speed>2.5881460546112924</speed>
  <fix>3d</fix>
</trkpt>
<trkpt lat="-35.275018" lon="148.9863607">
  <ele>658.54</ele>
  <time>2026-09-01T19:59:59Z</time>
  <course>14.79</course>
  <speed>1.56</speed>
  <fix>3d</fix>
</trkpt>
<trkpt lat="-35.2750119" lon="148.9863624">
  <ele>658.43</ele>
  <time>2026-09-01T19:59:59Z</time>
  <course>14.35</course>
  <speed>3.187804887379402</speed>
  <fix>3d</fix>
</trkpt>
<trkpt lat="-35.275018" lon="148.9863607">
  <ele>658.54</ele>
  <time>2026-09-01T19:59:59Z</time>
  <course>14.79</course>
  <speed>1.56</speed>
  <fix>3d</fix>
</trkpt>
<trkpt lat="-35.2750089" lon="148.9863633">
  <ele>658.44</ele>
  <time>2026-09-01T19:59:59Z</time>
  <course>13.82</course>
  <speed>3.78549864614954</speed>
  <fix>3d</fix>
</trkpt>
<trkpt lat="-35.2750144" lon="148.9863619">
  <ele>658.54</ele>
  <time>2026-09-01T19:59:59Z</time>
  <course>13.89</course>
  <speed>2.57</speed>
  <fix>3d</fix>
</trkpt>
<trkpt lat="-35.2750053" lon="148.9863642">
  <ele>658.45</ele>
  <time>2026-09-01T19:59:59Z</time>
  <course>13.37</course>
  <speed>4.408718634705553</speed>
  <fix>3d</fix>
</trkpt>
<trkpt lat="-35.2750144" lon="148.9863619">
  <ele>658.54</ele>
  <time>2026-09-01T19:59:59Z</time>
  <course>13.89</course>
  <speed>2.57</speed>
  <fix>3d</fix>
</trkpt>
<trkpt lat="-35.2750012" lon="148.9863652">
  <ele>658.45</ele>
  <time>2026-09-01T19:59:59Z</time>
  <course>12.84</course>
  <speed>5.020697162745429</speed>
  <fix>3d</fix>
</trkpt>
<trkpt lat="-35.2750089" lon="148.9863634">
  <ele>658.55</ele>
  <time>2026-09-01T19:59:59Z</time>
  <course>12.8</course>
  <speed>3.75</speed>
  <fix>3d</fix>
</trkpt>
<trkpt lat="-35.2749966" lon="148.9863663">
  <ele>658.46</ele>
  <time>2026-09-01T19:59:59Z</time>
  <course>12.06</course>
  <speed>5.6295292876047816</speed>
  <fix>3d</fix>
</trkpt>
<trkpt lat="-35.2750089" lon="148.9863634">
  <ele>658.55</ele>
  <time>2026-09-01T19:59:59Z</time>
  <course>12.8</course>
  <speed>3.75</speed>
  <fix>3d</fix>
</trkpt>
<trkpt lat="-35.2749914" lon="148.9863674">
  <ele>658.47</ele>
  <time>2026-09-01T19:59:59Z</time>
  <course>11.18</course>
  <speed>6.234011549556193</speed>
  <fix>3d</fix>
</trkpt>
<trkpt lat="-35.2750012" lon="148.9863654">
  <ele>658.56</ele>
  <time>2026-09-01T19:59:59Z</time>
  <course>11.47</course>
  <speed>4.97</speed>
  <fix>3d</fix>
</trkpt>
<trkpt lat="-35.2749857" lon="148.9863686">
  <ele>658.47</ele>
  <time>2026-09-01T19:59:59Z</time>
  <course>10.25</course>
  <speed>6.835034747534207</speed>
  <fix>3d</fix>
</trkpt>
<trkpt lat="-35.2750012" lon="148.9863654">
  <ele>658.56</ele>
  <time>2026-09-01T19:59:59Z</time>
  <course>11.47</course>
  <speed>4.97</speed>
  <fix>3d</fix>
</trkpt>
<trkpt lat="-35.2749795" lon="148.9863697">
  <ele>658.48</ele>
  <time>2026-09-01T19:59:59Z</time>
  <course>9.24</course>
  <speed>7.443473651461392</speed>
  <fix>3d</fix>
</trkpt>
<trkpt lat="-35.2749914" lon="148.9863677">
  <ele>658.58</ele>
  <time>2026-09-01T19:59:59Z</time>
  <course>9.88</course>
  <speed>6.19</speed>
  <fix>3d</fix>
</trkpt>
<trkpt lat="-35.2749727" lon="148.9863707">
  <ele>658.49</ele>
  <time>2026-09-01T19:59:59Z</time>
  <course>8.12</course>
  <speed>8.04052858958912</speed>
  <fix>3d</fix>
</trkpt>
<trkpt lat="-35.2749914" lon="148.9863677">
  <ele>658.58</ele>
  <time>2026-09-01T19:59:59Z</time>
  <course>9.88</course>
  <speed>6.19</speed>
  <fix>3d</fix>
</trkpt>
<trkpt lat="-35.2749653" lon="148.9863717">
  <ele>658.5</ele>
  <time>2026-09-01T19:59:59Z</time>
  <course>6.91</course>
  <speed>8.646166780718493</speed>
  <fix>3d</fix>
</trkpt>
<trkpt lat="-35.2749793" lon="148.98637">
  <ele>658.6</ele>
  <time>2026-09-01T19:59:59Z</time>
  <course>7.94</course>
  <speed>7.41</speed>
  <fix>3d</fix>
</trkpt>
<trkpt lat="-35.2749574" lon="148.9863725">
  <ele>658.51</ele>
  <time>2026-09-01T19:59:59Z</time>
  <course>5.58</course>
  <speed>9.232209919623795</speed>
  <fix>3d</fix>
</trkpt>
<trkpt lat="-35.2749793" lon="148.98637">
  <ele>658.6</ele>
  <time>2026-09-01T19:59:59Z</time>
  <course>7.94</course>
  <speed>7.41</speed>
  <fix>3d</fix>
</trkpt>
<trkpt lat="-35.274949" lon="148.9863732">
  <ele>658.52</ele>
  <time>2026-09-01T19:59:59Z</time>
  <course>4.06</course>
  <speed>9.820315677207123</speed>
  <fix>3d</fix>
</trkpt>
<trkpt lat="-35.2749649" lon="148.9863722">
  <ele>658.62</ele>
  <time>2026-09-01T19:59:59Z</time>
  <course>5.66</course>
  <speed>8.62</speed>
  <fix>3d</fix>
</trkpt>
<trkpt lat="-35.27494" lon="148.9863736">
  <ele>658.53</ele>
  <time>2026-09-01T19:59:59Z</time>
  <course>2.58</course>
  <speed>10.392328901646637</speed>
  <fix>3d</fix>
</trkpt>
<trkpt lat="-35.2749649" lon="148.9863722">
  <ele>658.62</ele>
  <time>2026-09-01T19:59:59Z</time>
  <course>5.66</course>
  <speed>8.62</speed>
  <fix>3d</fix>
</trkpt>
<trkpt lat="-35.2749305" lon="148.9863737">
  <ele>658.54</ele>
  <time>2026-09-01T19:59:59Z</time>
  <course>1.01</course>
  <speed>10.950073059117003</speed>
  <fix>3d</fix>
</trkpt>
<trkpt lat="-35.2749484" lon="148.9863737">
  <ele>658.64</ele>
  <time>2026-09-01T19:59:59Z</time>
  <course>3.05</course>
  <speed>9.8</speed>
  <fix>3d</fix>
</trkpt>
<trkpt lat="-35.2749205" lon="148.9863736">
  <ele>658.55</ele>
  <time>2026-09-01T19:59:59Z</time>
  <course>359.42</course>
  <speed>11.495029360554065</speed>
  <fix>3d</fix>
</trkpt>
<trkpt lat="-35.2749484" lon="148.9863737">
  <ele>658.64</ele>
  <time>2026-09-01T19:59:59Z</time>
  <course>3.05</course>
  <speed>9.8</speed>
  <fix>3d</fix>
</trkpt>
<trkpt lat="-35.2749101" lon="148.9863731">
  <ele>658.57</ele>
  <time>2026-09-01T19:59:59Z</time>
  <course>357.97</course>
  <speed>12.019251224597978</speed>
  <fix>3d</fix>
</trkpt>
<trkpt lat="-35.2749298" lon="148.9863743">
  <ele>658.66</ele>
  <time>2026-09-01T19:59:59Z</time>
  <course>0.15</course>
  <speed>10.94</speed>
  <fix>3d</fix>
</trkpt>
<trkpt lat="-35.2748992" lon="148.9863722">
  <ele>658.6</ele>
  <time>2026-09-01T19:59:59Z</time>
  <course>356.5</course>
  <speed>12.533223847039517</speed>
  <fix>3d</fix>
</trkpt>
<trkpt lat="-35.2749298" lon="148.9863743">
  <ele>658.66</ele>
  <time>2026-09-01T19:59:59Z</time>
  <course>0.15</course>
  <speed>10.94</speed>
  <fix>3d</fix>
</trkpt>
<trkpt lat="-35.2748879" lon="148.986371">
  <ele>658.63</ele>
  <time>2026-09-01T19:59:59Z</time>
  <course>354.95</course>
  <speed>13.037561121620868</speed>
  <fix>3d</fix>
</trkpt>
<trkpt lat="-35.2749091" lon="148.9863738">
  <ele>658.69</ele>
  <time>2026-09-01T19:59:59Z</time>
  <course>357.11</course>
  <speed>12.03</speed>
  <fix>3d</fix>
</trkpt>
<trkpt lat="-35.2748762" lon="148.9863694">
  <ele>658.67</ele>
  <time>2026-09-01T19:59:59Z</time>
  <course>353.42</course>
  <speed>13.524381686421009</speed>
  <fix>3d</fix>
</trkpt>
<trkpt lat="-35.2749091" lon="148.9863738">
  <ele>658.69</ele>
  <time>2026-09-01T19:59:59Z</time>
  <course>357.11</course>
  <speed>12.03</speed>
  <fix>3d</fix>
</trkpt>
<trkpt lat="-35.274864" lon="148.9863673">
  <ele>658.71</ele>
  <time>2026-09-01T19:59:59Z</time>
  <course>351.84</course>
  <speed>14.001960577004922</speed>
  <fix>3d</fix>
</trkpt>
<trkpt lat="-35.2748866" lon="148.9863717">
  <ele>658.75</ele>
  <time>2026-09-01T19:59:59Z</time>
  <course>354.04</course>
  <speed>13.06</speed>
  <fix>3d</fix>
</trkpt>
<trkpt lat="-35.2748515" lon="148.9863647">
  <ele>658.75</ele>
  <time>2026-09-01T19:59:59Z</time>
  <course>350.37</course>
  <speed>14.472197483450811</speed>
  <fix>3d</fix>
</trkpt>
<trkpt lat="-35.2748866" lon="148.9863717">
  <ele>658.75</ele>
  <time>2026-09-01T19:59:59Z</time>
  <course>354.04</course>
  <speed>13.06</speed>
  <fix>3d</fix>
</trkpt>
<trkpt lat="-35.2748385" lon="148.9863616">
  <ele>658.79</ele>
  <time>2026-09-01T19:59:59Z</time>
  <course>348.91</course>
  <speed>14.933840765188304</speed>
  <fix>3d</fix>
</trkpt>
<trkpt lat="-35.2748625" lon="148.9863677">
  <ele>658.81</ele>
  <time>2026-09-01T19:59:59Z</time>
  <course>351.03</course>
  <speed>14.05</speed>
  <fix>3d</fix>
</trkpt>
<trkpt lat="-35.2748253" lon="148.986358">
  <ele>658.83</ele>
  <time>2026-09-01T19:59:59Z</time>
  <course>347.6</course>
  <speed>15.37499918699185</speed>
  <fix>3d</fix>
</trkpt>
<trkpt lat="-35.2748625" lon="148.9863677">
  <ele>658.81</ele>
  <time>2026-09-01T19:59:59Z</time>
  <course>351.03</course>
  <speed>14.05</speed>
  <fix>3d</fix>
</trkpt>
<trkpt lat="-35.2748118" lon="148.9863539">
  <ele>658.87</ele>
  <time>2026-09-01T19:59:59Z</time>
  <course>346.39</course>
  <speed>15.814730475098209</speed>
  <fix>3d</fix>
</trkpt>
<trkpt lat="-35.2748368" lon="148.9863619">
  <ele>658.89</ele>
  <time>2026-09-01T19:59:59Z</time>
  <course>348.13</course>
  <speed>14.98</speed>
  <fix>3d</fix>
</trkpt>
<trkpt lat="-35.2747974" lon="148.9863492">
  <ele>658.92</ele>
  <time>2026-09-01T19:59:59Z</time>
  <course>345.15</course>
  <speed>16.25252288107911</speed>
  <fix>3d</fix>
</trkpt>
<trkpt lat="-35.2748368" lon="148.9863619">
  <ele>658.89</ele>
  <time>2026-09-01T19:59:59Z</time>
  <course>348.13</course>
  <speed>14.98</speed>
  <fix>3d</fix>
</trkpt>
<trkpt lat="-35.2747834" lon="148.9863442">
  <ele>658.95</ele>
  <time>2026-09-01T19:59:59Z</time>
  <course>343.95</course>
  <speed>16.63063438357058</speed>
  <fix>3d</fix>
</trkpt>
<trkpt lat="-35.2748098" lon="148.9863542">
  <ele>658.97</ele>
  <time>2026-09-01T19:59:59Z</time>
  <course>345.45</course>
  <speed>15.87</speed>
  <fix>3d</fix>
</trkpt>
<trkpt lat="-35.2747691" lon="148.9863387">
  <ele>658.99</ele>
  <time>2026-09-01T19:59:59Z</time>
  <course>342.76</course>
  <speed>16.968800782612778</speed>
  <fix>3d</fix>
</trkpt>
<trkpt lat="-35.2748098" lon="148.9863542">
  <ele>658.97</ele>
  <time>2026-09-01T19:59:59Z</time>
  <course>345.45</course>
  <speed>15.87</speed>
  <fix>3d</fix>
</trkpt>
<trkpt lat="-35.2747546" lon="148.9863326">
  <ele>659.02</ele>
  <time>2026-09-01T19:59:59Z</time>
  <course>341.6</course>
  <speed>17.27695575036297</speed>
  <fix>3d</fix>
</trkpt>
<trkpt lat="-35.2747817" lon="148.9863444">
  <ele>659.04</ele>
  <time>2026-09-01T19:59:59Z</time>
  <course>342.92</course>
  <speed>16.67</speed>
  <fix>3d</fix>
</trkpt>
<trkpt lat="-35.2747399" lon="148.9863261">
  <ele>659.06</ele>
  <time>2026-09-01T19:59:59Z</time>
  <course>340.47</course>
  <speed>17.536846922979056</speed>
  <fix>3d</fix>
</trkpt>
<trkpt lat="-35.2747817" lon="148.9863444">
  <ele>659.04</ele>
  <time>2026-09-01T19:59:59Z</time>
  <course>342.92</course>
  <speed>16.67</speed>
  <fix>3d</fix>
</trkpt>
<trkpt lat="-35.2747255" lon="148.9863192">
  <ele>659.1</ele>
  <time>2026-09-01T19:59:59Z</time>
  <course>339.34</course>
  <speed>17.760405400778442</speed>
  <fix>3d</fix>
</trkpt>
<trkpt lat="-35.2747527" lon="148.9863327">
  <ele>659.11</ele>
  <time>2026-09-01T19:59:59Z</time>
  <course>340.41</course>
  <speed>17.32</speed>
  <fix>3d</fix>
</trkpt>
<trkpt lat="-35.2747107" lon="148.9863116">
  <ele>659.15</ele>
  <time>2026-09-01T19:59:59Z</time>
  <course>338.08</course>
  <speed>17.968194121836508</speed>
  <fix>3d</fix>
</trkpt>
<trkpt lat="-35.2747527" lon="148.9863327">
  <ele>659.11</ele>
  <time>2026-09-01T19:59:59Z</time>
  <course>340.41</course>
  <speed>17.32</speed>
  <fix>3d</fix>
</trkpt>
<trkpt lat="-35.2746959" lon="148.9863036">
  <ele>659.2</ele>
  <time>2026-09-01T19:59:59Z</time>
  <course>336.79</course>
  <speed>18.166177363441104</speed>
  <fix>3d</fix>
</trkpt>
<trkpt lat="-35.2747231" lon="148.9863189">
  <ele>659.19</ele>
  <time>2026-09-01T19:59:59Z</time>
  <course>337.9</course>
  <speed>17.83</speed>
  <fix>3d</fix>
</trkpt>
<trkpt lat="-35.274681" lon="148.9862951">
  <ele>659.24</ele>
  <time>2026-09-01T19:59:59Z</time>
  <course>335.48</course>
  <speed>18.367977569672718</speed>
  <fix>3d</fix>
</trkpt>
<trkpt lat="-35.2747231" lon="148.9863189">
  <ele>659.19</ele>
  <time>2026-09-01T19:59:59Z</time>
  <course>337.9</course>
  <speed>17.83</speed>
  <fix>3d</fix>
</trkpt>
<trkpt lat="-35.2746662" lon="148.9862862">
  <ele>659.29</ele>
  <time>2026-09-01T19:59:59Z</time>
  <course>334.09</course>
  <speed>18.556405902005917</speed>
  <fix>3d</fix>
</trkpt>
<trkpt lat="-35.2746934" lon="148.9863031">
  <ele>659.28</ele>
  <time>2026-09-01T19:59:59Z</time>
  <course>335.38</course>
  <speed>18.25</speed>
  <fix>3d</fix>
</trkpt>
<trkpt lat="-35.2746513" lon="148.9862766">
  <ele>659.33</ele>
  <time>2026-09-01T19:59:59Z</time>
  <course>332.6</course>
  <speed>18.759840084606264</speed>
  <fix>3d</fix>
</trkpt>
<trkpt lat="-35.2746934" lon="148.9863031">
  <ele>659.28</ele>
  <time>2026-09-01T19:59:59Z</time>
  <course>335.38</course>
  <speed>18.25</speed>
  <fix>3d</fix>
</trkpt>
<trkpt lat="-35.2746365" lon="148.9862665">
  <ele>659.37</ele>
  <time>2026-09-01T19:59:59Z</time>
  <course>331.06</course>
  <speed>18.9492005108395</speed>
  <fix>3d</fix>
</trkpt>
<trkpt lat="-35.2746635" lon="148.9862853">
  <ele>659.37</ele>
  <time>2026-09-01T19:59:59Z</time>
  <course>332.76</course>
  <speed>18.64</speed>
  <fix>3d</fix>
</trkpt>
<trkpt lat="-35.2746218" lon="148.9862558">
  <ele>659.41</ele>
  <time>2026-09-01T19:59:59Z</time>
  <course>329.43</course>
  <speed>19.140705316158023</speed>
  <fix>3d</fix>
</trkpt>
<trkpt lat="-35.2746635" lon="148.9862853">
  <ele>659.37</ele>
  <time>2026-09-01T19:59:59Z</time>
  <course>332.76</course>
  <speed>18.64</speed>
  <fix>3d</fix>
</trkpt>
<trkpt lat="-35.2746073" lon="148.9862446">
  <ele>659.43</ele>
  <time>2026-09-01T20:00:00Z</time>
  <course>327.75</course>
  <speed>19.328913575263353</speed>
  <fix>3d</fix>
</trkpt>
<trkpt lat="-35.2746339" lon="148.9862655">
  <ele>659.45</ele>
  <time>2026-09-01T20:00:00Z</time>
  <course>329.9</course>
  <speed>19.03</speed>
  <fix>3d</fix>
</trkpt>
<trkpt lat="-35.2745928" lon="148.9862327">
  <ele>659.45</ele>
  <time>2026-09-01T20:00:00Z</time>
  <course>325.93</course>
  <speed>19.51741017655775</speed>
  <fix>3d</fix>
</trkpt>
<trkpt lat="-35.2746339" lon="148.9862655">
  <ele>659.45</ele>
  <time>2026-09-01T20:00:00Z</time>
  <course>329.9</course>
  <speed>19.03</speed>
  <fix>3d</fix>
</trkpt>
<trkpt lat="-35.2745785" lon="148.98622">
  <ele>659.47</ele>
  <time>2026-09-01T20:00:00Z</time>
  <course>324.01</course>
  <speed>19.70203289003447</speed>
  <fix>3d</fix>
</trkpt>
<trkpt lat="-35.2746045" lon="148.9862433">
  <ele>659.51</ele>
  <time>2026-09-01T20:00:00Z</time>
  <course>326.67</course>
  <speed>19.4</speed>
  <fix>3d</fix>
</trkpt>
<trkpt lat="-35.2745644" lon="148.9862067">
  <ele>659.47</ele>
  <time>2026-09-01T20:00:00Z</time>
  <course>322.03</course>
  <speed>19.90154014140614</speed>
  <fix>3d</fix>
</trkpt>
<trkpt lat="-35.2746045" lon="148.9862433">
  <ele>659.51</ele>
  <time>2026-09-01T20:00:00Z</time>
  <course>326.67</course>
  <speed>19.4</speed>
  <fix>3d</fix>
</trkpt>
<trkpt lat="-35.2745505" lon="148.9861926">
  <ele>659.47</ele>
  <time>2026-09-01T20:00:00Z</time>
  <course>320.04</course>
  <speed>20.086303791389795</speed>
  <fix>3d</fix>
</trkpt>
<trkpt lat="-35.2745757" lon="148.9862184">
  <ele>659.54</ele>
  <time>2026-09-01T20:00:00Z</time>
  <course>323.0</course>
  <speed>19.77</speed>
  <fix>3d</fix>
</trkpt>
<trkpt lat="-35.2745369" lon="148.9861776">
  <ele>659.46</ele>
  <time>2026-09-01T20:00:00Z</time>
  <course>317.94</course>
  <speed>20.274802095211683</speed>
  <fix>3d</fix>
</trkpt>
<trkpt lat="-35.2745757" lon="148.9862184">
  <ele>659.54</ele>
  <time>2026-09-01T20:00:00Z</time>
  <course>323.0</course>
  <speed>19.77</speed>
  <fix>3d</fix>
</trkpt>
<trkpt lat="-35.2745238" lon="148.986162">
  <ele>659.44</ele>
  <time>2026-09-01T20:00:00Z</time>
  <course>315.78</course>
  <speed>20.464496084682857</speed>
  <fix>3d</fix>
</trkpt>
<trkpt lat="-35.2745478" lon="148.9861907">
  <ele>659.54</ele>
  <time>2026-09-01T20:00:00Z</time>
  <course>318.91</course>
  <speed>20.14</speed>
  <fix>3d</fix>
</trkpt>
<trkpt lat="-35.274511" lon="148.9861456">
  <ele>659.41</ele>
  <time>2026-09-01T20:00:00Z</time>
  <course>313.53</course>
  <speed>20.644360004611432</speed>
  <fix>3d</fix>
</trkpt>
<trkpt lat="-35.2745478" lon="148.9861907">
  <ele>659.54</ele>
  <time>2026-09-01T20:00:00Z</time>
  <course>318.91</course>
  <speed>20.14</speed>
  <fix>3d</fix>
</trkpt>
<trkpt lat="-35.2744983" lon="148.9861278">
  <ele>659.38</ele>
  <time>2026-09-01T20:00:00Z</time>
  <course>311.21</course>
  <speed>20.840568610285086</speed>
  <fix>3d</fix>
</trkpt>
<trkpt lat="-35.2745212" lon="148.9861601">
  <ele>659.52</ele>
  <time>2026-09-01T20:00:00Z</time>
  <course>314.48</course>
  <speed>20.5</speed>
  <fix>3d</fix>
</trkpt>
<trkpt lat="-35.2744866" lon="148.98611">
  <ele>659.34</ele>
  <time>2026-09-01T20:00:00Z</time>
  <course>308.91</course>
  <speed>21.030858280155854</speed>
  <fix>3d</fix>
</trkpt>
<trkpt lat="-35.2745212" lon="148.9861601">
  <ele>659.52</ele>
  <time>2026-09-01T20:00:00Z</time>
  <course>314.48</course>
  <speed>20.5</speed>
  <fix>3d</fix>
</trkpt>
<trkpt lat="-35.2744753" lon="148.9860913">
  <ele>659.29</ele>
  <time>2026-09-01T20:00:00Z</time>
  <course>306.52</course>
  <speed>21.21728776257701</speed>
  <fix>3d</fix>
</trkpt>
<trkpt lat="-35.2744962" lon="148.9861264">
  <ele>659.47</ele>
  <time>2026-09-01T20:00:00Z</time>
  <course>309.83</course>
  <speed>20.87</speed>
  <fix>3d</fix>
</trkpt>
<trkpt lat="-35.2744646" lon="148.9860718">
  <ele>659.24</ele>
  <time>2026-09-01T20:00:00Z</time>
  <course>304.16</course>
  <speed>21.412914327573443</speed>
  <fix>3d</fix>
</trkpt>
<trkpt lat="-35.2744962" lon="148.9861264">
  <ele>659.47</ele>
  <time>2026-09-01T20:00:00Z</time>
  <course>309.83</course>
  <speed>20.87</speed>
  <fix>3d</fix>
</trkpt>
<trkpt lat="-35.2744544" lon="148.9860517">
  <ele>659.17</ele>
  <time>2026-09-01T20:00:00Z</time>
  <course>301.75</course>
  <speed>21.5923898630976</speed>
  <fix>3d</fix>
</trkpt>
<trkpt lat="-35.2744733" lon="148.9860896">
  <ele>659.38</ele>
  <time>2026-09-01T20:00:00Z</time>
  <course>305.03</course>
  <speed>21.24</speed>
  <fix>3d</fix>
</trkpt>
<trkpt lat="-35.2744449" lon="148.9860306">
  <ele>659.1</ele>
  <time>2026-09-01T20:00:00Z</time>
  <course>299.25</course>
  <speed>21.783020910791965</speed>
  <fix>3d</fix>
</trkpt>
<trkpt lat="-35.2744733" lon="148.9860896">
  <ele>659.38</ele>
  <time>2026-09-01T20:00:00Z</time>
  <course>305.03</course>
  <speed>21.24</speed>
  <fix>3d</fix>
</trkpt>
<trkpt lat="-35.274436" lon="148.9860091">
  <ele>659.01</ele>
  <time>2026-09-01T20:00:00Z</time>
  <course>296.74</course>
  <speed>21.969547105026994</speed>
  <fix>3d</fix>
</trkpt>
<trkpt lat="-35.2744526" lon="148.9860499">
  <ele>659.26</ele>
  <time>2026-09-01T20:00:00Z</time>
  <course>300.14</course>
  <speed>21.6</speed>
  <fix>3d</fix>
</trkpt>
<trkpt lat="-35.2744279" lon="148.985987">
  <ele>658.91</ele>
  <time>2026-09-01T20:00:00Z</time>
  <course>294.25</course>
  <speed>22.159235095101998</speed>
  <fix>3d</fix>
</trkpt>
<trkpt lat="-35.2744526" lon="148.9860499">
  <ele>659.26</ele>
  <time>2026-09-01T20:00:00Z</time>
  <course>300.14</course>
  <speed>21.6</speed>
  <fix>3d</fix>
</trkpt>
<trkpt lat="-35.2744206" lon="148.9859642">
  <ele>658.8</ele>
  <time>2026-09-01T20:00:00Z</time>
  <course>291.77</course>
  <speed>22.347460705860968</speed>
  <fix>3d</fix>
</trkpt>
<trkpt lat="-35.2744345" lon="148.9860075">
  <ele>659.1</ele>
  <time>2026-09-01T20:00:00Z</time>
  <course>295.14</course>
  <speed>21.97</speed>
  <fix>3d</fix>
</trkpt>
<trkpt lat="-35.274414" lon="148.9859409">
  <ele>658.69</ele>
  <time>2026-09-01T20:00:00Z</time>
  <course>289.33</course>
  <speed>22.537173735852505</speed>
  <fix>3d</fix>
</trkpt>
<trkpt lat="-35.2744345" lon="148.9860075">
  <ele>659.1</ele>
  <time>2026-09-01T20:00:00Z</time>
  <course>295.14</course>
  <speed>21.97</speed>
  <fix>3d</fix>
</trkpt>
<trkpt lat="-35.2744082" lon="148.9859171">
  <ele>658.56</ele>
  <time>2026-09-01T20:00:00Z</time>
  <course>286.8</course>
  <speed>22.714268643299967</speed>
  <fix>3d</fix>
</trkpt>
<trkpt lat="-35.2744191" lon="148.9859625">
  <ele>658.91</ele>
  <time>2026-09-01T20:00:00Z</time>
  <course>290.06</course>
  <speed>22.34</speed>
  <fix>3d</fix>
</trkpt>
<trkpt lat="-35.2744033" lon="148.9858927">
  <ele>658.43</ele>
  <time>2026-09-01T20:00:00Z</time>
  <course>284.2</course>
  <speed>22.897041293582014</speed>
  <fix>3d</fix>
</trkpt>
<trkpt lat="-35.2744191" lon="148.9859625">
  <ele>658.91</ele>
  <time>2026-09-01T20:00:00Z</time>
  <course>290.06</course>
  <speed>22.34</speed>
  <fix>3d</fix>
</trkpt>
<trkpt lat="-35.2743993" lon="148.9858686">
  <ele>658.29</ele>
  <time>2026-09-01T20:00:00Z</time>
  <course>281.6</course>
  <speed>23.074093698344903</speed>
  <fix>3d</fix>
</trkpt>
<trkpt lat="-35.274407" lon="148.9859152">
  <ele>658.67</ele>
  <time>2026-09-01T20:00:00Z</time>
  <course>284.96</course>
  <speed>22.7</speed>
  <fix>3d</fix>
</trkpt>
<trkpt lat="-35.2743962" lon="148.9858437">
  <ele>658.13</ele>
  <time>2026-09-01T20:00:00Z</time>
  <course>278.95</course>
  <speed>23.24919783562435</speed>
  <fix>3d</fix>
</trkpt>
<trkpt lat="-35.274407" lon="148.9859152">
  <ele>658.67</ele>
  <time>2026-09-01T20:00:00Z</time>
  <course>284.96</course>
  <speed>22.7</speed>
  <fix>3d</fix>
</trkpt>
<trkpt lat="-35.2743939" lon="148.9858184">
  <ele>657.97</ele>
  <time>2026-09-01T20:00:00Z</time>
  <course>276.31</course>
  <speed>23.41720734844358</speed>
  <fix>3d</fix>
</trkpt>
<trkpt lat="-35.2743982" lon="148.9858661">
  <ele>658.39</ele>
  <time>2026-09-01T20:00:00Z</time>
  <course>279.79</course>
  <speed>23.06</speed>
  <fix>3d</fix>
</trkpt>
<trkpt lat="-35.2743926" lon="148.9857927">
  <ele>657.8</ele>
  <time>2026-09-01T20:00:00Z</time>
  <course>273.63</course>
  <speed>23.583914009341196</speed>
  <fix>3d</fix>
</trkpt>
<trkpt lat="-35.2743982" lon="148.9858661">
  <ele>658.39</ele>
  <time>2026-09-01T20:00:00Z</time>
  <course>279.79</course>
  <speed>23.06</speed>
  <fix>3d</fix>
</trkpt>
<trkpt lat="-35.2743923" lon="148.9857669">
  <ele>657.63</ele>
  <time>2026-09-01T20:00:00Z</time>
  <course>270.87</course>
  <speed>23.741771206041054</speed>
  <fix>3d</fix>
</trkpt>
<trkpt lat="-35.274393" lon="148.9858153">
  <ele>658.07</ele>
  <time>2026-09-01T20:00:00Z</time>
  <course>274.5</course>
  <speed>23.41</speed>
  <fix>3d</fix>
</trkpt>
<trkpt lat="-35.274393" lon="148.9857407">
  <ele>657.45</ele>
  <time>2026-09-01T20:00:00Z</time>
  <course>268.09</course>
  <speed>23.90341398210724</speed>
  <fix>3d</fix>
</trkpt>
<trkpt lat="-35.274393" lon="148.9858153">
  <ele>658.07</ele>
  <time>2026-09-01T20:00:00Z</time>
  <course>274.5</course>
  <speed>23.41</speed>
  <fix>3d</fix>
</trkpt>
<trkpt lat="-35.2743948" lon="148.9857146">
  <ele>657.26</ele>
  <time>2026-09-01T20:00:00Z</time>
  <course>265.31</course>
  <speed>24.061972072130747</speed>
  <fix>3d</fix>
</trkpt>
<trkpt lat="-35.2743916" lon="148.9857634">
  <ele>657.72</ele>
  <time>2026-09-01T20:00:00Z</time>
  <course>269.08</course>
  <speed>23.76</speed>
  <fix>3d</fix>
</trkpt>
<trkpt lat="-35.2743975" lon="148.9856885">
  <ele>657.07</ele>
  <time>2026-09-01T20:00:00Z</time>
  <course>262.53</course>
  <speed>24.228268613336777</speed>
  <fix>3d</fix>
</trkpt>
<trkpt lat="-35.2743916" lon="148.9857634">
  <ele>657.72</ele>
  <time>2026-09-01T20:00:00Z</time>
  <course>269.08</course>
  <speed>23.76</speed>
  <fix>3d</fix>
</trkpt>
<trkpt lat="-35.2744014" lon="148.9856615">
  <ele>656.86</ele>
  <time>2026-09-01T20:00:00Z</time>
  <course>259.67</course>
  <speed>24.38237068047322</speed>
  <fix>3d</fix>
</trkpt>
<trkpt lat="-35.2743944" lon="148.9857107">
  <ele>657.33</ele>
  <time>2026-09-01T20:00:00Z</time>
  <course>263.56</course>
  <speed>24.1</speed>
  <fix>3d</fix>
</trkpt>
<trkpt lat="-35.2744064" lon="148.9856354">
  <ele>656.66</ele>
  <time>2026-09-01T20:00:00Z</time>
  <course>256.86</course>
  <speed>24.534176163058746</speed>
  <fix>3d</fix>
</trkpt>
<trkpt lat="-35.2743944" lon="148.9857107">
  <ele>657.33</ele>
  <time>2026-09-01T20:00:00Z</time>
  <course>263.56</course>
  <speed>24.1</speed>
  <fix>3d</fix>
</trkpt>
<trkpt lat="-35.2744124" lon="148.9856095">
  <ele>656.44</ele>
  <time>2026-09-01T20:00:00Z</time>
  <course>254.09</course>
  <speed>24.703815494777317</speed>
  <fix>3d</fix>
</trkpt>
<trkpt lat="-35.2744014" lon="148.9856581">
  <ele>656.93</ele>
  <time>2026-09-01T20:00:00Z</time>
  <course>257.96</course>
  <speed>24.43</speed>
  <fix>3d</fix>
</trkpt>
<trkpt lat="-35.2744196" lon="148.9855837">
  <ele>656.23</ele>
  <time>2026-09-01T20:00:00Z</time>
  <course>251.27</course>
  <speed>24.86319770262868</speed>
  <fix>3d</fix>
</trkpt>
<trkpt lat="-35.2744014" lon="148.9856581">
  <ele>656.93</ele>
  <time>2026-09-01T20:00:00Z</time>
  <course>257.96</course>
  <speed>24.43</speed>
  <fix>3d</fix>
</trkpt>
<trkpt lat="-35.2744279" lon="148.985558">
  <ele>656.0</ele>
  <time>2026-09-01T20:00:00Z</time>
  <course>248.4</course>
  <speed>25.02438011220258</speed>
  <fix>3d</fix>
</trkpt>
<trkpt lat="-35.2744127" lon="148.9856057">
  <ele>656.51</ele>
  <time>2026-09-01T20:00:00Z</time>
  <course>252.3</course>
  <speed>24.75</speed>
  <fix>3d</fix>
</trkpt>
<trkpt lat="-35.2744373" lon="148.9855328">
  <ele>655.78</ele>
  <time>2026-09-01T20:00:00Z</time>
  <course>245.46</course>
  <speed>25.183512463514695</speed>
  <fix>3d</fix>
</trkpt>
<trkpt lat="-35.2744127" lon="148.9856057">
  <ele>656.51</ele>
  <time>2026-09-01T20:00:00Z</time>
  <course>252.3</course>
  <speed>24.75</speed>
  <fix>3d</fix>
</trkpt>
<trkpt lat="-35.2744479" lon="148.9855077">
  <ele>655.54</ele>
  <time>2026-09-01T20:00:00Z</time>
  <course>242.57</course>
  <speed>25.348629154256056</speed>
  <fix>3d</fix>
</trkpt>
<trkpt lat="-35.2744284" lon="148.9855544">
  <ele>656.07</ele>
  <time>2026-09-01T20:00:00Z</time>
  <course>246.6</course>
  <speed>25.07</speed>
  <fix>3d</fix>
</trkpt>
<trkpt lat="-35.2744594" lon="148.9854835">
  <ele>655.31</ele>
  <time>2026-09-01T20:00:00Z</time>
  <course>239.7</course>
  <speed>25.498301904244528</speed>
  <fix>3d</fix>
</trkpt>
<trkpt lat="-35.2744284" lon="148.9855544">
  <ele>656.07</ele>
  <time>2026-09-01T20:00:00Z</time>
  <course>246.6</course>
  <speed>25.07</speed>
  <fix>3d</fix>
</trkpt>
<trkpt lat="-35.2744721" lon="148.9854598">
  <ele>655.07</ele>
  <time>2026-09-01T20:00:00Z</time>
  <course>236.88</course>
  <speed>25.642942498863114</speed>
  <fix>3d</fix>
</trkpt>
<trkpt lat="-35.2744485" lon="148.9855048">
  <ele>655.62</ele>
  <time>2026-09-01T20:00:00Z</time>
  <course>240.84</course>
  <speed>25.37</speed>
  <fix>3d</fix>
</trkpt>
<trkpt lat="-35.2744857" lon="148.9854368">
  <ele>654.83</ele>
  <time>2026-09-01T20:00:00Z</time>
  <course>234.02</course>
  <speed>25.786541063120502</speed>
  <fix>3d</fix>
</trkpt>
<trkpt lat="-35.2744485" lon="148.9855048">
  <ele>655.62</ele>
  <time>2026-09-01T20:00:00Z</time>
  <course>240.84</course>
  <speed>25.37</speed>
  <fix>3d</fix>
</trkpt>
<trkpt lat="-35.2745004" lon="148.9854146">
  <ele>654.6</ele>
  <time>2026-09-01T20:00:00Z</time>
  <course>231.18</course>
  <speed>25.923203891494587</speed>
  <fix>3d</fix>
</trkpt>
<trkpt lat="-35.2744728" lon="148.9854572">
  <ele>655.15</ele>
  <time>2026-09-01T20:00:00Z</time>
  <course>235.05</course>
  <speed>25.66</speed>
  <fix>3d</fix>
</trkpt>
<trkpt lat="-35.274516" lon="148.9853932">
  <ele>654.36</ele>
  <time>2026-09-01T20:00:00Z</time>
  <course>228.36</course>
  <speed>26.0601918642208</speed>
  <fix>3d</fix>
</trkpt>
<trkpt lat="-35.2744728" lon="148.9854572">
  <ele>655.15</ele>
  <time>2026-09-01T20:00:00Z</time>
  <course>235.05</course>
  <speed>25.66</speed>
  <fix>3d</fix>
</trkpt>
<trkpt lat="-35.2745325" lon="148.9853728">
  <ele>654.13</ele>
  <time>2026-09-01T20:00:00Z</time>
  <course>225.55</course>
  <speed>26.17568528233788</speed>
  <fix>3d</fix>
</trkpt>
<trkpt lat="-35.2745011" lon="148.9854124">
  <ele>654.68</ele>
  <time>2026-09-01T20:00:00Z</time>
  <course>229.3</course>
  <speed>25.93</speed>
  <fix>3d</fix>
</trkpt>
<trkpt lat="-35.2745498" lon="148.9853533">
  <ele>653.89</ele>
  <time>2026-09-01T20:00:00Z</time>
  <course>222.81</course>
  <speed>26.289475080343465</speed>
  <fix>3d</fix>
</trkpt>
<trkpt lat="-35.2745011" lon="148.9854124">
  <ele>654.68</ele>
  <time>2026-09-01T20:00:00Z</time>
  <course>229.3</course>
  <speed>25.93</speed>
  <fix>3d</fix>
</trkpt>
<trkpt lat="-35.2745679" lon="148.9853348">
  <ele>653.66</ele>
  <time>2026-09-01T20:00:00Z</time>
  <course>220.14</course>
  <speed>26.39395574748128</speed>
  <fix>3d</fix>
</trkpt>
<trkpt lat="-35.2745334" lon="148.9853709">
  <ele>654.2</ele>
  <time>2026-09-01T20:00:00Z</time>
  <course>223.63</course>
  <speed>26.19</speed>
  <fix>3d</fix>
</trkpt>
<trkpt lat="-35.2745867" lon="148.9853174">
  <ele>653.43</ele>
  <time>2026-09-01T20:00:00Z</time>
  <course>217.52</course>
  <speed>26.498658456608705</speed>
  <fix>3d</fix>
</trkpt>
<trkpt lat="-35.2745334" lon="148.9853709">
  <ele>654.2</ele>
  <time>2026-09-01T20:00:00Z</time>
  <course>223.63</course>
  <speed>26.19</speed>
  <fix>3d</fix>
</trkpt>
<trkpt lat="-35.2746063" lon="148.985301">
  <ele>653.2</ele>
  <time>2026-09-01T20:00:00Z</time>
  <course>214.99</course>
  <speed>26.58328234059895</speed>
  <fix>3d</fix>
</trkpt>
<trkpt lat="-35.2745692" lon="148.985333">
  <ele>653.73</ele>
  <time>2026-09-01T20:00:00Z</time>
  <course>218.1</course>
  <speed>26.42</speed>
  <fix>3d</fix>
</trkpt>
<trkpt lat="-35.2746265" lon="148.9852856">
  <ele>652.97</ele>
  <time>2026-09-01T20:00:00Z</time>
  <course>212.52</course>
  <speed>26.67940029311004</speed>
  <fix>3d</fix>
</trkpt>
<trkpt lat="-35.2745692" lon="148.985333">
  <ele>653.73</ele>
  <time>2026-09-01T20:00:00Z</time>
  <course>218.1</course>
  <speed>26.42</speed>
  <fix>3d</fix>
</trkpt>
<trkpt lat="-35.2746473" lon="148.9852713">
  <ele>652.74</ele>
  <time>2026-09-01T20:00:00Z</time>
  <course>210.12</course>
  <speed>26.755922708813465</speed>
  <fix>3d</fix>
</trkpt>
<trkpt lat="-35.274608" lon="148.9852991">
  <ele>653.26</ele>
  <time>2026-09-01T20:00:00Z</time>
  <course>212.78</course>
  <speed>26.64</speed>
  <fix>3d</fix>
</trkpt>
<trkpt lat="-35.2746687" lon="148.985258">
  <ele>652.51</ele>
  <time>2026-09-01T20:00:00Z</time>
  <course>207.82</course>
  <speed>26.818883272798665</speed>
  <fix>3d</fix>
</trkpt>
<trkpt lat="-35.274608" lon="148.9852991">
  <ele>653.26</ele>
  <time>2026-09-01T20:00:00Z</time>
  <course>212.78</course>
  <speed>26.64</speed>
  <fix>3d</fix>
</trkpt>
<trkpt lat="-35.27469" lon="148.9852461">
  <ele>652.29</ele>
  <time>2026-09-01T20:00:00Z</time>
  <course>205.68</course>
  <speed>26.839135604560738</speed>
  <fix>3d</fix>
</trkpt>
<trkpt lat="-35.2746496" lon="148.9852695">
  <ele>652.79</ele>
  <time>2026-09-01T20:00:00Z</time>
  <course>207.75</course>
  <speed>26.82</speed>
  <fix>3d</fix>
</trkpt>
<trkpt lat="-35.274713" lon="148.9852346">
  <ele>652.05</ele>
  <time>2026-09-01T20:00:00Z</time>
  <course>203.36</course>
  <speed>26.8387257521664</speed>
  <fix>3d</fix>
</trkpt>
<trkpt lat="-35.2746496" lon="148.9852695">
  <ele>652.79</ele>
  <time>2026-09-01T20:00:00Z</time>
  <course>207.75</course>
  <speed>26.82</speed>
  <fix>3d</fix>
</trkpt>
<trkpt lat="-35.2747354" lon="148.9852246">
  <ele>651.82</ele>
  <time>2026-09-01T20:00:00Z</time>
  <course>200.64</course>
  <speed>26.813207566421443</speed>
  <fix>3d</fix>
</trkpt>
<trkpt lat="-35.2746932" lon="148.9852442">
  <ele>652.32</ele>
  <time>2026-09-01T20:00:00Z</time>
  <course>203.08</course>
  <speed>26.92</speed>
  <fix>3d</fix>
</trkpt>
<trkpt lat="-35.2747583" lon="148.9852157">
  <ele>651.62</ele>
  <time>2026-09-01T20:00:00Z</time>
  <course>198.23</course>
  <speed>26.770425846444805</speed>
  <fix>3d</fix>
</trkpt>
<trkpt lat="-35.2746932" lon="148.9852442">
  <ele>652.32</ele>
  <time>2026-09-01T20:00:00Z</time>
  <course>203.08</course>
  <speed>26.92</speed>
  <fix>3d</fix>
</trkpt>
<trkpt lat="-35.2747815" lon="148.9852081">
  <ele>651.43</ele>
  <time>2026-09-01T20:00:00Z</time>
  <course>196.4</course>
  <speed>26.715300859245435</speed>
  <fix>3d</fix>
</trkpt>
<trkpt lat="-35.2747385" lon="148.9852232">
  <ele>651.87</ele>
  <time>2026-09-01T20:00:00Z</time>
  <course>198.37</course>
  <speed>26.9</speed>
  <fix>3d</fix>
</trkpt>
<trkpt lat="-35.2748048" lon="148.9852014">
  <ele>651.25</ele>
  <time>2026-09-01T20:00:00Z</time>
  <course>194.81</course>
  <speed>26.653556985888393</speed>
  <fix>3d</fix>
</trkpt>
<trkpt lat="-35.2747385" lon="148.9852232">
  <ele>651.87</ele>
  <time>2026-09-01T20:00:00Z</time>
  <course>198.37</course>
  <speed>26.9</speed>
  <fix>3d</fix>
</trkpt>
<trkpt lat="-35.2748283" lon="148.9851955">
  <ele>651.07</ele>
  <time>2026-09-01T20:00:00Z</time>
  <course>193.32</course>
  <speed>26.585464073436825</speed>
  <fix>3d</fix>
</trkpt>
<trkpt lat="-35.2747849" lon="148.9852068">
  <ele>651.46</ele>
  <time>2026-09-01T20:00:00Z</time>
  <course>193.91</course>
  <speed>26.82</speed>
  <fix>3d</fix>
</trkpt>
<trkpt lat="-35.274852" lon="148.9851904">
  <ele>650.88</ele>
  <time>2026-09-01T20:00:00Z</time>
  <course>192.02</course>
  <speed>26.51125232802102</speed>
  <fix>3d</fix>
</trkpt>
<trkpt lat="-35.2747849" lon="148.9852068">
  <ele>651.46</ele>
  <time>2026-09-01T20:00:00Z</time>
  <course>193.91</course>
  <speed>26.82</speed>
  <fix>3d</fix>
</trkpt>
<trkpt lat="-35.2748756" lon="148.985186">
  <ele>650.68</ele>
  <time>2026-09-01T20:00:00Z</time>
  <course>190.9</course>
  <speed>26.445888149200055</speed>
  <fix>3d</fix>
</trkpt>
<trkpt lat="-35.2748318" lon="148.9851944">
  <ele>651.09</ele>
  <time>2026-09-01T20:00:00Z</time>
  <course>190.4</course>
  <speed>26.7</speed>
  <fix>3d</fix>
</trkpt>
<trkpt lat="-35.2748992" lon="148.9851822">
  <ele>650.47</ele>
  <time>2026-09-01T20:00:00Z</time>
  <course>189.86</course>
  <speed>26.381148572418148</speed>
  <fix>3d</fix>
</trkpt>
<trkpt lat="-35.2748318" lon="148.9851944">
  <ele>651.09</ele>
  <time>2026-09-01T20:00:00Z</time>
  <course>190.4</course>
  <speed>26.7</speed>
  <fix>3d</fix>
</trkpt>
<trkpt lat="-35.2749228" lon="148.9851789">
  <ele>650.23</ele>
  <time>2026-09-01T20:00:00Z</time>
  <course>188.84</course>
  <speed>26.32091943682819</speed>
  <fix>3d</fix>
</trkpt>
<trkpt lat="-35.2748791" lon="148.9851852">
  <ele>650.7</ele>
  <time>2026-09-01T20:00:00Z</time>
  <course>187.73</course>
  <speed>26.56</speed>
  <fix>3d</fix>
</trkpt>
<trkpt lat="-35.2749464" lon="148.9851761">
  <ele>649.99</ele>
  <time>2026-09-01T20:00:00Z</time>
  <course>187.89</course>
  <speed>26.261791637281718</speed>
  <fix>3d</fix>
</trkpt>
<trkpt lat="-35.2748791" lon="148.9851852">
  <ele>650.7</ele>
  <time>2026-09-01T20:00:00Z</time>
  <course>187.73</course>
  <speed>26.56</speed>
  <fix>3d</fix>
</trkpt>
<trkpt lat="-35.2749701" lon="148.9851738">
  <ele>649.72</ele>
  <time>2026-09-01T20:00:00Z</time>
  <course>186.94</course>
  <speed>26.211890431634266</speed>
  <fix>3d</fix>
</trkpt>
<trkpt lat="-35.2749264" lon="148.9851785">
  <ele>650.26</ele>
  <time>2026-09-01T20:00:00Z</time>
  <course>185.63</course>
  <speed>26.43</speed>
  <fix>3d</fix>
</trkpt>
<trkpt lat="-35.2749936" lon="148.9851719">
  <ele>649.45</ele>
  <time>2026-09-01T20:00:00Z</time>
  <course>186.02</course>
  <speed>26.167743502258656</speed>
  <fix>3d</fix>
</trkpt>
<trkpt lat="-35.2749264" lon="148.9851785">
  <ele>650.26</ele>
  <time>2026-09-01T20:00:00Z</time>
  <course>185.63</course>
  <speed>26.43</speed>
  <fix>3d</fix>
</trkpt>
<trkpt lat="-35.2750172" lon="148.9851703">
  <ele>649.15</ele>
  <time>2026-09-01T20:00:00Z</time>
  <course>185.12</course>
  <speed>26.13942807331484</speed>
  <fix>3d</fix>
</trkpt>
<trkpt lat="-35.2749735" lon="148.9851737">
  <ele>649.76</ele>
  <time>2026-09-01T20:00:00Z</time>
  <course>183.9</course>
  <speed>26.31</speed>
  <fix>3d</fix>
</trkpt>
<trkpt lat="-35.2750407" lon="148.9851692">
  <ele>648.85</ele>
  <time>2026-09-01T20:00:00Z</time>
  <course>184.28</course>
  <speed>26.11656370964603</speed>
  <fix>3d</fix>
</trkpt>
<trkpt lat="-35.2749735" lon="148.9851737">
  <ele>649.76</ele>
  <time>2026-09-01T20:00:00Z</time>
  <course>183.9</course>
  <speed>26.31</speed>
  <fix>3d</fix>
</trkpt>
<trkpt lat="-35.2750643" lon="148.9851684">
  <ele>648.53</ele>
  <time>2026-09-01T20:00:00Z</time>
  <course>183.42</course>
  <speed>26.097130110416355</speed>
  <fix>3d</fix>
</trkpt>
<trkpt lat="-35.2750207" lon="148.9851706">
  <ele>649.2</ele>
  <time>2026-09-01T20:00:00Z</time>
  <course>182.39</course>
  <speed>26.22</speed>
  <fix>3d</fix>
</trkpt>
<trkpt lat="-35.2750878" lon="148.9851679">
  <ele>648.21</ele>
  <time>2026-09-01T20:00:00Z</time>
  <course>182.6</course>
  <speed>26.101840931244677</speed>
  <fix>3d</fix>
</trkpt>
<trkpt lat="-35.2750207" lon="148.9851706">
  <ele>649.2</ele>
  <time>2026-09-01T20:00:00Z</time>
  <course>182.39</course>
  <speed>26.22</speed>
  <fix>3d</fix>
</trkpt>
<trkpt lat="-35.2751114" lon="148.9851678">
  <ele>647.88</ele>
  <time>2026-09-01T20:00:00Z</time>
  <course>181.82</course>
  <speed>26.110007659899296</speed>
  <fix>3d</fix>
</trkpt>
<trkpt lat="-35.2750676" lon="148.9851689">
  <ele>648.58</ele>
  <time>2026-09-01T20:00:00Z</time>
  <course>181.0</course>
  <speed>26.17</speed>
  <fix>3d</fix>
</trkpt>
<trkpt lat="-35.2751349" lon="148.985168">
  <ele>647.56</ele>
  <time>2026-09-01T20:00:00Z</time>
  <course>181.08</course>
  <speed>26.121196373826375</speed>
  <fix>3d</fix>
</trkpt>
<trkpt lat="-35.2750676" lon="148.9851689">
  <ele>648.58</ele>
  <time>2026-09-01T20:00:00Z</time>
  <course>181.0</course>
  <speed>26.17</speed>
  <fix>3d</fix>
</trkpt>
<trkpt lat="-35.2751585" lon="148.9851685">
  <ele>647.24</ele>
  <time>2026-09-01T20:00:00Z</time>
  <course>180.38</course>
  <speed>26.14517163837331</speed>
  <fix>3d</fix>
</trkpt>
<trkpt lat="-35.2751148" lon="148.9851684">
  <ele>647.95</ele>
  <time>2026-09-01T20:00:00Z</time>
  <course>179.7</course>
  <speed>26.17</speed>
  <fix>3d</fix>
</trkpt>
<trkpt lat="-35.2751821" lon="148.9851693">
  <ele>646.93</ele>
  <time>2026-09-01T20:00:00Z</time>
  <course>179.71</course>
  <speed>26.1816214165586</speed>
  <fix>3d</fix>
</trkpt>
<trkpt lat="-35.2751148" lon="148.9851684">
  <ele>647.95</ele>
  <time>2026-09-01T20:00:00Z</time>
  <course>179.7</course>
  <speed>26.17</speed>
  <fix>3d</fix>
</trkpt>
<trkpt lat="-35.2752057" lon="148.9851704">
  <ele>646.63</ele>
  <time>2026-09-01T20:00:00Z</time>
  <course>179.07</course>
  <speed>26.220238366574776</speed>
  <fix>3d</fix>
</trkpt>
<trkpt lat="-35.2751619" lon="148.9851694">
  <ele>647.32</ele>
  <time>2026-09-01T20:00:00Z</time>
  <course>178.5</course>
  <speed>26.2</speed>
  <fix>3d</fix>
</trkpt>
<trkpt lat="-35.2752293" lon="148.9851718">
  <ele>646.35</ele>
  <time>2026-09-01T20:00:00Z</time>
  <course>178.51</course>
  <speed>26.27071563547518</speed>
  <fix>3d</fix>
</trkpt>
<trkpt lat="-35.2751619" lon="148.9851694">
  <ele>647.32</ele>
  <time>2026-09-01T20:00:00Z</time>
  <course>178.5</course>
  <speed>26.2</speed>
  <fix>3d</fix>
</trkpt>
<trkpt lat="-35.275253" lon="148.9851733">
  <ele>646.08</ele>
  <time>2026-09-01T20:00:00Z</time>
  <course>178.02</course>
  <speed>26.322205454710666</speed>
  <fix>3d</fix>
</trkpt>
<trkpt lat="-35.2752089" lon="148.9851714">
  <ele>646.73</ele>
  <time>2026-09-01T20:00:00Z</time>
  <course>177.42</course>
  <speed>26.26</speed>
  <fix>3d</fix>
</trkpt>
<trkpt lat="-35.2752767" lon="148.9851752">
  <ele>645.83</ele>
  <time>2026-09-01T20:00:00Z</time>
  <course>177.51</course>
  <speed>26.37356252006922</speed>
  <fix>3d</fix>
</trkpt>
<trkpt lat="-35.2752089" lon="148.9851714">
  <ele>646.73</ele>
  <time>2026-09-01T20:00:00Z</time>
  <course>177.42</course>
  <speed>26.26</speed>
  <fix>3d</fix>
</trkpt>
<trkpt lat="-35.2753004" lon="148.9851772">
  <ele>645.59</ele>
  <time>2026-09-01T20:00:00Z</time>
  <course>177.02</course>
  <speed>26.435515882993467</speed>
  <fix>3d</fix>
</trkpt>
<trkpt lat="-35.2752562" lon="148.9851746">
  <ele>646.18</ele>
  <time>2026-09-01T20:00:00Z</time>
  <course>176.46</course>
  <speed>26.35</speed>
  <fix>3d</fix>
</trkpt>
<trkpt lat="-35.275324" lon="148.9851795">
  <ele>645.38</ele>
  <time>2026-09-01T20:00:00Z</time>
  <course>176.6</course>
  <speed>26.497109276296538</speed>
  <fix>3d</fix>
</trkpt>
<trkpt lat="-35.2752562" lon="148.9851746">
  <ele>646.18</ele>
  <time>2026-09-01T20:00:00Z</time>
  <course>176.46</course>
  <speed>26.35</speed>
  <fix>3d</fix>
</trkpt>
<trkpt lat="-35.2753482" lon="148.9851819">
  <ele>645.18</ele>
  <time>2026-09-01T20:00:00Z</time>
  <course>176.18</course>
  <speed>26.548832366038244</speed>
  <fix>3d</fix>
</trkpt>
<trkpt lat="-35.2753035" lon="148.9851785">
  <ele>645.69</ele>
  <time>2026-09-01T20:00:00Z</time>
  <course>175.68</course>
  <speed>26.45</speed>
  <fix>3d</fix>
</trkpt>
<trkpt lat="-35.275372" lon="148.9851845">
  <ele>645.01</ele>
  <time>2026-09-01T20:00:00Z</time>
  <course>175.78</course>
  <speed>26.600490596979597</speed>
  <fix>3d</fix>
</trkpt>
<trkpt lat="-35.2753035" lon="148.9851785">
  <ele>645.69</ele>
  <time>2026-09-01T20:00:00Z</time>
  <course>175.68</course>
  <speed>26.45</speed>
  <fix>3d</fix>
</trkpt>
<trkpt lat="-35.2753959" lon="148.9851872">
  <ele>644.86</ele>
  <time>2026-09-01T20:00:00Z</time>
  <course>175.48</course>
  <speed>26.64014451912752</speed>
  <fix>3d</fix>
</trkpt>
<trkpt lat="-35.2753509" lon="148.9851832">
  <ele>645.3</ele>
  <time>2026-09-01T20:00:00Z</time>
  <course>175.05</course>
  <speed>26.55</speed>
  <fix>3d</fix>
</trkpt>
<trkpt lat="-35.2754197" lon="148.98519">
  <ele>644.74</ele>
  <time>2026-09-01T20:00:00Z</time>
  <course>175.24</course>
  <speed>26.679280350114396</speed>
  <fix>3d</fix>
</trkpt>
<trkpt lat="-35.2753509" lon="148.9851832">
  <ele>645.3</ele>
  <time>2026-09-01T20:00:00Z</time>
  <course>175.05</course>
  <speed>26.55</speed>
  <fix>3d</fix>
</trkpt>
<trkpt lat="-35.2754436" lon="148.985193">
  <ele>644.64</ele>
  <time>2026-09-01T20:00:00Z</time>
  <course>175.04</course>
  <speed>26.716813058446924</speed>
  <fix>3d</fix>
</trkpt>
<trkpt lat="-35.2753984" lon="148.9851885">
  <ele>645.0</ele>
  <time>2026-09-01T20:00:00Z</time>
  <course>174.54</course>
  <speed>26.64</speed>
  <fix>3d</fix>
</trkpt>
<trkpt lat="-35.2754675" lon="148.985196">
  <ele>644.56</ele>
  <time>2026-09-01T20:00:00Z</time>
  <course>174.91</course>
  <speed>26.74361606066016</speed>
  <fix>3d</fix>
</trkpt>
<trkpt lat="-35.2753984" lon="148.9851885">
  <ele>645.0</ele>
  <time>2026-09-01T20:00:00Z</time>
  <course>174.54</course>
  <speed>26.64</speed>
  <fix>3d</fix>
</trkpt>
<trkpt lat="-35.2754914" lon="148.9851991">
  <ele>644.51</ele>
  <time>2026-09-01T20:00:00Z</time>
  <course>174.75</course>
  <speed>26.768550577123147</speed>
  <fix>3d</fix>
</trkpt>
<trkpt lat="-35.2754462" lon="148.9851943">
  <ele>644.79</ele>
  <time>2026-09-01T20:00:00Z</time>
  <course>174.19</course>
  <speed>26.71</speed>
  <fix>3d</fix>
</trkpt>
<trkpt lat="-35.2755154" lon="148.9852022">
  <ele>644.47</ele>
  <time>2026-09-01T20:00:00Z</time>
  <course>174.62</course>
  <speed>26.78259136080749</speed>
  <fix>3d</fix>
</trkpt>
<trkpt lat="-35.2754462" lon="148.9851943">
  <ele>644.79</ele>
  <time>2026-09-01T20:00:00Z</time>
  <course>174.19</course>
  <speed>26.71</speed>
  <fix>3d</fix>
</trkpt>
<trkpt lat="-35.2755393" lon="148.9852054">
  <ele>644.46</ele>
  <time>2026-09-01T20:00:00Z</time>
  <course>174.49</course>
  <speed>26.7956451685717</speed>
  <fix>3d</fix>
</trkpt>
<trkpt lat="-35.2754939" lon="148.9852004">
  <ele>644.66</ele>
  <time>2026-09-01T20:00:00Z</time>
  <course>173.96</course>
  <speed>26.75</speed>
  <fix>3d</fix>
</trkpt>
<trkpt lat="-35.2755632" lon="148.9852085">
  <ele>644.47</ele>
  <time>2026-09-01T20:00:00Z</time>
  <course>174.41</course>
  <speed>26.807679869768663</speed>
  <fix>3d</fix>
</trkpt>
<trkpt lat="-35.2754939" lon="148.9852004">
  <ele>644.66</ele>
  <time>2026-09-01T20:00:00Z</time>
  <course>173.96</course>
  <speed>26.75</speed>
  <fix>3d</fix>
</trkpt>
<trkpt lat="-35.2755872" lon="148.9852118">
  <ele>644.49</ele>
  <time>2026-09-01T20:00:00Z</time>
  <course>174.35</course>
  <speed>26.809783661939537</speed>
  <fix>3d</fix>
</trkpt>
<trkpt lat="-35.2755417" lon="148.9852067">
  <ele>644.62</ele>
  <time>2026-09-01T20:00:00Z</time>
  <course>173.84</course>
  <speed>26.78</speed>
  <fix>3d</fix>
</trkpt>
<trkpt lat="-35.2756111" lon="148.985215">
  <ele>644.53</ele>
  <time>2026-09-01T20:00:00Z</time>
  <course>174.32</course>
  <speed>26.809783661939537</speed>
  <fix>3d</fix>
</trkpt>
<trkpt lat="-35.2755417" lon="148.9852067">
  <ele>644.62</ele>
  <time>2026-09-01T20:00:00Z</time>
  <course>173.84</course>
  <speed>26.78</speed>
  <fix>3d</fix>
</trkpt>
<trkpt lat="-35.2756351" lon="148.9852182">
  <ele>644.58</ele>
  <time>2026-09-01T20:00:00Z</time>
  <course>174.31</course>
  <speed>26.810841090872177</speed>
  <fix>3d</fix>
</trkpt>
<trkpt lat="-35.2755897" lon="148.9852131">
  <ele>644.65</ele>
  <time>2026-09-01T20:00:00Z</time>
  <course>173.79</course>
  <speed>26.79</speed>
  <fix>3d</fix>
</trkpt>
<trkpt lat="-35.275659" lon="148.9852214">
  <ele>644.65</ele>
  <time>2026-09-01T20:00:00Z</time>
  <course>174.3</course>
  <speed>26.799839551758513</speed>
  <fix>3d</fix>
</trkpt>
<trkpt lat="-35.2755897" lon="148.9852131">
  <ele>644.65</ele>
  <time>2026-09-01T20:00:00Z</time>
  <course>173.79</course>
  <speed>26.79</speed>
  <fix>3d</fix>
</trkpt>
<trkpt lat="-35.2756829" lon="148.9852246">
  <ele>644.72</ele>
  <time>2026-09-01T20:00:00Z</time>
  <course>174.33</course>
  <speed>26.799839551758513</speed>
  <fix>3d</fix>
</trkpt>
<trkpt lat="-35.2756376" lon="148.9852194">
  <ele>644.73</ele>
  <time>2026-09-01T20:00:00Z</time>
  <course>173.8</course>
  <speed>26.79</speed>
  <fix>3d</fix>
</trkpt>
<trkpt lat="-35.2757068" lon="148.9852278">
  <ele>644.81</ele>
  <time>2026-09-01T20:00:00Z</time>
  <course>174.27</course>
  <speed>26.787790129086797</speed>
  <fix>3d</fix>
</trkpt>
<trkpt lat="-35.2756376" lon="148.9852194">
  <ele>644.73</ele>
  <time>2026-09-01T20:00:00Z</time>
  <course>173.8</course>
  <speed>26.79</speed>
  <fix>3d</fix>
</trkpt>
<trkpt lat="-35.2757308" lon="148.985231">
  <ele>644.91</ele>
  <time>2026-09-01T20:00:00Z</time>
  <course>174.28</course>
  <speed>26.776797792118458</speed>
  <fix>3d</fix>
</trkpt>
<trkpt lat="-35.2756854" lon="148.9852257">
  <ele>644.87</ele>
  <time>2026-09-01T20:00:00Z</time>
  <course>173.85</course>
  <speed>26.77</speed>
  <fix>3d</fix>
</trkpt>
<trkpt lat="-35.2757547" lon="148.9852341">
  <ele>645.02</ele>
  <time>2026-09-01T20:00:00Z</time>
  <course>174.3</course>
  <speed>26.764767886159596</speed>
  <fix>3d</fix>
</trkpt>
<trkpt lat="-35.2756854" lon="148.9852257">
  <ele>644.87</ele>
  <time>2026-09-01T20:00:00Z</time>
  <course>173.85</course>
  <speed>26.77</speed>
  <fix>3d</fix>
</trkpt>
<trkpt lat="-35.2757786" lon="148.9852372">
  <ele>645.14</ele>
  <time>2026-09-01T20:00:00Z</time>
  <course>174.39</course>
  <speed>26.752751260384414</speed>
  <fix>3d</fix>
</trkpt>
<trkpt lat="-35.2757333" lon="148.985232">
  <ele>645.06</ele>
  <time>2026-09-01T20:00:00Z</time>
  <course>173.93</course>
  <speed>26.75</speed>
  <fix>3d</fix>
</trkpt>
<trkpt lat="-35.2758025" lon="148.9852403">
  <ele>645.26</ele>
  <time>2026-09-01T20:00:00Z</time>
  <course>174.43</course>
  <speed>26.72977740273944</speed>
  <fix>3d</fix>
</trkpt>
<trkpt lat="-35.2757333" lon="148.985232">
  <ele>645.06</ele>
  <time>2026-09-01T20:00:00Z</time>
  <course>173.93</course>
  <speed>26.75</speed>
  <fix>3d</fix>
</trkpt>
<trkpt lat="-35.2758261" lon="148.9852434">
  <ele>645.4</ele>
  <time>2026-09-01T20:00:00Z</time>
  <course>174.45</course>
  <speed>26.71779369633653</speed>
  <fix>3d</fix>
</trkpt>
<trkpt lat="-35.275781" lon="148.9852382">
  <ele>645.28</ele>
  <time>2026-09-01T20:00:00Z</time>
  <course>174.03</course>
  <speed>26.72</speed>
  <fix>3d</fix>
</trkpt>
<trkpt lat="-35.27585" lon="148.9852464">
  <ele>645.54</ele>
  <time>2026-09-01T20:00:00Z</time>
  <course>174.45</course>
  <speed>26.695874213068954</speed>
  <fix>3d</fix>
</trkpt>
<trkpt lat="-35.275781" lon="148.9852382">
  <ele>645.28</ele>
  <time>2026-09-01T20:00:00Z</time>
  <course>174.03</course>
  <speed>26.72</speed>
  <fix>3d</fix>
</trkpt>
<trkpt lat="-35.2758738" lon="148.9852494">
  <ele>645.69</ele>
  <time>2026-09-01T20:00:00Z</time>
  <course>174.56</course>
  <speed>26.672967588927932</speed>
  <fix>3d</fix>
</trkpt>
<trkpt lat="-35.2758287" lon="148.9852442">
  <ele>645.53</ele>
  <time>2026-09-01T20:00:00Z</time>
  <course>174.15</course>
  <speed>26.68</speed>
  <fix>3d</fix>
</trkpt>
<trkpt lat="-35.2758976" lon="148.9852523">
  <ele>645.84</ele>
  <time>2026-09-01T20:00:00Z</time>
  <course>174.66</course>
  <speed>26.650090056133017</speed>
  <fix>3d</fix>
</trkpt>
<trkpt lat="-35.2758287" lon="148.9852442">
  <ele>645.53</ele>
  <time>2026-09-01T20:00:00Z</time>
  <course>174.15</course>
  <speed>26.68</speed>
  <fix>3d</fix>
</trkpt>
<trkpt lat="-35.2759216" lon="148.9852553">
  <ele>646.01</ele>
  <time>2026-09-01T20:00:00Z</time>
  <course>174.81</course>
  <speed>26.626267105998917</speed>
  <fix>3d</fix>
</trkpt>
<trkpt lat="-35.2758764" lon="148.9852501">
  <ele>645.81</ele>
  <time>2026-09-01T20:00:00Z</time>
  <course>174.28</course>
  <speed>26.64</speed>
  <fix>3d</fix>
</trkpt>
<trkpt lat="-35.2759454" lon="148.9852581">
  <ele>646.18</ele>
  <time>2026-09-01T20:00:00Z</time>
  <course>174.88</course>
  <speed>26.602498003007163</speed>
  <fix>3d</fix>
</trkpt>
<trkpt lat="-35.2758764" lon="148.9852501">
  <ele>645.81</ele>
  <time>2026-09-01T20:00:00Z</time>
  <course>174.28</course>
  <speed>26.64</speed>
  <fix>3d</fix>
</trkpt>
<trkpt lat="-35.2759692" lon="148.9852609">
  <ele>646.35</ele>
  <time>2026-09-01T20:00:00Z</time>
  <course>174.9</course>
  <speed>26.57878289162241</speed>
  <fix>3d</fix>
</trkpt>
<trkpt lat="-35.2759239" lon="148.9852559">
  <ele>646.13</ele>
  <time>2026-09-01T20:00:00Z</time>
  <course>174.44</course>
  <speed>26.59</speed>
  <fix>3d</fix>
</trkpt>
<trkpt lat="-35.2759931" lon="148.9852637">
  <ele>646.54</ele>
  <time>2026-09-01T20:00:00Z</time>
  <course>174.89</course>
  <speed>26.556053923728953</speed>
  <fix>3d</fix>
</trkpt>
<trkpt lat="-35.2759239" lon="148.9852559">
  <ele>646.13</ele>
  <time>2026-09-01T20:00:00Z</time>
  <course>174.44</course>
  <speed>26.59</speed>
  <fix>3d</fix>
</trkpt>
<trkpt lat="-35.2760168" lon="148.9852665">
  <ele>646.72</ele>
  <time>2026-09-01T20:00:00Z</time>
  <course>174.97</course>
  <speed>26.53335448072859</speed>
  <fix>3d</fix>
</trkpt>
<trkpt lat="-35.2759714" lon="148.9852614">
  <ele>646.46</ele>
  <time>2026-09-01T20:00:00Z</time>
  <course>174.61</course>
  <speed>26.54</speed>
  <fix>3d</fix>
</trkpt>
<trkpt lat="-35.2760405" lon="148.9852692">
  <ele>646.91</ele>
  <time>2026-09-01T20:00:00Z</time>
  <course>175.06</course>
  <speed>26.501641458596488</speed>
  <fix>3d</fix>
</trkpt>
<trkpt lat="-35.2759714" lon="148.9852614">
  <ele>646.46</ele>
  <time>2026-09-01T20:00:00Z</time>
  <course>174.61</course>
  <speed>26.54</speed>
  <fix>3d</fix>
</trkpt>
<trkpt lat="-35.2760642" lon="148.9852718">
  <ele>647.1</ele>
  <time>2026-09-01T20:00:00Z</time>
  <course>175.17</course>
  <speed>26.478989784355445</speed>
  <fix>3d</fix>
</trkpt>
<trkpt lat="-35.2760188" lon="148.9852669">
  <ele>646.82</ele>
  <time>2026-09-01T20:00:00Z</time>
  <course>174.75</course>
  <speed>26.49</speed>
  <fix>3d</fix>
</trkpt>
<trkpt lat="-35.2760879" lon="148.9852744">
  <ele>647.29</ele>
  <time>2026-09-01T20:00:00Z</time>
  <course>175.25</course>
  <speed>26.456367853505515</speed>
  <fix>3d</fix>
</trkpt>
<trkpt lat="-35.2760188" lon="148.9852669">
  <ele>646.82</ele>
  <time>2026-09-01T20:00:00Z</time>
  <course>174.75</course>
  <speed>26.49</speed>
  <fix>3d</fix>
</trkpt>
<trkpt lat="-35.2761116" lon="148.985277">
  <ele>647.48</ele>
  <time>2026-09-01T20:00:00Z</time>
  <course>175.27</course>
  <speed>26.434662850129186</speed>
  <fix>3d</fix>
</trkpt>
<trkpt lat="-35.2760662" lon="148.9852722">
  <ele>647.19</ele>
  <time>2026-09-01T20:00:00Z</time>
  <course>174.87</course>
  <speed>26.44</speed>
  <fix>3d</fix>
</trkpt>
<trkpt lat="-35.2761352" lon="148.9852796">
  <ele>647.68</ele>
  <time>2026-09-01T20:00:00Z</time>
  <course>175.4</course>
  <speed>26.412090034679196</speed>
  <fix>3d</fix>
</trkpt>
<trkpt lat="-35.2760662" lon="148.9852722">
  <ele>647.19</ele>
  <time>2026-09-01T20:00:00Z</time>
  <course>174.87</course>
  <speed>26.44</speed>
  <fix>3d</fix>
</trkpt>
<trkpt lat="-35.2761587" lon="148.9852821">
  <ele>647.88</ele>
  <time>2026-09-01T20:00:00Z</time>
  <course>175.45</course>
  <speed>26.379584909547003</speed>
  <fix>3d</fix>
</trkpt>
<trkpt lat="-35.2761135" lon="148.9852773">
  <ele>647.57</ele>
  <time>2026-09-01T20:00:00Z</time>
  <course>174.99</course>
  <speed>26.4</speed>
  <fix>3d</fix>
</trkpt>
<trkpt lat="-35.2761822" lon="148.9852846">
  <ele>648.08</ele>
  <time>2026-09-01T20:00:00Z</time>
  <course>175.52</course>
  <speed>26.347108000689563</speed>
  <fix>3d</fix>
</trkpt>
<trkpt lat="-35.2761135" lon="148.9852773">
  <ele>647.57</ele>
  <time>2026-09-01T20:00:00Z</time>
  <course>174.99</course>
  <speed>26.4</speed>
  <fix>3d</fix>
</trkpt>
<trkpt lat="-35.2762056" lon="148.9852871">
  <ele>648.28</ele>
  <time>2026-09-01T20:00:00Z</time>
  <course>175.62</course>
  <speed>26.31465941257838</speed>
  <fix>3d</fix>
</trkpt>
<trkpt lat="-35.2761608" lon="148.9852823">
  <ele>647.95</ele>
  <time>2026-09-01T20:00:00Z</time>
  <course>175.12</course>
  <speed>26.35</speed>
  <fix>3d</fix>
</trkpt>
<trkpt lat="-35.276229" lon="148.9852895">
  <ele>648.48</ele>
  <time>2026-09-01T20:00:00Z</time>
  <course>175.6</course>
  <speed>26.29220416777566</speed>
  <fix>3d</fix>
</trkpt>
<trkpt lat="-35.2761608" lon="148.9852823">
  <ele>647.95</ele>
  <time>2026-09-01T20:00:00Z</time>
  <course>175.12</course>
  <speed>26.35</speed>
  <fix>3d</fix>
</trkpt>
<trkpt lat="-35.2762523" lon="148.9852918">
  <ele>648.68</ele>
  <time>2026-09-01T20:00:00Z</time>
  <course>175.59</course>
  <speed>26.26064165248062</speed>
  <fix>3d</fix>
</trkpt>
<trkpt lat="-35.276208" lon="148.9852871">
  <ele>648.34</ele>
  <time>2026-09-01T20:00:00Z</time>
  <course>175.24</course>
  <speed>26.3</speed>
  <fix>3d</fix>
</trkpt>
<trkpt lat="-35.2762756" lon="148.9852942">
  <ele>648.88</ele>
  <time>2026-09-01T20:00:00Z</time>
  <course>175.59</course>
  <speed>26.229090720038315</speed>
  <fix>3d</fix>
</trkpt>
<trkpt lat="-35.276208" lon="148.9852871">
  <ele>648.34</ele>
  <time>2026-09-01T20:00:00Z</time>
  <course>175.24</course>
  <speed>26.3</speed>
  <fix>3d</fix>
</trkpt>
<trkpt lat="-35.2762989" lon="148.9852965">
  <ele>649.08</ele>
  <time>2026-09-01T20:00:00Z</time>
  <course>175.63</course>
  <speed>26.188403922347007</speed>
  <fix>3d</fix>
</trkpt>
<trkpt lat="-35.2762551" lon="148.9852919">
  <ele>648.73</ele>
  <time>2026-09-01T20:00:00Z</time>
  <course>175.35</course>
  <speed>26.25</speed>
  <fix>3d</fix>
</trkpt>
<trkpt lat="-35.276322" lon="148.9852988">
  <ele>649.28</ele>
  <time>2026-09-01T20:00:00Z</time>
  <course>175.73</course>
  <speed>26.167651786127085</speed>
  <fix>3d</fix>
</trkpt>
<trkpt lat="-35.2762551" lon="148.9852919">
  <ele>648.73</ele>
  <time>2026-09-01T20:00:00Z</time>
  <course>175.35</course>
  <speed>26.25</speed>
  <fix>3d</fix>
</trkpt>
<trkpt lat="-35.2763453" lon="148.9853011">
  <ele>649.48</ele>
  <time>2026-09-01T20:00:00Z</time>
  <course>175.83</course>
  <speed>26.136122512721737</speed>
  <fix>3d</fix>
</trkpt>
<trkpt lat="-35.276302" lon="148.9852965">
  <ele>649.13</ele>
  <time>2026-09-01T20:00:00Z</time>
  <course>175.41</course>
  <speed>26.2</speed>
  <fix>3d</fix>
</trkpt>
<trkpt lat="-35.2763686" lon="148.9853034">
  <ele>649.67</ele>
  <time>2026-09-01T20:00:00Z</time>
  <course>175.86</course>
  <speed>26.11457256016265</speed>
  <fix>3d</fix>
</trkpt>
<trkpt lat="-35.276302" lon="148.9852965">
  <ele>649.13</ele>
  <time>2026-09-01T20:00:00Z</time>
  <course>175.41</course>
  <speed>26.2</speed>
  <fix>3d</fix>
</trkpt>
<trkpt lat="-35.2763918" lon="148.9853056">
  <ele>649.88</ele>
  <time>2026-09-01T20:00:00Z</time>
  <course>175.89</course>
  <speed>26.093834520821197</speed>
  <fix>3d</fix>
</trkpt>
<trkpt lat="-35.2763489" lon="148.985301">
  <ele>649.53</ele>
  <time>2026-09-01T20:00:00Z</time>
  <course>175.47</course>
  <speed>26.15</speed>
  <fix>3d</fix>
</trkpt>
<trkpt lat="-35.2764153" lon="148.9853079">
  <ele>650.08</ele>
  <time>2026-09-01T20:00:00Z</time>
  <course>175.9</course>
  <speed>26.07309916369744</speed>
  <fix>3d</fix>
</trkpt>
<trkpt lat="-35.2763489" lon="148.985301">
  <ele>649.53</ele>
  <time>2026-09-01T20:00:00Z</time>
  <course>175.47</course>
  <speed>26.15</speed>
  <fix>3d</fix>
</trkpt>
<trkpt lat="-35.2764385" lon="148.9853101">
  <ele>650.28</ele>
  <time>2026-09-01T20:00:00Z</time>
  <course>175.94</course>
  <speed>26.061542548360407</speed>
  <fix>3d</fix>
</trkpt>
<trkpt lat="-35.2763956" lon="148.9853056">
  <ele>649.93</ele>
  <time>2026-09-01T20:00:00Z</time>
  <course>175.54</course>
  <speed>26.11</speed>
  <fix>3d</fix>
</trkpt>
<trkpt lat="-35.2764618" lon="148.9853123">
  <ele>650.48</ele>
  <time>2026-09-01T20:00:00Z</time>
  <course>176.02</course>
  <speed>26.040816039440852</speed>
  <fix>3d</fix>
</trkpt>
<trkpt lat="-35.2763956" lon="148.9853056">
  <ele>649.93</ele>
  <time>2026-09-01T20:00:00Z</time>
  <course>175.54</course>
  <speed>26.11</speed>
  <fix>3d</fix>
</trkpt>
<trkpt lat="-35.276485" lon="148.9853145">
  <ele>650.67</ele>
  <time>2026-09-01T20:00:00Z</time>
  <course>176.0</course>
  <speed>26.019310136896408</speed>
  <fix>3d</fix>
</trkpt>
<trkpt lat="-35.2764424" lon="148.9853099">
  <ele>650.32</ele>
  <time>2026-09-01T20:00:00Z</time>
  <course>175.59</course>
  <speed>26.08</speed>
  <fix>3d</fix>
</trkpt>
<trkpt lat="-35.2765083" lon="148.9853166">
  <ele>650.87</ele>
  <time>2026-09-01T20:00:00Z</time>
  <course>175.95</course>
  <speed>25.998592269582595</speed>
  <fix>3d</fix>
</trkpt>
<trkpt lat="-35.2764424" lon="148.9853099">
  <ele>650.32</ele>
  <time>2026-09-01T20:00:00Z</time>
  <course>175.59</course>
  <speed>26.08</speed>
  <fix>3d</fix>
</trkpt>
<trkpt lat="-35.2765316" lon="148.9853188">
  <ele>651.07</ele>
  <time>2026-09-01T20:00:00Z</time>
  <course>175.89</course>
  <speed>25.97787712650901</speed>
  <fix>3d</fix>
</trkpt>
<trkpt lat="-35.2764891" lon="148.9853144">
  <ele>650.71</ele>
  <time>2026-09-01T20:00:00Z</time>
  <course>175.65</course>
  <speed>26.05</speed>
  <fix>3d</fix>
</trkpt>
<trkpt lat="-35.276555" lon="148.985321">
  <ele>651.27</ele>
  <time>2026-09-01T20:00:00Z</time>
  <course>175.89</course>
  <speed>25.967907116284902</speed>
  <fix>3d</fix>
</trkpt>
<trkpt lat="-35.2764891" lon="148.9853144">
  <ele>650.71</ele>
  <time>2026-09-01T20:00:00Z</time>
  <course>175.65</course>
  <speed>26.05</speed>
  <fix>3d</fix>
</trkpt>
<trkpt lat="-35.2765784" lon="148.9853231">
  <ele>651.46</ele>
  <time>2026-09-01T20:00:00Z</time>
  <course>175.97</course>
  <speed>25.967907116284902</speed>
  <fix>3d</fix>
</trkpt>
<trkpt lat="-35.2765356" lon="148.9853187">
  <ele>651.1</ele>
  <time>2026-09-01T20:00:00Z</time>
  <course>175.69</course>
  <speed>26.01</speed>
  <fix>3d</fix>
</trkpt>
<trkpt lat="-35.2766017" lon="148.9853253">
  <ele>651.65</ele>
  <time>2026-09-01T20:00:00Z</time>
  <course>176.06</course>
  <speed>25.967907116284902</speed>
  <fix>3d</fix>
</trkpt>
<trkpt lat="-35.2765356" lon="148.9853187">
  <ele>651.1</ele>
  <time>2026-09-01T20:00:00Z</time>
  <course>175.69</course>
  <speed>26.01</speed>
  <fix>3d</fix>
</trkpt>
<trkpt lat="-35.2766252" lon="148.9853275">
  <ele>651.84</ele>
  <time>2026-09-01T20:00:00Z</time>
  <course>176.09</course>
  <speed>25.967134997916116</speed>
  <fix>3d</fix>
</trkpt>
<trkpt lat="-35.2765823" lon="148.985323">
  <ele>651.49</ele>
  <time>2026-09-01T20:00:00Z</time>
  <course>175.7</course>
  <speed>25.98</speed>
  <fix>3d</fix>
</trkpt>
<trkpt lat="-35.2766487" lon="148.9853296">
  <ele>652.04</ele>
  <time>2026-09-01T20:00:00Z</time>
  <course>176.1</course>
  <speed>25.957164714197887</speed>
  <fix>3d</fix>
</trkpt>
<trkpt lat="-35.2765823" lon="148.985323">
  <ele>651.49</ele>
  <time>2026-09-01T20:00:00Z</time>
  <course>175.7</course>
  <speed>25.98</speed>
  <fix>3d</fix>
</trkpt>
<trkpt lat="-35.2766722" lon="148.9853318">
  <ele>652.23</ele>
  <time>2026-09-01T20:00:00Z</time>
  <course>176.09</course>
  <speed>25.96636670772405</speed>
  <fix>3d</fix>
</trkpt>
<trkpt lat="-35.2766289" lon="148.9853273">
  <ele>651.87</ele>
  <time>2026-09-01T20:00:00Z</time>
  <course>175.71</course>
  <speed>25.96</speed>
  <fix>3d</fix>
</trkpt>
<trkpt lat="-35.2766955" lon="148.9853339">
  <ele>652.42</ele>
  <time>2026-09-01T20:00:00Z</time>
  <course>176.05</course>
  <speed>25.96560224604852</speed>
  <fix>3d</fix>
</trkpt>
<trkpt lat="-35.2766289" lon="148.9853273">
  <ele>651.87</ele>
  <time>2026-09-01T20:00:00Z</time>
  <course>175.71</course>
  <speed>25.96</speed>
  <fix>3d</fix>
</trkpt>
<trkpt lat="-35.2767188" lon="148.9853361">
  <ele>652.61</ele>
  <time>2026-09-01T20:00:00Z</time>
  <course>175.99</course>
  <speed>25.94566052348639</speed>
  <fix>3d</fix>
</trkpt>
<trkpt lat="-35.2766754" lon="148.9853315">
  <ele>652.26</ele>
  <time>2026-09-01T20:00:00Z</time>
  <course>175.73</course>
  <speed>25.94</speed>
  <fix>3d</fix>
</trkpt>
<trkpt lat="-35.2767421" lon="148.9853382">
  <ele>652.8</ele>
  <time>2026-09-01T20:00:00Z</time>
  <course>176.05</course>
  <speed>25.94566052348639</speed>
  <fix>3d</fix>
</trkpt>
<trkpt lat="-35.2766754" lon="148.9853315">
  <ele>652.26</ele>
  <time>2026-09-01T20:00:00Z</time>
  <course>175.73</course>
  <speed>25.94</speed>
  <fix>3d</fix>
</trkpt>
<trkpt lat="-35.2767653" lon="148.9853403">
  <ele>652.99</ele>
  <time>2026-09-01T20:00:00Z</time>
  <course>176.06</course>
  <speed>25.935689695861182</speed>
  <fix>3d</fix>
</trkpt>
<trkpt lat="-35.2767219" lon="148.9853357">
  <ele>652.64</ele>
  <time>2026-09-01T20:00:00Z</time>
  <course>175.75</course>
  <speed>25.92</speed>
  <fix>3d</fix>
</trkpt>
<trkpt lat="-35.2767885" lon="148.9853424">
  <ele>653.19</ele>
  <time>2026-09-01T20:00:00Z</time>
  <course>176.03</course>
  <speed>25.925718890707735</speed>
  <fix>3d</fix>
</trkpt>
<trkpt lat="-35.2767219" lon="148.9853357">
  <ele>652.64</ele>
  <time>2026-09-01T20:00:00Z</time>
  <course>175.75</course>
  <speed>25.92</speed>
  <fix>3d</fix>
</trkpt>
<trkpt lat="-35.2768116" lon="148.9853445">
  <ele>653.38</ele>
  <time>2026-09-01T20:00:00Z</time>
  <course>175.99</course>
  <speed>25.916514040279413</speed>
  <fix>3d</fix>
</trkpt>
<trkpt lat="-35.2767683" lon="148.98534">
  <ele>653.02</ele>
  <time>2026-09-01T20:00:00Z</time>
  <course>175.75</course>
  <speed>25.9</speed>
  <fix>3d</fix>
</trkpt>
<trkpt lat="-35.2768349" lon="148.9853466">
  <ele>653.57</ele>
  <time>2026-09-01T20:00:00Z</time>
  <course>175.96</course>
  <speed>25.916514040279413</speed>
  <fix>3d</fix>
</trkpt>
<trkpt lat="-35.2767683" lon="148.98534">
  <ele>653.02</ele>
  <time>2026-09-01T20:00:00Z</time>
  <course>175.75</course>
  <speed>25.9</speed>
  <fix>3d</fix>
</trkpt>
<trkpt lat="-35.2768582" lon="148.9853488">
  <ele>653.76</ele>
  <time>2026-09-01T20:00:00Z</time>
  <course>175.93</course>
  <speed>25.906543574934886</speed>
  <fix>3d</fix>
</trkpt>
<trkpt lat="-35.2768147" lon="148.9853441">
  <ele>653.4</ele>
  <time>2026-09-01T20:00:00Z</time>
  <course>175.74</course>
  <speed>25.88</speed>
  <fix>3d</fix>
</trkpt>
<trkpt lat="-35.2768815" lon="148.9853509">
  <ele>653.96</ele>
  <time>2026-09-01T20:00:00Z</time>
  <course>176.02</course>
  <speed>25.906543574934886</speed>
  <fix>3d</fix>
</trkpt>
<trkpt lat="-35.2768147" lon="148.9853441">
  <ele>653.4</ele>
  <time>2026-09-01T20:00:00Z</time>
  <course>175.74</course>
  <speed>25.88</speed>
  <fix>3d</fix>
</trkpt>
<trkpt lat="-35.276905" lon="148.985353">
  <ele>654.16</ele>
  <time>2026-09-01T20:00:00Z</time>
  <course>176.1</course>
  <speed>25.906543574934886</speed>
  <fix>3d</fix>
</trkpt>
<trkpt lat="-35.276861" lon="148.9853484">
  <ele>653.78</ele>
  <time>2026-09-01T20:00:00Z</time>
  <course>175.72</course>
  <speed>25.86</speed>
  <fix>3d</fix>
</trkpt>
<trkpt lat="-35.2769283" lon="148.9853552">
  <ele>654.35</ele>
  <time>2026-09-01T20:00:00Z</time>
  <course>176.05</course>
  <speed>25.9050149584979</speed>
  <fix>3d</fix>
</trkpt>
<trkpt lat="-35.276861" lon="148.9853484">
  <ele>653.78</ele>
  <time>2026-09-01T20:00:00Z</time>
  <course>175.72</course>
  <speed>25.86</speed>
  <fix>3d</fix>
</trkpt>
<trkpt lat="-35.2769515" lon="148.9853573">
  <ele>654.54</ele>
  <time>2026-09-01T20:00:00Z</time>
  <course>176.05</course>
  <speed>25.895043927361854</speed>
  <fix>3d</fix>
</trkpt>
<trkpt lat="-35.2769073" lon="148.9853527">
  <ele>654.17</ele>
  <time>2026-09-01T20:00:00Z</time>
  <course>175.72</course>
  <speed>25.84</speed>
  <fix>3d</fix>
</trkpt>
<trkpt lat="-35.2769747" lon="148.9853594">
  <ele>654.74</ele>
  <time>2026-09-01T20:00:00Z</time>
  <course>176.07</course>
  <speed>25.894285083778623</speed>
  <fix>3d</fix>
</trkpt>
<trkpt lat="-35.2769073" lon="148.9853527">
  <ele>654.17</ele>
  <time>2026-09-01T20:00:00Z</time>
  <course>175.72</course>
  <speed>25.84</speed>
  <fix>3d</fix>
</trkpt>
<trkpt lat="-35.2769978" lon="148.9853614">
  <ele>654.93</ele>
  <time>2026-09-01T20:00:00Z</time>
  <course>176.02</course>
  <speed>25.88431378267541</speed>
  <fix>3d</fix>
</trkpt>
<trkpt lat="-35.2769536" lon="148.9853569">
  <ele>654.55</ele>
  <time>2026-09-01T20:00:00Z</time>
  <course>175.75</course>
  <speed>25.83</speed>
  <fix>3d</fix>
</trkpt>
<trkpt lat="-35.277021" lon="148.9853636">
  <ele>655.12</ele>
  <time>2026-09-01T20:00:00Z</time>
  <course>175.99</course>
  <speed>25.88431378267541</speed>
  <fix>3d</fix>
</trkpt>
<trkpt lat="-35.2769536" lon="148.9853569">
  <ele>654.55</ele>
  <time>2026-09-01T20:00:00Z</time>
  <course>175.75</course>
  <speed>25.83</speed>
  <fix>3d</fix>
</trkpt>
<trkpt lat="-35.277044" lon="148.9853656">
  <ele>655.31</ele>
  <time>2026-09-01T20:00:00Z</time>
  <course>176.01</course>
  <speed>25.874342503723646</speed>
  <fix>3d</fix>
</trkpt>
<trkpt lat="-35.2769999" lon="148.985361">
  <ele>654.93</ele>
  <time>2026-09-01T20:00:00Z</time>
  <course>175.76</course>
  <speed>25.82</speed>
  <fix>3d</fix>
</trkpt>
<trkpt lat="-35.2770672" lon="148.9853677">
  <ele>655.5</ele>
  <time>2026-09-01T20:00:00Z</time>
  <course>176.02</course>
  <speed>25.86361536985887</speed>
  <fix>3d</fix>
</trkpt>
<trkpt lat="-35.2769999" lon="148.985361">
  <ele>654.93</ele>
  <time>2026-09-01T20:00:00Z</time>
  <course>175.76</course>
  <speed>25.82</speed>
  <fix>3d</fix>
</trkpt>
<trkpt lat="-35.2770902" lon="148.9853698">
  <ele>655.69</ele>
  <time>2026-09-01T20:00:00Z</time>
  <course>176.04</course>
  <speed>25.86361536985887</speed>
  <fix>3d</fix>
</trkpt>
<trkpt lat="-35.2770462" lon="148.9853653">
  <ele>655.31</ele>
  <time>2026-09-01T20:00:00Z</time>
  <course>175.76</course>
  <speed>25.81</speed>
  <fix>3d</fix>
</trkpt>
<trkpt lat="-35.2771133" lon="148.9853719">
  <ele>655.88</ele>
  <time>2026-09-01T20:00:00Z</time>
  <course>176.07</course>
  <speed>25.85289152106588</speed>
  <fix>3d</fix>
</trkpt>
<trkpt lat="-35.2770462" lon="148.9853653">
  <ele>655.31</ele>
  <time>2026-09-01T20:00:00Z</time>
  <course>175.76</course>
  <speed>25.81</speed>
  <fix>3d</fix>
</trkpt>
<trkpt lat="-35.2771364" lon="148.9853739">
  <ele>656.07</ele>
  <time>2026-09-01T20:00:00Z</time>
  <course>176.1</course>
  <speed>25.852143044629784</speed>
  <fix>3d</fix>
</trkpt>
<trkpt lat="-35.2770925" lon="148.9853695">
  <ele>655.69</ele>
  <time>2026-09-01T20:00:00Z</time>
  <course>175.77</course>
  <speed>25.8</speed>
  <fix>3d</fix>
</trkpt>
<trkpt lat="-35.2771595" lon="148.985376">
  <ele>656.27</ele>
  <time>2026-09-01T20:00:00Z</time>
  <course>176.12</course>
  <speed>25.841426044241445</speed>
  <fix>3d</fix>
</trkpt>
<trkpt lat="-35.2770925" lon="148.9853695">
  <ele>655.69</ele>
  <time>2026-09-01T20:00:00Z</time>
  <course>175.77</course>
  <speed>25.8</speed>
  <fix>3d</fix>
</trkpt>
<trkpt lat="-35.2771825" lon="148.9853781">
  <ele>656.46</ele>
  <time>2026-09-01T20:00:00Z</time>
  <course>176.13</course>
  <speed>25.841426044241445</speed>
  <fix>3d</fix>
</trkpt>
<trkpt lat="-35.2771387" lon="148.9853736">
  <ele>656.08</ele>
  <time>2026-09-01T20:00:00Z</time>
  <course>175.79</course>
  <speed>25.79</speed>
  <fix>3d</fix>
</trkpt>
<trkpt lat="-35.2772056" lon="148.9853801">
  <ele>656.66</ele>
  <time>2026-09-01T20:00:00Z</time>
  <course>176.08</course>
  <speed>25.83071234015818</speed>
  <fix>3d</fix>
</trkpt>
<trkpt lat="-35.2771387" lon="148.9853736">
  <ele>656.08</ele>
  <time>2026-09-01T20:00:00Z</time>
  <course>175.79</course>
  <speed>25.79</speed>
  <fix>3d</fix>
</trkpt>
<trkpt lat="-35.2772287" lon="148.9853821">
  <ele>656.86</ele>
  <time>2026-09-01T20:00:00Z</time>
  <course>176.06</course>
  <speed>25.820739726041936</speed>
  <fix>3d</fix>
</trkpt>
<trkpt lat="-35.2771849" lon="148.9853778">
  <ele>656.46</ele>
  <time>2026-09-01T20:00:00Z</time>
  <course>175.81</course>
  <speed>25.78</speed>
  <fix>3d</fix>
</trkpt>
<trkpt lat="-35.2772517" lon="148.9853842">
  <ele>657.07</ele>
  <time>2026-09-01T20:00:00Z</time>
  <course>176.04</course>
  <speed>25.810767133117142</speed>
  <fix>3d</fix>
</trkpt>
<trkpt lat="-35.2771849" lon="148.9853778">
  <ele>656.46</ele>
  <time>2026-09-01T20:00:00Z</time>
  <course>175.81</course>
  <speed>25.78</speed>
  <fix>3d</fix>
</trkpt>
<trkpt lat="-35.2772748" lon="148.9853862">
  <ele>657.27</ele>
  <time>2026-09-01T20:00:00Z</time>
  <course>176.07</course>
  <speed>25.800056201489173</speed>
  <fix>3d</fix>
</trkpt>
<trkpt lat="-35.2772311" lon="148.9853819">
  <ele>656.86</ele>
  <time>2026-09-01T20:00:00Z</time>
  <course>175.82</course>
  <speed>25.77</speed>
  <fix>3d</fix>
</trkpt>
<trkpt lat="-35.2772978" lon="148.9853883">
  <ele>657.48</ele>
  <time>2026-09-01T20:00:00Z</time>
  <course>176.16</course>
  <speed>25.78011055057755</speed>
  <fix>3d</fix>
</trkpt>
<trkpt lat="-35.2772311" lon="148.9853819">
  <ele>656.86</ele>
  <time>2026-09-01T20:00:00Z</time>
  <course>175.82</course>
  <speed>25.77</speed>
  <fix>3d</fix>
</trkpt>
<trkpt lat="-35.2773208" lon="148.9853903">
  <ele>657.7</ele>
  <time>2026-09-01T20:00:00Z</time>
  <course>176.15</course>
  <speed>25.77013775671368</speed>
  <fix>3d</fix>
</trkpt>
<trkpt lat="-35.2772773" lon="148.985386">
  <ele>657.28</ele>
  <time>2026-09-01T20:00:00Z</time>
  <course>175.82</course>
  <speed>25.75</speed>
  <fix>3d</fix>
</trkpt>
<trkpt lat="-35.2773438" lon="148.9853924">
  <ele>657.92</ele>
  <time>2026-09-01T20:00:00Z</time>
  <course>176.13</course>
  <speed>25.75942934150522</speed>
  <fix>3d</fix>
</trkpt>
<trkpt lat="-35.2772773" lon="148.985386">
  <ele>657.28</ele>
  <time>2026-09-01T20:00:00Z</time>
  <course>175.82</course>
  <speed>25.75</speed>
  <fix>3d</fix>
</trkpt>
<trkpt lat="-35.2773668" lon="148.9853944">
  <ele>658.15</ele>
  <time>2026-09-01T20:00:00Z</time>
  <course>176.07</course>
  <speed>25.749456304939724</speed>
  <fix>3d</fix>
</trkpt>
<trkpt lat="-35.2773234" lon="148.9853902">
  <ele>657.7</ele>
  <time>2026-09-01T20:00:00Z</time>
  <course>175.83</course>
  <speed>25.73</speed>
  <fix>3d</fix>
</trkpt>
<trkpt lat="-35.27739" lon="148.9853964">
  <ele>658.37</ele>
  <time>2026-09-01T20:00:00Z</time>
  <course>176.12</course>
  <speed>25.738750940945057</speed>
  <fix>3d</fix>
</trkpt>
<trkpt lat="-35.2773234" lon="148.9853902">
  <ele>657.7</ele>
  <time>2026-09-01T20:00:00Z</time>
  <course>175.83</course>
  <speed>25.73</speed>
  <fix>3d</fix>
</trkpt>
<trkpt lat="-35.277413" lon="148.9853984">
  <ele>658.6</ele>
  <time>2026-09-01T20:00:00Z</time>
  <course>176.14</course>
  <speed>25.728048896097818</speed>
  <fix>3d</fix>
</trkpt>
<trkpt lat="-35.2773695" lon="148.9853943">
  <ele>658.15</ele>
  <time>2026-09-01T20:00:00Z</time>
  <course>175.84</course>
  <speed>25.71</speed>
  <fix>3d</fix>
</trkpt>
<trkpt lat="-35.277436" lon="148.9854005">
  <ele>658.82</ele>
  <time>2026-09-01T20:00:00Z</time>
  <course>176.18</course>
  <speed>25.728048896097818</speed>
  <fix>3d</fix>
</trkpt>
<trkpt lat="-35.2773695" lon="148.9853943">
  <ele>658.15</ele>
  <time>2026-09-01T20:00:00Z</time>
  <course>175.84</course>
  <speed>25.71</speed>
  <fix>3d</fix>
</trkpt>
<trkpt lat="-35.277459" lon="148.9854025">
  <ele>659.04</ele>
  <time>2026-09-01T20:00:00Z</time>
  <course>176.18</course>
  <speed>25.717350174541696</speed>
  <fix>3d</fix>
</trkpt>
<trkpt lat="-35.2774155" lon="148.9853984">
  <ele>658.58</ele>
  <time>2026-09-01T20:00:00Z</time>
  <course>175.86</course>
  <speed>25.7</speed>
  <fix>3d</fix>
</trkpt>
<trkpt lat="-35.277482" lon="148.9854045">
  <ele>659.26</ele>
  <time>2026-09-01T20:00:00Z</time>
  <course>176.16</course>
  <speed>25.70665478042602</speed>
  <fix>3d</fix>
</trkpt>
<trkpt lat="-35.2774155" lon="148.9853984">
  <ele>658.58</ele>
  <time>2026-09-01T20:00:00Z</time>
  <course>175.86</course>
  <speed>25.7</speed>
  <fix>3d</fix>
</trkpt>
<trkpt lat="-35.277505" lon="148.9854065">
  <ele>659.48</ele>
  <time>2026-09-01T20:00:00Z</time>
  <course>176.14</course>
  <speed>25.705937057419245</speed>
  <fix>3d</fix>
</trkpt>
<trkpt lat="-35.2774615" lon="148.9854025">
  <ele>659.03</ele>
  <time>2026-09-01T20:00:00Z</time>
  <course>175.89</course>
  <speed>25.69</speed>
  <fix>3d</fix>
</trkpt>
<trkpt lat="-35.2775279" lon="148.9854085">
  <ele>659.71</ele>
  <time>2026-09-01T20:00:00Z</time>
  <course>176.18</course>
  <speed>25.695248588017204</speed>
  <fix>3d</fix>
</trkpt>
<trkpt lat="-35.2774615" lon="148.9854025">
  <ele>659.03</ele>
  <time>2026-09-01T20:00:00Z</time>
  <course>175.89</course>
  <speed>25.69</speed>
  <fix>3d</fix>
</trkpt>
<trkpt lat="-35.2775509" lon="148.9854105">
  <ele>659.94</ele>
  <time>2026-09-01T20:00:00Z</time>
  <course>176.22</course>
  <speed>25.685273991141308</speed>
  <fix>3d</fix>
</trkpt>
<trkpt lat="-35.2775076" lon="148.9854065">
  <ele>659.48</ele>
  <time>2026-09-01T20:00:00Z</time>
  <course>175.91</course>
  <speed>25.67</speed>
  <fix>3d</fix>
</trkpt>
<trkpt lat="-35.2775739" lon="148.9854125">
  <ele>660.17</ele>
  <time>2026-09-01T20:00:00Z</time>
  <course>176.21</course>
  <speed>25.674588604298997</speed>
  <fix>3d</fix>
</trkpt>
<trkpt lat="-35.2775076" lon="148.9854065">
  <ele>659.48</ele>
  <time>2026-09-01T20:00:00Z</time>
  <course>175.91</course>
  <speed>25.67</speed>
  <fix>3d</fix>
</trkpt>
<trkpt lat="-35.2775968" lon="148.9854144">
  <ele>660.39</ele>
  <time>2026-09-01T20:00:00Z</time>
  <course>176.13</course>
  <speed>25.674588604298997</speed>
  <fix>3d</fix>
</trkpt>
<trkpt lat="-35.2775536" lon="148.9854105">
  <ele>659.93</ele>
  <time>2026-09-01T20:00:00Z</time>
  <course>175.93</course>
  <speed>25.65</speed>
  <fix>3d</fix>
</trkpt>
<trkpt lat="-35.2776198" lon="148.9854164">
  <ele>660.62</ele>
  <time>2026-09-01T20:00:00Z</time>
  <course>176.08</course>
  <speed>25.663906561550604</speed>
  <fix>3d</fix>
</trkpt>
<trkpt lat="-35.2775536" lon="148.9854105">
  <ele>659.93</ele>
  <time>2026-09-01T20:00:00Z</time>
  <course>175.93</course>
  <speed>25.65</speed>
  <fix>3d</fix>
</trkpt>
<trkpt lat="-35.2776428" lon="148.9854184">
  <ele>660.85</ele>
  <time>2026-09-01T20:00:00Z</time>
  <course>176.06</course>
  <speed>25.663906561550604</speed>
  <fix>3d</fix>
</trkpt>
<trkpt lat="-35.2775996" lon="148.9854145">
  <ele>660.39</ele>
  <time>2026-09-01T20:00:00Z</time>
  <course>175.95</course>
  <speed>25.64</speed>
  <fix>3d</fix>
</trkpt>
<trkpt lat="-35.2776657" lon="148.9854204">
  <ele>661.08</ele>
  <time>2026-09-01T20:00:00Z</time>
  <course>176.11</course>
  <speed>25.6539314725833</speed>
  <fix>3d</fix>
</trkpt>
<trkpt lat="-35.2775996" lon="148.9854145">
  <ele>660.39</ele>
  <time>2026-09-01T20:00:00Z</time>
  <course>175.95</course>
  <speed>25.64</speed>
  <fix>3d</fix>
</trkpt>
<trkpt lat="-35.2776887" lon="148.9854223">
  <ele>661.31</ele>
  <time>2026-09-01T20:00:00Z</time>
  <course>176.17</course>
  <speed>25.643956403020187</speed>
  <fix>3d</fix>
</trkpt>
<trkpt lat="-35.2776456" lon="148.9854184">
  <ele>660.85</ele>
  <time>2026-09-01T20:00:00Z</time>
  <course>175.96</course>
  <speed>25.63</speed>
  <fix>3d</fix>
</trkpt>
<trkpt lat="-35.2777116" lon="148.9854243">
  <ele>661.54</ele>
  <time>2026-09-01T20:00:00Z</time>
  <course>176.17</course>
  <speed>25.63398135288391</speed>
  <fix>3d</fix>
</trkpt>
<trkpt lat="-35.2776456" lon="148.9854184">
  <ele>660.85</ele>
  <time>2026-09-01T20:00:00Z</time>
  <course>175.96</course>
  <speed>25.63</speed>
  <fix>3d</fix>
</trkpt>
<trkpt lat="-35.2777345" lon="148.9854263">
  <ele>661.78</ele>
  <time>2026-09-01T20:00:00Z</time>
  <course>176.16</course>
  <speed>25.62400632219716</speed>
  <fix>3d</fix>
</trkpt>
<trkpt lat="-35.2776915" lon="148.9854225">
  <ele>661.31</ele>
  <time>2026-09-01T20:00:00Z</time>
  <course>175.96</course>
  <speed>25.62</speed>
  <fix>3d</fix>
</trkpt>
<trkpt lat="-35.2777575" lon="148.9854283">
  <ele>662.01</ele>
  <time>2026-09-01T20:00:00Z</time>
  <course>176.11</course>
  <speed>25.624714632557374</speed>
  <fix>3d</fix>
</trkpt>
<trkpt lat="-35.2776915" lon="148.9854225">
  <ele>661.31</ele>
  <time>2026-09-01T20:00:00Z</time>
  <course>175.96</course>
  <speed>25.62</speed>
  <fix>3d</fix>
</trkpt>
<trkpt lat="-35.2777804" lon="148.9854302">
  <ele>662.24</ele>
  <time>2026-09-01T20:00:00Z</time>
  <course>176.07</course>
  <speed>25.624714632557374</speed>
  <fix>3d</fix>
</trkpt>
<trkpt lat="-35.2777374" lon="148.9854264">
  <ele>661.77</ele>
  <time>2026-09-01T20:00:00Z</time>
  <course>175.95</course>
  <speed>25.6</speed>
  <fix>3d</fix>
</trkpt>
<trkpt lat="-35.2778033" lon="148.9854322">
  <ele>662.48</ele>
  <time>2026-09-01T20:00:00Z</time>
  <course>176.11</course>
  <speed>25.624714632557374</speed>
  <fix>3d</fix>
</trkpt>
<trkpt lat="-35.2777374" lon="148.9854264">
  <ele>661.77</ele>
  <time>2026-09-01T20:00:00Z</time>
  <course>175.95</course>
  <speed>25.6</speed>
  <fix>3d</fix>
</trkpt>
<trkpt lat="-35.2778263" lon="148.9854342">
  <ele>662.71</ele>
  <time>2026-09-01T20:00:00Z</time>
  <course>176.19</course>
  <speed>25.63540130366599</speed>
  <fix>3d</fix>
</trkpt>
<trkpt lat="-35.2777832" lon="148.9854303">
  <ele>662.24</ele>
  <time>2026-09-01T20:00:00Z</time>
  <course>175.93</course>
  <speed>25.6</speed>
  <fix>3d</fix>
</trkpt>
<trkpt lat="-35.2778492" lon="148.9854362">
  <ele>662.94</ele>
  <time>2026-09-01T20:00:00Z</time>
  <course>176.19</course>
  <speed>25.634689387624732</speed>
  <fix>3d</fix>
</trkpt>
<trkpt lat="-35.2777832" lon="148.9854303">
  <ele>662.24</ele>
  <time>2026-09-01T20:00:00Z</time>
  <course>175.93</course>
  <speed>25.6</speed>
  <fix>3d</fix>
</trkpt>
<trkpt lat="-35.2778719" lon="148.9854382">
  <ele>663.17</ele>
  <time>2026-09-01T20:00:00Z</time>
  <course>176.18</course>
  <speed>25.624714632557374</speed>
  <fix>3d</fix>
</trkpt>
<trkpt lat="-35.2778291" lon="148.9854343">
  <ele>662.69</ele>
  <time>2026-09-01T20:00:00Z</time>
  <course>175.93</course>
  <speed>25.6</speed>
  <fix>3d</fix>
</trkpt>
<trkpt lat="-35.2778949" lon="148.9854402">
  <ele>663.4</ele>
  <time>2026-09-01T20:00:00Z</time>
  <course>176.15</course>
  <speed>25.61403131098266</speed>
  <fix>3d</fix>
</trkpt>
<trkpt lat="-35.2778291" lon="148.9854343">
  <ele>662.69</ele>
  <time>2026-09-01T20:00:00Z</time>
  <course>175.93</course>
  <speed>25.6</speed>
  <fix>3d</fix>
</trkpt>
<trkpt lat="-35.2779178" lon="148.9854421">
  <ele>663.64</ele>
  <time>2026-09-01T20:00:00Z</time>
  <course>176.11</course>
  <speed>25.61403131098266</speed>
  <fix>3d</fix>
</trkpt>
<trkpt lat="-35.277875" lon="148.9854384">
  <ele>663.16</ele>
  <time>2026-09-01T20:00:00Z</time>
  <course>175.94</course>
  <speed>25.6</speed>
  <fix>3d</fix>
</trkpt>
<trkpt lat="-35.2779411" lon="148.9854442">
  <ele>663.88</ele>
  <time>2026-09-01T20:00:00Z</time>
  <course>176.14</course>
  <speed>25.61403131098266</speed>
  <fix>3d</fix>
</trkpt>
<trkpt lat="-35.277875" lon="148.9854384">
  <ele>663.16</ele>
  <time>2026-09-01T20:00:00Z</time>
  <course>175.94</course>
  <speed>25.6</speed>
  <fix>3d</fix>
</trkpt>
<trkpt lat="-35.277964" lon="148.9854461">
  <ele>664.12</ele>
  <time>2026-09-01T20:00:00Z</time>
  <course>176.15</course>
  <speed>25.613326609403938</speed>
  <fix>3d</fix>
</trkpt>
<trkpt lat="-35.2779209" lon="148.9854424">
  <ele>663.64</ele>
  <time>2026-09-01T20:00:00Z</time>
  <course>175.95</course>
  <speed>25.59</speed>
  <fix>3d</fix>
</trkpt>
<trkpt lat="-35.2779869" lon="148.9854481">
  <ele>664.36</ele>
  <time>2026-09-01T20:00:01Z</time>
  <course>176.16</course>
  <speed>25.60335134313475</speed>
  <fix>3d</fix>
</trkpt>
<trkpt lat="-35.2779209" lon="148.9854424">
  <ele>663.64</ele>
  <time>2026-09-01T20:00:01Z</time>
  <course>175.95</course>
  <speed>25.59</speed>
  <fix>3d</fix>
</trkpt>
<trkpt lat="-35.2780099" lon="148.9854501">
  <ele>664.61</ele>
  <time>2026-09-01T20:00:01Z</time>
  <course>176.16</course>
  <speed>25.604056319263165</speed>
  <fix>3d</fix>
</trkpt>
<trkpt lat="-35.2779667" lon="148.9854463">
  <ele>664.12</ele>
  <time>2026-09-01T20:00:01Z</time>
  <course>175.95</course>
  <speed>25.58</speed>
  <fix>3d</fix>
</trkpt>
<trkpt lat="-35.2780328" lon="148.9854521">
  <ele>664.85</ele>
  <time>2026-09-01T20:00:01Z</time>
  <course>176.18</course>
  <speed>25.61403131098266</speed>
  <fix>3d</fix>
</trkpt>
<trkpt lat="-35.2779667" lon="148.9854463">
  <ele>664.12</ele>
  <time>2026-09-01T20:00:01Z</time>
  <course>175.95</course>
  <speed>25.58</speed>
  <fix>3d</fix>
</trkpt>
<trkpt lat="-35.2780558" lon="148.9854541">
  <ele>665.09</ele>
  <time>2026-09-01T20:00:01Z</time>
  <course>176.17</course>
  <speed>25.61403131098266</speed>
  <fix>3d</fix>
</trkpt>
<trkpt lat="-35.2780127" lon="148.9854503">
  <ele>664.6</ele>
  <time>2026-09-01T20:00:01Z</time>
  <course>175.95</course>
  <speed>25.58</speed>
  <fix>3d</fix>
</trkpt>
<trkpt lat="-35.2780787" lon="148.9854561">
  <ele>665.34</ele>
  <time>2026-09-01T20:00:01Z</time>
  <course>176.22</course>
  <speed>25.604056319263165</speed>
  <fix>3d</fix>
</trkpt>
<trkpt lat="-35.2780127" lon="148.9854503">
  <ele>664.6</ele>
  <time>2026-09-01T20:00:01Z</time>
  <course>175.95</course>
  <speed>25.58</speed>
  <fix>3d</fix>
</trkpt>
<trkpt lat="-35.2781017" lon="148.985458">
  <ele>665.59</ele>
  <time>2026-09-01T20:00:01Z</time>
  <course>176.16</course>
  <speed>25.604056319263165</speed>
  <fix>3d</fix>
</trkpt>
<trkpt lat="-35.2780585" lon="148.9854542">
  <ele>665.08</ele>
  <time>2026-09-01T20:00:01Z</time>
  <course>175.95</course>
  <speed>25.57</speed>
  <fix>3d</fix>
</trkpt>
<trkpt lat="-35.2781247" lon="148.98546">
  <ele>665.85</ele>
  <time>2026-09-01T20:00:01Z</time>
  <course>176.17</course>
  <speed>25.604056319263165</speed>
  <fix>3d</fix>
</trkpt>
<trkpt lat="-35.2780585" lon="148.9854542">
  <ele>665.08</ele>
  <time>2026-09-01T20:00:01Z</time>
  <course>175.95</course>
  <speed>25.57</speed>
  <fix>3d</fix>
</trkpt>
<trkpt lat="-35.2781477" lon="148.985462">
  <ele>666.1</ele>
  <time>2026-09-01T20:00:01Z</time>
  <course>176.21</course>
  <speed>25.60335134313475</speed>
  <fix>3d</fix>
</trkpt>
<trkpt lat="-35.2781044" lon="148.9854583">
  <ele>665.58</ele>
  <time>2026-09-01T20:00:01Z</time>
  <course>175.95</course>
  <speed>25.56</speed>
  <fix>3d</fix>
</trkpt>
<trkpt lat="-35.2781707" lon="148.985464">
  <ele>666.36</ele>
  <time>2026-09-01T20:00:01Z</time>
  <course>176.22</course>
  <speed>25.60265025344056</speed>
  <fix>3d</fix>
</trkpt>
<trkpt lat="-35.2781044" lon="148.9854583">
  <ele>665.58</ele>
  <time>2026-09-01T20:00:01Z</time>
  <course>175.95</course>
  <speed>25.56</speed>
  <fix>3d</fix>
</trkpt>
<trkpt lat="-35.2781936" lon="148.985466">
  <ele>666.62</ele>
  <time>2026-09-01T20:00:01Z</time>
  <course>176.24</course>
  <speed>25.60265025344056</speed>
  <fix>3d</fix>
</trkpt>
<trkpt lat="-35.2781502" lon="148.9854622">
  <ele>666.09</ele>
  <time>2026-09-01T20:00:01Z</time>
  <course>175.96</course>
  <speed>25.56</speed>
  <fix>3d</fix>
</trkpt>
<trkpt lat="-35.2782164" lon="148.9854679">
  <ele>666.88</ele>
  <time>2026-09-01T20:00:01Z</time>
  <course>176.2</course>
  <speed>25.60195305049988</speed>
  <fix>3d</fix>
</trkpt>
<trkpt lat="-35.2781502" lon="148.9854622">
  <ele>666.09</ele>
  <time>2026-09-01T20:00:01Z</time>
  <course>175.96</course>
  <speed>25.56</speed>
  <fix>3d</fix>
</trkpt>
<trkpt lat="-35.2782392" lon="148.9854699">
  <ele>667.13</ele>
  <time>2026-09-01T20:00:01Z</time>
  <course>176.12</course>
  <speed>25.59197725850818</speed>
  <fix>3d</fix>
</trkpt>
<trkpt lat="-35.2781959" lon="148.9854662">
  <ele>666.6</ele>
  <time>2026-09-01T20:00:01Z</time>
  <course>175.99</course>
  <speed>25.56</speed>
  <fix>3d</fix>
</trkpt>
<trkpt lat="-35.278262" lon="148.9854718">
  <ele>667.39</ele>
  <time>2026-09-01T20:00:01Z</time>
  <course>176.09</course>
  <speed>25.59197725850818</speed>
  <fix>3d</fix>
</trkpt>
<trkpt lat="-35.2781959" lon="148.9854662">
  <ele>666.6</ele>
  <time>2026-09-01T20:00:01Z</time>
  <course>175.99</course>
  <speed>25.56</speed>
  <fix>3d</fix>
</trkpt>
<trkpt lat="-35.2782848" lon="148.9854737">
  <ele>667.65</ele>
  <time>2026-09-01T20:00:01Z</time>
  <course>176.15</course>
  <speed>25.58200148541939</speed>
  <fix>3d</fix>
</trkpt>
<trkpt lat="-35.2782418" lon="148.9854701">
  <ele>667.11</ele>
  <time>2026-09-01T20:00:01Z</time>
  <course>176.0</course>
  <speed>25.56</speed>
  <fix>3d</fix>
</trkpt>
<trkpt lat="-35.2783076" lon="148.9854757">
  <ele>667.92</ele>
  <time>2026-09-01T20:00:01Z</time>
  <course>176.21</course>
  <speed>25.572025731255632</speed>
  <fix>3d</fix>
</trkpt>
<trkpt lat="-35.2782418" lon="148.9854701">
  <ele>667.11</ele>
  <time>2026-09-01T20:00:01Z</time>
  <course>176.0</course>
  <speed>25.56</speed>
  <fix>3d</fix>
</trkpt>
<trkpt lat="-35.2783303" lon="148.9854776">
  <ele>668.18</ele>
  <time>2026-09-01T20:00:01Z</time>
  <course>176.21</course>
  <speed>25.571331603966186</speed>
  <fix>3d</fix>
</trkpt>
<trkpt lat="-35.2782876" lon="148.985474">
  <ele>667.63</ele>
  <time>2026-09-01T20:00:01Z</time>
  <course>176.0</course>
  <speed>25.55</speed>
  <fix>3d</fix>
</trkpt>
<trkpt lat="-35.2783529" lon="148.9854796">
  <ele>668.44</ele>
  <time>2026-09-01T20:00:01Z</time>
  <course>176.21</course>
  <speed>25.561355597855137</speed>
  <fix>3d</fix>
</trkpt>
<trkpt lat="-35.2782876" lon="148.985474">
  <ele>667.63</ele>
  <time>2026-09-01T20:00:01Z</time>
  <course>176.0</course>
  <speed>25.55</speed>
  <fix>3d</fix>
</trkpt>
<trkpt lat="-35.2783757" lon="148.9854815">
  <ele>668.71</ele>
  <time>2026-09-01T20:00:01Z</time>
  <course>176.21</course>
  <speed>25.550688836115555</speed>
  <fix>3d</fix>
</trkpt>
<trkpt lat="-35.2783333" lon="148.9854779">
  <ele>668.16</ele>
  <time>2026-09-01T20:00:01Z</time>
  <course>176.01</course>
  <speed>25.55</speed>
  <fix>3d</fix>
</trkpt>
<trkpt lat="-35.2783985" lon="148.9854834">
  <ele>668.98</ele>
  <time>2026-09-01T20:00:01Z</time>
  <course>176.2</course>
  <speed>25.550688836115555</speed>
  <fix>3d</fix>
</trkpt>
<trkpt lat="-35.2783333" lon="148.9854779">
  <ele>668.16</ele>
  <time>2026-09-01T20:00:01Z</time>
  <course>176.01</course>
  <speed>25.55</speed>
  <fix>3d</fix>
</trkpt>
<trkpt lat="-35.2784213" lon="148.9854853">
  <ele>669.25</ele>
  <time>2026-09-01T20:00:01Z</time>
  <course>176.17</course>
  <speed>25.551379610502444</speed>
  <fix>3d</fix>
</trkpt>
<trkpt lat="-35.2783792" lon="148.9854818">
  <ele>668.69</ele>
  <time>2026-09-01T20:00:01Z</time>
  <course>176.03</course>
  <speed>25.55</speed>
  <fix>3d</fix>
</trkpt>
<trkpt lat="-35.2784442" lon="148.9854873">
  <ele>669.52</ele>
  <time>2026-09-01T20:00:01Z</time>
  <course>176.22</course>
  <speed>25.550688836115555</speed>
  <fix>3d</fix>
</trkpt>
<trkpt lat="-35.2783792" lon="148.9854818">
  <ele>668.69</ele>
  <time>2026-09-01T20:00:01Z</time>
  <course>176.03</course>
  <speed>25.55</speed>
  <fix>3d</fix>
</trkpt>
<trkpt lat="-35.278467" lon="148.9854892">
  <ele>669.79</ele>
  <time>2026-09-01T20:00:01Z</time>
  <course>176.3</course>
  <speed>25.540712597733055</speed>
  <fix>3d</fix>
</trkpt>
<trkpt lat="-35.2784249" lon="148.9854857">
  <ele>669.23</ele>
  <time>2026-09-01T20:00:01Z</time>
  <course>176.04</course>
  <speed>25.55</speed>
  <fix>3d</fix>
</trkpt>
<trkpt lat="-35.2784899" lon="148.9854912">
  <ele>670.06</ele>
  <time>2026-09-01T20:00:01Z</time>
  <course>176.31</course>
  <speed>25.55000195694709</speed>
  <fix>3d</fix>
</trkpt>
<trkpt lat="-35.2784249" lon="148.9854857">
  <ele>669.23</ele>
  <time>2026-09-01T20:00:01Z</time>
  <course>176.04</course>
  <speed>25.55</speed>
  <fix>3d</fix>
</trkpt>
<trkpt lat="-35.2785127" lon="148.9854931">
  <ele>670.32</ele>
  <time>2026-09-01T20:00:01Z</time>
  <course>176.24</course>
  <speed>25.549318973311205</speed>
  <fix>3d</fix>
</trkpt>
<trkpt lat="-35.2784707" lon="148.9854896">
  <ele>669.76</ele>
  <time>2026-09-01T20:00:01Z</time>
  <course>176.05</course>
  <speed>25.56</speed>
  <fix>3d</fix>
</trkpt>
<trkpt lat="-35.2785355" lon="148.985495">
  <ele>670.59</ele>
  <time>2026-09-01T20:00:01Z</time>
  <course>176.15</course>
  <speed>25.539342199829658</speed>
  <fix>3d</fix>
</trkpt>
<trkpt lat="-35.2784707" lon="148.9854896">
  <ele>669.76</ele>
  <time>2026-09-01T20:00:01Z</time>
  <course>176.05</course>
  <speed>25.56</speed>
  <fix>3d</fix>
</trkpt>
<trkpt lat="-35.2785586" lon="148.9854969">
  <ele>670.87</ele>
  <time>2026-09-01T20:00:01Z</time>
  <course>176.17</course>
  <speed>25.5400254502614</speed>
  <fix>3d</fix>
</trkpt>
<trkpt lat="-35.2785165" lon="148.9854934">
  <ele>670.3</ele>
  <time>2026-09-01T20:00:01Z</time>
  <course>176.08</course>
  <speed>25.56</speed>
  <fix>3d</fix>
</trkpt>
<trkpt lat="-35.2785816" lon="148.9854989">
  <ele>671.14</ele>
  <time>2026-09-01T20:00:01Z</time>
  <course>176.24</course>
  <speed>25.55000195694709</speed>
  <fix>3d</fix>
</trkpt>
<trkpt lat="-35.2785165" lon="148.9854934">
  <ele>670.3</ele>
  <time>2026-09-01T20:00:01Z</time>
  <course>176.08</course>
  <speed>25.56</speed>
  <fix>3d</fix>
</trkpt>
<trkpt lat="-35.2786046" lon="148.9855008">
  <ele>671.42</ele>
  <time>2026-09-01T20:00:01Z</time>
  <course>176.26</course>
  <speed>25.559978481994072</speed>
  <fix>3d</fix>
</trkpt>
<trkpt lat="-35.2785624" lon="148.9854973">
  <ele>670.83</ele>
  <time>2026-09-01T20:00:01Z</time>
  <course>176.08</course>
  <speed>25.56</speed>
  <fix>3d</fix>
</trkpt>
<trkpt lat="-35.2786277" lon="148.9855027">
  <ele>671.69</ele>
  <time>2026-09-01T20:00:01Z</time>
  <course>176.25</course>
  <speed>25.559978481994072</speed>
  <fix>3d</fix>
</trkpt>
<trkpt lat="-35.2785624" lon="148.9854973">
  <ele>670.83</ele>
  <time>2026-09-01T20:00:01Z</time>
  <course>176.08</course>
  <speed>25.56</speed>
  <fix>3d</fix>
</trkpt>
<trkpt lat="-35.2786506" lon="148.9855047">
  <ele>671.97</ele>
  <time>2026-09-01T20:00:01Z</time>
  <course>176.27</course>
  <speed>25.559978481994072</speed>
  <fix>3d</fix>
</trkpt>
<trkpt lat="-35.2786083" lon="148.9855011">
  <ele>671.38</ele>
  <time>2026-09-01T20:00:01Z</time>
  <course>176.07</course>
  <speed>25.55</speed>
  <fix>3d</fix>
</trkpt>
<trkpt lat="-35.2786736" lon="148.9855066">
  <ele>672.24</ele>
  <time>2026-09-01T20:00:01Z</time>
  <course>176.25</course>
  <speed>25.559978481994072</speed>
  <fix>3d</fix>
</trkpt>
<trkpt lat="-35.2786083" lon="148.9855011">
  <ele>671.38</ele>
  <time>2026-09-01T20:00:01Z</time>
  <course>176.07</course>
  <speed>25.55</speed>
  <fix>3d</fix>
</trkpt>
<trkpt lat="-35.2786965" lon="148.9855085">
  <ele>672.52</ele>
  <time>2026-09-01T20:00:01Z</time>
  <course>176.26</course>
  <speed>25.559978481994072</speed>
  <fix>3d</fix>
</trkpt>
<trkpt lat="-35.2786541" lon="148.985505">
  <ele>671.93</ele>
  <time>2026-09-01T20:00:01Z</time>
  <course>176.07</course>
  <speed>25.55</speed>
  <fix>3d</fix>
</trkpt>
<trkpt lat="-35.2787194" lon="148.9855105">
  <ele>672.81</ele>
  <time>2026-09-01T20:00:01Z</time>
  <course>176.27</course>
  <speed>25.559978481994072</speed>
  <fix>3d</fix>
</trkpt>
<trkpt lat="-35.2786541" lon="148.985505">
  <ele>671.93</ele>
  <time>2026-09-01T20:00:01Z</time>
  <course>176.07</course>
  <speed>25.55</speed>
  <fix>3d</fix>
</trkpt>
<trkpt lat="-35.2787423" lon="148.9855124">
  <ele>673.09</ele>
  <time>2026-09-01T20:00:01Z</time>
  <course>176.25</course>
  <speed>25.549318973311205</speed>
  <fix>3d</fix>
</trkpt>
<trkpt lat="-35.2786999" lon="148.9855088">
  <ele>672.48</ele>
  <time>2026-09-01T20:00:01Z</time>
  <course>176.07</course>
  <speed>25.55</speed>
  <fix>3d</fix>
</trkpt>
<trkpt lat="-35.2787652" lon="148.9855143">
  <ele>673.37</ele>
  <time>2026-09-01T20:00:01Z</time>
  <course>176.19</course>
  <speed>25.559295764946263</speed>
  <fix>3d</fix>
</trkpt>
<trkpt lat="-35.2786999" lon="148.9855088">
  <ele>672.48</ele>
  <time>2026-09-01T20:00:01Z</time>
  <course>176.07</course>
  <speed>25.55</speed>
  <fix>3d</fix>
</trkpt>
<trkpt lat="-35.2787881" lon="148.9855162">
  <ele>673.65</ele>
  <time>2026-09-01T20:00:01Z</time>
  <course>176.19</course>
  <speed>25.549318973311205</speed>
  <fix>3d</fix>
</trkpt>
<trkpt lat="-35.2787457" lon="148.9855126">
  <ele>673.04</ele>
  <time>2026-09-01T20:00:01Z</time>
  <course>176.08</course>
  <speed>25.54</speed>
  <fix>3d</fix>
</trkpt>
<trkpt lat="-35.2788107" lon="148.9855181">
  <ele>673.92</ele>
  <time>2026-09-01T20:00:01Z</time>
  <course>176.2</course>
  <speed>25.559978481994072</speed>
  <fix>3d</fix>
</trkpt>
<trkpt lat="-35.2787457" lon="148.9855126">
  <ele>673.04</ele>
  <time>2026-09-01T20:00:01Z</time>
  <course>176.08</course>
  <speed>25.54</speed>
  <fix>3d</fix>
</trkpt>
<trkpt lat="-35.2788337" lon="148.98552">
  <ele>674.2</ele>
  <time>2026-09-01T20:00:01Z</time>
  <course>176.23</course>
  <speed>25.569955025380864</speed>
  <fix>3d</fix>
</trkpt>
<trkpt lat="-35.2787914" lon="148.9855165">
  <ele>673.6</ele>
  <time>2026-09-01T20:00:01Z</time>
  <course>176.08</course>
  <speed>25.54</speed>
  <fix>3d</fix>
</trkpt>
<trkpt lat="-35.2788567" lon="148.985522">
  <ele>674.47</ele>
  <time>2026-09-01T20:00:01Z</time>
  <course>176.28</course>
  <speed>25.579931587085998</speed>
  <fix>3d</fix>
</trkpt>
<trkpt lat="-35.2787914" lon="148.9855165">
  <ele>673.6</ele>
  <time>2026-09-01T20:00:01Z</time>
  <course>176.08</course>
  <speed>25.54</speed>
  <fix>3d</fix>
</trkpt>
<trkpt lat="-35.2788798" lon="148.9855239">
  <ele>674.74</ele>
  <time>2026-09-01T20:00:01Z</time>
  <course>176.23</course>
  <speed>25.579249402591937</speed>
  <fix>3d</fix>
</trkpt>
<trkpt lat="-35.2788372" lon="148.9855203">
  <ele>674.15</ele>
  <time>2026-09-01T20:00:01Z</time>
  <course>176.08</course>
  <speed>25.55</speed>
  <fix>3d</fix>
</trkpt>
<trkpt lat="-35.2789028" lon="148.9855258">
  <ele>675.02</ele>
  <time>2026-09-01T20:00:01Z</time>
  <course>176.17</course>
  <speed>25.589226248560152</speed>
  <fix>3d</fix>
</trkpt>
<trkpt lat="-35.2788372" lon="148.9855203">
  <ele>674.15</ele>
  <time>2026-09-01T20:00:01Z</time>
  <course>176.08</course>
  <speed>25.55</speed>
  <fix>3d</fix>
</trkpt>
<trkpt lat="-35.2789261" lon="148.9855277">
  <ele>675.29</ele>
  <time>2026-09-01T20:00:01Z</time>
  <course>176.19</course>
  <speed>25.589226248560152</speed>
  <fix>3d</fix>
</trkpt>
<trkpt lat="-35.2788829" lon="148.9855241">
  <ele>674.69</ele>
  <time>2026-09-01T20:00:01Z</time>
  <course>176.09</course>
  <speed>25.55</speed>
  <fix>3d</fix>
</trkpt>
<trkpt lat="-35.2789492" lon="148.9855297">
  <ele>675.57</ele>
  <time>2026-09-01T20:00:01Z</time>
  <course>176.17</course>
  <speed>25.59852534815238</speed>
  <fix>3d</fix>
</trkpt>
<trkpt lat="-35.2788829" lon="148.9855241">
  <ele>674.69</ele>
  <time>2026-09-01T20:00:01Z</time>
  <course>176.09</course>
  <speed>25.55</speed>
  <fix>3d</fix>
</trkpt>
<trkpt lat="-35.2789722" lon="148.9855316">
  <ele>675.84</ele>
  <time>2026-09-01T20:00:01Z</time>
  <course>176.13</course>
  <speed>25.599203112597078</speed>
  <fix>3d</fix>
</trkpt>
<trkpt lat="-35.2789288" lon="148.9855279">
  <ele>675.24</ele>
  <time>2026-09-01T20:00:01Z</time>
  <course>176.11</course>
  <speed>25.54</speed>
  <fix>3d</fix>
</trkpt>
<trkpt lat="-35.2789953" lon="148.9855335">
  <ele>676.11</ele>
  <time>2026-09-01T20:00:01Z</time>
  <course>176.11</course>
  <speed>25.609179994681593</speed>
  <fix>3d</fix>
</trkpt>
<trkpt lat="-35.2789288" lon="148.9855279">
  <ele>675.24</ele>
  <time>2026-09-01T20:00:01Z</time>
  <course>176.11</course>
  <speed>25.54</speed>
  <fix>3d</fix>
</trkpt>
<trkpt lat="-35.2790184" lon="148.9855354">
  <ele>676.39</ele>
  <time>2026-09-01T20:00:01Z</time>
  <course>176.17</course>
  <speed>25.609861381897403</speed>
  <fix>3d</fix>
</trkpt>
<trkpt lat="-35.2789747" lon="148.9855318">
  <ele>675.79</ele>
  <time>2026-09-01T20:00:01Z</time>
  <course>176.11</course>
  <speed>25.54</speed>
  <fix>3d</fix>
</trkpt>
<trkpt lat="-35.2790414" lon="148.9855374">
  <ele>676.67</ele>
  <time>2026-09-01T20:00:01Z</time>
  <course>176.19</course>
  <speed>25.62052302354501</speed>
  <fix>3d</fix>
</trkpt>
<trkpt lat="-35.2789747" lon="148.9855318">
  <ele>675.79</ele>
  <time>2026-09-01T20:00:01Z</time>
  <course>176.11</course>
  <speed>25.54</speed>
  <fix>3d</fix>
</trkpt>
<trkpt lat="-35.2790643" lon="148.9855393">
  <ele>676.95</ele>
  <time>2026-09-01T20:00:01Z</time>
  <course>176.2</course>
  <speed>25.62052302354501</speed>
  <fix>3d</fix>
</trkpt>
<trkpt lat="-35.2790205" lon="148.9855356">
  <ele>676.35</ele>
  <time>2026-09-01T20:00:01Z</time>
  <course>176.08</course>
  <speed>25.55</speed>
  <fix>3d</fix>
</trkpt>
<trkpt lat="-35.2790873" lon="148.9855412">
  <ele>677.23</ele>
  <time>2026-09-01T20:00:01Z</time>
  <course>176.16</course>
  <speed>25.62121191513001</speed>
  <fix>3d</fix>
</trkpt>
<trkpt lat="-35.2790205" lon="148.9855356">
  <ele>676.35</ele>
  <time>2026-09-01T20:00:01Z</time>
  <course>176.08</course>
  <speed>25.55</speed>
  <fix>3d</fix>
</trkpt>
<trkpt lat="-35.2791101" lon="148.9855432">
  <ele>677.51</ele>
  <time>2026-09-01T20:00:01Z</time>
  <course>176.18</course>
  <speed>25.631188033331583</speed>
  <fix>3d</fix>
</trkpt>
<trkpt lat="-35.2790662" lon="148.9855394">
  <ele>676.91</ele>
  <time>2026-09-01T20:00:01Z</time>
  <course>176.06</course>
  <speed>25.55</speed>
  <fix>3d</fix>
</trkpt>
<trkpt lat="-35.279133" lon="148.9855451">
  <ele>677.79</ele>
  <time>2026-09-01T20:00:01Z</time>
  <course>176.17</course>
  <speed>25.631188033331583</speed>
  <fix>3d</fix>
</trkpt>
<trkpt lat="-35.2790662" lon="148.9855394">
  <ele>676.91</ele>
  <time>2026-09-01T20:00:01Z</time>
  <course>176.06</course>
  <speed>25.55</speed>
  <fix>3d</fix>
</trkpt>
<trkpt lat="-35.2791558" lon="148.985547">
  <ele>678.06</ele>
  <time>2026-09-01T20:00:01Z</time>
  <course>176.17</course>
  <speed>25.62121191513001</speed>
  <fix>3d</fix>
</trkpt>
<trkpt lat="-35.2791121" lon="148.9855433">
  <ele>677.47</ele>
  <time>2026-09-01T20:00:01Z</time>
  <course>176.05</course>
  <speed>25.55</speed>
  <fix>3d</fix>
</trkpt>
<trkpt lat="-35.2791786" lon="148.985549">
  <ele>678.34</ele>
  <time>2026-09-01T20:00:01Z</time>
  <course>176.11</course>
  <speed>25.621904691103666</speed>
  <fix>3d</fix>
</trkpt>
<trkpt lat="-35.2791121" lon="148.9855433">
  <ele>677.47</ele>
  <time>2026-09-01T20:00:01Z</time>
  <course>176.05</course>
  <speed>25.55</speed>
  <fix>3d</fix>
</trkpt>
<trkpt lat="-35.2792016" lon="148.9855509">
  <ele>678.62</ele>
  <time>2026-09-01T20:00:01Z</time>
  <course>176.15</course>
  <speed>25.631880539671684</speed>
  <fix>3d</fix>
</trkpt>
<trkpt lat="-35.2791579" lon="148.9855472">
  <ele>678.03</ele>
  <time>2026-09-01T20:00:01Z</time>
  <course>176.05</course>
  <speed>25.56</speed>
  <fix>3d</fix>
</trkpt>
<trkpt lat="-35.2792244" lon="148.9855529">
  <ele>678.9</ele>
  <time>2026-09-01T20:00:01Z</time>
  <course>176.17</course>
  <speed>25.621904691103666</speed>
  <fix>3d</fix>
</trkpt>
<trkpt lat="-35.2791579" lon="148.9855472">
  <ele>678.03</ele>
  <time>2026-09-01T20:00:01Z</time>
  <course>176.05</course>
  <speed>25.56</speed>
  <fix>3d</fix>
</trkpt>
<trkpt lat="-35.2792472" lon="148.9855548">
  <ele>679.18</ele>
  <time>2026-09-01T20:00:01Z</time>
  <course>176.19</course>
  <speed>25.61192886137239</speed>
  <fix>3d</fix>
</trkpt>
<trkpt lat="-35.2792036" lon="148.9855511">
  <ele>678.58</ele>
  <time>2026-09-01T20:00:01Z</time>
  <course>176.04</course>
  <speed>25.57</speed>
  <fix>3d</fix>
</trkpt>
<trkpt lat="-35.27927" lon="148.9855567">
  <ele>679.46</ele>
  <time>2026-09-01T20:00:01Z</time>
  <course>176.15</course>
  <speed>25.601259734630247</speed>
  <fix>3d</fix>
</trkpt>
<trkpt lat="-35.2792036" lon="148.9855511">
  <ele>678.58</ele>
  <time>2026-09-01T20:00:01Z</time>
  <course>176.04</course>
  <speed>25.57</speed>
  <fix>3d</fix>
</trkpt>
<trkpt lat="-35.2792928" lon="148.9855587">
  <ele>679.74</ele>
  <time>2026-09-01T20:00:01Z</time>
  <course>176.07</course>
  <speed>25.61123581555564</speed>
  <fix>3d</fix>
</trkpt>
<trkpt lat="-35.2792495" lon="148.985555">
  <ele>679.14</ele>
  <time>2026-09-01T20:00:01Z</time>
  <course>176.05</course>
  <speed>25.57</speed>
  <fix>3d</fix>
</trkpt>
<trkpt lat="-35.2793157" lon="148.9855606">
  <ele>680.02</ele>
  <time>2026-09-01T20:00:01Z</time>
  <course>176.05</course>
  <speed>25.61192886137239</speed>
  <fix>3d</fix>
</trkpt>
<trkpt lat="-35.2792495" lon="148.985555">
  <ele>679.14</ele>
  <time>2026-09-01T20:00:01Z</time>
  <course>176.05</course>
  <speed>25.57</speed>
  <fix>3d</fix>
</trkpt>
<trkpt lat="-35.2793387" lon="148.9855626">
  <ele>680.3</ele>
  <time>2026-09-01T20:00:01Z</time>
  <course>176.06</course>
  <speed>25.621904691103666</speed>
  <fix>3d</fix>
</trkpt>
<trkpt lat="-35.2792953" lon="148.9855588">
  <ele>679.7</ele>
  <time>2026-09-01T20:00:01Z</time>
  <course>176.05</course>
  <speed>25.57</speed>
  <fix>3d</fix>
</trkpt>
<trkpt lat="-35.2793617" lon="148.9855645">
  <ele>680.58</ele>
  <time>2026-09-01T20:00:01Z</time>
  <course>176.12</course>
  <speed>25.6226013511509</speed>
  <fix>3d</fix>
</trkpt>
<trkpt lat="-35.2792953" lon="148.9855588">
  <ele>679.7</ele>
  <time>2026-09-01T20:00:01Z</time>
  <course>176.05</course>
  <speed>25.57</speed>
  <fix>3d</fix>
</trkpt>
<trkpt lat="-35.279385" lon="148.9855665">
  <ele>680.86</ele>
  <time>2026-09-01T20:00:01Z</time>
  <course>176.19</course>
  <speed>25.631880539671684</speed>
  <fix>3d</fix>
</trkpt>
<trkpt lat="-35.2793412" lon="148.9855627">
  <ele>680.26</ele>
  <time>2026-09-01T20:00:01Z</time>
  <course>176.03</course>
  <speed>25.58</speed>
  <fix>3d</fix>
</trkpt>
<trkpt lat="-35.279408" lon="148.9855685">
  <ele>681.14</ele>
  <time>2026-09-01T20:00:01Z</time>
  <course>176.16</course>
  <speed>25.641856407054462</speed>
  <fix>3d</fix>
</trkpt>
<trkpt lat="-35.2793412" lon="148.9855627">
  <ele>680.26</ele>
  <time>2026-09-01T20:00:01Z</time>
  <course>176.03</course>
  <speed>25.58</speed>
  <fix>3d</fix>
</trkpt>
<trkpt lat="-35.2794311" lon="148.9855704">
  <ele>681.42</ele>
  <time>2026-09-01T20:00:01Z</time>
  <course>176.1</course>
  <speed>25.641856407054462</speed>
  <fix>3d</fix>
</trkpt>
<trkpt lat="-35.279387" lon="148.9855666">
  <ele>680.81</ele>
  <time>2026-09-01T20:00:01Z</time>
  <course>176.03</course>
  <speed>25.58</speed>
  <fix>3d</fix>
</trkpt>
<trkpt lat="-35.2794541" lon="148.9855724">
  <ele>681.7</ele>
  <time>2026-09-01T20:00:01Z</time>
  <course>176.06</course>
  <speed>25.65252814051668</speed>
  <fix>3d</fix>
</trkpt>
<trkpt lat="-35.279387" lon="148.9855666">
  <ele>680.81</ele>
  <time>2026-09-01T20:00:01Z</time>
  <course>176.03</course>
  <speed>25.58</speed>
  <fix>3d</fix>
</trkpt>
<trkpt lat="-35.2794772" lon="148.9855743">
  <ele>681.98</ele>
  <time>2026-09-01T20:00:01Z</time>
  <course>176.01</course>
  <speed>25.662503774963188</speed>
  <fix>3d</fix>
</trkpt>
<trkpt lat="-35.279433" lon="148.9855705">
  <ele>681.37</ele>
  <time>2026-09-01T20:00:01Z</time>
  <course>176.04</course>
  <speed>25.58</speed>
  <fix>3d</fix>
</trkpt>
<trkpt lat="-35.2795002" lon="148.9855763">
  <ele>682.26</ele>
  <time>2026-09-01T20:00:01Z</time>
  <course>176.01</course>
  <speed>25.662503774963188</speed>
  <fix>3d</fix>
</trkpt>
<trkpt lat="-35.279433" lon="148.9855705">
  <ele>681.37</ele>
  <time>2026-09-01T20:00:01Z</time>
  <course>176.04</course>
  <speed>25.58</speed>
  <fix>3d</fix>
</trkpt>
<trkpt lat="-35.2795231" lon="148.9855783">
  <ele>682.53</ele>
  <time>2026-09-01T20:00:01Z</time>
  <course>176.06</course>
  <speed>25.663203229526903</speed>
  <fix>3d</fix>
</trkpt>
<trkpt lat="-35.2794789" lon="148.9855744">
  <ele>681.93</ele>
  <time>2026-09-01T20:00:01Z</time>
  <course>176.03</course>
  <speed>25.59</speed>
  <fix>3d</fix>
</trkpt>
<trkpt lat="-35.2795461" lon="148.9855802">
  <ele>682.81</ele>
  <time>2026-09-01T20:00:01Z</time>
  <course>176.11</course>
  <speed>25.663203229526903</speed>
  <fix>3d</fix>
</trkpt>
<trkpt lat="-35.2794789" lon="148.9855744">
  <ele>681.93</ele>
  <time>2026-09-01T20:00:01Z</time>
  <course>176.03</course>
  <speed>25.59</speed>
  <fix>3d</fix>
</trkpt>
<trkpt lat="-35.2795689" lon="148.9855822">
  <ele>683.09</ele>
  <time>2026-09-01T20:00:01Z</time>
  <course>176.13</course>
  <speed>25.663203229526903</speed>
  <fix>3d</fix>
</trkpt>
<trkpt lat="-35.2795247" lon="148.9855783">
  <ele>682.48</ele>
  <time>2026-09-01T20:00:01Z</time>
  <course>176.01</course>
  <speed>25.6</speed>
  <fix>3d</fix>
</trkpt>
<trkpt lat="-35.2795918" lon="148.9855841">
  <ele>683.37</ele>
  <time>2026-09-01T20:00:01Z</time>
  <course>176.06</course>
  <speed>25.65252814051668</speed>
  <fix>3d</fix>
</trkpt>
<trkpt lat="-35.2795247" lon="148.9855783">
  <ele>682.48</ele>
  <time>2026-09-01T20:00:01Z</time>
  <course>176.01</course>
  <speed>25.6</speed>
  <fix>3d</fix>
</trkpt>
<trkpt lat="-35.2796146" lon="148.9855861">
  <ele>683.66</ele>
  <time>2026-09-01T20:00:01Z</time>
  <course>176.02</course>
  <speed>25.64255252505101</speed>
  <fix>3d</fix>
</trkpt>
<trkpt lat="-35.2795706" lon="148.9855822">
  <ele>683.03</ele>
  <time>2026-09-01T20:00:01Z</time>
  <course>176.02</course>
  <speed>25.6</speed>
  <fix>3d</fix>
</trkpt>
<trkpt lat="-35.2796374" lon="148.985588">
  <ele>683.94</ele>
  <time>2026-09-01T20:00:01Z</time>
  <course>176.02</course>
  <speed>25.64255252505101</speed>
  <fix>3d</fix>
</trkpt>
<trkpt lat="-35.2795706" lon="148.9855822">
  <ele>683.03</ele>
  <time>2026-09-01T20:00:01Z</time>
  <course>176.02</course>
  <speed>25.6</speed>
  <fix>3d</fix>
</trkpt>
<trkpt lat="-35.2796602" lon="148.98559">
  <ele>684.22</ele>
  <time>2026-09-01T20:00:01Z</time>
  <course>175.99</course>
  <speed>25.64255252505101</speed>
  <fix>3d</fix>
</trkpt>
<trkpt lat="-35.2796165" lon="148.9855861">
  <ele>683.59</ele>
  <time>2026-09-01T20:00:01Z</time>
  <course>176.03</course>
  <speed>25.6</speed>
  <fix>3d</fix>
</trkpt>
<trkpt lat="-35.2796831" lon="148.9855919">
  <ele>684.5</ele>
  <time>2026-09-01T20:00:01Z</time>
  <course>175.98</course>
  <speed>25.632576928588357</speed>
  <fix>3d</fix>
</trkpt>
<trkpt lat="-35.2796165" lon="148.9855861">
  <ele>683.59</ele>
  <time>2026-09-01T20:00:01Z</time>
  <course>176.03</course>
  <speed>25.6</speed>
  <fix>3d</fix>
</trkpt>
<trkpt lat="-35.2797059" lon="148.9855938">
  <ele>684.78</ele>
  <time>2026-09-01T20:00:01Z</time>
  <course>176.0</course>
  <speed>25.631880539671684</speed>
  <fix>3d</fix>
</trkpt>
<trkpt lat="-35.2796624" lon="148.98559">
  <ele>684.15</ele>
  <time>2026-09-01T20:00:01Z</time>
  <course>176.02</course>
  <speed>25.6</speed>
  <fix>3d</fix>
</trkpt>
<trkpt lat="-35.2797287" lon="148.9855958">
  <ele>685.06</ele>
  <time>2026-09-01T20:00:01Z</time>
  <course>176.03</course>
  <speed>25.6226013511509</speed>
  <fix>3d</fix>
</trkpt>
<trkpt lat="-35.2796624" lon="148.98559">
  <ele>684.15</ele>
  <time>2026-09-01T20:00:01Z</time>
  <course>176.02</course>
  <speed>25.6</speed>
  <fix>3d</fix>
</trkpt>
<trkpt lat="-35.2797515" lon="148.9855977">
  <ele>685.33</ele>
  <time>2026-09-01T20:00:01Z</time>
  <course>176.02</course>
  <speed>25.621904691103666</speed>
  <fix>3d</fix>
</trkpt>
<trkpt lat="-35.2797082" lon="148.9855939">
  <ele>684.7</ele>
  <time>2026-09-01T20:00:01Z</time>
  <course>176.02</course>
  <speed>25.6</speed>
  <fix>3d</fix>
</trkpt>
<trkpt lat="-35.2797744" lon="148.9855997">
  <ele>685.61</ele>
  <time>2026-09-01T20:00:01Z</time>
  <course>176.04</course>
  <speed>25.61192886137239</speed>
  <fix>3d</fix>
</trkpt>
<trkpt lat="-35.2797082" lon="148.9855939">
  <ele>684.7</ele>
  <time>2026-09-01T20:00:01Z</time>
  <course>176.02</course>
  <speed>25.6</speed>
  <fix>3d</fix>
</trkpt>
<trkpt lat="-35.2797972" lon="148.9856016">
  <ele>685.89</ele>
  <time>2026-09-01T20:00:01Z</time>
  <course>176.03</course>
  <speed>25.621904691103666</speed>
  <fix>3d</fix>
</trkpt>
<trkpt lat="-35.2797541" lon="148.9855978">
  <ele>685.27</ele>
  <time>2026-09-01T20:00:01Z</time>
  <course>176.03</course>
  <speed>25.6</speed>
  <fix>3d</fix>
</trkpt>
<trkpt lat="-35.2798201" lon="148.9856035">
  <ele>686.17</ele>
  <time>2026-09-01T20:00:01Z</time>
  <course>176.07</course>
  <speed>25.621904691103666</speed>
  <fix>3d</fix>
</trkpt>
<trkpt lat="-35.2797541" lon="148.9855978">
  <ele>685.27</ele>
  <time>2026-09-01T20:00:01Z</time>
  <course>176.03</course>
  <speed>25.6</speed>
  <fix>3d</fix>
</trkpt>
<trkpt lat="-35.279843" lon="148.9856055">
  <ele>686.44</ele>
  <time>2026-09-01T20:00:01Z</time>
  <course>176.08</course>
  <speed>25.621904691103666</speed>
  <fix>3d</fix>
</trkpt>
<trkpt lat="-35.2798" lon="148.9856017">
  <ele>685.82</ele>
  <time>2026-09-01T20:00:01Z</time>
  <course>176.03</course>
  <speed>25.61</speed>
  <fix>3d</fix>
</trkpt>
<trkpt lat="-35.279866" lon="148.9856074">
  <ele>686.72</ele>
  <time>2026-09-01T20:00:01Z</time>
  <course>176.05</course>
  <speed>25.62121191513001</speed>
  <fix>3d</fix>
</trkpt>
<trkpt lat="-35.2798" lon="148.9856017">
  <ele>685.82</ele>
  <time>2026-09-01T20:00:01Z</time>
  <course>176.03</course>
  <speed>25.61</speed>
  <fix>3d</fix>
</trkpt>
<trkpt lat="-35.279889" lon="148.9856094">
  <ele>687.0</ele>
  <time>2026-09-01T20:00:01Z</time>
  <course>176.07</course>
  <speed>25.62121191513001</speed>
  <fix>3d</fix>
</trkpt>
<trkpt lat="-35.2798459" lon="148.9856056">
  <ele>686.37</ele>
  <time>2026-09-01T20:00:01Z</time>
  <course>176.05</course>
  <speed>25.62</speed>
  <fix>3d</fix>
</trkpt>
<trkpt lat="-35.279912" lon="148.9856113">
  <ele>687.28</ele>
  <time>2026-09-01T20:00:01Z</time>
  <course>176.07</course>
  <speed>25.631188033331583</speed>
  <fix>3d</fix>
</trkpt>
<trkpt lat="-35.2798459" lon="148.9856056">
  <ele>686.37</ele>
  <time>2026-09-01T20:00:01Z</time>
  <course>176.05</course>
  <speed>25.62</speed>
  <fix>3d</fix>
</trkpt>
<trkpt lat="-35.2799351" lon="148.9856132">
  <ele>687.55</ele>
  <time>2026-09-01T20:00:01Z</time>
  <course>176.06</course>
  <speed>25.631188033331583</speed>
  <fix>3d</fix>
</trkpt>
<trkpt lat="-35.2798918" lon="148.9856094">
  <ele>686.92</ele>
  <time>2026-09-01T20:00:01Z</time>
  <course>176.06</course>
  <speed>25.63</speed>
  <fix>3d</fix>
</trkpt>
<trkpt lat="-35.2799582" lon="148.9856152">
  <ele>687.84</ele>
  <time>2026-09-01T20:00:01Z</time>
  <course>176.12</course>
  <speed>25.640475814617794</speed>
  <fix>3d</fix>
</trkpt>
<trkpt lat="-35.2798918" lon="148.9856094">
  <ele>686.92</ele>
  <time>2026-09-01T20:00:01Z</time>
  <course>176.06</course>
  <speed>25.63</speed>
  <fix>3d</fix>
</trkpt>
<trkpt lat="-35.2799811" lon="148.9856171">
  <ele>688.12</ele>
  <time>2026-09-01T20:00:01Z</time>
  <course>176.17</course>
  <speed>25.640475814617794</speed>
  <fix>3d</fix>
</trkpt>
<trkpt lat="-35.2799379" lon="148.9856133">
  <ele>687.48</ele>
  <time>2026-09-01T20:00:01Z</time>
  <course>176.07</course>
  <speed>25.63</speed>
  <fix>3d</fix>
</trkpt>
<trkpt lat="-35.2800041" lon="148.985619">
  <ele>688.4</ele>
  <time>2026-09-01T20:00:01Z</time>
  <course>176.14</course>
  <speed>25.639791340804628</speed>
  <fix>3d</fix>
</trkpt>
<trkpt lat="-35.2799379" lon="148.9856133">
  <ele>687.48</ele>
  <time>2026-09-01T20:00:01Z</time>
  <course>176.07</course>
  <speed>25.63</speed>
  <fix>3d</fix>
</trkpt>
<trkpt lat="-35.280027" lon="148.9856209">
  <ele>688.69</ele>
  <time>2026-09-01T20:00:01Z</time>
  <course>176.12</course>
  <speed>25.639791340804628</speed>
  <fix>3d</fix>
</trkpt>
<trkpt lat="-35.2799839" lon="148.9856171">
  <ele>688.05</ele>
  <time>2026-09-01T20:00:01Z</time>
  <course>176.09</course>
  <speed>25.63</speed>
  <fix>3d</fix>
</trkpt>
<trkpt lat="-35.28005" lon="148.9856228">
  <ele>688.97</ele>
  <time>2026-09-01T20:00:01Z</time>
  <course>176.04</course>
  <speed>25.629814669638172</speed>
  <fix>3d</fix>
</trkpt>
<trkpt lat="-35.2799839" lon="148.9856171">
  <ele>688.05</ele>
  <time>2026-09-01T20:00:01Z</time>
  <course>176.09</course>
  <speed>25.63</speed>
  <fix>3d</fix>
</trkpt>
<trkpt lat="-35.2800728" lon="148.9856247">
  <ele>689.26</ele>
  <time>2026-09-01T20:00:01Z</time>
  <course>176.09</course>
  <speed>25.629814669638172</speed>
  <fix>3d</fix>
</trkpt>
<trkpt lat="-35.2800298" lon="148.985621">
  <ele>688.62</ele>
  <time>2026-09-01T20:00:01Z</time>
  <course>176.1</course>
  <speed>25.63</speed>
  <fix>3d</fix>
</trkpt>
<trkpt lat="-35.2800957" lon="148.9856266">
  <ele>689.55</ele>
  <time>2026-09-01T20:00:01Z</time>
  <course>176.13</course>
  <speed>25.619838016662012</speed>
  <fix>3d</fix>
</trkpt>
<trkpt lat="-35.2800298" lon="148.985621">
  <ele>688.62</ele>
  <time>2026-09-01T20:00:01Z</time>
  <course>176.1</course>
  <speed>25.63</speed>
  <fix>3d</fix>
</trkpt>
<trkpt lat="-35.2801186" lon="148.9856285">
  <ele>689.84</ele>
  <time>2026-09-01T20:00:01Z</time>
  <course>176.12</course>
  <speed>25.619838016662012</speed>
  <fix>3d</fix>
</trkpt>
<trkpt lat="-35.2800758" lon="148.9856249">
  <ele>689.19</ele>
  <time>2026-09-01T20:00:01Z</time>
  <course>176.1</course>
  <speed>25.63</speed>
  <fix>3d</fix>
</trkpt>
<trkpt lat="-35.2801415" lon="148.9856304">
  <ele>690.13</ele>
  <time>2026-09-01T20:00:01Z</time>
  <course>176.09</course>
  <speed>25.609179994681593</speed>
  <fix>3d</fix>
</trkpt>
<trkpt lat="-35.2800758" lon="148.9856249">
  <ele>689.19</ele>
  <time>2026-09-01T20:00:01Z</time>
  <course>176.1</course>
  <speed>25.63</speed>
  <fix>3d</fix>
</trkpt>
<trkpt lat="-35.2801644" lon="148.9856323">
  <ele>690.43</ele>
  <time>2026-09-01T20:00:01Z</time>
  <course>176.05</course>
  <speed>25.609861381897403</speed>
  <fix>3d</fix>
</trkpt>
<trkpt lat="-35.2801217" lon="148.9856287">
  <ele>689.78</ele>
  <time>2026-09-01T20:00:01Z</time>
  <course>176.11</course>
  <speed>25.62</speed>
  <fix>3d</fix>
</trkpt>
<trkpt lat="-35.2801873" lon="148.9856342">
  <ele>690.73</ele>
  <time>2026-09-01T20:00:01Z</time>
  <course>176.01</course>
  <speed>25.609861381897403</speed>
  <fix>3d</fix>
</trkpt>
<trkpt lat="-35.2801217" lon="148.9856287">
  <ele>689.78</ele>
  <time>2026-09-01T20:00:01Z</time>
  <course>176.11</course>
  <speed>25.62</speed>
  <fix>3d</fix>
</trkpt>
<trkpt lat="-35.2802102" lon="148.9856362">
  <ele>691.02</ele>
  <time>2026-09-01T20:00:01Z</time>
  <course>175.96</course>
  <speed>25.609861381897403</speed>
  <fix>3d</fix>
</trkpt>
<trkpt lat="-35.2801676" lon="148.9856325">
  <ele>690.36</ele>
  <time>2026-09-01T20:00:01Z</time>
  <course>176.11</course>
  <speed>25.62</speed>
  <fix>3d</fix>
</trkpt>
<trkpt lat="-35.2802331" lon="148.9856381">
  <ele>691.32</ele>
  <time>2026-09-01T20:00:01Z</time>
  <course>175.92</course>
  <speed>25.610546655626077</speed>
  <fix>3d</fix>
</trkpt>
<trkpt lat="-35.2801676" lon="148.9856325">
  <ele>690.36</ele>
  <time>2026-09-01T20:00:01Z</time>
  <course>176.11</course>
  <speed>25.62</speed>
  <fix>3d</fix>
</trkpt>
<trkpt lat="-35.280256" lon="148.98564">
  <ele>691.62</ele>
  <time>2026-09-01T20:00:01Z</time>
  <course>175.96</course>
  <speed>25.601259734630247</speed>
  <fix>3d</fix>
</trkpt>
<trkpt lat="-35.2802135" lon="148.9856364">
  <ele>690.95</ele>
  <time>2026-09-01T20:00:01Z</time>
  <course>176.09</course>
  <speed>25.63</speed>
  <fix>3d</fix>
</trkpt>
<trkpt lat="-35.2802789" lon="148.985642">
  <ele>691.92</ele>
  <time>2026-09-01T20:00:01Z</time>
  <course>176.01</course>
  <speed>25.59128367237564</speed>
  <fix>3d</fix>
</trkpt>
<trkpt lat="-35.2802135" lon="148.9856364">
  <ele>690.95</ele>
  <time>2026-09-01T20:00:01Z</time>
  <course>176.09</course>
  <speed>25.63</speed>
  <fix>3d</fix>
</trkpt>
<trkpt lat="-35.2803018" lon="148.9856439">
  <ele>692.23</ele>
  <time>2026-09-01T20:00:01Z</time>
  <course>176.03</course>
  <speed>25.59128367237564</speed>
  <fix>3d</fix>
</trkpt>
<trkpt lat="-35.2802594" lon="148.9856402">
  <ele>691.55</ele>
  <time>2026-09-01T20:00:01Z</time>
  <course>176.06</course>
  <speed>25.62</speed>
  <fix>3d</fix>
</trkpt>
<trkpt lat="-35.2803247" lon="148.9856458">
  <ele>692.54</ele>
  <time>2026-09-01T20:00:01Z</time>
  <course>176.02</course>
  <speed>25.59128367237564</speed>
  <fix>3d</fix>
</trkpt>
<trkpt lat="-35.2802594" lon="148.9856402">
  <ele>691.55</ele>
  <time>2026-09-01T20:00:01Z</time>
  <course>176.06</course>
  <speed>25.62</speed>
  <fix>3d</fix>
</trkpt>
<trkpt lat="-35.2803476" lon="148.9856478">
  <ele>692.86</ele>
  <time>2026-09-01T20:00:01Z</time>
  <course>176.06</course>
  <speed>25.59128367237564</speed>
  <fix>3d</fix>
</trkpt>
<trkpt lat="-35.2803053" lon="148.9856441">
  <ele>692.15</ele>
  <time>2026-09-01T20:00:01Z</time>
  <course>176.05</course>
  <speed>25.61</speed>
  <fix>3d</fix>
</trkpt>
<trkpt lat="-35.2803706" lon="148.9856497">
  <ele>693.17</ele>
  <time>2026-09-01T20:00:01Z</time>
  <course>176.07</course>
  <speed>25.590593975130783</speed>
  <fix>3d</fix>
</trkpt>
<trkpt lat="-35.2803053" lon="148.9856441">
  <ele>692.15</ele>
  <time>2026-09-01T20:00:01Z</time>
  <course>176.05</course>
  <speed>25.61</speed>
  <fix>3d</fix>
</trkpt>
<trkpt lat="-35.2803937" lon="148.9856516">
  <ele>693.49</ele>
  <time>2026-09-01T20:00:01Z</time>
  <course>176.06</course>
  <speed>25.589908167088055</speed>
  <fix>3d</fix>
</trkpt>
<trkpt lat="-35.2803512" lon="148.9856479">
  <ele>692.77</ele>
  <time>2026-09-01T20:00:01Z</time>
  <course>176.06</course>
  <speed>25.6</speed>
  <fix>3d</fix>
</trkpt>
<trkpt lat="-35.2804168" lon="148.9856535">
  <ele>693.81</ele>
  <time>2026-09-01T20:00:01Z</time>
  <course>176.01</course>
  <speed>25.579931587085998</speed>
  <fix>3d</fix>
</trkpt>
<trkpt lat="-35.2803512" lon="148.9856479">
  <ele>692.77</ele>
  <time>2026-09-01T20:00:01Z</time>
  <course>176.06</course>
  <speed>25.6</speed>
  <fix>3d</fix>
</trkpt>
<trkpt lat="-35.28044" lon="148.9856555">
  <ele>694.14</ele>
  <time>2026-09-01T20:00:01Z</time>
  <course>175.99</course>
  <speed>25.579249402591937</speed>
  <fix>3d</fix>
</trkpt>
<trkpt lat="-35.2803972" lon="148.9856518">
  <ele>693.41</ele>
  <time>2026-09-01T20:00:01Z</time>
  <course>176.09</course>
  <speed>25.59</speed>
  <fix>3d</fix>
</trkpt>
<trkpt lat="-35.2804631" lon="148.9856574">
  <ele>694.47</ele>
  <time>2026-09-01T20:00:01Z</time>
  <course>175.99</course>
  <speed>25.579249402591937</speed>
  <fix>3d</fix>
</trkpt>
<trkpt lat="-35.2803972" lon="148.9856518">
  <ele>693.41</ele>
  <time>2026-09-01T20:00:01Z</time>
  <course>176.09</course>
  <speed>25.59</speed>
  <fix>3d</fix>
</trkpt>
<trkpt lat="-35.2804864" lon="148.9856593">
  <ele>694.8</ele>
  <time>2026-09-01T20:00:01Z</time>
  <course>176.0</course>
  <speed>25.569272574713576</speed>
  <fix>3d</fix>
</trkpt>
<trkpt lat="-35.2804431" lon="148.9856557">
  <ele>694.05</ele>
  <time>2026-09-01T20:00:01Z</time>
  <course>176.11</course>
  <speed>25.57</speed>
  <fix>3d</fix>
</trkpt>
<trkpt lat="-35.2805094" lon="148.9856613">
  <ele>695.14</ele>
  <time>2026-09-01T20:00:01Z</time>
  <course>176.11</course>
  <speed>25.569272574713576</speed>
  <fix>3d</fix>
</trkpt>
<trkpt lat="-35.2804431" lon="148.9856557">
  <ele>694.05</ele>
  <time>2026-09-01T20:00:01Z</time>
  <course>176.11</course>
  <speed>25.57</speed>
  <fix>3d</fix>
</trkpt>
<trkpt lat="-35.2805324" lon="148.9856632">
  <ele>695.48</ele>
  <time>2026-09-01T20:00:01Z</time>
  <course>176.2</course>
  <speed>25.558616942236917</speed>
  <fix>3d</fix>
</trkpt>
<trkpt lat="-35.280489" lon="148.9856595">
  <ele>694.72</ele>
  <time>2026-09-01T20:00:01Z</time>
  <course>176.12</course>
  <speed>25.54</speed>
  <fix>3d</fix>
</trkpt>
<trkpt lat="-35.2805553" lon="148.985665">
  <ele>695.82</ele>
  <time>2026-09-01T20:00:01Z</time>
  <course>176.17</course>
  <speed>25.54796469388511</speed>
  <fix>3d</fix>
</trkpt>
<trkpt lat="-35.280489" lon="148.9856595">
  <ele>694.72</ele>
  <time>2026-09-01T20:00:01Z</time>
  <course>176.12</course>
  <speed>25.54</speed>
  <fix>3d</fix>
</trkpt>
<trkpt lat="-35.2805781" lon="148.9856669">
  <ele>696.16</ele>
  <time>2026-09-01T20:00:01Z</time>
  <course>176.1</course>
  <speed>25.537315833892958</speed>
  <fix>3d</fix>
</trkpt>
<trkpt lat="-35.2805347" lon="148.9856633">
  <ele>695.39</ele>
  <time>2026-09-01T20:00:01Z</time>
  <course>176.14</course>
  <speed>25.52</speed>
  <fix>3d</fix>
</trkpt>
<trkpt lat="-35.2806009" lon="148.9856688">
  <ele>696.5</ele>
  <time>2026-09-01T20:00:01Z</time>
  <course>176.05</course>
  <speed>25.527338286629103</speed>
  <fix>3d</fix>
</trkpt>
<trkpt lat="-35.2805347" lon="148.9856633">
  <ele>695.39</ele>
  <time>2026-09-01T20:00:01Z</time>
  <course>176.14</course>
  <speed>25.52</speed>
  <fix>3d</fix>
</trkpt>
<trkpt lat="-35.2806237" lon="148.9856706">
  <ele>696.84</ele>
  <time>2026-09-01T20:00:01Z</time>
  <course>176.04</course>
  <speed>25.516692575645457</speed>
  <fix>3d</fix>
</trkpt>
<trkpt lat="-35.2805804" lon="148.985667">
  <ele>696.06</ele>
  <time>2026-09-01T20:00:01Z</time>
  <course>176.17</course>
  <speed>25.51</speed>
  <fix>3d</fix>
</trkpt>
<trkpt lat="-35.2806464" lon="148.9856725">
  <ele>697.19</ele>
  <time>2026-09-01T20:00:01Z</time>
  <course>176.06</course>
  <speed>25.496737046139845</speed>
  <fix>3d</fix>
</trkpt>
<trkpt lat="-35.2805804" lon="148.985667">
  <ele>696.06</ele>
  <time>2026-09-01T20:00:01Z</time>
  <course>176.17</course>
  <speed>25.51</speed>
  <fix>3d</fix>
</trkpt>
<trkpt lat="-35.2806692" lon="148.9856744">
  <ele>697.53</ele>
  <time>2026-09-01T20:00:01Z</time>
  <course>176.05</course>
  <speed>25.486759307530647</speed>
  <fix>3d</fix>
</trkpt>
<trkpt lat="-35.2806261" lon="148.9856707">
  <ele>696.75</ele>
  <time>2026-09-01T20:00:01Z</time>
  <course>176.19</course>
  <speed>25.49</speed>
  <fix>3d</fix>
</trkpt>
<trkpt lat="-35.2806919" lon="148.9856762">
  <ele>697.86</ele>
  <time>2026-09-01T20:00:01Z</time>
  <course>176.04</course>
  <speed>25.487428273562635</speed>
  <fix>3d</fix>
</trkpt>
<trkpt lat="-35.2806261" lon="148.9856707">
  <ele>696.75</ele>
  <time>2026-09-01T20:00:01Z</time>
  <course>176.19</course>
  <speed>25.49</speed>
  <fix>3d</fix>
</trkpt>
<trkpt lat="-35.2807147" lon="148.9856781">
  <ele>698.2</ele>
  <time>2026-09-01T20:00:01Z</time>
  <course>176.08</course>
  <speed>25.47745081439664</speed>
  <fix>3d</fix>
</trkpt>
<trkpt lat="-35.2806718" lon="148.9856744">
  <ele>697.44</ele>
  <time>2026-09-01T20:00:01Z</time>
  <course>176.19</course>
  <speed>25.47</speed>
  <fix>3d</fix>
</trkpt>
<trkpt lat="-35.2807374" lon="148.9856799">
  <ele>698.53</ele>
  <time>2026-09-01T20:00:01Z</time>
  <course>176.06</course>
  <speed>25.47745081439664</speed>
  <fix>3d</fix>
</trkpt>
<trkpt lat="-35.2806718" lon="148.9856744">
  <ele>697.44</ele>
  <time>2026-09-01T20:00:01Z</time>
  <course>176.19</course>
  <speed>25.47</speed>
  <fix>3d</fix>
</trkpt>
<trkpt lat="-35.2807602" lon="148.9856818">
  <ele>698.85</ele>
  <time>2026-09-01T20:00:01Z</time>
  <course>176.09</course>
  <speed>25.48810114543647</speed>
  <fix>3d</fix>
</trkpt>
<trkpt lat="-35.2807174" lon="148.9856782">
  <ele>698.11</ele>
  <time>2026-09-01T20:00:01Z</time>
  <course>176.18</course>
  <speed>25.46</speed>
  <fix>3d</fix>
</trkpt>
<trkpt lat="-35.2807829" lon="148.9856837">
  <ele>699.18</ele>
  <time>2026-09-01T20:00:01Z</time>
  <course>176.14</course>
  <speed>25.48810114543647</speed>
  <fix>3d</fix>
</trkpt>
<trkpt lat="-35.2807174" lon="148.9856782">
  <ele>698.11</ele>
  <time>2026-09-01T20:00:01Z</time>
  <course>176.18</course>
  <speed>25.46</speed>
  <fix>3d</fix>
</trkpt>
<trkpt lat="-35.2808057" lon="148.9856855">
  <ele>699.49</ele>
  <time>2026-09-01T20:00:01Z</time>
  <course>176.06</course>
  <speed>25.48810114543647</speed>
  <fix>3d</fix>
</trkpt>
<trkpt lat="-35.2807631" lon="148.9856819">
  <ele>698.77</ele>
  <time>2026-09-01T20:00:01Z</time>
  <course>176.17</course>
  <speed>25.47</speed>
  <fix>3d</fix>
</trkpt>
<trkpt lat="-35.2808283" lon="148.9856874">
  <ele>699.81</ele>
  <time>2026-09-01T20:00:01Z</time>
  <course>176.07</course>
  <speed>25.48810114543647</speed>
  <fix>3d</fix>
</trkpt>
<trkpt lat="-35.2807631" lon="148.9856819">
  <ele>698.77</ele>
  <time>2026-09-01T20:00:01Z</time>
  <course>176.17</course>
  <speed>25.47</speed>
  <fix>3d</fix>
</trkpt>
<trkpt lat="-35.2808512" lon="148.9856893">
  <ele>700.12</ele>
  <time>2026-09-01T20:00:01Z</time>
  <course>176.04</course>
  <speed>25.48810114543647</speed>
  <fix>3d</fix>
</trkpt>
<trkpt lat="-35.2808087" lon="148.9856856">
  <ele>699.42</ele>
  <time>2026-09-01T20:00:01Z</time>
  <course>176.16</course>
  <speed>25.48</speed>
  <fix>3d</fix>
</trkpt>
<trkpt lat="-35.2808741" lon="148.9856912">
  <ele>700.44</ele>
  <time>2026-09-01T20:00:01Z</time>
  <course>175.99</course>
  <speed>25.498754871561864</speed>
  <fix>3d</fix>
</trkpt>
<trkpt lat="-35.2808087" lon="148.9856856">
  <ele>699.42</ele>
  <time>2026-09-01T20:00:01Z</time>
  <course>176.16</course>
  <speed>25.48</speed>
  <fix>3d</fix>
</trkpt>
<trkpt lat="-35.280897" lon="148.9856931">
  <ele>700.75</ele>
  <time>2026-09-01T20:00:01Z</time>
  <course>175.95</course>
  <speed>25.50941198851906</speed>
  <fix>3d</fix>
</trkpt>
<trkpt lat="-35.2808544" lon="148.9856893">
  <ele>700.05</ele>
  <time>2026-09-01T20:00:01Z</time>
  <course>176.14</course>
  <speed>25.48</speed>
  <fix>3d</fix>
</trkpt>
<trkpt lat="-35.2809202" lon="148.985695">
  <ele>701.07</ele>
  <time>2026-09-01T20:00:01Z</time>
  <course>175.86</course>
  <speed>25.52007249206005</speed>
  <fix>3d</fix>
</trkpt>
<trkpt lat="-35.2808544" lon="148.9856893">
  <ele>700.05</ele>
  <time>2026-09-01T20:00:01Z</time>
  <course>176.14</course>
  <speed>25.48</speed>
  <fix>3d</fix>
</trkpt>
<trkpt lat="-35.2809432" lon="148.9856969">
  <ele>701.38</ele>
  <time>2026-09-01T20:00:01Z</time>
  <course>175.89</course>
  <speed>25.530736377942567</speed>
  <fix>3d</fix>
</trkpt>
<trkpt lat="-35.2809002" lon="148.9856931">
  <ele>700.68</ele>
  <time>2026-09-01T20:00:01Z</time>
  <course>176.11</course>
  <speed>25.49</speed>
  <fix>3d</fix>
</trkpt>
<trkpt lat="-35.2809662" lon="148.9856989">
  <ele>701.7</ele>
  <time>2026-09-01T20:00:01Z</time>
  <course>175.91</course>
  <speed>25.541403641930096</speed>
  <fix>3d</fix>
</trkpt>
<trkpt lat="-35.2809002" lon="148.9856931">
  <ele>700.68</ele>
  <time>2026-09-01T20:00:01Z</time>
  <course>176.11</course>
  <speed>25.49</speed>
  <fix>3d</fix>
</trkpt>
<trkpt lat="-35.28099" lon="148.9857009">
  <ele>702.02</ele>
  <time>2026-09-01T20:00:01Z</time>
  <course>175.97</course>
  <speed>25.551379610502444</speed>
  <fix>3d</fix>
</trkpt>
<trkpt lat="-35.2809459" lon="148.985697">
  <ele>701.31</ele>
  <time>2026-09-01T20:00:01Z</time>
  <course>176.07</course>
  <speed>25.5</speed>
  <fix>3d</fix>
</trkpt>
<trkpt lat="-35.2810128" lon="148.9857028">
  <ele>702.33</ele>
  <time>2026-09-01T20:00:01Z</time>
  <course>175.91</course>
  <speed>25.572025731255632</speed>
  <fix>3d</fix>
</trkpt>
<trkpt lat="-35.2809459" lon="148.985697">
  <ele>701.31</ele>
  <time>2026-09-01T20:00:01Z</time>
  <course>176.07</course>
  <speed>25.5</speed>
  <fix>3d</fix>
</trkpt>
<trkpt lat="-35.2810357" lon="148.9857047">
  <ele>702.65</ele>
  <time>2026-09-01T20:00:01Z</time>
  <course>175.86</course>
  <speed>25.57272375012095</speed>
  <fix>3d</fix>
</trkpt>
<trkpt lat="-35.2809917" lon="148.9857008">
  <ele>701.93</ele>
  <time>2026-09-01T20:00:01Z</time>
  <course>176.04</course>
  <speed>25.51</speed>
  <fix>3d</fix>
</trkpt>
<trkpt lat="-35.2810586" lon="148.9857067">
  <ele>702.96</ele>
  <time>2026-09-01T20:00:01Z</time>
  <course>175.89</course>
  <speed>25.582699232098243</speed>
  <fix>3d</fix>
</trkpt>
<trkpt lat="-35.2809917" lon="148.9857008">
  <ele>701.93</ele>
  <time>2026-09-01T20:00:01Z</time>
  <course>176.04</course>
  <speed>25.51</speed>
  <fix>3d</fix>
</trkpt>
<trkpt lat="-35.2810814" lon="148.9857086">
  <ele>703.28</ele>
  <time>2026-09-01T20:00:01Z</time>
  <course>175.95</course>
  <speed>25.57272375012095</speed>
  <fix>3d</fix>
</trkpt>
<trkpt lat="-35.2810374" lon="148.9857047">
  <ele>702.57</ele>
  <time>2026-09-01T20:00:01Z</time>
  <course>176.03</course>
  <speed>25.52</speed>
  <fix>3d</fix>
</trkpt>
<trkpt lat="-35.2811045" lon="148.9857106">
  <ele>703.61</ele>
  <time>2026-09-01T20:00:01Z</time>
  <course>175.94</course>
  <speed>25.56204999603905</speed>
  <fix>3d</fix>
</trkpt>
<trkpt lat="-35.2810374" lon="148.9857047">
  <ele>702.57</ele>
  <time>2026-09-01T20:00:01Z</time>
  <course>176.03</course>
  <speed>25.52</speed>
  <fix>3d</fix>
</trkpt>
<trkpt lat="-35.2811267" lon="148.9857125">
  <ele>703.93</ele>
  <time>2026-09-01T20:00:01Z</time>
  <course>175.93</course>
  <speed>25.551379610502444</speed>
  <fix>3d</fix>
</trkpt>
<trkpt lat="-35.2810831" lon="148.9857086">
  <ele>703.21</ele>
  <time>2026-09-01T20:00:01Z</time>
  <course>176.03</course>
  <speed>25.53</speed>
  <fix>3d</fix>
</trkpt>
<trkpt lat="-35.2811495" lon="148.9857144">
  <ele>704.27</ele>
  <time>2026-09-01T20:00:01Z</time>
  <course>175.91</course>
  <speed>25.551379610502444</speed>
  <fix>3d</fix>
</trkpt>
<trkpt lat="-35.2810831" lon="148.9857086">
  <ele>703.21</ele>
  <time>2026-09-01T20:00:01Z</time>
  <course>176.03</course>
  <speed>25.53</speed>
  <fix>3d</fix>
</trkpt>
<trkpt lat="-35.2811723" lon="148.9857163">
  <ele>704.61</ele>
  <time>2026-09-01T20:00:01Z</time>
  <course>175.98</course>
  <speed>25.540712597733055</speed>
  <fix>3d</fix>
</trkpt>
<trkpt lat="-35.2811289" lon="148.9857125">
  <ele>703.87</ele>
  <time>2026-09-01T20:00:01Z</time>
  <course>176.05</course>
  <speed>25.52</speed>
  <fix>3d</fix>
</trkpt>
<trkpt lat="-35.281195" lon="148.9857182">
  <ele>704.95</ele>
  <time>2026-09-01T20:00:01Z</time>
  <course>176.08</course>
  <speed>25.5400254502614</speed>
  <fix>3d</fix>
</trkpt>
<trkpt lat="-35.2811289" lon="148.9857125">
  <ele>703.87</ele>
  <time>2026-09-01T20:00:01Z</time>
  <course>176.05</course>
  <speed>25.52</speed>
  <fix>3d</fix>
</trkpt>
<trkpt lat="-35.2812178" lon="148.9857201">
  <ele>705.3</ele>
  <time>2026-09-01T20:00:01Z</time>
  <course>176.08</course>
  <speed>25.539342199829658</speed>
  <fix>3d</fix>
</trkpt>
<trkpt lat="-35.2811746" lon="148.9857164">
  <ele>704.55</ele>
  <time>2026-09-01T20:00:01Z</time>
  <course>176.08</course>
  <speed>25.51</speed>
  <fix>3d</fix>
</trkpt>
<trkpt lat="-35.2812406" lon="148.985722">
  <ele>705.65</ele>
  <time>2026-09-01T20:00:01Z</time>
  <course>176.07</course>
  <speed>25.528685825948813</speed>
  <fix>3d</fix>
</trkpt>
<trkpt lat="-35.2811746" lon="148.9857164">
  <ele>704.55</ele>
  <time>2026-09-01T20:00:01Z</time>
  <course>176.08</course>
  <speed>25.51</speed>
  <fix>3d</fix>
</trkpt>
<trkpt lat="-35.2812634" lon="148.9857239">
  <ele>706.01</ele>
  <time>2026-09-01T20:00:01Z</time>
  <course>176.08</course>
  <speed>25.528010106547672</speed>
  <fix>3d</fix>
</trkpt>
<trkpt lat="-35.2812203" lon="148.9857202">
  <ele>705.25</ele>
  <time>2026-09-01T20:00:01Z</time>
  <course>176.13</course>
  <speed>25.51</speed>
  <fix>3d</fix>
</trkpt>
<trkpt lat="-35.2812862" lon="148.9857257">
  <ele>706.36</ele>
  <time>2026-09-01T20:00:01Z</time>
  <course>176.05</course>
  <speed>25.518032839543096</speed>
  <fix>3d</fix>
</trkpt>
<trkpt lat="-35.2812203" lon="148.9857202">
  <ele>705.25</ele>
  <time>2026-09-01T20:00:01Z</time>
  <course>176.13</course>
  <speed>25.51</speed>
  <fix>3d</fix>
</trkpt>
<trkpt lat="-35.2813088" lon="148.9857276">
  <ele>706.72</ele>
  <time>2026-09-01T20:00:01Z</time>
  <course>176.02</course>
  <speed>25.518032839543096</speed>
  <fix>3d</fix>
</trkpt>
<trkpt lat="-35.281266" lon="148.9857239">
  <ele>705.95</ele>
  <time>2026-09-01T20:00:01Z</time>
  <course>176.16</course>
  <speed>25.51</speed>
  <fix>3d</fix>
</trkpt>
<trkpt lat="-35.2813316" lon="148.9857295">
  <ele>707.08</ele>
  <time>2026-09-01T20:00:01Z</time>
  <course>176.0</course>
  <speed>25.508055590342437</speed>
  <fix>3d</fix>
</trkpt>
<trkpt lat="-35.281266" lon="148.9857239">
  <ele>705.95</ele>
  <time>2026-09-01T20:00:01Z</time>
  <course>176.16</course>
  <speed>25.51</speed>
  <fix>3d</fix>
</trkpt>
<trkpt lat="-35.2813544" lon="148.9857313">
  <ele>707.45</ele>
  <time>2026-09-01T20:00:01Z</time>
  <course>175.96</course>
  <speed>25.508055590342437</speed>
  <fix>3d</fix>
</trkpt>
<trkpt lat="-35.2813117" lon="148.9857276">
  <ele>706.67</ele>
  <time>2026-09-01T20:00:01Z</time>
  <course>176.18</course>
  <speed>25.5</speed>
  <fix>3d</fix>
</trkpt>
<trkpt lat="-35.2813773" lon="148.9857332">
  <ele>707.81</ele>
  <time>2026-09-01T20:00:01Z</time>
  <course>175.91</course>
  <speed>25.50873183833332</speed>
  <fix>3d</fix>
</trkpt>
<trkpt lat="-35.2813117" lon="148.9857276">
  <ele>706.67</ele>
  <time>2026-09-01T20:00:01Z</time>
  <course>176.18</course>
  <speed>25.5</speed>
  <fix>3d</fix>
</trkpt>
<trkpt lat="-35.2814003" lon="148.9857351">
  <ele>708.17</ele>
  <time>2026-09-01T20:00:01Z</time>
  <course>175.9</course>
  <speed>25.518708823136016</speed>
  <fix>3d</fix>
</trkpt>
<trkpt lat="-35.2813575" lon="148.9857314">
  <ele>707.39</ele>
  <time>2026-09-01T20:00:01Z</time>
  <course>176.17</course>
  <speed>25.5</speed>
  <fix>3d</fix>
</trkpt>
<trkpt lat="-35.2814231" lon="148.985737">
  <ele>708.54</ele>
  <time>2026-09-01T20:00:01Z</time>
  <course>176.01</course>
  <speed>25.50941198851906</speed>
  <fix>3d</fix>
</trkpt>
<trkpt lat="-35.2813575" lon="148.9857314">
  <ele>707.39</ele>
  <time>2026-09-01T20:00:01Z</time>
  <course>176.17</course>
  <speed>25.5</speed>
  <fix>3d</fix>
</trkpt>
<trkpt lat="-35.281446" lon="148.9857389">
  <ele>708.9</ele>
  <time>2026-09-01T20:00:01Z</time>
  <course>176.06</course>
  <speed>25.498754871561864</speed>
  <fix>3d</fix>
</trkpt>
<trkpt lat="-35.2814033" lon="148.9857352">
  <ele>708.11</ele>
  <time>2026-09-01T20:00:01Z</time>
  <course>176.15</course>
  <speed>25.5</speed>
  <fix>3d</fix>
</trkpt>
<trkpt lat="-35.2814696" lon="148.9857408">
  <ele>709.28</ele>
  <time>2026-09-01T20:00:01Z</time>
  <course>176.05</course>
  <speed>25.48877792284283</speed>
  <fix>3d</fix>
</trkpt>
<trkpt lat="-35.2814033" lon="148.9857352">
  <ele>708.11</ele>
  <time>2026-09-01T20:00:01Z</time>
  <course>176.15</course>
  <speed>25.5</speed>
  <fix>3d</fix>
</trkpt>
<trkpt lat="-35.2814922" lon="148.9857427">
  <ele>709.65</ele>
  <time>2026-09-01T20:00:01Z</time>
  <course>175.97</course>
  <speed>25.48810114543647</speed>
  <fix>3d</fix>
</trkpt>
<trkpt lat="-35.281449" lon="148.985739">
  <ele>708.83</ele>
  <time>2026-09-01T20:00:01Z</time>
  <course>176.14</course>
  <speed>25.49</speed>
  <fix>3d</fix>
</trkpt>
<trkpt lat="-35.281515" lon="148.9857446">
  <ele>710.01</ele>
  <time>2026-09-01T20:00:01Z</time>
  <course>175.97</course>
  <speed>25.48810114543647</speed>
  <fix>3d</fix>
</trkpt>
<trkpt lat="-35.281449" lon="148.985739">
  <ele>708.83</ele>
  <time>2026-09-01T20:00:01Z</time>
  <course>176.14</course>
  <speed>25.49</speed>
  <fix>3d</fix>
</trkpt>
<trkpt lat="-35.2815379" lon="148.9857464">
  <ele>710.38</ele>
  <time>2026-09-01T20:00:01Z</time>
  <course>175.96</course>
  <speed>25.48877792284283</speed>
  <fix>3d</fix>
</trkpt>
<trkpt lat="-35.2814947" lon="148.9857427">
  <ele>709.57</ele>
  <time>2026-09-01T20:00:01Z</time>
  <course>176.15</course>
  <speed>25.48</speed>
  <fix>3d</fix>
</trkpt>
<trkpt lat="-35.2815607" lon="148.9857483">
  <ele>710.75</ele>
  <time>2026-09-01T20:00:01Z</time>
  <course>175.97</course>
  <speed>25.48877792284283</speed>
  <fix>3d</fix>
</trkpt>
<trkpt lat="-35.2814947" lon="148.9857427">
  <ele>709.57</ele>
  <time>2026-09-01T20:00:01Z</time>
  <course>176.15</course>
  <speed>25.48</speed>
  <fix>3d</fix>
</trkpt>
<trkpt lat="-35.2815837" lon="148.9857502">
  <ele>711.12</ele>
  <time>2026-09-01T20:00:01Z</time>
  <course>175.96</course>
  <speed>25.489458605470613</speed>
  <fix>3d</fix>
</trkpt>
<trkpt lat="-35.2815404" lon="148.9857465">
  <ele>710.3</ele>
  <time>2026-09-01T20:00:01Z</time>
  <course>176.14</course>
  <speed>25.48</speed>
  <fix>3d</fix>
</trkpt>
<trkpt lat="-35.2816066" lon="148.9857521">
  <ele>711.48</ele>
  <time>2026-09-01T20:00:01Z</time>
  <course>175.88</course>
  <speed>25.499435287864706</speed>
  <fix>3d</fix>
</trkpt>
<trkpt lat="-35.2815404" lon="148.9857465">
  <ele>710.3</ele>
  <time>2026-09-01T20:00:01Z</time>
  <course>176.14</course>
  <speed>25.48</speed>
  <fix>3d</fix>
</trkpt>
<trkpt lat="-35.2816294" lon="148.985754">
  <ele>711.84</ele>
  <time>2026-09-01T20:00:01Z</time>
  <course>175.88</course>
  <speed>25.500119607562628</speed>
  <fix>3d</fix>
</trkpt>
<trkpt lat="-35.2815861" lon="148.9857503">
  <ele>711.02</ele>
  <time>2026-09-01T20:00:01Z</time>
  <course>176.13</course>
  <speed>25.48</speed>
  <fix>3d</fix>
</trkpt>
<trkpt lat="-35.2816523" lon="148.9857559">
  <ele>712.18</ele>
  <time>2026-09-01T20:00:02Z</time>
  <course>175.92</course>
  <speed>25.510096040587538</speed>
  <fix>3d</fix>
</trkpt>
<trkpt lat="-35.2815861" lon="148.9857503">
  <ele>711.02</ele>
  <time>2026-09-01T20:00:02Z</time>
  <course>176.13</course>
  <speed>25.48</speed>
  <fix>3d</fix>
</trkpt>
<trkpt lat="-35.2816752" lon="148.9857578">
  <ele>712.53</ele>
  <time>2026-09-01T20:00:02Z</time>
  <course>175.95</course>
  <speed>25.50941198851906</speed>
  <fix>3d</fix>
</trkpt>
<trkpt lat="-35.2816317" lon="148.9857541">
  <ele>711.74</ele>
  <time>2026-09-01T20:00:02Z</time>
  <course>176.11</course>
  <speed>25.49</speed>
  <fix>3d</fix>
</trkpt>
<trkpt lat="-35.281698" lon="148.9857597">
  <ele>712.88</ele>
  <time>2026-09-01T20:00:02Z</time>
  <course>175.93</course>
  <speed>25.50941198851906</speed>
  <fix>3d</fix>
</trkpt>
<trkpt lat="-35.2816317" lon="148.9857541">
  <ele>711.74</ele>
  <time>2026-09-01T20:00:02Z</time>
  <course>176.11</course>
  <speed>25.49</speed>
  <fix>3d</fix>
</trkpt>
<trkpt lat="-35.2817209" lon="148.9857616">
  <ele>713.22</ele>
  <time>2026-09-01T20:00:02Z</time>
  <course>175.92</course>
  <speed>25.519388707412254</speed>
  <fix>3d</fix>
</trkpt>
<trkpt lat="-35.2816774" lon="148.9857578">
  <ele>712.44</ele>
  <time>2026-09-01T20:00:02Z</time>
  <course>176.11</course>
  <speed>25.49</speed>
  <fix>3d</fix>
</trkpt>
<trkpt lat="-35.2817431" lon="148.9857635">
  <ele>713.55</ele>
  <time>2026-09-01T20:00:02Z</time>
  <course>175.93</course>
  <speed>25.5293654445229</speed>
  <fix>3d</fix>
</trkpt>
<trkpt lat="-35.2816774" lon="148.9857578">
  <ele>712.44</ele>
  <time>2026-09-01T20:00:02Z</time>
  <course>176.11</course>
  <speed>25.49</speed>
  <fix>3d</fix>
</trkpt>
<trkpt lat="-35.2817658" lon="148.9857654">
  <ele>713.87</ele>
  <time>2026-09-01T20:00:02Z</time>
  <course>175.92</course>
  <speed>25.539342199829658</speed>
  <fix>3d</fix>
</trkpt>
<trkpt lat="-35.2817231" lon="148.9857616">
  <ele>713.13</ele>
  <time>2026-09-01T20:00:02Z</time>
  <course>176.13</course>
  <speed>25.5</speed>
  <fix>3d</fix>
</trkpt>
<trkpt lat="-35.2817887" lon="148.9857672">
  <ele>714.2</ele>
  <time>2026-09-01T20:00:02Z</time>
  <course>175.86</course>
  <speed>25.539342199829658</speed>
  <fix>3d</fix>
</trkpt>
<trkpt lat="-35.2817231" lon="148.9857616">
  <ele>713.13</ele>
  <time>2026-09-01T20:00:02Z</time>
  <course>176.13</course>
  <speed>25.5</speed>
  <fix>3d</fix>
</trkpt>
<trkpt lat="-35.2818116" lon="148.9857691">
  <ele>714.52</ele>
  <time>2026-09-01T20:00:02Z</time>
  <course>175.88</course>
  <speed>25.55000195694709</speed>
  <fix>3d</fix>
</trkpt>
<trkpt lat="-35.2817688" lon="148.9857654">
  <ele>713.79</ele>
  <time>2026-09-01T20:00:02Z</time>
  <course>176.13</course>
  <speed>25.52</speed>
  <fix>3d</fix>
</trkpt>
<trkpt lat="-35.2818345" lon="148.985771">
  <ele>714.84</ele>
  <time>2026-09-01T20:00:02Z</time>
  <course>175.96</course>
  <speed>25.559978481994072</speed>
  <fix>3d</fix>
</trkpt>
<trkpt lat="-35.2817688" lon="148.9857654">
  <ele>713.79</ele>
  <time>2026-09-01T20:00:02Z</time>
  <course>176.13</course>
  <speed>25.52</speed>
  <fix>3d</fix>
</trkpt>
<trkpt lat="-35.2818575" lon="148.985773">
  <ele>715.15</ele>
  <time>2026-09-01T20:00:02Z</time>
  <course>176.03</course>
  <speed>25.579931587085998</speed>
  <fix>3d</fix>
</trkpt>
<trkpt lat="-35.2818147" lon="148.9857692">
  <ele>714.44</ele>
  <time>2026-09-01T20:00:02Z</time>
  <course>176.12</course>
  <speed>25.53</speed>
  <fix>3d</fix>
</trkpt>
<trkpt lat="-35.2818806" lon="148.9857749">
  <ele>715.47</ele>
  <time>2026-09-01T20:00:02Z</time>
  <course>176.01</course>
  <speed>25.599884765365644</speed>
  <fix>3d</fix>
</trkpt>
<trkpt lat="-35.2818147" lon="148.9857692">
  <ele>714.44</ele>
  <time>2026-09-01T20:00:02Z</time>
  <course>176.12</course>
  <speed>25.53</speed>
  <fix>3d</fix>
</trkpt>
<trkpt lat="-35.2819036" lon="148.9857768">
  <ele>715.78</ele>
  <time>2026-09-01T20:00:02Z</time>
  <course>175.96</course>
  <speed>25.609861381897403</speed>
  <fix>3d</fix>
</trkpt>
<trkpt lat="-35.2818606" lon="148.985773">
  <ele>715.08</ele>
  <time>2026-09-01T20:00:02Z</time>
  <course>176.12</course>
  <speed>25.56</speed>
  <fix>3d</fix>
</trkpt>
<trkpt lat="-35.2819266" lon="148.9857787">
  <ele>716.08</ele>
  <time>2026-09-01T20:00:02Z</time>
  <course>175.87</course>
  <speed>25.629814669638172</speed>
  <fix>3d</fix>
</trkpt>
<trkpt lat="-35.2818606" lon="148.985773">
  <ele>715.08</ele>
  <time>2026-09-01T20:00:02Z</time>
  <course>176.12</course>
  <speed>25.56</speed>
  <fix>3d</fix>
</trkpt>
<trkpt lat="-35.2819503" lon="148.9857807">
  <ele>716.4</ele>
  <time>2026-09-01T20:00:02Z</time>
  <course>175.91</course>
  <speed>25.640475814617794</speed>
  <fix>3d</fix>
</trkpt>
<trkpt lat="-35.2819063" lon="148.9857769">
  <ele>715.7</ele>
  <time>2026-09-01T20:00:02Z</time>
  <course>176.12</course>
  <speed>25.59</speed>
  <fix>3d</fix>
</trkpt>
<trkpt lat="-35.281973" lon="148.9857826">
  <ele>716.7</ele>
  <time>2026-09-01T20:00:02Z</time>
  <course>175.97</course>
  <speed>25.650452237728672</speed>
  <fix>3d</fix>
</trkpt>
<trkpt lat="-35.2819063" lon="148.9857769">
  <ele>715.7</ele>
  <time>2026-09-01T20:00:02Z</time>
  <course>176.12</course>
  <speed>25.59</speed>
  <fix>3d</fix>
</trkpt>
<trkpt lat="-35.281996" lon="148.9857845">
  <ele>717.0</ele>
  <time>2026-09-01T20:00:02Z</time>
  <course>175.97</course>
  <speed>25.65974473762356</speed>
  <fix>3d</fix>
</trkpt>
<trkpt lat="-35.2819523" lon="148.9857807">
  <ele>716.31</ele>
  <time>2026-09-01T20:00:02Z</time>
  <course>176.12</course>
  <speed>25.61</speed>
  <fix>3d</fix>
</trkpt>
<trkpt lat="-35.282019" lon="148.9857864">
  <ele>717.31</ele>
  <time>2026-09-01T20:00:02Z</time>
  <course>175.84</course>
  <speed>25.670405138992255</speed>
  <fix>3d</fix>
</trkpt>
<trkpt lat="-35.2819523" lon="148.9857807">
  <ele>716.31</ele>
  <time>2026-09-01T20:00:02Z</time>
  <course>176.12</course>
  <speed>25.61</speed>
  <fix>3d</fix>
</trkpt>
<trkpt lat="-35.2820421" lon="148.9857883">
  <ele>717.61</ele>
  <time>2026-09-01T20:00:02Z</time>
  <course>175.77</course>
  <speed>25.68106890298766</speed>
  <fix>3d</fix>
</trkpt>
<trkpt lat="-35.2819982" lon="148.9857845">
  <ele>716.92</ele>
  <time>2026-09-01T20:00:02Z</time>
  <course>176.12</course>
  <speed>25.63</speed>
  <fix>3d</fix>
</trkpt>
<trkpt lat="-35.2820653" lon="148.9857903">
  <ele>717.91</ele>
  <time>2026-09-01T20:00:02Z</time>
  <course>175.85</course>
  <speed>25.701712005234203</speed>
  <fix>3d</fix>
</trkpt>
<trkpt lat="-35.2819982" lon="148.9857845">
  <ele>716.92</ele>
  <time>2026-09-01T20:00:02Z</time>
  <course>176.12</course>
  <speed>25.63</speed>
  <fix>3d</fix>
</trkpt>
<trkpt lat="-35.2820884" lon="148.9857922">
  <ele>718.21</ele>
  <time>2026-09-01T20:00:02Z</time>
  <course>175.87</course>
  <speed>25.71238223113526</speed>
  <fix>3d</fix>
</trkpt>
<trkpt lat="-35.2820442" lon="148.9857883">
  <ele>717.52</ele>
  <time>2026-09-01T20:00:02Z</time>
  <course>176.1</course>
  <speed>25.65</speed>
  <fix>3d</fix>
</trkpt>
<trkpt lat="-35.2821115" lon="148.9857942">
  <ele>718.5</ele>
  <time>2026-09-01T20:00:02Z</time>
  <course>175.95</course>
  <speed>25.7230558060274</speed>
  <fix>3d</fix>
</trkpt>
<trkpt lat="-35.2820442" lon="148.9857883">
  <ele>717.52</ele>
  <time>2026-09-01T20:00:02Z</time>
  <course>176.1</course>
  <speed>25.65</speed>
  <fix>3d</fix>
</trkpt>
<trkpt lat="-35.2821346" lon="148.9857961">
  <ele>718.8</ele>
  <time>2026-09-01T20:00:02Z</time>
  <course>175.9</course>
  <speed>25.742309531197858</speed>
  <fix>3d</fix>
</trkpt>
<trkpt lat="-35.2820902" lon="148.9857921">
  <ele>718.12</ele>
  <time>2026-09-01T20:00:02Z</time>
  <course>176.07</course>
  <speed>25.68</speed>
  <fix>3d</fix>
</trkpt>
<trkpt lat="-35.2821578" lon="148.9857981">
  <ele>719.09</ele>
  <time>2026-09-01T20:00:02Z</time>
  <course>175.8</course>
  <speed>25.752285335480423</speed>
  <fix>3d</fix>
</trkpt>
<trkpt lat="-35.2820902" lon="148.9857921">
  <ele>718.12</ele>
  <time>2026-09-01T20:00:02Z</time>
  <course>176.07</course>
  <speed>25.68</speed>
  <fix>3d</fix>
</trkpt>
<trkpt lat="-35.2821808" lon="148.9858">
  <ele>719.38</ele>
  <time>2026-09-01T20:00:02Z</time>
  <course>175.86</course>
  <speed>25.762957904712724</speed>
  <fix>3d</fix>
</trkpt>
<trkpt lat="-35.2821361" lon="148.985796">
  <ele>718.72</ele>
  <time>2026-09-01T20:00:02Z</time>
  <course>176.06</course>
  <speed>25.7</speed>
  <fix>3d</fix>
</trkpt>
<trkpt lat="-35.2822038" lon="148.985802">
  <ele>719.68</ele>
  <time>2026-09-01T20:00:02Z</time>
  <course>175.99</course>
  <speed>25.772237000307133</speed>
  <fix>3d</fix>
</trkpt>
<trkpt lat="-35.2821361" lon="148.985796">
  <ele>718.72</ele>
  <time>2026-09-01T20:00:02Z</time>
  <course>176.06</course>
  <speed>25.7</speed>
  <fix>3d</fix>
</trkpt>
<trkpt lat="-35.2822267" lon="148.9858039">
  <ele>719.97</ele>
  <time>2026-09-01T20:00:02Z</time>
  <course>176.01</course>
  <speed>25.77154438523233</speed>
  <fix>3d</fix>
</trkpt>
<trkpt lat="-35.2821822" lon="148.9857999">
  <ele>719.31</ele>
  <time>2026-09-01T20:00:02Z</time>
  <course>176.06</course>
  <speed>25.72</speed>
  <fix>3d</fix>
</trkpt>
<trkpt lat="-35.2822497" lon="148.9858058">
  <ele>720.26</ele>
  <time>2026-09-01T20:00:02Z</time>
  <course>176.0</course>
  <speed>25.7708556318955</speed>
  <fix>3d</fix>
</trkpt>
<trkpt lat="-35.2821822" lon="148.9857999">
  <ele>719.31</ele>
  <time>2026-09-01T20:00:02Z</time>
  <course>176.06</course>
  <speed>25.72</speed>
  <fix>3d</fix>
</trkpt>
<trkpt lat="-35.2822726" lon="148.9858077">
  <ele>720.55</ele>
  <time>2026-09-01T20:00:02Z</time>
  <course>175.92</course>
  <speed>25.780147400664724</speed>
  <fix>3d</fix>
</trkpt>
<trkpt lat="-35.2822283" lon="148.9858037">
  <ele>719.89</ele>
  <time>2026-09-01T20:00:02Z</time>
  <course>176.09</course>
  <speed>25.73</speed>
  <fix>3d</fix>
</trkpt>
<trkpt lat="-35.2822956" lon="148.9858096">
  <ele>720.84</ele>
  <time>2026-09-01T20:00:02Z</time>
  <course>175.84</course>
  <speed>25.770170740606282</speed>
  <fix>3d</fix>
</trkpt>
<trkpt lat="-35.2822283" lon="148.9858037">
  <ele>719.89</ele>
  <time>2026-09-01T20:00:02Z</time>
  <course>176.09</course>
  <speed>25.73</speed>
  <fix>3d</fix>
</trkpt>
<trkpt lat="-35.2823185" lon="148.9858115">
  <ele>721.13</ele>
  <time>2026-09-01T20:00:02Z</time>
  <course>175.85</course>
  <speed>25.760194098647627</speed>
  <fix>3d</fix>
</trkpt>
<trkpt lat="-35.2822745" lon="148.9858075">
  <ele>720.47</ele>
  <time>2026-09-01T20:00:02Z</time>
  <course>176.12</course>
  <speed>25.75</speed>
  <fix>3d</fix>
</trkpt>
<trkpt lat="-35.2823414" lon="148.9858134">
  <ele>721.43</ele>
  <time>2026-09-01T20:00:02Z</time>
  <course>175.9</course>
  <speed>25.7502174748098</speed>
  <fix>3d</fix>
</trkpt>
<trkpt lat="-35.2822745" lon="148.9858075">
  <ele>720.47</ele>
  <time>2026-09-01T20:00:02Z</time>
  <course>176.12</course>
  <speed>25.75</speed>
  <fix>3d</fix>
</trkpt>
<trkpt lat="-35.2823643" lon="148.9858153">
  <ele>721.72</ele>
  <time>2026-09-01T20:00:02Z</time>
  <course>175.88</course>
  <speed>25.7502174748098</speed>
  <fix>3d</fix>
</trkpt>
<trkpt lat="-35.2823207" lon="148.9858114">
  <ele>721.05</ele>
  <time>2026-09-01T20:00:02Z</time>
  <course>176.14</course>
  <speed>25.75</speed>
  <fix>3d</fix>
</trkpt>
<trkpt lat="-35.2823867" lon="148.9858171">
  <ele>722.01</ele>
  <time>2026-09-01T20:00:02Z</time>
  <course>175.89</course>
  <speed>25.7502174748098</speed>
  <fix>3d</fix>
</trkpt>
<trkpt lat="-35.2823207" lon="148.9858114">
  <ele>721.05</ele>
  <time>2026-09-01T20:00:02Z</time>
  <course>176.14</course>
  <speed>25.75</speed>
  <fix>3d</fix>
</trkpt>
<trkpt lat="-35.2824105" lon="148.9858191">
  <ele>722.31</ele>
  <time>2026-09-01T20:00:02Z</time>
  <course>175.94</course>
  <speed>25.7502174748098</speed>
  <fix>3d</fix>
</trkpt>
<trkpt lat="-35.282367" lon="148.9858152">
  <ele>721.64</ele>
  <time>2026-09-01T20:00:02Z</time>
  <course>176.14</course>
  <speed>25.75</speed>
  <fix>3d</fix>
</trkpt>
<trkpt lat="-35.2824334" lon="148.985821">
  <ele>722.59</ele>
  <time>2026-09-01T20:00:02Z</time>
  <course>175.92</course>
  <speed>25.749535918148116</speed>
  <fix>3d</fix>
</trkpt>
<trkpt lat="-35.282367" lon="148.9858152">
  <ele>721.64</ele>
  <time>2026-09-01T20:00:02Z</time>
  <course>176.14</course>
  <speed>25.75</speed>
  <fix>3d</fix>
</trkpt>
<trkpt lat="-35.2824564" lon="148.9858229">
  <ele>722.87</ele>
  <time>2026-09-01T20:00:02Z</time>
  <course>175.87</course>
  <speed>25.7694897116726</speed>
  <fix>3d</fix>
</trkpt>
<trkpt lat="-35.2824131" lon="148.985819">
  <ele>722.22</ele>
  <time>2026-09-01T20:00:02Z</time>
  <course>176.15</course>
  <speed>25.76</speed>
  <fix>3d</fix>
</trkpt>
<trkpt lat="-35.2824795" lon="148.9858248">
  <ele>723.15</ele>
  <time>2026-09-01T20:00:02Z</time>
  <course>175.88</course>
  <speed>25.7694897116726</speed>
  <fix>3d</fix>
</trkpt>
<trkpt lat="-35.2824131" lon="148.985819">
  <ele>722.22</ele>
  <time>2026-09-01T20:00:02Z</time>
  <course>176.15</course>
  <speed>25.76</speed>
  <fix>3d</fix>
</trkpt>
<trkpt lat="-35.2825027" lon="148.9858267">
  <ele>723.42</ele>
  <time>2026-09-01T20:00:02Z</time>
  <course>175.92</course>
  <speed>25.78944357678157</speed>
  <fix>3d</fix>
</trkpt>
<trkpt lat="-35.2824593" lon="148.9858228">
  <ele>722.78</ele>
  <time>2026-09-01T20:00:02Z</time>
  <course>176.15</course>
  <speed>25.77</speed>
  <fix>3d</fix>
</trkpt>
<trkpt lat="-35.2825259" lon="148.9858286">
  <ele>723.69</ele>
  <time>2026-09-01T20:00:02Z</time>
  <course>175.94</course>
  <speed>25.799420536128327</speed>
  <fix>3d</fix>
</trkpt>
<trkpt lat="-35.2824593" lon="148.9858228">
  <ele>722.78</ele>
  <time>2026-09-01T20:00:02Z</time>
  <course>176.15</course>
  <speed>25.77</speed>
  <fix>3d</fix>
</trkpt>
<trkpt lat="-35.2825493" lon="148.9858305">
  <ele>723.96</ele>
  <time>2026-09-01T20:00:02Z</time>
  <course>175.94</course>
  <speed>25.819374508302868</speed>
  <fix>3d</fix>
</trkpt>
<trkpt lat="-35.2825055" lon="148.9858267">
  <ele>723.32</ele>
  <time>2026-09-01T20:00:02Z</time>
  <course>176.15</course>
  <speed>25.79</speed>
  <fix>3d</fix>
</trkpt>
<trkpt lat="-35.2825726" lon="148.9858324">
  <ele>724.22</ele>
  <time>2026-09-01T20:00:02Z</time>
  <course>175.95</course>
  <speed>25.828675924251325</speed>
  <fix>3d</fix>
</trkpt>
<trkpt lat="-35.2825055" lon="148.9858267">
  <ele>723.32</ele>
  <time>2026-09-01T20:00:02Z</time>
  <course>176.15</course>
  <speed>25.79</speed>
  <fix>3d</fix>
</trkpt>
<trkpt lat="-35.2825958" lon="148.9858343">
  <ele>724.47</ele>
  <time>2026-09-01T20:00:02Z</time>
  <course>175.96</course>
  <speed>25.839328551647778</speed>
  <fix>3d</fix>
</trkpt>
<trkpt lat="-35.2825517" lon="148.9858305">
  <ele>723.86</ele>
  <time>2026-09-01T20:00:02Z</time>
  <course>176.16</course>
  <speed>25.8</speed>
  <fix>3d</fix>
</trkpt>
<trkpt lat="-35.2826191" lon="148.9858362">
  <ele>724.71</ele>
  <time>2026-09-01T20:00:02Z</time>
  <course>176.0</course>
  <speed>25.869259749749318</speed>
  <fix>3d</fix>
</trkpt>
<trkpt lat="-35.2825517" lon="148.9858305">
  <ele>723.86</ele>
  <time>2026-09-01T20:00:02Z</time>
  <course>176.16</course>
  <speed>25.8</speed>
  <fix>3d</fix>
</trkpt>
<trkpt lat="-35.2826424" lon="148.9858381">
  <ele>724.95</ele>
  <time>2026-09-01T20:00:02Z</time>
  <course>175.96</course>
  <speed>25.868585195174475</speed>
  <fix>3d</fix>
</trkpt>
<trkpt lat="-35.282598" lon="148.9858343">
  <ele>724.36</ele>
  <time>2026-09-01T20:00:02Z</time>
  <course>176.17</course>
  <speed>25.82</speed>
  <fix>3d</fix>
</trkpt>
<trkpt lat="-35.2826657" lon="148.98584">
  <ele>725.19</ele>
  <time>2026-09-01T20:00:02Z</time>
  <course>175.94</course>
  <speed>25.879236851190186</speed>
  <fix>3d</fix>
</trkpt>
<trkpt lat="-35.282598" lon="148.9858343">
  <ele>724.36</ele>
  <time>2026-09-01T20:00:02Z</time>
  <course>176.17</course>
  <speed>25.82</speed>
  <fix>3d</fix>
</trkpt>
<trkpt lat="-35.2826888" lon="148.9858419">
  <ele>725.43</ele>
  <time>2026-09-01T20:00:02Z</time>
  <course>175.95</course>
  <speed>25.87856255668</speed>
  <fix>3d</fix>
</trkpt>
<trkpt lat="-35.2826443" lon="148.9858381">
  <ele>724.85</ele>
  <time>2026-09-01T20:00:02Z</time>
  <course>176.17</course>
  <speed>25.83</speed>
  <fix>3d</fix>
</trkpt>
<trkpt lat="-35.2827119" lon="148.9858438">
  <ele>725.66</ele>
  <time>2026-09-01T20:00:02Z</time>
  <course>175.97</course>
  <speed>25.889213970300453</speed>
  <fix>3d</fix>
</trkpt>
<trkpt lat="-35.2826443" lon="148.9858381">
  <ele>724.85</ele>
  <time>2026-09-01T20:00:02Z</time>
  <course>176.17</course>
  <speed>25.83</speed>
  <fix>3d</fix>
</trkpt>
<trkpt lat="-35.282735" lon="148.9858457">
  <ele>725.88</ele>
  <time>2026-09-01T20:00:02Z</time>
  <course>176.02</course>
  <speed>25.898517332079066</speed>
  <fix>3d</fix>
</trkpt>
<trkpt lat="-35.2826906" lon="148.9858418">
  <ele>725.32</ele>
  <time>2026-09-01T20:00:02Z</time>
  <course>176.18</course>
  <speed>25.84</speed>
  <fix>3d</fix>
</trkpt>
<trkpt lat="-35.2827581" lon="148.9858476">
  <ele>726.09</ele>
  <time>2026-09-01T20:00:02Z</time>
  <course>176.04</course>
  <speed>25.90849474593227</speed>
  <fix>3d</fix>
</trkpt>
<trkpt lat="-35.2826906" lon="148.9858418">
  <ele>725.32</ele>
  <time>2026-09-01T20:00:02Z</time>
  <course>176.18</course>
  <speed>25.84</speed>
  <fix>3d</fix>
</trkpt>
<trkpt lat="-35.2827812" lon="148.9858495">
  <ele>726.3</ele>
  <time>2026-09-01T20:00:02Z</time>
  <course>176.08</course>
  <speed>25.91780276180834</speed>
  <fix>3d</fix>
</trkpt>
<trkpt lat="-35.2827369" lon="148.9858456">
  <ele>725.78</ele>
  <time>2026-09-01T20:00:02Z</time>
  <course>176.19</course>
  <speed>25.86</speed>
  <fix>3d</fix>
</trkpt>
<trkpt lat="-35.2828043" lon="148.9858513">
  <ele>726.5</ele>
  <time>2026-09-01T20:00:02Z</time>
  <course>176.04</course>
  <speed>25.927780468061666</speed>
  <fix>3d</fix>
</trkpt>
<trkpt lat="-35.2827369" lon="148.9858456">
  <ele>725.78</ele>
  <time>2026-09-01T20:00:02Z</time>
  <course>176.19</course>
  <speed>25.86</speed>
  <fix>3d</fix>
</trkpt>
<trkpt lat="-35.2828274" lon="148.9858532">
  <ele>726.7</ele>
  <time>2026-09-01T20:00:02Z</time>
  <course>175.98</course>
  <speed>25.91780276180834</speed>
  <fix>3d</fix>
</trkpt>
<trkpt lat="-35.2827834" lon="148.9858494">
  <ele>726.2</ele>
  <time>2026-09-01T20:00:02Z</time>
  <course>176.21</course>
  <speed>25.89</speed>
  <fix>3d</fix>
</trkpt>
<trkpt lat="-35.2828505" lon="148.9858551">
  <ele>726.89</ele>
  <time>2026-09-01T20:00:02Z</time>
  <course>176.0</course>
  <speed>25.93775819148602</speed>
  <fix>3d</fix>
</trkpt>
<trkpt lat="-35.2827834" lon="148.9858494">
  <ele>726.2</ele>
  <time>2026-09-01T20:00:02Z</time>
  <course>176.21</course>
  <speed>25.89</speed>
  <fix>3d</fix>
</trkpt>
<trkpt lat="-35.2828737" lon="148.9858569">
  <ele>727.07</ele>
  <time>2026-09-01T20:00:02Z</time>
  <course>176.05</course>
  <speed>25.947735932061587</speed>
  <fix>3d</fix>
</trkpt>
<trkpt lat="-35.2828299" lon="148.9858531">
  <ele>726.59</ele>
  <time>2026-09-01T20:00:02Z</time>
  <course>176.22</course>
  <speed>25.91</speed>
  <fix>3d</fix>
</trkpt>
<trkpt lat="-35.2828968" lon="148.9858588">
  <ele>727.25</ele>
  <time>2026-09-01T20:00:02Z</time>
  <course>176.07</course>
  <speed>25.957713689768596</speed>
  <fix>3d</fix>
</trkpt>
<trkpt lat="-35.2828299" lon="148.9858531">
  <ele>726.59</ele>
  <time>2026-09-01T20:00:02Z</time>
  <course>176.22</course>
  <speed>25.91</speed>
  <fix>3d</fix>
</trkpt>
<trkpt lat="-35.28292" lon="148.9858607">
  <ele>727.42</ele>
  <time>2026-09-01T20:00:02Z</time>
  <course>176.1</course>
  <speed>25.96702716908503</speed>
  <fix>3d</fix>
</trkpt>
<trkpt lat="-35.2828764" lon="148.9858568">
  <ele>726.97</ele>
  <time>2026-09-01T20:00:02Z</time>
  <course>176.23</course>
  <speed>25.94</speed>
  <fix>3d</fix>
</trkpt>
<trkpt lat="-35.2829432" lon="148.9858625">
  <ele>727.59</ele>
  <time>2026-09-01T20:00:02Z</time>
  <course>176.08</course>
  <speed>25.97700521615223</speed>
  <fix>3d</fix>
</trkpt>
<trkpt lat="-35.2828764" lon="148.9858568">
  <ele>726.97</ele>
  <time>2026-09-01T20:00:02Z</time>
  <course>176.23</course>
  <speed>25.94</speed>
  <fix>3d</fix>
</trkpt>
<trkpt lat="-35.2829664" lon="148.9858644">
  <ele>727.76</ele>
  <time>2026-09-01T20:00:02Z</time>
  <course>176.01</course>
  <speed>25.97700521615223</speed>
  <fix>3d</fix>
</trkpt>
<trkpt lat="-35.2829229" lon="148.9858606">
  <ele>727.33</ele>
  <time>2026-09-01T20:00:02Z</time>
  <course>176.24</course>
  <speed>25.97</speed>
  <fix>3d</fix>
</trkpt>
<trkpt lat="-35.2829896" lon="148.9858662">
  <ele>727.93</ele>
  <time>2026-09-01T20:00:02Z</time>
  <course>176.0</course>
  <speed>25.98698328009621</speed>
  <fix>3d</fix>
</trkpt>
<trkpt lat="-35.2829229" lon="148.9858606">
  <ele>727.33</ele>
  <time>2026-09-01T20:00:02Z</time>
  <course>176.24</course>
  <speed>25.97</speed>
  <fix>3d</fix>
</trkpt>
<trkpt lat="-35.2830128" lon="148.9858681">
  <ele>728.09</ele>
  <time>2026-09-01T20:00:02Z</time>
  <course>176.03</course>
  <speed>25.997624891516534</speed>
  <fix>3d</fix>
</trkpt>
<trkpt lat="-35.2829694" lon="148.9858644">
  <ele>727.68</ele>
  <time>2026-09-01T20:00:02Z</time>
  <course>176.24</course>
  <speed>25.99</speed>
  <fix>3d</fix>
</trkpt>
<trkpt lat="-35.2830363" lon="148.98587">
  <ele>728.26</ele>
  <time>2026-09-01T20:00:02Z</time>
  <course>176.08</course>
  <speed>26.016917572994693</speed>
  <fix>3d</fix>
</trkpt>
<trkpt lat="-35.2829694" lon="148.9858644">
  <ele>727.68</ele>
  <time>2026-09-01T20:00:02Z</time>
  <course>176.24</course>
  <speed>25.99</speed>
  <fix>3d</fix>
</trkpt>
<trkpt lat="-35.2830597" lon="148.9858719">
  <ele>728.42</ele>
  <time>2026-09-01T20:00:02Z</time>
  <course>176.04</course>
  <speed>26.026895704251782</speed>
  <fix>3d</fix>
</trkpt>
<trkpt lat="-35.2830161" lon="148.9858681">
  <ele>728.01</ele>
  <time>2026-09-01T20:00:02Z</time>
  <course>176.24</course>
  <speed>26.01</speed>
  <fix>3d</fix>
</trkpt>
<trkpt lat="-35.283083" lon="148.9858737">
  <ele>728.57</ele>
  <time>2026-09-01T20:00:02Z</time>
  <course>176.0</course>
  <speed>26.036873852288796</speed>
  <fix>3d</fix>
</trkpt>
<trkpt lat="-35.2830161" lon="148.9858681">
  <ele>728.01</ele>
  <time>2026-09-01T20:00:02Z</time>
  <course>176.24</course>
  <speed>26.01</speed>
  <fix>3d</fix>
</trkpt>
<trkpt lat="-35.2831064" lon="148.9858756">
  <ele>728.73</ele>
  <time>2026-09-01T20:00:02Z</time>
  <course>175.99</course>
  <speed>26.047514276798083</speed>
  <fix>3d</fix>
</trkpt>
<trkpt lat="-35.2830627" lon="148.9858719">
  <ele>728.33</ele>
  <time>2026-09-01T20:00:02Z</time>
  <course>176.24</course>
  <speed>26.03</speed>
  <fix>3d</fix>
</trkpt>
<trkpt lat="-35.2831298" lon="148.9858775">
  <ele>728.9</ele>
  <time>2026-09-01T20:00:02Z</time>
  <course>175.98</course>
  <speed>26.058158031603078</speed>
  <fix>3d</fix>
</trkpt>
<trkpt lat="-35.2830627" lon="148.9858719">
  <ele>728.33</ele>
  <time>2026-09-01T20:00:02Z</time>
  <course>176.24</course>
  <speed>26.03</speed>
  <fix>3d</fix>
</trkpt>
<trkpt lat="-35.2831531" lon="148.9858794">
  <ele>729.06</ele>
  <time>2026-09-01T20:00:02Z</time>
  <course>176.02</course>
  <speed>26.058158031603078</speed>
  <fix>3d</fix>
</trkpt>
<trkpt lat="-35.2831094" lon="148.9858756">
  <ele>728.66</ele>
  <time>2026-09-01T20:00:02Z</time>
  <course>176.24</course>
  <speed>26.05</speed>
  <fix>3d</fix>
</trkpt>
<trkpt lat="-35.2831765" lon="148.9858813">
  <ele>729.23</ele>
  <time>2026-09-01T20:00:02Z</time>
  <course>176.01</course>
  <speed>26.068135721604644</speed>
  <fix>3d</fix>
</trkpt>
<trkpt lat="-35.2831094" lon="148.9858756">
  <ele>728.66</ele>
  <time>2026-09-01T20:00:02Z</time>
  <course>176.24</course>
  <speed>26.05</speed>
  <fix>3d</fix>
</trkpt>
<trkpt lat="-35.2831999" lon="148.9858832">
  <ele>729.39</ele>
  <time>2026-09-01T20:00:02Z</time>
  <course>176.0</course>
  <speed>26.058158031603078</speed>
  <fix>3d</fix>
</trkpt>
<trkpt lat="-35.2831561" lon="148.9858793">
  <ele>728.99</ele>
  <time>2026-09-01T20:00:02Z</time>
  <course>176.22</course>
  <speed>26.06</speed>
  <fix>3d</fix>
</trkpt>
<trkpt lat="-35.2832232" lon="148.9858851">
  <ele>729.56</ele>
  <time>2026-09-01T20:00:02Z</time>
  <course>175.94</course>
  <speed>26.05882767892677</speed>
  <fix>3d</fix>
</trkpt>
<trkpt lat="-35.2831561" lon="148.9858793">
  <ele>728.99</ele>
  <time>2026-09-01T20:00:02Z</time>
  <course>176.22</course>
  <speed>26.06</speed>
  <fix>3d</fix>
</trkpt>
<trkpt lat="-35.2832466" lon="148.985887">
  <ele>729.71</ele>
  <time>2026-09-01T20:00:02Z</time>
  <course>175.88</course>
  <speed>26.05950114641491</speed>
  <fix>3d</fix>
</trkpt>
<trkpt lat="-35.2832028" lon="148.9858832">
  <ele>729.32</ele>
  <time>2026-09-01T20:00:02Z</time>
  <course>176.2</course>
  <speed>26.06</speed>
  <fix>3d</fix>
</trkpt>
<trkpt lat="-35.2832699" lon="148.9858889">
  <ele>729.87</ele>
  <time>2026-09-01T20:00:02Z</time>
  <course>175.89</course>
  <speed>26.070155350515268</speed>
  <fix>3d</fix>
</trkpt>
<trkpt lat="-35.2832028" lon="148.9858832">
  <ele>729.32</ele>
  <time>2026-09-01T20:00:02Z</time>
  <course>176.2</course>
  <speed>26.06</speed>
  <fix>3d</fix>
</trkpt>
<trkpt lat="-35.2832933" lon="148.9858908">
  <ele>730.02</ele>
  <time>2026-09-01T20:00:02Z</time>
  <course>175.89</course>
  <speed>26.070836196792765</speed>
  <fix>3d</fix>
</trkpt>
<trkpt lat="-35.2832495" lon="148.985887">
  <ele>729.64</ele>
  <time>2026-09-01T20:00:02Z</time>
  <course>176.17</course>
  <speed>26.06</speed>
  <fix>3d</fix>
</trkpt>
<trkpt lat="-35.2833166" lon="148.9858928">
  <ele>730.17</ele>
  <time>2026-09-01T20:00:02Z</time>
  <course>175.91</course>
  <speed>26.070836196792765</speed>
  <fix>3d</fix>
</trkpt>
<trkpt lat="-35.2832495" lon="148.985887">
  <ele>729.64</ele>
  <time>2026-09-01T20:00:02Z</time>
  <course>176.17</course>
  <speed>26.06</speed>
  <fix>3d</fix>
</trkpt>
<trkpt lat="-35.2833401" lon="148.9858947">
  <ele>730.31</ele>
  <time>2026-09-01T20:00:02Z</time>
  <course>175.87</course>
  <speed>26.08149727297112</speed>
  <fix>3d</fix>
</trkpt>
<trkpt lat="-35.2832963" lon="148.9858908">
  <ele>729.95</ele>
  <time>2026-09-01T20:00:02Z</time>
  <course>176.13</course>
  <speed>26.07</speed>
  <fix>3d</fix>
</trkpt>
<trkpt lat="-35.2833636" lon="148.9858967">
  <ele>730.46</ele>
  <time>2026-09-01T20:00:02Z</time>
  <course>175.88</course>
  <speed>26.091473703108456</speed>
  <fix>3d</fix>
</trkpt>
<trkpt lat="-35.2832963" lon="148.9858908">
  <ele>729.95</ele>
  <time>2026-09-01T20:00:02Z</time>
  <course>176.13</course>
  <speed>26.07</speed>
  <fix>3d</fix>
</trkpt>
<trkpt lat="-35.2833872" lon="148.9858986">
  <ele>730.6</ele>
  <time>2026-09-01T20:00:02Z</time>
  <course>175.8</course>
  <speed>26.102829348559133</speed>
  <fix>3d</fix>
</trkpt>
<trkpt lat="-35.2833432" lon="148.9858947">
  <ele>730.25</ele>
  <time>2026-09-01T20:00:02Z</time>
  <course>176.11</course>
  <speed>26.08</speed>
  <fix>3d</fix>
</trkpt>
<trkpt lat="-35.2834107" lon="148.9859006">
  <ele>730.74</ele>
  <time>2026-09-01T20:00:02Z</time>
  <course>175.77</course>
  <speed>26.112805287827655</speed>
  <fix>3d</fix>
</trkpt>
<trkpt lat="-35.2833432" lon="148.9858947">
  <ele>730.25</ele>
  <time>2026-09-01T20:00:02Z</time>
  <course>176.11</course>
  <speed>26.08</speed>
  <fix>3d</fix>
</trkpt>
<trkpt lat="-35.2834342" lon="148.9859026">
  <ele>730.89</ele>
  <time>2026-09-01T20:00:02Z</time>
  <course>175.78</course>
  <speed>26.103524666220842</speed>
  <fix>3d</fix>
</trkpt>
<trkpt lat="-35.2833899" lon="148.9858986">
  <ele>730.55</ele>
  <time>2026-09-01T20:00:02Z</time>
  <course>176.07</course>
  <speed>26.08</speed>
  <fix>3d</fix>
</trkpt>
<trkpt lat="-35.2834576" lon="148.9859046">
  <ele>731.03</ele>
  <time>2026-09-01T20:00:02Z</time>
  <course>175.73</course>
  <speed>26.114199202732603</speed>
  <fix>3d</fix>
</trkpt>
<trkpt lat="-35.2833899" lon="148.9858986">
  <ele>730.55</ele>
  <time>2026-09-01T20:00:02Z</time>
  <course>176.07</course>
  <speed>26.08</speed>
  <fix>3d</fix>
</trkpt>
<trkpt lat="-35.283481" lon="148.9859066">
  <ele>731.17</ele>
  <time>2026-09-01T20:00:02Z</time>
  <course>175.71</course>
  <speed>26.115608359752986</speed>
  <fix>3d</fix>
</trkpt>
<trkpt lat="-35.2834366" lon="148.9859025">
  <ele>730.85</ele>
  <time>2026-09-01T20:00:02Z</time>
  <course>176.03</course>
  <speed>26.07</speed>
  <fix>3d</fix>
</trkpt>
<trkpt lat="-35.2835042" lon="148.9859086">
  <ele>731.32</ele>
  <time>2026-09-01T20:00:02Z</time>
  <course>175.61</course>
  <speed>26.106344056569853</speed>
  <fix>3d</fix>
</trkpt>
<trkpt lat="-35.2834366" lon="148.9859025">
  <ele>730.85</ele>
  <time>2026-09-01T20:00:02Z</time>
  <course>176.03</course>
  <speed>26.07</speed>
  <fix>3d</fix>
</trkpt>
<trkpt lat="-35.2835276" lon="148.9859106">
  <ele>731.46</ele>
  <time>2026-09-01T20:00:02Z</time>
  <course>175.58</course>
  <speed>26.107058432538892</speed>
  <fix>3d</fix>
</trkpt>
<trkpt lat="-35.2834833" lon="148.9859066">
  <ele>731.14</ele>
  <time>2026-09-01T20:00:02Z</time>
  <course>175.99</course>
  <speed>26.07</speed>
  <fix>3d</fix>
</trkpt>
<trkpt lat="-35.283551" lon="148.9859126">
  <ele>731.6</ele>
  <time>2026-09-01T20:00:02Z</time>
  <course>175.64</course>
  <speed>26.097802589490176</speed>
  <fix>3d</fix>
</trkpt>
<trkpt lat="-35.2834833" lon="148.9859066">
  <ele>731.14</ele>
  <time>2026-09-01T20:00:02Z</time>
  <course>175.99</course>
  <speed>26.07</speed>
  <fix>3d</fix>
</trkpt>
<trkpt lat="-35.2835743" lon="148.9859147">
  <ele>731.74</ele>
  <time>2026-09-01T20:00:02Z</time>
  <course>175.72</course>
  <speed>26.097802589490176</speed>
  <fix>3d</fix>
</trkpt>
<trkpt lat="-35.28353" lon="148.9859106">
  <ele>731.43</ele>
  <time>2026-09-01T20:00:02Z</time>
  <course>175.94</course>
  <speed>26.06</speed>
  <fix>3d</fix>
</trkpt>
<trkpt lat="-35.2835977" lon="148.9859167">
  <ele>731.89</ele>
  <time>2026-09-01T20:00:02Z</time>
  <course>175.74</course>
  <speed>26.087828579626933</speed>
  <fix>3d</fix>
</trkpt>
<trkpt lat="-35.28353" lon="148.9859106">
  <ele>731.43</ele>
  <time>2026-09-01T20:00:02Z</time>
  <course>175.94</course>
  <speed>26.06</speed>
  <fix>3d</fix>
</trkpt>
<trkpt lat="-35.2836213" lon="148.9859188">
  <ele>732.03</ele>
  <time>2026-09-01T20:00:02Z</time>
  <course>175.75</course>
  <speed>26.087828579626933</speed>
  <fix>3d</fix>
</trkpt>
<trkpt lat="-35.2835767" lon="148.9859147">
  <ele>731.72</ele>
  <time>2026-09-01T20:00:02Z</time>
  <course>175.9</course>
  <speed>26.05</speed>
  <fix>3d</fix>
</trkpt>
<trkpt lat="-35.2836446" lon="148.9859208">
  <ele>732.17</ele>
  <time>2026-09-01T20:00:02Z</time>
  <course>175.74</course>
  <speed>26.087828579626933</speed>
  <fix>3d</fix>
</trkpt>
<trkpt lat="-35.2835767" lon="148.9859147">
  <ele>731.72</ele>
  <time>2026-09-01T20:00:02Z</time>
  <course>175.9</course>
  <speed>26.05</speed>
  <fix>3d</fix>
</trkpt>
<trkpt lat="-35.283668" lon="148.9859229">
  <ele>732.32</ele>
  <time>2026-09-01T20:00:02Z</time>
  <course>175.66</course>
  <speed>26.077135578893632</speed>
  <fix>3d</fix>
</trkpt>
<trkpt lat="-35.2836234" lon="148.9859187">
  <ele>732.01</ele>
  <time>2026-09-01T20:00:02Z</time>
  <course>175.9</course>
  <speed>26.05</speed>
  <fix>3d</fix>
</trkpt>
<trkpt lat="-35.2836915" lon="148.9859249">
  <ele>732.46</ele>
  <time>2026-09-01T20:00:02Z</time>
  <course>175.62</course>
  <speed>26.077135578893632</speed>
  <fix>3d</fix>
</trkpt>
<trkpt lat="-35.2836234" lon="148.9859187">
  <ele>732.01</ele>
  <time>2026-09-01T20:00:02Z</time>
  <course>175.9</course>
  <speed>26.05</speed>
  <fix>3d</fix>
</trkpt>
<trkpt lat="-35.2837148" lon="148.985927">
  <ele>732.6</ele>
  <time>2026-09-01T20:00:02Z</time>
  <course>175.61</course>
  <speed>26.067161333754775</speed>
  <fix>3d</fix>
</trkpt>
<trkpt lat="-35.2836701" lon="148.9859228">
  <ele>732.3</ele>
  <time>2026-09-01T20:00:02Z</time>
  <course>175.92</course>
  <speed>26.04</speed>
  <fix>3d</fix>
</trkpt>
<trkpt lat="-35.2837381" lon="148.985929">
  <ele>732.74</ele>
  <time>2026-09-01T20:00:02Z</time>
  <course>175.62</course>
  <speed>26.056471365094698</speed>
  <fix>3d</fix>
</trkpt>
<trkpt lat="-35.2836701" lon="148.9859228">
  <ele>732.3</ele>
  <time>2026-09-01T20:00:02Z</time>
  <course>175.92</course>
  <speed>26.04</speed>
  <fix>3d</fix>
</trkpt>
<trkpt lat="-35.2837614" lon="148.985931">
  <ele>732.89</ele>
  <time>2026-09-01T20:00:02Z</time>
  <course>175.64</course>
  <speed>26.01586054698172</speed>
  <fix>3d</fix>
</trkpt>
<trkpt lat="-35.2837167" lon="148.9859269">
  <ele>732.58</ele>
  <time>2026-09-01T20:00:02Z</time>
  <course>175.93</course>
  <speed>26.03</speed>
  <fix>3d</fix>
</trkpt>
<trkpt lat="-35.2837846" lon="148.985933">
  <ele>733.03</ele>
  <time>2026-09-01T20:00:02Z</time>
  <course>175.68</course>
  <speed>25.925377528591557</speed>
  <fix>3d</fix>
</trkpt>
<trkpt lat="-35.2837167" lon="148.9859269">
  <ele>732.58</ele>
  <time>2026-09-01T20:00:02Z</time>
  <course>175.93</course>
  <speed>26.03</speed>
  <fix>3d</fix>
</trkpt>
<trkpt lat="-35.2838078" lon="148.985935">
  <ele>733.17</ele>
  <time>2026-09-01T20:00:02Z</time>
  <course>175.56</course>
  <speed>25.777193408127268</speed>
  <fix>3d</fix>
</trkpt>
<trkpt lat="-35.2837634" lon="148.985931">
  <ele>732.87</ele>
  <time>2026-09-01T20:00:02Z</time>
  <course>175.96</course>
  <speed>25.95</speed>
  <fix>3d</fix>
</trkpt>
<trkpt lat="-35.2838307" lon="148.9859371">
  <ele>733.31</ele>
  <time>2026-09-01T20:00:02Z</time>
  <course>175.22</course>
  <speed>25.558372405143487</speed>
  <fix>3d</fix>
</trkpt>
<trkpt lat="-35.2837634" lon="148.985931">
  <ele>732.87</ele>
  <time>2026-09-01T20:00:02Z</time>
  <course>175.96</course>
  <speed>25.95</speed>
  <fix>3d</fix>
</trkpt>
<trkpt lat="-35.2838534" lon="148.9859394">
  <ele>733.49</ele>
  <time>2026-09-01T20:00:02Z</time>
  <course>174.56</course>
  <speed>25.25404126075666</speed>
  <fix>3d</fix>
</trkpt>
<trkpt lat="-35.2838098" lon="148.985935">
  <ele>733.15</ele>
  <time>2026-09-01T20:00:02Z</time>
  <course>175.78</course>
  <speed>25.71</speed>
  <fix>3d</fix>
</trkpt>
<trkpt lat="-35.2838758" lon="148.9859421">
  <ele>733.69</ele>
  <time>2026-09-01T20:00:02Z</time>
  <course>173.54</course>
  <speed>24.864850693297956</speed>
  <fix>3d</fix>
</trkpt>
<trkpt lat="-35.2838098" lon="148.985935">
  <ele>733.15</ele>
  <time>2026-09-01T20:00:02Z</time>
  <course>175.78</course>
  <speed>25.71</speed>
  <fix>3d</fix>
</trkpt>
<trkpt lat="-35.2838977" lon="148.9859453">
  <ele>733.94</ele>
  <time>2026-09-01T20:00:02Z</time>
  <course>172.25</course>
  <speed>24.400295080182946</speed>
  <fix>3d</fix>
</trkpt>
<trkpt lat="-35.2838554" lon="148.9859396">
  <ele>733.48</ele>
  <time>2026-09-01T20:00:02Z</time>
  <course>174.76</course>
  <speed>25.19</speed>
  <fix>3d</fix>
</trkpt>
<trkpt lat="-35.2839192" lon="148.985949">
  <ele>734.21</ele>
  <time>2026-09-01T20:00:02Z</time>
  <course>170.83</course>
  <speed>23.919425160316877</speed>
  <fix>3d</fix>
</trkpt>
<trkpt lat="-35.2838554" lon="148.9859396">
  <ele>733.48</ele>
  <time>2026-09-01T20:00:02Z</time>
  <course>174.76</course>
  <speed>25.19</speed>
  <fix>3d</fix>
</trkpt>
<trkpt lat="-35.2839402" lon="148.9859531">
  <ele>734.52</ele>
  <time>2026-09-01T20:00:02Z</time>
  <course>169.44</course>
  <speed>23.42106957421031</speed>
  <fix>3d</fix>
</trkpt>
<trkpt lat="-35.2838997" lon="148.9859454">
  <ele>733.93</ele>
  <time>2026-09-01T20:00:02Z</time>
  <course>172.72</course>
  <speed>24.38</speed>
  <fix>3d</fix>
</trkpt>
<trkpt lat="-35.2839606" lon="148.9859578">
  <ele>734.86</ele>
  <time>2026-09-01T20:00:02Z</time>
  <course>168.15</course>
  <speed>22.910298994120527</speed>
  <fix>3d</fix>
</trkpt>
<trkpt lat="-35.2838997" lon="148.9859454">
  <ele>733.93</ele>
  <time>2026-09-01T20:00:02Z</time>
  <course>172.72</course>
  <speed>24.38</speed>
  <fix>3d</fix>
</trkpt>
<trkpt lat="-35.2839804" lon="148.9859629">
  <ele>735.22</ele>
  <time>2026-09-01T20:00:02Z</time>
  <course>167.01</course>
  <speed>22.413255006803453</speed>
  <fix>3d</fix>
</trkpt>
<trkpt lat="-35.2839422" lon="148.9859533">
  <ele>734.51</ele>
  <time>2026-09-01T20:00:02Z</time>
  <course>170.19</course>
  <speed>23.41</speed>
  <fix>3d</fix>
</trkpt>
<trkpt lat="-35.2839998" lon="148.9859684">
  <ele>735.61</ele>
  <time>2026-09-01T20:00:02Z</time>
  <course>166.08</course>
  <speed>21.911104490645833</speed>
  <fix>3d</fix>
</trkpt>
<trkpt lat="-35.2839422" lon="148.9859533">
  <ele>734.51</ele>
  <time>2026-09-01T20:00:02Z</time>
  <course>170.19</course>
  <speed>23.41</speed>
  <fix>3d</fix>
</trkpt>
<trkpt lat="-35.2840188" lon="148.9859742">
  <ele>736.0</ele>
  <time>2026-09-01T20:00:02Z</time>
  <course>165.42</course>
  <speed>21.429367699491277</speed>
  <fix>3d</fix>
</trkpt>
<trkpt lat="-35.2839826" lon="148.985963">
  <ele>735.2</ele>
  <time>2026-09-01T20:00:02Z</time>
  <course>167.62</course>
  <speed>22.41</speed>
  <fix>3d</fix>
</trkpt>
<trkpt lat="-35.2840372" lon="148.9859802">
  <ele>736.41</ele>
  <time>2026-09-01T20:00:02Z</time>
  <course>164.96</course>
  <speed>20.988115684834597</speed>
  <fix>3d</fix>
</trkpt>
<trkpt lat="-35.2839826" lon="148.985963">
  <ele>735.2</ele>
  <time>2026-09-01T20:00:02Z</time>
  <course>167.62</course>
  <speed>22.41</speed>
  <fix>3d</fix>
</trkpt>
<trkpt lat="-35.2840554" lon="148.9859864">
  <ele>736.8</ele>
  <time>2026-09-01T20:00:02Z</time>
  <course>164.62</course>
  <speed>20.579378027530375</speed>
  <fix>3d</fix>
</trkpt>
<trkpt lat="-35.2840209" lon="148.9859742">
  <ele>735.98</ele>
  <time>2026-09-01T20:00:02Z</time>
  <course>165.46</course>
  <speed>21.44</speed>
  <fix>3d</fix>
</trkpt>
<trkpt lat="-35.284073" lon="148.9859926">
  <ele>737.17</ele>
  <time>2026-09-01T20:00:02Z</time>
  <course>164.33</course>
  <speed>20.20650390344653</speed>
  <fix>3d</fix>
</trkpt>
<trkpt lat="-35.2840209" lon="148.9859742">
  <ele>735.98</ele>
  <time>2026-09-01T20:00:02Z</time>
  <course>165.46</course>
  <speed>21.44</speed>
  <fix>3d</fix>
</trkpt>
<trkpt lat="-35.2840903" lon="148.9859989">
  <ele>737.51</ele>
  <time>2026-09-01T20:00:02Z</time>
  <course>164.07</course>
  <speed>19.8739477708884</speed>
  <fix>3d</fix>
</trkpt>
<trkpt lat="-35.2840572" lon="148.9859864">
  <ele>736.76</ele>
  <time>2026-09-01T20:00:02Z</time>
  <course>164.02</course>
  <speed>20.59</speed>
  <fix>3d</fix>
</trkpt>
<trkpt lat="-35.2841073" lon="148.9860052">
  <ele>737.81</ele>
  <time>2026-09-01T20:00:02Z</time>
  <course>163.84</course>
  <speed>19.564828136224452</speed>
  <fix>3d</fix>
</trkpt>
<trkpt lat="-35.2840572" lon="148.9859864">
  <ele>736.76</ele>
  <time>2026-09-01T20:00:02Z</time>
  <course>164.02</course>
  <speed>20.59</speed>
  <fix>3d</fix>
</trkpt>
<trkpt lat="-35.284124" lon="148.9860114">
  <ele>738.08</ele>
  <time>2026-09-01T20:00:02Z</time>
  <course>163.62</course>
  <speed>19.272210563399312</speed>
  <fix>3d</fix>
</trkpt>
<trkpt lat="-35.284092" lon="148.985999">
  <ele>737.46</ele>
  <time>2026-09-01T20:00:02Z</time>
  <course>163.19</course>
  <speed>19.87</speed>
  <fix>3d</fix>
</trkpt>
<trkpt lat="-35.2841405" lon="148.9860176">
  <ele>738.31</ele>
  <time>2026-09-01T20:00:02Z</time>
  <course>163.41</course>
  <speed>19.002505098012733</speed>
  <fix>3d</fix>
</trkpt>
<trkpt lat="-35.284092" lon="148.985999">
  <ele>737.46</ele>
  <time>2026-09-01T20:00:02Z</time>
  <course>163.19</course>
  <speed>19.87</speed>
  <fix>3d</fix>
</trkpt>
<trkpt lat="-35.2841567" lon="148.9860238">
  <ele>738.5</ele>
  <time>2026-09-01T20:00:02Z</time>
  <course>163.21</course>
  <speed>18.739437024628035</speed>
  <fix>3d</fix>
</trkpt>
<trkpt lat="-35.2841257" lon="148.9860116">
  <ele>738.02</ele>
  <time>2026-09-01T20:00:02Z</time>
  <course>162.7</course>
  <speed>19.26</speed>
  <fix>3d</fix>
</trkpt>
<trkpt lat="-35.2841727" lon="148.98603">
  <ele>738.66</ele>
  <time>2026-09-01T20:00:02Z</time>
  <course>163.02</course>
  <speed>18.495491342486687</speed>
  <fix>3d</fix>
</trkpt>
<trkpt lat="-35.2841257" lon="148.9860116">
  <ele>738.02</ele>
  <time>2026-09-01T20:00:02Z</time>
  <course>162.7</course>
  <speed>19.26</speed>
  <fix>3d</fix>
</trkpt>
<trkpt lat="-35.2841885" lon="148.986036">
  <ele>738.78</ele>
  <time>2026-09-01T20:00:02Z</time>
  <course>162.87</course>
  <speed>18.26763257786843</speed>
  <fix>3d</fix>
</trkpt>
<trkpt lat="-35.2841581" lon="148.9860242">
  <ele>738.44</ele>
  <time>2026-09-01T20:00:02Z</time>
  <course>162.44</course>
  <speed>18.72</speed>
  <fix>3d</fix>
</trkpt>
<trkpt lat="-35.284204" lon="148.9860421">
  <ele>738.88</ele>
  <time>2026-09-01T20:00:02Z</time>
  <course>162.74</course>
  <speed>18.046301560153537</speed>
  <fix>3d</fix>
</trkpt>
<trkpt lat="-35.2841581" lon="148.9860242">
  <ele>738.44</ele>
  <time>2026-09-01T20:00:02Z</time>
  <course>162.44</course>
  <speed>18.72</speed>
  <fix>3d</fix>
</trkpt>
<trkpt lat="-35.2842196" lon="148.986048">
  <ele>738.96</ele>
  <time>2026-09-01T20:00:02Z</time>
  <course>162.61</course>
  <speed>17.84104537295951</speed>
  <fix>3d</fix>
</trkpt>
<trkpt lat="-35.2841899" lon="148.9860365">
  <ele>738.73</ele>
  <time>2026-09-01T20:00:02Z</time>
  <course>162.33</course>
  <speed>18.23</speed>
  <fix>3d</fix>
</trkpt>
<trkpt lat="-35.2842348" lon="148.9860539">
  <ele>739.03</ele>
  <time>2026-09-01T20:00:02Z</time>
  <course>162.52</course>
  <speed>17.642369455376453</speed>
  <fix>3d</fix>
</trkpt>
<trkpt lat="-35.2841899" lon="148.9860365">
  <ele>738.73</ele>
  <time>2026-09-01T20:00:02Z</time>
  <course>162.33</course>
  <speed>18.23</speed>
  <fix>3d</fix>
</trkpt>
<trkpt lat="-35.2842498" lon="148.9860596">
  <ele>739.09</ele>
  <time>2026-09-01T20:00:02Z</time>
  <course>162.49</course>
  <speed>17.459896906912135</speed>
  <fix>3d</fix>
</trkpt>
<trkpt lat="-35.2842208" lon="148.9860485">
  <ele>738.92</ele>
  <time>2026-09-01T20:00:02Z</time>
  <course>162.39</course>
  <speed>17.8</speed>
  <fix>3d</fix>
</trkpt>
<trkpt lat="-35.2842647" lon="148.9860652">
  <ele>739.15</ele>
  <time>2026-09-01T20:00:02Z</time>
  <course>162.52</course>
  <speed>17.271710974886073</speed>
  <fix>3d</fix>
</trkpt>
<trkpt lat="-35.2842208" lon="148.9860485">
  <ele>738.92</ele>
  <time>2026-09-01T20:00:02Z</time>
  <course>162.39</course>
  <speed>17.8</speed>
  <fix>3d</fix>
</trkpt>
<trkpt lat="-35.2842794" lon="148.9860707">
  <ele>739.22</ele>
  <time>2026-09-01T20:00:02Z</time>
  <course>162.63</course>
  <speed>17.10007309925896</speed>
  <fix>3d</fix>
</trkpt>
<trkpt lat="-35.2842509" lon="148.9860602">
  <ele>739.05</ele>
  <time>2026-09-01T20:00:02Z</time>
  <course>162.64</course>
  <speed>17.41</speed>
  <fix>3d</fix>
</trkpt>
<trkpt lat="-35.2842939" lon="148.986076">
  <ele>739.3</ele>
  <time>2026-09-01T20:00:02Z</time>
  <course>162.81</course>
  <speed>16.926030249293543</speed>
  <fix>3d</fix>
</trkpt>
<trkpt lat="-35.2842509" lon="148.9860602">
  <ele>739.05</ele>
  <time>2026-09-01T20:00:02Z</time>
  <course>162.64</course>
  <speed>17.41</speed>
  <fix>3d</fix>
</trkpt>
<trkpt lat="-35.2843084" lon="148.9860812">
  <ele>739.39</ele>
  <time>2026-09-01T20:00:02Z</time>
  <course>163.06</course>
  <speed>16.75661660359871</speed>
  <fix>3d</fix>
</trkpt>
<trkpt lat="-35.2842805" lon="148.9860713">
  <ele>739.18</ele>
  <time>2026-09-01T20:00:02Z</time>
  <course>163.13</course>
  <speed>17.05</speed>
  <fix>3d</fix>
</trkpt>
<trkpt lat="-35.2843226" lon="148.9860861">
  <ele>739.49</ele>
  <time>2026-09-01T20:00:02Z</time>
  <course>163.36</course>
  <speed>16.594990207891055</speed>
  <fix>3d</fix>
</trkpt>
<trkpt lat="-35.2842805" lon="148.9860713">
  <ele>739.18</ele>
  <time>2026-09-01T20:00:02Z</time>
  <course>163.13</course>
  <speed>17.05</speed>
  <fix>3d</fix>
</trkpt>
<trkpt lat="-35.2843369" lon="148.9860909">
  <ele>739.62</ele>
  <time>2026-09-01T20:00:02Z</time>
  <course>163.72</course>
  <speed>16.434409024969533</speed>
  <fix>3d</fix>
</trkpt>
<trkpt lat="-35.2843096" lon="148.9860818">
  <ele>739.36</ele>
  <time>2026-09-01T20:00:02Z</time>
  <course>163.84</course>
  <speed>16.71</speed>
  <fix>3d</fix>
</trkpt>
<trkpt lat="-35.284351" lon="148.9860956">
  <ele>739.75</ele>
  <time>2026-09-01T20:00:02Z</time>
  <course>164.12</course>
  <speed>16.27955773355038</speed>
  <fix>3d</fix>
</trkpt>
<trkpt lat="-35.2843096" lon="148.9860818">
  <ele>739.36</ele>
  <time>2026-09-01T20:00:02Z</time>
  <course>163.84</course>
  <speed>16.71</speed>
  <fix>3d</fix>
</trkpt>
<trkpt lat="-35.2843652" lon="148.9861">
  <ele>739.91</ele>
  <time>2026-09-01T20:00:02Z</time>
  <course>164.56</course>
  <speed>16.126208481847183</speed>
  <fix>3d</fix>
</trkpt>
<trkpt lat="-35.2843381" lon="148.9860917">
  <ele>739.58</ele>
  <time>2026-09-01T20:00:02Z</time>
  <course>164.76</course>
  <speed>16.38</speed>
  <fix>3d</fix>
</trkpt>
<trkpt lat="-35.2843793" lon="148.9861043">
  <ele>740.08</ele>
  <time>2026-09-01T20:00:02Z</time>
  <course>165.03</course>
  <speed>15.974404527242948</speed>
  <fix>3d</fix>
</trkpt>
<trkpt lat="-35.2843381" lon="148.9860917">
  <ele>739.58</ele>
  <time>2026-09-01T20:00:02Z</time>
  <course>164.76</course>
  <speed>16.38</speed>
  <fix>3d</fix>
</trkpt>
<trkpt lat="-35.2843932" lon="148.9861083">
  <ele>740.28</ele>
  <time>2026-09-01T20:00:02Z</time>
  <course>165.53</course>
  <speed>15.831727637879576</speed>
  <fix>3d</fix>
</trkpt>
<trkpt lat="-35.2843663" lon="148.9861008">
  <ele>739.89</ele>
  <time>2026-09-01T20:00:02Z</time>
  <course>165.85</course>
  <speed>16.06</speed>
  <fix>3d</fix>
</trkpt>
<trkpt lat="-35.284407" lon="148.9861121">
  <ele>740.48</ele>
  <time>2026-09-01T20:00:02Z</time>
  <course>166.05</course>
  <speed>15.681163859867036</speed>
  <fix>3d</fix>
</trkpt>
<trkpt lat="-35.2843663" lon="148.9861008">
  <ele>739.89</ele>
  <time>2026-09-01T20:00:02Z</time>
  <course>165.85</course>
  <speed>16.06</speed>
  <fix>3d</fix>
</trkpt>
<trkpt lat="-35.2844207" lon="148.9861157">
  <ele>740.71</ele>
  <time>2026-09-01T20:00:02Z</time>
  <course>166.58</course>
  <speed>15.544291556709814</speed>
  <fix>3d</fix>
</trkpt>
<trkpt lat="-35.2843941" lon="148.986109">
  <ele>740.26</ele>
  <time>2026-09-01T20:00:02Z</time>
  <course>167.04</course>
  <speed>15.76</speed>
  <fix>3d</fix>
</trkpt>
<trkpt lat="-35.2844343" lon="148.986119">
  <ele>740.94</ele>
  <time>2026-09-01T20:00:02Z</time>
  <course>167.13</course>
  <speed>15.397483560634187</speed>
  <fix>3d</fix>
</trkpt>
<trkpt lat="-35.2843941" lon="148.986109">
  <ele>740.26</ele>
  <time>2026-09-01T20:00:02Z</time>
  <course>167.04</course>
  <speed>15.76</speed>
  <fix>3d</fix>
</trkpt>
<trkpt lat="-35.2844477" lon="148.9861222">
  <ele>741.19</ele>
  <time>2026-09-01T20:00:02Z</time>
  <course>167.69</course>
  <speed>15.264298215116211</speed>
  <fix>3d</fix>
</trkpt>
<trkpt lat="-35.2844215" lon="148.9861163">
  <ele>740.69</ele>
  <time>2026-09-01T20:00:02Z</time>
  <course>168.31</course>
  <speed>15.46</speed>
  <fix>3d</fix>
</trkpt>
<trkpt lat="-35.2844611" lon="148.9861251">
  <ele>741.45</ele>
  <time>2026-09-01T20:00:02Z</time>
  <course>168.27</course>
  <speed>15.132987147288537</speed>
  <fix>3d</fix>
</trkpt>
<trkpt lat="-35.2844215" lon="148.9861163">
  <ele>740.69</ele>
  <time>2026-09-01T20:00:02Z</time>
  <course>168.31</course>
  <speed>15.46</speed>
  <fix>3d</fix>
</trkpt>
<trkpt lat="-35.2844744" lon="148.9861278">
  <ele>741.71</ele>
  <time>2026-09-01T20:00:02Z</time>
  <course>168.86</course>
  <speed>14.995285925916852</speed>
  <fix>3d</fix>
</trkpt>
<trkpt lat="-35.2844486" lon="148.9861227">
  <ele>741.17</ele>
  <time>2026-09-01T20:00:02Z</time>
  <course>169.61</course>
  <speed>15.18</speed>
  <fix>3d</fix>
</trkpt>
<trkpt lat="-35.2844876" lon="148.9861303">
  <ele>741.98</ele>
  <time>2026-09-01T20:00:02Z</time>
  <course>169.45</course>
  <speed>14.869196346810408</speed>
  <fix>3d</fix>
</trkpt>
<trkpt lat="-35.2844486" lon="148.9861227">
  <ele>741.17</ele>
  <time>2026-09-01T20:00:02Z</time>
  <course>169.61</course>
  <speed>15.18</speed>
  <fix>3d</fix>
</trkpt>
<trkpt lat="-35.2845006" lon="148.9861326">
  <ele>742.26</ele>
  <time>2026-09-01T20:00:02Z</time>
  <course>170.05</course>
  <speed>14.73499575839776</speed>
  <fix>3d</fix>
</trkpt>
<trkpt lat="-35.2844752" lon="148.9861283">
  <ele>741.69</ele>
  <time>2026-09-01T20:00:02Z</time>
  <course>170.9</course>
  <speed>14.92</speed>
  <fix>3d</fix>
</trkpt>
<trkpt lat="-35.2845137" lon="148.9861347">
  <ele>742.53</ele>
  <time>2026-09-01T20:00:02Z</time>
  <course>170.66</course>
  <speed>14.61253229252206</speed>
  <fix>3d</fix>
</trkpt>
<trkpt lat="-35.2844752" lon="148.9861283">
  <ele>741.69</ele>
  <time>2026-09-01T20:00:02Z</time>
  <course>170.9</course>
  <speed>14.92</speed>
  <fix>3d</fix>
</trkpt>
<trkpt lat="-35.2845265" lon="148.9861367">
  <ele>742.81</ele>
  <time>2026-09-01T20:00:02Z</time>
  <course>171.27</course>
  <speed>14.483152281185198</speed>
  <fix>3d</fix>
</trkpt>
<trkpt lat="-35.2845016" lon="148.9861331">
  <ele>742.24</ele>
  <time>2026-09-01T20:00:02Z</time>
  <course>172.18</course>
  <speed>14.66</speed>
  <fix>3d</fix>
</trkpt>
<trkpt lat="-35.2845393" lon="148.9861384">
  <ele>743.09</ele>
  <time>2026-09-01T20:00:02Z</time>
  <course>171.88</course>
  <speed>14.35648982167995</speed>
  <fix>3d</fix>
</trkpt>
<trkpt lat="-35.2845016" lon="148.9861331">
  <ele>742.24</ele>
  <time>2026-09-01T20:00:02Z</time>
  <course>172.18</course>
  <speed>14.66</speed>
  <fix>3d</fix>
</trkpt>
<trkpt lat="-35.2845521" lon="148.98614">
  <ele>743.37</ele>
  <time>2026-09-01T20:00:02Z</time>
  <course>172.5</course>
  <speed>14.221392336898662</speed>
  <fix>3d</fix>
</trkpt>
<trkpt lat="-35.2845275" lon="148.9861371">
  <ele>742.79</ele>
  <time>2026-09-01T20:00:02Z</time>
  <course>173.45</course>
  <speed>14.41</speed>
  <fix>3d</fix>
</trkpt>
<trkpt lat="-35.2845648" lon="148.9861414">
  <ele>743.64</ele>
  <time>2026-09-01T20:00:02Z</time>
  <course>173.12</course>
  <speed>14.087838727072366</speed>
  <fix>3d</fix>
</trkpt>
<trkpt lat="-35.2845275" lon="148.9861371">
  <ele>742.79</ele>
  <time>2026-09-01T20:00:02Z</time>
  <course>173.45</course>
  <speed>14.41</speed>
  <fix>3d</fix>
</trkpt>
<trkpt lat="-35.2845773" lon="148.9861426">
  <ele>743.91</ele>
  <time>2026-09-01T20:00:02Z</time>
  <course>173.73</course>
  <speed>13.956593423898255</speed>
  <fix>3d</fix>
</trkpt>
<trkpt lat="-35.284553" lon="148.9861404">
  <ele>743.34</ele>
  <time>2026-09-01T20:00:02Z</time>
  <course>174.67</course>
  <speed>14.15</speed>
  <fix>3d</fix>
</trkpt>
<trkpt lat="-35.2845898" lon="148.9861437">
  <ele>744.16</ele>
  <time>2026-09-01T20:00:02Z</time>
  <course>174.35</course>
  <speed>13.817416545794659</speed>
  <fix>3d</fix>
</trkpt>
<trkpt lat="-35.284553" lon="148.9861404">
  <ele>743.34</ele>
  <time>2026-09-01T20:00:02Z</time>
  <course>174.67</course>
  <speed>14.15</speed>
  <fix>3d</fix>
</trkpt>
<trkpt lat="-35.2846022" lon="148.9861446">
  <ele>744.4</ele>
  <time>2026-09-01T20:00:02Z</time>
  <course>174.97</course>
  <speed>13.679491949630295</speed>
  <fix>3d</fix>
</trkpt>
<trkpt lat="-35.2845781" lon="148.986143">
  <ele>743.88</ele>
  <time>2026-09-01T20:00:02Z</time>
  <course>175.85</course>
  <speed>13.88</speed>
  <fix>3d</fix>
</trkpt>
<trkpt lat="-35.2846144" lon="148.9861453">
  <ele>744.63</ele>
  <time>2026-09-01T20:00:02Z</time>
  <course>175.59</course>
  <speed>13.533307060729834</speed>
  <fix>3d</fix>
</trkpt>
<trkpt lat="-35.2845781" lon="148.986143">
  <ele>743.88</ele>
  <time>2026-09-01T20:00:02Z</time>
  <course>175.85</course>
  <speed>13.88</speed>
  <fix>3d</fix>
</trkpt>
<trkpt lat="-35.2846264" lon="148.986146">
  <ele>744.84</ele>
  <time>2026-09-01T20:00:02Z</time>
  <course>176.21</course>
  <speed>13.378258481581227</speed>
  <fix>3d</fix>
</trkpt>
<trkpt lat="-35.2846028" lon="148.9861449">
  <ele>744.37</ele>
  <time>2026-09-01T20:00:02Z</time>
  <course>176.97</course>
  <speed>13.6</speed>
  <fix>3d</fix>
</trkpt>
<trkpt lat="-35.2846383" lon="148.9861464">
  <ele>745.04</ele>
  <time>2026-09-01T20:00:02Z</time>
  <course>176.82</course>
  <speed>13.21463582547775</speed>
  <fix>3d</fix>
</trkpt>
<trkpt lat="-35.2846028" lon="148.9861449">
  <ele>744.37</ele>
  <time>2026-09-01T20:00:02Z</time>
  <course>176.97</course>
  <speed>13.6</speed>
  <fix>3d</fix>
</trkpt>
<trkpt lat="-35.2846501" lon="148.9861468">
  <ele>745.21</ele>
  <time>2026-09-01T20:00:02Z</time>
  <course>177.45</course>
  <speed>13.052026662553214</speed>
  <fix>3d</fix>
</trkpt>
<trkpt lat="-35.2846269" lon="148.9861462">
  <ele>744.81</ele>
  <time>2026-09-01T20:00:02Z</time>
  <course>178.03</course>
  <speed>13.3</speed>
  <fix>3d</fix>
</trkpt>
<trkpt lat="-35.2846617" lon="148.986147">
  <ele>745.36</ele>
  <time>2026-09-01T20:00:02Z</time>
  <course>178.07</course>
  <speed>12.900558127460997</speed>
  <fix>3d</fix>
</trkpt>
<trkpt lat="-35.2846269" lon="148.9861462">
  <ele>744.81</ele>
  <time>2026-09-01T20:00:02Z</time>
  <course>178.03</course>
  <speed>13.3</speed>
  <fix>3d</fix>
</trkpt>
<trkpt lat="-35.2846731" lon="148.9861471">
  <ele>745.49</ele>
  <time>2026-09-01T20:00:02Z</time>
  <course>178.7</course>
  <speed>12.740003924646178</speed>
  <fix>3d</fix>
</trkpt>
<trkpt lat="-35.2846505" lon="148.9861469">
  <ele>745.17</ele>
  <time>2026-09-01T20:00:02Z</time>
  <course>179.06</course>
  <speed>12.99</speed>
  <fix>3d</fix>
</trkpt>
<trkpt lat="-35.2846844" lon="148.986147">
  <ele>745.6</ele>
  <time>2026-09-01T20:00:02Z</time>
  <course>179.32</course>
  <speed>12.580321935467312</speed>
  <fix>3d</fix>
</trkpt>
<trkpt lat="-35.2846505" lon="148.9861469">
  <ele>745.17</ele>
  <time>2026-09-01T20:00:02Z</time>
  <course>179.06</course>
  <speed>12.99</speed>
  <fix>3d</fix>
</trkpt>
<trkpt lat="-35.2846955" lon="148.9861468">
  <ele>745.68</ele>
  <time>2026-09-01T20:00:02Z</time>
  <course>179.95</course>
  <speed>12.421775235448433</speed>
  <fix>3d</fix>
</trkpt>
<trkpt lat="-35.2846736" lon="148.9861471">
  <ele>745.45</ele>
  <time>2026-09-01T20:00:02Z</time>
  <course>180.08</course>
  <speed>12.68</speed>
  <fix>3d</fix>
</trkpt>
<trkpt lat="-35.2847065" lon="148.9861466">
  <ele>745.74</ele>
  <time>2026-09-01T20:00:02Z</time>
  <course>180.6</course>
  <speed>12.274172069838357</speed>
  <fix>3d</fix>
</trkpt>
<trkpt lat="-35.2846736" lon="148.9861471">
  <ele>745.45</ele>
  <time>2026-09-01T20:00:02Z</time>
  <course>180.08</course>
  <speed>12.68</speed>
  <fix>3d</fix>
</trkpt>
<trkpt lat="-35.2847174" lon="148.9861461">
  <ele>745.79</ele>
  <time>2026-09-01T20:00:02Z</time>
  <course>181.23</course>
  <speed>12.127625488940527</speed>
  <fix>3d</fix>
</trkpt>
<trkpt lat="-35.2846961" lon="148.9861468">
  <ele>745.64</ele>
  <time>2026-09-01T20:00:02Z</time>
  <course>181.12</course>
  <speed>12.38</speed>
  <fix>3d</fix>
</trkpt>
<trkpt lat="-35.2847282" lon="148.9861457">
  <ele>745.82</ele>
  <time>2026-09-01T20:00:02Z</time>
  <course>181.87</course>
  <speed>11.992164108283376</speed>
  <fix>3d</fix>
</trkpt>
<trkpt lat="-35.2846961" lon="148.9861468">
  <ele>745.64</ele>
  <time>2026-09-01T20:00:02Z</time>
  <course>181.12</course>
  <speed>12.38</speed>
  <fix>3d</fix>
</trkpt>
<trkpt lat="-35.2847388" lon="148.986145">
  <ele>745.84</ele>
  <time>2026-09-01T20:00:02Z</time>
  <course>182.52</course>
  <speed>11.8572846807353</speed>
  <fix>3d</fix>
</trkpt>
<trkpt lat="-35.2847181" lon="148.986146">
  <ele>745.76</ele>
  <time>2026-09-01T20:00:02Z</time>
  <course>182.2</course>
  <speed>12.09</speed>
  <fix>3d</fix>
</trkpt>
<trkpt lat="-35.2847493" lon="148.9861442">
  <ele>745.85</ele>
  <time>2026-09-01T20:00:02Z</time>
  <course>183.16</course>
  <speed>11.72401381780148</speed>
  <fix>3d</fix>
</trkpt>
<trkpt lat="-35.2847181" lon="148.986146">
  <ele>745.76</ele>
  <time>2026-09-01T20:00:02Z</time>
  <course>182.2</course>
  <speed>12.09</speed>
  <fix>3d</fix>
</trkpt>
<trkpt lat="-35.2847597" lon="148.9861433">
  <ele>745.85</ele>
  <time>2026-09-01T20:00:03Z</time>
  <course>183.79</course>
  <speed>11.591945479512919</speed>
  <fix>3d</fix>
</trkpt>
<trkpt lat="-35.2847395" lon="148.9861448">
  <ele>745.82</ele>
  <time>2026-09-01T20:00:03Z</time>
  <course>183.33</course>
  <speed>11.82</speed>
  <fix>3d</fix>
</trkpt>
<trkpt lat="-35.2847699" lon="148.9861423">
  <ele>745.85</ele>
  <time>2026-09-01T20:00:03Z</time>
  <course>184.42</course>
  <speed>11.471085388924623</speed>
  <fix>3d</fix>
</trkpt>
<trkpt lat="-35.2847395" lon="148.9861448">
  <ele>745.82</ele>
  <time>2026-09-01T20:00:03Z</time>
  <course>183.33</course>
  <speed>11.82</speed>
  <fix>3d</fix>
</trkpt>
<trkpt lat="-35.2847801" lon="148.9861412">
  <ele>745.84</ele>
  <time>2026-09-01T20:00:03Z</time>
  <course>185.05</course>
  <speed>11.341538696314535</speed>
  <fix>3d</fix>
</trkpt>
<trkpt lat="-35.2847605" lon="148.9861431">
  <ele>745.84</ele>
  <time>2026-09-01T20:00:03Z</time>
  <course>184.49</course>
  <speed>11.56</speed>
  <fix>3d</fix>
</trkpt>
<trkpt lat="-35.2847901" lon="148.9861399">
  <ele>745.83</ele>
  <time>2026-09-01T20:00:03Z</time>
  <course>185.68</course>
  <speed>11.212265605130838</speed>
  <fix>3d</fix>
</trkpt>
<trkpt lat="-35.2847605" lon="148.9861431">
  <ele>745.84</ele>
  <time>2026-09-01T20:00:03Z</time>
  <course>184.49</course>
  <speed>11.56</speed>
  <fix>3d</fix>
</trkpt>
<trkpt lat="-35.2848001" lon="148.9861385">
  <ele>745.83</ele>
  <time>2026-09-01T20:00:03Z</time>
  <course>186.31</course>
  <speed>11.074222320325703</speed>
  <fix>3d</fix>
</trkpt>
<trkpt lat="-35.2847809" lon="148.9861409">
  <ele>745.83</ele>
  <time>2026-09-01T20:00:03Z</time>
  <course>185.69</course>
  <speed>11.31</speed>
  <fix>3d</fix>
</trkpt>
<trkpt lat="-35.2848099" lon="148.986137">
  <ele>745.83</ele>
  <time>2026-09-01T20:00:03Z</time>
  <course>186.93</course>
  <speed>10.937408285329758</speed>
  <fix>3d</fix>
</trkpt>
<trkpt lat="-35.2847809" lon="148.9861409">
  <ele>745.83</ele>
  <time>2026-09-01T20:00:03Z</time>
  <course>185.69</course>
  <speed>11.31</speed>
  <fix>3d</fix>
</trkpt>
<trkpt lat="-35.2848196" lon="148.9861354">
  <ele>745.84</ele>
  <time>2026-09-01T20:00:03Z</time>
  <course>187.53</course>
  <speed>10.79059775916052</speed>
  <fix>3d</fix>
</trkpt>
<trkpt lat="-35.2848009" lon="148.9861382">
  <ele>745.82</ele>
  <time>2026-09-01T20:00:03Z</time>
  <course>186.92</course>
  <speed>11.05</speed>
  <fix>3d</fix>
</trkpt>
<trkpt lat="-35.2848291" lon="148.9861337">
  <ele>745.85</ele>
  <time>2026-09-01T20:00:03Z</time>
  <course>188.13</course>
  <speed>10.635036436232836</speed>
  <fix>3d</fix>
</trkpt>
<trkpt lat="-35.2848009" lon="148.9861382">
  <ele>745.82</ele>
  <time>2026-09-01T20:00:03Z</time>
  <course>186.92</course>
  <speed>11.05</speed>
  <fix>3d</fix>
</trkpt>
<trkpt lat="-35.2848386" lon="148.9861319">
  <ele>745.86</ele>
  <time>2026-09-01T20:00:03Z</time>
  <course>188.7</course>
  <speed>10.469250211930175</speed>
  <fix>3d</fix>
</trkpt>
<trkpt lat="-35.2848204" lon="148.986135">
  <ele>745.83</ele>
  <time>2026-09-01T20:00:03Z</time>
  <course>188.12</course>
  <speed>10.76</speed>
  <fix>3d</fix>
</trkpt>
<trkpt lat="-35.2848478" lon="148.98613">
  <ele>745.88</ele>
  <time>2026-09-01T20:00:03Z</time>
  <course>189.25</course>
  <speed>10.302897650661196</speed>
  <fix>3d</fix>
</trkpt>
<trkpt lat="-35.2848204" lon="148.986135">
  <ele>745.83</ele>
  <time>2026-09-01T20:00:03Z</time>
  <course>188.12</course>
  <speed>10.76</speed>
  <fix>3d</fix>
</trkpt>
<trkpt lat="-35.2848569" lon="148.9861281">
  <ele>745.91</ele>
  <time>2026-09-01T20:00:03Z</time>
  <course>189.78</course>
  <speed>10.135743682631285</speed>
  <fix>3d</fix>
</trkpt>
<trkpt lat="-35.2848392" lon="148.9861315">
  <ele>745.86</ele>
  <time>2026-09-01T20:00:03Z</time>
  <course>189.28</course>
  <speed>10.44</speed>
  <fix>3d</fix>
</trkpt>
<trkpt lat="-35.2848657" lon="148.9861261">
  <ele>745.94</ele>
  <time>2026-09-01T20:00:03Z</time>
  <course>190.28</course>
  <speed>9.95956826373513</speed>
  <fix>3d</fix>
</trkpt>
<trkpt lat="-35.2848392" lon="148.9861315">
  <ele>745.86</ele>
  <time>2026-09-01T20:00:03Z</time>
  <course>189.28</course>
  <speed>10.44</speed>
  <fix>3d</fix>
</trkpt>
<trkpt lat="-35.2848744" lon="148.986124">
  <ele>745.98</ele>
  <time>2026-09-01T20:00:03Z</time>
  <course>190.78</course>
  <speed>9.772538053136453</speed>
  <fix>3d</fix>
</trkpt>
<trkpt lat="-35.2848574" lon="148.9861276">
  <ele>745.91</ele>
  <time>2026-09-01T20:00:03Z</time>
  <course>190.38</course>
  <speed>10.1</speed>
  <fix>3d</fix>
</trkpt>
<trkpt lat="-35.2848829" lon="148.9861219">
  <ele>746.02</ele>
  <time>2026-09-01T20:00:03Z</time>
  <course>191.25</course>
  <speed>9.584284010816875</speed>
  <fix>3d</fix>
</trkpt>
<trkpt lat="-35.2848574" lon="148.9861276">
  <ele>745.91</ele>
  <time>2026-09-01T20:00:03Z</time>
  <course>190.38</course>
  <speed>10.1</speed>
  <fix>3d</fix>
</trkpt>
<trkpt lat="-35.2848913" lon="148.9861197">
  <ele>746.06</ele>
  <time>2026-09-01T20:00:03Z</time>
  <course>191.72</course>
  <speed>9.384822853948815</speed>
  <fix>3d</fix>
</trkpt>
<trkpt lat="-35.2848749" lon="148.9861235">
  <ele>745.98</ele>
  <time>2026-09-01T20:00:03Z</time>
  <course>191.4</course>
  <speed>9.74</speed>
  <fix>3d</fix>
</trkpt>
<trkpt lat="-35.2848994" lon="148.9861175">
  <ele>746.11</ele>
  <time>2026-09-01T20:00:03Z</time>
  <course>192.17</course>
  <speed>9.185929457599814</speed>
  <fix>3d</fix>
</trkpt>
<trkpt lat="-35.2848749" lon="148.9861235">
  <ele>745.98</ele>
  <time>2026-09-01T20:00:03Z</time>
  <course>191.4</course>
  <speed>9.74</speed>
  <fix>3d</fix>
</trkpt>
<trkpt lat="-35.2849074" lon="148.9861153">
  <ele>746.15</ele>
  <time>2026-09-01T20:00:03Z</time>
  <course>192.6</course>
  <speed>8.987641514880309</speed>
  <fix>3d</fix>
</trkpt>
<trkpt lat="-35.2848917" lon="148.9861192">
  <ele>746.06</ele>
  <time>2026-09-01T20:00:03Z</time>
  <course>192.37</course>
  <speed>9.36</speed>
  <fix>3d</fix>
</trkpt>
<trkpt lat="-35.2849151" lon="148.986113">
  <ele>746.19</ele>
  <time>2026-09-01T20:00:03Z</time>
  <course>193.02</course>
  <speed>8.787684564206888</speed>
  <fix>3d</fix>
</trkpt>
<trkpt lat="-35.2848917" lon="148.9861192">
  <ele>746.06</ele>
  <time>2026-09-01T20:00:03Z</time>
  <course>192.37</course>
  <speed>9.36</speed>
  <fix>3d</fix>
</trkpt>
<trkpt lat="-35.2849226" lon="148.9861107">
  <ele>746.23</ele>
  <time>2026-09-01T20:00:03Z</time>
  <course>193.44</course>
  <speed>8.576158813828018</speed>
  <fix>3d</fix>
</trkpt>
<trkpt lat="-35.2849077" lon="148.9861147">
  <ele>746.16</ele>
  <time>2026-09-01T20:00:03Z</time>
  <course>193.28</course>
  <speed>8.97</speed>
  <fix>3d</fix>
</trkpt>
<trkpt lat="-35.28493" lon="148.9861084">
  <ele>746.28</ele>
  <time>2026-09-01T20:00:03Z</time>
  <course>193.85</course>
  <speed>8.374777608987596</speed>
  <fix>3d</fix>
</trkpt>
<trkpt lat="-35.2849077" lon="148.9861147">
  <ele>746.16</ele>
  <time>2026-09-01T20:00:03Z</time>
  <course>193.28</course>
  <speed>8.97</speed>
  <fix>3d</fix>
</trkpt>
<trkpt lat="-35.2849372" lon="148.9861061">
  <ele>746.32</ele>
  <time>2026-09-01T20:00:03Z</time>
  <course>194.25</course>
  <speed>8.173842425689402</speed>
  <fix>3d</fix>
</trkpt>
<trkpt lat="-35.2849231" lon="148.9861101">
  <ele>746.25</ele>
  <time>2026-09-01T20:00:03Z</time>
  <course>194.15</course>
  <speed>8.57</speed>
  <fix>3d</fix>
</trkpt>
<trkpt lat="-35.2849441" lon="148.9861038">
  <ele>746.35</ele>
  <time>2026-09-01T20:00:03Z</time>
  <course>194.64</course>
  <speed>7.96113685349021</speed>
  <fix>3d</fix>
</trkpt>
<trkpt lat="-35.2849231" lon="148.9861101">
  <ele>746.25</ele>
  <time>2026-09-01T20:00:03Z</time>
  <course>194.15</course>
  <speed>8.57</speed>
  <fix>3d</fix>
</trkpt>
<trkpt lat="-35.2849509" lon="148.9861015">
  <ele>746.39</ele>
  <time>2026-09-01T20:00:03Z</time>
  <course>195.02</course>
  <speed>7.758479232426932</speed>
  <fix>3d</fix>
</trkpt>
<trkpt lat="-35.2849377" lon="148.9861055">
  <ele>746.33</ele>
  <time>2026-09-01T20:00:03Z</time>
  <course>194.98</course>
  <speed>8.16</speed>
  <fix>3d</fix>
</trkpt>
<trkpt lat="-35.2849576" lon="148.9860992">
  <ele>746.42</ele>
  <time>2026-09-01T20:00:03Z</time>
  <course>195.39</course>
  <speed>7.5535024988411825</speed>
  <fix>3d</fix>
</trkpt>
<trkpt lat="-35.2849377" lon="148.9861055">
  <ele>746.33</ele>
  <time>2026-09-01T20:00:03Z</time>
  <course>194.98</course>
  <speed>8.16</speed>
  <fix>3d</fix>
</trkpt>
<trkpt lat="-35.284964" lon="148.9860969">
  <ele>746.44</ele>
  <time>2026-09-01T20:00:03Z</time>
  <course>195.75</course>
  <speed>7.34882303501724</speed>
  <fix>3d</fix>
</trkpt>
<trkpt lat="-35.2849515" lon="148.9861008">
  <ele>746.41</ele>
  <time>2026-09-01T20:00:03Z</time>
  <course>195.77</course>
  <speed>7.75</speed>
  <fix>3d</fix>
</trkpt>
<trkpt lat="-35.2849702" lon="148.9860946">
  <ele>746.46</ele>
  <time>2026-09-01T20:00:03Z</time>
  <course>196.09</course>
  <speed>7.141631466268755</speed>
  <fix>3d</fix>
</trkpt>
<trkpt lat="-35.2849515" lon="148.9861008">
  <ele>746.41</ele>
  <time>2026-09-01T20:00:03Z</time>
  <course>195.77</course>
  <speed>7.75</speed>
  <fix>3d</fix>
</trkpt>
<trkpt lat="-35.2849763" lon="148.9860923">
  <ele>746.47</ele>
  <time>2026-09-01T20:00:03Z</time>
  <course>196.42</course>
  <speed>6.944242219277782</speed>
  <fix>3d</fix>
</trkpt>
<trkpt lat="-35.2849645" lon="148.9860962">
  <ele>746.47</ele>
  <time>2026-09-01T20:00:03Z</time>
  <course>196.53</course>
  <speed>7.34</speed>
  <fix>3d</fix>
</trkpt>
<trkpt lat="-35.2849822" lon="148.9860901">
  <ele>746.46</ele>
  <time>2026-09-01T20:00:03Z</time>
  <course>196.74</course>
  <speed>6.734574968028792</speed>
  <fix>3d</fix>
</trkpt>
<trkpt lat="-35.2849645" lon="148.9860962">
  <ele>746.47</ele>
  <time>2026-09-01T20:00:03Z</time>
  <course>196.53</course>
  <speed>7.34</speed>
  <fix>3d</fix>
</trkpt>
<trkpt lat="-35.2849879" lon="148.9860879">
  <ele>746.39</ele>
  <time>2026-09-01T20:00:03Z</time>
  <course>197.05</course>
  <speed>6.465477553901182</speed>
  <fix>3d</fix>
</trkpt>
<trkpt lat="-35.2849767" lon="148.9860916">
  <ele>746.5</ele>
  <time>2026-09-01T20:00:03Z</time>
  <course>197.18</course>
  <speed>6.93</speed>
  <fix>3d</fix>
</trkpt>
<trkpt lat="-35.2849932" lon="148.9860858">
  <ele>746.26</ele>
  <time>2026-09-01T20:00:03Z</time>
  <course>197.2</course>
  <speed>6.034699661126475</speed>
  <fix>3d</fix>
</trkpt>
<trkpt lat="-35.2849767" lon="148.9860916">
  <ele>746.5</ele>
  <time>2026-09-01T20:00:03Z</time>
  <course>197.18</course>
  <speed>6.93</speed>
  <fix>3d</fix>
</trkpt>
<trkpt lat="-35.2849982" lon="148.9860838">
  <ele>746.09</ele>
  <time>2026-09-01T20:00:03Z</time>
  <course>197.14</course>
  <speed>5.49968180897768</speed>
  <fix>3d</fix>
</trkpt>
<trkpt lat="-35.2849882" lon="148.9860872">
  <ele>746.41</ele>
  <time>2026-09-01T20:00:03Z</time>
  <course>197.63</course>
  <speed>6.38</speed>
  <fix>3d</fix>
</trkpt>
<trkpt lat="-35.2850026" lon="148.986082">
  <ele>745.9</ele>
  <time>2026-09-01T20:00:03Z</time>
  <course>196.92</course>
  <speed>4.917367181734551</speed>
  <fix>3d</fix>
</trkpt>
<trkpt lat="-35.2849882" lon="148.9860872">
  <ele>746.41</ele>
  <time>2026-09-01T20:00:03Z</time>
  <course>197.63</course>
  <speed>6.38</speed>
  <fix>3d</fix>
</trkpt>
<trkpt lat="-35.2850065" lon="148.9860804">
  <ele>745.71</ele>
  <time>2026-09-01T20:00:03Z</time>
  <course>196.6</course>
  <speed>4.313513648987331</speed>
  <fix>3d</fix>
</trkpt>
<trkpt lat="-35.2849984" lon="148.9860832">
  <ele>746.14</ele>
  <time>2026-09-01T20:00:03Z</time>
  <course>198.2</course>
  <speed>5.48</speed>
  <fix>3d</fix>
</trkpt>
<trkpt lat="-35.2850099" lon="148.9860788">
  <ele>745.51</ele>
  <time>2026-09-01T20:00:03Z</time>
  <course>196.25</course>
  <speed>3.7044972668366216</speed>
  <fix>3d</fix>
</trkpt>
<trkpt lat="-35.2849984" lon="148.9860832">
  <ele>746.14</ele>
  <time>2026-09-01T20:00:03Z</time>
  <course>198.2</course>
  <speed>5.48</speed>
  <fix>3d</fix>
</trkpt>
<trkpt lat="-35.2850127" lon="148.9860775">
  <ele>745.32</ele>
  <time>2026-09-01T20:00:03Z</time>
  <course>195.92</course>
  <speed>3.125331982366033</speed>
  <fix>3d</fix>
</trkpt>
<trkpt lat="-35.2850067" lon="148.9860797">
  <ele>745.77</ele>
  <time>2026-09-01T20:00:03Z</time>
  <course>199.51</course>
  <speed>4.31</speed>
  <fix>3d</fix>
</trkpt>
<trkpt lat="-35.2850151" lon="148.9860762">
  <ele>745.15</ele>
  <time>2026-09-01T20:00:03Z</time>
  <course>195.6</course>
  <speed>2.574975728040946</speed>
  <fix>3d</fix>
</trkpt>
<trkpt lat="-35.2850067" lon="148.9860797">
  <ele>745.77</ele>
  <time>2026-09-01T20:00:03Z</time>
  <course>199.51</course>
  <speed>4.31</speed>
  <fix>3d</fix>
</trkpt>
<trkpt lat="-35.285017" lon="148.9860751">
  <ele>744.99</ele>
  <time>2026-09-01T20:00:03Z</time>
  <course>195.32</course>
  <speed>2.0750903594783527</speed>
  <fix>3d</fix>
</trkpt>
<trkpt lat="-35.285013" lon="148.9860769">
  <ele>745.39</ele>
  <time>2026-09-01T20:00:03Z</time>
  <course>202.08</course>
  <speed>3.14</speed>
  <fix>3d</fix>
</trkpt>
<trkpt lat="-35.2850185" lon="148.9860741">
  <ele>744.87</ele>
  <time>2026-09-01T20:00:03Z</time>
  <course>195.07</course>
  <speed>1.6498484778912275</speed>
  <fix>3d</fix>
</trkpt>
<trkpt lat="-35.285013" lon="148.9860769">
  <ele>745.39</ele>
  <time>2026-09-01T20:00:03Z</time>
  <course>202.08</course>
  <speed>3.14</speed>
  <fix>3d</fix>
</trkpt>
<trkpt lat="-35.2850196" lon="148.9860731">
  <ele>744.77</ele>
  <time>2026-09-01T20:00:03Z</time>
  <course>194.83</course>
  <speed>1.2800390619039717</speed>
  <fix>3d</fix>
</trkpt>
<trkpt lat="-35.2850173" lon="148.9860745">
  <ele>745.07</ele>
  <time>2026-09-01T20:00:03Z</time>
  <course>207.1</course>
  <speed>2.11</speed>
  <fix>3d</fix>
</trkpt>
<trkpt lat="-35.2850204" lon="148.9860723">
  <ele>744.71</ele>
  <time>2026-09-01T20:00:03Z</time>
  <course>194.61</course>
  <speed>0.9829038610159185</speed>
  <fix>3d</fix>
</trkpt>
<trkpt lat="-35.2850173" lon="148.9860745">
  <ele>745.07</ele>
  <time>2026-09-01T20:00:03Z</time>
  <course>207.1</course>
  <speed>2.11</speed>
  <fix>3d</fix>
</trkpt>
<trkpt lat="-35.2850209" lon="148.9860715">
  <ele>744.67</ele>
  <time>2026-09-01T20:00:03Z</time>
  <course>194.4</course>
  <speed>0.7769813382572325</speed>
  <fix>3d</fix>
</trkpt>
<trkpt lat="-35.2850198" lon="148.9860726">
  <ele>744.86</ele>
  <time>2026-09-01T20:00:03Z</time>
  <course>217.53</course>
  <speed>1.3</speed>
  <fix>3d</fix>
</trkpt>
<trkpt lat="-35.2850212" lon="148.9860707">
  <ele>744.66</ele>
  <time>2026-09-01T20:00:03Z</time>
  <course>194.22</course>
  <speed>0.648459713474939</speed>
  <fix>3d</fix>
</trkpt>
<trkpt lat="-35.2850198" lon="148.9860726">
  <ele>744.86</ele>
  <time>2026-09-01T20:00:03Z</time>
  <course>217.53</course>
  <speed>1.3</speed>
  <fix>3d</fix>
</trkpt>
<trkpt lat="-35.2850213" lon="148.98607">
  <ele>744.68</ele>
  <time>2026-09-01T20:00:03Z</time>
  <course>194.08</course>
  <speed>0.6103277807866851</speed>
  <fix>3d</fix>
</trkpt>
<trkpt lat="-35.2850211" lon="148.9860709">
  <ele>744.76</ele>
  <time>2026-09-01T20:00:03Z</time>
  <course>239.19</course>
  <speed>0.79</speed>
  <fix>3d</fix>
</trkpt>
<trkpt lat="-35.2850213" lon="148.9860693">
  <ele>744.72</ele>
  <time>2026-09-01T20:00:03Z</time>
  <course>194.02</course>
  <speed>0.5953990258641678</speed>
  <fix>3d</fix>
</trkpt>
<trkpt lat="-35.2850211" lon="148.9860709">
  <ele>744.76</ele>
  <time>2026-09-01T20:00:03Z</time>
  <course>239.19</course>
  <speed>0.79</speed>
  <fix>3d</fix>
</trkpt>
<trkpt lat="-35.2850212" lon="148.9860686">
  <ele>744.78</ele>
  <time>2026-09-01T20:00:03Z</time>
  <course>194.05</course>
  <speed>0.5990826320300063</speed>
  <fix>3d</fix>
</trkpt>
<trkpt lat="-35.2850215" lon="148.9860694">
  <ele>744.77</ele>
  <time>2026-09-01T20:00:03Z</time>
  <course>269.24</course>
  <speed>0.62</speed>
  <fix>3d</fix>
</trkpt>
<trkpt lat="-35.285021" lon="148.9860679">
  <ele>744.85</ele>
  <time>2026-09-01T20:00:03Z</time>
  <course>194.18</course>
  <speed>0.6103277807866851</speed>
  <fix>3d</fix>
</trkpt>
<trkpt lat="-35.2850215" lon="148.9860694">
  <ele>744.77</ele>
  <time>2026-09-01T20:00:03Z</time>
  <course>269.24</course>
  <speed>0.62</speed>
  <fix>3d</fix>
</trkpt>
<trkpt lat="-35.2850209" lon="148.9860673">
  <ele>744.92</ele>
  <time>2026-09-01T20:00:03Z</time>
  <course>194.37</course>
  <speed>0.5946427498927402</speed>
  <fix>3d</fix>
</trkpt>
<trkpt lat="-35.2850212" lon="148.9860681">
  <ele>744.86</ele>
  <time>2026-09-01T20:00:03Z</time>
  <course>287.72</course>
  <speed>0.63</speed>
  <fix>3d</fix>
</trkpt>
<trkpt lat="-35.2850207" lon="148.9860666">
  <ele>744.99</ele>
  <time>2026-09-01T20:00:03Z</time>
  <course>194.58</course>
  <speed>0.5887274411814011</speed>
  <fix>3d</fix>
</trkpt>
<trkpt lat="-35.2850212" lon="148.9860681">
  <ele>744.86</ele>
  <time>2026-09-01T20:00:03Z</time>
  <course>287.72</course>
  <speed>0.63</speed>
  <fix>3d</fix>
</trkpt>
<trkpt lat="-35.2850205" lon="148.986066">
  <ele>745.06</ele>
  <time>2026-09-01T20:00:03Z</time>
  <course>194.77</course>
  <speed>0.570087712549569</speed>
  <fix>3d</fix>
</trkpt>
<trkpt lat="-35.2850209" lon="148.9860668">
  <ele>745.0</ele>
  <time>2026-09-01T20:00:03Z</time>
  <course>294.19</course>
  <speed>0.64</speed>
  <fix>3d</fix>
</trkpt>
<trkpt lat="-35.2850203" lon="148.9860654">
  <ele>745.13</ele>
  <time>2026-09-01T20:00:03Z</time>
  <course>194.91</course>
  <speed>0.5571355310873648</speed>
  <fix>3d</fix>
</trkpt>
<trkpt lat="-35.2850209" lon="148.9860668">
  <ele>745.0</ele>
  <time>2026-09-01T20:00:03Z</time>
  <course>294.19</course>
  <speed>0.64</speed>
  <fix>3d</fix>
</trkpt>
<trkpt lat="-35.2850202" lon="148.9860648">
  <ele>745.18</ele>
  <time>2026-09-01T20:00:03Z</time>
  <course>194.96</course>
  <speed>0.5385164807134504</speed>
  <fix>3d</fix>
</trkpt>
<trkpt lat="-35.2850204" lon="148.9860656">
  <ele>745.15</ele>
  <time>2026-09-01T20:00:03Z</time>
  <course>296.15</course>
  <speed>0.61</speed>
  <fix>3d</fix>
</trkpt>
<trkpt lat="-35.28502" lon="148.9860642">
  <ele>745.23</ele>
  <time>2026-09-01T20:00:03Z</time>
  <course>194.93</course>
  <speed>0.5126402247190519</speed>
  <fix>3d</fix>
</trkpt>
<trkpt lat="-35.2850204" lon="148.9860656">
  <ele>745.15</ele>
  <time>2026-09-01T20:00:03Z</time>
  <course>296.15</course>
  <speed>0.61</speed>
  <fix>3d</fix>
</trkpt>
<trkpt lat="-35.2850198" lon="148.9860637">
  <ele>745.27</ele>
  <time>2026-09-01T20:00:03Z</time>
  <course>194.83</course>
  <speed>0.48104053883222775</speed>
  <fix>3d</fix>
</trkpt>
<trkpt lat="-35.28502" lon="148.9860644">
  <ele>745.27</ele>
  <time>2026-09-01T20:00:03Z</time>
  <course>296.65</course>
  <speed>0.58</speed>
  <fix>3d</fix>
</trkpt>
<trkpt lat="-35.2850196" lon="148.9860631">
  <ele>745.29</ele>
  <time>2026-09-01T20:00:03Z</time>
  <course>194.67</course>
  <speed>0.455411901469428</speed>
  <fix>3d</fix>
</trkpt>
<trkpt lat="-35.28502" lon="148.9860644">
  <ele>745.27</ele>
  <time>2026-09-01T20:00:03Z</time>
  <course>296.65</course>
  <speed>0.58</speed>
  <fix>3d</fix>
</trkpt>
<trkpt lat="-35.2850194" lon="148.9860627">
  <ele>745.3</ele>
  <time>2026-09-01T20:00:03Z</time>
  <course>194.47</course>
  <speed>0.4301162633521314</speed>
  <fix>3d</fix>
</trkpt>
<trkpt lat="-35.2850195" lon="148.9860633">
  <ele>745.36</ele>
  <time>2026-09-01T20:00:03Z</time>
  <course>296.11</course>
  <speed>0.53</speed>
  <fix>3d</fix>
</trkpt>
<trkpt lat="-35.2850193" lon="148.9860622">
  <ele>745.3</ele>
  <time>2026-09-01T20:00:03Z</time>
  <course>194.26</course>
  <speed>0.40024992192379005</speed>
  <fix>3d</fix>
</trkpt>
<trkpt lat="-35.2850195" lon="148.9860633">
  <ele>745.36</ele>
  <time>2026-09-01T20:00:03Z</time>
  <course>296.11</course>
  <speed>0.53</speed>
  <fix>3d</fix>
</trkpt>
<trkpt lat="-35.2850192" lon="148.9860617">
  <ele>745.3</ele>
  <time>2026-09-01T20:00:03Z</time>
  <course>194.08</course>
  <speed>0.3649657518178932</speed>
  <fix>3d</fix>
</trkpt>
<trkpt lat="-35.2850191" lon="148.9860623">
  <ele>745.4</ele>
  <time>2026-09-01T20:00:03Z</time>
  <course>293.32</course>
  <speed>0.47</speed>
  <fix>3d</fix>
</trkpt>
<trkpt lat="-35.2850191" lon="148.9860613">
  <ele>745.29</ele>
  <time>2026-09-01T20:00:03Z</time>
  <course>193.94</course>
  <speed>0.34058772731852804</speed>
  <fix>3d</fix>
</trkpt>
<trkpt lat="-35.2850191" lon="148.9860623">
  <ele>745.4</ele>
  <time>2026-09-01T20:00:03Z</time>
  <course>293.32</course>
  <speed>0.47</speed>
  <fix>3d</fix>
</trkpt>
<trkpt lat="-35.2850191" lon="148.9860609">
  <ele>745.28</ele>
  <time>2026-09-01T20:00:03Z</time>
  <course>193.85</course>
  <speed>0.31</speed>
  <fix>3d</fix>
</trkpt>
<trkpt lat="-35.2850189" lon="148.9860614">
  <ele>745.4</ele>
  <time>2026-09-01T20:00:03Z</time>
  <course>287.44</course>
  <speed>0.4</speed>
  <fix>3d</fix>
</trkpt>
<trkpt lat="-35.2850191" lon="148.9860606">
  <ele>745.27</ele>
  <time>2026-09-01T20:00:03Z</time>
  <course>193.81</course>
  <speed>0.29274562336608895</speed>
  <fix>3d</fix>
</trkpt>
<trkpt lat="-35.2850189" lon="148.9860614">
  <ele>745.4</ele>
  <time>2026-09-01T20:00:03Z</time>
  <course>287.44</course>
  <speed>0.4</speed>
  <fix>3d</fix>
</trkpt>
<trkpt lat="-35.285019" lon="148.9860602">
  <ele>745.25</ele>
  <time>2026-09-01T20:00:03Z</time>
  <course>193.81</course>
  <speed>0.2751363298439521</speed>
  <fix>3d</fix>
</trkpt>
<trkpt lat="-35.2850187" lon="148.9860606">
  <ele>745.38</ele>
  <time>2026-09-01T20:00:03Z</time>
  <course>277.92</course>
  <speed>0.34</speed>
  <fix>3d</fix>
</trkpt>
<trkpt lat="-35.2850191" lon="148.9860599">
  <ele>745.23</ele>
  <time>2026-09-01T20:00:03Z</time>
  <course>193.85</course>
  <speed>0.2778488797889961</speed>
  <fix>3d</fix>
</trkpt>
<trkpt lat="-35.2850187" lon="148.9860606">
  <ele>745.38</ele>
  <time>2026-09-01T20:00:03Z</time>
  <course>277.92</course>
  <speed>0.34</speed>
  <fix>3d</fix>
</trkpt>
<trkpt lat="-35.2850192" lon="148.9860596">
  <ele>745.21</ele>
  <time>2026-09-01T20:00:03Z</time>
  <course>193.9</course>
  <speed>0.2973213749463701</speed>
  <fix>3d</fix>
</trkpt>
<trkpt lat="-35.2850186" lon="148.9860599">
  <ele>745.35</ele>
  <time>2026-09-01T20:00:03Z</time>
  <course>261.73</course>
  <speed>0.29</speed>
  <fix>3d</fix>
</trkpt>
<trkpt lat="-35.2850194" lon="148.9860594">
  <ele>745.19</ele>
  <time>2026-09-01T20:00:03Z</time>
  <course>193.95</course>
  <speed>0.3280243893371345</speed>
  <fix>3d</fix>
</trkpt>
<trkpt lat="-35.2850186" lon="148.9860599">
  <ele>745.35</ele>
  <time>2026-09-01T20:00:03Z</time>
  <course>261.73</course>
  <speed>0.29</speed>
  <fix>3d</fix>
</trkpt>
<trkpt lat="-35.2850196" lon="148.9860591">
  <ele>745.18</ele>
  <time>2026-09-01T20:00:03Z</time>
  <course>193.99</course>
  <speed>0.3671511950137164</speed>
  <fix>3d</fix>
</trkpt>
<trkpt lat="-35.2850187" lon="148.9860593">
  <ele>745.31</ele>
  <time>2026-09-01T20:00:03Z</time>
  <course>238.85</course>
  <speed>0.29</speed>
  <fix>3d</fix>
</trkpt>
<trkpt lat="-35.2850198" lon="148.9860589">
  <ele>745.17</ele>
  <time>2026-09-01T20:00:03Z</time>
  <course>194.01</course>
  <speed>0.4215447781671598</speed>
  <fix>3d</fix>
</trkpt>
<trkpt lat="-35.2850187" lon="148.9860593">
  <ele>745.31</ele>
  <time>2026-09-01T20:00:03Z</time>
  <course>238.85</course>
  <speed>0.29</speed>
  <fix>3d</fix>
</trkpt>
<trkpt lat="-35.2850202" lon="148.9860587">
  <ele>745.16</ele>
  <time>2026-09-01T20:00:03Z</time>
  <course>194.02</course>
  <speed>0.4743416490252569</speed>
  <fix>3d</fix>
</trkpt>
<trkpt lat="-35.2850191" lon="148.9860588">
  <ele>745.29</ele>
  <time>2026-09-01T20:00:03Z</time>
  <course>218.0</course>
  <speed>0.35</speed>
  <fix>3d</fix>
</trkpt>
<trkpt lat="-35.2850206" lon="148.9860585">
  <ele>745.15</ele>
  <time>2026-09-01T20:00:03Z</time>
  <course>194.02</course>
  <speed>0.5385164807134504</speed>
  <fix>3d</fix>
</trkpt>
<trkpt lat="-35.2850191" lon="148.9860588">
  <ele>745.29</ele>
  <time>2026-09-01T20:00:03Z</time>
  <course>218.0</course>
  <speed>0.35</speed>
  <fix>3d</fix>
</trkpt>
<trkpt lat="-35.285021" lon="148.9860583">
  <ele>745.15</ele>
  <time>2026-09-01T20:00:03Z</time>
  <course>194.01</course>
  <speed>0.6041522986797286</speed>
  <fix>3d</fix>
</trkpt>
<trkpt lat="-35.2850198" lon="148.9860584">
  <ele>745.27</ele>
  <time>2026-09-01T20:00:03Z</time>
  <course>204.62</course>
  <speed>0.45</speed>
  <fix>3d</fix>
</trkpt>
<trkpt lat="-35.2850215" lon="148.9860582">
  <ele>745.14</ele>
  <time>2026-09-01T20:00:03Z</time>
  <course>193.99</course>
  <speed>0.6708203932499369</speed>
  <fix>3d</fix>
</trkpt>
<trkpt lat="-35.2850198" lon="148.9860584">
  <ele>745.27</ele>
  <time>2026-09-01T20:00:03Z</time>
  <course>204.62</course>
  <speed>0.45</speed>
  <fix>3d</fix>
</trkpt>
<trkpt lat="-35.2850221" lon="148.986058">
  <ele>745.15</ele>
  <time>2026-09-01T20:00:03Z</time>
  <course>193.98</course>
  <speed>0.7397972695272672</speed>
  <fix>3d</fix>
</trkpt>
<trkpt lat="-35.2850206" lon="148.986058">
  <ele>745.27</ele>
  <time>2026-09-01T20:00:03Z</time>
  <course>197.1</course>
  <speed>0.57</speed>
  <fix>3d</fix>
</trkpt>
<trkpt lat="-35.2850227" lon="148.9860578">
  <ele>745.15</ele>
  <time>2026-09-01T20:00:03Z</time>
  <course>193.96</course>
  <speed>0.7976214641043707</speed>
  <fix>3d</fix>
</trkpt>
<trkpt lat="-35.2850206" lon="148.986058">
  <ele>745.27</ele>
  <time>2026-09-01T20:00:03Z</time>
  <course>197.1</course>
  <speed>0.57</speed>
  <fix>3d</fix>
</trkpt>
<trkpt lat="-35.2850234" lon="148.9860577">
  <ele>745.16</ele>
  <time>2026-09-01T20:00:03Z</time>
  <course>193.95</course>
  <speed>0.8670063436907484</speed>
  <fix>3d</fix>
</trkpt>
<trkpt lat="-35.2850217" lon="148.9860575">
  <ele>745.27</ele>
  <time>2026-09-01T20:00:03Z</time>
  <course>192.95</course>
  <speed>0.71</speed>
  <fix>3d</fix>
</trkpt>
<trkpt lat="-35.2850242" lon="148.9860575">
  <ele>745.17</ele>
  <time>2026-09-01T20:00:03Z</time>
  <course>193.94</course>
  <speed>0.9265527507918802</speed>
  <fix>3d</fix>
</trkpt>
<trkpt lat="-35.2850217" lon="148.9860575">
  <ele>745.27</ele>
  <time>2026-09-01T20:00:03Z</time>
  <course>192.95</course>
  <speed>0.71</speed>
  <fix>3d</fix>
</trkpt>
<trkpt lat="-35.285025" lon="148.9860573">
  <ele>745.18</ele>
  <time>2026-09-01T20:00:03Z</time>
  <course>193.94</course>
  <speed>0.9873196037757986</speed>
  <fix>3d</fix>
</trkpt>
<trkpt lat="-35.2850231" lon="148.9860572">
  <ele>745.29</ele>
  <time>2026-09-01T20:00:03Z</time>
  <course>190.67</course>
  <speed>0.83</speed>
  <fix>3d</fix>
</trkpt>
<trkpt lat="-35.2850259" lon="148.9860572">
  <ele>745.19</ele>
  <time>2026-09-01T20:00:03Z</time>
  <course>193.94</course>
  <speed>1.0369667304209909</speed>
  <fix>3d</fix>
</trkpt>
<trkpt lat="-35.2850231" lon="148.9860572">
  <ele>745.29</ele>
  <time>2026-09-01T20:00:03Z</time>
  <course>190.67</course>
  <speed>0.83</speed>
  <fix>3d</fix>
</trkpt>
<trkpt lat="-35.2850268" lon="148.986057">
  <ele>745.2</ele>
  <time>2026-09-01T20:00:03Z</time>
  <course>193.94</course>
  <speed>1.0866462165764899</speed>
  <fix>3d</fix>
</trkpt>
<trkpt lat="-35.2850247" lon="148.9860569">
  <ele>745.31</ele>
  <time>2026-09-01T20:00:03Z</time>
  <course>189.48</course>
  <speed>0.96</speed>
  <fix>3d</fix>
</trkpt>
<trkpt lat="-35.2850277" lon="148.9860568">
  <ele>745.21</ele>
  <time>2026-09-01T20:00:03Z</time>
  <course>193.94</course>
  <speed>1.137453295744489</speed>
  <fix>3d</fix>
</trkpt>
<trkpt lat="-35.2850247" lon="148.9860569">
  <ele>745.31</ele>
  <time>2026-09-01T20:00:03Z</time>
  <course>189.48</course>
  <speed>0.96</speed>
  <fix>3d</fix>
</trkpt>
<trkpt lat="-35.2850287" lon="148.9860566">
  <ele>745.22</ele>
  <time>2026-09-01T20:00:03Z</time>
  <course>193.95</course>
  <speed>1.188276062201036</speed>
  <fix>3d</fix>
</trkpt>
<trkpt lat="-35.2850265" lon="148.9860565">
  <ele>745.33</ele>
  <time>2026-09-01T20:00:03Z</time>
  <course>188.94</course>
  <speed>1.07</speed>
  <fix>3d</fix>
</trkpt>
<trkpt lat="-35.2850298" lon="148.9860564">
  <ele>745.22</ele>
  <time>2026-09-01T20:00:03Z</time>
  <course>193.95</course>
  <speed>1.229186723000212</speed>
  <fix>3d</fix>
</trkpt>
<trkpt lat="-35.2850265" lon="148.9860565">
  <ele>745.33</ele>
  <time>2026-09-01T20:00:03Z</time>
  <course>188.94</course>
  <speed>1.07</speed>
  <fix>3d</fix>
</trkpt>
<trkpt lat="-35.2850308" lon="148.9860562">
  <ele>745.23</ele>
  <time>2026-09-01T20:00:03Z</time>
  <course>193.95</course>
  <speed>1.2589678312014172</speed>
  <fix>3d</fix>
</trkpt>
<trkpt lat="-35.2850285" lon="148.9860562">
  <ele>745.35</ele>
  <time>2026-09-01T20:00:03Z</time>
  <course>188.82</course>
  <speed>1.16</speed>
  <fix>3d</fix>
</trkpt>
<trkpt lat="-35.2850319" lon="148.986056">
  <ele>745.23</ele>
  <time>2026-09-01T20:00:03Z</time>
  <course>193.95</course>
  <speed>1.2998846102635417</speed>
  <fix>3d</fix>
</trkpt>
<trkpt lat="-35.2850285" lon="148.9860562">
  <ele>745.35</ele>
  <time>2026-09-01T20:00:03Z</time>
  <course>188.82</course>
  <speed>1.16</speed>
  <fix>3d</fix>
</trkpt>
<trkpt lat="-35.2850331" lon="148.9860557">
  <ele>745.24</ele>
  <time>2026-09-01T20:00:03Z</time>
  <course>193.95</course>
  <speed>1.3209844813622906</speed>
  <fix>3d</fix>
</trkpt>
<trkpt lat="-35.2850307" lon="148.9860557">
  <ele>745.36</ele>
  <time>2026-09-01T20:00:03Z</time>
  <course>188.99</course>
  <speed>1.25</speed>
  <fix>3d</fix>
</trkpt>
<trkpt lat="-35.2850342" lon="148.9860555">
  <ele>745.24</ele>
  <time>2026-09-01T20:00:03Z</time>
  <course>193.94</course>
  <speed>1.3520355024924455</speed>
  <fix>3d</fix>
</trkpt>
<trkpt lat="-35.2850307" lon="148.9860557">
  <ele>745.36</ele>
  <time>2026-09-01T20:00:03Z</time>
  <course>188.99</course>
  <speed>1.25</speed>
  <fix>3d</fix>
</trkpt>
<trkpt lat="-35.2850354" lon="148.9860552">
  <ele>745.24</ele>
  <time>2026-09-01T20:00:03Z</time>
  <course>193.94</course>
  <speed>1.364734406395618</speed>
  <fix>3d</fix>
</trkpt>
<trkpt lat="-35.285033" lon="148.9860553">
  <ele>745.36</ele>
  <time>2026-09-01T20:00:03Z</time>
  <course>189.35</course>
  <speed>1.31</speed>
  <fix>3d</fix>
</trkpt>
<trkpt lat="-35.2850366" lon="148.986055">
  <ele>745.24</ele>
  <time>2026-09-01T20:00:03Z</time>
  <course>193.95</course>
  <speed>1.386001443000692</speed>
  <fix>3d</fix>
</trkpt>
<trkpt lat="-35.285033" lon="148.9860553">
  <ele>745.36</ele>
  <time>2026-09-01T20:00:03Z</time>
  <course>189.35</course>
  <speed>1.31</speed>
  <fix>3d</fix>
</trkpt>
<trkpt lat="-35.2850378" lon="148.9860547">
  <ele>745.24</ele>
  <time>2026-09-01T20:00:03Z</time>
  <course>193.95</course>
  <speed>1.3875518008348373</speed>
  <fix>3d</fix>
</trkpt>
<trkpt lat="-35.2850354" lon="148.9860548">
  <ele>745.37</ele>
  <time>2026-09-01T20:00:03Z</time>
  <course>189.86</course>
  <speed>1.36</speed>
  <fix>3d</fix>
</trkpt>
<trkpt lat="-35.2850391" lon="148.9860544">
  <ele>745.23</ele>
  <time>2026-09-01T20:00:03Z</time>
  <course>193.96</course>
  <speed>1.3990353819685906</speed>
  <fix>3d</fix>
</trkpt>
<trkpt lat="-35.2850354" lon="148.9860548">
  <ele>745.37</ele>
  <time>2026-09-01T20:00:03Z</time>
  <course>189.86</course>
  <speed>1.36</speed>
  <fix>3d</fix>
</trkpt>
<trkpt lat="-35.2850403" lon="148.9860541">
  <ele>745.23</ele>
  <time>2026-09-01T20:00:03Z</time>
  <course>193.98</course>
  <speed>1.3908630414242804</speed>
  <fix>3d</fix>
</trkpt>
<trkpt lat="-35.2850378" lon="148.9860542">
  <ele>745.36</ele>
  <time>2026-09-01T20:00:03Z</time>
  <course>190.51</course>
  <speed>1.38</speed>
  <fix>3d</fix>
</trkpt>
<trkpt lat="-35.2850415" lon="148.9860538">
  <ele>745.23</ele>
  <time>2026-09-01T20:00:03Z</time>
  <course>193.99</course>
  <speed>1.3926234236145822</speed>
  <fix>3d</fix>
</trkpt>
<trkpt lat="-35.2850378" lon="148.9860542">
  <ele>745.36</ele>
  <time>2026-09-01T20:00:03Z</time>
  <course>190.51</course>
  <speed>1.38</speed>
  <fix>3d</fix>
</trkpt>
<trkpt lat="-35.2850427" lon="148.9860535">
  <ele>745.23</ele>
  <time>2026-09-01T20:00:03Z</time>
  <course>194.0</course>
  <speed>1.3748090776540574</speed>
  <fix>3d</fix>
</trkpt>
<trkpt lat="-35.2850402" lon="148.9860537">
  <ele>745.36</ele>
  <time>2026-09-01T20:00:03Z</time>
  <course>191.27</course>
  <speed>1.39</speed>
  <fix>3d</fix>
</trkpt>
<trkpt lat="-35.2850439" lon="148.9860531">
  <ele>745.23</ele>
  <time>2026-09-01T20:00:03Z</time>
  <course>194.02</course>
  <speed>1.3669308687713508</speed>
  <fix>3d</fix>
</trkpt>
<trkpt lat="-35.2850402" lon="148.9860537">
  <ele>745.36</ele>
  <time>2026-09-01T20:00:03Z</time>
  <course>191.27</course>
  <speed>1.39</speed>
  <fix>3d</fix>
</trkpt>
<trkpt lat="-35.2850451" lon="148.9860528">
  <ele>745.23</ele>
  <time>2026-09-01T20:00:03Z</time>
  <course>194.03</course>
  <speed>1.3375350462698166</speed>
  <fix>3d</fix>
</trkpt>
<trkpt lat="-35.2850427" lon="148.9860531">
  <ele>745.35</ele>
  <time>2026-09-01T20:00:03Z</time>
  <course>192.16</course>
  <speed>1.37</speed>
  <fix>3d</fix>
</trkpt>
<trkpt lat="-35.2850462" lon="148.9860525">
  <ele>745.22</ele>
  <time>2026-09-01T20:00:03Z</time>
  <course>194.04</course>
  <speed>1.3200378782444084</speed>
  <fix>3d</fix>
</trkpt>
<trkpt lat="-35.2850427" lon="148.9860531">
  <ele>745.35</ele>
  <time>2026-09-01T20:00:03Z</time>
  <course>192.16</course>
  <speed>1.37</speed>
  <fix>3d</fix>
</trkpt>
<trkpt lat="-35.2850473" lon="148.9860521">
  <ele>745.23</ele>
  <time>2026-09-01T20:00:03Z</time>
  <course>194.06</course>
  <speed>1.283199127181748</speed>
  <fix>3d</fix>
</trkpt>
<trkpt lat="-35.2850451" lon="148.9860524">
  <ele>745.35</ele>
  <time>2026-09-01T20:00:03Z</time>
  <course>193.15</course>
  <speed>1.34</speed>
  <fix>3d</fix>
</trkpt>
<trkpt lat="-35.2850485" lon="148.9860517">
  <ele>745.22</ele>
  <time>2026-09-01T20:00:03Z</time>
  <course>194.07</course>
  <speed>1.2539936203984452</speed>
  <fix>3d</fix>
</trkpt>
<trkpt lat="-35.2850451" lon="148.9860524">
  <ele>745.35</ele>
  <time>2026-09-01T20:00:03Z</time>
  <course>193.15</course>
  <speed>1.34</speed>
  <fix>3d</fix>
</trkpt>
<trkpt lat="-35.2850495" lon="148.9860514">
  <ele>745.22</ele>
  <time>2026-09-01T20:00:03Z</time>
  <course>194.08</course>
  <speed>1.217538500417954</speed>
  <fix>3d</fix>
</trkpt>
<trkpt lat="-35.2850473" lon="148.9860517">
  <ele>745.34</ele>
  <time>2026-09-01T20:00:03Z</time>
  <course>194.28</course>
  <speed>1.28</speed>
  <fix>3d</fix>
</trkpt>
<trkpt lat="-35.2850505" lon="148.986051">
  <ele>745.22</ele>
  <time>2026-09-01T20:00:03Z</time>
  <course>194.09</course>
  <speed>1.169144986731757</speed>
  <fix>3d</fix>
</trkpt>
<trkpt lat="-35.2850473" lon="148.9860517">
  <ele>745.34</ele>
  <time>2026-09-01T20:00:03Z</time>
  <course>194.28</course>
  <speed>1.28</speed>
  <fix>3d</fix>
</trkpt>
<trkpt lat="-35.2850515" lon="148.9860506">
  <ele>745.22</ele>
  <time>2026-09-01T20:00:03Z</time>
  <course>194.09</course>
  <speed>1.133225485064645</speed>
  <fix>3d</fix>
</trkpt>
<trkpt lat="-35.2850495" lon="148.986051">
  <ele>745.34</ele>
  <time>2026-09-01T20:00:03Z</time>
  <course>195.57</course>
  <speed>1.21</speed>
  <fix>3d</fix>
</trkpt>
<trkpt lat="-35.2850525" lon="148.9860503">
  <ele>745.22</ele>
  <time>2026-09-01T20:00:03Z</time>
  <course>194.09</course>
  <speed>1.0852188719332152</speed>
  <fix>3d</fix>
</trkpt>
<trkpt lat="-35.2850495" lon="148.986051">
  <ele>745.34</ele>
  <time>2026-09-01T20:00:03Z</time>
  <course>195.57</course>
  <speed>1.21</speed>
  <fix>3d</fix>
</trkpt>
<trkpt lat="-35.2850534" lon="148.9860499">
  <ele>745.22</ele>
  <time>2026-09-01T20:00:03Z</time>
  <course>194.1</course>
  <speed>1.027861858422619</speed>
  <fix>3d</fix>
</trkpt>
<trkpt lat="-35.2850516" lon="148.9860502">
  <ele>745.34</ele>
  <time>2026-09-01T20:00:03Z</time>
  <course>197.07</course>
  <speed>1.13</speed>
  <fix>3d</fix>
</trkpt>
<trkpt lat="-35.2850542" lon="148.9860495">
  <ele>745.22</ele>
  <time>2026-09-01T20:00:03Z</time>
  <course>194.11</course>
  <speed>0.9803060746521975</speed>
  <fix>3d</fix>
</trkpt>
<trkpt lat="-35.2850516" lon="148.9860502">
  <ele>745.34</ele>
  <time>2026-09-01T20:00:03Z</time>
  <course>197.07</course>
  <speed>1.13</speed>
  <fix>3d</fix>
</trkpt>
<trkpt lat="-35.285055" lon="148.9860491">
  <ele>745.22</ele>
  <time>2026-09-01T20:00:03Z</time>
  <course>194.12</course>
  <speed>0.9235799911215054</speed>
  <fix>3d</fix>
</trkpt>
<trkpt lat="-35.2850534" lon="148.9860495">
  <ele>745.34</ele>
  <time>2026-09-01T20:00:03Z</time>
  <course>198.89</course>
  <speed>1.03</speed>
  <fix>3d</fix>
</trkpt>
<trkpt lat="-35.2850558" lon="148.9860487">
  <ele>745.22</ele>
  <time>2026-09-01T20:00:03Z</time>
  <course>194.14</course>
  <speed>0.8672946442818611</speed>
  <fix>3d</fix>
</trkpt>
<trkpt lat="-35.2850534" lon="148.9860495">
  <ele>745.34</ele>
  <time>2026-09-01T20:00:03Z</time>
  <course>198.89</course>
  <speed>1.03</speed>
  <fix>3d</fix>
</trkpt>
<trkpt lat="-35.2850565" lon="148.9860484">
  <ele>745.22</ele>
  <time>2026-09-01T20:00:03Z</time>
  <course>194.15</course>
  <speed>0.8115417426109393</speed>
  <fix>3d</fix>
</trkpt>
<trkpt lat="-35.285055" lon="148.9860488">
  <ele>745.33</ele>
  <time>2026-09-01T20:00:03Z</time>
  <course>201.12</course>
  <speed>0.92</speed>
  <fix>3d</fix>
</trkpt>
<trkpt lat="-35.2850571" lon="148.986048">
  <ele>745.21</ele>
  <time>2026-09-01T20:00:03Z</time>
  <course>194.16</course>
  <speed>0.7432361670424819</speed>
  <fix>3d</fix>
</trkpt>
<trkpt lat="-35.285055" lon="148.9860488">
  <ele>745.33</ele>
  <time>2026-09-01T20:00:03Z</time>
  <course>201.12</course>
  <speed>0.92</speed>
  <fix>3d</fix>
</trkpt>
<trkpt lat="-35.2850577" lon="148.9860476">
  <ele>745.21</ele>
  <time>2026-09-01T20:00:03Z</time>
  <course>194.17</course>
  <speed>0.6887670143089025</speed>
  <fix>3d</fix>
</trkpt>
<trkpt lat="-35.2850565" lon="148.9860481">
  <ele>745.33</ele>
  <time>2026-09-01T20:00:03Z</time>
  <course>203.94</course>
  <speed>0.81</speed>
  <fix>3d</fix>
</trkpt>
<trkpt lat="-35.2850582" lon="148.9860473">
  <ele>745.21</ele>
  <time>2026-09-01T20:00:03Z</time>
  <course>194.18</course>
  <speed>0.6217716622683925</speed>
  <fix>3d</fix>
</trkpt>
<trkpt lat="-35.2850565" lon="148.9860481">
  <ele>745.33</ele>
  <time>2026-09-01T20:00:03Z</time>
  <course>203.94</course>
  <speed>0.81</speed>
  <fix>3d</fix>
</trkpt>
<trkpt lat="-35.2850587" lon="148.9860469">
  <ele>745.21</ele>
  <time>2026-09-01T20:00:03Z</time>
  <course>194.18</course>
  <speed>0.5693856338194704</speed>
  <fix>3d</fix>
</trkpt>
<trkpt lat="-35.2850577" lon="148.9860473">
  <ele>745.33</ele>
  <time>2026-09-01T20:00:03Z</time>
  <course>207.57</course>
  <speed>0.69</speed>
  <fix>3d</fix>
</trkpt>
<trkpt lat="-35.2850591" lon="148.9860466">
  <ele>745.21</ele>
  <time>2026-09-01T20:00:03Z</time>
  <course>194.18</course>
  <speed>0.5047771785649585</speed>
  <fix>3d</fix>
</trkpt>
<trkpt lat="-35.2850577" lon="148.9860473">
  <ele>745.33</ele>
  <time>2026-09-01T20:00:03Z</time>
  <course>207.57</course>
  <speed>0.69</speed>
  <fix>3d</fix>
</trkpt>
<trkpt lat="-35.2850594" lon="148.9860463">
  <ele>745.21</ele>
  <time>2026-09-01T20:00:03Z</time>
  <course>194.18</course>
  <speed>0.45</speed>
  <fix>3d</fix>
</trkpt>
<trkpt lat="-35.2850587" lon="148.9860466">
  <ele>745.33</ele>
  <time>2026-09-01T20:00:03Z</time>
  <course>212.49</course>
  <speed>0.57</speed>
  <fix>3d</fix>
</trkpt>
<trkpt lat="-35.2850597" lon="148.986046">
  <ele>745.21</ele>
  <time>2026-09-01T20:00:03Z</time>
  <course>194.18</course>
  <speed>0.38948684188300897</speed>
  <fix>3d</fix>
</trkpt>
<trkpt lat="-35.2850587" lon="148.9860466">
  <ele>745.33</ele>
  <time>2026-09-01T20:00:03Z</time>
  <course>212.49</course>
  <speed>0.57</speed>
  <fix>3d</fix>
</trkpt>
<trkpt lat="-35.2850599" lon="148.9860457">
  <ele>745.21</ele>
  <time>2026-09-01T20:00:03Z</time>
  <course>194.18</course>
  <speed>0.3397057550292606</speed>
  <fix>3d</fix>
</trkpt>
<trkpt lat="-35.2850595" lon="148.986046">
  <ele>745.33</ele>
  <time>2026-09-01T20:00:03Z</time>
  <course>219.68</course>
  <speed>0.45</speed>
  <fix>3d</fix>
</trkpt>
<trkpt lat="-35.2850601" lon="148.9860454">
  <ele>745.22</ele>
  <time>2026-09-01T20:00:03Z</time>
  <course>194.18</course>
  <speed>0.2884441020371191</speed>
  <fix>3d</fix>
</trkpt>
<trkpt lat="-35.2850595" lon="148.986046">
  <ele>745.33</ele>
  <time>2026-09-01T20:00:03Z</time>
  <course>219.68</course>
  <speed>0.45</speed>
  <fix>3d</fix>
</trkpt>
<trkpt lat="-35.2850602" lon="148.9860451">
  <ele>745.22</ele>
  <time>2026-09-01T20:00:03Z</time>
  <course>194.17</course>
  <speed>0.25079872407968906</speed>
  <fix>3d</fix>
</trkpt>
<trkpt lat="-35.28506" lon="148.9860454">
  <ele>745.33</ele>
  <time>2026-09-01T20:00:03Z</time>
  <course>230.97</course>
  <speed>0.35</speed>
  <fix>3d</fix>
</trkpt>
<trkpt lat="-35.2850603" lon="148.9860448">
  <ele>745.22</ele>
  <time>2026-09-01T20:00:03Z</time>
  <course>194.17</course>
  <speed>0.223606797749979</speed>
  <fix>3d</fix>
</trkpt>
<trkpt lat="-35.28506" lon="148.9860454">
  <ele>745.33</ele>
  <time>2026-09-01T20:00:03Z</time>
  <course>230.97</course>
  <speed>0.35</speed>
  <fix>3d</fix>
</trkpt>
<trkpt lat="-35.2850603" lon="148.9860445">
  <ele>745.22</ele>
  <time>2026-09-01T20:00:03Z</time>
  <course>194.17</course>
  <speed>0.21</speed>
  <fix>3d</fix>
</trkpt>
<trkpt lat="-35.2850603" lon="148.9860448">
  <ele>745.33</ele>
  <time>2026-09-01T20:00:03Z</time>
  <course>249.25</course>
  <speed>0.26</speed>
  <fix>3d</fix>
</trkpt>
<trkpt lat="-35.2850603" lon="148.9860443">
  <ele>745.22</ele>
  <time>2026-09-01T20:00:03Z</time>
  <course>194.15</course>
  <speed>0.208806130178211</speed>
  <fix>3d</fix>
</trkpt>
<trkpt lat="-35.2850603" lon="148.9860448">
  <ele>745.33</ele>
  <time>2026-09-01T20:00:03Z</time>
  <course>249.25</course>
  <speed>0.26</speed>
  <fix>3d</fix>
</trkpt>
<trkpt lat="-35.2850602" lon="148.9860441">
  <ele>745.22</ele>
  <time>2026-09-01T20:00:03Z</time>
  <course>194.14</course>
  <speed>0.21470910553583888</speed>
  <fix>3d</fix>
</trkpt>
<trkpt lat="-35.2850603" lon="148.9860443">
  <ele>745.32</ele>
  <time>2026-09-01T20:00:03Z</time>
  <course>275.66</course>
  <speed>0.22</speed>
  <fix>3d</fix>
</trkpt>
<trkpt lat="-35.2850601" lon="148.9860438">
  <ele>745.22</ele>
  <time>2026-09-01T20:00:03Z</time>
  <course>194.14</course>
  <speed>0.23430749027719963</speed>
  <fix>3d</fix>
</trkpt>
<trkpt lat="-35.2850603" lon="148.9860443">
  <ele>745.32</ele>
  <time>2026-09-01T20:00:03Z</time>
  <course>275.66</course>
  <speed>0.22</speed>
  <fix>3d</fix>
</trkpt>
<trkpt lat="-35.2850599" lon="148.9860436">
  <ele>745.22</ele>
  <time>2026-09-01T20:00:03Z</time>
  <course>194.14</course>
  <speed>0.25495097567963926</speed>
  <fix>3d</fix>
</trkpt>
<trkpt lat="-35.2850601" lon="148.9860438">
  <ele>745.32</ele>
  <time>2026-09-01T20:00:03Z</time>
  <course>301.3</course>
  <speed>0.24</speed>
  <fix>3d</fix>
</trkpt>
<trkpt lat="-35.2850598" lon="148.9860434">
  <ele>745.22</ele>
  <time>2026-09-01T20:00:03Z</time>
  <course>194.16</course>
  <speed>0.2720294101747089</speed>
  <fix>3d</fix>
</trkpt>
<trkpt lat="-35.2850601" lon="148.9860438">
  <ele>745.32</ele>
  <time>2026-09-01T20:00:03Z</time>
  <course>301.3</course>
  <speed>0.24</speed>
  <fix>3d</fix>
</trkpt>
<trkpt lat="-35.2850596" lon="148.9860432">
  <ele>745.21</ele>
  <time>2026-09-01T20:00:03Z</time>
  <course>194.19</course>
  <speed>0.295296461204668</speed>
  <fix>3d</fix>
</trkpt>
<trkpt lat="-35.2850599" lon="148.9860433">
  <ele>745.32</ele>
  <time>2026-09-01T20:00:03Z</time>
  <course>318.75</course>
  <speed>0.28</speed>
  <fix>3d</fix>
</trkpt>
<trkpt lat="-35.2850593" lon="148.9860431">
  <ele>745.21</ele>
  <time>2026-09-01T20:00:03Z</time>
  <course>194.22</course>
  <speed>0.3178049716414141</speed>
  <fix>3d</fix>
</trkpt>
<trkpt lat="-35.2850599" lon="148.9860433">
  <ele>745.32</ele>
  <time>2026-09-01T20:00:03Z</time>
  <course>318.75</course>
  <speed>0.28</speed>
  <fix>3d</fix>
</trkpt>
<trkpt lat="-35.285059" lon="148.9860429">
  <ele>745.21</ele>
  <time>2026-09-01T20:00:03Z</time>
  <course>194.26</course>
  <speed>0.33241540277189324</speed>
  <fix>3d</fix>
</trkpt>
<trkpt lat="-35.2850595" lon="148.986043">
  <ele>745.32</ele>
  <time>2026-09-01T20:00:03Z</time>
  <course>329.86</course>
  <speed>0.32</speed>
  <fix>3d</fix>
</trkpt>
<trkpt lat="-35.2850587" lon="148.9860427">
  <ele>745.21</ele>
  <time>2026-09-01T20:00:03Z</time>
  <course>194.29</course>
  <speed>0.3478505426185217</speed>
  <fix>3d</fix>
</trkpt>
<trkpt lat="-35.2850595" lon="148.986043">
  <ele>745.32</ele>
  <time>2026-09-01T20:00:03Z</time>
  <course>329.86</course>
  <speed>0.32</speed>
  <fix>3d</fix>
</trkpt>
<trkpt lat="-35.2850584" lon="148.9860426">
  <ele>745.21</ele>
  <time>2026-09-01T20:00:03Z</time>
  <course>194.32</course>
  <speed>0.3640054944640259</speed>
  <fix>3d</fix>
</trkpt>
<trkpt lat="-35.285059" lon="148.9860426">
  <ele>745.32</ele>
  <time>2026-09-01T20:00:03Z</time>
  <course>337.25</course>
  <speed>0.36</speed>
  <fix>3d</fix>
</trkpt>
<trkpt lat="-35.2850581" lon="148.9860425">
  <ele>745.21</ele>
  <time>2026-09-01T20:00:03Z</time>
  <course>194.35</course>
  <speed>0.37107950630558945</speed>
  <fix>3d</fix>
</trkpt>
<trkpt lat="-35.285059" lon="148.9860426">
  <ele>745.32</ele>
  <time>2026-09-01T20:00:03Z</time>
  <course>337.25</course>
  <speed>0.36</speed>
  <fix>3d</fix>
</trkpt>
<trkpt lat="-35.2850578" lon="148.9860423">
  <ele>745.21</ele>
  <time>2026-09-01T20:00:03Z</time>
  <course>194.38</course>
  <speed>0.378549864614954</speed>
  <fix>3d</fix>
</trkpt>
<trkpt lat="-35.2850583" lon="148.9860423">
  <ele>745.32</ele>
  <time>2026-09-01T20:00:03Z</time>
  <course>342.52</course>
  <speed>0.39</speed>
  <fix>3d</fix>
</trkpt>
<trkpt lat="-35.2850574" lon="148.9860422">
  <ele>745.21</ele>
  <time>2026-09-01T20:00:03Z</time>
  <course>194.41</course>
  <speed>0.38639358172723315</speed>
  <fix>3d</fix>
</trkpt>
<trkpt lat="-35.2850583" lon="148.9860423">
  <ele>745.32</ele>
  <time>2026-09-01T20:00:03Z</time>
  <course>342.52</course>
  <speed>0.39</speed>
  <fix>3d</fix>
</trkpt>
<trkpt lat="-35.285057" lon="148.9860422">
  <ele>745.21</ele>
  <time>2026-09-01T20:00:03Z</time>
  <course>194.43</course>
  <speed>0.3945883931389772</speed>
  <fix>3d</fix>
</trkpt>
<trkpt lat="-35.2850576" lon="148.9860421">
  <ele>745.32</ele>
  <time>2026-09-01T20:00:03Z</time>
  <course>346.53</course>
  <speed>0.41</speed>
  <fix>3d</fix>
</trkpt>
<trkpt lat="-35.2850567" lon="148.9860421">
  <ele>745.21</ele>
  <time>2026-09-01T20:00:03Z</time>
  <course>194.44</course>
  <speed>0.3920459156782532</speed>
  <fix>3d</fix>
</trkpt>
<trkpt lat="-35.2850576" lon="148.9860421">
  <ele>745.32</ele>
  <time>2026-09-01T20:00:03Z</time>
  <course>346.53</course>
  <speed>0.41</speed>
  <fix>3d</fix>
</trkpt>
<trkpt lat="-35.2850563" lon="148.986042">
  <ele>745.21</ele>
  <time>2026-09-01T20:00:03Z</time>
  <course>194.45</course>
  <speed>0.4011234224026316</speed>
  <fix>3d</fix>
</trkpt>
<trkpt lat="-35.2850569" lon="148.986042">
  <ele>745.32</ele>
  <time>2026-09-01T20:00:03Z</time>
  <course>349.93</course>
  <speed>0.42</speed>
  <fix>3d</fix>
</trkpt>
<trkpt lat="-35.2850559" lon="148.986042">
  <ele>745.21</ele>
  <time>2026-09-01T20:00:03Z</time>
  <course>194.45</course>
  <speed>0.4004996878900158</speed>
  <fix>3d</fix>
</trkpt>
<trkpt lat="-35.2850569" lon="148.986042">
  <ele>745.32</ele>
  <time>2026-09-01T20:00:03Z</time>
  <course>349.93</course>
  <speed>0.42</speed>
  <fix>3d</fix>
</trkpt>
<trkpt lat="-35.2850556" lon="148.9860419">
  <ele>745.21</ele>
  <time>2026-09-01T20:00:03Z</time>
  <course>194.43</course>
  <speed>0.3901281840626232</speed>
  <fix>3d</fix>
</trkpt>
<trkpt lat="-35.2850561" lon="148.9860418">
  <ele>745.32</ele>
  <time>2026-09-01T20:00:03Z</time>
  <course>352.94</course>
  <speed>0.43</speed>
  <fix>3d</fix>
</trkpt>
<trkpt lat="-35.2850552" lon="148.9860419">
  <ele>745.21</ele>
  <time>2026-09-01T20:00:03Z</time>
  <course>194.42</course>
  <speed>0.39</speed>
  <fix>3d</fix>
</trkpt>
<trkpt lat="-35.2850561" lon="148.9860418">
  <ele>745.32</ele>
  <time>2026-09-01T20:00:03Z</time>
  <course>352.94</course>
  <speed>0.43</speed>
  <fix>3d</fix>
</trkpt>
<trkpt lat="-35.2850548" lon="148.9860419">
  <ele>745.21</ele>
  <time>2026-09-01T20:00:03Z</time>
  <course>194.4</course>
  <speed>0.38</speed>
  <fix>3d</fix>
</trkpt>
<trkpt lat="-35.2850553" lon="148.9860417">
  <ele>745.32</ele>
  <time>2026-09-01T20:00:03Z</time>
  <course>355.6</course>
  <speed>0.43</speed>
  <fix>3d</fix>
</trkpt>
<trkpt lat="-35.2850545" lon="148.9860419">
  <ele>745.21</ele>
  <time>2026-09-01T20:00:03Z</time>
  <course>194.39</course>
  <speed>0.38013155617496425</speed>
  <fix>3d</fix>
</trkpt>
<trkpt lat="-35.2850553" lon="148.9860417">
  <ele>745.32</ele>
  <time>2026-09-01T20:00:03Z</time>
  <course>355.6</course>
  <speed>0.43</speed>
  <fix>3d</fix>
</trkpt>
<trkpt lat="-35.2850541" lon="148.9860419">
  <ele>745.22</ele>
  <time>2026-09-01T20:00:03Z</time>
  <course>194.38</course>
  <speed>0.3705401462729781</speed>
  <fix>3d</fix>
</trkpt>
<trkpt lat="-35.2850545" lon="148.9860416">
  <ele>745.32</ele>
  <time>2026-09-01T20:00:03Z</time>
  <course>358.02</course>
  <speed>0.42</speed>
  <fix>3d</fix>
</trkpt>
<trkpt lat="-35.2850537" lon="148.9860419">
  <ele>745.22</ele>
  <time>2026-09-01T20:00:03Z</time>
  <course>194.38</course>
  <speed>0.3605551275463989</speed>
  <fix>3d</fix>
</trkpt>
<trkpt lat="-35.2850545" lon="148.9860416">
  <ele>745.32</ele>
  <time>2026-09-01T20:00:03Z</time>
  <course>358.02</course>
  <speed>0.42</speed>
  <fix>3d</fix>
</trkpt>
<trkpt lat="-35.2850534" lon="148.9860419">
  <ele>745.22</ele>
  <time>2026-09-01T20:00:03Z</time>
  <course>194.38</course>
  <speed>0.35128336140500593</speed>
  <fix>3d</fix>
</trkpt>
<trkpt lat="-35.2850538" lon="148.9860416">
  <ele>745.32</ele>
  <time>2026-09-01T20:00:03Z</time>
  <course>0.38</course>
  <speed>0.4</speed>
  <fix>3d</fix>
</trkpt>
<trkpt lat="-35.2850531" lon="148.9860419">
  <ele>745.22</ele>
  <time>2026-09-01T20:00:03Z</time>
  <course>194.38</course>
  <speed>0.3423448553724738</speed>
  <fix>3d</fix>
</trkpt>
<trkpt lat="-35.2850538" lon="148.9860416">
  <ele>745.32</ele>
  <time>2026-09-01T20:00:03Z</time>
  <course>0.38</course>
  <speed>0.4</speed>
  <fix>3d</fix>
</trkpt>
<trkpt lat="-35.2850527" lon="148.9860419">
  <ele>745.23</ele>
  <time>2026-09-01T20:00:03Z</time>
  <course>194.38</course>
  <speed>0.33376638536557274</speed>
  <fix>3d</fix>
</trkpt>
<trkpt lat="-35.2850531" lon="148.9860416">
  <ele>745.32</ele>
  <time>2026-09-01T20:00:03Z</time>
  <course>2.74</course>
  <speed>0.39</speed>
  <fix>3d</fix>
</trkpt>
<trkpt lat="-35.2850524" lon="148.9860419">
  <ele>745.23</ele>
  <time>2026-09-01T20:00:03Z</time>
  <course>194.37</course>
  <speed>0.31400636936215165</speed>
  <fix>3d</fix>
</trkpt>
<trkpt lat="-35.2850531" lon="148.9860416">
  <ele>745.32</ele>
  <time>2026-09-01T20:00:03Z</time>
  <course>2.74</course>
  <speed>0.39</speed>
  <fix>3d</fix>
</trkpt>
<trkpt lat="-35.2850521" lon="148.9860419">
  <ele>745.23</ele>
  <time>2026-09-01T20:00:03Z</time>
  <course>194.36</course>
  <speed>0.3059411708155671</speed>
  <fix>3d</fix>
</trkpt>
<trkpt lat="-35.2850524" lon="148.9860416">
  <ele>745.32</ele>
  <time>2026-09-01T20:00:03Z</time>
  <course>5.16</course>
  <speed>0.36</speed>
  <fix>3d</fix>
</trkpt>
<trkpt lat="-35.2850518" lon="148.986042">
  <ele>745.23</ele>
  <time>2026-09-01T20:00:03Z</time>
  <course>194.35</course>
  <speed>0.29832867780352595</speed>
  <fix>3d</fix>
</trkpt>
<trkpt lat="-35.2850524" lon="148.9860416">
  <ele>745.32</ele>
  <time>2026-09-01T20:00:03Z</time>
  <course>5.16</course>
  <speed>0.36</speed>
  <fix>3d</fix>
</trkpt>
<trkpt lat="-35.2850515" lon="148.986042">
  <ele>745.23</ele>
  <time>2026-09-01T20:00:04Z</time>
  <course>194.33</course>
  <speed>0.27892651361962706</speed>
  <fix>3d</fix>
</trkpt>
<trkpt lat="-35.2850518" lon="148.9860417">
  <ele>745.31</ele>
  <time>2026-09-01T20:00:04Z</time>
  <course>7.67</course>
  <speed>0.34</speed>
  <fix>3d</fix>
</trkpt>
<trkpt lat="-35.2850512" lon="148.9860421">
  <ele>745.22</ele>
  <time>2026-09-01T20:00:04Z</time>
  <course>194.31</course>
  <speed>0.2720294101747089</speed>
  <fix>3d</fix>
</trkpt>
<trkpt lat="-35.2850512" lon="148.9860418">
  <ele>745.31</ele>
  <time>2026-09-01T20:00:04Z</time>
  <course>10.27</course>
  <speed>0.31</speed>
  <fix>3d</fix>
</trkpt>
<trkpt lat="-35.285051" lon="148.9860422">
  <ele>745.22</ele>
  <time>2026-09-01T20:00:04Z</time>
  <course>194.3</course>
  <speed>0.26248809496813374</speed>
  <fix>3d</fix>
</trkpt>
<trkpt lat="-35.2850512" lon="148.9860418">
  <ele>745.31</ele>
  <time>2026-09-01T20:00:04Z</time>
  <course>10.27</course>
  <speed>0.31</speed>
  <fix>3d</fix>
</trkpt>
<trkpt lat="-35.2850507" lon="148.9860422">
  <ele>745.22</ele>
  <time>2026-09-01T20:00:04Z</time>
  <course>194.28</course>
  <speed>0.24351591323771843</speed>
  <fix>3d</fix>
</trkpt>
<trkpt lat="-35.2850507" lon="148.986042">
  <ele>745.3</ele>
  <time>2026-09-01T20:00:04Z</time>
  <course>12.96</course>
  <speed>0.29</speed>
  <fix>3d</fix>
</trkpt>
<trkpt lat="-35.2850505" lon="148.9860423">
  <ele>745.22</ele>
  <time>2026-09-01T20:00:04Z</time>
  <course>194.25</course>
  <speed>0.2340939982143925</speed>
  <fix>3d</fix>
</trkpt>
<trkpt lat="-35.2850507" lon="148.986042">
  <ele>745.3</ele>
  <time>2026-09-01T20:00:04Z</time>
  <course>12.96</course>
  <speed>0.29</speed>
  <fix>3d</fix>
</trkpt>
<trkpt lat="-35.2850503" lon="148.9860424">
  <ele>745.22</ele>
  <time>2026-09-01T20:00:04Z</time>
  <course>194.2</course>
  <speed>0.2193171219946131</speed>
  <fix>3d</fix>
</trkpt>
<trkpt lat="-35.2850502" lon="148.9860421">
  <ele>745.3</ele>
  <time>2026-09-01T20:00:04Z</time>
  <course>15.33</course>
  <speed>0.26</speed>
  <fix>3d</fix>
</trkpt>
<trkpt lat="-35.2850501" lon="148.9860425">
  <ele>745.22</ele>
  <time>2026-09-01T20:00:04Z</time>
  <course>194.12</course>
  <speed>0.2102379604162864</speed>
  <fix>3d</fix>
</trkpt>
<trkpt lat="-35.2850502" lon="148.9860421">
  <ele>745.3</ele>
  <time>2026-09-01T20:00:04Z</time>
  <course>15.33</course>
  <speed>0.26</speed>
  <fix>3d</fix>
</trkpt>
<trkpt lat="-35.2850499" lon="148.9860425">
  <ele>745.22</ele>
  <time>2026-09-01T20:00:04Z</time>
  <course>194.06</course>
  <speed>0.20124611797498107</speed>
  <fix>3d</fix>
</trkpt>
<trkpt lat="-35.2850502" lon="148.9860421">
  <ele>745.3</ele>
  <time>2026-09-01T20:00:04Z</time>
  <course>15.33</course>
  <speed>0.26</speed>
  <fix>3d</fix>
</trkpt>
<trkpt lat="-35.2850497" lon="148.9860426">
  <ele>745.22</ele>
  <time>2026-09-01T20:00:04Z</time>
  <course>194.01</course>
  <speed>0.1835755975068582</speed>
  <fix>3d</fix>
</trkpt>
<trkpt lat="-35.2850497" lon="148.9860423">
  <ele>745.29</ele>
  <time>2026-09-01T20:00:04Z</time>
  <course>17.31</course>
  <speed>0.24</speed>
  <fix>3d</fix>
</trkpt>
<trkpt lat="-35.2850495" lon="148.9860427">
  <ele>745.21</ele>
  <time>2026-09-01T20:00:04Z</time>
  <course>193.99</course>
  <speed>0.17492855684535902</speed>
  <fix>3d</fix>
</trkpt>
<trkpt lat="-35.2850497" lon="148.9860423">
  <ele>745.29</ele>
  <time>2026-09-01T20:00:04Z</time>
  <course>17.31</course>
  <speed>0.24</speed>
  <fix>3d</fix>
</trkpt>
<trkpt lat="-35.2850494" lon="148.9860428">
  <ele>745.21</ele>
  <time>2026-09-01T20:00:04Z</time>
  <course>193.98</course>
  <speed>0.15811388300841897</speed>
  <fix>3d</fix>
</trkpt>
<trkpt lat="-35.2850494" lon="148.9860424">
  <ele>745.29</ele>
  <time>2026-09-01T20:00:04Z</time>
  <course>19.62</course>
  <speed>0.21</speed>
  <fix>3d</fix>
</trkpt>
<trkpt lat="-35.2850492" lon="148.9860428">
  <ele>745.21</ele>
  <time>2026-09-01T20:00:04Z</time>
  <course>194.0</course>
  <speed>0.13601470508735444</speed>
  <fix>3d</fix>
</trkpt>
<trkpt lat="-35.2850494" lon="148.9860424">
  <ele>745.29</ele>
  <time>2026-09-01T20:00:04Z</time>
  <course>19.62</course>
  <speed>0.21</speed>
  <fix>3d</fix>
</trkpt>
<trkpt lat="-35.2850491" lon="148.9860429">
  <ele>745.21</ele>
  <time>2026-09-01T20:00:04Z</time>
  <course>194.03</course>
  <speed>0.12806248474865697</speed>
  <fix>3d</fix>
</trkpt>
<trkpt lat="-35.285049" lon="148.9860426">
  <ele>745.29</ele>
  <time>2026-09-01T20:00:04Z</time>
  <course>22.55</course>
  <speed>0.18</speed>
  <fix>3d</fix>
</trkpt>
<trkpt lat="-35.285049" lon="148.986043">
  <ele>745.2</ele>
  <time>2026-09-01T20:00:04Z</time>
  <course>194.08</course>
  <speed>0.1131370849898476</speed>
  <fix>3d</fix>
</trkpt>
<trkpt lat="-35.285049" lon="148.9860426">
  <ele>745.29</ele>
  <time>2026-09-01T20:00:04Z</time>
  <course>22.55</course>
  <speed>0.18</speed>
  <fix>3d</fix>
</trkpt>
<trkpt lat="-35.2850489" lon="148.9860431">
  <ele>745.2</ele>
  <time>2026-09-01T20:00:04Z</time>
  <course>194.12</course>
  <speed>0.1063014581273465</speed>
  <fix>3d</fix>
</trkpt>
<trkpt lat="-35.2850488" lon="148.9860427">
  <ele>745.28</ele>
  <time>2026-09-01T20:00:04Z</time>
  <course>26.21</course>
  <speed>0.15</speed>
  <fix>3d</fix>
</trkpt>
<trkpt lat="-35.2850488" lon="148.9860431">
  <ele>745.2</ele>
  <time>2026-09-01T20:00:04Z</time>
  <course>194.16</course>
  <speed>0.09433981132056603</speed>
  <fix>3d</fix>
</trkpt>
<trkpt lat="-35.2850488" lon="148.9860427">
  <ele>745.28</ele>
  <time>2026-09-01T20:00:04Z</time>
  <course>26.21</course>
  <speed>0.15</speed>
  <fix>3d</fix>
</trkpt>
<trkpt lat="-35.2850487" lon="148.9860432">
  <ele>745.2</ele>
  <time>2026-09-01T20:00:04Z</time>
  <course>194.19</course>
  <speed>0.08944271909999159</speed>
  <fix>3d</fix>
</trkpt>
<trkpt lat="-35.2850485" lon="148.9860429">
  <ele>745.28</ele>
  <time>2026-09-01T20:00:04Z</time>
  <course>31.17</course>
  <speed>0.12</speed>
  <fix>3d</fix>
</trkpt>
<trkpt lat="-35.2850487" lon="148.9860433">
  <ele>745.2</ele>
  <time>2026-09-01T20:00:04Z</time>
  <course>194.21</course>
  <speed>0.0824621125123532</speed>
  <fix>3d</fix>
</trkpt>
<trkpt lat="-35.2850485" lon="148.9860429">
  <ele>745.28</ele>
  <time>2026-09-01T20:00:04Z</time>
  <course>31.17</course>
  <speed>0.12</speed>
  <fix>3d</fix>
</trkpt>
<trkpt lat="-35.2850486" lon="148.9860433">
  <ele>745.2</ele>
  <time>2026-09-01T20:00:04Z</time>
  <course>194.21</course>
  <speed>0.07071067811865475</speed>
  <fix>3d</fix>
</trkpt>
<trkpt lat="-35.2850483" lon="148.986043">
  <ele>745.28</ele>
  <time>2026-09-01T20:00:04Z</time>
  <course>39.16</course>
  <speed>0.09</speed>
  <fix>3d</fix>
</trkpt>
<trkpt lat="-35.2850486" lon="148.9860434">
  <ele>745.2</ele>
  <time>2026-09-01T20:00:04Z</time>
  <course>194.2</course>
  <speed>0.07</speed>
  <fix>3d</fix>
</trkpt>
<trkpt lat="-35.2850483" lon="148.986043">
  <ele>745.28</ele>
  <time>2026-09-01T20:00:04Z</time>
  <course>39.16</course>
  <speed>0.09</speed>
  <fix>3d</fix>
</trkpt>
<trkpt lat="-35.2850485" lon="148.9860434">
  <ele>745.2</ele>
  <time>2026-09-01T20:00:04Z</time>
  <course>194.18</course>
  <speed>0.07071067811865475</speed>
  <fix>3d</fix>
</trkpt>
<trkpt lat="-35.2850482" lon="148.9860431">
  <ele>745.28</ele>
  <time>2026-09-01T20:00:04Z</time>
  <course>52.59</course>
  <speed>0.07</speed>
  <fix>3d</fix>
</trkpt>
<trkpt lat="-35.2850485" lon="148.9860435">
  <ele>745.2</ele>
  <time>2026-09-01T20:00:04Z</time>
  <course>194.16</course>
  <speed>0.07280109889280519</speed>
  <fix>3d</fix>
</trkpt>
<trkpt lat="-35.2850482" lon="148.9860431">
  <ele>745.28</ele>
  <time>2026-09-01T20:00:04Z</time>
  <course>52.59</course>
  <speed>0.07</speed>
  <fix>3d</fix>
</trkpt>
<trkpt lat="-35.2850485" lon="148.9860436">
  <ele>745.21</ele>
  <time>2026-09-01T20:00:04Z</time>
  <course>194.15</course>
  <speed>0.07211102550927978</speed>
  <fix>3d</fix>
</trkpt>
<trkpt lat="-35.2850482" lon="148.9860433">
  <ele>745.29</ele>
  <time>2026-09-01T20:00:04Z</time>
  <course>74.37</course>
  <speed>0.05</speed>
  <fix>3d</fix>
</trkpt>
<trkpt lat="-35.2850485" lon="148.9860436">
  <ele>745.21</ele>
  <time>2026-09-01T20:00:04Z</time>
  <course>194.15</course>
  <speed>0.07810249675906654</speed>
  <fix>3d</fix>
</trkpt>
<trkpt lat="-35.2850482" lon="148.9860434">
  <ele>745.29</ele>
  <time>2026-09-01T20:00:04Z</time>
  <course>105.58</course>
  <speed>0.04</speed>
  <fix>3d</fix>
</trkpt>
<trkpt lat="-35.2850486" lon="148.9860437">
  <ele>745.21</ele>
  <time>2026-09-01T20:00:04Z</time>
  <course>194.15</course>
  <speed>0.0848528137423857</speed>
  <fix>3d</fix>
</trkpt>
<trkpt lat="-35.2850482" lon="148.9860434">
  <ele>745.29</ele>
  <time>2026-09-01T20:00:04Z</time>
  <course>105.58</course>
  <speed>0.04</speed>
  <fix>3d</fix>
</trkpt>
<trkpt lat="-35.2850485" lon="148.9860437">
  <ele>745.21</ele>
  <time>2026-09-01T20:00:04Z</time>
  <course>194.16</course>
  <speed>0.09433981132056603</speed>
  <fix>3d</fix>
</trkpt>
<trkpt lat="-35.2850482" lon="148.9860435">
  <ele>745.29</ele>
  <time>2026-09-01T20:00:04Z</time>
  <course>135.11</course>
  <speed>0.05</speed>
  <fix>3d</fix>
</trkpt>
<trkpt lat="-35.2850486" lon="148.9860437">
  <ele>745.21</ele>
  <time>2026-09-01T20:00:04Z</time>
  <course>194.18</course>
  <speed>0.10295630140987001</speed>
  <fix>3d</fix>
</trkpt>
<trkpt lat="-35.2850482" lon="148.9860435">
  <ele>745.29</ele>
  <time>2026-09-01T20:00:04Z</time>
  <course>135.11</course>
  <speed>0.05</speed>
  <fix>3d</fix>
</trkpt>
<trkpt lat="-35.2850486" lon="148.9860438">
  <ele>745.21</ele>
  <time>2026-09-01T20:00:04Z</time>
  <course>194.2</course>
  <speed>0.10770329614269007</speed>
  <fix>3d</fix>
</trkpt>
<trkpt lat="-35.2850482" lon="148.9860435">
  <ele>745.29</ele>
  <time>2026-09-01T20:00:04Z</time>
  <course>153.81</course>
  <speed>0.07</speed>
  <fix>3d</fix>
</trkpt>
<trkpt lat="-35.2850487" lon="148.9860438">
  <ele>745.22</ele>
  <time>2026-09-01T20:00:04Z</time>
  <course>194.21</course>
  <speed>0.11704699910719625</speed>
  <fix>3d</fix>
</trkpt>
<trkpt lat="-35.2850482" lon="148.9860435">
  <ele>745.29</ele>
  <time>2026-09-01T20:00:04Z</time>
  <course>153.81</course>
  <speed>0.07</speed>
  <fix>3d</fix>
</trkpt>
<trkpt lat="-35.2850488" lon="148.9860438">
  <ele>745.22</ele>
  <time>2026-09-01T20:00:04Z</time>
  <course>194.22</course>
  <speed>0.1264911064067352</speed>
  <fix>3d</fix>
</trkpt>
<trkpt lat="-35.2850483" lon="148.9860436">
  <ele>745.29</ele>
  <time>2026-09-01T20:00:04Z</time>
  <course>164.75</course>
  <speed>0.09</speed>
  <fix>3d</fix>
</trkpt>
<trkpt lat="-35.2850488" lon="148.9860438">
  <ele>745.22</ele>
  <time>2026-09-01T20:00:04Z</time>
  <course>194.22</course>
  <speed>0.13341664064126335</speed>
  <fix>3d</fix>
</trkpt>
<trkpt lat="-35.2850483" lon="148.9860436">
  <ele>745.29</ele>
  <time>2026-09-01T20:00:04Z</time>
  <course>164.75</course>
  <speed>0.09</speed>
  <fix>3d</fix>
</trkpt>
<trkpt lat="-35.2850489" lon="148.9860439">
  <ele>745.22</ele>
  <time>2026-09-01T20:00:04Z</time>
  <course>194.21</course>
  <speed>0.14317821063276354</speed>
  <fix>3d</fix>
</trkpt>
<trkpt lat="-35.2850485" lon="148.9860436">
  <ele>745.29</ele>
  <time>2026-09-01T20:00:04Z</time>
  <course>171.71</course>
  <speed>0.1</speed>
  <fix>3d</fix>
</trkpt>
<trkpt lat="-35.285049" lon="148.9860439">
  <ele>745.22</ele>
  <time>2026-09-01T20:00:04Z</time>
  <course>194.2</course>
  <speed>0.15132745950421556</speed>
  <fix>3d</fix>
</trkpt>
<trkpt lat="-35.2850485" lon="148.9860436">
  <ele>745.29</ele>
  <time>2026-09-01T20:00:04Z</time>
  <course>171.71</course>
  <speed>0.1</speed>
  <fix>3d</fix>
</trkpt>
<trkpt lat="-35.2850491" lon="148.9860439">
  <ele>745.22</ele>
  <time>2026-09-01T20:00:04Z</time>
  <course>194.2</course>
  <speed>0.15132745950421556</speed>
  <fix>3d</fix>
</trkpt>
<trkpt lat="-35.2850488" lon="148.9860436">
  <ele>745.29</ele>
  <time>2026-09-01T20:00:04Z</time>
  <course>176.58</course>
  <speed>0.12</speed>
  <fix>3d</fix>
</trkpt>
<trkpt lat="-35.2850492" lon="148.9860439">
  <ele>745.22</ele>
  <time>2026-09-01T20:00:04Z</time>
  <course>194.19</course>
  <speed>0.16124515496597097</speed>
  <fix>3d</fix>
</trkpt>
<trkpt lat="-35.2850488" lon="148.9860436">
  <ele>745.29</ele>
  <time>2026-09-01T20:00:04Z</time>
  <course>176.58</course>
  <speed>0.12</speed>
  <fix>3d</fix>
</trkpt>
<trkpt lat="-35.2850493" lon="148.9860439">
  <ele>745.21</ele>
  <time>2026-09-01T20:00:04Z</time>
  <course>194.19</course>
  <speed>0.16031219541881397</speed>
  <fix>3d</fix>
</trkpt>
<trkpt lat="-35.2850488" lon="148.9860436">
  <ele>745.29</ele>
  <time>2026-09-01T20:00:04Z</time>
  <course>176.58</course>
  <speed>0.12</speed>
  <fix>3d</fix>
</trkpt>
<trkpt lat="-35.2850495" lon="148.9860438">
  <ele>745.21</ele>
  <time>2026-09-01T20:00:04Z</time>
  <course>194.19</course>
  <speed>0.17029386365926402</speed>
  <fix>3d</fix>
</trkpt>
<trkpt lat="-35.285049" lon="148.9860436">
  <ele>745.28</ele>
  <time>2026-09-01T20:00:04Z</time>
  <course>180.22</course>
  <speed>0.13</speed>
  <fix>3d</fix>
</trkpt>
<trkpt lat="-35.2850496" lon="148.9860438">
  <ele>745.21</ele>
  <time>2026-09-01T20:00:04Z</time>
  <course>194.2</course>
  <speed>0.17</speed>
  <fix>3d</fix>
</trkpt>
<trkpt lat="-35.285049" lon="148.9860436">
  <ele>745.28</ele>
  <time>2026-09-01T20:00:04Z</time>
  <course>180.22</course>
  <speed>0.13</speed>
  <fix>3d</fix>
</trkpt>
<trkpt lat="-35.2850497" lon="148.9860438">
  <ele>745.21</ele>
  <time>2026-09-01T20:00:04Z</time>
  <course>194.21</course>
  <speed>0.18</speed>
  <fix>3d</fix>
</trkpt>
<trkpt lat="-35.2850493" lon="148.9860436">
  <ele>745.28</ele>
  <time>2026-09-01T20:00:04Z</time>
  <course>183.01</course>
  <speed>0.15</speed>
  <fix>3d</fix>
</trkpt>
<trkpt lat="-35.2850499" lon="148.9860438">
  <ele>745.21</ele>
  <time>2026-09-01T20:00:04Z</time>
  <course>194.22</course>
  <speed>0.18</speed>
  <fix>3d</fix>
</trkpt>
<trkpt lat="-35.2850493" lon="148.9860436">
  <ele>745.28</ele>
  <time>2026-09-01T20:00:04Z</time>
  <course>183.01</course>
  <speed>0.15</speed>
  <fix>3d</fix>
</trkpt>
<trkpt lat="-35.28505" lon="148.9860438">
  <ele>745.21</ele>
  <time>2026-09-01T20:00:04Z</time>
  <course>194.22</course>
  <speed>0.18</speed>
  <fix>3d</fix>
</trkpt>
<trkpt lat="-35.2850495" lon="148.9860436">
  <ele>745.28</ele>
  <time>2026-09-01T20:00:04Z</time>
  <course>185.14</course>
  <speed>0.15</speed>
  <fix>3d</fix>
</trkpt>
<trkpt lat="-35.2850502" lon="148.9860438">
  <ele>745.21</ele>
  <time>2026-09-01T20:00:04Z</time>
  <course>194.23</course>
  <speed>0.18</speed>
  <fix>3d</fix>
</trkpt>
<trkpt lat="-35.2850495" lon="148.9860436">
  <ele>745.28</ele>
  <time>2026-09-01T20:00:04Z</time>
  <course>185.14</course>
  <speed>0.15</speed>
  <fix>3d</fix>
</trkpt>
<trkpt lat="-35.2850503" lon="148.9860438">
  <ele>745.2</ele>
  <time>2026-09-01T20:00:04Z</time>
  <course>194.24</course>
  <speed>0.18</speed>
  <fix>3d</fix>
</trkpt>
<trkpt lat="-35.2850498" lon="148.9860436">
  <ele>745.28</ele>
  <time>2026-09-01T20:00:04Z</time>
  <course>186.8</course>
  <speed>0.16</speed>
  <fix>3d</fix>
</trkpt>
<trkpt lat="-35.2850504" lon="148.9860438">
  <ele>745.2</ele>
  <time>2026-09-01T20:00:04Z</time>
  <course>194.23</course>
  <speed>0.18</speed>
  <fix>3d</fix>
</trkpt>
<trkpt lat="-35.2850501" lon="148.9860436">
  <ele>745.27</ele>
  <time>2026-09-01T20:00:04Z</time>
  <course>188.27</course>
  <speed>0.16</speed>
  <fix>3d</fix>
</trkpt>
<trkpt lat="-35.2850506" lon="148.9860438">
  <ele>745.2</ele>
  <time>2026-09-01T20:00:04Z</time>
  <course>194.23</course>
  <speed>0.18</speed>
  <fix>3d</fix>
</trkpt>
<trkpt lat="-35.2850501" lon="148.9860436">
  <ele>745.27</ele>
  <time>2026-09-01T20:00:04Z</time>
  <course>188.27</course>
  <speed>0.16</speed>
  <fix>3d</fix>
</trkpt>
<trkpt lat="-35.2850507" lon="148.9860437">
  <ele>745.2</ele>
  <time>2026-09-01T20:00:04Z</time>
  <course>194.22</course>
  <speed>0.18</speed>
  <fix>3d</fix>
</trkpt>
<trkpt lat="-35.2850504" lon="148.9860436">
  <ele>745.27</ele>
  <time>2026-09-01T20:00:04Z</time>
  <course>189.79</course>
  <speed>0.16</speed>
  <fix>3d</fix>
</trkpt>
<trkpt lat="-35.2850508" lon="148.9860437">
  <ele>745.2</ele>
  <time>2026-09-01T20:00:04Z</time>
  <course>194.22</course>
  <speed>0.17029386365926402</speed>
  <fix>3d</fix>
</trkpt>
<trkpt lat="-35.2850504" lon="148.9860436">
  <ele>745.27</ele>
  <time>2026-09-01T20:00:04Z</time>
  <course>189.79</course>
  <speed>0.16</speed>
  <fix>3d</fix>
</trkpt>
<trkpt lat="-35.285051" lon="148.9860437">
  <ele>745.2</ele>
  <time>2026-09-01T20:00:04Z</time>
  <course>194.22</course>
  <speed>0.17029386365926402</speed>
  <fix>3d</fix>
</trkpt>
<trkpt lat="-35.2850507" lon="148.9860435">
  <ele>745.27</ele>
  <time>2026-09-01T20:00:04Z</time>
  <course>191.4</course>
  <speed>0.16</speed>
  <fix>3d</fix>
</trkpt>
<trkpt lat="-35.2850511" lon="148.9860436">
  <ele>745.2</ele>
  <time>2026-09-01T20:00:04Z</time>
  <course>194.23</course>
  <speed>0.17029386365926402</speed>
  <fix>3d</fix>
</trkpt>
<trkpt lat="-35.2850507" lon="148.9860435">
  <ele>745.27</ele>
  <time>2026-09-01T20:00:04Z</time>
  <course>191.4</course>
  <speed>0.16</speed>
  <fix>3d</fix>
</trkpt>
<trkpt lat="-35.2850513" lon="148.9860436">
  <ele>745.2</ele>
  <time>2026-09-01T20:00:04Z</time>
  <course>194.23</course>
  <speed>0.16031219541881397</speed>
  <fix>3d</fix>
</trkpt>
<trkpt lat="-35.285051" lon="148.9860435">
  <ele>745.27</ele>
  <time>2026-09-01T20:00:04Z</time>
  <course>193.05</course>
  <speed>0.15</speed>
  <fix>3d</fix>
</trkpt>
<trkpt lat="-35.2850514" lon="148.9860436">
  <ele>745.2</ele>
  <time>2026-09-01T20:00:04Z</time>
  <course>194.23</course>
  <speed>0.16031219541881397</speed>
  <fix>3d</fix>
</trkpt>
<trkpt lat="-35.285051" lon="148.9860435">
  <ele>745.27</ele>
  <time>2026-09-01T20:00:04Z</time>
  <course>193.05</course>
  <speed>0.15</speed>
  <fix>3d</fix>
</trkpt>
<trkpt lat="-35.2850515" lon="148.9860435">
  <ele>745.2</ele>
  <time>2026-09-01T20:00:04Z</time>
  <course>194.23</course>
  <speed>0.15033296378372907</speed>
  <fix>3d</fix>
</trkpt>
<trkpt lat="-35.2850513" lon="148.9860434">
  <ele>745.28</ele>
  <time>2026-09-01T20:00:04Z</time>
  <course>194.81</course>
  <speed>0.14</speed>
  <fix>3d</fix>
</trkpt>
<trkpt lat="-35.2850516" lon="148.9860435">
  <ele>745.2</ele>
  <time>2026-09-01T20:00:04Z</time>
  <course>194.24</course>
  <speed>0.140356688476182</speed>
  <fix>3d</fix>
</trkpt>
<trkpt lat="-35.2850513" lon="148.9860434">
  <ele>745.28</ele>
  <time>2026-09-01T20:00:04Z</time>
  <course>194.81</course>
  <speed>0.14</speed>
  <fix>3d</fix>
</trkpt>
<trkpt lat="-35.2850517" lon="148.9860435">
  <ele>745.2</ele>
  <time>2026-09-01T20:00:04Z</time>
  <course>194.24</course>
  <speed>0.140356688476182</speed>
  <fix>3d</fix>
</trkpt>
<trkpt lat="-35.2850514" lon="148.9860433">
  <ele>745.28</ele>
  <time>2026-09-01T20:00:04Z</time>
  <course>196.78</course>
  <speed>0.13</speed>
  <fix>3d</fix>
</trkpt>
<trkpt lat="-35.2850518" lon="148.9860434">
  <ele>745.19</ele>
  <time>2026-09-01T20:00:04Z</time>
  <course>194.24</course>
  <speed>0.130384048104053</speed>
  <fix>3d</fix>
</trkpt>
<trkpt lat="-35.2850514" lon="148.9860433">
  <ele>745.28</ele>
  <time>2026-09-01T20:00:04Z</time>
  <course>196.78</course>
  <speed>0.13</speed>
  <fix>3d</fix>
</trkpt>
<trkpt lat="-35.2850519" lon="148.9860434">
  <ele>745.19</ele>
  <time>2026-09-01T20:00:04Z</time>
  <course>194.24</course>
  <speed>0.12041594578792296</speed>
  <fix>3d</fix>
</trkpt>
<trkpt lat="-35.2850516" lon="148.9860432">
  <ele>745.28</ele>
  <time>2026-09-01T20:00:04Z</time>
  <course>199.04</course>
  <speed>0.12</speed>
  <fix>3d</fix>
</trkpt>
<trkpt lat="-35.285052" lon="148.9860434">
  <ele>745.19</ele>
  <time>2026-09-01T20:00:04Z</time>
  <course>194.24</course>
  <speed>0.11045361017187261</speed>
  <fix>3d</fix>
</trkpt>
<trkpt lat="-35.2850516" lon="148.9860432">
  <ele>745.28</ele>
  <time>2026-09-01T20:00:04Z</time>
  <course>199.04</course>
  <speed>0.12</speed>
  <fix>3d</fix>
</trkpt>
<trkpt lat="-35.2850521" lon="148.9860433">
  <ele>745.19</ele>
  <time>2026-09-01T20:00:04Z</time>
  <course>194.24</course>
  <speed>0.11045361017187261</speed>
  <fix>3d</fix>
</trkpt>
<trkpt lat="-35.2850519" lon="148.9860431">
  <ele>745.28</ele>
  <time>2026-09-01T20:00:04Z</time>
  <course>201.71</course>
  <speed>0.1</speed>
  <fix>3d</fix>
</trkpt>
<trkpt lat="-35.2850522" lon="148.9860433">
  <ele>745.19</ele>
  <time>2026-09-01T20:00:04Z</time>
  <course>194.25</course>
  <speed>0.1004987562112089</speed>
  <fix>3d</fix>
</trkpt>
<trkpt lat="-35.2850519" lon="148.9860431">
  <ele>745.28</ele>
  <time>2026-09-01T20:00:04Z</time>
  <course>201.71</course>
  <speed>0.1</speed>
  <fix>3d</fix>
</trkpt>
<trkpt lat="-35.2850522" lon="148.9860433">
  <ele>745.19</ele>
  <time>2026-09-01T20:00:04Z</time>
  <course>194.25</course>
  <speed>0.09055385138137417</speed>
  <fix>3d</fix>
</trkpt>
<trkpt lat="-35.2850521" lon="148.9860431">
  <ele>745.29</ele>
  <time>2026-09-01T20:00:04Z</time>
  <course>204.99</course>
  <speed>0.09</speed>
  <fix>3d</fix>
</trkpt>
<trkpt lat="-35.2850523" lon="148.9860432">
  <ele>745.19</ele>
  <time>2026-09-01T20:00:04Z</time>
  <course>194.25</course>
  <speed>0.08062257748298549</speed>
  <fix>3d</fix>
</trkpt>
<trkpt lat="-35.2850521" lon="148.9860431">
  <ele>745.29</ele>
  <time>2026-09-01T20:00:04Z</time>
  <course>204.99</course>
  <speed>0.09</speed>
  <fix>3d</fix>
</trkpt>
<trkpt lat="-35.2850524" lon="148.9860432">
  <ele>745.19</ele>
  <time>2026-09-01T20:00:04Z</time>
  <course>194.25</course>
  <speed>0.07071067811865475</speed>
  <fix>3d</fix>
</trkpt>
<trkpt lat="-35.2850522" lon="148.986043">
  <ele>745.29</ele>
  <time>2026-09-01T20:00:04Z</time>
  <course>209.34</course>
  <speed>0.07</speed>
  <fix>3d</fix>
</trkpt>
<trkpt lat="-35.2850524" lon="148.9860432">
  <ele>745.19</ele>
  <time>2026-09-01T20:00:04Z</time>
  <course>194.25</course>
  <speed>0.07071067811865475</speed>
  <fix>3d</fix>
</trkpt>
<trkpt lat="-35.2850522" lon="148.986043">
  <ele>745.29</ele>
  <time>2026-09-01T20:00:04Z</time>
  <course>209.34</course>
  <speed>0.07</speed>
  <fix>3d</fix>
</trkpt>
<trkpt lat="-35.2850525" lon="148.9860431">
  <ele>745.2</ele>
  <time>2026-09-01T20:00:04Z</time>
  <course>194.25</course>
  <speed>0.06082762530298219</speed>
  <fix>3d</fix>
</trkpt>
<trkpt lat="-35.2850522" lon="148.986043">
  <ele>745.29</ele>
  <time>2026-09-01T20:00:04Z</time>
  <course>209.34</course>
  <speed>0.07</speed>
  <fix>3d</fix>
</trkpt>
<trkpt lat="-35.2850525" lon="148.9860431">
  <ele>745.2</ele>
  <time>2026-09-01T20:00:04Z</time>
  <course>194.25</course>
  <speed>0.05</speed>
  <fix>3d</fix>
</trkpt>
<trkpt lat="-35.2850523" lon="148.9860429">
  <ele>745.29</ele>
  <time>2026-09-01T20:00:04Z</time>
  <course>215.78</course>
  <speed>0.05</speed>
  <fix>3d</fix>
</trkpt>
<trkpt lat="-35.2850525" lon="148.9860431">
  <ele>745.21</ele>
  <time>2026-09-01T20:00:04Z</time>
  <course>194.25</course>
  <speed>0.04</speed>
  <fix>3d</fix>
</trkpt>
<trkpt lat="-35.2850524" lon="148.9860428">
  <ele>745.3</ele>
  <time>2026-09-01T20:00:04Z</time>
  <course>226.64</course>
  <speed>0.04</speed>
  <fix>3d</fix>
</trkpt>
<trkpt lat="-35.2850525" lon="148.986043">
  <ele>745.21</ele>
  <time>2026-09-01T20:00:04Z</time>
  <course>194.25</course>
  <speed>0.03</speed>
  <fix>3d</fix>
</trkpt>
<trkpt lat="-35.2850524" lon="148.9860428">
  <ele>745.3</ele>
  <time>2026-09-01T20:00:04Z</time>
  <course>226.64</course>
  <speed>0.04</speed>
  <fix>3d</fix>
</trkpt>
<trkpt lat="-35.2850525" lon="148.986043">
  <ele>745.21</ele>
  <time>2026-09-01T20:00:04Z</time>
  <course>194.26</course>
  <speed>0.02</speed>
  <fix>3d</fix>
</trkpt>
<trkpt lat="-35.2850524" lon="148.9860428">
  <ele>745.3</ele>
  <time>2026-09-01T20:00:04Z</time>
  <course>246.28</course>
  <speed>0.03</speed>
  <fix>3d</fix>
</trkpt>
<trkpt lat="-35.2850525" lon="148.986043">
  <ele>745.21</ele>
  <time>2026-09-01T20:00:04Z</time>
  <course>194.26</course>
  <speed>0.02</speed>
  <fix>3d</fix>
</trkpt>
<trkpt lat="-35.2850524" lon="148.9860428">
  <ele>745.3</ele>
  <time>2026-09-01T20:00:04Z</time>
  <course>246.28</course>
  <speed>0.03</speed>
  <fix>3d</fix>
</trkpt>
<trkpt lat="-35.2850525" lon="148.986043">
  <ele>745.21</ele>
  <time>2026-09-01T20:00:04Z</time>
  <course>194.26</course>
  <speed>0.01</speed>
  <fix>3d</fix>
</trkpt>
<trkpt lat="-35.2850524" lon="148.9860427">
  <ele>745.3</ele>
  <time>2026-09-01T20:00:04Z</time>
  <course>277.41</course>
  <speed>0.02</speed>
  <fix>3d</fix>
</trkpt>
<trkpt lat="-35.2850525" lon="148.9860429">
  <ele>745.21</ele>
  <time>2026-09-01T20:00:04Z</time>
  <course>194.26</course>
  <speed>0.0</speed>
  <fix>3d</fix>
</trkpt>
<trkpt lat="-35.2850524" lon="148.9860427">
  <ele>745.3</ele>
  <time>2026-09-01T20:00:04Z</time>
  <course>277.41</course>
  <speed>0.02</speed>
  <fix>3d</fix>
</trkpt>
<trkpt lat="-35.2850525" lon="148.9860429">
  <ele>745.21</ele>
  <time>2026-09-01T20:00:04Z</time>
  <course>194.26</course>
  <speed>0.0</speed>
  <fix>3d</fix>
</trkpt>
<trkpt lat="-35.2850524" lon="148.9860426">
  <ele>745.3</ele>
  <time>2026-09-01T20:00:04Z</time>
  <course>310.18</course>
  <speed>0.02</speed>
  <fix>3d</fix>
</trkpt>
<trkpt lat="-35.2850525" lon="148.9860429">
  <ele>745.21</ele>
  <time>2026-09-01T20:00:04Z</time>
  <course>194.26</course>
  <speed>0.0</speed>
  <fix>3d</fix>
</trkpt>
<trkpt lat="-35.2850524" lon="148.9860426">
  <ele>745.3</ele>
  <time>2026-09-01T20:00:04Z</time>
  <course>310.18</course>
  <speed>0.02</speed>
  <fix>3d</fix>
</trkpt>
<trkpt lat="-35.2850525" lon="148.9860429">
  <ele>745.21</ele>
  <time>2026-09-01T20:00:04Z</time>
  <course>194.26</course>
  <speed>0.01</speed>
  <fix>3d</fix>
</trkpt>
<trkpt lat="-35.2850524" lon="148.9860426">
  <ele>745.3</ele>
  <time>2026-09-01T20:00:04Z</time>
  <course>331.86</course>
  <speed>0.03</speed>
  <fix>3d</fix>
</trkpt>
<trkpt lat="-35.2850525" lon="148.9860429">
  <ele>745.21</ele>
  <time>2026-09-01T20:00:04Z</time>
  <course>194.26</course>
  <speed>0.01414213562373095</speed>
  <fix>3d</fix>
</trkpt>
<trkpt lat="-35.2850524" lon="148.9860426">
  <ele>745.3</ele>
  <time>2026-09-01T20:00:04Z</time>
  <course>331.86</course>
  <speed>0.03</speed>
  <fix>3d</fix>
</trkpt>
<trkpt lat="-35.2850525" lon="148.9860429">
  <ele>745.21</ele>
  <time>2026-09-01T20:00:04Z</time>
  <course>194.26</course>
  <speed>0.022360679774997897</speed>
  <fix>3d</fix>
</trkpt>
<trkpt lat="-35.2850524" lon="148.9860426">
  <ele>745.3</ele>
  <time>2026-09-01T20:00:04Z</time>
  <course>344.4</course>
  <speed>0.04</speed>
  <fix>3d</fix>
</trkpt>
<trkpt lat="-35.2850524" lon="148.9860428">
  <ele>745.22</ele>
  <time>2026-09-01T20:00:04Z</time>
  <course>194.26</course>
  <speed>0.022360679774997897</speed>
  <fix>3d</fix>
</trkpt>
<trkpt lat="-35.2850524" lon="148.9860426">
  <ele>745.3</ele>
  <time>2026-09-01T20:00:04Z</time>
  <course>344.4</course>
  <speed>0.04</speed>
  <fix>3d</fix>
</trkpt>
<trkpt lat="-35.2850524" lon="148.9860428">
  <ele>745.22</ele>
  <time>2026-09-01T20:00:04Z</time>
  <course>194.26</course>
  <speed>0.0316227766016838</speed>
  <fix>3d</fix>
</trkpt>
<trkpt lat="-35.2850523" lon="148.9860426">
  <ele>745.3</ele>
  <time>2026-09-01T20:00:04Z</time>
  <course>352.38</course>
  <speed>0.05</speed>
  <fix>3d</fix>
</trkpt>
<trkpt lat="-35.2850524" lon="148.9860428">
  <ele>745.22</ele>
  <time>2026-09-01T20:00:04Z</time>
  <course>194.26</course>
  <speed>0.03605551275463989</speed>
  <fix>3d</fix>
</trkpt>
<trkpt lat="-35.2850523" lon="148.9860426">
  <ele>745.3</ele>
  <time>2026-09-01T20:00:04Z</time>
  <course>352.38</course>
  <speed>0.05</speed>
  <fix>3d</fix>
</trkpt>
<trkpt lat="-35.2850523" lon="148.9860428">
  <ele>745.22</ele>
  <time>2026-09-01T20:00:04Z</time>
  <course>194.27</course>
  <speed>0.03605551275463989</speed>
  <fix>3d</fix>
</trkpt>
<trkpt lat="-35.2850522" lon="148.9860426">
  <ele>745.3</ele>
  <time>2026-09-01T20:00:04Z</time>
  <course>357.9</course>
  <speed>0.06</speed>
  <fix>3d</fix>
</trkpt>
<trkpt lat="-35.2850523" lon="148.9860429">
  <ele>745.21</ele>
  <time>2026-09-01T20:00:04Z</time>
  <course>194.27</course>
  <speed>0.044721359549995794</speed>
  <fix>3d</fix>
</trkpt>
<trkpt lat="-35.2850522" lon="148.9860426">
  <ele>745.3</ele>
  <time>2026-09-01T20:00:04Z</time>
  <course>357.9</course>
  <speed>0.06</speed>
  <fix>3d</fix>
</trkpt>
<trkpt lat="-35.2850522" lon="148.9860429">
  <ele>745.21</ele>
  <time>2026-09-01T20:00:04Z</time>
  <course>194.28</course>
  <speed>0.044721359549995794</speed>
  <fix>3d</fix>
</trkpt>
<trkpt lat="-35.2850521" lon="148.9860426">
  <ele>745.3</ele>
  <time>2026-09-01T20:00:04Z</time>
  <course>1.79</course>
  <speed>0.07</speed>
  <fix>3d</fix>
</trkpt>
<trkpt lat="-35.2850521" lon="148.9860429">
  <ele>745.21</ele>
  <time>2026-09-01T20:00:04Z</time>
  <course>194.28</course>
  <speed>0.044721359549995794</speed>
  <fix>3d</fix>
</trkpt>
<trkpt lat="-35.2850521" lon="148.9860426">
  <ele>745.3</ele>
  <time>2026-09-01T20:00:04Z</time>
  <course>1.79</course>
  <speed>0.07</speed>
  <fix>3d</fix>
</trkpt>
<trkpt lat="-35.2850521" lon="148.9860429">
  <ele>745.21</ele>
  <time>2026-09-01T20:00:04Z</time>
  <course>194.28</course>
  <speed>0.05</speed>
  <fix>3d</fix>
</trkpt>
<trkpt lat="-35.2850519" lon="148.9860426">
  <ele>745.29</ele>
  <time>2026-09-01T20:00:04Z</time>
  <course>4.62</course>
  <speed>0.07</speed>
  <fix>3d</fix>
</trkpt>
<trkpt lat="-35.285052" lon="148.9860429">
  <ele>745.21</ele>
  <time>2026-09-01T20:00:04Z</time>
  <course>194.29</course>
  <speed>0.05830951894845301</speed>
  <fix>3d</fix>
</trkpt>
<trkpt lat="-35.2850519" lon="148.9860426">
  <ele>745.29</ele>
  <time>2026-09-01T20:00:04Z</time>
  <course>4.62</course>
  <speed>0.07</speed>
  <fix>3d</fix>
</trkpt>
<trkpt lat="-35.285052" lon="148.9860429">
  <ele>745.21</ele>
  <time>2026-09-01T20:00:04Z</time>
  <course>194.29</course>
  <speed>0.05830951894845301</speed>
  <fix>3d</fix>
</trkpt>
<trkpt lat="-35.2850518" lon="148.9860426">
  <ele>745.29</ele>
  <time>2026-09-01T20:00:04Z</time>
  <course>7.01</course>
  <speed>0.08</speed>
  <fix>3d</fix>
</trkpt>
<trkpt lat="-35.2850519" lon="148.9860429">
  <ele>745.21</ele>
  <time>2026-09-01T20:00:04Z</time>
  <course>194.3</course>
  <speed>0.05830951894845301</speed>
  <fix>3d</fix>
</trkpt>
<trkpt lat="-35.2850518" lon="148.9860426">
  <ele>745.29</ele>
  <time>2026-09-01T20:00:04Z</time>
  <course>7.01</course>
  <speed>0.08</speed>
  <fix>3d</fix>
</trkpt>
<trkpt lat="-35.2850518" lon="148.9860429">
  <ele>745.21</ele>
  <time>2026-09-01T20:00:04Z</time>
  <course>194.3</course>
  <speed>0.05830951894845301</speed>
  <fix>3d</fix>
</trkpt>
<trkpt lat="-35.2850516" lon="148.9860426">
  <ele>745.29</ele>
  <time>2026-09-01T20:00:04Z</time>
  <course>9.14</course>
  <speed>0.08</speed>
  <fix>3d</fix>
</trkpt>
<trkpt lat="-35.2850518" lon="148.9860429">
  <ele>745.21</ele>
  <time>2026-09-01T20:00:04Z</time>
  <course>194.3</course>
  <speed>0.05830951894845301</speed>
  <fix>3d</fix>
</trkpt>
<trkpt lat="-35.2850516" lon="148.9860426">
  <ele>745.29</ele>
  <time>2026-09-01T20:00:04Z</time>
  <course>9.14</course>
  <speed>0.08</speed>
  <fix>3d</fix>
</trkpt>
<trkpt lat="-35.2850517" lon="148.9860429">
  <ele>745.21</ele>
  <time>2026-09-01T20:00:04Z</time>
  <course>194.31</course>
  <speed>0.06403124237432849</speed>
  <fix>3d</fix>
</trkpt>
<trkpt lat="-35.2850514" lon="148.9860426">
  <ele>745.29</ele>
  <time>2026-09-01T20:00:04Z</time>
  <course>10.81</course>
  <speed>0.08</speed>
  <fix>3d</fix>
</trkpt>
<trkpt lat="-35.2850516" lon="148.9860429">
  <ele>745.21</ele>
  <time>2026-09-01T20:00:04Z</time>
  <course>194.31</course>
  <speed>0.06403124237432849</speed>
  <fix>3d</fix>
</trkpt>
<trkpt lat="-35.2850514" lon="148.9860426">
  <ele>745.29</ele>
  <time>2026-09-01T20:00:04Z</time>
  <course>10.81</course>
  <speed>0.08</speed>
  <fix>3d</fix>
</trkpt>
<trkpt lat="-35.2850515" lon="148.9860429">
  <ele>745.21</ele>
  <time>2026-09-01T20:00:04Z</time>
  <course>194.29</course>
  <speed>0.05</speed>
  <fix>3d</fix>
</trkpt>
<trkpt lat="-35.2850513" lon="148.9860426">
  <ele>745.29</ele>
  <time>2026-09-01T20:00:04Z</time>
  <course>11.76</course>
  <speed>0.08</speed>
  <fix>3d</fix>
</trkpt>
<trkpt lat="-35.2850515" lon="148.9860429">
  <ele>745.2</ele>
  <time>2026-09-01T20:00:04Z</time>
  <course>194.23</course>
  <speed>0.02</speed>
  <fix>3d</fix>
</trkpt>
<trkpt lat="-35.2850513" lon="148.9860426">
  <ele>745.29</ele>
  <time>2026-09-01T20:00:04Z</time>
  <course>11.76</course>
  <speed>0.08</speed>
  <fix>3d</fix>
</trkpt>
<trkpt lat="-35.2850515" lon="148.9860429">
  <ele>745.2</ele>
  <time>2026-09-01T20:00:04Z</time>
  <course>194.11</course>
  <speed>0.11</speed>
  <fix>3d</fix>
</trkpt>
<trkpt lat="-35.2850513" lon="148.9860426">
  <ele>745.29</ele>
  <time>2026-09-01T20:00:04Z</time>
  <course>244.97</course>
  <speed>0.0</speed>
  <fix>3d</fix>
</trkpt>
<trkpt lat="-35.2850517" lon="148.9860429">
  <ele>745.2</ele>
  <time>2026-09-01T20:00:04Z</time>
  <course>193.94</course>
  <speed>0.2816025568065745</speed>
  <fix>3d</fix>
</trkpt>
<trkpt lat="-35.2850513" lon="148.9860426">
  <ele>745.29</ele>
  <time>2026-09-01T20:00:04Z</time>
  <course>244.97</course>
  <speed>0.0</speed>
  <fix>3d</fix>
</trkpt>
<trkpt lat="-35.2850519" lon="148.9860429">
  <ele>745.2</ele>
  <time>2026-09-01T20:00:04Z</time>
  <course>193.82</course>
  <speed>0.5162363799656123</speed>
  <fix>3d</fix>
</trkpt>
<trkpt lat="-35.2850514" lon="148.9860426">
  <ele>745.29</ele>
  <time>2026-09-01T20:00:04Z</time>
  <course>193.1</course>
  <speed>0.27</speed>
  <fix>3d</fix>
</trkpt>
<trkpt lat="-35.2850525" lon="148.9860427">
  <ele>745.2</ele>
  <time>2026-09-01T20:00:04Z</time>
  <course>193.82</course>
  <speed>0.8121576201698781</speed>
  <fix>3d</fix>
</trkpt>
<trkpt lat="-35.2850514" lon="148.9860426">
  <ele>745.29</ele>
  <time>2026-09-01T20:00:04Z</time>
  <course>193.1</course>
  <speed>0.27</speed>
  <fix>3d</fix>
</trkpt>
<trkpt lat="-35.2850533" lon="148.9860425">
  <ele>745.2</ele>
  <time>2026-09-01T20:00:04Z</time>
  <course>193.91</course>
  <speed>1.1610340218959994</speed>
  <fix>3d</fix>
</trkpt>
<trkpt lat="-35.2850522" lon="148.9860423">
  <ele>745.29</ele>
  <time>2026-09-01T20:00:04Z</time>
  <course>192.98</course>
  <speed>0.79</speed>
  <fix>3d</fix>
</trkpt>
<trkpt lat="-35.2850545" lon="148.9860421">
  <ele>745.2</ele>
  <time>2026-09-01T20:00:04Z</time>
  <course>194.01</course>
  <speed>1.5826875876179733</speed>
  <fix>3d</fix>
</trkpt>
<trkpt lat="-35.2850522" lon="148.9860423">
  <ele>745.29</ele>
  <time>2026-09-01T20:00:04Z</time>
  <course>192.98</course>
  <speed>0.79</speed>
  <fix>3d</fix>
</trkpt>
<trkpt lat="-35.2850561" lon="148.9860417">
  <ele>745.2</ele>
  <time>2026-09-01T20:00:04Z</time>
  <course>194.19</course>
  <speed>2.0597572672526248</speed>
  <fix>3d</fix>
</trkpt>
<trkpt lat="-35.2850543" lon="148.9860418">
  <ele>745.29</ele>
  <time>2026-09-01T20:00:04Z</time>
  <course>193.59</course>
  <speed>1.56</speed>
  <fix>3d</fix>
</trkpt>
<trkpt lat="-35.2850581" lon="148.9860411">
  <ele>745.2</ele>
  <time>2026-09-01T20:00:04Z</time>
  <course>194.37</course>
  <speed>2.600173071162764</speed>
  <fix>3d</fix>
</trkpt>
<trkpt lat="-35.2850543" lon="148.9860418">
  <ele>745.29</ele>
  <time>2026-09-01T20:00:04Z</time>
  <course>193.59</course>
  <speed>1.56</speed>
  <fix>3d</fix>
</trkpt>
<trkpt lat="-35.2850606" lon="148.9860403">
  <ele>745.2</ele>
  <time>2026-09-01T20:00:04Z</time>
  <course>194.69</course>
  <speed>3.1941978648793814</speed>
  <fix>3d</fix>
</trkpt>
<trkpt lat="-35.2850579" lon="148.9860407">
  <ele>745.3</ele>
  <time>2026-09-01T20:00:04Z</time>
  <course>194.6</course>
  <speed>2.57</speed>
  <fix>3d</fix>
</trkpt>
<trkpt lat="-35.2850636" lon="148.9860393">
  <ele>745.21</ele>
  <time>2026-09-01T20:00:04Z</time>
  <course>194.96</course>
  <speed>3.805693103759156</speed>
  <fix>3d</fix>
</trkpt>
<trkpt lat="-35.2850579" lon="148.9860407">
  <ele>745.3</ele>
  <time>2026-09-01T20:00:04Z</time>
  <course>194.6</course>
  <speed>2.57</speed>
  <fix>3d</fix>
</trkpt>
<trkpt lat="-35.2850671" lon="148.9860381">
  <ele>745.21</ele>
  <time>2026-09-01T20:00:04Z</time>
  <course>195.36</course>
  <speed>4.420407221060069</speed>
  <fix>3d</fix>
</trkpt>
<trkpt lat="-35.2850634" lon="148.9860388">
  <ele>745.3</ele>
  <time>2026-09-01T20:00:04Z</time>
  <course>195.72</course>
  <speed>3.75</speed>
  <fix>3d</fix>
</trkpt>
<trkpt lat="-35.2850712" lon="148.9860366">
  <ele>745.22</ele>
  <time>2026-09-01T20:00:04Z</time>
  <course>195.83</course>
  <speed>5.038412448380938</speed>
  <fix>3d</fix>
</trkpt>
<trkpt lat="-35.2850634" lon="148.9860388">
  <ele>745.3</ele>
  <time>2026-09-01T20:00:04Z</time>
  <course>195.72</course>
  <speed>3.75</speed>
  <fix>3d</fix>
</trkpt>
<trkpt lat="-35.2850757" lon="148.9860349">
  <ele>745.23</ele>
  <time>2026-09-01T20:00:04Z</time>
  <course>196.36</course>
  <speed>5.646459067415614</speed>
  <fix>3d</fix>
</trkpt>
<trkpt lat="-35.2850709" lon="148.9860362">
  <ele>745.32</ele>
  <time>2026-09-01T20:00:04Z</time>
  <course>197.03</course>
  <speed>4.97</speed>
  <fix>3d</fix>
</trkpt>
<trkpt lat="-35.2850808" lon="148.9860329">
  <ele>745.24</ele>
  <time>2026-09-01T20:00:04Z</time>
  <course>197.06</course>
  <speed>6.25518984524051</speed>
  <fix>3d</fix>
</trkpt>
<trkpt lat="-35.2850709" lon="148.9860362">
  <ele>745.32</ele>
  <time>2026-09-01T20:00:04Z</time>
  <course>197.03</course>
  <speed>4.97</speed>
  <fix>3d</fix>
</trkpt>
<trkpt lat="-35.2850863" lon="148.9860305">
  <ele>745.25</ele>
  <time>2026-09-01T20:00:04Z</time>
  <course>197.88</course>
  <speed>6.868653434262061</speed>
  <fix>3d</fix>
</trkpt>
<trkpt lat="-35.2850805" lon="148.9860324">
  <ele>745.33</ele>
  <time>2026-09-01T20:00:04Z</time>
  <course>198.62</course>
  <speed>6.19</speed>
  <fix>3d</fix>
</trkpt>
<trkpt lat="-35.2850923" lon="148.9860279">
  <ele>745.26</ele>
  <time>2026-09-01T20:00:04Z</time>
  <course>198.77</course>
  <speed>7.474790966976936</speed>
  <fix>3d</fix>
</trkpt>
<trkpt lat="-35.2850805" lon="148.9860324">
  <ele>745.33</ele>
  <time>2026-09-01T20:00:04Z</time>
  <course>198.62</course>
  <speed>6.19</speed>
  <fix>3d</fix>
</trkpt>
<trkpt lat="-35.2850988" lon="148.9860249">
  <ele>745.27</ele>
  <time>2026-09-01T20:00:04Z</time>
  <course>199.76</course>
  <speed>8.087799453497842</speed>
  <fix>3d</fix>
</trkpt>
<trkpt lat="-35.285092" lon="148.9860273">
  <ele>745.36</ele>
  <time>2026-09-01T20:00:04Z</time>
  <course>200.51</course>
  <speed>7.42</speed>
  <fix>3d</fix>
</trkpt>
<trkpt lat="-35.2851058" lon="148.9860214">
  <ele>745.27</ele>
  <time>2026-09-01T20:00:04Z</time>
  <course>200.88</course>
  <speed>8.683317338436964</speed>
  <fix>3d</fix>
</trkpt>
<trkpt lat="-35.285092" lon="148.9860273">
  <ele>745.36</ele>
  <time>2026-09-01T20:00:04Z</time>
  <course>200.51</course>
  <speed>7.42</speed>
  <fix>3d</fix>
</trkpt>
<trkpt lat="-35.2851131" lon="148.9860175">
  <ele>745.28</ele>
  <time>2026-09-01T20:00:04Z</time>
  <course>202.19</course>
  <speed>9.279552790948495</speed>
  <fix>3d</fix>
</trkpt>
<trkpt lat="-35.2851054" lon="148.9860208">
  <ele>745.38</ele>
  <time>2026-09-01T20:00:04Z</time>
  <course>202.77</course>
  <speed>8.63</speed>
  <fix>3d</fix>
</trkpt>
<trkpt lat="-35.2851208" lon="148.9860132">
  <ele>745.29</ele>
  <time>2026-09-01T20:00:04Z</time>
  <course>203.66</course>
  <speed>9.86955419459258</speed>
  <fix>3d</fix>
</trkpt>
<trkpt lat="-35.2851054" lon="148.9860208">
  <ele>745.38</ele>
  <time>2026-09-01T20:00:04Z</time>
  <course>202.77</course>
  <speed>8.63</speed>
  <fix>3d</fix>
</trkpt>
<trkpt lat="-35.285129" lon="148.9860083">
  <ele>745.3</ele>
  <time>2026-09-01T20:00:04Z</time>
  <course>205.17</course>
  <speed>10.446970852835763</speed>
  <fix>3d</fix>
</trkpt>
<trkpt lat="-35.2851205" lon="148.9860125">
  <ele>745.4</ele>
  <time>2026-09-01T20:00:04Z</time>
  <course>205.4</course>
  <speed>9.81</speed>
  <fix>3d</fix>
</trkpt>
<trkpt lat="-35.2851375" lon="148.9860028">
  <ele>745.32</ele>
  <time>2026-09-01T20:00:04Z</time>
  <course>206.58</course>
  <speed>11.004203742206885</speed>
  <fix>3d</fix>
</trkpt>
<trkpt lat="-35.2851205" lon="148.9860125">
  <ele>745.4</ele>
  <time>2026-09-01T20:00:04Z</time>
  <course>205.4</course>
  <speed>9.81</speed>
  <fix>3d</fix>
</trkpt>
<trkpt lat="-35.2851464" lon="148.9859968">
  <ele>745.34</ele>
  <time>2026-09-01T20:00:04Z</time>
  <course>208.02</course>
  <speed>11.547835294980613</speed>
  <fix>3d</fix>
</trkpt>
<trkpt lat="-35.2851371" lon="148.9860022">
  <ele>745.42</ele>
  <time>2026-09-01T20:00:04Z</time>
  <course>208.3</course>
  <speed>10.95</speed>
  <fix>3d</fix>
</trkpt>
<trkpt lat="-35.2851555" lon="148.9859902">
  <ele>745.36</ele>
  <time>2026-09-01T20:00:04Z</time>
  <course>209.48</course>
  <speed>12.08379079593817</speed>
  <fix>3d</fix>
</trkpt>
<trkpt lat="-35.2851371" lon="148.9860022">
  <ele>745.42</ele>
  <time>2026-09-01T20:00:04Z</time>
  <course>208.3</course>
  <speed>10.95</speed>
  <fix>3d</fix>
</trkpt>
<trkpt lat="-35.2851648" lon="148.985983">
  <ele>745.39</ele>
  <time>2026-09-01T20:00:04Z</time>
  <course>211.06</course>
  <speed>12.594336028548707</speed>
  <fix>3d</fix>
</trkpt>
<trkpt lat="-35.2851551" lon="148.9859896">
  <ele>745.45</ele>
  <time>2026-09-01T20:00:04Z</time>
  <course>211.3</course>
  <speed>12.03</speed>
  <fix>3d</fix>
</trkpt>
<trkpt lat="-35.2851745" lon="148.9859751">
  <ele>745.42</ele>
  <time>2026-09-01T20:00:04Z</time>
  <course>212.62</course>
  <speed>13.113432045044501</speed>
  <fix>3d</fix>
</trkpt>
<trkpt lat="-35.2851551" lon="148.9859896">
  <ele>745.45</ele>
  <time>2026-09-01T20:00:04Z</time>
  <course>211.3</course>
  <speed>12.03</speed>
  <fix>3d</fix>
</trkpt>
<trkpt lat="-35.2851842" lon="148.9859667">
  <ele>745.46</ele>
  <time>2026-09-01T20:00:04Z</time>
  <course>214.11</course>
  <speed>13.603308421115798</speed>
  <fix>3d</fix>
</trkpt>
<trkpt lat="-35.2851741" lon="148.9859746">
  <ele>745.51</ele>
  <time>2026-09-01T20:00:04Z</time>
  <course>214.31</course>
  <speed>13.07</speed>
  <fix>3d</fix>
</trkpt>
<trkpt lat="-35.2851941" lon="148.9859576">
  <ele>745.5</ele>
  <time>2026-09-01T20:00:04Z</time>
  <course>215.62</course>
  <speed>14.07810356546648</speed>
  <fix>3d</fix>
</trkpt>
<trkpt lat="-35.2851741" lon="148.9859746">
  <ele>745.51</ele>
  <time>2026-09-01T20:00:04Z</time>
  <course>214.31</course>
  <speed>13.07</speed>
  <fix>3d</fix>
</trkpt>
<trkpt lat="-35.2852042" lon="148.9859479">
  <ele>745.54</ele>
  <time>2026-09-01T20:00:04Z</time>
  <course>216.99</course>
  <speed>14.54606475992734</speed>
  <fix>3d</fix>
</trkpt>
<trkpt lat="-35.2851938" lon="148.9859571">
  <ele>745.58</ele>
  <time>2026-09-01T20:00:04Z</time>
  <course>217.27</course>
  <speed>14.05</speed>
  <fix>3d</fix>
</trkpt>
<trkpt lat="-35.2852144" lon="148.9859376">
  <ele>745.59</ele>
  <time>2026-09-01T20:00:04Z</time>
  <course>218.44</course>
  <speed>14.999563326977222</speed>
  <fix>3d</fix>
</trkpt>
<trkpt lat="-35.2851938" lon="148.9859571">
  <ele>745.58</ele>
  <time>2026-09-01T20:00:04Z</time>
  <course>217.27</course>
  <speed>14.05</speed>
  <fix>3d</fix>
</trkpt>
<trkpt lat="-35.2852247" lon="148.9859268">
  <ele>745.63</ele>
  <time>2026-09-01T20:00:04Z</time>
  <course>219.87</course>
  <speed>15.446682491719702</speed>
  <fix>3d</fix>
</trkpt>
<trkpt lat="-35.2852142" lon="148.9859371">
  <ele>745.66</ele>
  <time>2026-09-01T20:00:04Z</time>
  <course>220.11</course>
  <speed>14.99</speed>
  <fix>3d</fix>
</trkpt>
<trkpt lat="-35.2852351" lon="148.9859152">
  <ele>745.68</ele>
  <time>2026-09-01T20:00:04Z</time>
  <course>221.22</course>
  <speed>15.894936300595859</speed>
  <fix>3d</fix>
</trkpt>
<trkpt lat="-35.2852142" lon="148.9859371">
  <ele>745.66</ele>
  <time>2026-09-01T20:00:04Z</time>
  <course>220.11</course>
  <speed>14.99</speed>
  <fix>3d</fix>
</trkpt>
<trkpt lat="-35.2852455" lon="148.985903">
  <ele>745.72</ele>
  <time>2026-09-01T20:00:04Z</time>
  <course>222.42</course>
  <speed>16.322726487936997</speed>
  <fix>3d</fix>
</trkpt>
<trkpt lat="-35.285235" lon="148.9859146">
  <ele>745.75</ele>
  <time>2026-09-01T20:00:04Z</time>
  <course>222.8</course>
  <speed>15.88</speed>
  <fix>3d</fix>
</trkpt>
<trkpt lat="-35.285256" lon="148.9858902">
  <ele>745.76</ele>
  <time>2026-09-01T20:00:04Z</time>
  <course>223.72</course>
  <speed>16.709054431654714</speed>
  <fix>3d</fix>
</trkpt>
<trkpt lat="-35.285235" lon="148.9859146">
  <ele>745.75</ele>
  <time>2026-09-01T20:00:04Z</time>
  <course>222.8</course>
  <speed>15.88</speed>
  <fix>3d</fix>
</trkpt>
<trkpt lat="-35.2852666" lon="148.9858769">
  <ele>745.8</ele>
  <time>2026-09-01T20:00:04Z</time>
  <course>224.93</course>
  <speed>17.05344833164249</speed>
  <fix>3d</fix>
</trkpt>
<trkpt lat="-35.285256" lon="148.9858896">
  <ele>745.82</ele>
  <time>2026-09-01T20:00:04Z</time>
  <course>225.32</course>
  <speed>16.69</speed>
  <fix>3d</fix>
</trkpt>
<trkpt lat="-35.2852771" lon="148.9858629">
  <ele>745.83</ele>
  <time>2026-09-01T20:00:04Z</time>
  <course>226.16</course>
  <speed>17.356987065732348</speed>
  <fix>3d</fix>
</trkpt>
<trkpt lat="-35.285256" lon="148.9858896">
  <ele>745.82</ele>
  <time>2026-09-01T20:00:04Z</time>
  <course>225.32</course>
  <speed>16.69</speed>
  <fix>3d</fix>
</trkpt>
<trkpt lat="-35.2852875" lon="148.9858485">
  <ele>745.87</ele>
  <time>2026-09-01T20:00:04Z</time>
  <course>227.35</course>
  <speed>17.619727580186932</speed>
  <fix>3d</fix>
</trkpt>
<trkpt lat="-35.2852771" lon="148.9858623">
  <ele>745.89</ele>
  <time>2026-09-01T20:00:04Z</time>
  <course>227.77</course>
  <speed>17.35</speed>
  <fix>3d</fix>
</trkpt>
<trkpt lat="-35.2852978" lon="148.9858336">
  <ele>745.91</ele>
  <time>2026-09-01T20:00:04Z</time>
  <course>228.58</course>
  <speed>17.849621844733853</speed>
  <fix>3d</fix>
</trkpt>
<trkpt lat="-35.2852771" lon="148.9858623">
  <ele>745.89</ele>
  <time>2026-09-01T20:00:04Z</time>
  <course>227.77</course>
  <speed>17.35</speed>
  <fix>3d</fix>
</trkpt>
<trkpt lat="-35.2853079" lon="148.9858184">
  <ele>745.95</ele>
  <time>2026-09-01T20:00:04Z</time>
  <course>229.9</course>
  <speed>18.04590258202676</speed>
  <fix>3d</fix>
</trkpt>
<trkpt lat="-35.2852978" lon="148.985833">
  <ele>745.97</ele>
  <time>2026-09-01T20:00:04Z</time>
  <course>230.26</course>
  <speed>17.85</speed>
  <fix>3d</fix>
</trkpt>
<trkpt lat="-35.2853178" lon="148.9858027">
  <ele>746.0</ele>
  <time>2026-09-01T20:00:04Z</time>
  <course>231.25</course>
  <speed>18.224478044651924</speed>
  <fix>3d</fix>
</trkpt>
<trkpt lat="-35.2852978" lon="148.985833">
  <ele>745.97</ele>
  <time>2026-09-01T20:00:04Z</time>
  <course>230.26</course>
  <speed>17.85</speed>
  <fix>3d</fix>
</trkpt>
<trkpt lat="-35.2853276" lon="148.9857866">
  <ele>746.05</ele>
  <time>2026-09-01T20:00:04Z</time>
  <course>232.66</course>
  <speed>18.402445489662508</speed>
  <fix>3d</fix>
</trkpt>
<trkpt lat="-35.285318" lon="148.9858019">
  <ele>746.05</ele>
  <time>2026-09-01T20:00:04Z</time>
  <course>232.82</course>
  <speed>18.25</speed>
  <fix>3d</fix>
</trkpt>
<trkpt lat="-35.2853371" lon="148.9857701">
  <ele>746.1</ele>
  <time>2026-09-01T20:00:04Z</time>
  <course>234.11</course>
  <speed>18.551247936459692</speed>
  <fix>3d</fix>
</trkpt>
<trkpt lat="-35.285318" lon="148.9858019">
  <ele>746.05</ele>
  <time>2026-09-01T20:00:04Z</time>
  <course>232.82</course>
  <speed>18.25</speed>
  <fix>3d</fix>
</trkpt>
<trkpt lat="-35.2853463" lon="148.9857531">
  <ele>746.15</ele>
  <time>2026-09-01T20:00:04Z</time>
  <course>235.75</course>
  <speed>18.724969959922497</speed>
  <fix>3d</fix>
</trkpt>
<trkpt lat="-35.2853374" lon="148.9857691">
  <ele>746.15</ele>
  <time>2026-09-01T20:00:04Z</time>
  <course>235.56</course>
  <speed>18.59</speed>
  <fix>3d</fix>
</trkpt>
<trkpt lat="-35.2853553" lon="148.9857356">
  <ele>746.2</ele>
  <time>2026-09-01T20:00:04Z</time>
  <course>237.53</course>
  <speed>18.87934320891487</speed>
  <fix>3d</fix>
</trkpt>
<trkpt lat="-35.2853374" lon="148.9857691">
  <ele>746.15</ele>
  <time>2026-09-01T20:00:04Z</time>
  <course>235.56</course>
  <speed>18.59</speed>
  <fix>3d</fix>
</trkpt>
<trkpt lat="-35.285364" lon="148.9857177">
  <ele>746.26</ele>
  <time>2026-09-01T20:00:04Z</time>
  <course>239.31</course>
  <speed>19.031891655849662</speed>
  <fix>3d</fix>
</trkpt>
<trkpt lat="-35.2853557" lon="148.9857344">
  <ele>746.25</ele>
  <time>2026-09-01T20:00:04Z</time>
  <course>238.61</course>
  <speed>18.92</speed>
  <fix>3d</fix>
</trkpt>
<trkpt lat="-35.2853722" lon="148.9856994">
  <ele>746.31</ele>
  <time>2026-09-01T20:00:04Z</time>
  <course>241.1</course>
  <speed>19.17768755611583</speed>
  <fix>3d</fix>
</trkpt>
<trkpt lat="-35.2853557" lon="148.9857344">
  <ele>746.25</ele>
  <time>2026-09-01T20:00:04Z</time>
  <course>238.61</course>
  <speed>18.92</speed>
  <fix>3d</fix>
</trkpt>
<trkpt lat="-35.28538" lon="148.9856806">
  <ele>746.37</ele>
  <time>2026-09-01T20:00:04Z</time>
  <course>243.01</course>
  <speed>19.333830453378866</speed>
  <fix>3d</fix>
</trkpt>
<trkpt lat="-35.2853726" lon="148.9856979">
  <ele>746.36</ele>
  <time>2026-09-01T20:00:04Z</time>
  <course>242.1</course>
  <speed>19.23</speed>
  <fix>3d</fix>
</trkpt>
<trkpt lat="-35.2853873" lon="148.9856613">
  <ele>746.42</ele>
  <time>2026-09-01T20:00:04Z</time>
  <course>245.05</course>
  <speed>19.48246390988573</speed>
  <fix>3d</fix>
</trkpt>
<trkpt lat="-35.2853726" lon="148.9856979">
  <ele>746.36</ele>
  <time>2026-09-01T20:00:04Z</time>
  <course>242.1</course>
  <speed>19.23</speed>
  <fix>3d</fix>
</trkpt>
<trkpt lat="-35.2853941" lon="148.9856416">
  <ele>746.48</ele>
  <time>2026-09-01T20:00:04Z</time>
  <course>247.18</course>
  <speed>19.63728341701061</speed>
  <fix>3d</fix>
</trkpt>
<trkpt lat="-35.2853879" lon="148.9856596">
  <ele>746.47</ele>
  <time>2026-09-01T20:00:04Z</time>
  <course>246.05</course>
  <speed>19.54</speed>
  <fix>3d</fix>
</trkpt>
<trkpt lat="-35.2854004" lon="148.9856214">
  <ele>746.53</ele>
  <time>2026-09-01T20:00:04Z</time>
  <course>249.4</course>
  <speed>19.783996057419746</speed>
  <fix>3d</fix>
</trkpt>
<trkpt lat="-35.2853879" lon="148.9856596">
  <ele>746.47</ele>
  <time>2026-09-01T20:00:04Z</time>
  <course>246.05</course>
  <speed>19.54</speed>
  <fix>3d</fix>
</trkpt>
<trkpt lat="-35.285406" lon="148.9856007">
  <ele>746.58</ele>
  <time>2026-09-01T20:00:04Z</time>
  <course>251.76</course>
  <speed>19.942730505123915</speed>
  <fix>3d</fix>
</trkpt>
<trkpt lat="-35.285401" lon="148.9856193">
  <ele>746.57</ele>
  <time>2026-09-01T20:00:04Z</time>
  <course>250.45</course>
  <speed>19.85</speed>
  <fix>3d</fix>
</trkpt>
<trkpt lat="-35.285411" lon="148.9855796">
  <ele>746.63</ele>
  <time>2026-09-01T20:00:04Z</time>
  <course>254.15</course>
  <speed>20.093265040804095</speed>
  <fix>3d</fix>
</trkpt>
<trkpt lat="-35.285401" lon="148.9856193">
  <ele>746.57</ele>
  <time>2026-09-01T20:00:04Z</time>
  <course>250.45</course>
  <speed>19.85</speed>
  <fix>3d</fix>
</trkpt>
<trkpt lat="-35.2854152" lon="148.985558">
  <ele>746.68</ele>
  <time>2026-09-01T20:00:04Z</time>
  <course>256.62</course>
  <speed>20.249646910501923</speed>
  <fix>3d</fix>
</trkpt>
<trkpt lat="-35.2854117" lon="148.9855772">
  <ele>746.67</ele>
  <time>2026-09-01T20:00:04Z</time>
  <course>255.23</course>
  <speed>20.15</speed>
  <fix>3d</fix>
</trkpt>
<trkpt lat="-35.2854187" lon="148.9855359">
  <ele>746.73</ele>
  <time>2026-09-01T20:00:05Z</time>
  <course>259.11</course>
  <speed>20.40859622806037</speed>
  <fix>3d</fix>
</trkpt>
<trkpt lat="-35.2854117" lon="148.9855772">
  <ele>746.67</ele>
  <time>2026-09-01T20:00:05Z</time>
  <course>255.23</course>
  <speed>20.15</speed>
  <fix>3d</fix>
</trkpt>
<trkpt lat="-35.2854214" lon="148.9855137">
  <ele>746.77</ele>
  <time>2026-09-01T20:00:05Z</time>
  <course>261.65</course>
  <speed>20.566210151605475</speed>
  <fix>3d</fix>
</trkpt>
<trkpt lat="-35.2854193" lon="148.9855335">
  <ele>746.76</ele>
  <time>2026-09-01T20:00:05Z</time>
  <course>260.3</course>
  <speed>20.46</speed>
  <fix>3d</fix>
</trkpt>
<trkpt lat="-35.2854233" lon="148.9854911">
  <ele>746.81</ele>
  <time>2026-09-01T20:00:05Z</time>
  <course>264.23</course>
  <speed>20.731063648544424</speed>
  <fix>3d</fix>
</trkpt>
<trkpt lat="-35.2854193" lon="148.9855335">
  <ele>746.76</ele>
  <time>2026-09-01T20:00:05Z</time>
  <course>260.3</course>
  <speed>20.46</speed>
  <fix>3d</fix>
</trkpt>
<trkpt lat="-35.2854244" lon="148.9854682">
  <ele>746.85</ele>
  <time>2026-09-01T20:00:05Z</time>
  <course>266.85</course>
  <speed>20.89919854922671</speed>
  <fix>3d</fix>
</trkpt>
<trkpt lat="-35.2854239" lon="148.9854884">
  <ele>746.84</ele>
  <time>2026-09-01T20:00:05Z</time>
  <course>265.55</course>
  <speed>20.78</speed>
  <fix>3d</fix>
</trkpt>
<trkpt lat="-35.2854245" lon="148.9854451">
  <ele>746.89</ele>
  <time>2026-09-01T20:00:05Z</time>
  <course>269.51</course>
  <speed>21.053078159737115</speed>
  <fix>3d</fix>
</trkpt>
<trkpt lat="-35.2854239" lon="148.9854884">
  <ele>746.84</ele>
  <time>2026-09-01T20:00:05Z</time>
  <course>265.55</course>
  <speed>20.78</speed>
  <fix>3d</fix>
</trkpt>
<trkpt lat="-35.2854238" lon="148.9854218">
  <ele>746.92</ele>
  <time>2026-09-01T20:00:05Z</time>
  <course>272.2</course>
  <speed>21.22490989380167</speed>
  <fix>3d</fix>
</trkpt>
<trkpt lat="-35.2854251" lon="148.9854424">
  <ele>746.91</ele>
  <time>2026-09-01T20:00:05Z</time>
  <course>270.95</course>
  <speed>21.1</speed>
  <fix>3d</fix>
</trkpt>
<trkpt lat="-35.2854222" lon="148.9853986">
  <ele>746.94</ele>
  <time>2026-09-01T20:00:05Z</time>
  <course>274.85</course>
  <speed>21.38509995300466</speed>
  <fix>3d</fix>
</trkpt>
<trkpt lat="-35.2854251" lon="148.9854424">
  <ele>746.91</ele>
  <time>2026-09-01T20:00:05Z</time>
  <course>270.95</course>
  <speed>21.1</speed>
  <fix>3d</fix>
</trkpt>
<trkpt lat="-35.2854196" lon="148.9853751">
  <ele>746.96</ele>
  <time>2026-09-01T20:00:05Z</time>
  <course>277.6</course>
  <speed>21.547979023565063</speed>
  <fix>3d</fix>
</trkpt>
<trkpt lat="-35.2854227" lon="148.9853958">
  <ele>746.96</ele>
  <time>2026-09-01T20:00:05Z</time>
  <course>276.42</course>
  <speed>21.41</speed>
  <fix>3d</fix>
</trkpt>
<trkpt lat="-35.2854161" lon="148.9853516">
  <ele>746.97</ele>
  <time>2026-09-01T20:00:05Z</time>
  <course>280.38</course>
  <speed>21.70167965849648</speed>
  <fix>3d</fix>
</trkpt>
<trkpt lat="-35.2854227" lon="148.9853958">
  <ele>746.96</ele>
  <time>2026-09-01T20:00:05Z</time>
  <course>276.42</course>
  <speed>21.41</speed>
  <fix>3d</fix>
</trkpt>
<trkpt lat="-35.2854118" lon="148.9853282">
  <ele>746.98</ele>
  <time>2026-09-01T20:00:05Z</time>
  <course>283.12</course>
  <speed>21.861484396078872</speed>
  <fix>3d</fix>
</trkpt>
<trkpt lat="-35.2854165" lon="148.9853489">
  <ele>747.0</ele>
  <time>2026-09-01T20:00:05Z</time>
  <course>281.96</course>
  <speed>21.72</speed>
  <fix>3d</fix>
</trkpt>
<trkpt lat="-35.2854063" lon="148.9853048">
  <ele>746.99</ele>
  <time>2026-09-01T20:00:05Z</time>
  <course>285.88</course>
  <speed>22.027766568583388</speed>
  <fix>3d</fix>
</trkpt>
<trkpt lat="-35.2854165" lon="148.9853489">
  <ele>747.0</ele>
  <time>2026-09-01T20:00:05Z</time>
  <course>281.96</course>
  <speed>21.72</speed>
  <fix>3d</fix>
</trkpt>
<trkpt lat="-35.2853999" lon="148.9852817">
  <ele>746.98</ele>
  <time>2026-09-01T20:00:05Z</time>
  <course>288.66</course>
  <speed>22.177071492872994</speed>
  <fix>3d</fix>
</trkpt>
<trkpt lat="-35.2854065" lon="148.9853025">
  <ele>747.01</ele>
  <time>2026-09-01T20:00:05Z</time>
  <course>287.55</course>
  <speed>22.03</speed>
  <fix>3d</fix>
</trkpt>
<trkpt lat="-35.2853926" lon="148.9852589">
  <ele>746.98</ele>
  <time>2026-09-01T20:00:05Z</time>
  <course>291.45</course>
  <speed>22.332599490431026</speed>
  <fix>3d</fix>
</trkpt>
<trkpt lat="-35.2854065" lon="148.9853025">
  <ele>747.01</ele>
  <time>2026-09-01T20:00:05Z</time>
  <course>287.55</course>
  <speed>22.03</speed>
  <fix>3d</fix>
</trkpt>
<trkpt lat="-35.2853843" lon="148.9852364">
  <ele>746.96</ele>
  <time>2026-09-01T20:00:05Z</time>
  <course>294.2</course>
  <speed>22.48258437101927</speed>
  <fix>3d</fix>
</trkpt>
<trkpt lat="-35.2853926" lon="148.9852567">
  <ele>747.01</ele>
  <time>2026-09-01T20:00:05Z</time>
  <course>293.16</course>
  <speed>22.32</speed>
  <fix>3d</fix>
</trkpt>
<trkpt lat="-35.285375" lon="148.9852143">
  <ele>746.94</ele>
  <time>2026-09-01T20:00:05Z</time>
  <course>296.96</course>
  <speed>22.632227022544644</speed>
  <fix>3d</fix>
</trkpt>
<trkpt lat="-35.2853926" lon="148.9852567">
  <ele>747.01</ele>
  <time>2026-09-01T20:00:05Z</time>
  <course>293.16</course>
  <speed>22.32</speed>
  <fix>3d</fix>
</trkpt>
<trkpt lat="-35.2853648" lon="148.9851927">
  <ele>746.92</ele>
  <time>2026-09-01T20:00:05Z</time>
  <course>299.72</course>
  <speed>22.77793888831911</speed>
  <fix>3d</fix>
</trkpt>
<trkpt lat="-35.285375" lon="148.9852123">
  <ele>746.98</ele>
  <time>2026-09-01T20:00:05Z</time>
  <course>298.78</course>
  <speed>22.62</speed>
  <fix>3d</fix>
</trkpt>
<trkpt lat="-35.2853537" lon="148.9851715">
  <ele>746.89</ele>
  <time>2026-09-01T20:00:05Z</time>
  <course>302.5</course>
  <speed>22.930078499647575</speed>
  <fix>3d</fix>
</trkpt>
<trkpt lat="-35.285375" lon="148.9852123">
  <ele>746.98</ele>
  <time>2026-09-01T20:00:05Z</time>
  <course>298.78</course>
  <speed>22.62</speed>
  <fix>3d</fix>
</trkpt>
<trkpt lat="-35.2853417" lon="148.9851509">
  <ele>746.85</ele>
  <time>2026-09-01T20:00:05Z</time>
  <course>305.22</course>
  <speed>23.070262243849765</speed>
  <fix>3d</fix>
</trkpt>
<trkpt lat="-35.2853535" lon="148.9851696">
  <ele>746.93</ele>
  <time>2026-09-01T20:00:05Z</time>
  <course>304.37</course>
  <speed>22.9</speed>
  <fix>3d</fix>
</trkpt>
<trkpt lat="-35.2853289" lon="148.985131">
  <ele>746.81</ele>
  <time>2026-09-01T20:00:05Z</time>
  <course>307.93</course>
  <speed>23.21439639534054</speed>
  <fix>3d</fix>
</trkpt>
<trkpt lat="-35.2853535" lon="148.9851696">
  <ele>746.93</ele>
  <time>2026-09-01T20:00:05Z</time>
  <course>304.37</course>
  <speed>22.9</speed>
  <fix>3d</fix>
</trkpt>
<trkpt lat="-35.2853151" lon="148.9851117">
  <ele>746.77</ele>
  <time>2026-09-01T20:00:05Z</time>
  <course>310.61</course>
  <speed>23.340201370168167</speed>
  <fix>3d</fix>
</trkpt>
<trkpt lat="-35.2853285" lon="148.9851292">
  <ele>746.85</ele>
  <time>2026-09-01T20:00:05Z</time>
  <course>309.93</course>
  <speed>23.18</speed>
  <fix>3d</fix>
</trkpt>
<trkpt lat="-35.2853006" lon="148.9850931">
  <ele>746.72</ele>
  <time>2026-09-01T20:00:05Z</time>
  <course>313.35</course>
  <speed>23.469343834031662</speed>
  <fix>3d</fix>
</trkpt>
<trkpt lat="-35.2853285" lon="148.9851292">
  <ele>746.85</ele>
  <time>2026-09-01T20:00:05Z</time>
  <course>309.93</course>
  <speed>23.18</speed>
  <fix>3d</fix>
</trkpt>
<trkpt lat="-35.2852853" lon="148.9850753">
  <ele>746.66</ele>
  <time>2026-09-01T20:00:05Z</time>
  <course>316.03</course>
  <speed>23.60183255596904</speed>
  <fix>3d</fix>
</trkpt>
<trkpt lat="-35.2853" lon="148.9850914">
  <ele>746.75</ele>
  <time>2026-09-01T20:00:05Z</time>
  <course>315.43</course>
  <speed>23.44</speed>
  <fix>3d</fix>
</trkpt>
<trkpt lat="-35.2852692" lon="148.9850584">
  <ele>746.6</ele>
  <time>2026-09-01T20:00:05Z</time>
  <course>318.67</course>
  <speed>23.722499868268518</speed>
  <fix>3d</fix>
</trkpt>
<trkpt lat="-35.2853" lon="148.9850914">
  <ele>746.75</ele>
  <time>2026-09-01T20:00:05Z</time>
  <course>315.43</course>
  <speed>23.44</speed>
  <fix>3d</fix>
</trkpt>
<trkpt lat="-35.2852524" lon="148.9850423">
  <ele>746.54</ele>
  <time>2026-09-01T20:00:05Z</time>
  <course>321.27</course>
  <speed>23.83828223677201</speed>
  <fix>3d</fix>
</trkpt>
<trkpt lat="-35.2852685" lon="148.9850568">
  <ele>746.64</ele>
  <time>2026-09-01T20:00:05Z</time>
  <course>320.82</course>
  <speed>23.69</speed>
  <fix>3d</fix>
</trkpt>
<trkpt lat="-35.2852349" lon="148.985027">
  <ele>746.47</ele>
  <time>2026-09-01T20:00:05Z</time>
  <course>323.85</course>
  <speed>23.95227964098616</speed>
  <fix>3d</fix>
</trkpt>
<trkpt lat="-35.2852685" lon="148.9850568">
  <ele>746.64</ele>
  <time>2026-09-01T20:00:05Z</time>
  <course>320.82</course>
  <speed>23.69</speed>
  <fix>3d</fix>
</trkpt>
<trkpt lat="-35.2852168" lon="148.9850127">
  <ele>746.4</ele>
  <time>2026-09-01T20:00:05Z</time>
  <course>326.36</course>
  <speed>24.06207389233106</speed>
  <fix>3d</fix>
</trkpt>
<trkpt lat="-35.2852341" lon="148.9850257">
  <ele>746.51</ele>
  <time>2026-09-01T20:00:05Z</time>
  <course>326.07</course>
  <speed>23.92</speed>
  <fix>3d</fix>
</trkpt>
<trkpt lat="-35.2851981" lon="148.9849993">
  <ele>746.33</ele>
  <time>2026-09-01T20:00:05Z</time>
  <course>328.76</course>
  <speed>24.15689756570574</speed>
  <fix>3d</fix>
</trkpt>
<trkpt lat="-35.2852341" lon="148.9850257">
  <ele>746.51</ele>
  <time>2026-09-01T20:00:05Z</time>
  <course>326.07</course>
  <speed>23.92</speed>
  <fix>3d</fix>
</trkpt>
<trkpt lat="-35.2851789" lon="148.9849869">
  <ele>746.25</ele>
  <time>2026-09-01T20:00:05Z</time>
  <course>331.09</course>
  <speed>24.252399881248866</speed>
  <fix>3d</fix>
</trkpt>
<trkpt lat="-35.2851973" lon="148.9849982">
  <ele>746.36</ele>
  <time>2026-09-01T20:00:05Z</time>
  <course>331.13</course>
  <speed>24.13</speed>
  <fix>3d</fix>
</trkpt>
<trkpt lat="-35.2851592" lon="148.9849755">
  <ele>746.17</ele>
  <time>2026-09-01T20:00:05Z</time>
  <course>333.34</course>
  <speed>24.3542460363691</speed>
  <fix>3d</fix>
</trkpt>
<trkpt lat="-35.2851973" lon="148.9849982">
  <ele>746.36</ele>
  <time>2026-09-01T20:00:05Z</time>
  <course>331.13</course>
  <speed>24.13</speed>
  <fix>3d</fix>
</trkpt>
<trkpt lat="-35.2851391" lon="148.9849649">
  <ele>746.08</ele>
  <time>2026-09-01T20:00:05Z</time>
  <course>335.54</course>
  <speed>24.44124587659148</speed>
  <fix>3d</fix>
</trkpt>
<trkpt lat="-35.2851583" lon="148.9849744">
  <ele>746.2</ele>
  <time>2026-09-01T20:00:05Z</time>
  <course>335.92</course>
  <speed>24.32</speed>
  <fix>3d</fix>
</trkpt>
<trkpt lat="-35.2851186" lon="148.9849553">
  <ele>745.99</ele>
  <time>2026-09-01T20:00:05Z</time>
  <course>337.65</course>
  <speed>24.52633278743481</speed>
  <fix>3d</fix>
</trkpt>
<trkpt lat="-35.2851583" lon="148.9849744">
  <ele>746.2</ele>
  <time>2026-09-01T20:00:05Z</time>
  <course>335.92</course>
  <speed>24.32</speed>
  <fix>3d</fix>
</trkpt>
<trkpt lat="-35.2850975" lon="148.9849466">
  <ele>745.9</ele>
  <time>2026-09-01T20:00:05Z</time>
  <course>339.71</course>
  <speed>24.601953174494092</speed>
  <fix>3d</fix>
</trkpt>
<trkpt lat="-35.2851176" lon="148.9849544">
  <ele>746.02</ele>
  <time>2026-09-01T20:00:05Z</time>
  <course>340.38</course>
  <speed>24.5</speed>
  <fix>3d</fix>
</trkpt>
<trkpt lat="-35.2850763" lon="148.9849388">
  <ele>745.8</ele>
  <time>2026-09-01T20:00:05Z</time>
  <course>341.64</course>
  <speed>24.677313468041856</speed>
  <fix>3d</fix>
</trkpt>
<trkpt lat="-35.2851176" lon="148.9849544">
  <ele>746.02</ele>
  <time>2026-09-01T20:00:05Z</time>
  <course>340.38</course>
  <speed>24.5</speed>
  <fix>3d</fix>
</trkpt>
<trkpt lat="-35.2850548" lon="148.9849319">
  <ele>745.7</ele>
  <time>2026-09-01T20:00:05Z</time>
  <course>343.52</course>
  <speed>24.751262594057703</speed>
  <fix>3d</fix>
</trkpt>
<trkpt lat="-35.2850755" lon="148.9849382">
  <ele>745.83</ele>
  <time>2026-09-01T20:00:05Z</time>
  <course>344.5</course>
  <speed>24.66</speed>
  <fix>3d</fix>
</trkpt>
<trkpt lat="-35.2850332" lon="148.9849259">
  <ele>745.6</ele>
  <time>2026-09-01T20:00:05Z</time>
  <course>345.26</course>
  <speed>24.817578447543994</speed>
  <fix>3d</fix>
</trkpt>
<trkpt lat="-35.2850755" lon="148.9849382">
  <ele>745.83</ele>
  <time>2026-09-01T20:00:05Z</time>
  <course>344.5</course>
  <speed>24.66</speed>
  <fix>3d</fix>
</trkpt>
<trkpt lat="-35.2850114" lon="148.9849207">
  <ele>745.49</ele>
  <time>2026-09-01T20:00:05Z</time>
  <course>346.91</course>
  <speed>24.865236777477104</speed>
  <fix>3d</fix>
</trkpt>
<trkpt lat="-35.2850324" lon="148.9849254">
  <ele>745.63</ele>
  <time>2026-09-01T20:00:05Z</time>
  <course>348.26</course>
  <speed>24.79</speed>
  <fix>3d</fix>
</trkpt>
<trkpt lat="-35.2849895" lon="148.9849163">
  <ele>745.38</ele>
  <time>2026-09-01T20:00:05Z</time>
  <course>348.47</course>
  <speed>24.921705399109428</speed>
  <fix>3d</fix>
</trkpt>
<trkpt lat="-35.2850324" lon="148.9849254">
  <ele>745.63</ele>
  <time>2026-09-01T20:00:05Z</time>
  <course>348.26</course>
  <speed>24.79</speed>
  <fix>3d</fix>
</trkpt>
<trkpt lat="-35.2849674" lon="148.9849126">
  <ele>745.27</ele>
  <time>2026-09-01T20:00:05Z</time>
  <course>349.97</course>
  <speed>24.97206839651053</speed>
  <fix>3d</fix>
</trkpt>
<trkpt lat="-35.2849884" lon="148.9849159">
  <ele>745.41</ele>
  <time>2026-09-01T20:00:05Z</time>
  <course>351.64</course>
  <speed>24.92</speed>
  <fix>3d</fix>
</trkpt>
<trkpt lat="-35.2849452" lon="148.9849097">
  <ele>745.16</ele>
  <time>2026-09-01T20:00:05Z</time>
  <course>351.35</course>
  <speed>25.023439012254087</speed>
  <fix>3d</fix>
</trkpt>
<trkpt lat="-35.2849884" lon="148.9849159">
  <ele>745.41</ele>
  <time>2026-09-01T20:00:05Z</time>
  <course>351.64</course>
  <speed>24.92</speed>
  <fix>3d</fix>
</trkpt>
<trkpt lat="-35.2849229" lon="148.9849074">
  <ele>745.04</ele>
  <time>2026-09-01T20:00:05Z</time>
  <course>352.69</course>
  <speed>25.064716236175503</speed>
  <fix>3d</fix>
</trkpt>
<trkpt lat="-35.2849438" lon="148.9849094">
  <ele>745.18</ele>
  <time>2026-09-01T20:00:05Z</time>
  <course>354.64</course>
  <speed>25.03</speed>
  <fix>3d</fix>
</trkpt>
<trkpt lat="-35.2849006" lon="148.9849057">
  <ele>744.92</ele>
  <time>2026-09-01T20:00:05Z</time>
  <course>353.98</course>
  <speed>25.111130998025555</speed>
  <fix>3d</fix>
</trkpt>
<trkpt lat="-35.2849438" lon="148.9849094">
  <ele>745.18</ele>
  <time>2026-09-01T20:00:05Z</time>
  <course>354.64</course>
  <speed>25.03</speed>
  <fix>3d</fix>
</trkpt>
<trkpt lat="-35.2848781" lon="148.9849046">
  <ele>744.8</ele>
  <time>2026-09-01T20:00:05Z</time>
  <course>355.2</course>
  <speed>25.15088865229219</speed>
  <fix>3d</fix>
</trkpt>
<trkpt lat="-35.2848987" lon="148.9849056">
  <ele>744.94</ele>
  <time>2026-09-01T20:00:05Z</time>
  <course>357.26</course>
  <speed>25.13</speed>
  <fix>3d</fix>
</trkpt>
<trkpt lat="-35.2848556" lon="148.9849041">
  <ele>744.67</ele>
  <time>2026-09-01T20:00:05Z</time>
  <course>356.31</course>
  <speed>25.191341766567337</speed>
  <fix>3d</fix>
</trkpt>
<trkpt lat="-35.2848987" lon="148.9849056">
  <ele>744.94</ele>
  <time>2026-09-01T20:00:05Z</time>
  <course>357.26</course>
  <speed>25.13</speed>
  <fix>3d</fix>
</trkpt>
<trkpt lat="-35.284833" lon="148.984904">
  <ele>744.54</ele>
  <time>2026-09-01T20:00:05Z</time>
  <course>357.26</course>
  <speed>25.23050732743993</speed>
  <fix>3d</fix>
</trkpt>
<trkpt lat="-35.2848535" lon="148.984904">
  <ele>744.69</ele>
  <time>2026-09-01T20:00:05Z</time>
  <course>359.53</course>
  <speed>25.23</speed>
  <fix>3d</fix>
</trkpt>
<trkpt lat="-35.2848103" lon="148.9849044">
  <ele>744.4</ele>
  <time>2026-09-01T20:00:05Z</time>
  <course>358.13</course>
  <speed>25.275349651389593</speed>
  <fix>3d</fix>
</trkpt>
<trkpt lat="-35.2848535" lon="148.984904">
  <ele>744.69</ele>
  <time>2026-09-01T20:00:05Z</time>
  <course>359.53</course>
  <speed>25.23</speed>
  <fix>3d</fix>
</trkpt>
<trkpt lat="-35.2847875" lon="148.9849052">
  <ele>744.25</ele>
  <time>2026-09-01T20:00:05Z</time>
  <course>359.08</course>
  <speed>25.323605588462318</speed>
  <fix>3d</fix>
</trkpt>
<trkpt lat="-35.2848081" lon="148.9849044">
  <ele>744.42</ele>
  <time>2026-09-01T20:00:05Z</time>
  <course>1.32</course>
  <speed>25.32</speed>
  <fix>3d</fix>
</trkpt>
<trkpt lat="-35.2847646" lon="148.9849063">
  <ele>744.1</ele>
  <time>2026-09-01T20:00:05Z</time>
  <course>359.98</course>
  <speed>25.373854653954336</speed>
  <fix>3d</fix>
</trkpt>
<trkpt lat="-35.2848081" lon="148.9849044">
  <ele>744.42</ele>
  <time>2026-09-01T20:00:05Z</time>
  <course>1.32</course>
  <speed>25.32</speed>
  <fix>3d</fix>
</trkpt>
<trkpt lat="-35.2847417" lon="148.9849076">
  <ele>743.94</ele>
  <time>2026-09-01T20:00:05Z</time>
  <course>0.83</course>
  <speed>25.42586478371975</speed>
  <fix>3d</fix>
</trkpt>
<trkpt lat="-35.2847625" lon="148.9849064">
  <ele>744.13</ele>
  <time>2026-09-01T20:00:05Z</time>
  <course>2.65</course>
  <speed>25.41</speed>
  <fix>3d</fix>
</trkpt>
<trkpt lat="-35.2847187" lon="148.9849092">
  <ele>743.77</ele>
  <time>2026-09-01T20:00:05Z</time>
  <course>1.61</course>
  <speed>25.489017242726327</speed>
  <fix>3d</fix>
</trkpt>
<trkpt lat="-35.2847625" lon="148.9849064">
  <ele>744.13</ele>
  <time>2026-09-01T20:00:05Z</time>
  <course>2.65</course>
  <speed>25.41</speed>
  <fix>3d</fix>
</trkpt>
<trkpt lat="-35.2846958" lon="148.9849111">
  <ele>743.61</ele>
  <time>2026-09-01T20:00:05Z</time>
  <course>2.25</course>
  <speed>25.55347530180582</speed>
  <fix>3d</fix>
</trkpt>
<trkpt lat="-35.2847169" lon="148.9849095">
  <ele>743.81</ele>
  <time>2026-09-01T20:00:05Z</time>
  <course>3.73</course>
  <speed>25.51</speed>
  <fix>3d</fix>
</trkpt>
<trkpt lat="-35.2846727" lon="148.9849132">
  <ele>743.43</ele>
  <time>2026-09-01T20:00:05Z</time>
  <course>2.81</course>
  <speed>25.61975800041835</speed>
  <fix>3d</fix>
</trkpt>
<trkpt lat="-35.2847169" lon="148.9849095">
  <ele>743.81</ele>
  <time>2026-09-01T20:00:05Z</time>
  <course>3.73</course>
  <speed>25.51</speed>
  <fix>3d</fix>
</trkpt>
<trkpt lat="-35.2846496" lon="148.9849156">
  <ele>743.26</ele>
  <time>2026-09-01T20:00:05Z</time>
  <course>3.37</course>
  <speed>25.686981138312067</speed>
  <fix>3d</fix>
</trkpt>
<trkpt lat="-35.2846711" lon="148.9849137">
  <ele>743.49</ele>
  <time>2026-09-01T20:00:05Z</time>
  <course>4.69</course>
  <speed>25.64</speed>
  <fix>3d</fix>
</trkpt>
<trkpt lat="-35.2846266" lon="148.9849182">
  <ele>743.09</ele>
  <time>2026-09-01T20:00:05Z</time>
  <course>3.85</course>
  <speed>25.76579321503609</speed>
  <fix>3d</fix>
</trkpt>
<trkpt lat="-35.2846711" lon="148.9849137">
  <ele>743.49</ele>
  <time>2026-09-01T20:00:05Z</time>
  <course>4.69</course>
  <speed>25.64</speed>
  <fix>3d</fix>
</trkpt>
<trkpt lat="-35.2846035" lon="148.984921">
  <ele>742.93</ele>
  <time>2026-09-01T20:00:05Z</time>
  <course>4.3</course>
  <speed>25.83421955469141</speed>
  <fix>3d</fix>
</trkpt>
<trkpt lat="-35.2846251" lon="148.9849187">
  <ele>743.16</ele>
  <time>2026-09-01T20:00:05Z</time>
  <course>5.58</course>
  <speed>25.77</speed>
  <fix>3d</fix>
</trkpt>
<trkpt lat="-35.2845804" lon="148.9849241">
  <ele>742.77</ele>
  <time>2026-09-01T20:00:05Z</time>
  <course>4.73</course>
  <speed>25.90286856701396</speed>
  <fix>3d</fix>
</trkpt>
<trkpt lat="-35.2846251" lon="148.9849187">
  <ele>743.16</ele>
  <time>2026-09-01T20:00:05Z</time>
  <course>5.58</course>
  <speed>25.77</speed>
  <fix>3d</fix>
</trkpt>
<trkpt lat="-35.2845569" lon="148.9849273">
  <ele>742.62</ele>
  <time>2026-09-01T20:00:05Z</time>
  <course>5.09</course>
  <speed>25.980319474556122</speed>
  <fix>3d</fix>
</trkpt>
<trkpt lat="-35.284579" lon="148.9849246">
  <ele>742.85</ele>
  <time>2026-09-01T20:00:05Z</time>
  <course>6.36</course>
  <speed>25.91</speed>
  <fix>3d</fix>
</trkpt>
<trkpt lat="-35.2845338" lon="148.9849307">
  <ele>742.48</ele>
  <time>2026-09-01T20:00:05Z</time>
  <course>5.5</course>
  <speed>26.046337554443234</speed>
  <fix>3d</fix>
</trkpt>
<trkpt lat="-35.284579" lon="148.9849246">
  <ele>742.85</ele>
  <time>2026-09-01T20:00:05Z</time>
  <course>6.36</course>
  <speed>25.91</speed>
  <fix>3d</fix>
</trkpt>
<trkpt lat="-35.2845106" lon="148.9849343">
  <ele>742.34</ele>
  <time>2026-09-01T20:00:05Z</time>
  <course>5.82</course>
  <speed>26.121715104487304</speed>
  <fix>3d</fix>
</trkpt>
<trkpt lat="-35.2845326" lon="148.9849312">
  <ele>742.56</ele>
  <time>2026-09-01T20:00:05Z</time>
  <course>6.99</course>
  <speed>26.06</speed>
  <fix>3d</fix>
</trkpt>
<trkpt lat="-35.2844872" lon="148.9849379">
  <ele>742.2</ele>
  <time>2026-09-01T20:00:05Z</time>
  <course>6.07</course>
  <speed>26.19509305194391</speed>
  <fix>3d</fix>
</trkpt>
<trkpt lat="-35.2845326" lon="148.9849312">
  <ele>742.56</ele>
  <time>2026-09-01T20:00:05Z</time>
  <course>6.99</course>
  <speed>26.06</speed>
  <fix>3d</fix>
</trkpt>
<trkpt lat="-35.2844639" lon="148.9849417">
  <ele>742.08</ele>
  <time>2026-09-01T20:00:05Z</time>
  <course>6.36</course>
  <speed>26.23649557391383</speed>
  <fix>3d</fix>
</trkpt>
<trkpt lat="-35.284486" lon="148.9849386">
  <ele>742.29</ele>
  <time>2026-09-01T20:00:05Z</time>
  <course>7.46</course>
  <speed>26.2</speed>
  <fix>3d</fix>
</trkpt>
<trkpt lat="-35.2844404" lon="148.9849456">
  <ele>741.96</ele>
  <time>2026-09-01T20:00:05Z</time>
  <course>6.58</course>
  <speed>26.23719497202397</speed>
  <fix>3d</fix>
</trkpt>
<trkpt lat="-35.284486" lon="148.9849386">
  <ele>742.29</ele>
  <time>2026-09-01T20:00:05Z</time>
  <course>7.46</course>
  <speed>26.2</speed>
  <fix>3d</fix>
</trkpt>
<trkpt lat="-35.284417" lon="148.9849496">
  <ele>741.85</ele>
  <time>2026-09-01T20:00:05Z</time>
  <course>6.77</course>
  <speed>26.18587405453559</speed>
  <fix>3d</fix>
</trkpt>
<trkpt lat="-35.2844392" lon="148.9849463">
  <ele>742.06</ele>
  <time>2026-09-01T20:00:05Z</time>
  <course>7.81</course>
  <speed>26.23</speed>
  <fix>3d</fix>
</trkpt>
<trkpt lat="-35.2843937" lon="148.9849536">
  <ele>741.74</ele>
  <time>2026-09-01T20:00:05Z</time>
  <course>6.95</course>
  <speed>26.092336039534676</speed>
  <fix>3d</fix>
</trkpt>
<trkpt lat="-35.2844392" lon="148.9849463">
  <ele>742.06</ele>
  <time>2026-09-01T20:00:05Z</time>
  <course>7.81</course>
  <speed>26.23</speed>
  <fix>3d</fix>
</trkpt>
<trkpt lat="-35.2843705" lon="148.9849576">
  <ele>741.64</ele>
  <time>2026-09-01T20:00:05Z</time>
  <course>7.1</course>
  <speed>25.997501803057926</speed>
  <fix>3d</fix>
</trkpt>
<trkpt lat="-35.2843926" lon="148.9849542">
  <ele>741.85</ele>
  <time>2026-09-01T20:00:05Z</time>
  <course>8.05</course>
  <speed>26.11</speed>
  <fix>3d</fix>
</trkpt>
<trkpt lat="-35.2843475" lon="148.9849617">
  <ele>741.54</ele>
  <time>2026-09-01T20:00:05Z</time>
  <course>7.23</course>
  <speed>25.911221507292936</speed>
  <fix>3d</fix>
</trkpt>
<trkpt lat="-35.2843926" lon="148.9849542">
  <ele>741.85</ele>
  <time>2026-09-01T20:00:05Z</time>
  <course>8.05</course>
  <speed>26.11</speed>
  <fix>3d</fix>
</trkpt>
<trkpt lat="-35.2843245" lon="148.9849658">
  <ele>741.44</ele>
  <time>2026-09-01T20:00:05Z</time>
  <course>7.33</course>
  <speed>25.834879523620774</speed>
  <fix>3d</fix>
</trkpt>
<trkpt lat="-35.2843463" lon="148.9849623">
  <ele>741.65</ele>
  <time>2026-09-01T20:00:05Z</time>
  <course>8.21</course>
  <speed>25.94</speed>
  <fix>3d</fix>
</trkpt>
<trkpt lat="-35.2843015" lon="148.9849699">
  <ele>741.33</ele>
  <time>2026-09-01T20:00:05Z</time>
  <course>7.35</course>
  <speed>25.776929607693777</speed>
  <fix>3d</fix>
</trkpt>
<trkpt lat="-35.2843463" lon="148.9849623">
  <ele>741.65</ele>
  <time>2026-09-01T20:00:05Z</time>
  <course>8.21</course>
  <speed>25.94</speed>
  <fix>3d</fix>
</trkpt>
<trkpt lat="-35.2842787" lon="148.984974">
  <ele>741.21</ele>
  <time>2026-09-01T20:00:05Z</time>
  <course>7.37</course>
  <speed>25.71899298184126</speed>
  <fix>3d</fix>
</trkpt>
<trkpt lat="-35.2843003" lon="148.9849706">
  <ele>741.44</ele>
  <time>2026-09-01T20:00:05Z</time>
  <course>8.31</course>
  <speed>25.81</speed>
  <fix>3d</fix>
</trkpt>
<trkpt lat="-35.2842558" lon="148.9849782">
  <ele>741.07</ele>
  <time>2026-09-01T20:00:05Z</time>
  <course>7.41</course>
  <speed>25.680858630505327</speed>
  <fix>3d</fix>
</trkpt>
<trkpt lat="-35.2843003" lon="148.9849706">
  <ele>741.44</ele>
  <time>2026-09-01T20:00:05Z</time>
  <course>8.31</course>
  <speed>25.81</speed>
  <fix>3d</fix>
</trkpt>
<trkpt lat="-35.284233" lon="148.9849823">
  <ele>740.93</ele>
  <time>2026-09-01T20:00:05Z</time>
  <course>7.44</course>
  <speed>25.661069736080762</speed>
  <fix>3d</fix>
</trkpt>
<trkpt lat="-35.2842545" lon="148.9849788">
  <ele>741.19</ele>
  <time>2026-09-01T20:00:05Z</time>
  <course>8.36</course>
  <speed>25.72</speed>
  <fix>3d</fix>
</trkpt>
<trkpt lat="-35.2842102" lon="148.9849864">
  <ele>740.78</ele>
  <time>2026-09-01T20:00:05Z</time>
  <course>7.49</course>
  <speed>25.651175411664862</speed>
  <fix>3d</fix>
</trkpt>
<trkpt lat="-35.2842545" lon="148.9849788">
  <ele>741.19</ele>
  <time>2026-09-01T20:00:05Z</time>
  <course>8.36</course>
  <speed>25.72</speed>
  <fix>3d</fix>
</trkpt>
<trkpt lat="-35.2841874" lon="148.9849906">
  <ele>740.61</ele>
  <time>2026-09-01T20:00:05Z</time>
  <course>7.55</course>
  <speed>25.65262754573106</speed>
  <fix>3d</fix>
</trkpt>
<trkpt lat="-35.2842088" lon="148.984987">
  <ele>740.9</ele>
  <time>2026-09-01T20:00:05Z</time>
  <course>8.36</course>
  <speed>25.69</speed>
  <fix>3d</fix>
</trkpt>
<trkpt lat="-35.2841646" lon="148.9849947">
  <ele>740.45</ele>
  <time>2026-09-01T20:00:05Z</time>
  <course>7.57</course>
  <speed>25.661069736080762</speed>
  <fix>3d</fix>
</trkpt>
<trkpt lat="-35.2842088" lon="148.984987">
  <ele>740.9</ele>
  <time>2026-09-01T20:00:05Z</time>
  <course>8.36</course>
  <speed>25.69</speed>
  <fix>3d</fix>
</trkpt>
<trkpt lat="-35.284142" lon="148.9849988">
  <ele>740.28</ele>
  <time>2026-09-01T20:00:05Z</time>
  <course>7.58</course>
  <speed>25.69075320032482</speed>
  <fix>3d</fix>
</trkpt>
<trkpt lat="-35.2841632" lon="148.9849952">
  <ele>740.57</ele>
  <time>2026-09-01T20:00:05Z</time>
  <course>8.35</course>
  <speed>25.71</speed>
  <fix>3d</fix>
</trkpt>
<trkpt lat="-35.2841191" lon="148.9850029">
  <ele>740.11</ele>
  <time>2026-09-01T20:00:05Z</time>
  <course>7.58</course>
  <speed>25.720437399080133</speed>
  <fix>3d</fix>
</trkpt>
<trkpt lat="-35.2841632" lon="148.9849952">
  <ele>740.57</ele>
  <time>2026-09-01T20:00:05Z</time>
  <course>8.35</course>
  <speed>25.71</speed>
  <fix>3d</fix>
</trkpt>
<trkpt lat="-35.2840963" lon="148.985007">
  <ele>739.94</ele>
  <time>2026-09-01T20:00:05Z</time>
  <course>7.52</course>
  <speed>25.7585752711597</speed>
  <fix>3d</fix>
</trkpt>
<trkpt lat="-35.2841174" lon="148.9850033">
  <ele>740.24</ele>
  <time>2026-09-01T20:00:05Z</time>
  <course>8.31</course>
  <speed>25.76</speed>
  <fix>3d</fix>
</trkpt>
<trkpt lat="-35.2840733" lon="148.9850111">
  <ele>739.77</ele>
  <time>2026-09-01T20:00:05Z</time>
  <course>7.48</course>
  <speed>25.80661930590677</speed>
  <fix>3d</fix>
</trkpt>
<trkpt lat="-35.2841174" lon="148.9850033">
  <ele>740.24</ele>
  <time>2026-09-01T20:00:05Z</time>
  <course>8.31</course>
  <speed>25.76</speed>
  <fix>3d</fix>
</trkpt>
<trkpt lat="-35.2840502" lon="148.9850152">
  <ele>739.61</ele>
  <time>2026-09-01T20:00:05Z</time>
  <course>7.47</course>
  <speed>25.86457229493656</speed>
  <fix>3d</fix>
</trkpt>
<trkpt lat="-35.2840716" lon="148.9850116">
  <ele>739.91</ele>
  <time>2026-09-01T20:00:05Z</time>
  <course>8.24</course>
  <speed>25.85</speed>
  <fix>3d</fix>
</trkpt>
<trkpt lat="-35.2840271" lon="148.9850193">
  <ele>739.46</ele>
  <time>2026-09-01T20:00:05Z</time>
  <course>7.47</course>
  <speed>25.922538455946015</speed>
  <fix>3d</fix>
</trkpt>
<trkpt lat="-35.2840716" lon="148.9850116">
  <ele>739.91</ele>
  <time>2026-09-01T20:00:05Z</time>
  <course>8.24</course>
  <speed>25.85</speed>
  <fix>3d</fix>
</trkpt>
<trkpt lat="-35.2840041" lon="148.9850234">
  <ele>739.31</ele>
  <time>2026-09-01T20:00:05Z</time>
  <course>7.39</course>
  <speed>25.981932183731065</speed>
  <fix>3d</fix>
</trkpt>
<trkpt lat="-35.2840255" lon="148.9850197">
  <ele>739.6</ele>
  <time>2026-09-01T20:00:05Z</time>
  <course>8.16</course>
  <speed>25.96</speed>
  <fix>3d</fix>
</trkpt>
<trkpt lat="-35.2839809" lon="148.9850274">
  <ele>739.18</ele>
  <time>2026-09-01T20:00:05Z</time>
  <course>7.35</course>
  <speed>26.039917434584925</speed>
  <fix>3d</fix>
</trkpt>
<trkpt lat="-35.2840255" lon="148.9850197">
  <ele>739.6</ele>
  <time>2026-09-01T20:00:05Z</time>
  <course>8.16</course>
  <speed>25.96</speed>
  <fix>3d</fix>
</trkpt>
<trkpt lat="-35.2839577" lon="148.9850315">
  <ele>739.06</ele>
  <time>2026-09-01T20:00:05Z</time>
  <course>7.36</course>
  <speed>26.099319914511184</speed>
  <fix>3d</fix>
</trkpt>
<trkpt lat="-35.2839792" lon="148.9850278">
  <ele>739.33</ele>
  <time>2026-09-01T20:00:05Z</time>
  <course>8.09</course>
  <speed>26.08</speed>
  <fix>3d</fix>
</trkpt>
<trkpt lat="-35.2839345" lon="148.9850355">
  <ele>738.96</ele>
  <time>2026-09-01T20:00:05Z</time>
  <course>7.39</course>
  <speed>26.15872512184032</speed>
  <fix>3d</fix>
</trkpt>
<trkpt lat="-35.2839792" lon="148.9850278">
  <ele>739.33</ele>
  <time>2026-09-01T20:00:05Z</time>
  <course>8.09</course>
  <speed>26.08</speed>
  <fix>3d</fix>
</trkpt>
<trkpt lat="-35.283911" lon="148.9850396">
  <ele>738.86</ele>
  <time>2026-09-01T20:00:05Z</time>
  <course>7.31</course>
  <speed>26.216735113282127</speed>
  <fix>3d</fix>
</trkpt>
<trkpt lat="-35.2839326" lon="148.9850359">
  <ele>739.11</ele>
  <time>2026-09-01T20:00:05Z</time>
  <course>8.03</course>
  <speed>26.2</speed>
  <fix>3d</fix>
</trkpt>
<trkpt lat="-35.2838876" lon="148.9850436">
  <ele>738.77</ele>
  <time>2026-09-01T20:00:05Z</time>
  <course>7.3</course>
  <speed>26.274757848551143</speed>
  <fix>3d</fix>
</trkpt>
<trkpt lat="-35.2839326" lon="148.9850359">
  <ele>739.11</ele>
  <time>2026-09-01T20:00:05Z</time>
  <course>8.03</course>
  <speed>26.2</speed>
  <fix>3d</fix>
</trkpt>
<trkpt lat="-35.2838642" lon="148.9850476">
  <ele>738.69</ele>
  <time>2026-09-01T20:00:05Z</time>
  <course>7.28</course>
  <speed>26.334177412632428</speed>
  <fix>3d</fix>
</trkpt>
<trkpt lat="-35.2838859" lon="148.985044">
  <ele>738.93</ele>
  <time>2026-09-01T20:00:05Z</time>
  <course>7.97</course>
  <speed>26.32</speed>
  <fix>3d</fix>
</trkpt>
<trkpt lat="-35.2838407" lon="148.9850517">
  <ele>738.62</ele>
  <time>2026-09-01T20:00:05Z</time>
  <course>7.24</course>
  <speed>26.38231415171914</speed>
  <fix>3d</fix>
</trkpt>
<trkpt lat="-35.2838859" lon="148.985044">
  <ele>738.93</ele>
  <time>2026-09-01T20:00:05Z</time>
  <course>7.97</course>
  <speed>26.32</speed>
  <fix>3d</fix>
</trkpt>
<trkpt lat="-35.2838172" lon="148.9850557">
  <ele>738.56</ele>
  <time>2026-09-01T20:00:05Z</time>
  <course>7.19</course>
  <speed>26.43183686390335</speed>
  <fix>3d</fix>
</trkpt>
<trkpt lat="-35.283839" lon="148.985052">
  <ele>738.78</ele>
  <time>2026-09-01T20:00:05Z</time>
  <course>7.91</course>
  <speed>26.42</speed>
  <fix>3d</fix>
</trkpt>
<trkpt lat="-35.2837936" lon="148.9850597">
  <ele>738.51</ele>
  <time>2026-09-01T20:00:05Z</time>
  <course>7.13</course>
  <speed>26.470083112827584</speed>
  <fix>3d</fix>
</trkpt>
<trkpt lat="-35.283839" lon="148.985052">
  <ele>738.78</ele>
  <time>2026-09-01T20:00:05Z</time>
  <course>7.91</course>
  <speed>26.42</speed>
  <fix>3d</fix>
</trkpt>
<trkpt lat="-35.28377" lon="148.9850637">
  <ele>738.47</ele>
  <time>2026-09-01T20:00:05Z</time>
  <course>7.09</course>
  <speed>26.518244662873144</speed>
  <fix>3d</fix>
</trkpt>
<trkpt lat="-35.2837919" lon="148.9850599">
  <ele>738.67</ele>
  <time>2026-09-01T20:00:05Z</time>
  <course>7.84</course>
  <speed>26.51</speed>
  <fix>3d</fix>
</trkpt>
<trkpt lat="-35.2837464" lon="148.9850676">
  <ele>738.44</ele>
  <time>2026-09-01T20:00:05Z</time>
  <course>7.01</course>
  <speed>26.55650955980473</speed>
  <fix>3d</fix>
</trkpt>
<trkpt lat="-35.2837919" lon="148.9850599">
  <ele>738.67</ele>
  <time>2026-09-01T20:00:05Z</time>
  <course>7.84</course>
  <speed>26.51</speed>
  <fix>3d</fix>
</trkpt>
<trkpt lat="-35.2837227" lon="148.9850716">
  <ele>738.41</ele>
  <time>2026-09-01T20:00:05Z</time>
  <course>6.97</course>
  <speed>26.593431519832112</speed>
  <fix>3d</fix>
</trkpt>
<trkpt lat="-35.2837446" lon="148.9850679">
  <ele>738.6</ele>
  <time>2026-09-01T20:00:05Z</time>
  <course>7.77</course>
  <speed>26.59</speed>
  <fix>3d</fix>
</trkpt>
<trkpt lat="-35.283699" lon="148.9850756">
  <ele>738.38</ele>
  <time>2026-09-01T20:00:05Z</time>
  <course>6.97</course>
  <speed>26.63171980928006</speed>
  <fix>3d</fix>
</trkpt>
<trkpt lat="-35.2837446" lon="148.9850679">
  <ele>738.6</ele>
  <time>2026-09-01T20:00:05Z</time>
  <course>7.77</course>
  <speed>26.59</speed>
  <fix>3d</fix>
</trkpt>
<trkpt lat="-35.2836753" lon="148.9850795">
  <ele>738.36</ele>
  <time>2026-09-01T20:00:05Z</time>
  <course>6.97</course>
  <speed>26.660106901511103</speed>
  <fix>3d</fix>
</trkpt>
<trkpt lat="-35.2836972" lon="148.9850758">
  <ele>738.54</ele>
  <time>2026-09-01T20:00:05Z</time>
  <course>7.69</course>
  <speed>26.66</speed>
  <fix>3d</fix>
</trkpt>
<trkpt lat="-35.2836517" lon="148.9850834">
  <ele>738.35</ele>
  <time>2026-09-01T20:00:05Z</time>
  <course>6.94</course>
  <speed>26.688501269273253</speed>
  <fix>3d</fix>
</trkpt>
<trkpt lat="-35.2836972" lon="148.9850758">
  <ele>738.54</ele>
  <time>2026-09-01T20:00:05Z</time>
  <course>7.69</course>
  <speed>26.66</speed>
  <fix>3d</fix>
</trkpt>
<trkpt lat="-35.2836279" lon="148.9850873">
  <ele>738.33</ele>
  <time>2026-09-01T20:00:05Z</time>
  <course>6.9</course>
  <speed>26.716902889369493</speed>
  <fix>3d</fix>
</trkpt>
<trkpt lat="-35.2836497" lon="148.9850837">
  <ele>738.5</ele>
  <time>2026-09-01T20:00:05Z</time>
  <course>7.63</course>
  <speed>26.72</speed>
  <fix>3d</fix>
</trkpt>
<trkpt lat="-35.2836041" lon="148.9850912">
  <ele>738.32</ele>
  <time>2026-09-01T20:00:05Z</time>
  <course>6.82</course>
  <speed>26.735399753884362</speed>
  <fix>3d</fix>
</trkpt>
<trkpt lat="-35.2836497" lon="148.9850837">
  <ele>738.5</ele>
  <time>2026-09-01T20:00:05Z</time>
  <course>7.63</course>
  <speed>26.72</speed>
  <fix>3d</fix>
</trkpt>
<trkpt lat="-35.2835803" lon="148.9850951">
  <ele>738.31</ele>
  <time>2026-09-01T20:00:05Z</time>
  <course>6.79</course>
  <speed>26.763815124155972</speed>
  <fix>3d</fix>
</trkpt>
<trkpt lat="-35.283602" lon="148.9850914">
  <ele>738.47</ele>
  <time>2026-09-01T20:00:05Z</time>
  <course>7.56</course>
  <speed>26.77</speed>
  <fix>3d</fix>
</trkpt>
<trkpt lat="-35.2835562" lon="148.985099">
  <ele>738.3</ele>
  <time>2026-09-01T20:00:05Z</time>
  <course>6.79</course>
  <speed>26.781011930097037</speed>
  <fix>3d</fix>
</trkpt>
<trkpt lat="-35.283602" lon="148.9850914">
  <ele>738.47</ele>
  <time>2026-09-01T20:00:05Z</time>
  <course>7.56</course>
  <speed>26.77</speed>
  <fix>3d</fix>
</trkpt>
<trkpt lat="-35.2835323" lon="148.9851028">
  <ele>738.3</ele>
  <time>2026-09-01T20:00:05Z</time>
  <course>6.77</course>
  <speed>26.799531712326615</speed>
  <fix>3d</fix>
</trkpt>
<trkpt lat="-35.2835544" lon="148.9850991">
  <ele>738.45</ele>
  <time>2026-09-01T20:00:05Z</time>
  <course>7.5</course>
  <speed>26.81</speed>
  <fix>3d</fix>
</trkpt>
<trkpt lat="-35.2835084" lon="148.9851067">
  <ele>738.3</ele>
  <time>2026-09-01T20:00:05Z</time>
  <course>6.71</course>
  <speed>26.818057349480032</speed>
  <fix>3d</fix>
</trkpt>
<trkpt lat="-35.2835544" lon="148.9850991">
  <ele>738.45</ele>
  <time>2026-09-01T20:00:05Z</time>
  <course>7.5</course>
  <speed>26.81</speed>
  <fix>3d</fix>
</trkpt>
<trkpt lat="-35.2834845" lon="148.9851105">
  <ele>738.29</ele>
  <time>2026-09-01T20:00:05Z</time>
  <course>6.7</course>
  <speed>26.826673293571083</speed>
  <fix>3d</fix>
</trkpt>
<trkpt lat="-35.2835065" lon="148.9851068">
  <ele>738.44</ele>
  <time>2026-09-01T20:00:05Z</time>
  <course>7.44</course>
  <speed>26.84</speed>
  <fix>3d</fix>
</trkpt>
<trkpt lat="-35.2834605" lon="148.9851143">
  <ele>738.29</ele>
  <time>2026-09-01T20:00:05Z</time>
  <course>6.68</course>
  <speed>26.835293924233437</speed>
  <fix>3d</fix>
</trkpt>
<trkpt lat="-35.2835065" lon="148.9851068">
  <ele>738.44</ele>
  <time>2026-09-01T20:00:05Z</time>
  <course>7.44</course>
  <speed>26.84</speed>
  <fix>3d</fix>
</trkpt>
<trkpt lat="-35.2834365" lon="148.9851181">
  <ele>738.29</ele>
  <time>2026-09-01T20:00:05Z</time>
  <course>6.58</course>
  <speed>26.845210001041156</speed>
  <fix>3d</fix>
</trkpt>
<trkpt lat="-35.2834586" lon="148.9851145">
  <ele>738.43</ele>
  <time>2026-09-01T20:00:05Z</time>
  <course>7.4</course>
  <speed>26.86</speed>
  <fix>3d</fix>
</trkpt>
<trkpt lat="-35.2834125" lon="148.9851219">
  <ele>738.29</ele>
  <time>2026-09-01T20:00:05Z</time>
  <course>6.53</course>
  <speed>26.86375253012877</speed>
  <fix>3d</fix>
</trkpt>
<trkpt lat="-35.2834586" lon="148.9851145">
  <ele>738.43</ele>
  <time>2026-09-01T20:00:05Z</time>
  <course>7.4</course>
  <speed>26.86</speed>
  <fix>3d</fix>
</trkpt>
<trkpt lat="-35.2833885" lon="148.9851257">
  <ele>738.29</ele>
  <time>2026-09-01T20:00:05Z</time>
  <course>6.59</course>
  <speed>26.862466379690453</speed>
  <fix>3d</fix>
</trkpt>
<trkpt lat="-35.2834107" lon="148.985122">
  <ele>738.43</ele>
  <time>2026-09-01T20:00:05Z</time>
  <course>7.35</course>
  <speed>26.87</speed>
  <fix>3d</fix>
</trkpt>
<trkpt lat="-35.2833645" lon="148.9851295">
  <ele>738.3</ele>
  <time>2026-09-01T20:00:05Z</time>
  <course>6.63</course>
  <speed>26.871101577717276</speed>
  <fix>3d</fix>
</trkpt>
<trkpt lat="-35.2834107" lon="148.985122">
  <ele>738.43</ele>
  <time>2026-09-01T20:00:05Z</time>
  <course>7.35</course>
  <speed>26.87</speed>
  <fix>3d</fix>
</trkpt>
<trkpt lat="-35.2833405" lon="148.9851333">
  <ele>738.3</ele>
  <time>2026-09-01T20:00:05Z</time>
  <course>6.54</course>
  <speed>26.881019325910987</speed>
  <fix>3d</fix>
</trkpt>
<trkpt lat="-35.2833628" lon="148.9851296">
  <ele>738.43</ele>
  <time>2026-09-01T20:00:05Z</time>
  <course>7.32</course>
  <speed>26.87</speed>
  <fix>3d</fix>
</trkpt>
<trkpt lat="-35.2833164" lon="148.985137">
  <ele>738.3</ele>
  <time>2026-09-01T20:00:05Z</time>
  <course>6.52</course>
  <speed>26.878467218202754</speed>
  <fix>3d</fix>
</trkpt>
<trkpt lat="-35.2833628" lon="148.9851296">
  <ele>738.43</ele>
  <time>2026-09-01T20:00:05Z</time>
  <course>7.32</course>
  <speed>26.87</speed>
  <fix>3d</fix>
</trkpt>
<trkpt lat="-35.2832924" lon="148.9851408">
  <ele>738.31</ele>
  <time>2026-09-01T20:00:05Z</time>
  <course>6.53</course>
  <speed>26.888385968666842</speed>
  <fix>3d</fix>
</trkpt>
<trkpt lat="-35.2833149" lon="148.9851371">
  <ele>738.43</ele>
  <time>2026-09-01T20:00:05Z</time>
  <course>7.29</course>
  <speed>26.88</speed>
  <fix>3d</fix>
</trkpt>
<trkpt lat="-35.2832684" lon="148.9851446">
  <ele>738.31</ele>
  <time>2026-09-01T20:00:05Z</time>
  <course>6.55</course>
  <speed>26.898304779297895</speed>
  <fix>3d</fix>
</trkpt>
<trkpt lat="-35.2833149" lon="148.9851371">
  <ele>738.43</ele>
  <time>2026-09-01T20:00:05Z</time>
  <course>7.29</course>
  <speed>26.88</speed>
  <fix>3d</fix>
</trkpt>
<trkpt lat="-35.2832442" lon="148.9851483">
  <ele>738.31</ele>
  <time>2026-09-01T20:00:05Z</time>
  <course>6.51</course>
  <speed>26.89703515259628</speed>
  <fix>3d</fix>
</trkpt>
<trkpt lat="-35.2832671" lon="148.9851446">
  <ele>738.44</ele>
  <time>2026-09-01T20:00:05Z</time>
  <course>7.26</course>
  <speed>26.87</speed>
  <fix>3d</fix>
</trkpt>
<trkpt lat="-35.2832202" lon="148.9851521">
  <ele>738.32</ele>
  <time>2026-09-01T20:00:05Z</time>
  <course>6.51</course>
  <speed>26.895769184018512</speed>
  <fix>3d</fix>
</trkpt>
<trkpt lat="-35.2832671" lon="148.9851446">
  <ele>738.44</ele>
  <time>2026-09-01T20:00:05Z</time>
  <course>7.26</course>
  <speed>26.87</speed>
  <fix>3d</fix>
</trkpt>
<trkpt lat="-35.2831962" lon="148.9851558">
  <ele>738.32</ele>
  <time>2026-09-01T20:00:05Z</time>
  <course>6.47</course>
  <speed>26.894506874081184</speed>
  <fix>3d</fix>
</trkpt>
<trkpt lat="-35.2832192" lon="148.9851521">
  <ele>738.44</ele>
  <time>2026-09-01T20:00:05Z</time>
  <course>7.24</course>
  <speed>26.87</speed>
  <fix>3d</fix>
</trkpt>
<trkpt lat="-35.2831722" lon="148.9851595">
  <ele>738.32</ele>
  <time>2026-09-01T20:00:05Z</time>
  <course>6.44</course>
  <speed>26.883327547013224</speed>
  <fix>3d</fix>
</trkpt>
<trkpt lat="-35.2832192" lon="148.9851521">
  <ele>738.44</ele>
  <time>2026-09-01T20:00:05Z</time>
  <course>7.24</course>
  <speed>26.87</speed>
  <fix>3d</fix>
</trkpt>
<trkpt lat="-35.2831484" lon="148.9851632">
  <ele>738.32</ele>
  <time>2026-09-01T20:00:05Z</time>
  <course>6.41</course>
  <speed>26.87340692952793</speed>
  <fix>3d</fix>
</trkpt>
<trkpt lat="-35.2831713" lon="148.9851595">
  <ele>738.45</ele>
  <time>2026-09-01T20:00:05Z</time>
  <course>7.21</course>
  <speed>26.85</speed>
  <fix>3d</fix>
</trkpt>
<trkpt lat="-35.2831245" lon="148.9851669">
  <ele>738.32</ele>
  <time>2026-09-01T20:00:05Z</time>
  <course>6.41</course>
  <speed>26.862229989336328</speed>
  <fix>3d</fix>
</trkpt>
<trkpt lat="-35.2831713" lon="148.9851595">
  <ele>738.45</ele>
  <time>2026-09-01T20:00:05Z</time>
  <course>7.21</course>
  <speed>26.85</speed>
  <fix>3d</fix>
</trkpt>
<trkpt lat="-35.2831007" lon="148.9851706">
  <ele>738.31</ele>
  <time>2026-09-01T20:00:05Z</time>
  <course>6.36</course>
  <speed>26.851055845161845</speed>
  <fix>3d</fix>
</trkpt>
<trkpt lat="-35.2831235" lon="148.985167">
  <ele>738.44</ele>
  <time>2026-09-01T20:00:05Z</time>
  <course>7.17</course>
  <speed>26.83</speed>
  <fix>3d</fix>
</trkpt>
<trkpt lat="-35.2830769" lon="148.9851742">
  <ele>738.31</ele>
  <time>2026-09-01T20:00:05Z</time>
  <course>6.33</course>
  <speed>26.82996272826334</speed>
  <fix>3d</fix>
</trkpt>
<trkpt lat="-35.2831235" lon="148.985167">
  <ele>738.44</ele>
  <time>2026-09-01T20:00:05Z</time>
  <course>7.17</course>
  <speed>26.83</speed>
  <fix>3d</fix>
</trkpt>
<trkpt lat="-35.2830529" lon="148.9851779">
  <ele>738.3</ele>
  <time>2026-09-01T20:00:05Z</time>
  <course>6.34</course>
  <speed>26.808871665924325</speed>
  <fix>3d</fix>
</trkpt>
<trkpt lat="-35.2830757" lon="148.9851743">
  <ele>738.42</ele>
  <time>2026-09-01T20:00:05Z</time>
  <course>7.15</course>
  <speed>26.8</speed>
  <fix>3d</fix>
</trkpt>
<trkpt lat="-35.2830292" lon="148.9851815">
  <ele>738.29</ele>
  <time>2026-09-01T20:00:05Z</time>
  <course>6.33</course>
  <speed>26.787782662997696</speed>
  <fix>3d</fix>
</trkpt>
<trkpt lat="-35.2830757" lon="148.9851743">
  <ele>738.42</ele>
  <time>2026-09-01T20:00:05Z</time>
  <course>7.15</course>
  <speed>26.8</speed>
  <fix>3d</fix>
</trkpt>
<trkpt lat="-35.2830055" lon="148.9851852">
  <ele>738.28</ele>
  <time>2026-09-01T20:00:05Z</time>
  <course>6.34</course>
  <speed>26.767937910866426</speed>
  <fix>3d</fix>
</trkpt>
<trkpt lat="-35.283028" lon="148.9851816">
  <ele>738.4</ele>
  <time>2026-09-01T20:00:05Z</time>
  <course>7.13</course>
  <speed>26.77</speed>
  <fix>3d</fix>
</trkpt>
<trkpt lat="-35.2829818" lon="148.9851888">
  <ele>738.27</ele>
  <time>2026-09-01T20:00:05Z</time>
  <course>6.29</course>
  <speed>26.746850281855618</speed>
  <fix>3d</fix>
</trkpt>
<trkpt lat="-35.283028" lon="148.9851816">
  <ele>738.4</ele>
  <time>2026-09-01T20:00:05Z</time>
  <course>7.13</course>
  <speed>26.77</speed>
  <fix>3d</fix>
</trkpt>
<trkpt lat="-35.2829581" lon="148.9851924">
  <ele>738.26</ele>
  <time>2026-09-01T20:00:05Z</time>
  <course>6.23</course>
  <speed>26.727005069779143</speed>
  <fix>3d</fix>
</trkpt>
<trkpt lat="-35.2829802" lon="148.985189">
  <ele>738.38</ele>
  <time>2026-09-01T20:00:05Z</time>
  <course>7.12</course>
  <speed>26.74</speed>
  <fix>3d</fix>
</trkpt>
<trkpt lat="-35.2829345" lon="148.9851961">
  <ele>738.25</ele>
  <time>2026-09-01T20:00:05Z</time>
  <course>6.27</course>
  <speed>26.6959959544498</speed>
  <fix>3d</fix>
</trkpt>
<trkpt lat="-35.2829802" lon="148.985189">
  <ele>738.38</ele>
  <time>2026-09-01T20:00:05Z</time>
  <course>7.12</course>
  <speed>26.74</speed>
  <fix>3d</fix>
</trkpt>
<trkpt lat="-35.2829108" lon="148.9851997">
  <ele>738.24</ele>
  <time>2026-09-01T20:00:05Z</time>
  <course>6.32</course>
  <speed>26.686073146868196</speed>
  <fix>3d</fix>
</trkpt>
<trkpt lat="-35.2829325" lon="148.9851962">
  <ele>738.36</ele>
  <time>2026-09-01T20:00:05Z</time>
  <course>7.11</course>
  <speed>26.71</speed>
  <fix>3d</fix>
</trkpt>
<trkpt lat="-35.2828871" lon="148.9852033">
  <ele>738.23</ele>
  <time>2026-09-01T20:00:05Z</time>
  <course>6.31</course>
  <speed>26.656305070283093</speed>
  <fix>3d</fix>
</trkpt>
<trkpt lat="-35.2829325" lon="148.9851962">
  <ele>738.36</ele>
  <time>2026-09-01T20:00:05Z</time>
  <course>7.11</course>
  <speed>26.71</speed>
  <fix>3d</fix>
</trkpt>
<trkpt lat="-35.2828635" lon="148.9852069">
  <ele>738.22</ele>
  <time>2026-09-01T20:00:05Z</time>
  <course>6.24</course>
  <speed>26.635219165608532</speed>
  <fix>3d</fix>
</trkpt>
<trkpt lat="-35.2828849" lon="148.9852035">
  <ele>738.34</ele>
  <time>2026-09-01T20:00:05Z</time>
  <course>7.11</course>
  <speed>26.67</speed>
  <fix>3d</fix>
</trkpt>
<trkpt lat="-35.2828398" lon="148.9852105">
  <ele>738.22</ele>
  <time>2026-09-01T20:00:05Z</time>
  <course>6.2</course>
  <speed>26.615373377054098</speed>
  <fix>3d</fix>
</trkpt>
<trkpt lat="-35.2828849" lon="148.9852035">
  <ele>738.34</ele>
  <time>2026-09-01T20:00:05Z</time>
  <course>7.11</course>
  <speed>26.67</speed>
  <fix>3d</fix>
</trkpt>
<trkpt lat="-35.2828162" lon="148.9852141">
  <ele>738.21</ele>
  <time>2026-09-01T20:00:05Z</time>
  <course>6.27</course>
  <speed>26.594288860580573</speed>
  <fix>3d</fix>
</trkpt>
<trkpt lat="-35.2828374" lon="148.9852108">
  <ele>738.33</ele>
  <time>2026-09-01T20:00:05Z</time>
  <course>7.12</course>
  <speed>26.63</speed>
  <fix>3d</fix>
</trkpt>
<trkpt lat="-35.2827923" lon="148.9852178">
  <ele>738.21</ele>
  <time>2026-09-01T20:00:05Z</time>
  <course>6.34</course>
  <speed>26.58436570618152</speed>
  <fix>3d</fix>
</trkpt>
<trkpt lat="-35.2828374" lon="148.9852108">
  <ele>738.33</ele>
  <time>2026-09-01T20:00:05Z</time>
  <course>7.12</course>
  <speed>26.63</speed>
  <fix>3d</fix>
</trkpt>
<trkpt lat="-35.2827686" lon="148.9852214">
  <ele>738.2</ele>
  <time>2026-09-01T20:00:05Z</time>
  <course>6.33</course>
  <speed>26.56575991760823</speed>
  <fix>3d</fix>
</trkpt>
<trkpt lat="-35.28279" lon="148.9852181">
  <ele>738.32</ele>
  <time>2026-09-01T20:00:05Z</time>
  <course>7.12</course>
  <speed>26.59</speed>
  <fix>3d</fix>
</trkpt>
<trkpt lat="-35.2827449" lon="148.985225">
  <ele>738.2</ele>
  <time>2026-09-01T20:00:05Z</time>
  <course>6.32</course>
  <speed>26.55583739971308</speed>
  <fix>3d</fix>
</trkpt>
<trkpt lat="-35.28279" lon="148.9852181">
  <ele>738.32</ele>
  <time>2026-09-01T20:00:05Z</time>
  <course>7.12</course>
  <speed>26.59</speed>
  <fix>3d</fix>
</trkpt>
<trkpt lat="-35.2827212" lon="148.9852287">
  <ele>738.19</ele>
  <time>2026-09-01T20:00:05Z</time>
  <course>6.24</course>
  <speed>26.5359925384373</speed>
  <fix>3d</fix>
</trkpt>
<trkpt lat="-35.2827426" lon="148.9852253">
  <ele>738.3</ele>
  <time>2026-09-01T20:00:05Z</time>
  <course>7.13</course>
  <speed>26.55</speed>
  <fix>3d</fix>
</trkpt>
<trkpt lat="-35.2826975" lon="148.9852323">
  <ele>738.19</ele>
  <time>2026-09-01T20:00:05Z</time>
  <course>6.18</course>
  <speed>26.51490524214635</speed>
  <fix>3d</fix>
</trkpt>
<trkpt lat="-35.2827426" lon="148.9852253">
  <ele>738.3</ele>
  <time>2026-09-01T20:00:05Z</time>
  <course>7.13</course>
  <speed>26.55</speed>
  <fix>3d</fix>
</trkpt>
<trkpt lat="-35.2826739" lon="148.9852359">
  <ele>738.18</ele>
  <time>2026-09-01T20:00:05Z</time>
  <course>6.18</course>
  <speed>26.48389699421141</speed>
  <fix>3d</fix>
</trkpt>
<trkpt lat="-35.2826953" lon="148.9852326">
  <ele>738.3</ele>
  <time>2026-09-01T20:00:05Z</time>
  <course>7.13</course>
  <speed>26.51</speed>
  <fix>3d</fix>
</trkpt>
<trkpt lat="-35.2826503" lon="148.9852395">
  <ele>738.19</ele>
  <time>2026-09-01T20:00:05Z</time>
  <course>6.19</course>
  <speed>26.462813531444457</speed>
  <fix>3d</fix>
</trkpt>
<trkpt lat="-35.2826953" lon="148.9852326">
  <ele>738.3</ele>
  <time>2026-09-01T20:00:05Z</time>
  <course>7.13</course>
  <speed>26.51</speed>
  <fix>3d</fix>
</trkpt>
<trkpt lat="-35.2826267" lon="148.9852431">
  <ele>738.19</ele>
  <time>2026-09-01T20:00:05Z</time>
  <course>6.26</course>
  <speed>26.44296692884518</speed>
  <fix>3d</fix>
</trkpt>
<trkpt lat="-35.2826481" lon="148.9852398">
  <ele>738.3</ele>
  <time>2026-09-01T20:00:05Z</time>
  <course>7.12</course>
  <speed>26.47</speed>
  <fix>3d</fix>
</trkpt>
<trkpt lat="-35.2826032" lon="148.9852467">
  <ele>738.19</ele>
  <time>2026-09-01T20:00:05Z</time>
  <course>6.29</course>
  <speed>26.4231205575723</speed>
  <fix>3d</fix>
</trkpt>
<trkpt lat="-35.2826481" lon="148.9852398">
  <ele>738.3</ele>
  <time>2026-09-01T20:00:05Z</time>
  <course>7.12</course>
  <speed>26.47</speed>
  <fix>3d</fix>
</trkpt>
<trkpt lat="-35.2825797" lon="148.9852503">
  <ele>738.19</ele>
  <time>2026-09-01T20:00:05Z</time>
  <course>6.26</course>
  <speed>26.402037800139595</speed>
  <fix>3d</fix>
</trkpt>
<trkpt lat="-35.2826009" lon="148.985247">
  <ele>738.3</ele>
  <time>2026-09-01T20:00:05Z</time>
  <course>7.12</course>
  <speed>26.42</speed>
  <fix>3d</fix>
</trkpt>
<trkpt lat="-35.2825559" lon="148.9852539">
  <ele>738.19</ele>
  <time>2026-09-01T20:00:05Z</time>
  <course>6.26</course>
  <speed>26.382190962844614</speed>
  <fix>3d</fix>
</trkpt>
<trkpt lat="-35.2826009" lon="148.985247">
  <ele>738.3</ele>
  <time>2026-09-01T20:00:05Z</time>
  <course>7.12</course>
  <speed>26.42</speed>
  <fix>3d</fix>
</trkpt>
<trkpt lat="-35.2825324" lon="148.9852575">
  <ele>738.19</ele>
  <time>2026-09-01T20:00:05Z</time>
  <course>6.21</course>
  <speed>26.362344357055953</speed>
  <fix>3d</fix>
</trkpt>
<trkpt lat="-35.2825538" lon="148.9852543">
  <ele>738.3</ele>
  <time>2026-09-01T20:00:05Z</time>
  <course>7.12</course>
  <speed>26.38</speed>
  <fix>3d</fix>
</trkpt>
<trkpt lat="-35.2825088" lon="148.9852611">
  <ele>738.19</ele>
  <time>2026-09-01T20:00:05Z</time>
  <course>6.28</course>
  <speed>26.352421141139953</speed>
  <fix>3d</fix>
</trkpt>
<trkpt lat="-35.2825538" lon="148.9852543">
  <ele>738.3</ele>
  <time>2026-09-01T20:00:05Z</time>
  <course>7.12</course>
  <speed>26.38</speed>
  <fix>3d</fix>
</trkpt>
<trkpt lat="-35.2824853" lon="148.9852647">
  <ele>738.19</ele>
  <time>2026-09-01T20:00:05Z</time>
  <course>6.34</course>
  <speed>26.332574883592375</speed>
  <fix>3d</fix>
</trkpt>
<trkpt lat="-35.2825068" lon="148.9852614">
  <ele>738.3</ele>
  <time>2026-09-01T20:00:05Z</time>
  <course>7.13</course>
  <speed>26.34</speed>
  <fix>3d</fix>
</trkpt>
<trkpt lat="-35.2824618" lon="148.9852683">
  <ele>738.19</ele>
  <time>2026-09-01T20:00:05Z</time>
  <course>6.32</course>
  <speed>26.312728858862204</speed>
  <fix>3d</fix>
</trkpt>
<trkpt lat="-35.2825068" lon="148.9852614">
  <ele>738.3</ele>
  <time>2026-09-01T20:00:05Z</time>
  <course>7.13</course>
  <speed>26.34</speed>
  <fix>3d</fix>
</trkpt>
<trkpt lat="-35.2824383" lon="148.9852719">
  <ele>738.19</ele>
  <time>2026-09-01T20:00:05Z</time>
  <course>6.28</course>
  <speed>26.292883067476644</speed>
  <fix>3d</fix>
</trkpt>
<trkpt lat="-35.2824598" lon="148.9852687">
  <ele>738.31</ele>
  <time>2026-09-01T20:00:05Z</time>
  <course>7.14</course>
  <speed>26.29</speed>
  <fix>3d</fix>
</trkpt>
<trkpt lat="-35.2824148" lon="148.9852755">
  <ele>738.19</ele>
  <time>2026-09-01T20:00:05Z</time>
  <course>6.26</course>
  <speed>26.28172178530166</speed>
  <fix>3d</fix>
</trkpt>
<trkpt lat="-35.2824598" lon="148.9852687">
  <ele>738.31</ele>
  <time>2026-09-01T20:00:05Z</time>
  <course>7.14</course>
  <speed>26.29</speed>
  <fix>3d</fix>
</trkpt>
<trkpt lat="-35.2823913" lon="148.9852791">
  <ele>738.19</ele>
  <time>2026-09-01T20:00:05Z</time>
  <course>6.28</course>
  <speed>26.261875409041146</speed>
  <fix>3d</fix>
</trkpt>
<trkpt lat="-35.282413" lon="148.9852758">
  <ele>738.31</ele>
  <time>2026-09-01T20:00:05Z</time>
  <course>7.15</course>
  <speed>26.25</speed>
  <fix>3d</fix>
</trkpt>
<trkpt lat="-35.2823678" lon="148.9852827">
  <ele>738.19</ele>
  <time>2026-09-01T20:00:05Z</time>
  <course>6.29</course>
  <speed>26.25195230835223</speed>
  <fix>3d</fix>
</trkpt>
<trkpt lat="-35.282413" lon="148.9852758">
  <ele>738.31</ele>
  <time>2026-09-01T20:00:05Z</time>
  <course>7.15</course>
  <speed>26.25</speed>
  <fix>3d</fix>
</trkpt>
<trkpt lat="-35.2823443" lon="148.9852863">
  <ele>738.19</ele>
  <time>2026-09-01T20:00:05Z</time>
  <course>6.27</course>
  <speed>26.24079267095413</speed>
  <fix>3d</fix>
</trkpt>
<trkpt lat="-35.2823662" lon="148.9852831">
  <ele>738.31</ele>
  <time>2026-09-01T20:00:05Z</time>
  <course>7.15</course>
  <speed>26.21</speed>
  <fix>3d</fix>
</trkpt>
<trkpt lat="-35.2823209" lon="148.9852899">
  <ele>738.19</ele>
  <time>2026-09-01T20:00:05Z</time>
  <course>6.24</course>
  <speed>26.230869219299617</speed>
  <fix>3d</fix>
</trkpt>
<trkpt lat="-35.2823662" lon="148.9852831">
  <ele>738.31</ele>
  <time>2026-09-01T20:00:05Z</time>
  <course>7.15</course>
  <speed>26.21</speed>
  <fix>3d</fix>
</trkpt>
<trkpt lat="-35.2822975" lon="148.9852935">
  <ele>738.19</ele>
  <time>2026-09-01T20:00:05Z</time>
  <course>6.28</course>
  <speed>26.220945825808805</speed>
  <fix>3d</fix>
</trkpt>
<trkpt lat="-35.2823195" lon="148.9852902">
  <ele>738.3</ele>
  <time>2026-09-01T20:00:05Z</time>
  <course>7.15</course>
  <speed>26.18</speed>
  <fix>3d</fix>
</trkpt>
<trkpt lat="-35.2822741" lon="148.9852971">
  <ele>738.19</ele>
  <time>2026-09-01T20:00:05Z</time>
  <course>6.26</course>
  <speed>26.199864503466426</speed>
  <fix>3d</fix>
</trkpt>
<trkpt lat="-35.2823195" lon="148.9852902">
  <ele>738.3</ele>
  <time>2026-09-01T20:00:05Z</time>
  <course>7.15</course>
  <speed>26.18</speed>
  <fix>3d</fix>
</trkpt>
<trkpt lat="-35.2822507" lon="148.9853007">
  <ele>738.19</ele>
  <time>2026-09-01T20:00:05Z</time>
  <course>6.21</course>
  <speed>26.189940817038895</speed>
  <fix>3d</fix>
</trkpt>
<trkpt lat="-35.2822728" lon="148.9852974">
  <ele>738.3</ele>
  <time>2026-09-01T20:00:05Z</time>
  <course>7.13</course>
  <speed>26.15</speed>
  <fix>3d</fix>
</trkpt>
<trkpt lat="-35.2822273" lon="148.9853042">
  <ele>738.19</ele>
  <time>2026-09-01T20:00:05Z</time>
  <course>6.22</course>
  <speed>26.178785304135104</speed>
  <fix>3d</fix>
</trkpt>
<trkpt lat="-35.2822728" lon="148.9852974">
  <ele>738.3</ele>
  <time>2026-09-01T20:00:05Z</time>
  <course>7.13</course>
  <speed>26.15</speed>
  <fix>3d</fix>
</trkpt>
<trkpt lat="-35.282204" lon="148.9853078">
  <ele>738.19</ele>
  <time>2026-09-01T20:00:05Z</time>
  <course>6.22</course>
  <speed>26.16763267855921</speed>
  <fix>3d</fix>
</trkpt>
<trkpt lat="-35.2822263" lon="148.9853045">
  <ele>738.3</ele>
  <time>2026-09-01T20:00:05Z</time>
  <course>7.12</course>
  <speed>26.12</speed>
  <fix>3d</fix>
</trkpt>
<trkpt lat="-35.2821807" lon="148.9853113">
  <ele>738.19</ele>
  <time>2026-09-01T20:00:05Z</time>
  <course>6.23</course>
  <speed>26.15770823294732</speed>
  <fix>3d</fix>
</trkpt>
<trkpt lat="-35.2822263" lon="148.9853045">
  <ele>738.3</ele>
  <time>2026-09-01T20:00:05Z</time>
  <course>7.12</course>
  <speed>26.12</speed>
  <fix>3d</fix>
</trkpt>
<trkpt lat="-35.2821574" lon="148.9853149">
  <ele>738.2</ele>
  <time>2026-09-01T20:00:05Z</time>
  <course>6.22</course>
  <speed>26.137859514505006</speed>
  <fix>3d</fix>
</trkpt>
<trkpt lat="-35.2821798" lon="148.9853116">
  <ele>738.3</ele>
  <time>2026-09-01T20:00:06Z</time>
  <course>7.11</course>
  <speed>26.09</speed>
  <fix>3d</fix>
</trkpt>
<trkpt lat="-35.2821341" lon="148.9853184">
  <ele>738.2</ele>
  <time>2026-09-01T20:00:06Z</time>
  <course>6.19</course>
  <speed>26.126708556570993</speed>
  <fix>3d</fix>
</trkpt>
<trkpt lat="-35.2821798" lon="148.9853116">
  <ele>738.3</ele>
  <time>2026-09-01T20:00:06Z</time>
  <course>7.11</course>
  <speed>26.09</speed>
  <fix>3d</fix>
</trkpt>
<trkpt lat="-35.2821108" lon="148.985322">
  <ele>738.2</ele>
  <time>2026-09-01T20:00:06Z</time>
  <course>6.13</course>
  <speed>26.10685925192841</speed>
  <fix>3d</fix>
</trkpt>
<trkpt lat="-35.2821333" lon="148.9853187">
  <ele>738.3</ele>
  <time>2026-09-01T20:00:06Z</time>
  <course>7.1</course>
  <speed>26.06</speed>
  <fix>3d</fix>
</trkpt>
<trkpt lat="-35.2820877" lon="148.9853255">
  <ele>738.2</ele>
  <time>2026-09-01T20:00:06Z</time>
  <course>6.13</course>
  <speed>26.095710375462094</speed>
  <fix>3d</fix>
</trkpt>
<trkpt lat="-35.2821333" lon="148.9853187">
  <ele>738.3</ele>
  <time>2026-09-01T20:00:06Z</time>
  <course>7.1</course>
  <speed>26.06</speed>
  <fix>3d</fix>
</trkpt>
<trkpt lat="-35.2820645" lon="148.985329">
  <ele>738.2</ele>
  <time>2026-09-01T20:00:06Z</time>
  <course>6.19</course>
  <speed>26.07463901955308</speed>
  <fix>3d</fix>
</trkpt>
<trkpt lat="-35.2820868" lon="148.9853258">
  <ele>738.3</ele>
  <time>2026-09-01T20:00:06Z</time>
  <course>7.08</course>
  <speed>26.03</speed>
  <fix>3d</fix>
</trkpt>
<trkpt lat="-35.2820413" lon="148.9853325">
  <ele>738.2</ele>
  <time>2026-09-01T20:00:06Z</time>
  <course>6.15</course>
  <speed>26.064713694955486</speed>
  <fix>3d</fix>
</trkpt>
<trkpt lat="-35.2820868" lon="148.9853258">
  <ele>738.3</ele>
  <time>2026-09-01T20:00:06Z</time>
  <course>7.08</course>
  <speed>26.03</speed>
  <fix>3d</fix>
</trkpt>
<trkpt lat="-35.2820181" lon="148.985336">
  <ele>738.19</ele>
  <time>2026-09-01T20:00:06Z</time>
  <course>6.15</course>
  <speed>26.054788427465688</speed>
  <fix>3d</fix>
</trkpt>
<trkpt lat="-35.2820404" lon="148.9853329">
  <ele>738.3</ele>
  <time>2026-09-01T20:00:06Z</time>
  <course>7.06</course>
  <speed>26.0</speed>
  <fix>3d</fix>
</trkpt>
<trkpt lat="-35.2819949" lon="148.9853396">
  <ele>738.19</ele>
  <time>2026-09-01T20:00:06Z</time>
  <course>6.18</course>
  <speed>26.04364413825377</speed>
  <fix>3d</fix>
</trkpt>
<trkpt lat="-35.2820404" lon="148.9853329">
  <ele>738.3</ele>
  <time>2026-09-01T20:00:06Z</time>
  <course>7.06</course>
  <speed>26.0</speed>
  <fix>3d</fix>
</trkpt>
<trkpt lat="-35.2819715" lon="148.9853431">
  <ele>738.18</ele>
  <time>2026-09-01T20:00:06Z</time>
  <course>6.19</course>
  <speed>26.032502760971717</speed>
  <fix>3d</fix>
</trkpt>
<trkpt lat="-35.281994" lon="148.9853399">
  <ele>738.29</ele>
  <time>2026-09-01T20:00:06Z</time>
  <course>7.05</course>
  <speed>25.97</speed>
  <fix>3d</fix>
</trkpt>
<trkpt lat="-35.2819481" lon="148.9853466">
  <ele>738.17</ele>
  <time>2026-09-01T20:00:06Z</time>
  <course>6.18</course>
  <speed>26.022576736364904</speed>
  <fix>3d</fix>
</trkpt>
<trkpt lat="-35.281994" lon="148.9853399">
  <ele>738.29</ele>
  <time>2026-09-01T20:00:06Z</time>
  <course>7.05</course>
  <speed>25.97</speed>
  <fix>3d</fix>
</trkpt>
<trkpt lat="-35.281925" lon="148.9853501">
  <ele>738.15</ele>
  <time>2026-09-01T20:00:06Z</time>
  <course>6.14</course>
  <speed>26.012650768424194</speed>
  <fix>3d</fix>
</trkpt>
<trkpt lat="-35.2819477" lon="148.985347">
  <ele>738.27</ele>
  <time>2026-09-01T20:00:06Z</time>
  <course>7.04</course>
  <speed>25.95</speed>
  <fix>3d</fix>
</trkpt>
<trkpt lat="-35.2819018" lon="148.9853536">
  <ele>738.13</ele>
  <time>2026-09-01T20:00:06Z</time>
  <course>6.12</course>
  <speed>26.00151149452662</speed>
  <fix>3d</fix>
</trkpt>
<trkpt lat="-35.2819477" lon="148.985347">
  <ele>738.27</ele>
  <time>2026-09-01T20:00:06Z</time>
  <course>7.04</course>
  <speed>25.95</speed>
  <fix>3d</fix>
</trkpt>
<trkpt lat="-35.2818787" lon="148.9853571">
  <ele>738.1</ele>
  <time>2026-09-01T20:00:06Z</time>
  <course>6.1</course>
  <speed>25.991585176745183</speed>
  <fix>3d</fix>
</trkpt>
<trkpt lat="-35.2819014" lon="148.9853539">
  <ele>738.23</ele>
  <time>2026-09-01T20:00:06Z</time>
  <course>7.03</course>
  <speed>25.93</speed>
  <fix>3d</fix>
</trkpt>
<trkpt lat="-35.2818555" lon="148.9853606">
  <ele>738.07</ele>
  <time>2026-09-01T20:00:06Z</time>
  <course>6.11</course>
  <speed>25.9804484179931</speed>
  <fix>3d</fix>
</trkpt>
<trkpt lat="-35.2819014" lon="148.9853539">
  <ele>738.23</ele>
  <time>2026-09-01T20:00:06Z</time>
  <course>7.03</course>
  <speed>25.93</speed>
  <fix>3d</fix>
</trkpt>
<trkpt lat="-35.2818324" lon="148.9853641">
  <ele>738.04</ele>
  <time>2026-09-01T20:00:06Z</time>
  <course>6.12</course>
  <speed>25.9804484179931</speed>
  <fix>3d</fix>
</trkpt>
<trkpt lat="-35.2818552" lon="148.9853609">
  <ele>738.17</ele>
  <time>2026-09-01T20:00:06Z</time>
  <course>7.01</course>
  <speed>25.92</speed>
  <fix>3d</fix>
</trkpt>
<trkpt lat="-35.2818093" lon="148.9853676">
  <ele>737.99</ele>
  <time>2026-09-01T20:00:06Z</time>
  <course>6.14</course>
  <speed>25.9804484179931</speed>
  <fix>3d</fix>
</trkpt>
<trkpt lat="-35.2818552" lon="148.9853609">
  <ele>738.17</ele>
  <time>2026-09-01T20:00:06Z</time>
  <course>7.01</course>
  <speed>25.92</speed>
  <fix>3d</fix>
</trkpt>
<trkpt lat="-35.2817862" lon="148.9853711">
  <ele>737.95</ele>
  <time>2026-09-01T20:00:06Z</time>
  <course>6.13</course>
  <speed>25.9804484179931</speed>
  <fix>3d</fix>
</trkpt>
<trkpt lat="-35.281809" lon="148.9853678">
  <ele>738.09</ele>
  <time>2026-09-01T20:00:06Z</time>
  <course>7.01</course>
  <speed>25.91</speed>
  <fix>3d</fix>
</trkpt>
<trkpt lat="-35.2817631" lon="148.9853745">
  <ele>737.9</ele>
  <time>2026-09-01T20:00:06Z</time>
  <course>6.17</course>
  <speed>25.970521750631043</speed>
  <fix>3d</fix>
</trkpt>
<trkpt lat="-35.281809" lon="148.9853678">
  <ele>738.09</ele>
  <time>2026-09-01T20:00:06Z</time>
  <course>7.01</course>
  <speed>25.91</speed>
  <fix>3d</fix>
</trkpt>
<trkpt lat="-35.28174" lon="148.985378">
  <ele>737.85</ele>
  <time>2026-09-01T20:00:06Z</time>
  <course>6.17</course>
  <speed>25.970521750631043</speed>
  <fix>3d</fix>
</trkpt>
<trkpt lat="-35.2817628" lon="148.9853749">
  <ele>738.0</ele>
  <time>2026-09-01T20:00:06Z</time>
  <course>7.01</course>
  <speed>25.9</speed>
  <fix>3d</fix>
</trkpt>
<trkpt lat="-35.2817169" lon="148.9853815">
  <ele>737.8</ele>
  <time>2026-09-01T20:00:06Z</time>
  <course>6.17</course>
  <speed>25.970521750631043</speed>
  <fix>3d</fix>
</trkpt>
<trkpt lat="-35.2817628" lon="148.9853749">
  <ele>738.0</ele>
  <time>2026-09-01T20:00:06Z</time>
  <course>7.01</course>
  <speed>25.9</speed>
  <fix>3d</fix>
</trkpt>
<trkpt lat="-35.2816938" lon="148.985385">
  <ele>737.75</ele>
  <time>2026-09-01T20:00:06Z</time>
  <course>6.14</course>
  <speed>25.970521750631043</speed>
  <fix>3d</fix>
</trkpt>
<trkpt lat="-35.2817166" lon="148.9853818">
  <ele>737.9</ele>
  <time>2026-09-01T20:00:06Z</time>
  <course>7.01</course>
  <speed>25.9</speed>
  <fix>3d</fix>
</trkpt>
<trkpt lat="-35.2816707" lon="148.9853884">
  <ele>737.69</ele>
  <time>2026-09-01T20:00:06Z</time>
  <course>6.14</course>
  <speed>25.970521750631043</speed>
  <fix>3d</fix>
</trkpt>
<trkpt lat="-35.2817166" lon="148.9853818">
  <ele>737.9</ele>
  <time>2026-09-01T20:00:06Z</time>
  <course>7.01</course>
  <speed>25.9</speed>
  <fix>3d</fix>
</trkpt>
<trkpt lat="-35.2816476" lon="148.9853919">
  <ele>737.64</ele>
  <time>2026-09-01T20:00:06Z</time>
  <course>6.16</course>
  <speed>25.970521750631043</speed>
  <fix>3d</fix>
</trkpt>
<trkpt lat="-35.2816705" lon="148.9853888">
  <ele>737.79</ele>
  <time>2026-09-01T20:00:06Z</time>
  <course>7.01</course>
  <speed>25.91</speed>
  <fix>3d</fix>
</trkpt>
<trkpt lat="-35.2816245" lon="148.9853954">
  <ele>737.58</ele>
  <time>2026-09-01T20:00:06Z</time>
  <course>6.19</course>
  <speed>25.970521750631043</speed>
  <fix>3d</fix>
</trkpt>
<trkpt lat="-35.2816705" lon="148.9853888">
  <ele>737.79</ele>
  <time>2026-09-01T20:00:06Z</time>
  <course>7.01</course>
  <speed>25.91</speed>
  <fix>3d</fix>
</trkpt>
<trkpt lat="-35.2816016" lon="148.9853988">
  <ele>737.52</ele>
  <time>2026-09-01T20:00:06Z</time>
  <course>6.19</course>
  <speed>25.970521750631043</speed>
  <fix>3d</fix>
</trkpt>
<trkpt lat="-35.2816243" lon="148.9853957">
  <ele>737.68</ele>
  <time>2026-09-01T20:00:06Z</time>
  <course>7.01</course>
  <speed>25.91</speed>
  <fix>3d</fix>
</trkpt>
<trkpt lat="-35.2815785" lon="148.9854023">
  <ele>737.46</ele>
  <time>2026-09-01T20:00:06Z</time>
  <course>6.12</course>
  <speed>25.98165891547343</speed>
  <fix>3d</fix>
</trkpt>
<trkpt lat="-35.2816243" lon="148.9853957">
  <ele>737.68</ele>
  <time>2026-09-01T20:00:06Z</time>
  <course>7.01</course>
  <speed>25.91</speed>
  <fix>3d</fix>
</trkpt>
<trkpt lat="-35.2815554" lon="148.9854058">
  <ele>737.39</ele>
  <time>2026-09-01T20:00:06Z</time>
  <course>6.09</course>
  <speed>25.98165891547343</speed>
  <fix>3d</fix>
</trkpt>
<trkpt lat="-35.2815781" lon="148.9854027">
  <ele>737.55</ele>
  <time>2026-09-01T20:00:06Z</time>
  <course>7.02</course>
  <speed>25.93</speed>
  <fix>3d</fix>
</trkpt>
<trkpt lat="-35.2815323" lon="148.9854093">
  <ele>737.33</ele>
  <time>2026-09-01T20:00:06Z</time>
  <course>6.12</course>
  <speed>25.991585176745183</speed>
  <fix>3d</fix>
</trkpt>
<trkpt lat="-35.2815781" lon="148.9854027">
  <ele>737.55</ele>
  <time>2026-09-01T20:00:06Z</time>
  <course>7.02</course>
  <speed>25.93</speed>
  <fix>3d</fix>
</trkpt>
<trkpt lat="-35.281509" lon="148.9854128">
  <ele>737.26</ele>
  <time>2026-09-01T20:00:06Z</time>
  <course>6.15</course>
  <speed>25.991585176745183</speed>
  <fix>3d</fix>
</trkpt>
<trkpt lat="-35.2815317" lon="148.9854097">
  <ele>737.42</ele>
  <time>2026-09-01T20:00:06Z</time>
  <course>7.04</course>
  <speed>25.94</speed>
  <fix>3d</fix>
</trkpt>
<trkpt lat="-35.2814859" lon="148.9854163">
  <ele>737.19</ele>
  <time>2026-09-01T20:00:06Z</time>
  <course>6.17</course>
  <speed>25.991585176745183</speed>
  <fix>3d</fix>
</trkpt>
<trkpt lat="-35.2815317" lon="148.9854097">
  <ele>737.42</ele>
  <time>2026-09-01T20:00:06Z</time>
  <course>7.04</course>
  <speed>25.94</speed>
  <fix>3d</fix>
</trkpt>
<trkpt lat="-35.2814628" lon="148.9854198">
  <ele>737.12</ele>
  <time>2026-09-01T20:00:06Z</time>
  <course>6.18</course>
  <speed>25.99279900280076</speed>
  <fix>3d</fix>
</trkpt>
<trkpt lat="-35.2814854" lon="148.9854166">
  <ele>737.28</ele>
  <time>2026-09-01T20:00:06Z</time>
  <course>7.04</course>
  <speed>25.95</speed>
  <fix>3d</fix>
</trkpt>
<trkpt lat="-35.2814389" lon="148.9854234">
  <ele>737.04</ele>
  <time>2026-09-01T20:00:06Z</time>
  <course>6.15</course>
  <speed>25.991585176745183</speed>
  <fix>3d</fix>
</trkpt>
<trkpt lat="-35.2814854" lon="148.9854166">
  <ele>737.28</ele>
  <time>2026-09-01T20:00:06Z</time>
  <course>7.04</course>
  <speed>25.95</speed>
  <fix>3d</fix>
</trkpt>
<trkpt lat="-35.2814157" lon="148.9854269">
  <ele>736.97</ele>
  <time>2026-09-01T20:00:06Z</time>
  <course>6.21</course>
  <speed>26.00151149452662</speed>
  <fix>3d</fix>
</trkpt>
<trkpt lat="-35.2814392" lon="148.9854237">
  <ele>737.14</ele>
  <time>2026-09-01T20:00:06Z</time>
  <course>7.04</course>
  <speed>25.95</speed>
  <fix>3d</fix>
</trkpt>
<trkpt lat="-35.2813928" lon="148.9854304">
  <ele>736.89</ele>
  <time>2026-09-01T20:00:06Z</time>
  <course>6.26</course>
  <speed>26.00151149452662</speed>
  <fix>3d</fix>
</trkpt>
<trkpt lat="-35.2814392" lon="148.9854237">
  <ele>737.14</ele>
  <time>2026-09-01T20:00:06Z</time>
  <course>7.04</course>
  <speed>25.95</speed>
  <fix>3d</fix>
</trkpt>
<trkpt lat="-35.2813696" lon="148.9854339">
  <ele>736.81</ele>
  <time>2026-09-01T20:00:06Z</time>
  <course>6.23</course>
  <speed>26.011437868753045</speed>
  <fix>3d</fix>
</trkpt>
<trkpt lat="-35.2813929" lon="148.9854308">
  <ele>736.99</ele>
  <time>2026-09-01T20:00:06Z</time>
  <course>7.04</course>
  <speed>25.96</speed>
  <fix>3d</fix>
</trkpt>
<trkpt lat="-35.2813465" lon="148.9854374">
  <ele>736.73</ele>
  <time>2026-09-01T20:00:06Z</time>
  <course>6.19</course>
  <speed>26.011437868753045</speed>
  <fix>3d</fix>
</trkpt>
<trkpt lat="-35.2813929" lon="148.9854308">
  <ele>736.99</ele>
  <time>2026-09-01T20:00:06Z</time>
  <course>7.04</course>
  <speed>25.96</speed>
  <fix>3d</fix>
</trkpt>
<trkpt lat="-35.2813233" lon="148.9854409">
  <ele>736.66</ele>
  <time>2026-09-01T20:00:06Z</time>
  <course>6.22</course>
  <speed>26.011437868753045</speed>
  <fix>3d</fix>
</trkpt>
<trkpt lat="-35.2813466" lon="148.9854378">
  <ele>736.83</ele>
  <time>2026-09-01T20:00:06Z</time>
  <course>7.04</course>
  <speed>25.97</speed>
  <fix>3d</fix>
</trkpt>
<trkpt lat="-35.2813006" lon="148.9854444">
  <ele>736.58</ele>
  <time>2026-09-01T20:00:06Z</time>
  <course>6.18</course>
  <speed>26.02136429935986</speed>
  <fix>3d</fix>
</trkpt>
<trkpt lat="-35.2813466" lon="148.9854378">
  <ele>736.83</ele>
  <time>2026-09-01T20:00:06Z</time>
  <course>7.04</course>
  <speed>25.97</speed>
  <fix>3d</fix>
</trkpt>
<trkpt lat="-35.2812774" lon="148.9854479">
  <ele>736.49</ele>
  <time>2026-09-01T20:00:06Z</time>
  <course>6.1</course>
  <speed>26.02136429935986</speed>
  <fix>3d</fix>
</trkpt>
<trkpt lat="-35.2813003" lon="148.9854447">
  <ele>736.68</ele>
  <time>2026-09-01T20:00:06Z</time>
  <course>7.04</course>
  <speed>25.98</speed>
  <fix>3d</fix>
</trkpt>
<trkpt lat="-35.2812542" lon="148.9854514">
  <ele>736.41</ele>
  <time>2026-09-01T20:00:06Z</time>
  <course>6.14</course>
  <speed>26.031290786282575</speed>
  <fix>3d</fix>
</trkpt>
<trkpt lat="-35.2813003" lon="148.9854447">
  <ele>736.68</ele>
  <time>2026-09-01T20:00:06Z</time>
  <course>7.04</course>
  <speed>25.98</speed>
  <fix>3d</fix>
</trkpt>
<trkpt lat="-35.2812311" lon="148.9854549">
  <ele>736.34</ele>
  <time>2026-09-01T20:00:06Z</time>
  <course>6.23</course>
  <speed>26.031290786282575</speed>
  <fix>3d</fix>
</trkpt>
<trkpt lat="-35.281254" lon="148.9854518">
  <ele>736.52</ele>
  <time>2026-09-01T20:00:06Z</time>
  <course>7.04</course>
  <speed>25.99</speed>
  <fix>3d</fix>
</trkpt>
<trkpt lat="-35.2812079" lon="148.9854584">
  <ele>736.26</ele>
  <time>2026-09-01T20:00:06Z</time>
  <course>6.23</course>
  <speed>26.031290786282575</speed>
  <fix>3d</fix>
</trkpt>
<trkpt lat="-35.281254" lon="148.9854518">
  <ele>736.52</ele>
  <time>2026-09-01T20:00:06Z</time>
  <course>7.04</course>
  <speed>25.99</speed>
  <fix>3d</fix>
</trkpt>
<trkpt lat="-35.2811847" lon="148.9854619">
  <ele>736.18</ele>
  <time>2026-09-01T20:00:06Z</time>
  <course>6.17</course>
  <speed>26.031290786282575</speed>
  <fix>3d</fix>
</trkpt>
<trkpt lat="-35.2812076" lon="148.9854588">
  <ele>736.36</ele>
  <time>2026-09-01T20:00:06Z</time>
  <course>7.03</course>
  <speed>25.99</speed>
  <fix>3d</fix>
</trkpt>
<trkpt lat="-35.2811616" lon="148.9854654">
  <ele>736.09</ele>
  <time>2026-09-01T20:00:06Z</time>
  <course>6.13</course>
  <speed>26.031290786282575</speed>
  <fix>3d</fix>
</trkpt>
<trkpt lat="-35.2812076" lon="148.9854588">
  <ele>736.36</ele>
  <time>2026-09-01T20:00:06Z</time>
  <course>7.03</course>
  <speed>25.99</speed>
  <fix>3d</fix>
</trkpt>
<trkpt lat="-35.2811384" lon="148.9854689">
  <ele>736.0</ele>
  <time>2026-09-01T20:00:06Z</time>
  <course>6.12</course>
  <speed>26.031290786282575</speed>
  <fix>3d</fix>
</trkpt>
<trkpt lat="-35.2811613" lon="148.9854657">
  <ele>736.19</ele>
  <time>2026-09-01T20:00:06Z</time>
  <course>7.02</course>
  <speed>25.99</speed>
  <fix>3d</fix>
</trkpt>
<trkpt lat="-35.2811154" lon="148.9854724">
  <ele>735.91</ele>
  <time>2026-09-01T20:00:06Z</time>
  <course>6.16</course>
  <speed>26.041217329456778</speed>
  <fix>3d</fix>
</trkpt>
<trkpt lat="-35.2811613" lon="148.9854657">
  <ele>736.19</ele>
  <time>2026-09-01T20:00:06Z</time>
  <course>7.02</course>
  <speed>25.99</speed>
  <fix>3d</fix>
</trkpt>
<trkpt lat="-35.2810922" lon="148.9854759">
  <ele>735.81</ele>
  <time>2026-09-01T20:00:06Z</time>
  <course>6.16</course>
  <speed>26.041217329456778</speed>
  <fix>3d</fix>
</trkpt>
<trkpt lat="-35.281115" lon="148.9854728">
  <ele>736.01</ele>
  <time>2026-09-01T20:00:06Z</time>
  <course>7.01</course>
  <speed>26.0</speed>
  <fix>3d</fix>
</trkpt>
<trkpt lat="-35.2810691" lon="148.9854793">
  <ele>735.7</ele>
  <time>2026-09-01T20:00:06Z</time>
  <course>6.11</course>
  <speed>26.041217329456778</speed>
  <fix>3d</fix>
</trkpt>
<trkpt lat="-35.281115" lon="148.9854728">
  <ele>736.01</ele>
  <time>2026-09-01T20:00:06Z</time>
  <course>7.01</course>
  <speed>26.0</speed>
  <fix>3d</fix>
</trkpt>
<trkpt lat="-35.281046" lon="148.9854828">
  <ele>735.6</ele>
  <time>2026-09-01T20:00:06Z</time>
  <course>6.09</course>
  <speed>26.04000960061267</speed>
  <fix>3d</fix>
</trkpt>
<trkpt lat="-35.2810685" lon="148.9854798">
  <ele>735.81</ele>
  <time>2026-09-01T20:00:06Z</time>
  <course>7.0</course>
  <speed>26.0</speed>
  <fix>3d</fix>
</trkpt>
<trkpt lat="-35.2810228" lon="148.9854863">
  <ele>735.48</ele>
  <time>2026-09-01T20:00:06Z</time>
  <course>6.12</course>
  <speed>26.03008259687241</speed>
  <fix>3d</fix>
</trkpt>
<trkpt lat="-35.2810685" lon="148.9854798">
  <ele>735.81</ele>
  <time>2026-09-01T20:00:06Z</time>
  <course>7.0</course>
  <speed>26.0</speed>
  <fix>3d</fix>
</trkpt>
<trkpt lat="-35.2809997" lon="148.9854898">
  <ele>735.36</ele>
  <time>2026-09-01T20:00:06Z</time>
  <course>6.11</course>
  <speed>26.03008259687241</speed>
  <fix>3d</fix>
</trkpt>
<trkpt lat="-35.2810221" lon="148.9854868">
  <ele>735.59</ele>
  <time>2026-09-01T20:00:06Z</time>
  <course>6.99</course>
  <speed>26.01</speed>
  <fix>3d</fix>
</trkpt>
<trkpt lat="-35.2809767" lon="148.9854933">
  <ele>735.24</ele>
  <time>2026-09-01T20:00:06Z</time>
  <course>6.08</course>
  <speed>26.020155649034844</speed>
  <fix>3d</fix>
</trkpt>
<trkpt lat="-35.2810221" lon="148.9854868">
  <ele>735.59</ele>
  <time>2026-09-01T20:00:06Z</time>
  <course>6.99</course>
  <speed>26.01</speed>
  <fix>3d</fix>
</trkpt>
<trkpt lat="-35.2809529" lon="148.9854968">
  <ele>735.1</ele>
  <time>2026-09-01T20:00:06Z</time>
  <course>6.09</course>
  <speed>26.01895078591756</speed>
  <fix>3d</fix>
</trkpt>
<trkpt lat="-35.2809757" lon="148.9854937">
  <ele>735.35</ele>
  <time>2026-09-01T20:00:06Z</time>
  <course>6.99</course>
  <speed>26.01</speed>
  <fix>3d</fix>
</trkpt>
<trkpt lat="-35.2809301" lon="148.9855003">
  <ele>734.97</ele>
  <time>2026-09-01T20:00:06Z</time>
  <course>6.08</course>
  <speed>26.009023434185295</speed>
  <fix>3d</fix>
</trkpt>
<trkpt lat="-35.2809757" lon="148.9854937">
  <ele>735.35</ele>
  <time>2026-09-01T20:00:06Z</time>
  <course>6.99</course>
  <speed>26.01</speed>
  <fix>3d</fix>
</trkpt>
<trkpt lat="-35.280907" lon="148.9855037">
  <ele>734.83</ele>
  <time>2026-09-01T20:00:06Z</time>
  <course>6.1</course>
  <speed>26.009023434185295</speed>
  <fix>3d</fix>
</trkpt>
<trkpt lat="-35.2809292" lon="148.9855007">
  <ele>735.09</ele>
  <time>2026-09-01T20:00:06Z</time>
  <course>6.98</course>
  <speed>26.02</speed>
  <fix>3d</fix>
</trkpt>
<trkpt lat="-35.280884" lon="148.9855072">
  <ele>734.68</ele>
  <time>2026-09-01T20:00:06Z</time>
  <course>6.11</course>
  <speed>25.999096138135265</speed>
  <fix>3d</fix>
</trkpt>
<trkpt lat="-35.2809292" lon="148.9855007">
  <ele>735.09</ele>
  <time>2026-09-01T20:00:06Z</time>
  <course>6.98</course>
  <speed>26.02</speed>
  <fix>3d</fix>
</trkpt>
<trkpt lat="-35.2808609" lon="148.9855106">
  <ele>734.53</ele>
  <time>2026-09-01T20:00:06Z</time>
  <course>6.12</course>
  <speed>25.999096138135265</speed>
  <fix>3d</fix>
</trkpt>
<trkpt lat="-35.2808828" lon="148.9855076">
  <ele>734.81</ele>
  <time>2026-09-01T20:00:06Z</time>
  <course>6.97</course>
  <speed>26.02</speed>
  <fix>3d</fix>
</trkpt>
<trkpt lat="-35.2808379" lon="148.9855141">
  <ele>734.38</ele>
  <time>2026-09-01T20:00:06Z</time>
  <course>6.12</course>
  <speed>25.999096138135265</speed>
  <fix>3d</fix>
</trkpt>
<trkpt lat="-35.2808828" lon="148.9855076">
  <ele>734.81</ele>
  <time>2026-09-01T20:00:06Z</time>
  <course>6.97</course>
  <speed>26.02</speed>
  <fix>3d</fix>
</trkpt>
<trkpt lat="-35.2808146" lon="148.9855176">
  <ele>734.22</ele>
  <time>2026-09-01T20:00:06Z</time>
  <course>6.15</course>
  <speed>25.999096138135265</speed>
  <fix>3d</fix>
</trkpt>
<trkpt lat="-35.2808365" lon="148.9855145">
  <ele>734.52</ele>
  <time>2026-09-01T20:00:06Z</time>
  <course>6.97</course>
  <speed>26.03</speed>
  <fix>3d</fix>
</trkpt>
<trkpt lat="-35.2807915" lon="148.9855211">
  <ele>734.06</ele>
  <time>2026-09-01T20:00:06Z</time>
  <course>6.14</course>
  <speed>25.999096138135265</speed>
  <fix>3d</fix>
</trkpt>
<trkpt lat="-35.2808365" lon="148.9855145">
  <ele>734.52</ele>
  <time>2026-09-01T20:00:06Z</time>
  <course>6.97</course>
  <speed>26.03</speed>
  <fix>3d</fix>
</trkpt>
<trkpt lat="-35.2807684" lon="148.9855245">
  <ele>733.9</ele>
  <time>2026-09-01T20:00:06Z</time>
  <course>6.11</course>
  <speed>25.999096138135265</speed>
  <fix>3d</fix>
</trkpt>
<trkpt lat="-35.2807901" lon="148.9855215">
  <ele>734.2</ele>
  <time>2026-09-01T20:00:06Z</time>
  <course>6.97</course>
  <speed>26.03</speed>
  <fix>3d</fix>
</trkpt>
<trkpt lat="-35.2807453" lon="148.985528">
  <ele>733.73</ele>
  <time>2026-09-01T20:00:06Z</time>
  <course>6.09</course>
  <speed>25.999096138135265</speed>
  <fix>3d</fix>
</trkpt>
<trkpt lat="-35.2807901" lon="148.9855215">
  <ele>734.2</ele>
  <time>2026-09-01T20:00:06Z</time>
  <course>6.97</course>
  <speed>26.03</speed>
  <fix>3d</fix>
</trkpt>
<trkpt lat="-35.2807221" lon="148.9855314">
  <ele>733.57</ele>
  <time>2026-09-01T20:00:06Z</time>
  <course>6.08</course>
  <speed>26.009023434185295</speed>
  <fix>3d</fix>
</trkpt>
<trkpt lat="-35.2807437" lon="148.9855284">
  <ele>733.88</ele>
  <time>2026-09-01T20:00:06Z</time>
  <course>6.97</course>
  <speed>26.04</speed>
  <fix>3d</fix>
</trkpt>
<trkpt lat="-35.2806989" lon="148.9855349">
  <ele>733.4</ele>
  <time>2026-09-01T20:00:06Z</time>
  <course>6.11</course>
  <speed>26.009023434185295</speed>
  <fix>3d</fix>
</trkpt>
<trkpt lat="-35.2807437" lon="148.9855284">
  <ele>733.88</ele>
  <time>2026-09-01T20:00:06Z</time>
  <course>6.97</course>
  <speed>26.04</speed>
  <fix>3d</fix>
</trkpt>
<trkpt lat="-35.2806756" lon="148.9855384">
  <ele>733.22</ele>
  <time>2026-09-01T20:00:06Z</time>
  <course>6.13</course>
  <speed>26.01895078591756</speed>
  <fix>3d</fix>
</trkpt>
<trkpt lat="-35.2806973" lon="148.9855355">
  <ele>733.54</ele>
  <time>2026-09-01T20:00:06Z</time>
  <course>6.96</course>
  <speed>26.05</speed>
  <fix>3d</fix>
</trkpt>
<trkpt lat="-35.2806529" lon="148.9855418">
  <ele>733.05</ele>
  <time>2026-09-01T20:00:06Z</time>
  <course>6.12</course>
  <speed>26.028878193268337</speed>
  <fix>3d</fix>
</trkpt>
<trkpt lat="-35.2806973" lon="148.9855355">
  <ele>733.54</ele>
  <time>2026-09-01T20:00:06Z</time>
  <course>6.96</course>
  <speed>26.05</speed>
  <fix>3d</fix>
</trkpt>
<trkpt lat="-35.2806297" lon="148.9855453">
  <ele>732.87</ele>
  <time>2026-09-01T20:00:06Z</time>
  <course>6.11</course>
  <speed>26.03008259687241</speed>
  <fix>3d</fix>
</trkpt>
<trkpt lat="-35.2806508" lon="148.9855424">
  <ele>733.19</ele>
  <time>2026-09-01T20:00:06Z</time>
  <course>6.97</course>
  <speed>26.05</speed>
  <fix>3d</fix>
</trkpt>
<trkpt lat="-35.2806065" lon="148.9855488">
  <ele>732.69</ele>
  <time>2026-09-01T20:00:06Z</time>
  <course>6.11</course>
  <speed>26.04000960061267</speed>
  <fix>3d</fix>
</trkpt>
<trkpt lat="-35.2806508" lon="148.9855424">
  <ele>733.19</ele>
  <time>2026-09-01T20:00:06Z</time>
  <course>6.97</course>
  <speed>26.05</speed>
  <fix>3d</fix>
</trkpt>
<trkpt lat="-35.2805832" lon="148.9855523">
  <ele>732.5</ele>
  <time>2026-09-01T20:00:06Z</time>
  <course>6.11</course>
  <speed>26.04993666019171</speed>
  <fix>3d</fix>
</trkpt>
<trkpt lat="-35.2806044" lon="148.9855494">
  <ele>732.83</ele>
  <time>2026-09-01T20:00:06Z</time>
  <course>6.98</course>
  <speed>26.06</speed>
  <fix>3d</fix>
</trkpt>
<trkpt lat="-35.28056" lon="148.9855557">
  <ele>732.31</ele>
  <time>2026-09-01T20:00:06Z</time>
  <course>6.12</course>
  <speed>26.04993666019171</speed>
  <fix>3d</fix>
</trkpt>
<trkpt lat="-35.2806044" lon="148.9855494">
  <ele>732.83</ele>
  <time>2026-09-01T20:00:06Z</time>
  <course>6.98</course>
  <speed>26.06</speed>
  <fix>3d</fix>
</trkpt>
<trkpt lat="-35.2805366" lon="148.9855593">
  <ele>732.12</ele>
  <time>2026-09-01T20:00:06Z</time>
  <course>6.11</course>
  <speed>26.05986377554572</speed>
  <fix>3d</fix>
</trkpt>
<trkpt lat="-35.2805578" lon="148.9855564">
  <ele>732.46</ele>
  <time>2026-09-01T20:00:06Z</time>
  <course>6.98</course>
  <speed>26.06</speed>
  <fix>3d</fix>
</trkpt>
<trkpt lat="-35.2805133" lon="148.9855628">
  <ele>731.92</ele>
  <time>2026-09-01T20:00:06Z</time>
  <course>6.13</course>
  <speed>26.05986377554572</speed>
  <fix>3d</fix>
</trkpt>
<trkpt lat="-35.2805578" lon="148.9855564">
  <ele>732.46</ele>
  <time>2026-09-01T20:00:06Z</time>
  <course>6.98</course>
  <speed>26.06</speed>
  <fix>3d</fix>
</trkpt>
<trkpt lat="-35.2804901" lon="148.9855663">
  <ele>731.72</ele>
  <time>2026-09-01T20:00:06Z</time>
  <course>6.13</course>
  <speed>26.061070584302556</speed>
  <fix>3d</fix>
</trkpt>
<trkpt lat="-35.2805112" lon="148.9855634">
  <ele>732.07</ele>
  <time>2026-09-01T20:00:06Z</time>
  <course>6.99</course>
  <speed>26.07</speed>
  <fix>3d</fix>
</trkpt>
<trkpt lat="-35.2804661" lon="148.9855699">
  <ele>731.52</ele>
  <time>2026-09-01T20:00:06Z</time>
  <course>6.11</course>
  <speed>26.070997295845817</speed>
  <fix>3d</fix>
</trkpt>
<trkpt lat="-35.2805112" lon="148.9855634">
  <ele>732.07</ele>
  <time>2026-09-01T20:00:06Z</time>
  <course>6.99</course>
  <speed>26.07</speed>
  <fix>3d</fix>
</trkpt>
<trkpt lat="-35.280443" lon="148.9855733">
  <ele>731.32</ele>
  <time>2026-09-01T20:00:06Z</time>
  <course>6.14</course>
  <speed>26.070997295845817</speed>
  <fix>3d</fix>
</trkpt>
<trkpt lat="-35.2804647" lon="148.9855703">
  <ele>731.68</ele>
  <time>2026-09-01T20:00:06Z</time>
  <course>6.99</course>
  <speed>26.08</speed>
  <fix>3d</fix>
</trkpt>
<trkpt lat="-35.2804197" lon="148.9855768">
  <ele>731.11</ele>
  <time>2026-09-01T20:00:06Z</time>
  <course>6.1</course>
  <speed>26.08092406338395</speed>
  <fix>3d</fix>
</trkpt>
<trkpt lat="-35.2804647" lon="148.9855703">
  <ele>731.68</ele>
  <time>2026-09-01T20:00:06Z</time>
  <course>6.99</course>
  <speed>26.08</speed>
  <fix>3d</fix>
</trkpt>
<trkpt lat="-35.2803964" lon="148.9855803">
  <ele>730.91</ele>
  <time>2026-09-01T20:00:06Z</time>
  <course>6.12</course>
  <speed>26.09085088685304</speed>
  <fix>3d</fix>
</trkpt>
<trkpt lat="-35.2804182" lon="148.9855774">
  <ele>731.27</ele>
  <time>2026-09-01T20:00:06Z</time>
  <course>6.99</course>
  <speed>26.09</speed>
  <fix>3d</fix>
</trkpt>
<trkpt lat="-35.2803731" lon="148.9855839">
  <ele>730.7</ele>
  <time>2026-09-01T20:00:06Z</time>
  <course>6.15</course>
  <speed>26.09085088685304</speed>
  <fix>3d</fix>
</trkpt>
<trkpt lat="-35.2804182" lon="148.9855774">
  <ele>731.27</ele>
  <time>2026-09-01T20:00:06Z</time>
  <course>6.99</course>
  <speed>26.09</speed>
  <fix>3d</fix>
</trkpt>
<trkpt lat="-35.2803497" lon="148.9855874">
  <ele>730.48</ele>
  <time>2026-09-01T20:00:06Z</time>
  <course>6.13</course>
  <speed>26.09085088685304</speed>
  <fix>3d</fix>
</trkpt>
<trkpt lat="-35.2803717" lon="148.9855844">
  <ele>730.86</ele>
  <time>2026-09-01T20:00:06Z</time>
  <course>6.99</course>
  <speed>26.09</speed>
  <fix>3d</fix>
</trkpt>
<trkpt lat="-35.2803264" lon="148.9855909">
  <ele>730.27</ele>
  <time>2026-09-01T20:00:06Z</time>
  <course>6.09</course>
  <speed>26.09085088685304</speed>
  <fix>3d</fix>
</trkpt>
<trkpt lat="-35.2803717" lon="148.9855844">
  <ele>730.86</ele>
  <time>2026-09-01T20:00:06Z</time>
  <course>6.99</course>
  <speed>26.09</speed>
  <fix>3d</fix>
</trkpt>
<trkpt lat="-35.2803031" lon="148.9855944">
  <ele>730.06</ele>
  <time>2026-09-01T20:00:06Z</time>
  <course>6.06</course>
  <speed>26.09085088685304</speed>
  <fix>3d</fix>
</trkpt>
<trkpt lat="-35.2803252" lon="148.9855913">
  <ele>730.44</ele>
  <time>2026-09-01T20:00:06Z</time>
  <course>6.98</course>
  <speed>26.09</speed>
  <fix>3d</fix>
</trkpt>
<trkpt lat="-35.2802798" lon="148.9855979">
  <ele>729.85</ele>
  <time>2026-09-01T20:00:06Z</time>
  <course>6.03</course>
  <speed>26.099572793438593</speed>
  <fix>3d</fix>
</trkpt>
<trkpt lat="-35.2803252" lon="148.9855913">
  <ele>730.44</ele>
  <time>2026-09-01T20:00:06Z</time>
  <course>6.98</course>
  <speed>26.09</speed>
  <fix>3d</fix>
</trkpt>
<trkpt lat="-35.2802565" lon="148.9856014">
  <ele>729.63</ele>
  <time>2026-09-01T20:00:06Z</time>
  <course>6.04</course>
  <speed>26.09837159671078</speed>
  <fix>3d</fix>
</trkpt>
<trkpt lat="-35.2802787" lon="148.9855983">
  <ele>730.03</ele>
  <time>2026-09-01T20:00:06Z</time>
  <course>6.95</course>
  <speed>26.09</speed>
  <fix>3d</fix>
</trkpt>
<trkpt lat="-35.2802332" lon="148.9856048">
  <ele>729.42</ele>
  <time>2026-09-01T20:00:06Z</time>
  <course>6.01</course>
  <speed>26.097174176527236</speed>
  <fix>3d</fix>
</trkpt>
<trkpt lat="-35.2802787" lon="148.9855983">
  <ele>730.03</ele>
  <time>2026-09-01T20:00:06Z</time>
  <course>6.95</course>
  <speed>26.09</speed>
  <fix>3d</fix>
</trkpt>
<trkpt lat="-35.2802099" lon="148.9856083">
  <ele>729.21</ele>
  <time>2026-09-01T20:00:06Z</time>
  <course>6.03</course>
  <speed>26.097174176527236</speed>
  <fix>3d</fix>
</trkpt>
<trkpt lat="-35.2802322" lon="148.9856052">
  <ele>729.61</ele>
  <time>2026-09-01T20:00:06Z</time>
  <course>6.92</course>
  <speed>26.08</speed>
  <fix>3d</fix>
</trkpt>
<trkpt lat="-35.2801866" lon="148.9856118">
  <ele>729.0</ele>
  <time>2026-09-01T20:00:06Z</time>
  <course>6.04</course>
  <speed>26.095980533407825</speed>
  <fix>3d</fix>
</trkpt>
<trkpt lat="-35.2802322" lon="148.9856052">
  <ele>729.61</ele>
  <time>2026-09-01T20:00:06Z</time>
  <course>6.92</course>
  <speed>26.08</speed>
  <fix>3d</fix>
</trkpt>
<trkpt lat="-35.2801633" lon="148.9856152">
  <ele>728.79</ele>
  <time>2026-09-01T20:00:06Z</time>
  <course>5.99</course>
  <speed>26.095980533407825</speed>
  <fix>3d</fix>
</trkpt>
<trkpt lat="-35.2801856" lon="148.9856121">
  <ele>729.19</ele>
  <time>2026-09-01T20:00:06Z</time>
  <course>6.9</course>
  <speed>26.08</speed>
  <fix>3d</fix>
</trkpt>
<trkpt lat="-35.28014" lon="148.9856187">
  <ele>728.58</ele>
  <time>2026-09-01T20:00:06Z</time>
  <course>5.98</course>
  <speed>26.094790667870857</speed>
  <fix>3d</fix>
</trkpt>
<trkpt lat="-35.2801856" lon="148.9856121">
  <ele>729.19</ele>
  <time>2026-09-01T20:00:06Z</time>
  <course>6.9</course>
  <speed>26.08</speed>
  <fix>3d</fix>
</trkpt>
<trkpt lat="-35.2801168" lon="148.9856221">
  <ele>728.38</ele>
  <time>2026-09-01T20:00:06Z</time>
  <course>5.99</course>
  <speed>26.093604580433116</speed>
  <fix>3d</fix>
</trkpt>
<trkpt lat="-35.2801391" lon="148.985619">
  <ele>728.77</ele>
  <time>2026-09-01T20:00:06Z</time>
  <course>6.87</course>
  <speed>26.07</speed>
  <fix>3d</fix>
</trkpt>
<trkpt lat="-35.2800935" lon="148.9856255">
  <ele>728.17</ele>
  <time>2026-09-01T20:00:06Z</time>
  <course>6.03</course>
  <speed>26.093604580433116</speed>
  <fix>3d</fix>
</trkpt>
<trkpt lat="-35.2801391" lon="148.985619">
  <ele>728.77</ele>
  <time>2026-09-01T20:00:06Z</time>
  <course>6.87</course>
  <speed>26.07</speed>
  <fix>3d</fix>
</trkpt>
<trkpt lat="-35.2800702" lon="148.985629">
  <ele>727.97</ele>
  <time>2026-09-01T20:00:06Z</time>
  <course>6.02</course>
  <speed>26.083674971138556</speed>
  <fix>3d</fix>
</trkpt>
<trkpt lat="-35.2800926" lon="148.9856259">
  <ele>728.36</ele>
  <time>2026-09-01T20:00:06Z</time>
  <course>6.86</course>
  <speed>26.06</speed>
  <fix>3d</fix>
</trkpt>
<trkpt lat="-35.2800469" lon="148.9856324">
  <ele>727.76</ele>
  <time>2026-09-01T20:00:06Z</time>
  <course>5.99</course>
  <speed>26.083674971138556</speed>
  <fix>3d</fix>
</trkpt>
<trkpt lat="-35.2800926" lon="148.9856259">
  <ele>728.36</ele>
  <time>2026-09-01T20:00:06Z</time>
  <course>6.86</course>
  <speed>26.06</speed>
  <fix>3d</fix>
</trkpt>
<trkpt lat="-35.2800243" lon="148.9856357">
  <ele>727.57</ele>
  <time>2026-09-01T20:00:06Z</time>
  <course>5.97</course>
  <speed>26.072562206273474</speed>
  <fix>3d</fix>
</trkpt>
<trkpt lat="-35.280046" lon="148.9856327">
  <ele>727.95</ele>
  <time>2026-09-01T20:00:06Z</time>
  <course>6.85</course>
  <speed>26.05</speed>
  <fix>3d</fix>
</trkpt>
<trkpt lat="-35.280001" lon="148.9856391">
  <ele>727.36</ele>
  <time>2026-09-01T20:00:06Z</time>
  <course>5.98</course>
  <speed>26.062632253861082</speed>
  <fix>3d</fix>
</trkpt>
<trkpt lat="-35.280046" lon="148.9856327">
  <ele>727.95</ele>
  <time>2026-09-01T20:00:06Z</time>
  <course>6.85</course>
  <speed>26.05</speed>
  <fix>3d</fix>
</trkpt>
<trkpt lat="-35.279977" lon="148.9856427">
  <ele>727.16</ele>
  <time>2026-09-01T20:00:06Z</time>
  <course>6.0</course>
  <speed>26.05270235503411</speed>
  <fix>3d</fix>
</trkpt>
<trkpt lat="-35.2799995" lon="148.9856395">
  <ele>727.54</ele>
  <time>2026-09-01T20:00:06Z</time>
  <course>6.84</course>
  <speed>26.03</speed>
  <fix>3d</fix>
</trkpt>
<trkpt lat="-35.2799539" lon="148.9856461">
  <ele>726.96</ele>
  <time>2026-09-01T20:00:06Z</time>
  <course>5.98</course>
  <speed>26.05270235503411</speed>
  <fix>3d</fix>
</trkpt>
<trkpt lat="-35.2799995" lon="148.9856395">
  <ele>727.54</ele>
  <time>2026-09-01T20:00:06Z</time>
  <course>6.84</course>
  <speed>26.03</speed>
  <fix>3d</fix>
</trkpt>
<trkpt lat="-35.2799307" lon="148.9856495">
  <ele>726.76</ele>
  <time>2026-09-01T20:00:06Z</time>
  <course>5.95</course>
  <speed>26.04277250985386</speed>
  <fix>3d</fix>
</trkpt>
<trkpt lat="-35.2799531" lon="148.9856464">
  <ele>727.14</ele>
  <time>2026-09-01T20:00:06Z</time>
  <course>6.84</course>
  <speed>26.01</speed>
  <fix>3d</fix>
</trkpt>
<trkpt lat="-35.2799074" lon="148.9856529">
  <ele>726.56</ele>
  <time>2026-09-01T20:00:06Z</time>
  <course>5.98</course>
  <speed>26.032842718381715</speed>
  <fix>3d</fix>
</trkpt>
<trkpt lat="-35.2799531" lon="148.9856464">
  <ele>727.14</ele>
  <time>2026-09-01T20:00:06Z</time>
  <course>6.84</course>
  <speed>26.01</speed>
  <fix>3d</fix>
</trkpt>
<trkpt lat="-35.2798842" lon="148.9856563">
  <ele>726.36</ele>
  <time>2026-09-01T20:00:06Z</time>
  <course>5.99</course>
  <speed>26.022912980679163</speed>
  <fix>3d</fix>
</trkpt>
<trkpt lat="-35.2799068" lon="148.9856532">
  <ele>726.74</ele>
  <time>2026-09-01T20:00:06Z</time>
  <course>6.84</course>
  <speed>26.0</speed>
  <fix>3d</fix>
</trkpt>
<trkpt lat="-35.2798608" lon="148.9856598">
  <ele>726.15</ele>
  <time>2026-09-01T20:00:06Z</time>
  <course>5.96</course>
  <speed>26.02173130289374</speed>
  <fix>3d</fix>
</trkpt>
<trkpt lat="-35.2799068" lon="148.9856532">
  <ele>726.74</ele>
  <time>2026-09-01T20:00:06Z</time>
  <course>6.84</course>
  <speed>26.0</speed>
  <fix>3d</fix>
</trkpt>
<trkpt lat="-35.2798375" lon="148.9856632">
  <ele>725.96</ele>
  <time>2026-09-01T20:00:06Z</time>
  <course>5.96</course>
  <speed>26.011801167931452</speed>
  <fix>3d</fix>
</trkpt>
<trkpt lat="-35.2798604" lon="148.9856601">
  <ele>726.33</ele>
  <time>2026-09-01T20:00:06Z</time>
  <course>6.84</course>
  <speed>25.98</speed>
  <fix>3d</fix>
</trkpt>
<trkpt lat="-35.2798144" lon="148.9856666">
  <ele>725.76</ele>
  <time>2026-09-01T20:00:06Z</time>
  <course>6.0</course>
  <speed>26.00187108651991</speed>
  <fix>3d</fix>
</trkpt>
<trkpt lat="-35.2798604" lon="148.9856601">
  <ele>726.33</ele>
  <time>2026-09-01T20:00:06Z</time>
  <course>6.84</course>
  <speed>25.98</speed>
  <fix>3d</fix>
</trkpt>
<trkpt lat="-35.2797913" lon="148.98567">
  <ele>725.56</ele>
  <time>2026-09-01T20:00:06Z</time>
  <course>5.99</course>
  <speed>25.982011084594664</speed>
  <fix>3d</fix>
</trkpt>
<trkpt lat="-35.2798141" lon="148.9856668">
  <ele>725.94</ele>
  <time>2026-09-01T20:00:06Z</time>
  <course>6.83</course>
  <speed>25.96</speed>
  <fix>3d</fix>
</trkpt>
<trkpt lat="-35.2797683" lon="148.9856733">
  <ele>725.36</ele>
  <time>2026-09-01T20:00:06Z</time>
  <course>5.94</course>
  <speed>25.972081164203995</speed>
  <fix>3d</fix>
</trkpt>
<trkpt lat="-35.2798141" lon="148.9856668">
  <ele>725.94</ele>
  <time>2026-09-01T20:00:06Z</time>
  <course>6.83</course>
  <speed>25.96</speed>
  <fix>3d</fix>
</trkpt>
<trkpt lat="-35.2797452" lon="148.9856767">
  <ele>725.16</ele>
  <time>2026-09-01T20:00:06Z</time>
  <course>5.93</course>
  <speed>25.951040441569965</speed>
  <fix>3d</fix>
</trkpt>
<trkpt lat="-35.2797678" lon="148.9856737">
  <ele>725.54</ele>
  <time>2026-09-01T20:00:06Z</time>
  <course>6.83</course>
  <speed>25.93</speed>
  <fix>3d</fix>
</trkpt>
<trkpt lat="-35.2797221" lon="148.9856801">
  <ele>724.96</ele>
  <time>2026-09-01T20:00:06Z</time>
  <course>5.96</course>
  <speed>25.941110230674397</speed>
  <fix>3d</fix>
</trkpt>
<trkpt lat="-35.2797678" lon="148.9856737">
  <ele>725.54</ele>
  <time>2026-09-01T20:00:06Z</time>
  <course>6.83</course>
  <speed>25.93</speed>
  <fix>3d</fix>
</trkpt>
<trkpt lat="-35.279699" lon="148.9856835">
  <ele>724.76</ele>
  <time>2026-09-01T20:00:06Z</time>
  <course>5.94</course>
  <speed>25.93118007341741</speed>
  <fix>3d</fix>
</trkpt>
<trkpt lat="-35.2797216" lon="148.9856804">
  <ele>725.15</ele>
  <time>2026-09-01T20:00:06Z</time>
  <course>6.82</course>
  <speed>25.91</speed>
  <fix>3d</fix>
</trkpt>
<trkpt lat="-35.2796758" lon="148.9856869">
  <ele>724.56</ele>
  <time>2026-09-01T20:00:06Z</time>
  <course>5.94</course>
  <speed>25.921249969860636</speed>
  <fix>3d</fix>
</trkpt>
<trkpt lat="-35.2797216" lon="148.9856804">
  <ele>725.15</ele>
  <time>2026-09-01T20:00:06Z</time>
  <course>6.82</course>
  <speed>25.91</speed>
  <fix>3d</fix>
</trkpt>
<trkpt lat="-35.2796527" lon="148.9856903">
  <ele>724.36</ele>
  <time>2026-09-01T20:00:06Z</time>
  <course>5.93</course>
  <speed>25.91014087186714</speed>
  <fix>3d</fix>
</trkpt>
<trkpt lat="-35.2796754" lon="148.9856872">
  <ele>724.74</ele>
  <time>2026-09-01T20:00:06Z</time>
  <course>6.82</course>
  <speed>25.88</speed>
  <fix>3d</fix>
</trkpt>
<trkpt lat="-35.2796295" lon="148.9856937">
  <ele>724.16</ele>
  <time>2026-09-01T20:00:06Z</time>
  <course>5.95</course>
  <speed>25.900210423855633</speed>
  <fix>3d</fix>
</trkpt>
<trkpt lat="-35.2796754" lon="148.9856872">
  <ele>724.74</ele>
  <time>2026-09-01T20:00:06Z</time>
  <course>6.82</course>
  <speed>25.88</speed>
  <fix>3d</fix>
</trkpt>
<trkpt lat="-35.2796063" lon="148.9856971">
  <ele>723.95</ele>
  <time>2026-09-01T20:00:06Z</time>
  <course>5.93</course>
  <speed>25.900210423855633</speed>
  <fix>3d</fix>
</trkpt>
<trkpt lat="-35.2796292" lon="148.985694">
  <ele>724.33</ele>
  <time>2026-09-01T20:00:06Z</time>
  <course>6.81</course>
  <speed>25.86</speed>
  <fix>3d</fix>
</trkpt>
<trkpt lat="-35.2795832" lon="148.9857005">
  <ele>723.75</ele>
  <time>2026-09-01T20:00:06Z</time>
  <course>5.93</course>
  <speed>25.900210423855633</speed>
  <fix>3d</fix>
</trkpt>
<trkpt lat="-35.2796292" lon="148.985694">
  <ele>724.33</ele>
  <time>2026-09-01T20:00:06Z</time>
  <course>6.81</course>
  <speed>25.86</speed>
  <fix>3d</fix>
</trkpt>
<trkpt lat="-35.27956" lon="148.9857039">
  <ele>723.55</ele>
  <time>2026-09-01T20:00:06Z</time>
  <course>5.9</course>
  <speed>25.8891038856118</speed>
  <fix>3d</fix>
</trkpt>
<trkpt lat="-35.279583" lon="148.9857007">
  <ele>723.93</ele>
  <time>2026-09-01T20:00:06Z</time>
  <course>6.8</course>
  <speed>25.84</speed>
  <fix>3d</fix>
</trkpt>
<trkpt lat="-35.279537" lon="148.9857072">
  <ele>723.34</ele>
  <time>2026-09-01T20:00:06Z</time>
  <course>5.9</course>
  <speed>25.87917309343558</speed>
  <fix>3d</fix>
</trkpt>
<trkpt lat="-35.279583" lon="148.9857007">
  <ele>723.93</ele>
  <time>2026-09-01T20:00:06Z</time>
  <course>6.8</course>
  <speed>25.84</speed>
  <fix>3d</fix>
</trkpt>
<trkpt lat="-35.279514" lon="148.9857106">
  <ele>723.14</ele>
  <time>2026-09-01T20:00:06Z</time>
  <course>5.91</course>
  <speed>25.868069120056102</speed>
  <fix>3d</fix>
</trkpt>
<trkpt lat="-35.2795369" lon="148.9857074">
  <ele>723.52</ele>
  <time>2026-09-01T20:00:06Z</time>
  <course>6.79</course>
  <speed>25.83</speed>
  <fix>3d</fix>
</trkpt>
<trkpt lat="-35.2794911" lon="148.9857139">
  <ele>722.94</ele>
  <time>2026-09-01T20:00:06Z</time>
  <course>5.91</course>
  <speed>25.84820690105989</speed>
  <fix>3d</fix>
</trkpt>
<trkpt lat="-35.2795369" lon="148.9857074">
  <ele>723.52</ele>
  <time>2026-09-01T20:00:06Z</time>
  <course>6.79</course>
  <speed>25.83</speed>
  <fix>3d</fix>
</trkpt>
<trkpt lat="-35.2794682" lon="148.9857172">
  <ele>722.73</ele>
  <time>2026-09-01T20:00:06Z</time>
  <course>5.9</course>
  <speed>25.838275871272835</speed>
  <fix>3d</fix>
</trkpt>
<trkpt lat="-35.2794909" lon="148.9857141">
  <ele>723.11</ele>
  <time>2026-09-01T20:00:06Z</time>
  <course>6.78</course>
  <speed>25.81</speed>
  <fix>3d</fix>
</trkpt>
<trkpt lat="-35.2794453" lon="148.9857206">
  <ele>722.52</ele>
  <time>2026-09-01T20:00:06Z</time>
  <course>5.86</course>
  <speed>25.828344894708216</speed>
  <fix>3d</fix>
</trkpt>
<trkpt lat="-35.2794909" lon="148.9857141">
  <ele>723.11</ele>
  <time>2026-09-01T20:00:06Z</time>
  <course>6.78</course>
  <speed>25.81</speed>
  <fix>3d</fix>
</trkpt>
<trkpt lat="-35.2794224" lon="148.9857239">
  <ele>722.31</ele>
  <time>2026-09-01T20:00:06Z</time>
  <course>5.87</course>
  <speed>25.817242300447198</speed>
  <fix>3d</fix>
</trkpt>
<trkpt lat="-35.2794449" lon="148.9857208">
  <ele>722.69</ele>
  <time>2026-09-01T20:00:06Z</time>
  <course>6.77</course>
  <speed>25.79</speed>
  <fix>3d</fix>
</trkpt>
<trkpt lat="-35.2793995" lon="148.9857272">
  <ele>722.11</ele>
  <time>2026-09-01T20:00:06Z</time>
  <course>5.91</course>
  <speed>25.807310979642956</speed>
  <fix>3d</fix>
</trkpt>
<trkpt lat="-35.2794449" lon="148.9857208">
  <ele>722.69</ele>
  <time>2026-09-01T20:00:06Z</time>
  <course>6.77</course>
  <speed>25.79</speed>
  <fix>3d</fix>
</trkpt>
<trkpt lat="-35.2793765" lon="148.9857306">
  <ele>721.9</ele>
  <time>2026-09-01T20:00:06Z</time>
  <course>5.94</course>
  <speed>25.798552284963588</speed>
  <fix>3d</fix>
</trkpt>
<trkpt lat="-35.2793988" lon="148.9857275">
  <ele>722.28</ele>
  <time>2026-09-01T20:00:06Z</time>
  <course>6.78</course>
  <speed>25.78</speed>
  <fix>3d</fix>
</trkpt>
<trkpt lat="-35.2793536" lon="148.9857339">
  <ele>721.69</ele>
  <time>2026-09-01T20:00:06Z</time>
  <course>5.94</course>
  <speed>25.788621521903803</speed>
  <fix>3d</fix>
</trkpt>
<trkpt lat="-35.2793988" lon="148.9857275">
  <ele>722.28</ele>
  <time>2026-09-01T20:00:06Z</time>
  <course>6.78</course>
  <speed>25.78</speed>
  <fix>3d</fix>
</trkpt>
<trkpt lat="-35.2793307" lon="148.9857373">
  <ele>721.48</ele>
  <time>2026-09-01T20:00:06Z</time>
  <course>5.95</course>
  <speed>25.779868114480337</speed>
  <fix>3d</fix>
</trkpt>
<trkpt lat="-35.2793529" lon="148.9857343">
  <ele>721.86</ele>
  <time>2026-09-01T20:00:06Z</time>
  <course>6.8</course>
  <speed>25.78</speed>
  <fix>3d</fix>
</trkpt>
<trkpt lat="-35.2793077" lon="148.9857407">
  <ele>721.27</ele>
  <time>2026-09-01T20:00:06Z</time>
  <course>5.92</course>
  <speed>25.779868114480337</speed>
  <fix>3d</fix>
</trkpt>
<trkpt lat="-35.2793529" lon="148.9857343">
  <ele>721.86</ele>
  <time>2026-09-01T20:00:06Z</time>
  <course>6.8</course>
  <speed>25.78</speed>
  <fix>3d</fix>
</trkpt>
<trkpt lat="-35.2792847" lon="148.985744">
  <ele>721.06</ele>
  <time>2026-09-01T20:00:06Z</time>
  <course>5.92</course>
  <speed>25.78104924164259</speed>
  <fix>3d</fix>
</trkpt>
<trkpt lat="-35.2793068" lon="148.985741">
  <ele>721.44</ele>
  <time>2026-09-01T20:00:06Z</time>
  <course>6.82</course>
  <speed>25.77</speed>
  <fix>3d</fix>
</trkpt>
<trkpt lat="-35.2792617" lon="148.9857474">
  <ele>720.86</ele>
  <time>2026-09-01T20:00:06Z</time>
  <course>5.95</course>
  <speed>25.78104924164259</speed>
  <fix>3d</fix>
</trkpt>
<trkpt lat="-35.2793068" lon="148.985741">
  <ele>721.44</ele>
  <time>2026-09-01T20:00:06Z</time>
  <course>6.82</course>
  <speed>25.77</speed>
  <fix>3d</fix>
</trkpt>
<trkpt lat="-35.2792387" lon="148.9857508">
  <ele>720.65</ele>
  <time>2026-09-01T20:00:06Z</time>
  <course>5.96</course>
  <speed>25.78104924164259</speed>
  <fix>3d</fix>
</trkpt>
<trkpt lat="-35.2792609" lon="148.9857477">
  <ele>721.03</ele>
  <time>2026-09-01T20:00:06Z</time>
  <course>6.84</course>
  <speed>25.77</speed>
  <fix>3d</fix>
</trkpt>
<trkpt lat="-35.2792158" lon="148.9857542">
  <ele>720.45</ele>
  <time>2026-09-01T20:00:06Z</time>
  <course>5.97</course>
  <speed>25.772304902743954</speed>
  <fix>3d</fix>
</trkpt>
<trkpt lat="-35.2792609" lon="148.9857477">
  <ele>721.03</ele>
  <time>2026-09-01T20:00:06Z</time>
  <course>6.84</course>
  <speed>25.77</speed>
  <fix>3d</fix>
</trkpt>
<trkpt lat="-35.2791928" lon="148.9857575">
  <ele>720.25</ele>
  <time>2026-09-01T20:00:06Z</time>
  <course>5.99</course>
  <speed>25.782234193335533</speed>
  <fix>3d</fix>
</trkpt>
<trkpt lat="-35.279215" lon="148.9857545">
  <ele>720.62</ele>
  <time>2026-09-01T20:00:06Z</time>
  <course>6.85</course>
  <speed>25.77</speed>
  <fix>3d</fix>
</trkpt>
<trkpt lat="-35.2791699" lon="148.9857609">
  <ele>720.05</ele>
  <time>2026-09-01T20:00:06Z</time>
  <course>6.01</course>
  <speed>25.782234193335533</speed>
  <fix>3d</fix>
</trkpt>
<trkpt lat="-35.279215" lon="148.9857545">
  <ele>720.62</ele>
  <time>2026-09-01T20:00:06Z</time>
  <course>6.85</course>
  <speed>25.77</speed>
  <fix>3d</fix>
</trkpt>
<trkpt lat="-35.279147" lon="148.9857643">
  <ele>719.85</ele>
  <time>2026-09-01T20:00:06Z</time>
  <course>5.98</course>
  <speed>25.772304902743954</speed>
  <fix>3d</fix>
</trkpt>
<trkpt lat="-35.2791689" lon="148.9857612">
  <ele>720.22</ele>
  <time>2026-09-01T20:00:06Z</time>
  <course>6.86</course>
  <speed>25.77</speed>
  <fix>3d</fix>
</trkpt>
<trkpt lat="-35.279124" lon="148.9857677">
  <ele>719.65</ele>
  <time>2026-09-01T20:00:06Z</time>
  <course>5.97</course>
  <speed>25.77349413641852</speed>
  <fix>3d</fix>
</trkpt>
<trkpt lat="-35.2791689" lon="148.9857612">
  <ele>720.22</ele>
  <time>2026-09-01T20:00:06Z</time>
  <course>6.86</course>
  <speed>25.77</speed>
  <fix>3d</fix>
</trkpt>
<trkpt lat="-35.279101" lon="148.9857711">
  <ele>719.45</ele>
  <time>2026-09-01T20:00:06Z</time>
  <course>5.96</course>
  <speed>25.772304902743954</speed>
  <fix>3d</fix>
</trkpt>
<trkpt lat="-35.2791229" lon="148.9857681">
  <ele>719.82</ele>
  <time>2026-09-01T20:00:06Z</time>
  <course>6.87</course>
  <speed>25.77</speed>
  <fix>3d</fix>
</trkpt>
<trkpt lat="-35.279078" lon="148.9857745">
  <ele>719.25</ele>
  <time>2026-09-01T20:00:06Z</time>
  <course>5.98</course>
  <speed>25.77349413641852</speed>
  <fix>3d</fix>
</trkpt>
<trkpt lat="-35.2791229" lon="148.9857681">
  <ele>719.82</ele>
  <time>2026-09-01T20:00:06Z</time>
  <course>6.87</course>
  <speed>25.77</speed>
  <fix>3d</fix>
</trkpt>
<trkpt lat="-35.279055" lon="148.9857779">
  <ele>719.06</ele>
  <time>2026-09-01T20:00:06Z</time>
  <course>5.97</course>
  <speed>25.77349413641852</speed>
  <fix>3d</fix>
</trkpt>
<trkpt lat="-35.2790769" lon="148.9857749">
  <ele>719.43</ele>
  <time>2026-09-01T20:00:06Z</time>
  <course>6.87</course>
  <speed>25.77</speed>
  <fix>3d</fix>
</trkpt>
<trkpt lat="-35.279032" lon="148.9857813">
  <ele>718.87</ele>
  <time>2026-09-01T20:00:06Z</time>
  <course>5.96</course>
  <speed>25.783422969031868</speed>
  <fix>3d</fix>
</trkpt>
<trkpt lat="-35.2790769" lon="148.9857749">
  <ele>719.43</ele>
  <time>2026-09-01T20:00:06Z</time>
  <course>6.87</course>
  <speed>25.77</speed>
  <fix>3d</fix>
</trkpt>
<trkpt lat="-35.279009" lon="148.9857847">
  <ele>718.68</ele>
  <time>2026-09-01T20:00:06Z</time>
  <course>5.97</course>
  <speed>25.782234193335533</speed>
  <fix>3d</fix>
</trkpt>
<trkpt lat="-35.2790309" lon="148.9857817">
  <ele>719.05</ele>
  <time>2026-09-01T20:00:06Z</time>
  <course>6.87</course>
  <speed>25.77</speed>
  <fix>3d</fix>
</trkpt>
<trkpt lat="-35.278986" lon="148.9857881">
  <ele>718.49</ele>
  <time>2026-09-01T20:00:06Z</time>
  <course>6.02</course>
  <speed>25.783422969031868</speed>
  <fix>3d</fix>
</trkpt>
<trkpt lat="-35.2790309" lon="148.9857817">
  <ele>719.05</ele>
  <time>2026-09-01T20:00:06Z</time>
  <course>6.87</course>
  <speed>25.77</speed>
  <fix>3d</fix>
</trkpt>
<trkpt lat="-35.278963" lon="148.9857915">
  <ele>718.29</ele>
  <time>2026-09-01T20:00:06Z</time>
  <course>6.06</course>
  <speed>25.783422969031868</speed>
  <fix>3d</fix>
</trkpt>
<trkpt lat="-35.278985" lon="148.9857884">
  <ele>718.67</ele>
  <time>2026-09-01T20:00:06Z</time>
  <course>6.87</course>
  <speed>25.77</speed>
  <fix>3d</fix>
</trkpt>
<trkpt lat="-35.27894" lon="148.9857949">
  <ele>718.1</ele>
  <time>2026-09-01T20:00:06Z</time>
  <course>6.03</course>
  <speed>25.783422969031868</speed>
  <fix>3d</fix>
</trkpt>
<trkpt lat="-35.278985" lon="148.9857884">
  <ele>718.67</ele>
  <time>2026-09-01T20:00:06Z</time>
  <course>6.87</course>
  <speed>25.77</speed>
  <fix>3d</fix>
</trkpt>
<trkpt lat="-35.278917" lon="148.9857983">
  <ele>717.91</ele>
  <time>2026-09-01T20:00:06Z</time>
  <course>6.01</course>
  <speed>25.783422969031868</speed>
  <fix>3d</fix>
</trkpt>
<trkpt lat="-35.278939" lon="148.9857953">
  <ele>718.29</ele>
  <time>2026-09-01T20:00:06Z</time>
  <course>6.88</course>
  <speed>25.77</speed>
  <fix>3d</fix>
</trkpt>
<trkpt lat="-35.2788942" lon="148.9858017">
  <ele>717.72</ele>
  <time>2026-09-01T20:00:06Z</time>
  <course>5.98</course>
  <speed>25.783422969031868</speed>
  <fix>3d</fix>
</trkpt>
<trkpt lat="-35.278939" lon="148.9857953">
  <ele>718.29</ele>
  <time>2026-09-01T20:00:06Z</time>
  <course>6.88</course>
  <speed>25.77</speed>
  <fix>3d</fix>
</trkpt>
<trkpt lat="-35.2788712" lon="148.9858051">
  <ele>717.53</ele>
  <time>2026-09-01T20:00:06Z</time>
  <course>5.94</course>
  <speed>25.783422969031868</speed>
  <fix>3d</fix>
</trkpt>
<trkpt lat="-35.2788931" lon="148.9858021">
  <ele>717.91</ele>
  <time>2026-09-01T20:00:06Z</time>
  <course>6.88</course>
  <speed>25.77</speed>
  <fix>3d</fix>
</trkpt>
<trkpt lat="-35.2788482" lon="148.9858085">
  <ele>717.35</ele>
  <time>2026-09-01T20:00:06Z</time>
  <course>5.95</course>
  <speed>25.792163538563415</speed>
  <fix>3d</fix>
</trkpt>
<trkpt lat="-35.2788931" lon="148.9858021">
  <ele>717.91</ele>
  <time>2026-09-01T20:00:06Z</time>
  <course>6.88</course>
  <speed>25.77</speed>
  <fix>3d</fix>
</trkpt>
<trkpt lat="-35.2788252" lon="148.9858119">
  <ele>717.16</ele>
  <time>2026-09-01T20:00:06Z</time>
  <course>5.95</course>
  <speed>25.792163538563415</speed>
  <fix>3d</fix>
</trkpt>
<trkpt lat="-35.2788471" lon="148.9858089">
  <ele>717.54</ele>
  <time>2026-09-01T20:00:06Z</time>
  <course>6.86</course>
  <speed>25.77</speed>
  <fix>3d</fix>
</trkpt>
<trkpt lat="-35.278802" lon="148.9858153">
  <ele>716.98</ele>
  <time>2026-09-01T20:00:06Z</time>
  <course>5.95</course>
  <speed>25.79097904306853</speed>
  <fix>3d</fix>
</trkpt>
<trkpt lat="-35.2788471" lon="148.9858089">
  <ele>717.54</ele>
  <time>2026-09-01T20:00:06Z</time>
  <course>6.86</course>
  <speed>25.77</speed>
  <fix>3d</fix>
</trkpt>
<trkpt lat="-35.278779" lon="148.9858187">
  <ele>716.8</ele>
  <time>2026-09-01T20:00:06Z</time>
  <course>5.94</course>
  <speed>25.79097904306853</speed>
  <fix>3d</fix>
</trkpt>
<trkpt lat="-35.2788011" lon="148.9858156">
  <ele>717.18</ele>
  <time>2026-09-01T20:00:06Z</time>
  <course>6.83</course>
  <speed>25.77</speed>
  <fix>3d</fix>
</trkpt>
<trkpt lat="-35.278756" lon="148.9858221">
  <ele>716.62</ele>
  <time>2026-09-01T20:00:06Z</time>
  <course>5.92</course>
  <speed>25.789798370673626</speed>
  <fix>3d</fix>
</trkpt>
<trkpt lat="-35.2788011" lon="148.9858156">
  <ele>717.18</ele>
  <time>2026-09-01T20:00:06Z</time>
  <course>6.83</course>
  <speed>25.77</speed>
  <fix>3d</fix>
</trkpt>
<trkpt lat="-35.2787328" lon="148.9858254">
  <ele>716.44</ele>
  <time>2026-09-01T20:00:06Z</time>
  <course>5.91</course>
  <speed>25.788621521903803</speed>
  <fix>3d</fix>
</trkpt>
<trkpt lat="-35.2787552" lon="148.9858224">
  <ele>716.82</ele>
  <time>2026-09-01T20:00:06Z</time>
  <course>6.81</course>
  <speed>25.77</speed>
  <fix>3d</fix>
</trkpt>
<trkpt lat="-35.2787098" lon="148.9858288">
  <ele>716.26</ele>
  <time>2026-09-01T20:00:06Z</time>
  <course>5.9</course>
  <speed>25.788621521903803</speed>
  <fix>3d</fix>
</trkpt>
<trkpt lat="-35.2787552" lon="148.9858224">
  <ele>716.82</ele>
  <time>2026-09-01T20:00:06Z</time>
  <course>6.81</course>
  <speed>25.77</speed>
  <fix>3d</fix>
</trkpt>
<trkpt lat="-35.2786868" lon="148.9858322">
  <ele>716.08</ele>
  <time>2026-09-01T20:00:06Z</time>
  <course>5.88</course>
  <speed>25.787448497282547</speed>
  <fix>3d</fix>
</trkpt>
<trkpt lat="-35.2787093" lon="148.9858291">
  <ele>716.46</ele>
  <time>2026-09-01T20:00:06Z</time>
  <course>6.78</course>
  <speed>25.77</speed>
  <fix>3d</fix>
</trkpt>
<trkpt lat="-35.2786638" lon="148.9858355">
  <ele>715.91</ele>
  <time>2026-09-01T20:00:06Z</time>
  <course>5.86</course>
  <speed>25.787448497282547</speed>
  <fix>3d</fix>
</trkpt>
<trkpt lat="-35.2787093" lon="148.9858291">
  <ele>716.46</ele>
  <time>2026-09-01T20:00:06Z</time>
  <course>6.78</course>
  <speed>25.77</speed>
  <fix>3d</fix>
</trkpt>
<trkpt lat="-35.2786408" lon="148.9858389">
  <ele>715.73</ele>
  <time>2026-09-01T20:00:06Z</time>
  <course>5.9</course>
  <speed>25.797379711900977</speed>
  <fix>3d</fix>
</trkpt>
<trkpt lat="-35.2786631" lon="148.9858358">
  <ele>716.1</ele>
  <time>2026-09-01T20:00:06Z</time>
  <course>6.76</course>
  <speed>25.76</speed>
  <fix>3d</fix>
</trkpt>
<trkpt lat="-35.2786177" lon="148.9858422">
  <ele>715.55</ele>
  <time>2026-09-01T20:00:06Z</time>
  <course>5.93</course>
  <speed>25.797379711900977</speed>
  <fix>3d</fix>
</trkpt>
<trkpt lat="-35.2786631" lon="148.9858358">
  <ele>716.1</ele>
  <time>2026-09-01T20:00:06Z</time>
  <course>6.76</course>
  <speed>25.76</speed>
  <fix>3d</fix>
</trkpt>
<trkpt lat="-35.2785947" lon="148.9858455">
  <ele>715.38</ele>
  <time>2026-09-01T20:00:06Z</time>
  <course>5.94</course>
  <speed>25.797379711900977</speed>
  <fix>3d</fix>
</trkpt>
<trkpt lat="-35.2786171" lon="148.9858425">
  <ele>715.75</ele>
  <time>2026-09-01T20:00:06Z</time>
  <course>6.75</course>
  <speed>25.76</speed>
  <fix>3d</fix>
</trkpt>
<trkpt lat="-35.2785717" lon="148.9858489">
  <ele>715.2</ele>
  <time>2026-09-01T20:00:06Z</time>
  <course>5.91</course>
  <speed>25.797379711900977</speed>
  <fix>3d</fix>
</trkpt>
<trkpt lat="-35.2786171" lon="148.9858425">
  <ele>715.75</ele>
  <time>2026-09-01T20:00:06Z</time>
  <course>6.75</course>
  <speed>25.76</speed>
  <fix>3d</fix>
</trkpt>
<trkpt lat="-35.2785486" lon="148.9858522">
  <ele>715.03</ele>
  <time>2026-09-01T20:00:06Z</time>
  <course>5.89</course>
  <speed>25.796210962077357</speed>
  <fix>3d</fix>
</trkpt>
<trkpt lat="-35.2785712" lon="148.9858491">
  <ele>715.41</ele>
  <time>2026-09-01T20:00:06Z</time>
  <course>6.75</course>
  <speed>25.76</speed>
  <fix>3d</fix>
</trkpt>
<trkpt lat="-35.2785256" lon="148.9858556">
  <ele>714.86</ele>
  <time>2026-09-01T20:00:06Z</time>
  <course>5.86</course>
  <speed>25.796210962077357</speed>
  <fix>3d</fix>
</trkpt>
<trkpt lat="-35.2785712" lon="148.9858491">
  <ele>715.41</ele>
  <time>2026-09-01T20:00:06Z</time>
  <course>6.75</course>
  <speed>25.76</speed>
  <fix>3d</fix>
</trkpt>
<trkpt lat="-35.2785026" lon="148.9858589">
  <ele>714.69</ele>
  <time>2026-09-01T20:00:06Z</time>
  <course>5.9</course>
  <speed>25.806142679602466</speed>
  <fix>3d</fix>
</trkpt>
<trkpt lat="-35.2785252" lon="148.9858558">
  <ele>715.07</ele>
  <time>2026-09-01T20:00:06Z</time>
  <course>6.74</course>
  <speed>25.76</speed>
  <fix>3d</fix>
</trkpt>
<trkpt lat="-35.2784795" lon="148.9858622">
  <ele>714.52</ele>
  <time>2026-09-01T20:00:06Z</time>
  <course>5.91</course>
  <speed>25.796210962077357</speed>
  <fix>3d</fix>
</trkpt>
<trkpt lat="-35.2785252" lon="148.9858558">
  <ele>715.07</ele>
  <time>2026-09-01T20:00:06Z</time>
  <course>6.74</course>
  <speed>25.76</speed>
  <fix>3d</fix>
</trkpt>
<trkpt lat="-35.2784565" lon="148.9858656">
  <ele>714.35</ele>
  <time>2026-09-01T20:00:06Z</time>
  <course>5.87</course>
  <speed>25.806142679602466</speed>
  <fix>3d</fix>
</trkpt>
<trkpt lat="-35.2784793" lon="148.9858625">
  <ele>714.73</ele>
  <time>2026-09-01T20:00:06Z</time>
  <course>6.74</course>
  <speed>25.76</speed>
  <fix>3d</fix>
</trkpt>
<trkpt lat="-35.2784335" lon="148.9858689">
  <ele>714.18</ele>
  <time>2026-09-01T20:00:06Z</time>
  <course>5.83</course>
  <speed>25.806142679602466</speed>
  <fix>3d</fix>
</trkpt>
<trkpt lat="-35.2784793" lon="148.9858625">
  <ele>714.73</ele>
  <time>2026-09-01T20:00:06Z</time>
  <course>6.74</course>
  <speed>25.76</speed>
  <fix>3d</fix>
</trkpt>
<trkpt lat="-35.2784107" lon="148.9858722">
  <ele>714.01</ele>
  <time>2026-09-01T20:00:06Z</time>
  <course>5.84</course>
  <speed>25.806142679602466</speed>
  <fix>3d</fix>
</trkpt>
<trkpt lat="-35.2784333" lon="148.9858691">
  <ele>714.39</ele>
  <time>2026-09-01T20:00:06Z</time>
  <course>6.74</course>
  <speed>25.76</speed>
  <fix>3d</fix>
</trkpt>
<trkpt lat="-35.2783876" lon="148.9858755">
  <ele>713.84</ele>
  <time>2026-09-01T20:00:06Z</time>
  <course>5.84</course>
  <speed>25.806142679602466</speed>
  <fix>3d</fix>
</trkpt>
<trkpt lat="-35.2784333" lon="148.9858691">
  <ele>714.39</ele>
  <time>2026-09-01T20:00:06Z</time>
  <course>6.74</course>
  <speed>25.76</speed>
  <fix>3d</fix>
</trkpt>
<trkpt lat="-35.2783646" lon="148.9858789">
  <ele>713.68</ele>
  <time>2026-09-01T20:00:06Z</time>
  <course>5.88</course>
  <speed>25.80497820188965</speed>
  <fix>3d</fix>
</trkpt>
<trkpt lat="-35.2783874" lon="148.9858758">
  <ele>714.06</ele>
  <time>2026-09-01T20:00:06Z</time>
  <course>6.73</course>
  <speed>25.76</speed>
  <fix>3d</fix>
</trkpt>
<trkpt lat="-35.2783416" lon="148.9858822">
  <ele>713.51</ele>
  <time>2026-09-01T20:00:06Z</time>
  <course>5.89</course>
  <speed>25.81491042014285</speed>
  <fix>3d</fix>
</trkpt>
<trkpt lat="-35.2783874" lon="148.9858758">
  <ele>714.06</ele>
  <time>2026-09-01T20:00:06Z</time>
  <course>6.73</course>
  <speed>25.76</speed>
  <fix>3d</fix>
</trkpt>
<trkpt lat="-35.2783184" lon="148.9858856">
  <ele>713.35</ele>
  <time>2026-09-01T20:00:06Z</time>
  <course>5.9</course>
  <speed>25.806142679602466</speed>
  <fix>3d</fix>
</trkpt>
<trkpt lat="-35.2783414" lon="148.9858824">
  <ele>713.73</ele>
  <time>2026-09-01T20:00:06Z</time>
  <course>6.73</course>
  <speed>25.76</speed>
  <fix>3d</fix>
</trkpt>
<trkpt lat="-35.2782954" lon="148.9858889">
  <ele>713.19</ele>
  <time>2026-09-01T20:00:06Z</time>
  <course>5.9</course>
  <speed>25.806142679602466</speed>
  <fix>3d</fix>
</trkpt>
<trkpt lat="-35.2783414" lon="148.9858824">
  <ele>713.73</ele>
  <time>2026-09-01T20:00:06Z</time>
  <course>6.73</course>
  <speed>25.76</speed>
  <fix>3d</fix>
</trkpt>
<trkpt lat="-35.2782723" lon="148.9858922">
  <ele>713.03</ele>
  <time>2026-09-01T20:00:06Z</time>
  <course>5.91</course>
  <speed>25.807310979642956</speed>
  <fix>3d</fix>
</trkpt>
<trkpt lat="-35.2782955" lon="148.9858891">
  <ele>713.4</ele>
  <time>2026-09-01T20:00:06Z</time>
  <course>6.74</course>
  <speed>25.76</speed>
  <fix>3d</fix>
</trkpt>
<trkpt lat="-35.2782493" lon="148.9858956">
  <ele>712.86</ele>
  <time>2026-09-01T20:00:07Z</time>
  <course>5.9</course>
  <speed>25.807310979642956</speed>
  <fix>3d</fix>
</trkpt>
<trkpt lat="-35.2782955" lon="148.9858891">
  <ele>713.4</ele>
  <time>2026-09-01T20:00:07Z</time>
  <course>6.74</course>
  <speed>25.76</speed>
  <fix>3d</fix>
</trkpt>
<trkpt lat="-35.2782263" lon="148.9858989">
  <ele>712.7</ele>
  <time>2026-09-01T20:00:07Z</time>
  <course>5.92</course>
  <speed>25.807310979642956</speed>
  <fix>3d</fix>
</trkpt>
<trkpt lat="-35.2782495" lon="148.9858957">
  <ele>713.07</ele>
  <time>2026-09-01T20:00:07Z</time>
  <course>6.76</course>
  <speed>25.76</speed>
  <fix>3d</fix>
</trkpt>
<trkpt lat="-35.2782034" lon="148.9859023">
  <ele>712.54</ele>
  <time>2026-09-01T20:00:07Z</time>
  <course>5.93</course>
  <speed>25.807310979642956</speed>
  <fix>3d</fix>
</trkpt>
<trkpt lat="-35.2782495" lon="148.9858957">
  <ele>713.07</ele>
  <time>2026-09-01T20:00:07Z</time>
  <course>6.76</course>
  <speed>25.76</speed>
  <fix>3d</fix>
</trkpt>
<trkpt lat="-35.2781804" lon="148.9859056">
  <ele>712.37</ele>
  <time>2026-09-01T20:00:07Z</time>
  <course>5.92</course>
  <speed>25.798552284963588</speed>
  <fix>3d</fix>
</trkpt>
<trkpt lat="-35.2782036" lon="148.9859024">
  <ele>712.75</ele>
  <time>2026-09-01T20:00:07Z</time>
  <course>6.77</course>
  <speed>25.75</speed>
  <fix>3d</fix>
</trkpt>
<trkpt lat="-35.2781574" lon="148.985909">
  <ele>712.21</ele>
  <time>2026-09-01T20:00:07Z</time>
  <course>5.94</course>
  <speed>25.798552284963588</speed>
  <fix>3d</fix>
</trkpt>
<trkpt lat="-35.2782036" lon="148.9859024">
  <ele>712.75</ele>
  <time>2026-09-01T20:00:07Z</time>
  <course>6.77</course>
  <speed>25.75</speed>
  <fix>3d</fix>
</trkpt>
<trkpt lat="-35.2781344" lon="148.9859123">
  <ele>712.05</ele>
  <time>2026-09-01T20:00:07Z</time>
  <course>5.93</course>
  <speed>25.798552284963588</speed>
  <fix>3d</fix>
</trkpt>
<trkpt lat="-35.2781576" lon="148.9859091">
  <ele>712.42</ele>
  <time>2026-09-01T20:00:07Z</time>
  <course>6.78</course>
  <speed>25.75</speed>
  <fix>3d</fix>
</trkpt>
<trkpt lat="-35.2781114" lon="148.9859157">
  <ele>711.89</ele>
  <time>2026-09-01T20:00:07Z</time>
  <course>5.91</course>
  <speed>25.798552284963588</speed>
  <fix>3d</fix>
</trkpt>
<trkpt lat="-35.2781576" lon="148.9859091">
  <ele>712.42</ele>
  <time>2026-09-01T20:00:07Z</time>
  <course>6.78</course>
  <speed>25.75</speed>
  <fix>3d</fix>
</trkpt>
<trkpt lat="-35.2780883" lon="148.985919">
  <ele>711.73</ele>
  <time>2026-09-01T20:00:07Z</time>
  <course>5.87</course>
  <speed>25.80965904462901</speed>
  <fix>3d</fix>
</trkpt>
<trkpt lat="-35.2781115" lon="148.9859158">
  <ele>712.09</ele>
  <time>2026-09-01T20:00:07Z</time>
  <course>6.79</course>
  <speed>25.75</speed>
  <fix>3d</fix>
</trkpt>
<trkpt lat="-35.2780653" lon="148.9859224">
  <ele>711.57</ele>
  <time>2026-09-01T20:00:07Z</time>
  <course>5.86</course>
  <speed>25.798552284963588</speed>
  <fix>3d</fix>
</trkpt>
<trkpt lat="-35.2781115" lon="148.9859158">
  <ele>712.09</ele>
  <time>2026-09-01T20:00:07Z</time>
  <course>6.79</course>
  <speed>25.75</speed>
  <fix>3d</fix>
</trkpt>
<trkpt lat="-35.2780423" lon="148.9859257">
  <ele>711.41</ele>
  <time>2026-09-01T20:00:07Z</time>
  <course>5.88</course>
  <speed>25.798552284963588</speed>
  <fix>3d</fix>
</trkpt>
<trkpt lat="-35.2780656" lon="148.9859225">
  <ele>711.77</ele>
  <time>2026-09-01T20:00:07Z</time>
  <course>6.79</course>
  <speed>25.76</speed>
  <fix>3d</fix>
</trkpt>
<trkpt lat="-35.2780194" lon="148.9859291">
  <ele>711.24</ele>
  <time>2026-09-01T20:00:07Z</time>
  <course>5.86</course>
  <speed>25.798552284963588</speed>
  <fix>3d</fix>
</trkpt>
<trkpt lat="-35.2780656" lon="148.9859225">
  <ele>711.77</ele>
  <time>2026-09-01T20:00:07Z</time>
  <course>6.79</course>
  <speed>25.76</speed>
  <fix>3d</fix>
</trkpt>
<trkpt lat="-35.2779965" lon="148.9859324">
  <ele>711.08</ele>
  <time>2026-09-01T20:00:07Z</time>
  <course>5.9</course>
  <speed>25.797379711900977</speed>
  <fix>3d</fix>
</trkpt>
<trkpt lat="-35.2780197" lon="148.9859292">
  <ele>711.44</ele>
  <time>2026-09-01T20:00:07Z</time>
  <course>6.77</course>
  <speed>25.76</speed>
  <fix>3d</fix>
</trkpt>
<trkpt lat="-35.2779737" lon="148.9859357">
  <ele>710.92</ele>
  <time>2026-09-01T20:00:07Z</time>
  <course>5.91</course>
  <speed>25.787448497282547</speed>
  <fix>3d</fix>
</trkpt>
<trkpt lat="-35.2780197" lon="148.9859292">
  <ele>711.44</ele>
  <time>2026-09-01T20:00:07Z</time>
  <course>6.77</course>
  <speed>25.76</speed>
  <fix>3d</fix>
</trkpt>
<trkpt lat="-35.277951" lon="148.985939">
  <ele>710.76</ele>
  <time>2026-09-01T20:00:07Z</time>
  <course>5.97</course>
  <speed>25.787448497282547</speed>
  <fix>3d</fix>
</trkpt>
<trkpt lat="-35.2779737" lon="148.9859359">
  <ele>711.12</ele>
  <time>2026-09-01T20:00:07Z</time>
  <course>6.76</course>
  <speed>25.76</speed>
  <fix>3d</fix>
</trkpt>
<trkpt lat="-35.277928" lon="148.9859424">
  <ele>710.6</ele>
  <time>2026-09-01T20:00:07Z</time>
  <course>5.97</course>
  <speed>25.787448497282547</speed>
  <fix>3d</fix>
</trkpt>
<trkpt lat="-35.2779737" lon="148.9859359">
  <ele>711.12</ele>
  <time>2026-09-01T20:00:07Z</time>
  <course>6.76</course>
  <speed>25.76</speed>
  <fix>3d</fix>
</trkpt>
<trkpt lat="-35.277905" lon="148.9859457">
  <ele>710.44</ele>
  <time>2026-09-01T20:00:07Z</time>
  <course>5.96</course>
  <speed>25.787448497282547</speed>
  <fix>3d</fix>
</trkpt>
<trkpt lat="-35.2779278" lon="148.9859425">
  <ele>710.8</ele>
  <time>2026-09-01T20:00:07Z</time>
  <course>6.77</course>
  <speed>25.76</speed>
  <fix>3d</fix>
</trkpt>
<trkpt lat="-35.2778819" lon="148.9859491">
  <ele>710.28</ele>
  <time>2026-09-01T20:00:07Z</time>
  <course>5.91</course>
  <speed>25.787448497282547</speed>
  <fix>3d</fix>
</trkpt>
<trkpt lat="-35.2779278" lon="148.9859425">
  <ele>710.8</ele>
  <time>2026-09-01T20:00:07Z</time>
  <course>6.77</course>
  <speed>25.76</speed>
  <fix>3d</fix>
</trkpt>
<trkpt lat="-35.2778589" lon="148.9859524">
  <ele>710.12</ele>
  <time>2026-09-01T20:00:07Z</time>
  <course>5.86</course>
  <speed>25.797379711900977</speed>
  <fix>3d</fix>
</trkpt>
<trkpt lat="-35.2778818" lon="148.9859492">
  <ele>710.49</ele>
  <time>2026-09-01T20:00:07Z</time>
  <course>6.76</course>
  <speed>25.76</speed>
  <fix>3d</fix>
</trkpt>
<trkpt lat="-35.2778356" lon="148.9859558">
  <ele>709.97</ele>
  <time>2026-09-01T20:00:07Z</time>
  <course>5.89</course>
  <speed>25.796210962077357</speed>
  <fix>3d</fix>
</trkpt>
<trkpt lat="-35.2778818" lon="148.9859492">
  <ele>710.49</ele>
  <time>2026-09-01T20:00:07Z</time>
  <course>6.76</course>
  <speed>25.76</speed>
  <fix>3d</fix>
</trkpt>
<trkpt lat="-35.2778125" lon="148.9859591">
  <ele>709.81</ele>
  <time>2026-09-01T20:00:07Z</time>
  <course>5.94</course>
  <speed>25.806142679602466</speed>
  <fix>3d</fix>
</trkpt>
<trkpt lat="-35.2778359" lon="148.9859559">
  <ele>710.17</ele>
  <time>2026-09-01T20:00:07Z</time>
  <course>6.74</course>
  <speed>25.76</speed>
  <fix>3d</fix>
</trkpt>
<trkpt lat="-35.2777894" lon="148.9859625">
  <ele>709.66</ele>
  <time>2026-09-01T20:00:07Z</time>
  <course>5.96</course>
  <speed>25.806142679602466</speed>
  <fix>3d</fix>
</trkpt>
<trkpt lat="-35.2778359" lon="148.9859559">
  <ele>710.17</ele>
  <time>2026-09-01T20:00:07Z</time>
  <course>6.74</course>
  <speed>25.76</speed>
  <fix>3d</fix>
</trkpt>
<trkpt lat="-35.2777663" lon="148.9859658">
  <ele>709.5</ele>
  <time>2026-09-01T20:00:07Z</time>
  <course>5.91</course>
  <speed>25.816074449846166</speed>
  <fix>3d</fix>
</trkpt>
<trkpt lat="-35.2777899" lon="148.9859626">
  <ele>709.86</ele>
  <time>2026-09-01T20:00:07Z</time>
  <course>6.73</course>
  <speed>25.76</speed>
  <fix>3d</fix>
</trkpt>
<trkpt lat="-35.2777432" lon="148.9859692">
  <ele>709.35</ele>
  <time>2026-09-01T20:00:07Z</time>
  <course>5.88</course>
  <speed>25.816074449846166</speed>
  <fix>3d</fix>
</trkpt>
<trkpt lat="-35.2777899" lon="148.9859626">
  <ele>709.86</ele>
  <time>2026-09-01T20:00:07Z</time>
  <course>6.73</course>
  <speed>25.76</speed>
  <fix>3d</fix>
</trkpt>
<trkpt lat="-35.2777201" lon="148.9859725">
  <ele>709.19</ele>
  <time>2026-09-01T20:00:07Z</time>
  <course>5.91</course>
  <speed>25.82600627274763</speed>
  <fix>3d</fix>
</trkpt>
<trkpt lat="-35.2777439" lon="148.9859692">
  <ele>709.56</ele>
  <time>2026-09-01T20:00:07Z</time>
  <course>6.73</course>
  <speed>25.77</speed>
  <fix>3d</fix>
</trkpt>
<trkpt lat="-35.2776972" lon="148.9859758">
  <ele>709.04</ele>
  <time>2026-09-01T20:00:07Z</time>
  <course>5.94</course>
  <speed>25.816074449846166</speed>
  <fix>3d</fix>
</trkpt>
<trkpt lat="-35.2777439" lon="148.9859692">
  <ele>709.56</ele>
  <time>2026-09-01T20:00:07Z</time>
  <course>6.73</course>
  <speed>25.77</speed>
  <fix>3d</fix>
</trkpt>
<trkpt lat="-35.2776742" lon="148.9859791">
  <ele>708.89</ele>
  <time>2026-09-01T20:00:07Z</time>
  <course>5.93</course>
  <speed>25.816074449846166</speed>
  <fix>3d</fix>
</trkpt>
<trkpt lat="-35.2776979" lon="148.9859759">
  <ele>709.25</ele>
  <time>2026-09-01T20:00:07Z</time>
  <course>6.73</course>
  <speed>25.77</speed>
  <fix>3d</fix>
</trkpt>
<trkpt lat="-35.2776513" lon="148.9859824">
  <ele>708.75</ele>
  <time>2026-09-01T20:00:07Z</time>
  <course>5.9</course>
  <speed>25.806142679602466</speed>
  <fix>3d</fix>
</trkpt>
<trkpt lat="-35.2776979" lon="148.9859759">
  <ele>709.25</ele>
  <time>2026-09-01T20:00:07Z</time>
  <course>6.73</course>
  <speed>25.77</speed>
  <fix>3d</fix>
</trkpt>
<trkpt lat="-35.2776285" lon="148.9859858">
  <ele>708.6</ele>
  <time>2026-09-01T20:00:07Z</time>
  <course>5.87</course>
  <speed>25.806142679602466</speed>
  <fix>3d</fix>
</trkpt>
<trkpt lat="-35.2776518" lon="148.9859826">
  <ele>708.94</ele>
  <time>2026-09-01T20:00:07Z</time>
  <course>6.73</course>
  <speed>25.76</speed>
  <fix>3d</fix>
</trkpt>
<trkpt lat="-35.2776056" lon="148.9859891">
  <ele>708.45</ele>
  <time>2026-09-01T20:00:07Z</time>
  <course>5.9</course>
  <speed>25.79504603601242</speed>
  <fix>3d</fix>
</trkpt>
<trkpt lat="-35.2776518" lon="148.9859826">
  <ele>708.94</ele>
  <time>2026-09-01T20:00:07Z</time>
  <course>6.73</course>
  <speed>25.76</speed>
  <fix>3d</fix>
</trkpt>
<trkpt lat="-35.2775827" lon="148.9859924">
  <ele>708.3</ele>
  <time>2026-09-01T20:00:07Z</time>
  <course>5.92</course>
  <speed>25.78627929733175</speed>
  <fix>3d</fix>
</trkpt>
<trkpt lat="-35.2776059" lon="148.9859892">
  <ele>708.65</ele>
  <time>2026-09-01T20:00:07Z</time>
  <course>6.74</course>
  <speed>25.76</speed>
  <fix>3d</fix>
</trkpt>
<trkpt lat="-35.2775599" lon="148.9859957">
  <ele>708.16</ele>
  <time>2026-09-01T20:00:07Z</time>
  <course>5.91</course>
  <speed>25.78627929733175</speed>
  <fix>3d</fix>
</trkpt>
<trkpt lat="-35.2776059" lon="148.9859892">
  <ele>708.65</ele>
  <time>2026-09-01T20:00:07Z</time>
  <course>6.74</course>
  <speed>25.76</speed>
  <fix>3d</fix>
</trkpt>
<trkpt lat="-35.277537" lon="148.985999">
  <ele>708.02</ele>
  <time>2026-09-01T20:00:07Z</time>
  <course>5.88</course>
  <speed>25.776347685426654</speed>
  <fix>3d</fix>
</trkpt>
<trkpt lat="-35.2775599" lon="148.9859958">
  <ele>708.36</ele>
  <time>2026-09-01T20:00:07Z</time>
  <course>6.74</course>
  <speed>25.76</speed>
  <fix>3d</fix>
</trkpt>
<trkpt lat="-35.2775142" lon="148.9860023">
  <ele>707.87</ele>
  <time>2026-09-01T20:00:07Z</time>
  <course>5.91</course>
  <speed>25.775181861628056</speed>
  <fix>3d</fix>
</trkpt>
<trkpt lat="-35.2775599" lon="148.9859958">
  <ele>708.36</ele>
  <time>2026-09-01T20:00:07Z</time>
  <course>6.74</course>
  <speed>25.76</speed>
  <fix>3d</fix>
</trkpt>
<trkpt lat="-35.2774913" lon="148.9860056">
  <ele>707.73</ele>
  <time>2026-09-01T20:00:07Z</time>
  <course>5.94</course>
  <speed>25.76641612642317</speed>
  <fix>3d</fix>
</trkpt>
<trkpt lat="-35.2775139" lon="148.9860025">
  <ele>708.07</ele>
  <time>2026-09-01T20:00:07Z</time>
  <course>6.74</course>
  <speed>25.76</speed>
  <fix>3d</fix>
</trkpt>
<trkpt lat="-35.2774684" lon="148.9860089">
  <ele>707.59</ele>
  <time>2026-09-01T20:00:07Z</time>
  <course>5.98</course>
  <speed>25.76641612642317</speed>
  <fix>3d</fix>
</trkpt>
<trkpt lat="-35.2775139" lon="148.9860025">
  <ele>708.07</ele>
  <time>2026-09-01T20:00:07Z</time>
  <course>6.74</course>
  <speed>25.76</speed>
  <fix>3d</fix>
</trkpt>
<trkpt lat="-35.2774455" lon="148.9860123">
  <ele>707.45</ele>
  <time>2026-09-01T20:00:07Z</time>
  <course>5.97</course>
  <speed>25.76641612642317</speed>
  <fix>3d</fix>
</trkpt>
<trkpt lat="-35.277468" lon="148.9860092">
  <ele>707.79</ele>
  <time>2026-09-01T20:00:07Z</time>
  <course>6.75</course>
  <speed>25.76</speed>
  <fix>3d</fix>
</trkpt>
<trkpt lat="-35.2774226" lon="148.9860156">
  <ele>707.31</ele>
  <time>2026-09-01T20:00:07Z</time>
  <course>5.92</course>
  <speed>25.757655172783103</speed>
  <fix>3d</fix>
</trkpt>
<trkpt lat="-35.277468" lon="148.9860092">
  <ele>707.79</ele>
  <time>2026-09-01T20:00:07Z</time>
  <course>6.75</course>
  <speed>25.76</speed>
  <fix>3d</fix>
</trkpt>
<trkpt lat="-35.2773997" lon="148.9860189">
  <ele>707.18</ele>
  <time>2026-09-01T20:00:07Z</time>
  <course>5.9</course>
  <speed>25.757655172783103</speed>
  <fix>3d</fix>
</trkpt>
<trkpt lat="-35.277422" lon="148.9860158">
  <ele>707.51</ele>
  <time>2026-09-01T20:00:07Z</time>
  <course>6.77</course>
  <speed>25.77</speed>
  <fix>3d</fix>
</trkpt>
<trkpt lat="-35.2773766" lon="148.9860223">
  <ele>707.04</ele>
  <time>2026-09-01T20:00:07Z</time>
  <course>5.93</course>
  <speed>25.757655172783103</speed>
  <fix>3d</fix>
</trkpt>
<trkpt lat="-35.277422" lon="148.9860158">
  <ele>707.51</ele>
  <time>2026-09-01T20:00:07Z</time>
  <course>6.77</course>
  <speed>25.77</speed>
  <fix>3d</fix>
</trkpt>
<trkpt lat="-35.2773536" lon="148.9860256">
  <ele>706.91</ele>
  <time>2026-09-01T20:00:07Z</time>
  <course>5.94</course>
  <speed>25.757655172783103</speed>
  <fix>3d</fix>
</trkpt>
<trkpt lat="-35.2773761" lon="148.9860225">
  <ele>707.23</ele>
  <time>2026-09-01T20:00:07Z</time>
  <course>6.77</course>
  <speed>25.77</speed>
  <fix>3d</fix>
</trkpt>
<trkpt lat="-35.2773307" lon="148.986029">
  <ele>706.78</ele>
  <time>2026-09-01T20:00:07Z</time>
  <course>5.92</course>
  <speed>25.757655172783103</speed>
  <fix>3d</fix>
</trkpt>
<trkpt lat="-35.2773761" lon="148.9860225">
  <ele>707.23</ele>
  <time>2026-09-01T20:00:07Z</time>
  <course>6.77</course>
  <speed>25.77</speed>
  <fix>3d</fix>
</trkpt>
<trkpt lat="-35.2773077" lon="148.9860323">
  <ele>706.65</ele>
  <time>2026-09-01T20:00:07Z</time>
  <course>5.9</course>
  <speed>25.756484620382494</speed>
  <fix>3d</fix>
</trkpt>
<trkpt lat="-35.2773301" lon="148.9860292">
  <ele>706.97</ele>
  <time>2026-09-01T20:00:07Z</time>
  <course>6.76</course>
  <speed>25.76</speed>
  <fix>3d</fix>
</trkpt>
<trkpt lat="-35.2772847" lon="148.9860356">
  <ele>706.52</ele>
  <time>2026-09-01T20:00:07Z</time>
  <course>5.97</course>
  <speed>25.757655172783103</speed>
  <fix>3d</fix>
</trkpt>
<trkpt lat="-35.2773301" lon="148.9860292">
  <ele>706.97</ele>
  <time>2026-09-01T20:00:07Z</time>
  <course>6.76</course>
  <speed>25.76</speed>
  <fix>3d</fix>
</trkpt>
<trkpt lat="-35.2772617" lon="148.986039">
  <ele>706.4</ele>
  <time>2026-09-01T20:00:07Z</time>
  <course>6.0</course>
  <speed>25.757655172783103</speed>
  <fix>3d</fix>
</trkpt>
<trkpt lat="-35.2772841" lon="148.9860359">
  <ele>706.71</ele>
  <time>2026-09-01T20:00:07Z</time>
  <course>6.77</course>
  <speed>25.76</speed>
  <fix>3d</fix>
</trkpt>
<trkpt lat="-35.2772387" lon="148.9860423">
  <ele>706.27</ele>
  <time>2026-09-01T20:00:07Z</time>
  <course>5.97</course>
  <speed>25.757655172783103</speed>
  <fix>3d</fix>
</trkpt>
<trkpt lat="-35.2772841" lon="148.9860359">
  <ele>706.71</ele>
  <time>2026-09-01T20:00:07Z</time>
  <course>6.77</course>
  <speed>25.76</speed>
  <fix>3d</fix>
</trkpt>
<trkpt lat="-35.2772157" lon="148.9860457">
  <ele>706.15</ele>
  <time>2026-09-01T20:00:07Z</time>
  <course>5.95</course>
  <speed>25.756484620382494</speed>
  <fix>3d</fix>
</trkpt>
<trkpt lat="-35.2772382" lon="148.9860426">
  <ele>706.46</ele>
  <time>2026-09-01T20:00:07Z</time>
  <course>6.77</course>
  <speed>25.76</speed>
  <fix>3d</fix>
</trkpt>
<trkpt lat="-35.2771927" lon="148.986049">
  <ele>706.03</ele>
  <time>2026-09-01T20:00:07Z</time>
  <course>5.94</course>
  <speed>25.756484620382494</speed>
  <fix>3d</fix>
</trkpt>
<trkpt lat="-35.2772382" lon="148.9860426">
  <ele>706.46</ele>
  <time>2026-09-01T20:00:07Z</time>
  <course>6.77</course>
  <speed>25.76</speed>
  <fix>3d</fix>
</trkpt>
<trkpt lat="-35.2771697" lon="148.9860524">
  <ele>705.91</ele>
  <time>2026-09-01T20:00:07Z</time>
  <course>5.93</course>
  <speed>25.756484620382494</speed>
  <fix>3d</fix>
</trkpt>
<trkpt lat="-35.2771922" lon="148.9860493">
  <ele>706.21</ele>
  <time>2026-09-01T20:00:07Z</time>
  <course>6.76</course>
  <speed>25.76</speed>
  <fix>3d</fix>
</trkpt>
<trkpt lat="-35.2771467" lon="148.9860557">
  <ele>705.79</ele>
  <time>2026-09-01T20:00:07Z</time>
  <course>5.92</course>
  <speed>25.756484620382494</speed>
  <fix>3d</fix>
</trkpt>
<trkpt lat="-35.2771922" lon="148.9860493">
  <ele>706.21</ele>
  <time>2026-09-01T20:00:07Z</time>
  <course>6.76</course>
  <speed>25.76</speed>
  <fix>3d</fix>
</trkpt>
<trkpt lat="-35.2771237" lon="148.986059">
  <ele>705.67</ele>
  <time>2026-09-01T20:00:07Z</time>
  <course>5.87</course>
  <speed>25.755317897475074</speed>
  <fix>3d</fix>
</trkpt>
<trkpt lat="-35.2771461" lon="148.986056">
  <ele>705.97</ele>
  <time>2026-09-01T20:00:07Z</time>
  <course>6.75</course>
  <speed>25.76</speed>
  <fix>3d</fix>
</trkpt>
<trkpt lat="-35.2771007" lon="148.9860624">
  <ele>705.56</ele>
  <time>2026-09-01T20:00:07Z</time>
  <course>5.91</course>
  <speed>25.765249853242253</speed>
  <fix>3d</fix>
</trkpt>
<trkpt lat="-35.2771461" lon="148.986056">
  <ele>705.97</ele>
  <time>2026-09-01T20:00:07Z</time>
  <course>6.75</course>
  <speed>25.76</speed>
  <fix>3d</fix>
</trkpt>
<trkpt lat="-35.2770777" lon="148.9860657">
  <ele>705.44</ele>
  <time>2026-09-01T20:00:07Z</time>
  <course>5.94</course>
  <speed>25.76408740863918</speed>
  <fix>3d</fix>
</trkpt>
<trkpt lat="-35.2771002" lon="148.9860627">
  <ele>705.74</ele>
  <time>2026-09-01T20:00:07Z</time>
  <course>6.73</course>
  <speed>25.76</speed>
  <fix>3d</fix>
</trkpt>
<trkpt lat="-35.2770546" lon="148.986069">
  <ele>705.33</ele>
  <time>2026-09-01T20:00:07Z</time>
  <course>5.87</course>
  <speed>25.76408740863918</speed>
  <fix>3d</fix>
</trkpt>
<trkpt lat="-35.2771002" lon="148.9860627">
  <ele>705.74</ele>
  <time>2026-09-01T20:00:07Z</time>
  <course>6.73</course>
  <speed>25.76</speed>
  <fix>3d</fix>
</trkpt>
<trkpt lat="-35.2770316" lon="148.9860723">
  <ele>705.22</ele>
  <time>2026-09-01T20:00:07Z</time>
  <course>5.86</course>
  <speed>25.762928793132197</speed>
  <fix>3d</fix>
</trkpt>
<trkpt lat="-35.2770542" lon="148.9860693">
  <ele>705.52</ele>
  <time>2026-09-01T20:00:07Z</time>
  <course>6.71</course>
  <speed>25.76</speed>
  <fix>3d</fix>
</trkpt>
<trkpt lat="-35.2770086" lon="148.9860756">
  <ele>705.11</ele>
  <time>2026-09-01T20:00:07Z</time>
  <course>5.85</course>
  <speed>25.77286169597781</speed>
  <fix>3d</fix>
</trkpt>
<trkpt lat="-35.2770542" lon="148.9860693">
  <ele>705.52</ele>
  <time>2026-09-01T20:00:07Z</time>
  <course>6.71</course>
  <speed>25.76</speed>
  <fix>3d</fix>
</trkpt>
<trkpt lat="-35.2769856" lon="148.9860789">
  <ele>705.0</ele>
  <time>2026-09-01T20:00:07Z</time>
  <course>5.89</course>
  <speed>25.77286169597781</speed>
  <fix>3d</fix>
</trkpt>
<trkpt lat="-35.2770083" lon="148.9860759">
  <ele>705.29</ele>
  <time>2026-09-01T20:00:07Z</time>
  <course>6.69</course>
  <speed>25.76</speed>
  <fix>3d</fix>
</trkpt>
<trkpt lat="-35.2769626" lon="148.9860823">
  <ele>704.89</ele>
  <time>2026-09-01T20:00:07Z</time>
  <course>5.92</course>
  <speed>25.77286169597781</speed>
  <fix>3d</fix>
</trkpt>
<trkpt lat="-35.2770083" lon="148.9860759">
  <ele>705.29</ele>
  <time>2026-09-01T20:00:07Z</time>
  <course>6.69</course>
  <speed>25.76</speed>
  <fix>3d</fix>
</trkpt>
<trkpt lat="-35.2769396" lon="148.9860856">
  <ele>704.78</ele>
  <time>2026-09-01T20:00:07Z</time>
  <course>5.89</course>
  <speed>25.77286169597781</speed>
  <fix>3d</fix>
</trkpt>
<trkpt lat="-35.2769624" lon="148.9860825">
  <ele>705.07</ele>
  <time>2026-09-01T20:00:07Z</time>
  <course>6.68</course>
  <speed>25.76</speed>
  <fix>3d</fix>
</trkpt>
<trkpt lat="-35.2769166" lon="148.9860889">
  <ele>704.67</ele>
  <time>2026-09-01T20:00:07Z</time>
  <course>5.88</course>
  <speed>25.77286169597781</speed>
  <fix>3d</fix>
</trkpt>
<trkpt lat="-35.2769624" lon="148.9860825">
  <ele>705.07</ele>
  <time>2026-09-01T20:00:07Z</time>
  <course>6.68</course>
  <speed>25.76</speed>
  <fix>3d</fix>
</trkpt>
<trkpt lat="-35.2768938" lon="148.9860921">
  <ele>704.56</ele>
  <time>2026-09-01T20:00:07Z</time>
  <course>5.9</course>
  <speed>25.78279465069681</speed>
  <fix>3d</fix>
</trkpt>
<trkpt lat="-35.2769164" lon="148.986089">
  <ele>704.85</ele>
  <time>2026-09-01T20:00:07Z</time>
  <course>6.68</course>
  <speed>25.76</speed>
  <fix>3d</fix>
</trkpt>
<trkpt lat="-35.2768708" lon="148.9860954">
  <ele>704.46</ele>
  <time>2026-09-01T20:00:07Z</time>
  <course>5.95</course>
  <speed>25.78279465069681</speed>
  <fix>3d</fix>
</trkpt>
<trkpt lat="-35.2769164" lon="148.986089">
  <ele>704.85</ele>
  <time>2026-09-01T20:00:07Z</time>
  <course>6.68</course>
  <speed>25.76</speed>
  <fix>3d</fix>
</trkpt>
<trkpt lat="-35.2768478" lon="148.9860987">
  <ele>704.35</ele>
  <time>2026-09-01T20:00:07Z</time>
  <course>5.94</course>
  <speed>25.78279465069681</speed>
  <fix>3d</fix>
</trkpt>
<trkpt lat="-35.2768705" lon="148.9860957">
  <ele>704.63</ele>
  <time>2026-09-01T20:00:07Z</time>
  <course>6.68</course>
  <speed>25.76</speed>
  <fix>3d</fix>
</trkpt>
<trkpt lat="-35.2768244" lon="148.9861021">
  <ele>704.25</ele>
  <time>2026-09-01T20:00:07Z</time>
  <course>5.85</course>
  <speed>25.78279465069681</speed>
  <fix>3d</fix>
</trkpt>
<trkpt lat="-35.2768705" lon="148.9860957">
  <ele>704.63</ele>
  <time>2026-09-01T20:00:07Z</time>
  <course>6.68</course>
  <speed>25.76</speed>
  <fix>3d</fix>
</trkpt>
<trkpt lat="-35.2768014" lon="148.9861054">
  <ele>704.15</ele>
  <time>2026-09-01T20:00:07Z</time>
  <course>5.81</course>
  <speed>25.78279465069681</speed>
  <fix>3d</fix>
</trkpt>
<trkpt lat="-35.2768245" lon="148.9861023">
  <ele>704.42</ele>
  <time>2026-09-01T20:00:07Z</time>
  <course>6.68</course>
  <speed>25.76</speed>
  <fix>3d</fix>
</trkpt>
<trkpt lat="-35.2767784" lon="148.9861087">
  <ele>704.04</ele>
  <time>2026-09-01T20:00:07Z</time>
  <course>5.86</course>
  <speed>25.78279465069681</speed>
  <fix>3d</fix>
</trkpt>
<trkpt lat="-35.2768245" lon="148.9861023">
  <ele>704.42</ele>
  <time>2026-09-01T20:00:07Z</time>
  <course>6.68</course>
  <speed>25.76</speed>
  <fix>3d</fix>
</trkpt>
<trkpt lat="-35.2767554" lon="148.986112">
  <ele>703.94</ele>
  <time>2026-09-01T20:00:07Z</time>
  <course>5.86</course>
  <speed>25.78279465069681</speed>
  <fix>3d</fix>
</trkpt>
<trkpt lat="-35.2767786" lon="148.9861088">
  <ele>704.22</ele>
  <time>2026-09-01T20:00:07Z</time>
  <course>6.67</course>
  <speed>25.75</speed>
  <fix>3d</fix>
</trkpt>
<trkpt lat="-35.2767324" lon="148.9861153">
  <ele>703.84</ele>
  <time>2026-09-01T20:00:07Z</time>
  <course>5.89</course>
  <speed>25.78279465069681</speed>
  <fix>3d</fix>
</trkpt>
<trkpt lat="-35.2767786" lon="148.9861088">
  <ele>704.22</ele>
  <time>2026-09-01T20:00:07Z</time>
  <course>6.67</course>
  <speed>25.75</speed>
  <fix>3d</fix>
</trkpt>
<trkpt lat="-35.2767094" lon="148.9861186">
  <ele>703.74</ele>
  <time>2026-09-01T20:00:07Z</time>
  <course>5.9</course>
  <speed>25.78279465069681</speed>
  <fix>3d</fix>
</trkpt>
<trkpt lat="-35.2767325" lon="148.9861154">
  <ele>704.02</ele>
  <time>2026-09-01T20:00:07Z</time>
  <course>6.67</course>
  <speed>25.76</speed>
  <fix>3d</fix>
</trkpt>
<trkpt lat="-35.2766864" lon="148.9861219">
  <ele>703.65</ele>
  <time>2026-09-01T20:00:07Z</time>
  <course>5.94</course>
  <speed>25.78279465069681</speed>
  <fix>3d</fix>
</trkpt>
<trkpt lat="-35.2767325" lon="148.9861154">
  <ele>704.02</ele>
  <time>2026-09-01T20:00:07Z</time>
  <course>6.67</course>
  <speed>25.76</speed>
  <fix>3d</fix>
</trkpt>
<trkpt lat="-35.2766635" lon="148.9861252">
  <ele>703.55</ele>
  <time>2026-09-01T20:00:07Z</time>
  <course>5.96</course>
  <speed>25.783952373521014</speed>
  <fix>3d</fix>
</trkpt>
<trkpt lat="-35.2766864" lon="148.9861221">
  <ele>703.81</ele>
  <time>2026-09-01T20:00:07Z</time>
  <course>6.68</course>
  <speed>25.76</speed>
  <fix>3d</fix>
</trkpt>
<trkpt lat="-35.2766405" lon="148.9861285">
  <ele>703.45</ele>
  <time>2026-09-01T20:00:07Z</time>
  <course>5.94</course>
  <speed>25.783952373521014</speed>
  <fix>3d</fix>
</trkpt>
<trkpt lat="-35.2766864" lon="148.9861221">
  <ele>703.81</ele>
  <time>2026-09-01T20:00:07Z</time>
  <course>6.68</course>
  <speed>25.76</speed>
  <fix>3d</fix>
</trkpt>
<trkpt lat="-35.2766175" lon="148.9861318">
  <ele>703.37</ele>
  <time>2026-09-01T20:00:07Z</time>
  <course>5.9</course>
  <speed>25.783952373521014</speed>
  <fix>3d</fix>
</trkpt>
<trkpt lat="-35.2766405" lon="148.9861287">
  <ele>703.63</ele>
  <time>2026-09-01T20:00:07Z</time>
  <course>6.69</course>
  <speed>25.76</speed>
  <fix>3d</fix>
</trkpt>
<trkpt lat="-35.2765945" lon="148.9861351">
  <ele>703.28</ele>
  <time>2026-09-01T20:00:07Z</time>
  <course>5.89</course>
  <speed>25.792727657229275</speed>
  <fix>3d</fix>
</trkpt>
<trkpt lat="-35.2766405" lon="148.9861287">
  <ele>703.63</ele>
  <time>2026-09-01T20:00:07Z</time>
  <course>6.69</course>
  <speed>25.76</speed>
  <fix>3d</fix>
</trkpt>
<trkpt lat="-35.2765715" lon="148.9861384">
  <ele>703.2</ele>
  <time>2026-09-01T20:00:07Z</time>
  <course>5.9</course>
  <speed>25.792727657229275</speed>
  <fix>3d</fix>
</trkpt>
<trkpt lat="-35.2765945" lon="148.9861354">
  <ele>703.45</ele>
  <time>2026-09-01T20:00:07Z</time>
  <course>6.69</course>
  <speed>25.76</speed>
  <fix>3d</fix>
</trkpt>
<trkpt lat="-35.2765485" lon="148.9861417">
  <ele>703.13</ele>
  <time>2026-09-01T20:00:07Z</time>
  <course>5.94</course>
  <speed>25.793884934224234</speed>
  <fix>3d</fix>
</trkpt>
<trkpt lat="-35.2765945" lon="148.9861354">
  <ele>703.45</ele>
  <time>2026-09-01T20:00:07Z</time>
  <course>6.69</course>
  <speed>25.76</speed>
  <fix>3d</fix>
</trkpt>
<trkpt lat="-35.2765255" lon="148.986145">
  <ele>703.06</ele>
  <time>2026-09-01T20:00:07Z</time>
  <course>5.95</course>
  <speed>25.783952373521014</speed>
  <fix>3d</fix>
</trkpt>
<trkpt lat="-35.2765486" lon="148.986142">
  <ele>703.29</ele>
  <time>2026-09-01T20:00:07Z</time>
  <course>6.7</course>
  <speed>25.76</speed>
  <fix>3d</fix>
</trkpt>
<trkpt lat="-35.2765025" lon="148.9861484">
  <ele>702.99</ele>
  <time>2026-09-01T20:00:07Z</time>
  <course>5.91</course>
  <speed>25.785113922571682</speed>
  <fix>3d</fix>
</trkpt>
<trkpt lat="-35.2765486" lon="148.986142">
  <ele>703.29</ele>
  <time>2026-09-01T20:00:07Z</time>
  <course>6.7</course>
  <speed>25.76</speed>
  <fix>3d</fix>
</trkpt>
<trkpt lat="-35.2764795" lon="148.9861517">
  <ele>702.93</ele>
  <time>2026-09-01T20:00:07Z</time>
  <course>5.92</course>
  <speed>25.785113922571682</speed>
  <fix>3d</fix>
</trkpt>
<trkpt lat="-35.2765026" lon="148.9861485">
  <ele>703.15</ele>
  <time>2026-09-01T20:00:07Z</time>
  <course>6.72</course>
  <speed>25.76</speed>
  <fix>3d</fix>
</trkpt>
<trkpt lat="-35.2764566" lon="148.986155">
  <ele>702.87</ele>
  <time>2026-09-01T20:00:07Z</time>
  <course>5.92</course>
  <speed>25.78627929733175</speed>
  <fix>3d</fix>
</trkpt>
<trkpt lat="-35.2765026" lon="148.9861485">
  <ele>703.15</ele>
  <time>2026-09-01T20:00:07Z</time>
  <course>6.72</course>
  <speed>25.76</speed>
  <fix>3d</fix>
</trkpt>
<trkpt lat="-35.2764336" lon="148.9861583">
  <ele>702.81</ele>
  <time>2026-09-01T20:00:07Z</time>
  <course>5.91</course>
  <speed>25.776347685426654</speed>
  <fix>3d</fix>
</trkpt>
<trkpt lat="-35.2764567" lon="148.9861552">
  <ele>703.03</ele>
  <time>2026-09-01T20:00:07Z</time>
  <course>6.74</course>
  <speed>25.76</speed>
  <fix>3d</fix>
</trkpt>
<trkpt lat="-35.2764108" lon="148.9861617">
  <ele>702.76</ele>
  <time>2026-09-01T20:00:07Z</time>
  <course>5.91</course>
  <speed>25.776347685426654</speed>
  <fix>3d</fix>
</trkpt>
<trkpt lat="-35.2764567" lon="148.9861552">
  <ele>703.03</ele>
  <time>2026-09-01T20:00:07Z</time>
  <course>6.74</course>
  <speed>25.76</speed>
  <fix>3d</fix>
</trkpt>
<trkpt lat="-35.2763878" lon="148.986165">
  <ele>702.71</ele>
  <time>2026-09-01T20:00:07Z</time>
  <course>5.96</course>
  <speed>25.776347685426654</speed>
  <fix>3d</fix>
</trkpt>
<trkpt lat="-35.2764107" lon="148.9861618">
  <ele>702.93</ele>
  <time>2026-09-01T20:00:07Z</time>
  <course>6.75</course>
  <speed>25.75</speed>
  <fix>3d</fix>
</trkpt>
<trkpt lat="-35.2763648" lon="148.9861683">
  <ele>702.67</ele>
  <time>2026-09-01T20:00:07Z</time>
  <course>5.98</course>
  <speed>25.76641612642317</speed>
  <fix>3d</fix>
</trkpt>
<trkpt lat="-35.2764107" lon="148.9861618">
  <ele>702.93</ele>
  <time>2026-09-01T20:00:07Z</time>
  <course>6.75</course>
  <speed>25.75</speed>
  <fix>3d</fix>
</trkpt>
<trkpt lat="-35.2763419" lon="148.9861717">
  <ele>702.64</ele>
  <time>2026-09-01T20:00:07Z</time>
  <course>5.95</course>
  <speed>25.76641612642317</speed>
  <fix>3d</fix>
</trkpt>
<trkpt lat="-35.2763648" lon="148.9861685">
  <ele>702.83</ele>
  <time>2026-09-01T20:00:07Z</time>
  <course>6.75</course>
  <speed>25.74</speed>
  <fix>3d</fix>
</trkpt>
<trkpt lat="-35.2763187" lon="148.986175">
  <ele>702.6</ele>
  <time>2026-09-01T20:00:07Z</time>
  <course>5.98</course>
  <speed>25.756484620382494</speed>
  <fix>3d</fix>
</trkpt>
<trkpt lat="-35.2763648" lon="148.9861685">
  <ele>702.83</ele>
  <time>2026-09-01T20:00:07Z</time>
  <course>6.75</course>
  <speed>25.74</speed>
  <fix>3d</fix>
</trkpt>
<trkpt lat="-35.2762958" lon="148.9861784">
  <ele>702.57</ele>
  <time>2026-09-01T20:00:07Z</time>
  <course>6.07</course>
  <speed>25.726690420650687</speed>
  <fix>3d</fix>
</trkpt>
<trkpt lat="-35.2763189" lon="148.9861752">
  <ele>702.75</ele>
  <time>2026-09-01T20:00:07Z</time>
  <course>6.76</course>
  <speed>25.72</speed>
  <fix>3d</fix>
</trkpt>
<trkpt lat="-35.2762729" lon="148.9861817">
  <ele>702.55</ele>
  <time>2026-09-01T20:00:07Z</time>
  <course>6.13</course>
  <speed>25.62620728863325</speed>
  <fix>3d</fix>
</trkpt>
<trkpt lat="-35.2763189" lon="148.9861752">
  <ele>702.75</ele>
  <time>2026-09-01T20:00:07Z</time>
  <course>6.76</course>
  <speed>25.72</speed>
  <fix>3d</fix>
</trkpt>
<trkpt lat="-35.2762501" lon="148.986185">
  <ele>702.54</ele>
  <time>2026-09-01T20:00:07Z</time>
  <course>6.3</course>
  <speed>25.473252638797426</speed>
  <fix>3d</fix>
</trkpt>
<trkpt lat="-35.2762731" lon="148.9861819">
  <ele>702.69</ele>
  <time>2026-09-01T20:00:07Z</time>
  <course>6.83</course>
  <speed>25.57</speed>
  <fix>3d</fix>
</trkpt>
<trkpt lat="-35.2762275" lon="148.9861885">
  <ele>702.57</ele>
  <time>2026-09-01T20:00:07Z</time>
  <course>6.75</course>
  <speed>25.23019817599537</speed>
  <fix>3d</fix>
</trkpt>
<trkpt lat="-35.2762731" lon="148.9861819">
  <ele>702.69</ele>
  <time>2026-09-01T20:00:07Z</time>
  <course>6.83</course>
  <speed>25.57</speed>
  <fix>3d</fix>
</trkpt>
<trkpt lat="-35.2762053" lon="148.9861923">
  <ele>702.65</ele>
  <time>2026-09-01T20:00:07Z</time>
  <course>7.54</course>
  <speed>24.89025913886796</speed>
  <fix>3d</fix>
</trkpt>
<trkpt lat="-35.2762277" lon="148.9861889">
  <ele>702.73</ele>
  <time>2026-09-01T20:00:07Z</time>
  <course>7.56</course>
  <speed>25.16</speed>
  <fix>3d</fix>
</trkpt>
<trkpt lat="-35.2761832" lon="148.9861965">
  <ele>702.79</ele>
  <time>2026-09-01T20:00:07Z</time>
  <course>8.72</course>
  <speed>24.479021630776014</speed>
  <fix>3d</fix>
</trkpt>
<trkpt lat="-35.2762277" lon="148.9861889">
  <ele>702.73</ele>
  <time>2026-09-01T20:00:07Z</time>
  <course>7.56</course>
  <speed>25.16</speed>
  <fix>3d</fix>
</trkpt>
<trkpt lat="-35.2761618" lon="148.9862012">
  <ele>702.98</ele>
  <time>2026-09-01T20:00:07Z</time>
  <course>10.13</course>
  <speed>24.025707065557928</speed>
  <fix>3d</fix>
</trkpt>
<trkpt lat="-35.2761836" lon="148.9861968">
  <ele>702.93</ele>
  <time>2026-09-01T20:00:07Z</time>
  <course>9.39</course>
  <speed>24.43</speed>
  <fix>3d</fix>
</trkpt>
<trkpt lat="-35.2761409" lon="148.9862064">
  <ele>703.21</ele>
  <time>2026-09-01T20:00:07Z</time>
  <course>11.6</course>
  <speed>23.565069488545966</speed>
  <fix>3d</fix>
</trkpt>
<trkpt lat="-35.2761836" lon="148.9861968">
  <ele>702.93</ele>
  <time>2026-09-01T20:00:07Z</time>
  <course>9.39</course>
  <speed>24.43</speed>
  <fix>3d</fix>
</trkpt>
<trkpt lat="-35.2761204" lon="148.986212">
  <ele>703.48</ele>
  <time>2026-09-01T20:00:07Z</time>
  <course>12.99</course>
  <speed>23.095811308546836</speed>
  <fix>3d</fix>
</trkpt>
<trkpt lat="-35.2761413" lon="148.9862065">
  <ele>703.34</ele>
  <time>2026-09-01T20:00:07Z</time>
  <course>11.88</course>
  <speed>23.52</speed>
  <fix>3d</fix>
</trkpt>
<trkpt lat="-35.2761006" lon="148.9862181">
  <ele>703.78</ele>
  <time>2026-09-01T20:00:07Z</time>
  <course>14.23</course>
  <speed>22.608179935589682</speed>
  <fix>3d</fix>
</trkpt>
<trkpt lat="-35.2761413" lon="148.9862065">
  <ele>703.34</ele>
  <time>2026-09-01T20:00:07Z</time>
  <course>11.88</course>
  <speed>23.52</speed>
  <fix>3d</fix>
</trkpt>
<trkpt lat="-35.2760813" lon="148.9862246">
  <ele>704.1</ele>
  <time>2026-09-01T20:00:07Z</time>
  <course>15.23</course>
  <speed>22.11917267892269</speed>
  <fix>3d</fix>
</trkpt>
<trkpt lat="-35.276101" lon="148.9862181">
  <ele>703.9</ele>
  <time>2026-09-01T20:00:07Z</time>
  <course>14.49</course>
  <speed>22.56</speed>
  <fix>3d</fix>
</trkpt>
<trkpt lat="-35.2760627" lon="148.9862313">
  <ele>704.45</ele>
  <time>2026-09-01T20:00:07Z</time>
  <course>15.97</course>
  <speed>21.65286355196467</speed>
  <fix>3d</fix>
</trkpt>
<trkpt lat="-35.276101" lon="148.9862181">
  <ele>703.9</ele>
  <time>2026-09-01T20:00:07Z</time>
  <course>14.49</course>
  <speed>22.56</speed>
  <fix>3d</fix>
</trkpt>
<trkpt lat="-35.2760444" lon="148.9862383">
  <ele>704.81</ele>
  <time>2026-09-01T20:00:07Z</time>
  <course>16.45</course>
  <speed>21.20745623595626</speed>
  <fix>3d</fix>
</trkpt>
<trkpt lat="-35.2760628" lon="148.9862312">
  <ele>704.56</ele>
  <time>2026-09-01T20:00:07Z</time>
  <course>16.73</course>
  <speed>21.62</speed>
  <fix>3d</fix>
</trkpt>
<trkpt lat="-35.2760266" lon="148.9862454">
  <ele>705.16</ele>
  <time>2026-09-01T20:00:07Z</time>
  <course>16.81</course>
  <speed>20.79830041133169</speed>
  <fix>3d</fix>
</trkpt>
<trkpt lat="-35.2760628" lon="148.9862312">
  <ele>704.56</ele>
  <time>2026-09-01T20:00:07Z</time>
  <course>16.73</course>
  <speed>21.62</speed>
  <fix>3d</fix>
</trkpt>
<trkpt lat="-35.2760092" lon="148.9862526">
  <ele>705.5</ele>
  <time>2026-09-01T20:00:07Z</time>
  <course>17.08</course>
  <speed>20.432163370529317</speed>
  <fix>3d</fix>
</trkpt>
<trkpt lat="-35.2760265" lon="148.9862453">
  <ele>705.26</ele>
  <time>2026-09-01T20:00:07Z</time>
  <course>18.25</course>
  <speed>20.79</speed>
  <fix>3d</fix>
</trkpt>
<trkpt lat="-35.2759922" lon="148.9862598">
  <ele>705.8</ele>
  <time>2026-09-01T20:00:07Z</time>
  <course>17.34</course>
  <speed>20.09521833670886</speed>
  <fix>3d</fix>
</trkpt>
<trkpt lat="-35.2760265" lon="148.9862453">
  <ele>705.26</ele>
  <time>2026-09-01T20:00:07Z</time>
  <course>18.25</course>
  <speed>20.79</speed>
  <fix>3d</fix>
</trkpt>
<trkpt lat="-35.2759755" lon="148.9862669">
  <ele>706.07</ele>
  <time>2026-09-01T20:00:07Z</time>
  <course>17.56</course>
  <speed>19.78672787501764</speed>
  <fix>3d</fix>
</trkpt>
<trkpt lat="-35.2759917" lon="148.9862597">
  <ele>705.88</ele>
  <time>2026-09-01T20:00:07Z</time>
  <course>19.12</course>
  <speed>20.08</speed>
  <fix>3d</fix>
</trkpt>
<trkpt lat="-35.275959" lon="148.9862741">
  <ele>706.3</ele>
  <time>2026-09-01T20:00:07Z</time>
  <course>17.78</course>
  <speed>19.494073458361648</speed>
  <fix>3d</fix>
</trkpt>
<trkpt lat="-35.2759917" lon="148.9862597">
  <ele>705.88</ele>
  <time>2026-09-01T20:00:07Z</time>
  <course>19.12</course>
  <speed>20.08</speed>
  <fix>3d</fix>
</trkpt>
<trkpt lat="-35.2759427" lon="148.9862812">
  <ele>706.5</ele>
  <time>2026-09-01T20:00:07Z</time>
  <course>17.99</course>
  <speed>19.213687829253395</speed>
  <fix>3d</fix>
</trkpt>
<trkpt lat="-35.2759582" lon="148.9862742">
  <ele>706.38</ele>
  <time>2026-09-01T20:00:07Z</time>
  <course>19.62</course>
  <speed>19.48</speed>
  <fix>3d</fix>
</trkpt>
<trkpt lat="-35.2759267" lon="148.9862883">
  <ele>706.66</ele>
  <time>2026-09-01T20:00:07Z</time>
  <course>18.19</course>
  <speed>18.958198754101087</speed>
  <fix>3d</fix>
</trkpt>
<trkpt lat="-35.2759582" lon="148.9862742">
  <ele>706.38</ele>
  <time>2026-09-01T20:00:07Z</time>
  <course>19.62</course>
  <speed>19.48</speed>
  <fix>3d</fix>
</trkpt>
<trkpt lat="-35.2759107" lon="148.9862954">
  <ele>706.79</ele>
  <time>2026-09-01T20:00:07Z</time>
  <course>18.37</course>
  <speed>18.71214846029178</speed>
  <fix>3d</fix>
</trkpt>
<trkpt lat="-35.2759257" lon="148.9862885">
  <ele>706.73</ele>
  <time>2026-09-01T20:00:07Z</time>
  <course>19.89</course>
  <speed>18.95</speed>
  <fix>3d</fix>
</trkpt>
<trkpt lat="-35.2758951" lon="148.9863023">
  <ele>706.88</ele>
  <time>2026-09-01T20:00:07Z</time>
  <course>18.53</course>
  <speed>18.48148262450824</speed>
  <fix>3d</fix>
</trkpt>
<trkpt lat="-35.2759257" lon="148.9862885">
  <ele>706.73</ele>
  <time>2026-09-01T20:00:07Z</time>
  <course>19.89</course>
  <speed>18.95</speed>
  <fix>3d</fix>
</trkpt>
<trkpt lat="-35.2758797" lon="148.9863092">
  <ele>706.95</ele>
  <time>2026-09-01T20:00:07Z</time>
  <course>18.65</course>
  <speed>18.266176392447324</speed>
  <fix>3d</fix>
</trkpt>
<trkpt lat="-35.2758941" lon="148.9863025">
  <ele>706.94</ele>
  <time>2026-09-01T20:00:07Z</time>
  <course>19.99</course>
  <speed>18.49</speed>
  <fix>3d</fix>
</trkpt>
<trkpt lat="-35.2758644" lon="148.986316">
  <ele>706.99</ele>
  <time>2026-09-01T20:00:07Z</time>
  <course>18.73</course>
  <speed>18.05684911605566</speed>
  <fix>3d</fix>
</trkpt>
<trkpt lat="-35.2758941" lon="148.9863025">
  <ele>706.94</ele>
  <time>2026-09-01T20:00:07Z</time>
  <course>19.99</course>
  <speed>18.49</speed>
  <fix>3d</fix>
</trkpt>
<trkpt lat="-35.2758493" lon="148.9863227">
  <ele>707.0</ele>
  <time>2026-09-01T20:00:07Z</time>
  <course>18.76</course>
  <speed>17.866348255869188</speed>
  <fix>3d</fix>
</trkpt>
<trkpt lat="-35.2758633" lon="148.9863163">
  <ele>707.04</ele>
  <time>2026-09-01T20:00:07Z</time>
  <course>19.94</course>
  <speed>18.07</speed>
  <fix>3d</fix>
</trkpt>
<trkpt lat="-35.2758342" lon="148.9863293">
  <ele>707.0</ele>
  <time>2026-09-01T20:00:07Z</time>
  <course>18.71</course>
  <speed>17.681911661356075</speed>
  <fix>3d</fix>
</trkpt>
<trkpt lat="-35.2758633" lon="148.9863163">
  <ele>707.04</ele>
  <time>2026-09-01T20:00:07Z</time>
  <course>19.94</course>
  <speed>18.07</speed>
  <fix>3d</fix>
</trkpt>
<trkpt lat="-35.2758193" lon="148.9863358">
  <ele>706.99</ele>
  <time>2026-09-01T20:00:07Z</time>
  <course>18.62</course>
  <speed>17.5097001687636</speed>
  <fix>3d</fix>
</trkpt>
<trkpt lat="-35.275833" lon="148.9863297">
  <ele>707.05</ele>
  <time>2026-09-01T20:00:07Z</time>
  <course>19.71</course>
  <speed>17.69</speed>
  <fix>3d</fix>
</trkpt>
<trkpt lat="-35.2758044" lon="148.9863422">
  <ele>706.96</ele>
  <time>2026-09-01T20:00:07Z</time>
  <course>18.46</course>
  <speed>17.33773918364214</speed>
  <fix>3d</fix>
</trkpt>
<trkpt lat="-35.275833" lon="148.9863297">
  <ele>707.05</ele>
  <time>2026-09-01T20:00:07Z</time>
  <course>19.71</course>
  <speed>17.69</speed>
  <fix>3d</fix>
</trkpt>
<trkpt lat="-35.2757897" lon="148.9863485">
  <ele>706.93</ele>
  <time>2026-09-01T20:00:07Z</time>
  <course>18.26</course>
  <speed>17.181667555857317</speed>
  <fix>3d</fix>
</trkpt>
<trkpt lat="-35.2758034" lon="148.9863426">
  <ele>707.01</ele>
  <time>2026-09-01T20:00:07Z</time>
  <course>19.31</course>
  <speed>17.34</speed>
  <fix>3d</fix>
</trkpt>
<trkpt lat="-35.275775" lon="148.9863546">
  <ele>706.89</ele>
  <time>2026-09-01T20:00:07Z</time>
  <course>18.01</course>
  <speed>17.02278766829922</speed>
  <fix>3d</fix>
</trkpt>
<trkpt lat="-35.2758034" lon="148.9863426">
  <ele>707.01</ele>
  <time>2026-09-01T20:00:07Z</time>
  <course>19.31</course>
  <speed>17.34</speed>
  <fix>3d</fix>
</trkpt>
<trkpt lat="-35.2757605" lon="148.9863606">
  <ele>706.84</ele>
  <time>2026-09-01T20:00:07Z</time>
  <course>17.71</course>
  <speed>16.870758726269546</speed>
  <fix>3d</fix>
</trkpt>
<trkpt lat="-35.2757742" lon="148.9863548">
  <ele>706.94</ele>
  <time>2026-09-01T20:00:07Z</time>
  <course>18.73</course>
  <speed>17.02</speed>
  <fix>3d</fix>
</trkpt>
<trkpt lat="-35.2757461" lon="148.9863664">
  <ele>706.8</ele>
  <time>2026-09-01T20:00:07Z</time>
  <course>17.38</course>
  <speed>16.725839291347985</speed>
  <fix>3d</fix>
</trkpt>
<trkpt lat="-35.2757742" lon="148.9863548">
  <ele>706.94</ele>
  <time>2026-09-01T20:00:07Z</time>
  <course>18.73</course>
  <speed>17.02</speed>
  <fix>3d</fix>
</trkpt>
<trkpt lat="-35.2757318" lon="148.986372">
  <ele>706.75</ele>
  <time>2026-09-01T20:00:07Z</time>
  <course>17.02</course>
  <speed>16.572265988693278</speed>
  <fix>3d</fix>
</trkpt>
<trkpt lat="-35.2757454" lon="148.9863666">
  <ele>706.85</ele>
  <time>2026-09-01T20:00:07Z</time>
  <course>17.98</course>
  <speed>16.71</speed>
  <fix>3d</fix>
</trkpt>
<trkpt lat="-35.2757174" lon="148.9863775">
  <ele>706.71</ele>
  <time>2026-09-01T20:00:07Z</time>
  <course>16.61</course>
  <speed>16.432787347251836</speed>
  <fix>3d</fix>
</trkpt>
<trkpt lat="-35.2757454" lon="148.9863666">
  <ele>706.85</ele>
  <time>2026-09-01T20:00:07Z</time>
  <course>17.98</course>
  <speed>16.71</speed>
  <fix>3d</fix>
</trkpt>
<trkpt lat="-35.2757033" lon="148.9863827">
  <ele>706.66</ele>
  <time>2026-09-01T20:00:07Z</time>
  <course>16.16</course>
  <speed>16.287866649748825</speed>
  <fix>3d</fix>
</trkpt>
<trkpt lat="-35.275717" lon="148.9863776">
  <ele>706.76</ele>
  <time>2026-09-01T20:00:07Z</time>
  <course>17.09</course>
  <speed>16.41</speed>
  <fix>3d</fix>
</trkpt>
<trkpt lat="-35.2756893" lon="148.9863877">
  <ele>706.61</ele>
  <time>2026-09-01T20:00:07Z</time>
  <course>15.67</course>
  <speed>16.148126826353575</speed>
  <fix>3d</fix>
</trkpt>
<trkpt lat="-35.275717" lon="148.9863776">
  <ele>706.76</ele>
  <time>2026-09-01T20:00:07Z</time>
  <course>17.09</course>
  <speed>16.41</speed>
  <fix>3d</fix>
</trkpt>
<trkpt lat="-35.2756754" lon="148.9863925">
  <ele>706.56</ele>
  <time>2026-09-01T20:00:07Z</time>
  <course>15.15</course>
  <speed>16.000290622360584</speed>
  <fix>3d</fix>
</trkpt>
<trkpt lat="-35.275689" lon="148.9863878">
  <ele>706.66</ele>
  <time>2026-09-01T20:00:07Z</time>
  <course>16.08</course>
  <speed>16.13</speed>
  <fix>3d</fix>
</trkpt>
<trkpt lat="-35.2756617" lon="148.9863971">
  <ele>706.51</ele>
  <time>2026-09-01T20:00:07Z</time>
  <course>14.6</course>
  <speed>15.863647121642614</speed>
  <fix>3d</fix>
</trkpt>
<trkpt lat="-35.275689" lon="148.9863878">
  <ele>706.66</ele>
  <time>2026-09-01T20:00:07Z</time>
  <course>16.08</course>
  <speed>16.13</speed>
  <fix>3d</fix>
</trkpt>
<trkpt lat="-35.2756479" lon="148.9864015">
  <ele>706.47</ele>
  <time>2026-09-01T20:00:07Z</time>
  <course>14.03</course>
  <speed>15.728626767776008</speed>
  <fix>3d</fix>
</trkpt>
<trkpt lat="-35.2756614" lon="148.9863972">
  <ele>706.57</ele>
  <time>2026-09-01T20:00:07Z</time>
  <course>14.95</course>
  <speed>15.84</speed>
  <fix>3d</fix>
</trkpt>
<trkpt lat="-35.2756342" lon="148.9864057">
  <ele>706.43</ele>
  <time>2026-09-01T20:00:07Z</time>
  <course>13.43</course>
  <speed>15.583186452070706</speed>
  <fix>3d</fix>
</trkpt>
<trkpt lat="-35.2756614" lon="148.9863972">
  <ele>706.57</ele>
  <time>2026-09-01T20:00:07Z</time>
  <course>14.95</course>
  <speed>15.84</speed>
  <fix>3d</fix>
</trkpt>
<trkpt lat="-35.2756206" lon="148.9864097">
  <ele>706.4</ele>
  <time>2026-09-01T20:00:07Z</time>
  <course>12.82</course>
  <speed>15.44935597363204</speed>
  <fix>3d</fix>
</trkpt>
<trkpt lat="-35.2756341" lon="148.9864058">
  <ele>706.49</ele>
  <time>2026-09-01T20:00:07Z</time>
  <course>13.73</course>
  <speed>15.56</speed>
  <fix>3d</fix>
</trkpt>
<trkpt lat="-35.2756069" lon="148.9864135">
  <ele>706.37</ele>
  <time>2026-09-01T20:00:07Z</time>
  <course>12.19</course>
  <speed>15.29581642149251</speed>
  <fix>3d</fix>
</trkpt>
<trkpt lat="-35.2756341" lon="148.9864058">
  <ele>706.49</ele>
  <time>2026-09-01T20:00:07Z</time>
  <course>13.73</course>
  <speed>15.56</speed>
  <fix>3d</fix>
</trkpt>
<trkpt lat="-35.2755935" lon="148.986417">
  <ele>706.34</ele>
  <time>2026-09-01T20:00:07Z</time>
  <course>11.56</course>
  <speed>15.156252835051282</speed>
  <fix>3d</fix>
</trkpt>
<trkpt lat="-35.2756071" lon="148.9864134">
  <ele>706.43</ele>
  <time>2026-09-01T20:00:07Z</time>
  <course>12.45</course>
  <speed>15.27</speed>
  <fix>3d</fix>
</trkpt>
<trkpt lat="-35.2755802" lon="148.9864203">
  <ele>706.32</ele>
  <time>2026-09-01T20:00:07Z</time>
  <course>10.92</course>
  <speed>15.00890735530072</speed>
  <fix>3d</fix>
</trkpt>
<trkpt lat="-35.2756071" lon="148.9864134">
  <ele>706.43</ele>
  <time>2026-09-01T20:00:07Z</time>
  <course>12.45</course>
  <speed>15.27</speed>
  <fix>3d</fix>
</trkpt>
<trkpt lat="-35.2755671" lon="148.9864233">
  <ele>706.3</ele>
  <time>2026-09-01T20:00:07Z</time>
  <course>10.27</course>
  <speed>14.863606560993196</speed>
  <fix>3d</fix>
</trkpt>
<trkpt lat="-35.2755804" lon="148.9864203">
  <ele>706.39</ele>
  <time>2026-09-01T20:00:07Z</time>
  <course>11.13</course>
  <speed>14.98</speed>
  <fix>3d</fix>
</trkpt>
<trkpt lat="-35.275554" lon="148.9864262">
  <ele>706.28</ele>
  <time>2026-09-01T20:00:07Z</time>
  <course>9.62</course>
  <speed>14.710554034433917</speed>
  <fix>3d</fix>
</trkpt>
<trkpt lat="-35.2755804" lon="148.9864203">
  <ele>706.39</ele>
  <time>2026-09-01T20:00:07Z</time>
  <course>11.13</course>
  <speed>14.98</speed>
  <fix>3d</fix>
</trkpt>
<trkpt lat="-35.2755411" lon="148.9864288">
  <ele>706.27</ele>
  <time>2026-09-01T20:00:07Z</time>
  <course>8.97</course>
  <speed>14.561198439688953</speed>
  <fix>3d</fix>
</trkpt>
<trkpt lat="-35.2755542" lon="148.9864262">
  <ele>706.35</ele>
  <time>2026-09-01T20:00:07Z</time>
  <course>9.79</course>
  <speed>14.69</speed>
  <fix>3d</fix>
</trkpt>
<trkpt lat="-35.2755283" lon="148.9864312">
  <ele>706.26</ele>
  <time>2026-09-01T20:00:07Z</time>
  <course>8.31</course>
  <speed>14.413798944067453</speed>
  <fix>3d</fix>
</trkpt>
<trkpt lat="-35.2755542" lon="148.9864262">
  <ele>706.35</ele>
  <time>2026-09-01T20:00:07Z</time>
  <course>9.79</course>
  <speed>14.69</speed>
  <fix>3d</fix>
</trkpt>
<trkpt lat="-35.2755155" lon="148.9864334">
  <ele>706.25</ele>
  <time>2026-09-01T20:00:07Z</time>
  <course>7.65</course>
  <speed>14.268416169988875</speed>
  <fix>3d</fix>
</trkpt>
<trkpt lat="-35.2755284" lon="148.9864313">
  <ele>706.33</ele>
  <time>2026-09-01T20:00:07Z</time>
  <course>8.44</course>
  <speed>14.4</speed>
  <fix>3d</fix>
</trkpt>
<trkpt lat="-35.275503" lon="148.9864354">
  <ele>706.25</ele>
  <time>2026-09-01T20:00:07Z</time>
  <course>6.99</course>
  <speed>14.115186856715713</speed>
  <fix>3d</fix>
</trkpt>
<trkpt lat="-35.2755284" lon="148.9864313">
  <ele>706.33</ele>
  <time>2026-09-01T20:00:07Z</time>
  <course>8.44</course>
  <speed>14.4</speed>
  <fix>3d</fix>
</trkpt>
<trkpt lat="-35.2754905" lon="148.9864372">
  <ele>706.25</ele>
  <time>2026-09-01T20:00:07Z</time>
  <course>6.33</course>
  <speed>13.965170962075618</speed>
  <fix>3d</fix>
</trkpt>
<trkpt lat="-35.275503" lon="148.9864355">
  <ele>706.33</ele>
  <time>2026-09-01T20:00:07Z</time>
  <course>7.1</course>
  <speed>14.1</speed>
  <fix>3d</fix>
</trkpt>
<trkpt lat="-35.2754781" lon="148.9864389">
  <ele>706.25</ele>
  <time>2026-09-01T20:00:07Z</time>
  <course>5.66</course>
  <speed>13.81808235610137</speed>
  <fix>3d</fix>
</trkpt>
<trkpt lat="-35.275503" lon="148.9864355">
  <ele>706.33</ele>
  <time>2026-09-01T20:00:07Z</time>
  <course>7.1</course>
  <speed>14.1</speed>
  <fix>3d</fix>
</trkpt>
<trkpt lat="-35.2754658" lon="148.9864403">
  <ele>706.25</ele>
  <time>2026-09-01T20:00:07Z</time>
  <course>5.0</course>
  <speed>13.66192519376387</speed>
  <fix>3d</fix>
</trkpt>
<trkpt lat="-35.2754781" lon="148.986439">
  <ele>706.33</ele>
  <time>2026-09-01T20:00:07Z</time>
  <course>5.76</course>
  <speed>13.8</speed>
  <fix>3d</fix>
</trkpt>
<trkpt lat="-35.2754537" lon="148.9864415">
  <ele>706.26</ele>
  <time>2026-09-01T20:00:07Z</time>
  <course>4.33</course>
  <speed>13.508563950324254</speed>
  <fix>3d</fix>
</trkpt>
<trkpt lat="-35.2754781" lon="148.986439">
  <ele>706.33</ele>
  <time>2026-09-01T20:00:07Z</time>
  <course>5.76</course>
  <speed>13.8</speed>
  <fix>3d</fix>
</trkpt>
<trkpt lat="-35.2754417" lon="148.9864426">
  <ele>706.27</ele>
  <time>2026-09-01T20:00:07Z</time>
  <course>3.67</course>
  <speed>13.357713127627798</speed>
  <fix>3d</fix>
</trkpt>
<trkpt lat="-35.2754537" lon="148.9864416">
  <ele>706.34</ele>
  <time>2026-09-01T20:00:07Z</time>
  <course>4.43</course>
  <speed>13.5</speed>
  <fix>3d</fix>
</trkpt>
<trkpt lat="-35.2754298" lon="148.9864434">
  <ele>706.28</ele>
  <time>2026-09-01T20:00:07Z</time>
  <course>3.01</course>
  <speed>13.2085616173753</speed>
  <fix>3d</fix>
</trkpt>
<trkpt lat="-35.2754537" lon="148.9864416">
  <ele>706.34</ele>
  <time>2026-09-01T20:00:07Z</time>
  <course>4.43</course>
  <speed>13.5</speed>
  <fix>3d</fix>
</trkpt>
<trkpt lat="-35.2754181" lon="148.9864441">
  <ele>706.29</ele>
  <time>2026-09-01T20:00:07Z</time>
  <course>2.34</course>
  <speed>13.061167635399217</speed>
  <fix>3d</fix>
</trkpt>
<trkpt lat="-35.2754297" lon="148.9864435">
  <ele>706.36</ele>
  <time>2026-09-01T20:00:07Z</time>
  <course>3.12</course>
  <speed>13.2</speed>
  <fix>3d</fix>
</trkpt>
<trkpt lat="-35.2754065" lon="148.9864447">
  <ele>706.31</ele>
  <time>2026-09-01T20:00:07Z</time>
  <course>1.68</course>
  <speed>12.905894002354119</speed>
  <fix>3d</fix>
</trkpt>
<trkpt lat="-35.2754297" lon="148.9864435">
  <ele>706.36</ele>
  <time>2026-09-01T20:00:07Z</time>
  <course>3.12</course>
  <speed>13.2</speed>
  <fix>3d</fix>
</trkpt>
<trkpt lat="-35.275395" lon="148.986445">
  <ele>706.32</ele>
  <time>2026-09-01T20:00:07Z</time>
  <course>1.03</course>
  <speed>12.75245074485685</speed>
  <fix>3d</fix>
</trkpt>
<trkpt lat="-35.2754063" lon="148.9864448">
  <ele>706.38</ele>
  <time>2026-09-01T20:00:07Z</time>
  <course>1.83</course>
  <speed>12.9</speed>
  <fix>3d</fix>
</trkpt>
<trkpt lat="-35.2753836" lon="148.9864452">
  <ele>706.34</ele>
  <time>2026-09-01T20:00:07Z</time>
  <course>0.38</course>
  <speed>12.600396819148198</speed>
  <fix>3d</fix>
</trkpt>
<trkpt lat="-35.2754063" lon="148.9864448">
  <ele>706.38</ele>
  <time>2026-09-01T20:00:07Z</time>
  <course>1.83</course>
  <speed>12.9</speed>
  <fix>3d</fix>
</trkpt>
<trkpt lat="-35.2753724" lon="148.9864453">
  <ele>706.36</ele>
  <time>2026-09-01T20:00:07Z</time>
  <course>359.75</course>
  <speed>12.450016064246665</speed>
  <fix>3d</fix>
</trkpt>
<trkpt lat="-35.2753833" lon="148.9864454">
  <ele>706.42</ele>
  <time>2026-09-01T20:00:07Z</time>
  <course>0.56</course>
  <speed>12.6</speed>
  <fix>3d</fix>
</trkpt>
<trkpt lat="-35.2753613" lon="148.9864452">
  <ele>706.39</ele>
  <time>2026-09-01T20:00:07Z</time>
  <course>359.13</course>
  <speed>12.290915344269521</speed>
  <fix>3d</fix>
</trkpt>
<trkpt lat="-35.2753833" lon="148.9864454">
  <ele>706.42</ele>
  <time>2026-09-01T20:00:07Z</time>
  <course>0.56</course>
  <speed>12.6</speed>
  <fix>3d</fix>
</trkpt>
<trkpt lat="-35.2753502" lon="148.9864451">
  <ele>706.41</ele>
  <time>2026-09-01T20:00:07Z</time>
  <course>358.51</course>
  <speed>12.133231226676594</speed>
  <fix>3d</fix>
</trkpt>
<trkpt lat="-35.275361" lon="148.9864453">
  <ele>706.46</ele>
  <time>2026-09-01T20:00:07Z</time>
  <course>359.33</course>
  <speed>12.29</speed>
  <fix>3d</fix>
</trkpt>
<trkpt lat="-35.2753394" lon="148.9864447">
  <ele>706.44</ele>
  <time>2026-09-01T20:00:07Z</time>
  <course>357.9</course>
  <speed>11.976681510334988</speed>
  <fix>3d</fix>
</trkpt>
<trkpt lat="-35.275361" lon="148.9864453">
  <ele>706.46</ele>
  <time>2026-09-01T20:00:07Z</time>
  <course>359.33</course>
  <speed>12.29</speed>
  <fix>3d</fix>
</trkpt>
<trkpt lat="-35.2753287" lon="148.9864442">
  <ele>706.47</ele>
  <time>2026-09-01T20:00:07Z</time>
  <course>357.31</course>
  <speed>11.811452069919262</speed>
  <fix>3d</fix>
</trkpt>
<trkpt lat="-35.2753392" lon="148.9864447">
  <ele>706.52</ele>
  <time>2026-09-01T20:00:07Z</time>
  <course>358.12</course>
  <speed>11.97</speed>
  <fix>3d</fix>
</trkpt>
<trkpt lat="-35.2753182" lon="148.9864436">
  <ele>706.5</ele>
  <time>2026-09-01T20:00:07Z</time>
  <course>356.72</course>
  <speed>11.657036501615666</speed>
  <fix>3d</fix>
</trkpt>
<trkpt lat="-35.2753392" lon="148.9864447">
  <ele>706.52</ele>
  <time>2026-09-01T20:00:07Z</time>
  <course>358.12</course>
  <speed>11.97</speed>
  <fix>3d</fix>
</trkpt>
<trkpt lat="-35.2753078" lon="148.9864428">
  <ele>706.54</ele>
  <time>2026-09-01T20:00:07Z</time>
  <course>356.14</course>
  <speed>11.493206689170782</speed>
  <fix>3d</fix>
</trkpt>
<trkpt lat="-35.275318" lon="148.9864437">
  <ele>706.57</ele>
  <time>2026-09-01T20:00:07Z</time>
  <course>356.96</course>
  <speed>11.65</speed>
  <fix>3d</fix>
</trkpt>
<trkpt lat="-35.2752976" lon="148.986442">
  <ele>706.57</ele>
  <time>2026-09-01T20:00:07Z</time>
  <course>355.58</course>
  <speed>11.330441297672389</speed>
  <fix>3d</fix>
</trkpt>
<trkpt lat="-35.275318" lon="148.9864437">
  <ele>706.57</ele>
  <time>2026-09-01T20:00:07Z</time>
  <course>356.96</course>
  <speed>11.65</speed>
  <fix>3d</fix>
</trkpt>
<trkpt lat="-35.2752875" lon="148.986441">
  <ele>706.61</ele>
  <time>2026-09-01T20:00:07Z</time>
  <course>355.02</course>
  <speed>11.157992651010307</speed>
  <fix>3d</fix>
</trkpt>
<trkpt lat="-35.2752974" lon="148.9864422">
  <ele>706.64</ele>
  <time>2026-09-01T20:00:07Z</time>
  <course>355.83</course>
  <speed>11.32</speed>
  <fix>3d</fix>
</trkpt>
<trkpt lat="-35.2752776" lon="148.98644">
  <ele>706.65</ele>
  <time>2026-09-01T20:00:07Z</time>
  <course>354.48</course>
  <speed>10.98652356298388</speed>
  <fix>3d</fix>
</trkpt>
<trkpt lat="-35.2752974" lon="148.9864422">
  <ele>706.64</ele>
  <time>2026-09-01T20:00:07Z</time>
  <course>355.83</course>
  <speed>11.32</speed>
  <fix>3d</fix>
</trkpt>
<trkpt lat="-35.2752678" lon="148.9864388">
  <ele>706.69</ele>
  <time>2026-09-01T20:00:07Z</time>
  <course>353.95</course>
  <speed>10.825017321002308</speed>
  <fix>3d</fix>
</trkpt>
<trkpt lat="-35.2752774" lon="148.9864402">
  <ele>706.72</ele>
  <time>2026-09-01T20:00:07Z</time>
  <course>354.75</course>
  <speed>10.98</speed>
  <fix>3d</fix>
</trkpt>
<trkpt lat="-35.2752582" lon="148.9864376">
  <ele>706.73</ele>
  <time>2026-09-01T20:00:07Z</time>
  <course>353.42</course>
  <speed>10.644496230446983</speed>
  <fix>3d</fix>
</trkpt>
<trkpt lat="-35.2752774" lon="148.9864402">
  <ele>706.72</ele>
  <time>2026-09-01T20:00:07Z</time>
  <course>354.75</course>
  <speed>10.98</speed>
  <fix>3d</fix>
</trkpt>
<trkpt lat="-35.2752488" lon="148.9864363">
  <ele>706.77</ele>
  <time>2026-09-01T20:00:07Z</time>
  <course>352.91</course>
  <speed>10.473662205742555</speed>
  <fix>3d</fix>
</trkpt>
<trkpt lat="-35.2752581" lon="148.9864377">
  <ele>706.8</ele>
  <time>2026-09-01T20:00:07Z</time>
  <course>353.72</course>
  <speed>10.63</speed>
  <fix>3d</fix>
</trkpt>
<trkpt lat="-35.2752395" lon="148.9864349">
  <ele>706.82</ele>
  <time>2026-09-01T20:00:07Z</time>
  <course>352.41</course>
  <speed>10.302349246652437</speed>
  <fix>3d</fix>
</trkpt>
<trkpt lat="-35.2752581" lon="148.9864377">
  <ele>706.8</ele>
  <time>2026-09-01T20:00:07Z</time>
  <course>353.72</course>
  <speed>10.63</speed>
  <fix>3d</fix>
</trkpt>
<trkpt lat="-35.2752304" lon="148.9864335">
  <ele>706.86</ele>
  <time>2026-09-01T20:00:07Z</time>
  <course>351.93</course>
  <speed>10.121783439690853</speed>
  <fix>3d</fix>
</trkpt>
<trkpt lat="-35.2752394" lon="148.9864351">
  <ele>706.88</ele>
  <time>2026-09-01T20:00:07Z</time>
  <course>352.74</course>
  <speed>10.28</speed>
  <fix>3d</fix>
</trkpt>
<trkpt lat="-35.2752215" lon="148.986432">
  <ele>706.91</ele>
  <time>2026-09-01T20:00:07Z</time>
  <course>351.45</course>
  <speed>9.94193140189571</speed>
  <fix>3d</fix>
</trkpt>
<trkpt lat="-35.2752394" lon="148.9864351">
  <ele>706.88</ele>
  <time>2026-09-01T20:00:07Z</time>
  <course>352.74</course>
  <speed>10.28</speed>
  <fix>3d</fix>
</trkpt>
<trkpt lat="-35.2752128" lon="148.9864304">
  <ele>706.95</ele>
  <time>2026-09-01T20:00:07Z</time>
  <course>350.99</course>
  <speed>9.761321631828345</speed>
  <fix>3d</fix>
</trkpt>
<trkpt lat="-35.2752215" lon="148.9864321">
  <ele>706.97</ele>
  <time>2026-09-01T20:00:07Z</time>
  <course>351.8</course>
  <speed>9.92</speed>
  <fix>3d</fix>
</trkpt>
<trkpt lat="-35.2752042" lon="148.9864288">
  <ele>706.99</ele>
  <time>2026-09-01T20:00:07Z</time>
  <course>350.53</course>
  <speed>9.579754694145358</speed>
  <fix>3d</fix>
</trkpt>
<trkpt lat="-35.2752215" lon="148.9864321">
  <ele>706.97</ele>
  <time>2026-09-01T20:00:07Z</time>
  <course>351.8</course>
  <speed>9.92</speed>
  <fix>3d</fix>
</trkpt>
<trkpt lat="-35.2751959" lon="148.9864271">
  <ele>707.03</ele>
  <time>2026-09-01T20:00:07Z</time>
  <course>350.09</course>
  <speed>9.388828467918668</speed>
  <fix>3d</fix>
</trkpt>
<trkpt lat="-35.2752042" lon="148.9864288">
  <ele>707.06</ele>
  <time>2026-09-01T20:00:07Z</time>
  <course>350.91</course>
  <speed>9.56</speed>
  <fix>3d</fix>
</trkpt>
<trkpt lat="-35.2751877" lon="148.9864254">
  <ele>707.07</ele>
  <time>2026-09-01T20:00:07Z</time>
  <course>349.67</course>
  <speed>9.206590031059273</speed>
  <fix>3d</fix>
</trkpt>
<trkpt lat="-35.2752042" lon="148.9864288">
  <ele>707.06</ele>
  <time>2026-09-01T20:00:07Z</time>
  <course>350.91</course>
  <speed>9.56</speed>
  <fix>3d</fix>
</trkpt>
<trkpt lat="-35.2751797" lon="148.9864237">
  <ele>707.11</ele>
  <time>2026-09-01T20:00:08Z</time>
  <course>349.26</course>
  <speed>9.024771465250518</speed>
  <fix>3d</fix>
</trkpt>
<trkpt lat="-35.2751875" lon="148.9864254">
  <ele>707.14</ele>
  <time>2026-09-01T20:00:08Z</time>
  <course>350.08</course>
  <speed>9.19</speed>
  <fix>3d</fix>
</trkpt>
<trkpt lat="-35.2751719" lon="148.9864219">
  <ele>707.15</ele>
  <time>2026-09-01T20:00:08Z</time>
  <course>348.86</course>
  <speed>8.833572323811019</speed>
  <fix>3d</fix>
</trkpt>
<trkpt lat="-35.2751875" lon="148.9864254">
  <ele>707.14</ele>
  <time>2026-09-01T20:00:08Z</time>
  <course>350.08</course>
  <speed>9.19</speed>
  <fix>3d</fix>
</trkpt>
<trkpt lat="-35.2751642" lon="148.9864201">
  <ele>707.18</ele>
  <time>2026-09-01T20:00:08Z</time>
  <course>348.47</course>
  <speed>8.650762972131417</speed>
  <fix>3d</fix>
</trkpt>
<trkpt lat="-35.2751716" lon="148.9864218">
  <ele>707.22</ele>
  <time>2026-09-01T20:00:08Z</time>
  <course>349.29</course>
  <speed>8.83</speed>
  <fix>3d</fix>
</trkpt>
<trkpt lat="-35.2751568" lon="148.9864183">
  <ele>707.21</ele>
  <time>2026-09-01T20:00:08Z</time>
  <course>348.1</course>
  <speed>8.46633923251366</speed>
  <fix>3d</fix>
</trkpt>
<trkpt lat="-35.2751716" lon="148.9864218">
  <ele>707.22</ele>
  <time>2026-09-01T20:00:08Z</time>
  <course>349.29</course>
  <speed>8.83</speed>
  <fix>3d</fix>
</trkpt>
<trkpt lat="-35.2751494" lon="148.9864165">
  <ele>707.24</ele>
  <time>2026-09-01T20:00:08Z</time>
  <course>347.73</course>
  <speed>8.284213903563813</speed>
  <fix>3d</fix>
</trkpt>
<trkpt lat="-35.2751564" lon="148.9864182">
  <ele>707.29</ele>
  <time>2026-09-01T20:00:08Z</time>
  <course>348.55</course>
  <speed>8.45</speed>
  <fix>3d</fix>
</trkpt>
<trkpt lat="-35.2751423" lon="148.9864146">
  <ele>707.27</ele>
  <time>2026-09-01T20:00:08Z</time>
  <course>347.37</course>
  <speed>8.098302291221291</speed>
  <fix>3d</fix>
</trkpt>
<trkpt lat="-35.2751564" lon="148.9864182">
  <ele>707.29</ele>
  <time>2026-09-01T20:00:08Z</time>
  <course>348.55</course>
  <speed>8.45</speed>
  <fix>3d</fix>
</trkpt>
<trkpt lat="-35.2751353" lon="148.9864128">
  <ele>707.29</ele>
  <time>2026-09-01T20:00:08Z</time>
  <course>347.03</course>
  <speed>7.914726779870547</speed>
  <fix>3d</fix>
</trkpt>
<trkpt lat="-35.2751564" lon="148.9864182">
  <ele>707.29</ele>
  <time>2026-09-01T20:00:08Z</time>
  <course>348.55</course>
  <speed>8.45</speed>
  <fix>3d</fix>
</trkpt>
<trkpt lat="-35.2751284" lon="148.9864109">
  <ele>707.31</ele>
  <time>2026-09-01T20:00:08Z</time>
  <course>346.69</course>
  <speed>7.719514233421686</speed>
  <fix>3d</fix>
</trkpt>
<trkpt lat="-35.2751418" lon="148.9864145">
  <ele>707.34</ele>
  <time>2026-09-01T20:00:08Z</time>
  <course>347.85</course>
  <speed>8.08</speed>
  <fix>3d</fix>
</trkpt>
<trkpt lat="-35.2751217" lon="148.986409">
  <ele>707.33</ele>
  <time>2026-09-01T20:00:08Z</time>
  <course>346.36</course>
  <speed>7.534294923879739</speed>
  <fix>3d</fix>
</trkpt>
<trkpt lat="-35.2751279" lon="148.9864107">
  <ele>707.39</ele>
  <time>2026-09-01T20:00:08Z</time>
  <course>347.2</course>
  <speed>7.71</speed>
  <fix>3d</fix>
</trkpt>
<trkpt lat="-35.2751153" lon="148.9864072">
  <ele>707.34</ele>
  <time>2026-09-01T20:00:08Z</time>
  <course>346.05</course>
  <speed>7.347012998491292</speed>
  <fix>3d</fix>
</trkpt>
<trkpt lat="-35.2751279" lon="148.9864107">
  <ele>707.39</ele>
  <time>2026-09-01T20:00:08Z</time>
  <course>347.2</course>
  <speed>7.71</speed>
  <fix>3d</fix>
</trkpt>
<trkpt lat="-35.2751089" lon="148.9864053">
  <ele>707.35</ele>
  <time>2026-09-01T20:00:08Z</time>
  <course>345.76</course>
  <speed>7.169609473325587</speed>
  <fix>3d</fix>
</trkpt>
<trkpt lat="-35.2751148" lon="148.9864069">
  <ele>707.42</ele>
  <time>2026-09-01T20:00:08Z</time>
  <course>346.62</course>
  <speed>7.34</speed>
  <fix>3d</fix>
</trkpt>
<trkpt lat="-35.2751028" lon="148.9864035">
  <ele>707.35</ele>
  <time>2026-09-01T20:00:08Z</time>
  <course>345.47</course>
  <speed>6.992352965919269</speed>
  <fix>3d</fix>
</trkpt>
<trkpt lat="-35.2751148" lon="148.9864069">
  <ele>707.42</ele>
  <time>2026-09-01T20:00:08Z</time>
  <course>346.62</course>
  <speed>7.34</speed>
  <fix>3d</fix>
</trkpt>
<trkpt lat="-35.2750968" lon="148.9864016">
  <ele>707.33</ele>
  <time>2026-09-01T20:00:08Z</time>
  <course>345.2</course>
  <speed>6.800705845719251</speed>
  <fix>3d</fix>
</trkpt>
<trkpt lat="-35.2751023" lon="148.9864033">
  <ele>707.42</ele>
  <time>2026-09-01T20:00:08Z</time>
  <course>346.13</course>
  <speed>6.98</speed>
  <fix>3d</fix>
</trkpt>
<trkpt lat="-35.275091" lon="148.9863999">
  <ele>707.25</ele>
  <time>2026-09-01T20:00:08Z</time>
  <course>344.95</course>
  <speed>6.565439817712139</speed>
  <fix>3d</fix>
</trkpt>
<trkpt lat="-35.2751023" lon="148.9864033">
  <ele>707.42</ele>
  <time>2026-09-01T20:00:08Z</time>
  <course>346.13</course>
  <speed>6.98</speed>
  <fix>3d</fix>
</trkpt>
<trkpt lat="-35.2750854" lon="148.9863982">
  <ele>707.09</ele>
  <time>2026-09-01T20:00:08Z</time>
  <course>344.73</course>
  <speed>6.267120550938844</speed>
  <fix>3d</fix>
</trkpt>
<trkpt lat="-35.2750905" lon="148.9863997">
  <ele>707.29</ele>
  <time>2026-09-01T20:00:08Z</time>
  <course>345.88</course>
  <speed>6.53</speed>
  <fix>3d</fix>
</trkpt>
<trkpt lat="-35.2750801" lon="148.9863965">
  <ele>706.86</ele>
  <time>2026-09-01T20:00:08Z</time>
  <course>344.53</course>
  <speed>5.87664019657491</speed>
  <fix>3d</fix>
</trkpt>
<trkpt lat="-35.2750905" lon="148.9863997">
  <ele>707.29</ele>
  <time>2026-09-01T20:00:08Z</time>
  <course>345.88</course>
  <speed>6.53</speed>
  <fix>3d</fix>
</trkpt>
<trkpt lat="-35.2750751" lon="148.986395">
  <ele>706.59</ele>
  <time>2026-09-01T20:00:08Z</time>
  <course>344.31</course>
  <speed>5.413400040639893</speed>
  <fix>3d</fix>
</trkpt>
<trkpt lat="-35.2750797" lon="148.9863963">
  <ele>706.93</ele>
  <time>2026-09-01T20:00:08Z</time>
  <course>345.73</course>
  <speed>5.83</speed>
  <fix>3d</fix>
</trkpt>
<trkpt lat="-35.2750707" lon="148.9863936">
  <ele>706.27</ele>
  <time>2026-09-01T20:00:08Z</time>
  <course>344.05</course>
  <speed>4.882315024657872</speed>
  <fix>3d</fix>
</trkpt>
<trkpt lat="-35.2750797" lon="148.9863963">
  <ele>706.93</ele>
  <time>2026-09-01T20:00:08Z</time>
  <course>345.73</course>
  <speed>5.83</speed>
  <fix>3d</fix>
</trkpt>
<trkpt lat="-35.2750667" lon="148.9863923">
  <ele>705.93</ele>
  <time>2026-09-01T20:00:08Z</time>
  <course>343.73</course>
  <speed>4.329457240809753</speed>
  <fix>3d</fix>
</trkpt>
<trkpt lat="-35.2750703" lon="148.9863934">
  <ele>706.36</ele>
  <time>2026-09-01T20:00:08Z</time>
  <course>345.37</course>
  <speed>4.87</speed>
  <fix>3d</fix>
</trkpt>
<trkpt lat="-35.2750631" lon="148.9863912">
  <ele>705.58</ele>
  <time>2026-09-01T20:00:08Z</time>
  <course>343.36</course>
  <speed>3.7670280062670094</speed>
  <fix>3d</fix>
</trkpt>
<trkpt lat="-35.2750703" lon="148.9863934">
  <ele>706.36</ele>
  <time>2026-09-01T20:00:08Z</time>
  <course>345.37</course>
  <speed>4.87</speed>
  <fix>3d</fix>
</trkpt>
<trkpt lat="-35.2750601" lon="148.9863902">
  <ele>705.22</ele>
  <time>2026-09-01T20:00:08Z</time>
  <course>342.94</course>
  <speed>3.2170794208412077</speed>
  <fix>3d</fix>
</trkpt>
<trkpt lat="-35.2750628" lon="148.986391">
  <ele>705.68</ele>
  <time>2026-09-01T20:00:08Z</time>
  <course>344.56</course>
  <speed>3.77</speed>
  <fix>3d</fix>
</trkpt>
<trkpt lat="-35.2750575" lon="148.9863893">
  <ele>704.88</ele>
  <time>2026-09-01T20:00:08Z</time>
  <course>342.5</course>
  <speed>2.689609637103496</speed>
  <fix>3d</fix>
</trkpt>
<trkpt lat="-35.2750628" lon="148.986391">
  <ele>705.68</ele>
  <time>2026-09-01T20:00:08Z</time>
  <course>344.56</course>
  <speed>3.77</speed>
  <fix>3d</fix>
</trkpt>
<trkpt lat="-35.2750554" lon="148.9863885">
  <ele>704.54</ele>
  <time>2026-09-01T20:00:08Z</time>
  <course>342.05</course>
  <speed>2.207351353998724</speed>
  <fix>3d</fix>
</trkpt>
<trkpt lat="-35.2750572" lon="148.986389">
  <ele>704.99</ele>
  <time>2026-09-01T20:00:08Z</time>
  <course>342.78</course>
  <speed>2.7</speed>
  <fix>3d</fix>
</trkpt>
<trkpt lat="-35.2750537" lon="148.9863877">
  <ele>704.23</ele>
  <time>2026-09-01T20:00:08Z</time>
  <course>341.65</course>
  <speed>1.7685304634074022</speed>
  <fix>3d</fix>
</trkpt>
<trkpt lat="-35.2750572" lon="148.986389">
  <ele>704.99</ele>
  <time>2026-09-01T20:00:08Z</time>
  <course>342.78</course>
  <speed>2.7</speed>
  <fix>3d</fix>
</trkpt>
<trkpt lat="-35.2750524" lon="148.9863871">
  <ele>703.93</ele>
  <time>2026-09-01T20:00:08Z</time>
  <course>341.29</course>
  <speed>1.383979768638256</speed>
  <fix>3d</fix>
</trkpt>
<trkpt lat="-35.2750534" lon="148.9863874">
  <ele>704.34</ele>
  <time>2026-09-01T20:00:08Z</time>
  <course>338.77</course>
  <speed>1.77</speed>
  <fix>3d</fix>
</trkpt>
<trkpt lat="-35.2750514" lon="148.9863865">
  <ele>703.68</ele>
  <time>2026-09-01T20:00:08Z</time>
  <course>341.04</course>
  <speed>1.0519030373565805</speed>
  <fix>3d</fix>
</trkpt>
<trkpt lat="-35.2750534" lon="148.9863874">
  <ele>704.34</ele>
  <time>2026-09-01T20:00:08Z</time>
  <course>338.77</course>
  <speed>1.77</speed>
  <fix>3d</fix>
</trkpt>
<trkpt lat="-35.2750507" lon="148.9863859">
  <ele>703.45</ele>
  <time>2026-09-01T20:00:08Z</time>
  <course>340.92</course>
  <speed>0.7902531240052139</speed>
  <fix>3d</fix>
</trkpt>
<trkpt lat="-35.2750534" lon="148.9863874">
  <ele>704.34</ele>
  <time>2026-09-01T20:00:08Z</time>
  <course>338.77</course>
  <speed>1.77</speed>
  <fix>3d</fix>
</trkpt>
<trkpt lat="-35.2750502" lon="148.9863853">
  <ele>703.26</ele>
  <time>2026-09-01T20:00:08Z</time>
  <course>340.97</course>
  <speed>0.6140032573203501</speed>
  <fix>3d</fix>
</trkpt>
<trkpt lat="-35.2750511" lon="148.9863861">
  <ele>703.8</ele>
  <time>2026-09-01T20:00:08Z</time>
  <course>328.93</course>
  <speed>1.06</speed>
  <fix>3d</fix>
</trkpt>
<trkpt lat="-35.27505" lon="148.9863847">
  <ele>703.12</ele>
  <time>2026-09-01T20:00:08Z</time>
  <course>341.22</course>
  <speed>0.5314132102234569</speed>
  <fix>3d</fix>
</trkpt>
<trkpt lat="-35.2750511" lon="148.9863861">
  <ele>703.8</ele>
  <time>2026-09-01T20:00:08Z</time>
  <course>328.93</course>
  <speed>1.06</speed>
  <fix>3d</fix>
</trkpt>
<trkpt lat="-35.2750499" lon="148.9863841">
  <ele>703.01</ele>
  <time>2026-09-01T20:00:08Z</time>
  <course>341.64</course>
  <speed>0.5108815909777921</speed>
  <fix>3d</fix>
</trkpt>
<trkpt lat="-35.2750501" lon="148.9863849">
  <ele>703.39</ele>
  <time>2026-09-01T20:00:08Z</time>
  <course>304.53</course>
  <speed>0.62</speed>
  <fix>3d</fix>
</trkpt>
<trkpt lat="-35.2750499" lon="148.9863835">
  <ele>702.95</ele>
  <time>2026-09-01T20:00:08Z</time>
  <course>342.21</course>
  <speed>0.5333854141237835</speed>
  <fix>3d</fix>
</trkpt>
<trkpt lat="-35.2750501" lon="148.9863849">
  <ele>703.39</ele>
  <time>2026-09-01T20:00:08Z</time>
  <course>304.53</course>
  <speed>0.62</speed>
  <fix>3d</fix>
</trkpt>
<trkpt lat="-35.27505" lon="148.9863829">
  <ele>702.91</ele>
  <time>2026-09-01T20:00:08Z</time>
  <course>342.86</course>
  <speed>0.5675385449465085</speed>
  <fix>3d</fix>
</trkpt>
<trkpt lat="-35.2750498" lon="148.9863838">
  <ele>703.14</ele>
  <time>2026-09-01T20:00:08Z</time>
  <course>269.69</course>
  <speed>0.52</speed>
  <fix>3d</fix>
</trkpt>
<trkpt lat="-35.2750501" lon="148.9863823">
  <ele>702.92</ele>
  <time>2026-09-01T20:00:08Z</time>
  <course>343.45</course>
  <speed>0.5882176467941097</speed>
  <fix>3d</fix>
</trkpt>
<trkpt lat="-35.2750498" lon="148.9863838">
  <ele>703.14</ele>
  <time>2026-09-01T20:00:08Z</time>
  <course>269.69</course>
  <speed>0.52</speed>
  <fix>3d</fix>
</trkpt>
<trkpt lat="-35.2750502" lon="148.9863816">
  <ele>702.95</ele>
  <time>2026-09-01T20:00:08Z</time>
  <course>343.9</course>
  <speed>0.6109828148156051</speed>
  <fix>3d</fix>
</trkpt>
<trkpt lat="-35.2750499" lon="148.9863826">
  <ele>703.05</ele>
  <time>2026-09-01T20:00:08Z</time>
  <course>250.77</course>
  <speed>0.58</speed>
  <fix>3d</fix>
</trkpt>
<trkpt lat="-35.2750505" lon="148.986381">
  <ele>703.0</ele>
  <time>2026-09-01T20:00:08Z</time>
  <course>344.13</course>
  <speed>0.6092618484691127</speed>
  <fix>3d</fix>
</trkpt>
<trkpt lat="-35.2750499" lon="148.9863826">
  <ele>703.05</ele>
  <time>2026-09-01T20:00:08Z</time>
  <course>250.77</course>
  <speed>0.58</speed>
  <fix>3d</fix>
</trkpt>
<trkpt lat="-35.2750507" lon="148.9863804">
  <ele>703.07</ele>
  <time>2026-09-01T20:00:08Z</time>
  <course>344.14</course>
  <speed>0.6041522986797286</speed>
  <fix>3d</fix>
</trkpt>
<trkpt lat="-35.2750504" lon="148.9863814">
  <ele>703.08</ele>
  <time>2026-09-01T20:00:08Z</time>
  <course>243.2</course>
  <speed>0.62</speed>
  <fix>3d</fix>
</trkpt>
<trkpt lat="-35.2750509" lon="148.9863798">
  <ele>703.15</ele>
  <time>2026-09-01T20:00:08Z</time>
  <course>343.97</course>
  <speed>0.5950630218724736</speed>
  <fix>3d</fix>
</trkpt>
<trkpt lat="-35.2750508" lon="148.9863801">
  <ele>703.2</ele>
  <time>2026-09-01T20:00:08Z</time>
  <course>239.53</course>
  <speed>0.62</speed>
  <fix>3d</fix>
</trkpt>
<trkpt lat="-35.2750512" lon="148.9863792">
  <ele>703.23</ele>
  <time>2026-09-01T20:00:08Z</time>
  <course>343.69</course>
  <speed>0.5727128425310541</speed>
  <fix>3d</fix>
</trkpt>
<trkpt lat="-35.2750508" lon="148.9863801">
  <ele>703.2</ele>
  <time>2026-09-01T20:00:08Z</time>
  <course>239.53</course>
  <speed>0.62</speed>
  <fix>3d</fix>
</trkpt>
<trkpt lat="-35.2750514" lon="148.9863786">
  <ele>703.31</ele>
  <time>2026-09-01T20:00:08Z</time>
  <course>343.36</course>
  <speed>0.5594640292279746</speed>
  <fix>3d</fix>
</trkpt>
<trkpt lat="-35.2750514" lon="148.986379">
  <ele>703.36</ele>
  <time>2026-09-01T20:00:08Z</time>
  <course>238.14</course>
  <speed>0.59</speed>
  <fix>3d</fix>
</trkpt>
<trkpt lat="-35.2750517" lon="148.986378">
  <ele>703.38</ele>
  <time>2026-09-01T20:00:08Z</time>
  <course>343.08</course>
  <speed>0.5331041174104736</speed>
  <fix>3d</fix>
</trkpt>
<trkpt lat="-35.2750514" lon="148.986379">
  <ele>703.36</ele>
  <time>2026-09-01T20:00:08Z</time>
  <course>238.14</course>
  <speed>0.59</speed>
  <fix>3d</fix>
</trkpt>
<trkpt lat="-35.2750519" lon="148.9863775">
  <ele>703.45</ele>
  <time>2026-09-01T20:00:08Z</time>
  <course>342.9</course>
  <speed>0.5107837115648853</speed>
  <fix>3d</fix>
</trkpt>
<trkpt lat="-35.275052" lon="148.9863779">
  <ele>703.51</ele>
  <time>2026-09-01T20:00:08Z</time>
  <course>238.39</course>
  <speed>0.54</speed>
  <fix>3d</fix>
</trkpt>
<trkpt lat="-35.2750521" lon="148.986377">
  <ele>703.5</ele>
  <time>2026-09-01T20:00:08Z</time>
  <course>342.84</course>
  <speed>0.48104053883222775</speed>
  <fix>3d</fix>
</trkpt>
<trkpt lat="-35.275052" lon="148.9863779">
  <ele>703.51</ele>
  <time>2026-09-01T20:00:08Z</time>
  <course>238.39</course>
  <speed>0.54</speed>
  <fix>3d</fix>
</trkpt>
<trkpt lat="-35.2750523" lon="148.9863765">
  <ele>703.54</ele>
  <time>2026-09-01T20:00:08Z</time>
  <course>342.9</course>
  <speed>0.455411901469428</speed>
  <fix>3d</fix>
</trkpt>
<trkpt lat="-35.2750525" lon="148.9863769">
  <ele>703.63</ele>
  <time>2026-09-01T20:00:08Z</time>
  <course>240.16</course>
  <speed>0.49</speed>
  <fix>3d</fix>
</trkpt>
<trkpt lat="-35.2750525" lon="148.986376">
  <ele>703.57</ele>
  <time>2026-09-01T20:00:08Z</time>
  <course>343.08</course>
  <speed>0.4368065933568311</speed>
  <fix>3d</fix>
</trkpt>
<trkpt lat="-35.2750525" lon="148.9863769">
  <ele>703.63</ele>
  <time>2026-09-01T20:00:08Z</time>
  <course>240.16</course>
  <speed>0.49</speed>
  <fix>3d</fix>
</trkpt>
<trkpt lat="-35.2750526" lon="148.9863756">
  <ele>703.59</ele>
  <time>2026-09-01T20:00:08Z</time>
  <course>343.34</course>
  <speed>0.41</speed>
  <fix>3d</fix>
</trkpt>
<trkpt lat="-35.2750528" lon="148.986376">
  <ele>703.7</ele>
  <time>2026-09-01T20:00:08Z</time>
  <course>244.09</course>
  <speed>0.43</speed>
  <fix>3d</fix>
</trkpt>
<trkpt lat="-35.2750527" lon="148.9863752">
  <ele>703.59</ele>
  <time>2026-09-01T20:00:08Z</time>
  <course>343.63</course>
  <speed>0.383275357934736</speed>
  <fix>3d</fix>
</trkpt>
<trkpt lat="-35.2750528" lon="148.986376">
  <ele>703.7</ele>
  <time>2026-09-01T20:00:08Z</time>
  <course>244.09</course>
  <speed>0.43</speed>
  <fix>3d</fix>
</trkpt>
<trkpt lat="-35.2750528" lon="148.9863748">
  <ele>703.59</ele>
  <time>2026-09-01T20:00:08Z</time>
  <course>343.91</course>
  <speed>0.36013886210738216</speed>
  <fix>3d</fix>
</trkpt>
<trkpt lat="-35.2750531" lon="148.9863752">
  <ele>703.73</ele>
  <time>2026-09-01T20:00:08Z</time>
  <course>251.93</course>
  <speed>0.36</speed>
  <fix>3d</fix>
</trkpt>
<trkpt lat="-35.2750528" lon="148.9863744">
  <ele>703.58</ele>
  <time>2026-09-01T20:00:08Z</time>
  <course>344.14</course>
  <speed>0.34132096331752027</speed>
  <fix>3d</fix>
</trkpt>
<trkpt lat="-35.2750531" lon="148.9863752">
  <ele>703.73</ele>
  <time>2026-09-01T20:00:08Z</time>
  <course>251.93</course>
  <speed>0.36</speed>
  <fix>3d</fix>
</trkpt>
<trkpt lat="-35.2750528" lon="148.986374">
  <ele>703.56</ele>
  <time>2026-09-01T20:00:08Z</time>
  <course>344.3</course>
  <speed>0.33955853692699295</speed>
  <fix>3d</fix>
</trkpt>
<trkpt lat="-35.2750531" lon="148.9863752">
  <ele>703.73</ele>
  <time>2026-09-01T20:00:08Z</time>
  <course>251.93</course>
  <speed>0.36</speed>
  <fix>3d</fix>
</trkpt>
<trkpt lat="-35.2750527" lon="148.9863737">
  <ele>703.54</ele>
  <time>2026-09-01T20:00:08Z</time>
  <course>344.38</course>
  <speed>0.340147027033899</speed>
  <fix>3d</fix>
</trkpt>
<trkpt lat="-35.2750532" lon="148.9863745">
  <ele>703.71</ele>
  <time>2026-09-01T20:00:08Z</time>
  <course>266.02</course>
  <speed>0.31</speed>
  <fix>3d</fix>
</trkpt>
<trkpt lat="-35.2750526" lon="148.9863734">
  <ele>703.51</ele>
  <time>2026-09-01T20:00:08Z</time>
  <course>344.39</course>
  <speed>0.3522782990761707</speed>
  <fix>3d</fix>
</trkpt>
<trkpt lat="-35.2750532" lon="148.9863745">
  <ele>703.71</ele>
  <time>2026-09-01T20:00:08Z</time>
  <course>266.02</course>
  <speed>0.31</speed>
  <fix>3d</fix>
</trkpt>
<trkpt lat="-35.2750525" lon="148.9863731">
  <ele>703.48</ele>
  <time>2026-09-01T20:00:08Z</time>
  <course>344.34</course>
  <speed>0.3818376618407357</speed>
  <fix>3d</fix>
</trkpt>
<trkpt lat="-35.2750532" lon="148.9863739">
  <ele>703.67</ele>
  <time>2026-09-01T20:00:08Z</time>
  <course>288.2</course>
  <speed>0.28</speed>
  <fix>3d</fix>
</trkpt>
<trkpt lat="-35.2750523" lon="148.9863728">
  <ele>703.46</ele>
  <time>2026-09-01T20:00:08Z</time>
  <course>344.27</course>
  <speed>0.4280186911806539</speed>
  <fix>3d</fix>
</trkpt>
<trkpt lat="-35.2750532" lon="148.9863739">
  <ele>703.67</ele>
  <time>2026-09-01T20:00:08Z</time>
  <course>288.2</course>
  <speed>0.28</speed>
  <fix>3d</fix>
</trkpt>
<trkpt lat="-35.275052" lon="148.9863726">
  <ele>703.44</ele>
  <time>2026-09-01T20:00:08Z</time>
  <course>344.18</course>
  <speed>0.47507894080878815</speed>
  <fix>3d</fix>
</trkpt>
<trkpt lat="-35.275053" lon="148.9863733">
  <ele>703.62</ele>
  <time>2026-09-01T20:00:08Z</time>
  <course>313.03</course>
  <speed>0.32</speed>
  <fix>3d</fix>
</trkpt>
<trkpt lat="-35.2750517" lon="148.9863724">
  <ele>703.42</ele>
  <time>2026-09-01T20:00:08Z</time>
  <course>344.11</course>
  <speed>0.5322593352868505</speed>
  <fix>3d</fix>
</trkpt>
<trkpt lat="-35.275053" lon="148.9863733">
  <ele>703.62</ele>
  <time>2026-09-01T20:00:08Z</time>
  <course>313.03</course>
  <speed>0.32</speed>
  <fix>3d</fix>
</trkpt>
<trkpt lat="-35.2750513" lon="148.9863721">
  <ele>703.4</ele>
  <time>2026-09-01T20:00:08Z</time>
  <course>344.07</course>
  <speed>0.6016643582596529</speed>
  <fix>3d</fix>
</trkpt>
<trkpt lat="-35.2750525" lon="148.9863728">
  <ele>703.57</ele>
  <time>2026-09-01T20:00:08Z</time>
  <course>330.86</course>
  <speed>0.41</speed>
  <fix>3d</fix>
</trkpt>
<trkpt lat="-35.2750508" lon="148.9863719">
  <ele>703.39</ele>
  <time>2026-09-01T20:00:08Z</time>
  <course>344.05</course>
  <speed>0.6640783086353597</speed>
  <fix>3d</fix>
</trkpt>
<trkpt lat="-35.2750525" lon="148.9863728">
  <ele>703.57</ele>
  <time>2026-09-01T20:00:08Z</time>
  <course>330.86</course>
  <speed>0.41</speed>
  <fix>3d</fix>
</trkpt>
<trkpt lat="-35.2750502" lon="148.9863718">
  <ele>703.38</ele>
  <time>2026-09-01T20:00:08Z</time>
  <course>344.06</course>
  <speed>0.7376313442364011</speed>
  <fix>3d</fix>
</trkpt>
<trkpt lat="-35.2750517" lon="148.9863724">
  <ele>703.54</ele>
  <time>2026-09-01T20:00:08Z</time>
  <course>341.12</course>
  <speed>0.54</speed>
  <fix>3d</fix>
</trkpt>
<trkpt lat="-35.2750496" lon="148.9863716">
  <ele>703.38</ele>
  <time>2026-09-01T20:00:08Z</time>
  <course>344.09</course>
  <speed>0.802807573457052</speed>
  <fix>3d</fix>
</trkpt>
<trkpt lat="-35.2750517" lon="148.9863724">
  <ele>703.54</ele>
  <time>2026-09-01T20:00:08Z</time>
  <course>341.12</course>
  <speed>0.54</speed>
  <fix>3d</fix>
</trkpt>
<trkpt lat="-35.2750489" lon="148.9863714">
  <ele>703.39</ele>
  <time>2026-09-01T20:00:08Z</time>
  <course>344.13</course>
  <speed>0.8688498144098322</speed>
  <fix>3d</fix>
</trkpt>
<trkpt lat="-35.2750506" lon="148.986372">
  <ele>703.52</ele>
  <time>2026-09-01T20:00:08Z</time>
  <course>346.86</course>
  <speed>0.69</speed>
  <fix>3d</fix>
</trkpt>
<trkpt lat="-35.2750482" lon="148.9863712">
  <ele>703.39</ele>
  <time>2026-09-01T20:00:08Z</time>
  <course>344.18</course>
  <speed>0.9374433316206372</speed>
  <fix>3d</fix>
</trkpt>
<trkpt lat="-35.2750506" lon="148.986372">
  <ele>703.52</ele>
  <time>2026-09-01T20:00:08Z</time>
  <course>346.86</course>
  <speed>0.69</speed>
  <fix>3d</fix>
</trkpt>
<trkpt lat="-35.2750474" lon="148.9863711">
  <ele>703.4</ele>
  <time>2026-09-01T20:00:08Z</time>
  <course>344.22</course>
  <speed>0.996393496566492</speed>
  <fix>3d</fix>
</trkpt>
<trkpt lat="-35.2750493" lon="148.9863717">
  <ele>703.52</ele>
  <time>2026-09-01T20:00:08Z</time>
  <course>350.12</course>
  <speed>0.83</speed>
  <fix>3d</fix>
</trkpt>
<trkpt lat="-35.2750465" lon="148.9863709">
  <ele>703.41</ele>
  <time>2026-09-01T20:00:08Z</time>
  <course>344.25</course>
  <speed>1.0538026380684382</speed>
  <fix>3d</fix>
</trkpt>
<trkpt lat="-35.2750493" lon="148.9863717">
  <ele>703.52</ele>
  <time>2026-09-01T20:00:08Z</time>
  <course>350.12</course>
  <speed>0.83</speed>
  <fix>3d</fix>
</trkpt>
<trkpt lat="-35.2750456" lon="148.9863708">
  <ele>703.42</ele>
  <time>2026-09-01T20:00:08Z</time>
  <course>344.28</course>
  <speed>1.113058848399311</speed>
  <fix>3d</fix>
</trkpt>
<trkpt lat="-35.2750477" lon="148.9863714">
  <ele>703.53</ele>
  <time>2026-09-01T20:00:08Z</time>
  <course>351.98</course>
  <speed>0.96</speed>
  <fix>3d</fix>
</trkpt>
<trkpt lat="-35.2750446" lon="148.9863706">
  <ele>703.43</ele>
  <time>2026-09-01T20:00:08Z</time>
  <course>344.3</course>
  <speed>1.162497311824849</speed>
  <fix>3d</fix>
</trkpt>
<trkpt lat="-35.2750458" lon="148.9863711">
  <ele>703.55</ele>
  <time>2026-09-01T20:00:08Z</time>
  <course>353.0</course>
  <speed>1.08</speed>
  <fix>3d</fix>
</trkpt>
<trkpt lat="-35.2750436" lon="148.9863705">
  <ele>703.43</ele>
  <time>2026-09-01T20:00:08Z</time>
  <course>344.31</course>
  <speed>1.2119818480488889</speed>
  <fix>3d</fix>
</trkpt>
<trkpt lat="-35.2750458" lon="148.9863711">
  <ele>703.55</ele>
  <time>2026-09-01T20:00:08Z</time>
  <course>353.0</course>
  <speed>1.08</speed>
  <fix>3d</fix>
</trkpt>
<trkpt lat="-35.2750426" lon="148.9863703">
  <ele>703.44</ele>
  <time>2026-09-01T20:00:08Z</time>
  <course>344.32</course>
  <speed>1.2529964086141667</speed>
  <fix>3d</fix>
</trkpt>
<trkpt lat="-35.2750438" lon="148.9863708">
  <ele>703.56</ele>
  <time>2026-09-01T20:00:08Z</time>
  <course>353.49</course>
  <speed>1.19</speed>
  <fix>3d</fix>
</trkpt>
<trkpt lat="-35.2750415" lon="148.9863702">
  <ele>703.45</ele>
  <time>2026-09-01T20:00:08Z</time>
  <course>344.32</course>
  <speed>1.292594290564522</speed>
  <fix>3d</fix>
</trkpt>
<trkpt lat="-35.2750438" lon="148.9863708">
  <ele>703.56</ele>
  <time>2026-09-01T20:00:08Z</time>
  <course>353.49</course>
  <speed>1.19</speed>
  <fix>3d</fix>
</trkpt>
<trkpt lat="-35.2750403" lon="148.98637">
  <ele>703.46</ele>
  <time>2026-09-01T20:00:08Z</time>
  <course>344.33</course>
  <speed>1.3223085872821065</speed>
  <fix>3d</fix>
</trkpt>
<trkpt lat="-35.2750438" lon="148.9863708">
  <ele>703.56</ele>
  <time>2026-09-01T20:00:08Z</time>
  <course>353.49</course>
  <speed>1.19</speed>
  <fix>3d</fix>
</trkpt>
<trkpt lat="-35.2750391" lon="148.9863699">
  <ele>703.47</ele>
  <time>2026-09-01T20:00:08Z</time>
  <course>344.33</course>
  <speed>1.3534031180694095</speed>
  <fix>3d</fix>
</trkpt>
<trkpt lat="-35.2750416" lon="148.9863705">
  <ele>703.57</ele>
  <time>2026-09-01T20:00:08Z</time>
  <course>353.62</course>
  <speed>1.28</speed>
  <fix>3d</fix>
</trkpt>
<trkpt lat="-35.275038" lon="148.9863697">
  <ele>703.47</ele>
  <time>2026-09-01T20:00:08Z</time>
  <course>344.34</course>
  <speed>1.3831124321616084</speed>
  <fix>3d</fix>
</trkpt>
<trkpt lat="-35.2750416" lon="148.9863705">
  <ele>703.57</ele>
  <time>2026-09-01T20:00:08Z</time>
  <course>353.62</course>
  <speed>1.28</speed>
  <fix>3d</fix>
</trkpt>
<trkpt lat="-35.2750367" lon="148.9863695">
  <ele>703.47</ele>
  <time>2026-09-01T20:00:08Z</time>
  <course>344.34</course>
  <speed>1.3944174410842687</speed>
  <fix>3d</fix>
</trkpt>
<trkpt lat="-35.2750392" lon="148.9863702">
  <ele>703.58</ele>
  <time>2026-09-01T20:00:08Z</time>
  <course>353.49</course>
  <speed>1.34</speed>
  <fix>3d</fix>
</trkpt>
<trkpt lat="-35.2750355" lon="148.9863693">
  <ele>703.47</ele>
  <time>2026-09-01T20:00:08Z</time>
  <course>344.35</course>
  <speed>1.4142135623730951</speed>
  <fix>3d</fix>
</trkpt>
<trkpt lat="-35.2750392" lon="148.9863702">
  <ele>703.58</ele>
  <time>2026-09-01T20:00:08Z</time>
  <course>353.49</course>
  <speed>1.34</speed>
  <fix>3d</fix>
</trkpt>
<trkpt lat="-35.2750343" lon="148.9863691">
  <ele>703.47</ele>
  <time>2026-09-01T20:00:08Z</time>
  <course>344.35</course>
  <speed>1.4255525244620066</speed>
  <fix>3d</fix>
</trkpt>
<trkpt lat="-35.2750368" lon="148.9863698">
  <ele>703.59</ele>
  <time>2026-09-01T20:00:08Z</time>
  <course>353.2</course>
  <speed>1.39</speed>
  <fix>3d</fix>
</trkpt>
<trkpt lat="-35.275033" lon="148.9863689">
  <ele>703.47</ele>
  <time>2026-09-01T20:00:08Z</time>
  <course>344.35</course>
  <speed>1.427059914649697</speed>
  <fix>3d</fix>
</trkpt>
<trkpt lat="-35.2750368" lon="148.9863698">
  <ele>703.59</ele>
  <time>2026-09-01T20:00:08Z</time>
  <course>353.2</course>
  <speed>1.39</speed>
  <fix>3d</fix>
</trkpt>
<trkpt lat="-35.2750318" lon="148.9863687">
  <ele>703.47</ele>
  <time>2026-09-01T20:00:08Z</time>
  <course>344.35</course>
  <speed>1.41718029904455</speed>
  <fix>3d</fix>
</trkpt>
<trkpt lat="-35.2750343" lon="148.9863695">
  <ele>703.58</ele>
  <time>2026-09-01T20:00:08Z</time>
  <course>352.76</course>
  <speed>1.42</speed>
  <fix>3d</fix>
</trkpt>
<trkpt lat="-35.2750305" lon="148.9863685">
  <ele>703.47</ele>
  <time>2026-09-01T20:00:08Z</time>
  <course>344.35</course>
  <speed>1.4187670703818862</speed>
  <fix>3d</fix>
</trkpt>
<trkpt lat="-35.2750343" lon="148.9863695">
  <ele>703.58</ele>
  <time>2026-09-01T20:00:08Z</time>
  <course>352.76</course>
  <speed>1.42</speed>
  <fix>3d</fix>
</trkpt>
<trkpt lat="-35.2750293" lon="148.9863683">
  <ele>703.47</ele>
  <time>2026-09-01T20:00:08Z</time>
  <course>344.35</course>
  <speed>1.4007141035914503</speed>
  <fix>3d</fix>
</trkpt>
<trkpt lat="-35.2750317" lon="148.9863691">
  <ele>703.58</ele>
  <time>2026-09-01T20:00:08Z</time>
  <course>352.17</course>
  <speed>1.42</speed>
  <fix>3d</fix>
</trkpt>
<trkpt lat="-35.2750281" lon="148.9863681">
  <ele>703.46</ele>
  <time>2026-09-01T20:00:08Z</time>
  <course>344.34</course>
  <speed>1.3810141201305655</speed>
  <fix>3d</fix>
</trkpt>
<trkpt lat="-35.2750317" lon="148.9863691">
  <ele>703.58</ele>
  <time>2026-09-01T20:00:08Z</time>
  <course>352.17</course>
  <speed>1.42</speed>
  <fix>3d</fix>
</trkpt>
<trkpt lat="-35.2750269" lon="148.9863679">
  <ele>703.46</ele>
  <time>2026-09-01T20:00:08Z</time>
  <course>344.33</course>
  <speed>1.3631214179228497</speed>
  <fix>3d</fix>
</trkpt>
<trkpt lat="-35.2750292" lon="148.9863686">
  <ele>703.57</ele>
  <time>2026-09-01T20:00:08Z</time>
  <course>351.44</course>
  <speed>1.41</speed>
  <fix>3d</fix>
</trkpt>
<trkpt lat="-35.2750257" lon="148.9863676">
  <ele>703.45</ele>
  <time>2026-09-01T20:00:08Z</time>
  <course>344.32</course>
  <speed>1.333641631023867</speed>
  <fix>3d</fix>
</trkpt>
<trkpt lat="-35.2750292" lon="148.9863686">
  <ele>703.57</ele>
  <time>2026-09-01T20:00:08Z</time>
  <course>351.44</course>
  <speed>1.41</speed>
  <fix>3d</fix>
</trkpt>
<trkpt lat="-35.2750245" lon="148.9863674">
  <ele>703.45</ele>
  <time>2026-09-01T20:00:08Z</time>
  <course>344.31</course>
  <speed>1.3061393493804556</speed>
  <fix>3d</fix>
</trkpt>
<trkpt lat="-35.2750267" lon="148.9863681">
  <ele>703.56</ele>
  <time>2026-09-01T20:00:08Z</time>
  <course>350.56</course>
  <speed>1.37</speed>
  <fix>3d</fix>
</trkpt>
<trkpt lat="-35.2750234" lon="148.9863671">
  <ele>703.45</ele>
  <time>2026-09-01T20:00:08Z</time>
  <course>344.3</course>
  <speed>1.2669648771769484</speed>
  <fix>3d</fix>
</trkpt>
<trkpt lat="-35.2750267" lon="148.9863681">
  <ele>703.56</ele>
  <time>2026-09-01T20:00:08Z</time>
  <course>350.56</course>
  <speed>1.37</speed>
  <fix>3d</fix>
</trkpt>
<trkpt lat="-35.2750223" lon="148.9863669">
  <ele>703.45</ele>
  <time>2026-09-01T20:00:08Z</time>
  <course>344.29</course>
  <speed>1.23</speed>
  <fix>3d</fix>
</trkpt>
<trkpt lat="-35.2750243" lon="148.9863676">
  <ele>703.55</ele>
  <time>2026-09-01T20:00:08Z</time>
  <course>349.54</course>
  <speed>1.32</speed>
  <fix>3d</fix>
</trkpt>
<trkpt lat="-35.2750212" lon="148.9863666">
  <ele>703.44</ele>
  <time>2026-09-01T20:00:08Z</time>
  <course>344.27</course>
  <speed>1.1812705024675763</speed>
  <fix>3d</fix>
</trkpt>
<trkpt lat="-35.2750243" lon="148.9863676">
  <ele>703.55</ele>
  <time>2026-09-01T20:00:08Z</time>
  <course>349.54</course>
  <speed>1.32</speed>
  <fix>3d</fix>
</trkpt>
<trkpt lat="-35.2750202" lon="148.9863663">
  <ele>703.44</ele>
  <time>2026-09-01T20:00:08Z</time>
  <course>344.25</course>
  <speed>1.135077089893017</speed>
  <fix>3d</fix>
</trkpt>
<trkpt lat="-35.2750221" lon="148.9863671">
  <ele>703.55</ele>
  <time>2026-09-01T20:00:08Z</time>
  <course>348.32</course>
  <speed>1.24</speed>
  <fix>3d</fix>
</trkpt>
<trkpt lat="-35.2750192" lon="148.986366">
  <ele>703.44</ele>
  <time>2026-09-01T20:00:08Z</time>
  <course>344.24</course>
  <speed>1.0866922287382017</speed>
  <fix>3d</fix>
</trkpt>
<trkpt lat="-35.2750221" lon="148.9863671">
  <ele>703.55</ele>
  <time>2026-09-01T20:00:08Z</time>
  <course>348.32</course>
  <speed>1.24</speed>
  <fix>3d</fix>
</trkpt>
<trkpt lat="-35.2750183" lon="148.9863658">
  <ele>703.44</ele>
  <time>2026-09-01T20:00:08Z</time>
  <course>344.23</course>
  <speed>1.0384603988597736</speed>
  <fix>3d</fix>
</trkpt>
<trkpt lat="-35.27502" lon="148.9863664">
  <ele>703.54</ele>
  <time>2026-09-01T20:00:08Z</time>
  <course>346.86</course>
  <speed>1.15</speed>
  <fix>3d</fix>
</trkpt>
<trkpt lat="-35.2750174" lon="148.9863655">
  <ele>703.44</ele>
  <time>2026-09-01T20:00:08Z</time>
  <course>344.22</course>
  <speed>0.9808159868191383</speed>
  <fix>3d</fix>
</trkpt>
<trkpt lat="-35.27502" lon="148.9863664">
  <ele>703.54</ele>
  <time>2026-09-01T20:00:08Z</time>
  <course>346.86</course>
  <speed>1.15</speed>
  <fix>3d</fix>
</trkpt>
<trkpt lat="-35.2750166" lon="148.9863652">
  <ele>703.44</ele>
  <time>2026-09-01T20:00:08Z</time>
  <course>344.21</course>
  <speed>0.9265527507918802</speed>
  <fix>3d</fix>
</trkpt>
<trkpt lat="-35.275018" lon="148.9863659">
  <ele>703.54</ele>
  <time>2026-09-01T20:00:08Z</time>
  <course>345.12</course>
  <speed>1.05</speed>
  <fix>3d</fix>
</trkpt>
<trkpt lat="-35.2750158" lon="148.9863649">
  <ele>703.44</ele>
  <time>2026-09-01T20:00:08Z</time>
  <course>344.2</course>
  <speed>0.8603487664894977</speed>
  <fix>3d</fix>
</trkpt>
<trkpt lat="-35.275018" lon="148.9863659">
  <ele>703.54</ele>
  <time>2026-09-01T20:00:08Z</time>
  <course>345.12</course>
  <speed>1.05</speed>
  <fix>3d</fix>
</trkpt>
<trkpt lat="-35.2750151" lon="148.9863646">
  <ele>703.44</ele>
  <time>2026-09-01T20:00:08Z</time>
  <course>344.2</course>
  <speed>0.8005623023850174</speed>
  <fix>3d</fix>
</trkpt>
<trkpt lat="-35.2750163" lon="148.9863653">
  <ele>703.54</ele>
  <time>2026-09-01T20:00:08Z</time>
  <course>342.99</course>
  <speed>0.94</speed>
  <fix>3d</fix>
</trkpt>
<trkpt lat="-35.2750144" lon="148.9863643">
  <ele>703.44</ele>
  <time>2026-09-01T20:00:08Z</time>
  <course>344.2</course>
  <speed>0.7446475676452586</speed>
  <fix>3d</fix>
</trkpt>
<trkpt lat="-35.2750163" lon="148.9863653">
  <ele>703.54</ele>
  <time>2026-09-01T20:00:08Z</time>
  <course>342.99</course>
  <speed>0.94</speed>
  <fix>3d</fix>
</trkpt>
<trkpt lat="-35.2750138" lon="148.986364">
  <ele>703.45</ele>
  <time>2026-09-01T20:00:08Z</time>
  <course>344.2</course>
  <speed>0.680294054067798</speed>
  <fix>3d</fix>
</trkpt>
<trkpt lat="-35.2750147" lon="148.9863647">
  <ele>703.54</ele>
  <time>2026-09-01T20:00:08Z</time>
  <course>340.25</course>
  <speed>0.82</speed>
  <fix>3d</fix>
</trkpt>
<trkpt lat="-35.2750133" lon="148.9863637">
  <ele>703.45</ele>
  <time>2026-09-01T20:00:08Z</time>
  <course>344.2</course>
  <speed>0.6171709649683789</speed>
  <fix>3d</fix>
</trkpt>
<trkpt lat="-35.2750147" lon="148.9863647">
  <ele>703.54</ele>
  <time>2026-09-01T20:00:08Z</time>
  <course>340.25</course>
  <speed>0.82</speed>
  <fix>3d</fix>
</trkpt>
<trkpt lat="-35.2750128" lon="148.9863634">
  <ele>703.45</ele>
  <time>2026-09-01T20:00:08Z</time>
  <course>344.21</course>
  <speed>0.5556977595779922</speed>
  <fix>3d</fix>
</trkpt>
<trkpt lat="-35.2750135" lon="148.9863641">
  <ele>703.54</ele>
  <time>2026-09-01T20:00:08Z</time>
  <course>336.6</course>
  <speed>0.7</speed>
  <fix>3d</fix>
</trkpt>
<trkpt lat="-35.2750124" lon="148.9863631">
  <ele>703.45</ele>
  <time>2026-09-01T20:00:08Z</time>
  <course>344.21</course>
  <speed>0.4909175083453431</speed>
  <fix>3d</fix>
</trkpt>
<trkpt lat="-35.2750135" lon="148.9863641">
  <ele>703.54</ele>
  <time>2026-09-01T20:00:08Z</time>
  <course>336.6</course>
  <speed>0.7</speed>
  <fix>3d</fix>
</trkpt>
<trkpt lat="-35.275012" lon="148.9863628">
  <ele>703.45</ele>
  <time>2026-09-01T20:00:08Z</time>
  <course>344.22</course>
  <speed>0.4341658669218482</speed>
  <fix>3d</fix>
</trkpt>
<trkpt lat="-35.2750124" lon="148.9863634">
  <ele>703.53</ele>
  <time>2026-09-01T20:00:08Z</time>
  <course>331.49</course>
  <speed>0.57</speed>
  <fix>3d</fix>
</trkpt>
<trkpt lat="-35.2750117" lon="148.9863625">
  <ele>703.44</ele>
  <time>2026-09-01T20:00:08Z</time>
  <course>344.22</course>
  <speed>0.37483329627982626</speed>
  <fix>3d</fix>
</trkpt>
<trkpt lat="-35.2750124" lon="148.9863634">
  <ele>703.53</ele>
  <time>2026-09-01T20:00:08Z</time>
  <course>331.49</course>
  <speed>0.57</speed>
  <fix>3d</fix>
</trkpt>
<trkpt lat="-35.2750114" lon="148.9863623">
  <ele>703.44</ele>
  <time>2026-09-01T20:00:08Z</time>
  <course>344.22</course>
  <speed>0.32649655434629016</speed>
  <fix>3d</fix>
</trkpt>
<trkpt lat="-35.2750116" lon="148.9863629">
  <ele>703.53</ele>
  <time>2026-09-01T20:00:08Z</time>
  <course>323.91</course>
  <speed>0.45</speed>
  <fix>3d</fix>
</trkpt>
<trkpt lat="-35.2750113" lon="148.986362">
  <ele>703.44</ele>
  <time>2026-09-01T20:00:08Z</time>
  <course>344.22</course>
  <speed>0.28653097563788804</speed>
  <fix>3d</fix>
</trkpt>
<trkpt lat="-35.2750116" lon="148.9863629">
  <ele>703.53</ele>
  <time>2026-09-01T20:00:08Z</time>
  <course>323.91</course>
  <speed>0.45</speed>
  <fix>3d</fix>
</trkpt>
<trkpt lat="-35.2750111" lon="148.9863617">
  <ele>703.44</ele>
  <time>2026-09-01T20:00:08Z</time>
  <course>344.22</course>
  <speed>0.25</speed>
  <fix>3d</fix>
</trkpt>
<trkpt lat="-35.2750111" lon="148.9863623">
  <ele>703.53</ele>
  <time>2026-09-01T20:00:08Z</time>
  <course>311.74</course>
  <speed>0.34</speed>
  <fix>3d</fix>
</trkpt>
<trkpt lat="-35.2750111" lon="148.9863615">
  <ele>703.44</ele>
  <time>2026-09-01T20:00:08Z</time>
  <course>344.22</course>
  <speed>0.23021728866442676</speed>
  <fix>3d</fix>
</trkpt>
<trkpt lat="-35.2750111" lon="148.9863623">
  <ele>703.53</ele>
  <time>2026-09-01T20:00:08Z</time>
  <course>311.74</course>
  <speed>0.34</speed>
  <fix>3d</fix>
</trkpt>
<trkpt lat="-35.275011" lon="148.9863612">
  <ele>703.44</ele>
  <time>2026-09-01T20:00:08Z</time>
  <course>344.21</course>
  <speed>0.223606797749979</speed>
  <fix>3d</fix>
</trkpt>
<trkpt lat="-35.2750109" lon="148.9863617">
  <ele>703.52</ele>
  <time>2026-09-01T20:00:08Z</time>
  <course>291.41</course>
  <speed>0.26</speed>
  <fix>3d</fix>
</trkpt>
<trkpt lat="-35.275011" lon="148.986361">
  <ele>703.44</ele>
  <time>2026-09-01T20:00:08Z</time>
  <course>344.2</course>
  <speed>0.23259406699226015</speed>
  <fix>3d</fix>
</trkpt>
<trkpt lat="-35.2750109" lon="148.9863617">
  <ele>703.52</ele>
  <time>2026-09-01T20:00:08Z</time>
  <course>291.41</course>
  <speed>0.26</speed>
  <fix>3d</fix>
</trkpt>
<trkpt lat="-35.2750111" lon="148.9863608">
  <ele>703.44</ele>
  <time>2026-09-01T20:00:08Z</time>
  <course>344.19</course>
  <speed>0.2580697580112788</speed>
  <fix>3d</fix>
</trkpt>
<trkpt lat="-35.2750107" lon="148.9863612">
  <ele>703.52</ele>
  <time>2026-09-01T20:00:08Z</time>
  <course>262.34</course>
  <speed>0.23</speed>
  <fix>3d</fix>
</trkpt>
<trkpt lat="-35.2750112" lon="148.9863605">
  <ele>703.44</ele>
  <time>2026-09-01T20:00:08Z</time>
  <course>344.18</course>
  <speed>0.27586228448267447</speed>
  <fix>3d</fix>
</trkpt>
<trkpt lat="-35.2750107" lon="148.9863612">
  <ele>703.52</ele>
  <time>2026-09-01T20:00:08Z</time>
  <course>262.34</course>
  <speed>0.23</speed>
  <fix>3d</fix>
</trkpt>
<trkpt lat="-35.2750114" lon="148.9863603">
  <ele>703.44</ele>
  <time>2026-09-01T20:00:08Z</time>
  <course>344.17</course>
  <speed>0.30610455730027936</speed>
  <fix>3d</fix>
</trkpt>
<trkpt lat="-35.2750109" lon="148.9863607">
  <ele>703.52</ele>
  <time>2026-09-01T20:00:08Z</time>
  <course>236.53</course>
  <speed>0.25</speed>
  <fix>3d</fix>
</trkpt>
<trkpt lat="-35.2750116" lon="148.9863601">
  <ele>703.44</ele>
  <time>2026-09-01T20:00:08Z</time>
  <course>344.17</course>
  <speed>0.32449961479175904</speed>
  <fix>3d</fix>
</trkpt>
<trkpt lat="-35.2750109" lon="148.9863607">
  <ele>703.52</ele>
  <time>2026-09-01T20:00:08Z</time>
  <course>236.53</course>
  <speed>0.25</speed>
  <fix>3d</fix>
</trkpt>
<trkpt lat="-35.2750118" lon="148.9863599">
  <ele>703.44</ele>
  <time>2026-09-01T20:00:08Z</time>
  <course>344.15</course>
  <speed>0.3535533905932738</speed>
  <fix>3d</fix>
</trkpt>
<trkpt lat="-35.2750112" lon="148.9863603">
  <ele>703.52</ele>
  <time>2026-09-01T20:00:08Z</time>
  <course>220.48</course>
  <speed>0.3</speed>
  <fix>3d</fix>
</trkpt>
<trkpt lat="-35.2750121" lon="148.9863597">
  <ele>703.44</ele>
  <time>2026-09-01T20:00:08Z</time>
  <course>344.13</course>
  <speed>0.3757658845611187</speed>
  <fix>3d</fix>
</trkpt>
<trkpt lat="-35.2750112" lon="148.9863603">
  <ele>703.52</ele>
  <time>2026-09-01T20:00:08Z</time>
  <course>220.48</course>
  <speed>0.3</speed>
  <fix>3d</fix>
</trkpt>
<trkpt lat="-35.2750124" lon="148.9863596">
  <ele>703.44</ele>
  <time>2026-09-01T20:00:08Z</time>
  <course>344.11</course>
  <speed>0.39</speed>
  <fix>3d</fix>
</trkpt>
<trkpt lat="-35.2750116" lon="148.9863598">
  <ele>703.52</ele>
  <time>2026-09-01T20:00:08Z</time>
  <course>210.6</course>
  <speed>0.35</speed>
  <fix>3d</fix>
</trkpt>
<trkpt lat="-35.2750127" lon="148.9863594">
  <ele>703.44</ele>
  <time>2026-09-01T20:00:08Z</time>
  <course>344.09</course>
  <speed>0.4085339643163099</speed>
  <fix>3d</fix>
</trkpt>
<trkpt lat="-35.2750116" lon="148.9863598">
  <ele>703.52</ele>
  <time>2026-09-01T20:00:08Z</time>
  <course>210.6</course>
  <speed>0.35</speed>
  <fix>3d</fix>
</trkpt>
<trkpt lat="-35.2750131" lon="148.9863592">
  <ele>703.44</ele>
  <time>2026-09-01T20:00:08Z</time>
  <course>344.07</course>
  <speed>0.42379240200834184</speed>
  <fix>3d</fix>
</trkpt>
<trkpt lat="-35.2750123" lon="148.9863595">
  <ele>703.52</ele>
  <time>2026-09-01T20:00:08Z</time>
  <course>204.26</course>
  <speed>0.39</speed>
  <fix>3d</fix>
</trkpt>
<trkpt lat="-35.2750134" lon="148.9863591">
  <ele>703.44</ele>
  <time>2026-09-01T20:00:08Z</time>
  <course>344.05</course>
  <speed>0.4301162633521314</speed>
  <fix>3d</fix>
</trkpt>
<trkpt lat="-35.2750123" lon="148.9863595">
  <ele>703.52</ele>
  <time>2026-09-01T20:00:08Z</time>
  <course>204.26</course>
  <speed>0.39</speed>
  <fix>3d</fix>
</trkpt>
<trkpt lat="-35.2750138" lon="148.9863589">
  <ele>703.44</ele>
  <time>2026-09-01T20:00:08Z</time>
  <course>344.02</course>
  <speed>0.4464302857109943</speed>
  <fix>3d</fix>
</trkpt>
<trkpt lat="-35.275013" lon="148.9863591">
  <ele>703.52</ele>
  <time>2026-09-01T20:00:08Z</time>
  <course>199.89</course>
  <speed>0.43</speed>
  <fix>3d</fix>
</trkpt>
<trkpt lat="-35.2750142" lon="148.9863588">
  <ele>703.44</ele>
  <time>2026-09-01T20:00:08Z</time>
  <course>344.01</course>
  <speed>0.4438468204234429</speed>
  <fix>3d</fix>
</trkpt>
<trkpt lat="-35.275013" lon="148.9863591">
  <ele>703.52</ele>
  <time>2026-09-01T20:00:08Z</time>
  <course>199.89</course>
  <speed>0.43</speed>
  <fix>3d</fix>
</trkpt>
<trkpt lat="-35.2750145" lon="148.9863587">
  <ele>703.44</ele>
  <time>2026-09-01T20:00:08Z</time>
  <course>344.0</course>
  <speed>0.45122056690713913</speed>
  <fix>3d</fix>
</trkpt>
<trkpt lat="-35.2750137" lon="148.9863588">
  <ele>703.52</ele>
  <time>2026-09-01T20:00:08Z</time>
  <course>196.58</course>
  <speed>0.45</speed>
  <fix>3d</fix>
</trkpt>
<trkpt lat="-35.2750149" lon="148.9863585">
  <ele>703.44</ele>
  <time>2026-09-01T20:00:08Z</time>
  <course>344.0</course>
  <speed>0.4491102314577124</speed>
  <fix>3d</fix>
</trkpt>
<trkpt lat="-35.2750137" lon="148.9863588">
  <ele>703.52</ele>
  <time>2026-09-01T20:00:08Z</time>
  <course>196.58</course>
  <speed>0.45</speed>
  <fix>3d</fix>
</trkpt>
<trkpt lat="-35.2750153" lon="148.9863584">
  <ele>703.44</ele>
  <time>2026-09-01T20:00:08Z</time>
  <course>344.01</course>
  <speed>0.447213595499958</speed>
  <fix>3d</fix>
</trkpt>
<trkpt lat="-35.2750145" lon="148.9863586">
  <ele>703.51</ele>
  <time>2026-09-01T20:00:08Z</time>
  <course>193.82</course>
  <speed>0.46</speed>
  <fix>3d</fix>
</trkpt>
<trkpt lat="-35.2750157" lon="148.9863584">
  <ele>703.44</ele>
  <time>2026-09-01T20:00:08Z</time>
  <course>344.01</course>
  <speed>0.44553338819890925</speed>
  <fix>3d</fix>
</trkpt>
<trkpt lat="-35.2750145" lon="148.9863586">
  <ele>703.51</ele>
  <time>2026-09-01T20:00:08Z</time>
  <course>193.82</course>
  <speed>0.46</speed>
  <fix>3d</fix>
</trkpt>
<trkpt lat="-35.2750161" lon="148.9863583">
  <ele>703.44</ele>
  <time>2026-09-01T20:00:08Z</time>
  <course>344.02</course>
  <speed>0.4440720662234904</speed>
  <fix>3d</fix>
</trkpt>
<trkpt lat="-35.2750153" lon="148.9863584">
  <ele>703.51</ele>
  <time>2026-09-01T20:00:08Z</time>
  <course>191.32</course>
  <speed>0.46</speed>
  <fix>3d</fix>
</trkpt>
<trkpt lat="-35.2750165" lon="148.9863582">
  <ele>703.44</ele>
  <time>2026-09-01T20:00:08Z</time>
  <course>344.03</course>
  <speed>0.43289721643826723</speed>
  <fix>3d</fix>
</trkpt>
<trkpt lat="-35.2750153" lon="148.9863584">
  <ele>703.51</ele>
  <time>2026-09-01T20:00:08Z</time>
  <course>191.32</course>
  <speed>0.46</speed>
  <fix>3d</fix>
</trkpt>
<trkpt lat="-35.2750169" lon="148.9863581">
  <ele>703.44</ele>
  <time>2026-09-01T20:00:08Z</time>
  <course>344.04</course>
  <speed>0.43185645763378366</speed>
  <fix>3d</fix>
</trkpt>
<trkpt lat="-35.2750161" lon="148.9863581">
  <ele>703.51</ele>
  <time>2026-09-01T20:00:08Z</time>
  <course>188.94</course>
  <speed>0.45</speed>
  <fix>3d</fix>
</trkpt>
<trkpt lat="-35.2750173" lon="148.9863581">
  <ele>703.44</ele>
  <time>2026-09-01T20:00:08Z</time>
  <course>344.04</course>
  <speed>0.42107006542854597</speed>
  <fix>3d</fix>
</trkpt>
<trkpt lat="-35.2750161" lon="148.9863581">
  <ele>703.51</ele>
  <time>2026-09-01T20:00:08Z</time>
  <course>188.94</course>
  <speed>0.45</speed>
  <fix>3d</fix>
</trkpt>
<trkpt lat="-35.2750176" lon="148.9863581">
  <ele>703.44</ele>
  <time>2026-09-01T20:00:08Z</time>
  <course>344.05</course>
  <speed>0.41048751503547587</speed>
  <fix>3d</fix>
</trkpt>
<trkpt lat="-35.275017" lon="148.986358">
  <ele>703.51</ele>
  <time>2026-09-01T20:00:08Z</time>
  <course>186.61</course>
  <speed>0.44</speed>
  <fix>3d</fix>
</trkpt>
<trkpt lat="-35.275018" lon="148.986358">
  <ele>703.44</ele>
  <time>2026-09-01T20:00:08Z</time>
  <course>344.06</course>
  <speed>0.4001249804748511</speed>
  <fix>3d</fix>
</trkpt>
<trkpt lat="-35.275017" lon="148.986358">
  <ele>703.51</ele>
  <time>2026-09-01T20:00:08Z</time>
  <course>186.61</course>
  <speed>0.44</speed>
  <fix>3d</fix>
</trkpt>
<trkpt lat="-35.2750184" lon="148.986358">
  <ele>703.43</ele>
  <time>2026-09-01T20:00:08Z</time>
  <course>344.07</course>
  <speed>0.39</speed>
  <fix>3d</fix>
</trkpt>
<trkpt lat="-35.2750177" lon="148.9863579">
  <ele>703.51</ele>
  <time>2026-09-01T20:00:08Z</time>
  <course>184.32</course>
  <speed>0.42</speed>
  <fix>3d</fix>
</trkpt>
<trkpt lat="-35.2750187" lon="148.986358">
  <ele>703.43</ele>
  <time>2026-09-01T20:00:08Z</time>
  <course>344.08</course>
  <speed>0.38</speed>
  <fix>3d</fix>
</trkpt>
<trkpt lat="-35.2750177" lon="148.9863579">
  <ele>703.51</ele>
  <time>2026-09-01T20:00:08Z</time>
  <course>184.32</course>
  <speed>0.42</speed>
  <fix>3d</fix>
</trkpt>
<trkpt lat="-35.2750191" lon="148.986358">
  <ele>703.43</ele>
  <time>2026-09-01T20:00:08Z</time>
  <course>344.1</course>
  <speed>0.37013511046643494</speed>
  <fix>3d</fix>
</trkpt>
<trkpt lat="-35.2750184" lon="148.9863579">
  <ele>703.51</ele>
  <time>2026-09-01T20:00:08Z</time>
  <course>181.93</course>
  <speed>0.4</speed>
  <fix>3d</fix>
</trkpt>
<trkpt lat="-35.2750194" lon="148.986358">
  <ele>703.43</ele>
  <time>2026-09-01T20:00:08Z</time>
  <course>344.13</course>
  <speed>0.36013886210738216</speed>
  <fix>3d</fix>
</trkpt>
<trkpt lat="-35.2750184" lon="148.9863579">
  <ele>703.51</ele>
  <time>2026-09-01T20:00:08Z</time>
  <course>181.93</course>
  <speed>0.4</speed>
  <fix>3d</fix>
</trkpt>
<trkpt lat="-35.2750197" lon="148.986358">
  <ele>703.43</ele>
  <time>2026-09-01T20:00:08Z</time>
  <course>344.15</course>
  <speed>0.34058772731852804</speed>
  <fix>3d</fix>
</trkpt>
<trkpt lat="-35.2750191" lon="148.9863579">
  <ele>703.5</ele>
  <time>2026-09-01T20:00:08Z</time>
  <course>179.29</course>
  <speed>0.38</speed>
  <fix>3d</fix>
</trkpt>
<trkpt lat="-35.27502" lon="148.9863581">
  <ele>703.43</ele>
  <time>2026-09-01T20:00:08Z</time>
  <course>344.17</course>
  <speed>0.3313608305156178</speed>
  <fix>3d</fix>
</trkpt>
<trkpt lat="-35.2750191" lon="148.9863579">
  <ele>703.5</ele>
  <time>2026-09-01T20:00:08Z</time>
  <course>179.29</course>
  <speed>0.38</speed>
  <fix>3d</fix>
</trkpt>
<trkpt lat="-35.2750203" lon="148.986358">
  <ele>703.43</ele>
  <time>2026-09-01T20:00:08Z</time>
  <course>344.18</course>
  <speed>0.32249030993194194</speed>
  <fix>3d</fix>
</trkpt>
<trkpt lat="-35.2750198" lon="148.9863579">
  <ele>703.5</ele>
  <time>2026-09-01T20:00:08Z</time>
  <course>176.37</course>
  <speed>0.35</speed>
  <fix>3d</fix>
</trkpt>
<trkpt lat="-35.2750206" lon="148.986358">
  <ele>703.43</ele>
  <time>2026-09-01T20:00:08Z</time>
  <course>344.2</course>
  <speed>0.304138126514911</speed>
  <fix>3d</fix>
</trkpt>
<trkpt lat="-35.2750198" lon="148.9863579">
  <ele>703.5</ele>
  <time>2026-09-01T20:00:08Z</time>
  <course>176.37</course>
  <speed>0.35</speed>
  <fix>3d</fix>
</trkpt>
<trkpt lat="-35.2750209" lon="148.9863581">
  <ele>703.43</ele>
  <time>2026-09-01T20:00:08Z</time>
  <course>344.23</course>
  <speed>0.29614185789921693</speed>
  <fix>3d</fix>
</trkpt>
<trkpt lat="-35.2750204" lon="148.986358">
  <ele>703.5</ele>
  <time>2026-09-01T20:00:08Z</time>
  <course>173.15</course>
  <speed>0.33</speed>
  <fix>3d</fix>
</trkpt>
<trkpt lat="-35.2750211" lon="148.9863582">
  <ele>703.43</ele>
  <time>2026-09-01T20:00:08Z</time>
  <course>344.25</course>
  <speed>0.2863564212655271</speed>
  <fix>3d</fix>
</trkpt>
<trkpt lat="-35.2750204" lon="148.986358">
  <ele>703.5</ele>
  <time>2026-09-01T20:00:08Z</time>
  <course>173.15</course>
  <speed>0.33</speed>
  <fix>3d</fix>
</trkpt>
<trkpt lat="-35.2750214" lon="148.9863582">
  <ele>703.43</ele>
  <time>2026-09-01T20:00:08Z</time>
  <course>344.26</course>
  <speed>0.2692582403567252</speed>
  <fix>3d</fix>
</trkpt>
<trkpt lat="-35.275021" lon="148.986358">
  <ele>703.5</ele>
  <time>2026-09-01T20:00:08Z</time>
  <course>169.73</course>
  <speed>0.3</speed>
  <fix>3d</fix>
</trkpt>
<trkpt lat="-35.2750216" lon="148.9863583">
  <ele>703.43</ele>
  <time>2026-09-01T20:00:08Z</time>
  <course>344.27</course>
  <speed>0.2596150997149434</speed>
  <fix>3d</fix>
</trkpt>
<trkpt lat="-35.275021" lon="148.986358">
  <ele>703.5</ele>
  <time>2026-09-01T20:00:08Z</time>
  <course>169.73</course>
  <speed>0.3</speed>
  <fix>3d</fix>
</trkpt>
<trkpt lat="-35.2750218" lon="148.9863584">
  <ele>703.43</ele>
  <time>2026-09-01T20:00:08Z</time>
  <course>344.3</course>
  <speed>0.2529822128134704</speed>
  <fix>3d</fix>
</trkpt>
<trkpt lat="-35.2750215" lon="148.9863581">
  <ele>703.51</ele>
  <time>2026-09-01T20:00:08Z</time>
  <course>166.14</course>
  <speed>0.28</speed>
  <fix>3d</fix>
</trkpt>
<trkpt lat="-35.2750221" lon="148.9863585">
  <ele>703.43</ele>
  <time>2026-09-01T20:00:08Z</time>
  <course>344.36</course>
  <speed>0.2340939982143925</speed>
  <fix>3d</fix>
</trkpt>
<trkpt lat="-35.2750215" lon="148.9863581">
  <ele>703.51</ele>
  <time>2026-09-01T20:00:08Z</time>
  <course>166.14</course>
  <speed>0.28</speed>
  <fix>3d</fix>
</trkpt>
<trkpt lat="-35.2750223" lon="148.9863585">
  <ele>703.44</ele>
  <time>2026-09-01T20:00:08Z</time>
  <course>344.42</course>
  <speed>0.22472205054244232</speed>
  <fix>3d</fix>
</trkpt>
<trkpt lat="-35.2750219" lon="148.9863583">
  <ele>703.51</ele>
  <time>2026-09-01T20:00:08Z</time>
  <course>162.8</course>
  <speed>0.25</speed>
  <fix>3d</fix>
</trkpt>
<trkpt lat="-35.2750224" lon="148.9863586">
  <ele>703.44</ele>
  <time>2026-09-01T20:00:08Z</time>
  <course>344.47</course>
  <speed>0.20615528128088303</speed>
  <fix>3d</fix>
</trkpt>
<trkpt lat="-35.2750219" lon="148.9863583">
  <ele>703.51</ele>
  <time>2026-09-01T20:00:08Z</time>
  <course>162.8</course>
  <speed>0.25</speed>
  <fix>3d</fix>
</trkpt>
<trkpt lat="-35.2750226" lon="148.9863587">
  <ele>703.44</ele>
  <time>2026-09-01T20:00:08Z</time>
  <course>344.51</course>
  <speed>0.19697715603592209</speed>
  <fix>3d</fix>
</trkpt>
<trkpt lat="-35.2750224" lon="148.9863585">
  <ele>703.51</ele>
  <time>2026-09-01T20:00:08Z</time>
  <course>159.57</course>
  <speed>0.23</speed>
  <fix>3d</fix>
</trkpt>
<trkpt lat="-35.2750228" lon="148.9863588">
  <ele>703.45</ele>
  <time>2026-09-01T20:00:08Z</time>
  <course>344.54</course>
  <speed>0.1835755975068582</speed>
  <fix>3d</fix>
</trkpt>
<trkpt lat="-35.2750224" lon="148.9863585">
  <ele>703.51</ele>
  <time>2026-09-01T20:00:08Z</time>
  <course>159.57</course>
  <speed>0.23</speed>
  <fix>3d</fix>
</trkpt>
<trkpt lat="-35.2750229" lon="148.9863589">
  <ele>703.45</ele>
  <time>2026-09-01T20:00:08Z</time>
  <course>344.54</course>
  <speed>0.17492855684535902</speed>
  <fix>3d</fix>
</trkpt>
<trkpt lat="-35.2750228" lon="148.9863586">
  <ele>703.51</ele>
  <time>2026-09-01T20:00:08Z</time>
  <course>155.68</course>
  <speed>0.2</speed>
  <fix>3d</fix>
</trkpt>
<trkpt lat="-35.2750231" lon="148.986359">
  <ele>703.45</ele>
  <time>2026-09-01T20:00:08Z</time>
  <course>344.53</course>
  <speed>0.15811388300841897</speed>
  <fix>3d</fix>
</trkpt>
<trkpt lat="-35.2750228" lon="148.9863586">
  <ele>703.51</ele>
  <time>2026-09-01T20:00:08Z</time>
  <course>155.68</course>
  <speed>0.2</speed>
  <fix>3d</fix>
</trkpt>
<trkpt lat="-35.2750232" lon="148.9863591">
  <ele>703.45</ele>
  <time>2026-09-01T20:00:08Z</time>
  <course>344.51</course>
  <speed>0.14212670403551894</speed>
  <fix>3d</fix>
</trkpt>
<trkpt lat="-35.2750231" lon="148.9863589">
  <ele>703.51</ele>
  <time>2026-09-01T20:00:08Z</time>
  <course>150.71</course>
  <speed>0.17</speed>
  <fix>3d</fix>
</trkpt>
<trkpt lat="-35.2750233" lon="148.9863592">
  <ele>703.45</ele>
  <time>2026-09-01T20:00:08Z</time>
  <course>344.48</course>
  <speed>0.1345362404707371</speed>
  <fix>3d</fix>
</trkpt>
<trkpt lat="-35.2750231" lon="148.9863589">
  <ele>703.51</ele>
  <time>2026-09-01T20:00:08Z</time>
  <course>150.71</course>
  <speed>0.17</speed>
  <fix>3d</fix>
</trkpt>
<trkpt lat="-35.2750234" lon="148.9863592">
  <ele>703.45</ele>
  <time>2026-09-01T20:00:08Z</time>
  <course>344.45</course>
  <speed>0.12041594578792296</speed>
  <fix>3d</fix>
</trkpt>
<trkpt lat="-35.2750233" lon="148.986359">
  <ele>703.51</ele>
  <time>2026-09-01T20:00:08Z</time>
  <course>144.18</course>
  <speed>0.14</speed>
  <fix>3d</fix>
</trkpt>
<trkpt lat="-35.2750235" lon="148.9863593">
  <ele>703.45</ele>
  <time>2026-09-01T20:00:08Z</time>
  <course>344.42</course>
  <speed>0.1</speed>
  <fix>3d</fix>
</trkpt>
<trkpt lat="-35.2750233" lon="148.986359">
  <ele>703.51</ele>
  <time>2026-09-01T20:00:08Z</time>
  <course>144.18</course>
  <speed>0.14</speed>
  <fix>3d</fix>
</trkpt>
<trkpt lat="-35.2750235" lon="148.9863594">
  <ele>703.44</ele>
  <time>2026-09-01T20:00:08Z</time>
  <course>344.4</course>
  <speed>0.09433981132056603</speed>
  <fix>3d</fix>
</trkpt>
<trkpt lat="-35.2750235" lon="148.9863591">
  <ele>703.51</ele>
  <time>2026-09-01T20:00:08Z</time>
  <course>135.18</course>
  <speed>0.12</speed>
  <fix>3d</fix>
</trkpt>
<trkpt lat="-35.2750236" lon="148.9863595">
  <ele>703.44</ele>
  <time>2026-09-01T20:00:08Z</time>
  <course>344.39</course>
  <speed>0.0854400374531753</speed>
  <fix>3d</fix>
</trkpt>
<trkpt lat="-35.2750235" lon="148.9863591">
  <ele>703.51</ele>
  <time>2026-09-01T20:00:08Z</time>
  <course>135.18</course>
  <speed>0.12</speed>
  <fix>3d</fix>
</trkpt>
<trkpt lat="-35.2750236" lon="148.9863596">
  <ele>703.44</ele>
  <time>2026-09-01T20:00:08Z</time>
  <course>344.38</course>
  <speed>0.0824621125123532</speed>
  <fix>3d</fix>
</trkpt>
<trkpt lat="-35.2750236" lon="148.9863594">
  <ele>703.5</ele>
  <time>2026-09-01T20:00:08Z</time>
  <course>122.21</course>
  <speed>0.09</speed>
  <fix>3d</fix>
</trkpt>
<trkpt lat="-35.2750236" lon="148.9863597">
  <ele>703.43</ele>
  <time>2026-09-01T20:00:09Z</time>
  <course>344.37</course>
  <speed>0.08</speed>
  <fix>3d</fix>
</trkpt>
<trkpt lat="-35.2750236" lon="148.9863594">
  <ele>703.5</ele>
  <time>2026-09-01T20:00:09Z</time>
  <course>122.21</course>
  <speed>0.09</speed>
  <fix>3d</fix>
</trkpt>
<trkpt lat="-35.2750236" lon="148.9863597">
  <ele>703.43</ele>
  <time>2026-09-01T20:00:09Z</time>
  <course>344.38</course>
  <speed>0.07</speed>
  <fix>3d</fix>
</trkpt>
<trkpt lat="-35.2750237" lon="148.9863595">
  <ele>703.5</ele>
  <time>2026-09-01T20:00:09Z</time>
  <course>104.16</course>
  <speed>0.08</speed>
  <fix>3d</fix>
</trkpt>
<trkpt lat="-35.2750236" lon="148.9863598">
  <ele>703.43</ele>
  <time>2026-09-01T20:00:09Z</time>
  <course>344.39</course>
  <speed>0.07280109889280519</speed>
  <fix>3d</fix>
</trkpt>
<trkpt lat="-35.2750237" lon="148.9863595">
  <ele>703.5</ele>
  <time>2026-09-01T20:00:09Z</time>
  <course>104.16</course>
  <speed>0.08</speed>
  <fix>3d</fix>
</trkpt>
<trkpt lat="-35.2750236" lon="148.9863599">
  <ele>703.43</ele>
  <time>2026-09-01T20:00:09Z</time>
  <course>344.39</course>
  <speed>0.07615773105863909</speed>
  <fix>3d</fix>
</trkpt>
<trkpt lat="-35.2750237" lon="148.9863598">
  <ele>703.5</ele>
  <time>2026-09-01T20:00:09Z</time>
  <course>81.76</course>
  <speed>0.07</speed>
  <fix>3d</fix>
</trkpt>
<trkpt lat="-35.2750236" lon="148.98636">
  <ele>703.43</ele>
  <time>2026-09-01T20:00:09Z</time>
  <course>344.4</course>
  <speed>0.07810249675906654</speed>
  <fix>3d</fix>
</trkpt>
<trkpt lat="-35.2750237" lon="148.9863598">
  <ele>703.5</ele>
  <time>2026-09-01T20:00:09Z</time>
  <course>81.76</course>
  <speed>0.07</speed>
  <fix>3d</fix>
</trkpt>
<trkpt lat="-35.2750236" lon="148.98636">
  <ele>703.43</ele>
  <time>2026-09-01T20:00:09Z</time>
  <course>344.4</course>
  <speed>0.0848528137423857</speed>
  <fix>3d</fix>
</trkpt>
<trkpt lat="-35.2750237" lon="148.9863599">
  <ele>703.5</ele>
  <time>2026-09-01T20:00:09Z</time>
  <course>59.67</course>
  <speed>0.07</speed>
  <fix>3d</fix>
</trkpt>
<trkpt lat="-35.2750235" lon="148.9863601">
  <ele>703.43</ele>
  <time>2026-09-01T20:00:09Z</time>
  <course>344.4</course>
  <speed>0.09219544457292887</speed>
  <fix>3d</fix>
</trkpt>
<trkpt lat="-35.2750237" lon="148.9863599">
  <ele>703.5</ele>
  <time>2026-09-01T20:00:09Z</time>
  <course>59.67</course>
  <speed>0.07</speed>
  <fix>3d</fix>
</trkpt>
<trkpt lat="-35.2750235" lon="148.9863602">
  <ele>703.43</ele>
  <time>2026-09-01T20:00:09Z</time>
  <course>344.41</course>
  <speed>0.09433981132056603</speed>
  <fix>3d</fix>
</trkpt>
<trkpt lat="-35.2750236" lon="148.98636">
  <ele>703.5</ele>
  <time>2026-09-01T20:00:09Z</time>
  <course>42.08</course>
  <speed>0.09</speed>
  <fix>3d</fix>
</trkpt>
<trkpt lat="-35.2750234" lon="148.9863602">
  <ele>703.42</ele>
  <time>2026-09-01T20:00:09Z</time>
  <course>344.41</course>
  <speed>0.1118033988749895</speed>
  <fix>3d</fix>
</trkpt>
<trkpt lat="-35.2750236" lon="148.98636">
  <ele>703.5</ele>
  <time>2026-09-01T20:00:09Z</time>
  <course>42.08</course>
  <speed>0.09</speed>
  <fix>3d</fix>
</trkpt>
<trkpt lat="-35.2750233" lon="148.9863603">
  <ele>703.42</ele>
  <time>2026-09-01T20:00:09Z</time>
  <course>344.41</course>
  <speed>0.11704699910719625</speed>
  <fix>3d</fix>
</trkpt>
<trkpt lat="-35.2750235" lon="148.9863601">
  <ele>703.5</ele>
  <time>2026-09-01T20:00:09Z</time>
  <course>29.46</course>
  <speed>0.1</speed>
  <fix>3d</fix>
</trkpt>
<trkpt lat="-35.2750232" lon="148.9863603">
  <ele>703.42</ele>
  <time>2026-09-01T20:00:09Z</time>
  <course>344.41</course>
  <speed>0.1264911064067352</speed>
  <fix>3d</fix>
</trkpt>
<trkpt lat="-35.2750235" lon="148.9863601">
  <ele>703.5</ele>
  <time>2026-09-01T20:00:09Z</time>
  <course>29.46</course>
  <speed>0.1</speed>
  <fix>3d</fix>
</trkpt>
<trkpt lat="-35.2750231" lon="148.9863603">
  <ele>703.42</ele>
  <time>2026-09-01T20:00:09Z</time>
  <course>344.41</course>
  <speed>0.13601470508735444</speed>
  <fix>3d</fix>
</trkpt>
<trkpt lat="-35.2750233" lon="148.9863603">
  <ele>703.5</ele>
  <time>2026-09-01T20:00:09Z</time>
  <course>20.53</course>
  <speed>0.12</speed>
  <fix>3d</fix>
</trkpt>
<trkpt lat="-35.275023" lon="148.9863604">
  <ele>703.42</ele>
  <time>2026-09-01T20:00:09Z</time>
  <course>344.41</course>
  <speed>0.13341664064126335</speed>
  <fix>3d</fix>
</trkpt>
<trkpt lat="-35.2750233" lon="148.9863603">
  <ele>703.5</ele>
  <time>2026-09-01T20:00:09Z</time>
  <course>20.53</course>
  <speed>0.12</speed>
  <fix>3d</fix>
</trkpt>
<trkpt lat="-35.2750228" lon="148.9863604">
  <ele>703.42</ele>
  <time>2026-09-01T20:00:09Z</time>
  <course>344.41</course>
  <speed>0.1414213562373095</speed>
  <fix>3d</fix>
</trkpt>
<trkpt lat="-35.2750231" lon="148.9863604">
  <ele>703.5</ele>
  <time>2026-09-01T20:00:09Z</time>
  <course>13.83</course>
  <speed>0.14</speed>
  <fix>3d</fix>
</trkpt>
<trkpt lat="-35.2750227" lon="148.9863604">
  <ele>703.42</ele>
  <time>2026-09-01T20:00:09Z</time>
  <course>344.41</course>
  <speed>0.15132745950421556</speed>
  <fix>3d</fix>
</trkpt>
<trkpt lat="-35.2750231" lon="148.9863604">
  <ele>703.5</ele>
  <time>2026-09-01T20:00:09Z</time>
  <course>13.83</course>
  <speed>0.14</speed>
  <fix>3d</fix>
</trkpt>
<trkpt lat="-35.2750226" lon="148.9863605">
  <ele>703.42</ele>
  <time>2026-09-01T20:00:09Z</time>
  <course>344.4</course>
  <speed>0.15033296378372907</speed>
  <fix>3d</fix>
</trkpt>
<trkpt lat="-35.2750228" lon="148.9863604">
  <ele>703.5</ele>
  <time>2026-09-01T20:00:09Z</time>
  <course>8.49</course>
  <speed>0.15</speed>
  <fix>3d</fix>
</trkpt>
<trkpt lat="-35.2750224" lon="148.9863605">
  <ele>703.43</ele>
  <time>2026-09-01T20:00:09Z</time>
  <course>344.4</course>
  <speed>0.16031219541881397</speed>
  <fix>3d</fix>
</trkpt>
<trkpt lat="-35.2750228" lon="148.9863604">
  <ele>703.5</ele>
  <time>2026-09-01T20:00:09Z</time>
  <course>8.49</course>
  <speed>0.15</speed>
  <fix>3d</fix>
</trkpt>
<trkpt lat="-35.2750223" lon="148.9863605">
  <ele>703.43</ele>
  <time>2026-09-01T20:00:09Z</time>
  <course>344.4</course>
  <speed>0.16</speed>
  <fix>3d</fix>
</trkpt>
<trkpt lat="-35.2750225" lon="148.9863605">
  <ele>703.51</ele>
  <time>2026-09-01T20:00:09Z</time>
  <course>4.16</course>
  <speed>0.16</speed>
  <fix>3d</fix>
</trkpt>
<trkpt lat="-35.2750221" lon="148.9863605">
  <ele>703.43</ele>
  <time>2026-09-01T20:00:09Z</time>
  <course>344.41</course>
  <speed>0.16</speed>
  <fix>3d</fix>
</trkpt>
<trkpt lat="-35.2750225" lon="148.9863605">
  <ele>703.51</ele>
  <time>2026-09-01T20:00:09Z</time>
  <course>4.16</course>
  <speed>0.16</speed>
  <fix>3d</fix>
</trkpt>
<trkpt lat="-35.275022" lon="148.9863605">
  <ele>703.43</ele>
  <time>2026-09-01T20:00:09Z</time>
  <course>344.41</course>
  <speed>0.17</speed>
  <fix>3d</fix>
</trkpt>
<trkpt lat="-35.2750222" lon="148.9863605">
  <ele>703.51</ele>
  <time>2026-09-01T20:00:09Z</time>
  <course>0.47</course>
  <speed>0.17</speed>
  <fix>3d</fix>
</trkpt>
<trkpt lat="-35.2750218" lon="148.9863605">
  <ele>703.43</ele>
  <time>2026-09-01T20:00:09Z</time>
  <course>344.41</course>
  <speed>0.17</speed>
  <fix>3d</fix>
</trkpt>
<trkpt lat="-35.2750222" lon="148.9863605">
  <ele>703.51</ele>
  <time>2026-09-01T20:00:09Z</time>
  <course>0.47</course>
  <speed>0.17</speed>
  <fix>3d</fix>
</trkpt>
<trkpt lat="-35.2750217" lon="148.9863605">
  <ele>703.43</ele>
  <time>2026-09-01T20:00:09Z</time>
  <course>344.41</course>
  <speed>0.17029386365926402</speed>
  <fix>3d</fix>
</trkpt>
<trkpt lat="-35.2750219" lon="148.9863605">
  <ele>703.51</ele>
  <time>2026-09-01T20:00:09Z</time>
  <course>357.07</course>
  <speed>0.18</speed>
  <fix>3d</fix>
</trkpt>
<trkpt lat="-35.2750215" lon="148.9863605">
  <ele>703.43</ele>
  <time>2026-09-01T20:00:09Z</time>
  <course>344.41</course>
  <speed>0.17029386365926402</speed>
  <fix>3d</fix>
</trkpt>
<trkpt lat="-35.2750219" lon="148.9863605">
  <ele>703.51</ele>
  <time>2026-09-01T20:00:09Z</time>
  <course>357.07</course>
  <speed>0.18</speed>
  <fix>3d</fix>
</trkpt>
<trkpt lat="-35.2750214" lon="148.9863605">
  <ele>703.43</ele>
  <time>2026-09-01T20:00:09Z</time>
  <course>344.41</course>
  <speed>0.16031219541881397</speed>
  <fix>3d</fix>
</trkpt>
<trkpt lat="-35.2750216" lon="148.9863605">
  <ele>703.52</ele>
  <time>2026-09-01T20:00:09Z</time>
  <course>353.82</course>
  <speed>0.18</speed>
  <fix>3d</fix>
</trkpt>
<trkpt lat="-35.2750212" lon="148.9863605">
  <ele>703.43</ele>
  <time>2026-09-01T20:00:09Z</time>
  <course>344.41</course>
  <speed>0.16124515496597097</speed>
  <fix>3d</fix>
</trkpt>
<trkpt lat="-35.2750216" lon="148.9863605">
  <ele>703.52</ele>
  <time>2026-09-01T20:00:09Z</time>
  <course>353.82</course>
  <speed>0.18</speed>
  <fix>3d</fix>
</trkpt>
<trkpt lat="-35.275021" lon="148.9863605">
  <ele>703.43</ele>
  <time>2026-09-01T20:00:09Z</time>
  <course>344.42</course>
  <speed>0.16124515496597097</speed>
  <fix>3d</fix>
</trkpt>
<trkpt lat="-35.2750212" lon="148.9863605">
  <ele>703.52</ele>
  <time>2026-09-01T20:00:09Z</time>
  <course>350.72</course>
  <speed>0.18</speed>
  <fix>3d</fix>
</trkpt>
<trkpt lat="-35.2750209" lon="148.9863604">
  <ele>703.43</ele>
  <time>2026-09-01T20:00:09Z</time>
  <course>344.42</course>
  <speed>0.15297058540778355</speed>
  <fix>3d</fix>
</trkpt>
<trkpt lat="-35.2750212" lon="148.9863605">
  <ele>703.52</ele>
  <time>2026-09-01T20:00:09Z</time>
  <course>350.72</course>
  <speed>0.18</speed>
  <fix>3d</fix>
</trkpt>
<trkpt lat="-35.2750207" lon="148.9863604">
  <ele>703.43</ele>
  <time>2026-09-01T20:00:09Z</time>
  <course>344.42</course>
  <speed>0.15297058540778355</speed>
  <fix>3d</fix>
</trkpt>
<trkpt lat="-35.2750209" lon="148.9863604">
  <ele>703.52</ele>
  <time>2026-09-01T20:00:09Z</time>
  <course>347.71</course>
  <speed>0.18</speed>
  <fix>3d</fix>
</trkpt>
<trkpt lat="-35.2750206" lon="148.9863603">
  <ele>703.43</ele>
  <time>2026-09-01T20:00:09Z</time>
  <course>344.42</course>
  <speed>0.14317821063276354</speed>
  <fix>3d</fix>
</trkpt>
<trkpt lat="-35.2750209" lon="148.9863604">
  <ele>703.52</ele>
  <time>2026-09-01T20:00:09Z</time>
  <course>347.71</course>
  <speed>0.18</speed>
  <fix>3d</fix>
</trkpt>
<trkpt lat="-35.2750205" lon="148.9863603">
  <ele>703.43</ele>
  <time>2026-09-01T20:00:09Z</time>
  <course>344.42</course>
  <speed>0.14560219778561037</speed>
  <fix>3d</fix>
</trkpt>
<trkpt lat="-35.2750206" lon="148.9863603">
  <ele>703.52</ele>
  <time>2026-09-01T20:00:09Z</time>
  <course>344.61</course>
  <speed>0.17</speed>
  <fix>3d</fix>
</trkpt>
<trkpt lat="-35.2750203" lon="148.9863602">
  <ele>703.43</ele>
  <time>2026-09-01T20:00:09Z</time>
  <course>344.41</course>
  <speed>0.13601470508735444</speed>
  <fix>3d</fix>
</trkpt>
<trkpt lat="-35.2750206" lon="148.9863603">
  <ele>703.52</ele>
  <time>2026-09-01T20:00:09Z</time>
  <course>344.61</course>
  <speed>0.17</speed>
  <fix>3d</fix>
</trkpt>
<trkpt lat="-35.2750202" lon="148.9863602">
  <ele>703.43</ele>
  <time>2026-09-01T20:00:09Z</time>
  <course>344.41</course>
  <speed>0.1264911064067352</speed>
  <fix>3d</fix>
</trkpt>
<trkpt lat="-35.2750203" lon="148.9863602">
  <ele>703.52</ele>
  <time>2026-09-01T20:00:09Z</time>
  <course>341.34</course>
  <speed>0.16</speed>
  <fix>3d</fix>
</trkpt>
<trkpt lat="-35.2750201" lon="148.9863601">
  <ele>703.43</ele>
  <time>2026-09-01T20:00:09Z</time>
  <course>344.41</course>
  <speed>0.1264911064067352</speed>
  <fix>3d</fix>
</trkpt>
<trkpt lat="-35.2750203" lon="148.9863602">
  <ele>703.52</ele>
  <time>2026-09-01T20:00:09Z</time>
  <course>341.34</course>
  <speed>0.16</speed>
  <fix>3d</fix>
</trkpt>
<trkpt lat="-35.27502" lon="148.9863601">
  <ele>703.43</ele>
  <time>2026-09-01T20:00:09Z</time>
  <course>344.41</course>
  <speed>0.11704699910719625</speed>
  <fix>3d</fix>
</trkpt>
<trkpt lat="-35.27502" lon="148.9863601">
  <ele>703.53</ele>
  <time>2026-09-01T20:00:09Z</time>
  <course>337.87</course>
  <speed>0.15</speed>
  <fix>3d</fix>
</trkpt>
<trkpt lat="-35.2750198" lon="148.98636">
  <ele>703.43</ele>
  <time>2026-09-01T20:00:09Z</time>
  <course>344.41</course>
  <speed>0.10770329614269007</speed>
  <fix>3d</fix>
</trkpt>
<trkpt lat="-35.27502" lon="148.9863601">
  <ele>703.53</ele>
  <time>2026-09-01T20:00:09Z</time>
  <course>337.87</course>
  <speed>0.15</speed>
  <fix>3d</fix>
</trkpt>
<trkpt lat="-35.2750197" lon="148.98636">
  <ele>703.43</ele>
  <time>2026-09-01T20:00:09Z</time>
  <course>344.42</course>
  <speed>0.09848857801796104</speed>
  <fix>3d</fix>
</trkpt>
<trkpt lat="-35.2750197" lon="148.98636">
  <ele>703.53</ele>
  <time>2026-09-01T20:00:09Z</time>
  <course>334.13</course>
  <speed>0.14</speed>
  <fix>3d</fix>
</trkpt>
<trkpt lat="-35.2750196" lon="148.9863599">
  <ele>703.43</ele>
  <time>2026-09-01T20:00:09Z</time>
  <course>344.42</course>
  <speed>0.08944271909999159</speed>
  <fix>3d</fix>
</trkpt>
<trkpt lat="-35.2750197" lon="148.98636">
  <ele>703.53</ele>
  <time>2026-09-01T20:00:09Z</time>
  <course>334.13</course>
  <speed>0.14</speed>
  <fix>3d</fix>
</trkpt>
<trkpt lat="-35.2750196" lon="148.9863598">
  <ele>703.43</ele>
  <time>2026-09-01T20:00:09Z</time>
  <course>344.43</course>
  <speed>0.08062257748298549</speed>
  <fix>3d</fix>
</trkpt>
<trkpt lat="-35.2750196" lon="148.9863598">
  <ele>703.53</ele>
  <time>2026-09-01T20:00:09Z</time>
  <course>329.82</course>
  <speed>0.13</speed>
  <fix>3d</fix>
</trkpt>
<trkpt lat="-35.2750195" lon="148.9863598">
  <ele>703.43</ele>
  <time>2026-09-01T20:00:09Z</time>
  <course>344.43</course>
  <speed>0.08062257748298549</speed>
  <fix>3d</fix>
</trkpt>
<trkpt lat="-35.2750196" lon="148.9863598">
  <ele>703.53</ele>
  <time>2026-09-01T20:00:09Z</time>
  <course>329.82</course>
  <speed>0.13</speed>
  <fix>3d</fix>
</trkpt>
<trkpt lat="-35.2750194" lon="148.9863597">
  <ele>703.43</ele>
  <time>2026-09-01T20:00:09Z</time>
  <course>344.43</course>
  <speed>0.07211102550927978</speed>
  <fix>3d</fix>
</trkpt>
<trkpt lat="-35.2750194" lon="148.9863596">
  <ele>703.53</ele>
  <time>2026-09-01T20:00:09Z</time>
  <course>324.6</course>
  <speed>0.11</speed>
  <fix>3d</fix>
</trkpt>
<trkpt lat="-35.2750193" lon="148.9863596">
  <ele>703.43</ele>
  <time>2026-09-01T20:00:09Z</time>
  <course>344.42</course>
  <speed>0.06403124237432849</speed>
  <fix>3d</fix>
</trkpt>
<trkpt lat="-35.2750194" lon="148.9863596">
  <ele>703.53</ele>
  <time>2026-09-01T20:00:09Z</time>
  <course>324.6</course>
  <speed>0.11</speed>
  <fix>3d</fix>
</trkpt>
<trkpt lat="-35.2750193" lon="148.9863596">
  <ele>703.43</ele>
  <time>2026-09-01T20:00:09Z</time>
  <course>344.42</course>
  <speed>0.0565685424949238</speed>
  <fix>3d</fix>
</trkpt>
<trkpt lat="-35.2750192" lon="148.9863595">
  <ele>703.53</ele>
  <time>2026-09-01T20:00:09Z</time>
  <course>318.29</course>
  <speed>0.1</speed>
  <fix>3d</fix>
</trkpt>
<trkpt lat="-35.2750192" lon="148.9863595">
  <ele>703.43</ele>
  <time>2026-09-01T20:00:09Z</time>
  <course>344.42</course>
  <speed>0.05</speed>
  <fix>3d</fix>
</trkpt>
<trkpt lat="-35.2750192" lon="148.9863595">
  <ele>703.53</ele>
  <time>2026-09-01T20:00:09Z</time>
  <course>318.29</course>
  <speed>0.1</speed>
  <fix>3d</fix>
</trkpt>
<trkpt lat="-35.2750192" lon="148.9863594">
  <ele>703.43</ele>
  <time>2026-09-01T20:00:09Z</time>
  <course>344.42</course>
  <speed>0.044721359549995794</speed>
  <fix>3d</fix>
</trkpt>
<trkpt lat="-35.2750191" lon="148.9863594">
  <ele>703.53</ele>
  <time>2026-09-01T20:00:09Z</time>
  <course>310.38</course>
  <speed>0.08</speed>
  <fix>3d</fix>
</trkpt>
<trkpt lat="-35.2750192" lon="148.9863594">
  <ele>703.43</ele>
  <time>2026-09-01T20:00:09Z</time>
  <course>344.43</course>
  <speed>0.0412310562561766</speed>
  <fix>3d</fix>
</trkpt>
<trkpt lat="-35.2750191" lon="148.9863594">
  <ele>703.53</ele>
  <time>2026-09-01T20:00:09Z</time>
  <course>310.38</course>
  <speed>0.08</speed>
  <fix>3d</fix>
</trkpt>
<trkpt lat="-35.2750192" lon="148.9863593">
  <ele>703.43</ele>
  <time>2026-09-01T20:00:09Z</time>
  <course>344.43</course>
  <speed>0.04</speed>
  <fix>3d</fix>
</trkpt>
<trkpt lat="-35.275019" lon="148.9863592">
  <ele>703.54</ele>
  <time>2026-09-01T20:00:09Z</time>
  <course>299.54</course>
  <speed>0.07</speed>
  <fix>3d</fix>
</trkpt>
<trkpt lat="-35.2750191" lon="148.9863593">
  <ele>703.43</ele>
  <time>2026-09-01T20:00:09Z</time>
  <course>344.43</course>
  <speed>0.03</speed>
  <fix>3d</fix>
</trkpt>
<trkpt lat="-35.275019" lon="148.9863592">
  <ele>703.54</ele>
  <time>2026-09-01T20:00:09Z</time>
  <course>299.54</course>
  <speed>0.07</speed>
  <fix>3d</fix>
</trkpt>
<trkpt lat="-35.2750191" lon="148.9863592">
  <ele>703.43</ele>
  <time>2026-09-01T20:00:09Z</time>
  <course>344.43</course>
  <speed>0.0316227766016838</speed>
  <fix>3d</fix>
</trkpt>
<trkpt lat="-35.275019" lon="148.9863591">
  <ele>703.54</ele>
  <time>2026-09-01T20:00:09Z</time>
  <course>284.55</course>
  <speed>0.06</speed>
  <fix>3d</fix>
</trkpt>
<trkpt lat="-35.2750191" lon="148.9863591">
  <ele>703.43</ele>
  <time>2026-09-01T20:00:09Z</time>
  <course>344.43</course>
  <speed>0.03605551275463989</speed>
  <fix>3d</fix>
</trkpt>
<trkpt lat="-35.275019" lon="148.9863591">
  <ele>703.54</ele>
  <time>2026-09-01T20:00:09Z</time>
  <course>284.55</course>
  <speed>0.06</speed>
  <fix>3d</fix>
</trkpt>
<trkpt lat="-35.2750192" lon="148.9863591">
  <ele>703.43</ele>
  <time>2026-09-01T20:00:09Z</time>
  <course>344.44</course>
  <speed>0.04242640687119285</speed>
  <fix>3d</fix>
</trkpt>
<trkpt lat="-35.275019" lon="148.986359">
  <ele>703.54</ele>
  <time>2026-09-01T20:00:09Z</time>
  <course>266.34</course>
  <speed>0.05</speed>
  <fix>3d</fix>
</trkpt>
<trkpt lat="-35.2750191" lon="148.986359">
  <ele>703.43</ele>
  <time>2026-09-01T20:00:09Z</time>
  <course>344.44</course>
  <speed>0.03605551275463989</speed>
  <fix>3d</fix>
</trkpt>
<trkpt lat="-35.275019" lon="148.986359">
  <ele>703.54</ele>
  <time>2026-09-01T20:00:09Z</time>
  <course>266.34</course>
  <speed>0.05</speed>
  <fix>3d</fix>
</trkpt>
<trkpt lat="-35.2750191" lon="148.986359">
  <ele>703.43</ele>
  <time>2026-09-01T20:00:09Z</time>
  <course>344.44</course>
  <speed>0.044721359549995794</speed>
  <fix>3d</fix>
</trkpt>
<trkpt lat="-35.275019" lon="148.9863588">
  <ele>703.54</ele>
  <time>2026-09-01T20:00:09Z</time>
  <course>247.84</course>
  <speed>0.05</speed>
  <fix>3d</fix>
</trkpt>
<trkpt lat="-35.2750191" lon="148.9863589">
  <ele>703.43</ele>
  <time>2026-09-01T20:00:09Z</time>
  <course>344.44</course>
  <speed>0.053851648071345036</speed>
  <fix>3d</fix>
</trkpt>
<trkpt lat="-35.275019" lon="148.9863588">
  <ele>703.54</ele>
  <time>2026-09-01T20:00:09Z</time>
  <course>247.84</course>
  <speed>0.05</speed>
  <fix>3d</fix>
</trkpt>
<trkpt lat="-35.2750192" lon="148.9863589">
  <ele>703.43</ele>
  <time>2026-09-01T20:00:09Z</time>
  <course>344.44</course>
  <speed>0.0632455532033676</speed>
  <fix>3d</fix>
</trkpt>
<trkpt lat="-35.275019" lon="148.9863587">
  <ele>703.55</ele>
  <time>2026-09-01T20:00:09Z</time>
  <course>231.67</course>
  <speed>0.05</speed>
  <fix>3d</fix>
</trkpt>
<trkpt lat="-35.2750192" lon="148.9863588">
  <ele>703.43</ele>
  <time>2026-09-01T20:00:09Z</time>
  <course>344.43</course>
  <speed>0.06082762530298219</speed>
  <fix>3d</fix>
</trkpt>
<trkpt lat="-35.275019" lon="148.9863587">
  <ele>703.55</ele>
  <time>2026-09-01T20:00:09Z</time>
  <course>231.67</course>
  <speed>0.05</speed>
  <fix>3d</fix>
</trkpt>
<trkpt lat="-35.2750193" lon="148.9863588">
  <ele>703.44</ele>
  <time>2026-09-01T20:00:09Z</time>
  <course>344.43</course>
  <speed>0.07071067811865475</speed>
  <fix>3d</fix>
</trkpt>
<trkpt lat="-35.2750191" lon="148.9863586">
  <ele>703.55</ele>
  <time>2026-09-01T20:00:09Z</time>
  <course>218.61</course>
  <speed>0.06</speed>
  <fix>3d</fix>
</trkpt>
<trkpt lat="-35.2750193" lon="148.9863588">
  <ele>703.44</ele>
  <time>2026-09-01T20:00:09Z</time>
  <course>344.43</course>
  <speed>0.07071067811865475</speed>
  <fix>3d</fix>
</trkpt>
<trkpt lat="-35.2750191" lon="148.9863586">
  <ele>703.55</ele>
  <time>2026-09-01T20:00:09Z</time>
  <course>218.61</course>
  <speed>0.06</speed>
  <fix>3d</fix>
</trkpt>
<trkpt lat="-35.2750194" lon="148.9863587">
  <ele>703.44</ele>
  <time>2026-09-01T20:00:09Z</time>
  <course>344.43</course>
  <speed>0.08</speed>
  <fix>3d</fix>
</trkpt>
<trkpt lat="-35.2750191" lon="148.9863586">
  <ele>703.55</ele>
  <time>2026-09-01T20:00:09Z</time>
  <course>207.97</course>
  <speed>0.06</speed>
  <fix>3d</fix>
</trkpt>
<trkpt lat="-35.2750194" lon="148.9863587">
  <ele>703.44</ele>
  <time>2026-09-01T20:00:09Z</time>
  <course>344.42</course>
  <speed>0.08</speed>
  <fix>3d</fix>
</trkpt>
<trkpt lat="-35.2750191" lon="148.9863586">
  <ele>703.55</ele>
  <time>2026-09-01T20:00:09Z</time>
  <course>207.97</course>
  <speed>0.06</speed>
  <fix>3d</fix>
</trkpt>
<trkpt lat="-35.2750195" lon="148.9863587">
  <ele>703.44</ele>
  <time>2026-09-01T20:00:09Z</time>
  <course>344.42</course>
  <speed>0.08</speed>
  <fix>3d</fix>
</trkpt>
<trkpt lat="-35.2750192" lon="148.9863585">
  <ele>703.55</ele>
  <time>2026-09-01T20:00:09Z</time>
  <course>198.83</course>
  <speed>0.07</speed>
  <fix>3d</fix>
</trkpt>
<trkpt lat="-35.2750196" lon="148.9863587">
  <ele>703.45</ele>
  <time>2026-09-01T20:00:09Z</time>
  <course>344.41</course>
  <speed>0.08</speed>
  <fix>3d</fix>
</trkpt>
<trkpt lat="-35.2750192" lon="148.9863585">
  <ele>703.55</ele>
  <time>2026-09-01T20:00:09Z</time>
  <course>198.83</course>
  <speed>0.07</speed>
  <fix>3d</fix>
</trkpt>
<trkpt lat="-35.2750196" lon="148.9863587">
  <ele>703.45</ele>
  <time>2026-09-01T20:00:09Z</time>
  <course>344.41</course>
  <speed>0.09055385138137417</speed>
  <fix>3d</fix>
</trkpt>
<trkpt lat="-35.2750194" lon="148.9863585">
  <ele>703.55</ele>
  <time>2026-09-01T20:00:09Z</time>
  <course>190.72</course>
  <speed>0.08</speed>
  <fix>3d</fix>
</trkpt>
<trkpt lat="-35.2750197" lon="148.9863587">
  <ele>703.45</ele>
  <time>2026-09-01T20:00:09Z</time>
  <course>344.4</course>
  <speed>0.09055385138137417</speed>
  <fix>3d</fix>
</trkpt>
<trkpt lat="-35.2750194" lon="148.9863585">
  <ele>703.55</ele>
  <time>2026-09-01T20:00:09Z</time>
  <course>190.72</course>
  <speed>0.08</speed>
  <fix>3d</fix>
</trkpt>
<trkpt lat="-35.2750198" lon="148.9863587">
  <ele>703.45</ele>
  <time>2026-09-01T20:00:09Z</time>
  <course>344.4</course>
  <speed>0.09219544457292887</speed>
  <fix>3d</fix>
</trkpt>
<trkpt lat="-35.2750195" lon="148.9863585">
  <ele>703.55</ele>
  <time>2026-09-01T20:00:09Z</time>
  <course>183.77</course>
  <speed>0.08</speed>
  <fix>3d</fix>
</trkpt>
<trkpt lat="-35.2750198" lon="148.9863587">
  <ele>703.44</ele>
  <time>2026-09-01T20:00:09Z</time>
  <course>344.4</course>
  <speed>0.09219544457292887</speed>
  <fix>3d</fix>
</trkpt>
<trkpt lat="-35.2750195" lon="148.9863585">
  <ele>703.55</ele>
  <time>2026-09-01T20:00:09Z</time>
  <course>183.77</course>
  <speed>0.08</speed>
  <fix>3d</fix>
</trkpt>
<trkpt lat="-35.2750199" lon="148.9863587">
  <ele>703.44</ele>
  <time>2026-09-01T20:00:09Z</time>
  <course>344.4</course>
  <speed>0.09219544457292887</speed>
  <fix>3d</fix>
</trkpt>
<trkpt lat="-35.2750197" lon="148.9863585">
  <ele>703.55</ele>
  <time>2026-09-01T20:00:09Z</time>
  <course>178.03</course>
  <speed>0.08</speed>
  <fix>3d</fix>
</trkpt>
<trkpt lat="-35.27502" lon="148.9863587">
  <ele>703.44</ele>
  <time>2026-09-01T20:00:09Z</time>
  <course>344.41</course>
  <speed>0.09486832980505139</speed>
  <fix>3d</fix>
</trkpt>
<trkpt lat="-35.2750197" lon="148.9863585">
  <ele>703.55</ele>
  <time>2026-09-01T20:00:09Z</time>
  <course>178.03</course>
  <speed>0.08</speed>
  <fix>3d</fix>
</trkpt>
<trkpt lat="-35.27502" lon="148.9863587">
  <ele>703.43</ele>
  <time>2026-09-01T20:00:09Z</time>
  <course>344.42</course>
  <speed>0.09486832980505139</speed>
  <fix>3d</fix>
</trkpt>
<trkpt lat="-35.2750198" lon="148.9863585">
  <ele>703.55</ele>
  <time>2026-09-01T20:00:09Z</time>
  <course>173.22</course>
  <speed>0.08</speed>
  <fix>3d</fix>
</trkpt>
<trkpt lat="-35.2750201" lon="148.9863587">
  <ele>703.43</ele>
  <time>2026-09-01T20:00:09Z</time>
  <course>344.43</course>
  <speed>0.0854400374531753</speed>
  <fix>3d</fix>
</trkpt>
<trkpt lat="-35.2750198" lon="148.9863585">
  <ele>703.55</ele>
  <time>2026-09-01T20:00:09Z</time>
  <course>173.22</course>
  <speed>0.08</speed>
  <fix>3d</fix>
</trkpt>
<trkpt lat="-35.2750201" lon="148.9863587">
  <ele>703.43</ele>
  <time>2026-09-01T20:00:09Z</time>
  <course>344.46</course>
  <speed>0.0282842712474619</speed>
  <fix>3d</fix>
</trkpt>
<trkpt lat="-35.27502" lon="148.9863585">
  <ele>703.55</ele>
  <time>2026-09-01T20:00:09Z</time>
  <course>169.54</course>
  <speed>0.08</speed>
  <fix>3d</fix>
</trkpt>
<trkpt lat="-35.2750201" lon="148.9863587">
  <ele>703.43</ele>
  <time>2026-09-01T20:00:09Z</time>
  <course>344.54</course>
  <speed>0.07</speed>
  <fix>3d</fix>
</trkpt>
<trkpt lat="-35.27502" lon="148.9863585">
  <ele>703.55</ele>
  <time>2026-09-01T20:00:09Z</time>
  <course>169.54</course>
  <speed>0.08</speed>
  <fix>3d</fix>
</trkpt>
<trkpt lat="-35.2750201" lon="148.9863587">
  <ele>703.43</ele>
  <time>2026-09-01T20:00:09Z</time>
  <course>344.65</course>
  <speed>0.24331050121192876</speed>
  <fix>3d</fix>
</trkpt>
<trkpt lat="-35.2750201" lon="148.9863585">
  <ele>703.55</ele>
  <time>2026-09-01T20:00:09Z</time>
  <course>223.13</course>
  <speed>0.0</speed>
  <fix>3d</fix>
</trkpt>
<trkpt lat="-35.2750197" lon="148.9863586">
  <ele>703.43</ele>
  <time>2026-09-01T20:00:09Z</time>
  <course>344.71</course>
  <speed>0.47853944456021597</speed>
  <fix>3d</fix>
</trkpt>
<trkpt lat="-35.2750201" lon="148.9863585">
  <ele>703.55</ele>
  <time>2026-09-01T20:00:09Z</time>
  <course>223.13</course>
  <speed>0.0</speed>
  <fix>3d</fix>
</trkpt>
<trkpt lat="-35.2750192" lon="148.9863585">
  <ele>703.43</ele>
  <time>2026-09-01T20:00:09Z</time>
  <course>344.69</course>
  <speed>0.7787810988975015</speed>
  <fix>3d</fix>
</trkpt>
<trkpt lat="-35.2750199" lon="148.9863584">
  <ele>703.55</ele>
  <time>2026-09-01T20:00:09Z</time>
  <course>346.34</course>
  <speed>0.27</speed>
  <fix>3d</fix>
</trkpt>
<trkpt lat="-35.2750183" lon="148.9863582">
  <ele>703.43</ele>
  <time>2026-09-01T20:00:09Z</time>
  <course>344.6</course>
  <speed>1.1303096920755833</speed>
  <fix>3d</fix>
</trkpt>
<trkpt lat="-35.2750199" lon="148.9863584">
  <ele>703.55</ele>
  <time>2026-09-01T20:00:09Z</time>
  <course>346.34</course>
  <speed>0.27</speed>
  <fix>3d</fix>
</trkpt>
<trkpt lat="-35.2750172" lon="148.9863578">
  <ele>703.43</ele>
  <time>2026-09-01T20:00:09Z</time>
  <course>344.46</course>
  <speed>1.5546703830716015</speed>
  <fix>3d</fix>
</trkpt>
<trkpt lat="-35.275019" lon="148.9863581">
  <ele>703.55</ele>
  <time>2026-09-01T20:00:09Z</time>
  <course>346.06</course>
  <speed>0.8</speed>
  <fix>3d</fix>
</trkpt>
<trkpt lat="-35.2750156" lon="148.9863573">
  <ele>703.43</ele>
  <time>2026-09-01T20:00:09Z</time>
  <course>344.28</course>
  <speed>2.0374739262135355</speed>
  <fix>3d</fix>
</trkpt>
<trkpt lat="-35.275019" lon="148.9863581">
  <ele>703.55</ele>
  <time>2026-09-01T20:00:09Z</time>
  <course>346.06</course>
  <speed>0.8</speed>
  <fix>3d</fix>
</trkpt>
<trkpt lat="-35.2750136" lon="148.9863566">
  <ele>703.43</ele>
  <time>2026-09-01T20:00:09Z</time>
  <course>344.01</course>
  <speed>2.5811818998280613</speed>
  <fix>3d</fix>
</trkpt>
<trkpt lat="-35.275017" lon="148.9863575">
  <ele>703.55</ele>
  <time>2026-09-01T20:00:09Z</time>
  <course>345.28</course>
  <speed>1.57</speed>
  <fix>3d</fix>
</trkpt>
<trkpt lat="-35.2750111" lon="148.9863557">
  <ele>703.44</ele>
  <time>2026-09-01T20:00:09Z</time>
  <course>343.54</course>
  <speed>3.181273329973393</speed>
  <fix>3d</fix>
</trkpt>
<trkpt lat="-35.275017" lon="148.9863575">
  <ele>703.55</ele>
  <time>2026-09-01T20:00:09Z</time>
  <course>345.28</course>
  <speed>1.57</speed>
  <fix>3d</fix>
</trkpt>
<trkpt lat="-35.2750082" lon="148.9863547">
  <ele>703.44</ele>
  <time>2026-09-01T20:00:09Z</time>
  <course>342.95</course>
  <speed>3.787254942567242</speed>
  <fix>3d</fix>
</trkpt>
<trkpt lat="-35.2750134" lon="148.9863563">
  <ele>703.56</ele>
  <time>2026-09-01T20:00:09Z</time>
  <course>344.32</course>
  <speed>2.59</speed>
  <fix>3d</fix>
</trkpt>
<trkpt lat="-35.2750047" lon="148.9863533">
  <ele>703.45</ele>
  <time>2026-09-01T20:00:09Z</time>
  <course>342.4</course>
  <speed>4.399556795860238</speed>
  <fix>3d</fix>
</trkpt>
<trkpt lat="-35.2750134" lon="148.9863563">
  <ele>703.56</ele>
  <time>2026-09-01T20:00:09Z</time>
  <course>344.32</course>
  <speed>2.59</speed>
  <fix>3d</fix>
</trkpt>
<trkpt lat="-35.2750007" lon="148.9863518">
  <ele>703.46</ele>
  <time>2026-09-01T20:00:09Z</time>
  <course>341.93</course>
  <speed>5.006006392325124</speed>
  <fix>3d</fix>
</trkpt>
<trkpt lat="-35.2750079" lon="148.9863543">
  <ele>703.56</ele>
  <time>2026-09-01T20:00:09Z</time>
  <course>343.15</course>
  <speed>3.77</speed>
  <fix>3d</fix>
</trkpt>
<trkpt lat="-35.2749962" lon="148.9863499">
  <ele>703.47</ele>
  <time>2026-09-01T20:00:09Z</time>
  <course>341.39</course>
  <speed>5.603784435539968</speed>
  <fix>3d</fix>
</trkpt>
<trkpt lat="-35.2750079" lon="148.9863543">
  <ele>703.56</ele>
  <time>2026-09-01T20:00:09Z</time>
  <course>343.15</course>
  <speed>3.77</speed>
  <fix>3d</fix>
</trkpt>
<trkpt lat="-35.2749913" lon="148.9863477">
  <ele>703.47</ele>
  <time>2026-09-01T20:00:09Z</time>
  <course>340.64</course>
  <speed>6.218890576300567</speed>
  <fix>3d</fix>
</trkpt>
<trkpt lat="-35.2750004" lon="148.9863515">
  <ele>703.58</ele>
  <time>2026-09-01T20:00:09Z</time>
  <course>341.69</course>
  <speed>4.99</speed>
  <fix>3d</fix>
</trkpt>
<trkpt lat="-35.2749858" lon="148.9863453">
  <ele>703.48</ele>
  <time>2026-09-01T20:00:09Z</time>
  <course>339.75</course>
  <speed>6.827100409397828</speed>
  <fix>3d</fix>
</trkpt>
<trkpt lat="-35.2750004" lon="148.9863515">
  <ele>703.58</ele>
  <time>2026-09-01T20:00:09Z</time>
  <course>341.69</course>
  <speed>4.99</speed>
  <fix>3d</fix>
</trkpt>
<trkpt lat="-35.2749799" lon="148.9863424">
  <ele>703.49</ele>
  <time>2026-09-01T20:00:09Z</time>
  <course>338.74</course>
  <speed>7.425967950375224</speed>
  <fix>3d</fix>
</trkpt>
<trkpt lat="-35.2749909" lon="148.9863474">
  <ele>703.59</ele>
  <time>2026-09-01T20:00:09Z</time>
  <course>339.96</course>
  <speed>6.21</speed>
  <fix>3d</fix>
</trkpt>
<trkpt lat="-35.2749736" lon="148.9863392">
  <ele>703.5</ele>
  <time>2026-09-01T20:00:09Z</time>
  <course>337.64</course>
  <speed>8.042543130129921</speed>
  <fix>3d</fix>
</trkpt>
<trkpt lat="-35.2749909" lon="148.9863474">
  <ele>703.59</ele>
  <time>2026-09-01T20:00:09Z</time>
  <course>339.96</course>
  <speed>6.21</speed>
  <fix>3d</fix>
</trkpt>
<trkpt lat="-35.2749668" lon="148.9863355">
  <ele>703.5</ele>
  <time>2026-09-01T20:00:09Z</time>
  <course>336.41</course>
  <speed>8.646849137113472</speed>
  <fix>3d</fix>
</trkpt>
<trkpt lat="-35.2749795" lon="148.986342">
  <ele>703.61</ele>
  <time>2026-09-01T20:00:09Z</time>
  <course>337.92</course>
  <speed>7.44</speed>
  <fix>3d</fix>
</trkpt>
<trkpt lat="-35.2749596" lon="148.9863313">
  <ele>703.51</ele>
  <time>2026-09-01T20:00:09Z</time>
  <course>334.95</course>
  <speed>9.235935253129485</speed>
  <fix>3d</fix>
</trkpt>
<trkpt lat="-35.2749795" lon="148.986342">
  <ele>703.61</ele>
  <time>2026-09-01T20:00:09Z</time>
  <course>337.92</course>
  <speed>7.44</speed>
  <fix>3d</fix>
</trkpt>
<trkpt lat="-35.274952" lon="148.9863267">
  <ele>703.51</ele>
  <time>2026-09-01T20:00:09Z</time>
  <course>333.49</course>
  <speed>9.821303375825432</speed>
  <fix>3d</fix>
</trkpt>
<trkpt lat="-35.2749661" lon="148.986335">
  <ele>703.62</ele>
  <time>2026-09-01T20:00:09Z</time>
  <course>335.54</course>
  <speed>8.65</speed>
  <fix>3d</fix>
</trkpt>
<trkpt lat="-35.274944" lon="148.9863215">
  <ele>703.51</ele>
  <time>2026-09-01T20:00:09Z</time>
  <course>332.01</course>
  <speed>10.395888610407482</speed>
  <fix>3d</fix>
</trkpt>
<trkpt lat="-35.2749661" lon="148.986335">
  <ele>703.62</ele>
  <time>2026-09-01T20:00:09Z</time>
  <course>335.54</course>
  <speed>8.65</speed>
  <fix>3d</fix>
</trkpt>
<trkpt lat="-35.2749357" lon="148.9863158">
  <ele>703.52</ele>
  <time>2026-09-01T20:00:09Z</time>
  <course>330.46</course>
  <speed>10.961354843266411</speed>
  <fix>3d</fix>
</trkpt>
<trkpt lat="-35.2749512" lon="148.9863261">
  <ele>703.63</ele>
  <time>2026-09-01T20:00:09Z</time>
  <course>332.81</course>
  <speed>9.83</speed>
  <fix>3d</fix>
</trkpt>
<trkpt lat="-35.2749271" lon="148.9863094">
  <ele>703.53</ele>
  <time>2026-09-01T20:00:09Z</time>
  <course>328.9</course>
  <speed>11.496803903694278</speed>
  <fix>3d</fix>
</trkpt>
<trkpt lat="-35.2749512" lon="148.9863261">
  <ele>703.63</ele>
  <time>2026-09-01T20:00:09Z</time>
  <course>332.81</course>
  <speed>9.83</speed>
  <fix>3d</fix>
</trkpt>
<trkpt lat="-35.2749182" lon="148.9863025">
  <ele>703.55</ele>
  <time>2026-09-01T20:00:09Z</time>
  <course>327.38</course>
  <speed>12.039908637527114</speed>
  <fix>3d</fix>
</trkpt>
<trkpt lat="-35.2749348" lon="148.9863151">
  <ele>703.64</ele>
  <time>2026-09-01T20:00:09Z</time>
  <course>329.79</course>
  <speed>10.98</speed>
  <fix>3d</fix>
</trkpt>
<trkpt lat="-35.2749092" lon="148.986295">
  <ele>703.57</ele>
  <time>2026-09-01T20:00:09Z</time>
  <course>325.93</course>
  <speed>12.564561273677645</speed>
  <fix>3d</fix>
</trkpt>
<trkpt lat="-35.2749348" lon="148.9863151">
  <ele>703.64</ele>
  <time>2026-09-01T20:00:09Z</time>
  <course>329.79</course>
  <speed>10.98</speed>
  <fix>3d</fix>
</trkpt>
<trkpt lat="-35.2748999" lon="148.9862868">
  <ele>703.59</ele>
  <time>2026-09-01T20:00:09Z</time>
  <course>324.42</course>
  <speed>13.074176838332882</speed>
  <fix>3d</fix>
</trkpt>
<trkpt lat="-35.2749172" lon="148.9863017">
  <ele>703.66</ele>
  <time>2026-09-01T20:00:09Z</time>
  <course>326.64</course>
  <speed>12.07</speed>
  <fix>3d</fix>
</trkpt>
<trkpt lat="-35.2748904" lon="148.9862779">
  <ele>703.62</ele>
  <time>2026-09-01T20:00:09Z</time>
  <course>322.94</course>
  <speed>13.567361571064582</speed>
  <fix>3d</fix>
</trkpt>
<trkpt lat="-35.2749172" lon="148.9863017">
  <ele>703.66</ele>
  <time>2026-09-01T20:00:09Z</time>
  <course>326.64</course>
  <speed>12.07</speed>
  <fix>3d</fix>
</trkpt>
<trkpt lat="-35.2748808" lon="148.9862684">
  <ele>703.65</ele>
  <time>2026-09-01T20:00:09Z</time>
  <course>321.5</course>
  <speed>14.04057335011644</speed>
  <fix>3d</fix>
</trkpt>
<trkpt lat="-35.2748986" lon="148.9862858">
  <ele>703.7</ele>
  <time>2026-09-01T20:00:09Z</time>
  <course>323.48</course>
  <speed>13.12</speed>
  <fix>3d</fix>
</trkpt>
<trkpt lat="-35.2748709" lon="148.9862582">
  <ele>703.69</ele>
  <time>2026-09-01T20:00:09Z</time>
  <course>320.07</course>
  <speed>14.514385967032844</speed>
  <fix>3d</fix>
</trkpt>
<trkpt lat="-35.2748986" lon="148.9862858">
  <ele>703.7</ele>
  <time>2026-09-01T20:00:09Z</time>
  <course>323.48</course>
  <speed>13.12</speed>
  <fix>3d</fix>
</trkpt>
<trkpt lat="-35.2748611" lon="148.9862474">
  <ele>703.72</ele>
  <time>2026-09-01T20:00:09Z</time>
  <course>318.74</course>
  <speed>14.975907318089277</speed>
  <fix>3d</fix>
</trkpt>
<trkpt lat="-35.2748793" lon="148.9862673">
  <ele>703.76</ele>
  <time>2026-09-01T20:00:09Z</time>
  <course>320.43</course>
  <speed>14.1</speed>
  <fix>3d</fix>
</trkpt>
<trkpt lat="-35.2748511" lon="148.986236">
  <ele>703.76</ele>
  <time>2026-09-01T20:00:09Z</time>
  <course>317.51</course>
  <speed>15.424723660409608</speed>
  <fix>3d</fix>
</trkpt>
<trkpt lat="-35.2748793" lon="148.9862673">
  <ele>703.76</ele>
  <time>2026-09-01T20:00:09Z</time>
  <course>320.43</course>
  <speed>14.1</speed>
  <fix>3d</fix>
</trkpt>
<trkpt lat="-35.2748411" lon="148.986224">
  <ele>703.79</ele>
  <time>2026-09-01T20:00:09Z</time>
  <course>316.3</course>
  <speed>15.867577004697345</speed>
  <fix>3d</fix>
</trkpt>
<trkpt lat="-35.2748596" lon="148.9862463">
  <ele>703.82</ele>
  <time>2026-09-01T20:00:09Z</time>
  <course>317.55</course>
  <speed>15.04</speed>
  <fix>3d</fix>
</trkpt>
<trkpt lat="-35.274831" lon="148.9862113">
  <ele>703.82</ele>
  <time>2026-09-01T20:00:09Z</time>
  <course>315.11</course>
  <speed>16.28965622718908</speed>
  <fix>3d</fix>
</trkpt>
<trkpt lat="-35.2748596" lon="148.9862463">
  <ele>703.82</ele>
  <time>2026-09-01T20:00:09Z</time>
  <course>317.55</course>
  <speed>15.04</speed>
  <fix>3d</fix>
</trkpt>
<trkpt lat="-35.2748208" lon="148.9861981">
  <ele>703.85</ele>
  <time>2026-09-01T20:00:09Z</time>
  <course>313.87</course>
  <speed>16.68367165824118</speed>
  <fix>3d</fix>
</trkpt>
<trkpt lat="-35.2748395" lon="148.9862226">
  <ele>703.89</ele>
  <time>2026-09-01T20:00:09Z</time>
  <course>314.89</course>
  <speed>15.94</speed>
  <fix>3d</fix>
</trkpt>
<trkpt lat="-35.2748106" lon="148.9861842">
  <ele>703.87</ele>
  <time>2026-09-01T20:00:09Z</time>
  <course>312.58</course>
  <speed>17.029870815716716</speed>
  <fix>3d</fix>
</trkpt>
<trkpt lat="-35.2748395" lon="148.9862226">
  <ele>703.89</ele>
  <time>2026-09-01T20:00:09Z</time>
  <course>314.89</course>
  <speed>15.94</speed>
  <fix>3d</fix>
</trkpt>
<trkpt lat="-35.2748006" lon="148.9861699">
  <ele>703.9</ele>
  <time>2026-09-01T20:00:09Z</time>
  <course>311.31</course>
  <speed>17.328545813195056</speed>
  <fix>3d</fix>
</trkpt>
<trkpt lat="-35.2748192" lon="148.9861965">
  <ele>703.94</ele>
  <time>2026-09-01T20:00:09Z</time>
  <course>312.4</course>
  <speed>16.75</speed>
  <fix>3d</fix>
</trkpt>
<trkpt lat="-35.2747906" lon="148.986155">
  <ele>703.93</ele>
  <time>2026-09-01T20:00:09Z</time>
  <course>310.11</course>
  <speed>17.588291560012305</speed>
  <fix>3d</fix>
</trkpt>
<trkpt lat="-35.2748192" lon="148.9861965">
  <ele>703.94</ele>
  <time>2026-09-01T20:00:09Z</time>
  <course>312.4</course>
  <speed>16.75</speed>
  <fix>3d</fix>
</trkpt>
<trkpt lat="-35.2747808" lon="148.9861397">
  <ele>703.97</ele>
  <time>2026-09-01T20:00:09Z</time>
  <course>308.97</course>
  <speed>17.8207182795756</speed>
  <fix>3d</fix>
</trkpt>
<trkpt lat="-35.274799" lon="148.9861682">
  <ele>704.0</ele>
  <time>2026-09-01T20:00:09Z</time>
  <course>309.93</course>
  <speed>17.4</speed>
  <fix>3d</fix>
</trkpt>
<trkpt lat="-35.2747711" lon="148.9861239">
  <ele>704.01</ele>
  <time>2026-09-01T20:00:09Z</time>
  <course>307.77</course>
  <speed>18.025318305095198</speed>
  <fix>3d</fix>
</trkpt>
<trkpt lat="-35.274799" lon="148.9861682">
  <ele>704.0</ele>
  <time>2026-09-01T20:00:09Z</time>
  <course>309.93</course>
  <speed>17.4</speed>
  <fix>3d</fix>
</trkpt>
<trkpt lat="-35.2747616" lon="148.9861077">
  <ele>704.04</ele>
  <time>2026-09-01T20:00:09Z</time>
  <course>306.47</course>
  <speed>18.23447558883995</speed>
  <fix>3d</fix>
</trkpt>
<trkpt lat="-35.2747792" lon="148.9861379">
  <ele>704.06</ele>
  <time>2026-09-01T20:00:09Z</time>
  <course>307.43</course>
  <speed>17.9</speed>
  <fix>3d</fix>
</trkpt>
<trkpt lat="-35.2747522" lon="148.9860911">
  <ele>704.08</ele>
  <time>2026-09-01T20:00:09Z</time>
  <course>305.19</course>
  <speed>18.43823473112326</speed>
  <fix>3d</fix>
</trkpt>
<trkpt lat="-35.2747792" lon="148.9861379">
  <ele>704.06</ele>
  <time>2026-09-01T20:00:09Z</time>
  <course>307.43</course>
  <speed>17.9</speed>
  <fix>3d</fix>
</trkpt>
<trkpt lat="-35.2747431" lon="148.986074">
  <ele>704.1</ele>
  <time>2026-09-01T20:00:09Z</time>
  <course>303.89</course>
  <speed>18.644918878879576</speed>
  <fix>3d</fix>
</trkpt>
<trkpt lat="-35.27476" lon="148.9861058">
  <ele>704.13</ele>
  <time>2026-09-01T20:00:09Z</time>
  <course>304.97</course>
  <speed>18.33</speed>
  <fix>3d</fix>
</trkpt>
<trkpt lat="-35.2747342" lon="148.9860565">
  <ele>704.13</ele>
  <time>2026-09-01T20:00:09Z</time>
  <course>302.48</course>
  <speed>18.84779562707533</speed>
  <fix>3d</fix>
</trkpt>
<trkpt lat="-35.27476" lon="148.9861058">
  <ele>704.13</ele>
  <time>2026-09-01T20:00:09Z</time>
  <course>304.97</course>
  <speed>18.33</speed>
  <fix>3d</fix>
</trkpt>
<trkpt lat="-35.2747255" lon="148.9860386">
  <ele>704.14</ele>
  <time>2026-09-01T20:00:09Z</time>
  <course>301.03</course>
  <speed>19.049254578591782</speed>
  <fix>3d</fix>
</trkpt>
<trkpt lat="-35.2747415" lon="148.9860719">
  <ele>704.18</ele>
  <time>2026-09-01T20:00:09Z</time>
  <course>302.45</course>
  <speed>18.73</speed>
  <fix>3d</fix>
</trkpt>
<trkpt lat="-35.2747171" lon="148.9860201">
  <ele>704.14</ele>
  <time>2026-09-01T20:00:09Z</time>
  <course>299.41</course>
  <speed>19.243040300326765</speed>
  <fix>3d</fix>
</trkpt>
<trkpt lat="-35.2747415" lon="148.9860719">
  <ele>704.18</ele>
  <time>2026-09-01T20:00:09Z</time>
  <course>302.45</course>
  <speed>18.73</speed>
  <fix>3d</fix>
</trkpt>
<trkpt lat="-35.2747091" lon="148.9860014">
  <ele>704.13</ele>
  <time>2026-09-01T20:00:09Z</time>
  <course>297.76</course>
  <speed>19.440416662201457</speed>
  <fix>3d</fix>
</trkpt>
<trkpt lat="-35.2747239" lon="148.9860362">
  <ele>704.21</ele>
  <time>2026-09-01T20:00:09Z</time>
  <course>299.71</course>
  <speed>19.13</speed>
  <fix>3d</fix>
</trkpt>
<trkpt lat="-35.2747014" lon="148.985982">
  <ele>704.12</ele>
  <time>2026-09-01T20:00:09Z</time>
  <course>296.08</course>
  <speed>19.64063390015709</speed>
  <fix>3d</fix>
</trkpt>
<trkpt lat="-35.2747239" lon="148.9860362">
  <ele>704.21</ele>
  <time>2026-09-01T20:00:09Z</time>
  <course>299.71</course>
  <speed>19.13</speed>
  <fix>3d</fix>
</trkpt>
<trkpt lat="-35.2746941" lon="148.9859621">
  <ele>704.09</ele>
  <time>2026-09-01T20:00:09Z</time>
  <course>294.29</course>
  <speed>19.839125484758647</speed>
  <fix>3d</fix>
</trkpt>
<trkpt lat="-35.2747075" lon="148.9859986">
  <ele>704.2</ele>
  <time>2026-09-01T20:00:09Z</time>
  <course>296.6</course>
  <speed>19.53</speed>
  <fix>3d</fix>
</trkpt>
<trkpt lat="-35.2746873" lon="148.9859417">
  <ele>704.06</ele>
  <time>2026-09-01T20:00:09Z</time>
  <course>292.35</course>
  <speed>20.026752108117783</speed>
  <fix>3d</fix>
</trkpt>
<trkpt lat="-35.2747075" lon="148.9859986">
  <ele>704.2</ele>
  <time>2026-09-01T20:00:09Z</time>
  <course>296.6</course>
  <speed>19.53</speed>
  <fix>3d</fix>
</trkpt>
<trkpt lat="-35.2746809" lon="148.9859207">
  <ele>704.02</ele>
  <time>2026-09-01T20:00:09Z</time>
  <course>290.29</course>
  <speed>20.227070969371713</speed>
  <fix>3d</fix>
</trkpt>
<trkpt lat="-35.2746926" lon="148.9859593">
  <ele>704.17</ele>
  <time>2026-09-01T20:00:09Z</time>
  <course>293.04</course>
  <speed>19.91</speed>
  <fix>3d</fix>
</trkpt>
<trkpt lat="-35.2746752" lon="148.9858994">
  <ele>703.98</ele>
  <time>2026-09-01T20:00:09Z</time>
  <course>288.13</course>
  <speed>20.407530472842616</speed>
  <fix>3d</fix>
</trkpt>
<trkpt lat="-35.2746926" lon="148.9859593">
  <ele>704.17</ele>
  <time>2026-09-01T20:00:09Z</time>
  <course>293.04</course>
  <speed>19.91</speed>
  <fix>3d</fix>
</trkpt>
<trkpt lat="-35.2746701" lon="148.9858776">
  <ele>703.92</ele>
  <time>2026-09-01T20:00:09Z</time>
  <course>285.91</course>
  <speed>20.606882345468954</speed>
  <fix>3d</fix>
</trkpt>
<trkpt lat="-35.2746796" lon="148.9859181">
  <ele>704.1</ele>
  <time>2026-09-01T20:00:09Z</time>
  <course>289.02</course>
  <speed>20.28</speed>
  <fix>3d</fix>
</trkpt>
<trkpt lat="-35.2746657" lon="148.9858554">
  <ele>703.86</ele>
  <time>2026-09-01T20:00:09Z</time>
  <course>283.64</course>
  <speed>20.7972906889335</speed>
  <fix>3d</fix>
</trkpt>
<trkpt lat="-35.2746796" lon="148.9859181">
  <ele>704.1</ele>
  <time>2026-09-01T20:00:09Z</time>
  <course>289.02</course>
  <speed>20.28</speed>
  <fix>3d</fix>
</trkpt>
<trkpt lat="-35.274662" lon="148.9858328">
  <ele>703.79</ele>
  <time>2026-09-01T20:00:09Z</time>
  <course>281.37</course>
  <speed>20.992724930318122</speed>
  <fix>3d</fix>
</trkpt>
<trkpt lat="-35.274669" lon="148.9858749">
  <ele>704.0</ele>
  <time>2026-09-01T20:00:09Z</time>
  <course>284.61</course>
  <speed>20.65</speed>
  <fix>3d</fix>
</trkpt>
<trkpt lat="-35.2746591" lon="148.9858098">
  <ele>703.72</ele>
  <time>2026-09-01T20:00:09Z</time>
  <course>279.11</course>
  <speed>21.180594892495346</speed>
  <fix>3d</fix>
</trkpt>
<trkpt lat="-35.274669" lon="148.9858749">
  <ele>704.0</ele>
  <time>2026-09-01T20:00:09Z</time>
  <course>284.61</course>
  <speed>20.65</speed>
  <fix>3d</fix>
</trkpt>
<trkpt lat="-35.2746569" lon="148.9857865">
  <ele>703.63</ele>
  <time>2026-09-01T20:00:09Z</time>
  <course>276.75</course>
  <speed>21.373726862669503</speed>
  <fix>3d</fix>
</trkpt>
<trkpt lat="-35.274661" lon="148.98583">
  <ele>703.88</ele>
  <time>2026-09-01T20:00:09Z</time>
  <course>279.92</course>
  <speed>21.03</speed>
  <fix>3d</fix>
</trkpt>
<trkpt lat="-35.2746556" lon="148.9857629">
  <ele>703.54</ele>
  <time>2026-09-01T20:00:09Z</time>
  <course>274.32</course>
  <speed>21.562738694331014</speed>
  <fix>3d</fix>
</trkpt>
<trkpt lat="-35.274661" lon="148.98583">
  <ele>703.88</ele>
  <time>2026-09-01T20:00:09Z</time>
  <course>279.92</course>
  <speed>21.03</speed>
  <fix>3d</fix>
</trkpt>
<trkpt lat="-35.274655" lon="148.9857391">
  <ele>703.44</ele>
  <time>2026-09-01T20:00:09Z</time>
  <course>271.94</course>
  <speed>21.75008275846324</speed>
  <fix>3d</fix>
</trkpt>
<trkpt lat="-35.2746561" lon="148.9857837">
  <ele>703.72</ele>
  <time>2026-09-01T20:00:09Z</time>
  <course>275.09</course>
  <speed>21.4</speed>
  <fix>3d</fix>
</trkpt>
<trkpt lat="-35.2746553" lon="148.985715">
  <ele>703.33</ele>
  <time>2026-09-01T20:00:09Z</time>
  <course>269.49</course>
  <speed>21.937657121944447</speed>
  <fix>3d</fix>
</trkpt>
<trkpt lat="-35.2746561" lon="148.9857837">
  <ele>703.72</ele>
  <time>2026-09-01T20:00:09Z</time>
  <course>275.09</course>
  <speed>21.4</speed>
  <fix>3d</fix>
</trkpt>
<trkpt lat="-35.2746564" lon="148.9856908">
  <ele>703.21</ele>
  <time>2026-09-01T20:00:09Z</time>
  <course>267.03</course>
  <speed>22.12747161335881</speed>
  <fix>3d</fix>
</trkpt>
<trkpt lat="-35.2746542" lon="148.9857363">
  <ele>703.53</ele>
  <time>2026-09-01T20:00:09Z</time>
  <course>270.17</course>
  <speed>21.77</speed>
  <fix>3d</fix>
</trkpt>
<trkpt lat="-35.2746584" lon="148.9856664">
  <ele>703.08</ele>
  <time>2026-09-01T20:00:09Z</time>
  <course>264.56</course>
  <speed>22.321406765703635</speed>
  <fix>3d</fix>
</trkpt>
<trkpt lat="-35.2746542" lon="148.9857363">
  <ele>703.53</ele>
  <time>2026-09-01T20:00:09Z</time>
  <course>270.17</course>
  <speed>21.77</speed>
  <fix>3d</fix>
</trkpt>
<trkpt lat="-35.2746613" lon="148.985642">
  <ele>702.94</ele>
  <time>2026-09-01T20:00:09Z</time>
  <course>262.0</course>
  <speed>22.501808816181864</speed>
  <fix>3d</fix>
</trkpt>
<trkpt lat="-35.2746559" lon="148.9856881">
  <ele>703.31</ele>
  <time>2026-09-01T20:00:09Z</time>
  <course>265.18</course>
  <speed>22.14</speed>
  <fix>3d</fix>
</trkpt>
<trkpt lat="-35.2746652" lon="148.9856174">
  <ele>702.8</ele>
  <time>2026-09-01T20:00:09Z</time>
  <course>259.43</course>
  <speed>22.690967365892533</speed>
  <fix>3d</fix>
</trkpt>
<trkpt lat="-35.2746559" lon="148.9856881">
  <ele>703.31</ele>
  <time>2026-09-01T20:00:09Z</time>
  <course>265.18</course>
  <speed>22.14</speed>
  <fix>3d</fix>
</trkpt>
<trkpt lat="-35.2746699" lon="148.9855932">
  <ele>702.64</ele>
  <time>2026-09-01T20:00:09Z</time>
  <course>256.84</course>
  <speed>22.859851268107587</speed>
  <fix>3d</fix>
</trkpt>
<trkpt lat="-35.2746609" lon="148.9856394">
  <ele>703.05</ele>
  <time>2026-09-01T20:00:09Z</time>
  <course>260.12</course>
  <speed>22.5</speed>
  <fix>3d</fix>
</trkpt>
<trkpt lat="-35.2746756" lon="148.9855691">
  <ele>702.48</ele>
  <time>2026-09-01T20:00:09Z</time>
  <course>254.26</course>
  <speed>23.039585499743698</speed>
  <fix>3d</fix>
</trkpt>
<trkpt lat="-35.2746609" lon="148.9856394">
  <ele>703.05</ele>
  <time>2026-09-01T20:00:09Z</time>
  <course>260.12</course>
  <speed>22.5</speed>
  <fix>3d</fix>
</trkpt>
<trkpt lat="-35.2746822" lon="148.9855452">
  <ele>702.3</ele>
  <time>2026-09-01T20:00:09Z</time>
  <course>251.67</course>
  <speed>23.209670398349047</speed>
  <fix>3d</fix>
</trkpt>
<trkpt lat="-35.2746697" lon="148.9855907">
  <ele>702.75</ele>
  <time>2026-09-01T20:00:09Z</time>
  <course>254.97</course>
  <speed>22.86</speed>
  <fix>3d</fix>
</trkpt>
<trkpt lat="-35.2746897" lon="148.9855217">
  <ele>702.13</ele>
  <time>2026-09-01T20:00:09Z</time>
  <course>249.08</course>
  <speed>23.371702976034932</speed>
  <fix>3d</fix>
</trkpt>
<trkpt lat="-35.2746697" lon="148.9855907">
  <ele>702.75</ele>
  <time>2026-09-01T20:00:09Z</time>
  <course>254.97</course>
  <speed>22.86</speed>
  <fix>3d</fix>
</trkpt>
<trkpt lat="-35.2746981" lon="148.9854983">
  <ele>701.94</ele>
  <time>2026-09-01T20:00:09Z</time>
  <course>246.42</course>
  <speed>23.53671387428585</speed>
  <fix>3d</fix>
</trkpt>
<trkpt lat="-35.2746822" lon="148.9855423">
  <ele>702.41</ele>
  <time>2026-09-01T20:00:09Z</time>
  <course>249.73</course>
  <speed>23.21</speed>
  <fix>3d</fix>
</trkpt>
<trkpt lat="-35.2747075" lon="148.9854752">
  <ele>701.75</ele>
  <time>2026-09-01T20:00:09Z</time>
  <course>243.76</course>
  <speed>23.70647590849386</speed>
  <fix>3d</fix>
</trkpt>
<trkpt lat="-35.2746822" lon="148.9855423">
  <ele>702.41</ele>
  <time>2026-09-01T20:00:09Z</time>
  <course>249.73</course>
  <speed>23.21</speed>
  <fix>3d</fix>
</trkpt>
<trkpt lat="-35.2747179" lon="148.9854525">
  <ele>701.55</ele>
  <time>2026-09-01T20:00:09Z</time>
  <course>241.08</course>
  <speed>23.86072295635654</speed>
  <fix>3d</fix>
</trkpt>
<trkpt lat="-35.2746986" lon="148.9854949">
  <ele>702.05</ele>
  <time>2026-09-01T20:00:09Z</time>
  <course>244.44</course>
  <speed>23.56</speed>
  <fix>3d</fix>
</trkpt>
<trkpt lat="-35.2747293" lon="148.9854301">
  <ele>701.35</ele>
  <time>2026-09-01T20:00:09Z</time>
  <course>238.36</course>
  <speed>24.02141752686548</speed>
  <fix>3d</fix>
</trkpt>
<trkpt lat="-35.2746986" lon="148.9854949">
  <ele>702.05</ele>
  <time>2026-09-01T20:00:09Z</time>
  <course>244.44</course>
  <speed>23.56</speed>
  <fix>3d</fix>
</trkpt>
<trkpt lat="-35.2747415" lon="148.9854084">
  <ele>701.14</ele>
  <time>2026-09-01T20:00:09Z</time>
  <course>235.69</course>
  <speed>24.179811827224793</speed>
  <fix>3d</fix>
</trkpt>
<trkpt lat="-35.2747188" lon="148.985449">
  <ele>701.66</ele>
  <time>2026-09-01T20:00:09Z</time>
  <course>239.11</course>
  <speed>23.9</speed>
  <fix>3d</fix>
</trkpt>
<trkpt lat="-35.2747546" lon="148.9853873">
  <ele>700.92</ele>
  <time>2026-09-01T20:00:09Z</time>
  <course>233.08</course>
  <speed>24.33670889828779</speed>
  <fix>3d</fix>
</trkpt>
<trkpt lat="-35.2747188" lon="148.985449">
  <ele>701.66</ele>
  <time>2026-09-01T20:00:09Z</time>
  <course>239.11</course>
  <speed>23.9</speed>
  <fix>3d</fix>
</trkpt>
<trkpt lat="-35.2747687" lon="148.9853667">
  <ele>700.71</ele>
  <time>2026-09-01T20:00:09Z</time>
  <course>230.49</course>
  <speed>24.490171497970366</speed>
  <fix>3d</fix>
</trkpt>
<trkpt lat="-35.2747427" lon="148.9854049">
  <ele>701.24</ele>
  <time>2026-09-01T20:00:09Z</time>
  <course>233.74</course>
  <speed>24.22</speed>
  <fix>3d</fix>
</trkpt>
<trkpt lat="-35.2747835" lon="148.9853469">
  <ele>700.48</ele>
  <time>2026-09-01T20:00:09Z</time>
  <course>227.86</course>
  <speed>24.63834410020284</speed>
  <fix>3d</fix>
</trkpt>
<trkpt lat="-35.2747427" lon="148.9854049">
  <ele>701.24</ele>
  <time>2026-09-01T20:00:09Z</time>
  <course>233.74</course>
  <speed>24.22</speed>
  <fix>3d</fix>
</trkpt>
<trkpt lat="-35.2747993" lon="148.9853278">
  <ele>700.26</ele>
  <time>2026-09-01T20:00:09Z</time>
  <course>225.26</course>
  <speed>24.788787788030298</speed>
  <fix>3d</fix>
</trkpt>
<trkpt lat="-35.2747703" lon="148.9853631">
  <ele>700.8</ele>
  <time>2026-09-01T20:00:09Z</time>
  <course>228.39</course>
  <speed>24.54</speed>
  <fix>3d</fix>
</trkpt>
<trkpt lat="-35.2748158" lon="148.9853095">
  <ele>700.03</ele>
  <time>2026-09-01T20:00:09Z</time>
  <course>222.73</course>
  <speed>24.933992861152422</speed>
  <fix>3d</fix>
</trkpt>
<trkpt lat="-35.2747703" lon="148.9853631">
  <ele>700.8</ele>
  <time>2026-09-01T20:00:09Z</time>
  <course>228.39</course>
  <speed>24.54</speed>
  <fix>3d</fix>
</trkpt>
<trkpt lat="-35.2748331" lon="148.985292">
  <ele>699.79</ele>
  <time>2026-09-01T20:00:09Z</time>
  <course>220.28</course>
  <speed>25.065603922507034</speed>
  <fix>3d</fix>
</trkpt>
<trkpt lat="-35.2748013" lon="148.9853241">
  <ele>700.35</ele>
  <time>2026-09-01T20:00:09Z</time>
  <course>223.1</course>
  <speed>24.84</speed>
  <fix>3d</fix>
</trkpt>
<trkpt lat="-35.274851" lon="148.9852753">
  <ele>699.55</ele>
  <time>2026-09-01T20:00:09Z</time>
  <course>217.87</course>
  <speed>25.208310137730372</speed>
  <fix>3d</fix>
</trkpt>
<trkpt lat="-35.2748013" lon="148.9853241">
  <ele>700.35</ele>
  <time>2026-09-01T20:00:09Z</time>
  <course>223.1</course>
  <speed>24.84</speed>
  <fix>3d</fix>
</trkpt>
<trkpt lat="-35.2748697" lon="148.9852595">
  <ele>699.31</ele>
  <time>2026-09-01T20:00:09Z</time>
  <course>215.52</course>
  <speed>25.337002585152018</speed>
  <fix>3d</fix>
</trkpt>
<trkpt lat="-35.2748354" lon="148.9852884">
  <ele>699.88</ele>
  <time>2026-09-01T20:00:09Z</time>
  <course>217.96</course>
  <speed>25.12</speed>
  <fix>3d</fix>
</trkpt>
<trkpt lat="-35.274889" lon="148.9852446">
  <ele>699.07</ele>
  <time>2026-09-01T20:00:09Z</time>
  <course>213.17</course>
  <speed>25.457372213172356</speed>
  <fix>3d</fix>
</trkpt>
<trkpt lat="-35.2748354" lon="148.9852884">
  <ele>699.88</ele>
  <time>2026-09-01T20:00:09Z</time>
  <course>217.96</course>
  <speed>25.12</speed>
  <fix>3d</fix>
</trkpt>
<trkpt lat="-35.2749089" lon="148.9852306">
  <ele>698.81</ele>
  <time>2026-09-01T20:00:09Z</time>
  <course>210.9</course>
  <speed>25.57714604876783</speed>
  <fix>3d</fix>
</trkpt>
<trkpt lat="-35.2748723" lon="148.9852562">
  <ele>699.39</ele>
  <time>2026-09-01T20:00:09Z</time>
  <course>213.02</course>
  <speed>25.38</speed>
  <fix>3d</fix>
</trkpt>
<trkpt lat="-35.2749293" lon="148.9852176">
  <ele>698.56</ele>
  <time>2026-09-01T20:00:09Z</time>
  <course>208.72</course>
  <speed>25.68834755292757</speed>
  <fix>3d</fix>
</trkpt>
<trkpt lat="-35.2748723" lon="148.9852562">
  <ele>699.39</ele>
  <time>2026-09-01T20:00:09Z</time>
  <course>213.02</course>
  <speed>25.38</speed>
  <fix>3d</fix>
</trkpt>
<trkpt lat="-35.2749501" lon="148.9852054">
  <ele>698.3</ele>
  <time>2026-09-01T20:00:09Z</time>
  <course>206.58</course>
  <speed>25.802015425156227</speed>
  <fix>3d</fix>
</trkpt>
<trkpt lat="-35.2749117" lon="148.9852276">
  <ele>698.89</ele>
  <time>2026-09-01T20:00:09Z</time>
  <course>208.33</course>
  <speed>25.63</speed>
  <fix>3d</fix>
</trkpt>
<trkpt lat="-35.2749715" lon="148.9851942">
  <ele>698.04</ele>
  <time>2026-09-01T20:00:09Z</time>
  <course>204.54</course>
  <speed>25.906433563885248</speed>
  <fix>3d</fix>
</trkpt>
<trkpt lat="-35.2749117" lon="148.9852276">
  <ele>698.89</ele>
  <time>2026-09-01T20:00:09Z</time>
  <course>208.33</course>
  <speed>25.63</speed>
  <fix>3d</fix>
</trkpt>
<trkpt lat="-35.2749932" lon="148.9851839">
  <ele>697.79</ele>
  <time>2026-09-01T20:00:09Z</time>
  <course>202.6</course>
  <speed>26.00580896645978</speed>
  <fix>3d</fix>
</trkpt>
<trkpt lat="-35.2749532" lon="148.9852028">
  <ele>698.38</ele>
  <time>2026-09-01T20:00:09Z</time>
  <course>203.89</course>
  <speed>25.85</speed>
  <fix>3d</fix>
</trkpt>
<trkpt lat="-35.2750153" lon="148.9851745">
  <ele>697.53</ele>
  <time>2026-09-01T20:00:09Z</time>
  <course>200.72</course>
  <speed>26.102325566891544</speed>
  <fix>3d</fix>
</trkpt>
<trkpt lat="-35.2749532" lon="148.9852028">
  <ele>698.38</ele>
  <time>2026-09-01T20:00:09Z</time>
  <course>203.89</course>
  <speed>25.85</speed>
  <fix>3d</fix>
</trkpt>
<trkpt lat="-35.2750377" lon="148.985166">
  <ele>697.26</ele>
  <time>2026-09-01T20:00:09Z</time>
  <course>198.92</course>
  <speed>26.186507976437028</speed>
  <fix>3d</fix>
</trkpt>
<trkpt lat="-35.2749965" lon="148.9851815">
  <ele>697.87</ele>
  <time>2026-09-01T20:00:09Z</time>
  <course>199.73</course>
  <speed>26.05</speed>
  <fix>3d</fix>
</trkpt>
<trkpt lat="-35.2750605" lon="148.9851583">
  <ele>697.0</ele>
  <time>2026-09-01T20:00:09Z</time>
  <course>197.13</course>
  <speed>26.276636009961397</speed>
  <fix>3d</fix>
</trkpt>
<trkpt lat="-35.2749965" lon="148.9851815">
  <ele>697.87</ele>
  <time>2026-09-01T20:00:09Z</time>
  <course>199.73</course>
  <speed>26.05</speed>
  <fix>3d</fix>
</trkpt>
<trkpt lat="-35.2750834" lon="148.9851515">
  <ele>696.74</ele>
  <time>2026-09-01T20:00:09Z</time>
  <course>195.46</course>
  <speed>26.34514376502812</speed>
  <fix>3d</fix>
</trkpt>
<trkpt lat="-35.2750412" lon="148.985164">
  <ele>697.35</ele>
  <time>2026-09-01T20:00:09Z</time>
  <course>195.9</course>
  <speed>26.24</speed>
  <fix>3d</fix>
</trkpt>
<trkpt lat="-35.2751066" lon="148.9851455">
  <ele>696.47</ele>
  <time>2026-09-01T20:00:09Z</time>
  <course>193.88</course>
  <speed>26.42508656561034</speed>
  <fix>3d</fix>
</trkpt>
<trkpt lat="-35.2750412" lon="148.985164">
  <ele>697.35</ele>
  <time>2026-09-01T20:00:09Z</time>
  <course>195.9</course>
  <speed>26.24</speed>
  <fix>3d</fix>
</trkpt>
<trkpt lat="-35.2751302" lon="148.9851402">
  <ele>696.2</ele>
  <time>2026-09-01T20:00:09Z</time>
  <course>192.42</course>
  <speed>26.489609283641766</speed>
  <fix>3d</fix>
</trkpt>
<trkpt lat="-35.2750871" lon="148.9851498">
  <ele>696.82</ele>
  <time>2026-09-01T20:00:09Z</time>
  <course>192.39</course>
  <speed>26.41</speed>
  <fix>3d</fix>
</trkpt>
<trkpt lat="-35.2751537" lon="148.9851357">
  <ele>695.94</ele>
  <time>2026-09-01T20:00:09Z</time>
  <course>191.06</course>
  <speed>26.540582133781466</speed>
  <fix>3d</fix>
</trkpt>
<trkpt lat="-35.2750871" lon="148.9851498">
  <ele>696.82</ele>
  <time>2026-09-01T20:00:09Z</time>
  <course>192.39</course>
  <speed>26.41</speed>
  <fix>3d</fix>
</trkpt>
<trkpt lat="-35.2751774" lon="148.9851319">
  <ele>695.67</ele>
  <time>2026-09-01T20:00:09Z</time>
  <course>189.68</course>
  <speed>26.550423725432328</speed>
  <fix>3d</fix>
</trkpt>
<trkpt lat="-35.2751338" lon="148.985139">
  <ele>696.29</ele>
  <time>2026-09-01T20:00:09Z</time>
  <course>189.24</course>
  <speed>26.54</speed>
  <fix>3d</fix>
</trkpt>
<trkpt lat="-35.2752011" lon="148.9851288">
  <ele>695.4</ele>
  <time>2026-09-01T20:00:09Z</time>
  <course>188.4</course>
  <speed>26.5299547681484</speed>
  <fix>3d</fix>
</trkpt>
<trkpt lat="-35.2751338" lon="148.985139">
  <ele>696.29</ele>
  <time>2026-09-01T20:00:09Z</time>
  <course>189.24</course>
  <speed>26.54</speed>
  <fix>3d</fix>
</trkpt>
<trkpt lat="-35.2752249" lon="148.9851263">
  <ele>695.13</ele>
  <time>2026-09-01T20:00:09Z</time>
  <course>187.05</course>
  <speed>26.52178349960651</speed>
  <fix>3d</fix>
</trkpt>
<trkpt lat="-35.2751812" lon="148.985131">
  <ele>695.76</ele>
  <time>2026-09-01T20:00:09Z</time>
  <course>186.45</course>
  <speed>26.6</speed>
  <fix>3d</fix>
</trkpt>
<trkpt lat="-35.2752487" lon="148.9851244">
  <ele>694.88</ele>
  <time>2026-09-01T20:00:09Z</time>
  <course>185.93</course>
  <speed>26.498613171258604</speed>
  <fix>3d</fix>
</trkpt>
<trkpt lat="-35.2751812" lon="148.985131">
  <ele>695.76</ele>
  <time>2026-09-01T20:00:09Z</time>
  <course>186.45</course>
  <speed>26.6</speed>
  <fix>3d</fix>
</trkpt>
<trkpt lat="-35.2752726" lon="148.985123">
  <ele>694.62</ele>
  <time>2026-09-01T20:00:09Z</time>
  <course>184.98</course>
  <speed>26.459667420434442</speed>
  <fix>3d</fix>
</trkpt>
<trkpt lat="-35.2752289" lon="148.9851257">
  <ele>695.23</ele>
  <time>2026-09-01T20:00:09Z</time>
  <course>183.97</course>
  <speed>26.58</speed>
  <fix>3d</fix>
</trkpt>
<trkpt lat="-35.2752964" lon="148.9851221">
  <ele>694.35</ele>
  <time>2026-09-01T20:00:09Z</time>
  <course>184.08</course>
  <speed>26.418497307757683</speed>
  <fix>3d</fix>
</trkpt>
<trkpt lat="-35.2752289" lon="148.9851257">
  <ele>695.23</ele>
  <time>2026-09-01T20:00:09Z</time>
  <course>183.97</course>
  <speed>26.58</speed>
  <fix>3d</fix>
</trkpt>
<trkpt lat="-35.2753201" lon="148.9851215">
  <ele>694.08</ele>
  <time>2026-09-01T20:00:10Z</time>
  <course>183.2</course>
  <speed>26.362458155490735</speed>
  <fix>3d</fix>
</trkpt>
<trkpt lat="-35.2752764" lon="148.9851227">
  <ele>694.7</ele>
  <time>2026-09-01T20:00:10Z</time>
  <course>181.98</course>
  <speed>26.52</speed>
  <fix>3d</fix>
</trkpt>
<trkpt lat="-35.2753439" lon="148.9851213">
  <ele>693.8</ele>
  <time>2026-09-01T20:00:10Z</time>
  <course>182.44</course>
  <speed>26.310121626476757</speed>
  <fix>3d</fix>
</trkpt>
<trkpt lat="-35.2752764" lon="148.9851227">
  <ele>694.7</ele>
  <time>2026-09-01T20:00:10Z</time>
  <course>181.98</course>
  <speed>26.52</speed>
  <fix>3d</fix>
</trkpt>
<trkpt lat="-35.2753676" lon="148.9851213">
  <ele>693.51</ele>
  <time>2026-09-01T20:00:10Z</time>
  <course>181.73</course>
  <speed>26.260550260799945</speed>
  <fix>3d</fix>
</trkpt>
<trkpt lat="-35.275324" lon="148.9851215">
  <ele>694.18</ele>
  <time>2026-09-01T20:00:10Z</time>
  <course>180.51</course>
  <speed>26.43</speed>
  <fix>3d</fix>
</trkpt>
<trkpt lat="-35.2753912" lon="148.9851216">
  <ele>693.22</ele>
  <time>2026-09-01T20:00:10Z</time>
  <course>181.1</course>
  <speed>26.2232053723415</speed>
  <fix>3d</fix>
</trkpt>
<trkpt lat="-35.275324" lon="148.9851215">
  <ele>694.18</ele>
  <time>2026-09-01T20:00:10Z</time>
  <course>180.51</course>
  <speed>26.43</speed>
  <fix>3d</fix>
</trkpt>
<trkpt lat="-35.2754149" lon="148.9851222">
  <ele>692.91</ele>
  <time>2026-09-01T20:00:10Z</time>
  <course>180.5</course>
  <speed>26.187821597070652</speed>
  <fix>3d</fix>
</trkpt>
<trkpt lat="-35.2753714" lon="148.9851216">
  <ele>693.63</ele>
  <time>2026-09-01T20:00:10Z</time>
  <course>179.33</course>
  <speed>26.32</speed>
  <fix>3d</fix>
</trkpt>
<trkpt lat="-35.2754385" lon="148.9851231">
  <ele>692.6</ele>
  <time>2026-09-01T20:00:10Z</time>
  <course>179.93</course>
  <speed>26.163810884502283</speed>
  <fix>3d</fix>
</trkpt>
<trkpt lat="-35.2753714" lon="148.9851216">
  <ele>693.63</ele>
  <time>2026-09-01T20:00:10Z</time>
  <course>179.33</course>
  <speed>26.32</speed>
  <fix>3d</fix>
</trkpt>
<trkpt lat="-35.2754621" lon="148.9851242">
  <ele>692.28</ele>
  <time>2026-09-01T20:00:10Z</time>
  <course>179.43</course>
  <speed>26.15108793148002</speed>
  <fix>3d</fix>
</trkpt>
<trkpt lat="-35.2754186" lon="148.9851227">
  <ele>693.04</ele>
  <time>2026-09-01T20:00:10Z</time>
  <course>178.31</course>
  <speed>26.24</speed>
  <fix>3d</fix>
</trkpt>
<trkpt lat="-35.2754857" lon="148.9851255">
  <ele>691.96</ele>
  <time>2026-09-01T20:00:10Z</time>
  <course>178.95</course>
  <speed>26.149416819500967</speed>
  <fix>3d</fix>
</trkpt>
<trkpt lat="-35.2754186" lon="148.9851227">
  <ele>693.04</ele>
  <time>2026-09-01T20:00:10Z</time>
  <course>178.31</course>
  <speed>26.24</speed>
  <fix>3d</fix>
</trkpt>
<trkpt lat="-35.2755092" lon="148.985127">
  <ele>691.64</ele>
  <time>2026-09-01T20:00:10Z</time>
  <course>178.46</course>
  <speed>26.14804390389461</speed>
  <fix>3d</fix>
</trkpt>
<trkpt lat="-35.2754657" lon="148.9851249">
  <ele>692.42</ele>
  <time>2026-09-01T20:00:10Z</time>
  <course>177.41</course>
  <speed>26.2</speed>
  <fix>3d</fix>
</trkpt>
<trkpt lat="-35.2755328" lon="148.9851287">
  <ele>691.32</ele>
  <time>2026-09-01T20:00:10Z</time>
  <course>178.0</course>
  <speed>26.157159631733716</speed>
  <fix>3d</fix>
</trkpt>
<trkpt lat="-35.2754657" lon="148.9851249">
  <ele>692.42</ele>
  <time>2026-09-01T20:00:10Z</time>
  <course>177.41</course>
  <speed>26.2</speed>
  <fix>3d</fix>
</trkpt>
<trkpt lat="-35.2755563" lon="148.9851306">
  <ele>691.01</ele>
  <time>2026-09-01T20:00:10Z</time>
  <course>177.57</course>
  <speed>26.17591450169411</speed>
  <fix>3d</fix>
</trkpt>
<trkpt lat="-35.2755126" lon="148.9851279">
  <ele>691.8</ele>
  <time>2026-09-01T20:00:10Z</time>
  <course>176.64</course>
  <speed>26.19</speed>
  <fix>3d</fix>
</trkpt>
<trkpt lat="-35.2755799" lon="148.9851326">
  <ele>690.7</ele>
  <time>2026-09-01T20:00:10Z</time>
  <course>177.16</course>
  <speed>26.19540799453217</speed>
  <fix>3d</fix>
</trkpt>
<trkpt lat="-35.2755126" lon="148.9851279">
  <ele>691.8</ele>
  <time>2026-09-01T20:00:10Z</time>
  <course>176.64</course>
  <speed>26.19</speed>
  <fix>3d</fix>
</trkpt>
<trkpt lat="-35.2756034" lon="148.9851348">
  <ele>690.4</ele>
  <time>2026-09-01T20:00:10Z</time>
  <course>176.79</course>
  <speed>26.224099603227565</speed>
  <fix>3d</fix>
</trkpt>
<trkpt lat="-35.2755596" lon="148.9851316">
  <ele>691.18</ele>
  <time>2026-09-01T20:00:10Z</time>
  <course>176.0</course>
  <speed>26.21</speed>
  <fix>3d</fix>
</trkpt>
<trkpt lat="-35.2756268" lon="148.9851371">
  <ele>690.11</ele>
  <time>2026-09-01T20:00:10Z</time>
  <course>176.54</course>
  <speed>26.253323599117884</speed>
  <fix>3d</fix>
</trkpt>
<trkpt lat="-35.2755596" lon="148.9851316">
  <ele>691.18</ele>
  <time>2026-09-01T20:00:10Z</time>
  <course>176.0</course>
  <speed>26.21</speed>
  <fix>3d</fix>
</trkpt>
<trkpt lat="-35.2756504" lon="148.9851396">
  <ele>689.83</ele>
  <time>2026-09-01T20:00:10Z</time>
  <course>176.28</course>
  <speed>26.291369306295174</speed>
  <fix>3d</fix>
</trkpt>
<trkpt lat="-35.2756066" lon="148.9851359">
  <ele>690.58</ele>
  <time>2026-09-01T20:00:10Z</time>
  <course>175.45</course>
  <speed>26.25</speed>
  <fix>3d</fix>
</trkpt>
<trkpt lat="-35.275674" lon="148.9851421">
  <ele>689.56</ele>
  <time>2026-09-01T20:00:10Z</time>
  <course>175.97</course>
  <speed>26.32890616793641</speed>
  <fix>3d</fix>
</trkpt>
<trkpt lat="-35.2756066" lon="148.9851359">
  <ele>690.58</ele>
  <time>2026-09-01T20:00:10Z</time>
  <course>175.45</course>
  <speed>26.25</speed>
  <fix>3d</fix>
</trkpt>
<trkpt lat="-35.2756976" lon="148.9851448">
  <ele>689.31</ele>
  <time>2026-09-01T20:00:10Z</time>
  <course>175.73</course>
  <speed>26.376690467153004</speed>
  <fix>3d</fix>
</trkpt>
<trkpt lat="-35.2756536" lon="148.9851407">
  <ele>690.02</ele>
  <time>2026-09-01T20:00:10Z</time>
  <course>175.01</course>
  <speed>26.32</speed>
  <fix>3d</fix>
</trkpt>
<trkpt lat="-35.2757215" lon="148.9851475">
  <ele>689.06</ele>
  <time>2026-09-01T20:00:10Z</time>
  <course>175.53</course>
  <speed>26.423826369396238</speed>
  <fix>3d</fix>
</trkpt>
<trkpt lat="-35.2756536" lon="148.9851407">
  <ele>690.02</ele>
  <time>2026-09-01T20:00:10Z</time>
  <course>175.01</course>
  <speed>26.32</speed>
  <fix>3d</fix>
</trkpt>
<trkpt lat="-35.2757454" lon="148.9851504">
  <ele>688.83</ele>
  <time>2026-09-01T20:00:10Z</time>
  <course>175.41</course>
  <speed>26.460272107444396</speed>
  <fix>3d</fix>
</trkpt>
<trkpt lat="-35.2757008" lon="148.9851459">
  <ele>689.5</ele>
  <time>2026-09-01T20:00:10Z</time>
  <course>174.65</course>
  <speed>26.4</speed>
  <fix>3d</fix>
</trkpt>
<trkpt lat="-35.2757691" lon="148.9851533">
  <ele>688.61</ele>
  <time>2026-09-01T20:00:10Z</time>
  <course>175.24</course>
  <speed>26.505863502251724</speed>
  <fix>3d</fix>
</trkpt>
<trkpt lat="-35.2757008" lon="148.9851459">
  <ele>689.5</ele>
  <time>2026-09-01T20:00:10Z</time>
  <course>174.65</course>
  <speed>26.4</speed>
  <fix>3d</fix>
</trkpt>
<trkpt lat="-35.2757929" lon="148.9851562">
  <ele>688.4</ele>
  <time>2026-09-01T20:00:10Z</time>
  <course>175.13</course>
  <speed>26.55058003132888</speed>
  <fix>3d</fix>
</trkpt>
<trkpt lat="-35.2757482" lon="148.9851515">
  <ele>689.04</ele>
  <time>2026-09-01T20:00:10Z</time>
  <course>174.37</course>
  <speed>26.49</speed>
  <fix>3d</fix>
</trkpt>
<trkpt lat="-35.2758167" lon="148.9851592">
  <ele>688.21</ele>
  <time>2026-09-01T20:00:10Z</time>
  <course>175.04</course>
  <speed>26.59336759419536</speed>
  <fix>3d</fix>
</trkpt>
<trkpt lat="-35.2757482" lon="148.9851515">
  <ele>689.04</ele>
  <time>2026-09-01T20:00:10Z</time>
  <course>174.37</course>
  <speed>26.49</speed>
  <fix>3d</fix>
</trkpt>
<trkpt lat="-35.2758405" lon="148.9851623">
  <ele>688.03</ele>
  <time>2026-09-01T20:00:10Z</time>
  <course>174.91</course>
  <speed>26.637192044207662</speed>
  <fix>3d</fix>
</trkpt>
<trkpt lat="-35.2757957" lon="148.9851573">
  <ele>688.62</ele>
  <time>2026-09-01T20:00:10Z</time>
  <course>174.18</course>
  <speed>26.58</speed>
  <fix>3d</fix>
</trkpt>
<trkpt lat="-35.2758644" lon="148.9851653">
  <ele>687.86</ele>
  <time>2026-09-01T20:00:10Z</time>
  <course>174.87</course>
  <speed>26.67901797293146</speed>
  <fix>3d</fix>
</trkpt>
<trkpt lat="-35.2757957" lon="148.9851573">
  <ele>688.62</ele>
  <time>2026-09-01T20:00:10Z</time>
  <course>174.18</course>
  <speed>26.58</speed>
  <fix>3d</fix>
</trkpt>
<trkpt lat="-35.2758883" lon="148.9851684">
  <ele>687.71</ele>
  <time>2026-09-01T20:00:10Z</time>
  <course>174.82</course>
  <speed>26.720853279788802</speed>
  <fix>3d</fix>
</trkpt>
<trkpt lat="-35.2758433" lon="148.9851633">
  <ele>688.25</ele>
  <time>2026-09-01T20:00:10Z</time>
  <course>174.06</course>
  <speed>26.67</speed>
  <fix>3d</fix>
</trkpt>
<trkpt lat="-35.2759122" lon="148.9851715">
  <ele>687.57</ele>
  <time>2026-09-01T20:00:10Z</time>
  <course>174.73</course>
  <speed>26.761668483112185</speed>
  <fix>3d</fix>
</trkpt>
<trkpt lat="-35.2758433" lon="148.9851633">
  <ele>688.25</ele>
  <time>2026-09-01T20:00:10Z</time>
  <course>174.06</course>
  <speed>26.67</speed>
  <fix>3d</fix>
</trkpt>
<trkpt lat="-35.2759361" lon="148.9851746">
  <ele>687.45</ele>
  <time>2026-09-01T20:00:10Z</time>
  <course>174.71</course>
  <speed>26.792538140310636</speed>
  <fix>3d</fix>
</trkpt>
<trkpt lat="-35.275891" lon="148.9851694">
  <ele>687.94</ele>
  <time>2026-09-01T20:00:10Z</time>
  <course>174.0</course>
  <speed>26.75</speed>
  <fix>3d</fix>
</trkpt>
<trkpt lat="-35.2759601" lon="148.9851777">
  <ele>687.33</ele>
  <time>2026-09-01T20:00:10Z</time>
  <course>174.74</course>
  <speed>26.82237871628838</speed>
  <fix>3d</fix>
</trkpt>
<trkpt lat="-35.275891" lon="148.9851694">
  <ele>687.94</ele>
  <time>2026-09-01T20:00:10Z</time>
  <course>174.0</course>
  <speed>26.75</speed>
  <fix>3d</fix>
</trkpt>
<trkpt lat="-35.2759841" lon="148.9851808">
  <ele>687.23</ele>
  <time>2026-09-01T20:00:10Z</time>
  <course>174.76</course>
  <speed>26.852219647544967</speed>
  <fix>3d</fix>
</trkpt>
<trkpt lat="-35.2759388" lon="148.9851756">
  <ele>687.68</ele>
  <time>2026-09-01T20:00:10Z</time>
  <course>174.0</course>
  <speed>26.82</speed>
  <fix>3d</fix>
</trkpt>
<trkpt lat="-35.2760081" lon="148.9851839">
  <ele>687.14</ele>
  <time>2026-09-01T20:00:10Z</time>
  <course>174.69</course>
  <speed>26.881036066342386</speed>
  <fix>3d</fix>
</trkpt>
<trkpt lat="-35.2759388" lon="148.9851756">
  <ele>687.68</ele>
  <time>2026-09-01T20:00:10Z</time>
  <course>174.0</course>
  <speed>26.82</speed>
  <fix>3d</fix>
</trkpt>
<trkpt lat="-35.2760322" lon="148.985187">
  <ele>687.06</ele>
  <time>2026-09-01T20:00:10Z</time>
  <course>174.7</course>
  <speed>26.90093121064771</speed>
  <fix>3d</fix>
</trkpt>
<trkpt lat="-35.2759868" lon="148.9851818">
  <ele>687.46</ele>
  <time>2026-09-01T20:00:10Z</time>
  <course>174.02</course>
  <speed>26.89</speed>
  <fix>3d</fix>
</trkpt>
<trkpt lat="-35.2760563" lon="148.9851901">
  <ele>687.0</ele>
  <time>2026-09-01T20:00:10Z</time>
  <course>174.76</course>
  <speed>26.91980683437383</speed>
  <fix>3d</fix>
</trkpt>
<trkpt lat="-35.2759868" lon="148.9851818">
  <ele>687.46</ele>
  <time>2026-09-01T20:00:10Z</time>
  <course>174.02</course>
  <speed>26.89</speed>
  <fix>3d</fix>
</trkpt>
<trkpt lat="-35.2760803" lon="148.9851931">
  <ele>686.94</ele>
  <time>2026-09-01T20:00:10Z</time>
  <course>174.77</course>
  <speed>26.929754919048186</speed>
  <fix>3d</fix>
</trkpt>
<trkpt lat="-35.2760349" lon="148.9851879">
  <ele>687.29</ele>
  <time>2026-09-01T20:00:10Z</time>
  <course>174.07</course>
  <speed>26.94</speed>
  <fix>3d</fix>
</trkpt>
<trkpt lat="-35.2761044" lon="148.9851962">
  <ele>686.89</ele>
  <time>2026-09-01T20:00:10Z</time>
  <course>174.82</course>
  <speed>26.938687792838017</speed>
  <fix>3d</fix>
</trkpt>
<trkpt lat="-35.2760349" lon="148.9851879">
  <ele>687.29</ele>
  <time>2026-09-01T20:00:10Z</time>
  <course>174.07</course>
  <speed>26.94</speed>
  <fix>3d</fix>
</trkpt>
<trkpt lat="-35.2761283" lon="148.9851992">
  <ele>686.85</ele>
  <time>2026-09-01T20:00:10Z</time>
  <course>174.88</course>
  <speed>26.9466175985039</speed>
  <fix>3d</fix>
</trkpt>
<trkpt lat="-35.276083" lon="148.985194">
  <ele>687.17</ele>
  <time>2026-09-01T20:00:10Z</time>
  <course>174.12</course>
  <speed>26.97</speed>
  <fix>3d</fix>
</trkpt>
<trkpt lat="-35.2761524" lon="148.9852022">
  <ele>686.82</ele>
  <time>2026-09-01T20:00:10Z</time>
  <course>174.87</course>
  <speed>26.95556343317646</speed>
  <fix>3d</fix>
</trkpt>
<trkpt lat="-35.276083" lon="148.985194">
  <ele>687.17</ele>
  <time>2026-09-01T20:00:10Z</time>
  <course>174.12</course>
  <speed>26.97</speed>
  <fix>3d</fix>
</trkpt>
<trkpt lat="-35.2761766" lon="148.9852052">
  <ele>686.79</ele>
  <time>2026-09-01T20:00:10Z</time>
  <course>174.83</course>
  <speed>26.964513717106044</speed>
  <fix>3d</fix>
</trkpt>
<trkpt lat="-35.2761313" lon="148.9852">
  <ele>687.08</ele>
  <time>2026-09-01T20:00:10Z</time>
  <course>174.2</course>
  <speed>26.99</speed>
  <fix>3d</fix>
</trkpt>
<trkpt lat="-35.2762007" lon="148.9852082">
  <ele>686.78</ele>
  <time>2026-09-01T20:00:10Z</time>
  <course>174.82</course>
  <speed>26.962525846070136</speed>
  <fix>3d</fix>
</trkpt>
<trkpt lat="-35.2761313" lon="148.9852">
  <ele>687.08</ele>
  <time>2026-09-01T20:00:10Z</time>
  <course>174.2</course>
  <speed>26.99</speed>
  <fix>3d</fix>
</trkpt>
<trkpt lat="-35.2762251" lon="148.9852112">
  <ele>686.77</ele>
  <time>2026-09-01T20:00:10Z</time>
  <course>174.94</course>
  <speed>26.961537419071636</speed>
  <fix>3d</fix>
</trkpt>
<trkpt lat="-35.2761796" lon="148.985206">
  <ele>687.03</ele>
  <time>2026-09-01T20:00:10Z</time>
  <course>174.27</course>
  <speed>27.01</speed>
  <fix>3d</fix>
</trkpt>
<trkpt lat="-35.2762492" lon="148.9852142">
  <ele>686.76</ele>
  <time>2026-09-01T20:00:10Z</time>
  <course>175.04</course>
  <speed>26.95957158413316</speed>
  <fix>3d</fix>
</trkpt>
<trkpt lat="-35.2761796" lon="148.985206">
  <ele>687.03</ele>
  <time>2026-09-01T20:00:10Z</time>
  <course>174.27</course>
  <speed>27.01</speed>
  <fix>3d</fix>
</trkpt>
<trkpt lat="-35.2762734" lon="148.9852171">
  <ele>686.76</ele>
  <time>2026-09-01T20:00:10Z</time>
  <course>175.08</course>
  <speed>26.958594176996694</speed>
  <fix>3d</fix>
</trkpt>
<trkpt lat="-35.276228" lon="148.9852119">
  <ele>687.0</ele>
  <time>2026-09-01T20:00:10Z</time>
  <course>174.34</course>
  <speed>27.01</speed>
  <fix>3d</fix>
</trkpt>
<trkpt lat="-35.2762983" lon="148.9852201">
  <ele>686.77</ele>
  <time>2026-09-01T20:00:10Z</time>
  <course>175.1</course>
  <speed>26.946697385765106</speed>
  <fix>3d</fix>
</trkpt>
<trkpt lat="-35.276228" lon="148.9852119">
  <ele>687.0</ele>
  <time>2026-09-01T20:00:10Z</time>
  <course>174.34</course>
  <speed>27.01</speed>
  <fix>3d</fix>
</trkpt>
<trkpt lat="-35.2763222" lon="148.985223">
  <ele>686.79</ele>
  <time>2026-09-01T20:00:10Z</time>
  <course>175.14</course>
  <speed>26.9348139031997</speed>
  <fix>3d</fix>
</trkpt>
<trkpt lat="-35.2762763" lon="148.9852177">
  <ele>686.99</ele>
  <time>2026-09-01T20:00:10Z</time>
  <course>174.41</course>
  <speed>27.0</speed>
  <fix>3d</fix>
</trkpt>
<trkpt lat="-35.2763463" lon="148.9852258">
  <ele>686.81</ele>
  <time>2026-09-01T20:00:10Z</time>
  <course>175.1</course>
  <speed>26.913946198950462</speed>
  <fix>3d</fix>
</trkpt>
<trkpt lat="-35.2762763" lon="148.9852177">
  <ele>686.99</ele>
  <time>2026-09-01T20:00:10Z</time>
  <course>174.41</course>
  <speed>27.0</speed>
  <fix>3d</fix>
</trkpt>
<trkpt lat="-35.2763705" lon="148.9852287">
  <ele>686.84</ele>
  <time>2026-09-01T20:00:10Z</time>
  <course>175.09</course>
  <speed>26.90208170383846</speed>
  <fix>3d</fix>
</trkpt>
<trkpt lat="-35.2763245" lon="148.9852235">
  <ele>687.01</ele>
  <time>2026-09-01T20:00:10Z</time>
  <course>174.49</course>
  <speed>26.98</speed>
  <fix>3d</fix>
</trkpt>
<trkpt lat="-35.2763945" lon="148.9852315">
  <ele>686.87</ele>
  <time>2026-09-01T20:00:10Z</time>
  <course>175.14</course>
  <speed>26.89023056799625</speed>
  <fix>3d</fix>
</trkpt>
<trkpt lat="-35.2763245" lon="148.9852235">
  <ele>687.01</ele>
  <time>2026-09-01T20:00:10Z</time>
  <course>174.49</course>
  <speed>26.98</speed>
  <fix>3d</fix>
</trkpt>
<trkpt lat="-35.2764182" lon="148.9852343">
  <ele>686.9</ele>
  <time>2026-09-01T20:00:10Z</time>
  <course>175.22</course>
  <speed>26.86937662097876</speed>
  <fix>3d</fix>
</trkpt>
<trkpt lat="-35.2763728" lon="148.9852291">
  <ele>687.05</ele>
  <time>2026-09-01T20:00:10Z</time>
  <course>174.57</course>
  <speed>26.95</speed>
  <fix>3d</fix>
</trkpt>
<trkpt lat="-35.2764423" lon="148.985237">
  <ele>686.93</ele>
  <time>2026-09-01T20:00:10Z</time>
  <course>175.24</course>
  <speed>26.848525099155818</speed>
  <fix>3d</fix>
</trkpt>
<trkpt lat="-35.2763728" lon="148.9852291">
  <ele>687.05</ele>
  <time>2026-09-01T20:00:10Z</time>
  <course>174.57</course>
  <speed>26.95</speed>
  <fix>3d</fix>
</trkpt>
<trkpt lat="-35.2764662" lon="148.9852398">
  <ele>686.96</ele>
  <time>2026-09-01T20:00:10Z</time>
  <course>175.34</course>
  <speed>26.826742254698015</speed>
  <fix>3d</fix>
</trkpt>
<trkpt lat="-35.2764209" lon="148.9852347">
  <ele>687.11</ele>
  <time>2026-09-01T20:00:10Z</time>
  <course>174.63</course>
  <speed>26.92</speed>
  <fix>3d</fix>
</trkpt>
<trkpt lat="-35.2764902" lon="148.9852425">
  <ele>687.0</ele>
  <time>2026-09-01T20:00:10Z</time>
  <course>175.37</course>
  <speed>26.805898604598205</speed>
  <fix>3d</fix>
</trkpt>
<trkpt lat="-35.2764209" lon="148.9852347">
  <ele>687.11</ele>
  <time>2026-09-01T20:00:10Z</time>
  <course>174.63</course>
  <speed>26.92</speed>
  <fix>3d</fix>
</trkpt>
<trkpt lat="-35.276514" lon="148.9852453">
  <ele>687.03</ele>
  <time>2026-09-01T20:00:10Z</time>
  <course>175.35</course>
  <speed>26.774175991055262</speed>
  <fix>3d</fix>
</trkpt>
<trkpt lat="-35.276469" lon="148.9852402">
  <ele>687.17</ele>
  <time>2026-09-01T20:00:10Z</time>
  <course>174.69</course>
  <speed>26.88</speed>
  <fix>3d</fix>
</trkpt>
<trkpt lat="-35.2765378" lon="148.985248">
  <ele>687.07</ele>
  <time>2026-09-01T20:00:10Z</time>
  <course>175.35</course>
  <speed>26.752422320231116</speed>
  <fix>3d</fix>
</trkpt>
<trkpt lat="-35.276469" lon="148.9852402">
  <ele>687.17</ele>
  <time>2026-09-01T20:00:10Z</time>
  <course>174.69</course>
  <speed>26.88</speed>
  <fix>3d</fix>
</trkpt>
<trkpt lat="-35.2765616" lon="148.9852506">
  <ele>687.11</ele>
  <time>2026-09-01T20:00:10Z</time>
  <course>175.39</course>
  <speed>26.721633557849714</speed>
  <fix>3d</fix>
</trkpt>
<trkpt lat="-35.276517" lon="148.9852457">
  <ele>687.23</ele>
  <time>2026-09-01T20:00:10Z</time>
  <course>174.75</course>
  <speed>26.84</speed>
  <fix>3d</fix>
</trkpt>
<trkpt lat="-35.2765854" lon="148.9852533">
  <ele>687.14</ele>
  <time>2026-09-01T20:00:10Z</time>
  <course>175.45</course>
  <speed>26.690846745654213</speed>
  <fix>3d</fix>
</trkpt>
<trkpt lat="-35.276517" lon="148.9852457">
  <ele>687.23</ele>
  <time>2026-09-01T20:00:10Z</time>
  <course>174.75</course>
  <speed>26.84</speed>
  <fix>3d</fix>
</trkpt>
<trkpt lat="-35.276609" lon="148.9852559">
  <ele>687.17</ele>
  <time>2026-09-01T20:00:10Z</time>
  <course>175.55</course>
  <speed>26.659156025650923</speed>
  <fix>3d</fix>
</trkpt>
<trkpt lat="-35.276565" lon="148.985251">
  <ele>687.3</ele>
  <time>2026-09-01T20:00:10Z</time>
  <course>174.8</course>
  <speed>26.79</speed>
  <fix>3d</fix>
</trkpt>
<trkpt lat="-35.2766327" lon="148.9852586">
  <ele>687.21</ele>
  <time>2026-09-01T20:00:10Z</time>
  <course>175.6</course>
  <speed>26.62837584232279</speed>
  <fix>3d</fix>
</trkpt>
<trkpt lat="-35.276565" lon="148.985251">
  <ele>687.3</ele>
  <time>2026-09-01T20:00:10Z</time>
  <course>174.8</course>
  <speed>26.79</speed>
  <fix>3d</fix>
</trkpt>
<trkpt lat="-35.2766565" lon="148.9852612">
  <ele>687.25</ele>
  <time>2026-09-01T20:00:10Z</time>
  <course>175.63</course>
  <speed>26.606660820178096</speed>
  <fix>3d</fix>
</trkpt>
<trkpt lat="-35.2766129" lon="148.9852563">
  <ele>687.37</ele>
  <time>2026-09-01T20:00:10Z</time>
  <course>174.85</course>
  <speed>26.75</speed>
  <fix>3d</fix>
</trkpt>
<trkpt lat="-35.2766802" lon="148.9852638">
  <ele>687.28</ele>
  <time>2026-09-01T20:00:10Z</time>
  <course>175.67</course>
  <speed>26.575887567492455</speed>
  <fix>3d</fix>
</trkpt>
<trkpt lat="-35.2766129" lon="148.9852563">
  <ele>687.37</ele>
  <time>2026-09-01T20:00:10Z</time>
  <course>174.85</course>
  <speed>26.75</speed>
  <fix>3d</fix>
</trkpt>
<trkpt lat="-35.276704" lon="148.9852663">
  <ele>687.31</ele>
  <time>2026-09-01T20:00:10Z</time>
  <course>175.7</course>
  <speed>26.554189876552435</speed>
  <fix>3d</fix>
</trkpt>
<trkpt lat="-35.2766608" lon="148.9852616">
  <ele>687.44</ele>
  <time>2026-09-01T20:00:10Z</time>
  <course>174.91</course>
  <speed>26.7</speed>
  <fix>3d</fix>
</trkpt>
<trkpt lat="-35.2767279" lon="148.9852689">
  <ele>687.34</ele>
  <time>2026-09-01T20:00:10Z</time>
  <course>175.71</course>
  <speed>26.52254324155208</speed>
  <fix>3d</fix>
</trkpt>
<trkpt lat="-35.2766608" lon="148.9852616">
  <ele>687.44</ele>
  <time>2026-09-01T20:00:10Z</time>
  <course>174.91</course>
  <speed>26.7</speed>
  <fix>3d</fix>
</trkpt>
<trkpt lat="-35.2767516" lon="148.9852714">
  <ele>687.37</ele>
  <time>2026-09-01T20:00:10Z</time>
  <course>175.71</course>
  <speed>26.500869797046285</speed>
  <fix>3d</fix>
</trkpt>
<trkpt lat="-35.2767087" lon="148.9852667">
  <ele>687.5</ele>
  <time>2026-09-01T20:00:10Z</time>
  <course>174.97</course>
  <speed>26.66</speed>
  <fix>3d</fix>
</trkpt>
<trkpt lat="-35.2767753" lon="148.985274">
  <ele>687.4</ele>
  <time>2026-09-01T20:00:10Z</time>
  <course>175.68</course>
  <speed>26.479208825038558</speed>
  <fix>3d</fix>
</trkpt>
<trkpt lat="-35.2767087" lon="148.9852667">
  <ele>687.5</ele>
  <time>2026-09-01T20:00:10Z</time>
  <course>174.97</course>
  <speed>26.66</speed>
  <fix>3d</fix>
</trkpt>
<trkpt lat="-35.2767998" lon="148.9852765">
  <ele>687.43</ele>
  <time>2026-09-01T20:00:10Z</time>
  <course>175.74</course>
  <speed>26.458420209831125</speed>
  <fix>3d</fix>
</trkpt>
<trkpt lat="-35.2767563" lon="148.9852718">
  <ele>687.55</ele>
  <time>2026-09-01T20:00:10Z</time>
  <course>175.04</course>
  <speed>26.61</speed>
  <fix>3d</fix>
</trkpt>
<trkpt lat="-35.2768233" lon="148.985279">
  <ele>687.46</ele>
  <time>2026-09-01T20:00:10Z</time>
  <course>175.8</course>
  <speed>26.436777413293022</speed>
  <fix>3d</fix>
</trkpt>
<trkpt lat="-35.2767563" lon="148.9852718">
  <ele>687.55</ele>
  <time>2026-09-01T20:00:10Z</time>
  <course>175.04</course>
  <speed>26.61</speed>
  <fix>3d</fix>
</trkpt>
<trkpt lat="-35.276847" lon="148.9852815">
  <ele>687.48</ele>
  <time>2026-09-01T20:00:10Z</time>
  <course>175.81</course>
  <speed>26.415997047243927</speed>
  <fix>3d</fix>
</trkpt>
<trkpt lat="-35.2768039" lon="148.9852768">
  <ele>687.61</ele>
  <time>2026-09-01T20:00:10Z</time>
  <course>175.1</course>
  <speed>26.57</speed>
  <fix>3d</fix>
</trkpt>
<trkpt lat="-35.2768706" lon="148.9852839">
  <ele>687.51</ele>
  <time>2026-09-01T20:00:10Z</time>
  <course>175.83</course>
  <speed>26.3952192641016</speed>
  <fix>3d</fix>
</trkpt>
<trkpt lat="-35.2768039" lon="148.9852768">
  <ele>687.61</ele>
  <time>2026-09-01T20:00:10Z</time>
  <course>175.1</course>
  <speed>26.57</speed>
  <fix>3d</fix>
</trkpt>
<trkpt lat="-35.2768943" lon="148.9852864">
  <ele>687.53</ele>
  <time>2026-09-01T20:00:10Z</time>
  <course>175.86</course>
  <speed>26.37444406997046</speed>
  <fix>3d</fix>
</trkpt>
<trkpt lat="-35.2768514" lon="148.9852818">
  <ele>687.66</ele>
  <time>2026-09-01T20:00:10Z</time>
  <course>175.15</course>
  <speed>26.53</speed>
  <fix>3d</fix>
</trkpt>
<trkpt lat="-35.2769181" lon="148.9852888">
  <ele>687.56</ele>
  <time>2026-09-01T20:00:10Z</time>
  <course>175.92</course>
  <speed>26.35283096746913</speed>
  <fix>3d</fix>
</trkpt>
<trkpt lat="-35.2768514" lon="148.9852818">
  <ele>687.66</ele>
  <time>2026-09-01T20:00:10Z</time>
  <course>175.15</course>
  <speed>26.53</speed>
  <fix>3d</fix>
</trkpt>
<trkpt lat="-35.2769417" lon="148.9852912">
  <ele>687.58</ele>
  <time>2026-09-01T20:00:10Z</time>
  <course>175.96</course>
  <speed>26.342029154945525</speed>
  <fix>3d</fix>
</trkpt>
<trkpt lat="-35.2768989" lon="148.9852867">
  <ele>687.7</ele>
  <time>2026-09-01T20:00:10Z</time>
  <course>175.2</course>
  <speed>26.49</speed>
  <fix>3d</fix>
</trkpt>
<trkpt lat="-35.2769654" lon="148.9852936">
  <ele>687.6</ele>
  <time>2026-09-01T20:00:10Z</time>
  <course>176.01</course>
  <speed>26.320435026799995</speed>
  <fix>3d</fix>
</trkpt>
<trkpt lat="-35.2768989" lon="148.9852867">
  <ele>687.7</ele>
  <time>2026-09-01T20:00:10Z</time>
  <course>175.2</course>
  <speed>26.49</speed>
  <fix>3d</fix>
</trkpt>
<trkpt lat="-35.276989" lon="148.985296">
  <ele>687.62</ele>
  <time>2026-09-01T20:00:10Z</time>
  <course>176.06</course>
  <speed>26.309642718972828</speed>
  <fix>3d</fix>
</trkpt>
<trkpt lat="-35.2769463" lon="148.9852915">
  <ele>687.75</ele>
  <time>2026-09-01T20:00:10Z</time>
  <course>175.24</course>
  <speed>26.45</speed>
  <fix>3d</fix>
</trkpt>
<trkpt lat="-35.2770126" lon="148.9852984">
  <ele>687.64</ele>
  <time>2026-09-01T20:00:10Z</time>
  <course>176.07</course>
  <speed>26.288067635335995</speed>
  <fix>3d</fix>
</trkpt>
<trkpt lat="-35.2769463" lon="148.9852915">
  <ele>687.75</ele>
  <time>2026-09-01T20:00:10Z</time>
  <course>175.24</course>
  <speed>26.45</speed>
  <fix>3d</fix>
</trkpt>
<trkpt lat="-35.2770362" lon="148.9853007">
  <ele>687.65</ele>
  <time>2026-09-01T20:00:10Z</time>
  <course>176.11</course>
  <speed>26.277284867352638</speed>
  <fix>3d</fix>
</trkpt>
<trkpt lat="-35.2769936" lon="148.9852963">
  <ele>687.78</ele>
  <time>2026-09-01T20:00:10Z</time>
  <course>175.3</course>
  <speed>26.41</speed>
  <fix>3d</fix>
</trkpt>
<trkpt lat="-35.2770598" lon="148.985303">
  <ele>687.67</ele>
  <time>2026-09-01T20:00:10Z</time>
  <course>176.12</course>
  <speed>26.25653823336199</speed>
  <fix>3d</fix>
</trkpt>
<trkpt lat="-35.2769936" lon="148.9852963">
  <ele>687.78</ele>
  <time>2026-09-01T20:00:10Z</time>
  <course>175.3</course>
  <speed>26.41</speed>
  <fix>3d</fix>
</trkpt>
<trkpt lat="-35.2770828" lon="148.9853053">
  <ele>687.68</ele>
  <time>2026-09-01T20:00:10Z</time>
  <course>176.13</course>
  <speed>26.245761562583777</speed>
  <fix>3d</fix>
</trkpt>
<trkpt lat="-35.2770409" lon="148.985301">
  <ele>687.82</ele>
  <time>2026-09-01T20:00:10Z</time>
  <course>175.35</course>
  <speed>26.38</speed>
  <fix>3d</fix>
</trkpt>
<trkpt lat="-35.2771061" lon="148.9853076">
  <ele>687.7</ele>
  <time>2026-09-01T20:00:10Z</time>
  <course>176.14</course>
  <speed>26.234988088428782</speed>
  <fix>3d</fix>
</trkpt>
<trkpt lat="-35.2770409" lon="148.985301">
  <ele>687.82</ele>
  <time>2026-09-01T20:00:10Z</time>
  <course>175.35</course>
  <speed>26.38</speed>
  <fix>3d</fix>
</trkpt>
<trkpt lat="-35.2771297" lon="148.9853099">
  <ele>687.71</ele>
  <time>2026-09-01T20:00:10Z</time>
  <course>176.17</course>
  <speed>26.22421781483673</speed>
  <fix>3d</fix>
</trkpt>
<trkpt lat="-35.2770881" lon="148.9853057">
  <ele>687.85</ele>
  <time>2026-09-01T20:00:10Z</time>
  <course>175.39</course>
  <speed>26.34</speed>
  <fix>3d</fix>
</trkpt>
<trkpt lat="-35.2771533" lon="148.9853122">
  <ele>687.73</ele>
  <time>2026-09-01T20:00:10Z</time>
  <course>176.21</course>
  <speed>26.202686885126877</speed>
  <fix>3d</fix>
</trkpt>
<trkpt lat="-35.2770881" lon="148.9853057">
  <ele>687.85</ele>
  <time>2026-09-01T20:00:10Z</time>
  <course>175.39</course>
  <speed>26.34</speed>
  <fix>3d</fix>
</trkpt>
<trkpt lat="-35.2771769" lon="148.9853145">
  <ele>687.75</ele>
  <time>2026-09-01T20:00:10Z</time>
  <course>176.22</course>
  <speed>26.19271845379933</speed>
  <fix>3d</fix>
</trkpt>
<trkpt lat="-35.2771352" lon="148.9853104">
  <ele>687.88</ele>
  <time>2026-09-01T20:00:10Z</time>
  <course>175.43</course>
  <speed>26.31</speed>
  <fix>3d</fix>
</trkpt>
<trkpt lat="-35.2772006" lon="148.9853168">
  <ele>687.77</ele>
  <time>2026-09-01T20:00:10Z</time>
  <course>176.22</course>
  <speed>26.171988843035983</speed>
  <fix>3d</fix>
</trkpt>
<trkpt lat="-35.2771352" lon="148.9853104">
  <ele>687.88</ele>
  <time>2026-09-01T20:00:10Z</time>
  <course>175.43</course>
  <speed>26.31</speed>
  <fix>3d</fix>
</trkpt>
<trkpt lat="-35.2772242" lon="148.9853191">
  <ele>687.79</ele>
  <time>2026-09-01T20:00:10Z</time>
  <course>176.18</course>
  <speed>26.16202018193549</speed>
  <fix>3d</fix>
</trkpt>
<trkpt lat="-35.2771824" lon="148.9853149">
  <ele>687.92</ele>
  <time>2026-09-01T20:00:10Z</time>
  <course>175.46</course>
  <speed>26.28</speed>
  <fix>3d</fix>
</trkpt>
<trkpt lat="-35.2772477" lon="148.9853213">
  <ele>687.82</ele>
  <time>2026-09-01T20:00:10Z</time>
  <course>176.19</course>
  <speed>26.15205154476413</speed>
  <fix>3d</fix>
</trkpt>
<trkpt lat="-35.2771824" lon="148.9853149">
  <ele>687.92</ele>
  <time>2026-09-01T20:00:10Z</time>
  <course>175.46</course>
  <speed>26.28</speed>
  <fix>3d</fix>
</trkpt>
<trkpt lat="-35.277272" lon="148.9853237">
  <ele>687.84</ele>
  <time>2026-09-01T20:00:10Z</time>
  <course>176.25</course>
  <speed>26.141293005511415</speed>
  <fix>3d</fix>
</trkpt>
<trkpt lat="-35.2772295" lon="148.9853195">
  <ele>687.96</ele>
  <time>2026-09-01T20:00:10Z</time>
  <course>175.47</course>
  <speed>26.24</speed>
  <fix>3d</fix>
</trkpt>
<trkpt lat="-35.2772955" lon="148.985326">
  <ele>687.87</ele>
  <time>2026-09-01T20:00:10Z</time>
  <course>176.24</course>
  <speed>26.131324114939144</speed>
  <fix>3d</fix>
</trkpt>
<trkpt lat="-35.2772295" lon="148.9853195">
  <ele>687.96</ele>
  <time>2026-09-01T20:00:10Z</time>
  <course>175.47</course>
  <speed>26.24</speed>
  <fix>3d</fix>
</trkpt>
<trkpt lat="-35.2773189" lon="148.9853282">
  <ele>687.9</ele>
  <time>2026-09-01T20:00:10Z</time>
  <course>176.24</course>
  <speed>26.121355248148976</speed>
  <fix>3d</fix>
</trkpt>
<trkpt lat="-35.2772764" lon="148.985324">
  <ele>688.01</ele>
  <time>2026-09-01T20:00:10Z</time>
  <course>175.47</course>
  <speed>26.21</speed>
  <fix>3d</fix>
</trkpt>
<trkpt lat="-35.2773423" lon="148.9853305">
  <ele>687.94</ele>
  <time>2026-09-01T20:00:10Z</time>
  <course>176.25</course>
  <speed>26.101417586023945</speed>
  <fix>3d</fix>
</trkpt>
<trkpt lat="-35.2772764" lon="148.985324">
  <ele>688.01</ele>
  <time>2026-09-01T20:00:10Z</time>
  <course>175.47</course>
  <speed>26.21</speed>
  <fix>3d</fix>
</trkpt>
<trkpt lat="-35.2773658" lon="148.9853328">
  <ele>687.98</ele>
  <time>2026-09-01T20:00:10Z</time>
  <course>176.23</course>
  <speed>26.091448790743684</speed>
  <fix>3d</fix>
</trkpt>
<trkpt lat="-35.2773233" lon="148.9853287">
  <ele>688.07</ele>
  <time>2026-09-01T20:00:10Z</time>
  <course>175.46</course>
  <speed>26.17</speed>
  <fix>3d</fix>
</trkpt>
<trkpt lat="-35.2773892" lon="148.985335">
  <ele>688.02</ele>
  <time>2026-09-01T20:00:10Z</time>
  <course>176.19</course>
  <speed>26.07151127188449</speed>
  <fix>3d</fix>
</trkpt>
<trkpt lat="-35.2773233" lon="148.9853287">
  <ele>688.07</ele>
  <time>2026-09-01T20:00:10Z</time>
  <course>175.46</course>
  <speed>26.17</speed>
  <fix>3d</fix>
</trkpt>
<trkpt lat="-35.2774129" lon="148.9853373">
  <ele>688.06</ele>
  <time>2026-09-01T20:00:10Z</time>
  <course>176.2</course>
  <speed>26.061542548360407</speed>
  <fix>3d</fix>
</trkpt>
<trkpt lat="-35.2773701" lon="148.9853332">
  <ele>688.14</ele>
  <time>2026-09-01T20:00:10Z</time>
  <course>175.45</course>
  <speed>26.13</speed>
  <fix>3d</fix>
</trkpt>
<trkpt lat="-35.2774363" lon="148.9853396">
  <ele>688.1</ele>
  <time>2026-09-01T20:00:10Z</time>
  <course>176.19</course>
  <speed>26.041605173260727</speed>
  <fix>3d</fix>
</trkpt>
<trkpt lat="-35.2773701" lon="148.9853332">
  <ele>688.14</ele>
  <time>2026-09-01T20:00:10Z</time>
  <course>175.45</course>
  <speed>26.13</speed>
  <fix>3d</fix>
</trkpt>
<trkpt lat="-35.2774597" lon="148.9853419">
  <ele>688.15</ele>
  <time>2026-09-01T20:00:10Z</time>
  <course>176.19</course>
  <speed>26.031636521740232</speed>
  <fix>3d</fix>
</trkpt>
<trkpt lat="-35.2774169" lon="148.9853378">
  <ele>688.22</ele>
  <time>2026-09-01T20:00:10Z</time>
  <course>175.45</course>
  <speed>26.1</speed>
  <fix>3d</fix>
</trkpt>
<trkpt lat="-35.2774831" lon="148.9853442">
  <ele>688.19</ele>
  <time>2026-09-01T20:00:10Z</time>
  <course>176.21</course>
  <speed>26.020878155819414</speed>
  <fix>3d</fix>
</trkpt>
<trkpt lat="-35.2774169" lon="148.9853378">
  <ele>688.22</ele>
  <time>2026-09-01T20:00:10Z</time>
  <course>175.45</course>
  <speed>26.1</speed>
  <fix>3d</fix>
</trkpt>
<trkpt lat="-35.2775065" lon="148.9853464">
  <ele>688.23</ele>
  <time>2026-09-01T20:00:10Z</time>
  <course>176.25</course>
  <speed>26.010123029313032</speed>
  <fix>3d</fix>
</trkpt>
<trkpt lat="-35.2774636" lon="148.9853423">
  <ele>688.3</ele>
  <time>2026-09-01T20:00:10Z</time>
  <course>175.45</course>
  <speed>26.06</speed>
  <fix>3d</fix>
</trkpt>
<trkpt lat="-35.2775299" lon="148.9853487">
  <ele>688.28</ele>
  <time>2026-09-01T20:00:10Z</time>
  <course>176.25</course>
  <speed>26.000153845698684</speed>
  <fix>3d</fix>
</trkpt>
<trkpt lat="-35.2774636" lon="148.9853423">
  <ele>688.3</ele>
  <time>2026-09-01T20:00:10Z</time>
  <course>175.45</course>
  <speed>26.06</speed>
  <fix>3d</fix>
</trkpt>
<trkpt lat="-35.2775533" lon="148.9853509">
  <ele>688.32</ele>
  <time>2026-09-01T20:00:10Z</time>
  <course>176.19</course>
  <speed>25.990184685761662</speed>
  <fix>3d</fix>
</trkpt>
<trkpt lat="-35.2775103" lon="148.9853468">
  <ele>688.38</ele>
  <time>2026-09-01T20:00:10Z</time>
  <course>175.46</course>
  <speed>26.02</speed>
  <fix>3d</fix>
</trkpt>
<trkpt lat="-35.2775766" lon="148.9853532">
  <ele>688.37</ele>
  <time>2026-09-01T20:00:10Z</time>
  <course>176.2</course>
  <speed>25.98021554952922</speed>
  <fix>3d</fix>
</trkpt>
<trkpt lat="-35.2775103" lon="148.9853468">
  <ele>688.38</ele>
  <time>2026-09-01T20:00:10Z</time>
  <course>175.46</course>
  <speed>26.02</speed>
  <fix>3d</fix>
</trkpt>
<trkpt lat="-35.2776" lon="148.9853555">
  <ele>688.41</ele>
  <time>2026-09-01T20:00:10Z</time>
  <course>176.22</course>
  <speed>25.970246437028663</speed>
  <fix>3d</fix>
</trkpt>
<trkpt lat="-35.2775568" lon="148.9853513">
  <ele>688.47</ele>
  <time>2026-09-01T20:00:10Z</time>
  <course>175.46</course>
  <speed>25.99</speed>
  <fix>3d</fix>
</trkpt>
<trkpt lat="-35.2776233" lon="148.9853577">
  <ele>688.46</ele>
  <time>2026-09-01T20:00:10Z</time>
  <course>176.23</course>
  <speed>25.960277348287327</speed>
  <fix>3d</fix>
</trkpt>
<trkpt lat="-35.2775568" lon="148.9853513">
  <ele>688.47</ele>
  <time>2026-09-01T20:00:10Z</time>
  <course>175.46</course>
  <speed>25.99</speed>
  <fix>3d</fix>
</trkpt>
<trkpt lat="-35.2776466" lon="148.98536">
  <ele>688.5</ele>
  <time>2026-09-01T20:00:10Z</time>
  <course>176.24</course>
  <speed>25.95030828333259</speed>
  <fix>3d</fix>
</trkpt>
<trkpt lat="-35.2776033" lon="148.9853559">
  <ele>688.55</ele>
  <time>2026-09-01T20:00:10Z</time>
  <course>175.44</course>
  <speed>25.96</speed>
  <fix>3d</fix>
</trkpt>
<trkpt lat="-35.2776699" lon="148.9853622">
  <ele>688.54</ele>
  <time>2026-09-01T20:00:10Z</time>
  <course>176.27</course>
  <speed>25.940339242191882</speed>
  <fix>3d</fix>
</trkpt>
<trkpt lat="-35.2776033" lon="148.9853559">
  <ele>688.55</ele>
  <time>2026-09-01T20:00:10Z</time>
  <course>175.44</course>
  <speed>25.96</speed>
  <fix>3d</fix>
</trkpt>
<trkpt lat="-35.2776932" lon="148.9853645">
  <ele>688.59</ele>
  <time>2026-09-01T20:00:10Z</time>
  <course>176.24</course>
  <speed>25.930370224892663</speed>
  <fix>3d</fix>
</trkpt>
<trkpt lat="-35.2776499" lon="148.9853605">
  <ele>688.64</ele>
  <time>2026-09-01T20:00:10Z</time>
  <course>175.42</course>
  <speed>25.93</speed>
  <fix>3d</fix>
</trkpt>
<trkpt lat="-35.2777165" lon="148.9853668">
  <ele>688.63</ele>
  <time>2026-09-01T20:00:10Z</time>
  <course>176.17</course>
  <speed>25.920401231462446</speed>
  <fix>3d</fix>
</trkpt>
<trkpt lat="-35.2776499" lon="148.9853605">
  <ele>688.64</ele>
  <time>2026-09-01T20:00:10Z</time>
  <course>175.42</course>
  <speed>25.93</speed>
  <fix>3d</fix>
</trkpt>
<trkpt lat="-35.2777392" lon="148.985369">
  <ele>688.67</ele>
  <time>2026-09-01T20:00:10Z</time>
  <course>176.18</course>
  <speed>25.921190173292583</speed>
  <fix>3d</fix>
</trkpt>
<trkpt lat="-35.2776963" lon="148.985365">
  <ele>688.73</ele>
  <time>2026-09-01T20:00:10Z</time>
  <course>175.41</course>
  <speed>25.9</speed>
  <fix>3d</fix>
</trkpt>
<trkpt lat="-35.2777632" lon="148.9853714">
  <ele>688.72</ele>
  <time>2026-09-01T20:00:10Z</time>
  <course>176.17</course>
  <speed>25.911221507292936</speed>
  <fix>3d</fix>
</trkpt>
<trkpt lat="-35.2776963" lon="148.985365">
  <ele>688.73</ele>
  <time>2026-09-01T20:00:10Z</time>
  <course>175.41</course>
  <speed>25.9</speed>
  <fix>3d</fix>
</trkpt>
<trkpt lat="-35.2777863" lon="148.9853736">
  <ele>688.76</ele>
  <time>2026-09-01T20:00:10Z</time>
  <course>176.16</course>
  <speed>25.901252865450353</speed>
  <fix>3d</fix>
</trkpt>
<trkpt lat="-35.2777427" lon="148.9853696">
  <ele>688.81</ele>
  <time>2026-09-01T20:00:10Z</time>
  <course>175.4</course>
  <speed>25.88</speed>
  <fix>3d</fix>
</trkpt>
<trkpt lat="-35.2778095" lon="148.9853759">
  <ele>688.8</ele>
  <time>2026-09-01T20:00:10Z</time>
  <course>176.18</course>
  <speed>25.900463316319264</speed>
  <fix>3d</fix>
</trkpt>
<trkpt lat="-35.2777427" lon="148.9853696">
  <ele>688.81</ele>
  <time>2026-09-01T20:00:10Z</time>
  <course>175.4</course>
  <speed>25.88</speed>
  <fix>3d</fix>
</trkpt>
<trkpt lat="-35.2778328" lon="148.9853782">
  <ele>688.83</ele>
  <time>2026-09-01T20:00:10Z</time>
  <course>176.17</course>
  <speed>25.890494394661527</speed>
  <fix>3d</fix>
</trkpt>
<trkpt lat="-35.277789" lon="148.9853741">
  <ele>688.89</ele>
  <time>2026-09-01T20:00:10Z</time>
  <course>175.39</course>
  <speed>25.86</speed>
  <fix>3d</fix>
</trkpt>
<trkpt lat="-35.277856" lon="148.9853805">
  <ele>688.87</ele>
  <time>2026-09-01T20:00:10Z</time>
  <course>176.2</course>
  <speed>25.891284247792733</speed>
  <fix>3d</fix>
</trkpt>
<trkpt lat="-35.277789" lon="148.9853741">
  <ele>688.89</ele>
  <time>2026-09-01T20:00:10Z</time>
  <course>175.39</course>
  <speed>25.86</speed>
  <fix>3d</fix>
</trkpt>
<trkpt lat="-35.2778792" lon="148.9853828">
  <ele>688.91</ele>
  <time>2026-09-01T20:00:10Z</time>
  <course>176.22</course>
  <speed>25.881315654348022</speed>
  <fix>3d</fix>
</trkpt>
<trkpt lat="-35.2778353" lon="148.9853787">
  <ele>688.96</ele>
  <time>2026-09-01T20:00:10Z</time>
  <course>175.38</course>
  <speed>25.84</speed>
  <fix>3d</fix>
</trkpt>
<trkpt lat="-35.2779026" lon="148.985385">
  <ele>688.95</ele>
  <time>2026-09-01T20:00:10Z</time>
  <course>176.24</course>
  <speed>25.870556623312144</speed>
  <fix>3d</fix>
</trkpt>
<trkpt lat="-35.2778353" lon="148.9853787">
  <ele>688.96</ele>
  <time>2026-09-01T20:00:10Z</time>
  <course>175.38</course>
  <speed>25.84</speed>
  <fix>3d</fix>
</trkpt>
<trkpt lat="-35.2779258" lon="148.9853873">
  <ele>688.99</ele>
  <time>2026-09-01T20:00:10Z</time>
  <course>176.21</course>
  <speed>25.870556623312144</speed>
  <fix>3d</fix>
</trkpt>
<trkpt lat="-35.2778816" lon="148.9853833">
  <ele>689.04</ele>
  <time>2026-09-01T20:00:10Z</time>
  <course>175.37</course>
  <speed>25.83</speed>
  <fix>3d</fix>
</trkpt>
<trkpt lat="-35.277949" lon="148.9853896">
  <ele>689.02</ele>
  <time>2026-09-01T20:00:10Z</time>
  <course>176.2</course>
  <speed>25.870556623312144</speed>
  <fix>3d</fix>
</trkpt>
<trkpt lat="-35.2778816" lon="148.9853833">
  <ele>689.04</ele>
  <time>2026-09-01T20:00:10Z</time>
  <course>175.37</course>
  <speed>25.83</speed>
  <fix>3d</fix>
</trkpt>
<trkpt lat="-35.2779722" lon="148.9853919">
  <ele>689.05</ele>
  <time>2026-09-01T20:00:10Z</time>
  <course>176.22</course>
  <speed>25.859800849967893</speed>
  <fix>3d</fix>
</trkpt>
<trkpt lat="-35.2779279" lon="148.9853878">
  <ele>689.11</ele>
  <time>2026-09-01T20:00:10Z</time>
  <course>175.38</course>
  <speed>25.81</speed>
  <fix>3d</fix>
</trkpt>
<trkpt lat="-35.2779954" lon="148.9853942">
  <ele>689.09</ele>
  <time>2026-09-01T20:00:10Z</time>
  <course>176.22</course>
  <speed>25.859800849967893</speed>
  <fix>3d</fix>
</trkpt>
<trkpt lat="-35.2779279" lon="148.9853878">
  <ele>689.11</ele>
  <time>2026-09-01T20:00:10Z</time>
  <course>175.38</course>
  <speed>25.81</speed>
  <fix>3d</fix>
</trkpt>
<trkpt lat="-35.2780185" lon="148.9853964">
  <ele>689.13</ele>
  <time>2026-09-01T20:00:10Z</time>
  <course>176.23</course>
  <speed>25.84904833838182</speed>
  <fix>3d</fix>
</trkpt>
<trkpt lat="-35.2779741" lon="148.9853924">
  <ele>689.18</ele>
  <time>2026-09-01T20:00:10Z</time>
  <course>175.38</course>
  <speed>25.8</speed>
  <fix>3d</fix>
</trkpt>
<trkpt lat="-35.2780417" lon="148.9853987">
  <ele>689.18</ele>
  <time>2026-09-01T20:00:10Z</time>
  <course>176.2</course>
  <speed>25.84904833838182</speed>
  <fix>3d</fix>
</trkpt>
<trkpt lat="-35.2779741" lon="148.9853924">
  <ele>689.18</ele>
  <time>2026-09-01T20:00:10Z</time>
  <course>175.38</course>
  <speed>25.8</speed>
  <fix>3d</fix>
</trkpt>
<trkpt lat="-35.2780648" lon="148.9854009">
  <ele>689.22</ele>
  <time>2026-09-01T20:00:10Z</time>
  <course>176.24</course>
  <speed>25.839078930952628</speed>
  <fix>3d</fix>
</trkpt>
<trkpt lat="-35.2780202" lon="148.9853969">
  <ele>689.26</ele>
  <time>2026-09-01T20:00:10Z</time>
  <course>175.4</course>
  <speed>25.79</speed>
  <fix>3d</fix>
</trkpt>
<trkpt lat="-35.2780879" lon="148.9854032">
  <ele>689.26</ele>
  <time>2026-09-01T20:00:10Z</time>
  <course>176.31</course>
  <speed>25.83829909262605</speed>
  <fix>3d</fix>
</trkpt>
<trkpt lat="-35.2780202" lon="148.9853969">
  <ele>689.26</ele>
  <time>2026-09-01T20:00:10Z</time>
  <course>175.4</course>
  <speed>25.79</speed>
  <fix>3d</fix>
</trkpt>
<trkpt lat="-35.2781109" lon="148.9854054">
  <ele>689.31</ele>
  <time>2026-09-01T20:00:10Z</time>
  <course>176.32</course>
  <speed>25.817583155671255</speed>
  <fix>3d</fix>
</trkpt>
<trkpt lat="-35.2780664" lon="148.9854015">
  <ele>689.35</ele>
  <time>2026-09-01T20:00:10Z</time>
  <course>175.41</course>
  <speed>25.78</speed>
  <fix>3d</fix>
</trkpt>
<trkpt lat="-35.2781339" lon="148.9854077">
  <ele>689.36</ele>
  <time>2026-09-01T20:00:10Z</time>
  <course>176.34</course>
  <speed>25.806840178526315</speed>
  <fix>3d</fix>
</trkpt>
<trkpt lat="-35.2780664" lon="148.9854015">
  <ele>689.35</ele>
  <time>2026-09-01T20:00:10Z</time>
  <course>175.41</course>
  <speed>25.78</speed>
  <fix>3d</fix>
</trkpt>
<trkpt lat="-35.2781569" lon="148.9854099">
  <ele>689.41</ele>
  <time>2026-09-01T20:00:10Z</time>
  <course>176.36</course>
  <speed>25.79686996517213</speed>
  <fix>3d</fix>
</trkpt>
<trkpt lat="-35.2781125" lon="148.985406">
  <ele>689.44</ele>
  <time>2026-09-01T20:00:10Z</time>
  <course>175.43</course>
  <speed>25.77</speed>
  <fix>3d</fix>
</trkpt>
<trkpt lat="-35.2781798" lon="148.9854121">
  <ele>689.46</ele>
  <time>2026-09-01T20:00:10Z</time>
  <course>176.34</course>
  <speed>25.78612999269181</speed>
  <fix>3d</fix>
</trkpt>
<trkpt lat="-35.2781125" lon="148.985406">
  <ele>689.44</ele>
  <time>2026-09-01T20:00:10Z</time>
  <course>175.43</course>
  <speed>25.77</speed>
  <fix>3d</fix>
</trkpt>
<trkpt lat="-35.2782027" lon="148.9854143">
  <ele>689.51</ele>
  <time>2026-09-01T20:00:10Z</time>
  <course>176.28</course>
  <speed>25.775393304467734</speed>
  <fix>3d</fix>
</trkpt>
<trkpt lat="-35.2781587" lon="148.9854105">
  <ele>689.54</ele>
  <time>2026-09-01T20:00:10Z</time>
  <course>175.46</course>
  <speed>25.76</speed>
  <fix>3d</fix>
</trkpt>
<trkpt lat="-35.2782256" lon="148.9854165">
  <ele>689.57</ele>
  <time>2026-09-01T20:00:10Z</time>
  <course>176.26</course>
  <speed>25.76542256591186</speed>
  <fix>3d</fix>
</trkpt>
<trkpt lat="-35.2781587" lon="148.9854105">
  <ele>689.54</ele>
  <time>2026-09-01T20:00:10Z</time>
  <course>175.46</course>
  <speed>25.76</speed>
  <fix>3d</fix>
</trkpt>
<trkpt lat="-35.2782486" lon="148.9854187">
  <ele>689.62</ele>
  <time>2026-09-01T20:00:10Z</time>
  <course>176.3</course>
  <speed>25.755451850045265</speed>
  <fix>3d</fix>
</trkpt>
<trkpt lat="-35.278205" lon="148.985415">
  <ele>689.64</ele>
  <time>2026-09-01T20:00:10Z</time>
  <course>175.48</course>
  <speed>25.75</speed>
  <fix>3d</fix>
</trkpt>
<trkpt lat="-35.2782715" lon="148.9854209">
  <ele>689.68</ele>
  <time>2026-09-01T20:00:10Z</time>
  <course>176.35</course>
  <speed>25.74548115689431</speed>
  <fix>3d</fix>
</trkpt>
<trkpt lat="-35.278205" lon="148.985415">
  <ele>689.64</ele>
  <time>2026-09-01T20:00:10Z</time>
  <course>175.48</course>
  <speed>25.75</speed>
  <fix>3d</fix>
</trkpt>
<trkpt lat="-35.2782945" lon="148.9854231">
  <ele>689.74</ele>
  <time>2026-09-01T20:00:10Z</time>
  <course>176.35</course>
  <speed>25.74471790484409</speed>
  <fix>3d</fix>
</trkpt>
<trkpt lat="-35.2782511" lon="148.9854194">
  <ele>689.74</ele>
  <time>2026-09-01T20:00:10Z</time>
  <course>175.49</course>
  <speed>25.75</speed>
  <fix>3d</fix>
</trkpt>
<trkpt lat="-35.2783174" lon="148.9854253">
  <ele>689.8</ele>
  <time>2026-09-01T20:00:10Z</time>
  <course>176.33</course>
  <speed>25.73474693872081</speed>
  <fix>3d</fix>
</trkpt>
<trkpt lat="-35.2782511" lon="148.9854194">
  <ele>689.74</ele>
  <time>2026-09-01T20:00:10Z</time>
  <course>175.49</course>
  <speed>25.75</speed>
  <fix>3d</fix>
</trkpt>
<trkpt lat="-35.2783404" lon="148.9854275">
  <ele>689.86</ele>
  <time>2026-09-01T20:00:10Z</time>
  <course>176.34</course>
  <speed>25.724775995137453</speed>
  <fix>3d</fix>
</trkpt>
<trkpt lat="-35.2782972" lon="148.9854239">
  <ele>689.85</ele>
  <time>2026-09-01T20:00:10Z</time>
  <course>175.49</course>
  <speed>25.74</speed>
  <fix>3d</fix>
</trkpt>
<trkpt lat="-35.2783635" lon="148.9854297">
  <ele>689.93</ele>
  <time>2026-09-01T20:00:10Z</time>
  <course>176.35</course>
  <speed>25.725539838844973</speed>
  <fix>3d</fix>
</trkpt>
<trkpt lat="-35.2782972" lon="148.9854239">
  <ele>689.85</ele>
  <time>2026-09-01T20:00:10Z</time>
  <course>175.49</course>
  <speed>25.74</speed>
  <fix>3d</fix>
</trkpt>
<trkpt lat="-35.2783865" lon="148.985432">
  <ele>689.99</ele>
  <time>2026-09-01T20:00:10Z</time>
  <course>176.4</course>
  <speed>25.725539838844973</speed>
  <fix>3d</fix>
</trkpt>
<trkpt lat="-35.2783433" lon="148.9854284">
  <ele>689.97</ele>
  <time>2026-09-01T20:00:10Z</time>
  <course>175.48</course>
  <speed>25.74</speed>
  <fix>3d</fix>
</trkpt>
<trkpt lat="-35.2784094" lon="148.9854342">
  <ele>690.05</ele>
  <time>2026-09-01T20:00:10Z</time>
  <course>176.39</course>
  <speed>25.71480507412024</speed>
  <fix>3d</fix>
</trkpt>
<trkpt lat="-35.2783433" lon="148.9854284">
  <ele>689.97</ele>
  <time>2026-09-01T20:00:10Z</time>
  <course>175.48</course>
  <speed>25.74</speed>
  <fix>3d</fix>
</trkpt>
<trkpt lat="-35.2784324" lon="148.9854364">
  <ele>690.11</ele>
  <time>2026-09-01T20:00:10Z</time>
  <course>176.4</course>
  <speed>25.714044800458755</speed>
  <fix>3d</fix>
</trkpt>
<trkpt lat="-35.2783894" lon="148.9854328">
  <ele>690.09</ele>
  <time>2026-09-01T20:00:10Z</time>
  <course>175.49</course>
  <speed>25.75</speed>
  <fix>3d</fix>
</trkpt>
<trkpt lat="-35.2784554" lon="148.9854386">
  <ele>690.17</ele>
  <time>2026-09-01T20:00:10Z</time>
  <course>176.41</course>
  <speed>25.714044800458755</speed>
  <fix>3d</fix>
</trkpt>
<trkpt lat="-35.2783894" lon="148.9854328">
  <ele>690.09</ele>
  <time>2026-09-01T20:00:10Z</time>
  <course>175.49</course>
  <speed>25.75</speed>
  <fix>3d</fix>
</trkpt>
<trkpt lat="-35.2784784" lon="148.9854408">
  <ele>690.23</ele>
  <time>2026-09-01T20:00:10Z</time>
  <course>176.38</course>
  <speed>25.714044800458755</speed>
  <fix>3d</fix>
</trkpt>
<trkpt lat="-35.2784355" lon="148.9854373">
  <ele>690.2</ele>
  <time>2026-09-01T20:00:10Z</time>
  <course>175.51</course>
  <speed>25.75</speed>
  <fix>3d</fix>
</trkpt>
<trkpt lat="-35.2785014" lon="148.985443">
  <ele>690.3</ele>
  <time>2026-09-01T20:00:10Z</time>
  <course>176.37</course>
  <speed>25.714044800458755</speed>
  <fix>3d</fix>
</trkpt>
<trkpt lat="-35.2784355" lon="148.9854373">
  <ele>690.2</ele>
  <time>2026-09-01T20:00:10Z</time>
  <course>175.51</course>
  <speed>25.75</speed>
  <fix>3d</fix>
</trkpt>
<trkpt lat="-35.2785245" lon="148.9854452">
  <ele>690.37</ele>
  <time>2026-09-01T20:00:10Z</time>
  <course>176.38</course>
  <speed>25.714044800458755</speed>
  <fix>3d</fix>
</trkpt>
<trkpt lat="-35.2784816" lon="148.9854417">
  <ele>690.32</ele>
  <time>2026-09-01T20:00:10Z</time>
  <course>175.52</course>
  <speed>25.75</speed>
  <fix>3d</fix>
</trkpt>
<trkpt lat="-35.2785475" lon="148.9854474">
  <ele>690.43</ele>
  <time>2026-09-01T20:00:10Z</time>
  <course>176.38</course>
  <speed>25.714044800458755</speed>
  <fix>3d</fix>
</trkpt>
<trkpt lat="-35.2784816" lon="148.9854417">
  <ele>690.32</ele>
  <time>2026-09-01T20:00:10Z</time>
  <course>175.52</course>
  <speed>25.75</speed>
  <fix>3d</fix>
</trkpt>
<trkpt lat="-35.2785706" lon="148.9854496">
  <ele>690.5</ele>
  <time>2026-09-01T20:00:10Z</time>
  <course>176.4</course>
  <speed>25.71480507412024</speed>
  <fix>3d</fix>
</trkpt>
<trkpt lat="-35.2785277" lon="148.9854461">
  <ele>690.45</ele>
  <time>2026-09-01T20:00:10Z</time>
  <course>175.52</course>
  <speed>25.75</speed>
  <fix>3d</fix>
</trkpt>
<trkpt lat="-35.2785936" lon="148.9854518">
  <ele>690.57</ele>
  <time>2026-09-01T20:00:10Z</time>
  <course>176.41</course>
  <speed>25.71480507412024</speed>
  <fix>3d</fix>
</trkpt>
<trkpt lat="-35.2785277" lon="148.9854461">
  <ele>690.45</ele>
  <time>2026-09-01T20:00:10Z</time>
  <course>175.52</course>
  <speed>25.75</speed>
  <fix>3d</fix>
</trkpt>
<trkpt lat="-35.2786167" lon="148.9854541">
  <ele>690.63</ele>
  <time>2026-09-01T20:00:10Z</time>
  <course>176.39</course>
  <speed>25.71480507412024</speed>
  <fix>3d</fix>
</trkpt>
<trkpt lat="-35.2785738" lon="148.9854505">
  <ele>690.58</ele>
  <time>2026-09-01T20:00:10Z</time>
  <course>175.51</course>
  <speed>25.75</speed>
  <fix>3d</fix>
</trkpt>
<trkpt lat="-35.2786397" lon="148.9854563">
  <ele>690.7</ele>
  <time>2026-09-01T20:00:10Z</time>
  <course>176.36</course>
  <speed>25.71480507412024</speed>
  <fix>3d</fix>
</trkpt>
<trkpt lat="-35.2785738" lon="148.9854505">
  <ele>690.58</ele>
  <time>2026-09-01T20:00:10Z</time>
  <course>175.51</course>
  <speed>25.75</speed>
  <fix>3d</fix>
</trkpt>
<trkpt lat="-35.2786628" lon="148.9854585">
  <ele>690.76</ele>
  <time>2026-09-01T20:00:10Z</time>
  <course>176.33</course>
  <speed>25.724775995137453</speed>
  <fix>3d</fix>
</trkpt>
<trkpt lat="-35.27862" lon="148.985455">
  <ele>690.71</ele>
  <time>2026-09-01T20:00:10Z</time>
  <course>175.51</course>
  <speed>25.76</speed>
  <fix>3d</fix>
</trkpt>
<trkpt lat="-35.2786858" lon="148.9854607">
  <ele>690.83</ele>
  <time>2026-09-01T20:00:10Z</time>
  <course>176.3</course>
  <speed>25.724775995137453</speed>
  <fix>3d</fix>
</trkpt>
<trkpt lat="-35.27862" lon="148.985455">
  <ele>690.71</ele>
  <time>2026-09-01T20:00:10Z</time>
  <course>175.51</course>
  <speed>25.76</speed>
  <fix>3d</fix>
</trkpt>
<trkpt lat="-35.2787089" lon="148.9854629">
  <ele>690.9</ele>
  <time>2026-09-01T20:00:10Z</time>
  <course>176.32</course>
  <speed>25.724775995137453</speed>
  <fix>3d</fix>
</trkpt>
<trkpt lat="-35.2786663" lon="148.9854594">
  <ele>690.84</ele>
  <time>2026-09-01T20:00:10Z</time>
  <course>175.51</course>
  <speed>25.76</speed>
  <fix>3d</fix>
</trkpt>
<trkpt lat="-35.278732" lon="148.9854652">
  <ele>690.97</ele>
  <time>2026-09-01T20:00:10Z</time>
  <course>176.28</course>
  <speed>25.71556921399952</speed>
  <fix>3d</fix>
</trkpt>
<trkpt lat="-35.2786663" lon="148.9854594">
  <ele>690.84</ele>
  <time>2026-09-01T20:00:10Z</time>
  <course>175.51</course>
  <speed>25.76</speed>
  <fix>3d</fix>
</trkpt>
<trkpt lat="-35.278755" lon="148.9854674">
  <ele>691.04</ele>
  <time>2026-09-01T20:00:10Z</time>
  <course>176.3</course>
  <speed>25.726307546945012</speed>
  <fix>3d</fix>
</trkpt>
<trkpt lat="-35.2787124" lon="148.9854639">
  <ele>690.97</ele>
  <time>2026-09-01T20:00:10Z</time>
  <course>175.49</course>
  <speed>25.76</speed>
  <fix>3d</fix>
</trkpt>
<trkpt lat="-35.2787781" lon="148.9854696">
  <ele>691.11</ele>
  <time>2026-09-01T20:00:10Z</time>
  <course>176.3</course>
  <speed>25.726307546945012</speed>
  <fix>3d</fix>
</trkpt>
<trkpt lat="-35.2787124" lon="148.9854639">
  <ele>690.97</ele>
  <time>2026-09-01T20:00:10Z</time>
  <course>175.49</course>
  <speed>25.76</speed>
  <fix>3d</fix>
</trkpt>
<trkpt lat="-35.2788012" lon="148.9854719">
  <ele>691.19</ele>
  <time>2026-09-01T20:00:10Z</time>
  <course>176.38</course>
  <speed>25.725539838844973</speed>
  <fix>3d</fix>
</trkpt>
<trkpt lat="-35.2787585" lon="148.9854683">
  <ele>691.11</ele>
  <time>2026-09-01T20:00:10Z</time>
  <course>175.47</course>
  <speed>25.76</speed>
  <fix>3d</fix>
</trkpt>
<trkpt lat="-35.2788243" lon="148.9854741">
  <ele>691.26</ele>
  <time>2026-09-01T20:00:10Z</time>
  <course>176.41</course>
  <speed>25.71480507412024</speed>
  <fix>3d</fix>
</trkpt>
<trkpt lat="-35.2787585" lon="148.9854683">
  <ele>691.11</ele>
  <time>2026-09-01T20:00:10Z</time>
  <course>175.47</course>
  <speed>25.76</speed>
  <fix>3d</fix>
</trkpt>
<trkpt lat="-35.2788472" lon="148.9854763">
  <ele>691.34</ele>
  <time>2026-09-01T20:00:10Z</time>
  <course>176.45</course>
  <speed>25.71480507412024</speed>
  <fix>3d</fix>
</trkpt>
<trkpt lat="-35.2788046" lon="148.9854728">
  <ele>691.26</ele>
  <time>2026-09-01T20:00:10Z</time>
  <course>175.48</course>
  <speed>25.75</speed>
  <fix>3d</fix>
</trkpt>
<trkpt lat="-35.2788703" lon="148.9854785">
  <ele>691.42</ele>
  <time>2026-09-01T20:00:10Z</time>
  <course>176.38</course>
  <speed>25.724016016166683</speed>
  <fix>3d</fix>
</trkpt>
<trkpt lat="-35.2788046" lon="148.9854728">
  <ele>691.26</ele>
  <time>2026-09-01T20:00:10Z</time>
  <course>175.48</course>
  <speed>25.75</speed>
  <fix>3d</fix>
</trkpt>
<trkpt lat="-35.2788934" lon="148.9854808">
  <ele>691.49</ele>
  <time>2026-09-01T20:00:10Z</time>
  <course>176.32</course>
  <speed>25.73398725421306</speed>
  <fix>3d</fix>
</trkpt>
<trkpt lat="-35.2788507" lon="148.9854773">
  <ele>691.41</ele>
  <time>2026-09-01T20:00:10Z</time>
  <course>175.5</course>
  <speed>25.75</speed>
  <fix>3d</fix>
</trkpt>
<trkpt lat="-35.2789165" lon="148.985483">
  <ele>691.56</ele>
  <time>2026-09-01T20:00:10Z</time>
  <course>176.33</course>
  <speed>25.73474693872081</speed>
  <fix>3d</fix>
</trkpt>
<trkpt lat="-35.2788507" lon="148.9854773">
  <ele>691.41</ele>
  <time>2026-09-01T20:00:10Z</time>
  <course>175.5</course>
  <speed>25.75</speed>
  <fix>3d</fix>
</trkpt>
<trkpt lat="-35.2789399" lon="148.9854852">
  <ele>691.64</ele>
  <time>2026-09-01T20:00:10Z</time>
  <course>176.36</course>
  <speed>25.73398725421306</speed>
  <fix>3d</fix>
</trkpt>
<trkpt lat="-35.2788968" lon="148.9854816">
  <ele>691.56</ele>
  <time>2026-09-01T20:00:10Z</time>
  <course>175.5</course>
  <speed>25.75</speed>
  <fix>3d</fix>
</trkpt>
<trkpt lat="-35.278963" lon="148.9854874">
  <ele>691.71</ele>
  <time>2026-09-01T20:00:10Z</time>
  <course>176.34</course>
  <speed>25.74395851457192</speed>
  <fix>3d</fix>
</trkpt>
<trkpt lat="-35.2788968" lon="148.9854816">
  <ele>691.56</ele>
  <time>2026-09-01T20:00:10Z</time>
  <course>175.5</course>
  <speed>25.75</speed>
  <fix>3d</fix>
</trkpt>
<trkpt lat="-35.2789861" lon="148.9854897">
  <ele>691.78</ele>
  <time>2026-09-01T20:00:10Z</time>
  <course>176.37</course>
  <speed>25.74471790484409</speed>
  <fix>3d</fix>
</trkpt>
<trkpt lat="-35.278943" lon="148.9854861">
  <ele>691.71</ele>
  <time>2026-09-01T20:00:10Z</time>
  <course>175.5</course>
  <speed>25.76</speed>
  <fix>3d</fix>
</trkpt>
<trkpt lat="-35.2790094" lon="148.9854919">
  <ele>691.86</ele>
  <time>2026-09-01T20:00:10Z</time>
  <course>176.4</course>
  <speed>25.74471790484409</speed>
  <fix>3d</fix>
</trkpt>
<trkpt lat="-35.278943" lon="148.9854861">
  <ele>691.71</ele>
  <time>2026-09-01T20:00:10Z</time>
  <course>175.5</course>
  <speed>25.76</speed>
  <fix>3d</fix>
</trkpt>
<trkpt lat="-35.2790325" lon="148.9854941">
  <ele>691.94</ele>
  <time>2026-09-01T20:00:10Z</time>
  <course>176.41</course>
  <speed>25.74471790484409</speed>
  <fix>3d</fix>
</trkpt>
<trkpt lat="-35.2789891" lon="148.9854906">
  <ele>691.85</ele>
  <time>2026-09-01T20:00:10Z</time>
  <course>175.5</course>
  <speed>25.76</speed>
  <fix>3d</fix>
</trkpt>
<trkpt lat="-35.2790556" lon="148.9854963">
  <ele>692.01</ele>
  <time>2026-09-01T20:00:10Z</time>
  <course>176.38</course>
  <speed>25.74471790484409</speed>
  <fix>3d</fix>
</trkpt>
<trkpt lat="-35.2789891" lon="148.9854906">
  <ele>691.85</ele>
  <time>2026-09-01T20:00:10Z</time>
  <course>175.5</course>
  <speed>25.76</speed>
  <fix>3d</fix>
</trkpt>
<trkpt lat="-35.2790787" lon="148.9854986">
  <ele>692.08</ele>
  <time>2026-09-01T20:00:10Z</time>
  <course>176.34</course>
  <speed>25.754688893481124</speed>
  <fix>3d</fix>
</trkpt>
<trkpt lat="-35.2790352" lon="148.985495">
  <ele>692.0</ele>
  <time>2026-09-01T20:00:10Z</time>
  <course>175.49</course>
  <speed>25.75</speed>
  <fix>3d</fix>
</trkpt>
<trkpt lat="-35.2791018" lon="148.9855008">
  <ele>692.16</ele>
  <time>2026-09-01T20:00:10Z</time>
  <course>176.35</course>
  <speed>25.755451850045265</speed>
  <fix>3d</fix>
</trkpt>
<trkpt lat="-35.2790352" lon="148.985495">
  <ele>692.0</ele>
  <time>2026-09-01T20:00:10Z</time>
  <course>175.49</course>
  <speed>25.75</speed>
  <fix>3d</fix>
</trkpt>
<trkpt lat="-35.2791249" lon="148.985503">
  <ele>692.23</ele>
  <time>2026-09-01T20:00:10Z</time>
  <course>176.4</course>
  <speed>25.74548115689431</speed>
  <fix>3d</fix>
</trkpt>
<trkpt lat="-35.2790813" lon="148.9854995">
  <ele>692.15</ele>
  <time>2026-09-01T20:00:10Z</time>
  <course>175.48</course>
  <speed>25.75</speed>
  <fix>3d</fix>
</trkpt>
<trkpt lat="-35.279148" lon="148.9855053">
  <ele>692.31</ele>
  <time>2026-09-01T20:00:10Z</time>
  <course>176.4</course>
  <speed>25.755451850045265</speed>
  <fix>3d</fix>
</trkpt>
<trkpt lat="-35.2790813" lon="148.9854995">
  <ele>692.15</ele>
  <time>2026-09-01T20:00:10Z</time>
  <course>175.48</course>
  <speed>25.75</speed>
  <fix>3d</fix>
</trkpt>
<trkpt lat="-35.2791711" lon="148.9855075">
  <ele>692.38</ele>
  <time>2026-09-01T20:00:10Z</time>
  <course>176.38</course>
  <speed>25.755451850045265</speed>
  <fix>3d</fix>
</trkpt>
<trkpt lat="-35.2791275" lon="148.9855039">
  <ele>692.29</ele>
  <time>2026-09-01T20:00:10Z</time>
  <course>175.47</course>
  <speed>25.75</speed>
  <fix>3d</fix>
</trkpt>
<trkpt lat="-35.2791942" lon="148.9855097">
  <ele>692.46</ele>
  <time>2026-09-01T20:00:10Z</time>
  <course>176.32</course>
  <speed>25.75621866656672</speed>
  <fix>3d</fix>
</trkpt>
<trkpt lat="-35.2791275" lon="148.9855039">
  <ele>692.29</ele>
  <time>2026-09-01T20:00:10Z</time>
  <course>175.47</course>
  <speed>25.75</speed>
  <fix>3d</fix>
</trkpt>
<trkpt lat="-35.2792172" lon="148.985512">
  <ele>692.53</ele>
  <time>2026-09-01T20:00:10Z</time>
  <course>176.34</course>
  <speed>25.75621866656672</speed>
  <fix>3d</fix>
</trkpt>
<trkpt lat="-35.2791737" lon="148.9855084">
  <ele>692.44</ele>
  <time>2026-09-01T20:00:10Z</time>
  <course>175.46</course>
  <speed>25.75</speed>
  <fix>3d</fix>
</trkpt>
<trkpt lat="-35.2792403" lon="148.9855143">
  <ele>692.61</ele>
  <time>2026-09-01T20:00:10Z</time>
  <course>176.32</course>
  <speed>25.75698934270075</speed>
  <fix>3d</fix>
</trkpt>
<trkpt lat="-35.2791737" lon="148.9855084">
  <ele>692.44</ele>
  <time>2026-09-01T20:00:10Z</time>
  <course>175.46</course>
  <speed>25.75</speed>
  <fix>3d</fix>
</trkpt>
<trkpt lat="-35.2792634" lon="148.9855165">
  <ele>692.68</ele>
  <time>2026-09-01T20:00:10Z</time>
  <course>176.31</course>
  <speed>25.75776387810091</speed>
  <fix>3d</fix>
</trkpt>
<trkpt lat="-35.2792199" lon="148.9855129">
  <ele>692.59</ele>
  <time>2026-09-01T20:00:10Z</time>
  <course>175.45</course>
  <speed>25.75</speed>
  <fix>3d</fix>
</trkpt>
<trkpt lat="-35.2792865" lon="148.9855188">
  <ele>692.76</ele>
  <time>2026-09-01T20:00:10Z</time>
  <course>176.32</course>
  <speed>25.75776387810091</speed>
  <fix>3d</fix>
</trkpt>
<trkpt lat="-35.2792199" lon="148.9855129">
  <ele>692.59</ele>
  <time>2026-09-01T20:00:10Z</time>
  <course>175.45</course>
  <speed>25.75</speed>
  <fix>3d</fix>
</trkpt>
<trkpt lat="-35.2793096" lon="148.9855211">
  <ele>692.83</ele>
  <time>2026-09-01T20:00:10Z</time>
  <course>176.25</course>
  <speed>25.75776387810091</speed>
  <fix>3d</fix>
</trkpt>
<trkpt lat="-35.279266" lon="148.9855174">
  <ele>692.74</ele>
  <time>2026-09-01T20:00:10Z</time>
  <course>175.42</course>
  <speed>25.76</speed>
  <fix>3d</fix>
</trkpt>
<trkpt lat="-35.2793325" lon="148.9855233">
  <ele>692.91</ele>
  <time>2026-09-01T20:00:10Z</time>
  <course>176.2</course>
  <speed>25.758542272419067</speed>
  <fix>3d</fix>
</trkpt>
<trkpt lat="-35.279266" lon="148.9855174">
  <ele>692.74</ele>
  <time>2026-09-01T20:00:10Z</time>
  <course>175.42</course>
  <speed>25.76</speed>
  <fix>3d</fix>
</trkpt>
<trkpt lat="-35.2793556" lon="148.9855256">
  <ele>692.99</ele>
  <time>2026-09-01T20:00:10Z</time>
  <course>176.24</course>
  <speed>25.769293742747394</speed>
  <fix>3d</fix>
</trkpt>
<trkpt lat="-35.2793121" lon="148.9855219">
  <ele>692.89</ele>
  <time>2026-09-01T20:00:10Z</time>
  <course>175.4</course>
  <speed>25.76</speed>
  <fix>3d</fix>
</trkpt>
<trkpt lat="-35.2793788" lon="148.9855279">
  <ele>693.06</ele>
  <time>2026-09-01T20:00:10Z</time>
  <course>176.28</course>
  <speed>25.769293742747394</speed>
  <fix>3d</fix>
</trkpt>
<trkpt lat="-35.2793121" lon="148.9855219">
  <ele>692.89</ele>
  <time>2026-09-01T20:00:10Z</time>
  <course>175.4</course>
  <speed>25.76</speed>
  <fix>3d</fix>
</trkpt>
<trkpt lat="-35.2794019" lon="148.9855302">
  <ele>693.14</ele>
  <time>2026-09-01T20:00:10Z</time>
  <course>176.38</course>
  <speed>25.769293742747394</speed>
  <fix>3d</fix>
</trkpt>
<trkpt lat="-35.2793582" lon="148.9855265">
  <ele>693.04</ele>
  <time>2026-09-01T20:00:10Z</time>
  <course>175.38</course>
  <speed>25.76</speed>
  <fix>3d</fix>
</trkpt>
<trkpt lat="-35.2794252" lon="148.9855325">
  <ele>693.22</ele>
  <time>2026-09-01T20:00:10Z</time>
  <course>176.4</course>
  <speed>25.777703543954416</speed>
  <fix>3d</fix>
</trkpt>
<trkpt lat="-35.2793582" lon="148.9855265">
  <ele>693.04</ele>
  <time>2026-09-01T20:00:10Z</time>
  <course>175.38</course>
  <speed>25.76</speed>
  <fix>3d</fix>
</trkpt>
<trkpt lat="-35.2794484" lon="148.9855347">
  <ele>693.3</ele>
  <time>2026-09-01T20:00:10Z</time>
  <course>176.34</course>
  <speed>25.776929607693777</speed>
  <fix>3d</fix>
</trkpt>
<trkpt lat="-35.2794044" lon="148.9855311">
  <ele>693.19</ele>
  <time>2026-09-01T20:00:10Z</time>
  <course>175.39</course>
  <speed>25.76</speed>
  <fix>3d</fix>
</trkpt>
<trkpt lat="-35.2794715" lon="148.985537">
  <ele>693.37</ele>
  <time>2026-09-01T20:00:10Z</time>
  <course>176.33</course>
  <speed>25.776929607693777</speed>
  <fix>3d</fix>
</trkpt>
<trkpt lat="-35.2794044" lon="148.9855311">
  <ele>693.19</ele>
  <time>2026-09-01T20:00:10Z</time>
  <course>175.39</course>
  <speed>25.76</speed>
  <fix>3d</fix>
</trkpt>
<trkpt lat="-35.2794946" lon="148.9855393">
  <ele>693.44</ele>
  <time>2026-09-01T20:00:10Z</time>
  <course>176.33</course>
  <speed>25.78612999269181</speed>
  <fix>3d</fix>
</trkpt>
<trkpt lat="-35.2794505" lon="148.9855356">
  <ele>693.33</ele>
  <time>2026-09-01T20:00:10Z</time>
  <course>175.43</course>
  <speed>25.77</speed>
  <fix>3d</fix>
</trkpt>
<trkpt lat="-35.2795177" lon="148.9855415">
  <ele>693.52</ele>
  <time>2026-09-01T20:00:10Z</time>
  <course>176.39</course>
  <speed>25.78612999269181</speed>
  <fix>3d</fix>
</trkpt>
<trkpt lat="-35.2794505" lon="148.9855356">
  <ele>693.33</ele>
  <time>2026-09-01T20:00:10Z</time>
  <course>175.43</course>
  <speed>25.77</speed>
  <fix>3d</fix>
</trkpt>
<trkpt lat="-35.2795409" lon="148.9855437">
  <ele>693.59</ele>
  <time>2026-09-01T20:00:10Z</time>
  <course>176.44</course>
  <speed>25.78536406568657</speed>
  <fix>3d</fix>
</trkpt>
<trkpt lat="-35.2794966" lon="148.98554">
  <ele>693.48</ele>
  <time>2026-09-01T20:00:10Z</time>
  <course>175.46</course>
  <speed>25.77</speed>
  <fix>3d</fix>
</trkpt>
<trkpt lat="-35.279564" lon="148.985546">
  <ele>693.66</ele>
  <time>2026-09-01T20:00:10Z</time>
  <course>176.44</course>
  <speed>25.78536406568657</speed>
  <fix>3d</fix>
</trkpt>
<trkpt lat="-35.2794966" lon="148.98554">
  <ele>693.48</ele>
  <time>2026-09-01T20:00:10Z</time>
  <course>175.46</course>
  <speed>25.77</speed>
  <fix>3d</fix>
</trkpt>
<trkpt lat="-35.2795871" lon="148.9855482">
  <ele>693.74</ele>
  <time>2026-09-01T20:00:10Z</time>
  <course>176.42</course>
  <speed>25.78460199421352</speed>
  <fix>3d</fix>
</trkpt>
<trkpt lat="-35.2795428" lon="148.9855445">
  <ele>693.62</ele>
  <time>2026-09-01T20:00:10Z</time>
  <course>175.48</course>
  <speed>25.77</speed>
  <fix>3d</fix>
</trkpt>
<trkpt lat="-35.2796102" lon="148.9855504">
  <ele>693.81</ele>
  <time>2026-09-01T20:00:10Z</time>
  <course>176.39</course>
  <speed>25.78460199421352</speed>
  <fix>3d</fix>
</trkpt>
<trkpt lat="-35.2795428" lon="148.9855445">
  <ele>693.62</ele>
  <time>2026-09-01T20:00:10Z</time>
  <course>175.48</course>
  <speed>25.77</speed>
  <fix>3d</fix>
</trkpt>
<trkpt lat="-35.2796333" lon="148.9855526">
  <ele>693.88</ele>
  <time>2026-09-01T20:00:10Z</time>
  <course>176.38</course>
  <speed>25.78460199421352</speed>
  <fix>3d</fix>
</trkpt>
<trkpt lat="-35.279589" lon="148.985549">
  <ele>693.77</ele>
  <time>2026-09-01T20:00:10Z</time>
  <course>175.51</course>
  <speed>25.77</speed>
  <fix>3d</fix>
</trkpt>
<trkpt lat="-35.2796566" lon="148.9855549">
  <ele>693.96</ele>
  <time>2026-09-01T20:00:10Z</time>
  <course>176.31</course>
  <speed>25.79457307264456</speed>
  <fix>3d</fix>
</trkpt>
<trkpt lat="-35.279589" lon="148.985549">
  <ele>693.77</ele>
  <time>2026-09-01T20:00:10Z</time>
  <course>175.51</course>
  <speed>25.77</speed>
  <fix>3d</fix>
</trkpt>
<trkpt lat="-35.2796797" lon="148.9855571">
  <ele>694.03</ele>
  <time>2026-09-01T20:00:10Z</time>
  <course>176.29</course>
  <speed>25.795334849542076</speed>
  <fix>3d</fix>
</trkpt>
<trkpt lat="-35.2796352" lon="148.9855534">
  <ele>693.91</ele>
  <time>2026-09-01T20:00:10Z</time>
  <course>175.52</course>
  <speed>25.77</speed>
  <fix>3d</fix>
</trkpt>
<trkpt lat="-35.2797029" lon="148.9855593">
  <ele>694.1</ele>
  <time>2026-09-01T20:00:10Z</time>
  <course>176.29</course>
  <speed>25.795334849542076</speed>
  <fix>3d</fix>
</trkpt>
<trkpt lat="-35.2796352" lon="148.9855534">
  <ele>693.91</ele>
  <time>2026-09-01T20:00:10Z</time>
  <course>175.52</course>
  <speed>25.77</speed>
  <fix>3d</fix>
</trkpt>
<trkpt lat="-35.279726" lon="148.9855616">
  <ele>694.17</ele>
  <time>2026-09-01T20:00:10Z</time>
  <course>176.27</course>
  <speed>25.796100480498986</speed>
  <fix>3d</fix>
</trkpt>
<trkpt lat="-35.2796814" lon="148.9855579">
  <ele>694.05</ele>
  <time>2026-09-01T20:00:10Z</time>
  <course>175.51</course>
  <speed>25.77</speed>
  <fix>3d</fix>
</trkpt>
<trkpt lat="-35.2797491" lon="148.9855638">
  <ele>694.24</ele>
  <time>2026-09-01T20:00:10Z</time>
  <course>176.3</course>
  <speed>25.79686996517213</speed>
  <fix>3d</fix>
</trkpt>
<trkpt lat="-35.2796814" lon="148.9855579">
  <ele>694.05</ele>
  <time>2026-09-01T20:00:10Z</time>
  <course>175.51</course>
  <speed>25.77</speed>
  <fix>3d</fix>
</trkpt>
<trkpt lat="-35.2797722" lon="148.9855661">
  <ele>694.31</ele>
  <time>2026-09-01T20:00:11Z</time>
  <course>176.32</course>
  <speed>25.79686996517213</speed>
  <fix>3d</fix>
</trkpt>
<trkpt lat="-35.2797276" lon="148.9855623">
  <ele>694.19</ele>
  <time>2026-09-01T20:00:11Z</time>
  <course>175.48</course>
  <speed>25.78</speed>
  <fix>3d</fix>
</trkpt>
<trkpt lat="-35.2797953" lon="148.9855683">
  <ele>694.38</ele>
  <time>2026-09-01T20:00:11Z</time>
  <course>176.31</course>
  <speed>25.806840178526315</speed>
  <fix>3d</fix>
</trkpt>
<trkpt lat="-35.2797276" lon="148.9855623">
  <ele>694.19</ele>
  <time>2026-09-01T20:00:11Z</time>
  <course>175.48</course>
  <speed>25.78</speed>
  <fix>3d</fix>
</trkpt>
<trkpt lat="-35.2798182" lon="148.9855705">
  <ele>694.45</ele>
  <time>2026-09-01T20:00:11Z</time>
  <course>176.39</course>
  <speed>25.806840178526315</speed>
  <fix>3d</fix>
</trkpt>
<trkpt lat="-35.2797737" lon="148.9855668">
  <ele>694.33</ele>
  <time>2026-09-01T20:00:11Z</time>
  <course>175.47</course>
  <speed>25.78</speed>
  <fix>3d</fix>
</trkpt>
<trkpt lat="-35.2798413" lon="148.9855728">
  <ele>694.52</ele>
  <time>2026-09-01T20:00:11Z</time>
  <course>176.37</course>
  <speed>25.806840178526315</speed>
  <fix>3d</fix>
</trkpt>
<trkpt lat="-35.2797737" lon="148.9855668">
  <ele>694.33</ele>
  <time>2026-09-01T20:00:11Z</time>
  <course>175.47</course>
  <speed>25.78</speed>
  <fix>3d</fix>
</trkpt>
<trkpt lat="-35.2798644" lon="148.985575">
  <ele>694.59</ele>
  <time>2026-09-01T20:00:11Z</time>
  <course>176.34</course>
  <speed>25.816041524602486</speed>
  <fix>3d</fix>
</trkpt>
<trkpt lat="-35.2798199" lon="148.9855713">
  <ele>694.48</ele>
  <time>2026-09-01T20:00:11Z</time>
  <course>175.47</course>
  <speed>25.79</speed>
  <fix>3d</fix>
</trkpt>
<trkpt lat="-35.2798875" lon="148.9855773">
  <ele>694.67</ele>
  <time>2026-09-01T20:00:11Z</time>
  <course>176.36</course>
  <speed>25.816041524602486</speed>
  <fix>3d</fix>
</trkpt>
<trkpt lat="-35.2798199" lon="148.9855713">
  <ele>694.48</ele>
  <time>2026-09-01T20:00:11Z</time>
  <course>175.47</course>
  <speed>25.79</speed>
  <fix>3d</fix>
</trkpt>
<trkpt lat="-35.2799108" lon="148.9855795">
  <ele>694.74</ele>
  <time>2026-09-01T20:00:11Z</time>
  <course>176.38</course>
  <speed>25.816041524602486</speed>
  <fix>3d</fix>
</trkpt>
<trkpt lat="-35.2798661" lon="148.9855757">
  <ele>694.62</ele>
  <time>2026-09-01T20:00:11Z</time>
  <course>175.48</course>
  <speed>25.79</speed>
  <fix>3d</fix>
</trkpt>
<trkpt lat="-35.2799339" lon="148.9855817">
  <ele>694.81</ele>
  <time>2026-09-01T20:00:11Z</time>
  <course>176.43</course>
  <speed>25.816041524602486</speed>
  <fix>3d</fix>
</trkpt>
<trkpt lat="-35.2798661" lon="148.9855757">
  <ele>694.62</ele>
  <time>2026-09-01T20:00:11Z</time>
  <course>175.48</course>
  <speed>25.79</speed>
  <fix>3d</fix>
</trkpt>
<trkpt lat="-35.279957" lon="148.985584">
  <ele>694.89</ele>
  <time>2026-09-01T20:00:11Z</time>
  <course>176.39</course>
  <speed>25.81527648505822</speed>
  <fix>3d</fix>
</trkpt>
<trkpt lat="-35.2799123" lon="148.9855802">
  <ele>694.77</ele>
  <time>2026-09-01T20:00:11Z</time>
  <course>175.49</course>
  <speed>25.8</speed>
  <fix>3d</fix>
</trkpt>
<trkpt lat="-35.2799801" lon="148.9855862">
  <ele>694.97</ele>
  <time>2026-09-01T20:00:11Z</time>
  <course>176.4</course>
  <speed>25.816041524602486</speed>
  <fix>3d</fix>
</trkpt>
<trkpt lat="-35.2799123" lon="148.9855802">
  <ele>694.77</ele>
  <time>2026-09-01T20:00:11Z</time>
  <course>175.49</course>
  <speed>25.8</speed>
  <fix>3d</fix>
</trkpt>
<trkpt lat="-35.2800032" lon="148.9855884">
  <ele>695.05</ele>
  <time>2026-09-01T20:00:11Z</time>
  <course>176.45</course>
  <speed>25.80530565600803</speed>
  <fix>3d</fix>
</trkpt>
<trkpt lat="-35.2799585" lon="148.9855847">
  <ele>694.92</ele>
  <time>2026-09-01T20:00:11Z</time>
  <course>175.5</course>
  <speed>25.8</speed>
  <fix>3d</fix>
</trkpt>
<trkpt lat="-35.2800263" lon="148.9855906">
  <ele>695.13</ele>
  <time>2026-09-01T20:00:11Z</time>
  <course>176.5</course>
  <speed>25.80530565600803</speed>
  <fix>3d</fix>
</trkpt>
<trkpt lat="-35.2799585" lon="148.9855847">
  <ele>694.92</ele>
  <time>2026-09-01T20:00:11Z</time>
  <course>175.5</course>
  <speed>25.8</speed>
  <fix>3d</fix>
</trkpt>
<trkpt lat="-35.2800494" lon="148.9855929">
  <ele>695.21</ele>
  <time>2026-09-01T20:00:11Z</time>
  <course>176.43</course>
  <speed>25.804544173459064</speed>
  <fix>3d</fix>
</trkpt>
<trkpt lat="-35.2800047" lon="148.985589">
  <ele>695.07</ele>
  <time>2026-09-01T20:00:11Z</time>
  <course>175.52</course>
  <speed>25.8</speed>
  <fix>3d</fix>
</trkpt>
<trkpt lat="-35.2800725" lon="148.9855951">
  <ele>695.29</ele>
  <time>2026-09-01T20:00:11Z</time>
  <course>176.38</course>
  <speed>25.804544173459064</speed>
  <fix>3d</fix>
</trkpt>
<trkpt lat="-35.2800047" lon="148.985589">
  <ele>695.07</ele>
  <time>2026-09-01T20:00:11Z</time>
  <course>175.52</course>
  <speed>25.8</speed>
  <fix>3d</fix>
</trkpt>
<trkpt lat="-35.2800956" lon="148.9855973">
  <ele>695.37</ele>
  <time>2026-09-01T20:00:11Z</time>
  <course>176.43</course>
  <speed>25.804544173459064</speed>
  <fix>3d</fix>
</trkpt>
<trkpt lat="-35.280051" lon="148.9855935">
  <ele>695.24</ele>
  <time>2026-09-01T20:00:11Z</time>
  <course>175.53</course>
  <speed>25.8</speed>
  <fix>3d</fix>
</trkpt>
<trkpt lat="-35.2801187" lon="148.9855995">
  <ele>695.45</ele>
  <time>2026-09-01T20:00:11Z</time>
  <course>176.45</course>
  <speed>25.803786543838875</speed>
  <fix>3d</fix>
</trkpt>
<trkpt lat="-35.280051" lon="148.9855935">
  <ele>695.24</ele>
  <time>2026-09-01T20:00:11Z</time>
  <course>175.53</course>
  <speed>25.8</speed>
  <fix>3d</fix>
</trkpt>
<trkpt lat="-35.2801418" lon="148.9856017">
  <ele>695.53</ele>
  <time>2026-09-01T20:00:11Z</time>
  <course>176.46</course>
  <speed>25.803786543838875</speed>
  <fix>3d</fix>
</trkpt>
<trkpt lat="-35.2800973" lon="148.9855979">
  <ele>695.41</ele>
  <time>2026-09-01T20:00:11Z</time>
  <course>175.55</course>
  <speed>25.8</speed>
  <fix>3d</fix>
</trkpt>
<trkpt lat="-35.2801649" lon="148.9856039">
  <ele>695.61</ele>
  <time>2026-09-01T20:00:11Z</time>
  <course>176.47</course>
  <speed>25.79381515014791</speed>
  <fix>3d</fix>
</trkpt>
<trkpt lat="-35.2800973" lon="148.9855979">
  <ele>695.41</ele>
  <time>2026-09-01T20:00:11Z</time>
  <course>175.55</course>
  <speed>25.8</speed>
  <fix>3d</fix>
</trkpt>
<trkpt lat="-35.280188" lon="148.9856061">
  <ele>695.7</ele>
  <time>2026-09-01T20:00:11Z</time>
  <course>176.46</course>
  <speed>25.79381515014791</speed>
  <fix>3d</fix>
</trkpt>
<trkpt lat="-35.2801435" lon="148.9856024">
  <ele>695.57</ele>
  <time>2026-09-01T20:00:11Z</time>
  <course>175.56</course>
  <speed>25.8</speed>
  <fix>3d</fix>
</trkpt>
<trkpt lat="-35.2802112" lon="148.9856082">
  <ele>695.79</ele>
  <time>2026-09-01T20:00:11Z</time>
  <course>176.47</course>
  <speed>25.79381515014791</speed>
  <fix>3d</fix>
</trkpt>
<trkpt lat="-35.2801435" lon="148.9856024">
  <ele>695.57</ele>
  <time>2026-09-01T20:00:11Z</time>
  <course>175.56</course>
  <speed>25.8</speed>
  <fix>3d</fix>
</trkpt>
<trkpt lat="-35.2802343" lon="148.9856104">
  <ele>695.89</ele>
  <time>2026-09-01T20:00:11Z</time>
  <course>176.49</course>
  <speed>25.793061082391908</speed>
  <fix>3d</fix>
</trkpt>
<trkpt lat="-35.2801897" lon="148.9856067">
  <ele>695.75</ele>
  <time>2026-09-01T20:00:11Z</time>
  <course>175.57</course>
  <speed>25.8</speed>
  <fix>3d</fix>
</trkpt>
<trkpt lat="-35.2802574" lon="148.9856126">
  <ele>695.98</ele>
  <time>2026-09-01T20:00:11Z</time>
  <course>176.48</course>
  <speed>25.793061082391908</speed>
  <fix>3d</fix>
</trkpt>
<trkpt lat="-35.2801897" lon="148.9856067">
  <ele>695.75</ele>
  <time>2026-09-01T20:00:11Z</time>
  <course>175.57</course>
  <speed>25.8</speed>
  <fix>3d</fix>
</trkpt>
<trkpt lat="-35.2802805" lon="148.9856148">
  <ele>696.08</ele>
  <time>2026-09-01T20:00:11Z</time>
  <course>176.44</course>
  <speed>25.793061082391908</speed>
  <fix>3d</fix>
</trkpt>
<trkpt lat="-35.2802359" lon="148.985611">
  <ele>695.93</ele>
  <time>2026-09-01T20:00:11Z</time>
  <course>175.58</course>
  <speed>25.8</speed>
  <fix>3d</fix>
</trkpt>
<trkpt lat="-35.2803036" lon="148.985617">
  <ele>696.19</ele>
  <time>2026-09-01T20:00:11Z</time>
  <course>176.42</course>
  <speed>25.783089419229803</speed>
  <fix>3d</fix>
</trkpt>
<trkpt lat="-35.2802359" lon="148.985611">
  <ele>695.93</ele>
  <time>2026-09-01T20:00:11Z</time>
  <course>175.58</course>
  <speed>25.8</speed>
  <fix>3d</fix>
</trkpt>
<trkpt lat="-35.2803267" lon="148.9856192">
  <ele>696.29</ele>
  <time>2026-09-01T20:00:11Z</time>
  <course>176.42</course>
  <speed>25.783089419229803</speed>
  <fix>3d</fix>
</trkpt>
<trkpt lat="-35.2802821" lon="148.9856155">
  <ele>696.13</ele>
  <time>2026-09-01T20:00:11Z</time>
  <course>175.59</course>
  <speed>25.79</speed>
  <fix>3d</fix>
</trkpt>
<trkpt lat="-35.2803498" lon="148.9856213">
  <ele>696.4</ele>
  <time>2026-09-01T20:00:11Z</time>
  <course>176.47</course>
  <speed>25.783089419229803</speed>
  <fix>3d</fix>
</trkpt>
<trkpt lat="-35.2802821" lon="148.9856155">
  <ele>696.13</ele>
  <time>2026-09-01T20:00:11Z</time>
  <course>175.59</course>
  <speed>25.79</speed>
  <fix>3d</fix>
</trkpt>
<trkpt lat="-35.2803729" lon="148.9856235">
  <ele>696.51</ele>
  <time>2026-09-01T20:00:11Z</time>
  <course>176.56</course>
  <speed>25.773117778026002</speed>
  <fix>3d</fix>
</trkpt>
<trkpt lat="-35.2803283" lon="148.9856198">
  <ele>696.33</ele>
  <time>2026-09-01T20:00:11Z</time>
  <course>175.59</course>
  <speed>25.79</speed>
  <fix>3d</fix>
</trkpt>
<trkpt lat="-35.2803962" lon="148.9856257">
  <ele>696.62</ele>
  <time>2026-09-01T20:00:11Z</time>
  <course>176.51</course>
  <speed>25.772366984815346</speed>
  <fix>3d</fix>
</trkpt>
<trkpt lat="-35.2803283" lon="148.9856198">
  <ele>696.33</ele>
  <time>2026-09-01T20:00:11Z</time>
  <course>175.59</course>
  <speed>25.79</speed>
  <fix>3d</fix>
</trkpt>
<trkpt lat="-35.2804192" lon="148.9856279">
  <ele>696.74</ele>
  <time>2026-09-01T20:00:11Z</time>
  <course>176.47</course>
  <speed>25.76239507499254</speed>
  <fix>3d</fix>
</trkpt>
<trkpt lat="-35.2803745" lon="148.9856242">
  <ele>696.55</ele>
  <time>2026-09-01T20:00:11Z</time>
  <course>175.59</course>
  <speed>25.79</speed>
  <fix>3d</fix>
</trkpt>
<trkpt lat="-35.2804423" lon="148.9856301">
  <ele>696.87</ele>
  <time>2026-09-01T20:00:11Z</time>
  <course>176.41</course>
  <speed>25.753174561595316</speed>
  <fix>3d</fix>
</trkpt>
<trkpt lat="-35.2803745" lon="148.9856242">
  <ele>696.55</ele>
  <time>2026-09-01T20:00:11Z</time>
  <course>175.59</course>
  <speed>25.79</speed>
  <fix>3d</fix>
</trkpt>
<trkpt lat="-35.2804654" lon="148.9856323">
  <ele>697.0</ele>
  <time>2026-09-01T20:00:11Z</time>
  <course>176.44</course>
  <speed>25.753174561595316</speed>
  <fix>3d</fix>
</trkpt>
<trkpt lat="-35.2804207" lon="148.9856285">
  <ele>696.79</ele>
  <time>2026-09-01T20:00:11Z</time>
  <course>175.6</course>
  <speed>25.78</speed>
  <fix>3d</fix>
</trkpt>
<trkpt lat="-35.2804884" lon="148.9856344">
  <ele>697.13</ele>
  <time>2026-09-01T20:00:11Z</time>
  <course>176.5</course>
  <speed>25.743202986419544</speed>
  <fix>3d</fix>
</trkpt>
<trkpt lat="-35.2804207" lon="148.9856285">
  <ele>696.79</ele>
  <time>2026-09-01T20:00:11Z</time>
  <course>175.6</course>
  <speed>25.78</speed>
  <fix>3d</fix>
</trkpt>
<trkpt lat="-35.2805115" lon="148.9856366">
  <ele>697.26</ele>
  <time>2026-09-01T20:00:11Z</time>
  <course>176.52</course>
  <speed>25.743202986419544</speed>
  <fix>3d</fix>
</trkpt>
<trkpt lat="-35.2804668" lon="148.9856328">
  <ele>697.03</ele>
  <time>2026-09-01T20:00:11Z</time>
  <course>175.59</course>
  <speed>25.77</speed>
  <fix>3d</fix>
</trkpt>
<trkpt lat="-35.2805345" lon="148.9856388">
  <ele>697.39</ele>
  <time>2026-09-01T20:00:11Z</time>
  <course>176.56</course>
  <speed>25.732479476334962</speed>
  <fix>3d</fix>
</trkpt>
<trkpt lat="-35.2804668" lon="148.9856328">
  <ele>697.03</ele>
  <time>2026-09-01T20:00:11Z</time>
  <course>175.59</course>
  <speed>25.77</speed>
  <fix>3d</fix>
</trkpt>
<trkpt lat="-35.2805575" lon="148.985641">
  <ele>697.53</ele>
  <time>2026-09-01T20:00:11Z</time>
  <course>176.5</course>
  <speed>25.722507653803895</speed>
  <fix>3d</fix>
</trkpt>
<trkpt lat="-35.280513" lon="148.9856372">
  <ele>697.29</ele>
  <time>2026-09-01T20:00:11Z</time>
  <course>175.59</course>
  <speed>25.76</speed>
  <fix>3d</fix>
</trkpt>
<trkpt lat="-35.2805806" lon="148.9856431">
  <ele>697.67</ele>
  <time>2026-09-01T20:00:11Z</time>
  <course>176.49</course>
  <speed>25.712535853159252</speed>
  <fix>3d</fix>
</trkpt>
<trkpt lat="-35.280513" lon="148.9856372">
  <ele>697.29</ele>
  <time>2026-09-01T20:00:11Z</time>
  <course>175.59</course>
  <speed>25.76</speed>
  <fix>3d</fix>
</trkpt>
<trkpt lat="-35.2806036" lon="148.9856453">
  <ele>697.8</ele>
  <time>2026-09-01T20:00:11Z</time>
  <course>176.48</course>
  <speed>25.692592317631167</speed>
  <fix>3d</fix>
</trkpt>
<trkpt lat="-35.2805592" lon="148.9856416">
  <ele>697.55</ele>
  <time>2026-09-01T20:00:11Z</time>
  <course>175.6</course>
  <speed>25.74</speed>
  <fix>3d</fix>
</trkpt>
<trkpt lat="-35.2806266" lon="148.9856475">
  <ele>697.94</ele>
  <time>2026-09-01T20:00:11Z</time>
  <course>176.45</course>
  <speed>25.693345441962204</speed>
  <fix>3d</fix>
</trkpt>
<trkpt lat="-35.2805592" lon="148.9856416">
  <ele>697.55</ele>
  <time>2026-09-01T20:00:11Z</time>
  <course>175.6</course>
  <speed>25.74</speed>
  <fix>3d</fix>
</trkpt>
<trkpt lat="-35.2806496" lon="148.9856496">
  <ele>698.08</ele>
  <time>2026-09-01T20:00:11Z</time>
  <course>176.55</course>
  <speed>25.68262058279879</speed>
  <fix>3d</fix>
</trkpt>
<trkpt lat="-35.2806054" lon="148.9856459">
  <ele>697.82</ele>
  <time>2026-09-01T20:00:11Z</time>
  <course>175.59</course>
  <speed>25.72</speed>
  <fix>3d</fix>
</trkpt>
<trkpt lat="-35.2806726" lon="148.9856518">
  <ele>698.22</ele>
  <time>2026-09-01T20:00:11Z</time>
  <course>176.57</course>
  <speed>25.672648869954966</speed>
  <fix>3d</fix>
</trkpt>
<trkpt lat="-35.2806054" lon="148.9856459">
  <ele>697.82</ele>
  <time>2026-09-01T20:00:11Z</time>
  <course>175.59</course>
  <speed>25.72</speed>
  <fix>3d</fix>
</trkpt>
<trkpt lat="-35.2806957" lon="148.985654">
  <ele>698.35</ele>
  <time>2026-09-01T20:00:11Z</time>
  <course>176.55</course>
  <speed>25.671899033768423</speed>
  <fix>3d</fix>
</trkpt>
<trkpt lat="-35.2806514" lon="148.9856502">
  <ele>698.09</ele>
  <time>2026-09-01T20:00:11Z</time>
  <course>175.59</course>
  <speed>25.71</speed>
  <fix>3d</fix>
</trkpt>
<trkpt lat="-35.2807187" lon="148.9856561">
  <ele>698.48</ele>
  <time>2026-09-01T20:00:11Z</time>
  <course>176.55</course>
  <speed>25.651955091181648</speed>
  <fix>3d</fix>
</trkpt>
<trkpt lat="-35.2806514" lon="148.9856502">
  <ele>698.09</ele>
  <time>2026-09-01T20:00:11Z</time>
  <course>175.59</course>
  <speed>25.71</speed>
  <fix>3d</fix>
</trkpt>
<trkpt lat="-35.2807417" lon="148.9856583">
  <ele>698.61</ele>
  <time>2026-09-01T20:00:11Z</time>
  <course>176.53</course>
  <speed>25.651955091181648</speed>
  <fix>3d</fix>
</trkpt>
<trkpt lat="-35.2806975" lon="148.9856546">
  <ele>698.36</ele>
  <time>2026-09-01T20:00:11Z</time>
  <course>175.6</course>
  <speed>25.69</speed>
  <fix>3d</fix>
</trkpt>
<trkpt lat="-35.2807647" lon="148.9856605">
  <ele>698.74</ele>
  <time>2026-09-01T20:00:11Z</time>
  <course>176.53</course>
  <speed>25.641983152634666</speed>
  <fix>3d</fix>
</trkpt>
<trkpt lat="-35.2806975" lon="148.9856546">
  <ele>698.36</ele>
  <time>2026-09-01T20:00:11Z</time>
  <course>175.6</course>
  <speed>25.69</speed>
  <fix>3d</fix>
</trkpt>
<trkpt lat="-35.2807877" lon="148.9856626">
  <ele>698.86</ele>
  <time>2026-09-01T20:00:11Z</time>
  <course>176.51</course>
  <speed>25.651955091181648</speed>
  <fix>3d</fix>
</trkpt>
<trkpt lat="-35.2807435" lon="148.9856589">
  <ele>698.62</ele>
  <time>2026-09-01T20:00:11Z</time>
  <course>175.61</course>
  <speed>25.68</speed>
  <fix>3d</fix>
</trkpt>
<trkpt lat="-35.2808107" lon="148.9856648">
  <ele>698.98</ele>
  <time>2026-09-01T20:00:11Z</time>
  <course>176.51</course>
  <speed>25.651955091181648</speed>
  <fix>3d</fix>
</trkpt>
<trkpt lat="-35.2807435" lon="148.9856589">
  <ele>698.62</ele>
  <time>2026-09-01T20:00:11Z</time>
  <course>175.61</course>
  <speed>25.68</speed>
  <fix>3d</fix>
</trkpt>
<trkpt lat="-35.2808337" lon="148.9856669">
  <ele>699.09</ele>
  <time>2026-09-01T20:00:11Z</time>
  <course>176.52</course>
  <speed>25.641983152634666</speed>
  <fix>3d</fix>
</trkpt>
<trkpt lat="-35.2807895" lon="148.9856632">
  <ele>698.87</ele>
  <time>2026-09-01T20:00:11Z</time>
  <course>175.61</course>
  <speed>25.68</speed>
  <fix>3d</fix>
</trkpt>
<trkpt lat="-35.2808567" lon="148.9856691">
  <ele>699.21</ele>
  <time>2026-09-01T20:00:11Z</time>
  <course>176.55</course>
  <speed>25.641983152634666</speed>
  <fix>3d</fix>
</trkpt>
<trkpt lat="-35.2807895" lon="148.9856632">
  <ele>698.87</ele>
  <time>2026-09-01T20:00:11Z</time>
  <course>175.61</course>
  <speed>25.68</speed>
  <fix>3d</fix>
</trkpt>
<trkpt lat="-35.2808795" lon="148.9856712">
  <ele>699.31</ele>
  <time>2026-09-01T20:00:11Z</time>
  <course>176.59</course>
  <speed>25.65120854852652</speed>
  <fix>3d</fix>
</trkpt>
<trkpt lat="-35.2808354" lon="148.9856676">
  <ele>699.1</ele>
  <time>2026-09-01T20:00:11Z</time>
  <course>175.62</course>
  <speed>25.68</speed>
  <fix>3d</fix>
</trkpt>
<trkpt lat="-35.2809025" lon="148.9856734">
  <ele>699.42</ele>
  <time>2026-09-01T20:00:11Z</time>
  <course>176.57</course>
  <speed>25.65046588270864</speed>
  <fix>3d</fix>
</trkpt>
<trkpt lat="-35.2808354" lon="148.9856676">
  <ele>699.1</ele>
  <time>2026-09-01T20:00:11Z</time>
  <course>175.62</course>
  <speed>25.68</speed>
  <fix>3d</fix>
</trkpt>
<trkpt lat="-35.2809255" lon="148.9856755">
  <ele>699.53</ele>
  <time>2026-09-01T20:00:11Z</time>
  <course>176.44</course>
  <speed>25.65046588270864</speed>
  <fix>3d</fix>
</trkpt>
<trkpt lat="-35.2808814" lon="148.9856719">
  <ele>699.32</ele>
  <time>2026-09-01T20:00:11Z</time>
  <course>175.65</course>
  <speed>25.68</speed>
  <fix>3d</fix>
</trkpt>
<trkpt lat="-35.2809488" lon="148.9856777">
  <ele>699.63</ele>
  <time>2026-09-01T20:00:11Z</time>
  <course>176.41</course>
  <speed>25.660438421819684</speed>
  <fix>3d</fix>
</trkpt>
<trkpt lat="-35.2808814" lon="148.9856719">
  <ele>699.32</ele>
  <time>2026-09-01T20:00:11Z</time>
  <course>175.65</course>
  <speed>25.68</speed>
  <fix>3d</fix>
</trkpt>
<trkpt lat="-35.2809718" lon="148.9856798">
  <ele>699.74</ele>
  <time>2026-09-01T20:00:11Z</time>
  <course>176.47</course>
  <speed>25.66118079902014</speed>
  <fix>3d</fix>
</trkpt>
<trkpt lat="-35.2809274" lon="148.9856761">
  <ele>699.53</ele>
  <time>2026-09-01T20:00:11Z</time>
  <course>175.67</course>
  <speed>25.68</speed>
  <fix>3d</fix>
</trkpt>
<trkpt lat="-35.2809948" lon="148.985682">
  <ele>699.84</ele>
  <time>2026-09-01T20:00:11Z</time>
  <course>176.55</course>
  <speed>25.67115307110298</speed>
  <fix>3d</fix>
</trkpt>
<trkpt lat="-35.2809274" lon="148.9856761">
  <ele>699.53</ele>
  <time>2026-09-01T20:00:11Z</time>
  <course>175.67</course>
  <speed>25.68</speed>
  <fix>3d</fix>
</trkpt>
<trkpt lat="-35.2810178" lon="148.9856841">
  <ele>699.95</ele>
  <time>2026-09-01T20:00:11Z</time>
  <course>176.61</course>
  <speed>25.670410982296332</speed>
  <fix>3d</fix>
</trkpt>
<trkpt lat="-35.2809735" lon="148.9856804">
  <ele>699.74</ele>
  <time>2026-09-01T20:00:11Z</time>
  <course>175.66</course>
  <speed>25.69</speed>
  <fix>3d</fix>
</trkpt>
<trkpt lat="-35.2810408" lon="148.9856862">
  <ele>700.06</ele>
  <time>2026-09-01T20:00:11Z</time>
  <course>176.56</course>
  <speed>25.670410982296332</speed>
  <fix>3d</fix>
</trkpt>
<trkpt lat="-35.2809735" lon="148.9856804">
  <ele>699.74</ele>
  <time>2026-09-01T20:00:11Z</time>
  <course>175.66</course>
  <speed>25.69</speed>
  <fix>3d</fix>
</trkpt>
<trkpt lat="-35.2810639" lon="148.9856884">
  <ele>700.17</ele>
  <time>2026-09-01T20:00:11Z</time>
  <course>176.55</course>
  <speed>25.680383564113683</speed>
  <fix>3d</fix>
</trkpt>
<trkpt lat="-35.2810196" lon="148.9856847">
  <ele>699.96</ele>
  <time>2026-09-01T20:00:11Z</time>
  <course>175.66</course>
  <speed>25.7</speed>
  <fix>3d</fix>
</trkpt>
<trkpt lat="-35.2810869" lon="148.9856905">
  <ele>700.28</ele>
  <time>2026-09-01T20:00:11Z</time>
  <course>176.55</course>
  <speed>25.689618525778073</speed>
  <fix>3d</fix>
</trkpt>
<trkpt lat="-35.2810196" lon="148.9856847">
  <ele>699.96</ele>
  <time>2026-09-01T20:00:11Z</time>
  <course>175.66</course>
  <speed>25.7</speed>
  <fix>3d</fix>
</trkpt>
<trkpt lat="-35.2811099" lon="148.9856926">
  <ele>700.4</ele>
  <time>2026-09-01T20:00:11Z</time>
  <course>176.6</course>
  <speed>25.690356167246883</speed>
  <fix>3d</fix>
</trkpt>
<trkpt lat="-35.2810657" lon="148.9856889">
  <ele>700.19</ele>
  <time>2026-09-01T20:00:11Z</time>
  <course>175.69</course>
  <speed>25.71</speed>
  <fix>3d</fix>
</trkpt>
<trkpt lat="-35.2811329" lon="148.9856948">
  <ele>700.52</ele>
  <time>2026-09-01T20:00:11Z</time>
  <course>176.63</course>
  <speed>25.689618525778073</speed>
  <fix>3d</fix>
</trkpt>
<trkpt lat="-35.2810657" lon="148.9856889">
  <ele>700.19</ele>
  <time>2026-09-01T20:00:11Z</time>
  <course>175.69</course>
  <speed>25.71</speed>
  <fix>3d</fix>
</trkpt>
<trkpt lat="-35.281156" lon="148.9856969">
  <ele>700.65</ele>
  <time>2026-09-01T20:00:11Z</time>
  <course>176.6</course>
  <speed>25.699591436441164</speed>
  <fix>3d</fix>
</trkpt>
<trkpt lat="-35.2811118" lon="148.9856932">
  <ele>700.42</ele>
  <time>2026-09-01T20:00:11Z</time>
  <course>175.7</course>
  <speed>25.72</speed>
  <fix>3d</fix>
</trkpt>
<trkpt lat="-35.281179" lon="148.985699">
  <ele>700.78</ele>
  <time>2026-09-01T20:00:11Z</time>
  <course>176.59</course>
  <speed>25.699591436441164</speed>
  <fix>3d</fix>
</trkpt>
<trkpt lat="-35.2811118" lon="148.9856932">
  <ele>700.42</ele>
  <time>2026-09-01T20:00:11Z</time>
  <course>175.7</course>
  <speed>25.72</speed>
  <fix>3d</fix>
</trkpt>
<trkpt lat="-35.2812021" lon="148.9857011">
  <ele>700.91</ele>
  <time>2026-09-01T20:00:11Z</time>
  <course>176.63</course>
  <speed>25.70883116751907</speed>
  <fix>3d</fix>
</trkpt>
<trkpt lat="-35.2811578" lon="148.9856975">
  <ele>700.67</ele>
  <time>2026-09-01T20:00:11Z</time>
  <course>175.71</course>
  <speed>25.73</speed>
  <fix>3d</fix>
</trkpt>
<trkpt lat="-35.2812251" lon="148.9857032">
  <ele>701.04</ele>
  <time>2026-09-01T20:00:11Z</time>
  <course>176.62</course>
  <speed>25.698857951278693</speed>
  <fix>3d</fix>
</trkpt>
<trkpt lat="-35.2811578" lon="148.9856975">
  <ele>700.67</ele>
  <time>2026-09-01T20:00:11Z</time>
  <course>175.71</course>
  <speed>25.73</speed>
  <fix>3d</fix>
</trkpt>
<trkpt lat="-35.2812482" lon="148.9857053">
  <ele>701.18</ele>
  <time>2026-09-01T20:00:11Z</time>
  <course>176.63</course>
  <speed>25.698857951278693</speed>
  <fix>3d</fix>
</trkpt>
<trkpt lat="-35.2812039" lon="148.9857017">
  <ele>700.93</ele>
  <time>2026-09-01T20:00:11Z</time>
  <course>175.72</course>
  <speed>25.74</speed>
  <fix>3d</fix>
</trkpt>
<trkpt lat="-35.2812713" lon="148.9857074">
  <ele>701.32</ele>
  <time>2026-09-01T20:00:11Z</time>
  <course>176.66</course>
  <speed>25.698857951278693</speed>
  <fix>3d</fix>
</trkpt>
<trkpt lat="-35.2812039" lon="148.9857017">
  <ele>700.93</ele>
  <time>2026-09-01T20:00:11Z</time>
  <course>175.72</course>
  <speed>25.74</speed>
  <fix>3d</fix>
</trkpt>
<trkpt lat="-35.2812943" lon="148.9857095">
  <ele>701.47</ele>
  <time>2026-09-01T20:00:11Z</time>
  <course>176.68</course>
  <speed>25.70883116751907</speed>
  <fix>3d</fix>
</trkpt>
<trkpt lat="-35.28125" lon="148.9857058">
  <ele>701.2</ele>
  <time>2026-09-01T20:00:11Z</time>
  <course>175.72</course>
  <speed>25.74</speed>
  <fix>3d</fix>
</trkpt>
<trkpt lat="-35.2813174" lon="148.9857116">
  <ele>701.61</ele>
  <time>2026-09-01T20:00:11Z</time>
  <course>176.63</course>
  <speed>25.70810183580266</speed>
  <fix>3d</fix>
</trkpt>
<trkpt lat="-35.28125" lon="148.9857058">
  <ele>701.2</ele>
  <time>2026-09-01T20:00:11Z</time>
  <course>175.72</course>
  <speed>25.74</speed>
  <fix>3d</fix>
</trkpt>
<trkpt lat="-35.2813404" lon="148.9857138">
  <ele>701.76</ele>
  <time>2026-09-01T20:00:11Z</time>
  <course>176.57</course>
  <speed>25.70883116751907</speed>
  <fix>3d</fix>
</trkpt>
<trkpt lat="-35.2812961" lon="148.9857101">
  <ele>701.49</ele>
  <time>2026-09-01T20:00:11Z</time>
  <course>175.73</course>
  <speed>25.74</speed>
  <fix>3d</fix>
</trkpt>
<trkpt lat="-35.2813633" lon="148.9857158">
  <ele>701.9</ele>
  <time>2026-09-01T20:00:11Z</time>
  <course>176.59</course>
  <speed>25.70883116751907</speed>
  <fix>3d</fix>
</trkpt>
<trkpt lat="-35.2812961" lon="148.9857101">
  <ele>701.49</ele>
  <time>2026-09-01T20:00:11Z</time>
  <course>175.73</course>
  <speed>25.74</speed>
  <fix>3d</fix>
</trkpt>
<trkpt lat="-35.2813863" lon="148.985718">
  <ele>702.06</ele>
  <time>2026-09-01T20:00:11Z</time>
  <course>176.65</course>
  <speed>25.709564368149064</speed>
  <fix>3d</fix>
</trkpt>
<trkpt lat="-35.2813423" lon="148.9857143">
  <ele>701.78</ele>
  <time>2026-09-01T20:00:11Z</time>
  <course>175.72</course>
  <speed>25.74</speed>
  <fix>3d</fix>
</trkpt>
<trkpt lat="-35.2814094" lon="148.9857201">
  <ele>702.22</ele>
  <time>2026-09-01T20:00:11Z</time>
  <course>176.7</course>
  <speed>25.699591436441164</speed>
  <fix>3d</fix>
</trkpt>
<trkpt lat="-35.2813423" lon="148.9857143">
  <ele>701.78</ele>
  <time>2026-09-01T20:00:11Z</time>
  <course>175.72</course>
  <speed>25.74</speed>
  <fix>3d</fix>
</trkpt>
<trkpt lat="-35.2814324" lon="148.9857222">
  <ele>702.38</ele>
  <time>2026-09-01T20:00:11Z</time>
  <course>176.72</course>
  <speed>25.698857951278693</speed>
  <fix>3d</fix>
</trkpt>
<trkpt lat="-35.2813884" lon="148.9857185">
  <ele>702.08</ele>
  <time>2026-09-01T20:00:11Z</time>
  <course>175.71</course>
  <speed>25.74</speed>
  <fix>3d</fix>
</trkpt>
<trkpt lat="-35.2814557" lon="148.9857243">
  <ele>702.55</ele>
  <time>2026-09-01T20:00:11Z</time>
  <course>176.71</course>
  <speed>25.698128336515094</speed>
  <fix>3d</fix>
</trkpt>
<trkpt lat="-35.2813884" lon="148.9857185">
  <ele>702.08</ele>
  <time>2026-09-01T20:00:11Z</time>
  <course>175.71</course>
  <speed>25.74</speed>
  <fix>3d</fix>
</trkpt>
<trkpt lat="-35.2814787" lon="148.9857264">
  <ele>702.71</ele>
  <time>2026-09-01T20:00:11Z</time>
  <course>176.71</course>
  <speed>25.698128336515094</speed>
  <fix>3d</fix>
</trkpt>
<trkpt lat="-35.2814345" lon="148.9857228">
  <ele>702.4</ele>
  <time>2026-09-01T20:00:11Z</time>
  <course>175.72</course>
  <speed>25.74</speed>
  <fix>3d</fix>
</trkpt>
<trkpt lat="-35.2815018" lon="148.9857285">
  <ele>702.88</ele>
  <time>2026-09-01T20:00:11Z</time>
  <course>176.71</course>
  <speed>25.687428832018202</speed>
  <fix>3d</fix>
</trkpt>
<trkpt lat="-35.2814345" lon="148.9857228">
  <ele>702.4</ele>
  <time>2026-09-01T20:00:11Z</time>
  <course>175.72</course>
  <speed>25.74</speed>
  <fix>3d</fix>
</trkpt>
<trkpt lat="-35.2815248" lon="148.9857306">
  <ele>703.05</ele>
  <time>2026-09-01T20:00:11Z</time>
  <course>176.73</course>
  <speed>25.687428832018202</speed>
  <fix>3d</fix>
</trkpt>
<trkpt lat="-35.2814806" lon="148.985727">
  <ele>702.73</ele>
  <time>2026-09-01T20:00:11Z</time>
  <course>175.74</course>
  <speed>25.73</speed>
  <fix>3d</fix>
</trkpt>
<trkpt lat="-35.2815478" lon="148.9857327">
  <ele>703.21</ele>
  <time>2026-09-01T20:00:11Z</time>
  <course>176.74</course>
  <speed>25.67745509196735</speed>
  <fix>3d</fix>
</trkpt>
<trkpt lat="-35.2814806" lon="148.985727">
  <ele>702.73</ele>
  <time>2026-09-01T20:00:11Z</time>
  <course>175.74</course>
  <speed>25.73</speed>
  <fix>3d</fix>
</trkpt>
<trkpt lat="-35.2815711" lon="148.9857348">
  <ele>703.38</ele>
  <time>2026-09-01T20:00:11Z</time>
  <course>176.7</course>
  <speed>25.676732658186864</speed>
  <fix>3d</fix>
</trkpt>
<trkpt lat="-35.2815268" lon="148.9857311">
  <ele>703.06</ele>
  <time>2026-09-01T20:00:11Z</time>
  <course>175.75</course>
  <speed>25.72</speed>
  <fix>3d</fix>
</trkpt>
<trkpt lat="-35.2815941" lon="148.9857369">
  <ele>703.55</ele>
  <time>2026-09-01T20:00:11Z</time>
  <course>176.63</course>
  <speed>25.676732658186864</speed>
  <fix>3d</fix>
</trkpt>
<trkpt lat="-35.2815268" lon="148.9857311">
  <ele>703.06</ele>
  <time>2026-09-01T20:00:11Z</time>
  <course>175.75</course>
  <speed>25.72</speed>
  <fix>3d</fix>
</trkpt>
<trkpt lat="-35.281617" lon="148.9857389">
  <ele>703.71</ele>
  <time>2026-09-01T20:00:11Z</time>
  <course>176.55</course>
  <speed>25.666758657843808</speed>
  <fix>3d</fix>
</trkpt>
<trkpt lat="-35.2815729" lon="148.9857354">
  <ele>703.39</ele>
  <time>2026-09-01T20:00:11Z</time>
  <course>175.77</course>
  <speed>25.71</speed>
  <fix>3d</fix>
</trkpt>
<trkpt lat="-35.28164" lon="148.985741">
  <ele>703.87</ele>
  <time>2026-09-01T20:00:11Z</time>
  <course>176.63</course>
  <speed>25.66748137235128</speed>
  <fix>3d</fix>
</trkpt>
<trkpt lat="-35.2815729" lon="148.9857354">
  <ele>703.39</ele>
  <time>2026-09-01T20:00:11Z</time>
  <course>175.77</course>
  <speed>25.71</speed>
  <fix>3d</fix>
</trkpt>
<trkpt lat="-35.2816629" lon="148.9857431">
  <ele>704.02</ele>
  <time>2026-09-01T20:00:11Z</time>
  <course>176.69</course>
  <speed>25.657507673193827</speed>
  <fix>3d</fix>
</trkpt>
<trkpt lat="-35.281619" lon="148.9857395">
  <ele>703.71</ele>
  <time>2026-09-01T20:00:11Z</time>
  <course>175.77</course>
  <speed>25.71</speed>
  <fix>3d</fix>
</trkpt>
<trkpt lat="-35.2816857" lon="148.9857452">
  <ele>704.16</ele>
  <time>2026-09-01T20:00:11Z</time>
  <course>176.74</course>
  <speed>25.657507673193827</speed>
  <fix>3d</fix>
</trkpt>
<trkpt lat="-35.281619" lon="148.9857395">
  <ele>703.71</ele>
  <time>2026-09-01T20:00:11Z</time>
  <course>175.77</course>
  <speed>25.71</speed>
  <fix>3d</fix>
</trkpt>
<trkpt lat="-35.2817086" lon="148.9857473">
  <ele>704.3</ele>
  <time>2026-09-01T20:00:11Z</time>
  <course>176.79</course>
  <speed>25.646810717904085</speed>
  <fix>3d</fix>
</trkpt>
<trkpt lat="-35.281665" lon="148.9857438">
  <ele>704.02</ele>
  <time>2026-09-01T20:00:11Z</time>
  <course>175.76</course>
  <speed>25.7</speed>
  <fix>3d</fix>
</trkpt>
<trkpt lat="-35.2817315" lon="148.9857493">
  <ele>704.43</ele>
  <time>2026-09-01T20:00:11Z</time>
  <course>176.7</course>
  <speed>25.646810717904085</speed>
  <fix>3d</fix>
</trkpt>
<trkpt lat="-35.281665" lon="148.9857438">
  <ele>704.02</ele>
  <time>2026-09-01T20:00:11Z</time>
  <course>175.76</course>
  <speed>25.7</speed>
  <fix>3d</fix>
</trkpt>
<trkpt lat="-35.2817544" lon="148.9857514">
  <ele>704.56</ele>
  <time>2026-09-01T20:00:11Z</time>
  <course>176.64</course>
  <speed>25.646810717904085</speed>
  <fix>3d</fix>
</trkpt>
<trkpt lat="-35.281711" lon="148.9857479">
  <ele>704.3</ele>
  <time>2026-09-01T20:00:11Z</time>
  <course>175.76</course>
  <speed>25.7</speed>
  <fix>3d</fix>
</trkpt>
<trkpt lat="-35.2817773" lon="148.9857535">
  <ele>704.69</ele>
  <time>2026-09-01T20:00:11Z</time>
  <course>176.67</course>
  <speed>25.64753399451885</speed>
  <fix>3d</fix>
</trkpt>
<trkpt lat="-35.281711" lon="148.9857479">
  <ele>704.3</ele>
  <time>2026-09-01T20:00:11Z</time>
  <course>175.76</course>
  <speed>25.7</speed>
  <fix>3d</fix>
</trkpt>
<trkpt lat="-35.2818002" lon="148.9857556">
  <ele>704.81</ele>
  <time>2026-09-01T20:00:11Z</time>
  <course>176.67</course>
  <speed>25.648261149637413</speed>
  <fix>3d</fix>
</trkpt>
<trkpt lat="-35.2817571" lon="148.9857521">
  <ele>704.57</ele>
  <time>2026-09-01T20:00:11Z</time>
  <course>175.76</course>
  <speed>25.71</speed>
  <fix>3d</fix>
</trkpt>
<trkpt lat="-35.2818229" lon="148.9857576">
  <ele>704.93</ele>
  <time>2026-09-01T20:00:11Z</time>
  <course>176.67</course>
  <speed>25.648261149637413</speed>
  <fix>3d</fix>
</trkpt>
<trkpt lat="-35.2817571" lon="148.9857521">
  <ele>704.57</ele>
  <time>2026-09-01T20:00:11Z</time>
  <course>175.76</course>
  <speed>25.71</speed>
  <fix>3d</fix>
</trkpt>
<trkpt lat="-35.2818458" lon="148.9857597">
  <ele>705.04</ele>
  <time>2026-09-01T20:00:11Z</time>
  <course>176.61</course>
  <speed>25.658965294804858</speed>
  <fix>3d</fix>
</trkpt>
<trkpt lat="-35.2818032" lon="148.9857563">
  <ele>704.81</ele>
  <time>2026-09-01T20:00:11Z</time>
  <course>175.74</course>
  <speed>25.72</speed>
  <fix>3d</fix>
</trkpt>
<trkpt lat="-35.2818687" lon="148.9857618">
  <ele>705.15</ele>
  <time>2026-09-01T20:00:11Z</time>
  <course>176.61</course>
  <speed>25.658965294804858</speed>
  <fix>3d</fix>
</trkpt>
<trkpt lat="-35.2818032" lon="148.9857563">
  <ele>704.81</ele>
  <time>2026-09-01T20:00:11Z</time>
  <course>175.74</course>
  <speed>25.72</speed>
  <fix>3d</fix>
</trkpt>
<trkpt lat="-35.2818917" lon="148.985764">
  <ele>705.25</ele>
  <time>2026-09-01T20:00:11Z</time>
  <course>176.67</course>
  <speed>25.66893842760156</speed>
  <fix>3d</fix>
</trkpt>
<trkpt lat="-35.2818492" lon="148.9857604">
  <ele>705.04</ele>
  <time>2026-09-01T20:00:11Z</time>
  <course>175.72</course>
  <speed>25.74</speed>
  <fix>3d</fix>
</trkpt>
<trkpt lat="-35.2819147" lon="148.9857661">
  <ele>705.35</ele>
  <time>2026-09-01T20:00:11Z</time>
  <course>176.69</course>
  <speed>25.67891158129565</speed>
  <fix>3d</fix>
</trkpt>
<trkpt lat="-35.2818492" lon="148.9857604">
  <ele>705.04</ele>
  <time>2026-09-01T20:00:11Z</time>
  <course>175.72</course>
  <speed>25.74</speed>
  <fix>3d</fix>
</trkpt>
<trkpt lat="-35.2819378" lon="148.9857682">
  <ele>705.46</ele>
  <time>2026-09-01T20:00:11Z</time>
  <course>176.62</course>
  <speed>25.688884755862794</speed>
  <fix>3d</fix>
</trkpt>
<trkpt lat="-35.2818953" lon="148.9857647">
  <ele>705.26</ele>
  <time>2026-09-01T20:00:11Z</time>
  <course>175.71</course>
  <speed>25.76</speed>
  <fix>3d</fix>
</trkpt>
<trkpt lat="-35.2819608" lon="148.9857703">
  <ele>705.56</ele>
  <time>2026-09-01T20:00:11Z</time>
  <course>176.65</course>
  <speed>25.698857951278693</speed>
  <fix>3d</fix>
</trkpt>
<trkpt lat="-35.2818953" lon="148.9857647">
  <ele>705.26</ele>
  <time>2026-09-01T20:00:11Z</time>
  <course>175.71</course>
  <speed>25.76</speed>
  <fix>3d</fix>
</trkpt>
<trkpt lat="-35.2819839" lon="148.9857724">
  <ele>705.66</ele>
  <time>2026-09-01T20:00:11Z</time>
  <course>176.68</course>
  <speed>25.70883116751907</speed>
  <fix>3d</fix>
</trkpt>
<trkpt lat="-35.2819415" lon="148.985769">
  <ele>705.46</ele>
  <time>2026-09-01T20:00:11Z</time>
  <course>175.72</course>
  <speed>25.78</speed>
  <fix>3d</fix>
</trkpt>
<trkpt lat="-35.2820069" lon="148.9857745">
  <ele>705.76</ele>
  <time>2026-09-01T20:00:11Z</time>
  <course>176.66</course>
  <speed>25.71880440455971</speed>
  <fix>3d</fix>
</trkpt>
<trkpt lat="-35.2819415" lon="148.985769">
  <ele>705.46</ele>
  <time>2026-09-01T20:00:11Z</time>
  <course>175.72</course>
  <speed>25.78</speed>
  <fix>3d</fix>
</trkpt>
<trkpt lat="-35.2820299" lon="148.9857766">
  <ele>705.85</ele>
  <time>2026-09-01T20:00:11Z</time>
  <course>176.67</course>
  <speed>25.728777662376423</speed>
  <fix>3d</fix>
</trkpt>
<trkpt lat="-35.2819879" lon="148.9857731">
  <ele>705.66</ele>
  <time>2026-09-01T20:00:11Z</time>
  <course>175.72</course>
  <speed>25.8</speed>
  <fix>3d</fix>
</trkpt>
<trkpt lat="-35.282053" lon="148.9857787">
  <ele>705.94</ele>
  <time>2026-09-01T20:00:11Z</time>
  <course>176.72</course>
  <speed>25.728777662376423</speed>
  <fix>3d</fix>
</trkpt>
<trkpt lat="-35.2819879" lon="148.9857731">
  <ele>705.66</ele>
  <time>2026-09-01T20:00:11Z</time>
  <course>175.72</course>
  <speed>25.8</speed>
  <fix>3d</fix>
</trkpt>
<trkpt lat="-35.2820761" lon="148.9857808">
  <ele>706.03</ele>
  <time>2026-09-01T20:00:11Z</time>
  <course>176.76</course>
  <speed>25.73802245705757</speed>
  <fix>3d</fix>
</trkpt>
<trkpt lat="-35.2820342" lon="148.9857774">
  <ele>705.85</ele>
  <time>2026-09-01T20:00:11Z</time>
  <course>175.73</course>
  <speed>25.82</speed>
  <fix>3d</fix>
</trkpt>
<trkpt lat="-35.2820992" lon="148.9857829">
  <ele>706.12</ele>
  <time>2026-09-01T20:00:11Z</time>
  <course>176.7</course>
  <speed>25.747996038526956</speed>
  <fix>3d</fix>
</trkpt>
<trkpt lat="-35.2820342" lon="148.9857774">
  <ele>705.85</ele>
  <time>2026-09-01T20:00:11Z</time>
  <course>175.73</course>
  <speed>25.82</speed>
  <fix>3d</fix>
</trkpt>
<trkpt lat="-35.2821223" lon="148.985785">
  <ele>706.21</ele>
  <time>2026-09-01T20:00:11Z</time>
  <course>176.63</course>
  <speed>25.75796964048215</speed>
  <fix>3d</fix>
</trkpt>
<trkpt lat="-35.2820804" lon="148.9857817">
  <ele>706.04</ele>
  <time>2026-09-01T20:00:11Z</time>
  <course>175.74</course>
  <speed>25.83</speed>
  <fix>3d</fix>
</trkpt>
<trkpt lat="-35.2821454" lon="148.9857871">
  <ele>706.3</ele>
  <time>2026-09-01T20:00:11Z</time>
  <course>176.64</course>
  <speed>25.76721948522968</speed>
  <fix>3d</fix>
</trkpt>
<trkpt lat="-35.2820804" lon="148.9857817">
  <ele>706.04</ele>
  <time>2026-09-01T20:00:11Z</time>
  <course>175.74</course>
  <speed>25.83</speed>
  <fix>3d</fix>
</trkpt>
<trkpt lat="-35.2821686" lon="148.9857892">
  <ele>706.38</ele>
  <time>2026-09-01T20:00:11Z</time>
  <course>176.69</course>
  <speed>25.777193408127268</speed>
  <fix>3d</fix>
</trkpt>
<trkpt lat="-35.2821267" lon="148.9857859">
  <ele>706.21</ele>
  <time>2026-09-01T20:00:11Z</time>
  <course>175.75</course>
  <speed>25.85</speed>
  <fix>3d</fix>
</trkpt>
<trkpt lat="-35.2821917" lon="148.9857913">
  <ele>706.47</ele>
  <time>2026-09-01T20:00:11Z</time>
  <course>176.66</course>
  <speed>25.78716735122336</speed>
  <fix>3d</fix>
</trkpt>
<trkpt lat="-35.2821267" lon="148.9857859">
  <ele>706.21</ele>
  <time>2026-09-01T20:00:11Z</time>
  <course>175.75</course>
  <speed>25.85</speed>
  <fix>3d</fix>
</trkpt>
<trkpt lat="-35.2822151" lon="148.9857934">
  <ele>706.55</ele>
  <time>2026-09-01T20:00:11Z</time>
  <course>176.7</course>
  <speed>25.79714131449452</speed>
  <fix>3d</fix>
</trkpt>
<trkpt lat="-35.282173" lon="148.98579">
  <ele>706.38</ele>
  <time>2026-09-01T20:00:11Z</time>
  <course>175.76</course>
  <speed>25.87</speed>
  <fix>3d</fix>
</trkpt>
<trkpt lat="-35.2822383" lon="148.9857955">
  <ele>706.64</ele>
  <time>2026-09-01T20:00:11Z</time>
  <course>176.7</course>
  <speed>25.807115297917356</speed>
  <fix>3d</fix>
</trkpt>
<trkpt lat="-35.282173" lon="148.98579">
  <ele>706.38</ele>
  <time>2026-09-01T20:00:11Z</time>
  <course>175.76</course>
  <speed>25.87</speed>
  <fix>3d</fix>
</trkpt>
<trkpt lat="-35.2822615" lon="148.9857976">
  <ele>706.73</ele>
  <time>2026-09-01T20:00:11Z</time>
  <course>176.66</course>
  <speed>25.817089301468513</speed>
  <fix>3d</fix>
</trkpt>
<trkpt lat="-35.2822194" lon="148.9857943">
  <ele>706.56</ele>
  <time>2026-09-01T20:00:11Z</time>
  <course>175.78</course>
  <speed>25.89</speed>
  <fix>3d</fix>
</trkpt>
<trkpt lat="-35.2822847" lon="148.9857997">
  <ele>706.81</ele>
  <time>2026-09-01T20:00:11Z</time>
  <course>176.65</course>
  <speed>25.827063325124673</speed>
  <fix>3d</fix>
</trkpt>
<trkpt lat="-35.2822194" lon="148.9857943">
  <ele>706.56</ele>
  <time>2026-09-01T20:00:11Z</time>
  <course>175.78</course>
  <speed>25.89</speed>
  <fix>3d</fix>
</trkpt>
<trkpt lat="-35.2823077" lon="148.9858018">
  <ele>706.9</ele>
  <time>2026-09-01T20:00:11Z</time>
  <course>176.64</course>
  <speed>25.82778542577741</speed>
  <fix>3d</fix>
</trkpt>
<trkpt lat="-35.2822658" lon="148.9857984">
  <ele>706.73</ele>
  <time>2026-09-01T20:00:11Z</time>
  <course>175.78</course>
  <speed>25.9</speed>
  <fix>3d</fix>
</trkpt>
<trkpt lat="-35.2823309" lon="148.9858039">
  <ele>706.99</ele>
  <time>2026-09-01T20:00:11Z</time>
  <course>176.66</course>
  <speed>25.837759190765752</speed>
  <fix>3d</fix>
</trkpt>
<trkpt lat="-35.2822658" lon="148.9857984">
  <ele>706.73</ele>
  <time>2026-09-01T20:00:11Z</time>
  <course>175.78</course>
  <speed>25.9</speed>
  <fix>3d</fix>
</trkpt>
<trkpt lat="-35.2823542" lon="148.985806">
  <ele>707.08</ele>
  <time>2026-09-01T20:00:11Z</time>
  <course>176.66</course>
  <speed>25.847732976027125</speed>
  <fix>3d</fix>
</trkpt>
<trkpt lat="-35.2823122" lon="148.9858027">
  <ele>706.91</ele>
  <time>2026-09-01T20:00:11Z</time>
  <course>175.77</course>
  <speed>25.91</speed>
  <fix>3d</fix>
</trkpt>
<trkpt lat="-35.2823774" lon="148.9858081">
  <ele>707.16</ele>
  <time>2026-09-01T20:00:11Z</time>
  <course>176.68</course>
  <speed>25.847732976027125</speed>
  <fix>3d</fix>
</trkpt>
<trkpt lat="-35.2823122" lon="148.9858027">
  <ele>706.91</ele>
  <time>2026-09-01T20:00:11Z</time>
  <course>175.77</course>
  <speed>25.91</speed>
  <fix>3d</fix>
</trkpt>
<trkpt lat="-35.2824009" lon="148.9858103">
  <ele>707.25</ele>
  <time>2026-09-01T20:00:11Z</time>
  <course>176.66</course>
  <speed>25.848458367956876</speed>
  <fix>3d</fix>
</trkpt>
<trkpt lat="-35.2823585" lon="148.9858069">
  <ele>707.08</ele>
  <time>2026-09-01T20:00:11Z</time>
  <course>175.76</course>
  <speed>25.91</speed>
  <fix>3d</fix>
</trkpt>
<trkpt lat="-35.2824241" lon="148.9858124">
  <ele>707.33</ele>
  <time>2026-09-01T20:00:11Z</time>
  <course>176.64</course>
  <speed>25.848458367956876</speed>
  <fix>3d</fix>
</trkpt>
<trkpt lat="-35.2823585" lon="148.9858069">
  <ele>707.08</ele>
  <time>2026-09-01T20:00:11Z</time>
  <course>175.76</course>
  <speed>25.91</speed>
  <fix>3d</fix>
</trkpt>
<trkpt lat="-35.2824474" lon="148.9858145">
  <ele>707.41</ele>
  <time>2026-09-01T20:00:11Z</time>
  <course>176.62</course>
  <speed>25.858431893678315</speed>
  <fix>3d</fix>
</trkpt>
<trkpt lat="-35.282405" lon="148.985811">
  <ele>707.26</ele>
  <time>2026-09-01T20:00:11Z</time>
  <course>175.75</course>
  <speed>25.91</speed>
  <fix>3d</fix>
</trkpt>
<trkpt lat="-35.2824706" lon="148.9858166">
  <ele>707.48</ele>
  <time>2026-09-01T20:00:11Z</time>
  <course>176.62</course>
  <speed>25.85916085258762</speed>
  <fix>3d</fix>
</trkpt>
<trkpt lat="-35.282405" lon="148.985811">
  <ele>707.26</ele>
  <time>2026-09-01T20:00:11Z</time>
  <course>175.75</course>
  <speed>25.91</speed>
  <fix>3d</fix>
</trkpt>
<trkpt lat="-35.2824939" lon="148.9858188">
  <ele>707.55</ele>
  <time>2026-09-01T20:00:11Z</time>
  <course>176.62</course>
  <speed>25.869134117708697</speed>
  <fix>3d</fix>
</trkpt>
<trkpt lat="-35.2824514" lon="148.9858153">
  <ele>707.42</ele>
  <time>2026-09-01T20:00:11Z</time>
  <course>175.74</course>
  <speed>25.91</speed>
  <fix>3d</fix>
</trkpt>
<trkpt lat="-35.2825171" lon="148.9858209">
  <ele>707.62</ele>
  <time>2026-09-01T20:00:11Z</time>
  <course>176.57</course>
  <speed>25.86986664055306</speed>
  <fix>3d</fix>
</trkpt>
<trkpt lat="-35.2824514" lon="148.9858153">
  <ele>707.42</ele>
  <time>2026-09-01T20:00:11Z</time>
  <course>175.74</course>
  <speed>25.91</speed>
  <fix>3d</fix>
</trkpt>
<trkpt lat="-35.2825404" lon="148.985823">
  <ele>707.68</ele>
  <time>2026-09-01T20:00:11Z</time>
  <course>176.52</course>
  <speed>25.879839644016343</speed>
  <fix>3d</fix>
</trkpt>
<trkpt lat="-35.282498" lon="148.9858195">
  <ele>707.57</ele>
  <time>2026-09-01T20:00:11Z</time>
  <course>175.72</course>
  <speed>25.91</speed>
  <fix>3d</fix>
</trkpt>
<trkpt lat="-35.2825636" lon="148.9858252">
  <ele>707.73</ele>
  <time>2026-09-01T20:00:11Z</time>
  <course>176.49</course>
  <speed>25.88057572775382</speed>
  <fix>3d</fix>
</trkpt>
<trkpt lat="-35.282498" lon="148.9858195">
  <ele>707.57</ele>
  <time>2026-09-01T20:00:11Z</time>
  <course>175.72</course>
  <speed>25.91</speed>
  <fix>3d</fix>
</trkpt>
<trkpt lat="-35.2825869" lon="148.9858273">
  <ele>707.78</ele>
  <time>2026-09-01T20:00:11Z</time>
  <course>176.5</course>
  <speed>25.891288110096028</speed>
  <fix>3d</fix>
</trkpt>
<trkpt lat="-35.2825445" lon="148.9858238">
  <ele>707.69</ele>
  <time>2026-09-01T20:00:11Z</time>
  <course>175.69</course>
  <speed>25.92</speed>
  <fix>3d</fix>
</trkpt>
<trkpt lat="-35.2826102" lon="148.9858295">
  <ele>707.82</ele>
  <time>2026-09-01T20:00:11Z</time>
  <course>176.56</course>
  <speed>25.902003783491345</speed>
  <fix>3d</fix>
</trkpt>
<trkpt lat="-35.2825445" lon="148.9858238">
  <ele>707.69</ele>
  <time>2026-09-01T20:00:11Z</time>
  <course>175.69</course>
  <speed>25.92</speed>
  <fix>3d</fix>
</trkpt>
<trkpt lat="-35.2826335" lon="148.9858317">
  <ele>707.86</ele>
  <time>2026-09-01T20:00:11Z</time>
  <course>176.57</course>
  <speed>25.91197599566656</speed>
  <fix>3d</fix>
</trkpt>
<trkpt lat="-35.2825909" lon="148.9858281">
  <ele>707.8</ele>
  <time>2026-09-01T20:00:11Z</time>
  <course>175.66</course>
  <speed>25.93</speed>
  <fix>3d</fix>
</trkpt>
<trkpt lat="-35.2826568" lon="148.9858338">
  <ele>707.89</ele>
  <time>2026-09-01T20:00:11Z</time>
  <course>176.53</course>
  <speed>25.921948229251598</speed>
  <fix>3d</fix>
</trkpt>
<trkpt lat="-35.2825909" lon="148.9858281">
  <ele>707.8</ele>
  <time>2026-09-01T20:00:11Z</time>
  <course>175.66</course>
  <speed>25.93</speed>
  <fix>3d</fix>
</trkpt>
<trkpt lat="-35.2826801" lon="148.985836">
  <ele>707.92</ele>
  <time>2026-09-01T20:00:11Z</time>
  <course>176.54</course>
  <speed>25.921948229251598</speed>
  <fix>3d</fix>
</trkpt>
<trkpt lat="-35.2826373" lon="148.9858324">
  <ele>707.88</ele>
  <time>2026-09-01T20:00:11Z</time>
  <course>175.64</course>
  <speed>25.94</speed>
  <fix>3d</fix>
</trkpt>
<trkpt lat="-35.2827034" lon="148.9858382">
  <ele>707.94</ele>
  <time>2026-09-01T20:00:11Z</time>
  <course>176.56</course>
  <speed>25.93192048422176</speed>
  <fix>3d</fix>
</trkpt>
<trkpt lat="-35.2826373" lon="148.9858324">
  <ele>707.88</ele>
  <time>2026-09-01T20:00:11Z</time>
  <course>175.64</course>
  <speed>25.94</speed>
  <fix>3d</fix>
</trkpt>
<trkpt lat="-35.2827268" lon="148.9858404">
  <ele>707.96</ele>
  <time>2026-09-01T20:00:11Z</time>
  <course>176.54</course>
  <speed>25.94189276055238</speed>
  <fix>3d</fix>
</trkpt>
<trkpt lat="-35.2826838" lon="148.9858368">
  <ele>707.94</ele>
  <time>2026-09-01T20:00:11Z</time>
  <course>175.64</course>
  <speed>25.94</speed>
  <fix>3d</fix>
</trkpt>
<trkpt lat="-35.2827501" lon="148.9858425">
  <ele>707.96</ele>
  <time>2026-09-01T20:00:11Z</time>
  <course>176.52</course>
  <speed>25.951865058218843</speed>
  <fix>3d</fix>
</trkpt>
<trkpt lat="-35.2826838" lon="148.9858368">
  <ele>707.94</ele>
  <time>2026-09-01T20:00:11Z</time>
  <course>175.64</course>
  <speed>25.94</speed>
  <fix>3d</fix>
</trkpt>
<trkpt lat="-35.2827734" lon="148.9858447">
  <ele>707.96</ele>
  <time>2026-09-01T20:00:11Z</time>
  <course>176.51</course>
  <speed>25.961837377196552</speed>
  <fix>3d</fix>
</trkpt>
<trkpt lat="-35.2827302" lon="148.9858411">
  <ele>707.98</ele>
  <time>2026-09-01T20:00:11Z</time>
  <course>175.65</course>
  <speed>25.95</speed>
  <fix>3d</fix>
</trkpt>
<trkpt lat="-35.2827967" lon="148.9858469">
  <ele>707.96</ele>
  <time>2026-09-01T20:00:11Z</time>
  <course>176.48</course>
  <speed>25.97180971746097</speed>
  <fix>3d</fix>
</trkpt>
<trkpt lat="-35.2827302" lon="148.9858411">
  <ele>707.98</ele>
  <time>2026-09-01T20:00:11Z</time>
  <course>175.65</course>
  <speed>25.95</speed>
  <fix>3d</fix>
</trkpt>
<trkpt lat="-35.2828201" lon="148.9858491">
  <ele>707.95</ele>
  <time>2026-09-01T20:00:11Z</time>
  <course>176.48</course>
  <speed>25.981782078987575</speed>
  <fix>3d</fix>
</trkpt>
<trkpt lat="-35.2827767" lon="148.9858454">
  <ele>708.0</ele>
  <time>2026-09-01T20:00:11Z</time>
  <course>175.65</course>
  <speed>25.97</speed>
  <fix>3d</fix>
</trkpt>
<trkpt lat="-35.2828434" lon="148.9858512">
  <ele>707.94</ele>
  <time>2026-09-01T20:00:11Z</time>
  <course>176.52</course>
  <speed>25.991754461751903</speed>
  <fix>3d</fix>
</trkpt>
<trkpt lat="-35.2827767" lon="148.9858454">
  <ele>708.0</ele>
  <time>2026-09-01T20:00:11Z</time>
  <course>175.65</course>
  <speed>25.97</speed>
  <fix>3d</fix>
</trkpt>
<trkpt lat="-35.2828668" lon="148.9858534">
  <ele>707.92</ele>
  <time>2026-09-01T20:00:11Z</time>
  <course>176.52</course>
  <speed>26.001726865729516</speed>
  <fix>3d</fix>
</trkpt>
<trkpt lat="-35.2828233" lon="148.9858497">
  <ele>707.99</ele>
  <time>2026-09-01T20:00:11Z</time>
  <course>175.65</course>
  <speed>25.98</speed>
  <fix>3d</fix>
</trkpt>
<trkpt lat="-35.2828903" lon="148.9858556">
  <ele>707.91</ele>
  <time>2026-09-01T20:00:11Z</time>
  <course>176.53</course>
  <speed>26.011699290896008</speed>
  <fix>3d</fix>
</trkpt>
<trkpt lat="-35.2828233" lon="148.9858497">
  <ele>707.99</ele>
  <time>2026-09-01T20:00:11Z</time>
  <course>175.65</course>
  <speed>25.98</speed>
  <fix>3d</fix>
</trkpt>
<trkpt lat="-35.2829137" lon="148.9858578">
  <ele>707.89</ele>
  <time>2026-09-01T20:00:11Z</time>
  <course>176.5</course>
  <speed>26.012443176295456</speed>
  <fix>3d</fix>
</trkpt>
<trkpt lat="-35.2828698" lon="148.985854">
  <ele>707.97</ele>
  <time>2026-09-01T20:00:11Z</time>
  <course>175.65</course>
  <speed>25.99</speed>
  <fix>3d</fix>
</trkpt>
<trkpt lat="-35.282937" lon="148.9858599">
  <ele>707.87</ele>
  <time>2026-09-01T20:00:11Z</time>
  <course>176.49</course>
  <speed>26.022415337550814</speed>
  <fix>3d</fix>
</trkpt>
<trkpt lat="-35.2828698" lon="148.985854">
  <ele>707.97</ele>
  <time>2026-09-01T20:00:11Z</time>
  <course>175.65</course>
  <speed>25.99</speed>
  <fix>3d</fix>
</trkpt>
<trkpt lat="-35.2829604" lon="148.9858621">
  <ele>707.84</ele>
  <time>2026-09-01T20:00:11Z</time>
  <course>176.52</course>
  <speed>26.022415337550814</speed>
  <fix>3d</fix>
</trkpt>
<trkpt lat="-35.2829164" lon="148.9858584">
  <ele>707.94</ele>
  <time>2026-09-01T20:00:11Z</time>
  <course>175.65</course>
  <speed>26.01</speed>
  <fix>3d</fix>
</trkpt>
<trkpt lat="-35.2829837" lon="148.9858643">
  <ele>707.82</ele>
  <time>2026-09-01T20:00:11Z</time>
  <course>176.5</course>
  <speed>26.032387520164185</speed>
  <fix>3d</fix>
</trkpt>
<trkpt lat="-35.2829164" lon="148.9858584">
  <ele>707.94</ele>
  <time>2026-09-01T20:00:11Z</time>
  <course>175.65</course>
  <speed>26.01</speed>
  <fix>3d</fix>
</trkpt>
<trkpt lat="-35.2830071" lon="148.9858665">
  <ele>707.79</ele>
  <time>2026-09-01T20:00:11Z</time>
  <course>176.5</course>
  <speed>26.032387520164185</speed>
  <fix>3d</fix>
</trkpt>
<trkpt lat="-35.2829631" lon="148.9858628">
  <ele>707.89</ele>
  <time>2026-09-01T20:00:11Z</time>
  <course>175.65</course>
  <speed>26.01</speed>
  <fix>3d</fix>
</trkpt>
<trkpt lat="-35.2830304" lon="148.9858686">
  <ele>707.75</ele>
  <time>2026-09-01T20:00:11Z</time>
  <course>176.55</course>
  <speed>26.041616693285388</speed>
  <fix>3d</fix>
</trkpt>
<trkpt lat="-35.2829631" lon="148.9858628">
  <ele>707.89</ele>
  <time>2026-09-01T20:00:11Z</time>
  <course>175.65</course>
  <speed>26.01</speed>
  <fix>3d</fix>
</trkpt>
<trkpt lat="-35.2830538" lon="148.9858708">
  <ele>707.72</ele>
  <time>2026-09-01T20:00:11Z</time>
  <course>176.55</course>
  <speed>26.051589202964184</speed>
  <fix>3d</fix>
</trkpt>
<trkpt lat="-35.2830098" lon="148.9858671">
  <ele>707.83</ele>
  <time>2026-09-01T20:00:11Z</time>
  <course>175.65</course>
  <speed>26.02</speed>
  <fix>3d</fix>
</trkpt>
<trkpt lat="-35.2830771" lon="148.9858729">
  <ele>707.69</ele>
  <time>2026-09-01T20:00:11Z</time>
  <course>176.47</course>
  <speed>26.05085027403136</speed>
  <fix>3d</fix>
</trkpt>
<trkpt lat="-35.2830098" lon="148.9858671">
  <ele>707.83</ele>
  <time>2026-09-01T20:00:11Z</time>
  <course>175.65</course>
  <speed>26.02</speed>
  <fix>3d</fix>
</trkpt>
<trkpt lat="-35.2831005" lon="148.9858751">
  <ele>707.65</ele>
  <time>2026-09-01T20:00:11Z</time>
  <course>176.48</course>
  <speed>26.05085027403136</speed>
  <fix>3d</fix>
</trkpt>
<trkpt lat="-35.2830564" lon="148.9858714">
  <ele>707.77</ele>
  <time>2026-09-01T20:00:11Z</time>
  <course>175.67</course>
  <speed>26.03</speed>
  <fix>3d</fix>
</trkpt>
<trkpt lat="-35.2831238" lon="148.9858773">
  <ele>707.61</ele>
  <time>2026-09-01T20:00:11Z</time>
  <course>176.54</course>
  <speed>26.061561733710434</speed>
  <fix>3d</fix>
</trkpt>
<trkpt lat="-35.2830564" lon="148.9858714">
  <ele>707.77</ele>
  <time>2026-09-01T20:00:11Z</time>
  <course>175.67</course>
  <speed>26.03</speed>
  <fix>3d</fix>
</trkpt>
<trkpt lat="-35.2831472" lon="148.9858794">
  <ele>707.57</ele>
  <time>2026-09-01T20:00:11Z</time>
  <course>176.6</course>
  <speed>26.06082308753889</speed>
  <fix>3d</fix>
</trkpt>
<trkpt lat="-35.283103" lon="148.9858757">
  <ele>707.7</ele>
  <time>2026-09-01T20:00:11Z</time>
  <course>175.67</course>
  <speed>26.04</speed>
  <fix>3d</fix>
</trkpt>
<trkpt lat="-35.2831705" lon="148.9858816">
  <ele>707.53</ele>
  <time>2026-09-01T20:00:11Z</time>
  <course>176.62</course>
  <speed>26.07079592187396</speed>
  <fix>3d</fix>
</trkpt>
<trkpt lat="-35.283103" lon="148.9858757">
  <ele>707.7</ele>
  <time>2026-09-01T20:00:11Z</time>
  <course>175.67</course>
  <speed>26.04</speed>
  <fix>3d</fix>
</trkpt>
<trkpt lat="-35.2831939" lon="148.9858837">
  <ele>707.49</ele>
  <time>2026-09-01T20:00:11Z</time>
  <course>176.63</course>
  <speed>26.07006137315369</speed>
  <fix>3d</fix>
</trkpt>
<trkpt lat="-35.2831496" lon="148.98588">
  <ele>707.62</ele>
  <time>2026-09-01T20:00:11Z</time>
  <course>175.69</course>
  <speed>26.04</speed>
  <fix>3d</fix>
</trkpt>
<trkpt lat="-35.2832172" lon="148.9858858">
  <ele>707.44</ele>
  <time>2026-09-01T20:00:11Z</time>
  <course>176.58</course>
  <speed>26.069330639661615</speed>
  <fix>3d</fix>
</trkpt>
<trkpt lat="-35.2831496" lon="148.98588">
  <ele>707.62</ele>
  <time>2026-09-01T20:00:11Z</time>
  <course>175.69</course>
  <speed>26.04</speed>
  <fix>3d</fix>
</trkpt>
<trkpt lat="-35.2832406" lon="148.985888">
  <ele>707.39</ele>
  <time>2026-09-01T20:00:11Z</time>
  <course>176.56</course>
  <speed>26.069330639661615</speed>
  <fix>3d</fix>
</trkpt>
<trkpt lat="-35.2831963" lon="148.9858843">
  <ele>707.53</ele>
  <time>2026-09-01T20:00:11Z</time>
  <course>175.71</course>
  <speed>26.05</speed>
  <fix>3d</fix>
</trkpt>
<trkpt lat="-35.2832639" lon="148.9858901">
  <ele>707.34</ele>
  <time>2026-09-01T20:00:11Z</time>
  <course>176.52</course>
  <speed>26.069330639661615</speed>
  <fix>3d</fix>
</trkpt>
<trkpt lat="-35.2831963" lon="148.9858843">
  <ele>707.53</ele>
  <time>2026-09-01T20:00:11Z</time>
  <course>175.71</course>
  <speed>26.05</speed>
  <fix>3d</fix>
</trkpt>
<trkpt lat="-35.2832873" lon="148.9858922">
  <ele>707.29</ele>
  <time>2026-09-01T20:00:11Z</time>
  <course>176.56</course>
  <speed>26.069330639661615</speed>
  <fix>3d</fix>
</trkpt>
<trkpt lat="-35.283243" lon="148.9858886">
  <ele>707.44</ele>
  <time>2026-09-01T20:00:11Z</time>
  <course>175.73</course>
  <speed>26.05</speed>
  <fix>3d</fix>
</trkpt>
<trkpt lat="-35.2833106" lon="148.9858944">
  <ele>707.24</ele>
  <time>2026-09-01T20:00:11Z</time>
  <course>176.63</course>
  <speed>26.069330639661615</speed>
  <fix>3d</fix>
</trkpt>
<trkpt lat="-35.283243" lon="148.9858886">
  <ele>707.44</ele>
  <time>2026-09-01T20:00:11Z</time>
  <course>175.73</course>
  <speed>26.05</speed>
  <fix>3d</fix>
</trkpt>
<trkpt lat="-35.283334" lon="148.9858965">
  <ele>707.18</ele>
  <time>2026-09-01T20:00:11Z</time>
  <course>176.64</course>
  <speed>26.069330639661615</speed>
  <fix>3d</fix>
</trkpt>
<trkpt lat="-35.2832896" lon="148.9858929">
  <ele>707.33</ele>
  <time>2026-09-01T20:00:11Z</time>
  <course>175.73</course>
  <speed>26.05</speed>
  <fix>3d</fix>
</trkpt>
<trkpt lat="-35.2833573" lon="148.9858986">
  <ele>707.13</ele>
  <time>2026-09-01T20:00:11Z</time>
  <course>176.65</course>
  <speed>26.06860372171858</speed>
  <fix>3d</fix>
</trkpt>
<trkpt lat="-35.2832896" lon="148.9858929">
  <ele>707.33</ele>
  <time>2026-09-01T20:00:11Z</time>
  <course>175.73</course>
  <speed>26.05</speed>
  <fix>3d</fix>
</trkpt>
<trkpt lat="-35.2833805" lon="148.9859007">
  <ele>707.06</ele>
  <time>2026-09-01T20:00:11Z</time>
  <course>176.58</course>
  <speed>26.07857741518889</speed>
  <fix>3d</fix>
</trkpt>
<trkpt lat="-35.2833363" lon="148.9858972">
  <ele>707.23</ele>
  <time>2026-09-01T20:00:11Z</time>
  <course>175.74</course>
  <speed>26.05</speed>
  <fix>3d</fix>
</trkpt>
<trkpt lat="-35.2834038" lon="148.9859029">
  <ele>707.0</ele>
  <time>2026-09-01T20:00:11Z</time>
  <course>176.57</course>
  <speed>26.07857741518889</speed>
  <fix>3d</fix>
</trkpt>
<trkpt lat="-35.2833363" lon="148.9858972">
  <ele>707.23</ele>
  <time>2026-09-01T20:00:11Z</time>
  <course>175.74</course>
  <speed>26.05</speed>
  <fix>3d</fix>
</trkpt>
<trkpt lat="-35.2834272" lon="148.985905">
  <ele>706.94</ele>
  <time>2026-09-01T20:00:11Z</time>
  <course>176.68</course>
  <speed>26.07857741518889</speed>
  <fix>3d</fix>
</trkpt>
<trkpt lat="-35.283383" lon="148.9859014">
  <ele>707.12</ele>
  <time>2026-09-01T20:00:11Z</time>
  <course>175.75</course>
  <speed>26.06</speed>
  <fix>3d</fix>
</trkpt>
<trkpt lat="-35.2834505" lon="148.9859071">
  <ele>706.88</ele>
  <time>2026-09-01T20:00:11Z</time>
  <course>176.68</course>
  <speed>26.077854589670523</speed>
  <fix>3d</fix>
</trkpt>
<trkpt lat="-35.283383" lon="148.9859014">
  <ele>707.12</ele>
  <time>2026-09-01T20:00:11Z</time>
  <course>175.75</course>
  <speed>26.06</speed>
  <fix>3d</fix>
</trkpt>
<trkpt lat="-35.2834741" lon="148.9859092">
  <ele>706.81</ele>
  <time>2026-09-01T20:00:11Z</time>
  <course>176.61</course>
  <speed>26.077854589670523</speed>
  <fix>3d</fix>
</trkpt>
<trkpt lat="-35.2834297" lon="148.9859057">
  <ele>706.99</ele>
  <time>2026-09-01T20:00:11Z</time>
  <course>175.77</course>
  <speed>26.06</speed>
  <fix>3d</fix>
</trkpt>
<trkpt lat="-35.2834974" lon="148.9859113">
  <ele>706.75</ele>
  <time>2026-09-01T20:00:11Z</time>
  <course>176.61</course>
  <speed>26.077854589670523</speed>
  <fix>3d</fix>
</trkpt>
<trkpt lat="-35.2834297" lon="148.9859057">
  <ele>706.99</ele>
  <time>2026-09-01T20:00:11Z</time>
  <course>175.77</course>
  <speed>26.06</speed>
  <fix>3d</fix>
</trkpt>
<trkpt lat="-35.283521" lon="148.9859135">
  <ele>706.68</ele>
  <time>2026-09-01T20:00:11Z</time>
  <course>176.63</course>
  <speed>26.067161333754775</speed>
  <fix>3d</fix>
</trkpt>
<trkpt lat="-35.2834765" lon="148.9859099">
  <ele>706.87</ele>
  <time>2026-09-01T20:00:11Z</time>
  <course>175.79</course>
  <speed>26.06</speed>
  <fix>3d</fix>
</trkpt>
<trkpt lat="-35.2835443" lon="148.9859156">
  <ele>706.62</ele>
  <time>2026-09-01T20:00:11Z</time>
  <course>176.6</course>
  <speed>26.067161333754775</speed>
  <fix>3d</fix>
</trkpt>
<trkpt lat="-35.2834765" lon="148.9859099">
  <ele>706.87</ele>
  <time>2026-09-01T20:00:11Z</time>
  <course>175.79</course>
  <speed>26.06</speed>
  <fix>3d</fix>
</trkpt>
<trkpt lat="-35.2835677" lon="148.9859177">
  <ele>706.55</ele>
  <time>2026-09-01T20:00:11Z</time>
  <course>176.64</course>
  <speed>26.057187108358416</speed>
  <fix>3d</fix>
</trkpt>
<trkpt lat="-35.2835232" lon="148.9859141">
  <ele>706.74</ele>
  <time>2026-09-01T20:00:11Z</time>
  <course>175.81</course>
  <speed>26.06</speed>
  <fix>3d</fix>
</trkpt>
<trkpt lat="-35.283591" lon="148.9859197">
  <ele>706.48</ele>
  <time>2026-09-01T20:00:11Z</time>
  <course>176.68</course>
  <speed>26.056471365094698</speed>
  <fix>3d</fix>
</trkpt>
<trkpt lat="-35.2835232" lon="148.9859141">
  <ele>706.74</ele>
  <time>2026-09-01T20:00:11Z</time>
  <course>175.81</course>
  <speed>26.06</speed>
  <fix>3d</fix>
</trkpt>
<trkpt lat="-35.2836143" lon="148.9859218">
  <ele>706.41</ele>
  <time>2026-09-01T20:00:11Z</time>
  <course>176.68</course>
  <speed>26.056471365094698</speed>
  <fix>3d</fix>
</trkpt>
<trkpt lat="-35.2835699" lon="148.9859182">
  <ele>706.61</ele>
  <time>2026-09-01T20:00:11Z</time>
  <course>175.83</course>
  <speed>26.05</speed>
  <fix>3d</fix>
</trkpt>
<trkpt lat="-35.2836377" lon="148.9859239">
  <ele>706.34</ele>
  <time>2026-09-01T20:00:11Z</time>
  <course>176.67</course>
  <speed>26.046496885377888</speed>
  <fix>3d</fix>
</trkpt>
<trkpt lat="-35.2835699" lon="148.9859182">
  <ele>706.61</ele>
  <time>2026-09-01T20:00:11Z</time>
  <course>175.83</course>
  <speed>26.05</speed>
  <fix>3d</fix>
</trkpt>
<trkpt lat="-35.283661" lon="148.985926">
  <ele>706.27</ele>
  <time>2026-09-01T20:00:11Z</time>
  <course>176.69</course>
  <speed>26.035809954752704</speed>
  <fix>3d</fix>
</trkpt>
<trkpt lat="-35.2836166" lon="148.9859224">
  <ele>706.47</ele>
  <time>2026-09-01T20:00:11Z</time>
  <course>175.84</course>
  <speed>26.04</speed>
  <fix>3d</fix>
</trkpt>
<trkpt lat="-35.2836843" lon="148.985928">
  <ele>706.19</ele>
  <time>2026-09-01T20:00:11Z</time>
  <course>176.7</course>
  <speed>26.035809954752704</speed>
  <fix>3d</fix>
</trkpt>
<trkpt lat="-35.2836166" lon="148.9859224">
  <ele>706.47</ele>
  <time>2026-09-01T20:00:11Z</time>
  <course>175.84</course>
  <speed>26.04</speed>
  <fix>3d</fix>
</trkpt>
<trkpt lat="-35.2837076" lon="148.9859301">
  <ele>706.12</ele>
  <time>2026-09-01T20:00:11Z</time>
  <course>176.68</course>
  <speed>26.035809954752704</speed>
  <fix>3d</fix>
</trkpt>
<trkpt lat="-35.2836632" lon="148.9859265">
  <ele>706.33</ele>
  <time>2026-09-01T20:00:11Z</time>
  <course>175.85</course>
  <speed>26.04</speed>
  <fix>3d</fix>
</trkpt>
<trkpt lat="-35.2837309" lon="148.9859322">
  <ele>706.04</ele>
  <time>2026-09-01T20:00:11Z</time>
  <course>176.7</course>
  <speed>26.035809954752704</speed>
  <fix>3d</fix>
</trkpt>
<trkpt lat="-35.2836632" lon="148.9859265">
  <ele>706.33</ele>
  <time>2026-09-01T20:00:11Z</time>
  <course>175.85</course>
  <speed>26.04</speed>
  <fix>3d</fix>
</trkpt>
<trkpt lat="-35.2837542" lon="148.9859342">
  <ele>705.96</ele>
  <time>2026-09-01T20:00:11Z</time>
  <course>176.71</course>
  <speed>26.02583524115989</speed>
  <fix>3d</fix>
</trkpt>
<trkpt lat="-35.2837099" lon="148.9859306">
  <ele>706.18</ele>
  <time>2026-09-01T20:00:11Z</time>
  <course>175.86</course>
  <speed>26.03</speed>
  <fix>3d</fix>
</trkpt>
<trkpt lat="-35.2837775" lon="148.9859363">
  <ele>705.88</ele>
  <time>2026-09-01T20:00:11Z</time>
  <course>176.72</course>
  <speed>25.975251683092505</speed>
  <fix>3d</fix>
</trkpt>
<trkpt lat="-35.2837099" lon="148.9859306">
  <ele>706.18</ele>
  <time>2026-09-01T20:00:11Z</time>
  <course>175.86</course>
  <speed>26.03</speed>
  <fix>3d</fix>
</trkpt>
<trkpt lat="-35.2838007" lon="148.9859384">
  <ele>705.8</ele>
  <time>2026-09-01T20:00:11Z</time>
  <course>176.66</course>
  <speed>25.885478554587323</speed>
  <fix>3d</fix>
</trkpt>
<trkpt lat="-35.2837564" lon="148.9859348">
  <ele>706.03</ele>
  <time>2026-09-01T20:00:11Z</time>
  <course>175.85</course>
  <speed>26.01</speed>
  <fix>3d</fix>
</trkpt>
<trkpt lat="-35.2838238" lon="148.9859404">
  <ele>705.73</ele>
  <time>2026-09-01T20:00:11Z</time>
  <course>176.39</course>
  <speed>25.73024679244255</speed>
  <fix>3d</fix>
</trkpt>
<trkpt lat="-35.2837564" lon="148.9859348">
  <ele>706.03</ele>
  <time>2026-09-01T20:00:11Z</time>
  <course>175.85</course>
  <speed>26.01</speed>
  <fix>3d</fix>
</trkpt>
<trkpt lat="-35.2838468" lon="148.9859427">
  <ele>705.71</ele>
  <time>2026-09-01T20:00:11Z</time>
  <course>175.85</course>
  <speed>25.489990192230362</speed>
  <fix>3d</fix>
</trkpt>
<trkpt lat="-35.283803" lon="148.9859389">
  <ele>705.88</ele>
  <time>2026-09-01T20:00:11Z</time>
  <course>175.79</course>
  <speed>25.86</speed>
  <fix>3d</fix>
</trkpt>
<trkpt lat="-35.2838692" lon="148.9859453">
  <ele>705.76</ele>
  <time>2026-09-01T20:00:12Z</time>
  <course>175.01</course>
  <speed>25.15553616999646</speed>
  <fix>3d</fix>
</trkpt>
<trkpt lat="-35.283803" lon="148.9859389">
  <ele>705.88</ele>
  <time>2026-09-01T20:00:12Z</time>
  <course>175.79</course>
  <speed>25.86</speed>
  <fix>3d</fix>
</trkpt>
<trkpt lat="-35.2838915" lon="148.9859483">
  <ele>705.87</ele>
  <time>2026-09-01T20:00:12Z</time>
  <course>173.83</course>
  <speed>24.73892681585036</speed>
  <fix>3d</fix>
</trkpt>
<trkpt lat="-35.283849" lon="148.9859434">
  <ele>705.82</ele>
  <time>2026-09-01T20:00:12Z</time>
  <course>174.99</course>
  <speed>25.45</speed>
  <fix>3d</fix>
</trkpt>
<trkpt lat="-35.2839133" lon="148.9859519">
  <ele>706.03</ele>
  <time>2026-09-01T20:00:12Z</time>
  <course>172.4</course>
  <speed>24.28771706027555</speed>
  <fix>3d</fix>
</trkpt>
<trkpt lat="-35.283849" lon="148.9859434">
  <ele>705.82</ele>
  <time>2026-09-01T20:00:12Z</time>
  <course>174.99</course>
  <speed>25.45</speed>
  <fix>3d</fix>
</trkpt>
<trkpt lat="-35.2839347" lon="148.985956">
  <ele>706.24</ele>
  <time>2026-09-01T20:00:12Z</time>
  <course>170.92</course>
  <speed>23.829655893445043</speed>
  <fix>3d</fix>
</trkpt>
<trkpt lat="-35.2838938" lon="148.9859491">
  <ele>705.96</ele>
  <time>2026-09-01T20:00:12Z</time>
  <course>173.07</course>
  <speed>24.73</speed>
  <fix>3d</fix>
</trkpt>
<trkpt lat="-35.2839557" lon="148.9859607">
  <ele>706.49</ele>
  <time>2026-09-01T20:00:12Z</time>
  <course>169.54</course>
  <speed>23.3521155358567</speed>
  <fix>3d</fix>
</trkpt>
<trkpt lat="-35.2838938" lon="148.9859491">
  <ele>705.96</ele>
  <time>2026-09-01T20:00:12Z</time>
  <course>173.07</course>
  <speed>24.73</speed>
  <fix>3d</fix>
</trkpt>
<trkpt lat="-35.283976" lon="148.9859658">
  <ele>706.78</ele>
  <time>2026-09-01T20:00:12Z</time>
  <course>168.32</course>
  <speed>22.87017708720245</speed>
  <fix>3d</fix>
</trkpt>
<trkpt lat="-35.2839371" lon="148.9859567">
  <ele>706.32</ele>
  <time>2026-09-01T20:00:12Z</time>
  <course>170.53</course>
  <speed>23.81</speed>
  <fix>3d</fix>
</trkpt>
<trkpt lat="-35.2839959" lon="148.9859713">
  <ele>707.1</ele>
  <time>2026-09-01T20:00:12Z</time>
  <course>167.34</course>
  <speed>22.3847492726633</speed>
  <fix>3d</fix>
</trkpt>
<trkpt lat="-35.2839371" lon="148.9859567">
  <ele>706.32</ele>
  <time>2026-09-01T20:00:12Z</time>
  <course>170.53</course>
  <speed>23.81</speed>
  <fix>3d</fix>
</trkpt>
<trkpt lat="-35.2840158" lon="148.9859774">
  <ele>707.46</ele>
  <time>2026-09-01T20:00:12Z</time>
  <course>166.63</course>
  <speed>21.889636817453137</speed>
  <fix>3d</fix>
</trkpt>
<trkpt lat="-35.2839783" lon="148.9859663">
  <ele>706.86</ele>
  <time>2026-09-01T20:00:12Z</time>
  <course>167.91</course>
  <speed>22.85</speed>
  <fix>3d</fix>
</trkpt>
<trkpt lat="-35.2840345" lon="148.9859835">
  <ele>707.81</ele>
  <time>2026-09-01T20:00:12Z</time>
  <course>166.17</course>
  <speed>21.452855287816583</speed>
  <fix>3d</fix>
</trkpt>
<trkpt lat="-35.2839783" lon="148.9859663">
  <ele>706.86</ele>
  <time>2026-09-01T20:00:12Z</time>
  <course>167.91</course>
  <speed>22.85</speed>
  <fix>3d</fix>
</trkpt>
<trkpt lat="-35.2840529" lon="148.9859897">
  <ele>708.16</ele>
  <time>2026-09-01T20:00:12Z</time>
  <course>165.84</course>
  <speed>21.049132998772183</speed>
  <fix>3d</fix>
</trkpt>
<trkpt lat="-35.2840174" lon="148.9859776">
  <ele>707.52</ele>
  <time>2026-09-01T20:00:12Z</time>
  <course>165.71</course>
  <speed>21.9</speed>
  <fix>3d</fix>
</trkpt>
<trkpt lat="-35.2840709" lon="148.9859961">
  <ele>708.49</ele>
  <time>2026-09-01T20:00:12Z</time>
  <course>165.58</course>
  <speed>20.67884184377839</speed>
  <fix>3d</fix>
</trkpt>
<trkpt lat="-35.2840174" lon="148.9859776">
  <ele>707.52</ele>
  <time>2026-09-01T20:00:12Z</time>
  <course>165.71</course>
  <speed>21.9</speed>
  <fix>3d</fix>
</trkpt>
<trkpt lat="-35.2840886" lon="148.9860025">
  <ele>708.8</ele>
  <time>2026-09-01T20:00:12Z</time>
  <course>165.35</course>
  <speed>20.33944197857945</speed>
  <fix>3d</fix>
</trkpt>
<trkpt lat="-35.2840547" lon="148.9859899">
  <ele>708.2</ele>
  <time>2026-09-01T20:00:12Z</time>
  <course>164.24</course>
  <speed>21.04</speed>
  <fix>3d</fix>
</trkpt>
<trkpt lat="-35.2841057" lon="148.9860087">
  <ele>709.07</ele>
  <time>2026-09-01T20:00:12Z</time>
  <course>165.15</course>
  <speed>20.02069179623921</speed>
  <fix>3d</fix>
</trkpt>
<trkpt lat="-35.2840547" lon="148.9859899">
  <ele>708.2</ele>
  <time>2026-09-01T20:00:12Z</time>
  <course>164.24</course>
  <speed>21.04</speed>
  <fix>3d</fix>
</trkpt>
<trkpt lat="-35.2841228" lon="148.9860151">
  <ele>709.32</ele>
  <time>2026-09-01T20:00:12Z</time>
  <course>164.96</course>
  <speed>19.72507541176966</speed>
  <fix>3d</fix>
</trkpt>
<trkpt lat="-35.2840903" lon="148.9860026">
  <ele>708.84</ele>
  <time>2026-09-01T20:00:12Z</time>
  <course>163.4</course>
  <speed>20.32</speed>
  <fix>3d</fix>
</trkpt>
<trkpt lat="-35.2841396" lon="148.9860214">
  <ele>709.52</ele>
  <time>2026-09-01T20:00:12Z</time>
  <course>164.78</course>
  <speed>19.4457656059102</speed>
  <fix>3d</fix>
</trkpt>
<trkpt lat="-35.2840903" lon="148.9860026">
  <ele>708.84</ele>
  <time>2026-09-01T20:00:12Z</time>
  <course>163.4</course>
  <speed>20.32</speed>
  <fix>3d</fix>
</trkpt>
<trkpt lat="-35.2841562" lon="148.9860277">
  <ele>709.69</ele>
  <time>2026-09-01T20:00:12Z</time>
  <course>164.61</course>
  <speed>19.182661442041873</speed>
  <fix>3d</fix>
</trkpt>
<trkpt lat="-35.2841247" lon="148.9860153">
  <ele>709.36</ele>
  <time>2026-09-01T20:00:12Z</time>
  <course>162.95</course>
  <speed>19.7</speed>
  <fix>3d</fix>
</trkpt>
<trkpt lat="-35.2841726" lon="148.9860339">
  <ele>709.83</ele>
  <time>2026-09-01T20:00:12Z</time>
  <course>164.45</course>
  <speed>18.92615121993904</speed>
  <fix>3d</fix>
</trkpt>
<trkpt lat="-35.2841247" lon="148.9860153">
  <ele>709.36</ele>
  <time>2026-09-01T20:00:12Z</time>
  <course>162.95</course>
  <speed>19.7</speed>
  <fix>3d</fix>
</trkpt>
<trkpt lat="-35.2841887" lon="148.9860401">
  <ele>709.94</ele>
  <time>2026-09-01T20:00:12Z</time>
  <course>164.33</course>
  <speed>18.69528550196546</speed>
  <fix>3d</fix>
</trkpt>
<trkpt lat="-35.284158" lon="148.9860279">
  <ele>709.74</ele>
  <time>2026-09-01T20:00:12Z</time>
  <course>162.72</course>
  <speed>19.15</speed>
  <fix>3d</fix>
</trkpt>
<trkpt lat="-35.2842046" lon="148.9860461">
  <ele>710.01</ele>
  <time>2026-09-01T20:00:12Z</time>
  <course>164.24</course>
  <speed>18.461432772133367</speed>
  <fix>3d</fix>
</trkpt>
<trkpt lat="-35.284158" lon="148.9860279">
  <ele>709.74</ele>
  <time>2026-09-01T20:00:12Z</time>
  <course>162.72</course>
  <speed>19.15</speed>
  <fix>3d</fix>
</trkpt>
<trkpt lat="-35.2842204" lon="148.9860521">
  <ele>710.07</ele>
  <time>2026-09-01T20:00:12Z</time>
  <course>164.2</course>
  <speed>18.25325450433429</speed>
  <fix>3d</fix>
</trkpt>
<trkpt lat="-35.2841904" lon="148.9860403">
  <ele>709.98</ele>
  <time>2026-09-01T20:00:12Z</time>
  <course>162.67</course>
  <speed>18.66</speed>
  <fix>3d</fix>
</trkpt>
<trkpt lat="-35.284236" lon="148.986058">
  <ele>710.09</ele>
  <time>2026-09-01T20:00:12Z</time>
  <course>164.2</course>
  <speed>18.051728449098718</speed>
  <fix>3d</fix>
</trkpt>
<trkpt lat="-35.2841904" lon="148.9860403">
  <ele>709.98</ele>
  <time>2026-09-01T20:00:12Z</time>
  <course>162.67</course>
  <speed>18.66</speed>
  <fix>3d</fix>
</trkpt>
<trkpt lat="-35.2842513" lon="148.9860637">
  <ele>710.1</ele>
  <time>2026-09-01T20:00:12Z</time>
  <course>164.27</course>
  <speed>17.85694542748003</speed>
  <fix>3d</fix>
</trkpt>
<trkpt lat="-35.284222" lon="148.9860523">
  <ele>710.11</ele>
  <time>2026-09-01T20:00:12Z</time>
  <course>162.78</course>
  <speed>18.22</speed>
  <fix>3d</fix>
</trkpt>
<trkpt lat="-35.2842665" lon="148.9860693">
  <ele>710.09</ele>
  <time>2026-09-01T20:00:12Z</time>
  <course>164.39</course>
  <speed>17.671909913758615</speed>
  <fix>3d</fix>
</trkpt>
<trkpt lat="-35.284222" lon="148.9860523">
  <ele>710.11</ele>
  <time>2026-09-01T20:00:12Z</time>
  <course>162.78</course>
  <speed>18.22</speed>
  <fix>3d</fix>
</trkpt>
<trkpt lat="-35.2842817" lon="148.9860748">
  <ele>710.07</ele>
  <time>2026-09-01T20:00:12Z</time>
  <course>164.56</course>
  <speed>17.490963381129124</speed>
  <fix>3d</fix>
</trkpt>
<trkpt lat="-35.284253" lon="148.986064">
  <ele>710.15</ele>
  <time>2026-09-01T20:00:12Z</time>
  <course>163.07</course>
  <speed>17.83</speed>
  <fix>3d</fix>
</trkpt>
<trkpt lat="-35.2842967" lon="148.9860802">
  <ele>710.04</ele>
  <time>2026-09-01T20:00:12Z</time>
  <course>164.8</course>
  <speed>17.32681447929769</speed>
  <fix>3d</fix>
</trkpt>
<trkpt lat="-35.284253" lon="148.986064">
  <ele>710.15</ele>
  <time>2026-09-01T20:00:12Z</time>
  <course>163.07</course>
  <speed>17.83</speed>
  <fix>3d</fix>
</trkpt>
<trkpt lat="-35.2843117" lon="148.9860854">
  <ele>710.01</ele>
  <time>2026-09-01T20:00:12Z</time>
  <course>165.08</course>
  <speed>17.16049241717731</speed>
  <fix>3d</fix>
</trkpt>
<trkpt lat="-35.2842835" lon="148.9860752">
  <ele>710.12</ele>
  <time>2026-09-01T20:00:12Z</time>
  <course>163.54</course>
  <speed>17.47</speed>
  <fix>3d</fix>
</trkpt>
<trkpt lat="-35.2843265" lon="148.9860905">
  <ele>709.97</ele>
  <time>2026-09-01T20:00:12Z</time>
  <course>165.42</course>
  <speed>16.99219820976674</speed>
  <fix>3d</fix>
</trkpt>
<trkpt lat="-35.2842835" lon="148.9860752">
  <ele>710.12</ele>
  <time>2026-09-01T20:00:12Z</time>
  <course>163.54</course>
  <speed>17.47</speed>
  <fix>3d</fix>
</trkpt>
<trkpt lat="-35.2843412" lon="148.9860954">
  <ele>709.92</ele>
  <time>2026-09-01T20:00:12Z</time>
  <course>165.81</course>
  <speed>16.83440524639941</speed>
  <fix>3d</fix>
</trkpt>
<trkpt lat="-35.2843134" lon="148.9860858">
  <ele>710.06</ele>
  <time>2026-09-01T20:00:12Z</time>
  <course>164.18</course>
  <speed>17.14</speed>
  <fix>3d</fix>
</trkpt>
<trkpt lat="-35.2843562" lon="148.9861002">
  <ele>709.88</ele>
  <time>2026-09-01T20:00:12Z</time>
  <course>166.25</course>
  <speed>16.672492315187913</speed>
  <fix>3d</fix>
</trkpt>
<trkpt lat="-35.2843134" lon="148.9860858">
  <ele>710.06</ele>
  <time>2026-09-01T20:00:12Z</time>
  <course>164.18</course>
  <speed>17.14</speed>
  <fix>3d</fix>
</trkpt>
<trkpt lat="-35.2843706" lon="148.9861047">
  <ele>709.84</ele>
  <time>2026-09-01T20:00:12Z</time>
  <course>166.71</course>
  <speed>16.5215283796627</speed>
  <fix>3d</fix>
</trkpt>
<trkpt lat="-35.2843428" lon="148.9860957">
  <ele>709.98</ele>
  <time>2026-09-01T20:00:12Z</time>
  <course>165.0</course>
  <speed>16.82</speed>
  <fix>3d</fix>
</trkpt>
<trkpt lat="-35.284385" lon="148.986109">
  <ele>709.8</ele>
  <time>2026-09-01T20:00:12Z</time>
  <course>167.2</course>
  <speed>16.369560165135777</speed>
  <fix>3d</fix>
</trkpt>
<trkpt lat="-35.2843428" lon="148.9860957">
  <ele>709.98</ele>
  <time>2026-09-01T20:00:12Z</time>
  <course>165.0</course>
  <speed>16.82</speed>
  <fix>3d</fix>
</trkpt>
<trkpt lat="-35.2843993" lon="148.9861131">
  <ele>709.77</ele>
  <time>2026-09-01T20:00:12Z</time>
  <course>167.72</course>
  <speed>16.209392339011355</speed>
  <fix>3d</fix>
</trkpt>
<trkpt lat="-35.2843718" lon="148.986105">
  <ele>709.9</ele>
  <time>2026-09-01T20:00:12Z</time>
  <course>165.96</course>
  <speed>16.52</speed>
  <fix>3d</fix>
</trkpt>
<trkpt lat="-35.2844134" lon="148.986117">
  <ele>709.73</ele>
  <time>2026-09-01T20:00:12Z</time>
  <course>168.26</course>
  <speed>16.050772567076017</speed>
  <fix>3d</fix>
</trkpt>
<trkpt lat="-35.2843718" lon="148.986105">
  <ele>709.9</ele>
  <time>2026-09-01T20:00:12Z</time>
  <course>165.96</course>
  <speed>16.52</speed>
  <fix>3d</fix>
</trkpt>
<trkpt lat="-35.2844276" lon="148.9861207">
  <ele>709.71</ele>
  <time>2026-09-01T20:00:12Z</time>
  <course>168.83</course>
  <speed>15.90150307360911</speed>
  <fix>3d</fix>
</trkpt>
<trkpt lat="-35.2844003" lon="148.9861134">
  <ele>709.82</ele>
  <time>2026-09-01T20:00:12Z</time>
  <course>167.03</course>
  <speed>16.21</speed>
  <fix>3d</fix>
</trkpt>
<trkpt lat="-35.2844416" lon="148.9861241">
  <ele>709.68</ele>
  <time>2026-09-01T20:00:12Z</time>
  <course>169.41</course>
  <speed>15.746240821224601</speed>
  <fix>3d</fix>
</trkpt>
<trkpt lat="-35.2844003" lon="148.9861134">
  <ele>709.82</ele>
  <time>2026-09-01T20:00:12Z</time>
  <course>167.03</course>
  <speed>16.21</speed>
  <fix>3d</fix>
</trkpt>
<trkpt lat="-35.2844554" lon="148.9861274">
  <ele>709.66</ele>
  <time>2026-09-01T20:00:12Z</time>
  <course>170.0</course>
  <speed>15.581014087664512</speed>
  <fix>3d</fix>
</trkpt>
<trkpt lat="-35.2844285" lon="148.9861209">
  <ele>709.76</ele>
  <time>2026-09-01T20:00:12Z</time>
  <course>168.2</course>
  <speed>15.9</speed>
  <fix>3d</fix>
</trkpt>
<trkpt lat="-35.2844692" lon="148.9861304">
  <ele>709.65</ele>
  <time>2026-09-01T20:00:12Z</time>
  <course>170.61</course>
  <speed>15.427559755191357</speed>
  <fix>3d</fix>
</trkpt>
<trkpt lat="-35.2844285" lon="148.9861209">
  <ele>709.76</ele>
  <time>2026-09-01T20:00:12Z</time>
  <course>168.2</course>
  <speed>15.9</speed>
  <fix>3d</fix>
</trkpt>
<trkpt lat="-35.2844828" lon="148.9861332">
  <ele>709.63</ele>
  <time>2026-09-01T20:00:12Z</time>
  <course>171.22</course>
  <speed>15.26785512113604</speed>
  <fix>3d</fix>
</trkpt>
<trkpt lat="-35.2844563" lon="148.9861276">
  <ele>709.72</ele>
  <time>2026-09-01T20:00:12Z</time>
  <course>169.42</course>
  <speed>15.6</speed>
  <fix>3d</fix>
</trkpt>
<trkpt lat="-35.2844963" lon="148.9861358">
  <ele>709.62</ele>
  <time>2026-09-01T20:00:12Z</time>
  <course>171.85</course>
  <speed>15.108477752573222</speed>
  <fix>3d</fix>
</trkpt>
<trkpt lat="-35.2844563" lon="148.9861276">
  <ele>709.72</ele>
  <time>2026-09-01T20:00:12Z</time>
  <course>169.42</course>
  <speed>15.6</speed>
  <fix>3d</fix>
</trkpt>
<trkpt lat="-35.2845097" lon="148.9861382">
  <ele>709.62</ele>
  <time>2026-09-01T20:00:12Z</time>
  <course>172.48</course>
  <speed>14.952581716880868</speed>
  <fix>3d</fix>
</trkpt>
<trkpt lat="-35.2844836" lon="148.9861335">
  <ele>709.7</ele>
  <time>2026-09-01T20:00:12Z</time>
  <course>170.69</course>
  <speed>15.29</speed>
  <fix>3d</fix>
</trkpt>
<trkpt lat="-35.2845226" lon="148.9861403">
  <ele>709.61</ele>
  <time>2026-09-01T20:00:12Z</time>
  <course>173.11</course>
  <speed>14.798624936121598</speed>
  <fix>3d</fix>
</trkpt>
<trkpt lat="-35.2844836" lon="148.9861335">
  <ele>709.7</ele>
  <time>2026-09-01T20:00:12Z</time>
  <course>170.69</course>
  <speed>15.29</speed>
  <fix>3d</fix>
</trkpt>
<trkpt lat="-35.2845356" lon="148.9861423">
  <ele>709.61</ele>
  <time>2026-09-01T20:00:12Z</time>
  <course>173.75</course>
  <speed>14.6378857762998</speed>
  <fix>3d</fix>
</trkpt>
<trkpt lat="-35.2845104" lon="148.9861386">
  <ele>709.69</ele>
  <time>2026-09-01T20:00:12Z</time>
  <course>171.98</course>
  <speed>14.97</speed>
  <fix>3d</fix>
</trkpt>
<trkpt lat="-35.2845486" lon="148.9861441">
  <ele>709.61</ele>
  <time>2026-09-01T20:00:12Z</time>
  <course>174.4</course>
  <speed>14.477914214416385</speed>
  <fix>3d</fix>
</trkpt>
<trkpt lat="-35.2845104" lon="148.9861386">
  <ele>709.69</ele>
  <time>2026-09-01T20:00:12Z</time>
  <course>171.98</course>
  <speed>14.97</speed>
  <fix>3d</fix>
</trkpt>
<trkpt lat="-35.2845614" lon="148.9861457">
  <ele>709.61</ele>
  <time>2026-09-01T20:00:12Z</time>
  <course>175.06</course>
  <speed>14.32096365472659</speed>
  <fix>3d</fix>
</trkpt>
<trkpt lat="-35.2845368" lon="148.9861427">
  <ele>709.69</ele>
  <time>2026-09-01T20:00:12Z</time>
  <course>173.3</course>
  <speed>14.66</speed>
  <fix>3d</fix>
</trkpt>
<trkpt lat="-35.2845741" lon="148.986147">
  <ele>709.62</ele>
  <time>2026-09-01T20:00:12Z</time>
  <course>175.72</course>
  <speed>14.155977536009303</speed>
  <fix>3d</fix>
</trkpt>
<trkpt lat="-35.2845368" lon="148.9861427">
  <ele>709.69</ele>
  <time>2026-09-01T20:00:12Z</time>
  <course>173.3</course>
  <speed>14.66</speed>
  <fix>3d</fix>
</trkpt>
<trkpt lat="-35.2845866" lon="148.9861482">
  <ele>709.62</ele>
  <time>2026-09-01T20:00:12Z</time>
  <course>176.38</course>
  <speed>13.992969663370245</speed>
  <fix>3d</fix>
</trkpt>
<trkpt lat="-35.2845628" lon="148.986146">
  <ele>709.69</ele>
  <time>2026-09-01T20:00:12Z</time>
  <course>174.62</course>
  <speed>14.35</speed>
  <fix>3d</fix>
</trkpt>
<trkpt lat="-35.2845992" lon="148.9861492">
  <ele>709.63</ele>
  <time>2026-09-01T20:00:12Z</time>
  <course>177.05</course>
  <speed>13.842561179203797</speed>
  <fix>3d</fix>
</trkpt>
<trkpt lat="-35.2845628" lon="148.986146">
  <ele>709.69</ele>
  <time>2026-09-01T20:00:12Z</time>
  <course>174.62</course>
  <speed>14.35</speed>
  <fix>3d</fix>
</trkpt>
<trkpt lat="-35.2846115" lon="148.98615">
  <ele>709.64</ele>
  <time>2026-09-01T20:00:12Z</time>
  <course>177.72</course>
  <speed>13.68405276224847</speed>
  <fix>3d</fix>
</trkpt>
<trkpt lat="-35.2845882" lon="148.9861487">
  <ele>709.7</ele>
  <time>2026-09-01T20:00:12Z</time>
  <course>175.95</course>
  <speed>14.04</speed>
  <fix>3d</fix>
</trkpt>
<trkpt lat="-35.2846236" lon="148.9861506">
  <ele>709.65</ele>
  <time>2026-09-01T20:00:12Z</time>
  <course>178.39</course>
  <speed>13.527823180393806</speed>
  <fix>3d</fix>
</trkpt>
<trkpt lat="-35.2845882" lon="148.9861487">
  <ele>709.7</ele>
  <time>2026-09-01T20:00:12Z</time>
  <course>175.95</course>
  <speed>14.04</speed>
  <fix>3d</fix>
</trkpt>
<trkpt lat="-35.2846361" lon="148.9861511">
  <ele>709.67</ele>
  <time>2026-09-01T20:00:12Z</time>
  <course>179.07</course>
  <speed>13.363147084425885</speed>
  <fix>3d</fix>
</trkpt>
<trkpt lat="-35.2846132" lon="148.9861505">
  <ele>709.73</ele>
  <time>2026-09-01T20:00:12Z</time>
  <course>177.28</course>
  <speed>13.74</speed>
  <fix>3d</fix>
</trkpt>
<trkpt lat="-35.2846479" lon="148.9861514">
  <ele>709.68</ele>
  <time>2026-09-01T20:00:12Z</time>
  <course>179.74</course>
  <speed>13.210741841395583</speed>
  <fix>3d</fix>
</trkpt>
<trkpt lat="-35.2846132" lon="148.9861505">
  <ele>709.73</ele>
  <time>2026-09-01T20:00:12Z</time>
  <course>177.28</course>
  <speed>13.74</speed>
  <fix>3d</fix>
</trkpt>
<trkpt lat="-35.2846597" lon="148.9861515">
  <ele>709.7</ele>
  <time>2026-09-01T20:00:12Z</time>
  <course>180.41</course>
  <speed>13.06</speed>
  <fix>3d</fix>
</trkpt>
<trkpt lat="-35.2846376" lon="148.9861515">
  <ele>709.75</ele>
  <time>2026-09-01T20:00:12Z</time>
  <course>178.59</course>
  <speed>13.43</speed>
  <fix>3d</fix>
</trkpt>
<trkpt lat="-35.2846714" lon="148.9861514">
  <ele>709.72</ele>
  <time>2026-09-01T20:00:12Z</time>
  <course>181.08</course>
  <speed>12.900872063546712</speed>
  <fix>3d</fix>
</trkpt>
<trkpt lat="-35.2846376" lon="148.9861515">
  <ele>709.75</ele>
  <time>2026-09-01T20:00:12Z</time>
  <course>178.59</course>
  <speed>13.43</speed>
  <fix>3d</fix>
</trkpt>
<trkpt lat="-35.2846829" lon="148.9861512">
  <ele>709.74</ele>
  <time>2026-09-01T20:00:12Z</time>
  <course>181.74</course>
  <speed>12.753297612774508</speed>
  <fix>3d</fix>
</trkpt>
<trkpt lat="-35.2846615" lon="148.9861518">
  <ele>709.78</ele>
  <time>2026-09-01T20:00:12Z</time>
  <course>179.9</course>
  <speed>13.13</speed>
  <fix>3d</fix>
</trkpt>
<trkpt lat="-35.2846944" lon="148.9861509">
  <ele>709.76</ele>
  <time>2026-09-01T20:00:12Z</time>
  <course>182.4</course>
  <speed>12.5973409892723</speed>
  <fix>3d</fix>
</trkpt>
<trkpt lat="-35.2846615" lon="148.9861518">
  <ele>709.78</ele>
  <time>2026-09-01T20:00:12Z</time>
  <course>179.9</course>
  <speed>13.13</speed>
  <fix>3d</fix>
</trkpt>
<trkpt lat="-35.2847057" lon="148.9861504">
  <ele>709.78</ele>
  <time>2026-09-01T20:00:12Z</time>
  <course>183.05</course>
  <speed>12.442608247469659</speed>
  <fix>3d</fix>
</trkpt>
<trkpt lat="-35.2846848" lon="148.9861516">
  <ele>709.82</ele>
  <time>2026-09-01T20:00:12Z</time>
  <course>181.19</course>
  <speed>12.82</speed>
  <fix>3d</fix>
</trkpt>
<trkpt lat="-35.2847168" lon="148.9861497">
  <ele>709.8</ele>
  <time>2026-09-01T20:00:12Z</time>
  <course>183.69</course>
  <speed>12.279401451210886</speed>
  <fix>3d</fix>
</trkpt>
<trkpt lat="-35.2846848" lon="148.9861516">
  <ele>709.82</ele>
  <time>2026-09-01T20:00:12Z</time>
  <course>181.19</course>
  <speed>12.82</speed>
  <fix>3d</fix>
</trkpt>
<trkpt lat="-35.2847278" lon="148.986149">
  <ele>709.83</ele>
  <time>2026-09-01T20:00:12Z</time>
  <course>184.31</course>
  <speed>12.127081264673704</speed>
  <fix>3d</fix>
</trkpt>
<trkpt lat="-35.2847075" lon="148.9861508">
  <ele>709.86</ele>
  <time>2026-09-01T20:00:12Z</time>
  <course>182.46</course>
  <speed>12.51</speed>
  <fix>3d</fix>
</trkpt>
<trkpt lat="-35.2847387" lon="148.9861481">
  <ele>709.86</ele>
  <time>2026-09-01T20:00:12Z</time>
  <course>184.93</course>
  <speed>11.966194048234383</speed>
  <fix>3d</fix>
</trkpt>
<trkpt lat="-35.2847075" lon="148.9861508">
  <ele>709.86</ele>
  <time>2026-09-01T20:00:12Z</time>
  <course>182.46</course>
  <speed>12.51</speed>
  <fix>3d</fix>
</trkpt>
<trkpt lat="-35.2847494" lon="148.9861471">
  <ele>709.89</ele>
  <time>2026-09-01T20:00:12Z</time>
  <course>185.53</course>
  <speed>11.805896831668486</speed>
  <fix>3d</fix>
</trkpt>
<trkpt lat="-35.2847297" lon="148.9861493">
  <ele>709.91</ele>
  <time>2026-09-01T20:00:12Z</time>
  <course>183.7</course>
  <speed>12.2</speed>
  <fix>3d</fix>
</trkpt>
<trkpt lat="-35.2847599" lon="148.9861459">
  <ele>709.92</ele>
  <time>2026-09-01T20:00:12Z</time>
  <course>186.13</course>
  <speed>11.645930619748686</speed>
  <fix>3d</fix>
</trkpt>
<trkpt lat="-35.2847297" lon="148.9861493">
  <ele>709.91</ele>
  <time>2026-09-01T20:00:12Z</time>
  <course>183.7</course>
  <speed>12.2</speed>
  <fix>3d</fix>
</trkpt>
<trkpt lat="-35.2847704" lon="148.9861446">
  <ele>709.95</ele>
  <time>2026-09-01T20:00:12Z</time>
  <course>186.72</course>
  <speed>11.477181709810122</speed>
  <fix>3d</fix>
</trkpt>
<trkpt lat="-35.2847512" lon="148.9861474">
  <ele>709.97</ele>
  <time>2026-09-01T20:00:12Z</time>
  <course>184.91</course>
  <speed>11.87</speed>
  <fix>3d</fix>
</trkpt>
<trkpt lat="-35.2847806" lon="148.9861432">
  <ele>709.99</ele>
  <time>2026-09-01T20:00:12Z</time>
  <course>187.3</course>
  <speed>11.308483541129641</speed>
  <fix>3d</fix>
</trkpt>
<trkpt lat="-35.2847512" lon="148.9861474">
  <ele>709.97</ele>
  <time>2026-09-01T20:00:12Z</time>
  <course>184.91</course>
  <speed>11.87</speed>
  <fix>3d</fix>
</trkpt>
<trkpt lat="-35.2847907" lon="148.9861418">
  <ele>710.03</ele>
  <time>2026-09-01T20:00:12Z</time>
  <course>187.87</course>
  <speed>11.150784725749125</speed>
  <fix>3d</fix>
</trkpt>
<trkpt lat="-35.2847722" lon="148.9861449">
  <ele>710.04</ele>
  <time>2026-09-01T20:00:12Z</time>
  <course>186.08</course>
  <speed>11.54</speed>
  <fix>3d</fix>
</trkpt>
<trkpt lat="-35.2848006" lon="148.9861402">
  <ele>710.07</ele>
  <time>2026-09-01T20:00:12Z</time>
  <course>188.43</course>
  <speed>10.973007791849964</speed>
  <fix>3d</fix>
</trkpt>
<trkpt lat="-35.2847722" lon="148.9861449">
  <ele>710.04</ele>
  <time>2026-09-01T20:00:12Z</time>
  <course>186.08</course>
  <speed>11.54</speed>
  <fix>3d</fix>
</trkpt>
<trkpt lat="-35.2848104" lon="148.9861386">
  <ele>710.12</ele>
  <time>2026-09-01T20:00:12Z</time>
  <course>188.98</course>
  <speed>10.804674914128606</speed>
  <fix>3d</fix>
</trkpt>
<trkpt lat="-35.2847924" lon="148.986142">
  <ele>710.12</ele>
  <time>2026-09-01T20:00:12Z</time>
  <course>187.2</course>
  <speed>11.2</speed>
  <fix>3d</fix>
</trkpt>
<trkpt lat="-35.28482" lon="148.9861368">
  <ele>710.16</ele>
  <time>2026-09-01T20:00:12Z</time>
  <course>189.52</course>
  <speed>10.627304455975654</speed>
  <fix>3d</fix>
</trkpt>
<trkpt lat="-35.2847924" lon="148.986142">
  <ele>710.12</ele>
  <time>2026-09-01T20:00:12Z</time>
  <course>187.2</course>
  <speed>11.2</speed>
  <fix>3d</fix>
</trkpt>
<trkpt lat="-35.2848294" lon="148.986135">
  <ele>710.2</ele>
  <time>2026-09-01T20:00:12Z</time>
  <course>190.04</course>
  <speed>10.450846855638062</speed>
  <fix>3d</fix>
</trkpt>
<trkpt lat="-35.2848122" lon="148.9861387">
  <ele>710.2</ele>
  <time>2026-09-01T20:00:12Z</time>
  <course>188.29</course>
  <speed>10.85</speed>
  <fix>3d</fix>
</trkpt>
<trkpt lat="-35.2848384" lon="148.9861332">
  <ele>710.25</ele>
  <time>2026-09-01T20:00:12Z</time>
  <course>190.54</course>
  <speed>10.283472176264201</speed>
  <fix>3d</fix>
</trkpt>
<trkpt lat="-35.2848122" lon="148.9861387">
  <ele>710.2</ele>
  <time>2026-09-01T20:00:12Z</time>
  <course>188.29</course>
  <speed>10.85</speed>
  <fix>3d</fix>
</trkpt>
<trkpt lat="-35.2848478" lon="148.9861312">
  <ele>710.3</ele>
  <time>2026-09-01T20:00:12Z</time>
  <course>191.06</course>
  <speed>10.095409848044802</speed>
  <fix>3d</fix>
</trkpt>
<trkpt lat="-35.2848312" lon="148.9861351">
  <ele>710.3</ele>
  <time>2026-09-01T20:00:12Z</time>
  <course>189.32</course>
  <speed>10.5</speed>
  <fix>3d</fix>
</trkpt>
<trkpt lat="-35.2848567" lon="148.9861292">
  <ele>710.34</ele>
  <time>2026-09-01T20:00:12Z</time>
  <course>191.55</course>
  <speed>9.917887879987353</speed>
  <fix>3d</fix>
</trkpt>
<trkpt lat="-35.2848312" lon="148.9861351">
  <ele>710.3</ele>
  <time>2026-09-01T20:00:12Z</time>
  <course>189.32</course>
  <speed>10.5</speed>
  <fix>3d</fix>
</trkpt>
<trkpt lat="-35.2848654" lon="148.9861271">
  <ele>710.39</ele>
  <time>2026-09-01T20:00:12Z</time>
  <course>192.03</course>
  <speed>9.729321661863175</speed>
  <fix>3d</fix>
</trkpt>
<trkpt lat="-35.2848494" lon="148.9861313">
  <ele>710.39</ele>
  <time>2026-09-01T20:00:12Z</time>
  <course>190.31</course>
  <speed>10.13</speed>
  <fix>3d</fix>
</trkpt>
<trkpt lat="-35.284874" lon="148.986125">
  <ele>710.44</ele>
  <time>2026-09-01T20:00:12Z</time>
  <course>192.5</course>
  <speed>9.549141322653048</speed>
  <fix>3d</fix>
</trkpt>
<trkpt lat="-35.2848494" lon="148.9861313">
  <ele>710.39</ele>
  <time>2026-09-01T20:00:12Z</time>
  <course>190.31</course>
  <speed>10.13</speed>
  <fix>3d</fix>
</trkpt>
<trkpt lat="-35.2848824" lon="148.9861229">
  <ele>710.48</ele>
  <time>2026-09-01T20:00:12Z</time>
  <course>192.95</course>
  <speed>9.359668797559024</speed>
  <fix>3d</fix>
</trkpt>
<trkpt lat="-35.284867" lon="148.9861272">
  <ele>710.49</ele>
  <time>2026-09-01T20:00:12Z</time>
  <course>191.24</course>
  <speed>9.76</speed>
  <fix>3d</fix>
</trkpt>
<trkpt lat="-35.2848906" lon="148.9861207">
  <ele>710.53</ele>
  <time>2026-09-01T20:00:12Z</time>
  <course>193.4</course>
  <speed>9.180501075649412</speed>
  <fix>3d</fix>
</trkpt>
<trkpt lat="-35.284867" lon="148.9861272">
  <ele>710.49</ele>
  <time>2026-09-01T20:00:12Z</time>
  <course>191.24</course>
  <speed>9.76</speed>
  <fix>3d</fix>
</trkpt>
<trkpt lat="-35.2848987" lon="148.9861185">
  <ele>710.58</ele>
  <time>2026-09-01T20:00:12Z</time>
  <course>193.83</course>
  <speed>8.989883202800803</speed>
  <fix>3d</fix>
</trkpt>
<trkpt lat="-35.2848838" lon="148.9861229">
  <ele>710.58</ele>
  <time>2026-09-01T20:00:12Z</time>
  <course>192.12</course>
  <speed>9.39</speed>
  <fix>3d</fix>
</trkpt>
<trkpt lat="-35.2849065" lon="148.9861163">
  <ele>710.62</ele>
  <time>2026-09-01T20:00:12Z</time>
  <course>194.25</course>
  <speed>8.799727268500995</speed>
  <fix>3d</fix>
</trkpt>
<trkpt lat="-35.2848838" lon="148.9861229">
  <ele>710.58</ele>
  <time>2026-09-01T20:00:12Z</time>
  <course>192.12</course>
  <speed>9.39</speed>
  <fix>3d</fix>
</trkpt>
<trkpt lat="-35.2849142" lon="148.9861141">
  <ele>710.66</ele>
  <time>2026-09-01T20:00:12Z</time>
  <course>194.66</course>
  <speed>8.61738939586694</speed>
  <fix>3d</fix>
</trkpt>
<trkpt lat="-35.2848999" lon="148.9861184">
  <ele>710.67</ele>
  <time>2026-09-01T20:00:12Z</time>
  <course>192.95</course>
  <speed>9.01</speed>
  <fix>3d</fix>
</trkpt>
<trkpt lat="-35.2849217" lon="148.9861118">
  <ele>710.7</ele>
  <time>2026-09-01T20:00:12Z</time>
  <course>195.05</course>
  <speed>8.425704718301017</speed>
  <fix>3d</fix>
</trkpt>
<trkpt lat="-35.2848999" lon="148.9861184">
  <ele>710.67</ele>
  <time>2026-09-01T20:00:12Z</time>
  <course>192.95</course>
  <speed>9.01</speed>
  <fix>3d</fix>
</trkpt>
<trkpt lat="-35.284929" lon="148.9861096">
  <ele>710.74</ele>
  <time>2026-09-01T20:00:12Z</time>
  <course>195.44</course>
  <speed>8.231919581725759</speed>
  <fix>3d</fix>
</trkpt>
<trkpt lat="-35.2849153" lon="148.986114">
  <ele>710.76</ele>
  <time>2026-09-01T20:00:12Z</time>
  <course>193.74</course>
  <speed>8.62</speed>
  <fix>3d</fix>
</trkpt>
<trkpt lat="-35.2849361" lon="148.9861073">
  <ele>710.77</ele>
  <time>2026-09-01T20:00:12Z</time>
  <course>195.81</course>
  <speed>8.04810536710349</speed>
  <fix>3d</fix>
</trkpt>
<trkpt lat="-35.2849153" lon="148.986114">
  <ele>710.76</ele>
  <time>2026-09-01T20:00:12Z</time>
  <course>193.74</course>
  <speed>8.62</speed>
  <fix>3d</fix>
</trkpt>
<trkpt lat="-35.2849431" lon="148.986105">
  <ele>710.8</ele>
  <time>2026-09-01T20:00:12Z</time>
  <course>196.17</course>
  <speed>7.8523181290622714</speed>
  <fix>3d</fix>
</trkpt>
<trkpt lat="-35.28493" lon="148.9861095">
  <ele>710.83</ele>
  <time>2026-09-01T20:00:12Z</time>
  <course>194.47</course>
  <speed>8.24</speed>
  <fix>3d</fix>
</trkpt>
<trkpt lat="-35.2849498" lon="148.9861028">
  <ele>710.82</ele>
  <time>2026-09-01T20:00:12Z</time>
  <course>196.51</course>
  <speed>7.666400720025011</speed>
  <fix>3d</fix>
</trkpt>
<trkpt lat="-35.28493" lon="148.9861095">
  <ele>710.83</ele>
  <time>2026-09-01T20:00:12Z</time>
  <course>194.47</course>
  <speed>8.24</speed>
  <fix>3d</fix>
</trkpt>
<trkpt lat="-35.2849564" lon="148.9861006">
  <ele>710.84</ele>
  <time>2026-09-01T20:00:12Z</time>
  <course>196.85</course>
  <speed>7.480701838731444</speed>
  <fix>3d</fix>
</trkpt>
<trkpt lat="-35.2849439" lon="148.9861049">
  <ele>710.89</ele>
  <time>2026-09-01T20:00:12Z</time>
  <course>195.14</course>
  <speed>7.85</speed>
  <fix>3d</fix>
</trkpt>
<trkpt lat="-35.2849628" lon="148.9860983">
  <ele>710.86</ele>
  <time>2026-09-01T20:00:12Z</time>
  <course>197.16</course>
  <speed>7.282863447847968</speed>
  <fix>3d</fix>
</trkpt>
<trkpt lat="-35.2849439" lon="148.9861049">
  <ele>710.89</ele>
  <time>2026-09-01T20:00:12Z</time>
  <course>195.14</course>
  <speed>7.85</speed>
  <fix>3d</fix>
</trkpt>
<trkpt lat="-35.2849691" lon="148.9860961">
  <ele>710.87</ele>
  <time>2026-09-01T20:00:12Z</time>
  <course>197.46</course>
  <speed>7.104400045042508</speed>
  <fix>3d</fix>
</trkpt>
<trkpt lat="-35.2849573" lon="148.9861004">
  <ele>710.94</ele>
  <time>2026-09-01T20:00:12Z</time>
  <course>195.75</course>
  <speed>7.47</speed>
  <fix>3d</fix>
</trkpt>
<trkpt lat="-35.2849751" lon="148.986094">
  <ele>710.88</ele>
  <time>2026-09-01T20:00:12Z</time>
  <course>197.75</course>
  <speed>6.913645926716235</speed>
  <fix>3d</fix>
</trkpt>
<trkpt lat="-35.2849573" lon="148.9861004">
  <ele>710.94</ele>
  <time>2026-09-01T20:00:12Z</time>
  <course>195.75</course>
  <speed>7.47</speed>
  <fix>3d</fix>
</trkpt>
<trkpt lat="-35.2849811" lon="148.9860918">
  <ele>710.86</ele>
  <time>2026-09-01T20:00:12Z</time>
  <course>198.01</course>
  <speed>6.732562662166614</speed>
  <fix>3d</fix>
</trkpt>
<trkpt lat="-35.2849699" lon="148.9860959">
  <ele>710.96</ele>
  <time>2026-09-01T20:00:12Z</time>
  <course>196.29</course>
  <speed>7.09</speed>
  <fix>3d</fix>
</trkpt>
<trkpt lat="-35.2849868" lon="148.9860897">
  <ele>710.79</ele>
  <time>2026-09-01T20:00:12Z</time>
  <course>198.24</course>
  <speed>6.492149104880448</speed>
  <fix>3d</fix>
</trkpt>
<trkpt lat="-35.2849699" lon="148.9860959">
  <ele>710.96</ele>
  <time>2026-09-01T20:00:12Z</time>
  <course>196.29</course>
  <speed>7.09</speed>
  <fix>3d</fix>
</trkpt>
<trkpt lat="-35.2849923" lon="148.9860877">
  <ele>710.63</ele>
  <time>2026-09-01T20:00:12Z</time>
  <course>198.42</course>
  <speed>6.191389181758808</speed>
  <fix>3d</fix>
</trkpt>
<trkpt lat="-35.2849818" lon="148.9860916">
  <ele>710.93</ele>
  <time>2026-09-01T20:00:12Z</time>
  <course>196.63</course>
  <speed>6.69</speed>
  <fix>3d</fix>
</trkpt>
<trkpt lat="-35.2849975" lon="148.9860858">
  <ele>710.41</ele>
  <time>2026-09-01T20:00:12Z</time>
  <course>198.58</course>
  <speed>5.836994089426509</speed>
  <fix>3d</fix>
</trkpt>
<trkpt lat="-35.2849818" lon="148.9860916">
  <ele>710.93</ele>
  <time>2026-09-01T20:00:12Z</time>
  <course>196.63</course>
  <speed>6.69</speed>
  <fix>3d</fix>
</trkpt>
<trkpt lat="-35.2850024" lon="148.986084">
  <ele>710.12</ele>
  <time>2026-09-01T20:00:12Z</time>
  <course>198.73</course>
  <speed>5.428959384633486</speed>
  <fix>3d</fix>
</trkpt>
<trkpt lat="-35.2849929" lon="148.9860876">
  <ele>710.71</ele>
  <time>2026-09-01T20:00:12Z</time>
  <course>196.79</course>
  <speed>6.15</speed>
  <fix>3d</fix>
</trkpt>
<trkpt lat="-35.2850069" lon="148.9860824">
  <ele>709.79</ele>
  <time>2026-09-01T20:00:12Z</time>
  <course>198.95</course>
  <speed>4.941437037947565</speed>
  <fix>3d</fix>
</trkpt>
<trkpt lat="-35.2849929" lon="148.9860876">
  <ele>710.71</ele>
  <time>2026-09-01T20:00:12Z</time>
  <course>196.79</course>
  <speed>6.15</speed>
  <fix>3d</fix>
</trkpt>
<trkpt lat="-35.2850109" lon="148.9860809">
  <ele>709.44</ele>
  <time>2026-09-01T20:00:12Z</time>
  <course>199.31</course>
  <speed>4.4098526052465745</speed>
  <fix>3d</fix>
</trkpt>
<trkpt lat="-35.2850028" lon="148.9860839">
  <ele>710.22</ele>
  <time>2026-09-01T20:00:12Z</time>
  <course>196.94</course>
  <speed>5.38</speed>
  <fix>3d</fix>
</trkpt>
<trkpt lat="-35.2850145" lon="148.9860795">
  <ele>709.06</ele>
  <time>2026-09-01T20:00:12Z</time>
  <course>199.82</course>
  <speed>3.852531635171865</speed>
  <fix>3d</fix>
</trkpt>
<trkpt lat="-35.2850028" lon="148.9860839">
  <ele>710.22</ele>
  <time>2026-09-01T20:00:12Z</time>
  <course>196.94</course>
  <speed>5.38</speed>
  <fix>3d</fix>
</trkpt>
<trkpt lat="-35.2850175" lon="148.9860783">
  <ele>708.68</ele>
  <time>2026-09-01T20:00:12Z</time>
  <course>200.48</course>
  <speed>3.3049205739321486</speed>
  <fix>3d</fix>
</trkpt>
<trkpt lat="-35.2850112" lon="148.9860808">
  <ele>709.55</ele>
  <time>2026-09-01T20:00:12Z</time>
  <course>197.32</course>
  <speed>4.39</speed>
  <fix>3d</fix>
</trkpt>
<trkpt lat="-35.2850202" lon="148.9860773">
  <ele>708.3</ele>
  <time>2026-09-01T20:00:12Z</time>
  <course>201.25</course>
  <speed>2.7828043409481737</speed>
  <fix>3d</fix>
</trkpt>
<trkpt lat="-35.2850112" lon="148.9860808">
  <ele>709.55</ele>
  <time>2026-09-01T20:00:12Z</time>
  <course>197.32</course>
  <speed>4.39</speed>
  <fix>3d</fix>
</trkpt>
<trkpt lat="-35.2850224" lon="148.9860764">
  <ele>707.92</ele>
  <time>2026-09-01T20:00:12Z</time>
  <course>202.08</course>
  <speed>2.311990484409484</speed>
  <fix>3d</fix>
</trkpt>
<trkpt lat="-35.2850178" lon="148.9860782">
  <ele>708.81</ele>
  <time>2026-09-01T20:00:12Z</time>
  <course>198.24</course>
  <speed>3.3</speed>
  <fix>3d</fix>
</trkpt>
<trkpt lat="-35.2850241" lon="148.9860756">
  <ele>707.56</ele>
  <time>2026-09-01T20:00:12Z</time>
  <course>202.93</course>
  <speed>1.886796226411321</speed>
  <fix>3d</fix>
</trkpt>
<trkpt lat="-35.2850178" lon="148.9860782">
  <ele>708.81</ele>
  <time>2026-09-01T20:00:12Z</time>
  <course>198.24</course>
  <speed>3.3</speed>
  <fix>3d</fix>
</trkpt>
<trkpt lat="-35.2850256" lon="148.9860748">
  <ele>707.22</ele>
  <time>2026-09-01T20:00:12Z</time>
  <course>203.76</course>
  <speed>1.527121475194426</speed>
  <fix>3d</fix>
</trkpt>
<trkpt lat="-35.2850225" lon="148.9860761">
  <ele>708.06</ele>
  <time>2026-09-01T20:00:12Z</time>
  <course>200.31</course>
  <speed>2.32</speed>
  <fix>3d</fix>
</trkpt>
<trkpt lat="-35.2850267" lon="148.9860742">
  <ele>706.9</ele>
  <time>2026-09-01T20:00:12Z</time>
  <course>204.55</course>
  <speed>1.216552506059644</speed>
  <fix>3d</fix>
</trkpt>
<trkpt lat="-35.2850225" lon="148.9860761">
  <ele>708.06</ele>
  <time>2026-09-01T20:00:12Z</time>
  <course>200.31</course>
  <speed>2.32</speed>
  <fix>3d</fix>
</trkpt>
<trkpt lat="-35.2850275" lon="148.9860735">
  <ele>706.6</ele>
  <time>2026-09-01T20:00:12Z</time>
  <course>205.25</course>
  <speed>0.9625487000666512</speed>
  <fix>3d</fix>
</trkpt>
<trkpt lat="-35.2850257" lon="148.9860746">
  <ele>707.37</ele>
  <time>2026-09-01T20:00:12Z</time>
  <course>204.82</course>
  <speed>1.52</speed>
  <fix>3d</fix>
</trkpt>
<trkpt lat="-35.2850282" lon="148.986073">
  <ele>706.32</ele>
  <time>2026-09-01T20:00:12Z</time>
  <course>205.84</course>
  <speed>0.7733692520394123</speed>
  <fix>3d</fix>
</trkpt>
<trkpt lat="-35.2850257" lon="148.9860746">
  <ele>707.37</ele>
  <time>2026-09-01T20:00:12Z</time>
  <course>204.82</course>
  <speed>1.52</speed>
  <fix>3d</fix>
</trkpt>
<trkpt lat="-35.2850286" lon="148.9860724">
  <ele>706.06</ele>
  <time>2026-09-01T20:00:12Z</time>
  <course>206.28</course>
  <speed>0.6466065264130885</speed>
  <fix>3d</fix>
</trkpt>
<trkpt lat="-35.2850277" lon="148.9860732">
  <ele>706.75</ele>
  <time>2026-09-01T20:00:12Z</time>
  <course>214.53</course>
  <speed>0.95</speed>
  <fix>3d</fix>
</trkpt>
<trkpt lat="-35.2850289" lon="148.9860718">
  <ele>705.82</ele>
  <time>2026-09-01T20:00:12Z</time>
  <course>206.57</course>
  <speed>0.5682429058070149</speed>
  <fix>3d</fix>
</trkpt>
<trkpt lat="-35.2850277" lon="148.9860732">
  <ele>706.75</ele>
  <time>2026-09-01T20:00:12Z</time>
  <course>214.53</course>
  <speed>0.95</speed>
  <fix>3d</fix>
</trkpt>
<trkpt lat="-35.2850291" lon="148.9860712">
  <ele>705.6</ele>
  <time>2026-09-01T20:00:12Z</time>
  <course>206.68</course>
  <speed>0.5249761899362675</speed>
  <fix>3d</fix>
</trkpt>
<trkpt lat="-35.2850287" lon="148.9860721">
  <ele>706.21</ele>
  <time>2026-09-01T20:00:12Z</time>
  <course>233.1</course>
  <speed>0.63</speed>
  <fix>3d</fix>
</trkpt>
<trkpt lat="-35.2850292" lon="148.9860707">
  <ele>705.39</ele>
  <time>2026-09-01T20:00:12Z</time>
  <course>206.61</course>
  <speed>0.5135172830587107</speed>
  <fix>3d</fix>
</trkpt>
<trkpt lat="-35.2850287" lon="148.9860721">
  <ele>706.21</ele>
  <time>2026-09-01T20:00:12Z</time>
  <course>233.1</course>
  <speed>0.63</speed>
  <fix>3d</fix>
</trkpt>
<trkpt lat="-35.2850292" lon="148.9860701">
  <ele>705.2</ele>
  <time>2026-09-01T20:00:12Z</time>
  <course>206.38</course>
  <speed>0.510098029794274</speed>
  <fix>3d</fix>
</trkpt>
<trkpt lat="-35.2850291" lon="148.986071">
  <ele>705.75</ele>
  <time>2026-09-01T20:00:12Z</time>
  <course>257.4</course>
  <speed>0.51</speed>
  <fix>3d</fix>
</trkpt>
<trkpt lat="-35.2850292" lon="148.9860695">
  <ele>705.01</ele>
  <time>2026-09-01T20:00:12Z</time>
  <course>206.04</course>
  <speed>0.5162363799656123</speed>
  <fix>3d</fix>
</trkpt>
<trkpt lat="-35.2850291" lon="148.986071">
  <ele>705.75</ele>
  <time>2026-09-01T20:00:12Z</time>
  <course>257.4</course>
  <speed>0.51</speed>
  <fix>3d</fix>
</trkpt>
<trkpt lat="-35.2850291" lon="148.9860689">
  <ele>704.84</ele>
  <time>2026-09-01T20:00:12Z</time>
  <course>205.61</course>
  <speed>0.5263078946776306</speed>
  <fix>3d</fix>
</trkpt>
<trkpt lat="-35.2850291" lon="148.9860699">
  <ele>705.35</ele>
  <time>2026-09-01T20:00:12Z</time>
  <course>277.88</course>
  <speed>0.5</speed>
  <fix>3d</fix>
</trkpt>
<trkpt lat="-35.285029" lon="148.9860684">
  <ele>704.67</ele>
  <time>2026-09-01T20:00:12Z</time>
  <course>205.16</course>
  <speed>0.5314132102234569</speed>
  <fix>3d</fix>
</trkpt>
<trkpt lat="-35.2850291" lon="148.9860699">
  <ele>705.35</ele>
  <time>2026-09-01T20:00:12Z</time>
  <course>277.88</course>
  <speed>0.5</speed>
  <fix>3d</fix>
</trkpt>
<trkpt lat="-35.2850288" lon="148.9860678">
  <ele>704.51</ele>
  <time>2026-09-01T20:00:12Z</time>
  <course>204.71</course>
  <speed>0.5462600113499065</speed>
  <fix>3d</fix>
</trkpt>
<trkpt lat="-35.2850289" lon="148.9860689">
  <ele>705.0</ele>
  <time>2026-09-01T20:00:12Z</time>
  <course>291.87</course>
  <speed>0.52</speed>
  <fix>3d</fix>
</trkpt>
<trkpt lat="-35.2850285" lon="148.9860673">
  <ele>704.35</ele>
  <time>2026-09-01T20:00:12Z</time>
  <course>204.3</course>
  <speed>0.5412023651093923</speed>
  <fix>3d</fix>
</trkpt>
<trkpt lat="-35.2850289" lon="148.9860689">
  <ele>705.0</ele>
  <time>2026-09-01T20:00:12Z</time>
  <course>291.87</course>
  <speed>0.52</speed>
  <fix>3d</fix>
</trkpt>
<trkpt lat="-35.2850283" lon="148.9860668">
  <ele>704.19</ele>
  <time>2026-09-01T20:00:12Z</time>
  <course>203.97</course>
  <speed>0.5371219600798314</speed>
  <fix>3d</fix>
</trkpt>
<trkpt lat="-35.2850285" lon="148.9860679">
  <ele>704.68</ele>
  <time>2026-09-01T20:00:12Z</time>
  <course>300.93</course>
  <speed>0.53</speed>
  <fix>3d</fix>
</trkpt>
<trkpt lat="-35.285028" lon="148.9860663">
  <ele>704.03</ele>
  <time>2026-09-01T20:00:12Z</time>
  <course>203.73</course>
  <speed>0.524785670536077</speed>
  <fix>3d</fix>
</trkpt>
<trkpt lat="-35.2850285" lon="148.9860679">
  <ele>704.68</ele>
  <time>2026-09-01T20:00:12Z</time>
  <course>300.93</course>
  <speed>0.53</speed>
  <fix>3d</fix>
</trkpt>
<trkpt lat="-35.2850277" lon="148.9860658">
  <ele>703.87</ele>
  <time>2026-09-01T20:00:12Z</time>
  <course>203.58</course>
  <speed>0.5077400909914441</speed>
  <fix>3d</fix>
</trkpt>
<trkpt lat="-35.2850279" lon="148.9860669">
  <ele>704.36</ele>
  <time>2026-09-01T20:00:12Z</time>
  <course>306.68</course>
  <speed>0.53</speed>
  <fix>3d</fix>
</trkpt>
<trkpt lat="-35.2850274" lon="148.9860654">
  <ele>703.7</ele>
  <time>2026-09-01T20:00:12Z</time>
  <course>203.54</course>
  <speed>0.4909175083453431</speed>
  <fix>3d</fix>
</trkpt>
<trkpt lat="-35.2850279" lon="148.9860669">
  <ele>704.36</ele>
  <time>2026-09-01T20:00:12Z</time>
  <course>306.68</course>
  <speed>0.53</speed>
  <fix>3d</fix>
</trkpt>
<trkpt lat="-35.2850272" lon="148.9860649">
  <ele>703.53</ele>
  <time>2026-09-01T20:00:12Z</time>
  <course>203.6</course>
  <speed>0.4632493928760188</speed>
  <fix>3d</fix>
</trkpt>
<trkpt lat="-35.2850274" lon="148.986066">
  <ele>704.03</ele>
  <time>2026-09-01T20:00:12Z</time>
  <course>310.14</course>
  <speed>0.5</speed>
  <fix>3d</fix>
</trkpt>
<trkpt lat="-35.2850269" lon="148.9860646">
  <ele>703.35</ele>
  <time>2026-09-01T20:00:12Z</time>
  <course>203.73</course>
  <speed>0.42720018726587655</speed>
  <fix>3d</fix>
</trkpt>
<trkpt lat="-35.2850274" lon="148.986066">
  <ele>704.03</ele>
  <time>2026-09-01T20:00:12Z</time>
  <course>310.14</course>
  <speed>0.5</speed>
  <fix>3d</fix>
</trkpt>
<trkpt lat="-35.2850267" lon="148.9860642">
  <ele>703.16</ele>
  <time>2026-09-01T20:00:12Z</time>
  <course>203.92</course>
  <speed>0.3944616584663204</speed>
  <fix>3d</fix>
</trkpt>
<trkpt lat="-35.2850268" lon="148.9860651">
  <ele>703.69</ele>
  <time>2026-09-01T20:00:12Z</time>
  <course>311.83</course>
  <speed>0.45</speed>
  <fix>3d</fix>
</trkpt>
<trkpt lat="-35.2850265" lon="148.9860639">
  <ele>702.97</ele>
  <time>2026-09-01T20:00:12Z</time>
  <course>204.15</course>
  <speed>0.3535533905932738</speed>
  <fix>3d</fix>
</trkpt>
<trkpt lat="-35.2850268" lon="148.9860651">
  <ele>703.69</ele>
  <time>2026-09-01T20:00:12Z</time>
  <course>311.83</course>
  <speed>0.45</speed>
  <fix>3d</fix>
</trkpt>
<trkpt lat="-35.2850263" lon="148.9860636">
  <ele>702.78</ele>
  <time>2026-09-01T20:00:12Z</time>
  <course>204.37</course>
  <speed>0.32202484376209234</speed>
  <fix>3d</fix>
</trkpt>
<trkpt lat="-35.2850263" lon="148.9860645">
  <ele>703.33</ele>
  <time>2026-09-01T20:00:12Z</time>
  <course>311.68</course>
  <speed>0.37</speed>
  <fix>3d</fix>
</trkpt>
<trkpt lat="-35.2850261" lon="148.9860633">
  <ele>702.58</ele>
  <time>2026-09-01T20:00:12Z</time>
  <course>204.56</course>
  <speed>0.2785677655436824</speed>
  <fix>3d</fix>
</trkpt>
<trkpt lat="-35.2850263" lon="148.9860645">
  <ele>703.33</ele>
  <time>2026-09-01T20:00:12Z</time>
  <course>311.68</course>
  <speed>0.37</speed>
  <fix>3d</fix>
</trkpt>
<trkpt lat="-35.285026" lon="148.9860631">
  <ele>702.37</ele>
  <time>2026-09-01T20:00:12Z</time>
  <course>204.67</course>
  <speed>0.24738633753705963</speed>
  <fix>3d</fix>
</trkpt>
<trkpt lat="-35.2850259" lon="148.9860639">
  <ele>702.95</ele>
  <time>2026-09-01T20:00:12Z</time>
  <course>308.52</course>
  <speed>0.28</speed>
  <fix>3d</fix>
</trkpt>
<trkpt lat="-35.285026" lon="148.9860629">
  <ele>702.17</ele>
  <time>2026-09-01T20:00:12Z</time>
  <course>204.65</course>
  <speed>0.2308679276123039</speed>
  <fix>3d</fix>
</trkpt>
<trkpt lat="-35.2850259" lon="148.9860639">
  <ele>702.95</ele>
  <time>2026-09-01T20:00:12Z</time>
  <course>308.52</course>
  <speed>0.28</speed>
  <fix>3d</fix>
</trkpt>
<trkpt lat="-35.2850259" lon="148.9860627">
  <ele>701.96</ele>
  <time>2026-09-01T20:00:12Z</time>
  <course>204.44</course>
  <speed>0.22022715545545238</speed>
  <fix>3d</fix>
</trkpt>
<trkpt lat="-35.2850257" lon="148.9860635">
  <ele>702.56</ele>
  <time>2026-09-01T20:00:12Z</time>
  <course>298.34</course>
  <speed>0.2</speed>
  <fix>3d</fix>
</trkpt>
<trkpt lat="-35.2850259" lon="148.9860625">
  <ele>701.75</ele>
  <time>2026-09-01T20:00:12Z</time>
  <course>204.01</course>
  <speed>0.22561028345356957</speed>
  <fix>3d</fix>
</trkpt>
<trkpt lat="-35.2850257" lon="148.9860635">
  <ele>702.56</ele>
  <time>2026-09-01T20:00:12Z</time>
  <course>298.34</course>
  <speed>0.2</speed>
  <fix>3d</fix>
</trkpt>
<trkpt lat="-35.285026" lon="148.9860623">
  <ele>701.55</ele>
  <time>2026-09-01T20:00:12Z</time>
  <course>203.37</course>
  <speed>0.24166091947189144</speed>
  <fix>3d</fix>
</trkpt>
<trkpt lat="-35.2850256" lon="148.9860631">
  <ele>702.15</ele>
  <time>2026-09-01T20:00:12Z</time>
  <course>273.26</course>
  <speed>0.15</speed>
  <fix>3d</fix>
</trkpt>
<trkpt lat="-35.2850259" lon="148.9860621">
  <ele>701.35</ele>
  <time>2026-09-01T20:00:12Z</time>
  <course>202.57</course>
  <speed>0.2692582403567252</speed>
  <fix>3d</fix>
</trkpt>
<trkpt lat="-35.2850256" lon="148.9860631">
  <ele>702.15</ele>
  <time>2026-09-01T20:00:12Z</time>
  <course>273.26</course>
  <speed>0.15</speed>
  <fix>3d</fix>
</trkpt>
<trkpt lat="-35.2850261" lon="148.9860619">
  <ele>701.16</ele>
  <time>2026-09-01T20:00:12Z</time>
  <course>201.71</course>
  <speed>0.3</speed>
  <fix>3d</fix>
</trkpt>
<trkpt lat="-35.2850256" lon="148.9860628">
  <ele>701.74</ele>
  <time>2026-09-01T20:00:12Z</time>
  <course>241.48</course>
  <speed>0.17</speed>
  <fix>3d</fix>
</trkpt>
<trkpt lat="-35.2850262" lon="148.9860617">
  <ele>700.97</ele>
  <time>2026-09-01T20:00:12Z</time>
  <course>200.89</course>
  <speed>0.3397057550292606</speed>
  <fix>3d</fix>
</trkpt>
<trkpt lat="-35.2850256" lon="148.9860628">
  <ele>701.74</ele>
  <time>2026-09-01T20:00:12Z</time>
  <course>241.48</course>
  <speed>0.17</speed>
  <fix>3d</fix>
</trkpt>
<trkpt lat="-35.2850264" lon="148.9860615">
  <ele>700.8</ele>
  <time>2026-09-01T20:00:12Z</time>
  <course>200.19</course>
  <speed>0.382099463490856</speed>
  <fix>3d</fix>
</trkpt>
<trkpt lat="-35.2850258" lon="148.9860625">
  <ele>701.35</ele>
  <time>2026-09-01T20:00:12Z</time>
  <course>222.73</course>
  <speed>0.24</speed>
  <fix>3d</fix>
</trkpt>
<trkpt lat="-35.2850267" lon="148.9860612">
  <ele>700.65</ele>
  <time>2026-09-01T20:00:12Z</time>
  <course>199.69</course>
  <speed>0.43278170016764805</speed>
  <fix>3d</fix>
</trkpt>
<trkpt lat="-35.2850258" lon="148.9860625">
  <ele>701.35</ele>
  <time>2026-09-01T20:00:12Z</time>
  <course>222.73</course>
  <speed>0.24</speed>
  <fix>3d</fix>
</trkpt>
<trkpt lat="-35.285027" lon="148.986061">
  <ele>700.52</ele>
  <time>2026-09-01T20:00:12Z</time>
  <course>199.38</course>
  <speed>0.4841487374764082</speed>
  <fix>3d</fix>
</trkpt>
<trkpt lat="-35.2850262" lon="148.986062">
  <ele>701.01</ele>
  <time>2026-09-01T20:00:12Z</time>
  <course>213.73</course>
  <speed>0.33</speed>
  <fix>3d</fix>
</trkpt>
<trkpt lat="-35.2850273" lon="148.9860607">
  <ele>700.41</ele>
  <time>2026-09-01T20:00:12Z</time>
  <course>199.27</course>
  <speed>0.5440588203494178</speed>
  <fix>3d</fix>
</trkpt>
<trkpt lat="-35.2850262" lon="148.986062">
  <ele>701.01</ele>
  <time>2026-09-01T20:00:12Z</time>
  <course>213.73</course>
  <speed>0.33</speed>
  <fix>3d</fix>
</trkpt>
<trkpt lat="-35.2850277" lon="148.9860605">
  <ele>700.31</ele>
  <time>2026-09-01T20:00:12Z</time>
  <course>199.29</course>
  <speed>0.604648658313239</speed>
  <fix>3d</fix>
</trkpt>
<trkpt lat="-35.2850268" lon="148.9860616">
  <ele>700.73</ele>
  <time>2026-09-01T20:00:12Z</time>
  <course>209.18</course>
  <speed>0.45</speed>
  <fix>3d</fix>
</trkpt>
<trkpt lat="-35.2850282" lon="148.9860601">
  <ele>700.24</ele>
  <time>2026-09-01T20:00:12Z</time>
  <course>199.41</course>
  <speed>0.6657326790837296</speed>
  <fix>3d</fix>
</trkpt>
<trkpt lat="-35.2850268" lon="148.9860616">
  <ele>700.73</ele>
  <time>2026-09-01T20:00:12Z</time>
  <course>209.18</course>
  <speed>0.45</speed>
  <fix>3d</fix>
</trkpt>
<trkpt lat="-35.2850287" lon="148.9860598">
  <ele>700.19</ele>
  <time>2026-09-01T20:00:12Z</time>
  <course>199.56</course>
  <speed>0.7271863585079137</speed>
  <fix>3d</fix>
</trkpt>
<trkpt lat="-35.2850276" lon="148.986061">
  <ele>700.53</ele>
  <time>2026-09-01T20:00:12Z</time>
  <course>206.74</course>
  <speed>0.57</speed>
  <fix>3d</fix>
</trkpt>
<trkpt lat="-35.2850293" lon="148.9860594">
  <ele>700.16</ele>
  <time>2026-09-01T20:00:12Z</time>
  <course>199.71</course>
  <speed>0.7940403012442127</speed>
  <fix>3d</fix>
</trkpt>
<trkpt lat="-35.2850276" lon="148.986061">
  <ele>700.53</ele>
  <time>2026-09-01T20:00:12Z</time>
  <course>206.74</course>
  <speed>0.57</speed>
  <fix>3d</fix>
</trkpt>
<trkpt lat="-35.2850299" lon="148.9860591">
  <ele>700.15</ele>
  <time>2026-09-01T20:00:12Z</time>
  <course>199.83</course>
  <speed>0.850881895447306</speed>
  <fix>3d</fix>
</trkpt>
<trkpt lat="-35.2850287" lon="148.9860605">
  <ele>700.41</ele>
  <time>2026-09-01T20:00:12Z</time>
  <course>205.29</course>
  <speed>0.71</speed>
  <fix>3d</fix>
</trkpt>
<trkpt lat="-35.2850306" lon="148.9860587">
  <ele>700.16</ele>
  <time>2026-09-01T20:00:12Z</time>
  <course>199.9</course>
  <speed>0.904267659490264</speed>
  <fix>3d</fix>
</trkpt>
<trkpt lat="-35.2850287" lon="148.9860605">
  <ele>700.41</ele>
  <time>2026-09-01T20:00:12Z</time>
  <course>205.29</course>
  <speed>0.71</speed>
  <fix>3d</fix>
</trkpt>
<trkpt lat="-35.2850313" lon="148.9860583">
  <ele>700.17</ele>
  <time>2026-09-01T20:00:12Z</time>
  <course>199.93</course>
  <speed>0.9577055915050303</speed>
  <fix>3d</fix>
</trkpt>
<trkpt lat="-35.28503" lon="148.9860598">
  <ele>700.36</ele>
  <time>2026-09-01T20:00:12Z</time>
  <course>204.34</course>
  <speed>0.84</speed>
  <fix>3d</fix>
</trkpt>
<trkpt lat="-35.2850321" lon="148.9860579">
  <ele>700.19</ele>
  <time>2026-09-01T20:00:12Z</time>
  <course>199.92</course>
  <speed>0.9976472322419383</speed>
  <fix>3d</fix>
</trkpt>
<trkpt lat="-35.28503" lon="148.9860598">
  <ele>700.36</ele>
  <time>2026-09-01T20:00:12Z</time>
  <course>204.34</course>
  <speed>0.84</speed>
  <fix>3d</fix>
</trkpt>
<trkpt lat="-35.2850329" lon="148.9860574">
  <ele>700.22</ele>
  <time>2026-09-01T20:00:12Z</time>
  <course>199.88</course>
  <speed>1.0376897416858277</speed>
  <fix>3d</fix>
</trkpt>
<trkpt lat="-35.2850314" lon="148.986059">
  <ele>700.38</ele>
  <time>2026-09-01T20:00:12Z</time>
  <course>203.69</course>
  <speed>0.95</speed>
  <fix>3d</fix>
</trkpt>
<trkpt lat="-35.2850337" lon="148.986057">
  <ele>700.24</ele>
  <time>2026-09-01T20:00:12Z</time>
  <course>199.84</course>
  <speed>1.0778218776773831</speed>
  <fix>3d</fix>
</trkpt>
<trkpt lat="-35.2850314" lon="148.986059">
  <ele>700.38</ele>
  <time>2026-09-01T20:00:12Z</time>
  <course>203.69</course>
  <speed>0.95</speed>
  <fix>3d</fix>
</trkpt>
<trkpt lat="-35.2850346" lon="148.9860565">
  <ele>700.27</ele>
  <time>2026-09-01T20:00:12Z</time>
  <course>199.8</course>
  <speed>1.1090987332063813</speed>
  <fix>3d</fix>
</trkpt>
<trkpt lat="-35.285033" lon="148.986058">
  <ele>700.42</ele>
  <time>2026-09-01T20:00:12Z</time>
  <course>203.23</course>
  <speed>1.04</speed>
  <fix>3d</fix>
</trkpt>
<trkpt lat="-35.2850355" lon="148.986056">
  <ele>700.3</ele>
  <time>2026-09-01T20:00:12Z</time>
  <course>199.76</course>
  <speed>1.1403946685248927</speed>
  <fix>3d</fix>
</trkpt>
<trkpt lat="-35.285033" lon="148.986058">
  <ele>700.42</ele>
  <time>2026-09-01T20:00:12Z</time>
  <course>203.23</course>
  <speed>1.04</speed>
  <fix>3d</fix>
</trkpt>
<trkpt lat="-35.2850365" lon="148.9860556">
  <ele>700.32</ele>
  <time>2026-09-01T20:00:12Z</time>
  <course>199.74</course>
  <speed>1.1717081547894082</speed>
  <fix>3d</fix>
</trkpt>
<trkpt lat="-35.2850349" lon="148.9860571">
  <ele>700.47</ele>
  <time>2026-09-01T20:00:12Z</time>
  <course>202.93</course>
  <speed>1.12</speed>
  <fix>3d</fix>
</trkpt>
<trkpt lat="-35.2850374" lon="148.9860551">
  <ele>700.34</ele>
  <time>2026-09-01T20:00:12Z</time>
  <course>199.73</course>
  <speed>1.189663818059539</speed>
  <fix>3d</fix>
</trkpt>
<trkpt lat="-35.2850349" lon="148.9860571">
  <ele>700.47</ele>
  <time>2026-09-01T20:00:12Z</time>
  <course>202.93</course>
  <speed>1.12</speed>
  <fix>3d</fix>
</trkpt>
<trkpt lat="-35.2850384" lon="148.9860546">
  <ele>700.35</ele>
  <time>2026-09-01T20:00:12Z</time>
  <course>199.73</course>
  <speed>1.2030378215168467</speed>
  <fix>3d</fix>
</trkpt>
<trkpt lat="-35.2850368" lon="148.9860562">
  <ele>700.52</ele>
  <time>2026-09-01T20:00:12Z</time>
  <course>202.77</course>
  <speed>1.18</speed>
  <fix>3d</fix>
</trkpt>
<trkpt lat="-35.2850394" lon="148.9860541">
  <ele>700.36</ele>
  <time>2026-09-01T20:00:12Z</time>
  <course>199.74</course>
  <speed>1.2210241602851273</speed>
  <fix>3d</fix>
</trkpt>
<trkpt lat="-35.2850368" lon="148.9860562">
  <ele>700.52</ele>
  <time>2026-09-01T20:00:12Z</time>
  <course>202.77</course>
  <speed>1.18</speed>
  <fix>3d</fix>
</trkpt>
<trkpt lat="-35.2850405" lon="148.9860536">
  <ele>700.36</ele>
  <time>2026-09-01T20:00:12Z</time>
  <course>199.75</course>
  <speed>1.2300406497347964</speed>
  <fix>3d</fix>
</trkpt>
<trkpt lat="-35.2850388" lon="148.9860551">
  <ele>700.54</ele>
  <time>2026-09-01T20:00:12Z</time>
  <course>202.71</course>
  <speed>1.23</speed>
  <fix>3d</fix>
</trkpt>
<trkpt lat="-35.2850415" lon="148.986053">
  <ele>700.36</ele>
  <time>2026-09-01T20:00:12Z</time>
  <course>199.77</course>
  <speed>1.2300406497347964</speed>
  <fix>3d</fix>
</trkpt>
<trkpt lat="-35.2850388" lon="148.9860551">
  <ele>700.54</ele>
  <time>2026-09-01T20:00:12Z</time>
  <course>202.71</course>
  <speed>1.23</speed>
  <fix>3d</fix>
</trkpt>
<trkpt lat="-35.2850425" lon="148.9860525">
  <ele>700.36</ele>
  <time>2026-09-01T20:00:12Z</time>
  <course>199.78</course>
  <speed>1.2300406497347964</speed>
  <fix>3d</fix>
</trkpt>
<trkpt lat="-35.2850409" lon="148.986054">
  <ele>700.54</ele>
  <time>2026-09-01T20:00:12Z</time>
  <course>202.73</course>
  <speed>1.25</speed>
  <fix>3d</fix>
</trkpt>
<trkpt lat="-35.2850436" lon="148.986052">
  <ele>700.35</ele>
  <time>2026-09-01T20:00:12Z</time>
  <course>199.79</course>
  <speed>1.2300406497347964</speed>
  <fix>3d</fix>
</trkpt>
<trkpt lat="-35.2850409" lon="148.986054">
  <ele>700.54</ele>
  <time>2026-09-01T20:00:12Z</time>
  <course>202.73</course>
  <speed>1.25</speed>
  <fix>3d</fix>
</trkpt>
<trkpt lat="-35.2850446" lon="148.9860515">
  <ele>700.34</ele>
  <time>2026-09-01T20:00:12Z</time>
  <course>199.8</course>
  <speed>1.2210241602851273</speed>
  <fix>3d</fix>
</trkpt>
<trkpt lat="-35.2850429" lon="148.986053">
  <ele>700.53</ele>
  <time>2026-09-01T20:00:12Z</time>
  <course>202.84</course>
  <speed>1.26</speed>
  <fix>3d</fix>
</trkpt>
<trkpt lat="-35.2850456" lon="148.9860509">
  <ele>700.32</ele>
  <time>2026-09-01T20:00:12Z</time>
  <course>199.81</course>
  <speed>1.212023102090055</speed>
  <fix>3d</fix>
</trkpt>
<trkpt lat="-35.2850429" lon="148.986053">
  <ele>700.53</ele>
  <time>2026-09-01T20:00:12Z</time>
  <course>202.84</course>
  <speed>1.26</speed>
  <fix>3d</fix>
</trkpt>
<trkpt lat="-35.2850466" lon="148.9860504">
  <ele>700.31</ele>
  <time>2026-09-01T20:00:12Z</time>
  <course>199.81</course>
  <speed>1.1986659251017358</speed>
  <fix>3d</fix>
</trkpt>
<trkpt lat="-35.285045" lon="148.9860519">
  <ele>700.5</ele>
  <time>2026-09-01T20:00:12Z</time>
  <course>203.05</course>
  <speed>1.26</speed>
  <fix>3d</fix>
</trkpt>
<trkpt lat="-35.2850476" lon="148.9860499">
  <ele>700.29</ele>
  <time>2026-09-01T20:00:12Z</time>
  <course>199.81</course>
  <speed>1.1806777714516352</speed>
  <fix>3d</fix>
</trkpt>
<trkpt lat="-35.285045" lon="148.9860519">
  <ele>700.5</ele>
  <time>2026-09-01T20:00:12Z</time>
  <course>203.05</course>
  <speed>1.26</speed>
  <fix>3d</fix>
</trkpt>
<trkpt lat="-35.2850486" lon="148.9860494">
  <ele>700.28</ele>
  <time>2026-09-01T20:00:12Z</time>
  <course>199.8</course>
  <speed>1.1493476410555685</speed>
  <fix>3d</fix>
</trkpt>
<trkpt lat="-35.2850471" lon="148.9860508">
  <ele>700.47</ele>
  <time>2026-09-01T20:00:12Z</time>
  <course>203.34</course>
  <speed>1.23</speed>
  <fix>3d</fix>
</trkpt>
<trkpt lat="-35.2850495" lon="148.9860489">
  <ele>700.26</ele>
  <time>2026-09-01T20:00:13Z</time>
  <course>199.8</course>
  <speed>1.118033988749895</speed>
  <fix>3d</fix>
</trkpt>
<trkpt lat="-35.2850471" lon="148.9860508">
  <ele>700.47</ele>
  <time>2026-09-01T20:00:13Z</time>
  <course>203.34</course>
  <speed>1.23</speed>
  <fix>3d</fix>
</trkpt>
<trkpt lat="-35.2850505" lon="148.9860484">
  <ele>700.25</ele>
  <time>2026-09-01T20:00:13Z</time>
  <course>199.79</course>
  <speed>1.0867382389517726</speed>
  <fix>3d</fix>
</trkpt>
<trkpt lat="-35.2850491" lon="148.9860497">
  <ele>700.43</ele>
  <time>2026-09-01T20:00:13Z</time>
  <course>203.72</course>
  <speed>1.19</speed>
  <fix>3d</fix>
</trkpt>
<trkpt lat="-35.2850514" lon="148.9860479">
  <ele>700.24</ele>
  <time>2026-09-01T20:00:13Z</time>
  <course>199.79</course>
  <speed>1.055461984156701</speed>
  <fix>3d</fix>
</trkpt>
<trkpt lat="-35.2850491" lon="148.9860497">
  <ele>700.43</ele>
  <time>2026-09-01T20:00:13Z</time>
  <course>203.72</course>
  <speed>1.19</speed>
  <fix>3d</fix>
</trkpt>
<trkpt lat="-35.2850523" lon="148.9860474">
  <ele>700.23</ele>
  <time>2026-09-01T20:00:13Z</time>
  <course>199.79</course>
  <speed>1.015332457867865</speed>
  <fix>3d</fix>
</trkpt>
<trkpt lat="-35.285051" lon="148.9860487">
  <ele>700.4</ele>
  <time>2026-09-01T20:00:13Z</time>
  <course>204.22</course>
  <speed>1.13</speed>
  <fix>3d</fix>
</trkpt>
<trkpt lat="-35.2850531" lon="148.9860469">
  <ele>700.22</ele>
  <time>2026-09-01T20:00:13Z</time>
  <course>199.79</course>
  <speed>0.9706183596038146</speed>
  <fix>3d</fix>
</trkpt>
<trkpt lat="-35.285051" lon="148.9860487">
  <ele>700.4</ele>
  <time>2026-09-01T20:00:13Z</time>
  <course>204.22</course>
  <speed>1.13</speed>
  <fix>3d</fix>
</trkpt>
<trkpt lat="-35.2850539" lon="148.9860465">
  <ele>700.22</ele>
  <time>2026-09-01T20:00:13Z</time>
  <course>199.79</course>
  <speed>0.9217917335276988</speed>
  <fix>3d</fix>
</trkpt>
<trkpt lat="-35.2850528" lon="148.9860477">
  <ele>700.38</ele>
  <time>2026-09-01T20:00:13Z</time>
  <course>204.83</course>
  <speed>1.05</speed>
  <fix>3d</fix>
</trkpt>
<trkpt lat="-35.2850547" lon="148.986046">
  <ele>700.22</ele>
  <time>2026-09-01T20:00:13Z</time>
  <course>199.79</course>
  <speed>0.8683317338436964</speed>
  <fix>3d</fix>
</trkpt>
<trkpt lat="-35.2850528" lon="148.9860477">
  <ele>700.38</ele>
  <time>2026-09-01T20:00:13Z</time>
  <course>204.83</course>
  <speed>1.05</speed>
  <fix>3d</fix>
</trkpt>
<trkpt lat="-35.2850554" lon="148.9860456">
  <ele>700.22</ele>
  <time>2026-09-01T20:00:13Z</time>
  <course>199.79</course>
  <speed>0.8149233092751734</speed>
  <fix>3d</fix>
</trkpt>
<trkpt lat="-35.2850545" lon="148.9860467">
  <ele>700.36</ele>
  <time>2026-09-01T20:00:13Z</time>
  <course>205.61</course>
  <speed>0.96</speed>
  <fix>3d</fix>
</trkpt>
<trkpt lat="-35.285056" lon="148.9860452">
  <ele>700.21</ele>
  <time>2026-09-01T20:00:13Z</time>
  <course>199.8</course>
  <speed>0.7666159403508382</speed>
  <fix>3d</fix>
</trkpt>
<trkpt lat="-35.2850545" lon="148.9860467">
  <ele>700.36</ele>
  <time>2026-09-01T20:00:13Z</time>
  <course>205.61</course>
  <speed>0.96</speed>
  <fix>3d</fix>
</trkpt>
<trkpt lat="-35.2850567" lon="148.9860448">
  <ele>700.22</ele>
  <time>2026-09-01T20:00:13Z</time>
  <course>199.79</course>
  <speed>0.7134423592694787</speed>
  <fix>3d</fix>
</trkpt>
<trkpt lat="-35.285056" lon="148.9860459">
  <ele>700.36</ele>
  <time>2026-09-01T20:00:13Z</time>
  <course>206.62</course>
  <speed>0.86</speed>
  <fix>3d</fix>
</trkpt>
<trkpt lat="-35.2850572" lon="148.9860445">
  <ele>700.22</ele>
  <time>2026-09-01T20:00:13Z</time>
  <course>199.79</course>
  <speed>0.6519202405202649</speed>
  <fix>3d</fix>
</trkpt>
<trkpt lat="-35.285056" lon="148.9860459">
  <ele>700.36</ele>
  <time>2026-09-01T20:00:13Z</time>
  <course>206.62</course>
  <speed>0.86</speed>
  <fix>3d</fix>
</trkpt>
<trkpt lat="-35.2850578" lon="148.9860441">
  <ele>700.22</ele>
  <time>2026-09-01T20:00:13Z</time>
  <course>199.79</course>
  <speed>0.5990826320300063</speed>
  <fix>3d</fix>
</trkpt>
<trkpt lat="-35.2850573" lon="148.986045">
  <ele>700.36</ele>
  <time>2026-09-01T20:00:13Z</time>
  <course>207.97</course>
  <speed>0.75</speed>
  <fix>3d</fix>
</trkpt>
<trkpt lat="-35.2850583" lon="148.9860438">
  <ele>700.22</ele>
  <time>2026-09-01T20:00:13Z</time>
  <course>199.78</course>
  <speed>0.5382378656319156</speed>
  <fix>3d</fix>
</trkpt>
<trkpt lat="-35.2850573" lon="148.986045">
  <ele>700.36</ele>
  <time>2026-09-01T20:00:13Z</time>
  <course>207.97</course>
  <speed>0.75</speed>
  <fix>3d</fix>
</trkpt>
<trkpt lat="-35.2850587" lon="148.9860435">
  <ele>700.23</ele>
  <time>2026-09-01T20:00:13Z</time>
  <course>199.78</course>
  <speed>0.4780167361086848</speed>
  <fix>3d</fix>
</trkpt>
<trkpt lat="-35.2850583" lon="148.9860443">
  <ele>700.36</ele>
  <time>2026-09-01T20:00:13Z</time>
  <course>209.84</course>
  <speed>0.63</speed>
  <fix>3d</fix>
</trkpt>
<trkpt lat="-35.2850591" lon="148.9860432">
  <ele>700.23</ele>
  <time>2026-09-01T20:00:13Z</time>
  <course>199.78</course>
  <speed>0.42638011210655685</speed>
  <fix>3d</fix>
</trkpt>
<trkpt lat="-35.2850583" lon="148.9860443">
  <ele>700.36</ele>
  <time>2026-09-01T20:00:13Z</time>
  <course>209.84</course>
  <speed>0.63</speed>
  <fix>3d</fix>
</trkpt>
<trkpt lat="-35.2850594" lon="148.9860429">
  <ele>700.22</ele>
  <time>2026-09-01T20:00:13Z</time>
  <course>199.77</course>
  <speed>0.36796738985948196</speed>
  <fix>3d</fix>
</trkpt>
<trkpt lat="-35.2850593" lon="148.9860436">
  <ele>700.36</ele>
  <time>2026-09-01T20:00:13Z</time>
  <course>212.52</course>
  <speed>0.52</speed>
  <fix>3d</fix>
</trkpt>
<trkpt lat="-35.2850597" lon="148.9860427">
  <ele>700.23</ele>
  <time>2026-09-01T20:00:13Z</time>
  <course>199.76</course>
  <speed>0.31144823004794875</speed>
  <fix>3d</fix>
</trkpt>
<trkpt lat="-35.2850593" lon="148.9860436">
  <ele>700.36</ele>
  <time>2026-09-01T20:00:13Z</time>
  <course>212.52</course>
  <speed>0.52</speed>
  <fix>3d</fix>
</trkpt>
<trkpt lat="-35.2850599" lon="148.9860425">
  <ele>700.23</ele>
  <time>2026-09-01T20:00:13Z</time>
  <course>199.75</course>
  <speed>0.2640075756488817</speed>
  <fix>3d</fix>
</trkpt>
<trkpt lat="-35.2850599" lon="148.9860431">
  <ele>700.36</ele>
  <time>2026-09-01T20:00:13Z</time>
  <course>216.56</course>
  <speed>0.4</speed>
  <fix>3d</fix>
</trkpt>
<trkpt lat="-35.28506" lon="148.9860422">
  <ele>700.23</ele>
  <time>2026-09-01T20:00:13Z</time>
  <course>199.74</course>
  <speed>0.21470910553583888</speed>
  <fix>3d</fix>
</trkpt>
<trkpt lat="-35.2850599" lon="148.9860431">
  <ele>700.36</ele>
  <time>2026-09-01T20:00:13Z</time>
  <course>216.56</course>
  <speed>0.4</speed>
  <fix>3d</fix>
</trkpt>
<trkpt lat="-35.2850602" lon="148.9860421">
  <ele>700.23</ele>
  <time>2026-09-01T20:00:13Z</time>
  <course>199.74</course>
  <speed>0.1772004514666935</speed>
  <fix>3d</fix>
</trkpt>
<trkpt lat="-35.2850604" lon="148.9860426">
  <ele>700.36</ele>
  <time>2026-09-01T20:00:13Z</time>
  <course>223.49</course>
  <speed>0.29</speed>
  <fix>3d</fix>
</trkpt>
<trkpt lat="-35.2850602" lon="148.9860419">
  <ele>700.23</ele>
  <time>2026-09-01T20:00:13Z</time>
  <course>199.74</course>
  <speed>0.14</speed>
  <fix>3d</fix>
</trkpt>
<trkpt lat="-35.2850604" lon="148.9860426">
  <ele>700.36</ele>
  <time>2026-09-01T20:00:13Z</time>
  <course>223.49</course>
  <speed>0.29</speed>
  <fix>3d</fix>
</trkpt>
<trkpt lat="-35.2850603" lon="148.9860418">
  <ele>700.23</ele>
  <time>2026-09-01T20:00:13Z</time>
  <course>199.74</course>
  <speed>0.13</speed>
  <fix>3d</fix>
</trkpt>
<trkpt lat="-35.2850607" lon="148.9860421">
  <ele>700.36</ele>
  <time>2026-09-01T20:00:13Z</time>
  <course>237.94</course>
  <speed>0.18</speed>
  <fix>3d</fix>
</trkpt>
<trkpt lat="-35.2850602" lon="148.9860417">
  <ele>700.23</ele>
  <time>2026-09-01T20:00:13Z</time>
  <course>199.75</course>
  <speed>0.1414213562373095</speed>
  <fix>3d</fix>
</trkpt>
<trkpt lat="-35.2850607" lon="148.9860421">
  <ele>700.36</ele>
  <time>2026-09-01T20:00:13Z</time>
  <course>237.94</course>
  <speed>0.18</speed>
  <fix>3d</fix>
</trkpt>
<trkpt lat="-35.2850602" lon="148.9860416">
  <ele>700.23</ele>
  <time>2026-09-01T20:00:13Z</time>
  <course>199.75</course>
  <speed>0.16124515496597097</speed>
  <fix>3d</fix>
</trkpt>
<trkpt lat="-35.2850607" lon="148.9860418">
  <ele>700.35</ele>
  <time>2026-09-01T20:00:13Z</time>
  <course>273.13</course>
  <speed>0.11</speed>
  <fix>3d</fix>
</trkpt>
<trkpt lat="-35.2850601" lon="148.9860415">
  <ele>700.23</ele>
  <time>2026-09-01T20:00:13Z</time>
  <course>199.75</course>
  <speed>0.20248456731316586</speed>
  <fix>3d</fix>
</trkpt>
<trkpt lat="-35.2850607" lon="148.9860418">
  <ele>700.35</ele>
  <time>2026-09-01T20:00:13Z</time>
  <course>273.13</course>
  <speed>0.11</speed>
  <fix>3d</fix>
</trkpt>
<trkpt lat="-35.2850599" lon="148.9860414">
  <ele>700.23</ele>
  <time>2026-09-01T20:00:13Z</time>
  <course>199.75</course>
  <speed>0.2353720459187964</speed>
  <fix>3d</fix>
</trkpt>
<trkpt lat="-35.2850607" lon="148.9860416">
  <ele>700.35</ele>
  <time>2026-09-01T20:00:13Z</time>
  <course>322.46</course>
  <speed>0.13</speed>
  <fix>3d</fix>
</trkpt>
<trkpt lat="-35.2850598" lon="148.9860414">
  <ele>700.23</ele>
  <time>2026-09-01T20:00:13Z</time>
  <course>199.76</course>
  <speed>0.261725046566048</speed>
  <fix>3d</fix>
</trkpt>
<trkpt lat="-35.2850607" lon="148.9860416">
  <ele>700.35</ele>
  <time>2026-09-01T20:00:13Z</time>
  <course>322.46</course>
  <speed>0.13</speed>
  <fix>3d</fix>
</trkpt>
<trkpt lat="-35.2850596" lon="148.9860414">
  <ele>700.22</ele>
  <time>2026-09-01T20:00:13Z</time>
  <course>199.78</course>
  <speed>0.2906888370749727</speed>
  <fix>3d</fix>
</trkpt>
<trkpt lat="-35.2850604" lon="148.9860415">
  <ele>700.34</ele>
  <time>2026-09-01T20:00:13Z</time>
  <course>346.7</course>
  <speed>0.19</speed>
  <fix>3d</fix>
</trkpt>
<trkpt lat="-35.2850594" lon="148.9860413">
  <ele>700.22</ele>
  <time>2026-09-01T20:00:13Z</time>
  <course>199.81</course>
  <speed>0.32</speed>
  <fix>3d</fix>
</trkpt>
<trkpt lat="-35.2850604" lon="148.9860415">
  <ele>700.34</ele>
  <time>2026-09-01T20:00:13Z</time>
  <course>346.7</course>
  <speed>0.19</speed>
  <fix>3d</fix>
</trkpt>
<trkpt lat="-35.2850591" lon="148.9860413">
  <ele>700.22</ele>
  <time>2026-09-01T20:00:13Z</time>
  <course>199.85</course>
  <speed>0.34</speed>
  <fix>3d</fix>
</trkpt>
<trkpt lat="-35.28506" lon="148.9860415">
  <ele>700.34</ele>
  <time>2026-09-01T20:00:13Z</time>
  <course>357.1</course>
  <speed>0.26</speed>
  <fix>3d</fix>
</trkpt>
<trkpt lat="-35.2850589" lon="148.9860413">
  <ele>700.22</ele>
  <time>2026-09-01T20:00:13Z</time>
  <course>199.88</course>
  <speed>0.36013886210738216</speed>
  <fix>3d</fix>
</trkpt>
<trkpt lat="-35.28506" lon="148.9860415">
  <ele>700.34</ele>
  <time>2026-09-01T20:00:13Z</time>
  <course>357.1</course>
  <speed>0.26</speed>
  <fix>3d</fix>
</trkpt>
<trkpt lat="-35.2850586" lon="148.9860413">
  <ele>700.22</ele>
  <time>2026-09-01T20:00:13Z</time>
  <course>199.91</course>
  <speed>0.38052595180880894</speed>
  <fix>3d</fix>
</trkpt>
<trkpt lat="-35.2850595" lon="148.9860415">
  <ele>700.33</ele>
  <time>2026-09-01T20:00:13Z</time>
  <course>2.75</course>
  <speed>0.31</speed>
  <fix>3d</fix>
</trkpt>
<trkpt lat="-35.2850583" lon="148.9860414">
  <ele>700.22</ele>
  <time>2026-09-01T20:00:13Z</time>
  <course>199.93</course>
  <speed>0.3920459156782532</speed>
  <fix>3d</fix>
</trkpt>
<trkpt lat="-35.2850595" lon="148.9860415">
  <ele>700.33</ele>
  <time>2026-09-01T20:00:13Z</time>
  <course>2.75</course>
  <speed>0.31</speed>
  <fix>3d</fix>
</trkpt>
<trkpt lat="-35.2850579" lon="148.9860415">
  <ele>700.22</ele>
  <time>2026-09-01T20:00:13Z</time>
  <course>199.94</course>
  <speed>0.4019950248448356</speed>
  <fix>3d</fix>
</trkpt>
<trkpt lat="-35.285059" lon="148.9860415">
  <ele>700.33</ele>
  <time>2026-09-01T20:00:13Z</time>
  <course>6.4</course>
  <speed>0.35</speed>
  <fix>3d</fix>
</trkpt>
<trkpt lat="-35.2850576" lon="148.9860415">
  <ele>700.22</ele>
  <time>2026-09-01T20:00:13Z</time>
  <course>199.95</course>
  <speed>0.41303752856126763</speed>
  <fix>3d</fix>
</trkpt>
<trkpt lat="-35.285059" lon="148.9860415">
  <ele>700.33</ele>
  <time>2026-09-01T20:00:13Z</time>
  <course>6.4</course>
  <speed>0.35</speed>
  <fix>3d</fix>
</trkpt>
<trkpt lat="-35.2850573" lon="148.9860416">
  <ele>700.22</ele>
  <time>2026-09-01T20:00:13Z</time>
  <course>199.96</course>
  <speed>0.4143669871020132</speed>
  <fix>3d</fix>
</trkpt>
<trkpt lat="-35.2850583" lon="148.9860415">
  <ele>700.32</ele>
  <time>2026-09-01T20:00:13Z</time>
  <course>9.08</course>
  <speed>0.37</speed>
  <fix>3d</fix>
</trkpt>
<trkpt lat="-35.285057" lon="148.9860417">
  <ele>700.22</ele>
  <time>2026-09-01T20:00:13Z</time>
  <course>199.97</course>
  <speed>0.4159326868617084</speed>
  <fix>3d</fix>
</trkpt>
<trkpt lat="-35.2850583" lon="148.9860415">
  <ele>700.32</ele>
  <time>2026-09-01T20:00:13Z</time>
  <course>9.08</course>
  <speed>0.37</speed>
  <fix>3d</fix>
</trkpt>
<trkpt lat="-35.2850566" lon="148.9860418">
  <ele>700.22</ele>
  <time>2026-09-01T20:00:13Z</time>
  <course>199.98</course>
  <speed>0.4159326868617084</speed>
  <fix>3d</fix>
</trkpt>
<trkpt lat="-35.2850576" lon="148.9860416">
  <ele>700.32</ele>
  <time>2026-09-01T20:00:13Z</time>
  <course>11.19</course>
  <speed>0.39</speed>
  <fix>3d</fix>
</trkpt>
<trkpt lat="-35.2850563" lon="148.9860419">
  <ele>700.22</ele>
  <time>2026-09-01T20:00:13Z</time>
  <course>199.99</course>
  <speed>0.41773197148410846</speed>
  <fix>3d</fix>
</trkpt>
<trkpt lat="-35.2850576" lon="148.9860416">
  <ele>700.32</ele>
  <time>2026-09-01T20:00:13Z</time>
  <course>11.19</course>
  <speed>0.39</speed>
  <fix>3d</fix>
</trkpt>
<trkpt lat="-35.285056" lon="148.9860419">
  <ele>700.22</ele>
  <time>2026-09-01T20:00:13Z</time>
  <course>200.0</course>
  <speed>0.4079215610874228</speed>
  <fix>3d</fix>
</trkpt>
<trkpt lat="-35.2850569" lon="148.9860418">
  <ele>700.32</ele>
  <time>2026-09-01T20:00:13Z</time>
  <course>12.96</course>
  <speed>0.39</speed>
  <fix>3d</fix>
</trkpt>
<trkpt lat="-35.2850556" lon="148.986042">
  <ele>700.22</ele>
  <time>2026-09-01T20:00:13Z</time>
  <course>200.0</course>
  <speed>0.4079215610874228</speed>
  <fix>3d</fix>
</trkpt>
<trkpt lat="-35.2850569" lon="148.9860418">
  <ele>700.32</ele>
  <time>2026-09-01T20:00:13Z</time>
  <course>12.96</course>
  <speed>0.39</speed>
  <fix>3d</fix>
</trkpt>
<trkpt lat="-35.2850553" lon="148.9860422">
  <ele>700.22</ele>
  <time>2026-09-01T20:00:13Z</time>
  <course>200.0</course>
  <speed>0.40024992192379005</speed>
  <fix>3d</fix>
</trkpt>
<trkpt lat="-35.2850562" lon="148.9860421">
  <ele>700.31</ele>
  <time>2026-09-01T20:00:13Z</time>
  <course>14.57</course>
  <speed>0.39</speed>
  <fix>3d</fix>
</trkpt>
<trkpt lat="-35.285055" lon="148.9860423">
  <ele>700.22</ele>
  <time>2026-09-01T20:00:13Z</time>
  <course>199.99</course>
  <speed>0.3905124837953327</speed>
  <fix>3d</fix>
</trkpt>
<trkpt lat="-35.2850562" lon="148.9860421">
  <ele>700.31</ele>
  <time>2026-09-01T20:00:13Z</time>
  <course>14.57</course>
  <speed>0.39</speed>
  <fix>3d</fix>
</trkpt>
<trkpt lat="-35.2850547" lon="148.9860424">
  <ele>700.22</ele>
  <time>2026-09-01T20:00:13Z</time>
  <course>199.97</course>
  <speed>0.3905124837953327</speed>
  <fix>3d</fix>
</trkpt>
<trkpt lat="-35.2850555" lon="148.9860423">
  <ele>700.31</ele>
  <time>2026-09-01T20:00:13Z</time>
  <course>16.1</course>
  <speed>0.38</speed>
  <fix>3d</fix>
</trkpt>
<trkpt lat="-35.2850544" lon="148.9860425">
  <ele>700.22</ele>
  <time>2026-09-01T20:00:13Z</time>
  <course>199.95</course>
  <speed>0.38078865529319544</speed>
  <fix>3d</fix>
</trkpt>
<trkpt lat="-35.2850555" lon="148.9860423">
  <ele>700.31</ele>
  <time>2026-09-01T20:00:13Z</time>
  <course>16.1</course>
  <speed>0.38</speed>
  <fix>3d</fix>
</trkpt>
<trkpt lat="-35.2850541" lon="148.9860426">
  <ele>700.22</ele>
  <time>2026-09-01T20:00:13Z</time>
  <course>199.93</course>
  <speed>0.37107950630558945</speed>
  <fix>3d</fix>
</trkpt>
<trkpt lat="-35.2850549" lon="148.9860426">
  <ele>700.31</ele>
  <time>2026-09-01T20:00:13Z</time>
  <course>17.52</course>
  <speed>0.37</speed>
  <fix>3d</fix>
</trkpt>
<trkpt lat="-35.2850538" lon="148.9860427">
  <ele>700.22</ele>
  <time>2026-09-01T20:00:13Z</time>
  <course>199.92</course>
  <speed>0.3640054944640259</speed>
  <fix>3d</fix>
</trkpt>
<trkpt lat="-35.2850549" lon="148.9860426">
  <ele>700.31</ele>
  <time>2026-09-01T20:00:13Z</time>
  <course>17.52</course>
  <speed>0.37</speed>
  <fix>3d</fix>
</trkpt>
<trkpt lat="-35.2850535" lon="148.9860429">
  <ele>700.22</ele>
  <time>2026-09-01T20:00:13Z</time>
  <course>199.87</course>
  <speed>0.35171010790137947</speed>
  <fix>3d</fix>
</trkpt>
<trkpt lat="-35.2850543" lon="148.9860428">
  <ele>700.3</ele>
  <time>2026-09-01T20:00:13Z</time>
  <course>18.85</course>
  <speed>0.35</speed>
  <fix>3d</fix>
</trkpt>
<trkpt lat="-35.2850532" lon="148.986043">
  <ele>700.22</ele>
  <time>2026-09-01T20:00:13Z</time>
  <course>199.78</course>
  <speed>0.3420526275297414</speed>
  <fix>3d</fix>
</trkpt>
<trkpt lat="-35.2850543" lon="148.9860428">
  <ele>700.3</ele>
  <time>2026-09-01T20:00:13Z</time>
  <course>18.85</course>
  <speed>0.35</speed>
  <fix>3d</fix>
</trkpt>
<trkpt lat="-35.2850529" lon="148.9860431">
  <ele>700.21</ele>
  <time>2026-09-01T20:00:13Z</time>
  <course>199.67</course>
  <speed>0.33241540277189324</speed>
  <fix>3d</fix>
</trkpt>
<trkpt lat="-35.2850536" lon="148.9860431">
  <ele>700.3</ele>
  <time>2026-09-01T20:00:13Z</time>
  <course>19.54</course>
  <speed>0.33</speed>
  <fix>3d</fix>
</trkpt>
<trkpt lat="-35.2850527" lon="148.9860432">
  <ele>700.21</ele>
  <time>2026-09-01T20:00:13Z</time>
  <course>199.56</course>
  <speed>0.32015621187164245</speed>
  <fix>3d</fix>
</trkpt>
<trkpt lat="-35.2850536" lon="148.9860431">
  <ele>700.3</ele>
  <time>2026-09-01T20:00:13Z</time>
  <course>19.54</course>
  <speed>0.33</speed>
  <fix>3d</fix>
</trkpt>
<trkpt lat="-35.2850524" lon="148.9860433">
  <ele>700.21</ele>
  <time>2026-09-01T20:00:13Z</time>
  <course>199.47</course>
  <speed>0.31048349392520047</speed>
  <fix>3d</fix>
</trkpt>
<trkpt lat="-35.2850531" lon="148.9860433">
  <ele>700.3</ele>
  <time>2026-09-01T20:00:13Z</time>
  <course>19.68</course>
  <speed>0.32</speed>
  <fix>3d</fix>
</trkpt>
<trkpt lat="-35.2850522" lon="148.9860434">
  <ele>700.2</ele>
  <time>2026-09-01T20:00:13Z</time>
  <course>199.41</course>
  <speed>0.30083217912982646</speed>
  <fix>3d</fix>
</trkpt>
<trkpt lat="-35.2850531" lon="148.9860433">
  <ele>700.3</ele>
  <time>2026-09-01T20:00:13Z</time>
  <course>19.68</course>
  <speed>0.32</speed>
  <fix>3d</fix>
</trkpt>
<trkpt lat="-35.2850519" lon="148.9860435">
  <ele>700.2</ele>
  <time>2026-09-01T20:00:13Z</time>
  <course>199.39</course>
  <speed>0.28861739379323625</speed>
  <fix>3d</fix>
</trkpt>
<trkpt lat="-35.2850526" lon="148.9860435">
  <ele>700.29</ele>
  <time>2026-09-01T20:00:13Z</time>
  <course>19.94</course>
  <speed>0.29</speed>
  <fix>3d</fix>
</trkpt>
<trkpt lat="-35.2850517" lon="148.9860436">
  <ele>700.2</ele>
  <time>2026-09-01T20:00:13Z</time>
  <course>199.41</course>
  <speed>0.2692582403567252</speed>
  <fix>3d</fix>
</trkpt>
<trkpt lat="-35.2850526" lon="148.9860435">
  <ele>700.29</ele>
  <time>2026-09-01T20:00:13Z</time>
  <course>19.94</course>
  <speed>0.29</speed>
  <fix>3d</fix>
</trkpt>
<trkpt lat="-35.2850515" lon="148.9860437">
  <ele>700.2</ele>
  <time>2026-09-01T20:00:13Z</time>
  <course>199.46</course>
  <speed>0.2596150997149434</speed>
  <fix>3d</fix>
</trkpt>
<trkpt lat="-35.2850521" lon="148.9860438">
  <ele>700.29</ele>
  <time>2026-09-01T20:00:13Z</time>
  <course>20.34</course>
  <speed>0.27</speed>
  <fix>3d</fix>
</trkpt>
<trkpt lat="-35.2850513" lon="148.9860438">
  <ele>700.2</ele>
  <time>2026-09-01T20:00:13Z</time>
  <course>199.52</course>
  <speed>0.24738633753705963</speed>
  <fix>3d</fix>
</trkpt>
<trkpt lat="-35.2850521" lon="148.9860438">
  <ele>700.29</ele>
  <time>2026-09-01T20:00:13Z</time>
  <course>20.34</course>
  <speed>0.27</speed>
  <fix>3d</fix>
</trkpt>
<trkpt lat="-35.2850511" lon="148.9860439">
  <ele>700.2</ele>
  <time>2026-09-01T20:00:13Z</time>
  <course>199.59</course>
  <speed>0.23769728648009425</speed>
  <fix>3d</fix>
</trkpt>
<trkpt lat="-35.2850516" lon="148.986044">
  <ele>700.29</ele>
  <time>2026-09-01T20:00:13Z</time>
  <course>20.91</course>
  <speed>0.24</speed>
  <fix>3d</fix>
</trkpt>
<trkpt lat="-35.2850509" lon="148.986044">
  <ele>700.2</ele>
  <time>2026-09-01T20:00:13Z</time>
  <course>199.64</course>
  <speed>0.21840329667841554</speed>
  <fix>3d</fix>
</trkpt>
<trkpt lat="-35.2850516" lon="148.986044">
  <ele>700.29</ele>
  <time>2026-09-01T20:00:13Z</time>
  <course>20.91</course>
  <speed>0.24</speed>
  <fix>3d</fix>
</trkpt>
<trkpt lat="-35.2850508" lon="148.9860441">
  <ele>700.2</ele>
  <time>2026-09-01T20:00:13Z</time>
  <course>199.69</course>
  <speed>0.20615528128088303</speed>
  <fix>3d</fix>
</trkpt>
<trkpt lat="-35.2850513" lon="148.9860441">
  <ele>700.29</ele>
  <time>2026-09-01T20:00:13Z</time>
  <course>21.67</course>
  <speed>0.22</speed>
  <fix>3d</fix>
</trkpt>
<trkpt lat="-35.2850506" lon="148.9860442">
  <ele>700.2</ele>
  <time>2026-09-01T20:00:13Z</time>
  <course>199.71</course>
  <speed>0.196468827043885</speed>
  <fix>3d</fix>
</trkpt>
<trkpt lat="-35.2850513" lon="148.9860441">
  <ele>700.29</ele>
  <time>2026-09-01T20:00:13Z</time>
  <course>21.67</course>
  <speed>0.22</speed>
  <fix>3d</fix>
</trkpt>
<trkpt lat="-35.2850505" lon="148.9860442">
  <ele>700.21</ele>
  <time>2026-09-01T20:00:13Z</time>
  <course>199.72</course>
  <speed>0.1772004514666935</speed>
  <fix>3d</fix>
</trkpt>
<trkpt lat="-35.2850509" lon="148.9860443">
  <ele>700.29</ele>
  <time>2026-09-01T20:00:13Z</time>
  <course>22.74</course>
  <speed>0.19</speed>
  <fix>3d</fix>
</trkpt>
<trkpt lat="-35.2850503" lon="148.9860443">
  <ele>700.21</ele>
  <time>2026-09-01T20:00:13Z</time>
  <course>199.72</course>
  <speed>0.1649242250247064</speed>
  <fix>3d</fix>
</trkpt>
<trkpt lat="-35.2850509" lon="148.9860443">
  <ele>700.29</ele>
  <time>2026-09-01T20:00:13Z</time>
  <course>22.74</course>
  <speed>0.19</speed>
  <fix>3d</fix>
</trkpt>
<trkpt lat="-35.2850502" lon="148.9860444">
  <ele>700.21</ele>
  <time>2026-09-01T20:00:13Z</time>
  <course>199.71</course>
  <speed>0.14560219778561037</speed>
  <fix>3d</fix>
</trkpt>
<trkpt lat="-35.2850507" lon="148.9860445">
  <ele>700.29</ele>
  <time>2026-09-01T20:00:13Z</time>
  <course>24.2</course>
  <speed>0.16</speed>
  <fix>3d</fix>
</trkpt>
<trkpt lat="-35.2850501" lon="148.9860444">
  <ele>700.21</ele>
  <time>2026-09-01T20:00:13Z</time>
  <course>199.7</course>
  <speed>0.13341664064126335</speed>
  <fix>3d</fix>
</trkpt>
<trkpt lat="-35.2850507" lon="148.9860445">
  <ele>700.29</ele>
  <time>2026-09-01T20:00:13Z</time>
  <course>24.2</course>
  <speed>0.16</speed>
  <fix>3d</fix>
</trkpt>
<trkpt lat="-35.28505" lon="148.9860445">
  <ele>700.21</ele>
  <time>2026-09-01T20:00:13Z</time>
  <course>199.7</course>
  <speed>0.12369316876852982</speed>
  <fix>3d</fix>
</trkpt>
<trkpt lat="-35.2850504" lon="148.9860446">
  <ele>700.29</ele>
  <time>2026-09-01T20:00:13Z</time>
  <course>26.1</course>
  <speed>0.13</speed>
  <fix>3d</fix>
</trkpt>
<trkpt lat="-35.2850499" lon="148.9860445">
  <ele>700.22</ele>
  <time>2026-09-01T20:00:13Z</time>
  <course>199.7</course>
  <speed>0.1019803902718557</speed>
  <fix>3d</fix>
</trkpt>
<trkpt lat="-35.2850504" lon="148.9860446">
  <ele>700.29</ele>
  <time>2026-09-01T20:00:13Z</time>
  <course>26.1</course>
  <speed>0.13</speed>
  <fix>3d</fix>
</trkpt>
<trkpt lat="-35.2850499" lon="148.9860446">
  <ele>700.22</ele>
  <time>2026-09-01T20:00:13Z</time>
  <course>199.7</course>
  <speed>0.09219544457292887</speed>
  <fix>3d</fix>
</trkpt>
<trkpt lat="-35.2850502" lon="148.9860447">
  <ele>700.29</ele>
  <time>2026-09-01T20:00:13Z</time>
  <course>28.67</course>
  <speed>0.1</speed>
  <fix>3d</fix>
</trkpt>
<trkpt lat="-35.2850498" lon="148.9860446">
  <ele>700.21</ele>
  <time>2026-09-01T20:00:13Z</time>
  <course>199.71</course>
  <speed>0.0824621125123532</speed>
  <fix>3d</fix>
</trkpt>
<trkpt lat="-35.2850502" lon="148.9860447">
  <ele>700.29</ele>
  <time>2026-09-01T20:00:13Z</time>
  <course>28.67</course>
  <speed>0.1</speed>
  <fix>3d</fix>
</trkpt>
<trkpt lat="-35.2850498" lon="148.9860447">
  <ele>700.21</ele>
  <time>2026-09-01T20:00:13Z</time>
  <course>199.72</course>
  <speed>0.06082762530298219</speed>
  <fix>3d</fix>
</trkpt>
<trkpt lat="-35.2850501" lon="148.9860448">
  <ele>700.29</ele>
  <time>2026-09-01T20:00:13Z</time>
  <course>32.6</course>
  <speed>0.08</speed>
  <fix>3d</fix>
</trkpt>
<trkpt lat="-35.2850498" lon="148.9860447">
  <ele>700.21</ele>
  <time>2026-09-01T20:00:13Z</time>
  <course>199.72</course>
  <speed>0.05099019513592785</speed>
  <fix>3d</fix>
</trkpt>
<trkpt lat="-35.2850501" lon="148.9860448">
  <ele>700.29</ele>
  <time>2026-09-01T20:00:13Z</time>
  <course>32.6</course>
  <speed>0.08</speed>
  <fix>3d</fix>
</trkpt>
<trkpt lat="-35.2850498" lon="148.9860447">
  <ele>700.21</ele>
  <time>2026-09-01T20:00:13Z</time>
  <course>199.73</course>
  <speed>0.03</speed>
  <fix>3d</fix>
</trkpt>
<trkpt lat="-35.28505" lon="148.9860449">
  <ele>700.29</ele>
  <time>2026-09-01T20:00:13Z</time>
  <course>40.84</course>
  <speed>0.05</speed>
  <fix>3d</fix>
</trkpt>
<trkpt lat="-35.2850497" lon="148.9860448">
  <ele>700.21</ele>
  <time>2026-09-01T20:00:13Z</time>
  <course>199.73</course>
  <speed>0.02</speed>
  <fix>3d</fix>
</trkpt>
<trkpt lat="-35.28505" lon="148.9860449">
  <ele>700.29</ele>
  <time>2026-09-01T20:00:13Z</time>
  <course>40.84</course>
  <speed>0.05</speed>
  <fix>3d</fix>
</trkpt>
<trkpt lat="-35.2850498" lon="148.9860448">
  <ele>700.2</ele>
  <time>2026-09-01T20:00:13Z</time>
  <course>199.73</course>
  <speed>0.01</speed>
  <fix>3d</fix>
</trkpt>
<trkpt lat="-35.2850499" lon="148.986045">
  <ele>700.29</ele>
  <time>2026-09-01T20:00:13Z</time>
  <course>64.33</course>
  <speed>0.02</speed>
  <fix>3d</fix>
</trkpt>
<trkpt lat="-35.2850498" lon="148.9860448">
  <ele>700.2</ele>
  <time>2026-09-01T20:00:13Z</time>
  <course>199.73</course>
  <speed>0.0</speed>
  <fix>3d</fix>
</trkpt>
<trkpt lat="-35.2850499" lon="148.986045">
  <ele>700.29</ele>
  <time>2026-09-01T20:00:13Z</time>
  <course>64.33</course>
  <speed>0.02</speed>
  <fix>3d</fix>
</trkpt>
<trkpt lat="-35.2850498" lon="148.9860448">
  <ele>700.2</ele>
  <time>2026-09-01T20:00:13Z</time>
  <course>199.72</course>
  <speed>0.01</speed>
  <fix>3d</fix>
</trkpt>
<trkpt lat="-35.2850499" lon="148.986045">
  <ele>700.28</ele>
  <time>2026-09-01T20:00:13Z</time>
  <course>127.38</course>
  <speed>0.02</speed>
  <fix>3d</fix>
</trkpt>
<trkpt lat="-35.2850498" lon="148.9860448">
  <ele>700.2</ele>
  <time>2026-09-01T20:00:13Z</time>
  <course>199.72</course>
  <speed>0.022360679774997897</speed>
  <fix>3d</fix>
</trkpt>
<trkpt lat="-35.2850499" lon="148.986045">
  <ele>700.28</ele>
  <time>2026-09-01T20:00:13Z</time>
  <course>127.38</course>
  <speed>0.02</speed>
  <fix>3d</fix>
</trkpt>
<trkpt lat="-35.2850499" lon="148.9860448">
  <ele>700.2</ele>
  <time>2026-09-01T20:00:13Z</time>
  <course>199.71</course>
  <speed>0.0316227766016838</speed>
  <fix>3d</fix>
</trkpt>
<trkpt lat="-35.28505" lon="148.986045">
  <ele>700.28</ele>
  <time>2026-09-01T20:00:13Z</time>
  <course>166.85</course>
  <speed>0.03</speed>
  <fix>3d</fix>
</trkpt>
<trkpt lat="-35.2850499" lon="148.9860448">
  <ele>700.2</ele>
  <time>2026-09-01T20:00:13Z</time>
  <course>199.71</course>
  <speed>0.044721359549995794</speed>
  <fix>3d</fix>
</trkpt>
<trkpt lat="-35.28505" lon="148.986045">
  <ele>700.28</ele>
  <time>2026-09-01T20:00:13Z</time>
  <course>166.85</course>
  <speed>0.03</speed>
  <fix>3d</fix>
</trkpt>
<trkpt lat="-35.2850499" lon="148.9860448">
  <ele>700.2</ele>
  <time>2026-09-01T20:00:13Z</time>
  <course>199.7</course>
  <speed>0.053851648071345036</speed>
  <fix>3d</fix>
</trkpt>
<trkpt lat="-35.28505" lon="148.986045">
  <ele>700.28</ele>
  <time>2026-09-01T20:00:13Z</time>
  <course>180.05</course>
  <speed>0.06</speed>
  <fix>3d</fix>
</trkpt>
<trkpt lat="-35.28505" lon="148.9860448">
  <ele>700.2</ele>
  <time>2026-09-01T20:00:13Z</time>
  <course>199.71</course>
  <speed>0.0670820393249937</speed>
  <fix>3d</fix>
</trkpt>
<trkpt lat="-35.28505" lon="148.986045">
  <ele>700.28</ele>
  <time>2026-09-01T20:00:13Z</time>
  <course>180.05</course>
  <speed>0.06</speed>
  <fix>3d</fix>
</trkpt>
<trkpt lat="-35.2850501" lon="148.9860448">
  <ele>700.21</ele>
  <time>2026-09-01T20:00:13Z</time>
  <course>199.71</course>
  <speed>0.07615773105863909</speed>
  <fix>3d</fix>
</trkpt>
<trkpt lat="-35.2850501" lon="148.986045">
  <ele>700.28</ele>
  <time>2026-09-01T20:00:13Z</time>
  <course>186.2</course>
  <speed>0.08</speed>
  <fix>3d</fix>
</trkpt>
<trkpt lat="-35.2850501" lon="148.9860448">
  <ele>700.21</ele>
  <time>2026-09-01T20:00:13Z</time>
  <course>199.72</course>
  <speed>0.07615773105863909</speed>
  <fix>3d</fix>
</trkpt>
<trkpt lat="-35.2850501" lon="148.986045">
  <ele>700.28</ele>
  <time>2026-09-01T20:00:13Z</time>
  <course>186.2</course>
  <speed>0.08</speed>
  <fix>3d</fix>
</trkpt>
<trkpt lat="-35.2850502" lon="148.9860448">
  <ele>700.21</ele>
  <time>2026-09-01T20:00:13Z</time>
  <course>199.72</course>
  <speed>0.08944271909999159</speed>
  <fix>3d</fix>
</trkpt>
<trkpt lat="-35.2850502" lon="148.986045">
  <ele>700.28</ele>
  <time>2026-09-01T20:00:13Z</time>
  <course>189.75</course>
  <speed>0.1</speed>
  <fix>3d</fix>
</trkpt>
<trkpt lat="-35.2850503" lon="148.9860448">
  <ele>700.21</ele>
  <time>2026-09-01T20:00:13Z</time>
  <course>199.72</course>
  <speed>0.09848857801796104</speed>
  <fix>3d</fix>
</trkpt>
<trkpt lat="-35.2850502" lon="148.986045">
  <ele>700.28</ele>
  <time>2026-09-01T20:00:13Z</time>
  <course>189.75</course>
  <speed>0.1</speed>
  <fix>3d</fix>
</trkpt>
<trkpt lat="-35.2850504" lon="148.9860448">
  <ele>700.21</ele>
  <time>2026-09-01T20:00:13Z</time>
  <course>199.72</course>
  <speed>0.09848857801796104</speed>
  <fix>3d</fix>
</trkpt>
<trkpt lat="-35.2850504" lon="148.986045">
  <ele>700.28</ele>
  <time>2026-09-01T20:00:13Z</time>
  <course>192.05</course>
  <speed>0.11</speed>
  <fix>3d</fix>
</trkpt>
<trkpt lat="-35.2850505" lon="148.9860447">
  <ele>700.21</ele>
  <time>2026-09-01T20:00:13Z</time>
  <course>199.72</course>
  <speed>0.1118033988749895</speed>
  <fix>3d</fix>
</trkpt>
<trkpt lat="-35.2850504" lon="148.986045">
  <ele>700.28</ele>
  <time>2026-09-01T20:00:13Z</time>
  <course>192.05</course>
  <speed>0.11</speed>
  <fix>3d</fix>
</trkpt>
<trkpt lat="-35.2850507" lon="148.9860447">
  <ele>700.21</ele>
  <time>2026-09-01T20:00:13Z</time>
  <course>199.72</course>
  <speed>0.1118033988749895</speed>
  <fix>3d</fix>
</trkpt>
<trkpt lat="-35.2850507" lon="148.986045">
  <ele>700.28</ele>
  <time>2026-09-01T20:00:13Z</time>
  <course>193.89</course>
  <speed>0.13</speed>
  <fix>3d</fix>
</trkpt>
<trkpt lat="-35.2850508" lon="148.9860446">
  <ele>700.2</ele>
  <time>2026-09-01T20:00:13Z</time>
  <course>199.72</course>
  <speed>0.12083045973594572</speed>
  <fix>3d</fix>
</trkpt>
<trkpt lat="-35.2850507" lon="148.986045">
  <ele>700.28</ele>
  <time>2026-09-01T20:00:13Z</time>
  <course>193.89</course>
  <speed>0.13</speed>
  <fix>3d</fix>
</trkpt>
<trkpt lat="-35.2850509" lon="148.9860446">
  <ele>700.2</ele>
  <time>2026-09-01T20:00:13Z</time>
  <course>199.72</course>
  <speed>0.12083045973594572</speed>
  <fix>3d</fix>
</trkpt>
<trkpt lat="-35.2850509" lon="148.9860449">
  <ele>700.28</ele>
  <time>2026-09-01T20:00:13Z</time>
  <course>195.55</course>
  <speed>0.14</speed>
  <fix>3d</fix>
</trkpt>
<trkpt lat="-35.285051" lon="148.9860446">
  <ele>700.2</ele>
  <time>2026-09-01T20:00:13Z</time>
  <course>199.72</course>
  <speed>0.12529964086141668</speed>
  <fix>3d</fix>
</trkpt>
<trkpt lat="-35.2850509" lon="148.9860449">
  <ele>700.28</ele>
  <time>2026-09-01T20:00:13Z</time>
  <course>195.55</course>
  <speed>0.14</speed>
  <fix>3d</fix>
</trkpt>
<trkpt lat="-35.2850512" lon="148.9860445">
  <ele>700.19</ele>
  <time>2026-09-01T20:00:13Z</time>
  <course>199.72</course>
  <speed>0.12529964086141668</speed>
  <fix>3d</fix>
</trkpt>
<trkpt lat="-35.2850512" lon="148.9860448">
  <ele>700.28</ele>
  <time>2026-09-01T20:00:13Z</time>
  <course>196.68</course>
  <speed>0.15</speed>
  <fix>3d</fix>
</trkpt>
<trkpt lat="-35.2850513" lon="148.9860445">
  <ele>700.19</ele>
  <time>2026-09-01T20:00:13Z</time>
  <course>199.72</course>
  <speed>0.1341640786499874</speed>
  <fix>3d</fix>
</trkpt>
<trkpt lat="-35.2850512" lon="148.9860448">
  <ele>700.28</ele>
  <time>2026-09-01T20:00:13Z</time>
  <course>196.68</course>
  <speed>0.15</speed>
  <fix>3d</fix>
</trkpt>
<trkpt lat="-35.2850514" lon="148.9860444">
  <ele>700.19</ele>
  <time>2026-09-01T20:00:13Z</time>
  <course>199.72</course>
  <speed>0.1341640786499874</speed>
  <fix>3d</fix>
</trkpt>
<trkpt lat="-35.2850514" lon="148.9860447">
  <ele>700.28</ele>
  <time>2026-09-01T20:00:13Z</time>
  <course>197.28</course>
  <speed>0.15</speed>
  <fix>3d</fix>
</trkpt>
<trkpt lat="-35.2850515" lon="148.9860444">
  <ele>700.19</ele>
  <time>2026-09-01T20:00:13Z</time>
  <course>199.72</course>
  <speed>0.12529964086141668</speed>
  <fix>3d</fix>
</trkpt>
<trkpt lat="-35.2850514" lon="148.9860447">
  <ele>700.28</ele>
  <time>2026-09-01T20:00:13Z</time>
  <course>197.28</course>
  <speed>0.15</speed>
  <fix>3d</fix>
</trkpt>
<trkpt lat="-35.2850517" lon="148.9860443">
  <ele>700.19</ele>
  <time>2026-09-01T20:00:13Z</time>
  <course>199.72</course>
  <speed>0.12529964086141668</speed>
  <fix>3d</fix>
</trkpt>
<trkpt lat="-35.2850517" lon="148.9860446">
  <ele>700.28</ele>
  <time>2026-09-01T20:00:13Z</time>
  <course>197.84</course>
  <speed>0.16</speed>
  <fix>3d</fix>
</trkpt>
<trkpt lat="-35.2850518" lon="148.9860443">
  <ele>700.19</ele>
  <time>2026-09-01T20:00:13Z</time>
  <course>199.72</course>
  <speed>0.12529964086141668</speed>
  <fix>3d</fix>
</trkpt>
<trkpt lat="-35.2850517" lon="148.9860446">
  <ele>700.28</ele>
  <time>2026-09-01T20:00:13Z</time>
  <course>197.84</course>
  <speed>0.16</speed>
  <fix>3d</fix>
</trkpt>
<trkpt lat="-35.2850519" lon="148.9860442">
  <ele>700.19</ele>
  <time>2026-09-01T20:00:13Z</time>
  <course>199.72</course>
  <speed>0.12529964086141668</speed>
  <fix>3d</fix>
</trkpt>
<trkpt lat="-35.285052" lon="148.9860445">
  <ele>700.28</ele>
  <time>2026-09-01T20:00:13Z</time>
  <course>198.56</course>
  <speed>0.15</speed>
  <fix>3d</fix>
</trkpt>
<trkpt lat="-35.2850521" lon="148.9860442">
  <ele>700.19</ele>
  <time>2026-09-01T20:00:13Z</time>
  <course>199.72</course>
  <speed>0.11661903789690602</speed>
  <fix>3d</fix>
</trkpt>
<trkpt lat="-35.285052" lon="148.9860445">
  <ele>700.28</ele>
  <time>2026-09-01T20:00:13Z</time>
  <course>198.56</course>
  <speed>0.15</speed>
  <fix>3d</fix>
</trkpt>
<trkpt lat="-35.2850522" lon="148.9860441">
  <ele>700.19</ele>
  <time>2026-09-01T20:00:13Z</time>
  <course>199.72</course>
  <speed>0.11661903789690602</speed>
  <fix>3d</fix>
</trkpt>
<trkpt lat="-35.2850522" lon="148.9860444">
  <ele>700.28</ele>
  <time>2026-09-01T20:00:13Z</time>
  <course>199.31</course>
  <speed>0.15</speed>
  <fix>3d</fix>
</trkpt>
<trkpt lat="-35.2850523" lon="148.9860441">
  <ele>700.19</ele>
  <time>2026-09-01T20:00:13Z</time>
  <course>199.71</course>
  <speed>0.11661903789690602</speed>
  <fix>3d</fix>
</trkpt>
<trkpt lat="-35.2850522" lon="148.9860444">
  <ele>700.28</ele>
  <time>2026-09-01T20:00:13Z</time>
  <course>199.31</course>
  <speed>0.15</speed>
  <fix>3d</fix>
</trkpt>
<trkpt lat="-35.2850524" lon="148.986044">
  <ele>700.2</ele>
  <time>2026-09-01T20:00:13Z</time>
  <course>199.7</course>
  <speed>0.10295630140987001</speed>
  <fix>3d</fix>
</trkpt>
<trkpt lat="-35.2850525" lon="148.9860443">
  <ele>700.28</ele>
  <time>2026-09-01T20:00:13Z</time>
  <course>200.04</course>
  <speed>0.14</speed>
  <fix>3d</fix>
</trkpt>
<trkpt lat="-35.2850525" lon="148.986044">
  <ele>700.2</ele>
  <time>2026-09-01T20:00:13Z</time>
  <course>199.7</course>
  <speed>0.09433981132056603</speed>
  <fix>3d</fix>
</trkpt>
<trkpt lat="-35.2850525" lon="148.9860443">
  <ele>700.28</ele>
  <time>2026-09-01T20:00:13Z</time>
  <course>200.04</course>
  <speed>0.14</speed>
  <fix>3d</fix>
</trkpt>
<trkpt lat="-35.2850526" lon="148.9860439">
  <ele>700.2</ele>
  <time>2026-09-01T20:00:13Z</time>
  <course>199.7</course>
  <speed>0.09433981132056603</speed>
  <fix>3d</fix>
</trkpt>
<trkpt lat="-35.2850528" lon="148.9860442">
  <ele>700.28</ele>
  <time>2026-09-01T20:00:13Z</time>
  <course>200.75</course>
  <speed>0.13</speed>
  <fix>3d</fix>
</trkpt>
<trkpt lat="-35.2850527" lon="148.9860439">
  <ele>700.2</ele>
  <time>2026-09-01T20:00:13Z</time>
  <course>199.7</course>
  <speed>0.08602325267042626</speed>
  <fix>3d</fix>
</trkpt>
<trkpt lat="-35.2850528" lon="148.9860442">
  <ele>700.28</ele>
  <time>2026-09-01T20:00:13Z</time>
  <course>200.75</course>
  <speed>0.13</speed>
  <fix>3d</fix>
</trkpt>
<trkpt lat="-35.2850528" lon="148.9860439">
  <ele>700.2</ele>
  <time>2026-09-01T20:00:13Z</time>
  <course>199.71</course>
  <speed>0.08602325267042626</speed>
  <fix>3d</fix>
</trkpt>
<trkpt lat="-35.285053" lon="148.9860441">
  <ele>700.29</ele>
  <time>2026-09-01T20:00:13Z</time>
  <course>201.46</course>
  <speed>0.12</speed>
  <fix>3d</fix>
</trkpt>
<trkpt lat="-35.2850529" lon="148.9860438">
  <ele>700.21</ele>
  <time>2026-09-01T20:00:13Z</time>
  <course>199.72</course>
  <speed>0.07211102550927978</speed>
  <fix>3d</fix>
</trkpt>
<trkpt lat="-35.285053" lon="148.9860441">
  <ele>700.29</ele>
  <time>2026-09-01T20:00:13Z</time>
  <course>201.46</course>
  <speed>0.12</speed>
  <fix>3d</fix>
</trkpt>
<trkpt lat="-35.285053" lon="148.9860438">
  <ele>700.21</ele>
  <time>2026-09-01T20:00:13Z</time>
  <course>199.73</course>
  <speed>0.06403124237432849</speed>
  <fix>3d</fix>
</trkpt>
<trkpt lat="-35.2850532" lon="148.986044">
  <ele>700.29</ele>
  <time>2026-09-01T20:00:13Z</time>
  <course>202.2</course>
  <speed>0.11</speed>
  <fix>3d</fix>
</trkpt>
<trkpt lat="-35.2850531" lon="148.9860438">
  <ele>700.21</ele>
  <time>2026-09-01T20:00:13Z</time>
  <course>199.73</course>
  <speed>0.0565685424949238</speed>
  <fix>3d</fix>
</trkpt>
<trkpt lat="-35.2850532" lon="148.986044">
  <ele>700.29</ele>
  <time>2026-09-01T20:00:13Z</time>
  <course>202.2</course>
  <speed>0.11</speed>
  <fix>3d</fix>
</trkpt>
<trkpt lat="-35.2850532" lon="148.9860437">
  <ele>700.21</ele>
  <time>2026-09-01T20:00:13Z</time>
  <course>199.73</course>
  <speed>0.0565685424949238</speed>
  <fix>3d</fix>
</trkpt>
<trkpt lat="-35.2850533" lon="148.9860439">
  <ele>700.29</ele>
  <time>2026-09-01T20:00:13Z</time>
  <course>203.02</course>
  <speed>0.09</speed>
  <fix>3d</fix>
</trkpt>
<trkpt lat="-35.2850532" lon="148.9860437">
  <ele>700.21</ele>
  <time>2026-09-01T20:00:13Z</time>
  <course>199.73</course>
  <speed>0.05</speed>
  <fix>3d</fix>
</trkpt>
<trkpt lat="-35.2850533" lon="148.9860439">
  <ele>700.29</ele>
  <time>2026-09-01T20:00:13Z</time>
  <course>203.02</course>
  <speed>0.09</speed>
  <fix>3d</fix>
</trkpt>
<trkpt lat="-35.2850533" lon="148.9860437">
  <ele>700.21</ele>
  <time>2026-09-01T20:00:13Z</time>
  <course>199.72</course>
  <speed>0.03605551275463989</speed>
  <fix>3d</fix>
</trkpt>
<trkpt lat="-35.2850534" lon="148.9860438">
  <ele>700.29</ele>
  <time>2026-09-01T20:00:13Z</time>
  <course>204.58</course>
  <speed>0.07</speed>
  <fix>3d</fix>
</trkpt>
<trkpt lat="-35.2850533" lon="148.9860436">
  <ele>700.2</ele>
  <time>2026-09-01T20:00:13Z</time>
  <course>199.72</course>
  <speed>0.0316227766016838</speed>
  <fix>3d</fix>
</trkpt>
<trkpt lat="-35.2850534" lon="148.9860438">
  <ele>700.29</ele>
  <time>2026-09-01T20:00:13Z</time>
  <course>204.58</course>
  <speed>0.07</speed>
  <fix>3d</fix>
</trkpt>
<trkpt lat="-35.2850533" lon="148.9860436">
  <ele>700.2</ele>
  <time>2026-09-01T20:00:13Z</time>
  <course>199.72</course>
  <speed>0.03</speed>
  <fix>3d</fix>
</trkpt>
<trkpt lat="-35.2850536" lon="148.9860438">
  <ele>700.29</ele>
  <time>2026-09-01T20:00:13Z</time>
  <course>208.06</course>
  <speed>0.06</speed>
  <fix>3d</fix>
</trkpt>
<trkpt lat="-35.2850534" lon="148.9860436">
  <ele>700.2</ele>
  <time>2026-09-01T20:00:13Z</time>
  <course>199.72</course>
  <speed>0.03</speed>
  <fix>3d</fix>
</trkpt>
<trkpt lat="-35.2850536" lon="148.9860438">
  <ele>700.29</ele>
  <time>2026-09-01T20:00:13Z</time>
  <course>208.06</course>
  <speed>0.06</speed>
  <fix>3d</fix>
</trkpt>
<trkpt lat="-35.2850534" lon="148.9860436">
  <ele>700.2</ele>
  <time>2026-09-01T20:00:13Z</time>
  <course>199.72</course>
  <speed>0.022360679774997897</speed>
  <fix>3d</fix>
</trkpt>
<trkpt lat="-35.2850537" lon="148.9860437">
  <ele>700.29</ele>
  <time>2026-09-01T20:00:13Z</time>
  <course>214.46</course>
  <speed>0.04</speed>
  <fix>3d</fix>
</trkpt>
<trkpt lat="-35.2850534" lon="148.9860436">
  <ele>700.19</ele>
  <time>2026-09-01T20:00:13Z</time>
  <course>199.72</course>
  <speed>0.0282842712474619</speed>
  <fix>3d</fix>
</trkpt>
<trkpt lat="-35.2850537" lon="148.9860437">
  <ele>700.29</ele>
  <time>2026-09-01T20:00:13Z</time>
  <course>214.46</course>
  <speed>0.04</speed>
  <fix>3d</fix>
</trkpt>
<trkpt lat="-35.2850534" lon="148.9860435">
  <ele>700.19</ele>
  <time>2026-09-01T20:00:13Z</time>
  <course>199.72</course>
  <speed>0.0282842712474619</speed>
  <fix>3d</fix>
</trkpt>
<trkpt lat="-35.2850537" lon="148.9860436">
  <ele>700.29</ele>
  <time>2026-09-01T20:00:13Z</time>
  <course>226.43</course>
  <speed>0.02</speed>
  <fix>3d</fix>
</trkpt>
<trkpt lat="-35.2850534" lon="148.9860435">
  <ele>700.19</ele>
  <time>2026-09-01T20:00:13Z</time>
  <course>199.73</course>
  <speed>0.0316227766016838</speed>
  <fix>3d</fix>
</trkpt>
<trkpt lat="-35.2850537" lon="148.9860436">
  <ele>700.29</ele>
  <time>2026-09-01T20:00:13Z</time>
  <course>226.43</course>
  <speed>0.02</speed>
  <fix>3d</fix>
</trkpt>
<trkpt lat="-35.2850534" lon="148.9860435">
  <ele>700.19</ele>
  <time>2026-09-01T20:00:13Z</time>
  <course>199.73</course>
  <speed>0.0412310562561766</speed>
  <fix>3d</fix>
</trkpt>
<trkpt lat="-35.2850538" lon="148.9860436">
  <ele>700.29</ele>
  <time>2026-09-01T20:00:13Z</time>
  <course>259.61</course>
  <speed>0.01</speed>
  <fix>3d</fix>
</trkpt>
<trkpt lat="-35.2850534" lon="148.9860435">
  <ele>700.2</ele>
  <time>2026-09-01T20:00:13Z</time>
  <course>199.73</course>
  <speed>0.0412310562561766</speed>
  <fix>3d</fix>
</trkpt>
<trkpt lat="-35.2850538" lon="148.9860436">
  <ele>700.29</ele>
  <time>2026-09-01T20:00:13Z</time>
  <course>259.61</course>
  <speed>0.01</speed>
  <fix>3d</fix>
</trkpt>
<trkpt lat="-35.2850534" lon="148.9860435">
  <ele>700.2</ele>
  <time>2026-09-01T20:00:13Z</time>
  <course>199.73</course>
  <speed>0.05099019513592785</speed>
  <fix>3d</fix>
</trkpt>
<trkpt lat="-35.2850538" lon="148.9860436">
  <ele>700.29</ele>
  <time>2026-09-01T20:00:13Z</time>
  <course>329.98</course>
  <speed>0.01</speed>
  <fix>3d</fix>
</trkpt>
<trkpt lat="-35.2850534" lon="148.9860435">
  <ele>700.2</ele>
  <time>2026-09-01T20:00:13Z</time>
  <course>199.73</course>
  <speed>0.06</speed>
  <fix>3d</fix>
</trkpt>
<trkpt lat="-35.2850538" lon="148.9860436">
  <ele>700.29</ele>
  <time>2026-09-01T20:00:13Z</time>
  <course>329.98</course>
  <speed>0.01</speed>
  <fix>3d</fix>
</trkpt>
<trkpt lat="-35.2850534" lon="148.9860435">
  <ele>700.21</ele>
  <time>2026-09-01T20:00:13Z</time>
  <course>199.73</course>
  <speed>0.06</speed>
  <fix>3d</fix>
</trkpt>
<trkpt lat="-35.2850538" lon="148.9860435">
  <ele>700.29</ele>
  <time>2026-09-01T20:00:13Z</time>
  <course>357.04</course>
  <speed>0.02</speed>
  <fix>3d</fix>
</trkpt>
<trkpt lat="-35.2850534" lon="148.9860435">
  <ele>700.21</ele>
  <time>2026-09-01T20:00:13Z</time>
  <course>199.72</course>
  <speed>0.07</speed>
  <fix>3d</fix>
</trkpt>
<trkpt lat="-35.2850538" lon="148.9860435">
  <ele>700.29</ele>
  <time>2026-09-01T20:00:13Z</time>
  <course>357.04</course>
  <speed>0.02</speed>
  <fix>3d</fix>
</trkpt>
<trkpt lat="-35.2850534" lon="148.9860435">
  <ele>700.21</ele>
  <time>2026-09-01T20:00:13Z</time>
  <course>199.72</course>
  <speed>0.07</speed>
  <fix>3d</fix>
</trkpt>
<trkpt lat="-35.2850537" lon="148.9860435">
  <ele>700.3</ele>
  <time>2026-09-01T20:00:13Z</time>
  <course>4.63</course>
  <speed>0.03</speed>
  <fix>3d</fix>
</trkpt>
<trkpt lat="-35.2850533" lon="148.9860435">
  <ele>700.21</ele>
  <time>2026-09-01T20:00:13Z</time>
  <course>199.72</course>
  <speed>0.08</speed>
  <fix>3d</fix>
</trkpt>
<trkpt lat="-35.2850537" lon="148.9860435">
  <ele>700.3</ele>
  <time>2026-09-01T20:00:13Z</time>
  <course>4.63</course>
  <speed>0.03</speed>
  <fix>3d</fix>
</trkpt>
<trkpt lat="-35.2850533" lon="148.9860435">
  <ele>700.21</ele>
  <time>2026-09-01T20:00:13Z</time>
  <course>199.73</course>
  <speed>0.08</speed>
  <fix>3d</fix>
</trkpt>
<trkpt lat="-35.2850536" lon="148.9860436">
  <ele>700.3</ele>
  <time>2026-09-01T20:00:13Z</time>
  <course>8.01</course>
  <speed>0.04</speed>
  <fix>3d</fix>
</trkpt>
<trkpt lat="-35.2850532" lon="148.9860435">
  <ele>700.21</ele>
  <time>2026-09-01T20:00:13Z</time>
  <course>199.73</course>
  <speed>0.08</speed>
  <fix>3d</fix>
</trkpt>
<trkpt lat="-35.2850536" lon="148.9860436">
  <ele>700.3</ele>
  <time>2026-09-01T20:00:13Z</time>
  <course>8.01</course>
  <speed>0.04</speed>
  <fix>3d</fix>
</trkpt>
<trkpt lat="-35.2850532" lon="148.9860435">
  <ele>700.21</ele>
  <time>2026-09-01T20:00:13Z</time>
  <course>199.73</course>
  <speed>0.09</speed>
  <fix>3d</fix>
</trkpt>
<trkpt lat="-35.2850535" lon="148.9860436">
  <ele>700.3</ele>
  <time>2026-09-01T20:00:13Z</time>
  <course>10.31</course>
  <speed>0.05</speed>
  <fix>3d</fix>
</trkpt>
<trkpt lat="-35.2850531" lon="148.9860435">
  <ele>700.21</ele>
  <time>2026-09-01T20:00:13Z</time>
  <course>199.73</course>
  <speed>0.09</speed>
  <fix>3d</fix>
</trkpt>
<trkpt lat="-35.2850535" lon="148.9860436">
  <ele>700.3</ele>
  <time>2026-09-01T20:00:13Z</time>
  <course>10.31</course>
  <speed>0.05</speed>
  <fix>3d</fix>
</trkpt>
<trkpt lat="-35.2850531" lon="148.9860435">
  <ele>700.21</ele>
  <time>2026-09-01T20:00:13Z</time>
  <course>199.73</course>
  <speed>0.09</speed>
  <fix>3d</fix>
</trkpt>
<trkpt lat="-35.2850534" lon="148.9860436">
  <ele>700.3</ele>
  <time>2026-09-01T20:00:13Z</time>
  <course>12.28</course>
  <speed>0.06</speed>
  <fix>3d</fix>
</trkpt>
<trkpt lat="-35.285053" lon="148.9860435">
  <ele>700.21</ele>
  <time>2026-09-01T20:00:13Z</time>
  <course>199.73</course>
  <speed>0.09</speed>
  <fix>3d</fix>
</trkpt>
<trkpt lat="-35.2850534" lon="148.9860436">
  <ele>700.3</ele>
  <time>2026-09-01T20:00:13Z</time>
  <course>12.28</course>
  <speed>0.06</speed>
  <fix>3d</fix>
</trkpt>
<trkpt lat="-35.285053" lon="148.9860435">
  <ele>700.21</ele>
  <time>2026-09-01T20:00:13Z</time>
  <course>199.73</course>
  <speed>0.1</speed>
  <fix>3d</fix>
</trkpt>
<trkpt lat="-35.2850533" lon="148.9860436">
  <ele>700.3</ele>
  <time>2026-09-01T20:00:13Z</time>
  <course>14.06</course>
  <speed>0.07</speed>
  <fix>3d</fix>
</trkpt>
<trkpt lat="-35.2850529" lon="148.9860435">
  <ele>700.21</ele>
  <time>2026-09-01T20:00:13Z</time>
  <course>199.73</course>
  <speed>0.1</speed>
  <fix>3d</fix>
</trkpt>
<trkpt lat="-35.2850533" lon="148.9860436">
  <ele>700.3</ele>
  <time>2026-09-01T20:00:13Z</time>
  <course>14.06</course>
  <speed>0.07</speed>
  <fix>3d</fix>
</trkpt>
<trkpt lat="-35.2850528" lon="148.9860436">
  <ele>700.21</ele>
  <time>2026-09-01T20:00:13Z</time>
  <course>199.73</course>
  <speed>0.1004987562112089</speed>
  <fix>3d</fix>
</trkpt>
<trkpt lat="-35.2850532" lon="148.9860436">
  <ele>700.3</ele>
  <time>2026-09-01T20:00:13Z</time>
  <course>15.74</course>
  <speed>0.07</speed>
  <fix>3d</fix>
</trkpt>
<trkpt lat="-35.2850528" lon="148.9860436">
  <ele>700.21</ele>
  <time>2026-09-01T20:00:13Z</time>
  <course>199.73</course>
  <speed>0.1004987562112089</speed>
  <fix>3d</fix>
</trkpt>
<trkpt lat="-35.2850532" lon="148.9860436">
  <ele>700.3</ele>
  <time>2026-09-01T20:00:13Z</time>
  <course>15.74</course>
  <speed>0.07</speed>
  <fix>3d</fix>
</trkpt>
<trkpt lat="-35.2850527" lon="148.9860436">
  <ele>700.21</ele>
  <time>2026-09-01T20:00:13Z</time>
  <course>199.73</course>
  <speed>0.1004987562112089</speed>
  <fix>3d</fix>
</trkpt>
<trkpt lat="-35.285053" lon="148.9860437">
  <ele>700.3</ele>
  <time>2026-09-01T20:00:13Z</time>
  <course>17.65</course>
  <speed>0.08</speed>
  <fix>3d</fix>
</trkpt>
<trkpt lat="-35.2850526" lon="148.9860436">
  <ele>700.21</ele>
  <time>2026-09-01T20:00:13Z</time>
  <course>199.73</course>
  <speed>0.09055385138137417</speed>
  <fix>3d</fix>
</trkpt>
<trkpt lat="-35.285053" lon="148.9860437">
  <ele>700.3</ele>
  <time>2026-09-01T20:00:13Z</time>
  <course>17.65</course>
  <speed>0.08</speed>
  <fix>3d</fix>
</trkpt>
<trkpt lat="-35.2850526" lon="148.9860437">
  <ele>700.21</ele>
  <time>2026-09-01T20:00:13Z</time>
  <course>199.73</course>
  <speed>0.09055385138137417</speed>
  <fix>3d</fix>
</trkpt>
<trkpt lat="-35.2850529" lon="148.9860438">
  <ele>700.3</ele>
  <time>2026-09-01T20:00:13Z</time>
  <course>19.76</course>
  <speed>0.08</speed>
  <fix>3d</fix>
</trkpt>
<trkpt lat="-35.2850525" lon="148.9860437">
  <ele>700.21</ele>
  <time>2026-09-01T20:00:13Z</time>
  <course>199.72</course>
  <speed>0.09055385138137417</speed>
  <fix>3d</fix>
</trkpt>
<trkpt lat="-35.2850529" lon="148.9860438">
  <ele>700.3</ele>
  <time>2026-09-01T20:00:13Z</time>
  <course>19.76</course>
  <speed>0.08</speed>
  <fix>3d</fix>
</trkpt>
<trkpt lat="-35.2850525" lon="148.9860437">
  <ele>700.21</ele>
  <time>2026-09-01T20:00:13Z</time>
  <course>199.72</course>
  <speed>0.09055385138137417</speed>
  <fix>3d</fix>
</trkpt>
<trkpt lat="-35.2850528" lon="148.9860438">
  <ele>700.3</ele>
  <time>2026-09-01T20:00:13Z</time>
  <course>21.5</course>
  <speed>0.07</speed>
  <fix>3d</fix>
</trkpt>
<trkpt lat="-35.2850524" lon="148.9860437">
  <ele>700.21</ele>
  <time>2026-09-01T20:00:13Z</time>
  <course>199.72</course>
  <speed>0.09055385138137417</speed>
  <fix>3d</fix>
</trkpt>
<trkpt lat="-35.2850528" lon="148.9860438">
  <ele>700.3</ele>
  <time>2026-09-01T20:00:13Z</time>
  <course>21.5</course>
  <speed>0.07</speed>
  <fix>3d</fix>
</trkpt>
<trkpt lat="-35.2850523" lon="148.9860438">
  <ele>700.21</ele>
  <time>2026-09-01T20:00:13Z</time>
  <course>199.72</course>
  <speed>0.08062257748298549</speed>
  <fix>3d</fix>
</trkpt>
<trkpt lat="-35.2850526" lon="148.9860439">
  <ele>700.29</ele>
  <time>2026-09-01T20:00:13Z</time>
  <course>22.88</course>
  <speed>0.07</speed>
  <fix>3d</fix>
</trkpt>
<trkpt lat="-35.2850523" lon="148.9860438">
  <ele>700.21</ele>
  <time>2026-09-01T20:00:13Z</time>
  <course>199.72</course>
  <speed>0.08062257748298549</speed>
  <fix>3d</fix>
</trkpt>
<trkpt lat="-35.2850526" lon="148.9860439">
  <ele>700.29</ele>
  <time>2026-09-01T20:00:13Z</time>
  <course>22.88</course>
  <speed>0.07</speed>
  <fix>3d</fix>
</trkpt>
<trkpt lat="-35.2850522" lon="148.9860438">
  <ele>700.21</ele>
  <time>2026-09-01T20:00:13Z</time>
  <course>199.72</course>
  <speed>0.08062257748298549</speed>
  <fix>3d</fix>
</trkpt>
<trkpt lat="-35.2850525" lon="148.9860439">
  <ele>700.29</ele>
  <time>2026-09-01T20:00:13Z</time>
  <course>24.27</course>
  <speed>0.07</speed>
  <fix>3d</fix>
</trkpt>
<trkpt lat="-35.2850522" lon="148.9860438">
  <ele>700.21</ele>
  <time>2026-09-01T20:00:13Z</time>
  <course>199.72</course>
  <speed>0.08062257748298549</speed>
  <fix>3d</fix>
</trkpt>
<trkpt lat="-35.2850525" lon="148.9860439">
  <ele>700.29</ele>
  <time>2026-09-01T20:00:13Z</time>
  <course>24.27</course>
  <speed>0.07</speed>
  <fix>3d</fix>
</trkpt>
<trkpt lat="-35.2850521" lon="148.9860439">
  <ele>700.21</ele>
  <time>2026-09-01T20:00:13Z</time>
  <course>199.73</course>
  <speed>0.07071067811865475</speed>
  <fix>3d</fix>
</trkpt>
<trkpt lat="-35.2850524" lon="148.986044">
  <ele>700.29</ele>
  <time>2026-09-01T20:00:13Z</time>
  <course>25.93</course>
  <speed>0.06</speed>
  <fix>3d</fix>
</trkpt>
<trkpt lat="-35.2850521" lon="148.9860439">
  <ele>700.21</ele>
  <time>2026-09-01T20:00:13Z</time>
  <course>199.73</course>
  <speed>0.07071067811865475</speed>
  <fix>3d</fix>
</trkpt>
<trkpt lat="-35.2850524" lon="148.986044">
  <ele>700.29</ele>
  <time>2026-09-01T20:00:13Z</time>
  <course>25.93</course>
  <speed>0.06</speed>
  <fix>3d</fix>
</trkpt>
<trkpt lat="-35.285052" lon="148.9860439">
  <ele>700.21</ele>
  <time>2026-09-01T20:00:13Z</time>
  <course>199.73</course>
  <speed>0.07071067811865475</speed>
  <fix>3d</fix>
</trkpt>
<trkpt lat="-35.2850523" lon="148.986044">
  <ele>700.29</ele>
  <time>2026-09-01T20:00:13Z</time>
  <course>27.96</course>
  <speed>0.06</speed>
  <fix>3d</fix>
</trkpt>
<trkpt lat="-35.285052" lon="148.9860439">
  <ele>700.21</ele>
  <time>2026-09-01T20:00:13Z</time>
  <course>199.73</course>
  <speed>0.06</speed>
  <fix>3d</fix>
</trkpt>
<trkpt lat="-35.2850523" lon="148.986044">
  <ele>700.29</ele>
  <time>2026-09-01T20:00:13Z</time>
  <course>27.96</course>
  <speed>0.06</speed>
  <fix>3d</fix>
</trkpt>
<trkpt lat="-35.285052" lon="148.986044">
  <ele>700.21</ele>
  <time>2026-09-01T20:00:13Z</time>
  <course>199.72</course>
  <speed>0.06</speed>
  <fix>3d</fix>
</trkpt>
<trkpt lat="-35.2850522" lon="148.9860441">
  <ele>700.29</ele>
  <time>2026-09-01T20:00:13Z</time>
  <course>30.5</course>
  <speed>0.05</speed>
  <fix>3d</fix>
</trkpt>
<trkpt lat="-35.2850519" lon="148.986044">
  <ele>700.21</ele>
  <time>2026-09-01T20:00:13Z</time>
  <course>199.72</course>
  <speed>0.05</speed>
  <fix>3d</fix>
</trkpt>
<trkpt lat="-35.2850522" lon="148.9860441">
  <ele>700.29</ele>
  <time>2026-09-01T20:00:13Z</time>
  <course>30.5</course>
  <speed>0.05</speed>
  <fix>3d</fix>
</trkpt>
<trkpt lat="-35.2850519" lon="148.986044">
  <ele>700.21</ele>
  <time>2026-09-01T20:00:13Z</time>
  <course>199.72</course>
  <speed>0.05</speed>
  <fix>3d</fix>
</trkpt>
<trkpt lat="-35.2850521" lon="148.9860442">
  <ele>700.29</ele>
  <time>2026-09-01T20:00:13Z</time>
  <course>33.95</course>
  <speed>0.04</speed>
  <fix>3d</fix>
</trkpt>
<trkpt lat="-35.2850519" lon="148.986044">
  <ele>700.21</ele>
  <time>2026-09-01T20:00:13Z</time>
  <course>199.72</course>
  <speed>0.05</speed>
  <fix>3d</fix>
</trkpt>
<trkpt lat="-35.2850521" lon="148.9860442">
  <ele>700.29</ele>
  <time>2026-09-01T20:00:13Z</time>
  <course>33.95</course>
  <speed>0.04</speed>
  <fix>3d</fix>
</trkpt>
<trkpt lat="-35.2850519" lon="148.9860441">
  <ele>700.2</ele>
  <time>2026-09-01T20:00:13Z</time>
  <course>199.72</course>
  <speed>0.04</speed>
  <fix>3d</fix>
</trkpt>
<trkpt lat="-35.2850521" lon="148.9860443">
  <ele>700.29</ele>
  <time>2026-09-01T20:00:13Z</time>
  <course>38.9</course>
  <speed>0.03</speed>
  <fix>3d</fix>
</trkpt>
<trkpt lat="-35.2850518" lon="148.9860441">
  <ele>700.2</ele>
  <time>2026-09-01T20:00:13Z</time>
  <course>199.69</course>
  <speed>0.03</speed>
  <fix>3d</fix>
</trkpt>
<trkpt lat="-35.2850521" lon="148.9860443">
  <ele>700.29</ele>
  <time>2026-09-01T20:00:13Z</time>
  <course>38.9</course>
  <speed>0.03</speed>
  <fix>3d</fix>
</trkpt>
<trkpt lat="-35.2850519" lon="148.9860441">
  <ele>700.2</ele>
  <time>2026-09-01T20:00:14Z</time>
  <course>199.35</course>
  <speed>0.0</speed>
  <fix>3d</fix>
</trkpt>
<trkpt lat="-35.285052" lon="148.9860443">
  <ele>700.29</ele>
  <time>2026-09-01T20:00:14Z</time>
  <course>49.21</course>
  <speed>0.02</speed>
  <fix>3d</fix>
</trkpt>
<trkpt lat="-35.2850519" lon="148.9860441">
  <ele>700.21</ele>
  <time>2026-09-01T20:00:14Z</time>
  <course>198.91</course>
  <speed>0.0412310562561766</speed>
  <fix>3d</fix>
</trkpt>
<trkpt lat="-35.285052" lon="148.9860443">
  <ele>700.29</ele>
  <time>2026-09-01T20:00:14Z</time>
  <course>49.21</course>
  <speed>0.02</speed>
  <fix>3d</fix>
</trkpt>
<trkpt lat="-35.2850519" lon="148.9860442">
  <ele>700.21</ele>
  <time>2026-09-01T20:00:14Z</time>
  <course>198.63</course>
  <speed>0.05</speed>
  <fix>3d</fix>
</trkpt>
<trkpt lat="-35.285052" lon="148.9860444">
  <ele>700.29</ele>
  <time>2026-09-01T20:00:14Z</time>
  <course>153.4</course>
  <speed>0.03</speed>
  <fix>3d</fix>
</trkpt>
<trkpt lat="-35.2850519" lon="148.9860442">
  <ele>700.23</ele>
  <time>2026-09-01T20:00:14Z</time>
  <course>198.58</course>
  <speed>0.05</speed>
  <fix>3d</fix>
</trkpt>
<trkpt lat="-35.285052" lon="148.9860444">
  <ele>700.29</ele>
  <time>2026-09-01T20:00:14Z</time>
  <course>153.4</course>
  <speed>0.03</speed>
  <fix>3d</fix>
</trkpt>
<trkpt lat="-35.285052" lon="148.9860442">
  <ele>700.27</ele>
  <time>2026-09-01T20:00:14Z</time>
  <course>198.73</course>
  <speed>0.06</speed>
  <fix>3d</fix>
</trkpt>
<trkpt lat="-35.285052" lon="148.9860444">
  <ele>700.3</ele>
  <time>2026-09-01T20:00:14Z</time>
  <course>170.02</course>
  <speed>0.07</speed>
  <fix>3d</fix>
</trkpt>
<trkpt lat="-35.2850521" lon="148.9860442">
  <ele>700.32</ele>
  <time>2026-09-01T20:00:14Z</time>
  <course>198.99</course>
  <speed>0.06</speed>
  <fix>3d</fix>
</trkpt>
<trkpt lat="-35.285052" lon="148.9860444">
  <ele>700.3</ele>
  <time>2026-09-01T20:00:14Z</time>
  <course>170.02</course>
  <speed>0.07</speed>
  <fix>3d</fix>
</trkpt>
<trkpt lat="-35.2850521" lon="148.9860442">
  <ele>700.4</ele>
  <time>2026-09-01T20:00:14Z</time>
  <course>199.29</course>
  <speed>0.06</speed>
  <fix>3d</fix>
</trkpt>
<trkpt lat="-35.2850521" lon="148.9860444">
  <ele>700.36</ele>
  <time>2026-09-01T20:00:14Z</time>
  <course>166.26</course>
  <speed>0.08</speed>
  <fix>3d</fix>
</trkpt>
<trkpt lat="-35.2850522" lon="148.9860442">
  <ele>700.51</ele>
  <time>2026-09-01T20:00:14Z</time>
  <course>199.52</course>
  <speed>0.06</speed>
  <fix>3d</fix>
</trkpt>
<trkpt lat="-35.2850521" lon="148.9860444">
  <ele>700.36</ele>
  <time>2026-09-01T20:00:14Z</time>
  <course>166.26</course>
  <speed>0.08</speed>
  <fix>3d</fix>
</trkpt>
<trkpt lat="-35.2850523" lon="148.9860442">
  <ele>700.65</ele>
  <time>2026-09-01T20:00:14Z</time>
  <course>199.64</course>
  <speed>0.07071067811865475</speed>
  <fix>3d</fix>
</trkpt>
<trkpt lat="-35.2850524" lon="148.9860445">
  <ele>700.5</ele>
  <time>2026-09-01T20:00:14Z</time>
  <course>168.89</course>
  <speed>0.09</speed>
  <fix>3d</fix>
</trkpt>
<trkpt lat="-35.2850524" lon="148.9860442">
  <ele>700.81</ele>
  <time>2026-09-01T20:00:14Z</time>
  <course>199.65</course>
  <speed>0.0824621125123532</speed>
  <fix>3d</fix>
</trkpt>
<trkpt lat="-35.2850524" lon="148.9860445">
  <ele>700.5</ele>
  <time>2026-09-01T20:00:14Z</time>
  <course>168.89</course>
  <speed>0.09</speed>
  <fix>3d</fix>
</trkpt>
<trkpt lat="-35.2850525" lon="148.9860442">
  <ele>701.0</ele>
  <time>2026-09-01T20:00:14Z</time>
  <course>199.58</course>
  <speed>0.1044030650891055</speed>
  <fix>3d</fix>
</trkpt>
<trkpt lat="-35.2850526" lon="148.9860445">
  <ele>700.73</ele>
  <time>2026-09-01T20:00:14Z</time>
  <course>178.31</course>
  <speed>0.1</speed>
  <fix>3d</fix>
</trkpt>
<trkpt lat="-35.2850526" lon="148.9860442">
  <ele>701.2</ele>
  <time>2026-09-01T20:00:14Z</time>
  <course>199.47</course>
  <speed>0.12083045973594572</speed>
  <fix>3d</fix>
</trkpt>
<trkpt lat="-35.2850526" lon="148.9860445">
  <ele>700.73</ele>
  <time>2026-09-01T20:00:14Z</time>
  <course>178.31</course>
  <speed>0.1</speed>
  <fix>3d</fix>
</trkpt>
<trkpt lat="-35.2850528" lon="148.9860443">
  <ele>701.43</ele>
  <time>2026-09-01T20:00:14Z</time>
  <course>199.38</course>
  <speed>0.15231546211727817</speed>
  <fix>3d</fix>
</trkpt>
<trkpt lat="-35.2850528" lon="148.9860445">
  <ele>701.07</ele>
  <time>2026-09-01T20:00:14Z</time>
  <course>188.21</course>
  <speed>0.13</speed>
  <fix>3d</fix>
</trkpt>
<trkpt lat="-35.2850529" lon="148.9860442">
  <ele>701.67</ele>
  <time>2026-09-01T20:00:14Z</time>
  <course>199.33</course>
  <speed>0.17464249196572978</speed>
  <fix>3d</fix>
</trkpt>
<trkpt lat="-35.2850528" lon="148.9860445">
  <ele>701.07</ele>
  <time>2026-09-01T20:00:14Z</time>
  <course>188.21</course>
  <speed>0.13</speed>
  <fix>3d</fix>
</trkpt>
<trkpt lat="-35.2850531" lon="148.9860441">
  <ele>701.93</ele>
  <time>2026-09-01T20:00:14Z</time>
  <course>199.33</course>
  <speed>0.19697715603592209</speed>
  <fix>3d</fix>
</trkpt>
<trkpt lat="-35.285053" lon="148.9860445">
  <ele>701.5</ele>
  <time>2026-09-01T20:00:14Z</time>
  <course>193.85</course>
  <speed>0.17</speed>
  <fix>3d</fix>
</trkpt>
<trkpt lat="-35.2850533" lon="148.9860441">
  <ele>702.19</ele>
  <time>2026-09-01T20:00:14Z</time>
  <course>199.36</course>
  <speed>0.2193171219946131</speed>
  <fix>3d</fix>
</trkpt>
<trkpt lat="-35.285053" lon="148.9860445">
  <ele>701.5</ele>
  <time>2026-09-01T20:00:14Z</time>
  <course>193.85</course>
  <speed>0.17</speed>
  <fix>3d</fix>
</trkpt>
<trkpt lat="-35.2850535" lon="148.986044">
  <ele>702.46</ele>
  <time>2026-09-01T20:00:14Z</time>
  <course>199.42</course>
  <speed>0.24166091947189144</speed>
  <fix>3d</fix>
</trkpt>
<trkpt lat="-35.2850533" lon="148.9860444">
  <ele>701.98</ele>
  <time>2026-09-01T20:00:14Z</time>
  <course>196.28</course>
  <speed>0.22</speed>
  <fix>3d</fix>
</trkpt>
<trkpt lat="-35.2850537" lon="148.9860439">
  <ele>702.73</ele>
  <time>2026-09-01T20:00:14Z</time>
  <course>199.48</course>
  <speed>0.26</speed>
  <fix>3d</fix>
</trkpt>
<trkpt lat="-35.2850533" lon="148.9860444">
  <ele>701.98</ele>
  <time>2026-09-01T20:00:14Z</time>
  <course>196.28</course>
  <speed>0.22</speed>
  <fix>3d</fix>
</trkpt>
<trkpt lat="-35.285054" lon="148.9860438">
  <ele>703.0</ele>
  <time>2026-09-01T20:00:14Z</time>
  <course>199.54</course>
  <speed>0.27313000567495327</speed>
  <fix>3d</fix>
</trkpt>
<trkpt lat="-35.2850538" lon="148.9860442">
  <ele>702.51</ele>
  <time>2026-09-01T20:00:14Z</time>
  <course>197.4</course>
  <speed>0.26</speed>
  <fix>3d</fix>
</trkpt>
<trkpt lat="-35.2850542" lon="148.9860437">
  <ele>703.27</ele>
  <time>2026-09-01T20:00:14Z</time>
  <course>199.58</course>
  <speed>0.2823118842698621</speed>
  <fix>3d</fix>
</trkpt>
<trkpt lat="-35.2850538" lon="148.9860442">
  <ele>702.51</ele>
  <time>2026-09-01T20:00:14Z</time>
  <course>197.4</course>
  <speed>0.26</speed>
  <fix>3d</fix>
</trkpt>
<trkpt lat="-35.2850545" lon="148.9860436">
  <ele>703.55</ele>
  <time>2026-09-01T20:00:14Z</time>
  <course>199.62</course>
  <speed>0.29546573405388316</speed>
  <fix>3d</fix>
</trkpt>
<trkpt lat="-35.2850543" lon="148.986044">
  <ele>703.05</ele>
  <time>2026-09-01T20:00:14Z</time>
  <course>198.07</course>
  <speed>0.3</speed>
  <fix>3d</fix>
</trkpt>
<trkpt lat="-35.2850548" lon="148.9860435">
  <ele>703.81</ele>
  <time>2026-09-01T20:00:14Z</time>
  <course>199.64</course>
  <speed>0.29546573405388316</speed>
  <fix>3d</fix>
</trkpt>
<trkpt lat="-35.2850543" lon="148.986044">
  <ele>703.05</ele>
  <time>2026-09-01T20:00:14Z</time>
  <course>198.07</course>
  <speed>0.3</speed>
  <fix>3d</fix>
</trkpt>
<trkpt lat="-35.2850551" lon="148.9860434">
  <ele>704.08</ele>
  <time>2026-09-01T20:00:14Z</time>
  <course>199.65</course>
  <speed>0.29546573405388316</speed>
  <fix>3d</fix>
</trkpt>
<trkpt lat="-35.2850548" lon="148.9860438">
  <ele>703.58</ele>
  <time>2026-09-01T20:00:14Z</time>
  <course>198.58</course>
  <speed>0.32</speed>
  <fix>3d</fix>
</trkpt>
<trkpt lat="-35.2850553" lon="148.9860433">
  <ele>704.35</ele>
  <time>2026-09-01T20:00:14Z</time>
  <course>199.65</course>
  <speed>0.2863564212655271</speed>
  <fix>3d</fix>
</trkpt>
<trkpt lat="-35.2850548" lon="148.9860438">
  <ele>703.58</ele>
  <time>2026-09-01T20:00:14Z</time>
  <course>198.58</course>
  <speed>0.32</speed>
  <fix>3d</fix>
</trkpt>
<trkpt lat="-35.2850556" lon="148.9860432">
  <ele>704.61</ele>
  <time>2026-09-01T20:00:14Z</time>
  <course>199.65</course>
  <speed>0.2863564212655271</speed>
  <fix>3d</fix>
</trkpt>
<trkpt lat="-35.2850554" lon="148.9860435">
  <ele>704.1</ele>
  <time>2026-09-01T20:00:14Z</time>
  <course>199.04</course>
  <speed>0.32</speed>
  <fix>3d</fix>
</trkpt>
<trkpt lat="-35.2850559" lon="148.9860431">
  <ele>704.86</ele>
  <time>2026-09-01T20:00:14Z</time>
  <course>199.65</course>
  <speed>0.27313000567495327</speed>
  <fix>3d</fix>
</trkpt>
<trkpt lat="-35.2850554" lon="148.9860435">
  <ele>704.1</ele>
  <time>2026-09-01T20:00:14Z</time>
  <course>199.04</course>
  <speed>0.32</speed>
  <fix>3d</fix>
</trkpt>
<trkpt lat="-35.2850561" lon="148.986043">
  <ele>705.11</ele>
  <time>2026-09-01T20:00:14Z</time>
  <course>199.65</course>
  <speed>0.25495097567963926</speed>
  <fix>3d</fix>
</trkpt>
<trkpt lat="-35.2850559" lon="148.9860434">
  <ele>704.61</ele>
  <time>2026-09-01T20:00:14Z</time>
  <course>199.48</course>
  <speed>0.31</speed>
  <fix>3d</fix>
</trkpt>
<trkpt lat="-35.2850563" lon="148.9860429">
  <ele>705.36</ele>
  <time>2026-09-01T20:00:14Z</time>
  <course>199.65</course>
  <speed>0.24166091947189144</speed>
  <fix>3d</fix>
</trkpt>
<trkpt lat="-35.2850559" lon="148.9860434">
  <ele>704.61</ele>
  <time>2026-09-01T20:00:14Z</time>
  <course>199.48</course>
  <speed>0.31</speed>
  <fix>3d</fix>
</trkpt>
<trkpt lat="-35.2850566" lon="148.9860428">
  <ele>705.6</ele>
  <time>2026-09-01T20:00:14Z</time>
  <course>199.65</course>
  <speed>0.223606797749979</speed>
  <fix>3d</fix>
</trkpt>
<trkpt lat="-35.2850564" lon="148.9860431">
  <ele>705.11</ele>
  <time>2026-09-01T20:00:14Z</time>
  <course>199.95</course>
  <speed>0.28</speed>
  <fix>3d</fix>
</trkpt>
<trkpt lat="-35.2850568" lon="148.9860427">
  <ele>705.84</ele>
  <time>2026-09-01T20:00:14Z</time>
  <course>199.66</course>
  <speed>0.20124611797498107</speed>
  <fix>3d</fix>
</trkpt>
<trkpt lat="-35.2850564" lon="148.9860431">
  <ele>705.11</ele>
  <time>2026-09-01T20:00:14Z</time>
  <course>199.95</course>
  <speed>0.28</speed>
  <fix>3d</fix>
</trkpt>
<trkpt lat="-35.2850569" lon="148.9860426">
  <ele>706.08</ele>
  <time>2026-09-01T20:00:14Z</time>
  <course>199.67</course>
  <speed>0.1835755975068582</speed>
  <fix>3d</fix>
</trkpt>
<trkpt lat="-35.2850569" lon="148.9860429">
  <ele>705.6</ele>
  <time>2026-09-01T20:00:14Z</time>
  <course>200.52</course>
  <speed>0.25</speed>
  <fix>3d</fix>
</trkpt>
<trkpt lat="-35.2850571" lon="148.9860425">
  <ele>706.32</ele>
  <time>2026-09-01T20:00:14Z</time>
  <course>199.68</course>
  <speed>0.16124515496597097</speed>
  <fix>3d</fix>
</trkpt>
<trkpt lat="-35.2850569" lon="148.9860429">
  <ele>705.6</ele>
  <time>2026-09-01T20:00:14Z</time>
  <course>200.52</course>
  <speed>0.25</speed>
  <fix>3d</fix>
</trkpt>
<trkpt lat="-35.2850573" lon="148.9860424">
  <ele>706.55</ele>
  <time>2026-09-01T20:00:14Z</time>
  <course>199.69</course>
  <speed>0.13892443989449804</speed>
  <fix>3d</fix>
</trkpt>
<trkpt lat="-35.2850573" lon="148.9860427">
  <ele>706.07</ele>
  <time>2026-09-01T20:00:14Z</time>
  <course>201.37</course>
  <speed>0.21</speed>
  <fix>3d</fix>
</trkpt>
<trkpt lat="-35.2850574" lon="148.9860424">
  <ele>706.79</ele>
  <time>2026-09-01T20:00:14Z</time>
  <course>199.7</course>
  <speed>0.12206555615733702</speed>
  <fix>3d</fix>
</trkpt>
<trkpt lat="-35.2850573" lon="148.9860427">
  <ele>706.07</ele>
  <time>2026-09-01T20:00:14Z</time>
  <course>201.37</course>
  <speed>0.21</speed>
  <fix>3d</fix>
</trkpt>
<trkpt lat="-35.2850575" lon="148.9860423">
  <ele>707.02</ele>
  <time>2026-09-01T20:00:14Z</time>
  <course>199.71</course>
  <speed>0.1</speed>
  <fix>3d</fix>
</trkpt>
<trkpt lat="-35.2850576" lon="148.9860426">
  <ele>706.54</ele>
  <time>2026-09-01T20:00:14Z</time>
  <course>202.66</course>
  <speed>0.17</speed>
  <fix>3d</fix>
</trkpt>
<trkpt lat="-35.2850576" lon="148.9860423">
  <ele>707.26</ele>
  <time>2026-09-01T20:00:14Z</time>
  <course>199.73</course>
  <speed>0.07810249675906654</speed>
  <fix>3d</fix>
</trkpt>
<trkpt lat="-35.2850576" lon="148.9860426">
  <ele>706.54</ele>
  <time>2026-09-01T20:00:14Z</time>
  <course>202.66</course>
  <speed>0.17</speed>
  <fix>3d</fix>
</trkpt>
<trkpt lat="-35.2850577" lon="148.9860422">
  <ele>707.5</ele>
  <time>2026-09-01T20:00:14Z</time>
  <course>199.74</course>
  <speed>0.06403124237432849</speed>
  <fix>3d</fix>
</trkpt>
<trkpt lat="-35.2850579" lon="148.9860424">
  <ele>707.02</ele>
  <time>2026-09-01T20:00:14Z</time>
  <course>204.66</course>
  <speed>0.12</speed>
  <fix>3d</fix>
</trkpt>
<trkpt lat="-35.2850577" lon="148.9860422">
  <ele>707.74</ele>
  <time>2026-09-01T20:00:14Z</time>
  <course>199.75</course>
  <speed>0.044721359549995794</speed>
  <fix>3d</fix>
</trkpt>
<trkpt lat="-35.2850579" lon="148.9860424">
  <ele>707.02</ele>
  <time>2026-09-01T20:00:14Z</time>
  <course>204.66</course>
  <speed>0.12</speed>
  <fix>3d</fix>
</trkpt>
<trkpt lat="-35.2850578" lon="148.9860422">
  <ele>707.98</ele>
  <time>2026-09-01T20:00:14Z</time>
  <course>199.77</course>
  <speed>0.03</speed>
  <fix>3d</fix>
</trkpt>
<trkpt lat="-35.285058" lon="148.9860423">
  <ele>707.49</ele>
  <time>2026-09-01T20:00:14Z</time>
  <course>208.3</course>
  <speed>0.08</speed>
  <fix>3d</fix>
</trkpt>
<trkpt lat="-35.2850578" lon="148.9860421">
  <ele>708.22</ele>
  <time>2026-09-01T20:00:14Z</time>
  <course>199.78</course>
  <speed>0.0316227766016838</speed>
  <fix>3d</fix>
</trkpt>
<trkpt lat="-35.285058" lon="148.9860423">
  <ele>707.49</ele>
  <time>2026-09-01T20:00:14Z</time>
  <course>208.3</course>
  <speed>0.08</speed>
  <fix>3d</fix>
</trkpt>
<trkpt lat="-35.2850578" lon="148.9860421">
  <ele>708.47</ele>
  <time>2026-09-01T20:00:14Z</time>
  <course>199.8</course>
  <speed>0.0282842712474619</speed>
  <fix>3d</fix>
</trkpt>
<trkpt lat="-35.2850581" lon="148.9860422">
  <ele>707.97</ele>
  <time>2026-09-01T20:00:14Z</time>
  <course>217.02</course>
  <speed>0.04</speed>
  <fix>3d</fix>
</trkpt>
<trkpt lat="-35.2850578" lon="148.9860421">
  <ele>708.71</ele>
  <time>2026-09-01T20:00:14Z</time>
  <course>199.81</course>
  <speed>0.044721359549995794</speed>
  <fix>3d</fix>
</trkpt>
<trkpt lat="-35.2850581" lon="148.9860422">
  <ele>707.97</ele>
  <time>2026-09-01T20:00:14Z</time>
  <course>217.02</course>
  <speed>0.04</speed>
  <fix>3d</fix>
</trkpt>
<trkpt lat="-35.2850579" lon="148.9860421">
  <ele>708.96</ele>
  <time>2026-09-01T20:00:14Z</time>
  <course>199.82</course>
  <speed>0.05099019513592785</speed>
  <fix>3d</fix>
</trkpt>
<trkpt lat="-35.2850582" lon="148.9860422">
  <ele>708.46</ele>
  <time>2026-09-01T20:00:14Z</time>
  <course>257.84</course>
  <speed>0.01</speed>
  <fix>3d</fix>
</trkpt>
<trkpt lat="-35.2850579" lon="148.9860421">
  <ele>709.21</ele>
  <time>2026-09-01T20:00:14Z</time>
  <course>199.83</course>
  <speed>0.06082762530298219</speed>
  <fix>3d</fix>
</trkpt>
<trkpt lat="-35.2850582" lon="148.9860422">
  <ele>708.46</ele>
  <time>2026-09-01T20:00:14Z</time>
  <course>257.84</course>
  <speed>0.01</speed>
  <fix>3d</fix>
</trkpt>
<trkpt lat="-35.2850579" lon="148.9860421">
  <ele>709.47</ele>
  <time>2026-09-01T20:00:14Z</time>
  <course>199.84</course>
  <speed>0.07</speed>
  <fix>3d</fix>
</trkpt>
<trkpt lat="-35.2850582" lon="148.9860421">
  <ele>708.95</ele>
  <time>2026-09-01T20:00:14Z</time>
  <course>347.25</course>
  <speed>0.02</speed>
  <fix>3d</fix>
</trkpt>
<trkpt lat="-35.2850578" lon="148.9860421">
  <ele>709.72</ele>
  <time>2026-09-01T20:00:14Z</time>
  <course>199.86</course>
  <speed>0.08</speed>
  <fix>3d</fix>
</trkpt>
<trkpt lat="-35.2850582" lon="148.9860421">
  <ele>708.95</ele>
  <time>2026-09-01T20:00:14Z</time>
  <course>347.25</course>
  <speed>0.02</speed>
  <fix>3d</fix>
</trkpt>
<trkpt lat="-35.2850578" lon="148.9860421">
  <ele>709.97</ele>
  <time>2026-09-01T20:00:14Z</time>
  <course>199.86</course>
  <speed>0.09</speed>
  <fix>3d</fix>
</trkpt>
<trkpt lat="-35.2850581" lon="148.9860421">
  <ele>709.45</ele>
  <time>2026-09-01T20:00:14Z</time>
  <course>4.3</course>
  <speed>0.04</speed>
  <fix>3d</fix>
</trkpt>
<trkpt lat="-35.2850577" lon="148.9860421">
  <ele>710.22</ele>
  <time>2026-09-01T20:00:14Z</time>
  <course>199.87</course>
  <speed>0.1</speed>
  <fix>3d</fix>
</trkpt>
<trkpt lat="-35.2850581" lon="148.9860421">
  <ele>709.45</ele>
  <time>2026-09-01T20:00:14Z</time>
  <course>4.3</course>
  <speed>0.04</speed>
  <fix>3d</fix>
</trkpt>
<trkpt lat="-35.2850576" lon="148.9860421">
  <ele>710.48</ele>
  <time>2026-09-01T20:00:14Z</time>
  <course>199.89</course>
  <speed>0.11</speed>
  <fix>3d</fix>
</trkpt>
<trkpt lat="-35.285058" lon="148.9860422">
  <ele>709.94</ele>
  <time>2026-09-01T20:00:14Z</time>
  <course>9.76</course>
  <speed>0.07</speed>
  <fix>3d</fix>
</trkpt>
<trkpt lat="-35.2850576" lon="148.9860421">
  <ele>710.73</ele>
  <time>2026-09-01T20:00:14Z</time>
  <course>199.89</course>
  <speed>0.12</speed>
  <fix>3d</fix>
</trkpt>
<trkpt lat="-35.285058" lon="148.9860422">
  <ele>709.94</ele>
  <time>2026-09-01T20:00:14Z</time>
  <course>9.76</course>
  <speed>0.07</speed>
  <fix>3d</fix>
</trkpt>
<trkpt lat="-35.2850575" lon="148.9860421">
  <ele>710.98</ele>
  <time>2026-09-01T20:00:14Z</time>
  <course>199.89</course>
  <speed>0.12041594578792296</speed>
  <fix>3d</fix>
</trkpt>
<trkpt lat="-35.2850579" lon="148.9860422">
  <ele>710.44</ele>
  <time>2026-09-01T20:00:14Z</time>
  <course>12.52</course>
  <speed>0.08</speed>
  <fix>3d</fix>
</trkpt>
<trkpt lat="-35.2850574" lon="148.9860421">
  <ele>711.23</ele>
  <time>2026-09-01T20:00:14Z</time>
  <course>199.88</course>
  <speed>0.130384048104053</speed>
  <fix>3d</fix>
</trkpt>
<trkpt lat="-35.2850579" lon="148.9860422">
  <ele>710.44</ele>
  <time>2026-09-01T20:00:14Z</time>
  <course>12.52</course>
  <speed>0.08</speed>
  <fix>3d</fix>
</trkpt>
<trkpt lat="-35.2850573" lon="148.9860421">
  <ele>711.48</ele>
  <time>2026-09-01T20:00:14Z</time>
  <course>199.87</course>
  <speed>0.130384048104053</speed>
  <fix>3d</fix>
</trkpt>
<trkpt lat="-35.2850578" lon="148.9860422">
  <ele>710.94</ele>
  <time>2026-09-01T20:00:14Z</time>
  <course>14.12</course>
  <speed>0.1</speed>
  <fix>3d</fix>
</trkpt>
<trkpt lat="-35.2850572" lon="148.9860421">
  <ele>711.73</ele>
  <time>2026-09-01T20:00:14Z</time>
  <course>199.86</course>
  <speed>0.140356688476182</speed>
  <fix>3d</fix>
</trkpt>
<trkpt lat="-35.2850578" lon="148.9860422">
  <ele>710.94</ele>
  <time>2026-09-01T20:00:14Z</time>
  <course>14.12</course>
  <speed>0.1</speed>
  <fix>3d</fix>
</trkpt>
<trkpt lat="-35.2850571" lon="148.9860422">
  <ele>711.98</ele>
  <time>2026-09-01T20:00:14Z</time>
  <course>199.86</course>
  <speed>0.1414213562373095</speed>
  <fix>3d</fix>
</trkpt>
<trkpt lat="-35.2850576" lon="148.9860422">
  <ele>711.44</ele>
  <time>2026-09-01T20:00:14Z</time>
  <course>15.27</course>
  <speed>0.11</speed>
  <fix>3d</fix>
</trkpt>
<trkpt lat="-35.285057" lon="148.9860422">
  <ele>712.23</ele>
  <time>2026-09-01T20:00:14Z</time>
  <course>199.87</course>
  <speed>0.15132745950421556</speed>
  <fix>3d</fix>
</trkpt>
<trkpt lat="-35.2850576" lon="148.9860422">
  <ele>711.44</ele>
  <time>2026-09-01T20:00:14Z</time>
  <course>15.27</course>
  <speed>0.11</speed>
  <fix>3d</fix>
</trkpt>
<trkpt lat="-35.2850569" lon="148.9860422">
  <ele>712.47</ele>
  <time>2026-09-01T20:00:14Z</time>
  <course>199.88</course>
  <speed>0.15132745950421556</speed>
  <fix>3d</fix>
</trkpt>
<trkpt lat="-35.2850573" lon="148.9860423">
  <ele>711.94</ele>
  <time>2026-09-01T20:00:14Z</time>
  <course>16.26</course>
  <speed>0.13</speed>
  <fix>3d</fix>
</trkpt>
<trkpt lat="-35.2850568" lon="148.9860423">
  <ele>712.73</ele>
  <time>2026-09-01T20:00:14Z</time>
  <course>199.89</course>
  <speed>0.15132745950421556</speed>
  <fix>3d</fix>
</trkpt>
<trkpt lat="-35.2850573" lon="148.9860423">
  <ele>711.94</ele>
  <time>2026-09-01T20:00:14Z</time>
  <course>16.26</course>
  <speed>0.13</speed>
  <fix>3d</fix>
</trkpt>
<trkpt lat="-35.2850567" lon="148.9860423">
  <ele>712.97</ele>
  <time>2026-09-01T20:00:14Z</time>
  <course>199.88</course>
  <speed>0.16124515496597097</speed>
  <fix>3d</fix>
</trkpt>
<trkpt lat="-35.2850571" lon="148.9860424">
  <ele>712.44</ele>
  <time>2026-09-01T20:00:14Z</time>
  <course>16.95</course>
  <speed>0.13</speed>
  <fix>3d</fix>
</trkpt>
<trkpt lat="-35.2850565" lon="148.9860424">
  <ele>713.22</ele>
  <time>2026-09-01T20:00:14Z</time>
  <course>199.87</course>
  <speed>0.16124515496597097</speed>
  <fix>3d</fix>
</trkpt>
<trkpt lat="-35.2850571" lon="148.9860424">
  <ele>712.44</ele>
  <time>2026-09-01T20:00:14Z</time>
  <course>16.95</course>
  <speed>0.13</speed>
  <fix>3d</fix>
</trkpt>
<trkpt lat="-35.2850564" lon="148.9860424">
  <ele>713.47</ele>
  <time>2026-09-01T20:00:14Z</time>
  <course>199.85</course>
  <speed>0.17029386365926402</speed>
  <fix>3d</fix>
</trkpt>
<trkpt lat="-35.2850569" lon="148.9860425">
  <ele>712.94</ele>
  <time>2026-09-01T20:00:14Z</time>
  <course>17.48</course>
  <speed>0.14</speed>
  <fix>3d</fix>
</trkpt>
<trkpt lat="-35.2850563" lon="148.9860424">
  <ele>713.72</ele>
  <time>2026-09-01T20:00:14Z</time>
  <course>199.83</course>
  <speed>0.18</speed>
  <fix>3d</fix>
</trkpt>
<trkpt lat="-35.2850569" lon="148.9860425">
  <ele>712.94</ele>
  <time>2026-09-01T20:00:14Z</time>
  <course>17.48</course>
  <speed>0.14</speed>
  <fix>3d</fix>
</trkpt>
<trkpt lat="-35.2850561" lon="148.9860424">
  <ele>713.97</ele>
  <time>2026-09-01T20:00:14Z</time>
  <course>199.82</course>
  <speed>0.18</speed>
  <fix>3d</fix>
</trkpt>
<trkpt lat="-35.2850566" lon="148.9860426">
  <ele>713.44</ele>
  <time>2026-09-01T20:00:14Z</time>
  <course>18.13</course>
  <speed>0.15</speed>
  <fix>3d</fix>
</trkpt>
<trkpt lat="-35.285056" lon="148.9860425">
  <ele>714.22</ele>
  <time>2026-09-01T20:00:14Z</time>
  <course>199.82</course>
  <speed>0.17029386365926402</speed>
  <fix>3d</fix>
</trkpt>
<trkpt lat="-35.2850566" lon="148.9860426">
  <ele>713.44</ele>
  <time>2026-09-01T20:00:14Z</time>
  <course>18.13</course>
  <speed>0.15</speed>
  <fix>3d</fix>
</trkpt>
<trkpt lat="-35.2850559" lon="148.9860425">
  <ele>714.47</ele>
  <time>2026-09-01T20:00:14Z</time>
  <course>199.79</course>
  <speed>0.18</speed>
  <fix>3d</fix>
</trkpt>
<trkpt lat="-35.2850563" lon="148.9860427">
  <ele>713.93</ele>
  <time>2026-09-01T20:00:14Z</time>
  <course>19.21</course>
  <speed>0.15</speed>
  <fix>3d</fix>
</trkpt>
<trkpt lat="-35.2850557" lon="148.9860425">
  <ele>714.73</ele>
  <time>2026-09-01T20:00:14Z</time>
  <course>199.7</course>
  <speed>0.18</speed>
  <fix>3d</fix>
</trkpt>
<trkpt lat="-35.2850563" lon="148.9860427">
  <ele>713.93</ele>
  <time>2026-09-01T20:00:14Z</time>
  <course>19.21</course>
  <speed>0.15</speed>
  <fix>3d</fix>
</trkpt>
<trkpt lat="-35.2850556" lon="148.9860426">
  <ele>714.98</ele>
  <time>2026-09-01T20:00:14Z</time>
  <course>199.61</course>
  <speed>0.18</speed>
  <fix>3d</fix>
</trkpt>
<trkpt lat="-35.285056" lon="148.9860428">
  <ele>714.43</ele>
  <time>2026-09-01T20:00:14Z</time>
  <course>19.8</course>
  <speed>0.16</speed>
  <fix>3d</fix>
</trkpt>
<trkpt lat="-35.2850554" lon="148.9860426">
  <ele>715.23</ele>
  <time>2026-09-01T20:00:14Z</time>
  <course>199.56</course>
  <speed>0.17029386365926402</speed>
  <fix>3d</fix>
</trkpt>
<trkpt lat="-35.285056" lon="148.9860428">
  <ele>714.43</ele>
  <time>2026-09-01T20:00:14Z</time>
  <course>19.8</course>
  <speed>0.16</speed>
  <fix>3d</fix>
</trkpt>
<trkpt lat="-35.2850553" lon="148.9860427">
  <ele>715.48</ele>
  <time>2026-09-01T20:00:14Z</time>
  <course>199.51</course>
  <speed>0.17262676501632068</speed>
  <fix>3d</fix>
</trkpt>
<trkpt lat="-35.2850557" lon="148.9860429">
  <ele>714.93</ele>
  <time>2026-09-01T20:00:14Z</time>
  <course>19.66</course>
  <speed>0.16</speed>
  <fix>3d</fix>
</trkpt>
<trkpt lat="-35.2850552" lon="148.9860427">
  <ele>715.73</ele>
  <time>2026-09-01T20:00:14Z</time>
  <course>199.47</course>
  <speed>0.17262676501632068</speed>
  <fix>3d</fix>
</trkpt>
<trkpt lat="-35.2850557" lon="148.9860429">
  <ele>714.93</ele>
  <time>2026-09-01T20:00:14Z</time>
  <course>19.66</course>
  <speed>0.16</speed>
  <fix>3d</fix>
</trkpt>
<trkpt lat="-35.285055" lon="148.9860428">
  <ele>715.98</ele>
  <time>2026-09-01T20:00:14Z</time>
  <course>199.44</course>
  <speed>0.17</speed>
  <fix>3d</fix>
</trkpt>
<trkpt lat="-35.2850555" lon="148.9860431">
  <ele>715.43</ele>
  <time>2026-09-01T20:00:14Z</time>
  <course>19.59</course>
  <speed>0.15</speed>
  <fix>3d</fix>
</trkpt>
<trkpt lat="-35.2850549" lon="148.9860429">
  <ele>716.23</ele>
  <time>2026-09-01T20:00:14Z</time>
  <course>199.45</course>
  <speed>0.16278820596099705</speed>
  <fix>3d</fix>
</trkpt>
<trkpt lat="-35.2850555" lon="148.9860431">
  <ele>715.43</ele>
  <time>2026-09-01T20:00:14Z</time>
  <course>19.59</course>
  <speed>0.15</speed>
  <fix>3d</fix>
</trkpt>
<trkpt lat="-35.2850548" lon="148.986043">
  <ele>716.49</ele>
  <time>2026-09-01T20:00:14Z</time>
  <course>199.47</course>
  <speed>0.15524174696260024</speed>
  <fix>3d</fix>
</trkpt>
<trkpt lat="-35.2850552" lon="148.9860432">
  <ele>715.92</ele>
  <time>2026-09-01T20:00:14Z</time>
  <course>19.35</course>
  <speed>0.15</speed>
  <fix>3d</fix>
</trkpt>
<trkpt lat="-35.2850547" lon="148.986043">
  <ele>716.74</ele>
  <time>2026-09-01T20:00:14Z</time>
  <course>199.47</course>
  <speed>0.15524174696260024</speed>
  <fix>3d</fix>
</trkpt>
<trkpt lat="-35.2850552" lon="148.9860432">
  <ele>715.92</ele>
  <time>2026-09-01T20:00:14Z</time>
  <course>19.35</course>
  <speed>0.15</speed>
  <fix>3d</fix>
</trkpt>
<trkpt lat="-35.2850546" lon="148.9860431">
  <ele>716.99</ele>
  <time>2026-09-01T20:00:14Z</time>
  <course>199.49</course>
  <speed>0.14866068747318506</speed>
  <fix>3d</fix>
</trkpt>
<trkpt lat="-35.285055" lon="148.9860433">
  <ele>716.42</ele>
  <time>2026-09-01T20:00:14Z</time>
  <course>18.73</course>
  <speed>0.15</speed>
  <fix>3d</fix>
</trkpt>
<trkpt lat="-35.2850544" lon="148.9860432">
  <ele>717.24</ele>
  <time>2026-09-01T20:00:14Z</time>
  <course>199.52</course>
  <speed>0.14866068747318506</speed>
  <fix>3d</fix>
</trkpt>
<trkpt lat="-35.285055" lon="148.9860433">
  <ele>716.42</ele>
  <time>2026-09-01T20:00:14Z</time>
  <course>18.73</course>
  <speed>0.15</speed>
  <fix>3d</fix>
</trkpt>
<trkpt lat="-35.2850543" lon="148.9860433">
  <ele>717.48</ele>
  <time>2026-09-01T20:00:14Z</time>
  <course>199.57</course>
  <speed>0.147648230602334</speed>
  <fix>3d</fix>
</trkpt>
<trkpt lat="-35.2850547" lon="148.9860434">
  <ele>716.92</ele>
  <time>2026-09-01T20:00:14Z</time>
  <course>17.55</course>
  <speed>0.14</speed>
  <fix>3d</fix>
</trkpt>
<trkpt lat="-35.2850542" lon="148.9860434">
  <ele>717.73</ele>
  <time>2026-09-01T20:00:14Z</time>
  <course>199.62</course>
  <speed>0.147648230602334</speed>
  <fix>3d</fix>
</trkpt>
<trkpt lat="-35.2850547" lon="148.9860434">
  <ele>716.92</ele>
  <time>2026-09-01T20:00:14Z</time>
  <course>17.55</course>
  <speed>0.14</speed>
  <fix>3d</fix>
</trkpt>
<trkpt lat="-35.2850541" lon="148.9860435">
  <ele>717.98</ele>
  <time>2026-09-01T20:00:14Z</time>
  <course>199.69</course>
  <speed>0.147648230602334</speed>
  <fix>3d</fix>
</trkpt>
<trkpt lat="-35.2850545" lon="148.9860435">
  <ele>717.42</ele>
  <time>2026-09-01T20:00:14Z</time>
  <course>15.75</course>
  <speed>0.13</speed>
  <fix>3d</fix>
</trkpt>
<trkpt lat="-35.285054" lon="148.9860436">
  <ele>718.23</ele>
  <time>2026-09-01T20:00:14Z</time>
  <course>199.78</course>
  <speed>0.1341640786499874</speed>
  <fix>3d</fix>
</trkpt>
<trkpt lat="-35.2850545" lon="148.9860435">
  <ele>717.42</ele>
  <time>2026-09-01T20:00:14Z</time>
  <course>15.75</course>
  <speed>0.13</speed>
  <fix>3d</fix>
</trkpt>
<trkpt lat="-35.2850539" lon="148.9860436">
  <ele>718.48</ele>
  <time>2026-09-01T20:00:14Z</time>
  <course>199.87</course>
  <speed>0.1341640786499874</speed>
  <fix>3d</fix>
</trkpt>
<trkpt lat="-35.2850543" lon="148.9860435">
  <ele>717.92</ele>
  <time>2026-09-01T20:00:14Z</time>
  <course>14.04</course>
  <speed>0.13</speed>
  <fix>3d</fix>
</trkpt>
<trkpt lat="-35.2850538" lon="148.9860437">
  <ele>718.73</ele>
  <time>2026-09-01T20:00:14Z</time>
  <course>199.95</course>
  <speed>0.13</speed>
  <fix>3d</fix>
</trkpt>
<trkpt lat="-35.2850543" lon="148.9860435">
  <ele>717.92</ele>
  <time>2026-09-01T20:00:14Z</time>
  <course>14.04</course>
  <speed>0.13</speed>
  <fix>3d</fix>
</trkpt>
<trkpt lat="-35.2850538" lon="148.9860437">
  <ele>718.98</ele>
  <time>2026-09-01T20:00:14Z</time>
  <course>200.02</course>
  <speed>0.12083045973594572</speed>
  <fix>3d</fix>
</trkpt>
<trkpt lat="-35.285054" lon="148.9860436">
  <ele>718.42</ele>
  <time>2026-09-01T20:00:14Z</time>
  <course>12.64</course>
  <speed>0.12</speed>
  <fix>3d</fix>
</trkpt>
<trkpt lat="-35.2850537" lon="148.9860438">
  <ele>719.23</ele>
  <time>2026-09-01T20:00:14Z</time>
  <course>200.07</course>
  <speed>0.12083045973594572</speed>
  <fix>3d</fix>
</trkpt>
<trkpt lat="-35.285054" lon="148.9860436">
  <ele>718.42</ele>
  <time>2026-09-01T20:00:14Z</time>
  <course>12.64</course>
  <speed>0.12</speed>
  <fix>3d</fix>
</trkpt>
<trkpt lat="-35.2850536" lon="148.9860438">
  <ele>719.47</ele>
  <time>2026-09-01T20:00:14Z</time>
  <course>200.1</course>
  <speed>0.11704699910719625</speed>
  <fix>3d</fix>
</trkpt>
<trkpt lat="-35.2850538" lon="148.9860436">
  <ele>718.91</ele>
  <time>2026-09-01T20:00:14Z</time>
  <course>11.27</course>
  <speed>0.11</speed>
  <fix>3d</fix>
</trkpt>
<trkpt lat="-35.2850535" lon="148.9860438">
  <ele>719.72</ele>
  <time>2026-09-01T20:00:14Z</time>
  <course>200.12</course>
  <speed>0.10770329614269007</speed>
  <fix>3d</fix>
</trkpt>
<trkpt lat="-35.2850538" lon="148.9860436">
  <ele>718.91</ele>
  <time>2026-09-01T20:00:14Z</time>
  <course>11.27</course>
  <speed>0.11</speed>
  <fix>3d</fix>
</trkpt>
<trkpt lat="-35.2850534" lon="148.9860439">
  <ele>719.97</ele>
  <time>2026-09-01T20:00:14Z</time>
  <course>200.12</course>
  <speed>0.1044030650891055</speed>
  <fix>3d</fix>
</trkpt>
<trkpt lat="-35.2850536" lon="148.9860437">
  <ele>719.41</ele>
  <time>2026-09-01T20:00:14Z</time>
  <course>10.21</course>
  <speed>0.1</speed>
  <fix>3d</fix>
</trkpt>
<trkpt lat="-35.2850533" lon="148.9860439">
  <ele>720.22</ele>
  <time>2026-09-01T20:00:14Z</time>
  <course>200.1</course>
  <speed>0.1044030650891055</speed>
  <fix>3d</fix>
</trkpt>
<trkpt lat="-35.2850536" lon="148.9860437">
  <ele>719.41</ele>
  <time>2026-09-01T20:00:14Z</time>
  <course>10.21</course>
  <speed>0.1</speed>
  <fix>3d</fix>
</trkpt>
<trkpt lat="-35.2850532" lon="148.9860439">
  <ele>720.47</ele>
  <time>2026-09-01T20:00:14Z</time>
  <course>200.07</course>
  <speed>0.09486832980505139</speed>
  <fix>3d</fix>
</trkpt>
<trkpt lat="-35.2850534" lon="148.9860438">
  <ele>719.91</ele>
  <time>2026-09-01T20:00:14Z</time>
  <course>9.02</course>
  <speed>0.09</speed>
  <fix>3d</fix>
</trkpt>
<trkpt lat="-35.2850531" lon="148.9860439">
  <ele>720.72</ele>
  <time>2026-09-01T20:00:14Z</time>
  <course>200.05</course>
  <speed>0.09219544457292887</speed>
  <fix>3d</fix>
</trkpt>
<trkpt lat="-35.2850534" lon="148.9860438">
  <ele>719.91</ele>
  <time>2026-09-01T20:00:14Z</time>
  <course>9.02</course>
  <speed>0.09</speed>
  <fix>3d</fix>
</trkpt>
<trkpt lat="-35.2850531" lon="148.9860439">
  <ele>720.98</ele>
  <time>2026-09-01T20:00:14Z</time>
  <course>200.05</course>
  <speed>0.09219544457292887</speed>
  <fix>3d</fix>
</trkpt>
<trkpt lat="-35.2850533" lon="148.9860438">
  <ele>720.41</ele>
  <time>2026-09-01T20:00:14Z</time>
  <course>7.64</course>
  <speed>0.09</speed>
  <fix>3d</fix>
</trkpt>
<trkpt lat="-35.285053" lon="148.9860439">
  <ele>721.23</ele>
  <time>2026-09-01T20:00:14Z</time>
  <course>200.03</course>
  <speed>0.09219544457292887</speed>
  <fix>3d</fix>
</trkpt>
<trkpt lat="-35.2850533" lon="148.9860438">
  <ele>720.41</ele>
  <time>2026-09-01T20:00:14Z</time>
  <course>7.64</course>
  <speed>0.09</speed>
  <fix>3d</fix>
</trkpt>
<trkpt lat="-35.2850529" lon="148.9860439">
  <ele>721.48</ele>
  <time>2026-09-01T20:00:14Z</time>
  <course>200.01</course>
  <speed>0.08062257748298549</speed>
  <fix>3d</fix>
</trkpt>
<trkpt lat="-35.2850531" lon="148.9860438">
  <ele>720.91</ele>
  <time>2026-09-01T20:00:14Z</time>
  <course>6.44</course>
  <speed>0.08</speed>
  <fix>3d</fix>
</trkpt>
<trkpt lat="-35.2850529" lon="148.9860439">
  <ele>721.73</ele>
  <time>2026-09-01T20:00:14Z</time>
  <course>199.99</course>
  <speed>0.08062257748298549</speed>
  <fix>3d</fix>
</trkpt>
<trkpt lat="-35.2850531" lon="148.9860438">
  <ele>720.91</ele>
  <time>2026-09-01T20:00:14Z</time>
  <course>6.44</course>
  <speed>0.08</speed>
  <fix>3d</fix>
</trkpt>
<trkpt lat="-35.2850528" lon="148.9860439">
  <ele>721.98</ele>
  <time>2026-09-01T20:00:14Z</time>
  <course>199.97</course>
  <speed>0.08062257748298549</speed>
  <fix>3d</fix>
</trkpt>
<trkpt lat="-35.285053" lon="148.9860439">
  <ele>721.41</ele>
  <time>2026-09-01T20:00:14Z</time>
  <course>5.26</course>
  <speed>0.07</speed>
  <fix>3d</fix>
</trkpt>
<trkpt lat="-35.2850527" lon="148.9860439">
  <ele>722.24</ele>
  <time>2026-09-01T20:00:14Z</time>
  <course>199.95</course>
  <speed>0.07</speed>
  <fix>3d</fix>
</trkpt>
<trkpt lat="-35.285053" lon="148.9860439">
  <ele>721.41</ele>
  <time>2026-09-01T20:00:14Z</time>
  <course>5.26</course>
  <speed>0.07</speed>
  <fix>3d</fix>
</trkpt>
<trkpt lat="-35.2850527" lon="148.9860439">
  <ele>722.49</ele>
  <time>2026-09-01T20:00:14Z</time>
  <course>199.92</course>
  <speed>0.07</speed>
  <fix>3d</fix>
</trkpt>
<trkpt lat="-35.2850528" lon="148.9860439">
  <ele>721.91</ele>
  <time>2026-09-01T20:00:14Z</time>
  <course>3.83</course>
  <speed>0.06</speed>
  <fix>3d</fix>
</trkpt>
<trkpt lat="-35.2850526" lon="148.9860439">
  <ele>722.74</ele>
  <time>2026-09-01T20:00:14Z</time>
  <course>199.9</course>
  <speed>0.07</speed>
  <fix>3d</fix>
</trkpt>
<trkpt lat="-35.2850528" lon="148.9860439">
  <ele>721.91</ele>
  <time>2026-09-01T20:00:14Z</time>
  <course>3.83</course>
  <speed>0.06</speed>
  <fix>3d</fix>
</trkpt>
<trkpt lat="-35.2850526" lon="148.9860439">
  <ele>722.99</ele>
  <time>2026-09-01T20:00:14Z</time>
  <course>199.88</course>
  <speed>0.07</speed>
  <fix>3d</fix>
</trkpt>
<trkpt lat="-35.2850527" lon="148.9860439">
  <ele>722.41</ele>
  <time>2026-09-01T20:00:14Z</time>
  <course>2.2</course>
  <speed>0.05</speed>
  <fix>3d</fix>
</trkpt>
<trkpt lat="-35.2850525" lon="148.9860439">
  <ele>723.24</ele>
  <time>2026-09-01T20:00:14Z</time>
  <course>199.87</course>
  <speed>0.06</speed>
  <fix>3d</fix>
</trkpt>
<trkpt lat="-35.2850527" lon="148.9860439">
  <ele>722.41</ele>
  <time>2026-09-01T20:00:14Z</time>
  <course>2.2</course>
  <speed>0.05</speed>
  <fix>3d</fix>
</trkpt>
<trkpt lat="-35.2850525" lon="148.9860439">
  <ele>723.48</ele>
  <time>2026-09-01T20:00:14Z</time>
  <course>199.87</course>
  <speed>0.06</speed>
  <fix>3d</fix>
</trkpt>
<trkpt lat="-35.2850526" lon="148.9860439">
  <ele>722.91</ele>
  <time>2026-09-01T20:00:14Z</time>
  <course>0.95</course>
  <speed>0.05</speed>
  <fix>3d</fix>
</trkpt>
<trkpt lat="-35.2850524" lon="148.9860439">
  <ele>723.72</ele>
  <time>2026-09-01T20:00:14Z</time>
  <course>199.86</course>
  <speed>0.06</speed>
  <fix>3d</fix>
</trkpt>
<trkpt lat="-35.2850526" lon="148.9860439">
  <ele>722.91</ele>
  <time>2026-09-01T20:00:14Z</time>
  <course>0.95</course>
  <speed>0.05</speed>
  <fix>3d</fix>
</trkpt>
<trkpt lat="-35.2850524" lon="148.9860439">
  <ele>723.95</ele>
  <time>2026-09-01T20:00:14Z</time>
  <course>199.86</course>
  <speed>0.06</speed>
  <fix>3d</fix>
</trkpt>
<trkpt lat="-35.2850525" lon="148.9860439">
  <ele>723.4</ele>
  <time>2026-09-01T20:00:14Z</time>
  <course>0.54</course>
  <speed>0.04</speed>
  <fix>3d</fix>
</trkpt>
<trkpt lat="-35.2850523" lon="148.9860439">
  <ele>724.16</ele>
  <time>2026-09-01T20:00:14Z</time>
  <course>199.85</course>
  <speed>0.06</speed>
  <fix>3d</fix>
</trkpt>
<trkpt lat="-35.2850525" lon="148.9860439">
  <ele>723.4</ele>
  <time>2026-09-01T20:00:14Z</time>
  <course>0.54</course>
  <speed>0.04</speed>
  <fix>3d</fix>
</trkpt>
<trkpt lat="-35.2850523" lon="148.9860439">
  <ele>724.36</ele>
  <time>2026-09-01T20:00:14Z</time>
  <course>199.84</course>
  <speed>0.07</speed>
  <fix>3d</fix>
</trkpt>
<trkpt lat="-35.2850525" lon="148.9860439">
  <ele>723.86</ele>
  <time>2026-09-01T20:00:14Z</time>
  <course>2.54</course>
  <speed>0.04</speed>
  <fix>3d</fix>
</trkpt>
<trkpt lat="-35.2850522" lon="148.9860439">
  <ele>724.55</ele>
  <time>2026-09-01T20:00:14Z</time>
  <course>199.83</course>
  <speed>0.08</speed>
  <fix>3d</fix>
</trkpt>
<trkpt lat="-35.2850525" lon="148.9860439">
  <ele>723.86</ele>
  <time>2026-09-01T20:00:14Z</time>
  <course>2.54</course>
  <speed>0.04</speed>
  <fix>3d</fix>
</trkpt>
<trkpt lat="-35.2850522" lon="148.9860439">
  <ele>724.71</ele>
  <time>2026-09-01T20:00:14Z</time>
  <course>199.84</course>
  <speed>0.08</speed>
  <fix>3d</fix>
</trkpt>
<trkpt lat="-35.2850524" lon="148.9860439">
  <ele>724.27</ele>
  <time>2026-09-01T20:00:14Z</time>
  <course>8.06</course>
  <speed>0.04</speed>
  <fix>3d</fix>
</trkpt>
<trkpt lat="-35.2850521" lon="148.9860439">
  <ele>724.85</ele>
  <time>2026-09-01T20:00:14Z</time>
  <course>199.88</course>
  <speed>0.1004987562112089</speed>
  <fix>3d</fix>
</trkpt>
<trkpt lat="-35.2850524" lon="148.9860439">
  <ele>724.27</ele>
  <time>2026-09-01T20:00:14Z</time>
  <course>8.06</course>
  <speed>0.04</speed>
  <fix>3d</fix>
</trkpt>
<trkpt lat="-35.285052" lon="148.9860439">
  <ele>724.97</ele>
  <time>2026-09-01T20:00:14Z</time>
  <course>199.89</course>
  <speed>0.11045361017187261</speed>
  <fix>3d</fix>
</trkpt>
<trkpt lat="-35.2850523" lon="148.9860439">
  <ele>724.62</ele>
  <time>2026-09-01T20:00:14Z</time>
  <course>15.33</course>
  <speed>0.06</speed>
  <fix>3d</fix>
</trkpt>
<trkpt lat="-35.2850519" lon="148.9860439">
  <ele>725.07</ele>
  <time>2026-09-01T20:00:14Z</time>
  <course>199.86</course>
  <speed>0.130384048104053</speed>
  <fix>3d</fix>
</trkpt>
<trkpt lat="-35.2850523" lon="148.9860439">
  <ele>724.62</ele>
  <time>2026-09-01T20:00:14Z</time>
  <course>15.33</course>
  <speed>0.06</speed>
  <fix>3d</fix>
</trkpt>
<trkpt lat="-35.2850518" lon="148.9860439">
  <ele>725.14</ele>
  <time>2026-09-01T20:00:14Z</time>
  <course>199.81</course>
  <speed>0.15132745950421556</speed>
  <fix>3d</fix>
</trkpt>
<trkpt lat="-35.2850521" lon="148.986044">
  <ele>724.89</ele>
  <time>2026-09-01T20:00:14Z</time>
  <course>18.61</course>
  <speed>0.09</speed>
  <fix>3d</fix>
</trkpt>
<trkpt lat="-35.2850517" lon="148.986044">
  <ele>725.19</ele>
  <time>2026-09-01T20:00:14Z</time>
  <course>199.74</course>
  <speed>0.1824828759089466</speed>
  <fix>3d</fix>
</trkpt>
<trkpt lat="-35.2850521" lon="148.986044">
  <ele>724.89</ele>
  <time>2026-09-01T20:00:14Z</time>
  <course>18.61</course>
  <speed>0.09</speed>
  <fix>3d</fix>
</trkpt>
<trkpt lat="-35.2850515" lon="148.986044">
  <ele>725.22</ele>
  <time>2026-09-01T20:00:14Z</time>
  <course>199.66</course>
  <speed>0.20223748416156684</speed>
  <fix>3d</fix>
</trkpt>
<trkpt lat="-35.285052" lon="148.986044">
  <ele>725.06</ele>
  <time>2026-09-01T20:00:14Z</time>
  <course>18.95</course>
  <speed>0.13</speed>
  <fix>3d</fix>
</trkpt>
<trkpt lat="-35.2850514" lon="148.9860441">
  <ele>725.23</ele>
  <time>2026-09-01T20:00:14Z</time>
  <course>199.57</course>
  <speed>0.223606797749979</speed>
  <fix>3d</fix>
</trkpt>
<trkpt lat="-35.285052" lon="148.986044">
  <ele>725.06</ele>
  <time>2026-09-01T20:00:14Z</time>
  <course>18.95</course>
  <speed>0.13</speed>
  <fix>3d</fix>
</trkpt>
<trkpt lat="-35.2850512" lon="148.9860441">
  <ele>725.23</ele>
  <time>2026-09-01T20:00:14Z</time>
  <course>199.49</course>
  <speed>0.24331050121192876</speed>
  <fix>3d</fix>
</trkpt>
<trkpt lat="-35.2850516" lon="148.9860441">
  <ele>725.15</ele>
  <time>2026-09-01T20:00:14Z</time>
  <course>19.0</course>
  <speed>0.18</speed>
  <fix>3d</fix>
</trkpt>
<trkpt lat="-35.285051" lon="148.9860442">
  <ele>725.21</ele>
  <time>2026-09-01T20:00:14Z</time>
  <course>199.42</course>
  <speed>0.25495097567963926</speed>
  <fix>3d</fix>
</trkpt>
<trkpt lat="-35.2850516" lon="148.9860441">
  <ele>725.15</ele>
  <time>2026-09-01T20:00:14Z</time>
  <course>19.0</course>
  <speed>0.18</speed>
  <fix>3d</fix>
</trkpt>
<trkpt lat="-35.2850508" lon="148.9860443">
  <ele>725.19</ele>
  <time>2026-09-01T20:00:14Z</time>
  <course>199.36</course>
  <speed>0.2745906043549196</speed>
  <fix>3d</fix>
</trkpt>
<trkpt lat="-35.2850513" lon="148.9860443">
  <ele>725.16</ele>
  <time>2026-09-01T20:00:14Z</time>
  <course>18.86</course>
  <speed>0.22</speed>
  <fix>3d</fix>
</trkpt>
<trkpt lat="-35.2850505" lon="148.9860443">
  <ele>725.17</ele>
  <time>2026-09-01T20:00:14Z</time>
  <course>199.31</course>
  <speed>0.28442925306655786</speed>
  <fix>3d</fix>
</trkpt>
<trkpt lat="-35.2850513" lon="148.9860443">
  <ele>725.16</ele>
  <time>2026-09-01T20:00:14Z</time>
  <course>18.86</course>
  <speed>0.22</speed>
  <fix>3d</fix>
</trkpt>
<trkpt lat="-35.2850503" lon="148.9860444">
  <ele>725.14</ele>
  <time>2026-09-01T20:00:14Z</time>
  <course>199.28</course>
  <speed>0.2942787793912432</speed>
  <fix>3d</fix>
</trkpt>
<trkpt lat="-35.2850509" lon="148.9860445">
  <ele>725.14</ele>
  <time>2026-09-01T20:00:14Z</time>
  <course>18.69</course>
  <speed>0.25</speed>
  <fix>3d</fix>
</trkpt>
<trkpt lat="-35.28505" lon="148.9860445">
  <ele>725.12</ele>
  <time>2026-09-01T20:00:14Z</time>
  <course>199.27</course>
  <speed>0.29614185789921693</speed>
  <fix>3d</fix>
</trkpt>
<trkpt lat="-35.2850509" lon="148.9860445">
  <ele>725.14</ele>
  <time>2026-09-01T20:00:14Z</time>
  <course>18.69</course>
  <speed>0.25</speed>
  <fix>3d</fix>
</trkpt>
<trkpt lat="-35.2850498" lon="148.9860446">
  <ele>725.09</ele>
  <time>2026-09-01T20:00:14Z</time>
  <course>199.26</course>
  <speed>0.3059411708155671</speed>
  <fix>3d</fix>
</trkpt>
<trkpt lat="-35.2850504" lon="148.9860446">
  <ele>725.09</ele>
  <time>2026-09-01T20:00:14Z</time>
  <course>18.59</course>
  <speed>0.27</speed>
  <fix>3d</fix>
</trkpt>
<trkpt lat="-35.2850495" lon="148.9860447">
  <ele>725.08</ele>
  <time>2026-09-01T20:00:14Z</time>
  <course>199.27</course>
  <speed>0.3059411708155671</speed>
  <fix>3d</fix>
</trkpt>
<trkpt lat="-35.2850504" lon="148.9860446">
  <ele>725.09</ele>
  <time>2026-09-01T20:00:14Z</time>
  <course>18.59</course>
  <speed>0.27</speed>
  <fix>3d</fix>
</trkpt>
<trkpt lat="-35.2850493" lon="148.9860448">
  <ele>725.06</ele>
  <time>2026-09-01T20:00:14Z</time>
  <course>199.29</course>
  <speed>0.3059411708155671</speed>
  <fix>3d</fix>
</trkpt>
<trkpt lat="-35.28505" lon="148.9860449">
  <ele>725.05</ele>
  <time>2026-09-01T20:00:14Z</time>
  <course>18.67</course>
  <speed>0.28</speed>
  <fix>3d</fix>
</trkpt>
<trkpt lat="-35.285049" lon="148.9860448">
  <ele>725.05</ele>
  <time>2026-09-01T20:00:14Z</time>
  <course>199.32</course>
  <speed>0.2942787793912432</speed>
  <fix>3d</fix>
</trkpt>
<trkpt lat="-35.28505" lon="148.9860449">
  <ele>725.05</ele>
  <time>2026-09-01T20:00:14Z</time>
  <course>18.67</course>
  <speed>0.28</speed>
  <fix>3d</fix>
</trkpt>
<trkpt lat="-35.2850488" lon="148.9860449">
  <ele>725.05</ele>
  <time>2026-09-01T20:00:14Z</time>
  <course>199.36</course>
  <speed>0.2942787793912432</speed>
  <fix>3d</fix>
</trkpt>
<trkpt lat="-35.2850495" lon="148.9860451">
  <ele>725.03</ele>
  <time>2026-09-01T20:00:14Z</time>
  <course>19.08</course>
  <speed>0.28</speed>
  <fix>3d</fix>
</trkpt>
<trkpt lat="-35.2850486" lon="148.986045">
  <ele>725.05</ele>
  <time>2026-09-01T20:00:14Z</time>
  <course>199.39</course>
  <speed>0.28442925306655786</speed>
  <fix>3d</fix>
</trkpt>
<trkpt lat="-35.2850495" lon="148.9860451">
  <ele>725.03</ele>
  <time>2026-09-01T20:00:14Z</time>
  <course>19.08</course>
  <speed>0.28</speed>
  <fix>3d</fix>
</trkpt>
<trkpt lat="-35.2850484" lon="148.9860451">
  <ele>725.06</ele>
  <time>2026-09-01T20:00:14Z</time>
  <course>199.42</course>
  <speed>0.2745906043549196</speed>
  <fix>3d</fix>
</trkpt>
<trkpt lat="-35.285049" lon="148.9860453">
  <ele>725.02</ele>
  <time>2026-09-01T20:00:14Z</time>
  <course>19.83</course>
  <speed>0.27</speed>
  <fix>3d</fix>
</trkpt>
<trkpt lat="-35.2850481" lon="148.9860452">
  <ele>725.07</ele>
  <time>2026-09-01T20:00:14Z</time>
  <course>199.44</course>
  <speed>0.26476404589747454</speed>
  <fix>3d</fix>
</trkpt>
<trkpt lat="-35.285049" lon="148.9860453">
  <ele>725.02</ele>
  <time>2026-09-01T20:00:14Z</time>
  <course>19.83</course>
  <speed>0.27</speed>
  <fix>3d</fix>
</trkpt>
<trkpt lat="-35.2850479" lon="148.9860453">
  <ele>725.08</ele>
  <time>2026-09-01T20:00:14Z</time>
  <course>199.45</course>
  <speed>0.25495097567963926</speed>
  <fix>3d</fix>
</trkpt>
<trkpt lat="-35.2850485" lon="148.9860455">
  <ele>725.03</ele>
  <time>2026-09-01T20:00:14Z</time>
  <course>20.82</course>
  <speed>0.25</speed>
  <fix>3d</fix>
</trkpt>
<trkpt lat="-35.2850477" lon="148.9860454">
  <ele>725.09</ele>
  <time>2026-09-01T20:00:14Z</time>
  <course>199.45</course>
  <speed>0.24331050121192876</speed>
  <fix>3d</fix>
</trkpt>
<trkpt lat="-35.2850485" lon="148.9860455">
  <ele>725.03</ele>
  <time>2026-09-01T20:00:14Z</time>
  <course>20.82</course>
  <speed>0.25</speed>
  <fix>3d</fix>
</trkpt>
<trkpt lat="-35.2850475" lon="148.9860455">
  <ele>725.11</ele>
  <time>2026-09-01T20:00:14Z</time>
  <course>199.44</course>
  <speed>0.23345235059857505</speed>
  <fix>3d</fix>
</trkpt>
<trkpt lat="-35.2850482" lon="148.9860456">
  <ele>725.06</ele>
  <time>2026-09-01T20:00:14Z</time>
  <course>22.06</course>
  <speed>0.23</speed>
  <fix>3d</fix>
</trkpt>
<trkpt lat="-35.2850474" lon="148.9860456">
  <ele>725.13</ele>
  <time>2026-09-01T20:00:14Z</time>
  <course>199.43</course>
  <speed>0.21377558326431947</speed>
  <fix>3d</fix>
</trkpt>
<trkpt lat="-35.2850482" lon="148.9860456">
  <ele>725.06</ele>
  <time>2026-09-01T20:00:14Z</time>
  <course>22.06</course>
  <speed>0.23</speed>
  <fix>3d</fix>
</trkpt>
<trkpt lat="-35.2850472" lon="148.9860456">
  <ele>725.15</ele>
  <time>2026-09-01T20:00:14Z</time>
  <course>199.42</course>
  <speed>0.2039607805437114</speed>
  <fix>3d</fix>
</trkpt>
<trkpt lat="-35.2850478" lon="148.9860459">
  <ele>725.1</ele>
  <time>2026-09-01T20:00:14Z</time>
  <course>23.64</course>
  <speed>0.21</speed>
  <fix>3d</fix>
</trkpt>
<trkpt lat="-35.2850471" lon="148.9860457">
  <ele>725.16</ele>
  <time>2026-09-01T20:00:14Z</time>
  <course>199.42</course>
  <speed>0.1824828759089466</speed>
  <fix>3d</fix>
</trkpt>
<trkpt lat="-35.2850478" lon="148.9860459">
  <ele>725.1</ele>
  <time>2026-09-01T20:00:14Z</time>
  <course>23.64</course>
  <speed>0.21</speed>
  <fix>3d</fix>
</trkpt>
<trkpt lat="-35.2850469" lon="148.9860458">
  <ele>725.18</ele>
  <time>2026-09-01T20:00:14Z</time>
  <course>199.42</course>
  <speed>0.17262676501632068</speed>
  <fix>3d</fix>
</trkpt>
<trkpt lat="-35.2850474" lon="148.9860461">
  <ele>725.14</ele>
  <time>2026-09-01T20:00:14Z</time>
  <course>25.88</course>
  <speed>0.18</speed>
  <fix>3d</fix>
</trkpt>
<trkpt lat="-35.2850468" lon="148.9860459">
  <ele>725.19</ele>
  <time>2026-09-01T20:00:14Z</time>
  <course>199.44</course>
  <speed>0.15297058540778355</speed>
  <fix>3d</fix>
</trkpt>
<trkpt lat="-35.2850474" lon="148.9860461">
  <ele>725.14</ele>
  <time>2026-09-01T20:00:14Z</time>
  <course>25.88</course>
  <speed>0.18</speed>
  <fix>3d</fix>
</trkpt>
<trkpt lat="-35.2850467" lon="148.9860459">
  <ele>725.2</ele>
  <time>2026-09-01T20:00:14Z</time>
  <course>199.46</course>
  <speed>0.13152946437965907</speed>
  <fix>3d</fix>
</trkpt>
<trkpt lat="-35.2850471" lon="148.9860462">
  <ele>725.17</ele>
  <time>2026-09-01T20:00:14Z</time>
  <course>29.27</course>
  <speed>0.15</speed>
  <fix>3d</fix>
</trkpt>
<trkpt lat="-35.2850466" lon="148.986046">
  <ele>725.2</ele>
  <time>2026-09-01T20:00:14Z</time>
  <course>199.48</course>
  <speed>0.1118033988749895</speed>
  <fix>3d</fix>
</trkpt>
<trkpt lat="-35.2850471" lon="148.9860462">
  <ele>725.17</ele>
  <time>2026-09-01T20:00:14Z</time>
  <course>29.27</course>
  <speed>0.15</speed>
  <fix>3d</fix>
</trkpt>
<trkpt lat="-35.2850466" lon="148.9860461">
  <ele>725.21</ele>
  <time>2026-09-01T20:00:14Z</time>
  <course>199.51</course>
  <speed>0.09219544457292887</speed>
  <fix>3d</fix>
</trkpt>
<trkpt lat="-35.285047" lon="148.9860464">
  <ele>725.19</ele>
  <time>2026-09-01T20:00:14Z</time>
  <course>34.76</course>
  <speed>0.12</speed>
  <fix>3d</fix>
</trkpt>
<trkpt lat="-35.2850465" lon="148.9860461">
  <ele>725.21</ele>
  <time>2026-09-01T20:00:14Z</time>
  <course>199.54</course>
  <speed>0.08062257748298549</speed>
  <fix>3d</fix>
</trkpt>
<trkpt lat="-35.285047" lon="148.9860464">
  <ele>725.19</ele>
  <time>2026-09-01T20:00:14Z</time>
  <course>34.76</course>
  <speed>0.12</speed>
  <fix>3d</fix>
</trkpt>
<trkpt lat="-35.2850465" lon="148.9860462">
  <ele>725.21</ele>
  <time>2026-09-01T20:00:14Z</time>
  <course>199.56</course>
  <speed>0.06082762530298219</speed>
  <fix>3d</fix>
</trkpt>
<trkpt lat="-35.2850468" lon="148.9860465">
  <ele>725.2</ele>
  <time>2026-09-01T20:00:14Z</time>
  <course>44.59</course>
  <speed>0.08</speed>
  <fix>3d</fix>
</trkpt>
<trkpt lat="-35.2850465" lon="148.9860462">
  <ele>725.2</ele>
  <time>2026-09-01T20:00:14Z</time>
  <course>199.58</course>
  <speed>0.04</speed>
  <fix>3d</fix>
</trkpt>
<trkpt lat="-35.2850468" lon="148.9860465">
  <ele>725.2</ele>
  <time>2026-09-01T20:00:14Z</time>
  <course>44.59</course>
  <speed>0.08</speed>
  <fix>3d</fix>
</trkpt>
<trkpt lat="-35.2850465" lon="148.9860463">
  <ele>725.2</ele>
  <time>2026-09-01T20:00:14Z</time>
  <course>199.59</course>
  <speed>0.02</speed>
  <fix>3d</fix>
</trkpt>
<trkpt lat="-35.2850467" lon="148.9860466">
  <ele>725.21</ele>
  <time>2026-09-01T20:00:14Z</time>
  <course>65.51</course>
  <speed>0.05</speed>
  <fix>3d</fix>
</trkpt>
<trkpt lat="-35.2850465" lon="148.9860463">
  <ele>725.2</ele>
  <time>2026-09-01T20:00:14Z</time>
  <course>199.6</course>
  <speed>0.0</speed>
  <fix>3d</fix>
</trkpt>
<trkpt lat="-35.2850467" lon="148.9860466">
  <ele>725.21</ele>
  <time>2026-09-01T20:00:14Z</time>
  <course>65.51</course>
  <speed>0.05</speed>
  <fix>3d</fix>
</trkpt>
<trkpt lat="-35.2850465" lon="148.9860464">
  <ele>725.19</ele>
  <time>2026-09-01T20:00:14Z</time>
  <course>199.59</course>
  <speed>0.01</speed>
  <fix>3d</fix>
</trkpt>
<trkpt lat="-35.2850467" lon="148.9860467">
  <ele>725.21</ele>
  <time>2026-09-01T20:00:14Z</time>
  <course>108.38</course>
  <speed>0.04</speed>
  <fix>3d</fix>
</trkpt>
<trkpt lat="-35.2850465" lon="148.9860464">
  <ele>725.19</ele>
  <time>2026-09-01T20:00:14Z</time>
  <course>199.59</course>
  <speed>0.0316227766016838</speed>
  <fix>3d</fix>
</trkpt>
<trkpt lat="-35.2850467" lon="148.9860467">
  <ele>725.21</ele>
  <time>2026-09-01T20:00:14Z</time>
  <course>108.38</course>
  <speed>0.04</speed>
  <fix>3d</fix>
</trkpt>
<trkpt lat="-35.2850466" lon="148.9860464">
  <ele>725.18</ele>
  <time>2026-09-01T20:00:14Z</time>
  <course>199.58</course>
  <speed>0.05099019513592785</speed>
  <fix>3d</fix>
</trkpt>
<trkpt lat="-35.2850467" lon="148.9860468">
  <ele>725.21</ele>
  <time>2026-09-01T20:00:14Z</time>
  <course>147.65</course>
  <speed>0.06</speed>
  <fix>3d</fix>
</trkpt>
<trkpt lat="-35.2850466" lon="148.9860464">
  <ele>725.18</ele>
  <time>2026-09-01T20:00:14Z</time>
  <course>199.57</course>
  <speed>0.07280109889280519</speed>
  <fix>3d</fix>
</trkpt>
<trkpt lat="-35.2850467" lon="148.9860468">
  <ele>725.21</ele>
  <time>2026-09-01T20:00:14Z</time>
  <course>147.65</course>
  <speed>0.06</speed>
  <fix>3d</fix>
</trkpt>
<trkpt lat="-35.2850467" lon="148.9860465">
  <ele>725.18</ele>
  <time>2026-09-01T20:00:14Z</time>
  <course>199.56</course>
  <speed>0.09219544457292887</speed>
  <fix>3d</fix>
</trkpt>
<trkpt lat="-35.2850468" lon="148.9860469">
  <ele>725.2</ele>
  <time>2026-09-01T20:00:14Z</time>
  <course>165.99</course>
  <speed>0.09</speed>
  <fix>3d</fix>
</trkpt>
<trkpt lat="-35.2850468" lon="148.9860464">
  <ele>725.18</ele>
  <time>2026-09-01T20:00:14Z</time>
  <course>199.55</course>
  <speed>0.1044030650891055</speed>
  <fix>3d</fix>
</trkpt>
<trkpt lat="-35.2850468" lon="148.9860469">
  <ele>725.2</ele>
  <time>2026-09-01T20:00:14Z</time>
  <course>165.99</course>
  <speed>0.09</speed>
  <fix>3d</fix>
</trkpt>
<trkpt lat="-35.285047" lon="148.9860465">
  <ele>725.17</ele>
  <time>2026-09-01T20:00:14Z</time>
  <course>199.54</course>
  <speed>0.1264911064067352</speed>
  <fix>3d</fix>
</trkpt>
<trkpt lat="-35.285047" lon="148.9860469">
  <ele>725.2</ele>
  <time>2026-09-01T20:00:14Z</time>
  <course>175.06</course>
  <speed>0.12</speed>
  <fix>3d</fix>
</trkpt>
<trkpt lat="-35.2850471" lon="148.9860464">
  <ele>725.18</ele>
  <time>2026-09-01T20:00:14Z</time>
  <course>199.53</course>
  <speed>0.13601470508735444</speed>
  <fix>3d</fix>
</trkpt>
<trkpt lat="-35.285047" lon="148.9860469">
  <ele>725.2</ele>
  <time>2026-09-01T20:00:14Z</time>
  <course>175.06</course>
  <speed>0.12</speed>
  <fix>3d</fix>
</trkpt>
<trkpt lat="-35.2850473" lon="148.9860464">
  <ele>725.18</ele>
  <time>2026-09-01T20:00:14Z</time>
  <course>199.53</course>
  <speed>0.15811388300841897</speed>
  <fix>3d</fix>
</trkpt>
<trkpt lat="-35.2850473" lon="148.9860469">
  <ele>725.2</ele>
  <time>2026-09-01T20:00:14Z</time>
  <course>180.35</course>
  <speed>0.16</speed>
  <fix>3d</fix>
</trkpt>
<trkpt lat="-35.2850475" lon="148.9860465">
  <ele>725.18</ele>
  <time>2026-09-01T20:00:15Z</time>
  <course>199.53</course>
  <speed>0.1676305461424021</speed>
  <fix>3d</fix>
</trkpt>
<trkpt lat="-35.2850473" lon="148.9860469">
  <ele>725.2</ele>
  <time>2026-09-01T20:00:15Z</time>
  <course>180.35</course>
  <speed>0.16</speed>
  <fix>3d</fix>
</trkpt>
<trkpt lat="-35.2850476" lon="148.9860465">
  <ele>725.18</ele>
  <time>2026-09-01T20:00:15Z</time>
  <course>199.54</course>
  <speed>0.18973665961010278</speed>
  <fix>3d</fix>
</trkpt>
<trkpt lat="-35.2850476" lon="148.9860469">
  <ele>725.21</ele>
  <time>2026-09-01T20:00:15Z</time>
  <course>183.79</course>
  <speed>0.19</speed>
  <fix>3d</fix>
</trkpt>
<trkpt lat="-35.2850478" lon="148.9860465">
  <ele>725.18</ele>
  <time>2026-09-01T20:00:15Z</time>
  <course>199.55</course>
  <speed>0.19924858845171275</speed>
  <fix>3d</fix>
</trkpt>
<trkpt lat="-35.2850476" lon="148.9860469">
  <ele>725.21</ele>
  <time>2026-09-01T20:00:15Z</time>
  <course>183.79</course>
  <speed>0.19</speed>
  <fix>3d</fix>
</trkpt>
<trkpt lat="-35.2850481" lon="148.9860464">
  <ele>725.19</ele>
  <time>2026-09-01T20:00:15Z</time>
  <course>199.56</course>
  <speed>0.21189620100417092</speed>
  <fix>3d</fix>
</trkpt>
<trkpt lat="-35.285048" lon="148.9860469">
  <ele>725.21</ele>
  <time>2026-09-01T20:00:15Z</time>
  <course>186.33</course>
  <speed>0.22</speed>
  <fix>3d</fix>
</trkpt>
<trkpt lat="-35.2850483" lon="148.9860464">
  <ele>725.19</ele>
  <time>2026-09-01T20:00:15Z</time>
  <course>199.57</course>
  <speed>0.21189620100417092</speed>
  <fix>3d</fix>
</trkpt>
<trkpt lat="-35.285048" lon="148.9860469">
  <ele>725.21</ele>
  <time>2026-09-01T20:00:15Z</time>
  <course>186.33</course>
  <speed>0.22</speed>
  <fix>3d</fix>
</trkpt>
<trkpt lat="-35.2850485" lon="148.9860464">
  <ele>725.19</ele>
  <time>2026-09-01T20:00:15Z</time>
  <course>199.58</course>
  <speed>0.22472205054244232</speed>
  <fix>3d</fix>
</trkpt>
<trkpt lat="-35.2850483" lon="148.9860469">
  <ele>725.22</ele>
  <time>2026-09-01T20:00:15Z</time>
  <course>188.38</course>
  <speed>0.24</speed>
  <fix>3d</fix>
</trkpt>
<trkpt lat="-35.2850487" lon="148.9860463">
  <ele>725.19</ele>
  <time>2026-09-01T20:00:15Z</time>
  <course>199.58</course>
  <speed>0.2340939982143925</speed>
  <fix>3d</fix>
</trkpt>
<trkpt lat="-35.2850483" lon="148.9860469">
  <ele>725.22</ele>
  <time>2026-09-01T20:00:15Z</time>
  <course>188.38</course>
  <speed>0.24</speed>
  <fix>3d</fix>
</trkpt>
<trkpt lat="-35.2850489" lon="148.9860463">
  <ele>725.2</ele>
  <time>2026-09-01T20:00:15Z</time>
  <course>199.58</course>
  <speed>0.2340939982143925</speed>
  <fix>3d</fix>
</trkpt>
<trkpt lat="-35.2850488" lon="148.9860468">
  <ele>725.23</ele>
  <time>2026-09-01T20:00:15Z</time>
  <course>190.15</course>
  <speed>0.26</speed>
  <fix>3d</fix>
</trkpt>
<trkpt lat="-35.2850492" lon="148.9860462">
  <ele>725.2</ele>
  <time>2026-09-01T20:00:15Z</time>
  <course>199.58</course>
  <speed>0.24698178070456936</speed>
  <fix>3d</fix>
</trkpt>
<trkpt lat="-35.2850488" lon="148.9860468">
  <ele>725.23</ele>
  <time>2026-09-01T20:00:15Z</time>
  <course>190.15</course>
  <speed>0.26</speed>
  <fix>3d</fix>
</trkpt>
<trkpt lat="-35.2850494" lon="148.9860462">
  <ele>725.2</ele>
  <time>2026-09-01T20:00:15Z</time>
  <course>199.57</course>
  <speed>0.24698178070456936</speed>
  <fix>3d</fix>
</trkpt>
<trkpt lat="-35.2850493" lon="148.9860467">
  <ele>725.24</ele>
  <time>2026-09-01T20:00:15Z</time>
  <course>191.79</course>
  <speed>0.27</speed>
  <fix>3d</fix>
</trkpt>
<trkpt lat="-35.2850497" lon="148.9860461">
  <ele>725.2</ele>
  <time>2026-09-01T20:00:15Z</time>
  <course>199.57</course>
  <speed>0.24698178070456936</speed>
  <fix>3d</fix>
</trkpt>
<trkpt lat="-35.2850493" lon="148.9860467">
  <ele>725.24</ele>
  <time>2026-09-01T20:00:15Z</time>
  <course>191.79</course>
  <speed>0.27</speed>
  <fix>3d</fix>
</trkpt>
<trkpt lat="-35.2850499" lon="148.986046">
  <ele>725.19</ele>
  <time>2026-09-01T20:00:15Z</time>
  <course>199.57</course>
  <speed>0.25079872407968906</speed>
  <fix>3d</fix>
</trkpt>
<trkpt lat="-35.2850498" lon="148.9860466">
  <ele>725.24</ele>
  <time>2026-09-01T20:00:15Z</time>
  <course>193.36</course>
  <speed>0.28</speed>
  <fix>3d</fix>
</trkpt>
<trkpt lat="-35.2850502" lon="148.986046">
  <ele>725.19</ele>
  <time>2026-09-01T20:00:15Z</time>
  <course>199.57</course>
  <speed>0.25079872407968906</speed>
  <fix>3d</fix>
</trkpt>
<trkpt lat="-35.2850498" lon="148.9860466">
  <ele>725.24</ele>
  <time>2026-09-01T20:00:15Z</time>
  <course>193.36</course>
  <speed>0.28</speed>
  <fix>3d</fix>
</trkpt>
<trkpt lat="-35.2850504" lon="148.9860459">
  <ele>725.19</ele>
  <time>2026-09-01T20:00:15Z</time>
  <course>199.57</course>
  <speed>0.25079872407968906</speed>
  <fix>3d</fix>
</trkpt>
<trkpt lat="-35.2850503" lon="148.9860464">
  <ele>725.25</ele>
  <time>2026-09-01T20:00:15Z</time>
  <course>194.91</course>
  <speed>0.28</speed>
  <fix>3d</fix>
</trkpt>
<trkpt lat="-35.2850506" lon="148.9860458">
  <ele>725.19</ele>
  <time>2026-09-01T20:00:15Z</time>
  <course>199.57</course>
  <speed>0.24166091947189144</speed>
  <fix>3d</fix>
</trkpt>
<trkpt lat="-35.2850503" lon="148.9860464">
  <ele>725.25</ele>
  <time>2026-09-01T20:00:15Z</time>
  <course>194.91</course>
  <speed>0.28</speed>
  <fix>3d</fix>
</trkpt>
<trkpt lat="-35.2850509" lon="148.9860457">
  <ele>725.18</ele>
  <time>2026-09-01T20:00:15Z</time>
  <course>199.57</course>
  <speed>0.24596747752497689</speed>
  <fix>3d</fix>
</trkpt>
<trkpt lat="-35.2850508" lon="148.9860463">
  <ele>725.25</ele>
  <time>2026-09-01T20:00:15Z</time>
  <course>196.51</course>
  <speed>0.28</speed>
  <fix>3d</fix>
</trkpt>
<trkpt lat="-35.2850511" lon="148.9860456">
  <ele>725.18</ele>
  <time>2026-09-01T20:00:15Z</time>
  <course>199.58</course>
  <speed>0.23706539182259395</speed>
  <fix>3d</fix>
</trkpt>
<trkpt lat="-35.2850508" lon="148.9860463">
  <ele>725.25</ele>
  <time>2026-09-01T20:00:15Z</time>
  <course>196.51</course>
  <speed>0.28</speed>
  <fix>3d</fix>
</trkpt>
<trkpt lat="-35.2850513" lon="148.9860456">
  <ele>725.18</ele>
  <time>2026-09-01T20:00:15Z</time>
  <course>199.58</course>
  <speed>0.23706539182259395</speed>
  <fix>3d</fix>
</trkpt>
<trkpt lat="-35.2850513" lon="148.9860461">
  <ele>725.26</ele>
  <time>2026-09-01T20:00:15Z</time>
  <course>198.2</course>
  <speed>0.27</speed>
  <fix>3d</fix>
</trkpt>
<trkpt lat="-35.2850516" lon="148.9860455">
  <ele>725.18</ele>
  <time>2026-09-01T20:00:15Z</time>
  <course>199.58</course>
  <speed>0.22825424421026652</speed>
  <fix>3d</fix>
</trkpt>
<trkpt lat="-35.2850513" lon="148.9860461">
  <ele>725.26</ele>
  <time>2026-09-01T20:00:15Z</time>
  <course>198.2</course>
  <speed>0.27</speed>
  <fix>3d</fix>
</trkpt>
<trkpt lat="-35.2850518" lon="148.9860454">
  <ele>725.18</ele>
  <time>2026-09-01T20:00:15Z</time>
  <course>199.58</course>
  <speed>0.2195449840010015</speed>
  <fix>3d</fix>
</trkpt>
<trkpt lat="-35.2850517" lon="148.9860459">
  <ele>725.26</ele>
  <time>2026-09-01T20:00:15Z</time>
  <course>199.86</course>
  <speed>0.26</speed>
  <fix>3d</fix>
</trkpt>
<trkpt lat="-35.285052" lon="148.9860453">
  <ele>725.19</ele>
  <time>2026-09-01T20:00:15Z</time>
  <course>199.58</course>
  <speed>0.2109502310972899</speed>
  <fix>3d</fix>
</trkpt>
<trkpt lat="-35.2850517" lon="148.9860459">
  <ele>725.26</ele>
  <time>2026-09-01T20:00:15Z</time>
  <course>199.86</course>
  <speed>0.26</speed>
  <fix>3d</fix>
</trkpt>
<trkpt lat="-35.2850522" lon="148.9860452">
  <ele>725.19</ele>
  <time>2026-09-01T20:00:15Z</time>
  <course>199.59</course>
  <speed>0.20248456731316586</speed>
  <fix>3d</fix>
</trkpt>
<trkpt lat="-35.2850521" lon="148.9860456">
  <ele>725.26</ele>
  <time>2026-09-01T20:00:15Z</time>
  <course>201.42</course>
  <speed>0.24</speed>
  <fix>3d</fix>
</trkpt>
<trkpt lat="-35.2850524" lon="148.9860451">
  <ele>725.19</ele>
  <time>2026-09-01T20:00:15Z</time>
  <course>199.59</course>
  <speed>0.18867962264113206</speed>
  <fix>3d</fix>
</trkpt>
<trkpt lat="-35.2850521" lon="148.9860456">
  <ele>725.26</ele>
  <time>2026-09-01T20:00:15Z</time>
  <course>201.42</course>
  <speed>0.24</speed>
  <fix>3d</fix>
</trkpt>
<trkpt lat="-35.2850525" lon="148.986045">
  <ele>725.19</ele>
  <time>2026-09-01T20:00:15Z</time>
  <course>199.59</course>
  <speed>0.18027756377319945</speed>
  <fix>3d</fix>
</trkpt>
<trkpt lat="-35.2850526" lon="148.9860455">
  <ele>725.27</ele>
  <time>2026-09-01T20:00:15Z</time>
  <course>203.26</course>
  <speed>0.23</speed>
  <fix>3d</fix>
</trkpt>
<trkpt lat="-35.2850527" lon="148.9860449">
  <ele>725.19</ele>
  <time>2026-09-01T20:00:15Z</time>
  <course>199.59</course>
  <speed>0.17204650534085253</speed>
  <fix>3d</fix>
</trkpt>
<trkpt lat="-35.2850526" lon="148.9860455">
  <ele>725.27</ele>
  <time>2026-09-01T20:00:15Z</time>
  <course>203.26</course>
  <speed>0.23</speed>
  <fix>3d</fix>
</trkpt>
<trkpt lat="-35.2850529" lon="148.9860449">
  <ele>725.2</ele>
  <time>2026-09-01T20:00:15Z</time>
  <course>199.59</course>
  <speed>0.15620499351813308</speed>
  <fix>3d</fix>
</trkpt>
<trkpt lat="-35.2850529" lon="148.9860453">
  <ele>725.28</ele>
  <time>2026-09-01T20:00:15Z</time>
  <course>205.66</course>
  <speed>0.2</speed>
  <fix>3d</fix>
</trkpt>
<trkpt lat="-35.285053" lon="148.9860448">
  <ele>725.2</ele>
  <time>2026-09-01T20:00:15Z</time>
  <course>199.59</course>
  <speed>0.14866068747318506</speed>
  <fix>3d</fix>
</trkpt>
<trkpt lat="-35.2850529" lon="148.9860453">
  <ele>725.28</ele>
  <time>2026-09-01T20:00:15Z</time>
  <course>205.66</course>
  <speed>0.2</speed>
  <fix>3d</fix>
</trkpt>
<trkpt lat="-35.2850531" lon="148.9860447">
  <ele>725.21</ele>
  <time>2026-09-01T20:00:15Z</time>
  <course>199.59</course>
  <speed>0.1345362404707371</speed>
  <fix>3d</fix>
</trkpt>
<trkpt lat="-35.2850532" lon="148.9860451">
  <ele>725.28</ele>
  <time>2026-09-01T20:00:15Z</time>
  <course>208.82</course>
  <speed>0.18</speed>
  <fix>3d</fix>
</trkpt>
<trkpt lat="-35.2850532" lon="148.9860446">
  <ele>725.21</ele>
  <time>2026-09-01T20:00:15Z</time>
  <course>199.59</course>
  <speed>0.12806248474865697</speed>
  <fix>3d</fix>
</trkpt>
<trkpt lat="-35.2850532" lon="148.9860451">
  <ele>725.28</ele>
  <time>2026-09-01T20:00:15Z</time>
  <course>208.82</course>
  <speed>0.18</speed>
  <fix>3d</fix>
</trkpt>
<trkpt lat="-35.2850533" lon="148.9860445">
  <ele>725.21</ele>
  <time>2026-09-01T20:00:15Z</time>
  <course>199.59</course>
  <speed>0.11401754250991379</speed>
  <fix>3d</fix>
</trkpt>
<trkpt lat="-35.2850535" lon="148.9860449">
  <ele>725.29</ele>
  <time>2026-09-01T20:00:15Z</time>
  <course>212.98</course>
  <speed>0.16</speed>
  <fix>3d</fix>
</trkpt>
<trkpt lat="-35.2850534" lon="148.9860444">
  <ele>725.22</ele>
  <time>2026-09-01T20:00:15Z</time>
  <course>199.59</course>
  <speed>0.10295630140987001</speed>
  <fix>3d</fix>
</trkpt>
<trkpt lat="-35.2850535" lon="148.9860449">
  <ele>725.29</ele>
  <time>2026-09-01T20:00:15Z</time>
  <course>212.98</course>
  <speed>0.16</speed>
  <fix>3d</fix>
</trkpt>
<trkpt lat="-35.2850535" lon="148.9860443">
  <ele>725.22</ele>
  <time>2026-09-01T20:00:15Z</time>
  <course>199.58</course>
  <speed>0.09848857801796104</speed>
  <fix>3d</fix>
</trkpt>
<trkpt lat="-35.2850538" lon="148.9860446">
  <ele>725.3</ele>
  <time>2026-09-01T20:00:15Z</time>
  <course>218.36</course>
  <speed>0.13</speed>
  <fix>3d</fix>
</trkpt>
<trkpt lat="-35.2850536" lon="148.9860443">
  <ele>725.22</ele>
  <time>2026-09-01T20:00:15Z</time>
  <course>199.59</course>
  <speed>0.09486832980505139</speed>
  <fix>3d</fix>
</trkpt>
<trkpt lat="-35.2850538" lon="148.9860446">
  <ele>725.3</ele>
  <time>2026-09-01T20:00:15Z</time>
  <course>218.36</course>
  <speed>0.13</speed>
  <fix>3d</fix>
</trkpt>
<trkpt lat="-35.2850536" lon="148.9860442">
  <ele>725.22</ele>
  <time>2026-09-01T20:00:15Z</time>
  <course>199.59</course>
  <speed>0.08062257748298549</speed>
  <fix>3d</fix>
</trkpt>
<trkpt lat="-35.2850539" lon="148.9860445">
  <ele>725.3</ele>
  <time>2026-09-01T20:00:15Z</time>
  <course>225.66</course>
  <speed>0.11</speed>
  <fix>3d</fix>
</trkpt>
<trkpt lat="-35.2850537" lon="148.9860441">
  <ele>725.22</ele>
  <time>2026-09-01T20:00:15Z</time>
  <course>199.59</course>
  <speed>0.08</speed>
  <fix>3d</fix>
</trkpt>
<trkpt lat="-35.2850539" lon="148.9860445">
  <ele>725.3</ele>
  <time>2026-09-01T20:00:15Z</time>
  <course>225.66</course>
  <speed>0.11</speed>
  <fix>3d</fix>
</trkpt>
<trkpt lat="-35.2850537" lon="148.986044">
  <ele>725.22</ele>
  <time>2026-09-01T20:00:15Z</time>
  <course>199.59</course>
  <speed>0.07</speed>
  <fix>3d</fix>
</trkpt>
<trkpt lat="-35.285054" lon="148.9860444">
  <ele>725.3</ele>
  <time>2026-09-01T20:00:15Z</time>
  <course>235.99</course>
  <speed>0.08</speed>
  <fix>3d</fix>
</trkpt>
<trkpt lat="-35.2850537" lon="148.986044">
  <ele>725.22</ele>
  <time>2026-09-01T20:00:15Z</time>
  <course>199.59</course>
  <speed>0.07280109889280519</speed>
  <fix>3d</fix>
</trkpt>
<trkpt lat="-35.285054" lon="148.9860444">
  <ele>725.3</ele>
  <time>2026-09-01T20:00:15Z</time>
  <course>235.99</course>
  <speed>0.08</speed>
  <fix>3d</fix>
</trkpt>
<trkpt lat="-35.2850537" lon="148.9860439">
  <ele>725.22</ele>
  <time>2026-09-01T20:00:15Z</time>
  <course>199.6</course>
  <speed>0.07615773105863909</speed>
  <fix>3d</fix>
</trkpt>
<trkpt lat="-35.285054" lon="148.9860442">
  <ele>725.3</ele>
  <time>2026-09-01T20:00:15Z</time>
  <course>250.98</course>
  <speed>0.07</speed>
  <fix>3d</fix>
</trkpt>
<trkpt lat="-35.2850537" lon="148.9860439">
  <ele>725.22</ele>
  <time>2026-09-01T20:00:15Z</time>
  <course>199.6</course>
  <speed>0.07211102550927978</speed>
  <fix>3d</fix>
</trkpt>
<trkpt lat="-35.285054" lon="148.9860442">
  <ele>725.3</ele>
  <time>2026-09-01T20:00:15Z</time>
  <course>250.98</course>
  <speed>0.07</speed>
  <fix>3d</fix>
</trkpt>
<trkpt lat="-35.2850537" lon="148.9860438">
  <ele>725.21</ele>
  <time>2026-09-01T20:00:15Z</time>
  <course>199.6</course>
  <speed>0.07810249675906654</speed>
  <fix>3d</fix>
</trkpt>
<trkpt lat="-35.285054" lon="148.986044">
  <ele>725.3</ele>
  <time>2026-09-01T20:00:15Z</time>
  <course>272.47</course>
  <speed>0.05</speed>
  <fix>3d</fix>
</trkpt>
<trkpt lat="-35.2850537" lon="148.9860438">
  <ele>725.21</ele>
  <time>2026-09-01T20:00:15Z</time>
  <course>199.6</course>
  <speed>0.07810249675906654</speed>
  <fix>3d</fix>
</trkpt>
<trkpt lat="-35.285054" lon="148.986044">
  <ele>725.3</ele>
  <time>2026-09-01T20:00:15Z</time>
  <course>272.47</course>
  <speed>0.05</speed>
  <fix>3d</fix>
</trkpt>
<trkpt lat="-35.2850537" lon="148.9860437">
  <ele>725.21</ele>
  <time>2026-09-01T20:00:15Z</time>
  <course>199.6</course>
  <speed>0.08602325267042626</speed>
  <fix>3d</fix>
</trkpt>
<trkpt lat="-35.285054" lon="148.9860439">
  <ele>725.3</ele>
  <time>2026-09-01T20:00:15Z</time>
  <course>297.66</course>
  <speed>0.05</speed>
  <fix>3d</fix>
</trkpt>
<trkpt lat="-35.2850537" lon="148.9860437">
  <ele>725.21</ele>
  <time>2026-09-01T20:00:15Z</time>
  <course>199.6</course>
  <speed>0.08944271909999159</speed>
  <fix>3d</fix>
</trkpt>
<trkpt lat="-35.285054" lon="148.9860439">
  <ele>725.3</ele>
  <time>2026-09-01T20:00:15Z</time>
  <course>297.66</course>
  <speed>0.05</speed>
  <fix>3d</fix>
</trkpt>
<trkpt lat="-35.2850536" lon="148.9860436">
  <ele>725.22</ele>
  <time>2026-09-01T20:00:15Z</time>
  <course>199.59</course>
  <speed>0.09848857801796104</speed>
  <fix>3d</fix>
</trkpt>
<trkpt lat="-35.285054" lon="148.9860438">
  <ele>725.3</ele>
  <time>2026-09-01T20:00:15Z</time>
  <course>319.06</course>
  <speed>0.06</speed>
  <fix>3d</fix>
</trkpt>
<trkpt lat="-35.2850536" lon="148.9860436">
  <ele>725.22</ele>
  <time>2026-09-01T20:00:15Z</time>
  <course>199.6</course>
  <speed>0.1044030650891055</speed>
  <fix>3d</fix>
</trkpt>
<trkpt lat="-35.285054" lon="148.9860438">
  <ele>725.3</ele>
  <time>2026-09-01T20:00:15Z</time>
  <course>319.06</course>
  <speed>0.06</speed>
  <fix>3d</fix>
</trkpt>
<trkpt lat="-35.2850535" lon="148.9860436">
  <ele>725.22</ele>
  <time>2026-09-01T20:00:15Z</time>
  <course>199.6</course>
  <speed>0.1044030650891055</speed>
  <fix>3d</fix>
</trkpt>
<trkpt lat="-35.285054" lon="148.9860438">
  <ele>725.3</ele>
  <time>2026-09-01T20:00:15Z</time>
  <course>333.78</course>
  <speed>0.07</speed>
  <fix>3d</fix>
</trkpt>
<trkpt lat="-35.2850535" lon="148.9860436">
  <ele>725.22</ele>
  <time>2026-09-01T20:00:15Z</time>
  <course>199.6</course>
  <speed>0.1118033988749895</speed>
  <fix>3d</fix>
</trkpt>
<trkpt lat="-35.285054" lon="148.9860438">
  <ele>725.3</ele>
  <time>2026-09-01T20:00:15Z</time>
  <course>333.78</course>
  <speed>0.07</speed>
  <fix>3d</fix>
</trkpt>
<trkpt lat="-35.2850534" lon="148.9860435">
  <ele>725.22</ele>
  <time>2026-09-01T20:00:15Z</time>
  <course>199.61</course>
  <speed>0.1118033988749895</speed>
  <fix>3d</fix>
</trkpt>
<trkpt lat="-35.2850538" lon="148.9860437">
  <ele>725.3</ele>
  <time>2026-09-01T20:00:15Z</time>
  <course>343.97</course>
  <speed>0.08</speed>
  <fix>3d</fix>
</trkpt>
<trkpt lat="-35.2850533" lon="148.9860435">
  <ele>725.22</ele>
  <time>2026-09-01T20:00:15Z</time>
  <course>199.61</course>
  <speed>0.12165525060596438</speed>
  <fix>3d</fix>
</trkpt>
<trkpt lat="-35.2850538" lon="148.9860437">
  <ele>725.3</ele>
  <time>2026-09-01T20:00:15Z</time>
  <course>343.97</course>
  <speed>0.08</speed>
  <fix>3d</fix>
</trkpt>
<trkpt lat="-35.2850532" lon="148.9860435">
  <ele>725.22</ele>
  <time>2026-09-01T20:00:15Z</time>
  <course>199.6</course>
  <speed>0.12041594578792296</speed>
  <fix>3d</fix>
</trkpt>
<trkpt lat="-35.2850537" lon="148.9860436">
  <ele>725.29</ele>
  <time>2026-09-01T20:00:15Z</time>
  <course>351.39</course>
  <speed>0.09</speed>
  <fix>3d</fix>
</trkpt>
<trkpt lat="-35.2850532" lon="148.9860435">
  <ele>725.22</ele>
  <time>2026-09-01T20:00:15Z</time>
  <course>199.6</course>
  <speed>0.12041594578792296</speed>
  <fix>3d</fix>
</trkpt>
<trkpt lat="-35.2850537" lon="148.9860436">
  <ele>725.29</ele>
  <time>2026-09-01T20:00:15Z</time>
  <course>351.39</course>
  <speed>0.09</speed>
  <fix>3d</fix>
</trkpt>
<trkpt lat="-35.2850531" lon="148.9860435">
  <ele>725.22</ele>
  <time>2026-09-01T20:00:15Z</time>
  <course>199.59</course>
  <speed>0.12</speed>
  <fix>3d</fix>
</trkpt>
<trkpt lat="-35.2850536" lon="148.9860436">
  <ele>725.29</ele>
  <time>2026-09-01T20:00:15Z</time>
  <course>356.8</course>
  <speed>0.09</speed>
  <fix>3d</fix>
</trkpt>
<trkpt lat="-35.285053" lon="148.9860435">
  <ele>725.22</ele>
  <time>2026-09-01T20:00:15Z</time>
  <course>199.59</course>
  <speed>0.13</speed>
  <fix>3d</fix>
</trkpt>
<trkpt lat="-35.2850536" lon="148.9860436">
  <ele>725.29</ele>
  <time>2026-09-01T20:00:15Z</time>
  <course>356.8</course>
  <speed>0.09</speed>
  <fix>3d</fix>
</trkpt>
<trkpt lat="-35.2850529" lon="148.9860435">
  <ele>725.22</ele>
  <time>2026-09-01T20:00:15Z</time>
  <course>199.6</course>
  <speed>0.13</speed>
  <fix>3d</fix>
</trkpt>
<trkpt lat="-35.2850533" lon="148.9860436">
  <ele>725.29</ele>
  <time>2026-09-01T20:00:15Z</time>
  <course>0.99</course>
  <speed>0.1</speed>
  <fix>3d</fix>
</trkpt>
<trkpt lat="-35.2850528" lon="148.9860435">
  <ele>725.22</ele>
  <time>2026-09-01T20:00:15Z</time>
  <course>199.61</course>
  <speed>0.13</speed>
  <fix>3d</fix>
</trkpt>
<trkpt lat="-35.2850533" lon="148.9860436">
  <ele>725.29</ele>
  <time>2026-09-01T20:00:15Z</time>
  <course>0.99</course>
  <speed>0.1</speed>
  <fix>3d</fix>
</trkpt>
<trkpt lat="-35.2850527" lon="148.9860435">
  <ele>725.22</ele>
  <time>2026-09-01T20:00:15Z</time>
  <course>199.61</course>
  <speed>0.13</speed>
  <fix>3d</fix>
</trkpt>
<trkpt lat="-35.2850532" lon="148.9860436">
  <ele>725.29</ele>
  <time>2026-09-01T20:00:15Z</time>
  <course>4.42</course>
  <speed>0.1</speed>
  <fix>3d</fix>
</trkpt>
<trkpt lat="-35.2850526" lon="148.9860435">
  <ele>725.22</ele>
  <time>2026-09-01T20:00:15Z</time>
  <course>199.61</course>
  <speed>0.13</speed>
  <fix>3d</fix>
</trkpt>
<trkpt lat="-35.2850532" lon="148.9860436">
  <ele>725.29</ele>
  <time>2026-09-01T20:00:15Z</time>
  <course>4.42</course>
  <speed>0.1</speed>
  <fix>3d</fix>
</trkpt>
<trkpt lat="-35.2850526" lon="148.9860435">
  <ele>725.22</ele>
  <time>2026-09-01T20:00:15Z</time>
  <course>199.61</course>
  <speed>0.12</speed>
  <fix>3d</fix>
</trkpt>
<trkpt lat="-35.285053" lon="148.9860436">
  <ele>725.29</ele>
  <time>2026-09-01T20:00:15Z</time>
  <course>7.4</course>
  <speed>0.11</speed>
  <fix>3d</fix>
</trkpt>
<trkpt lat="-35.2850525" lon="148.9860435">
  <ele>725.22</ele>
  <time>2026-09-01T20:00:15Z</time>
  <course>199.6</course>
  <speed>0.12</speed>
  <fix>3d</fix>
</trkpt>
<trkpt lat="-35.285053" lon="148.9860436">
  <ele>725.29</ele>
  <time>2026-09-01T20:00:15Z</time>
  <course>7.4</course>
  <speed>0.11</speed>
  <fix>3d</fix>
</trkpt>
<trkpt lat="-35.2850524" lon="148.9860435">
  <ele>725.22</ele>
  <time>2026-09-01T20:00:15Z</time>
  <course>199.6</course>
  <speed>0.12041594578792296</speed>
  <fix>3d</fix>
</trkpt>
<trkpt lat="-35.2850528" lon="148.9860436">
  <ele>725.29</ele>
  <time>2026-09-01T20:00:15Z</time>
  <course>10.2</course>
  <speed>0.1</speed>
  <fix>3d</fix>
</trkpt>
<trkpt lat="-35.2850523" lon="148.9860435">
  <ele>725.22</ele>
  <time>2026-09-01T20:00:15Z</time>
  <course>199.6</course>
  <speed>0.12041594578792296</speed>
  <fix>3d</fix>
</trkpt>
<trkpt lat="-35.2850528" lon="148.9860436">
  <ele>725.29</ele>
  <time>2026-09-01T20:00:15Z</time>
  <course>10.2</course>
  <speed>0.1</speed>
  <fix>3d</fix>
</trkpt>
<trkpt lat="-35.2850522" lon="148.9860436">
  <ele>725.22</ele>
  <time>2026-09-01T20:00:15Z</time>
  <course>199.61</course>
  <speed>0.11045361017187261</speed>
  <fix>3d</fix>
</trkpt>
<trkpt lat="-35.2850526" lon="148.9860436">
  <ele>725.29</ele>
  <time>2026-09-01T20:00:15Z</time>
  <course>13.04</course>
  <speed>0.1</speed>
  <fix>3d</fix>
</trkpt>
<trkpt lat="-35.2850521" lon="148.9860436">
  <ele>725.22</ele>
  <time>2026-09-01T20:00:15Z</time>
  <course>199.61</course>
  <speed>0.11045361017187261</speed>
  <fix>3d</fix>
</trkpt>
<trkpt lat="-35.2850526" lon="148.9860436">
  <ele>725.29</ele>
  <time>2026-09-01T20:00:15Z</time>
  <course>13.04</course>
  <speed>0.1</speed>
  <fix>3d</fix>
</trkpt>
<trkpt lat="-35.2850521" lon="148.9860436">
  <ele>725.21</ele>
  <time>2026-09-01T20:00:15Z</time>
  <course>199.61</course>
  <speed>0.11045361017187261</speed>
  <fix>3d</fix>
</trkpt>
<trkpt lat="-35.2850524" lon="148.9860437">
  <ele>725.28</ele>
  <time>2026-09-01T20:00:15Z</time>
  <course>16.0</course>
  <speed>0.1</speed>
  <fix>3d</fix>
</trkpt>
<trkpt lat="-35.285052" lon="148.9860436">
  <ele>725.21</ele>
  <time>2026-09-01T20:00:15Z</time>
  <course>199.6</course>
  <speed>0.1004987562112089</speed>
  <fix>3d</fix>
</trkpt>
<trkpt lat="-35.2850524" lon="148.9860437">
  <ele>725.28</ele>
  <time>2026-09-01T20:00:15Z</time>
  <course>16.0</course>
  <speed>0.1</speed>
  <fix>3d</fix>
</trkpt>
<trkpt lat="-35.2850519" lon="148.9860437">
  <ele>725.21</ele>
  <time>2026-09-01T20:00:15Z</time>
  <course>199.59</course>
  <speed>0.1004987562112089</speed>
  <fix>3d</fix>
</trkpt>
<trkpt lat="-35.2850522" lon="148.9860438">
  <ele>725.28</ele>
  <time>2026-09-01T20:00:15Z</time>
  <course>19.17</course>
  <speed>0.09</speed>
  <fix>3d</fix>
</trkpt>
<trkpt lat="-35.2850519" lon="148.9860437">
  <ele>725.21</ele>
  <time>2026-09-01T20:00:15Z</time>
  <course>199.58</course>
  <speed>0.09219544457292887</speed>
  <fix>3d</fix>
</trkpt>
<trkpt lat="-35.2850522" lon="148.9860438">
  <ele>725.28</ele>
  <time>2026-09-01T20:00:15Z</time>
  <course>19.17</course>
  <speed>0.09</speed>
  <fix>3d</fix>
</trkpt>
<trkpt lat="-35.2850518" lon="148.9860437">
  <ele>725.21</ele>
  <time>2026-09-01T20:00:15Z</time>
  <course>199.57</course>
  <speed>0.09219544457292887</speed>
  <fix>3d</fix>
</trkpt>
<trkpt lat="-35.2850521" lon="148.9860438">
  <ele>725.28</ele>
  <time>2026-09-01T20:00:15Z</time>
  <course>22.91</course>
  <speed>0.08</speed>
  <fix>3d</fix>
</trkpt>
<trkpt lat="-35.2850517" lon="148.9860438">
  <ele>725.21</ele>
  <time>2026-09-01T20:00:15Z</time>
  <course>199.56</course>
  <speed>0.0824621125123532</speed>
  <fix>3d</fix>
</trkpt>
<trkpt lat="-35.2850521" lon="148.9860438">
  <ele>725.28</ele>
  <time>2026-09-01T20:00:15Z</time>
  <course>22.91</course>
  <speed>0.08</speed>
  <fix>3d</fix>
</trkpt>
<trkpt lat="-35.2850517" lon="148.9860438">
  <ele>725.21</ele>
  <time>2026-09-01T20:00:15Z</time>
  <course>199.56</course>
  <speed>0.0824621125123532</speed>
  <fix>3d</fix>
</trkpt>
<trkpt lat="-35.2850519" lon="148.9860439">
  <ele>725.28</ele>
  <time>2026-09-01T20:00:15Z</time>
  <course>27.35</course>
  <speed>0.08</speed>
  <fix>3d</fix>
</trkpt>
<trkpt lat="-35.2850516" lon="148.9860438">
  <ele>725.21</ele>
  <time>2026-09-01T20:00:15Z</time>
  <course>199.57</course>
  <speed>0.07280109889280519</speed>
  <fix>3d</fix>
</trkpt>
<trkpt lat="-35.2850519" lon="148.9860439">
  <ele>725.28</ele>
  <time>2026-09-01T20:00:15Z</time>
  <course>27.35</course>
  <speed>0.08</speed>
  <fix>3d</fix>
</trkpt>
<trkpt lat="-35.2850516" lon="148.9860439">
  <ele>725.21</ele>
  <time>2026-09-01T20:00:15Z</time>
  <course>199.58</course>
  <speed>0.07280109889280519</speed>
  <fix>3d</fix>
</trkpt>
<trkpt lat="-35.2850518" lon="148.986044">
  <ele>725.28</ele>
  <time>2026-09-01T20:00:15Z</time>
  <course>32.23</course>
  <speed>0.07</speed>
  <fix>3d</fix>
</trkpt>
<trkpt lat="-35.2850515" lon="148.9860439">
  <ele>725.21</ele>
  <time>2026-09-01T20:00:15Z</time>
  <course>199.59</course>
  <speed>0.0632455532033676</speed>
  <fix>3d</fix>
</trkpt>
<trkpt lat="-35.2850518" lon="148.986044">
  <ele>725.28</ele>
  <time>2026-09-01T20:00:15Z</time>
  <course>32.23</course>
  <speed>0.07</speed>
  <fix>3d</fix>
</trkpt>
<trkpt lat="-35.2850515" lon="148.986044">
  <ele>725.21</ele>
  <time>2026-09-01T20:00:15Z</time>
  <course>199.61</course>
  <speed>0.053851648071345036</speed>
  <fix>3d</fix>
</trkpt>
<trkpt lat="-35.2850517" lon="148.9860441">
  <ele>725.28</ele>
  <time>2026-09-01T20:00:15Z</time>
  <course>37.98</course>
  <speed>0.06</speed>
  <fix>3d</fix>
</trkpt>
<trkpt lat="-35.2850515" lon="148.986044">
  <ele>725.21</ele>
  <time>2026-09-01T20:00:15Z</time>
  <course>199.62</course>
  <speed>0.053851648071345036</speed>
  <fix>3d</fix>
</trkpt>
<trkpt lat="-35.2850517" lon="148.9860441">
  <ele>725.28</ele>
  <time>2026-09-01T20:00:15Z</time>
  <course>37.98</course>
  <speed>0.06</speed>
  <fix>3d</fix>
</trkpt>
<trkpt lat="-35.2850514" lon="148.986044">
  <ele>725.21</ele>
  <time>2026-09-01T20:00:15Z</time>
  <course>199.62</course>
  <speed>0.044721359549995794</speed>
  <fix>3d</fix>
</trkpt>
<trkpt lat="-35.2850516" lon="148.9860442">
  <ele>725.28</ele>
  <time>2026-09-01T20:00:15Z</time>
  <course>45.57</course>
  <speed>0.05</speed>
  <fix>3d</fix>
</trkpt>
<trkpt lat="-35.2850514" lon="148.9860441">
  <ele>725.2</ele>
  <time>2026-09-01T20:00:15Z</time>
  <course>199.62</course>
  <speed>0.0412310562561766</speed>
  <fix>3d</fix>
</trkpt>
<trkpt lat="-35.2850516" lon="148.9860442">
  <ele>725.28</ele>
  <time>2026-09-01T20:00:15Z</time>
  <course>45.57</course>
  <speed>0.05</speed>
  <fix>3d</fix>
</trkpt>
<trkpt lat="-35.2850514" lon="148.9860441">
  <ele>725.2</ele>
  <time>2026-09-01T20:00:15Z</time>
  <course>199.61</course>
  <speed>0.0316227766016838</speed>
  <fix>3d</fix>
</trkpt>
<trkpt lat="-35.2850515" lon="148.9860443">
  <ele>725.28</ele>
  <time>2026-09-01T20:00:15Z</time>
  <course>55.27</course>
  <speed>0.04</speed>
  <fix>3d</fix>
</trkpt>
<trkpt lat="-35.2850514" lon="148.9860442">
  <ele>725.2</ele>
  <time>2026-09-01T20:00:15Z</time>
  <course>199.6</course>
  <speed>0.0316227766016838</speed>
  <fix>3d</fix>
</trkpt>
<trkpt lat="-35.2850515" lon="148.9860443">
  <ele>725.28</ele>
  <time>2026-09-01T20:00:15Z</time>
  <course>55.27</course>
  <speed>0.04</speed>
  <fix>3d</fix>
</trkpt>
<trkpt lat="-35.2850514" lon="148.9860442">
  <ele>725.19</ele>
  <time>2026-09-01T20:00:15Z</time>
  <course>199.6</course>
  <speed>0.022360679774997897</speed>
  <fix>3d</fix>
</trkpt>
<trkpt lat="-35.2850515" lon="148.9860444">
  <ele>725.28</ele>
  <time>2026-09-01T20:00:15Z</time>
  <course>66.99</course>
  <speed>0.04</speed>
  <fix>3d</fix>
</trkpt>
<trkpt lat="-35.2850513" lon="148.9860442">
  <ele>725.19</ele>
  <time>2026-09-01T20:00:15Z</time>
  <course>199.6</course>
  <speed>0.022360679774997897</speed>
  <fix>3d</fix>
</trkpt>
<trkpt lat="-35.2850515" lon="148.9860444">
  <ele>725.28</ele>
  <time>2026-09-01T20:00:15Z</time>
  <course>66.99</course>
  <speed>0.04</speed>
  <fix>3d</fix>
</trkpt>
<trkpt lat="-35.2850513" lon="148.9860443">
  <ele>725.19</ele>
  <time>2026-09-01T20:00:15Z</time>
  <course>199.6</course>
  <speed>0.01414213562373095</speed>
  <fix>3d</fix>
</trkpt>
<trkpt lat="-35.2850515" lon="148.9860444">
  <ele>725.28</ele>
  <time>2026-09-01T20:00:15Z</time>
  <course>82.07</course>
  <speed>0.03</speed>
  <fix>3d</fix>
</trkpt>
<trkpt lat="-35.2850513" lon="148.9860443">
  <ele>725.19</ele>
  <time>2026-09-01T20:00:15Z</time>
  <course>199.6</course>
  <speed>0.01</speed>
  <fix>3d</fix>
</trkpt>
<trkpt lat="-35.2850515" lon="148.9860444">
  <ele>725.28</ele>
  <time>2026-09-01T20:00:15Z</time>
  <course>82.07</course>
  <speed>0.03</speed>
  <fix>3d</fix>
</trkpt>
<trkpt lat="-35.2850513" lon="148.9860443">
  <ele>725.2</ele>
  <time>2026-09-01T20:00:15Z</time>
  <course>199.61</course>
  <speed>0.0</speed>
  <fix>3d</fix>
</trkpt>
<trkpt lat="-35.2850515" lon="148.9860445">
  <ele>725.28</ele>
  <time>2026-09-01T20:00:15Z</time>
  <course>100.86</course>
  <speed>0.03</speed>
  <fix>3d</fix>
</trkpt>
<trkpt lat="-35.2850513" lon="148.9860443">
  <ele>725.2</ele>
  <time>2026-09-01T20:00:15Z</time>
  <course>199.61</course>
  <speed>0.0</speed>
  <fix>3d</fix>
</trkpt>
<trkpt lat="-35.2850515" lon="148.9860445">
  <ele>725.28</ele>
  <time>2026-09-01T20:00:15Z</time>
  <course>100.86</course>
  <speed>0.03</speed>
  <fix>3d</fix>
</trkpt>
<trkpt lat="-35.2850513" lon="148.9860444">
  <ele>725.2</ele>
  <time>2026-09-01T20:00:15Z</time>
  <course>199.61</course>
  <speed>0.0</speed>
  <fix>3d</fix>
</trkpt>
<trkpt lat="-35.2850515" lon="148.9860445">
  <ele>725.29</ele>
  <time>2026-09-01T20:00:15Z</time>
  <course>120.38</course>
  <speed>0.03</speed>
  <fix>3d</fix>
</trkpt>
<trkpt lat="-35.2850513" lon="148.9860444">
  <ele>725.21</ele>
  <time>2026-09-01T20:00:15Z</time>
  <course>199.61</course>
  <speed>0.0</speed>
  <fix>3d</fix>
</trkpt>
<trkpt lat="-35.2850515" lon="148.9860445">
  <ele>725.29</ele>
  <time>2026-09-01T20:00:15Z</time>
  <course>120.38</course>
  <speed>0.03</speed>
  <fix>3d</fix>
</trkpt>
<trkpt lat="-35.2850514" lon="148.9860444">
  <ele>725.21</ele>
  <time>2026-09-01T20:00:15Z</time>
  <course>199.61</course>
  <speed>0.01</speed>
  <fix>3d</fix>
</trkpt>
<trkpt lat="-35.2850515" lon="148.9860446">
  <ele>725.29</ele>
  <time>2026-09-01T20:00:15Z</time>
  <course>137.62</course>
  <speed>0.03</speed>
  <fix>3d</fix>
</trkpt>
<trkpt lat="-35.2850514" lon="148.9860444">
  <ele>725.21</ele>
  <time>2026-09-01T20:00:15Z</time>
  <course>199.61</course>
  <speed>0.01</speed>
  <fix>3d</fix>
</trkpt>
<trkpt lat="-35.2850515" lon="148.9860446">
  <ele>725.29</ele>
  <time>2026-09-01T20:00:15Z</time>
  <course>137.62</course>
  <speed>0.03</speed>
  <fix>3d</fix>
</trkpt>
<trkpt lat="-35.2850514" lon="148.9860444">
  <ele>725.21</ele>
  <time>2026-09-01T20:00:15Z</time>
  <course>199.61</course>
  <speed>0.01</speed>
  <fix>3d</fix>
</trkpt>
<trkpt lat="-35.2850515" lon="148.9860446">
  <ele>725.29</ele>
  <time>2026-09-01T20:00:15Z</time>
  <course>151.39</course>
  <speed>0.03</speed>
  <fix>3d</fix>
</trkpt>
<trkpt lat="-35.2850514" lon="148.9860444">
  <ele>725.21</ele>
  <time>2026-09-01T20:00:15Z</time>
  <course>199.61</course>
  <speed>0.02</speed>
  <fix>3d</fix>
</trkpt>
<trkpt lat="-35.2850515" lon="148.9860446">
  <ele>725.29</ele>
  <time>2026-09-01T20:00:15Z</time>
  <course>151.39</course>
  <speed>0.03</speed>
  <fix>3d</fix>
</trkpt>
<trkpt lat="-35.2850515" lon="148.9860445">
  <ele>725.21</ele>
  <time>2026-09-01T20:00:15Z</time>
  <course>199.61</course>
  <speed>0.022360679774997897</speed>
  <fix>3d</fix>
</trkpt>
<trkpt lat="-35.2850516" lon="148.9860447">
  <ele>725.3</ele>
  <time>2026-09-01T20:00:15Z</time>
  <course>161.46</course>
  <speed>0.04</speed>
  <fix>3d</fix>
</trkpt>
<trkpt lat="-35.2850515" lon="148.9860445">
  <ele>725.21</ele>
  <time>2026-09-01T20:00:15Z</time>
  <course>199.61</course>
  <speed>0.022360679774997897</speed>
  <fix>3d</fix>
</trkpt>
<trkpt lat="-35.2850516" lon="148.9860447">
  <ele>725.3</ele>
  <time>2026-09-01T20:00:15Z</time>
  <course>161.46</course>
  <speed>0.04</speed>
  <fix>3d</fix>
</trkpt>
<trkpt lat="-35.2850516" lon="148.9860445">
  <ele>725.21</ele>
  <time>2026-09-01T20:00:15Z</time>
  <course>199.61</course>
  <speed>0.022360679774997897</speed>
  <fix>3d</fix>
</trkpt>
<trkpt lat="-35.2850517" lon="148.9860448">
  <ele>725.3</ele>
  <time>2026-09-01T20:00:15Z</time>
  <course>168.41</course>
  <speed>0.05</speed>
  <fix>3d</fix>
</trkpt>
<trkpt lat="-35.2850516" lon="148.9860445">
  <ele>725.21</ele>
  <time>2026-09-01T20:00:15Z</time>
  <course>199.61</course>
  <speed>0.0316227766016838</speed>
  <fix>3d</fix>
</trkpt>
<trkpt lat="-35.2850517" lon="148.9860448">
  <ele>725.3</ele>
  <time>2026-09-01T20:00:15Z</time>
  <course>168.41</course>
  <speed>0.05</speed>
  <fix>3d</fix>
</trkpt>
<trkpt lat="-35.2850517" lon="148.9860445">
  <ele>725.21</ele>
  <time>2026-09-01T20:00:15Z</time>
  <course>199.61</course>
  <speed>0.0316227766016838</speed>
  <fix>3d</fix>
</trkpt>
<trkpt lat="-35.2850518" lon="148.9860448">
  <ele>725.3</ele>
  <time>2026-09-01T20:00:15Z</time>
  <course>173.56</course>
  <speed>0.05</speed>
  <fix>3d</fix>
</trkpt>
<trkpt lat="-35.2850517" lon="148.9860445">
  <ele>725.21</ele>
  <time>2026-09-01T20:00:15Z</time>
  <course>199.61</course>
  <speed>0.0316227766016838</speed>
  <fix>3d</fix>
</trkpt>
<trkpt lat="-35.2850518" lon="148.9860448">
  <ele>725.3</ele>
  <time>2026-09-01T20:00:15Z</time>
  <course>173.56</course>
  <speed>0.05</speed>
  <fix>3d</fix>
</trkpt>
<trkpt lat="-35.2850518" lon="148.9860445">
  <ele>725.21</ele>
  <time>2026-09-01T20:00:15Z</time>
  <course>199.61</course>
  <speed>0.03605551275463989</speed>
  <fix>3d</fix>
</trkpt>
<trkpt lat="-35.2850519" lon="148.9860448">
  <ele>725.3</ele>
  <time>2026-09-01T20:00:15Z</time>
  <course>177.94</course>
  <speed>0.06</speed>
  <fix>3d</fix>
</trkpt>
<trkpt lat="-35.2850518" lon="148.9860445">
  <ele>725.21</ele>
  <time>2026-09-01T20:00:15Z</time>
  <course>199.61</course>
  <speed>0.03605551275463989</speed>
  <fix>3d</fix>
</trkpt>
<trkpt lat="-35.2850519" lon="148.9860448">
  <ele>725.3</ele>
  <time>2026-09-01T20:00:15Z</time>
  <course>177.94</course>
  <speed>0.06</speed>
  <fix>3d</fix>
</trkpt>
<trkpt lat="-35.2850519" lon="148.9860445">
  <ele>725.21</ele>
  <time>2026-09-01T20:00:15Z</time>
  <course>199.61</course>
  <speed>0.03605551275463989</speed>
  <fix>3d</fix>
</trkpt>
<trkpt lat="-35.285052" lon="148.9860448">
  <ele>725.3</ele>
  <time>2026-09-01T20:00:15Z</time>
  <course>181.57</course>
  <speed>0.06</speed>
  <fix>3d</fix>
</trkpt>
<trkpt lat="-35.2850519" lon="148.9860445">
  <ele>725.21</ele>
  <time>2026-09-01T20:00:15Z</time>
  <course>199.61</course>
  <speed>0.03605551275463989</speed>
  <fix>3d</fix>
</trkpt>
<trkpt lat="-35.285052" lon="148.9860448">
  <ele>725.3</ele>
  <time>2026-09-01T20:00:15Z</time>
  <course>181.57</course>
  <speed>0.06</speed>
  <fix>3d</fix>
</trkpt>
<trkpt lat="-35.285052" lon="148.9860445">
  <ele>725.21</ele>
  <time>2026-09-01T20:00:15Z</time>
  <course>199.61</course>
  <speed>0.03605551275463989</speed>
  <fix>3d</fix>
</trkpt>
<trkpt lat="-35.2850521" lon="148.9860448">
  <ele>725.3</ele>
  <time>2026-09-01T20:00:15Z</time>
  <course>184.5</course>
  <speed>0.06</speed>
  <fix>3d</fix>
</trkpt>
<trkpt lat="-35.285052" lon="148.9860445">
  <ele>725.21</ele>
  <time>2026-09-01T20:00:15Z</time>
  <course>199.61</course>
  <speed>0.03605551275463989</speed>
  <fix>3d</fix>
</trkpt>
<trkpt lat="-35.2850521" lon="148.9860448">
  <ele>725.3</ele>
  <time>2026-09-01T20:00:15Z</time>
  <course>184.5</course>
  <speed>0.06</speed>
  <fix>3d</fix>
</trkpt>
<trkpt lat="-35.2850521" lon="148.9860445">
  <ele>725.21</ele>
  <time>2026-09-01T20:00:15Z</time>
  <course>199.61</course>
  <speed>0.03605551275463989</speed>
  <fix>3d</fix>
</trkpt>
<trkpt lat="-35.2850522" lon="148.9860448">
  <ele>725.3</ele>
  <time>2026-09-01T20:00:15Z</time>
  <course>187.07</course>
  <speed>0.06</speed>
  <fix>3d</fix>
</trkpt>
<trkpt lat="-35.2850521" lon="148.9860445">
  <ele>725.21</ele>
  <time>2026-09-01T20:00:15Z</time>
  <course>199.61</course>
  <speed>0.04242640687119285</speed>
  <fix>3d</fix>
</trkpt>
<trkpt lat="-35.2850522" lon="148.9860448">
  <ele>725.3</ele>
  <time>2026-09-01T20:00:15Z</time>
  <course>187.07</course>
  <speed>0.06</speed>
  <fix>3d</fix>
</trkpt>
<trkpt lat="-35.2850522" lon="148.9860445">
  <ele>725.2</ele>
  <time>2026-09-01T20:00:15Z</time>
  <course>199.61</course>
  <speed>0.04242640687119285</speed>
  <fix>3d</fix>
</trkpt>
<trkpt lat="-35.2850523" lon="148.9860448">
  <ele>725.3</ele>
  <time>2026-09-01T20:00:15Z</time>
  <course>189.45</course>
  <speed>0.06</speed>
  <fix>3d</fix>
</trkpt>
<trkpt lat="-35.2850522" lon="148.9860445">
  <ele>725.2</ele>
  <time>2026-09-01T20:00:15Z</time>
  <course>199.61</course>
  <speed>0.04242640687119285</speed>
  <fix>3d</fix>
</trkpt>
<trkpt lat="-35.2850523" lon="148.9860448">
  <ele>725.3</ele>
  <time>2026-09-01T20:00:15Z</time>
  <course>189.45</course>
  <speed>0.06</speed>
  <fix>3d</fix>
</trkpt>
<trkpt lat="-35.2850523" lon="148.9860445">
  <ele>725.2</ele>
  <time>2026-09-01T20:00:15Z</time>
  <course>199.61</course>
  <speed>0.04242640687119285</speed>
  <fix>3d</fix>
</trkpt>
<trkpt lat="-35.2850525" lon="148.9860448">
  <ele>725.3</ele>
  <time>2026-09-01T20:00:15Z</time>
  <course>191.79</course>
  <speed>0.06</speed>
  <fix>3d</fix>
</trkpt>
<trkpt lat="-35.2850524" lon="148.9860445">
  <ele>725.2</ele>
  <time>2026-09-01T20:00:15Z</time>
  <course>199.61</course>
  <speed>0.03605551275463989</speed>
  <fix>3d</fix>
</trkpt>
<trkpt lat="-35.2850525" lon="148.9860448">
  <ele>725.3</ele>
  <time>2026-09-01T20:00:15Z</time>
  <course>191.79</course>
  <speed>0.06</speed>
  <fix>3d</fix>
</trkpt>
<trkpt lat="-35.2850524" lon="148.9860445">
  <ele>725.2</ele>
  <time>2026-09-01T20:00:15Z</time>
  <course>199.61</course>
  <speed>0.03605551275463989</speed>
  <fix>3d</fix>
</trkpt>
<trkpt lat="-35.2850526" lon="148.9860448">
  <ele>725.3</ele>
  <time>2026-09-01T20:00:15Z</time>
  <course>194.24</course>
  <speed>0.06</speed>
  <fix>3d</fix>
</trkpt>
<trkpt lat="-35.2850524" lon="148.9860445">
  <ele>725.2</ele>
  <time>2026-09-01T20:00:15Z</time>
  <course>199.61</course>
  <speed>0.03605551275463989</speed>
  <fix>3d</fix>
</trkpt>
<trkpt lat="-35.2850526" lon="148.9860448">
  <ele>725.3</ele>
  <time>2026-09-01T20:00:15Z</time>
  <course>194.24</course>
  <speed>0.06</speed>
  <fix>3d</fix>
</trkpt>
<trkpt lat="-35.2850525" lon="148.9860445">
  <ele>725.2</ele>
  <time>2026-09-01T20:00:15Z</time>
  <course>199.61</course>
  <speed>0.03605551275463989</speed>
  <fix>3d</fix>
</trkpt>
<trkpt lat="-35.2850527" lon="148.9860447">
  <ele>725.3</ele>
  <time>2026-09-01T20:00:15Z</time>
  <course>196.98</course>
  <speed>0.06</speed>
  <fix>3d</fix>
</trkpt>
<trkpt lat="-35.2850525" lon="148.9860445">
  <ele>725.2</ele>
  <time>2026-09-01T20:00:15Z</time>
  <course>199.61</course>
  <speed>0.0316227766016838</speed>
  <fix>3d</fix>
</trkpt>
<trkpt lat="-35.2850527" lon="148.9860447">
  <ele>725.3</ele>
  <time>2026-09-01T20:00:15Z</time>
  <course>196.98</course>
  <speed>0.06</speed>
  <fix>3d</fix>
</trkpt>
<trkpt lat="-35.2850526" lon="148.9860445">
  <ele>725.2</ele>
  <time>2026-09-01T20:00:15Z</time>
  <course>199.61</course>
  <speed>0.0316227766016838</speed>
  <fix>3d</fix>
</trkpt>
<trkpt lat="-35.2850528" lon="148.9860446">
  <ele>725.3</ele>
  <time>2026-09-01T20:00:15Z</time>
  <course>200.59</course>
  <speed>0.05</speed>
  <fix>3d</fix>
</trkpt>
<trkpt lat="-35.2850526" lon="148.9860444">
  <ele>725.2</ele>
  <time>2026-09-01T20:00:15Z</time>
  <course>199.61</course>
  <speed>0.0316227766016838</speed>
  <fix>3d</fix>
</trkpt>
<trkpt lat="-35.2850528" lon="148.9860446">
  <ele>725.3</ele>
  <time>2026-09-01T20:00:15Z</time>
  <course>200.59</course>
  <speed>0.05</speed>
  <fix>3d</fix>
</trkpt>
<trkpt lat="-35.2850527" lon="148.9860444">
  <ele>725.2</ele>
  <time>2026-09-01T20:00:15Z</time>
  <course>199.61</course>
  <speed>0.0316227766016838</speed>
  <fix>3d</fix>
</trkpt>
<trkpt lat="-35.2850529" lon="148.9860446">
  <ele>725.3</ele>
  <time>2026-09-01T20:00:15Z</time>
  <course>205.34</course>
  <speed>0.05</speed>
  <fix>3d</fix>
</trkpt>
<trkpt lat="-35.2850527" lon="148.9860444">
  <ele>725.19</ele>
  <time>2026-09-01T20:00:15Z</time>
  <course>199.62</course>
  <speed>0.04</speed>
  <fix>3d</fix>
</trkpt>
<trkpt lat="-35.2850529" lon="148.9860446">
  <ele>725.3</ele>
  <time>2026-09-01T20:00:15Z</time>
  <course>205.34</course>
  <speed>0.05</speed>
  <fix>3d</fix>
</trkpt>
<trkpt lat="-35.2850527" lon="148.9860444">
  <ele>725.19</ele>
  <time>2026-09-01T20:00:15Z</time>
  <course>199.61</course>
  <speed>0.04</speed>
  <fix>3d</fix>
</trkpt>
<trkpt lat="-35.285053" lon="148.9860446">
  <ele>725.31</ele>
  <time>2026-09-01T20:00:15Z</time>
  <course>210.61</course>
  <speed>0.04</speed>
  <fix>3d</fix>
</trkpt>
<trkpt lat="-35.2850528" lon="148.9860443">
  <ele>725.2</ele>
  <time>2026-09-01T20:00:15Z</time>
  <course>199.61</course>
  <speed>0.04</speed>
  <fix>3d</fix>
</trkpt>
<trkpt lat="-35.285053" lon="148.9860446">
  <ele>725.31</ele>
  <time>2026-09-01T20:00:15Z</time>
  <course>210.61</course>
  <speed>0.04</speed>
  <fix>3d</fix>
</trkpt>
<trkpt lat="-35.2850528" lon="148.9860443">
  <ele>725.2</ele>
  <time>2026-09-01T20:00:15Z</time>
  <course>199.61</course>
  <speed>0.04</speed>
  <fix>3d</fix>
</trkpt>
<trkpt lat="-35.285053" lon="148.9860445">
  <ele>725.31</ele>
  <time>2026-09-01T20:00:15Z</time>
  <course>215.9</course>
  <speed>0.04</speed>
  <fix>3d</fix>
</trkpt>
<trkpt lat="-35.2850528" lon="148.9860443">
  <ele>725.2</ele>
  <time>2026-09-01T20:00:15Z</time>
  <course>199.61</course>
  <speed>0.04</speed>
  <fix>3d</fix>
</trkpt>
<trkpt lat="-35.285053" lon="148.9860445">
  <ele>725.31</ele>
  <time>2026-09-01T20:00:15Z</time>
  <course>215.9</course>
  <speed>0.04</speed>
  <fix>3d</fix>
</trkpt>
<trkpt lat="-35.2850528" lon="148.9860443">
  <ele>725.2</ele>
  <time>2026-09-01T20:00:15Z</time>
  <course>199.61</course>
  <speed>0.04</speed>
  <fix>3d</fix>
</trkpt>
<trkpt lat="-35.2850531" lon="148.9860445">
  <ele>725.31</ele>
  <time>2026-09-01T20:00:15Z</time>
  <course>221.67</course>
  <speed>0.04</speed>
  <fix>3d</fix>
</trkpt>
<trkpt lat="-35.2850529" lon="148.9860442">
  <ele>725.21</ele>
  <time>2026-09-01T20:00:15Z</time>
  <course>199.61</course>
  <speed>0.04</speed>
  <fix>3d</fix>
</trkpt>
<trkpt lat="-35.2850531" lon="148.9860445">
  <ele>725.31</ele>
  <time>2026-09-01T20:00:15Z</time>
  <course>221.67</course>
  <speed>0.04</speed>
  <fix>3d</fix>
</trkpt>
<trkpt lat="-35.2850529" lon="148.9860442">
  <ele>725.21</ele>
  <time>2026-09-01T20:00:15Z</time>
  <course>199.61</course>
  <speed>0.0412310562561766</speed>
  <fix>3d</fix>
</trkpt>
<trkpt lat="-35.2850532" lon="148.9860444">
  <ele>725.32</ele>
  <time>2026-09-01T20:00:15Z</time>
  <course>228.32</course>
  <speed>0.03</speed>
  <fix>3d</fix>
</trkpt>
<trkpt lat="-35.2850529" lon="148.9860442">
  <ele>725.22</ele>
  <time>2026-09-01T20:00:15Z</time>
  <course>199.61</course>
  <speed>0.0412310562561766</speed>
  <fix>3d</fix>
</trkpt>
<trkpt lat="-35.2850532" lon="148.9860444">
  <ele>725.32</ele>
  <time>2026-09-01T20:00:15Z</time>
  <course>228.32</course>
  <speed>0.03</speed>
  <fix>3d</fix>
</trkpt>
<trkpt lat="-35.2850529" lon="148.9860442">
  <ele>725.22</ele>
  <time>2026-09-01T20:00:15Z</time>
  <course>199.61</course>
  <speed>0.0412310562561766</speed>
  <fix>3d</fix>
</trkpt>
<trkpt lat="-35.2850532" lon="148.9860444">
  <ele>725.32</ele>
  <time>2026-09-01T20:00:15Z</time>
  <course>235.67</course>
  <speed>0.03</speed>
  <fix>3d</fix>
</trkpt>
<trkpt lat="-35.2850529" lon="148.9860441">
  <ele>725.22</ele>
  <time>2026-09-01T20:00:15Z</time>
  <course>199.61</course>
  <speed>0.044721359549995794</speed>
  <fix>3d</fix>
</trkpt>
<trkpt lat="-35.2850532" lon="148.9860444">
  <ele>725.32</ele>
  <time>2026-09-01T20:00:15Z</time>
  <course>235.67</course>
  <speed>0.03</speed>
  <fix>3d</fix>
</trkpt>
<trkpt lat="-35.2850529" lon="148.9860441">
  <ele>725.22</ele>
  <time>2026-09-01T20:00:15Z</time>
  <course>199.62</course>
  <speed>0.044721359549995794</speed>
  <fix>3d</fix>
</trkpt>
<trkpt lat="-35.2850532" lon="148.9860443">
  <ele>725.32</ele>
  <time>2026-09-01T20:00:15Z</time>
  <course>244.9</course>
  <speed>0.03</speed>
  <fix>3d</fix>
</trkpt>
<trkpt lat="-35.2850529" lon="148.9860441">
  <ele>725.21</ele>
  <time>2026-09-01T20:00:15Z</time>
  <course>199.62</course>
  <speed>0.044721359549995794</speed>
  <fix>3d</fix>
</trkpt>
<trkpt lat="-35.2850532" lon="148.9860443">
  <ele>725.32</ele>
  <time>2026-09-01T20:00:15Z</time>
  <course>244.9</course>
  <speed>0.03</speed>
  <fix>3d</fix>
</trkpt>
<trkpt lat="-35.2850529" lon="148.9860441">
  <ele>725.21</ele>
  <time>2026-09-01T20:00:15Z</time>
  <course>199.62</course>
  <speed>0.04242640687119285</speed>
  <fix>3d</fix>
</trkpt>
<trkpt lat="-35.2850533" lon="148.9860442">
  <ele>725.32</ele>
  <time>2026-09-01T20:00:15Z</time>
  <course>257.34</course>
  <speed>0.02</speed>
  <fix>3d</fix>
</trkpt>
<trkpt lat="-35.2850529" lon="148.986044">
  <ele>725.21</ele>
  <time>2026-09-01T20:00:15Z</time>
  <course>199.62</course>
  <speed>0.04242640687119285</speed>
  <fix>3d</fix>
</trkpt>
<trkpt lat="-35.2850533" lon="148.9860442">
  <ele>725.32</ele>
  <time>2026-09-01T20:00:15Z</time>
  <course>257.34</course>
  <speed>0.02</speed>
  <fix>3d</fix>
</trkpt>
<trkpt lat="-35.285053" lon="148.986044">
  <ele>725.21</ele>
  <time>2026-09-01T20:00:15Z</time>
  <course>199.62</course>
  <speed>0.04242640687119285</speed>
  <fix>3d</fix>
</trkpt>
<trkpt lat="-35.2850533" lon="148.9860441">
  <ele>725.32</ele>
  <time>2026-09-01T20:00:15Z</time>
  <course>271.13</course>
  <speed>0.02</speed>
  <fix>3d</fix>
</trkpt>
<trkpt lat="-35.285053" lon="148.986044">
  <ele>725.21</ele>
  <time>2026-09-01T20:00:15Z</time>
  <course>199.62</course>
  <speed>0.04242640687119285</speed>
  <fix>3d</fix>
</trkpt>
<trkpt lat="-35.2850533" lon="148.9860441">
  <ele>725.32</ele>
  <time>2026-09-01T20:00:15Z</time>
  <course>271.13</course>
  <speed>0.02</speed>
  <fix>3d</fix>
</trkpt>
<trkpt lat="-35.285053" lon="148.9860439">
  <ele>725.21</ele>
  <time>2026-09-01T20:00:15Z</time>
  <course>199.61</course>
  <speed>0.05</speed>
  <fix>3d</fix>
</trkpt>
<trkpt lat="-35.2850533" lon="148.9860441">
  <ele>725.32</ele>
  <time>2026-09-01T20:00:15Z</time>
  <course>285.17</course>
  <speed>0.02</speed>
  <fix>3d</fix>
</trkpt>
<trkpt lat="-35.285053" lon="148.9860439">
  <ele>725.21</ele>
  <time>2026-09-01T20:00:15Z</time>
  <course>199.61</course>
  <speed>0.05</speed>
  <fix>3d</fix>
</trkpt>
<trkpt lat="-35.2850533" lon="148.9860441">
  <ele>725.32</ele>
  <time>2026-09-01T20:00:15Z</time>
  <course>285.17</course>
  <speed>0.02</speed>
  <fix>3d</fix>
</trkpt>
<trkpt lat="-35.285053" lon="148.9860439">
  <ele>725.21</ele>
  <time>2026-09-01T20:00:15Z</time>
  <course>199.61</course>
  <speed>0.05</speed>
  <fix>3d</fix>
</trkpt>
<trkpt lat="-35.2850533" lon="148.986044">
  <ele>725.32</ele>
  <time>2026-09-01T20:00:15Z</time>
  <course>300.37</course>
  <speed>0.02</speed>
  <fix>3d</fix>
</trkpt>
<trkpt lat="-35.285053" lon="148.9860439">
  <ele>725.21</ele>
  <time>2026-09-01T20:00:15Z</time>
  <course>199.61</course>
  <speed>0.044721359549995794</speed>
  <fix>3d</fix>
</trkpt>
<trkpt lat="-35.2850533" lon="148.986044">
  <ele>725.32</ele>
  <time>2026-09-01T20:00:15Z</time>
  <course>300.37</course>
  <speed>0.02</speed>
  <fix>3d</fix>
</trkpt>
<trkpt lat="-35.285053" lon="148.9860439">
  <ele>725.21</ele>
  <time>2026-09-01T20:00:15Z</time>
  <course>199.61</course>
  <speed>0.053851648071345036</speed>
  <fix>3d</fix>
</trkpt>
<trkpt lat="-35.2850533" lon="148.986044">
  <ele>725.32</ele>
  <time>2026-09-01T20:00:15Z</time>
  <course>315.95</course>
  <speed>0.02</speed>
  <fix>3d</fix>
</trkpt>
<trkpt lat="-35.285053" lon="148.9860438">
  <ele>725.21</ele>
  <time>2026-09-01T20:00:15Z</time>
  <course>199.61</course>
  <speed>0.053851648071345036</speed>
  <fix>3d</fix>
</trkpt>
<trkpt lat="-35.2850533" lon="148.986044">
  <ele>725.32</ele>
  <time>2026-09-01T20:00:15Z</time>
  <course>315.95</course>
  <speed>0.02</speed>
  <fix>3d</fix>
</trkpt>
<trkpt lat="-35.285053" lon="148.9860438">
  <ele>725.21</ele>
  <time>2026-09-01T20:00:15Z</time>
  <course>199.61</course>
  <speed>0.053851648071345036</speed>
  <fix>3d</fix>
</trkpt>
<trkpt lat="-35.2850533" lon="148.986044">
  <ele>725.31</ele>
  <time>2026-09-01T20:00:15Z</time>
  <course>329.99</course>
  <speed>0.02</speed>
  <fix>3d</fix>
</trkpt>
<trkpt lat="-35.2850529" lon="148.9860438">
  <ele>725.21</ele>
  <time>2026-09-01T20:00:15Z</time>
  <course>199.61</course>
  <speed>0.053851648071345036</speed>
  <fix>3d</fix>
</trkpt>
<trkpt lat="-35.2850533" lon="148.986044">
  <ele>725.31</ele>
  <time>2026-09-01T20:00:15Z</time>
  <course>329.99</course>
  <speed>0.02</speed>
  <fix>3d</fix>
</trkpt>
<trkpt lat="-35.2850529" lon="148.9860438">
  <ele>725.21</ele>
  <time>2026-09-01T20:00:15Z</time>
  <course>199.62</course>
  <speed>0.053851648071345036</speed>
  <fix>3d</fix>
</trkpt>
<trkpt lat="-35.2850532" lon="148.986044">
  <ele>725.31</ele>
  <time>2026-09-01T20:00:15Z</time>
  <course>340.78</course>
  <speed>0.03</speed>
  <fix>3d</fix>
</trkpt>
<trkpt lat="-35.2850529" lon="148.9860438">
  <ele>725.21</ele>
  <time>2026-09-01T20:00:15Z</time>
  <course>199.62</course>
  <speed>0.05099019513592785</speed>
  <fix>3d</fix>
</trkpt>
<trkpt lat="-35.2850532" lon="148.986044">
  <ele>725.31</ele>
  <time>2026-09-01T20:00:15Z</time>
  <course>340.78</course>
  <speed>0.03</speed>
  <fix>3d</fix>
</trkpt>
<trkpt lat="-35.2850529" lon="148.9860438">
  <ele>725.21</ele>
  <time>2026-09-01T20:00:15Z</time>
  <course>199.62</course>
  <speed>0.05099019513592785</speed>
  <fix>3d</fix>
</trkpt>
<trkpt lat="-35.2850531" lon="148.986044">
  <ele>725.31</ele>
  <time>2026-09-01T20:00:15Z</time>
  <course>348.68</course>
  <speed>0.03</speed>
  <fix>3d</fix>
</trkpt>
<trkpt lat="-35.2850529" lon="148.9860438">
  <ele>725.21</ele>
  <time>2026-09-01T20:00:15Z</time>
  <course>199.64</course>
  <speed>0.03</speed>
  <fix>3d</fix>
</trkpt>
<trkpt lat="-35.2850531" lon="148.986044">
  <ele>725.31</ele>
  <time>2026-09-01T20:00:15Z</time>
  <course>348.68</course>
  <speed>0.03</speed>
  <fix>3d</fix>
</trkpt>
<trkpt lat="-35.2850529" lon="148.9860438">
  <ele>725.21</ele>
  <time>2026-09-01T20:00:15Z</time>
  <course>199.7</course>
  <speed>0.11401754250991379</speed>
  <fix>3d</fix>
</trkpt>
<trkpt lat="-35.2850531" lon="148.9860439">
  <ele>725.31</ele>
  <time>2026-09-01T20:00:15Z</time>
  <course>301.9</course>
  <speed>0.01</speed>
  <fix>3d</fix>
</trkpt>
<trkpt lat="-35.285053" lon="148.9860437">
  <ele>725.21</ele>
  <time>2026-09-01T20:00:15Z</time>
  <course>199.83</course>
  <speed>0.28178005607210743</speed>
  <fix>3d</fix>
</trkpt>
<trkpt lat="-35.2850531" lon="148.9860439">
  <ele>725.31</ele>
  <time>2026-09-01T20:00:15Z</time>
  <course>301.9</course>
  <speed>0.01</speed>
  <fix>3d</fix>
</trkpt>
<trkpt lat="-35.2850534" lon="148.9860435">
  <ele>725.21</ele>
  <time>2026-09-01T20:00:15Z</time>
  <course>200.0</course>
  <speed>0.51478150704935</speed>
  <fix>3d</fix>
</trkpt>
<trkpt lat="-35.2850532" lon="148.9860438">
  <ele>725.31</ele>
  <time>2026-09-01T20:00:15Z</time>
  <course>204.35</course>
  <speed>0.15</speed>
  <fix>3d</fix>
</trkpt>
<trkpt lat="-35.2850539" lon="148.9860432">
  <ele>725.22</ele>
  <time>2026-09-01T20:00:15Z</time>
  <course>200.22</course>
  <speed>0.8062257748298549</speed>
  <fix>3d</fix>
</trkpt>
<trkpt lat="-35.2850532" lon="148.9860438">
  <ele>725.31</ele>
  <time>2026-09-01T20:00:15Z</time>
  <course>204.35</course>
  <speed>0.15</speed>
  <fix>3d</fix>
</trkpt>
<trkpt lat="-35.2850548" lon="148.9860428">
  <ele>725.22</ele>
  <time>2026-09-01T20:00:15Z</time>
  <course>200.36</course>
  <speed>1.155508546052343</speed>
  <fix>3d</fix>
</trkpt>
<trkpt lat="-35.2850537" lon="148.9860436">
  <ele>725.32</ele>
  <time>2026-09-01T20:00:15Z</time>
  <course>201.69</course>
  <speed>0.55</speed>
  <fix>3d</fix>
</trkpt>
<trkpt lat="-35.2850559" lon="148.9860422">
  <ele>725.22</ele>
  <time>2026-09-01T20:00:15Z</time>
  <course>200.41</course>
  <speed>1.5809490820390135</speed>
  <fix>3d</fix>
</trkpt>
<trkpt lat="-35.2850537" lon="148.9860436">
  <ele>725.32</ele>
  <time>2026-09-01T20:00:15Z</time>
  <course>201.69</course>
  <speed>0.55</speed>
  <fix>3d</fix>
</trkpt>
<trkpt lat="-35.2850575" lon="148.9860414">
  <ele>725.22</ele>
  <time>2026-09-01T20:00:15Z</time>
  <course>200.53</course>
  <speed>2.060218435020908</speed>
  <fix>3d</fix>
</trkpt>
<trkpt lat="-35.285055" lon="148.9860429">
  <ele>725.32</ele>
  <time>2026-09-01T20:00:15Z</time>
  <course>201.84</course>
  <speed>1.19</speed>
  <fix>3d</fix>
</trkpt>
<trkpt lat="-35.2850594" lon="148.9860404">
  <ele>725.22</ele>
  <time>2026-09-01T20:00:15Z</time>
  <course>200.73</course>
  <speed>2.5973062969160954</speed>
  <fix>3d</fix>
</trkpt>
<trkpt lat="-35.285055" lon="148.9860429">
  <ele>725.32</ele>
  <time>2026-09-01T20:00:15Z</time>
  <course>201.84</course>
  <speed>1.19</speed>
  <fix>3d</fix>
</trkpt>
<trkpt lat="-35.2850618" lon="148.9860392">
  <ele>725.23</ele>
  <time>2026-09-01T20:00:15Z</time>
  <course>200.85</course>
  <speed>3.2014059411452336</speed>
  <fix>3d</fix>
</trkpt>
<trkpt lat="-35.2850578" lon="148.9860415">
  <ele>725.32</ele>
  <time>2026-09-01T20:00:15Z</time>
  <course>202.29</course>
  <speed>2.08</speed>
  <fix>3d</fix>
</trkpt>
<trkpt lat="-35.2850647" lon="148.9860376">
  <ele>725.23</ele>
  <time>2026-09-01T20:00:15Z</time>
  <course>201.0</course>
  <speed>3.805522303179946</speed>
  <fix>3d</fix>
</trkpt>
<trkpt lat="-35.2850578" lon="148.9860415">
  <ele>725.32</ele>
  <time>2026-09-01T20:00:15Z</time>
  <course>202.29</course>
  <speed>2.08</speed>
  <fix>3d</fix>
</trkpt>
<trkpt lat="-35.2850682" lon="148.9860358">
  <ele>725.24</ele>
  <time>2026-09-01T20:00:15Z</time>
  <course>201.34</course>
  <speed>4.421911351440687</speed>
  <fix>3d</fix>
</trkpt>
<trkpt lat="-35.2850621" lon="148.9860393">
  <ele>725.32</ele>
  <time>2026-09-01T20:00:15Z</time>
  <course>202.79</course>
  <speed>3.19</speed>
  <fix>3d</fix>
</trkpt>
<trkpt lat="-35.285072" lon="148.9860336">
  <ele>725.24</ele>
  <time>2026-09-01T20:00:15Z</time>
  <course>201.97</course>
  <speed>5.042667944649935</speed>
  <fix>3d</fix>
</trkpt>
<trkpt lat="-35.2850621" lon="148.9860393">
  <ele>725.32</ele>
  <time>2026-09-01T20:00:15Z</time>
  <course>202.79</course>
  <speed>3.19</speed>
  <fix>3d</fix>
</trkpt>
<trkpt lat="-35.2850764" lon="148.9860312">
  <ele>725.25</ele>
  <time>2026-09-01T20:00:15Z</time>
  <course>202.81</course>
  <speed>5.6540693310216845</speed>
  <fix>3d</fix>
</trkpt>
<trkpt lat="-35.2850684" lon="148.986036">
  <ele>725.32</ele>
  <time>2026-09-01T20:00:15Z</time>
  <course>203.52</course>
  <speed>4.41</speed>
  <fix>3d</fix>
</trkpt>
<trkpt lat="-35.2850813" lon="148.9860284">
  <ele>725.26</ele>
  <time>2026-09-01T20:00:15Z</time>
  <course>203.77</course>
  <speed>6.2701275904083476</speed>
  <fix>3d</fix>
</trkpt>
<trkpt lat="-35.2850684" lon="148.986036">
  <ele>725.32</ele>
  <time>2026-09-01T20:00:15Z</time>
  <course>203.52</course>
  <speed>4.41</speed>
  <fix>3d</fix>
</trkpt>
<trkpt lat="-35.2850866" lon="148.9860252">
  <ele>725.27</ele>
  <time>2026-09-01T20:00:15Z</time>
  <course>204.72</course>
  <speed>6.882710221998308</speed>
  <fix>3d</fix>
</trkpt>
<trkpt lat="-35.2850767" lon="148.9860314">
  <ele>725.33</ele>
  <time>2026-09-01T20:00:15Z</time>
  <course>204.66</course>
  <speed>5.64</speed>
  <fix>3d</fix>
</trkpt>
<trkpt lat="-35.2850923" lon="148.9860216">
  <ele>725.27</ele>
  <time>2026-09-01T20:00:15Z</time>
  <course>205.72</course>
  <speed>7.497126116052738</speed>
  <fix>3d</fix>
</trkpt>
<trkpt lat="-35.2850767" lon="148.9860314">
  <ele>725.33</ele>
  <time>2026-09-01T20:00:15Z</time>
  <course>204.66</course>
  <speed>5.64</speed>
  <fix>3d</fix>
</trkpt>
<trkpt lat="-35.2850985" lon="148.9860176">
  <ele>725.28</ele>
  <time>2026-09-01T20:00:16Z</time>
  <course>206.98</course>
  <speed>8.096678331266471</speed>
  <fix>3d</fix>
</trkpt>
<trkpt lat="-35.2850869" lon="148.9860255">
  <ele>725.34</ele>
  <time>2026-09-01T20:00:16Z</time>
  <course>206.25</course>
  <speed>6.87</speed>
  <fix>3d</fix>
</trkpt>
<trkpt lat="-35.2851051" lon="148.9860131">
  <ele>725.28</ele>
  <time>2026-09-01T20:00:16Z</time>
  <course>208.32</course>
  <speed>8.709833523093309</speed>
  <fix>3d</fix>
</trkpt>
<trkpt lat="-35.2850869" lon="148.9860255">
  <ele>725.34</ele>
  <time>2026-09-01T20:00:16Z</time>
  <course>206.25</course>
  <speed>6.87</speed>
  <fix>3d</fix>
</trkpt>
<trkpt lat="-35.2851121" lon="148.9860081">
  <ele>725.28</ele>
  <time>2026-09-01T20:00:16Z</time>
  <course>209.77</course>
  <speed>9.315964791689588</speed>
  <fix>3d</fix>
</trkpt>
<trkpt lat="-35.2850988" lon="148.986018">
  <ele>725.35</ele>
  <time>2026-09-01T20:00:16Z</time>
  <course>208.29</course>
  <speed>8.09</speed>
  <fix>3d</fix>
</trkpt>
<trkpt lat="-35.2851195" lon="148.9860025">
  <ele>725.29</ele>
  <time>2026-09-01T20:00:16Z</time>
  <course>211.2</course>
  <speed>9.908486261785903</speed>
  <fix>3d</fix>
</trkpt>
<trkpt lat="-35.2850988" lon="148.986018">
  <ele>725.35</ele>
  <time>2026-09-01T20:00:16Z</time>
  <course>208.29</course>
  <speed>8.09</speed>
  <fix>3d</fix>
</trkpt>
<trkpt lat="-35.2851271" lon="148.9859965">
  <ele>725.29</ele>
  <time>2026-09-01T20:00:16Z</time>
  <course>212.69</course>
  <speed>10.492402012885325</speed>
  <fix>3d</fix>
</trkpt>
<trkpt lat="-35.2851124" lon="148.9860086">
  <ele>725.36</ele>
  <time>2026-09-01T20:00:16Z</time>
  <course>210.77</course>
  <speed>9.3</speed>
  <fix>3d</fix>
</trkpt>
<trkpt lat="-35.2851351" lon="148.9859898">
  <ele>725.31</ele>
  <time>2026-09-01T20:00:16Z</time>
  <course>214.18</course>
  <speed>11.052827692495708</speed>
  <fix>3d</fix>
</trkpt>
<trkpt lat="-35.2851124" lon="148.9860086">
  <ele>725.36</ele>
  <time>2026-09-01T20:00:16Z</time>
  <course>210.77</course>
  <speed>9.3</speed>
  <fix>3d</fix>
</trkpt>
<trkpt lat="-35.2851433" lon="148.9859826">
  <ele>725.32</ele>
  <time>2026-09-01T20:00:16Z</time>
  <course>215.75</course>
  <speed>11.608083390465456</speed>
  <fix>3d</fix>
</trkpt>
<trkpt lat="-35.2851275" lon="148.985997">
  <ele>725.37</ele>
  <time>2026-09-01T20:00:16Z</time>
  <course>213.57</course>
  <speed>10.47</speed>
  <fix>3d</fix>
</trkpt>
<trkpt lat="-35.2851517" lon="148.9859747">
  <ele>725.34</ele>
  <time>2026-09-01T20:00:16Z</time>
  <course>217.42</course>
  <speed>12.13939866714987</speed>
  <fix>3d</fix>
</trkpt>
<trkpt lat="-35.2851275" lon="148.985997">
  <ele>725.37</ele>
  <time>2026-09-01T20:00:16Z</time>
  <course>213.57</course>
  <speed>10.47</speed>
  <fix>3d</fix>
</trkpt>
<trkpt lat="-35.2851603" lon="148.9859662">
  <ele>725.37</ele>
  <time>2026-09-01T20:00:16Z</time>
  <course>219.07</course>
  <speed>12.660489721965735</speed>
  <fix>3d</fix>
</trkpt>
<trkpt lat="-35.2851437" lon="148.9859829">
  <ele>725.39</ele>
  <time>2026-09-01T20:00:16Z</time>
  <course>216.58</course>
  <speed>11.6</speed>
  <fix>3d</fix>
</trkpt>
<trkpt lat="-35.285169" lon="148.985957">
  <ele>725.39</ele>
  <time>2026-09-01T20:00:16Z</time>
  <course>220.59</course>
  <speed>13.167691521295598</speed>
  <fix>3d</fix>
</trkpt>
<trkpt lat="-35.2851437" lon="148.9859829">
  <ele>725.39</ele>
  <time>2026-09-01T20:00:16Z</time>
  <course>216.58</course>
  <speed>11.6</speed>
  <fix>3d</fix>
</trkpt>
<trkpt lat="-35.2851779" lon="148.9859472">
  <ele>725.43</ele>
  <time>2026-09-01T20:00:16Z</time>
  <course>222.01</course>
  <speed>13.661043151970496</speed>
  <fix>3d</fix>
</trkpt>
<trkpt lat="-35.2851608" lon="148.9859665">
  <ele>725.43</ele>
  <time>2026-09-01T20:00:16Z</time>
  <course>219.68</course>
  <speed>12.66</speed>
  <fix>3d</fix>
</trkpt>
<trkpt lat="-35.2851869" lon="148.9859367">
  <ele>725.47</ele>
  <time>2026-09-01T20:00:16Z</time>
  <course>223.33</course>
  <speed>14.142390179881193</speed>
  <fix>3d</fix>
</trkpt>
<trkpt lat="-35.2851608" lon="148.9859665">
  <ele>725.43</ele>
  <time>2026-09-01T20:00:16Z</time>
  <course>219.68</course>
  <speed>12.66</speed>
  <fix>3d</fix>
</trkpt>
<trkpt lat="-35.285196" lon="148.9859256">
  <ele>725.51</ele>
  <time>2026-09-01T20:00:16Z</time>
  <course>224.63</course>
  <speed>14.61156391355833</speed>
  <fix>3d</fix>
</trkpt>
<trkpt lat="-35.2851786" lon="148.9859473">
  <ele>725.49</ele>
  <time>2026-09-01T20:00:16Z</time>
  <course>222.77</course>
  <speed>13.67</speed>
  <fix>3d</fix>
</trkpt>
<trkpt lat="-35.2852051" lon="148.9859139">
  <ele>725.55</ele>
  <time>2026-09-01T20:00:16Z</time>
  <course>225.91</course>
  <speed>15.061288125522333</speed>
  <fix>3d</fix>
</trkpt>
<trkpt lat="-35.2851786" lon="148.9859473">
  <ele>725.49</ele>
  <time>2026-09-01T20:00:16Z</time>
  <course>222.77</course>
  <speed>13.67</speed>
  <fix>3d</fix>
</trkpt>
<trkpt lat="-35.2852142" lon="148.9859016">
  <ele>725.6</ele>
  <time>2026-09-01T20:00:16Z</time>
  <course>227.15</course>
  <speed>15.504966946111171</speed>
  <fix>3d</fix>
</trkpt>
<trkpt lat="-35.2851968" lon="148.9859256">
  <ele>725.57</ele>
  <time>2026-09-01T20:00:16Z</time>
  <course>225.73</course>
  <speed>14.63</speed>
  <fix>3d</fix>
</trkpt>
<trkpt lat="-35.2852235" lon="148.9858886">
  <ele>725.65</ele>
  <time>2026-09-01T20:00:16Z</time>
  <course>228.41</course>
  <speed>15.943211721607414</speed>
  <fix>3d</fix>
</trkpt>
<trkpt lat="-35.2851968" lon="148.9859256">
  <ele>725.57</ele>
  <time>2026-09-01T20:00:16Z</time>
  <course>225.73</course>
  <speed>14.63</speed>
  <fix>3d</fix>
</trkpt>
<trkpt lat="-35.2852327" lon="148.985875">
  <ele>725.69</ele>
  <time>2026-09-01T20:00:16Z</time>
  <course>229.76</course>
  <speed>16.360782377380367</speed>
  <fix>3d</fix>
</trkpt>
<trkpt lat="-35.2852153" lon="148.9859013">
  <ele>725.65</ele>
  <time>2026-09-01T20:00:16Z</time>
  <course>228.47</course>
  <speed>15.54</speed>
  <fix>3d</fix>
</trkpt>
<trkpt lat="-35.2852419" lon="148.9858608">
  <ele>725.73</ele>
  <time>2026-09-01T20:00:16Z</time>
  <course>231.03</course>
  <speed>16.751193987295352</speed>
  <fix>3d</fix>
</trkpt>
<trkpt lat="-35.2852153" lon="148.9859013">
  <ele>725.65</ele>
  <time>2026-09-01T20:00:16Z</time>
  <course>228.47</course>
  <speed>15.54</speed>
  <fix>3d</fix>
</trkpt>
<trkpt lat="-35.2852511" lon="148.985846">
  <ele>725.77</ele>
  <time>2026-09-01T20:00:16Z</time>
  <course>232.31</course>
  <speed>17.078624066358508</speed>
  <fix>3d</fix>
</trkpt>
<trkpt lat="-35.2852338" lon="148.9858744">
  <ele>725.74</ele>
  <time>2026-09-01T20:00:16Z</time>
  <course>231.0</course>
  <speed>16.39</speed>
  <fix>3d</fix>
</trkpt>
<trkpt lat="-35.2852603" lon="148.9858306">
  <ele>725.8</ele>
  <time>2026-09-01T20:00:16Z</time>
  <course>233.53</course>
  <speed>17.375963282649973</speed>
  <fix>3d</fix>
</trkpt>
<trkpt lat="-35.2852338" lon="148.9858744">
  <ele>725.74</ele>
  <time>2026-09-01T20:00:16Z</time>
  <course>231.0</course>
  <speed>16.39</speed>
  <fix>3d</fix>
</trkpt>
<trkpt lat="-35.2852693" lon="148.9858147">
  <ele>725.84</ele>
  <time>2026-09-01T20:00:16Z</time>
  <course>234.66</course>
  <speed>17.639591832012442</speed>
  <fix>3d</fix>
</trkpt>
<trkpt lat="-35.2852523" lon="148.9858451">
  <ele>725.82</ele>
  <time>2026-09-01T20:00:16Z</time>
  <course>233.44</course>
  <speed>17.12</speed>
  <fix>3d</fix>
</trkpt>
<trkpt lat="-35.2852781" lon="148.9857985">
  <ele>725.88</ele>
  <time>2026-09-01T20:00:16Z</time>
  <course>235.79</course>
  <speed>17.85582537997054</speed>
  <fix>3d</fix>
</trkpt>
<trkpt lat="-35.2852523" lon="148.9858451">
  <ele>725.82</ele>
  <time>2026-09-01T20:00:16Z</time>
  <course>233.44</course>
  <speed>17.12</speed>
  <fix>3d</fix>
</trkpt>
<trkpt lat="-35.2852867" lon="148.9857818">
  <ele>725.92</ele>
  <time>2026-09-01T20:00:16Z</time>
  <course>236.99</course>
  <speed>18.047384852105303</speed>
  <fix>3d</fix>
</trkpt>
<trkpt lat="-35.2852704" lon="148.9858139">
  <ele>725.89</ele>
  <time>2026-09-01T20:00:16Z</time>
  <course>235.9</course>
  <speed>17.68</speed>
  <fix>3d</fix>
</trkpt>
<trkpt lat="-35.2852951" lon="148.9857647">
  <ele>725.96</ele>
  <time>2026-09-01T20:00:16Z</time>
  <course>238.35</course>
  <speed>18.232262613290757</speed>
  <fix>3d</fix>
</trkpt>
<trkpt lat="-35.2852704" lon="148.9858139">
  <ele>725.89</ele>
  <time>2026-09-01T20:00:16Z</time>
  <course>235.9</course>
  <speed>17.68</speed>
  <fix>3d</fix>
</trkpt>
<trkpt lat="-35.2853032" lon="148.9857473">
  <ele>726.01</ele>
  <time>2026-09-01T20:00:16Z</time>
  <course>239.81</course>
  <speed>18.407981964354484</speed>
  <fix>3d</fix>
</trkpt>
<trkpt lat="-35.2852879" lon="148.9857808">
  <ele>725.97</ele>
  <time>2026-09-01T20:00:16Z</time>
  <course>238.41</course>
  <speed>18.11</speed>
  <fix>3d</fix>
</trkpt>
<trkpt lat="-35.2853111" lon="148.9857294">
  <ele>726.06</ele>
  <time>2026-09-01T20:00:16Z</time>
  <course>241.41</course>
  <speed>18.574783982593175</speed>
  <fix>3d</fix>
</trkpt>
<trkpt lat="-35.2852879" lon="148.9857808">
  <ele>725.97</ele>
  <time>2026-09-01T20:00:16Z</time>
  <course>238.41</course>
  <speed>18.11</speed>
  <fix>3d</fix>
</trkpt>
<trkpt lat="-35.2853187" lon="148.9857111">
  <ele>726.11</ele>
  <time>2026-09-01T20:00:16Z</time>
  <course>243.02</course>
  <speed>18.7439510242638</speed>
  <fix>3d</fix>
</trkpt>
<trkpt lat="-35.2853044" lon="148.9857461">
  <ele>726.06</ele>
  <time>2026-09-01T20:00:16Z</time>
  <course>241.05</course>
  <speed>18.47</speed>
  <fix>3d</fix>
</trkpt>
<trkpt lat="-35.2853259" lon="148.9856924">
  <ele>726.16</ele>
  <time>2026-09-01T20:00:16Z</time>
  <course>244.7</course>
  <speed>18.909177665884894</speed>
  <fix>3d</fix>
</trkpt>
<trkpt lat="-35.2853044" lon="148.9857461">
  <ele>726.06</ele>
  <time>2026-09-01T20:00:16Z</time>
  <course>241.05</course>
  <speed>18.47</speed>
  <fix>3d</fix>
</trkpt>
<trkpt lat="-35.2853328" lon="148.9856733">
  <ele>726.21</ele>
  <time>2026-09-01T20:00:16Z</time>
  <course>246.42</course>
  <speed>19.065384863673746</speed>
  <fix>3d</fix>
</trkpt>
<trkpt lat="-35.2853199" lon="148.9857097">
  <ele>726.16</ele>
  <time>2026-09-01T20:00:16Z</time>
  <course>243.96</course>
  <speed>18.81</speed>
  <fix>3d</fix>
</trkpt>
<trkpt lat="-35.2853392" lon="148.9856538">
  <ele>726.26</ele>
  <time>2026-09-01T20:00:16Z</time>
  <course>248.34</course>
  <speed>19.220647751831883</speed>
  <fix>3d</fix>
</trkpt>
<trkpt lat="-35.2853199" lon="148.9857097">
  <ele>726.16</ele>
  <time>2026-09-01T20:00:16Z</time>
  <course>243.96</course>
  <speed>18.81</speed>
  <fix>3d</fix>
</trkpt>
<trkpt lat="-35.2853452" lon="148.9856338">
  <ele>726.31</ele>
  <time>2026-09-01T20:00:16Z</time>
  <course>250.29</course>
  <speed>19.388401171834673</speed>
  <fix>3d</fix>
</trkpt>
<trkpt lat="-35.2853339" lon="148.9856717">
  <ele>726.26</ele>
  <time>2026-09-01T20:00:16Z</time>
  <course>247.27</course>
  <speed>19.13</speed>
  <fix>3d</fix>
</trkpt>
<trkpt lat="-35.2853506" lon="148.9856135">
  <ele>726.36</ele>
  <time>2026-09-01T20:00:16Z</time>
  <course>252.35</course>
  <speed>19.55116364823332</speed>
  <fix>3d</fix>
</trkpt>
<trkpt lat="-35.2853339" lon="148.9856717">
  <ele>726.26</ele>
  <time>2026-09-01T20:00:16Z</time>
  <course>247.27</course>
  <speed>19.13</speed>
  <fix>3d</fix>
</trkpt>
<trkpt lat="-35.2853554" lon="148.9855927">
  <ele>726.41</ele>
  <time>2026-09-01T20:00:16Z</time>
  <course>254.49</course>
  <speed>19.704479186215504</speed>
  <fix>3d</fix>
</trkpt>
<trkpt lat="-35.2853463" lon="148.985632">
  <ele>726.37</ele>
  <time>2026-09-01T20:00:16Z</time>
  <course>251.05</course>
  <speed>19.45</speed>
  <fix>3d</fix>
</trkpt>
<trkpt lat="-35.2853596" lon="148.9855715">
  <ele>726.46</ele>
  <time>2026-09-01T20:00:16Z</time>
  <course>256.75</course>
  <speed>19.865573236128878</speed>
  <fix>3d</fix>
</trkpt>
<trkpt lat="-35.2853463" lon="148.985632">
  <ele>726.37</ele>
  <time>2026-09-01T20:00:16Z</time>
  <course>251.05</course>
  <speed>19.45</speed>
  <fix>3d</fix>
</trkpt>
<trkpt lat="-35.2853632" lon="148.98555">
  <ele>726.51</ele>
  <time>2026-09-01T20:00:16Z</time>
  <course>259.06</course>
  <speed>20.029363444702877</speed>
  <fix>3d</fix>
</trkpt>
<trkpt lat="-35.2853565" lon="148.9855907">
  <ele>726.47</ele>
  <time>2026-09-01T20:00:16Z</time>
  <course>255.29</course>
  <speed>19.76</speed>
  <fix>3d</fix>
</trkpt>
<trkpt lat="-35.285366" lon="148.9855284">
  <ele>726.56</ele>
  <time>2026-09-01T20:00:16Z</time>
  <course>261.33</course>
  <speed>20.182096025933483</speed>
  <fix>3d</fix>
</trkpt>
<trkpt lat="-35.2853565" lon="148.9855907">
  <ele>726.47</ele>
  <time>2026-09-01T20:00:16Z</time>
  <course>255.29</course>
  <speed>19.76</speed>
  <fix>3d</fix>
</trkpt>
<trkpt lat="-35.2853681" lon="148.9855062">
  <ele>726.6</ele>
  <time>2026-09-01T20:00:16Z</time>
  <course>263.74</course>
  <speed>20.337170402983794</speed>
  <fix>3d</fix>
</trkpt>
<trkpt lat="-35.2853642" lon="148.9855479">
  <ele>726.56</ele>
  <time>2026-09-01T20:00:16Z</time>
  <course>259.93</course>
  <speed>20.07</speed>
  <fix>3d</fix>
</trkpt>
<trkpt lat="-35.2853693" lon="148.9854838">
  <ele>726.64</ele>
  <time>2026-09-01T20:00:16Z</time>
  <course>266.24</course>
  <speed>20.498470674662535</speed>
  <fix>3d</fix>
</trkpt>
<trkpt lat="-35.2853642" lon="148.9855479">
  <ele>726.56</ele>
  <time>2026-09-01T20:00:16Z</time>
  <course>259.93</course>
  <speed>20.07</speed>
  <fix>3d</fix>
</trkpt>
<trkpt lat="-35.2853698" lon="148.9854612">
  <ele>726.68</ele>
  <time>2026-09-01T20:00:16Z</time>
  <course>268.81</course>
  <speed>20.650038740883755</speed>
  <fix>3d</fix>
</trkpt>
<trkpt lat="-35.285369" lon="148.9855038">
  <ele>726.65</ele>
  <time>2026-09-01T20:00:16Z</time>
  <course>264.86</course>
  <speed>20.38</speed>
  <fix>3d</fix>
</trkpt>
<trkpt lat="-35.2853694" lon="148.9854382">
  <ele>726.72</ele>
  <time>2026-09-01T20:00:16Z</time>
  <course>271.37</course>
  <speed>20.814036129496845</speed>
  <fix>3d</fix>
</trkpt>
<trkpt lat="-35.285369" lon="148.9855038">
  <ele>726.65</ele>
  <time>2026-09-01T20:00:16Z</time>
  <course>264.86</course>
  <speed>20.38</speed>
  <fix>3d</fix>
</trkpt>
<trkpt lat="-35.2853682" lon="148.9854152">
  <ele>726.75</ele>
  <time>2026-09-01T20:00:16Z</time>
  <course>273.99</course>
  <speed>20.973669206888907</speed>
  <fix>3d</fix>
</trkpt>
<trkpt lat="-35.2853707" lon="148.9854585">
  <ele>726.74</ele>
  <time>2026-09-01T20:00:16Z</time>
  <course>270.01</course>
  <speed>20.69</speed>
  <fix>3d</fix>
</trkpt>
<trkpt lat="-35.2853661" lon="148.9853922">
  <ele>726.78</ele>
  <time>2026-09-01T20:00:16Z</time>
  <course>276.64</course>
  <speed>21.13967360202139</speed>
  <fix>3d</fix>
</trkpt>
<trkpt lat="-35.2853707" lon="148.9854585">
  <ele>726.74</ele>
  <time>2026-09-01T20:00:16Z</time>
  <course>270.01</course>
  <speed>20.69</speed>
  <fix>3d</fix>
</trkpt>
<trkpt lat="-35.285363" lon="148.9853683">
  <ele>726.8</ele>
  <time>2026-09-01T20:00:16Z</time>
  <course>279.38</course>
  <speed>21.300856790279585</speed>
  <fix>3d</fix>
</trkpt>
<trkpt lat="-35.2853689" lon="148.9854126">
  <ele>726.81</ele>
  <time>2026-09-01T20:00:16Z</time>
  <course>275.3</course>
  <speed>21.0</speed>
  <fix>3d</fix>
</trkpt>
<trkpt lat="-35.285359" lon="148.9853453">
  <ele>726.82</ele>
  <time>2026-09-01T20:00:16Z</time>
  <course>282.06</course>
  <speed>21.460223670782185</speed>
  <fix>3d</fix>
</trkpt>
<trkpt lat="-35.2853637" lon="148.9853666">
  <ele>726.86</ele>
  <time>2026-09-01T20:00:16Z</time>
  <course>280.68</course>
  <speed>21.31</speed>
  <fix>3d</fix>
</trkpt>
<trkpt lat="-35.2853542" lon="148.9853226">
  <ele>726.84</ele>
  <time>2026-09-01T20:00:16Z</time>
  <course>284.75</course>
  <speed>21.61960684193864</speed>
  <fix>3d</fix>
</trkpt>
<trkpt lat="-35.2853637" lon="148.9853666">
  <ele>726.86</ele>
  <time>2026-09-01T20:00:16Z</time>
  <course>280.68</course>
  <speed>21.31</speed>
  <fix>3d</fix>
</trkpt>
<trkpt lat="-35.2853484" lon="148.9852998">
  <ele>726.85</ele>
  <time>2026-09-01T20:00:16Z</time>
  <course>287.48</course>
  <speed>21.779763543252717</speed>
  <fix>3d</fix>
</trkpt>
<trkpt lat="-35.2853548" lon="148.9853206">
  <ele>726.89</ele>
  <time>2026-09-01T20:00:16Z</time>
  <course>286.13</course>
  <speed>21.62</speed>
  <fix>3d</fix>
</trkpt>
<trkpt lat="-35.2853417" lon="148.9852773">
  <ele>726.85</ele>
  <time>2026-09-01T20:00:16Z</time>
  <course>290.2</course>
  <speed>21.93619155642109</speed>
  <fix>3d</fix>
</trkpt>
<trkpt lat="-35.2853548" lon="148.9853206">
  <ele>726.89</ele>
  <time>2026-09-01T20:00:16Z</time>
  <course>286.13</course>
  <speed>21.62</speed>
  <fix>3d</fix>
</trkpt>
<trkpt lat="-35.285334" lon="148.985255">
  <ele>726.85</ele>
  <time>2026-09-01T20:00:16Z</time>
  <course>292.98</course>
  <speed>22.08801711335809</speed>
  <fix>3d</fix>
</trkpt>
<trkpt lat="-35.2853421" lon="148.9852753">
  <ele>726.91</ele>
  <time>2026-09-01T20:00:16Z</time>
  <course>291.65</course>
  <speed>21.93</speed>
  <fix>3d</fix>
</trkpt>
<trkpt lat="-35.2853255" lon="148.9852334">
  <ele>726.84</ele>
  <time>2026-09-01T20:00:16Z</time>
  <course>295.7</course>
  <speed>22.23730199462156</speed>
  <fix>3d</fix>
</trkpt>
<trkpt lat="-35.2853421" lon="148.9852753">
  <ele>726.91</ele>
  <time>2026-09-01T20:00:16Z</time>
  <course>291.65</course>
  <speed>21.93</speed>
  <fix>3d</fix>
</trkpt>
<trkpt lat="-35.285316" lon="148.9852118">
  <ele>726.83</ele>
  <time>2026-09-01T20:00:16Z</time>
  <course>298.43</course>
  <speed>22.39358836810215</speed>
  <fix>3d</fix>
</trkpt>
<trkpt lat="-35.2853421" lon="148.9852753">
  <ele>726.91</ele>
  <time>2026-09-01T20:00:16Z</time>
  <course>291.65</course>
  <speed>21.93</speed>
  <fix>3d</fix>
</trkpt>
<trkpt lat="-35.2853056" lon="148.9851907">
  <ele>726.81</ele>
  <time>2026-09-01T20:00:16Z</time>
  <course>301.18</course>
  <speed>22.540008873112715</speed>
  <fix>3d</fix>
</trkpt>
<trkpt lat="-35.2853257" lon="148.9852311">
  <ele>726.9</ele>
  <time>2026-09-01T20:00:16Z</time>
  <course>297.21</course>
  <speed>22.24</speed>
  <fix>3d</fix>
</trkpt>
<trkpt lat="-35.2852943" lon="148.9851701">
  <ele>726.78</ele>
  <time>2026-09-01T20:00:16Z</time>
  <course>303.9</course>
  <speed>22.685733402294932</speed>
  <fix>3d</fix>
</trkpt>
<trkpt lat="-35.2853257" lon="148.9852311">
  <ele>726.9</ele>
  <time>2026-09-01T20:00:16Z</time>
  <course>297.21</course>
  <speed>22.24</speed>
  <fix>3d</fix>
</trkpt>
<trkpt lat="-35.2852821" lon="148.98515">
  <ele>726.75</ele>
  <time>2026-09-01T20:00:16Z</time>
  <course>306.6</course>
  <speed>22.831419141174734</speed>
  <fix>3d</fix>
</trkpt>
<trkpt lat="-35.2853056" lon="148.9851884">
  <ele>726.88</ele>
  <time>2026-09-01T20:00:16Z</time>
  <course>302.77</course>
  <speed>22.53</speed>
  <fix>3d</fix>
</trkpt>
<trkpt lat="-35.2852691" lon="148.9851306">
  <ele>726.72</ele>
  <time>2026-09-01T20:00:16Z</time>
  <course>309.3</course>
  <speed>22.97151496963141</speed>
  <fix>3d</fix>
</trkpt>
<trkpt lat="-35.2853056" lon="148.9851884">
  <ele>726.88</ele>
  <time>2026-09-01T20:00:16Z</time>
  <course>302.77</course>
  <speed>22.53</speed>
  <fix>3d</fix>
</trkpt>
<trkpt lat="-35.2852553" lon="148.9851119">
  <ele>726.68</ele>
  <time>2026-09-01T20:00:16Z</time>
  <course>311.98</course>
  <speed>23.106633246754058</speed>
  <fix>3d</fix>
</trkpt>
<trkpt lat="-35.2852819" lon="148.9851478">
  <ele>726.82</ele>
  <time>2026-09-01T20:00:16Z</time>
  <course>308.29</course>
  <speed>22.82</speed>
  <fix>3d</fix>
</trkpt>
<trkpt lat="-35.2852406" lon="148.9850938">
  <ele>726.63</ele>
  <time>2026-09-01T20:00:16Z</time>
  <course>314.6</course>
  <speed>23.235870975713393</speed>
  <fix>3d</fix>
</trkpt>
<trkpt lat="-35.2852819" lon="148.9851478">
  <ele>726.82</ele>
  <time>2026-09-01T20:00:16Z</time>
  <course>308.29</course>
  <speed>22.82</speed>
  <fix>3d</fix>
</trkpt>
<trkpt lat="-35.2852254" lon="148.9850767">
  <ele>726.58</ele>
  <time>2026-09-01T20:00:16Z</time>
  <course>317.21</course>
  <speed>23.358349684855735</speed>
  <fix>3d</fix>
</trkpt>
<trkpt lat="-35.2852548" lon="148.9851097">
  <ele>726.75</ele>
  <time>2026-09-01T20:00:16Z</time>
  <course>313.75</course>
  <speed>23.1</speed>
  <fix>3d</fix>
</trkpt>
<trkpt lat="-35.2852092" lon="148.9850603">
  <ele>726.53</ele>
  <time>2026-09-01T20:00:16Z</time>
  <course>319.77</course>
  <speed>23.481213767605794</speed>
  <fix>3d</fix>
</trkpt>
<trkpt lat="-35.2852548" lon="148.9851097">
  <ele>726.75</ele>
  <time>2026-09-01T20:00:16Z</time>
  <course>313.75</course>
  <speed>23.1</speed>
  <fix>3d</fix>
</trkpt>
<trkpt lat="-35.2851925" lon="148.9850446">
  <ele>726.47</ele>
  <time>2026-09-01T20:00:16Z</time>
  <course>322.33</course>
  <speed>23.600720327989993</speed>
  <fix>3d</fix>
</trkpt>
<trkpt lat="-35.2852246" lon="148.9850745">
  <ele>726.65</ele>
  <time>2026-09-01T20:00:16Z</time>
  <course>319.1</course>
  <speed>23.36</speed>
  <fix>3d</fix>
</trkpt>
<trkpt lat="-35.285175" lon="148.9850298">
  <ele>726.4</ele>
  <time>2026-09-01T20:00:16Z</time>
  <course>324.8</course>
  <speed>23.717143588552144</speed>
  <fix>3d</fix>
</trkpt>
<trkpt lat="-35.2852246" lon="148.9850745">
  <ele>726.65</ele>
  <time>2026-09-01T20:00:16Z</time>
  <course>319.1</course>
  <speed>23.36</speed>
  <fix>3d</fix>
</trkpt>
<trkpt lat="-35.2851568" lon="148.9850158">
  <ele>726.34</ele>
  <time>2026-09-01T20:00:16Z</time>
  <course>327.24</course>
  <speed>23.826575498799652</speed>
  <fix>3d</fix>
</trkpt>
<trkpt lat="-35.2851914" lon="148.9850425">
  <ele>726.54</ele>
  <time>2026-09-01T20:00:16Z</time>
  <course>324.33</course>
  <speed>23.6</speed>
  <fix>3d</fix>
</trkpt>
<trkpt lat="-35.2851382" lon="148.9850028">
  <ele>726.26</ele>
  <time>2026-09-01T20:00:16Z</time>
  <course>329.61</course>
  <speed>23.923080905268034</speed>
  <fix>3d</fix>
</trkpt>
<trkpt lat="-35.2851914" lon="148.9850425">
  <ele>726.54</ele>
  <time>2026-09-01T20:00:16Z</time>
  <course>324.33</course>
  <speed>23.6</speed>
  <fix>3d</fix>
</trkpt>
<trkpt lat="-35.2851191" lon="148.9849907">
  <ele>726.18</ele>
  <time>2026-09-01T20:00:16Z</time>
  <course>331.86</course>
  <speed>24.025863147866303</speed>
  <fix>3d</fix>
</trkpt>
<trkpt lat="-35.2851556" lon="148.9850139">
  <ele>726.41</ele>
  <time>2026-09-01T20:00:16Z</time>
  <course>329.35</course>
  <speed>23.83</speed>
  <fix>3d</fix>
</trkpt>
<trkpt lat="-35.2850988" lon="148.9849792">
  <ele>726.09</ele>
  <time>2026-09-01T20:00:16Z</time>
  <course>334.15</course>
  <speed>24.133315147322797</speed>
  <fix>3d</fix>
</trkpt>
<trkpt lat="-35.2851177" lon="148.984989">
  <ele>726.25</ele>
  <time>2026-09-01T20:00:16Z</time>
  <course>334.13</course>
  <speed>24.05</speed>
  <fix>3d</fix>
</trkpt>
<trkpt lat="-35.2850789" lon="148.984969">
  <ele>726.01</ele>
  <time>2026-09-01T20:00:16Z</time>
  <course>336.28</course>
  <speed>24.226483442712027</speed>
  <fix>3d</fix>
</trkpt>
<trkpt lat="-35.2851177" lon="148.984989">
  <ele>726.25</ele>
  <time>2026-09-01T20:00:16Z</time>
  <course>334.13</course>
  <speed>24.05</speed>
  <fix>3d</fix>
</trkpt>
<trkpt lat="-35.2850585" lon="148.9849597">
  <ele>725.91</ele>
  <time>2026-09-01T20:00:16Z</time>
  <course>338.27</course>
  <speed>24.320402957188026</speed>
  <fix>3d</fix>
</trkpt>
<trkpt lat="-35.285078" lon="148.9849678">
  <ele>726.07</ele>
  <time>2026-09-01T20:00:16Z</time>
  <course>338.62</course>
  <speed>24.24</speed>
  <fix>3d</fix>
</trkpt>
<trkpt lat="-35.2850377" lon="148.9849512">
  <ele>725.82</ele>
  <time>2026-09-01T20:00:16Z</time>
  <course>340.21</course>
  <speed>24.405511672571016</speed>
  <fix>3d</fix>
</trkpt>
<trkpt lat="-35.285078" lon="148.9849678">
  <ele>726.07</ele>
  <time>2026-09-01T20:00:16Z</time>
  <course>338.62</course>
  <speed>24.24</speed>
  <fix>3d</fix>
</trkpt>
<trkpt lat="-35.2850167" lon="148.9849436">
  <ele>725.72</ele>
  <time>2026-09-01T20:00:16Z</time>
  <course>342.09</course>
  <speed>24.487466181702015</speed>
  <fix>3d</fix>
</trkpt>
<trkpt lat="-35.2850367" lon="148.9849501">
  <ele>725.89</ele>
  <time>2026-09-01T20:00:16Z</time>
  <course>342.78</course>
  <speed>24.42</speed>
  <fix>3d</fix>
</trkpt>
<trkpt lat="-35.2849953" lon="148.9849368">
  <ele>725.61</ele>
  <time>2026-09-01T20:00:16Z</time>
  <course>343.94</course>
  <speed>24.560580204873013</speed>
  <fix>3d</fix>
</trkpt>
<trkpt lat="-35.2850367" lon="148.9849501">
  <ele>725.89</ele>
  <time>2026-09-01T20:00:16Z</time>
  <course>342.78</course>
  <speed>24.42</speed>
  <fix>3d</fix>
</trkpt>
<trkpt lat="-35.2849736" lon="148.9849309">
  <ele>725.5</ele>
  <time>2026-09-01T20:00:16Z</time>
  <course>345.7</course>
  <speed>24.636513552043034</speed>
  <fix>3d</fix>
</trkpt>
<trkpt lat="-35.2849942" lon="148.9849359">
  <ele>725.69</ele>
  <time>2026-09-01T20:00:16Z</time>
  <course>346.6</course>
  <speed>24.58</speed>
  <fix>3d</fix>
</trkpt>
<trkpt lat="-35.2849518" lon="148.9849257">
  <ele>725.38</ele>
  <time>2026-09-01T20:00:16Z</time>
  <course>347.36</course>
  <speed>24.709981788742784</speed>
  <fix>3d</fix>
</trkpt>
<trkpt lat="-35.2849942" lon="148.9849359">
  <ele>725.69</ele>
  <time>2026-09-01T20:00:16Z</time>
  <course>346.6</course>
  <speed>24.58</speed>
  <fix>3d</fix>
</trkpt>
<trkpt lat="-35.2849298" lon="148.9849213">
  <ele>725.26</ele>
  <time>2026-09-01T20:00:16Z</time>
  <course>348.94</course>
  <speed>24.771519937218226</speed>
  <fix>3d</fix>
</trkpt>
<trkpt lat="-35.2849509" lon="148.984925">
  <ele>725.47</ele>
  <time>2026-09-01T20:00:16Z</time>
  <course>350.09</course>
  <speed>24.72</speed>
  <fix>3d</fix>
</trkpt>
<trkpt lat="-35.2849077" lon="148.9849177">
  <ele>725.14</ele>
  <time>2026-09-01T20:00:16Z</time>
  <course>350.38</course>
  <speed>24.835822917713035</speed>
  <fix>3d</fix>
</trkpt>
<trkpt lat="-35.2849509" lon="148.984925">
  <ele>725.47</ele>
  <time>2026-09-01T20:00:16Z</time>
  <course>350.09</course>
  <speed>24.72</speed>
  <fix>3d</fix>
</trkpt>
<trkpt lat="-35.2848855" lon="148.9849147">
  <ele>725.02</ele>
  <time>2026-09-01T20:00:16Z</time>
  <course>351.75</course>
  <speed>24.90019477835465</speed>
  <fix>3d</fix>
</trkpt>
<trkpt lat="-35.2849068" lon="148.9849171">
  <ele>725.24</ele>
  <time>2026-09-01T20:00:16Z</time>
  <course>353.23</course>
  <speed>24.85</speed>
  <fix>3d</fix>
</trkpt>
<trkpt lat="-35.2848632" lon="148.9849124">
  <ele>724.9</ele>
  <time>2026-09-01T20:00:16Z</time>
  <course>353.08</course>
  <speed>24.95214820411261</speed>
  <fix>3d</fix>
</trkpt>
<trkpt lat="-35.2849068" lon="148.9849171">
  <ele>725.24</ele>
  <time>2026-09-01T20:00:16Z</time>
  <course>353.23</course>
  <speed>24.85</speed>
  <fix>3d</fix>
</trkpt>
<trkpt lat="-35.2848413" lon="148.9849108">
  <ele>724.78</ele>
  <time>2026-09-01T20:00:16Z</time>
  <course>354.32</course>
  <speed>25.010757685444077</speed>
  <fix>3d</fix>
</trkpt>
<trkpt lat="-35.2849068" lon="148.9849171">
  <ele>725.24</ele>
  <time>2026-09-01T20:00:16Z</time>
  <course>353.23</course>
  <speed>24.85</speed>
  <fix>3d</fix>
</trkpt>
<trkpt lat="-35.2848188" lon="148.9849097">
  <ele>724.65</ele>
  <time>2026-09-01T20:00:16Z</time>
  <course>355.52</course>
  <speed>25.06063446922284</speed>
  <fix>3d</fix>
</trkpt>
<trkpt lat="-35.2848623" lon="148.984912">
  <ele>724.99</ele>
  <time>2026-09-01T20:00:16Z</time>
  <course>356.01</course>
  <speed>24.97</speed>
  <fix>3d</fix>
</trkpt>
<trkpt lat="-35.2847965" lon="148.9849091">
  <ele>724.52</ele>
  <time>2026-09-01T20:00:16Z</time>
  <course>356.67</course>
  <speed>25.11134604118226</speed>
  <fix>3d</fix>
</trkpt>
<trkpt lat="-35.2848623" lon="148.984912">
  <ele>724.99</ele>
  <time>2026-09-01T20:00:16Z</time>
  <course>356.01</course>
  <speed>24.97</speed>
  <fix>3d</fix>
</trkpt>
<trkpt lat="-35.2847739" lon="148.9849091">
  <ele>724.38</ele>
  <time>2026-09-01T20:00:16Z</time>
  <course>357.7</course>
  <speed>25.17064361513229</speed>
  <fix>3d</fix>
</trkpt>
<trkpt lat="-35.2848174" lon="148.9849094">
  <ele>724.74</ele>
  <time>2026-09-01T20:00:16Z</time>
  <course>358.44</course>
  <speed>25.08</speed>
  <fix>3d</fix>
</trkpt>
<trkpt lat="-35.2847513" lon="148.9849095">
  <ele>724.25</ele>
  <time>2026-09-01T20:00:16Z</time>
  <course>358.62</course>
  <speed>25.21667107292317</speed>
  <fix>3d</fix>
</trkpt>
<trkpt lat="-35.2848174" lon="148.9849094">
  <ele>724.74</ele>
  <time>2026-09-01T20:00:16Z</time>
  <course>358.44</course>
  <speed>25.08</speed>
  <fix>3d</fix>
</trkpt>
<trkpt lat="-35.2847286" lon="148.9849103">
  <ele>724.11</ele>
  <time>2026-09-01T20:00:16Z</time>
  <course>359.43</course>
  <speed>25.256761470940805</speed>
  <fix>3d</fix>
</trkpt>
<trkpt lat="-35.2847723" lon="148.9849089">
  <ele>724.47</ele>
  <time>2026-09-01T20:00:16Z</time>
  <course>0.54</course>
  <speed>25.19</speed>
  <fix>3d</fix>
</trkpt>
<trkpt lat="-35.2847057" lon="148.9849114">
  <ele>723.96</ele>
  <time>2026-09-01T20:00:16Z</time>
  <course>0.24</course>
  <speed>25.308464987035464</speed>
  <fix>3d</fix>
</trkpt>
<trkpt lat="-35.2847723" lon="148.9849089">
  <ele>724.47</ele>
  <time>2026-09-01T20:00:16Z</time>
  <course>0.54</course>
  <speed>25.19</speed>
  <fix>3d</fix>
</trkpt>
<trkpt lat="-35.284683" lon="148.9849129">
  <ele>723.81</ele>
  <time>2026-09-01T20:00:16Z</time>
  <course>1.07</course>
  <speed>25.36034897236235</speed>
  <fix>3d</fix>
</trkpt>
<trkpt lat="-35.2847268" lon="148.9849103">
  <ele>724.2</ele>
  <time>2026-09-01T20:00:16Z</time>
  <course>2.21</course>
  <speed>25.28</speed>
  <fix>3d</fix>
</trkpt>
<trkpt lat="-35.2846602" lon="148.9849146">
  <ele>723.65</ele>
  <time>2026-09-01T20:00:16Z</time>
  <course>1.87</course>
  <speed>25.412973064952475</speed>
  <fix>3d</fix>
</trkpt>
<trkpt lat="-35.2847268" lon="148.9849103">
  <ele>724.2</ele>
  <time>2026-09-01T20:00:16Z</time>
  <course>2.21</course>
  <speed>25.28</speed>
  <fix>3d</fix>
</trkpt>
<trkpt lat="-35.2846367" lon="148.9849166">
  <ele>723.47</ele>
  <time>2026-09-01T20:00:16Z</time>
  <course>2.61</course>
  <speed>25.46655846399352</speed>
  <fix>3d</fix>
</trkpt>
<trkpt lat="-35.2846813" lon="148.984913">
  <ele>723.9</ele>
  <time>2026-09-01T20:00:16Z</time>
  <course>3.41</course>
  <speed>25.38</speed>
  <fix>3d</fix>
</trkpt>
<trkpt lat="-35.284614" lon="148.9849187">
  <ele>723.3</ele>
  <time>2026-09-01T20:00:16Z</time>
  <course>3.26</course>
  <speed>25.530039169574337</speed>
  <fix>3d</fix>
</trkpt>
<trkpt lat="-35.2846357" lon="148.9849168">
  <ele>723.57</ele>
  <time>2026-09-01T20:00:16Z</time>
  <course>4.31</course>
  <speed>25.49</speed>
  <fix>3d</fix>
</trkpt>
<trkpt lat="-35.2845911" lon="148.984921">
  <ele>723.11</ele>
  <time>2026-09-01T20:00:16Z</time>
  <course>3.89</course>
  <speed>25.59472601924076</speed>
  <fix>3d</fix>
</trkpt>
<trkpt lat="-35.2846357" lon="148.9849168">
  <ele>723.57</ele>
  <time>2026-09-01T20:00:16Z</time>
  <course>4.31</course>
  <speed>25.49</speed>
  <fix>3d</fix>
</trkpt>
<trkpt lat="-35.2845682" lon="148.9849236">
  <ele>722.92</ele>
  <time>2026-09-01T20:00:16Z</time>
  <course>4.39</course>
  <speed>25.660609891426976</speed>
  <fix>3d</fix>
</trkpt>
<trkpt lat="-35.2845899" lon="148.9849214">
  <ele>723.21</ele>
  <time>2026-09-01T20:00:16Z</time>
  <course>5.11</course>
  <speed>25.62</speed>
  <fix>3d</fix>
</trkpt>
<trkpt lat="-35.2845452" lon="148.9849263">
  <ele>722.74</ele>
  <time>2026-09-01T20:00:16Z</time>
  <course>4.71</course>
  <speed>25.73763198120604</speed>
  <fix>3d</fix>
</trkpt>
<trkpt lat="-35.2845899" lon="148.9849214">
  <ele>723.21</ele>
  <time>2026-09-01T20:00:16Z</time>
  <course>5.11</course>
  <speed>25.62</speed>
  <fix>3d</fix>
</trkpt>
<trkpt lat="-35.2845219" lon="148.9849293">
  <ele>722.55</ele>
  <time>2026-09-01T20:00:16Z</time>
  <course>5.02</course>
  <speed>25.813703724959733</speed>
  <fix>3d</fix>
</trkpt>
<trkpt lat="-35.2845441" lon="148.9849269">
  <ele>722.85</ele>
  <time>2026-09-01T20:00:16Z</time>
  <course>5.86</course>
  <speed>25.76</speed>
  <fix>3d</fix>
</trkpt>
<trkpt lat="-35.2844988" lon="148.9849324">
  <ele>722.37</ele>
  <time>2026-09-01T20:00:16Z</time>
  <course>5.35</course>
  <speed>25.889569328206292</speed>
  <fix>3d</fix>
</trkpt>
<trkpt lat="-35.2845441" lon="148.9849269">
  <ele>722.85</ele>
  <time>2026-09-01T20:00:16Z</time>
  <course>5.86</course>
  <speed>25.76</speed>
  <fix>3d</fix>
</trkpt>
<trkpt lat="-35.2844757" lon="148.9849357">
  <ele>722.19</ele>
  <time>2026-09-01T20:00:16Z</time>
  <course>5.72</course>
  <speed>25.974989894127003</speed>
  <fix>3d</fix>
</trkpt>
<trkpt lat="-35.2844979" lon="148.984933">
  <ele>722.49</ele>
  <time>2026-09-01T20:00:16Z</time>
  <course>6.52</course>
  <speed>25.92</speed>
  <fix>3d</fix>
</trkpt>
<trkpt lat="-35.2844525" lon="148.9849392">
  <ele>722.02</ele>
  <time>2026-09-01T20:00:16Z</time>
  <course>6.1</course>
  <speed>26.05986377554572</speed>
  <fix>3d</fix>
</trkpt>
<trkpt lat="-35.2844979" lon="148.984933">
  <ele>722.49</ele>
  <time>2026-09-01T20:00:16Z</time>
  <course>6.52</course>
  <speed>25.92</speed>
  <fix>3d</fix>
</trkpt>
<trkpt lat="-35.2844292" lon="148.9849427">
  <ele>721.86</ele>
  <time>2026-09-01T20:00:16Z</time>
  <course>6.4</course>
  <speed>26.14280206863832</speed>
  <fix>3d</fix>
</trkpt>
<trkpt lat="-35.2844515" lon="148.9849398">
  <ele>722.15</ele>
  <time>2026-09-01T20:00:16Z</time>
  <course>7.05</course>
  <speed>26.08</speed>
  <fix>3d</fix>
</trkpt>
<trkpt lat="-35.2844059" lon="148.9849464">
  <ele>721.7</ele>
  <time>2026-09-01T20:00:16Z</time>
  <course>6.69</course>
  <speed>26.214928952793294</speed>
  <fix>3d</fix>
</trkpt>
<trkpt lat="-35.2844515" lon="148.9849398">
  <ele>722.15</ele>
  <time>2026-09-01T20:00:16Z</time>
  <course>7.05</course>
  <speed>26.08</speed>
  <fix>3d</fix>
</trkpt>
<trkpt lat="-35.2843825" lon="148.9849502">
  <ele>721.55</ele>
  <time>2026-09-01T20:00:16Z</time>
  <course>6.92</course>
  <speed>26.274843481931534</speed>
  <fix>3d</fix>
</trkpt>
<trkpt lat="-35.2844049" lon="148.984947">
  <ele>721.83</ele>
  <time>2026-09-01T20:00:16Z</time>
  <course>7.45</course>
  <speed>26.23</speed>
  <fix>3d</fix>
</trkpt>
<trkpt lat="-35.284359" lon="148.9849541">
  <ele>721.4</ele>
  <time>2026-09-01T20:00:16Z</time>
  <course>7.12</course>
  <speed>26.292654867852352</speed>
  <fix>3d</fix>
</trkpt>
<trkpt lat="-35.2844049" lon="148.984947">
  <ele>721.83</ele>
  <time>2026-09-01T20:00:16Z</time>
  <course>7.45</course>
  <speed>26.23</speed>
  <fix>3d</fix>
</trkpt>
<trkpt lat="-35.2843356" lon="148.984958">
  <ele>721.26</ele>
  <time>2026-09-01T20:00:16Z</time>
  <course>7.33</course>
  <speed>26.261052911107736</speed>
  <fix>3d</fix>
</trkpt>
<trkpt lat="-35.2843582" lon="148.9849547">
  <ele>721.55</ele>
  <time>2026-09-01T20:00:16Z</time>
  <course>7.75</course>
  <speed>26.29</speed>
  <fix>3d</fix>
</trkpt>
<trkpt lat="-35.2843123" lon="148.984962">
  <ele>721.12</ele>
  <time>2026-09-01T20:00:16Z</time>
  <course>7.47</course>
  <speed>26.177337526952584</speed>
  <fix>3d</fix>
</trkpt>
<trkpt lat="-35.2843582" lon="148.9849547">
  <ele>721.55</ele>
  <time>2026-09-01T20:00:16Z</time>
  <course>7.75</course>
  <speed>26.29</speed>
  <fix>3d</fix>
</trkpt>
<trkpt lat="-35.284289" lon="148.984966">
  <ele>720.99</ele>
  <time>2026-09-01T20:00:16Z</time>
  <course>7.62</course>
  <speed>26.092336039534676</speed>
  <fix>3d</fix>
</trkpt>
<trkpt lat="-35.2843115" lon="148.9849626">
  <ele>721.27</ele>
  <time>2026-09-01T20:00:16Z</time>
  <course>7.97</course>
  <speed>26.21</speed>
  <fix>3d</fix>
</trkpt>
<trkpt lat="-35.2842658" lon="148.98497">
  <ele>720.85</ele>
  <time>2026-09-01T20:00:16Z</time>
  <course>7.69</course>
  <speed>26.007402792282047</speed>
  <fix>3d</fix>
</trkpt>
<trkpt lat="-35.2843115" lon="148.9849626">
  <ele>721.27</ele>
  <time>2026-09-01T20:00:16Z</time>
  <course>7.97</course>
  <speed>26.21</speed>
  <fix>3d</fix>
</trkpt>
<trkpt lat="-35.2842427" lon="148.9849741">
  <ele>720.72</ele>
  <time>2026-09-01T20:00:16Z</time>
  <course>7.75</course>
  <speed>25.940919413158817</speed>
  <fix>3d</fix>
</trkpt>
<trkpt lat="-35.2842649" lon="148.9849707">
  <ele>721.01</ele>
  <time>2026-09-01T20:00:16Z</time>
  <course>8.14</course>
  <speed>26.05</speed>
  <fix>3d</fix>
</trkpt>
<trkpt lat="-35.2842197" lon="148.9849782">
  <ele>720.58</ele>
  <time>2026-09-01T20:00:16Z</time>
  <course>7.85</course>
  <speed>25.882944191107782</speed>
  <fix>3d</fix>
</trkpt>
<trkpt lat="-35.2842649" lon="148.9849707">
  <ele>721.01</ele>
  <time>2026-09-01T20:00:16Z</time>
  <course>8.14</course>
  <speed>26.05</speed>
  <fix>3d</fix>
</trkpt>
<trkpt lat="-35.2841973" lon="148.9849822">
  <ele>720.43</ele>
  <time>2026-09-01T20:00:16Z</time>
  <course>7.95</course>
  <speed>25.836309721010856</speed>
  <fix>3d</fix>
</trkpt>
<trkpt lat="-35.2842649" lon="148.9849707">
  <ele>721.01</ele>
  <time>2026-09-01T20:00:16Z</time>
  <course>8.14</course>
  <speed>26.05</speed>
  <fix>3d</fix>
</trkpt>
<trkpt lat="-35.2841743" lon="148.9849864">
  <ele>720.27</ele>
  <time>2026-09-01T20:00:16Z</time>
  <course>8.03</course>
  <speed>25.79815884903417</speed>
  <fix>3d</fix>
</trkpt>
<trkpt lat="-35.2842186" lon="148.9849788">
  <ele>720.73</ele>
  <time>2026-09-01T20:00:16Z</time>
  <course>8.25</course>
  <speed>25.92</speed>
  <fix>3d</fix>
</trkpt>
<trkpt lat="-35.2841506" lon="148.9849906">
  <ele>720.09</ele>
  <time>2026-09-01T20:00:16Z</time>
  <course>8.07</course>
  <speed>25.77980798997541</speed>
  <fix>3d</fix>
</trkpt>
<trkpt lat="-35.2841726" lon="148.9849871">
  <ele>720.42</ele>
  <time>2026-09-01T20:00:16Z</time>
  <course>8.32</course>
  <speed>25.83</speed>
  <fix>3d</fix>
</trkpt>
<trkpt lat="-35.2841278" lon="148.9849947">
  <ele>719.91</ele>
  <time>2026-09-01T20:00:16Z</time>
  <course>8.06</course>
  <speed>25.771358132624677</speed>
  <fix>3d</fix>
</trkpt>
<trkpt lat="-35.2841726" lon="148.9849871">
  <ele>720.42</ele>
  <time>2026-09-01T20:00:16Z</time>
  <course>8.32</course>
  <speed>25.83</speed>
  <fix>3d</fix>
</trkpt>
<trkpt lat="-35.2841049" lon="148.9849989">
  <ele>719.71</ele>
  <time>2026-09-01T20:00:16Z</time>
  <course>8.13</course>
  <speed>25.76991268902555</speed>
  <fix>3d</fix>
</trkpt>
<trkpt lat="-35.2841267" lon="148.9849953">
  <ele>720.07</ele>
  <time>2026-09-01T20:00:16Z</time>
  <course>8.35</course>
  <speed>25.79</speed>
  <fix>3d</fix>
</trkpt>
<trkpt lat="-35.2840819" lon="148.985003">
  <ele>719.51</ele>
  <time>2026-09-01T20:00:16Z</time>
  <course>8.14</course>
  <speed>25.78125287878772</speed>
  <fix>3d</fix>
</trkpt>
<trkpt lat="-35.2841267" lon="148.9849953">
  <ele>720.07</ele>
  <time>2026-09-01T20:00:16Z</time>
  <course>8.35</course>
  <speed>25.79</speed>
  <fix>3d</fix>
</trkpt>
<trkpt lat="-35.2840589" lon="148.9850072">
  <ele>719.3</ele>
  <time>2026-09-01T20:00:16Z</time>
  <course>8.15</course>
  <speed>25.80104261459215</speed>
  <fix>3d</fix>
</trkpt>
<trkpt lat="-35.2840809" lon="148.9850035">
  <ele>719.67</ele>
  <time>2026-09-01T20:00:16Z</time>
  <course>8.35</course>
  <speed>25.81</speed>
  <fix>3d</fix>
</trkpt>
<trkpt lat="-35.2840357" lon="148.9850114">
  <ele>719.09</ele>
  <time>2026-09-01T20:00:16Z</time>
  <course>8.14</course>
  <speed>25.84062305750386</speed>
  <fix>3d</fix>
</trkpt>
<trkpt lat="-35.2840809" lon="148.9850035">
  <ele>719.67</ele>
  <time>2026-09-01T20:00:16Z</time>
  <course>8.35</course>
  <speed>25.81</speed>
  <fix>3d</fix>
</trkpt>
<trkpt lat="-35.2840127" lon="148.9850155">
  <ele>718.88</ele>
  <time>2026-09-01T20:00:16Z</time>
  <course>8.15</course>
  <speed>25.880204790534403</speed>
  <fix>3d</fix>
</trkpt>
<trkpt lat="-35.284035" lon="148.9850118">
  <ele>719.26</ele>
  <time>2026-09-01T20:00:16Z</time>
  <course>8.33</course>
  <speed>25.85</speed>
  <fix>3d</fix>
</trkpt>
<trkpt lat="-35.2839895" lon="148.9850197">
  <ele>718.67</ele>
  <time>2026-09-01T20:00:16Z</time>
  <course>8.13</course>
  <speed>25.929683762051553</speed>
  <fix>3d</fix>
</trkpt>
<trkpt lat="-35.284035" lon="148.9850118">
  <ele>719.26</ele>
  <time>2026-09-01T20:00:16Z</time>
  <course>8.33</course>
  <speed>25.85</speed>
  <fix>3d</fix>
</trkpt>
<trkpt lat="-35.2839664" lon="148.9850238">
  <ele>718.47</ele>
  <time>2026-09-01T20:00:16Z</time>
  <course>8.11</course>
  <speed>25.9791647286821</speed>
  <fix>3d</fix>
</trkpt>
<trkpt lat="-35.283989" lon="148.98502">
  <ele>718.84</ele>
  <time>2026-09-01T20:00:16Z</time>
  <course>8.28</course>
  <speed>25.94</speed>
  <fix>3d</fix>
</trkpt>
<trkpt lat="-35.2839432" lon="148.9850279">
  <ele>718.28</ele>
  <time>2026-09-01T20:00:16Z</time>
  <course>8.12</course>
  <speed>26.03854450617392</speed>
  <fix>3d</fix>
</trkpt>
<trkpt lat="-35.283989" lon="148.98502">
  <ele>718.84</ele>
  <time>2026-09-01T20:00:16Z</time>
  <course>8.28</course>
  <speed>25.94</speed>
  <fix>3d</fix>
</trkpt>
<trkpt lat="-35.2839199" lon="148.9850321">
  <ele>718.09</ele>
  <time>2026-09-01T20:00:16Z</time>
  <course>8.12</course>
  <speed>26.096499765294197</speed>
  <fix>3d</fix>
</trkpt>
<trkpt lat="-35.2839428" lon="148.9850283">
  <ele>718.45</ele>
  <time>2026-09-01T20:00:16Z</time>
  <course>8.22</course>
  <speed>26.04</speed>
  <fix>3d</fix>
</trkpt>
<trkpt lat="-35.2838966" lon="148.9850362">
  <ele>717.92</ele>
  <time>2026-09-01T20:00:16Z</time>
  <course>8.07</course>
  <speed>26.15588843836126</speed>
  <fix>3d</fix>
</trkpt>
<trkpt lat="-35.2839428" lon="148.9850283">
  <ele>718.45</ele>
  <time>2026-09-01T20:00:16Z</time>
  <course>8.22</course>
  <speed>26.04</speed>
  <fix>3d</fix>
</trkpt>
<trkpt lat="-35.2838732" lon="148.9850403">
  <ele>717.75</ele>
  <time>2026-09-01T20:00:16Z</time>
  <course>8.04</course>
  <speed>26.223762125217654</speed>
  <fix>3d</fix>
</trkpt>
<trkpt lat="-35.2838964" lon="148.9850364">
  <ele>718.1</ele>
  <time>2026-09-01T20:00:16Z</time>
  <course>8.15</course>
  <speed>26.15</speed>
  <fix>3d</fix>
</trkpt>
<trkpt lat="-35.2838498" lon="148.9850444">
  <ele>717.59</ele>
  <time>2026-09-01T20:00:16Z</time>
  <course>7.98</course>
  <speed>26.283160007883374</speed>
  <fix>3d</fix>
</trkpt>
<trkpt lat="-35.2838964" lon="148.9850364">
  <ele>718.1</ele>
  <time>2026-09-01T20:00:16Z</time>
  <course>8.15</course>
  <speed>26.15</speed>
  <fix>3d</fix>
</trkpt>
<trkpt lat="-35.2838264" lon="148.9850485">
  <ele>717.44</ele>
  <time>2026-09-01T20:00:16Z</time>
  <course>7.99</course>
  <speed>26.34115411290857</speed>
  <fix>3d</fix>
</trkpt>
<trkpt lat="-35.2838498" lon="148.9850446">
  <ele>717.77</ele>
  <time>2026-09-01T20:00:16Z</time>
  <course>8.07</course>
  <speed>26.27</speed>
  <fix>3d</fix>
</trkpt>
<trkpt lat="-35.2838028" lon="148.9850526">
  <ele>717.29</ele>
  <time>2026-09-01T20:00:16Z</time>
  <course>7.95</course>
  <speed>26.399160971515744</speed>
  <fix>3d</fix>
</trkpt>
<trkpt lat="-35.2838498" lon="148.9850446">
  <ele>717.77</ele>
  <time>2026-09-01T20:00:16Z</time>
  <course>8.07</course>
  <speed>26.27</speed>
  <fix>3d</fix>
</trkpt>
<trkpt lat="-35.2837793" lon="148.9850567">
  <ele>717.16</ele>
  <time>2026-09-01T20:00:16Z</time>
  <course>7.87</course>
  <speed>26.457180499818946</speed>
  <fix>3d</fix>
</trkpt>
<trkpt lat="-35.2838028" lon="148.9850527">
  <ele>717.48</ele>
  <time>2026-09-01T20:00:16Z</time>
  <course>7.99</course>
  <speed>26.39</speed>
  <fix>3d</fix>
</trkpt>
<trkpt lat="-35.2837557" lon="148.9850608">
  <ele>717.03</ele>
  <time>2026-09-01T20:00:16Z</time>
  <course>7.85</course>
  <speed>26.516598575232077</speed>
  <fix>3d</fix>
</trkpt>
<trkpt lat="-35.2838028" lon="148.9850527">
  <ele>717.48</ele>
  <time>2026-09-01T20:00:16Z</time>
  <course>7.99</course>
  <speed>26.39</speed>
  <fix>3d</fix>
</trkpt>
<trkpt lat="-35.283732" lon="148.9850648">
  <ele>716.92</ele>
  <time>2026-09-01T20:00:16Z</time>
  <course>7.81</course>
  <speed>26.554828186226324</speed>
  <fix>3d</fix>
</trkpt>
<trkpt lat="-35.2837557" lon="148.9850607">
  <ele>717.22</ele>
  <time>2026-09-01T20:00:16Z</time>
  <course>7.92</course>
  <speed>26.49</speed>
  <fix>3d</fix>
</trkpt>
<trkpt lat="-35.2837083" lon="148.9850688">
  <ele>716.81</ele>
  <time>2026-09-01T20:00:16Z</time>
  <course>7.8</course>
  <speed>26.60297163852189</speed>
  <fix>3d</fix>
</trkpt>
<trkpt lat="-35.2837557" lon="148.9850607">
  <ele>717.22</ele>
  <time>2026-09-01T20:00:16Z</time>
  <course>7.92</course>
  <speed>26.49</speed>
  <fix>3d</fix>
</trkpt>
<trkpt lat="-35.2836846" lon="148.9850729">
  <ele>716.7</ele>
  <time>2026-09-01T20:00:16Z</time>
  <course>7.81</course>
  <speed>26.652497068755114</speed>
  <fix>3d</fix>
</trkpt>
<trkpt lat="-35.2837085" lon="148.9850688">
  <ele>716.99</ele>
  <time>2026-09-01T20:00:16Z</time>
  <course>7.85</course>
  <speed>26.59</speed>
  <fix>3d</fix>
</trkpt>
<trkpt lat="-35.2836608" lon="148.9850769">
  <ele>716.61</ele>
  <time>2026-09-01T20:00:16Z</time>
  <course>7.75</course>
  <speed>26.700655422667065</speed>
  <fix>3d</fix>
</trkpt>
<trkpt lat="-35.2837085" lon="148.9850688">
  <ele>716.99</ele>
  <time>2026-09-01T20:00:16Z</time>
  <course>7.85</course>
  <speed>26.59</speed>
  <fix>3d</fix>
</trkpt>
<trkpt lat="-35.283637" lon="148.9850809">
  <ele>716.52</ele>
  <time>2026-09-01T20:00:16Z</time>
  <course>7.72</course>
  <speed>26.738917330363247</speed>
  <fix>3d</fix>
</trkpt>
<trkpt lat="-35.2836611" lon="148.9850768">
  <ele>716.79</ele>
  <time>2026-09-01T20:00:16Z</time>
  <course>7.79</course>
  <speed>26.67</speed>
  <fix>3d</fix>
</trkpt>
<trkpt lat="-35.2836131" lon="148.9850849">
  <ele>716.43</ele>
  <time>2026-09-01T20:00:16Z</time>
  <course>7.67</course>
  <speed>26.777188052519627</speed>
  <fix>3d</fix>
</trkpt>
<trkpt lat="-35.2836611" lon="148.9850768">
  <ele>716.79</ele>
  <time>2026-09-01T20:00:16Z</time>
  <course>7.79</course>
  <speed>26.67</speed>
  <fix>3d</fix>
</trkpt>
<trkpt lat="-35.2835892" lon="148.9850889">
  <ele>716.34</ele>
  <time>2026-09-01T20:00:16Z</time>
  <course>7.65</course>
  <speed>26.806911422243335</speed>
  <fix>3d</fix>
</trkpt>
<trkpt lat="-35.2836135" lon="148.9850847">
  <ele>716.61</ele>
  <time>2026-09-01T20:00:16Z</time>
  <course>7.73</course>
  <speed>26.75</speed>
  <fix>3d</fix>
</trkpt>
<trkpt lat="-35.2835653" lon="148.9850928">
  <ele>716.26</ele>
  <time>2026-09-01T20:00:16Z</time>
  <course>7.64</course>
  <speed>26.83528460814232</speed>
  <fix>3d</fix>
</trkpt>
<trkpt lat="-35.2836135" lon="148.9850847">
  <ele>716.61</ele>
  <time>2026-09-01T20:00:16Z</time>
  <course>7.73</course>
  <speed>26.75</speed>
  <fix>3d</fix>
</trkpt>
<trkpt lat="-35.2835412" lon="148.9850968">
  <ele>716.17</ele>
  <time>2026-09-01T20:00:16Z</time>
  <course>7.62</course>
  <speed>26.85375578946081</speed>
  <fix>3d</fix>
</trkpt>
<trkpt lat="-35.2835659" lon="148.9850926">
  <ele>716.44</ele>
  <time>2026-09-01T20:00:16Z</time>
  <course>7.68</course>
  <speed>26.81</speed>
  <fix>3d</fix>
</trkpt>
<trkpt lat="-35.2835173" lon="148.9851008">
  <ele>716.1</ele>
  <time>2026-09-01T20:00:16Z</time>
  <course>7.59</course>
  <speed>26.882142771736035</speed>
  <fix>3d</fix>
</trkpt>
<trkpt lat="-35.2835659" lon="148.9850926">
  <ele>716.44</ele>
  <time>2026-09-01T20:00:16Z</time>
  <course>7.68</course>
  <speed>26.81</speed>
  <fix>3d</fix>
</trkpt>
<trkpt lat="-35.2834934" lon="148.9851047">
  <ele>716.03</ele>
  <time>2026-09-01T20:00:16Z</time>
  <course>7.6</course>
  <speed>26.892052729384567</speed>
  <fix>3d</fix>
</trkpt>
<trkpt lat="-35.2835181" lon="148.9851004">
  <ele>716.28</ele>
  <time>2026-09-01T20:00:16Z</time>
  <course>7.63</course>
  <speed>26.85</speed>
  <fix>3d</fix>
</trkpt>
<trkpt lat="-35.2834694" lon="148.9851087">
  <ele>715.96</ele>
  <time>2026-09-01T20:00:16Z</time>
  <course>7.58</course>
  <speed>26.910536969744772</speed>
  <fix>3d</fix>
</trkpt>
<trkpt lat="-35.2835181" lon="148.9851004">
  <ele>716.28</ele>
  <time>2026-09-01T20:00:16Z</time>
  <course>7.63</course>
  <speed>26.85</speed>
  <fix>3d</fix>
</trkpt>
<trkpt lat="-35.2834454" lon="148.9851126">
  <ele>715.89</ele>
  <time>2026-09-01T20:00:16Z</time>
  <course>7.52</course>
  <speed>26.91911588444167</speed>
  <fix>3d</fix>
</trkpt>
<trkpt lat="-35.2834703" lon="148.9851082">
  <ele>716.14</ele>
  <time>2026-09-01T20:00:16Z</time>
  <course>7.57</course>
  <speed>26.89</speed>
  <fix>3d</fix>
</trkpt>
<trkpt lat="-35.2834215" lon="148.9851165">
  <ele>715.83</ele>
  <time>2026-09-01T20:00:16Z</time>
  <course>7.48</course>
  <speed>26.93628779175037</speed>
  <fix>3d</fix>
</trkpt>
<trkpt lat="-35.2834703" lon="148.9851082">
  <ele>716.14</ele>
  <time>2026-09-01T20:00:16Z</time>
  <course>7.57</course>
  <speed>26.89</speed>
  <fix>3d</fix>
</trkpt>
<trkpt lat="-35.2833975" lon="148.9851203">
  <ele>715.77</ele>
  <time>2026-09-01T20:00:16Z</time>
  <course>7.45</course>
  <speed>26.94488077539034</speed>
  <fix>3d</fix>
</trkpt>
<trkpt lat="-35.2834223" lon="148.9851161">
  <ele>716.01</ele>
  <time>2026-09-01T20:00:16Z</time>
  <course>7.51</course>
  <speed>26.92</speed>
  <fix>3d</fix>
</trkpt>
<trkpt lat="-35.2833735" lon="148.9851242">
  <ele>715.71</ele>
  <time>2026-09-01T20:00:16Z</time>
  <course>7.43</course>
  <speed>26.952166888767962</speed>
  <fix>3d</fix>
</trkpt>
<trkpt lat="-35.2834223" lon="148.9851161">
  <ele>716.01</ele>
  <time>2026-09-01T20:00:16Z</time>
  <course>7.51</course>
  <speed>26.92</speed>
  <fix>3d</fix>
</trkpt>
<trkpt lat="-35.2833495" lon="148.9851281">
  <ele>715.65</ele>
  <time>2026-09-01T20:00:16Z</time>
  <course>7.41</course>
  <speed>26.960773356860518</speed>
  <fix>3d</fix>
</trkpt>
<trkpt lat="-35.2833744" lon="148.9851238">
  <ele>715.89</ele>
  <time>2026-09-01T20:00:16Z</time>
  <course>7.44</course>
  <speed>26.94</speed>
  <fix>3d</fix>
</trkpt>
<trkpt lat="-35.2833255" lon="148.9851319">
  <ele>715.59</ele>
  <time>2026-09-01T20:00:16Z</time>
  <course>7.34</course>
  <speed>26.95946957935189</speed>
  <fix>3d</fix>
</trkpt>
<trkpt lat="-35.2833744" lon="148.9851238">
  <ele>715.89</ele>
  <time>2026-09-01T20:00:16Z</time>
  <course>7.44</course>
  <speed>26.94</speed>
  <fix>3d</fix>
</trkpt>
<trkpt lat="-35.2833015" lon="148.9851357">
  <ele>715.53</ele>
  <time>2026-09-01T20:00:16Z</time>
  <course>7.33</course>
  <speed>26.96808484115993</speed>
  <fix>3d</fix>
</trkpt>
<trkpt lat="-35.2833263" lon="148.9851314">
  <ele>715.76</ele>
  <time>2026-09-01T20:00:16Z</time>
  <course>7.38</course>
  <speed>26.96</speed>
  <fix>3d</fix>
</trkpt>
<trkpt lat="-35.2832775" lon="148.9851395">
  <ele>715.47</ele>
  <time>2026-09-01T20:00:16Z</time>
  <course>7.26</course>
  <speed>26.9568729640513</speed>
  <fix>3d</fix>
</trkpt>
<trkpt lat="-35.2833263" lon="148.9851314">
  <ele>715.76</ele>
  <time>2026-09-01T20:00:16Z</time>
  <course>7.38</course>
  <speed>26.96</speed>
  <fix>3d</fix>
</trkpt>
<trkpt lat="-35.2832535" lon="148.9851433">
  <ele>715.41</ele>
  <time>2026-09-01T20:00:16Z</time>
  <course>7.22</course>
  <speed>26.954290938550024</speed>
  <fix>3d</fix>
</trkpt>
<trkpt lat="-35.2832783" lon="148.9851391">
  <ele>715.64</ele>
  <time>2026-09-01T20:00:16Z</time>
  <course>7.33</course>
  <speed>26.96</speed>
  <fix>3d</fix>
</trkpt>
<trkpt lat="-35.2832295" lon="148.9851471">
  <ele>715.35</ele>
  <time>2026-09-01T20:00:16Z</time>
  <course>7.27</course>
  <speed>26.953005398285363</speed>
  <fix>3d</fix>
</trkpt>
<trkpt lat="-35.2832783" lon="148.9851391">
  <ele>715.64</ele>
  <time>2026-09-01T20:00:16Z</time>
  <course>7.33</course>
  <speed>26.96</speed>
  <fix>3d</fix>
</trkpt>
<trkpt lat="-35.2832055" lon="148.9851508">
  <ele>715.29</ele>
  <time>2026-09-01T20:00:16Z</time>
  <course>7.25</course>
  <speed>26.953005398285363</speed>
  <fix>3d</fix>
</trkpt>
<trkpt lat="-35.2832301" lon="148.9851466">
  <ele>715.52</ele>
  <time>2026-09-01T20:00:16Z</time>
  <course>7.29</course>
  <speed>26.96</speed>
  <fix>3d</fix>
</trkpt>
<trkpt lat="-35.2831815" lon="148.9851546">
  <ele>715.23</ele>
  <time>2026-09-01T20:00:16Z</time>
  <course>7.26</course>
  <speed>26.95172350704125</speed>
  <fix>3d</fix>
</trkpt>
<trkpt lat="-35.2832301" lon="148.9851466">
  <ele>715.52</ele>
  <time>2026-09-01T20:00:16Z</time>
  <course>7.29</course>
  <speed>26.96</speed>
  <fix>3d</fix>
</trkpt>
<trkpt lat="-35.2831574" lon="148.9851584">
  <ele>715.16</ele>
  <time>2026-09-01T20:00:16Z</time>
  <course>7.28</course>
  <speed>26.941805804362854</speed>
  <fix>3d</fix>
</trkpt>
<trkpt lat="-35.2831821" lon="148.9851541">
  <ele>715.4</ele>
  <time>2026-09-01T20:00:16Z</time>
  <course>7.26</course>
  <speed>26.95</speed>
  <fix>3d</fix>
</trkpt>
<trkpt lat="-35.2831334" lon="148.9851621">
  <ele>715.1</ele>
  <time>2026-09-01T20:00:16Z</time>
  <course>7.24</course>
  <speed>26.94052709209677</speed>
  <fix>3d</fix>
</trkpt>
<trkpt lat="-35.2831821" lon="148.9851541">
  <ele>715.4</ele>
  <time>2026-09-01T20:00:16Z</time>
  <course>7.26</course>
  <speed>26.95</speed>
  <fix>3d</fix>
</trkpt>
<trkpt lat="-35.2831094" lon="148.9851659">
  <ele>715.03</ele>
  <time>2026-09-01T20:00:16Z</time>
  <course>7.2</course>
  <speed>26.93925203119047</speed>
  <fix>3d</fix>
</trkpt>
<trkpt lat="-35.2831341" lon="148.9851616">
  <ele>715.27</ele>
  <time>2026-09-01T20:00:16Z</time>
  <course>7.24</course>
  <speed>26.95</speed>
  <fix>3d</fix>
</trkpt>
<trkpt lat="-35.2830854" lon="148.9851696">
  <ele>714.97</ele>
  <time>2026-09-01T20:00:16Z</time>
  <course>7.14</course>
  <speed>26.918142580794832</speed>
  <fix>3d</fix>
</trkpt>
<trkpt lat="-35.2831341" lon="148.9851616">
  <ele>715.27</ele>
  <time>2026-09-01T20:00:16Z</time>
  <course>7.24</course>
  <speed>26.95</speed>
  <fix>3d</fix>
</trkpt>
<trkpt lat="-35.2830614" lon="148.9851733">
  <ele>714.9</ele>
  <time>2026-09-01T20:00:16Z</time>
  <course>7.15</course>
  <speed>26.906954491357805</speed>
  <fix>3d</fix>
</trkpt>
<trkpt lat="-35.2830861" lon="148.9851691">
  <ele>715.14</ele>
  <time>2026-09-01T20:00:16Z</time>
  <course>7.21</course>
  <speed>26.93</speed>
  <fix>3d</fix>
</trkpt>
<trkpt lat="-35.2830376" lon="148.985177">
  <ele>714.84</ele>
  <time>2026-09-01T20:00:16Z</time>
  <course>7.19</course>
  <speed>26.89703515259628</speed>
  <fix>3d</fix>
</trkpt>
<trkpt lat="-35.2830861" lon="148.9851691">
  <ele>715.14</ele>
  <time>2026-09-01T20:00:16Z</time>
  <course>7.21</course>
  <speed>26.93</speed>
  <fix>3d</fix>
</trkpt>
<trkpt lat="-35.2830137" lon="148.9851807">
  <ele>714.78</ele>
  <time>2026-09-01T20:00:16Z</time>
  <course>7.16</course>
  <speed>26.885849437947837</speed>
  <fix>3d</fix>
</trkpt>
<trkpt lat="-35.2830381" lon="148.9851765">
  <ele>715.01</ele>
  <time>2026-09-01T20:00:16Z</time>
  <course>7.19</course>
  <speed>26.91</speed>
  <fix>3d</fix>
</trkpt>
<trkpt lat="-35.2829897" lon="148.9851844">
  <ele>714.72</ele>
  <time>2026-09-01T20:00:16Z</time>
  <course>7.13</course>
  <speed>26.86474641607473</speed>
  <fix>3d</fix>
</trkpt>
<trkpt lat="-35.2830381" lon="148.9851765">
  <ele>715.01</ele>
  <time>2026-09-01T20:00:16Z</time>
  <course>7.19</course>
  <speed>26.91</speed>
  <fix>3d</fix>
</trkpt>
<trkpt lat="-35.2829658" lon="148.9851881">
  <ele>714.65</ele>
  <time>2026-09-01T20:00:16Z</time>
  <course>7.14</course>
  <speed>26.853565871220905</speed>
  <fix>3d</fix>
</trkpt>
<trkpt lat="-35.2829902" lon="148.9851838">
  <ele>714.89</ele>
  <time>2026-09-01T20:00:16Z</time>
  <course>7.16</course>
  <speed>26.88</speed>
  <fix>3d</fix>
</trkpt>
<trkpt lat="-35.2829416" lon="148.9851918">
  <ele>714.59</ele>
  <time>2026-09-01T20:00:16Z</time>
  <course>7.2</course>
  <speed>26.832467273808426</speed>
  <fix>3d</fix>
</trkpt>
<trkpt lat="-35.2829902" lon="148.9851838">
  <ele>714.89</ele>
  <time>2026-09-01T20:00:16Z</time>
  <course>7.16</course>
  <speed>26.88</speed>
  <fix>3d</fix>
</trkpt>
<trkpt lat="-35.2829177" lon="148.9851954">
  <ele>714.53</ele>
  <time>2026-09-01T20:00:16Z</time>
  <course>7.18</course>
  <speed>26.812625757280838</speed>
  <fix>3d</fix>
</trkpt>
<trkpt lat="-35.2829423" lon="148.9851913">
  <ele>714.76</ele>
  <time>2026-09-01T20:00:16Z</time>
  <course>7.14</course>
  <speed>26.85</speed>
  <fix>3d</fix>
</trkpt>
<trkpt lat="-35.2828938" lon="148.9851991">
  <ele>714.47</ele>
  <time>2026-09-01T20:00:16Z</time>
  <course>7.16</course>
  <speed>26.79152851182627</speed>
  <fix>3d</fix>
</trkpt>
<trkpt lat="-35.2829423" lon="148.9851913">
  <ele>714.76</ele>
  <time>2026-09-01T20:00:16Z</time>
  <course>7.14</course>
  <speed>26.85</speed>
  <fix>3d</fix>
</trkpt>
<trkpt lat="-35.2828697" lon="148.9852028">
  <ele>714.41</ele>
  <time>2026-09-01T20:00:16Z</time>
  <course>7.09</course>
  <speed>26.78035473999551</speed>
  <fix>3d</fix>
</trkpt>
<trkpt lat="-35.2828945" lon="148.9851986">
  <ele>714.64</ele>
  <time>2026-09-01T20:00:16Z</time>
  <course>7.12</course>
  <speed>26.82</speed>
  <fix>3d</fix>
</trkpt>
<trkpt lat="-35.2828459" lon="148.9852064">
  <ele>714.35</ele>
  <time>2026-09-01T20:00:16Z</time>
  <course>7.1</course>
  <speed>26.759261947968593</speed>
  <fix>3d</fix>
</trkpt>
<trkpt lat="-35.2828945" lon="148.9851986">
  <ele>714.64</ele>
  <time>2026-09-01T20:00:16Z</time>
  <course>7.12</course>
  <speed>26.82</speed>
  <fix>3d</fix>
</trkpt>
<trkpt lat="-35.282822" lon="148.9852101">
  <ele>714.28</ele>
  <time>2026-09-01T20:00:16Z</time>
  <course>7.1</course>
  <speed>26.73817121644635</speed>
  <fix>3d</fix>
</trkpt>
<trkpt lat="-35.2828467" lon="148.9852059">
  <ele>714.51</ele>
  <time>2026-09-01T20:00:16Z</time>
  <course>7.1</course>
  <speed>26.78</speed>
  <fix>3d</fix>
</trkpt>
<trkpt lat="-35.2827982" lon="148.9852137">
  <ele>714.22</ele>
  <time>2026-09-01T20:00:16Z</time>
  <course>7.11</course>
  <speed>26.718327043435934</speed>
  <fix>3d</fix>
</trkpt>
<trkpt lat="-35.2828467" lon="148.9852059">
  <ele>714.51</ele>
  <time>2026-09-01T20:00:16Z</time>
  <course>7.1</course>
  <speed>26.78</speed>
  <fix>3d</fix>
</trkpt>
<trkpt lat="-35.2827744" lon="148.9852173">
  <ele>714.17</ele>
  <time>2026-09-01T20:00:16Z</time>
  <course>7.12</course>
  <speed>26.69723768482425</speed>
  <fix>3d</fix>
</trkpt>
<trkpt lat="-35.2827989" lon="148.9852132">
  <ele>714.39</ele>
  <time>2026-09-01T20:00:16Z</time>
  <course>7.08</course>
  <speed>26.74</speed>
  <fix>3d</fix>
</trkpt>
<trkpt lat="-35.2827506" lon="148.9852209">
  <ele>714.12</ele>
  <time>2026-09-01T20:00:16Z</time>
  <course>7.13</course>
  <speed>26.667470821208372</speed>
  <fix>3d</fix>
</trkpt>
<trkpt lat="-35.2827989" lon="148.9852132">
  <ele>714.39</ele>
  <time>2026-09-01T20:00:16Z</time>
  <course>7.08</course>
  <speed>26.74</speed>
  <fix>3d</fix>
</trkpt>
<trkpt lat="-35.2827269" lon="148.9852245">
  <ele>714.07</ele>
  <time>2026-09-01T20:00:16Z</time>
  <course>7.07</course>
  <speed>26.646382493689458</speed>
  <fix>3d</fix>
</trkpt>
<trkpt lat="-35.2827512" lon="148.9852204">
  <ele>714.28</ele>
  <time>2026-09-01T20:00:16Z</time>
  <course>7.07</course>
  <speed>26.7</speed>
  <fix>3d</fix>
</trkpt>
<trkpt lat="-35.2827031" lon="148.9852281">
  <ele>714.02</ele>
  <time>2026-09-01T20:00:16Z</time>
  <course>7.0</course>
  <speed>26.626537514292014</speed>
  <fix>3d</fix>
</trkpt>
<trkpt lat="-35.2827512" lon="148.9852204">
  <ele>714.28</ele>
  <time>2026-09-01T20:00:16Z</time>
  <course>7.07</course>
  <speed>26.7</speed>
  <fix>3d</fix>
</trkpt>
<trkpt lat="-35.2826793" lon="148.9852317">
  <ele>713.97</ele>
  <time>2026-09-01T20:00:16Z</time>
  <course>6.97</course>
  <speed>26.60421207252716</speed>
  <fix>3d</fix>
</trkpt>
<trkpt lat="-35.2827036" lon="148.9852277">
  <ele>714.18</ele>
  <time>2026-09-01T20:00:16Z</time>
  <course>7.05</course>
  <speed>26.65</speed>
  <fix>3d</fix>
</trkpt>
<trkpt lat="-35.2826556" lon="148.9852353">
  <ele>713.92</ele>
  <time>2026-09-01T20:00:16Z</time>
  <course>7.01</course>
  <speed>26.573206430538264</speed>
  <fix>3d</fix>
</trkpt>
<trkpt lat="-35.2827036" lon="148.9852277">
  <ele>714.18</ele>
  <time>2026-09-01T20:00:16Z</time>
  <course>7.05</course>
  <speed>26.65</speed>
  <fix>3d</fix>
</trkpt>
<trkpt lat="-35.2826319" lon="148.9852389">
  <ele>713.87</ele>
  <time>2026-09-01T20:00:16Z</time>
  <course>7.01</course>
  <speed>26.552126091897048</speed>
  <fix>3d</fix>
</trkpt>
<trkpt lat="-35.2826562" lon="148.9852348">
  <ele>714.08</ele>
  <time>2026-09-01T20:00:16Z</time>
  <course>7.03</course>
  <speed>26.6</speed>
  <fix>3d</fix>
</trkpt>
<trkpt lat="-35.2826083" lon="148.9852424">
  <ele>713.82</ele>
  <time>2026-09-01T20:00:16Z</time>
  <course>7.01</course>
  <speed>26.52235472200762</speed>
  <fix>3d</fix>
</trkpt>
<trkpt lat="-35.2826562" lon="148.9852348">
  <ele>714.08</ele>
  <time>2026-09-01T20:00:16Z</time>
  <course>7.03</course>
  <speed>26.6</speed>
  <fix>3d</fix>
</trkpt>
<trkpt lat="-35.2825848" lon="148.985246">
  <ele>713.77</ele>
  <time>2026-09-01T20:00:16Z</time>
  <course>6.99</course>
  <speed>26.49135141890651</speed>
  <fix>3d</fix>
</trkpt>
<trkpt lat="-35.2826088" lon="148.985242">
  <ele>713.98</ele>
  <time>2026-09-01T20:00:16Z</time>
  <course>7.01</course>
  <speed>26.55</speed>
  <fix>3d</fix>
</trkpt>
<trkpt lat="-35.2825613" lon="148.9852495">
  <ele>713.72</ele>
  <time>2026-09-01T20:00:17Z</time>
  <course>6.97</course>
  <speed>26.460349581968867</speed>
  <fix>3d</fix>
</trkpt>
<trkpt lat="-35.2826088" lon="148.985242">
  <ele>713.98</ele>
  <time>2026-09-01T20:00:17Z</time>
  <course>7.01</course>
  <speed>26.55</speed>
  <fix>3d</fix>
</trkpt>
<trkpt lat="-35.282538" lon="148.985253">
  <ele>713.67</ele>
  <time>2026-09-01T20:00:17Z</time>
  <course>7.03</course>
  <speed>26.429349216354154</speed>
  <fix>3d</fix>
</trkpt>
<trkpt lat="-35.2825615" lon="148.9852491">
  <ele>713.88</ele>
  <time>2026-09-01T20:00:17Z</time>
  <course>6.98</course>
  <speed>26.51</speed>
  <fix>3d</fix>
</trkpt>
<trkpt lat="-35.2825146" lon="148.9852565">
  <ele>713.62</ele>
  <time>2026-09-01T20:00:17Z</time>
  <course>7.04</course>
  <speed>26.39835032724583</speed>
  <fix>3d</fix>
</trkpt>
<trkpt lat="-35.2825615" lon="148.9852491">
  <ele>713.88</ele>
  <time>2026-09-01T20:00:17Z</time>
  <course>6.98</course>
  <speed>26.51</speed>
  <fix>3d</fix>
</trkpt>
<trkpt lat="-35.2824912" lon="148.98526">
  <ele>713.57</ele>
  <time>2026-09-01T20:00:17Z</time>
  <course>7.04</course>
  <speed>26.368575994922438</speed>
  <fix>3d</fix>
</trkpt>
<trkpt lat="-35.2825143" lon="148.9852562">
  <ele>713.78</ele>
  <time>2026-09-01T20:00:17Z</time>
  <course>6.97</course>
  <speed>26.46</speed>
  <fix>3d</fix>
</trkpt>
<trkpt lat="-35.2824678" lon="148.9852635">
  <ele>713.52</ele>
  <time>2026-09-01T20:00:17Z</time>
  <course>7.03</course>
  <speed>26.33880217473832</speed>
  <fix>3d</fix>
</trkpt>
<trkpt lat="-35.2825143" lon="148.9852562">
  <ele>713.78</ele>
  <time>2026-09-01T20:00:17Z</time>
  <course>6.97</course>
  <speed>26.46</speed>
  <fix>3d</fix>
</trkpt>
<trkpt lat="-35.2824442" lon="148.985267">
  <ele>713.46</ele>
  <time>2026-09-01T20:00:17Z</time>
  <course>7.02</course>
  <speed>26.307803024958204</speed>
  <fix>3d</fix>
</trkpt>
<trkpt lat="-35.2824671" lon="148.9852632">
  <ele>713.67</ele>
  <time>2026-09-01T20:00:17Z</time>
  <course>6.97</course>
  <speed>26.41</speed>
  <fix>3d</fix>
</trkpt>
<trkpt lat="-35.2824209" lon="148.9852705">
  <ele>713.41</ele>
  <time>2026-09-01T20:00:17Z</time>
  <course>7.04</course>
  <speed>26.286730492779053</speed>
  <fix>3d</fix>
</trkpt>
<trkpt lat="-35.2824671" lon="148.9852632">
  <ele>713.67</ele>
  <time>2026-09-01T20:00:17Z</time>
  <course>6.97</course>
  <speed>26.41</speed>
  <fix>3d</fix>
</trkpt>
<trkpt lat="-35.2823975" lon="148.985274">
  <ele>713.36</ele>
  <time>2026-09-01T20:00:17Z</time>
  <course>7.06</course>
  <speed>26.256955269033007</speed>
  <fix>3d</fix>
</trkpt>
<trkpt lat="-35.28242" lon="148.9852703">
  <ele>713.56</ele>
  <time>2026-09-01T20:00:17Z</time>
  <course>6.97</course>
  <speed>26.36</speed>
  <fix>3d</fix>
</trkpt>
<trkpt lat="-35.2823742" lon="148.9852775">
  <ele>713.31</ele>
  <time>2026-09-01T20:00:17Z</time>
  <course>7.06</course>
  <speed>26.22718055758186</speed>
  <fix>3d</fix>
</trkpt>
<trkpt lat="-35.28242" lon="148.9852703">
  <ele>713.56</ele>
  <time>2026-09-01T20:00:17Z</time>
  <course>6.97</course>
  <speed>26.36</speed>
  <fix>3d</fix>
</trkpt>
<trkpt lat="-35.2823508" lon="148.985281">
  <ele>713.25</ele>
  <time>2026-09-01T20:00:17Z</time>
  <course>7.01</course>
  <speed>26.207331035418314</speed>
  <fix>3d</fix>
</trkpt>
<trkpt lat="-35.2823731" lon="148.9852773">
  <ele>713.45</ele>
  <time>2026-09-01T20:00:17Z</time>
  <course>6.97</course>
  <speed>26.32</speed>
  <fix>3d</fix>
</trkpt>
<trkpt lat="-35.2823275" lon="148.9852845">
  <ele>713.2</ele>
  <time>2026-09-01T20:00:17Z</time>
  <course>6.97</course>
  <speed>26.17755718167759</speed>
  <fix>3d</fix>
</trkpt>
<trkpt lat="-35.2823731" lon="148.9852773">
  <ele>713.45</ele>
  <time>2026-09-01T20:00:17Z</time>
  <course>6.97</course>
  <speed>26.32</speed>
  <fix>3d</fix>
</trkpt>
<trkpt lat="-35.2823042" lon="148.985288">
  <ele>713.14</ele>
  <time>2026-09-01T20:00:17Z</time>
  <course>6.99</course>
  <speed>26.156482944004534</speed>
  <fix>3d</fix>
</trkpt>
<trkpt lat="-35.2823262" lon="148.9852844">
  <ele>713.35</ele>
  <time>2026-09-01T20:00:17Z</time>
  <course>6.98</course>
  <speed>26.28</speed>
  <fix>3d</fix>
</trkpt>
<trkpt lat="-35.2822809" lon="148.9852915">
  <ele>713.08</ele>
  <time>2026-09-01T20:00:17Z</time>
  <course>7.02</course>
  <speed>26.136633295051602</speed>
  <fix>3d</fix>
</trkpt>
<trkpt lat="-35.2823262" lon="148.9852844">
  <ele>713.35</ele>
  <time>2026-09-01T20:00:17Z</time>
  <course>6.98</course>
  <speed>26.28</speed>
  <fix>3d</fix>
</trkpt>
<trkpt lat="-35.2822576" lon="148.9852949">
  <ele>713.02</ele>
  <time>2026-09-01T20:00:17Z</time>
  <course>7.03</course>
  <speed>26.116783875508105</speed>
  <fix>3d</fix>
</trkpt>
<trkpt lat="-35.2822793" lon="148.9852914">
  <ele>713.24</ele>
  <time>2026-09-01T20:00:17Z</time>
  <course>6.98</course>
  <speed>26.24</speed>
  <fix>3d</fix>
</trkpt>
<trkpt lat="-35.2822343" lon="148.9852984">
  <ele>712.96</ele>
  <time>2026-09-01T20:00:17Z</time>
  <course>7.01</course>
  <speed>26.096934685897498</speed>
  <fix>3d</fix>
</trkpt>
<trkpt lat="-35.2822793" lon="148.9852914">
  <ele>713.24</ele>
  <time>2026-09-01T20:00:17Z</time>
  <course>6.98</course>
  <speed>26.24</speed>
  <fix>3d</fix>
</trkpt>
<trkpt lat="-35.2822109" lon="148.985302">
  <ele>712.91</ele>
  <time>2026-09-01T20:00:17Z</time>
  <course>7.01</course>
  <speed>26.075860484363695</speed>
  <fix>3d</fix>
</trkpt>
<trkpt lat="-35.2822325" lon="148.9852985">
  <ele>713.12</ele>
  <time>2026-09-01T20:00:17Z</time>
  <course>6.98</course>
  <speed>26.2</speed>
  <fix>3d</fix>
</trkpt>
<trkpt lat="-35.2821876" lon="148.9853055">
  <ele>712.85</ele>
  <time>2026-09-01T20:00:17Z</time>
  <course>7.08</course>
  <speed>26.056010822840857</speed>
  <fix>3d</fix>
</trkpt>
<trkpt lat="-35.2822325" lon="148.9852985">
  <ele>713.12</ele>
  <time>2026-09-01T20:00:17Z</time>
  <course>6.98</course>
  <speed>26.2</speed>
  <fix>3d</fix>
</trkpt>
<trkpt lat="-35.2821643" lon="148.985309">
  <ele>712.79</ele>
  <time>2026-09-01T20:00:17Z</time>
  <course>7.09</course>
  <speed>26.0460860783343</speed>
  <fix>3d</fix>
</trkpt>
<trkpt lat="-35.2821858" lon="148.9853054">
  <ele>713.0</ele>
  <time>2026-09-01T20:00:17Z</time>
  <course>7.0</course>
  <speed>26.17</speed>
  <fix>3d</fix>
</trkpt>
<trkpt lat="-35.282141" lon="148.9853124">
  <ele>712.74</ele>
  <time>2026-09-01T20:00:17Z</time>
  <course>7.05</course>
  <speed>26.026236762159833</speed>
  <fix>3d</fix>
</trkpt>
<trkpt lat="-35.2821858" lon="148.9853054">
  <ele>713.0</ele>
  <time>2026-09-01T20:00:17Z</time>
  <course>7.0</course>
  <speed>26.17</speed>
  <fix>3d</fix>
</trkpt>
<trkpt lat="-35.2821177" lon="148.9853159">
  <ele>712.68</ele>
  <time>2026-09-01T20:00:17Z</time>
  <course>7.01</course>
  <speed>26.01631219062379</speed>
  <fix>3d</fix>
</trkpt>
<trkpt lat="-35.2821392" lon="148.9853125">
  <ele>712.89</ele>
  <time>2026-09-01T20:00:17Z</time>
  <course>7.01</course>
  <speed>26.13</speed>
  <fix>3d</fix>
</trkpt>
<trkpt lat="-35.2820945" lon="148.9853194">
  <ele>712.62</ele>
  <time>2026-09-01T20:00:17Z</time>
  <course>7.02</course>
  <speed>25.995238025453816</speed>
  <fix>3d</fix>
</trkpt>
<trkpt lat="-35.2821392" lon="148.9853125">
  <ele>712.89</ele>
  <time>2026-09-01T20:00:17Z</time>
  <course>7.01</course>
  <speed>26.13</speed>
  <fix>3d</fix>
</trkpt>
<trkpt lat="-35.2820714" lon="148.9853229">
  <ele>712.56</ele>
  <time>2026-09-01T20:00:17Z</time>
  <course>7.0</course>
  <speed>25.985313159552263</speed>
  <fix>3d</fix>
</trkpt>
<trkpt lat="-35.2820926" lon="148.9853195">
  <ele>712.77</ele>
  <time>2026-09-01T20:00:17Z</time>
  <course>7.01</course>
  <speed>26.1</speed>
  <fix>3d</fix>
</trkpt>
<trkpt lat="-35.2820481" lon="148.9853264">
  <ele>712.49</ele>
  <time>2026-09-01T20:00:17Z</time>
  <course>7.03</course>
  <speed>25.974166011635486</speed>
  <fix>3d</fix>
</trkpt>
<trkpt lat="-35.2820926" lon="148.9853195">
  <ele>712.77</ele>
  <time>2026-09-01T20:00:17Z</time>
  <course>7.01</course>
  <speed>26.1</speed>
  <fix>3d</fix>
</trkpt>
<trkpt lat="-35.2820249" lon="148.9853299">
  <ele>712.43</ele>
  <time>2026-09-01T20:00:17Z</time>
  <course>7.05</course>
  <speed>25.963021780986896</speed>
  <fix>3d</fix>
</trkpt>
<trkpt lat="-35.2820461" lon="148.9853265">
  <ele>712.64</ele>
  <time>2026-09-01T20:00:17Z</time>
  <course>6.99</course>
  <speed>26.07</speed>
  <fix>3d</fix>
</trkpt>
<trkpt lat="-35.2820016" lon="148.9853333">
  <ele>712.37</ele>
  <time>2026-09-01T20:00:17Z</time>
  <course>7.04</course>
  <speed>25.963021780986896</speed>
  <fix>3d</fix>
</trkpt>
<trkpt lat="-35.2820461" lon="148.9853265">
  <ele>712.64</ele>
  <time>2026-09-01T20:00:17Z</time>
  <course>6.99</course>
  <speed>26.07</speed>
  <fix>3d</fix>
</trkpt>
<trkpt lat="-35.2819784" lon="148.9853368">
  <ele>712.3</ele>
  <time>2026-09-01T20:00:17Z</time>
  <course>7.04</course>
  <speed>25.941954436780588</speed>
  <fix>3d</fix>
</trkpt>
<trkpt lat="-35.2819997" lon="148.9853335">
  <ele>712.51</ele>
  <time>2026-09-01T20:00:17Z</time>
  <course>6.97</course>
  <speed>26.04</speed>
  <fix>3d</fix>
</trkpt>
<trkpt lat="-35.281955" lon="148.9853403">
  <ele>712.22</ele>
  <time>2026-09-01T20:00:17Z</time>
  <course>7.05</course>
  <speed>25.941954436780588</speed>
  <fix>3d</fix>
</trkpt>
<trkpt lat="-35.2819997" lon="148.9853335">
  <ele>712.51</ele>
  <time>2026-09-01T20:00:17Z</time>
  <course>6.97</course>
  <speed>26.04</speed>
  <fix>3d</fix>
</trkpt>
<trkpt lat="-35.2819318" lon="148.9853438">
  <ele>712.15</ele>
  <time>2026-09-01T20:00:17Z</time>
  <course>7.11</course>
  <speed>25.93202845903112</speed>
  <fix>3d</fix>
</trkpt>
<trkpt lat="-35.2819533" lon="148.9853405">
  <ele>712.37</ele>
  <time>2026-09-01T20:00:17Z</time>
  <course>6.97</course>
  <speed>26.02</speed>
  <fix>3d</fix>
</trkpt>
<trkpt lat="-35.2819085" lon="148.9853473">
  <ele>712.08</ele>
  <time>2026-09-01T20:00:17Z</time>
  <course>7.04</course>
  <speed>25.93202845903112</speed>
  <fix>3d</fix>
</trkpt>
<trkpt lat="-35.2819533" lon="148.9853405">
  <ele>712.37</ele>
  <time>2026-09-01T20:00:17Z</time>
  <course>6.97</course>
  <speed>26.02</speed>
  <fix>3d</fix>
</trkpt>
<trkpt lat="-35.2818853" lon="148.9853507">
  <ele>712.0</ele>
  <time>2026-09-01T20:00:17Z</time>
  <course>7.02</course>
  <speed>25.92210253818158</speed>
  <fix>3d</fix>
</trkpt>
<trkpt lat="-35.2819068" lon="148.9853474">
  <ele>712.22</ele>
  <time>2026-09-01T20:00:17Z</time>
  <course>6.97</course>
  <speed>26.0</speed>
  <fix>3d</fix>
</trkpt>
<trkpt lat="-35.2818621" lon="148.9853542">
  <ele>711.91</ele>
  <time>2026-09-01T20:00:17Z</time>
  <course>7.03</course>
  <speed>25.92210253818158</speed>
  <fix>3d</fix>
</trkpt>
<trkpt lat="-35.2819068" lon="148.9853474">
  <ele>712.22</ele>
  <time>2026-09-01T20:00:17Z</time>
  <course>6.97</course>
  <speed>26.0</speed>
  <fix>3d</fix>
</trkpt>
<trkpt lat="-35.2818389" lon="148.9853577">
  <ele>711.83</ele>
  <time>2026-09-01T20:00:17Z</time>
  <course>7.05</course>
  <speed>25.912176674297356</speed>
  <fix>3d</fix>
</trkpt>
<trkpt lat="-35.2818605" lon="148.9853543">
  <ele>712.06</ele>
  <time>2026-09-01T20:00:17Z</time>
  <course>6.97</course>
  <speed>25.98</speed>
  <fix>3d</fix>
</trkpt>
<trkpt lat="-35.2818156" lon="148.9853612">
  <ele>711.74</ele>
  <time>2026-09-01T20:00:17Z</time>
  <course>7.06</course>
  <speed>25.912176674297356</speed>
  <fix>3d</fix>
</trkpt>
<trkpt lat="-35.2818605" lon="148.9853543">
  <ele>712.06</ele>
  <time>2026-09-01T20:00:17Z</time>
  <course>6.97</course>
  <speed>25.98</speed>
  <fix>3d</fix>
</trkpt>
<trkpt lat="-35.2817924" lon="148.9853646">
  <ele>711.65</ele>
  <time>2026-09-01T20:00:17Z</time>
  <course>7.09</course>
  <speed>25.902250867443932</speed>
  <fix>3d</fix>
</trkpt>
<trkpt lat="-35.2818141" lon="148.9853613">
  <ele>711.89</ele>
  <time>2026-09-01T20:00:17Z</time>
  <course>6.98</course>
  <speed>25.96</speed>
  <fix>3d</fix>
</trkpt>
<trkpt lat="-35.2817692" lon="148.9853681">
  <ele>711.55</ele>
  <time>2026-09-01T20:00:17Z</time>
  <course>7.08</course>
  <speed>25.90346887966938</speed>
  <fix>3d</fix>
</trkpt>
<trkpt lat="-35.2818141" lon="148.9853613">
  <ele>711.89</ele>
  <time>2026-09-01T20:00:17Z</time>
  <course>6.98</course>
  <speed>25.96</speed>
  <fix>3d</fix>
</trkpt>
<trkpt lat="-35.281746" lon="148.9853716">
  <ele>711.45</ele>
  <time>2026-09-01T20:00:17Z</time>
  <course>7.07</course>
  <speed>25.902250867443932</speed>
  <fix>3d</fix>
</trkpt>
<trkpt lat="-35.2817678" lon="148.9853683">
  <ele>711.7</ele>
  <time>2026-09-01T20:00:17Z</time>
  <course>6.98</course>
  <speed>25.95</speed>
  <fix>3d</fix>
</trkpt>
<trkpt lat="-35.2817227" lon="148.9853751">
  <ele>711.34</ele>
  <time>2026-09-01T20:00:17Z</time>
  <course>7.04</course>
  <speed>25.902250867443932</speed>
  <fix>3d</fix>
</trkpt>
<trkpt lat="-35.2817678" lon="148.9853683">
  <ele>711.7</ele>
  <time>2026-09-01T20:00:17Z</time>
  <course>6.98</course>
  <speed>25.95</speed>
  <fix>3d</fix>
</trkpt>
<trkpt lat="-35.2816996" lon="148.9853785">
  <ele>711.23</ele>
  <time>2026-09-01T20:00:17Z</time>
  <course>7.02</course>
  <speed>25.902250867443932</speed>
  <fix>3d</fix>
</trkpt>
<trkpt lat="-35.2817215" lon="148.9853752">
  <ele>711.5</ele>
  <time>2026-09-01T20:00:17Z</time>
  <course>6.98</course>
  <speed>25.94</speed>
  <fix>3d</fix>
</trkpt>
<trkpt lat="-35.2816763" lon="148.985382">
  <ele>711.12</ele>
  <time>2026-09-01T20:00:17Z</time>
  <course>7.0</course>
  <speed>25.902250867443932</speed>
  <fix>3d</fix>
</trkpt>
<trkpt lat="-35.2817215" lon="148.9853752">
  <ele>711.5</ele>
  <time>2026-09-01T20:00:17Z</time>
  <course>6.98</course>
  <speed>25.94</speed>
  <fix>3d</fix>
</trkpt>
<trkpt lat="-35.2816532" lon="148.9853855">
  <ele>711.01</ele>
  <time>2026-09-01T20:00:17Z</time>
  <course>6.99</course>
  <speed>25.90103665879032</speed>
  <fix>3d</fix>
</trkpt>
<trkpt lat="-35.2816752" lon="148.9853821">
  <ele>711.29</ele>
  <time>2026-09-01T20:00:17Z</time>
  <course>6.97</course>
  <speed>25.93</speed>
  <fix>3d</fix>
</trkpt>
<trkpt lat="-35.28163" lon="148.985389">
  <ele>710.9</ele>
  <time>2026-09-01T20:00:17Z</time>
  <course>6.98</course>
  <speed>25.91096293077507</speed>
  <fix>3d</fix>
</trkpt>
<trkpt lat="-35.2816752" lon="148.9853821">
  <ele>711.29</ele>
  <time>2026-09-01T20:00:17Z</time>
  <course>6.97</course>
  <speed>25.93</speed>
  <fix>3d</fix>
</trkpt>
<trkpt lat="-35.2816068" lon="148.9853924">
  <ele>710.78</ele>
  <time>2026-09-01T20:00:17Z</time>
  <course>7.05</course>
  <speed>25.909752989945694</speed>
  <fix>3d</fix>
</trkpt>
<trkpt lat="-35.281629" lon="148.985389">
  <ele>711.06</ele>
  <time>2026-09-01T20:00:17Z</time>
  <course>6.94</course>
  <speed>25.92</speed>
  <fix>3d</fix>
</trkpt>
<trkpt lat="-35.2815836" lon="148.9853959">
  <ele>710.66</ele>
  <time>2026-09-01T20:00:17Z</time>
  <course>7.05</course>
  <speed>25.909752989945694</speed>
  <fix>3d</fix>
</trkpt>
<trkpt lat="-35.281629" lon="148.985389">
  <ele>711.06</ele>
  <time>2026-09-01T20:00:17Z</time>
  <course>6.94</course>
  <speed>25.92</speed>
  <fix>3d</fix>
</trkpt>
<trkpt lat="-35.2815604" lon="148.9853993">
  <ele>710.54</ele>
  <time>2026-09-01T20:00:17Z</time>
  <course>6.99</course>
  <speed>25.91967978197262</speed>
  <fix>3d</fix>
</trkpt>
<trkpt lat="-35.2815827" lon="148.9853959">
  <ele>710.83</ele>
  <time>2026-09-01T20:00:17Z</time>
  <course>6.93</course>
  <speed>25.92</speed>
  <fix>3d</fix>
</trkpt>
<trkpt lat="-35.2815372" lon="148.9854028">
  <ele>710.42</ele>
  <time>2026-09-01T20:00:17Z</time>
  <course>6.94</course>
  <speed>25.918474106320378</speed>
  <fix>3d</fix>
</trkpt>
<trkpt lat="-35.2815827" lon="148.9853959">
  <ele>710.83</ele>
  <time>2026-09-01T20:00:17Z</time>
  <course>6.93</course>
  <speed>25.92</speed>
  <fix>3d</fix>
</trkpt>
<trkpt lat="-35.281514" lon="148.9854062">
  <ele>710.3</ele>
  <time>2026-09-01T20:00:17Z</time>
  <course>6.96</course>
  <speed>25.918474106320378</speed>
  <fix>3d</fix>
</trkpt>
<trkpt lat="-35.2815365" lon="148.9854028">
  <ele>710.58</ele>
  <time>2026-09-01T20:00:17Z</time>
  <course>6.91</course>
  <speed>25.92</speed>
  <fix>3d</fix>
</trkpt>
<trkpt lat="-35.2814906" lon="148.9854097">
  <ele>710.17</ele>
  <time>2026-09-01T20:00:17Z</time>
  <course>7.01</course>
  <speed>25.927200003085563</speed>
  <fix>3d</fix>
</trkpt>
<trkpt lat="-35.2815365" lon="148.9854028">
  <ele>710.58</ele>
  <time>2026-09-01T20:00:17Z</time>
  <course>6.91</course>
  <speed>25.92</speed>
  <fix>3d</fix>
</trkpt>
<trkpt lat="-35.2814674" lon="148.9854131">
  <ele>710.05</ele>
  <time>2026-09-01T20:00:17Z</time>
  <course>6.98</course>
  <speed>25.927200003085563</speed>
  <fix>3d</fix>
</trkpt>
<trkpt lat="-35.2814903" lon="148.9854097">
  <ele>710.35</ele>
  <time>2026-09-01T20:00:17Z</time>
  <course>6.89</course>
  <speed>25.92</speed>
  <fix>3d</fix>
</trkpt>
<trkpt lat="-35.2814442" lon="148.9854165">
  <ele>709.93</ele>
  <time>2026-09-01T20:00:17Z</time>
  <course>6.98</course>
  <speed>25.935930675416298</speed>
  <fix>3d</fix>
</trkpt>
<trkpt lat="-35.2814903" lon="148.9854097">
  <ele>710.35</ele>
  <time>2026-09-01T20:00:17Z</time>
  <course>6.89</course>
  <speed>25.92</speed>
  <fix>3d</fix>
</trkpt>
<trkpt lat="-35.281421" lon="148.9854199">
  <ele>709.8</ele>
  <time>2026-09-01T20:00:17Z</time>
  <course>7.0</course>
  <speed>25.934737322749193</speed>
  <fix>3d</fix>
</trkpt>
<trkpt lat="-35.2814441" lon="148.9854164">
  <ele>710.1</ele>
  <time>2026-09-01T20:00:17Z</time>
  <course>6.86</course>
  <speed>25.92</speed>
  <fix>3d</fix>
</trkpt>
<trkpt lat="-35.2813978" lon="148.9854233">
  <ele>709.68</ele>
  <time>2026-09-01T20:00:17Z</time>
  <course>6.97</course>
  <speed>25.935930675416298</speed>
  <fix>3d</fix>
</trkpt>
<trkpt lat="-35.2814441" lon="148.9854164">
  <ele>710.1</ele>
  <time>2026-09-01T20:00:17Z</time>
  <course>6.86</course>
  <speed>25.92</speed>
  <fix>3d</fix>
</trkpt>
<trkpt lat="-35.2813746" lon="148.9854267">
  <ele>709.55</ele>
  <time>2026-09-01T20:00:17Z</time>
  <course>6.96</course>
  <speed>25.934737322749193</speed>
  <fix>3d</fix>
</trkpt>
<trkpt lat="-35.2813979" lon="148.9854233">
  <ele>709.85</ele>
  <time>2026-09-01T20:00:17Z</time>
  <course>6.85</course>
  <speed>25.92</speed>
  <fix>3d</fix>
</trkpt>
<trkpt lat="-35.2813514" lon="148.9854301">
  <ele>709.42</ele>
  <time>2026-09-01T20:00:17Z</time>
  <course>6.91</course>
  <speed>25.944666118491487</speed>
  <fix>3d</fix>
</trkpt>
<trkpt lat="-35.2813979" lon="148.9854233">
  <ele>709.85</ele>
  <time>2026-09-01T20:00:17Z</time>
  <course>6.85</course>
  <speed>25.92</speed>
  <fix>3d</fix>
</trkpt>
<trkpt lat="-35.2813283" lon="148.9854335">
  <ele>709.29</ele>
  <time>2026-09-01T20:00:17Z</time>
  <course>6.9</course>
  <speed>25.944666118491487</speed>
  <fix>3d</fix>
</trkpt>
<trkpt lat="-35.2813517" lon="148.9854301">
  <ele>709.59</ele>
  <time>2026-09-01T20:00:17Z</time>
  <course>6.84</course>
  <speed>25.92</speed>
  <fix>3d</fix>
</trkpt>
<trkpt lat="-35.2813051" lon="148.9854369">
  <ele>709.16</ele>
  <time>2026-09-01T20:00:17Z</time>
  <course>6.89</course>
  <speed>25.943477022172647</speed>
  <fix>3d</fix>
</trkpt>
<trkpt lat="-35.2813517" lon="148.9854301">
  <ele>709.59</ele>
  <time>2026-09-01T20:00:17Z</time>
  <course>6.84</course>
  <speed>25.92</speed>
  <fix>3d</fix>
</trkpt>
<trkpt lat="-35.2812819" lon="148.9854403">
  <ele>709.02</ele>
  <time>2026-09-01T20:00:17Z</time>
  <course>6.96</course>
  <speed>25.943477022172647</speed>
  <fix>3d</fix>
</trkpt>
<trkpt lat="-35.2813054" lon="148.9854369">
  <ele>709.33</ele>
  <time>2026-09-01T20:00:17Z</time>
  <course>6.82</course>
  <speed>25.91</speed>
  <fix>3d</fix>
</trkpt>
<trkpt lat="-35.2812589" lon="148.9854437">
  <ele>708.89</ele>
  <time>2026-09-01T20:00:17Z</time>
  <course>6.94</course>
  <speed>25.943477022172647</speed>
  <fix>3d</fix>
</trkpt>
<trkpt lat="-35.2813054" lon="148.9854369">
  <ele>709.33</ele>
  <time>2026-09-01T20:00:17Z</time>
  <course>6.82</course>
  <speed>25.91</speed>
  <fix>3d</fix>
</trkpt>
<trkpt lat="-35.2812359" lon="148.9854471">
  <ele>708.75</ele>
  <time>2026-09-01T20:00:17Z</time>
  <course>6.93</course>
  <speed>25.93354777117855</speed>
  <fix>3d</fix>
</trkpt>
<trkpt lat="-35.2812591" lon="148.9854437">
  <ele>709.06</ele>
  <time>2026-09-01T20:00:17Z</time>
  <course>6.81</course>
  <speed>25.92</speed>
  <fix>3d</fix>
</trkpt>
<trkpt lat="-35.2812129" lon="148.9854504">
  <ele>708.62</ele>
  <time>2026-09-01T20:00:17Z</time>
  <course>6.92</course>
  <speed>25.92361857457404</speed>
  <fix>3d</fix>
</trkpt>
<trkpt lat="-35.2812591" lon="148.9854437">
  <ele>709.06</ele>
  <time>2026-09-01T20:00:17Z</time>
  <course>6.81</course>
  <speed>25.92</speed>
  <fix>3d</fix>
</trkpt>
<trkpt lat="-35.2811899" lon="148.9854538">
  <ele>708.48</ele>
  <time>2026-09-01T20:00:17Z</time>
  <course>6.93</course>
  <speed>25.91368943242162</speed>
  <fix>3d</fix>
</trkpt>
<trkpt lat="-35.2812128" lon="148.9854504">
  <ele>708.79</ele>
  <time>2026-09-01T20:00:17Z</time>
  <course>6.81</course>
  <speed>25.91</speed>
  <fix>3d</fix>
</trkpt>
<trkpt lat="-35.2811669" lon="148.9854572">
  <ele>708.35</ele>
  <time>2026-09-01T20:00:17Z</time>
  <course>6.92</course>
  <speed>25.903760344783922</speed>
  <fix>3d</fix>
</trkpt>
<trkpt lat="-35.2812128" lon="148.9854504">
  <ele>708.79</ele>
  <time>2026-09-01T20:00:17Z</time>
  <course>6.81</course>
  <speed>25.91</speed>
  <fix>3d</fix>
</trkpt>
<trkpt lat="-35.2811439" lon="148.9854605">
  <ele>708.21</ele>
  <time>2026-09-01T20:00:17Z</time>
  <course>6.9</course>
  <speed>25.89264374296298</speed>
  <fix>3d</fix>
</trkpt>
<trkpt lat="-35.2811666" lon="148.9854572">
  <ele>708.52</ele>
  <time>2026-09-01T20:00:17Z</time>
  <course>6.81</course>
  <speed>25.91</speed>
  <fix>3d</fix>
</trkpt>
<trkpt lat="-35.2811209" lon="148.9854639">
  <ele>708.06</ele>
  <time>2026-09-01T20:00:17Z</time>
  <course>6.88</course>
  <speed>25.882714308974627</speed>
  <fix>3d</fix>
</trkpt>
<trkpt lat="-35.2811666" lon="148.9854572">
  <ele>708.52</ele>
  <time>2026-09-01T20:00:17Z</time>
  <course>6.81</course>
  <speed>25.91</speed>
  <fix>3d</fix>
</trkpt>
<trkpt lat="-35.2810979" lon="148.9854673">
  <ele>707.91</ele>
  <time>2026-09-01T20:00:17Z</time>
  <course>6.88</course>
  <speed>25.87278492934226</speed>
  <fix>3d</fix>
</trkpt>
<trkpt lat="-35.2811204" lon="148.9854639">
  <ele>708.23</ele>
  <time>2026-09-01T20:00:17Z</time>
  <course>6.81</course>
  <speed>25.9</speed>
  <fix>3d</fix>
</trkpt>
<trkpt lat="-35.2810749" lon="148.9854706">
  <ele>707.76</ele>
  <time>2026-09-01T20:00:17Z</time>
  <course>6.92</course>
  <speed>25.87278492934226</speed>
  <fix>3d</fix>
</trkpt>
<trkpt lat="-35.2811204" lon="148.9854639">
  <ele>708.23</ele>
  <time>2026-09-01T20:00:17Z</time>
  <course>6.81</course>
  <speed>25.9</speed>
  <fix>3d</fix>
</trkpt>
<trkpt lat="-35.2810519" lon="148.985474">
  <ele>707.6</ele>
  <time>2026-09-01T20:00:17Z</time>
  <course>6.97</course>
  <speed>25.86285560412848</speed>
  <fix>3d</fix>
</trkpt>
<trkpt lat="-35.2810742" lon="148.9854708">
  <ele>707.93</ele>
  <time>2026-09-01T20:00:17Z</time>
  <course>6.81</course>
  <speed>25.89</speed>
  <fix>3d</fix>
</trkpt>
<trkpt lat="-35.2810289" lon="148.9854774">
  <ele>707.43</ele>
  <time>2026-09-01T20:00:17Z</time>
  <course>6.99</course>
  <speed>25.864044540635945</speed>
  <fix>3d</fix>
</trkpt>
<trkpt lat="-35.2810742" lon="148.9854708">
  <ele>707.93</ele>
  <time>2026-09-01T20:00:17Z</time>
  <course>6.81</course>
  <speed>25.89</speed>
  <fix>3d</fix>
</trkpt>
<trkpt lat="-35.2810061" lon="148.9854807">
  <ele>707.26</ele>
  <time>2026-09-01T20:00:17Z</time>
  <course>7.0</course>
  <speed>25.854115726514415</speed>
  <fix>3d</fix>
</trkpt>
<trkpt lat="-35.2810281" lon="148.9854775">
  <ele>707.6</ele>
  <time>2026-09-01T20:00:17Z</time>
  <course>6.82</course>
  <speed>25.89</speed>
  <fix>3d</fix>
</trkpt>
<trkpt lat="-35.2809831" lon="148.9854841">
  <ele>707.08</ele>
  <time>2026-09-01T20:00:17Z</time>
  <course>7.01</course>
  <speed>25.844186967285314</speed>
  <fix>3d</fix>
</trkpt>
<trkpt lat="-35.2810281" lon="148.9854775">
  <ele>707.6</ele>
  <time>2026-09-01T20:00:17Z</time>
  <course>6.82</course>
  <speed>25.89</speed>
  <fix>3d</fix>
</trkpt>
<trkpt lat="-35.2809601" lon="148.9854875">
  <ele>706.89</ele>
  <time>2026-09-01T20:00:17Z</time>
  <course>7.02</course>
  <speed>25.84538063174926</speed>
  <fix>3d</fix>
</trkpt>
<trkpt lat="-35.2809819" lon="148.9854843">
  <ele>707.25</ele>
  <time>2026-09-01T20:00:17Z</time>
  <course>6.84</course>
  <speed>25.88</speed>
  <fix>3d</fix>
</trkpt>
<trkpt lat="-35.2809367" lon="148.9854909">
  <ele>706.7</ele>
  <time>2026-09-01T20:00:17Z</time>
  <course>7.05</course>
  <speed>25.84538063174926</speed>
  <fix>3d</fix>
</trkpt>
<trkpt lat="-35.2809819" lon="148.9854843">
  <ele>707.25</ele>
  <time>2026-09-01T20:00:17Z</time>
  <course>6.84</course>
  <speed>25.88</speed>
  <fix>3d</fix>
</trkpt>
<trkpt lat="-35.2809137" lon="148.9854943">
  <ele>706.51</ele>
  <time>2026-09-01T20:00:17Z</time>
  <course>7.05</course>
  <speed>25.846578110070972</speed>
  <fix>3d</fix>
</trkpt>
<trkpt lat="-35.2809357" lon="148.9854911">
  <ele>706.87</ele>
  <time>2026-09-01T20:00:17Z</time>
  <course>6.86</course>
  <speed>25.88</speed>
  <fix>3d</fix>
</trkpt>
<trkpt lat="-35.2808907" lon="148.9854977">
  <ele>706.31</ele>
  <time>2026-09-01T20:00:17Z</time>
  <course>7.01</course>
  <speed>25.83665032468412</speed>
  <fix>3d</fix>
</trkpt>
<trkpt lat="-35.2809357" lon="148.9854911">
  <ele>706.87</ele>
  <time>2026-09-01T20:00:17Z</time>
  <course>6.86</course>
  <speed>25.88</speed>
  <fix>3d</fix>
</trkpt>
<trkpt lat="-35.2808676" lon="148.9855012">
  <ele>706.1</ele>
  <time>2026-09-01T20:00:17Z</time>
  <course>6.96</course>
  <speed>25.83665032468412</speed>
  <fix>3d</fix>
</trkpt>
<trkpt lat="-35.2808896" lon="148.9854978">
  <ele>706.48</ele>
  <time>2026-09-01T20:00:17Z</time>
  <course>6.87</course>
  <speed>25.88</speed>
  <fix>3d</fix>
</trkpt>
<trkpt lat="-35.2808445" lon="148.9855046">
  <ele>705.89</ele>
  <time>2026-09-01T20:00:17Z</time>
  <course>7.01</course>
  <speed>25.846578110070972</speed>
  <fix>3d</fix>
</trkpt>
<trkpt lat="-35.2808896" lon="148.9854978">
  <ele>706.48</ele>
  <time>2026-09-01T20:00:17Z</time>
  <course>6.87</course>
  <speed>25.88</speed>
  <fix>3d</fix>
</trkpt>
<trkpt lat="-35.2808215" lon="148.985508">
  <ele>705.67</ele>
  <time>2026-09-01T20:00:17Z</time>
  <course>7.08</course>
  <speed>25.847779401720373</speed>
  <fix>3d</fix>
</trkpt>
<trkpt lat="-35.2808433" lon="148.9855047">
  <ele>706.06</ele>
  <time>2026-09-01T20:00:17Z</time>
  <course>6.88</course>
  <speed>25.89</speed>
  <fix>3d</fix>
</trkpt>
<trkpt lat="-35.2807984" lon="148.9855114">
  <ele>705.45</ele>
  <time>2026-09-01T20:00:17Z</time>
  <course>7.09</course>
  <speed>25.847779401720373</speed>
  <fix>3d</fix>
</trkpt>
<trkpt lat="-35.2808433" lon="148.9855047">
  <ele>706.06</ele>
  <time>2026-09-01T20:00:17Z</time>
  <course>6.88</course>
  <speed>25.89</speed>
  <fix>3d</fix>
</trkpt>
<trkpt lat="-35.2807753" lon="148.9855148">
  <ele>705.23</ele>
  <time>2026-09-01T20:00:17Z</time>
  <course>7.09</course>
  <speed>25.857706781538074</speed>
  <fix>3d</fix>
</trkpt>
<trkpt lat="-35.2807971" lon="148.9855116">
  <ele>705.63</ele>
  <time>2026-09-01T20:00:17Z</time>
  <course>6.89</course>
  <speed>25.89</speed>
  <fix>3d</fix>
</trkpt>
<trkpt lat="-35.2807522" lon="148.9855183">
  <ele>705.01</ele>
  <time>2026-09-01T20:00:17Z</time>
  <course>7.1</course>
  <speed>25.85891142333722</speed>
  <fix>3d</fix>
</trkpt>
<trkpt lat="-35.2807971" lon="148.9855116">
  <ele>705.63</ele>
  <time>2026-09-01T20:00:17Z</time>
  <course>6.89</course>
  <speed>25.89</speed>
  <fix>3d</fix>
</trkpt>
<trkpt lat="-35.2807291" lon="148.9855217">
  <ele>704.78</ele>
  <time>2026-09-01T20:00:17Z</time>
  <course>7.06</course>
  <speed>25.85891142333722</speed>
  <fix>3d</fix>
</trkpt>
<trkpt lat="-35.2807509" lon="148.9855184">
  <ele>705.18</ele>
  <time>2026-09-01T20:00:17Z</time>
  <course>6.9</course>
  <speed>25.9</speed>
  <fix>3d</fix>
</trkpt>
<trkpt lat="-35.280706" lon="148.9855251">
  <ele>704.55</ele>
  <time>2026-09-01T20:00:17Z</time>
  <course>7.04</course>
  <speed>25.868838396804755</speed>
  <fix>3d</fix>
</trkpt>
<trkpt lat="-35.2807509" lon="148.9855184">
  <ele>705.18</ele>
  <time>2026-09-01T20:00:17Z</time>
  <course>6.9</course>
  <speed>25.9</speed>
  <fix>3d</fix>
</trkpt>
<trkpt lat="-35.2806829" lon="148.9855286">
  <ele>704.31</ele>
  <time>2026-09-01T20:00:17Z</time>
  <course>7.06</course>
  <speed>25.868838396804755</speed>
  <fix>3d</fix>
</trkpt>
<trkpt lat="-35.2807047" lon="148.9855253">
  <ele>704.73</ele>
  <time>2026-09-01T20:00:17Z</time>
  <course>6.91</course>
  <speed>25.91</speed>
  <fix>3d</fix>
</trkpt>
<trkpt lat="-35.2806598" lon="148.985532">
  <ele>704.08</ele>
  <time>2026-09-01T20:00:17Z</time>
  <course>7.1</course>
  <speed>25.878765426503637</speed>
  <fix>3d</fix>
</trkpt>
<trkpt lat="-35.2807047" lon="148.9855253">
  <ele>704.73</ele>
  <time>2026-09-01T20:00:17Z</time>
  <course>6.91</course>
  <speed>25.91</speed>
  <fix>3d</fix>
</trkpt>
<trkpt lat="-35.2806367" lon="148.9855354">
  <ele>703.83</ele>
  <time>2026-09-01T20:00:17Z</time>
  <course>7.14</course>
  <speed>25.878765426503637</speed>
  <fix>3d</fix>
</trkpt>
<trkpt lat="-35.2806585" lon="148.9855321">
  <ele>704.26</ele>
  <time>2026-09-01T20:00:17Z</time>
  <course>6.9</course>
  <speed>25.92</speed>
  <fix>3d</fix>
</trkpt>
<trkpt lat="-35.2806135" lon="148.9855388">
  <ele>703.59</ele>
  <time>2026-09-01T20:00:17Z</time>
  <course>7.15</course>
  <speed>25.88869251236918</speed>
  <fix>3d</fix>
</trkpt>
<trkpt lat="-35.2806585" lon="148.9855321">
  <ele>704.26</ele>
  <time>2026-09-01T20:00:17Z</time>
  <course>6.9</course>
  <speed>25.92</speed>
  <fix>3d</fix>
</trkpt>
<trkpt lat="-35.2805904" lon="148.9855423">
  <ele>703.35</ele>
  <time>2026-09-01T20:00:17Z</time>
  <course>7.12</course>
  <speed>25.88869251236918</speed>
  <fix>3d</fix>
</trkpt>
<trkpt lat="-35.2806123" lon="148.985539">
  <ele>703.77</ele>
  <time>2026-09-01T20:00:17Z</time>
  <course>6.91</course>
  <speed>25.92</speed>
  <fix>3d</fix>
</trkpt>
<trkpt lat="-35.2805672" lon="148.9855457">
  <ele>703.1</ele>
  <time>2026-09-01T20:00:17Z</time>
  <course>7.08</course>
  <speed>25.898619654336795</speed>
  <fix>3d</fix>
</trkpt>
<trkpt lat="-35.2806123" lon="148.985539">
  <ele>703.77</ele>
  <time>2026-09-01T20:00:17Z</time>
  <course>6.91</course>
  <speed>25.92</speed>
  <fix>3d</fix>
</trkpt>
<trkpt lat="-35.2805441" lon="148.9855492">
  <ele>702.85</ele>
  <time>2026-09-01T20:00:17Z</time>
  <course>7.06</course>
  <speed>25.90854685234199</speed>
  <fix>3d</fix>
</trkpt>
<trkpt lat="-35.280566" lon="148.9855458">
  <ele>703.28</ele>
  <time>2026-09-01T20:00:17Z</time>
  <course>6.9</course>
  <speed>25.93</speed>
  <fix>3d</fix>
</trkpt>
<trkpt lat="-35.2805211" lon="148.9855526">
  <ele>702.6</ele>
  <time>2026-09-01T20:00:17Z</time>
  <course>7.08</course>
  <speed>25.907344518495137</speed>
  <fix>3d</fix>
</trkpt>
<trkpt lat="-35.280566" lon="148.9855458">
  <ele>703.28</ele>
  <time>2026-09-01T20:00:17Z</time>
  <course>6.9</course>
  <speed>25.93</speed>
  <fix>3d</fix>
</trkpt>
<trkpt lat="-35.2804979" lon="148.985556">
  <ele>702.34</ele>
  <time>2026-09-01T20:00:17Z</time>
  <course>7.1</course>
  <speed>25.917272233010944</speed>
  <fix>3d</fix>
</trkpt>
<trkpt lat="-35.2805198" lon="148.9855527">
  <ele>702.78</ele>
  <time>2026-09-01T20:00:17Z</time>
  <course>6.89</course>
  <speed>25.94</speed>
  <fix>3d</fix>
</trkpt>
<trkpt lat="-35.2804747" lon="148.9855594">
  <ele>702.08</ele>
  <time>2026-09-01T20:00:17Z</time>
  <course>7.09</course>
  <speed>25.918474106320378</speed>
  <fix>3d</fix>
</trkpt>
<trkpt lat="-35.2805198" lon="148.9855527">
  <ele>702.78</ele>
  <time>2026-09-01T20:00:17Z</time>
  <course>6.89</course>
  <speed>25.94</speed>
  <fix>3d</fix>
</trkpt>
<trkpt lat="-35.2804515" lon="148.9855629">
  <ele>701.82</ele>
  <time>2026-09-01T20:00:17Z</time>
  <course>7.1</course>
  <speed>25.92840141620767</speed>
  <fix>3d</fix>
</trkpt>
<trkpt lat="-35.2804735" lon="148.9855595">
  <ele>702.27</ele>
  <time>2026-09-01T20:00:17Z</time>
  <course>6.89</course>
  <speed>25.94</speed>
  <fix>3d</fix>
</trkpt>
<trkpt lat="-35.2804281" lon="148.9855663">
  <ele>701.56</ele>
  <time>2026-09-01T20:00:17Z</time>
  <course>7.06</course>
  <speed>25.927200003085563</speed>
  <fix>3d</fix>
</trkpt>
<trkpt lat="-35.2804735" lon="148.9855595">
  <ele>702.27</ele>
  <time>2026-09-01T20:00:17Z</time>
  <course>6.89</course>
  <speed>25.94</speed>
  <fix>3d</fix>
</trkpt>
<trkpt lat="-35.2804049" lon="148.9855697">
  <ele>701.29</ele>
  <time>2026-09-01T20:00:17Z</time>
  <course>7.02</course>
  <speed>25.937127828655196</speed>
  <fix>3d</fix>
</trkpt>
<trkpt lat="-35.2804272" lon="148.9855664">
  <ele>701.75</ele>
  <time>2026-09-01T20:00:17Z</time>
  <course>6.88</course>
  <speed>25.94</speed>
  <fix>3d</fix>
</trkpt>
<trkpt lat="-35.2803817" lon="148.9855732">
  <ele>701.03</ele>
  <time>2026-09-01T20:00:17Z</time>
  <course>7.03</course>
  <speed>25.937127828655196</speed>
  <fix>3d</fix>
</trkpt>
<trkpt lat="-35.2804272" lon="148.9855664">
  <ele>701.75</ele>
  <time>2026-09-01T20:00:17Z</time>
  <course>6.88</course>
  <speed>25.94</speed>
  <fix>3d</fix>
</trkpt>
<trkpt lat="-35.2803585" lon="148.9855766">
  <ele>700.77</ele>
  <time>2026-09-01T20:00:17Z</time>
  <course>7.07</course>
  <speed>25.935930675416298</speed>
  <fix>3d</fix>
</trkpt>
<trkpt lat="-35.2803809" lon="148.9855733">
  <ele>701.22</ele>
  <time>2026-09-01T20:00:17Z</time>
  <course>6.87</course>
  <speed>25.94</speed>
  <fix>3d</fix>
</trkpt>
<trkpt lat="-35.2803353" lon="148.98558">
  <ele>700.5</ele>
  <time>2026-09-01T20:00:17Z</time>
  <course>7.14</course>
  <speed>25.945859014494008</speed>
  <fix>3d</fix>
</trkpt>
<trkpt lat="-35.2803809" lon="148.9855733">
  <ele>701.22</ele>
  <time>2026-09-01T20:00:17Z</time>
  <course>6.87</course>
  <speed>25.94</speed>
  <fix>3d</fix>
</trkpt>
<trkpt lat="-35.2803121" lon="148.9855834">
  <ele>700.23</ele>
  <time>2026-09-01T20:00:17Z</time>
  <course>7.14</course>
  <speed>25.935930675416298</speed>
  <fix>3d</fix>
</trkpt>
<trkpt lat="-35.2803345" lon="148.9855801">
  <ele>700.69</ele>
  <time>2026-09-01T20:00:17Z</time>
  <course>6.86</course>
  <speed>25.94</speed>
  <fix>3d</fix>
</trkpt>
<trkpt lat="-35.2802887" lon="148.9855869">
  <ele>699.95</ele>
  <time>2026-09-01T20:00:17Z</time>
  <course>7.15</course>
  <speed>25.935930675416298</speed>
  <fix>3d</fix>
</trkpt>
<trkpt lat="-35.2803345" lon="148.9855801">
  <ele>700.69</ele>
  <time>2026-09-01T20:00:17Z</time>
  <course>6.86</course>
  <speed>25.94</speed>
  <fix>3d</fix>
</trkpt>
<trkpt lat="-35.2802655" lon="148.9855903">
  <ele>699.68</ele>
  <time>2026-09-01T20:00:17Z</time>
  <course>7.14</course>
  <speed>25.937127828655196</speed>
  <fix>3d</fix>
</trkpt>
<trkpt lat="-35.2802882" lon="148.9855869">
  <ele>700.15</ele>
  <time>2026-09-01T20:00:17Z</time>
  <course>6.86</course>
  <speed>25.94</speed>
  <fix>3d</fix>
</trkpt>
<trkpt lat="-35.2802424" lon="148.9855937">
  <ele>699.4</ele>
  <time>2026-09-01T20:00:17Z</time>
  <course>7.09</course>
  <speed>25.94705570965615</speed>
  <fix>3d</fix>
</trkpt>
<trkpt lat="-35.2802882" lon="148.9855869">
  <ele>700.15</ele>
  <time>2026-09-01T20:00:17Z</time>
  <course>6.86</course>
  <speed>25.94</speed>
  <fix>3d</fix>
</trkpt>
<trkpt lat="-35.2802192" lon="148.9855971">
  <ele>699.13</ele>
  <time>2026-09-01T20:00:17Z</time>
  <course>7.04</course>
  <speed>25.945859014494008</speed>
  <fix>3d</fix>
</trkpt>
<trkpt lat="-35.280242" lon="148.9855938">
  <ele>699.61</ele>
  <time>2026-09-01T20:00:17Z</time>
  <course>6.87</course>
  <speed>25.94</speed>
  <fix>3d</fix>
</trkpt>
<trkpt lat="-35.280196" lon="148.9856005">
  <ele>698.85</ele>
  <time>2026-09-01T20:00:17Z</time>
  <course>7.04</course>
  <speed>25.944666118491487</speed>
  <fix>3d</fix>
</trkpt>
<trkpt lat="-35.280242" lon="148.9855938">
  <ele>699.61</ele>
  <time>2026-09-01T20:00:17Z</time>
  <course>6.87</course>
  <speed>25.94</speed>
  <fix>3d</fix>
</trkpt>
<trkpt lat="-35.2801729" lon="148.9856039">
  <ele>698.58</ele>
  <time>2026-09-01T20:00:17Z</time>
  <course>7.04</course>
  <speed>25.944666118491487</speed>
  <fix>3d</fix>
</trkpt>
<trkpt lat="-35.2801958" lon="148.9856006">
  <ele>699.06</ele>
  <time>2026-09-01T20:00:17Z</time>
  <course>6.85</course>
  <speed>25.94</speed>
  <fix>3d</fix>
</trkpt>
<trkpt lat="-35.2801497" lon="148.9856073">
  <ele>698.3</ele>
  <time>2026-09-01T20:00:17Z</time>
  <course>7.06</course>
  <speed>25.944666118491487</speed>
  <fix>3d</fix>
</trkpt>
<trkpt lat="-35.2801958" lon="148.9856006">
  <ele>699.06</ele>
  <time>2026-09-01T20:00:17Z</time>
  <course>6.85</course>
  <speed>25.94</speed>
  <fix>3d</fix>
</trkpt>
<trkpt lat="-35.2801266" lon="148.9856108">
  <ele>698.03</ele>
  <time>2026-09-01T20:00:17Z</time>
  <course>7.07</course>
  <speed>25.944666118491487</speed>
  <fix>3d</fix>
</trkpt>
<trkpt lat="-35.2801495" lon="148.9856074">
  <ele>698.52</ele>
  <time>2026-09-01T20:00:17Z</time>
  <course>6.84</course>
  <speed>25.94</speed>
  <fix>3d</fix>
</trkpt>
<trkpt lat="-35.2801034" lon="148.9856142">
  <ele>697.76</ele>
  <time>2026-09-01T20:00:17Z</time>
  <course>7.12</course>
  <speed>25.944666118491487</speed>
  <fix>3d</fix>
</trkpt>
<trkpt lat="-35.2801495" lon="148.9856074">
  <ele>698.52</ele>
  <time>2026-09-01T20:00:17Z</time>
  <course>6.84</course>
  <speed>25.94</speed>
  <fix>3d</fix>
</trkpt>
<trkpt lat="-35.2800803" lon="148.9856176">
  <ele>697.49</ele>
  <time>2026-09-01T20:00:17Z</time>
  <course>7.12</course>
  <speed>25.934737322749193</speed>
  <fix>3d</fix>
</trkpt>
<trkpt lat="-35.2801032" lon="148.9856141">
  <ele>697.98</ele>
  <time>2026-09-01T20:00:17Z</time>
  <course>6.84</course>
  <speed>25.93</speed>
  <fix>3d</fix>
</trkpt>
<trkpt lat="-35.2800571" lon="148.985621">
  <ele>697.22</ele>
  <time>2026-09-01T20:00:17Z</time>
  <course>7.1</course>
  <speed>25.934737322749193</speed>
  <fix>3d</fix>
</trkpt>
<trkpt lat="-35.2801032" lon="148.9856141">
  <ele>697.98</ele>
  <time>2026-09-01T20:00:17Z</time>
  <course>6.84</course>
  <speed>25.93</speed>
  <fix>3d</fix>
</trkpt>
<trkpt lat="-35.2800341" lon="148.9856243">
  <ele>696.95</ele>
  <time>2026-09-01T20:00:17Z</time>
  <course>7.07</course>
  <speed>25.93354777117855</speed>
  <fix>3d</fix>
</trkpt>
<trkpt lat="-35.280057" lon="148.9856209">
  <ele>697.44</ele>
  <time>2026-09-01T20:00:17Z</time>
  <course>6.84</course>
  <speed>25.93</speed>
  <fix>3d</fix>
</trkpt>
<trkpt lat="-35.2800109" lon="148.9856277">
  <ele>696.68</ele>
  <time>2026-09-01T20:00:17Z</time>
  <course>7.07</course>
  <speed>25.93354777117855</speed>
  <fix>3d</fix>
</trkpt>
<trkpt lat="-35.280057" lon="148.9856209">
  <ele>697.44</ele>
  <time>2026-09-01T20:00:17Z</time>
  <course>6.84</course>
  <speed>25.93</speed>
  <fix>3d</fix>
</trkpt>
<trkpt lat="-35.2799878" lon="148.9856311">
  <ele>696.42</ele>
  <time>2026-09-01T20:00:17Z</time>
  <course>7.06</course>
  <speed>25.92361857457404</speed>
  <fix>3d</fix>
</trkpt>
<trkpt lat="-35.2800108" lon="148.9856278">
  <ele>696.92</ele>
  <time>2026-09-01T20:00:17Z</time>
  <course>6.82</course>
  <speed>25.92</speed>
  <fix>3d</fix>
</trkpt>
<trkpt lat="-35.2799646" lon="148.9856345">
  <ele>696.15</ele>
  <time>2026-09-01T20:00:17Z</time>
  <course>7.07</course>
  <speed>25.92361857457404</speed>
  <fix>3d</fix>
</trkpt>
<trkpt lat="-35.2800108" lon="148.9856278">
  <ele>696.92</ele>
  <time>2026-09-01T20:00:17Z</time>
  <course>6.82</course>
  <speed>25.92</speed>
  <fix>3d</fix>
</trkpt>
<trkpt lat="-35.2799413" lon="148.9856379">
  <ele>695.89</ele>
  <time>2026-09-01T20:00:17Z</time>
  <course>7.08</course>
  <speed>25.91368943242162</speed>
  <fix>3d</fix>
</trkpt>
<trkpt lat="-35.2799646" lon="148.9856346">
  <ele>696.4</ele>
  <time>2026-09-01T20:00:17Z</time>
  <course>6.81</course>
  <speed>25.91</speed>
  <fix>3d</fix>
</trkpt>
<trkpt lat="-35.2799181" lon="148.9856413">
  <ele>695.62</ele>
  <time>2026-09-01T20:00:17Z</time>
  <course>7.1</course>
  <speed>25.91250277375769</speed>
  <fix>3d</fix>
</trkpt>
<trkpt lat="-35.2799646" lon="148.9856346">
  <ele>696.4</ele>
  <time>2026-09-01T20:00:17Z</time>
  <course>6.81</course>
  <speed>25.91</speed>
  <fix>3d</fix>
</trkpt>
<trkpt lat="-35.279895" lon="148.9856447">
  <ele>695.36</ele>
  <time>2026-09-01T20:00:17Z</time>
  <course>7.09</course>
  <speed>25.902573231244805</speed>
  <fix>3d</fix>
</trkpt>
<trkpt lat="-35.2799184" lon="148.9856413">
  <ele>695.87</ele>
  <time>2026-09-01T20:00:17Z</time>
  <course>6.8</course>
  <speed>25.89</speed>
  <fix>3d</fix>
</trkpt>
<trkpt lat="-35.2798718" lon="148.9856481">
  <ele>695.1</ele>
  <time>2026-09-01T20:00:17Z</time>
  <course>7.09</course>
  <speed>25.902573231244805</speed>
  <fix>3d</fix>
</trkpt>
<trkpt lat="-35.2799184" lon="148.9856413">
  <ele>695.87</ele>
  <time>2026-09-01T20:00:17Z</time>
  <course>6.8</course>
  <speed>25.89</speed>
  <fix>3d</fix>
</trkpt>
<trkpt lat="-35.2798487" lon="148.9856515">
  <ele>694.85</ele>
  <time>2026-09-01T20:00:17Z</time>
  <course>7.06</course>
  <speed>25.89264374296298</speed>
  <fix>3d</fix>
</trkpt>
<trkpt lat="-35.2798721" lon="148.9856481">
  <ele>695.35</ele>
  <time>2026-09-01T20:00:17Z</time>
  <course>6.8</course>
  <speed>25.88</speed>
  <fix>3d</fix>
</trkpt>
<trkpt lat="-35.2798256" lon="148.9856549">
  <ele>694.59</ele>
  <time>2026-09-01T20:00:17Z</time>
  <course>7.08</course>
  <speed>25.89264374296298</speed>
  <fix>3d</fix>
</trkpt>
<trkpt lat="-35.2798721" lon="148.9856481">
  <ele>695.35</ele>
  <time>2026-09-01T20:00:17Z</time>
  <course>6.8</course>
  <speed>25.88</speed>
  <fix>3d</fix>
</trkpt>
<trkpt lat="-35.2798025" lon="148.9856582">
  <ele>694.33</ele>
  <time>2026-09-01T20:00:17Z</time>
  <course>7.07</course>
  <speed>25.882714308974627</speed>
  <fix>3d</fix>
</trkpt>
<trkpt lat="-35.2798258" lon="148.9856548">
  <ele>694.83</ele>
  <time>2026-09-01T20:00:17Z</time>
  <course>6.79</course>
  <speed>25.87</speed>
  <fix>3d</fix>
</trkpt>
<trkpt lat="-35.2797794" lon="148.9856616">
  <ele>694.07</ele>
  <time>2026-09-01T20:00:17Z</time>
  <course>7.07</course>
  <speed>25.87278492934226</speed>
  <fix>3d</fix>
</trkpt>
<trkpt lat="-35.2798258" lon="148.9856548">
  <ele>694.83</ele>
  <time>2026-09-01T20:00:17Z</time>
  <course>6.79</course>
  <speed>25.87</speed>
  <fix>3d</fix>
</trkpt>
<trkpt lat="-35.2797563" lon="148.985665">
  <ele>693.82</ele>
  <time>2026-09-01T20:00:17Z</time>
  <course>7.09</course>
  <speed>25.86285560412848</speed>
  <fix>3d</fix>
</trkpt>
<trkpt lat="-35.2797797" lon="148.9856615">
  <ele>694.32</ele>
  <time>2026-09-01T20:00:17Z</time>
  <course>6.79</course>
  <speed>25.85</speed>
  <fix>3d</fix>
</trkpt>
<trkpt lat="-35.2797332" lon="148.9856684">
  <ele>693.56</ele>
  <time>2026-09-01T20:00:17Z</time>
  <course>7.12</course>
  <speed>25.852926333395995</speed>
  <fix>3d</fix>
</trkpt>
<trkpt lat="-35.2797797" lon="148.9856615">
  <ele>694.32</ele>
  <time>2026-09-01T20:00:17Z</time>
  <course>6.79</course>
  <speed>25.85</speed>
  <fix>3d</fix>
</trkpt>
<trkpt lat="-35.2797101" lon="148.9856717">
  <ele>693.3</ele>
  <time>2026-09-01T20:00:17Z</time>
  <course>7.11</course>
  <speed>25.84299711720759</speed>
  <fix>3d</fix>
</trkpt>
<trkpt lat="-35.2797336" lon="148.9856683">
  <ele>693.81</ele>
  <time>2026-09-01T20:00:17Z</time>
  <course>6.8</course>
  <speed>25.83</speed>
  <fix>3d</fix>
</trkpt>
<trkpt lat="-35.279687" lon="148.9856751">
  <ele>693.04</ele>
  <time>2026-09-01T20:00:17Z</time>
  <course>7.1</course>
  <speed>25.833067955626174</speed>
  <fix>3d</fix>
</trkpt>
<trkpt lat="-35.2797336" lon="148.9856683">
  <ele>693.81</ele>
  <time>2026-09-01T20:00:17Z</time>
  <course>6.8</course>
  <speed>25.83</speed>
  <fix>3d</fix>
</trkpt>
<trkpt lat="-35.279664" lon="148.9856785">
  <ele>692.78</ele>
  <time>2026-09-01T20:00:17Z</time>
  <course>7.08</course>
  <speed>25.82313884871473</speed>
  <fix>3d</fix>
</trkpt>
<trkpt lat="-35.2796876" lon="148.985675">
  <ele>693.29</ele>
  <time>2026-09-01T20:00:17Z</time>
  <course>6.81</course>
  <speed>25.81</speed>
  <fix>3d</fix>
</trkpt>
<trkpt lat="-35.2796408" lon="148.9856819">
  <ele>692.51</ele>
  <time>2026-09-01T20:00:17Z</time>
  <course>7.12</course>
  <speed>25.81320979653635</speed>
  <fix>3d</fix>
</trkpt>
<trkpt lat="-35.2796876" lon="148.985675">
  <ele>693.29</ele>
  <time>2026-09-01T20:00:17Z</time>
  <course>6.81</course>
  <speed>25.81</speed>
  <fix>3d</fix>
</trkpt>
<trkpt lat="-35.2796177" lon="148.9856853">
  <ele>692.25</ele>
  <time>2026-09-01T20:00:17Z</time>
  <course>7.11</course>
  <speed>25.803280799154205</speed>
  <fix>3d</fix>
</trkpt>
<trkpt lat="-35.2796416" lon="148.9856818">
  <ele>692.77</ele>
  <time>2026-09-01T20:00:17Z</time>
  <course>6.82</course>
  <speed>25.8</speed>
  <fix>3d</fix>
</trkpt>
<trkpt lat="-35.2795948" lon="148.9856887">
  <ele>691.99</ele>
  <time>2026-09-01T20:00:17Z</time>
  <course>7.11</course>
  <speed>25.793351856631585</speed>
  <fix>3d</fix>
</trkpt>
<trkpt lat="-35.2796416" lon="148.9856818">
  <ele>692.77</ele>
  <time>2026-09-01T20:00:17Z</time>
  <course>6.82</course>
  <speed>25.8</speed>
  <fix>3d</fix>
</trkpt>
<trkpt lat="-35.2795719" lon="148.985692">
  <ele>691.74</ele>
  <time>2026-09-01T20:00:17Z</time>
  <course>7.14</course>
  <speed>25.77349413641852</speed>
  <fix>3d</fix>
</trkpt>
<trkpt lat="-35.2795956" lon="148.9856885">
  <ele>692.25</ele>
  <time>2026-09-01T20:00:17Z</time>
  <course>6.82</course>
  <speed>25.78</speed>
  <fix>3d</fix>
</trkpt>
<trkpt lat="-35.2795493" lon="148.9856953">
  <ele>691.48</ele>
  <time>2026-09-01T20:00:17Z</time>
  <course>7.15</course>
  <speed>25.753636636405353</speed>
  <fix>3d</fix>
</trkpt>
<trkpt lat="-35.2795956" lon="148.9856885">
  <ele>692.25</ele>
  <time>2026-09-01T20:00:17Z</time>
  <course>6.82</course>
  <speed>25.78</speed>
  <fix>3d</fix>
</trkpt>
<trkpt lat="-35.2795265" lon="148.9856987">
  <ele>691.22</ele>
  <time>2026-09-01T20:00:17Z</time>
  <course>7.16</course>
  <speed>25.74370796913296</speed>
  <fix>3d</fix>
</trkpt>
<trkpt lat="-35.2795495" lon="148.9856953">
  <ele>691.73</ele>
  <time>2026-09-01T20:00:17Z</time>
  <course>6.83</course>
  <speed>25.76</speed>
  <fix>3d</fix>
</trkpt>
<trkpt lat="-35.2795037" lon="148.9857021">
  <ele>690.96</ele>
  <time>2026-09-01T20:00:17Z</time>
  <course>7.17</course>
  <speed>25.723850800375903</speed>
  <fix>3d</fix>
</trkpt>
<trkpt lat="-35.2795495" lon="148.9856953">
  <ele>691.73</ele>
  <time>2026-09-01T20:00:17Z</time>
  <course>6.83</course>
  <speed>25.76</speed>
  <fix>3d</fix>
</trkpt>
<trkpt lat="-35.2794809" lon="148.9857054">
  <ele>690.7</ele>
  <time>2026-09-01T20:00:17Z</time>
  <course>7.13</course>
  <speed>25.70399385309606</speed>
  <fix>3d</fix>
</trkpt>
<trkpt lat="-35.2795036" lon="148.985702">
  <ele>691.22</ele>
  <time>2026-09-01T20:00:17Z</time>
  <course>6.85</course>
  <speed>25.74</speed>
  <fix>3d</fix>
</trkpt>
<trkpt lat="-35.2794579" lon="148.9857088">
  <ele>690.44</ele>
  <time>2026-09-01T20:00:17Z</time>
  <course>7.11</course>
  <speed>25.69406546267056</speed>
  <fix>3d</fix>
</trkpt>
<trkpt lat="-35.2795036" lon="148.985702">
  <ele>691.22</ele>
  <time>2026-09-01T20:00:17Z</time>
  <course>6.85</course>
  <speed>25.74</speed>
  <fix>3d</fix>
</trkpt>
<trkpt lat="-35.2794351" lon="148.9857122">
  <ele>690.18</ele>
  <time>2026-09-01T20:00:17Z</time>
  <course>7.13</course>
  <speed>25.684137127807116</speed>
  <fix>3d</fix>
</trkpt>
<trkpt lat="-35.2794577" lon="148.9857088">
  <ele>690.7</ele>
  <time>2026-09-01T20:00:17Z</time>
  <course>6.85</course>
  <speed>25.73</speed>
  <fix>3d</fix>
</trkpt>
<trkpt lat="-35.2794123" lon="148.9857155">
  <ele>689.92</ele>
  <time>2026-09-01T20:00:17Z</time>
  <course>7.14</course>
  <speed>25.67301501577094</speed>
  <fix>3d</fix>
</trkpt>
<trkpt lat="-35.2794577" lon="148.9857088">
  <ele>690.7</ele>
  <time>2026-09-01T20:00:17Z</time>
  <course>6.85</course>
  <speed>25.73</speed>
  <fix>3d</fix>
</trkpt>
<trkpt lat="-35.2793894" lon="148.9857189">
  <ele>689.66</ele>
  <time>2026-09-01T20:00:17Z</time>
  <course>7.16</course>
  <speed>25.66308633036954</speed>
  <fix>3d</fix>
</trkpt>
<trkpt lat="-35.2794118" lon="148.9857156">
  <ele>690.17</ele>
  <time>2026-09-01T20:00:17Z</time>
  <course>6.84</course>
  <speed>25.72</speed>
  <fix>3d</fix>
</trkpt>
<trkpt lat="-35.2793666" lon="148.9857222">
  <ele>689.39</ele>
  <time>2026-09-01T20:00:17Z</time>
  <course>7.15</course>
  <speed>25.653157700368975</speed>
  <fix>3d</fix>
</trkpt>
<trkpt lat="-35.2794118" lon="148.9857156">
  <ele>690.17</ele>
  <time>2026-09-01T20:00:17Z</time>
  <course>6.84</course>
  <speed>25.72</speed>
  <fix>3d</fix>
</trkpt>
<trkpt lat="-35.2793438" lon="148.9857256">
  <ele>689.13</ele>
  <time>2026-09-01T20:00:17Z</time>
  <course>7.17</course>
  <speed>25.643229125833585</speed>
  <fix>3d</fix>
</trkpt>
<trkpt lat="-35.2793658" lon="148.9857223">
  <ele>689.64</ele>
  <time>2026-09-01T20:00:17Z</time>
  <course>6.84</course>
  <speed>25.71</speed>
  <fix>3d</fix>
</trkpt>
<trkpt lat="-35.2793209" lon="148.9857289">
  <ele>688.86</ele>
  <time>2026-09-01T20:00:17Z</time>
  <course>7.15</course>
  <speed>25.643229125833585</speed>
  <fix>3d</fix>
</trkpt>
<trkpt lat="-35.2793658" lon="148.9857223">
  <ele>689.64</ele>
  <time>2026-09-01T20:00:17Z</time>
  <course>6.84</course>
  <speed>25.71</speed>
  <fix>3d</fix>
</trkpt>
<trkpt lat="-35.279298" lon="148.9857323">
  <ele>688.6</ele>
  <time>2026-09-01T20:00:17Z</time>
  <course>7.17</course>
  <speed>25.64203775053769</speed>
  <fix>3d</fix>
</trkpt>
<trkpt lat="-35.27932" lon="148.985729">
  <ele>689.11</ele>
  <time>2026-09-01T20:00:17Z</time>
  <course>6.83</course>
  <speed>25.7</speed>
  <fix>3d</fix>
</trkpt>
<trkpt lat="-35.2792751" lon="148.9857357">
  <ele>688.33</ele>
  <time>2026-09-01T20:00:17Z</time>
  <course>7.16</course>
  <speed>25.64203775053769</speed>
  <fix>3d</fix>
</trkpt>
<trkpt lat="-35.27932" lon="148.985729">
  <ele>689.11</ele>
  <time>2026-09-01T20:00:17Z</time>
  <course>6.83</course>
  <speed>25.7</speed>
  <fix>3d</fix>
</trkpt>
<trkpt lat="-35.2792522" lon="148.985739">
  <ele>688.07</ele>
  <time>2026-09-01T20:00:17Z</time>
  <course>7.14</course>
  <speed>25.64203775053769</speed>
  <fix>3d</fix>
</trkpt>
<trkpt lat="-35.2792742" lon="148.9857357">
  <ele>688.58</ele>
  <time>2026-09-01T20:00:17Z</time>
  <course>6.82</course>
  <speed>25.7</speed>
  <fix>3d</fix>
</trkpt>
<trkpt lat="-35.2792294" lon="148.9857424">
  <ele>687.81</ele>
  <time>2026-09-01T20:00:17Z</time>
  <course>7.16</course>
  <speed>25.64203775053769</speed>
  <fix>3d</fix>
</trkpt>
<trkpt lat="-35.2792742" lon="148.9857357">
  <ele>688.58</ele>
  <time>2026-09-01T20:00:17Z</time>
  <course>6.82</course>
  <speed>25.7</speed>
  <fix>3d</fix>
</trkpt>
<trkpt lat="-35.2792065" lon="148.9857457">
  <ele>687.55</ele>
  <time>2026-09-01T20:00:17Z</time>
  <course>7.15</course>
  <speed>25.64203775053769</speed>
  <fix>3d</fix>
</trkpt>
<trkpt lat="-35.2792283" lon="148.9857425">
  <ele>688.06</ele>
  <time>2026-09-01T20:00:17Z</time>
  <course>6.82</course>
  <speed>25.7</speed>
  <fix>3d</fix>
</trkpt>
<trkpt lat="-35.2791836" lon="148.9857491">
  <ele>687.3</ele>
  <time>2026-09-01T20:00:17Z</time>
  <course>7.16</course>
  <speed>25.64203775053769</speed>
  <fix>3d</fix>
</trkpt>
<trkpt lat="-35.2792283" lon="148.9857425">
  <ele>688.06</ele>
  <time>2026-09-01T20:00:17Z</time>
  <course>6.82</course>
  <speed>25.7</speed>
  <fix>3d</fix>
</trkpt>
<trkpt lat="-35.2791607" lon="148.9857524">
  <ele>687.04</ele>
  <time>2026-09-01T20:00:17Z</time>
  <course>7.16</course>
  <speed>25.632108770056355</speed>
  <fix>3d</fix>
</trkpt>
<trkpt lat="-35.2791825" lon="148.9857492">
  <ele>687.54</ele>
  <time>2026-09-01T20:00:17Z</time>
  <course>6.81</course>
  <speed>25.7</speed>
  <fix>3d</fix>
</trkpt>
<trkpt lat="-35.2791378" lon="148.9857558">
  <ele>686.79</ele>
  <time>2026-09-01T20:00:17Z</time>
  <course>7.14</course>
  <speed>25.630920779402366</speed>
  <fix>3d</fix>
</trkpt>
<trkpt lat="-35.2791825" lon="148.9857492">
  <ele>687.54</ele>
  <time>2026-09-01T20:00:17Z</time>
  <course>6.81</course>
  <speed>25.7</speed>
  <fix>3d</fix>
</trkpt>
<trkpt lat="-35.2791149" lon="148.9857591">
  <ele>686.53</ele>
  <time>2026-09-01T20:00:17Z</time>
  <course>7.1</course>
  <speed>25.630920779402366</speed>
  <fix>3d</fix>
</trkpt>
<trkpt lat="-35.2791366" lon="148.9857559">
  <ele>687.03</ele>
  <time>2026-09-01T20:00:17Z</time>
  <course>6.8</course>
  <speed>25.69</speed>
  <fix>3d</fix>
</trkpt>
<trkpt lat="-35.279092" lon="148.9857625">
  <ele>686.28</ele>
  <time>2026-09-01T20:00:17Z</time>
  <course>7.08</course>
  <speed>25.630920779402366</speed>
  <fix>3d</fix>
</trkpt>
<trkpt lat="-35.2791366" lon="148.9857559">
  <ele>687.03</ele>
  <time>2026-09-01T20:00:17Z</time>
  <course>6.8</course>
  <speed>25.69</speed>
  <fix>3d</fix>
</trkpt>
<trkpt lat="-35.2790691" lon="148.9857658">
  <ele>686.04</ele>
  <time>2026-09-01T20:00:17Z</time>
  <course>7.13</course>
  <speed>25.629736635400686</speed>
  <fix>3d</fix>
</trkpt>
<trkpt lat="-35.2790908" lon="148.9857626">
  <ele>686.53</ele>
  <time>2026-09-01T20:00:17Z</time>
  <course>6.79</course>
  <speed>25.69</speed>
  <fix>3d</fix>
</trkpt>
<trkpt lat="-35.2790462" lon="148.9857691">
  <ele>685.79</ele>
  <time>2026-09-01T20:00:17Z</time>
  <course>7.1</course>
  <speed>25.629736635400686</speed>
  <fix>3d</fix>
</trkpt>
<trkpt lat="-35.2790908" lon="148.9857626">
  <ele>686.53</ele>
  <time>2026-09-01T20:00:17Z</time>
  <course>6.79</course>
  <speed>25.69</speed>
  <fix>3d</fix>
</trkpt>
<trkpt lat="-35.2790233" lon="148.9857725">
  <ele>685.54</ele>
  <time>2026-09-01T20:00:17Z</time>
  <course>7.1</course>
  <speed>25.629736635400686</speed>
  <fix>3d</fix>
</trkpt>
<trkpt lat="-35.2790449" lon="148.9857693">
  <ele>686.03</ele>
  <time>2026-09-01T20:00:17Z</time>
  <course>6.77</course>
  <speed>25.69</speed>
  <fix>3d</fix>
</trkpt>
<trkpt lat="-35.2790004" lon="148.9857758">
  <ele>685.3</ele>
  <time>2026-09-01T20:00:17Z</time>
  <course>7.12</course>
  <speed>25.629736635400686</speed>
  <fix>3d</fix>
</trkpt>
<trkpt lat="-35.2790449" lon="148.9857693">
  <ele>686.03</ele>
  <time>2026-09-01T20:00:17Z</time>
  <course>6.77</course>
  <speed>25.69</speed>
  <fix>3d</fix>
</trkpt>
<trkpt lat="-35.2789773" lon="148.9857792">
  <ele>685.05</ele>
  <time>2026-09-01T20:00:17Z</time>
  <course>7.13</course>
  <speed>25.629736635400686</speed>
  <fix>3d</fix>
</trkpt>
<trkpt lat="-35.2789992" lon="148.9857759">
  <ele>685.54</ele>
  <time>2026-09-01T20:00:17Z</time>
  <course>6.77</course>
  <speed>25.69</speed>
  <fix>3d</fix>
</trkpt>
<trkpt lat="-35.2789544" lon="148.9857825">
  <ele>684.81</ele>
  <time>2026-09-01T20:00:17Z</time>
  <course>7.11</course>
  <speed>25.629736635400686</speed>
  <fix>3d</fix>
</trkpt>
<trkpt lat="-35.2789992" lon="148.9857759">
  <ele>685.54</ele>
  <time>2026-09-01T20:00:17Z</time>
  <course>6.77</course>
  <speed>25.69</speed>
  <fix>3d</fix>
</trkpt>
<trkpt lat="-35.2789314" lon="148.9857858">
  <ele>684.56</ele>
  <time>2026-09-01T20:00:17Z</time>
  <course>7.1</course>
  <speed>25.628556338584502</speed>
  <fix>3d</fix>
</trkpt>
<trkpt lat="-35.2789534" lon="148.9857826">
  <ele>685.04</ele>
  <time>2026-09-01T20:00:17Z</time>
  <course>6.77</course>
  <speed>25.68</speed>
  <fix>3d</fix>
</trkpt>
<trkpt lat="-35.2789085" lon="148.9857892">
  <ele>684.32</ele>
  <time>2026-09-01T20:00:17Z</time>
  <course>7.15</course>
  <speed>25.628556338584502</speed>
  <fix>3d</fix>
</trkpt>
<trkpt lat="-35.2789534" lon="148.9857826">
  <ele>685.04</ele>
  <time>2026-09-01T20:00:17Z</time>
  <course>6.77</course>
  <speed>25.68</speed>
  <fix>3d</fix>
</trkpt>
<trkpt lat="-35.2788856" lon="148.9857925">
  <ele>684.08</ele>
  <time>2026-09-01T20:00:17Z</time>
  <course>7.16</course>
  <speed>25.628556338584502</speed>
  <fix>3d</fix>
</trkpt>
<trkpt lat="-35.2789075" lon="148.9857893">
  <ele>684.56</ele>
  <time>2026-09-01T20:00:17Z</time>
  <course>6.76</course>
  <speed>25.68</speed>
  <fix>3d</fix>
</trkpt>
<trkpt lat="-35.2788626" lon="148.9857958">
  <ele>683.85</ele>
  <time>2026-09-01T20:00:17Z</time>
  <course>7.16</course>
  <speed>25.638486694810986</speed>
  <fix>3d</fix>
</trkpt>
<trkpt lat="-35.2789075" lon="148.9857893">
  <ele>684.56</ele>
  <time>2026-09-01T20:00:17Z</time>
  <course>6.76</course>
  <speed>25.68</speed>
  <fix>3d</fix>
</trkpt>
<trkpt lat="-35.2788397" lon="148.9857992">
  <ele>683.61</ele>
  <time>2026-09-01T20:00:17Z</time>
  <course>7.18</course>
  <speed>25.639666534492996</speed>
  <fix>3d</fix>
</trkpt>
<trkpt lat="-35.2788616" lon="148.985796">
  <ele>684.08</ele>
  <time>2026-09-01T20:00:17Z</time>
  <course>6.76</course>
  <speed>25.68</speed>
  <fix>3d</fix>
</trkpt>
<trkpt lat="-35.2788167" lon="148.9858025">
  <ele>683.37</ele>
  <time>2026-09-01T20:00:17Z</time>
  <course>7.19</course>
  <speed>25.639666534492996</speed>
  <fix>3d</fix>
</trkpt>
<trkpt lat="-35.2788616" lon="148.985796">
  <ele>684.08</ele>
  <time>2026-09-01T20:00:17Z</time>
  <course>6.76</course>
  <speed>25.68</speed>
  <fix>3d</fix>
</trkpt>
<trkpt lat="-35.2787938" lon="148.9858059">
  <ele>683.13</ele>
  <time>2026-09-01T20:00:17Z</time>
  <course>7.2</course>
  <speed>25.639666534492996</speed>
  <fix>3d</fix>
</trkpt>
<trkpt lat="-35.2788158" lon="148.9858026">
  <ele>683.6</ele>
  <time>2026-09-01T20:00:17Z</time>
  <course>6.78</course>
  <speed>25.67</speed>
  <fix>3d</fix>
</trkpt>
<trkpt lat="-35.2787708" lon="148.9858092">
  <ele>682.9</ele>
  <time>2026-09-01T20:00:17Z</time>
  <course>7.2</course>
  <speed>25.640850219912753</speed>
  <fix>3d</fix>
</trkpt>
<trkpt lat="-35.2788158" lon="148.9858026">
  <ele>683.6</ele>
  <time>2026-09-01T20:00:17Z</time>
  <course>6.78</course>
  <speed>25.67</speed>
  <fix>3d</fix>
</trkpt>
<trkpt lat="-35.2787479" lon="148.9858126">
  <ele>682.66</ele>
  <time>2026-09-01T20:00:17Z</time>
  <course>7.19</course>
  <speed>25.640850219912753</speed>
  <fix>3d</fix>
</trkpt>
<trkpt lat="-35.2787699" lon="148.9858093">
  <ele>683.12</ele>
  <time>2026-09-01T20:00:17Z</time>
  <course>6.79</course>
  <speed>25.67</speed>
  <fix>3d</fix>
</trkpt>
<trkpt lat="-35.2787249" lon="148.9858159">
  <ele>682.43</ele>
  <time>2026-09-01T20:00:17Z</time>
  <course>7.17</course>
  <speed>25.640850219912753</speed>
  <fix>3d</fix>
</trkpt>
<trkpt lat="-35.2787699" lon="148.9858093">
  <ele>683.12</ele>
  <time>2026-09-01T20:00:17Z</time>
  <course>6.79</course>
  <speed>25.67</speed>
  <fix>3d</fix>
</trkpt>
<trkpt lat="-35.278702" lon="148.9858193">
  <ele>682.19</ele>
  <time>2026-09-01T20:00:17Z</time>
  <course>7.17</course>
  <speed>25.64203775053769</speed>
  <fix>3d</fix>
</trkpt>
<trkpt lat="-35.2787242" lon="148.985816">
  <ele>682.65</ele>
  <time>2026-09-01T20:00:17Z</time>
  <course>6.81</course>
  <speed>25.67</speed>
  <fix>3d</fix>
</trkpt>
<trkpt lat="-35.278679" lon="148.9858227">
  <ele>681.96</ele>
  <time>2026-09-01T20:00:17Z</time>
  <course>7.18</course>
  <speed>25.651966786194</speed>
  <fix>3d</fix>
</trkpt>
<trkpt lat="-35.2787242" lon="148.985816">
  <ele>682.65</ele>
  <time>2026-09-01T20:00:17Z</time>
  <course>6.81</course>
  <speed>25.67</speed>
  <fix>3d</fix>
</trkpt>
<trkpt lat="-35.278656" lon="148.985826">
  <ele>681.73</ele>
  <time>2026-09-01T20:00:17Z</time>
  <course>7.2</course>
  <speed>25.651966786194</speed>
  <fix>3d</fix>
</trkpt>
<trkpt lat="-35.2786784" lon="148.9858227">
  <ele>682.19</ele>
  <time>2026-09-01T20:00:17Z</time>
  <course>6.82</course>
  <speed>25.66</speed>
  <fix>3d</fix>
</trkpt>
<trkpt lat="-35.278633" lon="148.9858294">
  <ele>681.51</ele>
  <time>2026-09-01T20:00:17Z</time>
  <course>7.22</course>
  <speed>25.653157700368975</speed>
  <fix>3d</fix>
</trkpt>
<trkpt lat="-35.2786784" lon="148.9858227">
  <ele>682.19</ele>
  <time>2026-09-01T20:00:17Z</time>
  <course>6.82</course>
  <speed>25.66</speed>
  <fix>3d</fix>
</trkpt>
<trkpt lat="-35.2786101" lon="148.9858328">
  <ele>681.28</ele>
  <time>2026-09-01T20:00:18Z</time>
  <course>7.23</course>
  <speed>25.654352457234232</speed>
  <fix>3d</fix>
</trkpt>
<trkpt lat="-35.2786327" lon="148.9858294">
  <ele>681.73</ele>
  <time>2026-09-01T20:00:18Z</time>
  <course>6.83</course>
  <speed>25.66</speed>
  <fix>3d</fix>
</trkpt>
<trkpt lat="-35.2785871" lon="148.9858362">
  <ele>681.05</ele>
  <time>2026-09-01T20:00:18Z</time>
  <course>7.21</course>
  <speed>25.653157700368975</speed>
  <fix>3d</fix>
</trkpt>
<trkpt lat="-35.2786327" lon="148.9858294">
  <ele>681.73</ele>
  <time>2026-09-01T20:00:18Z</time>
  <course>6.83</course>
  <speed>25.66</speed>
  <fix>3d</fix>
</trkpt>
<trkpt lat="-35.2785641" lon="148.9858395">
  <ele>680.82</ele>
  <time>2026-09-01T20:00:18Z</time>
  <course>7.23</course>
  <speed>25.654352457234232</speed>
  <fix>3d</fix>
</trkpt>
<trkpt lat="-35.2785868" lon="148.9858362">
  <ele>681.27</ele>
  <time>2026-09-01T20:00:18Z</time>
  <course>6.85</course>
  <speed>25.66</speed>
  <fix>3d</fix>
</trkpt>
<trkpt lat="-35.2785411" lon="148.9858429">
  <ele>680.59</ele>
  <time>2026-09-01T20:00:18Z</time>
  <course>7.25</course>
  <speed>25.664280625024343</speed>
  <fix>3d</fix>
</trkpt>
<trkpt lat="-35.2785868" lon="148.9858362">
  <ele>681.27</ele>
  <time>2026-09-01T20:00:18Z</time>
  <course>6.85</course>
  <speed>25.66</speed>
  <fix>3d</fix>
</trkpt>
<trkpt lat="-35.2785182" lon="148.9858463">
  <ele>680.36</ele>
  <time>2026-09-01T20:00:18Z</time>
  <course>7.24</course>
  <speed>25.664280625024343</speed>
  <fix>3d</fix>
</trkpt>
<trkpt lat="-35.2785411" lon="148.9858429">
  <ele>680.81</ele>
  <time>2026-09-01T20:00:18Z</time>
  <course>6.85</course>
  <speed>25.65</speed>
  <fix>3d</fix>
</trkpt>
<trkpt lat="-35.2784954" lon="148.9858497">
  <ele>680.14</ele>
  <time>2026-09-01T20:00:18Z</time>
  <course>7.21</course>
  <speed>25.66308633036954</speed>
  <fix>3d</fix>
</trkpt>
<trkpt lat="-35.2785411" lon="148.9858429">
  <ele>680.81</ele>
  <time>2026-09-01T20:00:18Z</time>
  <course>6.85</course>
  <speed>25.65</speed>
  <fix>3d</fix>
</trkpt>
<trkpt lat="-35.2784725" lon="148.985853">
  <ele>679.91</ele>
  <time>2026-09-01T20:00:18Z</time>
  <course>7.23</course>
  <speed>25.66308633036954</speed>
  <fix>3d</fix>
</trkpt>
<trkpt lat="-35.2784954" lon="148.9858496">
  <ele>680.35</ele>
  <time>2026-09-01T20:00:18Z</time>
  <course>6.85</course>
  <speed>25.65</speed>
  <fix>3d</fix>
</trkpt>
<trkpt lat="-35.2784495" lon="148.9858564">
  <ele>679.69</ele>
  <time>2026-09-01T20:00:18Z</time>
  <course>7.25</course>
  <speed>25.664280625024343</speed>
  <fix>3d</fix>
</trkpt>
<trkpt lat="-35.2784954" lon="148.9858496">
  <ele>680.35</ele>
  <time>2026-09-01T20:00:18Z</time>
  <course>6.85</course>
  <speed>25.65</speed>
  <fix>3d</fix>
</trkpt>
<trkpt lat="-35.2784266" lon="148.9858598">
  <ele>679.46</ele>
  <time>2026-09-01T20:00:18Z</time>
  <course>7.29</course>
  <speed>25.664280625024343</speed>
  <fix>3d</fix>
</trkpt>
<trkpt lat="-35.2784495" lon="148.9858564">
  <ele>679.89</ele>
  <time>2026-09-01T20:00:18Z</time>
  <course>6.85</course>
  <speed>25.65</speed>
  <fix>3d</fix>
</trkpt>
<trkpt lat="-35.2784035" lon="148.9858632">
  <ele>679.23</ele>
  <time>2026-09-01T20:00:18Z</time>
  <course>7.28</course>
  <speed>25.664280625024343</speed>
  <fix>3d</fix>
</trkpt>
<trkpt lat="-35.2784495" lon="148.9858564">
  <ele>679.89</ele>
  <time>2026-09-01T20:00:18Z</time>
  <course>6.85</course>
  <speed>25.65</speed>
  <fix>3d</fix>
</trkpt>
<trkpt lat="-35.2783804" lon="148.9858666">
  <ele>679.01</ele>
  <time>2026-09-01T20:00:18Z</time>
  <course>7.25</course>
  <speed>25.664280625024343</speed>
  <fix>3d</fix>
</trkpt>
<trkpt lat="-35.2784037" lon="148.9858631">
  <ele>679.44</ele>
  <time>2026-09-01T20:00:18Z</time>
  <course>6.86</course>
  <speed>25.65</speed>
  <fix>3d</fix>
</trkpt>
<trkpt lat="-35.2783575" lon="148.98587">
  <ele>678.78</ele>
  <time>2026-09-01T20:00:18Z</time>
  <course>7.24</course>
  <speed>25.674208848570192</speed>
  <fix>3d</fix>
</trkpt>
<trkpt lat="-35.2784037" lon="148.9858631">
  <ele>679.44</ele>
  <time>2026-09-01T20:00:18Z</time>
  <course>6.86</course>
  <speed>25.65</speed>
  <fix>3d</fix>
</trkpt>
<trkpt lat="-35.2783345" lon="148.9858734">
  <ele>678.56</ele>
  <time>2026-09-01T20:00:18Z</time>
  <course>7.23</course>
  <speed>25.674208848570192</speed>
  <fix>3d</fix>
</trkpt>
<trkpt lat="-35.278358" lon="148.9858698">
  <ele>678.99</ele>
  <time>2026-09-01T20:00:18Z</time>
  <course>6.86</course>
  <speed>25.65</speed>
  <fix>3d</fix>
</trkpt>
<trkpt lat="-35.2783116" lon="148.9858767">
  <ele>678.33</ele>
  <time>2026-09-01T20:00:18Z</time>
  <course>7.22</course>
  <speed>25.674208848570192</speed>
  <fix>3d</fix>
</trkpt>
<trkpt lat="-35.278358" lon="148.9858698">
  <ele>678.99</ele>
  <time>2026-09-01T20:00:18Z</time>
  <course>6.86</course>
  <speed>25.65</speed>
  <fix>3d</fix>
</trkpt>
<trkpt lat="-35.2782887" lon="148.9858801">
  <ele>678.11</ele>
  <time>2026-09-01T20:00:18Z</time>
  <course>7.23</course>
  <speed>25.67301501577094</speed>
  <fix>3d</fix>
</trkpt>
<trkpt lat="-35.2783122" lon="148.9858766">
  <ele>678.54</ele>
  <time>2026-09-01T20:00:18Z</time>
  <course>6.85</course>
  <speed>25.65</speed>
  <fix>3d</fix>
</trkpt>
<trkpt lat="-35.2782658" lon="148.9858835">
  <ele>677.88</ele>
  <time>2026-09-01T20:00:18Z</time>
  <course>7.24</course>
  <speed>25.67301501577094</speed>
  <fix>3d</fix>
</trkpt>
<trkpt lat="-35.2783122" lon="148.9858766">
  <ele>678.54</ele>
  <time>2026-09-01T20:00:18Z</time>
  <course>6.85</course>
  <speed>25.65</speed>
  <fix>3d</fix>
</trkpt>
<trkpt lat="-35.2782429" lon="148.9858868">
  <ele>677.66</ele>
  <time>2026-09-01T20:00:18Z</time>
  <course>7.26</course>
  <speed>25.67301501577094</speed>
  <fix>3d</fix>
</trkpt>
<trkpt lat="-35.2782665" lon="148.9858833">
  <ele>678.09</ele>
  <time>2026-09-01T20:00:18Z</time>
  <course>6.84</course>
  <speed>25.65</speed>
  <fix>3d</fix>
</trkpt>
<trkpt lat="-35.27822" lon="148.9858902">
  <ele>677.44</ele>
  <time>2026-09-01T20:00:18Z</time>
  <course>7.26</course>
  <speed>25.67301501577094</speed>
  <fix>3d</fix>
</trkpt>
<trkpt lat="-35.2782665" lon="148.9858833">
  <ele>678.09</ele>
  <time>2026-09-01T20:00:18Z</time>
  <course>6.84</course>
  <speed>25.65</speed>
  <fix>3d</fix>
</trkpt>
<trkpt lat="-35.2781971" lon="148.9858935">
  <ele>677.22</ele>
  <time>2026-09-01T20:00:18Z</time>
  <course>7.27</course>
  <speed>25.66308633036954</speed>
  <fix>3d</fix>
</trkpt>
<trkpt lat="-35.2782208" lon="148.9858901">
  <ele>677.65</ele>
  <time>2026-09-01T20:00:18Z</time>
  <course>6.83</course>
  <speed>25.65</speed>
  <fix>3d</fix>
</trkpt>
<trkpt lat="-35.2781742" lon="148.9858969">
  <ele>677.0</ele>
  <time>2026-09-01T20:00:18Z</time>
  <course>7.28</course>
  <speed>25.66308633036954</speed>
  <fix>3d</fix>
</trkpt>
<trkpt lat="-35.2782208" lon="148.9858901">
  <ele>677.65</ele>
  <time>2026-09-01T20:00:18Z</time>
  <course>6.83</course>
  <speed>25.65</speed>
  <fix>3d</fix>
</trkpt>
<trkpt lat="-35.2781514" lon="148.9859003">
  <ele>676.77</ele>
  <time>2026-09-01T20:00:18Z</time>
  <course>7.3</course>
  <speed>25.66308633036954</speed>
  <fix>3d</fix>
</trkpt>
<trkpt lat="-35.278175" lon="148.9858968">
  <ele>677.2</ele>
  <time>2026-09-01T20:00:18Z</time>
  <course>6.84</course>
  <speed>25.65</speed>
  <fix>3d</fix>
</trkpt>
<trkpt lat="-35.2781285" lon="148.9859036">
  <ele>676.55</ele>
  <time>2026-09-01T20:00:18Z</time>
  <course>7.28</course>
  <speed>25.67301501577094</speed>
  <fix>3d</fix>
</trkpt>
<trkpt lat="-35.278175" lon="148.9858968">
  <ele>677.2</ele>
  <time>2026-09-01T20:00:18Z</time>
  <course>6.84</course>
  <speed>25.65</speed>
  <fix>3d</fix>
</trkpt>
<trkpt lat="-35.2781056" lon="148.985907">
  <ele>676.34</ele>
  <time>2026-09-01T20:00:18Z</time>
  <course>7.28</course>
  <speed>25.67301501577094</speed>
  <fix>3d</fix>
</trkpt>
<trkpt lat="-35.2781293" lon="148.9859035">
  <ele>676.77</ele>
  <time>2026-09-01T20:00:18Z</time>
  <course>6.84</course>
  <speed>25.65</speed>
  <fix>3d</fix>
</trkpt>
<trkpt lat="-35.2780827" lon="148.9859104">
  <ele>676.12</ele>
  <time>2026-09-01T20:00:18Z</time>
  <course>7.28</course>
  <speed>25.67301501577094</speed>
  <fix>3d</fix>
</trkpt>
<trkpt lat="-35.2781293" lon="148.9859035">
  <ele>676.77</ele>
  <time>2026-09-01T20:00:18Z</time>
  <course>6.84</course>
  <speed>25.65</speed>
  <fix>3d</fix>
</trkpt>
<trkpt lat="-35.2780598" lon="148.9859137">
  <ele>675.9</ele>
  <time>2026-09-01T20:00:18Z</time>
  <course>7.29</course>
  <speed>25.66308633036954</speed>
  <fix>3d</fix>
</trkpt>
<trkpt lat="-35.2780835" lon="148.9859103">
  <ele>676.32</ele>
  <time>2026-09-01T20:00:18Z</time>
  <course>6.84</course>
  <speed>25.65</speed>
  <fix>3d</fix>
</trkpt>
<trkpt lat="-35.2780371" lon="148.9859171">
  <ele>675.68</ele>
  <time>2026-09-01T20:00:18Z</time>
  <course>7.32</course>
  <speed>25.67301501577094</speed>
  <fix>3d</fix>
</trkpt>
<trkpt lat="-35.2780835" lon="148.9859103">
  <ele>676.32</ele>
  <time>2026-09-01T20:00:18Z</time>
  <course>6.84</course>
  <speed>25.65</speed>
  <fix>3d</fix>
</trkpt>
<trkpt lat="-35.2780142" lon="148.9859204">
  <ele>675.46</ele>
  <time>2026-09-01T20:00:18Z</time>
  <course>7.3</course>
  <speed>25.674208848570192</speed>
  <fix>3d</fix>
</trkpt>
<trkpt lat="-35.2780377" lon="148.985917">
  <ele>675.88</ele>
  <time>2026-09-01T20:00:18Z</time>
  <course>6.84</course>
  <speed>25.65</speed>
  <fix>3d</fix>
</trkpt>
<trkpt lat="-35.2779913" lon="148.9859238">
  <ele>675.24</ele>
  <time>2026-09-01T20:00:18Z</time>
  <course>7.3</course>
  <speed>25.674208848570192</speed>
  <fix>3d</fix>
</trkpt>
<trkpt lat="-35.2780377" lon="148.985917">
  <ele>675.88</ele>
  <time>2026-09-01T20:00:18Z</time>
  <course>6.84</course>
  <speed>25.65</speed>
  <fix>3d</fix>
</trkpt>
<trkpt lat="-35.2779685" lon="148.9859272">
  <ele>675.02</ele>
  <time>2026-09-01T20:00:18Z</time>
  <course>7.31</course>
  <speed>25.674208848570192</speed>
  <fix>3d</fix>
</trkpt>
<trkpt lat="-35.2779919" lon="148.9859238">
  <ele>675.43</ele>
  <time>2026-09-01T20:00:18Z</time>
  <course>6.85</course>
  <speed>25.66</speed>
  <fix>3d</fix>
</trkpt>
<trkpt lat="-35.2779456" lon="148.9859306">
  <ele>674.8</ele>
  <time>2026-09-01T20:00:18Z</time>
  <course>7.3</course>
  <speed>25.674208848570192</speed>
  <fix>3d</fix>
</trkpt>
<trkpt lat="-35.2779919" lon="148.9859238">
  <ele>675.43</ele>
  <time>2026-09-01T20:00:18Z</time>
  <course>6.85</course>
  <speed>25.66</speed>
  <fix>3d</fix>
</trkpt>
<trkpt lat="-35.2779225" lon="148.985934">
  <ele>674.58</ele>
  <time>2026-09-01T20:00:18Z</time>
  <course>7.26</course>
  <speed>25.674208848570192</speed>
  <fix>3d</fix>
</trkpt>
<trkpt lat="-35.277946" lon="148.9859305">
  <ele>675.0</ele>
  <time>2026-09-01T20:00:18Z</time>
  <course>6.85</course>
  <speed>25.66</speed>
  <fix>3d</fix>
</trkpt>
<trkpt lat="-35.2778996" lon="148.9859373">
  <ele>674.36</ele>
  <time>2026-09-01T20:00:18Z</time>
  <course>7.3</course>
  <speed>25.674208848570192</speed>
  <fix>3d</fix>
</trkpt>
<trkpt lat="-35.277946" lon="148.9859305">
  <ele>675.0</ele>
  <time>2026-09-01T20:00:18Z</time>
  <course>6.85</course>
  <speed>25.66</speed>
  <fix>3d</fix>
</trkpt>
<trkpt lat="-35.2778767" lon="148.9859407">
  <ele>674.15</ele>
  <time>2026-09-01T20:00:18Z</time>
  <course>7.34</course>
  <speed>25.674208848570192</speed>
  <fix>3d</fix>
</trkpt>
<trkpt lat="-35.2779003" lon="148.9859372">
  <ele>674.56</ele>
  <time>2026-09-01T20:00:18Z</time>
  <course>6.85</course>
  <speed>25.66</speed>
  <fix>3d</fix>
</trkpt>
<trkpt lat="-35.2778531" lon="148.9859442">
  <ele>673.92</ele>
  <time>2026-09-01T20:00:18Z</time>
  <course>7.32</course>
  <speed>25.674208848570192</speed>
  <fix>3d</fix>
</trkpt>
<trkpt lat="-35.2779003" lon="148.9859372">
  <ele>674.56</ele>
  <time>2026-09-01T20:00:18Z</time>
  <course>6.85</course>
  <speed>25.66</speed>
  <fix>3d</fix>
</trkpt>
<trkpt lat="-35.2778304" lon="148.9859475">
  <ele>673.71</ele>
  <time>2026-09-01T20:00:18Z</time>
  <course>7.31</course>
  <speed>25.674208848570192</speed>
  <fix>3d</fix>
</trkpt>
<trkpt lat="-35.2778546" lon="148.985944">
  <ele>674.13</ele>
  <time>2026-09-01T20:00:18Z</time>
  <course>6.86</course>
  <speed>25.66</speed>
  <fix>3d</fix>
</trkpt>
<trkpt lat="-35.2778075" lon="148.9859509">
  <ele>673.5</ele>
  <time>2026-09-01T20:00:18Z</time>
  <course>7.32</course>
  <speed>25.674208848570192</speed>
  <fix>3d</fix>
</trkpt>
<trkpt lat="-35.2778546" lon="148.985944">
  <ele>674.13</ele>
  <time>2026-09-01T20:00:18Z</time>
  <course>6.86</course>
  <speed>25.66</speed>
  <fix>3d</fix>
</trkpt>
<trkpt lat="-35.2777846" lon="148.9859543">
  <ele>673.29</ele>
  <time>2026-09-01T20:00:18Z</time>
  <course>7.31</course>
  <speed>25.674208848570192</speed>
  <fix>3d</fix>
</trkpt>
<trkpt lat="-35.2778088" lon="148.9859507">
  <ele>673.7</ele>
  <time>2026-09-01T20:00:18Z</time>
  <course>6.86</course>
  <speed>25.67</speed>
  <fix>3d</fix>
</trkpt>
<trkpt lat="-35.2777617" lon="148.9859577">
  <ele>673.07</ele>
  <time>2026-09-01T20:00:18Z</time>
  <course>7.33</course>
  <speed>25.674208848570192</speed>
  <fix>3d</fix>
</trkpt>
<trkpt lat="-35.2778088" lon="148.9859507">
  <ele>673.7</ele>
  <time>2026-09-01T20:00:18Z</time>
  <course>6.86</course>
  <speed>25.67</speed>
  <fix>3d</fix>
</trkpt>
<trkpt lat="-35.2777392" lon="148.985961">
  <ele>672.86</ele>
  <time>2026-09-01T20:00:18Z</time>
  <course>7.37</course>
  <speed>25.674208848570192</speed>
  <fix>3d</fix>
</trkpt>
<trkpt lat="-35.2777629" lon="148.9859574">
  <ele>673.27</ele>
  <time>2026-09-01T20:00:18Z</time>
  <course>6.86</course>
  <speed>25.67</speed>
  <fix>3d</fix>
</trkpt>
<trkpt lat="-35.2777163" lon="148.9859644">
  <ele>672.65</ele>
  <time>2026-09-01T20:00:18Z</time>
  <course>7.4</course>
  <speed>25.674208848570192</speed>
  <fix>3d</fix>
</trkpt>
<trkpt lat="-35.2777629" lon="148.9859574">
  <ele>673.27</ele>
  <time>2026-09-01T20:00:18Z</time>
  <course>6.86</course>
  <speed>25.67</speed>
  <fix>3d</fix>
</trkpt>
<trkpt lat="-35.2776934" lon="148.9859677">
  <ele>672.44</ele>
  <time>2026-09-01T20:00:18Z</time>
  <course>7.35</course>
  <speed>25.674208848570192</speed>
  <fix>3d</fix>
</trkpt>
<trkpt lat="-35.2777172" lon="148.9859642">
  <ele>672.84</ele>
  <time>2026-09-01T20:00:18Z</time>
  <course>6.86</course>
  <speed>25.67</speed>
  <fix>3d</fix>
</trkpt>
<trkpt lat="-35.2776705" lon="148.9859711">
  <ele>672.22</ele>
  <time>2026-09-01T20:00:18Z</time>
  <course>7.31</course>
  <speed>25.674208848570192</speed>
  <fix>3d</fix>
</trkpt>
<trkpt lat="-35.2777172" lon="148.9859642">
  <ele>672.84</ele>
  <time>2026-09-01T20:00:18Z</time>
  <course>6.86</course>
  <speed>25.67</speed>
  <fix>3d</fix>
</trkpt>
<trkpt lat="-35.2776476" lon="148.9859745">
  <ele>672.01</ele>
  <time>2026-09-01T20:00:18Z</time>
  <course>7.33</course>
  <speed>25.674208848570192</speed>
  <fix>3d</fix>
</trkpt>
<trkpt lat="-35.2776714" lon="148.985971">
  <ele>672.42</ele>
  <time>2026-09-01T20:00:18Z</time>
  <course>6.87</course>
  <speed>25.67</speed>
  <fix>3d</fix>
</trkpt>
<trkpt lat="-35.2776247" lon="148.9859779">
  <ele>671.8</ele>
  <time>2026-09-01T20:00:18Z</time>
  <course>7.33</course>
  <speed>25.674208848570192</speed>
  <fix>3d</fix>
</trkpt>
<trkpt lat="-35.2776714" lon="148.985971">
  <ele>672.42</ele>
  <time>2026-09-01T20:00:18Z</time>
  <course>6.87</course>
  <speed>25.67</speed>
  <fix>3d</fix>
</trkpt>
<trkpt lat="-35.2776018" lon="148.9859812">
  <ele>671.59</ele>
  <time>2026-09-01T20:00:18Z</time>
  <course>7.34</course>
  <speed>25.674208848570192</speed>
  <fix>3d</fix>
</trkpt>
<trkpt lat="-35.2776257" lon="148.9859778">
  <ele>671.99</ele>
  <time>2026-09-01T20:00:18Z</time>
  <course>6.87</course>
  <speed>25.68</speed>
  <fix>3d</fix>
</trkpt>
<trkpt lat="-35.2775789" lon="148.9859846">
  <ele>671.38</ele>
  <time>2026-09-01T20:00:18Z</time>
  <course>7.37</course>
  <speed>25.674208848570192</speed>
  <fix>3d</fix>
</trkpt>
<trkpt lat="-35.2776257" lon="148.9859778">
  <ele>671.99</ele>
  <time>2026-09-01T20:00:18Z</time>
  <course>6.87</course>
  <speed>25.68</speed>
  <fix>3d</fix>
</trkpt>
<trkpt lat="-35.2775562" lon="148.985988">
  <ele>671.18</ele>
  <time>2026-09-01T20:00:18Z</time>
  <course>7.35</course>
  <speed>25.684137127807116</speed>
  <fix>3d</fix>
</trkpt>
<trkpt lat="-35.2775799" lon="148.9859845">
  <ele>671.57</ele>
  <time>2026-09-01T20:00:18Z</time>
  <course>6.87</course>
  <speed>25.69</speed>
  <fix>3d</fix>
</trkpt>
<trkpt lat="-35.2775334" lon="148.9859914">
  <ele>670.97</ele>
  <time>2026-09-01T20:00:18Z</time>
  <course>7.37</course>
  <speed>25.685334336932428</speed>
  <fix>3d</fix>
</trkpt>
<trkpt lat="-35.2775799" lon="148.9859845">
  <ele>671.57</ele>
  <time>2026-09-01T20:00:18Z</time>
  <course>6.87</course>
  <speed>25.69</speed>
  <fix>3d</fix>
</trkpt>
<trkpt lat="-35.2775105" lon="148.9859947">
  <ele>670.77</ele>
  <time>2026-09-01T20:00:18Z</time>
  <course>7.33</course>
  <speed>25.685334336932428</speed>
  <fix>3d</fix>
</trkpt>
<trkpt lat="-35.277534" lon="148.9859913">
  <ele>671.16</ele>
  <time>2026-09-01T20:00:18Z</time>
  <course>6.88</course>
  <speed>25.69</speed>
  <fix>3d</fix>
</trkpt>
<trkpt lat="-35.2774876" lon="148.9859981">
  <ele>670.56</ele>
  <time>2026-09-01T20:00:18Z</time>
  <course>7.33</course>
  <speed>25.6754065206376</speed>
  <fix>3d</fix>
</trkpt>
<trkpt lat="-35.277534" lon="148.9859913">
  <ele>671.16</ele>
  <time>2026-09-01T20:00:18Z</time>
  <course>6.88</course>
  <speed>25.69</speed>
  <fix>3d</fix>
</trkpt>
<trkpt lat="-35.2774645" lon="148.9860015">
  <ele>670.36</ele>
  <time>2026-09-01T20:00:18Z</time>
  <course>7.36</course>
  <speed>25.684137127807116</speed>
  <fix>3d</fix>
</trkpt>
<trkpt lat="-35.2774881" lon="148.9859981">
  <ele>670.76</ele>
  <time>2026-09-01T20:00:18Z</time>
  <course>6.87</course>
  <speed>25.7</speed>
  <fix>3d</fix>
</trkpt>
<trkpt lat="-35.2774417" lon="148.9860049">
  <ele>670.15</ele>
  <time>2026-09-01T20:00:18Z</time>
  <course>7.37</course>
  <speed>25.674208848570192</speed>
  <fix>3d</fix>
</trkpt>
<trkpt lat="-35.2774881" lon="148.9859981">
  <ele>670.76</ele>
  <time>2026-09-01T20:00:18Z</time>
  <course>6.87</course>
  <speed>25.7</speed>
  <fix>3d</fix>
</trkpt>
<trkpt lat="-35.2774189" lon="148.9860083">
  <ele>669.95</ele>
  <time>2026-09-01T20:00:18Z</time>
  <course>7.38</course>
  <speed>25.674208848570192</speed>
  <fix>3d</fix>
</trkpt>
<trkpt lat="-35.2774421" lon="148.9860048">
  <ele>670.36</ele>
  <time>2026-09-01T20:00:18Z</time>
  <course>6.87</course>
  <speed>25.7</speed>
  <fix>3d</fix>
</trkpt>
<trkpt lat="-35.2773954" lon="148.9860117">
  <ele>669.75</ele>
  <time>2026-09-01T20:00:18Z</time>
  <course>7.32</course>
  <speed>25.674208848570192</speed>
  <fix>3d</fix>
</trkpt>
<trkpt lat="-35.2774421" lon="148.9860048">
  <ele>670.36</ele>
  <time>2026-09-01T20:00:18Z</time>
  <course>6.87</course>
  <speed>25.7</speed>
  <fix>3d</fix>
</trkpt>
<trkpt lat="-35.2773726" lon="148.9860151">
  <ele>669.55</ele>
  <time>2026-09-01T20:00:18Z</time>
  <course>7.33</course>
  <speed>25.664280625024343</speed>
  <fix>3d</fix>
</trkpt>
<trkpt lat="-35.2773963" lon="148.9860116">
  <ele>669.96</ele>
  <time>2026-09-01T20:00:18Z</time>
  <course>6.86</course>
  <speed>25.71</speed>
  <fix>3d</fix>
</trkpt>
<trkpt lat="-35.2773501" lon="148.9860184">
  <ele>669.36</ele>
  <time>2026-09-01T20:00:18Z</time>
  <course>7.31</course>
  <speed>25.66308633036954</speed>
  <fix>3d</fix>
</trkpt>
<trkpt lat="-35.2773963" lon="148.9860116">
  <ele>669.96</ele>
  <time>2026-09-01T20:00:18Z</time>
  <course>6.86</course>
  <speed>25.71</speed>
  <fix>3d</fix>
</trkpt>
<trkpt lat="-35.2773273" lon="148.9860218">
  <ele>669.17</ele>
  <time>2026-09-01T20:00:18Z</time>
  <course>7.34</course>
  <speed>25.66308633036954</speed>
  <fix>3d</fix>
</trkpt>
<trkpt lat="-35.2773505" lon="148.9860183">
  <ele>669.57</ele>
  <time>2026-09-01T20:00:18Z</time>
  <course>6.86</course>
  <speed>25.72</speed>
  <fix>3d</fix>
</trkpt>
<trkpt lat="-35.2773045" lon="148.9860251">
  <ele>668.98</ele>
  <time>2026-09-01T20:00:18Z</time>
  <course>7.36</course>
  <speed>25.654352457234232</speed>
  <fix>3d</fix>
</trkpt>
<trkpt lat="-35.2773505" lon="148.9860183">
  <ele>669.57</ele>
  <time>2026-09-01T20:00:18Z</time>
  <course>6.86</course>
  <speed>25.72</speed>
  <fix>3d</fix>
</trkpt>
<trkpt lat="-35.2772817" lon="148.9860285">
  <ele>668.79</ele>
  <time>2026-09-01T20:00:18Z</time>
  <course>7.32</course>
  <speed>25.654352457234232</speed>
  <fix>3d</fix>
</trkpt>
<trkpt lat="-35.2773046" lon="148.9860252">
  <ele>669.19</ele>
  <time>2026-09-01T20:00:18Z</time>
  <course>6.85</course>
  <speed>25.72</speed>
  <fix>3d</fix>
</trkpt>
<trkpt lat="-35.2772587" lon="148.9860319">
  <ele>668.6</ele>
  <time>2026-09-01T20:00:18Z</time>
  <course>7.34</course>
  <speed>25.654352457234232</speed>
  <fix>3d</fix>
</trkpt>
<trkpt lat="-35.2773046" lon="148.9860252">
  <ele>669.19</ele>
  <time>2026-09-01T20:00:18Z</time>
  <course>6.85</course>
  <speed>25.72</speed>
  <fix>3d</fix>
</trkpt>
<trkpt lat="-35.2772359" lon="148.9860352">
  <ele>668.42</ele>
  <time>2026-09-01T20:00:18Z</time>
  <course>7.35</course>
  <speed>25.654352457234232</speed>
  <fix>3d</fix>
</trkpt>
<trkpt lat="-35.2772587" lon="148.9860319">
  <ele>668.82</ele>
  <time>2026-09-01T20:00:18Z</time>
  <course>6.86</course>
  <speed>25.73</speed>
  <fix>3d</fix>
</trkpt>
<trkpt lat="-35.2772131" lon="148.9860386">
  <ele>668.23</ele>
  <time>2026-09-01T20:00:18Z</time>
  <course>7.31</course>
  <speed>25.654352457234232</speed>
  <fix>3d</fix>
</trkpt>
<trkpt lat="-35.2772587" lon="148.9860319">
  <ele>668.82</ele>
  <time>2026-09-01T20:00:18Z</time>
  <course>6.86</course>
  <speed>25.73</speed>
  <fix>3d</fix>
</trkpt>
<trkpt lat="-35.2771903" lon="148.986042">
  <ele>668.05</ele>
  <time>2026-09-01T20:00:18Z</time>
  <course>7.3</course>
  <speed>25.654352457234232</speed>
  <fix>3d</fix>
</trkpt>
<trkpt lat="-35.2772128" lon="148.9860387">
  <ele>668.45</ele>
  <time>2026-09-01T20:00:18Z</time>
  <course>6.85</course>
  <speed>25.74</speed>
  <fix>3d</fix>
</trkpt>
<trkpt lat="-35.2771674" lon="148.9860453">
  <ele>667.87</ele>
  <time>2026-09-01T20:00:18Z</time>
  <course>7.34</course>
  <speed>25.653157700368975</speed>
  <fix>3d</fix>
</trkpt>
<trkpt lat="-35.2772128" lon="148.9860387">
  <ele>668.45</ele>
  <time>2026-09-01T20:00:18Z</time>
  <course>6.85</course>
  <speed>25.74</speed>
  <fix>3d</fix>
</trkpt>
<trkpt lat="-35.2771446" lon="148.9860487">
  <ele>667.7</ele>
  <time>2026-09-01T20:00:18Z</time>
  <course>7.34</course>
  <speed>25.653157700368975</speed>
  <fix>3d</fix>
</trkpt>
<trkpt lat="-35.2771669" lon="148.9860454">
  <ele>668.09</ele>
  <time>2026-09-01T20:00:18Z</time>
  <course>6.84</course>
  <speed>25.75</speed>
  <fix>3d</fix>
</trkpt>
<trkpt lat="-35.2771217" lon="148.9860521">
  <ele>667.53</ele>
  <time>2026-09-01T20:00:18Z</time>
  <course>7.29</course>
  <speed>25.653157700368975</speed>
  <fix>3d</fix>
</trkpt>
<trkpt lat="-35.2771669" lon="148.9860454">
  <ele>668.09</ele>
  <time>2026-09-01T20:00:18Z</time>
  <course>6.84</course>
  <speed>25.75</speed>
  <fix>3d</fix>
</trkpt>
<trkpt lat="-35.2770994" lon="148.9860554">
  <ele>667.36</ele>
  <time>2026-09-01T20:00:18Z</time>
  <course>7.25</course>
  <speed>25.653157700368975</speed>
  <fix>3d</fix>
</trkpt>
<trkpt lat="-35.2771209" lon="148.9860522">
  <ele>667.74</ele>
  <time>2026-09-01T20:00:18Z</time>
  <course>6.83</course>
  <speed>25.75</speed>
  <fix>3d</fix>
</trkpt>
<trkpt lat="-35.2770767" lon="148.9860587">
  <ele>667.19</ele>
  <time>2026-09-01T20:00:18Z</time>
  <course>7.26</course>
  <speed>25.651966786194</speed>
  <fix>3d</fix>
</trkpt>
<trkpt lat="-35.2771209" lon="148.9860522">
  <ele>667.74</ele>
  <time>2026-09-01T20:00:18Z</time>
  <course>6.83</course>
  <speed>25.75</speed>
  <fix>3d</fix>
</trkpt>
<trkpt lat="-35.2770538" lon="148.9860621">
  <ele>667.02</ele>
  <time>2026-09-01T20:00:18Z</time>
  <course>7.33</course>
  <speed>25.651966786194</speed>
  <fix>3d</fix>
</trkpt>
<trkpt lat="-35.277075" lon="148.9860589">
  <ele>667.4</ele>
  <time>2026-09-01T20:00:18Z</time>
  <course>6.82</course>
  <speed>25.75</speed>
  <fix>3d</fix>
</trkpt>
<trkpt lat="-35.2770308" lon="148.9860654">
  <ele>666.85</ele>
  <time>2026-09-01T20:00:18Z</time>
  <course>7.34</course>
  <speed>25.651966786194</speed>
  <fix>3d</fix>
</trkpt>
<trkpt lat="-35.277075" lon="148.9860589">
  <ele>667.4</ele>
  <time>2026-09-01T20:00:18Z</time>
  <course>6.82</course>
  <speed>25.75</speed>
  <fix>3d</fix>
</trkpt>
<trkpt lat="-35.2770079" lon="148.9860688">
  <ele>666.68</ele>
  <time>2026-09-01T20:00:18Z</time>
  <course>7.33</course>
  <speed>25.651966786194</speed>
  <fix>3d</fix>
</trkpt>
<trkpt lat="-35.277029" lon="148.9860656">
  <ele>667.05</ele>
  <time>2026-09-01T20:00:18Z</time>
  <course>6.81</course>
  <speed>25.75</speed>
  <fix>3d</fix>
</trkpt>
<trkpt lat="-35.2769848" lon="148.9860722">
  <ele>666.51</ele>
  <time>2026-09-01T20:00:18Z</time>
  <course>7.3</course>
  <speed>25.651966786194</speed>
  <fix>3d</fix>
</trkpt>
<trkpt lat="-35.277029" lon="148.9860656">
  <ele>667.05</ele>
  <time>2026-09-01T20:00:18Z</time>
  <course>6.81</course>
  <speed>25.75</speed>
  <fix>3d</fix>
</trkpt>
<trkpt lat="-35.2769618" lon="148.9860755">
  <ele>666.35</ele>
  <time>2026-09-01T20:00:18Z</time>
  <course>7.32</course>
  <speed>25.661895876961236</speed>
  <fix>3d</fix>
</trkpt>
<trkpt lat="-35.276983" lon="148.9860724">
  <ele>666.72</ele>
  <time>2026-09-01T20:00:18Z</time>
  <course>6.81</course>
  <speed>25.76</speed>
  <fix>3d</fix>
</trkpt>
<trkpt lat="-35.2769388" lon="148.9860789">
  <ele>666.19</ele>
  <time>2026-09-01T20:00:18Z</time>
  <course>7.32</course>
  <speed>25.651966786194</speed>
  <fix>3d</fix>
</trkpt>
<trkpt lat="-35.276983" lon="148.9860724">
  <ele>666.72</ele>
  <time>2026-09-01T20:00:18Z</time>
  <course>6.81</course>
  <speed>25.76</speed>
  <fix>3d</fix>
</trkpt>
<trkpt lat="-35.2769151" lon="148.9860824">
  <ele>666.02</ele>
  <time>2026-09-01T20:00:18Z</time>
  <course>7.29</course>
  <speed>25.651966786194</speed>
  <fix>3d</fix>
</trkpt>
<trkpt lat="-35.276937" lon="148.9860791">
  <ele>666.4</ele>
  <time>2026-09-01T20:00:18Z</time>
  <course>6.81</course>
  <speed>25.75</speed>
  <fix>3d</fix>
</trkpt>
<trkpt lat="-35.2768923" lon="148.9860857">
  <ele>665.86</ele>
  <time>2026-09-01T20:00:18Z</time>
  <course>7.28</course>
  <speed>25.661895876961236</speed>
  <fix>3d</fix>
</trkpt>
<trkpt lat="-35.276937" lon="148.9860791">
  <ele>666.4</ele>
  <time>2026-09-01T20:00:18Z</time>
  <course>6.81</course>
  <speed>25.75</speed>
  <fix>3d</fix>
</trkpt>
<trkpt lat="-35.2768694" lon="148.9860891">
  <ele>665.7</ele>
  <time>2026-09-01T20:00:18Z</time>
  <course>7.3</course>
  <speed>25.660709265334035</speed>
  <fix>3d</fix>
</trkpt>
<trkpt lat="-35.2768911" lon="148.9860858">
  <ele>666.07</ele>
  <time>2026-09-01T20:00:18Z</time>
  <course>6.8</course>
  <speed>25.75</speed>
  <fix>3d</fix>
</trkpt>
<trkpt lat="-35.2768464" lon="148.9860924">
  <ele>665.54</ele>
  <time>2026-09-01T20:00:18Z</time>
  <course>7.36</course>
  <speed>25.660709265334035</speed>
  <fix>3d</fix>
</trkpt>
<trkpt lat="-35.2768911" lon="148.9860858">
  <ele>666.07</ele>
  <time>2026-09-01T20:00:18Z</time>
  <course>6.8</course>
  <speed>25.75</speed>
  <fix>3d</fix>
</trkpt>
<trkpt lat="-35.2768234" lon="148.9860958">
  <ele>665.38</ele>
  <time>2026-09-01T20:00:18Z</time>
  <course>7.39</course>
  <speed>25.660709265334035</speed>
  <fix>3d</fix>
</trkpt>
<trkpt lat="-35.2768452" lon="148.9860925">
  <ele>665.76</ele>
  <time>2026-09-01T20:00:18Z</time>
  <course>6.79</course>
  <speed>25.75</speed>
  <fix>3d</fix>
</trkpt>
<trkpt lat="-35.2768004" lon="148.9860991">
  <ele>665.23</ele>
  <time>2026-09-01T20:00:18Z</time>
  <course>7.33</course>
  <speed>25.660709265334035</speed>
  <fix>3d</fix>
</trkpt>
<trkpt lat="-35.2768452" lon="148.9860925">
  <ele>665.76</ele>
  <time>2026-09-01T20:00:18Z</time>
  <course>6.79</course>
  <speed>25.75</speed>
  <fix>3d</fix>
</trkpt>
<trkpt lat="-35.2767772" lon="148.9861025">
  <ele>665.08</ele>
  <time>2026-09-01T20:00:18Z</time>
  <course>7.31</course>
  <speed>25.670638870117745</speed>
  <fix>3d</fix>
</trkpt>
<trkpt lat="-35.2767993" lon="148.9860992">
  <ele>665.44</ele>
  <time>2026-09-01T20:00:18Z</time>
  <course>6.79</course>
  <speed>25.74</speed>
  <fix>3d</fix>
</trkpt>
<trkpt lat="-35.2767542" lon="148.9861058">
  <ele>664.93</ele>
  <time>2026-09-01T20:00:18Z</time>
  <course>7.32</course>
  <speed>25.671825022775455</speed>
  <fix>3d</fix>
</trkpt>
<trkpt lat="-35.2767993" lon="148.9860992">
  <ele>665.44</ele>
  <time>2026-09-01T20:00:18Z</time>
  <course>6.79</course>
  <speed>25.74</speed>
  <fix>3d</fix>
</trkpt>
<trkpt lat="-35.2767312" lon="148.9861092">
  <ele>664.78</ele>
  <time>2026-09-01T20:00:18Z</time>
  <course>7.28</course>
  <speed>25.661895876961236</speed>
  <fix>3d</fix>
</trkpt>
<trkpt lat="-35.2767534" lon="148.9861059">
  <ele>665.14</ele>
  <time>2026-09-01T20:00:18Z</time>
  <course>6.79</course>
  <speed>25.74</speed>
  <fix>3d</fix>
</trkpt>
<trkpt lat="-35.2767082" lon="148.9861126">
  <ele>664.63</ele>
  <time>2026-09-01T20:00:18Z</time>
  <course>7.23</course>
  <speed>25.670638870117745</speed>
  <fix>3d</fix>
</trkpt>
<trkpt lat="-35.2767534" lon="148.9861059">
  <ele>665.14</ele>
  <time>2026-09-01T20:00:18Z</time>
  <course>6.79</course>
  <speed>25.74</speed>
  <fix>3d</fix>
</trkpt>
<trkpt lat="-35.2766852" lon="148.9861159">
  <ele>664.49</ele>
  <time>2026-09-01T20:00:18Z</time>
  <course>7.24</course>
  <speed>25.670638870117745</speed>
  <fix>3d</fix>
</trkpt>
<trkpt lat="-35.2767075" lon="148.9861126">
  <ele>664.83</ele>
  <time>2026-09-01T20:00:18Z</time>
  <course>6.79</course>
  <speed>25.73</speed>
  <fix>3d</fix>
</trkpt>
<trkpt lat="-35.2766622" lon="148.9861193">
  <ele>664.34</ele>
  <time>2026-09-01T20:00:18Z</time>
  <course>7.26</course>
  <speed>25.669456558330175</speed>
  <fix>3d</fix>
</trkpt>
<trkpt lat="-35.2767075" lon="148.9861126">
  <ele>664.83</ele>
  <time>2026-09-01T20:00:18Z</time>
  <course>6.79</course>
  <speed>25.73</speed>
  <fix>3d</fix>
</trkpt>
<trkpt lat="-35.2766392" lon="148.9861226">
  <ele>664.2</ele>
  <time>2026-09-01T20:00:18Z</time>
  <course>7.28</course>
  <speed>25.669456558330175</speed>
  <fix>3d</fix>
</trkpt>
<trkpt lat="-35.2766616" lon="148.9861193">
  <ele>664.54</ele>
  <time>2026-09-01T20:00:18Z</time>
  <course>6.77</course>
  <speed>25.72</speed>
  <fix>3d</fix>
</trkpt>
<trkpt lat="-35.2766162" lon="148.986126">
  <ele>664.06</ele>
  <time>2026-09-01T20:00:18Z</time>
  <course>7.29</course>
  <speed>25.679386674918856</speed>
  <fix>3d</fix>
</trkpt>
<trkpt lat="-35.2766616" lon="148.9861193">
  <ele>664.54</ele>
  <time>2026-09-01T20:00:18Z</time>
  <course>6.77</course>
  <speed>25.72</speed>
  <fix>3d</fix>
</trkpt>
<trkpt lat="-35.2765932" lon="148.9861293">
  <ele>663.93</ele>
  <time>2026-09-01T20:00:18Z</time>
  <course>7.26</course>
  <speed>25.679386674918856</speed>
  <fix>3d</fix>
</trkpt>
<trkpt lat="-35.2766157" lon="148.986126">
  <ele>664.26</ele>
  <time>2026-09-01T20:00:18Z</time>
  <course>6.76</course>
  <speed>25.72</speed>
  <fix>3d</fix>
</trkpt>
<trkpt lat="-35.2765702" lon="148.9861326">
  <ele>663.79</ele>
  <time>2026-09-01T20:00:18Z</time>
  <course>7.27</course>
  <speed>25.688139286448912</speed>
  <fix>3d</fix>
</trkpt>
<trkpt lat="-35.2766157" lon="148.986126">
  <ele>664.26</ele>
  <time>2026-09-01T20:00:18Z</time>
  <course>6.76</course>
  <speed>25.72</speed>
  <fix>3d</fix>
</trkpt>
<trkpt lat="-35.2765472" lon="148.986136">
  <ele>663.66</ele>
  <time>2026-09-01T20:00:18Z</time>
  <course>7.24</course>
  <speed>25.688139286448912</speed>
  <fix>3d</fix>
</trkpt>
<trkpt lat="-35.2765698" lon="148.9861326">
  <ele>663.99</ele>
  <time>2026-09-01T20:00:18Z</time>
  <course>6.74</course>
  <speed>25.72</speed>
  <fix>3d</fix>
</trkpt>
<trkpt lat="-35.2765242" lon="148.9861393">
  <ele>663.54</ele>
  <time>2026-09-01T20:00:18Z</time>
  <course>7.23</course>
  <speed>25.688139286448912</speed>
  <fix>3d</fix>
</trkpt>
<trkpt lat="-35.2765698" lon="148.9861326">
  <ele>663.99</ele>
  <time>2026-09-01T20:00:18Z</time>
  <course>6.74</course>
  <speed>25.72</speed>
  <fix>3d</fix>
</trkpt>
<trkpt lat="-35.2765012" lon="148.9861426">
  <ele>663.42</ele>
  <time>2026-09-01T20:00:18Z</time>
  <course>7.25</course>
  <speed>25.688139286448912</speed>
  <fix>3d</fix>
</trkpt>
<trkpt lat="-35.2765239" lon="148.9861393">
  <ele>663.74</ele>
  <time>2026-09-01T20:00:18Z</time>
  <course>6.73</course>
  <speed>25.71</speed>
  <fix>3d</fix>
</trkpt>
<trkpt lat="-35.2764787" lon="148.9861459">
  <ele>663.31</ele>
  <time>2026-09-01T20:00:18Z</time>
  <course>7.25</course>
  <speed>25.698069966439117</speed>
  <fix>3d</fix>
</trkpt>
<trkpt lat="-35.2765239" lon="148.9861393">
  <ele>663.74</ele>
  <time>2026-09-01T20:00:18Z</time>
  <course>6.73</course>
  <speed>25.71</speed>
  <fix>3d</fix>
</trkpt>
<trkpt lat="-35.2764557" lon="148.9861492">
  <ele>663.2</ele>
  <time>2026-09-01T20:00:18Z</time>
  <course>7.24</course>
  <speed>25.698069966439117</speed>
  <fix>3d</fix>
</trkpt>
<trkpt lat="-35.2764779" lon="148.986146">
  <ele>663.5</ele>
  <time>2026-09-01T20:00:18Z</time>
  <course>6.72</course>
  <speed>25.71</speed>
  <fix>3d</fix>
</trkpt>
<trkpt lat="-35.2764319" lon="148.9861526">
  <ele>663.09</ele>
  <time>2026-09-01T20:00:18Z</time>
  <course>7.24</course>
  <speed>25.696896699796262</speed>
  <fix>3d</fix>
</trkpt>
<trkpt lat="-35.2764779" lon="148.986146">
  <ele>663.5</ele>
  <time>2026-09-01T20:00:18Z</time>
  <course>6.72</course>
  <speed>25.71</speed>
  <fix>3d</fix>
</trkpt>
<trkpt lat="-35.2764091" lon="148.9861559">
  <ele>662.98</ele>
  <time>2026-09-01T20:00:18Z</time>
  <course>7.21</course>
  <speed>25.698069966439117</speed>
  <fix>3d</fix>
</trkpt>
<trkpt lat="-35.276432" lon="148.9861526">
  <ele>663.27</ele>
  <time>2026-09-01T20:00:18Z</time>
  <course>6.72</course>
  <speed>25.7</speed>
  <fix>3d</fix>
</trkpt>
<trkpt lat="-35.2763861" lon="148.9861592">
  <ele>662.89</ele>
  <time>2026-09-01T20:00:18Z</time>
  <course>7.19</course>
  <speed>25.686965566216653</speed>
  <fix>3d</fix>
</trkpt>
<trkpt lat="-35.276432" lon="148.9861526">
  <ele>663.27</ele>
  <time>2026-09-01T20:00:18Z</time>
  <course>6.72</course>
  <speed>25.7</speed>
  <fix>3d</fix>
</trkpt>
<trkpt lat="-35.2763631" lon="148.9861626">
  <ele>662.79</ele>
  <time>2026-09-01T20:00:18Z</time>
  <course>7.21</course>
  <speed>25.686965566216653</speed>
  <fix>3d</fix>
</trkpt>
<trkpt lat="-35.2763862" lon="148.9861592">
  <ele>663.06</ele>
  <time>2026-09-01T20:00:18Z</time>
  <course>6.71</course>
  <speed>25.69</speed>
  <fix>3d</fix>
</trkpt>
<trkpt lat="-35.2763401" lon="148.9861659">
  <ele>662.71</ele>
  <time>2026-09-01T20:00:18Z</time>
  <course>7.24</course>
  <speed>25.686965566216653</speed>
  <fix>3d</fix>
</trkpt>
<trkpt lat="-35.2763862" lon="148.9861592">
  <ele>663.06</ele>
  <time>2026-09-01T20:00:18Z</time>
  <course>6.71</course>
  <speed>25.69</speed>
  <fix>3d</fix>
</trkpt>
<trkpt lat="-35.2763169" lon="148.9861692">
  <ele>662.62</ele>
  <time>2026-09-01T20:00:18Z</time>
  <course>7.25</course>
  <speed>25.686965566216653</speed>
  <fix>3d</fix>
</trkpt>
<trkpt lat="-35.2763403" lon="148.9861658">
  <ele>662.88</ele>
  <time>2026-09-01T20:00:18Z</time>
  <course>6.71</course>
  <speed>25.68</speed>
  <fix>3d</fix>
</trkpt>
<trkpt lat="-35.2762939" lon="148.9861726">
  <ele>662.54</ele>
  <time>2026-09-01T20:00:18Z</time>
  <course>7.26</course>
  <speed>25.677034486092822</speed>
  <fix>3d</fix>
</trkpt>
<trkpt lat="-35.2763403" lon="148.9861658">
  <ele>662.88</ele>
  <time>2026-09-01T20:00:18Z</time>
  <course>6.71</course>
  <speed>25.68</speed>
  <fix>3d</fix>
</trkpt>
<trkpt lat="-35.2762709" lon="148.9861759">
  <ele>662.46</ele>
  <time>2026-09-01T20:00:18Z</time>
  <course>7.25</course>
  <speed>25.627379889485386</speed>
  <fix>3d</fix>
</trkpt>
<trkpt lat="-35.2762946" lon="148.9861725">
  <ele>662.7</ele>
  <time>2026-09-01T20:00:18Z</time>
  <course>6.71</course>
  <speed>25.64</speed>
  <fix>3d</fix>
</trkpt>
<trkpt lat="-35.2762481" lon="148.9861792">
  <ele>662.38</ele>
  <time>2026-09-01T20:00:18Z</time>
  <course>7.24</course>
  <speed>25.525724279636023</speed>
  <fix>3d</fix>
</trkpt>
<trkpt lat="-35.2762946" lon="148.9861725">
  <ele>662.7</ele>
  <time>2026-09-01T20:00:18Z</time>
  <course>6.71</course>
  <speed>25.64</speed>
  <fix>3d</fix>
</trkpt>
<trkpt lat="-35.2762253" lon="148.9861825">
  <ele>662.32</ele>
  <time>2026-09-01T20:00:18Z</time>
  <course>7.52</course>
  <speed>25.35411998078419</speed>
  <fix>3d</fix>
</trkpt>
<trkpt lat="-35.2762489" lon="148.986179">
  <ele>662.56</ele>
  <time>2026-09-01T20:00:18Z</time>
  <course>6.79</course>
  <speed>25.48</speed>
  <fix>3d</fix>
</trkpt>
<trkpt lat="-35.2762028" lon="148.986186">
  <ele>662.32</ele>
  <time>2026-09-01T20:00:18Z</time>
  <course>8.1</course>
  <speed>25.08536027247765</speed>
  <fix>3d</fix>
</trkpt>
<trkpt lat="-35.2762489" lon="148.986179">
  <ele>662.56</ele>
  <time>2026-09-01T20:00:18Z</time>
  <course>6.79</course>
  <speed>25.48</speed>
  <fix>3d</fix>
</trkpt>
<trkpt lat="-35.2761806" lon="148.9861898">
  <ele>662.38</ele>
  <time>2026-09-01T20:00:18Z</time>
  <course>9.0</course>
  <speed>24.726423113746154</speed>
  <fix>3d</fix>
</trkpt>
<trkpt lat="-35.2762039" lon="148.9861859">
  <ele>662.5</ele>
  <time>2026-09-01T20:00:18Z</time>
  <course>7.59</course>
  <speed>25.04</speed>
  <fix>3d</fix>
</trkpt>
<trkpt lat="-35.2761588" lon="148.986194">
  <ele>662.49</ele>
  <time>2026-09-01T20:00:18Z</time>
  <course>10.23</course>
  <speed>24.296553253496675</speed>
  <fix>3d</fix>
</trkpt>
<trkpt lat="-35.2762039" lon="148.9861859">
  <ele>662.5</ele>
  <time>2026-09-01T20:00:18Z</time>
  <course>7.59</course>
  <speed>25.04</speed>
  <fix>3d</fix>
</trkpt>
<trkpt lat="-35.2761375" lon="148.9861987">
  <ele>662.66</ele>
  <time>2026-09-01T20:00:18Z</time>
  <course>11.65</course>
  <speed>23.840889245160298</speed>
  <fix>3d</fix>
</trkpt>
<trkpt lat="-35.27616" lon="148.9861939">
  <ele>662.66</ele>
  <time>2026-09-01T20:00:18Z</time>
  <course>9.49</course>
  <speed>24.29</speed>
  <fix>3d</fix>
</trkpt>
<trkpt lat="-35.2761167" lon="148.9862039">
  <ele>662.88</ele>
  <time>2026-09-01T20:00:18Z</time>
  <course>13.08</course>
  <speed>23.36738325101893</speed>
  <fix>3d</fix>
</trkpt>
<trkpt lat="-35.27616" lon="148.9861939">
  <ele>662.66</ele>
  <time>2026-09-01T20:00:18Z</time>
  <course>9.49</course>
  <speed>24.29</speed>
  <fix>3d</fix>
</trkpt>
<trkpt lat="-35.2760964" lon="148.9862095">
  <ele>663.14</ele>
  <time>2026-09-01T20:00:18Z</time>
  <course>14.4</course>
  <speed>22.882255133618276</speed>
  <fix>3d</fix>
</trkpt>
<trkpt lat="-35.2761179" lon="148.9862036">
  <ele>663.03</ele>
  <time>2026-09-01T20:00:18Z</time>
  <course>11.97</course>
  <speed>23.39</speed>
  <fix>3d</fix>
</trkpt>
<trkpt lat="-35.2760768" lon="148.9862155">
  <ele>663.44</ele>
  <time>2026-09-01T20:00:18Z</time>
  <course>15.58</course>
  <speed>22.38983028073237</speed>
  <fix>3d</fix>
</trkpt>
<trkpt lat="-35.2761179" lon="148.9862036">
  <ele>663.03</ele>
  <time>2026-09-01T20:00:18Z</time>
  <course>11.97</course>
  <speed>23.39</speed>
  <fix>3d</fix>
</trkpt>
<trkpt lat="-35.2760577" lon="148.9862219">
  <ele>663.77</ele>
  <time>2026-09-01T20:00:18Z</time>
  <course>16.51</course>
  <speed>21.88982640406269</speed>
  <fix>3d</fix>
</trkpt>
<trkpt lat="-35.2760778" lon="148.9862152">
  <ele>663.57</ele>
  <time>2026-09-01T20:00:18Z</time>
  <course>14.51</course>
  <speed>22.43</speed>
  <fix>3d</fix>
</trkpt>
<trkpt lat="-35.2760391" lon="148.9862285">
  <ele>664.12</ele>
  <time>2026-09-01T20:00:18Z</time>
  <course>17.17</course>
  <speed>21.414156532537067</speed>
  <fix>3d</fix>
</trkpt>
<trkpt lat="-35.2760778" lon="148.9862152">
  <ele>663.57</ele>
  <time>2026-09-01T20:00:18Z</time>
  <course>14.51</course>
  <speed>22.43</speed>
  <fix>3d</fix>
</trkpt>
<trkpt lat="-35.276021" lon="148.9862354">
  <ele>664.47</ele>
  <time>2026-09-01T20:00:18Z</time>
  <course>17.61</course>
  <speed>20.97781923842419</speed>
  <fix>3d</fix>
</trkpt>
<trkpt lat="-35.2760397" lon="148.9862283">
  <ele>664.23</ele>
  <time>2026-09-01T20:00:18Z</time>
  <course>16.65</course>
  <speed>21.49</speed>
  <fix>3d</fix>
</trkpt>
<trkpt lat="-35.2760033" lon="148.9862424">
  <ele>664.82</ele>
  <time>2026-09-01T20:00:18Z</time>
  <course>17.92</course>
  <speed>20.574027316011808</speed>
  <fix>3d</fix>
</trkpt>
<trkpt lat="-35.2760397" lon="148.9862283">
  <ele>664.23</ele>
  <time>2026-09-01T20:00:18Z</time>
  <course>16.65</course>
  <speed>21.49</speed>
  <fix>3d</fix>
</trkpt>
<trkpt lat="-35.275986" lon="148.9862494">
  <ele>665.16</ele>
  <time>2026-09-01T20:00:18Z</time>
  <course>18.16</course>
  <speed>20.210158336836454</speed>
  <fix>3d</fix>
</trkpt>
<trkpt lat="-35.2760036" lon="148.9862422">
  <ele>664.91</ele>
  <time>2026-09-01T20:00:18Z</time>
  <course>18.08</course>
  <speed>20.66</speed>
  <fix>3d</fix>
</trkpt>
<trkpt lat="-35.275969" lon="148.9862564">
  <ele>665.46</ele>
  <time>2026-09-01T20:00:18Z</time>
  <course>18.38</course>
  <speed>19.8691947496621</speed>
  <fix>3d</fix>
</trkpt>
<trkpt lat="-35.2760036" lon="148.9862422">
  <ele>664.91</ele>
  <time>2026-09-01T20:00:18Z</time>
  <course>18.08</course>
  <speed>20.66</speed>
  <fix>3d</fix>
</trkpt>
<trkpt lat="-35.2759523" lon="148.9862635">
  <ele>665.73</ele>
  <time>2026-09-01T20:00:18Z</time>
  <course>18.58</course>
  <speed>19.560125255222676</speed>
  <fix>3d</fix>
</trkpt>
<trkpt lat="-35.2759691" lon="148.9862564">
  <ele>665.53</ele>
  <time>2026-09-01T20:00:18Z</time>
  <course>18.89</course>
  <speed>19.95</speed>
  <fix>3d</fix>
</trkpt>
<trkpt lat="-35.2759359" lon="148.9862705">
  <ele>665.96</ele>
  <time>2026-09-01T20:00:18Z</time>
  <course>18.76</course>
  <speed>19.273115990934105</speed>
  <fix>3d</fix>
</trkpt>
<trkpt lat="-35.2759691" lon="148.9862564">
  <ele>665.53</ele>
  <time>2026-09-01T20:00:18Z</time>
  <course>18.89</course>
  <speed>19.95</speed>
  <fix>3d</fix>
</trkpt>
<trkpt lat="-35.2759197" lon="148.9862774">
  <ele>666.16</ele>
  <time>2026-09-01T20:00:18Z</time>
  <course>18.93</course>
  <speed>19.001810440060705</speed>
  <fix>3d</fix>
</trkpt>
<trkpt lat="-35.2759358" lon="148.9862705">
  <ele>666.03</ele>
  <time>2026-09-01T20:00:18Z</time>
  <course>19.35</course>
  <speed>19.35</speed>
  <fix>3d</fix>
</trkpt>
<trkpt lat="-35.2759036" lon="148.9862844">
  <ele>666.33</ele>
  <time>2026-09-01T20:00:18Z</time>
  <course>19.1</course>
  <speed>18.746106262368194</speed>
  <fix>3d</fix>
</trkpt>
<trkpt lat="-35.2759358" lon="148.9862705">
  <ele>666.03</ele>
  <time>2026-09-01T20:00:18Z</time>
  <course>19.35</course>
  <speed>19.35</speed>
  <fix>3d</fix>
</trkpt>
<trkpt lat="-35.2758878" lon="148.9862913">
  <ele>666.45</ele>
  <time>2026-09-01T20:00:18Z</time>
  <course>19.25</course>
  <speed>18.499862161648664</speed>
  <fix>3d</fix>
</trkpt>
<trkpt lat="-35.2759035" lon="148.9862845">
  <ele>666.39</ele>
  <time>2026-09-01T20:00:18Z</time>
  <course>19.6</course>
  <speed>18.82</speed>
  <fix>3d</fix>
</trkpt>
<trkpt lat="-35.2758723" lon="148.9862981">
  <ele>666.55</ele>
  <time>2026-09-01T20:00:18Z</time>
  <course>19.36</course>
  <speed>18.278547535293935</speed>
  <fix>3d</fix>
</trkpt>
<trkpt lat="-35.2759035" lon="148.9862845">
  <ele>666.39</ele>
  <time>2026-09-01T20:00:18Z</time>
  <course>19.6</course>
  <speed>18.82</speed>
  <fix>3d</fix>
</trkpt>
<trkpt lat="-35.2758569" lon="148.9863048">
  <ele>666.61</ele>
  <time>2026-09-01T20:00:18Z</time>
  <course>19.45</course>
  <speed>18.06330257732511</speed>
  <fix>3d</fix>
</trkpt>
<trkpt lat="-35.2758721" lon="148.9862982">
  <ele>666.61</ele>
  <time>2026-09-01T20:00:18Z</time>
  <course>19.68</course>
  <speed>18.35</speed>
  <fix>3d</fix>
</trkpt>
<trkpt lat="-35.2758417" lon="148.9863114">
  <ele>666.65</ele>
  <time>2026-09-01T20:00:18Z</time>
  <course>19.48</course>
  <speed>17.863571871269194</speed>
  <fix>3d</fix>
</trkpt>
<trkpt lat="-35.2758721" lon="148.9862982">
  <ele>666.61</ele>
  <time>2026-09-01T20:00:18Z</time>
  <course>19.68</course>
  <speed>18.35</speed>
  <fix>3d</fix>
</trkpt>
<trkpt lat="-35.2758266" lon="148.986318">
  <ele>666.67</ele>
  <time>2026-09-01T20:00:18Z</time>
  <course>19.48</course>
  <speed>17.673307556877973</speed>
  <fix>3d</fix>
</trkpt>
<trkpt lat="-35.2758414" lon="148.9863116">
  <ele>666.71</ele>
  <time>2026-09-01T20:00:18Z</time>
  <course>19.6</course>
  <speed>17.93</speed>
  <fix>3d</fix>
</trkpt>
<trkpt lat="-35.2758117" lon="148.9863244">
  <ele>666.67</ele>
  <time>2026-09-01T20:00:18Z</time>
  <course>19.42</course>
  <speed>17.498665663415597</speed>
  <fix>3d</fix>
</trkpt>
<trkpt lat="-35.2758414" lon="148.9863116">
  <ele>666.71</ele>
  <time>2026-09-01T20:00:18Z</time>
  <course>19.6</course>
  <speed>17.93</speed>
  <fix>3d</fix>
</trkpt>
<trkpt lat="-35.2757969" lon="148.9863307">
  <ele>666.65</ele>
  <time>2026-09-01T20:00:18Z</time>
  <course>19.31</course>
  <speed>17.320868915848305</speed>
  <fix>3d</fix>
</trkpt>
<trkpt lat="-35.2758113" lon="148.9863247">
  <ele>666.73</ele>
  <time>2026-09-01T20:00:18Z</time>
  <course>19.35</course>
  <speed>17.55</speed>
  <fix>3d</fix>
</trkpt>
<trkpt lat="-35.2757822" lon="148.9863369">
  <ele>666.62</ele>
  <time>2026-09-01T20:00:18Z</time>
  <course>19.14</course>
  <speed>17.158939361160993</speed>
  <fix>3d</fix>
</trkpt>
<trkpt lat="-35.2758113" lon="148.9863247">
  <ele>666.73</ele>
  <time>2026-09-01T20:00:18Z</time>
  <course>19.35</course>
  <speed>17.55</speed>
  <fix>3d</fix>
</trkpt>
<trkpt lat="-35.2757676" lon="148.986343">
  <ele>666.58</ele>
  <time>2026-09-01T20:00:18Z</time>
  <course>18.92</course>
  <speed>17.003602559457804</speed>
  <fix>3d</fix>
</trkpt>
<trkpt lat="-35.2757819" lon="148.9863373">
  <ele>666.68</ele>
  <time>2026-09-01T20:00:18Z</time>
  <course>18.92</course>
  <speed>17.21</speed>
  <fix>3d</fix>
</trkpt>
<trkpt lat="-35.2757531" lon="148.9863489">
  <ele>666.54</ele>
  <time>2026-09-01T20:00:18Z</time>
  <course>18.64</course>
  <speed>16.85505858785427</speed>
  <fix>3d</fix>
</trkpt>
<trkpt lat="-35.2757819" lon="148.9863373">
  <ele>666.68</ele>
  <time>2026-09-01T20:00:18Z</time>
  <course>18.92</course>
  <speed>17.21</speed>
  <fix>3d</fix>
</trkpt>
<trkpt lat="-35.2757388" lon="148.9863547">
  <ele>666.49</ele>
  <time>2026-09-01T20:00:18Z</time>
  <course>18.32</course>
  <speed>16.704023467416466</speed>
  <fix>3d</fix>
</trkpt>
<trkpt lat="-35.2757529" lon="148.9863492">
  <ele>666.6</ele>
  <time>2026-09-01T20:00:18Z</time>
  <course>18.32</course>
  <speed>16.89</speed>
  <fix>3d</fix>
</trkpt>
<trkpt lat="-35.2757245" lon="148.9863603">
  <ele>666.44</ele>
  <time>2026-09-01T20:00:18Z</time>
  <course>17.96</course>
  <speed>16.563239417456963</speed>
  <fix>3d</fix>
</trkpt>
<trkpt lat="-35.2757529" lon="148.9863492">
  <ele>666.6</ele>
  <time>2026-09-01T20:00:18Z</time>
  <course>18.32</course>
  <speed>16.89</speed>
  <fix>3d</fix>
</trkpt>
<trkpt lat="-35.2757104" lon="148.9863657">
  <ele>666.38</ele>
  <time>2026-09-01T20:00:18Z</time>
  <course>17.55</course>
  <speed>16.4173688513111</speed>
  <fix>3d</fix>
</trkpt>
<trkpt lat="-35.2757242" lon="148.9863606">
  <ele>666.5</ele>
  <time>2026-09-01T20:00:18Z</time>
  <course>17.55</course>
  <speed>16.59</speed>
  <fix>3d</fix>
</trkpt>
<trkpt lat="-35.2756963" lon="148.9863709">
  <ele>666.33</ele>
  <time>2026-09-01T20:00:18Z</time>
  <course>17.12</course>
  <speed>16.275429333814824</speed>
  <fix>3d</fix>
</trkpt>
<trkpt lat="-35.2757242" lon="148.9863606">
  <ele>666.5</ele>
  <time>2026-09-01T20:00:18Z</time>
  <course>17.55</course>
  <speed>16.59</speed>
  <fix>3d</fix>
</trkpt>
<trkpt lat="-35.2756823" lon="148.9863759">
  <ele>666.28</ele>
  <time>2026-09-01T20:00:18Z</time>
  <course>16.65</course>
  <speed>16.128905728535955</speed>
  <fix>3d</fix>
</trkpt>
<trkpt lat="-35.2756958" lon="148.9863713">
  <ele>666.4</ele>
  <time>2026-09-01T20:00:18Z</time>
  <course>16.64</course>
  <speed>16.3</speed>
  <fix>3d</fix>
</trkpt>
<trkpt lat="-35.2756684" lon="148.9863808">
  <ele>666.24</ele>
  <time>2026-09-01T20:00:18Z</time>
  <course>16.16</course>
  <speed>15.983691688718222</speed>
  <fix>3d</fix>
</trkpt>
<trkpt lat="-35.2756958" lon="148.9863713">
  <ele>666.4</ele>
  <time>2026-09-01T20:00:18Z</time>
  <course>16.64</course>
  <speed>16.3</speed>
  <fix>3d</fix>
</trkpt>
<trkpt lat="-35.2756546" lon="148.9863854">
  <ele>666.2</ele>
  <time>2026-09-01T20:00:18Z</time>
  <course>15.65</course>
  <speed>15.84948264139874</speed>
  <fix>3d</fix>
</trkpt>
<trkpt lat="-35.275668" lon="148.9863812">
  <ele>666.31</ele>
  <time>2026-09-01T20:00:18Z</time>
  <course>15.61</course>
  <speed>16.01</speed>
  <fix>3d</fix>
</trkpt>
<trkpt lat="-35.2756408" lon="148.9863899">
  <ele>666.16</ele>
  <time>2026-09-01T20:00:18Z</time>
  <course>15.11</course>
  <speed>15.694843102114783</speed>
  <fix>3d</fix>
</trkpt>
<trkpt lat="-35.275668" lon="148.9863812">
  <ele>666.31</ele>
  <time>2026-09-01T20:00:18Z</time>
  <course>15.61</course>
  <speed>16.01</speed>
  <fix>3d</fix>
</trkpt>
<trkpt lat="-35.2756272" lon="148.9863941">
  <ele>666.13</ele>
  <time>2026-09-01T20:00:18Z</time>
  <course>14.56</course>
  <speed>15.551475814211331</speed>
  <fix>3d</fix>
</trkpt>
<trkpt lat="-35.2756404" lon="148.9863902">
  <ele>666.24</ele>
  <time>2026-09-01T20:00:18Z</time>
  <course>14.5</course>
  <speed>15.72</speed>
  <fix>3d</fix>
</trkpt>
<trkpt lat="-35.2756136" lon="148.9863982">
  <ele>666.1</ele>
  <time>2026-09-01T20:00:18Z</time>
  <course>14.0</course>
  <speed>15.409766383693167</speed>
  <fix>3d</fix>
</trkpt>
<trkpt lat="-35.2756404" lon="148.9863902">
  <ele>666.24</ele>
  <time>2026-09-01T20:00:18Z</time>
  <course>14.5</course>
  <speed>15.72</speed>
  <fix>3d</fix>
</trkpt>
<trkpt lat="-35.2756003" lon="148.9864019">
  <ele>666.08</ele>
  <time>2026-09-01T20:00:18Z</time>
  <course>13.43</course>
  <speed>15.26000327653962</speed>
  <fix>3d</fix>
</trkpt>
<trkpt lat="-35.2756133" lon="148.9863985">
  <ele>666.18</ele>
  <time>2026-09-01T20:00:18Z</time>
  <course>13.32</course>
  <speed>15.42</speed>
  <fix>3d</fix>
</trkpt>
<trkpt lat="-35.2755869" lon="148.9864056">
  <ele>666.06</ele>
  <time>2026-09-01T20:00:18Z</time>
  <course>12.84</course>
  <speed>15.111945606042923</speed>
  <fix>3d</fix>
</trkpt>
<trkpt lat="-35.2756133" lon="148.9863985">
  <ele>666.18</ele>
  <time>2026-09-01T20:00:18Z</time>
  <course>13.32</course>
  <speed>15.42</speed>
  <fix>3d</fix>
</trkpt>
<trkpt lat="-35.2755736" lon="148.986409">
  <ele>666.05</ele>
  <time>2026-09-01T20:00:18Z</time>
  <course>12.24</course>
  <speed>14.965643988816518</speed>
  <fix>3d</fix>
</trkpt>
<trkpt lat="-35.2755865" lon="148.9864059">
  <ele>666.14</ele>
  <time>2026-09-01T20:00:18Z</time>
  <course>12.1</course>
  <speed>15.12</speed>
  <fix>3d</fix>
</trkpt>
<trkpt lat="-35.2755604" lon="148.9864122">
  <ele>666.04</ele>
  <time>2026-09-01T20:00:18Z</time>
  <course>11.64</course>
  <speed>14.81320019442119</speed>
  <fix>3d</fix>
</trkpt>
<trkpt lat="-35.2755865" lon="148.9864059">
  <ele>666.14</ele>
  <time>2026-09-01T20:00:18Z</time>
  <course>12.1</course>
  <speed>15.12</speed>
  <fix>3d</fix>
</trkpt>
<trkpt lat="-35.2755473" lon="148.9864152">
  <ele>666.03</ele>
  <time>2026-09-01T20:00:18Z</time>
  <course>11.02</course>
  <speed>14.660593439557623</speed>
  <fix>3d</fix>
</trkpt>
<trkpt lat="-35.2755602" lon="148.9864124">
  <ele>666.12</ele>
  <time>2026-09-01T20:00:18Z</time>
  <course>10.85</course>
  <speed>14.81</speed>
  <fix>3d</fix>
</trkpt>
<trkpt lat="-35.2755343" lon="148.9864179">
  <ele>666.03</ele>
  <time>2026-09-01T20:00:18Z</time>
  <course>10.4</course>
  <speed>14.509862163370126</speed>
  <fix>3d</fix>
</trkpt>
<trkpt lat="-35.2755602" lon="148.9864124">
  <ele>666.12</ele>
  <time>2026-09-01T20:00:18Z</time>
  <course>10.85</course>
  <speed>14.81</speed>
  <fix>3d</fix>
</trkpt>
<trkpt lat="-35.2755215" lon="148.9864205">
  <ele>666.02</ele>
  <time>2026-09-01T20:00:18Z</time>
  <course>9.78</course>
  <speed>14.362607701946052</speed>
  <fix>3d</fix>
</trkpt>
<trkpt lat="-35.2755343" lon="148.9864182">
  <ele>666.11</ele>
  <time>2026-09-01T20:00:18Z</time>
  <course>9.58</course>
  <speed>14.51</speed>
  <fix>3d</fix>
</trkpt>
<trkpt lat="-35.2755087" lon="148.9864229">
  <ele>666.03</ele>
  <time>2026-09-01T20:00:18Z</time>
  <course>9.14</course>
  <speed>14.207223514818088</speed>
  <fix>3d</fix>
</trkpt>
<trkpt lat="-35.2755343" lon="148.9864182">
  <ele>666.11</ele>
  <time>2026-09-01T20:00:18Z</time>
  <course>9.58</course>
  <speed>14.51</speed>
  <fix>3d</fix>
</trkpt>
<trkpt lat="-35.2754961" lon="148.9864251">
  <ele>666.03</ele>
  <time>2026-09-01T20:00:19Z</time>
  <course>8.51</course>
  <speed>14.053629424458295</speed>
  <fix>3d</fix>
</trkpt>
<trkpt lat="-35.2755088" lon="148.9864231">
  <ele>666.11</ele>
  <time>2026-09-01T20:00:19Z</time>
  <course>8.29</course>
  <speed>14.2</speed>
  <fix>3d</fix>
</trkpt>
<trkpt lat="-35.2754836" lon="148.9864271">
  <ele>666.03</ele>
  <time>2026-09-01T20:00:19Z</time>
  <course>7.87</course>
  <speed>13.903096777337055</speed>
  <fix>3d</fix>
</trkpt>
<trkpt lat="-35.2755088" lon="148.9864231">
  <ele>666.11</ele>
  <time>2026-09-01T20:00:19Z</time>
  <course>8.29</course>
  <speed>14.2</speed>
  <fix>3d</fix>
</trkpt>
<trkpt lat="-35.2754712" lon="148.9864288">
  <ele>666.04</ele>
  <time>2026-09-01T20:00:19Z</time>
  <course>7.24</course>
  <speed>13.754246616954344</speed>
  <fix>3d</fix>
</trkpt>
<trkpt lat="-35.2754838" lon="148.9864272">
  <ele>666.12</ele>
  <time>2026-09-01T20:00:19Z</time>
  <course>7.01</course>
  <speed>13.9</speed>
  <fix>3d</fix>
</trkpt>
<trkpt lat="-35.275459" lon="148.9864304">
  <ele>666.05</ele>
  <time>2026-09-01T20:00:19Z</time>
  <course>6.6</course>
  <speed>13.597183531893654</speed>
  <fix>3d</fix>
</trkpt>
<trkpt lat="-35.2754838" lon="148.9864272">
  <ele>666.12</ele>
  <time>2026-09-01T20:00:19Z</time>
  <course>7.01</course>
  <speed>13.9</speed>
  <fix>3d</fix>
</trkpt>
<trkpt lat="-35.2754469" lon="148.9864319">
  <ele>666.07</ele>
  <time>2026-09-01T20:00:19Z</time>
  <course>5.96</course>
  <speed>13.442775011135163</speed>
  <fix>3d</fix>
</trkpt>
<trkpt lat="-35.2754592" lon="148.9864306">
  <ele>666.14</ele>
  <time>2026-09-01T20:00:19Z</time>
  <course>5.72</course>
  <speed>13.59</speed>
  <fix>3d</fix>
</trkpt>
<trkpt lat="-35.2754349" lon="148.9864331">
  <ele>666.08</ele>
  <time>2026-09-01T20:00:19Z</time>
  <course>5.32</course>
  <speed>13.289973664383238</speed>
  <fix>3d</fix>
</trkpt>
<trkpt lat="-35.2754592" lon="148.9864306">
  <ele>666.14</ele>
  <time>2026-09-01T20:00:19Z</time>
  <course>5.72</course>
  <speed>13.59</speed>
  <fix>3d</fix>
</trkpt>
<trkpt lat="-35.2754231" lon="148.9864341">
  <ele>666.1</ele>
  <time>2026-09-01T20:00:19Z</time>
  <course>4.68</course>
  <speed>13.138835564843637</speed>
  <fix>3d</fix>
</trkpt>
<trkpt lat="-35.2754352" lon="148.9864332">
  <ele>666.17</ele>
  <time>2026-09-01T20:00:19Z</time>
  <course>4.44</course>
  <speed>13.28</speed>
  <fix>3d</fix>
</trkpt>
<trkpt lat="-35.2754114" lon="148.986435">
  <ele>666.12</ele>
  <time>2026-09-01T20:00:19Z</time>
  <course>4.04</course>
  <speed>12.97998459167036</speed>
  <fix>3d</fix>
</trkpt>
<trkpt lat="-35.2754352" lon="148.9864332">
  <ele>666.17</ele>
  <time>2026-09-01T20:00:19Z</time>
  <course>4.44</course>
  <speed>13.28</speed>
  <fix>3d</fix>
</trkpt>
<trkpt lat="-35.2753998" lon="148.9864358">
  <ele>666.14</ele>
  <time>2026-09-01T20:00:19Z</time>
  <course>3.41</course>
  <speed>12.822675227892189</speed>
  <fix>3d</fix>
</trkpt>
<trkpt lat="-35.2754116" lon="148.9864351">
  <ele>666.2</ele>
  <time>2026-09-01T20:00:19Z</time>
  <course>3.17</course>
  <speed>12.97</speed>
  <fix>3d</fix>
</trkpt>
<trkpt lat="-35.2753883" lon="148.9864363">
  <ele>666.16</ele>
  <time>2026-09-01T20:00:19Z</time>
  <course>2.77</course>
  <speed>12.667300422742015</speed>
  <fix>3d</fix>
</trkpt>
<trkpt lat="-35.2754116" lon="148.9864351">
  <ele>666.2</ele>
  <time>2026-09-01T20:00:19Z</time>
  <course>3.17</course>
  <speed>12.97</speed>
  <fix>3d</fix>
</trkpt>
<trkpt lat="-35.275377" lon="148.9864367">
  <ele>666.18</ele>
  <time>2026-09-01T20:00:19Z</time>
  <course>2.14</course>
  <speed>12.513360859497341</speed>
  <fix>3d</fix>
</trkpt>
<trkpt lat="-35.2753886" lon="148.9864364">
  <ele>666.25</ele>
  <time>2026-09-01T20:00:19Z</time>
  <course>1.92</course>
  <speed>12.66</speed>
  <fix>3d</fix>
</trkpt>
<trkpt lat="-35.2753658" lon="148.986437">
  <ele>666.21</ele>
  <time>2026-09-01T20:00:19Z</time>
  <course>1.52</course>
  <speed>12.351036393760646</speed>
  <fix>3d</fix>
</trkpt>
<trkpt lat="-35.2753886" lon="148.9864364">
  <ele>666.25</ele>
  <time>2026-09-01T20:00:19Z</time>
  <course>1.92</course>
  <speed>12.66</speed>
  <fix>3d</fix>
</trkpt>
<trkpt lat="-35.2753548" lon="148.9864371">
  <ele>666.23</ele>
  <time>2026-09-01T20:00:19Z</time>
  <course>0.91</course>
  <speed>12.190036915448616</speed>
  <fix>3d</fix>
</trkpt>
<trkpt lat="-35.2753661" lon="148.986437">
  <ele>666.29</ele>
  <time>2026-09-01T20:00:19Z</time>
  <course>0.7</course>
  <speed>12.34</speed>
  <fix>3d</fix>
</trkpt>
<trkpt lat="-35.275344" lon="148.986437">
  <ele>666.26</ele>
  <time>2026-09-01T20:00:19Z</time>
  <course>0.32</course>
  <speed>12.030336653643571</speed>
  <fix>3d</fix>
</trkpt>
<trkpt lat="-35.2753661" lon="148.986437">
  <ele>666.29</ele>
  <time>2026-09-01T20:00:19Z</time>
  <course>0.7</course>
  <speed>12.34</speed>
  <fix>3d</fix>
</trkpt>
<trkpt lat="-35.2753332" lon="148.9864369">
  <ele>666.29</ele>
  <time>2026-09-01T20:00:19Z</time>
  <course>359.74</course>
  <speed>11.871857478928899</speed>
  <fix>3d</fix>
</trkpt>
<trkpt lat="-35.2753443" lon="148.9864371">
  <ele>666.35</ele>
  <time>2026-09-01T20:00:19Z</time>
  <course>359.5</course>
  <speed>12.03</speed>
  <fix>3d</fix>
</trkpt>
<trkpt lat="-35.2753226" lon="148.9864366">
  <ele>666.33</ele>
  <time>2026-09-01T20:00:19Z</time>
  <course>359.15</course>
  <speed>11.714371515365219</speed>
  <fix>3d</fix>
</trkpt>
<trkpt lat="-35.2753443" lon="148.9864371">
  <ele>666.35</ele>
  <time>2026-09-01T20:00:19Z</time>
  <course>359.5</course>
  <speed>12.03</speed>
  <fix>3d</fix>
</trkpt>
<trkpt lat="-35.2753122" lon="148.9864362">
  <ele>666.36</ele>
  <time>2026-09-01T20:00:19Z</time>
  <course>358.58</course>
  <speed>11.54800848631486</speed>
  <fix>3d</fix>
</trkpt>
<trkpt lat="-35.275323" lon="148.9864366">
  <ele>666.41</ele>
  <time>2026-09-01T20:00:19Z</time>
  <course>358.33</course>
  <speed>11.7</speed>
  <fix>3d</fix>
</trkpt>
<trkpt lat="-35.2753018" lon="148.9864357">
  <ele>666.4</ele>
  <time>2026-09-01T20:00:19Z</time>
  <course>358.01</course>
  <speed>11.382345979630033</speed>
  <fix>3d</fix>
</trkpt>
<trkpt lat="-35.275323" lon="148.9864366">
  <ele>666.41</ele>
  <time>2026-09-01T20:00:19Z</time>
  <course>358.33</course>
  <speed>11.7</speed>
  <fix>3d</fix>
</trkpt>
<trkpt lat="-35.2752916" lon="148.986435">
  <ele>666.44</ele>
  <time>2026-09-01T20:00:19Z</time>
  <course>357.46</course>
  <speed>11.207720553261488</speed>
  <fix>3d</fix>
</trkpt>
<trkpt lat="-35.2753023" lon="148.9864356">
  <ele>666.48</ele>
  <time>2026-09-01T20:00:19Z</time>
  <course>357.2</course>
  <speed>11.37</speed>
  <fix>3d</fix>
</trkpt>
<trkpt lat="-35.2752817" lon="148.9864343">
  <ele>666.47</ele>
  <time>2026-09-01T20:00:19Z</time>
  <course>356.92</course>
  <speed>11.04415229884123</speed>
  <fix>3d</fix>
</trkpt>
<trkpt lat="-35.2753023" lon="148.9864356">
  <ele>666.48</ele>
  <time>2026-09-01T20:00:19Z</time>
  <course>357.2</course>
  <speed>11.37</speed>
  <fix>3d</fix>
</trkpt>
<trkpt lat="-35.2752718" lon="148.9864334">
  <ele>666.51</ele>
  <time>2026-09-01T20:00:19Z</time>
  <course>356.38</course>
  <speed>10.870220788926046</speed>
  <fix>3d</fix>
</trkpt>
<trkpt lat="-35.2752822" lon="148.9864342">
  <ele>666.55</ele>
  <time>2026-09-01T20:00:19Z</time>
  <course>356.11</course>
  <speed>11.04</speed>
  <fix>3d</fix>
</trkpt>
<trkpt lat="-35.2752622" lon="148.9864324">
  <ele>666.55</ele>
  <time>2026-09-01T20:00:19Z</time>
  <course>355.86</course>
  <speed>10.697925032453723</speed>
  <fix>3d</fix>
</trkpt>
<trkpt lat="-35.2752822" lon="148.9864342">
  <ele>666.55</ele>
  <time>2026-09-01T20:00:19Z</time>
  <course>356.11</course>
  <speed>11.04</speed>
  <fix>3d</fix>
</trkpt>
<trkpt lat="-35.2752527" lon="148.9864314">
  <ele>666.6</ele>
  <time>2026-09-01T20:00:19Z</time>
  <course>355.35</course>
  <speed>10.524794534811594</speed>
  <fix>3d</fix>
</trkpt>
<trkpt lat="-35.2752627" lon="148.9864323">
  <ele>666.63</ele>
  <time>2026-09-01T20:00:19Z</time>
  <course>355.06</course>
  <speed>10.7</speed>
  <fix>3d</fix>
</trkpt>
<trkpt lat="-35.2752433" lon="148.9864303">
  <ele>666.64</ele>
  <time>2026-09-01T20:00:19Z</time>
  <course>354.85</course>
  <speed>10.343432699060791</speed>
  <fix>3d</fix>
</trkpt>
<trkpt lat="-35.2752627" lon="148.9864323">
  <ele>666.63</ele>
  <time>2026-09-01T20:00:19Z</time>
  <course>355.06</course>
  <speed>10.7</speed>
  <fix>3d</fix>
</trkpt>
<trkpt lat="-35.2752342" lon="148.986429">
  <ele>666.68</ele>
  <time>2026-09-01T20:00:19Z</time>
  <course>354.36</course>
  <speed>10.170752184573175</speed>
  <fix>3d</fix>
</trkpt>
<trkpt lat="-35.2752438" lon="148.9864301">
  <ele>666.71</ele>
  <time>2026-09-01T20:00:19Z</time>
  <course>354.06</course>
  <speed>10.35</speed>
  <fix>3d</fix>
</trkpt>
<trkpt lat="-35.2752252" lon="148.9864278">
  <ele>666.72</ele>
  <time>2026-09-01T20:00:19Z</time>
  <course>353.88</course>
  <speed>9.989934934723049</speed>
  <fix>3d</fix>
</trkpt>
<trkpt lat="-35.2752438" lon="148.9864301">
  <ele>666.71</ele>
  <time>2026-09-01T20:00:19Z</time>
  <course>354.06</course>
  <speed>10.35</speed>
  <fix>3d</fix>
</trkpt>
<trkpt lat="-35.2752163" lon="148.9864264">
  <ele>666.76</ele>
  <time>2026-09-01T20:00:19Z</time>
  <course>353.41</course>
  <speed>9.817357078154997</speed>
  <fix>3d</fix>
</trkpt>
<trkpt lat="-35.2752256" lon="148.9864276">
  <ele>666.8</ele>
  <time>2026-09-01T20:00:19Z</time>
  <course>353.1</course>
  <speed>9.99</speed>
  <fix>3d</fix>
</trkpt>
<trkpt lat="-35.2752076" lon="148.986425">
  <ele>666.8</ele>
  <time>2026-09-01T20:00:19Z</time>
  <course>352.95</course>
  <speed>9.636731811148424</speed>
  <fix>3d</fix>
</trkpt>
<trkpt lat="-35.2752256" lon="148.9864276">
  <ele>666.8</ele>
  <time>2026-09-01T20:00:19Z</time>
  <course>353.1</course>
  <speed>9.99</speed>
  <fix>3d</fix>
</trkpt>
<trkpt lat="-35.2751991" lon="148.9864235">
  <ele>666.84</ele>
  <time>2026-09-01T20:00:19Z</time>
  <course>352.51</course>
  <speed>9.454020308842159</speed>
  <fix>3d</fix>
</trkpt>
<trkpt lat="-35.2752081" lon="148.9864249">
  <ele>666.88</ele>
  <time>2026-09-01T20:00:19Z</time>
  <course>352.19</course>
  <speed>9.64</speed>
  <fix>3d</fix>
</trkpt>
<trkpt lat="-35.2751908" lon="148.986422">
  <ele>666.88</ele>
  <time>2026-09-01T20:00:19Z</time>
  <course>352.08</course>
  <speed>9.27177437171548</speed>
  <fix>3d</fix>
</trkpt>
<trkpt lat="-35.2752081" lon="148.9864249">
  <ele>666.88</ele>
  <time>2026-09-01T20:00:19Z</time>
  <course>352.19</course>
  <speed>9.64</speed>
  <fix>3d</fix>
</trkpt>
<trkpt lat="-35.2751827" lon="148.9864205">
  <ele>666.92</ele>
  <time>2026-09-01T20:00:19Z</time>
  <course>351.66</course>
  <speed>9.080143170677431</speed>
  <fix>3d</fix>
</trkpt>
<trkpt lat="-35.2751913" lon="148.9864219">
  <ele>666.95</ele>
  <time>2026-09-01T20:00:19Z</time>
  <course>351.33</course>
  <speed>9.28</speed>
  <fix>3d</fix>
</trkpt>
<trkpt lat="-35.2751748" lon="148.9864189">
  <ele>666.95</ele>
  <time>2026-09-01T20:00:19Z</time>
  <course>351.25</course>
  <speed>8.897302962134086</speed>
  <fix>3d</fix>
</trkpt>
<trkpt lat="-35.2751913" lon="148.9864219">
  <ele>666.95</ele>
  <time>2026-09-01T20:00:19Z</time>
  <course>351.33</course>
  <speed>9.28</speed>
  <fix>3d</fix>
</trkpt>
<trkpt lat="-35.275167" lon="148.9864172">
  <ele>666.99</ele>
  <time>2026-09-01T20:00:19Z</time>
  <course>350.86</course>
  <speed>8.714872345594053</speed>
  <fix>3d</fix>
</trkpt>
<trkpt lat="-35.2751752" lon="148.9864188">
  <ele>667.03</ele>
  <time>2026-09-01T20:00:19Z</time>
  <course>350.51</course>
  <speed>8.92</speed>
  <fix>3d</fix>
</trkpt>
<trkpt lat="-35.2751594" lon="148.9864156">
  <ele>667.02</ele>
  <time>2026-09-01T20:00:19Z</time>
  <course>350.47</course>
  <speed>8.532877591996735</speed>
  <fix>3d</fix>
</trkpt>
<trkpt lat="-35.2751752" lon="148.9864188">
  <ele>667.03</ele>
  <time>2026-09-01T20:00:19Z</time>
  <course>350.51</course>
  <speed>8.92</speed>
  <fix>3d</fix>
</trkpt>
<trkpt lat="-35.2751521" lon="148.9864139">
  <ele>667.05</ele>
  <time>2026-09-01T20:00:19Z</time>
  <course>350.1</course>
  <speed>8.349520944341657</speed>
  <fix>3d</fix>
</trkpt>
<trkpt lat="-35.2751597" lon="148.9864155">
  <ele>667.1</ele>
  <time>2026-09-01T20:00:19Z</time>
  <course>349.74</course>
  <speed>8.55</speed>
  <fix>3d</fix>
</trkpt>
<trkpt lat="-35.2751448" lon="148.9864123">
  <ele>667.08</ele>
  <time>2026-09-01T20:00:19Z</time>
  <course>349.74</course>
  <speed>8.164637162789292</speed>
  <fix>3d</fix>
</trkpt>
<trkpt lat="-35.2751597" lon="148.9864155">
  <ele>667.1</ele>
  <time>2026-09-01T20:00:19Z</time>
  <course>349.74</course>
  <speed>8.55</speed>
  <fix>3d</fix>
</trkpt>
<trkpt lat="-35.2751377" lon="148.9864106">
  <ele>667.1</ele>
  <time>2026-09-01T20:00:19Z</time>
  <course>349.38</course>
  <speed>7.970194476924638</speed>
  <fix>3d</fix>
</trkpt>
<trkpt lat="-35.2751449" lon="148.9864121">
  <ele>667.15</ele>
  <time>2026-09-01T20:00:19Z</time>
  <course>349.02</course>
  <speed>8.19</speed>
  <fix>3d</fix>
</trkpt>
<trkpt lat="-35.2751308" lon="148.9864088">
  <ele>667.13</ele>
  <time>2026-09-01T20:00:19Z</time>
  <course>349.04</course>
  <speed>7.795646220808124</speed>
  <fix>3d</fix>
</trkpt>
<trkpt lat="-35.2751449" lon="148.9864121">
  <ele>667.15</ele>
  <time>2026-09-01T20:00:19Z</time>
  <course>349.02</course>
  <speed>8.19</speed>
  <fix>3d</fix>
</trkpt>
<trkpt lat="-35.275124" lon="148.9864071">
  <ele>667.15</ele>
  <time>2026-09-01T20:00:19Z</time>
  <course>348.7</course>
  <speed>7.611576709197642</speed>
  <fix>3d</fix>
</trkpt>
<trkpt lat="-35.2751308" lon="148.9864086">
  <ele>667.19</ele>
  <time>2026-09-01T20:00:19Z</time>
  <course>348.34</course>
  <speed>7.83</speed>
  <fix>3d</fix>
</trkpt>
<trkpt lat="-35.2751174" lon="148.9864054">
  <ele>667.16</ele>
  <time>2026-09-01T20:00:19Z</time>
  <course>348.37</course>
  <speed>7.425712087066128</speed>
  <fix>3d</fix>
</trkpt>
<trkpt lat="-35.2751308" lon="148.9864086">
  <ele>667.19</ele>
  <time>2026-09-01T20:00:19Z</time>
  <course>348.34</course>
  <speed>7.83</speed>
  <fix>3d</fix>
</trkpt>
<trkpt lat="-35.275111" lon="148.9864036">
  <ele>667.17</ele>
  <time>2026-09-01T20:00:19Z</time>
  <course>348.04</course>
  <speed>7.2400621544293395</speed>
  <fix>3d</fix>
</trkpt>
<trkpt lat="-35.2751174" lon="148.9864051">
  <ele>667.23</ele>
  <time>2026-09-01T20:00:19Z</time>
  <course>347.7</course>
  <speed>7.46</speed>
  <fix>3d</fix>
</trkpt>
<trkpt lat="-35.2751047" lon="148.9864019">
  <ele>667.17</ele>
  <time>2026-09-01T20:00:19Z</time>
  <course>347.73</course>
  <speed>7.052439294315124</speed>
  <fix>3d</fix>
</trkpt>
<trkpt lat="-35.2751174" lon="148.9864051">
  <ele>667.23</ele>
  <time>2026-09-01T20:00:19Z</time>
  <course>347.7</course>
  <speed>7.46</speed>
  <fix>3d</fix>
</trkpt>
<trkpt lat="-35.2750986" lon="148.9864002">
  <ele>667.17</ele>
  <time>2026-09-01T20:00:19Z</time>
  <course>347.43</course>
  <speed>6.864961762457239</speed>
  <fix>3d</fix>
</trkpt>
<trkpt lat="-35.2751046" lon="148.9864016">
  <ele>667.25</ele>
  <time>2026-09-01T20:00:19Z</time>
  <course>347.13</course>
  <speed>7.1</speed>
  <fix>3d</fix>
</trkpt>
<trkpt lat="-35.2750927" lon="148.9863985">
  <ele>667.12</ele>
  <time>2026-09-01T20:00:19Z</time>
  <course>347.13</course>
  <speed>6.651345728497354</speed>
  <fix>3d</fix>
</trkpt>
<trkpt lat="-35.2751046" lon="148.9864016">
  <ele>667.25</ele>
  <time>2026-09-01T20:00:19Z</time>
  <course>347.13</course>
  <speed>7.1</speed>
  <fix>3d</fix>
</trkpt>
<trkpt lat="-35.275087" lon="148.9863968">
  <ele>667.0</ele>
  <time>2026-09-01T20:00:19Z</time>
  <course>346.86</course>
  <speed>6.3747705841073214</speed>
  <fix>3d</fix>
</trkpt>
<trkpt lat="-35.2750925" lon="148.9863982">
  <ele>667.16</ele>
  <time>2026-09-01T20:00:19Z</time>
  <course>346.79</course>
  <speed>6.67</speed>
  <fix>3d</fix>
</trkpt>
<trkpt lat="-35.2750815" lon="148.9863952">
  <ele>666.8</ele>
  <time>2026-09-01T20:00:19Z</time>
  <course>346.6</course>
  <speed>6.027752483305863</speed>
  <fix>3d</fix>
</trkpt>
<trkpt lat="-35.2750925" lon="148.9863982">
  <ele>667.16</ele>
  <time>2026-09-01T20:00:19Z</time>
  <course>346.79</course>
  <speed>6.67</speed>
  <fix>3d</fix>
</trkpt>
<trkpt lat="-35.2750764" lon="148.9863937">
  <ele>666.54</ele>
  <time>2026-09-01T20:00:19Z</time>
  <course>346.38</course>
  <speed>5.5908586102673</speed>
  <fix>3d</fix>
</trkpt>
<trkpt lat="-35.2750814" lon="148.9863949">
  <ele>666.85</ele>
  <time>2026-09-01T20:00:19Z</time>
  <course>346.62</course>
  <speed>6.03</speed>
  <fix>3d</fix>
</trkpt>
<trkpt lat="-35.2750718" lon="148.9863923">
  <ele>666.24</ele>
  <time>2026-09-01T20:00:19Z</time>
  <course>346.2</course>
  <speed>5.081308886497651</speed>
  <fix>3d</fix>
</trkpt>
<trkpt lat="-35.2750814" lon="148.9863949">
  <ele>666.85</ele>
  <time>2026-09-01T20:00:19Z</time>
  <course>346.62</course>
  <speed>6.03</speed>
  <fix>3d</fix>
</trkpt>
<trkpt lat="-35.2750676" lon="148.9863911">
  <ele>665.91</ele>
  <time>2026-09-01T20:00:19Z</time>
  <course>346.06</course>
  <speed>4.533001213324347</speed>
  <fix>3d</fix>
</trkpt>
<trkpt lat="-35.2750716" lon="148.9863921">
  <ele>666.32</ele>
  <time>2026-09-01T20:00:19Z</time>
  <course>346.27</course>
  <speed>5.11</speed>
  <fix>3d</fix>
</trkpt>
<trkpt lat="-35.2750638" lon="148.9863899">
  <ele>665.56</ele>
  <time>2026-09-01T20:00:19Z</time>
  <course>345.95</course>
  <speed>3.972769814625559</speed>
  <fix>3d</fix>
</trkpt>
<trkpt lat="-35.2750716" lon="148.9863921">
  <ele>666.32</ele>
  <time>2026-09-01T20:00:19Z</time>
  <course>346.27</course>
  <speed>5.11</speed>
  <fix>3d</fix>
</trkpt>
<trkpt lat="-35.2750606" lon="148.9863888">
  <ele>665.2</ele>
  <time>2026-09-01T20:00:19Z</time>
  <course>345.82</course>
  <speed>3.4153184331772053</speed>
  <fix>3d</fix>
</trkpt>
<trkpt lat="-35.2750635" lon="148.9863897">
  <ele>665.66</ele>
  <time>2026-09-01T20:00:19Z</time>
  <course>345.52</course>
  <speed>4.03</speed>
  <fix>3d</fix>
</trkpt>
<trkpt lat="-35.2750579" lon="148.9863879">
  <ele>664.84</ele>
  <time>2026-09-01T20:00:19Z</time>
  <course>345.68</course>
  <speed>2.8804513535208334</speed>
  <fix>3d</fix>
</trkpt>
<trkpt lat="-35.2750635" lon="148.9863897">
  <ele>665.66</ele>
  <time>2026-09-01T20:00:19Z</time>
  <course>345.52</course>
  <speed>4.03</speed>
  <fix>3d</fix>
</trkpt>
<trkpt lat="-35.2750556" lon="148.986387">
  <ele>664.49</ele>
  <time>2026-09-01T20:00:19Z</time>
  <course>345.52</course>
  <speed>2.3879907872519106</speed>
  <fix>3d</fix>
</trkpt>
<trkpt lat="-35.2750575" lon="148.9863877">
  <ele>664.95</ele>
  <time>2026-09-01T20:00:19Z</time>
  <course>344.04</course>
  <speed>2.96</speed>
  <fix>3d</fix>
</trkpt>
<trkpt lat="-35.2750537" lon="148.9863863">
  <ele>664.15</ele>
  <time>2026-09-01T20:00:19Z</time>
  <course>345.33</course>
  <speed>1.9448650338776725</speed>
  <fix>3d</fix>
</trkpt>
<trkpt lat="-35.2750575" lon="148.9863877">
  <ele>664.95</ele>
  <time>2026-09-01T20:00:19Z</time>
  <course>344.04</course>
  <speed>2.96</speed>
  <fix>3d</fix>
</trkpt>
<trkpt lat="-35.2750522" lon="148.9863856">
  <ele>663.82</ele>
  <time>2026-09-01T20:00:19Z</time>
  <course>345.11</course>
  <speed>1.5580115532305914</speed>
  <fix>3d</fix>
</trkpt>
<trkpt lat="-35.2750532" lon="148.986386">
  <ele>664.27</ele>
  <time>2026-09-01T20:00:19Z</time>
  <course>341.19</course>
  <speed>2.03</speed>
  <fix>3d</fix>
</trkpt>
<trkpt lat="-35.275051" lon="148.986385">
  <ele>663.52</ele>
  <time>2026-09-01T20:00:19Z</time>
  <course>344.88</course>
  <speed>1.2348279232346504</speed>
  <fix>3d</fix>
</trkpt>
<trkpt lat="-35.2750532" lon="148.986386">
  <ele>664.27</ele>
  <time>2026-09-01T20:00:19Z</time>
  <course>341.19</course>
  <speed>2.03</speed>
  <fix>3d</fix>
</trkpt>
<trkpt lat="-35.27505" lon="148.9863844">
  <ele>663.23</ele>
  <time>2026-09-01T20:00:19Z</time>
  <course>344.65</course>
  <speed>0.9538343671728335</speed>
  <fix>3d</fix>
</trkpt>
<trkpt lat="-35.2750505" lon="148.9863847">
  <ele>663.65</ele>
  <time>2026-09-01T20:00:19Z</time>
  <course>335.69</course>
  <speed>1.3</speed>
  <fix>3d</fix>
</trkpt>
<trkpt lat="-35.2750494" lon="148.9863839">
  <ele>662.96</ele>
  <time>2026-09-01T20:00:19Z</time>
  <course>344.43</course>
  <speed>0.7360027173862879</speed>
  <fix>3d</fix>
</trkpt>
<trkpt lat="-35.2750505" lon="148.9863847">
  <ele>663.65</ele>
  <time>2026-09-01T20:00:19Z</time>
  <course>335.69</course>
  <speed>1.3</speed>
  <fix>3d</fix>
</trkpt>
<trkpt lat="-35.2750489" lon="148.9863834">
  <ele>662.71</ele>
  <time>2026-09-01T20:00:19Z</time>
  <course>344.26</course>
  <speed>0.58</speed>
  <fix>3d</fix>
</trkpt>
<trkpt lat="-35.2750489" lon="148.9863837">
  <ele>663.1</ele>
  <time>2026-09-01T20:00:19Z</time>
  <course>324.86</course>
  <speed>0.8</speed>
  <fix>3d</fix>
</trkpt>
<trkpt lat="-35.2750485" lon="148.9863829">
  <ele>662.48</ele>
  <time>2026-09-01T20:00:19Z</time>
  <course>344.16</course>
  <speed>0.4854894437575342</speed>
  <fix>3d</fix>
</trkpt>
<trkpt lat="-35.2750489" lon="148.9863837">
  <ele>663.1</ele>
  <time>2026-09-01T20:00:19Z</time>
  <course>324.86</course>
  <speed>0.8</speed>
  <fix>3d</fix>
</trkpt>
<trkpt lat="-35.2750483" lon="148.9863824">
  <ele>662.26</ele>
  <time>2026-09-01T20:00:19Z</time>
  <course>344.16</course>
  <speed>0.42720018726587655</speed>
  <fix>3d</fix>
</trkpt>
<trkpt lat="-35.275048" lon="148.9863826">
  <ele>662.63</ele>
  <time>2026-09-01T20:00:19Z</time>
  <course>306.01</course>
  <speed>0.52</speed>
  <fix>3d</fix>
</trkpt>
<trkpt lat="-35.2750481" lon="148.986382">
  <ele>662.06</ele>
  <time>2026-09-01T20:00:19Z</time>
  <course>344.26</course>
  <speed>0.40607881008493907</speed>
  <fix>3d</fix>
</trkpt>
<trkpt lat="-35.275048" lon="148.9863826">
  <ele>662.63</ele>
  <time>2026-09-01T20:00:19Z</time>
  <course>306.01</course>
  <speed>0.52</speed>
  <fix>3d</fix>
</trkpt>
<trkpt lat="-35.2750481" lon="148.9863815">
  <ele>661.87</ele>
  <time>2026-09-01T20:00:19Z</time>
  <course>344.47</course>
  <speed>0.39</speed>
  <fix>3d</fix>
</trkpt>
<trkpt lat="-35.2750477" lon="148.9863817">
  <ele>662.21</ele>
  <time>2026-09-01T20:00:19Z</time>
  <course>284.33</course>
  <speed>0.43</speed>
  <fix>3d</fix>
</trkpt>
<trkpt lat="-35.275048" lon="148.986381">
  <ele>661.7</ele>
  <time>2026-09-01T20:00:19Z</time>
  <course>344.75</course>
  <speed>0.3920459156782532</speed>
  <fix>3d</fix>
</trkpt>
<trkpt lat="-35.2750477" lon="148.9863817">
  <ele>662.21</ele>
  <time>2026-09-01T20:00:19Z</time>
  <course>284.33</course>
  <speed>0.43</speed>
  <fix>3d</fix>
</trkpt>
<trkpt lat="-35.2750481" lon="148.9863806">
  <ele>661.53</ele>
  <time>2026-09-01T20:00:19Z</time>
  <course>345.07</course>
  <speed>0.388329756778952</speed>
  <fix>3d</fix>
</trkpt>
<trkpt lat="-35.2750476" lon="148.9863808">
  <ele>661.85</ele>
  <time>2026-09-01T20:00:19Z</time>
  <course>267.79</course>
  <speed>0.4</speed>
  <fix>3d</fix>
</trkpt>
<trkpt lat="-35.2750481" lon="148.9863802">
  <ele>661.36</ele>
  <time>2026-09-01T20:00:19Z</time>
  <course>345.4</course>
  <speed>0.38600518131237566</speed>
  <fix>3d</fix>
</trkpt>
<trkpt lat="-35.2750476" lon="148.9863808">
  <ele>661.85</ele>
  <time>2026-09-01T20:00:19Z</time>
  <course>267.79</course>
  <speed>0.4</speed>
  <fix>3d</fix>
</trkpt>
<trkpt lat="-35.2750482" lon="148.9863797">
  <ele>661.2</ele>
  <time>2026-09-01T20:00:19Z</time>
  <course>345.7</course>
  <speed>0.3769615364994153</speed>
  <fix>3d</fix>
</trkpt>
<trkpt lat="-35.2750476" lon="148.9863799">
  <ele>661.52</ele>
  <time>2026-09-01T20:00:19Z</time>
  <course>256.62</course>
  <speed>0.4</speed>
  <fix>3d</fix>
</trkpt>
<trkpt lat="-35.2750482" lon="148.9863793">
  <ele>661.04</ele>
  <time>2026-09-01T20:00:19Z</time>
  <course>345.93</course>
  <speed>0.3716180835212409</speed>
  <fix>3d</fix>
</trkpt>
<trkpt lat="-35.2750476" lon="148.9863799">
  <ele>661.52</ele>
  <time>2026-09-01T20:00:19Z</time>
  <course>256.62</course>
  <speed>0.4</speed>
  <fix>3d</fix>
</trkpt>
<trkpt lat="-35.2750483" lon="148.9863789">
  <ele>660.88</ele>
  <time>2026-09-01T20:00:19Z</time>
  <course>346.08</course>
  <speed>0.35777087639996635</speed>
  <fix>3d</fix>
</trkpt>
<trkpt lat="-35.2750478" lon="148.9863791">
  <ele>661.19</ele>
  <time>2026-09-01T20:00:19Z</time>
  <course>249.3</course>
  <speed>0.39</speed>
  <fix>3d</fix>
</trkpt>
<trkpt lat="-35.2750484" lon="148.9863786">
  <ele>660.72</ele>
  <time>2026-09-01T20:00:19Z</time>
  <course>346.13</course>
  <speed>0.34481879299133333</speed>
  <fix>3d</fix>
</trkpt>
<trkpt lat="-35.2750478" lon="148.9863791">
  <ele>661.19</ele>
  <time>2026-09-01T20:00:19Z</time>
  <course>249.3</course>
  <speed>0.39</speed>
  <fix>3d</fix>
</trkpt>
<trkpt lat="-35.2750485" lon="148.9863782">
  <ele>660.55</ele>
  <time>2026-09-01T20:00:19Z</time>
  <course>346.09</course>
  <speed>0.32249030993194194</speed>
  <fix>3d</fix>
</trkpt>
<trkpt lat="-35.2750481" lon="148.9863783">
  <ele>660.87</ele>
  <time>2026-09-01T20:00:19Z</time>
  <course>245.01</course>
  <speed>0.36</speed>
  <fix>3d</fix>
</trkpt>
<trkpt lat="-35.2750486" lon="148.9863779">
  <ele>660.38</ele>
  <time>2026-09-01T20:00:19Z</time>
  <course>345.96</course>
  <speed>0.30016662039607267</speed>
  <fix>3d</fix>
</trkpt>
<trkpt lat="-35.2750481" lon="148.9863783">
  <ele>660.87</ele>
  <time>2026-09-01T20:00:19Z</time>
  <course>245.01</course>
  <speed>0.36</speed>
  <fix>3d</fix>
</trkpt>
<trkpt lat="-35.2750487" lon="148.9863776">
  <ele>660.21</ele>
  <time>2026-09-01T20:00:19Z</time>
  <course>345.78</course>
  <speed>0.2692582403567252</speed>
  <fix>3d</fix>
</trkpt>
<trkpt lat="-35.2750484" lon="148.9863777">
  <ele>660.53</ele>
  <time>2026-09-01T20:00:19Z</time>
  <course>243.49</course>
  <speed>0.32</speed>
  <fix>3d</fix>
</trkpt>
<trkpt lat="-35.2750488" lon="148.9863773">
  <ele>660.03</ele>
  <time>2026-09-01T20:00:19Z</time>
  <course>345.59</course>
  <speed>0.24186773244895649</speed>
  <fix>3d</fix>
</trkpt>
<trkpt lat="-35.2750484" lon="148.9863777">
  <ele>660.53</ele>
  <time>2026-09-01T20:00:19Z</time>
  <course>243.49</course>
  <speed>0.32</speed>
  <fix>3d</fix>
</trkpt>
<trkpt lat="-35.2750489" lon="148.9863771">
  <ele>659.85</ele>
  <time>2026-09-01T20:00:19Z</time>
  <course>345.44</course>
  <speed>0.21470910553583888</speed>
  <fix>3d</fix>
</trkpt>
<trkpt lat="-35.2750486" lon="148.986377">
  <ele>660.18</ele>
  <time>2026-09-01T20:00:19Z</time>
  <course>245.34</course>
  <speed>0.27</speed>
  <fix>3d</fix>
</trkpt>
<trkpt lat="-35.275049" lon="148.9863768">
  <ele>659.68</ele>
  <time>2026-09-01T20:00:19Z</time>
  <course>345.39</course>
  <speed>0.19313207915827968</speed>
  <fix>3d</fix>
</trkpt>
<trkpt lat="-35.2750486" lon="148.986377">
  <ele>660.18</ele>
  <time>2026-09-01T20:00:19Z</time>
  <course>245.34</course>
  <speed>0.27</speed>
  <fix>3d</fix>
</trkpt>
<trkpt lat="-35.275049" lon="148.9863766">
  <ele>659.51</ele>
  <time>2026-09-01T20:00:19Z</time>
  <course>345.47</course>
  <speed>0.1649242250247064</speed>
  <fix>3d</fix>
</trkpt>
<trkpt lat="-35.2750488" lon="148.9863765">
  <ele>659.83</ele>
  <time>2026-09-01T20:00:19Z</time>
  <course>252.52</course>
  <speed>0.22</speed>
  <fix>3d</fix>
</trkpt>
<trkpt lat="-35.275049" lon="148.9863764">
  <ele>659.34</ele>
  <time>2026-09-01T20:00:19Z</time>
  <course>345.71</course>
  <speed>0.16031219541881397</speed>
  <fix>3d</fix>
</trkpt>
<trkpt lat="-35.2750488" lon="148.9863765">
  <ele>659.83</ele>
  <time>2026-09-01T20:00:19Z</time>
  <course>252.52</course>
  <speed>0.22</speed>
  <fix>3d</fix>
</trkpt>
<trkpt lat="-35.275049" lon="148.9863762">
  <ele>659.19</ele>
  <time>2026-09-01T20:00:19Z</time>
  <course>346.13</course>
  <speed>0.15033296378372907</speed>
  <fix>3d</fix>
</trkpt>
<trkpt lat="-35.2750489" lon="148.986376">
  <ele>659.5</ele>
  <time>2026-09-01T20:00:19Z</time>
  <course>267.23</course>
  <speed>0.19</speed>
  <fix>3d</fix>
</trkpt>
<trkpt lat="-35.2750489" lon="148.986376">
  <ele>659.05</ele>
  <time>2026-09-01T20:00:19Z</time>
  <course>346.68</course>
  <speed>0.1676305461424021</speed>
  <fix>3d</fix>
</trkpt>
<trkpt lat="-35.2750489" lon="148.986376">
  <ele>659.5</ele>
  <time>2026-09-01T20:00:19Z</time>
  <course>267.23</course>
  <speed>0.19</speed>
  <fix>3d</fix>
</trkpt>
<trkpt lat="-35.2750489" lon="148.9863758">
  <ele>658.93</ele>
  <time>2026-09-01T20:00:19Z</time>
  <course>347.31</course>
  <speed>0.19235384061671343</speed>
  <fix>3d</fix>
</trkpt>
<trkpt lat="-35.2750488" lon="148.9863757">
  <ele>659.21</ele>
  <time>2026-09-01T20:00:19Z</time>
  <course>286.35</course>
  <speed>0.21</speed>
  <fix>3d</fix>
</trkpt>
<trkpt lat="-35.2750487" lon="148.9863755">
  <ele>658.83</ele>
  <time>2026-09-01T20:00:19Z</time>
  <course>347.94</course>
  <speed>0.2220360331117452</speed>
  <fix>3d</fix>
</trkpt>
<trkpt lat="-35.2750488" lon="148.9863757">
  <ele>659.21</ele>
  <time>2026-09-01T20:00:19Z</time>
  <course>286.35</course>
  <speed>0.21</speed>
  <fix>3d</fix>
</trkpt>
<trkpt lat="-35.2750487" lon="148.9863753">
  <ele>658.74</ele>
  <time>2026-09-01T20:00:19Z</time>
  <course>348.5</course>
  <speed>0.25495097567963926</speed>
  <fix>3d</fix>
</trkpt>
<trkpt lat="-35.2750487" lon="148.9863752">
  <ele>658.98</ele>
  <time>2026-09-01T20:00:19Z</time>
  <course>302.36</course>
  <speed>0.26</speed>
  <fix>3d</fix>
</trkpt>
<trkpt lat="-35.2750485" lon="148.986375">
  <ele>658.67</ele>
  <time>2026-09-01T20:00:19Z</time>
  <course>348.93</course>
  <speed>0.2973213749463701</speed>
  <fix>3d</fix>
</trkpt>
<trkpt lat="-35.2750487" lon="148.9863752">
  <ele>658.98</ele>
  <time>2026-09-01T20:00:19Z</time>
  <course>302.36</course>
  <speed>0.26</speed>
  <fix>3d</fix>
</trkpt>
<trkpt lat="-35.2750482" lon="148.9863748">
  <ele>658.62</ele>
  <time>2026-09-01T20:00:19Z</time>
  <course>349.2</course>
  <speed>0.34828149534535996</speed>
  <fix>3d</fix>
</trkpt>
<trkpt lat="-35.2750484" lon="148.9863747">
  <ele>658.83</ele>
  <time>2026-09-01T20:00:19Z</time>
  <course>313.2</course>
  <speed>0.34</speed>
  <fix>3d</fix>
</trkpt>
<trkpt lat="-35.275048" lon="148.9863745">
  <ele>658.59</ele>
  <time>2026-09-01T20:00:19Z</time>
  <course>349.33</course>
  <speed>0.4022437072223753</speed>
  <fix>3d</fix>
</trkpt>
<trkpt lat="-35.2750484" lon="148.9863747">
  <ele>658.83</ele>
  <time>2026-09-01T20:00:19Z</time>
  <course>313.2</course>
  <speed>0.34</speed>
  <fix>3d</fix>
</trkpt>
<trkpt lat="-35.2750476" lon="148.9863741">
  <ele>658.58</ele>
  <time>2026-09-01T20:00:19Z</time>
  <course>349.33</course>
  <speed>0.45486261662176636</speed>
  <fix>3d</fix>
</trkpt>
<trkpt lat="-35.2750479" lon="148.986374">
  <ele>658.74</ele>
  <time>2026-09-01T20:00:19Z</time>
  <course>320.38</course>
  <speed>0.43</speed>
  <fix>3d</fix>
</trkpt>
<trkpt lat="-35.2750472" lon="148.9863738">
  <ele>658.57</ele>
  <time>2026-09-01T20:00:19Z</time>
  <course>349.24</course>
  <speed>0.5162363799656123</speed>
  <fix>3d</fix>
</trkpt>
<trkpt lat="-35.2750479" lon="148.986374">
  <ele>658.74</ele>
  <time>2026-09-01T20:00:19Z</time>
  <course>320.38</course>
  <speed>0.43</speed>
  <fix>3d</fix>
</trkpt>
<trkpt lat="-35.2750468" lon="148.9863735">
  <ele>658.58</ele>
  <time>2026-09-01T20:00:19Z</time>
  <course>349.1</course>
  <speed>0.5730619512757761</speed>
  <fix>3d</fix>
</trkpt>
<trkpt lat="-35.2750472" lon="148.9863734">
  <ele>658.72</ele>
  <time>2026-09-01T20:00:19Z</time>
  <course>325.26</course>
  <speed>0.54</speed>
  <fix>3d</fix>
</trkpt>
<trkpt lat="-35.2750463" lon="148.9863731">
  <ele>658.6</ele>
  <time>2026-09-01T20:00:19Z</time>
  <course>348.95</course>
  <speed>0.6264982043070834</speed>
  <fix>3d</fix>
</trkpt>
<trkpt lat="-35.2750472" lon="148.9863734">
  <ele>658.72</ele>
  <time>2026-09-01T20:00:19Z</time>
  <course>325.26</course>
  <speed>0.54</speed>
  <fix>3d</fix>
</trkpt>
<trkpt lat="-35.2750458" lon="148.9863727">
  <ele>658.62</ele>
  <time>2026-09-01T20:00:19Z</time>
  <course>348.81</course>
  <speed>0.6842514157822401</speed>
  <fix>3d</fix>
</trkpt>
<trkpt lat="-35.2750463" lon="148.9863727">
  <ele>658.74</ele>
  <time>2026-09-01T20:00:19Z</time>
  <course>328.74</course>
  <speed>0.65</speed>
  <fix>3d</fix>
</trkpt>
<trkpt lat="-35.2750452" lon="148.9863723">
  <ele>658.64</ele>
  <time>2026-09-01T20:00:19Z</time>
  <course>348.7</course>
  <speed>0.73348483283569</speed>
  <fix>3d</fix>
</trkpt>
<trkpt lat="-35.2750463" lon="148.9863727">
  <ele>658.74</ele>
  <time>2026-09-01T20:00:19Z</time>
  <course>328.74</course>
  <speed>0.65</speed>
  <fix>3d</fix>
</trkpt>
<trkpt lat="-35.2750446" lon="148.9863719">
  <ele>658.66</ele>
  <time>2026-09-01T20:00:19Z</time>
  <course>348.64</course>
  <speed>0.7829431652425353</speed>
  <fix>3d</fix>
</trkpt>
<trkpt lat="-35.2750452" lon="148.986372">
  <ele>658.78</ele>
  <time>2026-09-01T20:00:19Z</time>
  <course>331.37</course>
  <speed>0.76</speed>
  <fix>3d</fix>
</trkpt>
<trkpt lat="-35.2750439" lon="148.9863715">
  <ele>658.68</ele>
  <time>2026-09-01T20:00:19Z</time>
  <course>348.61</course>
  <speed>0.832586331859946</speed>
  <fix>3d</fix>
</trkpt>
<trkpt lat="-35.2750452" lon="148.986372">
  <ele>658.78</ele>
  <time>2026-09-01T20:00:19Z</time>
  <course>331.37</course>
  <speed>0.76</speed>
  <fix>3d</fix>
</trkpt>
<trkpt lat="-35.2750432" lon="148.9863711">
  <ele>658.7</ele>
  <time>2026-09-01T20:00:19Z</time>
  <course>348.61</course>
  <speed>0.873212459828649</speed>
  <fix>3d</fix>
</trkpt>
<trkpt lat="-35.2750439" lon="148.9863711">
  <ele>658.82</ele>
  <time>2026-09-01T20:00:19Z</time>
  <course>333.43</course>
  <speed>0.85</speed>
  <fix>3d</fix>
</trkpt>
<trkpt lat="-35.2750425" lon="148.9863706">
  <ele>658.71</ele>
  <time>2026-09-01T20:00:19Z</time>
  <course>348.64</course>
  <speed>0.9192388155425119</speed>
  <fix>3d</fix>
</trkpt>
<trkpt lat="-35.2750439" lon="148.9863711">
  <ele>658.82</ele>
  <time>2026-09-01T20:00:19Z</time>
  <course>333.43</course>
  <speed>0.85</speed>
  <fix>3d</fix>
</trkpt>
<trkpt lat="-35.2750417" lon="148.9863702">
  <ele>658.72</ele>
  <time>2026-09-01T20:00:19Z</time>
  <course>348.67</course>
  <speed>0.9600520819205591</speed>
  <fix>3d</fix>
</trkpt>
<trkpt lat="-35.2750424" lon="148.9863702">
  <ele>658.85</ele>
  <time>2026-09-01T20:00:19Z</time>
  <course>335.09</course>
  <speed>0.94</speed>
  <fix>3d</fix>
</trkpt>
<trkpt lat="-35.2750409" lon="148.9863697">
  <ele>658.73</ele>
  <time>2026-09-01T20:00:19Z</time>
  <course>348.71</course>
  <speed>0.9916148445843276</speed>
  <fix>3d</fix>
</trkpt>
<trkpt lat="-35.2750424" lon="148.9863702">
  <ele>658.85</ele>
  <time>2026-09-01T20:00:19Z</time>
  <course>335.09</course>
  <speed>0.94</speed>
  <fix>3d</fix>
</trkpt>
<trkpt lat="-35.27504" lon="148.9863693">
  <ele>658.73</ele>
  <time>2026-09-01T20:00:19Z</time>
  <course>348.74</course>
  <speed>1.0288342918079665</speed>
  <fix>3d</fix>
</trkpt>
<trkpt lat="-35.2750408" lon="148.9863694">
  <ele>658.86</ele>
  <time>2026-09-01T20:00:19Z</time>
  <course>336.46</course>
  <speed>1.02</speed>
  <fix>3d</fix>
</trkpt>
<trkpt lat="-35.2750391" lon="148.9863688">
  <ele>658.73</ele>
  <time>2026-09-01T20:00:19Z</time>
  <course>348.76</course>
  <speed>1.056882207249228</speed>
  <fix>3d</fix>
</trkpt>
<trkpt lat="-35.2750408" lon="148.9863694">
  <ele>658.86</ele>
  <time>2026-09-01T20:00:19Z</time>
  <course>336.46</course>
  <speed>1.02</speed>
  <fix>3d</fix>
</trkpt>
<trkpt lat="-35.2750382" lon="148.9863684">
  <ele>658.72</ele>
  <time>2026-09-01T20:00:19Z</time>
  <course>348.77</course>
  <speed>1.0884851859350222</speed>
  <fix>3d</fix>
</trkpt>
<trkpt lat="-35.2750391" lon="148.9863685">
  <ele>658.85</ele>
  <time>2026-09-01T20:00:19Z</time>
  <course>337.64</course>
  <speed>1.08</speed>
  <fix>3d</fix>
</trkpt>
<trkpt lat="-35.2750373" lon="148.9863679">
  <ele>658.71</ele>
  <time>2026-09-01T20:00:19Z</time>
  <course>348.77</course>
  <speed>1.1166467659918242</speed>
  <fix>3d</fix>
</trkpt>
<trkpt lat="-35.2750391" lon="148.9863685">
  <ele>658.85</ele>
  <time>2026-09-01T20:00:19Z</time>
  <course>337.64</course>
  <speed>1.08</speed>
  <fix>3d</fix>
</trkpt>
<trkpt lat="-35.2750363" lon="148.9863675">
  <ele>658.69</ele>
  <time>2026-09-01T20:00:19Z</time>
  <course>348.76</course>
  <speed>1.1354734695271396</speed>
  <fix>3d</fix>
</trkpt>
<trkpt lat="-35.2750372" lon="148.9863675">
  <ele>658.82</ele>
  <time>2026-09-01T20:00:19Z</time>
  <course>338.67</course>
  <speed>1.14</speed>
  <fix>3d</fix>
</trkpt>
<trkpt lat="-35.2750353" lon="148.986367">
  <ele>658.67</ele>
  <time>2026-09-01T20:00:19Z</time>
  <course>348.74</course>
  <speed>1.1637869220780923</speed>
  <fix>3d</fix>
</trkpt>
<trkpt lat="-35.2750372" lon="148.9863675">
  <ele>658.82</ele>
  <time>2026-09-01T20:00:19Z</time>
  <course>338.67</course>
  <speed>1.14</speed>
  <fix>3d</fix>
</trkpt>
<trkpt lat="-35.2750343" lon="148.9863665">
  <ele>658.65</ele>
  <time>2026-09-01T20:00:19Z</time>
  <course>348.73</course>
  <speed>1.1700427342623003</speed>
  <fix>3d</fix>
</trkpt>
<trkpt lat="-35.2750352" lon="148.9863666">
  <ele>658.79</ele>
  <time>2026-09-01T20:00:19Z</time>
  <course>339.57</course>
  <speed>1.18</speed>
  <fix>3d</fix>
</trkpt>
<trkpt lat="-35.2750333" lon="148.9863661">
  <ele>658.63</ele>
  <time>2026-09-01T20:00:19Z</time>
  <course>348.71</course>
  <speed>1.1890332207301864</speed>
  <fix>3d</fix>
</trkpt>
<trkpt lat="-35.2750352" lon="148.9863666">
  <ele>658.79</ele>
  <time>2026-09-01T20:00:19Z</time>
  <course>339.57</course>
  <speed>1.18</speed>
  <fix>3d</fix>
</trkpt>
<trkpt lat="-35.2750322" lon="148.9863656">
  <ele>658.61</ele>
  <time>2026-09-01T20:00:19Z</time>
  <course>348.7</course>
  <speed>1.1890332207301864</speed>
  <fix>3d</fix>
</trkpt>
<trkpt lat="-35.2750331" lon="148.9863657">
  <ele>658.75</ele>
  <time>2026-09-01T20:00:19Z</time>
  <course>340.36</course>
  <speed>1.21</speed>
  <fix>3d</fix>
</trkpt>
<trkpt lat="-35.2750312" lon="148.9863652">
  <ele>658.59</ele>
  <time>2026-09-01T20:00:19Z</time>
  <course>348.69</course>
  <speed>1.1954915307102765</speed>
  <fix>3d</fix>
</trkpt>
<trkpt lat="-35.2750331" lon="148.9863657">
  <ele>658.75</ele>
  <time>2026-09-01T20:00:19Z</time>
  <course>340.36</course>
  <speed>1.21</speed>
  <fix>3d</fix>
</trkpt>
<trkpt lat="-35.2750302" lon="148.9863647">
  <ele>658.58</ele>
  <time>2026-09-01T20:00:19Z</time>
  <course>348.69</course>
  <speed>1.1925183436744276</speed>
  <fix>3d</fix>
</trkpt>
<trkpt lat="-35.2750311" lon="148.9863648">
  <ele>658.7</ele>
  <time>2026-09-01T20:00:19Z</time>
  <course>341.06</course>
  <speed>1.22</speed>
  <fix>3d</fix>
</trkpt>
<trkpt lat="-35.2750291" lon="148.9863643">
  <ele>658.56</ele>
  <time>2026-09-01T20:00:19Z</time>
  <course>348.7</course>
  <speed>1.1829623831720095</speed>
  <fix>3d</fix>
</trkpt>
<trkpt lat="-35.2750311" lon="148.9863648">
  <ele>658.7</ele>
  <time>2026-09-01T20:00:19Z</time>
  <course>341.06</course>
  <speed>1.22</speed>
  <fix>3d</fix>
</trkpt>
<trkpt lat="-35.2750281" lon="148.9863639">
  <ele>658.55</ele>
  <time>2026-09-01T20:00:19Z</time>
  <course>348.7</course>
  <speed>1.1704699910719625</speed>
  <fix>3d</fix>
</trkpt>
<trkpt lat="-35.275029" lon="148.9863639">
  <ele>658.67</ele>
  <time>2026-09-01T20:00:19Z</time>
  <course>341.69</course>
  <speed>1.21</speed>
  <fix>3d</fix>
</trkpt>
<trkpt lat="-35.2750271" lon="148.9863635">
  <ele>658.53</ele>
  <time>2026-09-01T20:00:19Z</time>
  <course>348.71</course>
  <speed>1.158015543937127</speed>
  <fix>3d</fix>
</trkpt>
<trkpt lat="-35.275029" lon="148.9863639">
  <ele>658.67</ele>
  <time>2026-09-01T20:00:19Z</time>
  <course>341.69</course>
  <speed>1.21</speed>
  <fix>3d</fix>
</trkpt>
<trkpt lat="-35.2750261" lon="148.9863631">
  <ele>658.52</ele>
  <time>2026-09-01T20:00:19Z</time>
  <course>348.72</course>
  <speed>1.136001760562016</speed>
  <fix>3d</fix>
</trkpt>
<trkpt lat="-35.2750269" lon="148.9863632">
  <ele>658.65</ele>
  <time>2026-09-01T20:00:19Z</time>
  <course>342.24</course>
  <speed>1.18</speed>
  <fix>3d</fix>
</trkpt>
<trkpt lat="-35.2750251" lon="148.9863627">
  <ele>658.51</ele>
  <time>2026-09-01T20:00:19Z</time>
  <course>348.72</course>
  <speed>1.1044002897500524</speed>
  <fix>3d</fix>
</trkpt>
<trkpt lat="-35.2750269" lon="148.9863632">
  <ele>658.65</ele>
  <time>2026-09-01T20:00:19Z</time>
  <course>342.24</course>
  <speed>1.18</speed>
  <fix>3d</fix>
</trkpt>
<trkpt lat="-35.2750241" lon="148.9863623">
  <ele>658.51</ele>
  <time>2026-09-01T20:00:19Z</time>
  <course>348.73</course>
  <speed>1.0796758772891057</speed>
  <fix>3d</fix>
</trkpt>
<trkpt lat="-35.275025" lon="148.9863624">
  <ele>658.63</ele>
  <time>2026-09-01T20:00:19Z</time>
  <course>342.71</course>
  <speed>1.13</speed>
  <fix>3d</fix>
</trkpt>
<trkpt lat="-35.2750232" lon="148.986362">
  <ele>658.5</ele>
  <time>2026-09-01T20:00:19Z</time>
  <course>348.73</course>
  <speed>1.0480935072788113</speed>
  <fix>3d</fix>
</trkpt>
<trkpt lat="-35.275025" lon="148.9863624">
  <ele>658.63</ele>
  <time>2026-09-01T20:00:19Z</time>
  <course>342.71</course>
  <speed>1.13</speed>
  <fix>3d</fix>
</trkpt>
<trkpt lat="-35.2750223" lon="148.9863617">
  <ele>658.5</ele>
  <time>2026-09-01T20:00:19Z</time>
  <course>348.73</course>
  <speed>1.0068763578513502</speed>
  <fix>3d</fix>
</trkpt>
<trkpt lat="-35.2750231" lon="148.9863617">
  <ele>658.61</ele>
  <time>2026-09-01T20:00:19Z</time>
  <course>343.12</course>
  <speed>1.07</speed>
  <fix>3d</fix>
</trkpt>
<trkpt lat="-35.2750214" lon="148.9863613">
  <ele>658.49</ele>
  <time>2026-09-01T20:00:19Z</time>
  <course>348.73</course>
  <speed>0.9726767191621274</speed>
  <fix>3d</fix>
</trkpt>
<trkpt lat="-35.2750231" lon="148.9863617">
  <ele>658.61</ele>
  <time>2026-09-01T20:00:19Z</time>
  <course>343.12</course>
  <speed>1.07</speed>
  <fix>3d</fix>
</trkpt>
<trkpt lat="-35.2750206" lon="148.986361">
  <ele>658.49</ele>
  <time>2026-09-01T20:00:19Z</time>
  <course>348.74</course>
  <speed>0.9314504817756014</speed>
  <fix>3d</fix>
</trkpt>
<trkpt lat="-35.2750213" lon="148.986361">
  <ele>658.6</ele>
  <time>2026-09-01T20:00:19Z</time>
  <course>343.48</course>
  <speed>1.0</speed>
  <fix>3d</fix>
</trkpt>
<trkpt lat="-35.2750198" lon="148.9863607">
  <ele>658.49</ele>
  <time>2026-09-01T20:00:19Z</time>
  <course>348.74</course>
  <speed>0.8805679985100526</speed>
  <fix>3d</fix>
</trkpt>
<trkpt lat="-35.2750213" lon="148.986361">
  <ele>658.6</ele>
  <time>2026-09-01T20:00:19Z</time>
  <course>343.48</course>
  <speed>1.0</speed>
  <fix>3d</fix>
</trkpt>
<trkpt lat="-35.275019" lon="148.9863605">
  <ele>658.49</ele>
  <time>2026-09-01T20:00:19Z</time>
  <course>348.74</course>
  <speed>0.8367795408588812</speed>
  <fix>3d</fix>
</trkpt>
<trkpt lat="-35.2750197" lon="148.9863604">
  <ele>658.6</ele>
  <time>2026-09-01T20:00:19Z</time>
  <course>343.79</course>
  <speed>0.91</speed>
  <fix>3d</fix>
</trkpt>
<trkpt lat="-35.2750183" lon="148.9863602">
  <ele>658.49</ele>
  <time>2026-09-01T20:00:19Z</time>
  <course>348.74</course>
  <speed>0.78587530817554</speed>
  <fix>3d</fix>
</trkpt>
<trkpt lat="-35.2750197" lon="148.9863604">
  <ele>658.6</ele>
  <time>2026-09-01T20:00:19Z</time>
  <course>343.79</course>
  <speed>0.91</speed>
  <fix>3d</fix>
</trkpt>
<trkpt lat="-35.2750177" lon="148.98636">
  <ele>658.48</ele>
  <time>2026-09-01T20:00:19Z</time>
  <course>348.74</course>
  <speed>0.7324616030891995</speed>
  <fix>3d</fix>
</trkpt>
<trkpt lat="-35.2750182" lon="148.9863599">
  <ele>658.59</ele>
  <time>2026-09-01T20:00:19Z</time>
  <course>344.05</course>
  <speed>0.82</speed>
  <fix>3d</fix>
</trkpt>
<trkpt lat="-35.275017" lon="148.9863597">
  <ele>658.48</ele>
  <time>2026-09-01T20:00:19Z</time>
  <course>348.74</course>
  <speed>0.6815423684555495</speed>
  <fix>3d</fix>
</trkpt>
<trkpt lat="-35.2750182" lon="148.9863599">
  <ele>658.59</ele>
  <time>2026-09-01T20:00:19Z</time>
  <course>344.05</course>
  <speed>0.82</speed>
  <fix>3d</fix>
</trkpt>
<trkpt lat="-35.2750164" lon="148.9863595">
  <ele>658.47</ele>
  <time>2026-09-01T20:00:19Z</time>
  <course>348.74</course>
  <speed>0.6281719509815764</speed>
  <fix>3d</fix>
</trkpt>
<trkpt lat="-35.2750168" lon="148.9863595">
  <ele>658.58</ele>
  <time>2026-09-01T20:00:19Z</time>
  <course>344.23</course>
  <speed>0.71</speed>
  <fix>3d</fix>
</trkpt>
<trkpt lat="-35.2750159" lon="148.9863593">
  <ele>658.46</ele>
  <time>2026-09-01T20:00:19Z</time>
  <course>348.74</course>
  <speed>0.5772347875864725</speed>
  <fix>3d</fix>
</trkpt>
<trkpt lat="-35.2750168" lon="148.9863595">
  <ele>658.58</ele>
  <time>2026-09-01T20:00:19Z</time>
  <course>344.23</course>
  <speed>0.71</speed>
  <fix>3d</fix>
</trkpt>
<trkpt lat="-35.2750154" lon="148.9863592">
  <ele>658.46</ele>
  <time>2026-09-01T20:00:19Z</time>
  <course>348.74</course>
  <speed>0.5141984052872977</speed>
  <fix>3d</fix>
</trkpt>
<trkpt lat="-35.2750157" lon="148.9863591">
  <ele>658.57</ele>
  <time>2026-09-01T20:00:19Z</time>
  <course>344.39</course>
  <speed>0.6</speed>
  <fix>3d</fix>
</trkpt>
<trkpt lat="-35.2750149" lon="148.986359">
  <ele>658.45</ele>
  <time>2026-09-01T20:00:19Z</time>
  <course>348.74</course>
  <speed>0.4609772228646444</speed>
  <fix>3d</fix>
</trkpt>
<trkpt lat="-35.2750157" lon="148.9863591">
  <ele>658.57</ele>
  <time>2026-09-01T20:00:19Z</time>
  <course>344.39</course>
  <speed>0.6</speed>
  <fix>3d</fix>
</trkpt>
<trkpt lat="-35.2750146" lon="148.9863589">
  <ele>658.45</ele>
  <time>2026-09-01T20:00:19Z</time>
  <course>348.74</course>
  <speed>0.40024992192379005</speed>
  <fix>3d</fix>
</trkpt>
<trkpt lat="-35.2750147" lon="148.9863587">
  <ele>658.56</ele>
  <time>2026-09-01T20:00:19Z</time>
  <course>344.53</course>
  <speed>0.49</speed>
  <fix>3d</fix>
</trkpt>
<trkpt lat="-35.2750142" lon="148.9863588">
  <ele>658.45</ele>
  <time>2026-09-01T20:00:19Z</time>
  <course>348.73</course>
  <speed>0.34713109915419565</speed>
  <fix>3d</fix>
</trkpt>
<trkpt lat="-35.2750147" lon="148.9863587">
  <ele>658.56</ele>
  <time>2026-09-01T20:00:19Z</time>
  <course>344.53</course>
  <speed>0.49</speed>
  <fix>3d</fix>
</trkpt>
<trkpt lat="-35.2750139" lon="148.9863587">
  <ele>658.44</ele>
  <time>2026-09-01T20:00:19Z</time>
  <course>348.73</course>
  <speed>0.2863564212655271</speed>
  <fix>3d</fix>
</trkpt>
<trkpt lat="-35.275014" lon="148.9863585">
  <ele>658.55</ele>
  <time>2026-09-01T20:00:19Z</time>
  <course>344.56</course>
  <speed>0.38</speed>
  <fix>3d</fix>
</trkpt>
<trkpt lat="-35.2750137" lon="148.9863586">
  <ele>658.44</ele>
  <time>2026-09-01T20:00:19Z</time>
  <course>348.73</course>
  <speed>0.2353720459187964</speed>
  <fix>3d</fix>
</trkpt>
<trkpt lat="-35.275014" lon="148.9863585">
  <ele>658.55</ele>
  <time>2026-09-01T20:00:19Z</time>
  <course>344.56</course>
  <speed>0.38</speed>
  <fix>3d</fix>
</trkpt>
<trkpt lat="-35.2750135" lon="148.9863585">
  <ele>658.44</ele>
  <time>2026-09-01T20:00:19Z</time>
  <course>348.73</course>
  <speed>0.17262676501632068</speed>
  <fix>3d</fix>
</trkpt>
<trkpt lat="-35.2750134" lon="148.9863583">
  <ele>658.55</ele>
  <time>2026-09-01T20:00:19Z</time>
  <course>344.31</course>
  <speed>0.26</speed>
  <fix>3d</fix>
</trkpt>
<trkpt lat="-35.2750133" lon="148.9863584">
  <ele>658.44</ele>
  <time>2026-09-01T20:00:19Z</time>
  <course>348.73</course>
  <speed>0.12165525060596438</speed>
  <fix>3d</fix>
</trkpt>
<trkpt lat="-35.2750134" lon="148.9863583">
  <ele>658.55</ele>
  <time>2026-09-01T20:00:19Z</time>
  <course>344.31</course>
  <speed>0.26</speed>
  <fix>3d</fix>
</trkpt>
<trkpt lat="-35.2750132" lon="148.9863584">
  <ele>658.44</ele>
  <time>2026-09-01T20:00:19Z</time>
  <course>348.72</course>
  <speed>0.07071067811865475</speed>
  <fix>3d</fix>
</trkpt>
<trkpt lat="-35.275013" lon="148.9863581">
  <ele>658.55</ele>
  <time>2026-09-01T20:00:19Z</time>
  <course>343.34</course>
  <speed>0.15</speed>
  <fix>3d</fix>
</trkpt>
<trkpt lat="-35.2750131" lon="148.9863584">
  <ele>658.44</ele>
  <time>2026-09-01T20:00:19Z</time>
  <course>348.72</course>
  <speed>0.02</speed>
  <fix>3d</fix>
</trkpt>
<trkpt lat="-35.275013" lon="148.9863581">
  <ele>658.55</ele>
  <time>2026-09-01T20:00:19Z</time>
  <course>343.34</course>
  <speed>0.15</speed>
  <fix>3d</fix>
</trkpt>
<trkpt lat="-35.2750131" lon="148.9863583">
  <ele>658.44</ele>
  <time>2026-09-01T20:00:19Z</time>
  <course>348.71</course>
  <speed>0.022360679774997897</speed>
  <fix>3d</fix>
</trkpt>
<trkpt lat="-35.2750129" lon="148.9863581">
  <ele>658.54</ele>
  <time>2026-09-01T20:00:19Z</time>
  <course>337.13</course>
  <speed>0.04</speed>
  <fix>3d</fix>
</trkpt>
<trkpt lat="-35.2750131" lon="148.9863583">
  <ele>658.44</ele>
  <time>2026-09-01T20:00:19Z</time>
  <course>348.71</course>
  <speed>0.07280109889280519</speed>
  <fix>3d</fix>
</trkpt>
<trkpt lat="-35.2750129" lon="148.9863581">
  <ele>658.54</ele>
  <time>2026-09-01T20:00:19Z</time>
  <course>337.13</course>
  <speed>0.04</speed>
  <fix>3d</fix>
</trkpt>
<trkpt lat="-35.2750132" lon="148.9863583">
  <ele>658.44</ele>
  <time>2026-09-01T20:00:19Z</time>
  <course>348.7</course>
  <speed>0.11401754250991379</speed>
  <fix>3d</fix>
</trkpt>
<trkpt lat="-35.2750129" lon="148.9863581">
  <ele>658.54</ele>
  <time>2026-09-01T20:00:19Z</time>
  <course>176.57</course>
  <speed>0.04</speed>
  <fix>3d</fix>
</trkpt>
<trkpt lat="-35.2750133" lon="148.9863584">
  <ele>658.44</ele>
  <time>2026-09-01T20:00:19Z</time>
  <course>348.7</course>
  <speed>0.1649242250247064</speed>
  <fix>3d</fix>
</trkpt>
<trkpt lat="-35.2750129" lon="148.9863581">
  <ele>658.54</ele>
  <time>2026-09-01T20:00:19Z</time>
  <course>176.57</course>
  <speed>0.04</speed>
  <fix>3d</fix>
</trkpt>
<trkpt lat="-35.2750134" lon="148.9863584">
  <ele>658.44</ele>
  <time>2026-09-01T20:00:19Z</time>
  <course>348.69</course>
  <speed>0.194164878389476</speed>
  <fix>3d</fix>
</trkpt>
<trkpt lat="-35.275013" lon="148.9863581">
  <ele>658.54</ele>
  <time>2026-09-01T20:00:19Z</time>
  <course>170.64</course>
  <speed>0.13</speed>
  <fix>3d</fix>
</trkpt>
<trkpt lat="-35.2750136" lon="148.9863584">
  <ele>658.44</ele>
  <time>2026-09-01T20:00:19Z</time>
  <course>348.68</course>
  <speed>0.2353720459187964</speed>
  <fix>3d</fix>
</trkpt>
<trkpt lat="-35.275013" lon="148.9863581">
  <ele>658.54</ele>
  <time>2026-09-01T20:00:19Z</time>
  <course>170.64</course>
  <speed>0.13</speed>
  <fix>3d</fix>
</trkpt>
<trkpt lat="-35.2750137" lon="148.9863584">
  <ele>658.44</ele>
  <time>2026-09-01T20:00:19Z</time>
  <course>348.66</course>
  <speed>0.2668332812825267</speed>
  <fix>3d</fix>
</trkpt>
<trkpt lat="-35.2750133" lon="148.9863581">
  <ele>658.54</ele>
  <time>2026-09-01T20:00:19Z</time>
  <course>169.49</course>
  <speed>0.21</speed>
  <fix>3d</fix>
</trkpt>
<trkpt lat="-35.2750139" lon="148.9863584">
  <ele>658.44</ele>
  <time>2026-09-01T20:00:19Z</time>
  <course>348.62</course>
  <speed>0.2863564212655271</speed>
  <fix>3d</fix>
</trkpt>
<trkpt lat="-35.2750133" lon="148.9863581">
  <ele>658.54</ele>
  <time>2026-09-01T20:00:19Z</time>
  <course>169.49</course>
  <speed>0.21</speed>
  <fix>3d</fix>
</trkpt>
<trkpt lat="-35.2750142" lon="148.9863585">
  <ele>658.44</ele>
  <time>2026-09-01T20:00:19Z</time>
  <course>348.58</course>
  <speed>0.3080584360149873</speed>
  <fix>3d</fix>
</trkpt>
<trkpt lat="-35.2750137" lon="148.9863581">
  <ele>658.54</ele>
  <time>2026-09-01T20:00:19Z</time>
  <course>168.95</course>
  <speed>0.26</speed>
  <fix>3d</fix>
</trkpt>
<trkpt lat="-35.2750144" lon="148.9863585">
  <ele>658.44</ele>
  <time>2026-09-01T20:00:19Z</time>
  <course>348.54</course>
  <speed>0.327566787083184</speed>
  <fix>3d</fix>
</trkpt>
<trkpt lat="-35.2750137" lon="148.9863581">
  <ele>658.54</ele>
  <time>2026-09-01T20:00:19Z</time>
  <course>168.95</course>
  <speed>0.26</speed>
  <fix>3d</fix>
</trkpt>
<trkpt lat="-35.2750147" lon="148.9863586">
  <ele>658.44</ele>
  <time>2026-09-01T20:00:19Z</time>
  <course>348.51</course>
  <speed>0.34928498393145957</speed>
  <fix>3d</fix>
</trkpt>
<trkpt lat="-35.2750142" lon="148.9863583">
  <ele>658.54</ele>
  <time>2026-09-01T20:00:19Z</time>
  <course>168.61</course>
  <speed>0.31</speed>
  <fix>3d</fix>
</trkpt>
<trkpt lat="-35.275015" lon="148.9863586">
  <ele>658.44</ele>
  <time>2026-09-01T20:00:19Z</time>
  <course>348.48</course>
  <speed>0.3590264614203248</speed>
  <fix>3d</fix>
</trkpt>
<trkpt lat="-35.2750142" lon="148.9863583">
  <ele>658.54</ele>
  <time>2026-09-01T20:00:19Z</time>
  <course>168.61</course>
  <speed>0.31</speed>
  <fix>3d</fix>
</trkpt>
<trkpt lat="-35.2750153" lon="148.9863587">
  <ele>658.44</ele>
  <time>2026-09-01T20:00:19Z</time>
  <course>348.47</course>
  <speed>0.3687817782917155</speed>
  <fix>3d</fix>
</trkpt>
<trkpt lat="-35.2750147" lon="148.9863584">
  <ele>658.54</ele>
  <time>2026-09-01T20:00:19Z</time>
  <course>168.37</course>
  <speed>0.34</speed>
  <fix>3d</fix>
</trkpt>
<trkpt lat="-35.2750156" lon="148.9863588">
  <ele>658.44</ele>
  <time>2026-09-01T20:00:19Z</time>
  <course>348.47</course>
  <speed>0.37107950630558945</speed>
  <fix>3d</fix>
</trkpt>
<trkpt lat="-35.2750147" lon="148.9863584">
  <ele>658.54</ele>
  <time>2026-09-01T20:00:19Z</time>
  <course>168.37</course>
  <speed>0.34</speed>
  <fix>3d</fix>
</trkpt>
<trkpt lat="-35.2750159" lon="148.9863589">
  <ele>658.44</ele>
  <time>2026-09-01T20:00:19Z</time>
  <course>348.46</course>
  <speed>0.38078865529319544</speed>
  <fix>3d</fix>
</trkpt>
<trkpt lat="-35.2750154" lon="148.9863586">
  <ele>658.54</ele>
  <time>2026-09-01T20:00:19Z</time>
  <course>168.2</course>
  <speed>0.35</speed>
  <fix>3d</fix>
</trkpt>
<trkpt lat="-35.2750162" lon="148.9863589">
  <ele>658.44</ele>
  <time>2026-09-01T20:00:19Z</time>
  <course>348.46</course>
  <speed>0.38078865529319544</speed>
  <fix>3d</fix>
</trkpt>
<trkpt lat="-35.2750154" lon="148.9863586">
  <ele>658.54</ele>
  <time>2026-09-01T20:00:19Z</time>
  <course>168.2</course>
  <speed>0.35</speed>
  <fix>3d</fix>
</trkpt>
<trkpt lat="-35.2750165" lon="148.986359">
  <ele>658.44</ele>
  <time>2026-09-01T20:00:19Z</time>
  <course>348.46</course>
  <speed>0.38078865529319544</speed>
  <fix>3d</fix>
</trkpt>
<trkpt lat="-35.275016" lon="148.9863588">
  <ele>658.54</ele>
  <time>2026-09-01T20:00:19Z</time>
  <course>168.12</course>
  <speed>0.36</speed>
  <fix>3d</fix>
</trkpt>
<trkpt lat="-35.2750168" lon="148.9863591">
  <ele>658.44</ele>
  <time>2026-09-01T20:00:19Z</time>
  <course>348.45</course>
  <speed>0.38078865529319544</speed>
  <fix>3d</fix>
</trkpt>
<trkpt lat="-35.275016" lon="148.9863588">
  <ele>658.54</ele>
  <time>2026-09-01T20:00:19Z</time>
  <course>168.12</course>
  <speed>0.36</speed>
  <fix>3d</fix>
</trkpt>
<trkpt lat="-35.2750171" lon="148.9863592">
  <ele>658.44</ele>
  <time>2026-09-01T20:00:19Z</time>
  <course>348.45</course>
  <speed>0.37107950630558945</speed>
  <fix>3d</fix>
</trkpt>
<trkpt lat="-35.2750166" lon="148.9863589">
  <ele>658.54</ele>
  <time>2026-09-01T20:00:19Z</time>
  <course>168.12</course>
  <speed>0.36</speed>
  <fix>3d</fix>
</trkpt>
<trkpt lat="-35.2750174" lon="148.9863592">
  <ele>658.44</ele>
  <time>2026-09-01T20:00:19Z</time>
  <course>348.44</course>
  <speed>0.3687817782917155</speed>
  <fix>3d</fix>
</trkpt>
<trkpt lat="-35.2750166" lon="148.9863589">
  <ele>658.54</ele>
  <time>2026-09-01T20:00:19Z</time>
  <course>168.12</course>
  <speed>0.36</speed>
  <fix>3d</fix>
</trkpt>
<trkpt lat="-35.2750177" lon="148.9863593">
  <ele>658.44</ele>
  <time>2026-09-01T20:00:19Z</time>
  <course>348.42</course>
  <speed>0.3590264614203248</speed>
  <fix>3d</fix>
</trkpt>
<trkpt lat="-35.2750173" lon="148.986359">
  <ele>658.54</ele>
  <time>2026-09-01T20:00:19Z</time>
  <course>168.24</course>
  <speed>0.36</speed>
  <fix>3d</fix>
</trkpt>
<trkpt lat="-35.275018" lon="148.9863594">
  <ele>658.44</ele>
  <time>2026-09-01T20:00:19Z</time>
  <course>348.42</course>
  <speed>0.3590264614203248</speed>
  <fix>3d</fix>
</trkpt>
<trkpt lat="-35.2750173" lon="148.986359">
  <ele>658.54</ele>
  <time>2026-09-01T20:00:19Z</time>
  <course>168.24</course>
  <speed>0.36</speed>
  <fix>3d</fix>
</trkpt>
<trkpt lat="-35.2750183" lon="148.9863595">
  <ele>658.44</ele>
  <time>2026-09-01T20:00:19Z</time>
  <course>348.42</course>
  <speed>0.34928498393145957</speed>
  <fix>3d</fix>
</trkpt>
<trkpt lat="-35.275018" lon="148.9863592">
  <ele>658.54</ele>
  <time>2026-09-01T20:00:19Z</time>
  <course>168.58</course>
  <speed>0.34</speed>
  <fix>3d</fix>
</trkpt>
<trkpt lat="-35.2750186" lon="148.9863595">
  <ele>658.44</ele>
  <time>2026-09-01T20:00:19Z</time>
  <course>348.43</course>
  <speed>0.33734255586865997</speed>
  <fix>3d</fix>
</trkpt>
<trkpt lat="-35.275018" lon="148.9863592">
  <ele>658.54</ele>
  <time>2026-09-01T20:00:19Z</time>
  <course>168.58</course>
  <speed>0.34</speed>
  <fix>3d</fix>
</trkpt>
<trkpt lat="-35.2750189" lon="148.9863596">
  <ele>658.43</ele>
  <time>2026-09-01T20:00:19Z</time>
  <course>348.45</course>
  <speed>0.327566787083184</speed>
  <fix>3d</fix>
</trkpt>
<trkpt lat="-35.2750185" lon="148.9863594">
  <ele>658.54</ele>
  <time>2026-09-01T20:00:19Z</time>
  <course>169.14</course>
  <speed>0.33</speed>
  <fix>3d</fix>
</trkpt>
<trkpt lat="-35.2750192" lon="148.9863596">
  <ele>658.43</ele>
  <time>2026-09-01T20:00:19Z</time>
  <course>348.47</course>
  <speed>0.3178049716414141</speed>
  <fix>3d</fix>
</trkpt>
<trkpt lat="-35.2750185" lon="148.9863594">
  <ele>658.54</ele>
  <time>2026-09-01T20:00:19Z</time>
  <course>169.14</course>
  <speed>0.33</speed>
  <fix>3d</fix>
</trkpt>
<trkpt lat="-35.2750194" lon="148.9863597">
  <ele>658.43</ele>
  <time>2026-09-01T20:00:19Z</time>
  <course>348.48</course>
  <speed>0.3059411708155671</speed>
  <fix>3d</fix>
</trkpt>
<trkpt lat="-35.2750191" lon="148.9863595">
  <ele>658.53</ele>
  <time>2026-09-01T20:00:19Z</time>
  <course>169.94</course>
  <speed>0.31</speed>
  <fix>3d</fix>
</trkpt>
<trkpt lat="-35.2750197" lon="148.9863597">
  <ele>658.42</ele>
  <time>2026-09-01T20:00:20Z</time>
  <course>348.5</course>
  <speed>0.29614185789921693</speed>
  <fix>3d</fix>
</trkpt>
<trkpt lat="-35.2750191" lon="148.9863595">
  <ele>658.53</ele>
  <time>2026-09-01T20:00:20Z</time>
  <course>169.94</course>
  <speed>0.31</speed>
  <fix>3d</fix>
</trkpt>
<trkpt lat="-35.2750199" lon="148.9863598">
  <ele>658.42</ele>
  <time>2026-09-01T20:00:20Z</time>
  <course>348.52</course>
  <speed>0.28442925306655786</speed>
  <fix>3d</fix>
</trkpt>
<trkpt lat="-35.2750196" lon="148.9863596">
  <ele>658.53</ele>
  <time>2026-09-01T20:00:20Z</time>
  <course>171.05</course>
  <speed>0.28</speed>
  <fix>3d</fix>
</trkpt>
<trkpt lat="-35.2750202" lon="148.9863598">
  <ele>658.42</ele>
  <time>2026-09-01T20:00:20Z</time>
  <course>348.53</course>
  <speed>0.2745906043549196</speed>
  <fix>3d</fix>
</trkpt>
<trkpt lat="-35.2750196" lon="148.9863596">
  <ele>658.53</ele>
  <time>2026-09-01T20:00:20Z</time>
  <course>171.05</course>
  <speed>0.28</speed>
  <fix>3d</fix>
</trkpt>
<trkpt lat="-35.2750204" lon="148.9863599">
  <ele>658.42</ele>
  <time>2026-09-01T20:00:20Z</time>
  <course>348.55</course>
  <speed>0.26305892875931813</speed>
  <fix>3d</fix>
</trkpt>
<trkpt lat="-35.2750201" lon="148.9863597">
  <ele>658.53</ele>
  <time>2026-09-01T20:00:20Z</time>
  <course>172.44</course>
  <speed>0.26</speed>
  <fix>3d</fix>
</trkpt>
<trkpt lat="-35.2750206" lon="148.9863599">
  <ele>658.42</ele>
  <time>2026-09-01T20:00:20Z</time>
  <course>348.56</course>
  <speed>0.25317977802344327</speed>
  <fix>3d</fix>
</trkpt>
<trkpt lat="-35.2750201" lon="148.9863597">
  <ele>658.53</ele>
  <time>2026-09-01T20:00:20Z</time>
  <course>172.44</course>
  <speed>0.26</speed>
  <fix>3d</fix>
</trkpt>
<trkpt lat="-35.2750208" lon="148.9863599">
  <ele>658.42</ele>
  <time>2026-09-01T20:00:20Z</time>
  <course>348.57</course>
  <speed>0.24186773244895649</speed>
  <fix>3d</fix>
</trkpt>
<trkpt lat="-35.2750206" lon="148.9863598">
  <ele>658.53</ele>
  <time>2026-09-01T20:00:20Z</time>
  <course>174.15</course>
  <speed>0.24</speed>
  <fix>3d</fix>
</trkpt>
<trkpt lat="-35.275021" lon="148.9863599">
  <ele>658.42</ele>
  <time>2026-09-01T20:00:20Z</time>
  <course>348.58</course>
  <speed>0.2220360331117452</speed>
  <fix>3d</fix>
</trkpt>
<trkpt lat="-35.2750206" lon="148.9863598">
  <ele>658.53</ele>
  <time>2026-09-01T20:00:20Z</time>
  <course>174.15</course>
  <speed>0.24</speed>
  <fix>3d</fix>
</trkpt>
<trkpt lat="-35.2750212" lon="148.9863599">
  <ele>658.42</ele>
  <time>2026-09-01T20:00:20Z</time>
  <course>348.58</course>
  <speed>0.2109502310972899</speed>
  <fix>3d</fix>
</trkpt>
<trkpt lat="-35.2750209" lon="148.9863598">
  <ele>658.54</ele>
  <time>2026-09-01T20:00:20Z</time>
  <course>176.29</course>
  <speed>0.22</speed>
  <fix>3d</fix>
</trkpt>
<trkpt lat="-35.2750214" lon="148.98636">
  <ele>658.43</ele>
  <time>2026-09-01T20:00:20Z</time>
  <course>348.59</course>
  <speed>0.2009975124224178</speed>
  <fix>3d</fix>
</trkpt>
<trkpt lat="-35.2750209" lon="148.9863598">
  <ele>658.54</ele>
  <time>2026-09-01T20:00:20Z</time>
  <course>176.29</course>
  <speed>0.22</speed>
  <fix>3d</fix>
</trkpt>
<trkpt lat="-35.2750216" lon="148.98636">
  <ele>658.43</ele>
  <time>2026-09-01T20:00:20Z</time>
  <course>348.59</course>
  <speed>0.19026297590440447</speed>
  <fix>3d</fix>
</trkpt>
<trkpt lat="-35.2750214" lon="148.9863599">
  <ele>658.54</ele>
  <time>2026-09-01T20:00:20Z</time>
  <course>178.91</course>
  <speed>0.19</speed>
  <fix>3d</fix>
</trkpt>
<trkpt lat="-35.2750217" lon="148.98636">
  <ele>658.43</ele>
  <time>2026-09-01T20:00:20Z</time>
  <course>348.59</course>
  <speed>0.17029386365926402</speed>
  <fix>3d</fix>
</trkpt>
<trkpt lat="-35.2750214" lon="148.9863599">
  <ele>658.54</ele>
  <time>2026-09-01T20:00:20Z</time>
  <course>178.91</course>
  <speed>0.19</speed>
  <fix>3d</fix>
</trkpt>
<trkpt lat="-35.2750219" lon="148.98636">
  <ele>658.44</ele>
  <time>2026-09-01T20:00:20Z</time>
  <course>348.59</course>
  <speed>0.16</speed>
  <fix>3d</fix>
</trkpt>
<trkpt lat="-35.2750217" lon="148.9863599">
  <ele>658.54</ele>
  <time>2026-09-01T20:00:20Z</time>
  <course>182.17</course>
  <speed>0.17</speed>
  <fix>3d</fix>
</trkpt>
<trkpt lat="-35.275022" lon="148.98636">
  <ele>658.44</ele>
  <time>2026-09-01T20:00:20Z</time>
  <course>348.59</course>
  <speed>0.15</speed>
  <fix>3d</fix>
</trkpt>
<trkpt lat="-35.2750217" lon="148.9863599">
  <ele>658.54</ele>
  <time>2026-09-01T20:00:20Z</time>
  <course>182.17</course>
  <speed>0.17</speed>
  <fix>3d</fix>
</trkpt>
<trkpt lat="-35.2750221" lon="148.98636">
  <ele>658.44</ele>
  <time>2026-09-01T20:00:20Z</time>
  <course>348.58</course>
  <speed>0.13</speed>
  <fix>3d</fix>
</trkpt>
<trkpt lat="-35.275022" lon="148.9863599">
  <ele>658.55</ele>
  <time>2026-09-01T20:00:20Z</time>
  <course>186.55</course>
  <speed>0.14</speed>
  <fix>3d</fix>
</trkpt>
<trkpt lat="-35.2750222" lon="148.98636">
  <ele>658.44</ele>
  <time>2026-09-01T20:00:20Z</time>
  <course>348.59</course>
  <speed>0.12</speed>
  <fix>3d</fix>
</trkpt>
<trkpt lat="-35.275022" lon="148.9863599">
  <ele>658.55</ele>
  <time>2026-09-01T20:00:20Z</time>
  <course>186.55</course>
  <speed>0.14</speed>
  <fix>3d</fix>
</trkpt>
<trkpt lat="-35.2750223" lon="148.98636">
  <ele>658.44</ele>
  <time>2026-09-01T20:00:20Z</time>
  <course>348.6</course>
  <speed>0.11</speed>
  <fix>3d</fix>
</trkpt>
<trkpt lat="-35.2750222" lon="148.9863599">
  <ele>658.55</ele>
  <time>2026-09-01T20:00:20Z</time>
  <course>192.54</course>
  <speed>0.11</speed>
  <fix>3d</fix>
</trkpt>
<trkpt lat="-35.2750224" lon="148.98636">
  <ele>658.44</ele>
  <time>2026-09-01T20:00:20Z</time>
  <course>348.61</course>
  <speed>0.09055385138137417</speed>
  <fix>3d</fix>
</trkpt>
<trkpt lat="-35.2750222" lon="148.9863599">
  <ele>658.55</ele>
  <time>2026-09-01T20:00:20Z</time>
  <course>192.54</course>
  <speed>0.11</speed>
  <fix>3d</fix>
</trkpt>
<trkpt lat="-35.2750225" lon="148.9863599">
  <ele>658.44</ele>
  <time>2026-09-01T20:00:20Z</time>
  <course>348.62</course>
  <speed>0.08062257748298549</speed>
  <fix>3d</fix>
</trkpt>
<trkpt lat="-35.2750224" lon="148.9863598">
  <ele>658.55</ele>
  <time>2026-09-01T20:00:20Z</time>
  <course>201.04</course>
  <speed>0.09</speed>
  <fix>3d</fix>
</trkpt>
<trkpt lat="-35.2750226" lon="148.9863599">
  <ele>658.44</ele>
  <time>2026-09-01T20:00:20Z</time>
  <course>348.63</course>
  <speed>0.07071067811865475</speed>
  <fix>3d</fix>
</trkpt>
<trkpt lat="-35.2750224" lon="148.9863598">
  <ele>658.55</ele>
  <time>2026-09-01T20:00:20Z</time>
  <course>201.04</course>
  <speed>0.09</speed>
  <fix>3d</fix>
</trkpt>
<trkpt lat="-35.2750226" lon="148.9863599">
  <ele>658.44</ele>
  <time>2026-09-01T20:00:20Z</time>
  <course>348.63</course>
  <speed>0.053851648071345036</speed>
  <fix>3d</fix>
</trkpt>
<trkpt lat="-35.2750225" lon="148.9863597">
  <ele>658.55</ele>
  <time>2026-09-01T20:00:20Z</time>
  <course>214.54</course>
  <speed>0.07</speed>
  <fix>3d</fix>
</trkpt>
<trkpt lat="-35.2750226" lon="148.9863598">
  <ele>658.44</ele>
  <time>2026-09-01T20:00:20Z</time>
  <course>348.64</course>
  <speed>0.044721359549995794</speed>
  <fix>3d</fix>
</trkpt>
<trkpt lat="-35.2750225" lon="148.9863597">
  <ele>658.55</ele>
  <time>2026-09-01T20:00:20Z</time>
  <course>214.54</course>
  <speed>0.07</speed>
  <fix>3d</fix>
</trkpt>
<trkpt lat="-35.2750227" lon="148.9863598">
  <ele>658.44</ele>
  <time>2026-09-01T20:00:20Z</time>
  <course>348.64</course>
  <speed>0.0282842712474619</speed>
  <fix>3d</fix>
</trkpt>
<trkpt lat="-35.2750226" lon="148.9863596">
  <ele>658.55</ele>
  <time>2026-09-01T20:00:20Z</time>
  <course>236.3</course>
  <speed>0.05</speed>
  <fix>3d</fix>
</trkpt>
<trkpt lat="-35.2750227" lon="148.9863597">
  <ele>658.44</ele>
  <time>2026-09-01T20:00:20Z</time>
  <course>348.63</course>
  <speed>0.022360679774997897</speed>
  <fix>3d</fix>
</trkpt>
<trkpt lat="-35.2750226" lon="148.9863596">
  <ele>658.55</ele>
  <time>2026-09-01T20:00:20Z</time>
  <course>236.3</course>
  <speed>0.05</speed>
  <fix>3d</fix>
</trkpt>
<trkpt lat="-35.2750227" lon="148.9863597">
  <ele>658.44</ele>
  <time>2026-09-01T20:00:20Z</time>
  <course>348.62</course>
  <speed>0.03</speed>
  <fix>3d</fix>
</trkpt>
<trkpt lat="-35.2750227" lon="148.9863595">
  <ele>658.55</ele>
  <time>2026-09-01T20:00:20Z</time>
  <course>264.73</course>
  <speed>0.05</speed>
  <fix>3d</fix>
</trkpt>
<trkpt lat="-35.2750227" lon="148.9863596">
  <ele>658.44</ele>
  <time>2026-09-01T20:00:20Z</time>
  <course>348.6</course>
  <speed>0.03</speed>
  <fix>3d</fix>
</trkpt>
<trkpt lat="-35.2750227" lon="148.9863595">
  <ele>658.55</ele>
  <time>2026-09-01T20:00:20Z</time>
  <course>264.73</course>
  <speed>0.05</speed>
  <fix>3d</fix>
</trkpt>
<trkpt lat="-35.2750226" lon="148.9863596">
  <ele>658.44</ele>
  <time>2026-09-01T20:00:20Z</time>
  <course>348.59</course>
  <speed>0.0316227766016838</speed>
  <fix>3d</fix>
</trkpt>
<trkpt lat="-35.2750227" lon="148.9863594">
  <ele>658.56</ele>
  <time>2026-09-01T20:00:20Z</time>
  <course>289.41</course>
  <speed>0.06</speed>
  <fix>3d</fix>
</trkpt>
<trkpt lat="-35.2750226" lon="148.9863595">
  <ele>658.44</ele>
  <time>2026-09-01T20:00:20Z</time>
  <course>348.58</course>
  <speed>0.04242640687119285</speed>
  <fix>3d</fix>
</trkpt>
<trkpt lat="-35.2750227" lon="148.9863594">
  <ele>658.56</ele>
  <time>2026-09-01T20:00:20Z</time>
  <course>289.41</course>
  <speed>0.06</speed>
  <fix>3d</fix>
</trkpt>
<trkpt lat="-35.2750226" lon="148.9863594">
  <ele>658.44</ele>
  <time>2026-09-01T20:00:20Z</time>
  <course>348.58</course>
  <speed>0.05</speed>
  <fix>3d</fix>
</trkpt>
<trkpt lat="-35.2750226" lon="148.9863592">
  <ele>658.56</ele>
  <time>2026-09-01T20:00:20Z</time>
  <course>305.62</course>
  <speed>0.07</speed>
  <fix>3d</fix>
</trkpt>
<trkpt lat="-35.2750225" lon="148.9863594">
  <ele>658.44</ele>
  <time>2026-09-01T20:00:20Z</time>
  <course>348.58</course>
  <speed>0.05830951894845301</speed>
  <fix>3d</fix>
</trkpt>
<trkpt lat="-35.2750226" lon="148.9863592">
  <ele>658.56</ele>
  <time>2026-09-01T20:00:20Z</time>
  <course>305.62</course>
  <speed>0.07</speed>
  <fix>3d</fix>
</trkpt>
<trkpt lat="-35.2750226" lon="148.9863593">
  <ele>658.44</ele>
  <time>2026-09-01T20:00:20Z</time>
  <course>348.59</course>
  <speed>0.0670820393249937</speed>
  <fix>3d</fix>
</trkpt>
<trkpt lat="-35.2750226" lon="148.9863592">
  <ele>658.56</ele>
  <time>2026-09-01T20:00:20Z</time>
  <course>305.62</course>
  <speed>0.07</speed>
  <fix>3d</fix>
</trkpt>
<trkpt lat="-35.2750225" lon="148.9863592">
  <ele>658.44</ele>
  <time>2026-09-01T20:00:20Z</time>
  <course>348.59</course>
  <speed>0.07615773105863909</speed>
  <fix>3d</fix>
</trkpt>
<trkpt lat="-35.2750226" lon="148.9863591">
  <ele>658.56</ele>
  <time>2026-09-01T20:00:20Z</time>
  <course>316.3</course>
  <speed>0.08</speed>
  <fix>3d</fix>
</trkpt>
<trkpt lat="-35.2750224" lon="148.9863592">
  <ele>658.44</ele>
  <time>2026-09-01T20:00:20Z</time>
  <course>348.59</course>
  <speed>0.07615773105863909</speed>
  <fix>3d</fix>
</trkpt>
<trkpt lat="-35.2750225" lon="148.986359">
  <ele>658.56</ele>
  <time>2026-09-01T20:00:20Z</time>
  <course>323.95</course>
  <speed>0.1</speed>
  <fix>3d</fix>
</trkpt>
<trkpt lat="-35.2750224" lon="148.9863591">
  <ele>658.44</ele>
  <time>2026-09-01T20:00:20Z</time>
  <course>348.58</course>
  <speed>0.0854400374531753</speed>
  <fix>3d</fix>
</trkpt>
<trkpt lat="-35.2750225" lon="148.986359">
  <ele>658.56</ele>
  <time>2026-09-01T20:00:20Z</time>
  <course>323.95</course>
  <speed>0.1</speed>
  <fix>3d</fix>
</trkpt>
<trkpt lat="-35.2750223" lon="148.9863591">
  <ele>658.44</ele>
  <time>2026-09-01T20:00:20Z</time>
  <course>348.57</course>
  <speed>0.09486832980505139</speed>
  <fix>3d</fix>
</trkpt>
<trkpt lat="-35.2750222" lon="148.9863588">
  <ele>658.56</ele>
  <time>2026-09-01T20:00:20Z</time>
  <course>329.63</course>
  <speed>0.11</speed>
  <fix>3d</fix>
</trkpt>
<trkpt lat="-35.2750222" lon="148.986359">
  <ele>658.44</ele>
  <time>2026-09-01T20:00:20Z</time>
  <course>348.57</course>
  <speed>0.1044030650891055</speed>
  <fix>3d</fix>
</trkpt>
<trkpt lat="-35.2750222" lon="148.9863588">
  <ele>658.56</ele>
  <time>2026-09-01T20:00:20Z</time>
  <course>329.63</course>
  <speed>0.11</speed>
  <fix>3d</fix>
</trkpt>
<trkpt lat="-35.2750221" lon="148.9863589">
  <ele>658.44</ele>
  <time>2026-09-01T20:00:20Z</time>
  <course>348.57</course>
  <speed>0.1019803902718557</speed>
  <fix>3d</fix>
</trkpt>
<trkpt lat="-35.2750221" lon="148.9863587">
  <ele>658.57</ele>
  <time>2026-09-01T20:00:20Z</time>
  <course>334.05</course>
  <speed>0.12</speed>
  <fix>3d</fix>
</trkpt>
<trkpt lat="-35.275022" lon="148.9863589">
  <ele>658.44</ele>
  <time>2026-09-01T20:00:20Z</time>
  <course>348.58</course>
  <speed>0.1118033988749895</speed>
  <fix>3d</fix>
</trkpt>
<trkpt lat="-35.2750221" lon="148.9863587">
  <ele>658.57</ele>
  <time>2026-09-01T20:00:20Z</time>
  <course>334.05</course>
  <speed>0.12</speed>
  <fix>3d</fix>
</trkpt>
<trkpt lat="-35.2750219" lon="148.9863588">
  <ele>658.44</ele>
  <time>2026-09-01T20:00:20Z</time>
  <course>348.58</course>
  <speed>0.1118033988749895</speed>
  <fix>3d</fix>
</trkpt>
<trkpt lat="-35.2750219" lon="148.9863586">
  <ele>658.57</ele>
  <time>2026-09-01T20:00:20Z</time>
  <course>337.71</course>
  <speed>0.13</speed>
  <fix>3d</fix>
</trkpt>
<trkpt lat="-35.2750217" lon="148.9863588">
  <ele>658.44</ele>
  <time>2026-09-01T20:00:20Z</time>
  <course>348.57</course>
  <speed>0.12165525060596438</speed>
  <fix>3d</fix>
</trkpt>
<trkpt lat="-35.2750219" lon="148.9863586">
  <ele>658.57</ele>
  <time>2026-09-01T20:00:20Z</time>
  <course>337.71</course>
  <speed>0.13</speed>
  <fix>3d</fix>
</trkpt>
<trkpt lat="-35.2750216" lon="148.9863587">
  <ele>658.44</ele>
  <time>2026-09-01T20:00:20Z</time>
  <course>348.57</course>
  <speed>0.12041594578792296</speed>
  <fix>3d</fix>
</trkpt>
<trkpt lat="-35.2750216" lon="148.9863585">
  <ele>658.57</ele>
  <time>2026-09-01T20:00:20Z</time>
  <course>340.89</course>
  <speed>0.14</speed>
  <fix>3d</fix>
</trkpt>
<trkpt lat="-35.2750215" lon="148.9863587">
  <ele>658.44</ele>
  <time>2026-09-01T20:00:20Z</time>
  <course>348.57</course>
  <speed>0.12041594578792296</speed>
  <fix>3d</fix>
</trkpt>
<trkpt lat="-35.2750216" lon="148.9863585">
  <ele>658.57</ele>
  <time>2026-09-01T20:00:20Z</time>
  <course>340.89</course>
  <speed>0.14</speed>
  <fix>3d</fix>
</trkpt>
<trkpt lat="-35.2750214" lon="148.9863586">
  <ele>658.44</ele>
  <time>2026-09-01T20:00:20Z</time>
  <course>348.57</course>
  <speed>0.12041594578792296</speed>
  <fix>3d</fix>
</trkpt>
<trkpt lat="-35.2750214" lon="148.9863584">
  <ele>658.57</ele>
  <time>2026-09-01T20:00:20Z</time>
  <course>343.89</course>
  <speed>0.15</speed>
  <fix>3d</fix>
</trkpt>
<trkpt lat="-35.2750213" lon="148.9863586">
  <ele>658.44</ele>
  <time>2026-09-01T20:00:20Z</time>
  <course>348.56</course>
  <speed>0.130384048104053</speed>
  <fix>3d</fix>
</trkpt>
<trkpt lat="-35.2750214" lon="148.9863584">
  <ele>658.57</ele>
  <time>2026-09-01T20:00:20Z</time>
  <course>343.89</course>
  <speed>0.15</speed>
  <fix>3d</fix>
</trkpt>
<trkpt lat="-35.2750211" lon="148.9863586">
  <ele>658.44</ele>
  <time>2026-09-01T20:00:20Z</time>
  <course>348.56</course>
  <speed>0.13</speed>
  <fix>3d</fix>
</trkpt>
<trkpt lat="-35.2750211" lon="148.9863583">
  <ele>658.57</ele>
  <time>2026-09-01T20:00:20Z</time>
  <course>346.83</course>
  <speed>0.15</speed>
  <fix>3d</fix>
</trkpt>
<trkpt lat="-35.275021" lon="148.9863585">
  <ele>658.44</ele>
  <time>2026-09-01T20:00:20Z</time>
  <course>348.56</course>
  <speed>0.13</speed>
  <fix>3d</fix>
</trkpt>
<trkpt lat="-35.2750211" lon="148.9863583">
  <ele>658.57</ele>
  <time>2026-09-01T20:00:20Z</time>
  <course>346.83</course>
  <speed>0.15</speed>
  <fix>3d</fix>
</trkpt>
<trkpt lat="-35.2750209" lon="148.9863585">
  <ele>658.44</ele>
  <time>2026-09-01T20:00:20Z</time>
  <course>348.55</course>
  <speed>0.12</speed>
  <fix>3d</fix>
</trkpt>
<trkpt lat="-35.2750208" lon="148.9863582">
  <ele>658.57</ele>
  <time>2026-09-01T20:00:20Z</time>
  <course>349.57</course>
  <speed>0.15</speed>
  <fix>3d</fix>
</trkpt>
<trkpt lat="-35.2750207" lon="148.9863585">
  <ele>658.44</ele>
  <time>2026-09-01T20:00:20Z</time>
  <course>348.55</course>
  <speed>0.12</speed>
  <fix>3d</fix>
</trkpt>
<trkpt lat="-35.2750208" lon="148.9863582">
  <ele>658.57</ele>
  <time>2026-09-01T20:00:20Z</time>
  <course>349.57</course>
  <speed>0.15</speed>
  <fix>3d</fix>
</trkpt>
<trkpt lat="-35.2750206" lon="148.9863585">
  <ele>658.44</ele>
  <time>2026-09-01T20:00:20Z</time>
  <course>348.55</course>
  <speed>0.12</speed>
  <fix>3d</fix>
</trkpt>
<trkpt lat="-35.2750206" lon="148.9863581">
  <ele>658.57</ele>
  <time>2026-09-01T20:00:20Z</time>
  <course>352.05</course>
  <speed>0.14</speed>
  <fix>3d</fix>
</trkpt>
<trkpt lat="-35.2750205" lon="148.9863584">
  <ele>658.44</ele>
  <time>2026-09-01T20:00:20Z</time>
  <course>348.55</course>
  <speed>0.12</speed>
  <fix>3d</fix>
</trkpt>
<trkpt lat="-35.2750206" lon="148.9863581">
  <ele>658.57</ele>
  <time>2026-09-01T20:00:20Z</time>
  <course>352.05</course>
  <speed>0.14</speed>
  <fix>3d</fix>
</trkpt>
<trkpt lat="-35.2750204" lon="148.9863584">
  <ele>658.44</ele>
  <time>2026-09-01T20:00:20Z</time>
  <course>348.55</course>
  <speed>0.11045361017187261</speed>
  <fix>3d</fix>
</trkpt>
<trkpt lat="-35.2750206" lon="148.9863581">
  <ele>658.57</ele>
  <time>2026-09-01T20:00:20Z</time>
  <course>352.05</course>
  <speed>0.14</speed>
  <fix>3d</fix>
</trkpt>
<trkpt lat="-35.2750203" lon="148.9863584">
  <ele>658.43</ele>
  <time>2026-09-01T20:00:20Z</time>
  <course>348.55</course>
  <speed>0.11045361017187261</speed>
  <fix>3d</fix>
</trkpt>
<trkpt lat="-35.2750203" lon="148.9863581">
  <ele>658.57</ele>
  <time>2026-09-01T20:00:20Z</time>
  <course>354.37</course>
  <speed>0.14</speed>
  <fix>3d</fix>
</trkpt>
<trkpt lat="-35.2750201" lon="148.9863584">
  <ele>658.43</ele>
  <time>2026-09-01T20:00:20Z</time>
  <course>348.55</course>
  <speed>0.1004987562112089</speed>
  <fix>3d</fix>
</trkpt>
<trkpt lat="-35.2750203" lon="148.9863581">
  <ele>658.57</ele>
  <time>2026-09-01T20:00:20Z</time>
  <course>354.37</course>
  <speed>0.14</speed>
  <fix>3d</fix>
</trkpt>
<trkpt lat="-35.27502" lon="148.9863584">
  <ele>658.44</ele>
  <time>2026-09-01T20:00:20Z</time>
  <course>348.55</course>
  <speed>0.09219544457292887</speed>
  <fix>3d</fix>
</trkpt>
<trkpt lat="-35.2750201" lon="148.9863581">
  <ele>658.57</ele>
  <time>2026-09-01T20:00:20Z</time>
  <course>357.06</course>
  <speed>0.13</speed>
  <fix>3d</fix>
</trkpt>
<trkpt lat="-35.2750199" lon="148.9863584">
  <ele>658.44</ele>
  <time>2026-09-01T20:00:20Z</time>
  <course>348.54</course>
  <speed>0.09219544457292887</speed>
  <fix>3d</fix>
</trkpt>
<trkpt lat="-35.2750201" lon="148.9863581">
  <ele>658.57</ele>
  <time>2026-09-01T20:00:20Z</time>
  <course>357.06</course>
  <speed>0.13</speed>
  <fix>3d</fix>
</trkpt>
<trkpt lat="-35.2750198" lon="148.9863584">
  <ele>658.44</ele>
  <time>2026-09-01T20:00:20Z</time>
  <course>348.54</course>
  <speed>0.0854400374531753</speed>
  <fix>3d</fix>
</trkpt>
<trkpt lat="-35.2750198" lon="148.9863581">
  <ele>658.57</ele>
  <time>2026-09-01T20:00:20Z</time>
  <course>0.63</course>
  <speed>0.11</speed>
  <fix>3d</fix>
</trkpt>
<trkpt lat="-35.2750198" lon="148.9863584">
  <ele>658.44</ele>
  <time>2026-09-01T20:00:20Z</time>
  <course>348.53</course>
  <speed>0.07615773105863909</speed>
  <fix>3d</fix>
</trkpt>
<trkpt lat="-35.2750198" lon="148.9863581">
  <ele>658.57</ele>
  <time>2026-09-01T20:00:20Z</time>
  <course>0.63</course>
  <speed>0.11</speed>
  <fix>3d</fix>
</trkpt>
<trkpt lat="-35.2750197" lon="148.9863584">
  <ele>658.44</ele>
  <time>2026-09-01T20:00:20Z</time>
  <course>348.53</course>
  <speed>0.07615773105863909</speed>
  <fix>3d</fix>
</trkpt>
<trkpt lat="-35.2750197" lon="148.9863581">
  <ele>658.57</ele>
  <time>2026-09-01T20:00:20Z</time>
  <course>5.08</course>
  <speed>0.1</speed>
  <fix>3d</fix>
</trkpt>
<trkpt lat="-35.2750196" lon="148.9863584">
  <ele>658.44</ele>
  <time>2026-09-01T20:00:20Z</time>
  <course>348.53</course>
  <speed>0.07211102550927978</speed>
  <fix>3d</fix>
</trkpt>
<trkpt lat="-35.2750197" lon="148.9863581">
  <ele>658.57</ele>
  <time>2026-09-01T20:00:20Z</time>
  <course>5.08</course>
  <speed>0.1</speed>
  <fix>3d</fix>
</trkpt>
<trkpt lat="-35.2750195" lon="148.9863584">
  <ele>658.44</ele>
  <time>2026-09-01T20:00:20Z</time>
  <course>348.52</course>
  <speed>0.06403124237432849</speed>
  <fix>3d</fix>
</trkpt>
<trkpt lat="-35.2750195" lon="148.9863581">
  <ele>658.57</ele>
  <time>2026-09-01T20:00:20Z</time>
  <course>10.37</course>
  <speed>0.09</speed>
  <fix>3d</fix>
</trkpt>
<trkpt lat="-35.2750195" lon="148.9863584">
  <ele>658.44</ele>
  <time>2026-09-01T20:00:20Z</time>
  <course>348.52</course>
  <speed>0.0565685424949238</speed>
  <fix>3d</fix>
</trkpt>
<trkpt lat="-35.2750193" lon="148.9863581">
  <ele>658.57</ele>
  <time>2026-09-01T20:00:20Z</time>
  <course>16.73</course>
  <speed>0.08</speed>
  <fix>3d</fix>
</trkpt>
<trkpt lat="-35.2750194" lon="148.9863584">
  <ele>658.44</ele>
  <time>2026-09-01T20:00:20Z</time>
  <course>348.52</course>
  <speed>0.0565685424949238</speed>
  <fix>3d</fix>
</trkpt>
<trkpt lat="-35.2750193" lon="148.9863581">
  <ele>658.57</ele>
  <time>2026-09-01T20:00:20Z</time>
  <course>16.73</course>
  <speed>0.08</speed>
  <fix>3d</fix>
</trkpt>
<trkpt lat="-35.2750194" lon="148.9863584">
  <ele>658.44</ele>
  <time>2026-09-01T20:00:20Z</time>
  <course>348.51</course>
  <speed>0.05830951894845301</speed>
  <fix>3d</fix>
</trkpt>
<trkpt lat="-35.2750192" lon="148.9863581">
  <ele>658.57</ele>
  <time>2026-09-01T20:00:20Z</time>
  <course>24.54</course>
  <speed>0.06</speed>
  <fix>3d</fix>
</trkpt>
<trkpt lat="-35.2750193" lon="148.9863584">
  <ele>658.44</ele>
  <time>2026-09-01T20:00:20Z</time>
  <course>348.51</course>
  <speed>0.053851648071345036</speed>
  <fix>3d</fix>
</trkpt>
<trkpt lat="-35.2750192" lon="148.9863581">
  <ele>658.57</ele>
  <time>2026-09-01T20:00:20Z</time>
  <course>24.54</course>
  <speed>0.06</speed>
  <fix>3d</fix>
</trkpt>
<trkpt lat="-35.2750193" lon="148.9863585">
  <ele>658.44</ele>
  <time>2026-09-01T20:00:20Z</time>
  <course>348.51</course>
  <speed>0.053851648071345036</speed>
  <fix>3d</fix>
</trkpt>
<trkpt lat="-35.2750191" lon="148.9863582">
  <ele>658.57</ele>
  <time>2026-09-01T20:00:20Z</time>
  <course>34.6</course>
  <speed>0.05</speed>
  <fix>3d</fix>
</trkpt>
<trkpt lat="-35.2750192" lon="148.9863585">
  <ele>658.44</ele>
  <time>2026-09-01T20:00:20Z</time>
  <course>348.51</course>
  <speed>0.05099019513592785</speed>
  <fix>3d</fix>
</trkpt>
<trkpt lat="-35.2750191" lon="148.9863582">
  <ele>658.57</ele>
  <time>2026-09-01T20:00:20Z</time>
  <course>34.6</course>
  <speed>0.05</speed>
  <fix>3d</fix>
</trkpt>
<trkpt lat="-35.2750192" lon="148.9863585">
  <ele>658.44</ele>
  <time>2026-09-01T20:00:20Z</time>
  <course>348.51</course>
  <speed>0.05</speed>
  <fix>3d</fix>
</trkpt>
<trkpt lat="-35.275019" lon="148.9863583">
  <ele>658.57</ele>
  <time>2026-09-01T20:00:20Z</time>
  <course>48.7</course>
  <speed>0.05</speed>
  <fix>3d</fix>
</trkpt>
<trkpt lat="-35.2750192" lon="148.9863586">
  <ele>658.44</ele>
  <time>2026-09-01T20:00:20Z</time>
  <course>348.51</course>
  <speed>0.05</speed>
  <fix>3d</fix>
</trkpt>
<trkpt lat="-35.275019" lon="148.9863583">
  <ele>658.57</ele>
  <time>2026-09-01T20:00:20Z</time>
  <course>48.7</course>
  <speed>0.05</speed>
  <fix>3d</fix>
</trkpt>
<trkpt lat="-35.2750192" lon="148.9863586">
  <ele>658.44</ele>
  <time>2026-09-01T20:00:20Z</time>
  <course>348.52</course>
  <speed>0.06082762530298219</speed>
  <fix>3d</fix>
</trkpt>
<trkpt lat="-35.275019" lon="148.9863584">
  <ele>658.57</ele>
  <time>2026-09-01T20:00:20Z</time>
  <course>68.48</course>
  <speed>0.04</speed>
  <fix>3d</fix>
</trkpt>
<trkpt lat="-35.2750192" lon="148.9863587">
  <ele>658.44</ele>
  <time>2026-09-01T20:00:20Z</time>
  <course>348.52</course>
  <speed>0.0632455532033676</speed>
  <fix>3d</fix>
</trkpt>
<trkpt lat="-35.275019" lon="148.9863584">
  <ele>658.57</ele>
  <time>2026-09-01T20:00:20Z</time>
  <course>68.48</course>
  <speed>0.04</speed>
  <fix>3d</fix>
</trkpt>
<trkpt lat="-35.2750192" lon="148.9863587">
  <ele>658.44</ele>
  <time>2026-09-01T20:00:20Z</time>
  <course>348.53</course>
  <speed>0.0632455532033676</speed>
  <fix>3d</fix>
</trkpt>
<trkpt lat="-35.275019" lon="148.9863584">
  <ele>658.57</ele>
  <time>2026-09-01T20:00:20Z</time>
  <course>68.48</course>
  <speed>0.04</speed>
  <fix>3d</fix>
</trkpt>
<trkpt lat="-35.2750192" lon="148.9863587">
  <ele>658.44</ele>
  <time>2026-09-01T20:00:20Z</time>
  <course>348.53</course>
  <speed>0.0670820393249937</speed>
  <fix>3d</fix>
</trkpt>
<trkpt lat="-35.275019" lon="148.9863585">
  <ele>658.57</ele>
  <time>2026-09-01T20:00:20Z</time>
  <course>91.27</course>
  <speed>0.04</speed>
  <fix>3d</fix>
</trkpt>
<trkpt lat="-35.2750192" lon="148.9863588">
  <ele>658.44</ele>
  <time>2026-09-01T20:00:20Z</time>
  <course>348.52</course>
  <speed>0.07211102550927978</speed>
  <fix>3d</fix>
</trkpt>
<trkpt lat="-35.275019" lon="148.9863585">
  <ele>658.57</ele>
  <time>2026-09-01T20:00:20Z</time>
  <course>91.27</course>
  <speed>0.04</speed>
  <fix>3d</fix>
</trkpt>
<trkpt lat="-35.2750192" lon="148.9863588">
  <ele>658.44</ele>
  <time>2026-09-01T20:00:20Z</time>
  <course>348.52</course>
  <speed>0.07211102550927978</speed>
  <fix>3d</fix>
</trkpt>
<trkpt lat="-35.275019" lon="148.9863586">
  <ele>658.57</ele>
  <time>2026-09-01T20:00:20Z</time>
  <course>110.1</course>
  <speed>0.04</speed>
  <fix>3d</fix>
</trkpt>
<trkpt lat="-35.2750192" lon="148.9863589">
  <ele>658.44</ele>
  <time>2026-09-01T20:00:20Z</time>
  <course>348.51</course>
  <speed>0.07810249675906654</speed>
  <fix>3d</fix>
</trkpt>
<trkpt lat="-35.275019" lon="148.9863586">
  <ele>658.57</ele>
  <time>2026-09-01T20:00:20Z</time>
  <course>110.1</course>
  <speed>0.04</speed>
  <fix>3d</fix>
</trkpt>
<trkpt lat="-35.2750192" lon="148.9863589">
  <ele>658.44</ele>
  <time>2026-09-01T20:00:20Z</time>
  <course>348.51</course>
  <speed>0.0848528137423857</speed>
  <fix>3d</fix>
</trkpt>
<trkpt lat="-35.275019" lon="148.9863587">
  <ele>658.57</ele>
  <time>2026-09-01T20:00:20Z</time>
  <course>122.53</course>
  <speed>0.05</speed>
  <fix>3d</fix>
</trkpt>
<trkpt lat="-35.2750192" lon="148.986359">
  <ele>658.44</ele>
  <time>2026-09-01T20:00:20Z</time>
  <course>348.51</course>
  <speed>0.0848528137423857</speed>
  <fix>3d</fix>
</trkpt>
<trkpt lat="-35.275019" lon="148.9863587">
  <ele>658.57</ele>
  <time>2026-09-01T20:00:20Z</time>
  <course>122.53</course>
  <speed>0.05</speed>
  <fix>3d</fix>
</trkpt>
<trkpt lat="-35.2750193" lon="148.986359">
  <ele>658.44</ele>
  <time>2026-09-01T20:00:20Z</time>
  <course>348.51</course>
  <speed>0.0848528137423857</speed>
  <fix>3d</fix>
</trkpt>
<trkpt lat="-35.275019" lon="148.9863588">
  <ele>658.57</ele>
  <time>2026-09-01T20:00:20Z</time>
  <course>130.51</course>
  <speed>0.06</speed>
  <fix>3d</fix>
</trkpt>
<trkpt lat="-35.2750193" lon="148.9863591">
  <ele>658.44</ele>
  <time>2026-09-01T20:00:20Z</time>
  <course>348.5</course>
  <speed>0.09219544457292887</speed>
  <fix>3d</fix>
</trkpt>
<trkpt lat="-35.275019" lon="148.9863588">
  <ele>658.57</ele>
  <time>2026-09-01T20:00:20Z</time>
  <course>130.51</course>
  <speed>0.06</speed>
  <fix>3d</fix>
</trkpt>
<trkpt lat="-35.2750194" lon="148.9863591">
  <ele>658.44</ele>
  <time>2026-09-01T20:00:20Z</time>
  <course>348.5</course>
  <speed>0.09219544457292887</speed>
  <fix>3d</fix>
</trkpt>
<trkpt lat="-35.275019" lon="148.9863589">
  <ele>658.56</ele>
  <time>2026-09-01T20:00:20Z</time>
  <course>136.31</course>
  <speed>0.06</speed>
  <fix>3d</fix>
</trkpt>
<trkpt lat="-35.2750194" lon="148.9863592">
  <ele>658.44</ele>
  <time>2026-09-01T20:00:20Z</time>
  <course>348.49</course>
  <speed>0.09219544457292887</speed>
  <fix>3d</fix>
</trkpt>
<trkpt lat="-35.275019" lon="148.9863589">
  <ele>658.56</ele>
  <time>2026-09-01T20:00:20Z</time>
  <course>136.31</course>
  <speed>0.06</speed>
  <fix>3d</fix>
</trkpt>
<trkpt lat="-35.2750194" lon="148.9863592">
  <ele>658.44</ele>
  <time>2026-09-01T20:00:20Z</time>
  <course>348.49</course>
  <speed>0.08602325267042626</speed>
  <fix>3d</fix>
</trkpt>
<trkpt lat="-35.2750191" lon="148.986359">
  <ele>658.56</ele>
  <time>2026-09-01T20:00:20Z</time>
  <course>141.24</course>
  <speed>0.07</speed>
  <fix>3d</fix>
</trkpt>
<trkpt lat="-35.2750195" lon="148.9863593">
  <ele>658.44</ele>
  <time>2026-09-01T20:00:20Z</time>
  <course>348.49</course>
  <speed>0.09433981132056603</speed>
  <fix>3d</fix>
</trkpt>
<trkpt lat="-35.2750191" lon="148.986359">
  <ele>658.56</ele>
  <time>2026-09-01T20:00:20Z</time>
  <course>141.24</course>
  <speed>0.07</speed>
  <fix>3d</fix>
</trkpt>
<trkpt lat="-35.2750195" lon="148.9863593">
  <ele>658.45</ele>
  <time>2026-09-01T20:00:20Z</time>
  <course>348.49</course>
  <speed>0.09433981132056603</speed>
  <fix>3d</fix>
</trkpt>
<trkpt lat="-35.2750192" lon="148.9863591">
  <ele>658.56</ele>
  <time>2026-09-01T20:00:20Z</time>
  <course>145.61</course>
  <speed>0.07</speed>
  <fix>3d</fix>
</trkpt>
<trkpt lat="-35.2750196" lon="148.9863593">
  <ele>658.45</ele>
  <time>2026-09-01T20:00:20Z</time>
  <course>348.49</course>
  <speed>0.09433981132056603</speed>
  <fix>3d</fix>
</trkpt>
<trkpt lat="-35.2750192" lon="148.9863591">
  <ele>658.56</ele>
  <time>2026-09-01T20:00:20Z</time>
  <course>145.61</course>
  <speed>0.07</speed>
  <fix>3d</fix>
</trkpt>
<trkpt lat="-35.2750196" lon="148.9863594">
  <ele>658.45</ele>
  <time>2026-09-01T20:00:20Z</time>
  <course>348.5</course>
  <speed>0.09433981132056603</speed>
  <fix>3d</fix>
</trkpt>
<trkpt lat="-35.2750194" lon="148.9863592">
  <ele>658.56</ele>
  <time>2026-09-01T20:00:20Z</time>
  <course>149.49</course>
  <speed>0.07</speed>
  <fix>3d</fix>
</trkpt>
<trkpt lat="-35.2750197" lon="148.9863594">
  <ele>658.45</ele>
  <time>2026-09-01T20:00:20Z</time>
  <course>348.5</course>
  <speed>0.08944271909999159</speed>
  <fix>3d</fix>
</trkpt>
<trkpt lat="-35.2750194" lon="148.9863592">
  <ele>658.56</ele>
  <time>2026-09-01T20:00:20Z</time>
  <course>149.49</course>
  <speed>0.07</speed>
  <fix>3d</fix>
</trkpt>
<trkpt lat="-35.2750197" lon="148.9863595">
  <ele>658.45</ele>
  <time>2026-09-01T20:00:20Z</time>
  <course>348.49</course>
  <speed>0.08944271909999159</speed>
  <fix>3d</fix>
</trkpt>
<trkpt lat="-35.2750195" lon="148.9863593">
  <ele>658.56</ele>
  <time>2026-09-01T20:00:20Z</time>
  <course>153.06</course>
  <speed>0.07</speed>
  <fix>3d</fix>
</trkpt>
<trkpt lat="-35.2750198" lon="148.9863595">
  <ele>658.45</ele>
  <time>2026-09-01T20:00:20Z</time>
  <course>348.48</course>
  <speed>0.08944271909999159</speed>
  <fix>3d</fix>
</trkpt>
<trkpt lat="-35.2750196" lon="148.9863594">
  <ele>658.56</ele>
  <time>2026-09-01T20:00:20Z</time>
  <course>156.74</course>
  <speed>0.07</speed>
  <fix>3d</fix>
</trkpt>
<trkpt lat="-35.2750199" lon="148.9863595">
  <ele>658.45</ele>
  <time>2026-09-01T20:00:20Z</time>
  <course>348.47</course>
  <speed>0.08944271909999159</speed>
  <fix>3d</fix>
</trkpt>
<trkpt lat="-35.2750196" lon="148.9863594">
  <ele>658.56</ele>
  <time>2026-09-01T20:00:20Z</time>
  <course>156.74</course>
  <speed>0.07</speed>
  <fix>3d</fix>
</trkpt>
<trkpt lat="-35.2750199" lon="148.9863595">
  <ele>658.45</ele>
  <time>2026-09-01T20:00:20Z</time>
  <course>348.47</course>
  <speed>0.0854400374531753</speed>
  <fix>3d</fix>
</trkpt>
<trkpt lat="-35.2750197" lon="148.9863594">
  <ele>658.55</ele>
  <time>2026-09-01T20:00:20Z</time>
  <course>160.43</course>
  <speed>0.07</speed>
  <fix>3d</fix>
</trkpt>
<trkpt lat="-35.27502" lon="148.9863596">
  <ele>658.45</ele>
  <time>2026-09-01T20:00:20Z</time>
  <course>348.48</course>
  <speed>0.0854400374531753</speed>
  <fix>3d</fix>
</trkpt>
<trkpt lat="-35.2750197" lon="148.9863594">
  <ele>658.55</ele>
  <time>2026-09-01T20:00:20Z</time>
  <course>160.43</course>
  <speed>0.07</speed>
  <fix>3d</fix>
</trkpt>
<trkpt lat="-35.27502" lon="148.9863596">
  <ele>658.45</ele>
  <time>2026-09-01T20:00:20Z</time>
  <course>348.48</course>
  <speed>0.0854400374531753</speed>
  <fix>3d</fix>
</trkpt>
<trkpt lat="-35.2750197" lon="148.9863594">
  <ele>658.55</ele>
  <time>2026-09-01T20:00:20Z</time>
  <course>160.43</course>
  <speed>0.07</speed>
  <fix>3d</fix>
</trkpt>
<trkpt lat="-35.2750201" lon="148.9863596">
  <ele>658.45</ele>
  <time>2026-09-01T20:00:20Z</time>
  <course>348.49</course>
  <speed>0.0854400374531753</speed>
  <fix>3d</fix>
</trkpt>
<trkpt lat="-35.2750199" lon="148.9863595">
  <ele>658.55</ele>
  <time>2026-09-01T20:00:20Z</time>
  <course>164.06</course>
  <speed>0.07</speed>
  <fix>3d</fix>
</trkpt>
<trkpt lat="-35.2750201" lon="148.9863596">
  <ele>658.44</ele>
  <time>2026-09-01T20:00:20Z</time>
  <course>348.49</course>
  <speed>0.0824621125123532</speed>
  <fix>3d</fix>
</trkpt>
<trkpt lat="-35.2750199" lon="148.9863595">
  <ele>658.55</ele>
  <time>2026-09-01T20:00:20Z</time>
  <course>164.06</course>
  <speed>0.07</speed>
  <fix>3d</fix>
</trkpt>
<trkpt lat="-35.2750202" lon="148.9863596">
  <ele>658.44</ele>
  <time>2026-09-01T20:00:20Z</time>
  <course>348.48</course>
  <speed>0.07280109889280519</speed>
  <fix>3d</fix>
</trkpt>
<trkpt lat="-35.27502" lon="148.9863595">
  <ele>658.55</ele>
  <time>2026-09-01T20:00:20Z</time>
  <course>167.77</course>
  <speed>0.07</speed>
  <fix>3d</fix>
</trkpt>
<trkpt lat="-35.2750203" lon="148.9863597">
  <ele>658.44</ele>
  <time>2026-09-01T20:00:20Z</time>
  <course>348.47</course>
  <speed>0.07280109889280519</speed>
  <fix>3d</fix>
</trkpt>
<trkpt lat="-35.27502" lon="148.9863595">
  <ele>658.55</ele>
  <time>2026-09-01T20:00:20Z</time>
  <course>167.77</course>
  <speed>0.07</speed>
  <fix>3d</fix>
</trkpt>
<trkpt lat="-35.2750203" lon="148.9863597">
  <ele>658.44</ele>
  <time>2026-09-01T20:00:20Z</time>
  <course>348.46</course>
  <speed>0.07280109889280519</speed>
  <fix>3d</fix>
</trkpt>
<trkpt lat="-35.2750201" lon="148.9863595">
  <ele>658.54</ele>
  <time>2026-09-01T20:00:20Z</time>
  <course>171.25</course>
  <speed>0.06</speed>
  <fix>3d</fix>
</trkpt>
<trkpt lat="-35.2750204" lon="148.9863597">
  <ele>658.44</ele>
  <time>2026-09-01T20:00:20Z</time>
  <course>348.45</course>
  <speed>0.0632455532033676</speed>
  <fix>3d</fix>
</trkpt>
<trkpt lat="-35.2750201" lon="148.9863595">
  <ele>658.54</ele>
  <time>2026-09-01T20:00:20Z</time>
  <course>171.25</course>
  <speed>0.06</speed>
  <fix>3d</fix>
</trkpt>
<trkpt lat="-35.2750204" lon="148.9863597">
  <ele>658.43</ele>
  <time>2026-09-01T20:00:20Z</time>
  <course>348.44</course>
  <speed>0.06082762530298219</speed>
  <fix>3d</fix>
</trkpt>
<trkpt lat="-35.2750202" lon="148.9863595">
  <ele>658.54</ele>
  <time>2026-09-01T20:00:20Z</time>
  <course>174.27</course>
  <speed>0.06</speed>
  <fix>3d</fix>
</trkpt>
<trkpt lat="-35.2750204" lon="148.9863597">
  <ele>658.43</ele>
  <time>2026-09-01T20:00:20Z</time>
  <course>348.43</course>
  <speed>0.05099019513592785</speed>
  <fix>3d</fix>
</trkpt>
<trkpt lat="-35.2750202" lon="148.9863595">
  <ele>658.54</ele>
  <time>2026-09-01T20:00:20Z</time>
  <course>174.27</course>
  <speed>0.06</speed>
  <fix>3d</fix>
</trkpt>
<trkpt lat="-35.2750205" lon="148.9863597">
  <ele>658.43</ele>
  <time>2026-09-01T20:00:20Z</time>
  <course>348.47</course>
  <speed>0.0</speed>
  <fix>3d</fix>
</trkpt>
<trkpt lat="-35.2750204" lon="148.9863595">
  <ele>658.54</ele>
  <time>2026-09-01T20:00:20Z</time>
  <course>178.16</course>
  <speed>0.05</speed>
  <fix>3d</fix>
</trkpt>
<trkpt lat="-35.2750204" lon="148.9863596">
  <ele>658.43</ele>
  <time>2026-09-01T20:00:20Z</time>
  <course>348.56</course>
  <speed>0.11045361017187261</speed>
  <fix>3d</fix>
</trkpt>
<trkpt lat="-35.2750204" lon="148.9863595">
  <ele>658.54</ele>
  <time>2026-09-01T20:00:20Z</time>
  <course>178.16</course>
  <speed>0.05</speed>
  <fix>3d</fix>
</trkpt>
<trkpt lat="-35.2750203" lon="148.9863596">
  <ele>658.43</ele>
  <time>2026-09-01T20:00:20Z</time>
  <course>348.73</course>
  <speed>0.28442925306655786</speed>
  <fix>3d</fix>
</trkpt>
<trkpt lat="-35.2750204" lon="148.9863595">
  <ele>658.54</ele>
  <time>2026-09-01T20:00:20Z</time>
  <course>330.5</course>
  <speed>0.03</speed>
  <fix>3d</fix>
</trkpt>
<trkpt lat="-35.2750199" lon="148.9863596">
  <ele>658.43</ele>
  <time>2026-09-01T20:00:20Z</time>
  <course>348.97</course>
  <speed>0.5277309920783505</speed>
  <fix>3d</fix>
</trkpt>
<trkpt lat="-35.2750204" lon="148.9863595">
  <ele>658.54</ele>
  <time>2026-09-01T20:00:20Z</time>
  <course>330.5</course>
  <speed>0.03</speed>
  <fix>3d</fix>
</trkpt>
<trkpt lat="-35.2750193" lon="148.9863594">
  <ele>658.43</ele>
  <time>2026-09-01T20:00:20Z</time>
  <course>349.19</course>
  <speed>0.8220097323024831</speed>
  <fix>3d</fix>
</trkpt>
<trkpt lat="-35.2750202" lon="148.9863595">
  <ele>658.54</ele>
  <time>2026-09-01T20:00:20Z</time>
  <course>346.67</course>
  <speed>0.32</speed>
  <fix>3d</fix>
</trkpt>
<trkpt lat="-35.2750184" lon="148.9863592">
  <ele>658.43</ele>
  <time>2026-09-01T20:00:20Z</time>
  <course>349.47</course>
  <speed>1.1853269591129698</speed>
  <fix>3d</fix>
</trkpt>
<trkpt lat="-35.2750202" lon="148.9863595">
  <ele>658.54</ele>
  <time>2026-09-01T20:00:20Z</time>
  <course>346.67</course>
  <speed>0.32</speed>
  <fix>3d</fix>
</trkpt>
<trkpt lat="-35.2750172" lon="148.9863589">
  <ele>658.43</ele>
  <time>2026-09-01T20:00:20Z</time>
  <course>349.76</course>
  <speed>1.609534094078159</speed>
  <fix>3d</fix>
</trkpt>
<trkpt lat="-35.2750192" lon="148.9863593">
  <ele>658.54</ele>
  <time>2026-09-01T20:00:20Z</time>
  <course>348.76</course>
  <speed>0.85</speed>
  <fix>3d</fix>
</trkpt>
<trkpt lat="-35.2750156" lon="148.9863586">
  <ele>658.43</ele>
  <time>2026-09-01T20:00:20Z</time>
  <course>349.99</course>
  <speed>2.083194662051533</speed>
  <fix>3d</fix>
</trkpt>
<trkpt lat="-35.2750192" lon="148.9863593">
  <ele>658.54</ele>
  <time>2026-09-01T20:00:20Z</time>
  <course>348.76</course>
  <speed>0.85</speed>
  <fix>3d</fix>
</trkpt>
<trkpt lat="-35.2750135" lon="148.9863582">
  <ele>658.43</ele>
  <time>2026-09-01T20:00:20Z</time>
  <course>350.21</course>
  <speed>2.63751777245197</speed>
  <fix>3d</fix>
</trkpt>
<trkpt lat="-35.2750171" lon="148.9863588">
  <ele>658.54</ele>
  <time>2026-09-01T20:00:20Z</time>
  <course>349.97</course>
  <speed>1.62</speed>
  <fix>3d</fix>
</trkpt>
<trkpt lat="-35.2750109" lon="148.9863578">
  <ele>658.44</ele>
  <time>2026-09-01T20:00:20Z</time>
  <course>350.59</course>
  <speed>3.230108357315587</speed>
  <fix>3d</fix>
</trkpt>
<trkpt lat="-35.2750171" lon="148.9863588">
  <ele>658.54</ele>
  <time>2026-09-01T20:00:20Z</time>
  <course>349.97</course>
  <speed>1.62</speed>
  <fix>3d</fix>
</trkpt>
<trkpt lat="-35.2750078" lon="148.9863572">
  <ele>658.44</ele>
  <time>2026-09-01T20:00:20Z</time>
  <course>351.17</course>
  <speed>3.83275357934736</speed>
  <fix>3d</fix>
</trkpt>
<trkpt lat="-35.2750133" lon="148.986358">
  <ele>658.54</ele>
  <time>2026-09-01T20:00:20Z</time>
  <course>350.96</course>
  <speed>2.63</speed>
  <fix>3d</fix>
</trkpt>
<trkpt lat="-35.2750041" lon="148.9863566">
  <ele>658.44</ele>
  <time>2026-09-01T20:00:20Z</time>
  <course>351.87</course>
  <speed>4.4504831198421595</speed>
  <fix>3d</fix>
</trkpt>
<trkpt lat="-35.2750133" lon="148.986358">
  <ele>658.54</ele>
  <time>2026-09-01T20:00:20Z</time>
  <course>350.96</course>
  <speed>2.63</speed>
  <fix>3d</fix>
</trkpt>
<trkpt lat="-35.2749999" lon="148.986356">
  <ele>658.45</ele>
  <time>2026-09-01T20:00:20Z</time>
  <course>352.51</course>
  <speed>5.0589030431507584</speed>
  <fix>3d</fix>
</trkpt>
<trkpt lat="-35.2750075" lon="148.986357">
  <ele>658.55</ele>
  <time>2026-09-01T20:00:20Z</time>
  <course>351.97</course>
  <speed>3.81</speed>
  <fix>3d</fix>
</trkpt>
<trkpt lat="-35.2749951" lon="148.9863554">
  <ele>658.46</ele>
  <time>2026-09-01T20:00:20Z</time>
  <course>353.23</course>
  <speed>5.67387874385768</speed>
  <fix>3d</fix>
</trkpt>
<trkpt lat="-35.2750075" lon="148.986357">
  <ele>658.55</ele>
  <time>2026-09-01T20:00:20Z</time>
  <course>351.97</course>
  <speed>3.81</speed>
  <fix>3d</fix>
</trkpt>
<trkpt lat="-35.2749899" lon="148.9863548">
  <ele>658.47</ele>
  <time>2026-09-01T20:00:20Z</time>
  <course>354.01</course>
  <speed>6.26917857458216</speed>
  <fix>3d</fix>
</trkpt>
<trkpt lat="-35.2749996" lon="148.9863557">
  <ele>658.56</ele>
  <time>2026-09-01T20:00:20Z</time>
  <course>353.29</course>
  <speed>5.04</speed>
  <fix>3d</fix>
</trkpt>
<trkpt lat="-35.2749839" lon="148.9863543">
  <ele>658.48</ele>
  <time>2026-09-01T20:00:20Z</time>
  <course>355.17</course>
  <speed>6.892807845863687</speed>
  <fix>3d</fix>
</trkpt>
<trkpt lat="-35.2749996" lon="148.9863557">
  <ele>658.56</ele>
  <time>2026-09-01T20:00:20Z</time>
  <course>353.29</course>
  <speed>5.04</speed>
  <fix>3d</fix>
</trkpt>
<trkpt lat="-35.2749776" lon="148.9863538">
  <ele>658.49</ele>
  <time>2026-09-01T20:00:20Z</time>
  <course>356.35</course>
  <speed>7.496832664532402</speed>
  <fix>3d</fix>
</trkpt>
<trkpt lat="-35.2749896" lon="148.9863545">
  <ele>658.57</ele>
  <time>2026-09-01T20:00:20Z</time>
  <course>354.96</course>
  <speed>6.27</speed>
  <fix>3d</fix>
</trkpt>
<trkpt lat="-35.2749707" lon="148.9863535">
  <ele>658.5</ele>
  <time>2026-09-01T20:00:20Z</time>
  <course>357.53</course>
  <speed>8.092230841986652</speed>
  <fix>3d</fix>
</trkpt>
<trkpt lat="-35.2749896" lon="148.9863545">
  <ele>658.57</ele>
  <time>2026-09-01T20:00:20Z</time>
  <course>354.96</course>
  <speed>6.27</speed>
  <fix>3d</fix>
</trkpt>
<trkpt lat="-35.2749633" lon="148.9863533">
  <ele>658.51</ele>
  <time>2026-09-01T20:00:20Z</time>
  <course>358.65</course>
  <speed>8.700022988475375</speed>
  <fix>3d</fix>
</trkpt>
<trkpt lat="-35.2749772" lon="148.9863534">
  <ele>658.58</ele>
  <time>2026-09-01T20:00:20Z</time>
  <course>356.99</course>
  <speed>7.49</speed>
  <fix>3d</fix>
</trkpt>
<trkpt lat="-35.2749553" lon="148.9863534">
  <ele>658.51</ele>
  <time>2026-09-01T20:00:20Z</time>
  <course>359.87</course>
  <speed>9.291743646915792</speed>
  <fix>3d</fix>
</trkpt>
<trkpt lat="-35.2749772" lon="148.9863534">
  <ele>658.58</ele>
  <time>2026-09-01T20:00:20Z</time>
  <course>356.99</course>
  <speed>7.49</speed>
  <fix>3d</fix>
</trkpt>
<trkpt lat="-35.2749468" lon="148.9863535">
  <ele>658.52</ele>
  <time>2026-09-01T20:00:20Z</time>
  <course>1.23</course>
  <speed>9.879362327599894</speed>
  <fix>3d</fix>
</trkpt>
<trkpt lat="-35.2749626" lon="148.9863528">
  <ele>658.6</ele>
  <time>2026-09-01T20:00:20Z</time>
  <course>359.36</course>
  <speed>8.71</speed>
  <fix>3d</fix>
</trkpt>
<trkpt lat="-35.2749377" lon="148.9863541">
  <ele>658.53</ele>
  <time>2026-09-01T20:00:20Z</time>
  <course>2.56</course>
  <speed>10.464114869400087</speed>
  <fix>3d</fix>
</trkpt>
<trkpt lat="-35.2749626" lon="148.9863528">
  <ele>658.6</ele>
  <time>2026-09-01T20:00:20Z</time>
  <course>359.36</course>
  <speed>8.71</speed>
  <fix>3d</fix>
</trkpt>
<trkpt lat="-35.2749282" lon="148.986355">
  <ele>658.54</ele>
  <time>2026-09-01T20:00:20Z</time>
  <course>3.92</course>
  <speed>11.018248499648209</speed>
  <fix>3d</fix>
</trkpt>
<trkpt lat="-35.274946" lon="148.986353">
  <ele>658.61</ele>
  <time>2026-09-01T20:00:20Z</time>
  <course>2.02</course>
  <speed>9.9</speed>
  <fix>3d</fix>
</trkpt>
<trkpt lat="-35.2749182" lon="148.9863562">
  <ele>658.55</ele>
  <time>2026-09-01T20:00:20Z</time>
  <course>5.37</course>
  <speed>11.562646755825416</speed>
  <fix>3d</fix>
</trkpt>
<trkpt lat="-35.274946" lon="148.986353">
  <ele>658.61</ele>
  <time>2026-09-01T20:00:20Z</time>
  <course>2.02</course>
  <speed>9.9</speed>
  <fix>3d</fix>
</trkpt>
<trkpt lat="-35.2749077" lon="148.9863578">
  <ele>658.57</ele>
  <time>2026-09-01T20:00:20Z</time>
  <course>6.92</course>
  <speed>12.098698277087498</speed>
  <fix>3d</fix>
</trkpt>
<trkpt lat="-35.2749271" lon="148.9863543">
  <ele>658.62</ele>
  <time>2026-09-01T20:00:20Z</time>
  <course>4.9</course>
  <speed>11.05</speed>
  <fix>3d</fix>
</trkpt>
<trkpt lat="-35.2748969" lon="148.9863598">
  <ele>658.59</ele>
  <time>2026-09-01T20:00:20Z</time>
  <course>8.61</course>
  <speed>12.606426932323052</speed>
  <fix>3d</fix>
</trkpt>
<trkpt lat="-35.2749271" lon="148.9863543">
  <ele>658.62</ele>
  <time>2026-09-01T20:00:20Z</time>
  <course>4.9</course>
  <speed>11.05</speed>
  <fix>3d</fix>
</trkpt>
<trkpt lat="-35.2748856" lon="148.9863623">
  <ele>658.61</ele>
  <time>2026-09-01T20:00:20Z</time>
  <course>10.33</course>
  <speed>13.120198169235097</speed>
  <fix>3d</fix>
</trkpt>
<trkpt lat="-35.2749065" lon="148.9863572">
  <ele>658.64</ele>
  <time>2026-09-01T20:00:20Z</time>
  <course>7.92</course>
  <speed>12.14</speed>
  <fix>3d</fix>
</trkpt>
<trkpt lat="-35.2748739" lon="148.9863653">
  <ele>658.64</ele>
  <time>2026-09-01T20:00:20Z</time>
  <course>11.86</course>
  <speed>13.60625223931998</speed>
  <fix>3d</fix>
</trkpt>
<trkpt lat="-35.2749065" lon="148.9863572">
  <ele>658.64</ele>
  <time>2026-09-01T20:00:20Z</time>
  <course>7.92</course>
  <speed>12.14</speed>
  <fix>3d</fix>
</trkpt>
<trkpt lat="-35.2748619" lon="148.9863687">
  <ele>658.67</ele>
  <time>2026-09-01T20:00:20Z</time>
  <course>13.25</course>
  <speed>14.084377870534432</speed>
  <fix>3d</fix>
</trkpt>
<trkpt lat="-35.274884" lon="148.9863618">
  <ele>658.68</ele>
  <time>2026-09-01T20:00:20Z</time>
  <course>10.99</course>
  <speed>13.18</speed>
  <fix>3d</fix>
</trkpt>
<trkpt lat="-35.2748496" lon="148.9863727">
  <ele>658.71</ele>
  <time>2026-09-01T20:00:20Z</time>
  <course>14.63</course>
  <speed>14.547858949000021</speed>
  <fix>3d</fix>
</trkpt>
<trkpt lat="-35.274884" lon="148.9863618">
  <ele>658.68</ele>
  <time>2026-09-01T20:00:20Z</time>
  <course>10.99</course>
  <speed>13.18</speed>
  <fix>3d</fix>
</trkpt>
<trkpt lat="-35.2748369" lon="148.9863772">
  <ele>658.74</ele>
  <time>2026-09-01T20:00:20Z</time>
  <course>15.93</course>
  <speed>14.998466588288284</speed>
  <fix>3d</fix>
</trkpt>
<trkpt lat="-35.27486" lon="148.9863684">
  <ele>658.74</ele>
  <time>2026-09-01T20:00:20Z</time>
  <course>14.04</course>
  <speed>14.16</speed>
  <fix>3d</fix>
</trkpt>
<trkpt lat="-35.2748239" lon="148.9863822">
  <ele>658.78</ele>
  <time>2026-09-01T20:00:20Z</time>
  <course>17.17</course>
  <speed>15.438322447727279</speed>
  <fix>3d</fix>
</trkpt>
<trkpt lat="-35.27486" lon="148.9863684">
  <ele>658.74</ele>
  <time>2026-09-01T20:00:20Z</time>
  <course>14.04</course>
  <speed>14.16</speed>
  <fix>3d</fix>
</trkpt>
<trkpt lat="-35.2748107" lon="148.9863877">
  <ele>658.82</ele>
  <time>2026-09-01T20:00:20Z</time>
  <course>18.46</course>
  <speed>15.879955919334286</speed>
  <fix>3d</fix>
</trkpt>
<trkpt lat="-35.2748347" lon="148.986377">
  <ele>658.8</ele>
  <time>2026-09-01T20:00:20Z</time>
  <course>16.92</course>
  <speed>15.1</speed>
  <fix>3d</fix>
</trkpt>
<trkpt lat="-35.2747971" lon="148.9863938">
  <ele>658.85</ele>
  <time>2026-09-01T20:00:20Z</time>
  <course>19.67</course>
  <speed>16.297680816607006</speed>
  <fix>3d</fix>
</trkpt>
<trkpt lat="-35.2748347" lon="148.986377">
  <ele>658.8</ele>
  <time>2026-09-01T20:00:20Z</time>
  <course>16.92</course>
  <speed>15.1</speed>
  <fix>3d</fix>
</trkpt>
<trkpt lat="-35.2747833" lon="148.9864004">
  <ele>658.89</ele>
  <time>2026-09-01T20:00:20Z</time>
  <course>20.91</course>
  <speed>16.68174151580104</speed>
  <fix>3d</fix>
</trkpt>
<trkpt lat="-35.2748081" lon="148.9863878">
  <ele>658.87</ele>
  <time>2026-09-01T20:00:20Z</time>
  <course>19.59</course>
  <speed>15.98</speed>
  <fix>3d</fix>
</trkpt>
<trkpt lat="-35.2747694" lon="148.9864075">
  <ele>658.92</ele>
  <time>2026-09-01T20:00:20Z</time>
  <course>22.18</course>
  <speed>17.0084714186784</speed>
  <fix>3d</fix>
</trkpt>
<trkpt lat="-35.2748081" lon="148.9863878">
  <ele>658.87</ele>
  <time>2026-09-01T20:00:20Z</time>
  <course>19.59</course>
  <speed>15.98</speed>
  <fix>3d</fix>
</trkpt>
<trkpt lat="-35.2747552" lon="148.9864151">
  <ele>658.95</ele>
  <time>2026-09-01T20:00:20Z</time>
  <course>23.43</course>
  <speed>17.297329273619095</speed>
  <fix>3d</fix>
</trkpt>
<trkpt lat="-35.2747806" lon="148.9864006">
  <ele>658.94</ele>
  <time>2026-09-01T20:00:20Z</time>
  <course>22.1</course>
  <speed>16.77</speed>
  <fix>3d</fix>
</trkpt>
<trkpt lat="-35.2747411" lon="148.9864232">
  <ele>658.98</ele>
  <time>2026-09-01T20:00:20Z</time>
  <course>24.55</course>
  <speed>17.544848246707637</speed>
  <fix>3d</fix>
</trkpt>
<trkpt lat="-35.2747806" lon="148.9864006">
  <ele>658.94</ele>
  <time>2026-09-01T20:00:20Z</time>
  <course>22.1</course>
  <speed>16.77</speed>
  <fix>3d</fix>
</trkpt>
<trkpt lat="-35.2747268" lon="148.9864318">
  <ele>659.02</ele>
  <time>2026-09-01T20:00:20Z</time>
  <course>25.68</course>
  <speed>17.773848767219775</speed>
  <fix>3d</fix>
</trkpt>
<trkpt lat="-35.2747523" lon="148.9864155">
  <ele>659.01</ele>
  <time>2026-09-01T20:00:20Z</time>
  <course>24.59</course>
  <speed>17.4</speed>
  <fix>3d</fix>
</trkpt>
<trkpt lat="-35.2747126" lon="148.9864409">
  <ele>659.06</ele>
  <time>2026-09-01T20:00:20Z</time>
  <course>26.9</course>
  <speed>17.98010289180793</speed>
  <fix>3d</fix>
</trkpt>
<trkpt lat="-35.2747523" lon="148.9864155">
  <ele>659.01</ele>
  <time>2026-09-01T20:00:20Z</time>
  <course>24.59</course>
  <speed>17.4</speed>
  <fix>3d</fix>
</trkpt>
<trkpt lat="-35.2746983" lon="148.9864505">
  <ele>659.11</ele>
  <time>2026-09-01T20:00:20Z</time>
  <course>28.22</course>
  <speed>18.19095654439315</speed>
  <fix>3d</fix>
</trkpt>
<trkpt lat="-35.2747238" lon="148.9864325">
  <ele>659.07</ele>
  <time>2026-09-01T20:00:20Z</time>
  <course>27.13</course>
  <speed>17.89</speed>
  <fix>3d</fix>
</trkpt>
<trkpt lat="-35.2746839" lon="148.9864607">
  <ele>659.15</ele>
  <time>2026-09-01T20:00:20Z</time>
  <course>29.76</course>
  <speed>18.39505368298772</speed>
  <fix>3d</fix>
</trkpt>
<trkpt lat="-35.2747238" lon="148.9864325">
  <ele>659.07</ele>
  <time>2026-09-01T20:00:20Z</time>
  <course>27.13</course>
  <speed>17.89</speed>
  <fix>3d</fix>
</trkpt>
<trkpt lat="-35.2746697" lon="148.9864713">
  <ele>659.2</ele>
  <time>2026-09-01T20:00:20Z</time>
  <course>31.39</course>
  <speed>18.59432709188477</speed>
  <fix>3d</fix>
</trkpt>
<trkpt lat="-35.2746952" lon="148.9864514">
  <ele>659.16</ele>
  <time>2026-09-01T20:00:20Z</time>
  <course>29.7</course>
  <speed>18.31</speed>
  <fix>3d</fix>
</trkpt>
<trkpt lat="-35.2746556" lon="148.9864825">
  <ele>659.25</ele>
  <time>2026-09-01T20:00:20Z</time>
  <course>32.93</course>
  <speed>18.79083021050427</speed>
  <fix>3d</fix>
</trkpt>
<trkpt lat="-35.2746952" lon="148.9864514">
  <ele>659.16</ele>
  <time>2026-09-01T20:00:20Z</time>
  <course>29.7</course>
  <speed>18.31</speed>
  <fix>3d</fix>
</trkpt>
<trkpt lat="-35.2746416" lon="148.9864943">
  <ele>659.3</ele>
  <time>2026-09-01T20:00:20Z</time>
  <course>34.55</course>
  <speed>18.9844278291446</speed>
  <fix>3d</fix>
</trkpt>
<trkpt lat="-35.2746668" lon="148.9864725">
  <ele>659.25</ele>
  <time>2026-09-01T20:00:20Z</time>
  <course>32.45</course>
  <speed>18.7</speed>
  <fix>3d</fix>
</trkpt>
<trkpt lat="-35.2746277" lon="148.9865067">
  <ele>659.34</ele>
  <time>2026-09-01T20:00:20Z</time>
  <course>36.28</course>
  <speed>19.16460278743079</speed>
  <fix>3d</fix>
</trkpt>
<trkpt lat="-35.2746668" lon="148.9864725">
  <ele>659.25</ele>
  <time>2026-09-01T20:00:20Z</time>
  <course>32.45</course>
  <speed>18.7</speed>
  <fix>3d</fix>
</trkpt>
<trkpt lat="-35.2746141" lon="148.9865197">
  <ele>659.39</ele>
  <time>2026-09-01T20:00:20Z</time>
  <course>38.13</course>
  <speed>19.34901031060762</speed>
  <fix>3d</fix>
</trkpt>
<trkpt lat="-35.2746386" lon="148.9864958">
  <ele>659.35</ele>
  <time>2026-09-01T20:00:20Z</time>
  <course>35.53</course>
  <speed>19.08</speed>
  <fix>3d</fix>
</trkpt>
<trkpt lat="-35.2746006" lon="148.9865334">
  <ele>659.43</ele>
  <time>2026-09-01T20:00:20Z</time>
  <course>39.99</course>
  <speed>19.534118869301476</speed>
  <fix>3d</fix>
</trkpt>
<trkpt lat="-35.2746386" lon="148.9864958">
  <ele>659.35</ele>
  <time>2026-09-01T20:00:20Z</time>
  <course>35.53</course>
  <speed>19.08</speed>
  <fix>3d</fix>
</trkpt>
<trkpt lat="-35.2745874" lon="148.9865478">
  <ele>659.47</ele>
  <time>2026-09-01T20:00:20Z</time>
  <course>41.99</course>
  <speed>19.710733116756465</speed>
  <fix>3d</fix>
</trkpt>
<trkpt lat="-35.2746111" lon="148.9865214">
  <ele>659.44</ele>
  <time>2026-09-01T20:00:20Z</time>
  <course>39.04</course>
  <speed>19.45</speed>
  <fix>3d</fix>
</trkpt>
<trkpt lat="-35.2745746" lon="148.9865629">
  <ele>659.51</ele>
  <time>2026-09-01T20:00:20Z</time>
  <course>44.1</course>
  <speed>19.898165744610733</speed>
  <fix>3d</fix>
</trkpt>
<trkpt lat="-35.2746111" lon="148.9865214">
  <ele>659.44</ele>
  <time>2026-09-01T20:00:20Z</time>
  <course>39.04</course>
  <speed>19.45</speed>
  <fix>3d</fix>
</trkpt>
<trkpt lat="-35.2745621" lon="148.9865787">
  <ele>659.56</ele>
  <time>2026-09-01T20:00:20Z</time>
  <course>46.29</course>
  <speed>20.07270783925278</speed>
  <fix>3d</fix>
</trkpt>
<trkpt lat="-35.2745845" lon="148.9865497">
  <ele>659.53</ele>
  <time>2026-09-01T20:00:20Z</time>
  <course>43.0</course>
  <speed>19.8</speed>
  <fix>3d</fix>
</trkpt>
<trkpt lat="-35.27455" lon="148.9865953">
  <ele>659.59</ele>
  <time>2026-09-01T20:00:20Z</time>
  <course>48.58</course>
  <speed>20.253246653314623</speed>
  <fix>3d</fix>
</trkpt>
<trkpt lat="-35.2745845" lon="148.9865497">
  <ele>659.53</ele>
  <time>2026-09-01T20:00:20Z</time>
  <course>43.0</course>
  <speed>19.8</speed>
  <fix>3d</fix>
</trkpt>
<trkpt lat="-35.2745384" lon="148.9866126">
  <ele>659.63</ele>
  <time>2026-09-01T20:00:20Z</time>
  <course>50.93</course>
  <speed>20.436381773689785</speed>
  <fix>3d</fix>
</trkpt>
<trkpt lat="-35.2745592" lon="148.9865808">
  <ele>659.61</ele>
  <time>2026-09-01T20:00:20Z</time>
  <course>47.38</course>
  <speed>20.14</speed>
  <fix>3d</fix>
</trkpt>
<trkpt lat="-35.2745273" lon="148.9866307">
  <ele>659.66</ele>
  <time>2026-09-01T20:00:20Z</time>
  <course>53.3</course>
  <speed>20.60971858129072</speed>
  <fix>3d</fix>
</trkpt>
<trkpt lat="-35.2745592" lon="148.9865808">
  <ele>659.61</ele>
  <time>2026-09-01T20:00:20Z</time>
  <course>47.38</course>
  <speed>20.14</speed>
  <fix>3d</fix>
</trkpt>
<trkpt lat="-35.2745168" lon="148.9866495">
  <ele>659.69</ele>
  <time>2026-09-01T20:00:20Z</time>
  <course>55.73</course>
  <speed>20.787325465292547</speed>
  <fix>3d</fix>
</trkpt>
<trkpt lat="-35.2745355" lon="148.9866151">
  <ele>659.68</ele>
  <time>2026-09-01T20:00:20Z</time>
  <course>52.12</course>
  <speed>20.49</speed>
  <fix>3d</fix>
</trkpt>
<trkpt lat="-35.2745069" lon="148.986669">
  <ele>659.71</ele>
  <time>2026-09-01T20:00:20Z</time>
  <course>58.26</course>
  <speed>20.96752012041481</speed>
  <fix>3d</fix>
</trkpt>
<trkpt lat="-35.2745355" lon="148.9866151">
  <ele>659.68</ele>
  <time>2026-09-01T20:00:20Z</time>
  <course>52.12</course>
  <speed>20.49</speed>
  <fix>3d</fix>
</trkpt>
<trkpt lat="-35.2744976" lon="148.9866892">
  <ele>659.74</ele>
  <time>2026-09-01T20:00:20Z</time>
  <course>60.8</course>
  <speed>21.14775638217917</speed>
  <fix>3d</fix>
</trkpt>
<trkpt lat="-35.274514" lon="148.9866522">
  <ele>659.75</ele>
  <time>2026-09-01T20:00:20Z</time>
  <course>57.12</course>
  <speed>20.83</speed>
  <fix>3d</fix>
</trkpt>
<trkpt lat="-35.274489" lon="148.9867101">
  <ele>659.75</ele>
  <time>2026-09-01T20:00:20Z</time>
  <course>63.34</course>
  <speed>21.326720329202047</speed>
  <fix>3d</fix>
</trkpt>
<trkpt lat="-35.274514" lon="148.9866522">
  <ele>659.75</ele>
  <time>2026-09-01T20:00:20Z</time>
  <course>57.12</course>
  <speed>20.83</speed>
  <fix>3d</fix>
</trkpt>
<trkpt lat="-35.2744812" lon="148.9867316">
  <ele>659.77</ele>
  <time>2026-09-01T20:00:20Z</time>
  <course>65.9</course>
  <speed>21.506382773493083</speed>
  <fix>3d</fix>
</trkpt>
<trkpt lat="-35.274495" lon="148.9866921">
  <ele>659.8</ele>
  <time>2026-09-01T20:00:20Z</time>
  <course>62.3</course>
  <speed>21.17</speed>
  <fix>3d</fix>
</trkpt>
<trkpt lat="-35.2744741" lon="148.9867537">
  <ele>659.78</ele>
  <time>2026-09-01T20:00:20Z</time>
  <course>68.5</course>
  <speed>21.67958025423924</speed>
  <fix>3d</fix>
</trkpt>
<trkpt lat="-35.274495" lon="148.9866921">
  <ele>659.8</ele>
  <time>2026-09-01T20:00:20Z</time>
  <course>62.3</course>
  <speed>21.17</speed>
  <fix>3d</fix>
</trkpt>
<trkpt lat="-35.2744678" lon="148.9867764">
  <ele>659.79</ele>
  <time>2026-09-01T20:00:20Z</time>
  <course>71.15</course>
  <speed>21.8579504986172</speed>
  <fix>3d</fix>
</trkpt>
<trkpt lat="-35.2744788" lon="148.9867345">
  <ele>659.84</ele>
  <time>2026-09-01T20:00:20Z</time>
  <course>67.58</course>
  <speed>21.51</speed>
  <fix>3d</fix>
</trkpt>
<trkpt lat="-35.2744623" lon="148.9867996">
  <ele>659.79</ele>
  <time>2026-09-01T20:00:20Z</time>
  <course>73.84</course>
  <speed>22.03463183264018</speed>
  <fix>3d</fix>
</trkpt>
<trkpt lat="-35.2744788" lon="148.9867345">
  <ele>659.84</ele>
  <time>2026-09-01T20:00:20Z</time>
  <course>67.58</course>
  <speed>21.51</speed>
  <fix>3d</fix>
</trkpt>
<trkpt lat="-35.2744578" lon="148.986823">
  <ele>659.79</ele>
  <time>2026-09-01T20:00:20Z</time>
  <course>76.56</course>
  <speed>22.20659586699411</speed>
  <fix>3d</fix>
</trkpt>
<trkpt lat="-35.2744656" lon="148.9867794">
  <ele>659.86</ele>
  <time>2026-09-01T20:00:20Z</time>
  <course>72.93</course>
  <speed>21.85</speed>
  <fix>3d</fix>
</trkpt>
<trkpt lat="-35.2744541" lon="148.9868471">
  <ele>659.79</ele>
  <time>2026-09-01T20:00:20Z</time>
  <course>79.32</course>
  <speed>22.38897049888628</speed>
  <fix>3d</fix>
</trkpt>
<trkpt lat="-35.2744656" lon="148.9867794">
  <ele>659.86</ele>
  <time>2026-09-01T20:00:20Z</time>
  <course>72.93</course>
  <speed>21.85</speed>
  <fix>3d</fix>
</trkpt>
<trkpt lat="-35.2744513" lon="148.9868715">
  <ele>659.78</ele>
  <time>2026-09-01T20:00:20Z</time>
  <course>82.11</course>
  <speed>22.558034045545725</speed>
  <fix>3d</fix>
</trkpt>
<trkpt lat="-35.2744558" lon="148.9868264">
  <ele>659.87</ele>
  <time>2026-09-01T20:00:20Z</time>
  <course>78.37</course>
  <speed>22.19</speed>
  <fix>3d</fix>
</trkpt>
<trkpt lat="-35.2744495" lon="148.9868962">
  <ele>659.77</ele>
  <time>2026-09-01T20:00:20Z</time>
  <course>84.98</course>
  <speed>22.728363337468892</speed>
  <fix>3d</fix>
</trkpt>
<trkpt lat="-35.2744558" lon="148.9868264">
  <ele>659.87</ele>
  <time>2026-09-01T20:00:20Z</time>
  <course>78.37</course>
  <speed>22.19</speed>
  <fix>3d</fix>
</trkpt>
<trkpt lat="-35.2744487" lon="148.9869214">
  <ele>659.76</ele>
  <time>2026-09-01T20:00:20Z</time>
  <course>87.89</course>
  <speed>22.90070741265431</speed>
  <fix>3d</fix>
</trkpt>
<trkpt lat="-35.2744497" lon="148.986875">
  <ele>659.86</ele>
  <time>2026-09-01T20:00:20Z</time>
  <course>83.92</course>
  <speed>22.53</speed>
  <fix>3d</fix>
</trkpt>
<trkpt lat="-35.2744489" lon="148.9869466">
  <ele>659.74</ele>
  <time>2026-09-01T20:00:20Z</time>
  <course>90.78</course>
  <speed>23.070400950135216</speed>
  <fix>3d</fix>
</trkpt>
<trkpt lat="-35.2744497" lon="148.986875">
  <ele>659.86</ele>
  <time>2026-09-01T20:00:20Z</time>
  <course>83.92</course>
  <speed>22.53</speed>
  <fix>3d</fix>
</trkpt>
<trkpt lat="-35.2744502" lon="148.9869719">
  <ele>659.72</ele>
  <time>2026-09-01T20:00:20Z</time>
  <course>93.71</course>
  <speed>23.230637098452554</speed>
  <fix>3d</fix>
</trkpt>
<trkpt lat="-35.2744474" lon="148.9869249">
  <ele>659.83</ele>
  <time>2026-09-01T20:00:20Z</time>
  <course>89.61</course>
  <speed>22.87</speed>
  <fix>3d</fix>
</trkpt>
<trkpt lat="-35.2744526" lon="148.9869975">
  <ele>659.71</ele>
  <time>2026-09-01T20:00:20Z</time>
  <course>96.69</course>
  <speed>23.385551094639613</speed>
  <fix>3d</fix>
</trkpt>
<trkpt lat="-35.2744474" lon="148.9869249">
  <ele>659.83</ele>
  <time>2026-09-01T20:00:20Z</time>
  <course>89.61</course>
  <speed>22.87</speed>
  <fix>3d</fix>
</trkpt>
<trkpt lat="-35.2744559" lon="148.9870229">
  <ele>659.69</ele>
  <time>2026-09-01T20:00:20Z</time>
  <course>99.75</course>
  <speed>23.545704491477846</speed>
  <fix>3d</fix>
</trkpt>
<trkpt lat="-35.2744492" lon="148.9869755">
  <ele>659.8</ele>
  <time>2026-09-01T20:00:20Z</time>
  <course>95.44</course>
  <speed>23.2</speed>
  <fix>3d</fix>
</trkpt>
<trkpt lat="-35.2744605" lon="148.9870482">
  <ele>659.67</ele>
  <time>2026-09-01T20:00:20Z</time>
  <course>102.78</course>
  <speed>23.705706064152572</speed>
  <fix>3d</fix>
</trkpt>
<trkpt lat="-35.2744492" lon="148.9869755">
  <ele>659.8</ele>
  <time>2026-09-01T20:00:20Z</time>
  <course>95.44</course>
  <speed>23.2</speed>
  <fix>3d</fix>
</trkpt>
<trkpt lat="-35.2744662" lon="148.9870733">
  <ele>659.65</ele>
  <time>2026-09-01T20:00:20Z</time>
  <course>105.79</course>
  <speed>23.863790562272374</speed>
  <fix>3d</fix>
</trkpt>
<trkpt lat="-35.2744553" lon="148.9870263">
  <ele>659.77</ele>
  <time>2026-09-01T20:00:20Z</time>
  <course>101.4</course>
  <speed>23.52</speed>
  <fix>3d</fix>
</trkpt>
<trkpt lat="-35.274473" lon="148.9870982">
  <ele>659.64</ele>
  <time>2026-09-01T20:00:20Z</time>
  <course>108.91</course>
  <speed>24.019252694453257</speed>
  <fix>3d</fix>
</trkpt>
<trkpt lat="-35.2744553" lon="148.9870263">
  <ele>659.77</ele>
  <time>2026-09-01T20:00:20Z</time>
  <course>101.4</course>
  <speed>23.52</speed>
  <fix>3d</fix>
</trkpt>
<trkpt lat="-35.274481" lon="148.9871228">
  <ele>659.62</ele>
  <time>2026-09-01T20:00:20Z</time>
  <course>112.04</course>
  <speed>24.156823052711214</speed>
  <fix>3d</fix>
</trkpt>
<trkpt lat="-35.2744658" lon="148.9870767">
  <ele>659.73</ele>
  <time>2026-09-01T20:00:20Z</time>
  <course>107.48</course>
  <speed>23.83</speed>
  <fix>3d</fix>
</trkpt>
<trkpt lat="-35.2744901" lon="148.9871469">
  <ele>659.61</ele>
  <time>2026-09-01T20:00:20Z</time>
  <course>115.18</course>
  <speed>24.31055120724333</speed>
  <fix>3d</fix>
</trkpt>
<trkpt lat="-35.2744658" lon="148.9870767">
  <ele>659.73</ele>
  <time>2026-09-01T20:00:20Z</time>
  <course>107.48</course>
  <speed>23.83</speed>
  <fix>3d</fix>
</trkpt>
<trkpt lat="-35.2745003" lon="148.9871705">
  <ele>659.6</ele>
  <time>2026-09-01T20:00:20Z</time>
  <course>118.25</course>
  <speed>24.44724933402529</speed>
  <fix>3d</fix>
</trkpt>
<trkpt lat="-35.274481" lon="148.9871262">
  <ele>659.69</ele>
  <time>2026-09-01T20:00:20Z</time>
  <course>113.68</course>
  <speed>24.13</speed>
  <fix>3d</fix>
</trkpt>
<trkpt lat="-35.2745117" lon="148.9871936">
  <ele>659.6</ele>
  <time>2026-09-01T20:00:21Z</time>
  <course>121.4</course>
  <speed>24.586565437246414</speed>
  <fix>3d</fix>
</trkpt>
<trkpt lat="-35.274481" lon="148.9871262">
  <ele>659.69</ele>
  <time>2026-09-01T20:00:21Z</time>
  <course>113.68</course>
  <speed>24.13</speed>
  <fix>3d</fix>
</trkpt>
<trkpt lat="-35.2745241" lon="148.9872159">
  <ele>659.59</ele>
  <time>2026-09-01T20:00:21Z</time>
  <course>124.53</course>
  <speed>24.724534373775374</speed>
  <fix>3d</fix>
</trkpt>
<trkpt lat="-35.2745008" lon="148.9871739">
  <ele>659.67</ele>
  <time>2026-09-01T20:00:21Z</time>
  <course>119.96</course>
  <speed>24.42</speed>
  <fix>3d</fix>
</trkpt>
<trkpt lat="-35.2745376" lon="148.9872375">
  <ele>659.6</ele>
  <time>2026-09-01T20:00:21Z</time>
  <course>127.67</course>
  <speed>24.848291691784365</speed>
  <fix>3d</fix>
</trkpt>
<trkpt lat="-35.2745008" lon="148.9871739">
  <ele>659.67</ele>
  <time>2026-09-01T20:00:21Z</time>
  <course>119.96</course>
  <speed>24.42</speed>
  <fix>3d</fix>
</trkpt>
<trkpt lat="-35.2745521" lon="148.9872583">
  <ele>659.6</ele>
  <time>2026-09-01T20:00:21Z</time>
  <course>130.79</course>
  <speed>24.981058824637515</speed>
  <fix>3d</fix>
</trkpt>
<trkpt lat="-35.2745249" lon="148.9872191">
  <ele>659.66</ele>
  <time>2026-09-01T20:00:21Z</time>
  <course>126.26</course>
  <speed>24.7</speed>
  <fix>3d</fix>
</trkpt>
<trkpt lat="-35.2745676" lon="148.9872782">
  <ele>659.62</ele>
  <time>2026-09-01T20:00:21Z</time>
  <course>133.82</course>
  <speed>25.1030715252138</speed>
  <fix>3d</fix>
</trkpt>
<trkpt lat="-35.2745249" lon="148.9872191">
  <ele>659.66</ele>
  <time>2026-09-01T20:00:21Z</time>
  <course>126.26</course>
  <speed>24.7</speed>
  <fix>3d</fix>
</trkpt>
<trkpt lat="-35.274584" lon="148.9872971">
  <ele>659.64</ele>
  <time>2026-09-01T20:00:21Z</time>
  <course>136.85</course>
  <speed>25.213530097945426</speed>
  <fix>3d</fix>
</trkpt>
<trkpt lat="-35.2745532" lon="148.9872613">
  <ele>659.67</ele>
  <time>2026-09-01T20:00:21Z</time>
  <course>132.54</course>
  <speed>24.97</speed>
  <fix>3d</fix>
</trkpt>
<trkpt lat="-35.2746012" lon="148.9873149">
  <ele>659.66</ele>
  <time>2026-09-01T20:00:21Z</time>
  <course>139.79</course>
  <speed>25.33617571773609</speed>
  <fix>3d</fix>
</trkpt>
<trkpt lat="-35.2745532" lon="148.9872613">
  <ele>659.67</ele>
  <time>2026-09-01T20:00:21Z</time>
  <course>132.54</course>
  <speed>24.97</speed>
  <fix>3d</fix>
</trkpt>
<trkpt lat="-35.2746193" lon="148.9873317">
  <ele>659.69</ele>
  <time>2026-09-01T20:00:21Z</time>
  <course>142.72</course>
  <speed>25.434983782184727</speed>
  <fix>3d</fix>
</trkpt>
<trkpt lat="-35.2745854" lon="148.9872998">
  <ele>659.69</ele>
  <time>2026-09-01T20:00:21Z</time>
  <course>138.73</course>
  <speed>25.22</speed>
  <fix>3d</fix>
</trkpt>
<trkpt lat="-35.2746382" lon="148.9873474">
  <ele>659.72</ele>
  <time>2026-09-01T20:00:21Z</time>
  <course>145.55</course>
  <speed>25.548450050834784</speed>
  <fix>3d</fix>
</trkpt>
<trkpt lat="-35.2745854" lon="148.9872998">
  <ele>659.69</ele>
  <time>2026-09-01T20:00:21Z</time>
  <course>138.73</course>
  <speed>25.22</speed>
  <fix>3d</fix>
</trkpt>
<trkpt lat="-35.2746577" lon="148.9873621">
  <ele>659.75</ele>
  <time>2026-09-01T20:00:21Z</time>
  <course>148.3</course>
  <speed>25.647908296779292</speed>
  <fix>3d</fix>
</trkpt>
<trkpt lat="-35.2746212" lon="148.9873344">
  <ele>659.73</ele>
  <time>2026-09-01T20:00:21Z</time>
  <course>144.73</course>
  <speed>25.45</speed>
  <fix>3d</fix>
</trkpt>
<trkpt lat="-35.2746782" lon="148.9873757">
  <ele>659.79</ele>
  <time>2026-09-01T20:00:21Z</time>
  <course>151.03</course>
  <speed>25.737929209631453</speed>
  <fix>3d</fix>
</trkpt>
<trkpt lat="-35.2746212" lon="148.9873344">
  <ele>659.73</ele>
  <time>2026-09-01T20:00:21Z</time>
  <course>144.73</course>
  <speed>25.45</speed>
  <fix>3d</fix>
</trkpt>
<trkpt lat="-35.274699" lon="148.987388">
  <ele>659.83</ele>
  <time>2026-09-01T20:00:21Z</time>
  <course>153.59</course>
  <speed>25.82795772026894</speed>
  <fix>3d</fix>
</trkpt>
<trkpt lat="-35.2746599" lon="148.9873644">
  <ele>659.79</ele>
  <time>2026-09-01T20:00:21Z</time>
  <course>150.47</course>
  <speed>25.67</speed>
  <fix>3d</fix>
</trkpt>
<trkpt lat="-35.2747203" lon="148.9873992">
  <ele>659.88</ele>
  <time>2026-09-01T20:00:21Z</time>
  <course>156.04</course>
  <speed>25.911927755379374</speed>
  <fix>3d</fix>
</trkpt>
<trkpt lat="-35.2746599" lon="148.9873644">
  <ele>659.79</ele>
  <time>2026-09-01T20:00:21Z</time>
  <course>150.47</course>
  <speed>25.67</speed>
  <fix>3d</fix>
</trkpt>
<trkpt lat="-35.2747421" lon="148.9874093">
  <ele>659.92</ele>
  <time>2026-09-01T20:00:21Z</time>
  <course>158.36</course>
  <speed>26.00048653390932</speed>
  <fix>3d</fix>
</trkpt>
<trkpt lat="-35.2747012" lon="148.98739">
  <ele>659.86</ele>
  <time>2026-09-01T20:00:21Z</time>
  <course>155.88</course>
  <speed>25.86</speed>
  <fix>3d</fix>
</trkpt>
<trkpt lat="-35.2747642" lon="148.9874183">
  <ele>659.97</ele>
  <time>2026-09-01T20:00:21Z</time>
  <course>160.53</course>
  <speed>26.06484222089211</speed>
  <fix>3d</fix>
</trkpt>
<trkpt lat="-35.2747012" lon="148.98739">
  <ele>659.86</ele>
  <time>2026-09-01T20:00:21Z</time>
  <course>155.88</course>
  <speed>25.86</speed>
  <fix>3d</fix>
</trkpt>
<trkpt lat="-35.2747867" lon="148.9874262">
  <ele>660.02</ele>
  <time>2026-09-01T20:00:21Z</time>
  <course>162.6</course>
  <speed>26.114126445278615</speed>
  <fix>3d</fix>
</trkpt>
<trkpt lat="-35.2747446" lon="148.9874109">
  <ele>659.94</ele>
  <time>2026-09-01T20:00:21Z</time>
  <course>160.89</course>
  <speed>26.03</speed>
  <fix>3d</fix>
</trkpt>
<trkpt lat="-35.2748095" lon="148.9874331">
  <ele>660.07</ele>
  <time>2026-09-01T20:00:21Z</time>
  <course>164.54</course>
  <speed>26.131789070019682</speed>
  <fix>3d</fix>
</trkpt>
<trkpt lat="-35.2747446" lon="148.9874109">
  <ele>659.94</ele>
  <time>2026-09-01T20:00:21Z</time>
  <course>160.89</course>
  <speed>26.03</speed>
  <fix>3d</fix>
</trkpt>
<trkpt lat="-35.2748324" lon="148.9874391">
  <ele>660.11</ele>
  <time>2026-09-01T20:00:21Z</time>
  <course>166.29</course>
  <speed>26.121372475427094</speed>
  <fix>3d</fix>
</trkpt>
<trkpt lat="-35.2747894" lon="148.9874275">
  <ele>660.03</ele>
  <time>2026-09-01T20:00:21Z</time>
  <course>165.4</course>
  <speed>26.16</speed>
  <fix>3d</fix>
</trkpt>
<trkpt lat="-35.2748555" lon="148.9874441">
  <ele>660.16</ele>
  <time>2026-09-01T20:00:21Z</time>
  <course>168.19</course>
  <speed>26.079098910813617</speed>
  <fix>3d</fix>
</trkpt>
<trkpt lat="-35.2747894" lon="148.9874275">
  <ele>660.03</ele>
  <time>2026-09-01T20:00:21Z</time>
  <course>165.4</course>
  <speed>26.16</speed>
  <fix>3d</fix>
</trkpt>
<trkpt lat="-35.2748787" lon="148.9874482">
  <ele>660.2</ele>
  <time>2026-09-01T20:00:21Z</time>
  <course>170.22</course>
  <speed>26.013815560198008</speed>
  <fix>3d</fix>
</trkpt>
<trkpt lat="-35.2748354" lon="148.98744">
  <ele>660.12</ele>
  <time>2026-09-01T20:00:21Z</time>
  <course>169.38</course>
  <speed>26.18</speed>
  <fix>3d</fix>
</trkpt>
<trkpt lat="-35.2749021" lon="148.9874514">
  <ele>660.26</ele>
  <time>2026-09-01T20:00:21Z</time>
  <course>171.77</course>
  <speed>25.946878424966652</speed>
  <fix>3d</fix>
</trkpt>
<trkpt lat="-35.2748354" lon="148.98744">
  <ele>660.12</ele>
  <time>2026-09-01T20:00:21Z</time>
  <course>169.38</course>
  <speed>26.18</speed>
  <fix>3d</fix>
</trkpt>
<trkpt lat="-35.2749253" lon="148.9874537">
  <ele>660.32</ele>
  <time>2026-09-01T20:00:21Z</time>
  <course>172.93</course>
  <speed>25.886191299609912</speed>
  <fix>3d</fix>
</trkpt>
<trkpt lat="-35.2748819" lon="148.9874488">
  <ele>660.2</ele>
  <time>2026-09-01T20:00:21Z</time>
  <course>173.08</course>
  <speed>26.09</speed>
  <fix>3d</fix>
</trkpt>
<trkpt lat="-35.2749485" lon="148.9874555">
  <ele>660.37</ele>
  <time>2026-09-01T20:00:21Z</time>
  <course>174.0</course>
  <speed>25.835820095363726</speed>
  <fix>3d</fix>
</trkpt>
<trkpt lat="-35.2748819" lon="148.9874488">
  <ele>660.2</ele>
  <time>2026-09-01T20:00:21Z</time>
  <course>173.08</course>
  <speed>26.09</speed>
  <fix>3d</fix>
</trkpt>
<trkpt lat="-35.2749717" lon="148.9874568">
  <ele>660.4</ele>
  <time>2026-09-01T20:00:21Z</time>
  <course>174.99</course>
  <speed>25.787875057863918</speed>
  <fix>3d</fix>
</trkpt>
<trkpt lat="-35.2749285" lon="148.9874541">
  <ele>660.31</ele>
  <time>2026-09-01T20:00:21Z</time>
  <course>176.13</course>
  <speed>25.97</speed>
  <fix>3d</fix>
</trkpt>
<trkpt lat="-35.2749949" lon="148.9874576">
  <ele>660.42</ele>
  <time>2026-09-01T20:00:21Z</time>
  <course>175.87</course>
  <speed>25.757224229330305</speed>
  <fix>3d</fix>
</trkpt>
<trkpt lat="-35.2749285" lon="148.9874541">
  <ele>660.31</ele>
  <time>2026-09-01T20:00:21Z</time>
  <course>176.13</course>
  <speed>25.97</speed>
  <fix>3d</fix>
</trkpt>
<trkpt lat="-35.275018" lon="148.9874581">
  <ele>660.41</ele>
  <time>2026-09-01T20:00:21Z</time>
  <course>176.66</course>
  <speed>25.731748871773174</speed>
  <fix>3d</fix>
</trkpt>
<trkpt lat="-35.274975" lon="148.9874568">
  <ele>660.4</ele>
  <time>2026-09-01T20:00:21Z</time>
  <course>178.19</course>
  <speed>25.87</speed>
  <fix>3d</fix>
</trkpt>
<trkpt lat="-35.2750412" lon="148.9874583">
  <ele>660.38</ele>
  <time>2026-09-01T20:00:21Z</time>
  <course>177.45</course>
  <speed>25.7100019447685</speed>
  <fix>3d</fix>
</trkpt>
<trkpt lat="-35.274975" lon="148.9874568">
  <ele>660.4</ele>
  <time>2026-09-01T20:00:21Z</time>
  <course>178.19</course>
  <speed>25.87</speed>
  <fix>3d</fix>
</trkpt>
<trkpt lat="-35.2750641" lon="148.9874581">
  <ele>660.32</ele>
  <time>2026-09-01T20:00:21Z</time>
  <course>178.25</course>
  <speed>25.70141824880487</speed>
  <fix>3d</fix>
</trkpt>
<trkpt lat="-35.2750214" lon="148.9874578">
  <ele>660.41</ele>
  <time>2026-09-01T20:00:21Z</time>
  <course>179.71</course>
  <speed>25.81</speed>
  <fix>3d</fix>
</trkpt>
<trkpt lat="-35.2750872" lon="148.9874576">
  <ele>660.25</ele>
  <time>2026-09-01T20:00:21Z</time>
  <course>179.01</course>
  <speed>25.705672525728637</speed>
  <fix>3d</fix>
</trkpt>
<trkpt lat="-35.2750214" lon="148.9874578">
  <ele>660.41</ele>
  <time>2026-09-01T20:00:21Z</time>
  <course>179.71</course>
  <speed>25.81</speed>
  <fix>3d</fix>
</trkpt>
<trkpt lat="-35.2751104" lon="148.9874567">
  <ele>660.16</ele>
  <time>2026-09-01T20:00:21Z</time>
  <course>179.73</course>
  <speed>25.712448347055556</speed>
  <fix>3d</fix>
</trkpt>
<trkpt lat="-35.2750677" lon="148.9874575">
  <ele>660.34</ele>
  <time>2026-09-01T20:00:21Z</time>
  <course>180.99</course>
  <speed>25.78</speed>
  <fix>3d</fix>
</trkpt>
<trkpt lat="-35.2751335" lon="148.9874556">
  <ele>660.06</ele>
  <time>2026-09-01T20:00:21Z</time>
  <course>180.44</course>
  <speed>25.741833656521052</speed>
  <fix>3d</fix>
</trkpt>
<trkpt lat="-35.2750677" lon="148.9874575">
  <ele>660.34</ele>
  <time>2026-09-01T20:00:21Z</time>
  <course>180.99</course>
  <speed>25.78</speed>
  <fix>3d</fix>
</trkpt>
<trkpt lat="-35.2751568" lon="148.9874543">
  <ele>659.95</ele>
  <time>2026-09-01T20:00:21Z</time>
  <course>181.15</course>
  <speed>25.77280737521623</speed>
  <fix>3d</fix>
</trkpt>
<trkpt lat="-35.2751139" lon="148.987456">
  <ele>660.18</ele>
  <time>2026-09-01T20:00:21Z</time>
  <course>182.17</course>
  <speed>25.78</speed>
  <fix>3d</fix>
</trkpt>
<trkpt lat="-35.27518" lon="148.9874527">
  <ele>659.83</ele>
  <time>2026-09-01T20:00:21Z</time>
  <course>181.85</course>
  <speed>25.815973737203873</speed>
  <fix>3d</fix>
</trkpt>
<trkpt lat="-35.2751139" lon="148.987456">
  <ele>660.18</ele>
  <time>2026-09-01T20:00:21Z</time>
  <course>182.17</course>
  <speed>25.78</speed>
  <fix>3d</fix>
</trkpt>
<trkpt lat="-35.2752032" lon="148.9874508">
  <ele>659.71</ele>
  <time>2026-09-01T20:00:21Z</time>
  <course>182.51</course>
  <speed>25.861330205540472</speed>
  <fix>3d</fix>
</trkpt>
<trkpt lat="-35.2751602" lon="148.9874533">
  <ele>659.97</ele>
  <time>2026-09-01T20:00:21Z</time>
  <course>183.25</course>
  <speed>25.83</speed>
  <fix>3d</fix>
</trkpt>
<trkpt lat="-35.2752264" lon="148.9874486">
  <ele>659.6</ele>
  <time>2026-09-01T20:00:21Z</time>
  <course>183.17</course>
  <speed>25.91805741177375</speed>
  <fix>3d</fix>
</trkpt>
<trkpt lat="-35.2751602" lon="148.9874533">
  <ele>659.97</ele>
  <time>2026-09-01T20:00:21Z</time>
  <course>183.25</course>
  <speed>25.83</speed>
  <fix>3d</fix>
</trkpt>
<trkpt lat="-35.2752496" lon="148.9874461">
  <ele>659.49</ele>
  <time>2026-09-01T20:00:21Z</time>
  <course>183.75</course>
  <speed>25.97589844451968</speed>
  <fix>3d</fix>
</trkpt>
<trkpt lat="-35.2752067" lon="148.9874496">
  <ele>659.74</ele>
  <time>2026-09-01T20:00:21Z</time>
  <course>184.27</course>
  <speed>25.92</speed>
  <fix>3d</fix>
</trkpt>
<trkpt lat="-35.2752729" lon="148.9874435">
  <ele>659.38</ele>
  <time>2026-09-01T20:00:21Z</time>
  <course>184.23</course>
  <speed>26.045487133090827</speed>
  <fix>3d</fix>
</trkpt>
<trkpt lat="-35.2752067" lon="148.9874496">
  <ele>659.74</ele>
  <time>2026-09-01T20:00:21Z</time>
  <course>184.27</course>
  <speed>25.92</speed>
  <fix>3d</fix>
</trkpt>
<trkpt lat="-35.2752963" lon="148.9874406">
  <ele>659.29</ele>
  <time>2026-09-01T20:00:21Z</time>
  <course>184.64</course>
  <speed>26.11378946074277</speed>
  <fix>3d</fix>
</trkpt>
<trkpt lat="-35.2752531" lon="148.9874448">
  <ele>659.52</ele>
  <time>2026-09-01T20:00:21Z</time>
  <course>185.23</course>
  <speed>26.03</speed>
  <fix>3d</fix>
</trkpt>
<trkpt lat="-35.2753197" lon="148.9874375">
  <ele>659.21</ele>
  <time>2026-09-01T20:00:21Z</time>
  <course>185.06</course>
  <speed>26.181233737163726</speed>
  <fix>3d</fix>
</trkpt>
<trkpt lat="-35.2752531" lon="148.9874448">
  <ele>659.52</ele>
  <time>2026-09-01T20:00:21Z</time>
  <course>185.23</course>
  <speed>26.03</speed>
  <fix>3d</fix>
</trkpt>
<trkpt lat="-35.2753431" lon="148.9874342">
  <ele>659.14</ele>
  <time>2026-09-01T20:00:21Z</time>
  <course>185.41</course>
  <speed>26.2585033846181</speed>
  <fix>3d</fix>
</trkpt>
<trkpt lat="-35.2752998" lon="148.9874391">
  <ele>659.33</ele>
  <time>2026-09-01T20:00:21Z</time>
  <course>186.07</course>
  <speed>26.16</speed>
  <fix>3d</fix>
</trkpt>
<trkpt lat="-35.2753666" lon="148.9874307">
  <ele>659.09</ele>
  <time>2026-09-01T20:00:21Z</time>
  <course>185.78</course>
  <speed>26.32435564263635</speed>
  <fix>3d</fix>
</trkpt>
<trkpt lat="-35.2752998" lon="148.9874391">
  <ele>659.33</ele>
  <time>2026-09-01T20:00:21Z</time>
  <course>186.07</course>
  <speed>26.16</speed>
  <fix>3d</fix>
</trkpt>
<trkpt lat="-35.2753902" lon="148.9874271">
  <ele>659.04</ele>
  <time>2026-09-01T20:00:21Z</time>
  <course>186.16</course>
  <speed>26.39835032724583</speed>
  <fix>3d</fix>
</trkpt>
<trkpt lat="-35.2753468" lon="148.9874327">
  <ele>659.2</ele>
  <time>2026-09-01T20:00:21Z</time>
  <course>186.74</course>
  <speed>26.3</speed>
  <fix>3d</fix>
</trkpt>
<trkpt lat="-35.2754138" lon="148.9874234">
  <ele>659.01</ele>
  <time>2026-09-01T20:00:21Z</time>
  <course>186.49</course>
  <speed>26.47281813483408</speed>
  <fix>3d</fix>
</trkpt>
<trkpt lat="-35.2753468" lon="148.9874327">
  <ele>659.2</ele>
  <time>2026-09-01T20:00:21Z</time>
  <course>186.74</course>
  <speed>26.3</speed>
  <fix>3d</fix>
</trkpt>
<trkpt lat="-35.2754374" lon="148.9874195">
  <ele>658.99</ele>
  <time>2026-09-01T20:00:21Z</time>
  <course>186.84</course>
  <speed>26.546449856807595</speed>
  <fix>3d</fix>
</trkpt>
<trkpt lat="-35.2753938" lon="148.9874256">
  <ele>659.11</ele>
  <time>2026-09-01T20:00:21Z</time>
  <course>187.27</course>
  <speed>26.43</speed>
  <fix>3d</fix>
</trkpt>
<trkpt lat="-35.2754611" lon="148.9874156">
  <ele>658.98</ele>
  <time>2026-09-01T20:00:21Z</time>
  <course>187.03</course>
  <speed>26.607882290779926</speed>
  <fix>3d</fix>
</trkpt>
<trkpt lat="-35.2753938" lon="148.9874256">
  <ele>659.11</ele>
  <time>2026-09-01T20:00:21Z</time>
  <course>187.27</course>
  <speed>26.43</speed>
  <fix>3d</fix>
</trkpt>
<trkpt lat="-35.2754849" lon="148.9874115">
  <ele>658.99</ele>
  <time>2026-09-01T20:00:21Z</time>
  <course>187.19</course>
  <speed>26.679477131308253</speed>
  <fix>3d</fix>
</trkpt>
<trkpt lat="-35.275441" lon="148.987418">
  <ele>659.07</ele>
  <time>2026-09-01T20:00:21Z</time>
  <course>187.69</course>
  <speed>26.57</speed>
  <fix>3d</fix>
</trkpt>
<trkpt lat="-35.2755087" lon="148.9874074">
  <ele>659.01</ele>
  <time>2026-09-01T20:00:21Z</time>
  <course>187.3</course>
  <speed>26.738633098945055</speed>
  <fix>3d</fix>
</trkpt>
<trkpt lat="-35.275441" lon="148.987418">
  <ele>659.07</ele>
  <time>2026-09-01T20:00:21Z</time>
  <course>187.69</course>
  <speed>26.57</speed>
  <fix>3d</fix>
</trkpt>
<trkpt lat="-35.2755325" lon="148.9874031">
  <ele>659.05</ele>
  <time>2026-09-01T20:00:21Z</time>
  <course>187.49</course>
  <speed>26.796525894227408</speed>
  <fix>3d</fix>
</trkpt>
<trkpt lat="-35.2754884" lon="148.98741">
  <ele>659.07</ele>
  <time>2026-09-01T20:00:21Z</time>
  <course>188.02</course>
  <speed>26.7</speed>
  <fix>3d</fix>
</trkpt>
<trkpt lat="-35.2755564" lon="148.9873989">
  <ele>659.1</ele>
  <time>2026-09-01T20:00:21Z</time>
  <course>187.62</course>
  <speed>26.853096655693175</speed>
  <fix>3d</fix>
</trkpt>
<trkpt lat="-35.2754884" lon="148.98741">
  <ele>659.07</ele>
  <time>2026-09-01T20:00:21Z</time>
  <course>188.02</course>
  <speed>26.7</speed>
  <fix>3d</fix>
</trkpt>
<trkpt lat="-35.2755803" lon="148.9873946">
  <ele>659.15</ele>
  <time>2026-09-01T20:00:21Z</time>
  <course>187.69</course>
  <speed>26.896968230638933</speed>
  <fix>3d</fix>
</trkpt>
<trkpt lat="-35.275536" lon="148.9874016">
  <ele>659.14</ele>
  <time>2026-09-01T20:00:21Z</time>
  <course>188.23</course>
  <speed>26.82</speed>
  <fix>3d</fix>
</trkpt>
<trkpt lat="-35.2756042" lon="148.9873902">
  <ele>659.22</ele>
  <time>2026-09-01T20:00:21Z</time>
  <course>187.74</course>
  <speed>26.940861159213156</speed>
  <fix>3d</fix>
</trkpt>
<trkpt lat="-35.275536" lon="148.9874016">
  <ele>659.14</ele>
  <time>2026-09-01T20:00:21Z</time>
  <course>188.23</course>
  <speed>26.82</speed>
  <fix>3d</fix>
</trkpt>
<trkpt lat="-35.2756282" lon="148.9873858">
  <ele>659.29</ele>
  <time>2026-09-01T20:00:21Z</time>
  <course>187.85</course>
  <speed>26.984775337215616</speed>
  <fix>3d</fix>
</trkpt>
<trkpt lat="-35.2755837" lon="148.9873931">
  <ele>659.25</ele>
  <time>2026-09-01T20:00:21Z</time>
  <course>188.36</course>
  <speed>26.92</speed>
  <fix>3d</fix>
</trkpt>
<trkpt lat="-35.2756524" lon="148.9873814">
  <ele>659.38</ele>
  <time>2026-09-01T20:00:21Z</time>
  <course>187.89</course>
  <speed>27.025802485772736</speed>
  <fix>3d</fix>
</trkpt>
<trkpt lat="-35.2755837" lon="148.9873931">
  <ele>659.25</ele>
  <time>2026-09-01T20:00:21Z</time>
  <course>188.36</course>
  <speed>26.92</speed>
  <fix>3d</fix>
</trkpt>
<trkpt lat="-35.2756764" lon="148.987377">
  <ele>659.47</ele>
  <time>2026-09-01T20:00:21Z</time>
  <course>187.93</course>
  <speed>27.058390565589818</speed>
  <fix>3d</fix>
</trkpt>
<trkpt lat="-35.2756317" lon="148.9873844">
  <ele>659.4</ele>
  <time>2026-09-01T20:00:21Z</time>
  <course>188.42</course>
  <speed>27.0</speed>
  <fix>3d</fix>
</trkpt>
<trkpt lat="-35.2757005" lon="148.9873726">
  <ele>659.57</ele>
  <time>2026-09-01T20:00:21Z</time>
  <course>187.96</course>
  <speed>27.088071175334726</speed>
  <fix>3d</fix>
</trkpt>
<trkpt lat="-35.2756317" lon="148.9873844">
  <ele>659.4</ele>
  <time>2026-09-01T20:00:21Z</time>
  <course>188.42</course>
  <speed>27.0</speed>
  <fix>3d</fix>
</trkpt>
<trkpt lat="-35.2757246" lon="148.9873682">
  <ele>659.68</ele>
  <time>2026-09-01T20:00:21Z</time>
  <course>188.01</course>
  <speed>27.11775248799207</speed>
  <fix>3d</fix>
</trkpt>
<trkpt lat="-35.2756797" lon="148.9873757">
  <ele>659.57</ele>
  <time>2026-09-01T20:00:21Z</time>
  <course>188.43</course>
  <speed>27.07</speed>
  <fix>3d</fix>
</trkpt>
<trkpt lat="-35.2757487" lon="148.9873638">
  <ele>659.8</ele>
  <time>2026-09-01T20:00:21Z</time>
  <course>188.06</course>
  <speed>27.13754041913158</speed>
  <fix>3d</fix>
</trkpt>
<trkpt lat="-35.2756797" lon="148.9873757">
  <ele>659.57</ele>
  <time>2026-09-01T20:00:21Z</time>
  <course>188.43</course>
  <speed>27.07</speed>
  <fix>3d</fix>
</trkpt>
<trkpt lat="-35.2757728" lon="148.9873594">
  <ele>659.93</ele>
  <time>2026-09-01T20:00:21Z</time>
  <course>187.98</course>
  <speed>27.147434501256285</speed>
  <fix>3d</fix>
</trkpt>
<trkpt lat="-35.2757278" lon="148.9873669">
  <ele>659.79</ele>
  <time>2026-09-01T20:00:21Z</time>
  <course>188.4</course>
  <speed>27.13</speed>
  <fix>3d</fix>
</trkpt>
<trkpt lat="-35.2757969" lon="148.987355">
  <ele>660.06</ele>
  <time>2026-09-01T20:00:21Z</time>
  <course>187.92</course>
  <speed>27.165774422975687</speed>
  <fix>3d</fix>
</trkpt>
<trkpt lat="-35.2757278" lon="148.9873669">
  <ele>659.79</ele>
  <time>2026-09-01T20:00:21Z</time>
  <course>188.4</course>
  <speed>27.13</speed>
  <fix>3d</fix>
</trkpt>
<trkpt lat="-35.2758211" lon="148.9873507">
  <ele>660.2</ele>
  <time>2026-09-01T20:00:21Z</time>
  <course>187.88</course>
  <speed>27.172784178291337</speed>
  <fix>3d</fix>
</trkpt>
<trkpt lat="-35.2757761" lon="148.9873582">
  <ele>660.04</ele>
  <time>2026-09-01T20:00:21Z</time>
  <course>188.35</course>
  <speed>27.17</speed>
  <fix>3d</fix>
</trkpt>
<trkpt lat="-35.2758453" lon="148.9873463">
  <ele>660.34</ele>
  <time>2026-09-01T20:00:21Z</time>
  <course>187.89</course>
  <speed>27.179810521782525</speed>
  <fix>3d</fix>
</trkpt>
<trkpt lat="-35.2757761" lon="148.9873582">
  <ele>660.04</ele>
  <time>2026-09-01T20:00:21Z</time>
  <course>188.35</course>
  <speed>27.17</speed>
  <fix>3d</fix>
</trkpt>
<trkpt lat="-35.2758695" lon="148.987342">
  <ele>660.48</ele>
  <time>2026-09-01T20:00:21Z</time>
  <course>187.87</course>
  <speed>27.18685344058779</speed>
  <fix>3d</fix>
</trkpt>
<trkpt lat="-35.2758245" lon="148.9873495">
  <ele>660.31</ele>
  <time>2026-09-01T20:00:21Z</time>
  <course>188.26</course>
  <speed>27.19</speed>
  <fix>3d</fix>
</trkpt>
<trkpt lat="-35.2758936" lon="148.9873377">
  <ele>660.62</ele>
  <time>2026-09-01T20:00:21Z</time>
  <course>187.83</course>
  <speed>27.193912921828666</speed>
  <fix>3d</fix>
</trkpt>
<trkpt lat="-35.2758245" lon="148.9873495">
  <ele>660.31</ele>
  <time>2026-09-01T20:00:21Z</time>
  <course>188.26</course>
  <speed>27.19</speed>
  <fix>3d</fix>
</trkpt>
<trkpt lat="-35.2759178" lon="148.9873334">
  <ele>660.77</ele>
  <time>2026-09-01T20:00:21Z</time>
  <course>187.8</course>
  <speed>27.192498965707436</speed>
  <fix>3d</fix>
</trkpt>
<trkpt lat="-35.275873" lon="148.987341">
  <ele>660.59</ele>
  <time>2026-09-01T20:00:21Z</time>
  <course>188.15</course>
  <speed>27.2</speed>
  <fix>3d</fix>
</trkpt>
<trkpt lat="-35.275942" lon="148.9873292">
  <ele>660.92</ele>
  <time>2026-09-01T20:00:21Z</time>
  <course>187.77</course>
  <speed>27.17978108815448</speed>
  <fix>3d</fix>
</trkpt>
<trkpt lat="-35.275873" lon="148.987341">
  <ele>660.59</ele>
  <time>2026-09-01T20:00:21Z</time>
  <course>188.15</course>
  <speed>27.2</speed>
  <fix>3d</fix>
</trkpt>
<trkpt lat="-35.2759662" lon="148.987325">
  <ele>661.08</ele>
  <time>2026-09-01T20:00:21Z</time>
  <course>187.69</course>
  <speed>27.17697738895921</speed>
  <fix>3d</fix>
</trkpt>
<trkpt lat="-35.2759213" lon="148.9873326">
  <ele>660.89</ele>
  <time>2026-09-01T20:00:21Z</time>
  <course>188.06</course>
  <speed>27.2</speed>
  <fix>3d</fix>
</trkpt>
<trkpt lat="-35.2759904" lon="148.9873208">
  <ele>661.24</ele>
  <time>2026-09-01T20:00:21Z</time>
  <course>187.59</course>
  <speed>27.164285376206752</speed>
  <fix>3d</fix>
</trkpt>
<trkpt lat="-35.2759213" lon="148.9873326">
  <ele>660.89</ele>
  <time>2026-09-01T20:00:21Z</time>
  <course>188.06</course>
  <speed>27.2</speed>
  <fix>3d</fix>
</trkpt>
<trkpt lat="-35.2760146" lon="148.9873166">
  <ele>661.4</ele>
  <time>2026-09-01T20:00:21Z</time>
  <course>187.53</course>
  <speed>27.161509530952067</speed>
  <fix>3d</fix>
</trkpt>
<trkpt lat="-35.2759697" lon="148.9873242">
  <ele>661.19</ele>
  <time>2026-09-01T20:00:21Z</time>
  <course>187.96</course>
  <speed>27.19</speed>
  <fix>3d</fix>
</trkpt>
<trkpt lat="-35.2760388" lon="148.9873125">
  <ele>661.56</ele>
  <time>2026-09-01T20:00:21Z</time>
  <course>187.51</course>
  <speed>27.147467653539987</speed>
  <fix>3d</fix>
</trkpt>
<trkpt lat="-35.2759697" lon="148.9873242">
  <ele>661.19</ele>
  <time>2026-09-01T20:00:21Z</time>
  <course>187.96</course>
  <speed>27.19</speed>
  <fix>3d</fix>
</trkpt>
<trkpt lat="-35.2760629" lon="148.9873084">
  <ele>661.72</ele>
  <time>2026-09-01T20:00:21Z</time>
  <course>187.47</course>
  <speed>27.13345536418095</speed>
  <fix>3d</fix>
</trkpt>
<trkpt lat="-35.2760181" lon="148.987316">
  <ele>661.51</ele>
  <time>2026-09-01T20:00:21Z</time>
  <course>187.85</course>
  <speed>27.17</speed>
  <fix>3d</fix>
</trkpt>
<trkpt lat="-35.2760871" lon="148.9873044">
  <ele>661.88</ele>
  <time>2026-09-01T20:00:21Z</time>
  <course>187.49</course>
  <speed>27.13073533835749</speed>
  <fix>3d</fix>
</trkpt>
<trkpt lat="-35.2760181" lon="148.987316">
  <ele>661.51</ele>
  <time>2026-09-01T20:00:21Z</time>
  <course>187.85</course>
  <speed>27.17</speed>
  <fix>3d</fix>
</trkpt>
<trkpt lat="-35.2761113" lon="148.9873004">
  <ele>662.03</ele>
  <time>2026-09-01T20:00:21Z</time>
  <course>187.51</course>
  <speed>27.108212777680492</speed>
  <fix>3d</fix>
</trkpt>
<trkpt lat="-35.2760664" lon="148.9873079">
  <ele>661.82</ele>
  <time>2026-09-01T20:00:21Z</time>
  <course>187.73</course>
  <speed>27.15</speed>
  <fix>3d</fix>
</trkpt>
<trkpt lat="-35.2761354" lon="148.9872964">
  <ele>662.19</ele>
  <time>2026-09-01T20:00:21Z</time>
  <course>187.43</course>
  <speed>27.09561034558919</speed>
  <fix>3d</fix>
</trkpt>
<trkpt lat="-35.2760664" lon="148.9873079">
  <ele>661.82</ele>
  <time>2026-09-01T20:00:21Z</time>
  <course>187.73</course>
  <speed>27.15</speed>
  <fix>3d</fix>
</trkpt>
<trkpt lat="-35.2761593" lon="148.9872924">
  <ele>662.34</ele>
  <time>2026-09-01T20:00:21Z</time>
  <course>187.34</course>
  <speed>27.083020511013906</speed>
  <fix>3d</fix>
</trkpt>
<trkpt lat="-35.2761147" lon="148.9872999">
  <ele>662.14</ele>
  <time>2026-09-01T20:00:21Z</time>
  <course>187.64</course>
  <speed>27.13</speed>
  <fix>3d</fix>
</trkpt>
<trkpt lat="-35.2761834" lon="148.9872885">
  <ele>662.5</ele>
  <time>2026-09-01T20:00:21Z</time>
  <course>187.29</course>
  <speed>27.06053214554363</speed>
  <fix>3d</fix>
</trkpt>
<trkpt lat="-35.2761147" lon="148.9872999">
  <ele>662.14</ele>
  <time>2026-09-01T20:00:21Z</time>
  <course>187.64</course>
  <speed>27.13</speed>
  <fix>3d</fix>
</trkpt>
<trkpt lat="-35.2762079" lon="148.9872845">
  <ele>662.66</ele>
  <time>2026-09-01T20:00:21Z</time>
  <course>187.22</course>
  <speed>27.03673242091211</speed>
  <fix>3d</fix>
</trkpt>
<trkpt lat="-35.2761629" lon="148.987292">
  <ele>662.44</ele>
  <time>2026-09-01T20:00:21Z</time>
  <course>187.55</course>
  <speed>27.09</speed>
  <fix>3d</fix>
</trkpt>
<trkpt lat="-35.276232" lon="148.9872806">
  <ele>662.81</ele>
  <time>2026-09-01T20:00:21Z</time>
  <course>187.17</course>
  <speed>27.0129598526337</speed>
  <fix>3d</fix>
</trkpt>
<trkpt lat="-35.2761629" lon="148.987292">
  <ele>662.44</ele>
  <time>2026-09-01T20:00:21Z</time>
  <course>187.55</course>
  <speed>27.09</speed>
  <fix>3d</fix>
</trkpt>
<trkpt lat="-35.2762561" lon="148.9872768">
  <ele>662.97</ele>
  <time>2026-09-01T20:00:21Z</time>
  <course>187.22</course>
  <speed>26.990516853146772</speed>
  <fix>3d</fix>
</trkpt>
<trkpt lat="-35.2762112" lon="148.9872842">
  <ele>662.75</ele>
  <time>2026-09-01T20:00:21Z</time>
  <course>187.45</course>
  <speed>27.05</speed>
  <fix>3d</fix>
</trkpt>
<trkpt lat="-35.2762802" lon="148.9872729">
  <ele>663.12</ele>
  <time>2026-09-01T20:00:21Z</time>
  <course>187.21</course>
  <speed>26.969384494274244</speed>
  <fix>3d</fix>
</trkpt>
<trkpt lat="-35.2762112" lon="148.9872842">
  <ele>662.75</ele>
  <time>2026-09-01T20:00:21Z</time>
  <course>187.45</course>
  <speed>27.05</speed>
  <fix>3d</fix>
</trkpt>
<trkpt lat="-35.2763042" lon="148.9872691">
  <ele>663.27</ele>
  <time>2026-09-01T20:00:21Z</time>
  <course>187.13</course>
  <speed>26.946957156606754</speed>
  <fix>3d</fix>
</trkpt>
<trkpt lat="-35.2762593" lon="148.9872766">
  <ele>663.06</ele>
  <time>2026-09-01T20:00:21Z</time>
  <course>187.36</course>
  <speed>27.01</speed>
  <fix>3d</fix>
</trkpt>
<trkpt lat="-35.2763283" lon="148.9872653">
  <ele>663.41</ele>
  <time>2026-09-01T20:00:21Z</time>
  <course>187.03</course>
  <speed>26.92454085030978</speed>
  <fix>3d</fix>
</trkpt>
<trkpt lat="-35.2762593" lon="148.9872766">
  <ele>663.06</ele>
  <time>2026-09-01T20:00:21Z</time>
  <course>187.36</course>
  <speed>27.01</speed>
  <fix>3d</fix>
</trkpt>
<trkpt lat="-35.2763523" lon="148.9872616">
  <ele>663.56</ele>
  <time>2026-09-01T20:00:21Z</time>
  <course>187.01</course>
  <speed>26.902135602959106</speed>
  <fix>3d</fix>
</trkpt>
<trkpt lat="-35.2763075" lon="148.987269">
  <ele>663.35</ele>
  <time>2026-09-01T20:00:21Z</time>
  <course>187.28</course>
  <speed>26.96</speed>
  <fix>3d</fix>
</trkpt>
<trkpt lat="-35.2763763" lon="148.9872578">
  <ele>663.7</ele>
  <time>2026-09-01T20:00:21Z</time>
  <course>186.99</course>
  <speed>26.881019325910987</speed>
  <fix>3d</fix>
</trkpt>
<trkpt lat="-35.2763075" lon="148.987269">
  <ele>663.35</ele>
  <time>2026-09-01T20:00:21Z</time>
  <course>187.28</course>
  <speed>26.96</speed>
  <fix>3d</fix>
</trkpt>
<trkpt lat="-35.2764002" lon="148.9872541">
  <ele>663.83</ele>
  <time>2026-09-01T20:00:21Z</time>
  <course>187.0</course>
  <speed>26.848711328479062</speed>
  <fix>3d</fix>
</trkpt>
<trkpt lat="-35.2763556" lon="148.9872615">
  <ele>663.64</ele>
  <time>2026-09-01T20:00:21Z</time>
  <course>187.21</course>
  <speed>26.91</speed>
  <fix>3d</fix>
</trkpt>
<trkpt lat="-35.2764241" lon="148.9872504">
  <ele>663.97</ele>
  <time>2026-09-01T20:00:21Z</time>
  <course>186.94</course>
  <speed>26.8176825993597</speed>
  <fix>3d</fix>
</trkpt>
<trkpt lat="-35.2763556" lon="148.9872615">
  <ele>663.64</ele>
  <time>2026-09-01T20:00:21Z</time>
  <course>187.21</course>
  <speed>26.91</speed>
  <fix>3d</fix>
</trkpt>
<trkpt lat="-35.2764479" lon="148.9872467">
  <ele>664.09</ele>
  <time>2026-09-01T20:00:21Z</time>
  <course>186.89</course>
  <speed>26.78665525966241</speed>
  <fix>3d</fix>
</trkpt>
<trkpt lat="-35.2764035" lon="148.987254">
  <ele>663.91</ele>
  <time>2026-09-01T20:00:21Z</time>
  <course>187.16</course>
  <speed>26.86</speed>
  <fix>3d</fix>
</trkpt>
<trkpt lat="-35.2764717" lon="148.9872431">
  <ele>664.22</ele>
  <time>2026-09-01T20:00:21Z</time>
  <course>186.88</course>
  <speed>26.76428403675316</speed>
  <fix>3d</fix>
</trkpt>
<trkpt lat="-35.2764035" lon="148.987254">
  <ele>663.91</ele>
  <time>2026-09-01T20:00:21Z</time>
  <course>187.16</course>
  <speed>26.86</speed>
  <fix>3d</fix>
</trkpt>
<trkpt lat="-35.2764954" lon="148.9872394">
  <ele>664.33</ele>
  <time>2026-09-01T20:00:21Z</time>
  <course>186.87</course>
  <speed>26.732003291934557</speed>
  <fix>3d</fix>
</trkpt>
<trkpt lat="-35.2764514" lon="148.9872467">
  <ele>664.16</ele>
  <time>2026-09-01T20:00:21Z</time>
  <course>187.1</course>
  <speed>26.81</speed>
  <fix>3d</fix>
</trkpt>
<trkpt lat="-35.2765192" lon="148.9872358">
  <ele>664.45</ele>
  <time>2026-09-01T20:00:21Z</time>
  <course>186.77</course>
  <speed>26.6997322083949</speed>
  <fix>3d</fix>
</trkpt>
<trkpt lat="-35.2764514" lon="148.9872467">
  <ele>664.16</ele>
  <time>2026-09-01T20:00:21Z</time>
  <course>187.1</course>
  <speed>26.81</speed>
  <fix>3d</fix>
</trkpt>
<trkpt lat="-35.2765429" lon="148.9872322">
  <ele>664.57</ele>
  <time>2026-09-01T20:00:21Z</time>
  <course>186.7</course>
  <speed>26.667470821208372</speed>
  <fix>3d</fix>
</trkpt>
<trkpt lat="-35.2764991" lon="148.9872394">
  <ele>664.41</ele>
  <time>2026-09-01T20:00:21Z</time>
  <course>187.04</course>
  <speed>26.76</speed>
  <fix>3d</fix>
</trkpt>
<trkpt lat="-35.2765666" lon="148.9872286">
  <ele>664.68</ele>
  <time>2026-09-01T20:00:21Z</time>
  <course>186.7</course>
  <speed>26.645142146365064</speed>
  <fix>3d</fix>
</trkpt>
<trkpt lat="-35.2764991" lon="148.9872394">
  <ele>664.41</ele>
  <time>2026-09-01T20:00:21Z</time>
  <course>187.04</course>
  <speed>26.76</speed>
  <fix>3d</fix>
</trkpt>
<trkpt lat="-35.2765902" lon="148.9872251">
  <ele>664.79</ele>
  <time>2026-09-01T20:00:21Z</time>
  <course>186.71</course>
  <speed>26.612901006842527</speed>
  <fix>3d</fix>
</trkpt>
<trkpt lat="-35.2765468" lon="148.9872323">
  <ele>664.64</ele>
  <time>2026-09-01T20:00:21Z</time>
  <course>186.97</course>
  <speed>26.71</speed>
  <fix>3d</fix>
</trkpt>
<trkpt lat="-35.2766139" lon="148.9872216">
  <ele>664.89</ele>
  <time>2026-09-01T20:00:21Z</time>
  <course>186.71</course>
  <speed>26.591822051149485</speed>
  <fix>3d</fix>
</trkpt>
<trkpt lat="-35.2765468" lon="148.9872323">
  <ele>664.64</ele>
  <time>2026-09-01T20:00:21Z</time>
  <course>186.97</course>
  <speed>26.71</speed>
  <fix>3d</fix>
</trkpt>
<trkpt lat="-35.2766375" lon="148.9872181">
  <ele>664.98</ele>
  <time>2026-09-01T20:00:21Z</time>
  <course>186.71</course>
  <speed>26.5608207704506</speed>
  <fix>3d</fix>
</trkpt>
<trkpt lat="-35.2765943" lon="148.9872252">
  <ele>664.85</ele>
  <time>2026-09-01T20:00:21Z</time>
  <course>186.9</course>
  <speed>26.66</speed>
  <fix>3d</fix>
</trkpt>
<trkpt lat="-35.276661" lon="148.9872146">
  <ele>665.08</ele>
  <time>2026-09-01T20:00:21Z</time>
  <course>186.72</course>
  <speed>26.53974566569921</speed>
  <fix>3d</fix>
</trkpt>
<trkpt lat="-35.2765943" lon="148.9872252">
  <ele>664.85</ele>
  <time>2026-09-01T20:00:21Z</time>
  <course>186.9</course>
  <speed>26.66</speed>
  <fix>3d</fix>
</trkpt>
<trkpt lat="-35.2766846" lon="148.9872111">
  <ele>665.16</ele>
  <time>2026-09-01T20:00:21Z</time>
  <course>186.69</course>
  <speed>26.51867266663247</speed>
  <fix>3d</fix>
</trkpt>
<trkpt lat="-35.2766418" lon="148.9872181">
  <ele>665.04</ele>
  <time>2026-09-01T20:00:21Z</time>
  <course>186.86</course>
  <speed>26.62</speed>
  <fix>3d</fix>
</trkpt>
<trkpt lat="-35.2767082" lon="148.9872076">
  <ele>665.25</ele>
  <time>2026-09-01T20:00:21Z</time>
  <course>186.68</course>
  <speed>26.4976017782742</speed>
  <fix>3d</fix>
</trkpt>
<trkpt lat="-35.2766418" lon="148.9872181">
  <ele>665.04</ele>
  <time>2026-09-01T20:00:21Z</time>
  <course>186.86</course>
  <speed>26.62</speed>
  <fix>3d</fix>
</trkpt>
<trkpt lat="-35.2767318" lon="148.9872042">
  <ele>665.34</ele>
  <time>2026-09-01T20:00:21Z</time>
  <course>186.63</course>
  <speed>26.466607262737703</speed>
  <fix>3d</fix>
</trkpt>
<trkpt lat="-35.2766893" lon="148.9872112">
  <ele>665.23</ele>
  <time>2026-09-01T20:00:21Z</time>
  <course>186.84</course>
  <speed>26.57</speed>
  <fix>3d</fix>
</trkpt>
<trkpt lat="-35.2767556" lon="148.9872007">
  <ele>665.42</ele>
  <time>2026-09-01T20:00:21Z</time>
  <course>186.61</course>
  <speed>26.45546635385587</speed>
  <fix>3d</fix>
</trkpt>
<trkpt lat="-35.2766893" lon="148.9872112">
  <ele>665.23</ele>
  <time>2026-09-01T20:00:21Z</time>
  <course>186.84</course>
  <speed>26.57</speed>
  <fix>3d</fix>
</trkpt>
<trkpt lat="-35.2767792" lon="148.9871972">
  <ele>665.5</ele>
  <time>2026-09-01T20:00:21Z</time>
  <course>186.66</course>
  <speed>26.43440182792113</speed>
  <fix>3d</fix>
</trkpt>
<trkpt lat="-35.2767366" lon="148.9872042">
  <ele>665.4</ele>
  <time>2026-09-01T20:00:21Z</time>
  <course>186.81</course>
  <speed>26.53</speed>
  <fix>3d</fix>
</trkpt>
<trkpt lat="-35.2768027" lon="148.9871938">
  <ele>665.58</ele>
  <time>2026-09-01T20:00:21Z</time>
  <course>186.64</course>
  <speed>26.41333943294562</speed>
  <fix>3d</fix>
</trkpt>
<trkpt lat="-35.2767366" lon="148.9872042">
  <ele>665.4</ele>
  <time>2026-09-01T20:00:21Z</time>
  <course>186.81</course>
  <speed>26.53</speed>
  <fix>3d</fix>
</trkpt>
<trkpt lat="-35.2768263" lon="148.9871904">
  <ele>665.66</ele>
  <time>2026-09-01T20:00:21Z</time>
  <course>186.59</course>
  <speed>26.39227917403118</speed>
  <fix>3d</fix>
</trkpt>
<trkpt lat="-35.2767839" lon="148.9871973">
  <ele>665.56</ele>
  <time>2026-09-01T20:00:21Z</time>
  <course>186.79</course>
  <speed>26.49</speed>
  <fix>3d</fix>
</trkpt>
<trkpt lat="-35.2768498" lon="148.987187">
  <ele>665.73</ele>
  <time>2026-09-01T20:00:21Z</time>
  <course>186.52</course>
  <speed>26.37122105629544</speed>
  <fix>3d</fix>
</trkpt>
<trkpt lat="-35.2767839" lon="148.9871973">
  <ele>665.56</ele>
  <time>2026-09-01T20:00:21Z</time>
  <course>186.79</course>
  <speed>26.49</speed>
  <fix>3d</fix>
</trkpt>
<trkpt lat="-35.2768736" lon="148.9871835">
  <ele>665.8</ele>
  <time>2026-09-01T20:00:21Z</time>
  <course>186.48</course>
  <speed>26.35016508487186</speed>
  <fix>3d</fix>
</trkpt>
<trkpt lat="-35.2768312" lon="148.9871904">
  <ele>665.71</ele>
  <time>2026-09-01T20:00:21Z</time>
  <course>186.76</course>
  <speed>26.45</speed>
  <fix>3d</fix>
</trkpt>
<trkpt lat="-35.2768971" lon="148.9871801">
  <ele>665.87</ele>
  <time>2026-09-01T20:00:21Z</time>
  <course>186.48</course>
  <speed>26.3291112649098</speed>
  <fix>3d</fix>
</trkpt>
<trkpt lat="-35.2768312" lon="148.9871904">
  <ele>665.71</ele>
  <time>2026-09-01T20:00:21Z</time>
  <course>186.76</course>
  <speed>26.45</speed>
  <fix>3d</fix>
</trkpt>
<trkpt lat="-35.2769206" lon="148.9871767">
  <ele>665.93</ele>
  <time>2026-09-01T20:00:21Z</time>
  <course>186.46</course>
  <speed>26.316796917558186</speed>
  <fix>3d</fix>
</trkpt>
<trkpt lat="-35.2768784" lon="148.9871835">
  <ele>665.86</ele>
  <time>2026-09-01T20:00:21Z</time>
  <course>186.72</course>
  <speed>26.41</speed>
  <fix>3d</fix>
</trkpt>
<trkpt lat="-35.276944" lon="148.9871734">
  <ele>666.0</ele>
  <time>2026-09-01T20:00:21Z</time>
  <course>186.45</course>
  <speed>26.295750607274933</speed>
  <fix>3d</fix>
</trkpt>
<trkpt lat="-35.2768784" lon="148.9871835">
  <ele>665.86</ele>
  <time>2026-09-01T20:00:21Z</time>
  <course>186.72</course>
  <speed>26.41</speed>
  <fix>3d</fix>
</trkpt>
<trkpt lat="-35.2769675" lon="148.98717">
  <ele>666.06</ele>
  <time>2026-09-01T20:00:21Z</time>
  <course>186.43</course>
  <speed>26.27352469692637</speed>
  <fix>3d</fix>
</trkpt>
<trkpt lat="-35.2769255" lon="148.9871768">
  <ele>665.99</ele>
  <time>2026-09-01T20:00:21Z</time>
  <course>186.68</course>
  <speed>26.38</speed>
  <fix>3d</fix>
</trkpt>
<trkpt lat="-35.276991" lon="148.9871667">
  <ele>666.12</ele>
  <time>2026-09-01T20:00:21Z</time>
  <course>186.41</course>
  <speed>26.262416111241556</speed>
  <fix>3d</fix>
</trkpt>
<trkpt lat="-35.2769255" lon="148.9871768">
  <ele>665.99</ele>
  <time>2026-09-01T20:00:21Z</time>
  <course>186.68</course>
  <speed>26.38</speed>
  <fix>3d</fix>
</trkpt>
<trkpt lat="-35.2770144" lon="148.9871634">
  <ele>666.18</ele>
  <time>2026-09-01T20:00:21Z</time>
  <course>186.37</course>
  <speed>26.241379536906976</speed>
  <fix>3d</fix>
</trkpt>
<trkpt lat="-35.2769725" lon="148.9871701">
  <ele>666.12</ele>
  <time>2026-09-01T20:00:21Z</time>
  <course>186.64</course>
  <speed>26.34</speed>
  <fix>3d</fix>
</trkpt>
<trkpt lat="-35.2770379" lon="148.9871601">
  <ele>666.24</ele>
  <time>2026-09-01T20:00:21Z</time>
  <course>186.37</course>
  <speed>26.230276399611192</speed>
  <fix>3d</fix>
</trkpt>
<trkpt lat="-35.2769725" lon="148.9871701">
  <ele>666.12</ele>
  <time>2026-09-01T20:00:21Z</time>
  <course>186.64</course>
  <speed>26.34</speed>
  <fix>3d</fix>
</trkpt>
<trkpt lat="-35.2770613" lon="148.9871568">
  <ele>666.29</ele>
  <time>2026-09-01T20:00:21Z</time>
  <course>186.36</course>
  <speed>26.209244552256745</speed>
  <fix>3d</fix>
</trkpt>
<trkpt lat="-35.2770195" lon="148.9871634">
  <ele>666.24</ele>
  <time>2026-09-01T20:00:21Z</time>
  <course>186.59</course>
  <speed>26.31</speed>
  <fix>3d</fix>
</trkpt>
<trkpt lat="-35.2770847" lon="148.9871535">
  <ele>666.35</ele>
  <time>2026-09-01T20:00:21Z</time>
  <course>186.3</course>
  <speed>26.198146881029583</speed>
  <fix>3d</fix>
</trkpt>
<trkpt lat="-35.2770195" lon="148.9871634">
  <ele>666.24</ele>
  <time>2026-09-01T20:00:21Z</time>
  <course>186.59</course>
  <speed>26.31</speed>
  <fix>3d</fix>
</trkpt>
<trkpt lat="-35.2771081" lon="148.9871502">
  <ele>666.41</ele>
  <time>2026-09-01T20:00:21Z</time>
  <course>186.32</course>
  <speed>26.177119780449488</speed>
  <fix>3d</fix>
</trkpt>
<trkpt lat="-35.2770664" lon="148.9871567">
  <ele>666.36</ele>
  <time>2026-09-01T20:00:21Z</time>
  <course>186.55</course>
  <speed>26.27</speed>
  <fix>3d</fix>
</trkpt>
<trkpt lat="-35.2771313" lon="148.9871469">
  <ele>666.47</ele>
  <time>2026-09-01T20:00:21Z</time>
  <course>186.3</course>
  <speed>26.166027593045147</speed>
  <fix>3d</fix>
</trkpt>
<trkpt lat="-35.2770664" lon="148.9871567">
  <ele>666.36</ele>
  <time>2026-09-01T20:00:21Z</time>
  <course>186.55</course>
  <speed>26.27</speed>
  <fix>3d</fix>
</trkpt>
<trkpt lat="-35.2771547" lon="148.9871437">
  <ele>666.54</ele>
  <time>2026-09-01T20:00:21Z</time>
  <course>186.33</course>
  <speed>26.145005259131235</speed>
  <fix>3d</fix>
</trkpt>
<trkpt lat="-35.2771133" lon="148.9871502">
  <ele>666.48</ele>
  <time>2026-09-01T20:00:21Z</time>
  <course>186.52</course>
  <speed>26.24</speed>
  <fix>3d</fix>
</trkpt>
<trkpt lat="-35.2771781" lon="148.9871404">
  <ele>666.61</ele>
  <time>2026-09-01T20:00:21Z</time>
  <course>186.32</course>
  <speed>26.133918573378928</speed>
  <fix>3d</fix>
</trkpt>
<trkpt lat="-35.2771133" lon="148.9871502">
  <ele>666.48</ele>
  <time>2026-09-01T20:00:21Z</time>
  <course>186.52</course>
  <speed>26.24</speed>
  <fix>3d</fix>
</trkpt>
<trkpt lat="-35.2772014" lon="148.9871372">
  <ele>666.68</ele>
  <time>2026-09-01T20:00:21Z</time>
  <course>186.3</course>
  <speed>26.11405177294401</speed>
  <fix>3d</fix>
</trkpt>
<trkpt lat="-35.2771601" lon="148.9871436">
  <ele>666.62</ele>
  <time>2026-09-01T20:00:21Z</time>
  <course>186.49</course>
  <speed>26.21</speed>
  <fix>3d</fix>
</trkpt>
<trkpt lat="-35.2772248" lon="148.9871339">
  <ele>666.75</ele>
  <time>2026-09-01T20:00:21Z</time>
  <course>186.25</course>
  <speed>26.104118449011068</speed>
  <fix>3d</fix>
</trkpt>
<trkpt lat="-35.2771601" lon="148.9871436">
  <ele>666.62</ele>
  <time>2026-09-01T20:00:21Z</time>
  <course>186.49</course>
  <speed>26.21</speed>
  <fix>3d</fix>
</trkpt>
<trkpt lat="-35.2772483" lon="148.9871307">
  <ele>666.83</ele>
  <time>2026-09-01T20:00:21Z</time>
  <course>186.26</course>
  <speed>26.0830998924591</speed>
  <fix>3d</fix>
</trkpt>
<trkpt lat="-35.2772068" lon="148.9871371">
  <ele>666.76</ele>
  <time>2026-09-01T20:00:21Z</time>
  <course>186.48</course>
  <speed>26.17</speed>
  <fix>3d</fix>
</trkpt>
<trkpt lat="-35.2772716" lon="148.9871274">
  <ele>666.91</ele>
  <time>2026-09-01T20:00:21Z</time>
  <course>186.28</course>
  <speed>26.06323272351302</speed>
  <fix>3d</fix>
</trkpt>
<trkpt lat="-35.2772068" lon="148.9871371">
  <ele>666.76</ele>
  <time>2026-09-01T20:00:21Z</time>
  <course>186.48</course>
  <speed>26.17</speed>
  <fix>3d</fix>
</trkpt>
<trkpt lat="-35.277295" lon="148.9871242">
  <ele>666.98</ele>
  <time>2026-09-01T20:00:21Z</time>
  <course>186.29</course>
  <speed>26.0521496233996</speed>
  <fix>3d</fix>
</trkpt>
<trkpt lat="-35.2772535" lon="148.9871306">
  <ele>666.92</ele>
  <time>2026-09-01T20:00:21Z</time>
  <course>186.47</course>
  <speed>26.14</speed>
  <fix>3d</fix>
</trkpt>
<trkpt lat="-35.2773183" lon="148.987121">
  <ele>667.06</ele>
  <time>2026-09-01T20:00:21Z</time>
  <course>186.29</course>
  <speed>26.032281882309125</speed>
  <fix>3d</fix>
</trkpt>
<trkpt lat="-35.2772535" lon="148.9871306">
  <ele>666.92</ele>
  <time>2026-09-01T20:00:21Z</time>
  <course>186.47</course>
  <speed>26.14</speed>
  <fix>3d</fix>
</trkpt>
<trkpt lat="-35.2773416" lon="148.9871177">
  <ele>667.15</ele>
  <time>2026-09-01T20:00:21Z</time>
  <course>186.25</course>
  <speed>26.021200971515512</speed>
  <fix>3d</fix>
</trkpt>
<trkpt lat="-35.2773002" lon="148.9871241">
  <ele>667.07</ele>
  <time>2026-09-01T20:00:21Z</time>
  <course>186.47</course>
  <speed>26.1</speed>
  <fix>3d</fix>
</trkpt>
<trkpt lat="-35.2773649" lon="148.9871145">
  <ele>667.24</ele>
  <time>2026-09-01T20:00:21Z</time>
  <course>186.23</course>
  <speed>26.001332658154276</speed>
  <fix>3d</fix>
</trkpt>
<trkpt lat="-35.2773002" lon="148.9871241">
  <ele>667.07</ele>
  <time>2026-09-01T20:00:21Z</time>
  <course>186.47</course>
  <speed>26.1</speed>
  <fix>3d</fix>
</trkpt>
<trkpt lat="-35.2773882" lon="148.9871113">
  <ele>667.33</ele>
  <time>2026-09-01T20:00:21Z</time>
  <course>186.25</course>
  <speed>25.980319474556122</speed>
  <fix>3d</fix>
</trkpt>
<trkpt lat="-35.2773469" lon="148.9871177">
  <ele>667.24</ele>
  <time>2026-09-01T20:00:21Z</time>
  <course>186.46</course>
  <speed>26.06</speed>
  <fix>3d</fix>
</trkpt>
<trkpt lat="-35.2774115" lon="148.9871081">
  <ele>667.42</ele>
  <time>2026-09-01T20:00:21Z</time>
  <course>186.29</course>
  <speed>25.96924334669765</speed>
  <fix>3d</fix>
</trkpt>
<trkpt lat="-35.2773469" lon="148.9871177">
  <ele>667.24</ele>
  <time>2026-09-01T20:00:21Z</time>
  <course>186.46</course>
  <speed>26.06</speed>
  <fix>3d</fix>
</trkpt>
<trkpt lat="-35.2774348" lon="148.9871049">
  <ele>667.51</ele>
  <time>2026-09-01T20:00:21Z</time>
  <course>186.3</course>
  <speed>25.95930854240921</speed>
  <fix>3d</fix>
</trkpt>
<trkpt lat="-35.2773933" lon="148.9871112">
  <ele>667.42</ele>
  <time>2026-09-01T20:00:21Z</time>
  <course>186.45</course>
  <speed>26.02</speed>
  <fix>3d</fix>
</trkpt>
<trkpt lat="-35.277458" lon="148.9871017">
  <ele>667.61</ele>
  <time>2026-09-01T20:00:21Z</time>
  <course>186.31</course>
  <speed>25.94937378820537</speed>
  <fix>3d</fix>
</trkpt>
<trkpt lat="-35.2773933" lon="148.9871112">
  <ele>667.42</ele>
  <time>2026-09-01T20:00:21Z</time>
  <course>186.45</course>
  <speed>26.02</speed>
  <fix>3d</fix>
</trkpt>
<trkpt lat="-35.2774813" lon="148.9870985">
  <ele>667.71</ele>
  <time>2026-09-01T20:00:21Z</time>
  <course>186.24</course>
  <speed>25.928364776823088</speed>
  <fix>3d</fix>
</trkpt>
<trkpt lat="-35.2774397" lon="148.9871048">
  <ele>667.61</ele>
  <time>2026-09-01T20:00:21Z</time>
  <course>186.44</course>
  <speed>25.99</speed>
  <fix>3d</fix>
</trkpt>
<trkpt lat="-35.2775045" lon="148.9870953">
  <ele>667.82</ele>
  <time>2026-09-01T20:00:21Z</time>
  <course>186.23</course>
  <speed>25.918429736386425</speed>
  <fix>3d</fix>
</trkpt>
<trkpt lat="-35.2774397" lon="148.9871048">
  <ele>667.61</ele>
  <time>2026-09-01T20:00:21Z</time>
  <course>186.44</course>
  <speed>25.99</speed>
  <fix>3d</fix>
</trkpt>
<trkpt lat="-35.2775279" lon="148.9870921">
  <ele>667.92</ele>
  <time>2026-09-01T20:00:21Z</time>
  <course>186.26</course>
  <speed>25.90735802817416</speed>
  <fix>3d</fix>
</trkpt>
<trkpt lat="-35.2774861" lon="148.9870983">
  <ele>667.81</ele>
  <time>2026-09-01T20:00:21Z</time>
  <course>186.44</course>
  <speed>25.95</speed>
  <fix>3d</fix>
</trkpt>
<trkpt lat="-35.2775511" lon="148.9870889">
  <ele>668.02</ele>
  <time>2026-09-01T20:00:21Z</time>
  <course>186.3</course>
  <speed>25.886353547767207</speed>
  <fix>3d</fix>
</trkpt>
<trkpt lat="-35.2774861" lon="148.9870983">
  <ele>667.81</ele>
  <time>2026-09-01T20:00:21Z</time>
  <course>186.44</course>
  <speed>25.95</speed>
  <fix>3d</fix>
</trkpt>
<trkpt lat="-35.2775742" lon="148.9870857">
  <ele>668.13</ele>
  <time>2026-09-01T20:00:21Z</time>
  <course>186.3</course>
  <speed>25.87641783555058</speed>
  <fix>3d</fix>
</trkpt>
<trkpt lat="-35.2775324" lon="148.987092">
  <ele>668.01</ele>
  <time>2026-09-01T20:00:21Z</time>
  <course>186.42</course>
  <speed>25.91</speed>
  <fix>3d</fix>
</trkpt>
<trkpt lat="-35.2775974" lon="148.9870825">
  <ele>668.24</ele>
  <time>2026-09-01T20:00:21Z</time>
  <course>186.29</course>
  <speed>25.856546559817303</speed>
  <fix>3d</fix>
</trkpt>
<trkpt lat="-35.2775324" lon="148.987092">
  <ele>668.01</ele>
  <time>2026-09-01T20:00:21Z</time>
  <course>186.42</course>
  <speed>25.91</speed>
  <fix>3d</fix>
</trkpt>
<trkpt lat="-35.2776203" lon="148.9870794">
  <ele>668.35</ele>
  <time>2026-09-01T20:00:21Z</time>
  <course>186.28</course>
  <speed>25.845479295226855</speed>
  <fix>3d</fix>
</trkpt>
<trkpt lat="-35.2775787" lon="148.9870856">
  <ele>668.23</ele>
  <time>2026-09-01T20:00:21Z</time>
  <course>186.42</course>
  <speed>25.88</speed>
  <fix>3d</fix>
</trkpt>
<trkpt lat="-35.2776434" lon="148.9870762">
  <ele>668.47</ele>
  <time>2026-09-01T20:00:21Z</time>
  <course>186.3</course>
  <speed>25.825607446873345</speed>
  <fix>3d</fix>
</trkpt>
<trkpt lat="-35.2775787" lon="148.9870856">
  <ele>668.23</ele>
  <time>2026-09-01T20:00:21Z</time>
  <course>186.42</course>
  <speed>25.88</speed>
  <fix>3d</fix>
</trkpt>
<trkpt lat="-35.2776665" lon="148.987073">
  <ele>668.58</ele>
  <time>2026-09-01T20:00:21Z</time>
  <course>186.25</course>
  <speed>25.815671596919575</speed>
  <fix>3d</fix>
</trkpt>
<trkpt lat="-35.2776248" lon="148.9870793">
  <ele>668.45</ele>
  <time>2026-09-01T20:00:21Z</time>
  <course>186.42</course>
  <speed>25.85</speed>
  <fix>3d</fix>
</trkpt>
<trkpt lat="-35.2776895" lon="148.9870699">
  <ele>668.7</ele>
  <time>2026-09-01T20:00:21Z</time>
  <course>186.27</course>
  <speed>25.805735796523994</speed>
  <fix>3d</fix>
</trkpt>
<trkpt lat="-35.2776248" lon="148.9870793">
  <ele>668.45</ele>
  <time>2026-09-01T20:00:21Z</time>
  <course>186.42</course>
  <speed>25.85</speed>
  <fix>3d</fix>
</trkpt>
<trkpt lat="-35.2777128" lon="148.9870667">
  <ele>668.82</ele>
  <time>2026-09-01T20:00:21Z</time>
  <course>186.27</course>
  <speed>25.784733855520013</speed>
  <fix>3d</fix>
</trkpt>
<trkpt lat="-35.2776709" lon="148.9870729">
  <ele>668.67</ele>
  <time>2026-09-01T20:00:21Z</time>
  <course>186.42</course>
  <speed>25.81</speed>
  <fix>3d</fix>
</trkpt>
<trkpt lat="-35.2777358" lon="148.9870635">
  <ele>668.94</ele>
  <time>2026-09-01T20:00:21Z</time>
  <course>186.25</course>
  <speed>25.774797768362802</speed>
  <fix>3d</fix>
</trkpt>
<trkpt lat="-35.2776709" lon="148.9870729">
  <ele>668.67</ele>
  <time>2026-09-01T20:00:21Z</time>
  <course>186.42</course>
  <speed>25.81</speed>
  <fix>3d</fix>
</trkpt>
<trkpt lat="-35.2777588" lon="148.9870604">
  <ele>669.06</ele>
  <time>2026-09-01T20:00:21Z</time>
  <course>186.29</course>
  <speed>25.764861730659455</speed>
  <fix>3d</fix>
</trkpt>
<trkpt lat="-35.2777169" lon="148.9870666">
  <ele>668.9</ele>
  <time>2026-09-01T20:00:21Z</time>
  <course>186.43</course>
  <speed>25.78</speed>
  <fix>3d</fix>
</trkpt>
<trkpt lat="-35.2777818" lon="148.9870572">
  <ele>669.17</ele>
  <time>2026-09-01T20:00:21Z</time>
  <course>186.36</course>
  <speed>25.744989803843385</speed>
  <fix>3d</fix>
</trkpt>
<trkpt lat="-35.2777169" lon="148.9870666">
  <ele>668.9</ele>
  <time>2026-09-01T20:00:21Z</time>
  <course>186.43</course>
  <speed>25.78</speed>
  <fix>3d</fix>
</trkpt>
<trkpt lat="-35.2778048" lon="148.987054">
  <ele>669.29</ele>
  <time>2026-09-01T20:00:21Z</time>
  <course>186.4</course>
  <speed>25.73505391484541</speed>
  <fix>3d</fix>
</trkpt>
<trkpt lat="-35.2777631" lon="148.9870601">
  <ele>669.14</ele>
  <time>2026-09-01T20:00:21Z</time>
  <course>186.44</course>
  <speed>25.76</speed>
  <fix>3d</fix>
</trkpt>
<trkpt lat="-35.2778278" lon="148.9870509">
  <ele>669.41</ele>
  <time>2026-09-01T20:00:21Z</time>
  <course>186.34</course>
  <speed>25.726251184344754</speed>
  <fix>3d</fix>
</trkpt>
<trkpt lat="-35.2777631" lon="148.9870601">
  <ele>669.14</ele>
  <time>2026-09-01T20:00:21Z</time>
  <course>186.44</course>
  <speed>25.76</speed>
  <fix>3d</fix>
</trkpt>
<trkpt lat="-35.2778508" lon="148.9870477">
  <ele>669.53</ele>
  <time>2026-09-01T20:00:21Z</time>
  <course>186.32</course>
  <speed>25.71631583256046</speed>
  <fix>3d</fix>
</trkpt>
<trkpt lat="-35.2778091" lon="148.9870538">
  <ele>669.37</ele>
  <time>2026-09-01T20:00:21Z</time>
  <course>186.45</course>
  <speed>25.73</speed>
  <fix>3d</fix>
</trkpt>
<trkpt lat="-35.2778738" lon="148.9870445">
  <ele>669.64</ele>
  <time>2026-09-01T20:00:21Z</time>
  <course>186.34</course>
  <speed>25.71631583256046</speed>
  <fix>3d</fix>
</trkpt>
<trkpt lat="-35.2778091" lon="148.9870538">
  <ele>669.37</ele>
  <time>2026-09-01T20:00:21Z</time>
  <course>186.45</course>
  <speed>25.73</speed>
  <fix>3d</fix>
</trkpt>
<trkpt lat="-35.2778967" lon="148.9870413">
  <ele>669.75</ele>
  <time>2026-09-01T20:00:21Z</time>
  <course>186.37</course>
  <speed>25.706380530910998</speed>
  <fix>3d</fix>
</trkpt>
<trkpt lat="-35.277855" lon="148.9870475">
  <ele>669.6</ele>
  <time>2026-09-01T20:00:21Z</time>
  <course>186.46</course>
  <speed>25.71</speed>
  <fix>3d</fix>
</trkpt>
<trkpt lat="-35.2779197" lon="148.9870381">
  <ele>669.87</ele>
  <time>2026-09-01T20:00:21Z</time>
  <course>186.37</course>
  <speed>25.69644527945451</speed>
  <fix>3d</fix>
</trkpt>
<trkpt lat="-35.277855" lon="148.9870475">
  <ele>669.6</ele>
  <time>2026-09-01T20:00:21Z</time>
  <course>186.46</course>
  <speed>25.71</speed>
  <fix>3d</fix>
</trkpt>
<trkpt lat="-35.2779427" lon="148.987035">
  <ele>669.99</ele>
  <time>2026-09-01T20:00:21Z</time>
  <course>186.33</course>
  <speed>25.686510078249242</speed>
  <fix>3d</fix>
</trkpt>
<trkpt lat="-35.2779009" lon="148.9870411">
  <ele>669.83</ele>
  <time>2026-09-01T20:00:21Z</time>
  <course>186.47</course>
  <speed>25.7</speed>
  <fix>3d</fix>
</trkpt>
<trkpt lat="-35.2779656" lon="148.9870318">
  <ele>670.11</ele>
  <time>2026-09-01T20:00:21Z</time>
  <course>186.34</course>
  <speed>25.677714072712938</speed>
  <fix>3d</fix>
</trkpt>
<trkpt lat="-35.2779009" lon="148.9870411">
  <ele>669.83</ele>
  <time>2026-09-01T20:00:21Z</time>
  <course>186.47</course>
  <speed>25.7</speed>
  <fix>3d</fix>
</trkpt>
<trkpt lat="-35.2779885" lon="148.9870286">
  <ele>670.23</ele>
  <time>2026-09-01T20:00:21Z</time>
  <course>186.32</course>
  <speed>25.67657492735353</speed>
  <fix>3d</fix>
</trkpt>
<trkpt lat="-35.2779467" lon="148.9870346">
  <ele>670.07</ele>
  <time>2026-09-01T20:00:21Z</time>
  <course>186.48</course>
  <speed>25.68</speed>
  <fix>3d</fix>
</trkpt>
<trkpt lat="-35.2780114" lon="148.9870254">
  <ele>670.35</ele>
  <time>2026-09-01T20:00:21Z</time>
  <course>186.34</course>
  <speed>25.665504086224374</speed>
  <fix>3d</fix>
</trkpt>
<trkpt lat="-35.2779467" lon="148.9870346">
  <ele>670.07</ele>
  <time>2026-09-01T20:00:21Z</time>
  <course>186.48</course>
  <speed>25.68</speed>
  <fix>3d</fix>
</trkpt>
<trkpt lat="-35.2780344" lon="148.9870222">
  <ele>670.48</ele>
  <time>2026-09-01T20:00:21Z</time>
  <course>186.34</course>
  <speed>25.665504086224374</speed>
  <fix>3d</fix>
</trkpt>
<trkpt lat="-35.2779926" lon="148.9870283">
  <ele>670.31</ele>
  <time>2026-09-01T20:00:21Z</time>
  <course>186.48</course>
  <speed>25.67</speed>
  <fix>3d</fix>
</trkpt>
<trkpt lat="-35.2780573" lon="148.987019">
  <ele>670.6</ele>
  <time>2026-09-01T20:00:21Z</time>
  <course>186.37</course>
  <speed>25.655568596310626</speed>
  <fix>3d</fix>
</trkpt>
<trkpt lat="-35.2779926" lon="148.9870283">
  <ele>670.31</ele>
  <time>2026-09-01T20:00:21Z</time>
  <course>186.48</course>
  <speed>25.67</speed>
  <fix>3d</fix>
</trkpt>
<trkpt lat="-35.2780802" lon="148.9870159">
  <ele>670.73</ele>
  <time>2026-09-01T20:00:21Z</time>
  <course>186.43</course>
  <speed>25.655568596310626</speed>
  <fix>3d</fix>
</trkpt>
<trkpt lat="-35.2780384" lon="148.9870219">
  <ele>670.55</ele>
  <time>2026-09-01T20:00:21Z</time>
  <course>186.47</course>
  <speed>25.66</speed>
  <fix>3d</fix>
</trkpt>
<trkpt lat="-35.2781031" lon="148.9870127">
  <ele>670.85</ele>
  <time>2026-09-01T20:00:21Z</time>
  <course>186.4</course>
  <speed>25.645633156543436</speed>
  <fix>3d</fix>
</trkpt>
<trkpt lat="-35.2780384" lon="148.9870219">
  <ele>670.55</ele>
  <time>2026-09-01T20:00:21Z</time>
  <course>186.47</course>
  <speed>25.66</speed>
  <fix>3d</fix>
</trkpt>
<trkpt lat="-35.278126" lon="148.9870095">
  <ele>670.98</ele>
  <time>2026-09-01T20:00:21Z</time>
  <course>186.34</course>
  <speed>25.636834828036008</speed>
  <fix>3d</fix>
</trkpt>
<trkpt lat="-35.2780841" lon="148.9870156">
  <ele>670.8</ele>
  <time>2026-09-01T20:00:21Z</time>
  <course>186.48</course>
  <speed>25.64</speed>
  <fix>3d</fix>
</trkpt>
<trkpt lat="-35.2781489" lon="148.9870063">
  <ele>671.1</ele>
  <time>2026-09-01T20:00:21Z</time>
  <course>186.37</course>
  <speed>25.636834828036008</speed>
  <fix>3d</fix>
</trkpt>
<trkpt lat="-35.2780841" lon="148.9870156">
  <ele>670.8</ele>
  <time>2026-09-01T20:00:21Z</time>
  <course>186.48</course>
  <speed>25.64</speed>
  <fix>3d</fix>
</trkpt>
<trkpt lat="-35.2781718" lon="148.9870031">
  <ele>671.23</ele>
  <time>2026-09-01T20:00:21Z</time>
  <course>186.4</course>
  <speed>25.636834828036008</speed>
  <fix>3d</fix>
</trkpt>
<trkpt lat="-35.2781299" lon="148.9870092">
  <ele>671.05</ele>
  <time>2026-09-01T20:00:21Z</time>
  <course>186.49</course>
  <speed>25.63</speed>
  <fix>3d</fix>
</trkpt>
<trkpt lat="-35.2781948" lon="148.9869999">
  <ele>671.36</ele>
  <time>2026-09-01T20:00:21Z</time>
  <course>186.43</course>
  <speed>25.626899929566196</speed>
  <fix>3d</fix>
</trkpt>
<trkpt lat="-35.2781299" lon="148.9870092">
  <ele>671.05</ele>
  <time>2026-09-01T20:00:21Z</time>
  <course>186.49</course>
  <speed>25.63</speed>
  <fix>3d</fix>
</trkpt>
<trkpt lat="-35.2782177" lon="148.9869967">
  <ele>671.49</ele>
  <time>2026-09-01T20:00:21Z</time>
  <course>186.45</course>
  <speed>25.61696508175783</speed>
  <fix>3d</fix>
</trkpt>
<trkpt lat="-35.2781756" lon="148.9870027">
  <ele>671.31</ele>
  <time>2026-09-01T20:00:21Z</time>
  <course>186.5</course>
  <speed>25.62</speed>
  <fix>3d</fix>
</trkpt>
<trkpt lat="-35.2782405" lon="148.9869935">
  <ele>671.63</ele>
  <time>2026-09-01T20:00:21Z</time>
  <course>186.41</course>
  <speed>25.61696508175783</speed>
  <fix>3d</fix>
</trkpt>
<trkpt lat="-35.2781756" lon="148.9870027">
  <ele>671.31</ele>
  <time>2026-09-01T20:00:21Z</time>
  <course>186.5</course>
  <speed>25.62</speed>
  <fix>3d</fix>
</trkpt>
<trkpt lat="-35.2782634" lon="148.9869903">
  <ele>671.76</ele>
  <time>2026-09-01T20:00:21Z</time>
  <course>186.36</course>
  <speed>25.61696508175783</speed>
  <fix>3d</fix>
</trkpt>
<trkpt lat="-35.2782213" lon="148.9869964">
  <ele>671.57</ele>
  <time>2026-09-01T20:00:21Z</time>
  <course>186.51</course>
  <speed>25.61</speed>
  <fix>3d</fix>
</trkpt>
<trkpt lat="-35.2782862" lon="148.9869871">
  <ele>671.9</ele>
  <time>2026-09-01T20:00:21Z</time>
  <course>186.4</course>
  <speed>25.605891900107675</speed>
  <fix>3d</fix>
</trkpt>
<trkpt lat="-35.2782213" lon="148.9869964">
  <ele>671.57</ele>
  <time>2026-09-01T20:00:21Z</time>
  <course>186.51</course>
  <speed>25.61</speed>
  <fix>3d</fix>
</trkpt>
<trkpt lat="-35.2783091" lon="148.9869839">
  <ele>672.04</ele>
  <time>2026-09-01T20:00:21Z</time>
  <course>186.45</course>
  <speed>25.60703028466987</speed>
  <fix>3d</fix>
</trkpt>
<trkpt lat="-35.2782671" lon="148.98699">
  <ele>671.84</ele>
  <time>2026-09-01T20:00:21Z</time>
  <course>186.51</course>
  <speed>25.6</speed>
  <fix>3d</fix>
</trkpt>
<trkpt lat="-35.2783319" lon="148.9869808">
  <ele>672.18</ele>
  <time>2026-09-01T20:00:21Z</time>
  <course>186.48</course>
  <speed>25.597095538361376</speed>
  <fix>3d</fix>
</trkpt>
<trkpt lat="-35.2782671" lon="148.98699">
  <ele>671.84</ele>
  <time>2026-09-01T20:00:21Z</time>
  <course>186.51</course>
  <speed>25.6</speed>
  <fix>3d</fix>
</trkpt>
<trkpt lat="-35.2783547" lon="148.9869776">
  <ele>672.32</ele>
  <time>2026-09-01T20:00:21Z</time>
  <course>186.53</course>
  <speed>25.597095538361376</speed>
  <fix>3d</fix>
</trkpt>
<trkpt lat="-35.2783129" lon="148.9869835">
  <ele>672.12</ele>
  <time>2026-09-01T20:00:21Z</time>
  <course>186.51</course>
  <speed>25.6</speed>
  <fix>3d</fix>
</trkpt>
<trkpt lat="-35.2783776" lon="148.9869744">
  <ele>672.46</ele>
  <time>2026-09-01T20:00:22Z</time>
  <course>186.5</course>
  <speed>25.598238220627604</speed>
  <fix>3d</fix>
</trkpt>
<trkpt lat="-35.2783129" lon="148.9869835">
  <ele>672.12</ele>
  <time>2026-09-01T20:00:22Z</time>
  <course>186.51</course>
  <speed>25.6</speed>
  <fix>3d</fix>
</trkpt>
<trkpt lat="-35.2784004" lon="148.9869712">
  <ele>672.61</ele>
  <time>2026-09-01T20:00:22Z</time>
  <course>186.53</course>
  <speed>25.58830396880575</speed>
  <fix>3d</fix>
</trkpt>
<trkpt lat="-35.2783586" lon="148.9869772">
  <ele>672.4</ele>
  <time>2026-09-01T20:00:22Z</time>
  <course>186.53</course>
  <speed>25.59</speed>
  <fix>3d</fix>
</trkpt>
<trkpt lat="-35.2784232" lon="148.9869679">
  <ele>672.75</ele>
  <time>2026-09-01T20:00:22Z</time>
  <course>186.51</course>
  <speed>25.58945095151516</speed>
  <fix>3d</fix>
</trkpt>
<trkpt lat="-35.2783586" lon="148.9869772">
  <ele>672.4</ele>
  <time>2026-09-01T20:00:22Z</time>
  <course>186.53</course>
  <speed>25.59</speed>
  <fix>3d</fix>
</trkpt>
<trkpt lat="-35.2784461" lon="148.9869647">
  <ele>672.89</ele>
  <time>2026-09-01T20:00:22Z</time>
  <course>186.43</course>
  <speed>25.599384758231984</speed>
  <fix>3d</fix>
</trkpt>
<trkpt lat="-35.2784043" lon="148.9869708">
  <ele>672.68</ele>
  <time>2026-09-01T20:00:22Z</time>
  <course>186.55</course>
  <speed>25.59</speed>
  <fix>3d</fix>
</trkpt>
<trkpt lat="-35.2784689" lon="148.9869615">
  <ele>673.03</ele>
  <time>2026-09-01T20:00:22Z</time>
  <course>186.41</course>
  <speed>25.599384758231984</speed>
  <fix>3d</fix>
</trkpt>
<trkpt lat="-35.2784043" lon="148.9869708">
  <ele>672.68</ele>
  <time>2026-09-01T20:00:22Z</time>
  <course>186.55</course>
  <speed>25.59</speed>
  <fix>3d</fix>
</trkpt>
<trkpt lat="-35.2784917" lon="148.9869583">
  <ele>673.17</ele>
  <time>2026-09-01T20:00:22Z</time>
  <course>186.45</course>
  <speed>25.598238220627604</speed>
  <fix>3d</fix>
</trkpt>
<trkpt lat="-35.2784499" lon="148.9869643">
  <ele>672.97</ele>
  <time>2026-09-01T20:00:22Z</time>
  <course>186.57</course>
  <speed>25.59</speed>
  <fix>3d</fix>
</trkpt>
<trkpt lat="-35.2785146" lon="148.9869551">
  <ele>673.31</ele>
  <time>2026-09-01T20:00:22Z</time>
  <course>186.51</course>
  <speed>25.599384758231984</speed>
  <fix>3d</fix>
</trkpt>
<trkpt lat="-35.2784499" lon="148.9869643">
  <ele>672.97</ele>
  <time>2026-09-01T20:00:22Z</time>
  <course>186.57</course>
  <speed>25.59</speed>
  <fix>3d</fix>
</trkpt>
<trkpt lat="-35.2785374" lon="148.9869519">
  <ele>673.45</ele>
  <time>2026-09-01T20:00:22Z</time>
  <course>186.5</course>
  <speed>25.599384758231984</speed>
  <fix>3d</fix>
</trkpt>
<trkpt lat="-35.2784956" lon="148.9869579">
  <ele>673.25</ele>
  <time>2026-09-01T20:00:22Z</time>
  <course>186.57</course>
  <speed>25.6</speed>
  <fix>3d</fix>
</trkpt>
<trkpt lat="-35.2785603" lon="148.9869486">
  <ele>673.59</ele>
  <time>2026-09-01T20:00:22Z</time>
  <course>186.53</course>
  <speed>25.599384758231984</speed>
  <fix>3d</fix>
</trkpt>
<trkpt lat="-35.2784956" lon="148.9869579">
  <ele>673.25</ele>
  <time>2026-09-01T20:00:22Z</time>
  <course>186.57</course>
  <speed>25.6</speed>
  <fix>3d</fix>
</trkpt>
<trkpt lat="-35.2785831" lon="148.9869454">
  <ele>673.74</ele>
  <time>2026-09-01T20:00:22Z</time>
  <course>186.53</course>
  <speed>25.6104685626796</speed>
  <fix>3d</fix>
</trkpt>
<trkpt lat="-35.2785413" lon="148.9869514">
  <ele>673.53</ele>
  <time>2026-09-01T20:00:22Z</time>
  <course>186.57</course>
  <speed>25.61</speed>
  <fix>3d</fix>
</trkpt>
<trkpt lat="-35.278606" lon="148.9869422">
  <ele>673.88</ele>
  <time>2026-09-01T20:00:22Z</time>
  <course>186.53</course>
  <speed>25.6104685626796</speed>
  <fix>3d</fix>
</trkpt>
<trkpt lat="-35.2785413" lon="148.9869514">
  <ele>673.53</ele>
  <time>2026-09-01T20:00:22Z</time>
  <course>186.57</course>
  <speed>25.61</speed>
  <fix>3d</fix>
</trkpt>
<trkpt lat="-35.2786288" lon="148.9869389">
  <ele>674.03</ele>
  <time>2026-09-01T20:00:22Z</time>
  <course>186.48</course>
  <speed>25.6104685626796</speed>
  <fix>3d</fix>
</trkpt>
<trkpt lat="-35.278587" lon="148.9869449">
  <ele>673.81</ele>
  <time>2026-09-01T20:00:22Z</time>
  <course>186.58</course>
  <speed>25.61</speed>
  <fix>3d</fix>
</trkpt>
<trkpt lat="-35.2786517" lon="148.9869357">
  <ele>674.18</ele>
  <time>2026-09-01T20:00:22Z</time>
  <course>186.49</course>
  <speed>25.6104685626796</speed>
  <fix>3d</fix>
</trkpt>
<trkpt lat="-35.278587" lon="148.9869449">
  <ele>673.81</ele>
  <time>2026-09-01T20:00:22Z</time>
  <course>186.58</course>
  <speed>25.61</speed>
  <fix>3d</fix>
</trkpt>
<trkpt lat="-35.2786744" lon="148.9869325">
  <ele>674.33</ele>
  <time>2026-09-01T20:00:22Z</time>
  <course>186.51</course>
  <speed>25.6104685626796</speed>
  <fix>3d</fix>
</trkpt>
<trkpt lat="-35.2786327" lon="148.9869385">
  <ele>674.11</ele>
  <time>2026-09-01T20:00:22Z</time>
  <course>186.59</course>
  <speed>25.61</speed>
  <fix>3d</fix>
</trkpt>
<trkpt lat="-35.2786972" lon="148.9869293">
  <ele>674.48</ele>
  <time>2026-09-01T20:00:22Z</time>
  <course>186.53</course>
  <speed>25.6093186164724</speed>
  <fix>3d</fix>
</trkpt>
<trkpt lat="-35.2786327" lon="148.9869385">
  <ele>674.11</ele>
  <time>2026-09-01T20:00:22Z</time>
  <course>186.59</course>
  <speed>25.61</speed>
  <fix>3d</fix>
</trkpt>
<trkpt lat="-35.2787201" lon="148.986926">
  <ele>674.63</ele>
  <time>2026-09-01T20:00:22Z</time>
  <course>186.59</course>
  <speed>25.6093186164724</speed>
  <fix>3d</fix>
</trkpt>
<trkpt lat="-35.2786784" lon="148.986932">
  <ele>674.41</ele>
  <time>2026-09-01T20:00:22Z</time>
  <course>186.58</course>
  <speed>25.61</speed>
  <fix>3d</fix>
</trkpt>
<trkpt lat="-35.2787429" lon="148.9869228">
  <ele>674.79</ele>
  <time>2026-09-01T20:00:22Z</time>
  <course>186.57</course>
  <speed>25.6093186164724</speed>
  <fix>3d</fix>
</trkpt>
<trkpt lat="-35.2786784" lon="148.986932">
  <ele>674.41</ele>
  <time>2026-09-01T20:00:22Z</time>
  <course>186.58</course>
  <speed>25.61</speed>
  <fix>3d</fix>
</trkpt>
<trkpt lat="-35.278766" lon="148.9869196">
  <ele>674.95</ele>
  <time>2026-09-01T20:00:22Z</time>
  <course>186.53</course>
  <speed>25.61925252617648</speed>
  <fix>3d</fix>
</trkpt>
<trkpt lat="-35.2787242" lon="148.9869255">
  <ele>674.71</ele>
  <time>2026-09-01T20:00:22Z</time>
  <course>186.58</course>
  <speed>25.61</speed>
  <fix>3d</fix>
</trkpt>
<trkpt lat="-35.278789" lon="148.9869163">
  <ele>675.11</ele>
  <time>2026-09-01T20:00:22Z</time>
  <course>186.49</course>
  <speed>25.618106877753476</speed>
  <fix>3d</fix>
</trkpt>
<trkpt lat="-35.2787242" lon="148.9869255">
  <ele>674.71</ele>
  <time>2026-09-01T20:00:22Z</time>
  <course>186.58</course>
  <speed>25.61</speed>
  <fix>3d</fix>
</trkpt>
<trkpt lat="-35.2788119" lon="148.9869131">
  <ele>675.27</ele>
  <time>2026-09-01T20:00:22Z</time>
  <course>186.54</course>
  <speed>25.618106877753476</speed>
  <fix>3d</fix>
</trkpt>
<trkpt lat="-35.27877" lon="148.9869191">
  <ele>675.02</ele>
  <time>2026-09-01T20:00:22Z</time>
  <course>186.57</course>
  <speed>25.62</speed>
  <fix>3d</fix>
</trkpt>
<trkpt lat="-35.2788347" lon="148.9869099">
  <ele>675.43</ele>
  <time>2026-09-01T20:00:22Z</time>
  <course>186.52</course>
  <speed>25.618106877753476</speed>
  <fix>3d</fix>
</trkpt>
<trkpt lat="-35.27877" lon="148.9869191">
  <ele>675.02</ele>
  <time>2026-09-01T20:00:22Z</time>
  <course>186.57</course>
  <speed>25.62</speed>
  <fix>3d</fix>
</trkpt>
<trkpt lat="-35.2788576" lon="148.9869066">
  <ele>675.59</ele>
  <time>2026-09-01T20:00:22Z</time>
  <course>186.52</course>
  <speed>25.618106877753476</speed>
  <fix>3d</fix>
</trkpt>
<trkpt lat="-35.2788157" lon="148.9869126">
  <ele>675.33</ele>
  <time>2026-09-01T20:00:22Z</time>
  <course>186.56</course>
  <speed>25.62</speed>
  <fix>3d</fix>
</trkpt>
<trkpt lat="-35.2788805" lon="148.9869034">
  <ele>675.76</ele>
  <time>2026-09-01T20:00:22Z</time>
  <course>186.51</course>
  <speed>25.61696508175783</speed>
  <fix>3d</fix>
</trkpt>
<trkpt lat="-35.2788157" lon="148.9869126">
  <ele>675.33</ele>
  <time>2026-09-01T20:00:22Z</time>
  <course>186.56</course>
  <speed>25.62</speed>
  <fix>3d</fix>
</trkpt>
<trkpt lat="-35.2789033" lon="148.9869002">
  <ele>675.92</ele>
  <time>2026-09-01T20:00:22Z</time>
  <course>186.46</course>
  <speed>25.61696508175783</speed>
  <fix>3d</fix>
</trkpt>
<trkpt lat="-35.2788615" lon="148.9869062">
  <ele>675.65</ele>
  <time>2026-09-01T20:00:22Z</time>
  <course>186.55</course>
  <speed>25.63</speed>
  <fix>3d</fix>
</trkpt>
<trkpt lat="-35.2789262" lon="148.986897">
  <ele>676.09</ele>
  <time>2026-09-01T20:00:22Z</time>
  <course>186.45</course>
  <speed>25.61696508175783</speed>
  <fix>3d</fix>
</trkpt>
<trkpt lat="-35.2788615" lon="148.9869062">
  <ele>675.65</ele>
  <time>2026-09-01T20:00:22Z</time>
  <course>186.55</course>
  <speed>25.63</speed>
  <fix>3d</fix>
</trkpt>
<trkpt lat="-35.2789491" lon="148.9868938">
  <ele>676.25</ele>
  <time>2026-09-01T20:00:22Z</time>
  <course>186.47</course>
  <speed>25.61696508175783</speed>
  <fix>3d</fix>
</trkpt>
<trkpt lat="-35.2789072" lon="148.9868997">
  <ele>675.98</ele>
  <time>2026-09-01T20:00:22Z</time>
  <course>186.55</course>
  <speed>25.63</speed>
  <fix>3d</fix>
</trkpt>
<trkpt lat="-35.2789719" lon="148.9868906">
  <ele>676.42</ele>
  <time>2026-09-01T20:00:22Z</time>
  <course>186.47</course>
  <speed>25.605891900107675</speed>
  <fix>3d</fix>
</trkpt>
<trkpt lat="-35.2789072" lon="148.9868997">
  <ele>675.98</ele>
  <time>2026-09-01T20:00:22Z</time>
  <course>186.55</course>
  <speed>25.63</speed>
  <fix>3d</fix>
</trkpt>
<trkpt lat="-35.2789948" lon="148.9868874">
  <ele>676.58</ele>
  <time>2026-09-01T20:00:22Z</time>
  <course>186.47</course>
  <speed>25.615827138704695</speed>
  <fix>3d</fix>
</trkpt>
<trkpt lat="-35.2789529" lon="148.9868933">
  <ele>676.3</ele>
  <time>2026-09-01T20:00:22Z</time>
  <course>186.54</course>
  <speed>25.63</speed>
  <fix>3d</fix>
</trkpt>
<trkpt lat="-35.2790176" lon="148.9868842">
  <ele>676.74</ele>
  <time>2026-09-01T20:00:22Z</time>
  <course>186.52</course>
  <speed>25.614693049107576</speed>
  <fix>3d</fix>
</trkpt>
<trkpt lat="-35.2789529" lon="148.9868933">
  <ele>676.3</ele>
  <time>2026-09-01T20:00:22Z</time>
  <course>186.54</course>
  <speed>25.63</speed>
  <fix>3d</fix>
</trkpt>
<trkpt lat="-35.2790405" lon="148.986881">
  <ele>676.91</ele>
  <time>2026-09-01T20:00:22Z</time>
  <course>186.55</course>
  <speed>25.604757370457545</speed>
  <fix>3d</fix>
</trkpt>
<trkpt lat="-35.2789987" lon="148.9868869">
  <ele>676.62</ele>
  <time>2026-09-01T20:00:22Z</time>
  <course>186.52</course>
  <speed>25.63</speed>
  <fix>3d</fix>
</trkpt>
<trkpt lat="-35.2790634" lon="148.9868778">
  <ele>677.07</ele>
  <time>2026-09-01T20:00:22Z</time>
  <course>186.62</course>
  <speed>25.615827138704695</speed>
  <fix>3d</fix>
</trkpt>
<trkpt lat="-35.2789987" lon="148.9868869">
  <ele>676.62</ele>
  <time>2026-09-01T20:00:22Z</time>
  <course>186.52</course>
  <speed>25.63</speed>
  <fix>3d</fix>
</trkpt>
<trkpt lat="-35.2790863" lon="148.9868746">
  <ele>677.23</ele>
  <time>2026-09-01T20:00:22Z</time>
  <course>186.65</course>
  <speed>25.615827138704695</speed>
  <fix>3d</fix>
</trkpt>
<trkpt lat="-35.2790444" lon="148.9868804">
  <ele>676.94</ele>
  <time>2026-09-01T20:00:22Z</time>
  <course>186.51</course>
  <speed>25.63</speed>
  <fix>3d</fix>
</trkpt>
<trkpt lat="-35.2791091" lon="148.9868714">
  <ele>677.4</ele>
  <time>2026-09-01T20:00:22Z</time>
  <course>186.61</course>
  <speed>25.61696508175783</speed>
  <fix>3d</fix>
</trkpt>
<trkpt lat="-35.2790444" lon="148.9868804">
  <ele>676.94</ele>
  <time>2026-09-01T20:00:22Z</time>
  <course>186.51</course>
  <speed>25.63</speed>
  <fix>3d</fix>
</trkpt>
<trkpt lat="-35.279132" lon="148.9868682">
  <ele>677.56</ele>
  <time>2026-09-01T20:00:22Z</time>
  <course>186.54</course>
  <speed>25.61696508175783</speed>
  <fix>3d</fix>
</trkpt>
<trkpt lat="-35.2790902" lon="148.9868741">
  <ele>677.27</ele>
  <time>2026-09-01T20:00:22Z</time>
  <course>186.53</course>
  <speed>25.64</speed>
  <fix>3d</fix>
</trkpt>
<trkpt lat="-35.2791547" lon="148.986865">
  <ele>677.73</ele>
  <time>2026-09-01T20:00:22Z</time>
  <course>186.5</course>
  <speed>25.61696508175783</speed>
  <fix>3d</fix>
</trkpt>
<trkpt lat="-35.2790902" lon="148.9868741">
  <ele>677.27</ele>
  <time>2026-09-01T20:00:22Z</time>
  <course>186.53</course>
  <speed>25.64</speed>
  <fix>3d</fix>
</trkpt>
<trkpt lat="-35.2791775" lon="148.9868618">
  <ele>677.9</ele>
  <time>2026-09-01T20:00:22Z</time>
  <course>186.53</course>
  <speed>25.615827138704695</speed>
  <fix>3d</fix>
</trkpt>
<trkpt lat="-35.2791359" lon="148.9868676">
  <ele>677.6</ele>
  <time>2026-09-01T20:00:22Z</time>
  <course>186.54</course>
  <speed>25.64</speed>
  <fix>3d</fix>
</trkpt>
<trkpt lat="-35.2792004" lon="148.9868586">
  <ele>678.06</ele>
  <time>2026-09-01T20:00:22Z</time>
  <course>186.54</course>
  <speed>25.62576242768203</speed>
  <fix>3d</fix>
</trkpt>
<trkpt lat="-35.2791359" lon="148.9868676">
  <ele>677.6</ele>
  <time>2026-09-01T20:00:22Z</time>
  <course>186.54</course>
  <speed>25.64</speed>
  <fix>3d</fix>
</trkpt>
<trkpt lat="-35.2792233" lon="148.9868554">
  <ele>678.23</ele>
  <time>2026-09-01T20:00:22Z</time>
  <course>186.54</course>
  <speed>25.635697766981107</speed>
  <fix>3d</fix>
</trkpt>
<trkpt lat="-35.2791816" lon="148.9868612">
  <ele>677.93</ele>
  <time>2026-09-01T20:00:22Z</time>
  <course>186.54</course>
  <speed>25.65</speed>
  <fix>3d</fix>
</trkpt>
<trkpt lat="-35.2792464" lon="148.9868521">
  <ele>678.39</ele>
  <time>2026-09-01T20:00:22Z</time>
  <course>186.52</course>
  <speed>25.62576242768203</speed>
  <fix>3d</fix>
</trkpt>
<trkpt lat="-35.2791816" lon="148.9868612">
  <ele>677.93</ele>
  <time>2026-09-01T20:00:22Z</time>
  <course>186.54</course>
  <speed>25.65</speed>
  <fix>3d</fix>
</trkpt>
<trkpt lat="-35.2792693" lon="148.9868489">
  <ele>678.56</ele>
  <time>2026-09-01T20:00:22Z</time>
  <course>186.56</course>
  <speed>25.634564556473357</speed>
  <fix>3d</fix>
</trkpt>
<trkpt lat="-35.2792275" lon="148.9868548">
  <ele>678.26</ele>
  <time>2026-09-01T20:00:22Z</time>
  <course>186.52</course>
  <speed>25.65</speed>
  <fix>3d</fix>
</trkpt>
<trkpt lat="-35.2792921" lon="148.9868457">
  <ele>678.73</ele>
  <time>2026-09-01T20:00:22Z</time>
  <course>186.62</course>
  <speed>25.634564556473357</speed>
  <fix>3d</fix>
</trkpt>
<trkpt lat="-35.2792275" lon="148.9868548">
  <ele>678.26</ele>
  <time>2026-09-01T20:00:22Z</time>
  <course>186.52</course>
  <speed>25.65</speed>
  <fix>3d</fix>
</trkpt>
<trkpt lat="-35.2793158" lon="148.9868424">
  <ele>678.91</ele>
  <time>2026-09-01T20:00:22Z</time>
  <course>186.66</course>
  <speed>25.635697766981107</speed>
  <fix>3d</fix>
</trkpt>
<trkpt lat="-35.2792733" lon="148.9868483">
  <ele>678.59</ele>
  <time>2026-09-01T20:00:22Z</time>
  <course>186.51</course>
  <speed>25.66</speed>
  <fix>3d</fix>
</trkpt>
<trkpt lat="-35.2793385" lon="148.9868393">
  <ele>679.08</ele>
  <time>2026-09-01T20:00:22Z</time>
  <course>186.63</course>
  <speed>25.635697766981107</speed>
  <fix>3d</fix>
</trkpt>
<trkpt lat="-35.2792733" lon="148.9868483">
  <ele>678.59</ele>
  <time>2026-09-01T20:00:22Z</time>
  <course>186.51</course>
  <speed>25.66</speed>
  <fix>3d</fix>
</trkpt>
<trkpt lat="-35.2793614" lon="148.986836">
  <ele>679.25</ele>
  <time>2026-09-01T20:00:22Z</time>
  <course>186.51</course>
  <speed>25.636834828036008</speed>
  <fix>3d</fix>
</trkpt>
<trkpt lat="-35.2793192" lon="148.9868419">
  <ele>678.93</ele>
  <time>2026-09-01T20:00:22Z</time>
  <course>186.52</course>
  <speed>25.67</speed>
  <fix>3d</fix>
</trkpt>
<trkpt lat="-35.2793843" lon="148.9868328">
  <ele>679.42</ele>
  <time>2026-09-01T20:00:22Z</time>
  <course>186.51</course>
  <speed>25.646769777108386</speed>
  <fix>3d</fix>
</trkpt>
<trkpt lat="-35.2793192" lon="148.9868419">
  <ele>678.93</ele>
  <time>2026-09-01T20:00:22Z</time>
  <course>186.52</course>
  <speed>25.67</speed>
  <fix>3d</fix>
</trkpt>
<trkpt lat="-35.2794072" lon="148.9868296">
  <ele>679.59</ele>
  <time>2026-09-01T20:00:22Z</time>
  <course>186.42</course>
  <speed>25.646769777108386</speed>
  <fix>3d</fix>
</trkpt>
<trkpt lat="-35.279365" lon="148.9868354">
  <ele>679.27</ele>
  <time>2026-09-01T20:00:22Z</time>
  <course>186.53</course>
  <speed>25.67</speed>
  <fix>3d</fix>
</trkpt>
<trkpt lat="-35.2794298" lon="148.9868264">
  <ele>679.76</ele>
  <time>2026-09-01T20:00:22Z</time>
  <course>186.39</course>
  <speed>25.645633156543436</speed>
  <fix>3d</fix>
</trkpt>
<trkpt lat="-35.279365" lon="148.9868354">
  <ele>679.27</ele>
  <time>2026-09-01T20:00:22Z</time>
  <course>186.53</course>
  <speed>25.67</speed>
  <fix>3d</fix>
</trkpt>
<trkpt lat="-35.2794527" lon="148.9868232">
  <ele>679.93</ele>
  <time>2026-09-01T20:00:22Z</time>
  <course>186.42</course>
  <speed>25.64450038507282</speed>
  <fix>3d</fix>
</trkpt>
<trkpt lat="-35.2794109" lon="148.9868291">
  <ele>679.6</ele>
  <time>2026-09-01T20:00:22Z</time>
  <course>186.51</course>
  <speed>25.68</speed>
  <fix>3d</fix>
</trkpt>
<trkpt lat="-35.2794756" lon="148.98682">
  <ele>680.1</ele>
  <time>2026-09-01T20:00:22Z</time>
  <course>186.46</course>
  <speed>25.643371463206627</speed>
  <fix>3d</fix>
</trkpt>
<trkpt lat="-35.2794109" lon="148.9868291">
  <ele>679.6</ele>
  <time>2026-09-01T20:00:22Z</time>
  <course>186.51</course>
  <speed>25.68</speed>
  <fix>3d</fix>
</trkpt>
<trkpt lat="-35.2794985" lon="148.9868168">
  <ele>680.27</ele>
  <time>2026-09-01T20:00:22Z</time>
  <course>186.55</course>
  <speed>25.654436263539296</speed>
  <fix>3d</fix>
</trkpt>
<trkpt lat="-35.2794567" lon="148.9868227">
  <ele>679.94</ele>
  <time>2026-09-01T20:00:22Z</time>
  <course>186.48</course>
  <speed>25.68</speed>
  <fix>3d</fix>
</trkpt>
<trkpt lat="-35.2795215" lon="148.9868137">
  <ele>680.44</ele>
  <time>2026-09-01T20:00:22Z</time>
  <course>186.54</course>
  <speed>25.654436263539296</speed>
  <fix>3d</fix>
</trkpt>
<trkpt lat="-35.2794567" lon="148.9868227">
  <ele>679.94</ele>
  <time>2026-09-01T20:00:22Z</time>
  <course>186.48</course>
  <speed>25.68</speed>
  <fix>3d</fix>
</trkpt>
<trkpt lat="-35.2795445" lon="148.9868104">
  <ele>680.61</ele>
  <time>2026-09-01T20:00:22Z</time>
  <course>186.48</course>
  <speed>25.664372191814863</speed>
  <fix>3d</fix>
</trkpt>
<trkpt lat="-35.2795025" lon="148.9868162">
  <ele>680.28</ele>
  <time>2026-09-01T20:00:22Z</time>
  <course>186.47</course>
  <speed>25.69</speed>
  <fix>3d</fix>
</trkpt>
<trkpt lat="-35.2795674" lon="148.9868072">
  <ele>680.77</ele>
  <time>2026-09-01T20:00:22Z</time>
  <course>186.49</course>
  <speed>25.673180558707564</speed>
  <fix>3d</fix>
</trkpt>
<trkpt lat="-35.2795025" lon="148.9868162">
  <ele>680.28</ele>
  <time>2026-09-01T20:00:22Z</time>
  <course>186.47</course>
  <speed>25.69</speed>
  <fix>3d</fix>
</trkpt>
<trkpt lat="-35.2795904" lon="148.9868041">
  <ele>680.94</ele>
  <time>2026-09-01T20:00:22Z</time>
  <course>186.49</course>
  <speed>25.673180558707564</speed>
  <fix>3d</fix>
</trkpt>
<trkpt lat="-35.2795483" lon="148.9868099">
  <ele>680.62</ele>
  <time>2026-09-01T20:00:22Z</time>
  <course>186.46</course>
  <speed>25.69</speed>
  <fix>3d</fix>
</trkpt>
<trkpt lat="-35.2796134" lon="148.9868009">
  <ele>681.1</ele>
  <time>2026-09-01T20:00:22Z</time>
  <course>186.42</course>
  <speed>25.673180558707564</speed>
  <fix>3d</fix>
</trkpt>
<trkpt lat="-35.2795483" lon="148.9868099">
  <ele>680.62</ele>
  <time>2026-09-01T20:00:22Z</time>
  <course>186.46</course>
  <speed>25.69</speed>
  <fix>3d</fix>
</trkpt>
<trkpt lat="-35.2796362" lon="148.9867977">
  <ele>681.27</ele>
  <time>2026-09-01T20:00:22Z</time>
  <course>186.47</course>
  <speed>25.683117022666856</speed>
  <fix>3d</fix>
</trkpt>
<trkpt lat="-35.2795942" lon="148.9868035">
  <ele>680.95</ele>
  <time>2026-09-01T20:00:22Z</time>
  <course>186.44</course>
  <speed>25.7</speed>
  <fix>3d</fix>
</trkpt>
<trkpt lat="-35.2796591" lon="148.9867945">
  <ele>681.44</ele>
  <time>2026-09-01T20:00:22Z</time>
  <course>186.53</course>
  <speed>25.683117022666856</speed>
  <fix>3d</fix>
</trkpt>
<trkpt lat="-35.2795942" lon="148.9868035">
  <ele>680.95</ele>
  <time>2026-09-01T20:00:22Z</time>
  <course>186.44</course>
  <speed>25.7</speed>
  <fix>3d</fix>
</trkpt>
<trkpt lat="-35.2796821" lon="148.9867914">
  <ele>681.61</ele>
  <time>2026-09-01T20:00:22Z</time>
  <course>186.47</course>
  <speed>25.683117022666856</speed>
  <fix>3d</fix>
</trkpt>
<trkpt lat="-35.2796401" lon="148.9867972">
  <ele>681.29</ele>
  <time>2026-09-01T20:00:22Z</time>
  <course>186.43</course>
  <speed>25.7</speed>
  <fix>3d</fix>
</trkpt>
<trkpt lat="-35.2797051" lon="148.9867882">
  <ele>681.79</ele>
  <time>2026-09-01T20:00:22Z</time>
  <course>186.45</course>
  <speed>25.68199369207928</speed>
  <fix>3d</fix>
</trkpt>
<trkpt lat="-35.2796401" lon="148.9867972">
  <ele>681.29</ele>
  <time>2026-09-01T20:00:22Z</time>
  <course>186.43</course>
  <speed>25.7</speed>
  <fix>3d</fix>
</trkpt>
<trkpt lat="-35.2797282" lon="148.986785">
  <ele>681.96</ele>
  <time>2026-09-01T20:00:22Z</time>
  <course>186.42</course>
  <speed>25.68199369207928</speed>
  <fix>3d</fix>
</trkpt>
<trkpt lat="-35.2796861" lon="148.9867909">
  <ele>681.63</ele>
  <time>2026-09-01T20:00:22Z</time>
  <course>186.42</course>
  <speed>25.7</speed>
  <fix>3d</fix>
</trkpt>
<trkpt lat="-35.2797512" lon="148.9867818">
  <ele>682.14</ele>
  <time>2026-09-01T20:00:22Z</time>
  <course>186.46</course>
  <speed>25.683117022666856</speed>
  <fix>3d</fix>
</trkpt>
<trkpt lat="-35.2796861" lon="148.9867909">
  <ele>681.63</ele>
  <time>2026-09-01T20:00:22Z</time>
  <course>186.42</course>
  <speed>25.7</speed>
  <fix>3d</fix>
</trkpt>
<trkpt lat="-35.2797742" lon="148.9867786">
  <ele>682.32</ele>
  <time>2026-09-01T20:00:22Z</time>
  <course>186.54</course>
  <speed>25.683117022666856</speed>
  <fix>3d</fix>
</trkpt>
<trkpt lat="-35.279732" lon="148.9867845">
  <ele>681.98</ele>
  <time>2026-09-01T20:00:22Z</time>
  <course>186.41</course>
  <speed>25.7</speed>
  <fix>3d</fix>
</trkpt>
<trkpt lat="-35.2797979" lon="148.9867753">
  <ele>682.51</ele>
  <time>2026-09-01T20:00:22Z</time>
  <course>186.52</course>
  <speed>25.693053535926786</speed>
  <fix>3d</fix>
</trkpt>
<trkpt lat="-35.279732" lon="148.9867845">
  <ele>681.98</ele>
  <time>2026-09-01T20:00:22Z</time>
  <course>186.41</course>
  <speed>25.7</speed>
  <fix>3d</fix>
</trkpt>
<trkpt lat="-35.2798207" lon="148.9867722">
  <ele>682.68</ele>
  <time>2026-09-01T20:00:22Z</time>
  <course>186.48</course>
  <speed>25.693053535926786</speed>
  <fix>3d</fix>
</trkpt>
<trkpt lat="-35.2797779" lon="148.9867782">
  <ele>682.33</ele>
  <time>2026-09-01T20:00:22Z</time>
  <course>186.42</course>
  <speed>25.7</speed>
  <fix>3d</fix>
</trkpt>
<trkpt lat="-35.2798437" lon="148.986769">
  <ele>682.87</ele>
  <time>2026-09-01T20:00:22Z</time>
  <course>186.46</course>
  <speed>25.683117022666856</speed>
  <fix>3d</fix>
</trkpt>
<trkpt lat="-35.2797779" lon="148.9867782">
  <ele>682.33</ele>
  <time>2026-09-01T20:00:22Z</time>
  <course>186.42</course>
  <speed>25.7</speed>
  <fix>3d</fix>
</trkpt>
<trkpt lat="-35.2798667" lon="148.9867659">
  <ele>683.05</ele>
  <time>2026-09-01T20:00:22Z</time>
  <course>186.5</course>
  <speed>25.69193063979428</speed>
  <fix>3d</fix>
</trkpt>
<trkpt lat="-35.2798238" lon="148.9867719">
  <ele>682.7</ele>
  <time>2026-09-01T20:00:22Z</time>
  <course>186.42</course>
  <speed>25.7</speed>
  <fix>3d</fix>
</trkpt>
<trkpt lat="-35.2798896" lon="148.9867627">
  <ele>683.23</ele>
  <time>2026-09-01T20:00:22Z</time>
  <course>186.53</course>
  <speed>25.69193063979428</speed>
  <fix>3d</fix>
</trkpt>
<trkpt lat="-35.2798238" lon="148.9867719">
  <ele>682.7</ele>
  <time>2026-09-01T20:00:22Z</time>
  <course>186.42</course>
  <speed>25.7</speed>
  <fix>3d</fix>
</trkpt>
<trkpt lat="-35.2799128" lon="148.9867595">
  <ele>683.42</ele>
  <time>2026-09-01T20:00:22Z</time>
  <course>186.54</course>
  <speed>25.69193063979428</speed>
  <fix>3d</fix>
</trkpt>
<trkpt lat="-35.2798697" lon="148.9867656">
  <ele>683.06</ele>
  <time>2026-09-01T20:00:22Z</time>
  <course>186.41</course>
  <speed>25.7</speed>
  <fix>3d</fix>
</trkpt>
<trkpt lat="-35.2799358" lon="148.9867563">
  <ele>683.61</ele>
  <time>2026-09-01T20:00:22Z</time>
  <course>186.48</course>
  <speed>25.69193063979428</speed>
  <fix>3d</fix>
</trkpt>
<trkpt lat="-35.2798697" lon="148.9867656">
  <ele>683.06</ele>
  <time>2026-09-01T20:00:22Z</time>
  <course>186.41</course>
  <speed>25.7</speed>
  <fix>3d</fix>
</trkpt>
<trkpt lat="-35.2799588" lon="148.9867532">
  <ele>683.81</ele>
  <time>2026-09-01T20:00:22Z</time>
  <course>186.44</course>
  <speed>25.69081158702465</speed>
  <fix>3d</fix>
</trkpt>
<trkpt lat="-35.2799155" lon="148.9867593">
  <ele>683.44</ele>
  <time>2026-09-01T20:00:22Z</time>
  <course>186.4</course>
  <speed>25.7</speed>
  <fix>3d</fix>
</trkpt>
<trkpt lat="-35.2799817" lon="148.98675">
  <ele>684.0</ele>
  <time>2026-09-01T20:00:22Z</time>
  <course>186.44</course>
  <speed>25.689696378120157</speed>
  <fix>3d</fix>
</trkpt>
<trkpt lat="-35.2799155" lon="148.9867593">
  <ele>683.44</ele>
  <time>2026-09-01T20:00:22Z</time>
  <course>186.4</course>
  <speed>25.7</speed>
  <fix>3d</fix>
</trkpt>
<trkpt lat="-35.2800047" lon="148.9867469">
  <ele>684.19</ele>
  <time>2026-09-01T20:00:22Z</time>
  <course>186.46</course>
  <speed>25.689696378120157</speed>
  <fix>3d</fix>
</trkpt>
<trkpt lat="-35.2799614" lon="148.986753">
  <ele>683.82</ele>
  <time>2026-09-01T20:00:22Z</time>
  <course>186.37</course>
  <speed>25.7</speed>
  <fix>3d</fix>
</trkpt>
<trkpt lat="-35.2800276" lon="148.9867438">
  <ele>684.39</ele>
  <time>2026-09-01T20:00:22Z</time>
  <course>186.43</course>
  <speed>25.689696378120157</speed>
  <fix>3d</fix>
</trkpt>
<trkpt lat="-35.2799614" lon="148.986753">
  <ele>683.82</ele>
  <time>2026-09-01T20:00:22Z</time>
  <course>186.37</course>
  <speed>25.7</speed>
  <fix>3d</fix>
</trkpt>
<trkpt lat="-35.2800506" lon="148.9867406">
  <ele>684.58</ele>
  <time>2026-09-01T20:00:22Z</time>
  <course>186.45</course>
  <speed>25.688585013581424</speed>
  <fix>3d</fix>
</trkpt>
<trkpt lat="-35.2800072" lon="148.9867467">
  <ele>684.2</ele>
  <time>2026-09-01T20:00:22Z</time>
  <course>186.35</course>
  <speed>25.69</speed>
  <fix>3d</fix>
</trkpt>
<trkpt lat="-35.280073" lon="148.9867376">
  <ele>684.77</ele>
  <time>2026-09-01T20:00:22Z</time>
  <course>186.43</course>
  <speed>25.688585013581424</speed>
  <fix>3d</fix>
</trkpt>
<trkpt lat="-35.2800072" lon="148.9867467">
  <ele>684.2</ele>
  <time>2026-09-01T20:00:22Z</time>
  <course>186.35</course>
  <speed>25.69</speed>
  <fix>3d</fix>
</trkpt>
<trkpt lat="-35.2800957" lon="148.9867345">
  <ele>684.96</ele>
  <time>2026-09-01T20:00:22Z</time>
  <course>186.48</course>
  <speed>25.688585013581424</speed>
  <fix>3d</fix>
</trkpt>
<trkpt lat="-35.2800531" lon="148.9867405">
  <ele>684.59</ele>
  <time>2026-09-01T20:00:22Z</time>
  <course>186.34</course>
  <speed>25.69</speed>
  <fix>3d</fix>
</trkpt>
<trkpt lat="-35.2801187" lon="148.9867314">
  <ele>685.15</ele>
  <time>2026-09-01T20:00:22Z</time>
  <course>186.44</course>
  <speed>25.678646771198828</speed>
  <fix>3d</fix>
</trkpt>
<trkpt lat="-35.2800531" lon="148.9867405">
  <ele>684.59</ele>
  <time>2026-09-01T20:00:22Z</time>
  <course>186.34</course>
  <speed>25.69</speed>
  <fix>3d</fix>
</trkpt>
<trkpt lat="-35.2801416" lon="148.9867282">
  <ele>685.35</ele>
  <time>2026-09-01T20:00:22Z</time>
  <course>186.44</course>
  <speed>25.679758565843255</speed>
  <fix>3d</fix>
</trkpt>
<trkpt lat="-35.280099" lon="148.9867342">
  <ele>684.98</ele>
  <time>2026-09-01T20:00:22Z</time>
  <course>186.33</course>
  <speed>25.68</speed>
  <fix>3d</fix>
</trkpt>
<trkpt lat="-35.2801646" lon="148.9867251">
  <ele>685.55</ele>
  <time>2026-09-01T20:00:22Z</time>
  <course>186.44</course>
  <speed>25.669820801867704</speed>
  <fix>3d</fix>
</trkpt>
<trkpt lat="-35.280099" lon="148.9867342">
  <ele>684.98</ele>
  <time>2026-09-01T20:00:22Z</time>
  <course>186.33</course>
  <speed>25.68</speed>
  <fix>3d</fix>
</trkpt>
<trkpt lat="-35.2801876" lon="148.986722">
  <ele>685.74</ele>
  <time>2026-09-01T20:00:22Z</time>
  <course>186.44</course>
  <speed>25.669820801867704</speed>
  <fix>3d</fix>
</trkpt>
<trkpt lat="-35.280145" lon="148.9867279">
  <ele>685.37</ele>
  <time>2026-09-01T20:00:22Z</time>
  <course>186.34</course>
  <speed>25.68</speed>
  <fix>3d</fix>
</trkpt>
<trkpt lat="-35.2802107" lon="148.9867188">
  <ele>685.94</ele>
  <time>2026-09-01T20:00:22Z</time>
  <course>186.42</course>
  <speed>25.669820801867704</speed>
  <fix>3d</fix>
</trkpt>
<trkpt lat="-35.280145" lon="148.9867279">
  <ele>685.37</ele>
  <time>2026-09-01T20:00:22Z</time>
  <course>186.34</course>
  <speed>25.68</speed>
  <fix>3d</fix>
</trkpt>
<trkpt lat="-35.2802336" lon="148.9867157">
  <ele>686.14</ele>
  <time>2026-09-01T20:00:22Z</time>
  <course>186.43</course>
  <speed>25.670936874216338</speed>
  <fix>3d</fix>
</trkpt>
<trkpt lat="-35.2801908" lon="148.9867217">
  <ele>685.77</ele>
  <time>2026-09-01T20:00:22Z</time>
  <course>186.35</course>
  <speed>25.67</speed>
  <fix>3d</fix>
</trkpt>
<trkpt lat="-35.2802565" lon="148.9867125">
  <ele>686.35</ele>
  <time>2026-09-01T20:00:22Z</time>
  <course>186.37</course>
  <speed>25.669820801867704</speed>
  <fix>3d</fix>
</trkpt>
<trkpt lat="-35.2801908" lon="148.9867217">
  <ele>685.77</ele>
  <time>2026-09-01T20:00:22Z</time>
  <course>186.35</course>
  <speed>25.67</speed>
  <fix>3d</fix>
</trkpt>
<trkpt lat="-35.2802801" lon="148.9867093">
  <ele>686.56</ele>
  <time>2026-09-01T20:00:22Z</time>
  <course>186.36</course>
  <speed>25.64883233209652</speed>
  <fix>3d</fix>
</trkpt>
<trkpt lat="-35.2802367" lon="148.9867154">
  <ele>686.17</ele>
  <time>2026-09-01T20:00:22Z</time>
  <course>186.35</course>
  <speed>25.67</speed>
  <fix>3d</fix>
</trkpt>
<trkpt lat="-35.2803027" lon="148.9867062">
  <ele>686.76</ele>
  <time>2026-09-01T20:00:22Z</time>
  <course>186.39</course>
  <speed>25.64883233209652</speed>
  <fix>3d</fix>
</trkpt>
<trkpt lat="-35.2802367" lon="148.9867154">
  <ele>686.17</ele>
  <time>2026-09-01T20:00:22Z</time>
  <course>186.35</course>
  <speed>25.67</speed>
  <fix>3d</fix>
</trkpt>
<trkpt lat="-35.2803255" lon="148.9867031">
  <ele>686.96</ele>
  <time>2026-09-01T20:00:22Z</time>
  <course>186.4</course>
  <speed>25.64883233209652</speed>
  <fix>3d</fix>
</trkpt>
<trkpt lat="-35.2802825" lon="148.9867092">
  <ele>686.57</ele>
  <time>2026-09-01T20:00:22Z</time>
  <course>186.33</course>
  <speed>25.67</speed>
  <fix>3d</fix>
</trkpt>
<trkpt lat="-35.2803483" lon="148.9867">
  <ele>687.16</ele>
  <time>2026-09-01T20:00:22Z</time>
  <course>186.43</course>
  <speed>25.63778461568004</speed>
  <fix>3d</fix>
</trkpt>
<trkpt lat="-35.2802825" lon="148.9867092">
  <ele>686.57</ele>
  <time>2026-09-01T20:00:22Z</time>
  <course>186.33</course>
  <speed>25.67</speed>
  <fix>3d</fix>
</trkpt>
<trkpt lat="-35.2803711" lon="148.986697">
  <ele>687.36</ele>
  <time>2026-09-01T20:00:22Z</time>
  <course>186.47</course>
  <speed>25.63778461568004</speed>
  <fix>3d</fix>
</trkpt>
<trkpt lat="-35.2803284" lon="148.9867029">
  <ele>686.98</ele>
  <time>2026-09-01T20:00:22Z</time>
  <course>186.31</course>
  <speed>25.67</speed>
  <fix>3d</fix>
</trkpt>
<trkpt lat="-35.2803941" lon="148.9866938">
  <ele>687.57</ele>
  <time>2026-09-01T20:00:22Z</time>
  <course>186.38</course>
  <speed>25.627846183399807</speed>
  <fix>3d</fix>
</trkpt>
<trkpt lat="-35.2803284" lon="148.9867029">
  <ele>686.98</ele>
  <time>2026-09-01T20:00:22Z</time>
  <course>186.31</course>
  <speed>25.67</speed>
  <fix>3d</fix>
</trkpt>
<trkpt lat="-35.2804169" lon="148.9866907">
  <ele>687.78</ele>
  <time>2026-09-01T20:00:22Z</time>
  <course>186.28</course>
  <speed>25.617907799037766</speed>
  <fix>3d</fix>
</trkpt>
<trkpt lat="-35.2803742" lon="148.9866968">
  <ele>687.38</ele>
  <time>2026-09-01T20:00:22Z</time>
  <course>186.31</course>
  <speed>25.67</speed>
  <fix>3d</fix>
</trkpt>
<trkpt lat="-35.2804397" lon="148.9866877">
  <ele>687.98</ele>
  <time>2026-09-01T20:00:22Z</time>
  <course>186.33</course>
  <speed>25.61680112738513</speed>
  <fix>3d</fix>
</trkpt>
<trkpt lat="-35.2803742" lon="148.9866968">
  <ele>687.38</ele>
  <time>2026-09-01T20:00:22Z</time>
  <course>186.31</course>
  <speed>25.67</speed>
  <fix>3d</fix>
</trkpt>
<trkpt lat="-35.2804625" lon="148.9866846">
  <ele>688.18</ele>
  <time>2026-09-01T20:00:22Z</time>
  <course>186.33</course>
  <speed>25.61680112738513</speed>
  <fix>3d</fix>
</trkpt>
<trkpt lat="-35.28042" lon="148.9866905">
  <ele>687.79</ele>
  <time>2026-09-01T20:00:22Z</time>
  <course>186.3</course>
  <speed>25.66</speed>
  <fix>3d</fix>
</trkpt>
<trkpt lat="-35.2804853" lon="148.9866815">
  <ele>688.39</ele>
  <time>2026-09-01T20:00:22Z</time>
  <course>186.35</course>
  <speed>25.60686236148427</speed>
  <fix>3d</fix>
</trkpt>
<trkpt lat="-35.28042" lon="148.9866905">
  <ele>687.79</ele>
  <time>2026-09-01T20:00:22Z</time>
  <course>186.3</course>
  <speed>25.66</speed>
  <fix>3d</fix>
</trkpt>
<trkpt lat="-35.2805082" lon="148.9866784">
  <ele>688.59</ele>
  <time>2026-09-01T20:00:22Z</time>
  <course>186.42</course>
  <speed>25.595819971237493</speed>
  <fix>3d</fix>
</trkpt>
<trkpt lat="-35.2804658" lon="148.9866844">
  <ele>688.2</ele>
  <time>2026-09-01T20:00:22Z</time>
  <course>186.29</course>
  <speed>25.66</speed>
  <fix>3d</fix>
</trkpt>
<trkpt lat="-35.280531" lon="148.9866753">
  <ele>688.8</ele>
  <time>2026-09-01T20:00:22Z</time>
  <course>186.46</course>
  <speed>25.595819971237493</speed>
  <fix>3d</fix>
</trkpt>
<trkpt lat="-35.2804658" lon="148.9866844">
  <ele>688.2</ele>
  <time>2026-09-01T20:00:22Z</time>
  <course>186.29</course>
  <speed>25.66</speed>
  <fix>3d</fix>
</trkpt>
<trkpt lat="-35.2805538" lon="148.9866723">
  <ele>689.01</ele>
  <time>2026-09-01T20:00:22Z</time>
  <course>186.47</course>
  <speed>25.58588087207474</speed>
  <fix>3d</fix>
</trkpt>
<trkpt lat="-35.2805117" lon="148.9866781">
  <ele>688.61</ele>
  <time>2026-09-01T20:00:22Z</time>
  <course>186.29</course>
  <speed>25.65</speed>
  <fix>3d</fix>
</trkpt>
<trkpt lat="-35.2805766" lon="148.9866692">
  <ele>689.22</ele>
  <time>2026-09-01T20:00:22Z</time>
  <course>186.4</course>
  <speed>25.58588087207474</speed>
  <fix>3d</fix>
</trkpt>
<trkpt lat="-35.2805117" lon="148.9866781">
  <ele>688.61</ele>
  <time>2026-09-01T20:00:22Z</time>
  <course>186.29</course>
  <speed>25.65</speed>
  <fix>3d</fix>
</trkpt>
<trkpt lat="-35.2805994" lon="148.9866661">
  <ele>689.42</ele>
  <time>2026-09-01T20:00:22Z</time>
  <course>186.45</course>
  <speed>25.58588087207474</speed>
  <fix>3d</fix>
</trkpt>
<trkpt lat="-35.2805575" lon="148.986672">
  <ele>689.03</ele>
  <time>2026-09-01T20:00:22Z</time>
  <course>186.29</course>
  <speed>25.65</speed>
  <fix>3d</fix>
</trkpt>
<trkpt lat="-35.2806223" lon="148.986663">
  <ele>689.63</ele>
  <time>2026-09-01T20:00:22Z</time>
  <course>186.51</course>
  <speed>25.586984972833356</speed>
  <fix>3d</fix>
</trkpt>
<trkpt lat="-35.2805575" lon="148.986672">
  <ele>689.03</ele>
  <time>2026-09-01T20:00:22Z</time>
  <course>186.29</course>
  <speed>25.65</speed>
  <fix>3d</fix>
</trkpt>
<trkpt lat="-35.2806451" lon="148.9866599">
  <ele>689.84</ele>
  <time>2026-09-01T20:00:22Z</time>
  <course>186.52</course>
  <speed>25.586984972833356</speed>
  <fix>3d</fix>
</trkpt>
<trkpt lat="-35.2806032" lon="148.9866657">
  <ele>689.44</ele>
  <time>2026-09-01T20:00:22Z</time>
  <course>186.29</course>
  <speed>25.65</speed>
  <fix>3d</fix>
</trkpt>
<trkpt lat="-35.280668" lon="148.9866568">
  <ele>690.05</ele>
  <time>2026-09-01T20:00:22Z</time>
  <course>186.52</course>
  <speed>25.586984972833356</speed>
  <fix>3d</fix>
</trkpt>
<trkpt lat="-35.2806032" lon="148.9866657">
  <ele>689.44</ele>
  <time>2026-09-01T20:00:22Z</time>
  <course>186.29</course>
  <speed>25.65</speed>
  <fix>3d</fix>
</trkpt>
<trkpt lat="-35.2806908" lon="148.9866537">
  <ele>690.26</ele>
  <time>2026-09-01T20:00:22Z</time>
  <course>186.51</course>
  <speed>25.588092934019137</speed>
  <fix>3d</fix>
</trkpt>
<trkpt lat="-35.2806491" lon="148.9866596">
  <ele>689.87</ele>
  <time>2026-09-01T20:00:22Z</time>
  <course>186.3</course>
  <speed>25.65</speed>
  <fix>3d</fix>
</trkpt>
<trkpt lat="-35.2807131" lon="148.9866507">
  <ele>690.47</ele>
  <time>2026-09-01T20:00:22Z</time>
  <course>186.49</course>
  <speed>25.57926699497075</speed>
  <fix>3d</fix>
</trkpt>
<trkpt lat="-35.2806491" lon="148.9866596">
  <ele>689.87</ele>
  <time>2026-09-01T20:00:22Z</time>
  <course>186.3</course>
  <speed>25.65</speed>
  <fix>3d</fix>
</trkpt>
<trkpt lat="-35.2807367" lon="148.9866475">
  <ele>690.69</ele>
  <time>2026-09-01T20:00:22Z</time>
  <course>186.52</course>
  <speed>25.569329283342572</speed>
  <fix>3d</fix>
</trkpt>
<trkpt lat="-35.2806949" lon="148.9866533">
  <ele>690.29</ele>
  <time>2026-09-01T20:00:22Z</time>
  <course>186.32</course>
  <speed>25.65</speed>
  <fix>3d</fix>
</trkpt>
<trkpt lat="-35.2807596" lon="148.9866443">
  <ele>690.91</ele>
  <time>2026-09-01T20:00:22Z</time>
  <course>186.58</course>
  <speed>25.569329283342572</speed>
  <fix>3d</fix>
</trkpt>
<trkpt lat="-35.2806949" lon="148.9866533">
  <ele>690.29</ele>
  <time>2026-09-01T20:00:22Z</time>
  <course>186.32</course>
  <speed>25.65</speed>
  <fix>3d</fix>
</trkpt>
<trkpt lat="-35.2807823" lon="148.9866412">
  <ele>691.13</ele>
  <time>2026-09-01T20:00:22Z</time>
  <course>186.56</course>
  <speed>25.57926699497075</speed>
  <fix>3d</fix>
</trkpt>
<trkpt lat="-35.2807408" lon="148.9866471">
  <ele>690.72</ele>
  <time>2026-09-01T20:00:22Z</time>
  <course>186.34</course>
  <speed>25.65</speed>
  <fix>3d</fix>
</trkpt>
<trkpt lat="-35.2808052" lon="148.9866381">
  <ele>691.36</ele>
  <time>2026-09-01T20:00:22Z</time>
  <course>186.56</course>
  <speed>25.58038310893721</speed>
  <fix>3d</fix>
</trkpt>
<trkpt lat="-35.2807408" lon="148.9866471">
  <ele>690.72</ele>
  <time>2026-09-01T20:00:22Z</time>
  <course>186.34</course>
  <speed>25.65</speed>
  <fix>3d</fix>
</trkpt>
<trkpt lat="-35.2808281" lon="148.986635">
  <ele>691.58</ele>
  <time>2026-09-01T20:00:22Z</time>
  <course>186.52</course>
  <speed>25.58038310893721</speed>
  <fix>3d</fix>
</trkpt>
<trkpt lat="-35.2807866" lon="148.9866409">
  <ele>691.16</ele>
  <time>2026-09-01T20:00:22Z</time>
  <course>186.36</course>
  <speed>25.65</speed>
  <fix>3d</fix>
</trkpt>
<trkpt lat="-35.280851" lon="148.9866318">
  <ele>691.81</ele>
  <time>2026-09-01T20:00:22Z</time>
  <course>186.52</course>
  <speed>25.58038310893721</speed>
  <fix>3d</fix>
</trkpt>
<trkpt lat="-35.2807866" lon="148.9866409">
  <ele>691.16</ele>
  <time>2026-09-01T20:00:22Z</time>
  <course>186.36</course>
  <speed>25.65</speed>
  <fix>3d</fix>
</trkpt>
<trkpt lat="-35.2808741" lon="148.9866287">
  <ele>692.04</ele>
  <time>2026-09-01T20:00:22Z</time>
  <course>186.53</course>
  <speed>25.58038310893721</speed>
  <fix>3d</fix>
</trkpt>
<trkpt lat="-35.2808323" lon="148.9866346">
  <ele>691.61</ele>
  <time>2026-09-01T20:00:22Z</time>
  <course>186.38</course>
  <speed>25.65</speed>
  <fix>3d</fix>
</trkpt>
<trkpt lat="-35.280897" lon="148.9866255">
  <ele>692.28</ele>
  <time>2026-09-01T20:00:22Z</time>
  <course>186.54</course>
  <speed>25.570445831076157</speed>
  <fix>3d</fix>
</trkpt>
<trkpt lat="-35.2808323" lon="148.9866346">
  <ele>691.61</ele>
  <time>2026-09-01T20:00:22Z</time>
  <course>186.38</course>
  <speed>25.65</speed>
  <fix>3d</fix>
</trkpt>
<trkpt lat="-35.28092" lon="148.9866224">
  <ele>692.52</ele>
  <time>2026-09-01T20:00:22Z</time>
  <course>186.52</course>
  <speed>25.58038310893721</speed>
  <fix>3d</fix>
</trkpt>
<trkpt lat="-35.2808782" lon="148.9866283">
  <ele>692.07</ele>
  <time>2026-09-01T20:00:22Z</time>
  <course>186.37</course>
  <speed>25.64</speed>
  <fix>3d</fix>
</trkpt>
<trkpt lat="-35.2809429" lon="148.9866193">
  <ele>692.76</ele>
  <time>2026-09-01T20:00:22Z</time>
  <course>186.58</course>
  <speed>25.57926699497075</speed>
  <fix>3d</fix>
</trkpt>
<trkpt lat="-35.2808782" lon="148.9866283">
  <ele>692.07</ele>
  <time>2026-09-01T20:00:22Z</time>
  <course>186.37</course>
  <speed>25.64</speed>
  <fix>3d</fix>
</trkpt>
<trkpt lat="-35.2809659" lon="148.9866161">
  <ele>693.0</ele>
  <time>2026-09-01T20:00:22Z</time>
  <course>186.63</course>
  <speed>25.58038310893721</speed>
  <fix>3d</fix>
</trkpt>
<trkpt lat="-35.2809239" lon="148.986622">
  <ele>692.54</ele>
  <time>2026-09-01T20:00:22Z</time>
  <course>186.37</course>
  <speed>25.63</speed>
  <fix>3d</fix>
</trkpt>
<trkpt lat="-35.2809888" lon="148.986613">
  <ele>693.24</ele>
  <time>2026-09-01T20:00:22Z</time>
  <course>186.6</course>
  <speed>25.581503083282655</speed>
  <fix>3d</fix>
</trkpt>
<trkpt lat="-35.2809239" lon="148.986622">
  <ele>692.54</ele>
  <time>2026-09-01T20:00:22Z</time>
  <course>186.37</course>
  <speed>25.63</speed>
  <fix>3d</fix>
</trkpt>
<trkpt lat="-35.2810118" lon="148.9866098">
  <ele>693.49</ele>
  <time>2026-09-01T20:00:22Z</time>
  <course>186.59</course>
  <speed>25.59143997511668</speed>
  <fix>3d</fix>
</trkpt>
<trkpt lat="-35.2809697" lon="148.9866158">
  <ele>693.02</ele>
  <time>2026-09-01T20:00:22Z</time>
  <course>186.37</course>
  <speed>25.63</speed>
  <fix>3d</fix>
</trkpt>
<trkpt lat="-35.2810347" lon="148.9866067">
  <ele>693.73</ele>
  <time>2026-09-01T20:00:22Z</time>
  <course>186.62</course>
  <speed>25.59143997511668</speed>
  <fix>3d</fix>
</trkpt>
<trkpt lat="-35.2809697" lon="148.9866158">
  <ele>693.02</ele>
  <time>2026-09-01T20:00:22Z</time>
  <course>186.37</course>
  <speed>25.63</speed>
  <fix>3d</fix>
</trkpt>
<trkpt lat="-35.2810577" lon="148.9866035">
  <ele>693.98</ele>
  <time>2026-09-01T20:00:22Z</time>
  <course>186.62</course>
  <speed>25.60137691609574</speed>
  <fix>3d</fix>
</trkpt>
<trkpt lat="-35.2810154" lon="148.9866095">
  <ele>693.5</ele>
  <time>2026-09-01T20:00:22Z</time>
  <course>186.4</course>
  <speed>25.63</speed>
  <fix>3d</fix>
</trkpt>
<trkpt lat="-35.2810806" lon="148.9866003">
  <ele>694.23</ele>
  <time>2026-09-01T20:00:22Z</time>
  <course>186.59</course>
  <speed>25.59143997511668</speed>
  <fix>3d</fix>
</trkpt>
<trkpt lat="-35.2810154" lon="148.9866095">
  <ele>693.5</ele>
  <time>2026-09-01T20:00:22Z</time>
  <course>186.4</course>
  <speed>25.63</speed>
  <fix>3d</fix>
</trkpt>
<trkpt lat="-35.2811036" lon="148.9865972">
  <ele>694.48</ele>
  <time>2026-09-01T20:00:22Z</time>
  <course>186.7</course>
  <speed>25.59256337298005</speed>
  <fix>3d</fix>
</trkpt>
<trkpt lat="-35.2810611" lon="148.9866032">
  <ele>694.0</ele>
  <time>2026-09-01T20:00:22Z</time>
  <course>186.41</course>
  <speed>25.62</speed>
  <fix>3d</fix>
</trkpt>
<trkpt lat="-35.2811265" lon="148.986594">
  <ele>694.74</ele>
  <time>2026-09-01T20:00:22Z</time>
  <course>186.76</course>
  <speed>25.593690628746767</speed>
  <fix>3d</fix>
</trkpt>
<trkpt lat="-35.2810611" lon="148.9866032">
  <ele>694.0</ele>
  <time>2026-09-01T20:00:22Z</time>
  <course>186.41</course>
  <speed>25.62</speed>
  <fix>3d</fix>
</trkpt>
<trkpt lat="-35.2811494" lon="148.9865908">
  <ele>695.0</ele>
  <time>2026-09-01T20:00:22Z</time>
  <course>186.79</course>
  <speed>25.594821741907094</speed>
  <fix>3d</fix>
</trkpt>
<trkpt lat="-35.281107" lon="148.9865969">
  <ele>694.5</ele>
  <time>2026-09-01T20:00:22Z</time>
  <course>186.42</course>
  <speed>25.61</speed>
  <fix>3d</fix>
</trkpt>
<trkpt lat="-35.2811723" lon="148.9865877">
  <ele>695.26</ele>
  <time>2026-09-01T20:00:22Z</time>
  <course>186.72</course>
  <speed>25.584886163514582</speed>
  <fix>3d</fix>
</trkpt>
<trkpt lat="-35.281107" lon="148.9865969">
  <ele>694.5</ele>
  <time>2026-09-01T20:00:22Z</time>
  <course>186.42</course>
  <speed>25.61</speed>
  <fix>3d</fix>
</trkpt>
<trkpt lat="-35.2811953" lon="148.9865845">
  <ele>695.53</ele>
  <time>2026-09-01T20:00:22Z</time>
  <course>186.67</course>
  <speed>25.586021574289347</speed>
  <fix>3d</fix>
</trkpt>
<trkpt lat="-35.2811528" lon="148.9865906">
  <ele>695.02</ele>
  <time>2026-09-01T20:00:22Z</time>
  <course>186.46</course>
  <speed>25.61</speed>
  <fix>3d</fix>
</trkpt>
<trkpt lat="-35.2812182" lon="148.9865813">
  <ele>695.79</ele>
  <time>2026-09-01T20:00:22Z</time>
  <course>186.62</course>
  <speed>25.586021574289347</speed>
  <fix>3d</fix>
</trkpt>
<trkpt lat="-35.2811528" lon="148.9865906">
  <ele>695.02</ele>
  <time>2026-09-01T20:00:22Z</time>
  <course>186.46</course>
  <speed>25.61</speed>
  <fix>3d</fix>
</trkpt>
<trkpt lat="-35.2812411" lon="148.9865781">
  <ele>696.06</ele>
  <time>2026-09-01T20:00:22Z</time>
  <course>186.64</course>
  <speed>25.586021574289347</speed>
  <fix>3d</fix>
</trkpt>
<trkpt lat="-35.2811985" lon="148.9865843">
  <ele>695.54</ele>
  <time>2026-09-01T20:00:22Z</time>
  <course>186.48</course>
  <speed>25.59</speed>
  <fix>3d</fix>
</trkpt>
<trkpt lat="-35.281264" lon="148.9865749">
  <ele>696.33</ele>
  <time>2026-09-01T20:00:22Z</time>
  <course>186.75</course>
  <speed>25.576086487185645</speed>
  <fix>3d</fix>
</trkpt>
<trkpt lat="-35.2811985" lon="148.9865843">
  <ele>695.54</ele>
  <time>2026-09-01T20:00:22Z</time>
  <course>186.48</course>
  <speed>25.59</speed>
  <fix>3d</fix>
</trkpt>
<trkpt lat="-35.2812869" lon="148.9865717">
  <ele>696.6</ele>
  <time>2026-09-01T20:00:22Z</time>
  <course>186.77</course>
  <speed>25.577226198319472</speed>
  <fix>3d</fix>
</trkpt>
<trkpt lat="-35.2812442" lon="148.9865778">
  <ele>696.07</ele>
  <time>2026-09-01T20:00:22Z</time>
  <course>186.49</course>
  <speed>25.58</speed>
  <fix>3d</fix>
</trkpt>
<trkpt lat="-35.2813097" lon="148.9865685">
  <ele>696.87</ele>
  <time>2026-09-01T20:00:22Z</time>
  <course>186.73</course>
  <speed>25.577226198319472</speed>
  <fix>3d</fix>
</trkpt>
<trkpt lat="-35.2812442" lon="148.9865778">
  <ele>696.07</ele>
  <time>2026-09-01T20:00:22Z</time>
  <course>186.49</course>
  <speed>25.58</speed>
  <fix>3d</fix>
</trkpt>
<trkpt lat="-35.2813326" lon="148.9865653">
  <ele>697.13</ele>
  <time>2026-09-01T20:00:22Z</time>
  <course>186.75</course>
  <speed>25.57836976822409</speed>
  <fix>3d</fix>
</trkpt>
<trkpt lat="-35.2812898" lon="148.9865715">
  <ele>696.6</ele>
  <time>2026-09-01T20:00:22Z</time>
  <course>186.5</course>
  <speed>25.57</speed>
  <fix>3d</fix>
</trkpt>
<trkpt lat="-35.2813557" lon="148.9865621">
  <ele>697.4</ele>
  <time>2026-09-01T20:00:22Z</time>
  <course>186.7</course>
  <speed>25.568435618942353</speed>
  <fix>3d</fix>
</trkpt>
<trkpt lat="-35.2812898" lon="148.9865715">
  <ele>696.6</ele>
  <time>2026-09-01T20:00:22Z</time>
  <course>186.5</course>
  <speed>25.57</speed>
  <fix>3d</fix>
</trkpt>
<trkpt lat="-35.2813786" lon="148.9865589">
  <ele>697.68</ele>
  <time>2026-09-01T20:00:22Z</time>
  <course>186.72</course>
  <speed>25.568435618942353</speed>
  <fix>3d</fix>
</trkpt>
<trkpt lat="-35.2813355" lon="148.9865651">
  <ele>697.13</ele>
  <time>2026-09-01T20:00:22Z</time>
  <course>186.52</course>
  <speed>25.57</speed>
  <fix>3d</fix>
</trkpt>
<trkpt lat="-35.2814014" lon="148.9865556">
  <ele>697.95</ele>
  <time>2026-09-01T20:00:22Z</time>
  <course>186.76</course>
  <speed>25.558501521020357</speed>
  <fix>3d</fix>
</trkpt>
<trkpt lat="-35.2813355" lon="148.9865651">
  <ele>697.13</ele>
  <time>2026-09-01T20:00:22Z</time>
  <course>186.52</course>
  <speed>25.57</speed>
  <fix>3d</fix>
</trkpt>
<trkpt lat="-35.2814243" lon="148.9865524">
  <ele>698.23</ele>
  <time>2026-09-01T20:00:22Z</time>
  <course>186.78</course>
  <speed>25.558501521020357</speed>
  <fix>3d</fix>
</trkpt>
<trkpt lat="-35.2813811" lon="148.9865588">
  <ele>697.67</ele>
  <time>2026-09-01T20:00:22Z</time>
  <course>186.53</course>
  <speed>25.55</speed>
  <fix>3d</fix>
</trkpt>
<trkpt lat="-35.2814472" lon="148.9865492">
  <ele>698.5</ele>
  <time>2026-09-01T20:00:22Z</time>
  <course>186.76</course>
  <speed>25.558501521020357</speed>
  <fix>3d</fix>
</trkpt>
<trkpt lat="-35.2813811" lon="148.9865588">
  <ele>697.67</ele>
  <time>2026-09-01T20:00:22Z</time>
  <course>186.53</course>
  <speed>25.55</speed>
  <fix>3d</fix>
</trkpt>
<trkpt lat="-35.28147" lon="148.986546">
  <ele>698.77</ele>
  <time>2026-09-01T20:00:22Z</time>
  <course>186.77</course>
  <speed>25.558501521020357</speed>
  <fix>3d</fix>
</trkpt>
<trkpt lat="-35.2814267" lon="148.9865524">
  <ele>698.22</ele>
  <time>2026-09-01T20:00:22Z</time>
  <course>186.55</course>
  <speed>25.54</speed>
  <fix>3d</fix>
</trkpt>
<trkpt lat="-35.2814929" lon="148.9865428">
  <ele>699.05</ele>
  <time>2026-09-01T20:00:22Z</time>
  <course>186.8</course>
  <speed>25.559649841106978</speed>
  <fix>3d</fix>
</trkpt>
<trkpt lat="-35.2814267" lon="148.9865524">
  <ele>698.22</ele>
  <time>2026-09-01T20:00:22Z</time>
  <course>186.55</course>
  <speed>25.54</speed>
  <fix>3d</fix>
</trkpt>
<trkpt lat="-35.2815157" lon="148.9865396">
  <ele>699.33</ele>
  <time>2026-09-01T20:00:22Z</time>
  <course>186.8</course>
  <speed>25.548567474518016</speed>
  <fix>3d</fix>
</trkpt>
<trkpt lat="-35.2814722" lon="148.9865459">
  <ele>698.77</ele>
  <time>2026-09-01T20:00:22Z</time>
  <course>186.56</course>
  <speed>25.53</speed>
  <fix>3d</fix>
</trkpt>
<trkpt lat="-35.2815386" lon="148.9865364">
  <ele>699.6</ele>
  <time>2026-09-01T20:00:22Z</time>
  <course>186.78</course>
  <speed>25.548567474518016</speed>
  <fix>3d</fix>
</trkpt>
<trkpt lat="-35.2814722" lon="148.9865459">
  <ele>698.77</ele>
  <time>2026-09-01T20:00:22Z</time>
  <course>186.56</course>
  <speed>25.53</speed>
  <fix>3d</fix>
</trkpt>
<trkpt lat="-35.2815613" lon="148.9865332">
  <ele>699.88</ele>
  <time>2026-09-01T20:00:22Z</time>
  <course>186.76</course>
  <speed>25.548567474518016</speed>
  <fix>3d</fix>
</trkpt>
<trkpt lat="-35.2815178" lon="148.9865395">
  <ele>699.31</ele>
  <time>2026-09-01T20:00:22Z</time>
  <course>186.56</course>
  <speed>25.53</speed>
  <fix>3d</fix>
</trkpt>
<trkpt lat="-35.281584" lon="148.98653">
  <ele>700.15</ele>
  <time>2026-09-01T20:00:22Z</time>
  <course>186.83</course>
  <speed>25.548567474518016</speed>
  <fix>3d</fix>
</trkpt>
<trkpt lat="-35.2815178" lon="148.9865395">
  <ele>699.31</ele>
  <time>2026-09-01T20:00:22Z</time>
  <course>186.56</course>
  <speed>25.53</speed>
  <fix>3d</fix>
</trkpt>
<trkpt lat="-35.2816067" lon="148.9865268">
  <ele>700.42</ele>
  <time>2026-09-01T20:00:22Z</time>
  <course>186.83</course>
  <speed>25.548567474518016</speed>
  <fix>3d</fix>
</trkpt>
<trkpt lat="-35.2815633" lon="148.986533">
  <ele>699.86</ele>
  <time>2026-09-01T20:00:22Z</time>
  <course>186.55</course>
  <speed>25.53</speed>
  <fix>3d</fix>
</trkpt>
<trkpt lat="-35.2816293" lon="148.9865236">
  <ele>700.68</ele>
  <time>2026-09-01T20:00:22Z</time>
  <course>186.77</course>
  <speed>25.538633479495335</speed>
  <fix>3d</fix>
</trkpt>
<trkpt lat="-35.2815633" lon="148.986533">
  <ele>699.86</ele>
  <time>2026-09-01T20:00:22Z</time>
  <course>186.55</course>
  <speed>25.53</speed>
  <fix>3d</fix>
</trkpt>
<trkpt lat="-35.281652" lon="148.9865204">
  <ele>700.95</ele>
  <time>2026-09-01T20:00:22Z</time>
  <course>186.77</course>
  <speed>25.528699536012404</speed>
  <fix>3d</fix>
</trkpt>
<trkpt lat="-35.281609" lon="148.9865267">
  <ele>700.4</ele>
  <time>2026-09-01T20:00:22Z</time>
  <course>186.55</course>
  <speed>25.53</speed>
  <fix>3d</fix>
</trkpt>
<trkpt lat="-35.2816747" lon="148.9865172">
  <ele>701.21</ele>
  <time>2026-09-01T20:00:22Z</time>
  <course>186.78</course>
  <speed>25.528699536012404</speed>
  <fix>3d</fix>
</trkpt>
<trkpt lat="-35.281609" lon="148.9865267">
  <ele>700.4</ele>
  <time>2026-09-01T20:00:22Z</time>
  <course>186.55</course>
  <speed>25.53</speed>
  <fix>3d</fix>
</trkpt>
<trkpt lat="-35.2816974" lon="148.9865141">
  <ele>701.47</ele>
  <time>2026-09-01T20:00:22Z</time>
  <course>186.76</course>
  <speed>25.52755374100699</speed>
  <fix>3d</fix>
</trkpt>
<trkpt lat="-35.2816547" lon="148.9865203">
  <ele>700.93</ele>
  <time>2026-09-01T20:00:22Z</time>
  <course>186.54</course>
  <speed>25.53</speed>
  <fix>3d</fix>
</trkpt>
<trkpt lat="-35.2817201" lon="148.9865109">
  <ele>701.72</ele>
  <time>2026-09-01T20:00:22Z</time>
  <course>186.8</course>
  <speed>25.528699536012404</speed>
  <fix>3d</fix>
</trkpt>
<trkpt lat="-35.2816547" lon="148.9865203">
  <ele>700.93</ele>
  <time>2026-09-01T20:00:22Z</time>
  <course>186.54</course>
  <speed>25.53</speed>
  <fix>3d</fix>
</trkpt>
<trkpt lat="-35.2817428" lon="148.9865077">
  <ele>701.98</ele>
  <time>2026-09-01T20:00:22Z</time>
  <course>186.79</course>
  <speed>25.538633479495335</speed>
  <fix>3d</fix>
</trkpt>
<trkpt lat="-35.2817002" lon="148.9865138">
  <ele>701.45</ele>
  <time>2026-09-01T20:00:22Z</time>
  <course>186.53</course>
  <speed>25.54</speed>
  <fix>3d</fix>
</trkpt>
<trkpt lat="-35.2817655" lon="148.9865045">
  <ele>702.23</ele>
  <time>2026-09-01T20:00:22Z</time>
  <course>186.72</course>
  <speed>25.537488130197925</speed>
  <fix>3d</fix>
</trkpt>
<trkpt lat="-35.2817002" lon="148.9865138">
  <ele>701.45</ele>
  <time>2026-09-01T20:00:22Z</time>
  <course>186.53</course>
  <speed>25.54</speed>
  <fix>3d</fix>
</trkpt>
<trkpt lat="-35.2817882" lon="148.9865013">
  <ele>702.48</ele>
  <time>2026-09-01T20:00:22Z</time>
  <course>186.68</course>
  <speed>25.5474225705843</speed>
  <fix>3d</fix>
</trkpt>
<trkpt lat="-35.2817457" lon="148.9865075">
  <ele>701.96</ele>
  <time>2026-09-01T20:00:22Z</time>
  <course>186.52</course>
  <speed>25.55</speed>
  <fix>3d</fix>
</trkpt>
<trkpt lat="-35.2818108" lon="148.9864982">
  <ele>702.72</ele>
  <time>2026-09-01T20:00:22Z</time>
  <course>186.66</course>
  <speed>25.556216464883843</speed>
  <fix>3d</fix>
</trkpt>
<trkpt lat="-35.2817457" lon="148.9865075">
  <ele>701.96</ele>
  <time>2026-09-01T20:00:22Z</time>
  <course>186.52</course>
  <speed>25.55</speed>
  <fix>3d</fix>
</trkpt>
<trkpt lat="-35.2818335" lon="148.986495">
  <ele>702.96</ele>
  <time>2026-09-01T20:00:22Z</time>
  <course>186.72</course>
  <speed>25.56501515743732</speed>
  <fix>3d</fix>
</trkpt>
<trkpt lat="-35.2817914" lon="148.9865011">
  <ele>702.46</ele>
  <time>2026-09-01T20:00:22Z</time>
  <course>186.5</course>
  <speed>25.57</speed>
  <fix>3d</fix>
</trkpt>
<trkpt lat="-35.2818563" lon="148.9864918">
  <ele>703.19</ele>
  <time>2026-09-01T20:00:22Z</time>
  <course>186.77</course>
  <speed>25.573818643292206</speed>
  <fix>3d</fix>
</trkpt>
<trkpt lat="-35.2817914" lon="148.9865011">
  <ele>702.46</ele>
  <time>2026-09-01T20:00:22Z</time>
  <course>186.5</course>
  <speed>25.57</speed>
  <fix>3d</fix>
</trkpt>
<trkpt lat="-35.2818791" lon="148.9864887">
  <ele>703.43</ele>
  <time>2026-09-01T20:00:22Z</time>
  <course>186.73</course>
  <speed>25.573818643292206</speed>
  <fix>3d</fix>
</trkpt>
<trkpt lat="-35.2818371" lon="148.9864947">
  <ele>702.94</ele>
  <time>2026-09-01T20:00:22Z</time>
  <course>186.46</course>
  <speed>25.6</speed>
  <fix>3d</fix>
</trkpt>
<trkpt lat="-35.2819019" lon="148.9864855">
  <ele>703.67</ele>
  <time>2026-09-01T20:00:22Z</time>
  <course>186.69</course>
  <speed>25.573818643292206</speed>
  <fix>3d</fix>
</trkpt>
<trkpt lat="-35.2818371" lon="148.9864947">
  <ele>702.94</ele>
  <time>2026-09-01T20:00:22Z</time>
  <course>186.46</course>
  <speed>25.6</speed>
  <fix>3d</fix>
</trkpt>
<trkpt lat="-35.2819249" lon="148.9864823">
  <ele>703.91</ele>
  <time>2026-09-01T20:00:22Z</time>
  <course>186.66</course>
  <speed>25.58262691750009</speed>
  <fix>3d</fix>
</trkpt>
<trkpt lat="-35.2818828" lon="148.9864883">
  <ele>703.41</ele>
  <time>2026-09-01T20:00:22Z</time>
  <course>186.44</course>
  <speed>25.62</speed>
  <fix>3d</fix>
</trkpt>
<trkpt lat="-35.2819477" lon="148.9864792">
  <ele>704.14</ele>
  <time>2026-09-01T20:00:22Z</time>
  <course>186.7</course>
  <speed>25.59256337298005</speed>
  <fix>3d</fix>
</trkpt>
<trkpt lat="-35.2818828" lon="148.9864883">
  <ele>703.41</ele>
  <time>2026-09-01T20:00:22Z</time>
  <course>186.44</course>
  <speed>25.62</speed>
  <fix>3d</fix>
</trkpt>
<trkpt lat="-35.2819707" lon="148.986476">
  <ele>704.38</ele>
  <time>2026-09-01T20:00:22Z</time>
  <course>186.73</course>
  <speed>25.60249987794161</speed>
  <fix>3d</fix>
</trkpt>
<trkpt lat="-35.2819285" lon="148.986482">
  <ele>703.88</ele>
  <time>2026-09-01T20:00:22Z</time>
  <course>186.43</course>
  <speed>25.63</speed>
  <fix>3d</fix>
</trkpt>
<trkpt lat="-35.2819936" lon="148.9864729">
  <ele>704.61</ele>
  <time>2026-09-01T20:00:23Z</time>
  <course>186.74</course>
  <speed>25.61243643232717</speed>
  <fix>3d</fix>
</trkpt>
<trkpt lat="-35.2819285" lon="148.986482">
  <ele>703.88</ele>
  <time>2026-09-01T20:00:23Z</time>
  <course>186.43</course>
  <speed>25.63</speed>
  <fix>3d</fix>
</trkpt>
<trkpt lat="-35.2820164" lon="148.9864697">
  <ele>704.85</ele>
  <time>2026-09-01T20:00:23Z</time>
  <course>186.74</course>
  <speed>25.613562813478328</speed>
  <fix>3d</fix>
</trkpt>
<trkpt lat="-35.2819743" lon="148.9864757">
  <ele>704.35</ele>
  <time>2026-09-01T20:00:23Z</time>
  <course>186.42</course>
  <speed>25.65</speed>
  <fix>3d</fix>
</trkpt>
<trkpt lat="-35.2820393" lon="148.9864665">
  <ele>705.09</ele>
  <time>2026-09-01T20:00:23Z</time>
  <course>186.7</course>
  <speed>25.623498980428103</speed>
  <fix>3d</fix>
</trkpt>
<trkpt lat="-35.2819743" lon="148.9864757">
  <ele>704.35</ele>
  <time>2026-09-01T20:00:23Z</time>
  <course>186.42</course>
  <speed>25.65</speed>
  <fix>3d</fix>
</trkpt>
<trkpt lat="-35.2820622" lon="148.9864634">
  <ele>705.32</ele>
  <time>2026-09-01T20:00:23Z</time>
  <course>186.68</course>
  <speed>25.623498980428103</speed>
  <fix>3d</fix>
</trkpt>
<trkpt lat="-35.2820201" lon="148.9864694">
  <ele>704.82</ele>
  <time>2026-09-01T20:00:23Z</time>
  <course>186.43</course>
  <speed>25.67</speed>
  <fix>3d</fix>
</trkpt>
<trkpt lat="-35.2820851" lon="148.9864602">
  <ele>705.56</ele>
  <time>2026-09-01T20:00:23Z</time>
  <course>186.74</course>
  <speed>25.634564556473357</speed>
  <fix>3d</fix>
</trkpt>
<trkpt lat="-35.2820201" lon="148.9864694">
  <ele>704.82</ele>
  <time>2026-09-01T20:00:23Z</time>
  <course>186.43</course>
  <speed>25.67</speed>
  <fix>3d</fix>
</trkpt>
<trkpt lat="-35.282108" lon="148.986457">
  <ele>705.79</ele>
  <time>2026-09-01T20:00:23Z</time>
  <course>186.73</course>
  <speed>25.64450038507282</speed>
  <fix>3d</fix>
</trkpt>
<trkpt lat="-35.282066" lon="148.986463">
  <ele>705.3</ele>
  <time>2026-09-01T20:00:23Z</time>
  <course>186.44</course>
  <speed>25.69</speed>
  <fix>3d</fix>
</trkpt>
<trkpt lat="-35.282131" lon="148.9864538">
  <ele>706.03</ele>
  <time>2026-09-01T20:00:23Z</time>
  <course>186.71</course>
  <speed>25.655568596310626</speed>
  <fix>3d</fix>
</trkpt>
<trkpt lat="-35.282066" lon="148.986463">
  <ele>705.3</ele>
  <time>2026-09-01T20:00:23Z</time>
  <course>186.44</course>
  <speed>25.69</speed>
  <fix>3d</fix>
</trkpt>
<trkpt lat="-35.2821539" lon="148.9864507">
  <ele>706.26</ele>
  <time>2026-09-01T20:00:23Z</time>
  <course>186.78</course>
  <speed>25.675439626226463</speed>
  <fix>3d</fix>
</trkpt>
<trkpt lat="-35.282112" lon="148.9864567">
  <ele>705.77</ele>
  <time>2026-09-01T20:00:23Z</time>
  <course>186.45</course>
  <speed>25.71</speed>
  <fix>3d</fix>
</trkpt>
<trkpt lat="-35.2821769" lon="148.9864475">
  <ele>706.48</ele>
  <time>2026-09-01T20:00:23Z</time>
  <course>186.82</course>
  <speed>25.686510078249242</speed>
  <fix>3d</fix>
</trkpt>
<trkpt lat="-35.282112" lon="148.9864567">
  <ele>705.77</ele>
  <time>2026-09-01T20:00:23Z</time>
  <course>186.45</course>
  <speed>25.71</speed>
  <fix>3d</fix>
</trkpt>
<trkpt lat="-35.2821999" lon="148.9864443">
  <ele>706.71</ele>
  <time>2026-09-01T20:00:23Z</time>
  <course>186.76</course>
  <speed>25.69644527945451</speed>
  <fix>3d</fix>
</trkpt>
<trkpt lat="-35.2821579" lon="148.9864503">
  <ele>706.23</ele>
  <time>2026-09-01T20:00:23Z</time>
  <course>186.46</course>
  <speed>25.73</speed>
  <fix>3d</fix>
</trkpt>
<trkpt lat="-35.2822229" lon="148.986441">
  <ele>706.94</ele>
  <time>2026-09-01T20:00:23Z</time>
  <course>186.75</course>
  <speed>25.707518355531715</speed>
  <fix>3d</fix>
</trkpt>
<trkpt lat="-35.2821579" lon="148.9864503">
  <ele>706.23</ele>
  <time>2026-09-01T20:00:23Z</time>
  <course>186.46</course>
  <speed>25.73</speed>
  <fix>3d</fix>
</trkpt>
<trkpt lat="-35.2822459" lon="148.9864378">
  <ele>707.17</ele>
  <time>2026-09-01T20:00:23Z</time>
  <course>186.81</course>
  <speed>25.7174532176108</speed>
  <fix>3d</fix>
</trkpt>
<trkpt lat="-35.2822039" lon="148.986444">
  <ele>706.68</ele>
  <time>2026-09-01T20:00:23Z</time>
  <course>186.47</course>
  <speed>25.75</speed>
  <fix>3d</fix>
</trkpt>
<trkpt lat="-35.2822689" lon="148.9864346">
  <ele>707.4</ele>
  <time>2026-09-01T20:00:23Z</time>
  <course>186.84</course>
  <speed>25.7174532176108</speed>
  <fix>3d</fix>
</trkpt>
<trkpt lat="-35.2822039" lon="148.986444">
  <ele>706.68</ele>
  <time>2026-09-01T20:00:23Z</time>
  <course>186.47</course>
  <speed>25.75</speed>
  <fix>3d</fix>
</trkpt>
<trkpt lat="-35.2822918" lon="148.9864315">
  <ele>707.63</ele>
  <time>2026-09-01T20:00:23Z</time>
  <course>186.84</course>
  <speed>25.72738813016199</speed>
  <fix>3d</fix>
</trkpt>
<trkpt lat="-35.2822498" lon="148.9864375">
  <ele>707.14</ele>
  <time>2026-09-01T20:00:23Z</time>
  <course>186.48</course>
  <speed>25.76</speed>
  <fix>3d</fix>
</trkpt>
<trkpt lat="-35.2823148" lon="148.9864282">
  <ele>707.86</ele>
  <time>2026-09-01T20:00:23Z</time>
  <course>186.79</course>
  <speed>25.72738813016199</speed>
  <fix>3d</fix>
</trkpt>
<trkpt lat="-35.2822498" lon="148.9864375">
  <ele>707.14</ele>
  <time>2026-09-01T20:00:23Z</time>
  <course>186.48</course>
  <speed>25.76</speed>
  <fix>3d</fix>
</trkpt>
<trkpt lat="-35.2823378" lon="148.986425">
  <ele>708.1</ele>
  <time>2026-09-01T20:00:23Z</time>
  <course>186.76</course>
  <speed>25.73732309312684</speed>
  <fix>3d</fix>
</trkpt>
<trkpt lat="-35.2822958" lon="148.9864312">
  <ele>707.6</ele>
  <time>2026-09-01T20:00:23Z</time>
  <course>186.48</course>
  <speed>25.77</speed>
  <fix>3d</fix>
</trkpt>
<trkpt lat="-35.2823608" lon="148.9864218">
  <ele>708.33</ele>
  <time>2026-09-01T20:00:23Z</time>
  <course>186.77</course>
  <speed>25.736186586205815</speed>
  <fix>3d</fix>
</trkpt>
<trkpt lat="-35.2822958" lon="148.9864312">
  <ele>707.6</ele>
  <time>2026-09-01T20:00:23Z</time>
  <course>186.48</course>
  <speed>25.77</speed>
  <fix>3d</fix>
</trkpt>
<trkpt lat="-35.2823841" lon="148.9864186">
  <ele>708.57</ele>
  <time>2026-09-01T20:00:23Z</time>
  <course>186.71</course>
  <speed>25.74612203808566</speed>
  <fix>3d</fix>
</trkpt>
<trkpt lat="-35.2823418" lon="148.9864248">
  <ele>708.06</ele>
  <time>2026-09-01T20:00:23Z</time>
  <course>186.48</course>
  <speed>25.77</speed>
  <fix>3d</fix>
</trkpt>
<trkpt lat="-35.2824071" lon="148.9864154">
  <ele>708.81</ele>
  <time>2026-09-01T20:00:23Z</time>
  <course>186.65</course>
  <speed>25.754925742467208</speed>
  <fix>3d</fix>
</trkpt>
<trkpt lat="-35.2823418" lon="148.9864248">
  <ele>708.06</ele>
  <time>2026-09-01T20:00:23Z</time>
  <course>186.48</course>
  <speed>25.77</speed>
  <fix>3d</fix>
</trkpt>
<trkpt lat="-35.2824302" lon="148.9864123">
  <ele>709.04</ele>
  <time>2026-09-01T20:00:23Z</time>
  <course>186.62</course>
  <speed>25.763734201392467</speed>
  <fix>3d</fix>
</trkpt>
<trkpt lat="-35.2823877" lon="148.9864184">
  <ele>708.53</ele>
  <time>2026-09-01T20:00:23Z</time>
  <course>186.45</course>
  <speed>25.78</speed>
  <fix>3d</fix>
</trkpt>
<trkpt lat="-35.2824532" lon="148.9864091">
  <ele>709.26</ele>
  <time>2026-09-01T20:00:23Z</time>
  <course>186.64</course>
  <speed>25.762610504372418</speed>
  <fix>3d</fix>
</trkpt>
<trkpt lat="-35.2823877" lon="148.9864184">
  <ele>708.53</ele>
  <time>2026-09-01T20:00:23Z</time>
  <course>186.45</course>
  <speed>25.78</speed>
  <fix>3d</fix>
</trkpt>
<trkpt lat="-35.2824762" lon="148.9864059">
  <ele>709.48</ele>
  <time>2026-09-01T20:00:23Z</time>
  <course>186.75</course>
  <speed>25.77142797751029</speed>
  <fix>3d</fix>
</trkpt>
<trkpt lat="-35.2824338" lon="148.9864119">
  <ele>708.98</ele>
  <time>2026-09-01T20:00:23Z</time>
  <course>186.41</course>
  <speed>25.79</speed>
  <fix>3d</fix>
</trkpt>
<trkpt lat="-35.2824993" lon="148.9864028">
  <ele>709.7</ele>
  <time>2026-09-01T20:00:23Z</time>
  <course>186.75</course>
  <speed>25.772547409986466</speed>
  <fix>3d</fix>
</trkpt>
<trkpt lat="-35.2824338" lon="148.9864119">
  <ele>708.98</ele>
  <time>2026-09-01T20:00:23Z</time>
  <course>186.41</course>
  <speed>25.79</speed>
  <fix>3d</fix>
</trkpt>
<trkpt lat="-35.2825224" lon="148.9863996">
  <ele>709.91</ele>
  <time>2026-09-01T20:00:23Z</time>
  <course>186.73</course>
  <speed>25.772547409986466</speed>
  <fix>3d</fix>
</trkpt>
<trkpt lat="-35.2824799" lon="148.9864056">
  <ele>709.43</ele>
  <time>2026-09-01T20:00:23Z</time>
  <course>186.38</course>
  <speed>25.8</speed>
  <fix>3d</fix>
</trkpt>
<trkpt lat="-35.2825454" lon="148.9863964">
  <ele>710.12</ele>
  <time>2026-09-01T20:00:23Z</time>
  <course>186.69</course>
  <speed>25.78248436438971</speed>
  <fix>3d</fix>
</trkpt>
<trkpt lat="-35.2824799" lon="148.9864056">
  <ele>709.43</ele>
  <time>2026-09-01T20:00:23Z</time>
  <course>186.38</course>
  <speed>25.8</speed>
  <fix>3d</fix>
</trkpt>
<trkpt lat="-35.2825685" lon="148.9863933">
  <ele>710.33</ele>
  <time>2026-09-01T20:00:23Z</time>
  <course>186.72</course>
  <speed>25.792421367525773</speed>
  <fix>3d</fix>
</trkpt>
<trkpt lat="-35.2825259" lon="148.9863993">
  <ele>709.86</ele>
  <time>2026-09-01T20:00:23Z</time>
  <course>186.37</course>
  <speed>25.8</speed>
  <fix>3d</fix>
</trkpt>
<trkpt lat="-35.2825915" lon="148.9863901">
  <ele>710.53</ele>
  <time>2026-09-01T20:00:23Z</time>
  <course>186.75</course>
  <speed>25.792421367525773</speed>
  <fix>3d</fix>
</trkpt>
<trkpt lat="-35.2825259" lon="148.9863993">
  <ele>709.86</ele>
  <time>2026-09-01T20:00:23Z</time>
  <course>186.37</course>
  <speed>25.8</speed>
  <fix>3d</fix>
</trkpt>
<trkpt lat="-35.2826148" lon="148.9863869">
  <ele>710.73</ele>
  <time>2026-09-01T20:00:23Z</time>
  <course>186.71</course>
  <speed>25.80348038540538</speed>
  <fix>3d</fix>
</trkpt>
<trkpt lat="-35.2825721" lon="148.986393">
  <ele>710.27</ele>
  <time>2026-09-01T20:00:23Z</time>
  <course>186.37</course>
  <speed>25.81</speed>
  <fix>3d</fix>
</trkpt>
<trkpt lat="-35.2826379" lon="148.9863837">
  <ele>710.91</ele>
  <time>2026-09-01T20:00:23Z</time>
  <course>186.71</course>
  <speed>25.813417053927598</speed>
  <fix>3d</fix>
</trkpt>
<trkpt lat="-35.2825721" lon="148.986393">
  <ele>710.27</ele>
  <time>2026-09-01T20:00:23Z</time>
  <course>186.37</course>
  <speed>25.81</speed>
  <fix>3d</fix>
</trkpt>
<trkpt lat="-35.282661" lon="148.9863806">
  <ele>711.1</ele>
  <time>2026-09-01T20:00:23Z</time>
  <course>186.7</course>
  <speed>25.823353771344262</speed>
  <fix>3d</fix>
</trkpt>
<trkpt lat="-35.2826183" lon="148.9863867">
  <ele>710.67</ele>
  <time>2026-09-01T20:00:23Z</time>
  <course>186.37</course>
  <speed>25.82</speed>
  <fix>3d</fix>
</trkpt>
<trkpt lat="-35.2826841" lon="148.9863774">
  <ele>711.28</ele>
  <time>2026-09-01T20:00:23Z</time>
  <course>186.7</course>
  <speed>25.823353771344262</speed>
  <fix>3d</fix>
</trkpt>
<trkpt lat="-35.2826183" lon="148.9863867">
  <ele>710.67</ele>
  <time>2026-09-01T20:00:23Z</time>
  <course>186.37</course>
  <speed>25.82</speed>
  <fix>3d</fix>
</trkpt>
<trkpt lat="-35.2827072" lon="148.9863742">
  <ele>711.45</ele>
  <time>2026-09-01T20:00:23Z</time>
  <course>186.75</course>
  <speed>25.83329053759896</speed>
  <fix>3d</fix>
</trkpt>
<trkpt lat="-35.2826644" lon="148.9863804">
  <ele>711.04</ele>
  <time>2026-09-01T20:00:23Z</time>
  <course>186.38</course>
  <speed>25.84</speed>
  <fix>3d</fix>
</trkpt>
<trkpt lat="-35.2827303" lon="148.9863711">
  <ele>711.63</ele>
  <time>2026-09-01T20:00:23Z</time>
  <course>186.77</course>
  <speed>25.84435141380027</speed>
  <fix>3d</fix>
</trkpt>
<trkpt lat="-35.2826644" lon="148.9863804">
  <ele>711.04</ele>
  <time>2026-09-01T20:00:23Z</time>
  <course>186.38</course>
  <speed>25.84</speed>
  <fix>3d</fix>
</trkpt>
<trkpt lat="-35.2827534" lon="148.9863679">
  <ele>711.8</ele>
  <time>2026-09-01T20:00:23Z</time>
  <course>186.69</course>
  <speed>25.85428784553928</speed>
  <fix>3d</fix>
</trkpt>
<trkpt lat="-35.2827105" lon="148.9863741">
  <ele>711.41</ele>
  <time>2026-09-01T20:00:23Z</time>
  <course>186.38</course>
  <speed>25.85</speed>
  <fix>3d</fix>
</trkpt>
<trkpt lat="-35.2827763" lon="148.9863648">
  <ele>711.97</ele>
  <time>2026-09-01T20:00:23Z</time>
  <course>186.67</course>
  <speed>25.853164216397186</speed>
  <fix>3d</fix>
</trkpt>
<trkpt lat="-35.2827105" lon="148.9863741">
  <ele>711.41</ele>
  <time>2026-09-01T20:00:23Z</time>
  <course>186.38</course>
  <speed>25.85</speed>
  <fix>3d</fix>
</trkpt>
<trkpt lat="-35.2827994" lon="148.9863616">
  <ele>712.14</ele>
  <time>2026-09-01T20:00:23Z</time>
  <course>186.73</course>
  <speed>25.86422432627741</speed>
  <fix>3d</fix>
</trkpt>
<trkpt lat="-35.2827567" lon="148.9863677">
  <ele>711.76</ele>
  <time>2026-09-01T20:00:23Z</time>
  <course>186.38</course>
  <speed>25.86</speed>
  <fix>3d</fix>
</trkpt>
<trkpt lat="-35.2828225" lon="148.9863584">
  <ele>712.3</ele>
  <time>2026-09-01T20:00:23Z</time>
  <course>186.69</course>
  <speed>25.87416085595821</speed>
  <fix>3d</fix>
</trkpt>
<trkpt lat="-35.2827567" lon="148.9863677">
  <ele>711.76</ele>
  <time>2026-09-01T20:00:23Z</time>
  <course>186.38</course>
  <speed>25.86</speed>
  <fix>3d</fix>
</trkpt>
<trkpt lat="-35.2828456" lon="148.9863552">
  <ele>712.45</ele>
  <time>2026-09-01T20:00:23Z</time>
  <course>186.69</course>
  <speed>25.88297509947417</speed>
  <fix>3d</fix>
</trkpt>
<trkpt lat="-35.2828029" lon="148.9863614">
  <ele>712.09</ele>
  <time>2026-09-01T20:00:23Z</time>
  <course>186.38</course>
  <speed>25.88</speed>
  <fix>3d</fix>
</trkpt>
<trkpt lat="-35.2828689" lon="148.986352">
  <ele>712.61</ele>
  <time>2026-09-01T20:00:23Z</time>
  <course>186.72</course>
  <speed>25.88297509947417</speed>
  <fix>3d</fix>
</trkpt>
<trkpt lat="-35.2828029" lon="148.9863614">
  <ele>712.09</ele>
  <time>2026-09-01T20:00:23Z</time>
  <course>186.38</course>
  <speed>25.88</speed>
  <fix>3d</fix>
</trkpt>
<trkpt lat="-35.282892" lon="148.9863489">
  <ele>712.76</ele>
  <time>2026-09-01T20:00:23Z</time>
  <course>186.82</course>
  <speed>25.892912157577026</speed>
  <fix>3d</fix>
</trkpt>
<trkpt lat="-35.2828491" lon="148.9863551">
  <ele>712.42</ele>
  <time>2026-09-01T20:00:23Z</time>
  <course>186.38</course>
  <speed>25.89</speed>
  <fix>3d</fix>
</trkpt>
<trkpt lat="-35.2829151" lon="148.9863457">
  <ele>712.91</ele>
  <time>2026-09-01T20:00:23Z</time>
  <course>186.84</course>
  <speed>25.894034061922447</speed>
  <fix>3d</fix>
</trkpt>
<trkpt lat="-35.2828491" lon="148.9863551">
  <ele>712.42</ele>
  <time>2026-09-01T20:00:23Z</time>
  <course>186.38</course>
  <speed>25.89</speed>
  <fix>3d</fix>
</trkpt>
<trkpt lat="-35.2829383" lon="148.9863425">
  <ele>713.06</ele>
  <time>2026-09-01T20:00:23Z</time>
  <course>186.77</course>
  <speed>25.905096023755636</speed>
  <fix>3d</fix>
</trkpt>
<trkpt lat="-35.2828953" lon="148.9863487">
  <ele>712.73</ele>
  <time>2026-09-01T20:00:23Z</time>
  <course>186.39</course>
  <speed>25.9</speed>
  <fix>3d</fix>
</trkpt>
<trkpt lat="-35.2829614" lon="148.9863393">
  <ele>713.2</ele>
  <time>2026-09-01T20:00:23Z</time>
  <course>186.66</course>
  <speed>25.915032317170667</speed>
  <fix>3d</fix>
</trkpt>
<trkpt lat="-35.2828953" lon="148.9863487">
  <ele>712.73</ele>
  <time>2026-09-01T20:00:23Z</time>
  <course>186.39</course>
  <speed>25.9</speed>
  <fix>3d</fix>
</trkpt>
<trkpt lat="-35.2829846" lon="148.9863362">
  <ele>713.34</ele>
  <time>2026-09-01T20:00:23Z</time>
  <course>186.62</course>
  <speed>25.923844236532513</speed>
  <fix>3d</fix>
</trkpt>
<trkpt lat="-35.2829416" lon="148.9863424">
  <ele>713.03</ele>
  <time>2026-09-01T20:00:23Z</time>
  <course>186.41</course>
  <speed>25.92</speed>
  <fix>3d</fix>
</trkpt>
<trkpt lat="-35.2830077" lon="148.986333">
  <ele>713.48</ele>
  <time>2026-09-01T20:00:23Z</time>
  <course>186.67</course>
  <speed>25.933781058688684</speed>
  <fix>3d</fix>
</trkpt>
<trkpt lat="-35.2829416" lon="148.9863424">
  <ele>713.03</ele>
  <time>2026-09-01T20:00:23Z</time>
  <course>186.41</course>
  <speed>25.92</speed>
  <fix>3d</fix>
</trkpt>
<trkpt lat="-35.2830309" lon="148.9863298">
  <ele>713.61</ele>
  <time>2026-09-01T20:00:23Z</time>
  <course>186.68</course>
  <speed>25.943717929394776</speed>
  <fix>3d</fix>
</trkpt>
<trkpt lat="-35.2829878" lon="148.986336">
  <ele>713.32</ele>
  <time>2026-09-01T20:00:23Z</time>
  <course>186.41</course>
  <speed>25.94</speed>
  <fix>3d</fix>
</trkpt>
<trkpt lat="-35.2830541" lon="148.9863266">
  <ele>713.74</ele>
  <time>2026-09-01T20:00:23Z</time>
  <course>186.68</course>
  <speed>25.95253552160174</speed>
  <fix>3d</fix>
</trkpt>
<trkpt lat="-35.2829878" lon="148.986336">
  <ele>713.32</ele>
  <time>2026-09-01T20:00:23Z</time>
  <course>186.41</course>
  <speed>25.94</speed>
  <fix>3d</fix>
</trkpt>
<trkpt lat="-35.2830772" lon="148.9863235">
  <ele>713.86</ele>
  <time>2026-09-01T20:00:23Z</time>
  <course>186.71</course>
  <speed>25.95253552160174</speed>
  <fix>3d</fix>
</trkpt>
<trkpt lat="-35.2830342" lon="148.9863297">
  <ele>713.58</ele>
  <time>2026-09-01T20:00:23Z</time>
  <course>186.39</course>
  <speed>25.96</speed>
  <fix>3d</fix>
</trkpt>
<trkpt lat="-35.2831004" lon="148.9863203">
  <ele>713.99</ele>
  <time>2026-09-01T20:00:23Z</time>
  <course>186.65</course>
  <speed>25.962472917655592</speed>
  <fix>3d</fix>
</trkpt>
<trkpt lat="-35.2830342" lon="148.9863297">
  <ele>713.58</ele>
  <time>2026-09-01T20:00:23Z</time>
  <course>186.39</course>
  <speed>25.96</speed>
  <fix>3d</fix>
</trkpt>
<trkpt lat="-35.2831236" lon="148.9863171">
  <ele>714.12</ele>
  <time>2026-09-01T20:00:23Z</time>
  <course>186.67</course>
  <speed>25.972410361766578</speed>
  <fix>3d</fix>
</trkpt>
<trkpt lat="-35.2830807" lon="148.9863232">
  <ele>713.85</ele>
  <time>2026-09-01T20:00:23Z</time>
  <course>186.37</course>
  <speed>25.97</speed>
  <fix>3d</fix>
</trkpt>
<trkpt lat="-35.2831468" lon="148.986314">
  <ele>714.24</ele>
  <time>2026-09-01T20:00:23Z</time>
  <course>186.68</course>
  <speed>25.972410361766578</speed>
  <fix>3d</fix>
</trkpt>
<trkpt lat="-35.2830807" lon="148.9863232">
  <ele>713.85</ele>
  <time>2026-09-01T20:00:23Z</time>
  <course>186.37</course>
  <speed>25.97</speed>
  <fix>3d</fix>
</trkpt>
<trkpt lat="-35.2831701" lon="148.9863108">
  <ele>714.36</ele>
  <time>2026-09-01T20:00:23Z</time>
  <course>186.69</course>
  <speed>25.982347853879563</speed>
  <fix>3d</fix>
</trkpt>
<trkpt lat="-35.2831271" lon="148.9863169">
  <ele>714.1</ele>
  <time>2026-09-01T20:00:23Z</time>
  <course>186.36</course>
  <speed>25.98</speed>
  <fix>3d</fix>
</trkpt>
<trkpt lat="-35.2831933" lon="148.9863076">
  <ele>714.47</ele>
  <time>2026-09-01T20:00:23Z</time>
  <course>186.69</course>
  <speed>25.992285393939486</speed>
  <fix>3d</fix>
</trkpt>
<trkpt lat="-35.2831271" lon="148.9863169">
  <ele>714.1</ele>
  <time>2026-09-01T20:00:23Z</time>
  <course>186.36</course>
  <speed>25.98</speed>
  <fix>3d</fix>
</trkpt>
<trkpt lat="-35.2832165" lon="148.9863045">
  <ele>714.59</ele>
  <time>2026-09-01T20:00:23Z</time>
  <course>186.7</course>
  <speed>25.992285393939486</speed>
  <fix>3d</fix>
</trkpt>
<trkpt lat="-35.2831734" lon="148.9863106">
  <ele>714.35</ele>
  <time>2026-09-01T20:00:23Z</time>
  <course>186.36</course>
  <speed>25.99</speed>
  <fix>3d</fix>
</trkpt>
<trkpt lat="-35.2832397" lon="148.9863013">
  <ele>714.69</ele>
  <time>2026-09-01T20:00:23Z</time>
  <course>186.69</course>
  <speed>26.00222298189138</speed>
  <fix>3d</fix>
</trkpt>
<trkpt lat="-35.2831734" lon="148.9863106">
  <ele>714.35</ele>
  <time>2026-09-01T20:00:23Z</time>
  <course>186.36</course>
  <speed>25.99</speed>
  <fix>3d</fix>
</trkpt>
<trkpt lat="-35.283263" lon="148.9862981">
  <ele>714.8</ele>
  <time>2026-09-01T20:00:23Z</time>
  <course>186.6</course>
  <speed>26.00222298189138</speed>
  <fix>3d</fix>
</trkpt>
<trkpt lat="-35.2832199" lon="148.9863042">
  <ele>714.58</ele>
  <time>2026-09-01T20:00:23Z</time>
  <course>186.36</course>
  <speed>26.01</speed>
  <fix>3d</fix>
</trkpt>
<trkpt lat="-35.2832862" lon="148.9862949">
  <ele>714.92</ele>
  <time>2026-09-01T20:00:23Z</time>
  <course>186.59</course>
  <speed>26.012160617680337</speed>
  <fix>3d</fix>
</trkpt>
<trkpt lat="-35.2832199" lon="148.9863042">
  <ele>714.58</ele>
  <time>2026-09-01T20:00:23Z</time>
  <course>186.36</course>
  <speed>26.01</speed>
  <fix>3d</fix>
</trkpt>
<trkpt lat="-35.2833095" lon="148.9862918">
  <ele>715.03</ele>
  <time>2026-09-01T20:00:23Z</time>
  <course>186.68</course>
  <speed>26.013277379061638</speed>
  <fix>3d</fix>
</trkpt>
<trkpt lat="-35.2832663" lon="148.9862979">
  <ele>714.81</ele>
  <time>2026-09-01T20:00:23Z</time>
  <course>186.37</course>
  <speed>26.02</speed>
  <fix>3d</fix>
</trkpt>
<trkpt lat="-35.2833327" lon="148.9862886">
  <ele>715.14</ele>
  <time>2026-09-01T20:00:23Z</time>
  <course>186.73</course>
  <speed>26.023214636166685</speed>
  <fix>3d</fix>
</trkpt>
<trkpt lat="-35.2832663" lon="148.9862979">
  <ele>714.81</ele>
  <time>2026-09-01T20:00:23Z</time>
  <course>186.37</course>
  <speed>26.02</speed>
  <fix>3d</fix>
</trkpt>
<trkpt lat="-35.2833562" lon="148.9862853">
  <ele>715.25</ele>
  <time>2026-09-01T20:00:23Z</time>
  <course>186.7</course>
  <speed>26.034271643355034</speed>
  <fix>3d</fix>
</trkpt>
<trkpt lat="-35.2833128" lon="148.9862915">
  <ele>715.04</ele>
  <time>2026-09-01T20:00:23Z</time>
  <course>186.38</course>
  <speed>26.03</speed>
  <fix>3d</fix>
</trkpt>
<trkpt lat="-35.2833795" lon="148.9862821">
  <ele>715.36</ele>
  <time>2026-09-01T20:00:23Z</time>
  <course>186.69</course>
  <speed>26.033151941322817</speed>
  <fix>3d</fix>
</trkpt>
<trkpt lat="-35.2833128" lon="148.9862915">
  <ele>715.04</ele>
  <time>2026-09-01T20:00:23Z</time>
  <course>186.38</course>
  <speed>26.03</speed>
  <fix>3d</fix>
</trkpt>
<trkpt lat="-35.2834028" lon="148.986279">
  <ele>715.47</ele>
  <time>2026-09-01T20:00:23Z</time>
  <course>186.71</course>
  <speed>26.034271643355034</speed>
  <fix>3d</fix>
</trkpt>
<trkpt lat="-35.2833592" lon="148.9862852">
  <ele>715.27</ele>
  <time>2026-09-01T20:00:23Z</time>
  <course>186.39</course>
  <speed>26.03</speed>
  <fix>3d</fix>
</trkpt>
<trkpt lat="-35.2834261" lon="148.9862758">
  <ele>715.58</ele>
  <time>2026-09-01T20:00:23Z</time>
  <course>186.72</course>
  <speed>26.034271643355034</speed>
  <fix>3d</fix>
</trkpt>
<trkpt lat="-35.2833592" lon="148.9862852">
  <ele>715.27</ele>
  <time>2026-09-01T20:00:23Z</time>
  <course>186.39</course>
  <speed>26.03</speed>
  <fix>3d</fix>
</trkpt>
<trkpt lat="-35.2834494" lon="148.9862726">
  <ele>715.69</ele>
  <time>2026-09-01T20:00:23Z</time>
  <course>186.79</course>
  <speed>26.034271643355034</speed>
  <fix>3d</fix>
</trkpt>
<trkpt lat="-35.2834057" lon="148.9862787">
  <ele>715.5</ele>
  <time>2026-09-01T20:00:23Z</time>
  <course>186.4</course>
  <speed>26.03</speed>
  <fix>3d</fix>
</trkpt>
<trkpt lat="-35.2834726" lon="148.9862693">
  <ele>715.79</ele>
  <time>2026-09-01T20:00:23Z</time>
  <course>186.8</course>
  <speed>26.035395138157593</speed>
  <fix>3d</fix>
</trkpt>
<trkpt lat="-35.2834057" lon="148.9862787">
  <ele>715.5</ele>
  <time>2026-09-01T20:00:23Z</time>
  <course>186.4</course>
  <speed>26.03</speed>
  <fix>3d</fix>
</trkpt>
<trkpt lat="-35.2834959" lon="148.9862661">
  <ele>715.9</ele>
  <time>2026-09-01T20:00:23Z</time>
  <course>186.78</course>
  <speed>26.035395138157593</speed>
  <fix>3d</fix>
</trkpt>
<trkpt lat="-35.2834522" lon="148.9862724">
  <ele>715.72</ele>
  <time>2026-09-01T20:00:23Z</time>
  <course>186.42</course>
  <speed>26.03</speed>
  <fix>3d</fix>
</trkpt>
<trkpt lat="-35.2835192" lon="148.9862629">
  <ele>716.0</ele>
  <time>2026-09-01T20:00:23Z</time>
  <course>186.73</course>
  <speed>26.036522425239514</speed>
  <fix>3d</fix>
</trkpt>
<trkpt lat="-35.2834522" lon="148.9862724">
  <ele>715.72</ele>
  <time>2026-09-01T20:00:23Z</time>
  <course>186.42</course>
  <speed>26.03</speed>
  <fix>3d</fix>
</trkpt>
<trkpt lat="-35.2835424" lon="148.9862597">
  <ele>716.11</ele>
  <time>2026-09-01T20:00:23Z</time>
  <course>186.73</course>
  <speed>26.036522425239514</speed>
  <fix>3d</fix>
</trkpt>
<trkpt lat="-35.2834987" lon="148.9862659">
  <ele>715.93</ele>
  <time>2026-09-01T20:00:23Z</time>
  <course>186.44</course>
  <speed>26.04</speed>
  <fix>3d</fix>
</trkpt>
<trkpt lat="-35.2835657" lon="148.9862565">
  <ele>716.21</ele>
  <time>2026-09-01T20:00:23Z</time>
  <course>186.73</course>
  <speed>26.025458689521688</speed>
  <fix>3d</fix>
</trkpt>
<trkpt lat="-35.2834987" lon="148.9862659">
  <ele>715.93</ele>
  <time>2026-09-01T20:00:23Z</time>
  <course>186.44</course>
  <speed>26.04</speed>
  <fix>3d</fix>
</trkpt>
<trkpt lat="-35.283589" lon="148.9862533">
  <ele>716.32</ele>
  <time>2026-09-01T20:00:23Z</time>
  <course>186.77</course>
  <speed>26.025458689521688</speed>
  <fix>3d</fix>
</trkpt>
<trkpt lat="-35.2835453" lon="148.9862595">
  <ele>716.14</ele>
  <time>2026-09-01T20:00:23Z</time>
  <course>186.45</course>
  <speed>26.03</speed>
  <fix>3d</fix>
</trkpt>
<trkpt lat="-35.2836123" lon="148.98625">
  <ele>716.42</ele>
  <time>2026-09-01T20:00:23Z</time>
  <course>186.79</course>
  <speed>26.026586406980073</speed>
  <fix>3d</fix>
</trkpt>
<trkpt lat="-35.2835453" lon="148.9862595">
  <ele>716.14</ele>
  <time>2026-09-01T20:00:23Z</time>
  <course>186.45</course>
  <speed>26.03</speed>
  <fix>3d</fix>
</trkpt>
<trkpt lat="-35.2836356" lon="148.9862468">
  <ele>716.52</ele>
  <time>2026-09-01T20:00:23Z</time>
  <course>186.76</course>
  <speed>26.026586406980073</speed>
  <fix>3d</fix>
</trkpt>
<trkpt lat="-35.2835917" lon="148.986253">
  <ele>716.34</ele>
  <time>2026-09-01T20:00:23Z</time>
  <course>186.45</course>
  <speed>26.02</speed>
  <fix>3d</fix>
</trkpt>
<trkpt lat="-35.2836589" lon="148.9862436">
  <ele>716.62</ele>
  <time>2026-09-01T20:00:23Z</time>
  <course>186.78</course>
  <speed>26.016650437748517</speed>
  <fix>3d</fix>
</trkpt>
<trkpt lat="-35.2835917" lon="148.986253">
  <ele>716.34</ele>
  <time>2026-09-01T20:00:23Z</time>
  <course>186.45</course>
  <speed>26.02</speed>
  <fix>3d</fix>
</trkpt>
<trkpt lat="-35.2836822" lon="148.9862403">
  <ele>716.71</ele>
  <time>2026-09-01T20:00:23Z</time>
  <course>186.89</course>
  <speed>26.016650437748517</speed>
  <fix>3d</fix>
</trkpt>
<trkpt lat="-35.2836382" lon="148.9862466">
  <ele>716.54</ele>
  <time>2026-09-01T20:00:23Z</time>
  <course>186.46</course>
  <speed>26.02</speed>
  <fix>3d</fix>
</trkpt>
<trkpt lat="-35.2837055" lon="148.9862371">
  <ele>716.81</ele>
  <time>2026-09-01T20:00:23Z</time>
  <course>186.86</course>
  <speed>26.01778238051814</speed>
  <fix>3d</fix>
</trkpt>
<trkpt lat="-35.2836382" lon="148.9862466">
  <ele>716.54</ele>
  <time>2026-09-01T20:00:23Z</time>
  <course>186.46</course>
  <speed>26.02</speed>
  <fix>3d</fix>
</trkpt>
<trkpt lat="-35.2837288" lon="148.9862338">
  <ele>716.9</ele>
  <time>2026-09-01T20:00:23Z</time>
  <course>186.82</course>
  <speed>26.01778238051814</speed>
  <fix>3d</fix>
</trkpt>
<trkpt lat="-35.2836846" lon="148.9862401">
  <ele>716.73</ele>
  <time>2026-09-01T20:00:23Z</time>
  <course>186.47</course>
  <speed>26.01</speed>
  <fix>3d</fix>
</trkpt>
<trkpt lat="-35.283752" lon="148.9862306">
  <ele>716.99</ele>
  <time>2026-09-01T20:00:23Z</time>
  <course>186.76</course>
  <speed>26.007846892812946</speed>
  <fix>3d</fix>
</trkpt>
<trkpt lat="-35.2836846" lon="148.9862401">
  <ele>716.73</ele>
  <time>2026-09-01T20:00:23Z</time>
  <course>186.47</course>
  <speed>26.01</speed>
  <fix>3d</fix>
</trkpt>
<trkpt lat="-35.2837753" lon="148.9862274">
  <ele>717.08</ele>
  <time>2026-09-01T20:00:23Z</time>
  <course>186.75</course>
  <speed>25.95817019745421</speed>
  <fix>3d</fix>
</trkpt>
<trkpt lat="-35.2837311" lon="148.9862337">
  <ele>716.92</ele>
  <time>2026-09-01T20:00:23Z</time>
  <course>186.48</course>
  <speed>26.0</speed>
  <fix>3d</fix>
</trkpt>
<trkpt lat="-35.2837985" lon="148.9862241">
  <ele>717.16</ele>
  <time>2026-09-01T20:00:23Z</time>
  <course>186.81</course>
  <speed>25.846610996414984</speed>
  <fix>3d</fix>
</trkpt>
<trkpt lat="-35.2837311" lon="148.9862337">
  <ele>716.92</ele>
  <time>2026-09-01T20:00:23Z</time>
  <course>186.48</course>
  <speed>26.0</speed>
  <fix>3d</fix>
</trkpt>
<trkpt lat="-35.2838215" lon="148.9862209">
  <ele>717.25</ele>
  <time>2026-09-01T20:00:23Z</time>
  <course>187.02</course>
  <speed>25.684629644984174</speed>
  <fix>3d</fix>
</trkpt>
<trkpt lat="-35.2837774" lon="148.9862272">
  <ele>717.1</ele>
  <time>2026-09-01T20:00:23Z</time>
  <course>186.48</course>
  <speed>25.91</speed>
  <fix>3d</fix>
</trkpt>
<trkpt lat="-35.2838442" lon="148.9862175">
  <ele>717.36</ele>
  <time>2026-09-01T20:00:23Z</time>
  <course>187.49</course>
  <speed>25.440788116723116</speed>
  <fix>3d</fix>
</trkpt>
<trkpt lat="-35.2837774" lon="148.9862272">
  <ele>717.1</ele>
  <time>2026-09-01T20:00:23Z</time>
  <course>186.48</course>
  <speed>25.91</speed>
  <fix>3d</fix>
</trkpt>
<trkpt lat="-35.2838667" lon="148.9862139">
  <ele>717.5</ele>
  <time>2026-09-01T20:00:23Z</time>
  <course>188.34</course>
  <speed>25.107966863129324</speed>
  <fix>3d</fix>
</trkpt>
<trkpt lat="-35.2838234" lon="148.9862207">
  <ele>717.29</ele>
  <time>2026-09-01T20:00:23Z</time>
  <course>186.79</course>
  <speed>25.63</speed>
  <fix>3d</fix>
</trkpt>
<trkpt lat="-35.2838888" lon="148.9862098">
  <ele>717.69</ele>
  <time>2026-09-01T20:00:23Z</time>
  <course>189.5</course>
  <speed>24.693132648572558</speed>
  <fix>3d</fix>
</trkpt>
<trkpt lat="-35.2838234" lon="148.9862207">
  <ele>717.29</ele>
  <time>2026-09-01T20:00:23Z</time>
  <course>186.79</course>
  <speed>25.63</speed>
  <fix>3d</fix>
</trkpt>
<trkpt lat="-35.2839107" lon="148.9862052">
  <ele>717.91</ele>
  <time>2026-09-01T20:00:23Z</time>
  <course>190.93</course>
  <speed>24.217541163379902</speed>
  <fix>3d</fix>
</trkpt>
<trkpt lat="-35.2838686" lon="148.9862136">
  <ele>717.55</ele>
  <time>2026-09-01T20:00:23Z</time>
  <course>188.07</course>
  <speed>25.05</speed>
  <fix>3d</fix>
</trkpt>
<trkpt lat="-35.2839318" lon="148.9862002">
  <ele>718.17</ele>
  <time>2026-09-01T20:00:23Z</time>
  <course>192.37</course>
  <speed>23.72275279136045</speed>
  <fix>3d</fix>
</trkpt>
<trkpt lat="-35.2838686" lon="148.9862136">
  <ele>717.55</ele>
  <time>2026-09-01T20:00:23Z</time>
  <course>188.07</course>
  <speed>25.05</speed>
  <fix>3d</fix>
</trkpt>
<trkpt lat="-35.2839523" lon="148.9861947">
  <ele>718.46</ele>
  <time>2026-09-01T20:00:23Z</time>
  <course>193.75</course>
  <speed>23.22874297072487</speed>
  <fix>3d</fix>
</trkpt>
<trkpt lat="-35.2839123" lon="148.986205">
  <ele>717.95</ele>
  <time>2026-09-01T20:00:23Z</time>
  <course>190.29</course>
  <speed>24.21</speed>
  <fix>3d</fix>
</trkpt>
<trkpt lat="-35.2839722" lon="148.9861888">
  <ele>718.78</ele>
  <time>2026-09-01T20:00:23Z</time>
  <course>194.99</course>
  <speed>22.72112893321985</speed>
  <fix>3d</fix>
</trkpt>
<trkpt lat="-35.2839123" lon="148.986205">
  <ele>717.95</ele>
  <time>2026-09-01T20:00:23Z</time>
  <course>190.29</course>
  <speed>24.21</speed>
  <fix>3d</fix>
</trkpt>
<trkpt lat="-35.2839916" lon="148.9861825">
  <ele>719.12</ele>
  <time>2026-09-01T20:00:23Z</time>
  <course>196.1</course>
  <speed>22.21018910320216</speed>
  <fix>3d</fix>
</trkpt>
<trkpt lat="-35.283954" lon="148.9861945">
  <ele>718.49</ele>
  <time>2026-09-01T20:00:23Z</time>
  <course>192.9</course>
  <speed>23.25</speed>
  <fix>3d</fix>
</trkpt>
<trkpt lat="-35.2840105" lon="148.9861758">
  <ele>719.49</ele>
  <time>2026-09-01T20:00:23Z</time>
  <course>197.07</course>
  <speed>21.705328838789796</speed>
  <fix>3d</fix>
</trkpt>
<trkpt lat="-35.283954" lon="148.9861945">
  <ele>718.49</ele>
  <time>2026-09-01T20:00:23Z</time>
  <course>192.9</course>
  <speed>23.25</speed>
  <fix>3d</fix>
</trkpt>
<trkpt lat="-35.2840288" lon="148.9861689">
  <ele>719.88</ele>
  <time>2026-09-01T20:00:23Z</time>
  <course>197.79</course>
  <speed>21.20745623595626</speed>
  <fix>3d</fix>
</trkpt>
<trkpt lat="-35.2839937" lon="148.9861821">
  <ele>719.15</ele>
  <time>2026-09-01T20:00:23Z</time>
  <course>195.47</course>
  <speed>22.26</speed>
  <fix>3d</fix>
</trkpt>
<trkpt lat="-35.2840466" lon="148.9861617">
  <ele>720.28</ele>
  <time>2026-09-01T20:00:23Z</time>
  <course>198.28</course>
  <speed>20.735160959105187</speed>
  <fix>3d</fix>
</trkpt>
<trkpt lat="-35.2839937" lon="148.9861821">
  <ele>719.15</ele>
  <time>2026-09-01T20:00:23Z</time>
  <course>195.47</course>
  <speed>22.26</speed>
  <fix>3d</fix>
</trkpt>
<trkpt lat="-35.2840641" lon="148.9861545">
  <ele>720.67</ele>
  <time>2026-09-01T20:00:23Z</time>
  <course>198.63</course>
  <speed>20.309967996035837</speed>
  <fix>3d</fix>
</trkpt>
<trkpt lat="-35.2840312" lon="148.9861685">
  <ele>719.9</ele>
  <time>2026-09-01T20:00:23Z</time>
  <course>197.66</course>
  <speed>21.28</speed>
  <fix>3d</fix>
</trkpt>
<trkpt lat="-35.2840811" lon="148.9861472">
  <ele>721.06</ele>
  <time>2026-09-01T20:00:23Z</time>
  <course>198.9</course>
  <speed>19.920532121406797</speed>
  <fix>3d</fix>
</trkpt>
<trkpt lat="-35.2840312" lon="148.9861685">
  <ele>719.9</ele>
  <time>2026-09-01T20:00:23Z</time>
  <course>197.66</course>
  <speed>21.28</speed>
  <fix>3d</fix>
</trkpt>
<trkpt lat="-35.2840978" lon="148.9861399">
  <ele>721.41</ele>
  <time>2026-09-01T20:00:23Z</time>
  <course>199.13</course>
  <speed>19.575045338389383</speed>
  <fix>3d</fix>
</trkpt>
<trkpt lat="-35.2840668" lon="148.986154">
  <ele>720.69</ele>
  <time>2026-09-01T20:00:23Z</time>
  <course>199.15</course>
  <speed>20.39</speed>
  <fix>3d</fix>
</trkpt>
<trkpt lat="-35.2841142" lon="148.9861326">
  <ele>721.74</ele>
  <time>2026-09-01T20:00:23Z</time>
  <course>199.34</course>
  <speed>19.251350601970763</speed>
  <fix>3d</fix>
</trkpt>
<trkpt lat="-35.2840668" lon="148.986154">
  <ele>720.69</ele>
  <time>2026-09-01T20:00:23Z</time>
  <course>199.15</course>
  <speed>20.39</speed>
  <fix>3d</fix>
</trkpt>
<trkpt lat="-35.2841303" lon="148.9861254">
  <ele>722.03</ele>
  <time>2026-09-01T20:00:23Z</time>
  <course>199.52</course>
  <speed>18.952598766396125</speed>
  <fix>3d</fix>
</trkpt>
<trkpt lat="-35.2841006" lon="148.9861391">
  <ele>721.42</ele>
  <time>2026-09-01T20:00:23Z</time>
  <course>199.98</course>
  <speed>19.65</speed>
  <fix>3d</fix>
</trkpt>
<trkpt lat="-35.2841462" lon="148.9861182">
  <ele>722.28</ele>
  <time>2026-09-01T20:00:23Z</time>
  <course>199.7</course>
  <speed>18.67862146947681</speed>
  <fix>3d</fix>
</trkpt>
<trkpt lat="-35.2841006" lon="148.9861391">
  <ele>721.42</ele>
  <time>2026-09-01T20:00:23Z</time>
  <course>199.98</course>
  <speed>19.65</speed>
  <fix>3d</fix>
</trkpt>
<trkpt lat="-35.2841618" lon="148.986111">
  <ele>722.49</ele>
  <time>2026-09-01T20:00:23Z</time>
  <course>199.86</course>
  <speed>18.419937567755216</speed>
  <fix>3d</fix>
</trkpt>
<trkpt lat="-35.2841332" lon="148.9861245">
  <ele>722.03</ele>
  <time>2026-09-01T20:00:23Z</time>
  <course>200.42</course>
  <speed>19.02</speed>
  <fix>3d</fix>
</trkpt>
<trkpt lat="-35.2841773" lon="148.986104">
  <ele>722.67</ele>
  <time>2026-09-01T20:00:23Z</time>
  <course>200.01</course>
  <speed>18.167126905485084</speed>
  <fix>3d</fix>
</trkpt>
<trkpt lat="-35.2841332" lon="148.9861245">
  <ele>722.03</ele>
  <time>2026-09-01T20:00:23Z</time>
  <course>200.42</course>
  <speed>19.02</speed>
  <fix>3d</fix>
</trkpt>
<trkpt lat="-35.2841925" lon="148.986097">
  <ele>722.82</ele>
  <time>2026-09-01T20:00:23Z</time>
  <course>200.12</course>
  <speed>17.942407865166814</speed>
  <fix>3d</fix>
</trkpt>
<trkpt lat="-35.2841647" lon="148.98611">
  <ele>722.49</ele>
  <time>2026-09-01T20:00:23Z</time>
  <course>200.63</course>
  <speed>18.47</speed>
  <fix>3d</fix>
</trkpt>
<trkpt lat="-35.2842076" lon="148.9860901">
  <ele>722.93</ele>
  <time>2026-09-01T20:00:23Z</time>
  <course>200.2</course>
  <speed>17.714180760057744</speed>
  <fix>3d</fix>
</trkpt>
<trkpt lat="-35.2841647" lon="148.98611">
  <ele>722.49</ele>
  <time>2026-09-01T20:00:23Z</time>
  <course>200.63</course>
  <speed>18.47</speed>
  <fix>3d</fix>
</trkpt>
<trkpt lat="-35.2842224" lon="148.9860833">
  <ele>723.01</ele>
  <time>2026-09-01T20:00:23Z</time>
  <course>200.24</course>
  <speed>17.510573948331906</speed>
  <fix>3d</fix>
</trkpt>
<trkpt lat="-35.2841954" lon="148.9860959">
  <ele>722.81</ele>
  <time>2026-09-01T20:00:23Z</time>
  <course>200.67</course>
  <speed>17.98</speed>
  <fix>3d</fix>
</trkpt>
<trkpt lat="-35.2842371" lon="148.9860767">
  <ele>723.08</ele>
  <time>2026-09-01T20:00:23Z</time>
  <course>200.25</course>
  <speed>17.31293158306819</speed>
  <fix>3d</fix>
</trkpt>
<trkpt lat="-35.2841954" lon="148.9860959">
  <ele>722.81</ele>
  <time>2026-09-01T20:00:23Z</time>
  <course>200.67</course>
  <speed>17.98</speed>
  <fix>3d</fix>
</trkpt>
<trkpt lat="-35.2842517" lon="148.9860701">
  <ele>723.13</ele>
  <time>2026-09-01T20:00:23Z</time>
  <course>200.2</course>
  <speed>17.13074721079031</speed>
  <fix>3d</fix>
</trkpt>
<trkpt lat="-35.2842252" lon="148.986082">
  <ele>723.01</ele>
  <time>2026-09-01T20:00:23Z</time>
  <course>200.54</course>
  <speed>17.54</speed>
  <fix>3d</fix>
</trkpt>
<trkpt lat="-35.2842661" lon="148.9860636">
  <ele>723.18</ele>
  <time>2026-09-01T20:00:23Z</time>
  <course>200.09</course>
  <speed>16.945385802630756</speed>
  <fix>3d</fix>
</trkpt>
<trkpt lat="-35.2842252" lon="148.986082">
  <ele>723.01</ele>
  <time>2026-09-01T20:00:23Z</time>
  <course>200.54</course>
  <speed>17.54</speed>
  <fix>3d</fix>
</trkpt>
<trkpt lat="-35.2842806" lon="148.9860573">
  <ele>723.24</ele>
  <time>2026-09-01T20:00:23Z</time>
  <course>199.9</course>
  <speed>16.772480436715377</speed>
  <fix>3d</fix>
</trkpt>
<trkpt lat="-35.2842544" lon="148.9860688">
  <ele>723.14</ele>
  <time>2026-09-01T20:00:23Z</time>
  <course>200.21</course>
  <speed>17.15</speed>
  <fix>3d</fix>
</trkpt>
<trkpt lat="-35.2842948" lon="148.9860512">
  <ele>723.3</ele>
  <time>2026-09-01T20:00:23Z</time>
  <course>199.65</course>
  <speed>16.606315063854474</speed>
  <fix>3d</fix>
</trkpt>
<trkpt lat="-35.2842544" lon="148.9860688">
  <ele>723.14</ele>
  <time>2026-09-01T20:00:23Z</time>
  <course>200.21</course>
  <speed>17.15</speed>
  <fix>3d</fix>
</trkpt>
<trkpt lat="-35.2843089" lon="148.9860452">
  <ele>723.36</ele>
  <time>2026-09-01T20:00:23Z</time>
  <course>199.33</course>
  <speed>16.44716692929211</speed>
  <fix>3d</fix>
</trkpt>
<trkpt lat="-35.284283" lon="148.986056">
  <ele>723.25</ele>
  <time>2026-09-01T20:00:23Z</time>
  <course>199.63</course>
  <speed>16.78</speed>
  <fix>3d</fix>
</trkpt>
<trkpt lat="-35.2843228" lon="148.9860395">
  <ele>723.44</ele>
  <time>2026-09-01T20:00:23Z</time>
  <course>198.95</course>
  <speed>16.28585275630355</speed>
  <fix>3d</fix>
</trkpt>
<trkpt lat="-35.284283" lon="148.986056">
  <ele>723.25</ele>
  <time>2026-09-01T20:00:23Z</time>
  <course>199.63</course>
  <speed>16.78</speed>
  <fix>3d</fix>
</trkpt>
<trkpt lat="-35.2843367" lon="148.9860339">
  <ele>723.53</ele>
  <time>2026-09-01T20:00:23Z</time>
  <course>198.53</course>
  <speed>16.122642463318474</speed>
  <fix>3d</fix>
</trkpt>
<trkpt lat="-35.2843112" lon="148.986044">
  <ele>723.38</ele>
  <time>2026-09-01T20:00:23Z</time>
  <course>198.82</course>
  <speed>16.44</speed>
  <fix>3d</fix>
</trkpt>
<trkpt lat="-35.2843506" lon="148.9860285">
  <ele>723.64</ele>
  <time>2026-09-01T20:00:23Z</time>
  <course>198.07</course>
  <speed>15.957835066198673</speed>
  <fix>3d</fix>
</trkpt>
<trkpt lat="-35.2843112" lon="148.986044">
  <ele>723.38</ele>
  <time>2026-09-01T20:00:23Z</time>
  <course>198.82</course>
  <speed>16.44</speed>
  <fix>3d</fix>
</trkpt>
<trkpt lat="-35.2843643" lon="148.9860234">
  <ele>723.75</ele>
  <time>2026-09-01T20:00:23Z</time>
  <course>197.58</course>
  <speed>15.804192481743572</speed>
  <fix>3d</fix>
</trkpt>
<trkpt lat="-35.284339" lon="148.9860327">
  <ele>723.55</ele>
  <time>2026-09-01T20:00:23Z</time>
  <course>197.81</course>
  <speed>16.11</speed>
  <fix>3d</fix>
</trkpt>
<trkpt lat="-35.2843779" lon="148.9860185">
  <ele>723.87</ele>
  <time>2026-09-01T20:00:23Z</time>
  <course>197.07</course>
  <speed>15.652236261953114</speed>
  <fix>3d</fix>
</trkpt>
<trkpt lat="-35.284339" lon="148.9860327">
  <ele>723.55</ele>
  <time>2026-09-01T20:00:23Z</time>
  <course>197.81</course>
  <speed>16.11</speed>
  <fix>3d</fix>
</trkpt>
<trkpt lat="-35.2843914" lon="148.9860138">
  <ele>723.99</ele>
  <time>2026-09-01T20:00:23Z</time>
  <course>196.53</course>
  <speed>15.504663814478533</speed>
  <fix>3d</fix>
</trkpt>
<trkpt lat="-35.2843664" lon="148.9860223">
  <ele>723.77</ele>
  <time>2026-09-01T20:00:23Z</time>
  <course>196.68</course>
  <speed>15.79</speed>
  <fix>3d</fix>
</trkpt>
<trkpt lat="-35.2844048" lon="148.9860093">
  <ele>724.12</ele>
  <time>2026-09-01T20:00:23Z</time>
  <course>195.97</course>
  <speed>15.356125813498663</speed>
  <fix>3d</fix>
</trkpt>
<trkpt lat="-35.2843664" lon="148.9860223">
  <ele>723.77</ele>
  <time>2026-09-01T20:00:23Z</time>
  <course>196.68</course>
  <speed>15.79</speed>
  <fix>3d</fix>
</trkpt>
<trkpt lat="-35.2844182" lon="148.9860051">
  <ele>724.25</ele>
  <time>2026-09-01T20:00:23Z</time>
  <course>195.4</course>
  <speed>15.20217089760538</speed>
  <fix>3d</fix>
</trkpt>
<trkpt lat="-35.2843934" lon="148.9860127">
  <ele>724.02</ele>
  <time>2026-09-01T20:00:23Z</time>
  <course>195.47</course>
  <speed>15.48</speed>
  <fix>3d</fix>
</trkpt>
<trkpt lat="-35.2844314" lon="148.986001">
  <ele>724.38</ele>
  <time>2026-09-01T20:00:23Z</time>
  <course>194.81</course>
  <speed>15.059565066760726</speed>
  <fix>3d</fix>
</trkpt>
<trkpt lat="-35.2843934" lon="148.9860127">
  <ele>724.02</ele>
  <time>2026-09-01T20:00:23Z</time>
  <course>195.47</course>
  <speed>15.48</speed>
  <fix>3d</fix>
</trkpt>
<trkpt lat="-35.2844445" lon="148.9859972">
  <ele>724.5</ele>
  <time>2026-09-01T20:00:23Z</time>
  <course>194.21</course>
  <speed>14.918686269239661</speed>
  <fix>3d</fix>
</trkpt>
<trkpt lat="-35.2844201" lon="148.9860041">
  <ele>724.28</ele>
  <time>2026-09-01T20:00:23Z</time>
  <course>194.25</course>
  <speed>15.18</speed>
  <fix>3d</fix>
</trkpt>
<trkpt lat="-35.2844576" lon="148.9859936">
  <ele>724.62</ele>
  <time>2026-09-01T20:00:23Z</time>
  <course>193.6</course>
  <speed>14.77194976974942</speed>
  <fix>3d</fix>
</trkpt>
<trkpt lat="-35.2844201" lon="148.9860041">
  <ele>724.28</ele>
  <time>2026-09-01T20:00:23Z</time>
  <course>194.25</course>
  <speed>15.18</speed>
  <fix>3d</fix>
</trkpt>
<trkpt lat="-35.2844705" lon="148.9859901">
  <ele>724.73</ele>
  <time>2026-09-01T20:00:23Z</time>
  <course>192.98</course>
  <speed>14.636574052694161</speed>
  <fix>3d</fix>
</trkpt>
<trkpt lat="-35.2844463" lon="148.9859963">
  <ele>724.53</ele>
  <time>2026-09-01T20:00:23Z</time>
  <course>193.01</course>
  <speed>14.89</speed>
  <fix>3d</fix>
</trkpt>
<trkpt lat="-35.2844834" lon="148.9859869">
  <ele>724.83</ele>
  <time>2026-09-01T20:00:23Z</time>
  <course>192.34</course>
  <speed>14.491117969294157</speed>
  <fix>3d</fix>
</trkpt>
<trkpt lat="-35.2844463" lon="148.9859963">
  <ele>724.53</ele>
  <time>2026-09-01T20:00:23Z</time>
  <course>193.01</course>
  <speed>14.89</speed>
  <fix>3d</fix>
</trkpt>
<trkpt lat="-35.2844961" lon="148.9859839">
  <ele>724.93</ele>
  <time>2026-09-01T20:00:23Z</time>
  <course>191.69</course>
  <speed>14.361016677101938</speed>
  <fix>3d</fix>
</trkpt>
<trkpt lat="-35.2844721" lon="148.9859893">
  <ele>724.76</ele>
  <time>2026-09-01T20:00:23Z</time>
  <course>191.77</course>
  <speed>14.6</speed>
  <fix>3d</fix>
</trkpt>
<trkpt lat="-35.2845087" lon="148.9859811">
  <ele>725.01</ele>
  <time>2026-09-01T20:00:23Z</time>
  <course>191.03</course>
  <speed>14.220889564299414</speed>
  <fix>3d</fix>
</trkpt>
<trkpt lat="-35.2844721" lon="148.9859893">
  <ele>724.76</ele>
  <time>2026-09-01T20:00:23Z</time>
  <course>191.77</course>
  <speed>14.6</speed>
  <fix>3d</fix>
</trkpt>
<trkpt lat="-35.2845212" lon="148.9859785">
  <ele>725.09</ele>
  <time>2026-09-01T20:00:23Z</time>
  <course>190.35</course>
  <speed>14.092398660270721</speed>
  <fix>3d</fix>
</trkpt>
<trkpt lat="-35.2844976" lon="148.9859832">
  <ele>724.95</ele>
  <time>2026-09-01T20:00:23Z</time>
  <course>190.51</course>
  <speed>14.32</speed>
  <fix>3d</fix>
</trkpt>
<trkpt lat="-35.2845337" lon="148.985976">
  <ele>725.15</ele>
  <time>2026-09-01T20:00:23Z</time>
  <course>189.66</course>
  <speed>13.967254562010389</speed>
  <fix>3d</fix>
</trkpt>
<trkpt lat="-35.2844976" lon="148.9859832">
  <ele>724.95</ele>
  <time>2026-09-01T20:00:23Z</time>
  <course>190.51</course>
  <speed>14.32</speed>
  <fix>3d</fix>
</trkpt>
<trkpt lat="-35.284546" lon="148.9859738">
  <ele>725.21</ele>
  <time>2026-09-01T20:00:23Z</time>
  <course>188.96</course>
  <speed>13.832501581420477</speed>
  <fix>3d</fix>
</trkpt>
<trkpt lat="-35.2845227" lon="148.9859778">
  <ele>725.12</ele>
  <time>2026-09-01T20:00:23Z</time>
  <course>189.22</course>
  <speed>14.05</speed>
  <fix>3d</fix>
</trkpt>
<trkpt lat="-35.2845584" lon="148.9859717">
  <ele>725.26</ele>
  <time>2026-09-01T20:00:23Z</time>
  <course>188.25</course>
  <speed>13.710857011872015</speed>
  <fix>3d</fix>
</trkpt>
<trkpt lat="-35.2845227" lon="148.9859778">
  <ele>725.12</ele>
  <time>2026-09-01T20:00:23Z</time>
  <course>189.22</course>
  <speed>14.05</speed>
  <fix>3d</fix>
</trkpt>
<trkpt lat="-35.2845706" lon="148.9859699">
  <ele>725.3</ele>
  <time>2026-09-01T20:00:23Z</time>
  <course>187.54</course>
  <speed>13.579900588737752</speed>
  <fix>3d</fix>
</trkpt>
<trkpt lat="-35.2845475" lon="148.9859733">
  <ele>725.24</ele>
  <time>2026-09-01T20:00:23Z</time>
  <course>187.9</course>
  <speed>13.8</speed>
  <fix>3d</fix>
</trkpt>
<trkpt lat="-35.2845827" lon="148.9859682">
  <ele>725.33</ele>
  <time>2026-09-01T20:00:23Z</time>
  <course>186.82</course>
  <speed>13.461953795790564</speed>
  <fix>3d</fix>
</trkpt>
<trkpt lat="-35.2845475" lon="148.9859733">
  <ele>725.24</ele>
  <time>2026-09-01T20:00:23Z</time>
  <course>187.9</course>
  <speed>13.8</speed>
  <fix>3d</fix>
</trkpt>
<trkpt lat="-35.2845946" lon="148.9859668">
  <ele>725.36</ele>
  <time>2026-09-01T20:00:23Z</time>
  <course>186.1</course>
  <speed>13.33592141548532</speed>
  <fix>3d</fix>
</trkpt>
<trkpt lat="-35.2845718" lon="148.9859695">
  <ele>725.33</ele>
  <time>2026-09-01T20:00:23Z</time>
  <course>186.56</course>
  <speed>13.55</speed>
  <fix>3d</fix>
</trkpt>
<trkpt lat="-35.2846065" lon="148.9859655">
  <ele>725.38</ele>
  <time>2026-09-01T20:00:23Z</time>
  <course>185.37</course>
  <speed>13.222556485037225</speed>
  <fix>3d</fix>
</trkpt>
<trkpt lat="-35.2845718" lon="148.9859695">
  <ele>725.33</ele>
  <time>2026-09-01T20:00:23Z</time>
  <course>186.56</course>
  <speed>13.55</speed>
  <fix>3d</fix>
</trkpt>
<trkpt lat="-35.2846183" lon="148.9859644">
  <ele>725.39</ele>
  <time>2026-09-01T20:00:23Z</time>
  <course>184.65</course>
  <speed>13.100267172848042</speed>
  <fix>3d</fix>
</trkpt>
<trkpt lat="-35.2845959" lon="148.9859664">
  <ele>725.39</ele>
  <time>2026-09-01T20:00:23Z</time>
  <course>185.19</course>
  <speed>13.3</speed>
  <fix>3d</fix>
</trkpt>
<trkpt lat="-35.28463" lon="148.9859635">
  <ele>725.4</ele>
  <time>2026-09-01T20:00:23Z</time>
  <course>183.93</course>
  <speed>12.980543131934041</speed>
  <fix>3d</fix>
</trkpt>
<trkpt lat="-35.2845959" lon="148.9859664">
  <ele>725.39</ele>
  <time>2026-09-01T20:00:23Z</time>
  <course>185.19</course>
  <speed>13.3</speed>
  <fix>3d</fix>
</trkpt>
<trkpt lat="-35.2846416" lon="148.9859628">
  <ele>725.41</ele>
  <time>2026-09-01T20:00:23Z</time>
  <course>183.21</course>
  <speed>12.863082834219798</speed>
  <fix>3d</fix>
</trkpt>
<trkpt lat="-35.2846196" lon="148.9859641">
  <ele>725.43</ele>
  <time>2026-09-01T20:00:23Z</time>
  <course>183.82</course>
  <speed>13.06</speed>
  <fix>3d</fix>
</trkpt>
<trkpt lat="-35.2846531" lon="148.9859622">
  <ele>725.42</ele>
  <time>2026-09-01T20:00:23Z</time>
  <course>182.51</course>
  <speed>12.736926630863506</speed>
  <fix>3d</fix>
</trkpt>
<trkpt lat="-35.2846196" lon="148.9859641">
  <ele>725.43</ele>
  <time>2026-09-01T20:00:23Z</time>
  <course>183.82</course>
  <speed>13.06</speed>
  <fix>3d</fix>
</trkpt>
<trkpt lat="-35.2846644" lon="148.9859618">
  <ele>725.42</ele>
  <time>2026-09-01T20:00:23Z</time>
  <course>181.81</course>
  <speed>12.623105798495075</speed>
  <fix>3d</fix>
</trkpt>
<trkpt lat="-35.2846428" lon="148.9859626">
  <ele>725.45</ele>
  <time>2026-09-01T20:00:23Z</time>
  <course>182.45</course>
  <speed>12.83</speed>
  <fix>3d</fix>
</trkpt>
<trkpt lat="-35.2846757" lon="148.9859616">
  <ele>725.43</ele>
  <time>2026-09-01T20:00:23Z</time>
  <course>181.12</course>
  <speed>12.50067598172195</speed>
  <fix>3d</fix>
</trkpt>
<trkpt lat="-35.2846428" lon="148.9859626">
  <ele>725.45</ele>
  <time>2026-09-01T20:00:23Z</time>
  <course>182.45</course>
  <speed>12.83</speed>
  <fix>3d</fix>
</trkpt>
<trkpt lat="-35.2846869" lon="148.9859615">
  <ele>725.43</ele>
  <time>2026-09-01T20:00:23Z</time>
  <course>180.45</course>
  <speed>12.37</speed>
  <fix>3d</fix>
</trkpt>
<trkpt lat="-35.2846655" lon="148.9859617">
  <ele>725.46</ele>
  <time>2026-09-01T20:00:23Z</time>
  <course>181.11</course>
  <speed>12.59</speed>
  <fix>3d</fix>
</trkpt>
<trkpt lat="-35.284698" lon="148.9859616">
  <ele>725.43</ele>
  <time>2026-09-01T20:00:23Z</time>
  <course>179.79</course>
  <speed>12.250689776498302</speed>
  <fix>3d</fix>
</trkpt>
<trkpt lat="-35.2846655" lon="148.9859617">
  <ele>725.46</ele>
  <time>2026-09-01T20:00:23Z</time>
  <course>181.11</course>
  <speed>12.59</speed>
  <fix>3d</fix>
</trkpt>
<trkpt lat="-35.284709" lon="148.9859618">
  <ele>725.43</ele>
  <time>2026-09-01T20:00:23Z</time>
  <course>179.15</course>
  <speed>12.122788458106493</speed>
  <fix>3d</fix>
</trkpt>
<trkpt lat="-35.284688" lon="148.9859615">
  <ele>725.47</ele>
  <time>2026-09-01T20:00:23Z</time>
  <course>179.81</course>
  <speed>12.35</speed>
  <fix>3d</fix>
</trkpt>
<trkpt lat="-35.2847198" lon="148.9859621">
  <ele>725.43</ele>
  <time>2026-09-01T20:00:23Z</time>
  <course>178.54</course>
  <speed>11.996020173374168</speed>
  <fix>3d</fix>
</trkpt>
<trkpt lat="-35.284688" lon="148.9859615">
  <ele>725.47</ele>
  <time>2026-09-01T20:00:23Z</time>
  <course>179.81</course>
  <speed>12.35</speed>
  <fix>3d</fix>
</trkpt>
<trkpt lat="-35.2847305" lon="148.9859626">
  <ele>725.43</ele>
  <time>2026-09-01T20:00:23Z</time>
  <course>177.94</course>
  <speed>11.860543832388124</speed>
  <fix>3d</fix>
</trkpt>
<trkpt lat="-35.2847099" lon="148.9859617">
  <ele>725.48</ele>
  <time>2026-09-01T20:00:23Z</time>
  <course>178.56</course>
  <speed>12.1</speed>
  <fix>3d</fix>
</trkpt>
<trkpt lat="-35.284741" lon="148.9859632">
  <ele>725.44</ele>
  <time>2026-09-01T20:00:23Z</time>
  <course>177.36</course>
  <speed>11.735348311831226</speed>
  <fix>3d</fix>
</trkpt>
<trkpt lat="-35.2847099" lon="148.9859617">
  <ele>725.48</ele>
  <time>2026-09-01T20:00:23Z</time>
  <course>178.56</course>
  <speed>12.1</speed>
  <fix>3d</fix>
</trkpt>
<trkpt lat="-35.2847515" lon="148.9859639">
  <ele>725.44</ele>
  <time>2026-09-01T20:00:23Z</time>
  <course>176.8</course>
  <speed>11.601745558320092</speed>
  <fix>3d</fix>
</trkpt>
<trkpt lat="-35.2847314" lon="148.9859626">
  <ele>725.48</ele>
  <time>2026-09-01T20:00:23Z</time>
  <course>177.36</course>
  <speed>11.85</speed>
  <fix>3d</fix>
</trkpt>
<trkpt lat="-35.2847618" lon="148.9859648">
  <ele>725.44</ele>
  <time>2026-09-01T20:00:23Z</time>
  <course>176.26</course>
  <speed>11.468639849607275</speed>
  <fix>3d</fix>
</trkpt>
<trkpt lat="-35.2847314" lon="148.9859626">
  <ele>725.48</ele>
  <time>2026-09-01T20:00:23Z</time>
  <course>177.36</course>
  <speed>11.85</speed>
  <fix>3d</fix>
</trkpt>
<trkpt lat="-35.284772" lon="148.9859657">
  <ele>725.44</ele>
  <time>2026-09-01T20:00:23Z</time>
  <course>175.73</course>
  <speed>11.335784048754633</speed>
  <fix>3d</fix>
</trkpt>
<trkpt lat="-35.2847524" lon="148.9859641">
  <ele>725.48</ele>
  <time>2026-09-01T20:00:23Z</time>
  <course>176.23</course>
  <speed>11.59</speed>
  <fix>3d</fix>
</trkpt>
<trkpt lat="-35.2847821" lon="148.9859668">
  <ele>725.44</ele>
  <time>2026-09-01T20:00:23Z</time>
  <course>175.22</course>
  <speed>11.192984409888187</speed>
  <fix>3d</fix>
</trkpt>
<trkpt lat="-35.2847524" lon="148.9859641">
  <ele>725.48</ele>
  <time>2026-09-01T20:00:23Z</time>
  <course>176.23</course>
  <speed>11.59</speed>
  <fix>3d</fix>
</trkpt>
<trkpt lat="-35.2847921" lon="148.9859679">
  <ele>725.44</ele>
  <time>2026-09-01T20:00:23Z</time>
  <course>174.72</course>
  <speed>11.051918385511179</speed>
  <fix>3d</fix>
</trkpt>
<trkpt lat="-35.284773" lon="148.985966">
  <ele>725.49</ele>
  <time>2026-09-01T20:00:23Z</time>
  <course>175.17</course>
  <speed>11.32</speed>
  <fix>3d</fix>
</trkpt>
<trkpt lat="-35.2848019" lon="148.9859692">
  <ele>725.45</ele>
  <time>2026-09-01T20:00:23Z</time>
  <course>174.25</course>
  <speed>10.919670324693874</speed>
  <fix>3d</fix>
</trkpt>
<trkpt lat="-35.284773" lon="148.985966">
  <ele>725.49</ele>
  <time>2026-09-01T20:00:23Z</time>
  <course>175.17</course>
  <speed>11.32</speed>
  <fix>3d</fix>
</trkpt>
<trkpt lat="-35.2848115" lon="148.9859705">
  <ele>725.45</ele>
  <time>2026-09-01T20:00:23Z</time>
  <course>173.8</course>
  <speed>10.778135274712414</speed>
  <fix>3d</fix>
</trkpt>
<trkpt lat="-35.2847929" lon="148.9859683">
  <ele>725.49</ele>
  <time>2026-09-01T20:00:23Z</time>
  <course>174.17</course>
  <speed>11.05</speed>
  <fix>3d</fix>
</trkpt>
<trkpt lat="-35.284821" lon="148.9859719">
  <ele>725.46</ele>
  <time>2026-09-01T20:00:23Z</time>
  <course>173.36</course>
  <speed>10.627365619004552</speed>
  <fix>3d</fix>
</trkpt>
<trkpt lat="-35.2847929" lon="148.9859683">
  <ele>725.49</ele>
  <time>2026-09-01T20:00:23Z</time>
  <course>174.17</course>
  <speed>11.05</speed>
  <fix>3d</fix>
</trkpt>
<trkpt lat="-35.2848304" lon="148.9859733">
  <ele>725.47</ele>
  <time>2026-09-01T20:00:23Z</time>
  <course>172.93</course>
  <speed>10.476053646292577</speed>
  <fix>3d</fix>
</trkpt>
<trkpt lat="-35.2848125" lon="148.985971">
  <ele>725.5</ele>
  <time>2026-09-01T20:00:23Z</time>
  <course>173.23</course>
  <speed>10.78</speed>
  <fix>3d</fix>
</trkpt>
<trkpt lat="-35.2848396" lon="148.9859749">
  <ele>725.48</ele>
  <time>2026-09-01T20:00:23Z</time>
  <course>172.51</course>
  <speed>10.324001162340112</speed>
  <fix>3d</fix>
</trkpt>
<trkpt lat="-35.2848125" lon="148.985971">
  <ele>725.5</ele>
  <time>2026-09-01T20:00:23Z</time>
  <course>173.23</course>
  <speed>10.78</speed>
  <fix>3d</fix>
</trkpt>
<trkpt lat="-35.2848487" lon="148.9859765">
  <ele>725.49</ele>
  <time>2026-09-01T20:00:23Z</time>
  <course>172.1</course>
  <speed>10.162539052815493</speed>
  <fix>3d</fix>
</trkpt>
<trkpt lat="-35.2848315" lon="148.9859739">
  <ele>725.52</ele>
  <time>2026-09-01T20:00:23Z</time>
  <course>172.35</course>
  <speed>10.49</speed>
  <fix>3d</fix>
</trkpt>
<trkpt lat="-35.2848576" lon="148.9859781">
  <ele>725.51</ele>
  <time>2026-09-01T20:00:23Z</time>
  <course>171.71</course>
  <speed>9.99023523246575</speed>
  <fix>3d</fix>
</trkpt>
<trkpt lat="-35.2848315" lon="148.9859739">
  <ele>725.52</ele>
  <time>2026-09-01T20:00:23Z</time>
  <course>172.35</course>
  <speed>10.49</speed>
  <fix>3d</fix>
</trkpt>
<trkpt lat="-35.2848664" lon="148.9859798">
  <ele>725.53</ele>
  <time>2026-09-01T20:00:24Z</time>
  <course>171.32</course>
  <speed>9.818370536906825</speed>
  <fix>3d</fix>
</trkpt>
<trkpt lat="-35.2848499" lon="148.9859771">
  <ele>725.55</ele>
  <time>2026-09-01T20:00:24Z</time>
  <course>171.52</course>
  <speed>10.18</speed>
  <fix>3d</fix>
</trkpt>
<trkpt lat="-35.284875" lon="148.9859815">
  <ele>725.56</ele>
  <time>2026-09-01T20:00:24Z</time>
  <course>170.96</course>
  <speed>9.645356395696325</speed>
  <fix>3d</fix>
</trkpt>
<trkpt lat="-35.2848499" lon="148.9859771">
  <ele>725.55</ele>
  <time>2026-09-01T20:00:24Z</time>
  <course>171.52</course>
  <speed>10.18</speed>
  <fix>3d</fix>
</trkpt>
<trkpt lat="-35.2848834" lon="148.9859833">
  <ele>725.59</ele>
  <time>2026-09-01T20:00:24Z</time>
  <course>170.61</course>
  <speed>9.462837840732556</speed>
  <fix>3d</fix>
</trkpt>
<trkpt lat="-35.2848677" lon="148.9859805">
  <ele>725.59</ele>
  <time>2026-09-01T20:00:24Z</time>
  <course>170.75</course>
  <speed>9.84</speed>
  <fix>3d</fix>
</trkpt>
<trkpt lat="-35.2848917" lon="148.9859851">
  <ele>725.62</ele>
  <time>2026-09-01T20:00:24Z</time>
  <course>170.27</course>
  <speed>9.278987013677732</speed>
  <fix>3d</fix>
</trkpt>
<trkpt lat="-35.2848677" lon="148.9859805">
  <ele>725.59</ele>
  <time>2026-09-01T20:00:24Z</time>
  <course>170.75</course>
  <speed>9.84</speed>
  <fix>3d</fix>
</trkpt>
<trkpt lat="-35.2848999" lon="148.9859869">
  <ele>725.66</ele>
  <time>2026-09-01T20:00:24Z</time>
  <course>169.95</course>
  <speed>9.095432919877975</speed>
  <fix>3d</fix>
</trkpt>
<trkpt lat="-35.2848848" lon="148.9859841">
  <ele>725.65</ele>
  <time>2026-09-01T20:00:24Z</time>
  <course>170.04</course>
  <speed>9.49</speed>
  <fix>3d</fix>
</trkpt>
<trkpt lat="-35.2849078" lon="148.9859888">
  <ele>725.7</ele>
  <time>2026-09-01T20:00:24Z</time>
  <course>169.65</course>
  <speed>8.900528074221214</speed>
  <fix>3d</fix>
</trkpt>
<trkpt lat="-35.2848848" lon="148.9859841">
  <ele>725.65</ele>
  <time>2026-09-01T20:00:24Z</time>
  <course>170.04</course>
  <speed>9.49</speed>
  <fix>3d</fix>
</trkpt>
<trkpt lat="-35.2849156" lon="148.9859906">
  <ele>725.73</ele>
  <time>2026-09-01T20:00:24Z</time>
  <course>169.35</course>
  <speed>8.705865838617088</speed>
  <fix>3d</fix>
</trkpt>
<trkpt lat="-35.2849012" lon="148.9859877">
  <ele>725.72</ele>
  <time>2026-09-01T20:00:24Z</time>
  <course>169.39</course>
  <speed>9.13</speed>
  <fix>3d</fix>
</trkpt>
<trkpt lat="-35.2849232" lon="148.9859925">
  <ele>725.77</ele>
  <time>2026-09-01T20:00:24Z</time>
  <course>169.07</course>
  <speed>8.511462858991985</speed>
  <fix>3d</fix>
</trkpt>
<trkpt lat="-35.2849012" lon="148.9859877">
  <ele>725.72</ele>
  <time>2026-09-01T20:00:24Z</time>
  <course>169.39</course>
  <speed>9.13</speed>
  <fix>3d</fix>
</trkpt>
<trkpt lat="-35.2849306" lon="148.9859944">
  <ele>725.81</ele>
  <time>2026-09-01T20:00:24Z</time>
  <course>168.79</course>
  <speed>8.31534725672957</speed>
  <fix>3d</fix>
</trkpt>
<trkpt lat="-35.284917" lon="148.9859914">
  <ele>725.8</ele>
  <time>2026-09-01T20:00:24Z</time>
  <course>168.78</course>
  <speed>8.74</speed>
  <fix>3d</fix>
</trkpt>
<trkpt lat="-35.2849379" lon="148.9859962">
  <ele>725.84</ele>
  <time>2026-09-01T20:00:24Z</time>
  <course>168.53</course>
  <speed>8.11739490230702</speed>
  <fix>3d</fix>
</trkpt>
<trkpt lat="-35.284917" lon="148.9859914">
  <ele>725.8</ele>
  <time>2026-09-01T20:00:24Z</time>
  <course>168.78</course>
  <speed>8.74</speed>
  <fix>3d</fix>
</trkpt>
<trkpt lat="-35.284945" lon="148.9859981">
  <ele>725.87</ele>
  <time>2026-09-01T20:00:24Z</time>
  <course>168.27</course>
  <speed>7.911839229913611</speed>
  <fix>3d</fix>
</trkpt>
<trkpt lat="-35.2849321" lon="148.9859952">
  <ele>725.87</ele>
  <time>2026-09-01T20:00:24Z</time>
  <course>168.23</course>
  <speed>8.35</speed>
  <fix>3d</fix>
</trkpt>
<trkpt lat="-35.2849519" lon="148.9859999">
  <ele>725.91</ele>
  <time>2026-09-01T20:00:24Z</time>
  <course>168.02</course>
  <speed>7.714175263759568</speed>
  <fix>3d</fix>
</trkpt>
<trkpt lat="-35.2849321" lon="148.9859952">
  <ele>725.87</ele>
  <time>2026-09-01T20:00:24Z</time>
  <course>168.23</course>
  <speed>8.35</speed>
  <fix>3d</fix>
</trkpt>
<trkpt lat="-35.2849586" lon="148.9860018">
  <ele>725.94</ele>
  <time>2026-09-01T20:00:24Z</time>
  <course>167.78</course>
  <speed>7.504731840645607</speed>
  <fix>3d</fix>
</trkpt>
<trkpt lat="-35.2849463" lon="148.9859989">
  <ele>725.94</ele>
  <time>2026-09-01T20:00:24Z</time>
  <course>167.71</course>
  <speed>7.95</speed>
  <fix>3d</fix>
</trkpt>
<trkpt lat="-35.2849651" lon="148.9860036">
  <ele>725.97</ele>
  <time>2026-09-01T20:00:24Z</time>
  <course>167.55</course>
  <speed>7.297561236467975</speed>
  <fix>3d</fix>
</trkpt>
<trkpt lat="-35.2849463" lon="148.9859989">
  <ele>725.94</ele>
  <time>2026-09-01T20:00:24Z</time>
  <course>167.71</course>
  <speed>7.95</speed>
  <fix>3d</fix>
</trkpt>
<trkpt lat="-35.2849715" lon="148.9860054">
  <ele>725.99</ele>
  <time>2026-09-01T20:00:24Z</time>
  <course>167.33</course>
  <speed>7.095864993078716</speed>
  <fix>3d</fix>
</trkpt>
<trkpt lat="-35.28496" lon="148.9860026">
  <ele>726.01</ele>
  <time>2026-09-01T20:00:24Z</time>
  <course>167.24</course>
  <speed>7.55</speed>
  <fix>3d</fix>
</trkpt>
<trkpt lat="-35.2849776" lon="148.9860072">
  <ele>726.0</ele>
  <time>2026-09-01T20:00:24Z</time>
  <course>167.14</course>
  <speed>6.896441111181912</speed>
  <fix>3d</fix>
</trkpt>
<trkpt lat="-35.28496" lon="148.9860026">
  <ele>726.01</ele>
  <time>2026-09-01T20:00:24Z</time>
  <course>167.24</course>
  <speed>7.55</speed>
  <fix>3d</fix>
</trkpt>
<trkpt lat="-35.2849836" lon="148.9860089">
  <ele>725.98</ele>
  <time>2026-09-01T20:00:24Z</time>
  <course>166.95</course>
  <speed>6.673087741068598</speed>
  <fix>3d</fix>
</trkpt>
<trkpt lat="-35.2849729" lon="148.9860062">
  <ele>726.06</ele>
  <time>2026-09-01T20:00:24Z</time>
  <course>166.83</course>
  <speed>7.14</speed>
  <fix>3d</fix>
</trkpt>
<trkpt lat="-35.2849893" lon="148.9860106">
  <ele>725.89</ele>
  <time>2026-09-01T20:00:24Z</time>
  <course>166.82</course>
  <speed>6.284846855731649</speed>
  <fix>3d</fix>
</trkpt>
<trkpt lat="-35.2849729" lon="148.9860062">
  <ele>726.06</ele>
  <time>2026-09-01T20:00:24Z</time>
  <course>166.83</course>
  <speed>7.14</speed>
  <fix>3d</fix>
</trkpt>
<trkpt lat="-35.2849946" lon="148.9860122">
  <ele>725.75</ele>
  <time>2026-09-01T20:00:24Z</time>
  <course>166.82</course>
  <speed>5.7752315970876875</speed>
  <fix>3d</fix>
</trkpt>
<trkpt lat="-35.284985" lon="148.9860097">
  <ele>726.02</ele>
  <time>2026-09-01T20:00:24Z</time>
  <course>166.56</course>
  <speed>6.63</speed>
  <fix>3d</fix>
</trkpt>
<trkpt lat="-35.2849995" lon="148.9860136">
  <ele>725.59</ele>
  <time>2026-09-01T20:00:24Z</time>
  <course>166.91</course>
  <speed>5.183213289070786</speed>
  <fix>3d</fix>
</trkpt>
<trkpt lat="-35.284985" lon="148.9860097">
  <ele>726.02</ele>
  <time>2026-09-01T20:00:24Z</time>
  <course>166.56</course>
  <speed>6.63</speed>
  <fix>3d</fix>
</trkpt>
<trkpt lat="-35.2850038" lon="148.9860149">
  <ele>725.42</ele>
  <time>2026-09-01T20:00:24Z</time>
  <course>167.06</course>
  <speed>4.562126697056977</speed>
  <fix>3d</fix>
</trkpt>
<trkpt lat="-35.2849959" lon="148.9860129">
  <ele>725.81</ele>
  <time>2026-09-01T20:00:24Z</time>
  <course>166.29</course>
  <speed>5.78</speed>
  <fix>3d</fix>
</trkpt>
<trkpt lat="-35.2850075" lon="148.9860161">
  <ele>725.25</ele>
  <time>2026-09-01T20:00:24Z</time>
  <course>167.23</course>
  <speed>3.9412307722334656</speed>
  <fix>3d</fix>
</trkpt>
<trkpt lat="-35.2849959" lon="148.9860129">
  <ele>725.81</ele>
  <time>2026-09-01T20:00:24Z</time>
  <course>166.29</course>
  <speed>5.78</speed>
  <fix>3d</fix>
</trkpt>
<trkpt lat="-35.2850108" lon="148.9860172">
  <ele>725.09</ele>
  <time>2026-09-01T20:00:24Z</time>
  <course>167.4</course>
  <speed>3.342528982671654</speed>
  <fix>3d</fix>
</trkpt>
<trkpt lat="-35.285005" lon="148.9860157">
  <ele>725.49</ele>
  <time>2026-09-01T20:00:24Z</time>
  <course>165.74</course>
  <speed>4.61</speed>
  <fix>3d</fix>
</trkpt>
<trkpt lat="-35.2850135" lon="148.9860181">
  <ele>724.94</ele>
  <time>2026-09-01T20:00:24Z</time>
  <course>167.55</course>
  <speed>2.7637112729082247</speed>
  <fix>3d</fix>
</trkpt>
<trkpt lat="-35.285005" lon="148.9860157">
  <ele>725.49</ele>
  <time>2026-09-01T20:00:24Z</time>
  <course>165.74</course>
  <speed>4.61</speed>
  <fix>3d</fix>
</trkpt>
<trkpt lat="-35.2850157" lon="148.986019">
  <ele>724.81</ele>
  <time>2026-09-01T20:00:24Z</time>
  <course>167.67</course>
  <speed>2.249022009674427</speed>
  <fix>3d</fix>
</trkpt>
<trkpt lat="-35.2850119" lon="148.986018">
  <ele>725.16</ele>
  <time>2026-09-01T20:00:24Z</time>
  <course>164.64</course>
  <speed>3.4</speed>
  <fix>3d</fix>
</trkpt>
<trkpt lat="-35.2850175" lon="148.9860197">
  <ele>724.7</ele>
  <time>2026-09-01T20:00:24Z</time>
  <course>167.79</course>
  <speed>1.7740631330367023</speed>
  <fix>3d</fix>
</trkpt>
<trkpt lat="-35.2850119" lon="148.986018">
  <ele>725.16</ele>
  <time>2026-09-01T20:00:24Z</time>
  <course>164.64</course>
  <speed>3.4</speed>
  <fix>3d</fix>
</trkpt>
<trkpt lat="-35.2850189" lon="148.9860204">
  <ele>724.63</ele>
  <time>2026-09-01T20:00:24Z</time>
  <course>167.89</course>
  <speed>1.3555810562264434</speed>
  <fix>3d</fix>
</trkpt>
<trkpt lat="-35.2850168" lon="148.9860197">
  <ele>724.89</ele>
  <time>2026-09-01T20:00:24Z</time>
  <course>162.45</course>
  <speed>2.3</speed>
  <fix>3d</fix>
</trkpt>
<trkpt lat="-35.2850199" lon="148.9860209">
  <ele>724.58</ele>
  <time>2026-09-01T20:00:24Z</time>
  <course>167.99</course>
  <speed>1.0017983829094554</speed>
  <fix>3d</fix>
</trkpt>
<trkpt lat="-35.2850168" lon="148.9860197">
  <ele>724.89</ele>
  <time>2026-09-01T20:00:24Z</time>
  <course>162.45</course>
  <speed>2.3</speed>
  <fix>3d</fix>
</trkpt>
<trkpt lat="-35.2850207" lon="148.9860214">
  <ele>724.57</ele>
  <time>2026-09-01T20:00:24Z</time>
  <course>168.09</course>
  <speed>0.7128113354878693</speed>
  <fix>3d</fix>
</trkpt>
<trkpt lat="-35.2850199" lon="148.986021">
  <ele>724.72</ele>
  <time>2026-09-01T20:00:24Z</time>
  <course>157.66</course>
  <speed>1.41</speed>
  <fix>3d</fix>
</trkpt>
<trkpt lat="-35.2850212" lon="148.9860219">
  <ele>724.58</ele>
  <time>2026-09-01T20:00:24Z</time>
  <course>168.18</course>
  <speed>0.49517673612559787</speed>
  <fix>3d</fix>
</trkpt>
<trkpt lat="-35.2850199" lon="148.986021">
  <ele>724.72</ele>
  <time>2026-09-01T20:00:24Z</time>
  <course>157.66</course>
  <speed>1.41</speed>
  <fix>3d</fix>
</trkpt>
<trkpt lat="-35.2850215" lon="148.9860224">
  <ele>724.61</ele>
  <time>2026-09-01T20:00:24Z</time>
  <course>168.25</course>
  <speed>0.3676955262170047</speed>
  <fix>3d</fix>
</trkpt>
<trkpt lat="-35.2850216" lon="148.9860221">
  <ele>724.66</ele>
  <time>2026-09-01T20:00:24Z</time>
  <course>145.59</course>
  <speed>0.75</speed>
  <fix>3d</fix>
</trkpt>
<trkpt lat="-35.2850216" lon="148.9860228">
  <ele>724.67</ele>
  <time>2026-09-01T20:00:24Z</time>
  <course>168.28</course>
  <speed>0.32</speed>
  <fix>3d</fix>
</trkpt>
<trkpt lat="-35.2850216" lon="148.9860221">
  <ele>724.66</ele>
  <time>2026-09-01T20:00:24Z</time>
  <course>145.59</course>
  <speed>0.75</speed>
  <fix>3d</fix>
</trkpt>
<trkpt lat="-35.2850217" lon="148.9860232">
  <ele>724.74</ele>
  <time>2026-09-01T20:00:24Z</time>
  <course>168.26</course>
  <speed>0.33241540277189324</speed>
  <fix>3d</fix>
</trkpt>
<trkpt lat="-35.2850223" lon="148.986023">
  <ele>724.7</ele>
  <time>2026-09-01T20:00:24Z</time>
  <course>113.86</course>
  <speed>0.4</speed>
  <fix>3d</fix>
</trkpt>
<trkpt lat="-35.2850216" lon="148.9860236">
  <ele>724.82</ele>
  <time>2026-09-01T20:00:24Z</time>
  <course>168.15</course>
  <speed>0.340147027033899</speed>
  <fix>3d</fix>
</trkpt>
<trkpt lat="-35.2850223" lon="148.986023">
  <ele>724.7</ele>
  <time>2026-09-01T20:00:24Z</time>
  <course>113.86</course>
  <speed>0.4</speed>
  <fix>3d</fix>
</trkpt>
<trkpt lat="-35.2850215" lon="148.986024">
  <ele>724.9</ele>
  <time>2026-09-01T20:00:24Z</time>
  <course>167.98</course>
  <speed>0.3488552708502482</speed>
  <fix>3d</fix>
</trkpt>
<trkpt lat="-35.2850224" lon="148.9860238">
  <ele>724.82</ele>
  <time>2026-09-01T20:00:24Z</time>
  <course>74.34</course>
  <speed>0.35</speed>
  <fix>3d</fix>
</trkpt>
<trkpt lat="-35.2850214" lon="148.9860244">
  <ele>724.98</ele>
  <time>2026-09-01T20:00:24Z</time>
  <course>167.77</course>
  <speed>0.3535533905932738</speed>
  <fix>3d</fix>
</trkpt>
<trkpt lat="-35.2850224" lon="148.9860238">
  <ele>724.82</ele>
  <time>2026-09-01T20:00:24Z</time>
  <course>74.34</course>
  <speed>0.35</speed>
  <fix>3d</fix>
</trkpt>
<trkpt lat="-35.2850214" lon="148.9860247">
  <ele>725.05</ele>
  <time>2026-09-01T20:00:24Z</time>
  <course>167.58</course>
  <speed>0.34481879299133333</speed>
  <fix>3d</fix>
</trkpt>
<trkpt lat="-35.2850222" lon="148.9860245">
  <ele>724.98</ele>
  <time>2026-09-01T20:00:24Z</time>
  <course>59.63</course>
  <speed>0.38</speed>
  <fix>3d</fix>
</trkpt>
<trkpt lat="-35.2850213" lon="148.9860251">
  <ele>725.12</ele>
  <time>2026-09-01T20:00:24Z</time>
  <course>167.44</course>
  <speed>0.34481879299133333</speed>
  <fix>3d</fix>
</trkpt>
<trkpt lat="-35.2850222" lon="148.9860245">
  <ele>724.98</ele>
  <time>2026-09-01T20:00:24Z</time>
  <course>59.63</course>
  <speed>0.38</speed>
  <fix>3d</fix>
</trkpt>
<trkpt lat="-35.2850212" lon="148.9860255">
  <ele>725.18</ele>
  <time>2026-09-01T20:00:24Z</time>
  <course>167.39</course>
  <speed>0.3312099032335839</speed>
  <fix>3d</fix>
</trkpt>
<trkpt lat="-35.2850217" lon="148.9860252">
  <ele>725.13</ele>
  <time>2026-09-01T20:00:24Z</time>
  <course>56.75</course>
  <speed>0.38</speed>
  <fix>3d</fix>
</trkpt>
<trkpt lat="-35.2850211" lon="148.9860258">
  <ele>725.23</ele>
  <time>2026-09-01T20:00:24Z</time>
  <course>167.43</course>
  <speed>0.3176476034853718</speed>
  <fix>3d</fix>
</trkpt>
<trkpt lat="-35.2850217" lon="148.9860252">
  <ele>725.13</ele>
  <time>2026-09-01T20:00:24Z</time>
  <course>56.75</course>
  <speed>0.38</speed>
  <fix>3d</fix>
</trkpt>
<trkpt lat="-35.2850209" lon="148.9860262">
  <ele>725.27</ele>
  <time>2026-09-01T20:00:24Z</time>
  <course>167.56</course>
  <speed>0.31304951684997057</speed>
  <fix>3d</fix>
</trkpt>
<trkpt lat="-35.2850214" lon="148.9860259">
  <ele>725.26</ele>
  <time>2026-09-01T20:00:24Z</time>
  <course>56.62</course>
  <speed>0.37</speed>
  <fix>3d</fix>
</trkpt>
<trkpt lat="-35.2850208" lon="148.9860265">
  <ele>725.3</ele>
  <time>2026-09-01T20:00:24Z</time>
  <course>167.75</course>
  <speed>0.29966648127543394</speed>
  <fix>3d</fix>
</trkpt>
<trkpt lat="-35.2850214" lon="148.9860259">
  <ele>725.26</ele>
  <time>2026-09-01T20:00:24Z</time>
  <course>56.62</course>
  <speed>0.37</speed>
  <fix>3d</fix>
</trkpt>
<trkpt lat="-35.2850207" lon="148.9860268">
  <ele>725.31</ele>
  <time>2026-09-01T20:00:24Z</time>
  <course>167.97</course>
  <speed>0.2863564212655271</speed>
  <fix>3d</fix>
</trkpt>
<trkpt lat="-35.285021" lon="148.9860266">
  <ele>725.33</ele>
  <time>2026-09-01T20:00:24Z</time>
  <course>57.28</course>
  <speed>0.35</speed>
  <fix>3d</fix>
</trkpt>
<trkpt lat="-35.2850206" lon="148.9860272">
  <ele>725.32</ele>
  <time>2026-09-01T20:00:24Z</time>
  <course>168.19</course>
  <speed>0.2692582403567252</speed>
  <fix>3d</fix>
</trkpt>
<trkpt lat="-35.285021" lon="148.9860266">
  <ele>725.33</ele>
  <time>2026-09-01T20:00:24Z</time>
  <course>57.28</course>
  <speed>0.35</speed>
  <fix>3d</fix>
</trkpt>
<trkpt lat="-35.2850205" lon="148.9860275">
  <ele>725.31</ele>
  <time>2026-09-01T20:00:24Z</time>
  <course>168.37</course>
  <speed>0.24041630560342614</speed>
  <fix>3d</fix>
</trkpt>
<trkpt lat="-35.2850207" lon="148.9860273">
  <ele>725.37</ele>
  <time>2026-09-01T20:00:24Z</time>
  <course>59.77</course>
  <speed>0.32</speed>
  <fix>3d</fix>
</trkpt>
<trkpt lat="-35.2850205" lon="148.9860277">
  <ele>725.3</ele>
  <time>2026-09-01T20:00:24Z</time>
  <course>168.5</course>
  <speed>0.22561028345356957</speed>
  <fix>3d</fix>
</trkpt>
<trkpt lat="-35.2850207" lon="148.9860273">
  <ele>725.37</ele>
  <time>2026-09-01T20:00:24Z</time>
  <course>59.77</course>
  <speed>0.32</speed>
  <fix>3d</fix>
</trkpt>
<trkpt lat="-35.2850204" lon="148.986028">
  <ele>725.28</ele>
  <time>2026-09-01T20:00:24Z</time>
  <course>168.57</course>
  <speed>0.2109502310972899</speed>
  <fix>3d</fix>
</trkpt>
<trkpt lat="-35.2850205" lon="148.9860278">
  <ele>725.37</ele>
  <time>2026-09-01T20:00:24Z</time>
  <course>65.04</course>
  <speed>0.28</speed>
  <fix>3d</fix>
</trkpt>
<trkpt lat="-35.2850204" lon="148.9860283">
  <ele>725.26</ele>
  <time>2026-09-01T20:00:24Z</time>
  <course>168.57</course>
  <speed>0.19</speed>
  <fix>3d</fix>
</trkpt>
<trkpt lat="-35.2850205" lon="148.9860278">
  <ele>725.37</ele>
  <time>2026-09-01T20:00:24Z</time>
  <course>65.04</course>
  <speed>0.28</speed>
  <fix>3d</fix>
</trkpt>
<trkpt lat="-35.2850204" lon="148.9860285">
  <ele>725.23</ele>
  <time>2026-09-01T20:00:24Z</time>
  <course>168.54</course>
  <speed>0.1824828759089466</speed>
  <fix>3d</fix>
</trkpt>
<trkpt lat="-35.2850203" lon="148.9860283">
  <ele>725.35</ele>
  <time>2026-09-01T20:00:24Z</time>
  <course>74.25</course>
  <speed>0.23</speed>
  <fix>3d</fix>
</trkpt>
<trkpt lat="-35.2850204" lon="148.9860287">
  <ele>725.21</ele>
  <time>2026-09-01T20:00:24Z</time>
  <course>168.47</course>
  <speed>0.18384776310850234</speed>
  <fix>3d</fix>
</trkpt>
<trkpt lat="-35.2850203" lon="148.9860283">
  <ele>725.35</ele>
  <time>2026-09-01T20:00:24Z</time>
  <course>74.25</course>
  <speed>0.23</speed>
  <fix>3d</fix>
</trkpt>
<trkpt lat="-35.2850204" lon="148.9860289">
  <ele>725.19</ele>
  <time>2026-09-01T20:00:24Z</time>
  <course>168.4</course>
  <speed>0.2</speed>
  <fix>3d</fix>
</trkpt>
<trkpt lat="-35.2850203" lon="148.9860288">
  <ele>725.3</ele>
  <time>2026-09-01T20:00:24Z</time>
  <course>91.21</course>
  <speed>0.2</speed>
  <fix>3d</fix>
</trkpt>
<trkpt lat="-35.2850206" lon="148.9860291">
  <ele>725.17</ele>
  <time>2026-09-01T20:00:24Z</time>
  <course>168.34</course>
  <speed>0.22671568097509268</speed>
  <fix>3d</fix>
</trkpt>
<trkpt lat="-35.2850203" lon="148.9860288">
  <ele>725.3</ele>
  <time>2026-09-01T20:00:24Z</time>
  <course>91.21</course>
  <speed>0.2</speed>
  <fix>3d</fix>
</trkpt>
<trkpt lat="-35.2850207" lon="148.9860293">
  <ele>725.16</ele>
  <time>2026-09-01T20:00:24Z</time>
  <course>168.3</course>
  <speed>0.260768096208106</speed>
  <fix>3d</fix>
</trkpt>
<trkpt lat="-35.2850203" lon="148.9860292">
  <ele>725.26</ele>
  <time>2026-09-01T20:00:24Z</time>
  <course>116.43</course>
  <speed>0.2</speed>
  <fix>3d</fix>
</trkpt>
<trkpt lat="-35.2850209" lon="148.9860295">
  <ele>725.15</ele>
  <time>2026-09-01T20:00:24Z</time>
  <course>168.28</course>
  <speed>0.29966648127543394</speed>
  <fix>3d</fix>
</trkpt>
<trkpt lat="-35.2850203" lon="148.9860292">
  <ele>725.26</ele>
  <time>2026-09-01T20:00:24Z</time>
  <course>116.43</course>
  <speed>0.2</speed>
  <fix>3d</fix>
</trkpt>
<trkpt lat="-35.2850212" lon="148.9860297">
  <ele>725.14</ele>
  <time>2026-09-01T20:00:24Z</time>
  <course>168.29</course>
  <speed>0.354682957019364</speed>
  <fix>3d</fix>
</trkpt>
<trkpt lat="-35.2850205" lon="148.9860297">
  <ele>725.23</ele>
  <time>2026-09-01T20:00:24Z</time>
  <course>139.36</course>
  <speed>0.25</speed>
  <fix>3d</fix>
</trkpt>
<trkpt lat="-35.2850215" lon="148.9860298">
  <ele>725.14</ele>
  <time>2026-09-01T20:00:24Z</time>
  <course>168.31</course>
  <speed>0.4080441152620633</speed>
  <fix>3d</fix>
</trkpt>
<trkpt lat="-35.2850205" lon="148.9860297">
  <ele>725.23</ele>
  <time>2026-09-01T20:00:24Z</time>
  <course>139.36</course>
  <speed>0.25</speed>
  <fix>3d</fix>
</trkpt>
<trkpt lat="-35.2850218" lon="148.98603">
  <ele>725.14</ele>
  <time>2026-09-01T20:00:24Z</time>
  <course>168.34</course>
  <speed>0.4657252408878007</speed>
  <fix>3d</fix>
</trkpt>
<trkpt lat="-35.2850209" lon="148.98603">
  <ele>725.21</ele>
  <time>2026-09-01T20:00:24Z</time>
  <course>153.36</course>
  <speed>0.34</speed>
  <fix>3d</fix>
</trkpt>
<trkpt lat="-35.2850222" lon="148.9860301">
  <ele>725.15</ele>
  <time>2026-09-01T20:00:24Z</time>
  <course>168.37</course>
  <speed>0.5239274758971895</speed>
  <fix>3d</fix>
</trkpt>
<trkpt lat="-35.2850209" lon="148.98603">
  <ele>725.21</ele>
  <time>2026-09-01T20:00:24Z</time>
  <course>153.36</course>
  <speed>0.34</speed>
  <fix>3d</fix>
</trkpt>
<trkpt lat="-35.2850227" lon="148.9860303">
  <ele>725.16</ele>
  <time>2026-09-01T20:00:24Z</time>
  <course>168.39</course>
  <speed>0.5824946351684279</speed>
  <fix>3d</fix>
</trkpt>
<trkpt lat="-35.2850215" lon="148.9860303">
  <ele>725.21</ele>
  <time>2026-09-01T20:00:24Z</time>
  <course>160.95</course>
  <speed>0.45</speed>
  <fix>3d</fix>
</trkpt>
<trkpt lat="-35.2850232" lon="148.9860305">
  <ele>725.17</ele>
  <time>2026-09-01T20:00:24Z</time>
  <course>168.41</course>
  <speed>0.6413267497929586</speed>
  <fix>3d</fix>
</trkpt>
<trkpt lat="-35.2850215" lon="148.9860303">
  <ele>725.21</ele>
  <time>2026-09-01T20:00:24Z</time>
  <course>160.95</course>
  <speed>0.45</speed>
  <fix>3d</fix>
</trkpt>
<trkpt lat="-35.2850237" lon="148.9860306">
  <ele>725.18</ele>
  <time>2026-09-01T20:00:24Z</time>
  <course>168.42</course>
  <speed>0.6905070600652827</speed>
  <fix>3d</fix>
</trkpt>
<trkpt lat="-35.2850224" lon="148.9860307">
  <ele>725.22</ele>
  <time>2026-09-01T20:00:24Z</time>
  <course>165.08</course>
  <speed>0.57</speed>
  <fix>3d</fix>
</trkpt>
<trkpt lat="-35.2850244" lon="148.9860308">
  <ele>725.19</ele>
  <time>2026-09-01T20:00:24Z</time>
  <course>168.42</course>
  <speed>0.7496665925596525</speed>
  <fix>3d</fix>
</trkpt>
<trkpt lat="-35.2850224" lon="148.9860307">
  <ele>725.22</ele>
  <time>2026-09-01T20:00:24Z</time>
  <course>165.08</course>
  <speed>0.57</speed>
  <fix>3d</fix>
</trkpt>
<trkpt lat="-35.285025" lon="148.986031">
  <ele>725.2</ele>
  <time>2026-09-01T20:00:24Z</time>
  <course>168.42</course>
  <speed>0.8104936767180853</speed>
  <fix>3d</fix>
</trkpt>
<trkpt lat="-35.2850236" lon="148.986031">
  <ele>725.24</ele>
  <time>2026-09-01T20:00:24Z</time>
  <course>167.36</course>
  <speed>0.69</speed>
  <fix>3d</fix>
</trkpt>
<trkpt lat="-35.2850257" lon="148.9860312">
  <ele>725.2</ele>
  <time>2026-09-01T20:00:24Z</time>
  <course>168.41</course>
  <speed>0.8598837130682264</speed>
  <fix>3d</fix>
</trkpt>
<trkpt lat="-35.2850236" lon="148.986031">
  <ele>725.24</ele>
  <time>2026-09-01T20:00:24Z</time>
  <course>167.36</course>
  <speed>0.69</speed>
  <fix>3d</fix>
</trkpt>
<trkpt lat="-35.2850265" lon="148.9860313">
  <ele>725.21</ele>
  <time>2026-09-01T20:00:24Z</time>
  <course>168.4</course>
  <speed>0.910823802938856</speed>
  <fix>3d</fix>
</trkpt>
<trkpt lat="-35.285025" lon="148.9860313">
  <ele>725.26</ele>
  <time>2026-09-01T20:00:24Z</time>
  <course>168.6</course>
  <speed>0.81</speed>
  <fix>3d</fix>
</trkpt>
<trkpt lat="-35.2850273" lon="148.9860315">
  <ele>725.22</ele>
  <time>2026-09-01T20:00:24Z</time>
  <course>168.4</course>
  <speed>0.9617692030835673</speed>
  <fix>3d</fix>
</trkpt>
<trkpt lat="-35.285025" lon="148.9860313">
  <ele>725.26</ele>
  <time>2026-09-01T20:00:24Z</time>
  <course>168.6</course>
  <speed>0.81</speed>
  <fix>3d</fix>
</trkpt>
<trkpt lat="-35.2850282" lon="148.9860317">
  <ele>725.22</ele>
  <time>2026-09-01T20:00:24Z</time>
  <course>168.4</course>
  <speed>1.0111874208078342</speed>
  <fix>3d</fix>
</trkpt>
<trkpt lat="-35.2850265" lon="148.9860317">
  <ele>725.27</ele>
  <time>2026-09-01T20:00:24Z</time>
  <course>169.21</course>
  <speed>0.92</speed>
  <fix>3d</fix>
</trkpt>
<trkpt lat="-35.2850291" lon="148.9860319">
  <ele>725.22</ele>
  <time>2026-09-01T20:00:24Z</time>
  <course>168.4</course>
  <speed>1.0522357150372725</speed>
  <fix>3d</fix>
</trkpt>
<trkpt lat="-35.2850265" lon="148.9860317">
  <ele>725.27</ele>
  <time>2026-09-01T20:00:24Z</time>
  <course>169.21</course>
  <speed>0.92</speed>
  <fix>3d</fix>
</trkpt>
<trkpt lat="-35.28503" lon="148.9860322">
  <ele>725.22</ele>
  <time>2026-09-01T20:00:24Z</time>
  <course>168.4</course>
  <speed>1.0932977636490435</speed>
  <fix>3d</fix>
</trkpt>
<trkpt lat="-35.2850282" lon="148.9860321">
  <ele>725.28</ele>
  <time>2026-09-01T20:00:24Z</time>
  <course>169.44</course>
  <speed>1.02</speed>
  <fix>3d</fix>
</trkpt>
<trkpt lat="-35.285031" lon="148.9860324">
  <ele>725.22</ele>
  <time>2026-09-01T20:00:24Z</time>
  <course>168.4</course>
  <speed>1.1343720729989786</speed>
  <fix>3d</fix>
</trkpt>
<trkpt lat="-35.2850282" lon="148.9860321">
  <ele>725.28</ele>
  <time>2026-09-01T20:00:24Z</time>
  <course>169.44</course>
  <speed>1.02</speed>
  <fix>3d</fix>
</trkpt>
<trkpt lat="-35.285032" lon="148.9860326">
  <ele>725.22</ele>
  <time>2026-09-01T20:00:24Z</time>
  <course>168.4</course>
  <speed>1.1655899793666726</speed>
  <fix>3d</fix>
</trkpt>
<trkpt lat="-35.2850301" lon="148.9860325">
  <ele>725.29</ele>
  <time>2026-09-01T20:00:24Z</time>
  <course>169.43</course>
  <speed>1.11</speed>
  <fix>3d</fix>
</trkpt>
<trkpt lat="-35.2850331" lon="148.9860329">
  <ele>725.22</ele>
  <time>2026-09-01T20:00:24Z</time>
  <course>168.4</course>
  <speed>1.1968291440301746</speed>
  <fix>3d</fix>
</trkpt>
<trkpt lat="-35.2850301" lon="148.9860325">
  <ele>725.29</ele>
  <time>2026-09-01T20:00:24Z</time>
  <course>169.43</course>
  <speed>1.11</speed>
  <fix>3d</fix>
</trkpt>
<trkpt lat="-35.2850341" lon="148.9860331">
  <ele>725.22</ele>
  <time>2026-09-01T20:00:24Z</time>
  <course>168.4</course>
  <speed>1.228087944733601</speed>
  <fix>3d</fix>
</trkpt>
<trkpt lat="-35.2850321" lon="148.986033">
  <ele>725.29</ele>
  <time>2026-09-01T20:00:24Z</time>
  <course>169.24</course>
  <speed>1.19</speed>
  <fix>3d</fix>
</trkpt>
<trkpt lat="-35.2850352" lon="148.9860334">
  <ele>725.21</ele>
  <time>2026-09-01T20:00:24Z</time>
  <course>168.4</course>
  <speed>1.2495199078045935</speed>
  <fix>3d</fix>
</trkpt>
<trkpt lat="-35.2850321" lon="148.986033">
  <ele>725.29</ele>
  <time>2026-09-01T20:00:24Z</time>
  <course>169.24</course>
  <speed>1.19</speed>
  <fix>3d</fix>
</trkpt>
<trkpt lat="-35.2850363" lon="148.9860337">
  <ele>725.21</ele>
  <time>2026-09-01T20:00:24Z</time>
  <course>168.4</course>
  <speed>1.2611502686040232</speed>
  <fix>3d</fix>
</trkpt>
<trkpt lat="-35.2850343" lon="148.9860335">
  <ele>725.28</ele>
  <time>2026-09-01T20:00:24Z</time>
  <course>168.92</course>
  <speed>1.25</speed>
  <fix>3d</fix>
</trkpt>
<trkpt lat="-35.2850375" lon="148.986034">
  <ele>725.2</ele>
  <time>2026-09-01T20:00:24Z</time>
  <course>168.4</course>
  <speed>1.2709838708654018</speed>
  <fix>3d</fix>
</trkpt>
<trkpt lat="-35.2850343" lon="148.9860335">
  <ele>725.28</ele>
  <time>2026-09-01T20:00:24Z</time>
  <course>168.92</course>
  <speed>1.25</speed>
  <fix>3d</fix>
</trkpt>
<trkpt lat="-35.2850386" lon="148.9860343">
  <ele>725.2</ele>
  <time>2026-09-01T20:00:24Z</time>
  <course>168.4</course>
  <speed>1.2826534995859171</speed>
  <fix>3d</fix>
</trkpt>
<trkpt lat="-35.2850365" lon="148.986034">
  <ele>725.28</ele>
  <time>2026-09-01T20:00:24Z</time>
  <course>168.48</course>
  <speed>1.29</speed>
  <fix>3d</fix>
</trkpt>
<trkpt lat="-35.2850397" lon="148.9860346">
  <ele>725.2</ele>
  <time>2026-09-01T20:00:24Z</time>
  <course>168.4</course>
  <speed>1.284562182223967</speed>
  <fix>3d</fix>
</trkpt>
<trkpt lat="-35.2850365" lon="148.986034">
  <ele>725.28</ele>
  <time>2026-09-01T20:00:24Z</time>
  <course>168.48</course>
  <speed>1.29</speed>
  <fix>3d</fix>
</trkpt>
<trkpt lat="-35.2850409" lon="148.9860349">
  <ele>725.2</ele>
  <time>2026-09-01T20:00:24Z</time>
  <course>168.39</course>
  <speed>1.2865457628860313</speed>
  <fix>3d</fix>
</trkpt>
<trkpt lat="-35.2850388" lon="148.9860347">
  <ele>725.28</ele>
  <time>2026-09-01T20:00:24Z</time>
  <course>167.97</course>
  <speed>1.32</speed>
  <fix>3d</fix>
</trkpt>
<trkpt lat="-35.285042" lon="148.9860352">
  <ele>725.2</ele>
  <time>2026-09-01T20:00:24Z</time>
  <course>168.38</course>
  <speed>1.2767536959022285</speed>
  <fix>3d</fix>
</trkpt>
<trkpt lat="-35.2850388" lon="148.9860347">
  <ele>725.28</ele>
  <time>2026-09-01T20:00:24Z</time>
  <course>167.97</course>
  <speed>1.32</speed>
  <fix>3d</fix>
</trkpt>
<trkpt lat="-35.2850431" lon="148.9860355">
  <ele>725.2</ele>
  <time>2026-09-01T20:00:24Z</time>
  <course>168.38</course>
  <speed>1.2690547663517127</speed>
  <fix>3d</fix>
</trkpt>
<trkpt lat="-35.2850411" lon="148.9860352">
  <ele>725.27</ele>
  <time>2026-09-01T20:00:24Z</time>
  <course>167.37</course>
  <speed>1.32</speed>
  <fix>3d</fix>
</trkpt>
<trkpt lat="-35.2850443" lon="148.9860359">
  <ele>725.2</ele>
  <time>2026-09-01T20:00:24Z</time>
  <course>168.36</course>
  <speed>1.2517188182655081</speed>
  <fix>3d</fix>
</trkpt>
<trkpt lat="-35.2850411" lon="148.9860352">
  <ele>725.27</ele>
  <time>2026-09-01T20:00:24Z</time>
  <course>167.37</course>
  <speed>1.32</speed>
  <fix>3d</fix>
</trkpt>
<trkpt lat="-35.2850454" lon="148.9860362">
  <ele>725.2</ele>
  <time>2026-09-01T20:00:24Z</time>
  <course>168.36</course>
  <speed>1.2322337440599491</speed>
  <fix>3d</fix>
</trkpt>
<trkpt lat="-35.2850435" lon="148.9860359">
  <ele>725.27</ele>
  <time>2026-09-01T20:00:24Z</time>
  <course>166.69</course>
  <speed>1.31</speed>
  <fix>3d</fix>
</trkpt>
<trkpt lat="-35.2850465" lon="148.9860366">
  <ele>725.2</ele>
  <time>2026-09-01T20:00:24Z</time>
  <course>168.35</course>
  <speed>1.2127654348636425</speed>
  <fix>3d</fix>
</trkpt>
<trkpt lat="-35.2850435" lon="148.9860359">
  <ele>725.27</ele>
  <time>2026-09-01T20:00:24Z</time>
  <course>166.69</course>
  <speed>1.31</speed>
  <fix>3d</fix>
</trkpt>
<trkpt lat="-35.2850476" lon="148.9860369">
  <ele>725.21</ele>
  <time>2026-09-01T20:00:24Z</time>
  <course>168.35</course>
  <speed>1.186001686339442</speed>
  <fix>3d</fix>
</trkpt>
<trkpt lat="-35.2850458" lon="148.9860366">
  <ele>725.27</ele>
  <time>2026-09-01T20:00:24Z</time>
  <course>165.93</course>
  <speed>1.28</speed>
  <fix>3d</fix>
</trkpt>
<trkpt lat="-35.2850486" lon="148.9860373">
  <ele>725.21</ele>
  <time>2026-09-01T20:00:24Z</time>
  <course>168.35</course>
  <speed>1.1472575996697516</speed>
  <fix>3d</fix>
</trkpt>
<trkpt lat="-35.2850458" lon="148.9860366">
  <ele>725.27</ele>
  <time>2026-09-01T20:00:24Z</time>
  <course>165.93</course>
  <speed>1.28</speed>
  <fix>3d</fix>
</trkpt>
<trkpt lat="-35.2850496" lon="148.9860376">
  <ele>725.21</ele>
  <time>2026-09-01T20:00:24Z</time>
  <course>168.35</course>
  <speed>1.1182575731914361</speed>
  <fix>3d</fix>
</trkpt>
<trkpt lat="-35.2850479" lon="148.9860373">
  <ele>725.27</ele>
  <time>2026-09-01T20:00:24Z</time>
  <course>165.08</course>
  <speed>1.23</speed>
  <fix>3d</fix>
</trkpt>
<trkpt lat="-35.2850506" lon="148.986038">
  <ele>725.21</ele>
  <time>2026-09-01T20:00:24Z</time>
  <course>168.34</course>
  <speed>1.0796758772891057</speed>
  <fix>3d</fix>
</trkpt>
<trkpt lat="-35.2850479" lon="148.9860373">
  <ele>725.27</ele>
  <time>2026-09-01T20:00:24Z</time>
  <course>165.08</course>
  <speed>1.23</speed>
  <fix>3d</fix>
</trkpt>
<trkpt lat="-35.2850516" lon="148.9860383">
  <ele>725.21</ele>
  <time>2026-09-01T20:00:24Z</time>
  <course>168.33</course>
  <speed>1.0316006979447037</speed>
  <fix>3d</fix>
</trkpt>
<trkpt lat="-35.28505" lon="148.986038">
  <ele>725.28</ele>
  <time>2026-09-01T20:00:24Z</time>
  <course>164.1</course>
  <speed>1.16</speed>
  <fix>3d</fix>
</trkpt>
<trkpt lat="-35.2850525" lon="148.9860387">
  <ele>725.21</ele>
  <time>2026-09-01T20:00:24Z</time>
  <course>168.32</course>
  <speed>0.9932774033471213</speed>
  <fix>3d</fix>
</trkpt>
<trkpt lat="-35.28505" lon="148.986038">
  <ele>725.28</ele>
  <time>2026-09-01T20:00:24Z</time>
  <course>164.1</course>
  <speed>1.16</speed>
  <fix>3d</fix>
</trkpt>
<trkpt lat="-35.2850533" lon="148.986039">
  <ele>725.21</ele>
  <time>2026-09-01T20:00:24Z</time>
  <course>168.32</course>
  <speed>0.945568612000208</speed>
  <fix>3d</fix>
</trkpt>
<trkpt lat="-35.2850519" lon="148.9860387">
  <ele>725.28</ele>
  <time>2026-09-01T20:00:24Z</time>
  <course>162.95</course>
  <speed>1.08</speed>
  <fix>3d</fix>
</trkpt>
<trkpt lat="-35.2850541" lon="148.9860394">
  <ele>725.2</ele>
  <time>2026-09-01T20:00:24Z</time>
  <course>168.32</course>
  <speed>0.8949301648732151</speed>
  <fix>3d</fix>
</trkpt>
<trkpt lat="-35.2850519" lon="148.9860387">
  <ele>725.28</ele>
  <time>2026-09-01T20:00:24Z</time>
  <course>162.95</course>
  <speed>1.08</speed>
  <fix>3d</fix>
</trkpt>
<trkpt lat="-35.2850549" lon="148.9860397">
  <ele>725.2</ele>
  <time>2026-09-01T20:00:24Z</time>
  <course>168.32</course>
  <speed>0.8381527307120105</speed>
  <fix>3d</fix>
</trkpt>
<trkpt lat="-35.2850537" lon="148.9860394">
  <ele>725.28</ele>
  <time>2026-09-01T20:00:24Z</time>
  <course>161.59</course>
  <speed>0.99</speed>
  <fix>3d</fix>
</trkpt>
<trkpt lat="-35.2850556" lon="148.9860401">
  <ele>725.2</ele>
  <time>2026-09-01T20:00:24Z</time>
  <course>168.33</course>
  <speed>0.7783315488916018</speed>
  <fix>3d</fix>
</trkpt>
<trkpt lat="-35.2850537" lon="148.9860394">
  <ele>725.28</ele>
  <time>2026-09-01T20:00:24Z</time>
  <course>161.59</course>
  <speed>0.99</speed>
  <fix>3d</fix>
</trkpt>
<trkpt lat="-35.2850563" lon="148.9860404">
  <ele>725.2</ele>
  <time>2026-09-01T20:00:24Z</time>
  <course>168.34</course>
  <speed>0.7316419889536138</speed>
  <fix>3d</fix>
</trkpt>
<trkpt lat="-35.2850553" lon="148.9860401">
  <ele>725.28</ele>
  <time>2026-09-01T20:00:24Z</time>
  <course>159.94</course>
  <speed>0.89</speed>
  <fix>3d</fix>
</trkpt>
<trkpt lat="-35.2850569" lon="148.9860407">
  <ele>725.2</ele>
  <time>2026-09-01T20:00:24Z</time>
  <course>168.34</course>
  <speed>0.6723094525588644</speed>
  <fix>3d</fix>
</trkpt>
<trkpt lat="-35.2850553" lon="148.9860401">
  <ele>725.28</ele>
  <time>2026-09-01T20:00:24Z</time>
  <course>159.94</course>
  <speed>0.89</speed>
  <fix>3d</fix>
</trkpt>
<trkpt lat="-35.2850575" lon="148.986041">
  <ele>725.2</ele>
  <time>2026-09-01T20:00:24Z</time>
  <course>168.35</course>
  <speed>0.6132699242584786</speed>
  <fix>3d</fix>
</trkpt>
<trkpt lat="-35.2850568" lon="148.9860408">
  <ele>725.28</ele>
  <time>2026-09-01T20:00:24Z</time>
  <course>157.89</course>
  <speed>0.78</speed>
  <fix>3d</fix>
</trkpt>
<trkpt lat="-35.285058" lon="148.9860413">
  <ele>725.2</ele>
  <time>2026-09-01T20:00:24Z</time>
  <course>168.35</course>
  <speed>0.5546169849544819</speed>
  <fix>3d</fix>
</trkpt>
<trkpt lat="-35.2850568" lon="148.9860408">
  <ele>725.28</ele>
  <time>2026-09-01T20:00:24Z</time>
  <course>157.89</course>
  <speed>0.78</speed>
  <fix>3d</fix>
</trkpt>
<trkpt lat="-35.2850585" lon="148.9860416">
  <ele>725.2</ele>
  <time>2026-09-01T20:00:24Z</time>
  <course>168.36</course>
  <speed>0.5011985634456667</speed>
  <fix>3d</fix>
</trkpt>
<trkpt lat="-35.285058" lon="148.9860413">
  <ele>725.28</ele>
  <time>2026-09-01T20:00:24Z</time>
  <course>155.25</course>
  <speed>0.67</speed>
  <fix>3d</fix>
</trkpt>
<trkpt lat="-35.2850589" lon="148.9860419">
  <ele>725.2</ele>
  <time>2026-09-01T20:00:24Z</time>
  <course>168.37</course>
  <speed>0.4441846462902562</speed>
  <fix>3d</fix>
</trkpt>
<trkpt lat="-35.285058" lon="148.9860413">
  <ele>725.28</ele>
  <time>2026-09-01T20:00:24Z</time>
  <course>155.25</course>
  <speed>0.67</speed>
  <fix>3d</fix>
</trkpt>
<trkpt lat="-35.2850592" lon="148.9860422">
  <ele>725.2</ele>
  <time>2026-09-01T20:00:24Z</time>
  <course>168.37</course>
  <speed>0.388329756778952</speed>
  <fix>3d</fix>
</trkpt>
<trkpt lat="-35.2850589" lon="148.986042">
  <ele>725.28</ele>
  <time>2026-09-01T20:00:24Z</time>
  <course>151.57</course>
  <speed>0.55</speed>
  <fix>3d</fix>
</trkpt>
<trkpt lat="-35.2850595" lon="148.9860425">
  <ele>725.2</ele>
  <time>2026-09-01T20:00:24Z</time>
  <course>168.37</course>
  <speed>0.32015621187164245</speed>
  <fix>3d</fix>
</trkpt>
<trkpt lat="-35.2850589" lon="148.986042">
  <ele>725.28</ele>
  <time>2026-09-01T20:00:24Z</time>
  <course>151.57</course>
  <speed>0.55</speed>
  <fix>3d</fix>
</trkpt>
<trkpt lat="-35.2850598" lon="148.9860427">
  <ele>725.2</ele>
  <time>2026-09-01T20:00:24Z</time>
  <course>168.37</course>
  <speed>0.26870057685088805</speed>
  <fix>3d</fix>
</trkpt>
<trkpt lat="-35.2850597" lon="148.9860425">
  <ele>725.28</ele>
  <time>2026-09-01T20:00:24Z</time>
  <course>146.11</course>
  <speed>0.43</speed>
  <fix>3d</fix>
</trkpt>
<trkpt lat="-35.28506" lon="148.986043">
  <ele>725.2</ele>
  <time>2026-09-01T20:00:24Z</time>
  <course>168.36</course>
  <speed>0.2220360331117452</speed>
  <fix>3d</fix>
</trkpt>
<trkpt lat="-35.2850597" lon="148.9860425">
  <ele>725.28</ele>
  <time>2026-09-01T20:00:24Z</time>
  <course>146.11</course>
  <speed>0.43</speed>
  <fix>3d</fix>
</trkpt>
<trkpt lat="-35.2850601" lon="148.9860432">
  <ele>725.2</ele>
  <time>2026-09-01T20:00:24Z</time>
  <course>168.37</course>
  <speed>0.18384776310850234</speed>
  <fix>3d</fix>
</trkpt>
<trkpt lat="-35.2850603" lon="148.986043">
  <ele>725.28</ele>
  <time>2026-09-01T20:00:24Z</time>
  <course>137.25</course>
  <speed>0.32</speed>
  <fix>3d</fix>
</trkpt>
<trkpt lat="-35.2850602" lon="148.9860434">
  <ele>725.2</ele>
  <time>2026-09-01T20:00:24Z</time>
  <course>168.37</course>
  <speed>0.16124515496597097</speed>
  <fix>3d</fix>
</trkpt>
<trkpt lat="-35.2850603" lon="148.986043">
  <ele>725.28</ele>
  <time>2026-09-01T20:00:24Z</time>
  <course>137.25</course>
  <speed>0.32</speed>
  <fix>3d</fix>
</trkpt>
<trkpt lat="-35.2850603" lon="148.9860436">
  <ele>725.19</ele>
  <time>2026-09-01T20:00:24Z</time>
  <course>168.38</course>
  <speed>0.15297058540778355</speed>
  <fix>3d</fix>
</trkpt>
<trkpt lat="-35.2850605" lon="148.9860435">
  <ele>725.28</ele>
  <time>2026-09-01T20:00:24Z</time>
  <course>121.14</course>
  <speed>0.23</speed>
  <fix>3d</fix>
</trkpt>
<trkpt lat="-35.2850603" lon="148.9860438">
  <ele>725.2</ele>
  <time>2026-09-01T20:00:24Z</time>
  <course>168.39</course>
  <speed>0.16124515496597097</speed>
  <fix>3d</fix>
</trkpt>
<trkpt lat="-35.2850605" lon="148.9860435">
  <ele>725.28</ele>
  <time>2026-09-01T20:00:24Z</time>
  <course>121.14</course>
  <speed>0.23</speed>
  <fix>3d</fix>
</trkpt>
<trkpt lat="-35.2850603" lon="148.986044">
  <ele>725.2</ele>
  <time>2026-09-01T20:00:24Z</time>
  <course>168.39</course>
  <speed>0.1769180601295413</speed>
  <fix>3d</fix>
</trkpt>
<trkpt lat="-35.2850606" lon="148.9860439">
  <ele>725.28</ele>
  <time>2026-09-01T20:00:24Z</time>
  <course>92.24</course>
  <speed>0.17</speed>
  <fix>3d</fix>
</trkpt>
<trkpt lat="-35.2850601" lon="148.9860441">
  <ele>725.2</ele>
  <time>2026-09-01T20:00:24Z</time>
  <course>168.39</course>
  <speed>0.20248456731316586</speed>
  <fix>3d</fix>
</trkpt>
<trkpt lat="-35.2850606" lon="148.9860439">
  <ele>725.28</ele>
  <time>2026-09-01T20:00:24Z</time>
  <course>92.24</course>
  <speed>0.17</speed>
  <fix>3d</fix>
</trkpt>
<trkpt lat="-35.28506" lon="148.9860443">
  <ele>725.2</ele>
  <time>2026-09-01T20:00:24Z</time>
  <course>168.4</course>
  <speed>0.23259406699226015</speed>
  <fix>3d</fix>
</trkpt>
<trkpt lat="-35.2850606" lon="148.9860443">
  <ele>725.28</ele>
  <time>2026-09-01T20:00:24Z</time>
  <course>58.04</course>
  <speed>0.18</speed>
  <fix>3d</fix>
</trkpt>
<trkpt lat="-35.2850598" lon="148.9860444">
  <ele>725.2</ele>
  <time>2026-09-01T20:00:24Z</time>
  <course>168.39</course>
  <speed>0.26570660511172844</speed>
  <fix>3d</fix>
</trkpt>
<trkpt lat="-35.2850606" lon="148.9860443">
  <ele>725.28</ele>
  <time>2026-09-01T20:00:24Z</time>
  <course>58.04</course>
  <speed>0.18</speed>
  <fix>3d</fix>
</trkpt>
<trkpt lat="-35.2850596" lon="148.9860445">
  <ele>725.2</ele>
  <time>2026-09-01T20:00:24Z</time>
  <course>168.38</course>
  <speed>0.29120439557122074</speed>
  <fix>3d</fix>
</trkpt>
<trkpt lat="-35.2850604" lon="148.9860446">
  <ele>725.29</ele>
  <time>2026-09-01T20:00:24Z</time>
  <course>35.34</course>
  <speed>0.22</speed>
  <fix>3d</fix>
</trkpt>
<trkpt lat="-35.2850594" lon="148.9860446">
  <ele>725.2</ele>
  <time>2026-09-01T20:00:24Z</time>
  <course>168.35</course>
  <speed>0.3178049716414141</speed>
  <fix>3d</fix>
</trkpt>
<trkpt lat="-35.2850604" lon="148.9860446">
  <ele>725.29</ele>
  <time>2026-09-01T20:00:24Z</time>
  <course>35.34</course>
  <speed>0.22</speed>
  <fix>3d</fix>
</trkpt>
<trkpt lat="-35.2850591" lon="148.9860447">
  <ele>725.2</ele>
  <time>2026-09-01T20:00:24Z</time>
  <course>168.31</course>
  <speed>0.34365680554879163</speed>
  <fix>3d</fix>
</trkpt>
<trkpt lat="-35.28506" lon="148.9860449">
  <ele>725.29</ele>
  <time>2026-09-01T20:00:24Z</time>
  <course>22.69</course>
  <speed>0.27</speed>
  <fix>3d</fix>
</trkpt>
<trkpt lat="-35.2850589" lon="148.9860448">
  <ele>725.21</ele>
  <time>2026-09-01T20:00:24Z</time>
  <course>168.28</course>
  <speed>0.3622154055254967</speed>
  <fix>3d</fix>
</trkpt>
<trkpt lat="-35.28506" lon="148.9860449">
  <ele>725.29</ele>
  <time>2026-09-01T20:00:24Z</time>
  <course>22.69</course>
  <speed>0.27</speed>
  <fix>3d</fix>
</trkpt>
<trkpt lat="-35.2850586" lon="148.9860449">
  <ele>725.21</ele>
  <time>2026-09-01T20:00:24Z</time>
  <course>168.24</course>
  <speed>0.38118237105091834</speed>
  <fix>3d</fix>
</trkpt>
<trkpt lat="-35.2850595" lon="148.9860451">
  <ele>725.29</ele>
  <time>2026-09-01T20:00:24Z</time>
  <course>15.04</course>
  <speed>0.32</speed>
  <fix>3d</fix>
</trkpt>
<trkpt lat="-35.2850583" lon="148.986045">
  <ele>725.21</ele>
  <time>2026-09-01T20:00:24Z</time>
  <course>168.21</course>
  <speed>0.3905124837953327</speed>
  <fix>3d</fix>
</trkpt>
<trkpt lat="-35.2850595" lon="148.9860451">
  <ele>725.29</ele>
  <time>2026-09-01T20:00:24Z</time>
  <course>15.04</course>
  <speed>0.32</speed>
  <fix>3d</fix>
</trkpt>
<trkpt lat="-35.2850579" lon="148.986045">
  <ele>725.21</ele>
  <time>2026-09-01T20:00:24Z</time>
  <course>168.19</course>
  <speed>0.4001249804748511</speed>
  <fix>3d</fix>
</trkpt>
<trkpt lat="-35.285059" lon="148.9860452">
  <ele>725.29</ele>
  <time>2026-09-01T20:00:24Z</time>
  <course>9.85</course>
  <speed>0.35</speed>
  <fix>3d</fix>
</trkpt>
<trkpt lat="-35.2850576" lon="148.9860451">
  <ele>725.21</ele>
  <time>2026-09-01T20:00:24Z</time>
  <course>168.18</course>
  <speed>0.41</speed>
  <fix>3d</fix>
</trkpt>
<trkpt lat="-35.285059" lon="148.9860452">
  <ele>725.29</ele>
  <time>2026-09-01T20:00:24Z</time>
  <course>9.85</course>
  <speed>0.35</speed>
  <fix>3d</fix>
</trkpt>
<trkpt lat="-35.2850573" lon="148.9860451">
  <ele>725.21</ele>
  <time>2026-09-01T20:00:24Z</time>
  <course>168.18</course>
  <speed>0.41</speed>
  <fix>3d</fix>
</trkpt>
<trkpt lat="-35.2850583" lon="148.9860453">
  <ele>725.29</ele>
  <time>2026-09-01T20:00:24Z</time>
  <course>6.01</course>
  <speed>0.37</speed>
  <fix>3d</fix>
</trkpt>
<trkpt lat="-35.2850569" lon="148.9860451">
  <ele>725.21</ele>
  <time>2026-09-01T20:00:24Z</time>
  <course>168.19</course>
  <speed>0.4201190307520001</speed>
  <fix>3d</fix>
</trkpt>
<trkpt lat="-35.2850583" lon="148.9860453">
  <ele>725.29</ele>
  <time>2026-09-01T20:00:24Z</time>
  <course>6.01</course>
  <speed>0.37</speed>
  <fix>3d</fix>
</trkpt>
<trkpt lat="-35.2850566" lon="148.9860451">
  <ele>725.21</ele>
  <time>2026-09-01T20:00:24Z</time>
  <course>168.21</course>
  <speed>0.4204759208325728</speed>
  <fix>3d</fix>
</trkpt>
<trkpt lat="-35.2850576" lon="148.9860454">
  <ele>725.3</ele>
  <time>2026-09-01T20:00:24Z</time>
  <course>2.96</course>
  <speed>0.39</speed>
  <fix>3d</fix>
</trkpt>
<trkpt lat="-35.2850563" lon="148.9860451">
  <ele>725.21</ele>
  <time>2026-09-01T20:00:24Z</time>
  <course>168.22</course>
  <speed>0.42107006542854597</speed>
  <fix>3d</fix>
</trkpt>
<trkpt lat="-35.2850576" lon="148.9860454">
  <ele>725.3</ele>
  <time>2026-09-01T20:00:24Z</time>
  <course>2.96</course>
  <speed>0.39</speed>
  <fix>3d</fix>
</trkpt>
<trkpt lat="-35.2850559" lon="148.9860451">
  <ele>725.21</ele>
  <time>2026-09-01T20:00:24Z</time>
  <course>168.22</course>
  <speed>0.41109609582188933</speed>
  <fix>3d</fix>
</trkpt>
<trkpt lat="-35.2850569" lon="148.9860455">
  <ele>725.3</ele>
  <time>2026-09-01T20:00:24Z</time>
  <course>0.46</course>
  <speed>0.39</speed>
  <fix>3d</fix>
</trkpt>
<trkpt lat="-35.2850556" lon="148.9860451">
  <ele>725.21</ele>
  <time>2026-09-01T20:00:24Z</time>
  <course>168.21</course>
  <speed>0.4119465984809196</speed>
  <fix>3d</fix>
</trkpt>
<trkpt lat="-35.2850569" lon="148.9860455">
  <ele>725.3</ele>
  <time>2026-09-01T20:00:24Z</time>
  <course>0.46</course>
  <speed>0.39</speed>
  <fix>3d</fix>
</trkpt>
<trkpt lat="-35.2850552" lon="148.9860451">
  <ele>725.21</ele>
  <time>2026-09-01T20:00:24Z</time>
  <course>168.2</course>
  <speed>0.40311288741492746</speed>
  <fix>3d</fix>
</trkpt>
<trkpt lat="-35.2850562" lon="148.9860454">
  <ele>725.3</ele>
  <time>2026-09-01T20:00:24Z</time>
  <course>358.33</course>
  <speed>0.39</speed>
  <fix>3d</fix>
</trkpt>
<trkpt lat="-35.2850549" lon="148.9860451">
  <ele>725.21</ele>
  <time>2026-09-01T20:00:24Z</time>
  <course>168.18</course>
  <speed>0.40311288741492746</speed>
  <fix>3d</fix>
</trkpt>
<trkpt lat="-35.2850562" lon="148.9860454">
  <ele>725.3</ele>
  <time>2026-09-01T20:00:24Z</time>
  <course>358.33</course>
  <speed>0.39</speed>
  <fix>3d</fix>
</trkpt>
<trkpt lat="-35.2850546" lon="148.9860451">
  <ele>725.21</ele>
  <time>2026-09-01T20:00:24Z</time>
  <course>168.18</course>
  <speed>0.3945883931389772</speed>
  <fix>3d</fix>
</trkpt>
<trkpt lat="-35.2850554" lon="148.9860454">
  <ele>725.29</ele>
  <time>2026-09-01T20:00:24Z</time>
  <course>356.37</course>
  <speed>0.39</speed>
  <fix>3d</fix>
</trkpt>
<trkpt lat="-35.2850543" lon="148.986045">
  <ele>725.21</ele>
  <time>2026-09-01T20:00:24Z</time>
  <course>168.18</course>
  <speed>0.38470768123342686</speed>
  <fix>3d</fix>
</trkpt>
<trkpt lat="-35.2850554" lon="148.9860454">
  <ele>725.29</ele>
  <time>2026-09-01T20:00:24Z</time>
  <course>356.37</course>
  <speed>0.39</speed>
  <fix>3d</fix>
</trkpt>
<trkpt lat="-35.2850539" lon="148.986045">
  <ele>725.21</ele>
  <time>2026-09-01T20:00:24Z</time>
  <course>168.19</course>
  <speed>0.37656340767525465</speed>
  <fix>3d</fix>
</trkpt>
<trkpt lat="-35.2850548" lon="148.9860454">
  <ele>725.29</ele>
  <time>2026-09-01T20:00:24Z</time>
  <course>354.54</course>
  <speed>0.37</speed>
  <fix>3d</fix>
</trkpt>
<trkpt lat="-35.2850536" lon="148.9860449">
  <ele>725.21</ele>
  <time>2026-09-01T20:00:24Z</time>
  <course>168.21</course>
  <speed>0.366742416417845</speed>
  <fix>3d</fix>
</trkpt>
<trkpt lat="-35.2850548" lon="148.9860454">
  <ele>725.29</ele>
  <time>2026-09-01T20:00:24Z</time>
  <course>354.54</course>
  <speed>0.37</speed>
  <fix>3d</fix>
</trkpt>
<trkpt lat="-35.2850533" lon="148.9860449">
  <ele>725.21</ele>
  <time>2026-09-01T20:00:24Z</time>
  <course>168.23</course>
  <speed>0.356931365951495</speed>
  <fix>3d</fix>
</trkpt>
<trkpt lat="-35.2850541" lon="148.9860453">
  <ele>725.29</ele>
  <time>2026-09-01T20:00:24Z</time>
  <course>352.85</course>
  <speed>0.36</speed>
  <fix>3d</fix>
</trkpt>
<trkpt lat="-35.285053" lon="148.9860448">
  <ele>725.2</ele>
  <time>2026-09-01T20:00:24Z</time>
  <course>168.25</course>
  <speed>0.34928498393145957</speed>
  <fix>3d</fix>
</trkpt>
<trkpt lat="-35.2850541" lon="148.9860453">
  <ele>725.29</ele>
  <time>2026-09-01T20:00:24Z</time>
  <course>352.85</course>
  <speed>0.36</speed>
  <fix>3d</fix>
</trkpt>
<trkpt lat="-35.2850528" lon="148.9860448">
  <ele>725.2</ele>
  <time>2026-09-01T20:00:24Z</time>
  <course>168.27</course>
  <speed>0.3298484500494128</speed>
  <fix>3d</fix>
</trkpt>
<trkpt lat="-35.2850535" lon="148.9860452">
  <ele>725.29</ele>
  <time>2026-09-01T20:00:24Z</time>
  <course>351.3</course>
  <speed>0.34</speed>
  <fix>3d</fix>
</trkpt>
<trkpt lat="-35.2850525" lon="148.9860447">
  <ele>725.2</ele>
  <time>2026-09-01T20:00:24Z</time>
  <course>168.29</course>
  <speed>0.32015621187164245</speed>
  <fix>3d</fix>
</trkpt>
<trkpt lat="-35.2850535" lon="148.9860452">
  <ele>725.29</ele>
  <time>2026-09-01T20:00:24Z</time>
  <course>351.3</course>
  <speed>0.34</speed>
  <fix>3d</fix>
</trkpt>
<trkpt lat="-35.2850523" lon="148.9860447">
  <ele>725.21</ele>
  <time>2026-09-01T20:00:24Z</time>
  <course>168.31</course>
  <speed>0.31048349392520047</speed>
  <fix>3d</fix>
</trkpt>
<trkpt lat="-35.2850529" lon="148.9860451">
  <ele>725.29</ele>
  <time>2026-09-01T20:00:24Z</time>
  <course>349.9</course>
  <speed>0.31</speed>
  <fix>3d</fix>
</trkpt>
<trkpt lat="-35.285052" lon="148.9860446">
  <ele>725.21</ele>
  <time>2026-09-01T20:00:24Z</time>
  <course>168.33</course>
  <speed>0.29120439557122074</speed>
  <fix>3d</fix>
</trkpt>
<trkpt lat="-35.2850529" lon="148.9860451">
  <ele>725.29</ele>
  <time>2026-09-01T20:00:24Z</time>
  <course>349.9</course>
  <speed>0.31</speed>
  <fix>3d</fix>
</trkpt>
<trkpt lat="-35.2850518" lon="148.9860446">
  <ele>725.21</ele>
  <time>2026-09-01T20:00:24Z</time>
  <course>168.38</course>
  <speed>0.2816025568065745</speed>
  <fix>3d</fix>
</trkpt>
<trkpt lat="-35.2850524" lon="148.986045">
  <ele>725.29</ele>
  <time>2026-09-01T20:00:24Z</time>
  <course>348.62</course>
  <speed>0.29</speed>
  <fix>3d</fix>
</trkpt>
<trkpt lat="-35.2850516" lon="148.9860445">
  <ele>725.21</ele>
  <time>2026-09-01T20:00:24Z</time>
  <course>168.44</course>
  <speed>0.2720294101747089</speed>
  <fix>3d</fix>
</trkpt>
<trkpt lat="-35.2850524" lon="148.986045">
  <ele>725.29</ele>
  <time>2026-09-01T20:00:24Z</time>
  <course>348.62</course>
  <speed>0.29</speed>
  <fix>3d</fix>
</trkpt>
<trkpt lat="-35.2850513" lon="148.9860444">
  <ele>725.21</ele>
  <time>2026-09-01T20:00:24Z</time>
  <course>168.51</course>
  <speed>0.25</speed>
  <fix>3d</fix>
</trkpt>
<trkpt lat="-35.2850519" lon="148.9860448">
  <ele>725.29</ele>
  <time>2026-09-01T20:00:24Z</time>
  <course>347.81</course>
  <speed>0.26</speed>
  <fix>3d</fix>
</trkpt>
<trkpt lat="-35.2850511" lon="148.9860444">
  <ele>725.21</ele>
  <time>2026-09-01T20:00:24Z</time>
  <course>168.58</course>
  <speed>0.24041630560342614</speed>
  <fix>3d</fix>
</trkpt>
<trkpt lat="-35.2850519" lon="148.9860448">
  <ele>725.29</ele>
  <time>2026-09-01T20:00:24Z</time>
  <course>347.81</course>
  <speed>0.26</speed>
  <fix>3d</fix>
</trkpt>
<trkpt lat="-35.285051" lon="148.9860443">
  <ele>725.21</ele>
  <time>2026-09-01T20:00:24Z</time>
  <course>168.62</course>
  <speed>0.22135943621178655</speed>
  <fix>3d</fix>
</trkpt>
<trkpt lat="-35.2850514" lon="148.9860447">
  <ele>725.29</ele>
  <time>2026-09-01T20:00:24Z</time>
  <course>347.42</course>
  <speed>0.23</speed>
  <fix>3d</fix>
</trkpt>
<trkpt lat="-35.2850508" lon="148.9860443">
  <ele>725.21</ele>
  <time>2026-09-01T20:00:24Z</time>
  <course>168.63</course>
  <speed>0.21189620100417092</speed>
  <fix>3d</fix>
</trkpt>
<trkpt lat="-35.2850514" lon="148.9860447">
  <ele>725.29</ele>
  <time>2026-09-01T20:00:24Z</time>
  <course>347.42</course>
  <speed>0.23</speed>
  <fix>3d</fix>
</trkpt>
<trkpt lat="-35.2850506" lon="148.9860442">
  <ele>725.21</ele>
  <time>2026-09-01T20:00:24Z</time>
  <course>168.61</course>
  <speed>0.20248456731316586</speed>
  <fix>3d</fix>
</trkpt>
<trkpt lat="-35.285051" lon="148.9860446">
  <ele>725.29</ele>
  <time>2026-09-01T20:00:24Z</time>
  <course>346.84</course>
  <speed>0.21</speed>
  <fix>3d</fix>
</trkpt>
<trkpt lat="-35.2850505" lon="148.9860442">
  <ele>725.21</ele>
  <time>2026-09-01T20:00:24Z</time>
  <course>168.58</course>
  <speed>0.18384776310850234</speed>
  <fix>3d</fix>
</trkpt>
<trkpt lat="-35.285051" lon="148.9860446">
  <ele>725.29</ele>
  <time>2026-09-01T20:00:24Z</time>
  <course>346.84</course>
  <speed>0.21</speed>
  <fix>3d</fix>
</trkpt>
<trkpt lat="-35.2850503" lon="148.9860441">
  <ele>725.21</ele>
  <time>2026-09-01T20:00:24Z</time>
  <course>168.55</course>
  <speed>0.1708800749063506</speed>
  <fix>3d</fix>
</trkpt>
<trkpt lat="-35.2850507" lon="148.9860445">
  <ele>725.29</ele>
  <time>2026-09-01T20:00:24Z</time>
  <course>345.94</course>
  <speed>0.18</speed>
  <fix>3d</fix>
</trkpt>
<trkpt lat="-35.2850502" lon="148.9860441">
  <ele>725.2</ele>
  <time>2026-09-01T20:00:24Z</time>
  <course>168.51</course>
  <speed>0.15231546211727817</speed>
  <fix>3d</fix>
</trkpt>
<trkpt lat="-35.2850507" lon="148.9860445">
  <ele>725.29</ele>
  <time>2026-09-01T20:00:24Z</time>
  <course>345.94</course>
  <speed>0.18</speed>
  <fix>3d</fix>
</trkpt>
<trkpt lat="-35.2850501" lon="148.9860441">
  <ele>725.2</ele>
  <time>2026-09-01T20:00:24Z</time>
  <course>168.49</course>
  <speed>0.14317821063276354</speed>
  <fix>3d</fix>
</trkpt>
<trkpt lat="-35.2850504" lon="148.9860444">
  <ele>725.29</ele>
  <time>2026-09-01T20:00:24Z</time>
  <course>344.74</course>
  <speed>0.15</speed>
  <fix>3d</fix>
</trkpt>
<trkpt lat="-35.28505" lon="148.986044">
  <ele>725.2</ele>
  <time>2026-09-01T20:00:24Z</time>
  <course>168.47</course>
  <speed>0.1341640786499874</speed>
  <fix>3d</fix>
</trkpt>
<trkpt lat="-35.2850504" lon="148.9860444">
  <ele>725.29</ele>
  <time>2026-09-01T20:00:24Z</time>
  <course>344.74</course>
  <speed>0.15</speed>
  <fix>3d</fix>
</trkpt>
<trkpt lat="-35.2850499" lon="148.986044">
  <ele>725.2</ele>
  <time>2026-09-01T20:00:24Z</time>
  <course>168.45</course>
  <speed>0.11661903789690602</speed>
  <fix>3d</fix>
</trkpt>
<trkpt lat="-35.2850502" lon="148.9860443">
  <ele>725.29</ele>
  <time>2026-09-01T20:00:24Z</time>
  <course>343.26</course>
  <speed>0.12</speed>
  <fix>3d</fix>
</trkpt>
<trkpt lat="-35.2850498" lon="148.9860439">
  <ele>725.2</ele>
  <time>2026-09-01T20:00:24Z</time>
  <course>168.44</course>
  <speed>0.10295630140987001</speed>
  <fix>3d</fix>
</trkpt>
<trkpt lat="-35.2850502" lon="148.9860443">
  <ele>725.29</ele>
  <time>2026-09-01T20:00:24Z</time>
  <course>343.26</course>
  <speed>0.12</speed>
  <fix>3d</fix>
</trkpt>
<trkpt lat="-35.2850498" lon="148.9860439">
  <ele>725.19</ele>
  <time>2026-09-01T20:00:24Z</time>
  <course>168.45</course>
  <speed>0.08602325267042626</speed>
  <fix>3d</fix>
</trkpt>
<trkpt lat="-35.28505" lon="148.9860442">
  <ele>725.29</ele>
  <time>2026-09-01T20:00:24Z</time>
  <course>341.12</course>
  <speed>0.09</speed>
  <fix>3d</fix>
</trkpt>
<trkpt lat="-35.2850497" lon="148.9860439">
  <ele>725.19</ele>
  <time>2026-09-01T20:00:24Z</time>
  <course>168.45</course>
  <speed>0.07810249675906654</speed>
  <fix>3d</fix>
</trkpt>
<trkpt lat="-35.28505" lon="148.9860442">
  <ele>725.29</ele>
  <time>2026-09-01T20:00:24Z</time>
  <course>341.12</course>
  <speed>0.09</speed>
  <fix>3d</fix>
</trkpt>
<trkpt lat="-35.2850497" lon="148.9860439">
  <ele>725.19</ele>
  <time>2026-09-01T20:00:24Z</time>
  <course>168.45</course>
  <speed>0.06403124237432849</speed>
  <fix>3d</fix>
</trkpt>
<trkpt lat="-35.2850498" lon="148.9860441">
  <ele>725.29</ele>
  <time>2026-09-01T20:00:24Z</time>
  <course>337.16</course>
  <speed>0.06</speed>
  <fix>3d</fix>
</trkpt>
<trkpt lat="-35.2850497" lon="148.9860438">
  <ele>725.19</ele>
  <time>2026-09-01T20:00:24Z</time>
  <course>168.45</course>
  <speed>0.05</speed>
  <fix>3d</fix>
</trkpt>
<trkpt lat="-35.2850498" lon="148.9860441">
  <ele>725.29</ele>
  <time>2026-09-01T20:00:24Z</time>
  <course>337.16</course>
  <speed>0.06</speed>
  <fix>3d</fix>
</trkpt>
<trkpt lat="-35.2850496" lon="148.9860438">
  <ele>725.19</ele>
  <time>2026-09-01T20:00:24Z</time>
  <course>168.44</course>
  <speed>0.0412310562561766</speed>
  <fix>3d</fix>
</trkpt>
<trkpt lat="-35.2850497" lon="148.9860441">
  <ele>725.29</ele>
  <time>2026-09-01T20:00:24Z</time>
  <course>327.95</course>
  <speed>0.03</speed>
  <fix>3d</fix>
</trkpt>
<trkpt lat="-35.2850496" lon="148.9860438">
  <ele>725.19</ele>
  <time>2026-09-01T20:00:24Z</time>
  <course>168.44</course>
  <speed>0.04</speed>
  <fix>3d</fix>
</trkpt>
<trkpt lat="-35.2850497" lon="148.9860441">
  <ele>725.29</ele>
  <time>2026-09-01T20:00:24Z</time>
  <course>327.95</course>
  <speed>0.03</speed>
  <fix>3d</fix>
</trkpt>
<trkpt lat="-35.2850496" lon="148.9860438">
  <ele>725.2</ele>
  <time>2026-09-01T20:00:24Z</time>
  <course>168.44</course>
  <speed>0.03</speed>
  <fix>3d</fix>
</trkpt>
<trkpt lat="-35.2850497" lon="148.986044">
  <ele>725.3</ele>
  <time>2026-09-01T20:00:24Z</time>
  <course>290.33</course>
  <speed>0.01</speed>
  <fix>3d</fix>
</trkpt>
<trkpt lat="-35.2850496" lon="148.9860438">
  <ele>725.2</ele>
  <time>2026-09-01T20:00:24Z</time>
  <course>168.44</course>
  <speed>0.0316227766016838</speed>
  <fix>3d</fix>
</trkpt>
<trkpt lat="-35.2850497" lon="148.986044">
  <ele>725.3</ele>
  <time>2026-09-01T20:00:24Z</time>
  <course>290.33</course>
  <speed>0.01</speed>
  <fix>3d</fix>
</trkpt>
<trkpt lat="-35.2850496" lon="148.9860437">
  <ele>725.2</ele>
  <time>2026-09-01T20:00:24Z</time>
  <course>168.44</course>
  <speed>0.04242640687119285</speed>
  <fix>3d</fix>
</trkpt>
<trkpt lat="-35.2850497" lon="148.986044">
  <ele>725.3</ele>
  <time>2026-09-01T20:00:24Z</time>
  <course>202.81</course>
  <speed>0.02</speed>
  <fix>3d</fix>
</trkpt>
<trkpt lat="-35.2850497" lon="148.9860437">
  <ele>725.2</ele>
  <time>2026-09-01T20:00:24Z</time>
  <course>168.44</course>
  <speed>0.05</speed>
  <fix>3d</fix>
</trkpt>
<trkpt lat="-35.2850497" lon="148.986044">
  <ele>725.3</ele>
  <time>2026-09-01T20:00:24Z</time>
  <course>202.81</course>
  <speed>0.02</speed>
  <fix>3d</fix>
</trkpt>
<trkpt lat="-35.2850497" lon="148.9860437">
  <ele>725.21</ele>
  <time>2026-09-01T20:00:25Z</time>
  <course>168.44</course>
  <speed>0.053851648071345036</speed>
  <fix>3d</fix>
</trkpt>
<trkpt lat="-35.2850497" lon="148.986044">
  <ele>725.3</ele>
  <time>2026-09-01T20:00:25Z</time>
  <course>182.92</course>
  <speed>0.04</speed>
  <fix>3d</fix>
</trkpt>
<trkpt lat="-35.2850498" lon="148.9860437">
  <ele>725.21</ele>
  <time>2026-09-01T20:00:25Z</time>
  <course>168.44</course>
  <speed>0.0632455532033676</speed>
  <fix>3d</fix>
</trkpt>
<trkpt lat="-35.2850497" lon="148.986044">
  <ele>725.3</ele>
  <time>2026-09-01T20:00:25Z</time>
  <course>182.92</course>
  <speed>0.04</speed>
  <fix>3d</fix>
</trkpt>
<trkpt lat="-35.2850498" lon="148.9860438">
  <ele>725.21</ele>
  <time>2026-09-01T20:00:25Z</time>
  <course>168.44</course>
  <speed>0.07280109889280519</speed>
  <fix>3d</fix>
</trkpt>
<trkpt lat="-35.2850498" lon="148.986044">
  <ele>725.31</ele>
  <time>2026-09-01T20:00:25Z</time>
  <course>176.55</course>
  <speed>0.07</speed>
  <fix>3d</fix>
</trkpt>
<trkpt lat="-35.2850499" lon="148.9860438">
  <ele>725.21</ele>
  <time>2026-09-01T20:00:25Z</time>
  <course>168.44</course>
  <speed>0.08062257748298549</speed>
  <fix>3d</fix>
</trkpt>
<trkpt lat="-35.2850498" lon="148.986044">
  <ele>725.31</ele>
  <time>2026-09-01T20:00:25Z</time>
  <course>176.55</course>
  <speed>0.07</speed>
  <fix>3d</fix>
</trkpt>
<trkpt lat="-35.28505" lon="148.9860438">
  <ele>725.21</ele>
  <time>2026-09-01T20:00:25Z</time>
  <course>168.44</course>
  <speed>0.09055385138137417</speed>
  <fix>3d</fix>
</trkpt>
<trkpt lat="-35.2850499" lon="148.986044">
  <ele>725.31</ele>
  <time>2026-09-01T20:00:25Z</time>
  <course>173.37</course>
  <speed>0.09</speed>
  <fix>3d</fix>
</trkpt>
<trkpt lat="-35.2850501" lon="148.9860438">
  <ele>725.21</ele>
  <time>2026-09-01T20:00:25Z</time>
  <course>168.44</course>
  <speed>0.1004987562112089</speed>
  <fix>3d</fix>
</trkpt>
<trkpt lat="-35.2850499" lon="148.986044">
  <ele>725.31</ele>
  <time>2026-09-01T20:00:25Z</time>
  <course>173.37</course>
  <speed>0.09</speed>
  <fix>3d</fix>
</trkpt>
<trkpt lat="-35.2850502" lon="148.9860438">
  <ele>725.21</ele>
  <time>2026-09-01T20:00:25Z</time>
  <course>168.44</course>
  <speed>0.1</speed>
  <fix>3d</fix>
</trkpt>
<trkpt lat="-35.2850501" lon="148.986044">
  <ele>725.31</ele>
  <time>2026-09-01T20:00:25Z</time>
  <course>171.41</course>
  <speed>0.11</speed>
  <fix>3d</fix>
</trkpt>
<trkpt lat="-35.2850503" lon="148.9860438">
  <ele>725.2</ele>
  <time>2026-09-01T20:00:25Z</time>
  <course>168.44</course>
  <speed>0.11</speed>
  <fix>3d</fix>
</trkpt>
<trkpt lat="-35.2850501" lon="148.986044">
  <ele>725.31</ele>
  <time>2026-09-01T20:00:25Z</time>
  <course>171.41</course>
  <speed>0.11</speed>
  <fix>3d</fix>
</trkpt>
<trkpt lat="-35.2850504" lon="148.9860438">
  <ele>725.2</ele>
  <time>2026-09-01T20:00:25Z</time>
  <course>168.44</course>
  <speed>0.11</speed>
  <fix>3d</fix>
</trkpt>
<trkpt lat="-35.2850503" lon="148.986044">
  <ele>725.31</ele>
  <time>2026-09-01T20:00:25Z</time>
  <course>170.05</course>
  <speed>0.12</speed>
  <fix>3d</fix>
</trkpt>
<trkpt lat="-35.2850505" lon="148.9860438">
  <ele>725.2</ele>
  <time>2026-09-01T20:00:25Z</time>
  <course>168.44</course>
  <speed>0.12</speed>
  <fix>3d</fix>
</trkpt>
<trkpt lat="-35.2850503" lon="148.986044">
  <ele>725.31</ele>
  <time>2026-09-01T20:00:25Z</time>
  <course>170.05</course>
  <speed>0.12</speed>
  <fix>3d</fix>
</trkpt>
<trkpt lat="-35.2850507" lon="148.9860438">
  <ele>725.2</ele>
  <time>2026-09-01T20:00:25Z</time>
  <course>168.44</course>
  <speed>0.12</speed>
  <fix>3d</fix>
</trkpt>
<trkpt lat="-35.2850506" lon="148.9860441">
  <ele>725.31</ele>
  <time>2026-09-01T20:00:25Z</time>
  <course>168.97</course>
  <speed>0.14</speed>
  <fix>3d</fix>
</trkpt>
<trkpt lat="-35.2850508" lon="148.9860438">
  <ele>725.2</ele>
  <time>2026-09-01T20:00:25Z</time>
  <course>168.44</course>
  <speed>0.12</speed>
  <fix>3d</fix>
</trkpt>
<trkpt lat="-35.2850506" lon="148.9860441">
  <ele>725.31</ele>
  <time>2026-09-01T20:00:25Z</time>
  <course>168.97</course>
  <speed>0.14</speed>
  <fix>3d</fix>
</trkpt>
<trkpt lat="-35.2850509" lon="148.9860439">
  <ele>725.2</ele>
  <time>2026-09-01T20:00:25Z</time>
  <course>168.43</course>
  <speed>0.13</speed>
  <fix>3d</fix>
</trkpt>
<trkpt lat="-35.2850508" lon="148.9860441">
  <ele>725.31</ele>
  <time>2026-09-01T20:00:25Z</time>
  <course>167.88</course>
  <speed>0.15</speed>
  <fix>3d</fix>
</trkpt>
<trkpt lat="-35.285051" lon="148.9860439">
  <ele>725.2</ele>
  <time>2026-09-01T20:00:25Z</time>
  <course>168.44</course>
  <speed>0.13</speed>
  <fix>3d</fix>
</trkpt>
<trkpt lat="-35.2850508" lon="148.9860441">
  <ele>725.31</ele>
  <time>2026-09-01T20:00:25Z</time>
  <course>167.88</course>
  <speed>0.15</speed>
  <fix>3d</fix>
</trkpt>
<trkpt lat="-35.2850512" lon="148.9860439">
  <ele>725.19</ele>
  <time>2026-09-01T20:00:25Z</time>
  <course>168.44</course>
  <speed>0.13</speed>
  <fix>3d</fix>
</trkpt>
<trkpt lat="-35.2850511" lon="148.9860442">
  <ele>725.31</ele>
  <time>2026-09-01T20:00:25Z</time>
  <course>166.79</course>
  <speed>0.15</speed>
  <fix>3d</fix>
</trkpt>
<trkpt lat="-35.2850513" lon="148.986044">
  <ele>725.19</ele>
  <time>2026-09-01T20:00:25Z</time>
  <course>168.44</course>
  <speed>0.13</speed>
  <fix>3d</fix>
</trkpt>
<trkpt lat="-35.2850511" lon="148.9860442">
  <ele>725.31</ele>
  <time>2026-09-01T20:00:25Z</time>
  <course>166.79</course>
  <speed>0.15</speed>
  <fix>3d</fix>
</trkpt>
<trkpt lat="-35.2850514" lon="148.986044">
  <ele>725.19</ele>
  <time>2026-09-01T20:00:25Z</time>
  <course>168.44</course>
  <speed>0.13</speed>
  <fix>3d</fix>
</trkpt>
<trkpt lat="-35.2850514" lon="148.9860443">
  <ele>725.31</ele>
  <time>2026-09-01T20:00:25Z</time>
  <course>165.9</course>
  <speed>0.16</speed>
  <fix>3d</fix>
</trkpt>
<trkpt lat="-35.2850516" lon="148.986044">
  <ele>725.2</ele>
  <time>2026-09-01T20:00:25Z</time>
  <course>168.44</course>
  <speed>0.13</speed>
  <fix>3d</fix>
</trkpt>
<trkpt lat="-35.2850514" lon="148.9860443">
  <ele>725.31</ele>
  <time>2026-09-01T20:00:25Z</time>
  <course>165.9</course>
  <speed>0.16</speed>
  <fix>3d</fix>
</trkpt>
<trkpt lat="-35.2850517" lon="148.9860441">
  <ele>725.2</ele>
  <time>2026-09-01T20:00:25Z</time>
  <course>168.43</course>
  <speed>0.13</speed>
  <fix>3d</fix>
</trkpt>
<trkpt lat="-35.2850516" lon="148.9860444">
  <ele>725.31</ele>
  <time>2026-09-01T20:00:25Z</time>
  <course>165.23</course>
  <speed>0.16</speed>
  <fix>3d</fix>
</trkpt>
<trkpt lat="-35.2850518" lon="148.9860441">
  <ele>725.2</ele>
  <time>2026-09-01T20:00:25Z</time>
  <course>168.43</course>
  <speed>0.12</speed>
  <fix>3d</fix>
</trkpt>
<trkpt lat="-35.2850516" lon="148.9860444">
  <ele>725.31</ele>
  <time>2026-09-01T20:00:25Z</time>
  <course>165.23</course>
  <speed>0.16</speed>
  <fix>3d</fix>
</trkpt>
<trkpt lat="-35.285052" lon="148.9860442">
  <ele>725.2</ele>
  <time>2026-09-01T20:00:25Z</time>
  <course>168.43</course>
  <speed>0.12</speed>
  <fix>3d</fix>
</trkpt>
<trkpt lat="-35.2850519" lon="148.9860445">
  <ele>725.32</ele>
  <time>2026-09-01T20:00:25Z</time>
  <course>164.68</course>
  <speed>0.16</speed>
  <fix>3d</fix>
</trkpt>
<trkpt lat="-35.2850521" lon="148.9860442">
  <ele>725.21</ele>
  <time>2026-09-01T20:00:25Z</time>
  <course>168.43</course>
  <speed>0.11</speed>
  <fix>3d</fix>
</trkpt>
<trkpt lat="-35.2850519" lon="148.9860445">
  <ele>725.32</ele>
  <time>2026-09-01T20:00:25Z</time>
  <course>164.68</course>
  <speed>0.16</speed>
  <fix>3d</fix>
</trkpt>
<trkpt lat="-35.2850522" lon="148.9860443">
  <ele>725.21</ele>
  <time>2026-09-01T20:00:25Z</time>
  <course>168.43</course>
  <speed>0.11</speed>
  <fix>3d</fix>
</trkpt>
<trkpt lat="-35.2850522" lon="148.9860446">
  <ele>725.32</ele>
  <time>2026-09-01T20:00:25Z</time>
  <course>164.12</course>
  <speed>0.15</speed>
  <fix>3d</fix>
</trkpt>
<trkpt lat="-35.2850523" lon="148.9860443">
  <ele>725.21</ele>
  <time>2026-09-01T20:00:25Z</time>
  <course>168.43</course>
  <speed>0.1</speed>
  <fix>3d</fix>
</trkpt>
<trkpt lat="-35.2850522" lon="148.9860446">
  <ele>725.32</ele>
  <time>2026-09-01T20:00:25Z</time>
  <course>164.12</course>
  <speed>0.15</speed>
  <fix>3d</fix>
</trkpt>
<trkpt lat="-35.2850525" lon="148.9860444">
  <ele>725.21</ele>
  <time>2026-09-01T20:00:25Z</time>
  <course>168.43</course>
  <speed>0.1</speed>
  <fix>3d</fix>
</trkpt>
<trkpt lat="-35.2850525" lon="148.9860447">
  <ele>725.32</ele>
  <time>2026-09-01T20:00:25Z</time>
  <course>163.4</course>
  <speed>0.14</speed>
  <fix>3d</fix>
</trkpt>
<trkpt lat="-35.2850526" lon="148.9860444">
  <ele>725.21</ele>
  <time>2026-09-01T20:00:25Z</time>
  <course>168.43</course>
  <speed>0.09</speed>
  <fix>3d</fix>
</trkpt>
<trkpt lat="-35.2850525" lon="148.9860447">
  <ele>725.32</ele>
  <time>2026-09-01T20:00:25Z</time>
  <course>163.4</course>
  <speed>0.14</speed>
  <fix>3d</fix>
</trkpt>
<trkpt lat="-35.2850527" lon="148.9860445">
  <ele>725.21</ele>
  <time>2026-09-01T20:00:25Z</time>
  <course>168.43</course>
  <speed>0.09</speed>
  <fix>3d</fix>
</trkpt>
<trkpt lat="-35.2850527" lon="148.9860448">
  <ele>725.32</ele>
  <time>2026-09-01T20:00:25Z</time>
  <course>162.59</course>
  <speed>0.13</speed>
  <fix>3d</fix>
</trkpt>
<trkpt lat="-35.2850528" lon="148.9860445">
  <ele>725.21</ele>
  <time>2026-09-01T20:00:25Z</time>
  <course>168.43</course>
  <speed>0.08</speed>
  <fix>3d</fix>
</trkpt>
<trkpt lat="-35.2850527" lon="148.9860448">
  <ele>725.32</ele>
  <time>2026-09-01T20:00:25Z</time>
  <course>162.59</course>
  <speed>0.13</speed>
  <fix>3d</fix>
</trkpt>
<trkpt lat="-35.2850529" lon="148.9860445">
  <ele>725.21</ele>
  <time>2026-09-01T20:00:25Z</time>
  <course>168.43</course>
  <speed>0.07</speed>
  <fix>3d</fix>
</trkpt>
<trkpt lat="-35.285053" lon="148.9860449">
  <ele>725.32</ele>
  <time>2026-09-01T20:00:25Z</time>
  <course>161.87</course>
  <speed>0.12</speed>
  <fix>3d</fix>
</trkpt>
<trkpt lat="-35.285053" lon="148.9860446">
  <ele>725.21</ele>
  <time>2026-09-01T20:00:25Z</time>
  <course>168.43</course>
  <speed>0.06</speed>
  <fix>3d</fix>
</trkpt>
<trkpt lat="-35.285053" lon="148.9860449">
  <ele>725.32</ele>
  <time>2026-09-01T20:00:25Z</time>
  <course>161.87</course>
  <speed>0.12</speed>
  <fix>3d</fix>
</trkpt>
<trkpt lat="-35.285053" lon="148.9860446">
  <ele>725.2</ele>
  <time>2026-09-01T20:00:25Z</time>
  <course>168.43</course>
  <speed>0.06</speed>
  <fix>3d</fix>
</trkpt>
<trkpt lat="-35.2850531" lon="148.9860449">
  <ele>725.32</ele>
  <time>2026-09-01T20:00:25Z</time>
  <course>161.39</course>
  <speed>0.1</speed>
  <fix>3d</fix>
</trkpt>
<trkpt lat="-35.2850531" lon="148.9860446">
  <ele>725.2</ele>
  <time>2026-09-01T20:00:25Z</time>
  <course>168.44</course>
  <speed>0.05</speed>
  <fix>3d</fix>
</trkpt>
<trkpt lat="-35.2850531" lon="148.9860449">
  <ele>725.32</ele>
  <time>2026-09-01T20:00:25Z</time>
  <course>161.39</course>
  <speed>0.1</speed>
  <fix>3d</fix>
</trkpt>
<trkpt lat="-35.2850532" lon="148.9860447">
  <ele>725.2</ele>
  <time>2026-09-01T20:00:25Z</time>
  <course>168.44</course>
  <speed>0.04</speed>
  <fix>3d</fix>
</trkpt>
<trkpt lat="-35.2850533" lon="148.986045">
  <ele>725.32</ele>
  <time>2026-09-01T20:00:25Z</time>
  <course>160.76</course>
  <speed>0.09</speed>
  <fix>3d</fix>
</trkpt>
<trkpt lat="-35.2850532" lon="148.9860447">
  <ele>725.2</ele>
  <time>2026-09-01T20:00:25Z</time>
  <course>168.44</course>
  <speed>0.03</speed>
  <fix>3d</fix>
</trkpt>
<trkpt lat="-35.2850533" lon="148.986045">
  <ele>725.32</ele>
  <time>2026-09-01T20:00:25Z</time>
  <course>160.76</course>
  <speed>0.09</speed>
  <fix>3d</fix>
</trkpt>
<trkpt lat="-35.2850533" lon="148.9860447">
  <ele>725.2</ele>
  <time>2026-09-01T20:00:25Z</time>
  <course>168.44</course>
  <speed>0.022360679774997897</speed>
  <fix>3d</fix>
</trkpt>
<trkpt lat="-35.2850534" lon="148.986045">
  <ele>725.32</ele>
  <time>2026-09-01T20:00:25Z</time>
  <course>159.34</course>
  <speed>0.07</speed>
  <fix>3d</fix>
</trkpt>
<trkpt lat="-35.2850533" lon="148.9860447">
  <ele>725.21</ele>
  <time>2026-09-01T20:00:25Z</time>
  <course>168.44</course>
  <speed>0.01414213562373095</speed>
  <fix>3d</fix>
</trkpt>
<trkpt lat="-35.2850534" lon="148.986045">
  <ele>725.32</ele>
  <time>2026-09-01T20:00:25Z</time>
  <course>159.34</course>
  <speed>0.07</speed>
  <fix>3d</fix>
</trkpt>
<trkpt lat="-35.2850533" lon="148.9860448">
  <ele>725.21</ele>
  <time>2026-09-01T20:00:25Z</time>
  <course>168.43</course>
  <speed>0.01</speed>
  <fix>3d</fix>
</trkpt>
<trkpt lat="-35.2850535" lon="148.9860451">
  <ele>725.32</ele>
  <time>2026-09-01T20:00:25Z</time>
  <course>157.18</course>
  <speed>0.05</speed>
  <fix>3d</fix>
</trkpt>
<trkpt lat="-35.2850534" lon="148.9860448">
  <ele>725.21</ele>
  <time>2026-09-01T20:00:25Z</time>
  <course>168.43</course>
  <speed>0.01</speed>
  <fix>3d</fix>
</trkpt>
<trkpt lat="-35.2850535" lon="148.9860451">
  <ele>725.32</ele>
  <time>2026-09-01T20:00:25Z</time>
  <course>157.18</course>
  <speed>0.05</speed>
  <fix>3d</fix>
</trkpt>
<trkpt lat="-35.2850534" lon="148.9860448">
  <ele>725.21</ele>
  <time>2026-09-01T20:00:25Z</time>
  <course>168.43</course>
  <speed>0.01</speed>
  <fix>3d</fix>
</trkpt>
<trkpt lat="-35.2850536" lon="148.9860452">
  <ele>725.32</ele>
  <time>2026-09-01T20:00:25Z</time>
  <course>153.8</course>
  <speed>0.03</speed>
  <fix>3d</fix>
</trkpt>
<trkpt lat="-35.2850534" lon="148.9860448">
  <ele>725.21</ele>
  <time>2026-09-01T20:00:25Z</time>
  <course>168.43</course>
  <speed>0.022360679774997897</speed>
  <fix>3d</fix>
</trkpt>
<trkpt lat="-35.2850536" lon="148.9860452">
  <ele>725.32</ele>
  <time>2026-09-01T20:00:25Z</time>
  <course>153.8</course>
  <speed>0.03</speed>
  <fix>3d</fix>
</trkpt>
<trkpt lat="-35.2850534" lon="148.9860448">
  <ele>725.21</ele>
  <time>2026-09-01T20:00:25Z</time>
  <course>168.43</course>
  <speed>0.0282842712474619</speed>
  <fix>3d</fix>
</trkpt>
<trkpt lat="-35.2850537" lon="148.9860452">
  <ele>725.32</ele>
  <time>2026-09-01T20:00:25Z</time>
  <course>145.51</course>
  <speed>0.01</speed>
  <fix>3d</fix>
</trkpt>
<trkpt lat="-35.2850534" lon="148.9860448">
  <ele>725.21</ele>
  <time>2026-09-01T20:00:25Z</time>
  <course>168.43</course>
  <speed>0.03605551275463989</speed>
  <fix>3d</fix>
</trkpt>
<trkpt lat="-35.2850537" lon="148.9860452">
  <ele>725.32</ele>
  <time>2026-09-01T20:00:25Z</time>
  <course>145.51</course>
  <speed>0.01</speed>
  <fix>3d</fix>
</trkpt>
<trkpt lat="-35.2850534" lon="148.9860448">
  <ele>725.22</ele>
  <time>2026-09-01T20:00:25Z</time>
  <course>168.43</course>
  <speed>0.04242640687119285</speed>
  <fix>3d</fix>
</trkpt>
<trkpt lat="-35.2850537" lon="148.9860452">
  <ele>725.32</ele>
  <time>2026-09-01T20:00:25Z</time>
  <course>83.25</course>
  <speed>0.0</speed>
  <fix>3d</fix>
</trkpt>
<trkpt lat="-35.2850534" lon="148.9860448">
  <ele>725.22</ele>
  <time>2026-09-01T20:00:25Z</time>
  <course>168.43</course>
  <speed>0.05</speed>
  <fix>3d</fix>
</trkpt>
<trkpt lat="-35.2850537" lon="148.9860452">
  <ele>725.32</ele>
  <time>2026-09-01T20:00:25Z</time>
  <course>83.25</course>
  <speed>0.0</speed>
  <fix>3d</fix>
</trkpt>
<trkpt lat="-35.2850534" lon="148.9860448">
  <ele>725.22</ele>
  <time>2026-09-01T20:00:25Z</time>
  <course>168.43</course>
  <speed>0.05830951894845301</speed>
  <fix>3d</fix>
</trkpt>
<trkpt lat="-35.2850537" lon="148.9860453">
  <ele>725.32</ele>
  <time>2026-09-01T20:00:25Z</time>
  <course>359.13</course>
  <speed>0.01</speed>
  <fix>3d</fix>
</trkpt>
<trkpt lat="-35.2850534" lon="148.9860449">
  <ele>725.21</ele>
  <time>2026-09-01T20:00:25Z</time>
  <course>168.43</course>
  <speed>0.0670820393249937</speed>
  <fix>3d</fix>
</trkpt>
<trkpt lat="-35.2850537" lon="148.9860453">
  <ele>725.32</ele>
  <time>2026-09-01T20:00:25Z</time>
  <course>359.13</course>
  <speed>0.01</speed>
  <fix>3d</fix>
</trkpt>
<trkpt lat="-35.2850534" lon="148.9860449">
  <ele>725.21</ele>
  <time>2026-09-01T20:00:25Z</time>
  <course>168.43</course>
  <speed>0.07211102550927978</speed>
  <fix>3d</fix>
</trkpt>
<trkpt lat="-35.2850537" lon="148.9860452">
  <ele>725.32</ele>
  <time>2026-09-01T20:00:25Z</time>
  <course>349.72</course>
  <speed>0.03</speed>
  <fix>3d</fix>
</trkpt>
<trkpt lat="-35.2850534" lon="148.9860449">
  <ele>725.22</ele>
  <time>2026-09-01T20:00:25Z</time>
  <course>168.43</course>
  <speed>0.08062257748298549</speed>
  <fix>3d</fix>
</trkpt>
<trkpt lat="-35.2850537" lon="148.9860452">
  <ele>725.32</ele>
  <time>2026-09-01T20:00:25Z</time>
  <course>349.72</course>
  <speed>0.03</speed>
  <fix>3d</fix>
</trkpt>
<trkpt lat="-35.2850533" lon="148.9860449">
  <ele>725.21</ele>
  <time>2026-09-01T20:00:25Z</time>
  <course>168.43</course>
  <speed>0.08062257748298549</speed>
  <fix>3d</fix>
</trkpt>
<trkpt lat="-35.2850536" lon="148.9860452">
  <ele>725.32</ele>
  <time>2026-09-01T20:00:25Z</time>
  <course>346.78</course>
  <speed>0.04</speed>
  <fix>3d</fix>
</trkpt>
<trkpt lat="-35.2850533" lon="148.9860449">
  <ele>725.21</ele>
  <time>2026-09-01T20:00:25Z</time>
  <course>168.44</course>
  <speed>0.08944271909999159</speed>
  <fix>3d</fix>
</trkpt>
<trkpt lat="-35.2850536" lon="148.9860452">
  <ele>725.32</ele>
  <time>2026-09-01T20:00:25Z</time>
  <course>346.78</course>
  <speed>0.04</speed>
  <fix>3d</fix>
</trkpt>
<trkpt lat="-35.2850532" lon="148.9860449">
  <ele>725.21</ele>
  <time>2026-09-01T20:00:25Z</time>
  <course>168.44</course>
  <speed>0.08944271909999159</speed>
  <fix>3d</fix>
</trkpt>
<trkpt lat="-35.2850535" lon="148.9860452">
  <ele>725.32</ele>
  <time>2026-09-01T20:00:25Z</time>
  <course>345.74</course>
  <speed>0.05</speed>
  <fix>3d</fix>
</trkpt>
<trkpt lat="-35.2850532" lon="148.9860448">
  <ele>725.21</ele>
  <time>2026-09-01T20:00:25Z</time>
  <course>168.44</course>
  <speed>0.08944271909999159</speed>
  <fix>3d</fix>
</trkpt>
<trkpt lat="-35.2850535" lon="148.9860452">
  <ele>725.32</ele>
  <time>2026-09-01T20:00:25Z</time>
  <course>345.74</course>
  <speed>0.05</speed>
  <fix>3d</fix>
</trkpt>
<trkpt lat="-35.2850531" lon="148.9860448">
  <ele>725.21</ele>
  <time>2026-09-01T20:00:25Z</time>
  <course>168.44</course>
  <speed>0.09848857801796104</speed>
  <fix>3d</fix>
</trkpt>
<trkpt lat="-35.2850534" lon="148.9860452">
  <ele>725.31</ele>
  <time>2026-09-01T20:00:25Z</time>
  <course>345.5</course>
  <speed>0.06</speed>
  <fix>3d</fix>
</trkpt>
<trkpt lat="-35.285053" lon="148.9860448">
  <ele>725.2</ele>
  <time>2026-09-01T20:00:25Z</time>
  <course>168.45</course>
  <speed>0.09848857801796104</speed>
  <fix>3d</fix>
</trkpt>
<trkpt lat="-35.2850534" lon="148.9860452">
  <ele>725.31</ele>
  <time>2026-09-01T20:00:25Z</time>
  <course>345.5</course>
  <speed>0.06</speed>
  <fix>3d</fix>
</trkpt>
<trkpt lat="-35.285053" lon="148.9860448">
  <ele>725.2</ele>
  <time>2026-09-01T20:00:25Z</time>
  <course>168.45</course>
  <speed>0.09848857801796104</speed>
  <fix>3d</fix>
</trkpt>
<trkpt lat="-35.2850533" lon="148.9860452">
  <ele>725.31</ele>
  <time>2026-09-01T20:00:25Z</time>
  <course>345.8</course>
  <speed>0.07</speed>
  <fix>3d</fix>
</trkpt>
<trkpt lat="-35.2850529" lon="148.9860448">
  <ele>725.2</ele>
  <time>2026-09-01T20:00:25Z</time>
  <course>168.45</course>
  <speed>0.09848857801796104</speed>
  <fix>3d</fix>
</trkpt>
<trkpt lat="-35.2850533" lon="148.9860452">
  <ele>725.31</ele>
  <time>2026-09-01T20:00:25Z</time>
  <course>345.8</course>
  <speed>0.07</speed>
  <fix>3d</fix>
</trkpt>
<trkpt lat="-35.2850529" lon="148.9860448">
  <ele>725.2</ele>
  <time>2026-09-01T20:00:25Z</time>
  <course>168.44</course>
  <speed>0.09848857801796104</speed>
  <fix>3d</fix>
</trkpt>
<trkpt lat="-35.2850532" lon="148.9860452">
  <ele>725.31</ele>
  <time>2026-09-01T20:00:25Z</time>
  <course>345.96</course>
  <speed>0.07</speed>
  <fix>3d</fix>
</trkpt>
<trkpt lat="-35.2850528" lon="148.9860447">
  <ele>725.2</ele>
  <time>2026-09-01T20:00:25Z</time>
  <course>168.43</course>
  <speed>0.09848857801796104</speed>
  <fix>3d</fix>
</trkpt>
<trkpt lat="-35.2850532" lon="148.9860452">
  <ele>725.31</ele>
  <time>2026-09-01T20:00:25Z</time>
  <course>345.96</course>
  <speed>0.07</speed>
  <fix>3d</fix>
</trkpt>
<trkpt lat="-35.2850527" lon="148.9860447">
  <ele>725.2</ele>
  <time>2026-09-01T20:00:25Z</time>
  <course>168.43</course>
  <speed>0.10295630140987001</speed>
  <fix>3d</fix>
</trkpt>
<trkpt lat="-35.285053" lon="148.9860451">
  <ele>725.31</ele>
  <time>2026-09-01T20:00:25Z</time>
  <course>345.27</course>
  <speed>0.08</speed>
  <fix>3d</fix>
</trkpt>
<trkpt lat="-35.2850527" lon="148.9860447">
  <ele>725.2</ele>
  <time>2026-09-01T20:00:25Z</time>
  <course>168.43</course>
  <speed>0.10295630140987001</speed>
  <fix>3d</fix>
</trkpt>
<trkpt lat="-35.285053" lon="148.9860451">
  <ele>725.31</ele>
  <time>2026-09-01T20:00:25Z</time>
  <course>345.27</course>
  <speed>0.08</speed>
  <fix>3d</fix>
</trkpt>
<trkpt lat="-35.2850526" lon="148.9860447">
  <ele>725.21</ele>
  <time>2026-09-01T20:00:25Z</time>
  <course>168.43</course>
  <speed>0.10295630140987001</speed>
  <fix>3d</fix>
</trkpt>
<trkpt lat="-35.2850528" lon="148.986045">
  <ele>725.31</ele>
  <time>2026-09-01T20:00:25Z</time>
  <course>344.12</course>
  <speed>0.08</speed>
  <fix>3d</fix>
</trkpt>
<trkpt lat="-35.2850525" lon="148.9860447">
  <ele>725.21</ele>
  <time>2026-09-01T20:00:25Z</time>
  <course>168.44</course>
  <speed>0.10295630140987001</speed>
  <fix>3d</fix>
</trkpt>
<trkpt lat="-35.2850528" lon="148.986045">
  <ele>725.31</ele>
  <time>2026-09-01T20:00:25Z</time>
  <course>344.12</course>
  <speed>0.08</speed>
  <fix>3d</fix>
</trkpt>
<trkpt lat="-35.2850525" lon="148.9860446">
  <ele>725.21</ele>
  <time>2026-09-01T20:00:25Z</time>
  <course>168.44</course>
  <speed>0.10295630140987001</speed>
  <fix>3d</fix>
</trkpt>
<trkpt lat="-35.2850527" lon="148.986045">
  <ele>725.31</ele>
  <time>2026-09-01T20:00:25Z</time>
  <course>343.15</course>
  <speed>0.08</speed>
  <fix>3d</fix>
</trkpt>
<trkpt lat="-35.2850524" lon="148.9860446">
  <ele>725.21</ele>
  <time>2026-09-01T20:00:25Z</time>
  <course>168.44</course>
  <speed>0.09433981132056603</speed>
  <fix>3d</fix>
</trkpt>
<trkpt lat="-35.2850527" lon="148.986045">
  <ele>725.31</ele>
  <time>2026-09-01T20:00:25Z</time>
  <course>343.15</course>
  <speed>0.08</speed>
  <fix>3d</fix>
</trkpt>
<trkpt lat="-35.2850524" lon="148.9860446">
  <ele>725.21</ele>
  <time>2026-09-01T20:00:25Z</time>
  <course>168.48</course>
  <speed>0.044721359549995794</speed>
  <fix>3d</fix>
</trkpt>
<trkpt lat="-35.2850526" lon="148.986045">
  <ele>725.31</ele>
  <time>2026-09-01T20:00:25Z</time>
  <course>341.91</course>
  <speed>0.07</speed>
  <fix>3d</fix>
</trkpt>
<trkpt lat="-35.2850524" lon="148.9860446">
  <ele>725.21</ele>
  <time>2026-09-01T20:00:25Z</time>
  <course>168.57</course>
  <speed>0.0824621125123532</speed>
  <fix>3d</fix>
</trkpt>
<trkpt lat="-35.2850526" lon="148.986045">
  <ele>725.31</ele>
  <time>2026-09-01T20:00:25Z</time>
  <course>341.91</course>
  <speed>0.07</speed>
  <fix>3d</fix>
</trkpt>
<trkpt lat="-35.2850525" lon="148.9860446">
  <ele>725.21</ele>
  <time>2026-09-01T20:00:25Z</time>
  <course>168.73</course>
  <speed>0.25</speed>
  <fix>3d</fix>
</trkpt>
<trkpt lat="-35.2850525" lon="148.9860449">
  <ele>725.31</ele>
  <time>2026-09-01T20:00:25Z</time>
  <course>219.31</course>
  <speed>0.01</speed>
  <fix>3d</fix>
</trkpt>
<trkpt lat="-35.2850528" lon="148.9860446">
  <ele>725.21</ele>
  <time>2026-09-01T20:00:25Z</time>
  <course>168.89</course>
  <speed>0.48166378315169184</speed>
  <fix>3d</fix>
</trkpt>
<trkpt lat="-35.2850525" lon="148.9860449">
  <ele>725.31</ele>
  <time>2026-09-01T20:00:25Z</time>
  <course>219.31</course>
  <speed>0.01</speed>
  <fix>3d</fix>
</trkpt>
<trkpt lat="-35.2850534" lon="148.9860447">
  <ele>725.21</ele>
  <time>2026-09-01T20:00:25Z</time>
  <course>169.05</course>
  <speed>0.7840918313565064</speed>
  <fix>3d</fix>
</trkpt>
<trkpt lat="-35.2850526" lon="148.9860449">
  <ele>725.31</ele>
  <time>2026-09-01T20:00:25Z</time>
  <course>172.38</course>
  <speed>0.29</speed>
  <fix>3d</fix>
</trkpt>
<trkpt lat="-35.2850543" lon="148.9860448">
  <ele>725.21</ele>
  <time>2026-09-01T20:00:25Z</time>
  <course>169.19</course>
  <speed>1.137453295744489</speed>
  <fix>3d</fix>
</trkpt>
<trkpt lat="-35.2850526" lon="148.9860449">
  <ele>725.31</ele>
  <time>2026-09-01T20:00:25Z</time>
  <course>172.38</course>
  <speed>0.29</speed>
  <fix>3d</fix>
</trkpt>
<trkpt lat="-35.2850555" lon="148.9860451">
  <ele>725.21</ele>
  <time>2026-09-01T20:00:25Z</time>
  <course>169.35</course>
  <speed>1.560416611036937</speed>
  <fix>3d</fix>
</trkpt>
<trkpt lat="-35.2850536" lon="148.9860451">
  <ele>725.31</ele>
  <time>2026-09-01T20:00:25Z</time>
  <course>171.56</course>
  <speed>0.81</speed>
  <fix>3d</fix>
</trkpt>
<trkpt lat="-35.2850571" lon="148.9860453">
  <ele>725.21</ele>
  <time>2026-09-01T20:00:25Z</time>
  <course>169.42</course>
  <speed>2.0540691322348428</speed>
  <fix>3d</fix>
</trkpt>
<trkpt lat="-35.2850536" lon="148.9860451">
  <ele>725.31</ele>
  <time>2026-09-01T20:00:25Z</time>
  <course>171.56</course>
  <speed>0.81</speed>
  <fix>3d</fix>
</trkpt>
<trkpt lat="-35.2850591" lon="148.9860457">
  <ele>725.21</ele>
  <time>2026-09-01T20:00:25Z</time>
  <course>169.59</course>
  <speed>2.5985572920372566</speed>
  <fix>3d</fix>
</trkpt>
<trkpt lat="-35.2850557" lon="148.9860454">
  <ele>725.31</ele>
  <time>2026-09-01T20:00:25Z</time>
  <course>171.74</course>
  <speed>1.59</speed>
  <fix>3d</fix>
</trkpt>
<trkpt lat="-35.2850617" lon="148.9860461">
  <ele>725.21</ele>
  <time>2026-09-01T20:00:25Z</time>
  <course>169.88</course>
  <speed>3.1926947865400477</speed>
  <fix>3d</fix>
</trkpt>
<trkpt lat="-35.2850557" lon="148.9860454">
  <ele>725.31</ele>
  <time>2026-09-01T20:00:25Z</time>
  <course>171.74</course>
  <speed>1.59</speed>
  <fix>3d</fix>
</trkpt>
<trkpt lat="-35.2850648" lon="148.9860466">
  <ele>725.22</ele>
  <time>2026-09-01T20:00:25Z</time>
  <course>170.31</course>
  <speed>3.805522303179946</speed>
  <fix>3d</fix>
</trkpt>
<trkpt lat="-35.2850595" lon="148.9860461">
  <ele>725.31</ele>
  <time>2026-09-01T20:00:25Z</time>
  <course>172.02</course>
  <speed>2.62</speed>
  <fix>3d</fix>
</trkpt>
<trkpt lat="-35.2850686" lon="148.9860471">
  <ele>725.22</ele>
  <time>2026-09-01T20:00:25Z</time>
  <course>170.85</course>
  <speed>4.436045536285668</speed>
  <fix>3d</fix>
</trkpt>
<trkpt lat="-35.2850595" lon="148.9860461">
  <ele>725.31</ele>
  <time>2026-09-01T20:00:25Z</time>
  <course>172.02</course>
  <speed>2.62</speed>
  <fix>3d</fix>
</trkpt>
<trkpt lat="-35.2850728" lon="148.9860477">
  <ele>725.23</ele>
  <time>2026-09-01T20:00:25Z</time>
  <course>171.38</course>
  <speed>5.034888280786377</speed>
  <fix>3d</fix>
</trkpt>
<trkpt lat="-35.2850652" lon="148.986047">
  <ele>725.31</ele>
  <time>2026-09-01T20:00:25Z</time>
  <course>172.57</course>
  <speed>3.81</speed>
  <fix>3d</fix>
</trkpt>
<trkpt lat="-35.2850775" lon="148.9860483">
  <ele>725.23</ele>
  <time>2026-09-01T20:00:25Z</time>
  <course>172.11</course>
  <speed>5.6521588795786695</speed>
  <fix>3d</fix>
</trkpt>
<trkpt lat="-35.2850652" lon="148.986047">
  <ele>725.31</ele>
  <time>2026-09-01T20:00:25Z</time>
  <course>172.57</course>
  <speed>3.81</speed>
  <fix>3d</fix>
</trkpt>
<trkpt lat="-35.2850828" lon="148.9860489">
  <ele>725.24</ele>
  <time>2026-09-01T20:00:25Z</time>
  <course>172.84</course>
  <speed>6.257675287197316</speed>
  <fix>3d</fix>
</trkpt>
<trkpt lat="-35.2850731" lon="148.9860482">
  <ele>725.32</ele>
  <time>2026-09-01T20:00:25Z</time>
  <course>173.55</course>
  <speed>5.03</speed>
  <fix>3d</fix>
</trkpt>
<trkpt lat="-35.2850887" lon="148.9860494">
  <ele>725.25</ele>
  <time>2026-09-01T20:00:25Z</time>
  <course>173.77</course>
  <speed>6.8734634646588475</speed>
  <fix>3d</fix>
</trkpt>
<trkpt lat="-35.2850731" lon="148.9860482">
  <ele>725.32</ele>
  <time>2026-09-01T20:00:25Z</time>
  <course>173.55</course>
  <speed>5.03</speed>
  <fix>3d</fix>
</trkpt>
<trkpt lat="-35.2850951" lon="148.9860499">
  <ele>725.25</ele>
  <time>2026-09-01T20:00:25Z</time>
  <course>174.78</course>
  <speed>7.488184025516468</speed>
  <fix>3d</fix>
</trkpt>
<trkpt lat="-35.2850832" lon="148.9860494">
  <ele>725.33</ele>
  <time>2026-09-01T20:00:25Z</time>
  <course>174.92</course>
  <speed>6.26</speed>
  <fix>3d</fix>
</trkpt>
<trkpt lat="-35.2851021" lon="148.9860503">
  <ele>725.26</ele>
  <time>2026-09-01T20:00:25Z</time>
  <course>176.01</course>
  <speed>8.093268808089844</speed>
  <fix>3d</fix>
</trkpt>
<trkpt lat="-35.2850832" lon="148.9860494">
  <ele>725.33</ele>
  <time>2026-09-01T20:00:25Z</time>
  <course>174.92</course>
  <speed>6.26</speed>
  <fix>3d</fix>
</trkpt>
<trkpt lat="-35.2851096" lon="148.9860506">
  <ele>725.26</ele>
  <time>2026-09-01T20:00:25Z</time>
  <course>177.38</course>
  <speed>8.700367808317072</speed>
  <fix>3d</fix>
</trkpt>
<trkpt lat="-35.2850955" lon="148.9860505">
  <ele>725.35</ele>
  <time>2026-09-01T20:00:25Z</time>
  <course>176.68</course>
  <speed>7.49</speed>
  <fix>3d</fix>
</trkpt>
<trkpt lat="-35.2851176" lon="148.9860506">
  <ele>725.27</ele>
  <time>2026-09-01T20:00:25Z</time>
  <course>178.8</course>
  <speed>9.300650514883353</speed>
  <fix>3d</fix>
</trkpt>
<trkpt lat="-35.2850955" lon="148.9860505">
  <ele>725.35</ele>
  <time>2026-09-01T20:00:25Z</time>
  <course>176.68</course>
  <speed>7.49</speed>
  <fix>3d</fix>
</trkpt>
<trkpt lat="-35.2851262" lon="148.9860505">
  <ele>725.27</ele>
  <time>2026-09-01T20:00:25Z</time>
  <course>180.22</course>
  <speed>9.895842561399206</speed>
  <fix>3d</fix>
</trkpt>
<trkpt lat="-35.28511" lon="148.9860512">
  <ele>725.36</ele>
  <time>2026-09-01T20:00:25Z</time>
  <course>178.86</course>
  <speed>8.71</speed>
  <fix>3d</fix>
</trkpt>
<trkpt lat="-35.2851353" lon="148.9860501">
  <ele>725.28</ele>
  <time>2026-09-01T20:00:25Z</time>
  <course>181.7</course>
  <speed>10.477771709671861</speed>
  <fix>3d</fix>
</trkpt>
<trkpt lat="-35.28511" lon="148.9860512">
  <ele>725.36</ele>
  <time>2026-09-01T20:00:25Z</time>
  <course>178.86</course>
  <speed>8.71</speed>
  <fix>3d</fix>
</trkpt>
<trkpt lat="-35.2851449" lon="148.9860494">
  <ele>725.29</ele>
  <time>2026-09-01T20:00:25Z</time>
  <course>183.19</course>
  <speed>11.038405681981432</speed>
  <fix>3d</fix>
</trkpt>
<trkpt lat="-35.2851268" lon="148.9860512">
  <ele>725.37</ele>
  <time>2026-09-01T20:00:25Z</time>
  <course>181.43</course>
  <speed>9.91</speed>
  <fix>3d</fix>
</trkpt>
<trkpt lat="-35.285155" lon="148.9860483">
  <ele>725.31</ele>
  <time>2026-09-01T20:00:25Z</time>
  <course>184.78</course>
  <speed>11.58870139403031</speed>
  <fix>3d</fix>
</trkpt>
<trkpt lat="-35.2851268" lon="148.9860512">
  <ele>725.37</ele>
  <time>2026-09-01T20:00:25Z</time>
  <course>181.43</course>
  <speed>9.91</speed>
  <fix>3d</fix>
</trkpt>
<trkpt lat="-35.2851656" lon="148.9860468">
  <ele>725.32</ele>
  <time>2026-09-01T20:00:25Z</time>
  <course>186.38</course>
  <speed>12.132720222604657</speed>
  <fix>3d</fix>
</trkpt>
<trkpt lat="-35.2851456" lon="148.98605">
  <ele>725.39</ele>
  <time>2026-09-01T20:00:25Z</time>
  <course>184.28</course>
  <speed>11.06</speed>
  <fix>3d</fix>
</trkpt>
<trkpt lat="-35.2851766" lon="148.9860448">
  <ele>725.35</ele>
  <time>2026-09-01T20:00:25Z</time>
  <course>187.99</course>
  <speed>12.657116575271004</speed>
  <fix>3d</fix>
</trkpt>
<trkpt lat="-35.2851456" lon="148.98605">
  <ele>725.39</ele>
  <time>2026-09-01T20:00:25Z</time>
  <course>184.28</course>
  <speed>11.06</speed>
  <fix>3d</fix>
</trkpt>
<trkpt lat="-35.285188" lon="148.9860425">
  <ele>725.38</ele>
  <time>2026-09-01T20:00:25Z</time>
  <course>189.61</course>
  <speed>13.16568646140413</speed>
  <fix>3d</fix>
</trkpt>
<trkpt lat="-35.2851663" lon="148.9860474">
  <ele>725.42</ele>
  <time>2026-09-01T20:00:25Z</time>
  <course>187.33</course>
  <speed>12.15</speed>
  <fix>3d</fix>
</trkpt>
<trkpt lat="-35.2851998" lon="148.9860396">
  <ele>725.42</ele>
  <time>2026-09-01T20:00:25Z</time>
  <course>191.11</course>
  <speed>13.66775036353825</speed>
  <fix>3d</fix>
</trkpt>
<trkpt lat="-35.2851663" lon="148.9860474">
  <ele>725.42</ele>
  <time>2026-09-01T20:00:25Z</time>
  <course>187.33</course>
  <speed>12.15</speed>
  <fix>3d</fix>
</trkpt>
<trkpt lat="-35.285212" lon="148.9860362">
  <ele>725.46</ele>
  <time>2026-09-01T20:00:25Z</time>
  <course>192.53</course>
  <speed>14.15441980442858</speed>
  <fix>3d</fix>
</trkpt>
<trkpt lat="-35.2851888" lon="148.9860431">
  <ele>725.47</ele>
  <time>2026-09-01T20:00:25Z</time>
  <course>190.43</course>
  <speed>13.19</speed>
  <fix>3d</fix>
</trkpt>
<trkpt lat="-35.2852245" lon="148.9860324">
  <ele>725.5</ele>
  <time>2026-09-01T20:00:25Z</time>
  <course>193.95</course>
  <speed>14.621453416127961</speed>
  <fix>3d</fix>
</trkpt>
<trkpt lat="-35.2851888" lon="148.9860431">
  <ele>725.47</ele>
  <time>2026-09-01T20:00:25Z</time>
  <course>190.43</course>
  <speed>13.19</speed>
  <fix>3d</fix>
</trkpt>
<trkpt lat="-35.2852374" lon="148.986028">
  <ele>725.55</ele>
  <time>2026-09-01T20:00:25Z</time>
  <course>195.35</course>
  <speed>15.07810332899997</speed>
  <fix>3d</fix>
</trkpt>
<trkpt lat="-35.285213" lon="148.9860369">
  <ele>725.55</ele>
  <time>2026-09-01T20:00:25Z</time>
  <course>193.48</course>
  <speed>14.18</speed>
  <fix>3d</fix>
</trkpt>
<trkpt lat="-35.2852505" lon="148.9860231">
  <ele>725.6</ele>
  <time>2026-09-01T20:00:25Z</time>
  <course>196.66</course>
  <speed>15.527073130503378</speed>
  <fix>3d</fix>
</trkpt>
<trkpt lat="-35.285213" lon="148.9860369">
  <ele>725.55</ele>
  <time>2026-09-01T20:00:25Z</time>
  <course>193.48</course>
  <speed>14.18</speed>
  <fix>3d</fix>
</trkpt>
<trkpt lat="-35.2852638" lon="148.9860177">
  <ele>725.65</ele>
  <time>2026-09-01T20:00:25Z</time>
  <course>197.88</course>
  <speed>15.96207066767968</speed>
  <fix>3d</fix>
</trkpt>
<trkpt lat="-35.2852384" lon="148.9860286">
  <ele>725.63</ele>
  <time>2026-09-01T20:00:25Z</time>
  <course>196.37</course>
  <speed>15.11</speed>
  <fix>3d</fix>
</trkpt>
<trkpt lat="-35.2852775" lon="148.9860117">
  <ele>725.7</ele>
  <time>2026-09-01T20:00:25Z</time>
  <course>199.15</course>
  <speed>16.38576211227296</speed>
  <fix>3d</fix>
</trkpt>
<trkpt lat="-35.2852384" lon="148.9860286">
  <ele>725.63</ele>
  <time>2026-09-01T20:00:25Z</time>
  <course>196.37</course>
  <speed>15.11</speed>
  <fix>3d</fix>
</trkpt>
<trkpt lat="-35.2852914" lon="148.9860053">
  <ele>725.74</ele>
  <time>2026-09-01T20:00:25Z</time>
  <course>200.29</course>
  <speed>16.757147728655973</speed>
  <fix>3d</fix>
</trkpt>
<trkpt lat="-35.2852649" lon="148.9860181">
  <ele>725.72</ele>
  <time>2026-09-01T20:00:25Z</time>
  <course>199.06</course>
  <speed>16.0</speed>
  <fix>3d</fix>
</trkpt>
<trkpt lat="-35.2853057" lon="148.9859982">
  <ele>725.79</ele>
  <time>2026-09-01T20:00:25Z</time>
  <course>201.45</course>
  <speed>17.094926147836965</speed>
  <fix>3d</fix>
</trkpt>
<trkpt lat="-35.2852649" lon="148.9860181">
  <ele>725.72</ele>
  <time>2026-09-01T20:00:25Z</time>
  <course>199.06</course>
  <speed>16.0</speed>
  <fix>3d</fix>
</trkpt>
<trkpt lat="-35.2853199" lon="148.9859907">
  <ele>725.83</ele>
  <time>2026-09-01T20:00:25Z</time>
  <course>202.58</course>
  <speed>17.384878486776948</speed>
  <fix>3d</fix>
</trkpt>
<trkpt lat="-35.2852926" lon="148.9860056">
  <ele>725.81</ele>
  <time>2026-09-01T20:00:25Z</time>
  <course>201.54</course>
  <speed>16.78</speed>
  <fix>3d</fix>
</trkpt>
<trkpt lat="-35.2853342" lon="148.9859827">
  <ele>725.87</ele>
  <time>2026-09-01T20:00:25Z</time>
  <course>203.8</course>
  <speed>17.63288121663615</speed>
  <fix>3d</fix>
</trkpt>
<trkpt lat="-35.2852926" lon="148.9860056">
  <ele>725.81</ele>
  <time>2026-09-01T20:00:25Z</time>
  <course>201.54</course>
  <speed>16.78</speed>
  <fix>3d</fix>
</trkpt>
<trkpt lat="-35.2853486" lon="148.9859743">
  <ele>725.91</ele>
  <time>2026-09-01T20:00:25Z</time>
  <course>205.11</course>
  <speed>17.861716042978625</speed>
  <fix>3d</fix>
</trkpt>
<trkpt lat="-35.2853209" lon="148.985991">
  <ele>725.89</ele>
  <time>2026-09-01T20:00:25Z</time>
  <course>203.95</course>
  <speed>17.41</speed>
  <fix>3d</fix>
</trkpt>
<trkpt lat="-35.285363" lon="148.9859653">
  <ele>725.95</ele>
  <time>2026-09-01T20:00:25Z</time>
  <course>206.43</course>
  <speed>18.054229421384896</speed>
  <fix>3d</fix>
</trkpt>
<trkpt lat="-35.2853209" lon="148.985991">
  <ele>725.89</ele>
  <time>2026-09-01T20:00:25Z</time>
  <course>203.95</course>
  <speed>17.41</speed>
  <fix>3d</fix>
</trkpt>
<trkpt lat="-35.2853774" lon="148.9859559">
  <ele>725.99</ele>
  <time>2026-09-01T20:00:25Z</time>
  <course>207.79</course>
  <speed>18.233992980145626</speed>
  <fix>3d</fix>
</trkpt>
<trkpt lat="-35.2853497" lon="148.9859745">
  <ele>725.97</ele>
  <time>2026-09-01T20:00:25Z</time>
  <course>206.43</course>
  <speed>17.89</speed>
  <fix>3d</fix>
</trkpt>
<trkpt lat="-35.2853917" lon="148.9859459">
  <ele>726.04</ele>
  <time>2026-09-01T20:00:25Z</time>
  <course>209.27</course>
  <speed>18.410923388032444</speed>
  <fix>3d</fix>
</trkpt>
<trkpt lat="-35.2853497" lon="148.9859745">
  <ele>725.97</ele>
  <time>2026-09-01T20:00:25Z</time>
  <course>206.43</course>
  <speed>17.89</speed>
  <fix>3d</fix>
</trkpt>
<trkpt lat="-35.285406" lon="148.9859354">
  <ele>726.09</ele>
  <time>2026-09-01T20:00:25Z</time>
  <course>210.77</course>
  <speed>18.59132324499792</speed>
  <fix>3d</fix>
</trkpt>
<trkpt lat="-35.2853785" lon="148.9859559">
  <ele>726.05</ele>
  <time>2026-09-01T20:00:25Z</time>
  <course>209.01</course>
  <speed>18.28</speed>
  <fix>3d</fix>
</trkpt>
<trkpt lat="-35.2854202" lon="148.9859244">
  <ele>726.14</ele>
  <time>2026-09-01T20:00:25Z</time>
  <course>212.41</course>
  <speed>18.75734789355894</speed>
  <fix>3d</fix>
</trkpt>
<trkpt lat="-35.2853785" lon="148.9859559">
  <ele>726.05</ele>
  <time>2026-09-01T20:00:25Z</time>
  <course>209.01</course>
  <speed>18.28</speed>
  <fix>3d</fix>
</trkpt>
<trkpt lat="-35.2854342" lon="148.9859128">
  <ele>726.19</ele>
  <time>2026-09-01T20:00:25Z</time>
  <course>214.18</course>
  <speed>18.921014771940747</speed>
  <fix>3d</fix>
</trkpt>
<trkpt lat="-35.2854071" lon="148.9859354">
  <ele>726.15</ele>
  <time>2026-09-01T20:00:25Z</time>
  <course>211.82</course>
  <speed>18.63</speed>
  <fix>3d</fix>
</trkpt>
<trkpt lat="-35.2854481" lon="148.9859005">
  <ele>726.25</ele>
  <time>2026-09-01T20:00:25Z</time>
  <course>216.01</course>
  <speed>19.08600010478885</speed>
  <fix>3d</fix>
</trkpt>
<trkpt lat="-35.2854071" lon="148.9859354">
  <ele>726.15</ele>
  <time>2026-09-01T20:00:25Z</time>
  <course>211.82</course>
  <speed>18.63</speed>
  <fix>3d</fix>
</trkpt>
<trkpt lat="-35.2854618" lon="148.9858877">
  <ele>726.31</ele>
  <time>2026-09-01T20:00:25Z</time>
  <course>217.87</course>
  <speed>19.24218542681678</speed>
  <fix>3d</fix>
</trkpt>
<trkpt lat="-35.2854353" lon="148.9859126">
  <ele>726.26</ele>
  <time>2026-09-01T20:00:25Z</time>
  <course>214.99</course>
  <speed>18.96</speed>
  <fix>3d</fix>
</trkpt>
<trkpt lat="-35.2854752" lon="148.9858741">
  <ele>726.37</ele>
  <time>2026-09-01T20:00:25Z</time>
  <course>219.85</course>
  <speed>19.400144329360028</speed>
  <fix>3d</fix>
</trkpt>
<trkpt lat="-35.2854353" lon="148.9859126">
  <ele>726.26</ele>
  <time>2026-09-01T20:00:25Z</time>
  <course>214.99</course>
  <speed>18.96</speed>
  <fix>3d</fix>
</trkpt>
<trkpt lat="-35.2854883" lon="148.9858599">
  <ele>726.44</ele>
  <time>2026-09-01T20:00:25Z</time>
  <course>221.96</course>
  <speed>19.558261681448073</speed>
  <fix>3d</fix>
</trkpt>
<trkpt lat="-35.2854628" lon="148.9858874">
  <ele>726.38</ele>
  <time>2026-09-01T20:00:25Z</time>
  <course>218.63</course>
  <speed>19.27</speed>
  <fix>3d</fix>
</trkpt>
<trkpt lat="-35.285501" lon="148.9858449">
  <ele>726.51</ele>
  <time>2026-09-01T20:00:25Z</time>
  <course>224.19</course>
  <speed>19.70709770615653</speed>
  <fix>3d</fix>
</trkpt>
<trkpt lat="-35.2854628" lon="148.9858874">
  <ele>726.38</ele>
  <time>2026-09-01T20:00:25Z</time>
  <course>218.63</course>
  <speed>19.27</speed>
  <fix>3d</fix>
</trkpt>
<trkpt lat="-35.2855133" lon="148.9858293">
  <ele>726.58</ele>
  <time>2026-09-01T20:00:25Z</time>
  <course>226.42</course>
  <speed>19.858952641063425</speed>
  <fix>3d</fix>
</trkpt>
<trkpt lat="-35.2854892" lon="148.9858595">
  <ele>726.5</ele>
  <time>2026-09-01T20:00:25Z</time>
  <course>222.74</course>
  <speed>19.58</speed>
  <fix>3d</fix>
</trkpt>
<trkpt lat="-35.2855251" lon="148.9858129">
  <ele>726.64</ele>
  <time>2026-09-01T20:00:25Z</time>
  <course>228.74</course>
  <speed>20.011301806729115</speed>
  <fix>3d</fix>
</trkpt>
<trkpt lat="-35.2854892" lon="148.9858595">
  <ele>726.5</ele>
  <time>2026-09-01T20:00:25Z</time>
  <course>222.74</course>
  <speed>19.58</speed>
  <fix>3d</fix>
</trkpt>
<trkpt lat="-35.2855365" lon="148.9857959">
  <ele>726.72</ele>
  <time>2026-09-01T20:00:25Z</time>
  <course>231.19</course>
  <speed>20.154029373800167</speed>
  <fix>3d</fix>
</trkpt>
<trkpt lat="-35.2855143" lon="148.9858289">
  <ele>726.62</ele>
  <time>2026-09-01T20:00:25Z</time>
  <course>227.28</course>
  <speed>19.87</speed>
  <fix>3d</fix>
</trkpt>
<trkpt lat="-35.2855472" lon="148.9857783">
  <ele>726.78</ele>
  <time>2026-09-01T20:00:25Z</time>
  <course>233.66</course>
  <speed>20.294930401457403</speed>
  <fix>3d</fix>
</trkpt>
<trkpt lat="-35.2855143" lon="148.9858289">
  <ele>726.62</ele>
  <time>2026-09-01T20:00:25Z</time>
  <course>227.28</course>
  <speed>19.87</speed>
  <fix>3d</fix>
</trkpt>
<trkpt lat="-35.2855574" lon="148.9857599">
  <ele>726.85</ele>
  <time>2026-09-01T20:00:25Z</time>
  <course>236.21</course>
  <speed>20.447322563113246</speed>
  <fix>3d</fix>
</trkpt>
<trkpt lat="-35.2855376" lon="148.9857953">
  <ele>726.76</ele>
  <time>2026-09-01T20:00:25Z</time>
  <course>232.16</course>
  <speed>20.17</speed>
  <fix>3d</fix>
</trkpt>
<trkpt lat="-35.285567" lon="148.9857407">
  <ele>726.92</ele>
  <time>2026-09-01T20:00:25Z</time>
  <course>238.82</course>
  <speed>20.589900436864674</speed>
  <fix>3d</fix>
</trkpt>
<trkpt lat="-35.2855376" lon="148.9857953">
  <ele>726.76</ele>
  <time>2026-09-01T20:00:25Z</time>
  <course>232.16</course>
  <speed>20.17</speed>
  <fix>3d</fix>
</trkpt>
<trkpt lat="-35.2855759" lon="148.9857209">
  <ele>726.99</ele>
  <time>2026-09-01T20:00:25Z</time>
  <course>241.46</course>
  <speed>20.74327842940937</speed>
  <fix>3d</fix>
</trkpt>
<trkpt lat="-35.2855586" lon="148.9857587">
  <ele>726.89</ele>
  <time>2026-09-01T20:00:25Z</time>
  <course>237.29</course>
  <speed>20.47</speed>
  <fix>3d</fix>
</trkpt>
<trkpt lat="-35.2855841" lon="148.9857003">
  <ele>727.05</ele>
  <time>2026-09-01T20:00:25Z</time>
  <course>244.14</course>
  <speed>20.89375504786059</speed>
  <fix>3d</fix>
</trkpt>
<trkpt lat="-35.2855586" lon="148.9857587">
  <ele>726.89</ele>
  <time>2026-09-01T20:00:25Z</time>
  <course>237.29</course>
  <speed>20.47</speed>
  <fix>3d</fix>
</trkpt>
<trkpt lat="-35.2855916" lon="148.9856792">
  <ele>727.11</ele>
  <time>2026-09-01T20:00:25Z</time>
  <course>246.77</course>
  <speed>21.055994395895908</speed>
  <fix>3d</fix>
</trkpt>
<trkpt lat="-35.2855772" lon="148.9857195">
  <ele>727.02</ele>
  <time>2026-09-01T20:00:25Z</time>
  <course>242.61</course>
  <speed>20.77</speed>
  <fix>3d</fix>
</trkpt>
<trkpt lat="-35.2855983" lon="148.9856575">
  <ele>727.16</ele>
  <time>2026-09-01T20:00:25Z</time>
  <course>249.5</course>
  <speed>21.201132045247018</speed>
  <fix>3d</fix>
</trkpt>
<trkpt lat="-35.2855772" lon="148.9857195">
  <ele>727.02</ele>
  <time>2026-09-01T20:00:25Z</time>
  <course>242.61</course>
  <speed>20.77</speed>
  <fix>3d</fix>
</trkpt>
<trkpt lat="-35.2856041" lon="148.9856354">
  <ele>727.22</ele>
  <time>2026-09-01T20:00:25Z</time>
  <course>252.22</course>
  <speed>21.35041217400732</speed>
  <fix>3d</fix>
</trkpt>
<trkpt lat="-35.2855929" lon="148.9856777">
  <ele>727.14</ele>
  <time>2026-09-01T20:00:25Z</time>
  <course>248.05</course>
  <speed>21.07</speed>
  <fix>3d</fix>
</trkpt>
<trkpt lat="-35.2856091" lon="148.9856127">
  <ele>727.26</ele>
  <time>2026-09-01T20:00:25Z</time>
  <course>254.93</course>
  <speed>21.508828419976762</speed>
  <fix>3d</fix>
</trkpt>
<trkpt lat="-35.2855929" lon="148.9856777">
  <ele>727.14</ele>
  <time>2026-09-01T20:00:25Z</time>
  <course>248.05</course>
  <speed>21.07</speed>
  <fix>3d</fix>
</trkpt>
<trkpt lat="-35.2856134" lon="148.9855894">
  <ele>727.31</ele>
  <time>2026-09-01T20:00:25Z</time>
  <course>257.62</course>
  <speed>21.65214539023789</speed>
  <fix>3d</fix>
</trkpt>
<trkpt lat="-35.2856054" lon="148.9856335">
  <ele>727.25</ele>
  <time>2026-09-01T20:00:25Z</time>
  <course>253.57</course>
  <speed>21.38</speed>
  <fix>3d</fix>
</trkpt>
<trkpt lat="-35.2856166" lon="148.9855659">
  <ele>727.34</ele>
  <time>2026-09-01T20:00:25Z</time>
  <course>260.34</course>
  <speed>21.802974567705206</speed>
  <fix>3d</fix>
</trkpt>
<trkpt lat="-35.2856054" lon="148.9856335">
  <ele>727.25</ele>
  <time>2026-09-01T20:00:25Z</time>
  <course>253.57</course>
  <speed>21.38</speed>
  <fix>3d</fix>
</trkpt>
<trkpt lat="-35.285619" lon="148.9855421">
  <ele>727.37</ele>
  <time>2026-09-01T20:00:25Z</time>
  <course>263.1</course>
  <speed>21.952214011347465</speed>
  <fix>3d</fix>
</trkpt>
<trkpt lat="-35.2856146" lon="148.9855873">
  <ele>727.33</ele>
  <time>2026-09-01T20:00:25Z</time>
  <course>259.1</course>
  <speed>21.68</speed>
  <fix>3d</fix>
</trkpt>
<trkpt lat="-35.2856204" lon="148.985518">
  <ele>727.4</ele>
  <time>2026-09-01T20:00:25Z</time>
  <course>265.88</course>
  <speed>22.10085971178497</speed>
  <fix>3d</fix>
</trkpt>
<trkpt lat="-35.2856146" lon="148.9855873">
  <ele>727.33</ele>
  <time>2026-09-01T20:00:25Z</time>
  <course>259.1</course>
  <speed>21.68</speed>
  <fix>3d</fix>
</trkpt>
<trkpt lat="-35.2856209" lon="148.9854937">
  <ele>727.42</ele>
  <time>2026-09-01T20:00:25Z</time>
  <course>268.64</course>
  <speed>22.250224717966333</speed>
  <fix>3d</fix>
</trkpt>
<trkpt lat="-35.28562" lon="148.9855397">
  <ele>727.4</ele>
  <time>2026-09-01T20:00:25Z</time>
  <course>264.64</course>
  <speed>21.98</speed>
  <fix>3d</fix>
</trkpt>
<trkpt lat="-35.2856204" lon="148.9854692">
  <ele>727.43</ele>
  <time>2026-09-01T20:00:25Z</time>
  <course>271.39</course>
  <speed>22.391114309028925</speed>
  <fix>3d</fix>
</trkpt>
<trkpt lat="-35.28562" lon="148.9855397">
  <ele>727.4</ele>
  <time>2026-09-01T20:00:25Z</time>
  <course>264.64</course>
  <speed>21.98</speed>
  <fix>3d</fix>
</trkpt>
<trkpt lat="-35.285619" lon="148.9854447">
  <ele>727.43</ele>
  <time>2026-09-01T20:00:25Z</time>
  <course>274.16</course>
  <speed>22.53563400483776</speed>
  <fix>3d</fix>
</trkpt>
<trkpt lat="-35.2856218" lon="148.9854911">
  <ele>727.44</ele>
  <time>2026-09-01T20:00:25Z</time>
  <course>270.19</course>
  <speed>22.27</speed>
  <fix>3d</fix>
</trkpt>
<trkpt lat="-35.2856166" lon="148.98542">
  <ele>727.43</ele>
  <time>2026-09-01T20:00:25Z</time>
  <course>276.92</course>
  <speed>22.684730547220525</speed>
  <fix>3d</fix>
</trkpt>
<trkpt lat="-35.2856218" lon="148.9854911">
  <ele>727.44</ele>
  <time>2026-09-01T20:00:25Z</time>
  <course>270.19</course>
  <speed>22.27</speed>
  <fix>3d</fix>
</trkpt>
<trkpt lat="-35.2856131" lon="148.9853954">
  <ele>727.41</ele>
  <time>2026-09-01T20:00:25Z</time>
  <course>279.68</course>
  <speed>22.820100788559195</speed>
  <fix>3d</fix>
</trkpt>
<trkpt lat="-35.2856198" lon="148.9854419">
  <ele>727.45</ele>
  <time>2026-09-01T20:00:25Z</time>
  <course>275.76</course>
  <speed>22.56</speed>
  <fix>3d</fix>
</trkpt>
<trkpt lat="-35.2856087" lon="148.9853709">
  <ele>727.4</ele>
  <time>2026-09-01T20:00:25Z</time>
  <course>282.52</course>
  <speed>22.960934214443455</speed>
  <fix>3d</fix>
</trkpt>
<trkpt lat="-35.2856198" lon="148.9854419">
  <ele>727.45</ele>
  <time>2026-09-01T20:00:25Z</time>
  <course>275.76</course>
  <speed>22.56</speed>
  <fix>3d</fix>
</trkpt>
<trkpt lat="-35.2856033" lon="148.9853465">
  <ele>727.37</ele>
  <time>2026-09-01T20:00:25Z</time>
  <course>285.33</course>
  <speed>23.101205596245403</speed>
  <fix>3d</fix>
</trkpt>
<trkpt lat="-35.2856137" lon="148.9853925">
  <ele>727.43</ele>
  <time>2026-09-01T20:00:25Z</time>
  <course>281.37</course>
  <speed>22.85</speed>
  <fix>3d</fix>
</trkpt>
<trkpt lat="-35.2855968" lon="148.9853222">
  <ele>727.34</ele>
  <time>2026-09-01T20:00:25Z</time>
  <course>288.16</course>
  <speed>23.240303354302412</speed>
  <fix>3d</fix>
</trkpt>
<trkpt lat="-35.2856137" lon="148.9853925">
  <ele>727.43</ele>
  <time>2026-09-01T20:00:25Z</time>
  <course>281.37</course>
  <speed>22.85</speed>
  <fix>3d</fix>
</trkpt>
<trkpt lat="-35.2855894" lon="148.9852985">
  <ele>727.3</ele>
  <time>2026-09-01T20:00:25Z</time>
  <course>290.98</course>
  <speed>23.376163072668707</speed>
  <fix>3d</fix>
</trkpt>
<trkpt lat="-35.2856036" lon="148.9853435">
  <ele>727.39</ele>
  <time>2026-09-01T20:00:25Z</time>
  <course>287.01</course>
  <speed>23.13</speed>
  <fix>3d</fix>
</trkpt>
<trkpt lat="-35.2855809" lon="148.9852749">
  <ele>727.25</ele>
  <time>2026-09-01T20:00:25Z</time>
  <course>293.84</course>
  <speed>23.513938419584246</speed>
  <fix>3d</fix>
</trkpt>
<trkpt lat="-35.2856036" lon="148.9853435">
  <ele>727.39</ele>
  <time>2026-09-01T20:00:25Z</time>
  <course>287.01</course>
  <speed>23.13</speed>
  <fix>3d</fix>
</trkpt>
<trkpt lat="-35.2855714" lon="148.9852517">
  <ele>727.2</ele>
  <time>2026-09-01T20:00:25Z</time>
  <course>296.65</course>
  <speed>23.651505237510783</speed>
  <fix>3d</fix>
</trkpt>
<trkpt lat="-35.2855894" lon="148.9852954">
  <ele>727.32</ele>
  <time>2026-09-01T20:00:25Z</time>
  <course>292.69</course>
  <speed>23.4</speed>
  <fix>3d</fix>
</trkpt>
<trkpt lat="-35.2855609" lon="148.985229">
  <ele>727.15</ele>
  <time>2026-09-01T20:00:25Z</time>
  <course>299.52</course>
  <speed>23.785384167593342</speed>
  <fix>3d</fix>
</trkpt>
<trkpt lat="-35.2855894" lon="148.9852954">
  <ele>727.32</ele>
  <time>2026-09-01T20:00:25Z</time>
  <course>292.69</course>
  <speed>23.4</speed>
  <fix>3d</fix>
</trkpt>
<trkpt lat="-35.2855494" lon="148.9852067">
  <ele>727.09</ele>
  <time>2026-09-01T20:00:25Z</time>
  <course>302.44</course>
  <speed>23.913763819189985</speed>
  <fix>3d</fix>
</trkpt>
<trkpt lat="-35.2855711" lon="148.9852487">
  <ele>727.23</ele>
  <time>2026-09-01T20:00:25Z</time>
  <course>298.42</course>
  <speed>23.66</speed>
  <fix>3d</fix>
</trkpt>
<trkpt lat="-35.2855369" lon="148.9851851">
  <ele>727.02</ele>
  <time>2026-09-01T20:00:25Z</time>
  <course>305.32</course>
  <speed>24.042065219111272</speed>
  <fix>3d</fix>
</trkpt>
<trkpt lat="-35.2855711" lon="148.9852487">
  <ele>727.23</ele>
  <time>2026-09-01T20:00:25Z</time>
  <course>298.42</course>
  <speed>23.66</speed>
  <fix>3d</fix>
</trkpt>
<trkpt lat="-35.2855236" lon="148.9851643">
  <ele>726.95</ele>
  <time>2026-09-01T20:00:25Z</time>
  <course>308.16</course>
  <speed>24.166973331387613</speed>
  <fix>3d</fix>
</trkpt>
<trkpt lat="-35.2855489" lon="148.985204">
  <ele>727.11</ele>
  <time>2026-09-01T20:00:25Z</time>
  <course>304.16</course>
  <speed>23.92</speed>
  <fix>3d</fix>
</trkpt>
<trkpt lat="-35.2855093" lon="148.9851442">
  <ele>726.87</ele>
  <time>2026-09-01T20:00:25Z</time>
  <course>311.0</course>
  <speed>24.286951229003613</speed>
  <fix>3d</fix>
</trkpt>
<trkpt lat="-35.2855489" lon="148.985204">
  <ele>727.11</ele>
  <time>2026-09-01T20:00:25Z</time>
  <course>304.16</course>
  <speed>23.92</speed>
  <fix>3d</fix>
</trkpt>
<trkpt lat="-35.2854941" lon="148.9851249">
  <ele>726.79</ele>
  <time>2026-09-01T20:00:25Z</time>
  <course>313.74</course>
  <speed>24.396368582229613</speed>
  <fix>3d</fix>
</trkpt>
<trkpt lat="-35.2855228" lon="148.9851617">
  <ele>726.97</ele>
  <time>2026-09-01T20:00:25Z</time>
  <course>309.92</course>
  <speed>24.17</speed>
  <fix>3d</fix>
</trkpt>
<trkpt lat="-35.2854781" lon="148.9851065">
  <ele>726.71</ele>
  <time>2026-09-01T20:00:25Z</time>
  <course>316.46</course>
  <speed>24.515026004473256</speed>
  <fix>3d</fix>
</trkpt>
<trkpt lat="-35.2855228" lon="148.9851617">
  <ele>726.97</ele>
  <time>2026-09-01T20:00:25Z</time>
  <course>309.92</course>
  <speed>24.17</speed>
  <fix>3d</fix>
</trkpt>
<trkpt lat="-35.2854614" lon="148.985089">
  <ele>726.63</ele>
  <time>2026-09-01T20:00:25Z</time>
  <course>319.2</course>
  <speed>24.61944759737716</speed>
  <fix>3d</fix>
</trkpt>
<trkpt lat="-35.2854932" lon="148.9851224">
  <ele>726.82</ele>
  <time>2026-09-01T20:00:25Z</time>
  <course>315.63</course>
  <speed>24.41</speed>
  <fix>3d</fix>
</trkpt>
<trkpt lat="-35.2854439" lon="148.9850724">
  <ele>726.54</ele>
  <time>2026-09-01T20:00:25Z</time>
  <course>321.92</course>
  <speed>24.721700993256917</speed>
  <fix>3d</fix>
</trkpt>
<trkpt lat="-35.2854932" lon="148.9851224">
  <ele>726.82</ele>
  <time>2026-09-01T20:00:25Z</time>
  <course>315.63</course>
  <speed>24.41</speed>
  <fix>3d</fix>
</trkpt>
<trkpt lat="-35.2854257" lon="148.9850567">
  <ele>726.45</ele>
  <time>2026-09-01T20:00:25Z</time>
  <course>324.52</course>
  <speed>24.81463479481413</speed>
  <fix>3d</fix>
</trkpt>
<trkpt lat="-35.2854602" lon="148.9850866">
  <ele>726.66</ele>
  <time>2026-09-01T20:00:25Z</time>
  <course>321.18</course>
  <speed>24.63</speed>
  <fix>3d</fix>
</trkpt>
<trkpt lat="-35.2854068" lon="148.9850421">
  <ele>726.36</ele>
  <time>2026-09-01T20:00:25Z</time>
  <course>327.05</course>
  <speed>24.905039650640994</speed>
  <fix>3d</fix>
</trkpt>
<trkpt lat="-35.2854602" lon="148.9850866">
  <ele>726.66</ele>
  <time>2026-09-01T20:00:25Z</time>
  <course>321.18</course>
  <speed>24.63</speed>
  <fix>3d</fix>
</trkpt>
<trkpt lat="-35.2853874" lon="148.9850284">
  <ele>726.27</ele>
  <time>2026-09-01T20:00:25Z</time>
  <course>329.54</course>
  <speed>24.997937914956104</speed>
  <fix>3d</fix>
</trkpt>
<trkpt lat="-35.2854243" lon="148.9850546">
  <ele>726.49</ele>
  <time>2026-09-01T20:00:25Z</time>
  <course>326.57</course>
  <speed>24.82</speed>
  <fix>3d</fix>
</trkpt>
<trkpt lat="-35.2853674" lon="148.9850158">
  <ele>726.17</ele>
  <time>2026-09-01T20:00:25Z</time>
  <course>331.96</course>
  <speed>25.072638473044677</speed>
  <fix>3d</fix>
</trkpt>
<trkpt lat="-35.2854243" lon="148.9850546">
  <ele>726.49</ele>
  <time>2026-09-01T20:00:25Z</time>
  <course>326.57</course>
  <speed>24.82</speed>
  <fix>3d</fix>
</trkpt>
<trkpt lat="-35.2853468" lon="148.9850041">
  <ele>726.07</ele>
  <time>2026-09-01T20:00:25Z</time>
  <course>334.27</course>
  <speed>25.15204365454227</speed>
  <fix>3d</fix>
</trkpt>
<trkpt lat="-35.285386" lon="148.9850265">
  <ele>726.3</ele>
  <time>2026-09-01T20:00:25Z</time>
  <course>331.74</course>
  <speed>25.0</speed>
  <fix>3d</fix>
</trkpt>
<trkpt lat="-35.2853259" lon="148.9849935">
  <ele>725.97</ele>
  <time>2026-09-01T20:00:25Z</time>
  <course>336.49</course>
  <speed>25.2226584641667</speed>
  <fix>3d</fix>
</trkpt>
<trkpt lat="-35.285386" lon="148.9850265">
  <ele>726.3</ele>
  <time>2026-09-01T20:00:25Z</time>
  <course>331.74</course>
  <speed>25.0</speed>
  <fix>3d</fix>
</trkpt>
<trkpt lat="-35.2853047" lon="148.9849839">
  <ele>725.87</ele>
  <time>2026-09-01T20:00:25Z</time>
  <course>338.58</course>
  <speed>25.283522302084418</speed>
  <fix>3d</fix>
</trkpt>
<trkpt lat="-35.2853454" lon="148.9850025">
  <ele>726.11</ele>
  <time>2026-09-01T20:00:25Z</time>
  <course>336.61</course>
  <speed>25.17</speed>
  <fix>3d</fix>
</trkpt>
<trkpt lat="-35.285283" lon="148.9849753">
  <ele>725.76</ele>
  <time>2026-09-01T20:00:25Z</time>
  <course>340.62</course>
  <speed>25.3518677812898</speed>
  <fix>3d</fix>
</trkpt>
<trkpt lat="-35.2853454" lon="148.9850025">
  <ele>726.11</ele>
  <time>2026-09-01T20:00:25Z</time>
  <course>336.61</course>
  <speed>25.17</speed>
  <fix>3d</fix>
</trkpt>
<trkpt lat="-35.2852611" lon="148.9849676">
  <ele>725.66</ele>
  <time>2026-09-01T20:00:25Z</time>
  <course>342.56</course>
  <speed>25.410706404978196</speed>
  <fix>3d</fix>
</trkpt>
<trkpt lat="-35.2853031" lon="148.9849826">
  <ele>725.91</ele>
  <time>2026-09-01T20:00:25Z</time>
  <course>341.12</course>
  <speed>25.31</speed>
  <fix>3d</fix>
</trkpt>
<trkpt lat="-35.2852391" lon="148.9849608">
  <ele>725.55</ele>
  <time>2026-09-01T20:00:25Z</time>
  <course>344.35</course>
  <speed>25.460842484097025</speed>
  <fix>3d</fix>
</trkpt>
<trkpt lat="-35.2853031" lon="148.9849826">
  <ele>725.91</ele>
  <time>2026-09-01T20:00:26Z</time>
  <course>341.12</course>
  <speed>25.31</speed>
  <fix>3d</fix>
</trkpt>
<trkpt lat="-35.2852167" lon="148.9849549">
  <ele>725.43</ele>
  <time>2026-09-01T20:00:26Z</time>
  <course>346.26</course>
  <speed>25.520707278600252</speed>
  <fix>3d</fix>
</trkpt>
<trkpt lat="-35.2852594" lon="148.9849664">
  <ele>725.7</ele>
  <time>2026-09-01T20:00:26Z</time>
  <course>345.24</course>
  <speed>25.44</speed>
  <fix>3d</fix>
</trkpt>
<trkpt lat="-35.2851941" lon="148.9849499">
  <ele>725.32</ele>
  <time>2026-09-01T20:00:26Z</time>
  <course>348.3</course>
  <speed>25.56257029330188</speed>
  <fix>3d</fix>
</trkpt>
<trkpt lat="-35.2852594" lon="148.9849664">
  <ele>725.7</ele>
  <time>2026-09-01T20:00:26Z</time>
  <course>345.24</course>
  <speed>25.44</speed>
  <fix>3d</fix>
</trkpt>
<trkpt lat="-35.2851714" lon="148.9849458">
  <ele>725.22</ele>
  <time>2026-09-01T20:00:26Z</time>
  <course>349.99</course>
  <speed>25.596226284356838</speed>
  <fix>3d</fix>
</trkpt>
<trkpt lat="-35.2852148" lon="148.9849539">
  <ele>725.47</ele>
  <time>2026-09-01T20:00:26Z</time>
  <course>349.07</course>
  <speed>25.54</speed>
  <fix>3d</fix>
</trkpt>
<trkpt lat="-35.2851483" lon="148.9849424">
  <ele>725.13</ele>
  <time>2026-09-01T20:00:26Z</time>
  <course>351.36</course>
  <speed>25.627379889485386</speed>
  <fix>3d</fix>
</trkpt>
<trkpt lat="-35.2852148" lon="148.9849539">
  <ele>725.47</ele>
  <time>2026-09-01T20:00:26Z</time>
  <course>349.07</course>
  <speed>25.54</speed>
  <fix>3d</fix>
</trkpt>
<trkpt lat="-35.2851254" lon="148.9849398">
  <ele>725.03</ele>
  <time>2026-09-01T20:00:26Z</time>
  <course>352.65</course>
  <speed>25.655272362615836</speed>
  <fix>3d</fix>
</trkpt>
<trkpt lat="-35.2851694" lon="148.9849451">
  <ele>725.26</ele>
  <time>2026-09-01T20:00:26Z</time>
  <course>352.59</course>
  <speed>25.62</speed>
  <fix>3d</fix>
</trkpt>
<trkpt lat="-35.2851023" lon="148.9849377">
  <ele>724.93</ele>
  <time>2026-09-01T20:00:26Z</time>
  <course>353.79</course>
  <speed>25.689252616609927</speed>
  <fix>3d</fix>
</trkpt>
<trkpt lat="-35.2851694" lon="148.9849451">
  <ele>725.26</ele>
  <time>2026-09-01T20:00:26Z</time>
  <course>352.59</course>
  <speed>25.62</speed>
  <fix>3d</fix>
</trkpt>
<trkpt lat="-35.2850792" lon="148.9849362">
  <ele>724.82</ele>
  <time>2026-09-01T20:00:26Z</time>
  <course>354.79</course>
  <speed>25.725716705273737</speed>
  <fix>3d</fix>
</trkpt>
<trkpt lat="-35.2851236" lon="148.9849393">
  <ele>725.06</ele>
  <time>2026-09-01T20:00:26Z</time>
  <course>355.45</course>
  <speed>25.69</speed>
  <fix>3d</fix>
</trkpt>
<trkpt lat="-35.2850561" lon="148.9849351">
  <ele>724.7</ele>
  <time>2026-09-01T20:00:26Z</time>
  <course>355.8</course>
  <speed>25.76092001462681</speed>
  <fix>3d</fix>
</trkpt>
<trkpt lat="-35.2851236" lon="148.9849393">
  <ele>725.06</ele>
  <time>2026-09-01T20:00:26Z</time>
  <course>355.45</course>
  <speed>25.69</speed>
  <fix>3d</fix>
</trkpt>
<trkpt lat="-35.2850328" lon="148.9849345">
  <ele>724.56</ele>
  <time>2026-09-01T20:00:26Z</time>
  <course>356.76</course>
  <speed>25.79265399294923</speed>
  <fix>3d</fix>
</trkpt>
<trkpt lat="-35.2850774" lon="148.9849359">
  <ele>724.85</ele>
  <time>2026-09-01T20:00:26Z</time>
  <course>357.61</course>
  <speed>25.75</speed>
  <fix>3d</fix>
</trkpt>
<trkpt lat="-35.2850096" lon="148.9849343">
  <ele>724.42</ele>
  <time>2026-09-01T20:00:26Z</time>
  <course>357.67</course>
  <speed>25.84</speed>
  <fix>3d</fix>
</trkpt>
<trkpt lat="-35.2850774" lon="148.9849359">
  <ele>724.85</ele>
  <time>2026-09-01T20:00:26Z</time>
  <course>357.61</course>
  <speed>25.75</speed>
  <fix>3d</fix>
</trkpt>
<trkpt lat="-35.2849863" lon="148.9849345">
  <ele>724.26</ele>
  <time>2026-09-01T20:00:26Z</time>
  <course>358.52</course>
  <speed>25.882366584221003</speed>
  <fix>3d</fix>
</trkpt>
<trkpt lat="-35.2850309" lon="148.9849345">
  <ele>724.6</ele>
  <time>2026-09-01T20:00:26Z</time>
  <course>359.4</course>
  <speed>25.82</speed>
  <fix>3d</fix>
</trkpt>
<trkpt lat="-35.2849629" lon="148.9849351">
  <ele>724.1</ele>
  <time>2026-09-01T20:00:26Z</time>
  <course>359.33</course>
  <speed>25.928657890450094</speed>
  <fix>3d</fix>
</trkpt>
<trkpt lat="-35.2850309" lon="148.9849345">
  <ele>724.6</ele>
  <time>2026-09-01T20:00:26Z</time>
  <course>359.4</course>
  <speed>25.82</speed>
  <fix>3d</fix>
</trkpt>
<trkpt lat="-35.2849395" lon="148.984936">
  <ele>723.93</ele>
  <time>2026-09-01T20:00:26Z</time>
  <course>0.07</course>
  <speed>25.9877374929023</speed>
  <fix>3d</fix>
</trkpt>
<trkpt lat="-35.2849845" lon="148.9849346">
  <ele>724.31</ele>
  <time>2026-09-01T20:00:26Z</time>
  <course>0.98</course>
  <speed>25.9</speed>
  <fix>3d</fix>
</trkpt>
<trkpt lat="-35.2849161" lon="148.9849373">
  <ele>723.76</ele>
  <time>2026-09-01T20:00:26Z</time>
  <course>0.84</course>
  <speed>26.049529746235343</speed>
  <fix>3d</fix>
</trkpt>
<trkpt lat="-35.2849845" lon="148.9849346">
  <ele>724.31</ele>
  <time>2026-09-01T20:00:26Z</time>
  <course>0.98</course>
  <speed>25.9</speed>
  <fix>3d</fix>
</trkpt>
<trkpt lat="-35.2848926" lon="148.9849388">
  <ele>723.58</ele>
  <time>2026-09-01T20:00:26Z</time>
  <course>1.57</course>
  <speed>26.11427387464564</speed>
  <fix>3d</fix>
</trkpt>
<trkpt lat="-35.2849379" lon="148.9849362">
  <ele>723.99</ele>
  <time>2026-09-01T20:00:26Z</time>
  <course>2.35</course>
  <speed>26.0</speed>
  <fix>3d</fix>
</trkpt>
<trkpt lat="-35.2848691" lon="148.9849406">
  <ele>723.41</ele>
  <time>2026-09-01T20:00:26Z</time>
  <course>2.23</course>
  <speed>26.1692510401043</speed>
  <fix>3d</fix>
</trkpt>
<trkpt lat="-35.2849379" lon="148.9849362">
  <ele>723.99</ele>
  <time>2026-09-01T20:00:26Z</time>
  <course>2.35</course>
  <speed>26.0</speed>
  <fix>3d</fix>
</trkpt>
<trkpt lat="-35.2848456" lon="148.9849427">
  <ele>723.23</ele>
  <time>2026-09-01T20:00:26Z</time>
  <course>2.85</course>
  <speed>26.20490984529426</speed>
  <fix>3d</fix>
</trkpt>
<trkpt lat="-35.2848912" lon="148.9849391">
  <ele>723.66</ele>
  <time>2026-09-01T20:00:26Z</time>
  <course>3.53</course>
  <speed>26.12</speed>
  <fix>3d</fix>
</trkpt>
<trkpt lat="-35.2848221" lon="148.984945">
  <ele>723.05</ele>
  <time>2026-09-01T20:00:26Z</time>
  <course>3.42</course>
  <speed>26.19171815669984</speed>
  <fix>3d</fix>
</trkpt>
<trkpt lat="-35.2848912" lon="148.9849391">
  <ele>723.66</ele>
  <time>2026-09-01T20:00:26Z</time>
  <course>3.53</course>
  <speed>26.12</speed>
  <fix>3d</fix>
</trkpt>
<trkpt lat="-35.2847987" lon="148.9849476">
  <ele>722.88</ele>
  <time>2026-09-01T20:00:26Z</time>
  <course>3.96</course>
  <speed>26.128620323315964</speed>
  <fix>3d</fix>
</trkpt>
<trkpt lat="-35.2848443" lon="148.9849433">
  <ele>723.32</ele>
  <time>2026-09-01T20:00:26Z</time>
  <course>4.55</course>
  <speed>26.19</speed>
  <fix>3d</fix>
</trkpt>
<trkpt lat="-35.2847753" lon="148.9849504">
  <ele>722.71</ele>
  <time>2026-09-01T20:00:26Z</time>
  <course>4.47</course>
  <speed>26.03616139141867</speed>
  <fix>3d</fix>
</trkpt>
<trkpt lat="-35.2848443" lon="148.9849433">
  <ele>723.32</ele>
  <time>2026-09-01T20:00:26Z</time>
  <course>4.55</course>
  <speed>26.19</speed>
  <fix>3d</fix>
</trkpt>
<trkpt lat="-35.2847521" lon="148.9849534">
  <ele>722.55</ele>
  <time>2026-09-01T20:00:26Z</time>
  <course>4.89</course>
  <speed>25.941937090356223</speed>
  <fix>3d</fix>
</trkpt>
<trkpt lat="-35.2847975" lon="148.9849482">
  <ele>722.98</ele>
  <time>2026-09-01T20:00:26Z</time>
  <course>5.42</course>
  <speed>26.12</speed>
  <fix>3d</fix>
</trkpt>
<trkpt lat="-35.2847289" lon="148.9849565">
  <ele>722.38</ele>
  <time>2026-09-01T20:00:26Z</time>
  <course>5.25</course>
  <speed>25.867481516374955</speed>
  <fix>3d</fix>
</trkpt>
<trkpt lat="-35.2847975" lon="148.9849482">
  <ele>722.98</ele>
  <time>2026-09-01T20:00:26Z</time>
  <course>5.42</course>
  <speed>26.12</speed>
  <fix>3d</fix>
</trkpt>
<trkpt lat="-35.2847058" lon="148.9849598">
  <ele>722.21</ele>
  <time>2026-09-01T20:00:26Z</time>
  <course>5.53</course>
  <speed>25.8003585246407</speed>
  <fix>3d</fix>
</trkpt>
<trkpt lat="-35.284751" lon="148.984954">
  <ele>722.66</ele>
  <time>2026-09-01T20:00:26Z</time>
  <course>6.17</course>
  <speed>25.96</speed>
  <fix>3d</fix>
</trkpt>
<trkpt lat="-35.2846828" lon="148.9849631">
  <ele>722.04</ele>
  <time>2026-09-01T20:00:26Z</time>
  <course>5.77</course>
  <speed>25.74133057943975</speed>
  <fix>3d</fix>
</trkpt>
<trkpt lat="-35.284751" lon="148.984954">
  <ele>722.66</ele>
  <time>2026-09-01T20:00:26Z</time>
  <course>6.17</course>
  <speed>25.96</speed>
  <fix>3d</fix>
</trkpt>
<trkpt lat="-35.2846597" lon="148.9849666">
  <ele>721.85</ele>
  <time>2026-09-01T20:00:26Z</time>
  <course>6.08</course>
  <speed>25.701303468890448</speed>
  <fix>3d</fix>
</trkpt>
<trkpt lat="-35.2847048" lon="148.9849605">
  <ele>722.33</ele>
  <time>2026-09-01T20:00:26Z</time>
  <course>6.74</course>
  <speed>25.81</speed>
  <fix>3d</fix>
</trkpt>
<trkpt lat="-35.2846368" lon="148.9849702">
  <ele>721.66</ele>
  <time>2026-09-01T20:00:26Z</time>
  <course>6.37</course>
  <speed>25.67023373481434</speed>
  <fix>3d</fix>
</trkpt>
<trkpt lat="-35.2847048" lon="148.9849605">
  <ele>722.33</ele>
  <time>2026-09-01T20:00:26Z</time>
  <course>6.74</course>
  <speed>25.81</speed>
  <fix>3d</fix>
</trkpt>
<trkpt lat="-35.2846139" lon="148.9849738">
  <ele>721.46</ele>
  <time>2026-09-01T20:00:26Z</time>
  <course>6.58</course>
  <speed>25.64929823601418</speed>
  <fix>3d</fix>
</trkpt>
<trkpt lat="-35.2846588" lon="148.9849673">
  <ele>721.99</ele>
  <time>2026-09-01T20:00:26Z</time>
  <course>7.15</course>
  <speed>25.7</speed>
  <fix>3d</fix>
</trkpt>
<trkpt lat="-35.2845911" lon="148.9849775">
  <ele>721.24</ele>
  <time>2026-09-01T20:00:26Z</time>
  <course>6.71</course>
  <speed>25.635888905984906</speed>
  <fix>3d</fix>
</trkpt>
<trkpt lat="-35.2846588" lon="148.9849673">
  <ele>721.99</ele>
  <time>2026-09-01T20:00:26Z</time>
  <course>7.15</course>
  <speed>25.7</speed>
  <fix>3d</fix>
</trkpt>
<trkpt lat="-35.2845682" lon="148.9849812">
  <ele>721.02</ele>
  <time>2026-09-01T20:00:26Z</time>
  <course>6.87</course>
  <speed>25.65232543065053</speed>
  <fix>3d</fix>
</trkpt>
<trkpt lat="-35.2846131" lon="148.9849745">
  <ele>721.6</ele>
  <time>2026-09-01T20:00:26Z</time>
  <course>7.45</course>
  <speed>25.65</speed>
  <fix>3d</fix>
</trkpt>
<trkpt lat="-35.2845454" lon="148.984985">
  <ele>720.79</ele>
  <time>2026-09-01T20:00:26Z</time>
  <course>7.1</course>
  <speed>25.667522280111108</speed>
  <fix>3d</fix>
</trkpt>
<trkpt lat="-35.2846131" lon="148.9849745">
  <ele>721.6</ele>
  <time>2026-09-01T20:00:26Z</time>
  <course>7.45</course>
  <speed>25.65</speed>
  <fix>3d</fix>
</trkpt>
<trkpt lat="-35.2845225" lon="148.9849889">
  <ele>720.56</ele>
  <time>2026-09-01T20:00:26Z</time>
  <course>7.26</course>
  <speed>25.703939386794392</speed>
  <fix>3d</fix>
</trkpt>
<trkpt lat="-35.2845673" lon="148.984982">
  <ele>721.18</ele>
  <time>2026-09-01T20:00:26Z</time>
  <course>7.66</course>
  <speed>25.65</speed>
  <fix>3d</fix>
</trkpt>
<trkpt lat="-35.2844996" lon="148.9849928">
  <ele>720.33</ele>
  <time>2026-09-01T20:00:26Z</time>
  <course>7.42</course>
  <speed>25.74043705922648</speed>
  <fix>3d</fix>
</trkpt>
<trkpt lat="-35.2845673" lon="148.984982">
  <ele>721.18</ele>
  <time>2026-09-01T20:00:26Z</time>
  <course>7.66</course>
  <speed>25.65</speed>
  <fix>3d</fix>
</trkpt>
<trkpt lat="-35.2844767" lon="148.9849967">
  <ele>720.1</ele>
  <time>2026-09-01T20:00:26Z</time>
  <course>7.49</course>
  <speed>25.795445334399638</speed>
  <fix>3d</fix>
</trkpt>
<trkpt lat="-35.2845216" lon="148.9849896">
  <ele>720.73</ele>
  <time>2026-09-01T20:00:26Z</time>
  <course>7.84</course>
  <speed>25.71</speed>
  <fix>3d</fix>
</trkpt>
<trkpt lat="-35.2844537" lon="148.9850007">
  <ele>719.88</ele>
  <time>2026-09-01T20:00:26Z</time>
  <course>7.57</course>
  <speed>25.859011968750856</speed>
  <fix>3d</fix>
</trkpt>
<trkpt lat="-35.2845216" lon="148.9849896">
  <ele>720.73</ele>
  <time>2026-09-01T20:00:26Z</time>
  <course>7.84</course>
  <speed>25.71</speed>
  <fix>3d</fix>
</trkpt>
<trkpt lat="-35.2844306" lon="148.9850047">
  <ele>719.67</ele>
  <time>2026-09-01T20:00:26Z</time>
  <course>7.65</course>
  <speed>25.923990819316383</speed>
  <fix>3d</fix>
</trkpt>
<trkpt lat="-35.2844758" lon="148.9849974">
  <ele>720.29</ele>
  <time>2026-09-01T20:00:26Z</time>
  <course>7.98</course>
  <speed>25.8</speed>
  <fix>3d</fix>
</trkpt>
<trkpt lat="-35.2844076" lon="148.9850087">
  <ele>719.47</ele>
  <time>2026-09-01T20:00:26Z</time>
  <course>7.64</course>
  <speed>25.97770005216012</speed>
  <fix>3d</fix>
</trkpt>
<trkpt lat="-35.2844758" lon="148.9849974">
  <ele>720.29</ele>
  <time>2026-09-01T20:00:26Z</time>
  <course>7.98</course>
  <speed>25.8</speed>
  <fix>3d</fix>
</trkpt>
<trkpt lat="-35.2843844" lon="148.9850128">
  <ele>719.28</ele>
  <time>2026-09-01T20:00:26Z</time>
  <course>7.66</course>
  <speed>26.049817657711156</speed>
  <fix>3d</fix>
</trkpt>
<trkpt lat="-35.2844298" lon="148.9850054">
  <ele>719.86</ele>
  <time>2026-09-01T20:00:26Z</time>
  <course>8.08</course>
  <speed>25.92</speed>
  <fix>3d</fix>
</trkpt>
<trkpt lat="-35.2843612" lon="148.9850169">
  <ele>719.11</ele>
  <time>2026-09-01T20:00:26Z</time>
  <course>7.78</course>
  <speed>26.11062810427968</speed>
  <fix>3d</fix>
</trkpt>
<trkpt lat="-35.2844298" lon="148.9850054">
  <ele>719.86</ele>
  <time>2026-09-01T20:00:26Z</time>
  <course>8.08</course>
  <speed>25.92</speed>
  <fix>3d</fix>
</trkpt>
<trkpt lat="-35.284338" lon="148.985021">
  <ele>718.95</ele>
  <time>2026-09-01T20:00:26Z</time>
  <course>7.81</course>
  <speed>26.1728504370464</speed>
  <fix>3d</fix>
</trkpt>
<trkpt lat="-35.2843836" lon="148.9850135">
  <ele>719.48</ele>
  <time>2026-09-01T20:00:26Z</time>
  <course>8.13</course>
  <speed>26.04</speed>
  <fix>3d</fix>
</trkpt>
<trkpt lat="-35.2843147" lon="148.9850251">
  <ele>718.8</ele>
  <time>2026-09-01T20:00:26Z</time>
  <course>7.83</course>
  <speed>26.233661582020915</speed>
  <fix>3d</fix>
</trkpt>
<trkpt lat="-35.2843836" lon="148.9850135">
  <ele>719.48</ele>
  <time>2026-09-01T20:00:26Z</time>
  <course>8.13</course>
  <speed>26.04</speed>
  <fix>3d</fix>
</trkpt>
<trkpt lat="-35.2842913" lon="148.9850293">
  <ele>718.65</ele>
  <time>2026-09-01T20:00:26Z</time>
  <course>7.86</course>
  <speed>26.294472803233763</speed>
  <fix>3d</fix>
</trkpt>
<trkpt lat="-35.2843371" lon="148.9850216">
  <ele>719.15</ele>
  <time>2026-09-01T20:00:26Z</time>
  <course>8.15</course>
  <speed>26.17</speed>
  <fix>3d</fix>
</trkpt>
<trkpt lat="-35.2842679" lon="148.9850334">
  <ele>718.53</ele>
  <time>2026-09-01T20:00:26Z</time>
  <course>7.93</course>
  <speed>26.35528410015722</speed>
  <fix>3d</fix>
</trkpt>
<trkpt lat="-35.2843371" lon="148.9850216">
  <ele>719.15</ele>
  <time>2026-09-01T20:00:26Z</time>
  <course>8.15</course>
  <speed>26.17</speed>
  <fix>3d</fix>
</trkpt>
<trkpt lat="-35.2842445" lon="148.9850375">
  <ele>718.41</ele>
  <time>2026-09-01T20:00:26Z</time>
  <course>7.9</course>
  <speed>26.414681523728426</speed>
  <fix>3d</fix>
</trkpt>
<trkpt lat="-35.2842905" lon="148.9850298">
  <ele>718.86</ele>
  <time>2026-09-01T20:00:26Z</time>
  <course>8.14</course>
  <speed>26.3</speed>
  <fix>3d</fix>
</trkpt>
<trkpt lat="-35.284221" lon="148.9850417">
  <ele>718.31</ele>
  <time>2026-09-01T20:00:26Z</time>
  <course>7.83</course>
  <speed>26.465592757389736</speed>
  <fix>3d</fix>
</trkpt>
<trkpt lat="-35.2842905" lon="148.9850298">
  <ele>718.86</ele>
  <time>2026-09-01T20:00:26Z</time>
  <course>8.14</course>
  <speed>26.3</speed>
  <fix>3d</fix>
</trkpt>
<trkpt lat="-35.2841976" lon="148.9850458">
  <ele>718.21</ele>
  <time>2026-09-01T20:00:26Z</time>
  <course>7.84</course>
  <speed>26.515091928937377</speed>
  <fix>3d</fix>
</trkpt>
<trkpt lat="-35.2842436" lon="148.9850379">
  <ele>718.62</ele>
  <time>2026-09-01T20:00:26Z</time>
  <course>8.11</course>
  <speed>26.42</speed>
  <fix>3d</fix>
</trkpt>
<trkpt lat="-35.284174" lon="148.9850499">
  <ele>718.13</ele>
  <time>2026-09-01T20:00:26Z</time>
  <course>7.91</course>
  <speed>26.563186932294098</speed>
  <fix>3d</fix>
</trkpt>
<trkpt lat="-35.2842436" lon="148.9850379">
  <ele>718.62</ele>
  <time>2026-09-01T20:00:26Z</time>
  <course>8.11</course>
  <speed>26.42</speed>
  <fix>3d</fix>
</trkpt>
<trkpt lat="-35.2841503" lon="148.985054">
  <ele>718.05</ele>
  <time>2026-09-01T20:00:26Z</time>
  <course>7.84</course>
  <speed>26.60279120693917</speed>
  <fix>3d</fix>
</trkpt>
<trkpt lat="-35.2841966" lon="148.9850462">
  <ele>718.42</ele>
  <time>2026-09-01T20:00:26Z</time>
  <course>8.07</course>
  <speed>26.53</speed>
  <fix>3d</fix>
</trkpt>
<trkpt lat="-35.2841267" lon="148.9850582">
  <ele>717.99</ele>
  <time>2026-09-01T20:00:26Z</time>
  <course>7.83</course>
  <speed>26.652298212349343</speed>
  <fix>3d</fix>
</trkpt>
<trkpt lat="-35.2841966" lon="148.9850462">
  <ele>718.42</ele>
  <time>2026-09-01T20:00:26Z</time>
  <course>8.07</course>
  <speed>26.53</speed>
  <fix>3d</fix>
</trkpt>
<trkpt lat="-35.2841029" lon="148.9850623">
  <ele>717.93</ele>
  <time>2026-09-01T20:00:26Z</time>
  <course>7.81</course>
  <speed>26.691905139948332</speed>
  <fix>3d</fix>
</trkpt>
<trkpt lat="-35.2841492" lon="148.9850544">
  <ele>718.26</ele>
  <time>2026-09-01T20:00:26Z</time>
  <course>8.02</course>
  <speed>26.62</speed>
  <fix>3d</fix>
</trkpt>
<trkpt lat="-35.284079" lon="148.9850664">
  <ele>717.88</ele>
  <time>2026-09-01T20:00:26Z</time>
  <course>7.75</course>
  <speed>26.720217064986578</speed>
  <fix>3d</fix>
</trkpt>
<trkpt lat="-35.2841492" lon="148.9850544">
  <ele>718.26</ele>
  <time>2026-09-01T20:00:26Z</time>
  <course>8.02</course>
  <speed>26.62</speed>
  <fix>3d</fix>
</trkpt>
<trkpt lat="-35.284055" lon="148.9850705">
  <ele>717.83</ele>
  <time>2026-09-01T20:00:26Z</time>
  <course>7.68</course>
  <speed>26.758439790092396</speed>
  <fix>3d</fix>
</trkpt>
<trkpt lat="-35.2841016" lon="148.9850626">
  <ele>718.13</ele>
  <time>2026-09-01T20:00:26Z</time>
  <course>7.97</course>
  <speed>26.7</speed>
  <fix>3d</fix>
</trkpt>
<trkpt lat="-35.2840312" lon="148.9850746">
  <ele>717.8</ele>
  <time>2026-09-01T20:00:26Z</time>
  <course>7.66</course>
  <speed>26.775483188917434</speed>
  <fix>3d</fix>
</trkpt>
<trkpt lat="-35.2841016" lon="148.9850626">
  <ele>718.13</ele>
  <time>2026-09-01T20:00:26Z</time>
  <course>7.97</course>
  <speed>26.7</speed>
  <fix>3d</fix>
</trkpt>
<trkpt lat="-35.2840073" lon="148.9850787">
  <ele>717.78</ele>
  <time>2026-09-01T20:00:26Z</time>
  <course>7.63</course>
  <speed>26.803822488592928</speed>
  <fix>3d</fix>
</trkpt>
<trkpt lat="-35.2840541" lon="148.9850707">
  <ele>718.04</ele>
  <time>2026-09-01T20:00:26Z</time>
  <course>7.9</course>
  <speed>26.77</speed>
  <fix>3d</fix>
</trkpt>
<trkpt lat="-35.2839834" lon="148.9850827">
  <ele>717.76</ele>
  <time>2026-09-01T20:00:26Z</time>
  <course>7.59</course>
  <speed>26.822263140905918</speed>
  <fix>3d</fix>
</trkpt>
<trkpt lat="-35.2840541" lon="148.9850707">
  <ele>718.04</ele>
  <time>2026-09-01T20:00:26Z</time>
  <course>7.9</course>
  <speed>26.77</speed>
  <fix>3d</fix>
</trkpt>
<trkpt lat="-35.2839595" lon="148.9850867">
  <ele>717.75</ele>
  <time>2026-09-01T20:00:26Z</time>
  <course>7.51</course>
  <speed>26.83934798015779</speed>
  <fix>3d</fix>
</trkpt>
<trkpt lat="-35.2840064" lon="148.9850788">
  <ele>717.97</ele>
  <time>2026-09-01T20:00:26Z</time>
  <course>7.82</course>
  <speed>26.82</speed>
  <fix>3d</fix>
</trkpt>
<trkpt lat="-35.2839356" lon="148.9850907">
  <ele>717.74</ele>
  <time>2026-09-01T20:00:26Z</time>
  <course>7.47</course>
  <speed>26.856451738828046</speed>
  <fix>3d</fix>
</trkpt>
<trkpt lat="-35.2840064" lon="148.9850788">
  <ele>717.97</ele>
  <time>2026-09-01T20:00:26Z</time>
  <course>7.82</course>
  <speed>26.82</speed>
  <fix>3d</fix>
</trkpt>
<trkpt lat="-35.2839117" lon="148.9850947">
  <ele>717.74</ele>
  <time>2026-09-01T20:00:26Z</time>
  <course>7.42</course>
  <speed>26.863665051515216</speed>
  <fix>3d</fix>
</trkpt>
<trkpt lat="-35.2839587" lon="148.9850867">
  <ele>717.94</ele>
  <time>2026-09-01T20:00:26Z</time>
  <course>7.72</course>
  <speed>26.86</speed>
  <fix>3d</fix>
</trkpt>
<trkpt lat="-35.2838878" lon="148.9850986">
  <ele>717.73</ele>
  <time>2026-09-01T20:00:26Z</time>
  <course>7.48</course>
  <speed>26.870895035335167</speed>
  <fix>3d</fix>
</trkpt>
<trkpt lat="-35.2839587" lon="148.9850867">
  <ele>717.94</ele>
  <time>2026-09-01T20:00:26Z</time>
  <course>7.72</course>
  <speed>26.86</speed>
  <fix>3d</fix>
</trkpt>
<trkpt lat="-35.2838639" lon="148.9851025">
  <ele>717.73</ele>
  <time>2026-09-01T20:00:26Z</time>
  <course>7.47</course>
  <speed>26.87814167683473</speed>
  <fix>3d</fix>
</trkpt>
<trkpt lat="-35.2839108" lon="148.9850947">
  <ele>717.92</ele>
  <time>2026-09-01T20:00:26Z</time>
  <course>7.62</course>
  <speed>26.88</speed>
  <fix>3d</fix>
</trkpt>
<trkpt lat="-35.2838399" lon="148.9851064">
  <ele>717.73</ele>
  <time>2026-09-01T20:00:26Z</time>
  <course>7.4</course>
  <speed>26.885404962544268</speed>
  <fix>3d</fix>
</trkpt>
<trkpt lat="-35.2839108" lon="148.9850947">
  <ele>717.92</ele>
  <time>2026-09-01T20:00:26Z</time>
  <course>7.62</course>
  <speed>26.88</speed>
  <fix>3d</fix>
</trkpt>
<trkpt lat="-35.283816" lon="148.9851103">
  <ele>717.73</ele>
  <time>2026-09-01T20:00:26Z</time>
  <course>7.32</course>
  <speed>26.884086370936988</speed>
  <fix>3d</fix>
</trkpt>
<trkpt lat="-35.2838629" lon="148.9851024">
  <ele>717.91</ele>
  <time>2026-09-01T20:00:26Z</time>
  <course>7.53</course>
  <speed>26.9</speed>
  <fix>3d</fix>
</trkpt>
<trkpt lat="-35.283792" lon="148.9851141">
  <ele>717.73</ele>
  <time>2026-09-01T20:00:26Z</time>
  <course>7.26</course>
  <speed>26.891374081664182</speed>
  <fix>3d</fix>
</trkpt>
<trkpt lat="-35.2838629" lon="148.9851024">
  <ele>717.91</ele>
  <time>2026-09-01T20:00:26Z</time>
  <course>7.53</course>
  <speed>26.9</speed>
  <fix>3d</fix>
</trkpt>
<trkpt lat="-35.283768" lon="148.985118">
  <ele>717.73</ele>
  <time>2026-09-01T20:00:26Z</time>
  <course>7.2</course>
  <speed>26.888763452416327</speed>
  <fix>3d</fix>
</trkpt>
<trkpt lat="-35.283815" lon="148.9851102">
  <ele>717.91</ele>
  <time>2026-09-01T20:00:26Z</time>
  <course>7.45</course>
  <speed>26.9</speed>
  <fix>3d</fix>
</trkpt>
<trkpt lat="-35.2837441" lon="148.9851218">
  <ele>717.73</ele>
  <time>2026-09-01T20:00:26Z</time>
  <course>7.13</course>
  <speed>26.88616744722089</speed>
  <fix>3d</fix>
</trkpt>
<trkpt lat="-35.283815" lon="148.9851102">
  <ele>717.91</ele>
  <time>2026-09-01T20:00:26Z</time>
  <course>7.45</course>
  <speed>26.9</speed>
  <fix>3d</fix>
</trkpt>
<trkpt lat="-35.2837201" lon="148.9851256">
  <ele>717.74</ele>
  <time>2026-09-01T20:00:26Z</time>
  <course>7.14</course>
  <speed>26.88487492996759</speed>
  <fix>3d</fix>
</trkpt>
<trkpt lat="-35.2837671" lon="148.9851178">
  <ele>717.9</ele>
  <time>2026-09-01T20:00:26Z</time>
  <course>7.37</course>
  <speed>26.91</speed>
  <fix>3d</fix>
</trkpt>
<trkpt lat="-35.2836964" lon="148.9851293">
  <ele>717.74</ele>
  <time>2026-09-01T20:00:26Z</time>
  <course>7.12</course>
  <speed>26.872383593570557</speed>
  <fix>3d</fix>
</trkpt>
<trkpt lat="-35.2837671" lon="148.9851178">
  <ele>717.9</ele>
  <time>2026-09-01T20:00:26Z</time>
  <course>7.37</course>
  <speed>26.91</speed>
  <fix>3d</fix>
</trkpt>
<trkpt lat="-35.2836724" lon="148.9851331">
  <ele>717.73</ele>
  <time>2026-09-01T20:00:26Z</time>
  <course>7.08</course>
  <speed>26.871101577717276</speed>
  <fix>3d</fix>
</trkpt>
<trkpt lat="-35.2837191" lon="148.9851254">
  <ele>717.9</ele>
  <time>2026-09-01T20:00:26Z</time>
  <course>7.3</course>
  <speed>26.9</speed>
  <fix>3d</fix>
</trkpt>
<trkpt lat="-35.2836485" lon="148.9851368">
  <ele>717.73</ele>
  <time>2026-09-01T20:00:26Z</time>
  <course>7.06</course>
  <speed>26.85990506312336</speed>
  <fix>3d</fix>
</trkpt>
<trkpt lat="-35.2837191" lon="148.9851254">
  <ele>717.9</ele>
  <time>2026-09-01T20:00:26Z</time>
  <course>7.3</course>
  <speed>26.9</speed>
  <fix>3d</fix>
</trkpt>
<trkpt lat="-35.2836245" lon="148.9851405">
  <ele>717.72</ele>
  <time>2026-09-01T20:00:26Z</time>
  <course>7.02</course>
  <speed>26.847439356482397</speed>
  <fix>3d</fix>
</trkpt>
<trkpt lat="-35.2836712" lon="148.9851329">
  <ele>717.89</ele>
  <time>2026-09-01T20:00:26Z</time>
  <course>7.24</course>
  <speed>26.89</speed>
  <fix>3d</fix>
</trkpt>
<trkpt lat="-35.2836004" lon="148.9851443">
  <ele>717.7</ele>
  <time>2026-09-01T20:00:26Z</time>
  <course>6.96</course>
  <speed>26.83625160114579</speed>
  <fix>3d</fix>
</trkpt>
<trkpt lat="-35.2836712" lon="148.9851329">
  <ele>717.89</ele>
  <time>2026-09-01T20:00:26Z</time>
  <course>7.24</course>
  <speed>26.89</speed>
  <fix>3d</fix>
</trkpt>
<trkpt lat="-35.2835765" lon="148.9851479">
  <ele>717.69</ele>
  <time>2026-09-01T20:00:26Z</time>
  <course>6.91</course>
  <speed>26.833725048900682</speed>
  <fix>3d</fix>
</trkpt>
<trkpt lat="-35.2836232" lon="148.9851403">
  <ele>717.87</ele>
  <time>2026-09-01T20:00:26Z</time>
  <course>7.18</course>
  <speed>26.87</speed>
  <fix>3d</fix>
</trkpt>
<trkpt lat="-35.2835525" lon="148.9851516">
  <ele>717.66</ele>
  <time>2026-09-01T20:00:26Z</time>
  <course>6.84</course>
  <speed>26.82129191519305</speed>
  <fix>3d</fix>
</trkpt>
<trkpt lat="-35.2836232" lon="148.9851403">
  <ele>717.87</ele>
  <time>2026-09-01T20:00:26Z</time>
  <course>7.18</course>
  <speed>26.87</speed>
  <fix>3d</fix>
</trkpt>
<trkpt lat="-35.2835278" lon="148.9851553">
  <ele>717.64</ele>
  <time>2026-09-01T20:00:26Z</time>
  <course>6.83</course>
  <speed>26.808871665924325</speed>
  <fix>3d</fix>
</trkpt>
<trkpt lat="-35.2835752" lon="148.9851477">
  <ele>717.83</ele>
  <time>2026-09-01T20:00:26Z</time>
  <course>7.12</course>
  <speed>26.85</speed>
  <fix>3d</fix>
</trkpt>
<trkpt lat="-35.2835039" lon="148.985159">
  <ele>717.61</ele>
  <time>2026-09-01T20:00:26Z</time>
  <course>6.85</course>
  <speed>26.796464319010447</speed>
  <fix>3d</fix>
</trkpt>
<trkpt lat="-35.2835752" lon="148.9851477">
  <ele>717.83</ele>
  <time>2026-09-01T20:00:26Z</time>
  <course>7.12</course>
  <speed>26.85</speed>
  <fix>3d</fix>
</trkpt>
<trkpt lat="-35.2834802" lon="148.9851625">
  <ele>717.58</ele>
  <time>2026-09-01T20:00:26Z</time>
  <course>6.88</course>
  <speed>26.795227186945066</speed>
  <fix>3d</fix>
</trkpt>
<trkpt lat="-35.2835275" lon="148.985155">
  <ele>717.78</ele>
  <time>2026-09-01T20:00:26Z</time>
  <course>7.05</course>
  <speed>26.83</speed>
  <fix>3d</fix>
</trkpt>
<trkpt lat="-35.2834563" lon="148.9851661">
  <ele>717.54</ele>
  <time>2026-09-01T20:00:26Z</time>
  <course>6.85</course>
  <speed>26.784069892381925</speed>
  <fix>3d</fix>
</trkpt>
<trkpt lat="-35.2835275" lon="148.985155">
  <ele>717.78</ele>
  <time>2026-09-01T20:00:26Z</time>
  <course>7.05</course>
  <speed>26.83</speed>
  <fix>3d</fix>
</trkpt>
<trkpt lat="-35.2834324" lon="148.9851697">
  <ele>717.5</ele>
  <time>2026-09-01T20:00:26Z</time>
  <course>6.78</course>
  <speed>26.77291541838505</speed>
  <fix>3d</fix>
</trkpt>
<trkpt lat="-35.2834797" lon="148.9851623">
  <ele>717.72</ele>
  <time>2026-09-01T20:00:26Z</time>
  <course>6.99</course>
  <speed>26.81</speed>
  <fix>3d</fix>
</trkpt>
<trkpt lat="-35.2834085" lon="148.9851733">
  <ele>717.45</ele>
  <time>2026-09-01T20:00:26Z</time>
  <course>6.77</course>
  <speed>26.761763768481327</speed>
  <fix>3d</fix>
</trkpt>
<trkpt lat="-35.2834797" lon="148.9851623">
  <ele>717.72</ele>
  <time>2026-09-01T20:00:26Z</time>
  <course>6.99</course>
  <speed>26.81</speed>
  <fix>3d</fix>
</trkpt>
<trkpt lat="-35.2833851" lon="148.9851768">
  <ele>717.41</ele>
  <time>2026-09-01T20:00:26Z</time>
  <course>6.76</course>
  <speed>26.74068996866012</speed>
  <fix>3d</fix>
</trkpt>
<trkpt lat="-35.2834318" lon="148.9851694">
  <ele>717.63</ele>
  <time>2026-09-01T20:00:26Z</time>
  <course>6.95</course>
  <speed>26.79</speed>
  <fix>3d</fix>
</trkpt>
<trkpt lat="-35.2833614" lon="148.9851803">
  <ele>717.36</ele>
  <time>2026-09-01T20:00:26Z</time>
  <course>6.76</course>
  <speed>26.719618260746167</speed>
  <fix>3d</fix>
</trkpt>
<trkpt lat="-35.2834318" lon="148.9851694">
  <ele>717.63</ele>
  <time>2026-09-01T20:00:26Z</time>
  <course>6.95</course>
  <speed>26.79</speed>
  <fix>3d</fix>
</trkpt>
<trkpt lat="-35.2833377" lon="148.9851838">
  <ele>717.31</ele>
  <time>2026-09-01T20:00:26Z</time>
  <course>6.75</course>
  <speed>26.688623044286118</speed>
  <fix>3d</fix>
</trkpt>
<trkpt lat="-35.2833841" lon="148.9851765">
  <ele>717.54</ele>
  <time>2026-09-01T20:00:26Z</time>
  <course>6.92</course>
  <speed>26.76</speed>
  <fix>3d</fix>
</trkpt>
<trkpt lat="-35.2833141" lon="148.9851873">
  <ele>717.25</ele>
  <time>2026-09-01T20:00:26Z</time>
  <course>6.75</course>
  <speed>26.66877200022528</speed>
  <fix>3d</fix>
</trkpt>
<trkpt lat="-35.2833841" lon="148.9851765">
  <ele>717.54</ele>
  <time>2026-09-01T20:00:26Z</time>
  <course>6.92</course>
  <speed>26.76</speed>
  <fix>3d</fix>
</trkpt>
<trkpt lat="-35.2832904" lon="148.9851908">
  <ele>717.19</ele>
  <time>2026-09-01T20:00:26Z</time>
  <course>6.73</course>
  <speed>26.647703465777308</speed>
  <fix>3d</fix>
</trkpt>
<trkpt lat="-35.2833364" lon="148.9851836">
  <ele>717.43</ele>
  <time>2026-09-01T20:00:26Z</time>
  <course>6.9</course>
  <speed>26.73</speed>
  <fix>3d</fix>
</trkpt>
<trkpt lat="-35.2832668" lon="148.9851944">
  <ele>717.13</ele>
  <time>2026-09-01T20:00:26Z</time>
  <course>6.74</course>
  <speed>26.627851959930975</speed>
  <fix>3d</fix>
</trkpt>
<trkpt lat="-35.2833364" lon="148.9851836">
  <ele>717.43</ele>
  <time>2026-09-01T20:00:26Z</time>
  <course>6.9</course>
  <speed>26.73</speed>
  <fix>3d</fix>
</trkpt>
<trkpt lat="-35.2832432" lon="148.9851978">
  <ele>717.07</ele>
  <time>2026-09-01T20:00:26Z</time>
  <course>6.76</course>
  <speed>26.60678484898166</speed>
  <fix>3d</fix>
</trkpt>
<trkpt lat="-35.2832887" lon="148.9851906">
  <ele>717.32</ele>
  <time>2026-09-01T20:00:26Z</time>
  <course>6.89</course>
  <speed>26.7</speed>
  <fix>3d</fix>
</trkpt>
<trkpt lat="-35.2832196" lon="148.9852013">
  <ele>717.0</ele>
  <time>2026-09-01T20:00:26Z</time>
  <course>6.75</course>
  <speed>26.586932880646465</speed>
  <fix>3d</fix>
</trkpt>
<trkpt lat="-35.2832887" lon="148.9851906">
  <ele>717.32</ele>
  <time>2026-09-01T20:00:26Z</time>
  <course>6.89</course>
  <speed>26.7</speed>
  <fix>3d</fix>
</trkpt>
<trkpt lat="-35.2831962" lon="148.9852048">
  <ele>716.93</ele>
  <time>2026-09-01T20:00:26Z</time>
  <course>6.73</course>
  <speed>26.567081134366266</speed>
  <fix>3d</fix>
</trkpt>
<trkpt lat="-35.2832412" lon="148.9851977">
  <ele>717.19</ele>
  <time>2026-09-01T20:00:26Z</time>
  <course>6.89</course>
  <speed>26.67</speed>
  <fix>3d</fix>
</trkpt>
<trkpt lat="-35.2831725" lon="148.9852083">
  <ele>716.86</ele>
  <time>2026-09-01T20:00:26Z</time>
  <course>6.7</course>
  <speed>26.547229610639224</speed>
  <fix>3d</fix>
</trkpt>
<trkpt lat="-35.2832412" lon="148.9851977">
  <ele>717.19</ele>
  <time>2026-09-01T20:00:26Z</time>
  <course>6.89</course>
  <speed>26.67</speed>
  <fix>3d</fix>
</trkpt>
<trkpt lat="-35.2831489" lon="148.9852118">
  <ele>716.79</ele>
  <time>2026-09-01T20:00:26Z</time>
  <course>6.65</course>
  <speed>26.526162556992674</speed>
  <fix>3d</fix>
</trkpt>
<trkpt lat="-35.2831936" lon="148.9852048">
  <ele>717.05</ele>
  <time>2026-09-01T20:00:26Z</time>
  <course>6.9</course>
  <speed>26.64</speed>
  <fix>3d</fix>
</trkpt>
<trkpt lat="-35.2831253" lon="148.9852153">
  <ele>716.72</ele>
  <time>2026-09-01T20:00:26Z</time>
  <course>6.66</course>
  <speed>26.506310569371966</speed>
  <fix>3d</fix>
</trkpt>
<trkpt lat="-35.2831936" lon="148.9852048">
  <ele>717.05</ele>
  <time>2026-09-01T20:00:26Z</time>
  <course>6.9</course>
  <speed>26.64</speed>
  <fix>3d</fix>
</trkpt>
<trkpt lat="-35.2831016" lon="148.9852188">
  <ele>716.64</ele>
  <time>2026-09-01T20:00:26Z</time>
  <course>6.68</course>
  <speed>26.495171258174572</speed>
  <fix>3d</fix>
</trkpt>
<trkpt lat="-35.283146" lon="148.9852118">
  <ele>716.91</ele>
  <time>2026-09-01T20:00:26Z</time>
  <course>6.9</course>
  <speed>26.61</speed>
  <fix>3d</fix>
</trkpt>
<trkpt lat="-35.283078" lon="148.9852223">
  <ele>716.56</ele>
  <time>2026-09-01T20:00:26Z</time>
  <course>6.73</course>
  <speed>26.47410810584561</speed>
  <fix>3d</fix>
</trkpt>
<trkpt lat="-35.283146" lon="148.9852118">
  <ele>716.91</ele>
  <time>2026-09-01T20:00:26Z</time>
  <course>6.9</course>
  <speed>26.61</speed>
  <fix>3d</fix>
</trkpt>
<trkpt lat="-35.2830544" lon="148.9852258">
  <ele>716.48</ele>
  <time>2026-09-01T20:00:26Z</time>
  <course>6.76</course>
  <speed>26.454254856260835</speed>
  <fix>3d</fix>
</trkpt>
<trkpt lat="-35.2830985" lon="148.9852189">
  <ele>716.76</ele>
  <time>2026-09-01T20:00:26Z</time>
  <course>6.88</course>
  <speed>26.58</speed>
  <fix>3d</fix>
</trkpt>
<trkpt lat="-35.28303" lon="148.9852294">
  <ele>716.39</ele>
  <time>2026-09-01T20:00:26Z</time>
  <course>6.74</course>
  <speed>26.43440182792113</speed>
  <fix>3d</fix>
</trkpt>
<trkpt lat="-35.2830985" lon="148.9852189">
  <ele>716.76</ele>
  <time>2026-09-01T20:00:26Z</time>
  <course>6.88</course>
  <speed>26.58</speed>
  <fix>3d</fix>
</trkpt>
<trkpt lat="-35.2830066" lon="148.9852328">
  <ele>716.3</ele>
  <time>2026-09-01T20:00:26Z</time>
  <course>6.7</course>
  <speed>26.414549021325353</speed>
  <fix>3d</fix>
</trkpt>
<trkpt lat="-35.2830511" lon="148.9852259">
  <ele>716.6</ele>
  <time>2026-09-01T20:00:26Z</time>
  <course>6.88</course>
  <speed>26.55</speed>
  <fix>3d</fix>
</trkpt>
<trkpt lat="-35.2829831" lon="148.9852363">
  <ele>716.21</ele>
  <time>2026-09-01T20:00:26Z</time>
  <course>6.68</course>
  <speed>26.404622701337736</speed>
  <fix>3d</fix>
</trkpt>
<trkpt lat="-35.2830511" lon="148.9852259">
  <ele>716.6</ele>
  <time>2026-09-01T20:00:26Z</time>
  <course>6.88</course>
  <speed>26.55</speed>
  <fix>3d</fix>
</trkpt>
<trkpt lat="-35.2829595" lon="148.9852398">
  <ele>716.12</ele>
  <time>2026-09-01T20:00:26Z</time>
  <course>6.69</course>
  <speed>26.393485938769057</speed>
  <fix>3d</fix>
</trkpt>
<trkpt lat="-35.2830038" lon="148.9852328">
  <ele>716.43</ele>
  <time>2026-09-01T20:00:26Z</time>
  <course>6.89</course>
  <speed>26.51</speed>
  <fix>3d</fix>
</trkpt>
<trkpt lat="-35.2829359" lon="148.9852433">
  <ele>716.03</ele>
  <time>2026-09-01T20:00:26Z</time>
  <course>6.65</course>
  <speed>26.373632665979102</speed>
  <fix>3d</fix>
</trkpt>
<trkpt lat="-35.2830038" lon="148.9852328">
  <ele>716.43</ele>
  <time>2026-09-01T20:00:26Z</time>
  <course>6.89</course>
  <speed>26.51</speed>
  <fix>3d</fix>
</trkpt>
<trkpt lat="-35.2829124" lon="148.9852467">
  <ele>715.94</ele>
  <time>2026-09-01T20:00:26Z</time>
  <course>6.59</course>
  <speed>26.361293594966085</speed>
  <fix>3d</fix>
</trkpt>
<trkpt lat="-35.2829566" lon="148.9852399">
  <ele>716.26</ele>
  <time>2026-09-01T20:00:26Z</time>
  <course>6.88</course>
  <speed>26.48</speed>
  <fix>3d</fix>
</trkpt>
<trkpt lat="-35.2828886" lon="148.9852502">
  <ele>715.85</ele>
  <time>2026-09-01T20:00:26Z</time>
  <course>6.6</course>
  <speed>26.35016508487186</speed>
  <fix>3d</fix>
</trkpt>
<trkpt lat="-35.2829566" lon="148.9852399">
  <ele>716.26</ele>
  <time>2026-09-01T20:00:26Z</time>
  <course>6.88</course>
  <speed>26.48</speed>
  <fix>3d</fix>
</trkpt>
<trkpt lat="-35.2828651" lon="148.9852537">
  <ele>715.76</ele>
  <time>2026-09-01T20:00:26Z</time>
  <course>6.65</course>
  <speed>26.339039466161253</speed>
  <fix>3d</fix>
</trkpt>
<trkpt lat="-35.2829093" lon="148.9852468">
  <ele>716.07</ele>
  <time>2026-09-01T20:00:26Z</time>
  <course>6.85</course>
  <speed>26.46</speed>
  <fix>3d</fix>
</trkpt>
<trkpt lat="-35.2828415" lon="148.9852571">
  <ele>715.67</ele>
  <time>2026-09-01T20:00:26Z</time>
  <course>6.69</course>
  <speed>26.327916742499774</speed>
  <fix>3d</fix>
</trkpt>
<trkpt lat="-35.2829093" lon="148.9852468">
  <ele>716.07</ele>
  <time>2026-09-01T20:00:26Z</time>
  <course>6.85</course>
  <speed>26.46</speed>
  <fix>3d</fix>
</trkpt>
<trkpt lat="-35.282818" lon="148.9852605">
  <ele>715.58</ele>
  <time>2026-09-01T20:00:26Z</time>
  <course>6.68</course>
  <speed>26.31798814499315</speed>
  <fix>3d</fix>
</trkpt>
<trkpt lat="-35.2828622" lon="148.9852537">
  <ele>715.9</ele>
  <time>2026-09-01T20:00:26Z</time>
  <course>6.82</course>
  <speed>26.43</speed>
  <fix>3d</fix>
</trkpt>
<trkpt lat="-35.2827945" lon="148.985264">
  <ele>715.5</ele>
  <time>2026-09-01T20:00:26Z</time>
  <course>6.62</course>
  <speed>26.306867924555366</speed>
  <fix>3d</fix>
</trkpt>
<trkpt lat="-35.2828622" lon="148.9852537">
  <ele>715.9</ele>
  <time>2026-09-01T20:00:26Z</time>
  <course>6.82</course>
  <speed>26.43</speed>
  <fix>3d</fix>
</trkpt>
<trkpt lat="-35.282771" lon="148.9852674">
  <ele>715.41</ele>
  <time>2026-09-01T20:00:26Z</time>
  <course>6.61</course>
  <speed>26.2858212730742</speed>
  <fix>3d</fix>
</trkpt>
<trkpt lat="-35.2828151" lon="148.9852606">
  <ele>715.73</ele>
  <time>2026-09-01T20:00:26Z</time>
  <course>6.79</course>
  <speed>26.4</speed>
  <fix>3d</fix>
</trkpt>
<trkpt lat="-35.282748" lon="148.9852707">
  <ele>715.33</ele>
  <time>2026-09-01T20:00:26Z</time>
  <course>6.64</course>
  <speed>26.27470646838895</speed>
  <fix>3d</fix>
</trkpt>
<trkpt lat="-35.2828151" lon="148.9852606">
  <ele>715.73</ele>
  <time>2026-09-01T20:00:26Z</time>
  <course>6.79</course>
  <speed>26.4</speed>
  <fix>3d</fix>
</trkpt>
<trkpt lat="-35.2827246" lon="148.9852741">
  <ele>715.25</ele>
  <time>2026-09-01T20:00:26Z</time>
  <course>6.67</course>
  <speed>26.264776793264396</speed>
  <fix>3d</fix>
</trkpt>
<trkpt lat="-35.2827681" lon="148.9852675">
  <ele>715.56</ele>
  <time>2026-09-01T20:00:26Z</time>
  <course>6.77</course>
  <speed>26.37</speed>
  <fix>3d</fix>
</trkpt>
<trkpt lat="-35.2827013" lon="148.9852775">
  <ele>715.18</ele>
  <time>2026-09-01T20:00:26Z</time>
  <course>6.66</course>
  <speed>26.254847171522442</speed>
  <fix>3d</fix>
</trkpt>
<trkpt lat="-35.2827681" lon="148.9852675">
  <ele>715.56</ele>
  <time>2026-09-01T20:00:26Z</time>
  <course>6.77</course>
  <speed>26.37</speed>
  <fix>3d</fix>
</trkpt>
<trkpt lat="-35.2826778" lon="148.9852808">
  <ele>715.11</ele>
  <time>2026-09-01T20:00:26Z</time>
  <course>6.7</course>
  <speed>26.234988088428782</speed>
  <fix>3d</fix>
</trkpt>
<trkpt lat="-35.2827211" lon="148.9852743">
  <ele>715.4</ele>
  <time>2026-09-01T20:00:26Z</time>
  <course>6.76</course>
  <speed>26.34</speed>
  <fix>3d</fix>
</trkpt>
<trkpt lat="-35.2826543" lon="148.9852843">
  <ele>715.03</ele>
  <time>2026-09-01T20:00:26Z</time>
  <course>6.71</course>
  <speed>26.22505862719853</speed>
  <fix>3d</fix>
</trkpt>
<trkpt lat="-35.2827211" lon="148.9852743">
  <ele>715.4</ele>
  <time>2026-09-01T20:00:26Z</time>
  <course>6.76</course>
  <speed>26.34</speed>
  <fix>3d</fix>
</trkpt>
<trkpt lat="-35.2826308" lon="148.9852877">
  <ele>714.96</ele>
  <time>2026-09-01T20:00:26Z</time>
  <course>6.66</course>
  <speed>26.215129219593788</speed>
  <fix>3d</fix>
</trkpt>
<trkpt lat="-35.282674" lon="148.9852812">
  <ele>715.25</ele>
  <time>2026-09-01T20:00:26Z</time>
  <course>6.77</course>
  <speed>26.31</speed>
  <fix>3d</fix>
</trkpt>
<trkpt lat="-35.2826072" lon="148.9852911">
  <ele>714.89</ele>
  <time>2026-09-01T20:00:26Z</time>
  <course>6.66</course>
  <speed>26.195270565504757</speed>
  <fix>3d</fix>
</trkpt>
<trkpt lat="-35.282674" lon="148.9852812">
  <ele>715.25</ele>
  <time>2026-09-01T20:00:26Z</time>
  <course>6.77</course>
  <speed>26.31</speed>
  <fix>3d</fix>
</trkpt>
<trkpt lat="-35.2825837" lon="148.9852945">
  <ele>714.82</ele>
  <time>2026-09-01T20:00:26Z</time>
  <course>6.61</course>
  <speed>26.185341319142662</speed>
  <fix>3d</fix>
</trkpt>
<trkpt lat="-35.2826271" lon="148.985288">
  <ele>715.1</ele>
  <time>2026-09-01T20:00:26Z</time>
  <course>6.79</course>
  <speed>26.27</speed>
  <fix>3d</fix>
</trkpt>
<trkpt lat="-35.2825603" lon="148.9852979">
  <ele>714.75</ele>
  <time>2026-09-01T20:00:26Z</time>
  <course>6.58</course>
  <speed>26.16429628329415</speed>
  <fix>3d</fix>
</trkpt>
<trkpt lat="-35.2826271" lon="148.985288">
  <ele>715.1</ele>
  <time>2026-09-01T20:00:26Z</time>
  <course>6.79</course>
  <speed>26.27</speed>
  <fix>3d</fix>
</trkpt>
<trkpt lat="-35.282536" lon="148.9853015">
  <ele>714.68</ele>
  <time>2026-09-01T20:00:26Z</time>
  <course>6.58</course>
  <speed>26.15318336264249</speed>
  <fix>3d</fix>
</trkpt>
<trkpt lat="-35.2825802" lon="148.9852948">
  <ele>714.96</ele>
  <time>2026-09-01T20:00:26Z</time>
  <course>6.79</course>
  <speed>26.24</speed>
  <fix>3d</fix>
</trkpt>
<trkpt lat="-35.2825128" lon="148.9853048">
  <ele>714.61</ele>
  <time>2026-09-01T20:00:26Z</time>
  <course>6.6</course>
  <speed>26.13332355441994</speed>
  <fix>3d</fix>
</trkpt>
<trkpt lat="-35.2825802" lon="148.9852948">
  <ele>714.96</ele>
  <time>2026-09-01T20:00:26Z</time>
  <course>6.79</course>
  <speed>26.24</speed>
  <fix>3d</fix>
</trkpt>
<trkpt lat="-35.2824893" lon="148.9853082">
  <ele>714.55</ele>
  <time>2026-09-01T20:00:26Z</time>
  <course>6.61</course>
  <speed>26.11228255055463</speed>
  <fix>3d</fix>
</trkpt>
<trkpt lat="-35.2825334" lon="148.9853016">
  <ele>714.82</ele>
  <time>2026-09-01T20:00:26Z</time>
  <course>6.78</course>
  <speed>26.19</speed>
  <fix>3d</fix>
</trkpt>
<trkpt lat="-35.2824659" lon="148.9853116">
  <ele>714.48</ele>
  <time>2026-09-01T20:00:26Z</time>
  <course>6.6</course>
  <speed>26.101174303084527</speed>
  <fix>3d</fix>
</trkpt>
<trkpt lat="-35.2825334" lon="148.9853016">
  <ele>714.82</ele>
  <time>2026-09-01T20:00:26Z</time>
  <course>6.78</course>
  <speed>26.19</speed>
  <fix>3d</fix>
</trkpt>
<trkpt lat="-35.2824425" lon="148.985315">
  <ele>714.42</ele>
  <time>2026-09-01T20:00:26Z</time>
  <course>6.58</course>
  <speed>26.08131323380784</speed>
  <fix>3d</fix>
</trkpt>
<trkpt lat="-35.2824867" lon="148.9853085">
  <ele>714.69</ele>
  <time>2026-09-01T20:00:26Z</time>
  <course>6.77</course>
  <speed>26.15</speed>
  <fix>3d</fix>
</trkpt>
<trkpt lat="-35.282419" lon="148.9853184">
  <ele>714.36</ele>
  <time>2026-09-01T20:00:26Z</time>
  <course>6.61</course>
  <speed>26.070207133814648</speed>
  <fix>3d</fix>
</trkpt>
<trkpt lat="-35.2824867" lon="148.9853085">
  <ele>714.69</ele>
  <time>2026-09-01T20:00:26Z</time>
  <course>6.77</course>
  <speed>26.15</speed>
  <fix>3d</fix>
</trkpt>
<trkpt lat="-35.2823956" lon="148.9853218">
  <ele>714.29</ele>
  <time>2026-09-01T20:00:26Z</time>
  <course>6.62</course>
  <speed>26.06027628403045</speed>
  <fix>3d</fix>
</trkpt>
<trkpt lat="-35.2824401" lon="148.9853153">
  <ele>714.56</ele>
  <time>2026-09-01T20:00:26Z</time>
  <course>6.75</course>
  <speed>26.11</speed>
  <fix>3d</fix>
</trkpt>
<trkpt lat="-35.2823722" lon="148.9853251">
  <ele>714.23</ele>
  <time>2026-09-01T20:00:26Z</time>
  <course>6.65</course>
  <speed>26.039241540413578</speed>
  <fix>3d</fix>
</trkpt>
<trkpt lat="-35.2824401" lon="148.9853153">
  <ele>714.56</ele>
  <time>2026-09-01T20:00:26Z</time>
  <course>6.75</course>
  <speed>26.11</speed>
  <fix>3d</fix>
</trkpt>
<trkpt lat="-35.2823489" lon="148.9853285">
  <ele>714.16</ele>
  <time>2026-09-01T20:00:26Z</time>
  <course>6.63</course>
  <speed>26.029310401929592</speed>
  <fix>3d</fix>
</trkpt>
<trkpt lat="-35.2823935" lon="148.985322">
  <ele>714.44</ele>
  <time>2026-09-01T20:00:26Z</time>
  <course>6.75</course>
  <speed>26.07</speed>
  <fix>3d</fix>
</trkpt>
<trkpt lat="-35.2823256" lon="148.9853319">
  <ele>714.1</ele>
  <time>2026-09-01T20:00:26Z</time>
  <course>6.64</course>
  <speed>26.00944828326814</speed>
  <fix>3d</fix>
</trkpt>
<trkpt lat="-35.2823935" lon="148.985322">
  <ele>714.44</ele>
  <time>2026-09-01T20:00:26Z</time>
  <course>6.75</course>
  <speed>26.07</speed>
  <fix>3d</fix>
</trkpt>
<trkpt lat="-35.2823023" lon="148.9853352">
  <ele>714.03</ele>
  <time>2026-09-01T20:00:26Z</time>
  <course>6.65</course>
  <speed>25.99951730321161</speed>
  <fix>3d</fix>
</trkpt>
<trkpt lat="-35.282347" lon="148.9853288">
  <ele>714.31</ele>
  <time>2026-09-01T20:00:26Z</time>
  <course>6.74</course>
  <speed>26.03</speed>
  <fix>3d</fix>
</trkpt>
<trkpt lat="-35.2822791" lon="148.9853386">
  <ele>713.97</ele>
  <time>2026-09-01T20:00:26Z</time>
  <course>6.66</course>
  <speed>25.97965550194998</speed>
  <fix>3d</fix>
</trkpt>
<trkpt lat="-35.282347" lon="148.9853288">
  <ele>714.31</ele>
  <time>2026-09-01T20:00:26Z</time>
  <course>6.74</course>
  <speed>26.03</speed>
  <fix>3d</fix>
</trkpt>
<trkpt lat="-35.2822558" lon="148.985342">
  <ele>713.9</ele>
  <time>2026-09-01T20:00:26Z</time>
  <course>6.64</course>
  <speed>25.968552135226947</speed>
  <fix>3d</fix>
</trkpt>
<trkpt lat="-35.2823007" lon="148.9853355">
  <ele>714.19</ele>
  <time>2026-09-01T20:00:26Z</time>
  <course>6.75</course>
  <speed>25.99</speed>
  <fix>3d</fix>
</trkpt>
<trkpt lat="-35.2822326" lon="148.9853453">
  <ele>713.84</ele>
  <time>2026-09-01T20:00:26Z</time>
  <course>6.61</course>
  <speed>25.958620918685185</speed>
  <fix>3d</fix>
</trkpt>
<trkpt lat="-35.2823007" lon="148.9853355">
  <ele>714.19</ele>
  <time>2026-09-01T20:00:26Z</time>
  <course>6.75</course>
  <speed>25.99</speed>
  <fix>3d</fix>
</trkpt>
<trkpt lat="-35.2822094" lon="148.9853487">
  <ele>713.77</ele>
  <time>2026-09-01T20:00:26Z</time>
  <course>6.6</course>
  <speed>25.948689754976066</speed>
  <fix>3d</fix>
</trkpt>
<trkpt lat="-35.2822544" lon="148.9853422">
  <ele>714.06</ele>
  <time>2026-09-01T20:00:26Z</time>
  <course>6.75</course>
  <speed>25.95</speed>
  <fix>3d</fix>
</trkpt>
<trkpt lat="-35.2821862" lon="148.9853521">
  <ele>713.7</ele>
  <time>2026-09-01T20:00:26Z</time>
  <course>6.6</course>
  <speed>25.938758644160288</speed>
  <fix>3d</fix>
</trkpt>
<trkpt lat="-35.2822544" lon="148.9853422">
  <ele>714.06</ele>
  <time>2026-09-01T20:00:26Z</time>
  <course>6.75</course>
  <speed>25.95</speed>
  <fix>3d</fix>
</trkpt>
<trkpt lat="-35.282163" lon="148.9853554">
  <ele>713.63</ele>
  <time>2026-09-01T20:00:26Z</time>
  <course>6.57</course>
  <speed>25.928827586298613</speed>
  <fix>3d</fix>
</trkpt>
<trkpt lat="-35.2822081" lon="148.9853489">
  <ele>713.92</ele>
  <time>2026-09-01T20:00:26Z</time>
  <course>6.75</course>
  <speed>25.92</speed>
  <fix>3d</fix>
</trkpt>
<trkpt lat="-35.2821399" lon="148.9853588">
  <ele>713.56</ele>
  <time>2026-09-01T20:00:26Z</time>
  <course>6.58</course>
  <speed>25.917725594658187</speed>
  <fix>3d</fix>
</trkpt>
<trkpt lat="-35.2822081" lon="148.9853489">
  <ele>713.92</ele>
  <time>2026-09-01T20:00:26Z</time>
  <course>6.75</course>
  <speed>25.92</speed>
  <fix>3d</fix>
</trkpt>
<trkpt lat="-35.2821167" lon="148.9853621">
  <ele>713.49</ele>
  <time>2026-09-01T20:00:26Z</time>
  <course>6.59</course>
  <speed>25.90779419402586</speed>
  <fix>3d</fix>
</trkpt>
<trkpt lat="-35.2821618" lon="148.9853556">
  <ele>713.79</ele>
  <time>2026-09-01T20:00:26Z</time>
  <course>6.74</course>
  <speed>25.89</speed>
  <fix>3d</fix>
</trkpt>
<trkpt lat="-35.2820942" lon="148.9853654">
  <ele>713.42</ele>
  <time>2026-09-01T20:00:26Z</time>
  <course>6.59</course>
  <speed>25.897862846188676</speed>
  <fix>3d</fix>
</trkpt>
<trkpt lat="-35.2821618" lon="148.9853556">
  <ele>713.79</ele>
  <time>2026-09-01T20:00:26Z</time>
  <course>6.74</course>
  <speed>25.89</speed>
  <fix>3d</fix>
</trkpt>
<trkpt lat="-35.2820711" lon="148.9853687">
  <ele>713.34</ele>
  <time>2026-09-01T20:00:26Z</time>
  <course>6.61</course>
  <speed>25.88793155120741</speed>
  <fix>3d</fix>
</trkpt>
<trkpt lat="-35.2821156" lon="148.9853623">
  <ele>713.64</ele>
  <time>2026-09-01T20:00:26Z</time>
  <course>6.73</course>
  <speed>25.87</speed>
  <fix>3d</fix>
</trkpt>
<trkpt lat="-35.2820472" lon="148.9853721">
  <ele>713.26</ele>
  <time>2026-09-01T20:00:26Z</time>
  <course>6.59</course>
  <speed>25.876831336158606</speed>
  <fix>3d</fix>
</trkpt>
<trkpt lat="-35.2821156" lon="148.9853623">
  <ele>713.64</ele>
  <time>2026-09-01T20:00:26Z</time>
  <course>6.73</course>
  <speed>25.87</speed>
  <fix>3d</fix>
</trkpt>
<trkpt lat="-35.2820243" lon="148.9853754">
  <ele>713.19</ele>
  <time>2026-09-01T20:00:26Z</time>
  <course>6.59</course>
  <speed>25.868069120056102</speed>
  <fix>3d</fix>
</trkpt>
<trkpt lat="-35.2820694" lon="148.985369">
  <ele>713.49</ele>
  <time>2026-09-01T20:00:26Z</time>
  <course>6.73</course>
  <speed>25.84</speed>
  <fix>3d</fix>
</trkpt>
<trkpt lat="-35.2820012" lon="148.9853788">
  <ele>713.11</ele>
  <time>2026-09-01T20:00:26Z</time>
  <course>6.58</course>
  <speed>25.868069120056102</speed>
  <fix>3d</fix>
</trkpt>
<trkpt lat="-35.2820694" lon="148.985369">
  <ele>713.49</ele>
  <time>2026-09-01T20:00:26Z</time>
  <course>6.73</course>
  <speed>25.84</speed>
  <fix>3d</fix>
</trkpt>
<trkpt lat="-35.2819782" lon="148.9853821">
  <ele>713.03</ele>
  <time>2026-09-01T20:00:26Z</time>
  <course>6.59</course>
  <speed>25.856968113063836</speed>
  <fix>3d</fix>
</trkpt>
<trkpt lat="-35.2820234" lon="148.9853757">
  <ele>713.34</ele>
  <time>2026-09-01T20:00:26Z</time>
  <course>6.73</course>
  <speed>25.82</speed>
  <fix>3d</fix>
</trkpt>
<trkpt lat="-35.2819551" lon="148.9853854">
  <ele>712.95</ele>
  <time>2026-09-01T20:00:26Z</time>
  <course>6.59</course>
  <speed>25.845870076281045</speed>
  <fix>3d</fix>
</trkpt>
<trkpt lat="-35.2820234" lon="148.9853757">
  <ele>713.34</ele>
  <time>2026-09-01T20:00:26Z</time>
  <course>6.73</course>
  <speed>25.82</speed>
  <fix>3d</fix>
</trkpt>
<trkpt lat="-35.2819319" lon="148.9853888">
  <ele>712.86</ele>
  <time>2026-09-01T20:00:26Z</time>
  <course>6.57</course>
  <speed>25.845870076281045</speed>
  <fix>3d</fix>
</trkpt>
<trkpt lat="-35.2819773" lon="148.9853823">
  <ele>713.19</ele>
  <time>2026-09-01T20:00:26Z</time>
  <course>6.73</course>
  <speed>25.81</speed>
  <fix>3d</fix>
</trkpt>
<trkpt lat="-35.2819089" lon="148.9853921">
  <ele>712.77</ele>
  <time>2026-09-01T20:00:26Z</time>
  <course>6.5</course>
  <speed>25.834775013535538</speed>
  <fix>3d</fix>
</trkpt>
<trkpt lat="-35.2819773" lon="148.9853823">
  <ele>713.19</ele>
  <time>2026-09-01T20:00:26Z</time>
  <course>6.73</course>
  <speed>25.81</speed>
  <fix>3d</fix>
</trkpt>
<trkpt lat="-35.2818858" lon="148.9853954">
  <ele>712.68</ele>
  <time>2026-09-01T20:00:26Z</time>
  <course>6.5</course>
  <speed>25.83361569738158</speed>
  <fix>3d</fix>
</trkpt>
<trkpt lat="-35.2819312" lon="148.985389">
  <ele>713.02</ele>
  <time>2026-09-01T20:00:26Z</time>
  <course>6.71</course>
  <speed>25.79</speed>
  <fix>3d</fix>
</trkpt>
<trkpt lat="-35.2818628" lon="148.9853987">
  <ele>712.58</ele>
  <time>2026-09-01T20:00:26Z</time>
  <course>6.55</course>
  <speed>25.82252698710953</speed>
  <fix>3d</fix>
</trkpt>
<trkpt lat="-35.2819312" lon="148.985389">
  <ele>713.02</ele>
  <time>2026-09-01T20:00:26Z</time>
  <course>6.71</course>
  <speed>25.79</speed>
  <fix>3d</fix>
</trkpt>
<trkpt lat="-35.2818398" lon="148.985402">
  <ele>712.48</ele>
  <time>2026-09-01T20:00:26Z</time>
  <course>6.58</course>
  <speed>25.82252698710953</speed>
  <fix>3d</fix>
</trkpt>
<trkpt lat="-35.2818853" lon="148.9853956">
  <ele>712.84</ele>
  <time>2026-09-01T20:00:26Z</time>
  <course>6.68</course>
  <speed>25.78</speed>
  <fix>3d</fix>
</trkpt>
<trkpt lat="-35.2818168" lon="148.9854053">
  <ele>712.38</ele>
  <time>2026-09-01T20:00:26Z</time>
  <course>6.59</course>
  <speed>25.812593825495338</speed>
  <fix>3d</fix>
</trkpt>
<trkpt lat="-35.2818853" lon="148.9853956">
  <ele>712.84</ele>
  <time>2026-09-01T20:00:26Z</time>
  <course>6.68</course>
  <speed>25.78</speed>
  <fix>3d</fix>
</trkpt>
<trkpt lat="-35.2817938" lon="148.9854086">
  <ele>712.27</ele>
  <time>2026-09-01T20:00:26Z</time>
  <course>6.59</course>
  <speed>25.812593825495338</speed>
  <fix>3d</fix>
</trkpt>
<trkpt lat="-35.2818393" lon="148.9854022">
  <ele>712.65</ele>
  <time>2026-09-01T20:00:26Z</time>
  <course>6.65</course>
  <speed>25.77</speed>
  <fix>3d</fix>
</trkpt>
<trkpt lat="-35.2817708" lon="148.9854118">
  <ele>712.16</ele>
  <time>2026-09-01T20:00:26Z</time>
  <course>6.6</course>
  <speed>25.812593825495338</speed>
  <fix>3d</fix>
</trkpt>
<trkpt lat="-35.2818393" lon="148.9854022">
  <ele>712.65</ele>
  <time>2026-09-01T20:00:26Z</time>
  <course>6.65</course>
  <speed>25.77</speed>
  <fix>3d</fix>
</trkpt>
<trkpt lat="-35.2817478" lon="148.9854151">
  <ele>712.05</ele>
  <time>2026-09-01T20:00:26Z</time>
  <course>6.61</course>
  <speed>25.812593825495338</speed>
  <fix>3d</fix>
</trkpt>
<trkpt lat="-35.2817932" lon="148.9854087">
  <ele>712.44</ele>
  <time>2026-09-01T20:00:26Z</time>
  <course>6.65</course>
  <speed>25.77</speed>
  <fix>3d</fix>
</trkpt>
<trkpt lat="-35.2817248" lon="148.9854184">
  <ele>711.93</ele>
  <time>2026-09-01T20:00:26Z</time>
  <course>6.61</course>
  <speed>25.82368292866066</speed>
  <fix>3d</fix>
</trkpt>
<trkpt lat="-35.2817932" lon="148.9854087">
  <ele>712.44</ele>
  <time>2026-09-01T20:00:26Z</time>
  <course>6.65</course>
  <speed>25.77</speed>
  <fix>3d</fix>
</trkpt>
<trkpt lat="-35.2817018" lon="148.9854217">
  <ele>711.8</ele>
  <time>2026-09-01T20:00:26Z</time>
  <course>6.6</course>
  <speed>25.824842690711595</speed>
  <fix>3d</fix>
</trkpt>
<trkpt lat="-35.2817473" lon="148.9854154">
  <ele>712.21</ele>
  <time>2026-09-01T20:00:26Z</time>
  <course>6.67</course>
  <speed>25.77</speed>
  <fix>3d</fix>
</trkpt>
<trkpt lat="-35.2816788" lon="148.985425">
  <ele>711.68</ele>
  <time>2026-09-01T20:00:26Z</time>
  <course>6.54</course>
  <speed>25.824842690711595</speed>
  <fix>3d</fix>
</trkpt>
<trkpt lat="-35.2817473" lon="148.9854154">
  <ele>712.21</ele>
  <time>2026-09-01T20:00:26Z</time>
  <course>6.67</course>
  <speed>25.77</speed>
  <fix>3d</fix>
</trkpt>
<trkpt lat="-35.2816558" lon="148.9854284">
  <ele>711.56</ele>
  <time>2026-09-01T20:00:26Z</time>
  <course>6.58</course>
  <speed>25.824842690711595</speed>
  <fix>3d</fix>
</trkpt>
<trkpt lat="-35.2817013" lon="148.985422">
  <ele>711.97</ele>
  <time>2026-09-01T20:00:26Z</time>
  <course>6.69</course>
  <speed>25.78</speed>
  <fix>3d</fix>
</trkpt>
<trkpt lat="-35.2816327" lon="148.9854317">
  <ele>711.43</ele>
  <time>2026-09-01T20:00:26Z</time>
  <course>6.69</course>
  <speed>25.835938148246136</speed>
  <fix>3d</fix>
</trkpt>
<trkpt lat="-35.2817013" lon="148.985422">
  <ele>711.97</ele>
  <time>2026-09-01T20:00:26Z</time>
  <course>6.69</course>
  <speed>25.78</speed>
  <fix>3d</fix>
</trkpt>
<trkpt lat="-35.2816097" lon="148.985435">
  <ele>711.31</ele>
  <time>2026-09-01T20:00:26Z</time>
  <course>6.71</course>
  <speed>25.837105100997675</speed>
  <fix>3d</fix>
</trkpt>
<trkpt lat="-35.2816552" lon="148.9854285">
  <ele>711.72</ele>
  <time>2026-09-01T20:00:26Z</time>
  <course>6.71</course>
  <speed>25.79</speed>
  <fix>3d</fix>
</trkpt>
<trkpt lat="-35.2815867" lon="148.9854384">
  <ele>711.18</ele>
  <time>2026-09-01T20:00:26Z</time>
  <course>6.71</course>
  <speed>25.838275871272835</speed>
  <fix>3d</fix>
</trkpt>
<trkpt lat="-35.2816552" lon="148.9854285">
  <ele>711.72</ele>
  <time>2026-09-01T20:00:26Z</time>
  <course>6.71</course>
  <speed>25.79</speed>
  <fix>3d</fix>
</trkpt>
<trkpt lat="-35.2815637" lon="148.9854417">
  <ele>711.05</ele>
  <time>2026-09-01T20:00:26Z</time>
  <course>6.68</course>
  <speed>25.838275871272835</speed>
  <fix>3d</fix>
</trkpt>
<trkpt lat="-35.2816092" lon="148.9854352">
  <ele>711.47</ele>
  <time>2026-09-01T20:00:26Z</time>
  <course>6.75</course>
  <speed>25.8</speed>
  <fix>3d</fix>
</trkpt>
<trkpt lat="-35.2815407" lon="148.985445">
  <ele>710.93</ele>
  <time>2026-09-01T20:00:26Z</time>
  <course>6.63</course>
  <speed>25.84820690105989</speed>
  <fix>3d</fix>
</trkpt>
<trkpt lat="-35.2816092" lon="148.9854352">
  <ele>711.47</ele>
  <time>2026-09-01T20:00:26Z</time>
  <course>6.75</course>
  <speed>25.8</speed>
  <fix>3d</fix>
</trkpt>
<trkpt lat="-35.2815177" lon="148.9854484">
  <ele>710.8</ele>
  <time>2026-09-01T20:00:26Z</time>
  <course>6.63</course>
  <speed>25.84820690105989</speed>
  <fix>3d</fix>
</trkpt>
<trkpt lat="-35.2815631" lon="148.9854419">
  <ele>711.21</ele>
  <time>2026-09-01T20:00:26Z</time>
  <course>6.77</course>
  <speed>25.81</speed>
  <fix>3d</fix>
</trkpt>
<trkpt lat="-35.2814946" lon="148.9854517">
  <ele>710.67</ele>
  <time>2026-09-01T20:00:26Z</time>
  <course>6.66</course>
  <speed>25.84820690105989</speed>
  <fix>3d</fix>
</trkpt>
<trkpt lat="-35.2815631" lon="148.9854419">
  <ele>711.21</ele>
  <time>2026-09-01T20:00:26Z</time>
  <course>6.77</course>
  <speed>25.81</speed>
  <fix>3d</fix>
</trkpt>
<trkpt lat="-35.2814716" lon="148.9854551">
  <ele>710.54</ele>
  <time>2026-09-01T20:00:26Z</time>
  <course>6.65</course>
  <speed>25.84820690105989</speed>
  <fix>3d</fix>
</trkpt>
<trkpt lat="-35.2815171" lon="148.9854486">
  <ele>710.96</ele>
  <time>2026-09-01T20:00:26Z</time>
  <course>6.77</course>
  <speed>25.81</speed>
  <fix>3d</fix>
</trkpt>
<trkpt lat="-35.2814484" lon="148.9854584">
  <ele>710.4</ele>
  <time>2026-09-01T20:00:26Z</time>
  <course>6.66</course>
  <speed>25.84820690105989</speed>
  <fix>3d</fix>
</trkpt>
<trkpt lat="-35.2815171" lon="148.9854486">
  <ele>710.96</ele>
  <time>2026-09-01T20:00:26Z</time>
  <course>6.77</course>
  <speed>25.81</speed>
  <fix>3d</fix>
</trkpt>
<trkpt lat="-35.2814254" lon="148.9854618">
  <ele>710.27</ele>
  <time>2026-09-01T20:00:26Z</time>
  <course>6.63</course>
  <speed>25.84820690105989</speed>
  <fix>3d</fix>
</trkpt>
<trkpt lat="-35.281471" lon="148.9854553">
  <ele>710.7</ele>
  <time>2026-09-01T20:00:26Z</time>
  <course>6.77</course>
  <speed>25.82</speed>
  <fix>3d</fix>
</trkpt>
<trkpt lat="-35.2814023" lon="148.9854651">
  <ele>710.14</ele>
  <time>2026-09-01T20:00:26Z</time>
  <course>6.64</course>
  <speed>25.847036580621772</speed>
  <fix>3d</fix>
</trkpt>
<trkpt lat="-35.281471" lon="148.9854553">
  <ele>710.7</ele>
  <time>2026-09-01T20:00:26Z</time>
  <course>6.77</course>
  <speed>25.82</speed>
  <fix>3d</fix>
</trkpt>
<trkpt lat="-35.2813793" lon="148.9854685">
  <ele>710.0</ele>
  <time>2026-09-01T20:00:26Z</time>
  <course>6.64</course>
  <speed>25.856968113063836</speed>
  <fix>3d</fix>
</trkpt>
<trkpt lat="-35.281425" lon="148.985462">
  <ele>710.44</ele>
  <time>2026-09-01T20:00:26Z</time>
  <course>6.76</course>
  <speed>25.82</speed>
  <fix>3d</fix>
</trkpt>
<trkpt lat="-35.2813563" lon="148.9854718">
  <ele>709.86</ele>
  <time>2026-09-01T20:00:26Z</time>
  <course>6.66</course>
  <speed>25.856968113063836</speed>
  <fix>3d</fix>
</trkpt>
<trkpt lat="-35.281425" lon="148.985462">
  <ele>710.44</ele>
  <time>2026-09-01T20:00:26Z</time>
  <course>6.76</course>
  <speed>25.82</speed>
  <fix>3d</fix>
</trkpt>
<trkpt lat="-35.2813332" lon="148.9854751">
  <ele>709.72</ele>
  <time>2026-09-01T20:00:26Z</time>
  <course>6.71</course>
  <speed>25.856968113063836</speed>
  <fix>3d</fix>
</trkpt>
<trkpt lat="-35.2813789" lon="148.9854687">
  <ele>710.17</ele>
  <time>2026-09-01T20:00:26Z</time>
  <course>6.75</course>
  <speed>25.83</speed>
  <fix>3d</fix>
</trkpt>
<trkpt lat="-35.2813102" lon="148.9854785">
  <ele>709.58</ele>
  <time>2026-09-01T20:00:26Z</time>
  <course>6.68</course>
  <speed>25.855802056791816</speed>
  <fix>3d</fix>
</trkpt>
<trkpt lat="-35.2813789" lon="148.9854687">
  <ele>710.17</ele>
  <time>2026-09-01T20:00:26Z</time>
  <course>6.75</course>
  <speed>25.83</speed>
  <fix>3d</fix>
</trkpt>
<trkpt lat="-35.2812872" lon="148.9854818">
  <ele>709.44</ele>
  <time>2026-09-01T20:00:26Z</time>
  <course>6.66</course>
  <speed>25.855802056791816</speed>
  <fix>3d</fix>
</trkpt>
<trkpt lat="-35.2813328" lon="148.9854754">
  <ele>709.89</ele>
  <time>2026-09-01T20:00:26Z</time>
  <course>6.73</course>
  <speed>25.84</speed>
  <fix>3d</fix>
</trkpt>
<trkpt lat="-35.2812641" lon="148.9854851">
  <ele>709.3</ele>
  <time>2026-09-01T20:00:26Z</time>
  <course>6.63</course>
  <speed>25.86457229493656</speed>
  <fix>3d</fix>
</trkpt>
<trkpt lat="-35.2813328" lon="148.9854754">
  <ele>709.89</ele>
  <time>2026-09-01T20:00:26Z</time>
  <course>6.73</course>
  <speed>25.84</speed>
  <fix>3d</fix>
</trkpt>
<trkpt lat="-35.2812411" lon="148.9854884">
  <ele>709.15</ele>
  <time>2026-09-01T20:00:26Z</time>
  <course>6.64</course>
  <speed>25.86457229493656</speed>
  <fix>3d</fix>
</trkpt>
<trkpt lat="-35.2812867" lon="148.985482">
  <ele>709.6</ele>
  <time>2026-09-01T20:00:26Z</time>
  <course>6.71</course>
  <speed>25.84</speed>
  <fix>3d</fix>
</trkpt>
<trkpt lat="-35.281218" lon="148.9854917">
  <ele>709.01</ele>
  <time>2026-09-01T20:00:26Z</time>
  <course>6.65</course>
  <speed>25.863414314432656</speed>
  <fix>3d</fix>
</trkpt>
<trkpt lat="-35.2812867" lon="148.985482">
  <ele>709.6</ele>
  <time>2026-09-01T20:00:26Z</time>
  <course>6.71</course>
  <speed>25.84</speed>
  <fix>3d</fix>
</trkpt>
<trkpt lat="-35.281195" lon="148.9854951">
  <ele>708.86</ele>
  <time>2026-09-01T20:00:26Z</time>
  <course>6.64</course>
  <speed>25.863414314432656</speed>
  <fix>3d</fix>
</trkpt>
<trkpt lat="-35.2812406" lon="148.9854887">
  <ele>709.31</ele>
  <time>2026-09-01T20:00:26Z</time>
  <course>6.69</course>
  <speed>25.85</speed>
  <fix>3d</fix>
</trkpt>
<trkpt lat="-35.2811719" lon="148.9854984">
  <ele>708.71</ele>
  <time>2026-09-01T20:00:26Z</time>
  <course>6.65</course>
  <speed>25.873347290213534</speed>
  <fix>3d</fix>
</trkpt>
<trkpt lat="-35.2812406" lon="148.9854887">
  <ele>709.31</ele>
  <time>2026-09-01T20:00:26Z</time>
  <course>6.69</course>
  <speed>25.85</speed>
  <fix>3d</fix>
</trkpt>
<trkpt lat="-35.2811489" lon="148.9855017">
  <ele>708.56</ele>
  <time>2026-09-01T20:00:26Z</time>
  <course>6.69</course>
  <speed>25.873347290213534</speed>
  <fix>3d</fix>
</trkpt>
<trkpt lat="-35.2811944" lon="148.9854954">
  <ele>709.02</ele>
  <time>2026-09-01T20:00:26Z</time>
  <course>6.68</course>
  <speed>25.85</speed>
  <fix>3d</fix>
</trkpt>
<trkpt lat="-35.2811258" lon="148.985505">
  <ele>708.4</ele>
  <time>2026-09-01T20:00:26Z</time>
  <course>6.69</course>
  <speed>25.873347290213534</speed>
  <fix>3d</fix>
</trkpt>
<trkpt lat="-35.2811944" lon="148.9854954">
  <ele>709.02</ele>
  <time>2026-09-01T20:00:26Z</time>
  <course>6.68</course>
  <speed>25.85</speed>
  <fix>3d</fix>
</trkpt>
<trkpt lat="-35.2811027" lon="148.9855083">
  <ele>708.24</ele>
  <time>2026-09-01T20:00:26Z</time>
  <course>6.68</course>
  <speed>25.874504826179763</speed>
  <fix>3d</fix>
</trkpt>
<trkpt lat="-35.2811481" lon="148.985502">
  <ele>708.72</ele>
  <time>2026-09-01T20:00:26Z</time>
  <course>6.68</course>
  <speed>25.86</speed>
  <fix>3d</fix>
</trkpt>
<trkpt lat="-35.2810797" lon="148.9855116">
  <ele>708.08</ele>
  <time>2026-09-01T20:00:26Z</time>
  <course>6.67</course>
  <speed>25.874504826179763</speed>
  <fix>3d</fix>
</trkpt>
<trkpt lat="-35.2811481" lon="148.985502">
  <ele>708.72</ele>
  <time>2026-09-01T20:00:26Z</time>
  <course>6.68</course>
  <speed>25.86</speed>
  <fix>3d</fix>
</trkpt>
<trkpt lat="-35.2810566" lon="148.9855149">
  <ele>707.91</ele>
  <time>2026-09-01T20:00:26Z</time>
  <course>6.65</course>
  <speed>25.874504826179763</speed>
  <fix>3d</fix>
</trkpt>
<trkpt lat="-35.281102" lon="148.9855086">
  <ele>708.41</ele>
  <time>2026-09-01T20:00:26Z</time>
  <course>6.69</course>
  <speed>25.86</speed>
  <fix>3d</fix>
</trkpt>
<trkpt lat="-35.2810335" lon="148.9855182">
  <ele>707.74</ele>
  <time>2026-09-01T20:00:26Z</time>
  <course>6.64</course>
  <speed>25.874504826179763</speed>
  <fix>3d</fix>
</trkpt>
<trkpt lat="-35.281102" lon="148.9855086">
  <ele>708.41</ele>
  <time>2026-09-01T20:00:26Z</time>
  <course>6.69</course>
  <speed>25.86</speed>
  <fix>3d</fix>
</trkpt>
<trkpt lat="-35.2810105" lon="148.9855216">
  <ele>707.57</ele>
  <time>2026-09-01T20:00:26Z</time>
  <course>6.67</course>
  <speed>25.874504826179763</speed>
  <fix>3d</fix>
</trkpt>
<trkpt lat="-35.2810559" lon="148.9855153">
  <ele>708.08</ele>
  <time>2026-09-01T20:00:26Z</time>
  <course>6.7</course>
  <speed>25.86</speed>
  <fix>3d</fix>
</trkpt>
<trkpt lat="-35.2809874" lon="148.9855249">
  <ele>707.39</ele>
  <time>2026-09-01T20:00:27Z</time>
  <course>6.63</course>
  <speed>25.874504826179763</speed>
  <fix>3d</fix>
</trkpt>
<trkpt lat="-35.2810559" lon="148.9855153">
  <ele>708.08</ele>
  <time>2026-09-01T20:00:27Z</time>
  <course>6.7</course>
  <speed>25.86</speed>
  <fix>3d</fix>
</trkpt>
<trkpt lat="-35.2809645" lon="148.9855282">
  <ele>707.2</ele>
  <time>2026-09-01T20:00:27Z</time>
  <course>6.59</course>
  <speed>25.875666174999242</speed>
  <fix>3d</fix>
</trkpt>
<trkpt lat="-35.2810098" lon="148.9855219">
  <ele>707.74</ele>
  <time>2026-09-01T20:00:27Z</time>
  <course>6.71</course>
  <speed>25.87</speed>
  <fix>3d</fix>
</trkpt>
<trkpt lat="-35.2809414" lon="148.9855315">
  <ele>707.02</ele>
  <time>2026-09-01T20:00:27Z</time>
  <course>6.63</course>
  <speed>25.88443740937786</speed>
  <fix>3d</fix>
</trkpt>
<trkpt lat="-35.2810098" lon="148.9855219">
  <ele>707.74</ele>
  <time>2026-09-01T20:00:27Z</time>
  <course>6.71</course>
  <speed>25.87</speed>
  <fix>3d</fix>
</trkpt>
<trkpt lat="-35.2809184" lon="148.9855349">
  <ele>706.82</ele>
  <time>2026-09-01T20:00:27Z</time>
  <course>6.62</course>
  <speed>25.88443740937786</speed>
  <fix>3d</fix>
</trkpt>
<trkpt lat="-35.2809636" lon="148.9855286">
  <ele>707.37</ele>
  <time>2026-09-01T20:00:27Z</time>
  <course>6.71</course>
  <speed>25.87</speed>
  <fix>3d</fix>
</trkpt>
<trkpt lat="-35.2808953" lon="148.9855382">
  <ele>706.62</ele>
  <time>2026-09-01T20:00:27Z</time>
  <course>6.63</course>
  <speed>25.88443740937786</speed>
  <fix>3d</fix>
</trkpt>
<trkpt lat="-35.2809636" lon="148.9855286">
  <ele>707.37</ele>
  <time>2026-09-01T20:00:27Z</time>
  <course>6.71</course>
  <speed>25.87</speed>
  <fix>3d</fix>
</trkpt>
<trkpt lat="-35.280872" lon="148.9855415">
  <ele>706.41</ele>
  <time>2026-09-01T20:00:27Z</time>
  <course>6.62</course>
  <speed>25.88443740937786</speed>
  <fix>3d</fix>
</trkpt>
<trkpt lat="-35.2809175" lon="148.9855352">
  <ele>706.99</ele>
  <time>2026-09-01T20:00:27Z</time>
  <course>6.71</course>
  <speed>25.88</speed>
  <fix>3d</fix>
</trkpt>
<trkpt lat="-35.2808489" lon="148.9855449">
  <ele>706.2</ele>
  <time>2026-09-01T20:00:27Z</time>
  <course>6.6</course>
  <speed>25.893213396563976</speed>
  <fix>3d</fix>
</trkpt>
<trkpt lat="-35.2809175" lon="148.9855352">
  <ele>706.99</ele>
  <time>2026-09-01T20:00:27Z</time>
  <course>6.71</course>
  <speed>25.88</speed>
  <fix>3d</fix>
</trkpt>
<trkpt lat="-35.2808258" lon="148.9855482">
  <ele>705.98</ele>
  <time>2026-09-01T20:00:27Z</time>
  <course>6.6</course>
  <speed>25.893213396563976</speed>
  <fix>3d</fix>
</trkpt>
<trkpt lat="-35.2808713" lon="148.9855418">
  <ele>706.57</ele>
  <time>2026-09-01T20:00:27Z</time>
  <course>6.69</course>
  <speed>25.88</speed>
  <fix>3d</fix>
</trkpt>
<trkpt lat="-35.2808026" lon="148.9855515">
  <ele>705.76</ele>
  <time>2026-09-01T20:00:27Z</time>
  <course>6.62</course>
  <speed>25.893213396563976</speed>
  <fix>3d</fix>
</trkpt>
<trkpt lat="-35.2808713" lon="148.9855418">
  <ele>706.57</ele>
  <time>2026-09-01T20:00:27Z</time>
  <course>6.69</course>
  <speed>25.88</speed>
  <fix>3d</fix>
</trkpt>
<trkpt lat="-35.2807795" lon="148.9855548">
  <ele>705.54</ele>
  <time>2026-09-01T20:00:27Z</time>
  <course>6.63</course>
  <speed>25.901994131726614</speed>
  <fix>3d</fix>
</trkpt>
<trkpt lat="-35.2808251" lon="148.9855485">
  <ele>706.15</ele>
  <time>2026-09-01T20:00:27Z</time>
  <course>6.68</course>
  <speed>25.89</speed>
  <fix>3d</fix>
</trkpt>
<trkpt lat="-35.2807564" lon="148.9855581">
  <ele>705.31</ele>
  <time>2026-09-01T20:00:27Z</time>
  <course>6.61</course>
  <speed>25.901994131726614</speed>
  <fix>3d</fix>
</trkpt>
<trkpt lat="-35.2808251" lon="148.9855485">
  <ele>706.15</ele>
  <time>2026-09-01T20:00:27Z</time>
  <course>6.68</course>
  <speed>25.89</speed>
  <fix>3d</fix>
</trkpt>
<trkpt lat="-35.2807332" lon="148.9855614">
  <ele>705.08</ele>
  <time>2026-09-01T20:00:27Z</time>
  <course>6.6</course>
  <speed>25.901994131726614</speed>
  <fix>3d</fix>
</trkpt>
<trkpt lat="-35.2807789" lon="148.9855552">
  <ele>705.71</ele>
  <time>2026-09-01T20:00:27Z</time>
  <course>6.66</course>
  <speed>25.89</speed>
  <fix>3d</fix>
</trkpt>
<trkpt lat="-35.2807101" lon="148.9855647">
  <ele>704.85</ele>
  <time>2026-09-01T20:00:27Z</time>
  <course>6.56</course>
  <speed>25.911927755379374</speed>
  <fix>3d</fix>
</trkpt>
<trkpt lat="-35.2807789" lon="148.9855552">
  <ele>705.71</ele>
  <time>2026-09-01T20:00:27Z</time>
  <course>6.66</course>
  <speed>25.89</speed>
  <fix>3d</fix>
</trkpt>
<trkpt lat="-35.280687" lon="148.985568">
  <ele>704.61</ele>
  <time>2026-09-01T20:00:27Z</time>
  <course>6.56</course>
  <speed>25.911927755379374</speed>
  <fix>3d</fix>
</trkpt>
<trkpt lat="-35.2807327" lon="148.9855618">
  <ele>705.25</ele>
  <time>2026-09-01T20:00:27Z</time>
  <course>6.65</course>
  <speed>25.9</speed>
  <fix>3d</fix>
</trkpt>
<trkpt lat="-35.2806638" lon="148.9855713">
  <ele>704.36</ele>
  <time>2026-09-01T20:00:27Z</time>
  <course>6.58</course>
  <speed>25.92186143007481</speed>
  <fix>3d</fix>
</trkpt>
<trkpt lat="-35.2807327" lon="148.9855618">
  <ele>705.25</ele>
  <time>2026-09-01T20:00:27Z</time>
  <course>6.65</course>
  <speed>25.9</speed>
  <fix>3d</fix>
</trkpt>
<trkpt lat="-35.2806407" lon="148.9855747">
  <ele>704.12</ele>
  <time>2026-09-01T20:00:27Z</time>
  <course>6.59</course>
  <speed>25.92186143007481</speed>
  <fix>3d</fix>
</trkpt>
<trkpt lat="-35.2806863" lon="148.9855683">
  <ele>704.78</ele>
  <time>2026-09-01T20:00:27Z</time>
  <course>6.65</course>
  <speed>25.91</speed>
  <fix>3d</fix>
</trkpt>
<trkpt lat="-35.2806175" lon="148.985578">
  <ele>703.87</ele>
  <time>2026-09-01T20:00:27Z</time>
  <course>6.58</course>
  <speed>25.93179515575426</speed>
  <fix>3d</fix>
</trkpt>
<trkpt lat="-35.2806863" lon="148.9855683">
  <ele>704.78</ele>
  <time>2026-09-01T20:00:27Z</time>
  <course>6.65</course>
  <speed>25.91</speed>
  <fix>3d</fix>
</trkpt>
<trkpt lat="-35.2805943" lon="148.9855813">
  <ele>703.62</ele>
  <time>2026-09-01T20:00:27Z</time>
  <course>6.59</course>
  <speed>25.941728932359155</speed>
  <fix>3d</fix>
</trkpt>
<trkpt lat="-35.2806401" lon="148.9855749">
  <ele>704.29</ele>
  <time>2026-09-01T20:00:27Z</time>
  <course>6.65</course>
  <speed>25.92</speed>
  <fix>3d</fix>
</trkpt>
<trkpt lat="-35.2805712" lon="148.9855846">
  <ele>703.36</ele>
  <time>2026-09-01T20:00:27Z</time>
  <course>6.6</course>
  <speed>25.941728932359155</speed>
  <fix>3d</fix>
</trkpt>
<trkpt lat="-35.2806401" lon="148.9855749">
  <ele>704.29</ele>
  <time>2026-09-01T20:00:27Z</time>
  <course>6.65</course>
  <speed>25.92</speed>
  <fix>3d</fix>
</trkpt>
<trkpt lat="-35.280548" lon="148.9855879">
  <ele>703.1</ele>
  <time>2026-09-01T20:00:27Z</time>
  <course>6.62</course>
  <speed>25.951662759831017</speed>
  <fix>3d</fix>
</trkpt>
<trkpt lat="-35.2805938" lon="148.9855816">
  <ele>703.8</ele>
  <time>2026-09-01T20:00:27Z</time>
  <course>6.65</course>
  <speed>25.93</speed>
  <fix>3d</fix>
</trkpt>
<trkpt lat="-35.2805248" lon="148.9855912">
  <ele>702.85</ele>
  <time>2026-09-01T20:00:27Z</time>
  <course>6.6</course>
  <speed>25.951662759831017</speed>
  <fix>3d</fix>
</trkpt>
<trkpt lat="-35.2805938" lon="148.9855816">
  <ele>703.8</ele>
  <time>2026-09-01T20:00:27Z</time>
  <course>6.65</course>
  <speed>25.93</speed>
  <fix>3d</fix>
</trkpt>
<trkpt lat="-35.2805016" lon="148.9855945">
  <ele>702.59</ele>
  <time>2026-09-01T20:00:27Z</time>
  <course>6.59</course>
  <speed>25.9627463878535</speed>
  <fix>3d</fix>
</trkpt>
<trkpt lat="-35.2805476" lon="148.9855882">
  <ele>703.29</ele>
  <time>2026-09-01T20:00:27Z</time>
  <course>6.65</course>
  <speed>25.94</speed>
  <fix>3d</fix>
</trkpt>
<trkpt lat="-35.2804786" lon="148.9855978">
  <ele>702.33</ele>
  <time>2026-09-01T20:00:27Z</time>
  <course>6.61</course>
  <speed>25.961596638111455</speed>
  <fix>3d</fix>
</trkpt>
<trkpt lat="-35.2805476" lon="148.9855882">
  <ele>703.29</ele>
  <time>2026-09-01T20:00:27Z</time>
  <course>6.65</course>
  <speed>25.94</speed>
  <fix>3d</fix>
</trkpt>
<trkpt lat="-35.2804554" lon="148.9856011">
  <ele>702.07</ele>
  <time>2026-09-01T20:00:27Z</time>
  <course>6.58</course>
  <speed>25.971530567142167</speed>
  <fix>3d</fix>
</trkpt>
<trkpt lat="-35.2805013" lon="148.9855948">
  <ele>702.77</ele>
  <time>2026-09-01T20:00:27Z</time>
  <course>6.66</course>
  <speed>25.95</speed>
  <fix>3d</fix>
</trkpt>
<trkpt lat="-35.2804322" lon="148.9856044">
  <ele>701.8</ele>
  <time>2026-09-01T20:00:27Z</time>
  <course>6.55</course>
  <speed>25.971530567142167</speed>
  <fix>3d</fix>
</trkpt>
<trkpt lat="-35.2805013" lon="148.9855948">
  <ele>702.77</ele>
  <time>2026-09-01T20:00:27Z</time>
  <course>6.66</course>
  <speed>25.95</speed>
  <fix>3d</fix>
</trkpt>
<trkpt lat="-35.280409" lon="148.9856077">
  <ele>701.53</ele>
  <time>2026-09-01T20:00:27Z</time>
  <course>6.55</course>
  <speed>25.970385056829638</speed>
  <fix>3d</fix>
</trkpt>
<trkpt lat="-35.280455" lon="148.9856015">
  <ele>702.24</ele>
  <time>2026-09-01T20:00:27Z</time>
  <course>6.65</course>
  <speed>25.95</speed>
  <fix>3d</fix>
</trkpt>
<trkpt lat="-35.2803857" lon="148.9856111">
  <ele>701.26</ele>
  <time>2026-09-01T20:00:27Z</time>
  <course>6.57</course>
  <speed>25.970385056829638</speed>
  <fix>3d</fix>
</trkpt>
<trkpt lat="-35.280455" lon="148.9856015">
  <ele>702.24</ele>
  <time>2026-09-01T20:00:27Z</time>
  <course>6.65</course>
  <speed>25.95</speed>
  <fix>3d</fix>
</trkpt>
<trkpt lat="-35.2803625" lon="148.9856144">
  <ele>700.99</ele>
  <time>2026-09-01T20:00:27Z</time>
  <course>6.61</course>
  <speed>25.980319474556122</speed>
  <fix>3d</fix>
</trkpt>
<trkpt lat="-35.2804086" lon="148.985608">
  <ele>701.71</ele>
  <time>2026-09-01T20:00:27Z</time>
  <course>6.63</course>
  <speed>25.96</speed>
  <fix>3d</fix>
</trkpt>
<trkpt lat="-35.2803393" lon="148.9856177">
  <ele>700.72</ele>
  <time>2026-09-01T20:00:27Z</time>
  <course>6.59</course>
  <speed>25.980319474556122</speed>
  <fix>3d</fix>
</trkpt>
<trkpt lat="-35.2804086" lon="148.985608">
  <ele>701.71</ele>
  <time>2026-09-01T20:00:27Z</time>
  <course>6.63</course>
  <speed>25.96</speed>
  <fix>3d</fix>
</trkpt>
<trkpt lat="-35.2803161" lon="148.985621">
  <ele>700.45</ele>
  <time>2026-09-01T20:00:27Z</time>
  <course>6.58</course>
  <speed>25.980319474556122</speed>
  <fix>3d</fix>
</trkpt>
<trkpt lat="-35.2803623" lon="148.9856146">
  <ele>701.17</ele>
  <time>2026-09-01T20:00:27Z</time>
  <course>6.62</course>
  <speed>25.96</speed>
  <fix>3d</fix>
</trkpt>
<trkpt lat="-35.2802929" lon="148.9856242">
  <ele>700.17</ele>
  <time>2026-09-01T20:00:27Z</time>
  <course>6.57</course>
  <speed>25.980319474556122</speed>
  <fix>3d</fix>
</trkpt>
<trkpt lat="-35.2803623" lon="148.9856146">
  <ele>701.17</ele>
  <time>2026-09-01T20:00:27Z</time>
  <course>6.62</course>
  <speed>25.96</speed>
  <fix>3d</fix>
</trkpt>
<trkpt lat="-35.2802697" lon="148.9856276">
  <ele>699.89</ele>
  <time>2026-09-01T20:00:27Z</time>
  <course>6.57</course>
  <speed>25.980319474556122</speed>
  <fix>3d</fix>
</trkpt>
<trkpt lat="-35.280316" lon="148.9856213">
  <ele>700.62</ele>
  <time>2026-09-01T20:00:27Z</time>
  <course>6.62</course>
  <speed>25.96</speed>
  <fix>3d</fix>
</trkpt>
<trkpt lat="-35.2802465" lon="148.9856308">
  <ele>699.61</ele>
  <time>2026-09-01T20:00:27Z</time>
  <course>6.59</course>
  <speed>25.980319474556122</speed>
  <fix>3d</fix>
</trkpt>
<trkpt lat="-35.280316" lon="148.9856213">
  <ele>700.62</ele>
  <time>2026-09-01T20:00:27Z</time>
  <course>6.62</course>
  <speed>25.96</speed>
  <fix>3d</fix>
</trkpt>
<trkpt lat="-35.2802233" lon="148.9856342">
  <ele>699.33</ele>
  <time>2026-09-01T20:00:27Z</time>
  <course>6.57</course>
  <speed>25.980319474556122</speed>
  <fix>3d</fix>
</trkpt>
<trkpt lat="-35.2802697" lon="148.9856279">
  <ele>700.07</ele>
  <time>2026-09-01T20:00:27Z</time>
  <course>6.62</course>
  <speed>25.96</speed>
  <fix>3d</fix>
</trkpt>
<trkpt lat="-35.2802002" lon="148.9856375">
  <ele>699.05</ele>
  <time>2026-09-01T20:00:27Z</time>
  <course>6.62</course>
  <speed>25.981464546864945</speed>
  <fix>3d</fix>
</trkpt>
<trkpt lat="-35.2802697" lon="148.9856279">
  <ele>700.07</ele>
  <time>2026-09-01T20:00:27Z</time>
  <course>6.62</course>
  <speed>25.96</speed>
  <fix>3d</fix>
</trkpt>
<trkpt lat="-35.2801768" lon="148.9856408">
  <ele>698.77</ele>
  <time>2026-09-01T20:00:27Z</time>
  <course>6.63</course>
  <speed>25.981464546864945</speed>
  <fix>3d</fix>
</trkpt>
<trkpt lat="-35.2802233" lon="148.9856345">
  <ele>699.52</ele>
  <time>2026-09-01T20:00:27Z</time>
  <course>6.62</course>
  <speed>25.97</speed>
  <fix>3d</fix>
</trkpt>
<trkpt lat="-35.2801536" lon="148.9856441">
  <ele>698.49</ele>
  <time>2026-09-01T20:00:27Z</time>
  <course>6.62</course>
  <speed>25.982613417437438</speed>
  <fix>3d</fix>
</trkpt>
<trkpt lat="-35.2802233" lon="148.9856345">
  <ele>699.52</ele>
  <time>2026-09-01T20:00:27Z</time>
  <course>6.62</course>
  <speed>25.97</speed>
  <fix>3d</fix>
</trkpt>
<trkpt lat="-35.2801305" lon="148.9856474">
  <ele>698.21</ele>
  <time>2026-09-01T20:00:27Z</time>
  <course>6.64</course>
  <speed>25.982613417437438</speed>
  <fix>3d</fix>
</trkpt>
<trkpt lat="-35.2801768" lon="148.9856411">
  <ele>698.96</ele>
  <time>2026-09-01T20:00:27Z</time>
  <course>6.63</course>
  <speed>25.97</speed>
  <fix>3d</fix>
</trkpt>
<trkpt lat="-35.2801073" lon="148.9856507">
  <ele>697.94</ele>
  <time>2026-09-01T20:00:27Z</time>
  <course>6.64</course>
  <speed>25.973832986296035</speed>
  <fix>3d</fix>
</trkpt>
<trkpt lat="-35.2801768" lon="148.9856411">
  <ele>698.96</ele>
  <time>2026-09-01T20:00:27Z</time>
  <course>6.63</course>
  <speed>25.97</speed>
  <fix>3d</fix>
</trkpt>
<trkpt lat="-35.2800841" lon="148.9856541">
  <ele>697.66</ele>
  <time>2026-09-01T20:00:27Z</time>
  <course>6.61</course>
  <speed>25.973832986296035</speed>
  <fix>3d</fix>
</trkpt>
<trkpt lat="-35.2801305" lon="148.9856476">
  <ele>698.42</ele>
  <time>2026-09-01T20:00:27Z</time>
  <course>6.65</course>
  <speed>25.96</speed>
  <fix>3d</fix>
</trkpt>
<trkpt lat="-35.280061" lon="148.9856574">
  <ele>697.39</ele>
  <time>2026-09-01T20:00:27Z</time>
  <course>6.61</course>
  <speed>25.973832986296035</speed>
  <fix>3d</fix>
</trkpt>
<trkpt lat="-35.2801305" lon="148.9856476">
  <ele>698.42</ele>
  <time>2026-09-01T20:00:27Z</time>
  <course>6.65</course>
  <speed>25.96</speed>
  <fix>3d</fix>
</trkpt>
<trkpt lat="-35.2800378" lon="148.9856607">
  <ele>697.11</ele>
  <time>2026-09-01T20:00:27Z</time>
  <course>6.6</course>
  <speed>25.973832986296035</speed>
  <fix>3d</fix>
</trkpt>
<trkpt lat="-35.2800842" lon="148.9856543">
  <ele>697.88</ele>
  <time>2026-09-01T20:00:27Z</time>
  <course>6.67</course>
  <speed>25.96</speed>
  <fix>3d</fix>
</trkpt>
<trkpt lat="-35.2800148" lon="148.985664">
  <ele>696.85</ele>
  <time>2026-09-01T20:00:27Z</time>
  <course>6.58</course>
  <speed>25.9638999381834</speed>
  <fix>3d</fix>
</trkpt>
<trkpt lat="-35.2800842" lon="148.9856543">
  <ele>697.88</ele>
  <time>2026-09-01T20:00:27Z</time>
  <course>6.67</course>
  <speed>25.96</speed>
  <fix>3d</fix>
</trkpt>
<trkpt lat="-35.2799917" lon="148.9856673">
  <ele>696.58</ele>
  <time>2026-09-01T20:00:27Z</time>
  <course>6.59</course>
  <speed>25.952812949659233</speed>
  <fix>3d</fix>
</trkpt>
<trkpt lat="-35.2800379" lon="148.985661">
  <ele>697.34</ele>
  <time>2026-09-01T20:00:27Z</time>
  <course>6.67</course>
  <speed>25.95</speed>
  <fix>3d</fix>
</trkpt>
<trkpt lat="-35.2799686" lon="148.9856706">
  <ele>696.32</ele>
  <time>2026-09-01T20:00:27Z</time>
  <course>6.59</course>
  <speed>25.952812949659233</speed>
  <fix>3d</fix>
</trkpt>
<trkpt lat="-35.2800379" lon="148.985661">
  <ele>697.34</ele>
  <time>2026-09-01T20:00:27Z</time>
  <course>6.67</course>
  <speed>25.95</speed>
  <fix>3d</fix>
</trkpt>
<trkpt lat="-35.2799454" lon="148.985674">
  <ele>696.06</ele>
  <time>2026-09-01T20:00:27Z</time>
  <course>6.59</course>
  <speed>25.942879562608308</speed>
  <fix>3d</fix>
</trkpt>
<trkpt lat="-35.2799916" lon="148.9856676">
  <ele>696.81</ele>
  <time>2026-09-01T20:00:27Z</time>
  <course>6.66</course>
  <speed>25.94</speed>
  <fix>3d</fix>
</trkpt>
<trkpt lat="-35.2799223" lon="148.9856773">
  <ele>695.79</ele>
  <time>2026-09-01T20:00:27Z</time>
  <course>6.6</course>
  <speed>25.93179515575426</speed>
  <fix>3d</fix>
</trkpt>
<trkpt lat="-35.2799916" lon="148.9856676">
  <ele>696.81</ele>
  <time>2026-09-01T20:00:27Z</time>
  <course>6.66</course>
  <speed>25.94</speed>
  <fix>3d</fix>
</trkpt>
<trkpt lat="-35.279899" lon="148.9856806">
  <ele>695.53</ele>
  <time>2026-09-01T20:00:27Z</time>
  <course>6.57</course>
  <speed>25.92186143007481</speed>
  <fix>3d</fix>
</trkpt>
<trkpt lat="-35.2799453" lon="148.9856742">
  <ele>696.29</ele>
  <time>2026-09-01T20:00:27Z</time>
  <course>6.65</course>
  <speed>25.92</speed>
  <fix>3d</fix>
</trkpt>
<trkpt lat="-35.2798758" lon="148.9856839">
  <ele>695.27</ele>
  <time>2026-09-01T20:00:27Z</time>
  <course>6.57</course>
  <speed>25.911927755379374</speed>
  <fix>3d</fix>
</trkpt>
<trkpt lat="-35.2799453" lon="148.9856742">
  <ele>696.29</ele>
  <time>2026-09-01T20:00:27Z</time>
  <course>6.65</course>
  <speed>25.92</speed>
  <fix>3d</fix>
</trkpt>
<trkpt lat="-35.2798527" lon="148.9856872">
  <ele>695.01</ele>
  <time>2026-09-01T20:00:27Z</time>
  <course>6.56</course>
  <speed>25.901994131726614</speed>
  <fix>3d</fix>
</trkpt>
<trkpt lat="-35.2798991" lon="148.9856807">
  <ele>695.77</ele>
  <time>2026-09-01T20:00:27Z</time>
  <course>6.64</course>
  <speed>25.91</speed>
  <fix>3d</fix>
</trkpt>
<trkpt lat="-35.2798296" lon="148.9856905">
  <ele>694.75</ele>
  <time>2026-09-01T20:00:27Z</time>
  <course>6.57</course>
  <speed>25.89091153281398</speed>
  <fix>3d</fix>
</trkpt>
<trkpt lat="-35.2798991" lon="148.9856807">
  <ele>695.77</ele>
  <time>2026-09-01T20:00:27Z</time>
  <course>6.64</course>
  <speed>25.91</speed>
  <fix>3d</fix>
</trkpt>
<trkpt lat="-35.2798066" lon="148.9856938">
  <ele>694.49</ele>
  <time>2026-09-01T20:00:27Z</time>
  <course>6.59</course>
  <speed>25.880977570408735</speed>
  <fix>3d</fix>
</trkpt>
<trkpt lat="-35.2798529" lon="148.9856874">
  <ele>695.25</ele>
  <time>2026-09-01T20:00:27Z</time>
  <course>6.63</course>
  <speed>25.89</speed>
  <fix>3d</fix>
</trkpt>
<trkpt lat="-35.2797835" lon="148.9856971">
  <ele>694.23</ele>
  <time>2026-09-01T20:00:27Z</time>
  <course>6.6</course>
  <speed>25.87104365888628</speed>
  <fix>3d</fix>
</trkpt>
<trkpt lat="-35.2798529" lon="148.9856874">
  <ele>695.25</ele>
  <time>2026-09-01T20:00:27Z</time>
  <course>6.63</course>
  <speed>25.89</speed>
  <fix>3d</fix>
</trkpt>
<trkpt lat="-35.2797604" lon="148.9857004">
  <ele>693.97</ele>
  <time>2026-09-01T20:00:27Z</time>
  <course>6.6</course>
  <speed>25.861109798305257</speed>
  <fix>3d</fix>
</trkpt>
<trkpt lat="-35.2798067" lon="148.985694">
  <ele>694.74</ele>
  <time>2026-09-01T20:00:27Z</time>
  <course>6.63</course>
  <speed>25.87</speed>
  <fix>3d</fix>
</trkpt>
<trkpt lat="-35.2797374" lon="148.9857036">
  <ele>693.71</ele>
  <time>2026-09-01T20:00:27Z</time>
  <course>6.6</course>
  <speed>25.851175988724382</speed>
  <fix>3d</fix>
</trkpt>
<trkpt lat="-35.2798067" lon="148.985694">
  <ele>694.74</ele>
  <time>2026-09-01T20:00:27Z</time>
  <course>6.63</course>
  <speed>25.87</speed>
  <fix>3d</fix>
</trkpt>
<trkpt lat="-35.2797143" lon="148.9857069">
  <ele>693.45</ele>
  <time>2026-09-01T20:00:27Z</time>
  <course>6.56</course>
  <speed>25.84124223020248</speed>
  <fix>3d</fix>
</trkpt>
<trkpt lat="-35.2797605" lon="148.9857006">
  <ele>694.22</ele>
  <time>2026-09-01T20:00:27Z</time>
  <course>6.63</course>
  <speed>25.85</speed>
  <fix>3d</fix>
</trkpt>
<trkpt lat="-35.2796913" lon="148.9857102">
  <ele>693.19</ele>
  <time>2026-09-01T20:00:27Z</time>
  <course>6.58</course>
  <speed>25.831308522798455</speed>
  <fix>3d</fix>
</trkpt>
<trkpt lat="-35.2797605" lon="148.9857006">
  <ele>694.22</ele>
  <time>2026-09-01T20:00:27Z</time>
  <course>6.63</course>
  <speed>25.85</speed>
  <fix>3d</fix>
</trkpt>
<trkpt lat="-35.2796683" lon="148.9857135">
  <ele>692.93</ele>
  <time>2026-09-01T20:00:27Z</time>
  <course>6.58</course>
  <speed>25.8213748665713</speed>
  <fix>3d</fix>
</trkpt>
<trkpt lat="-35.2797143" lon="148.9857071">
  <ele>693.7</ele>
  <time>2026-09-01T20:00:27Z</time>
  <course>6.64</course>
  <speed>25.83</speed>
  <fix>3d</fix>
</trkpt>
<trkpt lat="-35.2796452" lon="148.9857168">
  <ele>692.67</ele>
  <time>2026-09-01T20:00:27Z</time>
  <course>6.59</course>
  <speed>25.811441261580107</speed>
  <fix>3d</fix>
</trkpt>
<trkpt lat="-35.2797143" lon="148.9857071">
  <ele>693.7</ele>
  <time>2026-09-01T20:00:27Z</time>
  <course>6.64</course>
  <speed>25.83</speed>
  <fix>3d</fix>
</trkpt>
<trkpt lat="-35.2796222" lon="148.9857201">
  <ele>692.41</ele>
  <time>2026-09-01T20:00:27Z</time>
  <course>6.59</course>
  <speed>25.80150770788405</speed>
  <fix>3d</fix>
</trkpt>
<trkpt lat="-35.2796682" lon="148.9857137">
  <ele>693.18</ele>
  <time>2026-09-01T20:00:27Z</time>
  <course>6.64</course>
  <speed>25.81</speed>
  <fix>3d</fix>
</trkpt>
<trkpt lat="-35.2795992" lon="148.9857234">
  <ele>692.15</ele>
  <time>2026-09-01T20:00:27Z</time>
  <course>6.57</course>
  <speed>25.791574205542396</speed>
  <fix>3d</fix>
</trkpt>
<trkpt lat="-35.2796682" lon="148.9857137">
  <ele>693.18</ele>
  <time>2026-09-01T20:00:27Z</time>
  <course>6.64</course>
  <speed>25.81</speed>
  <fix>3d</fix>
</trkpt>
<trkpt lat="-35.2795762" lon="148.9857267">
  <ele>691.9</ele>
  <time>2026-09-01T20:00:27Z</time>
  <course>6.53</course>
  <speed>25.780490685787964</speed>
  <fix>3d</fix>
</trkpt>
<trkpt lat="-35.2796222" lon="148.9857203">
  <ele>692.66</ele>
  <time>2026-09-01T20:00:27Z</time>
  <course>6.64</course>
  <speed>25.8</speed>
  <fix>3d</fix>
</trkpt>
<trkpt lat="-35.2795532" lon="148.9857299">
  <ele>691.64</ele>
  <time>2026-09-01T20:00:27Z</time>
  <course>6.54</course>
  <speed>25.770556843033095</speed>
  <fix>3d</fix>
</trkpt>
<trkpt lat="-35.2796222" lon="148.9857203">
  <ele>692.66</ele>
  <time>2026-09-01T20:00:27Z</time>
  <course>6.64</course>
  <speed>25.8</speed>
  <fix>3d</fix>
</trkpt>
<trkpt lat="-35.2795302" lon="148.9857332">
  <ele>691.38</ele>
  <time>2026-09-01T20:00:27Z</time>
  <course>6.56</course>
  <speed>25.76941016011038</speed>
  <fix>3d</fix>
</trkpt>
<trkpt lat="-35.2795761" lon="148.9857268">
  <ele>692.14</ele>
  <time>2026-09-01T20:00:27Z</time>
  <course>6.63</course>
  <speed>25.78</speed>
  <fix>3d</fix>
</trkpt>
<trkpt lat="-35.2795072" lon="148.9857365">
  <ele>691.12</ele>
  <time>2026-09-01T20:00:27Z</time>
  <course>6.56</course>
  <speed>25.759475926346017</speed>
  <fix>3d</fix>
</trkpt>
<trkpt lat="-35.2795761" lon="148.9857268">
  <ele>692.14</ele>
  <time>2026-09-01T20:00:27Z</time>
  <course>6.63</course>
  <speed>25.78</speed>
  <fix>3d</fix>
</trkpt>
<trkpt lat="-35.2794844" lon="148.9857397">
  <ele>690.85</ele>
  <time>2026-09-01T20:00:27Z</time>
  <course>6.53</course>
  <speed>25.738463435100392</speed>
  <fix>3d</fix>
</trkpt>
<trkpt lat="-35.2795301" lon="148.9857333">
  <ele>691.62</ele>
  <time>2026-09-01T20:00:27Z</time>
  <course>6.61</course>
  <speed>25.76</speed>
  <fix>3d</fix>
</trkpt>
<trkpt lat="-35.2794615" lon="148.9857429">
  <ele>690.59</ele>
  <time>2026-09-01T20:00:27Z</time>
  <course>6.52</course>
  <speed>25.728528912473795</speed>
  <fix>3d</fix>
</trkpt>
<trkpt lat="-35.2795301" lon="148.9857333">
  <ele>691.62</ele>
  <time>2026-09-01T20:00:27Z</time>
  <course>6.61</course>
  <speed>25.76</speed>
  <fix>3d</fix>
</trkpt>
<trkpt lat="-35.2794385" lon="148.9857462">
  <ele>690.32</ele>
  <time>2026-09-01T20:00:27Z</time>
  <course>6.51</course>
  <speed>25.7174532176108</speed>
  <fix>3d</fix>
</trkpt>
<trkpt lat="-35.2794842" lon="148.9857399">
  <ele>691.09</ele>
  <time>2026-09-01T20:00:27Z</time>
  <course>6.59</course>
  <speed>25.74</speed>
  <fix>3d</fix>
</trkpt>
<trkpt lat="-35.2794156" lon="148.9857494">
  <ele>690.06</ele>
  <time>2026-09-01T20:00:27Z</time>
  <course>6.52</course>
  <speed>25.706380530910998</speed>
  <fix>3d</fix>
</trkpt>
<trkpt lat="-35.2794842" lon="148.9857399">
  <ele>691.09</ele>
  <time>2026-09-01T20:00:27Z</time>
  <course>6.59</course>
  <speed>25.74</speed>
  <fix>3d</fix>
</trkpt>
<trkpt lat="-35.2793929" lon="148.9857526">
  <ele>689.8</ele>
  <time>2026-09-01T20:00:27Z</time>
  <course>6.52</course>
  <speed>25.69644527945451</speed>
  <fix>3d</fix>
</trkpt>
<trkpt lat="-35.2794383" lon="148.9857464">
  <ele>690.57</ele>
  <time>2026-09-01T20:00:27Z</time>
  <course>6.57</course>
  <speed>25.73</speed>
  <fix>3d</fix>
</trkpt>
<trkpt lat="-35.2793701" lon="148.9857558">
  <ele>689.53</ele>
  <time>2026-09-01T20:00:27Z</time>
  <course>6.51</course>
  <speed>25.685375216258766</speed>
  <fix>3d</fix>
</trkpt>
<trkpt lat="-35.2794383" lon="148.9857464">
  <ele>690.57</ele>
  <time>2026-09-01T20:00:27Z</time>
  <course>6.57</course>
  <speed>25.73</speed>
  <fix>3d</fix>
</trkpt>
<trkpt lat="-35.2793473" lon="148.985759">
  <ele>689.27</ele>
  <time>2026-09-01T20:00:27Z</time>
  <course>6.5</course>
  <speed>25.675439626226463</speed>
  <fix>3d</fix>
</trkpt>
<trkpt lat="-35.2793924" lon="148.9857529">
  <ele>690.04</ele>
  <time>2026-09-01T20:00:27Z</time>
  <course>6.56</course>
  <speed>25.71</speed>
  <fix>3d</fix>
</trkpt>
<trkpt lat="-35.2793245" lon="148.9857622">
  <ele>689.0</ele>
  <time>2026-09-01T20:00:27Z</time>
  <course>6.48</course>
  <speed>25.665504086224374</speed>
  <fix>3d</fix>
</trkpt>
<trkpt lat="-35.2793924" lon="148.9857529">
  <ele>690.04</ele>
  <time>2026-09-01T20:00:27Z</time>
  <course>6.56</course>
  <speed>25.71</speed>
  <fix>3d</fix>
</trkpt>
<trkpt lat="-35.2793017" lon="148.9857654">
  <ele>688.74</ele>
  <time>2026-09-01T20:00:27Z</time>
  <course>6.47</course>
  <speed>25.655568596310626</speed>
  <fix>3d</fix>
</trkpt>
<trkpt lat="-35.2793465" lon="148.9857593">
  <ele>689.51</ele>
  <time>2026-09-01T20:00:27Z</time>
  <course>6.55</course>
  <speed>25.7</speed>
  <fix>3d</fix>
</trkpt>
<trkpt lat="-35.279279" lon="148.9857686">
  <ele>688.47</ele>
  <time>2026-09-01T20:00:27Z</time>
  <course>6.49</course>
  <speed>25.645633156543436</speed>
  <fix>3d</fix>
</trkpt>
<trkpt lat="-35.2793465" lon="148.9857593">
  <ele>689.51</ele>
  <time>2026-09-01T20:00:27Z</time>
  <course>6.55</course>
  <speed>25.7</speed>
  <fix>3d</fix>
</trkpt>
<trkpt lat="-35.2792562" lon="148.9857718">
  <ele>688.21</ele>
  <time>2026-09-01T20:00:27Z</time>
  <course>6.49</course>
  <speed>25.634564556473357</speed>
  <fix>3d</fix>
</trkpt>
<trkpt lat="-35.2793006" lon="148.9857658">
  <ele>688.98</ele>
  <time>2026-09-01T20:00:27Z</time>
  <course>6.54</course>
  <speed>25.7</speed>
  <fix>3d</fix>
</trkpt>
<trkpt lat="-35.2792334" lon="148.985775">
  <ele>687.95</ele>
  <time>2026-09-01T20:00:27Z</time>
  <course>6.47</course>
  <speed>25.634564556473357</speed>
  <fix>3d</fix>
</trkpt>
<trkpt lat="-35.2793006" lon="148.9857658">
  <ele>688.98</ele>
  <time>2026-09-01T20:00:27Z</time>
  <course>6.54</course>
  <speed>25.7</speed>
  <fix>3d</fix>
</trkpt>
<trkpt lat="-35.2792106" lon="148.9857782">
  <ele>687.69</ele>
  <time>2026-09-01T20:00:27Z</time>
  <course>6.46</course>
  <speed>25.624628777798907</speed>
  <fix>3d</fix>
</trkpt>
<trkpt lat="-35.2792547" lon="148.9857722">
  <ele>688.45</ele>
  <time>2026-09-01T20:00:27Z</time>
  <course>6.54</course>
  <speed>25.69</speed>
  <fix>3d</fix>
</trkpt>
<trkpt lat="-35.2791878" lon="148.9857814">
  <ele>687.43</ele>
  <time>2026-09-01T20:00:27Z</time>
  <course>6.45</course>
  <speed>25.614693049107576</speed>
  <fix>3d</fix>
</trkpt>
<trkpt lat="-35.2792547" lon="148.9857722">
  <ele>688.45</ele>
  <time>2026-09-01T20:00:27Z</time>
  <course>6.54</course>
  <speed>25.69</speed>
  <fix>3d</fix>
</trkpt>
<trkpt lat="-35.2791649" lon="148.9857847">
  <ele>687.17</ele>
  <time>2026-09-01T20:00:27Z</time>
  <course>6.49</course>
  <speed>25.614693049107576</speed>
  <fix>3d</fix>
</trkpt>
<trkpt lat="-35.2792088" lon="148.9857787">
  <ele>687.93</ele>
  <time>2026-09-01T20:00:27Z</time>
  <course>6.54</course>
  <speed>25.69</speed>
  <fix>3d</fix>
</trkpt>
<trkpt lat="-35.2791421" lon="148.9857879">
  <ele>686.91</ele>
  <time>2026-09-01T20:00:27Z</time>
  <course>6.47</course>
  <speed>25.614693049107576</speed>
  <fix>3d</fix>
</trkpt>
<trkpt lat="-35.2792088" lon="148.9857787">
  <ele>687.93</ele>
  <time>2026-09-01T20:00:27Z</time>
  <course>6.54</course>
  <speed>25.69</speed>
  <fix>3d</fix>
</trkpt>
<trkpt lat="-35.2791192" lon="148.9857911">
  <ele>686.66</ele>
  <time>2026-09-01T20:00:27Z</time>
  <course>6.46</course>
  <speed>25.614693049107576</speed>
  <fix>3d</fix>
</trkpt>
<trkpt lat="-35.2791629" lon="148.9857851">
  <ele>687.41</ele>
  <time>2026-09-01T20:00:27Z</time>
  <course>6.54</course>
  <speed>25.68</speed>
  <fix>3d</fix>
</trkpt>
<trkpt lat="-35.2790963" lon="148.9857943">
  <ele>686.4</ele>
  <time>2026-09-01T20:00:27Z</time>
  <course>6.5</course>
  <speed>25.613562813478328</speed>
  <fix>3d</fix>
</trkpt>
<trkpt lat="-35.2791629" lon="148.9857851">
  <ele>687.41</ele>
  <time>2026-09-01T20:00:27Z</time>
  <course>6.54</course>
  <speed>25.68</speed>
  <fix>3d</fix>
</trkpt>
<trkpt lat="-35.2790734" lon="148.9857975">
  <ele>686.15</ele>
  <time>2026-09-01T20:00:27Z</time>
  <course>6.46</course>
  <speed>25.613562813478328</speed>
  <fix>3d</fix>
</trkpt>
<trkpt lat="-35.2791171" lon="148.9857915">
  <ele>686.9</ele>
  <time>2026-09-01T20:00:27Z</time>
  <course>6.53</course>
  <speed>25.68</speed>
  <fix>3d</fix>
</trkpt>
<trkpt lat="-35.2790505" lon="148.9858007">
  <ele>685.9</ele>
  <time>2026-09-01T20:00:27Z</time>
  <course>6.42</course>
  <speed>25.613562813478328</speed>
  <fix>3d</fix>
</trkpt>
<trkpt lat="-35.2791171" lon="148.9857915">
  <ele>686.9</ele>
  <time>2026-09-01T20:00:27Z</time>
  <course>6.53</course>
  <speed>25.68</speed>
  <fix>3d</fix>
</trkpt>
<trkpt lat="-35.2790276" lon="148.9858039">
  <ele>685.65</ele>
  <time>2026-09-01T20:00:27Z</time>
  <course>6.41</course>
  <speed>25.61243643232717</speed>
  <fix>3d</fix>
</trkpt>
<trkpt lat="-35.2790713" lon="148.985798">
  <ele>686.4</ele>
  <time>2026-09-01T20:00:27Z</time>
  <course>6.52</course>
  <speed>25.67</speed>
  <fix>3d</fix>
</trkpt>
<trkpt lat="-35.2790047" lon="148.9858071">
  <ele>685.4</ele>
  <time>2026-09-01T20:00:27Z</time>
  <course>6.44</course>
  <speed>25.61243643232717</speed>
  <fix>3d</fix>
</trkpt>
<trkpt lat="-35.2790713" lon="148.985798">
  <ele>686.4</ele>
  <time>2026-09-01T20:00:27Z</time>
  <course>6.52</course>
  <speed>25.67</speed>
  <fix>3d</fix>
</trkpt>
<trkpt lat="-35.2789818" lon="148.9858103">
  <ele>685.16</ele>
  <time>2026-09-01T20:00:27Z</time>
  <course>6.47</course>
  <speed>25.61243643232717</speed>
  <fix>3d</fix>
</trkpt>
<trkpt lat="-35.2790255" lon="148.9858044">
  <ele>685.9</ele>
  <time>2026-09-01T20:00:27Z</time>
  <course>6.51</course>
  <speed>25.67</speed>
  <fix>3d</fix>
</trkpt>
<trkpt lat="-35.278959" lon="148.9858135">
  <ele>684.91</ele>
  <time>2026-09-01T20:00:27Z</time>
  <course>6.47</course>
  <speed>25.61243643232717</speed>
  <fix>3d</fix>
</trkpt>
<trkpt lat="-35.2790255" lon="148.9858044">
  <ele>685.9</ele>
  <time>2026-09-01T20:00:27Z</time>
  <course>6.51</course>
  <speed>25.67</speed>
  <fix>3d</fix>
</trkpt>
<trkpt lat="-35.2789361" lon="148.9858167">
  <ele>684.67</ele>
  <time>2026-09-01T20:00:27Z</time>
  <course>6.49</course>
  <speed>25.61243643232717</speed>
  <fix>3d</fix>
</trkpt>
<trkpt lat="-35.2789796" lon="148.9858108">
  <ele>685.4</ele>
  <time>2026-09-01T20:00:27Z</time>
  <course>6.5</course>
  <speed>25.66</speed>
  <fix>3d</fix>
</trkpt>
<trkpt lat="-35.2789132" lon="148.9858199">
  <ele>684.43</ele>
  <time>2026-09-01T20:00:27Z</time>
  <course>6.49</course>
  <speed>25.61243643232717</speed>
  <fix>3d</fix>
</trkpt>
<trkpt lat="-35.2789796" lon="148.9858108">
  <ele>685.4</ele>
  <time>2026-09-01T20:00:27Z</time>
  <course>6.5</course>
  <speed>25.66</speed>
  <fix>3d</fix>
</trkpt>
<trkpt lat="-35.2788899" lon="148.9858231">
  <ele>684.18</ele>
  <time>2026-09-01T20:00:27Z</time>
  <course>6.47</course>
  <speed>25.613562813478328</speed>
  <fix>3d</fix>
</trkpt>
<trkpt lat="-35.2789339" lon="148.9858171">
  <ele>684.91</ele>
  <time>2026-09-01T20:00:27Z</time>
  <course>6.51</course>
  <speed>25.66</speed>
  <fix>3d</fix>
</trkpt>
<trkpt lat="-35.278867" lon="148.9858263">
  <ele>683.94</ele>
  <time>2026-09-01T20:00:27Z</time>
  <course>6.48</course>
  <speed>25.613562813478328</speed>
  <fix>3d</fix>
</trkpt>
<trkpt lat="-35.2789339" lon="148.9858171">
  <ele>684.91</ele>
  <time>2026-09-01T20:00:27Z</time>
  <course>6.51</course>
  <speed>25.66</speed>
  <fix>3d</fix>
</trkpt>
<trkpt lat="-35.2788441" lon="148.9858295">
  <ele>683.7</ele>
  <time>2026-09-01T20:00:27Z</time>
  <course>6.47</course>
  <speed>25.613562813478328</speed>
  <fix>3d</fix>
</trkpt>
<trkpt lat="-35.2788881" lon="148.9858236">
  <ele>684.43</ele>
  <time>2026-09-01T20:00:27Z</time>
  <course>6.52</course>
  <speed>25.66</speed>
  <fix>3d</fix>
</trkpt>
<trkpt lat="-35.2788212" lon="148.9858327">
  <ele>683.47</ele>
  <time>2026-09-01T20:00:27Z</time>
  <course>6.45</course>
  <speed>25.624628777798907</speed>
  <fix>3d</fix>
</trkpt>
<trkpt lat="-35.2788881" lon="148.9858236">
  <ele>684.43</ele>
  <time>2026-09-01T20:00:27Z</time>
  <course>6.52</course>
  <speed>25.66</speed>
  <fix>3d</fix>
</trkpt>
<trkpt lat="-35.2787983" lon="148.985836">
  <ele>683.23</ele>
  <time>2026-09-01T20:00:27Z</time>
  <course>6.46</course>
  <speed>25.624628777798907</speed>
  <fix>3d</fix>
</trkpt>
<trkpt lat="-35.2788422" lon="148.98583">
  <ele>683.95</ele>
  <time>2026-09-01T20:00:27Z</time>
  <course>6.54</course>
  <speed>25.66</speed>
  <fix>3d</fix>
</trkpt>
<trkpt lat="-35.2787754" lon="148.9858392">
  <ele>682.99</ele>
  <time>2026-09-01T20:00:27Z</time>
  <course>6.45</course>
  <speed>25.624628777798907</speed>
  <fix>3d</fix>
</trkpt>
<trkpt lat="-35.2788422" lon="148.98583">
  <ele>683.95</ele>
  <time>2026-09-01T20:00:27Z</time>
  <course>6.54</course>
  <speed>25.66</speed>
  <fix>3d</fix>
</trkpt>
<trkpt lat="-35.2787525" lon="148.9858424">
  <ele>682.75</ele>
  <time>2026-09-01T20:00:27Z</time>
  <course>6.42</course>
  <speed>25.624628777798907</speed>
  <fix>3d</fix>
</trkpt>
<trkpt lat="-35.2787964" lon="148.9858365">
  <ele>683.47</ele>
  <time>2026-09-01T20:00:27Z</time>
  <course>6.54</course>
  <speed>25.66</speed>
  <fix>3d</fix>
</trkpt>
<trkpt lat="-35.2787296" lon="148.9858456">
  <ele>682.51</ele>
  <time>2026-09-01T20:00:27Z</time>
  <course>6.42</course>
  <speed>25.624628777798907</speed>
  <fix>3d</fix>
</trkpt>
<trkpt lat="-35.2787964" lon="148.9858365">
  <ele>683.47</ele>
  <time>2026-09-01T20:00:27Z</time>
  <course>6.54</course>
  <speed>25.66</speed>
  <fix>3d</fix>
</trkpt>
<trkpt lat="-35.2787067" lon="148.9858488">
  <ele>682.27</ele>
  <time>2026-09-01T20:00:27Z</time>
  <course>6.4</course>
  <speed>25.624628777798907</speed>
  <fix>3d</fix>
</trkpt>
<trkpt lat="-35.2787505" lon="148.985843">
  <ele>682.99</ele>
  <time>2026-09-01T20:00:27Z</time>
  <course>6.55</course>
  <speed>25.66</speed>
  <fix>3d</fix>
</trkpt>
<trkpt lat="-35.2786838" lon="148.9858521">
  <ele>682.04</ele>
  <time>2026-09-01T20:00:27Z</time>
  <course>6.44</course>
  <speed>25.624628777798907</speed>
  <fix>3d</fix>
</trkpt>
<trkpt lat="-35.2787505" lon="148.985843">
  <ele>682.99</ele>
  <time>2026-09-01T20:00:27Z</time>
  <course>6.55</course>
  <speed>25.66</speed>
  <fix>3d</fix>
</trkpt>
<trkpt lat="-35.2786609" lon="148.9858553">
  <ele>681.81</ele>
  <time>2026-09-01T20:00:27Z</time>
  <course>6.51</course>
  <speed>25.634564556473357</speed>
  <fix>3d</fix>
</trkpt>
<trkpt lat="-35.2787048" lon="148.9858494">
  <ele>682.52</ele>
  <time>2026-09-01T20:00:27Z</time>
  <course>6.54</course>
  <speed>25.66</speed>
  <fix>3d</fix>
</trkpt>
<trkpt lat="-35.278638" lon="148.9858585">
  <ele>681.57</ele>
  <time>2026-09-01T20:00:27Z</time>
  <course>6.53</course>
  <speed>25.635697766981107</speed>
  <fix>3d</fix>
</trkpt>
<trkpt lat="-35.2787048" lon="148.9858494">
  <ele>682.52</ele>
  <time>2026-09-01T20:00:27Z</time>
  <course>6.54</course>
  <speed>25.66</speed>
  <fix>3d</fix>
</trkpt>
<trkpt lat="-35.2786151" lon="148.9858618">
  <ele>681.34</ele>
  <time>2026-09-01T20:00:27Z</time>
  <course>6.52</course>
  <speed>25.636834828036008</speed>
  <fix>3d</fix>
</trkpt>
<trkpt lat="-35.278659" lon="148.9858558">
  <ele>682.05</ele>
  <time>2026-09-01T20:00:27Z</time>
  <course>6.55</course>
  <speed>25.66</speed>
  <fix>3d</fix>
</trkpt>
<trkpt lat="-35.2785922" lon="148.985865">
  <ele>681.11</ele>
  <time>2026-09-01T20:00:27Z</time>
  <course>6.49</course>
  <speed>25.636834828036008</speed>
  <fix>3d</fix>
</trkpt>
<trkpt lat="-35.278659" lon="148.9858558">
  <ele>682.05</ele>
  <time>2026-09-01T20:00:27Z</time>
  <course>6.55</course>
  <speed>25.66</speed>
  <fix>3d</fix>
</trkpt>
<trkpt lat="-35.2785693" lon="148.9858682">
  <ele>680.88</ele>
  <time>2026-09-01T20:00:27Z</time>
  <course>6.48</course>
  <speed>25.636834828036008</speed>
  <fix>3d</fix>
</trkpt>
<trkpt lat="-35.2786131" lon="148.9858623">
  <ele>681.58</ele>
  <time>2026-09-01T20:00:27Z</time>
  <course>6.57</course>
  <speed>25.66</speed>
  <fix>3d</fix>
</trkpt>
<trkpt lat="-35.2785463" lon="148.9858715">
  <ele>680.65</ele>
  <time>2026-09-01T20:00:27Z</time>
  <course>6.48</course>
  <speed>25.636834828036008</speed>
  <fix>3d</fix>
</trkpt>
<trkpt lat="-35.2786131" lon="148.9858623">
  <ele>681.58</ele>
  <time>2026-09-01T20:00:27Z</time>
  <course>6.57</course>
  <speed>25.66</speed>
  <fix>3d</fix>
</trkpt>
<trkpt lat="-35.2785234" lon="148.9858747">
  <ele>680.42</ele>
  <time>2026-09-01T20:00:27Z</time>
  <course>6.49</course>
  <speed>25.636834828036008</speed>
  <fix>3d</fix>
</trkpt>
<trkpt lat="-35.2785674" lon="148.9858688">
  <ele>681.13</ele>
  <time>2026-09-01T20:00:27Z</time>
  <course>6.59</course>
  <speed>25.65</speed>
  <fix>3d</fix>
</trkpt>
<trkpt lat="-35.2785005" lon="148.985878">
  <ele>680.19</ele>
  <time>2026-09-01T20:00:27Z</time>
  <course>6.51</course>
  <speed>25.646769777108386</speed>
  <fix>3d</fix>
</trkpt>
<trkpt lat="-35.2785674" lon="148.9858688">
  <ele>681.13</ele>
  <time>2026-09-01T20:00:27Z</time>
  <course>6.59</course>
  <speed>25.65</speed>
  <fix>3d</fix>
</trkpt>
<trkpt lat="-35.2784778" lon="148.9858812">
  <ele>679.97</ele>
  <time>2026-09-01T20:00:27Z</time>
  <course>6.51</course>
  <speed>25.646769777108386</speed>
  <fix>3d</fix>
</trkpt>
<trkpt lat="-35.2785217" lon="148.9858752">
  <ele>680.67</ele>
  <time>2026-09-01T20:00:27Z</time>
  <course>6.58</course>
  <speed>25.65</speed>
  <fix>3d</fix>
</trkpt>
<trkpt lat="-35.2784549" lon="148.9858844">
  <ele>679.74</ele>
  <time>2026-09-01T20:00:27Z</time>
  <course>6.5</course>
  <speed>25.645633156543436</speed>
  <fix>3d</fix>
</trkpt>
<trkpt lat="-35.2785217" lon="148.9858752">
  <ele>680.67</ele>
  <time>2026-09-01T20:00:27Z</time>
  <course>6.58</course>
  <speed>25.65</speed>
  <fix>3d</fix>
</trkpt>
<trkpt lat="-35.278432" lon="148.9858877">
  <ele>679.52</ele>
  <time>2026-09-01T20:00:27Z</time>
  <course>6.47</course>
  <speed>25.635697766981107</speed>
  <fix>3d</fix>
</trkpt>
<trkpt lat="-35.2784759" lon="148.9858817">
  <ele>680.22</ele>
  <time>2026-09-01T20:00:27Z</time>
  <course>6.58</course>
  <speed>25.65</speed>
  <fix>3d</fix>
</trkpt>
<trkpt lat="-35.2784091" lon="148.9858909">
  <ele>679.3</ele>
  <time>2026-09-01T20:00:27Z</time>
  <course>6.48</course>
  <speed>25.645633156543436</speed>
  <fix>3d</fix>
</trkpt>
<trkpt lat="-35.2784759" lon="148.9858817">
  <ele>680.22</ele>
  <time>2026-09-01T20:00:27Z</time>
  <course>6.58</course>
  <speed>25.65</speed>
  <fix>3d</fix>
</trkpt>
<trkpt lat="-35.278386" lon="148.9858941">
  <ele>679.07</ele>
  <time>2026-09-01T20:00:27Z</time>
  <course>6.49</course>
  <speed>25.645633156543436</speed>
  <fix>3d</fix>
</trkpt>
<trkpt lat="-35.2784301" lon="148.9858881">
  <ele>679.76</ele>
  <time>2026-09-01T20:00:27Z</time>
  <course>6.57</course>
  <speed>25.64</speed>
  <fix>3d</fix>
</trkpt>
<trkpt lat="-35.2783631" lon="148.9858974">
  <ele>678.85</ele>
  <time>2026-09-01T20:00:27Z</time>
  <course>6.46</course>
  <speed>25.635697766981107</speed>
  <fix>3d</fix>
</trkpt>
<trkpt lat="-35.2784301" lon="148.9858881">
  <ele>679.76</ele>
  <time>2026-09-01T20:00:27Z</time>
  <course>6.57</course>
  <speed>25.64</speed>
  <fix>3d</fix>
</trkpt>
<trkpt lat="-35.2783403" lon="148.9859006">
  <ele>678.62</ele>
  <time>2026-09-01T20:00:27Z</time>
  <course>6.43</course>
  <speed>25.645633156543436</speed>
  <fix>3d</fix>
</trkpt>
<trkpt lat="-35.2783843" lon="148.9858946">
  <ele>679.31</ele>
  <time>2026-09-01T20:00:27Z</time>
  <course>6.56</course>
  <speed>25.64</speed>
  <fix>3d</fix>
</trkpt>
<trkpt lat="-35.2783174" lon="148.9859038">
  <ele>678.4</ele>
  <time>2026-09-01T20:00:27Z</time>
  <course>6.45</course>
  <speed>25.64450038507282</speed>
  <fix>3d</fix>
</trkpt>
<trkpt lat="-35.2783843" lon="148.9858946">
  <ele>679.31</ele>
  <time>2026-09-01T20:00:27Z</time>
  <course>6.56</course>
  <speed>25.64</speed>
  <fix>3d</fix>
</trkpt>
<trkpt lat="-35.2782945" lon="148.985907">
  <ele>678.17</ele>
  <time>2026-09-01T20:00:27Z</time>
  <course>6.46</course>
  <speed>25.654436263539296</speed>
  <fix>3d</fix>
</trkpt>
<trkpt lat="-35.2783385" lon="148.985901">
  <ele>678.87</ele>
  <time>2026-09-01T20:00:27Z</time>
  <course>6.55</course>
  <speed>25.64</speed>
  <fix>3d</fix>
</trkpt>
<trkpt lat="-35.2782716" lon="148.9859102">
  <ele>677.95</ele>
  <time>2026-09-01T20:00:27Z</time>
  <course>6.43</course>
  <speed>25.654436263539296</speed>
  <fix>3d</fix>
</trkpt>
<trkpt lat="-35.2783385" lon="148.985901">
  <ele>678.87</ele>
  <time>2026-09-01T20:00:27Z</time>
  <course>6.55</course>
  <speed>25.64</speed>
  <fix>3d</fix>
</trkpt>
<trkpt lat="-35.2782485" lon="148.9859135">
  <ele>677.73</ele>
  <time>2026-09-01T20:00:27Z</time>
  <course>6.43</course>
  <speed>25.654436263539296</speed>
  <fix>3d</fix>
</trkpt>
<trkpt lat="-35.2782926" lon="148.9859075">
  <ele>678.42</ele>
  <time>2026-09-01T20:00:27Z</time>
  <course>6.54</course>
  <speed>25.65</speed>
  <fix>3d</fix>
</trkpt>
<trkpt lat="-35.2782256" lon="148.9859167">
  <ele>677.5</ele>
  <time>2026-09-01T20:00:27Z</time>
  <course>6.42</course>
  <speed>25.664372191814863</speed>
  <fix>3d</fix>
</trkpt>
<trkpt lat="-35.2782926" lon="148.9859075">
  <ele>678.42</ele>
  <time>2026-09-01T20:00:27Z</time>
  <course>6.54</course>
  <speed>25.65</speed>
  <fix>3d</fix>
</trkpt>
<trkpt lat="-35.2782026" lon="148.9859199">
  <ele>677.28</ele>
  <time>2026-09-01T20:00:27Z</time>
  <course>6.45</course>
  <speed>25.66324414410618</speed>
  <fix>3d</fix>
</trkpt>
<trkpt lat="-35.2782469" lon="148.9859139">
  <ele>677.98</ele>
  <time>2026-09-01T20:00:27Z</time>
  <course>6.53</course>
  <speed>25.65</speed>
  <fix>3d</fix>
</trkpt>
<trkpt lat="-35.2781797" lon="148.9859231">
  <ele>677.06</ele>
  <time>2026-09-01T20:00:27Z</time>
  <course>6.47</course>
  <speed>25.673180558707564</speed>
  <fix>3d</fix>
</trkpt>
<trkpt lat="-35.2782469" lon="148.9859139">
  <ele>677.98</ele>
  <time>2026-09-01T20:00:27Z</time>
  <course>6.53</course>
  <speed>25.65</speed>
  <fix>3d</fix>
</trkpt>
<trkpt lat="-35.2781567" lon="148.9859263">
  <ele>676.84</ele>
  <time>2026-09-01T20:00:27Z</time>
  <course>6.44</course>
  <speed>25.674308169841694</speed>
  <fix>3d</fix>
</trkpt>
<trkpt lat="-35.2782011" lon="148.9859204">
  <ele>677.54</ele>
  <time>2026-09-01T20:00:27Z</time>
  <course>6.52</course>
  <speed>25.65</speed>
  <fix>3d</fix>
</trkpt>
<trkpt lat="-35.2781338" lon="148.9859295">
  <ele>676.62</ele>
  <time>2026-09-01T20:00:27Z</time>
  <course>6.39</course>
  <speed>25.683117022666856</speed>
  <fix>3d</fix>
</trkpt>
<trkpt lat="-35.2782011" lon="148.9859204">
  <ele>677.54</ele>
  <time>2026-09-01T20:00:27Z</time>
  <course>6.52</course>
  <speed>25.65</speed>
  <fix>3d</fix>
</trkpt>
<trkpt lat="-35.2781108" lon="148.9859328">
  <ele>676.4</ele>
  <time>2026-09-01T20:00:27Z</time>
  <course>6.35</course>
  <speed>25.683117022666856</speed>
  <fix>3d</fix>
</trkpt>
<trkpt lat="-35.2781553" lon="148.9859268">
  <ele>677.1</ele>
  <time>2026-09-01T20:00:27Z</time>
  <course>6.51</course>
  <speed>25.65</speed>
  <fix>3d</fix>
</trkpt>
<trkpt lat="-35.2780879" lon="148.985936">
  <ele>676.18</ele>
  <time>2026-09-01T20:00:27Z</time>
  <course>6.33</course>
  <speed>25.683117022666856</speed>
  <fix>3d</fix>
</trkpt>
<trkpt lat="-35.2781553" lon="148.9859268">
  <ele>677.1</ele>
  <time>2026-09-01T20:00:27Z</time>
  <course>6.51</course>
  <speed>25.65</speed>
  <fix>3d</fix>
</trkpt>
<trkpt lat="-35.2780649" lon="148.9859392">
  <ele>675.97</ele>
  <time>2026-09-01T20:00:27Z</time>
  <course>6.36</course>
  <speed>25.693053535926786</speed>
  <fix>3d</fix>
</trkpt>
<trkpt lat="-35.2781095" lon="148.9859331">
  <ele>676.66</ele>
  <time>2026-09-01T20:00:27Z</time>
  <course>6.51</course>
  <speed>25.65</speed>
  <fix>3d</fix>
</trkpt>
<trkpt lat="-35.278042" lon="148.9859424">
  <ele>675.75</ele>
  <time>2026-09-01T20:00:27Z</time>
  <course>6.39</course>
  <speed>25.69193063979428</speed>
  <fix>3d</fix>
</trkpt>
<trkpt lat="-35.2781095" lon="148.9859331">
  <ele>676.66</ele>
  <time>2026-09-01T20:00:27Z</time>
  <course>6.51</course>
  <speed>25.65</speed>
  <fix>3d</fix>
</trkpt>
<trkpt lat="-35.278019" lon="148.9859456">
  <ele>675.53</ele>
  <time>2026-09-01T20:00:27Z</time>
  <course>6.41</course>
  <speed>25.69193063979428</speed>
  <fix>3d</fix>
</trkpt>
<trkpt lat="-35.2780638" lon="148.9859396">
  <ele>676.22</ele>
  <time>2026-09-01T20:00:27Z</time>
  <course>6.5</course>
  <speed>25.65</speed>
  <fix>3d</fix>
</trkpt>
<trkpt lat="-35.2779963" lon="148.9859488">
  <ele>675.32</ele>
  <time>2026-09-01T20:00:27Z</time>
  <course>6.42</course>
  <speed>25.69193063979428</speed>
  <fix>3d</fix>
</trkpt>
<trkpt lat="-35.2780638" lon="148.9859396">
  <ele>676.22</ele>
  <time>2026-09-01T20:00:27Z</time>
  <course>6.5</course>
  <speed>25.65</speed>
  <fix>3d</fix>
</trkpt>
<trkpt lat="-35.2779733" lon="148.985952">
  <ele>675.11</ele>
  <time>2026-09-01T20:00:27Z</time>
  <course>6.4</course>
  <speed>25.693053535926786</speed>
  <fix>3d</fix>
</trkpt>
<trkpt lat="-35.278018" lon="148.985946">
  <ele>675.78</ele>
  <time>2026-09-01T20:00:27Z</time>
  <course>6.49</course>
  <speed>25.65</speed>
  <fix>3d</fix>
</trkpt>
<trkpt lat="-35.2779504" lon="148.9859552">
  <ele>674.9</ele>
  <time>2026-09-01T20:00:27Z</time>
  <course>6.4</course>
  <speed>25.69193063979428</speed>
  <fix>3d</fix>
</trkpt>
<trkpt lat="-35.278018" lon="148.985946">
  <ele>675.78</ele>
  <time>2026-09-01T20:00:27Z</time>
  <course>6.49</course>
  <speed>25.65</speed>
  <fix>3d</fix>
</trkpt>
<trkpt lat="-35.2779274" lon="148.9859584">
  <ele>674.69</ele>
  <time>2026-09-01T20:00:27Z</time>
  <course>6.42</course>
  <speed>25.69193063979428</speed>
  <fix>3d</fix>
</trkpt>
<trkpt lat="-35.2779721" lon="148.9859523">
  <ele>675.36</ele>
  <time>2026-09-01T20:00:27Z</time>
  <course>6.49</course>
  <speed>25.65</speed>
  <fix>3d</fix>
</trkpt>
<trkpt lat="-35.2779043" lon="148.9859616">
  <ele>674.48</ele>
  <time>2026-09-01T20:00:27Z</time>
  <course>6.44</course>
  <speed>25.69193063979428</speed>
  <fix>3d</fix>
</trkpt>
<trkpt lat="-35.2779721" lon="148.9859523">
  <ele>675.36</ele>
  <time>2026-09-01T20:00:27Z</time>
  <course>6.49</course>
  <speed>25.65</speed>
  <fix>3d</fix>
</trkpt>
<trkpt lat="-35.2778814" lon="148.9859648">
  <ele>674.28</ele>
  <time>2026-09-01T20:00:27Z</time>
  <course>6.39</course>
  <speed>25.69193063979428</speed>
  <fix>3d</fix>
</trkpt>
<trkpt lat="-35.2779264" lon="148.9859588">
  <ele>674.94</ele>
  <time>2026-09-01T20:00:27Z</time>
  <course>6.48</course>
  <speed>25.65</speed>
  <fix>3d</fix>
</trkpt>
<trkpt lat="-35.2778585" lon="148.985968">
  <ele>674.07</ele>
  <time>2026-09-01T20:00:27Z</time>
  <course>6.32</course>
  <speed>25.69193063979428</speed>
  <fix>3d</fix>
</trkpt>
<trkpt lat="-35.2779264" lon="148.9859588">
  <ele>674.94</ele>
  <time>2026-09-01T20:00:27Z</time>
  <course>6.48</course>
  <speed>25.65</speed>
  <fix>3d</fix>
</trkpt>
<trkpt lat="-35.2778356" lon="148.9859712">
  <ele>673.86</ele>
  <time>2026-09-01T20:00:27Z</time>
  <course>6.32</course>
  <speed>25.69193063979428</speed>
  <fix>3d</fix>
</trkpt>
<trkpt lat="-35.2778806" lon="148.9859651">
  <ele>674.52</ele>
  <time>2026-09-01T20:00:27Z</time>
  <course>6.49</course>
  <speed>25.64</speed>
  <fix>3d</fix>
</trkpt>
<trkpt lat="-35.2778126" lon="148.9859743">
  <ele>673.65</ele>
  <time>2026-09-01T20:00:27Z</time>
  <course>6.35</course>
  <speed>25.69081158702465</speed>
  <fix>3d</fix>
</trkpt>
<trkpt lat="-35.2778806" lon="148.9859651">
  <ele>674.52</ele>
  <time>2026-09-01T20:00:27Z</time>
  <course>6.49</course>
  <speed>25.64</speed>
  <fix>3d</fix>
</trkpt>
<trkpt lat="-35.2777897" lon="148.9859775">
  <ele>673.44</ele>
  <time>2026-09-01T20:00:27Z</time>
  <course>6.33</course>
  <speed>25.69081158702465</speed>
  <fix>3d</fix>
</trkpt>
<trkpt lat="-35.2778347" lon="148.9859715">
  <ele>674.1</ele>
  <time>2026-09-01T20:00:27Z</time>
  <course>6.48</course>
  <speed>25.64</speed>
  <fix>3d</fix>
</trkpt>
<trkpt lat="-35.2777668" lon="148.9859807">
  <ele>673.23</ele>
  <time>2026-09-01T20:00:27Z</time>
  <course>6.32</course>
  <speed>25.70074901632246</speed>
  <fix>3d</fix>
</trkpt>
<trkpt lat="-35.2778347" lon="148.9859715">
  <ele>674.1</ele>
  <time>2026-09-01T20:00:27Z</time>
  <course>6.48</course>
  <speed>25.64</speed>
  <fix>3d</fix>
</trkpt>
<trkpt lat="-35.2777439" lon="148.9859839">
  <ele>673.02</ele>
  <time>2026-09-01T20:00:27Z</time>
  <course>6.33</course>
  <speed>25.699634238642385</speed>
  <fix>3d</fix>
</trkpt>
<trkpt lat="-35.2777889" lon="148.9859779">
  <ele>673.68</ele>
  <time>2026-09-01T20:00:27Z</time>
  <course>6.46</course>
  <speed>25.65</speed>
  <fix>3d</fix>
</trkpt>
<trkpt lat="-35.2777209" lon="148.9859871">
  <ele>672.81</ele>
  <time>2026-09-01T20:00:27Z</time>
  <course>6.37</course>
  <speed>25.699634238642385</speed>
  <fix>3d</fix>
</trkpt>
<trkpt lat="-35.2777889" lon="148.9859779">
  <ele>673.68</ele>
  <time>2026-09-01T20:00:27Z</time>
  <course>6.46</course>
  <speed>25.65</speed>
  <fix>3d</fix>
</trkpt>
<trkpt lat="-35.277698" lon="148.9859902">
  <ele>672.6</ele>
  <time>2026-09-01T20:00:27Z</time>
  <course>6.4</course>
  <speed>25.699634238642385</speed>
  <fix>3d</fix>
</trkpt>
<trkpt lat="-35.2777431" lon="148.9859842">
  <ele>673.26</ele>
  <time>2026-09-01T20:00:27Z</time>
  <course>6.45</course>
  <speed>25.65</speed>
  <fix>3d</fix>
</trkpt>
<trkpt lat="-35.2776751" lon="148.9859934">
  <ele>672.38</ele>
  <time>2026-09-01T20:00:27Z</time>
  <course>6.39</course>
  <speed>25.70074901632246</speed>
  <fix>3d</fix>
</trkpt>
<trkpt lat="-35.2777431" lon="148.9859842">
  <ele>673.26</ele>
  <time>2026-09-01T20:00:27Z</time>
  <course>6.45</course>
  <speed>25.65</speed>
  <fix>3d</fix>
</trkpt>
<trkpt lat="-35.2776521" lon="148.9859966">
  <ele>672.17</ele>
  <time>2026-09-01T20:00:27Z</time>
  <course>6.34</course>
  <speed>25.70074901632246</speed>
  <fix>3d</fix>
</trkpt>
<trkpt lat="-35.2776973" lon="148.9859905">
  <ele>672.83</ele>
  <time>2026-09-01T20:00:27Z</time>
  <course>6.45</course>
  <speed>25.65</speed>
  <fix>3d</fix>
</trkpt>
<trkpt lat="-35.277629" lon="148.9859998">
  <ele>671.96</ele>
  <time>2026-09-01T20:00:27Z</time>
  <course>6.31</course>
  <speed>25.710686494140916</speed>
  <fix>3d</fix>
</trkpt>
<trkpt lat="-35.2776973" lon="148.9859905">
  <ele>672.83</ele>
  <time>2026-09-01T20:00:27Z</time>
  <course>6.45</course>
  <speed>25.65</speed>
  <fix>3d</fix>
</trkpt>
<trkpt lat="-35.2776061" lon="148.986003">
  <ele>671.75</ele>
  <time>2026-09-01T20:00:27Z</time>
  <course>6.35</course>
  <speed>25.710686494140916</speed>
  <fix>3d</fix>
</trkpt>
<trkpt lat="-35.2776516" lon="148.9859969">
  <ele>672.42</ele>
  <time>2026-09-01T20:00:27Z</time>
  <course>6.46</course>
  <speed>25.65</speed>
  <fix>3d</fix>
</trkpt>
<trkpt lat="-35.2775832" lon="148.9860062">
  <ele>671.54</ele>
  <time>2026-09-01T20:00:27Z</time>
  <course>6.33</course>
  <speed>25.721741776170603</speed>
  <fix>3d</fix>
</trkpt>
<trkpt lat="-35.2776516" lon="148.9859969">
  <ele>672.42</ele>
  <time>2026-09-01T20:00:27Z</time>
  <course>6.46</course>
  <speed>25.65</speed>
  <fix>3d</fix>
</trkpt>
<trkpt lat="-35.2775603" lon="148.9860093">
  <ele>671.33</ele>
  <time>2026-09-01T20:00:27Z</time>
  <course>6.32</course>
  <speed>25.721741776170603</speed>
  <fix>3d</fix>
</trkpt>
<trkpt lat="-35.2776058" lon="148.9860033">
  <ele>671.99</ele>
  <time>2026-09-01T20:00:27Z</time>
  <course>6.47</course>
  <speed>25.66</speed>
  <fix>3d</fix>
</trkpt>
<trkpt lat="-35.2775375" lon="148.9860125">
  <ele>671.12</ele>
  <time>2026-09-01T20:00:27Z</time>
  <course>6.35</course>
  <speed>25.72286337093909</speed>
  <fix>3d</fix>
</trkpt>
<trkpt lat="-35.2776058" lon="148.9860033">
  <ele>671.99</ele>
  <time>2026-09-01T20:00:27Z</time>
  <course>6.47</course>
  <speed>25.66</speed>
  <fix>3d</fix>
</trkpt>
<trkpt lat="-35.2775148" lon="148.9860157">
  <ele>670.91</ele>
  <time>2026-09-01T20:00:27Z</time>
  <course>6.33</course>
  <speed>25.72286337093909</speed>
  <fix>3d</fix>
</trkpt>
<trkpt lat="-35.2775599" lon="148.9860097">
  <ele>671.57</ele>
  <time>2026-09-01T20:00:27Z</time>
  <course>6.48</course>
  <speed>25.67</speed>
  <fix>3d</fix>
</trkpt>
<trkpt lat="-35.277492" lon="148.9860189">
  <ele>670.71</ele>
  <time>2026-09-01T20:00:27Z</time>
  <course>6.32</course>
  <speed>25.72286337093909</speed>
  <fix>3d</fix>
</trkpt>
<trkpt lat="-35.2775599" lon="148.9860097">
  <ele>671.57</ele>
  <time>2026-09-01T20:00:27Z</time>
  <course>6.48</course>
  <speed>25.67</speed>
  <fix>3d</fix>
</trkpt>
<trkpt lat="-35.2774692" lon="148.9860221">
  <ele>670.51</ele>
  <time>2026-09-01T20:00:27Z</time>
  <course>6.35</course>
  <speed>25.72286337093909</speed>
  <fix>3d</fix>
</trkpt>
<trkpt lat="-35.2775141" lon="148.986016">
  <ele>671.15</ele>
  <time>2026-09-01T20:00:27Z</time>
  <course>6.49</course>
  <speed>25.69</speed>
  <fix>3d</fix>
</trkpt>
<trkpt lat="-35.2774463" lon="148.9860253">
  <ele>670.32</ele>
  <time>2026-09-01T20:00:27Z</time>
  <course>6.37</course>
  <speed>25.72286337093909</speed>
  <fix>3d</fix>
</trkpt>
<trkpt lat="-35.2775141" lon="148.986016">
  <ele>671.15</ele>
  <time>2026-09-01T20:00:27Z</time>
  <course>6.49</course>
  <speed>25.69</speed>
  <fix>3d</fix>
</trkpt>
<trkpt lat="-35.2774233" lon="148.9860285">
  <ele>670.12</ele>
  <time>2026-09-01T20:00:27Z</time>
  <course>6.38</course>
  <speed>25.71292671011995</speed>
  <fix>3d</fix>
</trkpt>
<trkpt lat="-35.2774682" lon="148.9860225">
  <ele>670.75</ele>
  <time>2026-09-01T20:00:27Z</time>
  <course>6.5</course>
  <speed>25.7</speed>
  <fix>3d</fix>
</trkpt>
<trkpt lat="-35.2774005" lon="148.9860317">
  <ele>669.93</ele>
  <time>2026-09-01T20:00:27Z</time>
  <course>6.33</course>
  <speed>25.714052578308227</speed>
  <fix>3d</fix>
</trkpt>
<trkpt lat="-35.2774682" lon="148.9860225">
  <ele>670.75</ele>
  <time>2026-09-01T20:00:27Z</time>
  <course>6.5</course>
  <speed>25.7</speed>
  <fix>3d</fix>
</trkpt>
<trkpt lat="-35.2773776" lon="148.9860349">
  <ele>669.73</ele>
  <time>2026-09-01T20:00:27Z</time>
  <course>6.33</course>
  <speed>25.71292671011995</speed>
  <fix>3d</fix>
</trkpt>
<trkpt lat="-35.2774224" lon="148.9860289">
  <ele>670.35</ele>
  <time>2026-09-01T20:00:27Z</time>
  <course>6.51</course>
  <speed>25.7</speed>
  <fix>3d</fix>
</trkpt>
<trkpt lat="-35.2773548" lon="148.9860381">
  <ele>669.54</ele>
  <time>2026-09-01T20:00:27Z</time>
  <course>6.33</course>
  <speed>25.70299009843018</speed>
  <fix>3d</fix>
</trkpt>
<trkpt lat="-35.2774224" lon="148.9860289">
  <ele>670.35</ele>
  <time>2026-09-01T20:00:27Z</time>
  <course>6.51</course>
  <speed>25.7</speed>
  <fix>3d</fix>
</trkpt>
<trkpt lat="-35.277332" lon="148.9860413">
  <ele>669.36</ele>
  <time>2026-09-01T20:00:27Z</time>
  <course>6.35</course>
  <speed>25.70299009843018</speed>
  <fix>3d</fix>
</trkpt>
<trkpt lat="-35.2773764" lon="148.9860353">
  <ele>669.97</ele>
  <time>2026-09-01T20:00:27Z</time>
  <course>6.51</course>
  <speed>25.7</speed>
  <fix>3d</fix>
</trkpt>
<trkpt lat="-35.2773091" lon="148.9860445">
  <ele>669.17</ele>
  <time>2026-09-01T20:00:27Z</time>
  <course>6.39</course>
  <speed>25.70299009843018</speed>
  <fix>3d</fix>
</trkpt>
<trkpt lat="-35.2773764" lon="148.9860353">
  <ele>669.97</ele>
  <time>2026-09-01T20:00:27Z</time>
  <course>6.51</course>
  <speed>25.7</speed>
  <fix>3d</fix>
</trkpt>
<trkpt lat="-35.2772863" lon="148.9860477">
  <ele>668.99</ele>
  <time>2026-09-01T20:00:27Z</time>
  <course>6.42</course>
  <speed>25.69193063979428</speed>
  <fix>3d</fix>
</trkpt>
<trkpt lat="-35.2773305" lon="148.9860418">
  <ele>669.59</ele>
  <time>2026-09-01T20:00:27Z</time>
  <course>6.5</course>
  <speed>25.7</speed>
  <fix>3d</fix>
</trkpt>
<trkpt lat="-35.2772634" lon="148.9860508">
  <ele>668.81</ele>
  <time>2026-09-01T20:00:27Z</time>
  <course>6.42</course>
  <speed>25.693053535926786</speed>
  <fix>3d</fix>
</trkpt>
<trkpt lat="-35.2773305" lon="148.9860418">
  <ele>669.59</ele>
  <time>2026-09-01T20:00:27Z</time>
  <course>6.5</course>
  <speed>25.7</speed>
  <fix>3d</fix>
</trkpt>
<trkpt lat="-35.2772405" lon="148.986054">
  <ele>668.63</ele>
  <time>2026-09-01T20:00:27Z</time>
  <course>6.4</course>
  <speed>25.683117022666856</speed>
  <fix>3d</fix>
</trkpt>
<trkpt lat="-35.2772846" lon="148.9860481">
  <ele>669.22</ele>
  <time>2026-09-01T20:00:27Z</time>
  <course>6.5</course>
  <speed>25.7</speed>
  <fix>3d</fix>
</trkpt>
<trkpt lat="-35.2772177" lon="148.9860572">
  <ele>668.45</ele>
  <time>2026-09-01T20:00:27Z</time>
  <course>6.35</course>
  <speed>25.683117022666856</speed>
  <fix>3d</fix>
</trkpt>
<trkpt lat="-35.2772846" lon="148.9860481">
  <ele>669.22</ele>
  <time>2026-09-01T20:00:27Z</time>
  <course>6.5</course>
  <speed>25.7</speed>
  <fix>3d</fix>
</trkpt>
<trkpt lat="-35.2771948" lon="148.9860604">
  <ele>668.28</ele>
  <time>2026-09-01T20:00:27Z</time>
  <course>6.35</course>
  <speed>25.68199369207928</speed>
  <fix>3d</fix>
</trkpt>
<trkpt lat="-35.2772387" lon="148.9860546">
  <ele>668.85</ele>
  <time>2026-09-01T20:00:27Z</time>
  <course>6.5</course>
  <speed>25.7</speed>
  <fix>3d</fix>
</trkpt>
<trkpt lat="-35.2771719" lon="148.9860636">
  <ele>668.1</ele>
  <time>2026-09-01T20:00:27Z</time>
  <course>6.38</course>
  <speed>25.68199369207928</speed>
  <fix>3d</fix>
</trkpt>
<trkpt lat="-35.2772387" lon="148.9860546">
  <ele>668.85</ele>
  <time>2026-09-01T20:00:27Z</time>
  <course>6.5</course>
  <speed>25.7</speed>
  <fix>3d</fix>
</trkpt>
<trkpt lat="-35.277149" lon="148.9860668">
  <ele>667.93</ele>
  <time>2026-09-01T20:00:27Z</time>
  <course>6.39</course>
  <speed>25.68199369207928</speed>
  <fix>3d</fix>
</trkpt>
<trkpt lat="-35.2771929" lon="148.986061">
  <ele>668.49</ele>
  <time>2026-09-01T20:00:27Z</time>
  <course>6.5</course>
  <speed>25.7</speed>
  <fix>3d</fix>
</trkpt>
<trkpt lat="-35.2771261" lon="148.98607">
  <ele>667.76</ele>
  <time>2026-09-01T20:00:27Z</time>
  <course>6.37</course>
  <speed>25.68199369207928</speed>
  <fix>3d</fix>
</trkpt>
<trkpt lat="-35.2771929" lon="148.986061">
  <ele>668.49</ele>
  <time>2026-09-01T20:00:27Z</time>
  <course>6.5</course>
  <speed>25.7</speed>
  <fix>3d</fix>
</trkpt>
<trkpt lat="-35.2771033" lon="148.9860732">
  <ele>667.59</ele>
  <time>2026-09-01T20:00:27Z</time>
  <course>6.33</course>
  <speed>25.68199369207928</speed>
  <fix>3d</fix>
</trkpt>
<trkpt lat="-35.277147" lon="148.9860674">
  <ele>668.13</ele>
  <time>2026-09-01T20:00:27Z</time>
  <course>6.5</course>
  <speed>25.7</speed>
  <fix>3d</fix>
</trkpt>
<trkpt lat="-35.2770804" lon="148.9860764">
  <ele>667.43</ele>
  <time>2026-09-01T20:00:27Z</time>
  <course>6.32</course>
  <speed>25.68199369207928</speed>
  <fix>3d</fix>
</trkpt>
<trkpt lat="-35.277147" lon="148.9860674">
  <ele>668.13</ele>
  <time>2026-09-01T20:00:27Z</time>
  <course>6.5</course>
  <speed>25.7</speed>
  <fix>3d</fix>
</trkpt>
<trkpt lat="-35.2770575" lon="148.9860796">
  <ele>667.26</ele>
  <time>2026-09-01T20:00:27Z</time>
  <course>6.35</course>
  <speed>25.672056793330757</speed>
  <fix>3d</fix>
</trkpt>
<trkpt lat="-35.2771011" lon="148.9860737">
  <ele>667.79</ele>
  <time>2026-09-01T20:00:27Z</time>
  <course>6.5</course>
  <speed>25.7</speed>
  <fix>3d</fix>
</trkpt>
<trkpt lat="-35.2770346" lon="148.9860828">
  <ele>667.1</ele>
  <time>2026-09-01T20:00:27Z</time>
  <course>6.36</course>
  <speed>25.673180558707564</speed>
  <fix>3d</fix>
</trkpt>
<trkpt lat="-35.2771011" lon="148.9860737">
  <ele>667.79</ele>
  <time>2026-09-01T20:00:27Z</time>
  <course>6.5</course>
  <speed>25.7</speed>
  <fix>3d</fix>
</trkpt>
<trkpt lat="-35.2770117" lon="148.986086">
  <ele>666.93</ele>
  <time>2026-09-01T20:00:27Z</time>
  <course>6.33</course>
  <speed>25.66324414410618</speed>
  <fix>3d</fix>
</trkpt>
<trkpt lat="-35.2770553" lon="148.9860802">
  <ele>667.45</ele>
  <time>2026-09-01T20:00:27Z</time>
  <course>6.5</course>
  <speed>25.7</speed>
  <fix>3d</fix>
</trkpt>
<trkpt lat="-35.2769888" lon="148.9860892">
  <ele>666.77</ele>
  <time>2026-09-01T20:00:27Z</time>
  <course>6.33</course>
  <speed>25.66324414410618</speed>
  <fix>3d</fix>
</trkpt>
<trkpt lat="-35.2770553" lon="148.9860802">
  <ele>667.45</ele>
  <time>2026-09-01T20:00:27Z</time>
  <course>6.5</course>
  <speed>25.7</speed>
  <fix>3d</fix>
</trkpt>
<trkpt lat="-35.2769659" lon="148.9860924">
  <ele>666.6</ele>
  <time>2026-09-01T20:00:27Z</time>
  <course>6.32</course>
  <speed>25.66324414410618</speed>
  <fix>3d</fix>
</trkpt>
<trkpt lat="-35.2770094" lon="148.9860866">
  <ele>667.12</ele>
  <time>2026-09-01T20:00:27Z</time>
  <course>6.51</course>
  <speed>25.69</speed>
  <fix>3d</fix>
</trkpt>
<trkpt lat="-35.2769428" lon="148.9860957">
  <ele>666.44</ele>
  <time>2026-09-01T20:00:27Z</time>
  <course>6.34</course>
  <speed>25.66324414410618</speed>
  <fix>3d</fix>
</trkpt>
<trkpt lat="-35.2770094" lon="148.9860866">
  <ele>667.12</ele>
  <time>2026-09-01T20:00:27Z</time>
  <course>6.51</course>
  <speed>25.69</speed>
  <fix>3d</fix>
</trkpt>
<trkpt lat="-35.2769199" lon="148.9860989">
  <ele>666.28</ele>
  <time>2026-09-01T20:00:27Z</time>
  <course>6.33</course>
  <speed>25.66324414410618</speed>
  <fix>3d</fix>
</trkpt>
<trkpt lat="-35.2769636" lon="148.9860929">
  <ele>666.79</ele>
  <time>2026-09-01T20:00:27Z</time>
  <course>6.51</course>
  <speed>25.69</speed>
  <fix>3d</fix>
</trkpt>
<trkpt lat="-35.2768969" lon="148.9861021">
  <ele>666.12</ele>
  <time>2026-09-01T20:00:27Z</time>
  <course>6.36</course>
  <speed>25.66324414410618</speed>
  <fix>3d</fix>
</trkpt>
<trkpt lat="-35.2769636" lon="148.9860929">
  <ele>666.79</ele>
  <time>2026-09-01T20:00:27Z</time>
  <course>6.51</course>
  <speed>25.69</speed>
  <fix>3d</fix>
</trkpt>
<trkpt lat="-35.276874" lon="148.9861053">
  <ele>665.95</ele>
  <time>2026-09-01T20:00:27Z</time>
  <course>6.38</course>
  <speed>25.673180558707564</speed>
  <fix>3d</fix>
</trkpt>
<trkpt lat="-35.2769177" lon="148.9860994">
  <ele>666.46</ele>
  <time>2026-09-01T20:00:27Z</time>
  <course>6.51</course>
  <speed>25.68</speed>
  <fix>3d</fix>
</trkpt>
<trkpt lat="-35.276851" lon="148.9861085">
  <ele>665.79</ele>
  <time>2026-09-01T20:00:27Z</time>
  <course>6.4</course>
  <speed>25.673180558707564</speed>
  <fix>3d</fix>
</trkpt>
<trkpt lat="-35.2769177" lon="148.9860994">
  <ele>666.46</ele>
  <time>2026-09-01T20:00:27Z</time>
  <course>6.51</course>
  <speed>25.68</speed>
  <fix>3d</fix>
</trkpt>
<trkpt lat="-35.276828" lon="148.9861117">
  <ele>665.62</ele>
  <time>2026-09-01T20:00:27Z</time>
  <course>6.37</course>
  <speed>25.673180558707564</speed>
  <fix>3d</fix>
</trkpt>
<trkpt lat="-35.2768717" lon="148.9861058">
  <ele>666.13</ele>
  <time>2026-09-01T20:00:27Z</time>
  <course>6.51</course>
  <speed>25.68</speed>
  <fix>3d</fix>
</trkpt>
<trkpt lat="-35.276805" lon="148.9861149">
  <ele>665.46</ele>
  <time>2026-09-01T20:00:28Z</time>
  <course>6.32</course>
  <speed>25.683117022666856</speed>
  <fix>3d</fix>
</trkpt>
<trkpt lat="-35.2768717" lon="148.9861058">
  <ele>666.13</ele>
  <time>2026-09-01T20:00:28Z</time>
  <course>6.51</course>
  <speed>25.68</speed>
  <fix>3d</fix>
</trkpt>
<trkpt lat="-35.276782" lon="148.9861181">
  <ele>665.29</ele>
  <time>2026-09-01T20:00:28Z</time>
  <course>6.29</course>
  <speed>25.693053535926786</speed>
  <fix>3d</fix>
</trkpt>
<trkpt lat="-35.2768259" lon="148.9861123">
  <ele>665.8</ele>
  <time>2026-09-01T20:00:28Z</time>
  <course>6.51</course>
  <speed>25.68</speed>
  <fix>3d</fix>
</trkpt>
<trkpt lat="-35.2767589" lon="148.9861214">
  <ele>665.13</ele>
  <time>2026-09-01T20:00:28Z</time>
  <course>6.31</course>
  <speed>25.693053535926786</speed>
  <fix>3d</fix>
</trkpt>
<trkpt lat="-35.2768259" lon="148.9861123">
  <ele>665.8</ele>
  <time>2026-09-01T20:00:28Z</time>
  <course>6.51</course>
  <speed>25.68</speed>
  <fix>3d</fix>
</trkpt>
<trkpt lat="-35.2767359" lon="148.9861246">
  <ele>664.97</ele>
  <time>2026-09-01T20:00:28Z</time>
  <course>6.3</course>
  <speed>25.693053535926786</speed>
  <fix>3d</fix>
</trkpt>
<trkpt lat="-35.27678" lon="148.9861187">
  <ele>665.48</ele>
  <time>2026-09-01T20:00:28Z</time>
  <course>6.5</course>
  <speed>25.68</speed>
  <fix>3d</fix>
</trkpt>
<trkpt lat="-35.2767129" lon="148.9861278">
  <ele>664.81</ele>
  <time>2026-09-01T20:00:28Z</time>
  <course>6.29</course>
  <speed>25.70299009843018</speed>
  <fix>3d</fix>
</trkpt>
<trkpt lat="-35.27678" lon="148.9861187">
  <ele>665.48</ele>
  <time>2026-09-01T20:00:28Z</time>
  <course>6.5</course>
  <speed>25.68</speed>
  <fix>3d</fix>
</trkpt>
<trkpt lat="-35.2766899" lon="148.986131">
  <ele>664.65</ele>
  <time>2026-09-01T20:00:28Z</time>
  <course>6.3</course>
  <speed>25.71292671011995</speed>
  <fix>3d</fix>
</trkpt>
<trkpt lat="-35.2767341" lon="148.986125">
  <ele>665.15</ele>
  <time>2026-09-01T20:00:28Z</time>
  <course>6.49</course>
  <speed>25.69</speed>
  <fix>3d</fix>
</trkpt>
<trkpt lat="-35.2766668" lon="148.9861342">
  <ele>664.49</ele>
  <time>2026-09-01T20:00:28Z</time>
  <course>6.31</course>
  <speed>25.72286337093909</speed>
  <fix>3d</fix>
</trkpt>
<trkpt lat="-35.2767341" lon="148.986125">
  <ele>665.15</ele>
  <time>2026-09-01T20:00:28Z</time>
  <course>6.49</course>
  <speed>25.69</speed>
  <fix>3d</fix>
</trkpt>
<trkpt lat="-35.2766438" lon="148.9861374">
  <ele>664.34</ele>
  <time>2026-09-01T20:00:28Z</time>
  <course>6.33</course>
  <speed>25.72286337093909</speed>
  <fix>3d</fix>
</trkpt>
<trkpt lat="-35.2766884" lon="148.9861315">
  <ele>664.82</ele>
  <time>2026-09-01T20:00:28Z</time>
  <course>6.48</course>
  <speed>25.69</speed>
  <fix>3d</fix>
</trkpt>
<trkpt lat="-35.2766208" lon="148.9861406">
  <ele>664.19</ele>
  <time>2026-09-01T20:00:28Z</time>
  <course>6.33</course>
  <speed>25.73280008083069</speed>
  <fix>3d</fix>
</trkpt>
<trkpt lat="-35.2766884" lon="148.9861315">
  <ele>664.82</ele>
  <time>2026-09-01T20:00:28Z</time>
  <course>6.48</course>
  <speed>25.69</speed>
  <fix>3d</fix>
</trkpt>
<trkpt lat="-35.2765978" lon="148.9861438">
  <ele>664.05</ele>
  <time>2026-09-01T20:00:28Z</time>
  <course>6.33</course>
  <speed>25.742736839737923</speed>
  <fix>3d</fix>
</trkpt>
<trkpt lat="-35.2766425" lon="148.9861378">
  <ele>664.52</ele>
  <time>2026-09-01T20:00:28Z</time>
  <course>6.48</course>
  <speed>25.69</speed>
  <fix>3d</fix>
</trkpt>
<trkpt lat="-35.2765748" lon="148.986147">
  <ele>663.91</ele>
  <time>2026-09-01T20:00:28Z</time>
  <course>6.34</course>
  <speed>25.742736839737923</speed>
  <fix>3d</fix>
</trkpt>
<trkpt lat="-35.2766425" lon="148.9861378">
  <ele>664.52</ele>
  <time>2026-09-01T20:00:28Z</time>
  <course>6.48</course>
  <speed>25.69</speed>
  <fix>3d</fix>
</trkpt>
<trkpt lat="-35.2765518" lon="148.9861503">
  <ele>663.77</ele>
  <time>2026-09-01T20:00:28Z</time>
  <course>6.35</course>
  <speed>25.75379777819186</speed>
  <fix>3d</fix>
</trkpt>
<trkpt lat="-35.2765966" lon="148.9861442">
  <ele>664.23</ele>
  <time>2026-09-01T20:00:28Z</time>
  <course>6.48</course>
  <speed>25.7</speed>
  <fix>3d</fix>
</trkpt>
<trkpt lat="-35.2765288" lon="148.9861535">
  <ele>663.64</ele>
  <time>2026-09-01T20:00:28Z</time>
  <course>6.34</course>
  <speed>25.75379777819186</speed>
  <fix>3d</fix>
</trkpt>
<trkpt lat="-35.2765966" lon="148.9861442">
  <ele>664.23</ele>
  <time>2026-09-01T20:00:28Z</time>
  <course>6.48</course>
  <speed>25.7</speed>
  <fix>3d</fix>
</trkpt>
<trkpt lat="-35.2765058" lon="148.9861567">
  <ele>663.52</ele>
  <time>2026-09-01T20:00:28Z</time>
  <course>6.34</course>
  <speed>25.763734201392467</speed>
  <fix>3d</fix>
</trkpt>
<trkpt lat="-35.2765507" lon="148.9861505">
  <ele>663.95</ele>
  <time>2026-09-01T20:00:28Z</time>
  <course>6.49</course>
  <speed>25.71</speed>
  <fix>3d</fix>
</trkpt>
<trkpt lat="-35.2764828" lon="148.9861599">
  <ele>663.4</ele>
  <time>2026-09-01T20:00:28Z</time>
  <course>6.33</course>
  <speed>25.763734201392467</speed>
  <fix>3d</fix>
</trkpt>
<trkpt lat="-35.2765507" lon="148.9861505">
  <ele>663.95</ele>
  <time>2026-09-01T20:00:28Z</time>
  <course>6.49</course>
  <speed>25.71</speed>
  <fix>3d</fix>
</trkpt>
<trkpt lat="-35.27646" lon="148.9861631">
  <ele>663.28</ele>
  <time>2026-09-01T20:00:28Z</time>
  <course>6.36</course>
  <speed>25.75379777819186</speed>
  <fix>3d</fix>
</trkpt>
<trkpt lat="-35.2765049" lon="148.986157">
  <ele>663.69</ele>
  <time>2026-09-01T20:00:28Z</time>
  <course>6.5</course>
  <speed>25.71</speed>
  <fix>3d</fix>
</trkpt>
<trkpt lat="-35.276437" lon="148.9861663">
  <ele>663.17</ele>
  <time>2026-09-01T20:00:28Z</time>
  <course>6.36</course>
  <speed>25.764861730659455</speed>
  <fix>3d</fix>
</trkpt>
<trkpt lat="-35.2765049" lon="148.986157">
  <ele>663.69</ele>
  <time>2026-09-01T20:00:28Z</time>
  <course>6.5</course>
  <speed>25.71</speed>
  <fix>3d</fix>
</trkpt>
<trkpt lat="-35.276414" lon="148.9861695">
  <ele>663.06</ele>
  <time>2026-09-01T20:00:28Z</time>
  <course>6.37</course>
  <speed>25.75379777819186</speed>
  <fix>3d</fix>
</trkpt>
<trkpt lat="-35.276459" lon="148.9861634">
  <ele>663.45</ele>
  <time>2026-09-01T20:00:28Z</time>
  <course>6.5</course>
  <speed>25.71</speed>
  <fix>3d</fix>
</trkpt>
<trkpt lat="-35.2763911" lon="148.9861727">
  <ele>662.96</ele>
  <time>2026-09-01T20:00:28Z</time>
  <course>6.33</course>
  <speed>25.75379777819186</speed>
  <fix>3d</fix>
</trkpt>
<trkpt lat="-35.276459" lon="148.9861634">
  <ele>663.45</ele>
  <time>2026-09-01T20:00:28Z</time>
  <course>6.5</course>
  <speed>25.71</speed>
  <fix>3d</fix>
</trkpt>
<trkpt lat="-35.2763679" lon="148.986176">
  <ele>662.86</ele>
  <time>2026-09-01T20:00:28Z</time>
  <course>6.35</course>
  <speed>25.75379777819186</speed>
  <fix>3d</fix>
</trkpt>
<trkpt lat="-35.276413" lon="148.9861699">
  <ele>663.23</ele>
  <time>2026-09-01T20:00:28Z</time>
  <course>6.51</course>
  <speed>25.7</speed>
  <fix>3d</fix>
</trkpt>
<trkpt lat="-35.2763447" lon="148.9861792">
  <ele>662.76</ele>
  <time>2026-09-01T20:00:28Z</time>
  <course>6.34</course>
  <speed>25.75379777819186</speed>
  <fix>3d</fix>
</trkpt>
<trkpt lat="-35.276413" lon="148.9861699">
  <ele>663.23</ele>
  <time>2026-09-01T20:00:28Z</time>
  <course>6.51</course>
  <speed>25.7</speed>
  <fix>3d</fix>
</trkpt>
<trkpt lat="-35.2763218" lon="148.9861824">
  <ele>662.67</ele>
  <time>2026-09-01T20:00:28Z</time>
  <course>6.34</course>
  <speed>25.744989803843385</speed>
  <fix>3d</fix>
</trkpt>
<trkpt lat="-35.2763671" lon="148.9861763">
  <ele>663.03</ele>
  <time>2026-09-01T20:00:28Z</time>
  <course>6.51</course>
  <speed>25.7</speed>
  <fix>3d</fix>
</trkpt>
<trkpt lat="-35.2762988" lon="148.9861856">
  <ele>662.58</ele>
  <time>2026-09-01T20:00:28Z</time>
  <course>6.31</course>
  <speed>25.73392507955209</speed>
  <fix>3d</fix>
</trkpt>
<trkpt lat="-35.2763671" lon="148.9861763">
  <ele>663.03</ele>
  <time>2026-09-01T20:00:28Z</time>
  <course>6.51</course>
  <speed>25.7</speed>
  <fix>3d</fix>
</trkpt>
<trkpt lat="-35.2762759" lon="148.9861888">
  <ele>662.5</ele>
  <time>2026-09-01T20:00:28Z</time>
  <course>6.31</course>
  <speed>25.674308169841694</speed>
  <fix>3d</fix>
</trkpt>
<trkpt lat="-35.2763212" lon="148.9861826">
  <ele>662.83</ele>
  <time>2026-09-01T20:00:28Z</time>
  <course>6.51</course>
  <speed>25.69</speed>
  <fix>3d</fix>
</trkpt>
<trkpt lat="-35.276253" lon="148.986192">
  <ele>662.42</ele>
  <time>2026-09-01T20:00:28Z</time>
  <course>6.37</course>
  <speed>25.56275415521575</speed>
  <fix>3d</fix>
</trkpt>
<trkpt lat="-35.2763212" lon="148.9861826">
  <ele>662.83</ele>
  <time>2026-09-01T20:00:28Z</time>
  <course>6.51</course>
  <speed>25.69</speed>
  <fix>3d</fix>
</trkpt>
<trkpt lat="-35.2762304" lon="148.9861952">
  <ele>662.36</ele>
  <time>2026-09-01T20:00:28Z</time>
  <course>6.7</course>
  <speed>25.374414278954305</speed>
  <fix>3d</fix>
</trkpt>
<trkpt lat="-35.2762754" lon="148.9861891">
  <ele>662.66</ele>
  <time>2026-09-01T20:00:28Z</time>
  <course>6.51</course>
  <speed>25.59</speed>
  <fix>3d</fix>
</trkpt>
<trkpt lat="-35.2762079" lon="148.9861987">
  <ele>662.36</ele>
  <time>2026-09-01T20:00:28Z</time>
  <course>7.33</course>
  <speed>25.098705145883525</speed>
  <fix>3d</fix>
</trkpt>
<trkpt lat="-35.2762754" lon="148.9861891">
  <ele>662.66</ele>
  <time>2026-09-01T20:00:28Z</time>
  <course>6.51</course>
  <speed>25.59</speed>
  <fix>3d</fix>
</trkpt>
<trkpt lat="-35.2761858" lon="148.9862025">
  <ele>662.43</ele>
  <time>2026-09-01T20:00:28Z</time>
  <course>8.29</course>
  <speed>24.726423113746154</speed>
  <fix>3d</fix>
</trkpt>
<trkpt lat="-35.27623" lon="148.9861956">
  <ele>662.55</ele>
  <time>2026-09-01T20:00:28Z</time>
  <course>6.95</course>
  <speed>25.29</speed>
  <fix>3d</fix>
</trkpt>
<trkpt lat="-35.2761641" lon="148.9862067">
  <ele>662.56</ele>
  <time>2026-09-01T20:00:28Z</time>
  <course>9.6</course>
  <speed>24.301547275842335</speed>
  <fix>3d</fix>
</trkpt>
<trkpt lat="-35.27623" lon="148.9861956">
  <ele>662.55</ele>
  <time>2026-09-01T20:00:28Z</time>
  <course>6.95</course>
  <speed>25.29</speed>
  <fix>3d</fix>
</trkpt>
<trkpt lat="-35.2761428" lon="148.9862115">
  <ele>662.74</ele>
  <time>2026-09-01T20:00:28Z</time>
  <course>11.1</course>
  <speed>23.83444775949298</speed>
  <fix>3d</fix>
</trkpt>
<trkpt lat="-35.2761855" lon="148.9862029">
  <ele>662.61</ele>
  <time>2026-09-01T20:00:28Z</time>
  <course>8.47</course>
  <speed>24.65</speed>
  <fix>3d</fix>
</trkpt>
<trkpt lat="-35.2761221" lon="148.9862167">
  <ele>662.97</ele>
  <time>2026-09-01T20:00:28Z</time>
  <course>12.6</course>
  <speed>23.36134413941116</speed>
  <fix>3d</fix>
</trkpt>
<trkpt lat="-35.2761855" lon="148.9862029">
  <ele>662.61</ele>
  <time>2026-09-01T20:00:28Z</time>
  <course>8.47</course>
  <speed>24.65</speed>
  <fix>3d</fix>
</trkpt>
<trkpt lat="-35.276102" lon="148.9862225">
  <ele>663.24</ele>
  <time>2026-09-01T20:00:28Z</time>
  <course>13.99</course>
  <speed>22.883570525597616</speed>
  <fix>3d</fix>
</trkpt>
<trkpt lat="-35.2761426" lon="148.9862118">
  <ele>662.91</ele>
  <time>2026-09-01T20:00:28Z</time>
  <course>10.92</course>
  <speed>23.79</speed>
  <fix>3d</fix>
</trkpt>
<trkpt lat="-35.2760823" lon="148.9862287">
  <ele>663.55</ele>
  <time>2026-09-01T20:00:28Z</time>
  <course>15.21</course>
  <speed>22.389658327004458</speed>
  <fix>3d</fix>
</trkpt>
<trkpt lat="-35.2761426" lon="148.9862118">
  <ele>662.91</ele>
  <time>2026-09-01T20:00:28Z</time>
  <course>10.92</course>
  <speed>23.79</speed>
  <fix>3d</fix>
</trkpt>
<trkpt lat="-35.2760632" lon="148.9862353">
  <ele>663.89</ele>
  <time>2026-09-01T20:00:28Z</time>
  <course>16.25</course>
  <speed>21.891610265122118</speed>
  <fix>3d</fix>
</trkpt>
<trkpt lat="-35.2761017" lon="148.9862227">
  <ele>663.39</ele>
  <time>2026-09-01T20:00:28Z</time>
  <course>13.64</course>
  <speed>22.84</speed>
  <fix>3d</fix>
</trkpt>
<trkpt lat="-35.2760446" lon="148.9862422">
  <ele>664.25</ele>
  <time>2026-09-01T20:00:28Z</time>
  <course>17.02</course>
  <speed>21.408991101871194</speed>
  <fix>3d</fix>
</trkpt>
<trkpt lat="-35.2761017" lon="148.9862227">
  <ele>663.39</ele>
  <time>2026-09-01T20:00:28Z</time>
  <course>13.64</course>
  <speed>22.84</speed>
  <fix>3d</fix>
</trkpt>
<trkpt lat="-35.2760267" lon="148.9862492">
  <ele>664.63</ele>
  <time>2026-09-01T20:00:28Z</time>
  <course>17.54</course>
  <speed>20.94387022496081</speed>
  <fix>3d</fix>
</trkpt>
<trkpt lat="-35.2760629" lon="148.9862354">
  <ele>664.03</ele>
  <time>2026-09-01T20:00:28Z</time>
  <course>16.17</course>
  <speed>21.86</speed>
  <fix>3d</fix>
</trkpt>
<trkpt lat="-35.2760091" lon="148.9862564">
  <ele>665.0</ele>
  <time>2026-09-01T20:00:28Z</time>
  <course>17.89</course>
  <speed>20.527028523388378</speed>
  <fix>3d</fix>
</trkpt>
<trkpt lat="-35.2760629" lon="148.9862354">
  <ele>664.03</ele>
  <time>2026-09-01T20:00:28Z</time>
  <course>16.17</course>
  <speed>21.86</speed>
  <fix>3d</fix>
</trkpt>
<trkpt lat="-35.2759919" lon="148.9862638">
  <ele>665.37</ele>
  <time>2026-09-01T20:00:28Z</time>
  <course>18.17</course>
  <speed>20.140069513286193</speed>
  <fix>3d</fix>
</trkpt>
<trkpt lat="-35.2760262" lon="148.9862494">
  <ele>664.75</ele>
  <time>2026-09-01T20:00:28Z</time>
  <course>18.13</course>
  <speed>20.93</speed>
  <fix>3d</fix>
</trkpt>
<trkpt lat="-35.275975" lon="148.9862711">
  <ele>665.71</ele>
  <time>2026-09-01T20:00:28Z</time>
  <course>18.4</course>
  <speed>19.791394594621167</speed>
  <fix>3d</fix>
</trkpt>
<trkpt lat="-35.2760262" lon="148.9862494">
  <ele>664.75</ele>
  <time>2026-09-01T20:00:28Z</time>
  <course>18.13</course>
  <speed>20.93</speed>
  <fix>3d</fix>
</trkpt>
<trkpt lat="-35.2759584" lon="148.9862784">
  <ele>666.01</ele>
  <time>2026-09-01T20:00:28Z</time>
  <course>18.61</course>
  <speed>19.47081148796834</speed>
  <fix>3d</fix>
</trkpt>
<trkpt lat="-35.2759913" lon="148.9862639">
  <ele>665.46</ele>
  <time>2026-09-01T20:00:28Z</time>
  <course>19.33</course>
  <speed>20.12</speed>
  <fix>3d</fix>
</trkpt>
<trkpt lat="-35.275942" lon="148.9862857">
  <ele>666.29</ele>
  <time>2026-09-01T20:00:28Z</time>
  <course>18.8</course>
  <speed>19.17185437040455</speed>
  <fix>3d</fix>
</trkpt>
<trkpt lat="-35.2759913" lon="148.9862639">
  <ele>665.46</ele>
  <time>2026-09-01T20:00:28Z</time>
  <course>19.33</course>
  <speed>20.12</speed>
  <fix>3d</fix>
</trkpt>
<trkpt lat="-35.275926" lon="148.9862929">
  <ele>666.52</ele>
  <time>2026-09-01T20:00:28Z</time>
  <course>18.98</course>
  <speed>18.888356201639148</speed>
  <fix>3d</fix>
</trkpt>
<trkpt lat="-35.2759578" lon="148.9862786">
  <ele>666.09</ele>
  <time>2026-09-01T20:00:28Z</time>
  <course>19.98</course>
  <speed>19.45</speed>
  <fix>3d</fix>
</trkpt>
<trkpt lat="-35.2759102" lon="148.9863001">
  <ele>666.72</ele>
  <time>2026-09-01T20:00:28Z</time>
  <course>19.15</course>
  <speed>18.62021750678547</speed>
  <fix>3d</fix>
</trkpt>
<trkpt lat="-35.2759578" lon="148.9862786">
  <ele>666.09</ele>
  <time>2026-09-01T20:00:28Z</time>
  <course>19.98</course>
  <speed>19.45</speed>
  <fix>3d</fix>
</trkpt>
<trkpt lat="-35.2758941" lon="148.9863074">
  <ele>666.88</ele>
  <time>2026-09-01T20:00:28Z</time>
  <course>19.3</course>
  <speed>18.370857356149713</speed>
  <fix>3d</fix>
</trkpt>
<trkpt lat="-35.2759255" lon="148.9862931">
  <ele>666.58</ele>
  <time>2026-09-01T20:00:28Z</time>
  <course>20.31</course>
  <speed>18.86</speed>
  <fix>3d</fix>
</trkpt>
<trkpt lat="-35.2758789" lon="148.9863143">
  <ele>667.0</ele>
  <time>2026-09-01T20:00:28Z</time>
  <course>19.42</course>
  <speed>18.133287071019417</speed>
  <fix>3d</fix>
</trkpt>
<trkpt lat="-35.2758941" lon="148.9863074">
  <ele>666.93</ele>
  <time>2026-09-01T20:00:28Z</time>
  <course>20.44</course>
  <speed>18.35</speed>
  <fix>3d</fix>
</trkpt>
<trkpt lat="-35.2758637" lon="148.9863212">
  <ele>667.1</ele>
  <time>2026-09-01T20:00:28Z</time>
  <course>19.5</course>
  <speed>17.914474594584124</speed>
  <fix>3d</fix>
</trkpt>
<trkpt lat="-35.2758941" lon="148.9863074">
  <ele>666.93</ele>
  <time>2026-09-01T20:00:28Z</time>
  <course>20.44</course>
  <speed>18.35</speed>
  <fix>3d</fix>
</trkpt>
<trkpt lat="-35.2758487" lon="148.986328">
  <ele>667.16</ele>
  <time>2026-09-01T20:00:28Z</time>
  <course>19.54</course>
  <speed>17.7015959732449</speed>
  <fix>3d</fix>
</trkpt>
<trkpt lat="-35.2758636" lon="148.9863213">
  <ele>667.15</ele>
  <time>2026-09-01T20:00:28Z</time>
  <course>20.4</course>
  <speed>17.9</speed>
  <fix>3d</fix>
</trkpt>
<trkpt lat="-35.2758339" lon="148.9863347">
  <ele>667.2</ele>
  <time>2026-09-01T20:00:28Z</time>
  <course>19.52</course>
  <speed>17.50754123228045</speed>
  <fix>3d</fix>
</trkpt>
<trkpt lat="-35.2758636" lon="148.9863213">
  <ele>667.15</ele>
  <time>2026-09-01T20:00:28Z</time>
  <course>20.4</course>
  <speed>17.9</speed>
  <fix>3d</fix>
</trkpt>
<trkpt lat="-35.2758194" lon="148.9863411">
  <ele>667.22</ele>
  <time>2026-09-01T20:00:28Z</time>
  <course>19.45</course>
  <speed>17.32553318082881</speed>
  <fix>3d</fix>
</trkpt>
<trkpt lat="-35.2758636" lon="148.9863213">
  <ele>667.15</ele>
  <time>2026-09-01T20:00:28Z</time>
  <course>20.4</course>
  <speed>17.9</speed>
  <fix>3d</fix>
</trkpt>
<trkpt lat="-35.2758049" lon="148.9863476">
  <ele>667.23</ele>
  <time>2026-09-01T20:00:28Z</time>
  <course>19.32</course>
  <speed>17.153160058718044</speed>
  <fix>3d</fix>
</trkpt>
<trkpt lat="-35.2758338" lon="148.9863348">
  <ele>667.25</ele>
  <time>2026-09-01T20:00:28Z</time>
  <course>20.18</course>
  <speed>17.49</speed>
  <fix>3d</fix>
</trkpt>
<trkpt lat="-35.2757904" lon="148.9863539">
  <ele>667.21</ele>
  <time>2026-09-01T20:00:28Z</time>
  <course>19.12</course>
  <speed>16.983815825661793</speed>
  <fix>3d</fix>
</trkpt>
<trkpt lat="-35.2758338" lon="148.9863348">
  <ele>667.25</ele>
  <time>2026-09-01T20:00:28Z</time>
  <course>20.18</course>
  <speed>17.49</speed>
  <fix>3d</fix>
</trkpt>
<trkpt lat="-35.2757761" lon="148.98636">
  <ele>667.19</ele>
  <time>2026-09-01T20:00:28Z</time>
  <course>18.86</course>
  <speed>16.824387061643584</speed>
  <fix>3d</fix>
</trkpt>
<trkpt lat="-35.2758046" lon="148.9863479">
  <ele>667.27</ele>
  <time>2026-09-01T20:00:28Z</time>
  <course>19.78</course>
  <speed>17.12</speed>
  <fix>3d</fix>
</trkpt>
<trkpt lat="-35.2757619" lon="148.986366">
  <ele>667.16</ele>
  <time>2026-09-01T20:00:28Z</time>
  <course>18.55</course>
  <speed>16.671730564041635</speed>
  <fix>3d</fix>
</trkpt>
<trkpt lat="-35.2758046" lon="148.9863479">
  <ele>667.27</ele>
  <time>2026-09-01T20:00:28Z</time>
  <course>19.78</course>
  <speed>17.12</speed>
  <fix>3d</fix>
</trkpt>
<trkpt lat="-35.2757478" lon="148.9863718">
  <ele>667.12</ele>
  <time>2026-09-01T20:00:28Z</time>
  <course>18.18</course>
  <speed>16.51347328698599</speed>
  <fix>3d</fix>
</trkpt>
<trkpt lat="-35.2757759" lon="148.9863603">
  <ele>667.23</ele>
  <time>2026-09-01T20:00:28Z</time>
  <course>19.18</course>
  <speed>16.79</speed>
  <fix>3d</fix>
</trkpt>
<trkpt lat="-35.2757337" lon="148.9863775">
  <ele>667.08</ele>
  <time>2026-09-01T20:00:28Z</time>
  <course>17.77</course>
  <speed>16.36571110584566</speed>
  <fix>3d</fix>
</trkpt>
<trkpt lat="-35.2757759" lon="148.9863603">
  <ele>667.23</ele>
  <time>2026-09-01T20:00:28Z</time>
  <course>19.18</course>
  <speed>16.79</speed>
  <fix>3d</fix>
</trkpt>
<trkpt lat="-35.2757198" lon="148.9863829">
  <ele>667.04</ele>
  <time>2026-09-01T20:00:28Z</time>
  <course>17.31</course>
  <speed>16.225566245897244</speed>
  <fix>3d</fix>
</trkpt>
<trkpt lat="-35.2757476" lon="148.9863721">
  <ele>667.16</ele>
  <time>2026-09-01T20:00:28Z</time>
  <course>18.39</course>
  <speed>16.48</speed>
  <fix>3d</fix>
</trkpt>
<trkpt lat="-35.275706" lon="148.9863881">
  <ele>667.0</ele>
  <time>2026-09-01T20:00:28Z</time>
  <course>16.81</course>
  <speed>16.086718123967984</speed>
  <fix>3d</fix>
</trkpt>
<trkpt lat="-35.2757476" lon="148.9863721">
  <ele>667.16</ele>
  <time>2026-09-01T20:00:28Z</time>
  <course>18.39</course>
  <speed>16.48</speed>
  <fix>3d</fix>
</trkpt>
<trkpt lat="-35.2756922" lon="148.9863931">
  <ele>666.96</ele>
  <time>2026-09-01T20:00:28Z</time>
  <course>16.28</course>
  <speed>15.943606869212498</speed>
  <fix>3d</fix>
</trkpt>
<trkpt lat="-35.2757197" lon="148.9863831">
  <ele>667.07</ele>
  <time>2026-09-01T20:00:28Z</time>
  <course>17.44</course>
  <speed>16.19</speed>
  <fix>3d</fix>
</trkpt>
<trkpt lat="-35.2756785" lon="148.986398">
  <ele>666.92</ele>
  <time>2026-09-01T20:00:28Z</time>
  <course>15.72</course>
  <speed>15.804935937864474</speed>
  <fix>3d</fix>
</trkpt>
<trkpt lat="-35.2757197" lon="148.9863831">
  <ele>667.07</ele>
  <time>2026-09-01T20:00:28Z</time>
  <course>17.44</course>
  <speed>16.19</speed>
  <fix>3d</fix>
</trkpt>
<trkpt lat="-35.2756649" lon="148.9864026">
  <ele>666.88</ele>
  <time>2026-09-01T20:00:28Z</time>
  <course>15.14</course>
  <speed>15.665264121616335</speed>
  <fix>3d</fix>
</trkpt>
<trkpt lat="-35.2756921" lon="148.9863934">
  <ele>666.98</ele>
  <time>2026-09-01T20:00:28Z</time>
  <course>16.34</course>
  <speed>15.91</speed>
  <fix>3d</fix>
</trkpt>
<trkpt lat="-35.2756512" lon="148.986407">
  <ele>666.84</ele>
  <time>2026-09-01T20:00:28Z</time>
  <course>14.53</course>
  <speed>15.51526345248446</speed>
  <fix>3d</fix>
</trkpt>
<trkpt lat="-35.2756921" lon="148.9863934">
  <ele>666.98</ele>
  <time>2026-09-01T20:00:28Z</time>
  <course>16.34</course>
  <speed>15.91</speed>
  <fix>3d</fix>
</trkpt>
<trkpt lat="-35.2756378" lon="148.9864111">
  <ele>666.8</ele>
  <time>2026-09-01T20:00:28Z</time>
  <course>13.9</course>
  <speed>15.379405060014513</speed>
  <fix>3d</fix>
</trkpt>
<trkpt lat="-35.2756648" lon="148.9864028">
  <ele>666.9</ele>
  <time>2026-09-01T20:00:28Z</time>
  <course>15.13</course>
  <speed>15.62</speed>
  <fix>3d</fix>
</trkpt>
<trkpt lat="-35.2756244" lon="148.986415">
  <ele>666.77</ele>
  <time>2026-09-01T20:00:28Z</time>
  <course>13.27</course>
  <speed>15.233489422978572</speed>
  <fix>3d</fix>
</trkpt>
<trkpt lat="-35.2756648" lon="148.9864028">
  <ele>666.9</ele>
  <time>2026-09-01T20:00:28Z</time>
  <course>15.13</course>
  <speed>15.62</speed>
  <fix>3d</fix>
</trkpt>
<trkpt lat="-35.2756107" lon="148.9864189">
  <ele>666.73</ele>
  <time>2026-09-01T20:00:28Z</time>
  <course>12.59</course>
  <speed>15.089748175499814</speed>
  <fix>3d</fix>
</trkpt>
<trkpt lat="-35.2756378" lon="148.9864114">
  <ele>666.82</ele>
  <time>2026-09-01T20:00:28Z</time>
  <course>13.84</course>
  <speed>15.34</speed>
  <fix>3d</fix>
</trkpt>
<trkpt lat="-35.2755975" lon="148.9864223">
  <ele>666.7</ele>
  <time>2026-09-01T20:00:28Z</time>
  <course>11.93</course>
  <speed>14.948244044034068</speed>
  <fix>3d</fix>
</trkpt>
<trkpt lat="-35.2756112" lon="148.986419">
  <ele>666.76</ele>
  <time>2026-09-01T20:00:28Z</time>
  <course>12.49</course>
  <speed>15.06</speed>
  <fix>3d</fix>
</trkpt>
<trkpt lat="-35.2755845" lon="148.9864255">
  <ele>666.68</ele>
  <time>2026-09-01T20:00:28Z</time>
  <course>11.26</course>
  <speed>14.810941901175632</speed>
  <fix>3d</fix>
</trkpt>
<trkpt lat="-35.2756112" lon="148.986419">
  <ele>666.76</ele>
  <time>2026-09-01T20:00:28Z</time>
  <course>12.49</course>
  <speed>15.06</speed>
  <fix>3d</fix>
</trkpt>
<trkpt lat="-35.2755715" lon="148.9864286">
  <ele>666.65</ele>
  <time>2026-09-01T20:00:28Z</time>
  <course>10.58</course>
  <speed>14.67576233113633</speed>
  <fix>3d</fix>
</trkpt>
<trkpt lat="-35.275585" lon="148.9864257">
  <ele>666.71</ele>
  <time>2026-09-01T20:00:28Z</time>
  <course>11.12</course>
  <speed>14.78</speed>
  <fix>3d</fix>
</trkpt>
<trkpt lat="-35.2755587" lon="148.9864314">
  <ele>666.63</ele>
  <time>2026-09-01T20:00:28Z</time>
  <course>9.89</course>
  <speed>14.532904045647587</speed>
  <fix>3d</fix>
</trkpt>
<trkpt lat="-35.275585" lon="148.9864257">
  <ele>666.71</ele>
  <time>2026-09-01T20:00:28Z</time>
  <course>11.12</course>
  <speed>14.78</speed>
  <fix>3d</fix>
</trkpt>
<trkpt lat="-35.2755459" lon="148.9864339">
  <ele>666.61</ele>
  <time>2026-09-01T20:00:28Z</time>
  <course>9.2</course>
  <speed>14.392247913373367</speed>
  <fix>3d</fix>
</trkpt>
<trkpt lat="-35.2755591" lon="148.9864316">
  <ele>666.67</ele>
  <time>2026-09-01T20:00:28Z</time>
  <course>9.72</course>
  <speed>14.5</speed>
  <fix>3d</fix>
</trkpt>
<trkpt lat="-35.2755331" lon="148.9864363">
  <ele>666.59</ele>
  <time>2026-09-01T20:00:28Z</time>
  <course>8.49</course>
  <speed>14.25385912656639</speed>
  <fix>3d</fix>
</trkpt>
<trkpt lat="-35.2755591" lon="148.9864316">
  <ele>666.67</ele>
  <time>2026-09-01T20:00:28Z</time>
  <course>9.72</course>
  <speed>14.5</speed>
  <fix>3d</fix>
</trkpt>
<trkpt lat="-35.2755204" lon="148.9864385">
  <ele>666.57</ele>
  <time>2026-09-01T20:00:28Z</time>
  <course>7.79</course>
  <speed>14.109181407863462</speed>
  <fix>3d</fix>
</trkpt>
<trkpt lat="-35.2755336" lon="148.9864365">
  <ele>666.64</ele>
  <time>2026-09-01T20:00:28Z</time>
  <course>8.31</course>
  <speed>14.22</speed>
  <fix>3d</fix>
</trkpt>
<trkpt lat="-35.275508" lon="148.9864404">
  <ele>666.56</ele>
  <time>2026-09-01T20:00:28Z</time>
  <course>7.08</course>
  <speed>13.96662092275723</speed>
  <fix>3d</fix>
</trkpt>
<trkpt lat="-35.2755336" lon="148.9864365">
  <ele>666.64</ele>
  <time>2026-09-01T20:00:28Z</time>
  <course>8.31</course>
  <speed>14.22</speed>
  <fix>3d</fix>
</trkpt>
<trkpt lat="-35.2754956" lon="148.9864422">
  <ele>666.54</ele>
  <time>2026-09-01T20:00:28Z</time>
  <course>6.38</course>
  <speed>13.837239609112794</speed>
  <fix>3d</fix>
</trkpt>
<trkpt lat="-35.2755085" lon="148.9864406">
  <ele>666.61</ele>
  <time>2026-09-01T20:00:28Z</time>
  <course>6.9</course>
  <speed>13.95</speed>
  <fix>3d</fix>
</trkpt>
<trkpt lat="-35.2754833" lon="148.9864437">
  <ele>666.53</ele>
  <time>2026-09-01T20:00:28Z</time>
  <course>5.67</course>
  <speed>13.699927007104819</speed>
  <fix>3d</fix>
</trkpt>
<trkpt lat="-35.2755085" lon="148.9864406">
  <ele>666.61</ele>
  <time>2026-09-01T20:00:28Z</time>
  <course>6.9</course>
  <speed>13.95</speed>
  <fix>3d</fix>
</trkpt>
<trkpt lat="-35.2754711" lon="148.986445">
  <ele>666.53</ele>
  <time>2026-09-01T20:00:28Z</time>
  <course>4.96</course>
  <speed>13.554707669293352</speed>
  <fix>3d</fix>
</trkpt>
<trkpt lat="-35.2754839" lon="148.9864439">
  <ele>666.58</ele>
  <time>2026-09-01T20:00:28Z</time>
  <course>5.49</course>
  <speed>13.67</speed>
  <fix>3d</fix>
</trkpt>
<trkpt lat="-35.2754594" lon="148.9864461">
  <ele>666.52</ele>
  <time>2026-09-01T20:00:28Z</time>
  <course>4.27</course>
  <speed>13.422257634243206</speed>
  <fix>3d</fix>
</trkpt>
<trkpt lat="-35.2754839" lon="148.9864439">
  <ele>666.58</ele>
  <time>2026-09-01T20:00:28Z</time>
  <course>5.49</course>
  <speed>13.67</speed>
  <fix>3d</fix>
</trkpt>
<trkpt lat="-35.2754474" lon="148.9864471">
  <ele>666.51</ele>
  <time>2026-09-01T20:00:28Z</time>
  <course>3.57</course>
  <speed>13.281761931310168</speed>
  <fix>3d</fix>
</trkpt>
<trkpt lat="-35.2754839" lon="148.9864439">
  <ele>666.58</ele>
  <time>2026-09-01T20:00:28Z</time>
  <course>5.49</course>
  <speed>13.67</speed>
  <fix>3d</fix>
</trkpt>
<trkpt lat="-35.2754357" lon="148.9864479">
  <ele>666.51</ele>
  <time>2026-09-01T20:00:28Z</time>
  <course>2.88</course>
  <speed>13.143701913844517</speed>
  <fix>3d</fix>
</trkpt>
<trkpt lat="-35.2754597" lon="148.9864464">
  <ele>666.57</ele>
  <time>2026-09-01T20:00:28Z</time>
  <course>4.1</course>
  <speed>13.4</speed>
  <fix>3d</fix>
</trkpt>
<trkpt lat="-35.275424" lon="148.9864485">
  <ele>666.5</ele>
  <time>2026-09-01T20:00:28Z</time>
  <course>2.18</course>
  <speed>13.007444022558776</speed>
  <fix>3d</fix>
</trkpt>
<trkpt lat="-35.2754597" lon="148.9864464">
  <ele>666.57</ele>
  <time>2026-09-01T20:00:28Z</time>
  <course>4.1</course>
  <speed>13.4</speed>
  <fix>3d</fix>
</trkpt>
<trkpt lat="-35.2754124" lon="148.9864489">
  <ele>666.5</ele>
  <time>2026-09-01T20:00:28Z</time>
  <course>1.48</course>
  <speed>12.863269413333455</speed>
  <fix>3d</fix>
</trkpt>
<trkpt lat="-35.2754359" lon="148.9864481">
  <ele>666.56</ele>
  <time>2026-09-01T20:00:28Z</time>
  <course>2.72</course>
  <speed>13.12</speed>
  <fix>3d</fix>
</trkpt>
<trkpt lat="-35.2754009" lon="148.9864492">
  <ele>666.5</ele>
  <time>2026-09-01T20:00:28Z</time>
  <course>0.8</course>
  <speed>12.730769811759224</speed>
  <fix>3d</fix>
</trkpt>
<trkpt lat="-35.2754359" lon="148.9864481">
  <ele>666.56</ele>
  <time>2026-09-01T20:00:28Z</time>
  <course>2.72</course>
  <speed>13.12</speed>
  <fix>3d</fix>
</trkpt>
<trkpt lat="-35.2753895" lon="148.9864493">
  <ele>666.5</ele>
  <time>2026-09-01T20:00:28Z</time>
  <course>0.11</course>
  <speed>12.58</speed>
  <fix>3d</fix>
</trkpt>
<trkpt lat="-35.2754125" lon="148.9864491">
  <ele>666.56</ele>
  <time>2026-09-01T20:00:28Z</time>
  <course>1.37</course>
  <speed>12.84</speed>
  <fix>3d</fix>
</trkpt>
<trkpt lat="-35.2753783" lon="148.9864492">
  <ele>666.5</ele>
  <time>2026-09-01T20:00:28Z</time>
  <course>359.46</course>
  <speed>12.440787756408353</speed>
  <fix>3d</fix>
</trkpt>
<trkpt lat="-35.2754125" lon="148.9864491">
  <ele>666.56</ele>
  <time>2026-09-01T20:00:28Z</time>
  <course>1.37</course>
  <speed>12.84</speed>
  <fix>3d</fix>
</trkpt>
<trkpt lat="-35.2753672" lon="148.986449">
  <ele>666.51</ele>
  <time>2026-09-01T20:00:28Z</time>
  <course>358.81</course>
  <speed>12.292965468104105</speed>
  <fix>3d</fix>
</trkpt>
<trkpt lat="-35.2753897" lon="148.9864495">
  <ele>666.56</ele>
  <time>2026-09-01T20:00:28Z</time>
  <course>0.05</course>
  <speed>12.56</speed>
  <fix>3d</fix>
</trkpt>
<trkpt lat="-35.2753559" lon="148.9864486">
  <ele>666.52</ele>
  <time>2026-09-01T20:00:28Z</time>
  <course>358.15</course>
  <speed>12.146921420672811</speed>
  <fix>3d</fix>
</trkpt>
<trkpt lat="-35.2753674" lon="148.9864493">
  <ele>666.57</ele>
  <time>2026-09-01T20:00:28Z</time>
  <course>358.78</course>
  <speed>12.28</speed>
  <fix>3d</fix>
</trkpt>
<trkpt lat="-35.2753452" lon="148.9864481">
  <ele>666.53</ele>
  <time>2026-09-01T20:00:28Z</time>
  <course>357.53</course>
  <speed>12.001708211750527</speed>
  <fix>3d</fix>
</trkpt>
<trkpt lat="-35.2753674" lon="148.9864493">
  <ele>666.57</ele>
  <time>2026-09-01T20:00:28Z</time>
  <course>358.78</course>
  <speed>12.28</speed>
  <fix>3d</fix>
</trkpt>
<trkpt lat="-35.2753345" lon="148.9864476">
  <ele>666.54</ele>
  <time>2026-09-01T20:00:28Z</time>
  <course>356.92</course>
  <speed>11.847299270297851</speed>
  <fix>3d</fix>
</trkpt>
<trkpt lat="-35.2753456" lon="148.9864484">
  <ele>666.59</ele>
  <time>2026-09-01T20:00:28Z</time>
  <course>357.54</course>
  <speed>11.98</speed>
  <fix>3d</fix>
</trkpt>
<trkpt lat="-35.275324" lon="148.9864468">
  <ele>666.56</ele>
  <time>2026-09-01T20:00:28Z</time>
  <course>356.32</course>
  <speed>11.694075423050768</speed>
  <fix>3d</fix>
</trkpt>
<trkpt lat="-35.2753456" lon="148.9864484">
  <ele>666.59</ele>
  <time>2026-09-01T20:00:28Z</time>
  <course>357.54</course>
  <speed>11.98</speed>
  <fix>3d</fix>
</trkpt>
<trkpt lat="-35.2753136" lon="148.986446">
  <ele>666.58</ele>
  <time>2026-09-01T20:00:28Z</time>
  <course>355.73</course>
  <speed>11.542083867309229</speed>
  <fix>3d</fix>
</trkpt>
<trkpt lat="-35.2753244" lon="148.9864471">
  <ele>666.63</ele>
  <time>2026-09-01T20:00:28Z</time>
  <course>356.36</course>
  <speed>11.68</speed>
  <fix>3d</fix>
</trkpt>
<trkpt lat="-35.2753033" lon="148.986445">
  <ele>666.61</ele>
  <time>2026-09-01T20:00:28Z</time>
  <course>355.15</course>
  <speed>11.38056237626243</speed>
  <fix>3d</fix>
</trkpt>
<trkpt lat="-35.2753244" lon="148.9864471">
  <ele>666.63</ele>
  <time>2026-09-01T20:00:28Z</time>
  <course>356.36</course>
  <speed>11.68</speed>
  <fix>3d</fix>
</trkpt>
<trkpt lat="-35.2752931" lon="148.9864439">
  <ele>666.63</ele>
  <time>2026-09-01T20:00:28Z</time>
  <course>354.59</course>
  <speed>11.219242398664894</speed>
  <fix>3d</fix>
</trkpt>
<trkpt lat="-35.2753036" lon="148.9864452">
  <ele>666.67</ele>
  <time>2026-09-01T20:00:28Z</time>
  <course>355.23</course>
  <speed>11.37</speed>
  <fix>3d</fix>
</trkpt>
<trkpt lat="-35.2752832" lon="148.9864427">
  <ele>666.66</ele>
  <time>2026-09-01T20:00:28Z</time>
  <course>354.04</course>
  <speed>11.05891495581732</speed>
  <fix>3d</fix>
</trkpt>
<trkpt lat="-35.2753036" lon="148.9864452">
  <ele>666.67</ele>
  <time>2026-09-01T20:00:28Z</time>
  <course>355.23</course>
  <speed>11.37</speed>
  <fix>3d</fix>
</trkpt>
<trkpt lat="-35.2752734" lon="148.9864414">
  <ele>666.69</ele>
  <time>2026-09-01T20:00:28Z</time>
  <course>353.5</course>
  <speed>10.898499896774785</speed>
  <fix>3d</fix>
</trkpt>
<trkpt lat="-35.2752836" lon="148.9864429">
  <ele>666.73</ele>
  <time>2026-09-01T20:00:28Z</time>
  <course>354.15</course>
  <speed>11.05</speed>
  <fix>3d</fix>
</trkpt>
<trkpt lat="-35.2752638" lon="148.9864401">
  <ele>666.73</ele>
  <time>2026-09-01T20:00:28Z</time>
  <course>352.97</course>
  <speed>10.727842280719829</speed>
  <fix>3d</fix>
</trkpt>
<trkpt lat="-35.2752836" lon="148.9864429">
  <ele>666.73</ele>
  <time>2026-09-01T20:00:28Z</time>
  <course>354.15</course>
  <speed>11.05</speed>
  <fix>3d</fix>
</trkpt>
<trkpt lat="-35.2752543" lon="148.9864386">
  <ele>666.76</ele>
  <time>2026-09-01T20:00:28Z</time>
  <course>352.46</course>
  <speed>10.567875850898325</speed>
  <fix>3d</fix>
</trkpt>
<trkpt lat="-35.2752642" lon="148.9864403">
  <ele>666.79</ele>
  <time>2026-09-01T20:00:28Z</time>
  <course>353.12</course>
  <speed>10.72</speed>
  <fix>3d</fix>
</trkpt>
<trkpt lat="-35.275245" lon="148.9864371">
  <ele>666.8</ele>
  <time>2026-09-01T20:00:28Z</time>
  <course>351.97</course>
  <speed>10.387516546316544</speed>
  <fix>3d</fix>
</trkpt>
<trkpt lat="-35.2752642" lon="148.9864403">
  <ele>666.79</ele>
  <time>2026-09-01T20:00:28Z</time>
  <course>353.12</course>
  <speed>10.72</speed>
  <fix>3d</fix>
</trkpt>
<trkpt lat="-35.2752358" lon="148.9864355">
  <ele>666.84</ele>
  <time>2026-09-01T20:00:28Z</time>
  <course>351.48</course>
  <speed>10.217754156369196</speed>
  <fix>3d</fix>
</trkpt>
<trkpt lat="-35.2752454" lon="148.9864373">
  <ele>666.86</ele>
  <time>2026-09-01T20:00:28Z</time>
  <course>352.15</course>
  <speed>10.39</speed>
  <fix>3d</fix>
</trkpt>
<trkpt lat="-35.2752268" lon="148.9864339">
  <ele>666.88</ele>
  <time>2026-09-01T20:00:28Z</time>
  <course>351.01</course>
  <speed>10.04717870847334</speed>
  <fix>3d</fix>
</trkpt>
<trkpt lat="-35.2752454" lon="148.9864373">
  <ele>666.86</ele>
  <time>2026-09-01T20:00:28Z</time>
  <course>352.15</course>
  <speed>10.39</speed>
  <fix>3d</fix>
</trkpt>
<trkpt lat="-35.275218" lon="148.9864322">
  <ele>666.92</ele>
  <time>2026-09-01T20:00:28Z</time>
  <course>350.55</course>
  <speed>9.86731979820255</speed>
  <fix>3d</fix>
</trkpt>
<trkpt lat="-35.2752272" lon="148.9864341">
  <ele>666.94</ele>
  <time>2026-09-01T20:00:28Z</time>
  <course>351.23</course>
  <speed>10.04</speed>
  <fix>3d</fix>
</trkpt>
<trkpt lat="-35.2752094" lon="148.9864304">
  <ele>666.96</ele>
  <time>2026-09-01T20:00:28Z</time>
  <course>350.11</course>
  <speed>9.686428650436651</speed>
  <fix>3d</fix>
</trkpt>
<trkpt lat="-35.2752272" lon="148.9864341">
  <ele>666.94</ele>
  <time>2026-09-01T20:00:28Z</time>
  <course>351.23</course>
  <speed>10.04</speed>
  <fix>3d</fix>
</trkpt>
<trkpt lat="-35.2752009" lon="148.9864286">
  <ele>667.0</ele>
  <time>2026-09-01T20:00:28Z</time>
  <course>349.68</course>
  <speed>9.51590773389486</speed>
  <fix>3d</fix>
</trkpt>
<trkpt lat="-35.2752097" lon="148.9864306">
  <ele>667.01</ele>
  <time>2026-09-01T20:00:28Z</time>
  <course>350.37</course>
  <speed>9.68</speed>
  <fix>3d</fix>
</trkpt>
<trkpt lat="-35.2751926" lon="148.9864268">
  <ele>667.04</ele>
  <time>2026-09-01T20:00:28Z</time>
  <course>349.27</course>
  <speed>9.334264834468755</speed>
  <fix>3d</fix>
</trkpt>
<trkpt lat="-35.2752097" lon="148.9864306">
  <ele>667.01</ele>
  <time>2026-09-01T20:00:28Z</time>
  <course>350.37</course>
  <speed>9.68</speed>
  <fix>3d</fix>
</trkpt>
<trkpt lat="-35.2751844" lon="148.986425">
  <ele>667.08</ele>
  <time>2026-09-01T20:00:28Z</time>
  <course>348.87</course>
  <speed>9.151185715523425</speed>
  <fix>3d</fix>
</trkpt>
<trkpt lat="-35.2751928" lon="148.9864269">
  <ele>667.08</ele>
  <time>2026-09-01T20:00:28Z</time>
  <course>349.57</course>
  <speed>9.32</speed>
  <fix>3d</fix>
</trkpt>
<trkpt lat="-35.2751766" lon="148.9864231">
  <ele>667.11</ele>
  <time>2026-09-01T20:00:28Z</time>
  <course>348.5</course>
  <speed>8.968439106109825</speed>
  <fix>3d</fix>
</trkpt>
<trkpt lat="-35.2751928" lon="148.9864269">
  <ele>667.08</ele>
  <time>2026-09-01T20:00:28Z</time>
  <course>349.57</course>
  <speed>9.32</speed>
  <fix>3d</fix>
</trkpt>
<trkpt lat="-35.2751688" lon="148.9864212">
  <ele>667.15</ele>
  <time>2026-09-01T20:00:28Z</time>
  <course>348.13</course>
  <speed>8.78604575449047</speed>
  <fix>3d</fix>
</trkpt>
<trkpt lat="-35.2751928" lon="148.9864269">
  <ele>667.08</ele>
  <time>2026-09-01T20:00:28Z</time>
  <course>349.57</course>
  <speed>9.32</speed>
  <fix>3d</fix>
</trkpt>
<trkpt lat="-35.275161" lon="148.9864192">
  <ele>667.18</ele>
  <time>2026-09-01T20:00:28Z</time>
  <course>347.75</course>
  <speed>8.592188312647716</speed>
  <fix>3d</fix>
</trkpt>
<trkpt lat="-35.2751767" lon="148.9864232">
  <ele>667.17</ele>
  <time>2026-09-01T20:00:28Z</time>
  <course>348.82</course>
  <speed>8.95</speed>
  <fix>3d</fix>
</trkpt>
<trkpt lat="-35.2751536" lon="148.9864173">
  <ele>667.21</ele>
  <time>2026-09-01T20:00:28Z</time>
  <course>347.41</course>
  <speed>8.398630840797802</speed>
  <fix>3d</fix>
</trkpt>
<trkpt lat="-35.2751613" lon="148.9864193">
  <ele>667.24</ele>
  <time>2026-09-01T20:00:28Z</time>
  <course>348.12</course>
  <speed>8.58</speed>
  <fix>3d</fix>
</trkpt>
<trkpt lat="-35.2751464" lon="148.9864154">
  <ele>667.24</ele>
  <time>2026-09-01T20:00:28Z</time>
  <course>347.07</course>
  <speed>8.215156724007157</speed>
  <fix>3d</fix>
</trkpt>
<trkpt lat="-35.2751613" lon="148.9864193">
  <ele>667.24</ele>
  <time>2026-09-01T20:00:28Z</time>
  <course>348.12</course>
  <speed>8.58</speed>
  <fix>3d</fix>
</trkpt>
<trkpt lat="-35.2751393" lon="148.9864134">
  <ele>667.27</ele>
  <time>2026-09-01T20:00:28Z</time>
  <course>346.75</course>
  <speed>8.02977583746894</speed>
  <fix>3d</fix>
</trkpt>
<trkpt lat="-35.2751466" lon="148.9864154">
  <ele>667.3</ele>
  <time>2026-09-01T20:00:28Z</time>
  <course>347.48</course>
  <speed>8.21</speed>
  <fix>3d</fix>
</trkpt>
<trkpt lat="-35.2751324" lon="148.9864115">
  <ele>667.3</ele>
  <time>2026-09-01T20:00:28Z</time>
  <course>346.45</course>
  <speed>7.832611314242524</speed>
  <fix>3d</fix>
</trkpt>
<trkpt lat="-35.2751466" lon="148.9864154">
  <ele>667.3</ele>
  <time>2026-09-01T20:00:28Z</time>
  <course>347.48</course>
  <speed>8.21</speed>
  <fix>3d</fix>
</trkpt>
<trkpt lat="-35.2751256" lon="148.9864095">
  <ele>667.32</ele>
  <time>2026-09-01T20:00:28Z</time>
  <course>346.15</course>
  <speed>7.645338449015844</speed>
  <fix>3d</fix>
</trkpt>
<trkpt lat="-35.2751325" lon="148.9864115">
  <ele>667.35</ele>
  <time>2026-09-01T20:00:28Z</time>
  <course>346.89</course>
  <speed>7.83</speed>
  <fix>3d</fix>
</trkpt>
<trkpt lat="-35.2751191" lon="148.9864076">
  <ele>667.34</ele>
  <time>2026-09-01T20:00:28Z</time>
  <course>345.87</course>
  <speed>7.458216945088148</speed>
  <fix>3d</fix>
</trkpt>
<trkpt lat="-35.2751325" lon="148.9864115">
  <ele>667.35</ele>
  <time>2026-09-01T20:00:28Z</time>
  <course>346.89</course>
  <speed>7.83</speed>
  <fix>3d</fix>
</trkpt>
<trkpt lat="-35.2751127" lon="148.9864057">
  <ele>667.35</ele>
  <time>2026-09-01T20:00:28Z</time>
  <course>345.6</course>
  <speed>7.271258488047306</speed>
  <fix>3d</fix>
</trkpt>
<trkpt lat="-35.2751191" lon="148.9864076">
  <ele>667.39</ele>
  <time>2026-09-01T20:00:28Z</time>
  <course>346.36</course>
  <speed>7.46</speed>
  <fix>3d</fix>
</trkpt>
<trkpt lat="-35.2751065" lon="148.9864038">
  <ele>667.36</ele>
  <time>2026-09-01T20:00:28Z</time>
  <course>345.34</course>
  <speed>7.082040666361638</speed>
  <fix>3d</fix>
</trkpt>
<trkpt lat="-35.2751191" lon="148.9864076">
  <ele>667.39</ele>
  <time>2026-09-01T20:00:28Z</time>
  <course>346.36</course>
  <speed>7.46</speed>
  <fix>3d</fix>
</trkpt>
<trkpt lat="-35.2751004" lon="148.9864019">
  <ele>667.36</ele>
  <time>2026-09-01T20:00:28Z</time>
  <course>345.09</course>
  <speed>6.892923907892789</speed>
  <fix>3d</fix>
</trkpt>
<trkpt lat="-35.2751064" lon="148.9864038">
  <ele>667.41</ele>
  <time>2026-09-01T20:00:28Z</time>
  <course>345.89</course>
  <speed>7.09</speed>
  <fix>3d</fix>
</trkpt>
<trkpt lat="-35.2750945" lon="148.9864001">
  <ele>667.34</ele>
  <time>2026-09-01T20:00:28Z</time>
  <course>344.87</course>
  <speed>6.70862131887022</speed>
  <fix>3d</fix>
</trkpt>
<trkpt lat="-35.2751064" lon="148.9864038">
  <ele>667.41</ele>
  <time>2026-09-01T20:00:28Z</time>
  <course>345.89</course>
  <speed>7.09</speed>
  <fix>3d</fix>
</trkpt>
<trkpt lat="-35.2750888" lon="148.9863983">
  <ele>667.26</ele>
  <time>2026-09-01T20:00:28Z</time>
  <course>344.66</course>
  <speed>6.463721838074409</speed>
  <fix>3d</fix>
</trkpt>
<trkpt lat="-35.2750944" lon="148.9864">
  <ele>667.37</ele>
  <time>2026-09-01T20:00:28Z</time>
  <course>345.6</course>
  <speed>6.69</speed>
  <fix>3d</fix>
</trkpt>
<trkpt lat="-35.2750834" lon="148.9863966">
  <ele>667.09</ele>
  <time>2026-09-01T20:00:28Z</time>
  <course>344.5</course>
  <speed>6.153251173160413</speed>
  <fix>3d</fix>
</trkpt>
<trkpt lat="-35.2750944" lon="148.9864">
  <ele>667.37</ele>
  <time>2026-09-01T20:00:28Z</time>
  <course>345.6</course>
  <speed>6.69</speed>
  <fix>3d</fix>
</trkpt>
<trkpt lat="-35.2750782" lon="148.986395">
  <ele>666.87</ele>
  <time>2026-09-01T20:00:28Z</time>
  <course>344.35</course>
  <speed>5.77249512775888</speed>
  <fix>3d</fix>
</trkpt>
<trkpt lat="-35.2750832" lon="148.9863965">
  <ele>667.14</ele>
  <time>2026-09-01T20:00:28Z</time>
  <course>345.46</course>
  <speed>6.13</speed>
  <fix>3d</fix>
</trkpt>
<trkpt lat="-35.2750734" lon="148.9863934">
  <ele>666.59</ele>
  <time>2026-09-01T20:00:28Z</time>
  <course>344.16</course>
  <speed>5.309284320885443</speed>
  <fix>3d</fix>
</trkpt>
<trkpt lat="-35.2750832" lon="148.9863965">
  <ele>667.14</ele>
  <time>2026-09-01T20:00:28Z</time>
  <course>345.46</course>
  <speed>6.13</speed>
  <fix>3d</fix>
</trkpt>
<trkpt lat="-35.275069" lon="148.986392">
  <ele>666.27</ele>
  <time>2026-09-01T20:00:28Z</time>
  <course>343.89</course>
  <speed>4.785498929056405</speed>
  <fix>3d</fix>
</trkpt>
<trkpt lat="-35.2750733" lon="148.9863933">
  <ele>666.65</ele>
  <time>2026-09-01T20:00:28Z</time>
  <course>345.28</course>
  <speed>5.3</speed>
  <fix>3d</fix>
</trkpt>
<trkpt lat="-35.2750651" lon="148.9863908">
  <ele>665.93</ele>
  <time>2026-09-01T20:00:28Z</time>
  <course>343.52</course>
  <speed>4.242416764062673</speed>
  <fix>3d</fix>
</trkpt>
<trkpt lat="-35.2750733" lon="148.9863933">
  <ele>666.65</ele>
  <time>2026-09-01T20:00:28Z</time>
  <course>345.28</course>
  <speed>5.3</speed>
  <fix>3d</fix>
</trkpt>
<trkpt lat="-35.2750617" lon="148.9863896">
  <ele>665.58</ele>
  <time>2026-09-01T20:00:28Z</time>
  <course>343.07</course>
  <speed>3.6897831914626096</speed>
  <fix>3d</fix>
</trkpt>
<trkpt lat="-35.2750649" lon="148.9863906">
  <ele>666.01</ele>
  <time>2026-09-01T20:00:28Z</time>
  <course>344.85</course>
  <speed>4.26</speed>
  <fix>3d</fix>
</trkpt>
<trkpt lat="-35.2750587" lon="148.9863886">
  <ele>665.22</ele>
  <time>2026-09-01T20:00:28Z</time>
  <course>342.57</course>
  <speed>3.156596268134397</speed>
  <fix>3d</fix>
</trkpt>
<trkpt lat="-35.2750649" lon="148.9863906">
  <ele>666.01</ele>
  <time>2026-09-01T20:00:28Z</time>
  <course>344.85</course>
  <speed>4.26</speed>
  <fix>3d</fix>
</trkpt>
<trkpt lat="-35.2750562" lon="148.9863877">
  <ele>664.87</ele>
  <time>2026-09-01T20:00:28Z</time>
  <course>342.02</course>
  <speed>2.64841462010766</speed>
  <fix>3d</fix>
</trkpt>
<trkpt lat="-35.2750584" lon="148.9863884">
  <ele>665.31</ele>
  <time>2026-09-01T20:00:28Z</time>
  <course>343.89</course>
  <speed>3.19</speed>
  <fix>3d</fix>
</trkpt>
<trkpt lat="-35.2750541" lon="148.9863869">
  <ele>664.52</ele>
  <time>2026-09-01T20:00:28Z</time>
  <course>341.47</course>
  <speed>2.1917344729688404</speed>
  <fix>3d</fix>
</trkpt>
<trkpt lat="-35.2750584" lon="148.9863884">
  <ele>665.31</ele>
  <time>2026-09-01T20:00:28Z</time>
  <course>343.89</course>
  <speed>3.19</speed>
  <fix>3d</fix>
</trkpt>
<trkpt lat="-35.2750524" lon="148.9863862">
  <ele>664.19</ele>
  <time>2026-09-01T20:00:28Z</time>
  <course>340.92</course>
  <speed>1.7900279327429502</speed>
  <fix>3d</fix>
</trkpt>
<trkpt lat="-35.2750538" lon="148.9863866">
  <ele>664.62</ele>
  <time>2026-09-01T20:00:28Z</time>
  <course>341.84</course>
  <speed>2.23</speed>
  <fix>3d</fix>
</trkpt>
<trkpt lat="-35.275051" lon="148.9863856">
  <ele>663.88</ele>
  <time>2026-09-01T20:00:28Z</time>
  <course>340.4</course>
  <speed>1.4317122615944868</speed>
  <fix>3d</fix>
</trkpt>
<trkpt lat="-35.2750538" lon="148.9863866">
  <ele>664.62</ele>
  <time>2026-09-01T20:00:28Z</time>
  <course>341.84</course>
  <speed>2.23</speed>
  <fix>3d</fix>
</trkpt>
<trkpt lat="-35.2750499" lon="148.986385">
  <ele>663.58</ele>
  <time>2026-09-01T20:00:28Z</time>
  <course>339.92</course>
  <speed>1.1406138698087096</speed>
  <fix>3d</fix>
</trkpt>
<trkpt lat="-35.2750507" lon="148.9863853">
  <ele>663.97</ele>
  <time>2026-09-01T20:00:28Z</time>
  <course>337.57</course>
  <speed>1.46</speed>
  <fix>3d</fix>
</trkpt>
<trkpt lat="-35.2750491" lon="148.9863844">
  <ele>663.3</ele>
  <time>2026-09-01T20:00:28Z</time>
  <course>339.48</course>
  <speed>0.900499861188218</speed>
  <fix>3d</fix>
</trkpt>
<trkpt lat="-35.2750507" lon="148.9863853">
  <ele>663.97</ele>
  <time>2026-09-01T20:00:28Z</time>
  <course>337.57</course>
  <speed>1.46</speed>
  <fix>3d</fix>
</trkpt>
<trkpt lat="-35.2750485" lon="148.9863839">
  <ele>663.04</ele>
  <time>2026-09-01T20:00:28Z</time>
  <course>339.11</course>
  <speed>0.7140028011149536</speed>
  <fix>3d</fix>
</trkpt>
<trkpt lat="-35.2750489" lon="148.9863842">
  <ele>663.4</ele>
  <time>2026-09-01T20:00:28Z</time>
  <course>328.94</course>
  <speed>0.91</speed>
  <fix>3d</fix>
</trkpt>
<trkpt lat="-35.275048" lon="148.9863834">
  <ele>662.8</ele>
  <time>2026-09-01T20:00:28Z</time>
  <course>338.81</course>
  <speed>0.5869412236331676</speed>
  <fix>3d</fix>
</trkpt>
<trkpt lat="-35.2750489" lon="148.9863842">
  <ele>663.4</ele>
  <time>2026-09-01T20:00:28Z</time>
  <course>328.94</course>
  <speed>0.91</speed>
  <fix>3d</fix>
</trkpt>
<trkpt lat="-35.2750477" lon="148.986383">
  <ele>662.58</ele>
  <time>2026-09-01T20:00:28Z</time>
  <course>338.61</course>
  <speed>0.5021951811795887</speed>
  <fix>3d</fix>
</trkpt>
<trkpt lat="-35.2750478" lon="148.9863832">
  <ele>662.91</ele>
  <time>2026-09-01T20:00:28Z</time>
  <course>313.22</course>
  <speed>0.58</speed>
  <fix>3d</fix>
</trkpt>
<trkpt lat="-35.2750475" lon="148.9863825">
  <ele>662.37</ele>
  <time>2026-09-01T20:00:28Z</time>
  <course>338.52</course>
  <speed>0.45188494110780014</speed>
  <fix>3d</fix>
</trkpt>
<trkpt lat="-35.2750478" lon="148.9863832">
  <ele>662.91</ele>
  <time>2026-09-01T20:00:28Z</time>
  <course>313.22</course>
  <speed>0.58</speed>
  <fix>3d</fix>
</trkpt>
<trkpt lat="-35.2750473" lon="148.986382">
  <ele>662.17</ele>
  <time>2026-09-01T20:00:28Z</time>
  <course>338.55</course>
  <speed>0.41484937025383084</speed>
  <fix>3d</fix>
</trkpt>
<trkpt lat="-35.2750473" lon="148.9863822">
  <ele>662.47</ele>
  <time>2026-09-01T20:00:28Z</time>
  <course>292.12</course>
  <speed>0.44</speed>
  <fix>3d</fix>
</trkpt>
<trkpt lat="-35.2750472" lon="148.9863816">
  <ele>661.99</ele>
  <time>2026-09-01T20:00:28Z</time>
  <course>338.68</course>
  <speed>0.40311288741492746</speed>
  <fix>3d</fix>
</trkpt>
<trkpt lat="-35.2750473" lon="148.9863822">
  <ele>662.47</ele>
  <time>2026-09-01T20:00:28Z</time>
  <course>292.12</course>
  <speed>0.44</speed>
  <fix>3d</fix>
</trkpt>
<trkpt lat="-35.2750472" lon="148.9863811">
  <ele>661.81</ele>
  <time>2026-09-01T20:00:28Z</time>
  <course>338.88</course>
  <speed>0.39</speed>
  <fix>3d</fix>
</trkpt>
<trkpt lat="-35.2750471" lon="148.9863814">
  <ele>662.08</ele>
  <time>2026-09-01T20:00:28Z</time>
  <course>272.21</course>
  <speed>0.39</speed>
  <fix>3d</fix>
</trkpt>
<trkpt lat="-35.2750472" lon="148.9863807">
  <ele>661.64</ele>
  <time>2026-09-01T20:00:28Z</time>
  <course>339.13</course>
  <speed>0.382099463490856</speed>
  <fix>3d</fix>
</trkpt>
<trkpt lat="-35.2750471" lon="148.9863814">
  <ele>662.08</ele>
  <time>2026-09-01T20:00:28Z</time>
  <course>272.21</course>
  <speed>0.39</speed>
  <fix>3d</fix>
</trkpt>
<trkpt lat="-35.2750472" lon="148.9863802">
  <ele>661.47</ele>
  <time>2026-09-01T20:00:28Z</time>
  <course>339.38</course>
  <speed>0.37656340767525465</speed>
  <fix>3d</fix>
</trkpt>
<trkpt lat="-35.2750471" lon="148.9863806">
  <ele>661.74</ele>
  <time>2026-09-01T20:00:28Z</time>
  <course>256.69</course>
  <speed>0.37</speed>
  <fix>3d</fix>
</trkpt>
<trkpt lat="-35.2750473" lon="148.9863798">
  <ele>661.31</ele>
  <time>2026-09-01T20:00:28Z</time>
  <course>339.62</course>
  <speed>0.3640054944640259</speed>
  <fix>3d</fix>
</trkpt>
<trkpt lat="-35.2750471" lon="148.9863806">
  <ele>661.74</ele>
  <time>2026-09-01T20:00:28Z</time>
  <course>256.69</course>
  <speed>0.37</speed>
  <fix>3d</fix>
</trkpt>
<trkpt lat="-35.2750474" lon="148.9863795">
  <ele>661.14</ele>
  <time>2026-09-01T20:00:28Z</time>
  <course>339.81</course>
  <speed>0.3605551275463989</speed>
  <fix>3d</fix>
</trkpt>
<trkpt lat="-35.2750473" lon="148.9863798">
  <ele>661.42</ele>
  <time>2026-09-01T20:00:28Z</time>
  <course>245.57</course>
  <speed>0.37</speed>
  <fix>3d</fix>
</trkpt>
<trkpt lat="-35.2750475" lon="148.9863791">
  <ele>660.98</ele>
  <time>2026-09-01T20:00:28Z</time>
  <course>339.93</course>
  <speed>0.3453983207834109</speed>
  <fix>3d</fix>
</trkpt>
<trkpt lat="-35.2750473" lon="148.9863798">
  <ele>661.42</ele>
  <time>2026-09-01T20:00:28Z</time>
  <course>245.57</course>
  <speed>0.37</speed>
  <fix>3d</fix>
</trkpt>
<trkpt lat="-35.2750477" lon="148.9863788">
  <ele>660.81</ele>
  <time>2026-09-01T20:00:28Z</time>
  <course>339.98</course>
  <speed>0.33105890714493696</speed>
  <fix>3d</fix>
</trkpt>
<trkpt lat="-35.2750477" lon="148.9863791">
  <ele>661.09</ele>
  <time>2026-09-01T20:00:28Z</time>
  <course>238.03</course>
  <speed>0.35</speed>
  <fix>3d</fix>
</trkpt>
<trkpt lat="-35.2750478" lon="148.9863784">
  <ele>660.64</ele>
  <time>2026-09-01T20:00:28Z</time>
  <course>339.96</course>
  <speed>0.3087069808086626</speed>
  <fix>3d</fix>
</trkpt>
<trkpt lat="-35.2750477" lon="148.9863791">
  <ele>661.09</ele>
  <time>2026-09-01T20:00:28Z</time>
  <course>238.03</course>
  <speed>0.35</speed>
  <fix>3d</fix>
</trkpt>
<trkpt lat="-35.2750479" lon="148.9863782">
  <ele>660.47</ele>
  <time>2026-09-01T20:00:28Z</time>
  <course>339.87</course>
  <speed>0.27730849247724093</speed>
  <fix>3d</fix>
</trkpt>
<trkpt lat="-35.275048" lon="148.9863785">
  <ele>660.76</ele>
  <time>2026-09-01T20:00:28Z</time>
  <course>233.25</course>
  <speed>0.31</speed>
  <fix>3d</fix>
</trkpt>
<trkpt lat="-35.2750481" lon="148.9863779">
  <ele>660.29</ele>
  <time>2026-09-01T20:00:28Z</time>
  <course>339.72</course>
  <speed>0.25495097567963926</speed>
  <fix>3d</fix>
</trkpt>
<trkpt lat="-35.275048" lon="148.9863785">
  <ele>660.76</ele>
  <time>2026-09-01T20:00:28Z</time>
  <course>233.25</course>
  <speed>0.31</speed>
  <fix>3d</fix>
</trkpt>
<trkpt lat="-35.2750482" lon="148.9863777">
  <ele>660.1</ele>
  <time>2026-09-01T20:00:28Z</time>
  <course>339.53</course>
  <speed>0.22847319317591727</speed>
  <fix>3d</fix>
</trkpt>
<trkpt lat="-35.2750483" lon="148.986378">
  <ele>660.41</ele>
  <time>2026-09-01T20:00:28Z</time>
  <course>230.94</course>
  <speed>0.26</speed>
  <fix>3d</fix>
</trkpt>
<trkpt lat="-35.2750483" lon="148.9863775">
  <ele>659.92</ele>
  <time>2026-09-01T20:00:28Z</time>
  <course>339.35</course>
  <speed>0.20248456731316586</speed>
  <fix>3d</fix>
</trkpt>
<trkpt lat="-35.2750483" lon="148.986378">
  <ele>660.41</ele>
  <time>2026-09-01T20:00:28Z</time>
  <course>230.94</course>
  <speed>0.26</speed>
  <fix>3d</fix>
</trkpt>
<trkpt lat="-35.2750484" lon="148.9863773">
  <ele>659.74</ele>
  <time>2026-09-01T20:00:28Z</time>
  <course>339.24</course>
  <speed>0.17464249196572978</speed>
  <fix>3d</fix>
</trkpt>
<trkpt lat="-35.2750486" lon="148.9863775">
  <ele>660.04</ele>
  <time>2026-09-01T20:00:28Z</time>
  <course>232.22</course>
  <speed>0.19</speed>
  <fix>3d</fix>
</trkpt>
<trkpt lat="-35.2750484" lon="148.9863771">
  <ele>659.56</ele>
  <time>2026-09-01T20:00:28Z</time>
  <course>339.24</course>
  <speed>0.15033296378372907</speed>
  <fix>3d</fix>
</trkpt>
<trkpt lat="-35.2750486" lon="148.9863775">
  <ele>660.04</ele>
  <time>2026-09-01T20:00:28Z</time>
  <course>232.22</course>
  <speed>0.19</speed>
  <fix>3d</fix>
</trkpt>
<trkpt lat="-35.2750485" lon="148.986377">
  <ele>659.39</ele>
  <time>2026-09-01T20:00:28Z</time>
  <course>339.43</course>
  <speed>0.15033296378372907</speed>
  <fix>3d</fix>
</trkpt>
<trkpt lat="-35.2750487" lon="148.9863772">
  <ele>659.69</ele>
  <time>2026-09-01T20:00:28Z</time>
  <course>242.13</course>
  <speed>0.14</speed>
  <fix>3d</fix>
</trkpt>
<trkpt lat="-35.2750485" lon="148.9863768">
  <ele>659.23</ele>
  <time>2026-09-01T20:00:28Z</time>
  <course>339.84</course>
  <speed>0.15524174696260024</speed>
  <fix>3d</fix>
</trkpt>
<trkpt lat="-35.2750487" lon="148.9863772">
  <ele>659.69</ele>
  <time>2026-09-01T20:00:28Z</time>
  <course>242.13</course>
  <speed>0.14</speed>
  <fix>3d</fix>
</trkpt>
<trkpt lat="-35.2750484" lon="148.9863767">
  <ele>659.08</ele>
  <time>2026-09-01T20:00:28Z</time>
  <course>340.46</course>
  <speed>0.17888543819998318</speed>
  <fix>3d</fix>
</trkpt>
<trkpt lat="-35.2750488" lon="148.986377">
  <ele>659.36</ele>
  <time>2026-09-01T20:00:28Z</time>
  <course>268.97</course>
  <speed>0.11</speed>
  <fix>3d</fix>
</trkpt>
<trkpt lat="-35.2750484" lon="148.9863765">
  <ele>658.95</ele>
  <time>2026-09-01T20:00:28Z</time>
  <course>341.26</course>
  <speed>0.20248456731316586</speed>
  <fix>3d</fix>
</trkpt>
<trkpt lat="-35.2750488" lon="148.986377">
  <ele>659.36</ele>
  <time>2026-09-01T20:00:28Z</time>
  <course>268.97</course>
  <speed>0.11</speed>
  <fix>3d</fix>
</trkpt>
<trkpt lat="-35.2750483" lon="148.9863764">
  <ele>658.84</ele>
  <time>2026-09-01T20:00:28Z</time>
  <course>342.12</course>
  <speed>0.23430749027719963</speed>
  <fix>3d</fix>
</trkpt>
<trkpt lat="-35.2750488" lon="148.9863767">
  <ele>659.08</ele>
  <time>2026-09-01T20:00:28Z</time>
  <course>298.54</course>
  <speed>0.14</speed>
  <fix>3d</fix>
</trkpt>
<trkpt lat="-35.2750482" lon="148.9863762">
  <ele>658.75</ele>
  <time>2026-09-01T20:00:28Z</time>
  <course>342.93</course>
  <speed>0.26870057685088805</speed>
  <fix>3d</fix>
</trkpt>
<trkpt lat="-35.2750488" lon="148.9863767">
  <ele>659.08</ele>
  <time>2026-09-01T20:00:28Z</time>
  <course>298.54</course>
  <speed>0.14</speed>
  <fix>3d</fix>
</trkpt>
<trkpt lat="-35.2750481" lon="148.986376">
  <ele>658.67</ele>
  <time>2026-09-01T20:00:28Z</time>
  <course>343.6</course>
  <speed>0.3189043743820395</speed>
  <fix>3d</fix>
</trkpt>
<trkpt lat="-35.2750486" lon="148.9863764">
  <ele>658.88</ele>
  <time>2026-09-01T20:00:28Z</time>
  <course>314.75</course>
  <speed>0.21</speed>
  <fix>3d</fix>
</trkpt>
<trkpt lat="-35.2750479" lon="148.9863758">
  <ele>658.62</ele>
  <time>2026-09-01T20:00:28Z</time>
  <course>344.05</course>
  <speed>0.36235341863986875</speed>
  <fix>3d</fix>
</trkpt>
<trkpt lat="-35.2750486" lon="148.9863764">
  <ele>658.88</ele>
  <time>2026-09-01T20:00:28Z</time>
  <course>314.75</course>
  <speed>0.21</speed>
  <fix>3d</fix>
</trkpt>
<trkpt lat="-35.2750477" lon="148.9863755">
  <ele>658.58</ele>
  <time>2026-09-01T20:00:28Z</time>
  <course>344.27</course>
  <speed>0.41400483088968904</speed>
  <fix>3d</fix>
</trkpt>
<trkpt lat="-35.2750482" lon="148.986376">
  <ele>658.75</ele>
  <time>2026-09-01T20:00:28Z</time>
  <course>323.11</course>
  <speed>0.3</speed>
  <fix>3d</fix>
</trkpt>
<trkpt lat="-35.2750474" lon="148.9863753">
  <ele>658.55</ele>
  <time>2026-09-01T20:00:28Z</time>
  <course>344.3</course>
  <speed>0.4743416490252569</speed>
  <fix>3d</fix>
</trkpt>
<trkpt lat="-35.2750482" lon="148.986376">
  <ele>658.75</ele>
  <time>2026-09-01T20:00:28Z</time>
  <course>323.11</course>
  <speed>0.3</speed>
  <fix>3d</fix>
</trkpt>
<trkpt lat="-35.2750471" lon="148.986375">
  <ele>658.55</ele>
  <time>2026-09-01T20:00:28Z</time>
  <course>344.18</course>
  <speed>0.5269724850502159</speed>
  <fix>3d</fix>
</trkpt>
<trkpt lat="-35.2750477" lon="148.9863756">
  <ele>658.69</ele>
  <time>2026-09-01T20:00:28Z</time>
  <course>327.92</course>
  <speed>0.41</speed>
  <fix>3d</fix>
</trkpt>
<trkpt lat="-35.2750467" lon="148.9863747">
  <ele>658.55</ele>
  <time>2026-09-01T20:00:28Z</time>
  <course>343.98</course>
  <speed>0.574543296888929</speed>
  <fix>3d</fix>
</trkpt>
<trkpt lat="-35.2750477" lon="148.9863756">
  <ele>658.69</ele>
  <time>2026-09-01T20:00:28Z</time>
  <course>327.92</course>
  <speed>0.41</speed>
  <fix>3d</fix>
</trkpt>
<trkpt lat="-35.2750462" lon="148.9863744">
  <ele>658.57</ele>
  <time>2026-09-01T20:00:28Z</time>
  <course>343.75</course>
  <speed>0.6363175307973213</speed>
  <fix>3d</fix>
</trkpt>
<trkpt lat="-35.275047" lon="148.986375">
  <ele>658.69</ele>
  <time>2026-09-01T20:00:28Z</time>
  <course>330.97</course>
  <speed>0.52</speed>
  <fix>3d</fix>
</trkpt>
<trkpt lat="-35.2750458" lon="148.9863741">
  <ele>658.59</ele>
  <time>2026-09-01T20:00:28Z</time>
  <course>343.55</course>
  <speed>0.6896375859826667</speed>
  <fix>3d</fix>
</trkpt>
<trkpt lat="-35.275047" lon="148.986375">
  <ele>658.69</ele>
  <time>2026-09-01T20:00:28Z</time>
  <course>330.97</course>
  <speed>0.52</speed>
  <fix>3d</fix>
</trkpt>
<trkpt lat="-35.2750452" lon="148.9863738">
  <ele>658.61</ele>
  <time>2026-09-01T20:00:28Z</time>
  <course>343.4</course>
  <speed>0.7382411530116699</speed>
  <fix>3d</fix>
</trkpt>
<trkpt lat="-35.2750462" lon="148.9863745">
  <ele>658.73</ele>
  <time>2026-09-01T20:00:28Z</time>
  <course>333.11</course>
  <speed>0.63</speed>
  <fix>3d</fix>
</trkpt>
<trkpt lat="-35.2750447" lon="148.9863734">
  <ele>658.64</ele>
  <time>2026-09-01T20:00:28Z</time>
  <course>343.32</course>
  <speed>0.7871467461661772</speed>
  <fix>3d</fix>
</trkpt>
<trkpt lat="-35.2750462" lon="148.9863745">
  <ele>658.73</ele>
  <time>2026-09-01T20:00:28Z</time>
  <course>333.11</course>
  <speed>0.63</speed>
  <fix>3d</fix>
</trkpt>
<trkpt lat="-35.2750441" lon="148.9863731">
  <ele>658.66</ele>
  <time>2026-09-01T20:00:28Z</time>
  <course>343.29</course>
  <speed>0.8318653737234168</speed>
  <fix>3d</fix>
</trkpt>
<trkpt lat="-35.275045" lon="148.9863738">
  <ele>658.77</ele>
  <time>2026-09-01T20:00:28Z</time>
  <course>334.74</course>
  <speed>0.74</speed>
  <fix>3d</fix>
</trkpt>
<trkpt lat="-35.2750434" lon="148.9863727">
  <ele>658.68</ele>
  <time>2026-09-01T20:00:28Z</time>
  <course>343.32</course>
  <speed>0.8810221336606703</speed>
  <fix>3d</fix>
</trkpt>
<trkpt lat="-35.275045" lon="148.9863738">
  <ele>658.77</ele>
  <time>2026-09-01T20:00:28Z</time>
  <course>334.74</course>
  <speed>0.74</speed>
  <fix>3d</fix>
</trkpt>
<trkpt lat="-35.2750427" lon="148.9863723">
  <ele>658.7</ele>
  <time>2026-09-01T20:00:28Z</time>
  <course>343.38</course>
  <speed>0.9213576938409967</speed>
  <fix>3d</fix>
</trkpt>
<trkpt lat="-35.2750437" lon="148.9863731">
  <ele>658.82</ele>
  <time>2026-09-01T20:00:28Z</time>
  <course>336.01</course>
  <speed>0.83</speed>
  <fix>3d</fix>
</trkpt>
<trkpt lat="-35.275042" lon="148.9863719">
  <ele>658.71</ele>
  <time>2026-09-01T20:00:28Z</time>
  <course>343.45</course>
  <speed>0.9617692030835673</speed>
  <fix>3d</fix>
</trkpt>
<trkpt lat="-35.2750437" lon="148.9863731">
  <ele>658.82</ele>
  <time>2026-09-01T20:00:28Z</time>
  <course>336.01</course>
  <speed>0.83</speed>
  <fix>3d</fix>
</trkpt>
<trkpt lat="-35.2750412" lon="148.9863715">
  <ele>658.72</ele>
  <time>2026-09-01T20:00:28Z</time>
  <course>343.52</course>
  <speed>1.0022474744293448</speed>
  <fix>3d</fix>
</trkpt>
<trkpt lat="-35.2750422" lon="148.9863724">
  <ele>658.85</ele>
  <time>2026-09-01T20:00:28Z</time>
  <course>337.01</course>
  <speed>0.92</speed>
  <fix>3d</fix>
</trkpt>
<trkpt lat="-35.2750404" lon="148.9863711">
  <ele>658.72</ele>
  <time>2026-09-01T20:00:28Z</time>
  <course>343.58</course>
  <speed>1.0387011119662863</speed>
  <fix>3d</fix>
</trkpt>
<trkpt lat="-35.2750422" lon="148.9863724">
  <ele>658.85</ele>
  <time>2026-09-01T20:00:28Z</time>
  <course>337.01</course>
  <speed>0.92</speed>
  <fix>3d</fix>
</trkpt>
<trkpt lat="-35.2750396" lon="148.9863707">
  <ele>658.72</ele>
  <time>2026-09-01T20:00:28Z</time>
  <course>343.61</course>
  <speed>1.070186899564744</speed>
  <fix>3d</fix>
</trkpt>
<trkpt lat="-35.2750407" lon="148.9863715">
  <ele>658.85</ele>
  <time>2026-09-01T20:00:28Z</time>
  <course>337.8</course>
  <speed>1.0</speed>
  <fix>3d</fix>
</trkpt>
<trkpt lat="-35.2750387" lon="148.9863703">
  <ele>658.71</ele>
  <time>2026-09-01T20:00:28Z</time>
  <course>343.64</course>
  <speed>1.0977249200050074</speed>
  <fix>3d</fix>
</trkpt>
<trkpt lat="-35.2750407" lon="148.9863715">
  <ele>658.85</ele>
  <time>2026-09-01T20:00:28Z</time>
  <course>337.8</course>
  <speed>1.0</speed>
  <fix>3d</fix>
</trkpt>
<trkpt lat="-35.2750378" lon="148.9863698">
  <ele>658.7</ele>
  <time>2026-09-01T20:00:28Z</time>
  <course>343.64</course>
  <speed>1.1292475370794484</speed>
  <fix>3d</fix>
</trkpt>
<trkpt lat="-35.2750389" lon="148.9863707">
  <ele>658.83</ele>
  <time>2026-09-01T20:00:28Z</time>
  <course>338.44</course>
  <speed>1.07</speed>
  <fix>3d</fix>
</trkpt>
<trkpt lat="-35.2750369" lon="148.9863694">
  <ele>658.69</ele>
  <time>2026-09-01T20:00:28Z</time>
  <course>343.63</course>
  <speed>1.1476933388322859</speed>
  <fix>3d</fix>
</trkpt>
<trkpt lat="-35.2750389" lon="148.9863707">
  <ele>658.83</ele>
  <time>2026-09-01T20:00:28Z</time>
  <course>338.44</course>
  <speed>1.07</speed>
  <fix>3d</fix>
</trkpt>
<trkpt lat="-35.2750359" lon="148.9863689">
  <ele>658.67</ele>
  <time>2026-09-01T20:00:28Z</time>
  <course>343.61</course>
  <speed>1.1792370414806346</speed>
  <fix>3d</fix>
</trkpt>
<trkpt lat="-35.2750371" lon="148.9863698">
  <ele>658.81</ele>
  <time>2026-09-01T20:00:28Z</time>
  <course>338.97</course>
  <speed>1.12</speed>
  <fix>3d</fix>
</trkpt>
<trkpt lat="-35.275035" lon="148.9863685">
  <ele>658.66</ele>
  <time>2026-09-01T20:00:28Z</time>
  <course>343.59</course>
  <speed>1.1977478866606277</speed>
  <fix>3d</fix>
</trkpt>
<trkpt lat="-35.2750371" lon="148.9863698">
  <ele>658.81</ele>
  <time>2026-09-01T20:00:28Z</time>
  <course>338.97</course>
  <speed>1.12</speed>
  <fix>3d</fix>
</trkpt>
<trkpt lat="-35.275034" lon="148.986368">
  <ele>658.64</ele>
  <time>2026-09-01T20:00:28Z</time>
  <course>343.57</course>
  <speed>1.20702112657567</speed>
  <fix>3d</fix>
</trkpt>
<trkpt lat="-35.2750352" lon="148.9863689">
  <ele>658.78</ele>
  <time>2026-09-01T20:00:28Z</time>
  <course>339.39</course>
  <speed>1.17</speed>
  <fix>3d</fix>
</trkpt>
<trkpt lat="-35.275033" lon="148.9863676">
  <ele>658.62</ele>
  <time>2026-09-01T20:00:28Z</time>
  <course>343.56</course>
  <speed>1.216305882580529</speed>
  <fix>3d</fix>
</trkpt>
<trkpt lat="-35.2750352" lon="148.9863689">
  <ele>658.78</ele>
  <time>2026-09-01T20:00:28Z</time>
  <course>339.39</course>
  <speed>1.17</speed>
  <fix>3d</fix>
</trkpt>
<trkpt lat="-35.275032" lon="148.9863671">
  <ele>658.6</ele>
  <time>2026-09-01T20:00:28Z</time>
  <course>343.56</course>
  <speed>1.2256018929489298</speed>
  <fix>3d</fix>
</trkpt>
<trkpt lat="-35.2750331" lon="148.986368">
  <ele>658.74</ele>
  <time>2026-09-01T20:00:28Z</time>
  <course>339.73</course>
  <speed>1.19</speed>
  <fix>3d</fix>
</trkpt>
<trkpt lat="-35.275031" lon="148.9863667">
  <ele>658.59</ele>
  <time>2026-09-01T20:00:28Z</time>
  <course>343.56</course>
  <speed>1.2256018929489298</speed>
  <fix>3d</fix>
</trkpt>
<trkpt lat="-35.2750331" lon="148.986368">
  <ele>658.74</ele>
  <time>2026-09-01T20:00:28Z</time>
  <course>339.73</course>
  <speed>1.19</speed>
  <fix>3d</fix>
</trkpt>
<trkpt lat="-35.27503" lon="148.9863663">
  <ele>658.57</ele>
  <time>2026-09-01T20:00:28Z</time>
  <course>343.56</course>
  <speed>1.2219656296312102</speed>
  <fix>3d</fix>
</trkpt>
<trkpt lat="-35.2750311" lon="148.986367">
  <ele>658.7</ele>
  <time>2026-09-01T20:00:28Z</time>
  <course>339.98</course>
  <speed>1.2</speed>
  <fix>3d</fix>
</trkpt>
<trkpt lat="-35.275029" lon="148.9863658">
  <ele>658.56</ele>
  <time>2026-09-01T20:00:29Z</time>
  <course>343.57</course>
  <speed>1.2126417442921877</speed>
  <fix>3d</fix>
</trkpt>
<trkpt lat="-35.2750311" lon="148.986367">
  <ele>658.7</ele>
  <time>2026-09-01T20:00:29Z</time>
  <course>339.98</course>
  <speed>1.2</speed>
  <fix>3d</fix>
</trkpt>
<trkpt lat="-35.275028" lon="148.9863654">
  <ele>658.55</ele>
  <time>2026-09-01T20:00:29Z</time>
  <course>343.57</course>
  <speed>1.1997082978791136</speed>
  <fix>3d</fix>
</trkpt>
<trkpt lat="-35.2750291" lon="148.9863661">
  <ele>658.67</ele>
  <time>2026-09-01T20:00:29Z</time>
  <course>340.17</course>
  <speed>1.19</speed>
  <fix>3d</fix>
</trkpt>
<trkpt lat="-35.275027" lon="148.9863649">
  <ele>658.54</ele>
  <time>2026-09-01T20:00:29Z</time>
  <course>343.58</course>
  <speed>1.1774548823628022</speed>
  <fix>3d</fix>
</trkpt>
<trkpt lat="-35.2750291" lon="148.9863661">
  <ele>658.67</ele>
  <time>2026-09-01T20:00:29Z</time>
  <course>340.17</course>
  <speed>1.19</speed>
  <fix>3d</fix>
</trkpt>
<trkpt lat="-35.275026" lon="148.9863645">
  <ele>658.53</ele>
  <time>2026-09-01T20:00:29Z</time>
  <course>343.58</course>
  <speed>1.158792474949678</speed>
  <fix>3d</fix>
</trkpt>
<trkpt lat="-35.2750271" lon="148.9863653">
  <ele>658.65</ele>
  <time>2026-09-01T20:00:29Z</time>
  <course>340.29</course>
  <speed>1.17</speed>
  <fix>3d</fix>
</trkpt>
<trkpt lat="-35.2750251" lon="148.9863641">
  <ele>658.52</ele>
  <time>2026-09-01T20:00:29Z</time>
  <course>343.59</course>
  <speed>1.1365298060323803</speed>
  <fix>3d</fix>
</trkpt>
<trkpt lat="-35.2750271" lon="148.9863653">
  <ele>658.65</ele>
  <time>2026-09-01T20:00:29Z</time>
  <course>340.29</course>
  <speed>1.17</speed>
  <fix>3d</fix>
</trkpt>
<trkpt lat="-35.2750241" lon="148.9863637">
  <ele>658.52</ele>
  <time>2026-09-01T20:00:29Z</time>
  <course>343.59</course>
  <speed>1.104943437466371</speed>
  <fix>3d</fix>
</trkpt>
<trkpt lat="-35.2750251" lon="148.9863644">
  <ele>658.63</ele>
  <time>2026-09-01T20:00:29Z</time>
  <course>340.37</course>
  <speed>1.12</speed>
  <fix>3d</fix>
</trkpt>
<trkpt lat="-35.2750232" lon="148.9863633">
  <ele>658.51</ele>
  <time>2026-09-01T20:00:29Z</time>
  <course>343.6</course>
  <speed>1.0697663296253066</speed>
  <fix>3d</fix>
</trkpt>
<trkpt lat="-35.2750251" lon="148.9863644">
  <ele>658.63</ele>
  <time>2026-09-01T20:00:29Z</time>
  <course>340.37</course>
  <speed>1.12</speed>
  <fix>3d</fix>
</trkpt>
<trkpt lat="-35.2750223" lon="148.9863629">
  <ele>658.51</ele>
  <time>2026-09-01T20:00:29Z</time>
  <course>343.61</course>
  <speed>1.0381714694596456</speed>
  <fix>3d</fix>
</trkpt>
<trkpt lat="-35.2750233" lon="148.9863636">
  <ele>658.62</ele>
  <time>2026-09-01T20:00:29Z</time>
  <course>340.39</course>
  <speed>1.06</speed>
  <fix>3d</fix>
</trkpt>
<trkpt lat="-35.2750215" lon="148.9863625">
  <ele>658.5</ele>
  <time>2026-09-01T20:00:29Z</time>
  <course>343.62</course>
  <speed>0.9972462083156798</speed>
  <fix>3d</fix>
</trkpt>
<trkpt lat="-35.2750233" lon="148.9863636">
  <ele>658.62</ele>
  <time>2026-09-01T20:00:29Z</time>
  <course>340.39</course>
  <speed>1.06</speed>
  <fix>3d</fix>
</trkpt>
<trkpt lat="-35.2750207" lon="148.9863622">
  <ele>658.5</ele>
  <time>2026-09-01T20:00:29Z</time>
  <course>343.62</course>
  <speed>0.952732911156112</speed>
  <fix>3d</fix>
</trkpt>
<trkpt lat="-35.2750215" lon="148.9863628">
  <ele>658.61</ele>
  <time>2026-09-01T20:00:29Z</time>
  <course>340.34</course>
  <speed>0.99</speed>
  <fix>3d</fix>
</trkpt>
<trkpt lat="-35.2750199" lon="148.9863619">
  <ele>658.49</ele>
  <time>2026-09-01T20:00:29Z</time>
  <course>343.63</course>
  <speed>0.9118113840043894</speed>
  <fix>3d</fix>
</trkpt>
<trkpt lat="-35.2750215" lon="148.9863628">
  <ele>658.61</ele>
  <time>2026-09-01T20:00:29Z</time>
  <course>340.34</course>
  <speed>0.99</speed>
  <fix>3d</fix>
</trkpt>
<trkpt lat="-35.2750192" lon="148.9863615">
  <ele>658.49</ele>
  <time>2026-09-01T20:00:29Z</time>
  <course>343.63</course>
  <speed>0.8616263691415206</speed>
  <fix>3d</fix>
</trkpt>
<trkpt lat="-35.2750199" lon="148.9863621">
  <ele>658.6</ele>
  <time>2026-09-01T20:00:29Z</time>
  <course>340.16</course>
  <speed>0.9</speed>
  <fix>3d</fix>
</trkpt>
<trkpt lat="-35.2750185" lon="148.9863612">
  <ele>658.48</ele>
  <time>2026-09-01T20:00:29Z</time>
  <course>343.63</course>
  <speed>0.8077747210701756</speed>
  <fix>3d</fix>
</trkpt>
<trkpt lat="-35.2750199" lon="148.9863621">
  <ele>658.6</ele>
  <time>2026-09-01T20:00:29Z</time>
  <course>340.16</course>
  <speed>0.9</speed>
  <fix>3d</fix>
</trkpt>
<trkpt lat="-35.2750178" lon="148.9863609">
  <ele>658.48</ele>
  <time>2026-09-01T20:00:29Z</time>
  <course>343.63</course>
  <speed>0.7669419795525605</speed>
  <fix>3d</fix>
</trkpt>
<trkpt lat="-35.2750185" lon="148.9863614">
  <ele>658.59</ele>
  <time>2026-09-01T20:00:29Z</time>
  <course>339.85</course>
  <speed>0.81</speed>
  <fix>3d</fix>
</trkpt>
<trkpt lat="-35.2750172" lon="148.9863606">
  <ele>658.48</ele>
  <time>2026-09-01T20:00:29Z</time>
  <course>343.64</course>
  <speed>0.7130918594402827</speed>
  <fix>3d</fix>
</trkpt>
<trkpt lat="-35.2750185" lon="148.9863614">
  <ele>658.59</ele>
  <time>2026-09-01T20:00:29Z</time>
  <course>339.85</course>
  <speed>0.81</speed>
  <fix>3d</fix>
</trkpt>
<trkpt lat="-35.2750167" lon="148.9863604">
  <ele>658.47</ele>
  <time>2026-09-01T20:00:29Z</time>
  <course>343.64</course>
  <speed>0.65</speed>
  <fix>3d</fix>
</trkpt>
<trkpt lat="-35.2750172" lon="148.9863609">
  <ele>658.58</ele>
  <time>2026-09-01T20:00:29Z</time>
  <course>339.45</course>
  <speed>0.7</speed>
  <fix>3d</fix>
</trkpt>
<trkpt lat="-35.2750161" lon="148.9863601">
  <ele>658.47</ele>
  <time>2026-09-01T20:00:29Z</time>
  <course>343.65</course>
  <speed>0.5961543424315552</speed>
  <fix>3d</fix>
</trkpt>
<trkpt lat="-35.2750172" lon="148.9863609">
  <ele>658.58</ele>
  <time>2026-09-01T20:00:29Z</time>
  <course>339.45</course>
  <speed>0.7</speed>
  <fix>3d</fix>
</trkpt>
<trkpt lat="-35.2750157" lon="148.9863599">
  <ele>658.47</ele>
  <time>2026-09-01T20:00:29Z</time>
  <course>343.65</course>
  <speed>0.5462600113499065</speed>
  <fix>3d</fix>
</trkpt>
<trkpt lat="-35.2750161" lon="148.9863604">
  <ele>658.57</ele>
  <time>2026-09-01T20:00:29Z</time>
  <course>338.9</course>
  <speed>0.59</speed>
  <fix>3d</fix>
</trkpt>
<trkpt lat="-35.2750152" lon="148.9863597">
  <ele>658.46</ele>
  <time>2026-09-01T20:00:29Z</time>
  <course>343.65</course>
  <speed>0.4833218389437829</speed>
  <fix>3d</fix>
</trkpt>
<trkpt lat="-35.2750161" lon="148.9863604">
  <ele>658.57</ele>
  <time>2026-09-01T20:00:29Z</time>
  <course>338.9</course>
  <speed>0.59</speed>
  <fix>3d</fix>
</trkpt>
<trkpt lat="-35.2750149" lon="148.9863595">
  <ele>658.46</ele>
  <time>2026-09-01T20:00:29Z</time>
  <course>343.65</course>
  <speed>0.4295346318982906</speed>
  <fix>3d</fix>
</trkpt>
<trkpt lat="-35.2750152" lon="148.98636">
  <ele>658.57</ele>
  <time>2026-09-01T20:00:29Z</time>
  <course>337.99</course>
  <speed>0.48</speed>
  <fix>3d</fix>
</trkpt>
<trkpt lat="-35.2750145" lon="148.9863594">
  <ele>658.45</ele>
  <time>2026-09-01T20:00:29Z</time>
  <course>343.66</course>
  <speed>0.3712142238654117</speed>
  <fix>3d</fix>
</trkpt>
<trkpt lat="-35.2750152" lon="148.98636">
  <ele>658.57</ele>
  <time>2026-09-01T20:00:29Z</time>
  <course>337.99</course>
  <speed>0.48</speed>
  <fix>3d</fix>
</trkpt>
<trkpt lat="-35.2750143" lon="148.9863592">
  <ele>658.45</ele>
  <time>2026-09-01T20:00:29Z</time>
  <course>343.66</course>
  <speed>0.3176476034853718</speed>
  <fix>3d</fix>
</trkpt>
<trkpt lat="-35.2750145" lon="148.9863596">
  <ele>658.56</ele>
  <time>2026-09-01T20:00:29Z</time>
  <course>336.39</course>
  <speed>0.36</speed>
  <fix>3d</fix>
</trkpt>
<trkpt lat="-35.275014" lon="148.9863591">
  <ele>658.44</ele>
  <time>2026-09-01T20:00:29Z</time>
  <course>343.66</course>
  <speed>0.25553864678361277</speed>
  <fix>3d</fix>
</trkpt>
<trkpt lat="-35.2750145" lon="148.9863596">
  <ele>658.56</ele>
  <time>2026-09-01T20:00:29Z</time>
  <course>336.39</course>
  <speed>0.36</speed>
  <fix>3d</fix>
</trkpt>
<trkpt lat="-35.2750139" lon="148.986359">
  <ele>658.44</ele>
  <time>2026-09-01T20:00:29Z</time>
  <course>343.67</course>
  <speed>0.20808652046684814</speed>
  <fix>3d</fix>
</trkpt>
<trkpt lat="-35.275014" lon="148.9863593">
  <ele>658.55</ele>
  <time>2026-09-01T20:00:29Z</time>
  <course>333.34</course>
  <speed>0.25</speed>
  <fix>3d</fix>
</trkpt>
<trkpt lat="-35.2750137" lon="148.9863589">
  <ele>658.44</ele>
  <time>2026-09-01T20:00:29Z</time>
  <course>343.67</course>
  <speed>0.15620499351813308</speed>
  <fix>3d</fix>
</trkpt>
<trkpt lat="-35.275014" lon="148.9863593">
  <ele>658.55</ele>
  <time>2026-09-01T20:00:29Z</time>
  <course>333.34</course>
  <speed>0.25</speed>
  <fix>3d</fix>
</trkpt>
<trkpt lat="-35.2750136" lon="148.9863588">
  <ele>658.44</ele>
  <time>2026-09-01T20:00:29Z</time>
  <course>343.67</course>
  <speed>0.11401754250991379</speed>
  <fix>3d</fix>
</trkpt>
<trkpt lat="-35.2750137" lon="148.986359">
  <ele>658.55</ele>
  <time>2026-09-01T20:00:29Z</time>
  <course>325.77</course>
  <speed>0.14</speed>
  <fix>3d</fix>
</trkpt>
<trkpt lat="-35.2750136" lon="148.9863587">
  <ele>658.44</ele>
  <time>2026-09-01T20:00:29Z</time>
  <course>343.67</course>
  <speed>0.07280109889280519</speed>
  <fix>3d</fix>
</trkpt>
<trkpt lat="-35.2750137" lon="148.986359">
  <ele>658.55</ele>
  <time>2026-09-01T20:00:29Z</time>
  <course>325.77</course>
  <speed>0.14</speed>
  <fix>3d</fix>
</trkpt>
<trkpt lat="-35.2750136" lon="148.9863587">
  <ele>658.44</ele>
  <time>2026-09-01T20:00:29Z</time>
  <course>343.68</course>
  <speed>0.0632455532033676</speed>
  <fix>3d</fix>
</trkpt>
<trkpt lat="-35.2750135" lon="148.9863589">
  <ele>658.55</ele>
  <time>2026-09-01T20:00:29Z</time>
  <course>291.68</course>
  <speed>0.05</speed>
  <fix>3d</fix>
</trkpt>
<trkpt lat="-35.2750137" lon="148.9863587">
  <ele>658.44</ele>
  <time>2026-09-01T20:00:29Z</time>
  <course>343.68</course>
  <speed>0.08062257748298549</speed>
  <fix>3d</fix>
</trkpt>
<trkpt lat="-35.2750135" lon="148.9863589">
  <ele>658.55</ele>
  <time>2026-09-01T20:00:29Z</time>
  <course>291.68</course>
  <speed>0.05</speed>
  <fix>3d</fix>
</trkpt>
<trkpt lat="-35.2750137" lon="148.9863586">
  <ele>658.44</ele>
  <time>2026-09-01T20:00:29Z</time>
  <course>343.68</course>
  <speed>0.11401754250991379</speed>
  <fix>3d</fix>
</trkpt>
<trkpt lat="-35.2750135" lon="148.9863589">
  <ele>658.55</ele>
  <time>2026-09-01T20:00:29Z</time>
  <course>198.95</course>
  <speed>0.07</speed>
  <fix>3d</fix>
</trkpt>
<trkpt lat="-35.2750138" lon="148.9863586">
  <ele>658.44</ele>
  <time>2026-09-01T20:00:29Z</time>
  <course>343.68</course>
  <speed>0.15132745950421556</speed>
  <fix>3d</fix>
</trkpt>
<trkpt lat="-35.2750135" lon="148.9863589">
  <ele>658.55</ele>
  <time>2026-09-01T20:00:29Z</time>
  <course>198.95</course>
  <speed>0.07</speed>
  <fix>3d</fix>
</trkpt>
<trkpt lat="-35.275014" lon="148.9863586">
  <ele>658.44</ele>
  <time>2026-09-01T20:00:29Z</time>
  <course>343.67</course>
  <speed>0.18</speed>
  <fix>3d</fix>
</trkpt>
<trkpt lat="-35.2750137" lon="148.9863589">
  <ele>658.55</ele>
  <time>2026-09-01T20:00:29Z</time>
  <course>179.52</course>
  <speed>0.15</speed>
  <fix>3d</fix>
</trkpt>
<trkpt lat="-35.2750141" lon="148.9863587">
  <ele>658.44</ele>
  <time>2026-09-01T20:00:29Z</time>
  <course>343.66</course>
  <speed>0.22</speed>
  <fix>3d</fix>
</trkpt>
<trkpt lat="-35.2750137" lon="148.9863589">
  <ele>658.55</ele>
  <time>2026-09-01T20:00:29Z</time>
  <course>179.52</course>
  <speed>0.15</speed>
  <fix>3d</fix>
</trkpt>
<trkpt lat="-35.2750143" lon="148.9863587">
  <ele>658.44</ele>
  <time>2026-09-01T20:00:29Z</time>
  <course>343.64</course>
  <speed>0.24020824298928628</speed>
  <fix>3d</fix>
</trkpt>
<trkpt lat="-35.275014" lon="148.9863589">
  <ele>658.55</ele>
  <time>2026-09-01T20:00:29Z</time>
  <course>173.84</course>
  <speed>0.22</speed>
  <fix>3d</fix>
</trkpt>
<trkpt lat="-35.2750145" lon="148.9863587">
  <ele>658.44</ele>
  <time>2026-09-01T20:00:29Z</time>
  <course>343.61</course>
  <speed>0.2707397274136177</speed>
  <fix>3d</fix>
</trkpt>
<trkpt lat="-35.275014" lon="148.9863589">
  <ele>658.55</ele>
  <time>2026-09-01T20:00:29Z</time>
  <course>173.84</course>
  <speed>0.22</speed>
  <fix>3d</fix>
</trkpt>
<trkpt lat="-35.2750148" lon="148.9863587">
  <ele>658.44</ele>
  <time>2026-09-01T20:00:29Z</time>
  <course>343.58</course>
  <speed>0.2906888370749727</speed>
  <fix>3d</fix>
</trkpt>
<trkpt lat="-35.2750145" lon="148.9863589">
  <ele>658.55</ele>
  <time>2026-09-01T20:00:29Z</time>
  <course>171.25</course>
  <speed>0.28</speed>
  <fix>3d</fix>
</trkpt>
<trkpt lat="-35.275015" lon="148.9863588">
  <ele>658.44</ele>
  <time>2026-09-01T20:00:29Z</time>
  <course>343.54</course>
  <speed>0.3014962686336267</speed>
  <fix>3d</fix>
</trkpt>
<trkpt lat="-35.2750145" lon="148.9863589">
  <ele>658.55</ele>
  <time>2026-09-01T20:00:29Z</time>
  <course>171.25</course>
  <speed>0.28</speed>
  <fix>3d</fix>
</trkpt>
<trkpt lat="-35.2750153" lon="148.9863588">
  <ele>658.44</ele>
  <time>2026-09-01T20:00:29Z</time>
  <course>343.51</course>
  <speed>0.32249030993194194</speed>
  <fix>3d</fix>
</trkpt>
<trkpt lat="-35.275015" lon="148.9863589">
  <ele>658.55</ele>
  <time>2026-09-01T20:00:29Z</time>
  <course>169.72</course>
  <speed>0.32</speed>
  <fix>3d</fix>
</trkpt>
<trkpt lat="-35.2750156" lon="148.9863589">
  <ele>658.45</ele>
  <time>2026-09-01T20:00:29Z</time>
  <course>343.48</course>
  <speed>0.33241540277189324</speed>
  <fix>3d</fix>
</trkpt>
<trkpt lat="-35.275015" lon="148.9863589">
  <ele>658.55</ele>
  <time>2026-09-01T20:00:29Z</time>
  <course>169.72</course>
  <speed>0.32</speed>
  <fix>3d</fix>
</trkpt>
<trkpt lat="-35.2750159" lon="148.986359">
  <ele>658.45</ele>
  <time>2026-09-01T20:00:29Z</time>
  <course>343.47</course>
  <speed>0.34365680554879163</speed>
  <fix>3d</fix>
</trkpt>
<trkpt lat="-35.2750156" lon="148.986359">
  <ele>658.55</ele>
  <time>2026-09-01T20:00:29Z</time>
  <course>168.55</course>
  <speed>0.35</speed>
  <fix>3d</fix>
</trkpt>
<trkpt lat="-35.2750162" lon="148.9863591">
  <ele>658.45</ele>
  <time>2026-09-01T20:00:29Z</time>
  <course>343.46</course>
  <speed>0.34365680554879163</speed>
  <fix>3d</fix>
</trkpt>
<trkpt lat="-35.2750156" lon="148.986359">
  <ele>658.55</ele>
  <time>2026-09-01T20:00:29Z</time>
  <course>168.55</course>
  <speed>0.35</speed>
  <fix>3d</fix>
</trkpt>
<trkpt lat="-35.2750165" lon="148.9863591">
  <ele>658.45</ele>
  <time>2026-09-01T20:00:29Z</time>
  <course>343.45</course>
  <speed>0.3535533905932738</speed>
  <fix>3d</fix>
</trkpt>
<trkpt lat="-35.2750163" lon="148.9863593">
  <ele>658.55</ele>
  <time>2026-09-01T20:00:29Z</time>
  <course>167.54</course>
  <speed>0.36</speed>
  <fix>3d</fix>
</trkpt>
<trkpt lat="-35.2750168" lon="148.9863592">
  <ele>658.44</ele>
  <time>2026-09-01T20:00:29Z</time>
  <course>343.45</course>
  <speed>0.35510561809129404</speed>
  <fix>3d</fix>
</trkpt>
<trkpt lat="-35.2750163" lon="148.9863593">
  <ele>658.55</ele>
  <time>2026-09-01T20:00:29Z</time>
  <course>167.54</course>
  <speed>0.36</speed>
  <fix>3d</fix>
</trkpt>
<trkpt lat="-35.2750172" lon="148.9863593">
  <ele>658.44</ele>
  <time>2026-09-01T20:00:29Z</time>
  <course>343.45</course>
  <speed>0.34525353003264136</speed>
  <fix>3d</fix>
</trkpt>
<trkpt lat="-35.2750169" lon="148.9863595">
  <ele>658.55</ele>
  <time>2026-09-01T20:00:29Z</time>
  <course>166.77</course>
  <speed>0.37</speed>
  <fix>3d</fix>
</trkpt>
<trkpt lat="-35.2750175" lon="148.9863594">
  <ele>658.44</ele>
  <time>2026-09-01T20:00:29Z</time>
  <course>343.45</course>
  <speed>0.34525353003264136</speed>
  <fix>3d</fix>
</trkpt>
<trkpt lat="-35.2750169" lon="148.9863595">
  <ele>658.55</ele>
  <time>2026-09-01T20:00:29Z</time>
  <course>166.77</course>
  <speed>0.37</speed>
  <fix>3d</fix>
</trkpt>
<trkpt lat="-35.2750178" lon="148.9863595">
  <ele>658.44</ele>
  <time>2026-09-01T20:00:29Z</time>
  <course>343.46</course>
  <speed>0.33541019662496846</speed>
  <fix>3d</fix>
</trkpt>
<trkpt lat="-35.2750176" lon="148.9863596">
  <ele>658.54</ele>
  <time>2026-09-01T20:00:29Z</time>
  <course>166.2</course>
  <speed>0.36</speed>
  <fix>3d</fix>
</trkpt>
<trkpt lat="-35.2750181" lon="148.9863596">
  <ele>658.44</ele>
  <time>2026-09-01T20:00:29Z</time>
  <course>343.48</course>
  <speed>0.33541019662496846</speed>
  <fix>3d</fix>
</trkpt>
<trkpt lat="-35.2750176" lon="148.9863596">
  <ele>658.54</ele>
  <time>2026-09-01T20:00:29Z</time>
  <course>166.2</course>
  <speed>0.36</speed>
  <fix>3d</fix>
</trkpt>
<trkpt lat="-35.2750184" lon="148.9863597">
  <ele>658.44</ele>
  <time>2026-09-01T20:00:29Z</time>
  <course>343.49</course>
  <speed>0.3255764119219941</speed>
  <fix>3d</fix>
</trkpt>
<trkpt lat="-35.2750182" lon="148.9863599">
  <ele>658.54</ele>
  <time>2026-09-01T20:00:29Z</time>
  <course>165.79</course>
  <speed>0.35</speed>
  <fix>3d</fix>
</trkpt>
<trkpt lat="-35.2750187" lon="148.9863598">
  <ele>658.44</ele>
  <time>2026-09-01T20:00:29Z</time>
  <course>343.51</course>
  <speed>0.31575306807693887</speed>
  <fix>3d</fix>
</trkpt>
<trkpt lat="-35.2750182" lon="148.9863599">
  <ele>658.54</ele>
  <time>2026-09-01T20:00:29Z</time>
  <course>165.79</course>
  <speed>0.35</speed>
  <fix>3d</fix>
</trkpt>
<trkpt lat="-35.275019" lon="148.9863599">
  <ele>658.44</ele>
  <time>2026-09-01T20:00:29Z</time>
  <course>343.53</course>
  <speed>0.304138126514911</speed>
  <fix>3d</fix>
</trkpt>
<trkpt lat="-35.2750188" lon="148.98636">
  <ele>658.54</ele>
  <time>2026-09-01T20:00:29Z</time>
  <course>165.43</course>
  <speed>0.34</speed>
  <fix>3d</fix>
</trkpt>
<trkpt lat="-35.2750193" lon="148.9863599">
  <ele>658.44</ele>
  <time>2026-09-01T20:00:29Z</time>
  <course>343.54</course>
  <speed>0.304138126514911</speed>
  <fix>3d</fix>
</trkpt>
<trkpt lat="-35.2750188" lon="148.98636">
  <ele>658.54</ele>
  <time>2026-09-01T20:00:29Z</time>
  <course>165.43</course>
  <speed>0.34</speed>
  <fix>3d</fix>
</trkpt>
<trkpt lat="-35.2750195" lon="148.98636">
  <ele>658.44</ele>
  <time>2026-09-01T20:00:29Z</time>
  <course>343.56</course>
  <speed>0.2942787793912432</speed>
  <fix>3d</fix>
</trkpt>
<trkpt lat="-35.2750194" lon="148.9863601">
  <ele>658.54</ele>
  <time>2026-09-01T20:00:29Z</time>
  <course>165.11</course>
  <speed>0.32</speed>
  <fix>3d</fix>
</trkpt>
<trkpt lat="-35.2750198" lon="148.9863601">
  <ele>658.44</ele>
  <time>2026-09-01T20:00:29Z</time>
  <course>343.58</course>
  <speed>0.28442925306655786</speed>
  <fix>3d</fix>
</trkpt>
<trkpt lat="-35.2750194" lon="148.9863601">
  <ele>658.54</ele>
  <time>2026-09-01T20:00:29Z</time>
  <course>165.11</course>
  <speed>0.32</speed>
  <fix>3d</fix>
</trkpt>
<trkpt lat="-35.2750201" lon="148.9863602">
  <ele>658.44</ele>
  <time>2026-09-01T20:00:29Z</time>
  <course>343.6</course>
  <speed>0.27294688127912364</speed>
  <fix>3d</fix>
</trkpt>
<trkpt lat="-35.2750199" lon="148.9863604">
  <ele>658.54</ele>
  <time>2026-09-01T20:00:29Z</time>
  <course>164.98</course>
  <speed>0.3</speed>
  <fix>3d</fix>
</trkpt>
<trkpt lat="-35.2750203" lon="148.9863603">
  <ele>658.44</ele>
  <time>2026-09-01T20:00:29Z</time>
  <course>343.61</course>
  <speed>0.25317977802344327</speed>
  <fix>3d</fix>
</trkpt>
<trkpt lat="-35.2750199" lon="148.9863604">
  <ele>658.54</ele>
  <time>2026-09-01T20:00:29Z</time>
  <course>164.98</course>
  <speed>0.3</speed>
  <fix>3d</fix>
</trkpt>
<trkpt lat="-35.2750205" lon="148.9863603">
  <ele>658.44</ele>
  <time>2026-09-01T20:00:29Z</time>
  <course>343.62</course>
  <speed>0.24331050121192876</speed>
  <fix>3d</fix>
</trkpt>
<trkpt lat="-35.2750204" lon="148.9863606">
  <ele>658.54</ele>
  <time>2026-09-01T20:00:29Z</time>
  <course>165.12</course>
  <speed>0.28</speed>
  <fix>3d</fix>
</trkpt>
<trkpt lat="-35.2750208" lon="148.9863604">
  <ele>658.44</ele>
  <time>2026-09-01T20:00:29Z</time>
  <course>343.63</course>
  <speed>0.23194827009486402</speed>
  <fix>3d</fix>
</trkpt>
<trkpt lat="-35.2750204" lon="148.9863606">
  <ele>658.54</ele>
  <time>2026-09-01T20:00:29Z</time>
  <course>165.12</course>
  <speed>0.28</speed>
  <fix>3d</fix>
</trkpt>
<trkpt lat="-35.275021" lon="148.9863605">
  <ele>658.44</ele>
  <time>2026-09-01T20:00:29Z</time>
  <course>343.65</course>
  <speed>0.2220360331117452</speed>
  <fix>3d</fix>
</trkpt>
<trkpt lat="-35.2750209" lon="148.9863607">
  <ele>658.54</ele>
  <time>2026-09-01T20:00:29Z</time>
  <course>165.41</course>
  <speed>0.26</speed>
  <fix>3d</fix>
</trkpt>
<trkpt lat="-35.2750212" lon="148.9863605">
  <ele>658.45</ele>
  <time>2026-09-01T20:00:29Z</time>
  <course>343.66</course>
  <speed>0.21213203435596426</speed>
  <fix>3d</fix>
</trkpt>
<trkpt lat="-35.2750209" lon="148.9863607">
  <ele>658.54</ele>
  <time>2026-09-01T20:00:29Z</time>
  <course>165.41</course>
  <speed>0.26</speed>
  <fix>3d</fix>
</trkpt>
<trkpt lat="-35.2750214" lon="148.9863606">
  <ele>658.45</ele>
  <time>2026-09-01T20:00:29Z</time>
  <course>343.66</course>
  <speed>0.2009975124224178</speed>
  <fix>3d</fix>
</trkpt>
<trkpt lat="-35.2750214" lon="148.9863608">
  <ele>658.54</ele>
  <time>2026-09-01T20:00:29Z</time>
  <course>165.71</course>
  <speed>0.24</speed>
  <fix>3d</fix>
</trkpt>
<trkpt lat="-35.2750216" lon="148.9863607">
  <ele>658.45</ele>
  <time>2026-09-01T20:00:29Z</time>
  <course>343.66</course>
  <speed>0.191049731745428</speed>
  <fix>3d</fix>
</trkpt>
<trkpt lat="-35.2750214" lon="148.9863608">
  <ele>658.54</ele>
  <time>2026-09-01T20:00:29Z</time>
  <course>165.71</course>
  <speed>0.24</speed>
  <fix>3d</fix>
</trkpt>
<trkpt lat="-35.2750218" lon="148.9863607">
  <ele>658.44</ele>
  <time>2026-09-01T20:00:29Z</time>
  <course>343.66</course>
  <speed>0.17029386365926402</speed>
  <fix>3d</fix>
</trkpt>
<trkpt lat="-35.2750218" lon="148.9863609">
  <ele>658.54</ele>
  <time>2026-09-01T20:00:29Z</time>
  <course>166.1</course>
  <speed>0.21</speed>
  <fix>3d</fix>
</trkpt>
<trkpt lat="-35.2750219" lon="148.9863608">
  <ele>658.44</ele>
  <time>2026-09-01T20:00:29Z</time>
  <course>343.66</course>
  <speed>0.16031219541881397</speed>
  <fix>3d</fix>
</trkpt>
<trkpt lat="-35.2750218" lon="148.9863609">
  <ele>658.54</ele>
  <time>2026-09-01T20:00:29Z</time>
  <course>166.1</course>
  <speed>0.21</speed>
  <fix>3d</fix>
</trkpt>
<trkpt lat="-35.2750221" lon="148.9863608">
  <ele>658.44</ele>
  <time>2026-09-01T20:00:29Z</time>
  <course>343.67</course>
  <speed>0.15033296378372907</speed>
  <fix>3d</fix>
</trkpt>
<trkpt lat="-35.2750221" lon="148.9863611">
  <ele>658.54</ele>
  <time>2026-09-01T20:00:29Z</time>
  <course>166.73</course>
  <speed>0.18</speed>
  <fix>3d</fix>
</trkpt>
<trkpt lat="-35.2750222" lon="148.9863608">
  <ele>658.44</ele>
  <time>2026-09-01T20:00:29Z</time>
  <course>343.68</course>
  <speed>0.14</speed>
  <fix>3d</fix>
</trkpt>
<trkpt lat="-35.2750221" lon="148.9863611">
  <ele>658.54</ele>
  <time>2026-09-01T20:00:29Z</time>
  <course>166.73</course>
  <speed>0.18</speed>
  <fix>3d</fix>
</trkpt>
<trkpt lat="-35.2750224" lon="148.9863609">
  <ele>658.43</ele>
  <time>2026-09-01T20:00:29Z</time>
  <course>343.69</course>
  <speed>0.12</speed>
  <fix>3d</fix>
</trkpt>
<trkpt lat="-35.2750224" lon="148.9863612">
  <ele>658.53</ele>
  <time>2026-09-01T20:00:29Z</time>
  <course>167.7</course>
  <speed>0.16</speed>
  <fix>3d</fix>
</trkpt>
<trkpt lat="-35.2750225" lon="148.9863609">
  <ele>658.43</ele>
  <time>2026-09-01T20:00:29Z</time>
  <course>343.71</course>
  <speed>0.11</speed>
  <fix>3d</fix>
</trkpt>
<trkpt lat="-35.2750224" lon="148.9863612">
  <ele>658.53</ele>
  <time>2026-09-01T20:00:29Z</time>
  <course>167.7</course>
  <speed>0.16</speed>
  <fix>3d</fix>
</trkpt>
<trkpt lat="-35.2750226" lon="148.9863609">
  <ele>658.43</ele>
  <time>2026-09-01T20:00:29Z</time>
  <course>343.73</course>
  <speed>0.1</speed>
  <fix>3d</fix>
</trkpt>
<trkpt lat="-35.2750226" lon="148.9863612">
  <ele>658.53</ele>
  <time>2026-09-01T20:00:29Z</time>
  <course>169.17</course>
  <speed>0.13</speed>
  <fix>3d</fix>
</trkpt>
<trkpt lat="-35.2750227" lon="148.9863609">
  <ele>658.43</ele>
  <time>2026-09-01T20:00:29Z</time>
  <course>343.74</course>
  <speed>0.09055385138137417</speed>
  <fix>3d</fix>
</trkpt>
<trkpt lat="-35.2750226" lon="148.9863612">
  <ele>658.53</ele>
  <time>2026-09-01T20:00:29Z</time>
  <course>169.17</course>
  <speed>0.13</speed>
  <fix>3d</fix>
</trkpt>
<trkpt lat="-35.2750228" lon="148.986361">
  <ele>658.43</ele>
  <time>2026-09-01T20:00:29Z</time>
  <course>343.75</course>
  <speed>0.07071067811865475</speed>
  <fix>3d</fix>
</trkpt>
<trkpt lat="-35.2750228" lon="148.9863613">
  <ele>658.53</ele>
  <time>2026-09-01T20:00:29Z</time>
  <course>171.7</course>
  <speed>0.1</speed>
  <fix>3d</fix>
</trkpt>
<trkpt lat="-35.2750229" lon="148.986361">
  <ele>658.43</ele>
  <time>2026-09-01T20:00:29Z</time>
  <course>343.76</course>
  <speed>0.0632455532033676</speed>
  <fix>3d</fix>
</trkpt>
<trkpt lat="-35.2750228" lon="148.9863613">
  <ele>658.53</ele>
  <time>2026-09-01T20:00:29Z</time>
  <course>171.7</course>
  <speed>0.1</speed>
  <fix>3d</fix>
</trkpt>
<trkpt lat="-35.2750229" lon="148.986361">
  <ele>658.43</ele>
  <time>2026-09-01T20:00:29Z</time>
  <course>343.76</course>
  <speed>0.053851648071345036</speed>
  <fix>3d</fix>
</trkpt>
<trkpt lat="-35.2750231" lon="148.9863613">
  <ele>658.54</ele>
  <time>2026-09-01T20:00:29Z</time>
  <course>176.05</course>
  <speed>0.08</speed>
  <fix>3d</fix>
</trkpt>
<trkpt lat="-35.275023" lon="148.986361">
  <ele>658.44</ele>
  <time>2026-09-01T20:00:29Z</time>
  <course>343.76</course>
  <speed>0.04242640687119285</speed>
  <fix>3d</fix>
</trkpt>
<trkpt lat="-35.2750231" lon="148.9863613">
  <ele>658.54</ele>
  <time>2026-09-01T20:00:29Z</time>
  <course>176.05</course>
  <speed>0.08</speed>
  <fix>3d</fix>
</trkpt>
<trkpt lat="-35.275023" lon="148.986361">
  <ele>658.44</ele>
  <time>2026-09-01T20:00:29Z</time>
  <course>343.77</course>
  <speed>0.03605551275463989</speed>
  <fix>3d</fix>
</trkpt>
<trkpt lat="-35.2750232" lon="148.9863613">
  <ele>658.54</ele>
  <time>2026-09-01T20:00:29Z</time>
  <course>183.87</course>
  <speed>0.05</speed>
  <fix>3d</fix>
</trkpt>
<trkpt lat="-35.2750231" lon="148.986361">
  <ele>658.44</ele>
  <time>2026-09-01T20:00:29Z</time>
  <course>343.76</course>
  <speed>0.0316227766016838</speed>
  <fix>3d</fix>
</trkpt>
<trkpt lat="-35.2750232" lon="148.9863613">
  <ele>658.54</ele>
  <time>2026-09-01T20:00:29Z</time>
  <course>183.87</course>
  <speed>0.05</speed>
  <fix>3d</fix>
</trkpt>
<trkpt lat="-35.2750231" lon="148.986361">
  <ele>658.44</ele>
  <time>2026-09-01T20:00:29Z</time>
  <course>343.76</course>
  <speed>0.04</speed>
  <fix>3d</fix>
</trkpt>
<trkpt lat="-35.2750233" lon="148.9863613">
  <ele>658.54</ele>
  <time>2026-09-01T20:00:29Z</time>
  <course>201.46</course>
  <speed>0.03</speed>
  <fix>3d</fix>
</trkpt>
<trkpt lat="-35.2750231" lon="148.986361">
  <ele>658.44</ele>
  <time>2026-09-01T20:00:29Z</time>
  <course>343.76</course>
  <speed>0.0412310562561766</speed>
  <fix>3d</fix>
</trkpt>
<trkpt lat="-35.2750233" lon="148.9863613">
  <ele>658.54</ele>
  <time>2026-09-01T20:00:29Z</time>
  <course>201.46</course>
  <speed>0.03</speed>
  <fix>3d</fix>
</trkpt>
<trkpt lat="-35.2750231" lon="148.986361">
  <ele>658.44</ele>
  <time>2026-09-01T20:00:29Z</time>
  <course>343.76</course>
  <speed>0.044721359549995794</speed>
  <fix>3d</fix>
</trkpt>
<trkpt lat="-35.2750233" lon="148.9863613">
  <ele>658.55</ele>
  <time>2026-09-01T20:00:29Z</time>
  <course>253.92</course>
  <speed>0.01</speed>
  <fix>3d</fix>
</trkpt>
<trkpt lat="-35.2750231" lon="148.986361">
  <ele>658.44</ele>
  <time>2026-09-01T20:00:29Z</time>
  <course>343.76</course>
  <speed>0.05830951894845301</speed>
  <fix>3d</fix>
</trkpt>
<trkpt lat="-35.2750233" lon="148.9863613">
  <ele>658.55</ele>
  <time>2026-09-01T20:00:29Z</time>
  <course>253.92</course>
  <speed>0.01</speed>
  <fix>3d</fix>
</trkpt>
<trkpt lat="-35.2750231" lon="148.986361">
  <ele>658.44</ele>
  <time>2026-09-01T20:00:29Z</time>
  <course>343.77</course>
  <speed>0.06403124237432849</speed>
  <fix>3d</fix>
</trkpt>
<trkpt lat="-35.2750233" lon="148.9863613">
  <ele>658.55</ele>
  <time>2026-09-01T20:00:29Z</time>
  <course>306.06</course>
  <speed>0.03</speed>
  <fix>3d</fix>
</trkpt>
<trkpt lat="-35.275023" lon="148.9863609">
  <ele>658.44</ele>
  <time>2026-09-01T20:00:29Z</time>
  <course>343.77</course>
  <speed>0.07071067811865475</speed>
  <fix>3d</fix>
</trkpt>
<trkpt lat="-35.2750233" lon="148.9863613">
  <ele>658.55</ele>
  <time>2026-09-01T20:00:29Z</time>
  <course>306.06</course>
  <speed>0.03</speed>
  <fix>3d</fix>
</trkpt>
<trkpt lat="-35.275023" lon="148.9863609">
  <ele>658.44</ele>
  <time>2026-09-01T20:00:29Z</time>
  <course>343.77</course>
  <speed>0.0848528137423857</speed>
  <fix>3d</fix>
</trkpt>
<trkpt lat="-35.2750233" lon="148.9863612">
  <ele>658.55</ele>
  <time>2026-09-01T20:00:29Z</time>
  <course>322.6</course>
  <speed>0.05</speed>
  <fix>3d</fix>
</trkpt>
<trkpt lat="-35.275023" lon="148.9863609">
  <ele>658.44</ele>
  <time>2026-09-01T20:00:29Z</time>
  <course>343.77</course>
  <speed>0.09219544457292887</speed>
  <fix>3d</fix>
</trkpt>
<trkpt lat="-35.2750233" lon="148.9863612">
  <ele>658.55</ele>
  <time>2026-09-01T20:00:29Z</time>
  <course>322.6</course>
  <speed>0.05</speed>
  <fix>3d</fix>
</trkpt>
<trkpt lat="-35.275023" lon="148.9863608">
  <ele>658.43</ele>
  <time>2026-09-01T20:00:29Z</time>
  <course>343.77</course>
  <speed>0.1</speed>
  <fix>3d</fix>
</trkpt>
<trkpt lat="-35.2750232" lon="148.9863611">
  <ele>658.55</ele>
  <time>2026-09-01T20:00:29Z</time>
  <course>328.93</course>
  <speed>0.07</speed>
  <fix>3d</fix>
</trkpt>
<trkpt lat="-35.2750229" lon="148.9863608">
  <ele>658.43</ele>
  <time>2026-09-01T20:00:29Z</time>
  <course>343.77</course>
  <speed>0.10816653826391968</speed>
  <fix>3d</fix>
</trkpt>
<trkpt lat="-35.2750232" lon="148.9863611">
  <ele>658.55</ele>
  <time>2026-09-01T20:00:29Z</time>
  <course>328.93</course>
  <speed>0.07</speed>
  <fix>3d</fix>
</trkpt>
<trkpt lat="-35.2750229" lon="148.9863607">
  <ele>658.43</ele>
  <time>2026-09-01T20:00:29Z</time>
  <course>343.77</course>
  <speed>0.11661903789690602</speed>
  <fix>3d</fix>
</trkpt>
<trkpt lat="-35.2750231" lon="148.986361">
  <ele>658.56</ele>
  <time>2026-09-01T20:00:29Z</time>
  <course>332.28</course>
  <speed>0.09</speed>
  <fix>3d</fix>
</trkpt>
<trkpt lat="-35.2750228" lon="148.9863607">
  <ele>658.43</ele>
  <time>2026-09-01T20:00:29Z</time>
  <course>343.77</course>
  <speed>0.130384048104053</speed>
  <fix>3d</fix>
</trkpt>
<trkpt lat="-35.2750231" lon="148.986361">
  <ele>658.56</ele>
  <time>2026-09-01T20:00:29Z</time>
  <course>332.28</course>
  <speed>0.09</speed>
  <fix>3d</fix>
</trkpt>
<trkpt lat="-35.2750227" lon="148.9863606">
  <ele>658.43</ele>
  <time>2026-09-01T20:00:29Z</time>
  <course>343.77</course>
  <speed>0.130384048104053</speed>
  <fix>3d</fix>
</trkpt>
<trkpt lat="-35.275023" lon="148.9863609">
  <ele>658.56</ele>
  <time>2026-09-01T20:00:29Z</time>
  <course>334.58</course>
  <speed>0.11</speed>
  <fix>3d</fix>
</trkpt>
<trkpt lat="-35.2750226" lon="148.9863606">
  <ele>658.43</ele>
  <time>2026-09-01T20:00:29Z</time>
  <course>343.77</course>
  <speed>0.13892443989449804</speed>
  <fix>3d</fix>
</trkpt>
<trkpt lat="-35.275023" lon="148.9863609">
  <ele>658.56</ele>
  <time>2026-09-01T20:00:29Z</time>
  <course>334.58</course>
  <speed>0.11</speed>
  <fix>3d</fix>
</trkpt>
<trkpt lat="-35.2750225" lon="148.9863605">
  <ele>658.44</ele>
  <time>2026-09-01T20:00:29Z</time>
  <course>343.76</course>
  <speed>0.147648230602334</speed>
  <fix>3d</fix>
</trkpt>
<trkpt lat="-35.2750228" lon="148.9863608">
  <ele>658.56</ele>
  <time>2026-09-01T20:00:29Z</time>
  <course>336.41</course>
  <speed>0.12</speed>
  <fix>3d</fix>
</trkpt>
<trkpt lat="-35.2750224" lon="148.9863605">
  <ele>658.44</ele>
  <time>2026-09-01T20:00:29Z</time>
  <course>343.76</course>
  <speed>0.147648230602334</speed>
  <fix>3d</fix>
</trkpt>
<trkpt lat="-35.2750228" lon="148.9863608">
  <ele>658.56</ele>
  <time>2026-09-01T20:00:29Z</time>
  <course>336.41</course>
  <speed>0.12</speed>
  <fix>3d</fix>
</trkpt>
<trkpt lat="-35.2750223" lon="148.9863604">
  <ele>658.44</ele>
  <time>2026-09-01T20:00:29Z</time>
  <course>343.76</course>
  <speed>0.15652475842498528</speed>
  <fix>3d</fix>
</trkpt>
<trkpt lat="-35.2750226" lon="148.9863607">
  <ele>658.56</ele>
  <time>2026-09-01T20:00:29Z</time>
  <course>338.03</course>
  <speed>0.13</speed>
  <fix>3d</fix>
</trkpt>
<trkpt lat="-35.2750222" lon="148.9863604">
  <ele>658.44</ele>
  <time>2026-09-01T20:00:29Z</time>
  <course>343.76</course>
  <speed>0.15652475842498528</speed>
  <fix>3d</fix>
</trkpt>
<trkpt lat="-35.2750226" lon="148.9863607">
  <ele>658.56</ele>
  <time>2026-09-01T20:00:29Z</time>
  <course>338.03</course>
  <speed>0.13</speed>
  <fix>3d</fix>
</trkpt>
<trkpt lat="-35.2750221" lon="148.9863603">
  <ele>658.44</ele>
  <time>2026-09-01T20:00:29Z</time>
  <course>343.76</course>
  <speed>0.15652475842498528</speed>
  <fix>3d</fix>
</trkpt>
<trkpt lat="-35.2750223" lon="148.9863606">
  <ele>658.57</ele>
  <time>2026-09-01T20:00:29Z</time>
  <course>339.41</course>
  <speed>0.14</speed>
  <fix>3d</fix>
</trkpt>
<trkpt lat="-35.275022" lon="148.9863603">
  <ele>658.45</ele>
  <time>2026-09-01T20:00:29Z</time>
  <course>343.76</course>
  <speed>0.16552945357246848</speed>
  <fix>3d</fix>
</trkpt>
<trkpt lat="-35.2750223" lon="148.9863606">
  <ele>658.57</ele>
  <time>2026-09-01T20:00:29Z</time>
  <course>339.41</course>
  <speed>0.14</speed>
  <fix>3d</fix>
</trkpt>
<trkpt lat="-35.2750219" lon="148.9863602">
  <ele>658.45</ele>
  <time>2026-09-01T20:00:29Z</time>
  <course>343.77</course>
  <speed>0.16552945357246848</speed>
  <fix>3d</fix>
</trkpt>
<trkpt lat="-35.2750221" lon="148.9863605">
  <ele>658.57</ele>
  <time>2026-09-01T20:00:29Z</time>
  <course>340.62</course>
  <speed>0.15</speed>
  <fix>3d</fix>
</trkpt>
<trkpt lat="-35.2750217" lon="148.9863602">
  <ele>658.45</ele>
  <time>2026-09-01T20:00:29Z</time>
  <course>343.77</course>
  <speed>0.1615549442140351</speed>
  <fix>3d</fix>
</trkpt>
<trkpt lat="-35.2750221" lon="148.9863605">
  <ele>658.57</ele>
  <time>2026-09-01T20:00:29Z</time>
  <course>340.62</course>
  <speed>0.15</speed>
  <fix>3d</fix>
</trkpt>
<trkpt lat="-35.2750216" lon="148.9863601">
  <ele>658.45</ele>
  <time>2026-09-01T20:00:29Z</time>
  <course>343.77</course>
  <speed>0.1615549442140351</speed>
  <fix>3d</fix>
</trkpt>
<trkpt lat="-35.2750218" lon="148.9863604">
  <ele>658.57</ele>
  <time>2026-09-01T20:00:29Z</time>
  <course>341.75</course>
  <speed>0.15</speed>
  <fix>3d</fix>
</trkpt>
<trkpt lat="-35.2750215" lon="148.9863601">
  <ele>658.46</ele>
  <time>2026-09-01T20:00:29Z</time>
  <course>343.77</course>
  <speed>0.1615549442140351</speed>
  <fix>3d</fix>
</trkpt>
<trkpt lat="-35.2750218" lon="148.9863604">
  <ele>658.57</ele>
  <time>2026-09-01T20:00:29Z</time>
  <course>341.75</course>
  <speed>0.15</speed>
  <fix>3d</fix>
</trkpt>
<trkpt lat="-35.2750214" lon="148.98636">
  <ele>658.46</ele>
  <time>2026-09-01T20:00:29Z</time>
  <course>343.77</course>
  <speed>0.15231546211727817</speed>
  <fix>3d</fix>
</trkpt>
<trkpt lat="-35.2750215" lon="148.9863603">
  <ele>658.57</ele>
  <time>2026-09-01T20:00:29Z</time>
  <course>342.86</course>
  <speed>0.15</speed>
  <fix>3d</fix>
</trkpt>
<trkpt lat="-35.2750212" lon="148.98636">
  <ele>658.46</ele>
  <time>2026-09-01T20:00:29Z</time>
  <course>343.77</course>
  <speed>0.15231546211727817</speed>
  <fix>3d</fix>
</trkpt>
<trkpt lat="-35.2750215" lon="148.9863603">
  <ele>658.57</ele>
  <time>2026-09-01T20:00:29Z</time>
  <course>342.86</course>
  <speed>0.15</speed>
  <fix>3d</fix>
</trkpt>
<trkpt lat="-35.2750211" lon="148.98636">
  <ele>658.45</ele>
  <time>2026-09-01T20:00:29Z</time>
  <course>343.77</course>
  <speed>0.14866068747318506</speed>
  <fix>3d</fix>
</trkpt>
<trkpt lat="-35.2750213" lon="148.9863602">
  <ele>658.57</ele>
  <time>2026-09-01T20:00:29Z</time>
  <course>343.89</course>
  <speed>0.14</speed>
  <fix>3d</fix>
</trkpt>
<trkpt lat="-35.275021" lon="148.9863599">
  <ele>658.45</ele>
  <time>2026-09-01T20:00:29Z</time>
  <course>343.77</course>
  <speed>0.14866068747318506</speed>
  <fix>3d</fix>
</trkpt>
<trkpt lat="-35.2750213" lon="148.9863602">
  <ele>658.57</ele>
  <time>2026-09-01T20:00:29Z</time>
  <course>343.89</course>
  <speed>0.14</speed>
  <fix>3d</fix>
</trkpt>
<trkpt lat="-35.2750209" lon="148.9863599">
  <ele>658.45</ele>
  <time>2026-09-01T20:00:29Z</time>
  <course>343.77</course>
  <speed>0.1392838827718412</speed>
  <fix>3d</fix>
</trkpt>
<trkpt lat="-35.275021" lon="148.9863601">
  <ele>658.57</ele>
  <time>2026-09-01T20:00:29Z</time>
  <course>344.71</course>
  <speed>0.14</speed>
  <fix>3d</fix>
</trkpt>
<trkpt lat="-35.2750208" lon="148.9863599">
  <ele>658.44</ele>
  <time>2026-09-01T20:00:29Z</time>
  <course>343.77</course>
  <speed>0.1392838827718412</speed>
  <fix>3d</fix>
</trkpt>
<trkpt lat="-35.275021" lon="148.9863601">
  <ele>658.57</ele>
  <time>2026-09-01T20:00:29Z</time>
  <course>344.71</course>
  <speed>0.14</speed>
  <fix>3d</fix>
</trkpt>
<trkpt lat="-35.2750207" lon="148.9863598">
  <ele>658.44</ele>
  <time>2026-09-01T20:00:29Z</time>
  <course>343.77</course>
  <speed>0.13</speed>
  <fix>3d</fix>
</trkpt>
<trkpt lat="-35.2750208" lon="148.98636">
  <ele>658.56</ele>
  <time>2026-09-01T20:00:29Z</time>
  <course>345.48</course>
  <speed>0.13</speed>
  <fix>3d</fix>
</trkpt>
<trkpt lat="-35.2750206" lon="148.9863598">
  <ele>658.44</ele>
  <time>2026-09-01T20:00:29Z</time>
  <course>343.77</course>
  <speed>0.1264911064067352</speed>
  <fix>3d</fix>
</trkpt>
<trkpt lat="-35.2750208" lon="148.98636">
  <ele>658.56</ele>
  <time>2026-09-01T20:00:29Z</time>
  <course>345.48</course>
  <speed>0.13</speed>
  <fix>3d</fix>
</trkpt>
<trkpt lat="-35.2750205" lon="148.9863598">
  <ele>658.43</ele>
  <time>2026-09-01T20:00:29Z</time>
  <course>343.77</course>
  <speed>0.11704699910719625</speed>
  <fix>3d</fix>
</trkpt>
<trkpt lat="-35.2750206" lon="148.98636">
  <ele>658.56</ele>
  <time>2026-09-01T20:00:29Z</time>
  <course>346.31</course>
  <speed>0.12</speed>
  <fix>3d</fix>
</trkpt>
<trkpt lat="-35.2750204" lon="148.9863597">
  <ele>658.43</ele>
  <time>2026-09-01T20:00:29Z</time>
  <course>343.77</course>
  <speed>0.11704699910719625</speed>
  <fix>3d</fix>
</trkpt>
<trkpt lat="-35.2750206" lon="148.98636">
  <ele>658.56</ele>
  <time>2026-09-01T20:00:29Z</time>
  <course>346.31</course>
  <speed>0.12</speed>
  <fix>3d</fix>
</trkpt>
<trkpt lat="-35.2750203" lon="148.9863597">
  <ele>658.43</ele>
  <time>2026-09-01T20:00:29Z</time>
  <course>343.77</course>
  <speed>0.10770329614269007</speed>
  <fix>3d</fix>
</trkpt>
<trkpt lat="-35.2750204" lon="148.9863599">
  <ele>658.56</ele>
  <time>2026-09-01T20:00:29Z</time>
  <course>347.21</course>
  <speed>0.1</speed>
  <fix>3d</fix>
</trkpt>
<trkpt lat="-35.2750202" lon="148.9863597">
  <ele>658.43</ele>
  <time>2026-09-01T20:00:29Z</time>
  <course>343.77</course>
  <speed>0.09486832980505139</speed>
  <fix>3d</fix>
</trkpt>
<trkpt lat="-35.2750204" lon="148.9863599">
  <ele>658.56</ele>
  <time>2026-09-01T20:00:29Z</time>
  <course>347.21</course>
  <speed>0.1</speed>
  <fix>3d</fix>
</trkpt>
<trkpt lat="-35.2750201" lon="148.9863597">
  <ele>658.43</ele>
  <time>2026-09-01T20:00:29Z</time>
  <course>343.77</course>
  <speed>0.09486832980505139</speed>
  <fix>3d</fix>
</trkpt>
<trkpt lat="-35.2750202" lon="148.9863599">
  <ele>658.56</ele>
  <time>2026-09-01T20:00:29Z</time>
  <course>348.43</course>
  <speed>0.09</speed>
  <fix>3d</fix>
</trkpt>
<trkpt lat="-35.27502" lon="148.9863597">
  <ele>658.42</ele>
  <time>2026-09-01T20:00:29Z</time>
  <course>343.78</course>
  <speed>0.0854400374531753</speed>
  <fix>3d</fix>
</trkpt>
<trkpt lat="-35.2750202" lon="148.9863599">
  <ele>658.56</ele>
  <time>2026-09-01T20:00:29Z</time>
  <course>348.43</course>
  <speed>0.09</speed>
  <fix>3d</fix>
</trkpt>
<trkpt lat="-35.27502" lon="148.9863597">
  <ele>658.42</ele>
  <time>2026-09-01T20:00:29Z</time>
  <course>343.78</course>
  <speed>0.07615773105863909</speed>
  <fix>3d</fix>
</trkpt>
<trkpt lat="-35.2750201" lon="148.9863599">
  <ele>658.56</ele>
  <time>2026-09-01T20:00:29Z</time>
  <course>350.06</course>
  <speed>0.07</speed>
  <fix>3d</fix>
</trkpt>
<trkpt lat="-35.2750199" lon="148.9863597">
  <ele>658.43</ele>
  <time>2026-09-01T20:00:29Z</time>
  <course>343.78</course>
  <speed>0.0632455532033676</speed>
  <fix>3d</fix>
</trkpt>
<trkpt lat="-35.2750201" lon="148.9863599">
  <ele>658.56</ele>
  <time>2026-09-01T20:00:29Z</time>
  <course>350.06</course>
  <speed>0.07</speed>
  <fix>3d</fix>
</trkpt>
<trkpt lat="-35.2750199" lon="148.9863597">
  <ele>658.43</ele>
  <time>2026-09-01T20:00:29Z</time>
  <course>343.78</course>
  <speed>0.0632455532033676</speed>
  <fix>3d</fix>
</trkpt>
<trkpt lat="-35.2750199" lon="148.9863598">
  <ele>658.56</ele>
  <time>2026-09-01T20:00:29Z</time>
  <course>352.41</course>
  <speed>0.06</speed>
  <fix>3d</fix>
</trkpt>
<trkpt lat="-35.2750198" lon="148.9863597">
  <ele>658.43</ele>
  <time>2026-09-01T20:00:29Z</time>
  <course>343.78</course>
  <speed>0.053851648071345036</speed>
  <fix>3d</fix>
</trkpt>
<trkpt lat="-35.2750199" lon="148.9863598">
  <ele>658.56</ele>
  <time>2026-09-01T20:00:29Z</time>
  <course>352.41</course>
  <speed>0.06</speed>
  <fix>3d</fix>
</trkpt>
<trkpt lat="-35.2750198" lon="148.9863596">
  <ele>658.44</ele>
  <time>2026-09-01T20:00:29Z</time>
  <course>343.78</course>
  <speed>0.0412310562561766</speed>
  <fix>3d</fix>
</trkpt>
<trkpt lat="-35.2750198" lon="148.9863598">
  <ele>658.56</ele>
  <time>2026-09-01T20:00:29Z</time>
  <course>356.31</course>
  <speed>0.04</speed>
  <fix>3d</fix>
</trkpt>
<trkpt lat="-35.2750198" lon="148.9863597">
  <ele>658.44</ele>
  <time>2026-09-01T20:00:29Z</time>
  <course>343.78</course>
  <speed>0.0316227766016838</speed>
  <fix>3d</fix>
</trkpt>
<trkpt lat="-35.2750198" lon="148.9863598">
  <ele>658.56</ele>
  <time>2026-09-01T20:00:29Z</time>
  <course>356.31</course>
  <speed>0.04</speed>
  <fix>3d</fix>
</trkpt>
<trkpt lat="-35.2750197" lon="148.9863597">
  <ele>658.44</ele>
  <time>2026-09-01T20:00:29Z</time>
  <course>343.78</course>
  <speed>0.022360679774997897</speed>
  <fix>3d</fix>
</trkpt>
<trkpt lat="-35.2750197" lon="148.9863598">
  <ele>658.57</ele>
  <time>2026-09-01T20:00:29Z</time>
  <course>4.01</course>
  <speed>0.02</speed>
  <fix>3d</fix>
</trkpt>
<trkpt lat="-35.2750197" lon="148.9863597">
  <ele>658.44</ele>
  <time>2026-09-01T20:00:29Z</time>
  <course>343.77</course>
  <speed>0.022360679774997897</speed>
  <fix>3d</fix>
</trkpt>
<trkpt lat="-35.2750197" lon="148.9863598">
  <ele>658.57</ele>
  <time>2026-09-01T20:00:29Z</time>
  <course>4.01</course>
  <speed>0.02</speed>
  <fix>3d</fix>
</trkpt>
<trkpt lat="-35.2750197" lon="148.9863597">
  <ele>658.44</ele>
  <time>2026-09-01T20:00:29Z</time>
  <course>343.77</course>
  <speed>0.01414213562373095</speed>
  <fix>3d</fix>
</trkpt>
<trkpt lat="-35.2750197" lon="148.9863598">
  <ele>658.57</ele>
  <time>2026-09-01T20:00:29Z</time>
  <course>26.77</course>
  <speed>0.01</speed>
  <fix>3d</fix>
</trkpt>
<trkpt lat="-35.2750197" lon="148.9863597">
  <ele>658.44</ele>
  <time>2026-09-01T20:00:29Z</time>
  <course>343.77</course>
  <speed>0.0</speed>
  <fix>3d</fix>
</trkpt>
<trkpt lat="-35.2750197" lon="148.9863598">
  <ele>658.57</ele>
  <time>2026-09-01T20:00:29Z</time>
  <course>26.77</course>
  <speed>0.01</speed>
  <fix>3d</fix>
</trkpt>
<trkpt lat="-35.2750197" lon="148.9863597">
  <ele>658.44</ele>
  <time>2026-09-01T20:00:29Z</time>
  <course>343.78</course>
  <speed>0.0</speed>
  <fix>3d</fix>
</trkpt>
<trkpt lat="-35.2750197" lon="148.9863599">
  <ele>658.57</ele>
  <time>2026-09-01T20:00:29Z</time>
  <course>106.43</course>
  <speed>0.01</speed>
  <fix>3d</fix>
</trkpt>
<trkpt lat="-35.2750197" lon="148.9863597">
  <ele>658.44</ele>
  <time>2026-09-01T20:00:29Z</time>
  <course>343.78</course>
  <speed>0.0</speed>
  <fix>3d</fix>
</trkpt>
<trkpt lat="-35.2750197" lon="148.9863599">
  <ele>658.57</ele>
  <time>2026-09-01T20:00:29Z</time>
  <course>106.43</course>
  <speed>0.01</speed>
  <fix>3d</fix>
</trkpt>
<trkpt lat="-35.2750197" lon="148.9863597">
  <ele>658.44</ele>
  <time>2026-09-01T20:00:29Z</time>
  <course>343.78</course>
  <speed>0.01</speed>
  <fix>3d</fix>
</trkpt>
<trkpt lat="-35.2750197" lon="148.9863599">
  <ele>658.58</ele>
  <time>2026-09-01T20:00:29Z</time>
  <course>141.37</course>
  <speed>0.02</speed>
  <fix>3d</fix>
</trkpt>
<trkpt lat="-35.2750197" lon="148.9863597">
  <ele>658.44</ele>
  <time>2026-09-01T20:00:29Z</time>
  <course>343.77</course>
  <speed>0.02</speed>
  <fix>3d</fix>
</trkpt>
<trkpt lat="-35.2750197" lon="148.9863599">
  <ele>658.58</ele>
  <time>2026-09-01T20:00:29Z</time>
  <course>141.37</course>
  <speed>0.02</speed>
  <fix>3d</fix>
</trkpt>
<trkpt lat="-35.2750197" lon="148.9863597">
  <ele>658.44</ele>
  <time>2026-09-01T20:00:29Z</time>
  <course>343.77</course>
  <speed>0.02</speed>
  <fix>3d</fix>
</trkpt>
<trkpt lat="-35.2750197" lon="148.9863599">
  <ele>658.58</ele>
  <time>2026-09-01T20:00:29Z</time>
  <course>150.71</course>
  <speed>0.03</speed>
  <fix>3d</fix>
</trkpt>
<trkpt lat="-35.2750197" lon="148.9863597">
  <ele>658.44</ele>
  <time>2026-09-01T20:00:29Z</time>
  <course>343.78</course>
  <speed>0.03</speed>
  <fix>3d</fix>
</trkpt>
<trkpt lat="-35.2750197" lon="148.9863599">
  <ele>658.58</ele>
  <time>2026-09-01T20:00:29Z</time>
  <course>150.71</course>
  <speed>0.03</speed>
  <fix>3d</fix>
</trkpt>
<trkpt lat="-35.2750197" lon="148.9863597">
  <ele>658.44</ele>
  <time>2026-09-01T20:00:29Z</time>
  <course>343.79</course>
  <speed>0.03</speed>
  <fix>3d</fix>
</trkpt>
<trkpt lat="-35.2750197" lon="148.9863599">
  <ele>658.58</ele>
  <time>2026-09-01T20:00:29Z</time>
  <course>154.83</course>
  <speed>0.04</speed>
  <fix>3d</fix>
</trkpt>
<trkpt lat="-35.2750198" lon="148.9863598">
  <ele>658.44</ele>
  <time>2026-09-01T20:00:29Z</time>
  <course>343.79</course>
  <speed>0.04</speed>
  <fix>3d</fix>
</trkpt>
<trkpt lat="-35.2750197" lon="148.9863599">
  <ele>658.58</ele>
  <time>2026-09-01T20:00:29Z</time>
  <course>154.83</course>
  <speed>0.04</speed>
  <fix>3d</fix>
</trkpt>
<trkpt lat="-35.2750198" lon="148.9863598">
  <ele>658.44</ele>
  <time>2026-09-01T20:00:29Z</time>
  <course>343.79</course>
  <speed>0.04</speed>
  <fix>3d</fix>
</trkpt>
<trkpt lat="-35.2750198" lon="148.9863599">
  <ele>658.58</ele>
  <time>2026-09-01T20:00:29Z</time>
  <course>157.01</course>
  <speed>0.05</speed>
  <fix>3d</fix>
</trkpt>
<trkpt lat="-35.2750199" lon="148.9863598">
  <ele>658.44</ele>
  <time>2026-09-01T20:00:29Z</time>
  <course>343.78</course>
  <speed>0.04</speed>
  <fix>3d</fix>
</trkpt>
<trkpt lat="-35.2750198" lon="148.9863599">
  <ele>658.58</ele>
  <time>2026-09-01T20:00:29Z</time>
  <course>157.01</course>
  <speed>0.05</speed>
  <fix>3d</fix>
</trkpt>
<trkpt lat="-35.2750199" lon="148.9863598">
  <ele>658.44</ele>
  <time>2026-09-01T20:00:29Z</time>
  <course>343.78</course>
  <speed>0.05</speed>
  <fix>3d</fix>
</trkpt>
<trkpt lat="-35.2750199" lon="148.9863599">
  <ele>658.58</ele>
  <time>2026-09-01T20:00:29Z</time>
  <course>158.32</course>
  <speed>0.06</speed>
  <fix>3d</fix>
</trkpt>
<trkpt lat="-35.27502" lon="148.9863598">
  <ele>658.44</ele>
  <time>2026-09-01T20:00:29Z</time>
  <course>343.78</course>
  <speed>0.05</speed>
  <fix>3d</fix>
</trkpt>
<trkpt lat="-35.2750199" lon="148.9863599">
  <ele>658.58</ele>
  <time>2026-09-01T20:00:29Z</time>
  <course>158.32</course>
  <speed>0.06</speed>
  <fix>3d</fix>
</trkpt>
<trkpt lat="-35.27502" lon="148.9863599">
  <ele>658.44</ele>
  <time>2026-09-01T20:00:29Z</time>
  <course>343.78</course>
  <speed>0.05</speed>
  <fix>3d</fix>
</trkpt>
<trkpt lat="-35.2750201" lon="148.98636">
  <ele>658.58</ele>
  <time>2026-09-01T20:00:29Z</time>
  <course>159.47</course>
  <speed>0.07</speed>
  <fix>3d</fix>
</trkpt>
<trkpt lat="-35.2750201" lon="148.9863599">
  <ele>658.44</ele>
  <time>2026-09-01T20:00:29Z</time>
  <course>343.78</course>
  <speed>0.05</speed>
  <fix>3d</fix>
</trkpt>
<trkpt lat="-35.2750201" lon="148.98636">
  <ele>658.58</ele>
  <time>2026-09-01T20:00:29Z</time>
  <course>159.47</course>
  <speed>0.07</speed>
  <fix>3d</fix>
</trkpt>
<trkpt lat="-35.2750201" lon="148.9863599">
  <ele>658.44</ele>
  <time>2026-09-01T20:00:29Z</time>
  <course>343.78</course>
  <speed>0.05</speed>
  <fix>3d</fix>
</trkpt>
<trkpt lat="-35.2750202" lon="148.98636">
  <ele>658.58</ele>
  <time>2026-09-01T20:00:29Z</time>
  <course>160.64</course>
  <speed>0.07</speed>
  <fix>3d</fix>
</trkpt>
<trkpt lat="-35.2750202" lon="148.9863599">
  <ele>658.44</ele>
  <time>2026-09-01T20:00:29Z</time>
  <course>343.78</course>
  <speed>0.06</speed>
  <fix>3d</fix>
</trkpt>
<trkpt lat="-35.2750202" lon="148.98636">
  <ele>658.58</ele>
  <time>2026-09-01T20:00:29Z</time>
  <course>160.64</course>
  <speed>0.07</speed>
  <fix>3d</fix>
</trkpt>
<trkpt lat="-35.2750203" lon="148.9863599">
  <ele>658.44</ele>
  <time>2026-09-01T20:00:29Z</time>
  <course>343.78</course>
  <speed>0.06</speed>
  <fix>3d</fix>
</trkpt>
<trkpt lat="-35.2750203" lon="148.9863601">
  <ele>658.58</ele>
  <time>2026-09-01T20:00:29Z</time>
  <course>161.41</course>
  <speed>0.08</speed>
  <fix>3d</fix>
</trkpt>
<trkpt lat="-35.2750203" lon="148.98636">
  <ele>658.44</ele>
  <time>2026-09-01T20:00:29Z</time>
  <course>343.78</course>
  <speed>0.06</speed>
  <fix>3d</fix>
</trkpt>
<trkpt lat="-35.2750203" lon="148.9863601">
  <ele>658.58</ele>
  <time>2026-09-01T20:00:29Z</time>
  <course>161.41</course>
  <speed>0.08</speed>
  <fix>3d</fix>
</trkpt>
<trkpt lat="-35.2750204" lon="148.98636">
  <ele>658.44</ele>
  <time>2026-09-01T20:00:29Z</time>
  <course>343.78</course>
  <speed>0.05</speed>
  <fix>3d</fix>
</trkpt>
<trkpt lat="-35.2750204" lon="148.9863602">
  <ele>658.58</ele>
  <time>2026-09-01T20:00:29Z</time>
  <course>161.66</course>
  <speed>0.08</speed>
  <fix>3d</fix>
</trkpt>
<trkpt lat="-35.2750204" lon="148.98636">
  <ele>658.45</ele>
  <time>2026-09-01T20:00:29Z</time>
  <course>343.78</course>
  <speed>0.05</speed>
  <fix>3d</fix>
</trkpt>
<trkpt lat="-35.2750204" lon="148.9863602">
  <ele>658.58</ele>
  <time>2026-09-01T20:00:29Z</time>
  <course>161.66</course>
  <speed>0.08</speed>
  <fix>3d</fix>
</trkpt>
<trkpt lat="-35.2750205" lon="148.98636">
  <ele>658.45</ele>
  <time>2026-09-01T20:00:29Z</time>
  <course>343.79</course>
  <speed>0.05</speed>
  <fix>3d</fix>
</trkpt>
<trkpt lat="-35.2750206" lon="148.9863602">
  <ele>658.58</ele>
  <time>2026-09-01T20:00:29Z</time>
  <course>161.89</course>
  <speed>0.07</speed>
  <fix>3d</fix>
</trkpt>
<trkpt lat="-35.2750206" lon="148.98636">
  <ele>658.45</ele>
  <time>2026-09-01T20:00:29Z</time>
  <course>343.79</course>
  <speed>0.05</speed>
  <fix>3d</fix>
</trkpt>
<trkpt lat="-35.2750206" lon="148.9863602">
  <ele>658.58</ele>
  <time>2026-09-01T20:00:29Z</time>
  <course>161.89</course>
  <speed>0.07</speed>
  <fix>3d</fix>
</trkpt>
<trkpt lat="-35.2750206" lon="148.98636">
  <ele>658.45</ele>
  <time>2026-09-01T20:00:29Z</time>
  <course>343.8</course>
  <speed>0.05</speed>
  <fix>3d</fix>
</trkpt>
<trkpt lat="-35.2750207" lon="148.9863603">
  <ele>658.58</ele>
  <time>2026-09-01T20:00:29Z</time>
  <course>162.22</course>
  <speed>0.07</speed>
  <fix>3d</fix>
</trkpt>
<trkpt lat="-35.2750207" lon="148.9863601">
  <ele>658.45</ele>
  <time>2026-09-01T20:00:29Z</time>
  <course>343.79</course>
  <speed>0.05</speed>
  <fix>3d</fix>
</trkpt>
<trkpt lat="-35.2750207" lon="148.9863603">
  <ele>658.58</ele>
  <time>2026-09-01T20:00:29Z</time>
  <course>162.22</course>
  <speed>0.07</speed>
  <fix>3d</fix>
</trkpt>
<trkpt lat="-35.2750207" lon="148.9863601">
  <ele>658.44</ele>
  <time>2026-09-01T20:00:29Z</time>
  <course>343.78</course>
  <speed>0.04</speed>
  <fix>3d</fix>
</trkpt>
<trkpt lat="-35.2750208" lon="148.9863603">
  <ele>658.57</ele>
  <time>2026-09-01T20:00:29Z</time>
  <course>162.1</course>
  <speed>0.07</speed>
  <fix>3d</fix>
</trkpt>
<trkpt lat="-35.2750208" lon="148.9863601">
  <ele>658.44</ele>
  <time>2026-09-01T20:00:29Z</time>
  <course>343.77</course>
  <speed>0.04</speed>
  <fix>3d</fix>
</trkpt>
<trkpt lat="-35.2750208" lon="148.9863603">
  <ele>658.57</ele>
  <time>2026-09-01T20:00:29Z</time>
  <course>162.1</course>
  <speed>0.07</speed>
  <fix>3d</fix>
</trkpt>
<trkpt lat="-35.2750208" lon="148.9863601">
  <ele>658.44</ele>
  <time>2026-09-01T20:00:29Z</time>
  <course>343.77</course>
  <speed>0.04</speed>
  <fix>3d</fix>
</trkpt>
<trkpt lat="-35.2750209" lon="148.9863604">
  <ele>658.57</ele>
  <time>2026-09-01T20:00:29Z</time>
  <course>161.38</course>
  <speed>0.06</speed>
  <fix>3d</fix>
</trkpt>
<trkpt lat="-35.2750209" lon="148.9863601">
  <ele>658.44</ele>
  <time>2026-09-01T20:00:29Z</time>
  <course>343.76</course>
  <speed>0.04</speed>
  <fix>3d</fix>
</trkpt>
<trkpt lat="-35.2750209" lon="148.9863604">
  <ele>658.57</ele>
  <time>2026-09-01T20:00:29Z</time>
  <course>161.38</course>
  <speed>0.06</speed>
  <fix>3d</fix>
</trkpt>
<trkpt lat="-35.2750209" lon="148.9863602">
  <ele>658.44</ele>
  <time>2026-09-01T20:00:29Z</time>
  <course>343.76</course>
  <speed>0.03</speed>
  <fix>3d</fix>
</trkpt>
<trkpt lat="-35.2750211" lon="148.9863604">
  <ele>658.57</ele>
  <time>2026-09-01T20:00:29Z</time>
  <course>160.36</course>
  <speed>0.06</speed>
  <fix>3d</fix>
</trkpt>
<trkpt lat="-35.275021" lon="148.9863602">
  <ele>658.44</ele>
  <time>2026-09-01T20:00:29Z</time>
  <course>343.77</course>
  <speed>0.03</speed>
  <fix>3d</fix>
</trkpt>
<trkpt lat="-35.2750211" lon="148.9863604">
  <ele>658.57</ele>
  <time>2026-09-01T20:00:29Z</time>
  <course>160.36</course>
  <speed>0.06</speed>
  <fix>3d</fix>
</trkpt>
<trkpt lat="-35.275021" lon="148.9863602">
  <ele>658.44</ele>
  <time>2026-09-01T20:00:29Z</time>
  <course>343.77</course>
  <speed>0.03</speed>
  <fix>3d</fix>
</trkpt>
<trkpt lat="-35.2750212" lon="148.9863605">
  <ele>658.57</ele>
  <time>2026-09-01T20:00:29Z</time>
  <course>159.01</course>
  <speed>0.05</speed>
  <fix>3d</fix>
</trkpt>
<trkpt lat="-35.2750211" lon="148.9863602">
  <ele>658.44</ele>
  <time>2026-09-01T20:00:29Z</time>
  <course>343.78</course>
  <speed>0.02</speed>
  <fix>3d</fix>
</trkpt>
<trkpt lat="-35.2750212" lon="148.9863605">
  <ele>658.57</ele>
  <time>2026-09-01T20:00:29Z</time>
  <course>159.01</course>
  <speed>0.05</speed>
  <fix>3d</fix>
</trkpt>
<trkpt lat="-35.2750211" lon="148.9863602">
  <ele>658.43</ele>
  <time>2026-09-01T20:00:29Z</time>
  <course>343.79</course>
  <speed>0.02</speed>
  <fix>3d</fix>
</trkpt>
<trkpt lat="-35.2750213" lon="148.9863605">
  <ele>658.56</ele>
  <time>2026-09-01T20:00:29Z</time>
  <course>157.15</course>
  <speed>0.04</speed>
  <fix>3d</fix>
</trkpt>
<trkpt lat="-35.2750211" lon="148.9863603">
  <ele>658.41</ele>
  <time>2026-09-01T20:00:29Z</time>
  <course>343.8</course>
  <speed>0.01</speed>
  <fix>3d</fix>
</trkpt>
<trkpt lat="-35.2750213" lon="148.9863605">
  <ele>658.56</ele>
  <time>2026-09-01T20:00:29Z</time>
  <course>157.15</course>
  <speed>0.04</speed>
  <fix>3d</fix>
</trkpt>
<trkpt lat="-35.2750212" lon="148.9863603">
  <ele>658.37</ele>
  <time>2026-09-01T20:00:29Z</time>
  <course>343.83</course>
  <speed>0.01414213562373095</speed>
  <fix>3d</fix>
</trkpt>
<trkpt lat="-35.2750213" lon="148.9863605">
  <ele>658.52</ele>
  <time>2026-09-01T20:00:29Z</time>
  <course>156.56</course>
  <speed>0.03</speed>
  <fix>3d</fix>
</trkpt>
<trkpt lat="-35.2750212" lon="148.9863603">
  <ele>658.31</ele>
  <time>2026-09-01T20:00:29Z</time>
  <course>343.91</course>
  <speed>0.01414213562373095</speed>
  <fix>3d</fix>
</trkpt>
<trkpt lat="-35.2750213" lon="148.9863605">
  <ele>658.52</ele>
  <time>2026-09-01T20:00:29Z</time>
  <course>156.56</course>
  <speed>0.03</speed>
  <fix>3d</fix>
</trkpt>
<trkpt lat="-35.2750212" lon="148.9863603">
  <ele>658.24</ele>
  <time>2026-09-01T20:00:29Z</time>
  <course>343.99</course>
  <speed>0.01</speed>
  <fix>3d</fix>
</trkpt>
<trkpt lat="-35.2750214" lon="148.9863605">
  <ele>658.42</ele>
  <time>2026-09-01T20:00:29Z</time>
  <course>160.61</course>
  <speed>0.02</speed>
  <fix>3d</fix>
</trkpt>
<trkpt lat="-35.2750212" lon="148.9863603">
  <ele>658.15</ele>
  <time>2026-09-01T20:00:29Z</time>
  <course>344.04</course>
  <speed>0.02</speed>
  <fix>3d</fix>
</trkpt>
<trkpt lat="-35.2750214" lon="148.9863605">
  <ele>658.42</ele>
  <time>2026-09-01T20:00:29Z</time>
  <course>160.61</course>
  <speed>0.02</speed>
  <fix>3d</fix>
</trkpt>
<trkpt lat="-35.2750212" lon="148.9863603">
  <ele>658.04</ele>
  <time>2026-09-01T20:00:29Z</time>
  <course>344.05</course>
  <speed>0.02</speed>
  <fix>3d</fix>
</trkpt>
<trkpt lat="-35.2750215" lon="148.9863605">
  <ele>658.26</ele>
  <time>2026-09-01T20:00:29Z</time>
  <course>167.14</course>
  <speed>0.01</speed>
  <fix>3d</fix>
</trkpt>
<trkpt lat="-35.2750213" lon="148.9863603">
  <ele>657.92</ele>
  <time>2026-09-01T20:00:29Z</time>
  <course>344.04</course>
  <speed>0.022360679774997897</speed>
  <fix>3d</fix>
</trkpt>
<trkpt lat="-35.2750215" lon="148.9863605">
  <ele>658.26</ele>
  <time>2026-09-01T20:00:29Z</time>
  <course>167.14</course>
  <speed>0.01</speed>
  <fix>3d</fix>
</trkpt>
<trkpt lat="-35.2750213" lon="148.9863603">
  <ele>657.78</ele>
  <time>2026-09-01T20:00:29Z</time>
  <course>343.99</course>
  <speed>0.0282842712474619</speed>
  <fix>3d</fix>
</trkpt>
<trkpt lat="-35.2750215" lon="148.9863605">
  <ele>658.03</ele>
  <time>2026-09-01T20:00:29Z</time>
  <course>259.31</course>
  <speed>0.0</speed>
  <fix>3d</fix>
</trkpt>
<trkpt lat="-35.2750213" lon="148.9863603">
  <ele>657.63</ele>
  <time>2026-09-01T20:00:29Z</time>
  <course>343.94</course>
  <speed>0.03605551275463989</speed>
  <fix>3d</fix>
</trkpt>
<trkpt lat="-35.2750215" lon="148.9863605">
  <ele>658.03</ele>
  <time>2026-09-01T20:00:29Z</time>
  <course>259.31</course>
  <speed>0.0</speed>
  <fix>3d</fix>
</trkpt>
<trkpt lat="-35.2750213" lon="148.9863603">
  <ele>657.48</ele>
  <time>2026-09-01T20:00:29Z</time>
  <course>343.89</course>
  <speed>0.04242640687119285</speed>
  <fix>3d</fix>
</trkpt>
<trkpt lat="-35.2750215" lon="148.9863605">
  <ele>657.76</ele>
  <time>2026-09-01T20:00:29Z</time>
  <course>343.26</course>
  <speed>0.01</speed>
  <fix>3d</fix>
</trkpt>
<trkpt lat="-35.2750213" lon="148.9863603">
  <ele>657.32</ele>
  <time>2026-09-01T20:00:29Z</time>
  <course>343.84</course>
  <speed>0.05</speed>
  <fix>3d</fix>
</trkpt>
<trkpt lat="-35.2750215" lon="148.9863605">
  <ele>657.76</ele>
  <time>2026-09-01T20:00:29Z</time>
  <course>343.26</course>
  <speed>0.01</speed>
  <fix>3d</fix>
</trkpt>
<trkpt lat="-35.2750213" lon="148.9863603">
  <ele>657.15</ele>
  <time>2026-09-01T20:00:29Z</time>
  <course>343.81</course>
  <speed>0.05830951894845301</speed>
  <fix>3d</fix>
</trkpt>
<trkpt lat="-35.2750215" lon="148.9863605">
  <ele>657.44</ele>
  <time>2026-09-01T20:00:29Z</time>
  <course>344.68</course>
  <speed>0.03</speed>
  <fix>3d</fix>
</trkpt>
<trkpt lat="-35.2750213" lon="148.9863603">
  <ele>656.99</ele>
  <time>2026-09-01T20:00:29Z</time>
  <course>343.79</course>
  <speed>0.0670820393249937</speed>
  <fix>3d</fix>
</trkpt>
<trkpt lat="-35.2750215" lon="148.9863605">
  <ele>657.44</ele>
  <time>2026-09-01T20:00:29Z</time>
  <course>344.68</course>
  <speed>0.03</speed>
  <fix>3d</fix>
</trkpt>
<trkpt lat="-35.2750212" lon="148.9863603">
  <ele>656.82</ele>
  <time>2026-09-01T20:00:29Z</time>
  <course>343.79</course>
  <speed>0.0670820393249937</speed>
  <fix>3d</fix>
</trkpt>
<trkpt lat="-35.2750214" lon="148.9863605">
  <ele>657.11</ele>
  <time>2026-09-01T20:00:29Z</time>
  <course>345.25</course>
  <speed>0.04</speed>
  <fix>3d</fix>
</trkpt>
<trkpt lat="-35.2750212" lon="148.9863603">
  <ele>656.65</ele>
  <time>2026-09-01T20:00:29Z</time>
  <course>343.79</course>
  <speed>0.07211102550927978</speed>
  <fix>3d</fix>
</trkpt>
<trkpt lat="-35.2750214" lon="148.9863605">
  <ele>657.11</ele>
  <time>2026-09-01T20:00:29Z</time>
  <course>345.25</course>
  <speed>0.04</speed>
  <fix>3d</fix>
</trkpt>
<trkpt lat="-35.2750211" lon="148.9863602">
  <ele>656.49</ele>
  <time>2026-09-01T20:00:29Z</time>
  <course>343.81</course>
  <speed>0.08062257748298549</speed>
  <fix>3d</fix>
</trkpt>
<trkpt lat="-35.2750213" lon="148.9863605">
  <ele>656.79</ele>
  <time>2026-09-01T20:00:29Z</time>
  <course>345.72</course>
  <speed>0.05</speed>
  <fix>3d</fix>
</trkpt>
<trkpt lat="-35.2750211" lon="148.9863602">
  <ele>656.33</ele>
  <time>2026-09-01T20:00:29Z</time>
  <course>343.83</course>
  <speed>0.08062257748298549</speed>
  <fix>3d</fix>
</trkpt>
<trkpt lat="-35.2750213" lon="148.9863605">
  <ele>656.79</ele>
  <time>2026-09-01T20:00:29Z</time>
  <course>345.72</course>
  <speed>0.05</speed>
  <fix>3d</fix>
</trkpt>
<trkpt lat="-35.275021" lon="148.9863602">
  <ele>656.17</ele>
  <time>2026-09-01T20:00:29Z</time>
  <course>343.85</course>
  <speed>0.08062257748298549</speed>
  <fix>3d</fix>
</trkpt>
<trkpt lat="-35.2750212" lon="148.9863605">
  <ele>656.47</ele>
  <time>2026-09-01T20:00:29Z</time>
  <course>346.18</course>
  <speed>0.06</speed>
  <fix>3d</fix>
</trkpt>
<trkpt lat="-35.275021" lon="148.9863602">
  <ele>656.01</ele>
  <time>2026-09-01T20:00:29Z</time>
  <course>343.86</course>
  <speed>0.08062257748298549</speed>
  <fix>3d</fix>
</trkpt>
<trkpt lat="-35.2750212" lon="148.9863605">
  <ele>656.47</ele>
  <time>2026-09-01T20:00:29Z</time>
  <course>346.18</course>
  <speed>0.06</speed>
  <fix>3d</fix>
</trkpt>
<trkpt lat="-35.2750209" lon="148.9863602">
  <ele>655.86</ele>
  <time>2026-09-01T20:00:29Z</time>
  <course>343.88</course>
  <speed>0.08062257748298549</speed>
  <fix>3d</fix>
</trkpt>
<trkpt lat="-35.2750211" lon="148.9863605">
  <ele>656.16</ele>
  <time>2026-09-01T20:00:29Z</time>
  <course>346.59</course>
  <speed>0.06</speed>
  <fix>3d</fix>
</trkpt>
<trkpt lat="-35.2750209" lon="148.9863602">
  <ele>655.71</ele>
  <time>2026-09-01T20:00:30Z</time>
  <course>343.89</course>
  <speed>0.07615773105863909</speed>
  <fix>3d</fix>
</trkpt>
<trkpt lat="-35.2750211" lon="148.9863605">
  <ele>656.16</ele>
  <time>2026-09-01T20:00:30Z</time>
  <course>346.59</course>
  <speed>0.06</speed>
  <fix>3d</fix>
</trkpt>
<trkpt lat="-35.2750208" lon="148.9863602">
  <ele>655.56</ele>
  <time>2026-09-01T20:00:30Z</time>
  <course>343.89</course>
  <speed>0.07615773105863909</speed>
  <fix>3d</fix>
</trkpt>
<trkpt lat="-35.275021" lon="148.9863605">
  <ele>655.86</ele>
  <time>2026-09-01T20:00:30Z</time>
  <course>346.97</course>
  <speed>0.06</speed>
  <fix>3d</fix>
</trkpt>
<trkpt lat="-35.2750208" lon="148.9863602">
  <ele>655.42</ele>
  <time>2026-09-01T20:00:30Z</time>
  <course>343.89</course>
  <speed>0.0670820393249937</speed>
  <fix>3d</fix>
</trkpt>
<trkpt lat="-35.275021" lon="148.9863605">
  <ele>655.86</ele>
  <time>2026-09-01T20:00:30Z</time>
  <course>346.97</course>
  <speed>0.06</speed>
  <fix>3d</fix>
</trkpt>
<trkpt lat="-35.2750207" lon="148.9863602">
  <ele>655.27</ele>
  <time>2026-09-01T20:00:30Z</time>
  <course>343.89</course>
  <speed>0.0670820393249937</speed>
  <fix>3d</fix>
</trkpt>
<trkpt lat="-35.2750209" lon="148.9863605">
  <ele>655.56</ele>
  <time>2026-09-01T20:00:30Z</time>
  <course>347.48</course>
  <speed>0.05</speed>
  <fix>3d</fix>
</trkpt>
<trkpt lat="-35.2750207" lon="148.9863602">
  <ele>655.13</ele>
  <time>2026-09-01T20:00:30Z</time>
  <course>343.89</course>
  <speed>0.0670820393249937</speed>
  <fix>3d</fix>
</trkpt>
<trkpt lat="-35.2750209" lon="148.9863605">
  <ele>655.56</ele>
  <time>2026-09-01T20:00:30Z</time>
  <course>347.48</course>
  <speed>0.05</speed>
  <fix>3d</fix>
</trkpt>
<trkpt lat="-35.2750207" lon="148.9863601">
  <ele>654.99</ele>
  <time>2026-09-01T20:00:30Z</time>
  <course>343.89</course>
  <speed>0.05830951894845301</speed>
  <fix>3d</fix>
</trkpt>
<trkpt lat="-35.2750208" lon="148.9863605">
  <ele>655.28</ele>
  <time>2026-09-01T20:00:30Z</time>
  <course>347.89</course>
  <speed>0.05</speed>
  <fix>3d</fix>
</trkpt>
<trkpt lat="-35.2750206" lon="148.9863602">
  <ele>654.85</ele>
  <time>2026-09-01T20:00:30Z</time>
  <course>343.89</course>
  <speed>0.05830951894845301</speed>
  <fix>3d</fix>
</trkpt>
<trkpt lat="-35.2750208" lon="148.9863605">
  <ele>655.28</ele>
  <time>2026-09-01T20:00:30Z</time>
  <course>347.89</course>
  <speed>0.05</speed>
  <fix>3d</fix>
</trkpt>
<trkpt lat="-35.2750206" lon="148.9863601">
  <ele>654.71</ele>
  <time>2026-09-01T20:00:30Z</time>
  <course>343.89</course>
  <speed>0.05830951894845301</speed>
  <fix>3d</fix>
</trkpt>
<trkpt lat="-35.2750207" lon="148.9863605">
  <ele>655.0</ele>
  <time>2026-09-01T20:00:30Z</time>
  <course>347.88</course>
  <speed>0.04</speed>
  <fix>3d</fix>
</trkpt>
<trkpt lat="-35.2750206" lon="148.9863602">
  <ele>654.56</ele>
  <time>2026-09-01T20:00:30Z</time>
  <course>343.89</course>
  <speed>0.05</speed>
  <fix>3d</fix>
</trkpt>
<trkpt lat="-35.2750207" lon="148.9863605">
  <ele>655.0</ele>
  <time>2026-09-01T20:00:30Z</time>
  <course>347.88</course>
  <speed>0.04</speed>
  <fix>3d</fix>
</trkpt>
<trkpt lat="-35.2750205" lon="148.9863602">
  <ele>654.42</ele>
  <time>2026-09-01T20:00:30Z</time>
  <course>343.89</course>
  <speed>0.044721359549995794</speed>
  <fix>3d</fix>
</trkpt>
<trkpt lat="-35.2750206" lon="148.9863604">
  <ele>654.72</ele>
  <time>2026-09-01T20:00:30Z</time>
  <course>347.43</course>
  <speed>0.03</speed>
  <fix>3d</fix>
</trkpt>
<trkpt lat="-35.2750205" lon="148.9863602">
  <ele>654.28</ele>
  <time>2026-09-01T20:00:30Z</time>
  <course>343.89</course>
  <speed>0.044721359549995794</speed>
  <fix>3d</fix>
</trkpt>
<trkpt lat="-35.2750206" lon="148.9863604">
  <ele>654.72</ele>
  <time>2026-09-01T20:00:30Z</time>
  <course>347.43</course>
  <speed>0.03</speed>
  <fix>3d</fix>
</trkpt>
<trkpt lat="-35.2750205" lon="148.9863602">
  <ele>654.13</ele>
  <time>2026-09-01T20:00:30Z</time>
  <course>343.89</course>
  <speed>0.03605551275463989</speed>
  <fix>3d</fix>
</trkpt>
<trkpt lat="-35.2750206" lon="148.9863604">
  <ele>654.43</ele>
  <time>2026-09-01T20:00:30Z</time>
  <course>346.48</course>
  <speed>0.03</speed>
  <fix>3d</fix>
</trkpt>
<trkpt lat="-35.2750205" lon="148.9863602">
  <ele>653.99</ele>
  <time>2026-09-01T20:00:30Z</time>
  <course>343.89</course>
  <speed>0.03605551275463989</speed>
  <fix>3d</fix>
</trkpt>
<trkpt lat="-35.2750206" lon="148.9863604">
  <ele>654.43</ele>
  <time>2026-09-01T20:00:30Z</time>
  <course>346.48</course>
  <speed>0.03</speed>
  <fix>3d</fix>
</trkpt>
<trkpt lat="-35.2750204" lon="148.9863602">
  <ele>653.84</ele>
  <time>2026-09-01T20:00:30Z</time>
  <course>343.89</course>
  <speed>0.03605551275463989</speed>
  <fix>3d</fix>
</trkpt>
<trkpt lat="-35.2750205" lon="148.9863604">
  <ele>654.14</ele>
  <time>2026-09-01T20:00:30Z</time>
  <course>345.02</course>
  <speed>0.02</speed>
  <fix>3d</fix>
</trkpt>
<trkpt lat="-35.2750204" lon="148.9863602">
  <ele>653.7</ele>
  <time>2026-09-01T20:00:30Z</time>
  <course>343.88</course>
  <speed>0.0282842712474619</speed>
  <fix>3d</fix>
</trkpt>
<trkpt lat="-35.2750205" lon="148.9863604">
  <ele>654.14</ele>
  <time>2026-09-01T20:00:30Z</time>
  <course>345.02</course>
  <speed>0.02</speed>
  <fix>3d</fix>
</trkpt>
<trkpt lat="-35.2750204" lon="148.9863602">
  <ele>653.55</ele>
  <time>2026-09-01T20:00:30Z</time>
  <course>343.87</course>
  <speed>0.0282842712474619</speed>
  <fix>3d</fix>
</trkpt>
<trkpt lat="-35.2750204" lon="148.9863604">
  <ele>653.85</ele>
  <time>2026-09-01T20:00:30Z</time>
  <course>343.32</course>
  <speed>0.02</speed>
  <fix>3d</fix>
</trkpt>
<trkpt lat="-35.2750204" lon="148.9863602">
  <ele>653.4</ele>
  <time>2026-09-01T20:00:30Z</time>
  <course>343.85</course>
  <speed>0.0282842712474619</speed>
  <fix>3d</fix>
</trkpt>
<trkpt lat="-35.2750204" lon="148.9863604">
  <ele>653.85</ele>
  <time>2026-09-01T20:00:30Z</time>
  <course>343.32</course>
  <speed>0.02</speed>
  <fix>3d</fix>
</trkpt>
<trkpt lat="-35.2750204" lon="148.9863602">
  <ele>653.25</ele>
  <time>2026-09-01T20:00:30Z</time>
  <course>343.83</course>
  <speed>0.0282842712474619</speed>
  <fix>3d</fix>
</trkpt>
<trkpt lat="-35.2750204" lon="148.9863604">
  <ele>653.55</ele>
  <time>2026-09-01T20:00:30Z</time>
  <course>341.01</course>
  <speed>0.01</speed>
  <fix>3d</fix>
</trkpt>
<trkpt lat="-35.2750204" lon="148.9863602">
  <ele>653.1</ele>
  <time>2026-09-01T20:00:30Z</time>
  <course>343.82</course>
  <speed>0.022360679774997897</speed>
  <fix>3d</fix>
</trkpt>
<trkpt lat="-35.2750204" lon="148.9863604">
  <ele>653.55</ele>
  <time>2026-09-01T20:00:30Z</time>
  <course>341.01</course>
  <speed>0.01</speed>
  <fix>3d</fix>
</trkpt>
<trkpt lat="-35.2750204" lon="148.9863602">
  <ele>652.95</ele>
  <time>2026-09-01T20:00:30Z</time>
  <course>343.82</course>
  <speed>0.022360679774997897</speed>
  <fix>3d</fix>
</trkpt>
<trkpt lat="-35.2750204" lon="148.9863604">
  <ele>653.25</ele>
  <time>2026-09-01T20:00:30Z</time>
  <course>333.69</course>
  <speed>0.0</speed>
  <fix>3d</fix>
</trkpt>
<trkpt lat="-35.2750204" lon="148.9863602">
  <ele>652.8</ele>
  <time>2026-09-01T20:00:30Z</time>
  <course>343.84</course>
  <speed>0.0316227766016838</speed>
  <fix>3d</fix>
</trkpt>
<trkpt lat="-35.2750204" lon="148.9863604">
  <ele>653.25</ele>
  <time>2026-09-01T20:00:30Z</time>
  <course>333.69</course>
  <speed>0.0</speed>
  <fix>3d</fix>
</trkpt>
<trkpt lat="-35.2750204" lon="148.9863602">
  <ele>652.65</ele>
  <time>2026-09-01T20:00:30Z</time>
  <course>343.86</course>
  <speed>0.02</speed>
  <fix>3d</fix>
</trkpt>
<trkpt lat="-35.2750204" lon="148.9863604">
  <ele>652.94</ele>
  <time>2026-09-01T20:00:30Z</time>
  <course>315.47</course>
  <speed>0.0</speed>
  <fix>3d</fix>
</trkpt>
<trkpt lat="-35.2750204" lon="148.9863602">
  <ele>652.5</ele>
  <time>2026-09-01T20:00:30Z</time>
  <course>343.89</course>
  <speed>0.02</speed>
  <fix>3d</fix>
</trkpt>
<trkpt lat="-35.2750204" lon="148.9863604">
  <ele>652.94</ele>
  <time>2026-09-01T20:00:30Z</time>
  <course>315.47</course>
  <speed>0.0</speed>
  <fix>3d</fix>
</trkpt>
<trkpt lat="-35.2750204" lon="148.9863602">
  <ele>652.34</ele>
  <time>2026-09-01T20:00:30Z</time>
  <course>343.91</course>
  <speed>0.02</speed>
  <fix>3d</fix>
</trkpt>
<trkpt lat="-35.2750204" lon="148.9863604">
  <ele>652.65</ele>
  <time>2026-09-01T20:00:30Z</time>
  <course>233.18</course>
  <speed>0.0</speed>
  <fix>3d</fix>
</trkpt>
<trkpt lat="-35.2750204" lon="148.9863602">
  <ele>652.19</ele>
  <time>2026-09-01T20:00:30Z</time>
  <course>343.93</course>
  <speed>0.02</speed>
  <fix>3d</fix>
</trkpt>
<trkpt lat="-35.2750204" lon="148.9863604">
  <ele>652.65</ele>
  <time>2026-09-01T20:00:30Z</time>
  <course>233.18</course>
  <speed>0.0</speed>
  <fix>3d</fix>
</trkpt>
<trkpt lat="-35.2750204" lon="148.9863602">
  <ele>652.04</ele>
  <time>2026-09-01T20:00:30Z</time>
  <course>343.94</course>
  <speed>0.02</speed>
  <fix>3d</fix>
</trkpt>
<trkpt lat="-35.2750204" lon="148.9863604">
  <ele>652.35</ele>
  <time>2026-09-01T20:00:30Z</time>
  <course>188.55</course>
  <speed>0.0</speed>
  <fix>3d</fix>
</trkpt>
<trkpt lat="-35.2750204" lon="148.9863602">
  <ele>651.89</ele>
  <time>2026-09-01T20:00:30Z</time>
  <course>343.95</course>
  <speed>0.02</speed>
  <fix>3d</fix>
</trkpt>
<trkpt lat="-35.2750204" lon="148.9863604">
  <ele>652.35</ele>
  <time>2026-09-01T20:00:30Z</time>
  <course>188.55</course>
  <speed>0.0</speed>
  <fix>3d</fix>
</trkpt>
<trkpt lat="-35.2750204" lon="148.9863602">
  <ele>651.73</ele>
  <time>2026-09-01T20:00:30Z</time>
  <course>343.94</course>
  <speed>0.02</speed>
  <fix>3d</fix>
</trkpt>
<trkpt lat="-35.2750204" lon="148.9863604">
  <ele>652.05</ele>
  <time>2026-09-01T20:00:30Z</time>
  <course>177.88</course>
  <speed>0.01</speed>
  <fix>3d</fix>
</trkpt>
<trkpt lat="-35.2750204" lon="148.9863602">
  <ele>651.58</ele>
  <time>2026-09-01T20:00:30Z</time>
  <course>343.93</course>
  <speed>0.02</speed>
  <fix>3d</fix>
</trkpt>
<trkpt lat="-35.2750204" lon="148.9863604">
  <ele>652.05</ele>
  <time>2026-09-01T20:00:30Z</time>
  <course>177.88</course>
  <speed>0.01</speed>
  <fix>3d</fix>
</trkpt>
<trkpt lat="-35.2750204" lon="148.9863602">
  <ele>651.43</ele>
  <time>2026-09-01T20:00:30Z</time>
  <course>343.91</course>
  <speed>0.02</speed>
  <fix>3d</fix>
</trkpt>
<trkpt lat="-35.2750204" lon="148.9863604">
  <ele>651.75</ele>
  <time>2026-09-01T20:00:30Z</time>
  <course>173.24</course>
  <speed>0.01</speed>
  <fix>3d</fix>
</trkpt>
<trkpt lat="-35.2750204" lon="148.9863602">
  <ele>651.28</ele>
  <time>2026-09-01T20:00:30Z</time>
  <course>343.9</course>
  <speed>0.022360679774997897</speed>
  <fix>3d</fix>
</trkpt>
<trkpt lat="-35.2750204" lon="148.9863604">
  <ele>651.75</ele>
  <time>2026-09-01T20:00:30Z</time>
  <course>173.24</course>
  <speed>0.01</speed>
  <fix>3d</fix>
</trkpt>
<trkpt lat="-35.2750204" lon="148.9863602">
  <ele>651.13</ele>
  <time>2026-09-01T20:00:30Z</time>
  <course>343.9</course>
  <speed>0.022360679774997897</speed>
  <fix>3d</fix>
</trkpt>
<trkpt lat="-35.2750204" lon="148.9863604">
  <ele>651.44</ele>
  <time>2026-09-01T20:00:30Z</time>
  <course>171.52</course>
  <speed>0.02</speed>
  <fix>3d</fix>
</trkpt>
<trkpt lat="-35.2750204" lon="148.9863602">
  <ele>650.98</ele>
  <time>2026-09-01T20:00:30Z</time>
  <course>343.91</course>
  <speed>0.022360679774997897</speed>
  <fix>3d</fix>
</trkpt>
<trkpt lat="-35.2750204" lon="148.9863604">
  <ele>651.44</ele>
  <time>2026-09-01T20:00:30Z</time>
  <course>171.52</course>
  <speed>0.02</speed>
  <fix>3d</fix>
</trkpt>
<trkpt lat="-35.2750204" lon="148.9863602">
  <ele>650.83</ele>
  <time>2026-09-01T20:00:30Z</time>
  <course>343.91</course>
  <speed>0.01414213562373095</speed>
  <fix>3d</fix>
</trkpt>
<trkpt lat="-35.2750204" lon="148.9863604">
  <ele>651.15</ele>
  <time>2026-09-01T20:00:30Z</time>
  <course>170.35</course>
  <speed>0.02</speed>
  <fix>3d</fix>
</trkpt>
<trkpt lat="-35.2750204" lon="148.9863602">
  <ele>650.68</ele>
  <time>2026-09-01T20:00:30Z</time>
  <course>343.9</course>
  <speed>0.01414213562373095</speed>
  <fix>3d</fix>
</trkpt>
<trkpt lat="-35.2750204" lon="148.9863604">
  <ele>651.15</ele>
  <time>2026-09-01T20:00:30Z</time>
  <course>170.35</course>
  <speed>0.02</speed>
  <fix>3d</fix>
</trkpt>
<trkpt lat="-35.2750204" lon="148.9863602">
  <ele>650.53</ele>
  <time>2026-09-01T20:00:30Z</time>
  <course>343.87</course>
  <speed>0.01414213562373095</speed>
  <fix>3d</fix>
</trkpt>
<trkpt lat="-35.2750204" lon="148.9863604">
  <ele>650.85</ele>
  <time>2026-09-01T20:00:30Z</time>
  <course>168.56</course>
  <speed>0.02</speed>
  <fix>3d</fix>
</trkpt>
<trkpt lat="-35.2750204" lon="148.9863602">
  <ele>650.38</ele>
  <time>2026-09-01T20:00:30Z</time>
  <course>343.85</course>
  <speed>0.01414213562373095</speed>
  <fix>3d</fix>
</trkpt>
<trkpt lat="-35.2750204" lon="148.9863604">
  <ele>650.85</ele>
  <time>2026-09-01T20:00:30Z</time>
  <course>168.56</course>
  <speed>0.02</speed>
  <fix>3d</fix>
</trkpt>
<trkpt lat="-35.2750205" lon="148.9863602">
  <ele>650.23</ele>
  <time>2026-09-01T20:00:30Z</time>
  <course>343.85</course>
  <speed>0.022360679774997897</speed>
  <fix>3d</fix>
</trkpt>
<trkpt lat="-35.2750205" lon="148.9863604">
  <ele>650.55</ele>
  <time>2026-09-01T20:00:30Z</time>
  <course>168.09</course>
  <speed>0.03</speed>
  <fix>3d</fix>
</trkpt>
<trkpt lat="-35.2750205" lon="148.9863602">
  <ele>650.08</ele>
  <time>2026-09-01T20:00:30Z</time>
  <course>343.85</course>
  <speed>0.022360679774997897</speed>
  <fix>3d</fix>
</trkpt>
<trkpt lat="-35.2750205" lon="148.9863604">
  <ele>650.55</ele>
  <time>2026-09-01T20:00:30Z</time>
  <course>168.09</course>
  <speed>0.03</speed>
  <fix>3d</fix>
</trkpt>
<trkpt lat="-35.2750205" lon="148.9863602">
  <ele>649.93</ele>
  <time>2026-09-01T20:00:30Z</time>
  <course>343.86</course>
  <speed>0.01414213562373095</speed>
  <fix>3d</fix>
</trkpt>
<trkpt lat="-35.2750206" lon="148.9863604">
  <ele>650.26</ele>
  <time>2026-09-01T20:00:30Z</time>
  <course>167.8</course>
  <speed>0.03</speed>
  <fix>3d</fix>
</trkpt>
<trkpt lat="-35.2750205" lon="148.9863602">
  <ele>649.78</ele>
  <time>2026-09-01T20:00:30Z</time>
  <course>343.86</course>
  <speed>0.022360679774997897</speed>
  <fix>3d</fix>
</trkpt>
<trkpt lat="-35.2750206" lon="148.9863604">
  <ele>650.26</ele>
  <time>2026-09-01T20:00:30Z</time>
  <course>167.8</course>
  <speed>0.03</speed>
  <fix>3d</fix>
</trkpt>
<trkpt lat="-35.2750206" lon="148.9863602">
  <ele>649.63</ele>
  <time>2026-09-01T20:00:30Z</time>
  <course>343.86</course>
  <speed>0.022360679774997897</speed>
  <fix>3d</fix>
</trkpt>
<trkpt lat="-35.2750207" lon="148.9863604">
  <ele>649.95</ele>
  <time>2026-09-01T20:00:30Z</time>
  <course>166.99</course>
  <speed>0.03</speed>
  <fix>3d</fix>
</trkpt>
<trkpt lat="-35.2750206" lon="148.9863602">
  <ele>649.49</ele>
  <time>2026-09-01T20:00:30Z</time>
  <course>343.84</course>
  <speed>0.022360679774997897</speed>
  <fix>3d</fix>
</trkpt>
<trkpt lat="-35.2750207" lon="148.9863604">
  <ele>649.95</ele>
  <time>2026-09-01T20:00:30Z</time>
  <course>166.99</course>
  <speed>0.03</speed>
  <fix>3d</fix>
</trkpt>
<trkpt lat="-35.2750206" lon="148.9863602">
  <ele>649.34</ele>
  <time>2026-09-01T20:00:30Z</time>
  <course>343.83</course>
  <speed>0.022360679774997897</speed>
  <fix>3d</fix>
</trkpt>
<trkpt lat="-35.2750207" lon="148.9863604">
  <ele>649.66</ele>
  <time>2026-09-01T20:00:30Z</time>
  <course>166.69</course>
  <speed>0.03</speed>
  <fix>3d</fix>
</trkpt>
<trkpt lat="-35.2750206" lon="148.9863602">
  <ele>649.19</ele>
  <time>2026-09-01T20:00:30Z</time>
  <course>343.82</course>
  <speed>0.022360679774997897</speed>
  <fix>3d</fix>
</trkpt>
<trkpt lat="-35.2750207" lon="148.9863604">
  <ele>649.66</ele>
  <time>2026-09-01T20:00:30Z</time>
  <course>166.69</course>
  <speed>0.03</speed>
  <fix>3d</fix>
</trkpt>
<trkpt lat="-35.2750207" lon="148.9863602">
  <ele>649.04</ele>
  <time>2026-09-01T20:00:30Z</time>
  <course>343.82</course>
  <speed>0.022360679774997897</speed>
  <fix>3d</fix>
</trkpt>
<trkpt lat="-35.2750208" lon="148.9863604">
  <ele>649.37</ele>
  <time>2026-09-01T20:00:30Z</time>
  <course>166.74</course>
  <speed>0.03</speed>
  <fix>3d</fix>
</trkpt>
<trkpt lat="-35.2750207" lon="148.9863602">
  <ele>648.9</ele>
  <time>2026-09-01T20:00:30Z</time>
  <course>343.83</course>
  <speed>0.022360679774997897</speed>
  <fix>3d</fix>
</trkpt>
<trkpt lat="-35.2750208" lon="148.9863604">
  <ele>649.37</ele>
  <time>2026-09-01T20:00:30Z</time>
  <course>166.74</course>
  <speed>0.03</speed>
  <fix>3d</fix>
</trkpt>
<trkpt lat="-35.2750207" lon="148.9863602">
  <ele>648.75</ele>
  <time>2026-09-01T20:00:30Z</time>
  <course>343.84</course>
  <speed>0.022360679774997897</speed>
  <fix>3d</fix>
</trkpt>
<trkpt lat="-35.2750209" lon="148.9863604">
  <ele>649.06</ele>
  <time>2026-09-01T20:00:30Z</time>
  <course>166.87</course>
  <speed>0.04</speed>
  <fix>3d</fix>
</trkpt>
<trkpt lat="-35.2750208" lon="148.9863602">
  <ele>648.6</ele>
  <time>2026-09-01T20:00:30Z</time>
  <course>343.85</course>
  <speed>0.022360679774997897</speed>
  <fix>3d</fix>
</trkpt>
<trkpt lat="-35.2750209" lon="148.9863604">
  <ele>649.06</ele>
  <time>2026-09-01T20:00:30Z</time>
  <course>166.87</course>
  <speed>0.04</speed>
  <fix>3d</fix>
</trkpt>
<trkpt lat="-35.2750208" lon="148.9863602">
  <ele>648.45</ele>
  <time>2026-09-01T20:00:30Z</time>
  <course>343.85</course>
  <speed>0.022360679774997897</speed>
  <fix>3d</fix>
</trkpt>
<trkpt lat="-35.2750209" lon="148.9863604">
  <ele>648.77</ele>
  <time>2026-09-01T20:00:30Z</time>
  <course>166.45</course>
  <speed>0.04</speed>
  <fix>3d</fix>
</trkpt>
<trkpt lat="-35.2750208" lon="148.9863602">
  <ele>648.3</ele>
  <time>2026-09-01T20:00:30Z</time>
  <course>343.85</course>
  <speed>0.022360679774997897</speed>
  <fix>3d</fix>
</trkpt>
<trkpt lat="-35.2750209" lon="148.9863604">
  <ele>648.77</ele>
  <time>2026-09-01T20:00:30Z</time>
  <course>166.45</course>
  <speed>0.04</speed>
  <fix>3d</fix>
</trkpt>
<trkpt lat="-35.2750209" lon="148.9863602">
  <ele>648.15</ele>
  <time>2026-09-01T20:00:30Z</time>
  <course>343.85</course>
  <speed>0.022360679774997897</speed>
  <fix>3d</fix>
</trkpt>
<trkpt lat="-35.275021" lon="148.9863604">
  <ele>648.47</ele>
  <time>2026-09-01T20:00:30Z</time>
  <course>166.77</course>
  <speed>0.03</speed>
  <fix>3d</fix>
</trkpt>
<trkpt lat="-35.2750209" lon="148.9863602">
  <ele>647.99</ele>
  <time>2026-09-01T20:00:30Z</time>
  <course>343.86</course>
  <speed>0.022360679774997897</speed>
  <fix>3d</fix>
</trkpt>
<trkpt lat="-35.275021" lon="148.9863604">
  <ele>648.47</ele>
  <time>2026-09-01T20:00:30Z</time>
  <course>166.77</course>
  <speed>0.03</speed>
  <fix>3d</fix>
</trkpt>
<trkpt lat="-35.2750209" lon="148.9863602">
  <ele>647.84</ele>
  <time>2026-09-01T20:00:30Z</time>
  <course>343.88</course>
  <speed>0.022360679774997897</speed>
  <fix>3d</fix>
</trkpt>
<trkpt lat="-35.275021" lon="148.9863604">
  <ele>648.17</ele>
  <time>2026-09-01T20:00:30Z</time>
  <course>167.76</course>
  <speed>0.03</speed>
  <fix>3d</fix>
</trkpt>
<trkpt lat="-35.275021" lon="148.9863602">
  <ele>647.69</ele>
  <time>2026-09-01T20:00:30Z</time>
  <course>343.89</course>
  <speed>0.022360679774997897</speed>
  <fix>3d</fix>
</trkpt>
<trkpt lat="-35.275021" lon="148.9863604">
  <ele>648.17</ele>
  <time>2026-09-01T20:00:30Z</time>
  <course>167.76</course>
  <speed>0.03</speed>
  <fix>3d</fix>
</trkpt>
<trkpt lat="-35.275021" lon="148.9863602">
  <ele>647.53</ele>
  <time>2026-09-01T20:00:30Z</time>
  <course>343.89</course>
  <speed>0.022360679774997897</speed>
  <fix>3d</fix>
</trkpt>
<trkpt lat="-35.2750211" lon="148.9863605">
  <ele>647.87</ele>
  <time>2026-09-01T20:00:30Z</time>
  <course>168.2</course>
  <speed>0.03</speed>
  <fix>3d</fix>
</trkpt>
<trkpt lat="-35.275021" lon="148.9863602">
  <ele>647.38</ele>
  <time>2026-09-01T20:00:30Z</time>
  <course>343.9</course>
  <speed>0.022360679774997897</speed>
  <fix>3d</fix>
</trkpt>
<trkpt lat="-35.2750211" lon="148.9863605">
  <ele>647.87</ele>
  <time>2026-09-01T20:00:30Z</time>
  <course>168.2</course>
  <speed>0.03</speed>
  <fix>3d</fix>
</trkpt>
<trkpt lat="-35.2750211" lon="148.9863603">
  <ele>647.23</ele>
  <time>2026-09-01T20:00:30Z</time>
  <course>343.91</course>
  <speed>0.022360679774997897</speed>
  <fix>3d</fix>
</trkpt>
<trkpt lat="-35.2750212" lon="148.9863605">
  <ele>647.56</ele>
  <time>2026-09-01T20:00:30Z</time>
  <course>168.68</course>
  <speed>0.03</speed>
  <fix>3d</fix>
</trkpt>
<trkpt lat="-35.2750211" lon="148.9863603">
  <ele>647.07</ele>
  <time>2026-09-01T20:00:30Z</time>
  <course>343.92</course>
  <speed>0.022360679774997897</speed>
  <fix>3d</fix>
</trkpt>
<trkpt lat="-35.2750212" lon="148.9863605">
  <ele>647.56</ele>
  <time>2026-09-01T20:00:30Z</time>
  <course>168.68</course>
  <speed>0.03</speed>
  <fix>3d</fix>
</trkpt>
<trkpt lat="-35.2750211" lon="148.9863603">
  <ele>646.92</ele>
  <time>2026-09-01T20:00:30Z</time>
  <course>343.93</course>
  <speed>0.01414213562373095</speed>
  <fix>3d</fix>
</trkpt>
<trkpt lat="-35.2750213" lon="148.9863605">
  <ele>647.27</ele>
  <time>2026-09-01T20:00:30Z</time>
  <course>169.05</course>
  <speed>0.03</speed>
  <fix>3d</fix>
</trkpt>
<trkpt lat="-35.2750211" lon="148.9863603">
  <ele>646.77</ele>
  <time>2026-09-01T20:00:30Z</time>
  <course>343.95</course>
  <speed>0.01414213562373095</speed>
  <fix>3d</fix>
</trkpt>
<trkpt lat="-35.2750213" lon="148.9863605">
  <ele>647.27</ele>
  <time>2026-09-01T20:00:30Z</time>
  <course>169.05</course>
  <speed>0.03</speed>
  <fix>3d</fix>
</trkpt>
<trkpt lat="-35.2750212" lon="148.9863603">
  <ele>646.62</ele>
  <time>2026-09-01T20:00:30Z</time>
  <course>343.97</course>
  <speed>0.01414213562373095</speed>
  <fix>3d</fix>
</trkpt>
<trkpt lat="-35.2750213" lon="148.9863605">
  <ele>646.97</ele>
  <time>2026-09-01T20:00:30Z</time>
  <course>169.57</course>
  <speed>0.03</speed>
  <fix>3d</fix>
</trkpt>
<trkpt lat="-35.2750212" lon="148.9863603">
  <ele>646.47</ele>
  <time>2026-09-01T20:00:30Z</time>
  <course>343.98</course>
  <speed>0.01414213562373095</speed>
  <fix>3d</fix>
</trkpt>
<trkpt lat="-35.2750213" lon="148.9863605">
  <ele>646.97</ele>
  <time>2026-09-01T20:00:30Z</time>
  <course>169.57</course>
  <speed>0.03</speed>
  <fix>3d</fix>
</trkpt>
<trkpt lat="-35.2750212" lon="148.9863603">
  <ele>646.33</ele>
  <time>2026-09-01T20:00:30Z</time>
  <course>343.99</course>
  <speed>0.01414213562373095</speed>
  <fix>3d</fix>
</trkpt>
<trkpt lat="-35.2750214" lon="148.9863605">
  <ele>646.67</ele>
  <time>2026-09-01T20:00:30Z</time>
  <course>170.24</course>
  <speed>0.03</speed>
  <fix>3d</fix>
</trkpt>
<trkpt lat="-35.2750213" lon="148.9863603">
  <ele>646.18</ele>
  <time>2026-09-01T20:00:30Z</time>
  <course>343.98</course>
  <speed>0.01414213562373095</speed>
  <fix>3d</fix>
</trkpt>
<trkpt lat="-35.2750214" lon="148.9863605">
  <ele>646.67</ele>
  <time>2026-09-01T20:00:30Z</time>
  <course>170.24</course>
  <speed>0.03</speed>
  <fix>3d</fix>
</trkpt>
<trkpt lat="-35.2750213" lon="148.9863603">
  <ele>646.03</ele>
  <time>2026-09-01T20:00:30Z</time>
  <course>343.97</course>
  <speed>0.01414213562373095</speed>
  <fix>3d</fix>
</trkpt>
<trkpt lat="-35.2750215" lon="148.9863605">
  <ele>646.37</ele>
  <time>2026-09-01T20:00:30Z</time>
  <course>170.08</course>
  <speed>0.03</speed>
  <fix>3d</fix>
</trkpt>
<trkpt lat="-35.2750213" lon="148.9863603">
  <ele>645.89</ele>
  <time>2026-09-01T20:00:30Z</time>
  <course>343.95</course>
  <speed>0.01414213562373095</speed>
  <fix>3d</fix>
</trkpt>
<trkpt lat="-35.2750215" lon="148.9863605">
  <ele>646.37</ele>
  <time>2026-09-01T20:00:30Z</time>
  <course>170.08</course>
  <speed>0.03</speed>
  <fix>3d</fix>
</trkpt>
<trkpt lat="-35.2750214" lon="148.9863603">
  <ele>645.74</ele>
  <time>2026-09-01T20:00:30Z</time>
  <course>343.93</course>
  <speed>0.01414213562373095</speed>
  <fix>3d</fix>
</trkpt>
<trkpt lat="-35.2750215" lon="148.9863605">
  <ele>646.07</ele>
  <time>2026-09-01T20:00:30Z</time>
  <course>169.94</course>
  <speed>0.03</speed>
  <fix>3d</fix>
</trkpt>
<trkpt lat="-35.2750214" lon="148.9863603">
  <ele>645.59</ele>
  <time>2026-09-01T20:00:30Z</time>
  <course>343.92</course>
  <speed>0.01414213562373095</speed>
  <fix>3d</fix>
</trkpt>
<trkpt lat="-35.2750215" lon="148.9863605">
  <ele>646.07</ele>
  <time>2026-09-01T20:00:30Z</time>
  <course>169.94</course>
  <speed>0.03</speed>
  <fix>3d</fix>
</trkpt>
<trkpt lat="-35.2750214" lon="148.9863603">
  <ele>645.44</ele>
  <time>2026-09-01T20:00:30Z</time>
  <course>343.92</course>
  <speed>0.022360679774997897</speed>
  <fix>3d</fix>
</trkpt>
<trkpt lat="-35.2750215" lon="148.9863605">
  <ele>645.78</ele>
  <time>2026-09-01T20:00:30Z</time>
  <course>171.34</course>
  <speed>0.03</speed>
  <fix>3d</fix>
</trkpt>
<trkpt lat="-35.2750214" lon="148.9863603">
  <ele>645.29</ele>
  <time>2026-09-01T20:00:30Z</time>
  <course>343.94</course>
  <speed>0.01414213562373095</speed>
  <fix>3d</fix>
</trkpt>
<trkpt lat="-35.2750215" lon="148.9863605">
  <ele>645.78</ele>
  <time>2026-09-01T20:00:30Z</time>
  <course>171.34</course>
  <speed>0.03</speed>
  <fix>3d</fix>
</trkpt>
<trkpt lat="-35.2750215" lon="148.9863603">
  <ele>645.14</ele>
  <time>2026-09-01T20:00:30Z</time>
  <course>343.96</course>
  <speed>0.022360679774997897</speed>
  <fix>3d</fix>
</trkpt>
<trkpt lat="-35.2750216" lon="148.9863605">
  <ele>645.48</ele>
  <time>2026-09-01T20:00:30Z</time>
  <course>173.16</course>
  <speed>0.02</speed>
  <fix>3d</fix>
</trkpt>
<trkpt lat="-35.2750215" lon="148.9863603">
  <ele>645.0</ele>
  <time>2026-09-01T20:00:30Z</time>
  <course>343.99</course>
  <speed>0.02</speed>
  <fix>3d</fix>
</trkpt>
<trkpt lat="-35.2750216" lon="148.9863605">
  <ele>645.48</ele>
  <time>2026-09-01T20:00:30Z</time>
  <course>173.16</course>
  <speed>0.02</speed>
  <fix>3d</fix>
</trkpt>
<trkpt lat="-35.2750215" lon="148.9863603">
  <ele>644.85</ele>
  <time>2026-09-01T20:00:30Z</time>
  <course>344.02</course>
  <speed>0.01</speed>
  <fix>3d</fix>
</trkpt>
<trkpt lat="-35.2750216" lon="148.9863605">
  <ele>645.19</ele>
  <time>2026-09-01T20:00:30Z</time>
  <course>175.37</course>
  <speed>0.02</speed>
  <fix>3d</fix>
</trkpt>
<trkpt lat="-35.2750215" lon="148.9863603">
  <ele>644.7</ele>
  <time>2026-09-01T20:00:30Z</time>
  <course>344.04</course>
  <speed>0.02</speed>
  <fix>3d</fix>
</trkpt>
<trkpt lat="-35.2750216" lon="148.9863605">
  <ele>645.19</ele>
  <time>2026-09-01T20:00:30Z</time>
  <course>175.37</course>
  <speed>0.02</speed>
  <fix>3d</fix>
</trkpt>
<trkpt lat="-35.2750215" lon="148.9863603">
  <ele>644.55</ele>
  <time>2026-09-01T20:00:30Z</time>
  <course>344.05</course>
  <speed>0.01</speed>
  <fix>3d</fix>
</trkpt>
<trkpt lat="-35.2750217" lon="148.9863605">
  <ele>644.88</ele>
  <time>2026-09-01T20:00:30Z</time>
  <course>176.74</course>
  <speed>0.02</speed>
  <fix>3d</fix>
</trkpt>
<trkpt lat="-35.2750215" lon="148.9863603">
  <ele>644.4</ele>
  <time>2026-09-01T20:00:30Z</time>
  <course>344.05</course>
  <speed>0.02</speed>
  <fix>3d</fix>
</trkpt>
<trkpt lat="-35.2750217" lon="148.9863605">
  <ele>644.88</ele>
  <time>2026-09-01T20:00:30Z</time>
  <course>176.74</course>
  <speed>0.02</speed>
  <fix>3d</fix>
</trkpt>
<trkpt lat="-35.2750216" lon="148.9863603">
  <ele>644.25</ele>
  <time>2026-09-01T20:00:30Z</time>
  <course>344.04</course>
  <speed>0.02</speed>
  <fix>3d</fix>
</trkpt>
<trkpt lat="-35.2750218" lon="148.9863605">
  <ele>644.57</ele>
  <time>2026-09-01T20:00:30Z</time>
  <course>177.69</course>
  <speed>0.01</speed>
  <fix>3d</fix>
</trkpt>
<trkpt lat="-35.2750216" lon="148.9863603">
  <ele>644.1</ele>
  <time>2026-09-01T20:00:30Z</time>
  <course>344.04</course>
  <speed>0.02</speed>
  <fix>3d</fix>
</trkpt>
<trkpt lat="-35.2750218" lon="148.9863605">
  <ele>644.57</ele>
  <time>2026-09-01T20:00:30Z</time>
  <course>177.69</course>
  <speed>0.01</speed>
  <fix>3d</fix>
</trkpt>
<trkpt lat="-35.2750216" lon="148.9863603">
  <ele>643.95</ele>
  <time>2026-09-01T20:00:30Z</time>
  <course>344.05</course>
  <speed>0.02</speed>
  <fix>3d</fix>
</trkpt>
<trkpt lat="-35.2750218" lon="148.9863605">
  <ele>644.28</ele>
  <time>2026-09-01T20:00:30Z</time>
  <course>180.82</course>
  <speed>0.01</speed>
  <fix>3d</fix>
</trkpt>
<trkpt lat="-35.2750216" lon="148.9863603">
  <ele>643.8</ele>
  <time>2026-09-01T20:00:30Z</time>
  <course>344.05</course>
  <speed>0.02</speed>
  <fix>3d</fix>
</trkpt>
<trkpt lat="-35.2750218" lon="148.9863605">
  <ele>644.28</ele>
  <time>2026-09-01T20:00:30Z</time>
  <course>180.82</course>
  <speed>0.01</speed>
  <fix>3d</fix>
</trkpt>
<trkpt lat="-35.2750216" lon="148.9863603">
  <ele>643.65</ele>
  <time>2026-09-01T20:00:30Z</time>
  <course>344.05</course>
  <speed>0.02</speed>
  <fix>3d</fix>
</trkpt>
<trkpt lat="-35.2750218" lon="148.9863605">
  <ele>643.98</ele>
  <time>2026-09-01T20:00:30Z</time>
  <course>185.92</course>
  <speed>0.01</speed>
  <fix>3d</fix>
</trkpt>
<trkpt lat="-35.2750216" lon="148.9863603">
  <ele>643.49</ele>
  <time>2026-09-01T20:00:30Z</time>
  <course>344.06</course>
  <speed>0.02</speed>
  <fix>3d</fix>
</trkpt>
<trkpt lat="-35.2750218" lon="148.9863605">
  <ele>643.98</ele>
  <time>2026-09-01T20:00:30Z</time>
  <course>185.92</course>
  <speed>0.01</speed>
  <fix>3d</fix>
</trkpt>
<trkpt lat="-35.2750217" lon="148.9863603">
  <ele>643.34</ele>
  <time>2026-09-01T20:00:30Z</time>
  <course>344.06</course>
  <speed>0.02</speed>
  <fix>3d</fix>
</trkpt>
<trkpt lat="-35.2750219" lon="148.9863605">
  <ele>643.68</ele>
  <time>2026-09-01T20:00:30Z</time>
  <course>192.51</course>
  <speed>0.01</speed>
  <fix>3d</fix>
</trkpt>
<trkpt lat="-35.2750217" lon="148.9863603">
  <ele>643.19</ele>
  <time>2026-09-01T20:00:30Z</time>
  <course>344.08</course>
  <speed>0.03</speed>
  <fix>3d</fix>
</trkpt>
<trkpt lat="-35.2750219" lon="148.9863605">
  <ele>643.68</ele>
  <time>2026-09-01T20:00:30Z</time>
  <course>192.51</course>
  <speed>0.01</speed>
  <fix>3d</fix>
</trkpt>
<trkpt lat="-35.2750217" lon="148.9863603">
  <ele>643.04</ele>
  <time>2026-09-01T20:00:30Z</time>
  <course>344.09</course>
  <speed>0.02</speed>
  <fix>3d</fix>
</trkpt>
<trkpt lat="-35.2750219" lon="148.9863605">
  <ele>643.37</ele>
  <time>2026-09-01T20:00:30Z</time>
  <course>199.7</course>
  <speed>0.01</speed>
  <fix>3d</fix>
</trkpt>
<trkpt lat="-35.2750217" lon="148.9863603">
  <ele>642.89</ele>
  <time>2026-09-01T20:00:30Z</time>
  <course>344.09</course>
  <speed>0.02</speed>
  <fix>3d</fix>
</trkpt>
<trkpt lat="-35.2750219" lon="148.9863605">
  <ele>643.37</ele>
  <time>2026-09-01T20:00:30Z</time>
  <course>199.7</course>
  <speed>0.01</speed>
  <fix>3d</fix>
</trkpt>
<trkpt lat="-35.2750217" lon="148.9863603">
  <ele>642.74</ele>
  <time>2026-09-01T20:00:30Z</time>
  <course>344.09</course>
  <speed>0.02</speed>
  <fix>3d</fix>
</trkpt>
<trkpt lat="-35.2750219" lon="148.9863605">
  <ele>643.06</ele>
  <time>2026-09-01T20:00:30Z</time>
  <course>209.11</course>
  <speed>0.0</speed>
  <fix>3d</fix>
</trkpt>
<trkpt lat="-35.2750217" lon="148.9863603">
  <ele>642.59</ele>
  <time>2026-09-01T20:00:30Z</time>
  <course>344.08</course>
  <speed>0.02</speed>
  <fix>3d</fix>
</trkpt>
<trkpt lat="-35.2750219" lon="148.9863605">
  <ele>643.06</ele>
  <time>2026-09-01T20:00:30Z</time>
  <course>209.11</course>
  <speed>0.0</speed>
  <fix>3d</fix>
</trkpt>
<trkpt lat="-35.2750217" lon="148.9863603">
  <ele>642.44</ele>
  <time>2026-09-01T20:00:30Z</time>
  <course>344.08</course>
  <speed>0.022360679774997897</speed>
  <fix>3d</fix>
</trkpt>
<trkpt lat="-35.2750219" lon="148.9863605">
  <ele>642.77</ele>
  <time>2026-09-01T20:00:30Z</time>
  <course>222.02</course>
  <speed>0.0</speed>
  <fix>3d</fix>
</trkpt>
<trkpt lat="-35.2750217" lon="148.9863603">
  <ele>642.29</ele>
  <time>2026-09-01T20:00:30Z</time>
  <course>344.08</course>
  <speed>0.022360679774997897</speed>
  <fix>3d</fix>
</trkpt>
<trkpt lat="-35.2750219" lon="148.9863605">
  <ele>642.77</ele>
  <time>2026-09-01T20:00:30Z</time>
  <course>222.02</course>
  <speed>0.0</speed>
  <fix>3d</fix>
</trkpt>
<trkpt lat="-35.2750217" lon="148.9863603">
  <ele>642.14</ele>
  <time>2026-09-01T20:00:30Z</time>
  <course>344.08</course>
  <speed>0.022360679774997897</speed>
  <fix>3d</fix>
</trkpt>
<trkpt lat="-35.2750219" lon="148.9863605">
  <ele>642.47</ele>
  <time>2026-09-01T20:00:30Z</time>
  <course>237.89</course>
  <speed>0.0</speed>
  <fix>3d</fix>
</trkpt>
<trkpt lat="-35.2750217" lon="148.9863603">
  <ele>641.99</ele>
  <time>2026-09-01T20:00:30Z</time>
  <course>344.08</course>
  <speed>0.022360679774997897</speed>
  <fix>3d</fix>
</trkpt>
<trkpt lat="-35.2750219" lon="148.9863605">
  <ele>642.47</ele>
  <time>2026-09-01T20:00:30Z</time>
  <course>237.89</course>
  <speed>0.0</speed>
  <fix>3d</fix>
</trkpt>
<trkpt lat="-35.2750217" lon="148.9863603">
  <ele>641.84</ele>
  <time>2026-09-01T20:00:30Z</time>
  <course>344.08</course>
  <speed>0.022360679774997897</speed>
  <fix>3d</fix>
</trkpt>
<trkpt lat="-35.2750219" lon="148.9863605">
  <ele>642.17</ele>
  <time>2026-09-01T20:00:30Z</time>
  <course>254.93</course>
  <speed>0.0</speed>
  <fix>3d</fix>
</trkpt>
<trkpt lat="-35.2750217" lon="148.9863603">
  <ele>641.69</ele>
  <time>2026-09-01T20:00:30Z</time>
  <course>344.08</course>
  <speed>0.022360679774997897</speed>
  <fix>3d</fix>
</trkpt>
<trkpt lat="-35.2750219" lon="148.9863605">
  <ele>642.17</ele>
  <time>2026-09-01T20:00:30Z</time>
  <course>254.93</course>
  <speed>0.0</speed>
  <fix>3d</fix>
</trkpt>
<trkpt lat="-35.2750217" lon="148.9863603">
  <ele>641.54</ele>
  <time>2026-09-01T20:00:30Z</time>
  <course>344.09</course>
  <speed>0.022360679774997897</speed>
  <fix>3d</fix>
</trkpt>
<trkpt lat="-35.2750219" lon="148.9863605">
  <ele>641.87</ele>
  <time>2026-09-01T20:00:30Z</time>
  <course>267.2</course>
  <speed>0.0</speed>
  <fix>3d</fix>
</trkpt>
<trkpt lat="-35.2750217" lon="148.9863603">
  <ele>641.39</ele>
  <time>2026-09-01T20:00:30Z</time>
  <course>344.1</course>
  <speed>0.022360679774997897</speed>
  <fix>3d</fix>
</trkpt>
<trkpt lat="-35.2750219" lon="148.9863605">
  <ele>641.87</ele>
  <time>2026-09-01T20:00:30Z</time>
  <course>267.2</course>
  <speed>0.0</speed>
  <fix>3d</fix>
</trkpt>
<trkpt lat="-35.2750217" lon="148.9863603">
  <ele>641.24</ele>
  <time>2026-09-01T20:00:30Z</time>
  <course>344.12</course>
  <speed>0.022360679774997897</speed>
  <fix>3d</fix>
</trkpt>
<trkpt lat="-35.2750219" lon="148.9863605">
  <ele>641.56</ele>
  <time>2026-09-01T20:00:30Z</time>
  <course>271.79</course>
  <speed>0.0</speed>
  <fix>3d</fix>
</trkpt>
<trkpt lat="-35.2750217" lon="148.9863603">
  <ele>641.09</ele>
  <time>2026-09-01T20:00:30Z</time>
  <course>344.15</course>
  <speed>0.022360679774997897</speed>
  <fix>3d</fix>
</trkpt>
<trkpt lat="-35.2750219" lon="148.9863605">
  <ele>641.56</ele>
  <time>2026-09-01T20:00:30Z</time>
  <course>271.79</course>
  <speed>0.0</speed>
  <fix>3d</fix>
</trkpt>
<trkpt lat="-35.2750217" lon="148.9863603">
  <ele>640.94</ele>
  <time>2026-09-01T20:00:30Z</time>
  <course>344.17</course>
  <speed>0.022360679774997897</speed>
  <fix>3d</fix>
</trkpt>
<trkpt lat="-35.2750219" lon="148.9863605">
  <ele>641.27</ele>
  <time>2026-09-01T20:00:30Z</time>
  <course>273.93</course>
  <speed>0.0</speed>
  <fix>3d</fix>
</trkpt>
<trkpt lat="-35.2750218" lon="148.9863603">
  <ele>640.79</ele>
  <time>2026-09-01T20:00:30Z</time>
  <course>344.19</course>
  <speed>0.022360679774997897</speed>
  <fix>3d</fix>
</trkpt>
<trkpt lat="-35.2750219" lon="148.9863605">
  <ele>641.27</ele>
  <time>2026-09-01T20:00:30Z</time>
  <course>273.93</course>
  <speed>0.0</speed>
  <fix>3d</fix>
</trkpt>
<trkpt lat="-35.2750218" lon="148.9863603">
  <ele>640.64</ele>
  <time>2026-09-01T20:00:30Z</time>
  <course>344.2</course>
  <speed>0.022360679774997897</speed>
  <fix>3d</fix>
</trkpt>
<trkpt lat="-35.2750219" lon="148.9863605">
  <ele>640.97</ele>
  <time>2026-09-01T20:00:30Z</time>
  <course>279.54</course>
  <speed>0.0</speed>
  <fix>3d</fix>
</trkpt>
<trkpt lat="-35.2750218" lon="148.9863603">
  <ele>640.49</ele>
  <time>2026-09-01T20:00:30Z</time>
  <course>344.21</course>
  <speed>0.022360679774997897</speed>
  <fix>3d</fix>
</trkpt>
<trkpt lat="-35.2750219" lon="148.9863605">
  <ele>640.97</ele>
  <time>2026-09-01T20:00:30Z</time>
  <course>279.54</course>
  <speed>0.0</speed>
  <fix>3d</fix>
</trkpt>
<trkpt lat="-35.2750218" lon="148.9863603">
  <ele>640.34</ele>
  <time>2026-09-01T20:00:30Z</time>
  <course>344.22</course>
  <speed>0.022360679774997897</speed>
  <fix>3d</fix>
</trkpt>
<trkpt lat="-35.2750219" lon="148.9863605">
  <ele>640.67</ele>
  <time>2026-09-01T20:00:30Z</time>
  <course>287.08</course>
  <speed>0.01</speed>
  <fix>3d</fix>
</trkpt>
<trkpt lat="-35.2750218" lon="148.9863603">
  <ele>640.19</ele>
  <time>2026-09-01T20:00:30Z</time>
  <course>344.23</course>
  <speed>0.022360679774997897</speed>
  <fix>3d</fix>
</trkpt>
<trkpt lat="-35.2750219" lon="148.9863605">
  <ele>640.67</ele>
  <time>2026-09-01T20:00:30Z</time>
  <course>287.08</course>
  <speed>0.01</speed>
  <fix>3d</fix>
</trkpt>
<trkpt lat="-35.2750218" lon="148.9863603">
  <ele>640.04</ele>
  <time>2026-09-01T20:00:30Z</time>
  <course>344.24</course>
  <speed>0.022360679774997897</speed>
  <fix>3d</fix>
</trkpt>
<trkpt lat="-35.2750219" lon="148.9863605">
  <ele>640.37</ele>
  <time>2026-09-01T20:00:30Z</time>
  <course>292.87</course>
  <speed>0.01</speed>
  <fix>3d</fix>
</trkpt>
<trkpt lat="-35.2750218" lon="148.9863603">
  <ele>639.89</ele>
  <time>2026-09-01T20:00:30Z</time>
  <course>344.24</course>
  <speed>0.022360679774997897</speed>
  <fix>3d</fix>
</trkpt>
<trkpt lat="-35.2750219" lon="148.9863605">
  <ele>640.37</ele>
  <time>2026-09-01T20:00:30Z</time>
  <course>292.87</course>
  <speed>0.01</speed>
  <fix>3d</fix>
</trkpt>
<trkpt lat="-35.2750218" lon="148.9863603">
  <ele>639.74</ele>
  <time>2026-09-01T20:00:30Z</time>
  <course>344.23</course>
  <speed>0.022360679774997897</speed>
  <fix>3d</fix>
</trkpt>
<trkpt lat="-35.2750219" lon="148.9863605">
  <ele>640.06</ele>
  <time>2026-09-01T20:00:30Z</time>
  <course>296.98</course>
  <speed>0.01</speed>
  <fix>3d</fix>
</trkpt>
<trkpt lat="-35.2750218" lon="148.9863603">
  <ele>639.59</ele>
  <time>2026-09-01T20:00:30Z</time>
  <course>344.21</course>
  <speed>0.022360679774997897</speed>
  <fix>3d</fix>
</trkpt>
<trkpt lat="-35.2750219" lon="148.9863605">
  <ele>640.06</ele>
  <time>2026-09-01T20:00:30Z</time>
  <course>296.98</course>
  <speed>0.01</speed>
  <fix>3d</fix>
</trkpt>
<trkpt lat="-35.2750218" lon="148.9863603">
  <ele>639.44</ele>
  <time>2026-09-01T20:00:30Z</time>
  <course>344.19</course>
  <speed>0.022360679774997897</speed>
  <fix>3d</fix>
</trkpt>
<trkpt lat="-35.2750219" lon="148.9863605">
  <ele>639.77</ele>
  <time>2026-09-01T20:00:30Z</time>
  <course>297.68</course>
  <speed>0.01</speed>
  <fix>3d</fix>
</trkpt>
<trkpt lat="-35.2750218" lon="148.9863603">
  <ele>639.29</ele>
  <time>2026-09-01T20:00:30Z</time>
  <course>344.18</course>
  <speed>0.022360679774997897</speed>
  <fix>3d</fix>
</trkpt>
<trkpt lat="-35.2750219" lon="148.9863605">
  <ele>639.77</ele>
  <time>2026-09-01T20:00:30Z</time>
  <course>297.68</course>
  <speed>0.01</speed>
  <fix>3d</fix>
</trkpt>
<trkpt lat="-35.2750218" lon="148.9863603">
  <ele>639.14</ele>
  <time>2026-09-01T20:00:30Z</time>
  <course>344.18</course>
  <speed>0.022360679774997897</speed>
  <fix>3d</fix>
</trkpt>
<trkpt lat="-35.2750219" lon="148.9863605">
  <ele>639.47</ele>
  <time>2026-09-01T20:00:30Z</time>
  <course>297.16</course>
  <speed>0.01</speed>
  <fix>3d</fix>
</trkpt>
<trkpt lat="-35.2750218" lon="148.9863603">
  <ele>638.99</ele>
  <time>2026-09-01T20:00:30Z</time>
  <course>344.18</course>
  <speed>0.022360679774997897</speed>
  <fix>3d</fix>
</trkpt>
<trkpt lat="-35.2750219" lon="148.9863605">
  <ele>639.47</ele>
  <time>2026-09-01T20:00:30Z</time>
  <course>297.16</course>
  <speed>0.01</speed>
  <fix>3d</fix>
</trkpt>
<trkpt lat="-35.2750218" lon="148.9863603">
  <ele>638.84</ele>
  <time>2026-09-01T20:00:30Z</time>
  <course>344.18</course>
  <speed>0.022360679774997897</speed>
  <fix>3d</fix>
</trkpt>
<trkpt lat="-35.2750219" lon="148.9863604">
  <ele>639.17</ele>
  <time>2026-09-01T20:00:30Z</time>
  <course>298.42</course>
  <speed>0.01</speed>
  <fix>3d</fix>
</trkpt>
<trkpt lat="-35.2750218" lon="148.9863603">
  <ele>638.69</ele>
  <time>2026-09-01T20:00:30Z</time>
  <course>344.18</course>
  <speed>0.022360679774997897</speed>
  <fix>3d</fix>
</trkpt>
<trkpt lat="-35.2750219" lon="148.9863604">
  <ele>639.17</ele>
  <time>2026-09-01T20:00:30Z</time>
  <course>298.42</course>
  <speed>0.01</speed>
  <fix>3d</fix>
</trkpt>
<trkpt lat="-35.2750218" lon="148.9863602">
  <ele>638.53</ele>
  <time>2026-09-01T20:00:30Z</time>
  <course>344.18</course>
  <speed>0.022360679774997897</speed>
  <fix>3d</fix>
</trkpt>
<trkpt lat="-35.2750219" lon="148.9863604">
  <ele>638.87</ele>
  <time>2026-09-01T20:00:30Z</time>
  <course>300.62</course>
  <speed>0.01</speed>
  <fix>3d</fix>
</trkpt>
<trkpt lat="-35.2750218" lon="148.9863602">
  <ele>638.38</ele>
  <time>2026-09-01T20:00:30Z</time>
  <course>344.17</course>
  <speed>0.0282842712474619</speed>
  <fix>3d</fix>
</trkpt>
<trkpt lat="-35.2750219" lon="148.9863604">
  <ele>638.87</ele>
  <time>2026-09-01T20:00:30Z</time>
  <course>300.62</course>
  <speed>0.01</speed>
  <fix>3d</fix>
</trkpt>
<trkpt lat="-35.2750218" lon="148.9863602">
  <ele>638.23</ele>
  <time>2026-09-01T20:00:30Z</time>
  <course>344.16</course>
  <speed>0.0282842712474619</speed>
  <fix>3d</fix>
</trkpt>
<trkpt lat="-35.2750219" lon="148.9863604">
  <ele>638.56</ele>
  <time>2026-09-01T20:00:30Z</time>
  <course>304.06</course>
  <speed>0.01</speed>
  <fix>3d</fix>
</trkpt>
<trkpt lat="-35.2750218" lon="148.9863602">
  <ele>638.08</ele>
  <time>2026-09-01T20:00:30Z</time>
  <course>344.17</course>
  <speed>0.0282842712474619</speed>
  <fix>3d</fix>
</trkpt>
<trkpt lat="-35.2750219" lon="148.9863604">
  <ele>638.56</ele>
  <time>2026-09-01T20:00:30Z</time>
  <course>304.06</course>
  <speed>0.01</speed>
  <fix>3d</fix>
</trkpt>
<trkpt lat="-35.2750218" lon="148.9863602">
  <ele>637.93</ele>
  <time>2026-09-01T20:00:30Z</time>
  <course>344.2</course>
  <speed>0.0282842712474619</speed>
  <fix>3d</fix>
</trkpt>
<trkpt lat="-35.2750219" lon="148.9863604">
  <ele>638.27</ele>
  <time>2026-09-01T20:00:30Z</time>
  <course>306.2</course>
  <speed>0.01</speed>
  <fix>3d</fix>
</trkpt>
<trkpt lat="-35.2750218" lon="148.9863602">
  <ele>637.77</ele>
  <time>2026-09-01T20:00:30Z</time>
  <course>344.23</course>
  <speed>0.0282842712474619</speed>
  <fix>3d</fix>
</trkpt>
<trkpt lat="-35.2750219" lon="148.9863604">
  <ele>638.27</ele>
  <time>2026-09-01T20:00:30Z</time>
  <course>306.2</course>
  <speed>0.01</speed>
  <fix>3d</fix>
</trkpt>
<trkpt lat="-35.2750218" lon="148.9863602">
  <ele>637.62</ele>
  <time>2026-09-01T20:00:30Z</time>
  <course>344.26</course>
  <speed>0.0282842712474619</speed>
  <fix>3d</fix>
</trkpt>
<trkpt lat="-35.2750219" lon="148.9863603">
  <ele>637.97</ele>
  <time>2026-09-01T20:00:30Z</time>
  <course>305.78</course>
  <speed>0.01</speed>
  <fix>3d</fix>
</trkpt>
<trkpt lat="-35.2750218" lon="148.9863602">
  <ele>637.47</ele>
  <time>2026-09-01T20:00:30Z</time>
  <course>344.29</course>
  <speed>0.022360679774997897</speed>
  <fix>3d</fix>
</trkpt>
<trkpt lat="-35.2750219" lon="148.9863603">
  <ele>637.97</ele>
  <time>2026-09-01T20:00:30Z</time>
  <course>305.78</course>
  <speed>0.01</speed>
  <fix>3d</fix>
</trkpt>
<trkpt lat="-35.2750218" lon="148.9863602">
  <ele>637.32</ele>
  <time>2026-09-01T20:00:30Z</time>
  <course>344.31</course>
  <speed>0.0282842712474619</speed>
  <fix>3d</fix>
</trkpt>
<trkpt lat="-35.2750219" lon="148.9863603">
  <ele>637.67</ele>
  <time>2026-09-01T20:00:30Z</time>
  <course>306.21</course>
  <speed>0.01</speed>
  <fix>3d</fix>
</trkpt>
<trkpt lat="-35.2750218" lon="148.9863602">
  <ele>637.17</ele>
  <time>2026-09-01T20:00:30Z</time>
  <course>344.31</course>
  <speed>0.0282842712474619</speed>
  <fix>3d</fix>
</trkpt>
<trkpt lat="-35.2750219" lon="148.9863603">
  <ele>637.67</ele>
  <time>2026-09-01T20:00:30Z</time>
  <course>306.21</course>
  <speed>0.01</speed>
  <fix>3d</fix>
</trkpt>
<trkpt lat="-35.2750218" lon="148.9863602">
  <ele>637.02</ele>
  <time>2026-09-01T20:00:30Z</time>
  <course>344.3</course>
  <speed>0.0282842712474619</speed>
  <fix>3d</fix>
</trkpt>
<trkpt lat="-35.2750219" lon="148.9863603">
  <ele>637.37</ele>
  <time>2026-09-01T20:00:30Z</time>
  <course>308.1</course>
  <speed>0.01</speed>
  <fix>3d</fix>
</trkpt>
<trkpt lat="-35.2750218" lon="148.9863602">
  <ele>636.88</ele>
  <time>2026-09-01T20:00:30Z</time>
  <course>344.29</course>
  <speed>0.022360679774997897</speed>
  <fix>3d</fix>
</trkpt>
<trkpt lat="-35.2750219" lon="148.9863603">
  <ele>637.37</ele>
  <time>2026-09-01T20:00:30Z</time>
  <course>308.1</course>
  <speed>0.01</speed>
  <fix>3d</fix>
</trkpt>
<trkpt lat="-35.2750218" lon="148.9863601">
  <ele>636.73</ele>
  <time>2026-09-01T20:00:30Z</time>
  <course>344.3</course>
  <speed>0.022360679774997897</speed>
  <fix>3d</fix>
</trkpt>
<trkpt lat="-35.2750219" lon="148.9863602">
  <ele>637.07</ele>
  <time>2026-09-01T20:00:30Z</time>
  <course>307.37</course>
  <speed>0.01</speed>
  <fix>3d</fix>
</trkpt>
<trkpt lat="-35.2750218" lon="148.9863601">
  <ele>636.58</ele>
  <time>2026-09-01T20:00:30Z</time>
  <course>344.32</course>
  <speed>0.022360679774997897</speed>
  <fix>3d</fix>
</trkpt>
<trkpt lat="-35.2750219" lon="148.9863602">
  <ele>637.07</ele>
  <time>2026-09-01T20:00:30Z</time>
  <course>307.37</course>
  <speed>0.01</speed>
  <fix>3d</fix>
</trkpt>
<trkpt lat="-35.2750218" lon="148.9863601">
  <ele>636.43</ele>
  <time>2026-09-01T20:00:30Z</time>
  <course>344.35</course>
  <speed>0.022360679774997897</speed>
  <fix>3d</fix>
</trkpt>
<trkpt lat="-35.2750218" lon="148.9863602">
  <ele>636.78</ele>
  <time>2026-09-01T20:00:30Z</time>
  <course>303.21</course>
  <speed>0.01</speed>
  <fix>3d</fix>
</trkpt>
<trkpt lat="-35.2750218" lon="148.9863601">
  <ele>636.29</ele>
  <time>2026-09-01T20:00:30Z</time>
  <course>344.39</course>
  <speed>0.022360679774997897</speed>
  <fix>3d</fix>
</trkpt>
<trkpt lat="-35.2750218" lon="148.9863602">
  <ele>636.78</ele>
  <time>2026-09-01T20:00:30Z</time>
  <course>303.21</course>
  <speed>0.01</speed>
  <fix>3d</fix>
</trkpt>
<trkpt lat="-35.2750218" lon="148.9863601">
  <ele>636.14</ele>
  <time>2026-09-01T20:00:30Z</time>
  <course>344.42</course>
  <speed>0.0316227766016838</speed>
  <fix>3d</fix>
</trkpt>
<trkpt lat="-35.2750218" lon="148.9863602">
  <ele>636.48</ele>
  <time>2026-09-01T20:00:30Z</time>
  <course>299.58</course>
  <speed>0.01</speed>
  <fix>3d</fix>
</trkpt>
<trkpt lat="-35.2750218" lon="148.9863601">
  <ele>635.99</ele>
  <time>2026-09-01T20:00:30Z</time>
  <course>344.45</course>
  <speed>0.0316227766016838</speed>
  <fix>3d</fix>
</trkpt>
<trkpt lat="-35.2750218" lon="148.9863602">
  <ele>636.48</ele>
  <time>2026-09-01T20:00:30Z</time>
  <course>299.58</course>
  <speed>0.01</speed>
  <fix>3d</fix>
</trkpt>
<trkpt lat="-35.2750217" lon="148.98636">
  <ele>635.85</ele>
  <time>2026-09-01T20:00:30Z</time>
  <course>344.46</course>
  <speed>0.0316227766016838</speed>
  <fix>3d</fix>
</trkpt>
<trkpt lat="-35.2750218" lon="148.9863602">
  <ele>636.18</ele>
  <time>2026-09-01T20:00:30Z</time>
  <course>299.13</course>
  <speed>0.01</speed>
  <fix>3d</fix>
</trkpt>
<trkpt lat="-35.2750217" lon="148.98636">
  <ele>635.7</ele>
  <time>2026-09-01T20:00:30Z</time>
  <course>344.46</course>
  <speed>0.0316227766016838</speed>
  <fix>3d</fix>
</trkpt>
<trkpt lat="-35.2750218" lon="148.9863602">
  <ele>636.18</ele>
  <time>2026-09-01T20:00:30Z</time>
  <course>299.13</course>
  <speed>0.01</speed>
  <fix>3d</fix>
</trkpt>
<trkpt lat="-35.2750217" lon="148.98636">
  <ele>635.55</ele>
  <time>2026-09-01T20:00:30Z</time>
  <course>344.46</course>
  <speed>0.0316227766016838</speed>
  <fix>3d</fix>
</trkpt>
<trkpt lat="-35.2750218" lon="148.9863601">
  <ele>635.89</ele>
  <time>2026-09-01T20:00:30Z</time>
  <course>299.46</course>
  <speed>0.01</speed>
  <fix>3d</fix>
</trkpt>
<trkpt lat="-35.2750217" lon="148.98636">
  <ele>635.41</ele>
  <time>2026-09-01T20:00:30Z</time>
  <course>344.46</course>
  <speed>0.0316227766016838</speed>
  <fix>3d</fix>
</trkpt>
<trkpt lat="-35.2750218" lon="148.9863601">
  <ele>635.89</ele>
  <time>2026-09-01T20:00:30Z</time>
  <course>299.46</course>
  <speed>0.01</speed>
  <fix>3d</fix>
</trkpt>
<trkpt lat="-35.2750217" lon="148.98636">
  <ele>635.26</ele>
  <time>2026-09-01T20:00:30Z</time>
  <course>344.46</course>
  <speed>0.0316227766016838</speed>
  <fix>3d</fix>
</trkpt>
<trkpt lat="-35.2750218" lon="148.98636">
  <ele>635.58</ele>
  <time>2026-09-01T20:00:30Z</time>
  <course>297.59</course>
  <speed>0.01</speed>
  <fix>3d</fix>
</trkpt>
<trkpt lat="-35.2750217" lon="148.98636">
  <ele>635.11</ele>
  <time>2026-09-01T20:00:30Z</time>
  <course>344.47</course>
  <speed>0.0316227766016838</speed>
  <fix>3d</fix>
</trkpt>
<trkpt lat="-35.2750218" lon="148.98636">
  <ele>635.58</ele>
  <time>2026-09-01T20:00:30Z</time>
  <course>297.59</course>
  <speed>0.01</speed>
  <fix>3d</fix>
</trkpt>
<trkpt lat="-35.2750217" lon="148.9863599">
  <ele>634.96</ele>
  <time>2026-09-01T20:00:30Z</time>
  <course>344.5</course>
  <speed>0.0316227766016838</speed>
  <fix>3d</fix>
</trkpt>
<trkpt lat="-35.2750218" lon="148.98636">
  <ele>635.28</ele>
  <time>2026-09-01T20:00:30Z</time>
  <course>294.61</course>
  <speed>0.01</speed>
  <fix>3d</fix>
</trkpt>
<trkpt lat="-35.2750217" lon="148.9863599">
  <ele>634.81</ele>
  <time>2026-09-01T20:00:30Z</time>
  <course>344.51</course>
  <speed>0.0316227766016838</speed>
  <fix>3d</fix>
</trkpt>
<trkpt lat="-35.2750218" lon="148.98636">
  <ele>635.28</ele>
  <time>2026-09-01T20:00:30Z</time>
  <course>294.61</course>
  <speed>0.01</speed>
  <fix>3d</fix>
</trkpt>
<trkpt lat="-35.2750217" lon="148.9863599">
  <ele>634.65</ele>
  <time>2026-09-01T20:00:30Z</time>
  <course>344.53</course>
  <speed>0.0316227766016838</speed>
  <fix>3d</fix>
</trkpt>
<trkpt lat="-35.2750218" lon="148.98636">
  <ele>634.98</ele>
  <time>2026-09-01T20:00:30Z</time>
  <course>293.52</course>
  <speed>0.01</speed>
  <fix>3d</fix>
</trkpt>
<trkpt lat="-35.2750217" lon="148.9863599">
  <ele>634.5</ele>
  <time>2026-09-01T20:00:30Z</time>
  <course>344.55</course>
  <speed>0.0316227766016838</speed>
  <fix>3d</fix>
</trkpt>
<trkpt lat="-35.2750218" lon="148.98636">
  <ele>634.98</ele>
  <time>2026-09-01T20:00:30Z</time>
  <course>293.52</course>
  <speed>0.01</speed>
  <fix>3d</fix>
</trkpt>
<trkpt lat="-35.2750217" lon="148.9863598">
  <ele>634.35</ele>
  <time>2026-09-01T20:00:30Z</time>
  <course>344.58</course>
  <speed>0.0316227766016838</speed>
  <fix>3d</fix>
</trkpt>
<trkpt lat="-35.2750217" lon="148.98636">
  <ele>634.68</ele>
  <time>2026-09-01T20:00:30Z</time>
  <course>293.68</course>
  <speed>0.01</speed>
  <fix>3d</fix>
</trkpt>
<trkpt lat="-35.2750217" lon="148.9863598">
  <ele>634.2</ele>
  <time>2026-09-01T20:00:30Z</time>
  <course>344.62</course>
  <speed>0.0316227766016838</speed>
  <fix>3d</fix>
</trkpt>
<trkpt lat="-35.2750217" lon="148.98636">
  <ele>634.68</ele>
  <time>2026-09-01T20:00:30Z</time>
  <course>293.68</course>
  <speed>0.01</speed>
  <fix>3d</fix>
</trkpt>
<trkpt lat="-35.2750217" lon="148.9863598">
  <ele>634.04</ele>
  <time>2026-09-01T20:00:30Z</time>
  <course>344.67</course>
  <speed>0.0412310562561766</speed>
  <fix>3d</fix>
</trkpt>
<trkpt lat="-35.2750216" lon="148.9863599">
  <ele>634.37</ele>
  <time>2026-09-01T20:00:30Z</time>
  <course>290.25</course>
  <speed>0.02</speed>
  <fix>3d</fix>
</trkpt>
<trkpt lat="-35.2750217" lon="148.9863598">
  <ele>633.89</ele>
  <time>2026-09-01T20:00:30Z</time>
  <course>344.71</course>
  <speed>0.0412310562561766</speed>
  <fix>3d</fix>
</trkpt>
<trkpt lat="-35.2750216" lon="148.9863599">
  <ele>634.37</ele>
  <time>2026-09-01T20:00:30Z</time>
  <course>290.25</course>
  <speed>0.02</speed>
  <fix>3d</fix>
</trkpt>
<trkpt lat="-35.2750217" lon="148.9863597">
  <ele>633.74</ele>
  <time>2026-09-01T20:00:30Z</time>
  <course>344.73</course>
  <speed>0.0412310562561766</speed>
  <fix>3d</fix>
</trkpt>
<trkpt lat="-35.2750216" lon="148.9863599">
  <ele>634.06</ele>
  <time>2026-09-01T20:00:30Z</time>
  <course>284.67</course>
  <speed>0.02</speed>
  <fix>3d</fix>
</trkpt>
<trkpt lat="-35.2750217" lon="148.9863597">
  <ele>633.59</ele>
  <time>2026-09-01T20:00:30Z</time>
  <course>344.76</course>
  <speed>0.0412310562561766</speed>
  <fix>3d</fix>
</trkpt>
<trkpt lat="-35.2750216" lon="148.9863599">
  <ele>634.06</ele>
  <time>2026-09-01T20:00:30Z</time>
  <course>284.67</course>
  <speed>0.02</speed>
  <fix>3d</fix>
</trkpt>
<trkpt lat="-35.2750217" lon="148.9863597">
  <ele>633.44</ele>
  <time>2026-09-01T20:00:30Z</time>
  <course>344.78</course>
  <speed>0.0412310562561766</speed>
  <fix>3d</fix>
</trkpt>
<trkpt lat="-35.2750216" lon="148.9863598">
  <ele>633.77</ele>
  <time>2026-09-01T20:00:30Z</time>
  <course>280.19</course>
  <speed>0.02</speed>
  <fix>3d</fix>
</trkpt>
<trkpt lat="-35.2750216" lon="148.9863596">
  <ele>633.28</ele>
  <time>2026-09-01T20:00:30Z</time>
  <course>344.81</course>
  <speed>0.0412310562561766</speed>
  <fix>3d</fix>
</trkpt>
<trkpt lat="-35.2750216" lon="148.9863598">
  <ele>633.77</ele>
  <time>2026-09-01T20:00:30Z</time>
  <course>280.19</course>
  <speed>0.02</speed>
  <fix>3d</fix>
</trkpt>
<trkpt lat="-35.2750216" lon="148.9863596">
  <ele>633.13</ele>
  <time>2026-09-01T20:00:30Z</time>
  <course>344.82</course>
  <speed>0.0412310562561766</speed>
  <fix>3d</fix>
</trkpt>
<trkpt lat="-35.2750216" lon="148.9863598">
  <ele>633.47</ele>
  <time>2026-09-01T20:00:30Z</time>
  <course>276.71</course>
  <speed>0.02</speed>
  <fix>3d</fix>
</trkpt>
<trkpt lat="-35.2750216" lon="148.9863596">
  <ele>632.98</ele>
  <time>2026-09-01T20:00:30Z</time>
  <course>344.83</course>
  <speed>0.0412310562561766</speed>
  <fix>3d</fix>
</trkpt>
<trkpt lat="-35.2750216" lon="148.9863598">
  <ele>633.47</ele>
  <time>2026-09-01T20:00:30Z</time>
  <course>276.71</course>
  <speed>0.02</speed>
  <fix>3d</fix>
</trkpt>
<trkpt lat="-35.2750216" lon="148.9863596">
  <ele>632.83</ele>
  <time>2026-09-01T20:00:30Z</time>
  <course>344.84</course>
  <speed>0.0412310562561766</speed>
  <fix>3d</fix>
</trkpt>
<trkpt lat="-35.2750216" lon="148.9863597">
  <ele>633.17</ele>
  <time>2026-09-01T20:00:30Z</time>
  <course>273.27</course>
  <speed>0.02</speed>
  <fix>3d</fix>
</trkpt>
<trkpt lat="-35.2750216" lon="148.9863595">
  <ele>632.68</ele>
  <time>2026-09-01T20:00:30Z</time>
  <course>344.86</course>
  <speed>0.0412310562561766</speed>
  <fix>3d</fix>
</trkpt>
<trkpt lat="-35.2750216" lon="148.9863597">
  <ele>633.17</ele>
  <time>2026-09-01T20:00:30Z</time>
  <course>273.27</course>
  <speed>0.02</speed>
  <fix>3d</fix>
</trkpt>
<trkpt lat="-35.2750216" lon="148.9863595">
  <ele>632.53</ele>
  <time>2026-09-01T20:00:30Z</time>
  <course>344.9</course>
  <speed>0.0412310562561766</speed>
  <fix>3d</fix>
</trkpt>
<trkpt lat="-35.2750216" lon="148.9863596">
  <ele>632.87</ele>
  <time>2026-09-01T20:00:30Z</time>
  <course>269.99</course>
  <speed>0.02</speed>
  <fix>3d</fix>
</trkpt>
<trkpt lat="-35.2750216" lon="148.9863595">
  <ele>632.39</ele>
  <time>2026-09-01T20:00:30Z</time>
  <course>344.94</course>
  <speed>0.0412310562561766</speed>
  <fix>3d</fix>
</trkpt>
<trkpt lat="-35.2750216" lon="148.9863596">
  <ele>632.87</ele>
  <time>2026-09-01T20:00:30Z</time>
  <course>269.99</course>
  <speed>0.02</speed>
  <fix>3d</fix>
</trkpt>
<trkpt lat="-35.2750216" lon="148.9863594">
  <ele>632.24</ele>
  <time>2026-09-01T20:00:30Z</time>
  <course>344.99</course>
  <speed>0.05099019513592785</speed>
  <fix>3d</fix>
</trkpt>
<trkpt lat="-35.2750216" lon="148.9863596">
  <ele>632.56</ele>
  <time>2026-09-01T20:00:30Z</time>
  <course>266.15</course>
  <speed>0.02</speed>
  <fix>3d</fix>
</trkpt>
<trkpt lat="-35.2750216" lon="148.9863594">
  <ele>632.09</ele>
  <time>2026-09-01T20:00:30Z</time>
  <course>345.05</course>
  <speed>0.05</speed>
  <fix>3d</fix>
</trkpt>
<trkpt lat="-35.2750216" lon="148.9863596">
  <ele>632.56</ele>
  <time>2026-09-01T20:00:30Z</time>
  <course>266.15</course>
  <speed>0.02</speed>
  <fix>3d</fix>
</trkpt>
<trkpt lat="-35.2750216" lon="148.9863594">
  <ele>631.94</ele>
  <time>2026-09-01T20:00:30Z</time>
  <course>345.1</course>
  <speed>0.05</speed>
  <fix>3d</fix>
</trkpt>
<trkpt lat="-35.2750216" lon="148.9863595">
  <ele>632.27</ele>
  <time>2026-09-01T20:00:30Z</time>
  <course>261.65</course>
  <speed>0.02</speed>
  <fix>3d</fix>
</trkpt>
<trkpt lat="-35.2750216" lon="148.9863593">
  <ele>631.79</ele>
  <time>2026-09-01T20:00:30Z</time>
  <course>345.14</course>
  <speed>0.04</speed>
  <fix>3d</fix>
</trkpt>
<trkpt lat="-35.2750216" lon="148.9863595">
  <ele>632.27</ele>
  <time>2026-09-01T20:00:30Z</time>
  <course>261.65</course>
  <speed>0.02</speed>
  <fix>3d</fix>
</trkpt>
<trkpt lat="-35.2750216" lon="148.9863593">
  <ele>631.64</ele>
  <time>2026-09-01T20:00:30Z</time>
  <course>345.17</course>
  <speed>0.05</speed>
  <fix>3d</fix>
</trkpt>
<trkpt lat="-35.2750216" lon="148.9863595">
  <ele>631.97</ele>
  <time>2026-09-01T20:00:30Z</time>
  <course>258.01</course>
  <speed>0.02</speed>
  <fix>3d</fix>
</trkpt>
<trkpt lat="-35.2750216" lon="148.9863593">
  <ele>631.49</ele>
  <time>2026-09-01T20:00:30Z</time>
  <course>345.18</course>
  <speed>0.05</speed>
  <fix>3d</fix>
</trkpt>
<trkpt lat="-35.2750216" lon="148.9863595">
  <ele>631.97</ele>
  <time>2026-09-01T20:00:30Z</time>
  <course>258.01</course>
  <speed>0.02</speed>
  <fix>3d</fix>
</trkpt>
<trkpt lat="-35.2750216" lon="148.9863592">
  <ele>631.34</ele>
  <time>2026-09-01T20:00:30Z</time>
  <course>345.18</course>
  <speed>0.05</speed>
  <fix>3d</fix>
</trkpt>
<trkpt lat="-35.2750216" lon="148.9863595">
  <ele>631.67</ele>
  <time>2026-09-01T20:00:30Z</time>
  <course>255.01</course>
  <speed>0.02</speed>
  <fix>3d</fix>
</trkpt>
<trkpt lat="-35.2750216" lon="148.9863592">
  <ele>631.19</ele>
  <time>2026-09-01T20:00:30Z</time>
  <course>345.19</course>
  <speed>0.05</speed>
  <fix>3d</fix>
</trkpt>
<trkpt lat="-35.2750216" lon="148.9863595">
  <ele>631.67</ele>
  <time>2026-09-01T20:00:30Z</time>
  <course>255.01</course>
  <speed>0.02</speed>
  <fix>3d</fix>
</trkpt>
<trkpt lat="-35.2750216" lon="148.9863592">
  <ele>631.04</ele>
  <time>2026-09-01T20:00:30Z</time>
  <course>345.21</course>
  <speed>0.05</speed>
  <fix>3d</fix>
</trkpt>
<trkpt lat="-35.2750216" lon="148.9863594">
  <ele>631.37</ele>
  <time>2026-09-01T20:00:30Z</time>
  <course>252.77</course>
  <speed>0.02</speed>
  <fix>3d</fix>
</trkpt>
<trkpt lat="-35.2750216" lon="148.9863591">
  <ele>630.89</ele>
  <time>2026-09-01T20:00:30Z</time>
  <course>345.26</course>
  <speed>0.05</speed>
  <fix>3d</fix>
</trkpt>
<trkpt lat="-35.2750216" lon="148.9863594">
  <ele>631.37</ele>
  <time>2026-09-01T20:00:30Z</time>
  <course>252.77</course>
  <speed>0.02</speed>
  <fix>3d</fix>
</trkpt>
<trkpt lat="-35.2750216" lon="148.9863591">
  <ele>630.74</ele>
  <time>2026-09-01T20:00:30Z</time>
  <course>345.32</course>
  <speed>0.05</speed>
  <fix>3d</fix>
</trkpt>
<trkpt lat="-35.2750216" lon="148.9863593">
  <ele>631.06</ele>
  <time>2026-09-01T20:00:30Z</time>
  <course>251.24</course>
  <speed>0.03</speed>
  <fix>3d</fix>
</trkpt>
<trkpt lat="-35.2750216" lon="148.9863591">
  <ele>630.59</ele>
  <time>2026-09-01T20:00:30Z</time>
  <course>345.39</course>
  <speed>0.06</speed>
  <fix>3d</fix>
</trkpt>
<trkpt lat="-35.2750216" lon="148.9863593">
  <ele>631.06</ele>
  <time>2026-09-01T20:00:30Z</time>
  <course>251.24</course>
  <speed>0.03</speed>
  <fix>3d</fix>
</trkpt>
<trkpt lat="-35.2750216" lon="148.986359">
  <ele>630.44</ele>
  <time>2026-09-01T20:00:30Z</time>
  <course>345.46</course>
  <speed>0.05</speed>
  <fix>3d</fix>
</trkpt>
<trkpt lat="-35.2750216" lon="148.9863593">
  <ele>630.77</ele>
  <time>2026-09-01T20:00:30Z</time>
  <course>249.87</course>
  <speed>0.03</speed>
  <fix>3d</fix>
</trkpt>
<trkpt lat="-35.2750216" lon="148.986359">
  <ele>630.29</ele>
  <time>2026-09-01T20:00:30Z</time>
  <course>345.52</course>
  <speed>0.05</speed>
  <fix>3d</fix>
</trkpt>
<trkpt lat="-35.2750216" lon="148.9863593">
  <ele>630.77</ele>
  <time>2026-09-01T20:00:30Z</time>
  <course>249.87</course>
  <speed>0.03</speed>
  <fix>3d</fix>
</trkpt>
<trkpt lat="-35.2750216" lon="148.9863589">
  <ele>630.14</ele>
  <time>2026-09-01T20:00:30Z</time>
  <course>345.58</course>
  <speed>0.05</speed>
  <fix>3d</fix>
</trkpt>
<trkpt lat="-35.2750216" lon="148.9863592">
  <ele>630.47</ele>
  <time>2026-09-01T20:00:30Z</time>
  <course>248.55</course>
  <speed>0.03</speed>
  <fix>3d</fix>
</trkpt>
<trkpt lat="-35.2750216" lon="148.9863589">
  <ele>629.99</ele>
  <time>2026-09-01T20:00:30Z</time>
  <course>345.62</course>
  <speed>0.05</speed>
  <fix>3d</fix>
</trkpt>
<trkpt lat="-35.2750216" lon="148.9863592">
  <ele>630.47</ele>
  <time>2026-09-01T20:00:30Z</time>
  <course>248.55</course>
  <speed>0.03</speed>
  <fix>3d</fix>
</trkpt>
<trkpt lat="-35.2750216" lon="148.9863589">
  <ele>629.84</ele>
  <time>2026-09-01T20:00:30Z</time>
  <course>345.65</course>
  <speed>0.05</speed>
  <fix>3d</fix>
</trkpt>
<trkpt lat="-35.2750216" lon="148.9863591">
  <ele>630.17</ele>
  <time>2026-09-01T20:00:30Z</time>
  <course>247.47</course>
  <speed>0.03</speed>
  <fix>3d</fix>
</trkpt>
<trkpt lat="-35.2750216" lon="148.9863588">
  <ele>629.69</ele>
  <time>2026-09-01T20:00:30Z</time>
  <course>345.67</course>
  <speed>0.06</speed>
  <fix>3d</fix>
</trkpt>
<trkpt lat="-35.2750216" lon="148.9863591">
  <ele>630.17</ele>
  <time>2026-09-01T20:00:30Z</time>
  <course>247.47</course>
  <speed>0.03</speed>
  <fix>3d</fix>
</trkpt>
<trkpt lat="-35.2750216" lon="148.9863588">
  <ele>629.54</ele>
  <time>2026-09-01T20:00:31Z</time>
  <course>345.7</course>
  <speed>0.06</speed>
  <fix>3d</fix>
</trkpt>
<trkpt lat="-35.2750217" lon="148.986359">
  <ele>629.87</ele>
  <time>2026-09-01T20:00:31Z</time>
  <course>246.4</course>
  <speed>0.03</speed>
  <fix>3d</fix>
</trkpt>
<trkpt lat="-35.2750216" lon="148.9863587">
  <ele>629.39</ele>
  <time>2026-09-01T20:00:31Z</time>
  <course>345.74</course>
  <speed>0.06</speed>
  <fix>3d</fix>
</trkpt>
<trkpt lat="-35.2750217" lon="148.986359">
  <ele>629.87</ele>
  <time>2026-09-01T20:00:31Z</time>
  <course>246.4</course>
  <speed>0.03</speed>
  <fix>3d</fix>
</trkpt>
<trkpt lat="-35.2750216" lon="148.9863587">
  <ele>629.24</ele>
  <time>2026-09-01T20:00:31Z</time>
  <course>345.78</course>
  <speed>0.06</speed>
  <fix>3d</fix>
</trkpt>
<trkpt lat="-35.2750218" lon="148.986359">
  <ele>629.56</ele>
  <time>2026-09-01T20:00:31Z</time>
  <course>245.75</course>
  <speed>0.04</speed>
  <fix>3d</fix>
</trkpt>
<trkpt lat="-35.2750216" lon="148.9863587">
  <ele>629.09</ele>
  <time>2026-09-01T20:00:31Z</time>
  <course>345.84</course>
  <speed>0.06</speed>
  <fix>3d</fix>
</trkpt>
<trkpt lat="-35.2750218" lon="148.986359">
  <ele>629.56</ele>
  <time>2026-09-01T20:00:31Z</time>
  <course>245.75</course>
  <speed>0.04</speed>
  <fix>3d</fix>
</trkpt>
<trkpt lat="-35.2750216" lon="148.9863586">
  <ele>628.94</ele>
  <time>2026-09-01T20:00:31Z</time>
  <course>345.91</course>
  <speed>0.07</speed>
  <fix>3d</fix>
</trkpt>
<trkpt lat="-35.2750218" lon="148.9863589">
  <ele>629.27</ele>
  <time>2026-09-01T20:00:31Z</time>
  <course>245.9</course>
  <speed>0.04</speed>
  <fix>3d</fix>
</trkpt>
<trkpt lat="-35.2750216" lon="148.9863586">
  <ele>628.79</ele>
  <time>2026-09-01T20:00:31Z</time>
  <course>345.97</course>
  <speed>0.07</speed>
  <fix>3d</fix>
</trkpt>
<trkpt lat="-35.2750218" lon="148.9863589">
  <ele>629.27</ele>
  <time>2026-09-01T20:00:31Z</time>
  <course>245.9</course>
  <speed>0.04</speed>
  <fix>3d</fix>
</trkpt>
<trkpt lat="-35.2750216" lon="148.9863585">
  <ele>628.64</ele>
  <time>2026-09-01T20:00:31Z</time>
  <course>346.04</course>
  <speed>0.07</speed>
  <fix>3d</fix>
</trkpt>
<trkpt lat="-35.2750218" lon="148.9863588">
  <ele>628.97</ele>
  <time>2026-09-01T20:00:31Z</time>
  <course>246.55</course>
  <speed>0.04</speed>
  <fix>3d</fix>
</trkpt>
<trkpt lat="-35.2750217" lon="148.9863585">
  <ele>628.5</ele>
  <time>2026-09-01T20:00:31Z</time>
  <course>346.1</course>
  <speed>0.07</speed>
  <fix>3d</fix>
</trkpt>
<trkpt lat="-35.2750218" lon="148.9863588">
  <ele>628.97</ele>
  <time>2026-09-01T20:00:31Z</time>
  <course>246.55</course>
  <speed>0.04</speed>
  <fix>3d</fix>
</trkpt>
<trkpt lat="-35.2750217" lon="148.9863584">
  <ele>628.35</ele>
  <time>2026-09-01T20:00:31Z</time>
  <course>346.16</course>
  <speed>0.07</speed>
  <fix>3d</fix>
</trkpt>
<trkpt lat="-35.2750219" lon="148.9863587">
  <ele>628.66</ele>
  <time>2026-09-01T20:00:31Z</time>
  <course>247.57</course>
  <speed>0.04</speed>
  <fix>3d</fix>
</trkpt>
<trkpt lat="-35.2750217" lon="148.9863584">
  <ele>628.2</ele>
  <time>2026-09-01T20:00:31Z</time>
  <course>346.23</course>
  <speed>0.07</speed>
  <fix>3d</fix>
</trkpt>
<trkpt lat="-35.2750219" lon="148.9863587">
  <ele>628.66</ele>
  <time>2026-09-01T20:00:31Z</time>
  <course>247.57</course>
  <speed>0.04</speed>
  <fix>3d</fix>
</trkpt>
<trkpt lat="-35.2750217" lon="148.9863583">
  <ele>628.05</ele>
  <time>2026-09-01T20:00:31Z</time>
  <course>346.28</course>
  <speed>0.07</speed>
  <fix>3d</fix>
</trkpt>
<trkpt lat="-35.2750219" lon="148.9863586">
  <ele>628.36</ele>
  <time>2026-09-01T20:00:31Z</time>
  <course>248.82</course>
  <speed>0.04</speed>
  <fix>3d</fix>
</trkpt>
<trkpt lat="-35.2750217" lon="148.9863583">
  <ele>627.9</ele>
  <time>2026-09-01T20:00:31Z</time>
  <course>346.33</course>
  <speed>0.07</speed>
  <fix>3d</fix>
</trkpt>
<trkpt lat="-35.2750219" lon="148.9863586">
  <ele>628.36</ele>
  <time>2026-09-01T20:00:31Z</time>
  <course>248.82</course>
  <speed>0.04</speed>
  <fix>3d</fix>
</trkpt>
<trkpt lat="-35.2750218" lon="148.9863582">
  <ele>627.75</ele>
  <time>2026-09-01T20:00:31Z</time>
  <course>346.39</course>
  <speed>0.08</speed>
  <fix>3d</fix>
</trkpt>
<trkpt lat="-35.2750219" lon="148.9863585">
  <ele>628.06</ele>
  <time>2026-09-01T20:00:31Z</time>
  <course>250.35</course>
  <speed>0.05</speed>
  <fix>3d</fix>
</trkpt>
<trkpt lat="-35.2750218" lon="148.9863581">
  <ele>627.59</ele>
  <time>2026-09-01T20:00:31Z</time>
  <course>346.46</course>
  <speed>0.08</speed>
  <fix>3d</fix>
</trkpt>
<trkpt lat="-35.2750219" lon="148.9863585">
  <ele>628.06</ele>
  <time>2026-09-01T20:00:31Z</time>
  <course>250.35</course>
  <speed>0.05</speed>
  <fix>3d</fix>
</trkpt>
<trkpt lat="-35.2750218" lon="148.9863581">
  <ele>627.44</ele>
  <time>2026-09-01T20:00:31Z</time>
  <course>346.52</course>
  <speed>0.08</speed>
  <fix>3d</fix>
</trkpt>
<trkpt lat="-35.275022" lon="148.9863584">
  <ele>627.76</ele>
  <time>2026-09-01T20:00:31Z</time>
  <course>252.12</course>
  <speed>0.05</speed>
  <fix>3d</fix>
</trkpt>
<trkpt lat="-35.2750218" lon="148.986358">
  <ele>627.29</ele>
  <time>2026-09-01T20:00:31Z</time>
  <course>346.58</course>
  <speed>0.08</speed>
  <fix>3d</fix>
</trkpt>
<trkpt lat="-35.275022" lon="148.9863584">
  <ele>627.76</ele>
  <time>2026-09-01T20:00:31Z</time>
  <course>252.12</course>
  <speed>0.05</speed>
  <fix>3d</fix>
</trkpt>
<trkpt lat="-35.2750218" lon="148.986358">
  <ele>627.14</ele>
  <time>2026-09-01T20:00:31Z</time>
  <course>346.63</course>
  <speed>0.08</speed>
  <fix>3d</fix>
</trkpt>
<trkpt lat="-35.275022" lon="148.9863583">
  <ele>627.45</ele>
  <time>2026-09-01T20:00:31Z</time>
  <course>254.03</course>
  <speed>0.05</speed>
  <fix>3d</fix>
</trkpt>
<trkpt lat="-35.2750218" lon="148.9863579">
  <ele>626.99</ele>
  <time>2026-09-01T20:00:31Z</time>
  <course>346.64</course>
  <speed>0.07</speed>
  <fix>3d</fix>
</trkpt>
<trkpt lat="-35.275022" lon="148.9863583">
  <ele>627.45</ele>
  <time>2026-09-01T20:00:31Z</time>
  <course>254.03</course>
  <speed>0.05</speed>
  <fix>3d</fix>
</trkpt>
<trkpt lat="-35.2750219" lon="148.9863579">
  <ele>626.84</ele>
  <time>2026-09-01T20:00:31Z</time>
  <course>346.54</course>
  <speed>0.06</speed>
  <fix>3d</fix>
</trkpt>
<trkpt lat="-35.275022" lon="148.9863582">
  <ele>627.16</ele>
  <time>2026-09-01T20:00:31Z</time>
  <course>255.55</course>
  <speed>0.04</speed>
  <fix>3d</fix>
</trkpt>
<trkpt lat="-35.2750219" lon="148.9863578">
  <ele>626.69</ele>
  <time>2026-09-01T20:00:31Z</time>
  <course>346.27</course>
  <speed>0.05</speed>
  <fix>3d</fix>
</trkpt>
<trkpt lat="-35.275022" lon="148.9863582">
  <ele>627.16</ele>
  <time>2026-09-01T20:00:31Z</time>
  <course>255.55</course>
  <speed>0.04</speed>
  <fix>3d</fix>
</trkpt>
<trkpt lat="-35.2750219" lon="148.9863578">
  <ele>626.53</ele>
  <time>2026-09-01T20:00:31Z</time>
  <course>345.88</course>
  <speed>0.0316227766016838</speed>
  <fix>3d</fix>
</trkpt>
<trkpt lat="-35.275022" lon="148.9863581">
  <ele>626.86</ele>
  <time>2026-09-01T20:00:31Z</time>
  <course>257.1</course>
  <speed>0.02</speed>
  <fix>3d</fix>
</trkpt>
<trkpt lat="-35.2750219" lon="148.9863578">
  <ele>626.38</ele>
  <time>2026-09-01T20:00:31Z</time>
  <course>345.43</course>
  <speed>0.01414213562373095</speed>
  <fix>3d</fix>
</trkpt>
<trkpt lat="-35.275022" lon="148.9863581">
  <ele>626.86</ele>
  <time>2026-09-01T20:00:31Z</time>
  <course>257.1</course>
  <speed>0.02</speed>
  <fix>3d</fix>
</trkpt>
<trkpt lat="-35.2750219" lon="148.9863579">
  <ele>626.23</ele>
  <time>2026-09-01T20:00:31Z</time>
  <course>345.0</course>
  <speed>0.02</speed>
  <fix>3d</fix>
</trkpt>
<trkpt lat="-35.275022" lon="148.9863581">
  <ele>626.55</ele>
  <time>2026-09-01T20:00:31Z</time>
  <course>74.14</course>
  <speed>0.01</speed>
  <fix>3d</fix>
</trkpt>
<trkpt lat="-35.2750218" lon="148.9863579">
  <ele>626.08</ele>
  <time>2026-09-01T20:00:31Z</time>
  <course>344.64</course>
  <speed>0.022360679774997897</speed>
  <fix>3d</fix>
</trkpt>
<trkpt lat="-35.275022" lon="148.9863581">
  <ele>626.55</ele>
  <time>2026-09-01T20:00:31Z</time>
  <course>74.14</course>
  <speed>0.01</speed>
  <fix>3d</fix>
</trkpt>
<trkpt lat="-35.2750218" lon="148.986358">
  <ele>625.93</ele>
  <time>2026-09-01T20:00:31Z</time>
  <course>344.4</course>
  <speed>0.03605551275463989</speed>
  <fix>3d</fix>
</trkpt>
<trkpt lat="-35.275022" lon="148.9863581">
  <ele>626.25</ele>
  <time>2026-09-01T20:00:31Z</time>
  <course>77.14</course>
  <speed>0.04</speed>
  <fix>3d</fix>
</trkpt>
<trkpt lat="-35.2750218" lon="148.986358">
  <ele>625.78</ele>
  <time>2026-09-01T20:00:31Z</time>
  <course>344.27</course>
  <speed>0.044721359549995794</speed>
  <fix>3d</fix>
</trkpt>
<trkpt lat="-35.275022" lon="148.9863581">
  <ele>626.25</ele>
  <time>2026-09-01T20:00:31Z</time>
  <course>77.14</course>
  <speed>0.04</speed>
  <fix>3d</fix>
</trkpt>
<trkpt lat="-35.2750218" lon="148.986358">
  <ele>625.63</ele>
  <time>2026-09-01T20:00:31Z</time>
  <course>344.24</course>
  <speed>0.0670820393249937</speed>
  <fix>3d</fix>
</trkpt>
<trkpt lat="-35.275022" lon="148.9863581">
  <ele>625.94</ele>
  <time>2026-09-01T20:00:31Z</time>
  <course>78.56</course>
  <speed>0.07</speed>
  <fix>3d</fix>
</trkpt>
<trkpt lat="-35.2750218" lon="148.9863581">
  <ele>625.48</ele>
  <time>2026-09-01T20:00:31Z</time>
  <course>344.29</course>
  <speed>0.07615773105863909</speed>
  <fix>3d</fix>
</trkpt>
<trkpt lat="-35.275022" lon="148.9863581">
  <ele>625.94</ele>
  <time>2026-09-01T20:00:31Z</time>
  <course>78.56</course>
  <speed>0.07</speed>
  <fix>3d</fix>
</trkpt>
<trkpt lat="-35.2750218" lon="148.9863582">
  <ele>625.33</ele>
  <time>2026-09-01T20:00:31Z</time>
  <course>344.37</course>
  <speed>0.0854400374531753</speed>
  <fix>3d</fix>
</trkpt>
<trkpt lat="-35.275022" lon="148.9863584">
  <ele>625.65</ele>
  <time>2026-09-01T20:00:31Z</time>
  <course>79.55</course>
  <speed>0.09</speed>
  <fix>3d</fix>
</trkpt>
<trkpt lat="-35.2750218" lon="148.9863584">
  <ele>625.19</ele>
  <time>2026-09-01T20:00:31Z</time>
  <course>344.47</course>
  <speed>0.09486832980505139</speed>
  <fix>3d</fix>
</trkpt>
<trkpt lat="-35.275022" lon="148.9863584">
  <ele>625.65</ele>
  <time>2026-09-01T20:00:31Z</time>
  <course>79.55</course>
  <speed>0.09</speed>
  <fix>3d</fix>
</trkpt>
<trkpt lat="-35.2750218" lon="148.9863585">
  <ele>625.04</ele>
  <time>2026-09-01T20:00:31Z</time>
  <course>344.57</course>
  <speed>0.1044030650891055</speed>
  <fix>3d</fix>
</trkpt>
<trkpt lat="-35.275022" lon="148.9863586">
  <ele>625.35</ele>
  <time>2026-09-01T20:00:31Z</time>
  <course>80.09</course>
  <speed>0.12</speed>
  <fix>3d</fix>
</trkpt>
<trkpt lat="-35.2750218" lon="148.9863586">
  <ele>624.88</ele>
  <time>2026-09-01T20:00:31Z</time>
  <course>344.65</course>
  <speed>0.11401754250991379</speed>
  <fix>3d</fix>
</trkpt>
<trkpt lat="-35.275022" lon="148.9863586">
  <ele>625.35</ele>
  <time>2026-09-01T20:00:31Z</time>
  <course>80.09</course>
  <speed>0.12</speed>
  <fix>3d</fix>
</trkpt>
<trkpt lat="-35.2750218" lon="148.9863588">
  <ele>624.73</ele>
  <time>2026-09-01T20:00:31Z</time>
  <course>344.7</course>
  <speed>0.11401754250991379</speed>
  <fix>3d</fix>
</trkpt>
<trkpt lat="-35.275022" lon="148.9863589">
  <ele>625.05</ele>
  <time>2026-09-01T20:00:31Z</time>
  <course>80.25</course>
  <speed>0.13</speed>
  <fix>3d</fix>
</trkpt>
<trkpt lat="-35.2750218" lon="148.986359">
  <ele>624.58</ele>
  <time>2026-09-01T20:00:31Z</time>
  <course>344.72</course>
  <speed>0.12369316876852982</speed>
  <fix>3d</fix>
</trkpt>
<trkpt lat="-35.275022" lon="148.9863589">
  <ele>625.05</ele>
  <time>2026-09-01T20:00:31Z</time>
  <course>80.25</course>
  <speed>0.13</speed>
  <fix>3d</fix>
</trkpt>
<trkpt lat="-35.2750218" lon="148.9863591">
  <ele>624.43</ele>
  <time>2026-09-01T20:00:31Z</time>
  <course>344.71</course>
  <speed>0.13601470508735444</speed>
  <fix>3d</fix>
</trkpt>
<trkpt lat="-35.2750219" lon="148.9863592">
  <ele>624.76</ele>
  <time>2026-09-01T20:00:31Z</time>
  <course>80.16</course>
  <speed>0.15</speed>
  <fix>3d</fix>
</trkpt>
<trkpt lat="-35.2750218" lon="148.9863593">
  <ele>624.28</ele>
  <time>2026-09-01T20:00:31Z</time>
  <course>344.7</course>
  <speed>0.13601470508735444</speed>
  <fix>3d</fix>
</trkpt>
<trkpt lat="-35.2750219" lon="148.9863592">
  <ele>624.76</ele>
  <time>2026-09-01T20:00:31Z</time>
  <course>80.16</course>
  <speed>0.15</speed>
  <fix>3d</fix>
</trkpt>
<trkpt lat="-35.2750217" lon="148.9863595">
  <ele>624.13</ele>
  <time>2026-09-01T20:00:31Z</time>
  <course>344.67</course>
  <speed>0.13601470508735444</speed>
  <fix>3d</fix>
</trkpt>
<trkpt lat="-35.2750219" lon="148.9863595">
  <ele>624.45</ele>
  <time>2026-09-01T20:00:31Z</time>
  <course>80.05</course>
  <speed>0.16</speed>
  <fix>3d</fix>
</trkpt>
<trkpt lat="-35.2750217" lon="148.9863596">
  <ele>623.98</ele>
  <time>2026-09-01T20:00:31Z</time>
  <course>344.63</course>
  <speed>0.14560219778561037</speed>
  <fix>3d</fix>
</trkpt>
<trkpt lat="-35.2750219" lon="148.9863595">
  <ele>624.45</ele>
  <time>2026-09-01T20:00:31Z</time>
  <course>80.05</course>
  <speed>0.16</speed>
  <fix>3d</fix>
</trkpt>
<trkpt lat="-35.2750217" lon="148.9863598">
  <ele>623.83</ele>
  <time>2026-09-01T20:00:31Z</time>
  <course>344.59</course>
  <speed>0.14560219778561037</speed>
  <fix>3d</fix>
</trkpt>
<trkpt lat="-35.2750218" lon="148.9863598">
  <ele>624.16</ele>
  <time>2026-09-01T20:00:31Z</time>
  <course>79.9</course>
  <speed>0.16</speed>
  <fix>3d</fix>
</trkpt>
<trkpt lat="-35.2750217" lon="148.98636">
  <ele>623.69</ele>
  <time>2026-09-01T20:00:31Z</time>
  <course>344.56</course>
  <speed>0.14560219778561037</speed>
  <fix>3d</fix>
</trkpt>
<trkpt lat="-35.2750218" lon="148.9863598">
  <ele>624.16</ele>
  <time>2026-09-01T20:00:31Z</time>
  <course>79.9</course>
  <speed>0.16</speed>
  <fix>3d</fix>
</trkpt>
<trkpt lat="-35.2750216" lon="148.9863602">
  <ele>623.54</ele>
  <time>2026-09-01T20:00:31Z</time>
  <course>344.53</course>
  <speed>0.13601470508735444</speed>
  <fix>3d</fix>
</trkpt>
<trkpt lat="-35.2750218" lon="148.9863603">
  <ele>623.86</ele>
  <time>2026-09-01T20:00:31Z</time>
  <course>79.62</course>
  <speed>0.16</speed>
  <fix>3d</fix>
</trkpt>
<trkpt lat="-35.2750216" lon="148.9863603">
  <ele>623.39</ele>
  <time>2026-09-01T20:00:31Z</time>
  <course>344.51</course>
  <speed>0.13601470508735444</speed>
  <fix>3d</fix>
</trkpt>
<trkpt lat="-35.2750218" lon="148.9863603">
  <ele>623.86</ele>
  <time>2026-09-01T20:00:31Z</time>
  <course>79.62</course>
  <speed>0.16</speed>
  <fix>3d</fix>
</trkpt>
<trkpt lat="-35.2750216" lon="148.9863605">
  <ele>623.24</ele>
  <time>2026-09-01T20:00:31Z</time>
  <course>344.5</course>
  <speed>0.13601470508735444</speed>
  <fix>3d</fix>
</trkpt>
<trkpt lat="-35.2750217" lon="148.9863606">
  <ele>623.56</ele>
  <time>2026-09-01T20:00:31Z</time>
  <course>79.38</course>
  <speed>0.16</speed>
  <fix>3d</fix>
</trkpt>
<trkpt lat="-35.2750216" lon="148.9863607">
  <ele>623.09</ele>
  <time>2026-09-01T20:00:31Z</time>
  <course>344.49</course>
  <speed>0.13341664064126335</speed>
  <fix>3d</fix>
</trkpt>
<trkpt lat="-35.2750217" lon="148.9863606">
  <ele>623.56</ele>
  <time>2026-09-01T20:00:31Z</time>
  <course>79.38</course>
  <speed>0.16</speed>
  <fix>3d</fix>
</trkpt>
<trkpt lat="-35.2750216" lon="148.9863608">
  <ele>622.94</ele>
  <time>2026-09-01T20:00:31Z</time>
  <course>344.49</course>
  <speed>0.12369316876852982</speed>
  <fix>3d</fix>
</trkpt>
<trkpt lat="-35.2750216" lon="148.9863609">
  <ele>623.26</ele>
  <time>2026-09-01T20:00:31Z</time>
  <course>79.27</course>
  <speed>0.15</speed>
  <fix>3d</fix>
</trkpt>
<trkpt lat="-35.2750215" lon="148.986361">
  <ele>622.79</ele>
  <time>2026-09-01T20:00:31Z</time>
  <course>344.5</course>
  <speed>0.12369316876852982</speed>
  <fix>3d</fix>
</trkpt>
<trkpt lat="-35.2750216" lon="148.9863609">
  <ele>623.26</ele>
  <time>2026-09-01T20:00:31Z</time>
  <course>79.27</course>
  <speed>0.15</speed>
  <fix>3d</fix>
</trkpt>
<trkpt lat="-35.2750215" lon="148.9863612">
  <ele>622.64</ele>
  <time>2026-09-01T20:00:31Z</time>
  <course>344.51</course>
  <speed>0.11401754250991379</speed>
  <fix>3d</fix>
</trkpt>
<trkpt lat="-35.2750216" lon="148.9863613">
  <ele>622.95</ele>
  <time>2026-09-01T20:00:31Z</time>
  <course>79.11</course>
  <speed>0.14</speed>
  <fix>3d</fix>
</trkpt>
<trkpt lat="-35.2750215" lon="148.9863613">
  <ele>622.49</ele>
  <time>2026-09-01T20:00:31Z</time>
  <course>344.52</course>
  <speed>0.1044030650891055</speed>
  <fix>3d</fix>
</trkpt>
<trkpt lat="-35.2750216" lon="148.9863613">
  <ele>622.95</ele>
  <time>2026-09-01T20:00:31Z</time>
  <course>79.11</course>
  <speed>0.14</speed>
  <fix>3d</fix>
</trkpt>
<trkpt lat="-35.2750215" lon="148.9863614">
  <ele>622.34</ele>
  <time>2026-09-01T20:00:31Z</time>
  <course>344.52</course>
  <speed>0.1044030650891055</speed>
  <fix>3d</fix>
</trkpt>
<trkpt lat="-35.2750215" lon="148.9863616">
  <ele>622.66</ele>
  <time>2026-09-01T20:00:31Z</time>
  <course>78.72</course>
  <speed>0.13</speed>
  <fix>3d</fix>
</trkpt>
<trkpt lat="-35.2750215" lon="148.9863616">
  <ele>622.19</ele>
  <time>2026-09-01T20:00:31Z</time>
  <course>344.51</course>
  <speed>0.09486832980505139</speed>
  <fix>3d</fix>
</trkpt>
<trkpt lat="-35.2750215" lon="148.9863616">
  <ele>622.66</ele>
  <time>2026-09-01T20:00:31Z</time>
  <course>78.72</course>
  <speed>0.13</speed>
  <fix>3d</fix>
</trkpt>
<trkpt lat="-35.2750214" lon="148.9863617">
  <ele>622.04</ele>
  <time>2026-09-01T20:00:31Z</time>
  <course>344.5</course>
  <speed>0.0854400374531753</speed>
  <fix>3d</fix>
</trkpt>
<trkpt lat="-35.2750215" lon="148.9863618">
  <ele>622.36</ele>
  <time>2026-09-01T20:00:31Z</time>
  <course>78.24</course>
  <speed>0.11</speed>
  <fix>3d</fix>
</trkpt>
<trkpt lat="-35.2750214" lon="148.9863618">
  <ele>621.89</ele>
  <time>2026-09-01T20:00:31Z</time>
  <course>344.49</course>
  <speed>0.07615773105863909</speed>
  <fix>3d</fix>
</trkpt>
<trkpt lat="-35.2750215" lon="148.9863618">
  <ele>622.36</ele>
  <time>2026-09-01T20:00:31Z</time>
  <course>78.24</course>
  <speed>0.11</speed>
  <fix>3d</fix>
</trkpt>
<trkpt lat="-35.2750214" lon="148.9863619">
  <ele>621.74</ele>
  <time>2026-09-01T20:00:31Z</time>
  <course>344.49</course>
  <speed>0.0632455532033676</speed>
  <fix>3d</fix>
</trkpt>
<trkpt lat="-35.2750215" lon="148.9863621">
  <ele>622.06</ele>
  <time>2026-09-01T20:00:31Z</time>
  <course>77.95</course>
  <speed>0.09</speed>
  <fix>3d</fix>
</trkpt>
<trkpt lat="-35.2750214" lon="148.986362">
  <ele>621.59</ele>
  <time>2026-09-01T20:00:31Z</time>
  <course>344.48</course>
  <speed>0.053851648071345036</speed>
  <fix>3d</fix>
</trkpt>
<trkpt lat="-35.2750215" lon="148.9863621">
  <ele>622.06</ele>
  <time>2026-09-01T20:00:31Z</time>
  <course>77.95</course>
  <speed>0.09</speed>
  <fix>3d</fix>
</trkpt>
<trkpt lat="-35.2750214" lon="148.9863621">
  <ele>621.44</ele>
  <time>2026-09-01T20:00:31Z</time>
  <course>344.48</course>
  <speed>0.044721359549995794</speed>
  <fix>3d</fix>
</trkpt>
<trkpt lat="-35.2750215" lon="148.9863623">
  <ele>621.76</ele>
  <time>2026-09-01T20:00:31Z</time>
  <course>78.2</course>
  <speed>0.07</speed>
  <fix>3d</fix>
</trkpt>
<trkpt lat="-35.2750214" lon="148.9863622">
  <ele>621.29</ele>
  <time>2026-09-01T20:00:31Z</time>
  <course>344.49</course>
  <speed>0.03605551275463989</speed>
  <fix>3d</fix>
</trkpt>
<trkpt lat="-35.2750215" lon="148.9863623">
  <ele>621.76</ele>
  <time>2026-09-01T20:00:31Z</time>
  <course>78.2</course>
  <speed>0.07</speed>
  <fix>3d</fix>
</trkpt>
<trkpt lat="-35.2750214" lon="148.9863622">
  <ele>621.14</ele>
  <time>2026-09-01T20:00:31Z</time>
  <course>344.5</course>
  <speed>0.022360679774997897</speed>
  <fix>3d</fix>
</trkpt>
<trkpt lat="-35.2750215" lon="148.9863624">
  <ele>621.45</ele>
  <time>2026-09-01T20:00:31Z</time>
  <course>79.0</course>
  <speed>0.05</speed>
  <fix>3d</fix>
</trkpt>
<trkpt lat="-35.2750214" lon="148.9863623">
  <ele>620.99</ele>
  <time>2026-09-01T20:00:31Z</time>
  <course>344.52</course>
  <speed>0.01414213562373095</speed>
  <fix>3d</fix>
</trkpt>
<trkpt lat="-35.2750215" lon="148.9863624">
  <ele>621.45</ele>
  <time>2026-09-01T20:00:31Z</time>
  <course>79.0</course>
  <speed>0.05</speed>
  <fix>3d</fix>
</trkpt>
<trkpt lat="-35.2750214" lon="148.9863623">
  <ele>620.84</ele>
  <time>2026-09-01T20:00:31Z</time>
  <course>344.54</course>
  <speed>0.01</speed>
  <fix>3d</fix>
</trkpt>
<trkpt lat="-35.2750214" lon="148.9863625">
  <ele>621.16</ele>
  <time>2026-09-01T20:00:31Z</time>
  <course>79.64</course>
  <speed>0.03</speed>
  <fix>3d</fix>
</trkpt>
<trkpt lat="-35.2750214" lon="148.9863623">
  <ele>620.69</ele>
  <time>2026-09-01T20:00:31Z</time>
  <course>344.57</course>
  <speed>0.01</speed>
  <fix>3d</fix>
</trkpt>
<trkpt lat="-35.2750214" lon="148.9863625">
  <ele>621.16</ele>
  <time>2026-09-01T20:00:31Z</time>
  <course>79.64</course>
  <speed>0.03</speed>
  <fix>3d</fix>
</trkpt>
<trkpt lat="-35.2750214" lon="148.9863623">
  <ele>620.54</ele>
  <time>2026-09-01T20:00:31Z</time>
  <course>344.61</course>
  <speed>0.01</speed>
  <fix>3d</fix>
</trkpt>
<trkpt lat="-35.2750214" lon="148.9863626">
  <ele>620.85</ele>
  <time>2026-09-01T20:00:31Z</time>
  <course>79.8</course>
  <speed>0.01</speed>
  <fix>3d</fix>
</trkpt>
<trkpt lat="-35.2750214" lon="148.9863623">
  <ele>620.4</ele>
  <time>2026-09-01T20:00:31Z</time>
  <course>344.7</course>
  <speed>0.03</speed>
  <fix>3d</fix>
</trkpt>
<trkpt lat="-35.2750214" lon="148.9863626">
  <ele>620.85</ele>
  <time>2026-09-01T20:00:31Z</time>
  <course>79.8</course>
  <speed>0.01</speed>
  <fix>3d</fix>
</trkpt>
<trkpt lat="-35.2750214" lon="148.9863623">
  <ele>620.25</ele>
  <time>2026-09-01T20:00:31Z</time>
  <course>344.71</course>
  <speed>0.03</speed>
  <fix>3d</fix>
</trkpt>
<trkpt lat="-35.2750214" lon="148.9863626">
  <ele>620.55</ele>
  <time>2026-09-01T20:00:31Z</time>
  <course>260.47</course>
  <speed>0.01</speed>
  <fix>3d</fix>
</trkpt>
<trkpt lat="-35.2750214" lon="148.9863623">
  <ele>620.1</ele>
  <time>2026-09-01T20:00:31Z</time>
  <course>344.57</course>
  <speed>0.03</speed>
  <fix>3d</fix>
</trkpt>
<trkpt lat="-35.2750214" lon="148.9863626">
  <ele>620.55</ele>
  <time>2026-09-01T20:00:31Z</time>
  <course>260.47</course>
  <speed>0.01</speed>
  <fix>3d</fix>
</trkpt>
<trkpt lat="-35.2750214" lon="148.9863623">
  <ele>619.95</ele>
  <time>2026-09-01T20:00:31Z</time>
  <course>344.31</course>
  <speed>0.03</speed>
  <fix>3d</fix>
</trkpt>
<trkpt lat="-35.2750214" lon="148.9863626">
  <ele>620.25</ele>
  <time>2026-09-01T20:00:31Z</time>
  <course>263.12</course>
  <speed>0.01</speed>
  <fix>3d</fix>
</trkpt>
<trkpt lat="-35.2750214" lon="148.9863623">
  <ele>619.79</ele>
  <time>2026-09-01T20:00:31Z</time>
  <course>344.0</course>
  <speed>0.022360679774997897</speed>
  <fix>3d</fix>
</trkpt>
<trkpt lat="-35.2750214" lon="148.9863626">
  <ele>620.25</ele>
  <time>2026-09-01T20:00:31Z</time>
  <course>263.12</course>
  <speed>0.01</speed>
  <fix>3d</fix>
</trkpt>
<trkpt lat="-35.2750214" lon="148.9863623">
  <ele>619.64</ele>
  <time>2026-09-01T20:00:31Z</time>
  <course>343.69</course>
  <speed>0.022360679774997897</speed>
  <fix>3d</fix>
</trkpt>
<trkpt lat="-35.2750214" lon="148.9863626">
  <ele>619.94</ele>
  <time>2026-09-01T20:00:31Z</time>
  <course>267.61</course>
  <speed>0.01</speed>
  <fix>3d</fix>
</trkpt>
<trkpt lat="-35.2750214" lon="148.9863623">
  <ele>619.49</ele>
  <time>2026-09-01T20:00:31Z</time>
  <course>343.41</course>
  <speed>0.022360679774997897</speed>
  <fix>3d</fix>
</trkpt>
<trkpt lat="-35.2750214" lon="148.9863626">
  <ele>619.94</ele>
  <time>2026-09-01T20:00:31Z</time>
  <course>267.61</course>
  <speed>0.01</speed>
  <fix>3d</fix>
</trkpt>
<trkpt lat="-35.2750214" lon="148.9863623">
  <ele>619.33</ele>
  <time>2026-09-01T20:00:31Z</time>
  <course>343.19</course>
  <speed>0.022360679774997897</speed>
  <fix>3d</fix>
</trkpt>
<trkpt lat="-35.2750214" lon="148.9863625">
  <ele>619.65</ele>
  <time>2026-09-01T20:00:31Z</time>
  <course>271.62</course>
  <speed>0.01</speed>
  <fix>3d</fix>
</trkpt>
<trkpt lat="-35.2750214" lon="148.9863623">
  <ele>619.18</ele>
  <time>2026-09-01T20:00:31Z</time>
  <course>343.05</course>
  <speed>0.022360679774997897</speed>
  <fix>3d</fix>
</trkpt>
<trkpt lat="-35.2750214" lon="148.9863625">
  <ele>619.65</ele>
  <time>2026-09-01T20:00:31Z</time>
  <course>271.62</course>
  <speed>0.01</speed>
  <fix>3d</fix>
</trkpt>
<trkpt lat="-35.2750214" lon="148.9863623">
  <ele>619.03</ele>
  <time>2026-09-01T20:00:31Z</time>
  <course>342.98</course>
  <speed>0.022360679774997897</speed>
  <fix>3d</fix>
</trkpt>
<trkpt lat="-35.2750214" lon="148.9863624">
  <ele>619.35</ele>
  <time>2026-09-01T20:00:31Z</time>
  <course>275.15</course>
  <speed>0.01</speed>
  <fix>3d</fix>
</trkpt>
<trkpt lat="-35.2750214" lon="148.9863623">
  <ele>618.87</ele>
  <time>2026-09-01T20:00:31Z</time>
  <course>342.95</course>
  <speed>0.01414213562373095</speed>
  <fix>3d</fix>
</trkpt>
<trkpt lat="-35.2750214" lon="148.9863624">
  <ele>619.35</ele>
  <time>2026-09-01T20:00:31Z</time>
  <course>275.15</course>
  <speed>0.01</speed>
  <fix>3d</fix>
</trkpt>
<trkpt lat="-35.2750214" lon="148.9863623">
  <ele>618.72</ele>
  <time>2026-09-01T20:00:31Z</time>
  <course>342.95</course>
  <speed>0.022360679774997897</speed>
  <fix>3d</fix>
</trkpt>
<trkpt lat="-35.2750214" lon="148.9863624">
  <ele>619.05</ele>
  <time>2026-09-01T20:00:31Z</time>
  <course>277.18</course>
  <speed>0.01</speed>
  <fix>3d</fix>
</trkpt>
<trkpt lat="-35.2750214" lon="148.9863623">
  <ele>618.57</ele>
  <time>2026-09-01T20:00:31Z</time>
  <course>342.96</course>
  <speed>0.022360679774997897</speed>
  <fix>3d</fix>
</trkpt>
<trkpt lat="-35.2750214" lon="148.9863624">
  <ele>619.05</ele>
  <time>2026-09-01T20:00:31Z</time>
  <course>277.18</course>
  <speed>0.01</speed>
  <fix>3d</fix>
</trkpt>
<trkpt lat="-35.2750213" lon="148.9863623">
  <ele>618.42</ele>
  <time>2026-09-01T20:00:31Z</time>
  <course>342.99</course>
  <speed>0.022360679774997897</speed>
  <fix>3d</fix>
</trkpt>
<trkpt lat="-35.2750214" lon="148.9863624">
  <ele>618.75</ele>
  <time>2026-09-01T20:00:31Z</time>
  <course>277.39</course>
  <speed>0.01</speed>
  <fix>3d</fix>
</trkpt>
<trkpt lat="-35.2750213" lon="148.9863623">
  <ele>618.27</ele>
  <time>2026-09-01T20:00:31Z</time>
  <course>343.02</course>
  <speed>0.022360679774997897</speed>
  <fix>3d</fix>
</trkpt>
<trkpt lat="-35.2750214" lon="148.9863624">
  <ele>618.75</ele>
  <time>2026-09-01T20:00:31Z</time>
  <course>277.39</course>
  <speed>0.01</speed>
  <fix>3d</fix>
</trkpt>
<trkpt lat="-35.2750213" lon="148.9863623">
  <ele>618.12</ele>
  <time>2026-09-01T20:00:31Z</time>
  <course>343.05</course>
  <speed>0.022360679774997897</speed>
  <fix>3d</fix>
</trkpt>
<trkpt lat="-35.2750214" lon="148.9863624">
  <ele>618.44</ele>
  <time>2026-09-01T20:00:31Z</time>
  <course>279.1</course>
  <speed>0.01</speed>
  <fix>3d</fix>
</trkpt>
<trkpt lat="-35.2750213" lon="148.9863623">
  <ele>617.97</ele>
  <time>2026-09-01T20:00:31Z</time>
  <course>343.07</course>
  <speed>0.022360679774997897</speed>
  <fix>3d</fix>
</trkpt>
<trkpt lat="-35.2750214" lon="148.9863624">
  <ele>618.44</ele>
  <time>2026-09-01T20:00:31Z</time>
  <course>279.1</course>
  <speed>0.01</speed>
  <fix>3d</fix>
</trkpt>
<trkpt lat="-35.2750213" lon="148.9863623">
  <ele>617.82</ele>
  <time>2026-09-01T20:00:31Z</time>
  <course>343.08</course>
  <speed>0.022360679774997897</speed>
  <fix>3d</fix>
</trkpt>
<trkpt lat="-35.2750214" lon="148.9863624">
  <ele>618.15</ele>
  <time>2026-09-01T20:00:31Z</time>
  <course>282.24</course>
  <speed>0.01</speed>
  <fix>3d</fix>
</trkpt>
<trkpt lat="-35.2750213" lon="148.9863623">
  <ele>617.67</ele>
  <time>2026-09-01T20:00:31Z</time>
  <course>343.07</course>
  <speed>0.022360679774997897</speed>
  <fix>3d</fix>
</trkpt>
<trkpt lat="-35.2750214" lon="148.9863624">
  <ele>618.15</ele>
  <time>2026-09-01T20:00:31Z</time>
  <course>282.24</course>
  <speed>0.01</speed>
  <fix>3d</fix>
</trkpt>
<trkpt lat="-35.2750213" lon="148.9863622">
  <ele>617.53</ele>
  <time>2026-09-01T20:00:31Z</time>
  <course>343.05</course>
  <speed>0.022360679774997897</speed>
  <fix>3d</fix>
</trkpt>
<trkpt lat="-35.2750214" lon="148.9863623">
  <ele>617.85</ele>
  <time>2026-09-01T20:00:31Z</time>
  <course>285.25</course>
  <speed>0.01</speed>
  <fix>3d</fix>
</trkpt>
<trkpt lat="-35.2750213" lon="148.9863622">
  <ele>617.38</ele>
  <time>2026-09-01T20:00:31Z</time>
  <course>343.04</course>
  <speed>0.022360679774997897</speed>
  <fix>3d</fix>
</trkpt>
<trkpt lat="-35.2750214" lon="148.9863623">
  <ele>617.85</ele>
  <time>2026-09-01T20:00:31Z</time>
  <course>285.25</course>
  <speed>0.01</speed>
  <fix>3d</fix>
</trkpt>
<trkpt lat="-35.2750213" lon="148.9863622">
  <ele>617.23</ele>
  <time>2026-09-01T20:00:31Z</time>
  <course>343.02</course>
  <speed>0.022360679774997897</speed>
  <fix>3d</fix>
</trkpt>
<trkpt lat="-35.2750214" lon="148.9863623">
  <ele>617.56</ele>
  <time>2026-09-01T20:00:31Z</time>
  <course>287.14</course>
  <speed>0.01</speed>
  <fix>3d</fix>
</trkpt>
<trkpt lat="-35.2750213" lon="148.9863622">
  <ele>617.08</ele>
  <time>2026-09-01T20:00:31Z</time>
  <course>342.99</course>
  <speed>0.022360679774997897</speed>
  <fix>3d</fix>
</trkpt>
<trkpt lat="-35.2750214" lon="148.9863623">
  <ele>617.56</ele>
  <time>2026-09-01T20:00:31Z</time>
  <course>287.14</course>
  <speed>0.01</speed>
  <fix>3d</fix>
</trkpt>
<trkpt lat="-35.2750213" lon="148.9863622">
  <ele>616.93</ele>
  <time>2026-09-01T20:00:31Z</time>
  <course>342.97</course>
  <speed>0.022360679774997897</speed>
  <fix>3d</fix>
</trkpt>
<trkpt lat="-35.2750214" lon="148.9863623">
  <ele>617.26</ele>
  <time>2026-09-01T20:00:31Z</time>
  <course>288.09</course>
  <speed>0.01</speed>
  <fix>3d</fix>
</trkpt>
<trkpt lat="-35.2750213" lon="148.9863622">
  <ele>616.78</ele>
  <time>2026-09-01T20:00:31Z</time>
  <course>342.96</course>
  <speed>0.022360679774997897</speed>
  <fix>3d</fix>
</trkpt>
<trkpt lat="-35.2750214" lon="148.9863623">
  <ele>617.26</ele>
  <time>2026-09-01T20:00:31Z</time>
  <course>288.09</course>
  <speed>0.01</speed>
  <fix>3d</fix>
</trkpt>
<trkpt lat="-35.2750213" lon="148.9863622">
  <ele>616.63</ele>
  <time>2026-09-01T20:00:31Z</time>
  <course>342.95</course>
  <speed>0.022360679774997897</speed>
  <fix>3d</fix>
</trkpt>
<trkpt lat="-35.2750214" lon="148.9863623">
  <ele>616.96</ele>
  <time>2026-09-01T20:00:31Z</time>
  <course>289.26</course>
  <speed>0.01</speed>
  <fix>3d</fix>
</trkpt>
<trkpt lat="-35.2750213" lon="148.9863622">
  <ele>616.48</ele>
  <time>2026-09-01T20:00:31Z</time>
  <course>342.95</course>
  <speed>0.022360679774997897</speed>
  <fix>3d</fix>
</trkpt>
<trkpt lat="-35.2750214" lon="148.9863623">
  <ele>616.96</ele>
  <time>2026-09-01T20:00:31Z</time>
  <course>289.26</course>
  <speed>0.01</speed>
  <fix>3d</fix>
</trkpt>
<trkpt lat="-35.2750213" lon="148.9863622">
  <ele>616.33</ele>
  <time>2026-09-01T20:00:31Z</time>
  <course>342.94</course>
  <speed>0.022360679774997897</speed>
  <fix>3d</fix>
</trkpt>
<trkpt lat="-35.2750214" lon="148.9863622">
  <ele>616.67</ele>
  <time>2026-09-01T20:00:31Z</time>
  <course>292.27</course>
  <speed>0.01</speed>
  <fix>3d</fix>
</trkpt>
<trkpt lat="-35.2750213" lon="148.9863621">
  <ele>616.18</ele>
  <time>2026-09-01T20:00:31Z</time>
  <course>342.92</course>
  <speed>0.022360679774997897</speed>
  <fix>3d</fix>
</trkpt>
<trkpt lat="-35.2750214" lon="148.9863622">
  <ele>616.67</ele>
  <time>2026-09-01T20:00:31Z</time>
  <course>292.27</course>
  <speed>0.01</speed>
  <fix>3d</fix>
</trkpt>
<trkpt lat="-35.2750213" lon="148.9863621">
  <ele>616.04</ele>
  <time>2026-09-01T20:00:31Z</time>
  <course>342.91</course>
  <speed>0.022360679774997897</speed>
  <fix>3d</fix>
</trkpt>
<trkpt lat="-35.2750214" lon="148.9863622">
  <ele>616.37</ele>
  <time>2026-09-01T20:00:31Z</time>
  <course>294.69</course>
  <speed>0.01</speed>
  <fix>3d</fix>
</trkpt>
<trkpt lat="-35.2750213" lon="148.9863621">
  <ele>615.89</ele>
  <time>2026-09-01T20:00:31Z</time>
  <course>342.88</course>
  <speed>0.022360679774997897</speed>
  <fix>3d</fix>
</trkpt>
<trkpt lat="-35.2750214" lon="148.9863622">
  <ele>616.37</ele>
  <time>2026-09-01T20:00:31Z</time>
  <course>294.69</course>
  <speed>0.01</speed>
  <fix>3d</fix>
</trkpt>
<trkpt lat="-35.2750213" lon="148.9863621">
  <ele>615.74</ele>
  <time>2026-09-01T20:00:31Z</time>
  <course>342.85</course>
  <speed>0.022360679774997897</speed>
  <fix>3d</fix>
</trkpt>
<trkpt lat="-35.2750214" lon="148.9863622">
  <ele>616.06</ele>
  <time>2026-09-01T20:00:31Z</time>
  <course>297.74</course>
  <speed>0.01</speed>
  <fix>3d</fix>
</trkpt>
<trkpt lat="-35.2750213" lon="148.9863621">
  <ele>615.59</ele>
  <time>2026-09-01T20:00:31Z</time>
  <course>342.83</course>
  <speed>0.01414213562373095</speed>
  <fix>3d</fix>
</trkpt>
<trkpt lat="-35.2750214" lon="148.9863622">
  <ele>616.06</ele>
  <time>2026-09-01T20:00:31Z</time>
  <course>297.74</course>
  <speed>0.01</speed>
  <fix>3d</fix>
</trkpt>
<trkpt lat="-35.2750213" lon="148.9863621">
  <ele>615.44</ele>
  <time>2026-09-01T20:00:31Z</time>
  <course>342.81</course>
  <speed>0.01414213562373095</speed>
  <fix>3d</fix>
</trkpt>
<trkpt lat="-35.2750214" lon="148.9863622">
  <ele>615.77</ele>
  <time>2026-09-01T20:00:31Z</time>
  <course>302.82</course>
  <speed>0.0</speed>
  <fix>3d</fix>
</trkpt>
<trkpt lat="-35.2750213" lon="148.9863621">
  <ele>615.29</ele>
  <time>2026-09-01T20:00:31Z</time>
  <course>342.79</course>
  <speed>0.022360679774997897</speed>
  <fix>3d</fix>
</trkpt>
<trkpt lat="-35.2750214" lon="148.9863622">
  <ele>615.77</ele>
  <time>2026-09-01T20:00:31Z</time>
  <course>302.82</course>
  <speed>0.0</speed>
  <fix>3d</fix>
</trkpt>
<trkpt lat="-35.2750213" lon="148.9863621">
  <ele>615.14</ele>
  <time>2026-09-01T20:00:31Z</time>
  <course>342.76</course>
  <speed>0.022360679774997897</speed>
  <fix>3d</fix>
</trkpt>
<trkpt lat="-35.2750214" lon="148.9863622">
  <ele>615.47</ele>
  <time>2026-09-01T20:00:31Z</time>
  <course>309.11</course>
  <speed>0.0</speed>
  <fix>3d</fix>
</trkpt>
<trkpt lat="-35.2750213" lon="148.9863621">
  <ele>614.99</ele>
  <time>2026-09-01T20:00:31Z</time>
  <course>342.72</course>
  <speed>0.022360679774997897</speed>
  <fix>3d</fix>
</trkpt>
<trkpt lat="-35.2750214" lon="148.9863622">
  <ele>615.47</ele>
  <time>2026-09-01T20:00:31Z</time>
  <course>309.11</course>
  <speed>0.0</speed>
  <fix>3d</fix>
</trkpt>
<trkpt lat="-35.2750213" lon="148.9863621">
  <ele>614.84</ele>
  <time>2026-09-01T20:00:31Z</time>
  <course>342.68</course>
  <speed>0.022360679774997897</speed>
  <fix>3d</fix>
</trkpt>
<trkpt lat="-35.2750214" lon="148.9863622">
  <ele>615.18</ele>
  <time>2026-09-01T20:00:31Z</time>
  <course>317.14</course>
  <speed>0.0</speed>
  <fix>3d</fix>
</trkpt>
<trkpt lat="-35.2750213" lon="148.9863621">
  <ele>614.69</ele>
  <time>2026-09-01T20:00:31Z</time>
  <course>342.64</course>
  <speed>0.01414213562373095</speed>
  <fix>3d</fix>
</trkpt>
<trkpt lat="-35.2750214" lon="148.9863622">
  <ele>615.18</ele>
  <time>2026-09-01T20:00:31Z</time>
  <course>317.14</course>
  <speed>0.0</speed>
  <fix>3d</fix>
</trkpt>
<trkpt lat="-35.2750213" lon="148.9863621">
  <ele>614.54</ele>
  <time>2026-09-01T20:00:31Z</time>
  <course>342.6</course>
  <speed>0.01414213562373095</speed>
  <fix>3d</fix>
</trkpt>
<trkpt lat="-35.2750213" lon="148.9863621">
  <ele>614.88</ele>
  <time>2026-09-01T20:00:31Z</time>
  <course>321.66</course>
  <speed>0.0</speed>
  <fix>3d</fix>
</trkpt>
<trkpt lat="-35.2750213" lon="148.9863621">
  <ele>614.39</ele>
  <time>2026-09-01T20:00:31Z</time>
  <course>342.59</course>
  <speed>0.01414213562373095</speed>
  <fix>3d</fix>
</trkpt>
<trkpt lat="-35.2750213" lon="148.9863621">
  <ele>614.88</ele>
  <time>2026-09-01T20:00:31Z</time>
  <course>321.66</course>
  <speed>0.0</speed>
  <fix>3d</fix>
</trkpt>
<trkpt lat="-35.2750213" lon="148.9863621">
  <ele>614.24</ele>
  <time>2026-09-01T20:00:31Z</time>
  <course>342.59</course>
  <speed>0.022360679774997897</speed>
  <fix>3d</fix>
</trkpt>
<trkpt lat="-35.2750213" lon="148.986362">
  <ele>614.57</ele>
  <time>2026-09-01T20:00:31Z</time>
  <course>320.08</course>
  <speed>0.0</speed>
  <fix>3d</fix>
</trkpt>
<trkpt lat="-35.2750213" lon="148.986362">
  <ele>614.09</ele>
  <time>2026-09-01T20:00:31Z</time>
  <course>342.61</course>
  <speed>0.022360679774997897</speed>
  <fix>3d</fix>
</trkpt>
<trkpt lat="-35.2750213" lon="148.986362">
  <ele>614.57</ele>
  <time>2026-09-01T20:00:31Z</time>
  <course>320.08</course>
  <speed>0.0</speed>
  <fix>3d</fix>
</trkpt>
<trkpt lat="-35.2750213" lon="148.986362">
  <ele>613.94</ele>
  <time>2026-09-01T20:00:31Z</time>
  <course>342.63</course>
  <speed>0.022360679774997897</speed>
  <fix>3d</fix>
</trkpt>
<trkpt lat="-35.2750213" lon="148.986362">
  <ele>614.28</ele>
  <time>2026-09-01T20:00:31Z</time>
  <course>319.13</course>
  <speed>0.0</speed>
  <fix>3d</fix>
</trkpt>
<trkpt lat="-35.2750213" lon="148.986362">
  <ele>613.78</ele>
  <time>2026-09-01T20:00:31Z</time>
  <course>342.65</course>
  <speed>0.022360679774997897</speed>
  <fix>3d</fix>
</trkpt>
<trkpt lat="-35.2750213" lon="148.986362">
  <ele>614.28</ele>
  <time>2026-09-01T20:00:31Z</time>
  <course>319.13</course>
  <speed>0.0</speed>
  <fix>3d</fix>
</trkpt>
<trkpt lat="-35.2750212" lon="148.986362">
  <ele>613.63</ele>
  <time>2026-09-01T20:00:31Z</time>
  <course>342.68</course>
  <speed>0.0316227766016838</speed>
  <fix>3d</fix>
</trkpt>
<trkpt lat="-35.2750213" lon="148.986362">
  <ele>613.98</ele>
  <time>2026-09-01T20:00:31Z</time>
  <course>321.4</course>
  <speed>0.0</speed>
  <fix>3d</fix>
</trkpt>
<trkpt lat="-35.2750212" lon="148.986362">
  <ele>613.48</ele>
  <time>2026-09-01T20:00:31Z</time>
  <course>342.7</course>
  <speed>0.022360679774997897</speed>
  <fix>3d</fix>
</trkpt>
<trkpt lat="-35.2750213" lon="148.986362">
  <ele>613.98</ele>
  <time>2026-09-01T20:00:31Z</time>
  <course>321.4</course>
  <speed>0.0</speed>
  <fix>3d</fix>
</trkpt>
<trkpt lat="-35.2750212" lon="148.9863619">
  <ele>613.33</ele>
  <time>2026-09-01T20:00:31Z</time>
  <course>342.72</course>
  <speed>0.0316227766016838</speed>
  <fix>3d</fix>
</trkpt>
<trkpt lat="-35.2750213" lon="148.986362">
  <ele>613.68</ele>
  <time>2026-09-01T20:00:31Z</time>
  <course>321.68</course>
  <speed>0.0</speed>
  <fix>3d</fix>
</trkpt>
<trkpt lat="-35.2750212" lon="148.9863619">
  <ele>613.18</ele>
  <time>2026-09-01T20:00:31Z</time>
  <course>342.73</course>
  <speed>0.0316227766016838</speed>
  <fix>3d</fix>
</trkpt>
<trkpt lat="-35.2750213" lon="148.986362">
  <ele>613.68</ele>
  <time>2026-09-01T20:00:31Z</time>
  <course>321.68</course>
  <speed>0.0</speed>
  <fix>3d</fix>
</trkpt>
<trkpt lat="-35.2750212" lon="148.9863619">
  <ele>613.03</ele>
  <time>2026-09-01T20:00:31Z</time>
  <course>342.74</course>
  <speed>0.0316227766016838</speed>
  <fix>3d</fix>
</trkpt>
<trkpt lat="-35.2750213" lon="148.986362">
  <ele>613.38</ele>
  <time>2026-09-01T20:00:31Z</time>
  <course>322.75</course>
  <speed>0.0</speed>
  <fix>3d</fix>
</trkpt>
<trkpt lat="-35.2750212" lon="148.9863619">
  <ele>612.88</ele>
  <time>2026-09-01T20:00:31Z</time>
  <course>342.74</course>
  <speed>0.0316227766016838</speed>
  <fix>3d</fix>
</trkpt>
<trkpt lat="-35.2750213" lon="148.986362">
  <ele>613.38</ele>
  <time>2026-09-01T20:00:31Z</time>
  <course>322.75</course>
  <speed>0.0</speed>
  <fix>3d</fix>
</trkpt>
<trkpt lat="-35.2750212" lon="148.9863619">
  <ele>612.73</ele>
  <time>2026-09-01T20:00:31Z</time>
  <course>342.74</course>
  <speed>0.022360679774997897</speed>
  <fix>3d</fix>
</trkpt>
<trkpt lat="-35.2750213" lon="148.986362">
  <ele>613.07</ele>
  <time>2026-09-01T20:00:31Z</time>
  <course>324.85</course>
  <speed>0.0</speed>
  <fix>3d</fix>
</trkpt>
<trkpt lat="-35.2750212" lon="148.9863619">
  <ele>612.58</ele>
  <time>2026-09-01T20:00:31Z</time>
  <course>342.74</course>
  <speed>0.022360679774997897</speed>
  <fix>3d</fix>
</trkpt>
<trkpt lat="-35.2750213" lon="148.986362">
  <ele>613.07</ele>
  <time>2026-09-01T20:00:31Z</time>
  <course>324.85</course>
  <speed>0.0</speed>
  <fix>3d</fix>
</trkpt>
<trkpt lat="-35.2750212" lon="148.9863619">
  <ele>612.44</ele>
  <time>2026-09-01T20:00:31Z</time>
  <course>342.74</course>
  <speed>0.022360679774997897</speed>
  <fix>3d</fix>
</trkpt>
<trkpt lat="-35.2750213" lon="148.986362">
  <ele>612.78</ele>
  <time>2026-09-01T20:00:31Z</time>
  <course>326.46</course>
  <speed>0.0</speed>
  <fix>3d</fix>
</trkpt>
<trkpt lat="-35.2750212" lon="148.9863619">
  <ele>612.29</ele>
  <time>2026-09-01T20:00:31Z</time>
  <course>342.72</course>
  <speed>0.022360679774997897</speed>
  <fix>3d</fix>
</trkpt>
<trkpt lat="-35.2750213" lon="148.986362">
  <ele>612.78</ele>
  <time>2026-09-01T20:00:31Z</time>
  <course>326.46</course>
  <speed>0.0</speed>
  <fix>3d</fix>
</trkpt>
<trkpt lat="-35.2750212" lon="148.9863618">
  <ele>612.14</ele>
  <time>2026-09-01T20:00:31Z</time>
  <course>342.7</course>
  <speed>0.01414213562373095</speed>
  <fix>3d</fix>
</trkpt>
<trkpt lat="-35.2750213" lon="148.986362">
  <ele>612.48</ele>
  <time>2026-09-01T20:00:31Z</time>
  <course>334.61</course>
  <speed>0.0</speed>
  <fix>3d</fix>
</trkpt>
<trkpt lat="-35.2750212" lon="148.9863619">
  <ele>611.99</ele>
  <time>2026-09-01T20:00:31Z</time>
  <course>342.66</course>
  <speed>0.01414213562373095</speed>
  <fix>3d</fix>
</trkpt>
<trkpt lat="-35.2750213" lon="148.986362">
  <ele>612.48</ele>
  <time>2026-09-01T20:00:31Z</time>
  <course>334.61</course>
  <speed>0.0</speed>
  <fix>3d</fix>
</trkpt>
<trkpt lat="-35.2750212" lon="148.9863619">
  <ele>611.84</ele>
  <time>2026-09-01T20:00:31Z</time>
  <course>342.61</course>
  <speed>0.01414213562373095</speed>
  <fix>3d</fix>
</trkpt>
<trkpt lat="-35.2750213" lon="148.986362">
  <ele>612.18</ele>
  <time>2026-09-01T20:00:31Z</time>
  <course>352.91</course>
  <speed>0.0</speed>
  <fix>3d</fix>
</trkpt>
<trkpt lat="-35.2750212" lon="148.9863619">
  <ele>611.69</ele>
  <time>2026-09-01T20:00:31Z</time>
  <course>342.55</course>
  <speed>0.01414213562373095</speed>
  <fix>3d</fix>
</trkpt>
<trkpt lat="-35.2750213" lon="148.986362">
  <ele>612.18</ele>
  <time>2026-09-01T20:00:31Z</time>
  <course>352.91</course>
  <speed>0.0</speed>
  <fix>3d</fix>
</trkpt>
<trkpt lat="-35.2750212" lon="148.9863619">
  <ele>611.54</ele>
  <time>2026-09-01T20:00:31Z</time>
  <course>342.49</course>
  <speed>0.01414213562373095</speed>
  <fix>3d</fix>
</trkpt>
<trkpt lat="-35.2750212" lon="148.986362">
  <ele>611.88</ele>
  <time>2026-09-01T20:00:31Z</time>
  <course>13.81</course>
  <speed>0.0</speed>
  <fix>3d</fix>
</trkpt>
<trkpt lat="-35.2750212" lon="148.9863619">
  <ele>611.39</ele>
  <time>2026-09-01T20:00:31Z</time>
  <course>342.44</course>
  <speed>0.01414213562373095</speed>
  <fix>3d</fix>
</trkpt>
<trkpt lat="-35.2750212" lon="148.986362">
  <ele>611.88</ele>
  <time>2026-09-01T20:00:31Z</time>
  <course>13.81</course>
  <speed>0.0</speed>
  <fix>3d</fix>
</trkpt>
<trkpt lat="-35.2750212" lon="148.9863619">
  <ele>611.23</ele>
  <time>2026-09-01T20:00:31Z</time>
  <course>342.4</course>
  <speed>0.01414213562373095</speed>
  <fix>3d</fix>
</trkpt>
<trkpt lat="-35.2750212" lon="148.986362">
  <ele>611.58</ele>
  <time>2026-09-01T20:00:31Z</time>
  <course>36.77</course>
  <speed>0.0</speed>
  <fix>3d</fix>
</trkpt>
<trkpt lat="-35.2750212" lon="148.9863619">
  <ele>611.08</ele>
  <time>2026-09-01T20:00:31Z</time>
  <course>342.38</course>
  <speed>0.01414213562373095</speed>
  <fix>3d</fix>
</trkpt>
<trkpt lat="-35.2750212" lon="148.986362">
  <ele>611.58</ele>
  <time>2026-09-01T20:00:31Z</time>
  <course>36.77</course>
  <speed>0.0</speed>
  <fix>3d</fix>
</trkpt>
<trkpt lat="-35.2750212" lon="148.9863619">
  <ele>610.93</ele>
  <time>2026-09-01T20:00:31Z</time>
  <course>342.35</course>
  <speed>0.01414213562373095</speed>
  <fix>3d</fix>
</trkpt>
<trkpt lat="-35.2750212" lon="148.986362">
  <ele>611.29</ele>
  <time>2026-09-01T20:00:31Z</time>
  <course>56.42</course>
  <speed>0.0</speed>
  <fix>3d</fix>
</trkpt>
<trkpt lat="-35.2750212" lon="148.9863619">
  <ele>610.78</ele>
  <time>2026-09-01T20:00:31Z</time>
  <course>342.34</course>
  <speed>0.01414213562373095</speed>
  <fix>3d</fix>
</trkpt>
<trkpt lat="-35.2750212" lon="148.986362">
  <ele>611.29</ele>
  <time>2026-09-01T20:00:31Z</time>
  <course>56.42</course>
  <speed>0.0</speed>
  <fix>3d</fix>
</trkpt>
<trkpt lat="-35.2750212" lon="148.9863619">
  <ele>610.63</ele>
  <time>2026-09-01T20:00:31Z</time>
  <course>342.34</course>
  <speed>0.01414213562373095</speed>
  <fix>3d</fix>
</trkpt>
<trkpt lat="-35.2750212" lon="148.986362">
  <ele>610.99</ele>
  <time>2026-09-01T20:00:31Z</time>
  <course>66.28</course>
  <speed>0.0</speed>
  <fix>3d</fix>
</trkpt>
<trkpt lat="-35.2750212" lon="148.9863619">
  <ele>610.49</ele>
  <time>2026-09-01T20:00:31Z</time>
  <course>342.35</course>
  <speed>0.01414213562373095</speed>
  <fix>3d</fix>
</trkpt>
<trkpt lat="-35.2750212" lon="148.986362">
  <ele>610.99</ele>
  <time>2026-09-01T20:00:31Z</time>
  <course>66.28</course>
  <speed>0.0</speed>
  <fix>3d</fix>
</trkpt>
<trkpt lat="-35.2750212" lon="148.9863619">
  <ele>610.34</ele>
  <time>2026-09-01T20:00:31Z</time>
  <course>342.36</course>
  <speed>0.01414213562373095</speed>
  <fix>3d</fix>
</trkpt>
<trkpt lat="-35.2750212" lon="148.986362">
  <ele>610.69</ele>
  <time>2026-09-01T20:00:31Z</time>
  <course>73.07</course>
  <speed>0.0</speed>
  <fix>3d</fix>
</trkpt>
<trkpt lat="-35.2750211" lon="148.9863619">
  <ele>610.19</ele>
  <time>2026-09-01T20:00:31Z</time>
  <course>342.35</course>
  <speed>0.01414213562373095</speed>
  <fix>3d</fix>
</trkpt>
<trkpt lat="-35.2750212" lon="148.986362">
  <ele>610.69</ele>
  <time>2026-09-01T20:00:31Z</time>
  <course>73.07</course>
  <speed>0.0</speed>
  <fix>3d</fix>
</trkpt>
<trkpt lat="-35.2750211" lon="148.9863619">
  <ele>610.04</ele>
  <time>2026-09-01T20:00:31Z</time>
  <course>342.33</course>
  <speed>0.01414213562373095</speed>
  <fix>3d</fix>
</trkpt>
<trkpt lat="-35.2750212" lon="148.986362">
  <ele>610.39</ele>
  <time>2026-09-01T20:00:31Z</time>
  <course>80.26</course>
  <speed>0.0</speed>
  <fix>3d</fix>
</trkpt>
<trkpt lat="-35.2750211" lon="148.9863619">
  <ele>609.89</ele>
  <time>2026-09-01T20:00:31Z</time>
  <course>342.31</course>
  <speed>0.01414213562373095</speed>
  <fix>3d</fix>
</trkpt>
<trkpt lat="-35.2750212" lon="148.986362">
  <ele>610.39</ele>
  <time>2026-09-01T20:00:31Z</time>
  <course>80.26</course>
  <speed>0.0</speed>
  <fix>3d</fix>
</trkpt>
<trkpt lat="-35.2750211" lon="148.9863619">
  <ele>609.74</ele>
  <time>2026-09-01T20:00:31Z</time>
  <course>342.3</course>
  <speed>0.01414213562373095</speed>
  <fix>3d</fix>
</trkpt>
<trkpt lat="-35.2750212" lon="148.986362">
  <ele>610.08</ele>
  <time>2026-09-01T20:00:31Z</time>
  <course>85.92</course>
  <speed>0.0</speed>
  <fix>3d</fix>
</trkpt>
<trkpt lat="-35.2750211" lon="148.9863619">
  <ele>609.58</ele>
  <time>2026-09-01T20:00:31Z</time>
  <course>342.29</course>
  <speed>0.01414213562373095</speed>
  <fix>3d</fix>
</trkpt>
<trkpt lat="-35.2750212" lon="148.986362">
  <ele>610.08</ele>
  <time>2026-09-01T20:00:31Z</time>
  <course>85.92</course>
  <speed>0.0</speed>
  <fix>3d</fix>
</trkpt>
<trkpt lat="-35.2750211" lon="148.9863619">
  <ele>609.43</ele>
  <time>2026-09-01T20:00:31Z</time>
  <course>342.29</course>
  <speed>0.01</speed>
  <fix>3d</fix>
</trkpt>
<trkpt lat="-35.2750212" lon="148.986362">
  <ele>609.79</ele>
  <time>2026-09-01T20:00:31Z</time>
  <course>89.57</course>
  <speed>0.0</speed>
  <fix>3d</fix>
</trkpt>
<trkpt lat="-35.2750211" lon="148.9863619">
  <ele>609.28</ele>
  <time>2026-09-01T20:00:31Z</time>
  <course>342.29</course>
  <speed>0.01</speed>
  <fix>3d</fix>
</trkpt>
<trkpt lat="-35.2750212" lon="148.986362">
  <ele>609.79</ele>
  <time>2026-09-01T20:00:31Z</time>
  <course>89.57</course>
  <speed>0.0</speed>
  <fix>3d</fix>
</trkpt>
<trkpt lat="-35.2750211" lon="148.9863619">
  <ele>609.13</ele>
  <time>2026-09-01T20:00:31Z</time>
  <course>342.27</course>
  <speed>0.01414213562373095</speed>
  <fix>3d</fix>
</trkpt>
<trkpt lat="-35.2750212" lon="148.986362">
  <ele>609.49</ele>
  <time>2026-09-01T20:00:31Z</time>
  <course>91.98</course>
  <speed>0.0</speed>
  <fix>3d</fix>
</trkpt>
<trkpt lat="-35.2750211" lon="148.9863619">
  <ele>608.98</ele>
  <time>2026-09-01T20:00:31Z</time>
  <course>342.26</course>
  <speed>0.01414213562373095</speed>
  <fix>3d</fix>
</trkpt>
<trkpt lat="-35.2750212" lon="148.986362">
  <ele>609.49</ele>
  <time>2026-09-01T20:00:31Z</time>
  <course>91.98</course>
  <speed>0.0</speed>
  <fix>3d</fix>
</trkpt>
<trkpt lat="-35.2750211" lon="148.9863619">
  <ele>608.84</ele>
  <time>2026-09-01T20:00:31Z</time>
  <course>342.25</course>
  <speed>0.01414213562373095</speed>
  <fix>3d</fix>
</trkpt>
<trkpt lat="-35.2750212" lon="148.986362">
  <ele>609.19</ele>
  <time>2026-09-01T20:00:31Z</time>
  <course>92.64</course>
  <speed>0.01</speed>
  <fix>3d</fix>
</trkpt>
<trkpt lat="-35.2750211" lon="148.9863619">
  <ele>608.69</ele>
  <time>2026-09-01T20:00:31Z</time>
  <course>342.23</course>
  <speed>0.01414213562373095</speed>
  <fix>3d</fix>
</trkpt>
<trkpt lat="-35.2750212" lon="148.986362">
  <ele>609.19</ele>
  <time>2026-09-01T20:00:31Z</time>
  <course>92.64</course>
  <speed>0.01</speed>
  <fix>3d</fix>
</trkpt>
<trkpt lat="-35.2750211" lon="148.9863619">
  <ele>608.54</ele>
  <time>2026-09-01T20:00:31Z</time>
  <course>342.22</course>
  <speed>0.01414213562373095</speed>
  <fix>3d</fix>
</trkpt>
<trkpt lat="-35.2750212" lon="148.986362">
  <ele>608.89</ele>
  <time>2026-09-01T20:00:31Z</time>
  <course>89.13</course>
  <speed>0.01</speed>
  <fix>3d</fix>
</trkpt>
<trkpt lat="-35.2750211" lon="148.9863619">
  <ele>608.39</ele>
  <time>2026-09-01T20:00:31Z</time>
  <course>342.2</course>
  <speed>0.01414213562373095</speed>
  <fix>3d</fix>
</trkpt>
<trkpt lat="-35.2750212" lon="148.986362">
  <ele>608.89</ele>
  <time>2026-09-01T20:00:31Z</time>
  <course>89.13</course>
  <speed>0.01</speed>
  <fix>3d</fix>
</trkpt>
<trkpt lat="-35.2750211" lon="148.9863619">
  <ele>608.24</ele>
  <time>2026-09-01T20:00:31Z</time>
  <course>342.17</course>
  <speed>0.01414213562373095</speed>
  <fix>3d</fix>
</trkpt>
<trkpt lat="-35.2750212" lon="148.9863621">
  <ele>608.6</ele>
  <time>2026-09-01T20:00:31Z</time>
  <course>83.18</course>
  <speed>0.01</speed>
  <fix>3d</fix>
</trkpt>
<trkpt lat="-35.2750211" lon="148.9863619">
  <ele>608.09</ele>
  <time>2026-09-01T20:00:31Z</time>
  <course>342.14</course>
  <speed>0.01414213562373095</speed>
  <fix>3d</fix>
</trkpt>
<trkpt lat="-35.2750212" lon="148.9863621">
  <ele>608.6</ele>
  <time>2026-09-01T20:00:31Z</time>
  <course>83.18</course>
  <speed>0.01</speed>
  <fix>3d</fix>
</trkpt>
<trkpt lat="-35.2750211" lon="148.9863619">
  <ele>607.94</ele>
  <time>2026-09-01T20:00:31Z</time>
  <course>342.11</course>
  <speed>0.01414213562373095</speed>
  <fix>3d</fix>
</trkpt>
<trkpt lat="-35.2750212" lon="148.9863622">
  <ele>608.3</ele>
  <time>2026-09-01T20:00:31Z</time>
  <course>79.1</course>
  <speed>0.01</speed>
  <fix>3d</fix>
</trkpt>
<trkpt lat="-35.2750211" lon="148.9863619">
  <ele>607.79</ele>
  <time>2026-09-01T20:00:31Z</time>
  <course>342.09</course>
  <speed>0.01414213562373095</speed>
  <fix>3d</fix>
</trkpt>
<trkpt lat="-35.2750212" lon="148.9863622">
  <ele>608.3</ele>
  <time>2026-09-01T20:00:31Z</time>
  <course>79.1</course>
  <speed>0.01</speed>
  <fix>3d</fix>
</trkpt>
<trkpt lat="-35.2750211" lon="148.9863619">
  <ele>607.65</ele>
  <time>2026-09-01T20:00:31Z</time>
  <course>342.08</course>
  <speed>0.01414213562373095</speed>
  <fix>3d</fix>
</trkpt>
<trkpt lat="-35.2750212" lon="148.9863622">
  <ele>608.0</ele>
  <time>2026-09-01T20:00:31Z</time>
  <course>77.12</course>
  <speed>0.01</speed>
  <fix>3d</fix>
</trkpt>
<trkpt lat="-35.2750211" lon="148.986362">
  <ele>607.5</ele>
  <time>2026-09-01T20:00:31Z</time>
  <course>342.07</course>
  <speed>0.01414213562373095</speed>
  <fix>3d</fix>
</trkpt>
<trkpt lat="-35.2750212" lon="148.9863622">
  <ele>608.0</ele>
  <time>2026-09-01T20:00:32Z</time>
  <course>77.12</course>
  <speed>0.01</speed>
  <fix>3d</fix>
</trkpt>
<trkpt lat="-35.2750211" lon="148.986362">
  <ele>607.35</ele>
  <time>2026-09-01T20:00:32Z</time>
  <course>342.07</course>
  <speed>0.01414213562373095</speed>
  <fix>3d</fix>
</trkpt>
<trkpt lat="-35.2750212" lon="148.9863622">
  <ele>607.69</ele>
  <time>2026-09-01T20:00:32Z</time>
  <course>77.72</course>
  <speed>0.01</speed>
  <fix>3d</fix>
</trkpt>
<trkpt lat="-35.2750211" lon="148.986362">
  <ele>607.2</ele>
  <time>2026-09-01T20:00:32Z</time>
  <course>342.06</course>
  <speed>0.01414213562373095</speed>
  <fix>3d</fix>
</trkpt>
<trkpt lat="-35.2750212" lon="148.9863622">
  <ele>607.69</ele>
  <time>2026-09-01T20:00:32Z</time>
  <course>77.72</course>
  <speed>0.01</speed>
  <fix>3d</fix>
</trkpt>
<trkpt lat="-35.2750211" lon="148.986362">
  <ele>607.05</ele>
  <time>2026-09-01T20:00:32Z</time>
  <course>342.04</course>
  <speed>0.01414213562373095</speed>
  <fix>3d</fix>
</trkpt>
<trkpt lat="-35.2750212" lon="148.9863622">
  <ele>607.69</ele>
  <time>2026-09-01T20:00:32Z</time>
  <course>77.72</course>
  <speed>0.01</speed>
  <fix>3d</fix>
</trkpt>
<trkpt lat="-35.2750211" lon="148.986362">
  <ele>606.9</ele>
  <time>2026-09-01T20:00:32Z</time>
  <course>342.02</course>
  <speed>0.01414213562373095</speed>
  <fix>3d</fix>
</trkpt>
<trkpt lat="-35.2750212" lon="148.9863622">
  <ele>607.4</ele>
  <time>2026-09-01T20:00:32Z</time>
  <course>77.81</course>
  <speed>0.01</speed>
  <fix>3d</fix>
</trkpt>
<trkpt lat="-35.2750211" lon="148.986362">
  <ele>606.75</ele>
  <time>2026-09-01T20:00:32Z</time>
  <course>342.01</course>
  <speed>0.01414213562373095</speed>
  <fix>3d</fix>
</trkpt>
<trkpt lat="-35.2750212" lon="148.9863623">
  <ele>607.1</ele>
  <time>2026-09-01T20:00:32Z</time>
  <course>76.04</course>
  <speed>0.01</speed>
  <fix>3d</fix>
</trkpt>
<trkpt lat="-35.2750211" lon="148.986362">
  <ele>606.6</ele>
  <time>2026-09-01T20:00:32Z</time>
  <course>341.99</course>
  <speed>0.01414213562373095</speed>
  <fix>3d</fix>
</trkpt>
<trkpt lat="-35.2750212" lon="148.9863623">
  <ele>607.1</ele>
  <time>2026-09-01T20:00:32Z</time>
  <course>76.04</course>
  <speed>0.01</speed>
  <fix>3d</fix>
</trkpt>
<trkpt lat="-35.2750211" lon="148.986362">
  <ele>606.45</ele>
  <time>2026-09-01T20:00:32Z</time>
  <course>341.96</course>
  <speed>0.022360679774997897</speed>
  <fix>3d</fix>
</trkpt>
<trkpt lat="-35.2750212" lon="148.9863623">
  <ele>606.79</ele>
  <time>2026-09-01T20:00:32Z</time>
  <course>75.1</course>
  <speed>0.01</speed>
  <fix>3d</fix>
</trkpt>
<trkpt lat="-35.2750211" lon="148.986362">
  <ele>606.3</ele>
  <time>2026-09-01T20:00:32Z</time>
  <course>341.94</course>
  <speed>0.01414213562373095</speed>
  <fix>3d</fix>
</trkpt>
<trkpt lat="-35.2750212" lon="148.9863623">
  <ele>606.79</ele>
  <time>2026-09-01T20:00:32Z</time>
  <course>75.1</course>
  <speed>0.01</speed>
  <fix>3d</fix>
</trkpt>
<trkpt lat="-35.2750211" lon="148.986362">
  <ele>606.15</ele>
  <time>2026-09-01T20:00:32Z</time>
  <course>341.94</course>
  <speed>0.022360679774997897</speed>
  <fix>3d</fix>
</trkpt>
<trkpt lat="-35.2750212" lon="148.9863623">
  <ele>606.49</ele>
  <time>2026-09-01T20:00:32Z</time>
  <course>73.91</course>
  <speed>0.01</speed>
  <fix>3d</fix>
</trkpt>
<trkpt lat="-35.2750211" lon="148.9863621">
  <ele>606.0</ele>
  <time>2026-09-01T20:00:32Z</time>
  <course>341.95</course>
  <speed>0.01414213562373095</speed>
  <fix>3d</fix>
</trkpt>
<trkpt lat="-35.2750212" lon="148.9863623">
  <ele>606.49</ele>
  <time>2026-09-01T20:00:32Z</time>
  <course>73.91</course>
  <speed>0.01</speed>
  <fix>3d</fix>
</trkpt>
<trkpt lat="-35.2750211" lon="148.9863621">
  <ele>605.85</ele>
  <time>2026-09-01T20:00:32Z</time>
  <course>341.96</course>
  <speed>0.01414213562373095</speed>
  <fix>3d</fix>
</trkpt>
<trkpt lat="-35.2750212" lon="148.9863624">
  <ele>606.19</ele>
  <time>2026-09-01T20:00:32Z</time>
  <course>71.36</course>
  <speed>0.01</speed>
  <fix>3d</fix>
</trkpt>
<trkpt lat="-35.2750211" lon="148.9863621">
  <ele>605.69</ele>
  <time>2026-09-01T20:00:32Z</time>
  <course>341.96</course>
  <speed>0.01414213562373095</speed>
  <fix>3d</fix>
</trkpt>
<trkpt lat="-35.2750212" lon="148.9863624">
  <ele>606.19</ele>
  <time>2026-09-01T20:00:32Z</time>
  <course>71.36</course>
  <speed>0.01</speed>
  <fix>3d</fix>
</trkpt>
<trkpt lat="-35.2750211" lon="148.9863621">
  <ele>605.54</ele>
  <time>2026-09-01T20:00:32Z</time>
  <course>341.94</course>
  <speed>0.01414213562373095</speed>
  <fix>3d</fix>
</trkpt>
<trkpt lat="-35.2750212" lon="148.9863624">
  <ele>605.89</ele>
  <time>2026-09-01T20:00:32Z</time>
  <course>69.15</course>
  <speed>0.01</speed>
  <fix>3d</fix>
</trkpt>
<trkpt lat="-35.2750211" lon="148.9863621">
  <ele>605.39</ele>
  <time>2026-09-01T20:00:32Z</time>
  <course>341.91</course>
  <speed>0.01414213562373095</speed>
  <fix>3d</fix>
</trkpt>
<trkpt lat="-35.2750212" lon="148.9863624">
  <ele>605.89</ele>
  <time>2026-09-01T20:00:32Z</time>
  <course>69.15</course>
  <speed>0.01</speed>
  <fix>3d</fix>
</trkpt>
<trkpt lat="-35.2750211" lon="148.9863621">
  <ele>605.24</ele>
  <time>2026-09-01T20:00:32Z</time>
  <course>341.87</course>
  <speed>0.01414213562373095</speed>
  <fix>3d</fix>
</trkpt>
<trkpt lat="-35.2750211" lon="148.9863624">
  <ele>605.58</ele>
  <time>2026-09-01T20:00:32Z</time>
  <course>67.78</course>
  <speed>0.02</speed>
  <fix>3d</fix>
</trkpt>
<trkpt lat="-35.2750211" lon="148.9863621">
  <ele>605.08</ele>
  <time>2026-09-01T20:00:32Z</time>
  <course>341.83</course>
  <speed>0.01414213562373095</speed>
  <fix>3d</fix>
</trkpt>
<trkpt lat="-35.2750211" lon="148.9863624">
  <ele>605.58</ele>
  <time>2026-09-01T20:00:32Z</time>
  <course>67.78</course>
  <speed>0.02</speed>
  <fix>3d</fix>
</trkpt>
<trkpt lat="-35.2750211" lon="148.9863621">
  <ele>604.93</ele>
  <time>2026-09-01T20:00:32Z</time>
  <course>341.8</course>
  <speed>0.01</speed>
  <fix>3d</fix>
</trkpt>
<trkpt lat="-35.275021" lon="148.9863624">
  <ele>605.29</ele>
  <time>2026-09-01T20:00:32Z</time>
  <course>67.43</course>
  <speed>0.02</speed>
  <fix>3d</fix>
</trkpt>
<trkpt lat="-35.2750211" lon="148.9863622">
  <ele>604.78</ele>
  <time>2026-09-01T20:00:32Z</time>
  <course>341.76</course>
  <speed>0.01</speed>
  <fix>3d</fix>
</trkpt>
<trkpt lat="-35.275021" lon="148.9863624">
  <ele>605.29</ele>
  <time>2026-09-01T20:00:32Z</time>
  <course>67.43</course>
  <speed>0.02</speed>
  <fix>3d</fix>
</trkpt>
<trkpt lat="-35.2750211" lon="148.9863622">
  <ele>604.63</ele>
  <time>2026-09-01T20:00:32Z</time>
  <course>341.72</course>
  <speed>0.02</speed>
  <fix>3d</fix>
</trkpt>
<trkpt lat="-35.275021" lon="148.9863625">
  <ele>604.99</ele>
  <time>2026-09-01T20:00:32Z</time>
  <course>67.95</course>
  <speed>0.02</speed>
  <fix>3d</fix>
</trkpt>
<trkpt lat="-35.275021" lon="148.9863622">
  <ele>604.48</ele>
  <time>2026-09-01T20:00:32Z</time>
  <course>341.69</course>
  <speed>0.02</speed>
  <fix>3d</fix>
</trkpt>
<trkpt lat="-35.275021" lon="148.9863625">
  <ele>604.99</ele>
  <time>2026-09-01T20:00:32Z</time>
  <course>67.95</course>
  <speed>0.02</speed>
  <fix>3d</fix>
</trkpt>
<trkpt lat="-35.275021" lon="148.9863622">
  <ele>604.34</ele>
  <time>2026-09-01T20:00:32Z</time>
  <course>341.66</course>
  <speed>0.02</speed>
  <fix>3d</fix>
</trkpt>
<trkpt lat="-35.275021" lon="148.9863626">
  <ele>604.69</ele>
  <time>2026-09-01T20:00:32Z</time>
  <course>68.29</course>
  <speed>0.02</speed>
  <fix>3d</fix>
</trkpt>
<trkpt lat="-35.275021" lon="148.9863623">
  <ele>604.19</ele>
  <time>2026-09-01T20:00:32Z</time>
  <course>341.64</course>
  <speed>0.02</speed>
  <fix>3d</fix>
</trkpt>
<trkpt lat="-35.275021" lon="148.9863626">
  <ele>604.69</ele>
  <time>2026-09-01T20:00:32Z</time>
  <course>68.29</course>
  <speed>0.02</speed>
  <fix>3d</fix>
</trkpt>
<trkpt lat="-35.275021" lon="148.9863623">
  <ele>604.04</ele>
  <time>2026-09-01T20:00:32Z</time>
  <course>341.62</course>
  <speed>0.02</speed>
  <fix>3d</fix>
</trkpt>
<trkpt lat="-35.275021" lon="148.9863626">
  <ele>604.39</ele>
  <time>2026-09-01T20:00:32Z</time>
  <course>68.18</course>
  <speed>0.02</speed>
  <fix>3d</fix>
</trkpt>
<trkpt lat="-35.275021" lon="148.9863623">
  <ele>603.9</ele>
  <time>2026-09-01T20:00:32Z</time>
  <course>341.6</course>
  <speed>0.02</speed>
  <fix>3d</fix>
</trkpt>
<trkpt lat="-35.275021" lon="148.9863626">
  <ele>604.39</ele>
  <time>2026-09-01T20:00:32Z</time>
  <course>68.18</course>
  <speed>0.02</speed>
  <fix>3d</fix>
</trkpt>
<trkpt lat="-35.275021" lon="148.9863623">
  <ele>603.75</ele>
  <time>2026-09-01T20:00:32Z</time>
  <course>341.56</course>
  <speed>0.02</speed>
  <fix>3d</fix>
</trkpt>
<trkpt lat="-35.275021" lon="148.9863626">
  <ele>604.39</ele>
  <time>2026-09-01T20:00:32Z</time>
  <course>68.18</course>
  <speed>0.02</speed>
  <fix>3d</fix>
</trkpt>
<trkpt lat="-35.275021" lon="148.9863624">
  <ele>603.6</ele>
  <time>2026-09-01T20:00:32Z</time>
  <course>341.5</course>
  <speed>0.02</speed>
  <fix>3d</fix>
</trkpt>
<trkpt lat="-35.275021" lon="148.9863627">
  <ele>604.08</ele>
  <time>2026-09-01T20:00:32Z</time>
  <course>68.18</course>
  <speed>0.02</speed>
  <fix>3d</fix>
</trkpt>
<trkpt lat="-35.2750209" lon="148.9863624">
  <ele>603.45</ele>
  <time>2026-09-01T20:00:32Z</time>
  <course>341.45</course>
  <speed>0.02</speed>
  <fix>3d</fix>
</trkpt>
<trkpt lat="-35.275021" lon="148.9863627">
  <ele>604.08</ele>
  <time>2026-09-01T20:00:32Z</time>
  <course>68.18</course>
  <speed>0.02</speed>
  <fix>3d</fix>
</trkpt>
<trkpt lat="-35.2750209" lon="148.9863625">
  <ele>603.3</ele>
  <time>2026-09-01T20:00:32Z</time>
  <course>341.38</course>
  <speed>0.02</speed>
  <fix>3d</fix>
</trkpt>
<trkpt lat="-35.275021" lon="148.9863628">
  <ele>603.79</ele>
  <time>2026-09-01T20:00:32Z</time>
  <course>68.27</course>
  <speed>0.03</speed>
  <fix>3d</fix>
</trkpt>
<trkpt lat="-35.2750209" lon="148.9863625">
  <ele>603.15</ele>
  <time>2026-09-01T20:00:32Z</time>
  <course>341.32</course>
  <speed>0.02</speed>
  <fix>3d</fix>
</trkpt>
<trkpt lat="-35.275021" lon="148.9863628">
  <ele>603.79</ele>
  <time>2026-09-01T20:00:32Z</time>
  <course>68.27</course>
  <speed>0.03</speed>
  <fix>3d</fix>
</trkpt>
<trkpt lat="-35.2750209" lon="148.9863625">
  <ele>603.0</ele>
  <time>2026-09-01T20:00:32Z</time>
  <course>341.27</course>
  <speed>0.02</speed>
  <fix>3d</fix>
</trkpt>
<trkpt lat="-35.2750209" lon="148.9863628">
  <ele>603.49</ele>
  <time>2026-09-01T20:00:32Z</time>
  <course>68.48</course>
  <speed>0.03</speed>
  <fix>3d</fix>
</trkpt>
<trkpt lat="-35.2750209" lon="148.9863626">
  <ele>602.85</ele>
  <time>2026-09-01T20:00:32Z</time>
  <course>341.24</course>
  <speed>0.02</speed>
  <fix>3d</fix>
</trkpt>
<trkpt lat="-35.2750209" lon="148.9863628">
  <ele>603.49</ele>
  <time>2026-09-01T20:00:32Z</time>
  <course>68.48</course>
  <speed>0.03</speed>
  <fix>3d</fix>
</trkpt>
<trkpt lat="-35.2750209" lon="148.9863626">
  <ele>602.7</ele>
  <time>2026-09-01T20:00:32Z</time>
  <course>341.2</course>
  <speed>0.02</speed>
  <fix>3d</fix>
</trkpt>
<trkpt lat="-35.2750209" lon="148.9863629">
  <ele>603.19</ele>
  <time>2026-09-01T20:00:32Z</time>
  <course>68.48</course>
  <speed>0.03</speed>
  <fix>3d</fix>
</trkpt>
<trkpt lat="-35.2750208" lon="148.9863626">
  <ele>602.56</ele>
  <time>2026-09-01T20:00:32Z</time>
  <course>341.16</course>
  <speed>0.02</speed>
  <fix>3d</fix>
</trkpt>
<trkpt lat="-35.2750209" lon="148.9863629">
  <ele>602.89</ele>
  <time>2026-09-01T20:00:32Z</time>
  <course>68.34</course>
  <speed>0.03</speed>
  <fix>3d</fix>
</trkpt>
<trkpt lat="-35.2750208" lon="148.9863627">
  <ele>602.4</ele>
  <time>2026-09-01T20:00:32Z</time>
  <course>341.12</course>
  <speed>0.02</speed>
  <fix>3d</fix>
</trkpt>
<trkpt lat="-35.2750209" lon="148.9863629">
  <ele>602.89</ele>
  <time>2026-09-01T20:00:32Z</time>
  <course>68.34</course>
  <speed>0.03</speed>
  <fix>3d</fix>
</trkpt>
<trkpt lat="-35.2750208" lon="148.9863627">
  <ele>602.25</ele>
  <time>2026-09-01T20:00:32Z</time>
  <course>341.07</course>
  <speed>0.02</speed>
  <fix>3d</fix>
</trkpt>
<trkpt lat="-35.2750209" lon="148.986363">
  <ele>602.58</ele>
  <time>2026-09-01T20:00:32Z</time>
  <course>68.46</course>
  <speed>0.03</speed>
  <fix>3d</fix>
</trkpt>
<trkpt lat="-35.2750208" lon="148.9863628">
  <ele>602.1</ele>
  <time>2026-09-01T20:00:32Z</time>
  <course>341.03</course>
  <speed>0.02</speed>
  <fix>3d</fix>
</trkpt>
<trkpt lat="-35.2750209" lon="148.986363">
  <ele>602.58</ele>
  <time>2026-09-01T20:00:32Z</time>
  <course>68.46</course>
  <speed>0.03</speed>
  <fix>3d</fix>
</trkpt>
<trkpt lat="-35.2750208" lon="148.9863628">
  <ele>601.95</ele>
  <time>2026-09-01T20:00:32Z</time>
  <course>340.98</course>
  <speed>0.02</speed>
  <fix>3d</fix>
</trkpt>
<trkpt lat="-35.2750209" lon="148.9863631">
  <ele>602.28</ele>
  <time>2026-09-01T20:00:32Z</time>
  <course>68.22</course>
  <speed>0.04</speed>
  <fix>3d</fix>
</trkpt>
<trkpt lat="-35.2750208" lon="148.9863628">
  <ele>601.8</ele>
  <time>2026-09-01T20:00:32Z</time>
  <course>340.93</course>
  <speed>0.02</speed>
  <fix>3d</fix>
</trkpt>
<trkpt lat="-35.2750209" lon="148.9863631">
  <ele>602.28</ele>
  <time>2026-09-01T20:00:32Z</time>
  <course>68.22</course>
  <speed>0.04</speed>
  <fix>3d</fix>
</trkpt>
<trkpt lat="-35.2750208" lon="148.9863629">
  <ele>601.64</ele>
  <time>2026-09-01T20:00:32Z</time>
  <course>340.88</course>
  <speed>0.02</speed>
  <fix>3d</fix>
</trkpt>
<trkpt lat="-35.2750209" lon="148.9863632">
  <ele>601.98</ele>
  <time>2026-09-01T20:00:32Z</time>
  <course>67.76</course>
  <speed>0.04</speed>
  <fix>3d</fix>
</trkpt>
<trkpt lat="-35.2750208" lon="148.9863629">
  <ele>601.49</ele>
  <time>2026-09-01T20:00:32Z</time>
  <course>340.83</course>
  <speed>0.022360679774997897</speed>
  <fix>3d</fix>
</trkpt>
<trkpt lat="-35.2750209" lon="148.9863632">
  <ele>601.98</ele>
  <time>2026-09-01T20:00:32Z</time>
  <course>67.76</course>
  <speed>0.04</speed>
  <fix>3d</fix>
</trkpt>
<trkpt lat="-35.2750207" lon="148.986363">
  <ele>601.34</ele>
  <time>2026-09-01T20:00:32Z</time>
  <course>340.78</course>
  <speed>0.0316227766016838</speed>
  <fix>3d</fix>
</trkpt>
<trkpt lat="-35.2750209" lon="148.9863633">
  <ele>601.67</ele>
  <time>2026-09-01T20:00:32Z</time>
  <course>67.55</course>
  <speed>0.04</speed>
  <fix>3d</fix>
</trkpt>
<trkpt lat="-35.2750207" lon="148.986363">
  <ele>601.2</ele>
  <time>2026-09-01T20:00:32Z</time>
  <course>340.72</course>
  <speed>0.0316227766016838</speed>
  <fix>3d</fix>
</trkpt>
<trkpt lat="-35.2750209" lon="148.9863633">
  <ele>601.67</ele>
  <time>2026-09-01T20:00:32Z</time>
  <course>67.55</course>
  <speed>0.04</speed>
  <fix>3d</fix>
</trkpt>
<trkpt lat="-35.2750207" lon="148.9863631">
  <ele>601.04</ele>
  <time>2026-09-01T20:00:32Z</time>
  <course>340.67</course>
  <speed>0.0316227766016838</speed>
  <fix>3d</fix>
</trkpt>
<trkpt lat="-35.2750208" lon="148.9863634">
  <ele>601.37</ele>
  <time>2026-09-01T20:00:32Z</time>
  <course>67.24</course>
  <speed>0.04</speed>
  <fix>3d</fix>
</trkpt>
<trkpt lat="-35.2750207" lon="148.9863631">
  <ele>600.89</ele>
  <time>2026-09-01T20:00:32Z</time>
  <course>340.6</course>
  <speed>0.0316227766016838</speed>
  <fix>3d</fix>
</trkpt>
<trkpt lat="-35.2750208" lon="148.9863634">
  <ele>601.37</ele>
  <time>2026-09-01T20:00:32Z</time>
  <course>67.24</course>
  <speed>0.04</speed>
  <fix>3d</fix>
</trkpt>
<trkpt lat="-35.2750207" lon="148.9863632">
  <ele>600.74</ele>
  <time>2026-09-01T20:00:32Z</time>
  <course>340.54</course>
  <speed>0.0316227766016838</speed>
  <fix>3d</fix>
</trkpt>
<trkpt lat="-35.2750208" lon="148.9863634">
  <ele>601.37</ele>
  <time>2026-09-01T20:00:32Z</time>
  <course>67.24</course>
  <speed>0.04</speed>
  <fix>3d</fix>
</trkpt>
<trkpt lat="-35.2750207" lon="148.9863632">
  <ele>600.59</ele>
  <time>2026-09-01T20:00:32Z</time>
  <course>340.47</course>
  <speed>0.0316227766016838</speed>
  <fix>3d</fix>
</trkpt>
<trkpt lat="-35.2750208" lon="148.9863635">
  <ele>601.06</ele>
  <time>2026-09-01T20:00:32Z</time>
  <course>66.56</course>
  <speed>0.04</speed>
  <fix>3d</fix>
</trkpt>
<trkpt lat="-35.2750207" lon="148.9863633">
  <ele>600.44</ele>
  <time>2026-09-01T20:00:32Z</time>
  <course>340.39</course>
  <speed>0.0316227766016838</speed>
  <fix>3d</fix>
</trkpt>
<trkpt lat="-35.2750208" lon="148.9863635">
  <ele>601.06</ele>
  <time>2026-09-01T20:00:32Z</time>
  <course>66.56</course>
  <speed>0.04</speed>
  <fix>3d</fix>
</trkpt>
<trkpt lat="-35.2750206" lon="148.9863633">
  <ele>600.28</ele>
  <time>2026-09-01T20:00:32Z</time>
  <course>340.32</course>
  <speed>0.0316227766016838</speed>
  <fix>3d</fix>
</trkpt>
<trkpt lat="-35.2750208" lon="148.9863636">
  <ele>600.77</ele>
  <time>2026-09-01T20:00:32Z</time>
  <course>65.57</course>
  <speed>0.05</speed>
  <fix>3d</fix>
</trkpt>
<trkpt lat="-35.2750206" lon="148.9863634">
  <ele>600.13</ele>
  <time>2026-09-01T20:00:32Z</time>
  <course>340.3</course>
  <speed>0.0316227766016838</speed>
  <fix>3d</fix>
</trkpt>
<trkpt lat="-35.2750208" lon="148.9863636">
  <ele>600.77</ele>
  <time>2026-09-01T20:00:32Z</time>
  <course>65.57</course>
  <speed>0.05</speed>
  <fix>3d</fix>
</trkpt>
<trkpt lat="-35.2750206" lon="148.9863634">
  <ele>599.98</ele>
  <time>2026-09-01T20:00:32Z</time>
  <course>340.48</course>
  <speed>0.02</speed>
  <fix>3d</fix>
</trkpt>
<trkpt lat="-35.2750207" lon="148.9863637">
  <ele>600.47</ele>
  <time>2026-09-01T20:00:32Z</time>
  <course>63.93</course>
  <speed>0.04</speed>
  <fix>3d</fix>
</trkpt>
<trkpt lat="-35.2750206" lon="148.9863634">
  <ele>599.83</ele>
  <time>2026-09-01T20:00:32Z</time>
  <course>340.84</course>
  <speed>0.022360679774997897</speed>
  <fix>3d</fix>
</trkpt>
<trkpt lat="-35.2750207" lon="148.9863637">
  <ele>600.47</ele>
  <time>2026-09-01T20:00:32Z</time>
  <course>63.93</course>
  <speed>0.04</speed>
  <fix>3d</fix>
</trkpt>
<trkpt lat="-35.2750206" lon="148.9863634">
  <ele>599.68</ele>
  <time>2026-09-01T20:00:32Z</time>
  <course>341.29</course>
  <speed>0.0316227766016838</speed>
  <fix>3d</fix>
</trkpt>
<trkpt lat="-35.2750207" lon="148.9863638">
  <ele>600.17</ele>
  <time>2026-09-01T20:00:32Z</time>
  <course>57.11</course>
  <speed>0.02</speed>
  <fix>3d</fix>
</trkpt>
<trkpt lat="-35.2750206" lon="148.9863634">
  <ele>599.53</ele>
  <time>2026-09-01T20:00:32Z</time>
  <course>341.76</course>
  <speed>0.05</speed>
  <fix>3d</fix>
</trkpt>
<trkpt lat="-35.2750207" lon="148.9863638">
  <ele>600.17</ele>
  <time>2026-09-01T20:00:32Z</time>
  <course>57.11</course>
  <speed>0.02</speed>
  <fix>3d</fix>
</trkpt>
<trkpt lat="-35.2750206" lon="148.9863634">
  <ele>599.38</ele>
  <time>2026-09-01T20:00:32Z</time>
  <course>342.18</course>
  <speed>0.06</speed>
  <fix>3d</fix>
</trkpt>
<trkpt lat="-35.2750207" lon="148.9863638">
  <ele>599.87</ele>
  <time>2026-09-01T20:00:32Z</time>
  <course>306.76</course>
  <speed>0.0</speed>
  <fix>3d</fix>
</trkpt>
<trkpt lat="-35.2750206" lon="148.9863634">
  <ele>599.23</ele>
  <time>2026-09-01T20:00:32Z</time>
  <course>342.48</course>
  <speed>0.07</speed>
  <fix>3d</fix>
</trkpt>
<trkpt lat="-35.2750207" lon="148.9863638">
  <ele>599.87</ele>
  <time>2026-09-01T20:00:32Z</time>
  <course>306.76</course>
  <speed>0.0</speed>
  <fix>3d</fix>
</trkpt>
<trkpt lat="-35.2750206" lon="148.9863634">
  <ele>599.08</ele>
  <time>2026-09-01T20:00:32Z</time>
  <course>342.66</course>
  <speed>0.09</speed>
  <fix>3d</fix>
</trkpt>
<trkpt lat="-35.2750207" lon="148.9863637">
  <ele>599.56</ele>
  <time>2026-09-01T20:00:32Z</time>
  <course>261.15</course>
  <speed>0.03</speed>
  <fix>3d</fix>
</trkpt>
<trkpt lat="-35.2750207" lon="148.9863633">
  <ele>598.93</ele>
  <time>2026-09-01T20:00:32Z</time>
  <course>342.73</course>
  <speed>0.1004987562112089</speed>
  <fix>3d</fix>
</trkpt>
<trkpt lat="-35.2750207" lon="148.9863637">
  <ele>599.56</ele>
  <time>2026-09-01T20:00:32Z</time>
  <course>261.15</course>
  <speed>0.03</speed>
  <fix>3d</fix>
</trkpt>
<trkpt lat="-35.2750207" lon="148.9863632">
  <ele>598.78</ele>
  <time>2026-09-01T20:00:32Z</time>
  <course>342.7</course>
  <speed>0.11045361017187261</speed>
  <fix>3d</fix>
</trkpt>
<trkpt lat="-35.2750207" lon="148.9863637">
  <ele>599.27</ele>
  <time>2026-09-01T20:00:32Z</time>
  <course>255.16</course>
  <speed>0.06</speed>
  <fix>3d</fix>
</trkpt>
<trkpt lat="-35.2750207" lon="148.9863631">
  <ele>598.64</ele>
  <time>2026-09-01T20:00:32Z</time>
  <course>342.61</course>
  <speed>0.12165525060596438</speed>
  <fix>3d</fix>
</trkpt>
<trkpt lat="-35.2750207" lon="148.9863637">
  <ele>599.27</ele>
  <time>2026-09-01T20:00:32Z</time>
  <course>255.16</course>
  <speed>0.06</speed>
  <fix>3d</fix>
</trkpt>
<trkpt lat="-35.2750207" lon="148.986363">
  <ele>598.49</ele>
  <time>2026-09-01T20:00:32Z</time>
  <course>342.5</course>
  <speed>0.12165525060596438</speed>
  <fix>3d</fix>
</trkpt>
<trkpt lat="-35.2750207" lon="148.9863636">
  <ele>598.97</ele>
  <time>2026-09-01T20:00:32Z</time>
  <course>252.55</course>
  <speed>0.09</speed>
  <fix>3d</fix>
</trkpt>
<trkpt lat="-35.2750207" lon="148.9863629">
  <ele>598.34</ele>
  <time>2026-09-01T20:00:32Z</time>
  <course>342.39</course>
  <speed>0.13152946437965907</speed>
  <fix>3d</fix>
</trkpt>
<trkpt lat="-35.2750207" lon="148.9863633">
  <ele>598.67</ele>
  <time>2026-09-01T20:00:32Z</time>
  <course>251.27</course>
  <speed>0.11</speed>
  <fix>3d</fix>
</trkpt>
<trkpt lat="-35.2750207" lon="148.9863628">
  <ele>598.2</ele>
  <time>2026-09-01T20:00:32Z</time>
  <course>342.29</course>
  <speed>0.14317821063276354</speed>
  <fix>3d</fix>
</trkpt>
<trkpt lat="-35.2750207" lon="148.9863633">
  <ele>598.67</ele>
  <time>2026-09-01T20:00:32Z</time>
  <course>251.27</course>
  <speed>0.11</speed>
  <fix>3d</fix>
</trkpt>
<trkpt lat="-35.2750208" lon="148.9863627">
  <ele>598.05</ele>
  <time>2026-09-01T20:00:32Z</time>
  <course>342.22</course>
  <speed>0.14317821063276354</speed>
  <fix>3d</fix>
</trkpt>
<trkpt lat="-35.2750207" lon="148.9863631">
  <ele>598.38</ele>
  <time>2026-09-01T20:00:32Z</time>
  <course>250.58</course>
  <speed>0.12</speed>
  <fix>3d</fix>
</trkpt>
<trkpt lat="-35.2750208" lon="148.9863626">
  <ele>597.9</ele>
  <time>2026-09-01T20:00:32Z</time>
  <course>342.18</course>
  <speed>0.15297058540778355</speed>
  <fix>3d</fix>
</trkpt>
<trkpt lat="-35.2750207" lon="148.9863631">
  <ele>598.38</ele>
  <time>2026-09-01T20:00:32Z</time>
  <course>250.58</course>
  <speed>0.12</speed>
  <fix>3d</fix>
</trkpt>
<trkpt lat="-35.2750208" lon="148.9863624">
  <ele>597.75</ele>
  <time>2026-09-01T20:00:32Z</time>
  <course>342.18</course>
  <speed>0.15297058540778355</speed>
  <fix>3d</fix>
</trkpt>
<trkpt lat="-35.2750207" lon="148.9863631">
  <ele>598.38</ele>
  <time>2026-09-01T20:00:32Z</time>
  <course>250.58</course>
  <speed>0.12</speed>
  <fix>3d</fix>
</trkpt>
<trkpt lat="-35.2750209" lon="148.9863623">
  <ele>597.6</ele>
  <time>2026-09-01T20:00:32Z</time>
  <course>342.19</course>
  <speed>0.1649242250247064</speed>
  <fix>3d</fix>
</trkpt>
<trkpt lat="-35.2750208" lon="148.9863628">
  <ele>598.07</ele>
  <time>2026-09-01T20:00:32Z</time>
  <course>250.11</course>
  <speed>0.14</speed>
  <fix>3d</fix>
</trkpt>
<trkpt lat="-35.2750209" lon="148.9863621">
  <ele>597.45</ele>
  <time>2026-09-01T20:00:32Z</time>
  <course>342.23</course>
  <speed>0.1649242250247064</speed>
  <fix>3d</fix>
</trkpt>
<trkpt lat="-35.2750208" lon="148.9863628">
  <ele>598.07</ele>
  <time>2026-09-01T20:00:32Z</time>
  <course>250.11</course>
  <speed>0.14</speed>
  <fix>3d</fix>
</trkpt>
<trkpt lat="-35.2750209" lon="148.986362">
  <ele>597.3</ele>
  <time>2026-09-01T20:00:32Z</time>
  <course>342.26</course>
  <speed>0.1649242250247064</speed>
  <fix>3d</fix>
</trkpt>
<trkpt lat="-35.2750209" lon="148.9863625">
  <ele>597.77</ele>
  <time>2026-09-01T20:00:32Z</time>
  <course>249.82</course>
  <speed>0.15</speed>
  <fix>3d</fix>
</trkpt>
<trkpt lat="-35.275021" lon="148.9863618">
  <ele>597.15</ele>
  <time>2026-09-01T20:00:32Z</time>
  <course>342.29</course>
  <speed>0.1649242250247064</speed>
  <fix>3d</fix>
</trkpt>
<trkpt lat="-35.2750209" lon="148.9863625">
  <ele>597.77</ele>
  <time>2026-09-01T20:00:32Z</time>
  <course>249.82</course>
  <speed>0.15</speed>
  <fix>3d</fix>
</trkpt>
<trkpt lat="-35.275021" lon="148.9863616">
  <ele>596.99</ele>
  <time>2026-09-01T20:00:32Z</time>
  <course>342.32</course>
  <speed>0.1649242250247064</speed>
  <fix>3d</fix>
</trkpt>
<trkpt lat="-35.275021" lon="148.9863621">
  <ele>597.47</ele>
  <time>2026-09-01T20:00:32Z</time>
  <course>249.6</course>
  <speed>0.15</speed>
  <fix>3d</fix>
</trkpt>
<trkpt lat="-35.2750211" lon="148.9863615">
  <ele>596.84</ele>
  <time>2026-09-01T20:00:32Z</time>
  <course>342.34</course>
  <speed>0.1649242250247064</speed>
  <fix>3d</fix>
</trkpt>
<trkpt lat="-35.275021" lon="148.9863621">
  <ele>597.47</ele>
  <time>2026-09-01T20:00:32Z</time>
  <course>249.6</course>
  <speed>0.15</speed>
  <fix>3d</fix>
</trkpt>
<trkpt lat="-35.2750211" lon="148.9863613">
  <ele>596.69</ele>
  <time>2026-09-01T20:00:32Z</time>
  <course>342.36</course>
  <speed>0.1649242250247064</speed>
  <fix>3d</fix>
</trkpt>
<trkpt lat="-35.2750211" lon="148.9863618">
  <ele>597.17</ele>
  <time>2026-09-01T20:00:32Z</time>
  <course>249.22</course>
  <speed>0.16</speed>
  <fix>3d</fix>
</trkpt>
<trkpt lat="-35.2750211" lon="148.9863612">
  <ele>596.54</ele>
  <time>2026-09-01T20:00:32Z</time>
  <course>342.37</course>
  <speed>0.1649242250247064</speed>
  <fix>3d</fix>
</trkpt>
<trkpt lat="-35.2750211" lon="148.9863618">
  <ele>597.17</ele>
  <time>2026-09-01T20:00:32Z</time>
  <course>249.22</course>
  <speed>0.16</speed>
  <fix>3d</fix>
</trkpt>
<trkpt lat="-35.2750212" lon="148.986361">
  <ele>596.39</ele>
  <time>2026-09-01T20:00:32Z</time>
  <course>342.38</course>
  <speed>0.1649242250247064</speed>
  <fix>3d</fix>
</trkpt>
<trkpt lat="-35.2750212" lon="148.9863615">
  <ele>596.87</ele>
  <time>2026-09-01T20:00:32Z</time>
  <course>248.74</course>
  <speed>0.15</speed>
  <fix>3d</fix>
</trkpt>
<trkpt lat="-35.2750212" lon="148.9863609">
  <ele>596.24</ele>
  <time>2026-09-01T20:00:32Z</time>
  <course>342.39</course>
  <speed>0.15524174696260024</speed>
  <fix>3d</fix>
</trkpt>
<trkpt lat="-35.2750212" lon="148.9863615">
  <ele>596.87</ele>
  <time>2026-09-01T20:00:32Z</time>
  <course>248.74</course>
  <speed>0.15</speed>
  <fix>3d</fix>
</trkpt>
<trkpt lat="-35.2750213" lon="148.9863607">
  <ele>596.09</ele>
  <time>2026-09-01T20:00:32Z</time>
  <course>342.39</course>
  <speed>0.15297058540778355</speed>
  <fix>3d</fix>
</trkpt>
<trkpt lat="-35.2750213" lon="148.9863612">
  <ele>596.56</ele>
  <time>2026-09-01T20:00:32Z</time>
  <course>248.35</course>
  <speed>0.15</speed>
  <fix>3d</fix>
</trkpt>
<trkpt lat="-35.2750213" lon="148.9863606">
  <ele>595.94</ele>
  <time>2026-09-01T20:00:32Z</time>
  <course>342.39</course>
  <speed>0.14317821063276354</speed>
  <fix>3d</fix>
</trkpt>
<trkpt lat="-35.2750213" lon="148.9863612">
  <ele>596.56</ele>
  <time>2026-09-01T20:00:32Z</time>
  <course>248.35</course>
  <speed>0.15</speed>
  <fix>3d</fix>
</trkpt>
<trkpt lat="-35.2750214" lon="148.9863604">
  <ele>595.79</ele>
  <time>2026-09-01T20:00:32Z</time>
  <course>342.4</course>
  <speed>0.14317821063276354</speed>
  <fix>3d</fix>
</trkpt>
<trkpt lat="-35.2750214" lon="148.9863609">
  <ele>596.27</ele>
  <time>2026-09-01T20:00:32Z</time>
  <course>247.85</course>
  <speed>0.14</speed>
  <fix>3d</fix>
</trkpt>
<trkpt lat="-35.2750214" lon="148.9863603">
  <ele>595.64</ele>
  <time>2026-09-01T20:00:32Z</time>
  <course>342.41</course>
  <speed>0.13341664064126335</speed>
  <fix>3d</fix>
</trkpt>
<trkpt lat="-35.2750214" lon="148.9863609">
  <ele>596.27</ele>
  <time>2026-09-01T20:00:32Z</time>
  <course>247.85</course>
  <speed>0.14</speed>
  <fix>3d</fix>
</trkpt>
<trkpt lat="-35.2750214" lon="148.9863602">
  <ele>595.49</ele>
  <time>2026-09-01T20:00:32Z</time>
  <course>342.42</course>
  <speed>0.13341664064126335</speed>
  <fix>3d</fix>
</trkpt>
<trkpt lat="-35.2750215" lon="148.9863606">
  <ele>595.96</ele>
  <time>2026-09-01T20:00:32Z</time>
  <course>247.13</course>
  <speed>0.13</speed>
  <fix>3d</fix>
</trkpt>
<trkpt lat="-35.2750215" lon="148.9863601">
  <ele>595.34</ele>
  <time>2026-09-01T20:00:32Z</time>
  <course>342.43</course>
  <speed>0.12369316876852982</speed>
  <fix>3d</fix>
</trkpt>
<trkpt lat="-35.2750215" lon="148.9863606">
  <ele>595.96</ele>
  <time>2026-09-01T20:00:32Z</time>
  <course>247.13</course>
  <speed>0.13</speed>
  <fix>3d</fix>
</trkpt>
<trkpt lat="-35.2750215" lon="148.98636">
  <ele>595.19</ele>
  <time>2026-09-01T20:00:32Z</time>
  <course>342.44</course>
  <speed>0.1118033988749895</speed>
  <fix>3d</fix>
</trkpt>
<trkpt lat="-35.2750216" lon="148.9863603">
  <ele>595.66</ele>
  <time>2026-09-01T20:00:32Z</time>
  <course>246.18</course>
  <speed>0.12</speed>
  <fix>3d</fix>
</trkpt>
<trkpt lat="-35.2750216" lon="148.9863599">
  <ele>595.04</ele>
  <time>2026-09-01T20:00:32Z</time>
  <course>342.44</course>
  <speed>0.1019803902718557</speed>
  <fix>3d</fix>
</trkpt>
<trkpt lat="-35.2750216" lon="148.9863603">
  <ele>595.66</ele>
  <time>2026-09-01T20:00:32Z</time>
  <course>246.18</course>
  <speed>0.12</speed>
  <fix>3d</fix>
</trkpt>
<trkpt lat="-35.2750216" lon="148.9863598">
  <ele>594.89</ele>
  <time>2026-09-01T20:00:32Z</time>
  <course>342.45</course>
  <speed>0.09219544457292887</speed>
  <fix>3d</fix>
</trkpt>
<trkpt lat="-35.2750217" lon="148.9863601">
  <ele>595.36</ele>
  <time>2026-09-01T20:00:32Z</time>
  <course>244.95</course>
  <speed>0.11</speed>
  <fix>3d</fix>
</trkpt>
<trkpt lat="-35.2750216" lon="148.9863597">
  <ele>594.74</ele>
  <time>2026-09-01T20:00:32Z</time>
  <course>342.45</course>
  <speed>0.09219544457292887</speed>
  <fix>3d</fix>
</trkpt>
<trkpt lat="-35.2750217" lon="148.9863601">
  <ele>595.36</ele>
  <time>2026-09-01T20:00:32Z</time>
  <course>244.95</course>
  <speed>0.11</speed>
  <fix>3d</fix>
</trkpt>
<trkpt lat="-35.2750217" lon="148.9863596">
  <ele>594.59</ele>
  <time>2026-09-01T20:00:32Z</time>
  <course>342.45</course>
  <speed>0.08062257748298549</speed>
  <fix>3d</fix>
</trkpt>
<trkpt lat="-35.2750218" lon="148.9863599">
  <ele>595.06</ele>
  <time>2026-09-01T20:00:32Z</time>
  <course>243.23</course>
  <speed>0.09</speed>
  <fix>3d</fix>
</trkpt>
<trkpt lat="-35.2750217" lon="148.9863595">
  <ele>594.45</ele>
  <time>2026-09-01T20:00:32Z</time>
  <course>342.46</course>
  <speed>0.07071067811865475</speed>
  <fix>3d</fix>
</trkpt>
<trkpt lat="-35.2750218" lon="148.9863599">
  <ele>595.06</ele>
  <time>2026-09-01T20:00:32Z</time>
  <course>243.23</course>
  <speed>0.09</speed>
  <fix>3d</fix>
</trkpt>
<trkpt lat="-35.2750217" lon="148.9863595">
  <ele>594.3</ele>
  <time>2026-09-01T20:00:32Z</time>
  <course>342.48</course>
  <speed>0.06082762530298219</speed>
  <fix>3d</fix>
</trkpt>
<trkpt lat="-35.2750218" lon="148.9863597">
  <ele>594.77</ele>
  <time>2026-09-01T20:00:32Z</time>
  <course>240.6</course>
  <speed>0.07</speed>
  <fix>3d</fix>
</trkpt>
<trkpt lat="-35.2750217" lon="148.9863594">
  <ele>594.16</ele>
  <time>2026-09-01T20:00:32Z</time>
  <course>342.5</course>
  <speed>0.05099019513592785</speed>
  <fix>3d</fix>
</trkpt>
<trkpt lat="-35.2750218" lon="148.9863597">
  <ele>594.77</ele>
  <time>2026-09-01T20:00:32Z</time>
  <course>240.6</course>
  <speed>0.07</speed>
  <fix>3d</fix>
</trkpt>
<trkpt lat="-35.2750218" lon="148.9863594">
  <ele>594.02</ele>
  <time>2026-09-01T20:00:32Z</time>
  <course>342.52</course>
  <speed>0.0412310562561766</speed>
  <fix>3d</fix>
</trkpt>
<trkpt lat="-35.2750219" lon="148.9863596">
  <ele>594.47</ele>
  <time>2026-09-01T20:00:32Z</time>
  <course>236.08</course>
  <speed>0.05</speed>
  <fix>3d</fix>
</trkpt>
<trkpt lat="-35.2750218" lon="148.9863594">
  <ele>593.88</ele>
  <time>2026-09-01T20:00:32Z</time>
  <course>342.55</course>
  <speed>0.04</speed>
  <fix>3d</fix>
</trkpt>
<trkpt lat="-35.2750219" lon="148.9863596">
  <ele>594.47</ele>
  <time>2026-09-01T20:00:32Z</time>
  <course>236.08</course>
  <speed>0.05</speed>
  <fix>3d</fix>
</trkpt>
<trkpt lat="-35.2750218" lon="148.9863594">
  <ele>593.74</ele>
  <time>2026-09-01T20:00:32Z</time>
  <course>342.57</course>
  <speed>0.03</speed>
  <fix>3d</fix>
</trkpt>
<trkpt lat="-35.275022" lon="148.9863595">
  <ele>594.19</ele>
  <time>2026-09-01T20:00:32Z</time>
  <course>227.39</course>
  <speed>0.04</speed>
  <fix>3d</fix>
</trkpt>
<trkpt lat="-35.2750218" lon="148.9863593">
  <ele>593.61</ele>
  <time>2026-09-01T20:00:32Z</time>
  <course>342.59</course>
  <speed>0.02</speed>
  <fix>3d</fix>
</trkpt>
<trkpt lat="-35.275022" lon="148.9863595">
  <ele>594.19</ele>
  <time>2026-09-01T20:00:32Z</time>
  <course>227.39</course>
  <speed>0.04</speed>
  <fix>3d</fix>
</trkpt>
<trkpt lat="-35.2750219" lon="148.9863593">
  <ele>593.47</ele>
  <time>2026-09-01T20:00:32Z</time>
  <course>342.58</course>
  <speed>0.01</speed>
  <fix>3d</fix>
</trkpt>
<trkpt lat="-35.275022" lon="148.9863595">
  <ele>593.91</ele>
  <time>2026-09-01T20:00:32Z</time>
  <course>208.52</course>
  <speed>0.02</speed>
  <fix>3d</fix>
</trkpt>
<trkpt lat="-35.2750219" lon="148.9863593">
  <ele>593.34</ele>
  <time>2026-09-01T20:00:32Z</time>
  <course>342.56</course>
  <speed>0.0</speed>
  <fix>3d</fix>
</trkpt>
<trkpt lat="-35.275022" lon="148.9863595">
  <ele>593.91</ele>
  <time>2026-09-01T20:00:32Z</time>
  <course>208.52</course>
  <speed>0.02</speed>
  <fix>3d</fix>
</trkpt>
<trkpt lat="-35.2750219" lon="148.9863594">
  <ele>593.21</ele>
  <time>2026-09-01T20:00:32Z</time>
  <course>342.5</course>
  <speed>0.0</speed>
  <fix>3d</fix>
</trkpt>
<trkpt lat="-35.2750221" lon="148.9863595">
  <ele>593.65</ele>
  <time>2026-09-01T20:00:32Z</time>
  <course>167.44</course>
  <speed>0.02</speed>
  <fix>3d</fix>
</trkpt>
<trkpt lat="-35.2750219" lon="148.9863594">
  <ele>593.09</ele>
  <time>2026-09-01T20:00:32Z</time>
  <course>342.54</course>
  <speed>0.0</speed>
  <fix>3d</fix>
</trkpt>
<trkpt lat="-35.2750221" lon="148.9863595">
  <ele>593.65</ele>
  <time>2026-09-01T20:00:32Z</time>
  <course>167.44</course>
  <speed>0.02</speed>
  <fix>3d</fix>
</trkpt>
<trkpt lat="-35.2750219" lon="148.9863594">
  <ele>592.97</ele>
  <time>2026-09-01T20:00:32Z</time>
  <course>342.7</course>
  <speed>0.0</speed>
  <fix>3d</fix>
</trkpt>
<trkpt lat="-35.2750221" lon="148.9863595">
  <ele>593.39</ele>
  <time>2026-09-01T20:00:32Z</time>
  <course>135.59</course>
  <speed>0.02</speed>
  <fix>3d</fix>
</trkpt>
<trkpt lat="-35.275022" lon="148.9863594">
  <ele>592.85</ele>
  <time>2026-09-01T20:00:32Z</time>
  <course>342.94</course>
  <speed>0.0</speed>
  <fix>3d</fix>
</trkpt>
<trkpt lat="-35.2750221" lon="148.9863595">
  <ele>593.39</ele>
  <time>2026-09-01T20:00:32Z</time>
  <course>135.59</course>
  <speed>0.02</speed>
  <fix>3d</fix>
</trkpt>
<trkpt lat="-35.275022" lon="148.9863595">
  <ele>592.74</ele>
  <time>2026-09-01T20:00:32Z</time>
  <course>343.2</course>
  <speed>0.0</speed>
  <fix>3d</fix>
</trkpt>
<trkpt lat="-35.2750221" lon="148.9863595">
  <ele>593.15</ele>
  <time>2026-09-01T20:00:32Z</time>
  <course>130.51</course>
  <speed>0.03</speed>
  <fix>3d</fix>
</trkpt>
<trkpt lat="-35.275022" lon="148.9863595">
  <ele>592.62</ele>
  <time>2026-09-01T20:00:32Z</time>
  <course>343.45</course>
  <speed>0.0</speed>
  <fix>3d</fix>
</trkpt>
<trkpt lat="-35.2750221" lon="148.9863595">
  <ele>593.15</ele>
  <time>2026-09-01T20:00:32Z</time>
  <course>130.51</course>
  <speed>0.03</speed>
  <fix>3d</fix>
</trkpt>
<trkpt lat="-35.275022" lon="148.9863595">
  <ele>592.51</ele>
  <time>2026-09-01T20:00:32Z</time>
  <course>343.64</course>
  <speed>0.0</speed>
  <fix>3d</fix>
</trkpt>
<trkpt lat="-35.2750221" lon="148.9863595">
  <ele>592.91</ele>
  <time>2026-09-01T20:00:32Z</time>
  <course>134.26</course>
  <speed>0.03</speed>
  <fix>3d</fix>
</trkpt>
<trkpt lat="-35.275022" lon="148.9863595">
  <ele>592.4</ele>
  <time>2026-09-01T20:00:32Z</time>
  <course>343.77</course>
  <speed>0.0</speed>
  <fix>3d</fix>
</trkpt>
<trkpt lat="-35.2750221" lon="148.9863595">
  <ele>592.91</ele>
  <time>2026-09-01T20:00:32Z</time>
  <course>134.26</course>
  <speed>0.03</speed>
  <fix>3d</fix>
</trkpt>
<trkpt lat="-35.2750221" lon="148.9863595">
  <ele>592.3</ele>
  <time>2026-09-01T20:00:32Z</time>
  <course>343.83</course>
  <speed>0.01</speed>
  <fix>3d</fix>
</trkpt>
<trkpt lat="-35.2750222" lon="148.9863595">
  <ele>592.69</ele>
  <time>2026-09-01T20:00:32Z</time>
  <course>138.07</course>
  <speed>0.03</speed>
  <fix>3d</fix>
</trkpt>
<trkpt lat="-35.2750221" lon="148.9863595">
  <ele>592.19</ele>
  <time>2026-09-01T20:00:32Z</time>
  <course>343.84</course>
  <speed>0.01</speed>
  <fix>3d</fix>
</trkpt>
<trkpt lat="-35.2750222" lon="148.9863595">
  <ele>592.69</ele>
  <time>2026-09-01T20:00:32Z</time>
  <course>138.07</course>
  <speed>0.03</speed>
  <fix>3d</fix>
</trkpt>
<trkpt lat="-35.2750221" lon="148.9863595">
  <ele>592.09</ele>
  <time>2026-09-01T20:00:32Z</time>
  <course>343.82</course>
  <speed>0.01</speed>
  <fix>3d</fix>
</trkpt>
<trkpt lat="-35.2750222" lon="148.9863595">
  <ele>592.48</ele>
  <time>2026-09-01T20:00:32Z</time>
  <course>140.9</course>
  <speed>0.03</speed>
  <fix>3d</fix>
</trkpt>
<trkpt lat="-35.2750221" lon="148.9863595">
  <ele>592.0</ele>
  <time>2026-09-01T20:00:32Z</time>
  <course>343.77</course>
  <speed>0.01</speed>
  <fix>3d</fix>
</trkpt>
<trkpt lat="-35.2750222" lon="148.9863595">
  <ele>592.48</ele>
  <time>2026-09-01T20:00:32Z</time>
  <course>140.9</course>
  <speed>0.03</speed>
  <fix>3d</fix>
</trkpt>
<trkpt lat="-35.2750222" lon="148.9863595">
  <ele>591.9</ele>
  <time>2026-09-01T20:00:32Z</time>
  <course>343.71</course>
  <speed>0.01</speed>
  <fix>3d</fix>
</trkpt>
<trkpt lat="-35.2750223" lon="148.9863596">
  <ele>592.28</ele>
  <time>2026-09-01T20:00:32Z</time>
  <course>142.74</course>
  <speed>0.03</speed>
  <fix>3d</fix>
</trkpt>
<trkpt lat="-35.2750222" lon="148.9863595">
  <ele>591.8</ele>
  <time>2026-09-01T20:00:32Z</time>
  <course>343.66</course>
  <speed>0.01</speed>
  <fix>3d</fix>
</trkpt>
<trkpt lat="-35.2750223" lon="148.9863596">
  <ele>592.28</ele>
  <time>2026-09-01T20:00:32Z</time>
  <course>142.74</course>
  <speed>0.03</speed>
  <fix>3d</fix>
</trkpt>
<trkpt lat="-35.2750222" lon="148.9863595">
  <ele>591.71</ele>
  <time>2026-09-01T20:00:32Z</time>
  <course>343.63</course>
  <speed>0.01</speed>
  <fix>3d</fix>
</trkpt>
<trkpt lat="-35.2750224" lon="148.9863596">
  <ele>592.07</ele>
  <time>2026-09-01T20:00:32Z</time>
  <course>143.83</course>
  <speed>0.03</speed>
  <fix>3d</fix>
</trkpt>
<trkpt lat="-35.2750222" lon="148.9863595">
  <ele>591.62</ele>
  <time>2026-09-01T20:00:32Z</time>
  <course>343.62</course>
  <speed>0.01</speed>
  <fix>3d</fix>
</trkpt>
<trkpt lat="-35.2750224" lon="148.9863596">
  <ele>592.07</ele>
  <time>2026-09-01T20:00:32Z</time>
  <course>143.83</course>
  <speed>0.03</speed>
  <fix>3d</fix>
</trkpt>
<trkpt lat="-35.2750223" lon="148.9863596">
  <ele>591.52</ele>
  <time>2026-09-01T20:00:32Z</time>
  <course>343.64</course>
  <speed>0.01</speed>
  <fix>3d</fix>
</trkpt>
<trkpt lat="-35.2750224" lon="148.9863597">
  <ele>591.88</ele>
  <time>2026-09-01T20:00:32Z</time>
  <course>144.81</course>
  <speed>0.03</speed>
  <fix>3d</fix>
</trkpt>
<trkpt lat="-35.2750223" lon="148.9863596">
  <ele>591.43</ele>
  <time>2026-09-01T20:00:32Z</time>
  <course>343.67</course>
  <speed>0.01</speed>
  <fix>3d</fix>
</trkpt>
<trkpt lat="-35.2750224" lon="148.9863597">
  <ele>591.88</ele>
  <time>2026-09-01T20:00:32Z</time>
  <course>144.81</course>
  <speed>0.03</speed>
  <fix>3d</fix>
</trkpt>
<trkpt lat="-35.2750223" lon="148.9863596">
  <ele>591.35</ele>
  <time>2026-09-01T20:00:32Z</time>
  <course>343.72</course>
  <speed>0.01</speed>
  <fix>3d</fix>
</trkpt>
<trkpt lat="-35.2750225" lon="148.9863598">
  <ele>591.69</ele>
  <time>2026-09-01T20:00:32Z</time>
  <course>145.51</course>
  <speed>0.03</speed>
  <fix>3d</fix>
</trkpt>
<trkpt lat="-35.2750223" lon="148.9863596">
  <ele>591.26</ele>
  <time>2026-09-01T20:00:32Z</time>
  <course>343.78</course>
  <speed>0.0</speed>
  <fix>3d</fix>
</trkpt>
<trkpt lat="-35.2750225" lon="148.9863598">
  <ele>591.69</ele>
  <time>2026-09-01T20:00:32Z</time>
  <course>145.51</course>
  <speed>0.03</speed>
  <fix>3d</fix>
</trkpt>
<trkpt lat="-35.2750224" lon="148.9863596">
  <ele>591.17</ele>
  <time>2026-09-01T20:00:32Z</time>
  <course>343.83</course>
  <speed>0.0</speed>
  <fix>3d</fix>
</trkpt>
<trkpt lat="-35.2750225" lon="148.9863598">
  <ele>591.52</ele>
  <time>2026-09-01T20:00:32Z</time>
  <course>145.64</course>
  <speed>0.03</speed>
  <fix>3d</fix>
</trkpt>
<trkpt lat="-35.2750224" lon="148.9863596">
  <ele>591.08</ele>
  <time>2026-09-01T20:00:32Z</time>
  <course>343.88</course>
  <speed>0.0</speed>
  <fix>3d</fix>
</trkpt>
<trkpt lat="-35.2750225" lon="148.9863598">
  <ele>591.52</ele>
  <time>2026-09-01T20:00:32Z</time>
  <course>145.64</course>
  <speed>0.03</speed>
  <fix>3d</fix>
</trkpt>
<trkpt lat="-35.2750224" lon="148.9863596">
  <ele>591.0</ele>
  <time>2026-09-01T20:00:32Z</time>
  <course>343.92</course>
  <speed>0.0</speed>
  <fix>3d</fix>
</trkpt>
<trkpt lat="-35.2750226" lon="148.9863599">
  <ele>591.34</ele>
  <time>2026-09-01T20:00:32Z</time>
  <course>145.27</course>
  <speed>0.02</speed>
  <fix>3d</fix>
</trkpt>
<trkpt lat="-35.2750224" lon="148.9863596">
  <ele>590.92</ele>
  <time>2026-09-01T20:00:32Z</time>
  <course>343.94</course>
  <speed>0.0</speed>
  <fix>3d</fix>
</trkpt>
<trkpt lat="-35.2750226" lon="148.9863599">
  <ele>591.34</ele>
  <time>2026-09-01T20:00:32Z</time>
  <course>145.27</course>
  <speed>0.02</speed>
  <fix>3d</fix>
</trkpt>
<trkpt lat="-35.2750225" lon="148.9863597">
  <ele>590.84</ele>
  <time>2026-09-01T20:00:32Z</time>
  <course>343.95</course>
  <speed>0.0</speed>
  <fix>3d</fix>
</trkpt>
<trkpt lat="-35.2750226" lon="148.9863599">
  <ele>591.17</ele>
  <time>2026-09-01T20:00:32Z</time>
  <course>144.81</course>
  <speed>0.02</speed>
  <fix>3d</fix>
</trkpt>
<trkpt lat="-35.2750225" lon="148.9863597">
  <ele>590.76</ele>
  <time>2026-09-01T20:00:32Z</time>
  <course>343.96</course>
  <speed>0.01</speed>
  <fix>3d</fix>
</trkpt>
<trkpt lat="-35.2750226" lon="148.9863599">
  <ele>591.17</ele>
  <time>2026-09-01T20:00:32Z</time>
  <course>144.81</course>
  <speed>0.02</speed>
  <fix>3d</fix>
</trkpt>
<trkpt lat="-35.2750225" lon="148.9863597">
  <ele>590.68</ele>
  <time>2026-09-01T20:00:32Z</time>
  <course>343.96</course>
  <speed>0.01</speed>
  <fix>3d</fix>
</trkpt>
<trkpt lat="-35.2750227" lon="148.9863599">
  <ele>591.01</ele>
  <time>2026-09-01T20:00:32Z</time>
  <course>143.82</course>
  <speed>0.02</speed>
  <fix>3d</fix>
</trkpt>
<trkpt lat="-35.2750225" lon="148.9863597">
  <ele>590.6</ele>
  <time>2026-09-01T20:00:32Z</time>
  <course>343.97</course>
  <speed>0.01</speed>
  <fix>3d</fix>
</trkpt>
<trkpt lat="-35.2750227" lon="148.9863599">
  <ele>591.01</ele>
  <time>2026-09-01T20:00:32Z</time>
  <course>143.82</course>
  <speed>0.02</speed>
  <fix>3d</fix>
</trkpt>
<trkpt lat="-35.2750225" lon="148.9863597">
  <ele>590.53</ele>
  <time>2026-09-01T20:00:32Z</time>
  <course>343.98</course>
  <speed>0.01</speed>
  <fix>3d</fix>
</trkpt>
<trkpt lat="-35.2750227" lon="148.98636">
  <ele>590.85</ele>
  <time>2026-09-01T20:00:32Z</time>
  <course>142.03</course>
  <speed>0.02</speed>
  <fix>3d</fix>
</trkpt>
<trkpt lat="-35.2750225" lon="148.9863597">
  <ele>590.45</ele>
  <time>2026-09-01T20:00:32Z</time>
  <course>343.99</course>
  <speed>0.01</speed>
  <fix>3d</fix>
</trkpt>
<trkpt lat="-35.2750227" lon="148.98636">
  <ele>590.85</ele>
  <time>2026-09-01T20:00:32Z</time>
  <course>142.03</course>
  <speed>0.02</speed>
  <fix>3d</fix>
</trkpt>
<trkpt lat="-35.2750226" lon="148.9863597">
  <ele>590.38</ele>
  <time>2026-09-01T20:00:32Z</time>
  <course>344.0</course>
  <speed>0.01</speed>
  <fix>3d</fix>
</trkpt>
<trkpt lat="-35.2750227" lon="148.98636">
  <ele>590.69</ele>
  <time>2026-09-01T20:00:32Z</time>
  <course>139.75</course>
  <speed>0.01</speed>
  <fix>3d</fix>
</trkpt>
<trkpt lat="-35.2750226" lon="148.9863597">
  <ele>590.31</ele>
  <time>2026-09-01T20:00:32Z</time>
  <course>344.03</course>
  <speed>0.01</speed>
  <fix>3d</fix>
</trkpt>
<trkpt lat="-35.2750227" lon="148.98636">
  <ele>590.69</ele>
  <time>2026-09-01T20:00:32Z</time>
  <course>139.75</course>
  <speed>0.01</speed>
  <fix>3d</fix>
</trkpt>
<trkpt lat="-35.2750226" lon="148.9863597">
  <ele>590.24</ele>
  <time>2026-09-01T20:00:32Z</time>
  <course>344.06</course>
  <speed>0.01</speed>
  <fix>3d</fix>
</trkpt>
<trkpt lat="-35.2750227" lon="148.98636">
  <ele>590.55</ele>
  <time>2026-09-01T20:00:32Z</time>
  <course>136.52</course>
  <speed>0.01</speed>
  <fix>3d</fix>
</trkpt>
<trkpt lat="-35.2750226" lon="148.9863597">
  <ele>590.17</ele>
  <time>2026-09-01T20:00:32Z</time>
  <course>344.11</course>
  <speed>0.02</speed>
  <fix>3d</fix>
</trkpt>
<trkpt lat="-35.2750227" lon="148.98636">
  <ele>590.55</ele>
  <time>2026-09-01T20:00:32Z</time>
  <course>136.52</course>
  <speed>0.01</speed>
  <fix>3d</fix>
</trkpt>
<trkpt lat="-35.2750226" lon="148.9863598">
  <ele>590.1</ele>
  <time>2026-09-01T20:00:32Z</time>
  <course>344.18</course>
  <speed>0.02</speed>
  <fix>3d</fix>
</trkpt>
<trkpt lat="-35.2750227" lon="148.98636">
  <ele>590.4</ele>
  <time>2026-09-01T20:00:32Z</time>
  <course>134.52</course>
  <speed>0.0</speed>
  <fix>3d</fix>
</trkpt>
<trkpt lat="-35.2750226" lon="148.9863598">
  <ele>590.03</ele>
  <time>2026-09-01T20:00:32Z</time>
  <course>344.28</course>
  <speed>0.022360679774997897</speed>
  <fix>3d</fix>
</trkpt>
<trkpt lat="-35.2750227" lon="148.98636">
  <ele>590.4</ele>
  <time>2026-09-01T20:00:32Z</time>
  <course>134.52</course>
  <speed>0.0</speed>
  <fix>3d</fix>
</trkpt>
<trkpt lat="-35.2750226" lon="148.9863598">
  <ele>589.96</ele>
  <time>2026-09-01T20:00:32Z</time>
  <course>344.4</course>
  <speed>0.0316227766016838</speed>
  <fix>3d</fix>
</trkpt>
<trkpt lat="-35.2750227" lon="148.98636">
  <ele>590.26</ele>
  <time>2026-09-01T20:00:32Z</time>
  <course>184.41</course>
  <speed>0.0</speed>
  <fix>3d</fix>
</trkpt>
<trkpt lat="-35.2750226" lon="148.9863598">
  <ele>589.9</ele>
  <time>2026-09-01T20:00:32Z</time>
  <course>344.53</course>
  <speed>0.0316227766016838</speed>
  <fix>3d</fix>
</trkpt>
<trkpt lat="-35.2750227" lon="148.98636">
  <ele>590.26</ele>
  <time>2026-09-01T20:00:32Z</time>
  <course>184.41</course>
  <speed>0.0</speed>
  <fix>3d</fix>
</trkpt>
<trkpt lat="-35.2750226" lon="148.9863598">
  <ele>589.84</ele>
  <time>2026-09-01T20:00:32Z</time>
  <course>344.63</course>
  <speed>0.0412310562561766</speed>
  <fix>3d</fix>
</trkpt>
<trkpt lat="-35.2750227" lon="148.98636">
  <ele>590.13</ele>
  <time>2026-09-01T20:00:32Z</time>
  <course>264.47</course>
  <speed>0.0</speed>
  <fix>3d</fix>
</trkpt>
<trkpt lat="-35.2750226" lon="148.9863598">
  <ele>589.77</ele>
  <time>2026-09-01T20:00:32Z</time>
  <course>344.72</course>
  <speed>0.0412310562561766</speed>
  <fix>3d</fix>
</trkpt>
<trkpt lat="-35.2750227" lon="148.98636">
  <ele>590.13</ele>
  <time>2026-09-01T20:00:32Z</time>
  <course>264.47</course>
  <speed>0.0</speed>
  <fix>3d</fix>
</trkpt>
<trkpt lat="-35.2750226" lon="148.9863598">
  <ele>589.71</ele>
  <time>2026-09-01T20:00:32Z</time>
  <course>344.77</course>
  <speed>0.05099019513592785</speed>
  <fix>3d</fix>
</trkpt>
<trkpt lat="-35.2750227" lon="148.98636">
  <ele>590.01</ele>
  <time>2026-09-01T20:00:32Z</time>
  <course>271.65</course>
  <speed>0.01</speed>
  <fix>3d</fix>
</trkpt>
<trkpt lat="-35.2750226" lon="148.9863597">
  <ele>589.65</ele>
  <time>2026-09-01T20:00:32Z</time>
  <course>344.8</course>
  <speed>0.05099019513592785</speed>
  <fix>3d</fix>
</trkpt>
<trkpt lat="-35.2750227" lon="148.98636">
  <ele>590.01</ele>
  <time>2026-09-01T20:00:32Z</time>
  <course>271.65</course>
  <speed>0.01</speed>
  <fix>3d</fix>
</trkpt>
<trkpt lat="-35.2750226" lon="148.9863597">
  <ele>589.6</ele>
  <time>2026-09-01T20:00:32Z</time>
  <course>344.8</course>
  <speed>0.05099019513592785</speed>
  <fix>3d</fix>
</trkpt>
<trkpt lat="-35.2750227" lon="148.98636">
  <ele>589.89</ele>
  <time>2026-09-01T20:00:32Z</time>
  <course>274.88</course>
  <speed>0.02</speed>
  <fix>3d</fix>
</trkpt>
<trkpt lat="-35.2750226" lon="148.9863596">
  <ele>589.55</ele>
  <time>2026-09-01T20:00:32Z</time>
  <course>344.79</course>
  <speed>0.05099019513592785</speed>
  <fix>3d</fix>
</trkpt>
<trkpt lat="-35.2750227" lon="148.98636">
  <ele>589.89</ele>
  <time>2026-09-01T20:00:32Z</time>
  <course>274.88</course>
  <speed>0.02</speed>
  <fix>3d</fix>
</trkpt>
<trkpt lat="-35.2750226" lon="148.9863596">
  <ele>589.49</ele>
  <time>2026-09-01T20:00:32Z</time>
  <course>344.77</course>
  <speed>0.06082762530298219</speed>
  <fix>3d</fix>
</trkpt>
<trkpt lat="-35.2750227" lon="148.98636">
  <ele>589.77</ele>
  <time>2026-09-01T20:00:32Z</time>
  <course>277.59</course>
  <speed>0.03</speed>
  <fix>3d</fix>
</trkpt>
<trkpt lat="-35.2750226" lon="148.9863596">
  <ele>589.44</ele>
  <time>2026-09-01T20:00:32Z</time>
  <course>344.73</course>
  <speed>0.06082762530298219</speed>
  <fix>3d</fix>
</trkpt>
<trkpt lat="-35.2750227" lon="148.98636">
  <ele>589.77</ele>
  <time>2026-09-01T20:00:32Z</time>
  <course>277.59</course>
  <speed>0.03</speed>
  <fix>3d</fix>
</trkpt>
<trkpt lat="-35.2750226" lon="148.9863596">
  <ele>589.39</ele>
  <time>2026-09-01T20:00:32Z</time>
  <course>344.7</course>
  <speed>0.0632455532033676</speed>
  <fix>3d</fix>
</trkpt>
<trkpt lat="-35.2750227" lon="148.9863599">
  <ele>589.66</ele>
  <time>2026-09-01T20:00:32Z</time>
  <course>279.9</course>
  <speed>0.03</speed>
  <fix>3d</fix>
</trkpt>
<trkpt lat="-35.2750226" lon="148.9863595">
  <ele>589.34</ele>
  <time>2026-09-01T20:00:32Z</time>
  <course>344.67</course>
  <speed>0.0632455532033676</speed>
  <fix>3d</fix>
</trkpt>
<trkpt lat="-35.2750227" lon="148.9863599">
  <ele>589.66</ele>
  <time>2026-09-01T20:00:32Z</time>
  <course>279.9</course>
  <speed>0.03</speed>
  <fix>3d</fix>
</trkpt>
<trkpt lat="-35.2750226" lon="148.9863595">
  <ele>589.28</ele>
  <time>2026-09-01T20:00:32Z</time>
  <course>344.65</course>
  <speed>0.0632455532033676</speed>
  <fix>3d</fix>
</trkpt>
<trkpt lat="-35.2750227" lon="148.9863598">
  <ele>589.55</ele>
  <time>2026-09-01T20:00:32Z</time>
  <course>281.91</course>
  <speed>0.04</speed>
  <fix>3d</fix>
</trkpt>
<trkpt lat="-35.2750226" lon="148.9863594">
  <ele>589.23</ele>
  <time>2026-09-01T20:00:32Z</time>
  <course>344.64</course>
  <speed>0.0632455532033676</speed>
  <fix>3d</fix>
</trkpt>
<trkpt lat="-35.2750227" lon="148.9863598">
  <ele>589.55</ele>
  <time>2026-09-01T20:00:32Z</time>
  <course>281.91</course>
  <speed>0.04</speed>
  <fix>3d</fix>
</trkpt>
<trkpt lat="-35.2750226" lon="148.9863594">
  <ele>589.18</ele>
  <time>2026-09-01T20:00:32Z</time>
  <course>344.64</course>
  <speed>0.0632455532033676</speed>
  <fix>3d</fix>
</trkpt>
<trkpt lat="-35.2750227" lon="148.9863597">
  <ele>589.45</ele>
  <time>2026-09-01T20:00:32Z</time>
  <course>284.43</course>
  <speed>0.04</speed>
  <fix>3d</fix>
</trkpt>
<trkpt lat="-35.2750226" lon="148.9863594">
  <ele>589.13</ele>
  <time>2026-09-01T20:00:32Z</time>
  <course>344.65</course>
  <speed>0.0632455532033676</speed>
  <fix>3d</fix>
</trkpt>
<trkpt lat="-35.2750227" lon="148.9863597">
  <ele>589.45</ele>
  <time>2026-09-01T20:00:32Z</time>
  <course>284.43</course>
  <speed>0.04</speed>
  <fix>3d</fix>
</trkpt>
<trkpt lat="-35.2750226" lon="148.9863593">
  <ele>589.08</ele>
  <time>2026-09-01T20:00:32Z</time>
  <course>344.66</course>
  <speed>0.0632455532033676</speed>
  <fix>3d</fix>
</trkpt>
<trkpt lat="-35.2750227" lon="148.9863596">
  <ele>589.35</ele>
  <time>2026-09-01T20:00:32Z</time>
  <course>287.51</course>
  <speed>0.04</speed>
  <fix>3d</fix>
</trkpt>
<trkpt lat="-35.2750226" lon="148.9863593">
  <ele>589.03</ele>
  <time>2026-09-01T20:00:32Z</time>
  <course>344.67</course>
  <speed>0.053851648071345036</speed>
  <fix>3d</fix>
</trkpt>
<trkpt lat="-35.2750227" lon="148.9863596">
  <ele>589.35</ele>
  <time>2026-09-01T20:00:32Z</time>
  <course>287.51</course>
  <speed>0.04</speed>
  <fix>3d</fix>
</trkpt>
<trkpt lat="-35.2750226" lon="148.9863592">
  <ele>588.98</ele>
  <time>2026-09-01T20:00:32Z</time>
  <course>344.67</course>
  <speed>0.053851648071345036</speed>
  <fix>3d</fix>
</trkpt>
<trkpt lat="-35.2750227" lon="148.9863595">
  <ele>589.25</ele>
  <time>2026-09-01T20:00:32Z</time>
  <course>291.35</course>
  <speed>0.04</speed>
  <fix>3d</fix>
</trkpt>
<trkpt lat="-35.2750225" lon="148.9863592">
  <ele>588.93</ele>
  <time>2026-09-01T20:00:32Z</time>
  <course>344.68</course>
  <speed>0.05830951894845301</speed>
  <fix>3d</fix>
</trkpt>
<trkpt lat="-35.2750227" lon="148.9863595">
  <ele>589.25</ele>
  <time>2026-09-01T20:00:32Z</time>
  <course>291.35</course>
  <speed>0.04</speed>
  <fix>3d</fix>
</trkpt>
<trkpt lat="-35.2750225" lon="148.9863592">
  <ele>588.88</ele>
  <time>2026-09-01T20:00:32Z</time>
  <course>344.68</course>
  <speed>0.05830951894845301</speed>
  <fix>3d</fix>
</trkpt>
<trkpt lat="-35.2750227" lon="148.9863594">
  <ele>589.15</ele>
  <time>2026-09-01T20:00:32Z</time>
  <course>296.62</course>
  <speed>0.03</speed>
  <fix>3d</fix>
</trkpt>
<trkpt lat="-35.2750225" lon="148.9863591">
  <ele>588.83</ele>
  <time>2026-09-01T20:00:32Z</time>
  <course>344.67</course>
  <speed>0.05830951894845301</speed>
  <fix>3d</fix>
</trkpt>
<trkpt lat="-35.2750227" lon="148.9863594">
  <ele>589.15</ele>
  <time>2026-09-01T20:00:32Z</time>
  <course>296.62</course>
  <speed>0.03</speed>
  <fix>3d</fix>
</trkpt>
<trkpt lat="-35.2750225" lon="148.9863591">
  <ele>588.78</ele>
  <time>2026-09-01T20:00:32Z</time>
  <course>344.67</course>
  <speed>0.05</speed>
  <fix>3d</fix>
</trkpt>
<trkpt lat="-35.2750227" lon="148.9863594">
  <ele>589.05</ele>
  <time>2026-09-01T20:00:32Z</time>
  <course>303.17</course>
  <speed>0.03</speed>
  <fix>3d</fix>
</trkpt>
<trkpt lat="-35.2750225" lon="148.9863591">
  <ele>588.73</ele>
  <time>2026-09-01T20:00:32Z</time>
  <course>344.66</course>
  <speed>0.05</speed>
  <fix>3d</fix>
</trkpt>
<trkpt lat="-35.2750227" lon="148.9863594">
  <ele>589.05</ele>
  <time>2026-09-01T20:00:32Z</time>
  <course>303.17</course>
  <speed>0.03</speed>
  <fix>3d</fix>
</trkpt>
<trkpt lat="-35.2750225" lon="148.9863591">
  <ele>588.68</ele>
  <time>2026-09-01T20:00:32Z</time>
  <course>344.65</course>
  <speed>0.05</speed>
  <fix>3d</fix>
</trkpt>
<trkpt lat="-35.2750227" lon="148.9863593">
  <ele>588.95</ele>
  <time>2026-09-01T20:00:32Z</time>
  <course>311.11</course>
  <speed>0.03</speed>
  <fix>3d</fix>
</trkpt>
<trkpt lat="-35.2750225" lon="148.9863591">
  <ele>588.63</ele>
  <time>2026-09-01T20:00:32Z</time>
  <course>344.65</course>
  <speed>0.04242640687119285</speed>
  <fix>3d</fix>
</trkpt>
<trkpt lat="-35.2750227" lon="148.9863593">
  <ele>588.95</ele>
  <time>2026-09-01T20:00:32Z</time>
  <course>311.11</course>
  <speed>0.03</speed>
  <fix>3d</fix>
</trkpt>
<trkpt lat="-35.2750225" lon="148.986359">
  <ele>588.58</ele>
  <time>2026-09-01T20:00:32Z</time>
  <course>344.66</course>
  <speed>0.04242640687119285</speed>
  <fix>3d</fix>
</trkpt>
<trkpt lat="-35.2750226" lon="148.9863593">
  <ele>588.84</ele>
  <time>2026-09-01T20:00:32Z</time>
  <course>320.69</course>
  <speed>0.03</speed>
  <fix>3d</fix>
</trkpt>
<trkpt lat="-35.2750224" lon="148.986359">
  <ele>588.53</ele>
  <time>2026-09-01T20:00:32Z</time>
  <course>344.66</course>
  <speed>0.04242640687119285</speed>
  <fix>3d</fix>
</trkpt>
<trkpt lat="-35.2750226" lon="148.9863593">
  <ele>588.84</ele>
  <time>2026-09-01T20:00:32Z</time>
  <course>320.69</course>
  <speed>0.03</speed>
  <fix>3d</fix>
</trkpt>
<trkpt lat="-35.2750224" lon="148.986359">
  <ele>588.48</ele>
  <time>2026-09-01T20:00:32Z</time>
  <course>344.67</course>
  <speed>0.04242640687119285</speed>
  <fix>3d</fix>
</trkpt>
<trkpt lat="-35.2750226" lon="148.9863592">
  <ele>588.74</ele>
  <time>2026-09-01T20:00:32Z</time>
  <course>331.19</course>
  <speed>0.03</speed>
  <fix>3d</fix>
</trkpt>
<trkpt lat="-35.2750224" lon="148.986359">
  <ele>588.43</ele>
  <time>2026-09-01T20:00:32Z</time>
  <course>344.69</course>
  <speed>0.044721359549995794</speed>
  <fix>3d</fix>
</trkpt>
<trkpt lat="-35.2750226" lon="148.9863592">
  <ele>588.74</ele>
  <time>2026-09-01T20:00:32Z</time>
  <course>331.19</course>
  <speed>0.03</speed>
  <fix>3d</fix>
</trkpt>
<trkpt lat="-35.2750224" lon="148.986359">
  <ele>588.38</ele>
  <time>2026-09-01T20:00:32Z</time>
  <course>344.7</course>
  <speed>0.044721359549995794</speed>
  <fix>3d</fix>
</trkpt>
<trkpt lat="-35.2750225" lon="148.9863591">
  <ele>588.64</ele>
  <time>2026-09-01T20:00:32Z</time>
  <course>341.52</course>
  <speed>0.03</speed>
  <fix>3d</fix>
</trkpt>
<trkpt lat="-35.2750224" lon="148.986359">
  <ele>588.33</ele>
  <time>2026-09-01T20:00:32Z</time>
  <course>344.71</course>
  <speed>0.044721359549995794</speed>
  <fix>3d</fix>
</trkpt>
<trkpt lat="-35.2750225" lon="148.9863591">
  <ele>588.64</ele>
  <time>2026-09-01T20:00:32Z</time>
  <course>341.52</course>
  <speed>0.03</speed>
  <fix>3d</fix>
</trkpt>
<trkpt lat="-35.2750223" lon="148.986359">
  <ele>588.28</ele>
  <time>2026-09-01T20:00:32Z</time>
  <course>344.71</course>
  <speed>0.0412310562561766</speed>
  <fix>3d</fix>
</trkpt>
<trkpt lat="-35.2750224" lon="148.9863591">
  <ele>588.54</ele>
  <time>2026-09-01T20:00:32Z</time>
  <course>351.67</course>
  <speed>0.03</speed>
  <fix>3d</fix>
</trkpt>
<trkpt lat="-35.2750223" lon="148.986359">
  <ele>588.22</ele>
  <time>2026-09-01T20:00:32Z</time>
  <course>344.71</course>
  <speed>0.0412310562561766</speed>
  <fix>3d</fix>
</trkpt>
<trkpt lat="-35.2750224" lon="148.9863591">
  <ele>588.54</ele>
  <time>2026-09-01T20:00:32Z</time>
  <course>351.67</course>
  <speed>0.03</speed>
  <fix>3d</fix>
</trkpt>
<trkpt lat="-35.2750223" lon="148.986359">
  <ele>588.17</ele>
  <time>2026-09-01T20:00:32Z</time>
  <course>344.71</course>
  <speed>0.0412310562561766</speed>
  <fix>3d</fix>
</trkpt>
<trkpt lat="-35.2750224" lon="148.9863591">
  <ele>588.43</ele>
  <time>2026-09-01T20:00:32Z</time>
  <course>1.0</course>
  <speed>0.03</speed>
  <fix>3d</fix>
</trkpt>
<trkpt lat="-35.2750222" lon="148.986359">
  <ele>588.12</ele>
  <time>2026-09-01T20:00:32Z</time>
  <course>344.72</course>
  <speed>0.0412310562561766</speed>
  <fix>3d</fix>
</trkpt>
<trkpt lat="-35.2750224" lon="148.9863591">
  <ele>588.43</ele>
  <time>2026-09-01T20:00:32Z</time>
  <course>1.0</course>
  <speed>0.03</speed>
  <fix>3d</fix>
</trkpt>
<trkpt lat="-35.2750222" lon="148.986359">
  <ele>588.07</ele>
  <time>2026-09-01T20:00:32Z</time>
  <course>344.72</course>
  <speed>0.0412310562561766</speed>
  <fix>3d</fix>
</trkpt>
<trkpt lat="-35.2750223" lon="148.9863591">
  <ele>588.33</ele>
  <time>2026-09-01T20:00:32Z</time>
  <course>8.62</course>
  <speed>0.03</speed>
  <fix>3d</fix>
</trkpt>
<trkpt lat="-35.2750222" lon="148.986359">
  <ele>588.02</ele>
  <time>2026-09-01T20:00:32Z</time>
  <course>344.72</course>
  <speed>0.04</speed>
  <fix>3d</fix>
</trkpt>
<trkpt lat="-35.2750223" lon="148.9863591">
  <ele>588.33</ele>
  <time>2026-09-01T20:00:33Z</time>
  <course>8.62</course>
  <speed>0.03</speed>
  <fix>3d</fix>
</trkpt>
<trkpt lat="-35.2750221" lon="148.986359">
  <ele>587.97</ele>
  <time>2026-09-01T20:00:33Z</time>
  <course>344.72</course>
  <speed>0.04</speed>
  <fix>3d</fix>
</trkpt>
<trkpt lat="-35.2750222" lon="148.9863591">
  <ele>588.23</ele>
  <time>2026-09-01T20:00:33Z</time>
  <course>15.87</course>
  <speed>0.04</speed>
  <fix>3d</fix>
</trkpt>
<trkpt lat="-35.2750221" lon="148.986359">
  <ele>587.92</ele>
  <time>2026-09-01T20:00:33Z</time>
  <course>344.72</course>
  <speed>0.04</speed>
  <fix>3d</fix>
</trkpt>
<trkpt lat="-35.2750222" lon="148.9863591">
  <ele>588.23</ele>
  <time>2026-09-01T20:00:33Z</time>
  <course>15.87</course>
  <speed>0.04</speed>
  <fix>3d</fix>
</trkpt>
<trkpt lat="-35.2750221" lon="148.986359">
  <ele>587.87</ele>
  <time>2026-09-01T20:00:33Z</time>
  <course>344.72</course>
  <speed>0.04</speed>
  <fix>3d</fix>
</trkpt>
<trkpt lat="-35.2750221" lon="148.9863591">
  <ele>588.13</ele>
  <time>2026-09-01T20:00:33Z</time>
  <course>23.5</course>
  <speed>0.04</speed>
  <fix>3d</fix>
</trkpt>
<trkpt lat="-35.275022" lon="148.986359">
  <ele>587.82</ele>
  <time>2026-09-01T20:00:33Z</time>
  <course>344.71</course>
  <speed>0.04</speed>
  <fix>3d</fix>
</trkpt>
<trkpt lat="-35.2750221" lon="148.9863591">
  <ele>588.13</ele>
  <time>2026-09-01T20:00:33Z</time>
  <course>23.5</course>
  <speed>0.04</speed>
  <fix>3d</fix>
</trkpt>
<trkpt lat="-35.275022" lon="148.986359">
  <ele>587.77</ele>
  <time>2026-09-01T20:00:33Z</time>
  <course>344.71</course>
  <speed>0.04</speed>
  <fix>3d</fix>
</trkpt>
<trkpt lat="-35.2750221" lon="148.9863591">
  <ele>588.03</ele>
  <time>2026-09-01T20:00:33Z</time>
  <course>30.64</course>
  <speed>0.04</speed>
  <fix>3d</fix>
</trkpt>
<trkpt lat="-35.275022" lon="148.986359">
  <ele>587.72</ele>
  <time>2026-09-01T20:00:33Z</time>
  <course>344.72</course>
  <speed>0.04</speed>
  <fix>3d</fix>
</trkpt>
<trkpt lat="-35.2750221" lon="148.9863591">
  <ele>588.03</ele>
  <time>2026-09-01T20:00:33Z</time>
  <course>30.64</course>
  <speed>0.04</speed>
  <fix>3d</fix>
</trkpt>
<trkpt lat="-35.2750219" lon="148.9863591">
  <ele>587.67</ele>
  <time>2026-09-01T20:00:33Z</time>
  <course>344.72</course>
  <speed>0.0412310562561766</speed>
  <fix>3d</fix>
</trkpt>
<trkpt lat="-35.275022" lon="148.9863592">
  <ele>587.93</ele>
  <time>2026-09-01T20:00:33Z</time>
  <course>36.3</course>
  <speed>0.04</speed>
  <fix>3d</fix>
</trkpt>
<trkpt lat="-35.2750219" lon="148.9863591">
  <ele>587.62</ele>
  <time>2026-09-01T20:00:33Z</time>
  <course>344.73</course>
  <speed>0.0412310562561766</speed>
  <fix>3d</fix>
</trkpt>
<trkpt lat="-35.275022" lon="148.9863592">
  <ele>587.93</ele>
  <time>2026-09-01T20:00:33Z</time>
  <course>36.3</course>
  <speed>0.04</speed>
  <fix>3d</fix>
</trkpt>
<trkpt lat="-35.2750219" lon="148.9863591">
  <ele>587.57</ele>
  <time>2026-09-01T20:00:33Z</time>
  <course>344.72</course>
  <speed>0.0412310562561766</speed>
  <fix>3d</fix>
</trkpt>
<trkpt lat="-35.275022" lon="148.9863593">
  <ele>587.83</ele>
  <time>2026-09-01T20:00:33Z</time>
  <course>40.76</course>
  <speed>0.05</speed>
  <fix>3d</fix>
</trkpt>
<trkpt lat="-35.2750218" lon="148.9863592">
  <ele>587.53</ele>
  <time>2026-09-01T20:00:33Z</time>
  <course>344.72</course>
  <speed>0.0412310562561766</speed>
  <fix>3d</fix>
</trkpt>
<trkpt lat="-35.275022" lon="148.9863593">
  <ele>587.83</ele>
  <time>2026-09-01T20:00:33Z</time>
  <course>40.76</course>
  <speed>0.05</speed>
  <fix>3d</fix>
</trkpt>
<trkpt lat="-35.2750218" lon="148.9863592">
  <ele>587.48</ele>
  <time>2026-09-01T20:00:33Z</time>
  <course>344.7</course>
  <speed>0.0412310562561766</speed>
  <fix>3d</fix>
</trkpt>
<trkpt lat="-35.2750219" lon="148.9863594">
  <ele>587.73</ele>
  <time>2026-09-01T20:00:33Z</time>
  <course>44.86</course>
  <speed>0.05</speed>
  <fix>3d</fix>
</trkpt>
<trkpt lat="-35.2750218" lon="148.9863592">
  <ele>587.43</ele>
  <time>2026-09-01T20:00:33Z</time>
  <course>344.69</course>
  <speed>0.0412310562561766</speed>
  <fix>3d</fix>
</trkpt>
<trkpt lat="-35.2750219" lon="148.9863594">
  <ele>587.73</ele>
  <time>2026-09-01T20:00:33Z</time>
  <course>44.86</course>
  <speed>0.05</speed>
  <fix>3d</fix>
</trkpt>
<trkpt lat="-35.2750217" lon="148.9863593">
  <ele>587.38</ele>
  <time>2026-09-01T20:00:33Z</time>
  <course>344.67</course>
  <speed>0.0412310562561766</speed>
  <fix>3d</fix>
</trkpt>
<trkpt lat="-35.2750218" lon="148.9863595">
  <ele>587.63</ele>
  <time>2026-09-01T20:00:33Z</time>
  <course>48.62</course>
  <speed>0.05</speed>
  <fix>3d</fix>
</trkpt>
<trkpt lat="-35.2750217" lon="148.9863593">
  <ele>587.33</ele>
  <time>2026-09-01T20:00:33Z</time>
  <course>344.65</course>
  <speed>0.044721359549995794</speed>
  <fix>3d</fix>
</trkpt>
<trkpt lat="-35.2750218" lon="148.9863595">
  <ele>587.63</ele>
  <time>2026-09-01T20:00:33Z</time>
  <course>48.62</course>
  <speed>0.05</speed>
  <fix>3d</fix>
</trkpt>
<trkpt lat="-35.2750217" lon="148.9863594">
  <ele>587.28</ele>
  <time>2026-09-01T20:00:33Z</time>
  <course>344.64</course>
  <speed>0.044721359549995794</speed>
  <fix>3d</fix>
</trkpt>
<trkpt lat="-35.2750218" lon="148.9863595">
  <ele>587.53</ele>
  <time>2026-09-01T20:00:33Z</time>
  <course>52.15</course>
  <speed>0.05</speed>
  <fix>3d</fix>
</trkpt>
<trkpt lat="-35.2750217" lon="148.9863594">
  <ele>587.23</ele>
  <time>2026-09-01T20:00:33Z</time>
  <course>344.63</course>
  <speed>0.03605551275463989</speed>
  <fix>3d</fix>
</trkpt>
<trkpt lat="-35.2750218" lon="148.9863595">
  <ele>587.53</ele>
  <time>2026-09-01T20:00:33Z</time>
  <course>52.15</course>
  <speed>0.05</speed>
  <fix>3d</fix>
</trkpt>
<trkpt lat="-35.2750216" lon="148.9863595">
  <ele>587.18</ele>
  <time>2026-09-01T20:00:33Z</time>
  <course>344.64</course>
  <speed>0.03605551275463989</speed>
  <fix>3d</fix>
</trkpt>
<trkpt lat="-35.2750217" lon="148.9863596">
  <ele>587.42</ele>
  <time>2026-09-01T20:00:33Z</time>
  <course>55.9</course>
  <speed>0.05</speed>
  <fix>3d</fix>
</trkpt>
<trkpt lat="-35.2750216" lon="148.9863595">
  <ele>587.13</ele>
  <time>2026-09-01T20:00:33Z</time>
  <course>344.65</course>
  <speed>0.03605551275463989</speed>
  <fix>3d</fix>
</trkpt>
<trkpt lat="-35.2750217" lon="148.9863596">
  <ele>587.42</ele>
  <time>2026-09-01T20:00:33Z</time>
  <course>55.9</course>
  <speed>0.05</speed>
  <fix>3d</fix>
</trkpt>
<trkpt lat="-35.2750216" lon="148.9863596">
  <ele>587.08</ele>
  <time>2026-09-01T20:00:33Z</time>
  <course>344.66</course>
  <speed>0.03605551275463989</speed>
  <fix>3d</fix>
</trkpt>
<trkpt lat="-35.2750216" lon="148.9863597">
  <ele>587.32</ele>
  <time>2026-09-01T20:00:33Z</time>
  <course>59.67</course>
  <speed>0.05</speed>
  <fix>3d</fix>
</trkpt>
<trkpt lat="-35.2750216" lon="148.9863596">
  <ele>587.03</ele>
  <time>2026-09-01T20:00:33Z</time>
  <course>344.67</course>
  <speed>0.03605551275463989</speed>
  <fix>3d</fix>
</trkpt>
<trkpt lat="-35.2750216" lon="148.9863597">
  <ele>587.32</ele>
  <time>2026-09-01T20:00:33Z</time>
  <course>59.67</course>
  <speed>0.05</speed>
  <fix>3d</fix>
</trkpt>
<trkpt lat="-35.2750215" lon="148.9863597">
  <ele>586.98</ele>
  <time>2026-09-01T20:00:33Z</time>
  <course>344.66</course>
  <speed>0.03605551275463989</speed>
  <fix>3d</fix>
</trkpt>
<trkpt lat="-35.2750216" lon="148.9863598">
  <ele>587.22</ele>
  <time>2026-09-01T20:00:33Z</time>
  <course>63.45</course>
  <speed>0.05</speed>
  <fix>3d</fix>
</trkpt>
<trkpt lat="-35.2750215" lon="148.9863597">
  <ele>586.93</ele>
  <time>2026-09-01T20:00:33Z</time>
  <course>344.66</course>
  <speed>0.0282842712474619</speed>
  <fix>3d</fix>
</trkpt>
<trkpt lat="-35.2750216" lon="148.9863598">
  <ele>587.22</ele>
  <time>2026-09-01T20:00:33Z</time>
  <course>63.45</course>
  <speed>0.05</speed>
  <fix>3d</fix>
</trkpt>
<trkpt lat="-35.2750215" lon="148.9863598">
  <ele>586.88</ele>
  <time>2026-09-01T20:00:33Z</time>
  <course>344.65</course>
  <speed>0.0282842712474619</speed>
  <fix>3d</fix>
</trkpt>
<trkpt lat="-35.2750215" lon="148.9863599">
  <ele>587.12</ele>
  <time>2026-09-01T20:00:33Z</time>
  <course>67.36</course>
  <speed>0.05</speed>
  <fix>3d</fix>
</trkpt>
<trkpt lat="-35.2750215" lon="148.9863598">
  <ele>586.83</ele>
  <time>2026-09-01T20:00:33Z</time>
  <course>344.65</course>
  <speed>0.0282842712474619</speed>
  <fix>3d</fix>
</trkpt>
<trkpt lat="-35.2750215" lon="148.9863599">
  <ele>587.12</ele>
  <time>2026-09-01T20:00:33Z</time>
  <course>67.36</course>
  <speed>0.05</speed>
  <fix>3d</fix>
</trkpt>
<trkpt lat="-35.2750215" lon="148.9863599">
  <ele>586.78</ele>
  <time>2026-09-01T20:00:33Z</time>
  <course>344.65</course>
  <speed>0.022360679774997897</speed>
  <fix>3d</fix>
</trkpt>
<trkpt lat="-35.2750215" lon="148.9863601">
  <ele>587.01</ele>
  <time>2026-09-01T20:00:33Z</time>
  <course>70.89</course>
  <speed>0.04</speed>
  <fix>3d</fix>
</trkpt>
<trkpt lat="-35.2750215" lon="148.9863599">
  <ele>586.73</ele>
  <time>2026-09-01T20:00:33Z</time>
  <course>344.65</course>
  <speed>0.022360679774997897</speed>
  <fix>3d</fix>
</trkpt>
<trkpt lat="-35.2750215" lon="148.9863601">
  <ele>587.01</ele>
  <time>2026-09-01T20:00:33Z</time>
  <course>70.89</course>
  <speed>0.04</speed>
  <fix>3d</fix>
</trkpt>
<trkpt lat="-35.2750214" lon="148.9863599">
  <ele>586.67</ele>
  <time>2026-09-01T20:00:33Z</time>
  <course>344.64</course>
  <speed>0.022360679774997897</speed>
  <fix>3d</fix>
</trkpt>
<trkpt lat="-35.2750215" lon="148.9863602">
  <ele>586.91</ele>
  <time>2026-09-01T20:00:33Z</time>
  <course>74.14</course>
  <speed>0.04</speed>
  <fix>3d</fix>
</trkpt>
<trkpt lat="-35.2750214" lon="148.98636">
  <ele>586.62</ele>
  <time>2026-09-01T20:00:33Z</time>
  <course>344.63</course>
  <speed>0.01414213562373095</speed>
  <fix>3d</fix>
</trkpt>
<trkpt lat="-35.2750215" lon="148.9863602">
  <ele>586.91</ele>
  <time>2026-09-01T20:00:33Z</time>
  <course>74.14</course>
  <speed>0.04</speed>
  <fix>3d</fix>
</trkpt>
<trkpt lat="-35.2750214" lon="148.98636">
  <ele>586.57</ele>
  <time>2026-09-01T20:00:33Z</time>
  <course>344.61</course>
  <speed>0.01414213562373095</speed>
  <fix>3d</fix>
</trkpt>
<trkpt lat="-35.2750215" lon="148.9863602">
  <ele>586.81</ele>
  <time>2026-09-01T20:00:33Z</time>
  <course>77.49</course>
  <speed>0.04</speed>
  <fix>3d</fix>
</trkpt>
<trkpt lat="-35.2750214" lon="148.9863601">
  <ele>586.52</ele>
  <time>2026-09-01T20:00:33Z</time>
  <course>344.6</course>
  <speed>0.01414213562373095</speed>
  <fix>3d</fix>
</trkpt>
<trkpt lat="-35.2750215" lon="148.9863602">
  <ele>586.81</ele>
  <time>2026-09-01T20:00:33Z</time>
  <course>77.49</course>
  <speed>0.04</speed>
  <fix>3d</fix>
</trkpt>
<trkpt lat="-35.2750214" lon="148.9863601">
  <ele>586.47</ele>
  <time>2026-09-01T20:00:33Z</time>
  <course>344.59</course>
  <speed>0.01414213562373095</speed>
  <fix>3d</fix>
</trkpt>
<trkpt lat="-35.2750215" lon="148.9863603">
  <ele>586.7</ele>
  <time>2026-09-01T20:00:33Z</time>
  <course>81.24</course>
  <speed>0.03</speed>
  <fix>3d</fix>
</trkpt>
<trkpt lat="-35.2750214" lon="148.9863602">
  <ele>586.42</ele>
  <time>2026-09-01T20:00:33Z</time>
  <course>344.58</course>
  <speed>0.01</speed>
  <fix>3d</fix>
</trkpt>
<trkpt lat="-35.2750215" lon="148.9863603">
  <ele>586.7</ele>
  <time>2026-09-01T20:00:33Z</time>
  <course>81.24</course>
  <speed>0.03</speed>
  <fix>3d</fix>
</trkpt>
<trkpt lat="-35.2750214" lon="148.9863602">
  <ele>586.37</ele>
  <time>2026-09-01T20:00:33Z</time>
  <course>344.57</course>
  <speed>0.01</speed>
  <fix>3d</fix>
</trkpt>
<trkpt lat="-35.2750215" lon="148.9863604">
  <ele>586.6</ele>
  <time>2026-09-01T20:00:33Z</time>
  <course>86.03</course>
  <speed>0.03</speed>
  <fix>3d</fix>
</trkpt>
<trkpt lat="-35.2750214" lon="148.9863602">
  <ele>586.32</ele>
  <time>2026-09-01T20:00:33Z</time>
  <course>344.57</course>
  <speed>0.0</speed>
  <fix>3d</fix>
</trkpt>
<trkpt lat="-35.2750215" lon="148.9863604">
  <ele>586.6</ele>
  <time>2026-09-01T20:00:33Z</time>
  <course>86.03</course>
  <speed>0.03</speed>
  <fix>3d</fix>
</trkpt>
<trkpt lat="-35.2750214" lon="148.9863603">
  <ele>586.27</ele>
  <time>2026-09-01T20:00:33Z</time>
  <course>344.58</course>
  <speed>0.0</speed>
  <fix>3d</fix>
</trkpt>
<trkpt lat="-35.2750215" lon="148.9863605">
  <ele>586.5</ele>
  <time>2026-09-01T20:00:33Z</time>
  <course>92.11</course>
  <speed>0.03</speed>
  <fix>3d</fix>
</trkpt>
<trkpt lat="-35.2750214" lon="148.9863603">
  <ele>586.23</ele>
  <time>2026-09-01T20:00:33Z</time>
  <course>344.59</course>
  <speed>0.0</speed>
  <fix>3d</fix>
</trkpt>
<trkpt lat="-35.2750215" lon="148.9863605">
  <ele>586.5</ele>
  <time>2026-09-01T20:00:33Z</time>
  <course>92.11</course>
  <speed>0.03</speed>
  <fix>3d</fix>
</trkpt>
<trkpt lat="-35.2750214" lon="148.9863603">
  <ele>586.18</ele>
  <time>2026-09-01T20:00:33Z</time>
  <course>344.61</course>
  <speed>0.0</speed>
  <fix>3d</fix>
</trkpt>
<trkpt lat="-35.2750215" lon="148.9863605">
  <ele>586.4</ele>
  <time>2026-09-01T20:00:33Z</time>
  <course>98.72</course>
  <speed>0.02</speed>
  <fix>3d</fix>
</trkpt>
<trkpt lat="-35.2750214" lon="148.9863603">
  <ele>586.13</ele>
  <time>2026-09-01T20:00:33Z</time>
  <course>344.62</course>
  <speed>0.0</speed>
  <fix>3d</fix>
</trkpt>
<trkpt lat="-35.2750215" lon="148.9863605">
  <ele>586.4</ele>
  <time>2026-09-01T20:00:33Z</time>
  <course>98.72</course>
  <speed>0.02</speed>
  <fix>3d</fix>
</trkpt>
<trkpt lat="-35.2750214" lon="148.9863604">
  <ele>586.08</ele>
  <time>2026-09-01T20:00:33Z</time>
  <course>344.63</course>
  <speed>0.0</speed>
  <fix>3d</fix>
</trkpt>
<trkpt lat="-35.2750215" lon="148.9863606">
  <ele>586.3</ele>
  <time>2026-09-01T20:00:33Z</time>
  <course>106.6</course>
  <speed>0.02</speed>
  <fix>3d</fix>
</trkpt>
<trkpt lat="-35.2750214" lon="148.9863604">
  <ele>586.03</ele>
  <time>2026-09-01T20:00:33Z</time>
  <course>344.64</course>
  <speed>0.0</speed>
  <fix>3d</fix>
</trkpt>
<trkpt lat="-35.2750215" lon="148.9863606">
  <ele>586.3</ele>
  <time>2026-09-01T20:00:33Z</time>
  <course>106.6</course>
  <speed>0.02</speed>
  <fix>3d</fix>
</trkpt>
<trkpt lat="-35.2750214" lon="148.9863604">
  <ele>585.98</ele>
  <time>2026-09-01T20:00:33Z</time>
  <course>344.64</course>
  <speed>0.01</speed>
  <fix>3d</fix>
</trkpt>
<trkpt lat="-35.2750215" lon="148.9863607">
  <ele>586.2</ele>
  <time>2026-09-01T20:00:33Z</time>
  <course>117.48</course>
  <speed>0.02</speed>
  <fix>3d</fix>
</trkpt>
<trkpt lat="-35.2750214" lon="148.9863604">
  <ele>585.93</ele>
  <time>2026-09-01T20:00:33Z</time>
  <course>344.65</course>
  <speed>0.01</speed>
  <fix>3d</fix>
</trkpt>
<trkpt lat="-35.2750215" lon="148.9863607">
  <ele>586.2</ele>
  <time>2026-09-01T20:00:33Z</time>
  <course>117.48</course>
  <speed>0.02</speed>
  <fix>3d</fix>
</trkpt>
<trkpt lat="-35.2750214" lon="148.9863604">
  <ele>585.88</ele>
  <time>2026-09-01T20:00:33Z</time>
  <course>344.66</course>
  <speed>0.01</speed>
  <fix>3d</fix>
</trkpt>
<trkpt lat="-35.2750215" lon="148.9863607">
  <ele>586.1</ele>
  <time>2026-09-01T20:00:33Z</time>
  <course>132.17</course>
  <speed>0.01</speed>
  <fix>3d</fix>
</trkpt>
<trkpt lat="-35.2750214" lon="148.9863604">
  <ele>585.83</ele>
  <time>2026-09-01T20:00:33Z</time>
  <course>344.67</course>
  <speed>0.01</speed>
  <fix>3d</fix>
</trkpt>
<trkpt lat="-35.2750215" lon="148.9863607">
  <ele>586.1</ele>
  <time>2026-09-01T20:00:33Z</time>
  <course>132.17</course>
  <speed>0.01</speed>
  <fix>3d</fix>
</trkpt>
<trkpt lat="-35.2750214" lon="148.9863604">
  <ele>585.78</ele>
  <time>2026-09-01T20:00:33Z</time>
  <course>344.66</course>
  <speed>0.01</speed>
  <fix>3d</fix>
</trkpt>
<trkpt lat="-35.2750215" lon="148.9863608">
  <ele>586.0</ele>
  <time>2026-09-01T20:00:33Z</time>
  <course>152.24</course>
  <speed>0.01</speed>
  <fix>3d</fix>
</trkpt>
<trkpt lat="-35.2750214" lon="148.9863604">
  <ele>585.73</ele>
  <time>2026-09-01T20:00:33Z</time>
  <course>344.61</course>
  <speed>0.01</speed>
  <fix>3d</fix>
</trkpt>
<trkpt lat="-35.2750215" lon="148.9863608">
  <ele>586.0</ele>
  <time>2026-09-01T20:00:33Z</time>
  <course>152.24</course>
  <speed>0.01</speed>
  <fix>3d</fix>
</trkpt>
<trkpt lat="-35.2750214" lon="148.9863605">
  <ele>585.68</ele>
  <time>2026-09-01T20:00:33Z</time>
  <course>344.53</course>
  <speed>0.01</speed>
  <fix>3d</fix>
</trkpt>
<trkpt lat="-35.2750215" lon="148.9863608">
  <ele>585.89</ele>
  <time>2026-09-01T20:00:33Z</time>
  <course>165.87</course>
  <speed>0.01</speed>
  <fix>3d</fix>
</trkpt>
<trkpt lat="-35.2750214" lon="148.9863605">
  <ele>585.63</ele>
  <time>2026-09-01T20:00:33Z</time>
  <course>344.44</course>
  <speed>0.01</speed>
  <fix>3d</fix>
</trkpt>
<trkpt lat="-35.2750215" lon="148.9863608">
  <ele>585.89</ele>
  <time>2026-09-01T20:00:33Z</time>
  <course>165.87</course>
  <speed>0.01</speed>
  <fix>3d</fix>
</trkpt>
<trkpt lat="-35.2750214" lon="148.9863605">
  <ele>585.58</ele>
  <time>2026-09-01T20:00:33Z</time>
  <course>344.36</course>
  <speed>0.01</speed>
  <fix>3d</fix>
</trkpt>
<trkpt lat="-35.2750215" lon="148.9863608">
  <ele>585.79</ele>
  <time>2026-09-01T20:00:33Z</time>
  <course>167.49</course>
  <speed>0.01</speed>
  <fix>3d</fix>
</trkpt>
<trkpt lat="-35.2750215" lon="148.9863605">
  <ele>585.53</ele>
  <time>2026-09-01T20:00:33Z</time>
  <course>344.29</course>
  <speed>0.01</speed>
  <fix>3d</fix>
</trkpt>
<trkpt lat="-35.2750215" lon="148.9863608">
  <ele>585.79</ele>
  <time>2026-09-01T20:00:33Z</time>
  <course>167.49</course>
  <speed>0.01</speed>
  <fix>3d</fix>
</trkpt>
<trkpt lat="-35.2750215" lon="148.9863605">
  <ele>585.48</ele>
  <time>2026-09-01T20:00:33Z</time>
  <course>344.23</course>
  <speed>0.01</speed>
  <fix>3d</fix>
</trkpt>
<trkpt lat="-35.2750215" lon="148.9863608">
  <ele>585.69</ele>
  <time>2026-09-01T20:00:33Z</time>
  <course>166.8</course>
  <speed>0.01</speed>
  <fix>3d</fix>
</trkpt>
<trkpt lat="-35.2750215" lon="148.9863605">
  <ele>585.43</ele>
  <time>2026-09-01T20:00:33Z</time>
  <course>344.2</course>
  <speed>0.01</speed>
  <fix>3d</fix>
</trkpt>
<trkpt lat="-35.2750215" lon="148.9863608">
  <ele>585.69</ele>
  <time>2026-09-01T20:00:33Z</time>
  <course>166.8</course>
  <speed>0.01</speed>
  <fix>3d</fix>
</trkpt>
<trkpt lat="-35.2750215" lon="148.9863605">
  <ele>585.38</ele>
  <time>2026-09-01T20:00:33Z</time>
  <course>344.18</course>
  <speed>0.01</speed>
  <fix>3d</fix>
</trkpt>
<trkpt lat="-35.2750215" lon="148.9863608">
  <ele>585.58</ele>
  <time>2026-09-01T20:00:33Z</time>
  <course>166.69</course>
  <speed>0.01</speed>
  <fix>3d</fix>
</trkpt>
<trkpt lat="-35.2750215" lon="148.9863605">
  <ele>585.32</ele>
  <time>2026-09-01T20:00:33Z</time>
  <course>344.17</course>
  <speed>0.01</speed>
  <fix>3d</fix>
</trkpt>
<trkpt lat="-35.2750215" lon="148.9863608">
  <ele>585.58</ele>
  <time>2026-09-01T20:00:33Z</time>
  <course>166.69</course>
  <speed>0.01</speed>
  <fix>3d</fix>
</trkpt>
<trkpt lat="-35.2750215" lon="148.9863605">
  <ele>585.27</ele>
  <time>2026-09-01T20:00:33Z</time>
  <course>344.18</course>
  <speed>0.01</speed>
  <fix>3d</fix>
</trkpt>
<trkpt lat="-35.2750215" lon="148.9863608">
  <ele>585.48</ele>
  <time>2026-09-01T20:00:33Z</time>
  <course>166.24</course>
  <speed>0.01</speed>
  <fix>3d</fix>
</trkpt>
<trkpt lat="-35.2750215" lon="148.9863605">
  <ele>585.22</ele>
  <time>2026-09-01T20:00:33Z</time>
  <course>344.19</course>
  <speed>0.01</speed>
  <fix>3d</fix>
</trkpt>
<trkpt lat="-35.2750215" lon="148.9863608">
  <ele>585.48</ele>
  <time>2026-09-01T20:00:33Z</time>
  <course>166.24</course>
  <speed>0.01</speed>
  <fix>3d</fix>
</trkpt>
<trkpt lat="-35.2750215" lon="148.9863605">
  <ele>585.17</ele>
  <time>2026-09-01T20:00:33Z</time>
  <course>344.21</course>
  <speed>0.01</speed>
  <fix>3d</fix>
</trkpt>
<trkpt lat="-35.2750215" lon="148.9863608">
  <ele>585.38</ele>
  <time>2026-09-01T20:00:33Z</time>
  <course>165.76</course>
  <speed>0.01</speed>
  <fix>3d</fix>
</trkpt>
<trkpt lat="-35.2750215" lon="148.9863605">
  <ele>585.12</ele>
  <time>2026-09-01T20:00:33Z</time>
  <course>344.21</course>
  <speed>0.01</speed>
  <fix>3d</fix>
</trkpt>
<trkpt lat="-35.2750215" lon="148.9863608">
  <ele>585.38</ele>
  <time>2026-09-01T20:00:33Z</time>
  <course>165.76</course>
  <speed>0.01</speed>
  <fix>3d</fix>
</trkpt>
<trkpt lat="-35.2750215" lon="148.9863606">
  <ele>585.07</ele>
  <time>2026-09-01T20:00:33Z</time>
  <course>344.22</course>
  <speed>0.01</speed>
  <fix>3d</fix>
</trkpt>
<trkpt lat="-35.2750215" lon="148.9863608">
  <ele>585.28</ele>
  <time>2026-09-01T20:00:33Z</time>
  <course>165.74</course>
  <speed>0.01</speed>
  <fix>3d</fix>
</trkpt>
<trkpt lat="-35.2750214" lon="148.9863606">
  <ele>585.01</ele>
  <time>2026-09-01T20:00:33Z</time>
  <course>344.21</course>
  <speed>0.01</speed>
  <fix>3d</fix>
</trkpt>
<trkpt lat="-35.2750215" lon="148.9863608">
  <ele>585.28</ele>
  <time>2026-09-01T20:00:33Z</time>
  <course>165.74</course>
  <speed>0.01</speed>
  <fix>3d</fix>
</trkpt>
<trkpt lat="-35.2750214" lon="148.9863606">
  <ele>584.96</ele>
  <time>2026-09-01T20:00:33Z</time>
  <course>344.2</course>
  <speed>0.01414213562373095</speed>
  <fix>3d</fix>
</trkpt>
<trkpt lat="-35.2750216" lon="148.9863608">
  <ele>585.18</ele>
  <time>2026-09-01T20:00:33Z</time>
  <course>164.74</course>
  <speed>0.0</speed>
  <fix>3d</fix>
</trkpt>
<trkpt lat="-35.2750215" lon="148.9863606">
  <ele>584.91</ele>
  <time>2026-09-01T20:00:33Z</time>
  <course>344.18</course>
  <speed>0.01414213562373095</speed>
  <fix>3d</fix>
</trkpt>
<trkpt lat="-35.2750216" lon="148.9863608">
  <ele>585.18</ele>
  <time>2026-09-01T20:00:33Z</time>
  <course>164.74</course>
  <speed>0.0</speed>
  <fix>3d</fix>
</trkpt>
<trkpt lat="-35.2750215" lon="148.9863606">
  <ele>584.86</ele>
  <time>2026-09-01T20:00:33Z</time>
  <course>344.17</course>
  <speed>0.01414213562373095</speed>
  <fix>3d</fix>
</trkpt>
<trkpt lat="-35.2750216" lon="148.9863608">
  <ele>585.08</ele>
  <time>2026-09-01T20:00:33Z</time>
  <course>164.55</course>
  <speed>0.0</speed>
  <fix>3d</fix>
</trkpt>
<trkpt lat="-35.2750215" lon="148.9863606">
  <ele>584.81</ele>
  <time>2026-09-01T20:00:33Z</time>
  <course>344.17</course>
  <speed>0.01414213562373095</speed>
  <fix>3d</fix>
</trkpt>
<trkpt lat="-35.2750216" lon="148.9863608">
  <ele>585.08</ele>
  <time>2026-09-01T20:00:33Z</time>
  <course>164.55</course>
  <speed>0.0</speed>
  <fix>3d</fix>
</trkpt>
<trkpt lat="-35.2750215" lon="148.9863606">
  <ele>584.76</ele>
  <time>2026-09-01T20:00:33Z</time>
  <course>344.17</course>
  <speed>0.01414213562373095</speed>
  <fix>3d</fix>
</trkpt>
<trkpt lat="-35.2750216" lon="148.9863608">
  <ele>584.98</ele>
  <time>2026-09-01T20:00:33Z</time>
  <course>165.52</course>
  <speed>0.0</speed>
  <fix>3d</fix>
</trkpt>
<trkpt lat="-35.2750215" lon="148.9863606">
  <ele>584.71</ele>
  <time>2026-09-01T20:00:33Z</time>
  <course>344.18</course>
  <speed>0.01414213562373095</speed>
  <fix>3d</fix>
</trkpt>
<trkpt lat="-35.2750216" lon="148.9863608">
  <ele>584.98</ele>
  <time>2026-09-01T20:00:33Z</time>
  <course>165.52</course>
  <speed>0.0</speed>
  <fix>3d</fix>
</trkpt>
<trkpt lat="-35.2750215" lon="148.9863606">
  <ele>584.66</ele>
  <time>2026-09-01T20:00:33Z</time>
  <course>344.18</course>
  <speed>0.01414213562373095</speed>
  <fix>3d</fix>
</trkpt>
<trkpt lat="-35.2750216" lon="148.9863608">
  <ele>584.88</ele>
  <time>2026-09-01T20:00:33Z</time>
  <course>165.91</course>
  <speed>0.0</speed>
  <fix>3d</fix>
</trkpt>
<trkpt lat="-35.2750215" lon="148.9863606">
  <ele>584.61</ele>
  <time>2026-09-01T20:00:33Z</time>
  <course>344.17</course>
  <speed>0.01414213562373095</speed>
  <fix>3d</fix>
</trkpt>
<trkpt lat="-35.2750216" lon="148.9863608">
  <ele>584.88</ele>
  <time>2026-09-01T20:00:33Z</time>
  <course>165.91</course>
  <speed>0.0</speed>
  <fix>3d</fix>
</trkpt>
<trkpt lat="-35.2750215" lon="148.9863606">
  <ele>584.56</ele>
  <time>2026-09-01T20:00:33Z</time>
  <course>344.16</course>
  <speed>0.01414213562373095</speed>
  <fix>3d</fix>
</trkpt>
<trkpt lat="-35.2750216" lon="148.9863608">
  <ele>584.78</ele>
  <time>2026-09-01T20:00:33Z</time>
  <course>164.92</course>
  <speed>0.0</speed>
  <fix>3d</fix>
</trkpt>
<trkpt lat="-35.2750215" lon="148.9863606">
  <ele>584.52</ele>
  <time>2026-09-01T20:00:33Z</time>
  <course>344.15</course>
  <speed>0.01414213562373095</speed>
  <fix>3d</fix>
</trkpt>
<trkpt lat="-35.2750216" lon="148.9863608">
  <ele>584.78</ele>
  <time>2026-09-01T20:00:33Z</time>
  <course>164.92</course>
  <speed>0.0</speed>
  <fix>3d</fix>
</trkpt>
<trkpt lat="-35.2750215" lon="148.9863606">
  <ele>584.47</ele>
  <time>2026-09-01T20:00:33Z</time>
  <course>344.14</course>
  <speed>0.01414213562373095</speed>
  <fix>3d</fix>
</trkpt>
<trkpt lat="-35.2750216" lon="148.9863608">
  <ele>584.68</ele>
  <time>2026-09-01T20:00:33Z</time>
  <course>165.07</course>
  <speed>0.0</speed>
  <fix>3d</fix>
</trkpt>
<trkpt lat="-35.2750215" lon="148.9863606">
  <ele>584.42</ele>
  <time>2026-09-01T20:00:33Z</time>
  <course>344.14</course>
  <speed>0.01414213562373095</speed>
  <fix>3d</fix>
</trkpt>
<trkpt lat="-35.2750216" lon="148.9863608">
  <ele>584.68</ele>
  <time>2026-09-01T20:00:33Z</time>
  <course>165.07</course>
  <speed>0.0</speed>
  <fix>3d</fix>
</trkpt>
<trkpt lat="-35.2750215" lon="148.9863606">
  <ele>584.37</ele>
  <time>2026-09-01T20:00:33Z</time>
  <course>344.13</course>
  <speed>0.01414213562373095</speed>
  <fix>3d</fix>
</trkpt>
<trkpt lat="-35.2750216" lon="148.9863608">
  <ele>584.58</ele>
  <time>2026-09-01T20:00:33Z</time>
  <course>165.46</course>
  <speed>0.0</speed>
  <fix>3d</fix>
</trkpt>
<trkpt lat="-35.2750215" lon="148.9863606">
  <ele>584.32</ele>
  <time>2026-09-01T20:00:33Z</time>
  <course>344.14</course>
  <speed>0.01414213562373095</speed>
  <fix>3d</fix>
</trkpt>
<trkpt lat="-35.2750216" lon="148.9863608">
  <ele>584.58</ele>
  <time>2026-09-01T20:00:33Z</time>
  <course>165.46</course>
  <speed>0.0</speed>
  <fix>3d</fix>
</trkpt>
<trkpt lat="-35.2750215" lon="148.9863606">
  <ele>584.28</ele>
  <time>2026-09-01T20:00:33Z</time>
  <course>344.14</course>
  <speed>0.01414213562373095</speed>
  <fix>3d</fix>
</trkpt>
<trkpt lat="-35.2750216" lon="148.9863608">
  <ele>584.48</ele>
  <time>2026-09-01T20:00:33Z</time>
  <course>165.05</course>
  <speed>0.0</speed>
  <fix>3d</fix>
</trkpt>
<trkpt lat="-35.2750215" lon="148.9863606">
  <ele>584.23</ele>
  <time>2026-09-01T20:00:33Z</time>
  <course>344.14</course>
  <speed>0.01414213562373095</speed>
  <fix>3d</fix>
</trkpt>
<trkpt lat="-35.2750216" lon="148.9863608">
  <ele>584.48</ele>
  <time>2026-09-01T20:00:33Z</time>
  <course>165.05</course>
  <speed>0.0</speed>
  <fix>3d</fix>
</trkpt>
<trkpt lat="-35.2750215" lon="148.9863606">
  <ele>584.18</ele>
  <time>2026-09-01T20:00:33Z</time>
  <course>344.13</course>
  <speed>0.01414213562373095</speed>
  <fix>3d</fix>
</trkpt>
<trkpt lat="-35.2750216" lon="148.9863608">
  <ele>584.39</ele>
  <time>2026-09-01T20:00:33Z</time>
  <course>164.41</course>
  <speed>0.0</speed>
  <fix>3d</fix>
</trkpt>
<trkpt lat="-35.2750215" lon="148.9863606">
  <ele>584.13</ele>
  <time>2026-09-01T20:00:33Z</time>
  <course>344.12</course>
  <speed>0.01414213562373095</speed>
  <fix>3d</fix>
</trkpt>
<trkpt lat="-35.2750216" lon="148.9863608">
  <ele>584.39</ele>
  <time>2026-09-01T20:00:33Z</time>
  <course>164.41</course>
  <speed>0.0</speed>
  <fix>3d</fix>
</trkpt>
<trkpt lat="-35.2750215" lon="148.9863606">
  <ele>584.08</ele>
  <time>2026-09-01T20:00:33Z</time>
  <course>344.11</course>
  <speed>0.01414213562373095</speed>
  <fix>3d</fix>
</trkpt>
<trkpt lat="-35.2750217" lon="148.9863609">
  <ele>584.28</ele>
  <time>2026-09-01T20:00:33Z</time>
  <course>163.63</course>
  <speed>0.0</speed>
  <fix>3d</fix>
</trkpt>
<trkpt lat="-35.2750215" lon="148.9863606">
  <ele>584.02</ele>
  <time>2026-09-01T20:00:33Z</time>
  <course>344.09</course>
  <speed>0.01414213562373095</speed>
  <fix>3d</fix>
</trkpt>
<trkpt lat="-35.2750217" lon="148.9863609">
  <ele>584.28</ele>
  <time>2026-09-01T20:00:33Z</time>
  <course>163.63</course>
  <speed>0.0</speed>
  <fix>3d</fix>
</trkpt>
<trkpt lat="-35.2750215" lon="148.9863606">
  <ele>583.97</ele>
  <time>2026-09-01T20:00:33Z</time>
  <course>344.08</course>
  <speed>0.01414213562373095</speed>
  <fix>3d</fix>
</trkpt>
<trkpt lat="-35.2750218" lon="148.9863609">
  <ele>584.18</ele>
  <time>2026-09-01T20:00:33Z</time>
  <course>163.24</course>
  <speed>0.0</speed>
  <fix>3d</fix>
</trkpt>
<trkpt lat="-35.2750215" lon="148.9863606">
  <ele>583.92</ele>
  <time>2026-09-01T20:00:33Z</time>
  <course>344.08</course>
  <speed>0.01414213562373095</speed>
  <fix>3d</fix>
</trkpt>
<trkpt lat="-35.2750218" lon="148.9863609">
  <ele>584.18</ele>
  <time>2026-09-01T20:00:33Z</time>
  <course>163.24</course>
  <speed>0.0</speed>
  <fix>3d</fix>
</trkpt>
<trkpt lat="-35.2750215" lon="148.9863606">
  <ele>583.87</ele>
  <time>2026-09-01T20:00:33Z</time>
  <course>344.08</course>
  <speed>0.01414213562373095</speed>
  <fix>3d</fix>
</trkpt>
<trkpt lat="-35.2750218" lon="148.9863609">
  <ele>584.08</ele>
  <time>2026-09-01T20:00:33Z</time>
  <course>164.18</course>
  <speed>0.0</speed>
  <fix>3d</fix>
</trkpt>
<trkpt lat="-35.2750215" lon="148.9863606">
  <ele>583.82</ele>
  <time>2026-09-01T20:00:33Z</time>
  <course>344.07</course>
  <speed>0.01414213562373095</speed>
  <fix>3d</fix>
</trkpt>
<trkpt lat="-35.2750218" lon="148.9863609">
  <ele>584.08</ele>
  <time>2026-09-01T20:00:33Z</time>
  <course>164.18</course>
  <speed>0.0</speed>
  <fix>3d</fix>
</trkpt>
<trkpt lat="-35.2750215" lon="148.9863606">
  <ele>583.77</ele>
  <time>2026-09-01T20:00:33Z</time>
  <course>344.06</course>
  <speed>0.01414213562373095</speed>
  <fix>3d</fix>
</trkpt>
<trkpt lat="-35.2750218" lon="148.9863609">
  <ele>583.98</ele>
  <time>2026-09-01T20:00:33Z</time>
  <course>163.52</course>
  <speed>0.0</speed>
  <fix>3d</fix>
</trkpt>
<trkpt lat="-35.2750215" lon="148.9863606">
  <ele>583.72</ele>
  <time>2026-09-01T20:00:33Z</time>
  <course>344.05</course>
  <speed>0.01414213562373095</speed>
  <fix>3d</fix>
</trkpt>
<trkpt lat="-35.2750218" lon="148.9863609">
  <ele>583.98</ele>
  <time>2026-09-01T20:00:33Z</time>
  <course>163.52</course>
  <speed>0.0</speed>
  <fix>3d</fix>
</trkpt>
<trkpt lat="-35.2750215" lon="148.9863606">
  <ele>583.67</ele>
  <time>2026-09-01T20:00:33Z</time>
  <course>344.04</course>
  <speed>0.01414213562373095</speed>
  <fix>3d</fix>
</trkpt>
<trkpt lat="-35.2750218" lon="148.9863609">
  <ele>583.88</ele>
  <time>2026-09-01T20:00:33Z</time>
  <course>160.5</course>
  <speed>0.0</speed>
  <fix>3d</fix>
</trkpt>
<trkpt lat="-35.2750215" lon="148.9863606">
  <ele>583.62</ele>
  <time>2026-09-01T20:00:33Z</time>
  <course>344.03</course>
  <speed>0.01414213562373095</speed>
  <fix>3d</fix>
</trkpt>
<trkpt lat="-35.2750218" lon="148.9863609">
  <ele>583.88</ele>
  <time>2026-09-01T20:00:33Z</time>
  <course>160.5</course>
  <speed>0.0</speed>
  <fix>3d</fix>
</trkpt>
<trkpt lat="-35.2750216" lon="148.9863607">
  <ele>583.57</ele>
  <time>2026-09-01T20:00:33Z</time>
  <course>344.02</course>
  <speed>0.01414213562373095</speed>
  <fix>3d</fix>
</trkpt>
<trkpt lat="-35.2750218" lon="148.9863609">
  <ele>583.78</ele>
  <time>2026-09-01T20:00:33Z</time>
  <course>158.13</course>
  <speed>0.0</speed>
  <fix>3d</fix>
</trkpt>
<trkpt lat="-35.2750216" lon="148.9863606">
  <ele>583.52</ele>
  <time>2026-09-01T20:00:33Z</time>
  <course>344.01</course>
  <speed>0.01414213562373095</speed>
  <fix>3d</fix>
</trkpt>
<trkpt lat="-35.2750218" lon="148.9863609">
  <ele>583.78</ele>
  <time>2026-09-01T20:00:33Z</time>
  <course>158.13</course>
  <speed>0.0</speed>
  <fix>3d</fix>
</trkpt>
<trkpt lat="-35.2750216" lon="148.9863607">
  <ele>583.47</ele>
  <time>2026-09-01T20:00:33Z</time>
  <course>344.0</course>
  <speed>0.01414213562373095</speed>
  <fix>3d</fix>
</trkpt>
<trkpt lat="-35.2750218" lon="148.9863609">
  <ele>583.68</ele>
  <time>2026-09-01T20:00:33Z</time>
  <course>152.9</course>
  <speed>0.0</speed>
  <fix>3d</fix>
</trkpt>
<trkpt lat="-35.2750216" lon="148.9863607">
  <ele>583.42</ele>
  <time>2026-09-01T20:00:33Z</time>
  <course>344.0</course>
  <speed>0.01414213562373095</speed>
  <fix>3d</fix>
</trkpt>
<trkpt lat="-35.2750218" lon="148.9863609">
  <ele>583.68</ele>
  <time>2026-09-01T20:00:33Z</time>
  <course>152.9</course>
  <speed>0.0</speed>
  <fix>3d</fix>
</trkpt>
<trkpt lat="-35.2750216" lon="148.9863607">
  <ele>583.37</ele>
  <time>2026-09-01T20:00:33Z</time>
  <course>344.0</course>
  <speed>0.01414213562373095</speed>
  <fix>3d</fix>
</trkpt>
<trkpt lat="-35.2750218" lon="148.9863609">
  <ele>583.58</ele>
  <time>2026-09-01T20:00:33Z</time>
  <course>127.96</course>
  <speed>0.0</speed>
  <fix>3d</fix>
</trkpt>
<trkpt lat="-35.2750216" lon="148.9863607">
  <ele>583.35</ele>
  <time>2026-09-01T20:00:33Z</time>
  <course>344.0</course>
  <speed>0.01414213562373095</speed>
  <fix>3d</fix>
</trkpt>
<trkpt lat="-35.2750218" lon="148.9863609">
  <ele>583.58</ele>
  <time>2026-09-01T20:00:33Z</time>
  <course>127.96</course>
  <speed>0.0</speed>
  <fix>3d</fix>
</trkpt>
<trkpt lat="-35.2750216" lon="148.9863607">
  <ele>583.36</ele>
  <time>2026-09-01T20:00:33Z</time>
  <course>344.0</course>
  <speed>0.01414213562373095</speed>
  <fix>3d</fix>
</trkpt>
<trkpt lat="-35.2750218" lon="148.9863609">
  <ele>583.49</ele>
  <time>2026-09-01T20:00:33Z</time>
  <course>6.73</course>
  <speed>0.0</speed>
  <fix>3d</fix>
</trkpt>
<trkpt lat="-35.2750216" lon="148.9863607">
  <ele>583.38</ele>
  <time>2026-09-01T20:00:33Z</time>
  <course>344.0</course>
  <speed>0.01414213562373095</speed>
  <fix>3d</fix>
</trkpt>
<trkpt lat="-35.2750218" lon="148.9863609">
  <ele>583.49</ele>
  <time>2026-09-01T20:00:33Z</time>
  <course>6.73</course>
  <speed>0.0</speed>
  <fix>3d</fix>
</trkpt>
<trkpt lat="-35.2750216" lon="148.9863607">
  <ele>583.38</ele>
  <time>2026-09-01T20:00:33Z</time>
  <course>344.0</course>
  <speed>0.01414213562373095</speed>
  <fix>3d</fix>
</trkpt>
<trkpt lat="-35.2750218" lon="148.9863609">
  <ele>583.47</ele>
  <time>2026-09-01T20:00:33Z</time>
  <course>161.23</course>
  <speed>0.0</speed>
  <fix>3d</fix>
</trkpt>
<trkpt lat="-35.2750216" lon="148.9863607">
  <ele>583.38</ele>
  <time>2026-09-01T20:00:33Z</time>
  <course>344.0</course>
  <speed>0.01414213562373095</speed>
  <fix>3d</fix>
</trkpt>
<trkpt lat="-35.2750218" lon="148.9863609">
  <ele>583.47</ele>
  <time>2026-09-01T20:00:33Z</time>
  <course>161.23</course>
  <speed>0.0</speed>
  <fix>3d</fix>
</trkpt>
<trkpt lat="-35.2750216" lon="148.9863607">
  <ele>583.38</ele>
  <time>2026-09-01T20:00:33Z</time>
  <course>344.0</course>
  <speed>0.01414213562373095</speed>
  <fix>3d</fix>
</trkpt>
<trkpt lat="-35.2750218" lon="148.9863609">
  <ele>583.48</ele>
  <time>2026-09-01T20:00:33Z</time>
  <course>161.06</course>
  <speed>0.0</speed>
  <fix>3d</fix>
</trkpt>
<trkpt lat="-35.2750216" lon="148.9863607">
  <ele>583.38</ele>
  <time>2026-09-01T20:00:33Z</time>
  <course>344.0</course>
  <speed>0.022360679774997897</speed>
  <fix>3d</fix>
</trkpt>
<trkpt lat="-35.2750218" lon="148.9863609">
  <ele>583.48</ele>
  <time>2026-09-01T20:00:33Z</time>
  <course>161.06</course>
  <speed>0.0</speed>
  <fix>3d</fix>
</trkpt>
<trkpt lat="-35.2750216" lon="148.9863607">
  <ele>583.38</ele>
  <time>2026-09-01T20:00:33Z</time>
  <course>344.0</course>
  <speed>0.01414213562373095</speed>
  <fix>3d</fix>
</trkpt>
<trkpt lat="-35.2750218" lon="148.9863609">
  <ele>583.49</ele>
  <time>2026-09-01T20:00:33Z</time>
  <course>341.18</course>
  <speed>0.0</speed>
  <fix>3d</fix>
</trkpt>
<trkpt lat="-35.2750216" lon="148.9863607">
  <ele>583.38</ele>
  <time>2026-09-01T20:00:33Z</time>
  <course>344.0</course>
  <speed>0.022360679774997897</speed>
  <fix>3d</fix>
</trkpt>
<trkpt lat="-35.2750218" lon="148.9863609">
  <ele>583.49</ele>
  <time>2026-09-01T20:00:33Z</time>
  <course>341.18</course>
  <speed>0.0</speed>
  <fix>3d</fix>
</trkpt>
<trkpt lat="-35.2750216" lon="148.9863607">
  <ele>583.38</ele>
  <time>2026-09-01T20:00:33Z</time>
  <course>344.0</course>
  <speed>0.022360679774997897</speed>
  <fix>3d</fix>
</trkpt>
<trkpt lat="-35.2750218" lon="148.9863609">
  <ele>583.49</ele>
  <time>2026-09-01T20:00:33Z</time>
  <course>341.12</course>
  <speed>0.0</speed>
  <fix>3d</fix>
</trkpt>
<trkpt lat="-35.2750216" lon="148.9863607">
  <ele>583.38</ele>
  <time>2026-09-01T20:00:33Z</time>
  <course>344.0</course>
  <speed>0.022360679774997897</speed>
  <fix>3d</fix>
</trkpt>
<trkpt lat="-35.2750218" lon="148.9863609">
  <ele>583.49</ele>
  <time>2026-09-01T20:00:33Z</time>
  <course>341.12</course>
  <speed>0.0</speed>
  <fix>3d</fix>
</trkpt>
<trkpt lat="-35.2750216" lon="148.9863607">
  <ele>583.38</ele>
  <time>2026-09-01T20:00:33Z</time>
  <course>344.0</course>
  <speed>0.022360679774997897</speed>
  <fix>3d</fix>
</trkpt>
<trkpt lat="-35.2750218" lon="148.9863609">
  <ele>583.49</ele>
  <time>2026-09-01T20:00:33Z</time>
  <course>160.89</course>
  <speed>0.0</speed>
  <fix>3d</fix>
</trkpt>
<trkpt lat="-35.2750216" lon="148.9863607">
  <ele>583.38</ele>
  <time>2026-09-01T20:00:33Z</time>
  <course>344.0</course>
  <speed>0.022360679774997897</speed>
  <fix>3d</fix>
</trkpt>
<trkpt lat="-35.2750218" lon="148.9863609">
  <ele>583.49</ele>
  <time>2026-09-01T20:00:33Z</time>
  <course>160.89</course>
  <speed>0.0</speed>
  <fix>3d</fix>
</trkpt>
<trkpt lat="-35.2750216" lon="148.9863607">
  <ele>583.38</ele>
  <time>2026-09-01T20:00:33Z</time>
  <course>344.0</course>
  <speed>0.022360679774997897</speed>
  <fix>3d</fix>
</trkpt>
<trkpt lat="-35.2750218" lon="148.9863609">
  <ele>583.49</ele>
  <time>2026-09-01T20:00:33Z</time>
  <course>159.86</course>
  <speed>0.0</speed>
  <fix>3d</fix>
</trkpt>
<trkpt lat="-35.2750216" lon="148.9863607">
  <ele>583.38</ele>
  <time>2026-09-01T20:00:33Z</time>
  <course>344.0</course>
  <speed>0.022360679774997897</speed>
  <fix>3d</fix>
</trkpt>
<trkpt lat="-35.2750218" lon="148.9863609">
  <ele>583.49</ele>
  <time>2026-09-01T20:00:33Z</time>
  <course>159.86</course>
  <speed>0.0</speed>
  <fix>3d</fix>
</trkpt>
<trkpt lat="-35.2750216" lon="148.9863607">
  <ele>583.38</ele>
  <time>2026-09-01T20:00:33Z</time>
  <course>344.0</course>
  <speed>0.022360679774997897</speed>
  <fix>3d</fix>
</trkpt>
<trkpt lat="-35.2750218" lon="148.9863609">
  <ele>583.49</ele>
  <time>2026-09-01T20:00:33Z</time>
  <course>341.38</course>
  <speed>0.0</speed>
  <fix>3d</fix>
</trkpt>
<trkpt lat="-35.2750216" lon="148.9863607">
  <ele>583.38</ele>
  <time>2026-09-01T20:00:33Z</time>
  <course>344.0</course>
  <speed>0.022360679774997897</speed>
  <fix>3d</fix>
</trkpt>
<trkpt lat="-35.2750218" lon="148.9863609">
  <ele>583.49</ele>
  <time>2026-09-01T20:00:33Z</time>
  <course>341.38</course>
  <speed>0.0</speed>
  <fix>3d</fix>
</trkpt>
<trkpt lat="-35.2750216" lon="148.9863607">
  <ele>583.38</ele>
  <time>2026-09-01T20:00:33Z</time>
  <course>344.0</course>
  <speed>0.022360679774997897</speed>
  <fix>3d</fix>
</trkpt>
<trkpt lat="-35.2750218" lon="148.9863609">
  <ele>583.49</ele>
  <time>2026-09-01T20:00:33Z</time>
  <course>133.24</course>
  <speed>0.0</speed>
  <fix>3d</fix>
</trkpt>
<trkpt lat="-35.2750216" lon="148.9863607">
  <ele>583.38</ele>
  <time>2026-09-01T20:00:33Z</time>
  <course>344.0</course>
  <speed>0.022360679774997897</speed>
  <fix>3d</fix>
</trkpt>
<trkpt lat="-35.2750218" lon="148.9863609">
  <ele>583.49</ele>
  <time>2026-09-01T20:00:33Z</time>
  <course>133.24</course>
  <speed>0.0</speed>
  <fix>3d</fix>
</trkpt>
<trkpt lat="-35.2750217" lon="148.9863607">
  <ele>583.38</ele>
  <time>2026-09-01T20:00:33Z</time>
  <course>344.0</course>
  <speed>0.022360679774997897</speed>
  <fix>3d</fix>
</trkpt>
<trkpt lat="-35.2750218" lon="148.9863609">
  <ele>583.49</ele>
  <time>2026-09-01T20:00:33Z</time>
  <course>159.45</course>
  <speed>0.0</speed>
  <fix>3d</fix>
</trkpt>
<trkpt lat="-35.2750216" lon="148.9863607">
  <ele>583.38</ele>
  <time>2026-09-01T20:00:33Z</time>
  <course>344.0</course>
  <speed>0.022360679774997897</speed>
  <fix>3d</fix>
</trkpt>
<trkpt lat="-35.2750218" lon="148.9863609">
  <ele>583.49</ele>
  <time>2026-09-01T20:00:33Z</time>
  <course>159.45</course>
  <speed>0.0</speed>
  <fix>3d</fix>
</trkpt>
<trkpt lat="-35.2750217" lon="148.9863607">
  <ele>583.38</ele>
  <time>2026-09-01T20:00:33Z</time>
  <course>344.0</course>
  <speed>0.022360679774997897</speed>
  <fix>3d</fix>
</trkpt>
<trkpt lat="-35.2750218" lon="148.9863609">
  <ele>583.49</ele>
  <time>2026-09-01T20:00:33Z</time>
  <course>143.82</course>
  <speed>0.0</speed>
  <fix>3d</fix>
</trkpt>
<trkpt lat="-35.2750217" lon="148.9863607">
  <ele>583.39</ele>
  <time>2026-09-01T20:00:33Z</time>
  <course>344.0</course>
  <speed>0.022360679774997897</speed>
  <fix>3d</fix>
</trkpt>
<trkpt lat="-35.2750218" lon="148.9863609">
  <ele>583.49</ele>
  <time>2026-09-01T20:00:33Z</time>
  <course>143.82</course>
  <speed>0.0</speed>
  <fix>3d</fix>
</trkpt>
<trkpt lat="-35.2750217" lon="148.9863607">
  <ele>583.39</ele>
  <time>2026-09-01T20:00:33Z</time>
  <course>344.0</course>
  <speed>0.022360679774997897</speed>
  <fix>3d</fix>
</trkpt>
<trkpt lat="-35.2750218" lon="148.9863609">
  <ele>583.49</ele>
  <time>2026-09-01T20:00:33Z</time>
  <course>320.51</course>
  <speed>0.0</speed>
  <fix>3d</fix>
</trkpt>
<trkpt lat="-35.2750217" lon="148.9863607">
  <ele>583.39</ele>
  <time>2026-09-01T20:00:33Z</time>
  <course>344.0</course>
  <speed>0.022360679774997897</speed>
  <fix>3d</fix>
</trkpt>
<trkpt lat="-35.2750218" lon="148.9863609">
  <ele>583.49</ele>
  <time>2026-09-01T20:00:33Z</time>
  <course>320.51</course>
  <speed>0.0</speed>
  <fix>3d</fix>
</trkpt>
<trkpt lat="-35.2750217" lon="148.9863607">
  <ele>583.39</ele>
  <time>2026-09-01T20:00:33Z</time>
  <course>344.0</course>
  <speed>0.022360679774997897</speed>
  <fix>3d</fix>
</trkpt>
<trkpt lat="-35.2750218" lon="148.9863609">
  <ele>583.49</ele>
  <time>2026-09-01T20:00:33Z</time>
  <course>300.66</course>
  <speed>0.0</speed>
  <fix>3d</fix>
</trkpt>
<trkpt lat="-35.2750217" lon="148.9863607">
  <ele>583.39</ele>
  <time>2026-09-01T20:00:33Z</time>
  <course>344.0</course>
  <speed>0.022360679774997897</speed>
  <fix>3d</fix>
</trkpt>
<trkpt lat="-35.2750218" lon="148.9863609">
  <ele>583.49</ele>
  <time>2026-09-01T20:00:33Z</time>
  <course>300.66</course>
  <speed>0.0</speed>
  <fix>3d</fix>
</trkpt>
<trkpt lat="-35.2750217" lon="148.9863607">
  <ele>583.39</ele>
  <time>2026-09-01T20:00:33Z</time>
  <course>344.0</course>
  <speed>0.022360679774997897</speed>
  <fix>3d</fix>
</trkpt>
<trkpt lat="-35.2750218" lon="148.9863609">
  <ele>583.49</ele>
  <time>2026-09-01T20:00:33Z</time>
  <course>299.56</course>
  <speed>0.0</speed>
  <fix>3d</fix>
</trkpt>
<trkpt lat="-35.2750217" lon="148.9863607">
  <ele>583.39</ele>
  <time>2026-09-01T20:00:33Z</time>
  <course>344.0</course>
  <speed>0.022360679774997897</speed>
  <fix>3d</fix>
</trkpt>
<trkpt lat="-35.2750218" lon="148.9863609">
  <ele>583.49</ele>
  <time>2026-09-01T20:00:33Z</time>
  <course>299.56</course>
  <speed>0.0</speed>
  <fix>3d</fix>
</trkpt>
<trkpt lat="-35.2750217" lon="148.9863607">
  <ele>583.39</ele>
  <time>2026-09-01T20:00:33Z</time>
  <course>344.0</course>
  <speed>0.022360679774997897</speed>
  <fix>3d</fix>
</trkpt>
<trkpt lat="-35.2750218" lon="148.9863609">
  <ele>583.49</ele>
  <time>2026-09-01T20:00:33Z</time>
  <course>165.11</course>
  <speed>0.0</speed>
  <fix>3d</fix>
</trkpt>
<trkpt lat="-35.2750217" lon="148.9863607">
  <ele>583.39</ele>
  <time>2026-09-01T20:00:33Z</time>
  <course>344.0</course>
  <speed>0.022360679774997897</speed>
  <fix>3d</fix>
</trkpt>
<trkpt lat="-35.2750218" lon="148.9863609">
  <ele>583.49</ele>
  <time>2026-09-01T20:00:33Z</time>
  <course>165.11</course>
  <speed>0.0</speed>
  <fix>3d</fix>
</trkpt>
<trkpt lat="-35.2750217" lon="148.9863607">
  <ele>583.39</ele>
  <time>2026-09-01T20:00:33Z</time>
  <course>344.0</course>
  <speed>0.022360679774997897</speed>
  <fix>3d</fix>
</trkpt>
<trkpt lat="-35.2750218" lon="148.9863609">
  <ele>583.49</ele>
  <time>2026-09-01T20:00:33Z</time>
  <course>249.49</course>
  <speed>0.0</speed>
  <fix>3d</fix>
</trkpt>
<trkpt lat="-35.2750217" lon="148.9863607">
  <ele>583.39</ele>
  <time>2026-09-01T20:00:33Z</time>
  <course>344.0</course>
  <speed>0.022360679774997897</speed>
  <fix>3d</fix>
</trkpt>
<trkpt lat="-35.2750218" lon="148.9863609">
  <ele>583.49</ele>
  <time>2026-09-01T20:00:33Z</time>
  <course>249.49</course>
  <speed>0.0</speed>
  <fix>3d</fix>
</trkpt>
<trkpt lat="-35.2750217" lon="148.9863607">
  <ele>583.39</ele>
  <time>2026-09-01T20:00:33Z</time>
  <course>344.0</course>
  <speed>0.022360679774997897</speed>
  <fix>3d</fix>
</trkpt>
<trkpt lat="-35.2750218" lon="148.9863609">
  <ele>583.49</ele>
  <time>2026-09-01T20:00:33Z</time>
  <course>300.34</course>
  <speed>0.0</speed>
  <fix>3d</fix>
</trkpt>
<trkpt lat="-35.2750217" lon="148.9863607">
  <ele>583.4</ele>
  <time>2026-09-01T20:00:33Z</time>
  <course>344.0</course>
  <speed>0.022360679774997897</speed>
  <fix>3d</fix>
</trkpt>
<trkpt lat="-35.2750218" lon="148.9863609">
  <ele>583.49</ele>
  <time>2026-09-01T20:00:33Z</time>
  <course>300.34</course>
  <speed>0.0</speed>
  <fix>3d</fix>
</trkpt>
<trkpt lat="-35.2750217" lon="148.9863607">
  <ele>583.4</ele>
  <time>2026-09-01T20:00:33Z</time>
  <course>344.0</course>
  <speed>0.022360679774997897</speed>
  <fix>3d</fix>
</trkpt>
<trkpt lat="-35.2750218" lon="148.9863609">
  <ele>583.49</ele>
  <time>2026-09-01T20:00:33Z</time>
  <course>83.93</course>
  <speed>0.0</speed>
  <fix>3d</fix>
</trkpt>
<trkpt lat="-35.2750217" lon="148.9863607">
  <ele>583.4</ele>
  <time>2026-09-01T20:00:33Z</time>
  <course>344.0</course>
  <speed>0.022360679774997897</speed>
  <fix>3d</fix>
</trkpt>
<trkpt lat="-35.2750218" lon="148.9863609">
  <ele>583.49</ele>
  <time>2026-09-01T20:00:33Z</time>
  <course>83.93</course>
  <speed>0.0</speed>
  <fix>3d</fix>
</trkpt>
<trkpt lat="-35.2750217" lon="148.9863607">
  <ele>583.4</ele>
  <time>2026-09-01T20:00:33Z</time>
  <course>344.0</course>
  <speed>0.022360679774997897</speed>
  <fix>3d</fix>
</trkpt>
<trkpt lat="-35.2750218" lon="148.9863609">
  <ele>583.49</ele>
  <time>2026-09-01T20:00:33Z</time>
  <course>99.3</course>
  <speed>0.0</speed>
  <fix>3d</fix>
</trkpt>
<trkpt lat="-35.2750217" lon="148.9863607">
  <ele>583.4</ele>
  <time>2026-09-01T20:00:33Z</time>
  <course>344.0</course>
  <speed>0.022360679774997897</speed>
  <fix>3d</fix>
</trkpt>
<trkpt lat="-35.2750218" lon="148.9863609">
  <ele>583.49</ele>
  <time>2026-09-01T20:00:33Z</time>
  <course>99.3</course>
  <speed>0.0</speed>
  <fix>3d</fix>
</trkpt>
<trkpt lat="-35.2750217" lon="148.9863607">
  <ele>583.4</ele>
  <time>2026-09-01T20:00:33Z</time>
  <course>344.0</course>
  <speed>0.022360679774997897</speed>
  <fix>3d</fix>
</trkpt>
<trkpt lat="-35.2750218" lon="148.9863609">
  <ele>583.49</ele>
  <time>2026-09-01T20:00:33Z</time>
  <course>159.33</course>
  <speed>0.0</speed>
  <fix>3d</fix>
</trkpt>
<trkpt lat="-35.2750217" lon="148.9863607">
  <ele>583.4</ele>
  <time>2026-09-01T20:00:33Z</time>
  <course>344.0</course>
  <speed>0.022360679774997897</speed>
  <fix>3d</fix>
</trkpt>
<trkpt lat="-35.2750218" lon="148.9863609">
  <ele>583.49</ele>
  <time>2026-09-01T20:00:33Z</time>
  <course>159.33</course>
  <speed>0.0</speed>
  <fix>3d</fix>
</trkpt>
<trkpt lat="-35.2750217" lon="148.9863607">
  <ele>583.39</ele>
  <time>2026-09-01T20:00:33Z</time>
  <course>344.0</course>
  <speed>0.022360679774997897</speed>
  <fix>3d</fix>
</trkpt>
<trkpt lat="-35.2750218" lon="148.9863609">
  <ele>583.49</ele>
  <time>2026-09-01T20:00:33Z</time>
  <course>280.54</course>
  <speed>0.0</speed>
  <fix>3d</fix>
</trkpt>
<trkpt lat="-35.2750217" lon="148.9863607">
  <ele>583.39</ele>
  <time>2026-09-01T20:00:33Z</time>
  <course>344.0</course>
  <speed>0.022360679774997897</speed>
  <fix>3d</fix>
</trkpt>
<trkpt lat="-35.2750218" lon="148.9863609">
  <ele>583.49</ele>
  <time>2026-09-01T20:00:33Z</time>
  <course>280.54</course>
  <speed>0.0</speed>
  <fix>3d</fix>
</trkpt>
<trkpt lat="-35.2750217" lon="148.9863607">
  <ele>583.4</ele>
  <time>2026-09-01T20:00:33Z</time>
  <course>344.0</course>
  <speed>0.022360679774997897</speed>
  <fix>3d</fix>
</trkpt>
<trkpt lat="-35.2750218" lon="148.9863609">
  <ele>583.49</ele>
  <time>2026-09-01T20:00:33Z</time>
  <course>87.45</course>
  <speed>0.0</speed>
  <fix>3d</fix>
</trkpt>
<trkpt lat="-35.2750217" lon="148.9863607">
  <ele>583.4</ele>
  <time>2026-09-01T20:00:33Z</time>
  <course>344.0</course>
  <speed>0.022360679774997897</speed>
  <fix>3d</fix>
</trkpt>
<trkpt lat="-35.2750218" lon="148.9863609">
  <ele>583.49</ele>
  <time>2026-09-01T20:00:33Z</time>
  <course>87.45</course>
  <speed>0.0</speed>
  <fix>3d</fix>
</trkpt>
<trkpt lat="-35.2750217" lon="148.9863607">
  <ele>583.4</ele>
  <time>2026-09-01T20:00:33Z</time>
  <course>344.0</course>
  <speed>0.022360679774997897</speed>
  <fix>3d</fix>
</trkpt>
<trkpt lat="-35.2750218" lon="148.9863609">
  <ele>583.49</ele>
  <time>2026-09-01T20:00:33Z</time>
  <course>101.9</course>
  <speed>0.0</speed>
  <fix>3d</fix>
</trkpt>
<trkpt lat="-35.2750217" lon="148.9863607">
  <ele>583.4</ele>
  <time>2026-09-01T20:00:33Z</time>
  <course>344.0</course>
  <speed>0.022360679774997897</speed>
  <fix>3d</fix>
</trkpt>
<trkpt lat="-35.2750218" lon="148.9863609">
  <ele>583.49</ele>
  <time>2026-09-01T20:00:33Z</time>
  <course>101.9</course>
  <speed>0.0</speed>
  <fix>3d</fix>
</trkpt>
<trkpt lat="-35.2750217" lon="148.9863607">
  <ele>583.4</ele>
  <time>2026-09-01T20:00:33Z</time>
  <course>344.0</course>
  <speed>0.022360679774997897</speed>
  <fix>3d</fix>
</trkpt>
<trkpt lat="-35.2750218" lon="148.9863609">
  <ele>583.49</ele>
  <time>2026-09-01T20:00:33Z</time>
  <course>274.71</course>
  <speed>0.0</speed>
  <fix>3d</fix>
</trkpt>
<trkpt lat="-35.2750217" lon="148.9863607">
  <ele>583.4</ele>
  <time>2026-09-01T20:00:33Z</time>
  <course>344.0</course>
  <speed>0.022360679774997897</speed>
  <fix>3d</fix>
</trkpt>
<trkpt lat="-35.2750218" lon="148.9863609">
  <ele>583.49</ele>
  <time>2026-09-01T20:00:33Z</time>
  <course>274.71</course>
  <speed>0.0</speed>
  <fix>3d</fix>
</trkpt>
<trkpt lat="-35.2750217" lon="148.9863607">
  <ele>583.4</ele>
  <time>2026-09-01T20:00:33Z</time>
  <course>344.0</course>
  <speed>0.022360679774997897</speed>
  <fix>3d</fix>
</trkpt>
<trkpt lat="-35.2750218" lon="148.9863609">
  <ele>583.49</ele>
  <time>2026-09-01T20:00:33Z</time>
  <course>283.78</course>
  <speed>0.0</speed>
  <fix>3d</fix>
</trkpt>
<trkpt lat="-35.2750217" lon="148.9863607">
  <ele>583.4</ele>
  <time>2026-09-01T20:00:33Z</time>
  <course>344.0</course>
  <speed>0.022360679774997897</speed>
  <fix>3d</fix>
</trkpt>
<trkpt lat="-35.2750218" lon="148.9863609">
  <ele>583.49</ele>
  <time>2026-09-01T20:00:33Z</time>
  <course>283.78</course>
  <speed>0.0</speed>
  <fix>3d</fix>
</trkpt>
<trkpt lat="-35.2750217" lon="148.9863607">
  <ele>583.4</ele>
  <time>2026-09-01T20:00:33Z</time>
  <course>344.0</course>
  <speed>0.022360679774997897</speed>
  <fix>3d</fix>
</trkpt>
<trkpt lat="-35.2750218" lon="148.9863609">
  <ele>583.49</ele>
  <time>2026-09-01T20:00:33Z</time>
  <course>97.3</course>
  <speed>0.0</speed>
  <fix>3d</fix>
</trkpt>
<trkpt lat="-35.2750217" lon="148.9863607">
  <ele>583.4</ele>
  <time>2026-09-01T20:00:33Z</time>
  <course>344.0</course>
  <speed>0.022360679774997897</speed>
  <fix>3d</fix>
</trkpt>
<trkpt lat="-35.2750218" lon="148.9863609">
  <ele>583.49</ele>
  <time>2026-09-01T20:00:33Z</time>
  <course>97.3</course>
  <speed>0.0</speed>
  <fix>3d</fix>
</trkpt>
<trkpt lat="-35.2750217" lon="148.9863607">
  <ele>583.4</ele>
  <time>2026-09-01T20:00:33Z</time>
  <course>344.0</course>
  <speed>0.022360679774997897</speed>
  <fix>3d</fix>
</trkpt>
<trkpt lat="-35.2750218" lon="148.9863609">
  <ele>583.49</ele>
  <time>2026-09-01T20:00:33Z</time>
  <course>107.45</course>
  <speed>0.0</speed>
  <fix>3d</fix>
</trkpt>
<trkpt lat="-35.2750217" lon="148.9863607">
  <ele>583.4</ele>
  <time>2026-09-01T20:00:33Z</time>
  <course>344.0</course>
  <speed>0.022360679774997897</speed>
  <fix>3d</fix>
</trkpt>
<trkpt lat="-35.2750218" lon="148.9863609">
  <ele>583.49</ele>
  <time>2026-09-01T20:00:33Z</time>
  <course>107.45</course>
  <speed>0.0</speed>
  <fix>3d</fix>
</trkpt>
<trkpt lat="-35.2750217" lon="148.9863607">
  <ele>583.4</ele>
  <time>2026-09-01T20:00:33Z</time>
  <course>344.0</course>
  <speed>0.022360679774997897</speed>
  <fix>3d</fix>
</trkpt>
<trkpt lat="-35.2750218" lon="148.9863609">
  <ele>583.49</ele>
  <time>2026-09-01T20:00:33Z</time>
  <course>278.94</course>
  <speed>0.0</speed>
  <fix>3d</fix>
</trkpt>
<trkpt lat="-35.2750217" lon="148.9863607">
  <ele>583.4</ele>
  <time>2026-09-01T20:00:33Z</time>
  <course>344.0</course>
  <speed>0.022360679774997897</speed>
  <fix>3d</fix>
</trkpt>
<trkpt lat="-35.2750218" lon="148.9863609">
  <ele>583.49</ele>
  <time>2026-09-01T20:00:33Z</time>
  <course>278.94</course>
  <speed>0.0</speed>
  <fix>3d</fix>
</trkpt>
<trkpt lat="-35.2750217" lon="148.9863607">
  <ele>583.39</ele>
  <time>2026-09-01T20:00:33Z</time>
  <course>344.0</course>
  <speed>0.022360679774997897</speed>
  <fix>3d</fix>
</trkpt>
<trkpt lat="-35.2750218" lon="148.9863609">
  <ele>583.49</ele>
  <time>2026-09-01T20:00:33Z</time>
  <course>306.21</course>
  <speed>0.0</speed>
  <fix>3d</fix>
</trkpt>
<trkpt lat="-35.2750217" lon="148.9863607">
  <ele>583.39</ele>
  <time>2026-09-01T20:00:33Z</time>
  <course>344.0</course>
  <speed>0.022360679774997897</speed>
  <fix>3d</fix>
</trkpt>
<trkpt lat="-35.2750218" lon="148.9863609">
  <ele>583.49</ele>
  <time>2026-09-01T20:00:33Z</time>
  <course>306.21</course>
  <speed>0.0</speed>
  <fix>3d</fix>
</trkpt>
<trkpt lat="-35.2750217" lon="148.9863607">
  <ele>583.39</ele>
  <time>2026-09-01T20:00:33Z</time>
  <course>344.0</course>
  <speed>0.022360679774997897</speed>
  <fix>3d</fix>
</trkpt>
<trkpt lat="-35.2750218" lon="148.9863609">
  <ele>583.49</ele>
  <time>2026-09-01T20:00:33Z</time>
  <course>99.95</course>
  <speed>0.0</speed>
  <fix>3d</fix>
</trkpt>
<trkpt lat="-35.2750217" lon="148.9863607">
  <ele>583.4</ele>
  <time>2026-09-01T20:00:33Z</time>
  <course>344.0</course>
  <speed>0.022360679774997897</speed>
  <fix>3d</fix>
</trkpt>
<trkpt lat="-35.2750218" lon="148.9863609">
  <ele>583.49</ele>
  <time>2026-09-01T20:00:33Z</time>
  <course>99.95</course>
  <speed>0.0</speed>
  <fix>3d</fix>
</trkpt>
<trkpt lat="-35.2750217" lon="148.9863607">
  <ele>583.4</ele>
  <time>2026-09-01T20:00:33Z</time>
  <course>344.0</course>
  <speed>0.022360679774997897</speed>
  <fix>3d</fix>
</trkpt>
<trkpt lat="-35.2750218" lon="148.9863609">
  <ele>583.49</ele>
  <time>2026-09-01T20:00:33Z</time>
  <course>264.56</course>
  <speed>0.0</speed>
  <fix>3d</fix>
</trkpt>
<trkpt lat="-26.9720619" lon="149.6127921">
  <ele>339.29</ele>
  <time>2026-09-01T20:00:35Z</time>
  <course>310.27</course>
  <speed>0.0</speed>
  <fix>3d</fix>
</trkpt>
<trkpt lat="-26.9720619" lon="149.6127921">
  <ele>339.29</ele>
  <time>2026-09-01T20:00:35Z</time>
  <course>310.27</course>
  <speed>0.0</speed>
  <fix>3d</fix>
</trkpt>
<trkpt lat="-27.274439" lon="151.290064">
  <ele>-0.01</ele>
  <time>2026-09-01T20:00:35Z</time>
  <course>0.18</course>
  <speed>0.0</speed>
  <fix>3d</fix>
</trkpt>
<trkpt lat="-27.274439" lon="151.290064">
  <ele>343.1</ele>
  <time>2026-09-01T20:00:35Z</time>
  <course>294.58</course>
  <speed>0.0</speed>
  <fix>3d</fix>
</trkpt>
<trkpt lat="-27.274439" lon="151.290064">
  <ele>0.02</ele>
  <time>2026-09-01T20:00:35Z</time>
  <course>1.17</course>
  <speed>0.0</speed>
  <fix>3d</fix>
</trkpt>
<trkpt lat="-27.274439" lon="151.290064">
  <ele>343.1</ele>
  <time>2026-09-01T20:00:35Z</time>
  <course>294.58</course>
  <speed>0.0</speed>
  <fix>3d</fix>
</trkpt>
<trkpt lat="-27.274439" lon="151.290064">
  <ele>-0.08</ele>
  <time>2026-09-01T20:00:35Z</time>
  <course>2.07</course>
  <speed>0.0</speed>
  <fix>3d</fix>
</trkpt>
<trkpt lat="-27.274439" lon="151.290064">
  <ele>343.1</ele>
  <time>2026-09-01T20:00:35Z</time>
  <course>273.33</course>
  <speed>0.0</speed>
  <fix>3d</fix>
</trkpt>
<trkpt lat="-27.274439" lon="151.290064">
  <ele>0.22</ele>
  <time>2026-09-01T20:00:35Z</time>
  <course>2.89</course>
  <speed>0.0</speed>
  <fix>3d</fix>
</trkpt>
<trkpt lat="-27.274439" lon="151.290064">
  <ele>343.1</ele>
  <time>2026-09-01T20:00:35Z</time>
  <course>273.33</course>
  <speed>0.0</speed>
  <fix>3d</fix>
</trkpt>
<trkpt lat="-27.274439" lon="151.290064">
  <ele>0.09</ele>
  <time>2026-09-01T20:00:35Z</time>
  <course>3.63</course>
  <speed>0.0</speed>
  <fix>3d</fix>
</trkpt>
<trkpt lat="-27.274439" lon="151.290064">
  <ele>343.1</ele>
  <time>2026-09-01T20:00:35Z</time>
  <course>270.44</course>
  <speed>0.0</speed>
  <fix>3d</fix>
</trkpt>
<trkpt lat="-27.274439" lon="151.290064">
  <ele>0.08</ele>
  <time>2026-09-01T20:00:35Z</time>
  <course>4.31</course>
  <speed>0.0</speed>
  <fix>3d</fix>
</trkpt>
<trkpt lat="-27.274439" lon="151.290064">
  <ele>343.1</ele>
  <time>2026-09-01T20:00:35Z</time>
  <course>270.44</course>
  <speed>0.0</speed>
  <fix>3d</fix>
</trkpt>
<trkpt lat="-27.274439" lon="151.290064">
  <ele>0.09</ele>
  <time>2026-09-01T20:00:35Z</time>
  <course>4.93</course>
  <speed>0.0</speed>
  <fix>3d</fix>
</trkpt>
<trkpt lat="-27.274439" lon="151.290064">
  <ele>343.1</ele>
  <time>2026-09-01T20:00:35Z</time>
  <course>270.05</course>
  <speed>0.0</speed>
  <fix>3d</fix>
</trkpt>
<trkpt lat="-27.274439" lon="151.290064">
  <ele>-0.05</ele>
  <time>2026-09-01T20:00:35Z</time>
  <course>5.48</course>
  <speed>0.0</speed>
  <fix>3d</fix>
</trkpt>
<trkpt lat="-27.274439" lon="151.290064">
  <ele>343.1</ele>
  <time>2026-09-01T20:00:35Z</time>
  <course>270.05</course>
  <speed>0.0</speed>
  <fix>3d</fix>
</trkpt>
<trkpt lat="-27.274439" lon="151.290064">
  <ele>343.06</ele>
  <time>2026-09-01T20:00:35Z</time>
  <course>5.96</course>
  <speed>0.0</speed>
  <fix>3d</fix>
</trkpt>
<trkpt lat="-27.274439" lon="151.290064">
  <ele>343.1</ele>
  <time>2026-09-01T20:00:35Z</time>
  <course>270.0</course>
  <speed>0.0</speed>
  <fix>3d</fix>
</trkpt>
<trkpt lat="-27.274439" lon="151.290064">
  <ele>343.18</ele>
  <time>2026-09-01T20:00:35Z</time>
  <course>6.42</course>
  <speed>0.0</speed>
  <fix>3d</fix>
</trkpt>
<trkpt lat="-27.274439" lon="151.290064">
  <ele>343.1</ele>
  <time>2026-09-01T20:00:35Z</time>
  <course>270.0</course>
  <speed>0.0</speed>
  <fix>3d</fix>
</trkpt>
<trkpt lat="-27.274439" lon="151.290064">
  <ele>343.1</ele>
  <time>2026-09-01T20:00:35Z</time>
  <course>8.0</course>
  <speed>0.0</speed>
  <fix>3d</fix>
</trkpt>
<trkpt lat="-27.274439" lon="151.290064">
  <ele>343.1</ele>
  <time>2026-09-01T20:00:35Z</time>
  <course>270.0</course>
  <speed>0.0</speed>
  <fix>3d</fix>
</trkpt>
<trkpt lat="-27.274439" lon="151.290064">
  <ele>343.1</ele>
  <time>2026-09-01T20:00:35Z</time>
  <course>8.0</course>
  <speed>0.0</speed>
  <fix>3d</fix>
</trkpt>
<trkpt lat="-27.274439" lon="151.290064">
  <ele>343.1</ele>
  <time>2026-09-01T20:00:35Z</time>
  <course>270.0</course>
  <speed>0.0</speed>
  <fix>3d</fix>
</trkpt>
<trkpt lat="-27.274439" lon="151.290064">
  <ele>343.1</ele>
  <time>2026-09-01T20:00:35Z</time>
  <course>8.0</course>
  <speed>0.0</speed>
  <fix>3d</fix>
</trkpt>
<trkpt lat="-27.274439" lon="151.290064">
  <ele>343.1</ele>
  <time>2026-09-01T20:00:35Z</time>
  <course>270.0</course>
  <speed>0.0</speed>
  <fix>3d</fix>
</trkpt>
<trkpt lat="-27.274439" lon="151.290064">
  <ele>343.1</ele>
  <time>2026-09-01T20:00:35Z</time>
  <course>8.0</course>
  <speed>0.0</speed>
  <fix>3d</fix>
</trkpt>
<trkpt lat="-27.274439" lon="151.290064">
  <ele>343.1</ele>
  <time>2026-09-01T20:00:35Z</time>
  <course>270.0</course>
  <speed>0.0</speed>
  <fix>3d</fix>
</trkpt>
<trkpt lat="-27.274439" lon="151.290064">
  <ele>343.1</ele>
  <time>2026-09-01T20:00:35Z</time>
  <course>8.0</course>
  <speed>0.0</speed>
  <fix>3d</fix>
</trkpt>
<trkpt lat="-27.274439" lon="151.290064">
  <ele>343.1</ele>
  <time>2026-09-01T20:00:35Z</time>
  <course>270.0</course>
  <speed>0.0</speed>
  <fix>3d</fix>
</trkpt>
<trkpt lat="-27.274439" lon="151.290064">
  <ele>343.1</ele>
  <time>2026-09-01T20:00:35Z</time>
  <course>8.0</course>
  <speed>0.0</speed>
  <fix>3d</fix>
</trkpt>
<trkpt lat="-27.274439" lon="151.290064">
  <ele>343.1</ele>
  <time>2026-09-01T20:00:35Z</time>
  <course>270.0</course>
  <speed>0.0</speed>
  <fix>3d</fix>
</trkpt>
<trkpt lat="-27.274439" lon="151.290064">
  <ele>343.1</ele>
  <time>2026-09-01T20:00:35Z</time>
  <course>8.0</course>
  <speed>0.0</speed>
  <fix>3d</fix>
</trkpt>
<trkpt lat="-27.274439" lon="151.290064">
  <ele>343.1</ele>
  <time>2026-09-01T20:00:35Z</time>
  <course>270.0</course>
  <speed>0.0</speed>
  <fix>3d</fix>
</trkpt>
<trkpt lat="-27.274439" lon="151.290064">
  <ele>343.1</ele>
  <time>2026-09-01T20:00:35Z</time>
  <course>8.0</course>
  <speed>0.0</speed>
  <fix>3d</fix>
</trkpt>
<trkpt lat="-27.274439" lon="151.290064">
  <ele>343.1</ele>
  <time>2026-09-01T20:00:35Z</time>
  <course>270.0</course>
  <speed>0.0</speed>
  <fix>3d</fix>
</trkpt>
<trkpt lat="-27.274439" lon="151.290064">
  <ele>343.1</ele>
  <time>2026-09-01T20:00:35Z</time>
  <course>8.0</course>
  <speed>0.0</speed>
  <fix>3d</fix>
</trkpt>
<trkpt lat="-27.274439" lon="151.290064">
  <ele>343.1</ele>
  <time>2026-09-01T20:00:35Z</time>
  <course>270.0</course>
  <speed>0.0</speed>
  <fix>3d</fix>
</trkpt>
<trkpt lat="-27.274439" lon="151.290064">
  <ele>343.1</ele>
  <time>2026-09-01T20:00:35Z</time>
  <course>8.0</course>
  <speed>0.0</speed>
  <fix>3d</fix>
</trkpt>
<trkpt lat="-27.274439" lon="151.290064">
  <ele>343.1</ele>
  <time>2026-09-01T20:00:35Z</time>
  <course>270.0</course>
  <speed>0.0</speed>
  <fix>3d</fix>
</trkpt>
<trkpt lat="-27.274439" lon="151.290064">
  <ele>343.1</ele>
  <time>2026-09-01T20:00:35Z</time>
  <course>8.0</course>
  <speed>0.0</speed>
  <fix>3d</fix>
</trkpt>
<trkpt lat="-27.274439" lon="151.290064">
  <ele>343.1</ele>
  <time>2026-09-01T20:00:35Z</time>
  <course>270.0</course>
  <speed>0.0</speed>
  <fix>3d</fix>
</trkpt>
<trkpt lat="-27.2744396" lon="151.290064">
  <ele>343.1</ele>
  <time>2026-09-01T20:00:35Z</time>
  <course>8.0</course>
  <speed>0.0</speed>
  <fix>3d</fix>
</trkpt>
<trkpt lat="-27.2744395" lon="151.290064">
  <ele>343.1</ele>
  <time>2026-09-01T20:00:35Z</time>
  <course>8.0</course>
  <speed>0.1711724276862369</speed>
  <fix>3d</fix>
</trkpt>
<trkpt lat="-27.2744393" lon="151.290064">
  <ele>343.1</ele>
  <time>2026-09-01T20:00:35Z</time>
  <course>8.0</course>
  <speed>0.27166155414412246</speed>
  <fix>3d</fix>
</trkpt>
<trkpt lat="-27.2744391" lon="151.290064">
  <ele>343.1</ele>
  <time>2026-09-01T20:00:35Z</time>
  <course>8.0</course>
  <speed>0.18110770276274835</speed>
  <fix>3d</fix>
</trkpt>
<trkpt lat="-27.274439" lon="151.290064">
  <ele>343.1</ele>
  <time>2026-09-01T20:00:35Z</time>
  <course>8.0</course>
  <speed>0.05</speed>
  <fix>3d</fix>
</trkpt>
<trkpt lat="-27.274439" lon="151.290064">
  <ele>343.1</ele>
  <time>2026-09-01T20:00:35Z</time>
  <course>8.0</course>
  <speed>0.02</speed>
  <fix>3d</fix>
</trkpt>
<trkpt lat="-27.274439" lon="151.290064">
  <ele>343.1</ele>
  <time>2026-09-01T20:00:35Z</time>
  <course>8.0</course>
  <speed>0.03</speed>
  <fix>3d</fix>
</trkpt>
<trkpt lat="-27.274439" lon="151.290064">
  <ele>343.1</ele>
  <time>2026-09-01T20:00:35Z</time>
  <course>8.0</course>
  <speed>0.02</speed>
  <fix>3d</fix>
</trkpt>
<trkpt lat="-27.274439" lon="151.290064">
  <ele>343.1</ele>
  <time>2026-09-01T20:00:35Z</time>
  <course>8.0</course>
  <speed>0.0</speed>
  <fix>3d</fix>
</trkpt>
<trkpt lat="-27.274439" lon="151.290064">
  <ele>343.1</ele>
  <time>2026-09-01T20:00:35Z</time>
  <course>8.0</course>
  <speed>0.0</speed>
  <fix>3d</fix>
</trkpt>
<trkpt lat="-27.274439" lon="151.290064">
  <ele>343.1</ele>
  <time>2026-09-01T20:00:35Z</time>
  <course>8.0</course>
  <speed>0.0</speed>
  <fix>3d</fix>
</trkpt>
<trkpt lat="-27.274439" lon="151.290064">
  <ele>343.1</ele>
  <time>2026-09-01T20:00:35Z</time>
  <course>8.0</course>
  <speed>0.0</speed>
  <fix>3d</fix>
</trkpt>
<trkpt lat="-27.274439" lon="151.290064">
  <ele>343.1</ele>
  <time>2026-09-01T20:00:35Z</time>
  <course>8.0</course>
  <speed>0.0</speed>
  <fix>3d</fix>
</trkpt>
<trkpt lat="-27.274439" lon="151.290064">
  <ele>343.1</ele>
  <time>2026-09-01T20:00:35Z</time>
  <course>8.0</course>
  <speed>0.0</speed>
  <fix>3d</fix>
</trkpt>
<trkpt lat="-27.274439" lon="151.290064">
  <ele>343.1</ele>
  <time>2026-09-01T20:00:35Z</time>
  <course>8.0</course>
  <speed>0.0</speed>
  <fix>3d</fix>
</trkpt>
<trkpt lat="-27.274439" lon="151.290064">
  <ele>343.1</ele>
  <time>2026-09-01T20:00:35Z</time>
  <course>8.0</course>
  <speed>0.0</speed>
  <fix>3d</fix>
</trkpt>
<trkpt lat="-27.274439" lon="151.290064">
  <ele>343.1</ele>
  <time>2026-09-01T20:00:35Z</time>
  <course>8.0</course>
  <speed>0.0</speed>
  <fix>3d</fix>
</trkpt>
<trkpt lat="-27.274439" lon="151.290064">
  <ele>343.1</ele>
  <time>2026-09-01T20:00:35Z</time>
  <course>8.0</course>
  <speed>0.0</speed>
  <fix>3d</fix>
</trkpt>
<trkpt lat="-27.274439" lon="151.290064">
  <ele>343.1</ele>
  <time>2026-09-01T20:00:35Z</time>
  <course>8.0</course>
  <speed>0.0</speed>
  <fix>3d</fix>
</trkpt>
<trkpt lat="-27.274439" lon="151.290064">
  <ele>343.1</ele>
  <time>2026-09-01T20:00:35Z</time>
  <course>8.0</course>
  <speed>0.0</speed>
  <fix>3d</fix>
</trkpt>
<trkpt lat="-27.274439" lon="151.290064">
  <ele>343.1</ele>
  <time>2026-09-01T20:00:35Z</time>
  <course>8.0</course>
  <speed>0.0</speed>
  <fix>3d</fix>
</trkpt>
<trkpt lat="-27.274439" lon="151.290064">
  <ele>343.1</ele>
  <time>2026-09-01T20:00:35Z</time>
  <course>8.0</course>
  <speed>0.0</speed>
  <fix>3d</fix>
</trkpt>
<trkpt lat="-27.274439" lon="151.290064">
  <ele>343.1</ele>
  <time>2026-09-01T20:00:35Z</time>
  <course>8.0</course>
  <speed>0.0</speed>
  <fix>3d</fix>
</trkpt>
<trkpt lat="-27.274439" lon="151.290064">
  <ele>343.1</ele>
  <time>2026-09-01T20:00:35Z</time>
  <course>8.0</course>
  <speed>0.0</speed>
  <fix>3d</fix>
</trkpt>
<trkpt lat="-27.274439" lon="151.290064">
  <ele>343.1</ele>
  <time>2026-09-01T20:00:35Z</time>
  <course>8.0</course>
  <speed>0.0</speed>
  <fix>3d</fix>
</trkpt>
<trkpt lat="-27.274439" lon="151.290064">
  <ele>343.1</ele>
  <time>2026-09-01T20:00:35Z</time>
  <course>8.0</course>
  <speed>0.0</speed>
  <fix>3d</fix>
</trkpt>
<trkpt lat="-27.274439" lon="151.290064">
  <ele>343.1</ele>
  <time>2026-09-01T20:00:35Z</time>
  <course>8.0</course>
  <speed>0.0</speed>
  <fix>3d</fix>
</trkpt>
<trkpt lat="-27.274439" lon="151.290064">
  <ele>343.1</ele>
  <time>2026-09-01T20:00:35Z</time>
  <course>8.0</course>
  <speed>0.0</speed>
  <fix>3d</fix>
</trkpt>
<trkpt lat="-27.274439" lon="151.290064">
  <ele>343.1</ele>
  <time>2026-09-01T20:00:35Z</time>
  <course>8.0</course>
  <speed>0.0</speed>
  <fix>3d</fix>
</trkpt>
<trkpt lat="-27.274439" lon="151.290064">
  <ele>343.1</ele>
  <time>2026-09-01T20:00:35Z</time>
  <course>8.0</course>
  <speed>0.0</speed>
  <fix>3d</fix>
</trkpt>
<trkpt lat="-27.274439" lon="151.290064">
  <ele>343.1</ele>
  <time>2026-09-01T20:00:35Z</time>
  <course>8.0</course>
  <speed>0.0</speed>
  <fix>3d</fix>
</trkpt>
<trkpt lat="-27.274439" lon="151.290064">
  <ele>343.1</ele>
  <time>2026-09-01T20:00:35Z</time>
  <course>8.0</course>
  <speed>0.0</speed>
  <fix>3d</fix>
</trkpt>
<trkpt lat="-27.274439" lon="151.290064">
  <ele>343.1</ele>
  <time>2026-09-01T20:00:35Z</time>
  <course>8.0</course>
  <speed>0.0</speed>
  <fix>3d</fix>
</trkpt>
<trkpt lat="-27.274439" lon="151.290064">
  <ele>343.1</ele>
  <time>2026-09-01T20:00:35Z</time>
  <course>8.0</course>
  <speed>0.0</speed>
  <fix>3d</fix>
</trkpt>
<trkpt lat="-27.274439" lon="151.290064">
  <ele>343.1</ele>
  <time>2026-09-01T20:00:35Z</time>
  <course>8.0</course>
  <speed>0.0</speed>
  <fix>3d</fix>
</trkpt>
<trkpt lat="-27.274439" lon="151.290064">
  <ele>343.1</ele>
  <time>2026-09-01T20:00:35Z</time>
  <course>8.0</course>
  <speed>0.0</speed>
  <fix>3d</fix>
</trkpt>
<trkpt lat="-27.274439" lon="151.290064">
  <ele>343.1</ele>
  <time>2026-09-01T20:00:35Z</time>
  <course>8.0</course>
  <speed>0.0</speed>
  <fix>3d</fix>
</trkpt>
<trkpt lat="-27.274439" lon="151.290064">
  <ele>343.1</ele>
  <time>2026-09-01T20:00:35Z</time>
  <course>8.0</course>
  <speed>0.0</speed>
  <fix>3d</fix>
</trkpt>
<trkpt lat="-27.274439" lon="151.290064">
  <ele>343.1</ele>
  <time>2026-09-01T20:00:35Z</time>
  <course>8.0</course>
  <speed>0.0</speed>
  <fix>3d</fix>
</trkpt>
<trkpt lat="-27.274439" lon="151.290064">
  <ele>343.1</ele>
  <time>2026-09-01T20:00:35Z</time>
  <course>8.0</course>
  <speed>0.0</speed>
  <fix>3d</fix>
</trkpt>
<trkpt lat="-27.274439" lon="151.290064">
  <ele>343.1</ele>
  <time>2026-09-01T20:00:35Z</time>
  <course>8.0</course>
  <speed>0.0</speed>
  <fix>3d</fix>
</trkpt>
<trkpt lat="-27.274439" lon="151.290064">
  <ele>343.1</ele>
  <time>2026-09-01T20:00:35Z</time>
  <course>8.0</course>
  <speed>0.0</speed>
  <fix>3d</fix>
</trkpt>
<trkpt lat="-27.274439" lon="151.290064">
  <ele>343.1</ele>
  <time>2026-09-01T20:00:35Z</time>
  <course>8.0</course>
  <speed>0.0</speed>
  <fix>3d</fix>
</trkpt>
<trkpt lat="-27.274439" lon="151.290064">
  <ele>343.1</ele>
  <time>2026-09-01T20:00:35Z</time>
  <course>8.0</course>
  <speed>0.0</speed>
  <fix>3d</fix>
</trkpt>
<trkpt lat="-27.274439" lon="151.290064">
  <ele>343.1</ele>
  <time>2026-09-01T20:00:35Z</time>
  <course>8.0</course>
  <speed>0.0</speed>
  <fix>3d</fix>
</trkpt>
<trkpt lat="-27.274439" lon="151.290064">
  <ele>343.1</ele>
  <time>2026-09-01T20:00:35Z</time>
  <course>8.0</course>
  <speed>0.0</speed>
  <fix>3d</fix>
</trkpt>
<trkpt lat="-27.274439" lon="151.290064">
  <ele>343.1</ele>
  <time>2026-09-01T20:00:35Z</time>
  <course>8.0</course>
  <speed>0.0</speed>
  <fix>3d</fix>
</trkpt>
<trkpt lat="-27.274439" lon="151.290064">
  <ele>343.1</ele>
  <time>2026-09-01T20:00:35Z</time>
  <course>8.0</course>
  <speed>0.0</speed>
  <fix>3d</fix>
</trkpt>
<trkpt lat="-27.274439" lon="151.290064">
  <ele>343.1</ele>
  <time>2026-09-01T20:00:35Z</time>
  <course>8.0</course>
  <speed>0.0</speed>
  <fix>3d</fix>
</trkpt>
<trkpt lat="-27.274439" lon="151.290064">
  <ele>343.1</ele>
  <time>2026-09-01T20:00:35Z</time>
  <course>8.0</course>
  <speed>0.0</speed>
  <fix>3d</fix>
</trkpt>
<trkpt lat="-27.274439" lon="151.290064">
  <ele>343.1</ele>
  <time>2026-09-01T20:00:35Z</time>
  <course>8.0</course>
  <speed>0.0</speed>
  <fix>3d</fix>
</trkpt>
<trkpt lat="-27.274439" lon="151.290064">
  <ele>343.1</ele>
  <time>2026-09-01T20:00:35Z</time>
  <course>8.0</course>
  <speed>0.0</speed>
  <fix>3d</fix>
</trkpt>
<trkpt lat="-27.274439" lon="151.290064">
  <ele>343.1</ele>
  <time>2026-09-01T20:00:35Z</time>
  <course>8.0</course>
  <speed>0.0</speed>
  <fix>3d</fix>
</trkpt>
<trkpt lat="-27.274439" lon="151.290064">
  <ele>343.1</ele>
  <time>2026-09-01T20:00:35Z</time>
  <course>8.0</course>
  <speed>0.0</speed>
  <fix>3d</fix>
</trkpt>
<trkpt lat="-27.274439" lon="151.290064">
  <ele>343.1</ele>
  <time>2026-09-01T20:00:35Z</time>
  <course>8.0</course>
  <speed>0.0</speed>
  <fix>3d</fix>
</trkpt>
<trkpt lat="-27.274439" lon="151.290064">
  <ele>343.1</ele>
  <time>2026-09-01T20:00:35Z</time>
  <course>8.0</course>
  <speed>0.0</speed>
  <fix>3d</fix>
</trkpt>
<trkpt lat="-27.274439" lon="151.290064">
  <ele>343.1</ele>
  <time>2026-09-01T20:00:35Z</time>
  <course>8.0</course>
  <speed>0.0</speed>
  <fix>3d</fix>
</trkpt>
<trkpt lat="-27.274439" lon="151.290064">
  <ele>343.1</ele>
  <time>2026-09-01T20:00:35Z</time>
  <course>8.0</course>
  <speed>0.0</speed>
  <fix>3d</fix>
</trkpt>
<trkpt lat="-27.274439" lon="151.290064">
  <ele>343.1</ele>
  <time>2026-09-01T20:00:35Z</time>
  <course>8.0</course>
  <speed>0.0</speed>
  <fix>3d</fix>
</trkpt>
<trkpt lat="-27.274439" lon="151.290064">
  <ele>343.1</ele>
  <time>2026-09-01T20:00:35Z</time>
  <course>8.0</course>
  <speed>0.0</speed>
  <fix>3d</fix>
</trkpt>
<trkpt lat="-27.274439" lon="151.290064">
  <ele>343.1</ele>
  <time>2026-09-01T20:00:35Z</time>
  <course>8.0</course>
  <speed>0.0</speed>
  <fix>3d</fix>
</trkpt>
<trkpt lat="-27.274439" lon="151.290064">
  <ele>343.1</ele>
  <time>2026-09-01T20:00:35Z</time>
  <course>8.0</course>
  <speed>0.0</speed>
  <fix>3d</fix>
</trkpt>
<trkpt lat="-27.274439" lon="151.290064">
  <ele>343.1</ele>
  <time>2026-09-01T20:00:35Z</time>
  <course>8.0</course>
  <speed>0.0</speed>
  <fix>3d</fix>
</trkpt>
<trkpt lat="-27.274439" lon="151.290064">
  <ele>343.1</ele>
  <time>2026-09-01T20:00:36Z</time>
  <course>8.0</course>
  <speed>0.0</speed>
  <fix>3d</fix>
</trkpt>
<trkpt lat="-27.274439" lon="151.290064">
  <ele>343.1</ele>
  <time>2026-09-01T20:00:36Z</time>
  <course>8.0</course>
  <speed>0.0</speed>
  <fix>3d</fix>
</trkpt>
<trkpt lat="-27.274439" lon="151.290064">
  <ele>343.1</ele>
  <time>2026-09-01T20:00:36Z</time>
  <course>8.0</course>
  <speed>0.0</speed>
  <fix>3d</fix>
</trkpt>
<trkpt lat="-27.274439" lon="151.290064">
  <ele>343.1</ele>
  <time>2026-09-01T20:00:36Z</time>
  <course>8.0</course>
  <speed>0.0</speed>
  <fix>3d</fix>
</trkpt>
<trkpt lat="-27.274439" lon="151.290064">
  <ele>343.1</ele>
  <time>2026-09-01T20:00:36Z</time>
  <course>8.0</course>
  <speed>0.0</speed>
  <fix>3d</fix>
</trkpt>
<trkpt lat="-27.274439" lon="151.290064">
  <ele>343.1</ele>
  <time>2026-09-01T20:00:36Z</time>
  <course>8.0</course>
  <speed>0.0</speed>
  <fix>3d</fix>
</trkpt>
<trkpt lat="-27.274439" lon="151.290064">
  <ele>343.1</ele>
  <time>2026-09-01T20:00:36Z</time>
  <course>8.0</course>
  <speed>0.0</speed>
  <fix>3d</fix>
</trkpt>
<trkpt lat="-27.274439" lon="151.290064">
  <ele>343.1</ele>
  <time>2026-09-01T20:00:36Z</time>
  <course>8.0</course>
  <speed>0.0</speed>
  <fix>3d</fix>
</trkpt>
<trkpt lat="-27.274439" lon="151.290064">
  <ele>343.1</ele>
  <time>2026-09-01T20:00:36Z</time>
  <course>8.0</course>
  <speed>0.0</speed>
  <fix>3d</fix>
</trkpt>
<trkpt lat="-27.274439" lon="151.290064">
  <ele>343.1</ele>
  <time>2026-09-01T20:00:36Z</time>
  <course>8.0</course>
  <speed>0.0</speed>
  <fix>3d</fix>
</trkpt>
<trkpt lat="-27.274439" lon="151.290064">
  <ele>343.1</ele>
  <time>2026-09-01T20:00:36Z</time>
  <course>8.0</course>
  <speed>0.0</speed>
  <fix>3d</fix>
</trkpt>
<trkpt lat="-27.274439" lon="151.290064">
  <ele>343.1</ele>
  <time>2026-09-01T20:00:36Z</time>
  <course>8.0</course>
  <speed>0.0</speed>
  <fix>3d</fix>
</trkpt>
<trkpt lat="-26.9720619" lon="149.6127921">
  <ele>339.29</ele>
  <time>2026-09-01T20:00:36Z</time>
  <course>310.27</course>
  <speed>0.0</speed>
  <fix>3d</fix>
</trkpt>
<trkpt lat="-27.274439" lon="151.290064">
  <ele>343.1</ele>
  <time>2026-09-01T20:00:36Z</time>
  <course>8.0</course>
  <speed>0.0</speed>
  <fix>3d</fix>
</trkpt>
<trkpt lat="-26.9720619" lon="149.6127921">
  <ele>339.29</ele>
  <time>2026-09-01T20:00:36Z</time>
  <course>310.27</course>
  <speed>0.0</speed>
  <fix>3d</fix>
</trkpt>
<trkpt lat="-27.274439" lon="151.290064">
  <ele>343.1</ele>
  <time>2026-09-01T20:00:36Z</time>
  <course>8.0</course>
  <speed>0.0</speed>
  <fix>3d</fix>
</trkpt>
<trkpt lat="-27.274439" lon="151.290064">
  <ele>343.1</ele>
  <time>2026-09-01T20:00:36Z</time>
  <course>294.58</course>
  <speed>0.0</speed>
  <fix>3d</fix>
</trkpt>
<trkpt lat="-27.274439" lon="151.290064">
  <ele>343.1</ele>
  <time>2026-09-01T20:00:36Z</time>
  <course>8.0</course>
  <speed>0.0</speed>
  <fix>3d</fix>
</trkpt>
<trkpt lat="-27.274439" lon="151.290064">
  <ele>343.1</ele>
  <time>2026-09-01T20:00:36Z</time>
  <course>294.58</course>
  <speed>0.0</speed>
  <fix>3d</fix>
</trkpt>
<trkpt lat="-27.274439" lon="151.290064">
  <ele>343.1</ele>
  <time>2026-09-01T20:00:36Z</time>
  <course>8.0</course>
  <speed>0.0</speed>
  <fix>3d</fix>
</trkpt>
<trkpt lat="-27.274439" lon="151.290064">
  <ele>343.1</ele>
  <time>2026-09-01T20:00:36Z</time>
  <course>273.33</course>
  <speed>0.0</speed>
  <fix>3d</fix>
</trkpt>
<trkpt lat="-27.274439" lon="151.290064">
  <ele>343.1</ele>
  <time>2026-09-01T20:00:36Z</time>
  <course>8.0</course>
  <speed>0.0</speed>
  <fix>3d</fix>
</trkpt>
<trkpt lat="-27.274439" lon="151.290064">
  <ele>343.1</ele>
  <time>2026-09-01T20:00:36Z</time>
  <course>273.33</course>
  <speed>0.0</speed>
  <fix>3d</fix>
</trkpt>
<trkpt lat="-27.274439" lon="151.290064">
  <ele>343.1</ele>
  <time>2026-09-01T20:00:36Z</time>
  <course>8.0</course>
  <speed>0.0</speed>
  <fix>3d</fix>
</trkpt>
<trkpt lat="-27.274439" lon="151.290064">
  <ele>343.1</ele>
  <time>2026-09-01T20:00:36Z</time>
  <course>270.44</course>
  <speed>0.0</speed>
  <fix>3d</fix>
</trkpt>
<trkpt lat="-27.274439" lon="151.290064">
  <ele>343.1</ele>
  <time>2026-09-01T20:00:36Z</time>
  <course>8.0</course>
  <speed>0.0</speed>
  <fix>3d</fix>
</trkpt>
<trkpt lat="-27.274439" lon="151.290064">
  <ele>343.1</ele>
  <time>2026-09-01T20:00:36Z</time>
  <course>270.44</course>
  <speed>0.0</speed>
  <fix>3d</fix>
</trkpt>
<trkpt lat="-27.274439" lon="151.290064">
  <ele>343.1</ele>
  <time>2026-09-01T20:00:36Z</time>
  <course>8.0</course>
  <speed>0.0</speed>
  <fix>3d</fix>
</trkpt>
<trkpt lat="-27.274439" lon="151.290064">
  <ele>343.1</ele>
  <time>2026-09-01T20:00:36Z</time>
  <course>270.05</course>
  <speed>0.0</speed>
  <fix>3d</fix>
</trkpt>
<trkpt lat="-27.274439" lon="151.290064">
  <ele>343.1</ele>
  <time>2026-09-01T20:00:36Z</time>
  <course>8.0</course>
  <speed>0.0</speed>
  <fix>3d</fix>
</trkpt>
<trkpt lat="-27.274439" lon="151.290064">
  <ele>343.1</ele>
  <time>2026-09-01T20:00:36Z</time>
  <course>270.05</course>
  <speed>0.0</speed>
  <fix>3d</fix>
</trkpt>
<trkpt lat="-27.274439" lon="151.290064">
  <ele>343.1</ele>
  <time>2026-09-01T20:00:36Z</time>
  <course>8.0</course>
  <speed>0.0</speed>
  <fix>3d</fix>
</trkpt>
<trkpt lat="-27.274439" lon="151.290064">
  <ele>343.1</ele>
  <time>2026-09-01T20:00:36Z</time>
  <course>270.0</course>
  <speed>0.0</speed>
  <fix>3d</fix>
</trkpt>
<trkpt lat="-27.274439" lon="151.290064">
  <ele>343.1</ele>
  <time>2026-09-01T20:00:36Z</time>
  <course>8.0</course>
  <speed>0.0</speed>
  <fix>3d</fix>
</trkpt>
<trkpt lat="-27.274439" lon="151.290064">
  <ele>343.1</ele>
  <time>2026-09-01T20:00:36Z</time>
  <course>270.0</course>
  <speed>0.0</speed>
  <fix>3d</fix>
</trkpt>
<trkpt lat="-27.274439" lon="151.290064">
  <ele>343.1</ele>
  <time>2026-09-01T20:00:36Z</time>
  <course>8.0</course>
  <speed>0.0</speed>
  <fix>3d</fix>
</trkpt>
<trkpt lat="-27.274439" lon="151.290064">
  <ele>343.1</ele>
  <time>2026-09-01T20:00:36Z</time>
  <course>270.0</course>
  <speed>0.0</speed>
  <fix>3d</fix>
</trkpt>
<trkpt lat="-27.274439" lon="151.290064">
  <ele>343.1</ele>
  <time>2026-09-01T20:00:36Z</time>
  <course>8.0</course>
  <speed>0.0</speed>
  <fix>3d</fix>
</trkpt>
<trkpt lat="-27.274439" lon="151.290064">
  <ele>343.1</ele>
  <time>2026-09-01T20:00:36Z</time>
  <course>270.0</course>
  <speed>0.0</speed>
  <fix>3d</fix>
</trkpt>
<trkpt lat="-27.274439" lon="151.290064">
  <ele>343.1</ele>
  <time>2026-09-01T20:00:36Z</time>
  <course>8.0</course>
  <speed>0.0</speed>
  <fix>3d</fix>
</trkpt>
<trkpt lat="-27.274439" lon="151.290064">
  <ele>343.1</ele>
  <time>2026-09-01T20:00:36Z</time>
  <course>270.0</course>
  <speed>0.0</speed>
  <fix>3d</fix>
</trkpt>
<trkpt lat="-27.274439" lon="151.290064">
  <ele>343.1</ele>
  <time>2026-09-01T20:00:36Z</time>
  <course>8.0</course>
  <speed>0.0</speed>
  <fix>3d</fix>
</trkpt>
<trkpt lat="-27.274439" lon="151.290064">
  <ele>343.1</ele>
  <time>2026-09-01T20:00:36Z</time>
  <course>270.0</course>
  <speed>0.0</speed>
  <fix>3d</fix>
</trkpt>
<trkpt lat="-27.274439" lon="151.290064">
  <ele>343.1</ele>
  <time>2026-09-01T20:00:36Z</time>
  <course>8.0</course>
  <speed>0.0</speed>
  <fix>3d</fix>
</trkpt>
<trkpt lat="-27.274439" lon="151.290064">
  <ele>343.1</ele>
  <time>2026-09-01T20:00:36Z</time>
  <course>270.0</course>
  <speed>0.0</speed>
  <fix>3d</fix>
</trkpt>
<trkpt lat="-27.274439" lon="151.290064">
  <ele>343.1</ele>
  <time>2026-09-01T20:00:36Z</time>
  <course>8.0</course>
  <speed>0.0</speed>
  <fix>3d</fix>
</trkpt>
<trkpt lat="-27.274439" lon="151.290064">
  <ele>343.1</ele>
  <time>2026-09-01T20:00:36Z</time>
  <course>270.0</course>
  <speed>0.0</speed>
  <fix>3d</fix>
</trkpt>
<trkpt lat="-27.274439" lon="151.290064">
  <ele>343.1</ele>
  <time>2026-09-01T20:00:36Z</time>
  <course>8.0</course>
  <speed>0.0</speed>
  <fix>3d</fix>
</trkpt>
<trkpt lat="-27.274439" lon="151.290064">
  <ele>343.1</ele>
  <time>2026-09-01T20:00:36Z</time>
  <course>270.0</course>
  <speed>0.0</speed>
  <fix>3d</fix>
</trkpt>
<trkpt lat="-27.274439" lon="151.290064">
  <ele>343.1</ele>
  <time>2026-09-01T20:00:36Z</time>
  <course>8.0</course>
  <speed>0.0</speed>
  <fix>3d</fix>
</trkpt>
<trkpt lat="-27.274439" lon="151.290064">
  <ele>343.1</ele>
  <time>2026-09-01T20:00:36Z</time>
  <course>270.0</course>
  <speed>0.0</speed>
  <fix>3d</fix>
</trkpt>
<trkpt lat="-27.274439" lon="151.290064">
  <ele>343.1</ele>
  <time>2026-09-01T20:00:36Z</time>
  <course>8.0</course>
  <speed>0.0</speed>
  <fix>3d</fix>
</trkpt>
<trkpt lat="-27.274439" lon="151.290064">
  <ele>343.1</ele>
  <time>2026-09-01T20:00:36Z</time>
  <course>270.0</course>
  <speed>0.0</speed>
  <fix>3d</fix>
</trkpt>
<trkpt lat="-27.274439" lon="151.290064">
  <ele>343.1</ele>
  <time>2026-09-01T20:00:36Z</time>
  <course>8.0</course>
  <speed>0.0</speed>
  <fix>3d</fix>
</trkpt>
<trkpt lat="-27.274439" lon="151.290064">
  <ele>343.1</ele>
  <time>2026-09-01T20:00:36Z</time>
  <course>270.0</course>
  <speed>0.0</speed>
  <fix>3d</fix>
</trkpt>
<trkpt lat="-27.274439" lon="151.290064">
  <ele>343.1</ele>
  <time>2026-09-01T20:00:36Z</time>
  <course>8.0</course>
  <speed>0.0</speed>
  <fix>3d</fix>
</trkpt>
<trkpt lat="-27.274439" lon="151.290064">
  <ele>343.1</ele>
  <time>2026-09-01T20:00:36Z</time>
  <course>270.0</course>
  <speed>0.0</speed>
  <fix>3d</fix>
</trkpt>
<trkpt lat="-27.274439" lon="151.290064">
  <ele>343.1</ele>
  <time>2026-09-01T20:00:36Z</time>
  <course>8.0</course>
  <speed>0.0</speed>
  <fix>3d</fix>
</trkpt>
<trkpt lat="-27.274439" lon="151.290064">
  <ele>343.1</ele>
  <time>2026-09-01T20:00:36Z</time>
  <course>270.0</course>
  <speed>0.0</speed>
  <fix>3d</fix>
</trkpt>
<trkpt lat="-27.274439" lon="151.290064">
  <ele>343.1</ele>
  <time>2026-09-01T20:00:36Z</time>
  <course>8.0</course>
  <speed>0.0</speed>
  <fix>3d</fix>
</trkpt>
<trkpt lat="-27.274439" lon="151.290064">
  <ele>343.1</ele>
  <time>2026-09-01T20:00:36Z</time>
  <course>270.0</course>
  <speed>0.0</speed>
  <fix>3d</fix>
</trkpt>
<trkpt lat="-27.274439" lon="151.290064">
  <ele>343.1</ele>
  <time>2026-09-01T20:00:36Z</time>
  <course>8.0</course>
  <speed>0.0</speed>
  <fix>3d</fix>
</trkpt>
<trkpt lat="-27.274439" lon="151.290064">
  <ele>343.1</ele>
  <time>2026-09-01T20:00:36Z</time>
  <course>270.0</course>
  <speed>0.0</speed>
  <fix>3d</fix>
</trkpt>
<trkpt lat="-27.274439" lon="151.290064">
  <ele>343.1</ele>
  <time>2026-09-01T20:00:36Z</time>
  <course>8.0</course>
  <speed>0.0</speed>
  <fix>3d</fix>
</trkpt>
<trkpt lat="-27.274439" lon="151.290064">
  <ele>343.1</ele>
  <time>2026-09-01T20:00:36Z</time>
  <course>270.0</course>
  <speed>0.0</speed>
  <fix>3d</fix>
</trkpt>
<trkpt lat="-27.274439" lon="151.290064">
  <ele>343.1</ele>
  <time>2026-09-01T20:00:36Z</time>
  <course>8.0</course>
  <speed>0.0</speed>
  <fix>3d</fix>
</trkpt>
<trkpt lat="-27.274439" lon="151.290064">
  <ele>343.1</ele>
  <time>2026-09-01T20:00:36Z</time>
  <course>270.0</course>
  <speed>0.0</speed>
  <fix>3d</fix>
</trkpt>
<trkpt lat="-27.274439" lon="151.290064">
  <ele>343.1</ele>
  <time>2026-09-01T20:00:36Z</time>
  <course>8.0</course>
  <speed>0.0</speed>
  <fix>3d</fix>
</trkpt>
<trkpt lat="-27.274439" lon="151.290064">
  <ele>343.1</ele>
  <time>2026-09-01T20:00:36Z</time>
  <course>270.0</course>
  <speed>0.0</speed>
  <fix>3d</fix>
</trkpt>
<trkpt lat="-27.274439" lon="151.290064">
  <ele>343.1</ele>
  <time>2026-09-01T20:00:36Z</time>
  <course>8.0</course>
  <speed>0.0</speed>
  <fix>3d</fix>
</trkpt>
<trkpt lat="-27.274439" lon="151.290064">
  <ele>343.1</ele>
  <time>2026-09-01T20:00:36Z</time>
  <course>270.0</course>
  <speed>0.0</speed>
  <fix>3d</fix>
</trkpt>
<trkpt lat="-27.274439" lon="151.290064">
  <ele>343.1</ele>
  <time>2026-09-01T20:00:36Z</time>
  <course>8.0</course>
  <speed>0.0</speed>
  <fix>3d</fix>
</trkpt>
<trkpt lat="-27.274439" lon="151.290064">
  <ele>343.1</ele>
  <time>2026-09-01T20:00:36Z</time>
  <course>270.0</course>
  <speed>0.0</speed>
  <fix>3d</fix>
</trkpt>
<trkpt lat="-27.274439" lon="151.290064">
  <ele>343.1</ele>
  <time>2026-09-01T20:00:36Z</time>
  <course>8.0</course>
  <speed>0.0</speed>
  <fix>3d</fix>
</trkpt>
<trkpt lat="-27.274439" lon="151.290064">
  <ele>343.1</ele>
  <time>2026-09-01T20:00:36Z</time>
  <course>270.0</course>
  <speed>0.0</speed>
  <fix>3d</fix>
</trkpt>
<trkpt lat="-27.274439" lon="151.290064">
  <ele>343.1</ele>
  <time>2026-09-01T20:00:36Z</time>
  <course>8.0</course>
  <speed>0.0</speed>
  <fix>3d</fix>
</trkpt>
<trkpt lat="-27.274439" lon="151.290064">
  <ele>343.1</ele>
  <time>2026-09-01T20:00:36Z</time>
  <course>270.0</course>
  <speed>0.0</speed>
  <fix>3d</fix>
</trkpt>
<trkpt lat="-27.274439" lon="151.290064">
  <ele>343.1</ele>
  <time>2026-09-01T20:00:36Z</time>
  <course>8.0</course>
  <speed>0.0</speed>
  <fix>3d</fix>
</trkpt>
<trkpt lat="-27.274439" lon="151.290064">
  <ele>343.1</ele>
  <time>2026-09-01T20:00:36Z</time>
  <course>270.0</course>
  <speed>0.0</speed>
  <fix>3d</fix>
</trkpt>
<trkpt lat="-27.274439" lon="151.290064">
  <ele>343.1</ele>
  <time>2026-09-01T20:00:36Z</time>
  <course>8.0</course>
  <speed>0.0</speed>
  <fix>3d</fix>
</trkpt>
<trkpt lat="-27.274439" lon="151.290064">
  <ele>343.1</ele>
  <time>2026-09-01T20:00:36Z</time>
  <course>270.0</course>
  <speed>0.0</speed>
  <fix>3d</fix>
</trkpt>
<trkpt lat="-27.274439" lon="151.290064">
  <ele>343.1</ele>
  <time>2026-09-01T20:00:36Z</time>
  <course>8.0</course>
  <speed>0.0</speed>
  <fix>3d</fix>
</trkpt>
<trkpt lat="-27.274439" lon="151.290064">
  <ele>343.1</ele>
  <time>2026-09-01T20:00:36Z</time>
  <course>270.0</course>
  <speed>0.0</speed>
  <fix>3d</fix>
</trkpt>
<trkpt lat="-27.274439" lon="151.290064">
  <ele>343.1</ele>
  <time>2026-09-01T20:00:36Z</time>
  <course>8.0</course>
  <speed>0.0</speed>
  <fix>3d</fix>
</trkpt>
<trkpt lat="-27.274439" lon="151.290064">
  <ele>343.1</ele>
  <time>2026-09-01T20:00:36Z</time>
  <course>270.0</course>
  <speed>0.0</speed>
  <fix>3d</fix>
</trkpt>
<trkpt lat="-27.274439" lon="151.290064">
  <ele>343.1</ele>
  <time>2026-09-01T20:00:36Z</time>
  <course>8.0</course>
  <speed>0.0</speed>
  <fix>3d</fix>
</trkpt>
<trkpt lat="-27.274439" lon="151.290064">
  <ele>343.1</ele>
  <time>2026-09-01T20:00:36Z</time>
  <course>270.0</course>
  <speed>0.0</speed>
  <fix>3d</fix>
</trkpt>
<trkpt lat="-27.274439" lon="151.290064">
  <ele>343.1</ele>
  <time>2026-09-01T20:00:36Z</time>
  <course>8.0</course>
  <speed>0.0</speed>
  <fix>3d</fix>
</trkpt>
<trkpt lat="-27.274439" lon="151.290064">
  <ele>343.1</ele>
  <time>2026-09-01T20:00:36Z</time>
  <course>270.0</course>
  <speed>0.0</speed>
  <fix>3d</fix>
</trkpt>
<trkpt lat="-27.274439" lon="151.290064">
  <ele>343.1</ele>
  <time>2026-09-01T20:00:36Z</time>
  <course>8.0</course>
  <speed>0.0</speed>
  <fix>3d</fix>
</trkpt>
<trkpt lat="-27.274439" lon="151.290064">
  <ele>343.1</ele>
  <time>2026-09-01T20:00:36Z</time>
  <course>270.0</course>
  <speed>0.0</speed>
  <fix>3d</fix>
</trkpt>
<trkpt lat="-27.274439" lon="151.290064">
  <ele>343.1</ele>
  <time>2026-09-01T20:00:36Z</time>
  <course>8.0</course>
  <speed>0.0</speed>
  <fix>3d</fix>
</trkpt>
<trkpt lat="-27.274439" lon="151.290064">
  <ele>343.1</ele>
  <time>2026-09-01T20:00:36Z</time>
  <course>270.0</course>
  <speed>0.0</speed>
  <fix>3d</fix>
</trkpt>
<trkpt lat="-27.274439" lon="151.290064">
  <ele>343.1</ele>
  <time>2026-09-01T20:00:36Z</time>
  <course>8.0</course>
  <speed>0.0</speed>
  <fix>3d</fix>
</trkpt>
<trkpt lat="-27.274439" lon="151.290064">
  <ele>343.1</ele>
  <time>2026-09-01T20:00:36Z</time>
  <course>270.0</course>
  <speed>0.0</speed>
  <fix>3d</fix>
</trkpt>
<trkpt lat="-27.274439" lon="151.290064">
  <ele>343.1</ele>
  <time>2026-09-01T20:00:36Z</time>
  <course>8.0</course>
  <speed>0.0</speed>
  <fix>3d</fix>
</trkpt>
<trkpt lat="-27.274439" lon="151.290064">
  <ele>343.1</ele>
  <time>2026-09-01T20:00:36Z</time>
  <course>270.0</course>
  <speed>0.0</speed>
  <fix>3d</fix>
</trkpt>
<trkpt lat="-27.274439" lon="151.290064">
  <ele>343.1</ele>
  <time>2026-09-01T20:00:36Z</time>
  <course>8.0</course>
  <speed>0.0</speed>
  <fix>3d</fix>
</trkpt>
<trkpt lat="-27.274439" lon="151.290064">
  <ele>343.1</ele>
  <time>2026-09-01T20:00:36Z</time>
  <course>270.0</course>
  <speed>0.0</speed>
  <fix>3d</fix>
</trkpt>
<trkpt lat="-27.274439" lon="151.290064">
  <ele>343.1</ele>
  <time>2026-09-01T20:00:36Z</time>
  <course>8.0</course>
  <speed>0.0</speed>
  <fix>3d</fix>
</trkpt>
<trkpt lat="-27.274439" lon="151.290064">
  <ele>343.1</ele>
  <time>2026-09-01T20:00:36Z</time>
  <course>270.0</course>
  <speed>0.0</speed>
  <fix>3d</fix>
</trkpt>
<trkpt lat="-27.274439" lon="151.290064">
  <ele>343.1</ele>
  <time>2026-09-01T20:00:36Z</time>
  <course>8.0</course>
  <speed>0.0</speed>
  <fix>3d</fix>
</trkpt>
<trkpt lat="-27.274439" lon="151.290064">
  <ele>343.1</ele>
  <time>2026-09-01T20:00:36Z</time>
  <course>270.0</course>
  <speed>0.0</speed>
  <fix>3d</fix>
</trkpt>
<trkpt lat="-27.274439" lon="151.290064">
  <ele>343.1</ele>
  <time>2026-09-01T20:00:36Z</time>
  <course>8.0</course>
  <speed>0.0</speed>
  <fix>3d</fix>
</trkpt>
<trkpt lat="-27.274439" lon="151.290064">
  <ele>343.1</ele>
  <time>2026-09-01T20:00:36Z</time>
  <course>270.0</course>
  <speed>0.0</speed>
  <fix>3d</fix>
</trkpt>
<trkpt lat="-27.274439" lon="151.290064">
  <ele>343.1</ele>
  <time>2026-09-01T20:00:36Z</time>
  <course>8.0</course>
  <speed>0.0</speed>
  <fix>3d</fix>
</trkpt>
<trkpt lat="-27.274439" lon="151.290064">
  <ele>343.1</ele>
  <time>2026-09-01T20:00:36Z</time>
  <course>270.0</course>
  <speed>0.0</speed>
  <fix>3d</fix>
</trkpt>
<trkpt lat="-27.274439" lon="151.290064">
  <ele>343.1</ele>
  <time>2026-09-01T20:00:36Z</time>
  <course>8.0</course>
  <speed>0.0</speed>
  <fix>3d</fix>
</trkpt>
<trkpt lat="-27.274439" lon="151.290064">
  <ele>343.1</ele>
  <time>2026-09-01T20:00:36Z</time>
  <course>270.0</course>
  <speed>0.0</speed>
  <fix>3d</fix>
</trkpt>
<trkpt lat="-27.274439" lon="151.290064">
  <ele>343.1</ele>
  <time>2026-09-01T20:00:36Z</time>
  <course>8.0</course>
  <speed>0.0</speed>
  <fix>3d</fix>
</trkpt>
<trkpt lat="-27.274439" lon="151.290064">
  <ele>343.1</ele>
  <time>2026-09-01T20:00:36Z</time>
  <course>270.0</course>
  <speed>0.0</speed>
  <fix>3d</fix>
</trkpt>
<trkpt lat="-27.274439" lon="151.290064">
  <ele>343.1</ele>
  <time>2026-09-01T20:00:36Z</time>
  <course>8.0</course>
  <speed>0.0</speed>
  <fix>3d</fix>
</trkpt>
<trkpt lat="-27.274439" lon="151.290064">
  <ele>343.1</ele>
  <time>2026-09-01T20:00:36Z</time>
  <course>270.0</course>
  <speed>0.0</speed>
  <fix>3d</fix>
</trkpt>
<trkpt lat="-27.274439" lon="151.290064">
  <ele>343.1</ele>
  <time>2026-09-01T20:00:36Z</time>
  <course>8.0</course>
  <speed>0.0</speed>
  <fix>3d</fix>
</trkpt>
<trkpt lat="-27.274439" lon="151.290064">
  <ele>343.1</ele>
  <time>2026-09-01T20:00:36Z</time>
  <course>270.0</course>
  <speed>0.0</speed>
  <fix>3d</fix>
</trkpt>
<trkpt lat="-27.274439" lon="151.290064">
  <ele>343.1</ele>
  <time>2026-09-01T20:00:36Z</time>
  <course>8.0</course>
  <speed>0.0</speed>
  <fix>3d</fix>
</trkpt>
<trkpt lat="-27.274439" lon="151.290064">
  <ele>343.1</ele>
  <time>2026-09-01T20:00:36Z</time>
  <course>270.0</course>
  <speed>0.0</speed>
  <fix>3d</fix>
</trkpt>
<trkpt lat="-27.274439" lon="151.290064">
  <ele>343.1</ele>
  <time>2026-09-01T20:00:36Z</time>
  <course>8.0</course>
  <speed>0.0</speed>
  <fix>3d</fix>
</trkpt>
<trkpt lat="-27.274439" lon="151.290064">
  <ele>343.1</ele>
  <time>2026-09-01T20:00:36Z</time>
  <course>270.0</course>
  <speed>0.0</speed>
  <fix>3d</fix>
</trkpt>
<trkpt lat="-27.274439" lon="151.290064">
  <ele>343.1</ele>
  <time>2026-09-01T20:00:36Z</time>
  <course>8.0</course>
  <speed>0.0</speed>
  <fix>3d</fix>
</trkpt>
<trkpt lat="-27.274439" lon="151.290064">
  <ele>343.1</ele>
  <time>2026-09-01T20:00:36Z</time>
  <course>270.0</course>
  <speed>0.0</speed>
  <fix>3d</fix>
</trkpt>
<trkpt lat="-27.274439" lon="151.290064">
  <ele>343.1</ele>
  <time>2026-09-01T20:00:36Z</time>
  <course>8.0</course>
  <speed>0.0</speed>
  <fix>3d</fix>
</trkpt>
<trkpt lat="-27.274439" lon="151.290064">
  <ele>343.1</ele>
  <time>2026-09-01T20:00:36Z</time>
  <course>270.0</course>
  <speed>0.0</speed>
  <fix>3d</fix>
</trkpt>
<trkpt lat="-27.274439" lon="151.290064">
  <ele>343.1</ele>
  <time>2026-09-01T20:00:36Z</time>
  <course>8.0</course>
  <speed>0.0</speed>
  <fix>3d</fix>
</trkpt>
<trkpt lat="-27.274439" lon="151.290064">
  <ele>343.1</ele>
  <time>2026-09-01T20:00:36Z</time>
  <course>270.0</course>
  <speed>0.0</speed>
  <fix>3d</fix>
</trkpt>
<trkpt lat="-27.274439" lon="151.290064">
  <ele>343.1</ele>
  <time>2026-09-01T20:00:36Z</time>
  <course>8.0</course>
  <speed>0.0</speed>
  <fix>3d</fix>
</trkpt>
<trkpt lat="-27.274439" lon="151.290064">
  <ele>343.1</ele>
  <time>2026-09-01T20:00:36Z</time>
  <course>270.0</course>
  <speed>0.0</speed>
  <fix>3d</fix>
</trkpt>
<trkpt lat="-27.274439" lon="151.290064">
  <ele>343.1</ele>
  <time>2026-09-01T20:00:36Z</time>
  <course>8.0</course>
  <speed>0.0</speed>
  <fix>3d</fix>
</trkpt>
<trkpt lat="-27.274439" lon="151.290064">
  <ele>343.1</ele>
  <time>2026-09-01T20:00:36Z</time>
  <course>270.0</course>
  <speed>0.0</speed>
  <fix>3d</fix>
</trkpt>
<trkpt lat="-27.274439" lon="151.290064">
  <ele>343.1</ele>
  <time>2026-09-01T20:00:36Z</time>
  <course>8.0</course>
  <speed>0.0</speed>
  <fix>3d</fix>
</trkpt>
<trkpt lat="-27.274439" lon="151.290064">
  <ele>343.1</ele>
  <time>2026-09-01T20:00:36Z</time>
  <course>270.0</course>
  <speed>0.0</speed>
  <fix>3d</fix>
</trkpt>
<trkpt lat="-27.274439" lon="151.290064">
  <ele>343.1</ele>
  <time>2026-09-01T20:00:36Z</time>
  <course>8.0</course>
  <speed>0.0</speed>
  <fix>3d</fix>
</trkpt>
<trkpt lat="-27.274439" lon="151.290064">
  <ele>343.1</ele>
  <time>2026-09-01T20:00:36Z</time>
  <course>270.0</course>
  <speed>0.0</speed>
  <fix>3d</fix>
</trkpt>
<trkpt lat="-27.274439" lon="151.290064">
  <ele>343.1</ele>
  <time>2026-09-01T20:00:36Z</time>
  <course>8.0</course>
  <speed>0.0</speed>
  <fix>3d</fix>
</trkpt>
<trkpt lat="-27.274439" lon="151.290064">
  <ele>343.1</ele>
  <time>2026-09-01T20:00:36Z</time>
  <course>270.0</course>
  <speed>0.0</speed>
  <fix>3d</fix>
</trkpt>
<trkpt lat="-27.274439" lon="151.290064">
  <ele>343.1</ele>
  <time>2026-09-01T20:00:36Z</time>
  <course>8.0</course>
  <speed>0.0</speed>
  <fix>3d</fix>
</trkpt>
<trkpt lat="-27.274439" lon="151.290064">
  <ele>343.1</ele>
  <time>2026-09-01T20:00:36Z</time>
  <course>270.0</course>
  <speed>0.0</speed>
  <fix>3d</fix>
</trkpt>
<trkpt lat="-27.274439" lon="151.290064">
  <ele>343.1</ele>
  <time>2026-09-01T20:00:36Z</time>
  <course>8.0</course>
  <speed>0.0</speed>
  <fix>3d</fix>
</trkpt>
<trkpt lat="-27.274439" lon="151.290064">
  <ele>343.1</ele>
  <time>2026-09-01T20:00:36Z</time>
  <course>270.0</course>
  <speed>0.0</speed>
  <fix>3d</fix>
</trkpt>
<trkpt lat="-27.274439" lon="151.290064">
  <ele>343.1</ele>
  <time>2026-09-01T20:00:36Z</time>
  <course>8.0</course>
  <speed>0.0</speed>
  <fix>3d</fix>
</trkpt>
<trkpt lat="-27.274439" lon="151.290064">
  <ele>343.1</ele>
  <time>2026-09-01T20:00:36Z</time>
  <course>270.0</course>
  <speed>0.0</speed>
  <fix>3d</fix>
</trkpt>
<trkpt lat="-27.274439" lon="151.290064">
  <ele>343.1</ele>
  <time>2026-09-01T20:00:36Z</time>
  <course>8.0</course>
  <speed>0.0</speed>
  <fix>3d</fix>
</trkpt>
<trkpt lat="-27.274439" lon="151.290064">
  <ele>343.1</ele>
  <time>2026-09-01T20:00:36Z</time>
  <course>270.0</course>
  <speed>0.0</speed>
  <fix>3d</fix>
</trkpt>
<trkpt lat="-27.274439" lon="151.290064">
  <ele>343.1</ele>
  <time>2026-09-01T20:00:36Z</time>
  <course>8.0</course>
  <speed>0.0</speed>
  <fix>3d</fix>
</trkpt>
<trkpt lat="-27.274439" lon="151.290064">
  <ele>343.1</ele>
  <time>2026-09-01T20:00:36Z</time>
  <course>270.0</course>
  <speed>0.0</speed>
  <fix>3d</fix>
</trkpt>
<trkpt lat="-27.274439" lon="151.290064">
  <ele>343.1</ele>
  <time>2026-09-01T20:00:36Z</time>
  <course>8.0</course>
  <speed>0.0</speed>
  <fix>3d</fix>
</trkpt>
<trkpt lat="-27.274439" lon="151.290064">
  <ele>343.1</ele>
  <time>2026-09-01T20:00:36Z</time>
  <course>270.0</course>
  <speed>0.0</speed>
  <fix>3d</fix>
</trkpt>
<trkpt lat="-27.274439" lon="151.290064">
  <ele>343.1</ele>
  <time>2026-09-01T20:00:36Z</time>
  <course>8.0</course>
  <speed>0.0</speed>
  <fix>3d</fix>
</trkpt>
<trkpt lat="-27.274439" lon="151.290064">
  <ele>343.1</ele>
  <time>2026-09-01T20:00:36Z</time>
  <course>270.0</course>
  <speed>0.0</speed>
  <fix>3d</fix>
</trkpt>
<trkpt lat="-27.274439" lon="151.290064">
  <ele>343.1</ele>
  <time>2026-09-01T20:00:36Z</time>
  <course>8.0</course>
  <speed>0.0</speed>
  <fix>3d</fix>
</trkpt>
<trkpt lat="-27.274439" lon="151.290064">
  <ele>343.1</ele>
  <time>2026-09-01T20:00:36Z</time>
  <course>270.0</course>
  <speed>0.0</speed>
  <fix>3d</fix>
</trkpt>
<trkpt lat="-27.274439" lon="151.290064">
  <ele>343.1</ele>
  <time>2026-09-01T20:00:36Z</time>
  <course>8.0</course>
  <speed>0.0</speed>
  <fix>3d</fix>
</trkpt>
<trkpt lat="-27.274439" lon="151.290064">
  <ele>343.1</ele>
  <time>2026-09-01T20:00:36Z</time>
  <course>270.0</course>
  <speed>0.0</speed>
  <fix>3d</fix>
</trkpt>
<trkpt lat="-27.274439" lon="151.290064">
  <ele>343.1</ele>
  <time>2026-09-01T20:00:36Z</time>
  <course>8.0</course>
  <speed>0.0</speed>
  <fix>3d</fix>
</trkpt>
<trkpt lat="-27.274439" lon="151.290064">
  <ele>343.1</ele>
  <time>2026-09-01T20:00:36Z</time>
  <course>270.0</course>
  <speed>0.0</speed>
  <fix>3d</fix>
</trkpt>
<trkpt lat="-27.274439" lon="151.290064">
  <ele>343.1</ele>
  <time>2026-09-01T20:00:36Z</time>
  <course>8.0</course>
  <speed>0.0</speed>
  <fix>3d</fix>
</trkpt>
<trkpt lat="-27.274439" lon="151.290064">
  <ele>343.1</ele>
  <time>2026-09-01T20:00:36Z</time>
  <course>270.0</course>
  <speed>0.0</speed>
  <fix>3d</fix>
</trkpt>
<trkpt lat="-27.274439" lon="151.290064">
  <ele>343.1</ele>
  <time>2026-09-01T20:00:36Z</time>
  <course>8.0</course>
  <speed>0.0</speed>
  <fix>3d</fix>
</trkpt>
<trkpt lat="-27.274439" lon="151.290064">
  <ele>343.1</ele>
  <time>2026-09-01T20:00:36Z</time>
  <course>270.0</course>
  <speed>0.0</speed>
  <fix>3d</fix>
</trkpt>
<trkpt lat="-27.274439" lon="151.290064">
  <ele>343.1</ele>
  <time>2026-09-01T20:00:36Z</time>
  <course>8.0</course>
  <speed>0.0</speed>
  <fix>3d</fix>
</trkpt>
<trkpt lat="-27.274439" lon="151.290064">
  <ele>343.1</ele>
  <time>2026-09-01T20:00:36Z</time>
  <course>270.0</course>
  <speed>0.0</speed>
  <fix>3d</fix>
</trkpt>
<trkpt lat="-27.274439" lon="151.290064">
  <ele>343.1</ele>
  <time>2026-09-01T20:00:36Z</time>
  <course>8.0</course>
  <speed>0.0</speed>
  <fix>3d</fix>
</trkpt>
<trkpt lat="-27.274439" lon="151.290064">
  <ele>343.1</ele>
  <time>2026-09-01T20:00:36Z</time>
  <course>270.0</course>
  <speed>0.0</speed>
  <fix>3d</fix>
</trkpt>
<trkpt lat="-27.274439" lon="151.290064">
  <ele>343.1</ele>
  <time>2026-09-01T20:00:36Z</time>
  <course>8.0</course>
  <speed>0.0</speed>
  <fix>3d</fix>
</trkpt>
<trkpt lat="-27.274439" lon="151.290064">
  <ele>343.1</ele>
  <time>2026-09-01T20:00:36Z</time>
  <course>270.0</course>
  <speed>0.0</speed>
  <fix>3d</fix>
</trkpt>
<trkpt lat="-27.274439" lon="151.290064">
  <ele>343.1</ele>
  <time>2026-09-01T20:00:36Z</time>
  <course>8.0</course>
  <speed>0.0</speed>
  <fix>3d</fix>
</trkpt>
<trkpt lat="-27.274439" lon="151.290064">
  <ele>343.1</ele>
  <time>2026-09-01T20:00:36Z</time>
  <course>270.0</course>
  <speed>0.0</speed>
  <fix>3d</fix>
</trkpt>
<trkpt lat="-27.274439" lon="151.290064">
  <ele>343.1</ele>
  <time>2026-09-01T20:00:36Z</time>
  <course>8.0</course>
  <speed>0.0</speed>
  <fix>3d</fix>
</trkpt>
<trkpt lat="-27.274439" lon="151.290064">
  <ele>343.1</ele>
  <time>2026-09-01T20:00:36Z</time>
  <course>270.0</course>
  <speed>0.0</speed>
  <fix>3d</fix>
</trkpt>
<trkpt lat="-27.274439" lon="151.290064">
  <ele>343.1</ele>
  <time>2026-09-01T20:00:36Z</time>
  <course>8.0</course>
  <speed>0.0</speed>
  <fix>3d</fix>
</trkpt>
<trkpt lat="-27.274439" lon="151.290064">
  <ele>343.1</ele>
  <time>2026-09-01T20:00:36Z</time>
  <course>270.0</course>
  <speed>0.0</speed>
  <fix>3d</fix>
</trkpt>
<trkpt lat="-27.274439" lon="151.290064">
  <ele>343.1</ele>
  <time>2026-09-01T20:00:36Z</time>
  <course>8.0</course>
  <speed>0.0</speed>
  <fix>3d</fix>
</trkpt>
<trkpt lat="-27.274439" lon="151.290064">
  <ele>343.1</ele>
  <time>2026-09-01T20:00:36Z</time>
  <course>270.0</course>
  <speed>0.0</speed>
  <fix>3d</fix>
</trkpt>
<trkpt lat="-27.274439" lon="151.290064">
  <ele>343.1</ele>
  <time>2026-09-01T20:00:36Z</time>
  <course>8.0</course>
  <speed>0.0</speed>
  <fix>3d</fix>
</trkpt>
<trkpt lat="-27.274439" lon="151.290064">
  <ele>343.1</ele>
  <time>2026-09-01T20:00:36Z</time>
  <course>270.0</course>
  <speed>0.0</speed>
  <fix>3d</fix>
</trkpt>
<trkpt lat="-27.274439" lon="151.290064">
  <ele>343.1</ele>
  <time>2026-09-01T20:00:36Z</time>
  <course>8.0</course>
  <speed>0.0</speed>
  <fix>3d</fix>
</trkpt>
<trkpt lat="-27.274439" lon="151.290064">
  <ele>343.1</ele>
  <time>2026-09-01T20:00:36Z</time>
  <course>270.0</course>
  <speed>0.0</speed>
  <fix>3d</fix>
</trkpt>
<trkpt lat="-27.274439" lon="151.290064">
  <ele>343.1</ele>
  <time>2026-09-01T20:00:36Z</time>
  <course>8.0</course>
  <speed>0.0</speed>
  <fix>3d</fix>
</trkpt>
<trkpt lat="-27.274439" lon="151.290064">
  <ele>343.1</ele>
  <time>2026-09-01T20:00:36Z</time>
  <course>270.0</course>
  <speed>0.0</speed>
  <fix>3d</fix>
</trkpt>
<trkpt lat="-27.274439" lon="151.290064">
  <ele>343.1</ele>
  <time>2026-09-01T20:00:36Z</time>
  <course>8.0</course>
  <speed>0.0</speed>
  <fix>3d</fix>
</trkpt>
<trkpt lat="-27.274439" lon="151.290064">
  <ele>343.1</ele>
  <time>2026-09-01T20:00:36Z</time>
  <course>270.0</course>
  <speed>0.0</speed>
  <fix>3d</fix>
</trkpt>
<trkpt lat="-27.274439" lon="151.290064">
  <ele>343.1</ele>
  <time>2026-09-01T20:00:36Z</time>
  <course>8.0</course>
  <speed>0.0</speed>
  <fix>3d</fix>
</trkpt>
<trkpt lat="-27.274439" lon="151.290064">
  <ele>343.1</ele>
  <time>2026-09-01T20:00:36Z</time>
  <course>270.0</course>
  <speed>0.0</speed>
  <fix>3d</fix>
</trkpt>
<trkpt lat="-27.274439" lon="151.290064">
  <ele>343.1</ele>
  <time>2026-09-01T20:00:36Z</time>
  <course>8.0</course>
  <speed>0.0</speed>
  <fix>3d</fix>
</trkpt>
<trkpt lat="-27.274439" lon="151.290064">
  <ele>343.1</ele>
  <time>2026-09-01T20:00:36Z</time>
  <course>270.0</course>
  <speed>0.0</speed>
  <fix>3d</fix>
</trkpt>
<trkpt lat="-27.274439" lon="151.290064">
  <ele>343.1</ele>
  <time>2026-09-01T20:00:36Z</time>
  <course>8.0</course>
  <speed>0.0</speed>
  <fix>3d</fix>
</trkpt>
<trkpt lat="-27.274439" lon="151.290064">
  <ele>343.1</ele>
  <time>2026-09-01T20:00:36Z</time>
  <course>270.0</course>
  <speed>0.0</speed>
  <fix>3d</fix>
</trkpt>
<trkpt lat="-27.274439" lon="151.290064">
  <ele>343.1</ele>
  <time>2026-09-01T20:00:36Z</time>
  <course>8.0</course>
  <speed>0.0</speed>
  <fix>3d</fix>
</trkpt>
<trkpt lat="-27.274439" lon="151.290064">
  <ele>343.1</ele>
  <time>2026-09-01T20:00:36Z</time>
  <course>270.0</course>
  <speed>0.0</speed>
  <fix>3d</fix>
</trkpt>
<trkpt lat="-27.274439" lon="151.290064">
  <ele>343.1</ele>
  <time>2026-09-01T20:00:36Z</time>
  <course>8.0</course>
  <speed>0.0</speed>
  <fix>3d</fix>
</trkpt>
<trkpt lat="-27.274439" lon="151.290064">
  <ele>343.1</ele>
  <time>2026-09-01T20:00:36Z</time>
  <course>270.0</course>
  <speed>0.0</speed>
  <fix>3d</fix>
</trkpt>
<trkpt lat="-27.274439" lon="151.290064">
  <ele>343.1</ele>
  <time>2026-09-01T20:00:36Z</time>
  <course>8.0</course>
  <speed>0.0</speed>
  <fix>3d</fix>
</trkpt>
<trkpt lat="-27.274439" lon="151.290064">
  <ele>343.1</ele>
  <time>2026-09-01T20:00:36Z</time>
  <course>270.0</course>
  <speed>0.0</speed>
  <fix>3d</fix>
</trkpt>
<trkpt lat="-27.274439" lon="151.290064">
  <ele>343.1</ele>
  <time>2026-09-01T20:00:36Z</time>
  <course>8.0</course>
  <speed>0.0</speed>
  <fix>3d</fix>
</trkpt>
<trkpt lat="-27.274439" lon="151.290064">
  <ele>343.1</ele>
  <time>2026-09-01T20:00:36Z</time>
  <course>270.0</course>
  <speed>0.0</speed>
  <fix>3d</fix>
</trkpt>
<trkpt lat="-27.2726455" lon="151.2940959">
  <ele>539.69</ele>
  <time>2026-09-01T20:00:36Z</time>
  <course>242.29</course>
  <speed>13.04448159184565</speed>
  <fix>3d</fix>
</trkpt>
<trkpt lat="-27.274439" lon="151.290064">
  <ele>343.1</ele>
  <time>2026-09-01T20:00:36Z</time>
  <course>270.0</course>
  <speed>0.0</speed>
  <fix>3d</fix>
</trkpt>
<trkpt lat="-27.272651" lon="151.2940822">
  <ele>535.88</ele>
  <time>2026-09-01T20:00:36Z</time>
  <course>231.95</course>
  <speed>16.571134541726465</speed>
  <fix>3d</fix>
</trkpt>
<trkpt lat="-27.274439" lon="151.290064">
  <ele>343.1</ele>
  <time>2026-09-01T20:00:36Z</time>
  <course>270.0</course>
  <speed>0.0</speed>
  <fix>3d</fix>
</trkpt>
<trkpt lat="-27.2726603" lon="151.2940676">
  <ele>532.2</ele>
  <time>2026-09-01T20:00:36Z</time>
  <course>222.39</course>
  <speed>18.81502059525846</speed>
  <fix>3d</fix>
</trkpt>
<trkpt lat="-27.2735447" lon="151.2920735">
  <ele>439.59</ele>
  <time>2026-09-01T20:00:36Z</time>
  <course>240.77</course>
  <speed>8.18</speed>
  <fix>3d</fix>
</trkpt>
<trkpt lat="-27.2726728" lon="151.2940539">
  <ele>528.58</ele>
  <time>2026-09-01T20:00:36Z</time>
  <course>206.24</course>
  <speed>19.848921885079804</speed>
  <fix>3d</fix>
</trkpt>
<trkpt lat="-27.2735447" lon="151.2920735">
  <ele>439.59</ele>
  <time>2026-09-01T20:00:36Z</time>
  <course>240.77</course>
  <speed>8.18</speed>
  <fix>3d</fix>
</trkpt>
<trkpt lat="-27.2726879" lon="151.2940429">
  <ele>524.98</ele>
  <time>2026-09-01T20:00:36Z</time>
  <course>196.87</course>
  <speed>20.02182059653917</speed>
  <fix>3d</fix>
</trkpt>
<trkpt lat="-27.2726613" lon="151.2940688">
  <ele>532.44</ele>
  <time>2026-09-01T20:00:36Z</time>
  <course>228.76</course>
  <speed>17.77</speed>
  <fix>3d</fix>
</trkpt>
<trkpt lat="-27.2727035" lon="151.2940315">
  <ele>521.41</ele>
  <time>2026-09-01T20:00:36Z</time>
  <course>211.15</course>
  <speed>22.365815433379577</speed>
  <fix>3d</fix>
</trkpt>
<trkpt lat="-27.2726613" lon="151.2940688">
  <ele>532.44</ele>
  <time>2026-09-01T20:00:36Z</time>
  <course>228.76</course>
  <speed>17.77</speed>
  <fix>3d</fix>
</trkpt>
<trkpt lat="-27.2727196" lon="151.2940131">
  <ele>518.2</ele>
  <time>2026-09-01T20:00:36Z</time>
  <course>223.69</course>
  <speed>28.981202528535633</speed>
  <fix>3d</fix>
</trkpt>
<trkpt lat="-27.2726874" lon="151.2940434">
  <ele>525.18</ele>
  <time>2026-09-01T20:00:36Z</time>
  <course>218.45</course>
  <speed>20.96</speed>
  <fix>3d</fix>
</trkpt>
<trkpt lat="-27.2727367" lon="151.2939874">
  <ele>515.77</ele>
  <time>2026-09-01T20:00:36Z</time>
  <course>231.32</course>
  <speed>34.73955670413772</speed>
  <fix>3d</fix>
</trkpt>
<trkpt lat="-27.2726874" lon="151.2940434">
  <ele>525.18</ele>
  <time>2026-09-01T20:00:36Z</time>
  <course>218.45</course>
  <speed>20.96</speed>
  <fix>3d</fix>
</trkpt>
<trkpt lat="-27.2727554" lon="151.293957">
  <ele>514.24</ele>
  <time>2026-09-01T20:00:36Z</time>
  <course>235.06</course>
  <speed>37.61703071748221</speed>
  <fix>3d</fix>
</trkpt>
<trkpt lat="-27.2727193" lon="151.2940105">
  <ele>518.72</ele>
  <time>2026-09-01T20:00:36Z</time>
  <course>228.09</course>
  <speed>28.04</speed>
  <fix>3d</fix>
</trkpt>
<trkpt lat="-27.272774" lon="151.293925">
  <ele>513.68</ele>
  <time>2026-09-01T20:00:36Z</time>
  <course>236.97</course>
  <speed>37.839885042108676</speed>
  <fix>3d</fix>
</trkpt>
<trkpt lat="-27.2727193" lon="151.2940105">
  <ele>518.72</ele>
  <time>2026-09-01T20:00:36Z</time>
  <course>228.09</course>
  <speed>28.04</speed>
  <fix>3d</fix>
</trkpt>
<trkpt lat="-27.2727916" lon="151.2938931">
  <ele>513.94</ele>
  <time>2026-09-01T20:00:36Z</time>
  <course>238.68</course>
  <speed>36.15050898673489</speed>
  <fix>3d</fix>
</trkpt>
<trkpt lat="-27.2727545" lon="151.2939577">
  <ele>514.77</ele>
  <time>2026-09-01T20:00:36Z</time>
  <course>235.97</course>
  <speed>36.2</speed>
  <fix>3d</fix>
</trkpt>
<trkpt lat="-27.2728075" lon="151.2938625">
  <ele>514.78</ele>
  <time>2026-09-01T20:00:36Z</time>
  <course>240.59</course>
  <speed>33.85638049171825</speed>
  <fix>3d</fix>
</trkpt>
<trkpt lat="-27.2727545" lon="151.2939577">
  <ele>514.77</ele>
  <time>2026-09-01T20:00:36Z</time>
  <course>235.97</course>
  <speed>36.2</speed>
  <fix>3d</fix>
</trkpt>
<trkpt lat="-27.2728214" lon="151.2938335">
  <ele>515.97</ele>
  <time>2026-09-01T20:00:36Z</time>
  <course>242.08</course>
  <speed>31.812906186011993</speed>
  <fix>3d</fix>
</trkpt>
<trkpt lat="-27.2727899" lon="151.2938953">
  <ele>514.2</ele>
  <time>2026-09-01T20:00:36Z</time>
  <course>238.87</course>
  <speed>35.91</speed>
  <fix>3d</fix>
</trkpt>
<trkpt lat="-27.2728339" lon="151.2938054">
  <ele>517.31</ele>
  <time>2026-09-01T20:00:36Z</time>
  <course>242.83</course>
  <speed>30.33218917256056</speed>
  <fix>3d</fix>
</trkpt>
<trkpt lat="-27.2727899" lon="151.2938953">
  <ele>514.2</ele>
  <time>2026-09-01T20:00:36Z</time>
  <course>238.87</course>
  <speed>35.91</speed>
  <fix>3d</fix>
</trkpt>
<trkpt lat="-27.2728454" lon="151.2937782">
  <ele>518.68</ele>
  <time>2026-09-01T20:00:36Z</time>
  <course>243.21</course>
  <speed>29.28738465619626</speed>
  <fix>3d</fix>
</trkpt>
<trkpt lat="-27.27282" lon="151.2938354">
  <ele>515.98</ele>
  <time>2026-09-01T20:00:36Z</time>
  <course>242.23</course>
  <speed>32.17</speed>
  <fix>3d</fix>
</trkpt>
<trkpt lat="-27.2728564" lon="151.2937518">
  <ele>520.01</ele>
  <time>2026-09-01T20:00:36Z</time>
  <course>243.58</course>
  <speed>28.484966210266077</speed>
  <fix>3d</fix>
</trkpt>
<trkpt lat="-27.27282" lon="151.2938354">
  <ele>515.98</ele>
  <time>2026-09-01T20:00:36Z</time>
  <course>242.23</course>
  <speed>32.17</speed>
  <fix>3d</fix>
</trkpt>
<trkpt lat="-27.272867" lon="151.293726">
  <ele>521.28</ele>
  <time>2026-09-01T20:00:36Z</time>
  <course>244.06</course>
  <speed>27.787840866105448</speed>
  <fix>3d</fix>
</trkpt>
<trkpt lat="-27.2728445" lon="151.2937799">
  <ele>518.59</ele>
  <time>2026-09-01T20:00:36Z</time>
  <course>244.52</course>
  <speed>29.46</speed>
  <fix>3d</fix>
</trkpt>
<trkpt lat="-27.2728774" lon="151.2937009">
  <ele>522.47</ele>
  <time>2026-09-01T20:00:36Z</time>
  <course>244.5</course>
  <speed>27.13965364554235</speed>
  <fix>3d</fix>
</trkpt>
<trkpt lat="-27.2728445" lon="151.2937799">
  <ele>518.59</ele>
  <time>2026-09-01T20:00:36Z</time>
  <course>244.52</course>
  <speed>29.46</speed>
  <fix>3d</fix>
</trkpt>
<trkpt lat="-27.2728875" lon="151.2936762">
  <ele>523.59</ele>
  <time>2026-09-01T20:00:36Z</time>
  <course>244.77</course>
  <speed>26.5012395936492</speed>
  <fix>3d</fix>
</trkpt>
<trkpt lat="-27.2728663" lon="151.2937276">
  <ele>521.18</ele>
  <time>2026-09-01T20:00:36Z</time>
  <course>245.06</course>
  <speed>27.85</speed>
  <fix>3d</fix>
</trkpt>
<trkpt lat="-27.2728974" lon="151.2936523">
  <ele>524.65</ele>
  <time>2026-09-01T20:00:36Z</time>
  <course>244.91</course>
  <speed>25.845473491503302</speed>
  <fix>3d</fix>
</trkpt>
<trkpt lat="-27.2728663" lon="151.2937276">
  <ele>521.18</ele>
  <time>2026-09-01T20:00:36Z</time>
  <course>245.06</course>
  <speed>27.85</speed>
  <fix>3d</fix>
</trkpt>
<trkpt lat="-27.2729069" lon="151.2936288">
  <ele>525.66</ele>
  <time>2026-09-01T20:00:36Z</time>
  <course>245.04</course>
  <speed>25.15922097363112</speed>
  <fix>3d</fix>
</trkpt>
<trkpt lat="-27.2728869" lon="151.2936778">
  <ele>523.5</ele>
  <time>2026-09-01T20:00:36Z</time>
  <course>245.22</course>
  <speed>26.52</speed>
  <fix>3d</fix>
</trkpt>
<trkpt lat="-27.2729161" lon="151.2936059">
  <ele>526.65</ele>
  <time>2026-09-01T20:00:36Z</time>
  <course>245.22</course>
  <speed>24.45591135083704</speed>
  <fix>3d</fix>
</trkpt>
<trkpt lat="-27.2728869" lon="151.2936778">
  <ele>523.5</ele>
  <time>2026-09-01T20:00:36Z</time>
  <course>245.22</course>
  <speed>26.52</speed>
  <fix>3d</fix>
</trkpt>
<trkpt lat="-27.2729249" lon="151.2935838">
  <ele>527.6</ele>
  <time>2026-09-01T20:00:36Z</time>
  <course>245.46</course>
  <speed>23.730674242423035</speed>
  <fix>3d</fix>
</trkpt>
<trkpt lat="-27.2729062" lon="151.2936303">
  <ele>525.6</ele>
  <time>2026-09-01T20:00:36Z</time>
  <course>245.52</course>
  <speed>25.18</speed>
  <fix>3d</fix>
</trkpt>
<trkpt lat="-27.2729334" lon="151.2935622">
  <ele>528.54</ele>
  <time>2026-09-01T20:00:36Z</time>
  <course>245.75</course>
  <speed>22.974407500521096</speed>
  <fix>3d</fix>
</trkpt>
<trkpt lat="-27.2729062" lon="151.2936303">
  <ele>525.6</ele>
  <time>2026-09-01T20:00:36Z</time>
  <course>245.52</course>
  <speed>25.18</speed>
  <fix>3d</fix>
</trkpt>
<trkpt lat="-27.2729415" lon="151.2935412">
  <ele>529.48</ele>
  <time>2026-09-01T20:00:36Z</time>
  <course>246.06</course>
  <speed>22.209443937208334</speed>
  <fix>3d</fix>
</trkpt>
<trkpt lat="-27.2729243" lon="151.2935852">
  <ele>527.55</ele>
  <time>2026-09-01T20:00:36Z</time>
  <course>245.97</course>
  <speed>23.76</speed>
  <fix>3d</fix>
</trkpt>
<trkpt lat="-27.2729493" lon="151.2935211">
  <ele>530.41</ele>
  <time>2026-09-01T20:00:36Z</time>
  <course>246.37</course>
  <speed>21.43053195793329</speed>
  <fix>3d</fix>
</trkpt>
<trkpt lat="-27.2729243" lon="151.2935852">
  <ele>527.55</ele>
  <time>2026-09-01T20:00:36Z</time>
  <course>245.97</course>
  <speed>23.76</speed>
  <fix>3d</fix>
</trkpt>
<trkpt lat="-27.2729567" lon="151.2935015">
  <ele>531.35</ele>
  <time>2026-09-01T20:00:36Z</time>
  <course>246.65</course>
  <speed>20.642792931190293</speed>
  <fix>3d</fix>
</trkpt>
<trkpt lat="-27.2729409" lon="151.2935427">
  <ele>529.43</ele>
  <time>2026-09-01T20:00:36Z</time>
  <course>246.47</course>
  <speed>22.25</speed>
  <fix>3d</fix>
</trkpt>
<trkpt lat="-27.2729638" lon="151.2934827">
  <ele>532.28</ele>
  <time>2026-09-01T20:00:36Z</time>
  <course>246.91</course>
  <speed>19.859310159217515</speed>
  <fix>3d</fix>
</trkpt>
<trkpt lat="-27.2729409" lon="151.2935427">
  <ele>529.43</ele>
  <time>2026-09-01T20:00:36Z</time>
  <course>246.47</course>
  <speed>22.25</speed>
  <fix>3d</fix>
</trkpt>
<trkpt lat="-27.2729706" lon="151.2934645">
  <ele>533.22</ele>
  <time>2026-09-01T20:00:36Z</time>
  <course>247.15</course>
  <speed>19.070776072304977</speed>
  <fix>3d</fix>
</trkpt>
<trkpt lat="-27.2729562" lon="151.2935027">
  <ele>531.3</ele>
  <time>2026-09-01T20:00:36Z</time>
  <course>246.95</course>
  <speed>20.68</speed>
  <fix>3d</fix>
</trkpt>
<trkpt lat="-27.272977" lon="151.2934469">
  <ele>534.16</ele>
  <time>2026-09-01T20:00:36Z</time>
  <course>247.38</course>
  <speed>18.28632549201725</speed>
  <fix>3d</fix>
</trkpt>
<trkpt lat="-27.2729562" lon="151.2935027">
  <ele>531.3</ele>
  <time>2026-09-01T20:00:36Z</time>
  <course>246.95</course>
  <speed>20.68</speed>
  <fix>3d</fix>
</trkpt>
<trkpt lat="-27.2729831" lon="151.2934302">
  <ele>535.09</ele>
  <time>2026-09-01T20:00:36Z</time>
  <course>247.58</course>
  <speed>17.51515058456535</speed>
  <fix>3d</fix>
</trkpt>
<trkpt lat="-27.2729701" lon="151.2934656">
  <ele>533.17</ele>
  <time>2026-09-01T20:00:36Z</time>
  <course>247.39</course>
  <speed>19.11</speed>
  <fix>3d</fix>
</trkpt>
<trkpt lat="-27.2729889" lon="151.2934141">
  <ele>536.02</ele>
  <time>2026-09-01T20:00:36Z</time>
  <course>247.76</course>
  <speed>16.770238519472525</speed>
  <fix>3d</fix>
</trkpt>
<trkpt lat="-27.2729701" lon="151.2934656">
  <ele>533.17</ele>
  <time>2026-09-01T20:00:36Z</time>
  <course>247.39</course>
  <speed>19.11</speed>
  <fix>3d</fix>
</trkpt>
<trkpt lat="-27.2729944" lon="151.2933988">
  <ele>536.93</ele>
  <time>2026-09-01T20:00:36Z</time>
  <course>247.92</course>
  <speed>16.060790765089994</speed>
  <fix>3d</fix>
</trkpt>
<trkpt lat="-27.2729826" lon="151.2934313">
  <ele>535.04</ele>
  <time>2026-09-01T20:00:36Z</time>
  <course>247.78</course>
  <speed>17.57</speed>
  <fix>3d</fix>
</trkpt>
<trkpt lat="-27.2729997" lon="151.293384">
  <ele>537.82</ele>
  <time>2026-09-01T20:00:36Z</time>
  <course>248.06</course>
  <speed>15.390454834084665</speed>
  <fix>3d</fix>
</trkpt>
<trkpt lat="-27.2729826" lon="151.2934313">
  <ele>535.04</ele>
  <time>2026-09-01T20:00:36Z</time>
  <course>247.78</course>
  <speed>17.57</speed>
  <fix>3d</fix>
</trkpt>
<trkpt lat="-27.2730047" lon="151.2933698">
  <ele>538.69</ele>
  <time>2026-09-01T20:00:36Z</time>
  <course>248.19</course>
  <speed>14.770375756899348</speed>
  <fix>3d</fix>
</trkpt>
<trkpt lat="-27.272994" lon="151.2933997">
  <ele>536.87</ele>
  <time>2026-09-01T20:00:36Z</time>
  <course>248.13</course>
  <speed>16.12</speed>
  <fix>3d</fix>
</trkpt>
<trkpt lat="-27.2730094" lon="151.2933562">
  <ele>539.53</ele>
  <time>2026-09-01T20:00:36Z</time>
  <course>248.31</course>
  <speed>14.189309355990517</speed>
  <fix>3d</fix>
</trkpt>
<trkpt lat="-27.272994" lon="151.2933997">
  <ele>536.87</ele>
  <time>2026-09-01T20:00:36Z</time>
  <course>248.13</course>
  <speed>16.12</speed>
  <fix>3d</fix>
</trkpt>
<trkpt lat="-27.273014" lon="151.293343">
  <ele>540.33</ele>
  <time>2026-09-01T20:00:36Z</time>
  <course>248.43</course>
  <speed>13.630572255044905</speed>
  <fix>3d</fix>
</trkpt>
<trkpt lat="-27.2730042" lon="151.2933708">
  <ele>538.63</ele>
  <time>2026-09-01T20:00:36Z</time>
  <course>248.42</course>
  <speed>14.82</speed>
  <fix>3d</fix>
</trkpt>
<trkpt lat="-27.2730183" lon="151.2933305">
  <ele>541.1</ele>
  <time>2026-09-01T20:00:36Z</time>
  <course>248.54</course>
  <speed>13.107097314050888</speed>
  <fix>3d</fix>
</trkpt>
<trkpt lat="-27.2730042" lon="151.2933708">
  <ele>538.63</ele>
  <time>2026-09-01T20:00:36Z</time>
  <course>248.42</course>
  <speed>14.82</speed>
  <fix>3d</fix>
</trkpt>
<trkpt lat="-27.2730225" lon="151.2933184">
  <ele>541.83</ele>
  <time>2026-09-01T20:00:36Z</time>
  <course>248.64</course>
  <speed>12.602321214760398</speed>
  <fix>3d</fix>
</trkpt>
<trkpt lat="-27.2730136" lon="151.293344">
  <ele>540.27</ele>
  <time>2026-09-01T20:00:36Z</time>
  <course>248.68</course>
  <speed>13.68</speed>
  <fix>3d</fix>
</trkpt>
<trkpt lat="-27.2730265" lon="151.2933067">
  <ele>542.52</ele>
  <time>2026-09-01T20:00:36Z</time>
  <course>248.74</course>
  <speed>12.123448354325596</speed>
  <fix>3d</fix>
</trkpt>
<trkpt lat="-27.2730136" lon="151.293344">
  <ele>540.27</ele>
  <time>2026-09-01T20:00:36Z</time>
  <course>248.68</course>
  <speed>13.68</speed>
  <fix>3d</fix>
</trkpt>
<trkpt lat="-27.2730303" lon="151.2932955">
  <ele>543.18</ele>
  <time>2026-09-01T20:00:36Z</time>
  <course>248.84</course>
  <speed>11.65395211934561</speed>
  <fix>3d</fix>
</trkpt>
<trkpt lat="-27.2730222" lon="151.2933192">
  <ele>541.77</ele>
  <time>2026-09-01T20:00:36Z</time>
  <course>248.91</course>
  <speed>12.64</speed>
  <fix>3d</fix>
</trkpt>
<trkpt lat="-27.2730339" lon="151.2932846">
  <ele>543.79</ele>
  <time>2026-09-01T20:00:36Z</time>
  <course>248.94</course>
  <speed>11.203213824613009</speed>
  <fix>3d</fix>
</trkpt>
<trkpt lat="-27.2730222" lon="151.2933192">
  <ele>541.77</ele>
  <time>2026-09-01T20:00:36Z</time>
  <course>248.91</course>
  <speed>12.64</speed>
  <fix>3d</fix>
</trkpt>
<trkpt lat="-27.2730374" lon="151.2932744">
  <ele>544.37</ele>
  <time>2026-09-01T20:00:36Z</time>
  <course>249.03</course>
  <speed>10.759600364325804</speed>
  <fix>3d</fix>
</trkpt>
<trkpt lat="-27.27303" lon="151.2932962">
  <ele>543.12</ele>
  <time>2026-09-01T20:00:36Z</time>
  <course>249.13</course>
  <speed>11.69</speed>
  <fix>3d</fix>
</trkpt>
<trkpt lat="-27.2730407" lon="151.2932644">
  <ele>544.91</ele>
  <time>2026-09-01T20:00:36Z</time>
  <course>249.12</course>
  <speed>10.334737538999237</speed>
  <fix>3d</fix>
</trkpt>
<trkpt lat="-27.27303" lon="151.2932962">
  <ele>543.12</ele>
  <time>2026-09-01T20:00:36Z</time>
  <course>249.13</course>
  <speed>11.69</speed>
  <fix>3d</fix>
</trkpt>
<trkpt lat="-27.2730439" lon="151.2932548">
  <ele>545.41</ele>
  <time>2026-09-01T20:00:36Z</time>
  <course>249.22</course>
  <speed>9.919299370419264</speed>
  <fix>3d</fix>
</trkpt>
<trkpt lat="-27.2730372" lon="151.2932751">
  <ele>544.32</ele>
  <time>2026-09-01T20:00:36Z</time>
  <course>249.36</course>
  <speed>10.79</speed>
  <fix>3d</fix>
</trkpt>
<trkpt lat="-27.273047" lon="151.2932456">
  <ele>545.87</ele>
  <time>2026-09-01T20:00:36Z</time>
  <course>249.31</course>
  <speed>9.507391861073152</speed>
  <fix>3d</fix>
</trkpt>
<trkpt lat="-27.2730372" lon="151.2932751">
  <ele>544.32</ele>
  <time>2026-09-01T20:00:36Z</time>
  <course>249.36</course>
  <speed>10.79</speed>
  <fix>3d</fix>
</trkpt>
<trkpt lat="-27.2730498" lon="151.2932367">
  <ele>546.3</ele>
  <time>2026-09-01T20:00:36Z</time>
  <course>249.4</course>
  <speed>9.117740948283188</speed>
  <fix>3d</fix>
</trkpt>
<trkpt lat="-27.2730437" lon="151.2932554">
  <ele>545.36</ele>
  <time>2026-09-01T20:00:36Z</time>
  <course>249.59</course>
  <speed>9.94</speed>
  <fix>3d</fix>
</trkpt>
<trkpt lat="-27.2730526" lon="151.2932282">
  <ele>546.69</ele>
  <time>2026-09-01T20:00:36Z</time>
  <course>249.49</course>
  <speed>8.737516809712014</speed>
  <fix>3d</fix>
</trkpt>
<trkpt lat="-27.2730437" lon="151.2932554">
  <ele>545.36</ele>
  <time>2026-09-01T20:00:36Z</time>
  <course>249.59</course>
  <speed>9.94</speed>
  <fix>3d</fix>
</trkpt>
<trkpt lat="-27.2730552" lon="151.29322">
  <ele>547.05</ele>
  <time>2026-09-01T20:00:36Z</time>
  <course>249.58</course>
  <speed>8.366749667582985</speed>
  <fix>3d</fix>
</trkpt>
<trkpt lat="-27.2730496" lon="151.2932372">
  <ele>546.26</ele>
  <time>2026-09-01T20:00:36Z</time>
  <course>249.84</course>
  <speed>9.14</speed>
  <fix>3d</fix>
</trkpt>
<trkpt lat="-27.2730577" lon="151.2932123">
  <ele>547.37</ele>
  <time>2026-09-01T20:00:36Z</time>
  <course>249.67</course>
  <speed>8.021633250155482</speed>
  <fix>3d</fix>
</trkpt>
<trkpt lat="-27.2730496" lon="151.2932372">
  <ele>546.26</ele>
  <time>2026-09-01T20:00:36Z</time>
  <course>249.84</course>
  <speed>9.14</speed>
  <fix>3d</fix>
</trkpt>
<trkpt lat="-27.2730601" lon="151.2932049">
  <ele>547.66</ele>
  <time>2026-09-01T20:00:36Z</time>
  <course>249.75</course>
  <speed>7.68261023350788</speed>
  <fix>3d</fix>
</trkpt>
<trkpt lat="-27.273055" lon="151.2932206">
  <ele>547.02</ele>
  <time>2026-09-01T20:00:36Z</time>
  <course>250.11</course>
  <speed>8.4</speed>
  <fix>3d</fix>
</trkpt>
<trkpt lat="-27.2730623" lon="151.2931976">
  <ele>547.91</ele>
  <time>2026-09-01T20:00:36Z</time>
  <course>249.84</course>
  <speed>7.359762224420025</speed>
  <fix>3d</fix>
</trkpt>
<trkpt lat="-27.273055" lon="151.2932206">
  <ele>547.02</ele>
  <time>2026-09-01T20:00:36Z</time>
  <course>250.11</course>
  <speed>8.4</speed>
  <fix>3d</fix>
</trkpt>
<trkpt lat="-27.2730645" lon="151.2931908">
  <ele>548.13</ele>
  <time>2026-09-01T20:00:36Z</time>
  <course>249.92</course>
  <speed>7.0463749545422285</speed>
  <fix>3d</fix>
</trkpt>
<trkpt lat="-27.2730599" lon="151.2932053">
  <ele>547.63</ele>
  <time>2026-09-01T20:00:36Z</time>
  <course>250.39</course>
  <speed>7.7</speed>
  <fix>3d</fix>
</trkpt>
<trkpt lat="-27.2730665" lon="151.2931843">
  <ele>548.32</ele>
  <time>2026-09-01T20:00:36Z</time>
  <course>249.98</course>
  <speed>6.76137559968384</speed>
  <fix>3d</fix>
</trkpt>
<trkpt lat="-27.2730599" lon="151.2932053">
  <ele>547.63</ele>
  <time>2026-09-01T20:00:36Z</time>
  <course>250.39</course>
  <speed>7.7</speed>
  <fix>3d</fix>
</trkpt>
<trkpt lat="-27.2730685" lon="151.2931779">
  <ele>548.47</ele>
  <time>2026-09-01T20:00:36Z</time>
  <course>250.04</course>
  <speed>6.50189203232413</speed>
  <fix>3d</fix>
</trkpt>
<trkpt lat="-27.2730644" lon="151.2931912">
  <ele>548.1</ele>
  <time>2026-09-01T20:00:36Z</time>
  <course>250.7</course>
  <speed>7.07</speed>
  <fix>3d</fix>
</trkpt>
<trkpt lat="-27.2730702" lon="151.2931717">
  <ele>548.59</ele>
  <time>2026-09-01T20:00:36Z</time>
  <course>250.1</course>
  <speed>6.2646069310053285</speed>
  <fix>3d</fix>
</trkpt>
<trkpt lat="-27.2730644" lon="151.2931912">
  <ele>548.1</ele>
  <time>2026-09-01T20:00:36Z</time>
  <course>250.7</course>
  <speed>7.07</speed>
  <fix>3d</fix>
</trkpt>
<trkpt lat="-27.2730721" lon="151.2931659">
  <ele>548.68</ele>
  <time>2026-09-01T20:00:36Z</time>
  <course>250.15</course>
  <speed>6.02415969243844</speed>
  <fix>3d</fix>
</trkpt>
<trkpt lat="-27.2730684" lon="151.2931783">
  <ele>548.45</ele>
  <time>2026-09-01T20:00:36Z</time>
  <course>251.0</course>
  <speed>6.53</speed>
  <fix>3d</fix>
</trkpt>
<trkpt lat="-27.2730738" lon="151.2931602">
  <ele>548.74</ele>
  <time>2026-09-01T20:00:36Z</time>
  <course>250.13</course>
  <speed>5.755345341506451</speed>
  <fix>3d</fix>
</trkpt>
<trkpt lat="-27.2730684" lon="151.2931783">
  <ele>548.45</ele>
  <time>2026-09-01T20:00:36Z</time>
  <course>251.0</course>
  <speed>6.53</speed>
  <fix>3d</fix>
</trkpt>
<trkpt lat="-27.2730754" lon="151.2931549">
  <ele>548.79</ele>
  <time>2026-09-01T20:00:36Z</time>
  <course>249.97</course>
  <speed>5.451825382383408</speed>
  <fix>3d</fix>
</trkpt>
<trkpt lat="-27.273072" lon="151.2931663">
  <ele>548.66</ele>
  <time>2026-09-01T20:00:36Z</time>
  <course>251.34</course>
  <speed>6.02</speed>
  <fix>3d</fix>
</trkpt>
<trkpt lat="-27.2730769" lon="151.2931497">
  <ele>548.81</ele>
  <time>2026-09-01T20:00:36Z</time>
  <course>249.66</course>
  <speed>5.119892576998076</speed>
  <fix>3d</fix>
</trkpt>
<trkpt lat="-27.273072" lon="151.2931663">
  <ele>548.66</ele>
  <time>2026-09-01T20:00:36Z</time>
  <course>251.34</course>
  <speed>6.02</speed>
  <fix>3d</fix>
</trkpt>
<trkpt lat="-27.2730782" lon="151.2931449">
  <ele>548.83</ele>
  <time>2026-09-01T20:00:36Z</time>
  <course>249.2</course>
  <speed>4.712218161333365</speed>
  <fix>3d</fix>
</trkpt>
<trkpt lat="-27.2730752" lon="151.2931552">
  <ele>548.77</ele>
  <time>2026-09-01T20:00:36Z</time>
  <course>251.75</course>
  <speed>5.45</speed>
  <fix>3d</fix>
</trkpt>
<trkpt lat="-27.2730794" lon="151.2931406">
  <ele>548.83</ele>
  <time>2026-09-01T20:00:36Z</time>
  <course>248.61</course>
  <speed>4.228959682948042</speed>
  <fix>3d</fix>
</trkpt>
<trkpt lat="-27.2730752" lon="151.2931552">
  <ele>548.77</ele>
  <time>2026-09-01T20:00:36Z</time>
  <course>251.75</course>
  <speed>5.45</speed>
  <fix>3d</fix>
</trkpt>
<trkpt lat="-27.2730805" lon="151.2931368">
  <ele>548.83</ele>
  <time>2026-09-01T20:00:36Z</time>
  <course>247.96</course>
  <speed>3.663686667825184</speed>
  <fix>3d</fix>
</trkpt>
<trkpt lat="-27.2730781" lon="151.2931454">
  <ele>548.82</ele>
  <time>2026-09-01T20:00:36Z</time>
  <course>252.31</course>
  <speed>4.69</speed>
  <fix>3d</fix>
</trkpt>
<trkpt lat="-27.2730813" lon="151.2931336">
  <ele>548.84</ele>
  <time>2026-09-01T20:00:36Z</time>
  <course>247.3</course>
  <speed>3.0576461534978177</speed>
  <fix>3d</fix>
</trkpt>
<trkpt lat="-27.2730781" lon="151.2931454">
  <ele>548.82</ele>
  <time>2026-09-01T20:00:36Z</time>
  <course>252.31</course>
  <speed>4.69</speed>
  <fix>3d</fix>
</trkpt>
<trkpt lat="-27.273082" lon="151.293131">
  <ele>548.88</ele>
  <time>2026-09-01T20:00:36Z</time>
  <course>246.72</course>
  <speed>2.4548930730278253</speed>
  <fix>3d</fix>
</trkpt>
<trkpt lat="-27.2730803" lon="151.2931373">
  <ele>548.83</ele>
  <time>2026-09-01T20:00:36Z</time>
  <course>253.18</course>
  <speed>3.67</speed>
  <fix>3d</fix>
</trkpt>
<trkpt lat="-27.2730825" lon="151.2931289">
  <ele>548.95</ele>
  <time>2026-09-01T20:00:36Z</time>
  <course>246.26</course>
  <speed>1.8529975715040752</speed>
  <fix>3d</fix>
</trkpt>
<trkpt lat="-27.2730803" lon="151.2931373">
  <ele>548.83</ele>
  <time>2026-09-01T20:00:36Z</time>
  <course>253.18</course>
  <speed>3.67</speed>
  <fix>3d</fix>
</trkpt>
<trkpt lat="-27.2730828" lon="151.2931272">
  <ele>549.05</ele>
  <time>2026-09-01T20:00:36Z</time>
  <course>245.92</course>
  <speed>1.2767536959022285</speed>
  <fix>3d</fix>
</trkpt>
<trkpt lat="-27.2730819" lon="151.2931313">
  <ele>548.89</ele>
  <time>2026-09-01T20:00:36Z</time>
  <course>254.65</course>
  <speed>2.49</speed>
  <fix>3d</fix>
</trkpt>
<trkpt lat="-27.273083" lon="151.2931261">
  <ele>549.13</ele>
  <time>2026-09-01T20:00:36Z</time>
  <course>245.7</course>
  <speed>1.235556554755791</speed>
  <fix>3d</fix>
</trkpt>
<trkpt lat="-27.2730819" lon="151.2931313">
  <ele>548.89</ele>
  <time>2026-09-01T20:00:36Z</time>
  <course>254.65</course>
  <speed>2.49</speed>
  <fix>3d</fix>
</trkpt>
<trkpt lat="-27.2730833" lon="151.2931248">
  <ele>549.11</ele>
  <time>2026-09-01T20:00:36Z</time>
  <course>245.53</course>
  <speed>1.235556554755791</speed>
  <fix>3d</fix>
</trkpt>
<trkpt lat="-27.2730827" lon="151.2931275">
  <ele>549.04</ele>
  <time>2026-09-01T20:00:36Z</time>
  <course>256.75</course>
  <speed>1.56</speed>
  <fix>3d</fix>
</trkpt>
<trkpt lat="-27.2730835" lon="151.2931236">
  <ele>548.99</ele>
  <time>2026-09-01T20:00:36Z</time>
  <course>245.44</course>
  <speed>1.2061923561356207</speed>
  <fix>3d</fix>
</trkpt>
<trkpt lat="-27.2730827" lon="151.2931275">
  <ele>549.04</ele>
  <time>2026-09-01T20:00:36Z</time>
  <course>256.75</course>
  <speed>1.56</speed>
  <fix>3d</fix>
</trkpt>
<trkpt lat="-27.2730837" lon="151.2931224">
  <ele>548.79</ele>
  <time>2026-09-01T20:00:36Z</time>
  <course>245.49</course>
  <speed>1.1454256850621083</speed>
  <fix>3d</fix>
</trkpt>
<trkpt lat="-27.2730832" lon="151.2931249">
  <ele>549.06</ele>
  <time>2026-09-01T20:00:36Z</time>
  <course>257.97</course>
  <speed>1.22</speed>
  <fix>3d</fix>
</trkpt>
<trkpt lat="-27.2730839" lon="151.2931214">
  <ele>548.5</ele>
  <time>2026-09-01T20:00:36Z</time>
  <course>245.75</course>
  <speed>1.0748953437428224</speed>
  <fix>3d</fix>
</trkpt>
<trkpt lat="-27.2730832" lon="151.2931249">
  <ele>549.06</ele>
  <time>2026-09-01T20:00:36Z</time>
  <course>257.97</course>
  <speed>1.22</speed>
  <fix>3d</fix>
</trkpt>
<trkpt lat="-27.2730842" lon="151.2931204">
  <ele>548.16</ele>
  <time>2026-09-01T20:00:36Z</time>
  <course>246.15</course>
  <speed>0.9946356116689167</speed>
  <fix>3d</fix>
</trkpt>
<trkpt lat="-27.2730837" lon="151.2931225">
  <ele>548.76</ele>
  <time>2026-09-01T20:00:36Z</time>
  <course>257.63</course>
  <speed>1.14</speed>
  <fix>3d</fix>
</trkpt>
<trkpt lat="-27.2730844" lon="151.2931194">
  <ele>547.75</ele>
  <time>2026-09-01T20:00:37Z</time>
  <course>246.48</course>
  <speed>0.9339164844888433</speed>
  <fix>3d</fix>
</trkpt>
<trkpt lat="-27.2730837" lon="151.2931225">
  <ele>548.76</ele>
  <time>2026-09-01T20:00:37Z</time>
  <course>257.63</course>
  <speed>1.14</speed>
  <fix>3d</fix>
</trkpt>
<trkpt lat="-27.2730845" lon="151.2931185">
  <ele>547.3</ele>
  <time>2026-09-01T20:00:37Z</time>
  <course>246.72</course>
  <speed>0.8852683209061533</speed>
  <fix>3d</fix>
</trkpt>
<trkpt lat="-27.2730841" lon="151.2931204">
  <ele>548.14</ele>
  <time>2026-09-01T20:00:37Z</time>
  <course>257.08</course>
  <speed>1.01</speed>
  <fix>3d</fix>
</trkpt>
<trkpt lat="-27.2730847" lon="151.2931175">
  <ele>546.81</ele>
  <time>2026-09-01T20:00:37Z</time>
  <course>246.9</course>
  <speed>0.8805679985100526</speed>
  <fix>3d</fix>
</trkpt>
<trkpt lat="-27.2730841" lon="151.2931204">
  <ele>548.14</ele>
  <time>2026-09-01T20:00:37Z</time>
  <course>257.08</course>
  <speed>1.01</speed>
  <fix>3d</fix>
</trkpt>
<trkpt lat="-27.273085" lon="151.2931168">
  <ele>546.26</ele>
  <time>2026-09-01T20:00:37Z</time>
  <course>247.09</course>
  <speed>0.9176055797563569</speed>
  <fix>3d</fix>
</trkpt>
<trkpt lat="-27.2730844" lon="151.2931185">
  <ele>547.3</ele>
  <time>2026-09-01T20:00:37Z</time>
  <course>255.87</course>
  <speed>0.91</speed>
  <fix>3d</fix>
</trkpt>
<trkpt lat="-27.2730852" lon="151.2931157">
  <ele>545.66</ele>
  <time>2026-09-01T20:00:37Z</time>
  <course>247.3</course>
  <speed>0.9992997548283498</speed>
  <fix>3d</fix>
</trkpt>
<trkpt lat="-27.2730844" lon="151.2931185">
  <ele>547.3</ele>
  <time>2026-09-01T20:00:37Z</time>
  <course>255.87</course>
  <speed>0.91</speed>
  <fix>3d</fix>
</trkpt>
<trkpt lat="-27.2730855" lon="151.2931147">
  <ele>545.02</ele>
  <time>2026-09-01T20:00:37Z</time>
  <course>247.6</course>
  <speed>1.0911003620199198</speed>
  <fix>3d</fix>
</trkpt>
<trkpt lat="-27.2730849" lon="151.2931168">
  <ele>546.26</ele>
  <time>2026-09-01T20:00:37Z</time>
  <course>253.13</course>
  <speed>0.94</speed>
  <fix>3d</fix>
</trkpt>
<trkpt lat="-27.2730859" lon="151.2931136">
  <ele>544.29</ele>
  <time>2026-09-01T20:00:37Z</time>
  <course>248.12</course>
  <speed>1.5839823231336896</speed>
  <fix>3d</fix>
</trkpt>
<trkpt lat="-27.2730849" lon="151.2931168">
  <ele>546.26</ele>
  <time>2026-09-01T20:00:37Z</time>
  <course>253.13</course>
  <speed>0.94</speed>
  <fix>3d</fix>
</trkpt>
<trkpt lat="-27.2730866" lon="151.2931118">
  <ele>543.51</ele>
  <time>2026-09-01T20:00:37Z</time>
  <course>249.58</course>
  <speed>2.283527972239447</speed>
  <fix>3d</fix>
</trkpt>
<trkpt lat="-27.2730855" lon="151.2931148">
  <ele>545.01</ele>
  <time>2026-09-01T20:00:37Z</time>
  <course>249.49</course>
  <speed>1.27</speed>
  <fix>3d</fix>
</trkpt>
<trkpt lat="-27.2730875" lon="151.2931094">
  <ele>542.64</ele>
  <time>2026-09-01T20:00:37Z</time>
  <course>253.3</course>
  <speed>2.5068905041904004</speed>
  <fix>3d</fix>
</trkpt>
<trkpt lat="-27.2730855" lon="151.2931148">
  <ele>545.01</ele>
  <time>2026-09-01T20:00:37Z</time>
  <course>249.49</course>
  <speed>1.27</speed>
  <fix>3d</fix>
</trkpt>
<trkpt lat="-27.2730884" lon="151.2931073">
  <ele>541.68</ele>
  <time>2026-09-01T20:00:37Z</time>
  <course>260.28</course>
  <speed>2.378003364169193</speed>
  <fix>3d</fix>
</trkpt>
<trkpt lat="-27.2730867" lon="151.2931116">
  <ele>543.5</ele>
  <time>2026-09-01T20:00:37Z</time>
  <course>246.75</course>
  <speed>2.03</speed>
  <fix>3d</fix>
</trkpt>
<trkpt lat="-27.2730892" lon="151.2931051">
  <ele>540.63</ele>
  <time>2026-09-01T20:00:37Z</time>
  <course>260.13</course>
  <speed>2.146928037918365</speed>
  <fix>3d</fix>
</trkpt>
<trkpt lat="-27.2730867" lon="151.2931116">
  <ele>543.5</ele>
  <time>2026-09-01T20:00:37Z</time>
  <course>246.75</course>
  <speed>2.03</speed>
  <fix>3d</fix>
</trkpt>
<trkpt lat="-27.27309" lon="151.2931032">
  <ele>539.47</ele>
  <time>2026-09-01T20:00:37Z</time>
  <course>253.15</course>
  <speed>2.153555200128383</speed>
  <fix>3d</fix>
</trkpt>
<trkpt lat="-27.2730883" lon="151.2931074">
  <ele>541.68</ele>
  <time>2026-09-01T20:00:37Z</time>
  <course>246.46</course>
  <speed>2.33</speed>
  <fix>3d</fix>
</trkpt>
<trkpt lat="-27.2730909" lon="151.293101">
  <ele>538.24</ele>
  <time>2026-09-01T20:00:37Z</time>
  <course>251.48</course>
  <speed>2.6256046922566236</speed>
  <fix>3d</fix>
</trkpt>
<trkpt lat="-27.2730883" lon="151.2931074">
  <ele>541.68</ele>
  <time>2026-09-01T20:00:37Z</time>
  <course>246.46</course>
  <speed>2.33</speed>
  <fix>3d</fix>
</trkpt>
<trkpt lat="-27.2730921" lon="151.2930982">
  <ele>536.94</ele>
  <time>2026-09-01T20:00:37Z</time>
  <course>252.1</course>
  <speed>3.614484748895754</speed>
  <fix>3d</fix>
</trkpt>
<trkpt lat="-27.2730899" lon="151.2931031">
  <ele>539.49</ele>
  <time>2026-09-01T20:00:37Z</time>
  <course>245.7</course>
  <speed>2.38</speed>
  <fix>3d</fix>
</trkpt>
<trkpt lat="-27.2730937" lon="151.2930941">
  <ele>535.59</ele>
  <time>2026-09-01T20:00:37Z</time>
  <course>252.75</course>
  <speed>4.935838327984416</speed>
  <fix>3d</fix>
</trkpt>
<trkpt lat="-27.2730899" lon="151.2931031">
  <ele>539.49</ele>
  <time>2026-09-01T20:00:37Z</time>
  <course>245.7</course>
  <speed>2.38</speed>
  <fix>3d</fix>
</trkpt>
<trkpt lat="-27.2730956" lon="151.2930889">
  <ele>534.21</ele>
  <time>2026-09-01T20:00:37Z</time>
  <course>252.69</course>
  <speed>6.3101901714607616</speed>
  <fix>3d</fix>
</trkpt>
<trkpt lat="-27.2730922" lon="151.2930978">
  <ele>536.98</ele>
  <time>2026-09-01T20:00:37Z</time>
  <course>245.79</course>
  <speed>3.73</speed>
  <fix>3d</fix>
</trkpt>
<trkpt lat="-27.2730978" lon="151.2930824">
  <ele>532.83</ele>
  <time>2026-09-01T20:00:37Z</time>
  <course>252.0</course>
  <speed>7.6193766149206725</speed>
  <fix>3d</fix>
</trkpt>
<trkpt lat="-27.2730922" lon="151.2930978">
  <ele>536.98</ele>
  <time>2026-09-01T20:00:37Z</time>
  <course>245.79</course>
  <speed>3.73</speed>
  <fix>3d</fix>
</trkpt>
<trkpt lat="-27.2731002" lon="151.2930745">
  <ele>531.44</ele>
  <time>2026-09-01T20:00:37Z</time>
  <course>251.1</course>
  <speed>8.835406046130535</speed>
  <fix>3d</fix>
</trkpt>
<trkpt lat="-27.2730956" lon="151.2930885">
  <ele>534.27</ele>
  <time>2026-09-01T20:00:37Z</time>
  <course>248.84</course>
  <speed>6.21</speed>
  <fix>3d</fix>
</trkpt>
<trkpt lat="-27.2731028" lon="151.2930654">
  <ele>530.04</ele>
  <time>2026-09-01T20:00:37Z</time>
  <course>250.32</course>
  <speed>10.056241842756169</speed>
  <fix>3d</fix>
</trkpt>
<trkpt lat="-27.2730956" lon="151.2930885">
  <ele>534.27</ele>
  <time>2026-09-01T20:00:37Z</time>
  <course>248.84</course>
  <speed>6.21</speed>
  <fix>3d</fix>
</trkpt>
<trkpt lat="-27.2731058" lon="151.2930552">
  <ele>528.69</ele>
  <time>2026-09-01T20:00:37Z</time>
  <course>249.76</course>
  <speed>11.29887162507832</speed>
  <fix>3d</fix>
</trkpt>
<trkpt lat="-27.2731002" lon="151.2930742">
  <ele>531.49</ele>
  <time>2026-09-01T20:00:37Z</time>
  <course>251.23</course>
  <speed>8.78</speed>
  <fix>3d</fix>
</trkpt>
<trkpt lat="-27.2731092" lon="151.2930437">
  <ele>527.36</ele>
  <time>2026-09-01T20:00:37Z</time>
  <course>249.41</course>
  <speed>12.541905756303544</speed>
  <fix>3d</fix>
</trkpt>
<trkpt lat="-27.2731002" lon="151.2930742">
  <ele>531.49</ele>
  <time>2026-09-01T20:00:37Z</time>
  <course>251.23</course>
  <speed>8.78</speed>
  <fix>3d</fix>
</trkpt>
<trkpt lat="-27.2731131" lon="151.2930312">
  <ele>526.1</ele>
  <time>2026-09-01T20:00:37Z</time>
  <course>249.21</course>
  <speed>13.752796079343284</speed>
  <fix>3d</fix>
</trkpt>
<trkpt lat="-27.2731059" lon="151.2930549">
  <ele>528.76</ele>
  <time>2026-09-01T20:00:37Z</time>
  <course>251.49</course>
  <speed>11.25</speed>
  <fix>3d</fix>
</trkpt>
<trkpt lat="-27.2731175" lon="151.2930175">
  <ele>524.91</ele>
  <time>2026-09-01T20:00:37Z</time>
  <course>249.1</course>
  <speed>14.875930223014628</speed>
  <fix>3d</fix>
</trkpt>
<trkpt lat="-27.2731059" lon="151.2930549">
  <ele>528.76</ele>
  <time>2026-09-01T20:00:37Z</time>
  <course>251.49</course>
  <speed>11.25</speed>
  <fix>3d</fix>
</trkpt>
<trkpt lat="-27.2731225" lon="151.293003">
  <ele>523.82</ele>
  <time>2026-09-01T20:00:37Z</time>
  <course>249.04</course>
  <speed>15.89638009107734</speed>
  <fix>3d</fix>
</trkpt>
<trkpt lat="-27.2731132" lon="151.2930312">
  <ele>526.19</ele>
  <time>2026-09-01T20:00:37Z</time>
  <course>250.26</course>
  <speed>13.66</speed>
  <fix>3d</fix>
</trkpt>
<trkpt lat="-27.2731279" lon="151.2929877">
  <ele>522.84</ele>
  <time>2026-09-01T20:00:37Z</time>
  <course>249.0</course>
  <speed>16.783208870773194</speed>
  <fix>3d</fix>
</trkpt>
<trkpt lat="-27.2731132" lon="151.2930312">
  <ele>526.19</ele>
  <time>2026-09-01T20:00:37Z</time>
  <course>250.26</course>
  <speed>13.66</speed>
  <fix>3d</fix>
</trkpt>
<trkpt lat="-27.2731336" lon="151.2929715">
  <ele>521.97</ele>
  <time>2026-09-01T20:00:37Z</time>
  <course>248.98</course>
  <speed>17.54263948213039</speed>
  <fix>3d</fix>
</trkpt>
<trkpt lat="-27.2731224" lon="151.2930032">
  <ele>523.92</ele>
  <time>2026-09-01T20:00:37Z</time>
  <course>248.89</course>
  <speed>15.79</speed>
  <fix>3d</fix>
</trkpt>
<trkpt lat="-27.2731395" lon="151.2929548">
  <ele>521.22</ele>
  <time>2026-09-01T20:00:37Z</time>
  <course>248.99</course>
  <speed>18.142480536023733</speed>
  <fix>3d</fix>
</trkpt>
<trkpt lat="-27.2731224" lon="151.2930032">
  <ele>523.92</ele>
  <time>2026-09-01T20:00:37Z</time>
  <course>248.89</course>
  <speed>15.79</speed>
  <fix>3d</fix>
</trkpt>
<trkpt lat="-27.2731456" lon="151.2929375">
  <ele>520.61</ele>
  <time>2026-09-01T20:00:37Z</time>
  <course>249.03</course>
  <speed>18.57182005081893</speed>
  <fix>3d</fix>
</trkpt>
<trkpt lat="-27.2731334" lon="151.2929719">
  <ele>522.06</ele>
  <time>2026-09-01T20:00:37Z</time>
  <course>248.33</course>
  <speed>17.44</speed>
  <fix>3d</fix>
</trkpt>
<trkpt lat="-27.2731517" lon="151.2929198">
  <ele>520.13</ele>
  <time>2026-09-01T20:00:37Z</time>
  <course>249.07</course>
  <speed>18.819843251206954</speed>
  <fix>3d</fix>
</trkpt>
<trkpt lat="-27.2731334" lon="151.2929719">
  <ele>522.06</ele>
  <time>2026-09-01T20:00:37Z</time>
  <course>248.33</course>
  <speed>17.44</speed>
  <fix>3d</fix>
</trkpt>
<trkpt lat="-27.2731577" lon="151.2929021">
  <ele>519.76</ele>
  <time>2026-09-01T20:00:37Z</time>
  <course>249.07</course>
  <speed>18.91048650881304</speed>
  <fix>3d</fix>
</trkpt>
<trkpt lat="-27.2731453" lon="151.292938">
  <ele>520.69</ele>
  <time>2026-09-01T20:00:37Z</time>
  <course>248.61</course>
  <speed>18.47</speed>
  <fix>3d</fix>
</trkpt>
<trkpt lat="-27.2731637" lon="151.2928842">
  <ele>519.48</ele>
  <time>2026-09-01T20:00:37Z</time>
  <course>249.04</course>
  <speed>18.89512370957121</speed>
  <fix>3d</fix>
</trkpt>
<trkpt lat="-27.2731453" lon="151.292938">
  <ele>520.69</ele>
  <time>2026-09-01T20:00:37Z</time>
  <course>248.61</course>
  <speed>18.47</speed>
  <fix>3d</fix>
</trkpt>
<trkpt lat="-27.2731697" lon="151.2928662">
  <ele>519.26</ele>
  <time>2026-09-01T20:00:37Z</time>
  <course>249.04</course>
  <speed>18.817898394879276</speed>
  <fix>3d</fix>
</trkpt>
<trkpt lat="-27.2731574" lon="151.2929027">
  <ele>519.81</ele>
  <time>2026-09-01T20:00:37Z</time>
  <course>249.15</course>
  <speed>18.86</speed>
  <fix>3d</fix>
</trkpt>
<trkpt lat="-27.2731756" lon="151.2928485">
  <ele>519.06</ele>
  <time>2026-09-01T20:00:37Z</time>
  <course>249.1</course>
  <speed>18.710224477541686</speed>
  <fix>3d</fix>
</trkpt>
<trkpt lat="-27.2731574" lon="151.2929027">
  <ele>519.81</ele>
  <time>2026-09-01T20:00:37Z</time>
  <course>249.15</course>
  <speed>18.86</speed>
  <fix>3d</fix>
</trkpt>
<trkpt lat="-27.2731814" lon="151.2928308">
  <ele>518.88</ele>
  <time>2026-09-01T20:00:37Z</time>
  <course>249.2</course>
  <speed>18.596679811192104</speed>
  <fix>3d</fix>
</trkpt>
<trkpt lat="-27.2731694" lon="151.2928671">
  <ele>519.28</ele>
  <time>2026-09-01T20:00:37Z</time>
  <course>249.46</course>
  <speed>18.81</speed>
  <fix>3d</fix>
</trkpt>
<trkpt lat="-27.2731873" lon="151.2928134">
  <ele>518.7</ele>
  <time>2026-09-01T20:00:37Z</time>
  <course>249.31</course>
  <speed>18.473776008168983</speed>
  <fix>3d</fix>
</trkpt>
<trkpt lat="-27.2731694" lon="151.2928671">
  <ele>519.28</ele>
  <time>2026-09-01T20:00:37Z</time>
  <course>249.46</course>
  <speed>18.81</speed>
  <fix>3d</fix>
</trkpt>
<trkpt lat="-27.2731931" lon="151.2927958">
  <ele>518.53</ele>
  <time>2026-09-01T20:00:37Z</time>
  <course>249.42</course>
  <speed>18.35440001743451</speed>
  <fix>3d</fix>
</trkpt>
<trkpt lat="-27.2731811" lon="151.2928317">
  <ele>518.89</ele>
  <time>2026-09-01T20:00:37Z</time>
  <course>249.48</course>
  <speed>18.6</speed>
  <fix>3d</fix>
</trkpt>
<trkpt lat="-27.2731989" lon="151.2927786">
  <ele>518.36</ele>
  <time>2026-09-01T20:00:37Z</time>
  <course>249.49</course>
  <speed>18.240882654082284</speed>
  <fix>3d</fix>
</trkpt>
<trkpt lat="-27.2731811" lon="151.2928317">
  <ele>518.89</ele>
  <time>2026-09-01T20:00:37Z</time>
  <course>249.48</course>
  <speed>18.6</speed>
  <fix>3d</fix>
</trkpt>
<trkpt lat="-27.2732046" lon="151.2927614">
  <ele>518.19</ele>
  <time>2026-09-01T20:00:37Z</time>
  <course>249.53</course>
  <speed>18.118015895787263</speed>
  <fix>3d</fix>
</trkpt>
<trkpt lat="-27.2731928" lon="151.2927966">
  <ele>518.53</ele>
  <time>2026-09-01T20:00:37Z</time>
  <course>249.39</course>
  <speed>18.36</speed>
  <fix>3d</fix>
</trkpt>
<trkpt lat="-27.2732104" lon="151.2927444">
  <ele>518.02</ele>
  <time>2026-09-01T20:00:37Z</time>
  <course>249.54</course>
  <speed>18.000977751222294</speed>
  <fix>3d</fix>
</trkpt>
<trkpt lat="-27.2731928" lon="151.2927966">
  <ele>518.53</ele>
  <time>2026-09-01T20:00:37Z</time>
  <course>249.39</course>
  <speed>18.36</speed>
  <fix>3d</fix>
</trkpt>
<trkpt lat="-27.2732161" lon="151.2927273">
  <ele>517.85</ele>
  <time>2026-09-01T20:00:37Z</time>
  <course>249.51</course>
  <speed>17.889765230432737</speed>
  <fix>3d</fix>
</trkpt>
<trkpt lat="-27.2732044" lon="151.292762">
  <ele>518.19</ele>
  <time>2026-09-01T20:00:37Z</time>
  <course>249.32</course>
  <speed>18.13</speed>
  <fix>3d</fix>
</trkpt>
<trkpt lat="-27.2732218" lon="151.2927104">
  <ele>517.69</ele>
  <time>2026-09-01T20:00:37Z</time>
  <course>249.46</course>
  <speed>17.782083679929077</speed>
  <fix>3d</fix>
</trkpt>
<trkpt lat="-27.2732044" lon="151.292762">
  <ele>518.19</ele>
  <time>2026-09-01T20:00:37Z</time>
  <course>249.32</course>
  <speed>18.13</speed>
  <fix>3d</fix>
</trkpt>
<trkpt lat="-27.2732274" lon="151.2926936">
  <ele>517.52</ele>
  <time>2026-09-01T20:00:37Z</time>
  <course>249.42</course>
  <speed>17.667362564910476</speed>
  <fix>3d</fix>
</trkpt>
<trkpt lat="-27.2732158" lon="151.292728">
  <ele>517.86</ele>
  <time>2026-09-01T20:00:37Z</time>
  <course>249.32</course>
  <speed>17.9</speed>
  <fix>3d</fix>
</trkpt>
<trkpt lat="-27.2732329" lon="151.292677">
  <ele>517.36</ele>
  <time>2026-09-01T20:00:37Z</time>
  <course>249.39</course>
  <speed>17.565537281848226</speed>
  <fix>3d</fix>
</trkpt>
<trkpt lat="-27.2732158" lon="151.292728">
  <ele>517.86</ele>
  <time>2026-09-01T20:00:37Z</time>
  <course>249.32</course>
  <speed>17.9</speed>
  <fix>3d</fix>
</trkpt>
<trkpt lat="-27.2732385" lon="151.2926604">
  <ele>517.2</ele>
  <time>2026-09-01T20:00:37Z</time>
  <course>249.38</course>
  <speed>17.457860693681802</speed>
  <fix>3d</fix>
</trkpt>
<trkpt lat="-27.2732271" lon="151.2926943">
  <ele>517.53</ele>
  <time>2026-09-01T20:00:37Z</time>
  <course>249.39</course>
  <speed>17.68</speed>
  <fix>3d</fix>
</trkpt>
<trkpt lat="-27.2732439" lon="151.2926439">
  <ele>517.04</ele>
  <time>2026-09-01T20:00:37Z</time>
  <course>249.39</course>
  <speed>17.35605081808647</speed>
  <fix>3d</fix>
</trkpt>
<trkpt lat="-27.2732271" lon="151.2926943">
  <ele>517.53</ele>
  <time>2026-09-01T20:00:37Z</time>
  <course>249.39</course>
  <speed>17.68</speed>
  <fix>3d</fix>
</trkpt>
<trkpt lat="-27.2732494" lon="151.2926274">
  <ele>516.87</ele>
  <time>2026-09-01T20:00:37Z</time>
  <course>249.41</course>
  <speed>17.24837673521772</speed>
  <fix>3d</fix>
</trkpt>
<trkpt lat="-27.2732382" lon="151.2926611">
  <ele>517.2</ele>
  <time>2026-09-01T20:00:37Z</time>
  <course>249.47</course>
  <speed>17.47</speed>
  <fix>3d</fix>
</trkpt>
<trkpt lat="-27.2732548" lon="151.2926111">
  <ele>516.71</ele>
  <time>2026-09-01T20:00:37Z</time>
  <course>249.45</course>
  <speed>17.153568141934787</speed>
  <fix>3d</fix>
</trkpt>
<trkpt lat="-27.2732382" lon="151.2926611">
  <ele>517.2</ele>
  <time>2026-09-01T20:00:37Z</time>
  <course>249.47</course>
  <speed>17.47</speed>
  <fix>3d</fix>
</trkpt>
<trkpt lat="-27.2714486" lon="151.2966806">
  <ele>539.82</ele>
  <time>2026-09-01T20:00:37Z</time>
  <course>250.18</course>
  <speed>11.632024759258382</speed>
  <fix>3d</fix>
</trkpt>
<trkpt lat="-27.2732491" lon="151.2926282">
  <ele>516.88</ele>
  <time>2026-09-01T20:00:37Z</time>
  <course>249.51</course>
  <speed>17.26</speed>
  <fix>3d</fix>
</trkpt>
<trkpt lat="-27.2714512" lon="151.2966693">
  <ele>535.97</ele>
  <time>2026-09-01T20:00:37Z</time>
  <course>242.11</course>
  <speed>11.780067911519016</speed>
  <fix>3d</fix>
</trkpt>
<trkpt lat="-27.2732491" lon="151.2926282">
  <ele>516.88</ele>
  <time>2026-09-01T20:00:37Z</time>
  <course>249.51</course>
  <speed>17.26</speed>
  <fix>3d</fix>
</trkpt>
<trkpt lat="-27.2714555" lon="151.2966577">
  <ele>532.15</ele>
  <time>2026-09-01T20:00:37Z</time>
  <course>226.38</course>
  <speed>13.03176503778364</speed>
  <fix>3d</fix>
</trkpt>
<trkpt lat="-27.2723528" lon="151.2946408">
  <ele>526.42</ele>
  <time>2026-09-01T20:00:37Z</time>
  <course>251.45</course>
  <speed>14.43</speed>
  <fix>3d</fix>
</trkpt>
<trkpt lat="-27.2714632" lon="151.296647">
  <ele>528.4</ele>
  <time>2026-09-01T20:00:37Z</time>
  <course>205.02</course>
  <speed>14.061920210270005</speed>
  <fix>3d</fix>
</trkpt>
<trkpt lat="-27.2723528" lon="151.2946408">
  <ele>526.42</ele>
  <time>2026-09-01T20:00:37Z</time>
  <course>251.45</course>
  <speed>14.43</speed>
  <fix>3d</fix>
</trkpt>
<trkpt lat="-27.271474" lon="151.2966395">
  <ele>524.68</ele>
  <time>2026-09-01T20:00:37Z</time>
  <course>187.01</course>
  <speed>14.3774024079456</speed>
  <fix>3d</fix>
</trkpt>
<trkpt lat="-27.2714569" lon="151.2966586">
  <ele>532.33</ele>
  <time>2026-09-01T20:00:37Z</time>
  <course>236.59</course>
  <speed>12.38</speed>
  <fix>3d</fix>
</trkpt>
<trkpt lat="-27.2714861" lon="151.2966347">
  <ele>520.98</ele>
  <time>2026-09-01T20:00:37Z</time>
  <course>182.03</course>
  <speed>14.410791095564461</speed>
  <fix>3d</fix>
</trkpt>
<trkpt lat="-27.2714569" lon="151.2966586">
  <ele>532.33</ele>
  <time>2026-09-01T20:00:37Z</time>
  <course>236.59</course>
  <speed>12.38</speed>
  <fix>3d</fix>
</trkpt>
<trkpt lat="-27.2714991" lon="151.2966276">
  <ele>517.38</ele>
  <time>2026-09-01T20:00:37Z</time>
  <course>204.27</course>
  <speed>18.949923482695123</speed>
  <fix>3d</fix>
</trkpt>
<trkpt lat="-27.2714742" lon="151.2966411">
  <ele>524.84</ele>
  <time>2026-09-01T20:00:37Z</time>
  <course>209.7</course>
  <speed>13.89</speed>
  <fix>3d</fix>
</trkpt>
<trkpt lat="-27.2715147" lon="151.2966128">
  <ele>514.25</ele>
  <time>2026-09-01T20:00:37Z</time>
  <course>215.89</course>
  <speed>26.773145127160536</speed>
  <fix>3d</fix>
</trkpt>
<trkpt lat="-27.2714742" lon="151.2966411">
  <ele>524.84</ele>
  <time>2026-09-01T20:00:37Z</time>
  <course>209.7</course>
  <speed>13.89</speed>
  <fix>3d</fix>
</trkpt>
<trkpt lat="-27.2715337" lon="151.2965913">
  <ele>511.94</ele>
  <time>2026-09-01T20:00:37Z</time>
  <course>222.62</course>
  <speed>32.54904606897105</speed>
  <fix>3d</fix>
</trkpt>
<trkpt lat="-27.2714998" lon="151.2966242">
  <ele>517.75</ele>
  <time>2026-09-01T20:00:37Z</time>
  <course>214.38</course>
  <speed>19.96</speed>
  <fix>3d</fix>
</trkpt>
<trkpt lat="-27.2715547" lon="151.2965662">
  <ele>510.57</ele>
  <time>2026-09-01T20:00:37Z</time>
  <course>226.11</course>
  <speed>35.285266046892716</speed>
  <fix>3d</fix>
</trkpt>
<trkpt lat="-27.2714998" lon="151.2966242">
  <ele>517.75</ele>
  <time>2026-09-01T20:00:37Z</time>
  <course>214.38</course>
  <speed>19.96</speed>
  <fix>3d</fix>
</trkpt>
<trkpt lat="-27.2715761" lon="151.29654">
  <ele>510.3</ele>
  <time>2026-09-01T20:00:37Z</time>
  <course>226.33</course>
  <speed>34.561864822373224</speed>
  <fix>3d</fix>
</trkpt>
<trkpt lat="-27.2715339" lon="151.2965904">
  <ele>512.49</ele>
  <time>2026-09-01T20:00:37Z</time>
  <course>225.57</course>
  <speed>30.83</speed>
  <fix>3d</fix>
</trkpt>
<trkpt lat="-27.2715967" lon="151.2965162">
  <ele>511.07</ele>
  <time>2026-09-01T20:00:37Z</time>
  <course>223.06</course>
  <speed>30.621498983557288</speed>
  <fix>3d</fix>
</trkpt>
<trkpt lat="-27.2715339" lon="151.2965904">
  <ele>512.49</ele>
  <time>2026-09-01T20:00:37Z</time>
  <course>225.57</course>
  <speed>30.83</speed>
  <fix>3d</fix>
</trkpt>
<trkpt lat="-27.2716155" lon="151.2964974">
  <ele>512.6</ele>
  <time>2026-09-01T20:00:37Z</time>
  <course>216.05</course>
  <speed>25.491347551669367</speed>
  <fix>3d</fix>
</trkpt>
<trkpt lat="-27.2715749" lon="151.2965421">
  <ele>510.82</ele>
  <time>2026-09-01T20:00:37Z</time>
  <course>225.86</course>
  <speed>33.0</speed>
  <fix>3d</fix>
</trkpt>
<trkpt lat="-27.2716326" lon="151.2964845">
  <ele>514.58</ele>
  <time>2026-09-01T20:00:37Z</time>
  <course>206.34</course>
  <speed>20.659612774686753</speed>
  <fix>3d</fix>
</trkpt>
<trkpt lat="-27.2715749" lon="151.2965421">
  <ele>510.82</ele>
  <time>2026-09-01T20:00:37Z</time>
  <course>225.86</course>
  <speed>33.0</speed>
  <fix>3d</fix>
</trkpt>
<trkpt lat="-27.2716478" lon="151.2964764">
  <ele>516.77</ele>
  <time>2026-09-01T20:00:37Z</time>
  <course>197.48</course>
  <speed>16.970966383797947</speed>
  <fix>3d</fix>
</trkpt>
<trkpt lat="-27.271614" lon="151.2965009">
  <ele>512.77</ele>
  <time>2026-09-01T20:00:37Z</time>
  <course>218.39</course>
  <speed>25.6</speed>
  <fix>3d</fix>
</trkpt>
<trkpt lat="-27.271661" lon="151.2964721">
  <ele>519.04</ele>
  <time>2026-09-01T20:00:37Z</time>
  <course>185.59</course>
  <speed>13.49503982950773</speed>
  <fix>3d</fix>
</trkpt>
<trkpt lat="-27.271614" lon="151.2965009">
  <ele>512.77</ele>
  <time>2026-09-01T20:00:37Z</time>
  <course>218.39</course>
  <speed>25.6</speed>
  <fix>3d</fix>
</trkpt>
<trkpt lat="-27.2716715" lon="151.296471">
  <ele>521.36</ele>
  <time>2026-09-01T20:00:37Z</time>
  <course>171.22</course>
  <speed>10.10059899213903</speed>
  <fix>3d</fix>
</trkpt>
<trkpt lat="-27.2716463" lon="151.2964785">
  <ele>516.74</ele>
  <time>2026-09-01T20:00:37Z</time>
  <course>202.45</course>
  <speed>17.0</speed>
  <fix>3d</fix>
</trkpt>
<trkpt lat="-27.2716791" lon="151.296472">
  <ele>523.65</ele>
  <time>2026-09-01T20:00:37Z</time>
  <course>156.08</course>
  <speed>7.159951117151569</speed>
  <fix>3d</fix>
</trkpt>
<trkpt lat="-27.2716463" lon="151.2964785">
  <ele>516.74</ele>
  <time>2026-09-01T20:00:37Z</time>
  <course>202.45</course>
  <speed>17.0</speed>
  <fix>3d</fix>
</trkpt>
<trkpt lat="-27.2716841" lon="151.2964743">
  <ele>525.88</ele>
  <time>2026-09-01T20:00:37Z</time>
  <course>144.87</course>
  <speed>5.0185655321017775</speed>
  <fix>3d</fix>
</trkpt>
<trkpt lat="-27.2716697" lon="151.2964721">
  <ele>521.27</ele>
  <time>2026-09-01T20:00:37Z</time>
  <course>182.52</course>
  <speed>10.2</speed>
  <fix>3d</fix>
</trkpt>
<trkpt lat="-27.2716872" lon="151.2964768">
  <ele>528.02</ele>
  <time>2026-09-01T20:00:37Z</time>
  <course>143.79</course>
  <speed>3.8063630935579438</speed>
  <fix>3d</fix>
</trkpt>
<trkpt lat="-27.2716697" lon="151.2964721">
  <ele>521.27</ele>
  <time>2026-09-01T20:00:37Z</time>
  <course>182.52</course>
  <speed>10.2</speed>
  <fix>3d</fix>
</trkpt>
<trkpt lat="-27.2716894" lon="151.2964795">
  <ele>530.06</ele>
  <time>2026-09-01T20:00:37Z</time>
  <course>148.42</course>
  <speed>3.369421315300299</speed>
  <fix>3d</fix>
</trkpt>
<trkpt lat="-27.2716829" lon="151.2964743">
  <ele>525.76</ele>
  <time>2026-09-01T20:00:37Z</time>
  <course>156.06</course>
  <speed>5.38</speed>
  <fix>3d</fix>
</trkpt>
<trkpt lat="-27.2716915" lon="151.296482">
  <ele>531.97</ele>
  <time>2026-09-01T20:00:37Z</time>
  <course>151.32</course>
  <speed>3.549704213029587</speed>
  <fix>3d</fix>
</trkpt>
<trkpt lat="-27.2716829" lon="151.2964743">
  <ele>525.76</ele>
  <time>2026-09-01T20:00:37Z</time>
  <course>156.06</course>
  <speed>5.38</speed>
  <fix>3d</fix>
</trkpt>
<trkpt lat="-27.2716941" lon="151.2964845">
  <ele>533.75</ele>
  <time>2026-09-01T20:00:37Z</time>
  <course>151.9</course>
  <speed>4.182977408497445</speed>
  <fix>3d</fix>
</trkpt>
<trkpt lat="-27.2716892" lon="151.2964793">
  <ele>529.92</ele>
  <time>2026-09-01T20:00:37Z</time>
  <course>136.24</course>
  <speed>3.68</speed>
  <fix>3d</fix>
</trkpt>
<trkpt lat="-27.2716973" lon="151.2964874">
  <ele>535.39</ele>
  <time>2026-09-01T20:00:37Z</time>
  <course>151.44</course>
  <speed>5.038432295863466</speed>
  <fix>3d</fix>
</trkpt>
<trkpt lat="-27.2716892" lon="151.2964793">
  <ele>529.92</ele>
  <time>2026-09-01T20:00:37Z</time>
  <course>136.24</course>
  <speed>3.68</speed>
  <fix>3d</fix>
</trkpt>
<trkpt lat="-27.2717014" lon="151.2964906">
  <ele>536.89</ele>
  <time>2026-09-01T20:00:37Z</time>
  <course>150.72</course>
  <speed>5.921503187536084</speed>
  <fix>3d</fix>
</trkpt>
<trkpt lat="-27.2716943" lon="151.2964845">
  <ele>533.6</ele>
  <time>2026-09-01T20:00:37Z</time>
  <course>140.19</course>
  <speed>4.26</speed>
  <fix>3d</fix>
</trkpt>
<trkpt lat="-27.2717061" lon="151.2964941">
  <ele>538.23</ele>
  <time>2026-09-01T20:00:37Z</time>
  <course>150.02</course>
  <speed>6.7180428697649734</speed>
  <fix>3d</fix>
</trkpt>
<trkpt lat="-27.2716943" lon="151.2964845">
  <ele>533.6</ele>
  <time>2026-09-01T20:00:37Z</time>
  <course>140.19</course>
  <speed>4.26</speed>
  <fix>3d</fix>
</trkpt>
<trkpt lat="-27.2717115" lon="151.2964979">
  <ele>539.43</ele>
  <time>2026-09-01T20:00:37Z</time>
  <course>149.41</course>
  <speed>7.368235881131929</speed>
  <fix>3d</fix>
</trkpt>
<trkpt lat="-27.2717015" lon="151.2964906">
  <ele>536.75</ele>
  <time>2026-09-01T20:00:37Z</time>
  <course>145.64</course>
  <speed>5.84</speed>
  <fix>3d</fix>
</trkpt>
<trkpt lat="-27.2717173" lon="151.2965021">
  <ele>540.47</ele>
  <time>2026-09-01T20:00:37Z</time>
  <course>148.9</course>
  <speed>7.863078277621303</speed>
  <fix>3d</fix>
</trkpt>
<trkpt lat="-27.2717015" lon="151.2964906">
  <ele>536.75</ele>
  <time>2026-09-01T20:00:37Z</time>
  <course>145.64</course>
  <speed>5.84</speed>
  <fix>3d</fix>
</trkpt>
<trkpt lat="-27.2717234" lon="151.2965064">
  <ele>541.37</ele>
  <time>2026-09-01T20:00:37Z</time>
  <course>148.48</course>
  <speed>8.199085314838479</speed>
  <fix>3d</fix>
</trkpt>
<trkpt lat="-27.2717114" lon="151.2964979">
  <ele>539.3</ele>
  <time>2026-09-01T20:00:37Z</time>
  <course>147.46</course>
  <speed>7.27</speed>
  <fix>3d</fix>
</trkpt>
<trkpt lat="-27.2717297" lon="151.2965108">
  <ele>542.13</ele>
  <time>2026-09-01T20:00:37Z</time>
  <course>148.15</course>
  <speed>8.396243207530377</speed>
  <fix>3d</fix>
</trkpt>
<trkpt lat="-27.2717114" lon="151.2964979">
  <ele>539.3</ele>
  <time>2026-09-01T20:00:37Z</time>
  <course>147.46</course>
  <speed>7.27</speed>
  <fix>3d</fix>
</trkpt>
<trkpt lat="-27.2717362" lon="151.2965154">
  <ele>542.77</ele>
  <time>2026-09-01T20:00:37Z</time>
  <course>147.86</course>
  <speed>8.48210469164346</speed>
  <fix>3d</fix>
</trkpt>
<trkpt lat="-27.2717232" lon="151.2965063">
  <ele>541.26</ele>
  <time>2026-09-01T20:00:37Z</time>
  <course>147.9</course>
  <speed>8.12</speed>
  <fix>3d</fix>
</trkpt>
<trkpt lat="-27.2717427" lon="151.2965199">
  <ele>543.28</ele>
  <time>2026-09-01T20:00:37Z</time>
  <course>147.4</course>
  <speed>8.545712375220686</speed>
  <fix>3d</fix>
</trkpt>
<trkpt lat="-27.2717232" lon="151.2965063">
  <ele>541.26</ele>
  <time>2026-09-01T20:00:37Z</time>
  <course>147.9</course>
  <speed>8.12</speed>
  <fix>3d</fix>
</trkpt>
<trkpt lat="-27.2717492" lon="151.2965246">
  <ele>543.68</ele>
  <time>2026-09-01T20:00:37Z</time>
  <course>146.75</course>
  <speed>8.5786071130458</speed>
  <fix>3d</fix>
</trkpt>
<trkpt lat="-27.2717359" lon="151.2965153">
  <ele>542.68</ele>
  <time>2026-09-01T20:00:37Z</time>
  <course>147.92</course>
  <speed>8.47</speed>
  <fix>3d</fix>
</trkpt>
<trkpt lat="-27.2717557" lon="151.2965291">
  <ele>543.98</ele>
  <time>2026-09-01T20:00:37Z</time>
  <course>146.19</course>
  <speed>8.537241943391319</speed>
  <fix>3d</fix>
</trkpt>
<trkpt lat="-27.2717359" lon="151.2965153">
  <ele>542.68</ele>
  <time>2026-09-01T20:00:37Z</time>
  <course>147.92</course>
  <speed>8.47</speed>
  <fix>3d</fix>
</trkpt>
<trkpt lat="-27.2717622" lon="151.2965338">
  <ele>544.21</ele>
  <time>2026-09-01T20:00:37Z</time>
  <course>145.57</course>
  <speed>8.420647243531818</speed>
  <fix>3d</fix>
</trkpt>
<trkpt lat="-27.2717489" lon="151.2965244">
  <ele>543.62</ele>
  <time>2026-09-01T20:00:37Z</time>
  <course>147.86</course>
  <speed>8.55</speed>
  <fix>3d</fix>
</trkpt>
<trkpt lat="-27.2717685" lon="151.2965382">
  <ele>544.41</ele>
  <time>2026-09-01T20:00:37Z</time>
  <course>144.46</course>
  <speed>8.189676428284576</speed>
  <fix>3d</fix>
</trkpt>
<trkpt lat="-27.2717489" lon="151.2965244">
  <ele>543.62</ele>
  <time>2026-09-01T20:00:37Z</time>
  <course>147.86</course>
  <speed>8.55</speed>
  <fix>3d</fix>
</trkpt>
<trkpt lat="-27.2717745" lon="151.2965425">
  <ele>544.63</ele>
  <time>2026-09-01T20:00:37Z</time>
  <course>142.92</course>
  <speed>7.79171996416709</speed>
  <fix>3d</fix>
</trkpt>
<trkpt lat="-27.2717619" lon="151.2965335">
  <ele>544.18</ele>
  <time>2026-09-01T20:00:37Z</time>
  <course>147.76</course>
  <speed>8.37</speed>
  <fix>3d</fix>
</trkpt>
<trkpt lat="-27.2717802" lon="151.2965467">
  <ele>544.87</ele>
  <time>2026-09-01T20:00:37Z</time>
  <course>141.41</course>
  <speed>7.261101844761579</speed>
  <fix>3d</fix>
</trkpt>
<trkpt lat="-27.2717619" lon="151.2965335">
  <ele>544.18</ele>
  <time>2026-09-01T20:00:37Z</time>
  <course>147.76</course>
  <speed>8.37</speed>
  <fix>3d</fix>
</trkpt>
<trkpt lat="-27.2717854" lon="151.2965506">
  <ele>545.13</ele>
  <time>2026-09-01T20:00:37Z</time>
  <course>140.15</course>
  <speed>6.645517286110992</speed>
  <fix>3d</fix>
</trkpt>
<trkpt lat="-27.2717741" lon="151.2965423">
  <ele>544.63</ele>
  <time>2026-09-01T20:00:37Z</time>
  <course>147.16</course>
  <speed>7.74</speed>
  <fix>3d</fix>
</trkpt>
<trkpt lat="-27.2717901" lon="151.2965543">
  <ele>545.41</ele>
  <time>2026-09-01T20:00:37Z</time>
  <course>139.13</course>
  <speed>6.00832755431992</speed>
  <fix>3d</fix>
</trkpt>
<trkpt lat="-27.2717741" lon="151.2965423">
  <ele>544.63</ele>
  <time>2026-09-01T20:00:37Z</time>
  <course>147.16</course>
  <speed>7.74</speed>
  <fix>3d</fix>
</trkpt>
<trkpt lat="-27.2717943" lon="151.2965576">
  <ele>545.73</ele>
  <time>2026-09-01T20:00:37Z</time>
  <course>138.28</course>
  <speed>5.363674113888725</speed>
  <fix>3d</fix>
</trkpt>
<trkpt lat="-27.2717849" lon="151.2965504">
  <ele>545.13</ele>
  <time>2026-09-01T20:00:37Z</time>
  <course>145.98</course>
  <speed>6.65</speed>
  <fix>3d</fix>
</trkpt>
<trkpt lat="-27.271798" lon="151.2965606">
  <ele>546.04</ele>
  <time>2026-09-01T20:00:37Z</time>
  <course>137.53</course>
  <speed>4.724489390399771</speed>
  <fix>3d</fix>
</trkpt>
<trkpt lat="-27.2717849" lon="151.2965504">
  <ele>545.13</ele>
  <time>2026-09-01T20:00:37Z</time>
  <course>145.98</course>
  <speed>6.65</speed>
  <fix>3d</fix>
</trkpt>
<trkpt lat="-27.2718012" lon="151.2965631">
  <ele>546.38</ele>
  <time>2026-09-01T20:00:37Z</time>
  <course>136.85</course>
  <speed>4.110048661512415</speed>
  <fix>3d</fix>
</trkpt>
<trkpt lat="-27.2717938" lon="151.2965573">
  <ele>545.72</ele>
  <time>2026-09-01T20:00:37Z</time>
  <course>144.7</course>
  <speed>5.39</speed>
  <fix>3d</fix>
</trkpt>
<trkpt lat="-27.2718039" lon="151.2965654">
  <ele>546.71</ele>
  <time>2026-09-01T20:00:37Z</time>
  <course>136.24</course>
  <speed>3.518081863743367</speed>
  <fix>3d</fix>
</trkpt>
<trkpt lat="-27.2717938" lon="151.2965573">
  <ele>545.72</ele>
  <time>2026-09-01T20:00:37Z</time>
  <course>144.7</course>
  <speed>5.39</speed>
  <fix>3d</fix>
</trkpt>
<trkpt lat="-27.2718062" lon="151.2965676">
  <ele>547.04</ele>
  <time>2026-09-01T20:00:37Z</time>
  <course>135.69</course>
  <speed>2.9548773240187147</speed>
  <fix>3d</fix>
</trkpt>
<trkpt lat="-27.2718008" lon="151.296563">
  <ele>546.37</ele>
  <time>2026-09-01T20:00:37Z</time>
  <course>143.44</course>
  <speed>4.14</speed>
  <fix>3d</fix>
</trkpt>
<trkpt lat="-27.2718081" lon="151.2965692">
  <ele>547.37</ele>
  <time>2026-09-01T20:00:37Z</time>
  <course>135.24</course>
  <speed>2.408422720371156</speed>
  <fix>3d</fix>
</trkpt>
<trkpt lat="-27.2718008" lon="151.296563">
  <ele>546.37</ele>
  <time>2026-09-01T20:00:37Z</time>
  <course>143.44</course>
  <speed>4.14</speed>
  <fix>3d</fix>
</trkpt>
<trkpt lat="-27.2718095" lon="151.2965706">
  <ele>547.71</ele>
  <time>2026-09-01T20:00:37Z</time>
  <course>134.86</course>
  <speed>1.8569868066305693</speed>
  <fix>3d</fix>
</trkpt>
<trkpt lat="-27.2718058" lon="151.2965673">
  <ele>547.03</ele>
  <time>2026-09-01T20:00:37Z</time>
  <course>141.87</course>
  <speed>2.98</speed>
  <fix>3d</fix>
</trkpt>
<trkpt lat="-27.2718106" lon="151.2965716">
  <ele>548.05</ele>
  <time>2026-09-01T20:00:37Z</time>
  <course>134.57</course>
  <speed>1.30831953283592</speed>
  <fix>3d</fix>
</trkpt>
<trkpt lat="-27.2718058" lon="151.2965673">
  <ele>547.03</ele>
  <time>2026-09-01T20:00:37Z</time>
  <course>141.87</course>
  <speed>2.98</speed>
  <fix>3d</fix>
</trkpt>
<trkpt lat="-27.2718114" lon="151.2965726">
  <ele>548.35</ele>
  <time>2026-09-01T20:00:37Z</time>
  <course>134.35</course>
  <speed>1.3152946437965907</speed>
  <fix>3d</fix>
</trkpt>
<trkpt lat="-27.2718093" lon="151.2965704">
  <ele>547.69</ele>
  <time>2026-09-01T20:00:37Z</time>
  <course>139.02</course>
  <speed>1.88</speed>
  <fix>3d</fix>
</trkpt>
<trkpt lat="-27.2718122" lon="151.2965735">
  <ele>548.54</ele>
  <time>2026-09-01T20:00:37Z</time>
  <course>134.16</course>
  <speed>1.3577186748365804</speed>
  <fix>3d</fix>
</trkpt>
<trkpt lat="-27.2718093" lon="151.2965704">
  <ele>547.69</ele>
  <time>2026-09-01T20:00:37Z</time>
  <course>139.02</course>
  <speed>1.88</speed>
  <fix>3d</fix>
</trkpt>
<trkpt lat="-27.2718132" lon="151.2965745">
  <ele>548.63</ele>
  <time>2026-09-01T20:00:37Z</time>
  <course>133.99</course>
  <speed>1.3577186748365804</speed>
  <fix>3d</fix>
</trkpt>
<trkpt lat="-27.2718114" lon="151.2965726">
  <ele>548.28</ele>
  <time>2026-09-01T20:00:37Z</time>
  <course>135.79</course>
  <speed>1.34</speed>
  <fix>3d</fix>
</trkpt>
<trkpt lat="-27.271814" lon="151.2965755">
  <ele>548.63</ele>
  <time>2026-09-01T20:00:37Z</time>
  <course>133.84</course>
  <speed>1.3364505228402583</speed>
  <fix>3d</fix>
</trkpt>
<trkpt lat="-27.2718114" lon="151.2965726">
  <ele>548.28</ele>
  <time>2026-09-01T20:00:37Z</time>
  <course>135.79</course>
  <speed>1.34</speed>
  <fix>3d</fix>
</trkpt>
<trkpt lat="-27.2718149" lon="151.2965764">
  <ele>548.53</ele>
  <time>2026-09-01T20:00:37Z</time>
  <course>133.69</course>
  <speed>1.3011533345459327</speed>
  <fix>3d</fix>
</trkpt>
<trkpt lat="-27.2718131" lon="151.2965745">
  <ele>548.58</ele>
  <time>2026-09-01T20:00:37Z</time>
  <course>135.58</course>
  <speed>1.35</speed>
  <fix>3d</fix>
</trkpt>
<trkpt lat="-27.2718157" lon="151.2965773">
  <ele>548.34</ele>
  <time>2026-09-01T20:00:37Z</time>
  <course>133.35</course>
  <speed>1.223805540108395</speed>
  <fix>3d</fix>
</trkpt>
<trkpt lat="-27.2718131" lon="151.2965745">
  <ele>548.58</ele>
  <time>2026-09-01T20:00:37Z</time>
  <course>135.58</course>
  <speed>1.35</speed>
  <fix>3d</fix>
</trkpt>
<trkpt lat="-27.2718165" lon="151.2965781">
  <ele>548.07</ele>
  <time>2026-09-01T20:00:37Z</time>
  <course>131.78</course>
  <speed>1.1244554237496478</speed>
  <fix>3d</fix>
</trkpt>
<trkpt lat="-27.2718148" lon="151.2965764">
  <ele>548.48</ele>
  <time>2026-09-01T20:00:37Z</time>
  <course>136.02</course>
  <speed>1.28</speed>
  <fix>3d</fix>
</trkpt>
<trkpt lat="-27.2718173" lon="151.2965787">
  <ele>547.75</ele>
  <time>2026-09-01T20:00:37Z</time>
  <course>128.13</course>
  <speed>1.0480935072788113</speed>
  <fix>3d</fix>
</trkpt>
<trkpt lat="-27.2718148" lon="151.2965764">
  <ele>548.48</ele>
  <time>2026-09-01T20:00:37Z</time>
  <course>136.02</course>
  <speed>1.28</speed>
  <fix>3d</fix>
</trkpt>
<trkpt lat="-27.2718181" lon="151.2965792">
  <ele>547.38</ele>
  <time>2026-09-01T20:00:37Z</time>
  <course>123.74</course>
  <speed>0.9441398201537736</speed>
  <fix>3d</fix>
</trkpt>
<trkpt lat="-27.2718165" lon="151.296578">
  <ele>548.05</ele>
  <time>2026-09-01T20:00:37Z</time>
  <course>142.7</course>
  <speed>1.13</speed>
  <fix>3d</fix>
</trkpt>
<trkpt lat="-27.2718188" lon="151.2965797">
  <ele>546.97</ele>
  <time>2026-09-01T20:00:37Z</time>
  <course>120.19</course>
  <speed>0.8683317338436964</speed>
  <fix>3d</fix>
</trkpt>
<trkpt lat="-27.2718165" lon="151.296578">
  <ele>548.05</ele>
  <time>2026-09-01T20:00:37Z</time>
  <course>142.7</course>
  <speed>1.13</speed>
  <fix>3d</fix>
</trkpt>
<trkpt lat="-27.2718194" lon="151.2965801">
  <ele>546.53</ele>
  <time>2026-09-01T20:00:37Z</time>
  <course>117.58</course>
  <speed>0.816333265278342</speed>
  <fix>3d</fix>
</trkpt>
<trkpt lat="-27.271818" lon="151.2965792">
  <ele>547.37</ele>
  <time>2026-09-01T20:00:37Z</time>
  <course>150.41</course>
  <speed>0.96</speed>
  <fix>3d</fix>
</trkpt>
<trkpt lat="-27.27182" lon="151.2965805">
  <ele>546.04</ele>
  <time>2026-09-01T20:00:37Z</time>
  <course>115.77</course>
  <speed>0.7988116173416608</speed>
  <fix>3d</fix>
</trkpt>
<trkpt lat="-27.271818" lon="151.2965792">
  <ele>547.37</ele>
  <time>2026-09-01T20:00:37Z</time>
  <course>150.41</course>
  <speed>0.96</speed>
  <fix>3d</fix>
</trkpt>
<trkpt lat="-27.2718206" lon="151.296581">
  <ele>545.5</ele>
  <time>2026-09-01T20:00:37Z</time>
  <course>114.54</course>
  <speed>0.8402380615040002</speed>
  <fix>3d</fix>
</trkpt>
<trkpt lat="-27.2718194" lon="151.2965801">
  <ele>546.52</ele>
  <time>2026-09-01T20:00:37Z</time>
  <course>148.61</course>
  <speed>0.84</speed>
  <fix>3d</fix>
</trkpt>
<trkpt lat="-27.2718212" lon="151.2965816">
  <ele>544.9</ele>
  <time>2026-09-01T20:00:37Z</time>
  <course>113.92</course>
  <speed>0.9060905032059435</speed>
  <fix>3d</fix>
</trkpt>
<trkpt lat="-27.2718194" lon="151.2965801">
  <ele>546.52</ele>
  <time>2026-09-01T20:00:37Z</time>
  <course>148.61</course>
  <speed>0.84</speed>
  <fix>3d</fix>
</trkpt>
<trkpt lat="-27.2718219" lon="151.2965824">
  <ele>544.24</ele>
  <time>2026-09-01T20:00:37Z</time>
  <course>114.36</course>
  <speed>1.2920139318134307</speed>
  <fix>3d</fix>
</trkpt>
<trkpt lat="-27.2718206" lon="151.296581">
  <ele>545.48</ele>
  <time>2026-09-01T20:00:37Z</time>
  <course>141.57</course>
  <speed>0.85</speed>
  <fix>3d</fix>
</trkpt>
<trkpt lat="-27.2718226" lon="151.2965836">
  <ele>543.49</ele>
  <time>2026-09-01T20:00:37Z</time>
  <course>119.17</course>
  <speed>1.7750774630984418</speed>
  <fix>3d</fix>
</trkpt>
<trkpt lat="-27.2718206" lon="151.296581">
  <ele>545.48</ele>
  <time>2026-09-01T20:00:37Z</time>
  <course>141.57</course>
  <speed>0.85</speed>
  <fix>3d</fix>
</trkpt>
<trkpt lat="-27.2718235" lon="151.2965853">
  <ele>542.66</ele>
  <time>2026-09-01T20:00:37Z</time>
  <course>156.82</course>
  <speed>1.7786792853125601</speed>
  <fix>3d</fix>
</trkpt>
<trkpt lat="-27.2718219" lon="151.2965826">
  <ele>544.22</ele>
  <time>2026-09-01T20:00:37Z</time>
  <course>126.37</course>
  <speed>1.32</speed>
  <fix>3d</fix>
</trkpt>
<trkpt lat="-27.2718242" lon="151.2965867">
  <ele>541.74</ele>
  <time>2026-09-01T20:00:37Z</time>
  <course>245.85</course>
  <speed>1.4173566946961518</speed>
  <fix>3d</fix>
</trkpt>
<trkpt lat="-27.2718219" lon="151.2965826">
  <ele>544.22</ele>
  <time>2026-09-01T20:00:37Z</time>
  <course>126.37</course>
  <speed>1.32</speed>
  <fix>3d</fix>
</trkpt>
<trkpt lat="-27.2718249" lon="151.2965875">
  <ele>540.71</ele>
  <time>2026-09-01T20:00:37Z</time>
  <course>252.68</course>
  <speed>0.9476286192385708</speed>
  <fix>3d</fix>
</trkpt>
<trkpt lat="-27.2718234" lon="151.2965851">
  <ele>542.64</ele>
  <time>2026-09-01T20:00:37Z</time>
  <course>122.1</course>
  <speed>1.6</speed>
  <fix>3d</fix>
</trkpt>
<trkpt lat="-27.2718254" lon="151.296588">
  <ele>539.6</ele>
  <time>2026-09-01T20:00:37Z</time>
  <course>246.89</course>
  <speed>0.6041522986797286</speed>
  <fix>3d</fix>
</trkpt>
<trkpt lat="-27.2718234" lon="151.2965851">
  <ele>542.64</ele>
  <time>2026-09-01T20:00:37Z</time>
  <course>122.1</course>
  <speed>1.6</speed>
  <fix>3d</fix>
</trkpt>
<trkpt lat="-27.2718259" lon="151.2965883">
  <ele>538.39</ele>
  <time>2026-09-01T20:00:37Z</time>
  <course>242.85</course>
  <speed>0.42107006542854597</speed>
  <fix>3d</fix>
</trkpt>
<trkpt lat="-27.2718248" lon="151.2965874">
  <ele>540.7</ele>
  <time>2026-09-01T20:00:37Z</time>
  <course>131.92</course>
  <speed>1.0</speed>
  <fix>3d</fix>
</trkpt>
<trkpt lat="-27.2718262" lon="151.2965882">
  <ele>537.09</ele>
  <time>2026-09-01T20:00:37Z</time>
  <course>248.19</course>
  <speed>0.3676955262170047</speed>
  <fix>3d</fix>
</trkpt>
<trkpt lat="-27.2718248" lon="151.2965874">
  <ele>540.7</ele>
  <time>2026-09-01T20:00:37Z</time>
  <course>131.92</course>
  <speed>1.0</speed>
  <fix>3d</fix>
</trkpt>
<trkpt lat="-27.2718265" lon="151.2965879">
  <ele>535.71</ele>
  <time>2026-09-01T20:00:37Z</time>
  <course>261.78</course>
  <speed>0.42941821107167777</speed>
  <fix>3d</fix>
</trkpt>
<trkpt lat="-27.2718258" lon="151.2965881">
  <ele>538.39</ele>
  <time>2026-09-01T20:00:37Z</time>
  <course>169.68</course>
  <speed>0.45</speed>
  <fix>3d</fix>
</trkpt>
<trkpt lat="-27.2718265" lon="151.2965874">
  <ele>534.24</ele>
  <time>2026-09-01T20:00:37Z</time>
  <course>279.27</course>
  <speed>0.7071067811865476</speed>
  <fix>3d</fix>
</trkpt>
<trkpt lat="-27.2718258" lon="151.2965881">
  <ele>538.39</ele>
  <time>2026-09-01T20:00:37Z</time>
  <course>169.68</course>
  <speed>0.45</speed>
  <fix>3d</fix>
</trkpt>
<trkpt lat="-27.2718262" lon="151.2965865">
  <ele>532.69</ele>
  <time>2026-09-01T20:00:37Z</time>
  <course>297.66</course>
  <speed>1.2203687967167958</speed>
  <fix>3d</fix>
</trkpt>
<trkpt lat="-27.2718263" lon="151.2965878">
  <ele>535.71</ele>
  <time>2026-09-01T20:00:37Z</time>
  <course>253.0</course>
  <speed>0.43</speed>
  <fix>3d</fix>
</trkpt>
<trkpt lat="-27.2718253" lon="151.2965855">
  <ele>531.07</ele>
  <time>2026-09-01T20:00:37Z</time>
  <course>315.96</course>
  <speed>1.863169342813476</speed>
  <fix>3d</fix>
</trkpt>
<trkpt lat="-27.2718263" lon="151.2965878">
  <ele>535.71</ele>
  <time>2026-09-01T20:00:37Z</time>
  <course>253.0</course>
  <speed>0.43</speed>
  <fix>3d</fix>
</trkpt>
<trkpt lat="-27.2718236" lon="151.2965843">
  <ele>529.38</ele>
  <time>2026-09-01T20:00:37Z</time>
  <course>334.19</course>
  <speed>2.551568145278507</speed>
  <fix>3d</fix>
</trkpt>
<trkpt lat="-27.2718259" lon="151.2965865">
  <ele>532.69</ele>
  <time>2026-09-01T20:00:37Z</time>
  <course>309.27</course>
  <speed>1.2</speed>
  <fix>3d</fix>
</trkpt>
<trkpt lat="-27.2718211" lon="151.2965835">
  <ele>527.62</ele>
  <time>2026-09-01T20:00:37Z</time>
  <course>352.82</course>
  <speed>3.210996729988992</speed>
  <fix>3d</fix>
</trkpt>
<trkpt lat="-27.2718259" lon="151.2965865">
  <ele>532.69</ele>
  <time>2026-09-01T20:00:37Z</time>
  <course>309.27</course>
  <speed>1.2</speed>
  <fix>3d</fix>
</trkpt>
<trkpt lat="-27.271818" lon="151.2965832">
  <ele>525.81</ele>
  <time>2026-09-01T20:00:37Z</time>
  <course>11.71</course>
  <speed>3.7863967039918043</speed>
  <fix>3d</fix>
</trkpt>
<trkpt lat="-27.2718232" lon="151.2965845">
  <ele>529.39</ele>
  <time>2026-09-01T20:00:37Z</time>
  <course>338.84</course>
  <speed>2.45</speed>
  <fix>3d</fix>
</trkpt>
<trkpt lat="-27.2718144" lon="151.296584">
  <ele>523.94</ele>
  <time>2026-09-01T20:00:37Z</time>
  <course>31.18</course>
  <speed>4.250482325572005</speed>
  <fix>3d</fix>
</trkpt>
<trkpt lat="-27.2718232" lon="151.2965845">
  <ele>529.39</ele>
  <time>2026-09-01T20:00:37Z</time>
  <course>338.84</course>
  <speed>2.45</speed>
  <fix>3d</fix>
</trkpt>
<trkpt lat="-27.2718109" lon="151.2965859">
  <ele>522.01</ele>
  <time>2026-09-01T20:00:37Z</time>
  <course>51.4</course>
  <speed>4.565796754127367</speed>
  <fix>3d</fix>
</trkpt>
<trkpt lat="-27.2718179" lon="151.2965836">
  <ele>525.83</ele>
  <time>2026-09-01T20:00:37Z</time>
  <course>5.27</course>
  <speed>3.61</speed>
  <fix>3d</fix>
</trkpt>
<trkpt lat="-27.2718077" lon="151.2965889">
  <ele>520.03</ele>
  <time>2026-09-01T20:00:37Z</time>
  <course>72.69</course>
  <speed>4.704572244104664</speed>
  <fix>3d</fix>
</trkpt>
<trkpt lat="-27.2718179" lon="151.2965836">
  <ele>525.83</ele>
  <time>2026-09-01T20:00:37Z</time>
  <course>5.27</course>
  <speed>3.61</speed>
  <fix>3d</fix>
</trkpt>
<trkpt lat="-27.2718054" lon="151.2965928">
  <ele>517.99</ele>
  <time>2026-09-01T20:00:37Z</time>
  <course>95.52</course>
  <speed>4.6230076789899455</speed>
  <fix>3d</fix>
</trkpt>
<trkpt lat="-27.2718112" lon="151.2965863">
  <ele>522.05</ele>
  <time>2026-09-01T20:00:37Z</time>
  <course>33.47</course>
  <speed>4.31</speed>
  <fix>3d</fix>
</trkpt>
<trkpt lat="-27.2718043" lon="151.2965971">
  <ele>515.88</ele>
  <time>2026-09-01T20:00:37Z</time>
  <course>120.49</course>
  <speed>4.3234823927015125</speed>
  <fix>3d</fix>
</trkpt>
<trkpt lat="-27.2718112" lon="151.2965863">
  <ele>522.05</ele>
  <time>2026-09-01T20:00:37Z</time>
  <course>33.47</course>
  <speed>4.31</speed>
  <fix>3d</fix>
</trkpt>
<trkpt lat="-27.2718046" lon="151.2966013">
  <ele>513.71</ele>
  <time>2026-09-01T20:00:37Z</time>
  <course>148.26</course>
  <speed>3.817918280948402</speed>
  <fix>3d</fix>
</trkpt>
<trkpt lat="-27.2718061" lon="151.2965929">
  <ele>518.02</ele>
  <time>2026-09-01T20:00:37Z</time>
  <course>64.98</course>
  <speed>4.31</speed>
  <fix>3d</fix>
</trkpt>
<trkpt lat="-27.271806" lon="151.2966045">
  <ele>511.47</ele>
  <time>2026-09-01T20:00:37Z</time>
  <course>179.28</course>
  <speed>3.149857139617605</speed>
  <fix>3d</fix>
</trkpt>
<trkpt lat="-27.2718061" lon="151.2965929">
  <ele>518.02</ele>
  <time>2026-09-01T20:00:37Z</time>
  <course>64.98</course>
  <speed>4.31</speed>
  <fix>3d</fix>
</trkpt>
<trkpt lat="-27.2718081" lon="151.296606">
  <ele>509.16</ele>
  <time>2026-09-01T20:00:37Z</time>
  <course>213.04</course>
  <speed>2.4725088473046966</speed>
  <fix>3d</fix>
</trkpt>
<trkpt lat="-27.2718051" lon="151.2966007">
  <ele>513.74</ele>
  <time>2026-09-01T20:00:37Z</time>
  <course>102.61</course>
  <speed>3.46</speed>
  <fix>3d</fix>
</trkpt>
<trkpt lat="-27.27181" lon="151.2966057">
  <ele>506.8</ele>
  <time>2026-09-01T20:00:37Z</time>
  <course>247.66</course>
  <speed>2.10261741645978</speed>
  <fix>3d</fix>
</trkpt>
<trkpt lat="-27.2718051" lon="151.2966007">
  <ele>513.74</ele>
  <time>2026-09-01T20:00:37Z</time>
  <course>102.61</course>
  <speed>3.46</speed>
  <fix>3d</fix>
</trkpt>
<trkpt lat="-27.2718111" lon="151.296604">
  <ele>504.39</ele>
  <time>2026-09-01T20:00:37Z</time>
  <course>281.06</course>
  <speed>2.395349661322956</speed>
  <fix>3d</fix>
</trkpt>
<trkpt lat="-27.271808" lon="151.2966051">
  <ele>509.21</ele>
  <time>2026-09-01T20:00:37Z</time>
  <course>159.67</course>
  <speed>2.06</speed>
  <fix>3d</fix>
</trkpt>
<trkpt lat="-27.2718106" lon="151.2966013">
  <ele>501.93</ele>
  <time>2026-09-01T20:00:37Z</time>
  <course>312.37</course>
  <speed>3.1636213427020623</speed>
  <fix>3d</fix>
</trkpt>
<trkpt lat="-27.271808" lon="151.2966051">
  <ele>509.21</ele>
  <time>2026-09-01T20:00:37Z</time>
  <course>159.67</course>
  <speed>2.06</speed>
  <fix>3d</fix>
</trkpt>
<trkpt lat="-27.2718083" lon="151.2965988">
  <ele>499.44</ele>
  <time>2026-09-01T20:00:37Z</time>
  <course>341.97</course>
  <speed>4.032282232185639</speed>
  <fix>3d</fix>
</trkpt>
<trkpt lat="-27.2718103" lon="151.2966036">
  <ele>504.45</ele>
  <time>2026-09-01T20:00:37Z</time>
  <course>263.91</course>
  <speed>1.91</speed>
  <fix>3d</fix>
</trkpt>
<trkpt lat="-27.2718046" lon="151.2965975">
  <ele>496.92</ele>
  <time>2026-09-01T20:00:37Z</time>
  <course>10.69</course>
  <speed>4.76629835406891</speed>
  <fix>3d</fix>
</trkpt>
<trkpt lat="-27.2718103" lon="151.2966036">
  <ele>504.45</ele>
  <time>2026-09-01T20:00:37Z</time>
  <course>263.91</course>
  <speed>1.91</speed>
  <fix>3d</fix>
</trkpt>
<trkpt lat="-27.2718001" lon="151.296598">
  <ele>494.37</ele>
  <time>2026-09-01T20:00:37Z</time>
  <course>39.37</course>
  <speed>5.25258983740402</speed>
  <fix>3d</fix>
</trkpt>
<trkpt lat="-27.2718076" lon="151.2965994">
  <ele>499.51</ele>
  <time>2026-09-01T20:00:37Z</time>
  <course>331.44</course>
  <speed>3.5</speed>
  <fix>3d</fix>
</trkpt>
<trkpt lat="-27.271796" lon="151.2966007">
  <ele>491.78</ele>
  <time>2026-09-01T20:00:37Z</time>
  <course>68.79</course>
  <speed>5.408289933056474</speed>
  <fix>3d</fix>
</trkpt>
<trkpt lat="-27.2718076" lon="151.2965994">
  <ele>499.51</ele>
  <time>2026-09-01T20:00:37Z</time>
  <course>331.44</course>
  <speed>3.5</speed>
  <fix>3d</fix>
</trkpt>
<trkpt lat="-27.2717932" lon="151.296605">
  <ele>489.16</ele>
  <time>2026-09-01T20:00:37Z</time>
  <course>99.77</course>
  <speed>5.222307918918608</speed>
  <fix>3d</fix>
</trkpt>
<trkpt lat="-27.2718003" lon="151.296599">
  <ele>494.43</ele>
  <time>2026-09-01T20:00:37Z</time>
  <course>19.0</course>
  <speed>4.64</speed>
  <fix>3d</fix>
</trkpt>
<trkpt lat="-27.2717925" lon="151.2966099">
  <ele>486.49</ele>
  <time>2026-09-01T20:00:37Z</time>
  <course>133.13</course>
  <speed>4.7153366793899245</speed>
  <fix>3d</fix>
</trkpt>
<trkpt lat="-27.2718003" lon="151.296599">
  <ele>494.43</ele>
  <time>2026-09-01T20:00:37Z</time>
  <course>19.0</course>
  <speed>4.64</speed>
  <fix>3d</fix>
</trkpt>
<trkpt lat="-27.2717938" lon="151.2966141">
  <ele>483.78</ele>
  <time>2026-09-01T20:00:37Z</time>
  <course>169.44</course>
  <speed>3.990112780360976</speed>
  <fix>3d</fix>
</trkpt>
<trkpt lat="-27.2717943" lon="151.2966051">
  <ele>489.21</ele>
  <time>2026-09-01T20:00:37Z</time>
  <course>65.85</course>
  <speed>4.55</speed>
  <fix>3d</fix>
</trkpt>
<trkpt lat="-27.2717964" lon="151.2966161">
  <ele>481.02</ele>
  <time>2026-09-01T20:00:37Z</time>
  <course>208.27</course>
  <speed>3.279085238294363</speed>
  <fix>3d</fix>
</trkpt>
<trkpt lat="-27.2717943" lon="151.2966051">
  <ele>489.21</ele>
  <time>2026-09-01T20:00:37Z</time>
  <course>65.85</course>
  <speed>4.55</speed>
  <fix>3d</fix>
</trkpt>
<trkpt lat="-27.2717991" lon="151.2966156">
  <ele>478.22</ele>
  <time>2026-09-01T20:00:37Z</time>
  <course>247.72</course>
  <speed>2.990250825599752</speed>
  <fix>3d</fix>
</trkpt>
<trkpt lat="-27.2717944" lon="151.2966129">
  <ele>483.82</ele>
  <time>2026-09-01T20:00:37Z</time>
  <course>122.17</course>
  <speed>3.3</speed>
  <fix>3d</fix>
</trkpt>
<trkpt lat="-27.2718004" lon="151.2966129">
  <ele>475.3</ele>
  <time>2026-09-01T20:00:37Z</time>
  <course>286.98</course>
  <speed>3.393287491504367</speed>
  <fix>3d</fix>
</trkpt>
<trkpt lat="-27.2717944" lon="151.2966129">
  <ele>483.82</ele>
  <time>2026-09-01T20:00:37Z</time>
  <course>122.17</course>
  <speed>3.3</speed>
  <fix>3d</fix>
</trkpt>
<trkpt lat="-27.2717995" lon="151.2966094">
  <ele>472.45</ele>
  <time>2026-09-01T20:00:37Z</time>
  <course>322.79</course>
  <speed>4.183061080118243</speed>
  <fix>3d</fix>
</trkpt>
<trkpt lat="-27.2717983" lon="151.2966146">
  <ele>478.28</ele>
  <time>2026-09-01T20:00:37Z</time>
  <course>214.07</course>
  <speed>2.19</speed>
  <fix>3d</fix>
</trkpt>
<trkpt lat="-27.2717963" lon="151.2966066">
  <ele>469.58</ele>
  <time>2026-09-01T20:00:37Z</time>
  <course>357.01</course>
  <speed>4.971086400375676</speed>
  <fix>3d</fix>
</trkpt>
<trkpt lat="-27.2717983" lon="151.2966146">
  <ele>478.28</ele>
  <time>2026-09-01T20:00:37Z</time>
  <course>214.07</course>
  <speed>2.19</speed>
  <fix>3d</fix>
</trkpt>
<trkpt lat="-27.2700058" lon="151.300649">
  <ele>540.85</ele>
  <time>2026-09-01T20:00:37Z</time>
  <course>238.54</course>
  <speed>12.99387932836072</speed>
  <fix>3d</fix>
</trkpt>
<trkpt lat="-27.2717984" lon="151.2966099">
  <ele>472.61</ele>
  <time>2026-09-01T20:00:37Z</time>
  <course>307.31</course>
  <speed>3.34</speed>
  <fix>3d</fix>
</trkpt>
<trkpt lat="-27.2700103" lon="151.3006349">
  <ele>537.13</ele>
  <time>2026-09-01T20:00:37Z</time>
  <course>233.48</course>
  <speed>17.42020091732584</speed>
  <fix>3d</fix>
</trkpt>
<trkpt lat="-27.2717984" lon="151.2966099">
  <ele>472.61</ele>
  <time>2026-09-01T20:00:37Z</time>
  <course>307.31</course>
  <speed>3.34</speed>
  <fix>3d</fix>
</trkpt>
<trkpt lat="-27.2700173" lon="151.3006163">
  <ele>533.7</ele>
  <time>2026-09-01T20:00:37Z</time>
  <course>239.51</course>
  <speed>22.34106980428645</speed>
  <fix>3d</fix>
</trkpt>
<trkpt lat="-27.2709032" lon="151.2986212">
  <ele>503.54</ele>
  <time>2026-09-01T20:00:37Z</time>
  <course>264.1</course>
  <speed>8.98</speed>
  <fix>3d</fix>
</trkpt>
<trkpt lat="-27.2700265" lon="151.3005945">
  <ele>530.69</ele>
  <time>2026-09-01T20:00:37Z</time>
  <course>237.33</course>
  <speed>26.237092064480013</speed>
  <fix>3d</fix>
</trkpt>
<trkpt lat="-27.2709032" lon="151.2986212">
  <ele>503.54</ele>
  <time>2026-09-01T20:00:37Z</time>
  <course>264.1</course>
  <speed>8.98</speed>
  <fix>3d</fix>
</trkpt>
<trkpt lat="-27.2700394" lon="151.3005709">
  <ele>527.91</ele>
  <time>2026-09-01T20:00:37Z</time>
  <course>226.92</course>
  <speed>28.403100182902573</speed>
  <fix>3d</fix>
</trkpt>
<trkpt lat="-27.270018" lon="151.3006156">
  <ele>534.06</ele>
  <time>2026-09-01T20:00:37Z</time>
  <course>244.56</course>
  <speed>21.59</speed>
  <fix>3d</fix>
</trkpt>
<trkpt lat="-27.270056" lon="151.3005485">
  <ele>525.35</ele>
  <time>2026-09-01T20:00:37Z</time>
  <course>213.74</course>
  <speed>29.077111273302236</speed>
  <fix>3d</fix>
</trkpt>
<trkpt lat="-27.270018" lon="151.3006156">
  <ele>534.06</ele>
  <time>2026-09-01T20:00:37Z</time>
  <course>244.56</course>
  <speed>21.59</speed>
  <fix>3d</fix>
</trkpt>
<trkpt lat="-27.2700757" lon="151.3005296">
  <ele>522.83</ele>
  <time>2026-09-01T20:00:37Z</time>
  <course>205.37</course>
  <speed>28.577391413493288</speed>
  <fix>3d</fix>
</trkpt>
<trkpt lat="-27.2700407" lon="151.3005723">
  <ele>528.11</ele>
  <time>2026-09-01T20:00:37Z</time>
  <course>233.56</course>
  <speed>27.32</speed>
  <fix>3d</fix>
</trkpt>
<trkpt lat="-27.2700962" lon="151.3005126">
  <ele>520.29</ele>
  <time>2026-09-01T20:00:37Z</time>
  <course>217.32</course>
  <speed>28.859539150859632</speed>
  <fix>3d</fix>
</trkpt>
<trkpt lat="-27.2700407" lon="151.3005723">
  <ele>528.11</ele>
  <time>2026-09-01T20:00:37Z</time>
  <course>233.56</course>
  <speed>27.32</speed>
  <fix>3d</fix>
</trkpt>
<trkpt lat="-27.2701157" lon="151.3004915">
  <ele>517.99</ele>
  <time>2026-09-01T20:00:37Z</time>
  <course>229.59</course>
  <speed>31.450990445453385</speed>
  <fix>3d</fix>
</trkpt>
<trkpt lat="-27.2700754" lon="151.3005313">
  <ele>522.9</ele>
  <time>2026-09-01T20:00:37Z</time>
  <course>222.18</course>
  <speed>28.88</speed>
  <fix>3d</fix>
</trkpt>
<trkpt lat="-27.2701338" lon="151.3004654">
  <ele>516.24</ele>
  <time>2026-09-01T20:00:37Z</time>
  <course>235.95</course>
  <speed>34.11366002058413</speed>
  <fix>3d</fix>
</trkpt>
<trkpt lat="-27.2700754" lon="151.3005313">
  <ele>522.9</ele>
  <time>2026-09-01T20:00:37Z</time>
  <course>222.18</course>
  <speed>28.88</speed>
  <fix>3d</fix>
</trkpt>
<trkpt lat="-27.2701508" lon="151.3004359">
  <ele>515.16</ele>
  <time>2026-09-01T20:00:37Z</time>
  <course>239.82</course>
  <speed>35.32226493304188</speed>
  <fix>3d</fix>
</trkpt>
<trkpt lat="-27.2701143" lon="151.3004898">
  <ele>518.32</ele>
  <time>2026-09-01T20:00:37Z</time>
  <course>227.41</course>
  <speed>31.11</speed>
  <fix>3d</fix>
</trkpt>
<trkpt lat="-27.2701667" lon="151.3004051">
  <ele>514.85</ele>
  <time>2026-09-01T20:00:37Z</time>
  <course>241.35</course>
  <speed>34.92623655649145</speed>
  <fix>3d</fix>
</trkpt>
<trkpt lat="-27.2701143" lon="151.3004898">
  <ele>518.32</ele>
  <time>2026-09-01T20:00:37Z</time>
  <course>227.41</course>
  <speed>31.11</speed>
  <fix>3d</fix>
</trkpt>
<trkpt lat="-27.2701817" lon="151.3003752">
  <ele>515.26</ele>
  <time>2026-09-01T20:00:37Z</time>
  <course>240.5</course>
  <speed>32.924047442560884</speed>
  <fix>3d</fix>
</trkpt>
<trkpt lat="-27.2701497" lon="151.3004362">
  <ele>515.56</ele>
  <time>2026-09-01T20:00:37Z</time>
  <course>237.76</course>
  <speed>34.47</speed>
  <fix>3d</fix>
</trkpt>
<trkpt lat="-27.2701964" lon="151.3003478">
  <ele>516.23</ele>
  <time>2026-09-01T20:00:37Z</time>
  <course>238.09</course>
  <speed>30.35266874592743</speed>
  <fix>3d</fix>
</trkpt>
<trkpt lat="-27.2701497" lon="151.3004362">
  <ele>515.56</ele>
  <time>2026-09-01T20:00:37Z</time>
  <course>237.76</course>
  <speed>34.47</speed>
  <fix>3d</fix>
</trkpt>
<trkpt lat="-27.270211" lon="151.3003234">
  <ele>517.54</ele>
  <time>2026-09-01T20:00:37Z</time>
  <course>235.52</course>
  <speed>28.054049618548834</speed>
  <fix>3d</fix>
</trkpt>
<trkpt lat="-27.270181" lon="151.3003774">
  <ele>515.51</ele>
  <time>2026-09-01T20:00:37Z</time>
  <course>239.22</course>
  <speed>32.69</speed>
  <fix>3d</fix>
</trkpt>
<trkpt lat="-27.2702256" lon="151.3003015">
  <ele>519.02</ele>
  <time>2026-09-01T20:00:37Z</time>
  <course>233.71</course>
  <speed>26.239468363516817</speed>
  <fix>3d</fix>
</trkpt>
<trkpt lat="-27.270181" lon="151.3003774">
  <ele>515.51</ele>
  <time>2026-09-01T20:00:37Z</time>
  <course>239.22</course>
  <speed>32.69</speed>
  <fix>3d</fix>
</trkpt>
<trkpt lat="-27.2702401" lon="151.3002814">
  <ele>520.57</ele>
  <time>2026-09-01T20:00:37Z</time>
  <course>232.92</course>
  <speed>24.870094491175543</speed>
  <fix>3d</fix>
</trkpt>
<trkpt lat="-27.2702106" lon="151.3003253">
  <ele>517.58</ele>
  <time>2026-09-01T20:00:37Z</time>
  <course>234.97</course>
  <speed>28.32</speed>
  <fix>3d</fix>
</trkpt>
<trkpt lat="-27.2702543" lon="151.3002627">
  <ele>522.13</ele>
  <time>2026-09-01T20:00:37Z</time>
  <course>232.58</course>
  <speed>23.827893318545808</speed>
  <fix>3d</fix>
</trkpt>
<trkpt lat="-27.2702106" lon="151.3003253">
  <ele>517.58</ele>
  <time>2026-09-01T20:00:37Z</time>
  <course>234.97</course>
  <speed>28.32</speed>
  <fix>3d</fix>
</trkpt>
<trkpt lat="-27.2702686" lon="151.3002444">
  <ele>523.69</ele>
  <time>2026-09-01T20:00:37Z</time>
  <course>232.11</course>
  <speed>22.985623767911974</speed>
  <fix>3d</fix>
</trkpt>
<trkpt lat="-27.2702396" lon="151.3002826">
  <ele>520.54</ele>
  <time>2026-09-01T20:00:37Z</time>
  <course>230.54</course>
  <speed>25.06</speed>
  <fix>3d</fix>
</trkpt>
<trkpt lat="-27.2702819" lon="151.3002271">
  <ele>525.15</ele>
  <time>2026-09-01T20:00:37Z</time>
  <course>231.53</course>
  <speed>22.314013534100045</speed>
  <fix>3d</fix>
</trkpt>
<trkpt lat="-27.2702396" lon="151.3002826">
  <ele>520.54</ele>
  <time>2026-09-01T20:00:37Z</time>
  <course>230.54</course>
  <speed>25.06</speed>
  <fix>3d</fix>
</trkpt>
<trkpt lat="-27.2702949" lon="151.3002103">
  <ele>526.54</ele>
  <time>2026-09-01T20:00:37Z</time>
  <course>231.14</course>
  <speed>21.743194337539276</speed>
  <fix>3d</fix>
</trkpt>
<trkpt lat="-27.2702675" lon="151.3002457">
  <ele>523.58</ele>
  <time>2026-09-01T20:00:37Z</time>
  <course>229.06</course>
  <speed>23.1</speed>
  <fix>3d</fix>
</trkpt>
<trkpt lat="-27.2703075" lon="151.3001938">
  <ele>527.84</ele>
  <time>2026-09-01T20:00:37Z</time>
  <course>230.97</course>
  <speed>21.242998846678873</speed>
  <fix>3d</fix>
</trkpt>
<trkpt lat="-27.2702675" lon="151.3002457">
  <ele>523.58</ele>
  <time>2026-09-01T20:00:37Z</time>
  <course>229.06</course>
  <speed>23.1</speed>
  <fix>3d</fix>
</trkpt>
<trkpt lat="-27.2703198" lon="151.3001778">
  <ele>529.07</ele>
  <time>2026-09-01T20:00:37Z</time>
  <course>230.88</course>
  <speed>20.749409630155746</speed>
  <fix>3d</fix>
</trkpt>
<trkpt lat="-27.270294" lon="151.3002115">
  <ele>526.42</ele>
  <time>2026-09-01T20:00:37Z</time>
  <course>229.1</course>
  <speed>21.81</speed>
  <fix>3d</fix>
</trkpt>
<trkpt lat="-27.2703318" lon="151.3001621">
  <ele>530.23</ele>
  <time>2026-09-01T20:00:37Z</time>
  <course>230.87</course>
  <speed>20.239614620837028</speed>
  <fix>3d</fix>
</trkpt>
<trkpt lat="-27.270294" lon="151.3002115">
  <ele>526.42</ele>
  <time>2026-09-01T20:00:37Z</time>
  <course>229.1</course>
  <speed>21.81</speed>
  <fix>3d</fix>
</trkpt>
<trkpt lat="-27.2703435" lon="151.3001468">
  <ele>531.33</ele>
  <time>2026-09-01T20:00:37Z</time>
  <course>230.9</course>
  <speed>19.707057111603447</speed>
  <fix>3d</fix>
</trkpt>
<trkpt lat="-27.2703189" lon="151.3001789">
  <ele>528.97</ele>
  <time>2026-09-01T20:00:37Z</time>
  <course>229.29</course>
  <speed>20.77</speed>
  <fix>3d</fix>
</trkpt>
<trkpt lat="-27.2703549" lon="151.3001319">
  <ele>532.37</ele>
  <time>2026-09-01T20:00:37Z</time>
  <course>230.94</course>
  <speed>19.12355876922494</speed>
  <fix>3d</fix>
</trkpt>
<trkpt lat="-27.2703189" lon="151.3001789">
  <ele>528.97</ele>
  <time>2026-09-01T20:00:37Z</time>
  <course>229.29</course>
  <speed>20.77</speed>
  <fix>3d</fix>
</trkpt>
<trkpt lat="-27.2703659" lon="151.3001175">
  <ele>533.38</ele>
  <time>2026-09-01T20:00:37Z</time>
  <course>230.94</course>
  <speed>18.51740802596303</speed>
  <fix>3d</fix>
</trkpt>
<trkpt lat="-27.2703426" lon="151.3001479">
  <ele>531.24</ele>
  <time>2026-09-01T20:00:37Z</time>
  <course>229.31</course>
  <speed>19.72</speed>
  <fix>3d</fix>
</trkpt>
<trkpt lat="-27.2703766" lon="151.3001036">
  <ele>534.35</ele>
  <time>2026-09-01T20:00:37Z</time>
  <course>230.88</course>
  <speed>17.895342969610837</speed>
  <fix>3d</fix>
</trkpt>
<trkpt lat="-27.2703426" lon="151.3001479">
  <ele>531.24</ele>
  <time>2026-09-01T20:00:37Z</time>
  <course>229.31</course>
  <speed>19.72</speed>
  <fix>3d</fix>
</trkpt>
<trkpt lat="-27.270387" lon="151.3000903">
  <ele>535.29</ele>
  <time>2026-09-01T20:00:37Z</time>
  <course>230.78</course>
  <speed>17.25950752483975</speed>
  <fix>3d</fix>
</trkpt>
<trkpt lat="-27.2703651" lon="151.3001186">
  <ele>533.3</ele>
  <time>2026-09-01T20:00:37Z</time>
  <course>229.09</course>
  <speed>18.55</speed>
  <fix>3d</fix>
</trkpt>
<trkpt lat="-27.2703971" lon="151.3000774">
  <ele>536.2</ele>
  <time>2026-09-01T20:00:37Z</time>
  <course>230.66</course>
  <speed>16.62322772508396</speed>
  <fix>3d</fix>
</trkpt>
<trkpt lat="-27.2703651" lon="151.3001186">
  <ele>533.3</ele>
  <time>2026-09-01T20:00:37Z</time>
  <course>229.09</course>
  <speed>18.55</speed>
  <fix>3d</fix>
</trkpt>
<trkpt lat="-27.2704069" lon="151.3000652">
  <ele>537.09</ele>
  <time>2026-09-01T20:00:37Z</time>
  <course>230.52</course>
  <speed>16.00835094567832</speed>
  <fix>3d</fix>
</trkpt>
<trkpt lat="-27.2703863" lon="151.3000913">
  <ele>535.22</ele>
  <time>2026-09-01T20:00:37Z</time>
  <course>228.61</course>
  <speed>17.3</speed>
  <fix>3d</fix>
</trkpt>
<trkpt lat="-27.2704162" lon="151.3000537">
  <ele>537.94</ele>
  <time>2026-09-01T20:00:37Z</time>
  <course>230.38</course>
  <speed>15.430495779462175</speed>
  <fix>3d</fix>
</trkpt>
<trkpt lat="-27.2703863" lon="151.3000913">
  <ele>535.22</ele>
  <time>2026-09-01T20:00:37Z</time>
  <course>228.61</course>
  <speed>17.3</speed>
  <fix>3d</fix>
</trkpt>
<trkpt lat="-27.2704254" lon="151.3000425">
  <ele>538.77</ele>
  <time>2026-09-01T20:00:37Z</time>
  <course>230.24</course>
  <speed>14.860013458944106</speed>
  <fix>3d</fix>
</trkpt>
<trkpt lat="-27.2704062" lon="151.3000661">
  <ele>537.03</ele>
  <time>2026-09-01T20:00:37Z</time>
  <course>227.94</course>
  <speed>16.06</speed>
  <fix>3d</fix>
</trkpt>
<trkpt lat="-27.2704343" lon="151.3000317">
  <ele>539.57</ele>
  <time>2026-09-01T20:00:37Z</time>
  <course>230.09</course>
  <speed>14.311704999754573</speed>
  <fix>3d</fix>
</trkpt>
<trkpt lat="-27.2704062" lon="151.3000661">
  <ele>537.03</ele>
  <time>2026-09-01T20:00:37Z</time>
  <course>227.94</course>
  <speed>16.06</speed>
  <fix>3d</fix>
</trkpt>
<trkpt lat="-27.270443" lon="151.3000214">
  <ele>540.34</ele>
  <time>2026-09-01T20:00:37Z</time>
  <course>229.96</course>
  <speed>13.785517763218035</speed>
  <fix>3d</fix>
</trkpt>
<trkpt lat="-27.2704249" lon="151.300043">
  <ele>538.73</ele>
  <time>2026-09-01T20:00:37Z</time>
  <course>227.18</course>
  <speed>14.89</speed>
  <fix>3d</fix>
</trkpt>
<trkpt lat="-27.2704514" lon="151.3000114">
  <ele>541.08</ele>
  <time>2026-09-01T20:00:37Z</time>
  <course>229.84</course>
  <speed>13.288344516906536</speed>
  <fix>3d</fix>
</trkpt>
<trkpt lat="-27.2704249" lon="151.300043">
  <ele>538.73</ele>
  <time>2026-09-01T20:00:37Z</time>
  <course>227.18</course>
  <speed>14.89</speed>
  <fix>3d</fix>
</trkpt>
<trkpt lat="-27.2704596" lon="151.3000021">
  <ele>541.78</ele>
  <time>2026-09-01T20:00:37Z</time>
  <course>229.74</course>
  <speed>12.813274366843162</speed>
  <fix>3d</fix>
</trkpt>
<trkpt lat="-27.2704426" lon="151.3000219">
  <ele>540.3</ele>
  <time>2026-09-01T20:00:37Z</time>
  <course>226.38</course>
  <speed>13.82</speed>
  <fix>3d</fix>
</trkpt>
<trkpt lat="-27.2704676" lon="151.2999931">
  <ele>542.44</ele>
  <time>2026-09-01T20:00:37Z</time>
  <course>229.65</course>
  <speed>12.36729962441276</speed>
  <fix>3d</fix>
</trkpt>
<trkpt lat="-27.2704426" lon="151.3000219">
  <ele>540.3</ele>
  <time>2026-09-01T20:00:37Z</time>
  <course>226.38</course>
  <speed>13.82</speed>
  <fix>3d</fix>
</trkpt>
<trkpt lat="-27.2704753" lon="151.2999844">
  <ele>543.06</ele>
  <time>2026-09-01T20:00:37Z</time>
  <course>229.56</course>
  <speed>11.936372983448532</speed>
  <fix>3d</fix>
</trkpt>
<trkpt lat="-27.2704593" lon="151.3000025">
  <ele>541.74</ele>
  <time>2026-09-01T20:00:37Z</time>
  <course>225.51</course>
  <speed>12.84</speed>
  <fix>3d</fix>
</trkpt>
<trkpt lat="-27.2704831" lon="151.2999759">
  <ele>543.66</ele>
  <time>2026-09-01T20:00:37Z</time>
  <course>229.46</course>
  <speed>11.513652765304327</speed>
  <fix>3d</fix>
</trkpt>
<trkpt lat="-27.2704593" lon="151.3000025">
  <ele>541.74</ele>
  <time>2026-09-01T20:00:37Z</time>
  <course>225.51</course>
  <speed>12.84</speed>
  <fix>3d</fix>
</trkpt>
<trkpt lat="-27.2704905" lon="151.299968">
  <ele>544.2</ele>
  <time>2026-09-01T20:00:37Z</time>
  <course>229.34</course>
  <speed>11.120476608491204</speed>
  <fix>3d</fix>
</trkpt>
<trkpt lat="-27.270475" lon="151.2999848">
  <ele>543.02</ele>
  <time>2026-09-01T20:00:37Z</time>
  <course>224.52</course>
  <speed>11.96</speed>
  <fix>3d</fix>
</trkpt>
<trkpt lat="-27.2704977" lon="151.2999604">
  <ele>544.7</ele>
  <time>2026-09-01T20:00:37Z</time>
  <course>229.19</course>
  <speed>10.742830167139385</speed>
  <fix>3d</fix>
</trkpt>
<trkpt lat="-27.270475" lon="151.2999848">
  <ele>543.02</ele>
  <time>2026-09-01T20:00:37Z</time>
  <course>224.52</course>
  <speed>11.96</speed>
  <fix>3d</fix>
</trkpt>
<trkpt lat="-27.2705047" lon="151.2999533">
  <ele>545.16</ele>
  <time>2026-09-01T20:00:37Z</time>
  <course>229.0</course>
  <speed>10.36748764166131</speed>
  <fix>3d</fix>
</trkpt>
<trkpt lat="-27.27049" lon="151.2999686">
  <ele>544.15</ele>
  <time>2026-09-01T20:00:37Z</time>
  <course>223.34</course>
  <speed>11.15</speed>
  <fix>3d</fix>
</trkpt>
<trkpt lat="-27.2705115" lon="151.2999463">
  <ele>545.59</ele>
  <time>2026-09-01T20:00:37Z</time>
  <course>228.78</course>
  <speed>10.008366500083817</speed>
  <fix>3d</fix>
</trkpt>
<trkpt lat="-27.27049" lon="151.2999686">
  <ele>544.15</ele>
  <time>2026-09-01T20:00:37Z</time>
  <course>223.34</course>
  <speed>11.15</speed>
  <fix>3d</fix>
</trkpt>
<trkpt lat="-27.2705183" lon="151.29994">
  <ele>545.99</ele>
  <time>2026-09-01T20:00:37Z</time>
  <course>228.52</course>
  <speed>9.658017394890113</speed>
  <fix>3d</fix>
</trkpt>
<trkpt lat="-27.2705042" lon="151.2999538">
  <ele>545.12</ele>
  <time>2026-09-01T20:00:37Z</time>
  <course>221.91</course>
  <speed>10.4</speed>
  <fix>3d</fix>
</trkpt>
<trkpt lat="-27.2705248" lon="151.2999338">
  <ele>546.34</ele>
  <time>2026-09-01T20:00:37Z</time>
  <course>228.23</course>
  <speed>9.311433831585767</speed>
  <fix>3d</fix>
</trkpt>
<trkpt lat="-27.2705042" lon="151.2999538">
  <ele>545.12</ele>
  <time>2026-09-01T20:00:37Z</time>
  <course>221.91</course>
  <speed>10.4</speed>
  <fix>3d</fix>
</trkpt>
<trkpt lat="-27.2705312" lon="151.2999281">
  <ele>546.66</ele>
  <time>2026-09-01T20:00:37Z</time>
  <course>227.9</course>
  <speed>8.974140627380429</speed>
  <fix>3d</fix>
</trkpt>
<trkpt lat="-27.2705178" lon="151.2999405">
  <ele>545.94</ele>
  <time>2026-09-01T20:00:37Z</time>
  <course>220.19</course>
  <speed>9.68</speed>
  <fix>3d</fix>
</trkpt>
<trkpt lat="-27.2705375" lon="151.2999227">
  <ele>546.96</ele>
  <time>2026-09-01T20:00:37Z</time>
  <course>227.55</course>
  <speed>8.648011332092484</speed>
  <fix>3d</fix>
</trkpt>
<trkpt lat="-27.2705178" lon="151.2999405">
  <ele>545.94</ele>
  <time>2026-09-01T20:00:37Z</time>
  <course>220.19</course>
  <speed>9.68</speed>
  <fix>3d</fix>
</trkpt>
<trkpt lat="-27.2705437" lon="151.2999175">
  <ele>547.22</ele>
  <time>2026-09-01T20:00:38Z</time>
  <course>227.16</course>
  <speed>8.333816652650814</speed>
  <fix>3d</fix>
</trkpt>
<trkpt lat="-27.2705307" lon="151.2999285">
  <ele>546.63</ele>
  <time>2026-09-01T20:00:38Z</time>
  <course>218.15</course>
  <speed>9.0</speed>
  <fix>3d</fix>
</trkpt>
<trkpt lat="-27.2705497" lon="151.2999127">
  <ele>547.45</ele>
  <time>2026-09-01T20:00:38Z</time>
  <course>226.76</course>
  <speed>8.021552218866372</speed>
  <fix>3d</fix>
</trkpt>
<trkpt lat="-27.2705307" lon="151.2999285">
  <ele>546.63</ele>
  <time>2026-09-01T20:00:38Z</time>
  <course>218.15</course>
  <speed>9.0</speed>
  <fix>3d</fix>
</trkpt>
<trkpt lat="-27.2705556" lon="151.2999084">
  <ele>547.65</ele>
  <time>2026-09-01T20:00:38Z</time>
  <course>226.34</course>
  <speed>7.722072260734161</speed>
  <fix>3d</fix>
</trkpt>
<trkpt lat="-27.2705432" lon="151.299918">
  <ele>547.18</ele>
  <time>2026-09-01T20:00:38Z</time>
  <course>215.76</course>
  <speed>8.35</speed>
  <fix>3d</fix>
</trkpt>
<trkpt lat="-27.2705613" lon="151.2999042">
  <ele>547.82</ele>
  <time>2026-09-01T20:00:38Z</time>
  <course>225.9</course>
  <speed>7.427819330059126</speed>
  <fix>3d</fix>
</trkpt>
<trkpt lat="-27.2705432" lon="151.299918">
  <ele>547.18</ele>
  <time>2026-09-01T20:00:38Z</time>
  <course>215.76</course>
  <speed>8.35</speed>
  <fix>3d</fix>
</trkpt>
<trkpt lat="-27.270567" lon="151.2999006">
  <ele>547.97</ele>
  <time>2026-09-01T20:00:38Z</time>
  <course>225.46</course>
  <speed>7.1530832512980025</speed>
  <fix>3d</fix>
</trkpt>
<trkpt lat="-27.2705551" lon="151.2999088">
  <ele>547.62</ele>
  <time>2026-09-01T20:00:38Z</time>
  <course>213.01</course>
  <speed>7.74</speed>
  <fix>3d</fix>
</trkpt>
<trkpt lat="-27.2705725" lon="151.2998972">
  <ele>548.09</ele>
  <time>2026-09-01T20:00:38Z</time>
  <course>225.01</course>
  <speed>6.875885397532452</speed>
  <fix>3d</fix>
</trkpt>
<trkpt lat="-27.2705551" lon="151.2999088">
  <ele>547.62</ele>
  <time>2026-09-01T20:00:38Z</time>
  <course>213.01</course>
  <speed>7.74</speed>
  <fix>3d</fix>
</trkpt>
<trkpt lat="-27.2705779" lon="151.299894">
  <ele>548.18</ele>
  <time>2026-09-01T20:00:38Z</time>
  <course>224.57</course>
  <speed>6.623329978190728</speed>
  <fix>3d</fix>
</trkpt>
<trkpt lat="-27.2705666" lon="151.2999009">
  <ele>547.94</ele>
  <time>2026-09-01T20:00:38Z</time>
  <course>209.89</course>
  <speed>7.17</speed>
  <fix>3d</fix>
</trkpt>
<trkpt lat="-27.2705832" lon="151.2998912">
  <ele>548.25</ele>
  <time>2026-09-01T20:00:38Z</time>
  <course>224.13</course>
  <speed>6.368429947797181</speed>
  <fix>3d</fix>
</trkpt>
<trkpt lat="-27.2705666" lon="151.2999009">
  <ele>547.94</ele>
  <time>2026-09-01T20:00:38Z</time>
  <course>209.89</course>
  <speed>7.17</speed>
  <fix>3d</fix>
</trkpt>
<trkpt lat="-27.2705883" lon="151.2998887">
  <ele>548.3</ele>
  <time>2026-09-01T20:00:38Z</time>
  <course>223.71</course>
  <speed>6.130073409022113</speed>
  <fix>3d</fix>
</trkpt>
<trkpt lat="-27.2705775" lon="151.2998944">
  <ele>548.16</ele>
  <time>2026-09-01T20:00:38Z</time>
  <course>206.38</course>
  <speed>6.64</speed>
  <fix>3d</fix>
</trkpt>
<trkpt lat="-27.2705933" lon="151.2998864">
  <ele>548.33</ele>
  <time>2026-09-01T20:00:38Z</time>
  <course>223.53</course>
  <speed>5.86436697351044</speed>
  <fix>3d</fix>
</trkpt>
<trkpt lat="-27.2705775" lon="151.2998944">
  <ele>548.16</ele>
  <time>2026-09-01T20:00:38Z</time>
  <course>206.38</course>
  <speed>6.64</speed>
  <fix>3d</fix>
</trkpt>
<trkpt lat="-27.2705982" lon="151.2998847">
  <ele>548.36</ele>
  <time>2026-09-01T20:00:38Z</time>
  <course>223.93</course>
  <speed>5.568841890375413</speed>
  <fix>3d</fix>
</trkpt>
<trkpt lat="-27.2705879" lon="151.299889">
  <ele>548.29</ele>
  <time>2026-09-01T20:00:38Z</time>
  <course>202.27</course>
  <speed>6.13</speed>
  <fix>3d</fix>
</trkpt>
<trkpt lat="-27.2706028" lon="151.2998834">
  <ele>548.38</ele>
  <time>2026-09-01T20:00:38Z</time>
  <course>225.0</course>
  <speed>5.2497618993626745</speed>
  <fix>3d</fix>
</trkpt>
<trkpt lat="-27.2705879" lon="151.299889">
  <ele>548.29</ele>
  <time>2026-09-01T20:00:38Z</time>
  <course>202.27</course>
  <speed>6.13</speed>
  <fix>3d</fix>
</trkpt>
<trkpt lat="-27.2706074" lon="151.2998824">
  <ele>548.41</ele>
  <time>2026-09-01T20:00:38Z</time>
  <course>226.92</course>
  <speed>4.8875351661138975</speed>
  <fix>3d</fix>
</trkpt>
<trkpt lat="-27.2705979" lon="151.299885">
  <ele>548.35</ele>
  <time>2026-09-01T20:00:38Z</time>
  <course>196.6</course>
  <speed>5.56</speed>
  <fix>3d</fix>
</trkpt>
<trkpt lat="-27.2706116" lon="151.299882">
  <ele>548.46</ele>
  <time>2026-09-01T20:00:38Z</time>
  <course>229.54</course>
  <speed>4.523991600345871</speed>
  <fix>3d</fix>
</trkpt>
<trkpt lat="-27.2705979" lon="151.299885">
  <ele>548.35</ele>
  <time>2026-09-01T20:00:38Z</time>
  <course>196.6</course>
  <speed>5.56</speed>
  <fix>3d</fix>
</trkpt>
<trkpt lat="-27.2706155" lon="151.299882">
  <ele>548.52</ele>
  <time>2026-09-01T20:00:38Z</time>
  <course>232.86</course>
  <speed>4.140881548656035</speed>
  <fix>3d</fix>
</trkpt>
<trkpt lat="-27.270607" lon="151.2998827">
  <ele>548.42</ele>
  <time>2026-09-01T20:00:38Z</time>
  <course>188.23</course>
  <speed>4.88</speed>
  <fix>3d</fix>
</trkpt>
<trkpt lat="-27.270619" lon="151.2998826">
  <ele>548.6</ele>
  <time>2026-09-01T20:00:38Z</time>
  <course>236.73</course>
  <speed>3.7617549096133307</speed>
  <fix>3d</fix>
</trkpt>
<trkpt lat="-27.270607" lon="151.2998827">
  <ele>548.42</ele>
  <time>2026-09-01T20:00:38Z</time>
  <course>188.23</course>
  <speed>4.88</speed>
  <fix>3d</fix>
</trkpt>
<trkpt lat="-27.2706221" lon="151.2998835">
  <ele>548.7</ele>
  <time>2026-09-01T20:00:38Z</time>
  <course>240.95</course>
  <speed>3.411773732239581</speed>
  <fix>3d</fix>
</trkpt>
<trkpt lat="-27.2706151" lon="151.2998822">
  <ele>548.53</ele>
  <time>2026-09-01T20:00:38Z</time>
  <course>176.27</course>
  <speed>4.13</speed>
  <fix>3d</fix>
</trkpt>
<trkpt lat="-27.2706248" lon="151.299885">
  <ele>548.81</ele>
  <time>2026-09-01T20:00:38Z</time>
  <course>245.25</course>
  <speed>3.100967590930289</speed>
  <fix>3d</fix>
</trkpt>
<trkpt lat="-27.2706151" lon="151.2998822">
  <ele>548.53</ele>
  <time>2026-09-01T20:00:38Z</time>
  <course>176.27</course>
  <speed>4.13</speed>
  <fix>3d</fix>
</trkpt>
<trkpt lat="-27.270627" lon="151.2998867">
  <ele>548.94</ele>
  <time>2026-09-01T20:00:38Z</time>
  <course>249.44</course>
  <speed>2.790877998050076</speed>
  <fix>3d</fix>
</trkpt>
<trkpt lat="-27.2706217" lon="151.2998837">
  <ele>548.69</ele>
  <time>2026-09-01T20:00:38Z</time>
  <course>160.25</course>
  <speed>3.41</speed>
  <fix>3d</fix>
</trkpt>
<trkpt lat="-27.2706287" lon="151.2998883">
  <ele>549.09</ele>
  <time>2026-09-01T20:00:38Z</time>
  <course>253.43</course>
  <speed>2.4324884377936926</speed>
  <fix>3d</fix>
</trkpt>
<trkpt lat="-27.2706217" lon="151.2998837">
  <ele>548.69</ele>
  <time>2026-09-01T20:00:38Z</time>
  <course>160.25</course>
  <speed>3.41</speed>
  <fix>3d</fix>
</trkpt>
<trkpt lat="-27.2706301" lon="151.2998901">
  <ele>549.25</ele>
  <time>2026-09-01T20:00:38Z</time>
  <course>257.33</course>
  <speed>2.0382835916525455</speed>
  <fix>3d</fix>
</trkpt>
<trkpt lat="-27.2706266" lon="151.2998865">
  <ele>548.94</ele>
  <time>2026-09-01T20:00:38Z</time>
  <course>143.89</course>
  <speed>2.76</speed>
  <fix>3d</fix>
</trkpt>
<trkpt lat="-27.270631" lon="151.2998916">
  <ele>549.43</ele>
  <time>2026-09-01T20:00:38Z</time>
  <course>261.07</course>
  <speed>1.6815766411317683</speed>
  <fix>3d</fix>
</trkpt>
<trkpt lat="-27.2706266" lon="151.2998865">
  <ele>548.94</ele>
  <time>2026-09-01T20:00:38Z</time>
  <course>143.89</course>
  <speed>2.76</speed>
  <fix>3d</fix>
</trkpt>
<trkpt lat="-27.2706314" lon="151.2998931">
  <ele>549.63</ele>
  <time>2026-09-01T20:00:38Z</time>
  <course>264.5</course>
  <speed>1.4156623891309679</speed>
  <fix>3d</fix>
</trkpt>
<trkpt lat="-27.2706297" lon="151.2998898">
  <ele>549.25</ele>
  <time>2026-09-01T20:00:38Z</time>
  <course>128.08</course>
  <speed>2.05</speed>
  <fix>3d</fix>
</trkpt>
<trkpt lat="-27.2706315" lon="151.2998944">
  <ele>549.79</ele>
  <time>2026-09-01T20:00:38Z</time>
  <course>267.26</course>
  <speed>1.2317873193047573</speed>
  <fix>3d</fix>
</trkpt>
<trkpt lat="-27.2706297" lon="151.2998898">
  <ele>549.25</ele>
  <time>2026-09-01T20:00:38Z</time>
  <course>128.08</course>
  <speed>2.05</speed>
  <fix>3d</fix>
</trkpt>
<trkpt lat="-27.2706317" lon="151.2998955">
  <ele>549.84</ele>
  <time>2026-09-01T20:00:38Z</time>
  <course>269.33</course>
  <speed>1.0932977636490435</speed>
  <fix>3d</fix>
</trkpt>
<trkpt lat="-27.2706312" lon="151.2998929">
  <ele>549.6</ele>
  <time>2026-09-01T20:00:38Z</time>
  <course>108.98</course>
  <speed>1.45</speed>
  <fix>3d</fix>
</trkpt>
<trkpt lat="-27.2706318" lon="151.2998965">
  <ele>549.8</ele>
  <time>2026-09-01T20:00:38Z</time>
  <course>270.98</course>
  <speed>0.9716480844420988</speed>
  <fix>3d</fix>
</trkpt>
<trkpt lat="-27.2706312" lon="151.2998929">
  <ele>549.6</ele>
  <time>2026-09-01T20:00:38Z</time>
  <course>108.98</course>
  <speed>1.45</speed>
  <fix>3d</fix>
</trkpt>
<trkpt lat="-27.270632" lon="151.2998975">
  <ele>549.66</ele>
  <time>2026-09-01T20:00:38Z</time>
  <course>272.67</course>
  <speed>0.8713208364316786</speed>
  <fix>3d</fix>
</trkpt>
<trkpt lat="-27.2706316" lon="151.2998955">
  <ele>549.79</ele>
  <time>2026-09-01T20:00:38Z</time>
  <course>98.51</course>
  <speed>1.11</speed>
  <fix>3d</fix>
</trkpt>
<trkpt lat="-27.2706321" lon="151.2998984">
  <ele>549.45</ele>
  <time>2026-09-01T20:00:38Z</time>
  <course>274.65</course>
  <speed>0.7694153624668537</speed>
  <fix>3d</fix>
</trkpt>
<trkpt lat="-27.2706316" lon="151.2998955">
  <ele>549.79</ele>
  <time>2026-09-01T20:00:38Z</time>
  <course>98.51</course>
  <speed>1.11</speed>
  <fix>3d</fix>
</trkpt>
<trkpt lat="-27.2706322" lon="151.2998991">
  <ele>549.16</ele>
  <time>2026-09-01T20:00:38Z</time>
  <course>277.13</course>
  <speed>0.6661080993352355</speed>
  <fix>3d</fix>
</trkpt>
<trkpt lat="-27.2706319" lon="151.2998974">
  <ele>549.63</ele>
  <time>2026-09-01T20:00:38Z</time>
  <course>99.2</course>
  <speed>0.88</speed>
  <fix>3d</fix>
</trkpt>
<trkpt lat="-27.2706323" lon="151.2998997">
  <ele>548.82</ele>
  <time>2026-09-01T20:00:38Z</time>
  <course>280.26</course>
  <speed>0.563205113613149</speed>
  <fix>3d</fix>
</trkpt>
<trkpt lat="-27.2706319" lon="151.2998974">
  <ele>549.63</ele>
  <time>2026-09-01T20:00:38Z</time>
  <course>99.2</course>
  <speed>0.88</speed>
  <fix>3d</fix>
</trkpt>
<trkpt lat="-27.2706323" lon="151.2999002">
  <ele>548.41</ele>
  <time>2026-09-01T20:00:38Z</time>
  <course>284.09</course>
  <speed>0.4604345773288535</speed>
  <fix>3d</fix>
</trkpt>
<trkpt lat="-27.2706322" lon="151.2998989">
  <ele>549.15</ele>
  <time>2026-09-01T20:00:38Z</time>
  <course>97.95</course>
  <speed>0.67</speed>
  <fix>3d</fix>
</trkpt>
<trkpt lat="-27.2706323" lon="151.2999007">
  <ele>547.95</ele>
  <time>2026-09-01T20:00:38Z</time>
  <course>288.56</course>
  <speed>0.3605551275463989</speed>
  <fix>3d</fix>
</trkpt>
<trkpt lat="-27.2706322" lon="151.2998989">
  <ele>549.15</ele>
  <time>2026-09-01T20:00:38Z</time>
  <course>97.95</course>
  <speed>0.67</speed>
  <fix>3d</fix>
</trkpt>
<trkpt lat="-27.2706323" lon="151.299901">
  <ele>547.43</ele>
  <time>2026-09-01T20:00:38Z</time>
  <course>293.57</course>
  <speed>0.24041630560342614</speed>
  <fix>3d</fix>
</trkpt>
<trkpt lat="-27.2706323" lon="151.2999001">
  <ele>548.41</ele>
  <time>2026-09-01T20:00:38Z</time>
  <course>92.35</course>
  <speed>0.46</speed>
  <fix>3d</fix>
</trkpt>
<trkpt lat="-27.2706323" lon="151.2999011">
  <ele>546.84</ele>
  <time>2026-09-01T20:00:38Z</time>
  <course>299.07</course>
  <speed>0.15620499351813308</speed>
  <fix>3d</fix>
</trkpt>
<trkpt lat="-27.2706323" lon="151.2999001">
  <ele>548.41</ele>
  <time>2026-09-01T20:00:38Z</time>
  <course>92.35</course>
  <speed>0.46</speed>
  <fix>3d</fix>
</trkpt>
<trkpt lat="-27.2706321" lon="151.2999012">
  <ele>546.18</ele>
  <time>2026-09-01T20:00:38Z</time>
  <course>305.1</course>
  <speed>0.17029386365926402</speed>
  <fix>3d</fix>
</trkpt>
<trkpt lat="-27.2706323" lon="151.2999008">
  <ele>547.42</ele>
  <time>2026-09-01T20:00:38Z</time>
  <course>72.65</course>
  <speed>0.25</speed>
  <fix>3d</fix>
</trkpt>
<trkpt lat="-27.2706319" lon="151.2999008">
  <ele>545.46</ele>
  <time>2026-09-01T20:00:38Z</time>
  <course>312.43</course>
  <speed>0.7392563831310488</speed>
  <fix>3d</fix>
</trkpt>
<trkpt lat="-27.2706323" lon="151.2999008">
  <ele>547.42</ele>
  <time>2026-09-01T20:00:38Z</time>
  <course>72.65</course>
  <speed>0.25</speed>
  <fix>3d</fix>
</trkpt>
<trkpt lat="-27.2706315" lon="151.2998998">
  <ele>544.65</ele>
  <time>2026-09-01T20:00:38Z</time>
  <course>325.21</course>
  <speed>1.3708391590555036</speed>
  <fix>3d</fix>
</trkpt>
<trkpt lat="-27.2706321" lon="151.299901">
  <ele>546.18</ele>
  <time>2026-09-01T20:00:38Z</time>
  <course>314.85</course>
  <speed>0.34</speed>
  <fix>3d</fix>
</trkpt>
<trkpt lat="-27.2706309" lon="151.2998986">
  <ele>543.77</ele>
  <time>2026-09-01T20:00:38Z</time>
  <course>345.19</course>
  <speed>1.5993123522314208</speed>
  <fix>3d</fix>
</trkpt>
<trkpt lat="-27.2706321" lon="151.299901">
  <ele>546.18</ele>
  <time>2026-09-01T20:00:38Z</time>
  <course>314.85</course>
  <speed>0.34</speed>
  <fix>3d</fix>
</trkpt>
<trkpt lat="-27.2706304" lon="151.299897">
  <ele>542.78</ele>
  <time>2026-09-01T20:00:38Z</time>
  <course>2.51</course>
  <speed>1.5616977940690062</speed>
  <fix>3d</fix>
</trkpt>
<trkpt lat="-27.2706314" lon="151.2998998">
  <ele>544.65</ele>
  <time>2026-09-01T20:00:38Z</time>
  <course>295.51</course>
  <speed>1.14</speed>
  <fix>3d</fix>
</trkpt>
<trkpt lat="-27.2706298" lon="151.2998956">
  <ele>541.71</ele>
  <time>2026-09-01T20:00:38Z</time>
  <course>1.59</course>
  <speed>1.5071164520368026</speed>
  <fix>3d</fix>
</trkpt>
<trkpt lat="-27.2706314" lon="151.2998998">
  <ele>544.65</ele>
  <time>2026-09-01T20:00:38Z</time>
  <course>295.51</course>
  <speed>1.14</speed>
  <fix>3d</fix>
</trkpt>
<trkpt lat="-27.2706291" lon="151.2998943">
  <ele>540.54</ele>
  <time>2026-09-01T20:00:38Z</time>
  <course>345.35</course>
  <speed>1.735885940953495</speed>
  <fix>3d</fix>
</trkpt>
<trkpt lat="-27.2706304" lon="151.2998972">
  <ele>542.79</ele>
  <time>2026-09-01T20:00:38Z</time>
  <course>294.78</course>
  <speed>1.55</speed>
  <fix>3d</fix>
</trkpt>
<trkpt lat="-27.2706282" lon="151.2998925">
  <ele>539.31</ele>
  <time>2026-09-01T20:00:38Z</time>
  <course>333.21</course>
  <speed>2.416795398870165</speed>
  <fix>3d</fix>
</trkpt>
<trkpt lat="-27.2706304" lon="151.2998972">
  <ele>542.79</ele>
  <time>2026-09-01T20:00:38Z</time>
  <course>294.78</course>
  <speed>1.55</speed>
  <fix>3d</fix>
</trkpt>
<trkpt lat="-27.2706267" lon="151.2998901">
  <ele>538.0</ele>
  <time>2026-09-01T20:00:38Z</time>
  <course>330.12</course>
  <speed>3.496870029040256</speed>
  <fix>3d</fix>
</trkpt>
<trkpt lat="-27.270629" lon="151.2998941">
  <ele>540.57</ele>
  <time>2026-09-01T20:00:38Z</time>
  <course>299.65</course>
  <speed>1.93</speed>
  <fix>3d</fix>
</trkpt>
<trkpt lat="-27.2706242" lon="151.2998869">
  <ele>536.65</ele>
  <time>2026-09-01T20:00:38Z</time>
  <course>330.58</course>
  <speed>4.737953144555147</speed>
  <fix>3d</fix>
</trkpt>
<trkpt lat="-27.270629" lon="151.2998941">
  <ele>540.57</ele>
  <time>2026-09-01T20:00:38Z</time>
  <course>299.65</course>
  <speed>1.93</speed>
  <fix>3d</fix>
</trkpt>
<trkpt lat="-27.2706205" lon="151.2998835">
  <ele>535.26</ele>
  <time>2026-09-01T20:00:38Z</time>
  <course>330.85</course>
  <speed>5.934323887352291</speed>
  <fix>3d</fix>
</trkpt>
<trkpt lat="-27.2706262" lon="151.2998898">
  <ele>538.05</ele>
  <time>2026-09-01T20:00:38Z</time>
  <course>310.69</course>
  <speed>3.5</speed>
  <fix>3d</fix>
</trkpt>
<trkpt lat="-27.2706157" lon="151.2998797">
  <ele>533.85</ele>
  <time>2026-09-01T20:00:38Z</time>
  <course>330.34</course>
  <speed>7.046928408888514</speed>
  <fix>3d</fix>
</trkpt>
<trkpt lat="-27.2706262" lon="151.2998898">
  <ele>538.05</ele>
  <time>2026-09-01T20:00:38Z</time>
  <course>310.69</course>
  <speed>3.5</speed>
  <fix>3d</fix>
</trkpt>
<trkpt lat="-27.2706098" lon="151.2998759">
  <ele>532.41</ele>
  <time>2026-09-01T20:00:38Z</time>
  <course>329.58</course>
  <speed>8.171615507352264</speed>
  <fix>3d</fix>
</trkpt>
<trkpt lat="-27.2706201" lon="151.2998835">
  <ele>535.32</ele>
  <time>2026-09-01T20:00:38Z</time>
  <course>322.58</course>
  <speed>5.79</speed>
  <fix>3d</fix>
</trkpt>
<trkpt lat="-27.2706028" lon="151.2998716">
  <ele>530.97</ele>
  <time>2026-09-01T20:00:38Z</time>
  <course>328.73</course>
  <speed>9.4183703473584</speed>
  <fix>3d</fix>
</trkpt>
<trkpt lat="-27.2706201" lon="151.2998835">
  <ele>535.32</ele>
  <time>2026-09-01T20:00:38Z</time>
  <course>322.58</course>
  <speed>5.79</speed>
  <fix>3d</fix>
</trkpt>
<trkpt lat="-27.2705947" lon="151.2998672">
  <ele>529.54</ele>
  <time>2026-09-01T20:00:38Z</time>
  <course>327.8</course>
  <speed>10.795744531990373</speed>
  <fix>3d</fix>
</trkpt>
<trkpt lat="-27.2706096" lon="151.2998759">
  <ele>532.49</ele>
  <time>2026-09-01T20:00:38Z</time>
  <course>330.73</course>
  <speed>8.15</speed>
  <fix>3d</fix>
</trkpt>
<trkpt lat="-27.2705855" lon="151.2998619">
  <ele>528.18</ele>
  <time>2026-09-01T20:00:38Z</time>
  <course>326.99</course>
  <speed>12.168237341538008</speed>
  <fix>3d</fix>
</trkpt>
<trkpt lat="-27.2706096" lon="151.2998759">
  <ele>532.49</ele>
  <time>2026-09-01T20:00:38Z</time>
  <course>330.73</course>
  <speed>8.15</speed>
  <fix>3d</fix>
</trkpt>
<trkpt lat="-27.2705755" lon="151.2998556">
  <ele>526.86</ele>
  <time>2026-09-01T20:00:38Z</time>
  <course>326.45</course>
  <speed>13.426004617904761</speed>
  <fix>3d</fix>
</trkpt>
<trkpt lat="-27.2705946" lon="151.299867">
  <ele>529.65</ele>
  <time>2026-09-01T20:00:38Z</time>
  <course>332.54</course>
  <speed>10.72</speed>
  <fix>3d</fix>
</trkpt>
<trkpt lat="-27.2705647" lon="151.2998481">
  <ele>525.62</ele>
  <time>2026-09-01T20:00:38Z</time>
  <course>326.11</course>
  <speed>14.547044373342649</speed>
  <fix>3d</fix>
</trkpt>
<trkpt lat="-27.2705946" lon="151.299867">
  <ele>529.65</ele>
  <time>2026-09-01T20:00:38Z</time>
  <course>332.54</course>
  <speed>10.72</speed>
  <fix>3d</fix>
</trkpt>
<trkpt lat="-27.2705534" lon="151.2998397">
  <ele>524.45</ele>
  <time>2026-09-01T20:00:38Z</time>
  <course>325.91</course>
  <speed>15.602724121127054</speed>
  <fix>3d</fix>
</trkpt>
<trkpt lat="-27.2705756" lon="151.2998553">
  <ele>526.96</ele>
  <time>2026-09-01T20:00:38Z</time>
  <course>329.59</course>
  <speed>13.29</speed>
  <fix>3d</fix>
</trkpt>
<trkpt lat="-27.2705416" lon="151.2998303">
  <ele>523.38</ele>
  <time>2026-09-01T20:00:38Z</time>
  <course>325.87</course>
  <speed>16.586500535073696</speed>
  <fix>3d</fix>
</trkpt>
<trkpt lat="-27.2705756" lon="151.2998553">
  <ele>526.96</ele>
  <time>2026-09-01T20:00:38Z</time>
  <course>329.59</course>
  <speed>13.29</speed>
  <fix>3d</fix>
</trkpt>
<trkpt lat="-27.2705293" lon="151.2998202">
  <ele>522.44</ele>
  <time>2026-09-01T20:00:38Z</time>
  <course>325.98</course>
  <speed>17.460827586343093</speed>
  <fix>3d</fix>
</trkpt>
<trkpt lat="-27.2705537" lon="151.2998397">
  <ele>524.56</ele>
  <time>2026-09-01T20:00:38Z</time>
  <course>325.74</course>
  <speed>15.51</speed>
  <fix>3d</fix>
</trkpt>
<trkpt lat="-27.2705164" lon="151.2998094">
  <ele>521.62</ele>
  <time>2026-09-01T20:00:38Z</time>
  <course>326.2</course>
  <speed>18.158347942475384</speed>
  <fix>3d</fix>
</trkpt>
<trkpt lat="-27.2705537" lon="151.2998397">
  <ele>524.56</ele>
  <time>2026-09-01T20:00:38Z</time>
  <course>325.74</course>
  <speed>15.51</speed>
  <fix>3d</fix>
</trkpt>
<trkpt lat="-27.2705029" lon="151.2997987">
  <ele>520.94</ele>
  <time>2026-09-01T20:00:38Z</time>
  <course>326.49</course>
  <speed>18.667838653684576</speed>
  <fix>3d</fix>
</trkpt>
<trkpt lat="-27.2705295" lon="151.2998204">
  <ele>522.55</ele>
  <time>2026-09-01T20:00:38Z</time>
  <course>324.08</course>
  <speed>17.33</speed>
  <fix>3d</fix>
</trkpt>
<trkpt lat="-27.2704889" lon="151.2997878">
  <ele>520.4</ele>
  <time>2026-09-01T20:00:38Z</time>
  <course>326.78</course>
  <speed>18.990242231209162</speed>
  <fix>3d</fix>
</trkpt>
<trkpt lat="-27.2705295" lon="151.2998204">
  <ele>522.55</ele>
  <time>2026-09-01T20:00:38Z</time>
  <course>324.08</course>
  <speed>17.33</speed>
  <fix>3d</fix>
</trkpt>
<trkpt lat="-27.2704746" lon="151.2997773">
  <ele>519.98</ele>
  <time>2026-09-01T20:00:38Z</time>
  <course>326.93</course>
  <speed>19.145223947501893</speed>
  <fix>3d</fix>
</trkpt>
<trkpt lat="-27.2705033" lon="151.2997993">
  <ele>521.03</ele>
  <time>2026-09-01T20:00:38Z</time>
  <course>325.07</course>
  <speed>18.55</speed>
  <fix>3d</fix>
</trkpt>
<trkpt lat="-27.2704601" lon="151.299767">
  <ele>519.66</ele>
  <time>2026-09-01T20:00:38Z</time>
  <course>326.95</course>
  <speed>19.159462414170186</speed>
  <fix>3d</fix>
</trkpt>
<trkpt lat="-27.2705033" lon="151.2997993">
  <ele>521.03</ele>
  <time>2026-09-01T20:00:38Z</time>
  <course>325.07</course>
  <speed>18.55</speed>
  <fix>3d</fix>
</trkpt>
<trkpt lat="-27.2704454" lon="151.2997567">
  <ele>519.41</ele>
  <time>2026-09-01T20:00:38Z</time>
  <course>326.96</course>
  <speed>19.102696144785426</speed>
  <fix>3d</fix>
</trkpt>
<trkpt lat="-27.2704752" lon="151.299778">
  <ele>520.05</ele>
  <time>2026-09-01T20:00:38Z</time>
  <course>327.02</course>
  <speed>19.07</speed>
  <fix>3d</fix>
</trkpt>
<trkpt lat="-27.2704309" lon="151.2997466">
  <ele>519.21</ele>
  <time>2026-09-01T20:00:38Z</time>
  <course>327.11</course>
  <speed>18.995957464681794</speed>
  <fix>3d</fix>
</trkpt>
<trkpt lat="-27.2704752" lon="151.299778">
  <ele>520.05</ele>
  <time>2026-09-01T20:00:38Z</time>
  <course>327.02</course>
  <speed>19.07</speed>
  <fix>3d</fix>
</trkpt>
<trkpt lat="-27.2704164" lon="151.2997366">
  <ele>519.03</ele>
  <time>2026-09-01T20:00:38Z</time>
  <course>327.4</course>
  <speed>18.876043017539455</speed>
  <fix>3d</fix>
</trkpt>
<trkpt lat="-27.2704462" lon="151.2997573">
  <ele>519.44</ele>
  <time>2026-09-01T20:00:38Z</time>
  <course>328.24</course>
  <speed>19.08</speed>
  <fix>3d</fix>
</trkpt>
<trkpt lat="-27.270402" lon="151.2997268">
  <ele>518.86</ele>
  <time>2026-09-01T20:00:38Z</time>
  <course>327.79</course>
  <speed>18.74108054515534</speed>
  <fix>3d</fix>
</trkpt>
<trkpt lat="-27.2704462" lon="151.2997573">
  <ele>519.44</ele>
  <time>2026-09-01T20:00:38Z</time>
  <course>328.24</course>
  <speed>19.08</speed>
  <fix>3d</fix>
</trkpt>
<trkpt lat="-27.2703876" lon="151.2997168">
  <ele>518.7</ele>
  <time>2026-09-01T20:00:38Z</time>
  <course>328.16</course>
  <speed>18.61679349404725</speed>
  <fix>3d</fix>
</trkpt>
<trkpt lat="-27.2704171" lon="151.2997372">
  <ele>519.04</ele>
  <time>2026-09-01T20:00:38Z</time>
  <course>328.42</course>
  <speed>18.88</speed>
  <fix>3d</fix>
</trkpt>
<trkpt lat="-27.2703736" lon="151.2997069">
  <ele>518.53</ele>
  <time>2026-09-01T20:00:38Z</time>
  <course>328.44</course>
  <speed>18.490603018830942</speed>
  <fix>3d</fix>
</trkpt>
<trkpt lat="-27.2704171" lon="151.2997372">
  <ele>519.04</ele>
  <time>2026-09-01T20:00:38Z</time>
  <course>328.42</course>
  <speed>18.88</speed>
  <fix>3d</fix>
</trkpt>
<trkpt lat="-27.2703594" lon="151.2996968">
  <ele>518.37</ele>
  <time>2026-09-01T20:00:38Z</time>
  <course>328.62</course>
  <speed>18.36766724437265</speed>
  <fix>3d</fix>
</trkpt>
<trkpt lat="-27.2703885" lon="151.2997173">
  <ele>518.7</ele>
  <time>2026-09-01T20:00:38Z</time>
  <course>328.16</course>
  <speed>18.63</speed>
  <fix>3d</fix>
</trkpt>
<trkpt lat="-27.2703455" lon="151.2996871">
  <ele>518.2</ele>
  <time>2026-09-01T20:00:38Z</time>
  <course>328.65</course>
  <speed>18.237285982294626</speed>
  <fix>3d</fix>
</trkpt>
<trkpt lat="-27.2703885" lon="151.2997173">
  <ele>518.7</ele>
  <time>2026-09-01T20:00:38Z</time>
  <course>328.16</course>
  <speed>18.63</speed>
  <fix>3d</fix>
</trkpt>
<trkpt lat="-27.2703316" lon="151.2996774">
  <ele>518.04</ele>
  <time>2026-09-01T20:00:38Z</time>
  <course>328.58</course>
  <speed>18.118545747382708</speed>
  <fix>3d</fix>
</trkpt>
<trkpt lat="-27.2703603" lon="151.2996975">
  <ele>518.37</ele>
  <time>2026-09-01T20:00:38Z</time>
  <course>327.95</course>
  <speed>18.37</speed>
  <fix>3d</fix>
</trkpt>
<trkpt lat="-27.2703179" lon="151.2996676">
  <ele>517.88</ele>
  <time>2026-09-01T20:00:38Z</time>
  <course>328.44</course>
  <speed>17.997735968726733</speed>
  <fix>3d</fix>
</trkpt>
<trkpt lat="-27.2703603" lon="151.2996975">
  <ele>518.37</ele>
  <time>2026-09-01T20:00:38Z</time>
  <course>327.95</course>
  <speed>18.37</speed>
  <fix>3d</fix>
</trkpt>
<trkpt lat="-27.2703042" lon="151.299658">
  <ele>517.72</ele>
  <time>2026-09-01T20:00:38Z</time>
  <course>328.29</course>
  <speed>17.885530464596233</speed>
  <fix>3d</fix>
</trkpt>
<trkpt lat="-27.2703325" lon="151.2996779">
  <ele>518.05</ele>
  <time>2026-09-01T20:00:38Z</time>
  <course>328.0</course>
  <speed>18.13</speed>
  <fix>3d</fix>
</trkpt>
<trkpt lat="-27.2702906" lon="151.2996487">
  <ele>517.56</ele>
  <time>2026-09-01T20:00:38Z</time>
  <course>328.18</course>
  <speed>17.773454925815635</speed>
  <fix>3d</fix>
</trkpt>
<trkpt lat="-27.2703325" lon="151.2996779">
  <ele>518.05</ele>
  <time>2026-09-01T20:00:38Z</time>
  <course>328.0</course>
  <speed>18.13</speed>
  <fix>3d</fix>
</trkpt>
<trkpt lat="-27.270277" lon="151.2996393">
  <ele>517.41</ele>
  <time>2026-09-01T20:00:38Z</time>
  <course>328.13</course>
  <speed>17.65819922868694</speed>
  <fix>3d</fix>
</trkpt>
<trkpt lat="-27.2703049" lon="151.2996587">
  <ele>517.72</ele>
  <time>2026-09-01T20:00:38Z</time>
  <course>328.24</course>
  <speed>17.89</speed>
  <fix>3d</fix>
</trkpt>
<trkpt lat="-27.2685266" lon="151.303707">
  <ele>541.23</ele>
  <time>2026-09-01T20:00:38Z</time>
  <course>250.22</course>
  <speed>12.237601889259185</speed>
  <fix>3d</fix>
</trkpt>
<trkpt lat="-27.2703049" lon="151.2996587">
  <ele>517.72</ele>
  <time>2026-09-01T20:00:38Z</time>
  <course>328.24</course>
  <speed>17.89</speed>
  <fix>3d</fix>
</trkpt>
<trkpt lat="-27.2685292" lon="151.3036956">
  <ele>537.4</ele>
  <time>2026-09-01T20:00:38Z</time>
  <course>246.13</course>
  <speed>11.540017331009517</speed>
  <fix>3d</fix>
</trkpt>
<trkpt lat="-27.2694088" lon="151.3016784">
  <ele>529.49</ele>
  <time>2026-09-01T20:00:38Z</time>
  <course>298.77</course>
  <speed>12.07</speed>
  <fix>3d</fix>
</trkpt>
<trkpt lat="-27.2685327" lon="151.303684">
  <ele>533.58</ele>
  <time>2026-09-01T20:00:38Z</time>
  <course>230.66</course>
  <speed>12.79953514780908</speed>
  <fix>3d</fix>
</trkpt>
<trkpt lat="-27.2694088" lon="151.3016784">
  <ele>529.49</ele>
  <time>2026-09-01T20:00:38Z</time>
  <course>298.77</course>
  <speed>12.07</speed>
  <fix>3d</fix>
</trkpt>
<trkpt lat="-27.2685397" lon="151.3036727">
  <ele>529.83</ele>
  <time>2026-09-01T20:00:38Z</time>
  <course>210.87</course>
  <speed>14.376108652900477</speed>
  <fix>3d</fix>
</trkpt>
<trkpt lat="-27.2685295" lon="151.3036961">
  <ele>537.59</ele>
  <time>2026-09-01T20:00:38Z</time>
  <course>249.59</course>
  <speed>12.51</speed>
  <fix>3d</fix>
</trkpt>
<trkpt lat="-27.2685503" lon="151.303664">
  <ele>526.13</ele>
  <time>2026-09-01T20:00:38Z</time>
  <course>192.82</course>
  <speed>15.062941279843058</speed>
  <fix>3d</fix>
</trkpt>
<trkpt lat="-27.2685295" lon="151.3036961">
  <ele>537.59</ele>
  <time>2026-09-01T20:00:38Z</time>
  <course>249.59</course>
  <speed>12.51</speed>
  <fix>3d</fix>
</trkpt>
<trkpt lat="-27.2685629" lon="151.3036583">
  <ele>522.46</ele>
  <time>2026-09-01T20:00:38Z</time>
  <course>181.96</course>
  <speed>14.97827760458458</speed>
  <fix>3d</fix>
</trkpt>
<trkpt lat="-27.2685411" lon="151.3036744">
  <ele>530.04</ele>
  <time>2026-09-01T20:00:38Z</time>
  <course>225.77</course>
  <speed>13.17</speed>
  <fix>3d</fix>
</trkpt>
<trkpt lat="-27.2685759" lon="151.3036526">
  <ele>518.83</ele>
  <time>2026-09-01T20:00:38Z</time>
  <course>198.88</course>
  <speed>17.429429135803616</speed>
  <fix>3d</fix>
</trkpt>
<trkpt lat="-27.2685411" lon="151.3036744">
  <ele>530.04</ele>
  <time>2026-09-01T20:00:38Z</time>
  <course>225.77</course>
  <speed>13.17</speed>
  <fix>3d</fix>
</trkpt>
<trkpt lat="-27.268591" lon="151.3036401">
  <ele>515.54</ele>
  <time>2026-09-01T20:00:38Z</time>
  <course>212.78</course>
  <speed>24.726797204652286</speed>
  <fix>3d</fix>
</trkpt>
<trkpt lat="-27.2685624" lon="151.3036586">
  <ele>522.65</ele>
  <time>2026-09-01T20:00:38Z</time>
  <course>208.17</course>
  <speed>16.09</speed>
  <fix>3d</fix>
</trkpt>
<trkpt lat="-27.2686091" lon="151.3036201">
  <ele>512.97</ele>
  <time>2026-09-01T20:00:38Z</time>
  <course>221.02</course>
  <speed>31.23045949069594</speed>
  <fix>3d</fix>
</trkpt>
<trkpt lat="-27.2685624" lon="151.3036586">
  <ele>522.65</ele>
  <time>2026-09-01T20:00:38Z</time>
  <course>208.17</course>
  <speed>16.09</speed>
  <fix>3d</fix>
</trkpt>
<trkpt lat="-27.2686295" lon="151.3035957">
  <ele>511.31</ele>
  <time>2026-09-01T20:00:38Z</time>
  <course>225.88</course>
  <speed>34.74222790783573</speed>
  <fix>3d</fix>
</trkpt>
<trkpt lat="-27.2685916" lon="151.3036372">
  <ele>516.04</ele>
  <time>2026-09-01T20:00:38Z</time>
  <course>219.35</course>
  <speed>23.78</speed>
  <fix>3d</fix>
</trkpt>
<trkpt lat="-27.2686506" lon="151.3035691">
  <ele>510.67</ele>
  <time>2026-09-01T20:00:38Z</time>
  <course>228.09</course>
  <speed>35.239733256652215</speed>
  <fix>3d</fix>
</trkpt>
<trkpt lat="-27.2685916" lon="151.3036372">
  <ele>516.04</ele>
  <time>2026-09-01T20:00:38Z</time>
  <course>219.35</course>
  <speed>23.78</speed>
  <fix>3d</fix>
</trkpt>
<trkpt lat="-27.2686708" lon="151.3035433">
  <ele>511.11</ele>
  <time>2026-09-01T20:00:38Z</time>
  <course>228.3</course>
  <speed>32.25496085875783</speed>
  <fix>3d</fix>
</trkpt>
<trkpt lat="-27.2686288" lon="151.3035958">
  <ele>511.88</ele>
  <time>2026-09-01T20:00:38Z</time>
  <course>227.28</course>
  <speed>33.13</speed>
  <fix>3d</fix>
</trkpt>
<trkpt lat="-27.2686886" lon="151.303521">
  <ele>512.43</ele>
  <time>2026-09-01T20:00:38Z</time>
  <course>227.23</course>
  <speed>27.023460178148913</speed>
  <fix>3d</fix>
</trkpt>
<trkpt lat="-27.2686288" lon="151.3035958">
  <ele>511.88</ele>
  <time>2026-09-01T20:00:38Z</time>
  <course>227.28</course>
  <speed>33.13</speed>
  <fix>3d</fix>
</trkpt>
<trkpt lat="-27.2687034" lon="151.3035033">
  <ele>514.36</ele>
  <time>2026-09-01T20:00:38Z</time>
  <course>225.5</course>
  <speed>21.061101585624623</speed>
  <fix>3d</fix>
</trkpt>
<trkpt lat="-27.2686687" lon="151.3035461">
  <ele>511.51</ele>
  <time>2026-09-01T20:00:38Z</time>
  <course>228.11</course>
  <speed>31.31</speed>
  <fix>3d</fix>
</trkpt>
<trkpt lat="-27.2687149" lon="151.3034902">
  <ele>516.65</ele>
  <time>2026-09-01T20:00:38Z</time>
  <course>224.12</course>
  <speed>15.422130203055609</speed>
  <fix>3d</fix>
</trkpt>
<trkpt lat="-27.2686687" lon="151.3035461">
  <ele>511.51</ele>
  <time>2026-09-01T20:00:38Z</time>
  <course>228.11</course>
  <speed>31.31</speed>
  <fix>3d</fix>
</trkpt>
<trkpt lat="-27.2687232" lon="151.303481">
  <ele>519.08</ele>
  <time>2026-09-01T20:00:38Z</time>
  <course>223.53</course>
  <speed>10.735222401049734</speed>
  <fix>3d</fix>
</trkpt>
<trkpt lat="-27.2687011" lon="151.3035064">
  <ele>514.44</ele>
  <time>2026-09-01T20:00:38Z</time>
  <course>226.56</course>
  <speed>21.49</speed>
  <fix>3d</fix>
</trkpt>
<trkpt lat="-27.2687287" lon="151.303475">
  <ele>521.54</ele>
  <time>2026-09-01T20:00:38Z</time>
  <course>224.44</course>
  <speed>6.463203540041116</speed>
  <fix>3d</fix>
</trkpt>
<trkpt lat="-27.2687011" lon="151.3035064">
  <ele>514.44</ele>
  <time>2026-09-01T20:00:38Z</time>
  <course>226.56</course>
  <speed>21.49</speed>
  <fix>3d</fix>
</trkpt>
<trkpt lat="-27.2687316" lon="151.3034717">
  <ele>523.95</ele>
  <time>2026-09-01T20:00:38Z</time>
  <course>236.76</course>
  <speed>2.7413317931253776</speed>
  <fix>3d</fix>
</trkpt>
<trkpt lat="-27.2687214" lon="151.3034829">
  <ele>518.97</ele>
  <time>2026-09-01T20:00:38Z</time>
  <course>224.68</course>
  <speed>11.18</speed>
  <fix>3d</fix>
</trkpt>
<trkpt lat="-27.2687321" lon="151.3034707">
  <ele>526.26</ele>
  <time>2026-09-01T20:00:38Z</time>
  <course>39.64</course>
  <speed>0.5758472019555188</speed>
  <fix>3d</fix>
</trkpt>
<trkpt lat="-27.2687214" lon="151.3034829">
  <ele>518.97</ele>
  <time>2026-09-01T20:00:38Z</time>
  <course>224.68</course>
  <speed>11.18</speed>
  <fix>3d</fix>
</trkpt>
<trkpt lat="-27.2687308" lon="151.3034726">
  <ele>528.41</ele>
  <time>2026-09-01T20:00:38Z</time>
  <course>58.51</course>
  <speed>4.390375838125935</speed>
  <fix>3d</fix>
</trkpt>
<trkpt lat="-27.2687303" lon="151.3034729">
  <ele>523.79</ele>
  <time>2026-09-01T20:00:38Z</time>
  <course>226.7</course>
  <speed>3.15</speed>
  <fix>3d</fix>
</trkpt>
<trkpt lat="-27.2687287" lon="151.3034782">
  <ele>530.33</ele>
  <time>2026-09-01T20:00:38Z</time>
  <course>73.1</course>
  <speed>7.3905886098469855</speed>
  <fix>3d</fix>
</trkpt>
<trkpt lat="-27.2687303" lon="151.3034729">
  <ele>523.79</ele>
  <time>2026-09-01T20:00:38Z</time>
  <course>226.7</course>
  <speed>3.15</speed>
  <fix>3d</fix>
</trkpt>
<trkpt lat="-27.2687273" lon="151.3034864">
  <ele>532.03</ele>
  <time>2026-09-01T20:00:38Z</time>
  <course>84.48</course>
  <speed>8.937947191609492</speed>
  <fix>3d</fix>
</trkpt>
<trkpt lat="-27.2687304" lon="151.3034743">
  <ele>528.2</ele>
  <time>2026-09-01T20:00:38Z</time>
  <course>69.79</course>
  <speed>3.76</speed>
  <fix>3d</fix>
</trkpt>
<trkpt lat="-27.2687268" lon="151.3034959">
  <ele>533.53</ele>
  <time>2026-09-01T20:00:38Z</time>
  <course>95.29</course>
  <speed>9.670625626090589</speed>
  <fix>3d</fix>
</trkpt>
<trkpt lat="-27.2687304" lon="151.3034743">
  <ele>528.2</ele>
  <time>2026-09-01T20:00:38Z</time>
  <course>69.79</course>
  <speed>3.76</speed>
  <fix>3d</fix>
</trkpt>
<trkpt lat="-27.2687276" lon="151.3035057">
  <ele>534.87</ele>
  <time>2026-09-01T20:00:38Z</time>
  <course>106.0</course>
  <speed>10.006123125366788</speed>
  <fix>3d</fix>
</trkpt>
<trkpt lat="-27.2687278" lon="151.3034866">
  <ele>531.85</ele>
  <time>2026-09-01T20:00:38Z</time>
  <course>82.79</course>
  <speed>8.38</speed>
  <fix>3d</fix>
</trkpt>
<trkpt lat="-27.2687295" lon="151.3035157">
  <ele>536.07</ele>
  <time>2026-09-01T20:00:38Z</time>
  <course>115.76</course>
  <speed>10.054854548923123</speed>
  <fix>3d</fix>
</trkpt>
<trkpt lat="-27.2687278" lon="151.3034866">
  <ele>531.85</ele>
  <time>2026-09-01T20:00:38Z</time>
  <course>82.79</course>
  <speed>8.38</speed>
  <fix>3d</fix>
</trkpt>
<trkpt lat="-27.2687328" lon="151.3035251">
  <ele>537.15</ele>
  <time>2026-09-01T20:00:38Z</time>
  <course>123.29</course>
  <speed>9.853288791058546</speed>
  <fix>3d</fix>
</trkpt>
<trkpt lat="-27.2687281" lon="151.3035052">
  <ele>534.74</ele>
  <time>2026-09-01T20:00:38Z</time>
  <course>98.78</course>
  <speed>9.75</speed>
  <fix>3d</fix>
</trkpt>
<trkpt lat="-27.2687371" lon="151.3035335">
  <ele>538.14</ele>
  <time>2026-09-01T20:00:38Z</time>
  <course>126.14</course>
  <speed>9.495793805680492</speed>
  <fix>3d</fix>
</trkpt>
<trkpt lat="-27.2687281" lon="151.3035052">
  <ele>534.74</ele>
  <time>2026-09-01T20:00:38Z</time>
  <course>98.78</course>
  <speed>9.75</speed>
  <fix>3d</fix>
</trkpt>
<trkpt lat="-27.2687418" lon="151.3035413">
  <ele>539.04</ele>
  <time>2026-09-01T20:00:38Z</time>
  <course>123.79</course>
  <speed>9.120087718876393</speed>
  <fix>3d</fix>
</trkpt>
<trkpt lat="-27.2687331" lon="151.3035242">
  <ele>537.05</ele>
  <time>2026-09-01T20:00:38Z</time>
  <course>114.33</course>
  <speed>9.7</speed>
  <fix>3d</fix>
</trkpt>
<trkpt lat="-27.2687467" lon="151.3035485">
  <ele>539.87</ele>
  <time>2026-09-01T20:00:38Z</time>
  <course>119.45</course>
  <speed>8.875866154916938</speed>
  <fix>3d</fix>
</trkpt>
<trkpt lat="-27.2687331" lon="151.3035242">
  <ele>537.05</ele>
  <time>2026-09-01T20:00:38Z</time>
  <course>114.33</course>
  <speed>9.7</speed>
  <fix>3d</fix>
</trkpt>
<trkpt lat="-27.2687516" lon="151.3035554">
  <ele>540.6</ele>
  <time>2026-09-01T20:00:38Z</time>
  <course>116.37</course>
  <speed>8.785493725454478</speed>
  <fix>3d</fix>
</trkpt>
<trkpt lat="-27.2687416" lon="151.3035406">
  <ele>538.96</ele>
  <time>2026-09-01T20:00:38Z</time>
  <course>125.0</course>
  <speed>9.19</speed>
  <fix>3d</fix>
</trkpt>
<trkpt lat="-27.2687565" lon="151.3035626">
  <ele>541.23</ele>
  <time>2026-09-01T20:00:38Z</time>
  <course>115.63</course>
  <speed>8.786546534333043</speed>
  <fix>3d</fix>
</trkpt>
<trkpt lat="-27.2687416" lon="151.3035406">
  <ele>538.96</ele>
  <time>2026-09-01T20:00:38Z</time>
  <course>125.0</course>
  <speed>9.19</speed>
  <fix>3d</fix>
</trkpt>
<trkpt lat="-27.2687613" lon="151.3035696">
  <ele>541.74</ele>
  <time>2026-09-01T20:00:38Z</time>
  <course>117.05</course>
  <speed>8.80014204430815</speed>
  <fix>3d</fix>
</trkpt>
<trkpt lat="-27.2687513" lon="151.3035552">
  <ele>540.51</ele>
  <time>2026-09-01T20:00:38Z</time>
  <course>127.77</course>
  <speed>8.84</speed>
  <fix>3d</fix>
</trkpt>
<trkpt lat="-27.268766" lon="151.3035766">
  <ele>542.14</ele>
  <time>2026-09-01T20:00:38Z</time>
  <course>120.2</course>
  <speed>8.802073619324029</speed>
  <fix>3d</fix>
</trkpt>
<trkpt lat="-27.2687513" lon="151.3035552">
  <ele>540.51</ele>
  <time>2026-09-01T20:00:38Z</time>
  <course>127.77</course>
  <speed>8.84</speed>
  <fix>3d</fix>
</trkpt>
<trkpt lat="-27.2687708" lon="151.3035837">
  <ele>542.43</ele>
  <time>2026-09-01T20:00:38Z</time>
  <course>124.74</course>
  <speed>8.790278721405823</speed>
  <fix>3d</fix>
</trkpt>
<trkpt lat="-27.268761" lon="151.3035693">
  <ele>541.66</ele>
  <time>2026-09-01T20:00:38Z</time>
  <course>127.31</course>
  <speed>8.79</speed>
  <fix>3d</fix>
</trkpt>
<trkpt lat="-27.2687756" lon="151.3035909">
  <ele>542.6</ele>
  <time>2026-09-01T20:00:38Z</time>
  <course>130.33</course>
  <speed>8.773214918147167</speed>
  <fix>3d</fix>
</trkpt>
<trkpt lat="-27.268761" lon="151.3035693">
  <ele>541.66</ele>
  <time>2026-09-01T20:00:38Z</time>
  <course>127.31</course>
  <speed>8.79</speed>
  <fix>3d</fix>
</trkpt>
<trkpt lat="-27.2687805" lon="151.3035978">
  <ele>542.66</ele>
  <time>2026-09-01T20:00:38Z</time>
  <course>136.17</course>
  <speed>8.727021255846694</speed>
  <fix>3d</fix>
</trkpt>
<trkpt lat="-27.2687705" lon="151.3035834">
  <ele>542.35</ele>
  <time>2026-09-01T20:00:38Z</time>
  <course>127.45</course>
  <speed>8.79</speed>
  <fix>3d</fix>
</trkpt>
<trkpt lat="-27.2687855" lon="151.3036046">
  <ele>542.6</ele>
  <time>2026-09-01T20:00:38Z</time>
  <course>140.69</course>
  <speed>8.673292339129357</speed>
  <fix>3d</fix>
</trkpt>
<trkpt lat="-27.2687705" lon="151.3035834">
  <ele>542.35</ele>
  <time>2026-09-01T20:00:38Z</time>
  <course>127.45</course>
  <speed>8.79</speed>
  <fix>3d</fix>
</trkpt>
<trkpt lat="-27.2687905" lon="151.3036112">
  <ele>542.43</ele>
  <time>2026-09-01T20:00:38Z</time>
  <course>142.85</course>
  <speed>8.60480098549641</speed>
  <fix>3d</fix>
</trkpt>
<trkpt lat="-27.2687803" lon="151.3035974">
  <ele>542.59</ele>
  <time>2026-09-01T20:00:38Z</time>
  <course>128.9</course>
  <speed>8.73</speed>
  <fix>3d</fix>
</trkpt>
<trkpt lat="-27.2687956" lon="151.3036177">
  <ele>542.16</ele>
  <time>2026-09-01T20:00:38Z</time>
  <course>142.76</course>
  <speed>8.575616595907258</speed>
  <fix>3d</fix>
</trkpt>
<trkpt lat="-27.2687803" lon="151.3035974">
  <ele>542.59</ele>
  <time>2026-09-01T20:00:38Z</time>
  <course>128.9</course>
  <speed>8.73</speed>
  <fix>3d</fix>
</trkpt>
<trkpt lat="-27.2688006" lon="151.3036244">
  <ele>541.82</ele>
  <time>2026-09-01T20:00:38Z</time>
  <course>141.15</course>
  <speed>8.610511018516846</speed>
  <fix>3d</fix>
</trkpt>
<trkpt lat="-27.2687902" lon="151.3036108">
  <ele>542.39</ele>
  <time>2026-09-01T20:00:38Z</time>
  <course>130.56</course>
  <speed>8.63</speed>
  <fix>3d</fix>
</trkpt>
<trkpt lat="-27.2688055" lon="151.3036311">
  <ele>541.43</ele>
  <time>2026-09-01T20:00:38Z</time>
  <course>138.99</course>
  <speed>8.749537130614396</speed>
  <fix>3d</fix>
</trkpt>
<trkpt lat="-27.2687902" lon="151.3036108">
  <ele>542.39</ele>
  <time>2026-09-01T20:00:38Z</time>
  <course>130.56</course>
  <speed>8.63</speed>
  <fix>3d</fix>
</trkpt>
<trkpt lat="-27.2688103" lon="151.3036383">
  <ele>541.01</ele>
  <time>2026-09-01T20:00:38Z</time>
  <course>136.94</course>
  <speed>8.993152950995553</speed>
  <fix>3d</fix>
</trkpt>
<trkpt lat="-27.2688003" lon="151.3036241">
  <ele>541.81</ele>
  <time>2026-09-01T20:00:38Z</time>
  <course>129.56</course>
  <speed>8.66</speed>
  <fix>3d</fix>
</trkpt>
<trkpt lat="-27.268815" lon="151.3036459">
  <ele>540.59</ele>
  <time>2026-09-01T20:00:38Z</time>
  <course>135.09</course>
  <speed>9.276233071673005</speed>
  <fix>3d</fix>
</trkpt>
<trkpt lat="-27.2688003" lon="151.3036241">
  <ele>541.81</ele>
  <time>2026-09-01T20:00:38Z</time>
  <course>129.56</course>
  <speed>8.66</speed>
  <fix>3d</fix>
</trkpt>
<trkpt lat="-27.2688199" lon="151.3036536">
  <ele>540.16</ele>
  <time>2026-09-01T20:00:38Z</time>
  <course>133.1</course>
  <speed>9.558932994848327</speed>
  <fix>3d</fix>
</trkpt>
<trkpt lat="-27.2688101" lon="151.3036382">
  <ele>541.03</ele>
  <time>2026-09-01T20:00:38Z</time>
  <course>126.38</course>
  <speed>9.01</speed>
  <fix>3d</fix>
</trkpt>
<trkpt lat="-27.2688249" lon="151.3036617">
  <ele>539.76</ele>
  <time>2026-09-01T20:00:38Z</time>
  <course>130.76</course>
  <speed>9.799775507632816</speed>
  <fix>3d</fix>
</trkpt>
<trkpt lat="-27.2688101" lon="151.3036382">
  <ele>541.03</ele>
  <time>2026-09-01T20:00:38Z</time>
  <course>126.38</course>
  <speed>9.01</speed>
  <fix>3d</fix>
</trkpt>
<trkpt lat="-27.2688301" lon="151.3036699">
  <ele>539.32</ele>
  <time>2026-09-01T20:00:38Z</time>
  <course>128.27</course>
  <speed>10.010719254878742</speed>
  <fix>3d</fix>
</trkpt>
<trkpt lat="-27.2688197" lon="151.3036535">
  <ele>540.19</ele>
  <time>2026-09-01T20:00:38Z</time>
  <course>125.04</course>
  <speed>9.53</speed>
  <fix>3d</fix>
</trkpt>
<trkpt lat="-27.2688355" lon="151.303678">
  <ele>538.86</ele>
  <time>2026-09-01T20:00:38Z</time>
  <course>126.04</course>
  <speed>10.190019627066475</speed>
  <fix>3d</fix>
</trkpt>
<trkpt lat="-27.2688197" lon="151.3036535">
  <ele>540.19</ele>
  <time>2026-09-01T20:00:38Z</time>
  <course>125.04</course>
  <speed>9.53</speed>
  <fix>3d</fix>
</trkpt>
<trkpt lat="-27.2688411" lon="151.3036862">
  <ele>538.36</ele>
  <time>2026-09-01T20:00:38Z</time>
  <course>124.42</course>
  <speed>10.394969937426467</speed>
  <fix>3d</fix>
</trkpt>
<trkpt lat="-27.2688299" lon="151.3036695">
  <ele>539.32</ele>
  <time>2026-09-01T20:00:38Z</time>
  <course>126.13</course>
  <speed>9.99</speed>
  <fix>3d</fix>
</trkpt>
<trkpt lat="-27.2688469" lon="151.3036947">
  <ele>537.83</ele>
  <time>2026-09-01T20:00:38Z</time>
  <course>123.48</course>
  <speed>10.642274193047275</speed>
  <fix>3d</fix>
</trkpt>
<trkpt lat="-27.2688299" lon="151.3036695">
  <ele>539.32</ele>
  <time>2026-09-01T20:00:38Z</time>
  <course>126.13</course>
  <speed>9.99</speed>
  <fix>3d</fix>
</trkpt>
<trkpt lat="-27.2688529" lon="151.3037034">
  <ele>537.28</ele>
  <time>2026-09-01T20:00:38Z</time>
  <course>123.12</course>
  <speed>10.934335828023574</speed>
  <fix>3d</fix>
</trkpt>
<trkpt lat="-27.2688409" lon="151.303686">
  <ele>538.36</ele>
  <time>2026-09-01T20:00:38Z</time>
  <course>127.51</course>
  <speed>10.41</speed>
  <fix>3d</fix>
</trkpt>
<trkpt lat="-27.268859" lon="151.3037122">
  <ele>536.73</ele>
  <time>2026-09-01T20:00:38Z</time>
  <course>123.22</course>
  <speed>11.258920907440462</speed>
  <fix>3d</fix>
</trkpt>
<trkpt lat="-27.2688409" lon="151.303686">
  <ele>538.36</ele>
  <time>2026-09-01T20:00:38Z</time>
  <course>127.51</course>
  <speed>10.41</speed>
  <fix>3d</fix>
</trkpt>
<trkpt lat="-27.2688652" lon="151.3037214">
  <ele>536.19</ele>
  <time>2026-09-01T20:00:38Z</time>
  <course>123.65</course>
  <speed>11.596020869246486</speed>
  <fix>3d</fix>
</trkpt>
<trkpt lat="-27.2688526" lon="151.3037031">
  <ele>537.3</ele>
  <time>2026-09-01T20:00:38Z</time>
  <course>127.83</course>
  <speed>10.94</speed>
  <fix>3d</fix>
</trkpt>
<trkpt lat="-27.2688715" lon="151.303731">
  <ele>535.65</ele>
  <time>2026-09-01T20:00:38Z</time>
  <course>124.26</course>
  <speed>11.906183267529522</speed>
  <fix>3d</fix>
</trkpt>
<trkpt lat="-27.2688526" lon="151.3037031">
  <ele>537.3</ele>
  <time>2026-09-01T20:00:38Z</time>
  <course>127.83</course>
  <speed>10.94</speed>
  <fix>3d</fix>
</trkpt>
<trkpt lat="-27.2688777" lon="151.303741">
  <ele>535.12</ele>
  <time>2026-09-01T20:00:38Z</time>
  <course>124.85</course>
  <speed>12.214000163746519</speed>
  <fix>3d</fix>
</trkpt>
<trkpt lat="-27.2688649" lon="151.3037211">
  <ele>536.22</ele>
  <time>2026-09-01T20:00:38Z</time>
  <course>126.71</course>
  <speed>11.57</speed>
  <fix>3d</fix>
</trkpt>
<trkpt lat="-27.268884" lon="151.3037512">
  <ele>534.6</ele>
  <time>2026-09-01T20:00:38Z</time>
  <course>125.29</course>
  <speed>12.50587861767417</speed>
  <fix>3d</fix>
</trkpt>
<trkpt lat="-27.2688649" lon="151.3037211">
  <ele>536.22</ele>
  <time>2026-09-01T20:00:38Z</time>
  <course>126.71</course>
  <speed>11.57</speed>
  <fix>3d</fix>
</trkpt>
<trkpt lat="-27.2688903" lon="151.3037618">
  <ele>534.1</ele>
  <time>2026-09-01T20:00:38Z</time>
  <course>125.5</course>
  <speed>12.788721593654309</speed>
  <fix>3d</fix>
</trkpt>
<trkpt lat="-27.2688774" lon="151.3037406">
  <ele>535.15</ele>
  <time>2026-09-01T20:00:38Z</time>
  <course>124.91</course>
  <speed>12.19</speed>
  <fix>3d</fix>
</trkpt>
<trkpt lat="-27.2688967" lon="151.3037728">
  <ele>533.61</ele>
  <time>2026-09-01T20:00:38Z</time>
  <course>125.5</course>
  <speed>13.058024352864411</speed>
  <fix>3d</fix>
</trkpt>
<trkpt lat="-27.2688774" lon="151.3037406">
  <ele>535.15</ele>
  <time>2026-09-01T20:00:38Z</time>
  <course>124.91</course>
  <speed>12.19</speed>
  <fix>3d</fix>
</trkpt>
<trkpt lat="-27.2689032" lon="151.3037839">
  <ele>533.16</ele>
  <time>2026-09-01T20:00:38Z</time>
  <course>125.31</course>
  <speed>13.307535459280205</speed>
  <fix>3d</fix>
</trkpt>
<trkpt lat="-27.26889" lon="151.3037615">
  <ele>534.13</ele>
  <time>2026-09-01T20:00:38Z</time>
  <course>123.62</course>
  <speed>12.77</speed>
  <fix>3d</fix>
</trkpt>
<trkpt lat="-27.2689098" lon="151.3037953">
  <ele>532.73</ele>
  <time>2026-09-01T20:00:38Z</time>
  <course>125.02</course>
  <speed>13.531925214100172</speed>
  <fix>3d</fix>
</trkpt>
<trkpt lat="-27.26889" lon="151.3037615">
  <ele>534.13</ele>
  <time>2026-09-01T20:00:38Z</time>
  <course>123.62</course>
  <speed>12.77</speed>
  <fix>3d</fix>
</trkpt>
<trkpt lat="-27.2689167" lon="151.3038067">
  <ele>532.34</ele>
  <time>2026-09-01T20:00:38Z</time>
  <course>124.68</course>
  <speed>13.726361498955214</speed>
  <fix>3d</fix>
</trkpt>
<trkpt lat="-27.2689029" lon="151.3037835">
  <ele>533.19</ele>
  <time>2026-09-01T20:00:38Z</time>
  <course>123.43</course>
  <speed>13.29</speed>
  <fix>3d</fix>
</trkpt>
<trkpt lat="-27.2689237" lon="151.3038183">
  <ele>531.97</ele>
  <time>2026-09-01T20:00:38Z</time>
  <course>124.34</course>
  <speed>13.879956772266981</speed>
  <fix>3d</fix>
</trkpt>
<trkpt lat="-27.2689029" lon="151.3037835">
  <ele>533.19</ele>
  <time>2026-09-01T20:00:38Z</time>
  <course>123.43</course>
  <speed>13.29</speed>
  <fix>3d</fix>
</trkpt>
<trkpt lat="-27.2689308" lon="151.3038298">
  <ele>531.64</ele>
  <time>2026-09-01T20:00:38Z</time>
  <course>124.04</course>
  <speed>13.995006252231544</speed>
  <fix>3d</fix>
</trkpt>
<trkpt lat="-27.2689164" lon="151.3038062">
  <ele>532.37</ele>
  <time>2026-09-01T20:00:38Z</time>
  <course>124.05</course>
  <speed>13.7</speed>
  <fix>3d</fix>
</trkpt>
<trkpt lat="-27.268938" lon="151.3038415">
  <ele>531.34</ele>
  <time>2026-09-01T20:00:38Z</time>
  <course>123.83</course>
  <speed>14.081779006929487</speed>
  <fix>3d</fix>
</trkpt>
<trkpt lat="-27.2689164" lon="151.3038062">
  <ele>532.37</ele>
  <time>2026-09-01T20:00:38Z</time>
  <course>124.05</course>
  <speed>13.7</speed>
  <fix>3d</fix>
</trkpt>
<trkpt lat="-27.2689453" lon="151.3038532">
  <ele>531.07</ele>
  <time>2026-09-01T20:00:38Z</time>
  <course>123.74</course>
  <speed>14.148144754701939</speed>
  <fix>3d</fix>
</trkpt>
<trkpt lat="-27.2689305" lon="151.3038293">
  <ele>531.67</ele>
  <time>2026-09-01T20:00:38Z</time>
  <course>124.73</course>
  <speed>13.98</speed>
  <fix>3d</fix>
</trkpt>
<trkpt lat="-27.2689525" lon="151.3038648">
  <ele>530.79</ele>
  <time>2026-09-01T20:00:38Z</time>
  <course>123.8</course>
  <speed>14.185978993358196</speed>
  <fix>3d</fix>
</trkpt>
<trkpt lat="-27.2689305" lon="151.3038293">
  <ele>531.67</ele>
  <time>2026-09-01T20:00:38Z</time>
  <course>124.73</course>
  <speed>13.98</speed>
  <fix>3d</fix>
</trkpt>
<trkpt lat="-27.2689598" lon="151.3038767">
  <ele>530.54</ele>
  <time>2026-09-01T20:00:38Z</time>
  <course>123.97</course>
  <speed>14.212670403551895</speed>
  <fix>3d</fix>
</trkpt>
<trkpt lat="-27.2689449" lon="151.3038527">
  <ele>531.08</ele>
  <time>2026-09-01T20:00:38Z</time>
  <course>124.86</course>
  <speed>14.14</speed>
  <fix>3d</fix>
</trkpt>
<trkpt lat="-27.268967" lon="151.3038886">
  <ele>530.29</ele>
  <time>2026-09-01T20:00:38Z</time>
  <course>124.19</course>
  <speed>14.231405411975304</speed>
  <fix>3d</fix>
</trkpt>
<trkpt lat="-27.2689449" lon="151.3038527">
  <ele>531.08</ele>
  <time>2026-09-01T20:00:38Z</time>
  <course>124.86</course>
  <speed>14.14</speed>
  <fix>3d</fix>
</trkpt>
<trkpt lat="-27.2689742" lon="151.3039006">
  <ele>530.06</ele>
  <time>2026-09-01T20:00:38Z</time>
  <course>124.37</course>
  <speed>14.250403503059133</speed>
  <fix>3d</fix>
</trkpt>
<trkpt lat="-27.2689594" lon="151.3038763">
  <ele>530.56</ele>
  <time>2026-09-01T20:00:38Z</time>
  <course>124.47</course>
  <speed>14.21</speed>
  <fix>3d</fix>
</trkpt>
<trkpt lat="-27.2689813" lon="151.3039125">
  <ele>529.83</ele>
  <time>2026-09-01T20:00:38Z</time>
  <course>124.48</course>
  <speed>14.266902256621792</speed>
  <fix>3d</fix>
</trkpt>
<trkpt lat="-27.2689594" lon="151.3038763">
  <ele>530.56</ele>
  <time>2026-09-01T20:00:38Z</time>
  <course>124.47</course>
  <speed>14.21</speed>
  <fix>3d</fix>
</trkpt>
<trkpt lat="-27.2671706" lon="151.3079211">
  <ele>540.84</ele>
  <time>2026-09-01T20:00:38Z</time>
  <course>252.23</course>
  <speed>11.863464923874476</speed>
  <fix>3d</fix>
</trkpt>
<trkpt lat="-27.2689738" lon="151.3039">
  <ele>530.07</ele>
  <time>2026-09-01T20:00:38Z</time>
  <course>123.98</course>
  <speed>14.25</speed>
  <fix>3d</fix>
</trkpt>
<trkpt lat="-27.2671724" lon="151.3079105">
  <ele>536.97</ele>
  <time>2026-09-01T20:00:38Z</time>
  <course>251.03</course>
  <speed>10.224920537588543</speed>
  <fix>3d</fix>
</trkpt>
<trkpt lat="-27.2689738" lon="151.3039">
  <ele>530.07</ele>
  <time>2026-09-01T20:00:38Z</time>
  <course>123.98</course>
  <speed>14.25</speed>
  <fix>3d</fix>
</trkpt>
<trkpt lat="-27.2671743" lon="151.3079">
  <ele>533.1</ele>
  <time>2026-09-01T20:00:38Z</time>
  <course>232.14</course>
  <speed>11.023728951675109</speed>
  <fix>3d</fix>
</trkpt>
<trkpt lat="-27.2680766" lon="151.3059114">
  <ele>533.49</ele>
  <time>2026-09-01T20:00:38Z</time>
  <course>169.56</course>
  <speed>4.74</speed>
  <fix>3d</fix>
</trkpt>
<trkpt lat="-27.2671796" lon="151.3078899">
  <ele>529.27</ele>
  <time>2026-09-01T20:00:38Z</time>
  <course>209.77</course>
  <speed>12.41823256345282</speed>
  <fix>3d</fix>
</trkpt>
<trkpt lat="-27.2680766" lon="151.3059114">
  <ele>533.49</ele>
  <time>2026-09-01T20:00:38Z</time>
  <course>169.56</course>
  <speed>4.74</speed>
  <fix>3d</fix>
</trkpt>
<trkpt lat="-27.267189" lon="151.3078823">
  <ele>525.5</ele>
  <time>2026-09-01T20:00:38Z</time>
  <course>189.69</course>
  <speed>13.25275065788231</speed>
  <fix>3d</fix>
</trkpt>
<trkpt lat="-27.2671757" lon="151.3079006">
  <ele>533.28</ele>
  <time>2026-09-01T20:00:38Z</time>
  <course>243.5</course>
  <speed>10.81</speed>
  <fix>3d</fix>
</trkpt>
<trkpt lat="-27.2672005" lon="151.3078784">
  <ele>521.77</ele>
  <time>2026-09-01T20:00:38Z</time>
  <course>172.59</course>
  <speed>13.42164296947285</speed>
  <fix>3d</fix>
</trkpt>
<trkpt lat="-27.2671757" lon="151.3079006">
  <ele>533.28</ele>
  <time>2026-09-01T20:00:38Z</time>
  <course>243.5</course>
  <speed>10.81</speed>
  <fix>3d</fix>
</trkpt>
<trkpt lat="-27.2672125" lon="151.3078766">
  <ele>518.04</ele>
  <time>2026-09-01T20:00:38Z</time>
  <course>174.81</course>
  <speed>14.056927117972831</speed>
  <fix>3d</fix>
</trkpt>
<trkpt lat="-27.2671896" lon="151.3078845">
  <ele>525.67</ele>
  <time>2026-09-01T20:00:38Z</time>
  <course>208.35</course>
  <speed>12.2</speed>
  <fix>3d</fix>
</trkpt>
<trkpt lat="-27.2672264" lon="151.3078711">
  <ele>514.49</ele>
  <time>2026-09-01T20:00:38Z</time>
  <course>196.73</course>
  <speed>20.185247087910515</speed>
  <fix>3d</fix>
</trkpt>
<trkpt lat="-27.2671896" lon="151.3078845">
  <ele>525.67</ele>
  <time>2026-09-01T20:00:38Z</time>
  <course>208.35</course>
  <speed>12.2</speed>
  <fix>3d</fix>
</trkpt>
<trkpt lat="-27.2672451" lon="151.3078581">
  <ele>511.48</ele>
  <time>2026-09-01T20:00:38Z</time>
  <course>206.87</course>
  <speed>28.0515596714336</speed>
  <fix>3d</fix>
</trkpt>
<trkpt lat="-27.2672128" lon="151.307875">
  <ele>518.27</ele>
  <time>2026-09-01T20:00:38Z</time>
  <course>200.2</course>
  <speed>16.47</speed>
  <fix>3d</fix>
</trkpt>
<trkpt lat="-27.2672679" lon="151.3078401">
  <ele>509.35</ele>
  <time>2026-09-01T20:00:38Z</time>
  <course>212.69</course>
  <speed>33.16489861284066</speed>
  <fix>3d</fix>
</trkpt>
<trkpt lat="-27.2672128" lon="151.307875">
  <ele>518.27</ele>
  <time>2026-09-01T20:00:38Z</time>
  <course>200.2</course>
  <speed>16.47</speed>
  <fix>3d</fix>
</trkpt>
<trkpt lat="-27.2672928" lon="151.3078195">
  <ele>508.12</ele>
  <time>2026-09-01T20:00:38Z</time>
  <course>215.62</course>
  <speed>35.28005102037127</speed>
  <fix>3d</fix>
</trkpt>
<trkpt lat="-27.2672462" lon="151.3078563">
  <ele>512.03</ele>
  <time>2026-09-01T20:00:38Z</time>
  <course>212.5</course>
  <speed>26.34</speed>
  <fix>3d</fix>
</trkpt>
<trkpt lat="-27.267318" lon="151.307798">
  <ele>507.77</ele>
  <time>2026-09-01T20:00:38Z</time>
  <course>217.03</course>
  <speed>34.963915684602604</speed>
  <fix>3d</fix>
</trkpt>
<trkpt lat="-27.2672462" lon="151.3078563">
  <ele>512.03</ele>
  <time>2026-09-01T20:00:38Z</time>
  <course>212.5</course>
  <speed>26.34</speed>
  <fix>3d</fix>
</trkpt>
<trkpt lat="-27.2673423" lon="151.3077767">
  <ele>508.12</ele>
  <time>2026-09-01T20:00:38Z</time>
  <course>218.18</course>
  <speed>33.32620890530455</speed>
  <fix>3d</fix>
</trkpt>
<trkpt lat="-27.2672918" lon="151.3078199">
  <ele>508.59</ele>
  <time>2026-09-01T20:00:38Z</time>
  <course>216.66</course>
  <speed>34.0</speed>
  <fix>3d</fix>
</trkpt>
<trkpt lat="-27.2673648" lon="151.3077561">
  <ele>508.92</ele>
  <time>2026-09-01T20:00:38Z</time>
  <course>219.44</course>
  <speed>31.415155578160043</speed>
  <fix>3d</fix>
</trkpt>
<trkpt lat="-27.2672918" lon="151.3078199">
  <ele>508.59</ele>
  <time>2026-09-01T20:00:38Z</time>
  <course>216.66</course>
  <speed>34.0</speed>
  <fix>3d</fix>
</trkpt>
<trkpt lat="-27.2673857" lon="151.3077361">
  <ele>509.97</ele>
  <time>2026-09-01T20:00:38Z</time>
  <course>220.46</course>
  <speed>29.78233368962211</speed>
  <fix>3d</fix>
</trkpt>
<trkpt lat="-27.2673404" lon="151.3077779">
  <ele>508.32</ele>
  <time>2026-09-01T20:00:38Z</time>
  <course>218.5</course>
  <speed>33.25</speed>
  <fix>3d</fix>
</trkpt>
<trkpt lat="-27.2674053" lon="151.3077166">
  <ele>511.15</ele>
  <time>2026-09-01T20:00:38Z</time>
  <course>221.07</course>
  <speed>28.512784851711693</speed>
  <fix>3d</fix>
</trkpt>
<trkpt lat="-27.2673404" lon="151.3077779">
  <ele>508.32</ele>
  <time>2026-09-01T20:00:38Z</time>
  <course>218.5</course>
  <speed>33.25</speed>
  <fix>3d</fix>
</trkpt>
<trkpt lat="-27.2674239" lon="151.3076975">
  <ele>512.35</ele>
  <time>2026-09-01T20:00:38Z</time>
  <course>221.47</course>
  <speed>27.50939657644275</speed>
  <fix>3d</fix>
</trkpt>
<trkpt lat="-27.2673842" lon="151.3077372">
  <ele>509.99</ele>
  <time>2026-09-01T20:00:38Z</time>
  <course>220.79</course>
  <speed>30.02</speed>
  <fix>3d</fix>
</trkpt>
<trkpt lat="-27.2674417" lon="151.3076788">
  <ele>513.53</ele>
  <time>2026-09-01T20:00:38Z</time>
  <course>221.87</course>
  <speed>26.668972608632675</speed>
  <fix>3d</fix>
</trkpt>
<trkpt lat="-27.2673842" lon="151.3077372">
  <ele>509.99</ele>
  <time>2026-09-01T20:00:38Z</time>
  <course>220.79</course>
  <speed>30.02</speed>
  <fix>3d</fix>
</trkpt>
<trkpt lat="-27.267459" lon="151.3076607">
  <ele>514.69</ele>
  <time>2026-09-01T20:00:38Z</time>
  <course>222.25</course>
  <speed>25.930532196621034</speed>
  <fix>3d</fix>
</trkpt>
<trkpt lat="-27.2674227" lon="151.3076985">
  <ele>512.29</ele>
  <time>2026-09-01T20:00:38Z</time>
  <course>222.43</course>
  <speed>27.64</speed>
  <fix>3d</fix>
</trkpt>
<trkpt lat="-27.2674758" lon="151.3076432">
  <ele>515.79</ele>
  <time>2026-09-01T20:00:38Z</time>
  <course>222.56</course>
  <speed>25.23515207007875</speed>
  <fix>3d</fix>
</trkpt>
<trkpt lat="-27.2674227" lon="151.3076985">
  <ele>512.29</ele>
  <time>2026-09-01T20:00:38Z</time>
  <course>222.43</course>
  <speed>27.64</speed>
  <fix>3d</fix>
</trkpt>
<trkpt lat="-27.2674921" lon="151.3076259">
  <ele>516.85</ele>
  <time>2026-09-01T20:00:38Z</time>
  <course>222.79</course>
  <speed>24.554064836600883</speed>
  <fix>3d</fix>
</trkpt>
<trkpt lat="-27.267458" lon="151.3076618">
  <ele>514.62</ele>
  <time>2026-09-01T20:00:38Z</time>
  <course>223.02</course>
  <speed>25.98</speed>
  <fix>3d</fix>
</trkpt>
<trkpt lat="-27.2675079" lon="151.307609">
  <ele>517.87</ele>
  <time>2026-09-01T20:00:38Z</time>
  <course>222.99</course>
  <speed>23.887287414020033</speed>
  <fix>3d</fix>
</trkpt>
<trkpt lat="-27.267458" lon="151.3076618">
  <ele>514.62</ele>
  <time>2026-09-01T20:00:38Z</time>
  <course>223.02</course>
  <speed>25.98</speed>
  <fix>3d</fix>
</trkpt>
<trkpt lat="-27.2675232" lon="151.3075926">
  <ele>518.85</ele>
  <time>2026-09-01T20:00:38Z</time>
  <course>223.18</course>
  <speed>23.206234076213228</speed>
  <fix>3d</fix>
</trkpt>
<trkpt lat="-27.2674911" lon="151.3076268">
  <ele>516.79</ele>
  <time>2026-09-01T20:00:38Z</time>
  <course>223.33</course>
  <speed>24.59</speed>
  <fix>3d</fix>
</trkpt>
<trkpt lat="-27.267538" lon="151.3075767">
  <ele>519.81</ele>
  <time>2026-09-01T20:00:38Z</time>
  <course>223.4</course>
  <speed>22.51134158596506</speed>
  <fix>3d</fix>
</trkpt>
<trkpt lat="-27.2674911" lon="151.3076268">
  <ele>516.79</ele>
  <time>2026-09-01T20:00:38Z</time>
  <course>223.33</course>
  <speed>24.59</speed>
  <fix>3d</fix>
</trkpt>
<trkpt lat="-27.2675523" lon="151.3075611">
  <ele>520.75</ele>
  <time>2026-09-01T20:00:38Z</time>
  <course>223.65</course>
  <speed>21.788494670352975</speed>
  <fix>3d</fix>
</trkpt>
<trkpt lat="-27.2675222" lon="151.3075936">
  <ele>518.8</ele>
  <time>2026-09-01T20:00:38Z</time>
  <course>223.68</course>
  <speed>23.23</speed>
  <fix>3d</fix>
</trkpt>
<trkpt lat="-27.2675661" lon="151.307546">
  <ele>521.68</ele>
  <time>2026-09-01T20:00:38Z</time>
  <course>223.91</course>
  <speed>21.059012322518832</speed>
  <fix>3d</fix>
</trkpt>
<trkpt lat="-27.2675222" lon="151.3075936">
  <ele>518.8</ele>
  <time>2026-09-01T20:00:38Z</time>
  <course>223.68</course>
  <speed>23.23</speed>
  <fix>3d</fix>
</trkpt>
<trkpt lat="-27.2675794" lon="151.3075313">
  <ele>522.6</ele>
  <time>2026-09-01T20:00:38Z</time>
  <course>224.17</course>
  <speed>20.31572051392714</speed>
  <fix>3d</fix>
</trkpt>
<trkpt lat="-27.2675514" lon="151.307562">
  <ele>520.7</ele>
  <time>2026-09-01T20:00:38Z</time>
  <course>224.11</course>
  <speed>21.82</speed>
  <fix>3d</fix>
</trkpt>
<trkpt lat="-27.2675921" lon="151.3075172">
  <ele>523.51</ele>
  <time>2026-09-01T20:00:38Z</time>
  <course>224.43</course>
  <speed>19.55865537300558</speed>
  <fix>3d</fix>
</trkpt>
<trkpt lat="-27.2675514" lon="151.307562">
  <ele>520.7</ele>
  <time>2026-09-01T20:00:38Z</time>
  <course>224.11</course>
  <speed>21.82</speed>
  <fix>3d</fix>
</trkpt>
<trkpt lat="-27.2676043" lon="151.3075035">
  <ele>524.43</ele>
  <time>2026-09-01T20:00:38Z</time>
  <course>224.67</course>
  <speed>18.816123405207566</speed>
  <fix>3d</fix>
</trkpt>
<trkpt lat="-27.2675785" lon="151.3075322">
  <ele>522.56</ele>
  <time>2026-09-01T20:00:38Z</time>
  <course>224.57</course>
  <speed>20.34</speed>
  <fix>3d</fix>
</trkpt>
<trkpt lat="-27.2676159" lon="151.3074902">
  <ele>525.34</ele>
  <time>2026-09-01T20:00:38Z</time>
  <course>224.91</course>
  <speed>18.052670162610294</speed>
  <fix>3d</fix>
</trkpt>
<trkpt lat="-27.2675785" lon="151.3075322">
  <ele>522.56</ele>
  <time>2026-09-01T20:00:38Z</time>
  <course>224.57</course>
  <speed>20.34</speed>
  <fix>3d</fix>
</trkpt>
<trkpt lat="-27.2676271" lon="151.3074776">
  <ele>526.24</ele>
  <time>2026-09-01T20:00:38Z</time>
  <course>225.13</course>
  <speed>17.310673008291737</speed>
  <fix>3d</fix>
</trkpt>
<trkpt lat="-27.2676035" lon="151.3075043">
  <ele>524.39</ele>
  <time>2026-09-01T20:00:38Z</time>
  <course>225.04</course>
  <speed>18.84</speed>
  <fix>3d</fix>
</trkpt>
<trkpt lat="-27.2676377" lon="151.3074653">
  <ele>527.14</ele>
  <time>2026-09-01T20:00:38Z</time>
  <course>225.33</course>
  <speed>16.561799419145252</speed>
  <fix>3d</fix>
</trkpt>
<trkpt lat="-27.2676035" lon="151.3075043">
  <ele>524.39</ele>
  <time>2026-09-01T20:00:38Z</time>
  <course>225.04</course>
  <speed>18.84</speed>
  <fix>3d</fix>
</trkpt>
<trkpt lat="-27.2676479" lon="151.3074536">
  <ele>528.03</ele>
  <time>2026-09-01T20:00:38Z</time>
  <course>225.52</course>
  <speed>15.862562844635162</speed>
  <fix>3d</fix>
</trkpt>
<trkpt lat="-27.2676264" lon="151.3074783">
  <ele>526.19</ele>
  <time>2026-09-01T20:00:38Z</time>
  <course>225.49</course>
  <speed>17.34</speed>
  <fix>3d</fix>
</trkpt>
<trkpt lat="-27.2676575" lon="151.3074423">
  <ele>528.9</ele>
  <time>2026-09-01T20:00:38Z</time>
  <course>225.68</course>
  <speed>15.191556865575034</speed>
  <fix>3d</fix>
</trkpt>
<trkpt lat="-27.2676264" lon="151.3074783">
  <ele>526.19</ele>
  <time>2026-09-01T20:00:38Z</time>
  <course>225.49</course>
  <speed>17.34</speed>
  <fix>3d</fix>
</trkpt>
<trkpt lat="-27.2676668" lon="151.3074315">
  <ele>529.75</ele>
  <time>2026-09-01T20:00:38Z</time>
  <course>225.82</course>
  <speed>14.563121231384432</speed>
  <fix>3d</fix>
</trkpt>
<trkpt lat="-27.2676472" lon="151.3074543">
  <ele>527.98</ele>
  <time>2026-09-01T20:00:38Z</time>
  <course>225.91</course>
  <speed>15.91</speed>
  <fix>3d</fix>
</trkpt>
<trkpt lat="-27.2676757" lon="151.307421">
  <ele>530.58</ele>
  <time>2026-09-01T20:00:38Z</time>
  <course>225.96</course>
  <speed>13.970014316384933</speed>
  <fix>3d</fix>
</trkpt>
<trkpt lat="-27.2676472" lon="151.3074543">
  <ele>527.98</ele>
  <time>2026-09-01T20:00:38Z</time>
  <course>225.91</course>
  <speed>15.91</speed>
  <fix>3d</fix>
</trkpt>
<trkpt lat="-27.2676842" lon="151.3074108">
  <ele>531.37</ele>
  <time>2026-09-01T20:00:38Z</time>
  <course>226.09</course>
  <speed>13.412181030689975</speed>
  <fix>3d</fix>
</trkpt>
<trkpt lat="-27.2676662" lon="151.307432">
  <ele>529.7</ele>
  <time>2026-09-01T20:00:38Z</time>
  <course>226.29</course>
  <speed>14.6</speed>
  <fix>3d</fix>
</trkpt>
<trkpt lat="-27.2676922" lon="151.3074011">
  <ele>532.13</ele>
  <time>2026-09-01T20:00:38Z</time>
  <course>226.21</course>
  <speed>12.88272098587872</speed>
  <fix>3d</fix>
</trkpt>
<trkpt lat="-27.2676662" lon="151.307432">
  <ele>529.7</ele>
  <time>2026-09-01T20:00:38Z</time>
  <course>226.29</course>
  <speed>14.6</speed>
  <fix>3d</fix>
</trkpt>
<trkpt lat="-27.2677" lon="151.3073919">
  <ele>532.85</ele>
  <time>2026-09-01T20:00:38Z</time>
  <course>226.32</course>
  <speed>12.38163963294038</speed>
  <fix>3d</fix>
</trkpt>
<trkpt lat="-27.2676836" lon="151.3074115">
  <ele>531.32</ele>
  <time>2026-09-01T20:00:38Z</time>
  <course>226.63</course>
  <speed>13.45</speed>
  <fix>3d</fix>
</trkpt>
<trkpt lat="-27.2677074" lon="151.3073829">
  <ele>533.53</ele>
  <time>2026-09-01T20:00:38Z</time>
  <course>226.43</course>
  <speed>11.901613336014575</speed>
  <fix>3d</fix>
</trkpt>
<trkpt lat="-27.2676836" lon="151.3074115">
  <ele>531.32</ele>
  <time>2026-09-01T20:00:38Z</time>
  <course>226.63</course>
  <speed>13.45</speed>
  <fix>3d</fix>
</trkpt>
<trkpt lat="-27.2677146" lon="151.3073743">
  <ele>534.16</ele>
  <time>2026-09-01T20:00:38Z</time>
  <course>226.54</course>
  <speed>11.435803426082488</speed>
  <fix>3d</fix>
</trkpt>
<trkpt lat="-27.2676995" lon="151.3073924">
  <ele>532.8</ele>
  <time>2026-09-01T20:00:38Z</time>
  <course>226.94</course>
  <speed>12.42</speed>
  <fix>3d</fix>
</trkpt>
<trkpt lat="-27.2677214" lon="151.307366">
  <ele>534.77</ele>
  <time>2026-09-01T20:00:38Z</time>
  <course>226.65</course>
  <speed>10.984215948350617</speed>
  <fix>3d</fix>
</trkpt>
<trkpt lat="-27.2676995" lon="151.3073924">
  <ele>532.8</ele>
  <time>2026-09-01T20:00:38Z</time>
  <course>226.94</course>
  <speed>12.42</speed>
  <fix>3d</fix>
</trkpt>
<trkpt lat="-27.2677279" lon="151.3073579">
  <ele>535.34</ele>
  <time>2026-09-01T20:00:38Z</time>
  <course>226.75</course>
  <speed>10.539473421381166</speed>
  <fix>3d</fix>
</trkpt>
<trkpt lat="-27.2677141" lon="151.3073748">
  <ele>534.12</ele>
  <time>2026-09-01T20:00:38Z</time>
  <course>227.26</course>
  <speed>11.46</speed>
  <fix>3d</fix>
</trkpt>
<trkpt lat="-27.2677341" lon="151.3073502">
  <ele>535.87</ele>
  <time>2026-09-01T20:00:38Z</time>
  <course>226.85</course>
  <speed>10.11632838533823</speed>
  <fix>3d</fix>
</trkpt>
<trkpt lat="-27.2677141" lon="151.3073748">
  <ele>534.12</ele>
  <time>2026-09-01T20:00:38Z</time>
  <course>227.26</course>
  <speed>11.46</speed>
  <fix>3d</fix>
</trkpt>
<trkpt lat="-27.2677401" lon="151.3073427">
  <ele>536.36</ele>
  <time>2026-09-01T20:00:38Z</time>
  <course>226.95</course>
  <speed>9.693301811044574</speed>
  <fix>3d</fix>
</trkpt>
<trkpt lat="-27.2677275" lon="151.3073584">
  <ele>535.3</ele>
  <time>2026-09-01T20:00:38Z</time>
  <course>227.58</course>
  <speed>10.57</speed>
  <fix>3d</fix>
</trkpt>
<trkpt lat="-27.2677458" lon="151.3073356">
  <ele>536.82</ele>
  <time>2026-09-01T20:00:38Z</time>
  <course>227.05</course>
  <speed>9.291200137764765</speed>
  <fix>3d</fix>
</trkpt>
<trkpt lat="-27.2677275" lon="151.3073584">
  <ele>535.3</ele>
  <time>2026-09-01T20:00:38Z</time>
  <course>227.58</course>
  <speed>10.57</speed>
  <fix>3d</fix>
</trkpt>
<trkpt lat="-27.2677513" lon="151.3073288">
  <ele>537.24</ele>
  <time>2026-09-01T20:00:38Z</time>
  <course>227.15</course>
  <speed>8.90330837385744</speed>
  <fix>3d</fix>
</trkpt>
<trkpt lat="-27.2677397" lon="151.3073432">
  <ele>536.32</ele>
  <time>2026-09-01T20:00:38Z</time>
  <course>227.93</course>
  <speed>9.72</speed>
  <fix>3d</fix>
</trkpt>
<trkpt lat="-27.2677565" lon="151.3073221">
  <ele>537.62</ele>
  <time>2026-09-01T20:00:38Z</time>
  <course>227.24</course>
  <speed>8.523010031673083</speed>
  <fix>3d</fix>
</trkpt>
<trkpt lat="-27.2677397" lon="151.3073432">
  <ele>536.32</ele>
  <time>2026-09-01T20:00:38Z</time>
  <course>227.93</course>
  <speed>9.72</speed>
  <fix>3d</fix>
</trkpt>
<trkpt lat="-27.2677614" lon="151.3073159">
  <ele>537.97</ele>
  <time>2026-09-01T20:00:38Z</time>
  <course>227.33</course>
  <speed>8.156059097382755</speed>
  <fix>3d</fix>
</trkpt>
<trkpt lat="-27.2677508" lon="151.3073292">
  <ele>537.19</ele>
  <time>2026-09-01T20:00:38Z</time>
  <course>228.31</course>
  <speed>8.93</speed>
  <fix>3d</fix>
</trkpt>
<trkpt lat="-27.2677661" lon="151.3073097">
  <ele>538.28</ele>
  <time>2026-09-01T20:00:38Z</time>
  <course>227.42</course>
  <speed>7.8042616563003575</speed>
  <fix>3d</fix>
</trkpt>
<trkpt lat="-27.2677508" lon="151.3073292">
  <ele>537.19</ele>
  <time>2026-09-01T20:00:38Z</time>
  <course>228.31</course>
  <speed>8.93</speed>
  <fix>3d</fix>
</trkpt>
<trkpt lat="-27.2677706" lon="151.3073039">
  <ele>538.56</ele>
  <time>2026-09-01T20:00:38Z</time>
  <course>227.49</course>
  <speed>7.46571496911046</speed>
  <fix>3d</fix>
</trkpt>
<trkpt lat="-27.267761" lon="151.3073163">
  <ele>537.93</ele>
  <time>2026-09-01T20:00:38Z</time>
  <course>228.72</course>
  <speed>8.18</speed>
  <fix>3d</fix>
</trkpt>
<trkpt lat="-27.2677749" lon="151.3072983">
  <ele>538.79</ele>
  <time>2026-09-01T20:00:38Z</time>
  <course>227.55</course>
  <speed>7.148943977959262</speed>
  <fix>3d</fix>
</trkpt>
<trkpt lat="-27.267761" lon="151.3073163">
  <ele>537.93</ele>
  <time>2026-09-01T20:00:38Z</time>
  <course>228.72</course>
  <speed>8.18</speed>
  <fix>3d</fix>
</trkpt>
<trkpt lat="-27.267779" lon="151.3072929">
  <ele>539.01</ele>
  <time>2026-09-01T20:00:38Z</time>
  <course>227.59</course>
  <speed>6.8528826051523755</speed>
  <fix>3d</fix>
</trkpt>
<trkpt lat="-27.2677703" lon="151.3073043">
  <ele>538.53</ele>
  <time>2026-09-01T20:00:38Z</time>
  <course>229.16</course>
  <speed>7.49</speed>
  <fix>3d</fix>
</trkpt>
<trkpt lat="-27.2677829" lon="151.3072877">
  <ele>539.18</ele>
  <time>2026-09-01T20:00:38Z</time>
  <course>227.62</course>
  <speed>6.578639677015302</speed>
  <fix>3d</fix>
</trkpt>
<trkpt lat="-27.2677703" lon="151.3073043">
  <ele>538.53</ele>
  <time>2026-09-01T20:00:38Z</time>
  <course>229.16</course>
  <speed>7.49</speed>
  <fix>3d</fix>
</trkpt>
<trkpt lat="-27.2677866" lon="151.3072828">
  <ele>539.32</ele>
  <time>2026-09-01T20:00:38Z</time>
  <course>227.63</course>
  <speed>6.325037549295656</speed>
  <fix>3d</fix>
</trkpt>
<trkpt lat="-27.2677787" lon="151.3072933">
  <ele>538.98</ele>
  <time>2026-09-01T20:00:38Z</time>
  <course>229.61</course>
  <speed>6.88</speed>
  <fix>3d</fix>
</trkpt>
<trkpt lat="-27.2677902" lon="151.307278">
  <ele>539.41</ele>
  <time>2026-09-01T20:00:38Z</time>
  <course>227.65</course>
  <speed>6.099680319492162</speed>
  <fix>3d</fix>
</trkpt>
<trkpt lat="-27.2677787" lon="151.3072933">
  <ele>538.98</ele>
  <time>2026-09-01T20:00:38Z</time>
  <course>229.61</course>
  <speed>6.88</speed>
  <fix>3d</fix>
</trkpt>
<trkpt lat="-27.2677936" lon="151.3072733">
  <ele>539.5</ele>
  <time>2026-09-01T20:00:38Z</time>
  <course>227.65</course>
  <speed>5.860315691155213</speed>
  <fix>3d</fix>
</trkpt>
<trkpt lat="-27.2677864" lon="151.3072831">
  <ele>539.3</ele>
  <time>2026-09-01T20:00:38Z</time>
  <course>230.03</course>
  <speed>6.35</speed>
  <fix>3d</fix>
</trkpt>
<trkpt lat="-27.2677969" lon="151.3072689">
  <ele>539.54</ele>
  <time>2026-09-01T20:00:38Z</time>
  <course>227.5</course>
  <speed>5.586573189353202</speed>
  <fix>3d</fix>
</trkpt>
<trkpt lat="-27.2677864" lon="151.3072831">
  <ele>539.3</ele>
  <time>2026-09-01T20:00:38Z</time>
  <course>230.03</course>
  <speed>6.35</speed>
  <fix>3d</fix>
</trkpt>
<trkpt lat="-27.2678" lon="151.3072646">
  <ele>539.58</ele>
  <time>2026-09-01T20:00:38Z</time>
  <course>227.12</course>
  <speed>5.2771393765941035</speed>
  <fix>3d</fix>
</trkpt>
<trkpt lat="-27.2677934" lon="151.3072735">
  <ele>539.48</ele>
  <time>2026-09-01T20:00:38Z</time>
  <course>230.49</course>
  <speed>5.85</speed>
  <fix>3d</fix>
</trkpt>
<trkpt lat="-27.2678028" lon="151.3072606">
  <ele>539.61</ele>
  <time>2026-09-01T20:00:38Z</time>
  <course>226.5</course>
  <speed>4.917936559167879</speed>
  <fix>3d</fix>
</trkpt>
<trkpt lat="-27.2677934" lon="151.3072735">
  <ele>539.48</ele>
  <time>2026-09-01T20:00:38Z</time>
  <course>230.49</course>
  <speed>5.85</speed>
  <fix>3d</fix>
</trkpt>
<trkpt lat="-27.2678055" lon="151.3072568">
  <ele>539.63</ele>
  <time>2026-09-01T20:00:38Z</time>
  <course>225.66</course>
  <speed>4.508979928986156</speed>
  <fix>3d</fix>
</trkpt>
<trkpt lat="-27.2677997" lon="151.3072648">
  <ele>539.57</ele>
  <time>2026-09-01T20:00:38Z</time>
  <course>231.11</course>
  <speed>5.27</speed>
  <fix>3d</fix>
</trkpt>
<trkpt lat="-27.2678078" lon="151.3072533">
  <ele>539.64</ele>
  <time>2026-09-01T20:00:38Z</time>
  <course>224.63</course>
  <speed>4.044218095009219</speed>
  <fix>3d</fix>
</trkpt>
<trkpt lat="-27.2677997" lon="151.3072648">
  <ele>539.57</ele>
  <time>2026-09-01T20:00:38Z</time>
  <course>231.11</course>
  <speed>5.27</speed>
  <fix>3d</fix>
</trkpt>
<trkpt lat="-27.2678099" lon="151.3072503">
  <ele>539.66</ele>
  <time>2026-09-01T20:00:38Z</time>
  <course>223.51</course>
  <speed>3.5300141642775316</speed>
  <fix>3d</fix>
</trkpt>
<trkpt lat="-27.2678052" lon="151.3072571">
  <ele>539.62</ele>
  <time>2026-09-01T20:00:38Z</time>
  <course>231.96</course>
  <speed>4.5</speed>
  <fix>3d</fix>
</trkpt>
<trkpt lat="-27.2678116" lon="151.3072477">
  <ele>539.72</ele>
  <time>2026-09-01T20:00:39Z</time>
  <course>222.39</course>
  <speed>2.9864527453150838</speed>
  <fix>3d</fix>
</trkpt>
<trkpt lat="-27.2678052" lon="151.3072571">
  <ele>539.62</ele>
  <time>2026-09-01T20:00:39Z</time>
  <course>231.96</course>
  <speed>4.5</speed>
  <fix>3d</fix>
</trkpt>
<trkpt lat="-27.267813" lon="151.3072454">
  <ele>539.78</ele>
  <time>2026-09-01T20:00:39Z</time>
  <course>221.39</course>
  <speed>2.421672975444868</speed>
  <fix>3d</fix>
</trkpt>
<trkpt lat="-27.2678096" lon="151.3072506">
  <ele>539.67</ele>
  <time>2026-09-01T20:00:39Z</time>
  <course>233.18</course>
  <speed>3.53</speed>
  <fix>3d</fix>
</trkpt>
<trkpt lat="-27.2678141" lon="151.3072436">
  <ele>539.86</ele>
  <time>2026-09-01T20:00:39Z</time>
  <course>220.59</course>
  <speed>1.855505322007997</speed>
  <fix>3d</fix>
</trkpt>
<trkpt lat="-27.2678096" lon="151.3072506">
  <ele>539.67</ele>
  <time>2026-09-01T20:00:39Z</time>
  <course>233.18</course>
  <speed>3.53</speed>
  <fix>3d</fix>
</trkpt>
<trkpt lat="-27.2678149" lon="151.3072422">
  <ele>539.97</ele>
  <time>2026-09-01T20:00:39Z</time>
  <course>220.02</course>
  <speed>1.310267148332736</speed>
  <fix>3d</fix>
</trkpt>
<trkpt lat="-27.2678128" lon="151.3072457">
  <ele>539.78</ele>
  <time>2026-09-01T20:00:39Z</time>
  <course>235.03</course>
  <speed>2.45</speed>
  <fix>3d</fix>
</trkpt>
<trkpt lat="-27.2678155" lon="151.3072412">
  <ele>540.04</ele>
  <time>2026-09-01T20:00:39Z</time>
  <course>219.63</course>
  <speed>1.2605157674539418</speed>
  <fix>3d</fix>
</trkpt>
<trkpt lat="-27.2678128" lon="151.3072457">
  <ele>539.78</ele>
  <time>2026-09-01T20:00:39Z</time>
  <course>235.03</course>
  <speed>2.45</speed>
  <fix>3d</fix>
</trkpt>
<trkpt lat="-27.267816" lon="151.3072401">
  <ele>540.04</ele>
  <time>2026-09-01T20:00:39Z</time>
  <course>219.33</course>
  <speed>1.2467958934805647</speed>
  <fix>3d</fix>
</trkpt>
<trkpt lat="-27.2678147" lon="151.3072424">
  <ele>539.95</ele>
  <time>2026-09-01T20:00:39Z</time>
  <course>237.54</course>
  <speed>1.57</speed>
  <fix>3d</fix>
</trkpt>
<trkpt lat="-27.2678166" lon="151.3072389">
  <ele>539.93</ele>
  <time>2026-09-01T20:00:39Z</time>
  <course>219.16</course>
  <speed>1.224499897917513</speed>
  <fix>3d</fix>
</trkpt>
<trkpt lat="-27.2678147" lon="151.3072424">
  <ele>539.95</ele>
  <time>2026-09-01T20:00:39Z</time>
  <course>237.54</course>
  <speed>1.57</speed>
  <fix>3d</fix>
</trkpt>
<trkpt lat="-27.2678172" lon="151.3072379">
  <ele>539.73</ele>
  <time>2026-09-01T20:00:39Z</time>
  <course>219.19</course>
  <speed>1.1576268828944842</speed>
  <fix>3d</fix>
</trkpt>
<trkpt lat="-27.267816" lon="151.3072401">
  <ele>539.99</ele>
  <time>2026-09-01T20:00:39Z</time>
  <course>238.92</course>
  <speed>1.24</speed>
  <fix>3d</fix>
</trkpt>
<trkpt lat="-27.2678177" lon="151.3072369">
  <ele>539.46</ele>
  <time>2026-09-01T20:00:39Z</time>
  <course>219.52</course>
  <speed>1.082266141020775</speed>
  <fix>3d</fix>
</trkpt>
<trkpt lat="-27.267816" lon="151.3072401">
  <ele>539.99</ele>
  <time>2026-09-01T20:00:39Z</time>
  <course>238.92</course>
  <speed>1.24</speed>
  <fix>3d</fix>
</trkpt>
<trkpt lat="-27.2678182" lon="151.307236">
  <ele>539.11</ele>
  <time>2026-09-01T20:00:39Z</time>
  <course>220.03</course>
  <speed>1.0154801819828883</speed>
  <fix>3d</fix>
</trkpt>
<trkpt lat="-27.2678171" lon="151.3072381">
  <ele>539.7</ele>
  <time>2026-09-01T20:00:39Z</time>
  <course>238.46</course>
  <speed>1.16</speed>
  <fix>3d</fix>
</trkpt>
<trkpt lat="-27.2678187" lon="151.3072353">
  <ele>538.72</ele>
  <time>2026-09-01T20:00:39Z</time>
  <course>220.42</course>
  <speed>0.9487360012142472</speed>
  <fix>3d</fix>
</trkpt>
<trkpt lat="-27.2678171" lon="151.3072381">
  <ele>539.7</ele>
  <time>2026-09-01T20:00:39Z</time>
  <course>238.46</course>
  <speed>1.16</speed>
  <fix>3d</fix>
</trkpt>
<trkpt lat="-27.2678191" lon="151.3072345">
  <ele>538.27</ele>
  <time>2026-09-01T20:00:39Z</time>
  <course>220.68</course>
  <speed>0.9013878188659973</speed>
  <fix>3d</fix>
</trkpt>
<trkpt lat="-27.2678182" lon="151.3072361">
  <ele>539.1</ele>
  <time>2026-09-01T20:00:39Z</time>
  <course>237.76</course>
  <speed>1.02</speed>
  <fix>3d</fix>
</trkpt>
<trkpt lat="-27.2678196" lon="151.3072338">
  <ele>537.78</ele>
  <time>2026-09-01T20:00:39Z</time>
  <course>220.9</course>
  <speed>0.8881441324469808</speed>
  <fix>3d</fix>
</trkpt>
<trkpt lat="-27.2678182" lon="151.3072361">
  <ele>539.1</ele>
  <time>2026-09-01T20:00:39Z</time>
  <course>237.76</course>
  <speed>1.02</speed>
  <fix>3d</fix>
</trkpt>
<trkpt lat="-27.2678201" lon="151.307233">
  <ele>537.24</ele>
  <time>2026-09-01T20:00:39Z</time>
  <course>221.16</course>
  <speed>0.918313671900838</speed>
  <fix>3d</fix>
</trkpt>
<trkpt lat="-27.2678191" lon="151.3072345">
  <ele>538.26</ele>
  <time>2026-09-01T20:00:39Z</time>
  <course>235.92</course>
  <speed>0.92</speed>
  <fix>3d</fix>
</trkpt>
<trkpt lat="-27.2678206" lon="151.3072322">
  <ele>536.65</ele>
  <time>2026-09-01T20:00:39Z</time>
  <course>221.56</course>
  <speed>0.9990495483208028</speed>
  <fix>3d</fix>
</trkpt>
<trkpt lat="-27.2678191" lon="151.3072345">
  <ele>538.26</ele>
  <time>2026-09-01T20:00:39Z</time>
  <course>235.92</course>
  <speed>0.92</speed>
  <fix>3d</fix>
</trkpt>
<trkpt lat="-27.2678213" lon="151.3072315">
  <ele>536.0</ele>
  <time>2026-09-01T20:00:39Z</time>
  <course>222.21</course>
  <speed>1.082450922675019</speed>
  <fix>3d</fix>
</trkpt>
<trkpt lat="-27.2678201" lon="151.307233">
  <ele>537.23</ele>
  <time>2026-09-01T20:00:39Z</time>
  <course>231.39</course>
  <speed>0.94</speed>
  <fix>3d</fix>
</trkpt>
<trkpt lat="-27.2678221" lon="151.3072306">
  <ele>535.27</ele>
  <time>2026-09-01T20:00:39Z</time>
  <course>223.42</course>
  <speed>1.6070158679988196</speed>
  <fix>3d</fix>
</trkpt>
<trkpt lat="-27.2678201" lon="151.307233">
  <ele>537.23</ele>
  <time>2026-09-01T20:00:39Z</time>
  <course>231.39</course>
  <speed>0.94</speed>
  <fix>3d</fix>
</trkpt>
<trkpt lat="-27.2678234" lon="151.3072293">
  <ele>534.49</ele>
  <time>2026-09-01T20:00:39Z</time>
  <course>226.87</course>
  <speed>2.2536414976655004</speed>
  <fix>3d</fix>
</trkpt>
<trkpt lat="-27.2678213" lon="151.3072314">
  <ele>535.98</ele>
  <time>2026-09-01T20:00:39Z</time>
  <course>224.82</course>
  <speed>1.29</speed>
  <fix>3d</fix>
</trkpt>
<trkpt lat="-27.2678251" lon="151.3072278">
  <ele>533.62</ele>
  <time>2026-09-01T20:00:39Z</time>
  <course>235.45</course>
  <speed>2.4410038918445007</speed>
  <fix>3d</fix>
</trkpt>
<trkpt lat="-27.2678213" lon="151.3072314">
  <ele>535.98</ele>
  <time>2026-09-01T20:00:39Z</time>
  <course>224.82</course>
  <speed>1.29</speed>
  <fix>3d</fix>
</trkpt>
<trkpt lat="-27.2678268" lon="151.3072263">
  <ele>532.66</ele>
  <time>2026-09-01T20:00:39Z</time>
  <course>250.77</course>
  <speed>2.2867444107289296</speed>
  <fix>3d</fix>
</trkpt>
<trkpt lat="-27.2678235" lon="151.3072292">
  <ele>534.47</ele>
  <time>2026-09-01T20:00:39Z</time>
  <course>220.06</course>
  <speed>2.01</speed>
  <fix>3d</fix>
</trkpt>
<trkpt lat="-27.2678283" lon="151.3072249">
  <ele>531.61</ele>
  <time>2026-09-01T20:00:39Z</time>
  <course>252.14</course>
  <speed>2.0565018842685263</speed>
  <fix>3d</fix>
</trkpt>
<trkpt lat="-27.2678235" lon="151.3072292">
  <ele>534.47</ele>
  <time>2026-09-01T20:00:39Z</time>
  <course>220.06</course>
  <speed>2.01</speed>
  <fix>3d</fix>
</trkpt>
<trkpt lat="-27.2678297" lon="151.3072235">
  <ele>530.46</ele>
  <time>2026-09-01T20:00:39Z</time>
  <course>238.14</course>
  <speed>2.080600874747485</speed>
  <fix>3d</fix>
</trkpt>
<trkpt lat="-27.2678266" lon="151.3072264">
  <ele>532.64</ele>
  <time>2026-09-01T20:00:39Z</time>
  <course>219.51</course>
  <speed>2.25</speed>
  <fix>3d</fix>
</trkpt>
<trkpt lat="-27.2678313" lon="151.3072221">
  <ele>529.22</ele>
  <time>2026-09-01T20:00:39Z</time>
  <course>232.53</course>
  <speed>2.5926048676958082</speed>
  <fix>3d</fix>
</trkpt>
<trkpt lat="-27.2678266" lon="151.3072264">
  <ele>532.64</ele>
  <time>2026-09-01T20:00:39Z</time>
  <course>219.51</course>
  <speed>2.25</speed>
  <fix>3d</fix>
</trkpt>
<trkpt lat="-27.2678334" lon="151.3072201">
  <ele>527.91</ele>
  <time>2026-09-01T20:00:39Z</time>
  <course>232.7</course>
  <speed>3.6298898054899684</speed>
  <fix>3d</fix>
</trkpt>
<trkpt lat="-27.2678297" lon="151.3072235">
  <ele>530.45</ele>
  <time>2026-09-01T20:00:39Z</time>
  <course>219.22</course>
  <speed>2.32</speed>
  <fix>3d</fix>
</trkpt>
<trkpt lat="-27.2678363" lon="151.3072173">
  <ele>526.58</ele>
  <time>2026-09-01T20:00:39Z</time>
  <course>233.82</course>
  <speed>4.965903744536336</speed>
  <fix>3d</fix>
</trkpt>
<trkpt lat="-27.2678297" lon="151.3072235">
  <ele>530.45</ele>
  <time>2026-09-01T20:00:39Z</time>
  <course>219.22</course>
  <speed>2.32</speed>
  <fix>3d</fix>
</trkpt>
<trkpt lat="-27.2678399" lon="151.3072132">
  <ele>525.21</ele>
  <time>2026-09-01T20:00:39Z</time>
  <course>233.95</course>
  <speed>6.320482576512651</speed>
  <fix>3d</fix>
</trkpt>
<trkpt lat="-27.2678337" lon="151.3072197">
  <ele>527.94</ele>
  <time>2026-09-01T20:00:39Z</time>
  <course>221.52</course>
  <speed>3.74</speed>
  <fix>3d</fix>
</trkpt>
<trkpt lat="-27.267844" lon="151.3072077">
  <ele>523.82</ele>
  <time>2026-09-01T20:00:39Z</time>
  <course>233.04</course>
  <speed>7.5671989533776625</speed>
  <fix>3d</fix>
</trkpt>
<trkpt lat="-27.2678337" lon="151.3072197">
  <ele>527.94</ele>
  <time>2026-09-01T20:00:39Z</time>
  <course>221.52</course>
  <speed>3.74</speed>
  <fix>3d</fix>
</trkpt>
<trkpt lat="-27.2678485" lon="151.3072014">
  <ele>522.41</ele>
  <time>2026-09-01T20:00:39Z</time>
  <course>231.77</course>
  <speed>8.746347809228718</speed>
  <fix>3d</fix>
</trkpt>
<trkpt lat="-27.26784" lon="151.3072126">
  <ele>525.24</ele>
  <time>2026-09-01T20:00:39Z</time>
  <course>227.66</course>
  <speed>6.21</speed>
  <fix>3d</fix>
</trkpt>
<trkpt lat="-27.2678536" lon="151.3071937">
  <ele>521.02</ele>
  <time>2026-09-01T20:00:39Z</time>
  <course>230.64</course>
  <speed>9.960245980898263</speed>
  <fix>3d</fix>
</trkpt>
<trkpt lat="-27.26784" lon="151.3072126">
  <ele>525.24</ele>
  <time>2026-09-01T20:00:39Z</time>
  <course>227.66</course>
  <speed>6.21</speed>
  <fix>3d</fix>
</trkpt>
<trkpt lat="-27.2678593" lon="151.3071851">
  <ele>519.65</ele>
  <time>2026-09-01T20:00:39Z</time>
  <course>229.8</course>
  <speed>11.22007130102122</speed>
  <fix>3d</fix>
</trkpt>
<trkpt lat="-27.2678486" lon="151.307201">
  <ele>522.47</ele>
  <time>2026-09-01T20:00:39Z</time>
  <course>232.22</course>
  <speed>8.71</speed>
  <fix>3d</fix>
</trkpt>
<trkpt lat="-27.2678657" lon="151.3071756">
  <ele>518.32</ele>
  <time>2026-09-01T20:00:39Z</time>
  <course>229.27</course>
  <speed>12.49115687196346</speed>
  <fix>3d</fix>
</trkpt>
<trkpt lat="-27.2678486" lon="151.307201">
  <ele>522.47</ele>
  <time>2026-09-01T20:00:39Z</time>
  <course>232.22</course>
  <speed>8.71</speed>
  <fix>3d</fix>
</trkpt>
<trkpt lat="-27.267873" lon="151.3071651">
  <ele>517.06</ele>
  <time>2026-09-01T20:00:39Z</time>
  <course>228.98</course>
  <speed>13.706173791397802</speed>
  <fix>3d</fix>
</trkpt>
<trkpt lat="-27.2678594" lon="151.307185">
  <ele>519.72</ele>
  <time>2026-09-01T20:00:39Z</time>
  <course>232.89</course>
  <speed>11.17</speed>
  <fix>3d</fix>
</trkpt>
<trkpt lat="-27.2678812" lon="151.3071541">
  <ele>515.87</ele>
  <time>2026-09-01T20:00:39Z</time>
  <course>228.85</course>
  <speed>14.809861579366634</speed>
  <fix>3d</fix>
</trkpt>
<trkpt lat="-27.2678594" lon="151.307185">
  <ele>519.72</ele>
  <time>2026-09-01T20:00:39Z</time>
  <course>232.89</course>
  <speed>11.17</speed>
  <fix>3d</fix>
</trkpt>
<trkpt lat="-27.2678903" lon="151.3071424">
  <ele>514.76</ele>
  <time>2026-09-01T20:00:39Z</time>
  <course>228.78</course>
  <speed>15.830138976016604</speed>
  <fix>3d</fix>
</trkpt>
<trkpt lat="-27.2678731" lon="151.3071652">
  <ele>517.14</ele>
  <time>2026-09-01T20:00:39Z</time>
  <course>230.84</course>
  <speed>13.61</speed>
  <fix>3d</fix>
</trkpt>
<trkpt lat="-27.2679001" lon="151.3071302">
  <ele>513.76</ele>
  <time>2026-09-01T20:00:39Z</time>
  <course>228.75</course>
  <speed>16.73280012430675</speed>
  <fix>3d</fix>
</trkpt>
<trkpt lat="-27.2678731" lon="151.3071652">
  <ele>517.14</ele>
  <time>2026-09-01T20:00:39Z</time>
  <course>230.84</course>
  <speed>13.61</speed>
  <fix>3d</fix>
</trkpt>
<trkpt lat="-27.2679105" lon="151.3071175">
  <ele>512.88</ele>
  <time>2026-09-01T20:00:39Z</time>
  <course>228.76</course>
  <speed>17.508683559879653</speed>
  <fix>3d</fix>
</trkpt>
<trkpt lat="-27.2678903" lon="151.3071425">
  <ele>514.84</ele>
  <time>2026-09-01T20:00:39Z</time>
  <course>228.5</course>
  <speed>15.74</speed>
  <fix>3d</fix>
</trkpt>
<trkpt lat="-27.2679213" lon="151.3071042">
  <ele>512.13</ele>
  <time>2026-09-01T20:00:39Z</time>
  <course>228.81</course>
  <speed>18.120507719156215</speed>
  <fix>3d</fix>
</trkpt>
<trkpt lat="-27.2678903" lon="151.3071425">
  <ele>514.84</ele>
  <time>2026-09-01T20:00:39Z</time>
  <course>228.5</course>
  <speed>15.74</speed>
  <fix>3d</fix>
</trkpt>
<trkpt lat="-27.2679324" lon="151.3070904">
  <ele>511.5</ele>
  <time>2026-09-01T20:00:39Z</time>
  <course>228.91</course>
  <speed>18.56083241667787</speed>
  <fix>3d</fix>
</trkpt>
<trkpt lat="-27.2679103" lon="151.3071176">
  <ele>512.97</ele>
  <time>2026-09-01T20:00:39Z</time>
  <course>227.59</course>
  <speed>17.41</speed>
  <fix>3d</fix>
</trkpt>
<trkpt lat="-27.2679435" lon="151.3070763">
  <ele>511.01</ele>
  <time>2026-09-01T20:00:39Z</time>
  <course>229.0</course>
  <speed>18.82101485042717</speed>
  <fix>3d</fix>
</trkpt>
<trkpt lat="-27.2679103" lon="151.3071176">
  <ele>512.97</ele>
  <time>2026-09-01T20:00:39Z</time>
  <course>227.59</course>
  <speed>17.41</speed>
  <fix>3d</fix>
</trkpt>
<trkpt lat="-27.2679547" lon="151.3070618">
  <ele>510.64</ele>
  <time>2026-09-01T20:00:39Z</time>
  <course>229.01</course>
  <speed>18.926122159597302</speed>
  <fix>3d</fix>
</trkpt>
<trkpt lat="-27.267932" lon="151.3070907">
  <ele>511.59</ele>
  <time>2026-09-01T20:00:39Z</time>
  <course>228.16</course>
  <speed>18.46</speed>
  <fix>3d</fix>
</trkpt>
<trkpt lat="-27.2679657" lon="151.3070473">
  <ele>510.36</ele>
  <time>2026-09-01T20:00:39Z</time>
  <course>228.97</course>
  <speed>18.914386059293598</speed>
  <fix>3d</fix>
</trkpt>
<trkpt lat="-27.267932" lon="151.3070907">
  <ele>511.59</ele>
  <time>2026-09-01T20:00:39Z</time>
  <course>228.16</course>
  <speed>18.46</speed>
  <fix>3d</fix>
</trkpt>
<trkpt lat="-27.2679767" lon="151.3070328">
  <ele>510.13</ele>
  <time>2026-09-01T20:00:39Z</time>
  <course>228.97</course>
  <speed>18.840979273912488</speed>
  <fix>3d</fix>
</trkpt>
<trkpt lat="-27.2679542" lon="151.3070622">
  <ele>510.7</ele>
  <time>2026-09-01T20:00:39Z</time>
  <course>229.18</course>
  <speed>18.87</speed>
  <fix>3d</fix>
</trkpt>
<trkpt lat="-27.2679875" lon="151.3070181">
  <ele>509.93</ele>
  <time>2026-09-01T20:00:39Z</time>
  <course>229.07</course>
  <speed>18.72824871684483</speed>
  <fix>3d</fix>
</trkpt>
<trkpt lat="-27.2679542" lon="151.3070622">
  <ele>510.7</ele>
  <time>2026-09-01T20:00:39Z</time>
  <course>229.18</course>
  <speed>18.87</speed>
  <fix>3d</fix>
</trkpt>
<trkpt lat="-27.2679984" lon="151.3070038">
  <ele>509.75</ele>
  <time>2026-09-01T20:00:39Z</time>
  <course>229.25</course>
  <speed>18.61312708816012</speed>
  <fix>3d</fix>
</trkpt>
<trkpt lat="-27.2679762" lon="151.3070332">
  <ele>510.15</ele>
  <time>2026-09-01T20:00:39Z</time>
  <course>229.75</course>
  <speed>18.83</speed>
  <fix>3d</fix>
</trkpt>
<trkpt lat="-27.2680091" lon="151.3069894">
  <ele>509.57</ele>
  <time>2026-09-01T20:00:39Z</time>
  <course>229.47</course>
  <speed>18.496856489684944</speed>
  <fix>3d</fix>
</trkpt>
<trkpt lat="-27.2679762" lon="151.3070332">
  <ele>510.15</ele>
  <time>2026-09-01T20:00:39Z</time>
  <course>229.75</course>
  <speed>18.83</speed>
  <fix>3d</fix>
</trkpt>
<trkpt lat="-27.2680199" lon="151.3069753">
  <ele>509.4</ele>
  <time>2026-09-01T20:00:39Z</time>
  <course>229.66</course>
  <speed>18.37302914600638</speed>
  <fix>3d</fix>
</trkpt>
<trkpt lat="-27.267998" lon="151.3070043">
  <ele>509.76</ele>
  <time>2026-09-01T20:00:39Z</time>
  <course>229.78</course>
  <speed>18.62</speed>
  <fix>3d</fix>
</trkpt>
<trkpt lat="-27.2680305" lon="151.3069612">
  <ele>509.23</ele>
  <time>2026-09-01T20:00:39Z</time>
  <course>229.81</course>
  <speed>18.256889110689148</speed>
  <fix>3d</fix>
</trkpt>
<trkpt lat="-27.267998" lon="151.3070043">
  <ele>509.76</ele>
  <time>2026-09-01T20:00:39Z</time>
  <course>229.78</course>
  <speed>18.62</speed>
  <fix>3d</fix>
</trkpt>
<trkpt lat="-27.2680412" lon="151.3069472">
  <ele>509.06</ele>
  <time>2026-09-01T20:00:39Z</time>
  <course>229.89</course>
  <speed>18.13539357168738</speed>
  <fix>3d</fix>
</trkpt>
<trkpt lat="-27.2680195" lon="151.3069758">
  <ele>509.4</ele>
  <time>2026-09-01T20:00:39Z</time>
  <course>229.6</course>
  <speed>18.38</speed>
  <fix>3d</fix>
</trkpt>
<trkpt lat="-27.2680517" lon="151.3069334">
  <ele>508.9</ele>
  <time>2026-09-01T20:00:39Z</time>
  <course>229.89</course>
  <speed>18.014999306133763</speed>
  <fix>3d</fix>
</trkpt>
<trkpt lat="-27.2680195" lon="151.3069758">
  <ele>509.4</ele>
  <time>2026-09-01T20:00:39Z</time>
  <course>229.6</course>
  <speed>18.38</speed>
  <fix>3d</fix>
</trkpt>
<trkpt lat="-27.2680622" lon="151.3069195">
  <ele>508.73</ele>
  <time>2026-09-01T20:00:39Z</time>
  <course>229.83</course>
  <speed>17.909810160914603</speed>
  <fix>3d</fix>
</trkpt>
<trkpt lat="-27.2680408" lon="151.3069477">
  <ele>509.07</ele>
  <time>2026-09-01T20:00:39Z</time>
  <course>229.47</course>
  <speed>18.14</speed>
  <fix>3d</fix>
</trkpt>
<trkpt lat="-27.2680726" lon="151.3069057">
  <ele>508.57</ele>
  <time>2026-09-01T20:00:39Z</time>
  <course>229.75</course>
  <speed>17.790536810338242</speed>
  <fix>3d</fix>
</trkpt>
<trkpt lat="-27.2680408" lon="151.3069477">
  <ele>509.07</ele>
  <time>2026-09-01T20:00:39Z</time>
  <course>229.47</course>
  <speed>18.14</speed>
  <fix>3d</fix>
</trkpt>
<trkpt lat="-27.2680829" lon="151.3068922">
  <ele>508.4</ele>
  <time>2026-09-01T20:00:39Z</time>
  <course>229.66</course>
  <speed>17.68651746387626</speed>
  <fix>3d</fix>
</trkpt>
<trkpt lat="-27.2680618" lon="151.30692">
  <ele>508.73</ele>
  <time>2026-09-01T20:00:39Z</time>
  <course>229.5</course>
  <speed>17.91</speed>
  <fix>3d</fix>
</trkpt>
<trkpt lat="-27.2680932" lon="151.3068786">
  <ele>508.24</ele>
  <time>2026-09-01T20:00:39Z</time>
  <course>229.6</course>
  <speed>17.574916785009254</speed>
  <fix>3d</fix>
</trkpt>
<trkpt lat="-27.2680618" lon="151.30692">
  <ele>508.73</ele>
  <time>2026-09-01T20:00:39Z</time>
  <course>229.5</course>
  <speed>17.91</speed>
  <fix>3d</fix>
</trkpt>
<trkpt lat="-27.2681034" lon="151.306865">
  <ele>508.08</ele>
  <time>2026-09-01T20:00:39Z</time>
  <course>229.58</course>
  <speed>17.46980251748714</speed>
  <fix>3d</fix>
</trkpt>
<trkpt lat="-27.2680826" lon="151.3068925">
  <ele>508.4</ele>
  <time>2026-09-01T20:00:39Z</time>
  <course>229.64</course>
  <speed>17.69</speed>
  <fix>3d</fix>
</trkpt>
<trkpt lat="-27.2681134" lon="151.3068515">
  <ele>507.92</ele>
  <time>2026-09-01T20:00:39Z</time>
  <course>229.59</course>
  <speed>17.36470270404881</speed>
  <fix>3d</fix>
</trkpt>
<trkpt lat="-27.2680826" lon="151.3068925">
  <ele>508.4</ele>
  <time>2026-09-01T20:00:39Z</time>
  <course>229.64</course>
  <speed>17.69</speed>
  <fix>3d</fix>
</trkpt>
<trkpt lat="-27.2681235" lon="151.3068382">
  <ele>507.76</ele>
  <time>2026-09-01T20:00:39Z</time>
  <course>229.64</course>
  <speed>17.26606208722765</speed>
  <fix>3d</fix>
</trkpt>
<trkpt lat="-27.268103" lon="151.3068654">
  <ele>508.08</ele>
  <time>2026-09-01T20:00:39Z</time>
  <course>229.78</course>
  <speed>17.48</speed>
  <fix>3d</fix>
</trkpt>
<trkpt lat="-27.2681335" lon="151.3068248">
  <ele>507.59</ele>
  <time>2026-09-01T20:00:39Z</time>
  <course>229.71</course>
  <speed>17.15977855334969</speed>
  <fix>3d</fix>
</trkpt>
<trkpt lat="-27.268103" lon="151.3068654">
  <ele>508.08</ele>
  <time>2026-09-01T20:00:39Z</time>
  <course>229.78</course>
  <speed>17.48</speed>
  <fix>3d</fix>
</trkpt>
<trkpt lat="-27.2663166" lon="151.31089">
  <ele>540.75</ele>
  <time>2026-09-01T20:00:39Z</time>
  <course>250.32</course>
  <speed>12.008696848534399</speed>
  <fix>3d</fix>
</trkpt>
<trkpt lat="-27.2681232" lon="151.3068386">
  <ele>507.76</ele>
  <time>2026-09-01T20:00:39Z</time>
  <course>229.85</course>
  <speed>17.27</speed>
  <fix>3d</fix>
</trkpt>
<trkpt lat="-27.2663191" lon="151.3108786">
  <ele>536.9</ele>
  <time>2026-09-01T20:00:39Z</time>
  <course>245.03</course>
  <speed>11.569356075426152</speed>
  <fix>3d</fix>
</trkpt>
<trkpt lat="-27.2681232" lon="151.3068386">
  <ele>507.76</ele>
  <time>2026-09-01T20:00:39Z</time>
  <course>229.85</course>
  <speed>17.27</speed>
  <fix>3d</fix>
</trkpt>
<trkpt lat="-27.2663228" lon="151.310867">
  <ele>533.07</ele>
  <time>2026-09-01T20:00:39Z</time>
  <course>229.51</course>
  <speed>12.844317809833264</speed>
  <fix>3d</fix>
</trkpt>
<trkpt lat="-27.2672261" lon="151.3088521">
  <ele>522.31</ele>
  <time>2026-09-01T20:00:39Z</time>
  <course>240.2</course>
  <speed>14.01</speed>
  <fix>3d</fix>
</trkpt>
<trkpt lat="-27.2663299" lon="151.310856">
  <ele>529.31</ele>
  <time>2026-09-01T20:00:39Z</time>
  <course>209.01</course>
  <speed>14.263817861989125</speed>
  <fix>3d</fix>
</trkpt>
<trkpt lat="-27.2672261" lon="151.3088521">
  <ele>522.31</ele>
  <time>2026-09-01T20:00:39Z</time>
  <course>240.2</course>
  <speed>14.01</speed>
  <fix>3d</fix>
</trkpt>
<trkpt lat="-27.2663406" lon="151.3108476">
  <ele>525.61</ele>
  <time>2026-09-01T20:00:39Z</time>
  <course>190.76</course>
  <speed>14.847508208450334</speed>
  <fix>3d</fix>
</trkpt>
<trkpt lat="-27.2663243" lon="151.3108676">
  <ele>533.23</ele>
  <time>2026-09-01T20:00:39Z</time>
  <course>238.59</course>
  <speed>12.43</speed>
  <fix>3d</fix>
</trkpt>
<trkpt lat="-27.2663531" lon="151.3108423">
  <ele>521.93</ele>
  <time>2026-09-01T20:00:39Z</time>
  <course>180.85</course>
  <speed>14.734262791195222</speed>
  <fix>3d</fix>
</trkpt>
<trkpt lat="-27.2663243" lon="151.3108676">
  <ele>533.23</ele>
  <time>2026-09-01T20:00:39Z</time>
  <course>238.59</course>
  <speed>12.43</speed>
  <fix>3d</fix>
</trkpt>
<trkpt lat="-27.2663662" lon="151.3108365">
  <ele>518.29</ele>
  <time>2026-09-01T20:00:39Z</time>
  <course>199.44</course>
  <speed>17.638594048279472</speed>
  <fix>3d</fix>
</trkpt>
<trkpt lat="-27.2663411" lon="151.3108494">
  <ele>525.74</ele>
  <time>2026-09-01T20:00:39Z</time>
  <course>210.49</course>
  <speed>14.05</speed>
  <fix>3d</fix>
</trkpt>
<trkpt lat="-27.2663814" lon="151.3108239">
  <ele>515.04</ele>
  <time>2026-09-01T20:00:39Z</time>
  <course>212.74</course>
  <speed>25.114722773703875</speed>
  <fix>3d</fix>
</trkpt>
<trkpt lat="-27.2663411" lon="151.3108494">
  <ele>525.74</ele>
  <time>2026-09-01T20:00:39Z</time>
  <course>210.49</course>
  <speed>14.05</speed>
  <fix>3d</fix>
</trkpt>
<trkpt lat="-27.2663999" lon="151.3108039">
  <ele>512.52</ele>
  <time>2026-09-01T20:00:39Z</time>
  <course>220.66</course>
  <speed>31.523534065837225</speed>
  <fix>3d</fix>
</trkpt>
<trkpt lat="-27.2663667" lon="151.3108334">
  <ele>518.59</ele>
  <time>2026-09-01T20:00:39Z</time>
  <course>212.14</course>
  <speed>19.38</speed>
  <fix>3d</fix>
</trkpt>
<trkpt lat="-27.2664206" lon="151.3107795">
  <ele>510.91</ele>
  <time>2026-09-01T20:00:39Z</time>
  <course>225.19</course>
  <speed>34.87142239714348</speed>
  <fix>3d</fix>
</trkpt>
<trkpt lat="-27.2663667" lon="151.3108334">
  <ele>518.59</ele>
  <time>2026-09-01T20:00:39Z</time>
  <course>212.14</course>
  <speed>19.38</speed>
  <fix>3d</fix>
</trkpt>
<trkpt lat="-27.2664422" lon="151.3107533">
  <ele>510.36</ele>
  <time>2026-09-01T20:00:39Z</time>
  <course>226.44</course>
  <speed>35.10920676973492</speed>
  <fix>3d</fix>
</trkpt>
<trkpt lat="-27.2664003" lon="151.3108023">
  <ele>513.04</ele>
  <time>2026-09-01T20:00:39Z</time>
  <course>224.49</course>
  <speed>29.8</speed>
  <fix>3d</fix>
</trkpt>
<trkpt lat="-27.2664632" lon="151.3107287">
  <ele>510.88</ele>
  <time>2026-09-01T20:00:39Z</time>
  <course>224.2</course>
  <speed>31.88344554780741</speed>
  <fix>3d</fix>
</trkpt>
<trkpt lat="-27.2664003" lon="151.3108023">
  <ele>513.04</ele>
  <time>2026-09-01T20:00:39Z</time>
  <course>224.49</course>
  <speed>29.8</speed>
  <fix>3d</fix>
</trkpt>
<trkpt lat="-27.2664826" lon="151.3107085">
  <ele>512.23</ele>
  <time>2026-09-01T20:00:39Z</time>
  <course>218.28</course>
  <speed>26.980075982102054</speed>
  <fix>3d</fix>
</trkpt>
<trkpt lat="-27.2664412" lon="151.3107549">
  <ele>510.89</ele>
  <time>2026-09-01T20:00:39Z</time>
  <course>225.99</course>
  <speed>33.42</speed>
  <fix>3d</fix>
</trkpt>
<trkpt lat="-27.2665003" lon="151.3106939">
  <ele>514.1</ele>
  <time>2026-09-01T20:00:39Z</time>
  <course>208.88</course>
  <speed>22.125336155638408</speed>
  <fix>3d</fix>
</trkpt>
<trkpt lat="-27.2664412" lon="151.3107549">
  <ele>510.89</ele>
  <time>2026-09-01T20:00:39Z</time>
  <course>225.99</course>
  <speed>33.42</speed>
  <fix>3d</fix>
</trkpt>
<trkpt lat="-27.2665162" lon="151.3106844">
  <ele>516.24</ele>
  <time>2026-09-01T20:00:39Z</time>
  <course>200.06</course>
  <speed>18.20472466147181</speed>
  <fix>3d</fix>
</trkpt>
<trkpt lat="-27.2664811" lon="151.3107119">
  <ele>512.44</ele>
  <time>2026-09-01T20:00:39Z</time>
  <course>219.87</course>
  <speed>27.0</speed>
  <fix>3d</fix>
</trkpt>
<trkpt lat="-27.2665303" lon="151.3106793">
  <ele>518.48</ele>
  <time>2026-09-01T20:00:39Z</time>
  <course>188.93</course>
  <speed>14.776010963720891</speed>
  <fix>3d</fix>
</trkpt>
<trkpt lat="-27.2664811" lon="151.3107119">
  <ele>512.44</ele>
  <time>2026-09-01T20:00:39Z</time>
  <course>219.87</course>
  <speed>27.0</speed>
  <fix>3d</fix>
</trkpt>
<trkpt lat="-27.2665419" lon="151.3106774">
  <ele>520.77</ele>
  <time>2026-09-01T20:00:39Z</time>
  <course>175.73</course>
  <speed>11.391422211471227</speed>
  <fix>3d</fix>
</trkpt>
<trkpt lat="-27.2665147" lon="151.3106868">
  <ele>516.22</ele>
  <time>2026-09-01T20:00:39Z</time>
  <course>204.93</course>
  <speed>18.35</speed>
  <fix>3d</fix>
</trkpt>
<trkpt lat="-27.2665506" lon="151.3106777">
  <ele>523.07</ele>
  <time>2026-09-01T20:00:39Z</time>
  <course>162.0</course>
  <speed>8.356757744484401</speed>
  <fix>3d</fix>
</trkpt>
<trkpt lat="-27.2665147" lon="151.3106868">
  <ele>516.22</ele>
  <time>2026-09-01T20:00:39Z</time>
  <course>204.93</course>
  <speed>18.35</speed>
  <fix>3d</fix>
</trkpt>
<trkpt lat="-27.2665568" lon="151.3106799">
  <ele>525.31</ele>
  <time>2026-09-01T20:00:39Z</time>
  <course>152.03</course>
  <speed>6.0598432322957</speed>
  <fix>3d</fix>
</trkpt>
<trkpt lat="-27.2665401" lon="151.3106786">
  <ele>520.7</ele>
  <time>2026-09-01T20:00:39Z</time>
  <course>185.36</course>
  <speed>11.43</speed>
  <fix>3d</fix>
</trkpt>
<trkpt lat="-27.2665609" lon="151.3106824">
  <ele>527.47</ele>
  <time>2026-09-01T20:00:39Z</time>
  <course>150.24</course>
  <speed>4.662552948761011</speed>
  <fix>3d</fix>
</trkpt>
<trkpt lat="-27.2665401" lon="151.3106786">
  <ele>520.7</ele>
  <time>2026-09-01T20:00:39Z</time>
  <course>185.36</course>
  <speed>11.43</speed>
  <fix>3d</fix>
</trkpt>
<trkpt lat="-27.2665641" lon="151.3106852">
  <ele>529.59</ele>
  <time>2026-09-01T20:00:39Z</time>
  <course>153.6</course>
  <speed>4.090195594345092</speed>
  <fix>3d</fix>
</trkpt>
<trkpt lat="-27.2665556" lon="151.31068">
  <ele>525.21</ele>
  <time>2026-09-01T20:00:39Z</time>
  <course>161.6</course>
  <speed>6.42</speed>
  <fix>3d</fix>
</trkpt>
<trkpt lat="-27.266567" lon="151.3106877">
  <ele>531.53</ele>
  <time>2026-09-01T20:00:39Z</time>
  <course>155.99</course>
  <speed>4.206007608171911</speed>
  <fix>3d</fix>
</trkpt>
<trkpt lat="-27.2665556" lon="151.31068">
  <ele>525.21</ele>
  <time>2026-09-01T20:00:39Z</time>
  <course>161.6</course>
  <speed>6.42</speed>
  <fix>3d</fix>
</trkpt>
<trkpt lat="-27.2665703" lon="151.3106904">
  <ele>533.33</ele>
  <time>2026-09-01T20:00:39Z</time>
  <course>156.54</course>
  <speed>4.78715990959149</speed>
  <fix>3d</fix>
</trkpt>
<trkpt lat="-27.2665638" lon="151.3106849">
  <ele>529.42</ele>
  <time>2026-09-01T20:00:39Z</time>
  <course>144.42</course>
  <speed>4.44</speed>
  <fix>3d</fix>
</trkpt>
<trkpt lat="-27.2665743" lon="151.310693">
  <ele>535.0</ele>
  <time>2026-09-01T20:00:39Z</time>
  <course>156.15</course>
  <speed>5.603079510412109</speed>
  <fix>3d</fix>
</trkpt>
<trkpt lat="-27.2665638" lon="151.3106849">
  <ele>529.42</ele>
  <time>2026-09-01T20:00:39Z</time>
  <course>144.42</course>
  <speed>4.44</speed>
  <fix>3d</fix>
</trkpt>
<trkpt lat="-27.266579" lon="151.3106961">
  <ele>536.52</ele>
  <time>2026-09-01T20:00:39Z</time>
  <course>155.48</course>
  <speed>6.4533402203820005</speed>
  <fix>3d</fix>
</trkpt>
<trkpt lat="-27.2665704" lon="151.3106902">
  <ele>533.16</ele>
  <time>2026-09-01T20:00:39Z</time>
  <course>146.56</course>
  <speed>4.86</speed>
  <fix>3d</fix>
</trkpt>
<trkpt lat="-27.2665844" lon="151.3106994">
  <ele>537.89</ele>
  <time>2026-09-01T20:00:39Z</time>
  <course>154.81</course>
  <speed>7.2241954569349796</speed>
  <fix>3d</fix>
</trkpt>
<trkpt lat="-27.2665704" lon="151.3106902">
  <ele>533.16</ele>
  <time>2026-09-01T20:00:39Z</time>
  <course>146.56</course>
  <speed>4.86</speed>
  <fix>3d</fix>
</trkpt>
<trkpt lat="-27.2665903" lon="151.3107028">
  <ele>539.07</ele>
  <time>2026-09-01T20:00:39Z</time>
  <course>154.23</course>
  <speed>7.844800826024839</speed>
  <fix>3d</fix>
</trkpt>
<trkpt lat="-27.266579" lon="151.310696">
  <ele>536.36</ele>
  <time>2026-09-01T20:00:39Z</time>
  <course>150.94</course>
  <speed>6.37</speed>
  <fix>3d</fix>
</trkpt>
<trkpt lat="-27.2665967" lon="151.3107066">
  <ele>540.13</ele>
  <time>2026-09-01T20:00:39Z</time>
  <course>153.74</course>
  <speed>8.327550660308228</speed>
  <fix>3d</fix>
</trkpt>
<trkpt lat="-27.266579" lon="151.310696">
  <ele>536.36</ele>
  <time>2026-09-01T20:00:39Z</time>
  <course>150.94</course>
  <speed>6.37</speed>
  <fix>3d</fix>
</trkpt>
<trkpt lat="-27.2666035" lon="151.3107105">
  <ele>541.04</ele>
  <time>2026-09-01T20:00:39Z</time>
  <course>153.33</course>
  <speed>8.64948553383379</speed>
  <fix>3d</fix>
</trkpt>
<trkpt lat="-27.2665903" lon="151.3107028">
  <ele>538.95</ele>
  <time>2026-09-01T20:00:39Z</time>
  <course>152.51</course>
  <speed>7.75</speed>
  <fix>3d</fix>
</trkpt>
<trkpt lat="-27.2666105" lon="151.3107145">
  <ele>541.83</ele>
  <time>2026-09-01T20:00:39Z</time>
  <course>153.01</course>
  <speed>8.83726767728578</speed>
  <fix>3d</fix>
</trkpt>
<trkpt lat="-27.2665903" lon="151.3107028">
  <ele>538.95</ele>
  <time>2026-09-01T20:00:39Z</time>
  <course>152.51</course>
  <speed>7.75</speed>
  <fix>3d</fix>
</trkpt>
<trkpt lat="-27.2666177" lon="151.3107186">
  <ele>542.49</ele>
  <time>2026-09-01T20:00:39Z</time>
  <course>152.72</course>
  <speed>8.94016219092249</speed>
  <fix>3d</fix>
</trkpt>
<trkpt lat="-27.2666034" lon="151.3107104">
  <ele>540.95</ele>
  <time>2026-09-01T20:00:39Z</time>
  <course>152.87</course>
  <speed>8.58</speed>
  <fix>3d</fix>
</trkpt>
<trkpt lat="-27.2666248" lon="151.3107227">
  <ele>543.02</ele>
  <time>2026-09-01T20:00:39Z</time>
  <course>152.24</course>
  <speed>9.002899532928266</speed>
  <fix>3d</fix>
</trkpt>
<trkpt lat="-27.2666034" lon="151.3107104">
  <ele>540.95</ele>
  <time>2026-09-01T20:00:39Z</time>
  <course>152.87</course>
  <speed>8.58</speed>
  <fix>3d</fix>
</trkpt>
<trkpt lat="-27.266632" lon="151.3107269">
  <ele>543.44</ele>
  <time>2026-09-01T20:00:39Z</time>
  <course>151.58</course>
  <speed>9.029828348313162</speed>
  <fix>3d</fix>
</trkpt>
<trkpt lat="-27.2666174" lon="151.3107185">
  <ele>542.41</ele>
  <time>2026-09-01T20:00:39Z</time>
  <course>152.87</course>
  <speed>8.92</speed>
  <fix>3d</fix>
</trkpt>
<trkpt lat="-27.2666393" lon="151.3107311">
  <ele>543.75</ele>
  <time>2026-09-01T20:00:39Z</time>
  <course>151.01</course>
  <speed>8.994003557926803</speed>
  <fix>3d</fix>
</trkpt>
<trkpt lat="-27.2666174" lon="151.3107185">
  <ele>542.41</ele>
  <time>2026-09-01T20:00:39Z</time>
  <course>152.87</course>
  <speed>8.92</speed>
  <fix>3d</fix>
</trkpt>
<trkpt lat="-27.2666464" lon="151.3107353">
  <ele>544.0</ele>
  <time>2026-09-01T20:00:39Z</time>
  <course>150.29</course>
  <speed>8.864423275092408</speed>
  <fix>3d</fix>
</trkpt>
<trkpt lat="-27.2666318" lon="151.3107268">
  <ele>543.37</ele>
  <time>2026-09-01T20:00:39Z</time>
  <course>152.79</course>
  <speed>9.0</speed>
  <fix>3d</fix>
</trkpt>
<trkpt lat="-27.2666534" lon="151.3107393">
  <ele>544.22</ele>
  <time>2026-09-01T20:00:39Z</time>
  <course>149.02</course>
  <speed>8.601034821461893</speed>
  <fix>3d</fix>
</trkpt>
<trkpt lat="-27.2666318" lon="151.3107268">
  <ele>543.37</ele>
  <time>2026-09-01T20:00:39Z</time>
  <course>152.79</course>
  <speed>9.0</speed>
  <fix>3d</fix>
</trkpt>
<trkpt lat="-27.2666601" lon="151.3107432">
  <ele>544.46</ele>
  <time>2026-09-01T20:00:39Z</time>
  <course>147.33</course>
  <speed>8.168824884890116</speed>
  <fix>3d</fix>
</trkpt>
<trkpt lat="-27.266646" lon="151.310735">
  <ele>543.98</ele>
  <time>2026-09-01T20:00:39Z</time>
  <course>152.62</course>
  <speed>8.81</speed>
  <fix>3d</fix>
</trkpt>
<trkpt lat="-27.2666663" lon="151.310747">
  <ele>544.72</ele>
  <time>2026-09-01T20:00:39Z</time>
  <course>145.7</course>
  <speed>7.6217648874784905</speed>
  <fix>3d</fix>
</trkpt>
<trkpt lat="-27.266646" lon="151.310735">
  <ele>543.98</ele>
  <time>2026-09-01T20:00:39Z</time>
  <course>152.62</course>
  <speed>8.81</speed>
  <fix>3d</fix>
</trkpt>
<trkpt lat="-27.266672" lon="151.3107507">
  <ele>545.0</ele>
  <time>2026-09-01T20:00:39Z</time>
  <course>144.34</course>
  <speed>7.008031107236897</speed>
  <fix>3d</fix>
</trkpt>
<trkpt lat="-27.2666595" lon="151.3107431">
  <ele>544.46</ele>
  <time>2026-09-01T20:00:39Z</time>
  <course>151.9</course>
  <speed>8.13</speed>
  <fix>3d</fix>
</trkpt>
<trkpt lat="-27.2666773" lon="151.3107541">
  <ele>545.31</ele>
  <time>2026-09-01T20:00:39Z</time>
  <course>143.22</course>
  <speed>6.376848751538647</speed>
  <fix>3d</fix>
</trkpt>
<trkpt lat="-27.2666595" lon="151.3107431">
  <ele>544.46</ele>
  <time>2026-09-01T20:00:39Z</time>
  <course>151.9</course>
  <speed>8.13</speed>
  <fix>3d</fix>
</trkpt>
<trkpt lat="-27.2666819" lon="151.3107571">
  <ele>545.63</ele>
  <time>2026-09-01T20:00:39Z</time>
  <course>142.27</course>
  <speed>5.745206697761187</speed>
  <fix>3d</fix>
</trkpt>
<trkpt lat="-27.2666716" lon="151.3107504">
  <ele>545.0</ele>
  <time>2026-09-01T20:00:39Z</time>
  <course>150.56</course>
  <speed>7.02</speed>
  <fix>3d</fix>
</trkpt>
<trkpt lat="-27.2666863" lon="151.31076">
  <ele>545.96</ele>
  <time>2026-09-01T20:00:39Z</time>
  <course>141.38</course>
  <speed>5.104057209710722</speed>
  <fix>3d</fix>
</trkpt>
<trkpt lat="-27.2666716" lon="151.3107504">
  <ele>545.0</ele>
  <time>2026-09-01T20:00:39Z</time>
  <course>150.56</course>
  <speed>7.02</speed>
  <fix>3d</fix>
</trkpt>
<trkpt lat="-27.2666899" lon="151.3107627">
  <ele>546.3</ele>
  <time>2026-09-01T20:00:39Z</time>
  <course>140.57</course>
  <speed>4.502899066157268</speed>
  <fix>3d</fix>
</trkpt>
<trkpt lat="-27.2666815" lon="151.310757">
  <ele>545.62</ele>
  <time>2026-09-01T20:00:39Z</time>
  <course>149.17</course>
  <speed>5.77</speed>
  <fix>3d</fix>
</trkpt>
<trkpt lat="-27.2666931" lon="151.310765">
  <ele>546.63</ele>
  <time>2026-09-01T20:00:39Z</time>
  <course>139.79</course>
  <speed>3.919311163967464</speed>
  <fix>3d</fix>
</trkpt>
<trkpt lat="-27.2666815" lon="151.310757">
  <ele>545.62</ele>
  <time>2026-09-01T20:00:39Z</time>
  <course>149.17</course>
  <speed>5.77</speed>
  <fix>3d</fix>
</trkpt>
<trkpt lat="-27.2666959" lon="151.310767">
  <ele>546.96</ele>
  <time>2026-09-01T20:00:39Z</time>
  <course>139.06</course>
  <speed>3.361487765856065</speed>
  <fix>3d</fix>
</trkpt>
<trkpt lat="-27.2666894" lon="151.3107623">
  <ele>546.28</ele>
  <time>2026-09-01T20:00:39Z</time>
  <course>147.88</course>
  <speed>4.55</speed>
  <fix>3d</fix>
</trkpt>
<trkpt lat="-27.2666982" lon="151.3107686">
  <ele>547.29</ele>
  <time>2026-09-01T20:00:39Z</time>
  <course>138.4</course>
  <speed>2.8264642223102703</speed>
  <fix>3d</fix>
</trkpt>
<trkpt lat="-27.2666894" lon="151.3107623">
  <ele>546.28</ele>
  <time>2026-09-01T20:00:39Z</time>
  <course>147.88</course>
  <speed>4.55</speed>
  <fix>3d</fix>
</trkpt>
<trkpt lat="-27.2667" lon="151.3107701">
  <ele>547.61</ele>
  <time>2026-09-01T20:00:39Z</time>
  <course>137.83</course>
  <speed>2.2924222996647017</speed>
  <fix>3d</fix>
</trkpt>
<trkpt lat="-27.2666954" lon="151.3107667">
  <ele>546.94</ele>
  <time>2026-09-01T20:00:39Z</time>
  <course>146.46</course>
  <speed>3.41</speed>
  <fix>3d</fix>
</trkpt>
<trkpt lat="-27.2667015" lon="151.3107714">
  <ele>547.94</ele>
  <time>2026-09-01T20:00:39Z</time>
  <course>137.37</course>
  <speed>1.752369823981228</speed>
  <fix>3d</fix>
</trkpt>
<trkpt lat="-27.2666954" lon="151.3107667">
  <ele>546.94</ele>
  <time>2026-09-01T20:00:39Z</time>
  <course>146.46</course>
  <speed>3.41</speed>
  <fix>3d</fix>
</trkpt>
<trkpt lat="-27.2667025" lon="151.3107724">
  <ele>548.27</ele>
  <time>2026-09-01T20:00:39Z</time>
  <course>137.01</course>
  <speed>1.2182774724995944</speed>
  <fix>3d</fix>
</trkpt>
<trkpt lat="-27.2666996" lon="151.31077">
  <ele>547.59</ele>
  <time>2026-09-01T20:00:39Z</time>
  <course>144.2</course>
  <speed>2.32</speed>
  <fix>3d</fix>
</trkpt>
<trkpt lat="-27.2667033" lon="151.3107732">
  <ele>548.54</ele>
  <time>2026-09-01T20:00:39Z</time>
  <course>136.73</course>
  <speed>1.239072233568326</speed>
  <fix>3d</fix>
</trkpt>
<trkpt lat="-27.2666996" lon="151.31077">
  <ele>547.59</ele>
  <time>2026-09-01T20:00:39Z</time>
  <course>144.2</course>
  <speed>2.32</speed>
  <fix>3d</fix>
</trkpt>
<trkpt lat="-27.2667042" lon="151.3107741">
  <ele>548.72</ele>
  <time>2026-09-01T20:00:39Z</time>
  <course>136.5</course>
  <speed>1.2747548783981961</speed>
  <fix>3d</fix>
</trkpt>
<trkpt lat="-27.2667023" lon="151.3107723">
  <ele>548.22</ele>
  <time>2026-09-01T20:00:39Z</time>
  <course>140.44</course>
  <speed>1.51</speed>
  <fix>3d</fix>
</trkpt>
<trkpt lat="-27.266705" lon="151.310775">
  <ele>548.8</ele>
  <time>2026-09-01T20:00:39Z</time>
  <course>136.29</course>
  <speed>1.2673200069437869</speed>
  <fix>3d</fix>
</trkpt>
<trkpt lat="-27.2667023" lon="151.3107723">
  <ele>548.22</ele>
  <time>2026-09-01T20:00:39Z</time>
  <course>140.44</course>
  <speed>1.51</speed>
  <fix>3d</fix>
</trkpt>
<trkpt lat="-27.2667059" lon="151.3107757">
  <ele>548.78</ele>
  <time>2026-09-01T20:00:39Z</time>
  <course>136.1</course>
  <speed>1.2531959144523253</speed>
  <fix>3d</fix>
</trkpt>
<trkpt lat="-27.2667041" lon="151.310774">
  <ele>548.66</ele>
  <time>2026-09-01T20:00:39Z</time>
  <course>138.03</course>
  <speed>1.25</speed>
  <fix>3d</fix>
</trkpt>
<trkpt lat="-27.2667067" lon="151.3107767">
  <ele>548.66</ele>
  <time>2026-09-01T20:00:39Z</time>
  <course>135.9</course>
  <speed>1.210826164236634</speed>
  <fix>3d</fix>
</trkpt>
<trkpt lat="-27.2667041" lon="151.310774">
  <ele>548.66</ele>
  <time>2026-09-01T20:00:39Z</time>
  <course>138.03</course>
  <speed>1.25</speed>
  <fix>3d</fix>
</trkpt>
<trkpt lat="-27.2667075" lon="151.3107774">
  <ele>548.46</ele>
  <time>2026-09-01T20:00:39Z</time>
  <course>135.41</course>
  <speed>1.1280514172678477</speed>
  <fix>3d</fix>
</trkpt>
<trkpt lat="-27.2667058" lon="151.3107757">
  <ele>548.73</ele>
  <time>2026-09-01T20:00:39Z</time>
  <course>138.04</course>
  <speed>1.24</speed>
  <fix>3d</fix>
</trkpt>
<trkpt lat="-27.2667083" lon="151.3107781">
  <ele>548.19</ele>
  <time>2026-09-01T20:00:39Z</time>
  <course>133.63</course>
  <speed>1.0404326023342407</speed>
  <fix>3d</fix>
</trkpt>
<trkpt lat="-27.2667058" lon="151.3107757">
  <ele>548.73</ele>
  <time>2026-09-01T20:00:39Z</time>
  <course>138.04</course>
  <speed>1.24</speed>
  <fix>3d</fix>
</trkpt>
<trkpt lat="-27.266709" lon="151.3107786">
  <ele>547.86</ele>
  <time>2026-09-01T20:00:39Z</time>
  <course>129.91</course>
  <speed>0.9749358953285082</speed>
  <fix>3d</fix>
</trkpt>
<trkpt lat="-27.2667074" lon="151.3107773">
  <ele>548.43</ele>
  <time>2026-09-01T20:00:39Z</time>
  <course>140.93</course>
  <speed>1.13</speed>
  <fix>3d</fix>
</trkpt>
<trkpt lat="-27.2667098" lon="151.310779">
  <ele>547.49</ele>
  <time>2026-09-01T20:00:39Z</time>
  <course>124.58</course>
  <speed>0.9154780172128657</speed>
  <fix>3d</fix>
</trkpt>
<trkpt lat="-27.2667074" lon="151.3107773">
  <ele>548.43</ele>
  <time>2026-09-01T20:00:39Z</time>
  <course>140.93</course>
  <speed>1.13</speed>
  <fix>3d</fix>
</trkpt>
<trkpt lat="-27.2667105" lon="151.3107794">
  <ele>547.08</ele>
  <time>2026-09-01T20:00:39Z</time>
  <course>120.24</course>
  <speed>0.83773504164503</speed>
  <fix>3d</fix>
</trkpt>
<trkpt lat="-27.266709" lon="151.3107785">
  <ele>547.85</ele>
  <time>2026-09-01T20:00:39Z</time>
  <course>150.62</course>
  <speed>0.97</speed>
  <fix>3d</fix>
</trkpt>
<trkpt lat="-27.2667112" lon="151.3107796">
  <ele>546.62</ele>
  <time>2026-09-01T20:00:39Z</time>
  <course>117.07</course>
  <speed>0.7782030583337487</speed>
  <fix>3d</fix>
</trkpt>
<trkpt lat="-27.266709" lon="151.3107785">
  <ele>547.85</ele>
  <time>2026-09-01T20:00:39Z</time>
  <course>150.62</course>
  <speed>0.97</speed>
  <fix>3d</fix>
</trkpt>
<trkpt lat="-27.2667118" lon="151.3107801">
  <ele>546.13</ele>
  <time>2026-09-01T20:00:39Z</time>
  <course>114.69</course>
  <speed>0.7702596964660685</speed>
  <fix>3d</fix>
</trkpt>
<trkpt lat="-27.2667105" lon="151.3107793">
  <ele>547.07</ele>
  <time>2026-09-01T20:00:39Z</time>
  <course>155.94</course>
  <speed>0.85</speed>
  <fix>3d</fix>
</trkpt>
<trkpt lat="-27.2667124" lon="151.3107805">
  <ele>545.58</ele>
  <time>2026-09-01T20:00:39Z</time>
  <course>112.88</course>
  <speed>0.8184130986244049</speed>
  <fix>3d</fix>
</trkpt>
<trkpt lat="-27.2667105" lon="151.3107793">
  <ele>547.07</ele>
  <time>2026-09-01T20:00:39Z</time>
  <course>155.94</course>
  <speed>0.85</speed>
  <fix>3d</fix>
</trkpt>
<trkpt lat="-27.2667131" lon="151.310781">
  <ele>544.96</ele>
  <time>2026-09-01T20:00:39Z</time>
  <course>111.56</course>
  <speed>0.8949860334105779</speed>
  <fix>3d</fix>
</trkpt>
<trkpt lat="-27.2667118" lon="151.3107801">
  <ele>546.12</ele>
  <time>2026-09-01T20:00:39Z</time>
  <course>149.44</course>
  <speed>0.8</speed>
  <fix>3d</fix>
</trkpt>
<trkpt lat="-27.2667137" lon="151.3107818">
  <ele>544.27</ele>
  <time>2026-09-01T20:00:39Z</time>
  <course>111.24</course>
  <speed>1.3580132547217645</speed>
  <fix>3d</fix>
</trkpt>
<trkpt lat="-27.2667118" lon="151.3107801">
  <ele>546.12</ele>
  <time>2026-09-01T20:00:39Z</time>
  <course>149.44</course>
  <speed>0.8</speed>
  <fix>3d</fix>
</trkpt>
<trkpt lat="-27.2667145" lon="151.3107832">
  <ele>543.52</ele>
  <time>2026-09-01T20:00:39Z</time>
  <course>114.91</course>
  <speed>1.7700282483621552</speed>
  <fix>3d</fix>
</trkpt>
<trkpt lat="-27.266713" lon="151.3107811">
  <ele>544.95</ele>
  <time>2026-09-01T20:00:39Z</time>
  <course>134.12</course>
  <speed>1.06</speed>
  <fix>3d</fix>
</trkpt>
<trkpt lat="-27.2667153" lon="151.3107848">
  <ele>542.66</ele>
  <time>2026-09-01T20:00:39Z</time>
  <course>171.3</course>
  <speed>1.708156901458411</speed>
  <fix>3d</fix>
</trkpt>
<trkpt lat="-27.266713" lon="151.3107811">
  <ele>544.95</ele>
  <time>2026-09-01T20:00:39Z</time>
  <course>134.12</course>
  <speed>1.06</speed>
  <fix>3d</fix>
</trkpt>
<trkpt lat="-27.2667161" lon="151.3107861">
  <ele>541.72</ele>
  <time>2026-09-01T20:00:39Z</time>
  <course>258.05</course>
  <speed>1.3124404748406686</speed>
  <fix>3d</fix>
</trkpt>
<trkpt lat="-27.2667145" lon="151.3107832">
  <ele>543.52</ele>
  <time>2026-09-01T20:00:39Z</time>
  <course>123.36</course>
  <speed>1.52</speed>
  <fix>3d</fix>
</trkpt>
<trkpt lat="-27.2667167" lon="151.3107868">
  <ele>540.68</ele>
  <time>2026-09-01T20:00:39Z</time>
  <course>257.46</course>
  <speed>0.8558621384311844</speed>
  <fix>3d</fix>
</trkpt>
<trkpt lat="-27.2667145" lon="151.3107832">
  <ele>543.52</ele>
  <time>2026-09-01T20:00:39Z</time>
  <course>123.36</course>
  <speed>1.52</speed>
  <fix>3d</fix>
</trkpt>
<trkpt lat="-27.2667172" lon="151.3107872">
  <ele>539.54</ele>
  <time>2026-09-01T20:00:39Z</time>
  <course>249.01</course>
  <speed>0.5371219600798314</speed>
  <fix>3d</fix>
</trkpt>
<trkpt lat="-27.2667159" lon="151.3107858">
  <ele>541.73</ele>
  <time>2026-09-01T20:00:39Z</time>
  <course>125.49</course>
  <speed>1.29</speed>
  <fix>3d</fix>
</trkpt>
<trkpt lat="-27.2667176" lon="151.3107873">
  <ele>538.33</ele>
  <time>2026-09-01T20:00:39Z</time>
  <course>244.59</course>
  <speed>0.3901281840626232</speed>
  <fix>3d</fix>
</trkpt>
<trkpt lat="-27.2667159" lon="151.3107858">
  <ele>541.73</ele>
  <time>2026-09-01T20:00:39Z</time>
  <course>125.49</course>
  <speed>1.29</speed>
  <fix>3d</fix>
</trkpt>
<trkpt lat="-27.2667179" lon="151.3107872">
  <ele>537.01</ele>
  <time>2026-09-01T20:00:39Z</time>
  <course>250.35</course>
  <speed>0.3661966684720111</speed>
  <fix>3d</fix>
</trkpt>
<trkpt lat="-27.2667171" lon="151.3107871">
  <ele>539.57</ele>
  <time>2026-09-01T20:00:39Z</time>
  <course>148.93</course>
  <speed>0.6</speed>
  <fix>3d</fix>
</trkpt>
<trkpt lat="-27.2667181" lon="151.310787">
  <ele>535.61</ele>
  <time>2026-09-01T20:00:39Z</time>
  <course>263.91</course>
  <speed>0.49040799340956914</speed>
  <fix>3d</fix>
</trkpt>
<trkpt lat="-27.2667171" lon="151.3107871">
  <ele>539.57</ele>
  <time>2026-09-01T20:00:39Z</time>
  <course>148.93</course>
  <speed>0.6</speed>
  <fix>3d</fix>
</trkpt>
<trkpt lat="-27.2667181" lon="151.3107863">
  <ele>534.13</ele>
  <time>2026-09-01T20:00:39Z</time>
  <course>280.99</course>
  <speed>0.8440379138403676</speed>
  <fix>3d</fix>
</trkpt>
<trkpt lat="-27.2667178" lon="151.3107872">
  <ele>537.05</ele>
  <time>2026-09-01T20:00:39Z</time>
  <course>220.05</course>
  <speed>0.35</speed>
  <fix>3d</fix>
</trkpt>
<trkpt lat="-27.2667176" lon="151.3107853">
  <ele>532.57</ele>
  <time>2026-09-01T20:00:39Z</time>
  <course>298.99</course>
  <speed>1.38452157801892</speed>
  <fix>3d</fix>
</trkpt>
<trkpt lat="-27.2667178" lon="151.3107872">
  <ele>537.05</ele>
  <time>2026-09-01T20:00:39Z</time>
  <course>220.05</course>
  <speed>0.35</speed>
  <fix>3d</fix>
</trkpt>
<trkpt lat="-27.2667166" lon="151.3107842">
  <ele>530.94</ele>
  <time>2026-09-01T20:00:39Z</time>
  <course>317.09</course>
  <speed>2.0365657367244494</speed>
  <fix>3d</fix>
</trkpt>
<trkpt lat="-27.2667178" lon="151.3107862">
  <ele>534.18</ele>
  <time>2026-09-01T20:00:39Z</time>
  <course>291.0</course>
  <speed>0.84</speed>
  <fix>3d</fix>
</trkpt>
<trkpt lat="-27.2667148" lon="151.3107829">
  <ele>529.24</ele>
  <time>2026-09-01T20:00:39Z</time>
  <course>335.3</course>
  <speed>2.7079512551004314</speed>
  <fix>3d</fix>
</trkpt>
<trkpt lat="-27.2667178" lon="151.3107862">
  <ele>534.18</ele>
  <time>2026-09-01T20:00:39Z</time>
  <course>291.0</course>
  <speed>0.84</speed>
  <fix>3d</fix>
</trkpt>
<trkpt lat="-27.2667122" lon="151.310782">
  <ele>527.48</ele>
  <time>2026-09-01T20:00:39Z</time>
  <course>353.83</course>
  <speed>3.3460723243827233</speed>
  <fix>3d</fix>
</trkpt>
<trkpt lat="-27.2667163" lon="151.3107842">
  <ele>531.0</ele>
  <time>2026-09-01T20:00:39Z</time>
  <course>324.76</course>
  <speed>1.95</speed>
  <fix>3d</fix>
</trkpt>
<trkpt lat="-27.266709" lon="151.3107818">
  <ele>525.66</ele>
  <time>2026-09-01T20:00:39Z</time>
  <course>12.83</course>
  <speed>3.8962161131025574</speed>
  <fix>3d</fix>
</trkpt>
<trkpt lat="-27.2667163" lon="151.3107842">
  <ele>531.0</ele>
  <time>2026-09-01T20:00:39Z</time>
  <course>324.76</course>
  <speed>1.95</speed>
  <fix>3d</fix>
</trkpt>
<trkpt lat="-27.2667054" lon="151.3107824">
  <ele>523.78</ele>
  <time>2026-09-01T20:00:39Z</time>
  <course>32.44</course>
  <speed>4.326291714621195</speed>
  <fix>3d</fix>
</trkpt>
<trkpt lat="-27.2667121" lon="151.3107824">
  <ele>527.55</ele>
  <time>2026-09-01T20:00:39Z</time>
  <course>351.28</course>
  <speed>3.18</speed>
  <fix>3d</fix>
</trkpt>
<trkpt lat="-27.2667017" lon="151.3107844">
  <ele>521.84</ele>
  <time>2026-09-01T20:00:39Z</time>
  <course>52.86</course>
  <speed>4.598869426282943</speed>
  <fix>3d</fix>
</trkpt>
<trkpt lat="-27.2667121" lon="151.3107824">
  <ele>527.55</ele>
  <time>2026-09-01T20:00:39Z</time>
  <course>351.28</course>
  <speed>3.18</speed>
  <fix>3d</fix>
</trkpt>
<trkpt lat="-27.2666986" lon="151.3107875">
  <ele>519.85</ele>
  <time>2026-09-01T20:00:39Z</time>
  <course>74.44</course>
  <speed>4.685776349763185</speed>
  <fix>3d</fix>
</trkpt>
<trkpt lat="-27.2667055" lon="151.310783">
  <ele>523.84</ele>
  <time>2026-09-01T20:00:39Z</time>
  <course>18.62</course>
  <speed>4.09</speed>
  <fix>3d</fix>
</trkpt>
<trkpt lat="-27.2666964" lon="151.3107915">
  <ele>517.79</ele>
  <time>2026-09-01T20:00:39Z</time>
  <course>97.69</course>
  <speed>4.5538774687073</speed>
  <fix>3d</fix>
</trkpt>
<trkpt lat="-27.2667055" lon="151.310783">
  <ele>523.84</ele>
  <time>2026-09-01T20:00:39Z</time>
  <course>18.62</course>
  <speed>4.09</speed>
  <fix>3d</fix>
</trkpt>
<trkpt lat="-27.2666954" lon="151.3107956">
  <ele>515.73</ele>
  <time>2026-09-01T20:00:39Z</time>
  <course>122.54</course>
  <speed>4.227114855312072</speed>
  <fix>3d</fix>
</trkpt>
<trkpt lat="-27.2666991" lon="151.3107877">
  <ele>519.92</ele>
  <time>2026-09-01T20:00:39Z</time>
  <course>48.72</course>
  <speed>4.39</speed>
  <fix>3d</fix>
</trkpt>
<trkpt lat="-27.2666957" lon="151.3107997">
  <ele>513.47</ele>
  <time>2026-09-01T20:00:39Z</time>
  <course>151.92</course>
  <speed>3.6532861919099635</speed>
  <fix>3d</fix>
</trkpt>
<trkpt lat="-27.2666991" lon="151.3107877">
  <ele>519.92</ele>
  <time>2026-09-01T20:00:39Z</time>
  <course>48.72</course>
  <speed>4.39</speed>
  <fix>3d</fix>
</trkpt>
<trkpt lat="-27.2666972" lon="151.3108026">
  <ele>511.22</ele>
  <time>2026-09-01T20:00:39Z</time>
  <course>183.62</course>
  <speed>2.9773310195542586</speed>
  <fix>3d</fix>
</trkpt>
<trkpt lat="-27.266696" lon="151.3107953">
  <ele>515.75</ele>
  <time>2026-09-01T20:00:39Z</time>
  <course>83.36</course>
  <speed>3.88</speed>
  <fix>3d</fix>
</trkpt>
<trkpt lat="-27.2666992" lon="151.3108039">
  <ele>508.9</ele>
  <time>2026-09-01T20:00:39Z</time>
  <course>217.7</course>
  <speed>2.3410467744152403</speed>
  <fix>3d</fix>
</trkpt>
<trkpt lat="-27.266696" lon="151.3107953">
  <ele>515.75</ele>
  <time>2026-09-01T20:00:39Z</time>
  <course>83.36</course>
  <speed>3.88</speed>
  <fix>3d</fix>
</trkpt>
<trkpt lat="-27.2667011" lon="151.3108034">
  <ele>506.53</ele>
  <time>2026-09-01T20:00:39Z</time>
  <course>252.11</course>
  <speed>2.117829077144801</speed>
  <fix>3d</fix>
</trkpt>
<trkpt lat="-27.2666974" lon="151.3108017">
  <ele>511.32</ele>
  <time>2026-09-01T20:00:39Z</time>
  <course>129.49</course>
  <speed>2.62</speed>
  <fix>3d</fix>
</trkpt>
<trkpt lat="-27.2667018" lon="151.3108015">
  <ele>504.11</ele>
  <time>2026-09-01T20:00:39Z</time>
  <course>284.98</course>
  <speed>2.55440795488896</speed>
  <fix>3d</fix>
</trkpt>
<trkpt lat="-27.2666974" lon="151.3108017">
  <ele>511.32</ele>
  <time>2026-09-01T20:00:39Z</time>
  <course>129.49</course>
  <speed>2.62</speed>
  <fix>3d</fix>
</trkpt>
<trkpt lat="-27.2667012" lon="151.3107986">
  <ele>501.65</ele>
  <time>2026-09-01T20:00:39Z</time>
  <course>315.81</course>
  <speed>3.357037384361395</speed>
  <fix>3d</fix>
</trkpt>
<trkpt lat="-27.2667004" lon="151.3108027">
  <ele>506.64</ele>
  <time>2026-09-01T20:00:39Z</time>
  <course>217.84</course>
  <speed>1.64</speed>
  <fix>3d</fix>
</trkpt>
<trkpt lat="-27.2666987" lon="151.3107961">
  <ele>499.15</ele>
  <time>2026-09-01T20:00:39Z</time>
  <course>345.12</course>
  <speed>4.203736433222235</speed>
  <fix>3d</fix>
</trkpt>
<trkpt lat="-27.2667004" lon="151.3108027">
  <ele>506.64</ele>
  <time>2026-09-01T20:00:39Z</time>
  <course>217.84</course>
  <speed>1.64</speed>
  <fix>3d</fix>
</trkpt>
<trkpt lat="-27.2666948" lon="151.3107948">
  <ele>496.63</ele>
  <time>2026-09-01T20:00:39Z</time>
  <course>13.76</course>
  <speed>4.891145060208294</speed>
  <fix>3d</fix>
</trkpt>
<trkpt lat="-27.2667003" lon="151.3107989">
  <ele>501.77</ele>
  <time>2026-09-01T20:00:39Z</time>
  <course>305.6</course>
  <speed>2.85</speed>
  <fix>3d</fix>
</trkpt>
<trkpt lat="-27.2666903" lon="151.3107956">
  <ele>494.07</ele>
  <time>2026-09-01T20:00:39Z</time>
  <course>42.54</course>
  <speed>5.305591390222206</speed>
  <fix>3d</fix>
</trkpt>
<trkpt lat="-27.2667003" lon="151.3107989">
  <ele>501.77</ele>
  <time>2026-09-01T20:00:39Z</time>
  <course>305.6</course>
  <speed>2.85</speed>
  <fix>3d</fix>
</trkpt>
<trkpt lat="-27.2666862" lon="151.3107985">
  <ele>491.48</ele>
  <time>2026-09-01T20:00:39Z</time>
  <course>72.25</course>
  <speed>5.381310249372359</speed>
  <fix>3d</fix>
</trkpt>
<trkpt lat="-27.2666947" lon="151.3107958">
  <ele>496.76</ele>
  <time>2026-09-01T20:00:39Z</time>
  <course>357.17</course>
  <speed>4.3</speed>
  <fix>3d</fix>
</trkpt>
<trkpt lat="-27.2666837" lon="151.3108028">
  <ele>488.84</ele>
  <time>2026-09-01T20:00:39Z</time>
  <course>103.7</course>
  <speed>5.118456798684541</speed>
  <fix>3d</fix>
</trkpt>
<trkpt lat="-27.2666947" lon="151.3107958">
  <ele>496.76</ele>
  <time>2026-09-01T20:00:39Z</time>
  <course>357.17</course>
  <speed>4.3</speed>
  <fix>3d</fix>
</trkpt>
<trkpt lat="-27.2666832" lon="151.3108076">
  <ele>486.17</ele>
  <time>2026-09-01T20:00:39Z</time>
  <course>137.68</course>
  <speed>4.555183860175131</speed>
  <fix>3d</fix>
</trkpt>
<trkpt lat="-27.2666871" lon="151.3107989">
  <ele>491.61</ele>
  <time>2026-09-01T20:00:39Z</time>
  <course>43.23</course>
  <speed>4.74</speed>
  <fix>3d</fix>
</trkpt>
<trkpt lat="-27.2666847" lon="151.3108115">
  <ele>483.45</ele>
  <time>2026-09-01T20:00:39Z</time>
  <course>174.61</course>
  <speed>3.812741795611132</speed>
  <fix>3d</fix>
</trkpt>
<trkpt lat="-27.2666871" lon="151.3107989">
  <ele>491.61</ele>
  <time>2026-09-01T20:00:39Z</time>
  <course>43.23</course>
  <speed>4.74</speed>
  <fix>3d</fix>
</trkpt>
<trkpt lat="-27.2666873" lon="151.3108131">
  <ele>480.68</ele>
  <time>2026-09-01T20:00:39Z</time>
  <course>213.72</course>
  <speed>3.1740510392871757</speed>
  <fix>3d</fix>
</trkpt>
<trkpt lat="-27.2666841" lon="151.3108069">
  <ele>486.3</ele>
  <time>2026-09-01T20:00:39Z</time>
  <course>93.96</course>
  <speed>3.9</speed>
  <fix>3d</fix>
</trkpt>
<trkpt lat="-27.2666898" lon="151.3108124">
  <ele>477.88</ele>
  <time>2026-09-01T20:00:39Z</time>
  <course>252.95</course>
  <speed>3.0290922732726386</speed>
  <fix>3d</fix>
</trkpt>
<trkpt lat="-27.2666841" lon="151.3108069">
  <ele>486.3</ele>
  <time>2026-09-01T20:00:39Z</time>
  <course>93.96</course>
  <speed>3.9</speed>
  <fix>3d</fix>
</trkpt>
<trkpt lat="-27.2666908" lon="151.3108093">
  <ele>475.04</ele>
  <time>2026-09-01T20:00:39Z</time>
  <course>290.47</course>
  <speed>3.530056656769123</speed>
  <fix>3d</fix>
</trkpt>
<trkpt lat="-27.266687" lon="151.3108118">
  <ele>480.82</ele>
  <time>2026-09-01T20:00:39Z</time>
  <course>167.31</course>
  <speed>2.44</speed>
  <fix>3d</fix>
</trkpt>
<trkpt lat="-27.2666896" lon="151.3108057">
  <ele>472.19</ele>
  <time>2026-09-01T20:00:39Z</time>
  <course>325.91</course>
  <speed>4.340564479419698</speed>
  <fix>3d</fix>
</trkpt>
<trkpt lat="-27.266687" lon="151.3108118">
  <ele>480.82</ele>
  <time>2026-09-01T20:00:39Z</time>
  <course>167.31</course>
  <speed>2.44</speed>
  <fix>3d</fix>
</trkpt>
<trkpt lat="-27.2666863" lon="151.310803">
  <ele>469.32</ele>
  <time>2026-09-01T20:00:39Z</time>
  <course>359.93</course>
  <speed>5.086079039889176</speed>
  <fix>3d</fix>
</trkpt>
<trkpt lat="-27.2666897" lon="151.3108092">
  <ele>475.18</ele>
  <time>2026-09-01T20:00:39Z</time>
  <course>272.2</course>
  <speed>2.7</speed>
  <fix>3d</fix>
</trkpt>
<trkpt lat="-27.2648958" lon="151.3148444">
  <ele>539.84</ele>
  <time>2026-09-01T20:00:39Z</time>
  <course>234.64</course>
  <speed>14.05352624788526</speed>
  <fix>3d</fix>
</trkpt>
<trkpt lat="-27.2666897" lon="151.3108092">
  <ele>475.18</ele>
  <time>2026-09-01T20:00:39Z</time>
  <course>272.2</course>
  <speed>2.7</speed>
  <fix>3d</fix>
</trkpt>
<trkpt lat="-27.2649014" lon="151.3148285">
  <ele>536.23</ele>
  <time>2026-09-01T20:00:39Z</time>
  <course>236.67</course>
  <speed>20.04786771704163</speed>
  <fix>3d</fix>
</trkpt>
<trkpt lat="-27.2657927" lon="151.3128254">
  <ele>506.18</ele>
  <time>2026-09-01T20:00:39Z</time>
  <course>263.61</course>
  <speed>8.34</speed>
  <fix>3d</fix>
</trkpt>
<trkpt lat="-27.2649096" lon="151.3148076">
  <ele>532.98</ele>
  <time>2026-09-01T20:00:39Z</time>
  <course>240.59</course>
  <speed>24.566729534067004</speed>
  <fix>3d</fix>
</trkpt>
<trkpt lat="-27.2657927" lon="151.3128254">
  <ele>506.18</ele>
  <time>2026-09-01T20:00:39Z</time>
  <course>263.61</course>
  <speed>8.34</speed>
  <fix>3d</fix>
</trkpt>
<trkpt lat="-27.2649201" lon="151.3147837">
  <ele>530.09</ele>
  <time>2026-09-01T20:00:39Z</time>
  <course>236.49</course>
  <speed>27.87418160233588</speed>
  <fix>3d</fix>
</trkpt>
<trkpt lat="-27.2649023" lon="151.3148269">
  <ele>536.58</ele>
  <time>2026-09-01T20:00:39Z</time>
  <course>247.86</course>
  <speed>19.08</speed>
  <fix>3d</fix>
</trkpt>
<trkpt lat="-27.2649339" lon="151.3147592">
  <ele>527.49</ele>
  <time>2026-09-01T20:00:39Z</time>
  <course>225.8</course>
  <speed>29.511523173160686</speed>
  <fix>3d</fix>
</trkpt>
<trkpt lat="-27.2649023" lon="151.3148269">
  <ele>536.58</ele>
  <time>2026-09-01T20:00:39Z</time>
  <course>247.86</course>
  <speed>19.08</speed>
  <fix>3d</fix>
</trkpt>
<trkpt lat="-27.2649512" lon="151.3147363">
  <ele>525.06</ele>
  <time>2026-09-01T20:00:39Z</time>
  <course>213.24</course>
  <speed>29.82579420568713</speed>
  <fix>3d</fix>
</trkpt>
<trkpt lat="-27.2649211" lon="151.3147846">
  <ele>530.38</ele>
  <time>2026-09-01T20:00:39Z</time>
  <course>239.57</course>
  <speed>26.79</speed>
  <fix>3d</fix>
</trkpt>
<trkpt lat="-27.2649712" lon="151.3147168">
  <ele>522.65</ele>
  <time>2026-09-01T20:00:39Z</time>
  <course>209.15</course>
  <speed>29.240405263949405</speed>
  <fix>3d</fix>
</trkpt>
<trkpt lat="-27.2649211" lon="151.3147846">
  <ele>530.38</ele>
  <time>2026-09-01T20:00:39Z</time>
  <course>239.57</course>
  <speed>26.79</speed>
  <fix>3d</fix>
</trkpt>
<trkpt lat="-27.2649915" lon="151.3146978">
  <ele>520.25</ele>
  <time>2026-09-01T20:00:39Z</time>
  <course>223.23</course>
  <speed>30.046217732020782</speed>
  <fix>3d</fix>
</trkpt>
<trkpt lat="-27.2649516" lon="151.3147391">
  <ele>525.19</ele>
  <time>2026-09-01T20:00:39Z</time>
  <course>226.3</course>
  <speed>29.07</speed>
  <fix>3d</fix>
</trkpt>
<trkpt lat="-27.2650101" lon="151.3146741">
  <ele>518.18</ele>
  <time>2026-09-01T20:00:39Z</time>
  <course>233.46</course>
  <speed>32.57440713198016</speed>
  <fix>3d</fix>
</trkpt>
<trkpt lat="-27.2649516" lon="151.3147391">
  <ele>525.19</ele>
  <time>2026-09-01T20:00:39Z</time>
  <course>226.3</course>
  <speed>29.07</speed>
  <fix>3d</fix>
</trkpt>
<trkpt lat="-27.2650273" lon="151.3146458">
  <ele>516.66</ele>
  <time>2026-09-01T20:00:39Z</time>
  <course>238.97</course>
  <speed>34.64305413787878</speed>
  <fix>3d</fix>
</trkpt>
<trkpt lat="-27.2649897" lon="151.3146966">
  <ele>520.52</ele>
  <time>2026-09-01T20:00:39Z</time>
  <course>225.46</course>
  <speed>30.63</speed>
  <fix>3d</fix>
</trkpt>
<trkpt lat="-27.2650431" lon="151.3146152">
  <ele>515.83</ele>
  <time>2026-09-01T20:00:39Z</time>
  <course>242.21</course>
  <speed>35.31694210998455</speed>
  <fix>3d</fix>
</trkpt>
<trkpt lat="-27.2649897" lon="151.3146966">
  <ele>520.52</ele>
  <time>2026-09-01T20:00:39Z</time>
  <course>225.46</course>
  <speed>30.63</speed>
  <fix>3d</fix>
</trkpt>
<trkpt lat="-27.2650578" lon="151.3145839">
  <ele>515.66</ele>
  <time>2026-09-01T20:00:39Z</time>
  <course>243.16</course>
  <speed>34.61751724199758</speed>
  <fix>3d</fix>
</trkpt>
<trkpt lat="-27.2650257" lon="151.3146462">
  <ele>517.06</ele>
  <time>2026-09-01T20:00:39Z</time>
  <course>236.84</course>
  <speed>33.77</speed>
  <fix>3d</fix>
</trkpt>
<trkpt lat="-27.2650719" lon="151.3145535">
  <ele>516.08</ele>
  <time>2026-09-01T20:00:39Z</time>
  <course>242.58</course>
  <speed>33.031313930874745</speed>
  <fix>3d</fix>
</trkpt>
<trkpt lat="-27.2650257" lon="151.3146462">
  <ele>517.06</ele>
  <time>2026-09-01T20:00:39Z</time>
  <course>236.84</course>
  <speed>33.77</speed>
  <fix>3d</fix>
</trkpt>
<trkpt lat="-27.2650857" lon="151.314525">
  <ele>516.87</ele>
  <time>2026-09-01T20:00:39Z</time>
  <course>241.79</course>
  <speed>31.415451612224196</speed>
  <fix>3d</fix>
</trkpt>
<trkpt lat="-27.2650566" lon="151.314586">
  <ele>515.94</ele>
  <time>2026-09-01T20:00:39Z</time>
  <course>241.68</course>
  <speed>34.22</speed>
  <fix>3d</fix>
</trkpt>
<trkpt lat="-27.2650994" lon="151.3144979">
  <ele>517.83</ele>
  <time>2026-09-01T20:00:39Z</time>
  <course>241.39</course>
  <speed>30.159623671392186</speed>
  <fix>3d</fix>
</trkpt>
<trkpt lat="-27.2650566" lon="151.314586">
  <ele>515.94</ele>
  <time>2026-09-01T20:00:39Z</time>
  <course>241.68</course>
  <speed>34.22</speed>
  <fix>3d</fix>
</trkpt>
<trkpt lat="-27.265113" lon="151.3144723">
  <ele>518.85</ele>
  <time>2026-09-01T20:00:39Z</time>
  <course>241.07</course>
  <speed>29.13077410574597</speed>
  <fix>3d</fix>
</trkpt>
<trkpt lat="-27.2650847" lon="151.3145273">
  <ele>516.9</ele>
  <time>2026-09-01T20:00:39Z</time>
  <course>240.97</course>
  <speed>31.67</speed>
  <fix>3d</fix>
</trkpt>
<trkpt lat="-27.2651264" lon="151.3144475">
  <ele>519.9</ele>
  <time>2026-09-01T20:00:39Z</time>
  <course>240.57</course>
  <speed>28.128435790139488</speed>
  <fix>3d</fix>
</trkpt>
<trkpt lat="-27.2650847" lon="151.3145273">
  <ele>516.9</ele>
  <time>2026-09-01T20:00:39Z</time>
  <course>240.97</course>
  <speed>31.67</speed>
  <fix>3d</fix>
</trkpt>
<trkpt lat="-27.2651393" lon="151.3144237">
  <ele>520.99</ele>
  <time>2026-09-01T20:00:39Z</time>
  <course>240.07</course>
  <speed>26.98708765317221</speed>
  <fix>3d</fix>
</trkpt>
<trkpt lat="-27.265112" lon="151.3144742">
  <ele>518.8</ele>
  <time>2026-09-01T20:00:39Z</time>
  <course>239.14</course>
  <speed>29.2</speed>
  <fix>3d</fix>
</trkpt>
<trkpt lat="-27.2651518" lon="151.3144011">
  <ele>522.14</ele>
  <time>2026-09-01T20:00:39Z</time>
  <course>239.84</course>
  <speed>25.75680880854614</speed>
  <fix>3d</fix>
</trkpt>
<trkpt lat="-27.265112" lon="151.3144742">
  <ele>518.8</ele>
  <time>2026-09-01T20:00:39Z</time>
  <course>239.14</course>
  <speed>29.2</speed>
  <fix>3d</fix>
</trkpt>
<trkpt lat="-27.2651635" lon="151.3143794">
  <ele>523.35</ele>
  <time>2026-09-01T20:00:39Z</time>
  <course>239.82</course>
  <speed>24.569061846151147</speed>
  <fix>3d</fix>
</trkpt>
<trkpt lat="-27.2651383" lon="151.3144257">
  <ele>520.95</ele>
  <time>2026-09-01T20:00:39Z</time>
  <course>238.52</course>
  <speed>27.01</speed>
  <fix>3d</fix>
</trkpt>
<trkpt lat="-27.2651746" lon="151.3143586">
  <ele>524.59</ele>
  <time>2026-09-01T20:00:39Z</time>
  <course>239.89</course>
  <speed>23.481635377460403</speed>
  <fix>3d</fix>
</trkpt>
<trkpt lat="-27.2651383" lon="151.3144257">
  <ele>520.95</ele>
  <time>2026-09-01T20:00:39Z</time>
  <course>238.52</course>
  <speed>27.01</speed>
  <fix>3d</fix>
</trkpt>
<trkpt lat="-27.2651852" lon="151.3143385">
  <ele>525.84</ele>
  <time>2026-09-01T20:00:39Z</time>
  <course>240.05</course>
  <speed>22.501097750998728</speed>
  <fix>3d</fix>
</trkpt>
<trkpt lat="-27.2651625" lon="151.314381">
  <ele>523.29</ele>
  <time>2026-09-01T20:00:39Z</time>
  <course>238.78</course>
  <speed>24.69</speed>
  <fix>3d</fix>
</trkpt>
<trkpt lat="-27.2651952" lon="151.3143193">
  <ele>527.08</ele>
  <time>2026-09-01T20:00:39Z</time>
  <course>240.25</course>
  <speed>21.599578699595046</speed>
  <fix>3d</fix>
</trkpt>
<trkpt lat="-27.2651625" lon="151.314381">
  <ele>523.29</ele>
  <time>2026-09-01T20:00:39Z</time>
  <course>238.78</course>
  <speed>24.69</speed>
  <fix>3d</fix>
</trkpt>
<trkpt lat="-27.2652048" lon="151.314301">
  <ele>528.31</ele>
  <time>2026-09-01T20:00:39Z</time>
  <course>240.49</course>
  <speed>20.749409630155746</speed>
  <fix>3d</fix>
</trkpt>
<trkpt lat="-27.2651844" lon="151.3143399">
  <ele>525.77</ele>
  <time>2026-09-01T20:00:39Z</time>
  <course>239.35</course>
  <speed>22.59</speed>
  <fix>3d</fix>
</trkpt>
<trkpt lat="-27.265214" lon="151.3142832">
  <ele>529.52</ele>
  <time>2026-09-01T20:00:39Z</time>
  <course>240.71</course>
  <speed>19.945387938067284</speed>
  <fix>3d</fix>
</trkpt>
<trkpt lat="-27.2651844" lon="151.3143399">
  <ele>525.77</ele>
  <time>2026-09-01T20:00:39Z</time>
  <course>239.35</course>
  <speed>22.59</speed>
  <fix>3d</fix>
</trkpt>
<trkpt lat="-27.2652229" lon="151.3142662">
  <ele>530.71</ele>
  <time>2026-09-01T20:00:39Z</time>
  <course>240.91</course>
  <speed>19.165119357833387</speed>
  <fix>3d</fix>
</trkpt>
<trkpt lat="-27.2652041" lon="151.3143022">
  <ele>528.24</ele>
  <time>2026-09-01T20:00:39Z</time>
  <course>239.68</course>
  <speed>20.81</speed>
  <fix>3d</fix>
</trkpt>
<trkpt lat="-27.2652313" lon="151.3142497">
  <ele>531.87</ele>
  <time>2026-09-01T20:00:39Z</time>
  <course>241.09</course>
  <speed>18.434511113669384</speed>
  <fix>3d</fix>
</trkpt>
<trkpt lat="-27.2652041" lon="151.3143022">
  <ele>528.24</ele>
  <time>2026-09-01T20:00:39Z</time>
  <course>239.68</course>
  <speed>20.81</speed>
  <fix>3d</fix>
</trkpt>
<trkpt lat="-27.2652395" lon="151.3142339">
  <ele>532.99</ele>
  <time>2026-09-01T20:00:39Z</time>
  <course>241.25</course>
  <speed>17.73989007857715</speed>
  <fix>3d</fix>
</trkpt>
<trkpt lat="-27.2652222" lon="151.3142672">
  <ele>530.63</ele>
  <time>2026-09-01T20:00:39Z</time>
  <course>239.81</course>
  <speed>19.23</speed>
  <fix>3d</fix>
</trkpt>
<trkpt lat="-27.2652474" lon="151.3142187">
  <ele>534.08</ele>
  <time>2026-09-01T20:00:39Z</time>
  <course>241.4</course>
  <speed>17.08125580863421</speed>
  <fix>3d</fix>
</trkpt>
<trkpt lat="-27.2652222" lon="151.3142672">
  <ele>530.63</ele>
  <time>2026-09-01T20:00:39Z</time>
  <course>239.81</course>
  <speed>19.23</speed>
  <fix>3d</fix>
</trkpt>
<trkpt lat="-27.2652549" lon="151.314204">
  <ele>535.13</ele>
  <time>2026-09-01T20:00:39Z</time>
  <course>241.55</course>
  <speed>16.462235571148895</speed>
  <fix>3d</fix>
</trkpt>
<trkpt lat="-27.2652389" lon="151.314235">
  <ele>532.91</ele>
  <time>2026-09-01T20:00:39Z</time>
  <course>239.84</course>
  <speed>17.79</speed>
  <fix>3d</fix>
</trkpt>
<trkpt lat="-27.2652622" lon="151.31419">
  <ele>536.14</ele>
  <time>2026-09-01T20:00:39Z</time>
  <course>241.71</course>
  <speed>15.86190404711868</speed>
  <fix>3d</fix>
</trkpt>
<trkpt lat="-27.2652389" lon="151.314235">
  <ele>532.91</ele>
  <time>2026-09-01T20:00:39Z</time>
  <course>239.84</course>
  <speed>17.79</speed>
  <fix>3d</fix>
</trkpt>
<trkpt lat="-27.2652692" lon="151.3141762">
  <ele>537.11</ele>
  <time>2026-09-01T20:00:39Z</time>
  <course>241.87</course>
  <speed>15.287527596050317</speed>
  <fix>3d</fix>
</trkpt>
<trkpt lat="-27.2652543" lon="151.314205">
  <ele>535.05</ele>
  <time>2026-09-01T20:00:39Z</time>
  <course>239.86</course>
  <speed>16.51</speed>
  <fix>3d</fix>
</trkpt>
<trkpt lat="-27.265276" lon="151.3141632">
  <ele>538.04</ele>
  <time>2026-09-01T20:00:39Z</time>
  <course>242.05</course>
  <speed>14.731832879855785</speed>
  <fix>3d</fix>
</trkpt>
<trkpt lat="-27.2652543" lon="151.314205">
  <ele>535.05</ele>
  <time>2026-09-01T20:00:39Z</time>
  <course>239.86</course>
  <speed>16.51</speed>
  <fix>3d</fix>
</trkpt>
<trkpt lat="-27.2652825" lon="151.3141506">
  <ele>538.93</ele>
  <time>2026-09-01T20:00:39Z</time>
  <course>242.25</course>
  <speed>14.193452715953226</speed>
  <fix>3d</fix>
</trkpt>
<trkpt lat="-27.2652687" lon="151.3141772">
  <ele>537.04</ele>
  <time>2026-09-01T20:00:39Z</time>
  <course>239.91</course>
  <speed>15.33</speed>
  <fix>3d</fix>
</trkpt>
<trkpt lat="-27.2652887" lon="151.3141384">
  <ele>539.77</ele>
  <time>2026-09-01T20:00:39Z</time>
  <course>242.46</course>
  <speed>13.668741712388892</speed>
  <fix>3d</fix>
</trkpt>
<trkpt lat="-27.2652687" lon="151.3141772">
  <ele>537.04</ele>
  <time>2026-09-01T20:00:39Z</time>
  <course>239.91</course>
  <speed>15.33</speed>
  <fix>3d</fix>
</trkpt>
<trkpt lat="-27.2652948" lon="151.3141265">
  <ele>540.58</ele>
  <time>2026-09-01T20:00:39Z</time>
  <course>242.68</course>
  <speed>13.171351487224081</speed>
  <fix>3d</fix>
</trkpt>
<trkpt lat="-27.265282" lon="151.3141514">
  <ele>538.86</ele>
  <time>2026-09-01T20:00:39Z</time>
  <course>239.97</course>
  <speed>14.23</speed>
  <fix>3d</fix>
</trkpt>
<trkpt lat="-27.2653006" lon="151.3141152">
  <ele>541.35</ele>
  <time>2026-09-01T20:00:39Z</time>
  <course>242.91</course>
  <speed>12.6876199501719</speed>
  <fix>3d</fix>
</trkpt>
<trkpt lat="-27.265282" lon="151.3141514">
  <ele>538.86</ele>
  <time>2026-09-01T20:00:39Z</time>
  <course>239.97</course>
  <speed>14.23</speed>
  <fix>3d</fix>
</trkpt>
<trkpt lat="-27.2653062" lon="151.3141043">
  <ele>542.07</ele>
  <time>2026-09-01T20:00:39Z</time>
  <course>243.15</course>
  <speed>12.231210079137714</speed>
  <fix>3d</fix>
</trkpt>
<trkpt lat="-27.2652943" lon="151.3141274">
  <ele>540.51</ele>
  <time>2026-09-01T20:00:39Z</time>
  <course>240.02</course>
  <speed>13.21</speed>
  <fix>3d</fix>
</trkpt>
<trkpt lat="-27.2653116" lon="151.3140938">
  <ele>542.74</ele>
  <time>2026-09-01T20:00:39Z</time>
  <course>243.4</course>
  <speed>11.788473183580646</speed>
  <fix>3d</fix>
</trkpt>
<trkpt lat="-27.2652943" lon="151.3141274">
  <ele>540.51</ele>
  <time>2026-09-01T20:00:39Z</time>
  <course>240.02</course>
  <speed>13.21</speed>
  <fix>3d</fix>
</trkpt>
<trkpt lat="-27.2653168" lon="151.3140837">
  <ele>543.38</ele>
  <time>2026-09-01T20:00:39Z</time>
  <course>243.65</course>
  <speed>11.360853841151203</speed>
  <fix>3d</fix>
</trkpt>
<trkpt lat="-27.2653058" lon="151.3141051">
  <ele>542.0</ele>
  <time>2026-09-01T20:00:39Z</time>
  <course>239.96</course>
  <speed>12.26</speed>
  <fix>3d</fix>
</trkpt>
<trkpt lat="-27.2653219" lon="151.314074">
  <ele>543.97</ele>
  <time>2026-09-01T20:00:39Z</time>
  <course>243.88</course>
  <speed>10.942001645037346</speed>
  <fix>3d</fix>
</trkpt>
<trkpt lat="-27.2653058" lon="151.3141051">
  <ele>542.0</ele>
  <time>2026-09-01T20:00:39Z</time>
  <course>239.96</course>
  <speed>12.26</speed>
  <fix>3d</fix>
</trkpt>
<trkpt lat="-27.2653268" lon="151.3140646">
  <ele>544.52</ele>
  <time>2026-09-01T20:00:39Z</time>
  <course>244.09</course>
  <speed>10.54209182278356</speed>
  <fix>3d</fix>
</trkpt>
<trkpt lat="-27.2653164" lon="151.3140844">
  <ele>543.32</ele>
  <time>2026-09-01T20:00:39Z</time>
  <course>239.7</course>
  <speed>11.39</speed>
  <fix>3d</fix>
</trkpt>
<trkpt lat="-27.2653316" lon="151.3140556">
  <ele>545.04</ele>
  <time>2026-09-01T20:00:39Z</time>
  <course>244.28</course>
  <speed>10.147595774369414</speed>
  <fix>3d</fix>
</trkpt>
<trkpt lat="-27.2653164" lon="151.3140844">
  <ele>543.32</ele>
  <time>2026-09-01T20:00:39Z</time>
  <course>239.7</course>
  <speed>11.39</speed>
  <fix>3d</fix>
</trkpt>
<trkpt lat="-27.2653362" lon="151.314047">
  <ele>545.51</ele>
  <time>2026-09-01T20:00:39Z</time>
  <course>244.44</course>
  <speed>9.763938754416682</speed>
  <fix>3d</fix>
</trkpt>
<trkpt lat="-27.2653265" lon="151.3140652">
  <ele>544.47</ele>
  <time>2026-09-01T20:00:39Z</time>
  <course>239.21</course>
  <speed>10.57</speed>
  <fix>3d</fix>
</trkpt>
<trkpt lat="-27.2653408" lon="151.3140388">
  <ele>545.94</ele>
  <time>2026-09-01T20:00:39Z</time>
  <course>244.56</course>
  <speed>9.389462178421084</speed>
  <fix>3d</fix>
</trkpt>
<trkpt lat="-27.2653265" lon="151.3140652">
  <ele>544.47</ele>
  <time>2026-09-01T20:00:39Z</time>
  <course>239.21</course>
  <speed>10.57</speed>
  <fix>3d</fix>
</trkpt>
<trkpt lat="-27.2653452" lon="151.314031">
  <ele>546.34</ele>
  <time>2026-09-01T20:00:39Z</time>
  <course>244.66</course>
  <speed>9.02106423876917</speed>
  <fix>3d</fix>
</trkpt>
<trkpt lat="-27.265336" lon="151.3140476">
  <ele>545.46</ele>
  <time>2026-09-01T20:00:39Z</time>
  <course>238.45</course>
  <speed>9.79</speed>
  <fix>3d</fix>
</trkpt>
<trkpt lat="-27.2653495" lon="151.3140235">
  <ele>546.71</ele>
  <time>2026-09-01T20:00:39Z</time>
  <course>244.73</course>
  <speed>8.659105034586426</speed>
  <fix>3d</fix>
</trkpt>
<trkpt lat="-27.265336" lon="151.3140476">
  <ele>545.46</ele>
  <time>2026-09-01T20:00:39Z</time>
  <course>238.45</course>
  <speed>9.79</speed>
  <fix>3d</fix>
</trkpt>
<trkpt lat="-27.2653537" lon="151.3140163">
  <ele>547.04</ele>
  <time>2026-09-01T20:00:39Z</time>
  <course>244.79</course>
  <speed>8.306726190262925</speed>
  <fix>3d</fix>
</trkpt>
<trkpt lat="-27.2653449" lon="151.3140315">
  <ele>546.3</ele>
  <time>2026-09-01T20:00:39Z</time>
  <course>237.4</course>
  <speed>9.04</speed>
  <fix>3d</fix>
</trkpt>
<trkpt lat="-27.2653579" lon="151.3140096">
  <ele>547.33</ele>
  <time>2026-09-01T20:00:40Z</time>
  <course>244.82</course>
  <speed>7.96135666830723</speed>
  <fix>3d</fix>
</trkpt>
<trkpt lat="-27.2653449" lon="151.3140315">
  <ele>546.3</ele>
  <time>2026-09-01T20:00:40Z</time>
  <course>237.4</course>
  <speed>9.04</speed>
  <fix>3d</fix>
</trkpt>
<trkpt lat="-27.2653619" lon="151.314003">
  <ele>547.6</ele>
  <time>2026-09-01T20:00:40Z</time>
  <course>244.85</course>
  <speed>7.623555600899098</speed>
  <fix>3d</fix>
</trkpt>
<trkpt lat="-27.2653535" lon="151.3140169">
  <ele>547.0</ele>
  <time>2026-09-01T20:00:40Z</time>
  <course>236.03</course>
  <speed>8.33</speed>
  <fix>3d</fix>
</trkpt>
<trkpt lat="-27.2653659" lon="151.313997">
  <ele>547.83</ele>
  <time>2026-09-01T20:00:40Z</time>
  <course>244.86</course>
  <speed>7.3040536690251665</speed>
  <fix>3d</fix>
</trkpt>
<trkpt lat="-27.2653535" lon="151.3140169">
  <ele>547.0</ele>
  <time>2026-09-01T20:00:40Z</time>
  <course>236.03</course>
  <speed>8.33</speed>
  <fix>3d</fix>
</trkpt>
<trkpt lat="-27.2653697" lon="151.3139913">
  <ele>548.03</ele>
  <time>2026-09-01T20:00:40Z</time>
  <course>244.87</course>
  <speed>6.998928489418933</speed>
  <fix>3d</fix>
</trkpt>
<trkpt lat="-27.2653617" lon="151.3140035">
  <ele>547.57</ele>
  <time>2026-09-01T20:00:40Z</time>
  <course>234.33</course>
  <speed>7.65</speed>
  <fix>3d</fix>
</trkpt>
<trkpt lat="-27.2653736" lon="151.3139859">
  <ele>548.2</ele>
  <time>2026-09-01T20:00:40Z</time>
  <course>244.88</course>
  <speed>6.690597880608279</speed>
  <fix>3d</fix>
</trkpt>
<trkpt lat="-27.2653617" lon="151.3140035">
  <ele>547.57</ele>
  <time>2026-09-01T20:00:40Z</time>
  <course>234.33</course>
  <speed>7.65</speed>
  <fix>3d</fix>
</trkpt>
<trkpt lat="-27.2653773" lon="151.3139808">
  <ele>548.34</ele>
  <time>2026-09-01T20:00:40Z</time>
  <course>244.88</course>
  <speed>6.413626119442885</speed>
  <fix>3d</fix>
</trkpt>
<trkpt lat="-27.2653695" lon="151.3139916">
  <ele>548.0</ele>
  <time>2026-09-01T20:00:40Z</time>
  <course>232.25</course>
  <speed>7.02</speed>
  <fix>3d</fix>
</trkpt>
<trkpt lat="-27.265381" lon="151.313976">
  <ele>548.45</ele>
  <time>2026-09-01T20:00:40Z</time>
  <course>244.88</course>
  <speed>6.140399009836412</speed>
  <fix>3d</fix>
</trkpt>
<trkpt lat="-27.2653695" lon="151.3139916">
  <ele>548.0</ele>
  <time>2026-09-01T20:00:40Z</time>
  <course>232.25</course>
  <speed>7.02</speed>
  <fix>3d</fix>
</trkpt>
<trkpt lat="-27.2653847" lon="151.3139714">
  <ele>548.53</ele>
  <time>2026-09-01T20:00:40Z</time>
  <course>244.87</course>
  <speed>5.885575587824865</speed>
  <fix>3d</fix>
</trkpt>
<trkpt lat="-27.2653771" lon="151.3139811">
  <ele>548.31</ele>
  <time>2026-09-01T20:00:40Z</time>
  <course>229.72</course>
  <speed>6.43</speed>
  <fix>3d</fix>
</trkpt>
<trkpt lat="-27.2653883" lon="151.3139673">
  <ele>548.58</ele>
  <time>2026-09-01T20:00:40Z</time>
  <course>244.87</course>
  <speed>5.628569978244919</speed>
  <fix>3d</fix>
</trkpt>
<trkpt lat="-27.2653771" lon="151.3139811">
  <ele>548.31</ele>
  <time>2026-09-01T20:00:40Z</time>
  <course>229.72</course>
  <speed>6.43</speed>
  <fix>3d</fix>
</trkpt>
<trkpt lat="-27.2653918" lon="151.3139635">
  <ele>548.62</ele>
  <time>2026-09-01T20:00:40Z</time>
  <course>245.07</course>
  <speed>5.363524960322269</speed>
  <fix>3d</fix>
</trkpt>
<trkpt lat="-27.2653844" lon="151.3139718">
  <ele>548.51</ele>
  <time>2026-09-01T20:00:40Z</time>
  <course>226.74</course>
  <speed>5.9</speed>
  <fix>3d</fix>
</trkpt>
<trkpt lat="-27.2653953" lon="151.3139599">
  <ele>548.64</ele>
  <time>2026-09-01T20:00:40Z</time>
  <course>245.79</course>
  <speed>5.052444952693696</speed>
  <fix>3d</fix>
</trkpt>
<trkpt lat="-27.2653844" lon="151.3139718">
  <ele>548.51</ele>
  <time>2026-09-01T20:00:40Z</time>
  <course>226.74</course>
  <speed>5.9</speed>
  <fix>3d</fix>
</trkpt>
<trkpt lat="-27.2653988" lon="151.3139569">
  <ele>548.66</ele>
  <time>2026-09-01T20:00:40Z</time>
  <course>247.23</course>
  <speed>4.708003823277972</speed>
  <fix>3d</fix>
</trkpt>
<trkpt lat="-27.2653916" lon="151.3139638">
  <ele>548.61</ele>
  <time>2026-09-01T20:00:40Z</time>
  <course>222.85</course>
  <speed>5.35</speed>
  <fix>3d</fix>
</trkpt>
<trkpt lat="-27.2654021" lon="151.3139543">
  <ele>548.68</ele>
  <time>2026-09-01T20:00:40Z</time>
  <course>249.44</course>
  <speed>4.3302886739800615</speed>
  <fix>3d</fix>
</trkpt>
<trkpt lat="-27.2653916" lon="151.3139638">
  <ele>548.61</ele>
  <time>2026-09-01T20:00:40Z</time>
  <course>222.85</course>
  <speed>5.35</speed>
  <fix>3d</fix>
</trkpt>
<trkpt lat="-27.2654053" lon="151.3139522">
  <ele>548.71</ele>
  <time>2026-09-01T20:00:40Z</time>
  <course>252.4</course>
  <speed>3.922269751049767</speed>
  <fix>3d</fix>
</trkpt>
<trkpt lat="-27.2653985" lon="151.3139572">
  <ele>548.66</ele>
  <time>2026-09-01T20:00:40Z</time>
  <course>216.86</course>
  <speed>4.7</speed>
  <fix>3d</fix>
</trkpt>
<trkpt lat="-27.2654084" lon="151.3139507">
  <ele>548.76</ele>
  <time>2026-09-01T20:00:40Z</time>
  <course>256.02</course>
  <speed>3.5124065823876367</speed>
  <fix>3d</fix>
</trkpt>
<trkpt lat="-27.2653985" lon="151.3139572">
  <ele>548.66</ele>
  <time>2026-09-01T20:00:40Z</time>
  <course>216.86</course>
  <speed>4.7</speed>
  <fix>3d</fix>
</trkpt>
<trkpt lat="-27.2654112" lon="151.3139497">
  <ele>548.82</ele>
  <time>2026-09-01T20:00:40Z</time>
  <course>260.12</course>
  <speed>3.098935301034857</speed>
  <fix>3d</fix>
</trkpt>
<trkpt lat="-27.2654051" lon="151.3139525">
  <ele>548.71</ele>
  <time>2026-09-01T20:00:40Z</time>
  <course>207.43</course>
  <speed>3.92</speed>
  <fix>3d</fix>
</trkpt>
<trkpt lat="-27.2654138" lon="151.3139493">
  <ele>548.9</ele>
  <time>2026-09-01T20:00:40Z</time>
  <course>264.5</course>
  <speed>2.721488563268271</speed>
  <fix>3d</fix>
</trkpt>
<trkpt lat="-27.2654051" lon="151.3139525">
  <ele>548.71</ele>
  <time>2026-09-01T20:00:40Z</time>
  <course>207.43</course>
  <speed>3.92</speed>
  <fix>3d</fix>
</trkpt>
<trkpt lat="-27.2654161" lon="151.3139495">
  <ele>549.0</ele>
  <time>2026-09-01T20:00:40Z</time>
  <course>268.8</course>
  <speed>2.3920075250717754</speed>
  <fix>3d</fix>
</trkpt>
<trkpt lat="-27.265411" lon="151.31395">
  <ele>548.82</ele>
  <time>2026-09-01T20:00:40Z</time>
  <course>192.81</course>
  <speed>3.09</speed>
  <fix>3d</fix>
</trkpt>
<trkpt lat="-27.2654181" lon="151.31395">
  <ele>549.13</ele>
  <time>2026-09-01T20:00:40Z</time>
  <course>272.88</course>
  <speed>2.095041765693467</speed>
  <fix>3d</fix>
</trkpt>
<trkpt lat="-27.265411" lon="151.31395">
  <ele>548.82</ele>
  <time>2026-09-01T20:00:40Z</time>
  <course>192.81</course>
  <speed>3.09</speed>
  <fix>3d</fix>
</trkpt>
<trkpt lat="-27.2654196" lon="151.3139508">
  <ele>549.27</ele>
  <time>2026-09-01T20:00:40Z</time>
  <course>276.71</course>
  <speed>1.7863090438107287</speed>
  <fix>3d</fix>
</trkpt>
<trkpt lat="-27.2654158" lon="151.3139497">
  <ele>549.01</ele>
  <time>2026-09-01T20:00:40Z</time>
  <course>172.61</course>
  <speed>2.38</speed>
  <fix>3d</fix>
</trkpt>
<trkpt lat="-27.2654208" lon="151.313952">
  <ele>549.45</ele>
  <time>2026-09-01T20:00:40Z</time>
  <course>280.25</course>
  <speed>1.516443206981389</speed>
  <fix>3d</fix>
</trkpt>
<trkpt lat="-27.2654158" lon="151.3139497">
  <ele>549.01</ele>
  <time>2026-09-01T20:00:40Z</time>
  <course>172.61</course>
  <speed>2.38</speed>
  <fix>3d</fix>
</trkpt>
<trkpt lat="-27.2654216" lon="151.313953">
  <ele>549.59</ele>
  <time>2026-09-01T20:00:40Z</time>
  <course>283.14</course>
  <speed>1.336899397860587</speed>
  <fix>3d</fix>
</trkpt>
<trkpt lat="-27.2654193" lon="151.3139509">
  <ele>549.28</ele>
  <time>2026-09-01T20:00:40Z</time>
  <course>148.23</course>
  <speed>1.77</speed>
  <fix>3d</fix>
</trkpt>
<trkpt lat="-27.2654224" lon="151.3139539">
  <ele>549.63</ele>
  <time>2026-09-01T20:00:40Z</time>
  <course>285.31</course>
  <speed>1.1886967653695368</speed>
  <fix>3d</fix>
</trkpt>
<trkpt lat="-27.2654193" lon="151.3139509">
  <ele>549.28</ele>
  <time>2026-09-01T20:00:40Z</time>
  <course>148.23</course>
  <speed>1.77</speed>
  <fix>3d</fix>
</trkpt>
<trkpt lat="-27.2654232" lon="151.3139546">
  <ele>549.57</ele>
  <time>2026-09-01T20:00:40Z</time>
  <course>286.84</course>
  <speed>1.0621675950620975</speed>
  <fix>3d</fix>
</trkpt>
<trkpt lat="-27.2654215" lon="151.3139529">
  <ele>549.53</ele>
  <time>2026-09-01T20:00:40Z</time>
  <course>134.24</course>
  <speed>1.36</speed>
  <fix>3d</fix>
</trkpt>
<trkpt lat="-27.2654238" lon="151.3139554">
  <ele>549.43</ele>
  <time>2026-09-01T20:00:40Z</time>
  <course>287.76</course>
  <speed>0.9642613753542137</speed>
  <fix>3d</fix>
</trkpt>
<trkpt lat="-27.2654215" lon="151.3139529">
  <ele>549.53</ele>
  <time>2026-09-01T20:00:40Z</time>
  <course>134.24</course>
  <speed>1.36</speed>
  <fix>3d</fix>
</trkpt>
<trkpt lat="-27.2654245" lon="151.313956">
  <ele>549.21</ele>
  <time>2026-09-01T20:00:40Z</time>
  <course>288.99</course>
  <speed>0.8683317338436964</speed>
  <fix>3d</fix>
</trkpt>
<trkpt lat="-27.2654231" lon="151.3139546">
  <ele>549.53</ele>
  <time>2026-09-01T20:00:40Z</time>
  <course>137.82</course>
  <speed>1.08</speed>
  <fix>3d</fix>
</trkpt>
<trkpt lat="-27.2654251" lon="151.3139565">
  <ele>548.91</ele>
  <time>2026-09-01T20:00:40Z</time>
  <course>290.76</course>
  <speed>0.758023746329889</speed>
  <fix>3d</fix>
</trkpt>
<trkpt lat="-27.2654231" lon="151.3139546">
  <ele>549.53</ele>
  <time>2026-09-01T20:00:40Z</time>
  <course>137.82</course>
  <speed>1.08</speed>
  <fix>3d</fix>
</trkpt>
<trkpt lat="-27.2654256" lon="151.3139569">
  <ele>548.56</ele>
  <time>2026-09-01T20:00:40Z</time>
  <course>293.06</course>
  <speed>0.6463745044476924</speed>
  <fix>3d</fix>
</trkpt>
<trkpt lat="-27.2654244" lon="151.3139559">
  <ele>549.18</ele>
  <time>2026-09-01T20:00:40Z</time>
  <course>140.9</course>
  <speed>0.87</speed>
  <fix>3d</fix>
</trkpt>
<trkpt lat="-27.265426" lon="151.3139573">
  <ele>548.15</ele>
  <time>2026-09-01T20:00:40Z</time>
  <course>295.85</course>
  <speed>0.532541078227774</speed>
  <fix>3d</fix>
</trkpt>
<trkpt lat="-27.2654244" lon="151.3139559">
  <ele>549.18</ele>
  <time>2026-09-01T20:00:40Z</time>
  <course>140.9</course>
  <speed>0.87</speed>
  <fix>3d</fix>
</trkpt>
<trkpt lat="-27.2654264" lon="151.3139574">
  <ele>547.68</ele>
  <time>2026-09-01T20:00:40Z</time>
  <course>299.18</course>
  <speed>0.4049691346263317</speed>
  <fix>3d</fix>
</trkpt>
<trkpt lat="-27.2654255" lon="151.3139568">
  <ele>548.55</ele>
  <time>2026-09-01T20:00:40Z</time>
  <course>144.09</course>
  <speed>0.66</speed>
  <fix>3d</fix>
</trkpt>
<trkpt lat="-27.2654267" lon="151.3139577">
  <ele>547.14</ele>
  <time>2026-09-01T20:00:40Z</time>
  <course>303.23</course>
  <speed>0.27313000567495327</speed>
  <fix>3d</fix>
</trkpt>
<trkpt lat="-27.2654255" lon="151.3139568">
  <ele>548.55</ele>
  <time>2026-09-01T20:00:40Z</time>
  <course>144.09</course>
  <speed>0.66</speed>
  <fix>3d</fix>
</trkpt>
<trkpt lat="-27.2654268" lon="151.3139578">
  <ele>546.54</ele>
  <time>2026-09-01T20:00:40Z</time>
  <course>308.18</course>
  <speed>0.16031219541881397</speed>
  <fix>3d</fix>
</trkpt>
<trkpt lat="-27.2654263" lon="151.3139574">
  <ele>547.67</ele>
  <time>2026-09-01T20:00:40Z</time>
  <course>148.24</course>
  <speed>0.41</speed>
  <fix>3d</fix>
</trkpt>
<trkpt lat="-27.2654269" lon="151.3139577">
  <ele>545.87</ele>
  <time>2026-09-01T20:00:40Z</time>
  <course>314.25</course>
  <speed>0.21</speed>
  <fix>3d</fix>
</trkpt>
<trkpt lat="-27.2654263" lon="151.3139574">
  <ele>547.67</ele>
  <time>2026-09-01T20:00:40Z</time>
  <course>148.24</course>
  <speed>0.41</speed>
  <fix>3d</fix>
</trkpt>
<trkpt lat="-27.2654267" lon="151.3139572">
  <ele>545.12</ele>
  <time>2026-09-01T20:00:40Z</time>
  <course>324.1</course>
  <speed>0.9575489543621255</speed>
  <fix>3d</fix>
</trkpt>
<trkpt lat="-27.2654267" lon="151.3139577">
  <ele>546.53</ele>
  <time>2026-09-01T20:00:40Z</time>
  <course>191.39</course>
  <speed>0.13</speed>
  <fix>3d</fix>
</trkpt>
<trkpt lat="-27.2654263" lon="151.3139562">
  <ele>544.28</ele>
  <time>2026-09-01T20:00:40Z</time>
  <course>345.05</course>
  <speed>1.319280106724876</speed>
  <fix>3d</fix>
</trkpt>
<trkpt lat="-27.2654267" lon="151.3139577">
  <ele>546.53</ele>
  <time>2026-09-01T20:00:40Z</time>
  <course>191.39</course>
  <speed>0.13</speed>
  <fix>3d</fix>
</trkpt>
<trkpt lat="-27.2654258" lon="151.313955">
  <ele>543.36</ele>
  <time>2026-09-01T20:00:40Z</time>
  <course>16.91</course>
  <speed>1.3017680284904833</speed>
  <fix>3d</fix>
</trkpt>
<trkpt lat="-27.2654266" lon="151.3139569">
  <ele>545.11</ele>
  <time>2026-09-01T20:00:40Z</time>
  <course>292.85</course>
  <speed>0.73</speed>
  <fix>3d</fix>
</trkpt>
<trkpt lat="-27.2654253" lon="151.3139539">
  <ele>542.34</ele>
  <time>2026-09-01T20:00:40Z</time>
  <course>30.36</course>
  <speed>1.128716084761797</speed>
  <fix>3d</fix>
</trkpt>
<trkpt lat="-27.2654266" lon="151.3139569">
  <ele>545.11</ele>
  <time>2026-09-01T20:00:40Z</time>
  <course>292.85</course>
  <speed>0.73</speed>
  <fix>3d</fix>
</trkpt>
<trkpt lat="-27.2654248" lon="151.3139529">
  <ele>541.23</ele>
  <time>2026-09-01T20:00:40Z</time>
  <course>21.92</course>
  <speed>1.063296760081587</speed>
  <fix>3d</fix>
</trkpt>
<trkpt lat="-27.2654258" lon="151.313955">
  <ele>543.35</ele>
  <time>2026-09-01T20:00:40Z</time>
  <course>298.03</course>
  <speed>1.22</speed>
  <fix>3d</fix>
</trkpt>
<trkpt lat="-27.2654242" lon="151.313952">
  <ele>540.03</ele>
  <time>2026-09-01T20:00:40Z</time>
  <course>5.58</course>
  <speed>1.2564234954823155</speed>
  <fix>3d</fix>
</trkpt>
<trkpt lat="-27.2654258" lon="151.313955">
  <ele>543.35</ele>
  <time>2026-09-01T20:00:40Z</time>
  <course>298.03</course>
  <speed>1.22</speed>
  <fix>3d</fix>
</trkpt>
<trkpt lat="-27.2654234" lon="151.3139507">
  <ele>538.75</ele>
  <time>2026-09-01T20:00:40Z</time>
  <course>351.8</course>
  <speed>1.7866449003649272</speed>
  <fix>3d</fix>
</trkpt>
<trkpt lat="-27.2654248" lon="151.3139529">
  <ele>541.23</ele>
  <time>2026-09-01T20:00:40Z</time>
  <course>301.65</course>
  <speed>1.19</speed>
  <fix>3d</fix>
</trkpt>
<trkpt lat="-27.2654221" lon="151.3139491">
  <ele>537.39</ele>
  <time>2026-09-01T20:00:40Z</time>
  <course>346.88</course>
  <speed>2.680391762410861</speed>
  <fix>3d</fix>
</trkpt>
<trkpt lat="-27.2654248" lon="151.3139529">
  <ele>541.23</ele>
  <time>2026-09-01T20:00:40Z</time>
  <course>301.65</course>
  <speed>1.19</speed>
  <fix>3d</fix>
</trkpt>
<trkpt lat="-27.2654199" lon="151.3139469">
  <ele>535.97</ele>
  <time>2026-09-01T20:00:40Z</time>
  <course>347.11</course>
  <speed>3.8061529133759193</speed>
  <fix>3d</fix>
</trkpt>
<trkpt lat="-27.2654232" lon="151.3139506">
  <ele>538.76</ele>
  <time>2026-09-01T20:00:40Z</time>
  <course>311.73</course>
  <speed>1.93</speed>
  <fix>3d</fix>
</trkpt>
<trkpt lat="-27.2654164" lon="151.3139448">
  <ele>534.51</ele>
  <time>2026-09-01T20:00:40Z</time>
  <course>347.93</course>
  <speed>5.017808286493217</speed>
  <fix>3d</fix>
</trkpt>
<trkpt lat="-27.2654232" lon="151.3139506">
  <ele>538.76</ele>
  <time>2026-09-01T20:00:40Z</time>
  <course>311.73</course>
  <speed>1.93</speed>
  <fix>3d</fix>
</trkpt>
<trkpt lat="-27.2654118" lon="151.3139426">
  <ele>533.01</ele>
  <time>2026-09-01T20:00:40Z</time>
  <course>347.84</course>
  <speed>6.198386886924694</speed>
  <fix>3d</fix>
</trkpt>
<trkpt lat="-27.2654194" lon="151.313947">
  <ele>536.01</ele>
  <time>2026-09-01T20:00:40Z</time>
  <course>327.3</course>
  <speed>3.76</speed>
  <fix>3d</fix>
</trkpt>
<trkpt lat="-27.2654058" lon="151.3139407">
  <ele>531.47</ele>
  <time>2026-09-01T20:00:40Z</time>
  <course>347.24</course>
  <speed>7.421704655939902</speed>
  <fix>3d</fix>
</trkpt>
<trkpt lat="-27.2654194" lon="151.313947">
  <ele>536.01</ele>
  <time>2026-09-01T20:00:40Z</time>
  <course>327.3</course>
  <speed>3.76</speed>
  <fix>3d</fix>
</trkpt>
<trkpt lat="-27.2653987" lon="151.313939">
  <ele>529.94</ele>
  <time>2026-09-01T20:00:40Z</time>
  <course>346.42</course>
  <speed>8.765414993027997</speed>
  <fix>3d</fix>
</trkpt>
<trkpt lat="-27.2654114" lon="151.3139428">
  <ele>533.06</ele>
  <time>2026-09-01T20:00:40Z</time>
  <course>340.97</course>
  <speed>6.13</speed>
  <fix>3d</fix>
</trkpt>
<trkpt lat="-27.2653903" lon="151.3139373">
  <ele>528.41</ele>
  <time>2026-09-01T20:00:40Z</time>
  <course>345.38</course>
  <speed>10.27497931871398</speed>
  <fix>3d</fix>
</trkpt>
<trkpt lat="-27.2654114" lon="151.3139428">
  <ele>533.06</ele>
  <time>2026-09-01T20:00:40Z</time>
  <course>340.97</course>
  <speed>6.13</speed>
  <fix>3d</fix>
</trkpt>
<trkpt lat="-27.2653805" lon="151.3139354">
  <ele>526.94</ele>
  <time>2026-09-01T20:00:40Z</time>
  <course>344.29</course>
  <speed>11.814537654940205</speed>
  <fix>3d</fix>
</trkpt>
<trkpt lat="-27.2653984" lon="151.3139391">
  <ele>530.02</ele>
  <time>2026-09-01T20:00:40Z</time>
  <course>348.73</course>
  <speed>8.77</speed>
  <fix>3d</fix>
</trkpt>
<trkpt lat="-27.2653694" lon="151.313933">
  <ele>525.52</ele>
  <time>2026-09-01T20:00:40Z</time>
  <course>343.4</course>
  <speed>13.241589783707997</speed>
  <fix>3d</fix>
</trkpt>
<trkpt lat="-27.2653984" lon="151.3139391">
  <ele>530.02</ele>
  <time>2026-09-01T20:00:40Z</time>
  <course>348.73</course>
  <speed>8.77</speed>
  <fix>3d</fix>
</trkpt>
<trkpt lat="-27.2653573" lon="151.3139297">
  <ele>524.19</ele>
  <time>2026-09-01T20:00:40Z</time>
  <course>342.72</course>
  <speed>14.514795899357319</speed>
  <fix>3d</fix>
</trkpt>
<trkpt lat="-27.2653803" lon="151.3139353">
  <ele>527.04</ele>
  <time>2026-09-01T20:00:40Z</time>
  <course>349.08</course>
  <speed>11.68</speed>
  <fix>3d</fix>
</trkpt>
<trkpt lat="-27.2653443" lon="151.3139254">
  <ele>522.93</ele>
  <time>2026-09-01T20:00:40Z</time>
  <course>342.17</course>
  <speed>15.668988480434848</speed>
  <fix>3d</fix>
</trkpt>
<trkpt lat="-27.2653803" lon="151.3139353">
  <ele>527.04</ele>
  <time>2026-09-01T20:00:40Z</time>
  <course>349.08</course>
  <speed>11.68</speed>
  <fix>3d</fix>
</trkpt>
<trkpt lat="-27.2653305" lon="151.3139204">
  <ele>521.78</ele>
  <time>2026-09-01T20:00:40Z</time>
  <course>341.77</course>
  <speed>16.74593980641278</speed>
  <fix>3d</fix>
</trkpt>
<trkpt lat="-27.2653574" lon="151.3139294">
  <ele>524.29</ele>
  <time>2026-09-01T20:00:40Z</time>
  <course>345.11</course>
  <speed>14.38</speed>
  <fix>3d</fix>
</trkpt>
<trkpt lat="-27.2653159" lon="151.3139143">
  <ele>520.76</ele>
  <time>2026-09-01T20:00:40Z</time>
  <course>341.57</course>
  <speed>17.715464995308476</speed>
  <fix>3d</fix>
</trkpt>
<trkpt lat="-27.2653574" lon="151.3139294">
  <ele>524.29</ele>
  <time>2026-09-01T20:00:40Z</time>
  <course>345.11</course>
  <speed>14.38</speed>
  <fix>3d</fix>
</trkpt>
<trkpt lat="-27.2653006" lon="151.313908">
  <ele>519.87</ele>
  <time>2026-09-01T20:00:40Z</time>
  <course>341.54</course>
  <speed>18.518250457319127</speed>
  <fix>3d</fix>
</trkpt>
<trkpt lat="-27.2653307" lon="151.3139201">
  <ele>521.89</ele>
  <time>2026-09-01T20:00:40Z</time>
  <course>341.14</course>
  <speed>16.64</speed>
  <fix>3d</fix>
</trkpt>
<trkpt lat="-27.2652848" lon="151.3139014">
  <ele>519.14</ele>
  <time>2026-09-01T20:00:40Z</time>
  <course>341.63</course>
  <speed>19.111151195048404</speed>
  <fix>3d</fix>
</trkpt>
<trkpt lat="-27.2653307" lon="151.3139201">
  <ele>521.89</ele>
  <time>2026-09-01T20:00:40Z</time>
  <course>341.14</course>
  <speed>16.64</speed>
  <fix>3d</fix>
</trkpt>
<trkpt lat="-27.2652684" lon="151.3138947">
  <ele>518.54</ele>
  <time>2026-09-01T20:00:40Z</time>
  <course>341.84</course>
  <speed>19.500164101873604</speed>
  <fix>3d</fix>
</trkpt>
<trkpt lat="-27.2653011" lon="151.3139082">
  <ele>519.98</ele>
  <time>2026-09-01T20:00:40Z</time>
  <course>339.79</course>
  <speed>18.38</speed>
  <fix>3d</fix>
</trkpt>
<trkpt lat="-27.2652517" lon="151.3138885">
  <ele>518.12</ele>
  <time>2026-09-01T20:00:40Z</time>
  <course>342.1</course>
  <speed>19.685489579891073</speed>
  <fix>3d</fix>
</trkpt>
<trkpt lat="-27.2653011" lon="151.3139082">
  <ele>519.98</ele>
  <time>2026-09-01T20:00:40Z</time>
  <course>339.79</course>
  <speed>18.38</speed>
  <fix>3d</fix>
</trkpt>
<trkpt lat="-27.2652349" lon="151.3138823">
  <ele>517.84</ele>
  <time>2026-09-01T20:00:40Z</time>
  <course>342.27</course>
  <speed>19.69276516896497</speed>
  <fix>3d</fix>
</trkpt>
<trkpt lat="-27.2652689" lon="151.3138952">
  <ele>518.65</ele>
  <time>2026-09-01T20:00:40Z</time>
  <course>340.87</course>
  <speed>19.38</speed>
  <fix>3d</fix>
</trkpt>
<trkpt lat="-27.265218" lon="151.3138766">
  <ele>517.66</ele>
  <time>2026-09-01T20:00:40Z</time>
  <course>342.28</course>
  <speed>19.561689599827517</speed>
  <fix>3d</fix>
</trkpt>
<trkpt lat="-27.2652689" lon="151.3138952">
  <ele>518.65</ele>
  <time>2026-09-01T20:00:40Z</time>
  <course>340.87</course>
  <speed>19.38</speed>
  <fix>3d</fix>
</trkpt>
<trkpt lat="-27.2652012" lon="151.3138711">
  <ele>517.59</ele>
  <time>2026-09-01T20:00:40Z</time>
  <course>342.28</course>
  <speed>19.36169672316969</speed>
  <fix>3d</fix>
</trkpt>
<trkpt lat="-27.2652355" lon="151.3138827">
  <ele>517.91</ele>
  <time>2026-09-01T20:00:40Z</time>
  <course>342.56</course>
  <speed>19.63</speed>
  <fix>3d</fix>
</trkpt>
<trkpt lat="-27.2651846" lon="151.3138655">
  <ele>517.54</ele>
  <time>2026-09-01T20:00:40Z</time>
  <course>342.42</course>
  <speed>19.155724992805677</speed>
  <fix>3d</fix>
</trkpt>
<trkpt lat="-27.2652355" lon="151.3138827">
  <ele>517.91</ele>
  <time>2026-09-01T20:00:40Z</time>
  <course>342.56</course>
  <speed>19.63</speed>
  <fix>3d</fix>
</trkpt>
<trkpt lat="-27.2651682" lon="151.3138601">
  <ele>517.51</ele>
  <time>2026-09-01T20:00:40Z</time>
  <course>342.7</course>
  <speed>18.951569855819333</speed>
  <fix>3d</fix>
</trkpt>
<trkpt lat="-27.265202" lon="151.3138713">
  <ele>517.61</ele>
  <time>2026-09-01T20:00:40Z</time>
  <course>343.41</course>
  <speed>19.37</speed>
  <fix>3d</fix>
</trkpt>
<trkpt lat="-27.265152" lon="151.3138545">
  <ele>517.47</ele>
  <time>2026-09-01T20:00:40Z</time>
  <course>343.04</course>
  <speed>18.750437328233176</speed>
  <fix>3d</fix>
</trkpt>
<trkpt lat="-27.265202" lon="151.3138713">
  <ele>517.61</ele>
  <time>2026-09-01T20:00:40Z</time>
  <course>343.41</course>
  <speed>19.37</speed>
  <fix>3d</fix>
</trkpt>
<trkpt lat="-27.265136" lon="151.3138491">
  <ele>517.41</ele>
  <time>2026-09-01T20:00:40Z</time>
  <course>343.33</course>
  <speed>18.568629459386603</speed>
  <fix>3d</fix>
</trkpt>
<trkpt lat="-27.265169" lon="151.3138602">
  <ele>517.51</ele>
  <time>2026-09-01T20:00:40Z</time>
  <course>343.35</course>
  <speed>18.96</speed>
  <fix>3d</fix>
</trkpt>
<trkpt lat="-27.2651201" lon="151.3138435">
  <ele>517.34</ele>
  <time>2026-09-01T20:00:40Z</time>
  <course>343.52</course>
  <speed>18.396543153538385</speed>
  <fix>3d</fix>
</trkpt>
<trkpt lat="-27.265169" lon="151.3138602">
  <ele>517.51</ele>
  <time>2026-09-01T20:00:40Z</time>
  <course>343.35</course>
  <speed>18.96</speed>
  <fix>3d</fix>
</trkpt>
<trkpt lat="-27.2651044" lon="151.3138381">
  <ele>517.26</ele>
  <time>2026-09-01T20:00:40Z</time>
  <course>343.59</course>
  <speed>18.23481560093219</speed>
  <fix>3d</fix>
</trkpt>
<trkpt lat="-27.2651367" lon="151.3138493">
  <ele>517.4</ele>
  <time>2026-09-01T20:00:40Z</time>
  <course>343.03</course>
  <speed>18.59</speed>
  <fix>3d</fix>
</trkpt>
<trkpt lat="-27.2650888" lon="151.3138327">
  <ele>517.16</ele>
  <time>2026-09-01T20:00:40Z</time>
  <course>343.54</course>
  <speed>18.079695793900957</speed>
  <fix>3d</fix>
</trkpt>
<trkpt lat="-27.2651367" lon="151.3138493">
  <ele>517.4</ele>
  <time>2026-09-01T20:00:40Z</time>
  <course>343.03</course>
  <speed>18.59</speed>
  <fix>3d</fix>
</trkpt>
<trkpt lat="-27.2650734" lon="151.3138272">
  <ele>517.06</ele>
  <time>2026-09-01T20:00:40Z</time>
  <course>343.39</course>
  <speed>17.928217981718095</speed>
  <fix>3d</fix>
</trkpt>
<trkpt lat="-27.2651051" lon="151.3138383">
  <ele>517.26</ele>
  <time>2026-09-01T20:00:40Z</time>
  <course>342.82</course>
  <speed>18.24</speed>
  <fix>3d</fix>
</trkpt>
<trkpt lat="-27.265058" lon="151.3138219">
  <ele>516.94</ele>
  <time>2026-09-01T20:00:40Z</time>
  <course>343.19</course>
  <speed>17.786312152888804</speed>
  <fix>3d</fix>
</trkpt>
<trkpt lat="-27.2651051" lon="151.3138383">
  <ele>517.26</ele>
  <time>2026-09-01T20:00:40Z</time>
  <course>342.82</course>
  <speed>18.24</speed>
  <fix>3d</fix>
</trkpt>
<trkpt lat="-27.2650428" lon="151.3138167">
  <ele>516.82</ele>
  <time>2026-09-01T20:00:40Z</time>
  <course>343.01</course>
  <speed>17.65106229097841</speed>
  <fix>3d</fix>
</trkpt>
<trkpt lat="-27.2650741" lon="151.3138275">
  <ele>517.06</ele>
  <time>2026-09-01T20:00:40Z</time>
  <course>342.83</course>
  <speed>17.94</speed>
  <fix>3d</fix>
</trkpt>
<trkpt lat="-27.2650277" lon="151.3138115">
  <ele>516.69</ele>
  <time>2026-09-01T20:00:40Z</time>
  <course>342.88</course>
  <speed>17.52834561503167</speed>
  <fix>3d</fix>
</trkpt>
<trkpt lat="-27.2650741" lon="151.3138275">
  <ele>517.06</ele>
  <time>2026-09-01T20:00:40Z</time>
  <course>342.83</course>
  <speed>17.94</speed>
  <fix>3d</fix>
</trkpt>
<trkpt lat="-27.2650127" lon="151.3138065">
  <ele>516.56</ele>
  <time>2026-09-01T20:00:40Z</time>
  <course>342.82</course>
  <speed>17.40566574423397</speed>
  <fix>3d</fix>
</trkpt>
<trkpt lat="-27.2650435" lon="151.313817">
  <ele>516.82</ele>
  <time>2026-09-01T20:00:40Z</time>
  <course>342.99</course>
  <speed>17.66</speed>
  <fix>3d</fix>
</trkpt>
<trkpt lat="-27.2649977" lon="151.3138013">
  <ele>516.41</ele>
  <time>2026-09-01T20:00:40Z</time>
  <course>342.82</course>
  <speed>17.288796950626725</speed>
  <fix>3d</fix>
</trkpt>
<trkpt lat="-27.2650435" lon="151.313817">
  <ele>516.82</ele>
  <time>2026-09-01T20:00:40Z</time>
  <course>342.99</course>
  <speed>17.66</speed>
  <fix>3d</fix>
</trkpt>
<trkpt lat="-27.2649828" lon="151.3137963">
  <ele>516.27</ele>
  <time>2026-09-01T20:00:40Z</time>
  <course>342.88</course>
  <speed>17.1748216875751</speed>
  <fix>3d</fix>
</trkpt>
<trkpt lat="-27.2650133" lon="151.3138066">
  <ele>516.56</ele>
  <time>2026-09-01T20:00:40Z</time>
  <course>343.12</course>
  <speed>17.41</speed>
  <fix>3d</fix>
</trkpt>
<trkpt lat="-27.2649681" lon="151.3137913">
  <ele>516.12</ele>
  <time>2026-09-01T20:00:40Z</time>
  <course>342.96</course>
  <speed>17.070418858364313</speed>
  <fix>3d</fix>
</trkpt>
<trkpt lat="-27.2650133" lon="151.3138066">
  <ele>516.56</ele>
  <time>2026-09-01T20:00:40Z</time>
  <course>343.12</course>
  <speed>17.41</speed>
  <fix>3d</fix>
</trkpt>
<trkpt lat="-27.2649535" lon="151.3137863">
  <ele>515.97</ele>
  <time>2026-09-01T20:00:40Z</time>
  <course>343.05</course>
  <speed>16.968912752442332</speed>
  <fix>3d</fix>
</trkpt>
<trkpt lat="-27.2649836" lon="151.3137965">
  <ele>516.27</ele>
  <time>2026-09-01T20:00:40Z</time>
  <course>343.17</course>
  <speed>17.19</speed>
  <fix>3d</fix>
</trkpt>
<trkpt lat="-27.2649389" lon="151.3137812">
  <ele>515.82</ele>
  <time>2026-09-01T20:00:40Z</time>
  <course>343.13</course>
  <speed>16.86741236823242</speed>
  <fix>3d</fix>
</trkpt>
<trkpt lat="-27.2649836" lon="151.3137965">
  <ele>516.27</ele>
  <time>2026-09-01T20:00:40Z</time>
  <course>343.17</course>
  <speed>17.19</speed>
  <fix>3d</fix>
</trkpt>
<trkpt lat="-27.2649245" lon="151.3137764">
  <ele>515.66</ele>
  <time>2026-09-01T20:00:40Z</time>
  <course>343.18</course>
  <speed>16.775485089856566</speed>
  <fix>3d</fix>
</trkpt>
<trkpt lat="-27.2649542" lon="151.3137865">
  <ele>515.97</ele>
  <time>2026-09-01T20:00:40Z</time>
  <course>343.13</course>
  <speed>16.98</speed>
  <fix>3d</fix>
</trkpt>
<trkpt lat="-27.2649101" lon="151.3137715">
  <ele>515.5</ele>
  <time>2026-09-01T20:00:40Z</time>
  <course>343.2</course>
  <speed>16.683560771010487</speed>
  <fix>3d</fix>
</trkpt>
<trkpt lat="-27.2649542" lon="151.3137865">
  <ele>515.97</ele>
  <time>2026-09-01T20:00:40Z</time>
  <course>343.13</course>
  <speed>16.98</speed>
  <fix>3d</fix>
</trkpt>
<trkpt lat="-27.2648958" lon="151.3137665">
  <ele>515.34</ele>
  <time>2026-09-01T20:00:40Z</time>
  <course>343.2</course>
  <speed>16.598292080813618</speed>
  <fix>3d</fix>
</trkpt>
<trkpt lat="-27.2649251" lon="151.3137766">
  <ele>515.66</ele>
  <time>2026-09-01T20:00:40Z</time>
  <course>343.08</course>
  <speed>16.78</speed>
  <fix>3d</fix>
</trkpt>
<trkpt lat="-27.2648816" lon="151.3137616">
  <ele>515.16</ele>
  <time>2026-09-01T20:00:40Z</time>
  <course>343.17</course>
  <speed>16.51302516197441</speed>
  <fix>3d</fix>
</trkpt>
<trkpt lat="-27.2649251" lon="151.3137766">
  <ele>515.66</ele>
  <time>2026-09-01T20:00:40Z</time>
  <course>343.08</course>
  <speed>16.78</speed>
  <fix>3d</fix>
</trkpt>
<trkpt lat="-27.2648674" lon="151.3137568">
  <ele>515.01</ele>
  <time>2026-09-01T20:00:40Z</time>
  <course>343.15</course>
  <speed>16.42776004207512</speed>
  <fix>3d</fix>
</trkpt>
<trkpt lat="-27.2648964" lon="151.3137668">
  <ele>515.33</ele>
  <time>2026-09-01T20:00:40Z</time>
  <course>343.07</course>
  <speed>16.6</speed>
  <fix>3d</fix>
</trkpt>
<trkpt lat="-27.2648533" lon="151.313752">
  <ele>514.84</ele>
  <time>2026-09-01T20:00:40Z</time>
  <course>343.13</course>
  <speed>16.345399964516012</speed>
  <fix>3d</fix>
</trkpt>
<trkpt lat="-27.2648964" lon="151.3137668">
  <ele>515.33</ele>
  <time>2026-09-01T20:00:40Z</time>
  <course>343.07</course>
  <speed>16.6</speed>
  <fix>3d</fix>
</trkpt>
<trkpt lat="-27.2648393" lon="151.3137473">
  <ele>514.66</ele>
  <time>2026-09-01T20:00:40Z</time>
  <course>343.11</course>
  <speed>16.269704975813173</speed>
  <fix>3d</fix>
</trkpt>
<trkpt lat="-27.264868" lon="151.3137571">
  <ele>515.01</ele>
  <time>2026-09-01T20:00:40Z</time>
  <course>343.09</course>
  <speed>16.43</speed>
  <fix>3d</fix>
</trkpt>
<trkpt lat="-27.2648254" lon="151.3137425">
  <ele>514.51</ele>
  <time>2026-09-01T20:00:40Z</time>
  <course>343.1</course>
  <speed>16.194014326287352</speed>
  <fix>3d</fix>
</trkpt>
<trkpt lat="-27.264868" lon="151.3137571">
  <ele>515.01</ele>
  <time>2026-09-01T20:00:40Z</time>
  <course>343.09</course>
  <speed>16.43</speed>
  <fix>3d</fix>
</trkpt>
<trkpt lat="-27.2648115" lon="151.3137377">
  <ele>514.34</ele>
  <time>2026-09-01T20:00:40Z</time>
  <course>343.11</course>
  <speed>16.121222038046618</speed>
  <fix>3d</fix>
</trkpt>
<trkpt lat="-27.2648399" lon="151.3137475">
  <ele>514.68</ele>
  <time>2026-09-01T20:00:40Z</time>
  <course>343.12</course>
  <speed>16.27</speed>
  <fix>3d</fix>
</trkpt>
<trkpt lat="-27.2647977" lon="151.313733">
  <ele>514.16</ele>
  <time>2026-09-01T20:00:40Z</time>
  <course>343.12</course>
  <speed>16.045535204535874</speed>
  <fix>3d</fix>
</trkpt>
<trkpt lat="-27.2648399" lon="151.3137475">
  <ele>514.68</ele>
  <time>2026-09-01T20:00:40Z</time>
  <course>343.12</course>
  <speed>16.27</speed>
  <fix>3d</fix>
</trkpt>
<trkpt lat="-27.2647839" lon="151.3137284">
  <ele>514.0</ele>
  <time>2026-09-01T20:00:40Z</time>
  <course>343.14</course>
  <speed>15.972742406988225</speed>
  <fix>3d</fix>
</trkpt>
<trkpt lat="-27.2648121" lon="151.313738">
  <ele>514.33</ele>
  <time>2026-09-01T20:00:40Z</time>
  <course>343.15</course>
  <speed>16.12</speed>
  <fix>3d</fix>
</trkpt>
<trkpt lat="-27.2647702" lon="151.3137237">
  <ele>513.83</ele>
  <time>2026-09-01T20:00:40Z</time>
  <course>343.15</course>
  <speed>15.909522305839355</speed>
  <fix>3d</fix>
</trkpt>
<trkpt lat="-27.2648121" lon="151.313738">
  <ele>514.33</ele>
  <time>2026-09-01T20:00:40Z</time>
  <course>343.15</course>
  <speed>16.12</speed>
  <fix>3d</fix>
</trkpt>
<trkpt lat="-27.2647565" lon="151.313719">
  <ele>513.65</ele>
  <time>2026-09-01T20:00:40Z</time>
  <course>343.17</course>
  <speed>15.836729460339972</speed>
  <fix>3d</fix>
</trkpt>
<trkpt lat="-27.2647845" lon="151.3137286">
  <ele>514.0</ele>
  <time>2026-09-01T20:00:40Z</time>
  <course>343.17</course>
  <speed>15.98</speed>
  <fix>3d</fix>
</trkpt>
<trkpt lat="-27.2647429" lon="151.3137145">
  <ele>513.48</ele>
  <time>2026-09-01T20:00:40Z</time>
  <course>343.18</course>
  <speed>15.773509438295589</speed>
  <fix>3d</fix>
</trkpt>
<trkpt lat="-27.2647845" lon="151.3137286">
  <ele>514.0</ele>
  <time>2026-09-01T20:00:40Z</time>
  <course>343.17</course>
  <speed>15.98</speed>
  <fix>3d</fix>
</trkpt>
<trkpt lat="-27.2647294" lon="151.3137099">
  <ele>513.31</ele>
  <time>2026-09-01T20:00:40Z</time>
  <course>343.18</course>
  <speed>15.713182363862515</speed>
  <fix>3d</fix>
</trkpt>
<trkpt lat="-27.2647571" lon="151.3137192">
  <ele>513.66</ele>
  <time>2026-09-01T20:00:40Z</time>
  <course>343.17</course>
  <speed>15.85</speed>
  <fix>3d</fix>
</trkpt>
<trkpt lat="-27.2647159" lon="151.3137052">
  <ele>513.14</ele>
  <time>2026-09-01T20:00:40Z</time>
  <course>343.18</course>
  <speed>15.649961661294892</speed>
  <fix>3d</fix>
</trkpt>
<trkpt lat="-27.2647571" lon="151.3137192">
  <ele>513.66</ele>
  <time>2026-09-01T20:00:40Z</time>
  <course>343.17</course>
  <speed>15.85</speed>
  <fix>3d</fix>
</trkpt>
<trkpt lat="-27.2647025" lon="151.3137007">
  <ele>512.96</ele>
  <time>2026-09-01T20:00:40Z</time>
  <course>343.18</course>
  <speed>15.586741160358056</speed>
  <fix>3d</fix>
</trkpt>
<trkpt lat="-27.26473" lon="151.31371">
  <ele>513.31</ele>
  <time>2026-09-01T20:00:40Z</time>
  <course>343.17</course>
  <speed>15.72</speed>
  <fix>3d</fix>
</trkpt>
<trkpt lat="-27.2646891" lon="151.313696">
  <ele>512.79</ele>
  <time>2026-09-01T20:00:40Z</time>
  <course>343.18</course>
  <speed>15.533093703444912</speed>
  <fix>3d</fix>
</trkpt>
<trkpt lat="-27.26473" lon="151.31371">
  <ele>513.31</ele>
  <time>2026-09-01T20:00:40Z</time>
  <course>343.17</course>
  <speed>15.72</speed>
  <fix>3d</fix>
</trkpt>
<trkpt lat="-27.2646758" lon="151.3136916">
  <ele>512.62</ele>
  <time>2026-09-01T20:00:40Z</time>
  <course>343.18</course>
  <speed>15.472766397771279</speed>
  <fix>3d</fix>
</trkpt>
<trkpt lat="-27.2647031" lon="151.3137009">
  <ele>512.96</ele>
  <time>2026-09-01T20:00:40Z</time>
  <course>343.17</course>
  <speed>15.6</speed>
  <fix>3d</fix>
</trkpt>
<trkpt lat="-27.2646625" lon="151.313687">
  <ele>512.44</ele>
  <time>2026-09-01T20:00:40Z</time>
  <course>343.18</course>
  <speed>15.419118003310048</speed>
  <fix>3d</fix>
</trkpt>
<trkpt lat="-27.2647031" lon="151.3137009">
  <ele>512.96</ele>
  <time>2026-09-01T20:00:40Z</time>
  <course>343.17</course>
  <speed>15.6</speed>
  <fix>3d</fix>
</trkpt>
<trkpt lat="-27.2646493" lon="151.3136826">
  <ele>512.27</ele>
  <time>2026-09-01T20:00:40Z</time>
  <course>343.17</course>
  <speed>15.36836360840021</speed>
  <fix>3d</fix>
</trkpt>
<trkpt lat="-27.2646763" lon="151.3136917">
  <ele>512.62</ele>
  <time>2026-09-01T20:00:40Z</time>
  <course>343.17</course>
  <speed>15.48</speed>
  <fix>3d</fix>
</trkpt>
<trkpt lat="-27.2646361" lon="151.3136781">
  <ele>512.09</ele>
  <time>2026-09-01T20:00:40Z</time>
  <course>343.17</course>
  <speed>15.305142926480627</speed>
  <fix>3d</fix>
</trkpt>
<trkpt lat="-27.2646763" lon="151.3136917">
  <ele>512.62</ele>
  <time>2026-09-01T20:00:40Z</time>
  <course>343.17</course>
  <speed>15.48</speed>
  <fix>3d</fix>
</trkpt>
<trkpt lat="-27.2646228" lon="151.3136735">
  <ele>511.9</ele>
  <time>2026-09-01T20:00:40Z</time>
  <course>343.17</course>
  <speed>15.263960822800875</speed>
  <fix>3d</fix>
</trkpt>
<trkpt lat="-27.2646497" lon="151.3136827">
  <ele>512.27</ele>
  <time>2026-09-01T20:00:40Z</time>
  <course>343.16</course>
  <speed>15.37</speed>
  <fix>3d</fix>
</trkpt>
<trkpt lat="-27.2646097" lon="151.3136691">
  <ele>511.72</ele>
  <time>2026-09-01T20:00:40Z</time>
  <course>343.17</course>
  <speed>15.210312291337084</speed>
  <fix>3d</fix>
</trkpt>
<trkpt lat="-27.2646497" lon="151.3136827">
  <ele>512.27</ele>
  <time>2026-09-01T20:00:40Z</time>
  <course>343.16</course>
  <speed>15.37</speed>
  <fix>3d</fix>
</trkpt>
<trkpt lat="-27.2628452" lon="151.3177126">
  <ele>540.2</ele>
  <time>2026-09-01T20:00:40Z</time>
  <course>251.59</course>
  <speed>11.690218133123095</speed>
  <fix>3d</fix>
</trkpt>
<trkpt lat="-27.2646234" lon="151.3136737">
  <ele>511.9</ele>
  <time>2026-09-01T20:00:40Z</time>
  <course>343.16</course>
  <speed>15.26</speed>
  <fix>3d</fix>
</trkpt>
<trkpt lat="-27.2628473" lon="151.3177015">
  <ele>536.29</ele>
  <time>2026-09-01T20:00:40Z</time>
  <course>245.44</course>
  <speed>11.300995531368022</speed>
  <fix>3d</fix>
</trkpt>
<trkpt lat="-27.2646234" lon="151.3136737">
  <ele>511.9</ele>
  <time>2026-09-01T20:00:40Z</time>
  <course>343.16</course>
  <speed>15.26</speed>
  <fix>3d</fix>
</trkpt>
<trkpt lat="-27.2628507" lon="151.3176901">
  <ele>532.36</ele>
  <time>2026-09-01T20:00:40Z</time>
  <course>229.87</course>
  <speed>12.573006800284489</speed>
  <fix>3d</fix>
</trkpt>
<trkpt lat="-27.2637287" lon="151.3156856">
  <ele>524.08</ele>
  <time>2026-09-01T20:00:40Z</time>
  <course>308.25</course>
  <speed>9.81</speed>
  <fix>3d</fix>
</trkpt>
<trkpt lat="-27.2628575" lon="151.3176792">
  <ele>528.43</ele>
  <time>2026-09-01T20:00:40Z</time>
  <course>206.26</course>
  <speed>13.563966971354654</speed>
  <fix>3d</fix>
</trkpt>
<trkpt lat="-27.2637287" lon="151.3156856">
  <ele>524.08</ele>
  <time>2026-09-01T20:00:40Z</time>
  <course>308.25</course>
  <speed>9.81</speed>
  <fix>3d</fix>
</trkpt>
<trkpt lat="-27.2628678" lon="151.3176715">
  <ele>524.52</ele>
  <time>2026-09-01T20:00:40Z</time>
  <course>186.36</course>
  <speed>14.031286469885789</speed>
  <fix>3d</fix>
</trkpt>
<trkpt lat="-27.2628521" lon="151.3176907">
  <ele>532.52</ele>
  <time>2026-09-01T20:00:40Z</time>
  <course>239.8</course>
  <speed>11.91</speed>
  <fix>3d</fix>
</trkpt>
<trkpt lat="-27.2628797" lon="151.3176671">
  <ele>520.59</ele>
  <time>2026-09-01T20:00:40Z</time>
  <course>178.9</course>
  <speed>14.10563362632108</speed>
  <fix>3d</fix>
</trkpt>
<trkpt lat="-27.2628521" lon="151.3176907">
  <ele>532.52</ele>
  <time>2026-09-01T20:00:40Z</time>
  <course>239.8</course>
  <speed>11.91</speed>
  <fix>3d</fix>
</trkpt>
<trkpt lat="-27.2628927" lon="151.3176608">
  <ele>516.72</ele>
  <time>2026-09-01T20:00:40Z</time>
  <course>201.19</course>
  <speed>18.745114030061274</speed>
  <fix>3d</fix>
</trkpt>
<trkpt lat="-27.2628681" lon="151.3176734">
  <ele>524.67</ele>
  <time>2026-09-01T20:00:40Z</time>
  <course>210.23</course>
  <speed>13.36</speed>
  <fix>3d</fix>
</trkpt>
<trkpt lat="-27.262909" lon="151.3176466">
  <ele>513.31</ele>
  <time>2026-09-01T20:00:40Z</time>
  <course>213.02</course>
  <speed>27.52978205507628</speed>
  <fix>3d</fix>
</trkpt>
<trkpt lat="-27.2628681" lon="151.3176734">
  <ele>524.67</ele>
  <time>2026-09-01T20:00:40Z</time>
  <course>210.23</course>
  <speed>13.36</speed>
  <fix>3d</fix>
</trkpt>
<trkpt lat="-27.2629298" lon="151.3176254">
  <ele>510.76</ele>
  <time>2026-09-01T20:00:40Z</time>
  <course>219.36</course>
  <speed>34.32207015900993</speed>
  <fix>3d</fix>
</trkpt>
<trkpt lat="-27.2628937" lon="151.3176573">
  <ele>517.09</ele>
  <time>2026-09-01T20:00:40Z</time>
  <course>212.3</course>
  <speed>20.19</speed>
  <fix>3d</fix>
</trkpt>
<trkpt lat="-27.2629534" lon="151.3176001">
  <ele>509.24</ele>
  <time>2026-09-01T20:00:40Z</time>
  <course>222.4</course>
  <speed>37.59874465989523</speed>
  <fix>3d</fix>
</trkpt>
<trkpt lat="-27.2628937" lon="151.3176573">
  <ele>517.09</ele>
  <time>2026-09-01T20:00:40Z</time>
  <course>212.3</course>
  <speed>20.19</speed>
  <fix>3d</fix>
</trkpt>
<trkpt lat="-27.2629778" lon="151.3175738">
  <ele>508.93</ele>
  <time>2026-09-01T20:00:40Z</time>
  <course>223.55</course>
  <speed>36.9087970543609</speed>
  <fix>3d</fix>
</trkpt>
<trkpt lat="-27.2629303" lon="151.3176243">
  <ele>511.36</ele>
  <time>2026-09-01T20:00:40Z</time>
  <course>222.43</course>
  <speed>32.35</speed>
  <fix>3d</fix>
</trkpt>
<trkpt lat="-27.2630002" lon="151.3175494">
  <ele>509.81</ele>
  <time>2026-09-01T20:00:40Z</time>
  <course>223.87</course>
  <speed>32.19848598925111</speed>
  <fix>3d</fix>
</trkpt>
<trkpt lat="-27.2629303" lon="151.3176243">
  <ele>511.36</ele>
  <time>2026-09-01T20:00:40Z</time>
  <course>222.43</course>
  <speed>32.35</speed>
  <fix>3d</fix>
</trkpt>
<trkpt lat="-27.2630188" lon="151.3175291">
  <ele>511.6</ele>
  <time>2026-09-01T20:00:40Z</time>
  <course>224.55</course>
  <speed>25.27288665744378</speed>
  <fix>3d</fix>
</trkpt>
<trkpt lat="-27.2629759" lon="151.3175757">
  <ele>509.51</ele>
  <time>2026-09-01T20:00:40Z</time>
  <course>223.9</course>
  <speed>35.0</speed>
  <fix>3d</fix>
</trkpt>
<trkpt lat="-27.2630324" lon="151.3175135">
  <ele>513.96</ele>
  <time>2026-09-01T20:00:40Z</time>
  <course>227.13</course>
  <speed>18.001036081292654</speed>
  <fix>3d</fix>
</trkpt>
<trkpt lat="-27.2629759" lon="151.3175757">
  <ele>509.51</ele>
  <time>2026-09-01T20:00:40Z</time>
  <course>223.9</course>
  <speed>35.0</speed>
  <fix>3d</fix>
</trkpt>
<trkpt lat="-27.2630415" lon="151.3175023">
  <ele>516.58</ele>
  <time>2026-09-01T20:00:40Z</time>
  <course>231.35</course>
  <speed>12.477315416386652</speed>
  <fix>3d</fix>
</trkpt>
<trkpt lat="-27.2630156" lon="151.3175321">
  <ele>511.8</ele>
  <time>2026-09-01T20:00:40Z</time>
  <course>224.88</course>
  <speed>25.37</speed>
  <fix>3d</fix>
</trkpt>
<trkpt lat="-27.263047" lon="151.3174942">
  <ele>519.26</ele>
  <time>2026-09-01T20:00:40Z</time>
  <course>242.69</course>
  <speed>7.791238669171931</speed>
  <fix>3d</fix>
</trkpt>
<trkpt lat="-27.2630156" lon="151.3175321">
  <ele>511.8</ele>
  <time>2026-09-01T20:00:40Z</time>
  <course>224.88</course>
  <speed>25.37</speed>
  <fix>3d</fix>
</trkpt>
<trkpt lat="-27.2630492" lon="151.3174891">
  <ele>521.9</ele>
  <time>2026-09-01T20:00:40Z</time>
  <course>289.02</course>
  <speed>3.6270787143374763</speed>
  <fix>3d</fix>
</trkpt>
<trkpt lat="-27.2630393" lon="151.3175043">
  <ele>516.49</ele>
  <time>2026-09-01T20:00:40Z</time>
  <course>229.36</course>
  <speed>13.09</speed>
  <fix>3d</fix>
</trkpt>
<trkpt lat="-27.2630486" lon="151.3174871">
  <ele>524.43</ele>
  <time>2026-09-01T20:00:40Z</time>
  <course>31.28</course>
  <speed>2.14</speed>
  <fix>3d</fix>
</trkpt>
<trkpt lat="-27.2630393" lon="151.3175043">
  <ele>516.49</ele>
  <time>2026-09-01T20:00:40Z</time>
  <course>229.36</course>
  <speed>13.09</speed>
  <fix>3d</fix>
</trkpt>
<trkpt lat="-27.2630458" lon="151.3174895">
  <ele>526.77</ele>
  <time>2026-09-01T20:00:40Z</time>
  <course>57.6</course>
  <speed>6.030132668523969</speed>
  <fix>3d</fix>
</trkpt>
<trkpt lat="-27.2630477" lon="151.3174908">
  <ele>521.74</ele>
  <time>2026-09-01T20:00:40Z</time>
  <course>250.99</course>
  <speed>3.6</speed>
  <fix>3d</fix>
</trkpt>
<trkpt lat="-27.2630428" lon="151.3174965">
  <ele>528.85</ele>
  <time>2026-09-01T20:00:40Z</time>
  <course>76.79</course>
  <speed>9.216127169261501</speed>
  <fix>3d</fix>
</trkpt>
<trkpt lat="-27.2630477" lon="151.3174908">
  <ele>521.74</ele>
  <time>2026-09-01T20:00:40Z</time>
  <course>250.99</course>
  <speed>3.6</speed>
  <fix>3d</fix>
</trkpt>
<trkpt lat="-27.2630413" lon="151.3175067">
  <ele>530.64</ele>
  <time>2026-09-01T20:00:40Z</time>
  <course>93.83</course>
  <speed>11.090392238329535</speed>
  <fix>3d</fix>
</trkpt>
<trkpt lat="-27.2630458" lon="151.3174917">
  <ele>526.56</ele>
  <time>2026-09-01T20:00:40Z</time>
  <course>60.18</course>
  <speed>4.91</speed>
  <fix>3d</fix>
</trkpt>
<trkpt lat="-27.2630421" lon="151.3175183">
  <ele>532.21</ele>
  <time>2026-09-01T20:00:40Z</time>
  <course>108.41</course>
  <speed>11.980016694479186</speed>
  <fix>3d</fix>
</trkpt>
<trkpt lat="-27.2630458" lon="151.3174917">
  <ele>526.56</ele>
  <time>2026-09-01T20:00:40Z</time>
  <course>60.18</course>
  <speed>4.91</speed>
  <fix>3d</fix>
</trkpt>
<trkpt lat="-27.2630451" lon="151.3175302">
  <ele>533.58</ele>
  <time>2026-09-01T20:00:40Z</time>
  <course>119.15</course>
  <speed>12.211326709248262</speed>
  <fix>3d</fix>
</trkpt>
<trkpt lat="-27.2630424" lon="151.3175071">
  <ele>530.47</ele>
  <time>2026-09-01T20:00:40Z</time>
  <course>87.93</course>
  <speed>10.24</speed>
  <fix>3d</fix>
</trkpt>
<trkpt lat="-27.2630498" lon="151.3175412">
  <ele>534.81</ele>
  <time>2026-09-01T20:00:40Z</time>
  <course>123.02</course>
  <speed>12.032659722604974</speed>
  <fix>3d</fix>
</trkpt>
<trkpt lat="-27.2630424" lon="151.3175071">
  <ele>530.47</ele>
  <time>2026-09-01T20:00:40Z</time>
  <course>87.93</course>
  <speed>10.24</speed>
  <fix>3d</fix>
</trkpt>
<trkpt lat="-27.2630556" lon="151.3175513">
  <ele>535.95</ele>
  <time>2026-09-01T20:00:40Z</time>
  <course>119.48</course>
  <speed>11.719428313701997</speed>
  <fix>3d</fix>
</trkpt>
<trkpt lat="-27.2630458" lon="151.3175294">
  <ele>533.47</ele>
  <time>2026-09-01T20:00:40Z</time>
  <course>109.93</course>
  <speed>11.83</speed>
  <fix>3d</fix>
</trkpt>
<trkpt lat="-27.2630615" lon="151.3175609">
  <ele>536.99</ele>
  <time>2026-09-01T20:00:40Z</time>
  <course>105.84</course>
  <speed>11.672553276811378</speed>
  <fix>3d</fix>
</trkpt>
<trkpt lat="-27.2630458" lon="151.3175294">
  <ele>533.47</ele>
  <time>2026-09-01T20:00:40Z</time>
  <course>109.93</course>
  <speed>11.83</speed>
  <fix>3d</fix>
</trkpt>
<trkpt lat="-27.2630668" lon="151.3175714">
  <ele>537.89</ele>
  <time>2026-09-01T20:00:40Z</time>
  <course>98.06</course>
  <speed>11.96371597790586</speed>
  <fix>3d</fix>
</trkpt>
<trkpt lat="-27.2630555" lon="151.3175507">
  <ele>535.86</ele>
  <time>2026-09-01T20:00:40Z</time>
  <course>121.27</course>
  <speed>11.85</speed>
  <fix>3d</fix>
</trkpt>
<trkpt lat="-27.2630714" lon="151.3175825">
  <ele>538.59</ele>
  <time>2026-09-01T20:00:40Z</time>
  <course>95.12</course>
  <speed>12.31077982907663</speed>
  <fix>3d</fix>
</trkpt>
<trkpt lat="-27.2630555" lon="151.3175507">
  <ele>535.86</ele>
  <time>2026-09-01T20:00:40Z</time>
  <course>121.27</course>
  <speed>11.85</speed>
  <fix>3d</fix>
</trkpt>
<trkpt lat="-27.2630754" lon="151.3175943">
  <ele>539.12</ele>
  <time>2026-09-01T20:00:40Z</time>
  <course>93.82</course>
  <speed>12.56621263547613</speed>
  <fix>3d</fix>
</trkpt>
<trkpt lat="-27.2630662" lon="151.3175714">
  <ele>537.76</ele>
  <time>2026-09-01T20:00:40Z</time>
  <course>117.65</course>
  <speed>11.93</speed>
  <fix>3d</fix>
</trkpt>
<trkpt lat="-27.263079" lon="151.3176064">
  <ele>539.46</ele>
  <time>2026-09-01T20:00:40Z</time>
  <course>92.76</course>
  <speed>12.773993111004875</speed>
  <fix>3d</fix>
</trkpt>
<trkpt lat="-27.2630662" lon="151.3175714">
  <ele>537.76</ele>
  <time>2026-09-01T20:00:40Z</time>
  <course>117.65</course>
  <speed>11.93</speed>
  <fix>3d</fix>
</trkpt>
<trkpt lat="-27.2630823" lon="151.3176188">
  <ele>539.66</ele>
  <time>2026-09-01T20:00:40Z</time>
  <course>92.61</course>
  <speed>12.975207127441164</speed>
  <fix>3d</fix>
</trkpt>
<trkpt lat="-27.263075" lon="151.317594">
  <ele>539.01</ele>
  <time>2026-09-01T20:00:40Z</time>
  <course>110.1</course>
  <speed>12.52</speed>
  <fix>3d</fix>
</trkpt>
<trkpt lat="-27.2630855" lon="151.3176316">
  <ele>539.72</ele>
  <time>2026-09-01T20:00:40Z</time>
  <course>93.25</course>
  <speed>13.13758349164716</speed>
  <fix>3d</fix>
</trkpt>
<trkpt lat="-27.263075" lon="151.317594">
  <ele>539.01</ele>
  <time>2026-09-01T20:00:40Z</time>
  <course>110.1</course>
  <speed>12.52</speed>
  <fix>3d</fix>
</trkpt>
<trkpt lat="-27.2630885" lon="151.3176446">
  <ele>539.63</ele>
  <time>2026-09-01T20:00:40Z</time>
  <course>94.37</course>
  <speed>13.220627821703477</speed>
  <fix>3d</fix>
</trkpt>
<trkpt lat="-27.2630821" lon="151.3176185">
  <ele>539.58</ele>
  <time>2026-09-01T20:00:40Z</time>
  <course>106.3</course>
  <speed>12.95</speed>
  <fix>3d</fix>
</trkpt>
<trkpt lat="-27.2630912" lon="151.3176576">
  <ele>539.39</ele>
  <time>2026-09-01T20:00:40Z</time>
  <course>95.34</course>
  <speed>13.246512748644452</speed>
  <fix>3d</fix>
</trkpt>
<trkpt lat="-27.2630821" lon="151.3176185">
  <ele>539.58</ele>
  <time>2026-09-01T20:00:40Z</time>
  <course>106.3</course>
  <speed>12.95</speed>
  <fix>3d</fix>
</trkpt>
<trkpt lat="-27.2630939" lon="151.3176705">
  <ele>539.0</ele>
  <time>2026-09-01T20:00:40Z</time>
  <course>95.34</course>
  <speed>13.207819653523439</speed>
  <fix>3d</fix>
</trkpt>
<trkpt lat="-27.2630882" lon="151.317644">
  <ele>539.56</ele>
  <time>2026-09-01T20:00:40Z</time>
  <course>104.11</course>
  <speed>13.19</speed>
  <fix>3d</fix>
</trkpt>
<trkpt lat="-27.2630964" lon="151.3176835">
  <ele>538.45</ele>
  <time>2026-09-01T20:00:40Z</time>
  <course>94.08</course>
  <speed>13.242356285797479</speed>
  <fix>3d</fix>
</trkpt>
<trkpt lat="-27.2630882" lon="151.317644">
  <ele>539.56</ele>
  <time>2026-09-01T20:00:40Z</time>
  <course>104.11</course>
  <speed>13.19</speed>
  <fix>3d</fix>
</trkpt>
<trkpt lat="-27.2630988" lon="151.3176968">
  <ele>537.82</ele>
  <time>2026-09-01T20:00:40Z</time>
  <course>92.18</course>
  <speed>13.540908389026194</speed>
  <fix>3d</fix>
</trkpt>
<trkpt lat="-27.2630937" lon="151.31767">
  <ele>538.94</ele>
  <time>2026-09-01T20:00:40Z</time>
  <course>102.54</course>
  <speed>13.24</speed>
  <fix>3d</fix>
</trkpt>
<trkpt lat="-27.2631009" lon="151.3177106">
  <ele>537.16</ele>
  <time>2026-09-01T20:00:40Z</time>
  <course>90.34</course>
  <speed>14.023309167240093</speed>
  <fix>3d</fix>
</trkpt>
<trkpt lat="-27.2630937" lon="151.31767">
  <ele>538.94</ele>
  <time>2026-09-01T20:00:40Z</time>
  <course>102.54</course>
  <speed>13.24</speed>
  <fix>3d</fix>
</trkpt>
<trkpt lat="-27.2631028" lon="151.3177249">
  <ele>536.56</ele>
  <time>2026-09-01T20:00:40Z</time>
  <course>89.03</course>
  <speed>14.580569261863543</speed>
  <fix>3d</fix>
</trkpt>
<trkpt lat="-27.2630985" lon="151.3176965">
  <ele>537.83</ele>
  <time>2026-09-01T20:00:40Z</time>
  <course>100.58</course>
  <speed>13.62</speed>
  <fix>3d</fix>
</trkpt>
<trkpt lat="-27.2631047" lon="151.3177398">
  <ele>536.03</ele>
  <time>2026-09-01T20:00:40Z</time>
  <course>88.45</course>
  <speed>15.108358613694607</speed>
  <fix>3d</fix>
</trkpt>
<trkpt lat="-27.2630985" lon="151.3176965">
  <ele>537.83</ele>
  <time>2026-09-01T20:00:40Z</time>
  <course>100.58</course>
  <speed>13.62</speed>
  <fix>3d</fix>
</trkpt>
<trkpt lat="-27.2631066" lon="151.3177551">
  <ele>535.6</ele>
  <time>2026-09-01T20:00:40Z</time>
  <course>88.68</course>
  <speed>15.50262558407446</speed>
  <fix>3d</fix>
</trkpt>
<trkpt lat="-27.2631027" lon="151.3177246">
  <ele>536.61</ele>
  <time>2026-09-01T20:00:40Z</time>
  <course>98.53</course>
  <speed>14.55</speed>
  <fix>3d</fix>
</trkpt>
<trkpt lat="-27.2631086" lon="151.3177706">
  <ele>535.32</ele>
  <time>2026-09-01T20:00:40Z</time>
  <course>89.72</course>
  <speed>15.687271910692438</speed>
  <fix>3d</fix>
</trkpt>
<trkpt lat="-27.2631027" lon="151.3177246">
  <ele>536.61</ele>
  <time>2026-09-01T20:00:40Z</time>
  <course>98.53</course>
  <speed>14.55</speed>
  <fix>3d</fix>
</trkpt>
<trkpt lat="-27.2631111" lon="151.3177863">
  <ele>535.19</ele>
  <time>2026-09-01T20:00:40Z</time>
  <course>91.21</course>
  <speed>15.619193321039342</speed>
  <fix>3d</fix>
</trkpt>
<trkpt lat="-27.2631066" lon="151.3177547">
  <ele>535.68</ele>
  <time>2026-09-01T20:00:40Z</time>
  <course>98.43</course>
  <speed>15.39</speed>
  <fix>3d</fix>
</trkpt>
<trkpt lat="-27.2631139" lon="151.3178016">
  <ele>535.21</ele>
  <time>2026-09-01T20:00:40Z</time>
  <course>92.68</course>
  <speed>15.321997258843249</speed>
  <fix>3d</fix>
</trkpt>
<trkpt lat="-27.2631066" lon="151.3177547">
  <ele>535.68</ele>
  <time>2026-09-01T20:00:40Z</time>
  <course>98.43</course>
  <speed>15.39</speed>
  <fix>3d</fix>
</trkpt>
<trkpt lat="-27.2631172" lon="151.3178165">
  <ele>535.36</ele>
  <time>2026-09-01T20:00:40Z</time>
  <course>94.07</course>
  <speed>14.887434298763505</speed>
  <fix>3d</fix>
</trkpt>
<trkpt lat="-27.2631112" lon="151.3177856">
  <ele>535.26</ele>
  <time>2026-09-01T20:00:40Z</time>
  <course>100.89</course>
  <speed>15.51</speed>
  <fix>3d</fix>
</trkpt>
<trkpt lat="-27.2631206" lon="151.3178307">
  <ele>535.6</ele>
  <time>2026-09-01T20:00:40Z</time>
  <course>95.42</course>
  <speed>14.359697072013741</speed>
  <fix>3d</fix>
</trkpt>
<trkpt lat="-27.2631112" lon="151.3177856">
  <ele>535.26</ele>
  <time>2026-09-01T20:00:40Z</time>
  <course>100.89</course>
  <speed>15.51</speed>
  <fix>3d</fix>
</trkpt>
<trkpt lat="-27.2631243" lon="151.3178443">
  <ele>535.93</ele>
  <time>2026-09-01T20:00:40Z</time>
  <course>96.66</course>
  <speed>13.792842346666621</speed>
  <fix>3d</fix>
</trkpt>
<trkpt lat="-27.2631171" lon="151.3178156">
  <ele>535.39</ele>
  <time>2026-09-01T20:00:40Z</time>
  <course>104.34</course>
  <speed>14.85</speed>
  <fix>3d</fix>
</trkpt>
<trkpt lat="-27.263128" lon="151.3178572">
  <ele>536.31</ele>
  <time>2026-09-01T20:00:40Z</time>
  <course>97.81</course>
  <speed>13.215267685521924</speed>
  <fix>3d</fix>
</trkpt>
<trkpt lat="-27.2631171" lon="151.3178156">
  <ele>535.39</ele>
  <time>2026-09-01T20:00:40Z</time>
  <course>104.34</course>
  <speed>14.85</speed>
  <fix>3d</fix>
</trkpt>
<trkpt lat="-27.2631319" lon="151.3178696">
  <ele>536.73</ele>
  <time>2026-09-01T20:00:41Z</time>
  <course>98.88</course>
  <speed>12.641075903577196</speed>
  <fix>3d</fix>
</trkpt>
<trkpt lat="-27.2631242" lon="151.3178436">
  <ele>535.94</ele>
  <time>2026-09-01T20:00:41Z</time>
  <course>107.28</course>
  <speed>13.8</speed>
  <fix>3d</fix>
</trkpt>
<trkpt lat="-27.2631358" lon="151.3178812">
  <ele>537.16</ele>
  <time>2026-09-01T20:00:41Z</time>
  <course>99.82</course>
  <speed>12.09120754928969</speed>
  <fix>3d</fix>
</trkpt>
<trkpt lat="-27.2631242" lon="151.3178436">
  <ele>535.94</ele>
  <time>2026-09-01T20:00:41Z</time>
  <course>107.28</course>
  <speed>13.8</speed>
  <fix>3d</fix>
</trkpt>
<trkpt lat="-27.2631398" lon="151.3178924">
  <ele>537.62</ele>
  <time>2026-09-01T20:00:41Z</time>
  <course>100.65</course>
  <speed>11.584627745421948</speed>
  <fix>3d</fix>
</trkpt>
<trkpt lat="-27.2631317" lon="151.3178689">
  <ele>536.73</ele>
  <time>2026-09-01T20:00:41Z</time>
  <course>109.88</course>
  <speed>12.67</speed>
  <fix>3d</fix>
</trkpt>
<trkpt lat="-27.2631438" lon="151.317903">
  <ele>538.07</ele>
  <time>2026-09-01T20:00:41Z</time>
  <course>101.36</course>
  <speed>11.122176046080192</speed>
  <fix>3d</fix>
</trkpt>
<trkpt lat="-27.2631317" lon="151.3178689">
  <ele>536.73</ele>
  <time>2026-09-01T20:00:41Z</time>
  <course>109.88</course>
  <speed>12.67</speed>
  <fix>3d</fix>
</trkpt>
<trkpt lat="-27.2631478" lon="151.317913">
  <ele>538.5</ele>
  <time>2026-09-01T20:00:41Z</time>
  <course>101.99</course>
  <speed>10.688133606949343</speed>
  <fix>3d</fix>
</trkpt>
<trkpt lat="-27.2631396" lon="151.3178917">
  <ele>537.6</ele>
  <time>2026-09-01T20:00:41Z</time>
  <course>112.41</course>
  <speed>11.62</speed>
  <fix>3d</fix>
</trkpt>
<trkpt lat="-27.2631519" lon="151.3179226">
  <ele>538.91</ele>
  <time>2026-09-01T20:00:41Z</time>
  <course>102.55</course>
  <speed>10.27731968949103</speed>
  <fix>3d</fix>
</trkpt>
<trkpt lat="-27.2631396" lon="151.3178917">
  <ele>537.6</ele>
  <time>2026-09-01T20:00:41Z</time>
  <course>112.41</course>
  <speed>11.62</speed>
  <fix>3d</fix>
</trkpt>
<trkpt lat="-27.263156" lon="151.3179318">
  <ele>539.29</ele>
  <time>2026-09-01T20:00:41Z</time>
  <course>103.06</course>
  <speed>9.893214846550135</speed>
  <fix>3d</fix>
</trkpt>
<trkpt lat="-27.2631476" lon="151.3179124">
  <ele>538.47</ele>
  <time>2026-09-01T20:00:41Z</time>
  <course>114.85</course>
  <speed>10.72</speed>
  <fix>3d</fix>
</trkpt>
<trkpt lat="-27.2631601" lon="151.3179404">
  <ele>539.66</ele>
  <time>2026-09-01T20:00:41Z</time>
  <course>103.48</course>
  <speed>9.517988232814748</speed>
  <fix>3d</fix>
</trkpt>
<trkpt lat="-27.2631476" lon="151.3179124">
  <ele>538.47</ele>
  <time>2026-09-01T20:00:41Z</time>
  <course>114.85</course>
  <speed>10.72</speed>
  <fix>3d</fix>
</trkpt>
<trkpt lat="-27.2631642" lon="151.3179487">
  <ele>540.0</ele>
  <time>2026-09-01T20:00:41Z</time>
  <course>103.81</course>
  <speed>9.147595312430475</speed>
  <fix>3d</fix>
</trkpt>
<trkpt lat="-27.2631558" lon="151.3179311">
  <ele>539.27</ele>
  <time>2026-09-01T20:00:41Z</time>
  <course>117.24</course>
  <speed>9.91</speed>
  <fix>3d</fix>
</trkpt>
<trkpt lat="-27.2631683" lon="151.3179564">
  <ele>540.32</ele>
  <time>2026-09-01T20:00:41Z</time>
  <course>104.0</course>
  <speed>8.791188770581599</speed>
  <fix>3d</fix>
</trkpt>
<trkpt lat="-27.2631558" lon="151.3179311">
  <ele>539.27</ele>
  <time>2026-09-01T20:00:41Z</time>
  <course>117.24</course>
  <speed>9.91</speed>
  <fix>3d</fix>
</trkpt>
<trkpt lat="-27.2631724" lon="151.3179638">
  <ele>540.61</ele>
  <time>2026-09-01T20:00:41Z</time>
  <course>104.05</course>
  <speed>8.423853037654444</speed>
  <fix>3d</fix>
</trkpt>
<trkpt lat="-27.2631639" lon="151.3179481">
  <ele>539.98</ele>
  <time>2026-09-01T20:00:41Z</time>
  <course>119.85</course>
  <speed>9.17</speed>
  <fix>3d</fix>
</trkpt>
<trkpt lat="-27.2631765" lon="151.3179707">
  <ele>540.89</ele>
  <time>2026-09-01T20:00:41Z</time>
  <course>103.91</course>
  <speed>8.063808033429368</speed>
  <fix>3d</fix>
</trkpt>
<trkpt lat="-27.2631639" lon="151.3179481">
  <ele>539.98</ele>
  <time>2026-09-01T20:00:41Z</time>
  <course>119.85</course>
  <speed>9.17</speed>
  <fix>3d</fix>
</trkpt>
<trkpt lat="-27.2631806" lon="151.3179772">
  <ele>541.15</ele>
  <time>2026-09-01T20:00:41Z</time>
  <course>103.58</course>
  <speed>7.6960314448422045</speed>
  <fix>3d</fix>
</trkpt>
<trkpt lat="-27.2631722" lon="151.3179633">
  <ele>540.59</ele>
  <time>2026-09-01T20:00:41Z</time>
  <course>122.91</course>
  <speed>8.44</speed>
  <fix>3d</fix>
</trkpt>
<trkpt lat="-27.2631848" lon="151.3179831">
  <ele>541.39</ele>
  <time>2026-09-01T20:00:41Z</time>
  <course>103.02</course>
  <speed>7.330900353981085</speed>
  <fix>3d</fix>
</trkpt>
<trkpt lat="-27.2631722" lon="151.3179633">
  <ele>540.59</ele>
  <time>2026-09-01T20:00:41Z</time>
  <course>122.91</course>
  <speed>8.44</speed>
  <fix>3d</fix>
</trkpt>
<trkpt lat="-27.2631889" lon="151.3179887">
  <ele>541.63</ele>
  <time>2026-09-01T20:00:41Z</time>
  <course>102.24</course>
  <speed>6.957614533732089</speed>
  <fix>3d</fix>
</trkpt>
<trkpt lat="-27.2631805" lon="151.3179767">
  <ele>541.13</ele>
  <time>2026-09-01T20:00:41Z</time>
  <course>126.66</course>
  <speed>7.71</speed>
  <fix>3d</fix>
</trkpt>
<trkpt lat="-27.2631931" lon="151.3179937">
  <ele>541.86</ele>
  <time>2026-09-01T20:00:41Z</time>
  <course>101.22</course>
  <speed>6.583805890212742</speed>
  <fix>3d</fix>
</trkpt>
<trkpt lat="-27.2631805" lon="151.3179767">
  <ele>541.13</ele>
  <time>2026-09-01T20:00:41Z</time>
  <course>126.66</course>
  <speed>7.71</speed>
  <fix>3d</fix>
</trkpt>
<trkpt lat="-27.2631972" lon="151.3179983">
  <ele>542.08</ele>
  <time>2026-09-01T20:00:41Z</time>
  <course>99.95</course>
  <speed>6.206842997853256</speed>
  <fix>3d</fix>
</trkpt>
<trkpt lat="-27.2631887" lon="151.3179883">
  <ele>541.62</ele>
  <time>2026-09-01T20:00:41Z</time>
  <course>131.36</course>
  <speed>6.96</speed>
  <fix>3d</fix>
</trkpt>
<trkpt lat="-27.2632013" lon="151.3180023">
  <ele>542.29</ele>
  <time>2026-09-01T20:00:41Z</time>
  <course>98.42</course>
  <speed>5.830077186453024</speed>
  <fix>3d</fix>
</trkpt>
<trkpt lat="-27.2631887" lon="151.3179883">
  <ele>541.62</ele>
  <time>2026-09-01T20:00:41Z</time>
  <course>131.36</course>
  <speed>6.96</speed>
  <fix>3d</fix>
</trkpt>
<trkpt lat="-27.2632053" lon="151.3180056">
  <ele>542.51</ele>
  <time>2026-09-01T20:00:41Z</time>
  <course>96.61</course>
  <speed>5.470831746635972</speed>
  <fix>3d</fix>
</trkpt>
<trkpt lat="-27.263197" lon="151.3179978">
  <ele>542.06</ele>
  <time>2026-09-01T20:00:41Z</time>
  <course>137.3</course>
  <speed>6.21</speed>
  <fix>3d</fix>
</trkpt>
<trkpt lat="-27.2632093" lon="151.3180085">
  <ele>542.73</ele>
  <time>2026-09-01T20:00:41Z</time>
  <course>94.53</course>
  <speed>5.110772935672255</speed>
  <fix>3d</fix>
</trkpt>
<trkpt lat="-27.263197" lon="151.3179978">
  <ele>542.06</ele>
  <time>2026-09-01T20:00:41Z</time>
  <course>137.3</course>
  <speed>6.21</speed>
  <fix>3d</fix>
</trkpt>
<trkpt lat="-27.2632132" lon="151.3180109">
  <ele>542.95</ele>
  <time>2026-09-01T20:00:41Z</time>
  <course>92.18</course>
  <speed>4.763297177376192</speed>
  <fix>3d</fix>
</trkpt>
<trkpt lat="-27.2632051" lon="151.3180052">
  <ele>542.5</ele>
  <time>2026-09-01T20:00:41Z</time>
  <course>144.77</course>
  <speed>5.47</speed>
  <fix>3d</fix>
</trkpt>
<trkpt lat="-27.263217" lon="151.3180128">
  <ele>543.16</ele>
  <time>2026-09-01T20:00:41Z</time>
  <course>89.59</course>
  <speed>4.430011286667337</speed>
  <fix>3d</fix>
</trkpt>
<trkpt lat="-27.2632051" lon="151.3180052">
  <ele>542.5</ele>
  <time>2026-09-01T20:00:41Z</time>
  <course>144.77</course>
  <speed>5.47</speed>
  <fix>3d</fix>
</trkpt>
<trkpt lat="-27.2632207" lon="151.3180141">
  <ele>543.4</ele>
  <time>2026-09-01T20:00:41Z</time>
  <course>86.83</course>
  <speed>4.091576713199937</speed>
  <fix>3d</fix>
</trkpt>
<trkpt lat="-27.263213" lon="151.3180105">
  <ele>542.93</ele>
  <time>2026-09-01T20:00:41Z</time>
  <course>153.92</course>
  <speed>4.76</speed>
  <fix>3d</fix>
</trkpt>
<trkpt lat="-27.2632241" lon="151.3180147">
  <ele>543.63</ele>
  <time>2026-09-01T20:00:41Z</time>
  <course>84.0</course>
  <speed>3.774572823512616</speed>
  <fix>3d</fix>
</trkpt>
<trkpt lat="-27.263213" lon="151.3180105">
  <ele>542.93</ele>
  <time>2026-09-01T20:00:41Z</time>
  <course>153.92</course>
  <speed>4.76</speed>
  <fix>3d</fix>
</trkpt>
<trkpt lat="-27.2632274" lon="151.318015">
  <ele>543.88</ele>
  <time>2026-09-01T20:00:41Z</time>
  <course>81.22</course>
  <speed>3.4914323708186017</speed>
  <fix>3d</fix>
</trkpt>
<trkpt lat="-27.2632204" lon="151.3180137">
  <ele>543.39</ele>
  <time>2026-09-01T20:00:41Z</time>
  <course>165.67</course>
  <speed>4.08</speed>
  <fix>3d</fix>
</trkpt>
<trkpt lat="-27.2632304" lon="151.3180146">
  <ele>544.13</ele>
  <time>2026-09-01T20:00:41Z</time>
  <course>78.56</course>
  <speed>3.2238641410580566</speed>
  <fix>3d</fix>
</trkpt>
<trkpt lat="-27.2632204" lon="151.3180137">
  <ele>543.39</ele>
  <time>2026-09-01T20:00:41Z</time>
  <course>165.67</course>
  <speed>4.08</speed>
  <fix>3d</fix>
</trkpt>
<trkpt lat="-27.2632331" lon="151.3180138">
  <ele>544.37</ele>
  <time>2026-09-01T20:00:41Z</time>
  <course>76.05</course>
  <speed>2.9577863344061885</speed>
  <fix>3d</fix>
</trkpt>
<trkpt lat="-27.2632271" lon="151.3180147">
  <ele>543.87</ele>
  <time>2026-09-01T20:00:41Z</time>
  <course>180.6</course>
  <speed>3.48</speed>
  <fix>3d</fix>
</trkpt>
<trkpt lat="-27.2632355" lon="151.3180128">
  <ele>544.62</ele>
  <time>2026-09-01T20:00:41Z</time>
  <course>73.61</course>
  <speed>2.671516423307182</speed>
  <fix>3d</fix>
</trkpt>
<trkpt lat="-27.2632271" lon="151.3180147">
  <ele>543.87</ele>
  <time>2026-09-01T20:00:41Z</time>
  <course>180.6</course>
  <speed>3.48</speed>
  <fix>3d</fix>
</trkpt>
<trkpt lat="-27.2632375" lon="151.3180117">
  <ele>544.86</ele>
  <time>2026-09-01T20:00:41Z</time>
  <course>71.22</course>
  <speed>2.3991039994131143</speed>
  <fix>3d</fix>
</trkpt>
<trkpt lat="-27.2632328" lon="151.3180137">
  <ele>544.36</ele>
  <time>2026-09-01T20:00:41Z</time>
  <course>196.15</course>
  <speed>2.94</speed>
  <fix>3d</fix>
</trkpt>
<trkpt lat="-27.2632391" lon="151.3180103">
  <ele>545.1</ele>
  <time>2026-09-01T20:00:41Z</time>
  <course>68.93</course>
  <speed>2.163931607052312</speed>
  <fix>3d</fix>
</trkpt>
<trkpt lat="-27.2632328" lon="151.3180137">
  <ele>544.36</ele>
  <time>2026-09-01T20:00:41Z</time>
  <course>196.15</course>
  <speed>2.94</speed>
  <fix>3d</fix>
</trkpt>
<trkpt lat="-27.2632402" lon="151.3180085">
  <ele>545.34</ele>
  <time>2026-09-01T20:00:41Z</time>
  <course>66.87</course>
  <speed>2.032953516438583</speed>
  <fix>3d</fix>
</trkpt>
<trkpt lat="-27.2632372" lon="151.3180115">
  <ele>544.85</ele>
  <time>2026-09-01T20:00:41Z</time>
  <course>213.73</course>
  <speed>2.39</speed>
  <fix>3d</fix>
</trkpt>
<trkpt lat="-27.2632408" lon="151.3180066">
  <ele>545.58</ele>
  <time>2026-09-01T20:00:41Z</time>
  <course>65.15</course>
  <speed>2.032732151563506</speed>
  <fix>3d</fix>
</trkpt>
<trkpt lat="-27.2632372" lon="151.3180115">
  <ele>544.85</ele>
  <time>2026-09-01T20:00:41Z</time>
  <course>213.73</course>
  <speed>2.39</speed>
  <fix>3d</fix>
</trkpt>
<trkpt lat="-27.263241" lon="151.3180046">
  <ele>545.83</ele>
  <time>2026-09-01T20:00:41Z</time>
  <course>63.89</course>
  <speed>2.1727862297059968</speed>
  <fix>3d</fix>
</trkpt>
<trkpt lat="-27.2632399" lon="151.3180085">
  <ele>545.33</ele>
  <time>2026-09-01T20:00:41Z</time>
  <course>240.36</course>
  <speed>2.03</speed>
  <fix>3d</fix>
</trkpt>
<trkpt lat="-27.2632407" lon="151.3180023">
  <ele>546.07</ele>
  <time>2026-09-01T20:00:41Z</time>
  <course>61.9</course>
  <speed>2.288776965979866</speed>
  <fix>3d</fix>
</trkpt>
<trkpt lat="-27.2632399" lon="151.3180085">
  <ele>545.33</ele>
  <time>2026-09-01T20:00:41Z</time>
  <course>240.36</course>
  <speed>2.03</speed>
  <fix>3d</fix>
</trkpt>
<trkpt lat="-27.2632402" lon="151.3180001">
  <ele>546.32</ele>
  <time>2026-09-01T20:00:41Z</time>
  <course>56.32</course>
  <speed>2.343266950221421</speed>
  <fix>3d</fix>
</trkpt>
<trkpt lat="-27.2632407" lon="151.3180045">
  <ele>545.82</ele>
  <time>2026-09-01T20:00:41Z</time>
  <course>269.9</course>
  <speed>2.11</speed>
  <fix>3d</fix>
</trkpt>
<trkpt lat="-27.2632393" lon="151.3179978">
  <ele>546.58</ele>
  <time>2026-09-01T20:00:41Z</time>
  <course>49.25</course>
  <speed>2.4287033577610915</speed>
  <fix>3d</fix>
</trkpt>
<trkpt lat="-27.2632407" lon="151.3180045">
  <ele>545.82</ele>
  <time>2026-09-01T20:00:41Z</time>
  <course>269.9</course>
  <speed>2.11</speed>
  <fix>3d</fix>
</trkpt>
<trkpt lat="-27.2632384" lon="151.3179956">
  <ele>546.83</ele>
  <time>2026-09-01T20:00:41Z</time>
  <course>42.57</course>
  <speed>2.5747427055921532</speed>
  <fix>3d</fix>
</trkpt>
<trkpt lat="-27.26324" lon="151.3180001">
  <ele>546.31</ele>
  <time>2026-09-01T20:00:41Z</time>
  <course>288.83</course>
  <speed>2.34</speed>
  <fix>3d</fix>
</trkpt>
<trkpt lat="-27.263237" lon="151.3179934">
  <ele>547.08</ele>
  <time>2026-09-01T20:00:41Z</time>
  <course>37.16</course>
  <speed>2.7566102372297756</speed>
  <fix>3d</fix>
</trkpt>
<trkpt lat="-27.26324" lon="151.3180001">
  <ele>546.31</ele>
  <time>2026-09-01T20:00:41Z</time>
  <course>288.83</course>
  <speed>2.34</speed>
  <fix>3d</fix>
</trkpt>
<trkpt lat="-27.2632353" lon="151.3179912">
  <ele>547.32</ele>
  <time>2026-09-01T20:00:41Z</time>
  <course>33.0</course>
  <speed>2.9646753616542907</speed>
  <fix>3d</fix>
</trkpt>
<trkpt lat="-27.2632382" lon="151.3179956">
  <ele>546.82</ele>
  <time>2026-09-01T20:00:41Z</time>
  <course>302.07</course>
  <speed>2.58</speed>
  <fix>3d</fix>
</trkpt>
<trkpt lat="-27.2632333" lon="151.3179889">
  <ele>547.57</ele>
  <time>2026-09-01T20:00:41Z</time>
  <course>29.81</course>
  <speed>3.1625464423467364</speed>
  <fix>3d</fix>
</trkpt>
<trkpt lat="-27.2632382" lon="151.3179956">
  <ele>546.82</ele>
  <time>2026-09-01T20:00:41Z</time>
  <course>302.07</course>
  <speed>2.58</speed>
  <fix>3d</fix>
</trkpt>
<trkpt lat="-27.2632311" lon="151.3179869">
  <ele>547.82</ele>
  <time>2026-09-01T20:00:41Z</time>
  <course>27.31</course>
  <speed>3.337933492447086</speed>
  <fix>3d</fix>
</trkpt>
<trkpt lat="-27.2632351" lon="151.3179913">
  <ele>547.31</ele>
  <time>2026-09-01T20:00:41Z</time>
  <course>312.66</course>
  <speed>2.95</speed>
  <fix>3d</fix>
</trkpt>
<trkpt lat="-27.2632287" lon="151.3179846">
  <ele>548.07</ele>
  <time>2026-09-01T20:00:41Z</time>
  <course>25.33</course>
  <speed>3.5</speed>
  <fix>3d</fix>
</trkpt>
<trkpt lat="-27.2632351" lon="151.3179913">
  <ele>547.31</ele>
  <time>2026-09-01T20:00:41Z</time>
  <course>312.66</course>
  <speed>2.95</speed>
  <fix>3d</fix>
</trkpt>
<trkpt lat="-27.2632261" lon="151.3179826">
  <ele>548.32</ele>
  <time>2026-09-01T20:00:41Z</time>
  <course>23.73</course>
  <speed>3.6335244598048324</speed>
  <fix>3d</fix>
</trkpt>
<trkpt lat="-27.2632311" lon="151.3179869">
  <ele>547.81</ele>
  <time>2026-09-01T20:00:41Z</time>
  <course>320.1</course>
  <speed>3.32</speed>
  <fix>3d</fix>
</trkpt>
<trkpt lat="-27.2632233" lon="151.3179806">
  <ele>548.58</ele>
  <time>2026-09-01T20:00:41Z</time>
  <course>22.43</course>
  <speed>3.7450901190759085</speed>
  <fix>3d</fix>
</trkpt>
<trkpt lat="-27.2632311" lon="151.3179869">
  <ele>547.81</ele>
  <time>2026-09-01T20:00:41Z</time>
  <course>320.1</course>
  <speed>3.32</speed>
  <fix>3d</fix>
</trkpt>
<trkpt lat="-27.2632204" lon="151.3179784">
  <ele>548.84</ele>
  <time>2026-09-01T20:00:41Z</time>
  <course>21.39</course>
  <speed>3.8467778724537762</speed>
  <fix>3d</fix>
</trkpt>
<trkpt lat="-27.2632261" lon="151.3179827">
  <ele>548.31</ele>
  <time>2026-09-01T20:00:41Z</time>
  <course>325.39</course>
  <speed>3.62</speed>
  <fix>3d</fix>
</trkpt>
<trkpt lat="-27.2632174" lon="151.3179765">
  <ele>549.1</ele>
  <time>2026-09-01T20:00:41Z</time>
  <course>20.57</course>
  <speed>3.922091278897012</speed>
  <fix>3d</fix>
</trkpt>
<trkpt lat="-27.2632261" lon="151.3179827">
  <ele>548.31</ele>
  <time>2026-09-01T20:00:41Z</time>
  <course>325.39</course>
  <speed>3.62</speed>
  <fix>3d</fix>
</trkpt>
<trkpt lat="-27.2632143" lon="151.3179745">
  <ele>549.36</ele>
  <time>2026-09-01T20:00:41Z</time>
  <course>19.91</course>
  <speed>3.9953097501945956</speed>
  <fix>3d</fix>
</trkpt>
<trkpt lat="-27.2632204" lon="151.3179786">
  <ele>548.83</ele>
  <time>2026-09-01T20:00:41Z</time>
  <course>329.11</course>
  <speed>3.83</speed>
  <fix>3d</fix>
</trkpt>
<trkpt lat="-27.2632111" lon="151.3179726">
  <ele>549.62</ele>
  <time>2026-09-01T20:00:41Z</time>
  <course>19.41</course>
  <speed>4.056710490039929</speed>
  <fix>3d</fix>
</trkpt>
<trkpt lat="-27.2632204" lon="151.3179786">
  <ele>548.83</ele>
  <time>2026-09-01T20:00:41Z</time>
  <course>329.11</course>
  <speed>3.83</speed>
  <fix>3d</fix>
</trkpt>
<trkpt lat="-27.2632078" lon="151.3179709">
  <ele>549.88</ele>
  <time>2026-09-01T20:00:41Z</time>
  <course>19.03</course>
  <speed>4.096596148023381</speed>
  <fix>3d</fix>
</trkpt>
<trkpt lat="-27.2632143" lon="151.3179746">
  <ele>549.35</ele>
  <time>2026-09-01T20:00:41Z</time>
  <course>331.53</course>
  <speed>3.99</speed>
  <fix>3d</fix>
</trkpt>
<trkpt lat="-27.2632045" lon="151.317969">
  <ele>550.15</ele>
  <time>2026-09-01T20:00:41Z</time>
  <course>18.75</course>
  <speed>4.12778390907276</speed>
  <fix>3d</fix>
</trkpt>
<trkpt lat="-27.2632143" lon="151.3179746">
  <ele>549.35</ele>
  <time>2026-09-01T20:00:41Z</time>
  <course>331.53</course>
  <speed>3.99</speed>
  <fix>3d</fix>
</trkpt>
<trkpt lat="-27.2632012" lon="151.3179671">
  <ele>550.41</ele>
  <time>2026-09-01T20:00:41Z</time>
  <course>18.56</course>
  <speed>4.15014457579492</speed>
  <fix>3d</fix>
</trkpt>
<trkpt lat="-27.2632079" lon="151.3179709">
  <ele>549.87</ele>
  <time>2026-09-01T20:00:41Z</time>
  <course>332.87</course>
  <speed>4.09</speed>
  <fix>3d</fix>
</trkpt>
<trkpt lat="-27.2631978" lon="151.3179652">
  <ele>550.66</ele>
  <time>2026-09-01T20:00:41Z</time>
  <course>18.44</course>
  <speed>4.163568181259915</speed>
  <fix>3d</fix>
</trkpt>
<trkpt lat="-27.2632079" lon="151.3179709">
  <ele>549.87</ele>
  <time>2026-09-01T20:00:41Z</time>
  <course>332.87</course>
  <speed>4.09</speed>
  <fix>3d</fix>
</trkpt>
<trkpt lat="-27.2631945" lon="151.3179633">
  <ele>550.91</ele>
  <time>2026-09-01T20:00:41Z</time>
  <course>18.38</course>
  <speed>4.159146547069483</speed>
  <fix>3d</fix>
</trkpt>
<trkpt lat="-27.2632012" lon="151.3179671">
  <ele>550.4</ele>
  <time>2026-09-01T20:00:41Z</time>
  <course>333.31</course>
  <speed>4.15</speed>
  <fix>3d</fix>
</trkpt>
<trkpt lat="-27.2631912" lon="151.3179614">
  <ele>551.18</ele>
  <time>2026-09-01T20:00:41Z</time>
  <course>18.38</course>
  <speed>4.141545605205863</speed>
  <fix>3d</fix>
</trkpt>
<trkpt lat="-27.2632012" lon="151.3179671">
  <ele>550.4</ele>
  <time>2026-09-01T20:00:41Z</time>
  <course>333.31</course>
  <speed>4.15</speed>
  <fix>3d</fix>
</trkpt>
<trkpt lat="-27.2631879" lon="151.3179595">
  <ele>551.43</ele>
  <time>2026-09-01T20:00:41Z</time>
  <course>18.43</course>
  <speed>4.115337167231866</speed>
  <fix>3d</fix>
</trkpt>
<trkpt lat="-27.2631945" lon="151.3179634">
  <ele>550.91</ele>
  <time>2026-09-01T20:00:41Z</time>
  <course>333.04</course>
  <speed>4.15</speed>
  <fix>3d</fix>
</trkpt>
<trkpt lat="-27.2631846" lon="151.3179575">
  <ele>551.68</ele>
  <time>2026-09-01T20:00:41Z</time>
  <course>18.52</course>
  <speed>4.071854614300467</speed>
  <fix>3d</fix>
</trkpt>
<trkpt lat="-27.2631945" lon="151.3179634">
  <ele>550.91</ele>
  <time>2026-09-01T20:00:41Z</time>
  <course>333.04</course>
  <speed>4.15</speed>
  <fix>3d</fix>
</trkpt>
<trkpt lat="-27.2631813" lon="151.3179554">
  <ele>551.94</ele>
  <time>2026-09-01T20:00:41Z</time>
  <course>18.66</course>
  <speed>4.011433658930432</speed>
  <fix>3d</fix>
</trkpt>
<trkpt lat="-27.2631879" lon="151.3179595">
  <ele>551.42</ele>
  <time>2026-09-01T20:00:41Z</time>
  <course>332.15</course>
  <speed>4.11</speed>
  <fix>3d</fix>
</trkpt>
<trkpt lat="-27.2631782" lon="151.3179534">
  <ele>552.19</ele>
  <time>2026-09-01T20:00:41Z</time>
  <course>18.85</course>
  <speed>3.934513947109605</speed>
  <fix>3d</fix>
</trkpt>
<trkpt lat="-27.2631879" lon="151.3179595">
  <ele>551.42</ele>
  <time>2026-09-01T20:00:41Z</time>
  <course>332.15</course>
  <speed>4.11</speed>
  <fix>3d</fix>
</trkpt>
<trkpt lat="-27.2631752" lon="151.3179515">
  <ele>552.44</ele>
  <time>2026-09-01T20:00:41Z</time>
  <course>19.07</course>
  <speed>3.8587562763149474</speed>
  <fix>3d</fix>
</trkpt>
<trkpt lat="-27.2631815" lon="151.3179556">
  <ele>551.93</ele>
  <time>2026-09-01T20:00:41Z</time>
  <course>330.7</course>
  <speed>4.01</speed>
  <fix>3d</fix>
</trkpt>
<trkpt lat="-27.2631723" lon="151.3179494">
  <ele>552.69</ele>
  <time>2026-09-01T20:00:41Z</time>
  <course>19.35</course>
  <speed>3.7588961145527815</speed>
  <fix>3d</fix>
</trkpt>
<trkpt lat="-27.2631815" lon="151.3179556">
  <ele>551.93</ele>
  <time>2026-09-01T20:00:41Z</time>
  <course>330.7</course>
  <speed>4.01</speed>
  <fix>3d</fix>
</trkpt>
<trkpt lat="-27.2631695" lon="151.3179473">
  <ele>552.94</ele>
  <time>2026-09-01T20:00:41Z</time>
  <course>19.67</course>
  <speed>3.6554753452868476</speed>
  <fix>3d</fix>
</trkpt>
<trkpt lat="-27.2631754" lon="151.3179515">
  <ele>552.43</ele>
  <time>2026-09-01T20:00:41Z</time>
  <course>328.72</course>
  <speed>3.86</speed>
  <fix>3d</fix>
</trkpt>
<trkpt lat="-27.2631669" lon="151.3179453">
  <ele>553.19</ele>
  <time>2026-09-01T20:00:41Z</time>
  <course>20.04</course>
  <speed>3.543247098354841</speed>
  <fix>3d</fix>
</trkpt>
<trkpt lat="-27.2631754" lon="151.3179515">
  <ele>552.43</ele>
  <time>2026-09-01T20:00:41Z</time>
  <course>328.72</course>
  <speed>3.86</speed>
  <fix>3d</fix>
</trkpt>
<trkpt lat="-27.2631644" lon="151.3179433">
  <ele>553.43</ele>
  <time>2026-09-01T20:00:41Z</time>
  <course>20.45</course>
  <speed>3.414000585823031</speed>
  <fix>3d</fix>
</trkpt>
<trkpt lat="-27.2631697" lon="151.3179475">
  <ele>552.92</ele>
  <time>2026-09-01T20:00:41Z</time>
  <course>326.21</course>
  <speed>3.66</speed>
  <fix>3d</fix>
</trkpt>
<trkpt lat="-27.263162" lon="151.3179412">
  <ele>553.68</ele>
  <time>2026-09-01T20:00:41Z</time>
  <course>20.92</course>
  <speed>3.2796493715029964</speed>
  <fix>3d</fix>
</trkpt>
<trkpt lat="-27.2631697" lon="151.3179475">
  <ele>552.92</ele>
  <time>2026-09-01T20:00:41Z</time>
  <course>326.21</course>
  <speed>3.66</speed>
  <fix>3d</fix>
</trkpt>
<trkpt lat="-27.2631598" lon="151.3179391">
  <ele>553.91</ele>
  <time>2026-09-01T20:00:41Z</time>
  <course>21.43</course>
  <speed>3.134645115479582</speed>
  <fix>3d</fix>
</trkpt>
<trkpt lat="-27.2631645" lon="151.3179433">
  <ele>553.42</ele>
  <time>2026-09-01T20:00:41Z</time>
  <course>323.11</course>
  <speed>3.41</speed>
  <fix>3d</fix>
</trkpt>
<trkpt lat="-27.2631577" lon="151.3179371">
  <ele>554.16</ele>
  <time>2026-09-01T20:00:41Z</time>
  <course>22.01</course>
  <speed>2.9861346252304166</speed>
  <fix>3d</fix>
</trkpt>
<trkpt lat="-27.2631645" lon="151.3179433">
  <ele>553.42</ele>
  <time>2026-09-01T20:00:41Z</time>
  <course>323.11</course>
  <speed>3.41</speed>
  <fix>3d</fix>
</trkpt>
<trkpt lat="-27.2631559" lon="151.317935">
  <ele>554.41</ele>
  <time>2026-09-01T20:00:41Z</time>
  <course>22.63</course>
  <speed>2.8284624798642812</speed>
  <fix>3d</fix>
</trkpt>
<trkpt lat="-27.2631599" lon="151.3179392">
  <ele>553.91</ele>
  <time>2026-09-01T20:00:41Z</time>
  <course>319.37</course>
  <speed>3.14</speed>
  <fix>3d</fix>
</trkpt>
<trkpt lat="-27.2631542" lon="151.3179329">
  <ele>554.66</ele>
  <time>2026-09-01T20:00:41Z</time>
  <course>23.31</course>
  <speed>2.669175902783479</speed>
  <fix>3d</fix>
</trkpt>
<trkpt lat="-27.2631599" lon="151.3179392">
  <ele>553.91</ele>
  <time>2026-09-01T20:00:41Z</time>
  <course>319.37</course>
  <speed>3.14</speed>
  <fix>3d</fix>
</trkpt>
<trkpt lat="-27.2631526" lon="151.3179309">
  <ele>554.91</ele>
  <time>2026-09-01T20:00:41Z</time>
  <course>24.04</course>
  <speed>2.5083261350948765</speed>
  <fix>3d</fix>
</trkpt>
<trkpt lat="-27.263156" lon="151.3179351">
  <ele>554.41</ele>
  <time>2026-09-01T20:00:41Z</time>
  <course>314.9</course>
  <speed>2.83</speed>
  <fix>3d</fix>
</trkpt>
<trkpt lat="-27.2631513" lon="151.317929">
  <ele>555.16</ele>
  <time>2026-09-01T20:00:41Z</time>
  <course>24.82</course>
  <speed>2.3461031520374376</speed>
  <fix>3d</fix>
</trkpt>
<trkpt lat="-27.263156" lon="151.3179351">
  <ele>554.41</ele>
  <time>2026-09-01T20:00:41Z</time>
  <course>314.9</course>
  <speed>2.83</speed>
  <fix>3d</fix>
</trkpt>
<trkpt lat="-27.2631501" lon="151.3179271">
  <ele>555.4</ele>
  <time>2026-09-01T20:00:41Z</time>
  <course>25.65</course>
  <speed>2.18</speed>
  <fix>3d</fix>
</trkpt>
<trkpt lat="-27.2631527" lon="151.3179311">
  <ele>554.9</ele>
  <time>2026-09-01T20:00:41Z</time>
  <course>309.64</course>
  <speed>2.51</speed>
  <fix>3d</fix>
</trkpt>
<trkpt lat="-27.2631491" lon="151.3179254">
  <ele>555.65</ele>
  <time>2026-09-01T20:00:41Z</time>
  <course>26.52</course>
  <speed>2.0205444810743463</speed>
  <fix>3d</fix>
</trkpt>
<trkpt lat="-27.2631527" lon="151.3179311">
  <ele>554.9</ele>
  <time>2026-09-01T20:00:41Z</time>
  <course>309.64</course>
  <speed>2.51</speed>
  <fix>3d</fix>
</trkpt>
<trkpt lat="-27.2631483" lon="151.3179237">
  <ele>555.89</ele>
  <time>2026-09-01T20:00:41Z</time>
  <course>27.44</course>
  <speed>1.8559364213248255</speed>
  <fix>3d</fix>
</trkpt>
<trkpt lat="-27.2631502" lon="151.3179273">
  <ele>555.39</ele>
  <time>2026-09-01T20:00:41Z</time>
  <course>303.59</course>
  <speed>2.19</speed>
  <fix>3d</fix>
</trkpt>
<trkpt lat="-27.2631476" lon="151.3179219">
  <ele>556.13</ele>
  <time>2026-09-01T20:00:41Z</time>
  <course>28.39</course>
  <speed>1.7030854353202602</speed>
  <fix>3d</fix>
</trkpt>
<trkpt lat="-27.2631502" lon="151.3179273">
  <ele>555.39</ele>
  <time>2026-09-01T20:00:41Z</time>
  <course>303.59</course>
  <speed>2.19</speed>
  <fix>3d</fix>
</trkpt>
<trkpt lat="-27.263147" lon="151.3179204">
  <ele>556.33</ele>
  <time>2026-09-01T20:00:41Z</time>
  <course>28.98</course>
  <speed>1.6469365500832143</speed>
  <fix>3d</fix>
</trkpt>
<trkpt lat="-27.2631484" lon="151.3179238">
  <ele>555.88</ele>
  <time>2026-09-01T20:00:41Z</time>
  <course>296.82</course>
  <speed>1.86</speed>
  <fix>3d</fix>
</trkpt>
<trkpt lat="-27.2631464" lon="151.317919">
  <ele>556.41</ele>
  <time>2026-09-01T20:00:41Z</time>
  <course>28.96</course>
  <speed>1.6234839081432253</speed>
  <fix>3d</fix>
</trkpt>
<trkpt lat="-27.2631484" lon="151.3179238">
  <ele>555.88</ele>
  <time>2026-09-01T20:00:41Z</time>
  <course>296.82</course>
  <speed>1.86</speed>
  <fix>3d</fix>
</trkpt>
<trkpt lat="-27.2631457" lon="151.3179175">
  <ele>556.4</ele>
  <time>2026-09-01T20:00:41Z</time>
  <course>28.54</course>
  <speed>1.587765725792064</speed>
  <fix>3d</fix>
</trkpt>
<trkpt lat="-27.263147" lon="151.3179205">
  <ele>556.27</ele>
  <time>2026-09-01T20:00:41Z</time>
  <course>294.43</course>
  <speed>1.66</speed>
  <fix>3d</fix>
</trkpt>
<trkpt lat="-27.2631451" lon="151.3179161">
  <ele>556.3</ele>
  <time>2026-09-01T20:00:41Z</time>
  <course>27.66</course>
  <speed>1.534177303964571</speed>
  <fix>3d</fix>
</trkpt>
<trkpt lat="-27.263147" lon="151.3179205">
  <ele>556.27</ele>
  <time>2026-09-01T20:00:41Z</time>
  <course>294.43</course>
  <speed>1.66</speed>
  <fix>3d</fix>
</trkpt>
<trkpt lat="-27.2631444" lon="151.3179147">
  <ele>556.12</ele>
  <time>2026-09-01T20:00:41Z</time>
  <course>26.05</course>
  <speed>1.4405901568454507</speed>
  <fix>3d</fix>
</trkpt>
<trkpt lat="-27.2631457" lon="151.3179175">
  <ele>556.36</ele>
  <time>2026-09-01T20:00:41Z</time>
  <course>296.8</course>
  <speed>1.58</speed>
  <fix>3d</fix>
</trkpt>
<trkpt lat="-27.2631438" lon="151.3179135">
  <ele>555.86</ele>
  <time>2026-09-01T20:00:41Z</time>
  <course>23.31</course>
  <speed>1.3073637596323373</speed>
  <fix>3d</fix>
</trkpt>
<trkpt lat="-27.2631457" lon="151.3179175">
  <ele>556.36</ele>
  <time>2026-09-01T20:00:41Z</time>
  <course>296.8</course>
  <speed>1.58</speed>
  <fix>3d</fix>
</trkpt>
<trkpt lat="-27.2631433" lon="151.3179125">
  <ele>555.54</ele>
  <time>2026-09-01T20:00:41Z</time>
  <course>19.05</course>
  <speed>1.1216059914247962</speed>
  <fix>3d</fix>
</trkpt>
<trkpt lat="-27.2631445" lon="151.3179149">
  <ele>556.09</ele>
  <time>2026-09-01T20:00:41Z</time>
  <course>298.29</course>
  <speed>1.43</speed>
  <fix>3d</fix>
</trkpt>
<trkpt lat="-27.2631428" lon="151.3179116">
  <ele>555.16</ele>
  <time>2026-09-01T20:00:41Z</time>
  <course>13.55</course>
  <speed>0.979081201943945</speed>
  <fix>3d</fix>
</trkpt>
<trkpt lat="-27.2631445" lon="151.3179149">
  <ele>556.09</ele>
  <time>2026-09-01T20:00:41Z</time>
  <course>298.29</course>
  <speed>1.43</speed>
  <fix>3d</fix>
</trkpt>
<trkpt lat="-27.2631423" lon="151.3179108">
  <ele>554.74</ele>
  <time>2026-09-01T20:00:41Z</time>
  <course>8.18</course>
  <speed>0.8920201791439475</speed>
  <fix>3d</fix>
</trkpt>
<trkpt lat="-27.2631433" lon="151.3179126">
  <ele>555.53</ele>
  <time>2026-09-01T20:00:41Z</time>
  <course>301.13</course>
  <speed>1.15</speed>
  <fix>3d</fix>
</trkpt>
<trkpt lat="-27.2631418" lon="151.3179101">
  <ele>554.26</ele>
  <time>2026-09-01T20:00:41Z</time>
  <course>3.32</course>
  <speed>0.8213403679352428</speed>
  <fix>3d</fix>
</trkpt>
<trkpt lat="-27.2631433" lon="151.3179126">
  <ele>555.53</ele>
  <time>2026-09-01T20:00:41Z</time>
  <course>301.13</course>
  <speed>1.15</speed>
  <fix>3d</fix>
</trkpt>
<trkpt lat="-27.2631413" lon="151.3179094">
  <ele>553.74</ele>
  <time>2026-09-01T20:00:41Z</time>
  <course>358.86</course>
  <speed>0.7874642849044012</speed>
  <fix>3d</fix>
</trkpt>
<trkpt lat="-27.2631423" lon="151.3179109">
  <ele>554.74</ele>
  <time>2026-09-01T20:00:41Z</time>
  <course>307.46</course>
  <speed>0.91</speed>
  <fix>3d</fix>
</trkpt>
<trkpt lat="-27.2631407" lon="151.317909">
  <ele>553.16</ele>
  <time>2026-09-01T20:00:41Z</time>
  <course>354.65</course>
  <speed>0.8130190649671138</speed>
  <fix>3d</fix>
</trkpt>
<trkpt lat="-27.2631423" lon="151.3179109">
  <ele>554.74</ele>
  <time>2026-09-01T20:00:41Z</time>
  <course>307.46</course>
  <speed>0.91</speed>
  <fix>3d</fix>
</trkpt>
<trkpt lat="-27.26314" lon="151.3179087">
  <ele>552.53</ele>
  <time>2026-09-01T20:00:41Z</time>
  <course>350.58</course>
  <speed>0.8856635930193812</speed>
  <fix>3d</fix>
</trkpt>
<trkpt lat="-27.2631412" lon="151.3179096">
  <ele>553.74</ele>
  <time>2026-09-01T20:00:41Z</time>
  <course>319.55</course>
  <speed>0.81</speed>
  <fix>3d</fix>
</trkpt>
<trkpt lat="-27.2631393" lon="151.3179083">
  <ele>551.83</ele>
  <time>2026-09-01T20:00:41Z</time>
  <course>346.56</course>
  <speed>1.0406248123122954</speed>
  <fix>3d</fix>
</trkpt>
<trkpt lat="-27.2631412" lon="151.3179096">
  <ele>553.74</ele>
  <time>2026-09-01T20:00:41Z</time>
  <course>319.55</course>
  <speed>0.81</speed>
  <fix>3d</fix>
</trkpt>
<trkpt lat="-27.263138" lon="151.3179079">
  <ele>551.06</ele>
  <time>2026-09-01T20:00:41Z</time>
  <course>341.49</course>
  <speed>1.8768324379123458</speed>
  <fix>3d</fix>
</trkpt>
<trkpt lat="-27.26314" lon="151.3179086">
  <ele>552.53</ele>
  <time>2026-09-01T20:00:41Z</time>
  <course>334.08</course>
  <speed>0.91</speed>
  <fix>3d</fix>
</trkpt>
<trkpt lat="-27.2631361" lon="151.3179075">
  <ele>550.24</ele>
  <time>2026-09-01T20:00:41Z</time>
  <course>333.64</course>
  <speed>2.3281967270830015</speed>
  <fix>3d</fix>
</trkpt>
<trkpt lat="-27.26314" lon="151.3179086">
  <ele>552.53</ele>
  <time>2026-09-01T20:00:41Z</time>
  <course>334.08</course>
  <speed>0.91</speed>
  <fix>3d</fix>
</trkpt>
<trkpt lat="-27.263134" lon="151.317907">
  <ele>549.32</ele>
  <time>2026-09-01T20:00:41Z</time>
  <course>320.16</course>
  <speed>2.381008189822118</speed>
  <fix>3d</fix>
</trkpt>
<trkpt lat="-27.2631377" lon="151.3179079">
  <ele>551.07</ele>
  <time>2026-09-01T20:00:41Z</time>
  <course>346.45</course>
  <speed>1.66</speed>
  <fix>3d</fix>
</trkpt>
<trkpt lat="-27.263132" lon="151.3179066">
  <ele>548.3</ele>
  <time>2026-09-01T20:00:41Z</time>
  <course>306.24</course>
  <speed>2.2163934668736056</speed>
  <fix>3d</fix>
</trkpt>
<trkpt lat="-27.2631377" lon="151.3179079">
  <ele>551.07</ele>
  <time>2026-09-01T20:00:41Z</time>
  <course>346.45</course>
  <speed>1.66</speed>
  <fix>3d</fix>
</trkpt>
<trkpt lat="-27.2631301" lon="151.3179063">
  <ele>547.19</ele>
  <time>2026-09-01T20:00:41Z</time>
  <course>308.18</course>
  <speed>2.145739965606271</speed>
  <fix>3d</fix>
</trkpt>
<trkpt lat="-27.2631341" lon="151.317907">
  <ele>549.3</ele>
  <time>2026-09-01T20:00:41Z</time>
  <course>349.51</course>
  <speed>2.27</speed>
  <fix>3d</fix>
</trkpt>
<trkpt lat="-27.2631281" lon="151.3179058">
  <ele>545.99</ele>
  <time>2026-09-01T20:00:41Z</time>
  <course>312.56</course>
  <speed>2.4447699278255204</speed>
  <fix>3d</fix>
</trkpt>
<trkpt lat="-27.2631341" lon="151.317907">
  <ele>549.3</ele>
  <time>2026-09-01T20:00:41Z</time>
  <course>349.51</course>
  <speed>2.27</speed>
  <fix>3d</fix>
</trkpt>
<trkpt lat="-27.2631257" lon="151.3179049">
  <ele>544.72</ele>
  <time>2026-09-01T20:00:41Z</time>
  <course>312.49</course>
  <speed>3.2000156249618534</speed>
  <fix>3d</fix>
</trkpt>
<trkpt lat="-27.26313" lon="151.3179062">
  <ele>547.18</ele>
  <time>2026-09-01T20:00:41Z</time>
  <course>347.57</course>
  <speed>2.33</speed>
  <fix>3d</fix>
</trkpt>
<trkpt lat="-27.2631227" lon="151.3179031">
  <ele>543.39</ele>
  <time>2026-09-01T20:00:41Z</time>
  <course>311.54</course>
  <speed>4.275067250933019</speed>
  <fix>3d</fix>
</trkpt>
<trkpt lat="-27.26313" lon="151.3179062">
  <ele>547.18</ele>
  <time>2026-09-01T20:00:41Z</time>
  <course>347.57</course>
  <speed>2.33</speed>
  <fix>3d</fix>
</trkpt>
<trkpt lat="-27.2631192" lon="151.3179002">
  <ele>542.01</ele>
  <time>2026-09-01T20:00:41Z</time>
  <course>311.6</course>
  <speed>5.471133337801227</speed>
  <fix>3d</fix>
</trkpt>
<trkpt lat="-27.2631254" lon="151.3179045">
  <ele>544.72</ele>
  <time>2026-09-01T20:00:41Z</time>
  <course>334.37</course>
  <speed>3.3</speed>
  <fix>3d</fix>
</trkpt>
<trkpt lat="-27.2631151" lon="151.3178958">
  <ele>540.57</ele>
  <time>2026-09-01T20:00:41Z</time>
  <course>312.63</course>
  <speed>6.710894128206762</speed>
  <fix>3d</fix>
</trkpt>
<trkpt lat="-27.2631254" lon="151.3179045">
  <ele>544.72</ele>
  <time>2026-09-01T20:00:41Z</time>
  <course>334.37</course>
  <speed>3.3</speed>
  <fix>3d</fix>
</trkpt>
<trkpt lat="-27.2631107" lon="151.3178903">
  <ele>539.15</ele>
  <time>2026-09-01T20:00:41Z</time>
  <course>313.78</course>
  <speed>7.9077177491359665</speed>
  <fix>3d</fix>
</trkpt>
<trkpt lat="-27.2631191" lon="151.3178996">
  <ele>542.03</ele>
  <time>2026-09-01T20:00:41Z</time>
  <course>319.75</course>
  <speed>5.41</speed>
  <fix>3d</fix>
</trkpt>
<trkpt lat="-27.2631056" lon="151.3178838">
  <ele>537.72</ele>
  <time>2026-09-01T20:00:41Z</time>
  <course>314.61</course>
  <speed>9.155992573173046</speed>
  <fix>3d</fix>
</trkpt>
<trkpt lat="-27.2631191" lon="151.3178996">
  <ele>542.03</ele>
  <time>2026-09-01T20:00:41Z</time>
  <course>319.75</course>
  <speed>5.41</speed>
  <fix>3d</fix>
</trkpt>
<trkpt lat="-27.2631" lon="151.3178762">
  <ele>536.31</ele>
  <time>2026-09-01T20:00:41Z</time>
  <course>315.06</course>
  <speed>10.480119274130425</speed>
  <fix>3d</fix>
</trkpt>
<trkpt lat="-27.2631107" lon="151.3178901">
  <ele>539.22</ele>
  <time>2026-09-01T20:00:41Z</time>
  <course>311.98</course>
  <speed>7.86</speed>
  <fix>3d</fix>
</trkpt>
<trkpt lat="-27.2630935" lon="151.3178677">
  <ele>534.94</ele>
  <time>2026-09-01T20:00:41Z</time>
  <course>315.16</course>
  <speed>11.78921541070482</speed>
  <fix>3d</fix>
</trkpt>
<trkpt lat="-27.2631107" lon="151.3178901">
  <ele>539.22</ele>
  <time>2026-09-01T20:00:41Z</time>
  <course>311.98</course>
  <speed>7.86</speed>
  <fix>3d</fix>
</trkpt>
<trkpt lat="-27.2630859" lon="151.3178584">
  <ele>533.61</ele>
  <time>2026-09-01T20:00:41Z</time>
  <course>315.0</course>
  <speed>13.046900014946079</speed>
  <fix>3d</fix>
</trkpt>
<trkpt lat="-27.2630999" lon="151.3178762">
  <ele>536.41</ele>
  <time>2026-09-01T20:00:41Z</time>
  <course>310.79</course>
  <speed>10.4</speed>
  <fix>3d</fix>
</trkpt>
<trkpt lat="-27.2630775" lon="151.3178484">
  <ele>532.36</ele>
  <time>2026-09-01T20:00:41Z</time>
  <course>314.72</course>
  <speed>14.227557766531822</speed>
  <fix>3d</fix>
</trkpt>
<trkpt lat="-27.2630999" lon="151.3178762">
  <ele>536.41</ele>
  <time>2026-09-01T20:00:41Z</time>
  <course>310.79</course>
  <speed>10.4</speed>
  <fix>3d</fix>
</trkpt>
<trkpt lat="-27.2630681" lon="151.3178379">
  <ele>531.18</ele>
  <time>2026-09-01T20:00:41Z</time>
  <course>314.4</course>
  <speed>15.33773451328455</speed>
  <fix>3d</fix>
</trkpt>
<trkpt lat="-27.2630859" lon="151.3178586">
  <ele>533.72</ele>
  <time>2026-09-01T20:00:41Z</time>
  <course>313.02</course>
  <speed>12.94</speed>
  <fix>3d</fix>
</trkpt>
<trkpt lat="-27.2630579" lon="151.3178266">
  <ele>530.1</ele>
  <time>2026-09-01T20:00:41Z</time>
  <course>314.07</course>
  <speed>16.34311169881672</speed>
  <fix>3d</fix>
</trkpt>
<trkpt lat="-27.2630859" lon="151.3178586">
  <ele>533.72</ele>
  <time>2026-09-01T20:00:41Z</time>
  <course>313.02</course>
  <speed>12.94</speed>
  <fix>3d</fix>
</trkpt>
<trkpt lat="-27.263047" lon="151.3178147">
  <ele>529.14</ele>
  <time>2026-09-01T20:00:41Z</time>
  <course>313.72</course>
  <speed>17.2189575758813</speed>
  <fix>3d</fix>
</trkpt>
<trkpt lat="-27.2630682" lon="151.3178381">
  <ele>531.29</ele>
  <time>2026-09-01T20:00:41Z</time>
  <course>315.18</course>
  <speed>15.23</speed>
  <fix>3d</fix>
</trkpt>
<trkpt lat="-27.2630358" lon="151.3178022">
  <ele>528.29</ele>
  <time>2026-09-01T20:00:41Z</time>
  <course>313.34</course>
  <speed>17.932317195499305</speed>
  <fix>3d</fix>
</trkpt>
<trkpt lat="-27.2630682" lon="151.3178381">
  <ele>531.29</ele>
  <time>2026-09-01T20:00:41Z</time>
  <course>315.18</course>
  <speed>15.23</speed>
  <fix>3d</fix>
</trkpt>
<trkpt lat="-27.2630244" lon="151.3177891">
  <ele>527.6</ele>
  <time>2026-09-01T20:00:41Z</time>
  <course>312.92</course>
  <speed>18.473873443325306</speed>
  <fix>3d</fix>
</trkpt>
<trkpt lat="-27.2630475" lon="151.3178152">
  <ele>529.25</ele>
  <time>2026-09-01T20:00:41Z</time>
  <course>315.34</course>
  <speed>17.1</speed>
  <fix>3d</fix>
</trkpt>
<trkpt lat="-27.2630129" lon="151.3177753">
  <ele>527.03</ele>
  <time>2026-09-01T20:00:41Z</time>
  <course>312.49</course>
  <speed>18.83866768112862</speed>
  <fix>3d</fix>
</trkpt>
<trkpt lat="-27.2630475" lon="151.3178152">
  <ele>529.25</ele>
  <time>2026-09-01T20:00:41Z</time>
  <course>315.34</course>
  <speed>17.1</speed>
  <fix>3d</fix>
</trkpt>
<trkpt lat="-27.2630015" lon="151.3177612">
  <ele>526.58</ele>
  <time>2026-09-01T20:00:41Z</time>
  <course>312.19</course>
  <speed>19.030735666284684</speed>
  <fix>3d</fix>
</trkpt>
<trkpt lat="-27.263025" lon="151.3177896">
  <ele>527.7</ele>
  <time>2026-09-01T20:00:41Z</time>
  <course>313.78</course>
  <speed>18.36</speed>
  <fix>3d</fix>
</trkpt>
<trkpt lat="-27.2629901" lon="151.3177466">
  <ele>526.25</ele>
  <time>2026-09-01T20:00:41Z</time>
  <course>312.03</course>
  <speed>19.0797274613659</speed>
  <fix>3d</fix>
</trkpt>
<trkpt lat="-27.263025" lon="151.3177896">
  <ele>527.7</ele>
  <time>2026-09-01T20:00:41Z</time>
  <course>313.78</course>
  <speed>18.36</speed>
  <fix>3d</fix>
</trkpt>
<trkpt lat="-27.2629789" lon="151.3177322">
  <ele>525.99</ele>
  <time>2026-09-01T20:00:41Z</time>
  <course>311.89</course>
  <speed>19.030317916419577</speed>
  <fix>3d</fix>
</trkpt>
<trkpt lat="-27.2630021" lon="151.3177619">
  <ele>526.66</ele>
  <time>2026-09-01T20:00:41Z</time>
  <course>311.92</course>
  <speed>18.95</speed>
  <fix>3d</fix>
</trkpt>
<trkpt lat="-27.2629678" lon="151.3177175">
  <ele>525.78</ele>
  <time>2026-09-01T20:00:41Z</time>
  <course>311.67</course>
  <speed>18.93370539540531</speed>
  <fix>3d</fix>
</trkpt>
<trkpt lat="-27.2630021" lon="151.3177619">
  <ele>526.66</ele>
  <time>2026-09-01T20:00:41Z</time>
  <course>311.92</course>
  <speed>18.95</speed>
  <fix>3d</fix>
</trkpt>
<trkpt lat="-27.2629568" lon="151.3177031">
  <ele>525.6</ele>
  <time>2026-09-01T20:00:41Z</time>
  <course>311.36</course>
  <speed>18.81982465380589</speed>
  <fix>3d</fix>
</trkpt>
<trkpt lat="-27.2629796" lon="151.317733">
  <ele>526.03</ele>
  <time>2026-09-01T20:00:41Z</time>
  <course>310.9</course>
  <speed>19.01</speed>
  <fix>3d</fix>
</trkpt>
<trkpt lat="-27.2629458" lon="151.3176887">
  <ele>525.41</ele>
  <time>2026-09-01T20:00:41Z</time>
  <course>311.03</course>
  <speed>18.697317989487157</speed>
  <fix>3d</fix>
</trkpt>
<trkpt lat="-27.2629796" lon="151.317733">
  <ele>526.03</ele>
  <time>2026-09-01T20:00:41Z</time>
  <course>310.9</course>
  <speed>19.01</speed>
  <fix>3d</fix>
</trkpt>
<trkpt lat="-27.2629348" lon="151.3176746">
  <ele>525.25</ele>
  <time>2026-09-01T20:00:41Z</time>
  <course>310.73</course>
  <speed>18.568309023710263</speed>
  <fix>3d</fix>
</trkpt>
<trkpt lat="-27.2629574" lon="151.317704">
  <ele>525.61</ele>
  <time>2026-09-01T20:00:41Z</time>
  <course>310.71</course>
  <speed>18.82</speed>
  <fix>3d</fix>
</trkpt>
<trkpt lat="-27.2629242" lon="151.3176608">
  <ele>525.09</ele>
  <time>2026-09-01T20:00:41Z</time>
  <course>310.51</course>
  <speed>18.45444390925936</speed>
  <fix>3d</fix>
</trkpt>
<trkpt lat="-27.2629574" lon="151.317704">
  <ele>525.61</ele>
  <time>2026-09-01T20:00:41Z</time>
  <course>310.71</course>
  <speed>18.82</speed>
  <fix>3d</fix>
</trkpt>
<trkpt lat="-27.2629131" lon="151.3176461">
  <ele>524.91</ele>
  <time>2026-09-01T20:00:41Z</time>
  <course>310.37</course>
  <speed>18.32750119356155</speed>
  <fix>3d</fix>
</trkpt>
<trkpt lat="-27.2629354" lon="151.3176753">
  <ele>525.26</ele>
  <time>2026-09-01T20:00:41Z</time>
  <course>310.79</course>
  <speed>18.58</speed>
  <fix>3d</fix>
</trkpt>
<trkpt lat="-27.2629024" lon="151.3176322">
  <ele>524.75</ele>
  <time>2026-09-01T20:00:41Z</time>
  <course>310.33</course>
  <speed>18.202661893250667</speed>
  <fix>3d</fix>
</trkpt>
<trkpt lat="-27.2629354" lon="151.3176753">
  <ele>525.26</ele>
  <time>2026-09-01T20:00:41Z</time>
  <course>310.79</course>
  <speed>18.58</speed>
  <fix>3d</fix>
</trkpt>
<trkpt lat="-27.2628917" lon="151.3176183">
  <ele>524.59</ele>
  <time>2026-09-01T20:00:41Z</time>
  <course>310.36</course>
  <speed>18.07790087371872</speed>
  <fix>3d</fix>
</trkpt>
<trkpt lat="-27.2629137" lon="151.317647">
  <ele>524.92</ele>
  <time>2026-09-01T20:00:41Z</time>
  <course>310.78</course>
  <speed>18.33</speed>
  <fix>3d</fix>
</trkpt>
<trkpt lat="-27.2628812" lon="151.3176044">
  <ele>524.41</ele>
  <time>2026-09-01T20:00:41Z</time>
  <course>310.42</course>
  <speed>17.96844177996523</speed>
  <fix>3d</fix>
</trkpt>
<trkpt lat="-27.2629137" lon="151.317647">
  <ele>524.92</ele>
  <time>2026-09-01T20:00:41Z</time>
  <course>310.78</course>
  <speed>18.33</speed>
  <fix>3d</fix>
</trkpt>
<trkpt lat="-27.2611112" lon="151.3216689">
  <ele>540.08</ele>
  <time>2026-09-01T20:00:41Z</time>
  <course>249.79</course>
  <speed>11.770853834790405</speed>
  <fix>3d</fix>
</trkpt>
<trkpt lat="-27.2628924" lon="151.3176192">
  <ele>524.59</ele>
  <time>2026-09-01T20:00:41Z</time>
  <course>310.58</course>
  <speed>18.09</speed>
  <fix>3d</fix>
</trkpt>
<trkpt lat="-27.2611138" lon="151.3216575">
  <ele>536.23</ele>
  <time>2026-09-01T20:00:41Z</time>
  <course>242.39</course>
  <speed>11.89161889735792</speed>
  <fix>3d</fix>
</trkpt>
<trkpt lat="-27.2628924" lon="151.3176192">
  <ele>524.59</ele>
  <time>2026-09-01T20:00:41Z</time>
  <course>310.58</course>
  <speed>18.09</speed>
  <fix>3d</fix>
</trkpt>
<trkpt lat="-27.2611181" lon="151.3216458">
  <ele>532.41</ele>
  <time>2026-09-01T20:00:41Z</time>
  <course>227.27</course>
  <speed>13.271661538782551</speed>
  <fix>3d</fix>
</trkpt>
<trkpt lat="-27.2619977" lon="151.3196317">
  <ele>530.44</ele>
  <time>2026-09-01T20:00:41Z</time>
  <course>288.56</course>
  <speed>13.22</speed>
  <fix>3d</fix>
</trkpt>
<trkpt lat="-27.2611259" lon="151.3216348">
  <ele>528.66</ele>
  <time>2026-09-01T20:00:41Z</time>
  <course>206.75</course>
  <speed>14.495740753752461</speed>
  <fix>3d</fix>
</trkpt>
<trkpt lat="-27.2619977" lon="151.3196317">
  <ele>530.44</ele>
  <time>2026-09-01T20:00:41Z</time>
  <course>288.56</course>
  <speed>13.22</speed>
  <fix>3d</fix>
</trkpt>
<trkpt lat="-27.261137" lon="151.3216267">
  <ele>524.98</ele>
  <time>2026-09-01T20:00:41Z</time>
  <course>188.94</course>
  <speed>14.91577688221435</speed>
  <fix>3d</fix>
</trkpt>
<trkpt lat="-27.2611194" lon="151.3216468">
  <ele>532.67</ele>
  <time>2026-09-01T20:00:41Z</time>
  <course>236.95</course>
  <speed>12.67</speed>
  <fix>3d</fix>
</trkpt>
<trkpt lat="-27.2611495" lon="151.3216215">
  <ele>521.29</ele>
  <time>2026-09-01T20:00:41Z</time>
  <course>182.82</course>
  <speed>14.865964482669801</speed>
  <fix>3d</fix>
</trkpt>
<trkpt lat="-27.2611194" lon="151.3216468">
  <ele>532.67</ele>
  <time>2026-09-01T20:00:41Z</time>
  <course>236.95</course>
  <speed>12.67</speed>
  <fix>3d</fix>
</trkpt>
<trkpt lat="-27.2611627" lon="151.3216144">
  <ele>517.71</ele>
  <time>2026-09-01T20:00:41Z</time>
  <course>204.18</course>
  <speed>18.97921494688334</speed>
  <fix>3d</fix>
</trkpt>
<trkpt lat="-27.261137" lon="151.3216286">
  <ele>525.2</ele>
  <time>2026-09-01T20:00:41Z</time>
  <course>210.34</course>
  <speed>14.29</speed>
  <fix>3d</fix>
</trkpt>
<trkpt lat="-27.2611783" lon="151.3215998">
  <ele>514.58</ele>
  <time>2026-09-01T20:00:41Z</time>
  <course>216.09</course>
  <speed>26.62843029545677</speed>
  <fix>3d</fix>
</trkpt>
<trkpt lat="-27.261137" lon="151.3216286">
  <ele>525.2</ele>
  <time>2026-09-01T20:00:41Z</time>
  <course>210.34</course>
  <speed>14.29</speed>
  <fix>3d</fix>
</trkpt>
<trkpt lat="-27.261197" lon="151.3215782">
  <ele>512.24</ele>
  <time>2026-09-01T20:00:41Z</time>
  <course>223.02</course>
  <speed>32.437504527938025</speed>
  <fix>3d</fix>
</trkpt>
<trkpt lat="-27.261163" lon="151.3216113">
  <ele>518.13</ele>
  <time>2026-09-01T20:00:41Z</time>
  <course>214.33</course>
  <speed>20.05</speed>
  <fix>3d</fix>
</trkpt>
<trkpt lat="-27.2612177" lon="151.3215528">
  <ele>510.84</ele>
  <time>2026-09-01T20:00:41Z</time>
  <course>226.63</course>
  <speed>35.23886632682726</speed>
  <fix>3d</fix>
</trkpt>
<trkpt lat="-27.261163" lon="151.3216113">
  <ele>518.13</ele>
  <time>2026-09-01T20:00:41Z</time>
  <course>214.33</course>
  <speed>20.05</speed>
  <fix>3d</fix>
</trkpt>
<trkpt lat="-27.2612389" lon="151.3215263">
  <ele>510.52</ele>
  <time>2026-09-01T20:00:41Z</time>
  <course>226.9</course>
  <speed>34.66837752188585</speed>
  <fix>3d</fix>
</trkpt>
<trkpt lat="-27.2611968" lon="151.3215776">
  <ele>512.81</ele>
  <time>2026-09-01T20:00:41Z</time>
  <course>226.01</course>
  <speed>30.66</speed>
  <fix>3d</fix>
</trkpt>
<trkpt lat="-27.2612593" lon="151.3215023">
  <ele>511.26</ele>
  <time>2026-09-01T20:00:41Z</time>
  <course>223.59</course>
  <speed>30.82337586962207</speed>
  <fix>3d</fix>
</trkpt>
<trkpt lat="-27.2611968" lon="151.3215776">
  <ele>512.81</ele>
  <time>2026-09-01T20:00:41Z</time>
  <course>226.01</course>
  <speed>30.66</speed>
  <fix>3d</fix>
</trkpt>
<trkpt lat="-27.2612782" lon="151.3214832">
  <ele>512.77</ele>
  <time>2026-09-01T20:00:41Z</time>
  <course>216.37</course>
  <speed>25.73431366871866</speed>
  <fix>3d</fix>
</trkpt>
<trkpt lat="-27.2612373" lon="151.321529">
  <ele>511.04</ele>
  <time>2026-09-01T20:00:41Z</time>
  <course>226.49</course>
  <speed>33.12</speed>
  <fix>3d</fix>
</trkpt>
<trkpt lat="-27.2612954" lon="151.3214698">
  <ele>514.73</ele>
  <time>2026-09-01T20:00:41Z</time>
  <course>206.28</course>
  <speed>20.92606508639405</speed>
  <fix>3d</fix>
</trkpt>
<trkpt lat="-27.2612373" lon="151.321529">
  <ele>511.04</ele>
  <time>2026-09-01T20:00:41Z</time>
  <course>226.49</course>
  <speed>33.12</speed>
  <fix>3d</fix>
</trkpt>
<trkpt lat="-27.2613109" lon="151.3214617">
  <ele>516.9</ele>
  <time>2026-09-01T20:00:41Z</time>
  <course>197.11</course>
  <speed>17.27889174686849</speed>
  <fix>3d</fix>
</trkpt>
<trkpt lat="-27.2612764" lon="151.321487">
  <ele>512.9</ele>
  <time>2026-09-01T20:00:41Z</time>
  <course>218.88</course>
  <speed>25.91</speed>
  <fix>3d</fix>
</trkpt>
<trkpt lat="-27.2613243" lon="151.3214576">
  <ele>519.16</ele>
  <time>2026-09-01T20:00:41Z</time>
  <course>184.65</course>
  <speed>13.814430860516838</speed>
  <fix>3d</fix>
</trkpt>
<trkpt lat="-27.2612764" lon="151.321487">
  <ele>512.9</ele>
  <time>2026-09-01T20:00:41Z</time>
  <course>218.88</course>
  <speed>25.91</speed>
  <fix>3d</fix>
</trkpt>
<trkpt lat="-27.2613351" lon="151.3214566">
  <ele>521.47</ele>
  <time>2026-09-01T20:00:41Z</time>
  <course>169.37</course>
  <speed>10.374936144381804</speed>
  <fix>3d</fix>
</trkpt>
<trkpt lat="-27.2613091" lon="151.3214641">
  <ele>516.83</ele>
  <time>2026-09-01T20:00:41Z</time>
  <course>202.42</course>
  <speed>17.33</speed>
  <fix>3d</fix>
</trkpt>
<trkpt lat="-27.2613429" lon="151.3214578">
  <ele>523.75</ele>
  <time>2026-09-01T20:00:41Z</time>
  <course>152.56</course>
  <speed>7.368561596404009</speed>
  <fix>3d</fix>
</trkpt>
<trkpt lat="-27.2613091" lon="151.3214641">
  <ele>516.83</ele>
  <time>2026-09-01T20:00:41Z</time>
  <course>202.42</course>
  <speed>17.33</speed>
  <fix>3d</fix>
</trkpt>
<trkpt lat="-27.2613479" lon="151.3214604">
  <ele>525.98</ele>
  <time>2026-09-01T20:00:41Z</time>
  <course>138.56</course>
  <speed>5.133751065254334</speed>
  <fix>3d</fix>
</trkpt>
<trkpt lat="-27.2613331" lon="151.3214577">
  <ele>521.34</ele>
  <time>2026-09-01T20:00:41Z</time>
  <course>181.64</course>
  <speed>10.48</speed>
  <fix>3d</fix>
</trkpt>
<trkpt lat="-27.2613508" lon="151.3214634">
  <ele>528.12</ele>
  <time>2026-09-01T20:00:41Z</time>
  <course>135.17</course>
  <speed>3.8288379438153295</speed>
  <fix>3d</fix>
</trkpt>
<trkpt lat="-27.2613331" lon="151.3214577">
  <ele>521.34</ele>
  <time>2026-09-01T20:00:41Z</time>
  <course>181.64</course>
  <speed>10.48</speed>
  <fix>3d</fix>
</trkpt>
<trkpt lat="-27.2613527" lon="151.3214662">
  <ele>530.15</ele>
  <time>2026-09-01T20:00:41Z</time>
  <course>140.2</course>
  <speed>3.2893768406797057</speed>
  <fix>3d</fix>
</trkpt>
<trkpt lat="-27.2613465" lon="151.3214604">
  <ele>525.82</ele>
  <time>2026-09-01T20:00:41Z</time>
  <course>153.13</course>
  <speed>5.48</speed>
  <fix>3d</fix>
</trkpt>
<trkpt lat="-27.2613544" lon="151.3214689">
  <ele>532.06</ele>
  <time>2026-09-01T20:00:41Z</time>
  <course>144.32</course>
  <speed>3.360729087564185</speed>
  <fix>3d</fix>
</trkpt>
<trkpt lat="-27.2613465" lon="151.3214604">
  <ele>525.82</ele>
  <time>2026-09-01T20:00:41Z</time>
  <course>153.13</course>
  <speed>5.48</speed>
  <fix>3d</fix>
</trkpt>
<trkpt lat="-27.2613564" lon="151.3214717">
  <ele>533.84</ele>
  <time>2026-09-01T20:00:41Z</time>
  <course>145.48</course>
  <speed>3.9040107581818986</speed>
  <fix>3d</fix>
</trkpt>
<trkpt lat="-27.2613525" lon="151.3214659">
  <ele>529.98</ele>
  <time>2026-09-01T20:00:41Z</time>
  <course>128.66</course>
  <speed>3.6</speed>
  <fix>3d</fix>
</trkpt>
<trkpt lat="-27.2613591" lon="151.321475">
  <ele>535.51</ele>
  <time>2026-09-01T20:00:41Z</time>
  <course>145.17</course>
  <speed>4.731183784212996</speed>
  <fix>3d</fix>
</trkpt>
<trkpt lat="-27.2613525" lon="151.3214659">
  <ele>529.98</ele>
  <time>2026-09-01T20:00:41Z</time>
  <course>128.66</course>
  <speed>3.6</speed>
  <fix>3d</fix>
</trkpt>
<trkpt lat="-27.2613625" lon="151.3214784">
  <ele>537.02</ele>
  <time>2026-09-01T20:00:41Z</time>
  <course>144.45</course>
  <speed>5.618051263561058</speed>
  <fix>3d</fix>
</trkpt>
<trkpt lat="-27.2613566" lon="151.3214717">
  <ele>533.69</ele>
  <time>2026-09-01T20:00:41Z</time>
  <course>131.46</course>
  <speed>4.0</speed>
  <fix>3d</fix>
</trkpt>
<trkpt lat="-27.2613666" lon="151.3214825">
  <ele>538.37</ele>
  <time>2026-09-01T20:00:41Z</time>
  <course>143.7</course>
  <speed>6.431314018145903</speed>
  <fix>3d</fix>
</trkpt>
<trkpt lat="-27.2613566" lon="151.3214717">
  <ele>533.69</ele>
  <time>2026-09-01T20:00:41Z</time>
  <course>131.46</course>
  <speed>4.0</speed>
  <fix>3d</fix>
</trkpt>
<trkpt lat="-27.2613713" lon="151.3214869">
  <ele>539.58</ele>
  <time>2026-09-01T20:00:41Z</time>
  <course>143.04</course>
  <speed>7.106335201775948</speed>
  <fix>3d</fix>
</trkpt>
<trkpt lat="-27.2613626" lon="151.3214785">
  <ele>536.86</ele>
  <time>2026-09-01T20:00:41Z</time>
  <course>138.15</course>
  <speed>5.53</speed>
  <fix>3d</fix>
</trkpt>
<trkpt lat="-27.2613765" lon="151.3214916">
  <ele>540.64</ele>
  <time>2026-09-01T20:00:41Z</time>
  <course>142.49</course>
  <speed>7.622925947429898</speed>
  <fix>3d</fix>
</trkpt>
<trkpt lat="-27.2613626" lon="151.3214785">
  <ele>536.86</ele>
  <time>2026-09-01T20:00:41Z</time>
  <course>138.15</course>
  <speed>5.53</speed>
  <fix>3d</fix>
</trkpt>
<trkpt lat="-27.261382" lon="151.3214965">
  <ele>541.54</ele>
  <time>2026-09-01T20:00:41Z</time>
  <course>142.02</course>
  <speed>7.988297690997752</speed>
  <fix>3d</fix>
</trkpt>
<trkpt lat="-27.2613713" lon="151.3214867">
  <ele>539.44</ele>
  <time>2026-09-01T20:00:41Z</time>
  <course>140.55</course>
  <speed>7.0</speed>
  <fix>3d</fix>
</trkpt>
<trkpt lat="-27.2613877" lon="151.3215017">
  <ele>542.32</ele>
  <time>2026-09-01T20:00:41Z</time>
  <course>141.65</course>
  <speed>8.202249691395648</speed>
  <fix>3d</fix>
</trkpt>
<trkpt lat="-27.2613713" lon="151.3214867">
  <ele>539.44</ele>
  <time>2026-09-01T20:00:41Z</time>
  <course>140.55</course>
  <speed>7.0</speed>
  <fix>3d</fix>
</trkpt>
<trkpt lat="-27.2613935" lon="151.3215069">
  <ele>542.97</ele>
  <time>2026-09-01T20:00:41Z</time>
  <course>141.34</course>
  <speed>8.31625516684042</speed>
  <fix>3d</fix>
</trkpt>
<trkpt lat="-27.2613817" lon="151.3214962">
  <ele>541.43</ele>
  <time>2026-09-01T20:00:41Z</time>
  <course>141.17</course>
  <speed>7.9</speed>
  <fix>3d</fix>
</trkpt>
<trkpt lat="-27.2613993" lon="151.3215122">
  <ele>543.5</ele>
  <time>2026-09-01T20:00:41Z</time>
  <course>140.9</course>
  <speed>8.372484696910469</speed>
  <fix>3d</fix>
</trkpt>
<trkpt lat="-27.2613817" lon="151.3214962">
  <ele>541.43</ele>
  <time>2026-09-01T20:00:41Z</time>
  <course>141.17</course>
  <speed>7.9</speed>
  <fix>3d</fix>
</trkpt>
<trkpt lat="-27.2614052" lon="151.3215175">
  <ele>543.91</ele>
  <time>2026-09-01T20:00:41Z</time>
  <course>140.21</course>
  <speed>8.406866241352956</speed>
  <fix>3d</fix>
</trkpt>
<trkpt lat="-27.2613931" lon="151.3215066">
  <ele>542.87</ele>
  <time>2026-09-01T20:00:41Z</time>
  <course>141.26</course>
  <speed>8.29</speed>
  <fix>3d</fix>
</trkpt>
<trkpt lat="-27.2614111" lon="151.3215228">
  <ele>544.22</ele>
  <time>2026-09-01T20:00:41Z</time>
  <course>139.56</course>
  <speed>8.378746923018978</speed>
  <fix>3d</fix>
</trkpt>
<trkpt lat="-27.2613931" lon="151.3215066">
  <ele>542.87</ele>
  <time>2026-09-01T20:00:41Z</time>
  <course>141.26</course>
  <speed>8.29</speed>
  <fix>3d</fix>
</trkpt>
<trkpt lat="-27.2614169" lon="151.3215281">
  <ele>544.45</ele>
  <time>2026-09-01T20:00:41Z</time>
  <course>138.96</course>
  <speed>8.28033815734599</speed>
  <fix>3d</fix>
</trkpt>
<trkpt lat="-27.2614048" lon="151.3215172">
  <ele>543.83</ele>
  <time>2026-09-01T20:00:41Z</time>
  <course>141.21</course>
  <speed>8.38</speed>
  <fix>3d</fix>
</trkpt>
<trkpt lat="-27.2614226" lon="151.3215333">
  <ele>544.66</ele>
  <time>2026-09-01T20:00:41Z</time>
  <course>137.92</course>
  <speed>8.064862057096823</speed>
  <fix>3d</fix>
</trkpt>
<trkpt lat="-27.2614048" lon="151.3215172">
  <ele>543.83</ele>
  <time>2026-09-01T20:00:41Z</time>
  <course>141.21</course>
  <speed>8.38</speed>
  <fix>3d</fix>
</trkpt>
<trkpt lat="-27.2614282" lon="151.3215382">
  <ele>544.86</ele>
  <time>2026-09-01T20:00:41Z</time>
  <course>136.36</course>
  <speed>7.695251782755389</speed>
  <fix>3d</fix>
</trkpt>
<trkpt lat="-27.2614165" lon="151.3215277">
  <ele>544.42</ele>
  <time>2026-09-01T20:00:41Z</time>
  <course>141.16</course>
  <speed>8.23</speed>
  <fix>3d</fix>
</trkpt>
<trkpt lat="-27.2614333" lon="151.321543">
  <ele>545.09</ele>
  <time>2026-09-01T20:00:41Z</time>
  <course>134.72</course>
  <speed>7.175270029761946</speed>
  <fix>3d</fix>
</trkpt>
<trkpt lat="-27.2614165" lon="151.3215277">
  <ele>544.42</ele>
  <time>2026-09-01T20:00:41Z</time>
  <course>141.16</course>
  <speed>8.23</speed>
  <fix>3d</fix>
</trkpt>
<trkpt lat="-27.261438" lon="151.3215476">
  <ele>545.35</ele>
  <time>2026-09-01T20:00:41Z</time>
  <course>133.33</course>
  <speed>6.57954405715168</speed>
  <fix>3d</fix>
</trkpt>
<trkpt lat="-27.2614277" lon="151.3215379">
  <ele>544.86</ele>
  <time>2026-09-01T20:00:41Z</time>
  <course>140.59</course>
  <speed>7.64</speed>
  <fix>3d</fix>
</trkpt>
<trkpt lat="-27.2614422" lon="151.3215517">
  <ele>545.63</ele>
  <time>2026-09-01T20:00:41Z</time>
  <course>132.21</course>
  <speed>5.9360929911853635</speed>
  <fix>3d</fix>
</trkpt>
<trkpt lat="-27.2614277" lon="151.3215379">
  <ele>544.86</ele>
  <time>2026-09-01T20:00:41Z</time>
  <course>140.59</course>
  <speed>7.64</speed>
  <fix>3d</fix>
</trkpt>
<trkpt lat="-27.261446" lon="151.3215555">
  <ele>545.93</ele>
  <time>2026-09-01T20:00:41Z</time>
  <course>131.28</course>
  <speed>5.294619910815129</speed>
  <fix>3d</fix>
</trkpt>
<trkpt lat="-27.2614375" lon="151.3215472">
  <ele>545.35</ele>
  <time>2026-09-01T20:00:41Z</time>
  <course>139.27</course>
  <speed>6.59</speed>
  <fix>3d</fix>
</trkpt>
<trkpt lat="-27.2614493" lon="151.3215589">
  <ele>546.25</ele>
  <time>2026-09-01T20:00:41Z</time>
  <course>130.47</course>
  <speed>4.648064113155067</speed>
  <fix>3d</fix>
</trkpt>
<trkpt lat="-27.2614375" lon="151.3215472">
  <ele>545.35</ele>
  <time>2026-09-01T20:00:41Z</time>
  <course>139.27</course>
  <speed>6.59</speed>
  <fix>3d</fix>
</trkpt>
<trkpt lat="-27.2614521" lon="151.321562">
  <ele>546.57</ele>
  <time>2026-09-01T20:00:41Z</time>
  <course>129.74</course>
  <speed>4.024189359361709</speed>
  <fix>3d</fix>
</trkpt>
<trkpt lat="-27.2614455" lon="151.3215551">
  <ele>545.92</ele>
  <time>2026-09-01T20:00:41Z</time>
  <course>137.75</course>
  <speed>5.33</speed>
  <fix>3d</fix>
</trkpt>
<trkpt lat="-27.2614545" lon="151.3215645">
  <ele>546.9</ele>
  <time>2026-09-01T20:00:41Z</time>
  <course>129.1</course>
  <speed>3.4365680554879168</speed>
  <fix>3d</fix>
</trkpt>
<trkpt lat="-27.2614455" lon="151.3215551">
  <ele>545.92</ele>
  <time>2026-09-01T20:00:41Z</time>
  <course>137.75</course>
  <speed>5.33</speed>
  <fix>3d</fix>
</trkpt>
<trkpt lat="-27.2614565" lon="151.3215669">
  <ele>547.23</ele>
  <time>2026-09-01T20:00:41Z</time>
  <course>128.54</course>
  <speed>2.871167010119753</speed>
  <fix>3d</fix>
</trkpt>
<trkpt lat="-27.2614517" lon="151.3215616">
  <ele>546.55</ele>
  <time>2026-09-01T20:00:41Z</time>
  <course>136.18</course>
  <speed>4.07</speed>
  <fix>3d</fix>
</trkpt>
<trkpt lat="-27.2614581" lon="151.3215688">
  <ele>547.57</ele>
  <time>2026-09-01T20:00:41Z</time>
  <course>128.08</course>
  <speed>2.3214219780126144</speed>
  <fix>3d</fix>
</trkpt>
<trkpt lat="-27.2614517" lon="151.3215616">
  <ele>546.55</ele>
  <time>2026-09-01T20:00:41Z</time>
  <course>136.18</course>
  <speed>4.07</speed>
  <fix>3d</fix>
</trkpt>
<trkpt lat="-27.2614593" lon="151.3215703">
  <ele>547.91</ele>
  <time>2026-09-01T20:00:41Z</time>
  <course>127.71</course>
  <speed>1.7593180496999397</speed>
  <fix>3d</fix>
</trkpt>
<trkpt lat="-27.2614562" lon="151.3215665">
  <ele>547.21</ele>
  <time>2026-09-01T20:00:41Z</time>
  <course>134.19</course>
  <speed>2.9</speed>
  <fix>3d</fix>
</trkpt>
<trkpt lat="-27.2614601" lon="151.3215715">
  <ele>548.25</ele>
  <time>2026-09-01T20:00:41Z</time>
  <course>127.42</course>
  <speed>1.216059209084821</speed>
  <fix>3d</fix>
</trkpt>
<trkpt lat="-27.2614562" lon="151.3215665">
  <ele>547.21</ele>
  <time>2026-09-01T20:00:41Z</time>
  <course>134.19</course>
  <speed>2.9</speed>
  <fix>3d</fix>
</trkpt>
<trkpt lat="-27.2614608" lon="151.3215725">
  <ele>548.55</ele>
  <time>2026-09-01T20:00:41Z</time>
  <course>127.19</course>
  <speed>1.2461942063739504</speed>
  <fix>3d</fix>
</trkpt>
<trkpt lat="-27.261459" lon="151.3215701">
  <ele>547.89</ele>
  <time>2026-09-01T20:00:41Z</time>
  <course>130.48</course>
  <speed>1.79</speed>
  <fix>3d</fix>
</trkpt>
<trkpt lat="-27.2614614" lon="151.3215736">
  <ele>548.74</ele>
  <time>2026-09-01T20:00:41Z</time>
  <course>126.99</course>
  <speed>1.2800390619039717</speed>
  <fix>3d</fix>
</trkpt>
<trkpt lat="-27.261459" lon="151.3215701">
  <ele>547.89</ele>
  <time>2026-09-01T20:00:41Z</time>
  <course>130.48</course>
  <speed>1.79</speed>
  <fix>3d</fix>
</trkpt>
<trkpt lat="-27.2614621" lon="151.3215746">
  <ele>548.83</ele>
  <time>2026-09-01T20:00:41Z</time>
  <course>126.79</course>
  <speed>1.2880993750483694</speed>
  <fix>3d</fix>
</trkpt>
<trkpt lat="-27.2614607" lon="151.3215725">
  <ele>548.48</ele>
  <time>2026-09-01T20:00:41Z</time>
  <course>126.29</course>
  <speed>1.26</speed>
  <fix>3d</fix>
</trkpt>
<trkpt lat="-27.2614628" lon="151.3215756">
  <ele>548.83</ele>
  <time>2026-09-01T20:00:41Z</time>
  <course>126.6</course>
  <speed>1.274127152210485</speed>
  <fix>3d</fix>
</trkpt>
<trkpt lat="-27.2614607" lon="151.3215725">
  <ele>548.48</ele>
  <time>2026-09-01T20:00:41Z</time>
  <course>126.29</course>
  <speed>1.26</speed>
  <fix>3d</fix>
</trkpt>
<trkpt lat="-27.2614635" lon="151.3215766">
  <ele>548.73</ele>
  <time>2026-09-01T20:00:41Z</time>
  <course>126.4</course>
  <speed>1.2381033882515629</speed>
  <fix>3d</fix>
</trkpt>
<trkpt lat="-27.2614621" lon="151.3215745">
  <ele>548.78</ele>
  <time>2026-09-01T20:00:41Z</time>
  <course>126.2</course>
  <speed>1.28</speed>
  <fix>3d</fix>
</trkpt>
<trkpt lat="-27.2614641" lon="151.3215777">
  <ele>548.54</ele>
  <time>2026-09-01T20:00:41Z</time>
  <course>125.94</course>
  <speed>1.156027681329474</speed>
  <fix>3d</fix>
</trkpt>
<trkpt lat="-27.2614621" lon="151.3215745">
  <ele>548.78</ele>
  <time>2026-09-01T20:00:41Z</time>
  <course>126.2</course>
  <speed>1.28</speed>
  <fix>3d</fix>
</trkpt>
<trkpt lat="-27.2614648" lon="151.3215785">
  <ele>548.28</ele>
  <time>2026-09-01T20:00:41Z</time>
  <course>124.26</course>
  <speed>1.0547511554864493</speed>
  <fix>3d</fix>
</trkpt>
<trkpt lat="-27.2614634" lon="151.3215765">
  <ele>548.69</ele>
  <time>2026-09-01T20:00:41Z</time>
  <course>126.68</course>
  <speed>1.22</speed>
  <fix>3d</fix>
</trkpt>
<trkpt lat="-27.2614654" lon="151.3215793">
  <ele>547.95</ele>
  <time>2026-09-01T20:00:41Z</time>
  <course>120.62</course>
  <speed>0.9808159868191383</speed>
  <fix>3d</fix>
</trkpt>
<trkpt lat="-27.2614634" lon="151.3215765">
  <ele>548.69</ele>
  <time>2026-09-01T20:00:41Z</time>
  <course>126.68</course>
  <speed>1.22</speed>
  <fix>3d</fix>
</trkpt>
<trkpt lat="-27.2614661" lon="151.3215798">
  <ele>547.59</ele>
  <time>2026-09-01T20:00:41Z</time>
  <course>115.41</course>
  <speed>0.904433524367601</speed>
  <fix>3d</fix>
</trkpt>
<trkpt lat="-27.2614647" lon="151.3215784">
  <ele>548.26</ele>
  <time>2026-09-01T20:00:41Z</time>
  <course>133.14</course>
  <speed>1.06</speed>
  <fix>3d</fix>
</trkpt>
<trkpt lat="-27.2614667" lon="151.3215803">
  <ele>547.18</ele>
  <time>2026-09-01T20:00:41Z</time>
  <course>111.15</course>
  <speed>0.8323460818673926</speed>
  <fix>3d</fix>
</trkpt>
<trkpt lat="-27.2614647" lon="151.3215784">
  <ele>548.26</ele>
  <time>2026-09-01T20:00:41Z</time>
  <course>133.14</course>
  <speed>1.06</speed>
  <fix>3d</fix>
</trkpt>
<trkpt lat="-27.2614673" lon="151.3215808">
  <ele>546.74</ele>
  <time>2026-09-01T20:00:41Z</time>
  <course>108.0</course>
  <speed>0.7762087348130012</speed>
  <fix>3d</fix>
</trkpt>
<trkpt lat="-27.261466" lon="151.3215797">
  <ele>547.58</ele>
  <time>2026-09-01T20:00:41Z</time>
  <course>142.02</course>
  <speed>0.91</speed>
  <fix>3d</fix>
</trkpt>
<trkpt lat="-27.2614679" lon="151.3215813">
  <ele>546.25</ele>
  <time>2026-09-01T20:00:41Z</time>
  <course>105.73</course>
  <speed>0.7582216034906945</speed>
  <fix>3d</fix>
</trkpt>
<trkpt lat="-27.261466" lon="151.3215797">
  <ele>547.58</ele>
  <time>2026-09-01T20:00:41Z</time>
  <course>142.02</course>
  <speed>0.91</speed>
  <fix>3d</fix>
</trkpt>
<trkpt lat="-27.2614684" lon="151.3215818">
  <ele>545.72</ele>
  <time>2026-09-01T20:00:41Z</time>
  <course>104.08</course>
  <speed>0.7920858539325141</speed>
  <fix>3d</fix>
</trkpt>
<trkpt lat="-27.2614672" lon="151.3215808">
  <ele>546.74</ele>
  <time>2026-09-01T20:00:41Z</time>
  <course>141.67</course>
  <speed>0.8</speed>
  <fix>3d</fix>
</trkpt>
<trkpt lat="-27.2614688" lon="151.3215825">
  <ele>545.12</ele>
  <time>2026-09-01T20:00:41Z</time>
  <course>102.99</course>
  <speed>0.8668333173107734</speed>
  <fix>3d</fix>
</trkpt>
<trkpt lat="-27.2614672" lon="151.3215808">
  <ele>546.74</ele>
  <time>2026-09-01T20:00:41Z</time>
  <course>141.67</course>
  <speed>0.8</speed>
  <fix>3d</fix>
</trkpt>
<trkpt lat="-27.2614694" lon="151.3215832">
  <ele>544.46</ele>
  <time>2026-09-01T20:00:41Z</time>
  <course>102.81</course>
  <speed>1.2258874336577563</speed>
  <fix>3d</fix>
</trkpt>
<trkpt lat="-27.2614683" lon="151.3215819">
  <ele>545.71</ele>
  <time>2026-09-01T20:00:41Z</time>
  <course>133.99</course>
  <speed>0.81</speed>
  <fix>3d</fix>
</trkpt>
<trkpt lat="-27.2614699" lon="151.3215847">
  <ele>543.72</ele>
  <time>2026-09-01T20:00:41Z</time>
  <course>106.36</course>
  <speed>1.7181676286090366</speed>
  <fix>3d</fix>
</trkpt>
<trkpt lat="-27.2614683" lon="151.3215819">
  <ele>545.71</ele>
  <time>2026-09-01T20:00:41Z</time>
  <course>133.99</course>
  <speed>0.81</speed>
  <fix>3d</fix>
</trkpt>
<trkpt lat="-27.2614705" lon="151.3215864">
  <ele>542.89</ele>
  <time>2026-09-01T20:00:41Z</time>
  <course>143.3</course>
  <speed>1.7334935823359716</speed>
  <fix>3d</fix>
</trkpt>
<trkpt lat="-27.2614693" lon="151.3215835">
  <ele>544.45</ele>
  <time>2026-09-01T20:00:41Z</time>
  <course>117.24</course>
  <speed>1.27</speed>
  <fix>3d</fix>
</trkpt>
<trkpt lat="-27.261471" lon="151.3215879">
  <ele>541.97</ele>
  <time>2026-09-01T20:00:41Z</time>
  <course>242.69</course>
  <speed>1.3738267721950974</speed>
  <fix>3d</fix>
</trkpt>
<trkpt lat="-27.2614693" lon="151.3215835">
  <ele>544.45</ele>
  <time>2026-09-01T20:00:41Z</time>
  <course>117.24</course>
  <speed>1.27</speed>
  <fix>3d</fix>
</trkpt>
<trkpt lat="-27.2614715" lon="151.3215889">
  <ele>540.95</ele>
  <time>2026-09-01T20:00:41Z</time>
  <course>247.42</course>
  <speed>0.9021086409075129</speed>
  <fix>3d</fix>
</trkpt>
<trkpt lat="-27.2614704" lon="151.3215862">
  <ele>542.89</ele>
  <time>2026-09-01T20:00:41Z</time>
  <course>112.4</course>
  <speed>1.55</speed>
  <fix>3d</fix>
</trkpt>
<trkpt lat="-27.2614719" lon="151.3215894">
  <ele>539.83</ele>
  <time>2026-09-01T20:00:41Z</time>
  <course>241.17</course>
  <speed>0.552268050859363</speed>
  <fix>3d</fix>
</trkpt>
<trkpt lat="-27.2614704" lon="151.3215862">
  <ele>542.89</ele>
  <time>2026-09-01T20:00:41Z</time>
  <course>112.4</course>
  <speed>1.55</speed>
  <fix>3d</fix>
</trkpt>
<trkpt lat="-27.2614723" lon="151.3215894">
  <ele>538.63</ele>
  <time>2026-09-01T20:00:41Z</time>
  <course>235.94</course>
  <speed>0.41</speed>
  <fix>3d</fix>
</trkpt>
<trkpt lat="-27.2614714" lon="151.3215885">
  <ele>540.95</ele>
  <time>2026-09-01T20:00:41Z</time>
  <course>123.43</course>
  <speed>0.95</speed>
  <fix>3d</fix>
</trkpt>
<trkpt lat="-27.2614727" lon="151.3215894">
  <ele>537.33</ele>
  <time>2026-09-01T20:00:41Z</time>
  <course>239.22</course>
  <speed>0.41880783182743847</speed>
  <fix>3d</fix>
</trkpt>
<trkpt lat="-27.2614714" lon="151.3215885">
  <ele>540.95</ele>
  <time>2026-09-01T20:00:41Z</time>
  <course>123.43</course>
  <speed>0.95</speed>
  <fix>3d</fix>
</trkpt>
<trkpt lat="-27.261473" lon="151.321589">
  <ele>535.95</ele>
  <time>2026-09-01T20:00:41Z</time>
  <course>250.7</course>
  <speed>0.5635601121442149</speed>
  <fix>3d</fix>
</trkpt>
<trkpt lat="-27.2614723" lon="151.3215894">
  <ele>538.64</ele>
  <time>2026-09-01T20:00:41Z</time>
  <course>173.77</course>
  <speed>0.42</speed>
  <fix>3d</fix>
</trkpt>
<trkpt lat="-27.2614731" lon="151.3215884">
  <ele>534.49</ele>
  <time>2026-09-01T20:00:42Z</time>
  <course>266.64</course>
  <speed>0.8805112151472007</speed>
  <fix>3d</fix>
</trkpt>
<trkpt lat="-27.2614723" lon="151.3215894">
  <ele>538.64</ele>
  <time>2026-09-01T20:00:42Z</time>
  <course>173.77</course>
  <speed>0.42</speed>
  <fix>3d</fix>
</trkpt>
<trkpt lat="-27.261473" lon="151.3215873">
  <ele>532.95</ele>
  <time>2026-09-01T20:00:42Z</time>
  <course>284.15</course>
  <speed>1.3787675656179326</speed>
  <fix>3d</fix>
</trkpt>
<trkpt lat="-27.2614729" lon="151.3215889">
  <ele>535.98</ele>
  <time>2026-09-01T20:00:42Z</time>
  <course>249.5</course>
  <speed>0.58</speed>
  <fix>3d</fix>
</trkpt>
<trkpt lat="-27.2614723" lon="151.3215857">
  <ele>531.33</ele>
  <time>2026-09-01T20:00:42Z</time>
  <course>302.05</course>
  <speed>1.9866806487203723</speed>
  <fix>3d</fix>
</trkpt>
<trkpt lat="-27.2614729" lon="151.3215889">
  <ele>535.98</ele>
  <time>2026-09-01T20:00:42Z</time>
  <course>249.5</course>
  <speed>0.58</speed>
  <fix>3d</fix>
</trkpt>
<trkpt lat="-27.2614709" lon="151.3215841">
  <ele>529.65</ele>
  <time>2026-09-01T20:00:42Z</time>
  <course>320.15</course>
  <speed>2.6260616900598506</speed>
  <fix>3d</fix>
</trkpt>
<trkpt lat="-27.2614727" lon="151.3215872">
  <ele>532.98</ele>
  <time>2026-09-01T20:00:42Z</time>
  <course>293.15</course>
  <speed>1.35</speed>
  <fix>3d</fix>
</trkpt>
<trkpt lat="-27.2614687" lon="151.3215825">
  <ele>527.9</ele>
  <time>2026-09-01T20:00:42Z</time>
  <course>338.61</course>
  <speed>3.2513535642867266</speed>
  <fix>3d</fix>
</trkpt>
<trkpt lat="-27.2614727" lon="151.3215872">
  <ele>532.98</ele>
  <time>2026-09-01T20:00:42Z</time>
  <course>293.15</course>
  <speed>1.35</speed>
  <fix>3d</fix>
</trkpt>
<trkpt lat="-27.2614657" lon="151.3215813">
  <ele>526.1</ele>
  <time>2026-09-01T20:00:42Z</time>
  <course>357.57</course>
  <speed>3.7833979436480116</speed>
  <fix>3d</fix>
</trkpt>
<trkpt lat="-27.2614705" lon="151.3215842">
  <ele>529.69</ele>
  <time>2026-09-01T20:00:42Z</time>
  <course>322.48</course>
  <speed>2.51</speed>
  <fix>3d</fix>
</trkpt>
<trkpt lat="-27.2614621" lon="151.3215809">
  <ele>524.23</ele>
  <time>2026-09-01T20:00:42Z</time>
  <course>17.16</course>
  <speed>4.213846224057067</speed>
  <fix>3d</fix>
</trkpt>
<trkpt lat="-27.2614705" lon="151.3215842">
  <ele>529.69</ele>
  <time>2026-09-01T20:00:42Z</time>
  <course>322.48</course>
  <speed>2.51</speed>
  <fix>3d</fix>
</trkpt>
<trkpt lat="-27.2614582" lon="151.3215817">
  <ele>522.29</ele>
  <time>2026-09-01T20:00:42Z</time>
  <course>37.73</course>
  <speed>4.487460306231132</speed>
  <fix>3d</fix>
</trkpt>
<trkpt lat="-27.2614655" lon="151.3215818">
  <ele>526.14</ele>
  <time>2026-09-01T20:00:42Z</time>
  <course>349.51</course>
  <speed>3.6</speed>
  <fix>3d</fix>
</trkpt>
<trkpt lat="-27.2614546" lon="151.3215837">
  <ele>520.31</ele>
  <time>2026-09-01T20:00:42Z</time>
  <course>59.27</course>
  <speed>4.587472070759668</speed>
  <fix>3d</fix>
</trkpt>
<trkpt lat="-27.2614655" lon="151.3215818">
  <ele>526.14</ele>
  <time>2026-09-01T20:00:42Z</time>
  <course>349.51</course>
  <speed>3.6</speed>
  <fix>3d</fix>
</trkpt>
<trkpt lat="-27.2614516" lon="151.3215868">
  <ele>518.27</ele>
  <time>2026-09-01T20:00:42Z</time>
  <course>82.41</course>
  <speed>4.483770734549214</speed>
  <fix>3d</fix>
</trkpt>
<trkpt lat="-27.2614584" lon="151.3215823">
  <ele>522.36</ele>
  <time>2026-09-01T20:00:42Z</time>
  <course>18.31</course>
  <speed>4.23</speed>
  <fix>3d</fix>
</trkpt>
<trkpt lat="-27.2614497" lon="151.3215907">
  <ele>516.16</ele>
  <time>2026-09-01T20:00:42Z</time>
  <course>107.72</course>
  <speed>4.178001914791327</speed>
  <fix>3d</fix>
</trkpt>
<trkpt lat="-27.2614584" lon="151.3215823">
  <ele>522.36</ele>
  <time>2026-09-01T20:00:42Z</time>
  <course>18.31</course>
  <speed>4.23</speed>
  <fix>3d</fix>
</trkpt>
<trkpt lat="-27.2614491" lon="151.3215946">
  <ele>513.99</ele>
  <time>2026-09-01T20:00:42Z</time>
  <course>135.82</course>
  <speed>3.6726693289758607</speed>
  <fix>3d</fix>
</trkpt>
<trkpt lat="-27.2614522" lon="151.321587">
  <ele>518.33</ele>
  <time>2026-09-01T20:00:42Z</time>
  <course>50.57</course>
  <speed>4.18</speed>
  <fix>3d</fix>
</trkpt>
<trkpt lat="-27.2614499" lon="151.3215978">
  <ele>511.75</ele>
  <time>2026-09-01T20:00:42Z</time>
  <course>166.98</course>
  <speed>3.0343368303469545</speed>
  <fix>3d</fix>
</trkpt>
<trkpt lat="-27.2614522" lon="151.321587">
  <ele>518.33</ele>
  <time>2026-09-01T20:00:42Z</time>
  <course>50.57</course>
  <speed>4.18</speed>
  <fix>3d</fix>
</trkpt>
<trkpt lat="-27.2614516" lon="151.3215997">
  <ele>509.44</ele>
  <time>2026-09-01T20:00:42Z</time>
  <course>200.53</course>
  <speed>2.4330433617179947</speed>
  <fix>3d</fix>
</trkpt>
<trkpt lat="-27.2614497" lon="151.321594">
  <ele>514.06</ele>
  <time>2026-09-01T20:00:42Z</time>
  <course>89.5</course>
  <speed>3.33</speed>
  <fix>3d</fix>
</trkpt>
<trkpt lat="-27.2614536" lon="151.3215999">
  <ele>507.08</ele>
  <time>2026-09-01T20:00:42Z</time>
  <course>234.63</course>
  <speed>2.1769703718700444</speed>
  <fix>3d</fix>
</trkpt>
<trkpt lat="-27.2614497" lon="151.321594">
  <ele>514.06</ele>
  <time>2026-09-01T20:00:42Z</time>
  <course>89.5</course>
  <speed>3.33</speed>
  <fix>3d</fix>
</trkpt>
<trkpt lat="-27.261455" lon="151.3215983">
  <ele>504.67</ele>
  <time>2026-09-01T20:00:42Z</time>
  <course>267.47</course>
  <speed>2.5277064703006955</speed>
  <fix>3d</fix>
</trkpt>
<trkpt lat="-27.2614516" lon="151.3215988">
  <ele>509.53</ele>
  <time>2026-09-01T20:00:42Z</time>
  <course>149.47</course>
  <speed>2.02</speed>
  <fix>3d</fix>
</trkpt>
<trkpt lat="-27.2614551" lon="151.3215955">
  <ele>502.22</ele>
  <time>2026-09-01T20:00:42Z</time>
  <course>298.44</course>
  <speed>3.274263275914141</speed>
  <fix>3d</fix>
</trkpt>
<trkpt lat="-27.2614516" lon="151.3215988">
  <ele>509.53</ele>
  <time>2026-09-01T20:00:42Z</time>
  <course>149.47</course>
  <speed>2.02</speed>
  <fix>3d</fix>
</trkpt>
<trkpt lat="-27.2614535" lon="151.3215923">
  <ele>499.73</ele>
  <time>2026-09-01T20:00:42Z</time>
  <course>327.91</course>
  <speed>4.089058571358449</speed>
  <fix>3d</fix>
</trkpt>
<trkpt lat="-27.2614542" lon="151.3215978">
  <ele>504.77</ele>
  <time>2026-09-01T20:00:42Z</time>
  <course>250.12</course>
  <speed>2.03</speed>
  <fix>3d</fix>
</trkpt>
<trkpt lat="-27.2614502" lon="151.3215899">
  <ele>497.21</ele>
  <time>2026-09-01T20:00:42Z</time>
  <course>356.67</course>
  <speed>4.767242389474234</speed>
  <fix>3d</fix>
</trkpt>
<trkpt lat="-27.2614542" lon="151.3215978">
  <ele>504.77</ele>
  <time>2026-09-01T20:00:42Z</time>
  <course>250.12</course>
  <speed>2.03</speed>
  <fix>3d</fix>
</trkpt>
<trkpt lat="-27.2614457" lon="151.321589">
  <ele>494.66</ele>
  <time>2026-09-01T20:00:42Z</time>
  <course>25.5</course>
  <speed>5.19924994590566</speed>
  <fix>3d</fix>
</trkpt>
<trkpt lat="-27.2614527" lon="151.3215928">
  <ele>499.84</ele>
  <time>2026-09-01T20:00:42Z</time>
  <course>315.67</course>
  <speed>3.55</speed>
  <fix>3d</fix>
</trkpt>
<trkpt lat="-27.2596614" lon="151.3256286">
  <ele>540.09</ele>
  <time>2026-09-01T20:00:42Z</time>
  <course>235.18</course>
  <speed>13.654962467908874</speed>
  <fix>3d</fix>
</trkpt>
<trkpt lat="-27.2614527" lon="151.3215928">
  <ele>499.84</ele>
  <time>2026-09-01T20:00:42Z</time>
  <course>315.67</course>
  <speed>3.55</speed>
  <fix>3d</fix>
</trkpt>
<trkpt lat="-27.2596667" lon="151.3256132">
  <ele>536.44</ele>
  <time>2026-09-01T20:00:42Z</time>
  <course>235.76</course>
  <speed>19.260259603650205</speed>
  <fix>3d</fix>
</trkpt>
<trkpt lat="-27.2605558" lon="151.3236096">
  <ele>518.81</ele>
  <time>2026-09-01T20:00:42Z</time>
  <course>271.09</course>
  <speed>7.31</speed>
  <fix>3d</fix>
</trkpt>
<trkpt lat="-27.2596745" lon="151.3255931">
  <ele>533.14</ele>
  <time>2026-09-01T20:00:42Z</time>
  <course>240.37</course>
  <speed>23.937027802131155</speed>
  <fix>3d</fix>
</trkpt>
<trkpt lat="-27.2605558" lon="151.3236096">
  <ele>518.81</ele>
  <time>2026-09-01T20:00:42Z</time>
  <course>271.09</course>
  <speed>7.31</speed>
  <fix>3d</fix>
</trkpt>
<trkpt lat="-27.2596848" lon="151.3255697">
  <ele>530.19</ele>
  <time>2026-09-01T20:00:42Z</time>
  <course>236.56</course>
  <speed>27.431255895419735</speed>
  <fix>3d</fix>
</trkpt>
<trkpt lat="-27.2596676" lon="151.3256117">
  <ele>536.79</ele>
  <time>2026-09-01T20:00:42Z</time>
  <course>248.19</course>
  <speed>18.58</speed>
  <fix>3d</fix>
</trkpt>
<trkpt lat="-27.2596985" lon="151.3255453">
  <ele>527.54</ele>
  <time>2026-09-01T20:00:42Z</time>
  <course>225.7</course>
  <speed>29.180687106372257</speed>
  <fix>3d</fix>
</trkpt>
<trkpt lat="-27.2596676" lon="151.3256117">
  <ele>536.79</ele>
  <time>2026-09-01T20:00:42Z</time>
  <course>248.19</course>
  <speed>18.58</speed>
  <fix>3d</fix>
</trkpt>
<trkpt lat="-27.2597157" lon="151.3255227">
  <ele>525.06</ele>
  <time>2026-09-01T20:00:42Z</time>
  <course>212.85</course>
  <speed>29.56466302869018</speed>
  <fix>3d</fix>
</trkpt>
<trkpt lat="-27.2596859" lon="151.3255704">
  <ele>530.48</ele>
  <time>2026-09-01T20:00:42Z</time>
  <course>239.51</course>
  <speed>26.3</speed>
  <fix>3d</fix>
</trkpt>
<trkpt lat="-27.2597356" lon="151.3255038">
  <ele>522.61</ele>
  <time>2026-09-01T20:00:42Z</time>
  <course>207.83</course>
  <speed>28.98062283664725</speed>
  <fix>3d</fix>
</trkpt>
<trkpt lat="-27.2596859" lon="151.3255704">
  <ele>530.48</ele>
  <time>2026-09-01T20:00:42Z</time>
  <course>239.51</course>
  <speed>26.3</speed>
  <fix>3d</fix>
</trkpt>
<trkpt lat="-27.259756" lon="151.3254854">
  <ele>520.16</ele>
  <time>2026-09-01T20:00:42Z</time>
  <course>221.85</course>
  <speed>29.722114662318358</speed>
  <fix>3d</fix>
</trkpt>
<trkpt lat="-27.2597162" lon="151.3255255">
  <ele>525.19</ele>
  <time>2026-09-01T20:00:42Z</time>
  <course>225.84</course>
  <speed>28.75</speed>
  <fix>3d</fix>
</trkpt>
<trkpt lat="-27.2597749" lon="151.3254624">
  <ele>518.04</ele>
  <time>2026-09-01T20:00:42Z</time>
  <course>232.42</course>
  <speed>32.329531391593044</speed>
  <fix>3d</fix>
</trkpt>
<trkpt lat="-27.2597162" lon="151.3255255">
  <ele>525.19</ele>
  <time>2026-09-01T20:00:42Z</time>
  <course>225.84</course>
  <speed>28.75</speed>
  <fix>3d</fix>
</trkpt>
<trkpt lat="-27.2597924" lon="151.3254347">
  <ele>516.48</ele>
  <time>2026-09-01T20:00:42Z</time>
  <course>237.98</course>
  <speed>34.542427534844734</speed>
  <fix>3d</fix>
</trkpt>
<trkpt lat="-27.2597544" lon="151.325484">
  <ele>520.41</ele>
  <time>2026-09-01T20:00:42Z</time>
  <course>224.54</course>
  <speed>30.39</speed>
  <fix>3d</fix>
</trkpt>
<trkpt lat="-27.2598086" lon="151.3254045">
  <ele>515.59</ele>
  <time>2026-09-01T20:00:42Z</time>
  <course>241.45</course>
  <speed>35.35016265874883</speed>
  <fix>3d</fix>
</trkpt>
<trkpt lat="-27.2597544" lon="151.325484">
  <ele>520.41</ele>
  <time>2026-09-01T20:00:42Z</time>
  <course>224.54</course>
  <speed>30.39</speed>
  <fix>3d</fix>
</trkpt>
<trkpt lat="-27.2598237" lon="151.3253733">
  <ele>515.44</ele>
  <time>2026-09-01T20:00:42Z</time>
  <course>242.54</course>
  <speed>34.56472768589389</speed>
  <fix>3d</fix>
</trkpt>
<trkpt lat="-27.259791" lon="151.3254346">
  <ele>516.86</ele>
  <time>2026-09-01T20:00:42Z</time>
  <course>235.91</course>
  <speed>33.67</speed>
  <fix>3d</fix>
</trkpt>
<trkpt lat="-27.259838" lon="151.3253435">
  <ele>515.98</ele>
  <time>2026-09-01T20:00:42Z</time>
  <course>241.48</course>
  <speed>32.41573074912858</speed>
  <fix>3d</fix>
</trkpt>
<trkpt lat="-27.259791" lon="151.3254346">
  <ele>516.86</ele>
  <time>2026-09-01T20:00:42Z</time>
  <course>235.91</course>
  <speed>33.67</speed>
  <fix>3d</fix>
</trkpt>
<trkpt lat="-27.259852" lon="151.3253163">
  <ele>517.01</ele>
  <time>2026-09-01T20:00:42Z</time>
  <course>239.22</course>
  <speed>29.92555596810191</speed>
  <fix>3d</fix>
</trkpt>
<trkpt lat="-27.2598226" lon="151.3253752">
  <ele>515.78</ele>
  <time>2026-09-01T20:00:42Z</time>
  <course>240.71</course>
  <speed>33.93</speed>
  <fix>3d</fix>
</trkpt>
<trkpt lat="-27.2598661" lon="151.3252918">
  <ele>518.34</ele>
  <time>2026-09-01T20:00:42Z</time>
  <course>237.06</course>
  <speed>27.783090180899602</speed>
  <fix>3d</fix>
</trkpt>
<trkpt lat="-27.2598226" lon="151.3253752">
  <ele>515.78</ele>
  <time>2026-09-01T20:00:42Z</time>
  <course>240.71</course>
  <speed>33.93</speed>
  <fix>3d</fix>
</trkpt>
<trkpt lat="-27.2598802" lon="151.3252695">
  <ele>519.83</ele>
  <time>2026-09-01T20:00:42Z</time>
  <course>235.73</course>
  <speed>26.092721207263914</speed>
  <fix>3d</fix>
</trkpt>
<trkpt lat="-27.2598514" lon="151.3253187">
  <ele>517.11</ele>
  <time>2026-09-01T20:00:42Z</time>
  <course>238.71</course>
  <speed>30.16</speed>
  <fix>3d</fix>
</trkpt>
<trkpt lat="-27.259894" lon="151.3252489">
  <ele>521.36</ele>
  <time>2026-09-01T20:00:42Z</time>
  <course>235.28</course>
  <speed>24.84275548323897</speed>
  <fix>3d</fix>
</trkpt>
<trkpt lat="-27.2598514" lon="151.3253187">
  <ele>517.11</ele>
  <time>2026-09-01T20:00:42Z</time>
  <course>238.71</course>
  <speed>30.16</speed>
  <fix>3d</fix>
</trkpt>
<trkpt lat="-27.2599074" lon="151.3252296">
  <ele>522.88</ele>
  <time>2026-09-01T20:00:42Z</time>
  <course>234.95</course>
  <speed>23.878243235213095</speed>
  <fix>3d</fix>
</trkpt>
<trkpt lat="-27.2598794" lon="151.3252714">
  <ele>519.78</ele>
  <time>2026-09-01T20:00:42Z</time>
  <course>234.23</course>
  <speed>26.37</speed>
  <fix>3d</fix>
</trkpt>
<trkpt lat="-27.2599205" lon="151.325211">
  <ele>524.35</ele>
  <time>2026-09-01T20:00:42Z</time>
  <course>234.41</course>
  <speed>23.05656088838923</speed>
  <fix>3d</fix>
</trkpt>
<trkpt lat="-27.2598794" lon="151.3252714">
  <ele>519.78</ele>
  <time>2026-09-01T20:00:42Z</time>
  <course>234.23</course>
  <speed>26.37</speed>
  <fix>3d</fix>
</trkpt>
<trkpt lat="-27.2599331" lon="151.3251929">
  <ele>525.78</ele>
  <time>2026-09-01T20:00:42Z</time>
  <course>233.89</course>
  <speed>22.34155097570444</speed>
  <fix>3d</fix>
</trkpt>
<trkpt lat="-27.2599065" lon="151.3252309">
  <ele>522.78</ele>
  <time>2026-09-01T20:00:42Z</time>
  <course>232.04</course>
  <speed>24.0</speed>
  <fix>3d</fix>
</trkpt>
<trkpt lat="-27.2599453" lon="151.3251755">
  <ele>527.15</ele>
  <time>2026-09-01T20:00:42Z</time>
  <course>233.63</course>
  <speed>21.72829491699705</speed>
  <fix>3d</fix>
</trkpt>
<trkpt lat="-27.2599065" lon="151.3252309">
  <ele>522.78</ele>
  <time>2026-09-01T20:00:42Z</time>
  <course>232.04</course>
  <speed>24.0</speed>
  <fix>3d</fix>
</trkpt>
<trkpt lat="-27.2599571" lon="151.3251584">
  <ele>528.44</ele>
  <time>2026-09-01T20:00:42Z</time>
  <course>233.53</course>
  <speed>21.185336910231094</speed>
  <fix>3d</fix>
</trkpt>
<trkpt lat="-27.2599322" lon="151.325194">
  <ele>525.68</ele>
  <time>2026-09-01T20:00:42Z</time>
  <course>231.87</course>
  <speed>22.43</speed>
  <fix>3d</fix>
</trkpt>
<trkpt lat="-27.2599685" lon="151.3251417">
  <ele>529.66</ele>
  <time>2026-09-01T20:00:42Z</time>
  <course>233.52</course>
  <speed>20.65473311374417</speed>
  <fix>3d</fix>
</trkpt>
<trkpt lat="-27.2599322" lon="151.325194">
  <ele>525.68</ele>
  <time>2026-09-01T20:00:42Z</time>
  <course>231.87</course>
  <speed>22.43</speed>
  <fix>3d</fix>
</trkpt>
<trkpt lat="-27.2599798" lon="151.3251254">
  <ele>530.83</ele>
  <time>2026-09-01T20:00:42Z</time>
  <course>233.57</course>
  <speed>20.106578525447834</speed>
  <fix>3d</fix>
</trkpt>
<trkpt lat="-27.2599564" lon="151.3251594">
  <ele>528.34</ele>
  <time>2026-09-01T20:00:42Z</time>
  <course>232.08</course>
  <speed>21.22</speed>
  <fix>3d</fix>
</trkpt>
<trkpt lat="-27.2599907" lon="151.3251096">
  <ele>531.93</ele>
  <time>2026-09-01T20:00:42Z</time>
  <course>233.66</course>
  <speed>19.528589298769123</speed>
  <fix>3d</fix>
</trkpt>
<trkpt lat="-27.2599564" lon="151.3251594">
  <ele>528.34</ele>
  <time>2026-09-01T20:00:42Z</time>
  <course>232.08</course>
  <speed>21.22</speed>
  <fix>3d</fix>
</trkpt>
<trkpt lat="-27.2600013" lon="151.3250942">
  <ele>532.99</ele>
  <time>2026-09-01T20:00:42Z</time>
  <course>233.73</course>
  <speed>18.92691205664569</speed>
  <fix>3d</fix>
</trkpt>
<trkpt lat="-27.2599791" lon="151.3251264">
  <ele>530.74</ele>
  <time>2026-09-01T20:00:42Z</time>
  <course>232.19</course>
  <speed>20.12</speed>
  <fix>3d</fix>
</trkpt>
<trkpt lat="-27.2600116" lon="151.3250794">
  <ele>534.01</ele>
  <time>2026-09-01T20:00:42Z</time>
  <course>233.74</course>
  <speed>18.293742099417496</speed>
  <fix>3d</fix>
</trkpt>
<trkpt lat="-27.2599791" lon="151.3251264">
  <ele>530.74</ele>
  <time>2026-09-01T20:00:42Z</time>
  <course>232.19</course>
  <speed>20.12</speed>
  <fix>3d</fix>
</trkpt>
<trkpt lat="-27.2600216" lon="151.3250651">
  <ele>534.99</ele>
  <time>2026-09-01T20:00:42Z</time>
  <course>233.71</course>
  <speed>17.659043009178045</speed>
  <fix>3d</fix>
</trkpt>
<trkpt lat="-27.2600007" lon="151.3250952">
  <ele>532.92</ele>
  <time>2026-09-01T20:00:42Z</time>
  <course>232.08</course>
  <speed>18.94</speed>
  <fix>3d</fix>
</trkpt>
<trkpt lat="-27.2600313" lon="151.3250514">
  <ele>535.95</ele>
  <time>2026-09-01T20:00:42Z</time>
  <course>233.65</course>
  <speed>17.01677113908511</speed>
  <fix>3d</fix>
</trkpt>
<trkpt lat="-27.2600007" lon="151.3250952">
  <ele>532.92</ele>
  <time>2026-09-01T20:00:42Z</time>
  <course>232.08</course>
  <speed>18.94</speed>
  <fix>3d</fix>
</trkpt>
<trkpt lat="-27.2600406" lon="151.3250382">
  <ele>536.88</ele>
  <time>2026-09-01T20:00:42Z</time>
  <course>233.57</course>
  <speed>16.38110191653785</speed>
  <fix>3d</fix>
</trkpt>
<trkpt lat="-27.260021" lon="151.3250659">
  <ele>534.93</ele>
  <time>2026-09-01T20:00:42Z</time>
  <course>231.74</course>
  <speed>17.68</speed>
  <fix>3d</fix>
</trkpt>
<trkpt lat="-27.2600497" lon="151.3250256">
  <ele>537.79</ele>
  <time>2026-09-01T20:00:42Z</time>
  <course>233.48</course>
  <speed>15.781793307479349</speed>
  <fix>3d</fix>
</trkpt>
<trkpt lat="-27.260021" lon="151.3250659">
  <ele>534.93</ele>
  <time>2026-09-01T20:00:42Z</time>
  <course>231.74</course>
  <speed>17.68</speed>
  <fix>3d</fix>
</trkpt>
<trkpt lat="-27.2600585" lon="151.3250134">
  <ele>538.66</ele>
  <time>2026-09-01T20:00:42Z</time>
  <course>233.39</course>
  <speed>15.190694520001381</speed>
  <fix>3d</fix>
</trkpt>
<trkpt lat="-27.2600401" lon="151.325039">
  <ele>536.82</ele>
  <time>2026-09-01T20:00:42Z</time>
  <course>231.23</course>
  <speed>16.42</speed>
  <fix>3d</fix>
</trkpt>
<trkpt lat="-27.260067" lon="151.3250018">
  <ele>539.5</ele>
  <time>2026-09-01T20:00:42Z</time>
  <course>233.3</course>
  <speed>14.621836409972586</speed>
  <fix>3d</fix>
</trkpt>
<trkpt lat="-27.2600401" lon="151.325039">
  <ele>536.82</ele>
  <time>2026-09-01T20:00:42Z</time>
  <course>231.23</course>
  <speed>16.42</speed>
  <fix>3d</fix>
</trkpt>
<trkpt lat="-27.2600753" lon="151.3249907">
  <ele>540.31</ele>
  <time>2026-09-01T20:00:42Z</time>
  <course>233.22</course>
  <speed>14.081619225074935</speed>
  <fix>3d</fix>
</trkpt>
<trkpt lat="-27.260058" lon="151.3250142">
  <ele>538.6</ele>
  <time>2026-09-01T20:00:42Z</time>
  <course>230.63</course>
  <speed>15.23</speed>
  <fix>3d</fix>
</trkpt>
<trkpt lat="-27.2600833" lon="151.3249799">
  <ele>541.08</ele>
  <time>2026-09-01T20:00:42Z</time>
  <course>233.14</course>
  <speed>13.563664696533898</speed>
  <fix>3d</fix>
</trkpt>
<trkpt lat="-27.260058" lon="151.3250142">
  <ele>538.6</ele>
  <time>2026-09-01T20:00:42Z</time>
  <course>230.63</course>
  <speed>15.23</speed>
  <fix>3d</fix>
</trkpt>
<trkpt lat="-27.2600911" lon="151.3249698">
  <ele>541.82</ele>
  <time>2026-09-01T20:00:42Z</time>
  <course>233.09</course>
  <speed>13.067934037176649</speed>
  <fix>3d</fix>
</trkpt>
<trkpt lat="-27.2600748" lon="151.3249913">
  <ele>540.25</ele>
  <time>2026-09-01T20:00:42Z</time>
  <course>229.98</course>
  <speed>14.12</speed>
  <fix>3d</fix>
</trkpt>
<trkpt lat="-27.2600986" lon="151.32496">
  <ele>542.52</ele>
  <time>2026-09-01T20:00:42Z</time>
  <course>233.04</course>
  <speed>12.594383668921635</speed>
  <fix>3d</fix>
</trkpt>
<trkpt lat="-27.2600748" lon="151.3249913">
  <ele>540.25</ele>
  <time>2026-09-01T20:00:42Z</time>
  <course>229.98</course>
  <speed>14.12</speed>
  <fix>3d</fix>
</trkpt>
<trkpt lat="-27.260106" lon="151.3249506">
  <ele>543.18</ele>
  <time>2026-09-01T20:00:42Z</time>
  <course>233.01</course>
  <speed>12.156216516663399</speed>
  <fix>3d</fix>
</trkpt>
<trkpt lat="-27.2600906" lon="151.3249704">
  <ele>541.77</ele>
  <time>2026-09-01T20:00:42Z</time>
  <course>229.28</course>
  <speed>13.1</speed>
  <fix>3d</fix>
</trkpt>
<trkpt lat="-27.2601131" lon="151.3249416">
  <ele>543.79</ele>
  <time>2026-09-01T20:00:42Z</time>
  <course>232.98</course>
  <speed>11.732898192688795</speed>
  <fix>3d</fix>
</trkpt>
<trkpt lat="-27.2600906" lon="151.3249704">
  <ele>541.77</ele>
  <time>2026-09-01T20:00:42Z</time>
  <course>229.28</course>
  <speed>13.1</speed>
  <fix>3d</fix>
</trkpt>
<trkpt lat="-27.2601201" lon="151.3249329">
  <ele>544.38</ele>
  <time>2026-09-01T20:00:42Z</time>
  <course>232.93</course>
  <speed>11.324530895361626</speed>
  <fix>3d</fix>
</trkpt>
<trkpt lat="-27.2601055" lon="151.3249511">
  <ele>543.13</ele>
  <time>2026-09-01T20:00:42Z</time>
  <course>228.48</course>
  <speed>12.18</speed>
  <fix>3d</fix>
</trkpt>
<trkpt lat="-27.2601269" lon="151.3249247">
  <ele>544.91</ele>
  <time>2026-09-01T20:00:42Z</time>
  <course>232.87</course>
  <speed>10.923918710792385</speed>
  <fix>3d</fix>
</trkpt>
<trkpt lat="-27.2601055" lon="151.3249511">
  <ele>543.13</ele>
  <time>2026-09-01T20:00:42Z</time>
  <course>228.48</course>
  <speed>12.18</speed>
  <fix>3d</fix>
</trkpt>
<trkpt lat="-27.2601335" lon="151.3249169">
  <ele>545.41</ele>
  <time>2026-09-01T20:00:42Z</time>
  <course>232.79</course>
  <speed>10.545544082691988</speed>
  <fix>3d</fix>
</trkpt>
<trkpt lat="-27.2601197" lon="151.3249335">
  <ele>544.33</ele>
  <time>2026-09-01T20:00:42Z</time>
  <course>227.51</course>
  <speed>11.35</speed>
  <fix>3d</fix>
</trkpt>
<trkpt lat="-27.26014" lon="151.3249093">
  <ele>545.88</ele>
  <time>2026-09-01T20:00:42Z</time>
  <course>232.67</course>
  <speed>10.175819377327803</speed>
  <fix>3d</fix>
</trkpt>
<trkpt lat="-27.2601197" lon="151.3249335">
  <ele>544.33</ele>
  <time>2026-09-01T20:00:42Z</time>
  <course>227.51</course>
  <speed>11.35</speed>
  <fix>3d</fix>
</trkpt>
<trkpt lat="-27.2601463" lon="151.3249021">
  <ele>546.31</ele>
  <time>2026-09-01T20:00:42Z</time>
  <course>232.52</course>
  <speed>9.814733822167568</speed>
  <fix>3d</fix>
</trkpt>
<trkpt lat="-27.2601331" lon="151.3249173">
  <ele>545.38</ele>
  <time>2026-09-01T20:00:42Z</time>
  <course>226.3</course>
  <speed>10.57</speed>
  <fix>3d</fix>
</trkpt>
<trkpt lat="-27.2601525" lon="151.3248952">
  <ele>546.69</ele>
  <time>2026-09-01T20:00:42Z</time>
  <course>232.33</course>
  <speed>9.462874827450694</speed>
  <fix>3d</fix>
</trkpt>
<trkpt lat="-27.2601331" lon="151.3249173">
  <ele>545.38</ele>
  <time>2026-09-01T20:00:42Z</time>
  <course>226.3</course>
  <speed>10.57</speed>
  <fix>3d</fix>
</trkpt>
<trkpt lat="-27.2601586" lon="151.3248888">
  <ele>547.05</ele>
  <time>2026-09-01T20:00:42Z</time>
  <course>232.11</course>
  <speed>9.120663353068132</speed>
  <fix>3d</fix>
</trkpt>
<trkpt lat="-27.2601459" lon="151.3249025">
  <ele>546.27</ele>
  <time>2026-09-01T20:00:42Z</time>
  <course>224.8</course>
  <speed>9.84</speed>
  <fix>3d</fix>
</trkpt>
<trkpt lat="-27.2601645" lon="151.3248827">
  <ele>547.36</ele>
  <time>2026-09-01T20:00:42Z</time>
  <course>231.85</course>
  <speed>8.787974738243165</speed>
  <fix>3d</fix>
</trkpt>
<trkpt lat="-27.2601459" lon="151.3249025">
  <ele>546.27</ele>
  <time>2026-09-01T20:00:42Z</time>
  <course>224.8</course>
  <speed>9.84</speed>
  <fix>3d</fix>
</trkpt>
<trkpt lat="-27.2601704" lon="151.3248769">
  <ele>547.65</ele>
  <time>2026-09-01T20:00:42Z</time>
  <course>231.57</course>
  <speed>8.465754544043904</speed>
  <fix>3d</fix>
</trkpt>
<trkpt lat="-27.2601582" lon="151.3248893">
  <ele>547.01</ele>
  <time>2026-09-01T20:00:42Z</time>
  <course>222.98</course>
  <speed>9.14</speed>
  <fix>3d</fix>
</trkpt>
<trkpt lat="-27.2601761" lon="151.3248716">
  <ele>547.9</ele>
  <time>2026-09-01T20:00:42Z</time>
  <course>231.25</course>
  <speed>8.147054682521777</speed>
  <fix>3d</fix>
</trkpt>
<trkpt lat="-27.2601582" lon="151.3248893">
  <ele>547.01</ele>
  <time>2026-09-01T20:00:42Z</time>
  <course>222.98</course>
  <speed>9.14</speed>
  <fix>3d</fix>
</trkpt>
<trkpt lat="-27.2601817" lon="151.3248664">
  <ele>548.13</ele>
  <time>2026-09-01T20:00:42Z</time>
  <course>230.91</course>
  <speed>7.840159437154324</speed>
  <fix>3d</fix>
</trkpt>
<trkpt lat="-27.26017" lon="151.3248774">
  <ele>547.62</ele>
  <time>2026-09-01T20:00:42Z</time>
  <course>220.81</course>
  <speed>8.48</speed>
  <fix>3d</fix>
</trkpt>
<trkpt lat="-27.2601871" lon="151.3248617">
  <ele>548.32</ele>
  <time>2026-09-01T20:00:42Z</time>
  <course>230.55</course>
  <speed>7.544004241780356</speed>
  <fix>3d</fix>
</trkpt>
<trkpt lat="-27.26017" lon="151.3248774">
  <ele>547.62</ele>
  <time>2026-09-01T20:00:42Z</time>
  <course>220.81</course>
  <speed>8.48</speed>
  <fix>3d</fix>
</trkpt>
<trkpt lat="-27.2601925" lon="151.3248573">
  <ele>548.48</ele>
  <time>2026-09-01T20:00:42Z</time>
  <course>230.17</course>
  <speed>7.260922806365593</speed>
  <fix>3d</fix>
</trkpt>
<trkpt lat="-27.2601813" lon="151.3248669">
  <ele>548.1</ele>
  <time>2026-09-01T20:00:42Z</time>
  <course>218.26</course>
  <speed>7.86</speed>
  <fix>3d</fix>
</trkpt>
<trkpt lat="-27.2601978" lon="151.3248533">
  <ele>548.62</ele>
  <time>2026-09-01T20:00:42Z</time>
  <course>229.79</course>
  <speed>6.980902520448198</speed>
  <fix>3d</fix>
</trkpt>
<trkpt lat="-27.2601813" lon="151.3248669">
  <ele>548.1</ele>
  <time>2026-09-01T20:00:42Z</time>
  <course>218.26</course>
  <speed>7.86</speed>
  <fix>3d</fix>
</trkpt>
<trkpt lat="-27.260203" lon="151.3248495">
  <ele>548.73</ele>
  <time>2026-09-01T20:00:42Z</time>
  <course>229.4</course>
  <speed>6.7150949360377625</speed>
  <fix>3d</fix>
</trkpt>
<trkpt lat="-27.2601922" lon="151.3248577">
  <ele>548.46</ele>
  <time>2026-09-01T20:00:42Z</time>
  <course>215.33</course>
  <speed>7.27</speed>
  <fix>3d</fix>
</trkpt>
<trkpt lat="-27.260208" lon="151.3248461">
  <ele>548.82</ele>
  <time>2026-09-01T20:00:42Z</time>
  <course>229.01</course>
  <speed>6.461091239101952</speed>
  <fix>3d</fix>
</trkpt>
<trkpt lat="-27.2601922" lon="151.3248577">
  <ele>548.46</ele>
  <time>2026-09-01T20:00:42Z</time>
  <course>215.33</course>
  <speed>7.27</speed>
  <fix>3d</fix>
</trkpt>
<trkpt lat="-27.260213" lon="151.3248429">
  <ele>548.88</ele>
  <time>2026-09-01T20:00:42Z</time>
  <course>228.63</course>
  <speed>6.205304182713366</speed>
  <fix>3d</fix>
</trkpt>
<trkpt lat="-27.2602027" lon="151.3248499">
  <ele>548.72</ele>
  <time>2026-09-01T20:00:42Z</time>
  <course>212.02</course>
  <speed>6.73</speed>
  <fix>3d</fix>
</trkpt>
<trkpt lat="-27.2602179" lon="151.3248401">
  <ele>548.91</ele>
  <time>2026-09-01T20:00:42Z</time>
  <course>228.31</course>
  <speed>5.966070733740927</speed>
  <fix>3d</fix>
</trkpt>
<trkpt lat="-27.2602027" lon="151.3248499">
  <ele>548.72</ele>
  <time>2026-09-01T20:00:42Z</time>
  <course>212.02</course>
  <speed>6.73</speed>
  <fix>3d</fix>
</trkpt>
<trkpt lat="-27.2602226" lon="151.3248377">
  <ele>548.95</ele>
  <time>2026-09-01T20:00:42Z</time>
  <course>228.38</course>
  <speed>5.680316892568583</speed>
  <fix>3d</fix>
</trkpt>
<trkpt lat="-27.2602127" lon="151.3248433">
  <ele>548.87</ele>
  <time>2026-09-01T20:00:42Z</time>
  <course>208.24</course>
  <speed>6.22</speed>
  <fix>3d</fix>
</trkpt>
<trkpt lat="-27.2602272" lon="151.3248357">
  <ele>548.97</ele>
  <time>2026-09-01T20:00:42Z</time>
  <course>229.09</course>
  <speed>5.377359947037207</speed>
  <fix>3d</fix>
</trkpt>
<trkpt lat="-27.2602127" lon="151.3248433">
  <ele>548.87</ele>
  <time>2026-09-01T20:00:42Z</time>
  <course>208.24</course>
  <speed>6.22</speed>
  <fix>3d</fix>
</trkpt>
<trkpt lat="-27.2602317" lon="151.3248341">
  <ele>549.0</ele>
  <time>2026-09-01T20:00:42Z</time>
  <course>230.55</course>
  <speed>5.04670189331607</speed>
  <fix>3d</fix>
</trkpt>
<trkpt lat="-27.2602223" lon="151.324838">
  <ele>548.94</ele>
  <time>2026-09-01T20:00:42Z</time>
  <course>203.21</course>
  <speed>5.68</speed>
  <fix>3d</fix>
</trkpt>
<trkpt lat="-27.260236" lon="151.3248329">
  <ele>549.03</ele>
  <time>2026-09-01T20:00:42Z</time>
  <course>232.78</course>
  <speed>4.689530893383687</speed>
  <fix>3d</fix>
</trkpt>
<trkpt lat="-27.2602223" lon="151.324838">
  <ele>548.94</ele>
  <time>2026-09-01T20:00:42Z</time>
  <course>203.21</course>
  <speed>5.68</speed>
  <fix>3d</fix>
</trkpt>
<trkpt lat="-27.26024" lon="151.3248323">
  <ele>549.08</ele>
  <time>2026-09-01T20:00:42Z</time>
  <course>235.73</course>
  <speed>4.313420916163874</speed>
  <fix>3d</fix>
</trkpt>
<trkpt lat="-27.2602314" lon="151.3248343">
  <ele>549.0</ele>
  <time>2026-09-01T20:00:42Z</time>
  <course>195.71</course>
  <speed>5.03</speed>
  <fix>3d</fix>
</trkpt>
<trkpt lat="-27.2602437" lon="151.3248322">
  <ele>549.15</ele>
  <time>2026-09-01T20:00:42Z</time>
  <course>239.33</course>
  <speed>3.9341199778349414</speed>
  <fix>3d</fix>
</trkpt>
<trkpt lat="-27.2602314" lon="151.3248343">
  <ele>549.0</ele>
  <time>2026-09-01T20:00:42Z</time>
  <course>195.71</course>
  <speed>5.03</speed>
  <fix>3d</fix>
</trkpt>
<trkpt lat="-27.260247" lon="151.3248327">
  <ele>549.23</ele>
  <time>2026-09-01T20:00:42Z</time>
  <course>243.41</course>
  <speed>3.5654452737351052</speed>
  <fix>3d</fix>
</trkpt>
<trkpt lat="-27.2602396" lon="151.3248325">
  <ele>549.09</ele>
  <time>2026-09-01T20:00:42Z</time>
  <course>184.82</course>
  <speed>4.3</speed>
  <fix>3d</fix>
</trkpt>
<trkpt lat="-27.26025" lon="151.3248336">
  <ele>549.33</ele>
  <time>2026-09-01T20:00:42Z</time>
  <course>247.72</course>
  <speed>3.2397530770106537</speed>
  <fix>3d</fix>
</trkpt>
<trkpt lat="-27.2602396" lon="151.3248325">
  <ele>549.09</ele>
  <time>2026-09-01T20:00:42Z</time>
  <course>184.82</course>
  <speed>4.3</speed>
  <fix>3d</fix>
</trkpt>
<trkpt lat="-27.2602525" lon="151.3248348">
  <ele>549.45</ele>
  <time>2026-09-01T20:00:42Z</time>
  <course>252.02</course>
  <speed>2.938383909566617</speed>
  <fix>3d</fix>
</trkpt>
<trkpt lat="-27.2602466" lon="151.3248329">
  <ele>549.24</ele>
  <time>2026-09-01T20:00:42Z</time>
  <course>169.78</course>
  <speed>3.56</speed>
  <fix>3d</fix>
</trkpt>
<trkpt lat="-27.2602546" lon="151.3248363">
  <ele>549.59</ele>
  <time>2026-09-01T20:00:42Z</time>
  <course>256.13</course>
  <speed>2.616027522790997</speed>
  <fix>3d</fix>
</trkpt>
<trkpt lat="-27.2602466" lon="151.3248329">
  <ele>549.24</ele>
  <time>2026-09-01T20:00:42Z</time>
  <course>169.78</course>
  <speed>3.56</speed>
  <fix>3d</fix>
</trkpt>
<trkpt lat="-27.2602563" lon="151.3248379">
  <ele>549.74</ele>
  <time>2026-09-01T20:00:42Z</time>
  <course>260.08</course>
  <speed>2.2355759884199866</speed>
  <fix>3d</fix>
</trkpt>
<trkpt lat="-27.2602521" lon="151.3248349">
  <ele>549.45</ele>
  <time>2026-09-01T20:00:42Z</time>
  <course>152.82</course>
  <speed>2.91</speed>
  <fix>3d</fix>
</trkpt>
<trkpt lat="-27.2602575" lon="151.3248395">
  <ele>549.91</ele>
  <time>2026-09-01T20:00:42Z</time>
  <course>263.92</course>
  <speed>1.856017241299229</speed>
  <fix>3d</fix>
</trkpt>
<trkpt lat="-27.2602521" lon="151.3248349">
  <ele>549.45</ele>
  <time>2026-09-01T20:00:42Z</time>
  <course>152.82</course>
  <speed>2.91</speed>
  <fix>3d</fix>
</trkpt>
<trkpt lat="-27.2602583" lon="151.3248409">
  <ele>550.09</ele>
  <time>2026-09-01T20:00:42Z</time>
  <course>267.54</course>
  <speed>1.5323511346946561</speed>
  <fix>3d</fix>
</trkpt>
<trkpt lat="-27.260256" lon="151.3248378">
  <ele>549.74</ele>
  <time>2026-09-01T20:00:42Z</time>
  <course>137.04</course>
  <speed>2.23</speed>
  <fix>3d</fix>
</trkpt>
<trkpt lat="-27.2602588" lon="151.3248423">
  <ele>550.24</ele>
  <time>2026-09-01T20:00:42Z</time>
  <course>270.51</course>
  <speed>1.3423859355639869</speed>
  <fix>3d</fix>
</trkpt>
<trkpt lat="-27.260256" lon="151.3248378">
  <ele>549.74</ele>
  <time>2026-09-01T20:00:42Z</time>
  <course>137.04</course>
  <speed>2.23</speed>
  <fix>3d</fix>
</trkpt>
<trkpt lat="-27.2602593" lon="151.3248434">
  <ele>550.28</ele>
  <time>2026-09-01T20:00:42Z</time>
  <course>272.78</course>
  <speed>1.176477794095579</speed>
  <fix>3d</fix>
</trkpt>
<trkpt lat="-27.2602581" lon="151.3248408">
  <ele>550.07</ele>
  <time>2026-09-01T20:00:42Z</time>
  <course>122.35</course>
  <speed>1.6</speed>
  <fix>3d</fix>
</trkpt>
<trkpt lat="-27.2602598" lon="151.3248444">
  <ele>550.23</ele>
  <time>2026-09-01T20:00:42Z</time>
  <course>274.41</course>
  <speed>1.0511898020814319</speed>
  <fix>3d</fix>
</trkpt>
<trkpt lat="-27.2602581" lon="151.3248408">
  <ele>550.07</ele>
  <time>2026-09-01T20:00:42Z</time>
  <course>122.35</course>
  <speed>1.6</speed>
  <fix>3d</fix>
</trkpt>
<trkpt lat="-27.2602602" lon="151.3248453">
  <ele>550.09</ele>
  <time>2026-09-01T20:00:42Z</time>
  <course>275.71</course>
  <speed>0.9538343671728335</speed>
  <fix>3d</fix>
</trkpt>
<trkpt lat="-27.2602592" lon="151.3248433">
  <ele>550.23</ele>
  <time>2026-09-01T20:00:42Z</time>
  <course>116.28</course>
  <speed>1.2</speed>
  <fix>3d</fix>
</trkpt>
<trkpt lat="-27.2602606" lon="151.3248461">
  <ele>549.87</ele>
  <time>2026-09-01T20:00:42Z</time>
  <course>277.37</course>
  <speed>0.8438009243891595</speed>
  <fix>3d</fix>
</trkpt>
<trkpt lat="-27.2602592" lon="151.3248433">
  <ele>550.23</ele>
  <time>2026-09-01T20:00:42Z</time>
  <course>116.28</course>
  <speed>1.2</speed>
  <fix>3d</fix>
</trkpt>
<trkpt lat="-27.260261" lon="151.3248468">
  <ele>549.58</ele>
  <time>2026-09-01T20:00:42Z</time>
  <course>279.55</course>
  <speed>0.7378346698278686</speed>
  <fix>3d</fix>
</trkpt>
<trkpt lat="-27.2602601" lon="151.3248452">
  <ele>550.05</ele>
  <time>2026-09-01T20:00:42Z</time>
  <course>119.47</course>
  <speed>0.96</speed>
  <fix>3d</fix>
</trkpt>
<trkpt lat="-27.2602613" lon="151.3248473">
  <ele>549.22</ele>
  <time>2026-09-01T20:00:42Z</time>
  <course>282.34</course>
  <speed>0.6212889826803627</speed>
  <fix>3d</fix>
</trkpt>
<trkpt lat="-27.2602601" lon="151.3248452">
  <ele>550.05</ele>
  <time>2026-09-01T20:00:42Z</time>
  <course>119.47</course>
  <speed>0.96</speed>
  <fix>3d</fix>
</trkpt>
<trkpt lat="-27.2602616" lon="151.3248478">
  <ele>548.81</ele>
  <time>2026-09-01T20:00:42Z</time>
  <course>285.71</course>
  <speed>0.5077400909914441</speed>
  <fix>3d</fix>
</trkpt>
<trkpt lat="-27.2602609" lon="151.3248467">
  <ele>549.56</ele>
  <time>2026-09-01T20:00:42Z</time>
  <course>122.04</course>
  <speed>0.74</speed>
  <fix>3d</fix>
</trkpt>
<trkpt lat="-27.2602618" lon="151.3248482">
  <ele>548.34</ele>
  <time>2026-09-01T20:00:42Z</time>
  <course>289.65</course>
  <speed>0.3773592452822641</speed>
  <fix>3d</fix>
</trkpt>
<trkpt lat="-27.2602609" lon="151.3248467">
  <ele>549.56</ele>
  <time>2026-09-01T20:00:42Z</time>
  <course>122.04</course>
  <speed>0.74</speed>
  <fix>3d</fix>
</trkpt>
<trkpt lat="-27.260262" lon="151.3248485">
  <ele>547.81</ele>
  <time>2026-09-01T20:00:42Z</time>
  <course>294.21</course>
  <speed>0.23853720883753127</speed>
  <fix>3d</fix>
</trkpt>
<trkpt lat="-27.2602615" lon="151.3248477">
  <ele>548.8</ele>
  <time>2026-09-01T20:00:42Z</time>
  <course>122.86</course>
  <speed>0.51</speed>
  <fix>3d</fix>
</trkpt>
<trkpt lat="-27.2602621" lon="151.3248487">
  <ele>547.21</ele>
  <time>2026-09-01T20:00:42Z</time>
  <course>299.43</course>
  <speed>0.1063014581273465</speed>
  <fix>3d</fix>
</trkpt>
<trkpt lat="-27.2602615" lon="151.3248477">
  <ele>548.8</ele>
  <time>2026-09-01T20:00:42Z</time>
  <course>122.86</course>
  <speed>0.51</speed>
  <fix>3d</fix>
</trkpt>
<trkpt lat="-27.2602621" lon="151.3248487">
  <ele>546.54</ele>
  <time>2026-09-01T20:00:42Z</time>
  <course>305.47</course>
  <speed>0.07</speed>
  <fix>3d</fix>
</trkpt>
<trkpt lat="-27.2602619" lon="151.3248484">
  <ele>547.8</ele>
  <time>2026-09-01T20:00:42Z</time>
  <course>124.2</course>
  <speed>0.25</speed>
  <fix>3d</fix>
</trkpt>
<trkpt lat="-27.260262" lon="151.3248482">
  <ele>545.79</ele>
  <time>2026-09-01T20:00:42Z</time>
  <course>314.33</course>
  <speed>0.8854377448471462</speed>
  <fix>3d</fix>
</trkpt>
<trkpt lat="-27.2602619" lon="151.3248484">
  <ele>547.8</ele>
  <time>2026-09-01T20:00:42Z</time>
  <course>124.2</course>
  <speed>0.25</speed>
  <fix>3d</fix>
</trkpt>
<trkpt lat="-27.2602616" lon="151.3248472">
  <ele>544.98</ele>
  <time>2026-09-01T20:00:42Z</time>
  <course>331.75</course>
  <speed>1.3408206442324788</speed>
  <fix>3d</fix>
</trkpt>
<trkpt lat="-27.260262" lon="151.3248484">
  <ele>546.53</ele>
  <time>2026-09-01T20:00:42Z</time>
  <course>285.47</course>
  <speed>0.37</speed>
  <fix>3d</fix>
</trkpt>
<trkpt lat="-27.2602612" lon="151.3248458">
  <ele>544.06</ele>
  <time>2026-09-01T20:00:42Z</time>
  <course>358.63</course>
  <speed>1.404563989286355</speed>
  <fix>3d</fix>
</trkpt>
<trkpt lat="-27.260262" lon="151.3248484">
  <ele>546.53</ele>
  <time>2026-09-01T20:00:42Z</time>
  <course>285.47</course>
  <speed>0.37</speed>
  <fix>3d</fix>
</trkpt>
<trkpt lat="-27.2602609" lon="151.3248446">
  <ele>543.06</ele>
  <time>2026-09-01T20:00:42Z</time>
  <course>14.28</course>
  <speed>1.2608727136392475</speed>
  <fix>3d</fix>
</trkpt>
<trkpt lat="-27.2602616" lon="151.324847">
  <ele>544.96</ele>
  <time>2026-09-01T20:00:42Z</time>
  <course>289.42</course>
  <speed>1.13</speed>
  <fix>3d</fix>
</trkpt>
<trkpt lat="-27.2602605" lon="151.3248434">
  <ele>541.96</ele>
  <time>2026-09-01T20:00:42Z</time>
  <course>3.39</course>
  <speed>1.2224974437601086</speed>
  <fix>3d</fix>
</trkpt>
<trkpt lat="-27.2602616" lon="151.324847">
  <ele>544.96</ele>
  <time>2026-09-01T20:00:42Z</time>
  <course>289.42</course>
  <speed>1.13</speed>
  <fix>3d</fix>
</trkpt>
<trkpt lat="-27.26026" lon="151.3248422">
  <ele>540.77</ele>
  <time>2026-09-01T20:00:42Z</time>
  <course>340.53</course>
  <speed>1.552063143045411</speed>
  <fix>3d</fix>
</trkpt>
<trkpt lat="-27.2602608" lon="151.3248446">
  <ele>543.05</ele>
  <time>2026-09-01T20:00:42Z</time>
  <course>291.53</course>
  <speed>1.31</speed>
  <fix>3d</fix>
</trkpt>
<trkpt lat="-27.2602591" lon="151.3248405">
  <ele>539.51</ele>
  <time>2026-09-01T20:00:42Z</time>
  <course>329.63</course>
  <speed>2.3769728648009423</speed>
  <fix>3d</fix>
</trkpt>
<trkpt lat="-27.2602608" lon="151.3248446">
  <ele>543.05</ele>
  <time>2026-09-01T20:00:42Z</time>
  <course>291.53</course>
  <speed>1.31</speed>
  <fix>3d</fix>
</trkpt>
<trkpt lat="-27.2602576" lon="151.324838">
  <ele>538.18</ele>
  <time>2026-09-01T20:00:42Z</time>
  <course>328.19</course>
  <speed>3.562611401766968</speed>
  <fix>3d</fix>
</trkpt>
<trkpt lat="-27.2602598" lon="151.324842">
  <ele>540.78</ele>
  <time>2026-09-01T20:00:42Z</time>
  <course>298.12</course>
  <speed>1.78</speed>
  <fix>3d</fix>
</trkpt>
<trkpt lat="-27.2602551" lon="151.3248348">
  <ele>536.81</ele>
  <time>2026-09-01T20:00:42Z</time>
  <course>329.18</course>
  <speed>4.858075750747409</speed>
  <fix>3d</fix>
</trkpt>
<trkpt lat="-27.2602598" lon="151.324842">
  <ele>540.78</ele>
  <time>2026-09-01T20:00:42Z</time>
  <course>298.12</course>
  <speed>1.78</speed>
  <fix>3d</fix>
</trkpt>
<trkpt lat="-27.2602514" lon="151.3248312">
  <ele>535.41</ele>
  <time>2026-09-01T20:00:42Z</time>
  <course>329.44</course>
  <speed>6.0631097631496</speed>
  <fix>3d</fix>
</trkpt>
<trkpt lat="-27.2602572" lon="151.3248377">
  <ele>538.2</ele>
  <time>2026-09-01T20:00:42Z</time>
  <course>310.48</course>
  <speed>3.56</speed>
  <fix>3d</fix>
</trkpt>
<trkpt lat="-27.2602465" lon="151.3248272">
  <ele>533.98</ele>
  <time>2026-09-01T20:00:42Z</time>
  <course>328.87</course>
  <speed>7.183787301973799</speed>
  <fix>3d</fix>
</trkpt>
<trkpt lat="-27.2602572" lon="151.3248377">
  <ele>538.2</ele>
  <time>2026-09-01T20:00:42Z</time>
  <course>310.48</course>
  <speed>3.56</speed>
  <fix>3d</fix>
</trkpt>
<trkpt lat="-27.2602405" lon="151.3248233">
  <ele>532.53</ele>
  <time>2026-09-01T20:00:42Z</time>
  <course>328.1</course>
  <speed>8.33141644619929</speed>
  <fix>3d</fix>
</trkpt>
<trkpt lat="-27.2602509" lon="151.3248312">
  <ele>535.44</ele>
  <time>2026-09-01T20:00:42Z</time>
  <course>322.16</course>
  <speed>5.95</speed>
  <fix>3d</fix>
</trkpt>
<trkpt lat="-27.2602335" lon="151.3248189">
  <ele>531.08</ele>
  <time>2026-09-01T20:00:42Z</time>
  <course>327.26</course>
  <speed>9.62355963248527</speed>
  <fix>3d</fix>
</trkpt>
<trkpt lat="-27.2602509" lon="151.3248312">
  <ele>535.44</ele>
  <time>2026-09-01T20:00:42Z</time>
  <course>322.16</course>
  <speed>5.95</speed>
  <fix>3d</fix>
</trkpt>
<trkpt lat="-27.2602253" lon="151.324814">
  <ele>529.66</ele>
  <time>2026-09-01T20:00:42Z</time>
  <course>326.39</course>
  <speed>11.028916537901628</speed>
  <fix>3d</fix>
</trkpt>
<trkpt lat="-27.2602402" lon="151.3248232">
  <ele>532.58</ele>
  <time>2026-09-01T20:00:42Z</time>
  <course>329.64</course>
  <speed>8.36</speed>
  <fix>3d</fix>
</trkpt>
<trkpt lat="-27.2602161" lon="151.3248082">
  <ele>528.28</ele>
  <time>2026-09-01T20:00:42Z</time>
  <course>325.66</course>
  <speed>12.398516040236427</speed>
  <fix>3d</fix>
</trkpt>
<trkpt lat="-27.2602402" lon="151.3248232">
  <ele>532.58</ele>
  <time>2026-09-01T20:00:42Z</time>
  <course>329.64</course>
  <speed>8.36</speed>
  <fix>3d</fix>
</trkpt>
<trkpt lat="-27.260206" lon="151.3248015">
  <ele>526.97</ele>
  <time>2026-09-01T20:00:42Z</time>
  <course>325.17</course>
  <speed>13.646420776159587</speed>
  <fix>3d</fix>
</trkpt>
<trkpt lat="-27.260225" lon="151.3248137">
  <ele>529.72</ele>
  <time>2026-09-01T20:00:42Z</time>
  <course>330.91</course>
  <speed>10.97</speed>
  <fix>3d</fix>
</trkpt>
<trkpt lat="-27.2601952" lon="151.3247935">
  <ele>525.71</ele>
  <time>2026-09-01T20:00:42Z</time>
  <course>324.87</course>
  <speed>14.794380689978205</speed>
  <fix>3d</fix>
</trkpt>
<trkpt lat="-27.260225" lon="151.3248137">
  <ele>529.72</ele>
  <time>2026-09-01T20:00:42Z</time>
  <course>330.91</course>
  <speed>10.97</speed>
  <fix>3d</fix>
</trkpt>
<trkpt lat="-27.260184" lon="151.3247845">
  <ele>524.56</ele>
  <time>2026-09-01T20:00:42Z</time>
  <course>324.7</course>
  <speed>15.84387894424847</speed>
  <fix>3d</fix>
</trkpt>
<trkpt lat="-27.260206" lon="151.3248011">
  <ele>527.04</ele>
  <time>2026-09-01T20:00:42Z</time>
  <course>327.88</course>
  <speed>13.54</speed>
  <fix>3d</fix>
</trkpt>
<trkpt lat="-27.2601722" lon="151.3247748">
  <ele>523.51</ele>
  <time>2026-09-01T20:00:42Z</time>
  <course>324.68</course>
  <speed>16.82613740583382</speed>
  <fix>3d</fix>
</trkpt>
<trkpt lat="-27.260206" lon="151.3248011">
  <ele>527.04</ele>
  <time>2026-09-01T20:00:42Z</time>
  <course>327.88</course>
  <speed>13.54</speed>
  <fix>3d</fix>
</trkpt>
<trkpt lat="-27.2601598" lon="151.3247642">
  <ele>522.58</ele>
  <time>2026-09-01T20:00:42Z</time>
  <course>324.81</course>
  <speed>17.664653973401233</speed>
  <fix>3d</fix>
</trkpt>
<trkpt lat="-27.2601842" lon="151.3247845">
  <ele>524.65</ele>
  <time>2026-09-01T20:00:42Z</time>
  <course>324.32</course>
  <speed>15.76</speed>
  <fix>3d</fix>
</trkpt>
<trkpt lat="-27.260147" lon="151.3247532">
  <ele>521.79</ele>
  <time>2026-09-01T20:00:42Z</time>
  <course>325.03</course>
  <speed>18.3340039271295</speed>
  <fix>3d</fix>
</trkpt>
<trkpt lat="-27.2601842" lon="151.3247845">
  <ele>524.65</ele>
  <time>2026-09-01T20:00:42Z</time>
  <course>324.32</course>
  <speed>15.76</speed>
  <fix>3d</fix>
</trkpt>
<trkpt lat="-27.2601335" lon="151.3247419">
  <ele>521.14</ele>
  <time>2026-09-01T20:00:42Z</time>
  <course>325.31</course>
  <speed>18.80826679946879</speed>
  <fix>3d</fix>
</trkpt>
<trkpt lat="-27.2601601" lon="151.3247644">
  <ele>522.68</ele>
  <time>2026-09-01T20:00:42Z</time>
  <course>322.99</course>
  <speed>17.55</speed>
  <fix>3d</fix>
</trkpt>
<trkpt lat="-27.2601196" lon="151.3247309">
  <ele>520.62</ele>
  <time>2026-09-01T20:00:42Z</time>
  <course>325.58</course>
  <speed>19.09961517936945</speed>
  <fix>3d</fix>
</trkpt>
<trkpt lat="-27.2601601" lon="151.3247644">
  <ele>522.68</ele>
  <time>2026-09-01T20:00:42Z</time>
  <course>322.99</course>
  <speed>17.55</speed>
  <fix>3d</fix>
</trkpt>
<trkpt lat="-27.2601054" lon="151.3247199">
  <ele>520.22</ele>
  <time>2026-09-01T20:00:42Z</time>
  <course>325.69</course>
  <speed>19.220450046760092</speed>
  <fix>3d</fix>
</trkpt>
<trkpt lat="-27.2601338" lon="151.3247424">
  <ele>521.22</ele>
  <time>2026-09-01T20:00:42Z</time>
  <course>324.08</course>
  <speed>18.7</speed>
  <fix>3d</fix>
</trkpt>
<trkpt lat="-27.260091" lon="151.3247092">
  <ele>519.91</ele>
  <time>2026-09-01T20:00:42Z</time>
  <course>325.69</course>
  <speed>19.21553538156041</speed>
  <fix>3d</fix>
</trkpt>
<trkpt lat="-27.2601338" lon="151.3247424">
  <ele>521.22</ele>
  <time>2026-09-01T20:00:42Z</time>
  <course>324.08</course>
  <speed>18.7</speed>
  <fix>3d</fix>
</trkpt>
<trkpt lat="-27.2600766" lon="151.3246987">
  <ele>519.69</ele>
  <time>2026-09-01T20:00:42Z</time>
  <course>325.73</course>
  <speed>19.144672888299763</speed>
  <fix>3d</fix>
</trkpt>
<trkpt lat="-27.2601059" lon="151.3247205">
  <ele>520.29</ele>
  <time>2026-09-01T20:00:42Z</time>
  <course>325.92</course>
  <speed>19.15</speed>
  <fix>3d</fix>
</trkpt>
<trkpt lat="-27.2600622" lon="151.3246882">
  <ele>519.49</ele>
  <time>2026-09-01T20:00:42Z</time>
  <course>325.9</course>
  <speed>19.028662590944222</speed>
  <fix>3d</fix>
</trkpt>
<trkpt lat="-27.2601059" lon="151.3247205">
  <ele>520.29</ele>
  <time>2026-09-01T20:00:42Z</time>
  <course>325.92</course>
  <speed>19.15</speed>
  <fix>3d</fix>
</trkpt>
<trkpt lat="-27.2600478" lon="151.3246778">
  <ele>519.32</ele>
  <time>2026-09-01T20:00:42Z</time>
  <course>326.2</course>
  <speed>18.906136569907666</speed>
  <fix>3d</fix>
</trkpt>
<trkpt lat="-27.2600772" lon="151.3246992">
  <ele>519.71</ele>
  <time>2026-09-01T20:00:42Z</time>
  <course>326.98</course>
  <speed>19.13</speed>
  <fix>3d</fix>
</trkpt>
<trkpt lat="-27.2600336" lon="151.3246675">
  <ele>519.14</ele>
  <time>2026-09-01T20:00:42Z</time>
  <course>326.57</course>
  <speed>18.780718836082926</speed>
  <fix>3d</fix>
</trkpt>
<trkpt lat="-27.2600772" lon="151.3246992">
  <ele>519.71</ele>
  <time>2026-09-01T20:00:42Z</time>
  <course>326.98</course>
  <speed>19.13</speed>
  <fix>3d</fix>
</trkpt>
<trkpt lat="-27.2600196" lon="151.3246572">
  <ele>518.98</ele>
  <time>2026-09-01T20:00:42Z</time>
  <course>326.92</course>
  <speed>18.64703997957853</speed>
  <fix>3d</fix>
</trkpt>
<trkpt lat="-27.2600484" lon="151.3246782">
  <ele>519.32</ele>
  <time>2026-09-01T20:00:42Z</time>
  <course>327.1</course>
  <speed>18.91</speed>
  <fix>3d</fix>
</trkpt>
<trkpt lat="-27.2600056" lon="151.3246469">
  <ele>518.81</ele>
  <time>2026-09-01T20:00:42Z</time>
  <course>327.17</course>
  <speed>18.51637113475532</speed>
  <fix>3d</fix>
</trkpt>
<trkpt lat="-27.2600484" lon="151.3246782">
  <ele>519.32</ele>
  <time>2026-09-01T20:00:42Z</time>
  <course>327.1</course>
  <speed>18.91</speed>
  <fix>3d</fix>
</trkpt>
<trkpt lat="-27.2599917" lon="151.3246366">
  <ele>518.65</ele>
  <time>2026-09-01T20:00:42Z</time>
  <course>327.32</course>
  <speed>18.38862963899159</speed>
  <fix>3d</fix>
</trkpt>
<trkpt lat="-27.2600201" lon="151.3246575">
  <ele>518.98</ele>
  <time>2026-09-01T20:00:42Z</time>
  <course>326.85</course>
  <speed>18.65</speed>
  <fix>3d</fix>
</trkpt>
<trkpt lat="-27.259978" lon="151.3246264">
  <ele>518.49</ele>
  <time>2026-09-01T20:00:42Z</time>
  <course>327.34</course>
  <speed>18.26661435515624</speed>
  <fix>3d</fix>
</trkpt>
<trkpt lat="-27.2600201" lon="151.3246575">
  <ele>518.98</ele>
  <time>2026-09-01T20:00:42Z</time>
  <course>326.85</course>
  <speed>18.65</speed>
  <fix>3d</fix>
</trkpt>
<trkpt lat="-27.2599643" lon="151.3246163">
  <ele>518.33</ele>
  <time>2026-09-01T20:00:42Z</time>
  <course>327.26</course>
  <speed>18.141978943874893</speed>
  <fix>3d</fix>
</trkpt>
<trkpt lat="-27.2599923" lon="151.324637">
  <ele>518.66</ele>
  <time>2026-09-01T20:00:42Z</time>
  <course>326.68</course>
  <speed>18.4</speed>
  <fix>3d</fix>
</trkpt>
<trkpt lat="-27.2599507" lon="151.3246063">
  <ele>518.16</ele>
  <time>2026-09-01T20:00:42Z</time>
  <course>327.13</course>
  <speed>18.028657742605244</speed>
  <fix>3d</fix>
</trkpt>
<trkpt lat="-27.2599923" lon="151.324637">
  <ele>518.66</ele>
  <time>2026-09-01T20:00:42Z</time>
  <course>326.68</course>
  <speed>18.4</speed>
  <fix>3d</fix>
</trkpt>
<trkpt lat="-27.2599372" lon="151.3245964">
  <ele>518.01</ele>
  <time>2026-09-01T20:00:42Z</time>
  <course>326.99</course>
  <speed>17.907062852405474</speed>
  <fix>3d</fix>
</trkpt>
<trkpt lat="-27.2599648" lon="151.3246167">
  <ele>518.33</ele>
  <time>2026-09-01T20:00:42Z</time>
  <course>326.75</course>
  <speed>18.15</speed>
  <fix>3d</fix>
</trkpt>
<trkpt lat="-27.2599237" lon="151.3245866">
  <ele>517.85</ele>
  <time>2026-09-01T20:00:42Z</time>
  <course>326.9</course>
  <speed>17.793959649274246</speed>
  <fix>3d</fix>
</trkpt>
<trkpt lat="-27.2599648" lon="151.3246167">
  <ele>518.33</ele>
  <time>2026-09-01T20:00:42Z</time>
  <course>326.75</course>
  <speed>18.15</speed>
  <fix>3d</fix>
</trkpt>
<trkpt lat="-27.2599104" lon="151.3245768">
  <ele>517.69</ele>
  <time>2026-09-01T20:00:42Z</time>
  <course>326.87</course>
  <speed>17.677966512017157</speed>
  <fix>3d</fix>
</trkpt>
<trkpt lat="-27.2599377" lon="151.3245968">
  <ele>518.01</ele>
  <time>2026-09-01T20:00:42Z</time>
  <course>327.0</course>
  <speed>17.92</speed>
  <fix>3d</fix>
</trkpt>
<trkpt lat="-27.2581594" lon="151.3286439">
  <ele>540.84</ele>
  <time>2026-09-01T20:00:42Z</time>
  <course>250.27</course>
  <speed>12.063249976685388</speed>
  <fix>3d</fix>
</trkpt>
<trkpt lat="-27.2599377" lon="151.3245968">
  <ele>518.01</ele>
  <time>2026-09-01T20:00:42Z</time>
  <course>327.0</course>
  <speed>17.92</speed>
  <fix>3d</fix>
</trkpt>
<trkpt lat="-27.258162" lon="151.3286325">
  <ele>537.0</ele>
  <time>2026-09-01T20:00:42Z</time>
  <course>245.09</course>
  <speed>11.645106268300003</speed>
  <fix>3d</fix>
</trkpt>
<trkpt lat="-27.2590417" lon="151.3266156">
  <ele>529.41</ele>
  <time>2026-09-01T20:00:42Z</time>
  <course>298.64</course>
  <speed>12.15</speed>
  <fix>3d</fix>
</trkpt>
<trkpt lat="-27.2581657" lon="151.3286207">
  <ele>533.16</ele>
  <time>2026-09-01T20:00:42Z</time>
  <course>229.37</course>
  <speed>12.920112228614734</speed>
  <fix>3d</fix>
</trkpt>
<trkpt lat="-27.2590417" lon="151.3266156">
  <ele>529.41</ele>
  <time>2026-09-01T20:00:42Z</time>
  <course>298.64</course>
  <speed>12.15</speed>
  <fix>3d</fix>
</trkpt>
<trkpt lat="-27.2581729" lon="151.3286096">
  <ele>529.41</ele>
  <time>2026-09-01T20:00:42Z</time>
  <course>209.03</course>
  <speed>14.356050989042913</speed>
  <fix>3d</fix>
</trkpt>
<trkpt lat="-27.2581624" lon="151.3286327">
  <ele>537.13</ele>
  <time>2026-09-01T20:00:42Z</time>
  <course>249.08</course>
  <speed>12.45</speed>
  <fix>3d</fix>
</trkpt>
<trkpt lat="-27.2581837" lon="151.3286013">
  <ele>525.71</ele>
  <time>2026-09-01T20:00:42Z</time>
  <course>190.88</course>
  <speed>14.923518351916883</speed>
  <fix>3d</fix>
</trkpt>
<trkpt lat="-27.2581624" lon="151.3286327">
  <ele>537.13</ele>
  <time>2026-09-01T20:00:42Z</time>
  <course>249.08</course>
  <speed>12.45</speed>
  <fix>3d</fix>
</trkpt>
<trkpt lat="-27.2581962" lon="151.328596">
  <ele>522.04</ele>
  <time>2026-09-01T20:00:42Z</time>
  <course>181.22</course>
  <speed>14.820543174931208</speed>
  <fix>3d</fix>
</trkpt>
<trkpt lat="-27.2581744" lon="151.3286113">
  <ele>529.57</ele>
  <time>2026-09-01T20:00:42Z</time>
  <course>224.25</course>
  <speed>13.18</speed>
  <fix>3d</fix>
</trkpt>
<trkpt lat="-27.2582094" lon="151.32859">
  <ele>518.39</ele>
  <time>2026-09-01T20:00:42Z</time>
  <course>200.13</course>
  <speed>17.822553127989266</speed>
  <fix>3d</fix>
</trkpt>
<trkpt lat="-27.2581744" lon="151.3286113">
  <ele>529.57</ele>
  <time>2026-09-01T20:00:42Z</time>
  <course>224.25</course>
  <speed>13.18</speed>
  <fix>3d</fix>
</trkpt>
<trkpt lat="-27.2582247" lon="151.328577">
  <ele>515.14</ele>
  <time>2026-09-01T20:00:42Z</time>
  <course>213.2</course>
  <speed>25.290751273934116</speed>
  <fix>3d</fix>
</trkpt>
<trkpt lat="-27.258196" lon="151.328596">
  <ele>522.18</ele>
  <time>2026-09-01T20:00:42Z</time>
  <course>208.1</course>
  <speed>16.24</speed>
  <fix>3d</fix>
</trkpt>
<trkpt lat="-27.2582432" lon="151.3285568">
  <ele>512.64</ele>
  <time>2026-09-01T20:00:42Z</time>
  <course>221.05</course>
  <speed>31.63094212950351</speed>
  <fix>3d</fix>
</trkpt>
<trkpt lat="-27.258196" lon="151.328596">
  <ele>522.18</ele>
  <time>2026-09-01T20:00:42Z</time>
  <course>208.1</course>
  <speed>16.24</speed>
  <fix>3d</fix>
</trkpt>
<trkpt lat="-27.2582639" lon="151.3285323">
  <ele>511.05</ele>
  <time>2026-09-01T20:00:42Z</time>
  <course>225.6</course>
  <speed>34.90716975064006</speed>
  <fix>3d</fix>
</trkpt>
<trkpt lat="-27.2582256" lon="151.3285741">
  <ele>515.63</ele>
  <time>2026-09-01T20:00:42Z</time>
  <course>219.62</course>
  <speed>24.26</speed>
  <fix>3d</fix>
</trkpt>
<trkpt lat="-27.2582853" lon="151.3285058">
  <ele>510.5</ele>
  <time>2026-09-01T20:00:42Z</time>
  <course>227.61</course>
  <speed>35.12139234142063</speed>
  <fix>3d</fix>
</trkpt>
<trkpt lat="-27.2582256" lon="151.3285741">
  <ele>515.63</ele>
  <time>2026-09-01T20:00:42Z</time>
  <course>219.62</course>
  <speed>24.26</speed>
  <fix>3d</fix>
</trkpt>
<trkpt lat="-27.2583055" lon="151.3284804">
  <ele>511.02</ele>
  <time>2026-09-01T20:00:42Z</time>
  <course>227.81</course>
  <speed>31.88434882508972</speed>
  <fix>3d</fix>
</trkpt>
<trkpt lat="-27.2582635" lon="151.3285323">
  <ele>511.61</ele>
  <time>2026-09-01T20:00:42Z</time>
  <course>226.85</course>
  <speed>33.29</speed>
  <fix>3d</fix>
</trkpt>
<trkpt lat="-27.2583232" lon="151.3284587">
  <ele>512.41</ele>
  <time>2026-09-01T20:00:42Z</time>
  <course>226.96</course>
  <speed>26.486315334527</speed>
  <fix>3d</fix>
</trkpt>
<trkpt lat="-27.2582635" lon="151.3285323">
  <ele>511.61</ele>
  <time>2026-09-01T20:00:42Z</time>
  <course>226.85</course>
  <speed>33.29</speed>
  <fix>3d</fix>
</trkpt>
<trkpt lat="-27.2583377" lon="151.3284414">
  <ele>514.39</ele>
  <time>2026-09-01T20:00:42Z</time>
  <course>225.81</course>
  <speed>20.39737237979441</speed>
  <fix>3d</fix>
</trkpt>
<trkpt lat="-27.2583036" lon="151.328483">
  <ele>511.42</ele>
  <time>2026-09-01T20:00:42Z</time>
  <course>227.67</course>
  <speed>30.93</speed>
  <fix>3d</fix>
</trkpt>
<trkpt lat="-27.2583486" lon="151.3284287">
  <ele>516.7</ele>
  <time>2026-09-01T20:00:42Z</time>
  <course>225.38</course>
  <speed>14.77967523323838</speed>
  <fix>3d</fix>
</trkpt>
<trkpt lat="-27.2583036" lon="151.328483">
  <ele>511.42</ele>
  <time>2026-09-01T20:00:42Z</time>
  <course>227.67</course>
  <speed>30.93</speed>
  <fix>3d</fix>
</trkpt>
<trkpt lat="-27.2583564" lon="151.3284198">
  <ele>519.14</ele>
  <time>2026-09-01T20:00:42Z</time>
  <course>226.19</course>
  <speed>10.127704577050023</speed>
  <fix>3d</fix>
</trkpt>
<trkpt lat="-27.2583355" lon="151.3284441">
  <ele>514.48</ele>
  <time>2026-09-01T20:00:42Z</time>
  <course>226.68</course>
  <speed>20.82</speed>
  <fix>3d</fix>
</trkpt>
<trkpt lat="-27.2583612" lon="151.3284138">
  <ele>521.61</ele>
  <time>2026-09-01T20:00:42Z</time>
  <course>230.62</course>
  <speed>5.87962583843564</speed>
  <fix>3d</fix>
</trkpt>
<trkpt lat="-27.2583355" lon="151.3284441">
  <ele>514.48</ele>
  <time>2026-09-01T20:00:42Z</time>
  <course>226.68</course>
  <speed>20.82</speed>
  <fix>3d</fix>
</trkpt>
<trkpt lat="-27.2583635" lon="151.3284108">
  <ele>524.01</ele>
  <time>2026-09-01T20:00:42Z</time>
  <course>270.48</course>
  <speed>2.2398660674245683</speed>
  <fix>3d</fix>
</trkpt>
<trkpt lat="-27.2583547" lon="151.3284216">
  <ele>519.07</ele>
  <time>2026-09-01T20:00:42Z</time>
  <course>226.44</course>
  <speed>10.48</speed>
  <fix>3d</fix>
</trkpt>
<trkpt lat="-27.2583635" lon="151.32841">
  <ele>526.31</ele>
  <time>2026-09-01T20:00:42Z</time>
  <course>44.13</course>
  <speed>1.3423859355639869</speed>
  <fix>3d</fix>
</trkpt>
<trkpt lat="-27.2583547" lon="151.3284216">
  <ele>519.07</ele>
  <time>2026-09-01T20:00:42Z</time>
  <course>226.44</course>
  <speed>10.48</speed>
  <fix>3d</fix>
</trkpt>
<trkpt lat="-27.2583618" lon="151.3284128">
  <ele>528.41</ele>
  <time>2026-09-01T20:00:42Z</time>
  <course>63.46</course>
  <speed>5.214518194426019</speed>
  <fix>3d</fix>
</trkpt>
<trkpt lat="-27.2583623" lon="151.328412">
  <ele>523.88</ele>
  <time>2026-09-01T20:00:42Z</time>
  <course>232.64</course>
  <speed>2.43</speed>
  <fix>3d</fix>
</trkpt>
<trkpt lat="-27.2583599" lon="151.3284191">
  <ele>530.29</ele>
  <time>2026-09-01T20:00:42Z</time>
  <course>78.23</course>
  <speed>7.9657077526105615</speed>
  <fix>3d</fix>
</trkpt>
<trkpt lat="-27.2583623" lon="151.328412">
  <ele>523.88</ele>
  <time>2026-09-01T20:00:42Z</time>
  <course>232.64</course>
  <speed>2.43</speed>
  <fix>3d</fix>
</trkpt>
<trkpt lat="-27.258359" lon="151.3284278">
  <ele>531.94</ele>
  <time>2026-09-01T20:00:42Z</time>
  <course>89.55</course>
  <speed>9.310880731703097</speed>
  <fix>3d</fix>
</trkpt>
<trkpt lat="-27.2583617" lon="151.3284144">
  <ele>528.23</ele>
  <time>2026-09-01T20:00:42Z</time>
  <course>71.37</course>
  <speed>4.39</speed>
  <fix>3d</fix>
</trkpt>
<trkpt lat="-27.2583592" lon="151.3284376">
  <ele>533.4</ele>
  <time>2026-09-01T20:00:42Z</time>
  <course>100.34</course>
  <speed>9.910045408574069</speed>
  <fix>3d</fix>
</trkpt>
<trkpt lat="-27.2583617" lon="151.3284144">
  <ele>528.23</ele>
  <time>2026-09-01T20:00:42Z</time>
  <course>71.37</course>
  <speed>4.39</speed>
  <fix>3d</fix>
</trkpt>
<trkpt lat="-27.2583605" lon="151.3284476">
  <ele>534.71</ele>
  <time>2026-09-01T20:00:42Z</time>
  <course>110.9</course>
  <speed>10.136177780603497</speed>
  <fix>3d</fix>
</trkpt>
<trkpt lat="-27.2583595" lon="151.3284281">
  <ele>531.79</ele>
  <time>2026-09-01T20:00:42Z</time>
  <course>87.05</course>
  <speed>8.79</speed>
  <fix>3d</fix>
</trkpt>
<trkpt lat="-27.2583633" lon="151.3284574">
  <ele>535.89</ele>
  <time>2026-09-01T20:00:42Z</time>
  <course>120.36</course>
  <speed>10.075911869404178</speed>
  <fix>3d</fix>
</trkpt>
<trkpt lat="-27.2583595" lon="151.3284281">
  <ele>531.79</ele>
  <time>2026-09-01T20:00:42Z</time>
  <course>87.05</course>
  <speed>8.79</speed>
  <fix>3d</fix>
</trkpt>
<trkpt lat="-27.2583672" lon="151.3284664">
  <ele>536.95</ele>
  <time>2026-09-01T20:00:42Z</time>
  <course>126.56</course>
  <speed>9.790250252164139</speed>
  <fix>3d</fix>
</trkpt>
<trkpt lat="-27.2583611" lon="151.3284471">
  <ele>534.6</ele>
  <time>2026-09-01T20:00:42Z</time>
  <course>103.41</course>
  <speed>9.88</speed>
  <fix>3d</fix>
</trkpt>
<trkpt lat="-27.258372" lon="151.3284745">
  <ele>537.93</ele>
  <time>2026-09-01T20:00:42Z</time>
  <course>127.27</course>
  <speed>9.390899850387076</speed>
  <fix>3d</fix>
</trkpt>
<trkpt lat="-27.2583611" lon="151.3284471">
  <ele>534.6</ele>
  <time>2026-09-01T20:00:42Z</time>
  <course>103.41</course>
  <speed>9.88</speed>
  <fix>3d</fix>
</trkpt>
<trkpt lat="-27.258377" lon="151.3284818">
  <ele>538.83</ele>
  <time>2026-09-01T20:00:42Z</time>
  <course>123.5</course>
  <speed>9.042698712220817</speed>
  <fix>3d</fix>
</trkpt>
<trkpt lat="-27.2583675" lon="151.3284656">
  <ele>536.87</ele>
  <time>2026-09-01T20:00:42Z</time>
  <course>118.58</course>
  <speed>9.67</speed>
  <fix>3d</fix>
</trkpt>
<trkpt lat="-27.2583821" lon="151.3284888">
  <ele>539.65</ele>
  <time>2026-09-01T20:00:42Z</time>
  <course>119.6</course>
  <speed>8.864050992633109</speed>
  <fix>3d</fix>
</trkpt>
<trkpt lat="-27.2583675" lon="151.3284656">
  <ele>536.87</ele>
  <time>2026-09-01T20:00:42Z</time>
  <course>118.58</course>
  <speed>9.67</speed>
  <fix>3d</fix>
</trkpt>
<trkpt lat="-27.2583872" lon="151.3284957">
  <ele>540.37</ele>
  <time>2026-09-01T20:00:42Z</time>
  <course>117.78</course>
  <speed>8.835094792926673</speed>
  <fix>3d</fix>
</trkpt>
<trkpt lat="-27.2583769" lon="151.3284813">
  <ele>538.76</ele>
  <time>2026-09-01T20:00:42Z</time>
  <course>127.71</course>
  <speed>9.13</speed>
  <fix>3d</fix>
</trkpt>
<trkpt lat="-27.2583922" lon="151.3285027">
  <ele>540.97</ele>
  <time>2026-09-01T20:00:42Z</time>
  <course>118.21</course>
  <speed>8.85661899372441</speed>
  <fix>3d</fix>
</trkpt>
<trkpt lat="-27.2583769" lon="151.3284813">
  <ele>538.76</ele>
  <time>2026-09-01T20:00:42Z</time>
  <course>127.71</course>
  <speed>9.13</speed>
  <fix>3d</fix>
</trkpt>
<trkpt lat="-27.2583972" lon="151.3285096">
  <ele>541.46</ele>
  <time>2026-09-01T20:00:42Z</time>
  <course>120.5</course>
  <speed>8.8878625101877</speed>
  <fix>3d</fix>
</trkpt>
<trkpt lat="-27.258387" lon="151.3284954">
  <ele>540.28</ele>
  <time>2026-09-01T20:00:42Z</time>
  <course>129.17</course>
  <speed>8.86</speed>
  <fix>3d</fix>
</trkpt>
<trkpt lat="-27.2584021" lon="151.3285167">
  <ele>541.83</ele>
  <time>2026-09-01T20:00:42Z</time>
  <course>124.3</course>
  <speed>8.900342690031659</speed>
  <fix>3d</fix>
</trkpt>
<trkpt lat="-27.258387" lon="151.3284954">
  <ele>540.28</ele>
  <time>2026-09-01T20:00:42Z</time>
  <course>129.17</course>
  <speed>8.86</speed>
  <fix>3d</fix>
</trkpt>
<trkpt lat="-27.2584072" lon="151.3285237">
  <ele>542.08</ele>
  <time>2026-09-01T20:00:42Z</time>
  <course>129.3</course>
  <speed>8.886506625215558</speed>
  <fix>3d</fix>
</trkpt>
<trkpt lat="-27.258397" lon="151.3285094">
  <ele>541.38</ele>
  <time>2026-09-01T20:00:42Z</time>
  <course>128.7</course>
  <speed>8.88</speed>
  <fix>3d</fix>
</trkpt>
<trkpt lat="-27.2584123" lon="151.3285306">
  <ele>542.22</ele>
  <time>2026-09-01T20:00:42Z</time>
  <course>135.03</course>
  <speed>8.867835136040814</speed>
  <fix>3d</fix>
</trkpt>
<trkpt lat="-27.258397" lon="151.3285094">
  <ele>541.38</ele>
  <time>2026-09-01T20:00:42Z</time>
  <course>128.7</course>
  <speed>8.88</speed>
  <fix>3d</fix>
</trkpt>
<trkpt lat="-27.2584174" lon="151.3285374">
  <ele>542.24</ele>
  <time>2026-09-01T20:00:42Z</time>
  <course>140.36</course>
  <speed>8.818389875708604</speed>
  <fix>3d</fix>
</trkpt>
<trkpt lat="-27.258407" lon="151.3285235">
  <ele>542.02</ele>
  <time>2026-09-01T20:00:42Z</time>
  <course>129.22</course>
  <speed>8.88</speed>
  <fix>3d</fix>
</trkpt>
<trkpt lat="-27.2584226" lon="151.3285441">
  <ele>542.15</ele>
  <time>2026-09-01T20:00:42Z</time>
  <course>143.94</course>
  <speed>8.750828532201965</speed>
  <fix>3d</fix>
</trkpt>
<trkpt lat="-27.258407" lon="151.3285235">
  <ele>542.02</ele>
  <time>2026-09-01T20:00:42Z</time>
  <course>129.22</course>
  <speed>8.88</speed>
  <fix>3d</fix>
</trkpt>
<trkpt lat="-27.2584279" lon="151.3285507">
  <ele>541.95</ele>
  <time>2026-09-01T20:00:42Z</time>
  <course>145.21</course>
  <speed>8.697246690763691</speed>
  <fix>3d</fix>
</trkpt>
<trkpt lat="-27.2584173" lon="151.3285372">
  <ele>542.18</ele>
  <time>2026-09-01T20:00:42Z</time>
  <course>130.92</course>
  <speed>8.81</speed>
  <fix>3d</fix>
</trkpt>
<trkpt lat="-27.2584332" lon="151.328557">
  <ele>541.66</ele>
  <time>2026-09-01T20:00:42Z</time>
  <course>144.59</course>
  <speed>8.693629851793784</speed>
  <fix>3d</fix>
</trkpt>
<trkpt lat="-27.2584173" lon="151.3285372">
  <ele>542.18</ele>
  <time>2026-09-01T20:00:42Z</time>
  <course>130.92</course>
  <speed>8.81</speed>
  <fix>3d</fix>
</trkpt>
<trkpt lat="-27.2584384" lon="151.3285637">
  <ele>541.31</ele>
  <time>2026-09-01T20:00:42Z</time>
  <course>142.95</course>
  <speed>8.78362681356625</speed>
  <fix>3d</fix>
</trkpt>
<trkpt lat="-27.2584278" lon="151.3285503">
  <ele>541.91</ele>
  <time>2026-09-01T20:00:42Z</time>
  <course>132.17</course>
  <speed>8.73</speed>
  <fix>3d</fix>
</trkpt>
<trkpt lat="-27.2584436" lon="151.3285706">
  <ele>540.91</ele>
  <time>2026-09-01T20:00:42Z</time>
  <course>141.06</course>
  <speed>8.968054415535178</speed>
  <fix>3d</fix>
</trkpt>
<trkpt lat="-27.2584278" lon="151.3285503">
  <ele>541.91</ele>
  <time>2026-09-01T20:00:42Z</time>
  <course>132.17</course>
  <speed>8.73</speed>
  <fix>3d</fix>
</trkpt>
<trkpt lat="-27.2584487" lon="151.3285778">
  <ele>540.53</ele>
  <time>2026-09-01T20:00:42Z</time>
  <course>139.18</course>
  <speed>9.212871430775532</speed>
  <fix>3d</fix>
</trkpt>
<trkpt lat="-27.2584382" lon="151.3285636">
  <ele>541.3</ele>
  <time>2026-09-01T20:00:42Z</time>
  <course>130.78</course>
  <speed>8.82</speed>
  <fix>3d</fix>
</trkpt>
<trkpt lat="-27.2584539" lon="151.3285852">
  <ele>540.13</ele>
  <time>2026-09-01T20:00:42Z</time>
  <course>137.14</course>
  <speed>9.470649396952671</speed>
  <fix>3d</fix>
</trkpt>
<trkpt lat="-27.2584382" lon="151.3285636">
  <ele>541.3</ele>
  <time>2026-09-01T20:00:42Z</time>
  <course>130.78</course>
  <speed>8.82</speed>
  <fix>3d</fix>
</trkpt>
<trkpt lat="-27.2584592" lon="151.3285928">
  <ele>539.74</ele>
  <time>2026-09-01T20:00:42Z</time>
  <course>134.78</course>
  <speed>9.707816438314024</speed>
  <fix>3d</fix>
</trkpt>
<trkpt lat="-27.2584485" lon="151.3285776">
  <ele>540.54</ele>
  <time>2026-09-01T20:00:42Z</time>
  <course>128.76</course>
  <speed>9.21</speed>
  <fix>3d</fix>
</trkpt>
<trkpt lat="-27.2584648" lon="151.3286004">
  <ele>539.33</ele>
  <time>2026-09-01T20:00:42Z</time>
  <course>132.25</course>
  <speed>9.906225315426658</speed>
  <fix>3d</fix>
</trkpt>
<trkpt lat="-27.2584485" lon="151.3285776">
  <ele>540.54</ele>
  <time>2026-09-01T20:00:42Z</time>
  <course>128.76</course>
  <speed>9.21</speed>
  <fix>3d</fix>
</trkpt>
<trkpt lat="-27.2584706" lon="151.3286082">
  <ele>538.89</ele>
  <time>2026-09-01T20:00:42Z</time>
  <course>129.93</course>
  <speed>10.085097917224205</speed>
  <fix>3d</fix>
</trkpt>
<trkpt lat="-27.2584591" lon="151.3285925">
  <ele>539.74</ele>
  <time>2026-09-01T20:00:42Z</time>
  <course>128.98</course>
  <speed>9.68</speed>
  <fix>3d</fix>
</trkpt>
<trkpt lat="-27.2584766" lon="151.3286159">
  <ele>538.41</ele>
  <time>2026-09-01T20:00:42Z</time>
  <course>128.19</course>
  <speed>10.275495121890721</speed>
  <fix>3d</fix>
</trkpt>
<trkpt lat="-27.2584591" lon="151.3285925">
  <ele>539.74</ele>
  <time>2026-09-01T20:00:42Z</time>
  <course>128.98</course>
  <speed>9.68</speed>
  <fix>3d</fix>
</trkpt>
<trkpt lat="-27.2584828" lon="151.3286238">
  <ele>537.91</ele>
  <time>2026-09-01T20:00:42Z</time>
  <course>127.15</course>
  <speed>10.497780717846988</speed>
  <fix>3d</fix>
</trkpt>
<trkpt lat="-27.2584705" lon="151.3286079">
  <ele>538.89</ele>
  <time>2026-09-01T20:00:42Z</time>
  <course>130.46</course>
  <speed>10.09</speed>
  <fix>3d</fix>
</trkpt>
<trkpt lat="-27.2584891" lon="151.3286317">
  <ele>537.4</ele>
  <time>2026-09-01T20:00:42Z</time>
  <course>126.73</course>
  <speed>10.766847263707236</speed>
  <fix>3d</fix>
</trkpt>
<trkpt lat="-27.2584705" lon="151.3286079">
  <ele>538.89</ele>
  <time>2026-09-01T20:00:42Z</time>
  <course>130.46</course>
  <speed>10.09</speed>
  <fix>3d</fix>
</trkpt>
<trkpt lat="-27.2584956" lon="151.3286401">
  <ele>536.87</ele>
  <time>2026-09-01T20:00:42Z</time>
  <course>126.8</course>
  <speed>11.068531971313991</speed>
  <fix>3d</fix>
</trkpt>
<trkpt lat="-27.2584826" lon="151.3286236">
  <ele>537.93</ele>
  <time>2026-09-01T20:00:42Z</time>
  <course>131.42</course>
  <speed>10.51</speed>
  <fix>3d</fix>
</trkpt>
<trkpt lat="-27.2585022" lon="151.3286487">
  <ele>536.34</ele>
  <time>2026-09-01T20:00:42Z</time>
  <course>127.22</course>
  <speed>11.384537759610621</speed>
  <fix>3d</fix>
</trkpt>
<trkpt lat="-27.2584826" lon="151.3286236">
  <ele>537.93</ele>
  <time>2026-09-01T20:00:42Z</time>
  <course>131.42</course>
  <speed>10.51</speed>
  <fix>3d</fix>
</trkpt>
<trkpt lat="-27.2585089" lon="151.3286575">
  <ele>535.81</ele>
  <time>2026-09-01T20:00:42Z</time>
  <course>127.85</course>
  <speed>11.684763583402106</speed>
  <fix>3d</fix>
</trkpt>
<trkpt lat="-27.2584954" lon="151.32864">
  <ele>536.89</ele>
  <time>2026-09-01T20:00:42Z</time>
  <course>131.06</course>
  <speed>11.07</speed>
  <fix>3d</fix>
</trkpt>
<trkpt lat="-27.2585156" lon="151.3286669">
  <ele>535.29</ele>
  <time>2026-09-01T20:00:42Z</time>
  <course>128.48</course>
  <speed>11.989466209969482</speed>
  <fix>3d</fix>
</trkpt>
<trkpt lat="-27.2584954" lon="151.32864">
  <ele>536.89</ele>
  <time>2026-09-01T20:00:42Z</time>
  <course>131.06</course>
  <speed>11.07</speed>
  <fix>3d</fix>
</trkpt>
<trkpt lat="-27.2585223" lon="151.3286766">
  <ele>534.77</ele>
  <time>2026-09-01T20:00:42Z</time>
  <course>128.98</course>
  <speed>12.273565089247704</speed>
  <fix>3d</fix>
</trkpt>
<trkpt lat="-27.2585087" lon="151.3286575">
  <ele>535.82</ele>
  <time>2026-09-01T20:00:42Z</time>
  <course>129.54</course>
  <speed>11.68</speed>
  <fix>3d</fix>
</trkpt>
<trkpt lat="-27.2585291" lon="151.3286865">
  <ele>534.27</ele>
  <time>2026-09-01T20:00:42Z</time>
  <course>129.25</course>
  <speed>12.558351802684935</speed>
  <fix>3d</fix>
</trkpt>
<trkpt lat="-27.2585087" lon="151.3286575">
  <ele>535.82</ele>
  <time>2026-09-01T20:00:42Z</time>
  <course>129.54</course>
  <speed>11.68</speed>
  <fix>3d</fix>
</trkpt>
<trkpt lat="-27.258536" lon="151.3286967">
  <ele>533.79</ele>
  <time>2026-09-01T20:00:42Z</time>
  <course>129.29</course>
  <speed>12.830062353706627</speed>
  <fix>3d</fix>
</trkpt>
<trkpt lat="-27.2585222" lon="151.3286764">
  <ele>534.79</ele>
  <time>2026-09-01T20:00:42Z</time>
  <course>127.94</course>
  <speed>12.26</speed>
  <fix>3d</fix>
</trkpt>
<trkpt lat="-27.2585433" lon="151.3287075">
  <ele>533.31</ele>
  <time>2026-09-01T20:00:42Z</time>
  <course>129.14</course>
  <speed>13.092119767249306</speed>
  <fix>3d</fix>
</trkpt>
<trkpt lat="-27.2585359" lon="151.3286966">
  <ele>533.8</ele>
  <time>2026-09-01T20:00:42Z</time>
  <course>127.2</course>
  <speed>12.82</speed>
  <fix>3d</fix>
</trkpt>
<trkpt lat="-27.2585505" lon="151.3287182">
  <ele>532.87</ele>
  <time>2026-09-01T20:00:42Z</time>
  <course>128.87</course>
  <speed>13.324653841657575</speed>
  <fix>3d</fix>
</trkpt>
<trkpt lat="-27.2585359" lon="151.3286966">
  <ele>533.8</ele>
  <time>2026-09-01T20:00:42Z</time>
  <course>127.2</course>
  <speed>12.82</speed>
  <fix>3d</fix>
</trkpt>
<trkpt lat="-27.2585578" lon="151.3287288">
  <ele>532.46</ele>
  <time>2026-09-01T20:00:42Z</time>
  <course>128.57</course>
  <speed>13.525989797423328</speed>
  <fix>3d</fix>
</trkpt>
<trkpt lat="-27.2585501" lon="151.3287176">
  <ele>532.91</ele>
  <time>2026-09-01T20:00:42Z</time>
  <course>127.48</course>
  <speed>13.3</speed>
  <fix>3d</fix>
</trkpt>
<trkpt lat="-27.2585654" lon="151.3287397">
  <ele>532.09</ele>
  <time>2026-09-01T20:00:43Z</time>
  <course>128.29</course>
  <speed>13.698269963758198</speed>
  <fix>3d</fix>
</trkpt>
<trkpt lat="-27.2585501" lon="151.3287176">
  <ele>532.91</ele>
  <time>2026-09-01T20:00:43Z</time>
  <course>127.48</course>
  <speed>13.3</speed>
  <fix>3d</fix>
</trkpt>
<trkpt lat="-27.2585731" lon="151.3287506">
  <ele>531.74</ele>
  <time>2026-09-01T20:00:43Z</time>
  <course>128.07</course>
  <speed>13.83699750668475</speed>
  <fix>3d</fix>
</trkpt>
<trkpt lat="-27.258565" lon="151.3287391">
  <ele>532.12</ele>
  <time>2026-09-01T20:00:43Z</time>
  <course>128.25</course>
  <speed>13.67</speed>
  <fix>3d</fix>
</trkpt>
<trkpt lat="-27.2585809" lon="151.3287616">
  <ele>531.43</ele>
  <time>2026-09-01T20:00:43Z</time>
  <course>127.92</course>
  <speed>13.944895123305876</speed>
  <fix>3d</fix>
</trkpt>
<trkpt lat="-27.258565" lon="151.3287391">
  <ele>532.12</ele>
  <time>2026-09-01T20:00:43Z</time>
  <course>128.25</course>
  <speed>13.67</speed>
  <fix>3d</fix>
</trkpt>
<trkpt lat="-27.2585886" lon="151.3287723">
  <ele>531.14</ele>
  <time>2026-09-01T20:00:43Z</time>
  <course>127.86</course>
  <speed>14.021497780194524</speed>
  <fix>3d</fix>
</trkpt>
<trkpt lat="-27.258565" lon="151.3287391">
  <ele>532.12</ele>
  <time>2026-09-01T20:00:43Z</time>
  <course>128.25</course>
  <speed>13.67</speed>
  <fix>3d</fix>
</trkpt>
<trkpt lat="-27.2585965" lon="151.3287833">
  <ele>530.87</ele>
  <time>2026-09-01T20:00:43Z</time>
  <course>127.92</course>
  <speed>14.072956334757812</speed>
  <fix>3d</fix>
</trkpt>
<trkpt lat="-27.2585804" lon="151.3287609">
  <ele>531.45</ele>
  <time>2026-09-01T20:00:43Z</time>
  <course>128.82</course>
  <speed>13.93</speed>
  <fix>3d</fix>
</trkpt>
<trkpt lat="-27.2586044" lon="151.3287944">
  <ele>530.61</ele>
  <time>2026-09-01T20:00:43Z</time>
  <course>128.08</course>
  <speed>14.107179023461779</speed>
  <fix>3d</fix>
</trkpt>
<trkpt lat="-27.2585804" lon="151.3287609">
  <ele>531.45</ele>
  <time>2026-09-01T20:00:43Z</time>
  <course>128.82</course>
  <speed>13.93</speed>
  <fix>3d</fix>
</trkpt>
<trkpt lat="-27.2586124" lon="151.3288055">
  <ele>530.36</ele>
  <time>2026-09-01T20:00:43Z</time>
  <course>128.3</course>
  <speed>14.133775150326965</speed>
  <fix>3d</fix>
</trkpt>
<trkpt lat="-27.2585962" lon="151.3287829">
  <ele>530.88</ele>
  <time>2026-09-01T20:00:43Z</time>
  <course>128.85</course>
  <speed>14.06</speed>
  <fix>3d</fix>
</trkpt>
<trkpt lat="-27.2586203" lon="151.3288168">
  <ele>530.11</ele>
  <time>2026-09-01T20:00:43Z</time>
  <course>128.52</course>
  <speed>14.154327960026926</speed>
  <fix>3d</fix>
</trkpt>
<trkpt lat="-27.2585962" lon="151.3287829">
  <ele>530.88</ele>
  <time>2026-09-01T20:00:43Z</time>
  <course>128.85</course>
  <speed>14.06</speed>
  <fix>3d</fix>
</trkpt>
<trkpt lat="-27.2586282" lon="151.3288279">
  <ele>529.87</ele>
  <time>2026-09-01T20:00:43Z</time>
  <course>128.68</course>
  <speed>14.173390561188949</speed>
  <fix>3d</fix>
</trkpt>
<trkpt lat="-27.2586121" lon="151.3288052">
  <ele>530.37</ele>
  <time>2026-09-01T20:00:43Z</time>
  <course>128.51</course>
  <speed>14.13</speed>
  <fix>3d</fix>
</trkpt>
<trkpt lat="-27.258636" lon="151.3288393">
  <ele>529.64</ele>
  <time>2026-09-01T20:00:43Z</time>
  <course>128.75</course>
  <speed>14.189129642088693</speed>
  <fix>3d</fix>
</trkpt>
<trkpt lat="-27.2586121" lon="151.3288052">
  <ele>530.37</ele>
  <time>2026-09-01T20:00:43Z</time>
  <course>128.51</course>
  <speed>14.13</speed>
  <fix>3d</fix>
</trkpt>
<trkpt lat="-27.2568234" lon="151.3328508">
  <ele>541.38</ele>
  <time>2026-09-01T20:00:43Z</time>
  <course>251.45</course>
  <speed>12.260848257767487</speed>
  <fix>3d</fix>
</trkpt>
<trkpt lat="-27.2586279" lon="151.3288276">
  <ele>529.88</ele>
  <time>2026-09-01T20:00:43Z</time>
  <course>128.18</course>
  <speed>14.18</speed>
  <fix>3d</fix>
</trkpt>
<trkpt lat="-27.2568254" lon="151.3328398">
  <ele>537.52</ele>
  <time>2026-09-01T20:00:43Z</time>
  <course>252.55</course>
  <speed>10.312448787751627</speed>
  <fix>3d</fix>
</trkpt>
<trkpt lat="-27.2586279" lon="151.3288276">
  <ele>529.88</ele>
  <time>2026-09-01T20:00:43Z</time>
  <course>128.18</course>
  <speed>14.18</speed>
  <fix>3d</fix>
</trkpt>
<trkpt lat="-27.2568271" lon="151.3328296">
  <ele>533.65</ele>
  <time>2026-09-01T20:00:43Z</time>
  <course>234.75</course>
  <speed>10.887240238003384</speed>
  <fix>3d</fix>
</trkpt>
<trkpt lat="-27.2577306" lon="151.3308396">
  <ele>533.65</ele>
  <time>2026-09-01T20:00:43Z</time>
  <course>174.72</course>
  <speed>5.13</speed>
  <fix>3d</fix>
</trkpt>
<trkpt lat="-27.256832" lon="151.3328192">
  <ele>529.81</ele>
  <time>2026-09-01T20:00:43Z</time>
  <course>212.14</course>
  <speed>12.280557804920752</speed>
  <fix>3d</fix>
</trkpt>
<trkpt lat="-27.2577306" lon="151.3308396">
  <ele>533.65</ele>
  <time>2026-09-01T20:00:43Z</time>
  <course>174.72</course>
  <speed>5.13</speed>
  <fix>3d</fix>
</trkpt>
<trkpt lat="-27.256841" lon="151.3328114">
  <ele>526.04</ele>
  <time>2026-09-01T20:00:43Z</time>
  <course>191.83</course>
  <speed>13.186235247408565</speed>
  <fix>3d</fix>
</trkpt>
<trkpt lat="-27.2568286" lon="151.3328299">
  <ele>533.78</ele>
  <time>2026-09-01T20:00:43Z</time>
  <course>244.66</course>
  <speed>10.87</speed>
  <fix>3d</fix>
</trkpt>
<trkpt lat="-27.2568524" lon="151.3328071">
  <ele>522.29</ele>
  <time>2026-09-01T20:00:43Z</time>
  <course>173.9</course>
  <speed>13.436134116627445</speed>
  <fix>3d</fix>
</trkpt>
<trkpt lat="-27.2568286" lon="151.3328299">
  <ele>533.78</ele>
  <time>2026-09-01T20:00:43Z</time>
  <course>244.66</course>
  <speed>10.87</speed>
  <fix>3d</fix>
</trkpt>
<trkpt lat="-27.2568643" lon="151.3328052">
  <ele>518.58</ele>
  <time>2026-09-01T20:00:43Z</time>
  <course>172.74</course>
  <speed>13.821410926529895</speed>
  <fix>3d</fix>
</trkpt>
<trkpt lat="-27.2568419" lon="151.3328134">
  <ele>526.15</ele>
  <time>2026-09-01T20:00:43Z</time>
  <course>209.85</course>
  <speed>12.11</speed>
  <fix>3d</fix>
</trkpt>
<trkpt lat="-27.2568779" lon="151.3328001">
  <ele>514.99</ele>
  <time>2026-09-01T20:00:43Z</time>
  <course>195.41</course>
  <speed>19.373355414073217</speed>
  <fix>3d</fix>
</trkpt>
<trkpt lat="-27.2568419" lon="151.3328134">
  <ele>526.15</ele>
  <time>2026-09-01T20:00:43Z</time>
  <course>209.85</course>
  <speed>12.11</speed>
  <fix>3d</fix>
</trkpt>
<trkpt lat="-27.2568966" lon="151.3327875">
  <ele>511.83</ele>
  <time>2026-09-01T20:00:43Z</time>
  <course>206.57</course>
  <speed>27.54949364325958</speed>
  <fix>3d</fix>
</trkpt>
<trkpt lat="-27.2568648" lon="151.3328038">
  <ele>518.72</ele>
  <time>2026-09-01T20:00:43Z</time>
  <course>200.01</course>
  <speed>16.18</speed>
  <fix>3d</fix>
</trkpt>
<trkpt lat="-27.256919" lon="151.3327696">
  <ele>509.64</ele>
  <time>2026-09-01T20:00:43Z</time>
  <course>212.75</course>
  <speed>32.92294033041399</speed>
  <fix>3d</fix>
</trkpt>
<trkpt lat="-27.2568975" lon="151.3327856">
  <ele>512.4</ele>
  <time>2026-09-01T20:00:43Z</time>
  <course>212.36</course>
  <speed>25.85</speed>
  <fix>3d</fix>
</trkpt>
<trkpt lat="-27.2569437" lon="151.332749">
  <ele>508.35</ele>
  <time>2026-09-01T20:00:43Z</time>
  <course>215.85</course>
  <speed>35.21219107070732</speed>
  <fix>3d</fix>
</trkpt>
<trkpt lat="-27.2568975" lon="151.3327856">
  <ele>512.4</ele>
  <time>2026-09-01T20:00:43Z</time>
  <course>212.36</course>
  <speed>25.85</speed>
  <fix>3d</fix>
</trkpt>
<trkpt lat="-27.2569689" lon="151.3327272">
  <ele>507.94</ele>
  <time>2026-09-01T20:00:43Z</time>
  <course>217.21</course>
  <speed>35.047453545157886</speed>
  <fix>3d</fix>
</trkpt>
<trkpt lat="-27.2569425" lon="151.3327497">
  <ele>508.84</ele>
  <time>2026-09-01T20:00:43Z</time>
  <course>216.86</course>
  <speed>33.9</speed>
  <fix>3d</fix>
</trkpt>
<trkpt lat="-27.2569932" lon="151.332706">
  <ele>508.24</ele>
  <time>2026-09-01T20:00:43Z</time>
  <course>218.12</course>
  <speed>33.471570025919014</speed>
  <fix>3d</fix>
</trkpt>
<trkpt lat="-27.2569425" lon="151.3327497">
  <ele>508.84</ele>
  <time>2026-09-01T20:00:43Z</time>
  <course>216.86</course>
  <speed>33.9</speed>
  <fix>3d</fix>
</trkpt>
<trkpt lat="-27.2570159" lon="151.3326854">
  <ele>509.01</ele>
  <time>2026-09-01T20:00:43Z</time>
  <course>219.16</course>
  <speed>31.55787381938143</speed>
  <fix>3d</fix>
</trkpt>
<trkpt lat="-27.256991" lon="151.3327075">
  <ele>508.45</ele>
  <time>2026-09-01T20:00:43Z</time>
  <course>218.46</course>
  <speed>33.38</speed>
  <fix>3d</fix>
</trkpt>
<trkpt lat="-27.257037" lon="151.3326654">
  <ele>510.06</ele>
  <time>2026-09-01T20:00:43Z</time>
  <course>220.13</course>
  <speed>29.90388770711929</speed>
  <fix>3d</fix>
</trkpt>
<trkpt lat="-27.256991" lon="151.3327075">
  <ele>508.45</ele>
  <time>2026-09-01T20:00:43Z</time>
  <course>218.46</course>
  <speed>33.38</speed>
  <fix>3d</fix>
</trkpt>
<trkpt lat="-27.2570568" lon="151.3326459">
  <ele>511.23</ele>
  <time>2026-09-01T20:00:43Z</time>
  <course>220.76</course>
  <speed>28.607525233756242</speed>
  <fix>3d</fix>
</trkpt>
<trkpt lat="-27.257035" lon="151.3326668">
  <ele>510.06</ele>
  <time>2026-09-01T20:00:43Z</time>
  <course>220.45</course>
  <speed>30.16</speed>
  <fix>3d</fix>
</trkpt>
<trkpt lat="-27.2570755" lon="151.3326268">
  <ele>512.43</ele>
  <time>2026-09-01T20:00:43Z</time>
  <course>221.16</course>
  <speed>27.59239387947338</speed>
  <fix>3d</fix>
</trkpt>
<trkpt lat="-27.257035" lon="151.3326668">
  <ele>510.06</ele>
  <time>2026-09-01T20:00:43Z</time>
  <course>220.45</course>
  <speed>30.16</speed>
  <fix>3d</fix>
</trkpt>
<trkpt lat="-27.2570934" lon="151.3326084">
  <ele>513.61</ele>
  <time>2026-09-01T20:00:43Z</time>
  <course>221.53</course>
  <speed>26.74967289519631</speed>
  <fix>3d</fix>
</trkpt>
<trkpt lat="-27.2570739" lon="151.3326283">
  <ele>512.34</ele>
  <time>2026-09-01T20:00:43Z</time>
  <course>222.16</course>
  <speed>27.74</speed>
  <fix>3d</fix>
</trkpt>
<trkpt lat="-27.2571108" lon="151.3325903">
  <ele>514.76</ele>
  <time>2026-09-01T20:00:43Z</time>
  <course>221.94</course>
  <speed>26.009998077662367</speed>
  <fix>3d</fix>
</trkpt>
<trkpt lat="-27.2570739" lon="151.3326283">
  <ele>512.34</ele>
  <time>2026-09-01T20:00:43Z</time>
  <course>222.16</course>
  <speed>27.74</speed>
  <fix>3d</fix>
</trkpt>
<trkpt lat="-27.2571277" lon="151.3325726">
  <ele>515.86</ele>
  <time>2026-09-01T20:00:43Z</time>
  <course>222.32</course>
  <speed>25.31403563243127</speed>
  <fix>3d</fix>
</trkpt>
<trkpt lat="-27.2571095" lon="151.3325915">
  <ele>514.66</ele>
  <time>2026-09-01T20:00:43Z</time>
  <course>222.9</course>
  <speed>26.08</speed>
  <fix>3d</fix>
</trkpt>
<trkpt lat="-27.2571436" lon="151.3325557">
  <ele>516.9</ele>
  <time>2026-09-01T20:00:43Z</time>
  <course>222.62</course>
  <speed>24.653853654145024</speed>
  <fix>3d</fix>
</trkpt>
<trkpt lat="-27.2571095" lon="151.3325915">
  <ele>514.66</ele>
  <time>2026-09-01T20:00:43Z</time>
  <course>222.9</course>
  <speed>26.08</speed>
  <fix>3d</fix>
</trkpt>
<trkpt lat="-27.2571595" lon="151.3325389">
  <ele>517.91</ele>
  <time>2026-09-01T20:00:43Z</time>
  <course>222.88</course>
  <speed>23.979745620001896</speed>
  <fix>3d</fix>
</trkpt>
<trkpt lat="-27.2571095" lon="151.3325915">
  <ele>514.66</ele>
  <time>2026-09-01T20:00:43Z</time>
  <course>222.9</course>
  <speed>26.08</speed>
  <fix>3d</fix>
</trkpt>
<trkpt lat="-27.2571749" lon="151.3325223">
  <ele>518.9</ele>
  <time>2026-09-01T20:00:43Z</time>
  <course>223.12</course>
  <speed>23.298626568963247</speed>
  <fix>3d</fix>
</trkpt>
<trkpt lat="-27.2571428" lon="151.3325565">
  <ele>516.83</ele>
  <time>2026-09-01T20:00:43Z</time>
  <course>223.27</course>
  <speed>24.68</speed>
  <fix>3d</fix>
</trkpt>
<trkpt lat="-27.2571898" lon="151.3325064">
  <ele>519.85</ele>
  <time>2026-09-01T20:00:43Z</time>
  <course>223.37</course>
  <speed>22.596453261518718</speed>
  <fix>3d</fix>
</trkpt>
<trkpt lat="-27.2571428" lon="151.3325565">
  <ele>516.83</ele>
  <time>2026-09-01T20:00:43Z</time>
  <course>223.27</course>
  <speed>24.68</speed>
  <fix>3d</fix>
</trkpt>
<trkpt lat="-27.2572041" lon="151.3324907">
  <ele>520.79</ele>
  <time>2026-09-01T20:00:43Z</time>
  <course>223.63</course>
  <speed>21.880516447287068</speed>
  <fix>3d</fix>
</trkpt>
<trkpt lat="-27.2571741" lon="151.3325231">
  <ele>518.84</ele>
  <time>2026-09-01T20:00:43Z</time>
  <course>223.65</course>
  <speed>23.31</speed>
  <fix>3d</fix>
</trkpt>
<trkpt lat="-27.257218" lon="151.3324755">
  <ele>521.72</ele>
  <time>2026-09-01T20:00:43Z</time>
  <course>223.9</course>
  <speed>21.15800085074202</speed>
  <fix>3d</fix>
</trkpt>
<trkpt lat="-27.2571741" lon="151.3325231">
  <ele>518.84</ele>
  <time>2026-09-01T20:00:43Z</time>
  <course>223.65</course>
  <speed>23.31</speed>
  <fix>3d</fix>
</trkpt>
<trkpt lat="-27.2572313" lon="151.3324609">
  <ele>522.64</ele>
  <time>2026-09-01T20:00:43Z</time>
  <course>224.17</course>
  <speed>20.407591724649922</speed>
  <fix>3d</fix>
</trkpt>
<trkpt lat="-27.2572034" lon="151.3324914">
  <ele>520.75</ele>
  <time>2026-09-01T20:00:43Z</time>
  <course>224.09</course>
  <speed>21.9</speed>
  <fix>3d</fix>
</trkpt>
<trkpt lat="-27.2572441" lon="151.3324466">
  <ele>523.54</ele>
  <time>2026-09-01T20:00:43Z</time>
  <course>224.43</course>
  <speed>19.657649910403837</speed>
  <fix>3d</fix>
</trkpt>
<trkpt lat="-27.2572034" lon="151.3324914">
  <ele>520.75</ele>
  <time>2026-09-01T20:00:43Z</time>
  <course>224.09</course>
  <speed>21.9</speed>
  <fix>3d</fix>
</trkpt>
<trkpt lat="-27.2572567" lon="151.3324323">
  <ele>524.49</ele>
  <time>2026-09-01T20:00:43Z</time>
  <course>224.7</course>
  <speed>18.879772244388967</speed>
  <fix>3d</fix>
</trkpt>
<trkpt lat="-27.2572307" lon="151.3324615">
  <ele>522.61</ele>
  <time>2026-09-01T20:00:43Z</time>
  <course>224.58</course>
  <speed>20.43</speed>
  <fix>3d</fix>
</trkpt>
<trkpt lat="-27.2572684" lon="151.3324192">
  <ele>525.4</ele>
  <time>2026-09-01T20:00:43Z</time>
  <course>224.94</course>
  <speed>18.123457175715675</speed>
  <fix>3d</fix>
</trkpt>
<trkpt lat="-27.2572557" lon="151.3324334">
  <ele>524.44</ele>
  <time>2026-09-01T20:00:43Z</time>
  <course>225.06</course>
  <speed>18.93</speed>
  <fix>3d</fix>
</trkpt>
<trkpt lat="-27.2572796" lon="151.3324064">
  <ele>526.31</ele>
  <time>2026-09-01T20:00:43Z</time>
  <course>225.17</course>
  <speed>17.374374808896004</speed>
  <fix>3d</fix>
</trkpt>
<trkpt lat="-27.2572557" lon="151.3324334">
  <ele>524.44</ele>
  <time>2026-09-01T20:00:43Z</time>
  <course>225.06</course>
  <speed>18.93</speed>
  <fix>3d</fix>
</trkpt>
<trkpt lat="-27.2572903" lon="151.332394">
  <ele>527.21</ele>
  <time>2026-09-01T20:00:43Z</time>
  <course>225.39</course>
  <speed>16.632690702348793</speed>
  <fix>3d</fix>
</trkpt>
<trkpt lat="-27.2572787" lon="151.3324073">
  <ele>526.25</ele>
  <time>2026-09-01T20:00:43Z</time>
  <course>225.52</course>
  <speed>17.42</speed>
  <fix>3d</fix>
</trkpt>
<trkpt lat="-27.2573005" lon="151.3323823">
  <ele>528.1</ele>
  <time>2026-09-01T20:00:43Z</time>
  <course>225.58</course>
  <speed>15.919362424418887</speed>
  <fix>3d</fix>
</trkpt>
<trkpt lat="-27.2572787" lon="151.3324073">
  <ele>526.25</ele>
  <time>2026-09-01T20:00:43Z</time>
  <course>225.52</course>
  <speed>17.42</speed>
  <fix>3d</fix>
</trkpt>
<trkpt lat="-27.2573102" lon="151.3323709">
  <ele>528.97</ele>
  <time>2026-09-01T20:00:43Z</time>
  <course>225.74</course>
  <speed>15.248396637023841</speed>
  <fix>3d</fix>
</trkpt>
<trkpt lat="-27.2572996" lon="151.3323831">
  <ele>528.03</ele>
  <time>2026-09-01T20:00:43Z</time>
  <course>225.95</course>
  <speed>15.98</speed>
  <fix>3d</fix>
</trkpt>
<trkpt lat="-27.2573195" lon="151.33236">
  <ele>529.82</ele>
  <time>2026-09-01T20:00:43Z</time>
  <course>225.9</course>
  <speed>14.62000341997224</speed>
  <fix>3d</fix>
</trkpt>
<trkpt lat="-27.2572996" lon="151.3323831">
  <ele>528.03</ele>
  <time>2026-09-01T20:00:43Z</time>
  <course>225.95</course>
  <speed>15.98</speed>
  <fix>3d</fix>
</trkpt>
<trkpt lat="-27.2573283" lon="151.3323495">
  <ele>530.64</ele>
  <time>2026-09-01T20:00:43Z</time>
  <course>226.03</course>
  <speed>14.026934804154472</speed>
  <fix>3d</fix>
</trkpt>
<trkpt lat="-27.2573187" lon="151.3323608">
  <ele>529.76</ele>
  <time>2026-09-01T20:00:43Z</time>
  <course>226.34</course>
  <speed>14.68</speed>
  <fix>3d</fix>
</trkpt>
<trkpt lat="-27.2573368" lon="151.3323395">
  <ele>531.44</ele>
  <time>2026-09-01T20:00:43Z</time>
  <course>226.16</course>
  <speed>13.469135087302377</speed>
  <fix>3d</fix>
</trkpt>
<trkpt lat="-27.2573187" lon="151.3323608">
  <ele>529.76</ele>
  <time>2026-09-01T20:00:43Z</time>
  <course>226.34</course>
  <speed>14.68</speed>
  <fix>3d</fix>
</trkpt>
<trkpt lat="-27.2573449" lon="151.3323297">
  <ele>532.19</ele>
  <time>2026-09-01T20:00:43Z</time>
  <course>226.29</course>
  <speed>12.939710197682173</speed>
  <fix>3d</fix>
</trkpt>
<trkpt lat="-27.2573361" lon="151.3323401">
  <ele>531.37</ele>
  <time>2026-09-01T20:00:43Z</time>
  <course>226.68</course>
  <speed>13.52</speed>
  <fix>3d</fix>
</trkpt>
<trkpt lat="-27.2573527" lon="151.3323203">
  <ele>532.91</ele>
  <time>2026-09-01T20:00:43Z</time>
  <course>226.41</course>
  <speed>12.438665523278612</speed>
  <fix>3d</fix>
</trkpt>
<trkpt lat="-27.2573361" lon="151.3323401">
  <ele>531.37</ele>
  <time>2026-09-01T20:00:43Z</time>
  <course>226.68</course>
  <speed>13.52</speed>
  <fix>3d</fix>
</trkpt>
<trkpt lat="-27.2573602" lon="151.3323112">
  <ele>533.6</ele>
  <time>2026-09-01T20:00:43Z</time>
  <course>226.52</course>
  <speed>11.944538500921666</speed>
  <fix>3d</fix>
</trkpt>
<trkpt lat="-27.2573521" lon="151.3323211">
  <ele>532.85</ele>
  <time>2026-09-01T20:00:43Z</time>
  <course>226.99</course>
  <speed>12.48</speed>
  <fix>3d</fix>
</trkpt>
<trkpt lat="-27.2573673" lon="151.3323026">
  <ele>534.25</ele>
  <time>2026-09-01T20:00:43Z</time>
  <course>226.63</course>
  <speed>11.478762999557052</speed>
  <fix>3d</fix>
</trkpt>
<trkpt lat="-27.2573521" lon="151.3323211">
  <ele>532.85</ele>
  <time>2026-09-01T20:00:43Z</time>
  <course>226.99</course>
  <speed>12.48</speed>
  <fix>3d</fix>
</trkpt>
<trkpt lat="-27.2573741" lon="151.3322943">
  <ele>534.85</ele>
  <time>2026-09-01T20:00:43Z</time>
  <course>226.74</course>
  <speed>11.02721179627924</speed>
  <fix>3d</fix>
</trkpt>
<trkpt lat="-27.2573667" lon="151.3323033">
  <ele>534.19</ele>
  <time>2026-09-01T20:00:43Z</time>
  <course>227.31</course>
  <speed>11.52</speed>
  <fix>3d</fix>
</trkpt>
<trkpt lat="-27.2573807" lon="151.3322862">
  <ele>535.41</ele>
  <time>2026-09-01T20:00:43Z</time>
  <course>226.84</course>
  <speed>10.582499704701155</speed>
  <fix>3d</fix>
</trkpt>
<trkpt lat="-27.2573667" lon="151.3323033">
  <ele>534.19</ele>
  <time>2026-09-01T20:00:43Z</time>
  <course>227.31</course>
  <speed>11.52</speed>
  <fix>3d</fix>
</trkpt>
<trkpt lat="-27.257387" lon="151.3322785">
  <ele>535.95</ele>
  <time>2026-09-01T20:00:43Z</time>
  <course>226.94</course>
  <speed>10.159394667006493</speed>
  <fix>3d</fix>
</trkpt>
<trkpt lat="-27.2573801" lon="151.3322868">
  <ele>535.37</ele>
  <time>2026-09-01T20:00:43Z</time>
  <course>227.63</course>
  <speed>10.62</speed>
  <fix>3d</fix>
</trkpt>
<trkpt lat="-27.257393" lon="151.332271">
  <ele>536.45</ele>
  <time>2026-09-01T20:00:43Z</time>
  <course>227.04</course>
  <speed>9.743100122650901</speed>
  <fix>3d</fix>
</trkpt>
<trkpt lat="-27.2573801" lon="151.3322868">
  <ele>535.37</ele>
  <time>2026-09-01T20:00:43Z</time>
  <course>227.63</course>
  <speed>10.62</speed>
  <fix>3d</fix>
</trkpt>
<trkpt lat="-27.2573987" lon="151.3322638">
  <ele>536.91</ele>
  <time>2026-09-01T20:00:43Z</time>
  <course>227.14</course>
  <speed>9.341011722506293</speed>
  <fix>3d</fix>
</trkpt>
<trkpt lat="-27.2573925" lon="151.3322715">
  <ele>536.4</ele>
  <time>2026-09-01T20:00:43Z</time>
  <course>227.97</course>
  <speed>9.77</speed>
  <fix>3d</fix>
</trkpt>
<trkpt lat="-27.2574041" lon="151.3322569">
  <ele>537.33</ele>
  <time>2026-09-01T20:00:43Z</time>
  <course>227.24</course>
  <speed>8.939015605758835</speed>
  <fix>3d</fix>
</trkpt>
<trkpt lat="-27.2573925" lon="151.3322715">
  <ele>536.4</ele>
  <time>2026-09-01T20:00:43Z</time>
  <course>227.97</course>
  <speed>9.77</speed>
  <fix>3d</fix>
</trkpt>
<trkpt lat="-27.2574094" lon="151.3322503">
  <ele>537.72</ele>
  <time>2026-09-01T20:00:43Z</time>
  <course>227.33</course>
  <speed>8.565354633638936</speed>
  <fix>3d</fix>
</trkpt>
<trkpt lat="-27.2574037" lon="151.3322574">
  <ele>537.29</ele>
  <time>2026-09-01T20:00:43Z</time>
  <course>228.33</course>
  <speed>8.97</speed>
  <fix>3d</fix>
</trkpt>
<trkpt lat="-27.2574142" lon="151.3322441">
  <ele>538.06</ele>
  <time>2026-09-01T20:00:43Z</time>
  <course>227.42</course>
  <speed>8.205912502580075</speed>
  <fix>3d</fix>
</trkpt>
<trkpt lat="-27.2574037" lon="151.3322574">
  <ele>537.29</ele>
  <time>2026-09-01T20:00:43Z</time>
  <course>228.33</course>
  <speed>8.97</speed>
  <fix>3d</fix>
</trkpt>
<trkpt lat="-27.2574191" lon="151.3322378">
  <ele>538.38</ele>
  <time>2026-09-01T20:00:43Z</time>
  <course>227.51</course>
  <speed>7.839043308975911</speed>
  <fix>3d</fix>
</trkpt>
<trkpt lat="-27.2574139" lon="151.3322443">
  <ele>538.03</ele>
  <time>2026-09-01T20:00:43Z</time>
  <course>228.73</course>
  <speed>8.22</speed>
  <fix>3d</fix>
</trkpt>
<trkpt lat="-27.2574236" lon="151.3322318">
  <ele>538.66</ele>
  <time>2026-09-01T20:00:43Z</time>
  <course>227.59</course>
  <speed>7.501493184693299</speed>
  <fix>3d</fix>
</trkpt>
<trkpt lat="-27.2574139" lon="151.3322443">
  <ele>538.03</ele>
  <time>2026-09-01T20:00:43Z</time>
  <course>228.73</course>
  <speed>8.22</speed>
  <fix>3d</fix>
</trkpt>
<trkpt lat="-27.2574279" lon="151.3322263">
  <ele>538.91</ele>
  <time>2026-09-01T20:00:43Z</time>
  <course>227.65</course>
  <speed>7.1771442788897595</speed>
  <fix>3d</fix>
</trkpt>
<trkpt lat="-27.2574232" lon="151.3322323">
  <ele>538.63</ele>
  <time>2026-09-01T20:00:43Z</time>
  <course>229.15</course>
  <speed>7.53</speed>
  <fix>3d</fix>
</trkpt>
<trkpt lat="-27.257432" lon="151.3322208">
  <ele>539.12</ele>
  <time>2026-09-01T20:00:43Z</time>
  <course>227.69</course>
  <speed>6.8810754973332475</speed>
  <fix>3d</fix>
</trkpt>
<trkpt lat="-27.2574232" lon="151.3322323">
  <ele>538.63</ele>
  <time>2026-09-01T20:00:43Z</time>
  <course>229.15</course>
  <speed>7.53</speed>
  <fix>3d</fix>
</trkpt>
<trkpt lat="-27.257436" lon="151.3322157">
  <ele>539.29</ele>
  <time>2026-09-01T20:00:43Z</time>
  <course>227.72</course>
  <speed>6.606822231602724</speed>
  <fix>3d</fix>
</trkpt>
<trkpt lat="-27.2574317" lon="151.3322212">
  <ele>539.09</ele>
  <time>2026-09-01T20:00:43Z</time>
  <course>229.58</course>
  <speed>6.91</speed>
  <fix>3d</fix>
</trkpt>
<trkpt lat="-27.2574397" lon="151.3322107">
  <ele>539.44</ele>
  <time>2026-09-01T20:00:43Z</time>
  <course>227.74</course>
  <speed>6.353211786175556</speed>
  <fix>3d</fix>
</trkpt>
<trkpt lat="-27.2574317" lon="151.3322212">
  <ele>539.09</ele>
  <time>2026-09-01T20:00:43Z</time>
  <course>229.58</course>
  <speed>6.91</speed>
  <fix>3d</fix>
</trkpt>
<trkpt lat="-27.2574433" lon="151.3322058">
  <ele>539.54</ele>
  <time>2026-09-01T20:00:43Z</time>
  <course>227.76</course>
  <speed>6.127846277445282</speed>
  <fix>3d</fix>
</trkpt>
<trkpt lat="-27.2574394" lon="151.332211">
  <ele>539.41</ele>
  <time>2026-09-01T20:00:43Z</time>
  <course>230.0</course>
  <speed>6.38</speed>
  <fix>3d</fix>
</trkpt>
<trkpt lat="-27.2574468" lon="151.3322011">
  <ele>539.62</ele>
  <time>2026-09-01T20:00:43Z</time>
  <course>227.77</course>
  <speed>5.8884717881637165</speed>
  <fix>3d</fix>
</trkpt>
<trkpt lat="-27.2574394" lon="151.332211">
  <ele>539.41</ele>
  <time>2026-09-01T20:00:43Z</time>
  <course>230.0</course>
  <speed>6.38</speed>
  <fix>3d</fix>
</trkpt>
<trkpt lat="-27.25745" lon="151.3321967">
  <ele>539.68</ele>
  <time>2026-09-01T20:00:43Z</time>
  <course>227.63</course>
  <speed>5.621040828885697</speed>
  <fix>3d</fix>
</trkpt>
<trkpt lat="-27.2574465" lon="151.3322015">
  <ele>539.6</ele>
  <time>2026-09-01T20:00:43Z</time>
  <course>230.44</course>
  <speed>5.89</speed>
  <fix>3d</fix>
</trkpt>
<trkpt lat="-27.2574531" lon="151.3321924">
  <ele>539.71</ele>
  <time>2026-09-01T20:00:43Z</time>
  <course>227.29</course>
  <speed>5.311544031635245</speed>
  <fix>3d</fix>
</trkpt>
<trkpt lat="-27.2574465" lon="151.3322015">
  <ele>539.6</ele>
  <time>2026-09-01T20:00:43Z</time>
  <course>230.44</course>
  <speed>5.89</speed>
  <fix>3d</fix>
</trkpt>
<trkpt lat="-27.257456" lon="151.3321882">
  <ele>539.74</ele>
  <time>2026-09-01T20:00:43Z</time>
  <course>226.71</course>
  <speed>4.960090724976712</speed>
  <fix>3d</fix>
</trkpt>
<trkpt lat="-27.2574528" lon="151.3321927">
  <ele>539.7</ele>
  <time>2026-09-01T20:00:43Z</time>
  <course>231.02</course>
  <speed>5.31</speed>
  <fix>3d</fix>
</trkpt>
<trkpt lat="-27.2574587" lon="151.3321846">
  <ele>539.76</ele>
  <time>2026-09-01T20:00:43Z</time>
  <course>225.9</course>
  <speed>4.551098768429444</speed>
  <fix>3d</fix>
</trkpt>
<trkpt lat="-27.2574528" lon="151.3321927">
  <ele>539.7</ele>
  <time>2026-09-01T20:00:43Z</time>
  <course>231.02</course>
  <speed>5.31</speed>
  <fix>3d</fix>
</trkpt>
<trkpt lat="-27.2574611" lon="151.332181">
  <ele>539.77</ele>
  <time>2026-09-01T20:00:43Z</time>
  <course>224.92</course>
  <speed>4.086281928599641</speed>
  <fix>3d</fix>
</trkpt>
<trkpt lat="-27.2574584" lon="151.3321849">
  <ele>539.75</ele>
  <time>2026-09-01T20:00:43Z</time>
  <course>231.84</course>
  <speed>4.55</speed>
  <fix>3d</fix>
</trkpt>
<trkpt lat="-27.2574632" lon="151.332178">
  <ele>539.79</ele>
  <time>2026-09-01T20:00:43Z</time>
  <course>223.83</course>
  <speed>3.578002235885271</speed>
  <fix>3d</fix>
</trkpt>
<trkpt lat="-27.2574584" lon="151.3321849">
  <ele>539.75</ele>
  <time>2026-09-01T20:00:43Z</time>
  <course>231.84</course>
  <speed>4.55</speed>
  <fix>3d</fix>
</trkpt>
<trkpt lat="-27.2574649" lon="151.3321753">
  <ele>539.84</ele>
  <time>2026-09-01T20:00:43Z</time>
  <course>222.76</course>
  <speed>3.042318195061128</speed>
  <fix>3d</fix>
</trkpt>
<trkpt lat="-27.2574629" lon="151.3321784">
  <ele>539.8</ele>
  <time>2026-09-01T20:00:43Z</time>
  <course>232.99</course>
  <speed>3.6</speed>
  <fix>3d</fix>
</trkpt>
<trkpt lat="-27.2574664" lon="151.3321729">
  <ele>539.9</ele>
  <time>2026-09-01T20:00:43Z</time>
  <course>221.79</course>
  <speed>2.483102897586002</speed>
  <fix>3d</fix>
</trkpt>
<trkpt lat="-27.2574629" lon="151.3321784">
  <ele>539.8</ele>
  <time>2026-09-01T20:00:43Z</time>
  <course>232.99</course>
  <speed>3.6</speed>
  <fix>3d</fix>
</trkpt>
<trkpt lat="-27.2574675" lon="151.3321712">
  <ele>539.98</ele>
  <time>2026-09-01T20:00:43Z</time>
  <course>221.0</course>
  <speed>1.9109421759959144</speed>
  <fix>3d</fix>
</trkpt>
<trkpt lat="-27.2574661" lon="151.3321733">
  <ele>539.91</ele>
  <time>2026-09-01T20:00:43Z</time>
  <course>234.72</course>
  <speed>2.51</speed>
  <fix>3d</fix>
</trkpt>
<trkpt lat="-27.2574683" lon="151.3321698">
  <ele>540.09</ele>
  <time>2026-09-01T20:00:43Z</time>
  <course>220.43</course>
  <speed>1.365283853270081</speed>
  <fix>3d</fix>
</trkpt>
<trkpt lat="-27.2574661" lon="151.3321733">
  <ele>539.91</ele>
  <time>2026-09-01T20:00:43Z</time>
  <course>234.72</course>
  <speed>2.51</speed>
  <fix>3d</fix>
</trkpt>
<trkpt lat="-27.2574689" lon="151.3321686">
  <ele>540.16</ele>
  <time>2026-09-01T20:00:43Z</time>
  <course>220.04</course>
  <speed>1.3017296186228537</speed>
  <fix>3d</fix>
</trkpt>
<trkpt lat="-27.2574682" lon="151.33217">
  <ele>540.07</ele>
  <time>2026-09-01T20:00:43Z</time>
  <course>237.05</course>
  <speed>1.63</speed>
  <fix>3d</fix>
</trkpt>
<trkpt lat="-27.2574696" lon="151.3321676">
  <ele>540.15</ele>
  <time>2026-09-01T20:00:43Z</time>
  <course>219.75</course>
  <speed>1.3017296186228537</speed>
  <fix>3d</fix>
</trkpt>
<trkpt lat="-27.2574682" lon="151.33217">
  <ele>540.07</ele>
  <time>2026-09-01T20:00:43Z</time>
  <course>237.05</course>
  <speed>1.63</speed>
  <fix>3d</fix>
</trkpt>
<trkpt lat="-27.2574702" lon="151.3321664">
  <ele>540.04</ele>
  <time>2026-09-01T20:00:43Z</time>
  <course>219.58</course>
  <speed>1.2709445306542688</speed>
  <fix>3d</fix>
</trkpt>
<trkpt lat="-27.2574695" lon="151.3321676">
  <ele>540.11</ele>
  <time>2026-09-01T20:00:43Z</time>
  <course>238.33</course>
  <speed>1.29</speed>
  <fix>3d</fix>
</trkpt>
<trkpt lat="-27.2574708" lon="151.3321653">
  <ele>539.84</ele>
  <time>2026-09-01T20:00:43Z</time>
  <course>219.61</course>
  <speed>1.2126417442921877</speed>
  <fix>3d</fix>
</trkpt>
<trkpt lat="-27.2574695" lon="151.3321676">
  <ele>540.11</ele>
  <time>2026-09-01T20:00:43Z</time>
  <course>238.33</course>
  <speed>1.29</speed>
  <fix>3d</fix>
</trkpt>
<trkpt lat="-27.2574713" lon="151.3321643">
  <ele>539.56</ele>
  <time>2026-09-01T20:00:43Z</time>
  <course>219.94</course>
  <speed>1.1374093370462546</speed>
  <fix>3d</fix>
</trkpt>
<trkpt lat="-27.2574707" lon="151.3321654">
  <ele>539.81</ele>
  <time>2026-09-01T20:00:43Z</time>
  <course>237.92</course>
  <speed>1.21</speed>
  <fix>3d</fix>
</trkpt>
<trkpt lat="-27.2574719" lon="151.3321633">
  <ele>539.22</ele>
  <time>2026-09-01T20:00:43Z</time>
  <course>220.43</course>
  <speed>1.056882207249228</speed>
  <fix>3d</fix>
</trkpt>
<trkpt lat="-27.2574707" lon="151.3321654">
  <ele>539.81</ele>
  <time>2026-09-01T20:00:43Z</time>
  <course>237.92</course>
  <speed>1.21</speed>
  <fix>3d</fix>
</trkpt>
<trkpt lat="-27.2574724" lon="151.3321626">
  <ele>538.82</ele>
  <time>2026-09-01T20:00:43Z</time>
  <course>220.82</course>
  <speed>0.9818350166906862</speed>
  <fix>3d</fix>
</trkpt>
<trkpt lat="-27.2574718" lon="151.3321634">
  <ele>539.21</ele>
  <time>2026-09-01T20:00:43Z</time>
  <course>237.26</course>
  <speed>1.06</speed>
  <fix>3d</fix>
</trkpt>
<trkpt lat="-27.2574728" lon="151.3321617">
  <ele>538.37</ele>
  <time>2026-09-01T20:00:43Z</time>
  <course>221.09</course>
  <speed>0.9291393867445293</speed>
  <fix>3d</fix>
</trkpt>
<trkpt lat="-27.2574718" lon="151.3321634">
  <ele>539.21</ele>
  <time>2026-09-01T20:00:43Z</time>
  <course>237.26</course>
  <speed>1.06</speed>
  <fix>3d</fix>
</trkpt>
<trkpt lat="-27.2574733" lon="151.3321609">
  <ele>537.88</ele>
  <time>2026-09-01T20:00:43Z</time>
  <course>221.32</course>
  <speed>0.9160785992479029</speed>
  <fix>3d</fix>
</trkpt>
<trkpt lat="-27.2574728" lon="151.3321618">
  <ele>538.37</ele>
  <time>2026-09-01T20:00:43Z</time>
  <course>235.48</course>
  <speed>0.95</speed>
  <fix>3d</fix>
</trkpt>
<trkpt lat="-27.2574738" lon="151.3321602">
  <ele>537.33</ele>
  <time>2026-09-01T20:00:43Z</time>
  <course>221.6</course>
  <speed>0.9526804291051643</speed>
  <fix>3d</fix>
</trkpt>
<trkpt lat="-27.2574728" lon="151.3321618">
  <ele>538.37</ele>
  <time>2026-09-01T20:00:43Z</time>
  <course>235.48</course>
  <speed>0.95</speed>
  <fix>3d</fix>
</trkpt>
<trkpt lat="-27.2574744" lon="151.3321595">
  <ele>536.74</ele>
  <time>2026-09-01T20:00:43Z</time>
  <course>222.0</course>
  <speed>1.027277956543408</speed>
  <fix>3d</fix>
</trkpt>
<trkpt lat="-27.2574738" lon="151.3321602">
  <ele>537.34</ele>
  <time>2026-09-01T20:00:43Z</time>
  <course>231.21</course>
  <speed>0.97</speed>
  <fix>3d</fix>
</trkpt>
<trkpt lat="-27.2574751" lon="151.3321586">
  <ele>536.08</ele>
  <time>2026-09-01T20:00:43Z</time>
  <course>222.65</course>
  <speed>1.110720486891279</speed>
  <fix>3d</fix>
</trkpt>
<trkpt lat="-27.2574738" lon="151.3321602">
  <ele>537.34</ele>
  <time>2026-09-01T20:00:43Z</time>
  <course>231.21</course>
  <speed>0.97</speed>
  <fix>3d</fix>
</trkpt>
<trkpt lat="-27.2574759" lon="151.3321576">
  <ele>535.36</ele>
  <time>2026-09-01T20:00:43Z</time>
  <course>223.88</course>
  <speed>1.656804152578089</speed>
  <fix>3d</fix>
</trkpt>
<trkpt lat="-27.2574751" lon="151.3321586">
  <ele>536.09</ele>
  <time>2026-09-01T20:00:43Z</time>
  <course>224.96</course>
  <speed>1.31</speed>
  <fix>3d</fix>
</trkpt>
<trkpt lat="-27.2574773" lon="151.3321564">
  <ele>534.57</ele>
  <time>2026-09-01T20:00:43Z</time>
  <course>227.36</course>
  <speed>2.2880996481796854</speed>
  <fix>3d</fix>
</trkpt>
<trkpt lat="-27.2574751" lon="151.3321586">
  <ele>536.09</ele>
  <time>2026-09-01T20:00:43Z</time>
  <course>224.96</course>
  <speed>1.31</speed>
  <fix>3d</fix>
</trkpt>
<trkpt lat="-27.257479" lon="151.3321549">
  <ele>533.71</ele>
  <time>2026-09-01T20:00:43Z</time>
  <course>235.88</course>
  <speed>2.481632527188504</speed>
  <fix>3d</fix>
</trkpt>
<trkpt lat="-27.2574773" lon="151.3321564">
  <ele>534.58</ele>
  <time>2026-09-01T20:00:43Z</time>
  <course>220.34</course>
  <speed>2.04</speed>
  <fix>3d</fix>
</trkpt>
<trkpt lat="-27.2574806" lon="151.3321532">
  <ele>532.74</ele>
  <time>2026-09-01T20:00:43Z</time>
  <course>250.43</course>
  <speed>2.3213142829009605</speed>
  <fix>3d</fix>
</trkpt>
<trkpt lat="-27.2574773" lon="151.3321564">
  <ele>534.58</ele>
  <time>2026-09-01T20:00:43Z</time>
  <course>220.34</course>
  <speed>2.04</speed>
  <fix>3d</fix>
</trkpt>
<trkpt lat="-27.2574821" lon="151.3321518">
  <ele>531.69</ele>
  <time>2026-09-01T20:00:43Z</time>
  <course>250.98</course>
  <speed>2.09124364912365</speed>
  <fix>3d</fix>
</trkpt>
<trkpt lat="-27.2574805" lon="151.3321534">
  <ele>532.75</ele>
  <time>2026-09-01T20:00:43Z</time>
  <course>219.8</course>
  <speed>2.29</speed>
  <fix>3d</fix>
</trkpt>
<trkpt lat="-27.2574836" lon="151.3321504">
  <ele>530.54</ele>
  <time>2026-09-01T20:00:43Z</time>
  <course>237.65</course>
  <speed>2.1228518554058358</speed>
  <fix>3d</fix>
</trkpt>
<trkpt lat="-27.2574805" lon="151.3321534">
  <ele>532.75</ele>
  <time>2026-09-01T20:00:43Z</time>
  <course>219.8</course>
  <speed>2.29</speed>
  <fix>3d</fix>
</trkpt>
<trkpt lat="-27.2574852" lon="151.3321489">
  <ele>529.29</ele>
  <time>2026-09-01T20:00:43Z</time>
  <course>232.43</course>
  <speed>2.6549764594059964</speed>
  <fix>3d</fix>
</trkpt>
<trkpt lat="-27.2574836" lon="151.3321504">
  <ele>530.56</ele>
  <time>2026-09-01T20:00:43Z</time>
  <course>219.49</course>
  <speed>2.35</speed>
  <fix>3d</fix>
</trkpt>
<trkpt lat="-27.2574874" lon="151.332147">
  <ele>528.0</ele>
  <time>2026-09-01T20:00:43Z</time>
  <course>232.65</course>
  <speed>3.698986347636336</speed>
  <fix>3d</fix>
</trkpt>
<trkpt lat="-27.2574836" lon="151.3321504">
  <ele>530.56</ele>
  <time>2026-09-01T20:00:43Z</time>
  <course>219.49</course>
  <speed>2.35</speed>
  <fix>3d</fix>
</trkpt>
<trkpt lat="-27.2574903" lon="151.3321441">
  <ele>526.65</ele>
  <time>2026-09-01T20:00:43Z</time>
  <course>233.71</course>
  <speed>5.036208891616789</speed>
  <fix>3d</fix>
</trkpt>
<trkpt lat="-27.2574876" lon="151.3321466">
  <ele>528.05</ele>
  <time>2026-09-01T20:00:43Z</time>
  <course>221.67</course>
  <speed>3.79</speed>
  <fix>3d</fix>
</trkpt>
<trkpt lat="-27.2574939" lon="151.3321398">
  <ele>525.28</ele>
  <time>2026-09-01T20:00:43Z</time>
  <course>233.78</course>
  <speed>6.384371543072976</speed>
  <fix>3d</fix>
</trkpt>
<trkpt lat="-27.2574876" lon="151.3321466">
  <ele>528.05</ele>
  <time>2026-09-01T20:00:43Z</time>
  <course>221.67</course>
  <speed>3.79</speed>
  <fix>3d</fix>
</trkpt>
<trkpt lat="-27.257498" lon="151.3321346">
  <ele>523.9</ele>
  <time>2026-09-01T20:00:43Z</time>
  <course>232.85</course>
  <speed>7.623496573095577</speed>
  <fix>3d</fix>
</trkpt>
<trkpt lat="-27.257494" lon="151.3321394">
  <ele>525.34</ele>
  <time>2026-09-01T20:00:43Z</time>
  <course>227.65</course>
  <speed>6.26</speed>
  <fix>3d</fix>
</trkpt>
<trkpt lat="-27.2575026" lon="151.3321279">
  <ele>522.51</ele>
  <time>2026-09-01T20:00:43Z</time>
  <course>231.58</course>
  <speed>8.808501575182921</speed>
  <fix>3d</fix>
</trkpt>
<trkpt lat="-27.257494" lon="151.3321394">
  <ele>525.34</ele>
  <time>2026-09-01T20:00:43Z</time>
  <course>227.65</course>
  <speed>6.26</speed>
  <fix>3d</fix>
</trkpt>
<trkpt lat="-27.2575077" lon="151.3321203">
  <ele>521.12</ele>
  <time>2026-09-01T20:00:43Z</time>
  <course>230.46</course>
  <speed>10.006088146723474</speed>
  <fix>3d</fix>
</trkpt>
<trkpt lat="-27.2575026" lon="151.3321278">
  <ele>522.57</ele>
  <time>2026-09-01T20:00:43Z</time>
  <course>232.1</course>
  <speed>8.76</speed>
  <fix>3d</fix>
</trkpt>
<trkpt lat="-27.2575133" lon="151.3321118">
  <ele>519.75</ele>
  <time>2026-09-01T20:00:43Z</time>
  <course>229.63</course>
  <speed>11.272000709723185</speed>
  <fix>3d</fix>
</trkpt>
<trkpt lat="-27.2575026" lon="151.3321278">
  <ele>522.57</ele>
  <time>2026-09-01T20:00:43Z</time>
  <course>232.1</course>
  <speed>8.76</speed>
  <fix>3d</fix>
</trkpt>
<trkpt lat="-27.2575199" lon="151.3321021">
  <ele>518.43</ele>
  <time>2026-09-01T20:00:43Z</time>
  <course>229.09</course>
  <speed>12.535792755147158</speed>
  <fix>3d</fix>
</trkpt>
<trkpt lat="-27.2575135" lon="151.3321117">
  <ele>519.83</ele>
  <time>2026-09-01T20:00:43Z</time>
  <course>232.71</course>
  <speed>11.21</speed>
  <fix>3d</fix>
</trkpt>
<trkpt lat="-27.2575273" lon="151.3320918">
  <ele>517.16</ele>
  <time>2026-09-01T20:00:43Z</time>
  <course>228.8</course>
  <speed>13.736335027946867</speed>
  <fix>3d</fix>
</trkpt>
<trkpt lat="-27.2575135" lon="151.3321117">
  <ele>519.83</ele>
  <time>2026-09-01T20:00:43Z</time>
  <course>232.71</course>
  <speed>11.21</speed>
  <fix>3d</fix>
</trkpt>
<trkpt lat="-27.2575355" lon="151.3320808">
  <ele>515.98</ele>
  <time>2026-09-01T20:00:43Z</time>
  <course>228.66</course>
  <speed>14.847848328966727</speed>
  <fix>3d</fix>
</trkpt>
<trkpt lat="-27.2575273" lon="151.332092">
  <ele>517.26</ele>
  <time>2026-09-01T20:00:43Z</time>
  <course>230.64</course>
  <speed>13.63</speed>
  <fix>3d</fix>
</trkpt>
<trkpt lat="-27.2575447" lon="151.332069">
  <ele>514.88</ele>
  <time>2026-09-01T20:00:43Z</time>
  <course>228.58</course>
  <speed>15.855223114166511</speed>
  <fix>3d</fix>
</trkpt>
<trkpt lat="-27.2575273" lon="151.332092">
  <ele>517.26</ele>
  <time>2026-09-01T20:00:43Z</time>
  <course>230.64</course>
  <speed>13.63</speed>
  <fix>3d</fix>
</trkpt>
<trkpt lat="-27.2575545" lon="151.3320569">
  <ele>513.88</ele>
  <time>2026-09-01T20:00:43Z</time>
  <course>228.54</course>
  <speed>16.758621661699987</speed>
  <fix>3d</fix>
</trkpt>
<trkpt lat="-27.2575445" lon="151.3320694">
  <ele>514.97</ele>
  <time>2026-09-01T20:00:43Z</time>
  <course>228.3</course>
  <speed>15.75</speed>
  <fix>3d</fix>
</trkpt>
<trkpt lat="-27.257565" lon="151.3320441">
  <ele>513.01</ele>
  <time>2026-09-01T20:00:43Z</time>
  <course>228.53</course>
  <speed>17.520576474534163</speed>
  <fix>3d</fix>
</trkpt>
<trkpt lat="-27.2575445" lon="151.3320694">
  <ele>514.97</ele>
  <time>2026-09-01T20:00:43Z</time>
  <course>228.3</course>
  <speed>15.75</speed>
  <fix>3d</fix>
</trkpt>
<trkpt lat="-27.2575759" lon="151.332031">
  <ele>512.26</ele>
  <time>2026-09-01T20:00:43Z</time>
  <course>228.58</course>
  <speed>18.124803447210123</speed>
  <fix>3d</fix>
</trkpt>
<trkpt lat="-27.2575646" lon="151.3320446">
  <ele>513.11</ele>
  <time>2026-09-01T20:00:43Z</time>
  <course>227.37</course>
  <speed>17.41</speed>
  <fix>3d</fix>
</trkpt>
<trkpt lat="-27.257587" lon="151.3320173">
  <ele>511.64</ele>
  <time>2026-09-01T20:00:43Z</time>
  <course>228.67</course>
  <speed>18.563819650061244</speed>
  <fix>3d</fix>
</trkpt>
<trkpt lat="-27.2575646" lon="151.3320446">
  <ele>513.11</ele>
  <time>2026-09-01T20:00:43Z</time>
  <course>227.37</course>
  <speed>17.41</speed>
  <fix>3d</fix>
</trkpt>
<trkpt lat="-27.2575982" lon="151.3320032">
  <ele>511.15</ele>
  <time>2026-09-01T20:00:43Z</time>
  <course>228.75</course>
  <speed>18.815658372749013</speed>
  <fix>3d</fix>
</trkpt>
<trkpt lat="-27.2575864" lon="151.3320177">
  <ele>511.73</ele>
  <time>2026-09-01T20:00:43Z</time>
  <course>227.92</course>
  <speed>18.46</speed>
  <fix>3d</fix>
</trkpt>
<trkpt lat="-27.2576094" lon="151.3319888">
  <ele>510.79</ele>
  <time>2026-09-01T20:00:43Z</time>
  <course>228.74</course>
  <speed>18.912387474880056</speed>
  <fix>3d</fix>
</trkpt>
<trkpt lat="-27.2575864" lon="151.3320177">
  <ele>511.73</ele>
  <time>2026-09-01T20:00:43Z</time>
  <course>227.92</course>
  <speed>18.46</speed>
  <fix>3d</fix>
</trkpt>
<trkpt lat="-27.2576205" lon="151.3319742">
  <ele>510.5</ele>
  <time>2026-09-01T20:00:43Z</time>
  <course>228.69</course>
  <speed>18.90006613745042</speed>
  <fix>3d</fix>
</trkpt>
<trkpt lat="-27.2576087" lon="151.3319895">
  <ele>510.84</ele>
  <time>2026-09-01T20:00:43Z</time>
  <course>228.92</course>
  <speed>18.86</speed>
  <fix>3d</fix>
</trkpt>
<trkpt lat="-27.2576316" lon="151.3319597">
  <ele>510.28</ele>
  <time>2026-09-01T20:00:43Z</time>
  <course>228.69</course>
  <speed>18.818780513093827</speed>
  <fix>3d</fix>
</trkpt>
<trkpt lat="-27.2576087" lon="151.3319895">
  <ele>510.84</ele>
  <time>2026-09-01T20:00:43Z</time>
  <course>228.92</course>
  <speed>18.86</speed>
  <fix>3d</fix>
</trkpt>
<trkpt lat="-27.2576425" lon="151.3319453">
  <ele>510.08</ele>
  <time>2026-09-01T20:00:43Z</time>
  <course>228.79</course>
  <speed>18.720098824525472</speed>
  <fix>3d</fix>
</trkpt>
<trkpt lat="-27.2576309" lon="151.3319606">
  <ele>510.3</ele>
  <time>2026-09-01T20:00:43Z</time>
  <course>229.46</course>
  <speed>18.81</speed>
  <fix>3d</fix>
</trkpt>
<trkpt lat="-27.2576534" lon="151.331931">
  <ele>509.89</ele>
  <time>2026-09-01T20:00:43Z</time>
  <course>228.97</course>
  <speed>18.597472946612935</speed>
  <fix>3d</fix>
</trkpt>
<trkpt lat="-27.2576309" lon="151.3319606">
  <ele>510.3</ele>
  <time>2026-09-01T20:00:43Z</time>
  <course>229.46</course>
  <speed>18.81</speed>
  <fix>3d</fix>
</trkpt>
<trkpt lat="-27.2576642" lon="151.3319167">
  <ele>509.72</ele>
  <time>2026-09-01T20:00:43Z</time>
  <course>229.18</course>
  <speed>18.481390640317088</speed>
  <fix>3d</fix>
</trkpt>
<trkpt lat="-27.2576527" lon="151.3319318">
  <ele>509.91</ele>
  <time>2026-09-01T20:00:43Z</time>
  <course>229.48</course>
  <speed>18.61</speed>
  <fix>3d</fix>
</trkpt>
<trkpt lat="-27.257675" lon="151.3319026">
  <ele>509.55</ele>
  <time>2026-09-01T20:00:43Z</time>
  <course>229.37</course>
  <speed>18.36536958517307</speed>
  <fix>3d</fix>
</trkpt>
<trkpt lat="-27.2576527" lon="151.3319318">
  <ele>509.91</ele>
  <time>2026-09-01T20:00:43Z</time>
  <course>229.48</course>
  <speed>18.61</speed>
  <fix>3d</fix>
</trkpt>
<trkpt lat="-27.2576857" lon="151.3318885">
  <ele>509.38</ele>
  <time>2026-09-01T20:00:43Z</time>
  <course>229.51</course>
  <speed>18.242875321615287</speed>
  <fix>3d</fix>
</trkpt>
<trkpt lat="-27.2576744" lon="151.3319033">
  <ele>509.56</ele>
  <time>2026-09-01T20:00:43Z</time>
  <course>229.29</course>
  <speed>18.37</speed>
  <fix>3d</fix>
</trkpt>
<trkpt lat="-27.2576964" lon="151.3318746">
  <ele>509.21</ele>
  <time>2026-09-01T20:00:43Z</time>
  <course>229.58</course>
  <speed>18.127981134147287</speed>
  <fix>3d</fix>
</trkpt>
<trkpt lat="-27.2576744" lon="151.3319033">
  <ele>509.56</ele>
  <time>2026-09-01T20:00:43Z</time>
  <course>229.29</course>
  <speed>18.37</speed>
  <fix>3d</fix>
</trkpt>
<trkpt lat="-27.257707" lon="151.3318608">
  <ele>509.04</ele>
  <time>2026-09-01T20:00:43Z</time>
  <course>229.58</course>
  <speed>18.007576183373484</speed>
  <fix>3d</fix>
</trkpt>
<trkpt lat="-27.2576958" lon="151.3318754">
  <ele>509.22</ele>
  <time>2026-09-01T20:00:43Z</time>
  <course>229.15</course>
  <speed>18.13</speed>
  <fix>3d</fix>
</trkpt>
<trkpt lat="-27.2577176" lon="151.3318472">
  <ele>508.88</ele>
  <time>2026-09-01T20:00:43Z</time>
  <course>229.51</course>
  <speed>17.894736656346748</speed>
  <fix>3d</fix>
</trkpt>
<trkpt lat="-27.2576958" lon="151.3318754">
  <ele>509.22</ele>
  <time>2026-09-01T20:00:43Z</time>
  <course>229.15</course>
  <speed>18.13</speed>
  <fix>3d</fix>
</trkpt>
<trkpt lat="-27.257728" lon="151.3318334">
  <ele>508.71</ele>
  <time>2026-09-01T20:00:43Z</time>
  <course>229.42</course>
  <speed>17.782941264031663</speed>
  <fix>3d</fix>
</trkpt>
<trkpt lat="-27.257717" lon="151.3318479">
  <ele>508.88</ele>
  <time>2026-09-01T20:00:43Z</time>
  <course>229.17</course>
  <speed>17.9</speed>
  <fix>3d</fix>
</trkpt>
<trkpt lat="-27.2577384" lon="151.33182">
  <ele>508.55</ele>
  <time>2026-09-01T20:00:43Z</time>
  <course>229.33</course>
  <speed>17.67117426771634</speed>
  <fix>3d</fix>
</trkpt>
<trkpt lat="-27.257717" lon="151.3318479">
  <ele>508.88</ele>
  <time>2026-09-01T20:00:43Z</time>
  <course>229.17</course>
  <speed>17.9</speed>
  <fix>3d</fix>
</trkpt>
<trkpt lat="-27.2577487" lon="151.3318064">
  <ele>508.39</ele>
  <time>2026-09-01T20:00:43Z</time>
  <course>229.26</course>
  <speed>17.559436209628142</speed>
  <fix>3d</fix>
</trkpt>
<trkpt lat="-27.2577378" lon="151.3318206">
  <ele>508.56</ele>
  <time>2026-09-01T20:00:43Z</time>
  <course>229.3</course>
  <speed>17.68</speed>
  <fix>3d</fix>
</trkpt>
<trkpt lat="-27.257759" lon="151.331793">
  <ele>508.23</ele>
  <time>2026-09-01T20:00:43Z</time>
  <course>229.24</course>
  <speed>17.45422871398218</speed>
  <fix>3d</fix>
</trkpt>
<trkpt lat="-27.2577378" lon="151.3318206">
  <ele>508.56</ele>
  <time>2026-09-01T20:00:43Z</time>
  <course>229.3</course>
  <speed>17.68</speed>
  <fix>3d</fix>
</trkpt>
<trkpt lat="-27.2577691" lon="151.3317796">
  <ele>508.07</ele>
  <time>2026-09-01T20:00:43Z</time>
  <course>229.25</course>
  <speed>17.34903455527137</speed>
  <fix>3d</fix>
</trkpt>
<trkpt lat="-27.2577584" lon="151.3317937">
  <ele>508.23</ele>
  <time>2026-09-01T20:00:43Z</time>
  <course>229.43</course>
  <speed>17.47</speed>
  <fix>3d</fix>
</trkpt>
<trkpt lat="-27.2577792" lon="151.3317663">
  <ele>507.9</ele>
  <time>2026-09-01T20:00:43Z</time>
  <course>229.3</course>
  <speed>17.25034492408775</speed>
  <fix>3d</fix>
</trkpt>
<trkpt lat="-27.2577584" lon="151.3317937">
  <ele>508.23</ele>
  <time>2026-09-01T20:00:43Z</time>
  <course>229.43</course>
  <speed>17.47</speed>
  <fix>3d</fix>
</trkpt>
<trkpt lat="-27.2577893" lon="151.331753">
  <ele>507.74</ele>
  <time>2026-09-01T20:00:43Z</time>
  <course>229.36</course>
  <speed>17.144051446493037</speed>
  <fix>3d</fix>
</trkpt>
<trkpt lat="-27.2577787" lon="151.331767">
  <ele>507.91</ele>
  <time>2026-09-01T20:00:43Z</time>
  <course>229.5</course>
  <speed>17.26</speed>
  <fix>3d</fix>
</trkpt>
<trkpt lat="-27.2559725" lon="151.3358159">
  <ele>540.08</ele>
  <time>2026-09-01T20:00:43Z</time>
  <course>250.31</course>
  <speed>11.719594702889687</speed>
  <fix>3d</fix>
</trkpt>
<trkpt lat="-27.2577787" lon="151.331767">
  <ele>507.91</ele>
  <time>2026-09-01T20:00:43Z</time>
  <course>229.5</course>
  <speed>17.26</speed>
  <fix>3d</fix>
</trkpt>
<trkpt lat="-27.255975" lon="151.3358046">
  <ele>536.23</ele>
  <time>2026-09-01T20:00:43Z</time>
  <course>243.09</course>
  <speed>11.706207754862376</speed>
  <fix>3d</fix>
</trkpt>
<trkpt lat="-27.2568818" lon="151.3337795">
  <ele>522.08</ele>
  <time>2026-09-01T20:00:43Z</time>
  <course>239.71</course>
  <speed>14.07</speed>
  <fix>3d</fix>
</trkpt>
<trkpt lat="-27.255979" lon="151.335793">
  <ele>532.41</ele>
  <time>2026-09-01T20:00:43Z</time>
  <course>227.44</course>
  <speed>12.988306279111223</speed>
  <fix>3d</fix>
</trkpt>
<trkpt lat="-27.2568818" lon="151.3337795">
  <ele>522.08</ele>
  <time>2026-09-01T20:00:43Z</time>
  <course>239.71</course>
  <speed>14.07</speed>
  <fix>3d</fix>
</trkpt>
<trkpt lat="-27.2559866" lon="151.3357821">
  <ele>528.65</ele>
  <time>2026-09-01T20:00:43Z</time>
  <course>206.3</course>
  <speed>14.147119848223523</speed>
  <fix>3d</fix>
</trkpt>
<trkpt lat="-27.2559804" lon="151.3357939">
  <ele>532.62</ele>
  <time>2026-09-01T20:00:43Z</time>
  <course>237.36</course>
  <speed>12.39</speed>
  <fix>3d</fix>
</trkpt>
<trkpt lat="-27.2559974" lon="151.3357744">
  <ele>524.94</ele>
  <time>2026-09-01T20:00:43Z</time>
  <course>188.09</course>
  <speed>14.543538083973926</speed>
  <fix>3d</fix>
</trkpt>
<trkpt lat="-27.2559804" lon="151.3357939">
  <ele>532.62</ele>
  <time>2026-09-01T20:00:43Z</time>
  <course>237.36</course>
  <speed>12.39</speed>
  <fix>3d</fix>
</trkpt>
<trkpt lat="-27.2560096" lon="151.3357695">
  <ele>521.25</ele>
  <time>2026-09-01T20:00:43Z</time>
  <course>181.36</course>
  <speed>14.473506831448969</speed>
  <fix>3d</fix>
</trkpt>
<trkpt lat="-27.2559975" lon="151.3357762">
  <ele>525.13</ele>
  <time>2026-09-01T20:00:43Z</time>
  <course>209.89</course>
  <speed>13.91</speed>
  <fix>3d</fix>
</trkpt>
<trkpt lat="-27.2560226" lon="151.3357629">
  <ele>517.63</ele>
  <time>2026-09-01T20:00:43Z</time>
  <course>202.8</course>
  <speed>18.504145481486034</speed>
  <fix>3d</fix>
</trkpt>
<trkpt lat="-27.2559975" lon="151.3357762">
  <ele>525.13</ele>
  <time>2026-09-01T20:00:43Z</time>
  <course>209.89</course>
  <speed>13.91</speed>
  <fix>3d</fix>
</trkpt>
<trkpt lat="-27.2560381" lon="151.3357486">
  <ele>514.46</ele>
  <time>2026-09-01T20:00:43Z</time>
  <course>214.88</course>
  <speed>26.25128187346287</speed>
  <fix>3d</fix>
</trkpt>
<trkpt lat="-27.2560231" lon="151.3357596">
  <ele>518.01</ele>
  <time>2026-09-01T20:00:43Z</time>
  <course>213.55</course>
  <speed>19.7</speed>
  <fix>3d</fix>
</trkpt>
<trkpt lat="-27.2560569" lon="151.3357277">
  <ele>512.08</ele>
  <time>2026-09-01T20:00:43Z</time>
  <course>222.04</course>
  <speed>32.242340175613805</speed>
  <fix>3d</fix>
</trkpt>
<trkpt lat="-27.2560231" lon="151.3357596">
  <ele>518.01</ele>
  <time>2026-09-01T20:00:43Z</time>
  <course>213.55</course>
  <speed>19.7</speed>
  <fix>3d</fix>
</trkpt>
<trkpt lat="-27.2560778" lon="151.3357026">
  <ele>510.64</ele>
  <time>2026-09-01T20:00:43Z</time>
  <course>225.91</course>
  <speed>35.17731229073648</speed>
  <fix>3d</fix>
</trkpt>
<trkpt lat="-27.256057" lon="151.3357267">
  <ele>512.64</ele>
  <time>2026-09-01T20:00:43Z</time>
  <course>225.27</course>
  <speed>30.47</speed>
  <fix>3d</fix>
</trkpt>
<trkpt lat="-27.2560993" lon="151.3356765">
  <ele>510.28</ele>
  <time>2026-09-01T20:00:43Z</time>
  <course>226.51</course>
  <speed>34.74226532625644</speed>
  <fix>3d</fix>
</trkpt>
<trkpt lat="-27.256057" lon="151.3357267">
  <ele>512.64</ele>
  <time>2026-09-01T20:00:43Z</time>
  <course>225.27</course>
  <speed>30.47</speed>
  <fix>3d</fix>
</trkpt>
<trkpt lat="-27.2561199" lon="151.3356524">
  <ele>510.98</ele>
  <time>2026-09-01T20:00:43Z</time>
  <course>223.64</course>
  <speed>30.993368645566747</speed>
  <fix>3d</fix>
</trkpt>
<trkpt lat="-27.2560979" lon="151.3356786">
  <ele>510.8</ele>
  <time>2026-09-01T20:00:43Z</time>
  <course>226.04</course>
  <speed>33.14</speed>
  <fix>3d</fix>
</trkpt>
<trkpt lat="-27.2561389" lon="151.3356331">
  <ele>512.48</ele>
  <time>2026-09-01T20:00:43Z</time>
  <course>216.97</course>
  <speed>25.808235119821735</speed>
  <fix>3d</fix>
</trkpt>
<trkpt lat="-27.2560979" lon="151.3356786">
  <ele>510.8</ele>
  <time>2026-09-01T20:00:43Z</time>
  <course>226.04</course>
  <speed>33.14</speed>
  <fix>3d</fix>
</trkpt>
<trkpt lat="-27.256156" lon="151.3356196">
  <ele>514.44</ele>
  <time>2026-09-01T20:00:43Z</time>
  <course>207.06</course>
  <speed>20.86540198510443</speed>
  <fix>3d</fix>
</trkpt>
<trkpt lat="-27.256137" lon="151.3356367">
  <ele>512.63</ele>
  <time>2026-09-01T20:00:43Z</time>
  <course>219.17</course>
  <speed>25.96</speed>
  <fix>3d</fix>
</trkpt>
<trkpt lat="-27.2561712" lon="151.3356112">
  <ele>516.63</ele>
  <time>2026-09-01T20:00:43Z</time>
  <course>198.39</course>
  <speed>17.030425713997875</speed>
  <fix>3d</fix>
</trkpt>
<trkpt lat="-27.256137" lon="151.3356367">
  <ele>512.63</ele>
  <time>2026-09-01T20:00:43Z</time>
  <course>219.17</course>
  <speed>25.96</speed>
  <fix>3d</fix>
</trkpt>
<trkpt lat="-27.2561843" lon="151.3356067">
  <ele>518.91</ele>
  <time>2026-09-01T20:00:43Z</time>
  <course>186.45</course>
  <speed>13.516870939681269</speed>
  <fix>3d</fix>
</trkpt>
<trkpt lat="-27.2561694" lon="151.3356135">
  <ele>516.57</ele>
  <time>2026-09-01T20:00:43Z</time>
  <course>203.62</course>
  <speed>17.18</speed>
  <fix>3d</fix>
</trkpt>
<trkpt lat="-27.2561948" lon="151.3356054">
  <ele>521.23</ele>
  <time>2026-09-01T20:00:43Z</time>
  <course>171.66</course>
  <speed>10.08000496031624</speed>
  <fix>3d</fix>
</trkpt>
<trkpt lat="-27.2561694" lon="151.3356135">
  <ele>516.57</ele>
  <time>2026-09-01T20:00:43Z</time>
  <course>203.62</course>
  <speed>17.18</speed>
  <fix>3d</fix>
</trkpt>
<trkpt lat="-27.2562024" lon="151.3356063">
  <ele>523.53</ele>
  <time>2026-09-01T20:00:43Z</time>
  <course>155.4</course>
  <speed>7.082174807218472</speed>
  <fix>3d</fix>
</trkpt>
<trkpt lat="-27.2561929" lon="151.3356065">
  <ele>521.11</ele>
  <time>2026-09-01T20:00:43Z</time>
  <course>183.45</course>
  <speed>10.22</speed>
  <fix>3d</fix>
</trkpt>
<trkpt lat="-27.2562073" lon="151.3356085">
  <ele>525.77</ele>
  <time>2026-09-01T20:00:43Z</time>
  <course>142.12</course>
  <speed>4.8860311091928175</speed>
  <fix>3d</fix>
</trkpt>
<trkpt lat="-27.2561929" lon="151.3356065">
  <ele>521.11</ele>
  <time>2026-09-01T20:00:43Z</time>
  <course>183.45</course>
  <speed>10.22</speed>
  <fix>3d</fix>
</trkpt>
<trkpt lat="-27.2562102" lon="151.3356112">
  <ele>527.91</ele>
  <time>2026-09-01T20:00:43Z</time>
  <course>139.63</course>
  <speed>3.628291609008295</speed>
  <fix>3d</fix>
</trkpt>
<trkpt lat="-27.2562061" lon="151.3356086">
  <ele>525.61</ele>
  <time>2026-09-01T20:00:43Z</time>
  <course>155.7</course>
  <speed>5.26</speed>
  <fix>3d</fix>
</trkpt>
<trkpt lat="-27.2562121" lon="151.3356138">
  <ele>529.95</ele>
  <time>2026-09-01T20:00:43Z</time>
  <course>144.8</course>
  <speed>3.146124600202605</speed>
  <fix>3d</fix>
</trkpt>
<trkpt lat="-27.2562061" lon="151.3356086">
  <ele>525.61</ele>
  <time>2026-09-01T20:00:43Z</time>
  <course>155.7</course>
  <speed>5.26</speed>
  <fix>3d</fix>
</trkpt>
<trkpt lat="-27.2562139" lon="151.3356163">
  <ele>531.86</ele>
  <time>2026-09-01T20:00:43Z</time>
  <course>148.53</course>
  <speed>3.2714064253773176</speed>
  <fix>3d</fix>
</trkpt>
<trkpt lat="-27.2562119" lon="151.3356136">
  <ele>529.79</ele>
  <time>2026-09-01T20:00:43Z</time>
  <course>132.28</course>
  <speed>3.46</speed>
  <fix>3d</fix>
</trkpt>
<trkpt lat="-27.2562161" lon="151.3356188">
  <ele>533.65</ele>
  <time>2026-09-01T20:00:43Z</time>
  <course>149.45</course>
  <speed>3.8614505046679026</speed>
  <fix>3d</fix>
</trkpt>
<trkpt lat="-27.2562119" lon="151.3356136">
  <ele>529.79</ele>
  <time>2026-09-01T20:00:43Z</time>
  <course>132.28</course>
  <speed>3.46</speed>
  <fix>3d</fix>
</trkpt>
<trkpt lat="-27.2562189" lon="151.3356217">
  <ele>535.29</ele>
  <time>2026-09-01T20:00:43Z</time>
  <course>149.06</course>
  <speed>4.715612367444975</speed>
  <fix>3d</fix>
</trkpt>
<trkpt lat="-27.2562163" lon="151.3356188">
  <ele>533.5</ele>
  <time>2026-09-01T20:00:43Z</time>
  <course>135.99</course>
  <speed>3.95</speed>
  <fix>3d</fix>
</trkpt>
<trkpt lat="-27.2562226" lon="151.335625">
  <ele>536.82</ele>
  <time>2026-09-01T20:00:43Z</time>
  <course>148.34</course>
  <speed>5.618051263561058</speed>
  <fix>3d</fix>
</trkpt>
<trkpt lat="-27.2562163" lon="151.3356188">
  <ele>533.5</ele>
  <time>2026-09-01T20:00:43Z</time>
  <course>135.99</course>
  <speed>3.95</speed>
  <fix>3d</fix>
</trkpt>
<trkpt lat="-27.256227" lon="151.3356286">
  <ele>538.18</ele>
  <time>2026-09-01T20:00:43Z</time>
  <course>147.62</course>
  <speed>6.44715441105609</speed>
  <fix>3d</fix>
</trkpt>
<trkpt lat="-27.2562227" lon="151.335625">
  <ele>536.67</ele>
  <time>2026-09-01T20:00:43Z</time>
  <course>142.48</course>
  <speed>5.54</speed>
  <fix>3d</fix>
</trkpt>
<trkpt lat="-27.256232" lon="151.3356326">
  <ele>539.38</ele>
  <time>2026-09-01T20:00:43Z</time>
  <course>146.99</course>
  <speed>7.127334705203622</speed>
  <fix>3d</fix>
</trkpt>
<trkpt lat="-27.2562227" lon="151.335625">
  <ele>536.67</ele>
  <time>2026-09-01T20:00:43Z</time>
  <course>142.48</course>
  <speed>5.54</speed>
  <fix>3d</fix>
</trkpt>
<trkpt lat="-27.2562374" lon="151.3356369">
  <ele>540.44</ele>
  <time>2026-09-01T20:00:43Z</time>
  <course>146.46</course>
  <speed>7.65083655556698</speed>
  <fix>3d</fix>
</trkpt>
<trkpt lat="-27.2562319" lon="151.3356325">
  <ele>539.25</ele>
  <time>2026-09-01T20:00:43Z</time>
  <course>144.7</course>
  <speed>7.02</speed>
  <fix>3d</fix>
</trkpt>
<trkpt lat="-27.2562432" lon="151.3356413">
  <ele>541.35</ele>
  <time>2026-09-01T20:00:43Z</time>
  <course>146.02</course>
  <speed>8.013844271010013</speed>
  <fix>3d</fix>
</trkpt>
<trkpt lat="-27.2562319" lon="151.3356325">
  <ele>539.25</ele>
  <time>2026-09-01T20:00:43Z</time>
  <course>144.7</course>
  <speed>7.02</speed>
  <fix>3d</fix>
</trkpt>
<trkpt lat="-27.2562492" lon="151.3356461">
  <ele>542.13</ele>
  <time>2026-09-01T20:00:43Z</time>
  <course>145.66</course>
  <speed>8.23014580672785</speed>
  <fix>3d</fix>
</trkpt>
<trkpt lat="-27.256243" lon="151.3356413">
  <ele>541.24</ele>
  <time>2026-09-01T20:00:43Z</time>
  <course>145.26</course>
  <speed>7.93</speed>
  <fix>3d</fix>
</trkpt>
<trkpt lat="-27.2562554" lon="151.3356509">
  <ele>542.78</ele>
  <time>2026-09-01T20:00:43Z</time>
  <course>145.37</course>
  <speed>8.338297188275313</speed>
  <fix>3d</fix>
</trkpt>
<trkpt lat="-27.256243" lon="151.3356413">
  <ele>541.24</ele>
  <time>2026-09-01T20:00:43Z</time>
  <course>145.26</course>
  <speed>7.93</speed>
  <fix>3d</fix>
</trkpt>
<trkpt lat="-27.2562615" lon="151.3356557">
  <ele>543.29</ele>
  <time>2026-09-01T20:00:43Z</time>
  <course>144.97</course>
  <speed>8.402172338151605</speed>
  <fix>3d</fix>
</trkpt>
<trkpt lat="-27.2562551" lon="151.3356507">
  <ele>542.69</ele>
  <time>2026-09-01T20:00:43Z</time>
  <course>145.33</course>
  <speed>8.31</speed>
  <fix>3d</fix>
</trkpt>
<trkpt lat="-27.2562678" lon="151.3356605">
  <ele>543.72</ele>
  <time>2026-09-01T20:00:43Z</time>
  <course>144.34</course>
  <speed>8.435697955711786</speed>
  <fix>3d</fix>
</trkpt>
<trkpt lat="-27.2562551" lon="151.3356507">
  <ele>542.69</ele>
  <time>2026-09-01T20:00:43Z</time>
  <course>145.33</course>
  <speed>8.31</speed>
  <fix>3d</fix>
</trkpt>
<trkpt lat="-27.256274" lon="151.3356653">
  <ele>544.02</ele>
  <time>2026-09-01T20:00:43Z</time>
  <course>143.78</course>
  <speed>8.40786536523986</speed>
  <fix>3d</fix>
</trkpt>
<trkpt lat="-27.2562675" lon="151.3356603">
  <ele>543.65</ele>
  <time>2026-09-01T20:00:43Z</time>
  <course>145.28</course>
  <speed>8.41</speed>
  <fix>3d</fix>
</trkpt>
<trkpt lat="-27.2562802" lon="151.3356701">
  <ele>544.26</ele>
  <time>2026-09-01T20:00:43Z</time>
  <course>143.22</course>
  <speed>8.30793596508784</speed>
  <fix>3d</fix>
</trkpt>
<trkpt lat="-27.2562675" lon="151.3356603">
  <ele>543.65</ele>
  <time>2026-09-01T20:00:43Z</time>
  <course>145.28</course>
  <speed>8.41</speed>
  <fix>3d</fix>
</trkpt>
<trkpt lat="-27.2562862" lon="151.3356748">
  <ele>544.47</ele>
  <time>2026-09-01T20:00:43Z</time>
  <course>142.22</course>
  <speed>8.089128506829397</speed>
  <fix>3d</fix>
</trkpt>
<trkpt lat="-27.2562798" lon="151.3356699">
  <ele>544.23</ele>
  <time>2026-09-01T20:00:43Z</time>
  <course>145.2</course>
  <speed>8.26</speed>
  <fix>3d</fix>
</trkpt>
<trkpt lat="-27.2562921" lon="151.3356795">
  <ele>544.66</ele>
  <time>2026-09-01T20:00:43Z</time>
  <course>140.79</course>
  <speed>7.718911840408595</speed>
  <fix>3d</fix>
</trkpt>
<trkpt lat="-27.2562798" lon="151.3356699">
  <ele>544.23</ele>
  <time>2026-09-01T20:00:43Z</time>
  <course>145.2</course>
  <speed>8.26</speed>
  <fix>3d</fix>
</trkpt>
<trkpt lat="-27.2562975" lon="151.3356839">
  <ele>544.9</ele>
  <time>2026-09-01T20:00:43Z</time>
  <course>139.34</course>
  <speed>7.21099854389113</speed>
  <fix>3d</fix>
</trkpt>
<trkpt lat="-27.2562916" lon="151.3356792">
  <ele>544.67</ele>
  <time>2026-09-01T20:00:43Z</time>
  <course>144.65</course>
  <speed>7.67</speed>
  <fix>3d</fix>
</trkpt>
<trkpt lat="-27.2563025" lon="151.3356881">
  <ele>545.16</ele>
  <time>2026-09-01T20:00:43Z</time>
  <course>138.13</course>
  <speed>6.612087416240048</speed>
  <fix>3d</fix>
</trkpt>
<trkpt lat="-27.2562916" lon="151.3356792">
  <ele>544.67</ele>
  <time>2026-09-01T20:00:43Z</time>
  <course>144.65</course>
  <speed>7.67</speed>
  <fix>3d</fix>
</trkpt>
<trkpt lat="-27.2563071" lon="151.3356919">
  <ele>545.44</ele>
  <time>2026-09-01T20:00:43Z</time>
  <course>137.16</course>
  <speed>5.966121017880881</speed>
  <fix>3d</fix>
</trkpt>
<trkpt lat="-27.2563021" lon="151.3356877">
  <ele>545.16</ele>
  <time>2026-09-01T20:00:43Z</time>
  <course>143.5</course>
  <speed>6.62</speed>
  <fix>3d</fix>
</trkpt>
<trkpt lat="-27.2563111" lon="151.3356954">
  <ele>545.75</ele>
  <time>2026-09-01T20:00:43Z</time>
  <course>136.38</course>
  <speed>5.322865769489214</speed>
  <fix>3d</fix>
</trkpt>
<trkpt lat="-27.2563021" lon="151.3356877">
  <ele>545.16</ele>
  <time>2026-09-01T20:00:43Z</time>
  <course>143.5</course>
  <speed>6.62</speed>
  <fix>3d</fix>
</trkpt>
<trkpt lat="-27.2563146" lon="151.3356985">
  <ele>546.06</ele>
  <time>2026-09-01T20:00:43Z</time>
  <course>135.7</course>
  <speed>4.682093548830481</speed>
  <fix>3d</fix>
</trkpt>
<trkpt lat="-27.2563107" lon="151.335695">
  <ele>545.74</ele>
  <time>2026-09-01T20:00:43Z</time>
  <course>142.2</course>
  <speed>5.36</speed>
  <fix>3d</fix>
</trkpt>
<trkpt lat="-27.2563177" lon="151.3357012">
  <ele>546.39</ele>
  <time>2026-09-01T20:00:43Z</time>
  <course>135.11</course>
  <speed>4.065390510147826</speed>
  <fix>3d</fix>
</trkpt>
<trkpt lat="-27.2563107" lon="151.335695">
  <ele>545.74</ele>
  <time>2026-09-01T20:00:43Z</time>
  <course>142.2</course>
  <speed>5.36</speed>
  <fix>3d</fix>
</trkpt>
<trkpt lat="-27.2563203" lon="151.3357036">
  <ele>546.72</ele>
  <time>2026-09-01T20:00:43Z</time>
  <course>134.59</course>
  <speed>3.471094928117063</speed>
  <fix>3d</fix>
</trkpt>
<trkpt lat="-27.2563173" lon="151.3357009">
  <ele>546.37</ele>
  <time>2026-09-01T20:00:43Z</time>
  <course>140.87</course>
  <speed>4.11</speed>
  <fix>3d</fix>
</trkpt>
<trkpt lat="-27.2563225" lon="151.3357058">
  <ele>547.05</ele>
  <time>2026-09-01T20:00:44Z</time>
  <course>134.13</course>
  <speed>2.9068883707497264</speed>
  <fix>3d</fix>
</trkpt>
<trkpt lat="-27.2563173" lon="151.3357009">
  <ele>546.37</ele>
  <time>2026-09-01T20:00:44Z</time>
  <course>140.87</course>
  <speed>4.11</speed>
  <fix>3d</fix>
</trkpt>
<trkpt lat="-27.2563243" lon="151.3357076">
  <ele>547.39</ele>
  <time>2026-09-01T20:00:44Z</time>
  <course>133.75</course>
  <speed>2.350319127267614</speed>
  <fix>3d</fix>
</trkpt>
<trkpt lat="-27.2563222" lon="151.3357055">
  <ele>547.03</ele>
  <time>2026-09-01T20:00:44Z</time>
  <course>139.19</course>
  <speed>2.94</speed>
  <fix>3d</fix>
</trkpt>
<trkpt lat="-27.2563256" lon="151.3357089">
  <ele>547.73</ele>
  <time>2026-09-01T20:00:44Z</time>
  <course>133.44</course>
  <speed>1.7962739212046697</speed>
  <fix>3d</fix>
</trkpt>
<trkpt lat="-27.2563222" lon="151.3357055">
  <ele>547.03</ele>
  <time>2026-09-01T20:00:44Z</time>
  <course>139.19</course>
  <speed>2.94</speed>
  <fix>3d</fix>
</trkpt>
<trkpt lat="-27.2563266" lon="151.3357101">
  <ele>548.07</ele>
  <time>2026-09-01T20:00:44Z</time>
  <course>133.19</course>
  <speed>1.2525573839150046</speed>
  <fix>3d</fix>
</trkpt>
<trkpt lat="-27.2563253" lon="151.3357088">
  <ele>547.7</ele>
  <time>2026-09-01T20:00:44Z</time>
  <course>136.1</course>
  <speed>1.83</speed>
  <fix>3d</fix>
</trkpt>
<trkpt lat="-27.2563273" lon="151.3357111">
  <ele>548.37</ele>
  <time>2026-09-01T20:00:44Z</time>
  <course>132.99</course>
  <speed>1.2740486646906388</speed>
  <fix>3d</fix>
</trkpt>
<trkpt lat="-27.2563253" lon="151.3357088">
  <ele>547.7</ele>
  <time>2026-09-01T20:00:44Z</time>
  <course>136.1</course>
  <speed>1.83</speed>
  <fix>3d</fix>
</trkpt>
<trkpt lat="-27.2563281" lon="151.335712">
  <ele>548.56</ele>
  <time>2026-09-01T20:00:44Z</time>
  <course>132.82</course>
  <speed>1.3164345787011218</speed>
  <fix>3d</fix>
</trkpt>
<trkpt lat="-27.2563273" lon="151.335711">
  <ele>548.3</ele>
  <time>2026-09-01T20:00:44Z</time>
  <course>132.67</course>
  <speed>1.3</speed>
  <fix>3d</fix>
</trkpt>
<trkpt lat="-27.2563289" lon="151.335713">
  <ele>548.65</ele>
  <time>2026-09-01T20:00:44Z</time>
  <course>132.65</course>
  <speed>1.3164345787011218</speed>
  <fix>3d</fix>
</trkpt>
<trkpt lat="-27.2563273" lon="151.335711">
  <ele>548.3</ele>
  <time>2026-09-01T20:00:44Z</time>
  <course>132.67</course>
  <speed>1.3</speed>
  <fix>3d</fix>
</trkpt>
<trkpt lat="-27.2563297" lon="151.335714">
  <ele>548.65</ele>
  <time>2026-09-01T20:00:44Z</time>
  <course>132.49</course>
  <speed>1.3023056476879764</speed>
  <fix>3d</fix>
</trkpt>
<trkpt lat="-27.2563289" lon="151.335713">
  <ele>548.6</ele>
  <time>2026-09-01T20:00:44Z</time>
  <course>132.57</course>
  <speed>1.31</speed>
  <fix>3d</fix>
</trkpt>
<trkpt lat="-27.2563305" lon="151.335715">
  <ele>548.55</ele>
  <time>2026-09-01T20:00:44Z</time>
  <course>132.33</course>
  <speed>1.2666885963013956</speed>
  <fix>3d</fix>
</trkpt>
<trkpt lat="-27.2563289" lon="151.335713">
  <ele>548.6</ele>
  <time>2026-09-01T20:00:44Z</time>
  <course>132.57</course>
  <speed>1.31</speed>
  <fix>3d</fix>
</trkpt>
<trkpt lat="-27.2563313" lon="151.3357159">
  <ele>548.36</ele>
  <time>2026-09-01T20:00:44Z</time>
  <course>131.93</course>
  <speed>1.188276062201036</speed>
  <fix>3d</fix>
</trkpt>
<trkpt lat="-27.2563305" lon="151.3357149">
  <ele>548.51</ele>
  <time>2026-09-01T20:00:44Z</time>
  <course>133.08</course>
  <speed>1.25</speed>
  <fix>3d</fix>
</trkpt>
<trkpt lat="-27.256332" lon="151.3357167">
  <ele>548.1</ele>
  <time>2026-09-01T20:00:44Z</time>
  <course>130.25</course>
  <speed>1.084665847162157</speed>
  <fix>3d</fix>
</trkpt>
<trkpt lat="-27.2563305" lon="151.3357149">
  <ele>548.51</ele>
  <time>2026-09-01T20:00:44Z</time>
  <course>133.08</course>
  <speed>1.25</speed>
  <fix>3d</fix>
</trkpt>
<trkpt lat="-27.2563328" lon="151.3357173">
  <ele>547.77</ele>
  <time>2026-09-01T20:00:44Z</time>
  <course>126.47</course>
  <speed>1.0124228365658294</speed>
  <fix>3d</fix>
</trkpt>
<trkpt lat="-27.256332" lon="151.3357165">
  <ele>548.07</ele>
  <time>2026-09-01T20:00:44Z</time>
  <course>139.8</course>
  <speed>1.1</speed>
  <fix>3d</fix>
</trkpt>
<trkpt lat="-27.2563335" lon="151.3357178">
  <ele>547.41</ele>
  <time>2026-09-01T20:00:44Z</time>
  <course>122.24</course>
  <speed>0.9073588044428731</speed>
  <fix>3d</fix>
</trkpt>
<trkpt lat="-27.256332" lon="151.3357165">
  <ele>548.07</ele>
  <time>2026-09-01T20:00:44Z</time>
  <course>139.8</course>
  <speed>1.1</speed>
  <fix>3d</fix>
</trkpt>
<trkpt lat="-27.2563342" lon="151.3357183">
  <ele>547.0</ele>
  <time>2026-09-01T20:00:44Z</time>
  <course>118.82</course>
  <speed>0.8405950273467003</speed>
  <fix>3d</fix>
</trkpt>
<trkpt lat="-27.2563334" lon="151.3357178">
  <ele>547.4</ele>
  <time>2026-09-01T20:00:44Z</time>
  <course>147.41</course>
  <speed>0.93</speed>
  <fix>3d</fix>
</trkpt>
<trkpt lat="-27.2563348" lon="151.3357188">
  <ele>546.55</ele>
  <time>2026-09-01T20:00:44Z</time>
  <course>116.27</course>
  <speed>0.7849203781276163</speed>
  <fix>3d</fix>
</trkpt>
<trkpt lat="-27.2563334" lon="151.3357178">
  <ele>547.4</ele>
  <time>2026-09-01T20:00:44Z</time>
  <course>147.41</course>
  <speed>0.93</speed>
  <fix>3d</fix>
</trkpt>
<trkpt lat="-27.2563354" lon="151.3357192">
  <ele>546.07</ele>
  <time>2026-09-01T20:00:44Z</time>
  <course>114.5</course>
  <speed>0.7720103626247513</speed>
  <fix>3d</fix>
</trkpt>
<trkpt lat="-27.2563347" lon="151.3357187">
  <ele>546.55</ele>
  <time>2026-09-01T20:00:44Z</time>
  <course>145.62</course>
  <speed>0.81</speed>
  <fix>3d</fix>
</trkpt>
<trkpt lat="-27.2563359" lon="151.3357197">
  <ele>545.53</ele>
  <time>2026-09-01T20:00:44Z</time>
  <course>113.29</course>
  <speed>0.8146778504415104</speed>
  <fix>3d</fix>
</trkpt>
<trkpt lat="-27.2563347" lon="151.3357187">
  <ele>546.55</ele>
  <time>2026-09-01T20:00:44Z</time>
  <course>145.62</course>
  <speed>0.81</speed>
  <fix>3d</fix>
</trkpt>
<trkpt lat="-27.2563365" lon="151.3357203">
  <ele>544.94</ele>
  <time>2026-09-01T20:00:44Z</time>
  <course>112.67</course>
  <speed>0.8909545442950498</speed>
  <fix>3d</fix>
</trkpt>
<trkpt lat="-27.2563359" lon="151.3357197">
  <ele>545.52</ele>
  <time>2026-09-01T20:00:44Z</time>
  <course>138.87</course>
  <speed>0.83</speed>
  <fix>3d</fix>
</trkpt>
<trkpt lat="-27.2563371" lon="151.3357211">
  <ele>544.27</ele>
  <time>2026-09-01T20:00:44Z</time>
  <course>113.06</course>
  <speed>1.254312560727987</speed>
  <fix>3d</fix>
</trkpt>
<trkpt lat="-27.2563359" lon="151.3357197">
  <ele>545.52</ele>
  <time>2026-09-01T20:00:44Z</time>
  <course>138.87</course>
  <speed>0.83</speed>
  <fix>3d</fix>
</trkpt>
<trkpt lat="-27.2563378" lon="151.3357223">
  <ele>543.53</ele>
  <time>2026-09-01T20:00:44Z</time>
  <course>117.64</course>
  <speed>1.7541949720598335</speed>
  <fix>3d</fix>
</trkpt>
<trkpt lat="-27.2563371" lon="151.3357213">
  <ele>544.26</ele>
  <time>2026-09-01T20:00:44Z</time>
  <course>124.25</course>
  <speed>1.3</speed>
  <fix>3d</fix>
</trkpt>
<trkpt lat="-27.2563386" lon="151.335724">
  <ele>542.71</ele>
  <time>2026-09-01T20:00:44Z</time>
  <course>154.09</course>
  <speed>1.7670597047072292</speed>
  <fix>3d</fix>
</trkpt>
<trkpt lat="-27.2563371" lon="151.3357213">
  <ele>544.26</ele>
  <time>2026-09-01T20:00:44Z</time>
  <course>124.25</course>
  <speed>1.3</speed>
  <fix>3d</fix>
</trkpt>
<trkpt lat="-27.2563393" lon="151.3357255">
  <ele>541.78</ele>
  <time>2026-09-01T20:00:44Z</time>
  <course>245.77</course>
  <speed>1.4066271716414411</speed>
  <fix>3d</fix>
</trkpt>
<trkpt lat="-27.2563385" lon="151.3357239">
  <ele>542.7</ele>
  <time>2026-09-01T20:00:44Z</time>
  <course>120.17</course>
  <speed>1.59</speed>
  <fix>3d</fix>
</trkpt>
<trkpt lat="-27.2563399" lon="151.3357264">
  <ele>540.77</ele>
  <time>2026-09-01T20:00:44Z</time>
  <course>253.04</course>
  <speed>0.9343446901438461</speed>
  <fix>3d</fix>
</trkpt>
<trkpt lat="-27.2563385" lon="151.3357239">
  <ele>542.7</ele>
  <time>2026-09-01T20:00:44Z</time>
  <course>120.17</course>
  <speed>1.59</speed>
  <fix>3d</fix>
</trkpt>
<trkpt lat="-27.2563404" lon="151.3357269">
  <ele>539.64</ele>
  <time>2026-09-01T20:00:44Z</time>
  <course>247.57</course>
  <speed>0.5682429058070149</speed>
  <fix>3d</fix>
</trkpt>
<trkpt lat="-27.2563398" lon="151.3357261">
  <ele>540.76</ele>
  <time>2026-09-01T20:00:44Z</time>
  <course>129.95</course>
  <speed>0.98</speed>
  <fix>3d</fix>
</trkpt>
<trkpt lat="-27.2563408" lon="151.335727">
  <ele>538.44</ele>
  <time>2026-09-01T20:00:44Z</time>
  <course>243.32</course>
  <speed>0.3901281840626232</speed>
  <fix>3d</fix>
</trkpt>
<trkpt lat="-27.2563398" lon="151.3357261">
  <ele>540.76</ele>
  <time>2026-09-01T20:00:44Z</time>
  <course>129.95</course>
  <speed>0.98</speed>
  <fix>3d</fix>
</trkpt>
<trkpt lat="-27.2563411" lon="151.3357269">
  <ele>537.14</ele>
  <time>2026-09-01T20:00:44Z</time>
  <course>247.96</course>
  <speed>0.3584689665786984</speed>
  <fix>3d</fix>
</trkpt>
<trkpt lat="-27.2563407" lon="151.3357269">
  <ele>538.45</ele>
  <time>2026-09-01T20:00:44Z</time>
  <course>171.73</course>
  <speed>0.41</speed>
  <fix>3d</fix>
</trkpt>
<trkpt lat="-27.2563414" lon="151.3357266">
  <ele>535.76</ele>
  <time>2026-09-01T20:00:44Z</time>
  <course>260.8</course>
  <speed>0.4661544808322666</speed>
  <fix>3d</fix>
</trkpt>
<trkpt lat="-27.2563407" lon="151.3357269">
  <ele>538.45</ele>
  <time>2026-09-01T20:00:44Z</time>
  <course>171.73</course>
  <speed>0.41</speed>
  <fix>3d</fix>
</trkpt>
<trkpt lat="-27.2563414" lon="151.335726">
  <ele>534.29</ele>
  <time>2026-09-01T20:00:44Z</time>
  <course>277.72</course>
  <speed>0.7679192665899195</speed>
  <fix>3d</fix>
</trkpt>
<trkpt lat="-27.2563412" lon="151.3357265">
  <ele>535.78</ele>
  <time>2026-09-01T20:00:44Z</time>
  <course>256.66</course>
  <speed>0.47</speed>
  <fix>3d</fix>
</trkpt>
<trkpt lat="-27.2563411" lon="151.3357251">
  <ele>532.75</ele>
  <time>2026-09-01T20:00:44Z</time>
  <course>295.76</course>
  <speed>1.2794530081249564</speed>
  <fix>3d</fix>
</trkpt>
<trkpt lat="-27.2563412" lon="151.3357265">
  <ele>535.78</ele>
  <time>2026-09-01T20:00:44Z</time>
  <course>256.66</course>
  <speed>0.47</speed>
  <fix>3d</fix>
</trkpt>
<trkpt lat="-27.2563402" lon="151.335724">
  <ele>531.13</ele>
  <time>2026-09-01T20:00:44Z</time>
  <course>313.84</course>
  <speed>1.9134262462922367</speed>
  <fix>3d</fix>
</trkpt>
<trkpt lat="-27.2563408" lon="151.3357251">
  <ele>532.78</ele>
  <time>2026-09-01T20:00:44Z</time>
  <course>306.86</course>
  <speed>1.25</speed>
  <fix>3d</fix>
</trkpt>
<trkpt lat="-27.2563385" lon="151.3357227">
  <ele>529.45</ele>
  <time>2026-09-01T20:00:44Z</time>
  <course>331.95</course>
  <speed>2.5848984506165804</speed>
  <fix>3d</fix>
</trkpt>
<trkpt lat="-27.2563408" lon="151.3357251">
  <ele>532.78</ele>
  <time>2026-09-01T20:00:44Z</time>
  <course>306.86</course>
  <speed>1.25</speed>
  <fix>3d</fix>
</trkpt>
<trkpt lat="-27.2563361" lon="151.3357217">
  <ele>527.7</ele>
  <time>2026-09-01T20:00:44Z</time>
  <course>350.34</course>
  <speed>3.2334810962799825</speed>
  <fix>3d</fix>
</trkpt>
<trkpt lat="-27.2563382" lon="151.3357229">
  <ele>529.48</ele>
  <time>2026-09-01T20:00:44Z</time>
  <course>335.88</course>
  <speed>2.47</speed>
  <fix>3d</fix>
</trkpt>
<trkpt lat="-27.2563329" lon="151.3357213">
  <ele>525.89</ele>
  <time>2026-09-01T20:00:44Z</time>
  <course>9.19</course>
  <speed>3.8002105204843586</speed>
  <fix>3d</fix>
</trkpt>
<trkpt lat="-27.2563382" lon="151.3357229">
  <ele>529.48</ele>
  <time>2026-09-01T20:00:44Z</time>
  <course>335.88</course>
  <speed>2.47</speed>
  <fix>3d</fix>
</trkpt>
<trkpt lat="-27.2563294" lon="151.3357217">
  <ele>524.03</ele>
  <time>2026-09-01T20:00:44Z</time>
  <course>28.65</course>
  <speed>4.25208184305053</speed>
  <fix>3d</fix>
</trkpt>
<trkpt lat="-27.2563328" lon="151.3357217">
  <ele>525.94</ele>
  <time>2026-09-01T20:00:44Z</time>
  <course>2.27</course>
  <speed>3.61</speed>
  <fix>3d</fix>
</trkpt>
<trkpt lat="-27.2563257" lon="151.3357235">
  <ele>522.1</ele>
  <time>2026-09-01T20:00:44Z</time>
  <course>48.88</course>
  <speed>4.555809478018149</speed>
  <fix>3d</fix>
</trkpt>
<trkpt lat="-27.2563328" lon="151.3357217">
  <ele>525.94</ele>
  <time>2026-09-01T20:00:44Z</time>
  <course>2.27</course>
  <speed>3.61</speed>
  <fix>3d</fix>
</trkpt>
<trkpt lat="-27.2563224" lon="151.3357264">
  <ele>520.12</ele>
  <time>2026-09-01T20:00:44Z</time>
  <course>70.2</course>
  <speed>4.674409053559605</speed>
  <fix>3d</fix>
</trkpt>
<trkpt lat="-27.256326" lon="151.335724">
  <ele>522.16</ele>
  <time>2026-09-01T20:00:44Z</time>
  <course>30.5</course>
  <speed>4.3</speed>
  <fix>3d</fix>
</trkpt>
<trkpt lat="-27.25632" lon="151.3357302">
  <ele>518.08</ele>
  <time>2026-09-01T20:00:44Z</time>
  <course>93.08</course>
  <speed>4.588725313199735</speed>
  <fix>3d</fix>
</trkpt>
<trkpt lat="-27.256326" lon="151.335724">
  <ele>522.16</ele>
  <time>2026-09-01T20:00:44Z</time>
  <course>30.5</course>
  <speed>4.3</speed>
  <fix>3d</fix>
</trkpt>
<trkpt lat="-27.2563187" lon="151.3357345">
  <ele>515.98</ele>
  <time>2026-09-01T20:00:44Z</time>
  <course>118.12</course>
  <speed>4.288029850642367</speed>
  <fix>3d</fix>
</trkpt>
<trkpt lat="-27.2563206" lon="151.3357303">
  <ele>518.14</ele>
  <time>2026-09-01T20:00:44Z</time>
  <course>62.09</course>
  <speed>4.28</speed>
  <fix>3d</fix>
</trkpt>
<trkpt lat="-27.2563188" lon="151.3357385">
  <ele>513.79</ele>
  <time>2026-09-01T20:00:44Z</time>
  <course>145.97</course>
  <speed>3.777856535126764</speed>
  <fix>3d</fix>
</trkpt>
<trkpt lat="-27.2563206" lon="151.3357303">
  <ele>518.14</ele>
  <time>2026-09-01T20:00:44Z</time>
  <course>62.09</course>
  <speed>4.28</speed>
  <fix>3d</fix>
</trkpt>
<trkpt lat="-27.2563201" lon="151.3357417">
  <ele>511.57</ele>
  <time>2026-09-01T20:00:44Z</time>
  <course>177.03</course>
  <speed>3.112699792784392</speed>
  <fix>3d</fix>
</trkpt>
<trkpt lat="-27.2563194" lon="151.3357379">
  <ele>513.86</ele>
  <time>2026-09-01T20:00:44Z</time>
  <course>99.93</course>
  <speed>3.43</speed>
  <fix>3d</fix>
</trkpt>
<trkpt lat="-27.2563221" lon="151.3357433">
  <ele>509.26</ele>
  <time>2026-09-01T20:00:44Z</time>
  <course>210.76</course>
  <speed>2.44468811916776</speed>
  <fix>3d</fix>
</trkpt>
<trkpt lat="-27.2563194" lon="151.3357379">
  <ele>513.86</ele>
  <time>2026-09-01T20:00:44Z</time>
  <course>99.93</course>
  <speed>3.43</speed>
  <fix>3d</fix>
</trkpt>
<trkpt lat="-27.256324" lon="151.3357431">
  <ele>506.9</ele>
  <time>2026-09-01T20:00:44Z</time>
  <course>245.26</course>
  <speed>2.1125576915199265</speed>
  <fix>3d</fix>
</trkpt>
<trkpt lat="-27.256322" lon="151.3357424">
  <ele>509.33</ele>
  <time>2026-09-01T20:00:44Z</time>
  <course>157.63</course>
  <speed>2.04</speed>
  <fix>3d</fix>
</trkpt>
<trkpt lat="-27.2563252" lon="151.3357414">
  <ele>504.49</ele>
  <time>2026-09-01T20:00:44Z</time>
  <course>278.49</course>
  <speed>2.424252462100431</speed>
  <fix>3d</fix>
</trkpt>
<trkpt lat="-27.256322" lon="151.3357424">
  <ele>509.33</ele>
  <time>2026-09-01T20:00:44Z</time>
  <course>157.63</course>
  <speed>2.04</speed>
  <fix>3d</fix>
</trkpt>
<trkpt lat="-27.2563248" lon="151.3357386">
  <ele>502.04</ele>
  <time>2026-09-01T20:00:44Z</time>
  <course>309.69</course>
  <speed>3.1888869531546584</speed>
  <fix>3d</fix>
</trkpt>
<trkpt lat="-27.2563243" lon="151.3357409">
  <ele>504.57</ele>
  <time>2026-09-01T20:00:44Z</time>
  <course>261.29</course>
  <speed>1.93</speed>
  <fix>3d</fix>
</trkpt>
<trkpt lat="-27.2563226" lon="151.335736">
  <ele>499.55</ele>
  <time>2026-09-01T20:00:44Z</time>
  <course>339.22</course>
  <speed>4.04708537097996</speed>
  <fix>3d</fix>
</trkpt>
<trkpt lat="-27.2563243" lon="151.3357409">
  <ele>504.57</ele>
  <time>2026-09-01T20:00:44Z</time>
  <course>261.29</course>
  <speed>1.93</speed>
  <fix>3d</fix>
</trkpt>
<trkpt lat="-27.256319" lon="151.3357344">
  <ele>497.03</ele>
  <time>2026-09-01T20:00:44Z</time>
  <course>7.91</course>
  <speed>4.777656329205775</speed>
  <fix>3d</fix>
</trkpt>
<trkpt lat="-27.2563219" lon="151.3357366">
  <ele>499.64</ele>
  <time>2026-09-01T20:00:44Z</time>
  <course>328.23</course>
  <speed>3.52</speed>
  <fix>3d</fix>
</trkpt>
<trkpt lat="-27.2563145" lon="151.3357347">
  <ele>494.48</ele>
  <time>2026-09-01T20:00:44Z</time>
  <course>36.6</course>
  <speed>5.24218465909014</speed>
  <fix>3d</fix>
</trkpt>
<trkpt lat="-27.2563219" lon="151.3357366">
  <ele>499.64</ele>
  <time>2026-09-01T20:00:44Z</time>
  <course>328.23</course>
  <speed>3.52</speed>
  <fix>3d</fix>
</trkpt>
<trkpt lat="-27.2563102" lon="151.3357371">
  <ele>491.9</ele>
  <time>2026-09-01T20:00:44Z</time>
  <course>66.06</course>
  <speed>5.393078897995095</speed>
  <fix>3d</fix>
</trkpt>
<trkpt lat="-27.2563147" lon="151.3357356">
  <ele>494.57</ele>
  <time>2026-09-01T20:00:44Z</time>
  <course>15.81</course>
  <speed>4.63</speed>
  <fix>3d</fix>
</trkpt>
<trkpt lat="-27.2563073" lon="151.3357413">
  <ele>489.27</ele>
  <time>2026-09-01T20:00:44Z</time>
  <course>97.08</course>
  <speed>5.202201457075648</speed>
  <fix>3d</fix>
</trkpt>
<trkpt lat="-27.2563147" lon="151.3357356">
  <ele>494.57</ele>
  <time>2026-09-01T20:00:44Z</time>
  <course>15.81</course>
  <speed>4.63</speed>
  <fix>3d</fix>
</trkpt>
<trkpt lat="-27.2563064" lon="151.3357462">
  <ele>486.61</ele>
  <time>2026-09-01T20:00:44Z</time>
  <course>130.5</course>
  <speed>4.682734244007447</speed>
  <fix>3d</fix>
</trkpt>
<trkpt lat="-27.2563084" lon="151.3357414">
  <ele>489.35</ele>
  <time>2026-09-01T20:00:44Z</time>
  <course>62.77</course>
  <speed>4.53</speed>
  <fix>3d</fix>
</trkpt>
<trkpt lat="-27.2563075" lon="151.3357503">
  <ele>483.9</ele>
  <time>2026-09-01T20:00:44Z</time>
  <course>166.84</course>
  <speed>3.963357162810336</speed>
  <fix>3d</fix>
</trkpt>
<trkpt lat="-27.2563084" lon="151.3357414">
  <ele>489.35</ele>
  <time>2026-09-01T20:00:44Z</time>
  <course>62.77</course>
  <speed>4.53</speed>
  <fix>3d</fix>
</trkpt>
<trkpt lat="-27.25631" lon="151.3357524">
  <ele>481.12</ele>
  <time>2026-09-01T20:00:44Z</time>
  <course>205.97</course>
  <speed>3.266435365960882</speed>
  <fix>3d</fix>
</trkpt>
<trkpt lat="-27.2563081" lon="151.3357492">
  <ele>483.96</ele>
  <time>2026-09-01T20:00:44Z</time>
  <course>119.36</course>
  <speed>3.28</speed>
  <fix>3d</fix>
</trkpt>
<trkpt lat="-27.2563127" lon="151.335752">
  <ele>478.32</ele>
  <time>2026-09-01T20:00:44Z</time>
  <course>245.34</course>
  <speed>3.0042137074449284</speed>
  <fix>3d</fix>
</trkpt>
<trkpt lat="-27.2563081" lon="151.3357492">
  <ele>483.96</ele>
  <time>2026-09-01T20:00:44Z</time>
  <course>119.36</course>
  <speed>3.28</speed>
  <fix>3d</fix>
</trkpt>
<trkpt lat="-27.2563141" lon="151.3357495">
  <ele>475.49</ele>
  <time>2026-09-01T20:00:44Z</time>
  <course>283.25</course>
  <speed>3.401543767173958</speed>
  <fix>3d</fix>
</trkpt>
<trkpt lat="-27.2563119" lon="151.335751">
  <ele>478.41</ele>
  <time>2026-09-01T20:00:44Z</time>
  <course>211.38</course>
  <speed>2.2</speed>
  <fix>3d</fix>
</trkpt>
<trkpt lat="-27.2563134" lon="151.3357459">
  <ele>472.64</ele>
  <time>2026-09-01T20:00:44Z</time>
  <course>319.04</course>
  <speed>4.17943776123057</speed>
  <fix>3d</fix>
</trkpt>
<trkpt lat="-27.2563119" lon="151.335751">
  <ele>478.41</ele>
  <time>2026-09-01T20:00:44Z</time>
  <course>211.38</course>
  <speed>2.2</speed>
  <fix>3d</fix>
</trkpt>
<trkpt lat="-27.2563104" lon="151.3357428">
  <ele>469.78</ele>
  <time>2026-09-01T20:00:44Z</time>
  <course>353.26</course>
  <speed>4.955522172284168</speed>
  <fix>3d</fix>
</trkpt>
<trkpt lat="-27.2563123" lon="151.3357462">
  <ele>472.75</ele>
  <time>2026-09-01T20:00:44Z</time>
  <course>304.0</course>
  <speed>3.36</speed>
  <fix>3d</fix>
</trkpt>
<trkpt lat="-27.2545198" lon="151.3397839">
  <ele>540.5</ele>
  <time>2026-09-01T20:00:44Z</time>
  <course>236.78</course>
  <speed>13.230937230597084</speed>
  <fix>3d</fix>
</trkpt>
<trkpt lat="-27.2563123" lon="151.3357462">
  <ele>472.75</ele>
  <time>2026-09-01T20:00:44Z</time>
  <course>304.0</course>
  <speed>3.36</speed>
  <fix>3d</fix>
</trkpt>
<trkpt lat="-27.2545247" lon="151.3397693">
  <ele>536.81</ele>
  <time>2026-09-01T20:00:44Z</time>
  <course>234.59</course>
  <speed>18.273872058214703</speed>
  <fix>3d</fix>
</trkpt>
<trkpt lat="-27.2554175" lon="151.3377564">
  <ele>503.43</ele>
  <time>2026-09-01T20:00:44Z</time>
  <course>262.49</course>
  <speed>9.55</speed>
  <fix>3d</fix>
</trkpt>
<trkpt lat="-27.2545321" lon="151.3397498">
  <ele>533.44</ele>
  <time>2026-09-01T20:00:44Z</time>
  <course>239.92</course>
  <speed>23.122478240880667</speed>
  <fix>3d</fix>
</trkpt>
<trkpt lat="-27.2554175" lon="151.3377564">
  <ele>503.43</ele>
  <time>2026-09-01T20:00:44Z</time>
  <course>262.49</course>
  <speed>9.55</speed>
  <fix>3d</fix>
</trkpt>
<trkpt lat="-27.254542" lon="151.3397271">
  <ele>530.41</ele>
  <time>2026-09-01T20:00:44Z</time>
  <course>236.8</course>
  <speed>26.875596737561008</speed>
  <fix>3d</fix>
</trkpt>
<trkpt lat="-27.2545329" lon="151.3397489">
  <ele>533.75</ele>
  <time>2026-09-01T20:00:44Z</time>
  <course>244.07</course>
  <speed>22.37</speed>
  <fix>3d</fix>
</trkpt>
<trkpt lat="-27.2545553" lon="151.339703">
  <ele>527.72</ele>
  <time>2026-09-01T20:00:44Z</time>
  <course>226.09</course>
  <speed>28.80658605249848</speed>
  <fix>3d</fix>
</trkpt>
<trkpt lat="-27.2545329" lon="151.3397489">
  <ele>533.75</ele>
  <time>2026-09-01T20:00:44Z</time>
  <course>244.07</course>
  <speed>22.37</speed>
  <fix>3d</fix>
</trkpt>
<trkpt lat="-27.2545723" lon="151.3396807">
  <ele>525.19</ele>
  <time>2026-09-01T20:00:44Z</time>
  <course>213.03</course>
  <speed>29.309679288589972</speed>
  <fix>3d</fix>
</trkpt>
<trkpt lat="-27.2545565" lon="151.3397048">
  <ele>527.91</ele>
  <time>2026-09-01T20:00:44Z</time>
  <course>233.11</course>
  <speed>27.75</speed>
  <fix>3d</fix>
</trkpt>
<trkpt lat="-27.2545922" lon="151.3396617">
  <ele>522.7</ele>
  <time>2026-09-01T20:00:44Z</time>
  <course>206.41</course>
  <speed>28.758423113933073</speed>
  <fix>3d</fix>
</trkpt>
<trkpt lat="-27.2545565" lon="151.3397048">
  <ele>527.91</ele>
  <time>2026-09-01T20:00:44Z</time>
  <course>233.11</course>
  <speed>27.75</speed>
  <fix>3d</fix>
</trkpt>
<trkpt lat="-27.2546126" lon="151.339644">
  <ele>520.21</ele>
  <time>2026-09-01T20:00:44Z</time>
  <course>219.81</course>
  <speed>29.29976450417307</speed>
  <fix>3d</fix>
</trkpt>
<trkpt lat="-27.2545916" lon="151.3396632">
  <ele>522.8</ele>
  <time>2026-09-01T20:00:44Z</time>
  <course>222.8</course>
  <speed>29.24</speed>
  <fix>3d</fix>
</trkpt>
<trkpt lat="-27.2546318" lon="151.339622">
  <ele>517.99</ele>
  <time>2026-09-01T20:00:44Z</time>
  <course>231.14</course>
  <speed>31.933876996067983</speed>
  <fix>3d</fix>
</trkpt>
<trkpt lat="-27.2545916" lon="151.3396632">
  <ele>522.8</ele>
  <time>2026-09-01T20:00:44Z</time>
  <course>222.8</course>
  <speed>29.24</speed>
  <fix>3d</fix>
</trkpt>
<trkpt lat="-27.2546496" lon="151.3395951">
  <ele>516.35</ele>
  <time>2026-09-01T20:00:44Z</time>
  <course>237.03</course>
  <speed>34.363726515033264</speed>
  <fix>3d</fix>
</trkpt>
<trkpt lat="-27.2546303" lon="151.3396206">
  <ele>518.36</ele>
  <time>2026-09-01T20:00:44Z</time>
  <course>228.8</course>
  <speed>31.46</speed>
  <fix>3d</fix>
</trkpt>
<trkpt lat="-27.2546662" lon="151.339565">
  <ele>515.38</ele>
  <time>2026-09-01T20:00:44Z</time>
  <course>240.71</course>
  <speed>35.35160533837183</speed>
  <fix>3d</fix>
</trkpt>
<trkpt lat="-27.2546303" lon="151.3396206">
  <ele>518.36</ele>
  <time>2026-09-01T20:00:44Z</time>
  <course>228.8</course>
  <speed>31.46</speed>
  <fix>3d</fix>
</trkpt>
<trkpt lat="-27.2546816" lon="151.339534">
  <ele>515.14</ele>
  <time>2026-09-01T20:00:44Z</time>
  <course>242.03</course>
  <speed>34.73677158286302</speed>
  <fix>3d</fix>
</trkpt>
<trkpt lat="-27.2546649" lon="151.3395658">
  <ele>515.77</ele>
  <time>2026-09-01T20:00:44Z</time>
  <course>238.67</course>
  <speed>34.51</speed>
  <fix>3d</fix>
</trkpt>
<trkpt lat="-27.2546963" lon="151.3395042">
  <ele>515.62</ele>
  <time>2026-09-01T20:00:44Z</time>
  <course>241.06</course>
  <speed>32.65522010337704</speed>
  <fix>3d</fix>
</trkpt>
<trkpt lat="-27.2546649" lon="151.3395658">
  <ele>515.77</ele>
  <time>2026-09-01T20:00:44Z</time>
  <course>238.67</course>
  <speed>34.51</speed>
  <fix>3d</fix>
</trkpt>
<trkpt lat="-27.2547106" lon="151.3394769">
  <ele>516.63</ele>
  <time>2026-09-01T20:00:44Z</time>
  <course>238.71</course>
  <speed>30.1168142405534</speed>
  <fix>3d</fix>
</trkpt>
<trkpt lat="-27.2546955" lon="151.3395066">
  <ele>515.86</ele>
  <time>2026-09-01T20:00:44Z</time>
  <course>239.88</course>
  <speed>32.49</speed>
  <fix>3d</fix>
</trkpt>
<trkpt lat="-27.2547249" lon="151.3394525">
  <ele>517.96</ele>
  <time>2026-09-01T20:00:44Z</time>
  <course>236.33</course>
  <speed>27.878665678256553</speed>
  <fix>3d</fix>
</trkpt>
<trkpt lat="-27.2546955" lon="151.3395066">
  <ele>515.86</ele>
  <time>2026-09-01T20:00:44Z</time>
  <course>239.88</course>
  <speed>32.49</speed>
  <fix>3d</fix>
</trkpt>
<trkpt lat="-27.2547391" lon="151.3394305">
  <ele>519.44</ele>
  <time>2026-09-01T20:00:44Z</time>
  <course>234.76</course>
  <speed>26.128796374881105</speed>
  <fix>3d</fix>
</trkpt>
<trkpt lat="-27.2547244" lon="151.3394544">
  <ele>517.99</ele>
  <time>2026-09-01T20:00:44Z</time>
  <course>235.71</course>
  <speed>28.16</speed>
  <fix>3d</fix>
</trkpt>
<trkpt lat="-27.2547532" lon="151.3394103">
  <ele>520.99</ele>
  <time>2026-09-01T20:00:44Z</time>
  <course>234.15</course>
  <speed>24.806773268605493</speed>
  <fix>3d</fix>
</trkpt>
<trkpt lat="-27.2547244" lon="151.3394544">
  <ele>517.99</ele>
  <time>2026-09-01T20:00:44Z</time>
  <course>235.71</course>
  <speed>28.16</speed>
  <fix>3d</fix>
</trkpt>
<trkpt lat="-27.254767" lon="151.3393913">
  <ele>522.53</ele>
  <time>2026-09-01T20:00:44Z</time>
  <course>233.83</course>
  <speed>23.812685694814014</speed>
  <fix>3d</fix>
</trkpt>
<trkpt lat="-27.2547526" lon="151.3394115">
  <ele>520.93</ele>
  <time>2026-09-01T20:00:44Z</time>
  <course>231.69</course>
  <speed>25.01</speed>
  <fix>3d</fix>
</trkpt>
<trkpt lat="-27.2547804" lon="151.3393731">
  <ele>524.03</ele>
  <time>2026-09-01T20:00:44Z</time>
  <course>233.33</course>
  <speed>22.990426268340478</speed>
  <fix>3d</fix>
</trkpt>
<trkpt lat="-27.2547526" lon="151.3394115">
  <ele>520.93</ele>
  <time>2026-09-01T20:00:44Z</time>
  <course>231.69</course>
  <speed>25.01</speed>
  <fix>3d</fix>
</trkpt>
<trkpt lat="-27.2547934" lon="151.3393554">
  <ele>525.47</ele>
  <time>2026-09-01T20:00:44Z</time>
  <course>232.77</course>
  <speed>22.297894519438376</speed>
  <fix>3d</fix>
</trkpt>
<trkpt lat="-27.2547798" lon="151.3393739">
  <ele>523.94</ele>
  <time>2026-09-01T20:00:44Z</time>
  <course>230.49</course>
  <speed>23.08</speed>
  <fix>3d</fix>
</trkpt>
<trkpt lat="-27.2548059" lon="151.3393382">
  <ele>526.86</ele>
  <time>2026-09-01T20:00:44Z</time>
  <course>232.43</course>
  <speed>21.71305598021614</speed>
  <fix>3d</fix>
</trkpt>
<trkpt lat="-27.2547798" lon="151.3393739">
  <ele>523.94</ele>
  <time>2026-09-01T20:00:44Z</time>
  <course>230.49</course>
  <speed>23.08</speed>
  <fix>3d</fix>
</trkpt>
<trkpt lat="-27.2548181" lon="151.3393214">
  <ele>528.16</ele>
  <time>2026-09-01T20:00:44Z</time>
  <course>232.29</course>
  <speed>21.18461942070237</speed>
  <fix>3d</fix>
</trkpt>
<trkpt lat="-27.2548053" lon="151.339339">
  <ele>526.77</ele>
  <time>2026-09-01T20:00:44Z</time>
  <course>230.58</course>
  <speed>21.76</speed>
  <fix>3d</fix>
</trkpt>
<trkpt lat="-27.25483" lon="151.3393051">
  <ele>529.39</ele>
  <time>2026-09-01T20:00:44Z</time>
  <course>232.24</course>
  <speed>20.68298334380222</speed>
  <fix>3d</fix>
</trkpt>
<trkpt lat="-27.2548053" lon="151.339339">
  <ele>526.77</ele>
  <time>2026-09-01T20:00:44Z</time>
  <course>230.58</course>
  <speed>21.76</speed>
  <fix>3d</fix>
</trkpt>
<trkpt lat="-27.2548417" lon="151.3392889">
  <ele>530.56</ele>
  <time>2026-09-01T20:00:44Z</time>
  <course>232.26</course>
  <speed>20.150367242310995</speed>
  <fix>3d</fix>
</trkpt>
<trkpt lat="-27.2548294" lon="151.3393059">
  <ele>529.32</ele>
  <time>2026-09-01T20:00:44Z</time>
  <course>230.77</course>
  <speed>20.69</speed>
  <fix>3d</fix>
</trkpt>
<trkpt lat="-27.254853" lon="151.3392734">
  <ele>531.66</ele>
  <time>2026-09-01T20:00:44Z</time>
  <course>232.32</course>
  <speed>19.59593070002035</speed>
  <fix>3d</fix>
</trkpt>
<trkpt lat="-27.2548294" lon="151.3393059">
  <ele>529.32</ele>
  <time>2026-09-01T20:00:44Z</time>
  <course>230.77</course>
  <speed>20.69</speed>
  <fix>3d</fix>
</trkpt>
<trkpt lat="-27.254864" lon="151.3392582">
  <ele>532.72</ele>
  <time>2026-09-01T20:00:44Z</time>
  <course>232.38</course>
  <speed>19.0105049906624</speed>
  <fix>3d</fix>
</trkpt>
<trkpt lat="-27.2548523" lon="151.3392743">
  <ele>531.6</ele>
  <time>2026-09-01T20:00:44Z</time>
  <course>230.78</course>
  <speed>19.61</speed>
  <fix>3d</fix>
</trkpt>
<trkpt lat="-27.2548746" lon="151.3392437">
  <ele>533.73</ele>
  <time>2026-09-01T20:00:44Z</time>
  <course>232.39</course>
  <speed>18.394197454632263</speed>
  <fix>3d</fix>
</trkpt>
<trkpt lat="-27.2548523" lon="151.3392743">
  <ele>531.6</ele>
  <time>2026-09-01T20:00:44Z</time>
  <course>230.78</course>
  <speed>19.61</speed>
  <fix>3d</fix>
</trkpt>
<trkpt lat="-27.2548849" lon="151.3392295">
  <ele>534.71</ele>
  <time>2026-09-01T20:00:44Z</time>
  <course>232.34</course>
  <speed>17.762637754567873</speed>
  <fix>3d</fix>
</trkpt>
<trkpt lat="-27.254874" lon="151.3392446">
  <ele>533.67</ele>
  <time>2026-09-01T20:00:44Z</time>
  <course>230.56</course>
  <speed>18.41</speed>
  <fix>3d</fix>
</trkpt>
<trkpt lat="-27.254895" lon="151.339216">
  <ele>535.66</ele>
  <time>2026-09-01T20:00:44Z</time>
  <course>232.26</course>
  <speed>17.115995442859877</speed>
  <fix>3d</fix>
</trkpt>
<trkpt lat="-27.254874" lon="151.3392446">
  <ele>533.67</ele>
  <time>2026-09-01T20:00:44Z</time>
  <course>230.56</course>
  <speed>18.41</speed>
  <fix>3d</fix>
</trkpt>
<trkpt lat="-27.2549047" lon="151.3392031">
  <ele>536.58</ele>
  <time>2026-09-01T20:00:44Z</time>
  <course>232.16</course>
  <speed>16.490318371699196</speed>
  <fix>3d</fix>
</trkpt>
<trkpt lat="-27.2548944" lon="151.3392169">
  <ele>535.6</ele>
  <time>2026-09-01T20:00:44Z</time>
  <course>230.1</course>
  <speed>17.15</speed>
  <fix>3d</fix>
</trkpt>
<trkpt lat="-27.2549141" lon="151.3391906">
  <ele>537.48</ele>
  <time>2026-09-01T20:00:44Z</time>
  <course>232.05</course>
  <speed>15.880406166090339</speed>
  <fix>3d</fix>
</trkpt>
<trkpt lat="-27.2548944" lon="151.3392169">
  <ele>535.6</ele>
  <time>2026-09-01T20:00:44Z</time>
  <course>230.1</course>
  <speed>17.15</speed>
  <fix>3d</fix>
</trkpt>
<trkpt lat="-27.2549232" lon="151.3391787">
  <ele>538.35</ele>
  <time>2026-09-01T20:00:44Z</time>
  <course>231.93</course>
  <speed>15.291621889126084</speed>
  <fix>3d</fix>
</trkpt>
<trkpt lat="-27.2549135" lon="151.3391914">
  <ele>537.42</ele>
  <time>2026-09-01T20:00:44Z</time>
  <course>229.48</course>
  <speed>15.92</speed>
  <fix>3d</fix>
</trkpt>
<trkpt lat="-27.2549321" lon="151.3391672">
  <ele>539.18</ele>
  <time>2026-09-01T20:00:44Z</time>
  <course>231.81</course>
  <speed>14.718522344311605</speed>
  <fix>3d</fix>
</trkpt>
<trkpt lat="-27.2549135" lon="151.3391914">
  <ele>537.42</ele>
  <time>2026-09-01T20:00:44Z</time>
  <course>229.48</course>
  <speed>15.92</speed>
  <fix>3d</fix>
</trkpt>
<trkpt lat="-27.2549407" lon="151.3391562">
  <ele>539.99</ele>
  <time>2026-09-01T20:00:44Z</time>
  <course>231.7</course>
  <speed>14.181685372338508</speed>
  <fix>3d</fix>
</trkpt>
<trkpt lat="-27.2549316" lon="151.3391679">
  <ele>539.13</ele>
  <time>2026-09-01T20:00:44Z</time>
  <course>228.79</course>
  <speed>14.76</speed>
  <fix>3d</fix>
</trkpt>
<trkpt lat="-27.254949" lon="151.3391457">
  <ele>540.76</ele>
  <time>2026-09-01T20:00:44Z</time>
  <course>231.6</course>
  <speed>13.659520489387612</speed>
  <fix>3d</fix>
</trkpt>
<trkpt lat="-27.2549316" lon="151.3391679">
  <ele>539.13</ele>
  <time>2026-09-01T20:00:44Z</time>
  <course>228.79</course>
  <speed>14.76</speed>
  <fix>3d</fix>
</trkpt>
<trkpt lat="-27.2549571" lon="151.3391357">
  <ele>541.49</ele>
  <time>2026-09-01T20:00:44Z</time>
  <course>231.51</course>
  <speed>13.159502270222838</speed>
  <fix>3d</fix>
</trkpt>
<trkpt lat="-27.2549486" lon="151.3391464">
  <ele>540.71</ele>
  <time>2026-09-01T20:00:44Z</time>
  <course>228.06</course>
  <speed>13.69</speed>
  <fix>3d</fix>
</trkpt>
<trkpt lat="-27.2549649" lon="151.3391261">
  <ele>542.19</ele>
  <time>2026-09-01T20:00:44Z</time>
  <course>231.44</course>
  <speed>12.688360808236814</speed>
  <fix>3d</fix>
</trkpt>
<trkpt lat="-27.2549486" lon="151.3391464">
  <ele>540.71</ele>
  <time>2026-09-01T20:00:44Z</time>
  <course>228.06</course>
  <speed>13.69</speed>
  <fix>3d</fix>
</trkpt>
<trkpt lat="-27.2549726" lon="151.3391169">
  <ele>542.85</ele>
  <time>2026-09-01T20:00:44Z</time>
  <course>231.38</course>
  <speed>12.238905179794473</speed>
  <fix>3d</fix>
</trkpt>
<trkpt lat="-27.2549645" lon="151.3391266">
  <ele>542.15</ele>
  <time>2026-09-01T20:00:44Z</time>
  <course>227.25</course>
  <speed>12.72</speed>
  <fix>3d</fix>
</trkpt>
<trkpt lat="-27.25498" lon="151.3391081">
  <ele>543.47</ele>
  <time>2026-09-01T20:00:44Z</time>
  <course>231.32</course>
  <speed>11.818972036518234</speed>
  <fix>3d</fix>
</trkpt>
<trkpt lat="-27.2549645" lon="151.3391266">
  <ele>542.15</ele>
  <time>2026-09-01T20:00:44Z</time>
  <course>227.25</course>
  <speed>12.72</speed>
  <fix>3d</fix>
</trkpt>
<trkpt lat="-27.2549872" lon="151.3390997">
  <ele>544.04</ele>
  <time>2026-09-01T20:00:44Z</time>
  <course>231.25</course>
  <speed>11.413763621172466</speed>
  <fix>3d</fix>
</trkpt>
<trkpt lat="-27.2549796" lon="151.3391085">
  <ele>543.43</ele>
  <time>2026-09-01T20:00:44Z</time>
  <course>226.32</course>
  <speed>11.84</speed>
  <fix>3d</fix>
</trkpt>
<trkpt lat="-27.2549943" lon="151.3390916">
  <ele>544.59</ele>
  <time>2026-09-01T20:00:44Z</time>
  <course>231.16</course>
  <speed>11.01675995926207</speed>
  <fix>3d</fix>
</trkpt>
<trkpt lat="-27.2549796" lon="151.3391085">
  <ele>543.43</ele>
  <time>2026-09-01T20:00:44Z</time>
  <course>226.32</course>
  <speed>11.84</speed>
  <fix>3d</fix>
</trkpt>
<trkpt lat="-27.2550012" lon="151.3390839">
  <ele>545.1</ele>
  <time>2026-09-01T20:00:44Z</time>
  <course>231.05</course>
  <speed>10.635224492223943</speed>
  <fix>3d</fix>
</trkpt>
<trkpt lat="-27.2549939" lon="151.339092">
  <ele>544.56</ele>
  <time>2026-09-01T20:00:44Z</time>
  <course>225.18</course>
  <speed>11.04</speed>
  <fix>3d</fix>
</trkpt>
<trkpt lat="-27.2550079" lon="151.3390765">
  <ele>545.56</ele>
  <time>2026-09-01T20:00:44Z</time>
  <course>230.9</course>
  <speed>10.262460718560632</speed>
  <fix>3d</fix>
</trkpt>
<trkpt lat="-27.2549939" lon="151.339092">
  <ele>544.56</ele>
  <time>2026-09-01T20:00:44Z</time>
  <course>225.18</course>
  <speed>11.04</speed>
  <fix>3d</fix>
</trkpt>
<trkpt lat="-27.2550145" lon="151.3390695">
  <ele>545.98</ele>
  <time>2026-09-01T20:00:44Z</time>
  <course>230.72</course>
  <speed>9.905806378079475</speed>
  <fix>3d</fix>
</trkpt>
<trkpt lat="-27.2550076" lon="151.3390768">
  <ele>545.52</ele>
  <time>2026-09-01T20:00:44Z</time>
  <course>223.79</course>
  <speed>10.28</speed>
  <fix>3d</fix>
</trkpt>
<trkpt lat="-27.2550209" lon="151.3390628">
  <ele>546.37</ele>
  <time>2026-09-01T20:00:44Z</time>
  <course>230.49</course>
  <speed>9.55134022009477</speed>
  <fix>3d</fix>
</trkpt>
<trkpt lat="-27.2550076" lon="151.3390768">
  <ele>545.52</ele>
  <time>2026-09-01T20:00:44Z</time>
  <course>223.79</course>
  <speed>10.28</speed>
  <fix>3d</fix>
</trkpt>
<trkpt lat="-27.2550272" lon="151.3390566">
  <ele>546.73</ele>
  <time>2026-09-01T20:00:44Z</time>
  <course>230.23</course>
  <speed>9.213424987484297</speed>
  <fix>3d</fix>
</trkpt>
<trkpt lat="-27.2550206" lon="151.3390632">
  <ele>546.33</ele>
  <time>2026-09-01T20:00:44Z</time>
  <course>222.1</course>
  <speed>9.57</speed>
  <fix>3d</fix>
</trkpt>
<trkpt lat="-27.2550334" lon="151.3390506">
  <ele>547.05</ele>
  <time>2026-09-01T20:00:44Z</time>
  <course>229.94</course>
  <speed>8.879420026105308</speed>
  <fix>3d</fix>
</trkpt>
<trkpt lat="-27.2550206" lon="151.3390632">
  <ele>546.33</ele>
  <time>2026-09-01T20:00:44Z</time>
  <course>222.1</course>
  <speed>9.57</speed>
  <fix>3d</fix>
</trkpt>
<trkpt lat="-27.2550395" lon="151.339045">
  <ele>547.33</ele>
  <time>2026-09-01T20:00:44Z</time>
  <course>229.61</course>
  <speed>8.555261538959519</speed>
  <fix>3d</fix>
</trkpt>
<trkpt lat="-27.2550331" lon="151.3390509">
  <ele>547.01</ele>
  <time>2026-09-01T20:00:44Z</time>
  <course>220.08</course>
  <speed>8.89</speed>
  <fix>3d</fix>
</trkpt>
<trkpt lat="-27.2550454" lon="151.3390398">
  <ele>547.59</ele>
  <time>2026-09-01T20:00:44Z</time>
  <course>229.26</course>
  <speed>8.234761684469078</speed>
  <fix>3d</fix>
</trkpt>
<trkpt lat="-27.2550331" lon="151.3390509">
  <ele>547.01</ele>
  <time>2026-09-01T20:00:44Z</time>
  <course>220.08</course>
  <speed>8.89</speed>
  <fix>3d</fix>
</trkpt>
<trkpt lat="-27.2550512" lon="151.3390349">
  <ele>547.82</ele>
  <time>2026-09-01T20:00:44Z</time>
  <course>228.88</course>
  <speed>7.932345176554032</speed>
  <fix>3d</fix>
</trkpt>
<trkpt lat="-27.2550451" lon="151.33904">
  <ele>547.56</ele>
  <time>2026-09-01T20:00:44Z</time>
  <course>217.71</course>
  <speed>8.25</speed>
  <fix>3d</fix>
</trkpt>
<trkpt lat="-27.2550569" lon="151.3390302">
  <ele>548.01</ele>
  <time>2026-09-01T20:00:44Z</time>
  <course>228.49</course>
  <speed>7.628708934020225</speed>
  <fix>3d</fix>
</trkpt>
<trkpt lat="-27.2550451" lon="151.33904">
  <ele>547.56</ele>
  <time>2026-09-01T20:00:44Z</time>
  <course>217.71</course>
  <speed>8.25</speed>
  <fix>3d</fix>
</trkpt>
<trkpt lat="-27.2550625" lon="151.339026">
  <ele>548.18</ele>
  <time>2026-09-01T20:00:44Z</time>
  <course>228.08</course>
  <speed>7.336061613699819</speed>
  <fix>3d</fix>
</trkpt>
<trkpt lat="-27.2550565" lon="151.3390306">
  <ele>547.99</ele>
  <time>2026-09-01T20:00:44Z</time>
  <course>214.96</course>
  <speed>7.64</speed>
  <fix>3d</fix>
</trkpt>
<trkpt lat="-27.2550679" lon="151.3390221">
  <ele>548.32</ele>
  <time>2026-09-01T20:00:44Z</time>
  <course>227.66</course>
  <speed>7.054367441521599</speed>
  <fix>3d</fix>
</trkpt>
<trkpt lat="-27.2550565" lon="151.3390306">
  <ele>547.99</ele>
  <time>2026-09-01T20:00:44Z</time>
  <course>214.96</course>
  <speed>7.64</speed>
  <fix>3d</fix>
</trkpt>
<trkpt lat="-27.2550733" lon="151.3390184">
  <ele>548.44</ele>
  <time>2026-09-01T20:00:44Z</time>
  <course>227.24</course>
  <speed>6.792230855911774</speed>
  <fix>3d</fix>
</trkpt>
<trkpt lat="-27.2550675" lon="151.3390224">
  <ele>548.3</ele>
  <time>2026-09-01T20:00:44Z</time>
  <course>211.83</course>
  <speed>7.07</speed>
  <fix>3d</fix>
</trkpt>
<trkpt lat="-27.2550785" lon="151.3390152">
  <ele>548.53</ele>
  <time>2026-09-01T20:00:44Z</time>
  <course>226.83</course>
  <speed>6.536489883721997</speed>
  <fix>3d</fix>
</trkpt>
<trkpt lat="-27.2550675" lon="151.3390224">
  <ele>548.3</ele>
  <time>2026-09-01T20:00:44Z</time>
  <course>211.83</course>
  <speed>7.07</speed>
  <fix>3d</fix>
</trkpt>
<trkpt lat="-27.2550836" lon="151.3390121">
  <ele>548.59</ele>
  <time>2026-09-01T20:00:44Z</time>
  <course>226.42</course>
  <speed>6.287924935938723</speed>
  <fix>3d</fix>
</trkpt>
<trkpt lat="-27.2550782" lon="151.3390154">
  <ele>548.51</ele>
  <time>2026-09-01T20:00:44Z</time>
  <course>208.31</course>
  <speed>6.55</speed>
  <fix>3d</fix>
</trkpt>
<trkpt lat="-27.2550885" lon="151.3390096">
  <ele>548.64</ele>
  <time>2026-09-01T20:00:44Z</time>
  <course>226.04</course>
  <speed>6.042391910493723</speed>
  <fix>3d</fix>
</trkpt>
<trkpt lat="-27.2550782" lon="151.3390154">
  <ele>548.51</ele>
  <time>2026-09-01T20:00:44Z</time>
  <course>208.31</course>
  <speed>6.55</speed>
  <fix>3d</fix>
</trkpt>
<trkpt lat="-27.2550935" lon="151.3390073">
  <ele>548.66</ele>
  <time>2026-09-01T20:00:44Z</time>
  <course>225.99</course>
  <speed>5.7696620351628916</speed>
  <fix>3d</fix>
</trkpt>
<trkpt lat="-27.2550883" lon="151.3390097">
  <ele>548.63</ele>
  <time>2026-09-01T20:00:44Z</time>
  <course>204.09</course>
  <speed>6.03</speed>
  <fix>3d</fix>
</trkpt>
<trkpt lat="-27.2550982" lon="151.3390053">
  <ele>548.69</ele>
  <time>2026-09-01T20:00:44Z</time>
  <course>226.56</course>
  <speed>5.461327677405925</speed>
  <fix>3d</fix>
</trkpt>
<trkpt lat="-27.2550883" lon="151.3390097">
  <ele>548.63</ele>
  <time>2026-09-01T20:00:44Z</time>
  <course>204.09</course>
  <speed>6.03</speed>
  <fix>3d</fix>
</trkpt>
<trkpt lat="-27.2551028" lon="151.3390038">
  <ele>548.72</ele>
  <time>2026-09-01T20:00:44Z</time>
  <course>227.85</course>
  <speed>5.134481473333018</speed>
  <fix>3d</fix>
</trkpt>
<trkpt lat="-27.2550979" lon="151.3390056">
  <ele>548.69</ele>
  <time>2026-09-01T20:00:44Z</time>
  <course>198.16</course>
  <speed>5.45</speed>
  <fix>3d</fix>
</trkpt>
<trkpt lat="-27.2551072" lon="151.3390028">
  <ele>548.75</ele>
  <time>2026-09-01T20:00:44Z</time>
  <course>229.91</course>
  <speed>4.782394797588338</speed>
  <fix>3d</fix>
</trkpt>
<trkpt lat="-27.2550979" lon="151.3390056">
  <ele>548.69</ele>
  <time>2026-09-01T20:00:44Z</time>
  <course>198.16</course>
  <speed>5.45</speed>
  <fix>3d</fix>
</trkpt>
<trkpt lat="-27.2551113" lon="151.3390023">
  <ele>548.8</ele>
  <time>2026-09-01T20:00:44Z</time>
  <course>232.71</course>
  <speed>4.407675124144247</speed>
  <fix>3d</fix>
</trkpt>
<trkpt lat="-27.2551069" lon="151.3390031">
  <ele>548.76</ele>
  <time>2026-09-01T20:00:44Z</time>
  <course>189.4</course>
  <speed>4.77</speed>
  <fix>3d</fix>
</trkpt>
<trkpt lat="-27.2551151" lon="151.3390023">
  <ele>548.86</ele>
  <time>2026-09-01T20:00:44Z</time>
  <course>236.18</course>
  <speed>4.02715780669196</speed>
  <fix>3d</fix>
</trkpt>
<trkpt lat="-27.2551069" lon="151.3390031">
  <ele>548.76</ele>
  <time>2026-09-01T20:00:44Z</time>
  <course>189.4</course>
  <speed>4.77</speed>
  <fix>3d</fix>
</trkpt>
<trkpt lat="-27.2551185" lon="151.3390028">
  <ele>548.94</ele>
  <time>2026-09-01T20:00:44Z</time>
  <course>240.16</course>
  <speed>3.6654740484690382</speed>
  <fix>3d</fix>
</trkpt>
<trkpt lat="-27.2551148" lon="151.3390025">
  <ele>548.87</ele>
  <time>2026-09-01T20:00:44Z</time>
  <course>176.86</course>
  <speed>4.01</speed>
  <fix>3d</fix>
</trkpt>
<trkpt lat="-27.2551215" lon="151.3390037">
  <ele>549.04</ele>
  <time>2026-09-01T20:00:44Z</time>
  <course>244.43</course>
  <speed>3.32280002407608</speed>
  <fix>3d</fix>
</trkpt>
<trkpt lat="-27.2551148" lon="151.3390025">
  <ele>548.87</ele>
  <time>2026-09-01T20:00:44Z</time>
  <course>176.86</course>
  <speed>4.01</speed>
  <fix>3d</fix>
</trkpt>
<trkpt lat="-27.2551241" lon="151.339005">
  <ele>549.16</ele>
  <time>2026-09-01T20:00:44Z</time>
  <course>248.72</course>
  <speed>3.0203476621077914</speed>
  <fix>3d</fix>
</trkpt>
<trkpt lat="-27.2551212" lon="151.3390038">
  <ele>549.05</ele>
  <time>2026-09-01T20:00:44Z</time>
  <course>160.27</course>
  <speed>3.31</speed>
  <fix>3d</fix>
</trkpt>
<trkpt lat="-27.2551262" lon="151.3390067">
  <ele>549.29</ele>
  <time>2026-09-01T20:00:44Z</time>
  <course>252.86</course>
  <speed>2.7022398117117588</speed>
  <fix>3d</fix>
</trkpt>
<trkpt lat="-27.2551212" lon="151.3390038">
  <ele>549.05</ele>
  <time>2026-09-01T20:00:44Z</time>
  <course>160.27</course>
  <speed>3.31</speed>
  <fix>3d</fix>
</trkpt>
<trkpt lat="-27.2551279" lon="151.3390083">
  <ele>549.44</ele>
  <time>2026-09-01T20:00:44Z</time>
  <course>256.82</course>
  <speed>2.333838040653207</speed>
  <fix>3d</fix>
</trkpt>
<trkpt lat="-27.2551259" lon="151.3390066">
  <ele>549.3</ele>
  <time>2026-09-01T20:00:44Z</time>
  <course>144.07</course>
  <speed>2.67</speed>
  <fix>3d</fix>
</trkpt>
<trkpt lat="-27.2551292" lon="151.3390098">
  <ele>549.61</ele>
  <time>2026-09-01T20:00:44Z</time>
  <course>260.68</course>
  <speed>1.940103090044444</speed>
  <fix>3d</fix>
</trkpt>
<trkpt lat="-27.2551259" lon="151.3390066">
  <ele>549.3</ele>
  <time>2026-09-01T20:00:44Z</time>
  <course>144.07</course>
  <speed>2.67</speed>
  <fix>3d</fix>
</trkpt>
<trkpt lat="-27.2551301" lon="151.3390114">
  <ele>549.79</ele>
  <time>2026-09-01T20:00:44Z</time>
  <course>264.35</course>
  <speed>1.6022484201895784</speed>
  <fix>3d</fix>
</trkpt>
<trkpt lat="-27.2551289" lon="151.3390097">
  <ele>549.61</ele>
  <time>2026-09-01T20:00:44Z</time>
  <course>127.65</course>
  <speed>1.95</speed>
  <fix>3d</fix>
</trkpt>
<trkpt lat="-27.2551306" lon="151.3390128">
  <ele>549.94</ele>
  <time>2026-09-01T20:00:44Z</time>
  <course>267.4</course>
  <speed>1.4043147795277242</speed>
  <fix>3d</fix>
</trkpt>
<trkpt lat="-27.2551289" lon="151.3390097">
  <ele>549.61</ele>
  <time>2026-09-01T20:00:44Z</time>
  <course>127.65</course>
  <speed>1.95</speed>
  <fix>3d</fix>
</trkpt>
<trkpt lat="-27.2551312" lon="151.3390139">
  <ele>549.98</ele>
  <time>2026-09-01T20:00:44Z</time>
  <course>269.69</course>
  <speed>1.233085560697229</speed>
  <fix>3d</fix>
</trkpt>
<trkpt lat="-27.2551306" lon="151.3390126">
  <ele>549.88</ele>
  <time>2026-09-01T20:00:44Z</time>
  <course>117.63</course>
  <speed>1.42</speed>
  <fix>3d</fix>
</trkpt>
<trkpt lat="-27.2551318" lon="151.339015">
  <ele>549.91</ele>
  <time>2026-09-01T20:00:44Z</time>
  <course>271.31</course>
  <speed>1.104536101718726</speed>
  <fix>3d</fix>
</trkpt>
<trkpt lat="-27.2551306" lon="151.3390126">
  <ele>549.88</ele>
  <time>2026-09-01T20:00:44Z</time>
  <course>117.63</course>
  <speed>1.42</speed>
  <fix>3d</fix>
</trkpt>
<trkpt lat="-27.2551323" lon="151.3390159">
  <ele>549.78</ele>
  <time>2026-09-01T20:00:44Z</time>
  <course>272.32</course>
  <speed>0.9985990186255943</speed>
  <fix>3d</fix>
</trkpt>
<trkpt lat="-27.2551317" lon="151.3390148">
  <ele>549.88</ele>
  <time>2026-09-01T20:00:44Z</time>
  <course>121.82</course>
  <speed>1.12</speed>
  <fix>3d</fix>
</trkpt>
<trkpt lat="-27.2551328" lon="151.3390165">
  <ele>549.56</ele>
  <time>2026-09-01T20:00:44Z</time>
  <course>273.65</course>
  <speed>0.8962700485902673</speed>
  <fix>3d</fix>
</trkpt>
<trkpt lat="-27.2551317" lon="151.3390148">
  <ele>549.88</ele>
  <time>2026-09-01T20:00:44Z</time>
  <course>121.82</course>
  <speed>1.12</speed>
  <fix>3d</fix>
</trkpt>
<trkpt lat="-27.2551332" lon="151.3390173">
  <ele>549.27</ele>
  <time>2026-09-01T20:00:44Z</time>
  <course>275.52</course>
  <speed>0.7840918313565064</speed>
  <fix>3d</fix>
</trkpt>
<trkpt lat="-27.2551327" lon="151.3390165">
  <ele>549.52</ele>
  <time>2026-09-01T20:00:44Z</time>
  <course>124.85</course>
  <speed>0.9</speed>
  <fix>3d</fix>
</trkpt>
<trkpt lat="-27.2551336" lon="151.3390178">
  <ele>548.91</ele>
  <time>2026-09-01T20:00:44Z</time>
  <course>277.96</course>
  <speed>0.6684309986827361</speed>
  <fix>3d</fix>
</trkpt>
<trkpt lat="-27.2551327" lon="151.3390165">
  <ele>549.52</ele>
  <time>2026-09-01T20:00:44Z</time>
  <course>124.85</course>
  <speed>0.9</speed>
  <fix>3d</fix>
</trkpt>
<trkpt lat="-27.255134" lon="151.3390183">
  <ele>548.5</ele>
  <time>2026-09-01T20:00:44Z</time>
  <course>280.9</course>
  <speed>0.5544366510251645</speed>
  <fix>3d</fix>
</trkpt>
<trkpt lat="-27.2551335" lon="151.3390178">
  <ele>548.89</ele>
  <time>2026-09-01T20:00:44Z</time>
  <course>128.01</course>
  <speed>0.67</speed>
  <fix>3d</fix>
</trkpt>
<trkpt lat="-27.2551342" lon="151.3390188">
  <ele>548.03</ele>
  <time>2026-09-01T20:00:44Z</time>
  <course>284.42</course>
  <speed>0.425205832509386</speed>
  <fix>3d</fix>
</trkpt>
<trkpt lat="-27.2551335" lon="151.3390178">
  <ele>548.89</ele>
  <time>2026-09-01T20:00:44Z</time>
  <course>128.01</course>
  <speed>0.67</speed>
  <fix>3d</fix>
</trkpt>
<trkpt lat="-27.2551345" lon="151.3390191">
  <ele>547.49</ele>
  <time>2026-09-01T20:00:44Z</time>
  <course>288.62</course>
  <speed>0.2831960451701259</speed>
  <fix>3d</fix>
</trkpt>
<trkpt lat="-27.2551342" lon="151.3390187">
  <ele>548.01</ele>
  <time>2026-09-01T20:00:44Z</time>
  <course>131.98</course>
  <speed>0.43</speed>
  <fix>3d</fix>
</trkpt>
<trkpt lat="-27.2551346" lon="151.3390192">
  <ele>546.89</ele>
  <time>2026-09-01T20:00:44Z</time>
  <course>293.66</course>
  <speed>0.16552945357246848</speed>
  <fix>3d</fix>
</trkpt>
<trkpt lat="-27.2551342" lon="151.3390187">
  <ele>548.01</ele>
  <time>2026-09-01T20:00:44Z</time>
  <course>131.98</course>
  <speed>0.43</speed>
  <fix>3d</fix>
</trkpt>
<trkpt lat="-27.2551347" lon="151.3390192">
  <ele>546.22</ele>
  <time>2026-09-01T20:00:44Z</time>
  <course>299.73</course>
  <speed>0.1615549442140351</speed>
  <fix>3d</fix>
</trkpt>
<trkpt lat="-27.2551346" lon="151.3390191">
  <ele>546.88</ele>
  <time>2026-09-01T20:00:44Z</time>
  <course>166.13</course>
  <speed>0.15</speed>
  <fix>3d</fix>
</trkpt>
<trkpt lat="-27.2551347" lon="151.3390186">
  <ele>545.48</ele>
  <time>2026-09-01T20:00:44Z</time>
  <course>309.31</course>
  <speed>0.9222797840135064</speed>
  <fix>3d</fix>
</trkpt>
<trkpt lat="-27.2551346" lon="151.3390191">
  <ele>546.88</ele>
  <time>2026-09-01T20:00:44Z</time>
  <course>166.13</course>
  <speed>0.15</speed>
  <fix>3d</fix>
</trkpt>
<trkpt lat="-27.2551345" lon="151.3390176">
  <ele>544.65</ele>
  <time>2026-09-01T20:00:44Z</time>
  <course>329.24</course>
  <speed>1.3140015220691337</speed>
  <fix>3d</fix>
</trkpt>
<trkpt lat="-27.2551346" lon="151.3390183">
  <ele>545.45</ele>
  <time>2026-09-01T20:00:44Z</time>
  <course>277.08</course>
  <speed>0.71</speed>
  <fix>3d</fix>
</trkpt>
<trkpt lat="-27.2551343" lon="151.3390162">
  <ele>543.73</ele>
  <time>2026-09-01T20:00:44Z</time>
  <course>359.92</course>
  <speed>1.310267148332736</speed>
  <fix>3d</fix>
</trkpt>
<trkpt lat="-27.2551346" lon="151.3390183">
  <ele>545.45</ele>
  <time>2026-09-01T20:00:44Z</time>
  <course>277.08</course>
  <speed>0.71</speed>
  <fix>3d</fix>
</trkpt>
<trkpt lat="-27.255134" lon="151.339015">
  <ele>542.71</ele>
  <time>2026-09-01T20:00:44Z</time>
  <course>14.37</course>
  <speed>1.1447707194019245</speed>
  <fix>3d</fix>
</trkpt>
<trkpt lat="-27.2551342" lon="151.3390163">
  <ele>543.7</ele>
  <time>2026-09-01T20:00:44Z</time>
  <course>282.6</course>
  <speed>1.23</speed>
  <fix>3d</fix>
</trkpt>
<trkpt lat="-27.2551338" lon="151.3390139">
  <ele>541.61</ele>
  <time>2026-09-01T20:00:44Z</time>
  <course>4.92</course>
  <speed>1.0920164833920778</speed>
  <fix>3d</fix>
</trkpt>
<trkpt lat="-27.2551342" lon="151.3390163">
  <ele>543.7</ele>
  <time>2026-09-01T20:00:44Z</time>
  <course>282.6</course>
  <speed>1.23</speed>
  <fix>3d</fix>
</trkpt>
<trkpt lat="-27.2551335" lon="151.3390128">
  <ele>540.41</ele>
  <time>2026-09-01T20:00:44Z</time>
  <course>345.31</course>
  <speed>1.3155227098001767</speed>
  <fix>3d</fix>
</trkpt>
<trkpt lat="-27.2551337" lon="151.3390139">
  <ele>541.6</ele>
  <time>2026-09-01T20:00:44Z</time>
  <course>286.39</course>
  <speed>1.23</speed>
  <fix>3d</fix>
</trkpt>
<trkpt lat="-27.255133" lon="151.3390112">
  <ele>539.13</ele>
  <time>2026-09-01T20:00:44Z</time>
  <course>331.89</course>
  <speed>1.9302331465395575</speed>
  <fix>3d</fix>
</trkpt>
<trkpt lat="-27.2551337" lon="151.3390139">
  <ele>541.6</ele>
  <time>2026-09-01T20:00:44Z</time>
  <course>286.39</course>
  <speed>1.23</speed>
  <fix>3d</fix>
</trkpt>
<trkpt lat="-27.255132" lon="151.3390091">
  <ele>537.78</ele>
  <time>2026-09-01T20:00:44Z</time>
  <course>328.36</course>
  <speed>2.9120782956507196</speed>
  <fix>3d</fix>
</trkpt>
<trkpt lat="-27.2551328" lon="151.339011">
  <ele>539.14</ele>
  <time>2026-09-01T20:00:44Z</time>
  <course>296.98</course>
  <speed>2.08</speed>
  <fix>3d</fix>
</trkpt>
<trkpt lat="-27.2551302" lon="151.3390063">
  <ele>536.38</ele>
  <time>2026-09-01T20:00:44Z</time>
  <course>329.03</course>
  <speed>4.103583799558624</speed>
  <fix>3d</fix>
</trkpt>
<trkpt lat="-27.2551328" lon="151.339011">
  <ele>539.14</ele>
  <time>2026-09-01T20:00:44Z</time>
  <course>296.98</course>
  <speed>2.08</speed>
  <fix>3d</fix>
</trkpt>
<trkpt lat="-27.2551272" lon="151.3390029">
  <ele>534.93</ele>
  <time>2026-09-01T20:00:44Z</time>
  <course>329.66</course>
  <speed>5.303404566879657</speed>
  <fix>3d</fix>
</trkpt>
<trkpt lat="-27.2551297" lon="151.3390061">
  <ele>536.4</ele>
  <time>2026-09-01T20:00:44Z</time>
  <course>311.8</course>
  <speed>4.04</speed>
  <fix>3d</fix>
</trkpt>
<trkpt lat="-27.2551231" lon="151.3389991">
  <ele>533.45</ele>
  <time>2026-09-01T20:00:44Z</time>
  <course>329.36</course>
  <speed>6.471514505894273</speed>
  <fix>3d</fix>
</trkpt>
<trkpt lat="-27.2551297" lon="151.3390061">
  <ele>536.4</ele>
  <time>2026-09-01T20:00:44Z</time>
  <course>311.8</course>
  <speed>4.04</speed>
  <fix>3d</fix>
</trkpt>
<trkpt lat="-27.2551178" lon="151.3389952">
  <ele>531.95</ele>
  <time>2026-09-01T20:00:44Z</time>
  <course>328.66</course>
  <speed>7.671147241449612</speed>
  <fix>3d</fix>
</trkpt>
<trkpt lat="-27.2551226" lon="151.3389992">
  <ele>533.49</ele>
  <time>2026-09-01T20:00:44Z</time>
  <course>324.23</course>
  <speed>6.42</speed>
  <fix>3d</fix>
</trkpt>
<trkpt lat="-27.2551113" lon="151.338991">
  <ele>530.43</ele>
  <time>2026-09-01T20:00:44Z</time>
  <course>327.78</course>
  <speed>9.012014203273317</speed>
  <fix>3d</fix>
</trkpt>
<trkpt lat="-27.2551226" lon="151.3389992">
  <ele>533.49</ele>
  <time>2026-09-01T20:00:44Z</time>
  <course>324.23</course>
  <speed>6.42</speed>
  <fix>3d</fix>
</trkpt>
<trkpt lat="-27.2551035" lon="151.3389863">
  <ele>528.94</ele>
  <time>2026-09-01T20:00:44Z</time>
  <course>326.74</course>
  <speed>10.494207926280096</speed>
  <fix>3d</fix>
</trkpt>
<trkpt lat="-27.2551109" lon="151.338991">
  <ele>530.49</ele>
  <time>2026-09-01T20:00:44Z</time>
  <course>330.71</course>
  <speed>9.03</speed>
  <fix>3d</fix>
</trkpt>
<trkpt lat="-27.2550946" lon="151.338981">
  <ele>527.49</ele>
  <time>2026-09-01T20:00:44Z</time>
  <course>325.74</course>
  <speed>11.991505326688555</speed>
  <fix>3d</fix>
</trkpt>
<trkpt lat="-27.2551109" lon="151.338991">
  <ele>530.49</ele>
  <time>2026-09-01T20:00:44Z</time>
  <course>330.71</course>
  <speed>9.03</speed>
  <fix>3d</fix>
</trkpt>
<trkpt lat="-27.2550848" lon="151.3389746">
  <ele>526.11</ele>
  <time>2026-09-01T20:00:44Z</time>
  <course>324.97</course>
  <speed>13.35638424125332</speed>
  <fix>3d</fix>
</trkpt>
<trkpt lat="-27.2550944" lon="151.3389806">
  <ele>527.56</ele>
  <time>2026-09-01T20:00:44Z</time>
  <course>330.32</course>
  <speed>11.88</speed>
  <fix>3d</fix>
</trkpt>
<trkpt lat="-27.2550741" lon="151.338967">
  <ele>524.79</ele>
  <time>2026-09-01T20:00:44Z</time>
  <course>324.4</course>
  <speed>14.588615424364303</speed>
  <fix>3d</fix>
</trkpt>
<trkpt lat="-27.2550944" lon="151.3389806">
  <ele>527.56</ele>
  <time>2026-09-01T20:00:44Z</time>
  <course>330.32</course>
  <speed>11.88</speed>
  <fix>3d</fix>
</trkpt>
<trkpt lat="-27.255063" lon="151.3389583">
  <ele>523.57</ele>
  <time>2026-09-01T20:00:44Z</time>
  <course>323.96</course>
  <speed>15.710085932292031</speed>
  <fix>3d</fix>
</trkpt>
<trkpt lat="-27.2550741" lon="151.3389666">
  <ele>524.87</ele>
  <time>2026-09-01T20:00:44Z</time>
  <course>326.3</course>
  <speed>14.5</speed>
  <fix>3d</fix>
</trkpt>
<trkpt lat="-27.2550509" lon="151.338948">
  <ele>522.41</ele>
  <time>2026-09-01T20:00:44Z</time>
  <course>323.67</course>
  <speed>16.79754744002826</speed>
  <fix>3d</fix>
</trkpt>
<trkpt lat="-27.2550741" lon="151.3389666">
  <ele>524.87</ele>
  <time>2026-09-01T20:00:44Z</time>
  <course>326.3</course>
  <speed>14.5</speed>
  <fix>3d</fix>
</trkpt>
<trkpt lat="-27.2550387" lon="151.3389373">
  <ele>521.41</ele>
  <time>2026-09-01T20:00:44Z</time>
  <course>323.59</course>
  <speed>17.73676971717229</speed>
  <fix>3d</fix>
</trkpt>
<trkpt lat="-27.2550513" lon="151.3389482">
  <ele>522.53</ele>
  <time>2026-09-01T20:00:44Z</time>
  <course>322.75</course>
  <speed>16.68</speed>
  <fix>3d</fix>
</trkpt>
<trkpt lat="-27.2550259" lon="151.3389259">
  <ele>520.56</ele>
  <time>2026-09-01T20:00:44Z</time>
  <course>323.65</course>
  <speed>18.492706670468767</speed>
  <fix>3d</fix>
</trkpt>
<trkpt lat="-27.2550513" lon="151.3389482">
  <ele>522.53</ele>
  <time>2026-09-01T20:00:44Z</time>
  <course>322.75</course>
  <speed>16.68</speed>
  <fix>3d</fix>
</trkpt>
<trkpt lat="-27.2550127" lon="151.3389142">
  <ele>519.86</ele>
  <time>2026-09-01T20:00:44Z</time>
  <course>323.82</course>
  <speed>19.046238473777443</speed>
  <fix>3d</fix>
</trkpt>
<trkpt lat="-27.2550264" lon="151.3389264">
  <ele>520.68</ele>
  <time>2026-09-01T20:00:44Z</time>
  <course>321.89</course>
  <speed>18.35</speed>
  <fix>3d</fix>
</trkpt>
<trkpt lat="-27.2549989" lon="151.3389024">
  <ele>519.29</ele>
  <time>2026-09-01T20:00:44Z</time>
  <course>324.08</course>
  <speed>19.392049917427503</speed>
  <fix>3d</fix>
</trkpt>
<trkpt lat="-27.2550264" lon="151.3389264">
  <ele>520.68</ele>
  <time>2026-09-01T20:00:44Z</time>
  <course>321.89</course>
  <speed>18.35</speed>
  <fix>3d</fix>
</trkpt>
<trkpt lat="-27.2549848" lon="151.3388908">
  <ele>518.89</ele>
  <time>2026-09-01T20:00:44Z</time>
  <course>324.38</course>
  <speed>19.562213576177925</speed>
  <fix>3d</fix>
</trkpt>
<trkpt lat="-27.2549995" lon="151.3389032">
  <ele>519.4</ele>
  <time>2026-09-01T20:00:44Z</time>
  <course>323.24</course>
  <speed>19.28</speed>
  <fix>3d</fix>
</trkpt>
<trkpt lat="-27.2549708" lon="151.3388797">
  <ele>518.62</ele>
  <time>2026-09-01T20:00:44Z</time>
  <course>324.56</course>
  <speed>19.55431921596863</speed>
  <fix>3d</fix>
</trkpt>
<trkpt lat="-27.2549995" lon="151.3389032">
  <ele>519.4</ele>
  <time>2026-09-01T20:00:44Z</time>
  <course>323.24</course>
  <speed>19.28</speed>
  <fix>3d</fix>
</trkpt>
<trkpt lat="-27.2549564" lon="151.3388685">
  <ele>518.46</ele>
  <time>2026-09-01T20:00:44Z</time>
  <course>324.59</course>
  <speed>19.415591672673795</speed>
  <fix>3d</fix>
</trkpt>
<trkpt lat="-27.2549712" lon="151.3388802">
  <ele>518.68</ele>
  <time>2026-09-01T20:00:44Z</time>
  <course>324.97</course>
  <speed>19.49</speed>
  <fix>3d</fix>
</trkpt>
<trkpt lat="-27.254942" lon="151.3388575">
  <ele>518.38</ele>
  <time>2026-09-01T20:00:44Z</time>
  <course>324.63</course>
  <speed>19.218129461526686</speed>
  <fix>3d</fix>
</trkpt>
<trkpt lat="-27.2549712" lon="151.3388802">
  <ele>518.68</ele>
  <time>2026-09-01T20:00:44Z</time>
  <course>324.97</course>
  <speed>19.49</speed>
  <fix>3d</fix>
</trkpt>
<trkpt lat="-27.2549278" lon="151.3388467">
  <ele>518.34</ele>
  <time>2026-09-01T20:00:44Z</time>
  <course>324.81</course>
  <speed>19.021303845951255</speed>
  <fix>3d</fix>
</trkpt>
<trkpt lat="-27.2549425" lon="151.3388579">
  <ele>518.4</ele>
  <time>2026-09-01T20:00:44Z</time>
  <course>325.76</course>
  <speed>19.22</speed>
  <fix>3d</fix>
</trkpt>
<trkpt lat="-27.2549137" lon="151.3388359">
  <ele>518.29</ele>
  <time>2026-09-01T20:00:44Z</time>
  <course>325.11</course>
  <speed>18.81658045448216</speed>
  <fix>3d</fix>
</trkpt>
<trkpt lat="-27.2549425" lon="151.3388579">
  <ele>518.4</ele>
  <time>2026-09-01T20:00:44Z</time>
  <course>325.76</course>
  <speed>19.22</speed>
  <fix>3d</fix>
</trkpt>
<trkpt lat="-27.2531657" lon="151.3429043">
  <ele>540.27</ele>
  <time>2026-09-01T20:00:44Z</time>
  <course>248.81</course>
  <speed>11.96483179990425</speed>
  <fix>3d</fix>
</trkpt>
<trkpt lat="-27.2540469" lon="151.3408758">
  <ele>529.37</ele>
  <time>2026-09-01T20:00:44Z</time>
  <course>299.42</course>
  <speed>12.77</speed>
  <fix>3d</fix>
</trkpt>
<trkpt lat="-27.2531686" lon="151.3428927">
  <ele>536.43</ele>
  <time>2026-09-01T20:00:44Z</time>
  <course>241.21</course>
  <speed>12.427791436936813</speed>
  <fix>3d</fix>
</trkpt>
<trkpt lat="-27.2540469" lon="151.3408758">
  <ele>529.37</ele>
  <time>2026-09-01T20:00:44Z</time>
  <course>299.42</course>
  <speed>12.77</speed>
  <fix>3d</fix>
</trkpt>
<trkpt lat="-27.2531735" lon="151.3428806">
  <ele>532.65</ele>
  <time>2026-09-01T20:00:44Z</time>
  <course>226.99</course>
  <speed>14.027234224892661</speed>
  <fix>3d</fix>
</trkpt>
<trkpt lat="-27.2531694" lon="151.3428928">
  <ele>536.58</ele>
  <time>2026-09-01T20:00:44Z</time>
  <course>246.71</course>
  <speed>12.88</speed>
  <fix>3d</fix>
</trkpt>
<trkpt lat="-27.2531819" lon="151.3428691">
  <ele>528.93</ele>
  <time>2026-09-01T20:00:44Z</time>
  <course>207.89</course>
  <speed>15.404145545923669</speed>
  <fix>3d</fix>
</trkpt>
<trkpt lat="-27.2531694" lon="151.3428928">
  <ele>536.58</ele>
  <time>2026-09-01T20:00:44Z</time>
  <course>246.71</course>
  <speed>12.88</speed>
  <fix>3d</fix>
</trkpt>
<trkpt lat="-27.2531936" lon="151.3428602">
  <ele>525.28</ele>
  <time>2026-09-01T20:00:44Z</time>
  <course>191.01</course>
  <speed>15.849555198806053</speed>
  <fix>3d</fix>
</trkpt>
<trkpt lat="-27.2531832" lon="151.3428707">
  <ele>529.08</ele>
  <time>2026-09-01T20:00:44Z</time>
  <course>222.22</course>
  <speed>14.29</speed>
  <fix>3d</fix>
</trkpt>
<trkpt lat="-27.2532067" lon="151.3428544">
  <ele>521.65</ele>
  <time>2026-09-01T20:00:44Z</time>
  <course>186.36</course>
  <speed>15.860482338188836</speed>
  <fix>3d</fix>
</trkpt>
<trkpt lat="-27.2531832" lon="151.3428707">
  <ele>529.08</ele>
  <time>2026-09-01T20:00:44Z</time>
  <course>222.22</course>
  <speed>14.29</speed>
  <fix>3d</fix>
</trkpt>
<trkpt lat="-27.2532204" lon="151.3428462">
  <ele>518.11</ele>
  <time>2026-09-01T20:00:44Z</time>
  <course>207.01</course>
  <speed>20.046737889242728</speed>
  <fix>3d</fix>
</trkpt>
<trkpt lat="-27.2532066" lon="151.3428535">
  <ele>521.8</ele>
  <time>2026-09-01T20:00:44Z</time>
  <course>211.84</course>
  <speed>17.8</speed>
  <fix>3d</fix>
</trkpt>
<trkpt lat="-27.2532362" lon="151.34283">
  <ele>515.04</ele>
  <time>2026-09-01T20:00:44Z</time>
  <course>218.76</course>
  <speed>27.389642202847412</speed>
  <fix>3d</fix>
</trkpt>
<trkpt lat="-27.2532066" lon="151.3428535">
  <ele>521.8</ele>
  <time>2026-09-01T20:00:44Z</time>
  <course>211.84</course>
  <speed>17.8</speed>
  <fix>3d</fix>
</trkpt>
<trkpt lat="-27.2532545" lon="151.3428073">
  <ele>512.79</ele>
  <time>2026-09-01T20:00:44Z</time>
  <course>225.78</course>
  <speed>32.804495118809555</speed>
  <fix>3d</fix>
</trkpt>
<trkpt lat="-27.253237" lon="151.3428271">
  <ele>515.52</ele>
  <time>2026-09-01T20:00:44Z</time>
  <course>224.16</course>
  <speed>26.13</speed>
  <fix>3d</fix>
</trkpt>
<trkpt lat="-27.2532743" lon="151.3427807">
  <ele>511.47</ele>
  <time>2026-09-01T20:00:44Z</time>
  <course>229.7</course>
  <speed>35.353666005097686</speed>
  <fix>3d</fix>
</trkpt>
<trkpt lat="-27.253237" lon="151.3428271">
  <ele>515.52</ele>
  <time>2026-09-01T20:00:44Z</time>
  <course>224.16</course>
  <speed>26.13</speed>
  <fix>3d</fix>
</trkpt>
<trkpt lat="-27.2532948" lon="151.342752">
  <ele>511.21</ele>
  <time>2026-09-01T20:00:44Z</time>
  <course>231.3</course>
  <speed>34.56606572926691</speed>
  <fix>3d</fix>
</trkpt>
<trkpt lat="-27.2532738" lon="151.3427807">
  <ele>512.02</ele>
  <time>2026-09-01T20:00:44Z</time>
  <course>230.33</course>
  <speed>33.71</speed>
  <fix>3d</fix>
</trkpt>
<trkpt lat="-27.2533131" lon="151.3427261">
  <ele>511.99</ele>
  <time>2026-09-01T20:00:44Z</time>
  <course>231.4</course>
  <speed>30.635105679595753</speed>
  <fix>3d</fix>
</trkpt>
<trkpt lat="-27.2532738" lon="151.3427807">
  <ele>512.02</ele>
  <time>2026-09-01T20:00:44Z</time>
  <course>230.33</course>
  <speed>33.71</speed>
  <fix>3d</fix>
</trkpt>
<trkpt lat="-27.2533288" lon="151.3427041">
  <ele>513.56</ele>
  <time>2026-09-01T20:00:44Z</time>
  <course>230.87</course>
  <speed>25.030647214964297</speed>
  <fix>3d</fix>
</trkpt>
<trkpt lat="-27.2533108" lon="151.3427294">
  <ele>512.32</ele>
  <time>2026-09-01T20:00:44Z</time>
  <course>231.25</course>
  <speed>30.05</speed>
  <fix>3d</fix>
</trkpt>
<trkpt lat="-27.2533414" lon="151.3426869">
  <ele>515.64</ele>
  <time>2026-09-01T20:00:44Z</time>
  <course>230.48</course>
  <speed>19.109814232482744</speed>
  <fix>3d</fix>
</trkpt>
<trkpt lat="-27.2533108" lon="151.3427294">
  <ele>512.32</ele>
  <time>2026-09-01T20:00:44Z</time>
  <course>231.25</course>
  <speed>30.05</speed>
  <fix>3d</fix>
</trkpt>
<trkpt lat="-27.2533507" lon="151.342674">
  <ele>517.99</ele>
  <time>2026-09-01T20:00:44Z</time>
  <course>231.01</course>
  <speed>13.88274108380618</speed>
  <fix>3d</fix>
</trkpt>
<trkpt lat="-27.2533391" lon="151.34269">
  <ele>515.65</ele>
  <time>2026-09-01T20:00:44Z</time>
  <course>230.9</course>
  <speed>19.77</speed>
  <fix>3d</fix>
</trkpt>
<trkpt lat="-27.2533572" lon="151.3426649">
  <ele>520.44</ele>
  <time>2026-09-01T20:00:44Z</time>
  <course>233.33</course>
  <speed>9.36090273424524</speed>
  <fix>3d</fix>
</trkpt>
<trkpt lat="-27.2533391" lon="151.34269">
  <ele>515.65</ele>
  <time>2026-09-01T20:00:44Z</time>
  <course>230.9</course>
  <speed>19.77</speed>
  <fix>3d</fix>
</trkpt>
<trkpt lat="-27.253361" lon="151.342659">
  <ele>522.89</ele>
  <time>2026-09-01T20:00:44Z</time>
  <course>241.6</course>
  <speed>5.250380938560554</speed>
  <fix>3d</fix>
</trkpt>
<trkpt lat="-27.2533555" lon="151.342667">
  <ele>520.3</ele>
  <time>2026-09-01T20:00:44Z</time>
  <course>232.34</course>
  <speed>9.81</speed>
  <fix>3d</fix>
</trkpt>
<trkpt lat="-27.2533625" lon="151.3426558">
  <ele>525.28</ele>
  <time>2026-09-01T20:00:44Z</time>
  <course>293.7</course>
  <speed>1.917602670002313</speed>
  <fix>3d</fix>
</trkpt>
<trkpt lat="-27.2533555" lon="151.342667">
  <ele>520.3</ele>
  <time>2026-09-01T20:00:44Z</time>
  <course>232.34</course>
  <speed>9.81</speed>
  <fix>3d</fix>
</trkpt>
<trkpt lat="-27.2533621" lon="151.3426553">
  <ele>527.54</ele>
  <time>2026-09-01T20:00:44Z</time>
  <course>49.4</course>
  <speed>1.574102919125684</speed>
  <fix>3d</fix>
</trkpt>
<trkpt lat="-27.2533615" lon="151.3426572">
  <ele>525.08</ele>
  <time>2026-09-01T20:00:44Z</time>
  <course>244.15</course>
  <speed>2.13</speed>
  <fix>3d</fix>
</trkpt>
<trkpt lat="-27.2533605" lon="151.3426582">
  <ele>529.64</ele>
  <time>2026-09-01T20:00:44Z</time>
  <course>66.44</course>
  <speed>5.001649727839806</speed>
  <fix>3d</fix>
</trkpt>
<trkpt lat="-27.2533615" lon="151.3426572">
  <ele>525.08</ele>
  <time>2026-09-01T20:00:44Z</time>
  <course>244.15</course>
  <speed>2.13</speed>
  <fix>3d</fix>
</trkpt>
<trkpt lat="-27.253359" lon="151.342664">
  <ele>531.52</ele>
  <time>2026-09-01T20:00:44Z</time>
  <course>77.61</course>
  <speed>7.128337814666193</speed>
  <fix>3d</fix>
</trkpt>
<trkpt lat="-27.2533606" lon="151.3426595">
  <ele>529.41</ele>
  <time>2026-09-01T20:00:44Z</time>
  <course>69.94</course>
  <speed>4.03</speed>
  <fix>3d</fix>
</trkpt>
<trkpt lat="-27.253358" lon="151.3426718">
  <ele>533.21</ele>
  <time>2026-09-01T20:00:44Z</time>
  <course>88.66</course>
  <speed>8.243348834060098</speed>
  <fix>3d</fix>
</trkpt>
<trkpt lat="-27.2533606" lon="151.3426595">
  <ele>529.41</ele>
  <time>2026-09-01T20:00:44Z</time>
  <course>69.94</course>
  <speed>4.03</speed>
  <fix>3d</fix>
</trkpt>
<trkpt lat="-27.253358" lon="151.3426805">
  <ele>534.73</ele>
  <time>2026-09-01T20:00:44Z</time>
  <course>100.23</course>
  <speed>8.920201791439474</speed>
  <fix>3d</fix>
</trkpt>
<trkpt lat="-27.2533585" lon="151.3426718">
  <ele>533.02</ele>
  <time>2026-09-01T20:00:44Z</time>
  <course>86.15</course>
  <speed>7.89</speed>
  <fix>3d</fix>
</trkpt>
<trkpt lat="-27.2533591" lon="151.3426893">
  <ele>536.06</ele>
  <time>2026-09-01T20:00:44Z</time>
  <course>110.99</course>
  <speed>9.29658539464894</speed>
  <fix>3d</fix>
</trkpt>
<trkpt lat="-27.2533585" lon="151.3426718">
  <ele>533.02</ele>
  <time>2026-09-01T20:00:44Z</time>
  <course>86.15</course>
  <speed>7.89</speed>
  <fix>3d</fix>
</trkpt>
<trkpt lat="-27.2533615" lon="151.3426984">
  <ele>537.28</ele>
  <time>2026-09-01T20:00:44Z</time>
  <course>120.73</course>
  <speed>9.405471811663677</speed>
  <fix>3d</fix>
</trkpt>
<trkpt lat="-27.2533596" lon="151.342689">
  <ele>535.94</ele>
  <time>2026-09-01T20:00:44Z</time>
  <course>102.73</course>
  <speed>9.04</speed>
  <fix>3d</fix>
</trkpt>
<trkpt lat="-27.2533652" lon="151.3427069">
  <ele>538.38</ele>
  <time>2026-09-01T20:00:44Z</time>
  <course>128.66</course>
  <speed>9.264782782127167</speed>
  <fix>3d</fix>
</trkpt>
<trkpt lat="-27.2533596" lon="151.342689">
  <ele>535.94</ele>
  <time>2026-09-01T20:00:44Z</time>
  <course>102.73</course>
  <speed>9.04</speed>
  <fix>3d</fix>
</trkpt>
<trkpt lat="-27.2533699" lon="151.3427145">
  <ele>539.38</ele>
  <time>2026-09-01T20:00:44Z</time>
  <course>132.86</course>
  <speed>8.962750693843939</speed>
  <fix>3d</fix>
</trkpt>
<trkpt lat="-27.2533655" lon="151.3427062">
  <ele>538.3</ele>
  <time>2026-09-01T20:00:44Z</time>
  <course>119.32</course>
  <speed>9.1</speed>
  <fix>3d</fix>
</trkpt>
<trkpt lat="-27.253375" lon="151.3427213">
  <ele>540.29</ele>
  <time>2026-09-01T20:00:44Z</time>
  <course>131.92</course>
  <speed>8.606276779188548</speed>
  <fix>3d</fix>
</trkpt>
<trkpt lat="-27.2533655" lon="151.3427062">
  <ele>538.3</ele>
  <time>2026-09-01T20:00:44Z</time>
  <course>119.32</course>
  <speed>9.1</speed>
  <fix>3d</fix>
</trkpt>
<trkpt lat="-27.2533802" lon="151.3427275">
  <ele>541.13</ele>
  <time>2026-09-01T20:00:44Z</time>
  <course>127.67</course>
  <speed>8.329765903073147</speed>
  <fix>3d</fix>
</trkpt>
<trkpt lat="-27.2533749" lon="151.3427208">
  <ele>540.23</ele>
  <time>2026-09-01T20:00:44Z</time>
  <course>131.01</course>
  <speed>8.64</speed>
  <fix>3d</fix>
</trkpt>
<trkpt lat="-27.2533855" lon="151.3427333">
  <ele>541.88</ele>
  <time>2026-09-01T20:00:44Z</time>
  <course>123.67</course>
  <speed>8.195443856192293</speed>
  <fix>3d</fix>
</trkpt>
<trkpt lat="-27.2533749" lon="151.3427208">
  <ele>540.23</ele>
  <time>2026-09-01T20:00:44Z</time>
  <course>131.01</course>
  <speed>8.64</speed>
  <fix>3d</fix>
</trkpt>
<trkpt lat="-27.2533907" lon="151.3427391">
  <ele>542.52</ele>
  <time>2026-09-01T20:00:44Z</time>
  <course>121.83</course>
  <speed>8.145882395419171</speed>
  <fix>3d</fix>
</trkpt>
<trkpt lat="-27.2533853" lon="151.3427331">
  <ele>541.81</ele>
  <time>2026-09-01T20:00:44Z</time>
  <course>134.85</course>
  <speed>8.24</speed>
  <fix>3d</fix>
</trkpt>
<trkpt lat="-27.253396" lon="151.3427452">
  <ele>543.08</ele>
  <time>2026-09-01T20:00:44Z</time>
  <course>122.39</course>
  <speed>8.139170719428362</speed>
  <fix>3d</fix>
</trkpt>
<trkpt lat="-27.2533853" lon="151.3427331">
  <ele>541.81</ele>
  <time>2026-09-01T20:00:44Z</time>
  <course>134.85</course>
  <speed>8.24</speed>
  <fix>3d</fix>
</trkpt>
<trkpt lat="-27.2534011" lon="151.342751">
  <ele>543.51</ele>
  <time>2026-09-01T20:00:44Z</time>
  <course>124.87</course>
  <speed>8.125349223264191</speed>
  <fix>3d</fix>
</trkpt>
<trkpt lat="-27.2533956" lon="151.3427449">
  <ele>542.99</ele>
  <time>2026-09-01T20:00:44Z</time>
  <course>134.58</course>
  <speed>8.14</speed>
  <fix>3d</fix>
</trkpt>
<trkpt lat="-27.2534062" lon="151.342757">
  <ele>543.82</ele>
  <time>2026-09-01T20:00:44Z</time>
  <course>128.83</course>
  <speed>8.111208294699377</speed>
  <fix>3d</fix>
</trkpt>
<trkpt lat="-27.2533956" lon="151.3427449">
  <ele>542.99</ele>
  <time>2026-09-01T20:00:44Z</time>
  <course>134.58</course>
  <speed>8.14</speed>
  <fix>3d</fix>
</trkpt>
<trkpt lat="-27.2534113" lon="151.3427628">
  <ele>544.04</ele>
  <time>2026-09-01T20:00:44Z</time>
  <course>133.96</course>
  <speed>8.096746260072623</speed>
  <fix>3d</fix>
</trkpt>
<trkpt lat="-27.2534059" lon="151.3427566">
  <ele>543.75</ele>
  <time>2026-09-01T20:00:44Z</time>
  <course>134.33</course>
  <speed>8.12</speed>
  <fix>3d</fix>
</trkpt>
<trkpt lat="-27.2534164" lon="151.3427687">
  <ele>544.14</ele>
  <time>2026-09-01T20:00:44Z</time>
  <course>139.86</course>
  <speed>8.06809147196535</speed>
  <fix>3d</fix>
</trkpt>
<trkpt lat="-27.2534059" lon="151.3427566">
  <ele>543.75</ele>
  <time>2026-09-01T20:00:44Z</time>
  <course>134.33</course>
  <speed>8.12</speed>
  <fix>3d</fix>
</trkpt>
<trkpt lat="-27.2534216" lon="151.3427744">
  <ele>544.13</ele>
  <time>2026-09-01T20:00:44Z</time>
  <course>145.45</course>
  <speed>8.027035567381024</speed>
  <fix>3d</fix>
</trkpt>
<trkpt lat="-27.2534161" lon="151.3427682">
  <ele>544.08</ele>
  <time>2026-09-01T20:00:44Z</time>
  <course>135.18</course>
  <speed>8.06</speed>
  <fix>3d</fix>
</trkpt>
<trkpt lat="-27.2534268" lon="151.3427798">
  <ele>544.01</ele>
  <time>2026-09-01T20:00:45Z</time>
  <course>149.38</course>
  <speed>7.968098894968611</speed>
  <fix>3d</fix>
</trkpt>
<trkpt lat="-27.2534161" lon="151.3427682">
  <ele>544.08</ele>
  <time>2026-09-01T20:00:45Z</time>
  <course>135.18</course>
  <speed>8.06</speed>
  <fix>3d</fix>
</trkpt>
<trkpt lat="-27.2534321" lon="151.3427853">
  <ele>543.79</ele>
  <time>2026-09-01T20:00:45Z</time>
  <course>151.03</course>
  <speed>7.909393149919911</speed>
  <fix>3d</fix>
</trkpt>
<trkpt lat="-27.2534265" lon="151.3427795">
  <ele>543.96</ele>
  <time>2026-09-01T20:00:45Z</time>
  <course>136.98</course>
  <speed>7.97</speed>
  <fix>3d</fix>
</trkpt>
<trkpt lat="-27.2534373" lon="151.3427907">
  <ele>543.47</ele>
  <time>2026-09-01T20:00:45Z</time>
  <course>150.6</course>
  <speed>7.894536085166753</speed>
  <fix>3d</fix>
</trkpt>
<trkpt lat="-27.2534265" lon="151.3427795">
  <ele>543.96</ele>
  <time>2026-09-01T20:00:45Z</time>
  <course>136.98</course>
  <speed>7.97</speed>
  <fix>3d</fix>
</trkpt>
<trkpt lat="-27.2534426" lon="151.342796">
  <ele>543.08</ele>
  <time>2026-09-01T20:00:45Z</time>
  <course>148.79</course>
  <speed>7.9583729492905775</speed>
  <fix>3d</fix>
</trkpt>
<trkpt lat="-27.253437" lon="151.3427904">
  <ele>543.44</ele>
  <time>2026-09-01T20:00:45Z</time>
  <course>137.38</course>
  <speed>7.94</speed>
  <fix>3d</fix>
</trkpt>
<trkpt lat="-27.2534477" lon="151.3428018">
  <ele>542.63</ele>
  <time>2026-09-01T20:00:45Z</time>
  <course>146.47</course>
  <speed>8.139047855861275</speed>
  <fix>3d</fix>
</trkpt>
<trkpt lat="-27.253437" lon="151.3427904">
  <ele>543.44</ele>
  <time>2026-09-01T20:00:45Z</time>
  <course>137.38</course>
  <speed>7.94</speed>
  <fix>3d</fix>
</trkpt>
<trkpt lat="-27.2534529" lon="151.3428078">
  <ele>542.15</ele>
  <time>2026-09-01T20:00:45Z</time>
  <course>144.25</course>
  <speed>8.429976275174207</speed>
  <fix>3d</fix>
</trkpt>
<trkpt lat="-27.2534474" lon="151.3428016">
  <ele>542.64</ele>
  <time>2026-09-01T20:00:45Z</time>
  <course>134.58</course>
  <speed>8.18</speed>
  <fix>3d</fix>
</trkpt>
<trkpt lat="-27.253458" lon="151.3428142">
  <ele>541.66</ele>
  <time>2026-09-01T20:00:45Z</time>
  <course>142.26</course>
  <speed>8.780689039021938</speed>
  <fix>3d</fix>
</trkpt>
<trkpt lat="-27.2534474" lon="151.3428016">
  <ele>542.64</ele>
  <time>2026-09-01T20:00:45Z</time>
  <course>134.58</course>
  <speed>8.18</speed>
  <fix>3d</fix>
</trkpt>
<trkpt lat="-27.2534633" lon="151.3428212">
  <ele>541.19</ele>
  <time>2026-09-01T20:00:45Z</time>
  <course>140.17</course>
  <speed>9.13630669362626</speed>
  <fix>3d</fix>
</trkpt>
<trkpt lat="-27.2534578" lon="151.3428141">
  <ele>541.69</ele>
  <time>2026-09-01T20:00:45Z</time>
  <course>131.74</course>
  <speed>8.76</speed>
  <fix>3d</fix>
</trkpt>
<trkpt lat="-27.2534688" lon="151.3428281">
  <ele>540.7</ele>
  <time>2026-09-01T20:00:45Z</time>
  <course>137.74</course>
  <speed>9.441445863849456</speed>
  <fix>3d</fix>
</trkpt>
<trkpt lat="-27.2534578" lon="151.3428141">
  <ele>541.69</ele>
  <time>2026-09-01T20:00:45Z</time>
  <course>131.74</course>
  <speed>8.76</speed>
  <fix>3d</fix>
</trkpt>
<trkpt lat="-27.2534745" lon="151.3428353">
  <ele>540.2</ele>
  <time>2026-09-01T20:00:45Z</time>
  <course>135.11</course>
  <speed>9.695452542300437</speed>
  <fix>3d</fix>
</trkpt>
<trkpt lat="-27.2534686" lon="151.3428278">
  <ele>540.72</ele>
  <time>2026-09-01T20:00:45Z</time>
  <course>131.82</course>
  <speed>9.4</speed>
  <fix>3d</fix>
</trkpt>
<trkpt lat="-27.2534806" lon="151.3428425">
  <ele>539.65</ele>
  <time>2026-09-01T20:00:45Z</time>
  <course>132.72</course>
  <speed>9.916551820063262</speed>
  <fix>3d</fix>
</trkpt>
<trkpt lat="-27.2534686" lon="151.3428278">
  <ele>540.72</ele>
  <time>2026-09-01T20:00:45Z</time>
  <course>131.82</course>
  <speed>9.4</speed>
  <fix>3d</fix>
</trkpt>
<trkpt lat="-27.2534869" lon="151.3428499">
  <ele>539.08</ele>
  <time>2026-09-01T20:00:45Z</time>
  <course>130.98</course>
  <speed>10.154683648445184</speed>
  <fix>3d</fix>
</trkpt>
<trkpt lat="-27.2534803" lon="151.3428422">
  <ele>539.67</ele>
  <time>2026-09-01T20:00:45Z</time>
  <course>133.47</course>
  <speed>9.91</speed>
  <fix>3d</fix>
</trkpt>
<trkpt lat="-27.2534934" lon="151.3428573">
  <ele>538.47</ele>
  <time>2026-09-01T20:00:45Z</time>
  <course>129.95</course>
  <speed>10.45107649957649</speed>
  <fix>3d</fix>
</trkpt>
<trkpt lat="-27.2534803" lon="151.3428422">
  <ele>539.67</ele>
  <time>2026-09-01T20:00:45Z</time>
  <course>133.47</course>
  <speed>9.91</speed>
  <fix>3d</fix>
</trkpt>
<trkpt lat="-27.2534999" lon="151.3428648">
  <ele>537.85</ele>
  <time>2026-09-01T20:00:45Z</time>
  <course>129.54</course>
  <speed>10.804628637764464</speed>
  <fix>3d</fix>
</trkpt>
<trkpt lat="-27.2534931" lon="151.3428571">
  <ele>538.49</ele>
  <time>2026-09-01T20:00:45Z</time>
  <course>134.59</course>
  <speed>10.47</speed>
  <fix>3d</fix>
</trkpt>
<trkpt lat="-27.2535071" lon="151.3428729">
  <ele>537.2</ele>
  <time>2026-09-01T20:00:45Z</time>
  <course>129.59</course>
  <speed>11.222428435949146</speed>
  <fix>3d</fix>
</trkpt>
<trkpt lat="-27.2534931" lon="151.3428571">
  <ele>538.49</ele>
  <time>2026-09-01T20:00:45Z</time>
  <course>134.59</course>
  <speed>10.47</speed>
  <fix>3d</fix>
</trkpt>
<trkpt lat="-27.2535142" lon="151.3428812">
  <ele>536.58</ele>
  <time>2026-09-01T20:00:45Z</time>
  <course>130.01</course>
  <speed>11.628998237165572</speed>
  <fix>3d</fix>
</trkpt>
<trkpt lat="-27.2535068" lon="151.3428726">
  <ele>537.24</ele>
  <time>2026-09-01T20:00:45Z</time>
  <course>134.16</course>
  <speed>11.2</speed>
  <fix>3d</fix>
</trkpt>
<trkpt lat="-27.2535215" lon="151.3428899">
  <ele>535.97</ele>
  <time>2026-09-01T20:00:45Z</time>
  <course>130.62</course>
  <speed>12.012597554234471</speed>
  <fix>3d</fix>
</trkpt>
<trkpt lat="-27.2535068" lon="151.3428726">
  <ele>537.24</ele>
  <time>2026-09-01T20:00:45Z</time>
  <course>134.16</course>
  <speed>11.2</speed>
  <fix>3d</fix>
</trkpt>
<trkpt lat="-27.2535288" lon="151.3428992">
  <ele>535.37</ele>
  <time>2026-09-01T20:00:45Z</time>
  <course>131.23</course>
  <speed>12.373301903695715</speed>
  <fix>3d</fix>
</trkpt>
<trkpt lat="-27.253521" lon="151.3428897">
  <ele>536.01</ele>
  <time>2026-09-01T20:00:45Z</time>
  <course>132.35</course>
  <speed>11.98</speed>
  <fix>3d</fix>
</trkpt>
<trkpt lat="-27.2535361" lon="151.3429088">
  <ele>534.78</ele>
  <time>2026-09-01T20:00:45Z</time>
  <course>131.67</course>
  <speed>12.728589866909845</speed>
  <fix>3d</fix>
</trkpt>
<trkpt lat="-27.253521" lon="151.3428897">
  <ele>536.01</ele>
  <time>2026-09-01T20:00:45Z</time>
  <course>132.35</course>
  <speed>11.98</speed>
  <fix>3d</fix>
</trkpt>
<trkpt lat="-27.2535436" lon="151.3429188">
  <ele>534.21</ele>
  <time>2026-09-01T20:00:45Z</time>
  <course>131.88</course>
  <speed>13.06617771194009</speed>
  <fix>3d</fix>
</trkpt>
<trkpt lat="-27.2535357" lon="151.3429084">
  <ele>534.82</ele>
  <time>2026-09-01T20:00:45Z</time>
  <course>130.48</course>
  <speed>12.7</speed>
  <fix>3d</fix>
</trkpt>
<trkpt lat="-27.2535511" lon="151.3429291">
  <ele>533.68</ele>
  <time>2026-09-01T20:00:45Z</time>
  <course>131.86</course>
  <speed>13.39798492311437</speed>
  <fix>3d</fix>
</trkpt>
<trkpt lat="-27.2535357" lon="151.3429084">
  <ele>534.82</ele>
  <time>2026-09-01T20:00:45Z</time>
  <course>130.48</course>
  <speed>12.7</speed>
  <fix>3d</fix>
</trkpt>
<trkpt lat="-27.2535589" lon="151.3429397">
  <ele>533.16</ele>
  <time>2026-09-01T20:00:45Z</time>
  <course>131.66</course>
  <speed>13.69362625457552</speed>
  <fix>3d</fix>
</trkpt>
<trkpt lat="-27.2535507" lon="151.3429286">
  <ele>533.72</ele>
  <time>2026-09-01T20:00:45Z</time>
  <course>129.67</course>
  <speed>13.37</speed>
  <fix>3d</fix>
</trkpt>
<trkpt lat="-27.2535668" lon="151.3429504">
  <ele>532.71</ele>
  <time>2026-09-01T20:00:45Z</time>
  <course>131.34</course>
  <speed>13.954819955843213</speed>
  <fix>3d</fix>
</trkpt>
<trkpt lat="-27.2535507" lon="151.3429286">
  <ele>533.72</ele>
  <time>2026-09-01T20:00:45Z</time>
  <course>129.67</course>
  <speed>13.37</speed>
  <fix>3d</fix>
</trkpt>
<trkpt lat="-27.253575" lon="151.3429612">
  <ele>532.28</ele>
  <time>2026-09-01T20:00:45Z</time>
  <course>130.97</course>
  <speed>14.17209935048439</speed>
  <fix>3d</fix>
</trkpt>
<trkpt lat="-27.2535664" lon="151.3429498">
  <ele>532.75</ele>
  <time>2026-09-01T20:00:45Z</time>
  <course>130.03</course>
  <speed>13.92</speed>
  <fix>3d</fix>
</trkpt>
<trkpt lat="-27.2535834" lon="151.3429722">
  <ele>531.89</ele>
  <time>2026-09-01T20:00:45Z</time>
  <course>130.62</course>
  <speed>14.348017284628563</speed>
  <fix>3d</fix>
</trkpt>
<trkpt lat="-27.2535664" lon="151.3429498">
  <ele>532.75</ele>
  <time>2026-09-01T20:00:45Z</time>
  <course>130.03</course>
  <speed>13.92</speed>
  <fix>3d</fix>
</trkpt>
<trkpt lat="-27.2535919" lon="151.3429832">
  <ele>531.54</ele>
  <time>2026-09-01T20:00:45Z</time>
  <course>130.32</course>
  <speed>14.484288039113277</speed>
  <fix>3d</fix>
</trkpt>
<trkpt lat="-27.2535829" lon="151.3429715">
  <ele>531.93</ele>
  <time>2026-09-01T20:00:45Z</time>
  <course>130.83</course>
  <speed>14.32</speed>
  <fix>3d</fix>
</trkpt>
<trkpt lat="-27.2536005" lon="151.3429942">
  <ele>531.25</ele>
  <time>2026-09-01T20:00:45Z</time>
  <course>130.1</course>
  <speed>14.575558308346201</speed>
  <fix>3d</fix>
</trkpt>
<trkpt lat="-27.2535829" lon="151.3429715">
  <ele>531.93</ele>
  <time>2026-09-01T20:00:45Z</time>
  <course>130.83</course>
  <speed>14.32</speed>
  <fix>3d</fix>
</trkpt>
<trkpt lat="-27.2536092" lon="151.3430052">
  <ele>530.98</ele>
  <time>2026-09-01T20:00:45Z</time>
  <course>130.01</course>
  <speed>14.619743499801903</speed>
  <fix>3d</fix>
</trkpt>
<trkpt lat="-27.2536" lon="151.3429936">
  <ele>531.28</ele>
  <time>2026-09-01T20:00:45Z</time>
  <course>131.21</course>
  <speed>14.55</speed>
  <fix>3d</fix>
</trkpt>
<trkpt lat="-27.2536178" lon="151.3430165">
  <ele>530.73</ele>
  <time>2026-09-01T20:00:45Z</time>
  <course>130.07</course>
  <speed>14.645258618406162</speed>
  <fix>3d</fix>
</trkpt>
<trkpt lat="-27.2536" lon="151.3429936">
  <ele>531.28</ele>
  <time>2026-09-01T20:00:45Z</time>
  <course>131.21</course>
  <speed>14.55</speed>
  <fix>3d</fix>
</trkpt>
<trkpt lat="-27.2536264" lon="151.3430277">
  <ele>530.49</ele>
  <time>2026-09-01T20:00:45Z</time>
  <course>130.23</course>
  <speed>14.651484566418517</speed>
  <fix>3d</fix>
</trkpt>
<trkpt lat="-27.2536172" lon="151.3430158">
  <ele>530.75</ele>
  <time>2026-09-01T20:00:45Z</time>
  <course>130.92</course>
  <speed>14.64</speed>
  <fix>3d</fix>
</trkpt>
<trkpt lat="-27.2536349" lon="151.3430388">
  <ele>530.26</ele>
  <time>2026-09-01T20:00:45Z</time>
  <course>130.4</course>
  <speed>14.651733685813431</speed>
  <fix>3d</fix>
</trkpt>
<trkpt lat="-27.2536172" lon="151.3430158">
  <ele>530.75</ele>
  <time>2026-09-01T20:00:45Z</time>
  <course>130.92</course>
  <speed>14.64</speed>
  <fix>3d</fix>
</trkpt>
<trkpt lat="-27.2536434" lon="151.3430502">
  <ele>530.03</ele>
  <time>2026-09-01T20:00:45Z</time>
  <course>130.54</course>
  <speed>14.651313934251768</speed>
  <fix>3d</fix>
</trkpt>
<trkpt lat="-27.2536344" lon="151.3430383">
  <ele>530.27</ele>
  <time>2026-09-01T20:00:45Z</time>
  <course>130.3</course>
  <speed>14.65</speed>
  <fix>3d</fix>
</trkpt>
<trkpt lat="-27.2536518" lon="151.3430616">
  <ele>529.81</ele>
  <time>2026-09-01T20:00:45Z</time>
  <course>130.59</course>
  <speed>14.642308561152506</speed>
  <fix>3d</fix>
</trkpt>
<trkpt lat="-27.2536344" lon="151.3430383">
  <ele>530.27</ele>
  <time>2026-09-01T20:00:45Z</time>
  <course>130.3</course>
  <speed>14.65</speed>
  <fix>3d</fix>
</trkpt>
<trkpt lat="-27.2518301" lon="151.3470562">
  <ele>539.66</ele>
  <time>2026-09-01T20:00:45Z</time>
  <course>252.81</course>
  <speed>11.16233398532762</speed>
  <fix>3d</fix>
</trkpt>
<trkpt lat="-27.2527365" lon="151.3450532">
  <ele>534.94</ele>
  <time>2026-09-01T20:00:45Z</time>
  <course>178.88</course>
  <speed>5.94</speed>
  <fix>3d</fix>
</trkpt>
<trkpt lat="-27.2518319" lon="151.3470456">
  <ele>535.78</ele>
  <time>2026-09-01T20:00:45Z</time>
  <course>245.48</course>
  <speed>10.552459428967259</speed>
  <fix>3d</fix>
</trkpt>
<trkpt lat="-27.2527365" lon="151.3450532">
  <ele>534.94</ele>
  <time>2026-09-01T20:00:45Z</time>
  <course>178.88</course>
  <speed>5.94</speed>
  <fix>3d</fix>
</trkpt>
<trkpt lat="-27.2518348" lon="151.3470348">
  <ele>531.91</ele>
  <time>2026-09-01T20:00:45Z</time>
  <course>226.76</course>
  <speed>11.621118706905975</speed>
  <fix>3d</fix>
</trkpt>
<trkpt lat="-27.2518323" lon="151.3470461">
  <ele>535.98</ele>
  <time>2026-09-01T20:00:45Z</time>
  <course>251.4</course>
  <speed>11.36</speed>
  <fix>3d</fix>
</trkpt>
<trkpt lat="-27.2518414" lon="151.3470251">
  <ele>528.12</ele>
  <time>2026-09-01T20:00:45Z</time>
  <course>203.78</course>
  <speed>12.746815288533837</speed>
  <fix>3d</fix>
</trkpt>
<trkpt lat="-27.2518323" lon="151.3470461">
  <ele>535.98</ele>
  <time>2026-09-01T20:00:45Z</time>
  <course>251.4</course>
  <speed>11.36</speed>
  <fix>3d</fix>
</trkpt>
<trkpt lat="-27.2518514" lon="151.3470185">
  <ele>524.36</ele>
  <time>2026-09-01T20:00:45Z</time>
  <course>183.7</course>
  <speed>13.26573405432206</speed>
  <fix>3d</fix>
</trkpt>
<trkpt lat="-27.2518427" lon="151.3470271">
  <ele>528.32</ele>
  <time>2026-09-01T20:00:45Z</time>
  <course>222.18</course>
  <speed>11.52</speed>
  <fix>3d</fix>
</trkpt>
<trkpt lat="-27.251863" lon="151.3470152">
  <ele>520.62</ele>
  <time>2026-09-01T20:00:45Z</time>
  <course>171.06</course>
  <speed>13.173628960920373</speed>
  <fix>3d</fix>
</trkpt>
<trkpt lat="-27.2518427" lon="151.3470271">
  <ele>528.32</ele>
  <time>2026-09-01T20:00:45Z</time>
  <course>222.18</course>
  <speed>11.52</speed>
  <fix>3d</fix>
</trkpt>
<trkpt lat="-27.251875" lon="151.3470127">
  <ele>516.91</ele>
  <time>2026-09-01T20:00:45Z</time>
  <course>186.79</course>
  <speed>15.356177909883694</speed>
  <fix>3d</fix>
</trkpt>
<trkpt lat="-27.2518626" lon="151.3470158">
  <ele>520.81</ele>
  <time>2026-09-01T20:00:45Z</time>
  <course>199.34</course>
  <speed>14.16</speed>
  <fix>3d</fix>
</trkpt>
<trkpt lat="-27.2518902" lon="151.347004">
  <ele>513.5</ele>
  <time>2026-09-01T20:00:45Z</time>
  <course>202.37</course>
  <speed>23.032900381845096</speed>
  <fix>3d</fix>
</trkpt>
<trkpt lat="-27.2518626" lon="151.3470158">
  <ele>520.81</ele>
  <time>2026-09-01T20:00:45Z</time>
  <course>199.34</course>
  <speed>14.16</speed>
  <fix>3d</fix>
</trkpt>
<trkpt lat="-27.2519102" lon="151.3469883">
  <ele>510.76</ele>
  <time>2026-09-01T20:00:45Z</time>
  <course>210.75</course>
  <speed>30.29395319201507</speed>
  <fix>3d</fix>
</trkpt>
<trkpt lat="-27.2518916" lon="151.3470012">
  <ele>513.99</ele>
  <time>2026-09-01T20:00:45Z</time>
  <course>209.78</course>
  <speed>22.24</speed>
  <fix>3d</fix>
</trkpt>
<trkpt lat="-27.2519336" lon="151.3469686">
  <ele>508.96</ele>
  <time>2026-09-01T20:00:45Z</time>
  <course>215.19</course>
  <speed>34.259727085894895</speed>
  <fix>3d</fix>
</trkpt>
<trkpt lat="-27.2518916" lon="151.3470012">
  <ele>513.99</ele>
  <time>2026-09-01T20:00:45Z</time>
  <course>209.78</course>
  <speed>22.24</speed>
  <fix>3d</fix>
</trkpt>
<trkpt lat="-27.2519585" lon="151.3469469">
  <ele>508.07</ele>
  <time>2026-09-01T20:00:45Z</time>
  <course>217.09</course>
  <speed>35.41211374656983</speed>
  <fix>3d</fix>
</trkpt>
<trkpt lat="-27.2519329" lon="151.3469687">
  <ele>509.5</ele>
  <time>2026-09-01T20:00:45Z</time>
  <course>217.09</course>
  <speed>32.68</speed>
  <fix>3d</fix>
</trkpt>
<trkpt lat="-27.2519833" lon="151.3469251">
  <ele>508.01</ele>
  <time>2026-09-01T20:00:45Z</time>
  <course>217.62</course>
  <speed>34.44307332396457</speed>
  <fix>3d</fix>
</trkpt>
<trkpt lat="-27.2519329" lon="151.3469687">
  <ele>509.5</ele>
  <time>2026-09-01T20:00:45Z</time>
  <course>217.09</course>
  <speed>32.68</speed>
  <fix>3d</fix>
</trkpt>
<trkpt lat="-27.252007" lon="151.3469041">
  <ele>508.57</ele>
  <time>2026-09-01T20:00:45Z</time>
  <course>217.94</course>
  <speed>32.53055486769323</speed>
  <fix>3d</fix>
</trkpt>
<trkpt lat="-27.2519813" lon="151.3469268">
  <ele>508.31</ele>
  <time>2026-09-01T20:00:45Z</time>
  <course>218.04</course>
  <speed>34.03</speed>
  <fix>3d</fix>
</trkpt>
<trkpt lat="-27.2520292" lon="151.3468844">
  <ele>509.52</ele>
  <time>2026-09-01T20:00:45Z</time>
  <course>218.54</course>
  <speed>30.607000833142735</speed>
  <fix>3d</fix>
</trkpt>
<trkpt lat="-27.2519813" lon="151.3469268">
  <ele>508.31</ele>
  <time>2026-09-01T20:00:45Z</time>
  <course>218.04</course>
  <speed>34.03</speed>
  <fix>3d</fix>
</trkpt>
<trkpt lat="-27.2520499" lon="151.3468653">
  <ele>510.67</ele>
  <time>2026-09-01T20:00:45Z</time>
  <course>219.15</course>
  <speed>29.068314364613574</speed>
  <fix>3d</fix>
</trkpt>
<trkpt lat="-27.2520271" lon="151.3468859">
  <ele>509.56</ele>
  <time>2026-09-01T20:00:45Z</time>
  <course>218.84</course>
  <speed>30.9</speed>
  <fix>3d</fix>
</trkpt>
<trkpt lat="-27.2520694" lon="151.3468469">
  <ele>511.9</ele>
  <time>2026-09-01T20:00:45Z</time>
  <course>219.57</course>
  <speed>27.8962094199194</speed>
  <fix>3d</fix>
</trkpt>
<trkpt lat="-27.2520271" lon="151.3468859">
  <ele>509.56</ele>
  <time>2026-09-01T20:00:45Z</time>
  <course>218.84</course>
  <speed>30.9</speed>
  <fix>3d</fix>
</trkpt>
<trkpt lat="-27.2520881" lon="151.3468288">
  <ele>513.14</ele>
  <time>2026-09-01T20:00:45Z</time>
  <course>219.84</course>
  <speed>26.97424697744128</speed>
  <fix>3d</fix>
</trkpt>
<trkpt lat="-27.2520678" lon="151.3468481">
  <ele>511.83</ele>
  <time>2026-09-01T20:00:45Z</time>
  <course>220.31</course>
  <speed>28.08</speed>
  <fix>3d</fix>
</trkpt>
<trkpt lat="-27.252106" lon="151.346811">
  <ele>514.35</ele>
  <time>2026-09-01T20:00:45Z</time>
  <course>220.1</course>
  <speed>26.211711123083898</speed>
  <fix>3d</fix>
</trkpt>
<trkpt lat="-27.2520678" lon="151.3468481">
  <ele>511.83</ele>
  <time>2026-09-01T20:00:45Z</time>
  <course>220.31</course>
  <speed>28.08</speed>
  <fix>3d</fix>
</trkpt>
<trkpt lat="-27.2521234" lon="151.3467937">
  <ele>515.5</ele>
  <time>2026-09-01T20:00:45Z</time>
  <course>220.46</course>
  <speed>25.524921155607903</speed>
  <fix>3d</fix>
</trkpt>
<trkpt lat="-27.2521046" lon="151.3468122">
  <ele>514.25</ele>
  <time>2026-09-01T20:00:45Z</time>
  <course>221.41</course>
  <speed>26.29</speed>
  <fix>3d</fix>
</trkpt>
<trkpt lat="-27.2521402" lon="151.3467767">
  <ele>516.6</ele>
  <time>2026-09-01T20:00:45Z</time>
  <course>220.88</course>
  <speed>24.867649667791284</speed>
  <fix>3d</fix>
</trkpt>
<trkpt lat="-27.2521046" lon="151.3468122">
  <ele>514.25</ele>
  <time>2026-09-01T20:00:45Z</time>
  <course>221.41</course>
  <speed>26.29</speed>
  <fix>3d</fix>
</trkpt>
<trkpt lat="-27.2521566" lon="151.34676">
  <ele>517.65</ele>
  <time>2026-09-01T20:00:45Z</time>
  <course>221.3</course>
  <speed>24.218928547728943</speed>
  <fix>3d</fix>
</trkpt>
<trkpt lat="-27.2521391" lon="151.3467777">
  <ele>516.52</ele>
  <time>2026-09-01T20:00:45Z</time>
  <course>221.96</course>
  <speed>24.91</speed>
  <fix>3d</fix>
</trkpt>
<trkpt lat="-27.2521724" lon="151.3467437">
  <ele>518.65</ele>
  <time>2026-09-01T20:00:45Z</time>
  <course>221.69</course>
  <speed>23.555772116404928</speed>
  <fix>3d</fix>
</trkpt>
<trkpt lat="-27.2521391" lon="151.3467777">
  <ele>516.52</ele>
  <time>2026-09-01T20:00:45Z</time>
  <course>221.96</course>
  <speed>24.91</speed>
  <fix>3d</fix>
</trkpt>
<trkpt lat="-27.2521878" lon="151.3467279">
  <ele>519.63</ele>
  <time>2026-09-01T20:00:45Z</time>
  <course>222.04</course>
  <speed>22.879521411078514</speed>
  <fix>3d</fix>
</trkpt>
<trkpt lat="-27.2521714" lon="151.3467448">
  <ele>518.58</ele>
  <time>2026-09-01T20:00:45Z</time>
  <course>222.43</course>
  <speed>23.58</speed>
  <fix>3d</fix>
</trkpt>
<trkpt lat="-27.2522026" lon="151.3467125">
  <ele>520.57</ele>
  <time>2026-09-01T20:00:45Z</time>
  <course>222.38</course>
  <speed>22.181688393808077</speed>
  <fix>3d</fix>
</trkpt>
<trkpt lat="-27.2521714" lon="151.3467448">
  <ele>518.58</ele>
  <time>2026-09-01T20:00:45Z</time>
  <course>222.43</course>
  <speed>23.58</speed>
  <fix>3d</fix>
</trkpt>
<trkpt lat="-27.2522169" lon="151.3466973">
  <ele>521.5</ele>
  <time>2026-09-01T20:00:45Z</time>
  <course>222.72</course>
  <speed>21.47076384295631</speed>
  <fix>3d</fix>
</trkpt>
<trkpt lat="-27.2522016" lon="151.3467134">
  <ele>520.52</ele>
  <time>2026-09-01T20:00:45Z</time>
  <course>222.94</course>
  <speed>22.21</speed>
  <fix>3d</fix>
</trkpt>
<trkpt lat="-27.2522307" lon="151.3466828">
  <ele>522.41</ele>
  <time>2026-09-01T20:00:45Z</time>
  <course>223.06</course>
  <speed>20.73897297360696</speed>
  <fix>3d</fix>
</trkpt>
<trkpt lat="-27.2522016" lon="151.3467134">
  <ele>520.52</ele>
  <time>2026-09-01T20:00:45Z</time>
  <course>222.94</course>
  <speed>22.21</speed>
  <fix>3d</fix>
</trkpt>
<trkpt lat="-27.2522439" lon="151.3466685">
  <ele>523.33</ele>
  <time>2026-09-01T20:00:45Z</time>
  <course>223.39</course>
  <speed>20.001184964896453</speed>
  <fix>3d</fix>
</trkpt>
<trkpt lat="-27.2522297" lon="151.3466836">
  <ele>522.37</ele>
  <time>2026-09-01T20:00:45Z</time>
  <course>223.51</course>
  <speed>20.77</speed>
  <fix>3d</fix>
</trkpt>
<trkpt lat="-27.2522566" lon="151.3466547">
  <ele>524.24</ele>
  <time>2026-09-01T20:00:45Z</time>
  <course>223.71</course>
  <speed>19.24973766055008</speed>
  <fix>3d</fix>
</trkpt>
<trkpt lat="-27.2522297" lon="151.3466836">
  <ele>522.37</ele>
  <time>2026-09-01T20:00:45Z</time>
  <course>223.51</course>
  <speed>20.77</speed>
  <fix>3d</fix>
</trkpt>
<trkpt lat="-27.2522688" lon="151.3466415">
  <ele>525.14</ele>
  <time>2026-09-01T20:00:45Z</time>
  <course>224.02</course>
  <speed>18.498972944463702</speed>
  <fix>3d</fix>
</trkpt>
<trkpt lat="-27.2522557" lon="151.3466556">
  <ele>524.19</ele>
  <time>2026-09-01T20:00:45Z</time>
  <course>224.08</course>
  <speed>19.29</speed>
  <fix>3d</fix>
</trkpt>
<trkpt lat="-27.2522804" lon="151.3466286">
  <ele>526.04</ele>
  <time>2026-09-01T20:00:45Z</time>
  <course>224.31</course>
  <speed>17.741626193785056</speed>
  <fix>3d</fix>
</trkpt>
<trkpt lat="-27.2522557" lon="151.3466556">
  <ele>524.19</ele>
  <time>2026-09-01T20:00:45Z</time>
  <course>224.08</course>
  <speed>19.29</speed>
  <fix>3d</fix>
</trkpt>
<trkpt lat="-27.2522914" lon="151.3466163">
  <ele>526.94</ele>
  <time>2026-09-01T20:00:45Z</time>
  <course>224.57</course>
  <speed>16.99887055071601</speed>
  <fix>3d</fix>
</trkpt>
<trkpt lat="-27.2522795" lon="151.3466295">
  <ele>526.0</ele>
  <time>2026-09-01T20:00:45Z</time>
  <course>224.63</course>
  <speed>17.79</speed>
  <fix>3d</fix>
</trkpt>
<trkpt lat="-27.252302" lon="151.3466044">
  <ele>527.83</ele>
  <time>2026-09-01T20:00:45Z</time>
  <course>224.82</course>
  <speed>16.270602324437778</speed>
  <fix>3d</fix>
</trkpt>
<trkpt lat="-27.2522795" lon="151.3466295">
  <ele>526.0</ele>
  <time>2026-09-01T20:00:45Z</time>
  <course>224.63</course>
  <speed>17.79</speed>
  <fix>3d</fix>
</trkpt>
<trkpt lat="-27.2523121" lon="151.3465929">
  <ele>528.71</ele>
  <time>2026-09-01T20:00:45Z</time>
  <course>225.03</course>
  <speed>15.577923481645428</speed>
  <fix>3d</fix>
</trkpt>
<trkpt lat="-27.2523012" lon="151.3466052">
  <ele>527.78</ele>
  <time>2026-09-01T20:00:45Z</time>
  <course>225.13</course>
  <speed>16.33</speed>
  <fix>3d</fix>
</trkpt>
<trkpt lat="-27.2523217" lon="151.3465819">
  <ele>529.57</ele>
  <time>2026-09-01T20:00:45Z</time>
  <course>225.21</course>
  <speed>14.934905423202386</speed>
  <fix>3d</fix>
</trkpt>
<trkpt lat="-27.2523012" lon="151.3466052">
  <ele>527.78</ele>
  <time>2026-09-01T20:00:45Z</time>
  <course>225.13</course>
  <speed>16.33</speed>
  <fix>3d</fix>
</trkpt>
<trkpt lat="-27.2523308" lon="151.3465713">
  <ele>530.4</ele>
  <time>2026-09-01T20:00:45Z</time>
  <course>225.38</course>
  <speed>14.313210681045675</speed>
  <fix>3d</fix>
</trkpt>
<trkpt lat="-27.252321" lon="151.3465827">
  <ele>529.51</ele>
  <time>2026-09-01T20:00:45Z</time>
  <course>225.57</course>
  <speed>14.98</speed>
  <fix>3d</fix>
</trkpt>
<trkpt lat="-27.2523396" lon="151.3465612">
  <ele>531.2</ele>
  <time>2026-09-01T20:00:45Z</time>
  <course>225.54</course>
  <speed>13.741066188618698</speed>
  <fix>3d</fix>
</trkpt>
<trkpt lat="-27.252321" lon="151.3465827">
  <ele>529.51</ele>
  <time>2026-09-01T20:00:45Z</time>
  <course>225.57</course>
  <speed>14.98</speed>
  <fix>3d</fix>
</trkpt>
<trkpt lat="-27.2523481" lon="151.3465512">
  <ele>531.98</ele>
  <time>2026-09-01T20:00:45Z</time>
  <course>225.68</course>
  <speed>13.190136466314517</speed>
  <fix>3d</fix>
</trkpt>
<trkpt lat="-27.252339" lon="151.3465618">
  <ele>531.15</ele>
  <time>2026-09-01T20:00:45Z</time>
  <course>225.94</course>
  <speed>13.79</speed>
  <fix>3d</fix>
</trkpt>
<trkpt lat="-27.2523561" lon="151.3465419">
  <ele>532.72</ele>
  <time>2026-09-01T20:00:45Z</time>
  <course>225.82</course>
  <speed>12.674509852455833</speed>
  <fix>3d</fix>
</trkpt>
<trkpt lat="-27.252339" lon="151.3465618">
  <ele>531.15</ele>
  <time>2026-09-01T20:00:45Z</time>
  <course>225.94</course>
  <speed>13.79</speed>
  <fix>3d</fix>
</trkpt>
<trkpt lat="-27.2523638" lon="151.3465328">
  <ele>533.41</ele>
  <time>2026-09-01T20:00:45Z</time>
  <course>225.95</course>
  <speed>12.180353032650574</speed>
  <fix>3d</fix>
</trkpt>
<trkpt lat="-27.2523555" lon="151.3465426">
  <ele>532.66</ele>
  <time>2026-09-01T20:00:45Z</time>
  <course>226.27</course>
  <speed>12.72</speed>
  <fix>3d</fix>
</trkpt>
<trkpt lat="-27.2523712" lon="151.3465239">
  <ele>534.08</ele>
  <time>2026-09-01T20:00:45Z</time>
  <course>226.08</course>
  <speed>11.707335307404499</speed>
  <fix>3d</fix>
</trkpt>
<trkpt lat="-27.2523555" lon="151.3465426">
  <ele>532.66</ele>
  <time>2026-09-01T20:00:45Z</time>
  <course>226.27</course>
  <speed>12.72</speed>
  <fix>3d</fix>
</trkpt>
<trkpt lat="-27.2523783" lon="151.3465156">
  <ele>534.7</ele>
  <time>2026-09-01T20:00:45Z</time>
  <course>226.2</course>
  <speed>11.241267722103233</speed>
  <fix>3d</fix>
</trkpt>
<trkpt lat="-27.2523706" lon="151.3465246">
  <ele>534.02</ele>
  <time>2026-09-01T20:00:45Z</time>
  <course>226.58</course>
  <speed>11.74</speed>
  <fix>3d</fix>
</trkpt>
<trkpt lat="-27.252385" lon="151.3465075">
  <ele>535.29</ele>
  <time>2026-09-01T20:00:45Z</time>
  <course>226.31</course>
  <speed>10.803541086143932</speed>
  <fix>3d</fix>
</trkpt>
<trkpt lat="-27.2523706" lon="151.3465246">
  <ele>534.02</ele>
  <time>2026-09-01T20:00:45Z</time>
  <course>226.58</course>
  <speed>11.74</speed>
  <fix>3d</fix>
</trkpt>
<trkpt lat="-27.2523915" lon="151.3464996">
  <ele>535.84</ele>
  <time>2026-09-01T20:00:45Z</time>
  <course>226.43</course>
  <speed>10.365891182141551</speed>
  <fix>3d</fix>
</trkpt>
<trkpt lat="-27.2523845" lon="151.346508">
  <ele>535.24</ele>
  <time>2026-09-01T20:00:45Z</time>
  <course>226.89</course>
  <speed>10.83</speed>
  <fix>3d</fix>
</trkpt>
<trkpt lat="-27.2523977" lon="151.3464921">
  <ele>536.35</ele>
  <time>2026-09-01T20:00:45Z</time>
  <course>226.54</course>
  <speed>9.942459454279911</speed>
  <fix>3d</fix>
</trkpt>
<trkpt lat="-27.2523845" lon="151.346508">
  <ele>535.24</ele>
  <time>2026-09-01T20:00:45Z</time>
  <course>226.89</course>
  <speed>10.83</speed>
  <fix>3d</fix>
</trkpt>
<trkpt lat="-27.2524037" lon="151.3464849">
  <ele>536.82</ele>
  <time>2026-09-01T20:00:45Z</time>
  <course>226.65</course>
  <speed>9.540020964337552</speed>
  <fix>3d</fix>
</trkpt>
<trkpt lat="-27.2523973" lon="151.3464927">
  <ele>536.3</ele>
  <time>2026-09-01T20:00:45Z</time>
  <course>227.2</course>
  <speed>9.97</speed>
  <fix>3d</fix>
</trkpt>
<trkpt lat="-27.2524093" lon="151.346478">
  <ele>537.26</ele>
  <time>2026-09-01T20:00:45Z</time>
  <course>226.75</course>
  <speed>9.137641927762326</speed>
  <fix>3d</fix>
</trkpt>
<trkpt lat="-27.2523973" lon="151.3464927">
  <ele>536.3</ele>
  <time>2026-09-01T20:00:45Z</time>
  <course>227.2</course>
  <speed>9.97</speed>
  <fix>3d</fix>
</trkpt>
<trkpt lat="-27.2524148" lon="151.3464713">
  <ele>537.66</ele>
  <time>2026-09-01T20:00:45Z</time>
  <course>226.85</course>
  <speed>8.756854458080253</speed>
  <fix>3d</fix>
</trkpt>
<trkpt lat="-27.2524089" lon="151.3464784">
  <ele>537.22</ele>
  <time>2026-09-01T20:00:45Z</time>
  <course>227.53</course>
  <speed>9.17</speed>
  <fix>3d</fix>
</trkpt>
<trkpt lat="-27.2524199" lon="151.3464649">
  <ele>538.02</ele>
  <time>2026-09-01T20:00:45Z</time>
  <course>226.95</course>
  <speed>8.382887330747087</speed>
  <fix>3d</fix>
</trkpt>
<trkpt lat="-27.2524089" lon="151.3464784">
  <ele>537.22</ele>
  <time>2026-09-01T20:00:45Z</time>
  <course>227.53</course>
  <speed>9.17</speed>
  <fix>3d</fix>
</trkpt>
<trkpt lat="-27.2524249" lon="151.3464587">
  <ele>538.35</ele>
  <time>2026-09-01T20:00:45Z</time>
  <course>227.05</course>
  <speed>8.023122833410941</speed>
  <fix>3d</fix>
</trkpt>
<trkpt lat="-27.2524195" lon="151.3464652">
  <ele>537.99</ele>
  <time>2026-09-01T20:00:45Z</time>
  <course>227.88</course>
  <speed>8.41</speed>
  <fix>3d</fix>
</trkpt>
<trkpt lat="-27.2524296" lon="151.3464527">
  <ele>538.65</ele>
  <time>2026-09-01T20:00:45Z</time>
  <course>227.14</course>
  <speed>7.677564718060017</speed>
  <fix>3d</fix>
</trkpt>
<trkpt lat="-27.2524195" lon="151.3464652">
  <ele>537.99</ele>
  <time>2026-09-01T20:00:45Z</time>
  <course>227.88</course>
  <speed>8.41</speed>
  <fix>3d</fix>
</trkpt>
<trkpt lat="-27.252434" lon="151.3464471">
  <ele>538.91</ele>
  <time>2026-09-01T20:00:45Z</time>
  <course>227.22</course>
  <speed>7.353706548401289</speed>
  <fix>3d</fix>
</trkpt>
<trkpt lat="-27.2524292" lon="151.3464531">
  <ele>538.62</ele>
  <time>2026-09-01T20:00:45Z</time>
  <course>228.26</course>
  <speed>7.71</speed>
  <fix>3d</fix>
</trkpt>
<trkpt lat="-27.2524383" lon="151.3464416">
  <ele>539.14</ele>
  <time>2026-09-01T20:00:45Z</time>
  <course>227.29</course>
  <speed>7.043195297590433</speed>
  <fix>3d</fix>
</trkpt>
<trkpt lat="-27.2524292" lon="151.3464531">
  <ele>538.62</ele>
  <time>2026-09-01T20:00:45Z</time>
  <course>228.26</course>
  <speed>7.71</speed>
  <fix>3d</fix>
</trkpt>
<trkpt lat="-27.2524424" lon="151.3464363">
  <ele>539.33</ele>
  <time>2026-09-01T20:00:45Z</time>
  <course>227.34</course>
  <speed>6.7609614700869285</speed>
  <fix>3d</fix>
</trkpt>
<trkpt lat="-27.252438" lon="151.346442">
  <ele>539.11</ele>
  <time>2026-09-01T20:00:45Z</time>
  <course>228.64</course>
  <speed>7.08</speed>
  <fix>3d</fix>
</trkpt>
<trkpt lat="-27.2524463" lon="151.3464313">
  <ele>539.48</ele>
  <time>2026-09-01T20:00:45Z</time>
  <course>227.38</course>
  <speed>6.500438446751112</speed>
  <fix>3d</fix>
</trkpt>
<trkpt lat="-27.252438" lon="151.346442">
  <ele>539.11</ele>
  <time>2026-09-01T20:00:45Z</time>
  <course>228.64</course>
  <speed>7.08</speed>
  <fix>3d</fix>
</trkpt>
<trkpt lat="-27.2524501" lon="151.3464265">
  <ele>539.61</ele>
  <time>2026-09-01T20:00:45Z</time>
  <course>227.42</course>
  <speed>6.268221438334802</speed>
  <fix>3d</fix>
</trkpt>
<trkpt lat="-27.252446" lon="151.3464316">
  <ele>539.45</ele>
  <time>2026-09-01T20:00:45Z</time>
  <course>229.02</course>
  <speed>6.53</speed>
  <fix>3d</fix>
</trkpt>
<trkpt lat="-27.2524537" lon="151.3464216">
  <ele>539.69</ele>
  <time>2026-09-01T20:00:45Z</time>
  <course>227.46</course>
  <speed>6.0350062137499085</speed>
  <fix>3d</fix>
</trkpt>
<trkpt lat="-27.252446" lon="151.3464316">
  <ele>539.45</ele>
  <time>2026-09-01T20:00:45Z</time>
  <course>229.02</course>
  <speed>6.53</speed>
  <fix>3d</fix>
</trkpt>
<trkpt lat="-27.2524571" lon="151.3464172">
  <ele>539.76</ele>
  <time>2026-09-01T20:00:45Z</time>
  <course>227.43</course>
  <speed>5.774738089298943</speed>
  <fix>3d</fix>
</trkpt>
<trkpt lat="-27.2524534" lon="151.346422">
  <ele>539.67</ele>
  <time>2026-09-01T20:00:45Z</time>
  <course>229.41</course>
  <speed>6.04</speed>
  <fix>3d</fix>
</trkpt>
<trkpt lat="-27.2524604" lon="151.3464129">
  <ele>539.79</ele>
  <time>2026-09-01T20:00:45Z</time>
  <course>227.22</course>
  <speed>5.486428710919336</speed>
  <fix>3d</fix>
</trkpt>
<trkpt lat="-27.2524534" lon="151.346422">
  <ele>539.67</ele>
  <time>2026-09-01T20:00:45Z</time>
  <course>229.41</course>
  <speed>6.04</speed>
  <fix>3d</fix>
</trkpt>
<trkpt lat="-27.2524635" lon="151.3464086">
  <ele>539.83</ele>
  <time>2026-09-01T20:00:45Z</time>
  <course>226.82</course>
  <speed>5.154764786098392</speed>
  <fix>3d</fix>
</trkpt>
<trkpt lat="-27.2524601" lon="151.3464131">
  <ele>539.79</ele>
  <time>2026-09-01T20:00:45Z</time>
  <course>229.91</course>
  <speed>5.48</speed>
  <fix>3d</fix>
</trkpt>
<trkpt lat="-27.2524663" lon="151.3464047">
  <ele>539.85</ele>
  <time>2026-09-01T20:00:45Z</time>
  <course>226.22</course>
  <speed>4.774620403759863</speed>
  <fix>3d</fix>
</trkpt>
<trkpt lat="-27.2524601" lon="151.3464131">
  <ele>539.79</ele>
  <time>2026-09-01T20:00:45Z</time>
  <course>229.91</course>
  <speed>5.48</speed>
  <fix>3d</fix>
</trkpt>
<trkpt lat="-27.2524689" lon="151.3464013">
  <ele>539.87</ele>
  <time>2026-09-01T20:00:45Z</time>
  <course>225.46</course>
  <speed>4.330738966966262</speed>
  <fix>3d</fix>
</trkpt>
<trkpt lat="-27.252466" lon="151.3464051">
  <ele>539.85</ele>
  <time>2026-09-01T20:00:45Z</time>
  <course>230.59</course>
  <speed>4.77</speed>
  <fix>3d</fix>
</trkpt>
<trkpt lat="-27.2524712" lon="151.346398">
  <ele>539.89</ele>
  <time>2026-09-01T20:00:45Z</time>
  <course>224.58</course>
  <speed>3.8434619810790376</speed>
  <fix>3d</fix>
</trkpt>
<trkpt lat="-27.252466" lon="151.3464051">
  <ele>539.85</ele>
  <time>2026-09-01T20:00:45Z</time>
  <course>230.59</course>
  <speed>4.77</speed>
  <fix>3d</fix>
</trkpt>
<trkpt lat="-27.2524732" lon="151.3463952">
  <ele>539.93</ele>
  <time>2026-09-01T20:00:45Z</time>
  <course>223.69</course>
  <speed>3.314407941095966</speed>
  <fix>3d</fix>
</trkpt>
<trkpt lat="-27.2524709" lon="151.3463983">
  <ele>539.9</ele>
  <time>2026-09-01T20:00:45Z</time>
  <course>231.55</course>
  <speed>3.85</speed>
  <fix>3d</fix>
</trkpt>
<trkpt lat="-27.2524749" lon="151.3463928">
  <ele>539.98</ele>
  <time>2026-09-01T20:00:45Z</time>
  <course>222.85</course>
  <speed>2.764000723588907</speed>
  <fix>3d</fix>
</trkpt>
<trkpt lat="-27.2524709" lon="151.3463983">
  <ele>539.9</ele>
  <time>2026-09-01T20:00:45Z</time>
  <course>231.55</course>
  <speed>3.85</speed>
  <fix>3d</fix>
</trkpt>
<trkpt lat="-27.2524762" lon="151.3463907">
  <ele>540.04</ele>
  <time>2026-09-01T20:00:45Z</time>
  <course>222.14</course>
  <speed>2.184330561064419</speed>
  <fix>3d</fix>
</trkpt>
<trkpt lat="-27.2524746" lon="151.346393">
  <ele>539.99</ele>
  <time>2026-09-01T20:00:45Z</time>
  <course>232.96</course>
  <speed>2.78</speed>
  <fix>3d</fix>
</trkpt>
<trkpt lat="-27.2524772" lon="151.346389">
  <ele>540.14</ele>
  <time>2026-09-01T20:00:45Z</time>
  <course>221.61</course>
  <speed>1.6197839362087771</speed>
  <fix>3d</fix>
</trkpt>
<trkpt lat="-27.2524746" lon="151.346393">
  <ele>539.99</ele>
  <time>2026-09-01T20:00:45Z</time>
  <course>232.96</course>
  <speed>2.78</speed>
  <fix>3d</fix>
</trkpt>
<trkpt lat="-27.2524779" lon="151.346388">
  <ele>540.26</ele>
  <time>2026-09-01T20:00:45Z</time>
  <course>221.25</course>
  <speed>1.082266141020775</speed>
  <fix>3d</fix>
</trkpt>
<trkpt lat="-27.2524769" lon="151.3463894">
  <ele>540.15</ele>
  <time>2026-09-01T20:00:45Z</time>
  <course>235.38</course>
  <speed>1.66</speed>
  <fix>3d</fix>
</trkpt>
<trkpt lat="-27.2524783" lon="151.346387">
  <ele>540.36</ele>
  <time>2026-09-01T20:00:45Z</time>
  <course>221.02</course>
  <speed>1.0324727599312247</speed>
  <fix>3d</fix>
</trkpt>
<trkpt lat="-27.2524769" lon="151.3463894">
  <ele>540.15</ele>
  <time>2026-09-01T20:00:45Z</time>
  <course>235.38</course>
  <speed>1.66</speed>
  <fix>3d</fix>
</trkpt>
<trkpt lat="-27.2524788" lon="151.3463861">
  <ele>540.36</ele>
  <time>2026-09-01T20:00:45Z</time>
  <course>220.86</course>
  <speed>1.0239628899525608</speed>
  <fix>3d</fix>
</trkpt>
<trkpt lat="-27.2524783" lon="151.3463871">
  <ele>540.31</ele>
  <time>2026-09-01T20:00:45Z</time>
  <course>238.11</course>
  <speed>1.07</speed>
  <fix>3d</fix>
</trkpt>
<trkpt lat="-27.2524793" lon="151.3463852">
  <ele>540.27</ele>
  <time>2026-09-01T20:00:45Z</time>
  <course>220.76</course>
  <speed>1.010198000393982</speed>
  <fix>3d</fix>
</trkpt>
<trkpt lat="-27.2524783" lon="151.3463871">
  <ele>540.31</ele>
  <time>2026-09-01T20:00:45Z</time>
  <course>238.11</course>
  <speed>1.07</speed>
  <fix>3d</fix>
</trkpt>
<trkpt lat="-27.2524798" lon="151.3463845">
  <ele>540.08</ele>
  <time>2026-09-01T20:00:45Z</time>
  <course>220.82</course>
  <speed>0.9656603957913983</speed>
  <fix>3d</fix>
</trkpt>
<trkpt lat="-27.2524793" lon="151.3463854">
  <ele>540.23</ele>
  <time>2026-09-01T20:00:45Z</time>
  <course>238.1</course>
  <speed>1.0</speed>
  <fix>3d</fix>
</trkpt>
<trkpt lat="-27.2524802" lon="151.3463837">
  <ele>539.81</ele>
  <time>2026-09-01T20:00:45Z</time>
  <course>221.15</course>
  <speed>0.904267659490264</speed>
  <fix>3d</fix>
</trkpt>
<trkpt lat="-27.2524793" lon="151.3463854">
  <ele>540.23</ele>
  <time>2026-09-01T20:00:45Z</time>
  <course>238.1</course>
  <speed>1.0</speed>
  <fix>3d</fix>
</trkpt>
<trkpt lat="-27.2524807" lon="151.3463828">
  <ele>539.48</ele>
  <time>2026-09-01T20:00:45Z</time>
  <course>221.55</course>
  <speed>0.8405950273467003</speed>
  <fix>3d</fix>
</trkpt>
<trkpt lat="-27.2524802" lon="151.3463837">
  <ele>539.79</ele>
  <time>2026-09-01T20:00:45Z</time>
  <course>237.7</course>
  <speed>0.91</speed>
  <fix>3d</fix>
</trkpt>
<trkpt lat="-27.2524811" lon="151.3463822">
  <ele>539.09</ele>
  <time>2026-09-01T20:00:45Z</time>
  <course>221.69</course>
  <speed>0.7907591289387687</speed>
  <fix>3d</fix>
</trkpt>
<trkpt lat="-27.2524802" lon="151.3463837">
  <ele>539.79</ele>
  <time>2026-09-01T20:00:45Z</time>
  <course>237.7</course>
  <speed>0.91</speed>
  <fix>3d</fix>
</trkpt>
<trkpt lat="-27.2524814" lon="151.3463816">
  <ele>538.65</ele>
  <time>2026-09-01T20:00:45Z</time>
  <course>221.69</course>
  <speed>0.7516648189186453</speed>
  <fix>3d</fix>
</trkpt>
<trkpt lat="-27.2524809" lon="151.3463823">
  <ele>539.08</ele>
  <time>2026-09-01T20:00:45Z</time>
  <course>237.09</course>
  <speed>0.8</speed>
  <fix>3d</fix>
</trkpt>
<trkpt lat="-27.2524818" lon="151.3463809">
  <ele>538.16</ele>
  <time>2026-09-01T20:00:45Z</time>
  <course>221.66</course>
  <speed>0.7463243262818117</speed>
  <fix>3d</fix>
</trkpt>
<trkpt lat="-27.2524809" lon="151.3463823">
  <ele>539.08</ele>
  <time>2026-09-01T20:00:45Z</time>
  <course>237.09</course>
  <speed>0.8</speed>
  <fix>3d</fix>
</trkpt>
<trkpt lat="-27.2524822" lon="151.3463803">
  <ele>537.64</ele>
  <time>2026-09-01T20:00:45Z</time>
  <course>221.65</course>
  <speed>0.7840918313565064</speed>
  <fix>3d</fix>
</trkpt>
<trkpt lat="-27.2524818" lon="151.346381">
  <ele>538.17</ele>
  <time>2026-09-01T20:00:45Z</time>
  <course>234.62</course>
  <speed>0.77</speed>
  <fix>3d</fix>
</trkpt>
<trkpt lat="-27.2524827" lon="151.3463797">
  <ele>537.06</ele>
  <time>2026-09-01T20:00:45Z</time>
  <course>221.7</course>
  <speed>0.859127464349732</speed>
  <fix>3d</fix>
</trkpt>
<trkpt lat="-27.2524818" lon="151.346381">
  <ele>538.17</ele>
  <time>2026-09-01T20:00:45Z</time>
  <course>234.62</course>
  <speed>0.77</speed>
  <fix>3d</fix>
</trkpt>
<trkpt lat="-27.2524832" lon="151.3463789">
  <ele>536.41</ele>
  <time>2026-09-01T20:00:45Z</time>
  <course>221.88</course>
  <speed>0.9633275663033837</speed>
  <fix>3d</fix>
</trkpt>
<trkpt lat="-27.2524827" lon="151.3463797">
  <ele>537.06</ele>
  <time>2026-09-01T20:00:45Z</time>
  <course>230.23</course>
  <speed>0.87</speed>
  <fix>3d</fix>
</trkpt>
<trkpt lat="-27.2524839" lon="151.3463782">
  <ele>535.72</ele>
  <time>2026-09-01T20:00:45Z</time>
  <course>222.2</course>
  <speed>1.2940247292845684</speed>
  <fix>3d</fix>
</trkpt>
<trkpt lat="-27.2524827" lon="151.3463797">
  <ele>537.06</ele>
  <time>2026-09-01T20:00:45Z</time>
  <course>230.23</course>
  <speed>0.87</speed>
  <fix>3d</fix>
</trkpt>
<trkpt lat="-27.252485" lon="151.346377">
  <ele>534.94</ele>
  <time>2026-09-01T20:00:45Z</time>
  <course>223.39</course>
  <speed>2.0537283169883986</speed>
  <fix>3d</fix>
</trkpt>
<trkpt lat="-27.252484" lon="151.346378">
  <ele>535.72</ele>
  <time>2026-09-01T20:00:45Z</time>
  <course>223.95</course>
  <speed>1.49</speed>
  <fix>3d</fix>
</trkpt>
<trkpt lat="-27.2524865" lon="151.3463755">
  <ele>534.1</ele>
  <time>2026-09-01T20:00:45Z</time>
  <course>227.27</course>
  <speed>2.353720459187964</speed>
  <fix>3d</fix>
</trkpt>
<trkpt lat="-27.252484" lon="151.346378">
  <ele>535.72</ele>
  <time>2026-09-01T20:00:45Z</time>
  <course>223.95</course>
  <speed>1.49</speed>
  <fix>3d</fix>
</trkpt>
<trkpt lat="-27.2524881" lon="151.346374">
  <ele>533.16</ele>
  <time>2026-09-01T20:00:45Z</time>
  <course>237.63</course>
  <speed>2.2605530296810117</speed>
  <fix>3d</fix>
</trkpt>
<trkpt lat="-27.2524864" lon="151.3463755">
  <ele>534.08</ele>
  <time>2026-09-01T20:00:45Z</time>
  <course>221.57</course>
  <speed>2.15</speed>
  <fix>3d</fix>
</trkpt>
<trkpt lat="-27.2524895" lon="151.3463725">
  <ele>532.12</ele>
  <time>2026-09-01T20:00:45Z</time>
  <course>245.69</course>
  <speed>2.0180436070610566</speed>
  <fix>3d</fix>
</trkpt>
<trkpt lat="-27.2524864" lon="151.3463755">
  <ele>534.08</ele>
  <time>2026-09-01T20:00:45Z</time>
  <course>221.57</course>
  <speed>2.15</speed>
  <fix>3d</fix>
</trkpt>
<trkpt lat="-27.2524909" lon="151.3463712">
  <ele>530.99</ele>
  <time>2026-09-01T20:00:45Z</time>
  <course>236.59</course>
  <speed>1.94164878389476</speed>
  <fix>3d</fix>
</trkpt>
<trkpt lat="-27.2524894" lon="151.3463726">
  <ele>532.12</ele>
  <time>2026-09-01T20:00:45Z</time>
  <course>221.35</course>
  <speed>2.1</speed>
  <fix>3d</fix>
</trkpt>
<trkpt lat="-27.2524923" lon="151.3463698">
  <ele>529.77</ele>
  <time>2026-09-01T20:00:45Z</time>
  <course>232.89</course>
  <speed>2.3213142829009605</speed>
  <fix>3d</fix>
</trkpt>
<trkpt lat="-27.2524894" lon="151.3463726">
  <ele>532.12</ele>
  <time>2026-09-01T20:00:45Z</time>
  <course>221.35</course>
  <speed>2.1</speed>
  <fix>3d</fix>
</trkpt>
<trkpt lat="-27.2524942" lon="151.3463679">
  <ele>528.48</ele>
  <time>2026-09-01T20:00:45Z</time>
  <course>233.75</course>
  <speed>3.238904135660702</speed>
  <fix>3d</fix>
</trkpt>
<trkpt lat="-27.2524924" lon="151.3463697">
  <ele>529.79</ele>
  <time>2026-09-01T20:00:45Z</time>
  <course>221.13</course>
  <speed>2.56</speed>
  <fix>3d</fix>
</trkpt>
<trkpt lat="-27.2524967" lon="151.3463654">
  <ele>527.14</ele>
  <time>2026-09-01T20:00:45Z</time>
  <course>235.26</course>
  <speed>4.518462127759842</speed>
  <fix>3d</fix>
</trkpt>
<trkpt lat="-27.2524924" lon="151.3463697">
  <ele>529.79</ele>
  <time>2026-09-01T20:00:45Z</time>
  <course>221.13</course>
  <speed>2.56</speed>
  <fix>3d</fix>
</trkpt>
<trkpt lat="-27.2524999" lon="151.3463615">
  <ele>525.76</ele>
  <time>2026-09-01T20:00:45Z</time>
  <course>235.84</course>
  <speed>5.9030246484323605</speed>
  <fix>3d</fix>
</trkpt>
<trkpt lat="-27.2524969" lon="151.3463649">
  <ele>527.18</ele>
  <time>2026-09-01T20:00:45Z</time>
  <course>225.89</course>
  <speed>4.51</speed>
  <fix>3d</fix>
</trkpt>
<trkpt lat="-27.2525037" lon="151.3463564">
  <ele>524.37</ele>
  <time>2026-09-01T20:00:45Z</time>
  <course>235.35</course>
  <speed>7.195401309169629</speed>
  <fix>3d</fix>
</trkpt>
<trkpt lat="-27.2524969" lon="151.3463649">
  <ele>527.18</ele>
  <time>2026-09-01T20:00:45Z</time>
  <course>225.89</course>
  <speed>4.51</speed>
  <fix>3d</fix>
</trkpt>
<trkpt lat="-27.2525079" lon="151.3463501">
  <ele>522.97</ele>
  <time>2026-09-01T20:00:45Z</time>
  <course>234.42</course>
  <speed>8.403600418868095</speed>
  <fix>3d</fix>
</trkpt>
<trkpt lat="-27.2525037" lon="151.346356">
  <ele>524.42</ele>
  <time>2026-09-01T20:00:45Z</time>
  <course>231.85</course>
  <speed>7.09</speed>
  <fix>3d</fix>
</trkpt>
<trkpt lat="-27.2525126" lon="151.3463425">
  <ele>521.56</ele>
  <time>2026-09-01T20:00:45Z</time>
  <course>233.56</course>
  <speed>9.613995007279753</speed>
  <fix>3d</fix>
</trkpt>
<trkpt lat="-27.2525037" lon="151.346356">
  <ele>524.42</ele>
  <time>2026-09-01T20:00:45Z</time>
  <course>231.85</course>
  <speed>7.09</speed>
  <fix>3d</fix>
</trkpt>
<trkpt lat="-27.2525177" lon="151.3463339">
  <ele>520.18</ele>
  <time>2026-09-01T20:00:45Z</time>
  <course>232.95</course>
  <speed>10.869783806497717</speed>
  <fix>3d</fix>
</trkpt>
<trkpt lat="-27.2525126" lon="151.3463424">
  <ele>521.63</ele>
  <time>2026-09-01T20:00:45Z</time>
  <course>235.06</course>
  <speed>9.58</speed>
  <fix>3d</fix>
</trkpt>
<trkpt lat="-27.2525236" lon="151.3463243">
  <ele>518.83</ele>
  <time>2026-09-01T20:00:45Z</time>
  <course>232.57</course>
  <speed>12.152633459460546</speed>
  <fix>3d</fix>
</trkpt>
<trkpt lat="-27.2525126" lon="151.3463424">
  <ele>521.63</ele>
  <time>2026-09-01T20:00:45Z</time>
  <course>235.06</course>
  <speed>9.58</speed>
  <fix>3d</fix>
</trkpt>
<trkpt lat="-27.2525302" lon="151.3463138">
  <ele>517.54</ele>
  <time>2026-09-01T20:00:45Z</time>
  <course>232.4</course>
  <speed>13.406882560834193</speed>
  <fix>3d</fix>
</trkpt>
<trkpt lat="-27.2525237" lon="151.3463244">
  <ele>518.91</ele>
  <time>2026-09-01T20:00:45Z</time>
  <course>235.0</course>
  <speed>12.08</speed>
  <fix>3d</fix>
</trkpt>
<trkpt lat="-27.2525376" lon="151.3463023">
  <ele>516.32</ele>
  <time>2026-09-01T20:00:45Z</time>
  <course>232.35</course>
  <speed>14.560013736257256</speed>
  <fix>3d</fix>
</trkpt>
<trkpt lat="-27.2525237" lon="151.3463244">
  <ele>518.91</ele>
  <time>2026-09-01T20:00:45Z</time>
  <course>235.0</course>
  <speed>12.08</speed>
  <fix>3d</fix>
</trkpt>
<trkpt lat="-27.2525459" lon="151.3462903">
  <ele>515.19</ele>
  <time>2026-09-01T20:00:45Z</time>
  <course>232.36</course>
  <speed>15.61781354735675</speed>
  <fix>3d</fix>
</trkpt>
<trkpt lat="-27.2525376" lon="151.3463026">
  <ele>516.42</ele>
  <time>2026-09-01T20:00:45Z</time>
  <course>233.24</course>
  <speed>14.45</speed>
  <fix>3d</fix>
</trkpt>
<trkpt lat="-27.2525548" lon="151.3462774">
  <ele>514.16</ele>
  <time>2026-09-01T20:00:45Z</time>
  <course>232.4</course>
  <speed>16.556116694442572</speed>
  <fix>3d</fix>
</trkpt>
<trkpt lat="-27.2525376" lon="151.3463026">
  <ele>516.42</ele>
  <time>2026-09-01T20:00:45Z</time>
  <course>233.24</course>
  <speed>14.45</speed>
  <fix>3d</fix>
</trkpt>
<trkpt lat="-27.2525643" lon="151.346264">
  <ele>513.25</ele>
  <time>2026-09-01T20:00:45Z</time>
  <course>232.46</course>
  <speed>17.366522392235012</speed>
  <fix>3d</fix>
</trkpt>
<trkpt lat="-27.2525545" lon="151.3462778">
  <ele>514.27</ele>
  <time>2026-09-01T20:00:45Z</time>
  <course>231.78</course>
  <speed>16.45</speed>
  <fix>3d</fix>
</trkpt>
<trkpt lat="-27.2525742" lon="151.3462501">
  <ele>512.46</ele>
  <time>2026-09-01T20:00:45Z</time>
  <course>232.56</course>
  <speed>18.025617881226708</speed>
  <fix>3d</fix>
</trkpt>
<trkpt lat="-27.2525545" lon="151.3462778">
  <ele>514.27</ele>
  <time>2026-09-01T20:00:45Z</time>
  <course>231.78</course>
  <speed>16.45</speed>
  <fix>3d</fix>
</trkpt>
<trkpt lat="-27.2525844" lon="151.3462356">
  <ele>511.8</ele>
  <time>2026-09-01T20:00:45Z</time>
  <course>232.69</course>
  <speed>18.50432381904294</speed>
  <fix>3d</fix>
</trkpt>
<trkpt lat="-27.2525738" lon="151.3462505">
  <ele>512.56</ele>
  <time>2026-09-01T20:00:45Z</time>
  <course>231.61</course>
  <speed>17.91</speed>
  <fix>3d</fix>
</trkpt>
<trkpt lat="-27.2525947" lon="151.3462207">
  <ele>511.28</ele>
  <time>2026-09-01T20:00:45Z</time>
  <course>232.83</course>
  <speed>18.813240018667706</speed>
  <fix>3d</fix>
</trkpt>
<trkpt lat="-27.2525738" lon="151.3462505">
  <ele>512.56</ele>
  <time>2026-09-01T20:00:45Z</time>
  <course>231.61</course>
  <speed>17.91</speed>
  <fix>3d</fix>
</trkpt>
<trkpt lat="-27.252605" lon="151.3462055">
  <ele>510.88</ele>
  <time>2026-09-01T20:00:45Z</time>
  <course>232.9</course>
  <speed>18.95006596294588</speed>
  <fix>3d</fix>
</trkpt>
<trkpt lat="-27.2525942" lon="151.3462212">
  <ele>511.36</ele>
  <time>2026-09-01T20:00:45Z</time>
  <course>232.42</course>
  <speed>18.72</speed>
  <fix>3d</fix>
</trkpt>
<trkpt lat="-27.2526152" lon="151.3461902">
  <ele>510.58</ele>
  <time>2026-09-01T20:00:45Z</time>
  <course>232.9</course>
  <speed>18.962186055410385</speed>
  <fix>3d</fix>
</trkpt>
<trkpt lat="-27.2525942" lon="151.3462212">
  <ele>511.36</ele>
  <time>2026-09-01T20:00:45Z</time>
  <course>232.42</course>
  <speed>18.72</speed>
  <fix>3d</fix>
</trkpt>
<trkpt lat="-27.2526253" lon="151.3461748">
  <ele>510.34</ele>
  <time>2026-09-01T20:00:45Z</time>
  <course>232.9</course>
  <speed>18.894660621455998</speed>
  <fix>3d</fix>
</trkpt>
<trkpt lat="-27.2526147" lon="151.3461907">
  <ele>510.62</ele>
  <time>2026-09-01T20:00:45Z</time>
  <course>233.28</course>
  <speed>18.92</speed>
  <fix>3d</fix>
</trkpt>
<trkpt lat="-27.2526353" lon="151.3461594">
  <ele>510.14</ele>
  <time>2026-09-01T20:00:45Z</time>
  <course>232.97</course>
  <speed>18.784940777122507</speed>
  <fix>3d</fix>
</trkpt>
<trkpt lat="-27.2526147" lon="151.3461907">
  <ele>510.62</ele>
  <time>2026-09-01T20:00:45Z</time>
  <course>233.28</course>
  <speed>18.92</speed>
  <fix>3d</fix>
</trkpt>
<trkpt lat="-27.2526453" lon="151.3461442">
  <ele>509.95</ele>
  <time>2026-09-01T20:00:45Z</time>
  <course>233.13</course>
  <speed>18.67096676661388</speed>
  <fix>3d</fix>
</trkpt>
<trkpt lat="-27.2526348" lon="151.3461601">
  <ele>510.15</ele>
  <time>2026-09-01T20:00:45Z</time>
  <course>233.65</course>
  <speed>18.79</speed>
  <fix>3d</fix>
</trkpt>
<trkpt lat="-27.2526552" lon="151.346129">
  <ele>509.78</ele>
  <time>2026-09-01T20:00:45Z</time>
  <course>233.32</course>
  <speed>18.56077853970571</speed>
  <fix>3d</fix>
</trkpt>
<trkpt lat="-27.2526348" lon="151.3461601">
  <ele>510.15</ele>
  <time>2026-09-01T20:00:45Z</time>
  <course>233.65</course>
  <speed>18.79</speed>
  <fix>3d</fix>
</trkpt>
<trkpt lat="-27.2526651" lon="151.346114">
  <ele>509.6</ele>
  <time>2026-09-01T20:00:45Z</time>
  <course>233.51</course>
  <speed>18.42857834994333</speed>
  <fix>3d</fix>
</trkpt>
<trkpt lat="-27.2526547" lon="151.3461297">
  <ele>509.78</ele>
  <time>2026-09-01T20:00:45Z</time>
  <course>233.64</course>
  <speed>18.56</speed>
  <fix>3d</fix>
</trkpt>
<trkpt lat="-27.2526749" lon="151.3460991">
  <ele>509.44</ele>
  <time>2026-09-01T20:00:45Z</time>
  <course>233.67</course>
  <speed>18.31843333912592</speed>
  <fix>3d</fix>
</trkpt>
<trkpt lat="-27.2526547" lon="151.3461297">
  <ele>509.78</ele>
  <time>2026-09-01T20:00:45Z</time>
  <course>233.64</course>
  <speed>18.56</speed>
  <fix>3d</fix>
</trkpt>
<trkpt lat="-27.2526846" lon="151.3460842">
  <ele>509.27</ele>
  <time>2026-09-01T20:00:45Z</time>
  <course>233.77</course>
  <speed>18.188369910467515</speed>
  <fix>3d</fix>
</trkpt>
<trkpt lat="-27.2526743" lon="151.3460997">
  <ele>509.44</ele>
  <time>2026-09-01T20:00:45Z</time>
  <course>233.53</course>
  <speed>18.32</speed>
  <fix>3d</fix>
</trkpt>
<trkpt lat="-27.2526943" lon="151.3460695">
  <ele>509.1</ele>
  <time>2026-09-01T20:00:45Z</time>
  <course>233.82</course>
  <speed>18.07438519009706</speed>
  <fix>3d</fix>
</trkpt>
<trkpt lat="-27.2526743" lon="151.3460997">
  <ele>509.44</ele>
  <time>2026-09-01T20:00:45Z</time>
  <course>233.53</course>
  <speed>18.32</speed>
  <fix>3d</fix>
</trkpt>
<trkpt lat="-27.2527039" lon="151.3460548">
  <ele>508.94</ele>
  <time>2026-09-01T20:00:45Z</time>
  <course>233.81</course>
  <speed>17.960400886394492</speed>
  <fix>3d</fix>
</trkpt>
<trkpt lat="-27.2526938" lon="151.3460701">
  <ele>509.11</ele>
  <time>2026-09-01T20:00:45Z</time>
  <course>233.5</course>
  <speed>18.08</speed>
  <fix>3d</fix>
</trkpt>
<trkpt lat="-27.2527135" lon="151.3460403">
  <ele>508.77</ele>
  <time>2026-09-01T20:00:45Z</time>
  <course>233.76</course>
  <speed>17.842581091310752</speed>
  <fix>3d</fix>
</trkpt>
<trkpt lat="-27.2526938" lon="151.3460701">
  <ele>509.11</ele>
  <time>2026-09-01T20:00:45Z</time>
  <course>233.5</course>
  <speed>18.08</speed>
  <fix>3d</fix>
</trkpt>
<trkpt lat="-27.252723" lon="151.3460258">
  <ele>508.61</ele>
  <time>2026-09-01T20:00:45Z</time>
  <course>233.71</course>
  <speed>17.738776733472914</speed>
  <fix>3d</fix>
</trkpt>
<trkpt lat="-27.252713" lon="151.3460409">
  <ele>508.78</ele>
  <time>2026-09-01T20:00:45Z</time>
  <course>233.59</course>
  <speed>17.85</speed>
  <fix>3d</fix>
</trkpt>
<trkpt lat="-27.2527324" lon="151.3460113">
  <ele>508.44</ele>
  <time>2026-09-01T20:00:45Z</time>
  <course>233.66</course>
  <speed>17.629089596459597</speed>
  <fix>3d</fix>
</trkpt>
<trkpt lat="-27.252713" lon="151.3460409">
  <ele>508.78</ele>
  <time>2026-09-01T20:00:45Z</time>
  <course>233.59</course>
  <speed>17.85</speed>
  <fix>3d</fix>
</trkpt>
<trkpt lat="-27.2527417" lon="151.3459971">
  <ele>508.28</ele>
  <time>2026-09-01T20:00:45Z</time>
  <course>233.64</course>
  <speed>17.51728289433039</speed>
  <fix>3d</fix>
</trkpt>
<trkpt lat="-27.2527319" lon="151.346012">
  <ele>508.45</ele>
  <time>2026-09-01T20:00:45Z</time>
  <course>233.74</course>
  <speed>17.64</speed>
  <fix>3d</fix>
</trkpt>
<trkpt lat="-27.2527509" lon="151.3459829">
  <ele>508.12</ele>
  <time>2026-09-01T20:00:45Z</time>
  <course>233.66</course>
  <speed>17.413572292898433</speed>
  <fix>3d</fix>
</trkpt>
<trkpt lat="-27.2527319" lon="151.346012">
  <ele>508.45</ele>
  <time>2026-09-01T20:00:45Z</time>
  <course>233.74</course>
  <speed>17.64</speed>
  <fix>3d</fix>
</trkpt>
<trkpt lat="-27.2527601" lon="151.3459686">
  <ele>507.96</ele>
  <time>2026-09-01T20:00:45Z</time>
  <course>233.7</course>
  <speed>17.30769193162393</speed>
  <fix>3d</fix>
</trkpt>
<trkpt lat="-27.2527505" lon="151.3459835">
  <ele>508.12</ele>
  <time>2026-09-01T20:00:45Z</time>
  <course>233.87</course>
  <speed>17.42</speed>
  <fix>3d</fix>
</trkpt>
<trkpt lat="-27.250945" lon="151.3500346">
  <ele>540.56</ele>
  <time>2026-09-01T20:00:45Z</time>
  <course>250.32</course>
  <speed>11.920155200331914</speed>
  <fix>3d</fix>
</trkpt>
<trkpt lat="-27.2527505" lon="151.3459835">
  <ele>508.12</ele>
  <time>2026-09-01T20:00:45Z</time>
  <course>233.87</course>
  <speed>17.42</speed>
  <fix>3d</fix>
</trkpt>
<trkpt lat="-27.2509475" lon="151.3500234">
  <ele>536.71</ele>
  <time>2026-09-01T20:00:45Z</time>
  <course>244.48</course>
  <speed>11.616100894878626</speed>
  <fix>3d</fix>
</trkpt>
<trkpt lat="-27.2518535" lon="151.3479966">
  <ele>522.43</ele>
  <time>2026-09-01T20:00:45Z</time>
  <course>242.52</course>
  <speed>14.2</speed>
  <fix>3d</fix>
</trkpt>
<trkpt lat="-27.2509512" lon="151.3500118">
  <ele>532.88</ele>
  <time>2026-09-01T20:00:45Z</time>
  <course>228.53</course>
  <speed>12.91133610436968</speed>
  <fix>3d</fix>
</trkpt>
<trkpt lat="-27.2518535" lon="151.3479966">
  <ele>522.43</ele>
  <time>2026-09-01T20:00:45Z</time>
  <course>242.52</course>
  <speed>14.2</speed>
  <fix>3d</fix>
</trkpt>
<trkpt lat="-27.2509587" lon="151.3500008">
  <ele>529.12</ele>
  <time>2026-09-01T20:00:45Z</time>
  <course>207.98</course>
  <speed>14.297569723557917</speed>
  <fix>3d</fix>
</trkpt>
<trkpt lat="-27.2509528" lon="151.3500126">
  <ele>533.1</ele>
  <time>2026-09-01T20:00:45Z</time>
  <course>238.17</course>
  <speed>12.44</speed>
  <fix>3d</fix>
</trkpt>
<trkpt lat="-27.2509695" lon="151.3499926">
  <ele>525.41</ele>
  <time>2026-09-01T20:00:45Z</time>
  <course>189.79</course>
  <speed>14.831496890064738</speed>
  <fix>3d</fix>
</trkpt>
<trkpt lat="-27.2509528" lon="151.3500126">
  <ele>533.1</ele>
  <time>2026-09-01T20:00:45Z</time>
  <course>238.17</course>
  <speed>12.44</speed>
  <fix>3d</fix>
</trkpt>
<trkpt lat="-27.250982" lon="151.3499876">
  <ele>521.74</ele>
  <time>2026-09-01T20:00:45Z</time>
  <course>180.6</course>
  <speed>14.726825863029685</speed>
  <fix>3d</fix>
</trkpt>
<trkpt lat="-27.2509698" lon="151.3499944">
  <ele>525.6</ele>
  <time>2026-09-01T20:00:45Z</time>
  <course>210.07</course>
  <speed>14.06</speed>
  <fix>3d</fix>
</trkpt>
<trkpt lat="-27.2509951" lon="151.3499817">
  <ele>518.12</ele>
  <time>2026-09-01T20:00:45Z</time>
  <course>199.74</course>
  <speed>17.847380760212406</speed>
  <fix>3d</fix>
</trkpt>
<trkpt lat="-27.2509698" lon="151.3499944">
  <ele>525.6</ele>
  <time>2026-09-01T20:00:45Z</time>
  <course>210.07</course>
  <speed>14.06</speed>
  <fix>3d</fix>
</trkpt>
<trkpt lat="-27.2510105" lon="151.3499687">
  <ele>514.88</ele>
  <time>2026-09-01T20:00:45Z</time>
  <course>213.17</course>
  <speed>25.414659155692014</speed>
  <fix>3d</fix>
</trkpt>
<trkpt lat="-27.2509956" lon="151.3499785">
  <ele>518.45</ele>
  <time>2026-09-01T20:00:45Z</time>
  <course>212.02</course>
  <speed>19.48</speed>
  <fix>3d</fix>
</trkpt>
<trkpt lat="-27.2510292" lon="151.3499486">
  <ele>512.4</ele>
  <time>2026-09-01T20:00:45Z</time>
  <course>220.99</course>
  <speed>31.735106743163794</speed>
  <fix>3d</fix>
</trkpt>
<trkpt lat="-27.2509956" lon="151.3499785">
  <ele>518.45</ele>
  <time>2026-09-01T20:00:45Z</time>
  <course>212.02</course>
  <speed>19.48</speed>
  <fix>3d</fix>
</trkpt>
<trkpt lat="-27.2510502" lon="151.3499242">
  <ele>510.84</ele>
  <time>2026-09-01T20:00:45Z</time>
  <course>225.2</course>
  <speed>34.96610501614385</speed>
  <fix>3d</fix>
</trkpt>
<trkpt lat="-27.2510295" lon="151.3499473">
  <ele>512.94</ele>
  <time>2026-09-01T20:00:45Z</time>
  <course>224.28</course>
  <speed>29.96</speed>
  <fix>3d</fix>
</trkpt>
<trkpt lat="-27.2510719" lon="151.3498981">
  <ele>510.33</ele>
  <time>2026-09-01T20:00:45Z</time>
  <course>226.2</course>
  <speed>35.039270825746364</speed>
  <fix>3d</fix>
</trkpt>
<trkpt lat="-27.2510295" lon="151.3499473">
  <ele>512.94</ele>
  <time>2026-09-01T20:00:45Z</time>
  <course>224.28</course>
  <speed>29.96</speed>
  <fix>3d</fix>
</trkpt>
<trkpt lat="-27.2510928" lon="151.3498737">
  <ele>510.89</ele>
  <time>2026-09-01T20:00:45Z</time>
  <course>223.78</course>
  <speed>31.700455832684803</speed>
  <fix>3d</fix>
</trkpt>
<trkpt lat="-27.2510706" lon="151.3499">
  <ele>510.87</ele>
  <time>2026-09-01T20:00:45Z</time>
  <course>225.68</course>
  <speed>33.38</speed>
  <fix>3d</fix>
</trkpt>
<trkpt lat="-27.2511123" lon="151.3498539">
  <ele>512.28</ele>
  <time>2026-09-01T20:00:45Z</time>
  <course>217.75</course>
  <speed>26.781893136968492</speed>
  <fix>3d</fix>
</trkpt>
<trkpt lat="-27.2510706" lon="151.3499">
  <ele>510.87</ele>
  <time>2026-09-01T20:00:45Z</time>
  <course>225.68</course>
  <speed>33.38</speed>
  <fix>3d</fix>
</trkpt>
<trkpt lat="-27.25113" lon="151.3498396">
  <ele>514.16</ele>
  <time>2026-09-01T20:00:45Z</time>
  <course>208.32</course>
  <speed>21.94073152836979</speed>
  <fix>3d</fix>
</trkpt>
<trkpt lat="-27.2511105" lon="151.3498574">
  <ele>512.46</ele>
  <time>2026-09-01T20:00:45Z</time>
  <course>219.46</course>
  <speed>26.85</speed>
  <fix>3d</fix>
</trkpt>
<trkpt lat="-27.2511458" lon="151.3498305">
  <ele>516.29</ele>
  <time>2026-09-01T20:00:45Z</time>
  <course>199.65</course>
  <speed>18.039381918458293</speed>
  <fix>3d</fix>
</trkpt>
<trkpt lat="-27.2511105" lon="151.3498574">
  <ele>512.46</ele>
  <time>2026-09-01T20:00:45Z</time>
  <course>219.46</course>
  <speed>26.85</speed>
  <fix>3d</fix>
</trkpt>
<trkpt lat="-27.2511598" lon="151.3498253">
  <ele>518.54</ele>
  <time>2026-09-01T20:00:45Z</time>
  <course>188.58</course>
  <speed>14.602424456233287</speed>
  <fix>3d</fix>
</trkpt>
<trkpt lat="-27.2511442" lon="151.3498328">
  <ele>516.27</ele>
  <time>2026-09-01T20:00:45Z</time>
  <course>204.56</course>
  <speed>18.21</speed>
  <fix>3d</fix>
</trkpt>
<trkpt lat="-27.2511712" lon="151.3498235">
  <ele>520.85</ele>
  <time>2026-09-01T20:00:45Z</time>
  <course>175.48</course>
  <speed>11.219028478437872</speed>
  <fix>3d</fix>
</trkpt>
<trkpt lat="-27.2511442" lon="151.3498328">
  <ele>516.27</ele>
  <time>2026-09-01T20:00:45Z</time>
  <course>204.56</course>
  <speed>18.21</speed>
  <fix>3d</fix>
</trkpt>
<trkpt lat="-27.2511798" lon="151.3498241">
  <ele>523.14</ele>
  <time>2026-09-01T20:00:45Z</time>
  <course>161.99</course>
  <speed>8.199231671321405</speed>
  <fix>3d</fix>
</trkpt>
<trkpt lat="-27.2511693" lon="151.3498247">
  <ele>520.75</ele>
  <time>2026-09-01T20:00:45Z</time>
  <course>185.21</course>
  <speed>11.31</speed>
  <fix>3d</fix>
</trkpt>
<trkpt lat="-27.2511858" lon="151.3498261">
  <ele>525.38</ele>
  <time>2026-09-01T20:00:45Z</time>
  <course>152.4</course>
  <speed>5.939031907642861</speed>
  <fix>3d</fix>
</trkpt>
<trkpt lat="-27.2511693" lon="151.3498247">
  <ele>520.75</ele>
  <time>2026-09-01T20:00:45Z</time>
  <course>185.21</course>
  <speed>11.31</speed>
  <fix>3d</fix>
</trkpt>
<trkpt lat="-27.2511899" lon="151.3498286">
  <ele>527.54</ele>
  <time>2026-09-01T20:00:45Z</time>
  <course>151.02</course>
  <speed>4.587472070759668</speed>
  <fix>3d</fix>
</trkpt>
<trkpt lat="-27.2511846" lon="151.3498262">
  <ele>525.25</ele>
  <time>2026-09-01T20:00:45Z</time>
  <course>161.75</course>
  <speed>6.34</speed>
  <fix>3d</fix>
</trkpt>
<trkpt lat="-27.251193" lon="151.3498311">
  <ele>529.59</ele>
  <time>2026-09-01T20:00:45Z</time>
  <course>154.32</course>
  <speed>4.052912532981683</speed>
  <fix>3d</fix>
</trkpt>
<trkpt lat="-27.2511846" lon="151.3498262">
  <ele>525.25</ele>
  <time>2026-09-01T20:00:45Z</time>
  <course>161.75</course>
  <speed>6.34</speed>
  <fix>3d</fix>
</trkpt>
<trkpt lat="-27.2511959" lon="151.3498337">
  <ele>531.53</ele>
  <time>2026-09-01T20:00:45Z</time>
  <course>156.65</course>
  <speed>4.1863229689072</speed>
  <fix>3d</fix>
</trkpt>
<trkpt lat="-27.2511928" lon="151.349831">
  <ele>529.45</ele>
  <time>2026-09-01T20:00:45Z</time>
  <course>145.0</course>
  <speed>4.4</speed>
  <fix>3d</fix>
</trkpt>
<trkpt lat="-27.2511992" lon="151.3498362">
  <ele>533.33</ele>
  <time>2026-09-01T20:00:45Z</time>
  <course>157.17</course>
  <speed>4.779728025735356</speed>
  <fix>3d</fix>
</trkpt>
<trkpt lat="-27.2511928" lon="151.349831">
  <ele>529.45</ele>
  <time>2026-09-01T20:00:45Z</time>
  <course>145.0</course>
  <speed>4.4</speed>
  <fix>3d</fix>
</trkpt>
<trkpt lat="-27.2512032" lon="151.3498388">
  <ele>535.0</ele>
  <time>2026-09-01T20:00:45Z</time>
  <course>156.76</course>
  <speed>5.598928468912601</speed>
  <fix>3d</fix>
</trkpt>
<trkpt lat="-27.2511994" lon="151.3498361">
  <ele>533.19</ele>
  <time>2026-09-01T20:00:45Z</time>
  <course>147.37</course>
  <speed>4.86</speed>
  <fix>3d</fix>
</trkpt>
<trkpt lat="-27.251208" lon="151.3498419">
  <ele>536.52</ele>
  <time>2026-09-01T20:00:45Z</time>
  <course>156.09</course>
  <speed>6.455300147940451</speed>
  <fix>3d</fix>
</trkpt>
<trkpt lat="-27.2511994" lon="151.3498361">
  <ele>533.19</ele>
  <time>2026-09-01T20:00:45Z</time>
  <course>147.37</course>
  <speed>4.86</speed>
  <fix>3d</fix>
</trkpt>
<trkpt lat="-27.2512134" lon="151.349845">
  <ele>537.89</ele>
  <time>2026-09-01T20:00:45Z</time>
  <course>155.43</course>
  <speed>7.236269757271352</speed>
  <fix>3d</fix>
</trkpt>
<trkpt lat="-27.2512081" lon="151.3498419">
  <ele>536.38</ele>
  <time>2026-09-01T20:00:45Z</time>
  <course>151.68</course>
  <speed>6.39</speed>
  <fix>3d</fix>
</trkpt>
<trkpt lat="-27.2512195" lon="151.3498485">
  <ele>539.1</ele>
  <time>2026-09-01T20:00:45Z</time>
  <course>154.85</course>
  <speed>7.866498585774996</speed>
  <fix>3d</fix>
</trkpt>
<trkpt lat="-27.2512081" lon="151.3498419">
  <ele>536.38</ele>
  <time>2026-09-01T20:00:45Z</time>
  <course>151.68</course>
  <speed>6.39</speed>
  <fix>3d</fix>
</trkpt>
<trkpt lat="-27.251226" lon="151.3498521">
  <ele>540.16</ele>
  <time>2026-09-01T20:00:45Z</time>
  <course>154.36</course>
  <speed>8.345016476916028</speed>
  <fix>3d</fix>
</trkpt>
<trkpt lat="-27.2512195" lon="151.3498485">
  <ele>538.98</ele>
  <time>2026-09-01T20:00:45Z</time>
  <course>153.19</course>
  <speed>7.77</speed>
  <fix>3d</fix>
</trkpt>
<trkpt lat="-27.2512329" lon="151.349856">
  <ele>541.08</ele>
  <time>2026-09-01T20:00:45Z</time>
  <course>153.96</course>
  <speed>8.66256890304487</speed>
  <fix>3d</fix>
</trkpt>
<trkpt lat="-27.2512195" lon="151.3498485">
  <ele>538.98</ele>
  <time>2026-09-01T20:00:45Z</time>
  <course>153.19</course>
  <speed>7.77</speed>
  <fix>3d</fix>
</trkpt>
<trkpt lat="-27.25124" lon="151.34986">
  <ele>541.85</ele>
  <time>2026-09-01T20:00:45Z</time>
  <course>153.64</course>
  <speed>8.854857424035691</speed>
  <fix>3d</fix>
</trkpt>
<trkpt lat="-27.2512327" lon="151.349856">
  <ele>540.97</ele>
  <time>2026-09-01T20:00:46Z</time>
  <course>153.54</course>
  <speed>8.59</speed>
  <fix>3d</fix>
</trkpt>
<trkpt lat="-27.2512471" lon="151.349864">
  <ele>542.5</ele>
  <time>2026-09-01T20:00:46Z</time>
  <course>153.35</course>
  <speed>8.944299860805204</speed>
  <fix>3d</fix>
</trkpt>
<trkpt lat="-27.2512327" lon="151.349856">
  <ele>540.97</ele>
  <time>2026-09-01T20:00:46Z</time>
  <course>153.54</course>
  <speed>8.59</speed>
  <fix>3d</fix>
</trkpt>
<trkpt lat="-27.2512543" lon="151.349868">
  <ele>543.03</ele>
  <time>2026-09-01T20:00:46Z</time>
  <course>152.87</course>
  <speed>9.015836067719954</speed>
  <fix>3d</fix>
</trkpt>
<trkpt lat="-27.2512469" lon="151.3498639">
  <ele>542.41</ele>
  <time>2026-09-01T20:00:46Z</time>
  <course>153.52</course>
  <speed>8.93</speed>
  <fix>3d</fix>
</trkpt>
<trkpt lat="-27.2512616" lon="151.3498722">
  <ele>543.44</ele>
  <time>2026-09-01T20:00:46Z</time>
  <course>152.24</course>
  <speed>9.04713214228686</speed>
  <fix>3d</fix>
</trkpt>
<trkpt lat="-27.2512469" lon="151.3498639">
  <ele>542.41</ele>
  <time>2026-09-01T20:00:46Z</time>
  <course>153.52</course>
  <speed>8.93</speed>
  <fix>3d</fix>
</trkpt>
<trkpt lat="-27.2512689" lon="151.3498763">
  <ele>543.75</ele>
  <time>2026-09-01T20:00:46Z</time>
  <course>151.7</course>
  <speed>9.002410788227785</speed>
  <fix>3d</fix>
</trkpt>
<trkpt lat="-27.2512613" lon="151.349872">
  <ele>543.37</ele>
  <time>2026-09-01T20:00:46Z</time>
  <course>153.44</course>
  <speed>9.01</speed>
  <fix>3d</fix>
</trkpt>
<trkpt lat="-27.2512761" lon="151.3498803">
  <ele>543.99</ele>
  <time>2026-09-01T20:00:46Z</time>
  <course>150.99</course>
  <speed>8.859305841881744</speed>
  <fix>3d</fix>
</trkpt>
<trkpt lat="-27.2512613" lon="151.349872">
  <ele>543.37</ele>
  <time>2026-09-01T20:00:46Z</time>
  <course>153.44</course>
  <speed>9.01</speed>
  <fix>3d</fix>
</trkpt>
<trkpt lat="-27.2512831" lon="151.3498842">
  <ele>544.22</ele>
  <time>2026-09-01T20:00:46Z</time>
  <course>149.74</course>
  <speed>8.586617494683223</speed>
  <fix>3d</fix>
</trkpt>
<trkpt lat="-27.2512757" lon="151.3498801">
  <ele>543.97</ele>
  <time>2026-09-01T20:00:46Z</time>
  <course>153.27</course>
  <speed>8.81</speed>
  <fix>3d</fix>
</trkpt>
<trkpt lat="-27.2512898" lon="151.349888">
  <ele>544.45</ele>
  <time>2026-09-01T20:00:46Z</time>
  <course>148.15</course>
  <speed>8.158137042241936</speed>
  <fix>3d</fix>
</trkpt>
<trkpt lat="-27.2512757" lon="151.3498801">
  <ele>543.97</ele>
  <time>2026-09-01T20:00:46Z</time>
  <course>153.27</course>
  <speed>8.81</speed>
  <fix>3d</fix>
</trkpt>
<trkpt lat="-27.2512961" lon="151.3498919">
  <ele>544.71</ele>
  <time>2026-09-01T20:00:46Z</time>
  <course>146.65</course>
  <speed>7.605294208641767</speed>
  <fix>3d</fix>
</trkpt>
<trkpt lat="-27.2512892" lon="151.3498879">
  <ele>544.45</ele>
  <time>2026-09-01T20:00:46Z</time>
  <course>152.56</course>
  <speed>8.12</speed>
  <fix>3d</fix>
</trkpt>
<trkpt lat="-27.2513018" lon="151.3498953">
  <ele>545.0</ele>
  <time>2026-09-01T20:00:46Z</time>
  <course>145.42</course>
  <speed>6.990457781862358</speed>
  <fix>3d</fix>
</trkpt>
<trkpt lat="-27.2512892" lon="151.3498879">
  <ele>544.45</ele>
  <time>2026-09-01T20:00:46Z</time>
  <course>152.56</course>
  <speed>8.12</speed>
  <fix>3d</fix>
</trkpt>
<trkpt lat="-27.2513071" lon="151.3498986">
  <ele>545.29</ele>
  <time>2026-09-01T20:00:46Z</time>
  <course>144.42</course>
  <speed>6.358144383387342</speed>
  <fix>3d</fix>
</trkpt>
<trkpt lat="-27.2513013" lon="151.3498951">
  <ele>544.99</ele>
  <time>2026-09-01T20:00:46Z</time>
  <course>151.31</course>
  <speed>7.01</speed>
  <fix>3d</fix>
</trkpt>
<trkpt lat="-27.2513118" lon="151.3499017">
  <ele>545.62</ele>
  <time>2026-09-01T20:00:46Z</time>
  <course>143.56</course>
  <speed>5.730488635360863</speed>
  <fix>3d</fix>
</trkpt>
<trkpt lat="-27.2513013" lon="151.3498951">
  <ele>544.99</ele>
  <time>2026-09-01T20:00:46Z</time>
  <course>151.31</course>
  <speed>7.01</speed>
  <fix>3d</fix>
</trkpt>
<trkpt lat="-27.251316" lon="151.3499043">
  <ele>545.95</ele>
  <time>2026-09-01T20:00:46Z</time>
  <course>142.78</course>
  <speed>5.110772935672255</speed>
  <fix>3d</fix>
</trkpt>
<trkpt lat="-27.2513113" lon="151.3499014">
  <ele>545.61</ele>
  <time>2026-09-01T20:00:46Z</time>
  <course>150.04</course>
  <speed>5.76</speed>
  <fix>3d</fix>
</trkpt>
<trkpt lat="-27.2513197" lon="151.3499068">
  <ele>546.29</ele>
  <time>2026-09-01T20:00:46Z</time>
  <course>142.05</course>
  <speed>4.500155552867033</speed>
  <fix>3d</fix>
</trkpt>
<trkpt lat="-27.2513113" lon="151.3499014">
  <ele>545.61</ele>
  <time>2026-09-01T20:00:46Z</time>
  <course>150.04</course>
  <speed>5.76</speed>
  <fix>3d</fix>
</trkpt>
<trkpt lat="-27.2513229" lon="151.3499091">
  <ele>546.62</ele>
  <time>2026-09-01T20:00:46Z</time>
  <course>141.35</course>
  <speed>3.920943763942554</speed>
  <fix>3d</fix>
</trkpt>
<trkpt lat="-27.2513193" lon="151.3499067">
  <ele>546.27</ele>
  <time>2026-09-01T20:00:46Z</time>
  <course>148.87</course>
  <speed>4.54</speed>
  <fix>3d</fix>
</trkpt>
<trkpt lat="-27.2513257" lon="151.349911">
  <ele>546.95</ele>
  <time>2026-09-01T20:00:46Z</time>
  <course>140.7</course>
  <speed>3.367744052032458</speed>
  <fix>3d</fix>
</trkpt>
<trkpt lat="-27.2513193" lon="151.3499067">
  <ele>546.27</ele>
  <time>2026-09-01T20:00:46Z</time>
  <course>148.87</course>
  <speed>4.54</speed>
  <fix>3d</fix>
</trkpt>
<trkpt lat="-27.251328" lon="151.3499128">
  <ele>547.28</ele>
  <time>2026-09-01T20:00:46Z</time>
  <course>140.12</course>
  <speed>2.82349074728429</speed>
  <fix>3d</fix>
</trkpt>
<trkpt lat="-27.2513253" lon="151.3499109">
  <ele>546.94</ele>
  <time>2026-09-01T20:00:46Z</time>
  <course>147.55</course>
  <speed>3.4</speed>
  <fix>3d</fix>
</trkpt>
<trkpt lat="-27.2513299" lon="151.3499143">
  <ele>547.61</ele>
  <time>2026-09-01T20:00:46Z</time>
  <course>139.62</course>
  <speed>2.293926764306132</speed>
  <fix>3d</fix>
</trkpt>
<trkpt lat="-27.2513253" lon="151.3499109">
  <ele>546.94</ele>
  <time>2026-09-01T20:00:46Z</time>
  <course>147.55</course>
  <speed>3.4</speed>
  <fix>3d</fix>
</trkpt>
<trkpt lat="-27.2513314" lon="151.3499154">
  <ele>547.93</ele>
  <time>2026-09-01T20:00:46Z</time>
  <course>139.22</course>
  <speed>1.7580102388780332</speed>
  <fix>3d</fix>
</trkpt>
<trkpt lat="-27.2513296" lon="151.349914">
  <ele>547.59</ele>
  <time>2026-09-01T20:00:46Z</time>
  <course>145.45</course>
  <speed>2.31</speed>
  <fix>3d</fix>
</trkpt>
<trkpt lat="-27.2513325" lon="151.3499163">
  <ele>548.26</ele>
  <time>2026-09-01T20:00:46Z</time>
  <course>138.91</course>
  <speed>1.220245876862528</speed>
  <fix>3d</fix>
</trkpt>
<trkpt lat="-27.2513296" lon="151.349914">
  <ele>547.59</ele>
  <time>2026-09-01T20:00:46Z</time>
  <course>145.45</course>
  <speed>2.31</speed>
  <fix>3d</fix>
</trkpt>
<trkpt lat="-27.2513333" lon="151.3499172">
  <ele>548.54</ele>
  <time>2026-09-01T20:00:46Z</time>
  <course>138.67</course>
  <speed>1.241974234837422</speed>
  <fix>3d</fix>
</trkpt>
<trkpt lat="-27.2513323" lon="151.3499163">
  <ele>548.22</ele>
  <time>2026-09-01T20:00:46Z</time>
  <course>141.96</course>
  <speed>1.51</speed>
  <fix>3d</fix>
</trkpt>
<trkpt lat="-27.2513342" lon="151.349918">
  <ele>548.72</ele>
  <time>2026-09-01T20:00:46Z</time>
  <course>138.46</course>
  <speed>1.2701574705523722</speed>
  <fix>3d</fix>
</trkpt>
<trkpt lat="-27.2513323" lon="151.3499163">
  <ele>548.22</ele>
  <time>2026-09-01T20:00:46Z</time>
  <course>141.96</course>
  <speed>1.51</speed>
  <fix>3d</fix>
</trkpt>
<trkpt lat="-27.2513351" lon="151.3499189">
  <ele>548.79</ele>
  <time>2026-09-01T20:00:46Z</time>
  <course>138.28</course>
  <speed>1.2701574705523722</speed>
  <fix>3d</fix>
</trkpt>
<trkpt lat="-27.2513341" lon="151.349918">
  <ele>548.66</ele>
  <time>2026-09-01T20:00:46Z</time>
  <course>139.78</course>
  <speed>1.26</speed>
  <fix>3d</fix>
</trkpt>
<trkpt lat="-27.2513359" lon="151.3499196">
  <ele>548.77</ele>
  <time>2026-09-01T20:00:46Z</time>
  <course>138.11</course>
  <speed>1.2560652849274994</speed>
  <fix>3d</fix>
</trkpt>
<trkpt lat="-27.2513341" lon="151.349918">
  <ele>548.66</ele>
  <time>2026-09-01T20:00:46Z</time>
  <course>139.78</course>
  <speed>1.26</speed>
  <fix>3d</fix>
</trkpt>
<trkpt lat="-27.2513368" lon="151.3499205">
  <ele>548.66</ele>
  <time>2026-09-01T20:00:46Z</time>
  <course>137.93</course>
  <speed>1.2137956994486345</speed>
  <fix>3d</fix>
</trkpt>
<trkpt lat="-27.2513359" lon="151.3499196">
  <ele>548.72</ele>
  <time>2026-09-01T20:00:46Z</time>
  <course>139.79</course>
  <speed>1.25</speed>
  <fix>3d</fix>
</trkpt>
<trkpt lat="-27.2513376" lon="151.3499213">
  <ele>548.46</ele>
  <time>2026-09-01T20:00:46Z</time>
  <course>137.44</course>
  <speed>1.1385077953180645</speed>
  <fix>3d</fix>
</trkpt>
<trkpt lat="-27.2513359" lon="151.3499196">
  <ele>548.72</ele>
  <time>2026-09-01T20:00:46Z</time>
  <course>139.79</course>
  <speed>1.25</speed>
  <fix>3d</fix>
</trkpt>
<trkpt lat="-27.2513384" lon="151.3499219">
  <ele>548.18</ele>
  <time>2026-09-01T20:00:46Z</time>
  <course>135.59</course>
  <speed>1.040096149401583</speed>
  <fix>3d</fix>
</trkpt>
<trkpt lat="-27.2513376" lon="151.3499211">
  <ele>548.42</ele>
  <time>2026-09-01T20:00:46Z</time>
  <course>142.93</course>
  <speed>1.13</speed>
  <fix>3d</fix>
</trkpt>
<trkpt lat="-27.2513392" lon="151.3499224">
  <ele>547.85</ele>
  <time>2026-09-01T20:00:46Z</time>
  <course>131.66</course>
  <speed>0.9808669634563089</speed>
  <fix>3d</fix>
</trkpt>
<trkpt lat="-27.2513376" lon="151.3499211">
  <ele>548.42</ele>
  <time>2026-09-01T20:00:46Z</time>
  <course>142.93</course>
  <speed>1.13</speed>
  <fix>3d</fix>
</trkpt>
<trkpt lat="-27.25134" lon="151.3499228">
  <ele>547.47</ele>
  <time>2026-09-01T20:00:46Z</time>
  <course>126.8</course>
  <speed>0.8969392398596462</speed>
  <fix>3d</fix>
</trkpt>
<trkpt lat="-27.2513391" lon="151.3499223">
  <ele>547.83</ele>
  <time>2026-09-01T20:00:46Z</time>
  <course>151.74</course>
  <speed>0.97</speed>
  <fix>3d</fix>
</trkpt>
<trkpt lat="-27.2513407" lon="151.349923">
  <ele>547.06</ele>
  <time>2026-09-01T20:00:46Z</time>
  <course>123.0</course>
  <speed>0.8285529554590945</speed>
  <fix>3d</fix>
</trkpt>
<trkpt lat="-27.2513391" lon="151.3499223">
  <ele>547.83</ele>
  <time>2026-09-01T20:00:46Z</time>
  <course>151.74</course>
  <speed>0.97</speed>
  <fix>3d</fix>
</trkpt>
<trkpt lat="-27.2513414" lon="151.3499235">
  <ele>546.61</ele>
  <time>2026-09-01T20:00:46Z</time>
  <course>120.23</course>
  <speed>0.7782030583337487</speed>
  <fix>3d</fix>
</trkpt>
<trkpt lat="-27.2513406" lon="151.3499231">
  <ele>547.06</ele>
  <time>2026-09-01T20:00:46Z</time>
  <course>156.05</course>
  <speed>0.84</speed>
  <fix>3d</fix>
</trkpt>
<trkpt lat="-27.251342" lon="151.3499238">
  <ele>546.11</ele>
  <time>2026-09-01T20:00:46Z</time>
  <course>118.19</course>
  <speed>0.7702596964660685</speed>
  <fix>3d</fix>
</trkpt>
<trkpt lat="-27.2513406" lon="151.3499231">
  <ele>547.06</ele>
  <time>2026-09-01T20:00:46Z</time>
  <course>156.05</course>
  <speed>0.84</speed>
  <fix>3d</fix>
</trkpt>
<trkpt lat="-27.2513426" lon="151.3499242">
  <ele>545.56</ele>
  <time>2026-09-01T20:00:46Z</time>
  <course>116.66</course>
  <speed>0.8209750300709517</speed>
  <fix>3d</fix>
</trkpt>
<trkpt lat="-27.2513419" lon="151.3499238">
  <ele>546.11</ele>
  <time>2026-09-01T20:00:46Z</time>
  <course>150.07</course>
  <speed>0.8</speed>
  <fix>3d</fix>
</trkpt>
<trkpt lat="-27.2513432" lon="151.3499248">
  <ele>544.95</ele>
  <time>2026-09-01T20:00:46Z</time>
  <course>115.65</course>
  <speed>0.8902246907382428</speed>
  <fix>3d</fix>
</trkpt>
<trkpt lat="-27.2513419" lon="151.3499238">
  <ele>546.11</ele>
  <time>2026-09-01T20:00:46Z</time>
  <course>150.07</course>
  <speed>0.8</speed>
  <fix>3d</fix>
</trkpt>
<trkpt lat="-27.2513439" lon="151.3499254">
  <ele>544.27</ele>
  <time>2026-09-01T20:00:46Z</time>
  <course>115.64</course>
  <speed>1.3649908424601245</speed>
  <fix>3d</fix>
</trkpt>
<trkpt lat="-27.2513432" lon="151.3499248">
  <ele>544.94</ele>
  <time>2026-09-01T20:00:46Z</time>
  <course>135.84</course>
  <speed>1.07</speed>
  <fix>3d</fix>
</trkpt>
<trkpt lat="-27.2513447" lon="151.3499268">
  <ele>543.52</ele>
  <time>2026-09-01T20:00:46Z</time>
  <course>119.82</course>
  <speed>1.7833956375409243</speed>
  <fix>3d</fix>
</trkpt>
<trkpt lat="-27.2513432" lon="151.3499248">
  <ele>544.94</ele>
  <time>2026-09-01T20:00:46Z</time>
  <course>135.84</course>
  <speed>1.07</speed>
  <fix>3d</fix>
</trkpt>
<trkpt lat="-27.2513456" lon="151.3499283">
  <ele>542.66</ele>
  <time>2026-09-01T20:00:46Z</time>
  <course>172.25</course>
  <speed>1.7251376756653365</speed>
  <fix>3d</fix>
</trkpt>
<trkpt lat="-27.2513447" lon="151.3499268">
  <ele>543.5</ele>
  <time>2026-09-01T20:00:46Z</time>
  <course>126.03</course>
  <speed>1.54</speed>
  <fix>3d</fix>
</trkpt>
<trkpt lat="-27.2513464" lon="151.3499296">
  <ele>541.73</ele>
  <time>2026-09-01T20:00:46Z</time>
  <course>259.5</course>
  <speed>1.3322537295875736</speed>
  <fix>3d</fix>
</trkpt>
<trkpt lat="-27.2513447" lon="151.3499268">
  <ele>543.5</ele>
  <time>2026-09-01T20:00:46Z</time>
  <course>126.03</course>
  <speed>1.54</speed>
  <fix>3d</fix>
</trkpt>
<trkpt lat="-27.2513471" lon="151.3499305">
  <ele>540.69</ele>
  <time>2026-09-01T20:00:46Z</time>
  <course>260.03</course>
  <speed>0.8711486669908873</speed>
  <fix>3d</fix>
</trkpt>
<trkpt lat="-27.2513463" lon="151.3499293">
  <ele>541.72</ele>
  <time>2026-09-01T20:00:46Z</time>
  <course>128.12</course>
  <speed>1.3</speed>
  <fix>3d</fix>
</trkpt>
<trkpt lat="-27.2513476" lon="151.3499309">
  <ele>539.56</ele>
  <time>2026-09-01T20:00:46Z</time>
  <course>251.93</course>
  <speed>0.5412947441089743</speed>
  <fix>3d</fix>
</trkpt>
<trkpt lat="-27.2513463" lon="151.3499293">
  <ele>541.72</ele>
  <time>2026-09-01T20:00:46Z</time>
  <course>128.12</course>
  <speed>1.3</speed>
  <fix>3d</fix>
</trkpt>
<trkpt lat="-27.251348" lon="151.349931">
  <ele>538.33</ele>
  <time>2026-09-01T20:00:46Z</time>
  <course>247.86</course>
  <speed>0.37</speed>
  <fix>3d</fix>
</trkpt>
<trkpt lat="-27.2513475" lon="151.3499307">
  <ele>539.55</ele>
  <time>2026-09-01T20:00:46Z</time>
  <course>149.36</course>
  <speed>0.6</speed>
  <fix>3d</fix>
</trkpt>
<trkpt lat="-27.2513483" lon="151.3499309">
  <ele>537.02</ele>
  <time>2026-09-01T20:00:46Z</time>
  <course>254.21</course>
  <speed>0.327566787083184</speed>
  <fix>3d</fix>
</trkpt>
<trkpt lat="-27.2513475" lon="151.3499307">
  <ele>539.55</ele>
  <time>2026-09-01T20:00:46Z</time>
  <course>149.36</course>
  <speed>0.6</speed>
  <fix>3d</fix>
</trkpt>
<trkpt lat="-27.2513485" lon="151.3499306">
  <ele>535.62</ele>
  <time>2026-09-01T20:00:46Z</time>
  <course>268.41</course>
  <speed>0.4220189569201838</speed>
  <fix>3d</fix>
</trkpt>
<trkpt lat="-27.2513482" lon="151.3499307">
  <ele>537.02</ele>
  <time>2026-09-01T20:00:46Z</time>
  <course>218.22</course>
  <speed>0.31</speed>
  <fix>3d</fix>
</trkpt>
<trkpt lat="-27.2513484" lon="151.3499301">
  <ele>534.14</ele>
  <time>2026-09-01T20:00:46Z</time>
  <course>285.94</course>
  <speed>0.7749193506423749</speed>
  <fix>3d</fix>
</trkpt>
<trkpt lat="-27.2513482" lon="151.3499307">
  <ele>537.02</ele>
  <time>2026-09-01T20:00:46Z</time>
  <course>218.22</course>
  <speed>0.31</speed>
  <fix>3d</fix>
</trkpt>
<trkpt lat="-27.2513479" lon="151.3499292">
  <ele>532.58</ele>
  <time>2026-09-01T20:00:46Z</time>
  <course>304.15</course>
  <speed>1.3245754036671524</speed>
  <fix>3d</fix>
</trkpt>
<trkpt lat="-27.2513482" lon="151.3499299">
  <ele>534.15</ele>
  <time>2026-09-01T20:00:46Z</time>
  <course>298.11</course>
  <speed>0.79</speed>
  <fix>3d</fix>
</trkpt>
<trkpt lat="-27.2513469" lon="151.3499282">
  <ele>530.95</ele>
  <time>2026-09-01T20:00:46Z</time>
  <course>322.28</course>
  <speed>1.9949185447030162</speed>
  <fix>3d</fix>
</trkpt>
<trkpt lat="-27.2513482" lon="151.3499299">
  <ele>534.15</ele>
  <time>2026-09-01T20:00:46Z</time>
  <course>298.11</course>
  <speed>0.79</speed>
  <fix>3d</fix>
</trkpt>
<trkpt lat="-27.2513449" lon="151.3499272">
  <ele>529.25</ele>
  <time>2026-09-01T20:00:46Z</time>
  <course>340.45</course>
  <speed>2.6911893281595782</speed>
  <fix>3d</fix>
</trkpt>
<trkpt lat="-27.2513464" lon="151.3499282">
  <ele>530.97</ele>
  <time>2026-09-01T20:00:46Z</time>
  <course>331.57</course>
  <speed>1.93</speed>
  <fix>3d</fix>
</trkpt>
<trkpt lat="-27.2513423" lon="151.3499266">
  <ele>527.49</ele>
  <time>2026-09-01T20:00:46Z</time>
  <course>358.9</course>
  <speed>3.3409280147887053</speed>
  <fix>3d</fix>
</trkpt>
<trkpt lat="-27.2513464" lon="151.3499282">
  <ele>530.97</ele>
  <time>2026-09-01T20:00:46Z</time>
  <course>331.57</course>
  <speed>1.93</speed>
  <fix>3d</fix>
</trkpt>
<trkpt lat="-27.251339" lon="151.3499266">
  <ele>525.66</ele>
  <time>2026-09-01T20:00:46Z</time>
  <course>17.8</course>
  <speed>3.9063537986209083</speed>
  <fix>3d</fix>
</trkpt>
<trkpt lat="-27.251342" lon="151.3499269">
  <ele>527.52</ele>
  <time>2026-09-01T20:00:46Z</time>
  <course>357.5</course>
  <speed>3.19</speed>
  <fix>3d</fix>
</trkpt>
<trkpt lat="-27.2513355" lon="151.3499278">
  <ele>523.79</ele>
  <time>2026-09-01T20:00:46Z</time>
  <course>37.3</course>
  <speed>4.350183904158536</speed>
  <fix>3d</fix>
</trkpt>
<trkpt lat="-27.251342" lon="151.3499269">
  <ele>527.52</ele>
  <time>2026-09-01T20:00:46Z</time>
  <course>357.5</course>
  <speed>3.19</speed>
  <fix>3d</fix>
</trkpt>
<trkpt lat="-27.251332" lon="151.3499301">
  <ele>521.86</ele>
  <time>2026-09-01T20:00:46Z</time>
  <course>57.59</course>
  <speed>4.643210096474205</speed>
  <fix>3d</fix>
</trkpt>
<trkpt lat="-27.2513356" lon="151.3499282">
  <ele>523.82</ele>
  <time>2026-09-01T20:00:46Z</time>
  <course>24.35</course>
  <speed>4.13</speed>
  <fix>3d</fix>
</trkpt>
<trkpt lat="-27.251329" lon="151.3499335">
  <ele>519.87</ele>
  <time>2026-09-01T20:00:46Z</time>
  <course>79.02</course>
  <speed>4.732578578322816</speed>
  <fix>3d</fix>
</trkpt>
<trkpt lat="-27.2513356" lon="151.3499282">
  <ele>523.82</ele>
  <time>2026-09-01T20:00:46Z</time>
  <course>24.35</course>
  <speed>4.13</speed>
  <fix>3d</fix>
</trkpt>
<trkpt lat="-27.2513271" lon="151.3499378">
  <ele>517.81</ele>
  <time>2026-09-01T20:00:46Z</time>
  <course>102.1</course>
  <speed>4.620270554848493</speed>
  <fix>3d</fix>
</trkpt>
<trkpt lat="-27.2513296" lon="151.3499338">
  <ele>519.9</ele>
  <time>2026-09-01T20:00:46Z</time>
  <course>54.01</course>
  <speed>4.44</speed>
  <fix>3d</fix>
</trkpt>
<trkpt lat="-27.2513264" lon="151.3499421">
  <ele>515.7</ele>
  <time>2026-09-01T20:00:46Z</time>
  <course>127.45</course>
  <speed>4.280046728716872</speed>
  <fix>3d</fix>
</trkpt>
<trkpt lat="-27.2513296" lon="151.3499338">
  <ele>519.9</ele>
  <time>2026-09-01T20:00:46Z</time>
  <course>54.01</course>
  <speed>4.44</speed>
  <fix>3d</fix>
</trkpt>
<trkpt lat="-27.251327" lon="151.3499462">
  <ele>513.51</ele>
  <time>2026-09-01T20:00:46Z</time>
  <course>155.76</course>
  <speed>3.7161539257678764</speed>
  <fix>3d</fix>
</trkpt>
<trkpt lat="-27.251327" lon="151.3499418">
  <ele>515.73</ele>
  <time>2026-09-01T20:00:46Z</time>
  <course>88.15</course>
  <speed>3.94</speed>
  <fix>3d</fix>
</trkpt>
<trkpt lat="-27.2513287" lon="151.3499489">
  <ele>511.24</ele>
  <time>2026-09-01T20:00:46Z</time>
  <course>187.68</course>
  <speed>3.0155928107090317</speed>
  <fix>3d</fix>
</trkpt>
<trkpt lat="-27.251327" lon="151.3499418">
  <ele>515.73</ele>
  <time>2026-09-01T20:00:46Z</time>
  <course>88.15</course>
  <speed>3.94</speed>
  <fix>3d</fix>
</trkpt>
<trkpt lat="-27.2513308" lon="151.3499502">
  <ele>508.93</ele>
  <time>2026-09-01T20:00:46Z</time>
  <course>221.9</course>
  <speed>2.344461558652647</speed>
  <fix>3d</fix>
</trkpt>
<trkpt lat="-27.2513288" lon="151.3499481">
  <ele>511.31</ele>
  <time>2026-09-01T20:00:46Z</time>
  <course>133.36</course>
  <speed>2.65</speed>
  <fix>3d</fix>
</trkpt>
<trkpt lat="-27.2513326" lon="151.3499496">
  <ele>506.56</ele>
  <time>2026-09-01T20:00:46Z</time>
  <course>256.57</course>
  <speed>2.073861133248801</speed>
  <fix>3d</fix>
</trkpt>
<trkpt lat="-27.2513288" lon="151.3499481">
  <ele>511.31</ele>
  <time>2026-09-01T20:00:46Z</time>
  <course>133.36</course>
  <speed>2.65</speed>
  <fix>3d</fix>
</trkpt>
<trkpt lat="-27.2513333" lon="151.3499476">
  <ele>504.14</ele>
  <time>2026-09-01T20:00:46Z</time>
  <course>289.66</course>
  <speed>2.490501957437496</speed>
  <fix>3d</fix>
</trkpt>
<trkpt lat="-27.251332" lon="151.3499489">
  <ele>506.62</ele>
  <time>2026-09-01T20:00:46Z</time>
  <course>222.01</course>
  <speed>1.58</speed>
  <fix>3d</fix>
</trkpt>
<trkpt lat="-27.2513324" lon="151.349945">
  <ele>501.68</ele>
  <time>2026-09-01T20:00:46Z</time>
  <course>320.59</course>
  <speed>3.3162177250596803</speed>
  <fix>3d</fix>
</trkpt>
<trkpt lat="-27.251332" lon="151.3499489">
  <ele>506.62</ele>
  <time>2026-09-01T20:00:46Z</time>
  <course>222.01</course>
  <speed>1.58</speed>
  <fix>3d</fix>
</trkpt>
<trkpt lat="-27.2513297" lon="151.3499426">
  <ele>499.18</ele>
  <time>2026-09-01T20:00:46Z</time>
  <course>349.91</course>
  <speed>4.186287137786896</speed>
  <fix>3d</fix>
</trkpt>
<trkpt lat="-27.2513315" lon="151.3499451">
  <ele>501.74</ele>
  <time>2026-09-01T20:00:46Z</time>
  <course>311.83</course>
  <speed>2.82</speed>
  <fix>3d</fix>
</trkpt>
<trkpt lat="-27.2513257" lon="151.3499417">
  <ele>496.65</ele>
  <time>2026-09-01T20:00:46Z</time>
  <course>18.47</course>
  <speed>4.901020301937138</speed>
  <fix>3d</fix>
</trkpt>
<trkpt lat="-27.2513315" lon="151.3499451">
  <ele>501.74</ele>
  <time>2026-09-01T20:00:46Z</time>
  <course>311.83</course>
  <speed>2.82</speed>
  <fix>3d</fix>
</trkpt>
<trkpt lat="-27.2513212" lon="151.349943">
  <ele>494.1</ele>
  <time>2026-09-01T20:00:46Z</time>
  <course>47.14</course>
  <speed>5.336834267615961</speed>
  <fix>3d</fix>
</trkpt>
<trkpt lat="-27.2513256" lon="151.3499428">
  <ele>496.72</ele>
  <time>2026-09-01T20:00:46Z</time>
  <course>3.04</course>
  <speed>4.32</speed>
  <fix>3d</fix>
</trkpt>
<trkpt lat="-27.2513174" lon="151.3499463">
  <ele>491.51</ele>
  <time>2026-09-01T20:00:46Z</time>
  <course>76.71</course>
  <speed>5.438464856924241</speed>
  <fix>3d</fix>
</trkpt>
<trkpt lat="-27.2513256" lon="151.3499428">
  <ele>496.72</ele>
  <time>2026-09-01T20:00:46Z</time>
  <course>3.04</course>
  <speed>4.32</speed>
  <fix>3d</fix>
</trkpt>
<trkpt lat="-27.2513151" lon="151.349951">
  <ele>488.88</ele>
  <time>2026-09-01T20:00:46Z</time>
  <course>107.99</course>
  <speed>5.177306249392632</speed>
  <fix>3d</fix>
</trkpt>
<trkpt lat="-27.2513183" lon="151.3499469">
  <ele>491.57</ele>
  <time>2026-09-01T20:00:46Z</time>
  <course>48.67</course>
  <speed>4.79</speed>
  <fix>3d</fix>
</trkpt>
<trkpt lat="-27.251315" lon="151.3499559">
  <ele>486.2</ele>
  <time>2026-09-01T20:00:46Z</time>
  <course>141.83</course>
  <speed>4.613133425341174</speed>
  <fix>3d</fix>
</trkpt>
<trkpt lat="-27.2513183" lon="151.3499469">
  <ele>491.57</ele>
  <time>2026-09-01T20:00:46Z</time>
  <course>48.67</course>
  <speed>4.79</speed>
  <fix>3d</fix>
</trkpt>
<trkpt lat="-27.2513167" lon="151.3499596">
  <ele>483.48</ele>
  <time>2026-09-01T20:00:46Z</time>
  <course>178.71</course>
  <speed>3.8537384446794</speed>
  <fix>3d</fix>
</trkpt>
<trkpt lat="-27.2513159" lon="151.3499551">
  <ele>486.26</ele>
  <time>2026-09-01T20:00:46Z</time>
  <course>98.83</course>
  <speed>3.94</speed>
  <fix>3d</fix>
</trkpt>
<trkpt lat="-27.2513195" lon="151.3499611">
  <ele>480.72</ele>
  <time>2026-09-01T20:00:46Z</time>
  <course>217.93</course>
  <speed>3.166322788346128</speed>
  <fix>3d</fix>
</trkpt>
<trkpt lat="-27.2513159" lon="151.3499551">
  <ele>486.26</ele>
  <time>2026-09-01T20:00:46Z</time>
  <course>98.83</course>
  <speed>3.94</speed>
  <fix>3d</fix>
</trkpt>
<trkpt lat="-27.2513218" lon="151.3499602">
  <ele>477.91</ele>
  <time>2026-09-01T20:00:46Z</time>
  <course>257.35</course>
  <speed>2.9779355265015393</speed>
  <fix>3d</fix>
</trkpt>
<trkpt lat="-27.2513192" lon="151.3499598">
  <ele>480.79</ele>
  <time>2026-09-01T20:00:46Z</time>
  <course>171.55</course>
  <speed>2.42</speed>
  <fix>3d</fix>
</trkpt>
<trkpt lat="-27.2513227" lon="151.3499572">
  <ele>475.08</ele>
  <time>2026-09-01T20:00:46Z</time>
  <course>295.04</course>
  <speed>3.4789941074971655</speed>
  <fix>3d</fix>
</trkpt>
<trkpt lat="-27.2513192" lon="151.3499598">
  <ele>480.79</ele>
  <time>2026-09-01T20:00:46Z</time>
  <course>171.55</course>
  <speed>2.42</speed>
  <fix>3d</fix>
</trkpt>
<trkpt lat="-27.2513213" lon="151.3499536">
  <ele>472.23</ele>
  <time>2026-09-01T20:00:46Z</time>
  <course>330.54</course>
  <speed>4.3093502990590125</speed>
  <fix>3d</fix>
</trkpt>
<trkpt lat="-27.2513216" lon="151.349957">
  <ele>475.16</ele>
  <time>2026-09-01T20:00:46Z</time>
  <course>277.84</course>
  <speed>2.67</speed>
  <fix>3d</fix>
</trkpt>
<trkpt lat="-27.2495276" lon="151.3539926">
  <ele>540.09</ele>
  <time>2026-09-01T20:00:46Z</time>
  <course>235.26</course>
  <speed>13.683307348737001</speed>
  <fix>3d</fix>
</trkpt>
<trkpt lat="-27.2513216" lon="151.349957">
  <ele>475.16</ele>
  <time>2026-09-01T20:00:46Z</time>
  <course>277.84</course>
  <speed>2.67</speed>
  <fix>3d</fix>
</trkpt>
<trkpt lat="-27.249533" lon="151.353977">
  <ele>536.45</ele>
  <time>2026-09-01T20:00:46Z</time>
  <course>235.99</course>
  <speed>19.390257863164173</speed>
  <fix>3d</fix>
</trkpt>
<trkpt lat="-27.250427" lon="151.3519657">
  <ele>504.44</ele>
  <time>2026-09-01T20:00:46Z</time>
  <course>257.53</course>
  <speed>10.69</speed>
  <fix>3d</fix>
</trkpt>
<trkpt lat="-27.2495408" lon="151.3539568">
  <ele>533.15</ele>
  <time>2026-09-01T20:00:46Z</time>
  <course>240.46</course>
  <speed>24.021074080898217</speed>
  <fix>3d</fix>
</trkpt>
<trkpt lat="-27.250427" lon="151.3519657">
  <ele>504.44</ele>
  <time>2026-09-01T20:00:46Z</time>
  <course>257.53</course>
  <speed>10.69</speed>
  <fix>3d</fix>
</trkpt>
<trkpt lat="-27.249551" lon="151.3539333">
  <ele>530.21</ele>
  <time>2026-09-01T20:00:46Z</time>
  <course>236.86</course>
  <speed>27.501332694980437</speed>
  <fix>3d</fix>
</trkpt>
<trkpt lat="-27.2495416" lon="151.3539559">
  <ele>533.43</ele>
  <time>2026-09-01T20:00:46Z</time>
  <course>243.93</course>
  <speed>23.28</speed>
  <fix>3d</fix>
</trkpt>
<trkpt lat="-27.2495645" lon="151.3539089">
  <ele>527.57</ele>
  <time>2026-09-01T20:00:46Z</time>
  <course>226.24</course>
  <speed>29.26656795731266</speed>
  <fix>3d</fix>
</trkpt>
<trkpt lat="-27.2495416" lon="151.3539559">
  <ele>533.43</ele>
  <time>2026-09-01T20:00:46Z</time>
  <course>243.93</course>
  <speed>23.28</speed>
  <fix>3d</fix>
</trkpt>
<trkpt lat="-27.2495816" lon="151.353886">
  <ele>525.11</ele>
  <time>2026-09-01T20:00:46Z</time>
  <course>213.49</course>
  <speed>29.663319099520876</speed>
  <fix>3d</fix>
</trkpt>
<trkpt lat="-27.2495658" lon="151.3539104">
  <ele>527.74</ele>
  <time>2026-09-01T20:00:46Z</time>
  <course>233.29</course>
  <speed>28.26</speed>
  <fix>3d</fix>
</trkpt>
<trkpt lat="-27.2496016" lon="151.3538666">
  <ele>522.66</ele>
  <time>2026-09-01T20:00:46Z</time>
  <course>208.21</course>
  <speed>29.09303181175864</speed>
  <fix>3d</fix>
</trkpt>
<trkpt lat="-27.2495658" lon="151.3539104">
  <ele>527.74</ele>
  <time>2026-09-01T20:00:46Z</time>
  <course>233.29</course>
  <speed>28.26</speed>
  <fix>3d</fix>
</trkpt>
<trkpt lat="-27.2496219" lon="151.3538481">
  <ele>520.24</ele>
  <time>2026-09-01T20:00:46Z</time>
  <course>222.01</course>
  <speed>29.773123786395004</speed>
  <fix>3d</fix>
</trkpt>
<trkpt lat="-27.2496011" lon="151.3538677">
  <ele>522.75</ele>
  <time>2026-09-01T20:00:46Z</time>
  <course>223.93</course>
  <speed>29.68</speed>
  <fix>3d</fix>
</trkpt>
<trkpt lat="-27.2496407" lon="151.3538251">
  <ele>518.11</ele>
  <time>2026-09-01T20:00:46Z</time>
  <course>232.69</course>
  <speed>32.32523008425462</speed>
  <fix>3d</fix>
</trkpt>
<trkpt lat="-27.2496011" lon="151.3538677">
  <ele>522.75</ele>
  <time>2026-09-01T20:00:46Z</time>
  <course>223.93</course>
  <speed>29.68</speed>
  <fix>3d</fix>
</trkpt>
<trkpt lat="-27.249658" lon="151.3537973">
  <ele>516.56</ele>
  <time>2026-09-01T20:00:46Z</time>
  <course>238.34</course>
  <speed>34.52723562638631</speed>
  <fix>3d</fix>
</trkpt>
<trkpt lat="-27.2496011" lon="151.3538677">
  <ele>522.75</ele>
  <time>2026-09-01T20:00:46Z</time>
  <course>223.93</course>
  <speed>29.68</speed>
  <fix>3d</fix>
</trkpt>
<trkpt lat="-27.249674" lon="151.3537668">
  <ele>515.65</ele>
  <time>2026-09-01T20:00:46Z</time>
  <course>241.73</course>
  <speed>35.32958533580602</speed>
  <fix>3d</fix>
</trkpt>
<trkpt lat="-27.2496394" lon="151.3538234">
  <ele>518.45</ele>
  <time>2026-09-01T20:00:46Z</time>
  <course>230.46</course>
  <speed>31.82</speed>
  <fix>3d</fix>
</trkpt>
<trkpt lat="-27.2496891" lon="151.3537354">
  <ele>515.44</ele>
  <time>2026-09-01T20:00:46Z</time>
  <course>242.79</course>
  <speed>34.711150946057664</speed>
  <fix>3d</fix>
</trkpt>
<trkpt lat="-27.2496731" lon="151.3537672">
  <ele>516.01</ele>
  <time>2026-09-01T20:00:46Z</time>
  <course>239.85</course>
  <speed>34.6</speed>
  <fix>3d</fix>
</trkpt>
<trkpt lat="-27.2497033" lon="151.353705">
  <ele>515.83</ele>
  <time>2026-09-01T20:00:46Z</time>
  <course>242.19</course>
  <speed>33.113165055608924</speed>
  <fix>3d</fix>
</trkpt>
<trkpt lat="-27.2496731" lon="151.3537672">
  <ele>516.01</ele>
  <time>2026-09-01T20:00:46Z</time>
  <course>239.85</course>
  <speed>34.6</speed>
  <fix>3d</fix>
</trkpt>
<trkpt lat="-27.2497174" lon="151.3536766">
  <ele>516.62</ele>
  <time>2026-09-01T20:00:46Z</time>
  <course>241.25</course>
  <speed>31.415518458239713</speed>
  <fix>3d</fix>
</trkpt>
<trkpt lat="-27.2497027" lon="151.3537069">
  <ele>516.01</ele>
  <time>2026-09-01T20:00:46Z</time>
  <course>241.32</course>
  <speed>33.11</speed>
  <fix>3d</fix>
</trkpt>
<trkpt lat="-27.2497312" lon="151.3536498">
  <ele>517.61</ele>
  <time>2026-09-01T20:00:46Z</time>
  <course>240.77</course>
  <speed>30.089435022944517</speed>
  <fix>3d</fix>
</trkpt>
<trkpt lat="-27.2497027" lon="151.3537069">
  <ele>516.01</ele>
  <time>2026-09-01T20:00:46Z</time>
  <course>241.32</course>
  <speed>33.11</speed>
  <fix>3d</fix>
</trkpt>
<trkpt lat="-27.2497452" lon="151.3536243">
  <ele>518.66</ele>
  <time>2026-09-01T20:00:46Z</time>
  <course>240.48</course>
  <speed>29.069766080930197</speed>
  <fix>3d</fix>
</trkpt>
<trkpt lat="-27.2497308" lon="151.3536513">
  <ele>517.61</ele>
  <time>2026-09-01T20:00:46Z</time>
  <course>239.34</course>
  <speed>30.28</speed>
  <fix>3d</fix>
</trkpt>
<trkpt lat="-27.2497587" lon="151.3535997">
  <ele>519.74</ele>
  <time>2026-09-01T20:00:46Z</time>
  <course>239.99</course>
  <speed>28.083660730040165</speed>
  <fix>3d</fix>
</trkpt>
<trkpt lat="-27.2497308" lon="151.3536513">
  <ele>517.61</ele>
  <time>2026-09-01T20:00:46Z</time>
  <course>239.34</course>
  <speed>30.28</speed>
  <fix>3d</fix>
</trkpt>
<trkpt lat="-27.249772" lon="151.3535762">
  <ele>520.84</ele>
  <time>2026-09-01T20:00:46Z</time>
  <course>239.44</course>
  <speed>26.979579314733577</speed>
  <fix>3d</fix>
</trkpt>
<trkpt lat="-27.2497581" lon="151.3536011">
  <ele>519.71</ele>
  <time>2026-09-01T20:00:46Z</time>
  <course>237.98</course>
  <speed>28.06</speed>
  <fix>3d</fix>
</trkpt>
<trkpt lat="-27.2497846" lon="151.3535537">
  <ele>521.99</ele>
  <time>2026-09-01T20:00:46Z</time>
  <course>239.14</course>
  <speed>25.76783460052474</speed>
  <fix>3d</fix>
</trkpt>
<trkpt lat="-27.2497581" lon="151.3536011">
  <ele>519.71</ele>
  <time>2026-09-01T20:00:46Z</time>
  <course>237.98</course>
  <speed>28.06</speed>
  <fix>3d</fix>
</trkpt>
<trkpt lat="-27.2497967" lon="151.3535322">
  <ele>523.2</ele>
  <time>2026-09-01T20:00:46Z</time>
  <course>239.06</course>
  <speed>24.58877996160037</speed>
  <fix>3d</fix>
</trkpt>
<trkpt lat="-27.2497839" lon="151.353555">
  <ele>521.97</ele>
  <time>2026-09-01T20:00:46Z</time>
  <course>237.78</course>
  <speed>25.82</speed>
  <fix>3d</fix>
</trkpt>
<trkpt lat="-27.2498081" lon="151.3535116">
  <ele>524.44</ele>
  <time>2026-09-01T20:00:46Z</time>
  <course>239.09</course>
  <speed>23.521573076646042</speed>
  <fix>3d</fix>
</trkpt>
<trkpt lat="-27.2497839" lon="151.353555">
  <ele>521.97</ele>
  <time>2026-09-01T20:00:46Z</time>
  <course>237.78</course>
  <speed>25.82</speed>
  <fix>3d</fix>
</trkpt>
<trkpt lat="-27.2498189" lon="151.3534918">
  <ele>525.69</ele>
  <time>2026-09-01T20:00:46Z</time>
  <course>239.2</course>
  <speed>22.556528988299597</speed>
  <fix>3d</fix>
</trkpt>
<trkpt lat="-27.2498074" lon="151.3535127">
  <ele>524.4</ele>
  <time>2026-09-01T20:00:46Z</time>
  <course>238.19</course>
  <speed>23.61</speed>
  <fix>3d</fix>
</trkpt>
<trkpt lat="-27.2498293" lon="151.3534728">
  <ele>526.93</ele>
  <time>2026-09-01T20:00:46Z</time>
  <course>239.36</course>
  <speed>21.667681001897737</speed>
  <fix>3d</fix>
</trkpt>
<trkpt lat="-27.2498074" lon="151.3535127">
  <ele>524.4</ele>
  <time>2026-09-01T20:00:46Z</time>
  <course>238.19</course>
  <speed>23.61</speed>
  <fix>3d</fix>
</trkpt>
<trkpt lat="-27.2498392" lon="151.3534545">
  <ele>528.15</ele>
  <time>2026-09-01T20:00:46Z</time>
  <course>239.56</course>
  <speed>20.839109865826803</speed>
  <fix>3d</fix>
</trkpt>
<trkpt lat="-27.2498287" lon="151.3534738">
  <ele>526.87</ele>
  <time>2026-09-01T20:00:46Z</time>
  <course>238.58</course>
  <speed>21.73</speed>
  <fix>3d</fix>
</trkpt>
<trkpt lat="-27.2498487" lon="151.3534368">
  <ele>529.35</ele>
  <time>2026-09-01T20:00:46Z</time>
  <course>239.76</course>
  <speed>20.03988273418784</speed>
  <fix>3d</fix>
</trkpt>
<trkpt lat="-27.2498287" lon="151.3534738">
  <ele>526.87</ele>
  <time>2026-09-01T20:00:46Z</time>
  <course>238.58</course>
  <speed>21.73</speed>
  <fix>3d</fix>
</trkpt>
<trkpt lat="-27.2498579" lon="151.3534197">
  <ele>530.52</ele>
  <time>2026-09-01T20:00:46Z</time>
  <course>239.92</course>
  <speed>19.276680212111213</speed>
  <fix>3d</fix>
</trkpt>
<trkpt lat="-27.2498482" lon="151.3534377">
  <ele>529.29</ele>
  <time>2026-09-01T20:00:46Z</time>
  <course>238.71</course>
  <speed>20.08</speed>
  <fix>3d</fix>
</trkpt>
<trkpt lat="-27.2498667" lon="151.3534034">
  <ele>531.66</ele>
  <time>2026-09-01T20:00:46Z</time>
  <course>240.05</course>
  <speed>18.54279374851589</speed>
  <fix>3d</fix>
</trkpt>
<trkpt lat="-27.2498482" lon="151.3534377">
  <ele>529.29</ele>
  <time>2026-09-01T20:00:46Z</time>
  <course>238.71</course>
  <speed>20.08</speed>
  <fix>3d</fix>
</trkpt>
<trkpt lat="-27.2498752" lon="151.3533878">
  <ele>532.79</ele>
  <time>2026-09-01T20:00:46Z</time>
  <course>240.17</course>
  <speed>17.848296837513654</speed>
  <fix>3d</fix>
</trkpt>
<trkpt lat="-27.2498662" lon="151.3534043">
  <ele>531.61</ele>
  <time>2026-09-01T20:00:46Z</time>
  <course>238.68</course>
  <speed>18.59</speed>
  <fix>3d</fix>
</trkpt>
<trkpt lat="-27.2498834" lon="151.3533727">
  <ele>533.87</ele>
  <time>2026-09-01T20:00:46Z</time>
  <course>240.28</course>
  <speed>17.18983711382979</speed>
  <fix>3d</fix>
</trkpt>
<trkpt lat="-27.2498662" lon="151.3534043">
  <ele>531.61</ele>
  <time>2026-09-01T20:00:46Z</time>
  <course>238.68</course>
  <speed>18.59</speed>
  <fix>3d</fix>
</trkpt>
<trkpt lat="-27.2498913" lon="151.3533582">
  <ele>534.91</ele>
  <time>2026-09-01T20:00:46Z</time>
  <course>240.39</course>
  <speed>16.5536702878848</speed>
  <fix>3d</fix>
</trkpt>
<trkpt lat="-27.2498662" lon="151.3534043">
  <ele>531.61</ele>
  <time>2026-09-01T20:00:46Z</time>
  <course>238.68</course>
  <speed>18.59</speed>
  <fix>3d</fix>
</trkpt>
<trkpt lat="-27.2498989" lon="151.3533441">
  <ele>535.91</ele>
  <time>2026-09-01T20:00:46Z</time>
  <course>240.49</course>
  <speed>15.96207066767968</speed>
  <fix>3d</fix>
</trkpt>
<trkpt lat="-27.2498829" lon="151.3533734">
  <ele>533.81</ele>
  <time>2026-09-01T20:00:46Z</time>
  <course>238.58</course>
  <speed>17.22</speed>
  <fix>3d</fix>
</trkpt>
<trkpt lat="-27.2499063" lon="151.3533306">
  <ele>536.88</ele>
  <time>2026-09-01T20:00:46Z</time>
  <course>240.61</course>
  <speed>15.384232187535392</speed>
  <fix>3d</fix>
</trkpt>
<trkpt lat="-27.2498829" lon="151.3533734">
  <ele>533.81</ele>
  <time>2026-09-01T20:00:46Z</time>
  <course>238.58</course>
  <speed>17.22</speed>
  <fix>3d</fix>
</trkpt>
<trkpt lat="-27.2499134" lon="151.3533177">
  <ele>537.81</ele>
  <time>2026-09-01T20:00:46Z</time>
  <course>240.73</course>
  <speed>14.823444269129897</speed>
  <fix>3d</fix>
</trkpt>
<trkpt lat="-27.2498986" lon="151.3533447">
  <ele>535.87</ele>
  <time>2026-09-01T20:00:46Z</time>
  <course>238.49</course>
  <speed>15.99</speed>
  <fix>3d</fix>
</trkpt>
<trkpt lat="-27.2499205" lon="151.3533047">
  <ele>538.72</ele>
  <time>2026-09-01T20:00:46Z</time>
  <course>240.87</course>
  <speed>14.267897532572906</speed>
  <fix>3d</fix>
</trkpt>
<trkpt lat="-27.2498986" lon="151.3533447">
  <ele>535.87</ele>
  <time>2026-09-01T20:00:46Z</time>
  <course>238.49</course>
  <speed>15.99</speed>
  <fix>3d</fix>
</trkpt>
<trkpt lat="-27.2499271" lon="151.3532927">
  <ele>539.56</ele>
  <time>2026-09-01T20:00:46Z</time>
  <course>241.02</course>
  <speed>13.734635051576724</speed>
  <fix>3d</fix>
</trkpt>
<trkpt lat="-27.2499131" lon="151.3533182">
  <ele>537.76</ele>
  <time>2026-09-01T20:00:46Z</time>
  <course>238.41</course>
  <speed>14.85</speed>
  <fix>3d</fix>
</trkpt>
<trkpt lat="-27.2499334" lon="151.3532811">
  <ele>540.37</ele>
  <time>2026-09-01T20:00:46Z</time>
  <course>241.18</course>
  <speed>13.237416666404362</speed>
  <fix>3d</fix>
</trkpt>
<trkpt lat="-27.2499131" lon="151.3533182">
  <ele>537.76</ele>
  <time>2026-09-01T20:00:46Z</time>
  <course>238.41</course>
  <speed>14.85</speed>
  <fix>3d</fix>
</trkpt>
<trkpt lat="-27.2499396" lon="151.3532699">
  <ele>541.13</ele>
  <time>2026-09-01T20:00:46Z</time>
  <course>241.35</course>
  <speed>12.753979771036176</speed>
  <fix>3d</fix>
</trkpt>
<trkpt lat="-27.2499266" lon="151.3532936">
  <ele>539.49</ele>
  <time>2026-09-01T20:00:46Z</time>
  <course>238.32</course>
  <speed>13.78</speed>
  <fix>3d</fix>
</trkpt>
<trkpt lat="-27.2499455" lon="151.3532592">
  <ele>541.85</ele>
  <time>2026-09-01T20:00:46Z</time>
  <course>241.54</course>
  <speed>12.30340196856138</speed>
  <fix>3d</fix>
</trkpt>
<trkpt lat="-27.2499266" lon="151.3532936">
  <ele>539.49</ele>
  <time>2026-09-01T20:00:46Z</time>
  <course>238.32</course>
  <speed>13.78</speed>
  <fix>3d</fix>
</trkpt>
<trkpt lat="-27.2499513" lon="151.3532488">
  <ele>542.52</ele>
  <time>2026-09-01T20:00:46Z</time>
  <course>241.73</course>
  <speed>11.86138693408153</speed>
  <fix>3d</fix>
</trkpt>
<trkpt lat="-27.2499391" lon="151.3532708">
  <ele>541.06</ele>
  <time>2026-09-01T20:00:46Z</time>
  <course>238.17</course>
  <speed>12.8</speed>
  <fix>3d</fix>
</trkpt>
<trkpt lat="-27.2499567" lon="151.3532391">
  <ele>543.14</ele>
  <time>2026-09-01T20:00:46Z</time>
  <course>241.91</course>
  <speed>11.443919783011413</speed>
  <fix>3d</fix>
</trkpt>
<trkpt lat="-27.2499508" lon="151.3532496">
  <ele>542.46</ele>
  <time>2026-09-01T20:00:46Z</time>
  <course>237.87</course>
  <speed>11.9</speed>
  <fix>3d</fix>
</trkpt>
<trkpt lat="-27.2499621" lon="151.3532296">
  <ele>543.73</ele>
  <time>2026-09-01T20:00:46Z</time>
  <course>242.08</course>
  <speed>11.040493648383663</speed>
  <fix>3d</fix>
</trkpt>
<trkpt lat="-27.2499508" lon="151.3532496">
  <ele>542.46</ele>
  <time>2026-09-01T20:00:46Z</time>
  <course>237.87</course>
  <speed>11.9</speed>
  <fix>3d</fix>
</trkpt>
<trkpt lat="-27.2499674" lon="151.3532203">
  <ele>544.28</ele>
  <time>2026-09-01T20:00:46Z</time>
  <course>242.23</course>
  <speed>10.634401722711061</speed>
  <fix>3d</fix>
</trkpt>
<trkpt lat="-27.2499618" lon="151.35323">
  <ele>543.69</ele>
  <time>2026-09-01T20:00:46Z</time>
  <course>237.35</course>
  <speed>11.06</speed>
  <fix>3d</fix>
</trkpt>
<trkpt lat="-27.2499725" lon="151.3532114">
  <ele>544.79</ele>
  <time>2026-09-01T20:00:46Z</time>
  <course>242.35</course>
  <speed>10.251009706365515</speed>
  <fix>3d</fix>
</trkpt>
<trkpt lat="-27.2499618" lon="151.35323">
  <ele>543.69</ele>
  <time>2026-09-01T20:00:46Z</time>
  <course>237.35</course>
  <speed>11.06</speed>
  <fix>3d</fix>
</trkpt>
<trkpt lat="-27.2499776" lon="151.3532031">
  <ele>545.26</ele>
  <time>2026-09-01T20:00:46Z</time>
  <course>242.43</course>
  <speed>9.87097766181243</speed>
  <fix>3d</fix>
</trkpt>
<trkpt lat="-27.2499723" lon="151.3532119">
  <ele>544.75</ele>
  <time>2026-09-01T20:00:46Z</time>
  <course>236.57</course>
  <speed>10.27</speed>
  <fix>3d</fix>
</trkpt>
<trkpt lat="-27.2499824" lon="151.353195">
  <ele>545.7</ele>
  <time>2026-09-01T20:00:46Z</time>
  <course>242.49</course>
  <speed>9.50017368262286</speed>
  <fix>3d</fix>
</trkpt>
<trkpt lat="-27.2499723" lon="151.3532119">
  <ele>544.75</ele>
  <time>2026-09-01T20:00:46Z</time>
  <course>236.57</course>
  <speed>10.27</speed>
  <fix>3d</fix>
</trkpt>
<trkpt lat="-27.2499872" lon="151.3531871">
  <ele>546.1</ele>
  <time>2026-09-01T20:00:46Z</time>
  <course>242.52</course>
  <speed>9.136109675348692</speed>
  <fix>3d</fix>
</trkpt>
<trkpt lat="-27.2499822" lon="151.3531954">
  <ele>545.66</ele>
  <time>2026-09-01T20:00:46Z</time>
  <course>235.51</course>
  <speed>9.51</speed>
  <fix>3d</fix>
</trkpt>
<trkpt lat="-27.2499919" lon="151.3531798">
  <ele>546.46</ele>
  <time>2026-09-01T20:00:46Z</time>
  <course>242.52</course>
  <speed>8.773351697042584</speed>
  <fix>3d</fix>
</trkpt>
<trkpt lat="-27.2499822" lon="151.3531954">
  <ele>545.66</ele>
  <time>2026-09-01T20:00:46Z</time>
  <course>235.51</course>
  <speed>9.51</speed>
  <fix>3d</fix>
</trkpt>
<trkpt lat="-27.2499965" lon="151.3531729">
  <ele>546.79</ele>
  <time>2026-09-01T20:00:46Z</time>
  <course>242.5</course>
  <speed>8.432034155528546</speed>
  <fix>3d</fix>
</trkpt>
<trkpt lat="-27.2499917" lon="151.3531803">
  <ele>546.42</ele>
  <time>2026-09-01T20:00:46Z</time>
  <course>234.12</course>
  <speed>8.79</speed>
  <fix>3d</fix>
</trkpt>
<trkpt lat="-27.2500009" lon="151.3531662">
  <ele>547.08</ele>
  <time>2026-09-01T20:00:46Z</time>
  <course>242.46</course>
  <speed>8.092694236161403</speed>
  <fix>3d</fix>
</trkpt>
<trkpt lat="-27.2499917" lon="151.3531803">
  <ele>546.42</ele>
  <time>2026-09-01T20:00:46Z</time>
  <course>234.12</course>
  <speed>8.79</speed>
  <fix>3d</fix>
</trkpt>
<trkpt lat="-27.2500053" lon="151.3531598">
  <ele>547.34</ele>
  <time>2026-09-01T20:00:46Z</time>
  <course>242.4</course>
  <speed>7.755591531276</speed>
  <fix>3d</fix>
</trkpt>
<trkpt lat="-27.2500007" lon="151.3531666">
  <ele>547.05</ele>
  <time>2026-09-01T20:00:46Z</time>
  <course>232.39</course>
  <speed>8.11</speed>
  <fix>3d</fix>
</trkpt>
<trkpt lat="-27.2500097" lon="151.353154">
  <ele>547.57</ele>
  <time>2026-09-01T20:00:46Z</time>
  <course>242.33</course>
  <speed>7.441505224079333</speed>
  <fix>3d</fix>
</trkpt>
<trkpt lat="-27.2500007" lon="151.3531666">
  <ele>547.05</ele>
  <time>2026-09-01T20:00:46Z</time>
  <course>232.39</course>
  <speed>8.11</speed>
  <fix>3d</fix>
</trkpt>
<trkpt lat="-27.2500139" lon="151.3531482">
  <ele>547.77</ele>
  <time>2026-09-01T20:00:46Z</time>
  <course>242.26</course>
  <speed>7.131689841825708</speed>
  <fix>3d</fix>
</trkpt>
<trkpt lat="-27.2500007" lon="151.3531666">
  <ele>547.05</ele>
  <time>2026-09-01T20:00:46Z</time>
  <course>232.39</course>
  <speed>8.11</speed>
  <fix>3d</fix>
</trkpt>
<trkpt lat="-27.2500181" lon="151.353143">
  <ele>547.94</ele>
  <time>2026-09-01T20:00:46Z</time>
  <course>242.18</course>
  <speed>6.831668902984102</speed>
  <fix>3d</fix>
</trkpt>
<trkpt lat="-27.2500095" lon="151.3531543">
  <ele>547.55</ele>
  <time>2026-09-01T20:00:46Z</time>
  <course>230.29</course>
  <speed>7.46</speed>
  <fix>3d</fix>
</trkpt>
<trkpt lat="-27.2500222" lon="151.3531381">
  <ele>548.08</ele>
  <time>2026-09-01T20:00:46Z</time>
  <course>242.11</course>
  <speed>6.549656479541503</speed>
  <fix>3d</fix>
</trkpt>
<trkpt lat="-27.2500095" lon="151.3531543">
  <ele>547.55</ele>
  <time>2026-09-01T20:00:46Z</time>
  <course>230.29</course>
  <speed>7.46</speed>
  <fix>3d</fix>
</trkpt>
<trkpt lat="-27.2500263" lon="151.3531333">
  <ele>548.2</ele>
  <time>2026-09-01T20:00:46Z</time>
  <course>242.04</course>
  <speed>6.272073022534097</speed>
  <fix>3d</fix>
</trkpt>
<trkpt lat="-27.2500179" lon="151.3531433">
  <ele>547.92</ele>
  <time>2026-09-01T20:00:46Z</time>
  <course>227.81</course>
  <speed>6.85</speed>
  <fix>3d</fix>
</trkpt>
<trkpt lat="-27.2500303" lon="151.353129">
  <ele>548.28</ele>
  <time>2026-09-01T20:00:46Z</time>
  <course>241.97</course>
  <speed>6.006371616874867</speed>
  <fix>3d</fix>
</trkpt>
<trkpt lat="-27.2500179" lon="151.3531433">
  <ele>547.92</ele>
  <time>2026-09-01T20:00:46Z</time>
  <course>227.81</course>
  <speed>6.85</speed>
  <fix>3d</fix>
</trkpt>
<trkpt lat="-27.2500342" lon="151.353125">
  <ele>548.34</ele>
  <time>2026-09-01T20:00:46Z</time>
  <course>241.91</course>
  <speed>5.76669749510064</speed>
  <fix>3d</fix>
</trkpt>
<trkpt lat="-27.2500261" lon="151.3531337">
  <ele>548.18</ele>
  <time>2026-09-01T20:00:46Z</time>
  <course>224.91</course>
  <speed>6.29</speed>
  <fix>3d</fix>
</trkpt>
<trkpt lat="-27.2500381" lon="151.3531213">
  <ele>548.37</ele>
  <time>2026-09-01T20:00:46Z</time>
  <course>241.99</course>
  <speed>5.499327231580241</speed>
  <fix>3d</fix>
</trkpt>
<trkpt lat="-27.2500261" lon="151.3531337">
  <ele>548.18</ele>
  <time>2026-09-01T20:00:46Z</time>
  <course>224.91</course>
  <speed>6.29</speed>
  <fix>3d</fix>
</trkpt>
<trkpt lat="-27.2500419" lon="151.353118">
  <ele>548.39</ele>
  <time>2026-09-01T20:00:46Z</time>
  <course>242.57</course>
  <speed>5.204075326126631</speed>
  <fix>3d</fix>
</trkpt>
<trkpt lat="-27.2500339" lon="151.3531254">
  <ele>548.32</ele>
  <time>2026-09-01T20:00:46Z</time>
  <course>221.47</course>
  <speed>5.77</speed>
  <fix>3d</fix>
</trkpt>
<trkpt lat="-27.2500456" lon="151.353115">
  <ele>548.41</ele>
  <time>2026-09-01T20:00:46Z</time>
  <course>243.85</course>
  <speed>4.870523585817033</speed>
  <fix>3d</fix>
</trkpt>
<trkpt lat="-27.2500339" lon="151.3531254">
  <ele>548.32</ele>
  <time>2026-09-01T20:00:46Z</time>
  <course>221.47</course>
  <speed>5.77</speed>
  <fix>3d</fix>
</trkpt>
<trkpt lat="-27.2500492" lon="151.3531126">
  <ele>548.43</ele>
  <time>2026-09-01T20:00:46Z</time>
  <course>245.9</course>
  <speed>4.515584126112589</speed>
  <fix>3d</fix>
</trkpt>
<trkpt lat="-27.2500415" lon="151.3531183">
  <ele>548.39</ele>
  <time>2026-09-01T20:00:46Z</time>
  <course>216.6</course>
  <speed>5.2</speed>
  <fix>3d</fix>
</trkpt>
<trkpt lat="-27.2500527" lon="151.3531107">
  <ele>548.47</ele>
  <time>2026-09-01T20:00:46Z</time>
  <course>248.72</course>
  <speed>4.1296125726271224</speed>
  <fix>3d</fix>
</trkpt>
<trkpt lat="-27.2500415" lon="151.3531183">
  <ele>548.39</ele>
  <time>2026-09-01T20:00:46Z</time>
  <course>216.6</course>
  <speed>5.2</speed>
  <fix>3d</fix>
</trkpt>
<trkpt lat="-27.250056" lon="151.3531093">
  <ele>548.51</ele>
  <time>2026-09-01T20:00:46Z</time>
  <course>252.24</course>
  <speed>3.736482302915404</speed>
  <fix>3d</fix>
</trkpt>
<trkpt lat="-27.2500489" lon="151.353113">
  <ele>548.43</ele>
  <time>2026-09-01T20:00:46Z</time>
  <course>208.93</course>
  <speed>4.51</speed>
  <fix>3d</fix>
</trkpt>
<trkpt lat="-27.2500591" lon="151.3531085">
  <ele>548.58</ele>
  <time>2026-09-01T20:00:46Z</time>
  <course>256.31</course>
  <speed>3.3460723243827233</speed>
  <fix>3d</fix>
</trkpt>
<trkpt lat="-27.2500489" lon="151.353113">
  <ele>548.43</ele>
  <time>2026-09-01T20:00:46Z</time>
  <course>208.93</course>
  <speed>4.51</speed>
  <fix>3d</fix>
</trkpt>
<trkpt lat="-27.2500619" lon="151.3531083">
  <ele>548.66</ele>
  <time>2026-09-01T20:00:46Z</time>
  <course>260.67</course>
  <speed>2.9806039656418633</speed>
  <fix>3d</fix>
</trkpt>
<trkpt lat="-27.2500557" lon="151.3531096">
  <ele>548.51</ele>
  <time>2026-09-01T20:00:46Z</time>
  <course>197.17</course>
  <speed>3.73</speed>
  <fix>3d</fix>
</trkpt>
<trkpt lat="-27.2500644" lon="151.3531085">
  <ele>548.76</ele>
  <time>2026-09-01T20:00:46Z</time>
  <course>265.05</course>
  <speed>2.6652767210929524</speed>
  <fix>3d</fix>
</trkpt>
<trkpt lat="-27.2500557" lon="151.3531096">
  <ele>548.51</ele>
  <time>2026-09-01T20:00:46Z</time>
  <course>197.17</course>
  <speed>3.73</speed>
  <fix>3d</fix>
</trkpt>
<trkpt lat="-27.2500666" lon="151.3531093">
  <ele>548.88</ele>
  <time>2026-09-01T20:00:46Z</time>
  <course>269.26</course>
  <speed>2.3657768280207665</speed>
  <fix>3d</fix>
</trkpt>
<trkpt lat="-27.2500616" lon="151.3531085">
  <ele>548.66</ele>
  <time>2026-09-01T20:00:46Z</time>
  <course>180.1</course>
  <speed>2.98</speed>
  <fix>3d</fix>
</trkpt>
<trkpt lat="-27.2500683" lon="151.3531102">
  <ele>549.02</ele>
  <time>2026-09-01T20:00:46Z</time>
  <course>273.15</course>
  <speed>2.040833163195855</speed>
  <fix>3d</fix>
</trkpt>
<trkpt lat="-27.2500663" lon="151.3531094">
  <ele>548.88</ele>
  <time>2026-09-01T20:00:46Z</time>
  <course>160.42</course>
  <speed>2.33</speed>
  <fix>3d</fix>
</trkpt>
<trkpt lat="-27.2500697" lon="151.3531113">
  <ele>549.18</ele>
  <time>2026-09-01T20:00:46Z</time>
  <course>276.94</course>
  <speed>1.7121331723905124</speed>
  <fix>3d</fix>
</trkpt>
<trkpt lat="-27.2500663" lon="151.3531094">
  <ele>548.88</ele>
  <time>2026-09-01T20:00:46Z</time>
  <course>160.42</course>
  <speed>2.33</speed>
  <fix>3d</fix>
</trkpt>
<trkpt lat="-27.2500706" lon="151.3531124">
  <ele>549.37</ele>
  <time>2026-09-01T20:00:46Z</time>
  <course>280.39</course>
  <speed>1.4512063946937388</speed>
  <fix>3d</fix>
</trkpt>
<trkpt lat="-27.2500694" lon="151.3531113">
  <ele>549.19</ele>
  <time>2026-09-01T20:00:46Z</time>
  <course>137.43</course>
  <speed>1.7</speed>
  <fix>3d</fix>
</trkpt>
<trkpt lat="-27.2500712" lon="151.3531137">
  <ele>549.53</ele>
  <time>2026-09-01T20:00:46Z</time>
  <course>283.13</course>
  <speed>1.2690941651429968</speed>
  <fix>3d</fix>
</trkpt>
<trkpt lat="-27.2500694" lon="151.3531113">
  <ele>549.19</ele>
  <time>2026-09-01T20:00:46Z</time>
  <course>137.43</course>
  <speed>1.7</speed>
  <fix>3d</fix>
</trkpt>
<trkpt lat="-27.2500717" lon="151.3531147">
  <ele>549.57</ele>
  <time>2026-09-01T20:00:46Z</time>
  <course>285.18</course>
  <speed>1.1236102527122116</speed>
  <fix>3d</fix>
</trkpt>
<trkpt lat="-27.2500694" lon="151.3531113">
  <ele>549.19</ele>
  <time>2026-09-01T20:00:46Z</time>
  <course>137.43</course>
  <speed>1.7</speed>
  <fix>3d</fix>
</trkpt>
<trkpt lat="-27.2500722" lon="151.3531157">
  <ele>549.52</ele>
  <time>2026-09-01T20:00:46Z</time>
  <course>286.69</course>
  <speed>0.9985990186255943</speed>
  <fix>3d</fix>
</trkpt>
<trkpt lat="-27.2500711" lon="151.3531135">
  <ele>549.47</ele>
  <time>2026-09-01T20:00:46Z</time>
  <course>121.36</course>
  <speed>1.29</speed>
  <fix>3d</fix>
</trkpt>
<trkpt lat="-27.2500727" lon="151.3531165">
  <ele>549.39</ele>
  <time>2026-09-01T20:00:46Z</time>
  <course>288.13</course>
  <speed>0.9013878188659973</speed>
  <fix>3d</fix>
</trkpt>
<trkpt lat="-27.2500711" lon="151.3531135">
  <ele>549.47</ele>
  <time>2026-09-01T20:00:46Z</time>
  <course>121.36</course>
  <speed>1.29</speed>
  <fix>3d</fix>
</trkpt>
<trkpt lat="-27.2500732" lon="151.3531171">
  <ele>549.16</ele>
  <time>2026-09-01T20:00:46Z</time>
  <course>289.88</course>
  <speed>0.7905694150420949</speed>
  <fix>3d</fix>
</trkpt>
<trkpt lat="-27.2500722" lon="151.3531156">
  <ele>549.48</ele>
  <time>2026-09-01T20:00:46Z</time>
  <course>123.08</course>
  <speed>1.02</speed>
  <fix>3d</fix>
</trkpt>
<trkpt lat="-27.2500735" lon="151.3531178">
  <ele>548.87</ele>
  <time>2026-09-01T20:00:46Z</time>
  <course>292.24</course>
  <speed>0.6824221567329127</speed>
  <fix>3d</fix>
</trkpt>
<trkpt lat="-27.2500722" lon="151.3531156">
  <ele>549.48</ele>
  <time>2026-09-01T20:00:46Z</time>
  <course>123.08</course>
  <speed>1.02</speed>
  <fix>3d</fix>
</trkpt>
<trkpt lat="-27.2500739" lon="151.3531184">
  <ele>548.52</ele>
  <time>2026-09-01T20:00:46Z</time>
  <course>295.17</course>
  <speed>0.56859475903318</speed>
  <fix>3d</fix>
</trkpt>
<trkpt lat="-27.2500731" lon="151.3531171">
  <ele>549.14</ele>
  <time>2026-09-01T20:00:46Z</time>
  <course>124.38</course>
  <speed>0.8</speed>
  <fix>3d</fix>
</trkpt>
<trkpt lat="-27.2500741" lon="151.3531188">
  <ele>548.11</ele>
  <time>2026-09-01T20:00:46Z</time>
  <course>298.75</course>
  <speed>0.47169905660283024</speed>
  <fix>3d</fix>
</trkpt>
<trkpt lat="-27.2500731" lon="151.3531171">
  <ele>549.14</ele>
  <time>2026-09-01T20:00:46Z</time>
  <course>124.38</course>
  <speed>0.8</speed>
  <fix>3d</fix>
</trkpt>
<trkpt lat="-27.2500743" lon="151.3531191">
  <ele>547.64</ele>
  <time>2026-09-01T20:00:46Z</time>
  <course>302.98</course>
  <speed>0.3535533905932738</speed>
  <fix>3d</fix>
</trkpt>
<trkpt lat="-27.2500738" lon="151.3531183">
  <ele>548.51</ele>
  <time>2026-09-01T20:00:46Z</time>
  <course>123.96</course>
  <speed>0.58</speed>
  <fix>3d</fix>
</trkpt>
<trkpt lat="-27.2500744" lon="151.3531194">
  <ele>547.11</ele>
  <time>2026-09-01T20:00:46Z</time>
  <course>307.93</course>
  <speed>0.21540659228538014</speed>
  <fix>3d</fix>
</trkpt>
<trkpt lat="-27.2500738" lon="151.3531183">
  <ele>548.51</ele>
  <time>2026-09-01T20:00:46Z</time>
  <course>123.96</course>
  <speed>0.58</speed>
  <fix>3d</fix>
</trkpt>
<trkpt lat="-27.2500745" lon="151.3531195">
  <ele>546.52</ele>
  <time>2026-09-01T20:00:46Z</time>
  <course>313.65</course>
  <speed>0.09</speed>
  <fix>3d</fix>
</trkpt>
<trkpt lat="-27.2500742" lon="151.3531191">
  <ele>547.64</ele>
  <time>2026-09-01T20:00:46Z</time>
  <course>119.62</course>
  <speed>0.35</speed>
  <fix>3d</fix>
</trkpt>
<trkpt lat="-27.2500744" lon="151.3531195">
  <ele>545.85</ele>
  <time>2026-09-01T20:00:46Z</time>
  <course>320.14</course>
  <speed>0.09219544457292887</speed>
  <fix>3d</fix>
</trkpt>
<trkpt lat="-27.2500742" lon="151.3531191">
  <ele>547.64</ele>
  <time>2026-09-01T20:00:46Z</time>
  <course>119.62</course>
  <speed>0.35</speed>
  <fix>3d</fix>
</trkpt>
<trkpt lat="-27.2500742" lon="151.3531193">
  <ele>545.11</ele>
  <time>2026-09-01T20:00:46Z</time>
  <course>328.93</course>
  <speed>0.85</speed>
  <fix>3d</fix>
</trkpt>
<trkpt lat="-27.2500744" lon="151.3531195">
  <ele>546.51</ele>
  <time>2026-09-01T20:00:46Z</time>
  <course>91.94</course>
  <speed>0.09</speed>
  <fix>3d</fix>
</trkpt>
<trkpt lat="-27.2500737" lon="151.3531184">
  <ele>544.29</ele>
  <time>2026-09-01T20:00:46Z</time>
  <course>344.98</course>
  <speed>1.3509256086106296</speed>
  <fix>3d</fix>
</trkpt>
<trkpt lat="-27.2500744" lon="151.3531195">
  <ele>546.51</ele>
  <time>2026-09-01T20:00:46Z</time>
  <course>91.94</course>
  <speed>0.09</speed>
  <fix>3d</fix>
</trkpt>
<trkpt lat="-27.2500729" lon="151.3531171">
  <ele>543.39</ele>
  <time>2026-09-01T20:00:46Z</time>
  <course>8.49</course>
  <speed>1.4682302271782857</speed>
  <fix>3d</fix>
</trkpt>
<trkpt lat="-27.250074" lon="151.353119">
  <ele>545.12</ele>
  <time>2026-09-01T20:00:46Z</time>
  <course>307.44</course>
  <speed>0.7</speed>
  <fix>3d</fix>
</trkpt>
<trkpt lat="-27.2500722" lon="151.3531161">
  <ele>542.4</ele>
  <time>2026-09-01T20:00:46Z</time>
  <course>23.64</course>
  <speed>1.3603308421115798</speed>
  <fix>3d</fix>
</trkpt>
<trkpt lat="-27.250074" lon="151.353119">
  <ele>545.12</ele>
  <time>2026-09-01T20:00:46Z</time>
  <course>307.44</course>
  <speed>0.7</speed>
  <fix>3d</fix>
</trkpt>
<trkpt lat="-27.2500714" lon="151.353115">
  <ele>541.31</ele>
  <time>2026-09-01T20:00:46Z</time>
  <course>16.48</course>
  <speed>1.3136590120727678</speed>
  <fix>3d</fix>
</trkpt>
<trkpt lat="-27.2500729" lon="151.3531173">
  <ele>543.4</ele>
  <time>2026-09-01T20:00:46Z</time>
  <course>306.41</course>
  <speed>1.35</speed>
  <fix>3d</fix>
</trkpt>
<trkpt lat="-27.2500706" lon="151.3531138">
  <ele>540.13</ele>
  <time>2026-09-01T20:00:46Z</time>
  <course>355.78</course>
  <speed>1.615239920259526</speed>
  <fix>3d</fix>
</trkpt>
<trkpt lat="-27.2500729" lon="151.3531173">
  <ele>543.4</ele>
  <time>2026-09-01T20:00:46Z</time>
  <course>306.41</course>
  <speed>1.35</speed>
  <fix>3d</fix>
</trkpt>
<trkpt lat="-27.2500694" lon="151.3531124">
  <ele>538.87</ele>
  <time>2026-09-01T20:00:46Z</time>
  <course>343.75</course>
  <speed>2.4041630560342617</speed>
  <fix>3d</fix>
</trkpt>
<trkpt lat="-27.2500713" lon="151.353115">
  <ele>541.33</ele>
  <time>2026-09-01T20:00:46Z</time>
  <course>309.71</course>
  <speed>1.48</speed>
  <fix>3d</fix>
</trkpt>
<trkpt lat="-27.2500674" lon="151.3531104">
  <ele>537.54</ele>
  <time>2026-09-01T20:00:46Z</time>
  <course>341.37</course>
  <speed>3.5701540583005658</speed>
  <fix>3d</fix>
</trkpt>
<trkpt lat="-27.2500713" lon="151.353115">
  <ele>541.33</ele>
  <time>2026-09-01T20:00:46Z</time>
  <course>309.71</course>
  <speed>1.48</speed>
  <fix>3d</fix>
</trkpt>
<trkpt lat="-27.2500643" lon="151.353108">
  <ele>536.19</ele>
  <time>2026-09-01T20:00:46Z</time>
  <course>342.05</course>
  <speed>4.853802632987872</speed>
  <fix>3d</fix>
</trkpt>
<trkpt lat="-27.250069" lon="151.3531123">
  <ele>538.91</ele>
  <time>2026-09-01T20:00:46Z</time>
  <course>317.78</course>
  <speed>2.53</speed>
  <fix>3d</fix>
</trkpt>
<trkpt lat="-27.2500599" lon="151.3531054">
  <ele>534.79</ele>
  <time>2026-09-01T20:00:46Z</time>
  <course>342.29</course>
  <speed>6.0612292482630945</speed>
  <fix>3d</fix>
</trkpt>
<trkpt lat="-27.250069" lon="151.3531123">
  <ele>538.91</ele>
  <time>2026-09-01T20:00:46Z</time>
  <course>317.78</course>
  <speed>2.53</speed>
  <fix>3d</fix>
</trkpt>
<trkpt lat="-27.2500544" lon="151.3531027">
  <ele>533.37</ele>
  <time>2026-09-01T20:00:46Z</time>
  <course>341.75</course>
  <speed>7.179338409630793</speed>
  <fix>3d</fix>
</trkpt>
<trkpt lat="-27.2500638" lon="151.353108">
  <ele>536.24</ele>
  <time>2026-09-01T20:00:46Z</time>
  <course>329.38</course>
  <speed>4.72</speed>
  <fix>3d</fix>
</trkpt>
<trkpt lat="-27.2500478" lon="151.3531003">
  <ele>531.93</ele>
  <time>2026-09-01T20:00:46Z</time>
  <course>340.98</course>
  <speed>8.31601467050173</speed>
  <fix>3d</fix>
</trkpt>
<trkpt lat="-27.2500638" lon="151.353108">
  <ele>536.24</ele>
  <time>2026-09-01T20:00:46Z</time>
  <course>329.38</course>
  <speed>4.72</speed>
  <fix>3d</fix>
</trkpt>
<trkpt lat="-27.2500401" lon="151.3530978">
  <ele>530.49</ele>
  <time>2026-09-01T20:00:46Z</time>
  <course>340.11</course>
  <speed>9.595050807577831</speed>
  <fix>3d</fix>
</trkpt>
<trkpt lat="-27.2500542" lon="151.3531029">
  <ele>533.43</ele>
  <time>2026-09-01T20:00:46Z</time>
  <course>339.24</course>
  <speed>7.11</speed>
  <fix>3d</fix>
</trkpt>
<trkpt lat="-27.2500314" lon="151.3530951">
  <ele>529.1</ele>
  <time>2026-09-01T20:00:46Z</time>
  <course>339.17</course>
  <speed>10.943975511668508</speed>
  <fix>3d</fix>
</trkpt>
<trkpt lat="-27.2500542" lon="151.3531029">
  <ele>533.43</ele>
  <time>2026-09-01T20:00:46Z</time>
  <course>339.24</course>
  <speed>7.11</speed>
  <fix>3d</fix>
</trkpt>
<trkpt lat="-27.250021" lon="151.3530917">
  <ele>527.69</ele>
  <time>2026-09-01T20:00:46Z</time>
  <course>338.29</course>
  <speed>12.356067335523871</speed>
  <fix>3d</fix>
</trkpt>
<trkpt lat="-27.2500399" lon="151.3530978">
  <ele>530.57</ele>
  <time>2026-09-01T20:00:46Z</time>
  <course>343.79</course>
  <speed>9.58</speed>
  <fix>3d</fix>
</trkpt>
<trkpt lat="-27.2500099" lon="151.3530877">
  <ele>526.38</ele>
  <time>2026-09-01T20:00:46Z</time>
  <course>337.69</course>
  <speed>13.605271037359014</speed>
  <fix>3d</fix>
</trkpt>
<trkpt lat="-27.2500399" lon="151.3530978">
  <ele>530.57</ele>
  <time>2026-09-01T20:00:46Z</time>
  <course>343.79</course>
  <speed>9.58</speed>
  <fix>3d</fix>
</trkpt>
<trkpt lat="-27.249998" lon="151.3530826">
  <ele>525.14</ele>
  <time>2026-09-01T20:00:46Z</time>
  <course>337.29</course>
  <speed>14.725827650763812</speed>
  <fix>3d</fix>
</trkpt>
<trkpt lat="-27.2500211" lon="151.3530915">
  <ele>527.79</ele>
  <time>2026-09-01T20:00:46Z</time>
  <course>342.56</course>
  <speed>12.22</speed>
  <fix>3d</fix>
</trkpt>
<trkpt lat="-27.2499853" lon="151.3530768">
  <ele>523.98</ele>
  <time>2026-09-01T20:00:46Z</time>
  <course>337.03</course>
  <speed>15.768820501229634</speed>
  <fix>3d</fix>
</trkpt>
<trkpt lat="-27.2500211" lon="151.3530915">
  <ele>527.79</ele>
  <time>2026-09-01T20:00:46Z</time>
  <course>342.56</course>
  <speed>12.22</speed>
  <fix>3d</fix>
</trkpt>
<trkpt lat="-27.249972" lon="151.35307">
  <ele>522.93</ele>
  <time>2026-09-01T20:00:46Z</time>
  <course>336.94</course>
  <speed>16.742771574622882</speed>
  <fix>3d</fix>
</trkpt>
<trkpt lat="-27.2499983" lon="151.3530826">
  <ele>525.25</ele>
  <time>2026-09-01T20:00:46Z</time>
  <course>338.61</course>
  <speed>14.61</speed>
  <fix>3d</fix>
</trkpt>
<trkpt lat="-27.249958" lon="151.3530626">
  <ele>521.99</ele>
  <time>2026-09-01T20:00:46Z</time>
  <course>337.02</course>
  <speed>17.584885555499074</speed>
  <fix>3d</fix>
</trkpt>
<trkpt lat="-27.2499983" lon="151.3530826">
  <ele>525.25</ele>
  <time>2026-09-01T20:00:46Z</time>
  <course>338.61</course>
  <speed>14.61</speed>
  <fix>3d</fix>
</trkpt>
<trkpt lat="-27.2499434" lon="151.3530549">
  <ele>521.2</ele>
  <time>2026-09-01T20:00:46Z</time>
  <course>337.19</course>
  <speed>18.2723506971599</speed>
  <fix>3d</fix>
</trkpt>
<trkpt lat="-27.2499725" lon="151.3530701">
  <ele>523.05</ele>
  <time>2026-09-01T20:00:46Z</time>
  <course>335.64</course>
  <speed>16.63</speed>
  <fix>3d</fix>
</trkpt>
<trkpt lat="-27.2499282" lon="151.3530472">
  <ele>520.54</ele>
  <time>2026-09-01T20:00:46Z</time>
  <course>337.44</course>
  <speed>18.757505164600115</speed>
  <fix>3d</fix>
</trkpt>
<trkpt lat="-27.2499725" lon="151.3530701">
  <ele>523.05</ele>
  <time>2026-09-01T20:00:46Z</time>
  <course>335.64</course>
  <speed>16.63</speed>
  <fix>3d</fix>
</trkpt>
<trkpt lat="-27.2499127" lon="151.3530396">
  <ele>520.01</ele>
  <time>2026-09-01T20:00:46Z</time>
  <course>337.67</course>
  <speed>19.046325104859466</speed>
  <fix>3d</fix>
</trkpt>
<trkpt lat="-27.249944" lon="151.3530554">
  <ele>521.31</ele>
  <time>2026-09-01T20:00:46Z</time>
  <course>335.39</course>
  <speed>18.14</speed>
  <fix>3d</fix>
</trkpt>
<trkpt lat="-27.2498968" lon="151.3530323">
  <ele>519.61</ele>
  <time>2026-09-01T20:00:46Z</time>
  <course>337.77</course>
  <speed>19.178623516822057</speed>
  <fix>3d</fix>
</trkpt>
<trkpt lat="-27.249944" lon="151.3530554">
  <ele>521.31</ele>
  <time>2026-09-01T20:00:46Z</time>
  <course>335.39</course>
  <speed>18.14</speed>
  <fix>3d</fix>
</trkpt>
<trkpt lat="-27.2498808" lon="151.3530252">
  <ele>519.31</ele>
  <time>2026-09-01T20:00:46Z</time>
  <course>337.74</course>
  <speed>19.185332939513977</speed>
  <fix>3d</fix>
</trkpt>
<trkpt lat="-27.2499134" lon="151.3530402">
  <ele>520.09</ele>
  <time>2026-09-01T20:00:46Z</time>
  <course>337.02</course>
  <speed>18.95</speed>
  <fix>3d</fix>
</trkpt>
<trkpt lat="-27.2498647" lon="151.3530183">
  <ele>519.07</ele>
  <time>2026-09-01T20:00:46Z</time>
  <course>337.74</course>
  <speed>19.116511187975696</speed>
  <fix>3d</fix>
</trkpt>
<trkpt lat="-27.2499134" lon="151.3530402">
  <ele>520.09</ele>
  <time>2026-09-01T20:00:46Z</time>
  <course>337.02</course>
  <speed>18.95</speed>
  <fix>3d</fix>
</trkpt>
<trkpt lat="-27.2498487" lon="151.3530113">
  <ele>518.87</ele>
  <time>2026-09-01T20:00:46Z</time>
  <course>337.89</course>
  <speed>19.0017315000502</speed>
  <fix>3d</fix>
</trkpt>
<trkpt lat="-27.2498816" lon="151.3530257">
  <ele>519.35</ele>
  <time>2026-09-01T20:00:46Z</time>
  <course>338.61</course>
  <speed>19.15</speed>
  <fix>3d</fix>
</trkpt>
<trkpt lat="-27.2498328" lon="151.3530046">
  <ele>518.69</ele>
  <time>2026-09-01T20:00:46Z</time>
  <course>338.18</course>
  <speed>18.882441579414458</speed>
  <fix>3d</fix>
</trkpt>
<trkpt lat="-27.2498816" lon="151.3530257">
  <ele>519.35</ele>
  <time>2026-09-01T20:00:46Z</time>
  <course>338.61</course>
  <speed>19.15</speed>
  <fix>3d</fix>
</trkpt>
<trkpt lat="-27.249817" lon="151.3529979">
  <ele>518.52</ele>
  <time>2026-09-01T20:00:46Z</time>
  <course>338.55</course>
  <speed>18.751645261149754</speed>
  <fix>3d</fix>
</trkpt>
<trkpt lat="-27.2498496" lon="151.3530118">
  <ele>518.89</ele>
  <time>2026-09-01T20:00:46Z</time>
  <course>339.17</course>
  <speed>19.01</speed>
  <fix>3d</fix>
</trkpt>
<trkpt lat="-27.2498013" lon="151.3529911">
  <ele>518.35</ele>
  <time>2026-09-01T20:00:46Z</time>
  <course>338.89</course>
  <speed>18.624588586060096</speed>
  <fix>3d</fix>
</trkpt>
<trkpt lat="-27.2498496" lon="151.3530118">
  <ele>518.89</ele>
  <time>2026-09-01T20:00:46Z</time>
  <course>339.17</course>
  <speed>19.01</speed>
  <fix>3d</fix>
</trkpt>
<trkpt lat="-27.2497858" lon="151.3529843">
  <ele>518.19</ele>
  <time>2026-09-01T20:00:46Z</time>
  <course>339.16</course>
  <speed>18.494088244625633</speed>
  <fix>3d</fix>
</trkpt>
<trkpt lat="-27.2498179" lon="151.3529982">
  <ele>518.53</ele>
  <time>2026-09-01T20:00:46Z</time>
  <course>339.01</course>
  <speed>18.76</speed>
  <fix>3d</fix>
</trkpt>
<trkpt lat="-27.2497704" lon="151.3529774">
  <ele>518.03</ele>
  <time>2026-09-01T20:00:46Z</time>
  <course>339.3</course>
  <speed>18.365728953678914</speed>
  <fix>3d</fix>
</trkpt>
<trkpt lat="-27.2498179" lon="151.3529982">
  <ele>518.53</ele>
  <time>2026-09-01T20:00:46Z</time>
  <course>339.01</course>
  <speed>18.76</speed>
  <fix>3d</fix>
</trkpt>
<trkpt lat="-27.2497551" lon="151.3529706">
  <ele>517.87</ele>
  <time>2026-09-01T20:00:46Z</time>
  <course>339.33</course>
  <speed>18.248717763174486</speed>
  <fix>3d</fix>
</trkpt>
<trkpt lat="-27.2497866" lon="151.3529846">
  <ele>518.19</ele>
  <time>2026-09-01T20:00:46Z</time>
  <course>338.71</course>
  <speed>18.51</speed>
  <fix>3d</fix>
</trkpt>
<trkpt lat="-27.2497399" lon="151.3529639">
  <ele>517.7</ele>
  <time>2026-09-01T20:00:46Z</time>
  <course>339.25</course>
  <speed>18.124414473300924</speed>
  <fix>3d</fix>
</trkpt>
<trkpt lat="-27.2497866" lon="151.3529846">
  <ele>518.19</ele>
  <time>2026-09-01T20:00:46Z</time>
  <course>338.71</course>
  <speed>18.51</speed>
  <fix>3d</fix>
</trkpt>
<trkpt lat="-27.2497247" lon="151.3529573">
  <ele>517.54</ele>
  <time>2026-09-01T20:00:46Z</time>
  <course>339.1</course>
  <speed>18.002188755815222</speed>
  <fix>3d</fix>
</trkpt>
<trkpt lat="-27.2497558" lon="151.3529711">
  <ele>517.87</ele>
  <time>2026-09-01T20:00:46Z</time>
  <course>338.61</course>
  <speed>18.26</speed>
  <fix>3d</fix>
</trkpt>
<trkpt lat="-27.2497097" lon="151.3529508">
  <ele>517.38</ele>
  <time>2026-09-01T20:00:46Z</time>
  <course>338.94</course>
  <speed>17.88937394097401</speed>
  <fix>3d</fix>
</trkpt>
<trkpt lat="-27.2497558" lon="151.3529711">
  <ele>517.87</ele>
  <time>2026-09-01T20:00:46Z</time>
  <course>338.61</course>
  <speed>18.26</speed>
  <fix>3d</fix>
</trkpt>
<trkpt lat="-27.2496947" lon="151.3529443">
  <ele>517.22</ele>
  <time>2026-09-01T20:00:46Z</time>
  <course>338.82</course>
  <speed>17.776658853676636</speed>
  <fix>3d</fix>
</trkpt>
<trkpt lat="-27.2497255" lon="151.3529578">
  <ele>517.55</ele>
  <time>2026-09-01T20:00:46Z</time>
  <course>338.76</course>
  <speed>18.02</speed>
  <fix>3d</fix>
</trkpt>
<trkpt lat="-27.2496799" lon="151.352938">
  <ele>517.06</ele>
  <time>2026-09-01T20:00:46Z</time>
  <course>338.77</course>
  <speed>17.66404540302136</speed>
  <fix>3d</fix>
</trkpt>
<trkpt lat="-27.2497255" lon="151.3529578">
  <ele>517.55</ele>
  <time>2026-09-01T20:00:46Z</time>
  <course>338.76</course>
  <speed>18.02</speed>
  <fix>3d</fix>
</trkpt>
<trkpt lat="-27.2479193" lon="151.3569861">
  <ele>540.46</ele>
  <time>2026-09-01T20:00:46Z</time>
  <course>250.27</course>
  <speed>11.898243567854879</speed>
  <fix>3d</fix>
</trkpt>
<trkpt lat="-27.2496955" lon="151.3529447">
  <ele>517.22</ele>
  <time>2026-09-01T20:00:46Z</time>
  <course>339.02</course>
  <speed>17.79</speed>
  <fix>3d</fix>
</trkpt>
<trkpt lat="-27.2479219" lon="151.3569748">
  <ele>536.61</ele>
  <time>2026-09-01T20:00:46Z</time>
  <course>243.96</course>
  <speed>11.729799657283154</speed>
  <fix>3d</fix>
</trkpt>
<trkpt lat="-27.2496955" lon="151.3529447">
  <ele>517.22</ele>
  <time>2026-09-01T20:00:46Z</time>
  <course>339.02</course>
  <speed>17.79</speed>
  <fix>3d</fix>
</trkpt>
<trkpt lat="-27.2479259" lon="151.3569629">
  <ele>532.76</ele>
  <time>2026-09-01T20:00:46Z</time>
  <course>227.92</course>
  <speed>13.007832255991005</speed>
  <fix>3d</fix>
</trkpt>
<trkpt lat="-27.2488011" lon="151.3549568">
  <ele>526.93</ele>
  <time>2026-09-01T20:00:46Z</time>
  <course>307.49</course>
  <speed>11.07</speed>
  <fix>3d</fix>
</trkpt>
<trkpt lat="-27.2479333" lon="151.3569521">
  <ele>529.0</ele>
  <time>2026-09-01T20:00:46Z</time>
  <course>207.19</course>
  <speed>14.274414173618474</speed>
  <fix>3d</fix>
</trkpt>
<trkpt lat="-27.2488011" lon="151.3549568">
  <ele>526.93</ele>
  <time>2026-09-01T20:00:46Z</time>
  <course>307.49</course>
  <speed>11.07</speed>
  <fix>3d</fix>
</trkpt>
<trkpt lat="-27.2479442" lon="151.356944">
  <ele>525.29</ele>
  <time>2026-09-01T20:00:46Z</time>
  <course>189.32</course>
  <speed>14.707620473754414</speed>
  <fix>3d</fix>
</trkpt>
<trkpt lat="-27.2479272" lon="151.356964">
  <ele>533.01</ele>
  <time>2026-09-01T20:00:46Z</time>
  <course>237.8</course>
  <speed>12.48</speed>
  <fix>3d</fix>
</trkpt>
<trkpt lat="-27.2479565" lon="151.3569389">
  <ele>521.62</ele>
  <time>2026-09-01T20:00:47Z</time>
  <course>181.79</course>
  <speed>14.636509146651056</speed>
  <fix>3d</fix>
</trkpt>
<trkpt lat="-27.2479272" lon="151.356964">
  <ele>533.01</ele>
  <time>2026-09-01T20:00:47Z</time>
  <course>237.8</course>
  <speed>12.48</speed>
  <fix>3d</fix>
</trkpt>
<trkpt lat="-27.2479696" lon="151.3569324">
  <ele>518.0</ele>
  <time>2026-09-01T20:00:47Z</time>
  <course>202.75</course>
  <speed>18.411042881922796</speed>
  <fix>3d</fix>
</trkpt>
<trkpt lat="-27.2479443" lon="151.3569459">
  <ele>525.52</ele>
  <time>2026-09-01T20:00:47Z</time>
  <course>210.45</course>
  <speed>14.04</speed>
  <fix>3d</fix>
</trkpt>
<trkpt lat="-27.2479849" lon="151.3569183">
  <ele>514.82</ele>
  <time>2026-09-01T20:00:47Z</time>
  <course>215.21</course>
  <speed>26.106033785314843</speed>
  <fix>3d</fix>
</trkpt>
<trkpt lat="-27.2479443" lon="151.3569459">
  <ele>525.52</ele>
  <time>2026-09-01T20:00:47Z</time>
  <course>210.45</course>
  <speed>14.04</speed>
  <fix>3d</fix>
</trkpt>
<trkpt lat="-27.2480035" lon="151.3568972">
  <ele>512.41</ele>
  <time>2026-09-01T20:00:47Z</time>
  <course>222.53</course>
  <speed>32.16278750357313</speed>
  <fix>3d</fix>
</trkpt>
<trkpt lat="-27.2479698" lon="151.3569292">
  <ele>518.41</ele>
  <time>2026-09-01T20:00:47Z</time>
  <course>213.67</course>
  <speed>19.69</speed>
  <fix>3d</fix>
</trkpt>
<trkpt lat="-27.2480242" lon="151.3568721">
  <ele>510.95</ele>
  <time>2026-09-01T20:00:47Z</time>
  <course>226.64</course>
  <speed>35.131857337749736</speed>
  <fix>3d</fix>
</trkpt>
<trkpt lat="-27.2479698" lon="151.3569292">
  <ele>518.41</ele>
  <time>2026-09-01T20:00:47Z</time>
  <course>213.67</course>
  <speed>19.69</speed>
  <fix>3d</fix>
</trkpt>
<trkpt lat="-27.2480453" lon="151.3568454">
  <ele>510.55</ele>
  <time>2026-09-01T20:00:47Z</time>
  <course>228.59</course>
  <speed>34.833020253776446</speed>
  <fix>3d</fix>
</trkpt>
<trkpt lat="-27.2480034" lon="151.3568964">
  <ele>513.0</ele>
  <time>2026-09-01T20:00:47Z</time>
  <course>225.7</course>
  <speed>30.33</speed>
  <fix>3d</fix>
</trkpt>
<trkpt lat="-27.2480648" lon="151.35682">
  <ele>511.22</ele>
  <time>2026-09-01T20:00:47Z</time>
  <course>229.45</course>
  <speed>31.062272936795853</speed>
  <fix>3d</fix>
</trkpt>
<trkpt lat="-27.2480034" lon="151.3568964">
  <ele>513.0</ele>
  <time>2026-09-01T20:00:47Z</time>
  <course>225.7</course>
  <speed>30.33</speed>
  <fix>3d</fix>
</trkpt>
<trkpt lat="-27.2480812" lon="151.3567982">
  <ele>512.74</ele>
  <time>2026-09-01T20:00:47Z</time>
  <course>230.26</course>
  <speed>25.232425567115023</speed>
  <fix>3d</fix>
</trkpt>
<trkpt lat="-27.2480433" lon="151.3568475">
  <ele>511.08</ele>
  <time>2026-09-01T20:00:47Z</time>
  <course>228.55</course>
  <speed>33.2</speed>
  <fix>3d</fix>
</trkpt>
<trkpt lat="-27.2480938" lon="151.3567811">
  <ele>514.82</ele>
  <time>2026-09-01T20:00:47Z</time>
  <course>232.09</course>
  <speed>18.903272203510163</speed>
  <fix>3d</fix>
</trkpt>
<trkpt lat="-27.2480433" lon="151.3568475">
  <ele>511.08</ele>
  <time>2026-09-01T20:00:47Z</time>
  <course>228.55</course>
  <speed>33.2</speed>
  <fix>3d</fix>
</trkpt>
<trkpt lat="-27.2481025" lon="151.3567683">
  <ele>517.19</ele>
  <time>2026-09-01T20:00:47Z</time>
  <course>235.24</course>
  <speed>13.459576516369303</speed>
  <fix>3d</fix>
</trkpt>
<trkpt lat="-27.2480784" lon="151.3568016">
  <ele>512.93</ele>
  <time>2026-09-01T20:00:47Z</time>
  <course>230.07</course>
  <speed>25.29</speed>
  <fix>3d</fix>
</trkpt>
<trkpt lat="-27.2481081" lon="151.3567589">
  <ele>519.66</ele>
  <time>2026-09-01T20:00:47Z</time>
  <course>242.36</course>
  <speed>8.952373986826064</speed>
  <fix>3d</fix>
</trkpt>
<trkpt lat="-27.2480784" lon="151.3568016">
  <ele>512.93</ele>
  <time>2026-09-01T20:00:47Z</time>
  <course>230.07</course>
  <speed>25.29</speed>
  <fix>3d</fix>
</trkpt>
<trkpt lat="-27.2481109" lon="151.3567527">
  <ele>522.11</ele>
  <time>2026-09-01T20:00:47Z</time>
  <course>264.89</course>
  <speed>4.8665799079024685</speed>
  <fix>3d</fix>
</trkpt>
<trkpt lat="-27.2481005" lon="151.3567706">
  <ele>517.12</ele>
  <time>2026-09-01T20:00:47Z</time>
  <course>233.53</course>
  <speed>14.17</speed>
  <fix>3d</fix>
</trkpt>
<trkpt lat="-27.2481114" lon="151.3567497">
  <ele>524.49</ele>
  <time>2026-09-01T20:00:47Z</time>
  <course>358.19</course>
  <speed>1.7548219282878819</speed>
  <fix>3d</fix>
</trkpt>
<trkpt lat="-27.2481005" lon="151.3567706">
  <ele>517.12</ele>
  <time>2026-09-01T20:00:47Z</time>
  <course>233.53</course>
  <speed>14.17</speed>
  <fix>3d</fix>
</trkpt>
<trkpt lat="-27.24811" lon="151.35675">
  <ele>526.73</ele>
  <time>2026-09-01T20:00:47Z</time>
  <course>55.87</course>
  <speed>3.2889664029904595</speed>
  <fix>3d</fix>
</trkpt>
<trkpt lat="-27.2481096" lon="151.3567545">
  <ele>521.95</ele>
  <time>2026-09-01T20:00:47Z</time>
  <course>246.08</course>
  <speed>5.25</speed>
  <fix>3d</fix>
</trkpt>
<trkpt lat="-27.2481079" lon="151.3567544">
  <ele>528.76</ele>
  <time>2026-09-01T20:00:47Z</time>
  <course>73.08</course>
  <speed>6.520628804034163</speed>
  <fix>3d</fix>
</trkpt>
<trkpt lat="-27.2481096" lon="151.3567545">
  <ele>521.95</ele>
  <time>2026-09-01T20:00:47Z</time>
  <course>246.08</course>
  <speed>5.25</speed>
  <fix>3d</fix>
</trkpt>
<trkpt lat="-27.2481066" lon="151.3567617">
  <ele>530.57</ele>
  <time>2026-09-01T20:00:47Z</time>
  <course>84.98</course>
  <speed>8.233832643429182</speed>
  <fix>3d</fix>
</trkpt>
<trkpt lat="-27.2481097" lon="151.3567519">
  <ele>526.52</ele>
  <time>2026-09-01T20:00:47Z</time>
  <course>58.03</course>
  <speed>2.5</speed>
  <fix>3d</fix>
</trkpt>
<trkpt lat="-27.2481063" lon="151.3567704">
  <ele>532.18</ele>
  <time>2026-09-01T20:00:47Z</time>
  <course>96.77</course>
  <speed>9.04677290529612</speed>
  <fix>3d</fix>
</trkpt>
<trkpt lat="-27.2481097" lon="151.3567519">
  <ele>526.52</ele>
  <time>2026-09-01T20:00:47Z</time>
  <course>58.03</course>
  <speed>2.5</speed>
  <fix>3d</fix>
</trkpt>
<trkpt lat="-27.2481073" lon="151.3567798">
  <ele>533.64</ele>
  <time>2026-09-01T20:00:47Z</time>
  <course>108.76</course>
  <speed>9.460655368419252</speed>
  <fix>3d</fix>
</trkpt>
<trkpt lat="-27.2481071" lon="151.356762">
  <ele>530.39</ele>
  <time>2026-09-01T20:00:47Z</time>
  <course>83.11</course>
  <speed>7.58</speed>
  <fix>3d</fix>
</trkpt>
<trkpt lat="-27.2481096" lon="151.356789">
  <ele>534.96</ele>
  <time>2026-09-01T20:00:47Z</time>
  <course>119.75</course>
  <speed>9.564705954706605</speed>
  <fix>3d</fix>
</trkpt>
<trkpt lat="-27.2481071" lon="151.356762">
  <ele>530.39</ele>
  <time>2026-09-01T20:00:47Z</time>
  <course>83.11</course>
  <speed>7.58</speed>
  <fix>3d</fix>
</trkpt>
<trkpt lat="-27.2481132" lon="151.3567976">
  <ele>536.15</ele>
  <time>2026-09-01T20:00:47Z</time>
  <course>128.76</course>
  <speed>9.400813794560554</speed>
  <fix>3d</fix>
</trkpt>
<trkpt lat="-27.2481079" lon="151.3567793">
  <ele>533.5</ele>
  <time>2026-09-01T20:00:47Z</time>
  <course>101.34</course>
  <speed>9.17</speed>
  <fix>3d</fix>
</trkpt>
<trkpt lat="-27.2481179" lon="151.3568053">
  <ele>537.24</ele>
  <time>2026-09-01T20:00:47Z</time>
  <course>133.57</course>
  <speed>9.046037806686417</speed>
  <fix>3d</fix>
</trkpt>
<trkpt lat="-27.2481079" lon="151.3567793">
  <ele>533.5</ele>
  <time>2026-09-01T20:00:47Z</time>
  <course>101.34</course>
  <speed>9.17</speed>
  <fix>3d</fix>
</trkpt>
<trkpt lat="-27.2481231" lon="151.3568122">
  <ele>538.24</ele>
  <time>2026-09-01T20:00:47Z</time>
  <course>132.44</course>
  <speed>8.651456524770843</speed>
  <fix>3d</fix>
</trkpt>
<trkpt lat="-27.2481135" lon="151.3567968">
  <ele>536.03</ele>
  <time>2026-09-01T20:00:47Z</time>
  <course>118.82</course>
  <speed>9.21</speed>
  <fix>3d</fix>
</trkpt>
<trkpt lat="-27.2481285" lon="151.3568182">
  <ele>539.16</ele>
  <time>2026-09-01T20:00:47Z</time>
  <course>127.95</course>
  <speed>8.351173570223528</speed>
  <fix>3d</fix>
</trkpt>
<trkpt lat="-27.2481135" lon="151.3567968">
  <ele>536.03</ele>
  <time>2026-09-01T20:00:47Z</time>
  <course>118.82</course>
  <speed>9.21</speed>
  <fix>3d</fix>
</trkpt>
<trkpt lat="-27.2481338" lon="151.356824">
  <ele>539.99</ele>
  <time>2026-09-01T20:00:47Z</time>
  <course>124.79</course>
  <speed>8.230917324332689</speed>
  <fix>3d</fix>
</trkpt>
<trkpt lat="-27.2481229" lon="151.3568115">
  <ele>538.15</ele>
  <time>2026-09-01T20:00:47Z</time>
  <course>131.43</course>
  <speed>8.7</speed>
  <fix>3d</fix>
</trkpt>
<trkpt lat="-27.248139" lon="151.35683">
  <ele>540.72</ele>
  <time>2026-09-01T20:00:47Z</time>
  <course>124.44</course>
  <speed>8.23794270434069</speed>
  <fix>3d</fix>
</trkpt>
<trkpt lat="-27.2481229" lon="151.3568115">
  <ele>538.15</ele>
  <time>2026-09-01T20:00:47Z</time>
  <course>131.43</course>
  <speed>8.7</speed>
  <fix>3d</fix>
</trkpt>
<trkpt lat="-27.2481443" lon="151.3568359">
  <ele>541.33</ele>
  <time>2026-09-01T20:00:47Z</time>
  <course>126.07</course>
  <speed>8.302409288875127</speed>
  <fix>3d</fix>
</trkpt>
<trkpt lat="-27.2481335" lon="151.3568238">
  <ele>539.9</ele>
  <time>2026-09-01T20:00:47Z</time>
  <course>135.05</course>
  <speed>8.3</speed>
  <fix>3d</fix>
</trkpt>
<trkpt lat="-27.2481495" lon="151.3568421">
  <ele>541.82</ele>
  <time>2026-09-01T20:00:47Z</time>
  <course>128.8</course>
  <speed>8.35944974265651</speed>
  <fix>3d</fix>
</trkpt>
<trkpt lat="-27.2481335" lon="151.3568238">
  <ele>539.9</ele>
  <time>2026-09-01T20:00:47Z</time>
  <course>135.05</course>
  <speed>8.3</speed>
  <fix>3d</fix>
</trkpt>
<trkpt lat="-27.2481547" lon="151.3568482">
  <ele>542.19</ele>
  <time>2026-09-01T20:00:47Z</time>
  <course>132.14</course>
  <speed>8.401618891618448</speed>
  <fix>3d</fix>
</trkpt>
<trkpt lat="-27.248144" lon="151.3568356">
  <ele>541.24</ele>
  <time>2026-09-01T20:00:47Z</time>
  <course>134.31</course>
  <speed>8.3</speed>
  <fix>3d</fix>
</trkpt>
<trkpt lat="-27.24816" lon="151.3568542">
  <ele>542.45</ele>
  <time>2026-09-01T20:00:47Z</time>
  <course>135.77</course>
  <speed>8.408168647214445</speed>
  <fix>3d</fix>
</trkpt>
<trkpt lat="-27.248144" lon="151.3568356">
  <ele>541.24</ele>
  <time>2026-09-01T20:00:47Z</time>
  <course>134.31</course>
  <speed>8.3</speed>
  <fix>3d</fix>
</trkpt>
<trkpt lat="-27.2481652" lon="151.3568603">
  <ele>542.59</ele>
  <time>2026-09-01T20:00:47Z</time>
  <course>139.43</course>
  <speed>8.3864772103667</speed>
  <fix>3d</fix>
</trkpt>
<trkpt lat="-27.2481544" lon="151.3568478">
  <ele>542.12</ele>
  <time>2026-09-01T20:00:47Z</time>
  <course>134.1</course>
  <speed>8.38</speed>
  <fix>3d</fix>
</trkpt>
<trkpt lat="-27.2481705" lon="151.3568664">
  <ele>542.61</ele>
  <time>2026-09-01T20:00:47Z</time>
  <course>142.92</course>
  <speed>8.34387200285335</speed>
  <fix>3d</fix>
</trkpt>
<trkpt lat="-27.2481544" lon="151.3568478">
  <ele>542.12</ele>
  <time>2026-09-01T20:00:47Z</time>
  <course>134.1</course>
  <speed>8.38</speed>
  <fix>3d</fix>
</trkpt>
<trkpt lat="-27.2481759" lon="151.3568723">
  <ele>542.53</ele>
  <time>2026-09-01T20:00:47Z</time>
  <course>145.82</course>
  <speed>8.29472724084403</speed>
  <fix>3d</fix>
</trkpt>
<trkpt lat="-27.2481649" lon="151.3568599">
  <ele>542.52</ele>
  <time>2026-09-01T20:00:47Z</time>
  <course>134.66</course>
  <speed>8.38</speed>
  <fix>3d</fix>
</trkpt>
<trkpt lat="-27.2481812" lon="151.3568781">
  <ele>542.34</ele>
  <time>2026-09-01T20:00:47Z</time>
  <course>147.66</course>
  <speed>8.245847439772337</speed>
  <fix>3d</fix>
</trkpt>
<trkpt lat="-27.2481649" lon="151.3568599">
  <ele>542.52</ele>
  <time>2026-09-01T20:00:47Z</time>
  <course>134.66</course>
  <speed>8.38</speed>
  <fix>3d</fix>
</trkpt>
<trkpt lat="-27.2481865" lon="151.3568838">
  <ele>542.06</ele>
  <time>2026-09-01T20:00:47Z</time>
  <course>148.21</course>
  <speed>8.232192903473534</speed>
  <fix>3d</fix>
</trkpt>
<trkpt lat="-27.2481755" lon="151.3568719">
  <ele>542.48</ele>
  <time>2026-09-01T20:00:47Z</time>
  <course>135.48</course>
  <speed>8.3</speed>
  <fix>3d</fix>
</trkpt>
<trkpt lat="-27.2481918" lon="151.3568896">
  <ele>541.7</ele>
  <time>2026-09-01T20:00:47Z</time>
  <course>147.65</course>
  <speed>8.281817433389847</speed>
  <fix>3d</fix>
</trkpt>
<trkpt lat="-27.2481755" lon="151.3568719">
  <ele>542.48</ele>
  <time>2026-09-01T20:00:47Z</time>
  <course>135.48</course>
  <speed>8.3</speed>
  <fix>3d</fix>
</trkpt>
<trkpt lat="-27.2481973" lon="151.3568955">
  <ele>541.28</ele>
  <time>2026-09-01T20:00:47Z</time>
  <course>146.35</course>
  <speed>8.423805553311402</speed>
  <fix>3d</fix>
</trkpt>
<trkpt lat="-27.2481862" lon="151.3568836">
  <ele>542.03</ele>
  <time>2026-09-01T20:00:47Z</time>
  <course>136.01</course>
  <speed>8.26</speed>
  <fix>3d</fix>
</trkpt>
<trkpt lat="-27.2482028" lon="151.3569014">
  <ele>540.82</ele>
  <time>2026-09-01T20:00:47Z</time>
  <course>144.63</course>
  <speed>8.644593686229562</speed>
  <fix>3d</fix>
</trkpt>
<trkpt lat="-27.2481862" lon="151.3568836">
  <ele>542.03</ele>
  <time>2026-09-01T20:00:47Z</time>
  <course>136.01</course>
  <speed>8.26</speed>
  <fix>3d</fix>
</trkpt>
<trkpt lat="-27.2482086" lon="151.3569075">
  <ele>540.32</ele>
  <time>2026-09-01T20:00:47Z</time>
  <course>142.73</course>
  <speed>8.917129582999229</speed>
  <fix>3d</fix>
</trkpt>
<trkpt lat="-27.248197" lon="151.3568952">
  <ele>541.28</ele>
  <time>2026-09-01T20:00:47Z</time>
  <course>136.39</course>
  <speed>8.45</speed>
  <fix>3d</fix>
</trkpt>
<trkpt lat="-27.2482146" lon="151.3569135">
  <ele>539.79</ele>
  <time>2026-09-01T20:00:47Z</time>
  <course>140.83</course>
  <speed>9.206475981612074</speed>
  <fix>3d</fix>
</trkpt>
<trkpt lat="-27.248197" lon="151.3568952">
  <ele>541.28</ele>
  <time>2026-09-01T20:00:47Z</time>
  <course>136.39</course>
  <speed>8.45</speed>
  <fix>3d</fix>
</trkpt>
<trkpt lat="-27.2482209" lon="151.3569198">
  <ele>539.25</ele>
  <time>2026-09-01T20:00:47Z</time>
  <course>139.11</course>
  <speed>9.51262319236918</speed>
  <fix>3d</fix>
</trkpt>
<trkpt lat="-27.2482083" lon="151.3569072">
  <ele>540.33</ele>
  <time>2026-09-01T20:00:47Z</time>
  <course>137.43</course>
  <speed>8.91</speed>
  <fix>3d</fix>
</trkpt>
<trkpt lat="-27.2482275" lon="151.3569263">
  <ele>538.68</ele>
  <time>2026-09-01T20:00:47Z</time>
  <course>137.76</course>
  <speed>9.832446287674294</speed>
  <fix>3d</fix>
</trkpt>
<trkpt lat="-27.2482083" lon="151.3569072">
  <ele>540.33</ele>
  <time>2026-09-01T20:00:47Z</time>
  <course>137.43</course>
  <speed>8.91</speed>
  <fix>3d</fix>
</trkpt>
<trkpt lat="-27.2482344" lon="151.3569327">
  <ele>538.09</ele>
  <time>2026-09-01T20:00:47Z</time>
  <course>136.88</course>
  <speed>10.157228952819759</speed>
  <fix>3d</fix>
</trkpt>
<trkpt lat="-27.2482207" lon="151.3569196">
  <ele>539.27</ele>
  <time>2026-09-01T20:00:47Z</time>
  <course>138.9</course>
  <speed>9.5</speed>
  <fix>3d</fix>
</trkpt>
<trkpt lat="-27.2482415" lon="151.3569394">
  <ele>537.48</ele>
  <time>2026-09-01T20:00:47Z</time>
  <course>136.5</course>
  <speed>10.511902777328185</speed>
  <fix>3d</fix>
</trkpt>
<trkpt lat="-27.2482207" lon="151.3569196">
  <ele>539.27</ele>
  <time>2026-09-01T20:00:47Z</time>
  <course>138.9</course>
  <speed>9.5</speed>
  <fix>3d</fix>
</trkpt>
<trkpt lat="-27.2482488" lon="151.3569465">
  <ele>536.86</ele>
  <time>2026-09-01T20:00:47Z</time>
  <course>136.54</course>
  <speed>10.869452608112333</speed>
  <fix>3d</fix>
</trkpt>
<trkpt lat="-27.2482341" lon="151.3569325">
  <ele>538.11</ele>
  <time>2026-09-01T20:00:47Z</time>
  <course>139.79</course>
  <speed>10.15</speed>
  <fix>3d</fix>
</trkpt>
<trkpt lat="-27.2482564" lon="151.3569537">
  <ele>536.24</ele>
  <time>2026-09-01T20:00:47Z</time>
  <course>136.87</course>
  <speed>11.258774356030056</speed>
  <fix>3d</fix>
</trkpt>
<trkpt lat="-27.2482341" lon="151.3569325">
  <ele>538.11</ele>
  <time>2026-09-01T20:00:47Z</time>
  <course>139.79</course>
  <speed>10.15</speed>
  <fix>3d</fix>
</trkpt>
<trkpt lat="-27.2482641" lon="151.3569613">
  <ele>535.62</ele>
  <time>2026-09-01T20:00:47Z</time>
  <course>137.34</course>
  <speed>11.639695013186556</speed>
  <fix>3d</fix>
</trkpt>
<trkpt lat="-27.2482485" lon="151.3569463">
  <ele>536.89</ele>
  <time>2026-09-01T20:00:47Z</time>
  <course>139.58</course>
  <speed>10.86</speed>
  <fix>3d</fix>
</trkpt>
<trkpt lat="-27.2482721" lon="151.3569693">
  <ele>535.0</ele>
  <time>2026-09-01T20:00:47Z</time>
  <course>137.82</course>
  <speed>12.014645229885069</speed>
  <fix>3d</fix>
</trkpt>
<trkpt lat="-27.2482485" lon="151.3569463">
  <ele>536.89</ele>
  <time>2026-09-01T20:00:47Z</time>
  <course>139.58</course>
  <speed>10.86</speed>
  <fix>3d</fix>
</trkpt>
<trkpt lat="-27.2482801" lon="151.3569776">
  <ele>534.4</ele>
  <time>2026-09-01T20:00:47Z</time>
  <course>138.19</course>
  <speed>12.392195124351456</speed>
  <fix>3d</fix>
</trkpt>
<trkpt lat="-27.2482638" lon="151.3569611">
  <ele>535.65</ele>
  <time>2026-09-01T20:00:47Z</time>
  <course>138.53</course>
  <speed>11.62</speed>
  <fix>3d</fix>
</trkpt>
<trkpt lat="-27.2482884" lon="151.3569863">
  <ele>533.82</ele>
  <time>2026-09-01T20:00:47Z</time>
  <course>138.42</course>
  <speed>12.757417450252227</speed>
  <fix>3d</fix>
</trkpt>
<trkpt lat="-27.2482638" lon="151.3569611">
  <ele>535.65</ele>
  <time>2026-09-01T20:00:47Z</time>
  <course>138.53</course>
  <speed>11.62</speed>
  <fix>3d</fix>
</trkpt>
<trkpt lat="-27.2482969" lon="151.3569952">
  <ele>533.26</ele>
  <time>2026-09-01T20:00:47Z</time>
  <course>138.49</course>
  <speed>13.103434664239753</speed>
  <fix>3d</fix>
</trkpt>
<trkpt lat="-27.2482798" lon="151.3569773">
  <ele>534.44</ele>
  <time>2026-09-01T20:00:47Z</time>
  <course>137.47</course>
  <speed>12.37</speed>
  <fix>3d</fix>
</trkpt>
<trkpt lat="-27.2483057" lon="151.3570043">
  <ele>532.72</ele>
  <time>2026-09-01T20:00:47Z</time>
  <course>138.44</course>
  <speed>13.423207515344462</speed>
  <fix>3d</fix>
</trkpt>
<trkpt lat="-27.2482798" lon="151.3569773">
  <ele>534.44</ele>
  <time>2026-09-01T20:00:47Z</time>
  <course>137.47</course>
  <speed>12.37</speed>
  <fix>3d</fix>
</trkpt>
<trkpt lat="-27.2483146" lon="151.3570135">
  <ele>532.23</ele>
  <time>2026-09-01T20:00:47Z</time>
  <course>138.31</course>
  <speed>13.715990667830013</speed>
  <fix>3d</fix>
</trkpt>
<trkpt lat="-27.2482966" lon="151.3569948">
  <ele>533.3</ele>
  <time>2026-09-01T20:00:47Z</time>
  <course>137.09</course>
  <speed>13.08</speed>
  <fix>3d</fix>
</trkpt>
<trkpt lat="-27.2483238" lon="151.357023">
  <ele>531.77</ele>
  <time>2026-09-01T20:00:47Z</time>
  <course>138.15</course>
  <speed>13.968067153332274</speed>
  <fix>3d</fix>
</trkpt>
<trkpt lat="-27.2482966" lon="151.3569948">
  <ele>533.3</ele>
  <time>2026-09-01T20:00:47Z</time>
  <course>137.09</course>
  <speed>13.08</speed>
  <fix>3d</fix>
</trkpt>
<trkpt lat="-27.2483333" lon="151.3570326">
  <ele>531.34</ele>
  <time>2026-09-01T20:00:47Z</time>
  <course>138.0</course>
  <speed>14.185080190115247</speed>
  <fix>3d</fix>
</trkpt>
<trkpt lat="-27.2483143" lon="151.3570133">
  <ele>532.26</ele>
  <time>2026-09-01T20:00:47Z</time>
  <course>137.46</course>
  <speed>13.69</speed>
  <fix>3d</fix>
</trkpt>
<trkpt lat="-27.2483429" lon="151.3570422">
  <ele>530.96</ele>
  <time>2026-09-01T20:00:47Z</time>
  <course>137.88</course>
  <speed>14.351933667628204</speed>
  <fix>3d</fix>
</trkpt>
<trkpt lat="-27.2483143" lon="151.3570133">
  <ele>532.26</ele>
  <time>2026-09-01T20:00:47Z</time>
  <course>137.46</course>
  <speed>13.69</speed>
  <fix>3d</fix>
</trkpt>
<trkpt lat="-27.2483526" lon="151.3570518">
  <ele>530.62</ele>
  <time>2026-09-01T20:00:47Z</time>
  <course>137.81</course>
  <speed>14.48157450003279</speed>
  <fix>3d</fix>
</trkpt>
<trkpt lat="-27.2483329" lon="151.3570322">
  <ele>531.38</ele>
  <time>2026-09-01T20:00:47Z</time>
  <course>138.11</course>
  <speed>14.15</speed>
  <fix>3d</fix>
</trkpt>
<trkpt lat="-27.2483624" lon="151.3570615">
  <ele>530.33</ele>
  <time>2026-09-01T20:00:47Z</time>
  <course>137.8</course>
  <speed>14.5737606677206</speed>
  <fix>3d</fix>
</trkpt>
<trkpt lat="-27.2483329" lon="151.3570322">
  <ele>531.38</ele>
  <time>2026-09-01T20:00:47Z</time>
  <course>138.11</course>
  <speed>14.15</speed>
  <fix>3d</fix>
</trkpt>
<trkpt lat="-27.2483722" lon="151.3570714">
  <ele>530.06</ele>
  <time>2026-09-01T20:00:47Z</time>
  <course>137.87</course>
  <speed>14.614366219579965</speed>
  <fix>3d</fix>
</trkpt>
<trkpt lat="-27.2483521" lon="151.3570514">
  <ele>530.66</ele>
  <time>2026-09-01T20:00:47Z</time>
  <course>138.5</course>
  <speed>14.46</speed>
  <fix>3d</fix>
</trkpt>
<trkpt lat="-27.248382" lon="151.3570811">
  <ele>529.82</ele>
  <time>2026-09-01T20:00:47Z</time>
  <course>137.99</course>
  <speed>14.633447987402013</speed>
  <fix>3d</fix>
</trkpt>
<trkpt lat="-27.2483521" lon="151.3570514">
  <ele>530.66</ele>
  <time>2026-09-01T20:00:47Z</time>
  <course>138.5</course>
  <speed>14.46</speed>
  <fix>3d</fix>
</trkpt>
<trkpt lat="-27.2483918" lon="151.357091">
  <ele>529.6</ele>
  <time>2026-09-01T20:00:47Z</time>
  <course>138.14</course>
  <speed>14.637721817277441</speed>
  <fix>3d</fix>
</trkpt>
<trkpt lat="-27.2483717" lon="151.3570709">
  <ele>530.09</ele>
  <time>2026-09-01T20:00:47Z</time>
  <course>138.44</course>
  <speed>14.6</speed>
  <fix>3d</fix>
</trkpt>
<trkpt lat="-27.2484016" lon="151.3571009">
  <ele>529.37</ele>
  <time>2026-09-01T20:00:47Z</time>
  <course>138.26</course>
  <speed>14.628773017584216</speed>
  <fix>3d</fix>
</trkpt>
<trkpt lat="-27.2483717" lon="151.3570709">
  <ele>530.09</ele>
  <time>2026-09-01T20:00:47Z</time>
  <course>138.44</course>
  <speed>14.6</speed>
  <fix>3d</fix>
</trkpt>
<trkpt lat="-27.2484113" lon="151.3571107">
  <ele>529.15</ele>
  <time>2026-09-01T20:00:47Z</time>
  <course>138.34</course>
  <speed>14.61319951276927</speed>
  <fix>3d</fix>
</trkpt>
<trkpt lat="-27.2483913" lon="151.3570905">
  <ele>529.61</ele>
  <time>2026-09-01T20:00:47Z</time>
  <course>138.15</course>
  <speed>14.63</speed>
  <fix>3d</fix>
</trkpt>
<trkpt lat="-27.2484211" lon="151.3571207">
  <ele>528.94</ele>
  <time>2026-09-01T20:00:47Z</time>
  <course>138.36</course>
  <speed>14.612494653549065</speed>
  <fix>3d</fix>
</trkpt>
<trkpt lat="-27.2483913" lon="151.3570905">
  <ele>529.61</ele>
  <time>2026-09-01T20:00:47Z</time>
  <course>138.15</course>
  <speed>14.63</speed>
  <fix>3d</fix>
</trkpt>
<trkpt lat="-27.2484308" lon="151.3571306">
  <ele>528.73</ele>
  <time>2026-09-01T20:00:47Z</time>
  <course>138.32</course>
  <speed>14.598369771998517</speed>
  <fix>3d</fix>
</trkpt>
<trkpt lat="-27.2484108" lon="151.3571102">
  <ele>529.16</ele>
  <time>2026-09-01T20:00:47Z</time>
  <course>137.91</course>
  <speed>14.62</speed>
  <fix>3d</fix>
</trkpt>
<trkpt lat="-27.2484405" lon="151.3571404">
  <ele>528.52</ele>
  <time>2026-09-01T20:00:47Z</time>
  <course>138.22</course>
  <speed>14.584951148358366</speed>
  <fix>3d</fix>
</trkpt>
<trkpt lat="-27.2484108" lon="151.3571102">
  <ele>529.16</ele>
  <time>2026-09-01T20:00:47Z</time>
  <course>137.91</course>
  <speed>14.62</speed>
  <fix>3d</fix>
</trkpt>
<trkpt lat="-27.2466248" lon="151.3611492">
  <ele>539.56</ele>
  <time>2026-09-01T20:00:47Z</time>
  <course>253.9</course>
  <speed>11.089030615883427</speed>
  <fix>3d</fix>
</trkpt>
<trkpt lat="-27.2484303" lon="151.3571301">
  <ele>528.74</ele>
  <time>2026-09-01T20:00:47Z</time>
  <course>137.86</course>
  <speed>14.6</speed>
  <fix>3d</fix>
</trkpt>
<trkpt lat="-27.2466263" lon="151.3611387">
  <ele>535.68</ele>
  <time>2026-09-01T20:00:47Z</time>
  <course>245.98</course>
  <speed>10.501947438451593</speed>
  <fix>3d</fix>
</trkpt>
<trkpt lat="-27.2484303" lon="151.3571301">
  <ele>528.74</ele>
  <time>2026-09-01T20:00:47Z</time>
  <course>137.86</course>
  <speed>14.6</speed>
  <fix>3d</fix>
</trkpt>
<trkpt lat="-27.2466291" lon="151.3611281">
  <ele>531.82</ele>
  <time>2026-09-01T20:00:47Z</time>
  <course>226.47</course>
  <speed>11.320159009483922</speed>
  <fix>3d</fix>
</trkpt>
<trkpt lat="-27.2475331" lon="151.3591396">
  <ele>532.2</ele>
  <time>2026-09-01T20:00:47Z</time>
  <course>182.51</course>
  <speed>6.27</speed>
  <fix>3d</fix>
</trkpt>
<trkpt lat="-27.2466354" lon="151.3611187">
  <ele>528.0</ele>
  <time>2026-09-01T20:00:47Z</time>
  <course>201.61</course>
  <speed>12.093047589420955</speed>
  <fix>3d</fix>
</trkpt>
<trkpt lat="-27.2475331" lon="151.3591396">
  <ele>532.2</ele>
  <time>2026-09-01T20:00:47Z</time>
  <course>182.51</course>
  <speed>6.27</speed>
  <fix>3d</fix>
</trkpt>
<trkpt lat="-27.2466449" lon="151.3611125">
  <ele>524.21</ele>
  <time>2026-09-01T20:00:47Z</time>
  <course>180.94</course>
  <speed>12.416964202251693</speed>
  <fix>3d</fix>
</trkpt>
<trkpt lat="-27.2466305" lon="151.3611291">
  <ele>532.03</ele>
  <time>2026-09-01T20:00:47Z</time>
  <course>239.97</course>
  <speed>10.64</speed>
  <fix>3d</fix>
</trkpt>
<trkpt lat="-27.2466558" lon="151.36111">
  <ele>520.44</ele>
  <time>2026-09-01T20:00:47Z</time>
  <course>168.92</course>
  <speed>12.282051945827293</speed>
  <fix>3d</fix>
</trkpt>
<trkpt lat="-27.2466305" lon="151.3611291">
  <ele>532.03</ele>
  <time>2026-09-01T20:00:47Z</time>
  <course>239.97</course>
  <speed>10.64</speed>
  <fix>3d</fix>
</trkpt>
<trkpt lat="-27.2466673" lon="151.3611073">
  <ele>516.71</ele>
  <time>2026-09-01T20:00:47Z</time>
  <course>187.55</course>
  <speed>15.029065173855624</speed>
  <fix>3d</fix>
</trkpt>
<trkpt lat="-27.2466451" lon="151.3611146">
  <ele>524.41</ele>
  <time>2026-09-01T20:00:47Z</time>
  <course>204.73</course>
  <speed>11.63</speed>
  <fix>3d</fix>
</trkpt>
<trkpt lat="-27.2466823" lon="151.3610986">
  <ele>513.29</ele>
  <time>2026-09-01T20:00:47Z</time>
  <course>202.36</course>
  <speed>23.17930542531419</speed>
  <fix>3d</fix>
</trkpt>
<trkpt lat="-27.2466451" lon="151.3611146">
  <ele>524.41</ele>
  <time>2026-09-01T20:00:47Z</time>
  <course>204.73</course>
  <speed>11.63</speed>
  <fix>3d</fix>
</trkpt>
<trkpt lat="-27.2467024" lon="151.3610831">
  <ele>510.61</ele>
  <time>2026-09-01T20:00:47Z</time>
  <course>210.26</course>
  <speed>30.447594322047845</speed>
  <fix>3d</fix>
</trkpt>
<trkpt lat="-27.2466684" lon="151.3611045">
  <ele>517.03</ele>
  <time>2026-09-01T20:00:47Z</time>
  <course>203.54</course>
  <speed>17.2</speed>
  <fix>3d</fix>
</trkpt>
<trkpt lat="-27.246726" lon="151.3610636">
  <ele>508.84</ele>
  <time>2026-09-01T20:00:47Z</time>
  <course>214.44</course>
  <speed>34.35239147424819</speed>
  <fix>3d</fix>
</trkpt>
<trkpt lat="-27.2466684" lon="151.3611045">
  <ele>517.03</ele>
  <time>2026-09-01T20:00:47Z</time>
  <course>203.54</course>
  <speed>17.2</speed>
  <fix>3d</fix>
</trkpt>
<trkpt lat="-27.2467513" lon="151.3610424">
  <ele>508.01</ele>
  <time>2026-09-01T20:00:47Z</time>
  <course>216.18</course>
  <speed>35.368077414527356</speed>
  <fix>3d</fix>
</trkpt>
<trkpt lat="-27.2467033" lon="151.3610818">
  <ele>511.16</ele>
  <time>2026-09-01T20:00:47Z</time>
  <course>214.75</course>
  <speed>28.52</speed>
  <fix>3d</fix>
</trkpt>
<trkpt lat="-27.2467763" lon="151.3610211">
  <ele>508.02</ele>
  <time>2026-09-01T20:00:47Z</time>
  <course>216.63</course>
  <speed>34.20014619851792</speed>
  <fix>3d</fix>
</trkpt>
<trkpt lat="-27.2467033" lon="151.3610818">
  <ele>511.16</ele>
  <time>2026-09-01T20:00:47Z</time>
  <course>214.75</course>
  <speed>28.52</speed>
  <fix>3d</fix>
</trkpt>
<trkpt lat="-27.2468001" lon="151.3610009">
  <ele>508.67</ele>
  <time>2026-09-01T20:00:47Z</time>
  <course>216.94</course>
  <speed>32.08248275928782</speed>
  <fix>3d</fix>
</trkpt>
<trkpt lat="-27.2467501" lon="151.3610432">
  <ele>508.45</ele>
  <time>2026-09-01T20:00:47Z</time>
  <course>216.8</course>
  <speed>34.26</speed>
  <fix>3d</fix>
</trkpt>
<trkpt lat="-27.2468222" lon="151.3609818">
  <ele>509.72</ele>
  <time>2026-09-01T20:00:47Z</time>
  <course>217.55</course>
  <speed>29.985778295718788</speed>
  <fix>3d</fix>
</trkpt>
<trkpt lat="-27.2467501" lon="151.3610432">
  <ele>508.45</ele>
  <time>2026-09-01T20:00:47Z</time>
  <course>216.8</course>
  <speed>34.26</speed>
  <fix>3d</fix>
</trkpt>
<trkpt lat="-27.2468427" lon="151.3609636">
  <ele>510.97</ele>
  <time>2026-09-01T20:00:47Z</time>
  <course>218.11</course>
  <speed>28.393951820766336</speed>
  <fix>3d</fix>
</trkpt>
<trkpt lat="-27.2467983" lon="151.3610023">
  <ele>508.84</ele>
  <time>2026-09-01T20:00:47Z</time>
  <course>217.37</course>
  <speed>32.17</speed>
  <fix>3d</fix>
</trkpt>
<trkpt lat="-27.2468621" lon="151.3609459">
  <ele>512.28</ele>
  <time>2026-09-01T20:00:47Z</time>
  <course>218.41</course>
  <speed>27.268681669637058</speed>
  <fix>3d</fix>
</trkpt>
<trkpt lat="-27.2467983" lon="151.3610023">
  <ele>508.84</ele>
  <time>2026-09-01T20:00:47Z</time>
  <course>217.37</course>
  <speed>32.17</speed>
  <fix>3d</fix>
</trkpt>
<trkpt lat="-27.2468808" lon="151.3609286">
  <ele>513.58</ele>
  <time>2026-09-01T20:00:47Z</time>
  <course>218.57</course>
  <speed>26.42942488969444</speed>
  <fix>3d</fix>
</trkpt>
<trkpt lat="-27.2468413" lon="151.3609647">
  <ele>510.94</ele>
  <time>2026-09-01T20:00:47Z</time>
  <course>218.53</course>
  <speed>28.69</speed>
  <fix>3d</fix>
</trkpt>
<trkpt lat="-27.2468987" lon="151.3609115">
  <ele>514.83</ele>
  <time>2026-09-01T20:00:47Z</time>
  <course>218.74</course>
  <speed>25.736101103314</speed>
  <fix>3d</fix>
</trkpt>
<trkpt lat="-27.2468413" lon="151.3609647">
  <ele>510.94</ele>
  <time>2026-09-01T20:00:47Z</time>
  <course>218.53</course>
  <speed>28.69</speed>
  <fix>3d</fix>
</trkpt>
<trkpt lat="-27.2469161" lon="151.360895">
  <ele>516.01</ele>
  <time>2026-09-01T20:00:47Z</time>
  <course>219.02</course>
  <speed>25.126101965884004</speed>
  <fix>3d</fix>
</trkpt>
<trkpt lat="-27.2468795" lon="151.3609295">
  <ele>513.49</ele>
  <time>2026-09-01T20:00:47Z</time>
  <course>219.78</course>
  <speed>26.54</speed>
  <fix>3d</fix>
</trkpt>
<trkpt lat="-27.2469331" lon="151.3608787">
  <ele>517.12</ele>
  <time>2026-09-01T20:00:47Z</time>
  <course>219.4</course>
  <speed>24.525076962162625</speed>
  <fix>3d</fix>
</trkpt>
<trkpt lat="-27.2468795" lon="151.3609295">
  <ele>513.49</ele>
  <time>2026-09-01T20:00:47Z</time>
  <course>219.78</course>
  <speed>26.54</speed>
  <fix>3d</fix>
</trkpt>
<trkpt lat="-27.2469496" lon="151.3608626">
  <ele>518.16</ele>
  <time>2026-09-01T20:00:47Z</time>
  <course>219.8</course>
  <speed>23.915612055726278</speed>
  <fix>3d</fix>
</trkpt>
<trkpt lat="-27.246915" lon="151.3608959">
  <ele>515.91</ele>
  <time>2026-09-01T20:00:47Z</time>
  <course>220.38</course>
  <speed>25.16</speed>
  <fix>3d</fix>
</trkpt>
<trkpt lat="-27.2469656" lon="151.3608471">
  <ele>519.16</ele>
  <time>2026-09-01T20:00:47Z</time>
  <course>220.18</course>
  <speed>23.29237643522017</speed>
  <fix>3d</fix>
</trkpt>
<trkpt lat="-27.246915" lon="151.3608959">
  <ele>515.91</ele>
  <time>2026-09-01T20:00:47Z</time>
  <course>220.38</course>
  <speed>25.16</speed>
  <fix>3d</fix>
</trkpt>
<trkpt lat="-27.2469812" lon="151.3608319">
  <ele>520.13</ele>
  <time>2026-09-01T20:00:47Z</time>
  <course>220.55</course>
  <speed>22.640346728793713</speed>
  <fix>3d</fix>
</trkpt>
<trkpt lat="-27.2469485" lon="151.3608636">
  <ele>518.08</ele>
  <time>2026-09-01T20:00:47Z</time>
  <course>220.77</course>
  <speed>23.94</speed>
  <fix>3d</fix>
</trkpt>
<trkpt lat="-27.2469962" lon="151.360817">
  <ele>521.06</ele>
  <time>2026-09-01T20:00:47Z</time>
  <course>220.92</course>
  <speed>21.960582870224552</speed>
  <fix>3d</fix>
</trkpt>
<trkpt lat="-27.2469485" lon="151.3608636">
  <ele>518.08</ele>
  <time>2026-09-01T20:00:47Z</time>
  <course>220.77</course>
  <speed>23.94</speed>
  <fix>3d</fix>
</trkpt>
<trkpt lat="-27.2470107" lon="151.3608025">
  <ele>521.97</ele>
  <time>2026-09-01T20:00:47Z</time>
  <course>221.28</course>
  <speed>21.26722595920775</speed>
  <fix>3d</fix>
</trkpt>
<trkpt lat="-27.2469801" lon="151.3608327">
  <ele>520.06</ele>
  <time>2026-09-01T20:00:47Z</time>
  <course>221.24</course>
  <speed>22.66</speed>
  <fix>3d</fix>
</trkpt>
<trkpt lat="-27.2470246" lon="151.3607883">
  <ele>522.88</ele>
  <time>2026-09-01T20:00:47Z</time>
  <course>221.63</course>
  <speed>20.54619186126714</speed>
  <fix>3d</fix>
</trkpt>
<trkpt lat="-27.2469801" lon="151.3608327">
  <ele>520.06</ele>
  <time>2026-09-01T20:00:47Z</time>
  <course>221.24</course>
  <speed>22.66</speed>
  <fix>3d</fix>
</trkpt>
<trkpt lat="-27.247038" lon="151.3607745">
  <ele>523.77</ele>
  <time>2026-09-01T20:00:47Z</time>
  <course>221.99</course>
  <speed>19.811645565172014</speed>
  <fix>3d</fix>
</trkpt>
<trkpt lat="-27.2470097" lon="151.3608033">
  <ele>521.92</ele>
  <time>2026-09-01T20:00:47Z</time>
  <course>221.8</course>
  <speed>21.29</speed>
  <fix>3d</fix>
</trkpt>
<trkpt lat="-27.2470509" lon="151.3607613">
  <ele>524.66</ele>
  <time>2026-09-01T20:00:47Z</time>
  <course>222.32</course>
  <speed>19.071541626203164</speed>
  <fix>3d</fix>
</trkpt>
<trkpt lat="-27.2470097" lon="151.3608033">
  <ele>521.92</ele>
  <time>2026-09-01T20:00:47Z</time>
  <course>221.8</course>
  <speed>21.29</speed>
  <fix>3d</fix>
</trkpt>
<trkpt lat="-27.2470632" lon="151.3607485">
  <ele>525.54</ele>
  <time>2026-09-01T20:00:47Z</time>
  <course>222.64</course>
  <speed>18.325119372053212</speed>
  <fix>3d</fix>
</trkpt>
<trkpt lat="-27.2470372" lon="151.3607754">
  <ele>523.72</ele>
  <time>2026-09-01T20:00:47Z</time>
  <course>222.4</course>
  <speed>19.85</speed>
  <fix>3d</fix>
</trkpt>
<trkpt lat="-27.247075" lon="151.3607361">
  <ele>526.44</ele>
  <time>2026-09-01T20:00:47Z</time>
  <course>222.94</course>
  <speed>17.57960465994614</speed>
  <fix>3d</fix>
</trkpt>
<trkpt lat="-27.2470372" lon="151.3607754">
  <ele>523.72</ele>
  <time>2026-09-01T20:00:47Z</time>
  <course>222.4</course>
  <speed>19.85</speed>
  <fix>3d</fix>
</trkpt>
<trkpt lat="-27.2470862" lon="151.3607241">
  <ele>527.32</ele>
  <time>2026-09-01T20:00:47Z</time>
  <course>223.22</course>
  <speed>16.834488409215172</speed>
  <fix>3d</fix>
</trkpt>
<trkpt lat="-27.2470624" lon="151.3607492">
  <ele>525.51</ele>
  <time>2026-09-01T20:00:47Z</time>
  <course>222.98</course>
  <speed>18.36</speed>
  <fix>3d</fix>
</trkpt>
<trkpt lat="-27.2470969" lon="151.3607126">
  <ele>528.2</ele>
  <time>2026-09-01T20:00:47Z</time>
  <course>223.47</course>
  <speed>16.11839011812284</speed>
  <fix>3d</fix>
</trkpt>
<trkpt lat="-27.2470624" lon="151.3607492">
  <ele>525.51</ele>
  <time>2026-09-01T20:00:47Z</time>
  <course>222.98</course>
  <speed>18.36</speed>
  <fix>3d</fix>
</trkpt>
<trkpt lat="-27.2471071" lon="151.3607016">
  <ele>529.06</ele>
  <time>2026-09-01T20:00:47Z</time>
  <course>223.69</course>
  <speed>15.431169754752878</speed>
  <fix>3d</fix>
</trkpt>
<trkpt lat="-27.2470855" lon="151.3607248">
  <ele>527.28</ele>
  <time>2026-09-01T20:00:47Z</time>
  <course>223.52</course>
  <speed>16.88</speed>
  <fix>3d</fix>
</trkpt>
<trkpt lat="-27.2471168" lon="151.3606908">
  <ele>529.9</ele>
  <time>2026-09-01T20:00:47Z</time>
  <course>223.88</course>
  <speed>14.77985791541989</speed>
  <fix>3d</fix>
</trkpt>
<trkpt lat="-27.2470855" lon="151.3607248">
  <ele>527.28</ele>
  <time>2026-09-01T20:00:47Z</time>
  <course>223.52</course>
  <speed>16.88</speed>
  <fix>3d</fix>
</trkpt>
<trkpt lat="-27.2471261" lon="151.3606807">
  <ele>530.73</ele>
  <time>2026-09-01T20:00:47Z</time>
  <course>224.05</course>
  <speed>14.171125572797667</speed>
  <fix>3d</fix>
</trkpt>
<trkpt lat="-27.2471064" lon="151.3607022">
  <ele>529.01</ele>
  <time>2026-09-01T20:00:47Z</time>
  <course>224.01</course>
  <speed>15.48</speed>
  <fix>3d</fix>
</trkpt>
<trkpt lat="-27.247135" lon="151.3606709">
  <ele>531.52</ele>
  <time>2026-09-01T20:00:47Z</time>
  <course>224.21</course>
  <speed>13.597974113815631</speed>
  <fix>3d</fix>
</trkpt>
<trkpt lat="-27.2471064" lon="151.3607022">
  <ele>529.01</ele>
  <time>2026-09-01T20:00:47Z</time>
  <course>224.01</course>
  <speed>15.48</speed>
  <fix>3d</fix>
</trkpt>
<trkpt lat="-27.2471435" lon="151.3606614">
  <ele>532.28</ele>
  <time>2026-09-01T20:00:47Z</time>
  <course>224.36</course>
  <speed>13.060356044151325</speed>
  <fix>3d</fix>
</trkpt>
<trkpt lat="-27.2471255" lon="151.3606813">
  <ele>530.68</ele>
  <time>2026-09-01T20:00:47Z</time>
  <course>224.42</course>
  <speed>14.22</speed>
  <fix>3d</fix>
</trkpt>
<trkpt lat="-27.2471517" lon="151.3606523">
  <ele>533.0</ele>
  <time>2026-09-01T20:00:47Z</time>
  <course>224.5</course>
  <speed>12.551147357911148</speed>
  <fix>3d</fix>
</trkpt>
<trkpt lat="-27.2471255" lon="151.3606813">
  <ele>530.68</ele>
  <time>2026-09-01T20:00:47Z</time>
  <course>224.42</course>
  <speed>14.22</speed>
  <fix>3d</fix>
</trkpt>
<trkpt lat="-27.2471595" lon="151.3606434">
  <ele>533.69</ele>
  <time>2026-09-01T20:00:47Z</time>
  <course>224.63</course>
  <speed>12.05618928185851</speed>
  <fix>3d</fix>
</trkpt>
<trkpt lat="-27.247143" lon="151.3606619">
  <ele>532.23</ele>
  <time>2026-09-01T20:00:47Z</time>
  <course>224.77</course>
  <speed>13.1</speed>
  <fix>3d</fix>
</trkpt>
<trkpt lat="-27.247167" lon="151.360635">
  <ele>534.34</ele>
  <time>2026-09-01T20:00:47Z</time>
  <course>224.76</course>
  <speed>11.582547215530788</speed>
  <fix>3d</fix>
</trkpt>
<trkpt lat="-27.247143" lon="151.3606619">
  <ele>532.23</ele>
  <time>2026-09-01T20:00:47Z</time>
  <course>224.77</course>
  <speed>13.1</speed>
  <fix>3d</fix>
</trkpt>
<trkpt lat="-27.2471741" lon="151.3606268">
  <ele>534.96</ele>
  <time>2026-09-01T20:00:47Z</time>
  <course>224.88</course>
  <speed>11.123061628886175</speed>
  <fix>3d</fix>
</trkpt>
<trkpt lat="-27.247159" lon="151.3606439">
  <ele>533.64</ele>
  <time>2026-09-01T20:00:47Z</time>
  <course>225.09</course>
  <speed>12.09</speed>
  <fix>3d</fix>
</trkpt>
<trkpt lat="-27.247181" lon="151.3606189">
  <ele>535.53</ele>
  <time>2026-09-01T20:00:47Z</time>
  <course>225.0</course>
  <speed>10.684909920069517</speed>
  <fix>3d</fix>
</trkpt>
<trkpt lat="-27.247159" lon="151.3606439">
  <ele>533.64</ele>
  <time>2026-09-01T20:00:47Z</time>
  <course>225.09</course>
  <speed>12.09</speed>
  <fix>3d</fix>
</trkpt>
<trkpt lat="-27.2471876" lon="151.3606113">
  <ele>536.07</ele>
  <time>2026-09-01T20:00:47Z</time>
  <course>225.11</course>
  <speed>10.253838305727275</speed>
  <fix>3d</fix>
</trkpt>
<trkpt lat="-27.2471737" lon="151.3606273">
  <ele>534.91</ele>
  <time>2026-09-01T20:00:47Z</time>
  <course>225.4</course>
  <speed>11.15</speed>
  <fix>3d</fix>
</trkpt>
<trkpt lat="-27.2471939" lon="151.3606041">
  <ele>536.57</ele>
  <time>2026-09-01T20:00:47Z</time>
  <course>225.22</course>
  <speed>9.830015259398126</speed>
  <fix>3d</fix>
</trkpt>
<trkpt lat="-27.2471737" lon="151.3606273">
  <ele>534.91</ele>
  <time>2026-09-01T20:00:47Z</time>
  <course>225.4</course>
  <speed>11.15</speed>
  <fix>3d</fix>
</trkpt>
<trkpt lat="-27.2471999" lon="151.3605971">
  <ele>537.04</ele>
  <time>2026-09-01T20:00:47Z</time>
  <course>225.33</course>
  <speed>9.42019108086455</speed>
  <fix>3d</fix>
</trkpt>
<trkpt lat="-27.2471871" lon="151.3606118">
  <ele>536.03</ele>
  <time>2026-09-01T20:00:47Z</time>
  <course>225.71</course>
  <speed>10.28</speed>
  <fix>3d</fix>
</trkpt>
<trkpt lat="-27.2472057" lon="151.3605904">
  <ele>537.46</ele>
  <time>2026-09-01T20:00:47Z</time>
  <course>225.44</course>
  <speed>9.031771697734614</speed>
  <fix>3d</fix>
</trkpt>
<trkpt lat="-27.2471871" lon="151.3606118">
  <ele>536.03</ele>
  <time>2026-09-01T20:00:47Z</time>
  <course>225.71</course>
  <speed>10.28</speed>
  <fix>3d</fix>
</trkpt>
<trkpt lat="-27.2472112" lon="151.3605839">
  <ele>537.85</ele>
  <time>2026-09-01T20:00:47Z</time>
  <course>225.54</course>
  <speed>8.650346813856656</speed>
  <fix>3d</fix>
</trkpt>
<trkpt lat="-27.2471995" lon="151.3605975">
  <ele>536.99</ele>
  <time>2026-09-01T20:00:47Z</time>
  <course>226.02</course>
  <speed>9.45</speed>
  <fix>3d</fix>
</trkpt>
<trkpt lat="-27.2472164" lon="151.3605777">
  <ele>538.21</ele>
  <time>2026-09-01T20:00:47Z</time>
  <course>225.64</course>
  <speed>8.28312139232548</speed>
  <fix>3d</fix>
</trkpt>
<trkpt lat="-27.2471995" lon="151.3605975">
  <ele>536.99</ele>
  <time>2026-09-01T20:00:47Z</time>
  <course>226.02</course>
  <speed>9.45</speed>
  <fix>3d</fix>
</trkpt>
<trkpt lat="-27.2472214" lon="151.3605718">
  <ele>538.53</ele>
  <time>2026-09-01T20:00:47Z</time>
  <course>225.73</course>
  <speed>7.923244285013558</speed>
  <fix>3d</fix>
</trkpt>
<trkpt lat="-27.2472108" lon="151.3605843">
  <ele>537.81</ele>
  <time>2026-09-01T20:00:47Z</time>
  <course>226.36</course>
  <speed>8.68</speed>
  <fix>3d</fix>
</trkpt>
<trkpt lat="-27.2472262" lon="151.360566">
  <ele>538.81</ele>
  <time>2026-09-01T20:00:47Z</time>
  <course>225.82</course>
  <speed>7.584457792090348</speed>
  <fix>3d</fix>
</trkpt>
<trkpt lat="-27.2472108" lon="151.3605843">
  <ele>537.81</ele>
  <time>2026-09-01T20:00:47Z</time>
  <course>226.36</course>
  <speed>8.68</speed>
  <fix>3d</fix>
</trkpt>
<trkpt lat="-27.2472307" lon="151.3605605">
  <ele>539.06</ele>
  <time>2026-09-01T20:00:47Z</time>
  <course>225.89</course>
  <speed>7.274022271068463</speed>
  <fix>3d</fix>
</trkpt>
<trkpt lat="-27.2472211" lon="151.3605721">
  <ele>538.49</ele>
  <time>2026-09-01T20:00:47Z</time>
  <course>226.71</course>
  <speed>7.95</speed>
  <fix>3d</fix>
</trkpt>
<trkpt lat="-27.2472351" lon="151.3605552">
  <ele>539.28</ele>
  <time>2026-09-01T20:00:47Z</time>
  <course>225.96</course>
  <speed>6.970459095353763</speed>
  <fix>3d</fix>
</trkpt>
<trkpt lat="-27.2472211" lon="151.3605721">
  <ele>538.49</ele>
  <time>2026-09-01T20:00:47Z</time>
  <course>226.71</course>
  <speed>7.95</speed>
  <fix>3d</fix>
</trkpt>
<trkpt lat="-27.2472392" lon="151.3605502">
  <ele>539.46</ele>
  <time>2026-09-01T20:00:47Z</time>
  <course>226.01</course>
  <speed>6.702574132376307</speed>
  <fix>3d</fix>
</trkpt>
<trkpt lat="-27.2472304" lon="151.3605609">
  <ele>539.03</ele>
  <time>2026-09-01T20:00:47Z</time>
  <course>227.08</course>
  <speed>7.3</speed>
  <fix>3d</fix>
</trkpt>
<trkpt lat="-27.2472432" lon="151.3605452">
  <ele>539.61</ele>
  <time>2026-09-01T20:00:47Z</time>
  <course>226.05</course>
  <speed>6.441521559383311</speed>
  <fix>3d</fix>
</trkpt>
<trkpt lat="-27.2472304" lon="151.3605609">
  <ele>539.03</ele>
  <time>2026-09-01T20:00:47Z</time>
  <course>227.08</course>
  <speed>7.3</speed>
  <fix>3d</fix>
</trkpt>
<trkpt lat="-27.2472471" lon="151.3605404">
  <ele>539.72</ele>
  <time>2026-09-01T20:00:47Z</time>
  <course>226.09</course>
  <speed>6.216188542829118</speed>
  <fix>3d</fix>
</trkpt>
<trkpt lat="-27.247239" lon="151.3605504">
  <ele>539.43</ele>
  <time>2026-09-01T20:00:47Z</time>
  <course>227.45</course>
  <speed>6.72</speed>
  <fix>3d</fix>
</trkpt>
<trkpt lat="-27.2472507" lon="151.360536">
  <ele>539.79</ele>
  <time>2026-09-01T20:00:47Z</time>
  <course>226.12</course>
  <speed>5.976085675423337</speed>
  <fix>3d</fix>
</trkpt>
<trkpt lat="-27.247239" lon="151.3605504">
  <ele>539.43</ele>
  <time>2026-09-01T20:00:47Z</time>
  <course>227.45</course>
  <speed>6.72</speed>
  <fix>3d</fix>
</trkpt>
<trkpt lat="-27.2472542" lon="151.3605316">
  <ele>539.85</ele>
  <time>2026-09-01T20:00:47Z</time>
  <course>226.05</course>
  <speed>5.708554983531297</speed>
  <fix>3d</fix>
</trkpt>
<trkpt lat="-27.2472468" lon="151.3605408">
  <ele>539.69</ele>
  <time>2026-09-01T20:00:47Z</time>
  <course>227.82</course>
  <speed>6.22</speed>
  <fix>3d</fix>
</trkpt>
<trkpt lat="-27.2472576" lon="151.3605274">
  <ele>539.89</ele>
  <time>2026-09-01T20:00:47Z</time>
  <course>225.79</course>
  <speed>5.412947441089743</speed>
  <fix>3d</fix>
</trkpt>
<trkpt lat="-27.2472468" lon="151.3605408">
  <ele>539.69</ele>
  <time>2026-09-01T20:00:47Z</time>
  <course>227.82</course>
  <speed>6.22</speed>
  <fix>3d</fix>
</trkpt>
<trkpt lat="-27.2472607" lon="151.3605234">
  <ele>539.91</ele>
  <time>2026-09-01T20:00:47Z</time>
  <course>225.35</course>
  <speed>5.0676720493733605</speed>
  <fix>3d</fix>
</trkpt>
<trkpt lat="-27.247254" lon="151.3605318">
  <ele>539.83</ele>
  <time>2026-09-01T20:00:47Z</time>
  <course>228.25</course>
  <speed>5.71</speed>
  <fix>3d</fix>
</trkpt>
<trkpt lat="-27.2472635" lon="151.3605197">
  <ele>539.94</ele>
  <time>2026-09-01T20:00:47Z</time>
  <course>224.72</course>
  <speed>4.672697293855017</speed>
  <fix>3d</fix>
</trkpt>
<trkpt lat="-27.247254" lon="151.3605318">
  <ele>539.83</ele>
  <time>2026-09-01T20:00:47Z</time>
  <course>228.25</course>
  <speed>5.71</speed>
  <fix>3d</fix>
</trkpt>
<trkpt lat="-27.2472661" lon="151.3605162">
  <ele>539.96</ele>
  <time>2026-09-01T20:00:47Z</time>
  <course>223.95</course>
  <speed>4.221528159328089</speed>
  <fix>3d</fix>
</trkpt>
<trkpt lat="-27.2472604" lon="151.3605236">
  <ele>539.91</ele>
  <time>2026-09-01T20:00:47Z</time>
  <course>228.84</course>
  <speed>5.06</speed>
  <fix>3d</fix>
</trkpt>
<trkpt lat="-27.2472684" lon="151.3605131">
  <ele>539.99</ele>
  <time>2026-09-01T20:00:47Z</time>
  <course>223.11</course>
  <speed>3.7207526120396666</speed>
  <fix>3d</fix>
</trkpt>
<trkpt lat="-27.2472604" lon="151.3605236">
  <ele>539.91</ele>
  <time>2026-09-01T20:00:47Z</time>
  <course>228.84</course>
  <speed>5.06</speed>
  <fix>3d</fix>
</trkpt>
<trkpt lat="-27.2472704" lon="151.3605105">
  <ele>540.03</ele>
  <time>2026-09-01T20:00:47Z</time>
  <course>222.26</course>
  <speed>3.1985621769789</speed>
  <fix>3d</fix>
</trkpt>
<trkpt lat="-27.2472659" lon="151.3605165">
  <ele>539.96</ele>
  <time>2026-09-01T20:00:47Z</time>
  <course>229.63</course>
  <speed>4.22</speed>
  <fix>3d</fix>
</trkpt>
<trkpt lat="-27.2472721" lon="151.3605082">
  <ele>540.09</ele>
  <time>2026-09-01T20:00:47Z</time>
  <course>221.5</course>
  <speed>2.6409278672466616</speed>
  <fix>3d</fix>
</trkpt>
<trkpt lat="-27.2472659" lon="151.3605165">
  <ele>539.96</ele>
  <time>2026-09-01T20:00:47Z</time>
  <course>229.63</course>
  <speed>4.22</speed>
  <fix>3d</fix>
</trkpt>
<trkpt lat="-27.2472734" lon="151.3605063">
  <ele>540.16</ele>
  <time>2026-09-01T20:00:47Z</time>
  <course>220.88</course>
  <speed>2.0700241544484452</speed>
  <fix>3d</fix>
</trkpt>
<trkpt lat="-27.2472702" lon="151.3605107">
  <ele>540.03</ele>
  <time>2026-09-01T20:00:47Z</time>
  <course>230.77</course>
  <speed>3.2</speed>
  <fix>3d</fix>
</trkpt>
<trkpt lat="-27.2472743" lon="151.3605048">
  <ele>540.26</ele>
  <time>2026-09-01T20:00:47Z</time>
  <course>220.42</course>
  <speed>1.5123822268196623</speed>
  <fix>3d</fix>
</trkpt>
<trkpt lat="-27.2472702" lon="151.3605107">
  <ele>540.03</ele>
  <time>2026-09-01T20:00:47Z</time>
  <course>230.77</course>
  <speed>3.2</speed>
  <fix>3d</fix>
</trkpt>
<trkpt lat="-27.247275" lon="151.3605038">
  <ele>540.39</ele>
  <time>2026-09-01T20:00:47Z</time>
  <course>220.12</course>
  <speed>0.9763708311906906</speed>
  <fix>3d</fix>
</trkpt>
<trkpt lat="-27.2472731" lon="151.3605066">
  <ele>540.17</ele>
  <time>2026-09-01T20:00:47Z</time>
  <course>232.56</course>
  <speed>2.1</speed>
  <fix>3d</fix>
</trkpt>
<trkpt lat="-27.2472754" lon="151.360503">
  <ele>540.49</ele>
  <time>2026-09-01T20:00:47Z</time>
  <course>219.94</course>
  <speed>0.9541488353501251</speed>
  <fix>3d</fix>
</trkpt>
<trkpt lat="-27.2472731" lon="151.3605066">
  <ele>540.17</ele>
  <time>2026-09-01T20:00:47Z</time>
  <course>232.56</course>
  <speed>2.1</speed>
  <fix>3d</fix>
</trkpt>
<trkpt lat="-27.2472759" lon="151.3605021">
  <ele>540.5</ele>
  <time>2026-09-01T20:00:47Z</time>
  <course>219.82</course>
  <speed>0.9457801012920498</speed>
  <fix>3d</fix>
</trkpt>
<trkpt lat="-27.2472748" lon="151.3605039">
  <ele>540.37</ele>
  <time>2026-09-01T20:00:47Z</time>
  <course>235.27</course>
  <speed>1.24</speed>
  <fix>3d</fix>
</trkpt>
<trkpt lat="-27.2472764" lon="151.3605014">
  <ele>540.4</ele>
  <time>2026-09-01T20:00:47Z</time>
  <course>219.75</course>
  <speed>0.931933474020544</speed>
  <fix>3d</fix>
</trkpt>
<trkpt lat="-27.2472748" lon="151.3605039">
  <ele>540.37</ele>
  <time>2026-09-01T20:00:47Z</time>
  <course>235.27</course>
  <speed>1.24</speed>
  <fix>3d</fix>
</trkpt>
<trkpt lat="-27.2472768" lon="151.3605006">
  <ele>540.22</ele>
  <time>2026-09-01T20:00:47Z</time>
  <course>219.82</course>
  <speed>0.8875246475450695</speed>
  <fix>3d</fix>
</trkpt>
<trkpt lat="-27.2472758" lon="151.3605021">
  <ele>540.44</ele>
  <time>2026-09-01T20:00:47Z</time>
  <course>236.93</course>
  <speed>0.94</speed>
  <fix>3d</fix>
</trkpt>
<trkpt lat="-27.2472772" lon="151.3604998">
  <ele>539.95</ele>
  <time>2026-09-01T20:00:47Z</time>
  <course>220.16</course>
  <speed>0.8348652585896721</speed>
  <fix>3d</fix>
</trkpt>
<trkpt lat="-27.2472758" lon="151.3605021">
  <ele>540.44</ele>
  <time>2026-09-01T20:00:47Z</time>
  <course>236.93</course>
  <speed>0.94</speed>
  <fix>3d</fix>
</trkpt>
<trkpt lat="-27.2472776" lon="151.3604992">
  <ele>539.62</ele>
  <time>2026-09-01T20:00:47Z</time>
  <course>220.45</course>
  <speed>0.7793587107359485</speed>
  <fix>3d</fix>
</trkpt>
<trkpt lat="-27.2472767" lon="151.3605006">
  <ele>540.18</ele>
  <time>2026-09-01T20:00:47Z</time>
  <course>236.3</course>
  <speed>0.88</speed>
  <fix>3d</fix>
</trkpt>
<trkpt lat="-27.247278" lon="151.3604985">
  <ele>539.23</ele>
  <time>2026-09-01T20:00:47Z</time>
  <course>220.42</course>
  <speed>0.7378346698278686</speed>
  <fix>3d</fix>
</trkpt>
<trkpt lat="-27.2472767" lon="151.3605006">
  <ele>540.18</ele>
  <time>2026-09-01T20:00:47Z</time>
  <course>236.3</course>
  <speed>0.88</speed>
  <fix>3d</fix>
</trkpt>
<trkpt lat="-27.2472784" lon="151.3604978">
  <ele>538.79</ele>
  <time>2026-09-01T20:00:47Z</time>
  <course>220.28</course>
  <speed>0.7128113354878693</speed>
  <fix>3d</fix>
</trkpt>
<trkpt lat="-27.2472775" lon="151.3604992">
  <ele>539.6</ele>
  <time>2026-09-01T20:00:47Z</time>
  <course>236.26</course>
  <speed>0.79</speed>
  <fix>3d</fix>
</trkpt>
<trkpt lat="-27.2472787" lon="151.3604973">
  <ele>538.32</ele>
  <time>2026-09-01T20:00:47Z</time>
  <course>220.14</course>
  <speed>0.7021395872616784</speed>
  <fix>3d</fix>
</trkpt>
<trkpt lat="-27.2472775" lon="151.3604992">
  <ele>539.6</ele>
  <time>2026-09-01T20:00:47Z</time>
  <course>236.26</course>
  <speed>0.79</speed>
  <fix>3d</fix>
</trkpt>
<trkpt lat="-27.2472791" lon="151.3604968">
  <ele>537.79</ele>
  <time>2026-09-01T20:00:47Z</time>
  <course>220.04</course>
  <speed>0.7402702209328699</speed>
  <fix>3d</fix>
</trkpt>
<trkpt lat="-27.2472783" lon="151.360498">
  <ele>538.79</ele>
  <time>2026-09-01T20:00:47Z</time>
  <course>235.59</course>
  <speed>0.72</speed>
  <fix>3d</fix>
</trkpt>
<trkpt lat="-27.2472796" lon="151.3604962">
  <ele>537.21</ele>
  <time>2026-09-01T20:00:47Z</time>
  <course>220.02</course>
  <speed>0.8221921916437787</speed>
  <fix>3d</fix>
</trkpt>
<trkpt lat="-27.2472783" lon="151.360498">
  <ele>538.79</ele>
  <time>2026-09-01T20:00:47Z</time>
  <course>235.59</course>
  <speed>0.72</speed>
  <fix>3d</fix>
</trkpt>
<trkpt lat="-27.2472801" lon="151.3604954">
  <ele>536.57</ele>
  <time>2026-09-01T20:00:47Z</time>
  <course>220.18</course>
  <speed>0.9196738552334734</speed>
  <fix>3d</fix>
</trkpt>
<trkpt lat="-27.2472791" lon="151.3604968">
  <ele>537.79</ele>
  <time>2026-09-01T20:00:47Z</time>
  <course>231.45</course>
  <speed>0.76</speed>
  <fix>3d</fix>
</trkpt>
<trkpt lat="-27.2472807" lon="151.3604948">
  <ele>535.87</ele>
  <time>2026-09-01T20:00:47Z</time>
  <course>220.7</course>
  <speed>1.2234786471369248</speed>
  <fix>3d</fix>
</trkpt>
<trkpt lat="-27.2472791" lon="151.3604968">
  <ele>537.79</ele>
  <time>2026-09-01T20:00:47Z</time>
  <course>231.45</course>
  <speed>0.76</speed>
  <fix>3d</fix>
</trkpt>
<trkpt lat="-27.2472819" lon="151.3604937">
  <ele>535.1</ele>
  <time>2026-09-01T20:00:47Z</time>
  <course>222.7</course>
  <speed>2.00124960961895</speed>
  <fix>3d</fix>
</trkpt>
<trkpt lat="-27.2472801" lon="151.3604955">
  <ele>536.57</ele>
  <time>2026-09-01T20:00:47Z</time>
  <course>226.25</course>
  <speed>1.0</speed>
  <fix>3d</fix>
</trkpt>
<trkpt lat="-27.2472834" lon="151.3604921">
  <ele>534.25</ele>
  <time>2026-09-01T20:00:47Z</time>
  <course>229.04</course>
  <speed>2.309913418290824</speed>
  <fix>3d</fix>
</trkpt>
<trkpt lat="-27.2472801" lon="151.3604955">
  <ele>536.57</ele>
  <time>2026-09-01T20:00:47Z</time>
  <course>226.25</course>
  <speed>1.0</speed>
  <fix>3d</fix>
</trkpt>
<trkpt lat="-27.247285" lon="151.3604907">
  <ele>533.32</ele>
  <time>2026-09-01T20:00:47Z</time>
  <course>244.32</course>
  <speed>2.2227235545609356</speed>
  <fix>3d</fix>
</trkpt>
<trkpt lat="-27.247282" lon="151.3604935">
  <ele>535.09</ele>
  <time>2026-09-01T20:00:47Z</time>
  <course>220.88</course>
  <speed>1.75</speed>
  <fix>3d</fix>
</trkpt>
<trkpt lat="-27.2472864" lon="151.3604894">
  <ele>532.28</ele>
  <time>2026-09-01T20:00:47Z</time>
  <course>252.52</course>
  <speed>1.9915069670980317</speed>
  <fix>3d</fix>
</trkpt>
<trkpt lat="-27.247282" lon="151.3604935">
  <ele>535.09</ele>
  <time>2026-09-01T20:00:47Z</time>
  <course>220.88</course>
  <speed>1.75</speed>
  <fix>3d</fix>
</trkpt>
<trkpt lat="-27.2472877" lon="151.3604881">
  <ele>531.16</ele>
  <time>2026-09-01T20:00:47Z</time>
  <course>235.77</course>
  <speed>1.9134262462922367</speed>
  <fix>3d</fix>
</trkpt>
<trkpt lat="-27.2472848" lon="151.3604908">
  <ele>533.31</ele>
  <time>2026-09-01T20:00:47Z</time>
  <course>220.0</course>
  <speed>2.15</speed>
  <fix>3d</fix>
</trkpt>
<trkpt lat="-27.2472891" lon="151.3604867">
  <ele>529.94</ele>
  <time>2026-09-01T20:00:47Z</time>
  <course>230.9</course>
  <speed>2.2821919288263204</speed>
  <fix>3d</fix>
</trkpt>
<trkpt lat="-27.2472848" lon="151.3604908">
  <ele>533.31</ele>
  <time>2026-09-01T20:00:47Z</time>
  <course>220.0</course>
  <speed>2.15</speed>
  <fix>3d</fix>
</trkpt>
<trkpt lat="-27.2472909" lon="151.3604849">
  <ele>528.65</ele>
  <time>2026-09-01T20:00:47Z</time>
  <course>234.49</course>
  <speed>3.1758620876857986</speed>
  <fix>3d</fix>
</trkpt>
<trkpt lat="-27.2472877" lon="151.3604881">
  <ele>531.16</ele>
  <time>2026-09-01T20:00:47Z</time>
  <course>221.0</course>
  <speed>2.13</speed>
  <fix>3d</fix>
</trkpt>
<trkpt lat="-27.2472933" lon="151.360482">
  <ele>527.31</ele>
  <time>2026-09-01T20:00:47Z</time>
  <course>240.8</course>
  <speed>4.417793566929085</speed>
  <fix>3d</fix>
</trkpt>
<trkpt lat="-27.2472877" lon="151.3604881">
  <ele>531.16</ele>
  <time>2026-09-01T20:00:47Z</time>
  <course>221.0</course>
  <speed>2.13</speed>
  <fix>3d</fix>
</trkpt>
<trkpt lat="-27.247296" lon="151.360478">
  <ele>525.93</ele>
  <time>2026-09-01T20:00:47Z</time>
  <course>247.89</course>
  <speed>5.735616793336179</speed>
  <fix>3d</fix>
</trkpt>
<trkpt lat="-27.2472911" lon="151.3604845">
  <ele>528.68</ele>
  <time>2026-09-01T20:00:47Z</time>
  <course>226.29</course>
  <speed>3.31</speed>
  <fix>3d</fix>
</trkpt>
<trkpt lat="-27.2472988" lon="151.3604724">
  <ele>524.53</ele>
  <time>2026-09-01T20:00:47Z</time>
  <course>254.49</course>
  <speed>6.905396440465963</speed>
  <fix>3d</fix>
</trkpt>
<trkpt lat="-27.2472911" lon="151.3604845">
  <ele>528.68</ele>
  <time>2026-09-01T20:00:47Z</time>
  <course>226.29</course>
  <speed>3.31</speed>
  <fix>3d</fix>
</trkpt>
<trkpt lat="-27.2473013" lon="151.3604655">
  <ele>523.11</ele>
  <time>2026-09-01T20:00:47Z</time>
  <course>259.89</course>
  <speed>7.880406080907252</speed>
  <fix>3d</fix>
</trkpt>
<trkpt lat="-27.247296" lon="151.3604775">
  <ele>525.97</ele>
  <time>2026-09-01T20:00:47Z</time>
  <course>238.05</course>
  <speed>5.57</speed>
  <fix>3d</fix>
</trkpt>
<trkpt lat="-27.2473032" lon="151.3604574">
  <ele>521.66</ele>
  <time>2026-09-01T20:00:47Z</time>
  <course>264.23</course>
  <speed>8.766413177577247</speed>
  <fix>3d</fix>
</trkpt>
<trkpt lat="-27.247296" lon="151.3604775">
  <ele>525.97</ele>
  <time>2026-09-01T20:00:47Z</time>
  <course>238.05</course>
  <speed>5.57</speed>
  <fix>3d</fix>
</trkpt>
<trkpt lat="-27.2473044" lon="151.360448">
  <ele>520.21</ele>
  <time>2026-09-01T20:00:47Z</time>
  <course>267.65</course>
  <speed>9.701407114434483</speed>
  <fix>3d</fix>
</trkpt>
<trkpt lat="-27.247301" lon="151.3604652">
  <ele>523.15</ele>
  <time>2026-09-01T20:00:47Z</time>
  <course>252.06</course>
  <speed>7.74</speed>
  <fix>3d</fix>
</trkpt>
<trkpt lat="-27.2473046" lon="151.3604378">
  <ele>518.75</ele>
  <time>2026-09-01T20:00:47Z</time>
  <course>269.95</course>
  <speed>10.841037773202343</speed>
  <fix>3d</fix>
</trkpt>
<trkpt lat="-27.247301" lon="151.3604652">
  <ele>523.15</ele>
  <time>2026-09-01T20:00:47Z</time>
  <course>252.06</course>
  <speed>7.74</speed>
  <fix>3d</fix>
</trkpt>
<trkpt lat="-27.2473041" lon="151.3604262">
  <ele>517.32</ele>
  <time>2026-09-01T20:00:47Z</time>
  <course>271.04</course>
  <speed>12.196278120803903</speed>
  <fix>3d</fix>
</trkpt>
<trkpt lat="-27.2473039" lon="151.3604479">
  <ele>520.26</ele>
  <time>2026-09-01T20:00:47Z</time>
  <course>265.26</course>
  <speed>9.71</speed>
  <fix>3d</fix>
</trkpt>
<trkpt lat="-27.247303" lon="151.3604131">
  <ele>515.96</ele>
  <time>2026-09-01T20:00:47Z</time>
  <course>271.34</course>
  <speed>13.621108618611043</speed>
  <fix>3d</fix>
</trkpt>
<trkpt lat="-27.2473039" lon="151.3604479">
  <ele>520.26</ele>
  <time>2026-09-01T20:00:47Z</time>
  <course>265.26</course>
  <speed>9.71</speed>
  <fix>3d</fix>
</trkpt>
<trkpt lat="-27.2473017" lon="151.3603987">
  <ele>514.69</ele>
  <time>2026-09-01T20:00:47Z</time>
  <course>271.44</course>
  <speed>14.92769238696993</speed>
  <fix>3d</fix>
</trkpt>
<trkpt lat="-27.2473038" lon="151.3604258">
  <ele>517.4</ele>
  <time>2026-09-01T20:00:47Z</time>
  <course>273.56</course>
  <speed>12.18</speed>
  <fix>3d</fix>
</trkpt>
<trkpt lat="-27.2473007" lon="151.3603832">
  <ele>513.52</ele>
  <time>2026-09-01T20:00:47Z</time>
  <course>271.56</course>
  <speed>16.04127488699075</speed>
  <fix>3d</fix>
</trkpt>
<trkpt lat="-27.2473038" lon="151.3604258">
  <ele>517.4</ele>
  <time>2026-09-01T20:00:47Z</time>
  <course>273.56</course>
  <speed>12.18</speed>
  <fix>3d</fix>
</trkpt>
<trkpt lat="-27.2472998" lon="151.3603665">
  <ele>512.46</ele>
  <time>2026-09-01T20:00:47Z</time>
  <course>271.61</course>
  <speed>16.985693980523727</speed>
  <fix>3d</fix>
</trkpt>
<trkpt lat="-27.2473019" lon="151.3603986">
  <ele>514.78</ele>
  <time>2026-09-01T20:00:47Z</time>
  <course>274.94</course>
  <speed>14.79</speed>
  <fix>3d</fix>
</trkpt>
<trkpt lat="-27.2472993" lon="151.3603488">
  <ele>511.51</ele>
  <time>2026-09-01T20:00:47Z</time>
  <course>271.55</course>
  <speed>17.812697718200912</speed>
  <fix>3d</fix>
</trkpt>
<trkpt lat="-27.2473019" lon="151.3603986">
  <ele>514.78</ele>
  <time>2026-09-01T20:00:47Z</time>
  <course>274.94</course>
  <speed>14.79</speed>
  <fix>3d</fix>
</trkpt>
<trkpt lat="-27.2472992" lon="151.3603303">
  <ele>510.69</ele>
  <time>2026-09-01T20:00:47Z</time>
  <course>271.47</course>
  <speed>18.50001081080765</speed>
  <fix>3d</fix>
</trkpt>
<trkpt lat="-27.2473" lon="151.3603666">
  <ele>512.55</ele>
  <time>2026-09-01T20:00:47Z</time>
  <course>272.54</course>
  <speed>16.89</speed>
  <fix>3d</fix>
</trkpt>
<trkpt lat="-27.2472992" lon="151.3603115">
  <ele>510.02</ele>
  <time>2026-09-01T20:00:47Z</time>
  <course>271.44</course>
  <speed>19.01016833171132</speed>
  <fix>3d</fix>
</trkpt>
<trkpt lat="-27.2473" lon="151.3603666">
  <ele>512.55</ele>
  <time>2026-09-01T20:00:47Z</time>
  <course>272.54</course>
  <speed>16.89</speed>
  <fix>3d</fix>
</trkpt>
<trkpt lat="-27.2472993" lon="151.360292">
  <ele>509.51</ele>
  <time>2026-09-01T20:00:47Z</time>
  <course>271.43</course>
  <speed>19.31</speed>
  <fix>3d</fix>
</trkpt>
<trkpt lat="-27.2472993" lon="151.3603309">
  <ele>510.79</ele>
  <time>2026-09-01T20:00:47Z</time>
  <course>270.38</course>
  <speed>18.39</speed>
  <fix>3d</fix>
</trkpt>
<trkpt lat="-27.2472992" lon="151.3602724">
  <ele>509.12</ele>
  <time>2026-09-01T20:00:47Z</time>
  <course>271.34</course>
  <speed>19.420744064015672</speed>
  <fix>3d</fix>
</trkpt>
<trkpt lat="-27.2472993" lon="151.3603309">
  <ele>510.79</ele>
  <time>2026-09-01T20:00:47Z</time>
  <course>270.38</course>
  <speed>18.39</speed>
  <fix>3d</fix>
</trkpt>
<trkpt lat="-27.247299" lon="151.3602529">
  <ele>508.83</ele>
  <time>2026-09-01T20:00:47Z</time>
  <course>271.1</course>
  <speed>19.403528029716657</speed>
  <fix>3d</fix>
</trkpt>
<trkpt lat="-27.2472992" lon="151.3602928">
  <ele>509.59</ele>
  <time>2026-09-01T20:00:47Z</time>
  <course>270.12</course>
  <speed>19.21</speed>
  <fix>3d</fix>
</trkpt>
<trkpt lat="-27.2472986" lon="151.3602333">
  <ele>508.59</ele>
  <time>2026-09-01T20:00:47Z</time>
  <course>270.82</course>
  <speed>19.32673019421547</speed>
  <fix>3d</fix>
</trkpt>
<trkpt lat="-27.2472992" lon="151.3602928">
  <ele>509.59</ele>
  <time>2026-09-01T20:00:47Z</time>
  <course>270.12</course>
  <speed>19.21</speed>
  <fix>3d</fix>
</trkpt>
<trkpt lat="-27.2472981" lon="151.3602139">
  <ele>508.4</ele>
  <time>2026-09-01T20:00:47Z</time>
  <course>270.62</course>
  <speed>19.209372712298546</speed>
  <fix>3d</fix>
</trkpt>
<trkpt lat="-27.2472988" lon="151.3602536">
  <ele>508.86</ele>
  <time>2026-09-01T20:00:47Z</time>
  <course>271.0</course>
  <speed>19.37</speed>
  <fix>3d</fix>
</trkpt>
<trkpt lat="-27.2472975" lon="151.3601945">
  <ele>508.22</ele>
  <time>2026-09-01T20:00:47Z</time>
  <course>270.58</course>
  <speed>19.080075995655783</speed>
  <fix>3d</fix>
</trkpt>
<trkpt lat="-27.2472988" lon="151.3602536">
  <ele>508.86</ele>
  <time>2026-09-01T20:00:47Z</time>
  <course>271.0</course>
  <speed>19.37</speed>
  <fix>3d</fix>
</trkpt>
<trkpt lat="-27.247297" lon="151.3601752">
  <ele>508.05</ele>
  <time>2026-09-01T20:00:47Z</time>
  <course>270.68</course>
  <speed>18.94918731766616</speed>
  <fix>3d</fix>
</trkpt>
<trkpt lat="-27.247298" lon="151.3602146">
  <ele>508.41</ele>
  <time>2026-09-01T20:00:47Z</time>
  <course>271.69</course>
  <speed>19.21</speed>
  <fix>3d</fix>
</trkpt>
<trkpt lat="-27.2472965" lon="151.3601563">
  <ele>507.89</ele>
  <time>2026-09-01T20:00:47Z</time>
  <course>270.9</course>
  <speed>18.807190114421665</speed>
  <fix>3d</fix>
</trkpt>
<trkpt lat="-27.247298" lon="151.3602146">
  <ele>508.41</ele>
  <time>2026-09-01T20:00:47Z</time>
  <course>271.69</course>
  <speed>19.21</speed>
  <fix>3d</fix>
</trkpt>
<trkpt lat="-27.247296" lon="151.3601373">
  <ele>507.73</ele>
  <time>2026-09-01T20:00:47Z</time>
  <course>271.14</course>
  <speed>18.674951137820948</speed>
  <fix>3d</fix>
</trkpt>
<trkpt lat="-27.2472969" lon="151.3601761">
  <ele>508.05</ele>
  <time>2026-09-01T20:00:47Z</time>
  <course>271.73</course>
  <speed>18.95</speed>
  <fix>3d</fix>
</trkpt>
<trkpt lat="-27.2472957" lon="151.3601186">
  <ele>507.57</ele>
  <time>2026-09-01T20:00:48Z</time>
  <course>271.35</course>
  <speed>18.5431173215293</speed>
  <fix>3d</fix>
</trkpt>
<trkpt lat="-27.2472969" lon="151.3601761">
  <ele>508.05</ele>
  <time>2026-09-01T20:00:48Z</time>
  <course>271.73</course>
  <speed>18.95</speed>
  <fix>3d</fix>
</trkpt>
<trkpt lat="-27.2472954" lon="151.3600999">
  <ele>507.41</ele>
  <time>2026-09-01T20:00:48Z</time>
  <course>271.48</course>
  <speed>18.41169736879248</speed>
  <fix>3d</fix>
</trkpt>
<trkpt lat="-27.2472961" lon="151.3601381">
  <ele>507.73</ele>
  <time>2026-09-01T20:00:48Z</time>
  <course>271.32</course>
  <speed>18.68</speed>
  <fix>3d</fix>
</trkpt>
<trkpt lat="-27.2472952" lon="151.3600813">
  <ele>507.26</ele>
  <time>2026-09-01T20:00:48Z</time>
  <course>271.49</course>
  <speed>18.281094059163966</speed>
  <fix>3d</fix>
</trkpt>
<trkpt lat="-27.2472961" lon="151.3601381">
  <ele>507.73</ele>
  <time>2026-09-01T20:00:48Z</time>
  <course>271.32</course>
  <speed>18.68</speed>
  <fix>3d</fix>
</trkpt>
<trkpt lat="-27.2472951" lon="151.3600629">
  <ele>507.1</ele>
  <time>2026-09-01T20:00:48Z</time>
  <course>271.38</course>
  <speed>18.160704832136886</speed>
  <fix>3d</fix>
</trkpt>
<trkpt lat="-27.2472954" lon="151.3601006">
  <ele>507.41</ele>
  <time>2026-09-01T20:00:48Z</time>
  <course>270.84</course>
  <speed>18.42</speed>
  <fix>3d</fix>
</trkpt>
<trkpt lat="-27.2472949" lon="151.3600447">
  <ele>506.95</ele>
  <time>2026-09-01T20:00:48Z</time>
  <course>271.17</course>
  <speed>18.030623949270307</speed>
  <fix>3d</fix>
</trkpt>
<trkpt lat="-27.2472954" lon="151.3601006">
  <ele>507.41</ele>
  <time>2026-09-01T20:00:48Z</time>
  <course>270.84</course>
  <speed>18.42</speed>
  <fix>3d</fix>
</trkpt>
<trkpt lat="-27.2472948" lon="151.3600265">
  <ele>506.8</ele>
  <time>2026-09-01T20:00:48Z</time>
  <course>270.92</course>
  <speed>17.910628129688806</speed>
  <fix>3d</fix>
</trkpt>
<trkpt lat="-27.247295" lon="151.3600636">
  <ele>507.1</ele>
  <time>2026-09-01T20:00:48Z</time>
  <course>270.55</course>
  <speed>18.16</speed>
  <fix>3d</fix>
</trkpt>
<trkpt lat="-27.2455011" lon="151.364241">
  <ele>542.98</ele>
  <time>2026-09-01T20:00:48Z</time>
  <course>250.01</course>
  <speed>0.0</speed>
  <fix>3d</fix>
</trkpt>
<trkpt lat="-27.247295" lon="151.3600636">
  <ele>507.1</ele>
  <time>2026-09-01T20:00:48Z</time>
  <course>270.55</course>
  <speed>18.16</speed>
  <fix>3d</fix>
</trkpt>
<trkpt lat="-27.2455012" lon="151.364241">
  <ele>542.88</ele>
  <time>2026-09-01T20:00:48Z</time>
  <course>250.0</course>
  <speed>0.01</speed>
  <fix>3d</fix>
</trkpt>
<trkpt lat="-27.246398" lon="151.3621432">
  <ele>524.96</ele>
  <time>2026-09-01T20:00:48Z</time>
  <course>270.48</course>
  <speed>9.02</speed>
  <fix>3d</fix>
</trkpt>
<trkpt lat="-27.2455012" lon="151.364241">
  <ele>542.68</ele>
  <time>2026-09-01T20:00:48Z</time>
  <course>250.01</course>
  <speed>0.044721359549995794</speed>
  <fix>3d</fix>
</trkpt>
<trkpt lat="-27.246398" lon="151.3621432">
  <ele>524.96</ele>
  <time>2026-09-01T20:00:48Z</time>
  <course>270.48</course>
  <speed>9.02</speed>
  <fix>3d</fix>
</trkpt>
<trkpt lat="-27.2455012" lon="151.364241">
  <ele>542.39</ele>
  <time>2026-09-01T20:00:48Z</time>
  <course>250.54</course>
  <speed>0.11704699910719625</speed>
  <fix>3d</fix>
</trkpt>
<trkpt lat="-27.2455011" lon="151.364241">
  <ele>542.83</ele>
  <time>2026-09-01T20:00:48Z</time>
  <course>244.62</course>
  <speed>0.02</speed>
  <fix>3d</fix>
</trkpt>
<trkpt lat="-27.2455012" lon="151.3642409">
  <ele>542.03</ele>
  <time>2026-09-01T20:00:48Z</time>
  <course>253.52</course>
  <speed>0.25495097567963926</speed>
  <fix>3d</fix>
</trkpt>
<trkpt lat="-27.2455011" lon="151.364241">
  <ele>542.83</ele>
  <time>2026-09-01T20:00:48Z</time>
  <course>244.62</course>
  <speed>0.02</speed>
  <fix>3d</fix>
</trkpt>
<trkpt lat="-27.2455011" lon="151.3642405">
  <ele>541.59</ele>
  <time>2026-09-01T20:00:48Z</time>
  <course>262.79</course>
  <speed>0.4410215414239989</speed>
  <fix>3d</fix>
</trkpt>
<trkpt lat="-27.2455012" lon="151.364241">
  <ele>542.36</ele>
  <time>2026-09-01T20:00:48Z</time>
  <course>276.23</course>
  <speed>0.14</speed>
  <fix>3d</fix>
</trkpt>
<trkpt lat="-27.245501" lon="151.3642401">
  <ele>541.08</ele>
  <time>2026-09-01T20:00:48Z</time>
  <course>264.71</course>
  <speed>0.5060632371551997</speed>
  <fix>3d</fix>
</trkpt>
<trkpt lat="-27.2455012" lon="151.364241">
  <ele>542.36</ele>
  <time>2026-09-01T20:00:48Z</time>
  <course>276.23</course>
  <speed>0.14</speed>
  <fix>3d</fix>
</trkpt>
<trkpt lat="-27.245502" lon="151.36424">
  <ele>540.53</ele>
  <time>2026-09-01T20:00:48Z</time>
  <course>252.38</course>
  <speed>1.910104709171725</speed>
  <fix>3d</fix>
</trkpt>
<trkpt lat="-27.2455011" lon="151.3642405">
  <ele>541.56</ele>
  <time>2026-09-01T20:00:48Z</time>
  <course>242.85</course>
  <speed>0.32</speed>
  <fix>3d</fix>
</trkpt>
<trkpt lat="-27.2455043" lon="151.3642403">
  <ele>539.97</ele>
  <time>2026-09-01T20:00:48Z</time>
  <course>242.85</course>
  <speed>3.1515393064342385</speed>
  <fix>3d</fix>
</trkpt>
<trkpt lat="-27.2455011" lon="151.3642405">
  <ele>541.56</ele>
  <time>2026-09-01T20:00:48Z</time>
  <course>242.85</course>
  <speed>0.32</speed>
  <fix>3d</fix>
</trkpt>
<trkpt lat="-27.2455075" lon="151.364241">
  <ele>539.46</ele>
  <time>2026-09-01T20:00:48Z</time>
  <course>235.19</course>
  <speed>4.108588565432172</speed>
  <fix>3d</fix>
</trkpt>
<trkpt lat="-27.2455026" lon="151.3642401">
  <ele>540.54</ele>
  <time>2026-09-01T20:00:48Z</time>
  <course>177.17</course>
  <speed>1.71</speed>
  <fix>3d</fix>
</trkpt>
<trkpt lat="-27.2455115" lon="151.364242">
  <ele>539.0</ele>
  <time>2026-09-01T20:00:48Z</time>
  <course>228.37</course>
  <speed>5.041349025806485</speed>
  <fix>3d</fix>
</trkpt>
<trkpt lat="-27.2455026" lon="151.3642401">
  <ele>540.54</ele>
  <time>2026-09-01T20:00:48Z</time>
  <course>177.17</course>
  <speed>1.71</speed>
  <fix>3d</fix>
</trkpt>
<trkpt lat="-27.2455162" lon="151.3642435">
  <ele>538.63</ele>
  <time>2026-09-01T20:00:48Z</time>
  <course>221.74</course>
  <speed>5.79524805336234</speed>
  <fix>3d</fix>
</trkpt>
<trkpt lat="-27.2455077" lon="151.3642411">
  <ele>539.5</ele>
  <time>2026-09-01T20:00:48Z</time>
  <course>167.01</course>
  <speed>4.05</speed>
  <fix>3d</fix>
</trkpt>
<trkpt lat="-27.2455214" lon="151.3642453">
  <ele>538.34</ele>
  <time>2026-09-01T20:00:48Z</time>
  <course>214.52</course>
  <speed>6.256021099708664</speed>
  <fix>3d</fix>
</trkpt>
<trkpt lat="-27.2455077" lon="151.3642411">
  <ele>539.5</ele>
  <time>2026-09-01T20:00:48Z</time>
  <course>167.01</course>
  <speed>4.05</speed>
  <fix>3d</fix>
</trkpt>
<trkpt lat="-27.2455269" lon="151.3642473">
  <ele>538.14</ele>
  <time>2026-09-01T20:00:48Z</time>
  <course>207.73</course>
  <speed>6.5034144877902405</speed>
  <fix>3d</fix>
</trkpt>
<trkpt lat="-27.2455162" lon="151.3642436">
  <ele>538.68</ele>
  <time>2026-09-01T20:00:48Z</time>
  <course>163.5</course>
  <speed>5.62</speed>
  <fix>3d</fix>
</trkpt>
<trkpt lat="-27.2455323" lon="151.3642497">
  <ele>538.02</ele>
  <time>2026-09-01T20:00:48Z</time>
  <course>201.91</course>
  <speed>6.532511002669647</speed>
  <fix>3d</fix>
</trkpt>
<trkpt lat="-27.2455162" lon="151.3642436">
  <ele>538.68</ele>
  <time>2026-09-01T20:00:48Z</time>
  <course>163.5</course>
  <speed>5.62</speed>
  <fix>3d</fix>
</trkpt>
<trkpt lat="-27.2455376" lon="151.3642525">
  <ele>537.97</ele>
  <time>2026-09-01T20:00:48Z</time>
  <course>197.13</course>
  <speed>6.404154901312117</speed>
  <fix>3d</fix>
</trkpt>
<trkpt lat="-27.2455266" lon="151.3642475">
  <ele>538.18</ele>
  <time>2026-09-01T20:00:48Z</time>
  <course>159.76</course>
  <speed>6.38</speed>
  <fix>3d</fix>
</trkpt>
<trkpt lat="-27.2455426" lon="151.3642556">
  <ele>537.96</ele>
  <time>2026-09-01T20:00:48Z</time>
  <course>192.89</course>
  <speed>6.218183014353952</speed>
  <fix>3d</fix>
</trkpt>
<trkpt lat="-27.2455266" lon="151.3642475">
  <ele>538.18</ele>
  <time>2026-09-01T20:00:48Z</time>
  <course>159.76</course>
  <speed>6.38</speed>
  <fix>3d</fix>
</trkpt>
<trkpt lat="-27.2455474" lon="151.3642587">
  <ele>537.98</ele>
  <time>2026-09-01T20:00:48Z</time>
  <course>188.71</course>
  <speed>6.045502460507315</speed>
  <fix>3d</fix>
</trkpt>
<trkpt lat="-27.2455373" lon="151.3642526">
  <ele>537.99</ele>
  <time>2026-09-01T20:00:48Z</time>
  <course>154.05</course>
  <speed>6.37</speed>
  <fix>3d</fix>
</trkpt>
<trkpt lat="-27.2455519" lon="151.3642619">
  <ele>538.02</ele>
  <time>2026-09-01T20:00:48Z</time>
  <course>184.6</course>
  <speed>5.896515920439798</speed>
  <fix>3d</fix>
</trkpt>
<trkpt lat="-27.2455373" lon="151.3642526">
  <ele>537.99</ele>
  <time>2026-09-01T20:00:48Z</time>
  <course>154.05</course>
  <speed>6.37</speed>
  <fix>3d</fix>
</trkpt>
<trkpt lat="-27.2455562" lon="151.3642653">
  <ele>538.06</ele>
  <time>2026-09-01T20:00:48Z</time>
  <course>180.85</course>
  <speed>5.76355792891856</speed>
  <fix>3d</fix>
</trkpt>
<trkpt lat="-27.2455471" lon="151.3642586">
  <ele>537.98</ele>
  <time>2026-09-01T20:00:48Z</time>
  <course>148.82</course>
  <speed>6.06</speed>
  <fix>3d</fix>
</trkpt>
<trkpt lat="-27.2455603" lon="151.3642687">
  <ele>538.1</ele>
  <time>2026-09-01T20:00:48Z</time>
  <course>177.87</course>
  <speed>5.622819577400647</speed>
  <fix>3d</fix>
</trkpt>
<trkpt lat="-27.2455471" lon="151.3642586">
  <ele>537.98</ele>
  <time>2026-09-01T20:00:48Z</time>
  <course>148.82</course>
  <speed>6.06</speed>
  <fix>3d</fix>
</trkpt>
<trkpt lat="-27.2455642" lon="151.3642722">
  <ele>538.15</ele>
  <time>2026-09-01T20:00:48Z</time>
  <course>175.76</course>
  <speed>5.478777235843779</speed>
  <fix>3d</fix>
</trkpt>
<trkpt lat="-27.245556" lon="151.3642651">
  <ele>538.05</ele>
  <time>2026-09-01T20:00:48Z</time>
  <course>144.47</course>
  <speed>5.77</speed>
  <fix>3d</fix>
</trkpt>
<trkpt lat="-27.2455679" lon="151.3642758">
  <ele>538.2</ele>
  <time>2026-09-01T20:00:48Z</time>
  <course>174.38</course>
  <speed>5.309406746520745</speed>
  <fix>3d</fix>
</trkpt>
<trkpt lat="-27.245556" lon="151.3642651">
  <ele>538.05</ele>
  <time>2026-09-01T20:00:48Z</time>
  <course>144.47</course>
  <speed>5.77</speed>
  <fix>3d</fix>
</trkpt>
<trkpt lat="-27.2455713" lon="151.3642794">
  <ele>538.26</ele>
  <time>2026-09-01T20:00:48Z</time>
  <course>173.57</course>
  <speed>5.1199414059147195</speed>
  <fix>3d</fix>
</trkpt>
<trkpt lat="-27.2455639" lon="151.3642721">
  <ele>538.15</ele>
  <time>2026-09-01T20:00:48Z</time>
  <course>140.08</course>
  <speed>5.47</speed>
  <fix>3d</fix>
</trkpt>
<trkpt lat="-27.2455745" lon="151.3642831">
  <ele>538.33</ele>
  <time>2026-09-01T20:00:48Z</time>
  <course>173.22</course>
  <speed>4.922194632478484</speed>
  <fix>3d</fix>
</trkpt>
<trkpt lat="-27.2455639" lon="151.3642721">
  <ele>538.15</ele>
  <time>2026-09-01T20:00:48Z</time>
  <course>140.08</course>
  <speed>5.47</speed>
  <fix>3d</fix>
</trkpt>
<trkpt lat="-27.2455774" lon="151.3642865">
  <ele>538.41</ele>
  <time>2026-09-01T20:00:48Z</time>
  <course>173.25</course>
  <speed>4.707366567413249</speed>
  <fix>3d</fix>
</trkpt>
<trkpt lat="-27.245571" lon="151.3642793">
  <ele>538.26</ele>
  <time>2026-09-01T20:00:48Z</time>
  <course>136.01</course>
  <speed>5.12</speed>
  <fix>3d</fix>
</trkpt>
<trkpt lat="-27.2455802" lon="151.3642901">
  <ele>538.5</ele>
  <time>2026-09-01T20:00:48Z</time>
  <course>173.59</course>
  <speed>4.4807365465958835</speed>
  <fix>3d</fix>
</trkpt>
<trkpt lat="-27.245571" lon="151.3642793">
  <ele>538.26</ele>
  <time>2026-09-01T20:00:48Z</time>
  <course>136.01</course>
  <speed>5.12</speed>
  <fix>3d</fix>
</trkpt>
<trkpt lat="-27.2455827" lon="151.3642935">
  <ele>538.6</ele>
  <time>2026-09-01T20:00:48Z</time>
  <course>174.19</course>
  <speed>4.254703279900962</speed>
  <fix>3d</fix>
</trkpt>
<trkpt lat="-27.2455772" lon="151.3642864">
  <ele>538.41</ele>
  <time>2026-09-01T20:00:48Z</time>
  <course>132.57</course>
  <speed>4.71</speed>
  <fix>3d</fix>
</trkpt>
<trkpt lat="-27.245585" lon="151.3642966">
  <ele>538.72</ele>
  <time>2026-09-01T20:00:48Z</time>
  <course>174.99</course>
  <speed>4.023145535523168</speed>
  <fix>3d</fix>
</trkpt>
<trkpt lat="-27.2455772" lon="151.3642864">
  <ele>538.41</ele>
  <time>2026-09-01T20:00:48Z</time>
  <course>132.57</course>
  <speed>4.71</speed>
  <fix>3d</fix>
</trkpt>
<trkpt lat="-27.2455872" lon="151.3642998">
  <ele>538.85</ele>
  <time>2026-09-01T20:00:48Z</time>
  <course>175.96</course>
  <speed>3.784019027436305</speed>
  <fix>3d</fix>
</trkpt>
<trkpt lat="-27.2455825" lon="151.3642932">
  <ele>538.6</ele>
  <time>2026-09-01T20:00:48Z</time>
  <course>129.69</course>
  <speed>4.26</speed>
  <fix>3d</fix>
</trkpt>
<trkpt lat="-27.2455891" lon="151.3643028">
  <ele>539.0</ele>
  <time>2026-09-01T20:00:48Z</time>
  <course>177.06</course>
  <speed>3.5503520952153464</speed>
  <fix>3d</fix>
</trkpt>
<trkpt lat="-27.2455825" lon="151.3642932">
  <ele>538.6</ele>
  <time>2026-09-01T20:00:48Z</time>
  <course>129.69</course>
  <speed>4.26</speed>
  <fix>3d</fix>
</trkpt>
<trkpt lat="-27.2455909" lon="151.3643056">
  <ele>539.16</ele>
  <time>2026-09-01T20:00:48Z</time>
  <course>178.23</course>
  <speed>3.3154486875836278</speed>
  <fix>3d</fix>
</trkpt>
<trkpt lat="-27.245587" lon="151.3642996">
  <ele>538.85</ele>
  <time>2026-09-01T20:00:48Z</time>
  <course>127.27</course>
  <speed>3.8</speed>
  <fix>3d</fix>
</trkpt>
<trkpt lat="-27.2455926" lon="151.3643083">
  <ele>539.33</ele>
  <time>2026-09-01T20:00:48Z</time>
  <course>179.44</course>
  <speed>3.075857603986244</speed>
  <fix>3d</fix>
</trkpt>
<trkpt lat="-27.245587" lon="151.3642996">
  <ele>538.85</ele>
  <time>2026-09-01T20:00:48Z</time>
  <course>127.27</course>
  <speed>3.8</speed>
  <fix>3d</fix>
</trkpt>
<trkpt lat="-27.245594" lon="151.3643108">
  <ele>539.53</ele>
  <time>2026-09-01T20:00:48Z</time>
  <course>180.64</course>
  <speed>2.820957284327432</speed>
  <fix>3d</fix>
</trkpt>
<trkpt lat="-27.2455908" lon="151.3643054">
  <ele>539.16</ele>
  <time>2026-09-01T20:00:48Z</time>
  <course>125.16</course>
  <speed>3.32</speed>
  <fix>3d</fix>
</trkpt>
<trkpt lat="-27.2455953" lon="151.3643131">
  <ele>539.74</ele>
  <time>2026-09-01T20:00:48Z</time>
  <course>181.78</course>
  <speed>2.5641567814780752</speed>
  <fix>3d</fix>
</trkpt>
<trkpt lat="-27.2455908" lon="151.3643054">
  <ele>539.16</ele>
  <time>2026-09-01T20:00:48Z</time>
  <course>125.16</course>
  <speed>3.32</speed>
  <fix>3d</fix>
</trkpt>
<trkpt lat="-27.2455965" lon="151.3643152">
  <ele>539.97</ele>
  <time>2026-09-01T20:00:48Z</time>
  <course>182.82</course>
  <speed>2.3170886905770356</speed>
  <fix>3d</fix>
</trkpt>
<trkpt lat="-27.2455938" lon="151.3643105">
  <ele>539.53</ele>
  <time>2026-09-01T20:00:48Z</time>
  <course>123.01</course>
  <speed>2.83</speed>
  <fix>3d</fix>
</trkpt>
<trkpt lat="-27.2455975" lon="151.3643171">
  <ele>540.2</ele>
  <time>2026-09-01T20:00:48Z</time>
  <course>183.75</course>
  <speed>2.072727671451317</speed>
  <fix>3d</fix>
</trkpt>
<trkpt lat="-27.2455938" lon="151.3643105">
  <ele>539.53</ele>
  <time>2026-09-01T20:00:48Z</time>
  <course>123.01</course>
  <speed>2.83</speed>
  <fix>3d</fix>
</trkpt>
<trkpt lat="-27.2455983" lon="151.3643189">
  <ele>540.45</ele>
  <time>2026-09-01T20:00:48Z</time>
  <course>184.56</course>
  <speed>1.8294534703019913</speed>
  <fix>3d</fix>
</trkpt>
<trkpt lat="-27.2455963" lon="151.364315">
  <ele>539.96</ele>
  <time>2026-09-01T20:00:48Z</time>
  <course>120.59</course>
  <speed>2.33</speed>
  <fix>3d</fix>
</trkpt>
<trkpt lat="-27.245599" lon="151.3643204">
  <ele>540.7</ele>
  <time>2026-09-01T20:00:48Z</time>
  <course>185.25</course>
  <speed>1.6055217220579732</speed>
  <fix>3d</fix>
</trkpt>
<trkpt lat="-27.2455963" lon="151.364315">
  <ele>539.96</ele>
  <time>2026-09-01T20:00:48Z</time>
  <course>120.59</course>
  <speed>2.33</speed>
  <fix>3d</fix>
</trkpt>
<trkpt lat="-27.2455996" lon="151.3643218">
  <ele>540.96</ele>
  <time>2026-09-01T20:00:48Z</time>
  <course>185.83</course>
  <speed>1.391294361377203</speed>
  <fix>3d</fix>
</trkpt>
<trkpt lat="-27.2455981" lon="151.3643187">
  <ele>540.45</ele>
  <time>2026-09-01T20:00:48Z</time>
  <course>117.97</course>
  <speed>1.85</speed>
  <fix>3d</fix>
</trkpt>
<trkpt lat="-27.2456001" lon="151.3643229">
  <ele>541.22</ele>
  <time>2026-09-01T20:00:48Z</time>
  <course>186.31</course>
  <speed>1.1910079764636339</speed>
  <fix>3d</fix>
</trkpt>
<trkpt lat="-27.2455981" lon="151.3643187">
  <ele>540.45</ele>
  <time>2026-09-01T20:00:48Z</time>
  <course>117.97</course>
  <speed>1.85</speed>
  <fix>3d</fix>
</trkpt>
<trkpt lat="-27.2456005" lon="151.3643239">
  <ele>541.48</ele>
  <time>2026-09-01T20:00:48Z</time>
  <course>186.69</course>
  <speed>1.0008995953640905</speed>
  <fix>3d</fix>
</trkpt>
<trkpt lat="-27.2455995" lon="151.3643217">
  <ele>540.95</ele>
  <time>2026-09-01T20:00:48Z</time>
  <course>115.27</course>
  <speed>1.41</speed>
  <fix>3d</fix>
</trkpt>
<trkpt lat="-27.2456008" lon="151.3643248">
  <ele>541.74</ele>
  <time>2026-09-01T20:00:48Z</time>
  <course>186.99</course>
  <speed>0.8193289937503738</speed>
  <fix>3d</fix>
</trkpt>
<trkpt lat="-27.2455995" lon="151.3643217">
  <ele>540.95</ele>
  <time>2026-09-01T20:00:48Z</time>
  <course>115.27</course>
  <speed>1.41</speed>
  <fix>3d</fix>
</trkpt>
<trkpt lat="-27.245601" lon="151.3643256">
  <ele>542.0</ele>
  <time>2026-09-01T20:00:48Z</time>
  <course>187.22</course>
  <speed>0.6389053137985315</speed>
  <fix>3d</fix>
</trkpt>
<trkpt lat="-27.2456004" lon="151.3643239">
  <ele>541.47</ele>
  <time>2026-09-01T20:00:48Z</time>
  <course>112.32</course>
  <speed>1.01</speed>
  <fix>3d</fix>
</trkpt>
<trkpt lat="-27.2456011" lon="151.3643261">
  <ele>542.25</ele>
  <time>2026-09-01T20:00:48Z</time>
  <course>187.39</course>
  <speed>0.4729693436154187</speed>
  <fix>3d</fix>
</trkpt>
<trkpt lat="-27.2456004" lon="151.3643239">
  <ele>541.47</ele>
  <time>2026-09-01T20:00:48Z</time>
  <course>112.32</course>
  <speed>1.01</speed>
  <fix>3d</fix>
</trkpt>
<trkpt lat="-27.2456012" lon="151.3643265">
  <ele>542.51</ele>
  <time>2026-09-01T20:00:48Z</time>
  <course>187.53</course>
  <speed>0.32249030993194194</speed>
  <fix>3d</fix>
</trkpt>
<trkpt lat="-27.2456009" lon="151.3643255">
  <ele>541.98</ele>
  <time>2026-09-01T20:00:48Z</time>
  <course>108.19</course>
  <speed>0.65</speed>
  <fix>3d</fix>
</trkpt>
<trkpt lat="-27.2456012" lon="151.3643267">
  <ele>542.76</ele>
  <time>2026-09-01T20:00:48Z</time>
  <course>187.65</course>
  <speed>0.18110770276274835</speed>
  <fix>3d</fix>
</trkpt>
<trkpt lat="-27.2456009" lon="151.3643255">
  <ele>541.98</ele>
  <time>2026-09-01T20:00:48Z</time>
  <course>108.19</course>
  <speed>0.65</speed>
  <fix>3d</fix>
</trkpt>
<trkpt lat="-27.2456011" lon="151.3643268">
  <ele>543.01</ele>
  <time>2026-09-01T20:00:48Z</time>
  <course>187.77</course>
  <speed>0.09433981132056603</speed>
  <fix>3d</fix>
</trkpt>
<trkpt lat="-27.2456011" lon="151.3643264">
  <ele>542.49</ele>
  <time>2026-09-01T20:00:48Z</time>
  <course>98.85</course>
  <speed>0.33</speed>
  <fix>3d</fix>
</trkpt>
<trkpt lat="-27.245601" lon="151.3643268">
  <ele>543.25</ele>
  <time>2026-09-01T20:00:48Z</time>
  <course>187.91</course>
  <speed>0.15231546211727817</speed>
  <fix>3d</fix>
</trkpt>
<trkpt lat="-27.2456011" lon="151.3643264">
  <ele>542.49</ele>
  <time>2026-09-01T20:00:48Z</time>
  <course>98.85</course>
  <speed>0.33</speed>
  <fix>3d</fix>
</trkpt>
<trkpt lat="-27.2456009" lon="151.3643267">
  <ele>543.5</ele>
  <time>2026-09-01T20:00:48Z</time>
  <course>188.12</course>
  <speed>0.24839484696748443</speed>
  <fix>3d</fix>
</trkpt>
<trkpt lat="-27.2456011" lon="151.3643268">
  <ele>542.99</ele>
  <time>2026-09-01T20:00:48Z</time>
  <course>40.24</course>
  <speed>0.1</speed>
  <fix>3d</fix>
</trkpt>
<trkpt lat="-27.2456008" lon="151.3643266">
  <ele>543.74</ele>
  <time>2026-09-01T20:00:48Z</time>
  <course>188.75</course>
  <speed>0.31827660925679097</speed>
  <fix>3d</fix>
</trkpt>
<trkpt lat="-27.2456011" lon="151.3643268">
  <ele>542.99</ele>
  <time>2026-09-01T20:00:48Z</time>
  <course>40.24</course>
  <speed>0.1</speed>
  <fix>3d</fix>
</trkpt>
<trkpt lat="-27.2456006" lon="151.3643263">
  <ele>543.98</ele>
  <time>2026-09-01T20:00:48Z</time>
  <course>190.22</course>
  <speed>0.3538361202590826</speed>
  <fix>3d</fix>
</trkpt>
<trkpt lat="-27.2456009" lon="151.3643267">
  <ele>543.48</ele>
  <time>2026-09-01T20:00:48Z</time>
  <course>322.76</course>
  <speed>0.23</speed>
  <fix>3d</fix>
</trkpt>
<trkpt lat="-27.2456003" lon="151.3643262">
  <ele>544.22</ele>
  <time>2026-09-01T20:00:48Z</time>
  <course>192.28</course>
  <speed>0.3753664875824692</speed>
  <fix>3d</fix>
</trkpt>
<trkpt lat="-27.2456009" lon="151.3643267">
  <ele>543.48</ele>
  <time>2026-09-01T20:00:48Z</time>
  <course>322.76</course>
  <speed>0.23</speed>
  <fix>3d</fix>
</trkpt>
<trkpt lat="-27.2456001" lon="151.3643258">
  <ele>544.47</ele>
  <time>2026-09-01T20:00:48Z</time>
  <course>194.45</course>
  <speed>0.38948684188300897</speed>
  <fix>3d</fix>
</trkpt>
<trkpt lat="-27.2456005" lon="151.3643263">
  <ele>543.97</ele>
  <time>2026-09-01T20:00:48Z</time>
  <course>316.99</course>
  <speed>0.34</speed>
  <fix>3d</fix>
</trkpt>
<trkpt lat="-27.2455998" lon="151.3643257">
  <ele>544.66</ele>
  <time>2026-09-01T20:00:48Z</time>
  <course>196.77</course>
  <speed>0.33241540277189324</speed>
  <fix>3d</fix>
</trkpt>
<trkpt lat="-27.2456005" lon="151.3643263">
  <ele>543.97</ele>
  <time>2026-09-01T20:00:48Z</time>
  <course>316.99</course>
  <speed>0.34</speed>
  <fix>3d</fix>
</trkpt>
<trkpt lat="-27.2455996" lon="151.3643253">
  <ele>544.75</ele>
  <time>2026-09-01T20:00:48Z</time>
  <course>199.34</course>
  <speed>0.3111269837220809</speed>
  <fix>3d</fix>
</trkpt>
<trkpt lat="-27.2456001" lon="151.3643259">
  <ele>544.43</ele>
  <time>2026-09-01T20:00:48Z</time>
  <course>316.93</course>
  <speed>0.36</speed>
  <fix>3d</fix>
</trkpt>
<trkpt lat="-27.2455994" lon="151.3643252">
  <ele>544.74</ele>
  <time>2026-09-01T20:00:48Z</time>
  <course>201.91</course>
  <speed>0.3111269837220809</speed>
  <fix>3d</fix>
</trkpt>
<trkpt lat="-27.2456001" lon="151.3643259">
  <ele>544.43</ele>
  <time>2026-09-01T20:00:48Z</time>
  <course>316.93</course>
  <speed>0.36</speed>
  <fix>3d</fix>
</trkpt>
<trkpt lat="-27.2455992" lon="151.3643249">
  <ele>544.64</ele>
  <time>2026-09-01T20:00:48Z</time>
  <course>204.47</course>
  <speed>0.2973213749463701</speed>
  <fix>3d</fix>
</trkpt>
<trkpt lat="-27.2455996" lon="151.3643254">
  <ele>544.69</ele>
  <time>2026-09-01T20:00:48Z</time>
  <course>315.01</course>
  <speed>0.32</speed>
  <fix>3d</fix>
</trkpt>
<trkpt lat="-27.2455991" lon="151.3643248">
  <ele>544.44</ele>
  <time>2026-09-01T20:00:48Z</time>
  <course>207.23</course>
  <speed>0.26248809496813374</speed>
  <fix>3d</fix>
</trkpt>
<trkpt lat="-27.2455996" lon="151.3643254">
  <ele>544.69</ele>
  <time>2026-09-01T20:00:48Z</time>
  <course>315.01</course>
  <speed>0.32</speed>
  <fix>3d</fix>
</trkpt>
<trkpt lat="-27.2455989" lon="151.3643246">
  <ele>544.16</ele>
  <time>2026-09-01T20:00:48Z</time>
  <course>210.71</course>
  <speed>0.19209372712298545</speed>
  <fix>3d</fix>
</trkpt>
<trkpt lat="-27.2455992" lon="151.364325">
  <ele>544.59</ele>
  <time>2026-09-01T20:00:48Z</time>
  <course>312.86</course>
  <speed>0.29</speed>
  <fix>3d</fix>
</trkpt>
<trkpt lat="-27.2455988" lon="151.3643243">
  <ele>543.83</ele>
  <time>2026-09-01T20:00:48Z</time>
  <course>215.06</course>
  <speed>0.10770329614269007</speed>
  <fix>3d</fix>
</trkpt>
<trkpt lat="-27.2455992" lon="151.364325">
  <ele>544.59</ele>
  <time>2026-09-01T20:00:48Z</time>
  <course>312.86</course>
  <speed>0.29</speed>
  <fix>3d</fix>
</trkpt>
<trkpt lat="-27.2455988" lon="151.3643243">
  <ele>543.44</ele>
  <time>2026-09-01T20:00:48Z</time>
  <course>220.11</course>
  <speed>0.08062257748298549</speed>
  <fix>3d</fix>
</trkpt>
<trkpt lat="-27.2455989" lon="151.3643246">
  <ele>544.15</ele>
  <time>2026-09-01T20:00:48Z</time>
  <course>306.85</course>
  <speed>0.19</speed>
  <fix>3d</fix>
</trkpt>
<trkpt lat="-27.2455989" lon="151.3643243">
  <ele>543.0</ele>
  <time>2026-09-01T20:00:48Z</time>
  <course>224.77</course>
  <speed>0.12083045973594572</speed>
  <fix>3d</fix>
</trkpt>
<trkpt lat="-27.2455989" lon="151.3643246">
  <ele>544.15</ele>
  <time>2026-09-01T20:00:48Z</time>
  <course>306.85</course>
  <speed>0.19</speed>
  <fix>3d</fix>
</trkpt>
<trkpt lat="-27.2455989" lon="151.3643241">
  <ele>542.51</ele>
  <time>2026-09-01T20:00:48Z</time>
  <course>228.71</course>
  <speed>0.1664331697709324</speed>
  <fix>3d</fix>
</trkpt>
<trkpt lat="-27.2455988" lon="151.3643243">
  <ele>543.43</ele>
  <time>2026-09-01T20:00:48Z</time>
  <course>269.8</course>
  <speed>0.1</speed>
  <fix>3d</fix>
</trkpt>
<trkpt lat="-27.2455989" lon="151.3643238">
  <ele>541.98</ele>
  <time>2026-09-01T20:00:48Z</time>
  <course>232.07</course>
  <speed>0.24839484696748443</speed>
  <fix>3d</fix>
</trkpt>
<trkpt lat="-27.2455988" lon="151.3643243">
  <ele>543.43</ele>
  <time>2026-09-01T20:00:48Z</time>
  <course>269.8</course>
  <speed>0.1</speed>
  <fix>3d</fix>
</trkpt>
<trkpt lat="-27.2455991" lon="151.3643237">
  <ele>541.41</ele>
  <time>2026-09-01T20:00:48Z</time>
  <course>234.97</course>
  <speed>0.36796738985948196</speed>
  <fix>3d</fix>
</trkpt>
<trkpt lat="-27.2455989" lon="151.3643241">
  <ele>542.52</ele>
  <time>2026-09-01T20:00:48Z</time>
  <course>235.33</course>
  <speed>0.18</speed>
  <fix>3d</fix>
</trkpt>
<trkpt lat="-27.2455994" lon="151.3643234">
  <ele>540.79</ele>
  <time>2026-09-01T20:00:48Z</time>
  <course>237.71</course>
  <speed>0.49517673612559787</speed>
  <fix>3d</fix>
</trkpt>
<trkpt lat="-27.2455989" lon="151.3643241">
  <ele>542.52</ele>
  <time>2026-09-01T20:00:48Z</time>
  <course>235.33</course>
  <speed>0.18</speed>
  <fix>3d</fix>
</trkpt>
<trkpt lat="-27.2455998" lon="151.3643229">
  <ele>540.1</ele>
  <time>2026-09-01T20:00:48Z</time>
  <course>240.29</course>
  <speed>0.6224146527838174</speed>
  <fix>3d</fix>
</trkpt>
<trkpt lat="-27.2455991" lon="151.3643237">
  <ele>541.42</ele>
  <time>2026-09-01T20:00:48Z</time>
  <course>227.35</course>
  <speed>0.37</speed>
  <fix>3d</fix>
</trkpt>
<trkpt lat="-27.2456003" lon="151.3643223">
  <ele>539.34</ele>
  <time>2026-09-01T20:00:48Z</time>
  <course>243.05</course>
  <speed>1.3330416347586447</speed>
  <fix>3d</fix>
</trkpt>
<trkpt lat="-27.2455991" lon="151.3643237">
  <ele>541.42</ele>
  <time>2026-09-01T20:00:48Z</time>
  <course>227.35</course>
  <speed>0.37</speed>
  <fix>3d</fix>
</trkpt>
<trkpt lat="-27.2456013" lon="151.364321">
  <ele>538.52</ele>
  <time>2026-09-01T20:00:48Z</time>
  <course>247.53</course>
  <speed>1.9912307751739877</speed>
  <fix>3d</fix>
</trkpt>
<trkpt lat="-27.2455998" lon="151.3643228">
  <ele>540.09</ele>
  <time>2026-09-01T20:00:48Z</time>
  <course>228.38</course>
  <speed>0.9</speed>
  <fix>3d</fix>
</trkpt>
<trkpt lat="-27.2456025" lon="151.3643193">
  <ele>537.61</ele>
  <time>2026-09-01T20:00:48Z</time>
  <course>255.52</course>
  <speed>2.2005681084665385</speed>
  <fix>3d</fix>
</trkpt>
<trkpt lat="-27.2455998" lon="151.3643228">
  <ele>540.09</ele>
  <time>2026-09-01T20:00:48Z</time>
  <course>228.38</course>
  <speed>0.9</speed>
  <fix>3d</fix>
</trkpt>
<trkpt lat="-27.2456037" lon="151.3643176">
  <ele>536.6</ele>
  <time>2026-09-01T20:00:48Z</time>
  <course>267.17</course>
  <speed>2.086552180032889</speed>
  <fix>3d</fix>
</trkpt>
<trkpt lat="-27.2456013" lon="151.3643208">
  <ele>538.5</ele>
  <time>2026-09-01T20:00:48Z</time>
  <course>230.92</course>
  <speed>1.75</speed>
  <fix>3d</fix>
</trkpt>
<trkpt lat="-27.2456048" lon="151.364316">
  <ele>535.51</ele>
  <time>2026-09-01T20:00:48Z</time>
  <course>267.77</course>
  <speed>1.970913493789111</speed>
  <fix>3d</fix>
</trkpt>
<trkpt lat="-27.2456013" lon="151.3643208">
  <ele>538.5</ele>
  <time>2026-09-01T20:00:48Z</time>
  <course>230.92</course>
  <speed>1.75</speed>
  <fix>3d</fix>
</trkpt>
<trkpt lat="-27.2456059" lon="151.3643143">
  <ele>534.32</ele>
  <time>2026-09-01T20:00:48Z</time>
  <course>263.81</course>
  <speed>2.1380598681982694</speed>
  <fix>3d</fix>
</trkpt>
<trkpt lat="-27.2456036" lon="151.3643176">
  <ele>536.59</ele>
  <time>2026-09-01T20:00:48Z</time>
  <course>231.55</course>
  <speed>2.09</speed>
  <fix>3d</fix>
</trkpt>
<trkpt lat="-27.2456071" lon="151.3643123">
  <ele>533.06</ele>
  <time>2026-09-01T20:00:48Z</time>
  <course>264.13</course>
  <speed>2.757480734293533</speed>
  <fix>3d</fix>
</trkpt>
<trkpt lat="-27.2456036" lon="151.3643176">
  <ele>536.59</ele>
  <time>2026-09-01T20:00:48Z</time>
  <course>231.55</course>
  <speed>2.09</speed>
  <fix>3d</fix>
</trkpt>
<trkpt lat="-27.2456083" lon="151.3643093">
  <ele>531.72</ele>
  <time>2026-09-01T20:00:48Z</time>
  <course>265.23</course>
  <speed>3.777115301390732</speed>
  <fix>3d</fix>
</trkpt>
<trkpt lat="-27.2456059" lon="151.3643142">
  <ele>534.32</ele>
  <time>2026-09-01T20:00:48Z</time>
  <course>236.64</course>
  <speed>2.35</speed>
  <fix>3d</fix>
</trkpt>
<trkpt lat="-27.2456094" lon="151.364305">
  <ele>530.35</ele>
  <time>2026-09-01T20:00:48Z</time>
  <course>265.4</course>
  <speed>5.031709451071276</speed>
  <fix>3d</fix>
</trkpt>
<trkpt lat="-27.2456059" lon="151.3643142">
  <ele>534.32</ele>
  <time>2026-09-01T20:00:48Z</time>
  <course>236.64</course>
  <speed>2.35</speed>
  <fix>3d</fix>
</trkpt>
<trkpt lat="-27.2456103" lon="151.3642994">
  <ele>528.94</ele>
  <time>2026-09-01T20:00:48Z</time>
  <course>264.62</course>
  <speed>6.306195366463047</speed>
  <fix>3d</fix>
</trkpt>
<trkpt lat="-27.2456082" lon="151.3643088">
  <ele>531.74</ele>
  <time>2026-09-01T20:00:48Z</time>
  <course>251.33</course>
  <speed>3.83</speed>
  <fix>3d</fix>
</trkpt>
<trkpt lat="-27.2456109" lon="151.3642923">
  <ele>527.52</ele>
  <time>2026-09-01T20:00:48Z</time>
  <course>263.57</course>
  <speed>7.577077272933146</speed>
  <fix>3d</fix>
</trkpt>
<trkpt lat="-27.2456082" lon="151.3643088">
  <ele>531.74</ele>
  <time>2026-09-01T20:00:48Z</time>
  <course>251.33</course>
  <speed>3.83</speed>
  <fix>3d</fix>
</trkpt>
<trkpt lat="-27.2456115" lon="151.3642841">
  <ele>526.09</ele>
  <time>2026-09-01T20:00:48Z</time>
  <course>262.75</course>
  <speed>8.84773982438453</speed>
  <fix>3d</fix>
</trkpt>
<trkpt lat="-27.2456101" lon="151.3642989">
  <ele>528.96</ele>
  <time>2026-09-01T20:00:48Z</time>
  <course>261.96</course>
  <speed>6.25</speed>
  <fix>3d</fix>
</trkpt>
<trkpt lat="-27.245612" lon="151.3642741">
  <ele>524.62</ele>
  <time>2026-09-01T20:00:48Z</time>
  <course>262.3</course>
  <speed>10.19139342778994</speed>
  <fix>3d</fix>
</trkpt>
<trkpt lat="-27.2456101" lon="151.3642989">
  <ele>528.96</ele>
  <time>2026-09-01T20:00:48Z</time>
  <course>261.96</course>
  <speed>6.25</speed>
  <fix>3d</fix>
</trkpt>
<trkpt lat="-27.2456127" lon="151.3642633">
  <ele>523.23</ele>
  <time>2026-09-01T20:00:48Z</time>
  <course>262.18</course>
  <speed>11.51760825866204</speed>
  <fix>3d</fix>
</trkpt>
<trkpt lat="-27.2456114" lon="151.3642836">
  <ele>526.12</ele>
  <time>2026-09-01T20:00:48Z</time>
  <course>265.78</course>
  <speed>8.83</speed>
  <fix>3d</fix>
</trkpt>
<trkpt lat="-27.2456137" lon="151.364251">
  <ele>521.89</ele>
  <time>2026-09-01T20:00:48Z</time>
  <course>262.28</course>
  <speed>12.798253787138306</speed>
  <fix>3d</fix>
</trkpt>
<trkpt lat="-27.2456114" lon="151.3642836">
  <ele>526.12</ele>
  <time>2026-09-01T20:00:48Z</time>
  <course>265.78</course>
  <speed>8.83</speed>
  <fix>3d</fix>
</trkpt>
<trkpt lat="-27.2456151" lon="151.3642376">
  <ele>520.61</ele>
  <time>2026-09-01T20:00:48Z</time>
  <course>262.49</course>
  <speed>14.019650494930323</speed>
  <fix>3d</fix>
</trkpt>
<trkpt lat="-27.2456128" lon="151.3642633">
  <ele>523.33</ele>
  <time>2026-09-01T20:00:48Z</time>
  <course>265.08</course>
  <speed>11.42</speed>
  <fix>3d</fix>
</trkpt>
<trkpt lat="-27.2456169" lon="151.3642228">
  <ele>519.41</ele>
  <time>2026-09-01T20:00:48Z</time>
  <course>262.73</course>
  <speed>15.158974239703689</speed>
  <fix>3d</fix>
</trkpt>
<trkpt lat="-27.2456128" lon="151.3642633">
  <ele>523.33</ele>
  <time>2026-09-01T20:00:48Z</time>
  <course>265.08</course>
  <speed>11.42</speed>
  <fix>3d</fix>
</trkpt>
<trkpt lat="-27.2456189" lon="151.3642071">
  <ele>518.32</ele>
  <time>2026-09-01T20:00:48Z</time>
  <course>262.99</course>
  <speed>16.194360129378378</speed>
  <fix>3d</fix>
</trkpt>
<trkpt lat="-27.2456152" lon="151.3642378">
  <ele>520.71</ele>
  <time>2026-09-01T20:00:48Z</time>
  <course>262.95</course>
  <speed>13.9</speed>
  <fix>3d</fix>
</trkpt>
<trkpt lat="-27.2456211" lon="151.3641906">
  <ele>517.33</ele>
  <time>2026-09-01T20:00:48Z</time>
  <course>263.25</course>
  <speed>17.096458697636773</speed>
  <fix>3d</fix>
</trkpt>
<trkpt lat="-27.2456152" lon="151.3642378">
  <ele>520.71</ele>
  <time>2026-09-01T20:00:48Z</time>
  <course>262.95</course>
  <speed>13.9</speed>
  <fix>3d</fix>
</trkpt>
<trkpt lat="-27.2456233" lon="151.364173">
  <ele>516.47</ele>
  <time>2026-09-01T20:00:48Z</time>
  <course>263.54</course>
  <speed>17.849383742863505</speed>
  <fix>3d</fix>
</trkpt>
<trkpt lat="-27.2456189" lon="151.3642077">
  <ele>518.43</ele>
  <time>2026-09-01T20:00:48Z</time>
  <course>261.83</course>
  <speed>16.07</speed>
  <fix>3d</fix>
</trkpt>
<trkpt lat="-27.2456253" lon="151.3641549">
  <ele>515.74</ele>
  <time>2026-09-01T20:00:48Z</time>
  <course>263.87</course>
  <speed>18.421837584779645</speed>
  <fix>3d</fix>
</trkpt>
<trkpt lat="-27.2456189" lon="151.3642077">
  <ele>518.43</ele>
  <time>2026-09-01T20:00:48Z</time>
  <course>261.83</course>
  <speed>16.07</speed>
  <fix>3d</fix>
</trkpt>
<trkpt lat="-27.2456272" lon="151.3641362">
  <ele>515.14</ele>
  <time>2026-09-01T20:00:48Z</time>
  <course>264.21</course>
  <speed>18.82232716748915</speed>
  <fix>3d</fix>
</trkpt>
<trkpt lat="-27.2456231" lon="151.3641738">
  <ele>516.58</ele>
  <time>2026-09-01T20:00:48Z</time>
  <course>262.42</course>
  <speed>17.72</speed>
  <fix>3d</fix>
</trkpt>
<trkpt lat="-27.2456289" lon="151.364117">
  <ele>514.68</ele>
  <time>2026-09-01T20:00:48Z</time>
  <course>264.46</course>
  <speed>19.03876309007494</speed>
  <fix>3d</fix>
</trkpt>
<trkpt lat="-27.2456231" lon="151.3641738">
  <ele>516.58</ele>
  <time>2026-09-01T20:00:48Z</time>
  <course>262.42</course>
  <speed>17.72</speed>
  <fix>3d</fix>
</trkpt>
<trkpt lat="-27.2456303" lon="151.3640979">
  <ele>514.34</ele>
  <time>2026-09-01T20:00:48Z</time>
  <course>264.59</course>
  <speed>19.10461986012807</speed>
  <fix>3d</fix>
</trkpt>
<trkpt lat="-27.245627" lon="151.3641371">
  <ele>515.24</ele>
  <time>2026-09-01T20:00:48Z</time>
  <course>263.91</course>
  <speed>18.71</speed>
  <fix>3d</fix>
</trkpt>
<trkpt lat="-27.2456316" lon="151.3640787">
  <ele>514.07</ele>
  <time>2026-09-01T20:00:48Z</time>
  <course>264.7</course>
  <speed>19.066751165313928</speed>
  <fix>3d</fix>
</trkpt>
<trkpt lat="-27.245627" lon="151.3641371">
  <ele>515.24</ele>
  <time>2026-09-01T20:00:48Z</time>
  <course>263.91</course>
  <speed>18.71</speed>
  <fix>3d</fix>
</trkpt>
<trkpt lat="-27.245633" lon="151.36406">
  <ele>513.87</ele>
  <time>2026-09-01T20:00:48Z</time>
  <course>264.85</course>
  <speed>18.97472002428494</speed>
  <fix>3d</fix>
</trkpt>
<trkpt lat="-27.2456302" lon="151.364099">
  <ele>514.4</ele>
  <time>2026-09-01T20:00:48Z</time>
  <course>265.13</course>
  <speed>19.05</speed>
  <fix>3d</fix>
</trkpt>
<trkpt lat="-27.2456343" lon="151.3640409">
  <ele>513.68</ele>
  <time>2026-09-01T20:00:48Z</time>
  <course>265.09</course>
  <speed>18.8543072002129</speed>
  <fix>3d</fix>
</trkpt>
<trkpt lat="-27.2456302" lon="151.364099">
  <ele>514.4</ele>
  <time>2026-09-01T20:00:48Z</time>
  <course>265.13</course>
  <speed>19.05</speed>
  <fix>3d</fix>
</trkpt>
<trkpt lat="-27.2456356" lon="151.364022">
  <ele>513.5</ele>
  <time>2026-09-01T20:00:48Z</time>
  <course>265.35</course>
  <speed>18.735420998739258</speed>
  <fix>3d</fix>
</trkpt>
<trkpt lat="-27.2456328" lon="151.3640606">
  <ele>513.88</ele>
  <time>2026-09-01T20:00:48Z</time>
  <course>265.58</course>
  <speed>18.97</speed>
  <fix>3d</fix>
</trkpt>
<trkpt lat="-27.2456369" lon="151.3640031">
  <ele>513.33</ele>
  <time>2026-09-01T20:00:48Z</time>
  <course>265.58</course>
  <speed>18.60658485590518</speed>
  <fix>3d</fix>
</trkpt>
<trkpt lat="-27.2456328" lon="151.3640606">
  <ele>513.88</ele>
  <time>2026-09-01T20:00:48Z</time>
  <course>265.58</course>
  <speed>18.97</speed>
  <fix>3d</fix>
</trkpt>
<trkpt lat="-27.2456382" lon="151.3639844">
  <ele>513.16</ele>
  <time>2026-09-01T20:00:48Z</time>
  <course>265.76</course>
  <speed>18.486952155506867</speed>
  <fix>3d</fix>
</trkpt>
<trkpt lat="-27.2456355" lon="151.3640227">
  <ele>513.51</ele>
  <time>2026-09-01T20:00:48Z</time>
  <course>265.57</course>
  <speed>18.74</speed>
  <fix>3d</fix>
</trkpt>
<trkpt lat="-27.2456395" lon="151.363966">
  <ele>513.0</ele>
  <time>2026-09-01T20:00:48Z</time>
  <course>265.86</course>
  <speed>18.355786553563973</speed>
  <fix>3d</fix>
</trkpt>
<trkpt lat="-27.2456355" lon="151.3640227">
  <ele>513.51</ele>
  <time>2026-09-01T20:00:48Z</time>
  <course>265.57</course>
  <speed>18.74</speed>
  <fix>3d</fix>
</trkpt>
<trkpt lat="-27.2456408" lon="151.3639476">
  <ele>512.84</ele>
  <time>2026-09-01T20:00:48Z</time>
  <course>265.9</course>
  <speed>18.23459623901774</speed>
  <fix>3d</fix>
</trkpt>
<trkpt lat="-27.2456381" lon="151.3639851">
  <ele>513.17</ele>
  <time>2026-09-01T20:00:48Z</time>
  <course>265.51</course>
  <speed>18.49</speed>
  <fix>3d</fix>
</trkpt>
<trkpt lat="-27.245642" lon="151.3639292">
  <ele>512.66</ele>
  <time>2026-09-01T20:00:48Z</time>
  <course>265.88</course>
  <speed>18.11188836096336</speed>
  <fix>3d</fix>
</trkpt>
<trkpt lat="-27.2456381" lon="151.3639851">
  <ele>513.17</ele>
  <time>2026-09-01T20:00:48Z</time>
  <course>265.51</course>
  <speed>18.49</speed>
  <fix>3d</fix>
</trkpt>
<trkpt lat="-27.2456433" lon="151.3639105">
  <ele>512.51</ele>
  <time>2026-09-01T20:00:48Z</time>
  <course>265.83</course>
  <speed>17.99846937936668</speed>
  <fix>3d</fix>
</trkpt>
<trkpt lat="-27.2456407" lon="151.3639481">
  <ele>512.83</ele>
  <time>2026-09-01T20:00:48Z</time>
  <course>265.58</course>
  <speed>18.24</speed>
  <fix>3d</fix>
</trkpt>
<trkpt lat="-27.2456444" lon="151.3638924">
  <ele>512.34</ele>
  <time>2026-09-01T20:00:48Z</time>
  <course>265.79</course>
  <speed>17.875172726438198</speed>
  <fix>3d</fix>
</trkpt>
<trkpt lat="-27.2456407" lon="151.3639481">
  <ele>512.83</ele>
  <time>2026-09-01T20:00:48Z</time>
  <course>265.58</course>
  <speed>18.24</speed>
  <fix>3d</fix>
</trkpt>
<trkpt lat="-27.2438451" lon="151.3679751">
  <ele>542.96</ele>
  <time>2026-09-01T20:00:48Z</time>
  <course>250.01</course>
  <speed>0.0</speed>
  <fix>3d</fix>
</trkpt>
<trkpt lat="-27.2456432" lon="151.3639115">
  <ele>512.51</ele>
  <time>2026-09-01T20:00:48Z</time>
  <course>265.78</course>
  <speed>18.0</speed>
  <fix>3d</fix>
</trkpt>
<trkpt lat="-27.2438452" lon="151.3679751">
  <ele>542.83</ele>
  <time>2026-09-01T20:00:48Z</time>
  <course>250.0</course>
  <speed>0.01</speed>
  <fix>3d</fix>
</trkpt>
<trkpt lat="-27.2456432" lon="151.3639115">
  <ele>512.51</ele>
  <time>2026-09-01T20:00:48Z</time>
  <course>265.78</course>
  <speed>18.0</speed>
  <fix>3d</fix>
</trkpt>
<trkpt lat="-27.2438452" lon="151.3679751">
  <ele>542.61</ele>
  <time>2026-09-01T20:00:48Z</time>
  <course>249.99</course>
  <speed>0.06082762530298219</speed>
  <fix>3d</fix>
</trkpt>
<trkpt lat="-27.2447448" lon="151.3659342">
  <ele>527.59</ele>
  <time>2026-09-01T20:00:48Z</time>
  <course>265.9</course>
  <speed>8.95</speed>
  <fix>3d</fix>
</trkpt>
<trkpt lat="-27.2438452" lon="151.367975">
  <ele>542.29</ele>
  <time>2026-09-01T20:00:48Z</time>
  <course>249.36</course>
  <speed>0.1392838827718412</speed>
  <fix>3d</fix>
</trkpt>
<trkpt lat="-27.2447448" lon="151.3659342">
  <ele>527.59</ele>
  <time>2026-09-01T20:00:48Z</time>
  <course>265.9</course>
  <speed>8.95</speed>
  <fix>3d</fix>
</trkpt>
<trkpt lat="-27.2438453" lon="151.3679747">
  <ele>541.91</ele>
  <time>2026-09-01T20:00:48Z</time>
  <course>246.13</course>
  <speed>0.28600699292150183</speed>
  <fix>3d</fix>
</trkpt>
<trkpt lat="-27.2438452" lon="151.367975">
  <ele>542.58</ele>
  <time>2026-09-01T20:00:48Z</time>
  <course>251.23</course>
  <speed>0.07</speed>
  <fix>3d</fix>
</trkpt>
<trkpt lat="-27.2438456" lon="151.3679746">
  <ele>541.46</ele>
  <time>2026-09-01T20:00:48Z</time>
  <course>236.57</course>
  <speed>0.46486557196677836</speed>
  <fix>3d</fix>
</trkpt>
<trkpt lat="-27.2438452" lon="151.367975">
  <ele>542.58</ele>
  <time>2026-09-01T20:00:48Z</time>
  <course>251.23</course>
  <speed>0.07</speed>
  <fix>3d</fix>
</trkpt>
<trkpt lat="-27.2438459" lon="151.3679743">
  <ele>540.94</ele>
  <time>2026-09-01T20:00:48Z</time>
  <course>235.24</course>
  <speed>0.45044422518220834</speed>
  <fix>3d</fix>
</trkpt>
<trkpt lat="-27.2438454" lon="151.3679748">
  <ele>541.9</ele>
  <time>2026-09-01T20:00:48Z</time>
  <course>210.05</course>
  <speed>0.28</speed>
  <fix>3d</fix>
</trkpt>
<trkpt lat="-27.2438453" lon="151.3679737">
  <ele>540.36</ele>
  <time>2026-09-01T20:00:48Z</time>
  <course>247.88</course>
  <speed>1.7224691579241702</speed>
  <fix>3d</fix>
</trkpt>
<trkpt lat="-27.2438454" lon="151.3679748">
  <ele>541.9</ele>
  <time>2026-09-01T20:00:48Z</time>
  <course>210.05</course>
  <speed>0.28</speed>
  <fix>3d</fix>
</trkpt>
<trkpt lat="-27.2438436" lon="151.3679723">
  <ele>539.79</ele>
  <time>2026-09-01T20:00:48Z</time>
  <course>257.59</course>
  <speed>2.9875073221667594</speed>
  <fix>3d</fix>
</trkpt>
<trkpt lat="-27.2438455" lon="151.3679741">
  <ele>540.94</ele>
  <time>2026-09-01T20:00:48Z</time>
  <course>302.17</course>
  <speed>0.73</speed>
  <fix>3d</fix>
</trkpt>
<trkpt lat="-27.2438408" lon="151.3679706">
  <ele>539.28</ele>
  <time>2026-09-01T20:00:48Z</time>
  <course>265.38</course>
  <speed>3.939974619207591</speed>
  <fix>3d</fix>
</trkpt>
<trkpt lat="-27.2438455" lon="151.3679741">
  <ele>540.94</ele>
  <time>2026-09-01T20:00:48Z</time>
  <course>302.17</course>
  <speed>0.73</speed>
  <fix>3d</fix>
</trkpt>
<trkpt lat="-27.2438373" lon="151.3679688">
  <ele>538.79</ele>
  <time>2026-09-01T20:00:48Z</time>
  <course>272.23</course>
  <speed>4.665543912557249</speed>
  <fix>3d</fix>
</trkpt>
<trkpt lat="-27.2438432" lon="151.3679722">
  <ele>539.85</ele>
  <time>2026-09-01T20:00:48Z</time>
  <course>328.86</course>
  <speed>2.75</speed>
  <fix>3d</fix>
</trkpt>
<trkpt lat="-27.2438331" lon="151.3679666">
  <ele>538.41</ele>
  <time>2026-09-01T20:00:48Z</time>
  <course>278.86</course>
  <speed>5.450587124338075</speed>
  <fix>3d</fix>
</trkpt>
<trkpt lat="-27.2438432" lon="151.3679722">
  <ele>539.85</ele>
  <time>2026-09-01T20:00:48Z</time>
  <course>328.86</course>
  <speed>2.75</speed>
  <fix>3d</fix>
</trkpt>
<trkpt lat="-27.2438284" lon="151.3679644">
  <ele>538.11</ele>
  <time>2026-09-01T20:00:48Z</time>
  <course>285.95</course>
  <speed>5.9794732209451364</speed>
  <fix>3d</fix>
</trkpt>
<trkpt lat="-27.2438372" lon="151.3679687">
  <ele>538.86</ele>
  <time>2026-09-01T20:00:48Z</time>
  <course>335.17</course>
  <speed>4.66</speed>
  <fix>3d</fix>
</trkpt>
<trkpt lat="-27.2438232" lon="151.3679622">
  <ele>537.9</ele>
  <time>2026-09-01T20:00:48Z</time>
  <course>292.59</course>
  <speed>6.255909206502281</speed>
  <fix>3d</fix>
</trkpt>
<trkpt lat="-27.2438372" lon="151.3679687">
  <ele>538.86</ele>
  <time>2026-09-01T20:00:48Z</time>
  <course>335.17</course>
  <speed>4.66</speed>
  <fix>3d</fix>
</trkpt>
<trkpt lat="-27.2438178" lon="151.3679603">
  <ele>537.77</ele>
  <time>2026-09-01T20:00:48Z</time>
  <course>298.28</course>
  <speed>6.303562484817613</speed>
  <fix>3d</fix>
</trkpt>
<trkpt lat="-27.2438284" lon="151.3679646">
  <ele>538.17</ele>
  <time>2026-09-01T20:00:48Z</time>
  <course>338.54</course>
  <speed>5.83</speed>
  <fix>3d</fix>
</trkpt>
<trkpt lat="-27.2438123" lon="151.3679588">
  <ele>537.73</ele>
  <time>2026-09-01T20:00:48Z</time>
  <course>302.86</course>
  <speed>6.171782562598912</speed>
  <fix>3d</fix>
</trkpt>
<trkpt lat="-27.2438284" lon="151.3679646">
  <ele>538.17</ele>
  <time>2026-09-01T20:00:48Z</time>
  <course>338.54</course>
  <speed>5.83</speed>
  <fix>3d</fix>
</trkpt>
<trkpt lat="-27.243807" lon="151.3679578">
  <ele>537.75</ele>
  <time>2026-09-01T20:00:48Z</time>
  <course>306.71</course>
  <speed>5.973809504830231</speed>
  <fix>3d</fix>
</trkpt>
<trkpt lat="-27.243818" lon="151.3679606">
  <ele>537.81</ele>
  <time>2026-09-01T20:00:48Z</time>
  <course>344.33</course>
  <speed>6.2</speed>
  <fix>3d</fix>
</trkpt>
<trkpt lat="-27.2438017" lon="151.3679572">
  <ele>537.83</ele>
  <time>2026-09-01T20:00:48Z</time>
  <course>310.42</course>
  <speed>5.792495144581478</speed>
  <fix>3d</fix>
</trkpt>
<trkpt lat="-27.243818" lon="151.3679606">
  <ele>537.81</ele>
  <time>2026-09-01T20:00:48Z</time>
  <course>344.33</course>
  <speed>6.2</speed>
  <fix>3d</fix>
</trkpt>
<trkpt lat="-27.2437967" lon="151.3679566">
  <ele>537.95</ele>
  <time>2026-09-01T20:00:48Z</time>
  <course>314.07</course>
  <speed>5.661457409536877</speed>
  <fix>3d</fix>
</trkpt>
<trkpt lat="-27.2438073" lon="151.367958">
  <ele>537.78</ele>
  <time>2026-09-01T20:00:48Z</time>
  <course>351.46</course>
  <speed>5.98</speed>
  <fix>3d</fix>
</trkpt>
<trkpt lat="-27.2437915" lon="151.3679564">
  <ele>538.11</ele>
  <time>2026-09-01T20:00:48Z</time>
  <course>317.62</course>
  <speed>5.577544262486851</speed>
  <fix>3d</fix>
</trkpt>
<trkpt lat="-27.2438073" lon="151.367958">
  <ele>537.78</ele>
  <time>2026-09-01T20:00:48Z</time>
  <course>351.46</course>
  <speed>5.98</speed>
  <fix>3d</fix>
</trkpt>
<trkpt lat="-27.2437865" lon="151.367956">
  <ele>538.29</ele>
  <time>2026-09-01T20:00:48Z</time>
  <course>320.35</course>
  <speed>5.516611278674618</speed>
  <fix>3d</fix>
</trkpt>
<trkpt lat="-27.2437969" lon="151.3679568">
  <ele>537.96</ele>
  <time>2026-09-01T20:00:48Z</time>
  <course>355.81</course>
  <speed>5.69</speed>
  <fix>3d</fix>
</trkpt>
<trkpt lat="-27.2437816" lon="151.3679558">
  <ele>538.51</ele>
  <time>2026-09-01T20:00:48Z</time>
  <course>322.28</course>
  <speed>5.476659565830252</speed>
  <fix>3d</fix>
</trkpt>
<trkpt lat="-27.2437969" lon="151.3679568">
  <ele>537.96</ele>
  <time>2026-09-01T20:00:48Z</time>
  <course>355.81</course>
  <speed>5.69</speed>
  <fix>3d</fix>
</trkpt>
<trkpt lat="-27.2437767" lon="151.3679555">
  <ele>538.73</ele>
  <time>2026-09-01T20:00:48Z</time>
  <course>323.52</course>
  <speed>5.44720111616966</speed>
  <fix>3d</fix>
</trkpt>
<trkpt lat="-27.2437868" lon="151.3679561">
  <ele>538.29</ele>
  <time>2026-09-01T20:00:48Z</time>
  <course>357.01</course>
  <speed>5.53</speed>
  <fix>3d</fix>
</trkpt>
<trkpt lat="-27.2437718" lon="151.3679551">
  <ele>538.98</ele>
  <time>2026-09-01T20:00:48Z</time>
  <course>324.21</course>
  <speed>5.427752757817917</speed>
  <fix>3d</fix>
</trkpt>
<trkpt lat="-27.2437868" lon="151.3679561">
  <ele>538.29</ele>
  <time>2026-09-01T20:00:48Z</time>
  <course>357.01</course>
  <speed>5.53</speed>
  <fix>3d</fix>
</trkpt>
<trkpt lat="-27.2437669" lon="151.3679549">
  <ele>539.24</ele>
  <time>2026-09-01T20:00:48Z</time>
  <course>324.55</course>
  <speed>5.408890828996274</speed>
  <fix>3d</fix>
</trkpt>
<trkpt lat="-27.243777" lon="151.3679555">
  <ele>538.72</ele>
  <time>2026-09-01T20:00:48Z</time>
  <course>357.0</course>
  <speed>5.46</speed>
  <fix>3d</fix>
</trkpt>
<trkpt lat="-27.2437621" lon="151.3679546">
  <ele>539.52</ele>
  <time>2026-09-01T20:00:48Z</time>
  <course>324.68</course>
  <speed>5.400712915902862</speed>
  <fix>3d</fix>
</trkpt>
<trkpt lat="-27.243777" lon="151.3679555">
  <ele>538.72</ele>
  <time>2026-09-01T20:00:48Z</time>
  <course>357.0</course>
  <speed>5.46</speed>
  <fix>3d</fix>
</trkpt>
<trkpt lat="-27.2437572" lon="151.3679541">
  <ele>539.82</ele>
  <time>2026-09-01T20:00:48Z</time>
  <course>324.69</course>
  <speed>5.3927080395660205</speed>
  <fix>3d</fix>
</trkpt>
<trkpt lat="-27.2437672" lon="151.3679549">
  <ele>539.23</ele>
  <time>2026-09-01T20:00:48Z</time>
  <course>356.61</course>
  <speed>5.42</speed>
  <fix>3d</fix>
</trkpt>
<trkpt lat="-27.2437524" lon="151.3679537">
  <ele>540.12</ele>
  <time>2026-09-01T20:00:48Z</time>
  <course>324.65</course>
  <speed>5.395600059307584</speed>
  <fix>3d</fix>
</trkpt>
<trkpt lat="-27.2437672" lon="151.3679549">
  <ele>539.23</ele>
  <time>2026-09-01T20:00:48Z</time>
  <course>356.61</course>
  <speed>5.42</speed>
  <fix>3d</fix>
</trkpt>
<trkpt lat="-27.2437476" lon="151.3679534">
  <ele>540.43</ele>
  <time>2026-09-01T20:00:48Z</time>
  <course>324.58</course>
  <speed>5.3888217636140086</speed>
  <fix>3d</fix>
</trkpt>
<trkpt lat="-27.2437575" lon="151.3679542">
  <ele>539.8</ele>
  <time>2026-09-01T20:00:48Z</time>
  <course>355.98</course>
  <speed>5.4</speed>
  <fix>3d</fix>
</trkpt>
<trkpt lat="-27.2437428" lon="151.3679529">
  <ele>540.75</ele>
  <time>2026-09-01T20:00:48Z</time>
  <course>324.5</course>
  <speed>5.393227234226275</speed>
  <fix>3d</fix>
</trkpt>
<trkpt lat="-27.2437575" lon="151.3679542">
  <ele>539.8</ele>
  <time>2026-09-01T20:00:48Z</time>
  <course>355.98</course>
  <speed>5.4</speed>
  <fix>3d</fix>
</trkpt>
<trkpt lat="-27.2437379" lon="151.3679524">
  <ele>541.06</ele>
  <time>2026-09-01T20:00:48Z</time>
  <course>324.41</course>
  <speed>5.397082545227561</speed>
  <fix>3d</fix>
</trkpt>
<trkpt lat="-27.2437478" lon="151.3679534">
  <ele>540.41</ele>
  <time>2026-09-01T20:00:48Z</time>
  <course>355.15</course>
  <speed>5.39</speed>
  <fix>3d</fix>
</trkpt>
<trkpt lat="-27.2437331" lon="151.3679517">
  <ele>541.37</ele>
  <time>2026-09-01T20:00:48Z</time>
  <course>324.31</course>
  <speed>5.402314318882232</speed>
  <fix>3d</fix>
</trkpt>
<trkpt lat="-27.2437478" lon="151.3679534">
  <ele>540.41</ele>
  <time>2026-09-01T20:00:48Z</time>
  <course>355.15</course>
  <speed>5.39</speed>
  <fix>3d</fix>
</trkpt>
<trkpt lat="-27.2437283" lon="151.3679512">
  <ele>541.68</ele>
  <time>2026-09-01T20:00:48Z</time>
  <course>324.19</course>
  <speed>5.395739059665505</speed>
  <fix>3d</fix>
</trkpt>
<trkpt lat="-27.2437382" lon="151.3679523">
  <ele>541.04</ele>
  <time>2026-09-01T20:00:48Z</time>
  <course>354.22</course>
  <speed>5.39</speed>
  <fix>3d</fix>
</trkpt>
<trkpt lat="-27.2437235" lon="151.3679505">
  <ele>541.99</ele>
  <time>2026-09-01T20:00:48Z</time>
  <course>324.05</course>
  <speed>5.3980737305079485</speed>
  <fix>3d</fix>
</trkpt>
<trkpt lat="-27.2437382" lon="151.3679523">
  <ele>541.04</ele>
  <time>2026-09-01T20:00:48Z</time>
  <course>354.22</course>
  <speed>5.39</speed>
  <fix>3d</fix>
</trkpt>
<trkpt lat="-27.2437187" lon="151.3679498">
  <ele>542.28</ele>
  <time>2026-09-01T20:00:48Z</time>
  <course>323.87</course>
  <speed>5.388144393016951</speed>
  <fix>3d</fix>
</trkpt>
<trkpt lat="-27.2437285" lon="151.3679512">
  <ele>541.66</ele>
  <time>2026-09-01T20:00:48Z</time>
  <course>353.46</course>
  <speed>5.4</speed>
  <fix>3d</fix>
</trkpt>
<trkpt lat="-27.2437138" lon="151.3679493">
  <ele>542.57</ele>
  <time>2026-09-01T20:00:48Z</time>
  <course>323.67</course>
  <speed>5.374727900089455</speed>
  <fix>3d</fix>
</trkpt>
<trkpt lat="-27.2437285" lon="151.3679512">
  <ele>541.66</ele>
  <time>2026-09-01T20:00:48Z</time>
  <course>353.46</course>
  <speed>5.4</speed>
  <fix>3d</fix>
</trkpt>
<trkpt lat="-27.2437091" lon="151.3679487">
  <ele>542.86</ele>
  <time>2026-09-01T20:00:48Z</time>
  <course>323.5</course>
  <speed>5.349392488871985</speed>
  <fix>3d</fix>
</trkpt>
<trkpt lat="-27.2437189" lon="151.3679499">
  <ele>542.26</ele>
  <time>2026-09-01T20:00:48Z</time>
  <course>353.29</course>
  <speed>5.39</speed>
  <fix>3d</fix>
</trkpt>
<trkpt lat="-27.2437043" lon="151.3679481">
  <ele>543.14</ele>
  <time>2026-09-01T20:00:48Z</time>
  <course>323.35</course>
  <speed>5.293666026488637</speed>
  <fix>3d</fix>
</trkpt>
<trkpt lat="-27.2437189" lon="151.3679499">
  <ele>542.26</ele>
  <time>2026-09-01T20:00:48Z</time>
  <course>353.29</course>
  <speed>5.39</speed>
  <fix>3d</fix>
</trkpt>
<trkpt lat="-27.2436996" lon="151.3679477">
  <ele>543.41</ele>
  <time>2026-09-01T20:00:48Z</time>
  <course>323.13</course>
  <speed>5.177885668880687</speed>
  <fix>3d</fix>
</trkpt>
<trkpt lat="-27.2437093" lon="151.3679487">
  <ele>542.83</ele>
  <time>2026-09-01T20:00:48Z</time>
  <course>353.96</course>
  <speed>5.33</speed>
  <fix>3d</fix>
</trkpt>
<trkpt lat="-27.243695" lon="151.3679472">
  <ele>543.68</ele>
  <time>2026-09-01T20:00:48Z</time>
  <course>322.84</course>
  <speed>5.013671309529574</speed>
  <fix>3d</fix>
</trkpt>
<trkpt lat="-27.2437093" lon="151.3679487">
  <ele>542.83</ele>
  <time>2026-09-01T20:00:48Z</time>
  <course>353.96</course>
  <speed>5.33</speed>
  <fix>3d</fix>
</trkpt>
<trkpt lat="-27.2436906" lon="151.3679469">
  <ele>543.94</ele>
  <time>2026-09-01T20:00:48Z</time>
  <course>322.5</course>
  <speed>4.790041753471467</speed>
  <fix>3d</fix>
</trkpt>
<trkpt lat="-27.2436999" lon="151.3679477">
  <ele>543.39</ele>
  <time>2026-09-01T20:00:48Z</time>
  <course>355.07</course>
  <speed>5.16</speed>
  <fix>3d</fix>
</trkpt>
<trkpt lat="-27.2436865" lon="151.3679465">
  <ele>544.21</ele>
  <time>2026-09-01T20:00:48Z</time>
  <course>322.11</course>
  <speed>4.5069390943299865</speed>
  <fix>3d</fix>
</trkpt>
<trkpt lat="-27.2436999" lon="151.3679477">
  <ele>543.39</ele>
  <time>2026-09-01T20:00:48Z</time>
  <course>355.07</course>
  <speed>5.16</speed>
  <fix>3d</fix>
</trkpt>
<trkpt lat="-27.2436826" lon="151.3679464">
  <ele>544.47</ele>
  <time>2026-09-01T20:00:48Z</time>
  <course>321.65</course>
  <speed>4.1947705539159115</speed>
  <fix>3d</fix>
</trkpt>
<trkpt lat="-27.243691" lon="151.3679469">
  <ele>543.92</ele>
  <time>2026-09-01T20:00:48Z</time>
  <course>356.17</course>
  <speed>4.78</speed>
  <fix>3d</fix>
</trkpt>
<trkpt lat="-27.2436789" lon="151.3679462">
  <ele>544.74</ele>
  <time>2026-09-01T20:00:48Z</time>
  <course>321.12</course>
  <speed>3.863741709793759</speed>
  <fix>3d</fix>
</trkpt>
<trkpt lat="-27.243691" lon="151.3679469">
  <ele>543.92</ele>
  <time>2026-09-01T20:00:48Z</time>
  <course>356.17</course>
  <speed>4.78</speed>
  <fix>3d</fix>
</trkpt>
<trkpt lat="-27.2436756" lon="151.367946">
  <ele>545.0</ele>
  <time>2026-09-01T20:00:48Z</time>
  <course>320.5</course>
  <speed>3.5127909132198574</speed>
  <fix>3d</fix>
</trkpt>
<trkpt lat="-27.2436828" lon="151.3679464">
  <ele>544.45</ele>
  <time>2026-09-01T20:00:48Z</time>
  <course>357.06</course>
  <speed>4.2</speed>
  <fix>3d</fix>
</trkpt>
<trkpt lat="-27.2436726" lon="151.3679459">
  <ele>545.27</ele>
  <time>2026-09-01T20:00:48Z</time>
  <course>319.79</course>
  <speed>3.161913977324494</speed>
  <fix>3d</fix>
</trkpt>
<trkpt lat="-27.2436828" lon="151.3679464">
  <ele>544.45</ele>
  <time>2026-09-01T20:00:48Z</time>
  <course>357.06</course>
  <speed>4.2</speed>
  <fix>3d</fix>
</trkpt>
<trkpt lat="-27.2436699" lon="151.3679458">
  <ele>545.53</ele>
  <time>2026-09-01T20:00:48Z</time>
  <course>319.0</course>
  <speed>2.811440911703463</speed>
  <fix>3d</fix>
</trkpt>
<trkpt lat="-27.2436759" lon="151.367946">
  <ele>544.98</ele>
  <time>2026-09-01T20:00:48Z</time>
  <course>357.65</course>
  <speed>3.53</speed>
  <fix>3d</fix>
</trkpt>
<trkpt lat="-27.2436675" lon="151.3679457">
  <ele>545.79</ele>
  <time>2026-09-01T20:00:48Z</time>
  <course>318.14</course>
  <speed>2.4607315985291853</speed>
  <fix>3d</fix>
</trkpt>
<trkpt lat="-27.2436759" lon="151.367946">
  <ele>544.98</ele>
  <time>2026-09-01T20:00:48Z</time>
  <course>357.65</course>
  <speed>3.53</speed>
  <fix>3d</fix>
</trkpt>
<trkpt lat="-27.2436655" lon="151.3679457">
  <ele>546.04</ele>
  <time>2026-09-01T20:00:48Z</time>
  <course>317.24</course>
  <speed>2.1303755537463345</speed>
  <fix>3d</fix>
</trkpt>
<trkpt lat="-27.2436702" lon="151.3679458">
  <ele>545.51</ele>
  <time>2026-09-01T20:00:48Z</time>
  <course>358.12</course>
  <speed>2.83</speed>
  <fix>3d</fix>
</trkpt>
<trkpt lat="-27.2436637" lon="151.3679455">
  <ele>546.31</ele>
  <time>2026-09-01T20:00:48Z</time>
  <course>316.34</course>
  <speed>1.8001111076819674</speed>
  <fix>3d</fix>
</trkpt>
<trkpt lat="-27.2436702" lon="151.3679458">
  <ele>545.51</ele>
  <time>2026-09-01T20:00:48Z</time>
  <course>358.12</course>
  <speed>2.83</speed>
  <fix>3d</fix>
</trkpt>
<trkpt lat="-27.2436622" lon="151.3679455">
  <ele>546.57</ele>
  <time>2026-09-01T20:00:48Z</time>
  <course>315.5</course>
  <speed>1.48</speed>
  <fix>3d</fix>
</trkpt>
<trkpt lat="-27.2436657" lon="151.3679456">
  <ele>546.03</ele>
  <time>2026-09-01T20:00:48Z</time>
  <course>358.73</course>
  <speed>2.15</speed>
  <fix>3d</fix>
</trkpt>
<trkpt lat="-27.2436609" lon="151.3679455">
  <ele>546.78</ele>
  <time>2026-09-01T20:00:48Z</time>
  <course>314.9</course>
  <speed>1.4603081866510235</speed>
  <fix>3d</fix>
</trkpt>
<trkpt lat="-27.2436657" lon="151.3679456">
  <ele>546.03</ele>
  <time>2026-09-01T20:00:48Z</time>
  <course>358.73</course>
  <speed>2.15</speed>
  <fix>3d</fix>
</trkpt>
<trkpt lat="-27.2436596" lon="151.3679455">
  <ele>546.89</ele>
  <time>2026-09-01T20:00:48Z</time>
  <course>314.6</course>
  <speed>1.4705441169852742</speed>
  <fix>3d</fix>
</trkpt>
<trkpt lat="-27.2436624" lon="151.3679455">
  <ele>546.53</ele>
  <time>2026-09-01T20:00:48Z</time>
  <course>359.02</course>
  <speed>1.64</speed>
  <fix>3d</fix>
</trkpt>
<trkpt lat="-27.2436583" lon="151.3679455">
  <ele>546.9</ele>
  <time>2026-09-01T20:00:48Z</time>
  <course>314.5</course>
  <speed>1.4508618128546908</speed>
  <fix>3d</fix>
</trkpt>
<trkpt lat="-27.2436624" lon="151.3679455">
  <ele>546.53</ele>
  <time>2026-09-01T20:00:48Z</time>
  <course>359.02</course>
  <speed>1.64</speed>
  <fix>3d</fix>
</trkpt>
<trkpt lat="-27.243657" lon="151.3679454">
  <ele>546.81</ele>
  <time>2026-09-01T20:00:48Z</time>
  <course>314.58</course>
  <speed>1.430873858870865</speed>
  <fix>3d</fix>
</trkpt>
<trkpt lat="-27.2436597" lon="151.3679455">
  <ele>546.83</ele>
  <time>2026-09-01T20:00:48Z</time>
  <course>358.39</course>
  <speed>1.46</speed>
  <fix>3d</fix>
</trkpt>
<trkpt lat="-27.2436557" lon="151.3679454">
  <ele>546.64</ele>
  <time>2026-09-01T20:00:48Z</time>
  <course>315.0</course>
  <speed>1.3609188072769072</speed>
  <fix>3d</fix>
</trkpt>
<trkpt lat="-27.2436597" lon="151.3679455">
  <ele>546.83</ele>
  <time>2026-09-01T20:00:48Z</time>
  <course>358.39</course>
  <speed>1.46</speed>
  <fix>3d</fix>
</trkpt>
<trkpt lat="-27.2436546" lon="151.3679453">
  <ele>546.38</ele>
  <time>2026-09-01T20:00:48Z</time>
  <course>316.01</course>
  <speed>1.271416532848303</speed>
  <fix>3d</fix>
</trkpt>
<trkpt lat="-27.2436571" lon="151.3679454">
  <ele>546.77</ele>
  <time>2026-09-01T20:00:48Z</time>
  <course>357.9</course>
  <speed>1.41</speed>
  <fix>3d</fix>
</trkpt>
<trkpt lat="-27.2436535" lon="151.3679453">
  <ele>546.04</ele>
  <time>2026-09-01T20:00:48Z</time>
  <course>317.66</course>
  <speed>1.172731853408954</speed>
  <fix>3d</fix>
</trkpt>
<trkpt lat="-27.2436571" lon="151.3679454">
  <ele>546.77</ele>
  <time>2026-09-01T20:00:48Z</time>
  <course>357.9</course>
  <speed>1.41</speed>
  <fix>3d</fix>
</trkpt>
<trkpt lat="-27.2436524" lon="151.3679451">
  <ele>545.66</ele>
  <time>2026-09-01T20:00:48Z</time>
  <course>319.51</course>
  <speed>1.0846197490365</speed>
  <fix>3d</fix>
</trkpt>
<trkpt lat="-27.2436546" lon="151.3679453">
  <ele>546.36</ele>
  <time>2026-09-01T20:00:48Z</time>
  <course>356.85</course>
  <speed>1.27</speed>
  <fix>3d</fix>
</trkpt>
<trkpt lat="-27.2436515" lon="151.367945">
  <ele>545.23</ele>
  <time>2026-09-01T20:00:48Z</time>
  <course>321.14</course>
  <speed>1.0071742649611337</speed>
  <fix>3d</fix>
</trkpt>
<trkpt lat="-27.2436546" lon="151.3679453">
  <ele>546.36</ele>
  <time>2026-09-01T20:00:48Z</time>
  <course>356.85</course>
  <speed>1.27</speed>
  <fix>3d</fix>
</trkpt>
<trkpt lat="-27.2436506" lon="151.3679449">
  <ele>544.75</ele>
  <time>2026-09-01T20:00:48Z</time>
  <course>322.55</course>
  <speed>0.95524865872714</speed>
  <fix>3d</fix>
</trkpt>
<trkpt lat="-27.2436525" lon="151.3679451">
  <ele>545.66</ele>
  <time>2026-09-01T20:00:48Z</time>
  <course>354.34</course>
  <speed>1.09</speed>
  <fix>3d</fix>
</trkpt>
<trkpt lat="-27.2436498" lon="151.3679446">
  <ele>544.22</ele>
  <time>2026-09-01T20:00:48Z</time>
  <course>323.83</course>
  <speed>0.9604686356149272</speed>
  <fix>3d</fix>
</trkpt>
<trkpt lat="-27.2436525" lon="151.3679451">
  <ele>545.66</ele>
  <time>2026-09-01T20:00:48Z</time>
  <course>354.34</course>
  <speed>1.09</speed>
  <fix>3d</fix>
</trkpt>
<trkpt lat="-27.2436489" lon="151.3679444">
  <ele>543.64</ele>
  <time>2026-09-01T20:00:48Z</time>
  <course>325.02</course>
  <speed>1.0119288512538815</speed>
  <fix>3d</fix>
</trkpt>
<trkpt lat="-27.2436507" lon="151.3679448">
  <ele>544.75</ele>
  <time>2026-09-01T20:00:48Z</time>
  <course>349.28</course>
  <speed>0.98</speed>
  <fix>3d</fix>
</trkpt>
<trkpt lat="-27.2436481" lon="151.367944">
  <ele>543.01</ele>
  <time>2026-09-01T20:00:48Z</time>
  <course>326.08</course>
  <speed>1.0900458705944442</speed>
  <fix>3d</fix>
</trkpt>
<trkpt lat="-27.2436507" lon="151.3679448">
  <ele>544.75</ele>
  <time>2026-09-01T20:00:48Z</time>
  <course>349.28</course>
  <speed>0.98</speed>
  <fix>3d</fix>
</trkpt>
<trkpt lat="-27.2436471" lon="151.3679435">
  <ele>542.31</ele>
  <time>2026-09-01T20:00:48Z</time>
  <course>326.99</course>
  <speed>1.2662543188475213</speed>
  <fix>3d</fix>
</trkpt>
<trkpt lat="-27.2436489" lon="151.3679443">
  <ele>543.64</ele>
  <time>2026-09-01T20:00:48Z</time>
  <course>341.52</course>
  <speed>1.02</speed>
  <fix>3d</fix>
</trkpt>
<trkpt lat="-27.2436457" lon="151.3679426">
  <ele>541.54</ele>
  <time>2026-09-01T20:00:48Z</time>
  <course>327.81</course>
  <speed>2.103806074713161</speed>
  <fix>3d</fix>
</trkpt>
<trkpt lat="-27.2436489" lon="151.3679443">
  <ele>543.64</ele>
  <time>2026-09-01T20:00:48Z</time>
  <course>341.52</course>
  <speed>1.02</speed>
  <fix>3d</fix>
</trkpt>
<trkpt lat="-27.2436439" lon="151.3679416">
  <ele>540.71</ele>
  <time>2026-09-01T20:00:48Z</time>
  <course>328.27</course>
  <speed>2.5166843266488548</speed>
  <fix>3d</fix>
</trkpt>
<trkpt lat="-27.2436469" lon="151.3679434">
  <ele>542.31</ele>
  <time>2026-09-01T20:00:48Z</time>
  <course>333.5</course>
  <speed>1.58</speed>
  <fix>3d</fix>
</trkpt>
<trkpt lat="-27.2436419" lon="151.3679402">
  <ele>539.78</ele>
  <time>2026-09-01T20:00:48Z</time>
  <course>327.86</course>
  <speed>2.5030581295687084</speed>
  <fix>3d</fix>
</trkpt>
<trkpt lat="-27.2436469" lon="151.3679434">
  <ele>542.31</ele>
  <time>2026-09-01T20:00:48Z</time>
  <course>333.5</course>
  <speed>1.58</speed>
  <fix>3d</fix>
</trkpt>
<trkpt lat="-27.24364" lon="151.3679391">
  <ele>538.76</ele>
  <time>2026-09-01T20:00:48Z</time>
  <course>327.18</course>
  <speed>2.2884492565927697</speed>
  <fix>3d</fix>
</trkpt>
<trkpt lat="-27.2436439" lon="151.3679416">
  <ele>540.7</ele>
  <time>2026-09-01T20:00:48Z</time>
  <course>330.79</course>
  <speed>2.3</speed>
  <fix>3d</fix>
</trkpt>
<trkpt lat="-27.2436383" lon="151.3679379">
  <ele>537.65</ele>
  <time>2026-09-01T20:00:48Z</time>
  <course>328.11</course>
  <speed>2.180573319106698</speed>
  <fix>3d</fix>
</trkpt>
<trkpt lat="-27.2436439" lon="151.3679416">
  <ele>540.7</ele>
  <time>2026-09-01T20:00:48Z</time>
  <course>330.79</course>
  <speed>2.3</speed>
  <fix>3d</fix>
</trkpt>
<trkpt lat="-27.2436365" lon="151.3679369">
  <ele>536.45</ele>
  <time>2026-09-01T20:00:48Z</time>
  <course>328.53</course>
  <speed>2.4796975622039072</speed>
  <fix>3d</fix>
</trkpt>
<trkpt lat="-27.2436402" lon="151.3679392">
  <ele>538.77</ele>
  <time>2026-09-01T20:00:48Z</time>
  <course>330.51</course>
  <speed>2.35</speed>
  <fix>3d</fix>
</trkpt>
<trkpt lat="-27.2436342" lon="151.3679354">
  <ele>535.16</ele>
  <time>2026-09-01T20:00:48Z</time>
  <course>328.27</course>
  <speed>3.276171546180084</speed>
  <fix>3d</fix>
</trkpt>
<trkpt lat="-27.2436402" lon="151.3679392">
  <ele>538.77</ele>
  <time>2026-09-01T20:00:48Z</time>
  <course>330.51</course>
  <speed>2.35</speed>
  <fix>3d</fix>
</trkpt>
<trkpt lat="-27.2436312" lon="151.3679335">
  <ele>533.83</ele>
  <time>2026-09-01T20:00:48Z</time>
  <course>327.9</course>
  <speed>4.482644308887333</speed>
  <fix>3d</fix>
</trkpt>
<trkpt lat="-27.2436364" lon="151.3679368">
  <ele>536.47</ele>
  <time>2026-09-01T20:00:48Z</time>
  <course>330.86</course>
  <speed>2.7</speed>
  <fix>3d</fix>
</trkpt>
<trkpt lat="-27.2436272" lon="151.3679309">
  <ele>532.45</ele>
  <time>2026-09-01T20:00:48Z</time>
  <course>327.73</course>
  <speed>5.867239555361619</speed>
  <fix>3d</fix>
</trkpt>
<trkpt lat="-27.2436364" lon="151.3679368">
  <ele>536.47</ele>
  <time>2026-09-01T20:00:48Z</time>
  <course>330.86</course>
  <speed>2.7</speed>
  <fix>3d</fix>
</trkpt>
<trkpt lat="-27.2436221" lon="151.3679274">
  <ele>531.07</ele>
  <time>2026-09-01T20:00:48Z</time>
  <course>327.8</course>
  <speed>7.215019057493888</speed>
  <fix>3d</fix>
</trkpt>
<trkpt lat="-27.2436309" lon="151.3679333">
  <ele>533.88</ele>
  <time>2026-09-01T20:00:48Z</time>
  <course>330.13</course>
  <speed>4.5</speed>
  <fix>3d</fix>
</trkpt>
<trkpt lat="-27.243616" lon="151.3679234">
  <ele>529.68</ele>
  <time>2026-09-01T20:00:48Z</time>
  <course>328.0</course>
  <speed>8.477953762553792</speed>
  <fix>3d</fix>
</trkpt>
<trkpt lat="-27.2436309" lon="151.3679333">
  <ele>533.88</ele>
  <time>2026-09-01T20:00:48Z</time>
  <course>330.13</course>
  <speed>4.5</speed>
  <fix>3d</fix>
</trkpt>
<trkpt lat="-27.2436092" lon="151.3679185">
  <ele>528.29</ele>
  <time>2026-09-01T20:00:48Z</time>
  <course>328.21</course>
  <speed>9.691573659628244</speed>
  <fix>3d</fix>
</trkpt>
<trkpt lat="-27.2436219" lon="151.3679273">
  <ele>531.15</ele>
  <time>2026-09-01T20:00:48Z</time>
  <course>328.8</course>
  <speed>7.1</speed>
  <fix>3d</fix>
</trkpt>
<trkpt lat="-27.2436013" lon="151.3679129">
  <ele>526.93</ele>
  <time>2026-09-01T20:00:48Z</time>
  <course>328.37</course>
  <speed>10.920164833920778</speed>
  <fix>3d</fix>
</trkpt>
<trkpt lat="-27.2436219" lon="151.3679273">
  <ele>531.15</ele>
  <time>2026-09-01T20:00:48Z</time>
  <course>328.8</course>
  <speed>7.1</speed>
  <fix>3d</fix>
</trkpt>
<trkpt lat="-27.2435925" lon="151.3679067">
  <ele>525.59</ele>
  <time>2026-09-01T20:00:48Z</time>
  <course>328.46</course>
  <speed>12.168829031587222</speed>
  <fix>3d</fix>
</trkpt>
<trkpt lat="-27.2436091" lon="151.3679185">
  <ele>528.38</ele>
  <time>2026-09-01T20:00:48Z</time>
  <course>327.98</course>
  <speed>9.64</speed>
  <fix>3d</fix>
</trkpt>
<trkpt lat="-27.2435828" lon="151.3678999">
  <ele>524.32</ele>
  <time>2026-09-01T20:00:48Z</time>
  <course>328.52</course>
  <speed>13.390955903145972</speed>
  <fix>3d</fix>
</trkpt>
<trkpt lat="-27.2436091" lon="151.3679185">
  <ele>528.38</ele>
  <time>2026-09-01T20:00:48Z</time>
  <course>327.98</course>
  <speed>9.64</speed>
  <fix>3d</fix>
</trkpt>
<trkpt lat="-27.2435721" lon="151.3678924">
  <ele>523.11</ele>
  <time>2026-09-01T20:00:48Z</time>
  <course>328.54</course>
  <speed>14.544394109071716</speed>
  <fix>3d</fix>
</trkpt>
<trkpt lat="-27.2435925" lon="151.3679067">
  <ele>525.69</ele>
  <time>2026-09-01T20:00:48Z</time>
  <course>327.9</course>
  <speed>12.1</speed>
  <fix>3d</fix>
</trkpt>
<trkpt lat="-27.2435606" lon="151.3678843">
  <ele>521.99</ele>
  <time>2026-09-01T20:00:48Z</time>
  <course>328.55</course>
  <speed>15.598477489806497</speed>
  <fix>3d</fix>
</trkpt>
<trkpt lat="-27.2435925" lon="151.3679067">
  <ele>525.69</ele>
  <time>2026-09-01T20:00:48Z</time>
  <course>327.9</course>
  <speed>12.1</speed>
  <fix>3d</fix>
</trkpt>
<trkpt lat="-27.2435483" lon="151.367876">
  <ele>520.98</ele>
  <time>2026-09-01T20:00:48Z</time>
  <course>328.56</course>
  <speed>16.52762838401203</speed>
  <fix>3d</fix>
</trkpt>
<trkpt lat="-27.2435722" lon="151.3678925">
  <ele>523.2</ele>
  <time>2026-09-01T20:00:48Z</time>
  <course>328.27</course>
  <speed>14.44</speed>
  <fix>3d</fix>
</trkpt>
<trkpt lat="-27.2435353" lon="151.367867">
  <ele>520.07</ele>
  <time>2026-09-01T20:00:48Z</time>
  <course>328.56</course>
  <speed>17.319829675836885</speed>
  <fix>3d</fix>
</trkpt>
<trkpt lat="-27.2435722" lon="151.3678925">
  <ele>523.2</ele>
  <time>2026-09-01T20:00:48Z</time>
  <course>328.27</course>
  <speed>14.44</speed>
  <fix>3d</fix>
</trkpt>
<trkpt lat="-27.2435217" lon="151.3678579">
  <ele>519.29</ele>
  <time>2026-09-01T20:00:48Z</time>
  <course>328.55</course>
  <speed>17.961227686324786</speed>
  <fix>3d</fix>
</trkpt>
<trkpt lat="-27.2435485" lon="151.3678762">
  <ele>521.07</ele>
  <time>2026-09-01T20:00:48Z</time>
  <course>328.64</course>
  <speed>16.42</speed>
  <fix>3d</fix>
</trkpt>
<trkpt lat="-27.2435077" lon="151.3678483">
  <ele>518.64</ele>
  <time>2026-09-01T20:00:49Z</time>
  <course>328.53</course>
  <speed>18.43807202502474</speed>
  <fix>3d</fix>
</trkpt>
<trkpt lat="-27.2435485" lon="151.3678762">
  <ele>521.07</ele>
  <time>2026-09-01T20:00:49Z</time>
  <course>328.64</course>
  <speed>16.42</speed>
  <fix>3d</fix>
</trkpt>
<trkpt lat="-27.2434934" lon="151.3678385">
  <ele>518.12</ele>
  <time>2026-09-01T20:00:49Z</time>
  <course>328.5</course>
  <speed>18.741867569695398</speed>
  <fix>3d</fix>
</trkpt>
<trkpt lat="-27.2435221" lon="151.3678582">
  <ele>519.39</ele>
  <time>2026-09-01T20:00:49Z</time>
  <course>328.74</course>
  <speed>17.85</speed>
  <fix>3d</fix>
</trkpt>
<trkpt lat="-27.243479" lon="151.3678286">
  <ele>517.73</ele>
  <time>2026-09-01T20:00:49Z</time>
  <course>328.48</course>
  <speed>18.87081609258063</speed>
  <fix>3d</fix>
</trkpt>
<trkpt lat="-27.2435221" lon="151.3678582">
  <ele>519.39</ele>
  <time>2026-09-01T20:00:49Z</time>
  <course>328.74</course>
  <speed>17.85</speed>
  <fix>3d</fix>
</trkpt>
<trkpt lat="-27.2434645" lon="151.3678186">
  <ele>517.43</ele>
  <time>2026-09-01T20:00:49Z</time>
  <course>328.48</course>
  <speed>18.877989829428344</speed>
  <fix>3d</fix>
</trkpt>
<trkpt lat="-27.243494" lon="151.3678389">
  <ele>518.2</ele>
  <time>2026-09-01T20:00:49Z</time>
  <course>328.6</course>
  <speed>18.65</speed>
  <fix>3d</fix>
</trkpt>
<trkpt lat="-27.2434501" lon="151.3678086">
  <ele>517.19</ele>
  <time>2026-09-01T20:00:49Z</time>
  <course>328.48</course>
  <speed>18.82165773782958</speed>
  <fix>3d</fix>
</trkpt>
<trkpt lat="-27.243494" lon="151.3678389">
  <ele>518.2</ele>
  <time>2026-09-01T20:00:49Z</time>
  <course>328.6</course>
  <speed>18.65</speed>
  <fix>3d</fix>
</trkpt>
<trkpt lat="-27.2434358" lon="151.3677986">
  <ele>516.99</ele>
  <time>2026-09-01T20:00:49Z</time>
  <course>328.47</course>
  <speed>18.718808722779343</speed>
  <fix>3d</fix>
</trkpt>
<trkpt lat="-27.2434652" lon="151.3678191">
  <ele>517.47</ele>
  <time>2026-09-01T20:00:49Z</time>
  <course>328.41</course>
  <speed>18.85</speed>
  <fix>3d</fix>
</trkpt>
<trkpt lat="-27.2434215" lon="151.3677888">
  <ele>516.79</ele>
  <time>2026-09-01T20:00:49Z</time>
  <course>328.44</course>
  <speed>18.60745280794768</speed>
  <fix>3d</fix>
</trkpt>
<trkpt lat="-27.2434652" lon="151.3678191">
  <ele>517.47</ele>
  <time>2026-09-01T20:00:49Z</time>
  <course>328.41</course>
  <speed>18.85</speed>
  <fix>3d</fix>
</trkpt>
<trkpt lat="-27.2434073" lon="151.3677789">
  <ele>516.62</ele>
  <time>2026-09-01T20:00:49Z</time>
  <course>328.39</course>
  <speed>18.485588981690576</speed>
  <fix>3d</fix>
</trkpt>
<trkpt lat="-27.2434365" lon="151.3677991">
  <ele>517.0</ele>
  <time>2026-09-01T20:00:49Z</time>
  <course>328.31</course>
  <speed>18.72</speed>
  <fix>3d</fix>
</trkpt>
<trkpt lat="-27.2433933" lon="151.3677691">
  <ele>516.44</ele>
  <time>2026-09-01T20:00:49Z</time>
  <course>328.35</course>
  <speed>18.368979285741492</speed>
  <fix>3d</fix>
</trkpt>
<trkpt lat="-27.2434365" lon="151.3677991">
  <ele>517.0</ele>
  <time>2026-09-01T20:00:49Z</time>
  <course>328.31</course>
  <speed>18.72</speed>
  <fix>3d</fix>
</trkpt>
<trkpt lat="-27.2433793" lon="151.3677593">
  <ele>516.27</ele>
  <time>2026-09-01T20:00:49Z</time>
  <course>328.32</course>
  <speed>18.247117580593383</speed>
  <fix>3d</fix>
</trkpt>
<trkpt lat="-27.243408" lon="151.3677794">
  <ele>516.63</ele>
  <time>2026-09-01T20:00:49Z</time>
  <course>328.3</course>
  <speed>18.5</speed>
  <fix>3d</fix>
</trkpt>
<trkpt lat="-27.2433654" lon="151.3677497">
  <ele>516.1</ele>
  <time>2026-09-01T20:00:49Z</time>
  <course>328.3</course>
  <speed>18.139018716567886</speed>
  <fix>3d</fix>
</trkpt>
<trkpt lat="-27.243408" lon="151.3677794">
  <ele>516.63</ele>
  <time>2026-09-01T20:00:49Z</time>
  <course>328.3</course>
  <speed>18.5</speed>
  <fix>3d</fix>
</trkpt>
<trkpt lat="-27.2433515" lon="151.3677401">
  <ele>515.94</ele>
  <time>2026-09-01T20:00:49Z</time>
  <course>328.29</course>
  <speed>18.02240827414583</speed>
  <fix>3d</fix>
</trkpt>
<trkpt lat="-27.24338" lon="151.3677599">
  <ele>516.28</ele>
  <time>2026-09-01T20:00:49Z</time>
  <course>328.31</course>
  <speed>18.26</speed>
  <fix>3d</fix>
</trkpt>
<trkpt lat="-27.2433378" lon="151.3677305">
  <ele>515.77</ele>
  <time>2026-09-01T20:00:49Z</time>
  <course>328.29</course>
  <speed>17.905797943682934</speed>
  <fix>3d</fix>
</trkpt>
<trkpt lat="-27.24338" lon="151.3677599">
  <ele>516.28</ele>
  <time>2026-09-01T20:00:49Z</time>
  <course>328.31</course>
  <speed>18.26</speed>
  <fix>3d</fix>
</trkpt>
<trkpt lat="-27.2433241" lon="151.3677212">
  <ele>515.6</ele>
  <time>2026-09-01T20:00:49Z</time>
  <course>328.29</course>
  <speed>17.797699289514924</speed>
  <fix>3d</fix>
</trkpt>
<trkpt lat="-27.2433522" lon="151.3677406">
  <ele>515.94</ele>
  <time>2026-09-01T20:00:49Z</time>
  <course>328.32</course>
  <speed>18.03</speed>
  <fix>3d</fix>
</trkpt>
<trkpt lat="-27.2433106" lon="151.3677118">
  <ele>515.43</ele>
  <time>2026-09-01T20:00:49Z</time>
  <course>328.3</course>
  <speed>17.686339361213218</speed>
  <fix>3d</fix>
</trkpt>
<trkpt lat="-27.2433522" lon="151.3677406">
  <ele>515.94</ele>
  <time>2026-09-01T20:00:49Z</time>
  <course>328.32</course>
  <speed>18.03</speed>
  <fix>3d</fix>
</trkpt>
<trkpt lat="-27.2432971" lon="151.3677023">
  <ele>515.27</ele>
  <time>2026-09-01T20:00:49Z</time>
  <course>328.31</course>
  <speed>17.583492258365517</speed>
  <fix>3d</fix>
</trkpt>
<trkpt lat="-27.2433248" lon="151.3677216">
  <ele>515.61</ele>
  <time>2026-09-01T20:00:49Z</time>
  <course>328.32</course>
  <speed>17.8</speed>
  <fix>3d</fix>
</trkpt>
<trkpt lat="-27.2415448" lon="151.3717745">
  <ele>542.98</ele>
  <time>2026-09-01T20:00:49Z</time>
  <course>250.0</course>
  <speed>0.0</speed>
  <fix>3d</fix>
</trkpt>
<trkpt lat="-27.2433248" lon="151.3677216">
  <ele>515.61</ele>
  <time>2026-09-01T20:00:49Z</time>
  <course>328.32</course>
  <speed>17.8</speed>
  <fix>3d</fix>
</trkpt>
<trkpt lat="-27.2415448" lon="151.3717745">
  <ele>542.87</ele>
  <time>2026-09-01T20:00:49Z</time>
  <course>250.0</course>
  <speed>0.01</speed>
  <fix>3d</fix>
</trkpt>
<trkpt lat="-27.2424279" lon="151.3697434">
  <ele>529.2</ele>
  <time>2026-09-01T20:00:49Z</time>
  <course>328.29</course>
  <speed>8.85</speed>
  <fix>3d</fix>
</trkpt>
<trkpt lat="-27.2415448" lon="151.3717745">
  <ele>542.66</ele>
  <time>2026-09-01T20:00:49Z</time>
  <course>250.01</course>
  <speed>0.044721359549995794</speed>
  <fix>3d</fix>
</trkpt>
<trkpt lat="-27.2424279" lon="151.3697434">
  <ele>529.2</ele>
  <time>2026-09-01T20:00:49Z</time>
  <course>328.29</course>
  <speed>8.85</speed>
  <fix>3d</fix>
</trkpt>
<trkpt lat="-27.2415448" lon="151.3717744">
  <ele>542.38</ele>
  <time>2026-09-01T20:00:49Z</time>
  <course>250.62</course>
  <speed>0.11704699910719625</speed>
  <fix>3d</fix>
</trkpt>
<trkpt lat="-27.2415448" lon="151.3717745">
  <ele>542.82</ele>
  <time>2026-09-01T20:00:49Z</time>
  <course>242.63</course>
  <speed>0.02</speed>
  <fix>3d</fix>
</trkpt>
<trkpt lat="-27.2415448" lon="151.3717743">
  <ele>542.02</ele>
  <time>2026-09-01T20:00:49Z</time>
  <course>253.83</course>
  <speed>0.2570992026436488</speed>
  <fix>3d</fix>
</trkpt>
<trkpt lat="-27.2415448" lon="151.3717745">
  <ele>542.82</ele>
  <time>2026-09-01T20:00:49Z</time>
  <course>242.63</course>
  <speed>0.02</speed>
  <fix>3d</fix>
</trkpt>
<trkpt lat="-27.2415447" lon="151.3717739">
  <ele>541.58</ele>
  <time>2026-09-01T20:00:49Z</time>
  <course>263.44</course>
  <speed>0.4410215414239989</speed>
  <fix>3d</fix>
</trkpt>
<trkpt lat="-27.2415448" lon="151.3717744">
  <ele>542.36</ele>
  <time>2026-09-01T20:00:49Z</time>
  <course>277.14</course>
  <speed>0.15</speed>
  <fix>3d</fix>
</trkpt>
<trkpt lat="-27.2415446" lon="151.3717737">
  <ele>541.07</ele>
  <time>2026-09-01T20:00:49Z</time>
  <course>264.02</course>
  <speed>0.4242640687119285</speed>
  <fix>3d</fix>
</trkpt>
<trkpt lat="-27.2415448" lon="151.3717744">
  <ele>542.36</ele>
  <time>2026-09-01T20:00:49Z</time>
  <course>277.14</course>
  <speed>0.15</speed>
  <fix>3d</fix>
</trkpt>
<trkpt lat="-27.2415454" lon="151.3717735">
  <ele>540.51</ele>
  <time>2026-09-01T20:00:49Z</time>
  <course>251.65</course>
  <speed>1.7910053042914194</speed>
  <fix>3d</fix>
</trkpt>
<trkpt lat="-27.2415447" lon="151.371774">
  <ele>541.56</ele>
  <time>2026-09-01T20:00:49Z</time>
  <course>252.38</course>
  <speed>0.29</speed>
  <fix>3d</fix>
</trkpt>
<trkpt lat="-27.2415476" lon="151.3717738">
  <ele>539.96</ele>
  <time>2026-09-01T20:00:49Z</time>
  <course>242.31</course>
  <speed>3.063494736408078</speed>
  <fix>3d</fix>
</trkpt>
<trkpt lat="-27.2415447" lon="151.371774">
  <ele>541.56</ele>
  <time>2026-09-01T20:00:49Z</time>
  <course>252.38</course>
  <speed>0.29</speed>
  <fix>3d</fix>
</trkpt>
<trkpt lat="-27.2415508" lon="151.3717745">
  <ele>539.45</ele>
  <time>2026-09-01T20:00:49Z</time>
  <course>234.74</course>
  <speed>4.0195646530439095</speed>
  <fix>3d</fix>
</trkpt>
<trkpt lat="-27.241546" lon="151.3717737">
  <ele>540.54</ele>
  <time>2026-09-01T20:00:49Z</time>
  <course>175.91</course>
  <speed>1.6</speed>
  <fix>3d</fix>
</trkpt>
<trkpt lat="-27.2415546" lon="151.3717759">
  <ele>538.99</ele>
  <time>2026-09-01T20:00:49Z</time>
  <course>228.0</course>
  <speed>4.804633180587254</speed>
  <fix>3d</fix>
</trkpt>
<trkpt lat="-27.241546" lon="151.3717737">
  <ele>540.54</ele>
  <time>2026-09-01T20:00:49Z</time>
  <course>175.91</course>
  <speed>1.6</speed>
  <fix>3d</fix>
</trkpt>
<trkpt lat="-27.2415591" lon="151.3717774">
  <ele>538.62</ele>
  <time>2026-09-01T20:00:49Z</time>
  <course>221.42</course>
  <speed>5.60458740675886</speed>
  <fix>3d</fix>
</trkpt>
<trkpt lat="-27.2415509" lon="151.3717748">
  <ele>539.5</ele>
  <time>2026-09-01T20:00:49Z</time>
  <course>165.36</course>
  <speed>3.88</speed>
  <fix>3d</fix>
</trkpt>
<trkpt lat="-27.2415641" lon="151.3717792">
  <ele>538.35</ele>
  <time>2026-09-01T20:00:49Z</time>
  <course>214.54</course>
  <speed>6.0433517190380375</speed>
  <fix>3d</fix>
</trkpt>
<trkpt lat="-27.2415509" lon="151.3717748">
  <ele>539.5</ele>
  <time>2026-09-01T20:00:49Z</time>
  <course>165.36</course>
  <speed>3.88</speed>
  <fix>3d</fix>
</trkpt>
<trkpt lat="-27.2415693" lon="151.3717811">
  <ele>538.18</ele>
  <time>2026-09-01T20:00:49Z</time>
  <course>208.95</course>
  <speed>6.125691797666612</speed>
  <fix>3d</fix>
</trkpt>
<trkpt lat="-27.241559" lon="151.3717775">
  <ele>538.68</ele>
  <time>2026-09-01T20:00:49Z</time>
  <course>162.34</course>
  <speed>5.39</speed>
  <fix>3d</fix>
</trkpt>
<trkpt lat="-27.2415744" lon="151.3717833">
  <ele>538.12</ele>
  <time>2026-09-01T20:00:49Z</time>
  <course>204.61</course>
  <speed>5.893063719322913</speed>
  <fix>3d</fix>
</trkpt>
<trkpt lat="-27.241559" lon="151.3717775">
  <ele>538.68</ele>
  <time>2026-09-01T20:00:49Z</time>
  <course>162.34</course>
  <speed>5.39</speed>
  <fix>3d</fix>
</trkpt>
<trkpt lat="-27.2415791" lon="151.3717854">
  <ele>538.14</ele>
  <time>2026-09-01T20:00:49Z</time>
  <course>200.68</course>
  <speed>5.526925004014438</speed>
  <fix>3d</fix>
</trkpt>
<trkpt lat="-27.2415689" lon="151.3717811">
  <ele>538.24</ele>
  <time>2026-09-01T20:00:49Z</time>
  <course>160.69</course>
  <speed>5.97</speed>
  <fix>3d</fix>
</trkpt>
<trkpt lat="-27.2415836" lon="151.3717876">
  <ele>538.22</ele>
  <time>2026-09-01T20:00:49Z</time>
  <course>196.93</course>
  <speed>5.17750905358938</speed>
  <fix>3d</fix>
</trkpt>
<trkpt lat="-27.2415689" lon="151.3717811">
  <ele>538.24</ele>
  <time>2026-09-01T20:00:49Z</time>
  <course>160.69</course>
  <speed>5.97</speed>
  <fix>3d</fix>
</trkpt>
<trkpt lat="-27.2415876" lon="151.3717897">
  <ele>538.35</ele>
  <time>2026-09-01T20:00:49Z</time>
  <course>193.53</course>
  <speed>4.914977110831748</speed>
  <fix>3d</fix>
</trkpt>
<trkpt lat="-27.2415787" lon="151.3717853">
  <ele>538.17</ele>
  <time>2026-09-01T20:00:49Z</time>
  <course>157.54</course>
  <speed>5.55</speed>
  <fix>3d</fix>
</trkpt>
<trkpt lat="-27.2415915" lon="151.371792">
  <ele>538.53</ele>
  <time>2026-09-01T20:00:49Z</time>
  <course>190.61</course>
  <speed>4.740938725611205</speed>
  <fix>3d</fix>
</trkpt>
<trkpt lat="-27.2415787" lon="151.3717853">
  <ele>538.17</ele>
  <time>2026-09-01T20:00:49Z</time>
  <course>157.54</course>
  <speed>5.55</speed>
  <fix>3d</fix>
</trkpt>
<trkpt lat="-27.2415952" lon="151.3717941">
  <ele>538.73</ele>
  <time>2026-09-01T20:00:49Z</time>
  <course>188.32</course>
  <speed>4.617748369064733</speed>
  <fix>3d</fix>
</trkpt>
<trkpt lat="-27.2415873" lon="151.3717897">
  <ele>538.37</ele>
  <time>2026-09-01T20:00:49Z</time>
  <course>154.12</course>
  <speed>4.97</speed>
  <fix>3d</fix>
</trkpt>
<trkpt lat="-27.2415988" lon="151.3717964">
  <ele>538.97</ele>
  <time>2026-09-01T20:00:49Z</time>
  <course>186.71</course>
  <speed>4.531103618325231</speed>
  <fix>3d</fix>
</trkpt>
<trkpt lat="-27.2415873" lon="151.3717897">
  <ele>538.37</ele>
  <time>2026-09-01T20:00:49Z</time>
  <course>154.12</course>
  <speed>4.97</speed>
  <fix>3d</fix>
</trkpt>
<trkpt lat="-27.2416023" lon="151.3717987">
  <ele>539.23</ele>
  <time>2026-09-01T20:00:49Z</time>
  <course>185.67</course>
  <speed>4.466519898086204</speed>
  <fix>3d</fix>
</trkpt>
<trkpt lat="-27.241595" lon="151.3717941">
  <ele>538.74</ele>
  <time>2026-09-01T20:00:49Z</time>
  <course>151.68</course>
  <speed>4.64</speed>
  <fix>3d</fix>
</trkpt>
<trkpt lat="-27.2416058" lon="151.3718008">
  <ele>539.52</ele>
  <time>2026-09-01T20:00:49Z</time>
  <course>185.03</course>
  <speed>4.4182349416933455</speed>
  <fix>3d</fix>
</trkpt>
<trkpt lat="-27.241595" lon="151.3717941">
  <ele>538.74</ele>
  <time>2026-09-01T20:00:49Z</time>
  <course>151.68</course>
  <speed>4.64</speed>
  <fix>3d</fix>
</trkpt>
<trkpt lat="-27.2416092" lon="151.3718031">
  <ele>539.83</ele>
  <time>2026-09-01T20:00:49Z</time>
  <course>184.65</course>
  <speed>4.3786413417862855</speed>
  <fix>3d</fix>
</trkpt>
<trkpt lat="-27.2416021" lon="151.3717985">
  <ele>539.23</ele>
  <time>2026-09-01T20:00:49Z</time>
  <course>150.24</course>
  <speed>4.48</speed>
  <fix>3d</fix>
</trkpt>
<trkpt lat="-27.2416126" lon="151.3718054">
  <ele>540.16</ele>
  <time>2026-09-01T20:00:49Z</time>
  <course>184.41</course>
  <speed>4.342648961175656</speed>
  <fix>3d</fix>
</trkpt>
<trkpt lat="-27.2416021" lon="151.3717985">
  <ele>539.23</ele>
  <time>2026-09-01T20:00:49Z</time>
  <course>150.24</course>
  <speed>4.48</speed>
  <fix>3d</fix>
</trkpt>
<trkpt lat="-27.241616" lon="151.3718075">
  <ele>540.48</ele>
  <time>2026-09-01T20:00:49Z</time>
  <course>184.24</course>
  <speed>4.315298367436486</speed>
  <fix>3d</fix>
</trkpt>
<trkpt lat="-27.2416091" lon="151.371803">
  <ele>539.82</ele>
  <time>2026-09-01T20:00:49Z</time>
  <course>149.7</course>
  <speed>4.38</speed>
  <fix>3d</fix>
</trkpt>
<trkpt lat="-27.2416193" lon="151.3718098">
  <ele>540.82</ele>
  <time>2026-09-01T20:00:49Z</time>
  <course>184.12</course>
  <speed>4.2793106921559225</speed>
  <fix>3d</fix>
</trkpt>
<trkpt lat="-27.2416091" lon="151.371803">
  <ele>539.82</ele>
  <time>2026-09-01T20:00:49Z</time>
  <course>149.7</course>
  <speed>4.38</speed>
  <fix>3d</fix>
</trkpt>
<trkpt lat="-27.2416226" lon="151.371812">
  <ele>541.15</ele>
  <time>2026-09-01T20:00:49Z</time>
  <course>184.04</course>
  <speed>4.256994244769424</speed>
  <fix>3d</fix>
</trkpt>
<trkpt lat="-27.2416158" lon="151.3718075">
  <ele>540.47</ele>
  <time>2026-09-01T20:00:49Z</time>
  <course>149.73</course>
  <speed>4.32</speed>
  <fix>3d</fix>
</trkpt>
<trkpt lat="-27.2416259" lon="151.3718142">
  <ele>541.48</ele>
  <time>2026-09-01T20:00:49Z</time>
  <course>184.01</course>
  <speed>4.2224637357827</speed>
  <fix>3d</fix>
</trkpt>
<trkpt lat="-27.2416158" lon="151.3718075">
  <ele>540.47</ele>
  <time>2026-09-01T20:00:49Z</time>
  <course>149.73</course>
  <speed>4.32</speed>
  <fix>3d</fix>
</trkpt>
<trkpt lat="-27.2416292" lon="151.3718163">
  <ele>541.79</ele>
  <time>2026-09-01T20:00:49Z</time>
  <course>184.01</course>
  <speed>4.1811481676687805</speed>
  <fix>3d</fix>
</trkpt>
<trkpt lat="-27.2416225" lon="151.3718119">
  <ele>541.13</ele>
  <time>2026-09-01T20:00:49Z</time>
  <course>149.66</course>
  <speed>4.25</speed>
  <fix>3d</fix>
</trkpt>
<trkpt lat="-27.2416324" lon="151.3718185">
  <ele>542.12</ele>
  <time>2026-09-01T20:00:49Z</time>
  <course>184.04</course>
  <speed>4.128692286911196</speed>
  <fix>3d</fix>
</trkpt>
<trkpt lat="-27.2416225" lon="151.3718119">
  <ele>541.13</ele>
  <time>2026-09-01T20:00:49Z</time>
  <course>149.66</course>
  <speed>4.25</speed>
  <fix>3d</fix>
</trkpt>
<trkpt lat="-27.2416355" lon="151.3718208">
  <ele>542.43</ele>
  <time>2026-09-01T20:00:49Z</time>
  <course>184.16</course>
  <speed>4.032914578812697</speed>
  <fix>3d</fix>
</trkpt>
<trkpt lat="-27.2416289" lon="151.3718162">
  <ele>541.78</ele>
  <time>2026-09-01T20:00:49Z</time>
  <course>148.74</course>
  <speed>4.18</speed>
  <fix>3d</fix>
</trkpt>
<trkpt lat="-27.2416384" lon="151.371823">
  <ele>542.73</ele>
  <time>2026-09-01T20:00:49Z</time>
  <course>184.36</course>
  <speed>3.913693907295255</speed>
  <fix>3d</fix>
</trkpt>
<trkpt lat="-27.2416289" lon="151.3718162">
  <ele>541.78</ele>
  <time>2026-09-01T20:00:49Z</time>
  <course>148.74</course>
  <speed>4.18</speed>
  <fix>3d</fix>
</trkpt>
<trkpt lat="-27.2416413" lon="151.3718252">
  <ele>543.02</ele>
  <time>2026-09-01T20:00:49Z</time>
  <course>184.62</course>
  <speed>3.7629376821839613</speed>
  <fix>3d</fix>
</trkpt>
<trkpt lat="-27.2416352" lon="151.3718206">
  <ele>542.41</ele>
  <time>2026-09-01T20:00:49Z</time>
  <course>146.89</course>
  <speed>4.03</speed>
  <fix>3d</fix>
</trkpt>
<trkpt lat="-27.2416439" lon="151.3718274">
  <ele>543.31</ele>
  <time>2026-09-01T20:00:49Z</time>
  <course>184.89</course>
  <speed>3.598027237250991</speed>
  <fix>3d</fix>
</trkpt>
<trkpt lat="-27.2416352" lon="151.3718206">
  <ele>542.41</ele>
  <time>2026-09-01T20:00:49Z</time>
  <course>146.89</course>
  <speed>4.03</speed>
  <fix>3d</fix>
</trkpt>
<trkpt lat="-27.2416464" lon="151.3718295">
  <ele>543.58</ele>
  <time>2026-09-01T20:00:49Z</time>
  <course>185.19</course>
  <speed>3.4077118422777475</speed>
  <fix>3d</fix>
</trkpt>
<trkpt lat="-27.241641" lon="151.3718251">
  <ele>543.0</ele>
  <time>2026-09-01T20:00:49Z</time>
  <course>144.4</course>
  <speed>3.76</speed>
  <fix>3d</fix>
</trkpt>
<trkpt lat="-27.2416487" lon="151.3718318">
  <ele>543.85</ele>
  <time>2026-09-01T20:00:49Z</time>
  <course>185.52</course>
  <speed>3.212740263388872</speed>
  <fix>3d</fix>
</trkpt>
<trkpt lat="-27.241641" lon="151.3718251">
  <ele>543.0</ele>
  <time>2026-09-01T20:00:49Z</time>
  <course>144.4</course>
  <speed>3.76</speed>
  <fix>3d</fix>
</trkpt>
<trkpt lat="-27.2416508" lon="151.3718338">
  <ele>544.12</ele>
  <time>2026-09-01T20:00:49Z</time>
  <course>185.89</course>
  <speed>3.0076070222022024</speed>
  <fix>3d</fix>
</trkpt>
<trkpt lat="-27.2416462" lon="151.3718295">
  <ele>543.56</ele>
  <time>2026-09-01T20:00:49Z</time>
  <course>141.32</course>
  <speed>3.41</speed>
  <fix>3d</fix>
</trkpt>
<trkpt lat="-27.2416527" lon="151.3718358">
  <ele>544.38</ele>
  <time>2026-09-01T20:00:49Z</time>
  <course>186.29</course>
  <speed>2.8072228269234345</speed>
  <fix>3d</fix>
</trkpt>
<trkpt lat="-27.2416462" lon="151.3718295">
  <ele>543.56</ele>
  <time>2026-09-01T20:00:49Z</time>
  <course>141.32</course>
  <speed>3.41</speed>
  <fix>3d</fix>
</trkpt>
<trkpt lat="-27.2416544" lon="151.3718379">
  <ele>544.63</ele>
  <time>2026-09-01T20:00:49Z</time>
  <course>186.73</course>
  <speed>2.605263902179585</speed>
  <fix>3d</fix>
</trkpt>
<trkpt lat="-27.2416506" lon="151.3718337">
  <ele>544.1</ele>
  <time>2026-09-01T20:00:49Z</time>
  <course>137.43</course>
  <speed>3.02</speed>
  <fix>3d</fix>
</trkpt>
<trkpt lat="-27.2416558" lon="151.3718398">
  <ele>544.88</ele>
  <time>2026-09-01T20:00:49Z</time>
  <course>187.18</course>
  <speed>2.4020824298928627</speed>
  <fix>3d</fix>
</trkpt>
<trkpt lat="-27.2416506" lon="151.3718337">
  <ele>544.1</ele>
  <time>2026-09-01T20:00:49Z</time>
  <course>137.43</course>
  <speed>3.02</speed>
  <fix>3d</fix>
</trkpt>
<trkpt lat="-27.2416571" lon="151.3718415">
  <ele>545.13</ele>
  <time>2026-09-01T20:00:49Z</time>
  <course>187.65</course>
  <speed>2.206399782451041</speed>
  <fix>3d</fix>
</trkpt>
<trkpt lat="-27.2416542" lon="151.3718377">
  <ele>544.61</ele>
  <time>2026-09-01T20:00:49Z</time>
  <course>132.42</course>
  <speed>2.61</speed>
  <fix>3d</fix>
</trkpt>
<trkpt lat="-27.2416582" lon="151.3718434">
  <ele>545.37</ele>
  <time>2026-09-01T20:00:49Z</time>
  <course>188.12</course>
  <speed>2.020396000787964</speed>
  <fix>3d</fix>
</trkpt>
<trkpt lat="-27.2416542" lon="151.3718377">
  <ele>544.61</ele>
  <time>2026-09-01T20:00:49Z</time>
  <course>132.42</course>
  <speed>2.61</speed>
  <fix>3d</fix>
</trkpt>
<trkpt lat="-27.241659" lon="151.3718451">
  <ele>545.62</ele>
  <time>2026-09-01T20:00:49Z</time>
  <course>188.56</course>
  <speed>1.8426068490049632</speed>
  <fix>3d</fix>
</trkpt>
<trkpt lat="-27.2416569" lon="151.3718415">
  <ele>545.11</ele>
  <time>2026-09-01T20:00:49Z</time>
  <course>125.96</course>
  <speed>2.22</speed>
  <fix>3d</fix>
</trkpt>
<trkpt lat="-27.2416597" lon="151.3718467">
  <ele>545.86</ele>
  <time>2026-09-01T20:00:49Z</time>
  <course>188.96</course>
  <speed>1.6731407591712062</speed>
  <fix>3d</fix>
</trkpt>
<trkpt lat="-27.2416569" lon="151.3718415">
  <ele>545.11</ele>
  <time>2026-09-01T20:00:49Z</time>
  <course>125.96</course>
  <speed>2.22</speed>
  <fix>3d</fix>
</trkpt>
<trkpt lat="-27.2416603" lon="151.3718482">
  <ele>546.04</ele>
  <time>2026-09-01T20:00:49Z</time>
  <course>189.04</course>
  <speed>1.6439586369492392</speed>
  <fix>3d</fix>
</trkpt>
<trkpt lat="-27.2416589" lon="151.371845">
  <ele>545.6</ele>
  <time>2026-09-01T20:00:49Z</time>
  <course>117.69</course>
  <speed>1.85</speed>
  <fix>3d</fix>
</trkpt>
<trkpt lat="-27.2416609" lon="151.3718498">
  <ele>546.14</ele>
  <time>2026-09-01T20:00:49Z</time>
  <course>188.65</course>
  <speed>1.6204937519163718</speed>
  <fix>3d</fix>
</trkpt>
<trkpt lat="-27.2416589" lon="151.371845">
  <ele>545.6</ele>
  <time>2026-09-01T20:00:49Z</time>
  <course>117.69</course>
  <speed>1.85</speed>
  <fix>3d</fix>
</trkpt>
<trkpt lat="-27.2416615" lon="151.3718513">
  <ele>546.13</ele>
  <time>2026-09-01T20:00:49Z</time>
  <course>187.98</course>
  <speed>1.6072958657322554</speed>
  <fix>3d</fix>
</trkpt>
<trkpt lat="-27.2416602" lon="151.3718482">
  <ele>545.99</ele>
  <time>2026-09-01T20:00:49Z</time>
  <course>113.34</course>
  <speed>1.65</speed>
  <fix>3d</fix>
</trkpt>
<trkpt lat="-27.241662" lon="151.3718528">
  <ele>546.02</ele>
  <time>2026-09-01T20:00:49Z</time>
  <course>186.98</course>
  <speed>1.558621185535472</speed>
  <fix>3d</fix>
</trkpt>
<trkpt lat="-27.2416602" lon="151.3718482">
  <ele>545.99</ele>
  <time>2026-09-01T20:00:49Z</time>
  <course>113.34</course>
  <speed>1.65</speed>
  <fix>3d</fix>
</trkpt>
<trkpt lat="-27.2416626" lon="151.3718542">
  <ele>545.83</ele>
  <time>2026-09-01T20:00:49Z</time>
  <course>185.4</course>
  <speed>1.4824641648282766</speed>
  <fix>3d</fix>
</trkpt>
<trkpt lat="-27.2416614" lon="151.3718511">
  <ele>546.08</ele>
  <time>2026-09-01T20:00:49Z</time>
  <course>113.85</course>
  <speed>1.6</speed>
  <fix>3d</fix>
</trkpt>
<trkpt lat="-27.2416631" lon="151.3718554">
  <ele>545.57</ele>
  <time>2026-09-01T20:00:49Z</time>
  <course>182.87</course>
  <speed>1.3656500283747663</speed>
  <fix>3d</fix>
</trkpt>
<trkpt lat="-27.2416614" lon="151.3718511">
  <ele>546.08</ele>
  <time>2026-09-01T20:00:49Z</time>
  <course>113.85</course>
  <speed>1.6</speed>
  <fix>3d</fix>
</trkpt>
<trkpt lat="-27.2416636" lon="151.3718567">
  <ele>545.24</ele>
  <time>2026-09-01T20:00:49Z</time>
  <course>179.04</course>
  <speed>1.2210241602851273</speed>
  <fix>3d</fix>
</trkpt>
<trkpt lat="-27.2416625" lon="151.3718541">
  <ele>545.8</ele>
  <time>2026-09-01T20:00:49Z</time>
  <course>113.69</course>
  <speed>1.47</speed>
  <fix>3d</fix>
</trkpt>
<trkpt lat="-27.2416641" lon="151.3718577">
  <ele>544.86</ele>
  <time>2026-09-01T20:00:49Z</time>
  <course>173.98</course>
  <speed>1.0694391053257777</speed>
  <fix>3d</fix>
</trkpt>
<trkpt lat="-27.2416625" lon="151.3718541">
  <ele>545.8</ele>
  <time>2026-09-01T20:00:49Z</time>
  <course>113.69</course>
  <speed>1.47</speed>
  <fix>3d</fix>
</trkpt>
<trkpt lat="-27.2416645" lon="151.3718586">
  <ele>544.43</ele>
  <time>2026-09-01T20:00:49Z</time>
  <course>168.54</course>
  <speed>0.982700361249552</speed>
  <fix>3d</fix>
</trkpt>
<trkpt lat="-27.2416635" lon="151.3718566">
  <ele>545.23</ele>
  <time>2026-09-01T20:00:49Z</time>
  <course>115.91</course>
  <speed>1.23</speed>
  <fix>3d</fix>
</trkpt>
<trkpt lat="-27.241665" lon="151.3718594">
  <ele>543.95</ele>
  <time>2026-09-01T20:00:49Z</time>
  <course>163.43</course>
  <speed>0.9265527507918802</speed>
  <fix>3d</fix>
</trkpt>
<trkpt lat="-27.2416635" lon="151.3718566">
  <ele>545.23</ele>
  <time>2026-09-01T20:00:49Z</time>
  <course>115.91</course>
  <speed>1.23</speed>
  <fix>3d</fix>
</trkpt>
<trkpt lat="-27.2416655" lon="151.3718601">
  <ele>543.43</ele>
  <time>2026-09-01T20:00:49Z</time>
  <course>158.73</course>
  <speed>0.9078546139112804</speed>
  <fix>3d</fix>
</trkpt>
<trkpt lat="-27.2416645" lon="151.3718585">
  <ele>544.42</ele>
  <time>2026-09-01T20:00:49Z</time>
  <course>121.4</course>
  <speed>1.0</speed>
  <fix>3d</fix>
</trkpt>
<trkpt lat="-27.2416661" lon="151.3718609">
  <ele>542.85</ele>
  <time>2026-09-01T20:00:49Z</time>
  <course>154.3</course>
  <speed>0.9476286192385708</speed>
  <fix>3d</fix>
</trkpt>
<trkpt lat="-27.2416645" lon="151.3718585">
  <ele>544.42</ele>
  <time>2026-09-01T20:00:49Z</time>
  <course>121.4</course>
  <speed>1.0</speed>
  <fix>3d</fix>
</trkpt>
<trkpt lat="-27.2416667" lon="151.3718615">
  <ele>542.22</ele>
  <time>2026-09-01T20:00:49Z</time>
  <course>150.09</course>
  <speed>1.0230347012687302</speed>
  <fix>3d</fix>
</trkpt>
<trkpt lat="-27.2416654" lon="151.3718601">
  <ele>543.42</ele>
  <time>2026-09-01T20:00:49Z</time>
  <course>130.27</course>
  <speed>0.93</speed>
  <fix>3d</fix>
</trkpt>
<trkpt lat="-27.2416675" lon="151.3718621">
  <ele>541.53</ele>
  <time>2026-09-01T20:00:49Z</time>
  <course>145.97</course>
  <speed>1.136001760562016</speed>
  <fix>3d</fix>
</trkpt>
<trkpt lat="-27.2416654" lon="151.3718601">
  <ele>543.42</ele>
  <time>2026-09-01T20:00:49Z</time>
  <course>130.27</course>
  <speed>0.93</speed>
  <fix>3d</fix>
</trkpt>
<trkpt lat="-27.2416685" lon="151.371863">
  <ele>540.77</ele>
  <time>2026-09-01T20:00:49Z</time>
  <course>141.15</course>
  <speed>1.9602295783912658</speed>
  <fix>3d</fix>
</trkpt>
<trkpt lat="-27.2416666" lon="151.3718614">
  <ele>542.22</ele>
  <time>2026-09-01T20:00:49Z</time>
  <course>139.72</course>
  <speed>1.03</speed>
  <fix>3d</fix>
</trkpt>
<trkpt lat="-27.2416704" lon="151.3718642">
  <ele>539.94</ele>
  <time>2026-09-01T20:00:49Z</time>
  <course>133.83</course>
  <speed>2.46969633760914</speed>
  <fix>3d</fix>
</trkpt>
<trkpt lat="-27.2416666" lon="151.3718614">
  <ele>542.22</ele>
  <time>2026-09-01T20:00:49Z</time>
  <course>139.72</course>
  <speed>1.03</speed>
  <fix>3d</fix>
</trkpt>
<trkpt lat="-27.2416724" lon="151.3718654">
  <ele>539.03</ele>
  <time>2026-09-01T20:00:49Z</time>
  <course>122.18</course>
  <speed>2.54678228358845</speed>
  <fix>3d</fix>
</trkpt>
<trkpt lat="-27.2416688" lon="151.3718632">
  <ele>540.77</ele>
  <time>2026-09-01T20:00:49Z</time>
  <course>147.55</course>
  <speed>1.79</speed>
  <fix>3d</fix>
</trkpt>
<trkpt lat="-27.2416743" lon="151.3718668">
  <ele>538.02</ele>
  <time>2026-09-01T20:00:49Z</time>
  <course>110.02</course>
  <speed>2.3855607307297797</speed>
  <fix>3d</fix>
</trkpt>
<trkpt lat="-27.2416688" lon="151.3718632">
  <ele>540.77</ele>
  <time>2026-09-01T20:00:49Z</time>
  <course>147.55</course>
  <speed>1.79</speed>
  <fix>3d</fix>
</trkpt>
<trkpt lat="-27.2416761" lon="151.371868">
  <ele>536.91</ele>
  <time>2026-09-01T20:00:49Z</time>
  <course>110.7</course>
  <speed>2.2998478210525146</speed>
  <fix>3d</fix>
</trkpt>
<trkpt lat="-27.2416722" lon="151.3718655">
  <ele>539.02</ele>
  <time>2026-09-01T20:00:49Z</time>
  <course>149.45</course>
  <speed>2.42</speed>
  <fix>3d</fix>
</trkpt>
<trkpt lat="-27.2416779" lon="151.3718692">
  <ele>535.73</ele>
  <time>2026-09-01T20:00:49Z</time>
  <course>114.53</course>
  <speed>2.5599414055794325</speed>
  <fix>3d</fix>
</trkpt>
<trkpt lat="-27.2416722" lon="151.3718655">
  <ele>539.02</ele>
  <time>2026-09-01T20:00:49Z</time>
  <course>149.45</course>
  <speed>2.42</speed>
  <fix>3d</fix>
</trkpt>
<trkpt lat="-27.24168" lon="151.3718711">
  <ele>534.47</ele>
  <time>2026-09-01T20:00:49Z</time>
  <course>114.6</course>
  <speed>3.265348373451139</speed>
  <fix>3d</fix>
</trkpt>
<trkpt lat="-27.241676" lon="151.371868">
  <ele>536.93</ele>
  <time>2026-09-01T20:00:49Z</time>
  <course>147.82</course>
  <speed>2.47</speed>
  <fix>3d</fix>
</trkpt>
<trkpt lat="-27.2416823" lon="151.3718738">
  <ele>533.15</ele>
  <time>2026-09-01T20:00:49Z</time>
  <course>113.83</course>
  <speed>4.313757063164314</speed>
  <fix>3d</fix>
</trkpt>
<trkpt lat="-27.241676" lon="151.371868">
  <ele>536.93</ele>
  <time>2026-09-01T20:00:49Z</time>
  <course>147.82</course>
  <speed>2.47</speed>
  <fix>3d</fix>
</trkpt>
<trkpt lat="-27.2416848" lon="151.3718778">
  <ele>531.78</ele>
  <time>2026-09-01T20:00:49Z</time>
  <course>113.99</course>
  <speed>5.505669804846637</speed>
  <fix>3d</fix>
</trkpt>
<trkpt lat="-27.24168" lon="151.3718714">
  <ele>534.49</ele>
  <time>2026-09-01T20:00:49Z</time>
  <course>135.9</course>
  <speed>3.37</speed>
  <fix>3d</fix>
</trkpt>
<trkpt lat="-27.2416875" lon="151.3718832">
  <ele>530.39</ele>
  <time>2026-09-01T20:00:49Z</time>
  <course>115.0</course>
  <speed>6.71268202732708</speed>
  <fix>3d</fix>
</trkpt>
<trkpt lat="-27.24168" lon="151.3718714">
  <ele>534.49</ele>
  <time>2026-09-01T20:00:49Z</time>
  <course>135.9</course>
  <speed>3.37</speed>
  <fix>3d</fix>
</trkpt>
<trkpt lat="-27.2416903" lon="151.3718899">
  <ele>528.98</ele>
  <time>2026-09-01T20:00:49Z</time>
  <course>116.15</course>
  <speed>7.916748069756925</speed>
  <fix>3d</fix>
</trkpt>
<trkpt lat="-27.2416848" lon="151.3718783">
  <ele>531.82</ele>
  <time>2026-09-01T20:00:49Z</time>
  <course>121.83</course>
  <speed>5.43</speed>
  <fix>3d</fix>
</trkpt>
<trkpt lat="-27.2416933" lon="151.3718979">
  <ele>527.57</ele>
  <time>2026-09-01T20:00:49Z</time>
  <course>116.99</course>
  <speed>9.155413699008909</speed>
  <fix>3d</fix>
</trkpt>
<trkpt lat="-27.2416848" lon="151.3718783">
  <ele>531.82</ele>
  <time>2026-09-01T20:00:49Z</time>
  <course>121.83</course>
  <speed>5.43</speed>
  <fix>3d</fix>
</trkpt>
<trkpt lat="-27.2416966" lon="151.371907">
  <ele>526.16</ele>
  <time>2026-09-01T20:00:49Z</time>
  <course>117.43</course>
  <speed>10.45769573089598</speed>
  <fix>3d</fix>
</trkpt>
<trkpt lat="-27.2416902" lon="151.3718903">
  <ele>529.04</ele>
  <time>2026-09-01T20:00:49Z</time>
  <course>114.33</course>
  <speed>7.88</speed>
  <fix>3d</fix>
</trkpt>
<trkpt lat="-27.2417006" lon="151.3719174">
  <ele>524.79</ele>
  <time>2026-09-01T20:00:49Z</time>
  <course>117.51</course>
  <speed>11.756704470216132</speed>
  <fix>3d</fix>
</trkpt>
<trkpt lat="-27.2416902" lon="151.3718903">
  <ele>529.04</ele>
  <time>2026-09-01T20:00:49Z</time>
  <course>114.33</course>
  <speed>7.88</speed>
  <fix>3d</fix>
</trkpt>
<trkpt lat="-27.2417052" lon="151.3719288">
  <ele>523.49</ele>
  <time>2026-09-01T20:00:49Z</time>
  <course>117.34</course>
  <speed>12.998615310870616</speed>
  <fix>3d</fix>
</trkpt>
<trkpt lat="-27.2416967" lon="151.3719072">
  <ele>526.24</ele>
  <time>2026-09-01T20:00:49Z</time>
  <course>113.24</course>
  <speed>10.41</speed>
  <fix>3d</fix>
</trkpt>
<trkpt lat="-27.2417106" lon="151.371941">
  <ele>522.24</ele>
  <time>2026-09-01T20:00:49Z</time>
  <course>117.06</course>
  <speed>14.167907396648243</speed>
  <fix>3d</fix>
</trkpt>
<trkpt lat="-27.2416967" lon="151.3719072">
  <ele>526.24</ele>
  <time>2026-09-01T20:00:49Z</time>
  <course>113.24</course>
  <speed>10.41</speed>
  <fix>3d</fix>
</trkpt>
<trkpt lat="-27.2417167" lon="151.3719543">
  <ele>521.07</ele>
  <time>2026-09-01T20:00:49Z</time>
  <course>116.75</course>
  <speed>15.267183761257344</speed>
  <fix>3d</fix>
</trkpt>
<trkpt lat="-27.2417054" lon="151.3719287">
  <ele>523.57</ele>
  <time>2026-09-01T20:00:49Z</time>
  <course>115.44</course>
  <speed>12.91</speed>
  <fix>3d</fix>
</trkpt>
<trkpt lat="-27.2417234" lon="151.3719683">
  <ele>519.99</ele>
  <time>2026-09-01T20:00:49Z</time>
  <course>116.42</course>
  <speed>16.271806906425603</speed>
  <fix>3d</fix>
</trkpt>
<trkpt lat="-27.2417054" lon="151.3719287">
  <ele>523.57</ele>
  <time>2026-09-01T20:00:49Z</time>
  <course>115.44</course>
  <speed>12.91</speed>
  <fix>3d</fix>
</trkpt>
<trkpt lat="-27.2417304" lon="151.3719832">
  <ele>519.04</ele>
  <time>2026-09-01T20:00:49Z</time>
  <course>116.08</course>
  <speed>17.146527345208998</speed>
  <fix>3d</fix>
</trkpt>
<trkpt lat="-27.2417167" lon="151.3719542">
  <ele>521.16</ele>
  <time>2026-09-01T20:00:49Z</time>
  <course>117.54</course>
  <speed>15.18</speed>
  <fix>3d</fix>
</trkpt>
<trkpt lat="-27.2417377" lon="151.371999">
  <ele>518.2</ele>
  <time>2026-09-01T20:00:49Z</time>
  <course>115.71</course>
  <speed>17.849282898760947</speed>
  <fix>3d</fix>
</trkpt>
<trkpt lat="-27.2417167" lon="151.3719542">
  <ele>521.16</ele>
  <time>2026-09-01T20:00:49Z</time>
  <course>117.54</course>
  <speed>15.18</speed>
  <fix>3d</fix>
</trkpt>
<trkpt lat="-27.241745" lon="151.3720153">
  <ele>517.5</ele>
  <time>2026-09-01T20:00:49Z</time>
  <course>115.3</course>
  <speed>18.39435239414533</speed>
  <fix>3d</fix>
</trkpt>
<trkpt lat="-27.2417302" lon="151.371983">
  <ele>519.13</ele>
  <time>2026-09-01T20:00:49Z</time>
  <course>117.68</course>
  <speed>17.03</speed>
  <fix>3d</fix>
</trkpt>
<trkpt lat="-27.2417523" lon="151.3720323">
  <ele>516.91</ele>
  <time>2026-09-01T20:00:49Z</time>
  <course>114.89</course>
  <speed>18.75800095959055</speed>
  <fix>3d</fix>
</trkpt>
<trkpt lat="-27.2417302" lon="151.371983">
  <ele>519.13</ele>
  <time>2026-09-01T20:00:49Z</time>
  <course>117.68</course>
  <speed>17.03</speed>
  <fix>3d</fix>
</trkpt>
<trkpt lat="-27.2417593" lon="151.3720497">
  <ele>516.48</ele>
  <time>2026-09-01T20:00:49Z</time>
  <course>114.59</course>
  <speed>18.96068564161117</speed>
  <fix>3d</fix>
</trkpt>
<trkpt lat="-27.2417447" lon="151.372015">
  <ele>517.58</ele>
  <time>2026-09-01T20:00:49Z</time>
  <course>116.13</course>
  <speed>18.29</speed>
  <fix>3d</fix>
</trkpt>
<trkpt lat="-27.2417662" lon="151.3720672">
  <ele>516.14</ele>
  <time>2026-09-01T20:00:49Z</time>
  <course>114.44</course>
  <speed>19.01086531434064</speed>
  <fix>3d</fix>
</trkpt>
<trkpt lat="-27.2417447" lon="151.372015">
  <ele>517.58</ele>
  <time>2026-09-01T20:00:49Z</time>
  <course>116.13</course>
  <speed>18.29</speed>
  <fix>3d</fix>
</trkpt>
<trkpt lat="-27.241773" lon="151.372085">
  <ele>515.88</ele>
  <time>2026-09-01T20:00:49Z</time>
  <course>114.3</course>
  <speed>18.967216453660246</speed>
  <fix>3d</fix>
</trkpt>
<trkpt lat="-27.241759" lon="151.3720492">
  <ele>516.54</ele>
  <time>2026-09-01T20:00:49Z</time>
  <course>114.32</course>
  <speed>18.88</speed>
  <fix>3d</fix>
</trkpt>
<trkpt lat="-27.2417797" lon="151.3721026">
  <ele>515.66</ele>
  <time>2026-09-01T20:00:49Z</time>
  <course>114.08</course>
  <speed>18.875319864839376</speed>
  <fix>3d</fix>
</trkpt>
<trkpt lat="-27.241759" lon="151.3720492">
  <ele>516.54</ele>
  <time>2026-09-01T20:00:49Z</time>
  <course>114.32</course>
  <speed>18.88</speed>
  <fix>3d</fix>
</trkpt>
<trkpt lat="-27.2417864" lon="151.37212">
  <ele>515.48</ele>
  <time>2026-09-01T20:00:49Z</time>
  <course>113.78</course>
  <speed>18.75844876315736</speed>
  <fix>3d</fix>
</trkpt>
<trkpt lat="-27.2417727" lon="151.3720842">
  <ele>515.91</ele>
  <time>2026-09-01T20:00:49Z</time>
  <course>113.34</course>
  <speed>18.94</speed>
  <fix>3d</fix>
</trkpt>
<trkpt lat="-27.241793" lon="151.3721373">
  <ele>515.29</ele>
  <time>2026-09-01T20:00:49Z</time>
  <course>113.45</course>
  <speed>18.636322062037884</speed>
  <fix>3d</fix>
</trkpt>
<trkpt lat="-27.2417727" lon="151.3720842">
  <ele>515.91</ele>
  <time>2026-09-01T20:00:49Z</time>
  <course>113.34</course>
  <speed>18.94</speed>
  <fix>3d</fix>
</trkpt>
<trkpt lat="-27.2417995" lon="151.3721546">
  <ele>515.13</ele>
  <time>2026-09-01T20:00:49Z</time>
  <course>113.16</course>
  <speed>18.51421615948134</speed>
  <fix>3d</fix>
</trkpt>
<trkpt lat="-27.241786" lon="151.3721192">
  <ele>515.49</ele>
  <time>2026-09-01T20:00:49Z</time>
  <course>113.16</course>
  <speed>18.76</speed>
  <fix>3d</fix>
</trkpt>
<trkpt lat="-27.2418061" lon="151.3721718">
  <ele>514.96</ele>
  <time>2026-09-01T20:00:49Z</time>
  <course>112.94</course>
  <speed>18.388175548433292</speed>
  <fix>3d</fix>
</trkpt>
<trkpt lat="-27.241786" lon="151.3721192">
  <ele>515.49</ele>
  <time>2026-09-01T20:00:49Z</time>
  <course>113.16</course>
  <speed>18.76</speed>
  <fix>3d</fix>
</trkpt>
<trkpt lat="-27.2399947" lon="151.3761745">
  <ele>542.98</ele>
  <time>2026-09-01T20:00:49Z</time>
  <course>250.01</course>
  <speed>0.0</speed>
  <fix>3d</fix>
</trkpt>
<trkpt lat="-27.2417992" lon="151.3721539">
  <ele>515.14</ele>
  <time>2026-09-01T20:00:49Z</time>
  <course>113.24</course>
  <speed>18.52</speed>
  <fix>3d</fix>
</trkpt>
<trkpt lat="-27.2399948" lon="151.3761745">
  <ele>542.87</ele>
  <time>2026-09-01T20:00:49Z</time>
  <course>250.01</course>
  <speed>0.01</speed>
  <fix>3d</fix>
</trkpt>
<trkpt lat="-27.2417992" lon="151.3721539">
  <ele>515.14</ele>
  <time>2026-09-01T20:00:49Z</time>
  <course>113.24</course>
  <speed>18.52</speed>
  <fix>3d</fix>
</trkpt>
<trkpt lat="-27.2399948" lon="151.3761745">
  <ele>542.66</ele>
  <time>2026-09-01T20:00:49Z</time>
  <course>250.01</course>
  <speed>0.044721359549995794</speed>
  <fix>3d</fix>
</trkpt>
<trkpt lat="-27.2409003" lon="151.3741728">
  <ele>528.92</ele>
  <time>2026-09-01T20:00:49Z</time>
  <course>113.32</course>
  <speed>9.19</speed>
  <fix>3d</fix>
</trkpt>
<trkpt lat="-27.2399948" lon="151.3761744">
  <ele>542.38</ele>
  <time>2026-09-01T20:00:49Z</time>
  <course>250.59</course>
  <speed>0.11704699910719625</speed>
  <fix>3d</fix>
</trkpt>
<trkpt lat="-27.2409003" lon="151.3741728">
  <ele>528.92</ele>
  <time>2026-09-01T20:00:49Z</time>
  <course>113.32</course>
  <speed>9.19</speed>
  <fix>3d</fix>
</trkpt>
<trkpt lat="-27.2399948" lon="151.3761743">
  <ele>542.01</ele>
  <time>2026-09-01T20:00:49Z</time>
  <course>253.69</course>
  <speed>0.2570992026436488</speed>
  <fix>3d</fix>
</trkpt>
<trkpt lat="-27.2399948" lon="151.3761745">
  <ele>542.63</ele>
  <time>2026-09-01T20:00:49Z</time>
  <course>248.9</course>
  <speed>0.06</speed>
  <fix>3d</fix>
</trkpt>
<trkpt lat="-27.2399947" lon="151.3761739">
  <ele>541.58</ele>
  <time>2026-09-01T20:00:49Z</time>
  <course>263.14</course>
  <speed>0.4410215414239989</speed>
  <fix>3d</fix>
</trkpt>
<trkpt lat="-27.2399948" lon="151.3761745">
  <ele>542.63</ele>
  <time>2026-09-01T20:00:49Z</time>
  <course>248.9</course>
  <speed>0.06</speed>
  <fix>3d</fix>
</trkpt>
<trkpt lat="-27.2399946" lon="151.3761735">
  <ele>541.06</ele>
  <time>2026-09-01T20:00:49Z</time>
  <course>264.42</course>
  <speed>0.41231056256176607</speed>
  <fix>3d</fix>
</trkpt>
<trkpt lat="-27.2399947" lon="151.3761741">
  <ele>541.99</ele>
  <time>2026-09-01T20:00:49Z</time>
  <course>291.95</course>
  <speed>0.26</speed>
  <fix>3d</fix>
</trkpt>
<trkpt lat="-27.2399954" lon="151.3761734">
  <ele>540.5</ele>
  <time>2026-09-01T20:00:49Z</time>
  <course>252.04</course>
  <speed>1.740258601472781</speed>
  <fix>3d</fix>
</trkpt>
<trkpt lat="-27.2399947" lon="151.3761741">
  <ele>541.99</ele>
  <time>2026-09-01T20:00:49Z</time>
  <course>291.95</course>
  <speed>0.26</speed>
  <fix>3d</fix>
</trkpt>
<trkpt lat="-27.2399975" lon="151.3761736">
  <ele>539.95</ele>
  <time>2026-09-01T20:00:49Z</time>
  <course>242.55</course>
  <speed>3.018691769624716</speed>
  <fix>3d</fix>
</trkpt>
<trkpt lat="-27.239995" lon="151.3761736">
  <ele>541.06</ele>
  <time>2026-09-01T20:00:49Z</time>
  <course>193.95</course>
  <speed>0.74</speed>
  <fix>3d</fix>
</trkpt>
<trkpt lat="-27.2400006" lon="151.3761745">
  <ele>539.44</ele>
  <time>2026-09-01T20:00:49Z</time>
  <course>234.91</course>
  <speed>3.992492955535426</speed>
  <fix>3d</fix>
</trkpt>
<trkpt lat="-27.239995" lon="151.3761736">
  <ele>541.06</ele>
  <time>2026-09-01T20:00:49Z</time>
  <course>193.95</course>
  <speed>0.74</speed>
  <fix>3d</fix>
</trkpt>
<trkpt lat="-27.2400044" lon="151.3761757">
  <ele>538.98</ele>
  <time>2026-09-01T20:00:49Z</time>
  <course>228.13</course>
  <speed>4.7605146780574055</speed>
  <fix>3d</fix>
</trkpt>
<trkpt lat="-27.2399979" lon="151.3761739">
  <ele>539.99</ele>
  <time>2026-09-01T20:00:49Z</time>
  <course>169.5</course>
  <speed>2.8</speed>
  <fix>3d</fix>
</trkpt>
<trkpt lat="-27.2400089" lon="151.3761773">
  <ele>538.6</ele>
  <time>2026-09-01T20:00:49Z</time>
  <course>221.88</course>
  <speed>5.579551953338189</speed>
  <fix>3d</fix>
</trkpt>
<trkpt lat="-27.2399979" lon="151.3761739">
  <ele>539.99</ele>
  <time>2026-09-01T20:00:49Z</time>
  <course>169.5</course>
  <speed>2.8</speed>
  <fix>3d</fix>
</trkpt>
<trkpt lat="-27.2400139" lon="151.3761791">
  <ele>538.31</ele>
  <time>2026-09-01T20:00:49Z</time>
  <course>215.91</course>
  <speed>6.081159428924718</speed>
  <fix>3d</fix>
</trkpt>
<trkpt lat="-27.2400046" lon="151.3761758">
  <ele>539.03</ele>
  <time>2026-09-01T20:00:49Z</time>
  <course>163.79</course>
  <speed>4.75</speed>
  <fix>3d</fix>
</trkpt>
<trkpt lat="-27.2400192" lon="151.3761811">
  <ele>538.09</ele>
  <time>2026-09-01T20:00:49Z</time>
  <course>210.79</course>
  <speed>6.416829435165003</speed>
  <fix>3d</fix>
</trkpt>
<trkpt lat="-27.2400046" lon="151.3761758">
  <ele>539.03</ele>
  <time>2026-09-01T20:00:49Z</time>
  <course>163.79</course>
  <speed>4.75</speed>
  <fix>3d</fix>
</trkpt>
<trkpt lat="-27.2400247" lon="151.3761832">
  <ele>537.94</ele>
  <time>2026-09-01T20:00:49Z</time>
  <course>206.77</course>
  <speed>6.5906372984712185</speed>
  <fix>3d</fix>
</trkpt>
<trkpt lat="-27.2400139" lon="151.3761791">
  <ele>538.35</ele>
  <time>2026-09-01T20:00:49Z</time>
  <course>161.7</course>
  <speed>5.98</speed>
  <fix>3d</fix>
</trkpt>
<trkpt lat="-27.2400303" lon="151.3761856">
  <ele>537.85</ele>
  <time>2026-09-01T20:00:49Z</time>
  <course>203.85</course>
  <speed>6.629660624798225</speed>
  <fix>3d</fix>
</trkpt>
<trkpt lat="-27.2400139" lon="151.3761791">
  <ele>538.35</ele>
  <time>2026-09-01T20:00:49Z</time>
  <course>161.7</course>
  <speed>5.98</speed>
  <fix>3d</fix>
</trkpt>
<trkpt lat="-27.2400358" lon="151.3761882">
  <ele>537.83</ele>
  <time>2026-09-01T20:00:49Z</time>
  <course>201.81</course>
  <speed>6.577355091524251</speed>
  <fix>3d</fix>
</trkpt>
<trkpt lat="-27.2400246" lon="151.3761832">
  <ele>537.98</ele>
  <time>2026-09-01T20:00:49Z</time>
  <course>159.77</course>
  <speed>6.52</speed>
  <fix>3d</fix>
</trkpt>
<trkpt lat="-27.2400413" lon="151.3761907">
  <ele>537.86</ele>
  <time>2026-09-01T20:00:49Z</time>
  <course>200.34</course>
  <speed>6.492333940887514</speed>
  <fix>3d</fix>
</trkpt>
<trkpt lat="-27.2400246" lon="151.3761832">
  <ele>537.98</ele>
  <time>2026-09-01T20:00:49Z</time>
  <course>159.77</course>
  <speed>6.52</speed>
  <fix>3d</fix>
</trkpt>
<trkpt lat="-27.2400466" lon="151.3761932">
  <ele>537.93</ele>
  <time>2026-09-01T20:00:49Z</time>
  <course>199.29</course>
  <speed>6.409251126301731</speed>
  <fix>3d</fix>
</trkpt>
<trkpt lat="-27.2400356" lon="151.376188">
  <ele>537.86</ele>
  <time>2026-09-01T20:00:49Z</time>
  <course>158.13</course>
  <speed>6.56</speed>
  <fix>3d</fix>
</trkpt>
<trkpt lat="-27.2400519" lon="151.3761956">
  <ele>538.03</ele>
  <time>2026-09-01T20:00:49Z</time>
  <course>198.6</course>
  <speed>6.336970885210062</speed>
  <fix>3d</fix>
</trkpt>
<trkpt lat="-27.2400356" lon="151.376188">
  <ele>537.86</ele>
  <time>2026-09-01T20:00:49Z</time>
  <course>158.13</course>
  <speed>6.56</speed>
  <fix>3d</fix>
</trkpt>
<trkpt lat="-27.2400571" lon="151.3761982">
  <ele>538.15</ele>
  <time>2026-09-01T20:00:49Z</time>
  <course>198.17</course>
  <speed>6.284616137840082</speed>
  <fix>3d</fix>
</trkpt>
<trkpt lat="-27.2400464" lon="151.3761931">
  <ele>537.94</ele>
  <time>2026-09-01T20:00:49Z</time>
  <course>157.31</course>
  <speed>6.42</speed>
  <fix>3d</fix>
</trkpt>
<trkpt lat="-27.2400623" lon="151.3762006">
  <ele>538.29</ele>
  <time>2026-09-01T20:00:49Z</time>
  <course>197.93</course>
  <speed>6.2470232911363475</speed>
  <fix>3d</fix>
</trkpt>
<trkpt lat="-27.2400464" lon="151.3761931">
  <ele>537.94</ele>
  <time>2026-09-01T20:00:49Z</time>
  <course>157.31</course>
  <speed>6.42</speed>
  <fix>3d</fix>
</trkpt>
<trkpt lat="-27.2400675" lon="151.376203">
  <ele>538.46</ele>
  <time>2026-09-01T20:00:49Z</time>
  <course>197.84</course>
  <speed>6.224508012686625</speed>
  <fix>3d</fix>
</trkpt>
<trkpt lat="-27.2400569" lon="151.376198">
  <ele>538.15</ele>
  <time>2026-09-01T20:00:49Z</time>
  <course>157.39</course>
  <speed>6.29</speed>
  <fix>3d</fix>
</trkpt>
<trkpt lat="-27.2400727" lon="151.3762052">
  <ele>538.64</ele>
  <time>2026-09-01T20:00:49Z</time>
  <course>197.86</course>
  <speed>6.198870864923708</speed>
  <fix>3d</fix>
</trkpt>
<trkpt lat="-27.2400569" lon="151.376198">
  <ele>538.15</ele>
  <time>2026-09-01T20:00:49Z</time>
  <course>157.39</course>
  <speed>6.29</speed>
  <fix>3d</fix>
</trkpt>
<trkpt lat="-27.2400779" lon="151.3762075">
  <ele>538.83</ele>
  <time>2026-09-01T20:00:49Z</time>
  <course>197.96</course>
  <speed>6.186800465507191</speed>
  <fix>3d</fix>
</trkpt>
<trkpt lat="-27.2400673" lon="151.3762028">
  <ele>538.45</ele>
  <time>2026-09-01T20:00:49Z</time>
  <course>158.2</course>
  <speed>6.23</speed>
  <fix>3d</fix>
</trkpt>
<trkpt lat="-27.2400832" lon="151.3762097">
  <ele>539.03</ele>
  <time>2026-09-01T20:00:49Z</time>
  <course>198.13</course>
  <speed>6.184698860898565</speed>
  <fix>3d</fix>
</trkpt>
<trkpt lat="-27.2400673" lon="151.3762028">
  <ele>538.45</ele>
  <time>2026-09-01T20:00:49Z</time>
  <course>158.2</course>
  <speed>6.23</speed>
  <fix>3d</fix>
</trkpt>
<trkpt lat="-27.2400884" lon="151.3762118">
  <ele>539.24</ele>
  <time>2026-09-01T20:00:49Z</time>
  <course>198.33</course>
  <speed>6.17991909332153</speed>
  <fix>3d</fix>
</trkpt>
<trkpt lat="-27.2400777" lon="151.3762074">
  <ele>538.82</ele>
  <time>2026-09-01T20:00:49Z</time>
  <course>159.33</course>
  <speed>6.19</speed>
  <fix>3d</fix>
</trkpt>
<trkpt lat="-27.2400936" lon="151.3762137">
  <ele>539.47</ele>
  <time>2026-09-01T20:00:49Z</time>
  <course>198.56</course>
  <speed>6.175993847147194</speed>
  <fix>3d</fix>
</trkpt>
<trkpt lat="-27.2400777" lon="151.3762074">
  <ele>538.82</ele>
  <time>2026-09-01T20:00:49Z</time>
  <course>159.33</course>
  <speed>6.19</speed>
  <fix>3d</fix>
</trkpt>
<trkpt lat="-27.2400989" lon="151.3762157">
  <ele>539.71</ele>
  <time>2026-09-01T20:00:49Z</time>
  <course>198.81</course>
  <speed>6.172924752497798</speed>
  <fix>3d</fix>
</trkpt>
<trkpt lat="-27.2400881" lon="151.3762116">
  <ele>539.24</ele>
  <time>2026-09-01T20:00:49Z</time>
  <course>160.59</course>
  <speed>6.18</speed>
  <fix>3d</fix>
</trkpt>
<trkpt lat="-27.2401042" lon="151.3762176">
  <ele>539.96</ele>
  <time>2026-09-01T20:00:49Z</time>
  <course>199.09</course>
  <speed>6.180258894253541</speed>
  <fix>3d</fix>
</trkpt>
<trkpt lat="-27.2400881" lon="151.3762116">
  <ele>539.24</ele>
  <time>2026-09-01T20:00:49Z</time>
  <course>160.59</course>
  <speed>6.18</speed>
  <fix>3d</fix>
</trkpt>
<trkpt lat="-27.2401095" lon="151.3762195">
  <ele>540.22</ele>
  <time>2026-09-01T20:00:49Z</time>
  <course>199.38</course>
  <speed>6.185668920981788</speed>
  <fix>3d</fix>
</trkpt>
<trkpt lat="-27.2400987" lon="151.3762156">
  <ele>539.7</ele>
  <time>2026-09-01T20:00:49Z</time>
  <course>161.95</course>
  <speed>6.18</speed>
  <fix>3d</fix>
</trkpt>
<trkpt lat="-27.2401148" lon="151.3762213">
  <ele>540.49</ele>
  <time>2026-09-01T20:00:49Z</time>
  <course>199.66</course>
  <speed>6.182628890690433</speed>
  <fix>3d</fix>
</trkpt>
<trkpt lat="-27.2400987" lon="151.3762156">
  <ele>539.7</ele>
  <time>2026-09-01T20:00:49Z</time>
  <course>161.95</course>
  <speed>6.18</speed>
  <fix>3d</fix>
</trkpt>
<trkpt lat="-27.2401202" lon="151.3762228">
  <ele>540.77</ele>
  <time>2026-09-01T20:00:49Z</time>
  <course>199.95</course>
  <speed>6.19293952820468</speed>
  <fix>3d</fix>
</trkpt>
<trkpt lat="-27.2401093" lon="151.3762194">
  <ele>540.21</ele>
  <time>2026-09-01T20:00:49Z</time>
  <course>163.39</course>
  <speed>6.18</speed>
  <fix>3d</fix>
</trkpt>
<trkpt lat="-27.2401256" lon="151.3762245">
  <ele>541.04</ele>
  <time>2026-09-01T20:00:49Z</time>
  <course>200.24</course>
  <speed>6.201693317151373</speed>
  <fix>3d</fix>
</trkpt>
<trkpt lat="-27.2401093" lon="151.3762194">
  <ele>540.21</ele>
  <time>2026-09-01T20:00:49Z</time>
  <course>163.39</course>
  <speed>6.18</speed>
  <fix>3d</fix>
</trkpt>
<trkpt lat="-27.240131" lon="151.376226">
  <ele>541.33</ele>
  <time>2026-09-01T20:00:49Z</time>
  <course>200.55</course>
  <speed>6.2116100972292205</speed>
  <fix>3d</fix>
</trkpt>
<trkpt lat="-27.24012" lon="151.3762228">
  <ele>540.76</ele>
  <time>2026-09-01T20:00:49Z</time>
  <course>164.91</course>
  <speed>6.2</speed>
  <fix>3d</fix>
</trkpt>
<trkpt lat="-27.2401365" lon="151.3762274">
  <ele>541.61</ele>
  <time>2026-09-01T20:00:49Z</time>
  <course>200.86</course>
  <speed>6.222684308238688</speed>
  <fix>3d</fix>
</trkpt>
<trkpt lat="-27.24012" lon="151.3762228">
  <ele>540.76</ele>
  <time>2026-09-01T20:00:49Z</time>
  <course>164.91</course>
  <speed>6.2</speed>
  <fix>3d</fix>
</trkpt>
<trkpt lat="-27.2401419" lon="151.3762288">
  <ele>541.9</ele>
  <time>2026-09-01T20:00:49Z</time>
  <course>201.2</course>
  <speed>6.2328484659904895</speed>
  <fix>3d</fix>
</trkpt>
<trkpt lat="-27.2401308" lon="151.3762259">
  <ele>541.31</ele>
  <time>2026-09-01T20:00:49Z</time>
  <course>166.48</course>
  <speed>6.21</speed>
  <fix>3d</fix>
</trkpt>
<trkpt lat="-27.2401474" lon="151.37623">
  <ele>542.18</ele>
  <time>2026-09-01T20:00:49Z</time>
  <course>201.55</course>
  <speed>6.246350934745822</speed>
  <fix>3d</fix>
</trkpt>
<trkpt lat="-27.2401308" lon="151.3762259">
  <ele>541.31</ele>
  <time>2026-09-01T20:00:49Z</time>
  <course>166.48</course>
  <speed>6.21</speed>
  <fix>3d</fix>
</trkpt>
<trkpt lat="-27.2401529" lon="151.3762312">
  <ele>542.46</ele>
  <time>2026-09-01T20:00:49Z</time>
  <course>201.92</course>
  <speed>6.251151893851245</speed>
  <fix>3d</fix>
</trkpt>
<trkpt lat="-27.2401417" lon="151.3762287">
  <ele>541.88</ele>
  <time>2026-09-01T20:00:49Z</time>
  <course>168.05</course>
  <speed>6.24</speed>
  <fix>3d</fix>
</trkpt>
<trkpt lat="-27.2401585" lon="151.3762323">
  <ele>542.73</ele>
  <time>2026-09-01T20:00:49Z</time>
  <course>202.31</course>
  <speed>6.255381682999047</speed>
  <fix>3d</fix>
</trkpt>
<trkpt lat="-27.2401417" lon="151.3762287">
  <ele>541.88</ele>
  <time>2026-09-01T20:00:49Z</time>
  <course>168.05</course>
  <speed>6.24</speed>
  <fix>3d</fix>
</trkpt>
<trkpt lat="-27.240164" lon="151.3762333">
  <ele>543.01</ele>
  <time>2026-09-01T20:00:49Z</time>
  <course>202.72</course>
  <speed>6.2510799067041205</speed>
  <fix>3d</fix>
</trkpt>
<trkpt lat="-27.2401527" lon="151.3762311">
  <ele>542.44</ele>
  <time>2026-09-01T20:00:49Z</time>
  <course>169.64</course>
  <speed>6.25</speed>
  <fix>3d</fix>
</trkpt>
<trkpt lat="-27.2401696" lon="151.3762342">
  <ele>543.28</ele>
  <time>2026-09-01T20:00:49Z</time>
  <course>203.16</course>
  <speed>6.248087707450976</speed>
  <fix>3d</fix>
</trkpt>
<trkpt lat="-27.2401527" lon="151.3762311">
  <ele>542.44</ele>
  <time>2026-09-01T20:00:49Z</time>
  <course>169.64</course>
  <speed>6.25</speed>
  <fix>3d</fix>
</trkpt>
<trkpt lat="-27.2401752" lon="151.3762349">
  <ele>543.54</ele>
  <time>2026-09-01T20:00:49Z</time>
  <course>203.62</course>
  <speed>6.236481379752529</speed>
  <fix>3d</fix>
</trkpt>
<trkpt lat="-27.2401638" lon="151.3762332">
  <ele>542.99</ele>
  <time>2026-09-01T20:00:49Z</time>
  <course>171.27</course>
  <speed>6.25</speed>
  <fix>3d</fix>
</trkpt>
<trkpt lat="-27.2401807" lon="151.3762358">
  <ele>543.79</ele>
  <time>2026-09-01T20:00:49Z</time>
  <course>204.11</course>
  <speed>6.207358536446884</speed>
  <fix>3d</fix>
</trkpt>
<trkpt lat="-27.2401638" lon="151.3762332">
  <ele>542.99</ele>
  <time>2026-09-01T20:00:49Z</time>
  <course>171.27</course>
  <speed>6.25</speed>
  <fix>3d</fix>
</trkpt>
<trkpt lat="-27.2401862" lon="151.3762363">
  <ele>544.06</ele>
  <time>2026-09-01T20:00:49Z</time>
  <course>204.64</course>
  <speed>6.169246307289083</speed>
  <fix>3d</fix>
</trkpt>
<trkpt lat="-27.2401749" lon="151.376235">
  <ele>543.53</ele>
  <time>2026-09-01T20:00:49Z</time>
  <course>172.86</course>
  <speed>6.23</speed>
  <fix>3d</fix>
</trkpt>
<trkpt lat="-27.2401917" lon="151.376237">
  <ele>544.32</ele>
  <time>2026-09-01T20:00:49Z</time>
  <course>205.2</course>
  <speed>6.122981299987776</speed>
  <fix>3d</fix>
</trkpt>
<trkpt lat="-27.2401749" lon="151.376235">
  <ele>543.53</ele>
  <time>2026-09-01T20:00:49Z</time>
  <course>172.86</course>
  <speed>6.23</speed>
  <fix>3d</fix>
</trkpt>
<trkpt lat="-27.2401972" lon="151.3762375">
  <ele>544.58</ele>
  <time>2026-09-01T20:00:49Z</time>
  <course>205.79</course>
  <speed>6.058258825768341</speed>
  <fix>3d</fix>
</trkpt>
<trkpt lat="-27.240186" lon="151.3762363">
  <ele>544.05</ele>
  <time>2026-09-01T20:00:49Z</time>
  <course>174.27</course>
  <speed>6.17</speed>
  <fix>3d</fix>
</trkpt>
<trkpt lat="-27.2402026" lon="151.376238">
  <ele>544.83</ele>
  <time>2026-09-01T20:00:49Z</time>
  <course>206.41</course>
  <speed>5.984062165452494</speed>
  <fix>3d</fix>
</trkpt>
<trkpt lat="-27.240186" lon="151.3762363">
  <ele>544.05</ele>
  <time>2026-09-01T20:00:49Z</time>
  <course>174.27</course>
  <speed>6.17</speed>
  <fix>3d</fix>
</trkpt>
<trkpt lat="-27.2402079" lon="151.3762384">
  <ele>545.09</ele>
  <time>2026-09-01T20:00:49Z</time>
  <course>207.06</course>
  <speed>5.8904074561952</speed>
  <fix>3d</fix>
</trkpt>
<trkpt lat="-27.240197" lon="151.3762375">
  <ele>544.56</ele>
  <time>2026-09-01T20:00:49Z</time>
  <course>175.47</course>
  <speed>6.06</speed>
  <fix>3d</fix>
</trkpt>
<trkpt lat="-27.2402132" lon="151.3762386">
  <ele>545.34</ele>
  <time>2026-09-01T20:00:49Z</time>
  <course>207.72</course>
  <speed>5.787780230796605</speed>
  <fix>3d</fix>
</trkpt>
<trkpt lat="-27.240197" lon="151.3762375">
  <ele>544.56</ele>
  <time>2026-09-01T20:00:49Z</time>
  <course>175.47</course>
  <speed>6.06</speed>
  <fix>3d</fix>
</trkpt>
<trkpt lat="-27.2402183" lon="151.376239">
  <ele>545.6</ele>
  <time>2026-09-01T20:00:49Z</time>
  <course>208.41</course>
  <speed>5.655979137160958</speed>
  <fix>3d</fix>
</trkpt>
<trkpt lat="-27.2402077" lon="151.3762383">
  <ele>545.07</ele>
  <time>2026-09-01T20:00:49Z</time>
  <course>176.47</course>
  <speed>5.89</speed>
  <fix>3d</fix>
</trkpt>
<trkpt lat="-27.2402234" lon="151.3762391">
  <ele>545.86</ele>
  <time>2026-09-01T20:00:49Z</time>
  <course>209.11</course>
  <speed>5.523993120922581</speed>
  <fix>3d</fix>
</trkpt>
<trkpt lat="-27.2402077" lon="151.3762383">
  <ele>545.07</ele>
  <time>2026-09-01T20:00:49Z</time>
  <course>176.47</course>
  <speed>5.89</speed>
  <fix>3d</fix>
</trkpt>
<trkpt lat="-27.2402283" lon="151.3762394">
  <ele>546.12</ele>
  <time>2026-09-01T20:00:49Z</time>
  <course>209.82</course>
  <speed>5.363021536410235</speed>
  <fix>3d</fix>
</trkpt>
<trkpt lat="-27.2402181" lon="151.3762389">
  <ele>545.58</ele>
  <time>2026-09-01T20:00:49Z</time>
  <course>177.32</course>
  <speed>5.66</speed>
  <fix>3d</fix>
</trkpt>
<trkpt lat="-27.240233" lon="151.3762396">
  <ele>546.38</ele>
  <time>2026-09-01T20:00:49Z</time>
  <course>210.56</course>
  <speed>5.191887903258313</speed>
  <fix>3d</fix>
</trkpt>
<trkpt lat="-27.2402181" lon="151.3762389">
  <ele>545.58</ele>
  <time>2026-09-01T20:00:49Z</time>
  <course>177.32</course>
  <speed>5.66</speed>
  <fix>3d</fix>
</trkpt>
<trkpt lat="-27.2402376" lon="151.3762396">
  <ele>546.64</ele>
  <time>2026-09-01T20:00:49Z</time>
  <course>211.32</course>
  <speed>4.99121227759349</speed>
  <fix>3d</fix>
</trkpt>
<trkpt lat="-27.240228" lon="151.3762393">
  <ele>546.1</ele>
  <time>2026-09-01T20:00:49Z</time>
  <course>178.02</course>
  <speed>5.36</speed>
  <fix>3d</fix>
</trkpt>
<trkpt lat="-27.240242" lon="151.3762397">
  <ele>546.9</ele>
  <time>2026-09-01T20:00:49Z</time>
  <course>212.12</course>
  <speed>4.760672221441001</speed>
  <fix>3d</fix>
</trkpt>
<trkpt lat="-27.240228" lon="151.3762393">
  <ele>546.1</ele>
  <time>2026-09-01T20:00:49Z</time>
  <course>178.02</course>
  <speed>5.36</speed>
  <fix>3d</fix>
</trkpt>
<trkpt lat="-27.2402461" lon="151.3762399">
  <ele>547.16</ele>
  <time>2026-09-01T20:00:49Z</time>
  <course>212.95</course>
  <speed>4.510277153346566</speed>
  <fix>3d</fix>
</trkpt>
<trkpt lat="-27.2402372" lon="151.3762396">
  <ele>546.62</ele>
  <time>2026-09-01T20:00:49Z</time>
  <course>178.63</course>
  <speed>4.98</speed>
  <fix>3d</fix>
</trkpt>
<trkpt lat="-27.2402501" lon="151.3762399">
  <ele>547.43</ele>
  <time>2026-09-01T20:00:49Z</time>
  <course>213.82</course>
  <speed>4.240047169548943</speed>
  <fix>3d</fix>
</trkpt>
<trkpt lat="-27.2402372" lon="151.3762396">
  <ele>546.62</ele>
  <time>2026-09-01T20:00:49Z</time>
  <course>178.63</course>
  <speed>4.98</speed>
  <fix>3d</fix>
</trkpt>
<trkpt lat="-27.2402537" lon="151.3762399">
  <ele>547.69</ele>
  <time>2026-09-01T20:00:49Z</time>
  <course>214.75</course>
  <speed>3.95</speed>
  <fix>3d</fix>
</trkpt>
<trkpt lat="-27.2402458" lon="151.3762398">
  <ele>547.15</ele>
  <time>2026-09-01T20:00:49Z</time>
  <course>179.27</course>
  <speed>4.51</speed>
  <fix>3d</fix>
</trkpt>
<trkpt lat="-27.2402572" lon="151.3762399">
  <ele>547.96</ele>
  <time>2026-09-01T20:00:49Z</time>
  <course>215.69</course>
  <speed>3.6401236242743185</speed>
  <fix>3d</fix>
</trkpt>
<trkpt lat="-27.2402458" lon="151.3762398">
  <ele>547.15</ele>
  <time>2026-09-01T20:00:49Z</time>
  <course>179.27</course>
  <speed>4.51</speed>
  <fix>3d</fix>
</trkpt>
<trkpt lat="-27.2402603" lon="151.3762399">
  <ele>548.22</ele>
  <time>2026-09-01T20:00:49Z</time>
  <course>216.62</course>
  <speed>3.3103776219639958</speed>
  <fix>3d</fix>
</trkpt>
<trkpt lat="-27.2402534" lon="151.3762399">
  <ele>547.68</ele>
  <time>2026-09-01T20:00:49Z</time>
  <course>180.02</course>
  <speed>3.95</speed>
  <fix>3d</fix>
</trkpt>
<trkpt lat="-27.2402631" lon="151.3762399">
  <ele>548.48</ele>
  <time>2026-09-01T20:00:49Z</time>
  <course>217.51</course>
  <speed>2.971077245714086</speed>
  <fix>3d</fix>
</trkpt>
<trkpt lat="-27.2402534" lon="151.3762399">
  <ele>547.68</ele>
  <time>2026-09-01T20:00:49Z</time>
  <course>180.02</course>
  <speed>3.95</speed>
  <fix>3d</fix>
</trkpt>
<trkpt lat="-27.2402656" lon="151.3762397">
  <ele>548.75</ele>
  <time>2026-09-01T20:00:49Z</time>
  <course>218.35</course>
  <speed>2.631900454044567</speed>
  <fix>3d</fix>
</trkpt>
<trkpt lat="-27.24026" lon="151.3762399">
  <ele>548.2</ele>
  <time>2026-09-01T20:00:49Z</time>
  <course>180.94</course>
  <speed>3.31</speed>
  <fix>3d</fix>
</trkpt>
<trkpt lat="-27.2402678" lon="151.3762396">
  <ele>549.01</ele>
  <time>2026-09-01T20:00:49Z</time>
  <course>219.12</course>
  <speed>2.293141949378625</speed>
  <fix>3d</fix>
</trkpt>
<trkpt lat="-27.24026" lon="151.3762399">
  <ele>548.2</ele>
  <time>2026-09-01T20:00:49Z</time>
  <course>180.94</course>
  <speed>3.31</speed>
  <fix>3d</fix>
</trkpt>
<trkpt lat="-27.2402697" lon="151.3762396">
  <ele>549.26</ele>
  <time>2026-09-01T20:00:49Z</time>
  <course>219.81</course>
  <speed>1.9742846805868703</speed>
  <fix>3d</fix>
</trkpt>
<trkpt lat="-27.2402654" lon="151.3762398">
  <ele>548.73</ele>
  <time>2026-09-01T20:00:49Z</time>
  <course>182.16</course>
  <speed>2.64</speed>
  <fix>3d</fix>
</trkpt>
<trkpt lat="-27.2402714" lon="151.3762394">
  <ele>549.52</ele>
  <time>2026-09-01T20:00:49Z</time>
  <course>220.42</course>
  <speed>1.656804152578089</speed>
  <fix>3d</fix>
</trkpt>
<trkpt lat="-27.2402654" lon="151.3762398">
  <ele>548.73</ele>
  <time>2026-09-01T20:00:49Z</time>
  <course>182.16</course>
  <speed>2.64</speed>
  <fix>3d</fix>
</trkpt>
<trkpt lat="-27.2402728" lon="151.3762392">
  <ele>549.73</ele>
  <time>2026-09-01T20:00:49Z</time>
  <course>220.82</course>
  <speed>1.6597891432347662</speed>
  <fix>3d</fix>
</trkpt>
<trkpt lat="-27.2402695" lon="151.3762395">
  <ele>549.25</ele>
  <time>2026-09-01T20:00:49Z</time>
  <course>183.94</course>
  <speed>1.99</speed>
  <fix>3d</fix>
</trkpt>
<trkpt lat="-27.2402743" lon="151.3762391">
  <ele>549.83</ele>
  <time>2026-09-01T20:00:49Z</time>
  <course>220.97</course>
  <speed>1.660903368652132</speed>
  <fix>3d</fix>
</trkpt>
<trkpt lat="-27.2402695" lon="151.3762395">
  <ele>549.25</ele>
  <time>2026-09-01T20:00:49Z</time>
  <course>183.94</course>
  <speed>1.99</speed>
  <fix>3d</fix>
</trkpt>
<trkpt lat="-27.2402758" lon="151.3762389">
  <ele>549.84</ele>
  <time>2026-09-01T20:00:49Z</time>
  <course>220.94</course>
  <speed>1.6521501142450705</speed>
  <fix>3d</fix>
</trkpt>
<trkpt lat="-27.2402728" lon="151.3762392">
  <ele>549.67</ele>
  <time>2026-09-01T20:00:49Z</time>
  <course>185.98</course>
  <speed>1.67</speed>
  <fix>3d</fix>
</trkpt>
<trkpt lat="-27.2402773" lon="151.3762386">
  <ele>549.75</ele>
  <time>2026-09-01T20:00:49Z</time>
  <course>220.74</course>
  <speed>1.622374802565671</speed>
  <fix>3d</fix>
</trkpt>
<trkpt lat="-27.2402728" lon="151.3762392">
  <ele>549.67</ele>
  <time>2026-09-01T20:00:49Z</time>
  <course>185.98</course>
  <speed>1.67</speed>
  <fix>3d</fix>
</trkpt>
<trkpt lat="-27.2402787" lon="151.3762385">
  <ele>549.57</ele>
  <time>2026-09-01T20:00:49Z</time>
  <course>220.27</course>
  <speed>1.5616017418023074</speed>
  <fix>3d</fix>
</trkpt>
<trkpt lat="-27.2402757" lon="151.3762388">
  <ele>549.79</ele>
  <time>2026-09-01T20:00:49Z</time>
  <course>186.88</course>
  <speed>1.64</speed>
  <fix>3d</fix>
</trkpt>
<trkpt lat="-27.2402801" lon="151.3762382">
  <ele>549.31</ele>
  <time>2026-09-01T20:00:49Z</time>
  <course>219.4</course>
  <speed>1.4623952953972466</speed>
  <fix>3d</fix>
</trkpt>
<trkpt lat="-27.2402757" lon="151.3762388">
  <ele>549.79</ele>
  <time>2026-09-01T20:00:49Z</time>
  <course>186.88</course>
  <speed>1.64</speed>
  <fix>3d</fix>
</trkpt>
<trkpt lat="-27.2402813" lon="151.3762381">
  <ele>548.98</ele>
  <time>2026-09-01T20:00:49Z</time>
  <course>218.11</course>
  <speed>1.354843164355196</speed>
  <fix>3d</fix>
</trkpt>
<trkpt lat="-27.2402785" lon="151.3762385">
  <ele>549.54</ele>
  <time>2026-09-01T20:00:49Z</time>
  <course>187.37</course>
  <speed>1.55</speed>
  <fix>3d</fix>
</trkpt>
<trkpt lat="-27.2402825" lon="151.3762379">
  <ele>548.59</ele>
  <time>2026-09-01T20:00:49Z</time>
  <course>216.68</course>
  <speed>1.2560254774486066</speed>
  <fix>3d</fix>
</trkpt>
<trkpt lat="-27.2402785" lon="151.3762385">
  <ele>549.54</ele>
  <time>2026-09-01T20:00:49Z</time>
  <course>187.37</course>
  <speed>1.55</speed>
  <fix>3d</fix>
</trkpt>
<trkpt lat="-27.2402836" lon="151.3762376">
  <ele>548.15</ele>
  <time>2026-09-01T20:00:49Z</time>
  <course>215.33</course>
  <speed>1.1708543888972702</speed>
  <fix>3d</fix>
</trkpt>
<trkpt lat="-27.2402812" lon="151.3762381">
  <ele>548.95</ele>
  <time>2026-09-01T20:00:49Z</time>
  <course>188.53</course>
  <speed>1.36</speed>
  <fix>3d</fix>
</trkpt>
<trkpt lat="-27.2402846" lon="151.3762373">
  <ele>547.66</ele>
  <time>2026-09-01T20:00:49Z</time>
  <course>214.13</course>
  <speed>1.1085576214162258</speed>
  <fix>3d</fix>
</trkpt>
<trkpt lat="-27.2402812" lon="151.3762381">
  <ele>548.95</ele>
  <time>2026-09-01T20:00:49Z</time>
  <course>188.53</course>
  <speed>1.36</speed>
  <fix>3d</fix>
</trkpt>
<trkpt lat="-27.2402855" lon="151.3762371">
  <ele>547.13</ele>
  <time>2026-09-01T20:00:49Z</time>
  <course>213.05</course>
  <speed>1.1140017953306898</speed>
  <fix>3d</fix>
</trkpt>
<trkpt lat="-27.2402834" lon="151.3762376">
  <ele>548.14</ele>
  <time>2026-09-01T20:00:49Z</time>
  <course>191.28</course>
  <speed>1.19</speed>
  <fix>3d</fix>
</trkpt>
<trkpt lat="-27.2402865" lon="151.3762367">
  <ele>546.55</ele>
  <time>2026-09-01T20:00:49Z</time>
  <course>212.05</course>
  <speed>1.1670903992407786</speed>
  <fix>3d</fix>
</trkpt>
<trkpt lat="-27.2402834" lon="151.3762376">
  <ele>548.14</ele>
  <time>2026-09-01T20:00:49Z</time>
  <course>191.28</course>
  <speed>1.19</speed>
  <fix>3d</fix>
</trkpt>
<trkpt lat="-27.2402875" lon="151.3762362">
  <ele>545.9</ele>
  <time>2026-09-01T20:00:50Z</time>
  <course>211.1</course>
  <speed>1.238587905640936</speed>
  <fix>3d</fix>
</trkpt>
<trkpt lat="-27.2402855" lon="151.376237">
  <ele>547.12</ele>
  <time>2026-09-01T20:00:50Z</time>
  <course>196.49</course>
  <speed>1.14</speed>
  <fix>3d</fix>
</trkpt>
<trkpt lat="-27.2402886" lon="151.3762358">
  <ele>545.19</ele>
  <time>2026-09-01T20:00:50Z</time>
  <course>210.2</course>
  <speed>1.4988328792764054</speed>
  <fix>3d</fix>
</trkpt>
<trkpt lat="-27.2402855" lon="151.376237">
  <ele>547.12</ele>
  <time>2026-09-01T20:00:50Z</time>
  <course>196.49</course>
  <speed>1.14</speed>
  <fix>3d</fix>
</trkpt>
<trkpt lat="-27.2402902" lon="151.3762348">
  <ele>544.41</ele>
  <time>2026-09-01T20:00:50Z</time>
  <course>208.86</course>
  <speed>2.3136551169091732</speed>
  <fix>3d</fix>
</trkpt>
<trkpt lat="-27.2402875" lon="151.3762362">
  <ele>545.89</ele>
  <time>2026-09-01T20:00:50Z</time>
  <course>202.46</course>
  <speed>1.32</speed>
  <fix>3d</fix>
</trkpt>
<trkpt lat="-27.2402922" lon="151.3762336">
  <ele>543.58</ele>
  <time>2026-09-01T20:00:50Z</time>
  <course>206.57</course>
  <speed>2.6593984282164262</speed>
  <fix>3d</fix>
</trkpt>
<trkpt lat="-27.2402875" lon="151.3762362">
  <ele>545.89</ele>
  <time>2026-09-01T20:00:50Z</time>
  <course>202.46</course>
  <speed>1.32</speed>
  <fix>3d</fix>
</trkpt>
<trkpt lat="-27.2402942" lon="151.3762323">
  <ele>542.65</ele>
  <time>2026-09-01T20:00:50Z</time>
  <course>202.67</course>
  <speed>2.6147275192646746</speed>
  <fix>3d</fix>
</trkpt>
<trkpt lat="-27.2402903" lon="151.3762347">
  <ele>544.41</ele>
  <time>2026-09-01T20:00:50Z</time>
  <course>207.69</course>
  <speed>2.07</speed>
  <fix>3d</fix>
</trkpt>
<trkpt lat="-27.2402962" lon="151.376231">
  <ele>541.62</ele>
  <time>2026-09-01T20:00:50Z</time>
  <course>199.21</course>
  <speed>2.3864827675891562</speed>
  <fix>3d</fix>
</trkpt>
<trkpt lat="-27.2402903" lon="151.3762347">
  <ele>544.41</ele>
  <time>2026-09-01T20:00:50Z</time>
  <course>207.69</course>
  <speed>2.07</speed>
  <fix>3d</fix>
</trkpt>
<trkpt lat="-27.240298" lon="151.3762299">
  <ele>540.5</ele>
  <time>2026-09-01T20:00:50Z</time>
  <course>200.18</course>
  <speed>2.3145841959194313</speed>
  <fix>3d</fix>
</trkpt>
<trkpt lat="-27.2402941" lon="151.3762324">
  <ele>542.63</ele>
  <time>2026-09-01T20:00:50Z</time>
  <course>209.33</course>
  <speed>2.53</speed>
  <fix>3d</fix>
</trkpt>
<trkpt lat="-27.2403" lon="151.3762286">
  <ele>539.29</ele>
  <time>2026-09-01T20:00:50Z</time>
  <course>200.93</course>
  <speed>2.662423707827137</speed>
  <fix>3d</fix>
</trkpt>
<trkpt lat="-27.2402941" lon="151.3762324">
  <ele>542.63</ele>
  <time>2026-09-01T20:00:50Z</time>
  <course>209.33</course>
  <speed>2.53</speed>
  <fix>3d</fix>
</trkpt>
<trkpt lat="-27.2403024" lon="151.3762272">
  <ele>538.01</ele>
  <time>2026-09-01T20:00:50Z</time>
  <course>200.72</course>
  <speed>3.515110240092051</speed>
  <fix>3d</fix>
</trkpt>
<trkpt lat="-27.240298" lon="151.3762299">
  <ele>540.49</ele>
  <time>2026-09-01T20:00:50Z</time>
  <course>209.0</course>
  <speed>2.52</speed>
  <fix>3d</fix>
</trkpt>
<trkpt lat="-27.2403057" lon="151.3762255">
  <ele>536.66</ele>
  <time>2026-09-01T20:00:50Z</time>
  <course>200.43</course>
  <speed>4.7306024986253075</speed>
  <fix>3d</fix>
</trkpt>
<trkpt lat="-27.240298" lon="151.3762299">
  <ele>540.49</ele>
  <time>2026-09-01T20:00:50Z</time>
  <course>209.0</course>
  <speed>2.52</speed>
  <fix>3d</fix>
</trkpt>
<trkpt lat="-27.2403102" lon="151.3762233">
  <ele>535.31</ele>
  <time>2026-09-01T20:00:50Z</time>
  <course>200.47</course>
  <speed>6.0930944519185</speed>
  <fix>3d</fix>
</trkpt>
<trkpt lat="-27.2403027" lon="151.3762272">
  <ele>538.02</ele>
  <time>2026-09-01T20:00:50Z</time>
  <course>205.99</course>
  <speed>3.66</speed>
  <fix>3d</fix>
</trkpt>
<trkpt lat="-27.2403158" lon="151.3762208">
  <ele>533.93</ele>
  <time>2026-09-01T20:00:50Z</time>
  <course>200.77</course>
  <speed>7.420835532472068</speed>
  <fix>3d</fix>
</trkpt>
<trkpt lat="-27.2403027" lon="151.3762272">
  <ele>538.02</ele>
  <time>2026-09-01T20:00:50Z</time>
  <course>205.99</course>
  <speed>3.66</speed>
  <fix>3d</fix>
</trkpt>
<trkpt lat="-27.2403226" lon="151.3762179">
  <ele>532.54</ele>
  <time>2026-09-01T20:00:50Z</time>
  <course>201.13</course>
  <speed>8.663417339595272</speed>
  <fix>3d</fix>
</trkpt>
<trkpt lat="-27.2403106" lon="151.3762232">
  <ele>535.35</ele>
  <time>2026-09-01T20:00:50Z</time>
  <course>202.47</course>
  <speed>6.03</speed>
  <fix>3d</fix>
</trkpt>
<trkpt lat="-27.2403304" lon="151.3762146">
  <ele>531.16</ele>
  <time>2026-09-01T20:00:50Z</time>
  <course>201.37</course>
  <speed>9.873849300045043</speed>
  <fix>3d</fix>
</trkpt>
<trkpt lat="-27.2403106" lon="151.3762232">
  <ele>535.35</ele>
  <time>2026-09-01T20:00:50Z</time>
  <course>202.47</course>
  <speed>6.03</speed>
  <fix>3d</fix>
</trkpt>
<trkpt lat="-27.2403393" lon="151.3762109">
  <ele>529.81</ele>
  <time>2026-09-01T20:00:50Z</time>
  <course>201.49</course>
  <speed>11.095661314225483</speed>
  <fix>3d</fix>
</trkpt>
<trkpt lat="-27.2403228" lon="151.3762178">
  <ele>532.59</ele>
  <time>2026-09-01T20:00:50Z</time>
  <course>200.62</course>
  <speed>8.61</speed>
  <fix>3d</fix>
</trkpt>
<trkpt lat="-27.2403491" lon="151.3762069">
  <ele>528.49</ele>
  <time>2026-09-01T20:00:50Z</time>
  <course>201.51</course>
  <speed>12.334966558527833</speed>
  <fix>3d</fix>
</trkpt>
<trkpt lat="-27.2403228" lon="151.3762178">
  <ele>532.59</ele>
  <time>2026-09-01T20:00:50Z</time>
  <course>200.62</course>
  <speed>8.61</speed>
  <fix>3d</fix>
</trkpt>
<trkpt lat="-27.24036" lon="151.3762022">
  <ele>527.22</ele>
  <time>2026-09-01T20:00:50Z</time>
  <course>201.48</course>
  <speed>13.538541280359564</speed>
  <fix>3d</fix>
</trkpt>
<trkpt lat="-27.2403394" lon="151.3762109">
  <ele>529.87</ele>
  <time>2026-09-01T20:00:50Z</time>
  <course>200.39</course>
  <speed>11.06</speed>
  <fix>3d</fix>
</trkpt>
<trkpt lat="-27.2403718" lon="151.376197">
  <ele>526.03</ele>
  <time>2026-09-01T20:00:50Z</time>
  <course>201.42</course>
  <speed>14.67962533581835</speed>
  <fix>3d</fix>
</trkpt>
<trkpt lat="-27.2403394" lon="151.3762109">
  <ele>529.87</ele>
  <time>2026-09-01T20:00:50Z</time>
  <course>200.39</course>
  <speed>11.06</speed>
  <fix>3d</fix>
</trkpt>
<trkpt lat="-27.2403845" lon="151.3761913">
  <ele>524.93</ele>
  <time>2026-09-01T20:00:50Z</time>
  <course>201.34</course>
  <speed>15.706180312221047</speed>
  <fix>3d</fix>
</trkpt>
<trkpt lat="-27.2403601" lon="151.3762021">
  <ele>527.29</ele>
  <time>2026-09-01T20:00:50Z</time>
  <course>200.99</course>
  <speed>13.47</speed>
  <fix>3d</fix>
</trkpt>
<trkpt lat="-27.240398" lon="151.3761854">
  <ele>523.93</ele>
  <time>2026-09-01T20:00:50Z</time>
  <course>201.26</course>
  <speed>16.610460559538982</speed>
  <fix>3d</fix>
</trkpt>
<trkpt lat="-27.2403601" lon="151.3762021">
  <ele>527.29</ele>
  <time>2026-09-01T20:00:50Z</time>
  <course>200.99</course>
  <speed>13.47</speed>
  <fix>3d</fix>
</trkpt>
<trkpt lat="-27.2404122" lon="151.3761789">
  <ele>523.04</ele>
  <time>2026-09-01T20:00:50Z</time>
  <course>201.18</course>
  <speed>17.384869858586807</speed>
  <fix>3d</fix>
</trkpt>
<trkpt lat="-27.2403846" lon="151.3761913">
  <ele>525.0</ele>
  <time>2026-09-01T20:00:50Z</time>
  <course>201.56</course>
  <speed>15.62</speed>
  <fix>3d</fix>
</trkpt>
<trkpt lat="-27.240427" lon="151.3761724">
  <ele>522.28</ele>
  <time>2026-09-01T20:00:50Z</time>
  <course>201.09</course>
  <speed>17.99608012873915</speed>
  <fix>3d</fix>
</trkpt>
<trkpt lat="-27.2403846" lon="151.3761913">
  <ele>525.0</ele>
  <time>2026-09-01T20:00:50Z</time>
  <course>201.56</course>
  <speed>15.62</speed>
  <fix>3d</fix>
</trkpt>
<trkpt lat="-27.2404428" lon="151.3761654">
  <ele>521.63</ele>
  <time>2026-09-01T20:00:50Z</time>
  <course>200.98</course>
  <speed>18.466653730440715</speed>
  <fix>3d</fix>
</trkpt>
<trkpt lat="-27.2404122" lon="151.376179">
  <ele>523.12</ele>
  <time>2026-09-01T20:00:50Z</time>
  <course>201.59</course>
  <speed>17.29</speed>
  <fix>3d</fix>
</trkpt>
<trkpt lat="-27.2404584" lon="151.3761587">
  <ele>521.13</ele>
  <time>2026-09-01T20:00:50Z</time>
  <course>200.88</course>
  <speed>18.74449785937196</speed>
  <fix>3d</fix>
</trkpt>
<trkpt lat="-27.2404122" lon="151.376179">
  <ele>523.12</ele>
  <time>2026-09-01T20:00:50Z</time>
  <course>201.59</course>
  <speed>17.29</speed>
  <fix>3d</fix>
</trkpt>
<trkpt lat="-27.2404742" lon="151.376152">
  <ele>520.75</ele>
  <time>2026-09-01T20:00:50Z</time>
  <course>200.83</course>
  <speed>18.855375891241202</speed>
  <fix>3d</fix>
</trkpt>
<trkpt lat="-27.2404421" lon="151.3761659">
  <ele>521.72</ele>
  <time>2026-09-01T20:00:50Z</time>
  <course>201.19</course>
  <speed>18.36</speed>
  <fix>3d</fix>
</trkpt>
<trkpt lat="-27.2404901" lon="151.3761453">
  <ele>520.46</ele>
  <time>2026-09-01T20:00:50Z</time>
  <course>200.8</course>
  <speed>18.847137713721942</speed>
  <fix>3d</fix>
</trkpt>
<trkpt lat="-27.2404421" lon="151.3761659">
  <ele>521.72</ele>
  <time>2026-09-01T20:00:50Z</time>
  <course>201.19</course>
  <speed>18.36</speed>
  <fix>3d</fix>
</trkpt>
<trkpt lat="-27.2405059" lon="151.3761386">
  <ele>520.23</ele>
  <time>2026-09-01T20:00:50Z</time>
  <course>200.77</course>
  <speed>18.782800643141584</speed>
  <fix>3d</fix>
</trkpt>
<trkpt lat="-27.2404733" lon="151.3761524">
  <ele>520.81</ele>
  <time>2026-09-01T20:00:50Z</time>
  <course>200.72</course>
  <speed>18.79</speed>
  <fix>3d</fix>
</trkpt>
<trkpt lat="-27.2405213" lon="151.3761322">
  <ele>520.03</ele>
  <time>2026-09-01T20:00:50Z</time>
  <course>200.7</course>
  <speed>18.68449892290398</speed>
  <fix>3d</fix>
</trkpt>
<trkpt lat="-27.2404733" lon="151.3761524">
  <ele>520.81</ele>
  <time>2026-09-01T20:00:50Z</time>
  <course>200.72</course>
  <speed>18.79</speed>
  <fix>3d</fix>
</trkpt>
<trkpt lat="-27.240537" lon="151.3761256">
  <ele>519.84</ele>
  <time>2026-09-01T20:00:50Z</time>
  <course>200.61</course>
  <speed>18.5674553991655</speed>
  <fix>3d</fix>
</trkpt>
<trkpt lat="-27.240505" lon="151.376139">
  <ele>520.26</ele>
  <time>2026-09-01T20:00:50Z</time>
  <course>200.48</course>
  <speed>18.77</speed>
  <fix>3d</fix>
</trkpt>
<trkpt lat="-27.2405526" lon="151.376119">
  <ele>519.66</ele>
  <time>2026-09-01T20:00:50Z</time>
  <course>200.52</course>
  <speed>18.45041191952093</speed>
  <fix>3d</fix>
</trkpt>
<trkpt lat="-27.240505" lon="151.376139">
  <ele>520.26</ele>
  <time>2026-09-01T20:00:50Z</time>
  <course>200.48</course>
  <speed>18.77</speed>
  <fix>3d</fix>
</trkpt>
<trkpt lat="-27.240568" lon="151.3761126">
  <ele>519.49</ele>
  <time>2026-09-01T20:00:50Z</time>
  <course>200.45</course>
  <speed>18.336861781668095</speed>
  <fix>3d</fix>
</trkpt>
<trkpt lat="-27.2405363" lon="151.3761258">
  <ele>519.85</ele>
  <time>2026-09-01T20:00:50Z</time>
  <course>200.43</course>
  <speed>18.57</speed>
  <fix>3d</fix>
</trkpt>
<trkpt lat="-27.2405834" lon="151.3761061">
  <ele>519.31</ele>
  <time>2026-09-01T20:00:50Z</time>
  <course>200.39</course>
  <speed>18.219818879451026</speed>
  <fix>3d</fix>
</trkpt>
<trkpt lat="-27.2405363" lon="151.3761258">
  <ele>519.85</ele>
  <time>2026-09-01T20:00:50Z</time>
  <course>200.43</course>
  <speed>18.57</speed>
  <fix>3d</fix>
</trkpt>
<trkpt lat="-27.2387523" lon="151.3801621">
  <ele>542.99</ele>
  <time>2026-09-01T20:00:50Z</time>
  <course>250.0</course>
  <speed>0.0</speed>
  <fix>3d</fix>
</trkpt>
<trkpt lat="-27.2405674" lon="151.3761128">
  <ele>519.49</ele>
  <time>2026-09-01T20:00:50Z</time>
  <course>200.45</course>
  <speed>18.34</speed>
  <fix>3d</fix>
</trkpt>
<trkpt lat="-27.2387523" lon="151.3801621">
  <ele>542.89</ele>
  <time>2026-09-01T20:00:50Z</time>
  <course>250.0</course>
  <speed>0.01</speed>
  <fix>3d</fix>
</trkpt>
<trkpt lat="-27.2405674" lon="151.3761128">
  <ele>519.49</ele>
  <time>2026-09-01T20:00:50Z</time>
  <course>200.45</course>
  <speed>18.34</speed>
  <fix>3d</fix>
</trkpt>
<trkpt lat="-27.2387523" lon="151.3801621">
  <ele>542.71</ele>
  <time>2026-09-01T20:00:50Z</time>
  <course>250.01</course>
  <speed>0.044721359549995794</speed>
  <fix>3d</fix>
</trkpt>
<trkpt lat="-27.2396676" lon="151.3781342">
  <ele>531.11</ele>
  <time>2026-09-01T20:00:50Z</time>
  <course>200.5</course>
  <speed>9.12</speed>
  <fix>3d</fix>
</trkpt>
<trkpt lat="-27.2387523" lon="151.3801619">
  <ele>542.43</ele>
  <time>2026-09-01T20:00:50Z</time>
  <course>250.54</course>
  <speed>0.11704699910719625</speed>
  <fix>3d</fix>
</trkpt>
<trkpt lat="-27.2396676" lon="151.3781342">
  <ele>531.11</ele>
  <time>2026-09-01T20:00:50Z</time>
  <course>200.5</course>
  <speed>9.12</speed>
  <fix>3d</fix>
</trkpt>
<trkpt lat="-27.2387523" lon="151.3801618">
  <ele>542.07</ele>
  <time>2026-09-01T20:00:50Z</time>
  <course>253.57</course>
  <speed>0.24738633753705963</speed>
  <fix>3d</fix>
</trkpt>
<trkpt lat="-27.2387523" lon="151.380162">
  <ele>542.67</ele>
  <time>2026-09-01T20:00:50Z</time>
  <course>249.09</course>
  <speed>0.06</speed>
  <fix>3d</fix>
</trkpt>
<trkpt lat="-27.2387522" lon="151.3801614">
  <ele>541.64</ele>
  <time>2026-09-01T20:00:50Z</time>
  <course>262.96</course>
  <speed>0.43266615305567874</speed>
  <fix>3d</fix>
</trkpt>
<trkpt lat="-27.2387523" lon="151.380162">
  <ele>542.67</ele>
  <time>2026-09-01T20:00:50Z</time>
  <course>249.09</course>
  <speed>0.06</speed>
  <fix>3d</fix>
</trkpt>
<trkpt lat="-27.2387521" lon="151.380161">
  <ele>541.14</ele>
  <time>2026-09-01T20:00:50Z</time>
  <course>264.15</course>
  <speed>0.396232255123179</speed>
  <fix>3d</fix>
</trkpt>
<trkpt lat="-27.2387522" lon="151.3801617">
  <ele>542.05</ele>
  <time>2026-09-01T20:00:50Z</time>
  <course>292.41</course>
  <speed>0.25</speed>
  <fix>3d</fix>
</trkpt>
<trkpt lat="-27.2387529" lon="151.3801609">
  <ele>540.59</ele>
  <time>2026-09-01T20:00:50Z</time>
  <course>251.94</course>
  <speed>1.7713836399831628</speed>
  <fix>3d</fix>
</trkpt>
<trkpt lat="-27.2387522" lon="151.3801617">
  <ele>542.05</ele>
  <time>2026-09-01T20:00:50Z</time>
  <course>292.41</course>
  <speed>0.25</speed>
  <fix>3d</fix>
</trkpt>
<trkpt lat="-27.2387551" lon="151.3801613">
  <ele>540.04</ele>
  <time>2026-09-01T20:00:50Z</time>
  <course>242.63</course>
  <speed>3.0574662712775758</speed>
  <fix>3d</fix>
</trkpt>
<trkpt lat="-27.2387525" lon="151.3801612">
  <ele>541.13</ele>
  <time>2026-09-01T20:00:50Z</time>
  <course>191.5</course>
  <speed>0.76</speed>
  <fix>3d</fix>
</trkpt>
<trkpt lat="-27.2387582" lon="151.3801622">
  <ele>539.54</ele>
  <time>2026-09-01T20:00:50Z</time>
  <course>235.13</course>
  <speed>4.027505431405401</speed>
  <fix>3d</fix>
</trkpt>
<trkpt lat="-27.2387525" lon="151.3801612">
  <ele>541.13</ele>
  <time>2026-09-01T20:00:50Z</time>
  <course>191.5</course>
  <speed>0.76</speed>
  <fix>3d</fix>
</trkpt>
<trkpt lat="-27.2387622" lon="151.3801634">
  <ele>539.07</ele>
  <time>2026-09-01T20:00:50Z</time>
  <course>228.23</course>
  <speed>4.88335949936107</speed>
  <fix>3d</fix>
</trkpt>
<trkpt lat="-27.2387554" lon="151.3801616">
  <ele>540.07</ele>
  <time>2026-09-01T20:00:50Z</time>
  <course>168.6</course>
  <speed>2.85</speed>
  <fix>3d</fix>
</trkpt>
<trkpt lat="-27.2387667" lon="151.3801652">
  <ele>538.71</ele>
  <time>2026-09-01T20:00:50Z</time>
  <course>222.44</course>
  <speed>5.66730976742934</speed>
  <fix>3d</fix>
</trkpt>
<trkpt lat="-27.2387554" lon="151.3801616">
  <ele>540.07</ele>
  <time>2026-09-01T20:00:50Z</time>
  <course>168.6</course>
  <speed>2.85</speed>
  <fix>3d</fix>
</trkpt>
<trkpt lat="-27.2387718" lon="151.380167">
  <ele>538.43</ele>
  <time>2026-09-01T20:00:50Z</time>
  <course>217.86</course>
  <speed>6.142084336770377</speed>
  <fix>3d</fix>
</trkpt>
<trkpt lat="-27.2387622" lon="151.3801636">
  <ele>539.14</ele>
  <time>2026-09-01T20:00:50Z</time>
  <course>163.25</course>
  <speed>4.82</speed>
  <fix>3d</fix>
</trkpt>
<trkpt lat="-27.2387772" lon="151.3801688">
  <ele>538.23</ele>
  <time>2026-09-01T20:00:50Z</time>
  <course>214.23</course>
  <speed>6.418862827635437</speed>
  <fix>3d</fix>
</trkpt>
<trkpt lat="-27.2387622" lon="151.3801636">
  <ele>539.14</ele>
  <time>2026-09-01T20:00:50Z</time>
  <course>163.25</course>
  <speed>4.82</speed>
  <fix>3d</fix>
</trkpt>
<trkpt lat="-27.2387828" lon="151.3801705">
  <ele>538.08</ele>
  <time>2026-09-01T20:00:50Z</time>
  <course>211.6</course>
  <speed>6.553319769399324</speed>
  <fix>3d</fix>
</trkpt>
<trkpt lat="-27.2387716" lon="151.3801669">
  <ele>538.48</ele>
  <time>2026-09-01T20:00:50Z</time>
  <course>163.12</course>
  <speed>6.02</speed>
  <fix>3d</fix>
</trkpt>
<trkpt lat="-27.2387886" lon="151.3801719">
  <ele>538.0</ele>
  <time>2026-09-01T20:00:50Z</time>
  <course>210.24</course>
  <speed>6.577932805980919</speed>
  <fix>3d</fix>
</trkpt>
<trkpt lat="-27.2387716" lon="151.3801669">
  <ele>538.48</ele>
  <time>2026-09-01T20:00:50Z</time>
  <course>163.12</course>
  <speed>6.02</speed>
  <fix>3d</fix>
</trkpt>
<trkpt lat="-27.2387944" lon="151.3801732">
  <ele>537.97</ele>
  <time>2026-09-01T20:00:50Z</time>
  <course>209.88</course>
  <speed>6.508840142452417</speed>
  <fix>3d</fix>
</trkpt>
<trkpt lat="-27.2387826" lon="151.3801702">
  <ele>538.12</ele>
  <time>2026-09-01T20:00:50Z</time>
  <course>165.97</course>
  <speed>6.49</speed>
  <fix>3d</fix>
</trkpt>
<trkpt lat="-27.2388001" lon="151.3801743">
  <ele>537.98</ele>
  <time>2026-09-01T20:00:50Z</time>
  <course>209.94</course>
  <speed>6.39400500468994</speed>
  <fix>3d</fix>
</trkpt>
<trkpt lat="-27.2387826" lon="151.3801702">
  <ele>538.12</ele>
  <time>2026-09-01T20:00:50Z</time>
  <course>165.97</course>
  <speed>6.49</speed>
  <fix>3d</fix>
</trkpt>
<trkpt lat="-27.2388057" lon="151.3801752">
  <ele>538.01</ele>
  <time>2026-09-01T20:00:50Z</time>
  <course>210.09</course>
  <speed>6.240937429585398</speed>
  <fix>3d</fix>
</trkpt>
<trkpt lat="-27.238794" lon="151.380173">
  <ele>537.99</ele>
  <time>2026-09-01T20:00:50Z</time>
  <course>169.58</course>
  <speed>6.49</speed>
  <fix>3d</fix>
</trkpt>
<trkpt lat="-27.2388112" lon="151.3801761">
  <ele>538.04</ele>
  <time>2026-09-01T20:00:50Z</time>
  <course>210.19</course>
  <speed>6.074248924764279</speed>
  <fix>3d</fix>
</trkpt>
<trkpt lat="-27.238794" lon="151.380173">
  <ele>537.99</ele>
  <time>2026-09-01T20:00:50Z</time>
  <course>169.58</course>
  <speed>6.49</speed>
  <fix>3d</fix>
</trkpt>
<trkpt lat="-27.2388165" lon="151.3801768">
  <ele>538.11</ele>
  <time>2026-09-01T20:00:50Z</time>
  <course>210.25</course>
  <speed>5.90581069794825</speed>
  <fix>3d</fix>
</trkpt>
<trkpt lat="-27.2388053" lon="151.3801751">
  <ele>538.01</ele>
  <time>2026-09-01T20:00:50Z</time>
  <course>171.68</course>
  <speed>6.24</speed>
  <fix>3d</fix>
</trkpt>
<trkpt lat="-27.2388217" lon="151.3801777">
  <ele>538.18</ele>
  <time>2026-09-01T20:00:50Z</time>
  <course>210.32</course>
  <speed>5.721992659904415</speed>
  <fix>3d</fix>
</trkpt>
<trkpt lat="-27.2388053" lon="151.3801751">
  <ele>538.01</ele>
  <time>2026-09-01T20:00:50Z</time>
  <course>171.68</course>
  <speed>6.24</speed>
  <fix>3d</fix>
</trkpt>
<trkpt lat="-27.2388267" lon="151.3801786">
  <ele>538.25</ele>
  <time>2026-09-01T20:00:50Z</time>
  <course>210.47</course>
  <speed>5.523812089490373</speed>
  <fix>3d</fix>
</trkpt>
<trkpt lat="-27.2388161" lon="151.3801768">
  <ele>538.11</ele>
  <time>2026-09-01T20:00:50Z</time>
  <course>171.92</course>
  <speed>5.91</speed>
  <fix>3d</fix>
</trkpt>
<trkpt lat="-27.2388314" lon="151.3801796">
  <ele>538.32</ele>
  <time>2026-09-01T20:00:50Z</time>
  <course>210.75</course>
  <speed>5.330853590186097</speed>
  <fix>3d</fix>
</trkpt>
<trkpt lat="-27.2388161" lon="151.3801768">
  <ele>538.11</ele>
  <time>2026-09-01T20:00:50Z</time>
  <course>171.92</course>
  <speed>5.91</speed>
  <fix>3d</fix>
</trkpt>
<trkpt lat="-27.238836" lon="151.3801806">
  <ele>538.41</ele>
  <time>2026-09-01T20:00:50Z</time>
  <course>211.21</course>
  <speed>5.113208386130962</speed>
  <fix>3d</fix>
</trkpt>
<trkpt lat="-27.2388263" lon="151.3801786">
  <ele>538.24</ele>
  <time>2026-09-01T20:00:50Z</time>
  <course>170.54</course>
  <speed>5.53</speed>
  <fix>3d</fix>
</trkpt>
<trkpt lat="-27.2388404" lon="151.3801816">
  <ele>538.5</ele>
  <time>2026-09-01T20:00:50Z</time>
  <course>211.87</course>
  <speed>4.891973017096476</speed>
  <fix>3d</fix>
</trkpt>
<trkpt lat="-27.2388263" lon="151.3801786">
  <ele>538.24</ele>
  <time>2026-09-01T20:00:50Z</time>
  <course>170.54</course>
  <speed>5.53</speed>
  <fix>3d</fix>
</trkpt>
<trkpt lat="-27.2388445" lon="151.380183">
  <ele>538.6</ele>
  <time>2026-09-01T20:00:50Z</time>
  <course>212.71</course>
  <speed>4.666154733825272</speed>
  <fix>3d</fix>
</trkpt>
<trkpt lat="-27.2388357" lon="151.3801806">
  <ele>538.41</ele>
  <time>2026-09-01T20:00:50Z</time>
  <course>167.85</course>
  <speed>5.12</speed>
  <fix>3d</fix>
</trkpt>
<trkpt lat="-27.2388484" lon="151.3801843">
  <ele>538.72</ele>
  <time>2026-09-01T20:00:50Z</time>
  <course>213.71</course>
  <speed>4.433734317705561</speed>
  <fix>3d</fix>
</trkpt>
<trkpt lat="-27.2388357" lon="151.3801806">
  <ele>538.41</ele>
  <time>2026-09-01T20:00:50Z</time>
  <course>167.85</course>
  <speed>5.12</speed>
  <fix>3d</fix>
</trkpt>
<trkpt lat="-27.2388521" lon="151.3801857">
  <ele>538.84</ele>
  <time>2026-09-01T20:00:50Z</time>
  <course>214.86</course>
  <speed>4.200880860010196</speed>
  <fix>3d</fix>
</trkpt>
<trkpt lat="-27.2388442" lon="151.380183">
  <ele>538.61</ele>
  <time>2026-09-01T20:00:50Z</time>
  <course>164.27</course>
  <speed>4.67</speed>
  <fix>3d</fix>
</trkpt>
<trkpt lat="-27.2388555" lon="151.3801872">
  <ele>538.98</ele>
  <time>2026-09-01T20:00:50Z</time>
  <course>216.14</course>
  <speed>3.9664593783373103</speed>
  <fix>3d</fix>
</trkpt>
<trkpt lat="-27.2388442" lon="151.380183">
  <ele>538.61</ele>
  <time>2026-09-01T20:00:50Z</time>
  <course>164.27</course>
  <speed>4.67</speed>
  <fix>3d</fix>
</trkpt>
<trkpt lat="-27.2388587" lon="151.3801887">
  <ele>539.12</ele>
  <time>2026-09-01T20:00:50Z</time>
  <course>217.52</course>
  <speed>3.724298591681392</speed>
  <fix>3d</fix>
</trkpt>
<trkpt lat="-27.2388519" lon="151.3801857">
  <ele>538.84</ele>
  <time>2026-09-01T20:00:50Z</time>
  <course>160.23</course>
  <speed>4.2</speed>
  <fix>3d</fix>
</trkpt>
<trkpt lat="-27.2388618" lon="151.3801902">
  <ele>539.29</ele>
  <time>2026-09-01T20:00:50Z</time>
  <course>219.03</course>
  <speed>3.4748525148558462</speed>
  <fix>3d</fix>
</trkpt>
<trkpt lat="-27.2388519" lon="151.3801857">
  <ele>538.84</ele>
  <time>2026-09-01T20:00:50Z</time>
  <course>160.23</course>
  <speed>4.2</speed>
  <fix>3d</fix>
</trkpt>
<trkpt lat="-27.2388644" lon="151.3801919">
  <ele>539.47</ele>
  <time>2026-09-01T20:00:50Z</time>
  <course>220.52</course>
  <speed>3.2139850653044424</speed>
  <fix>3d</fix>
</trkpt>
<trkpt lat="-27.2388585" lon="151.3801887">
  <ele>539.12</ele>
  <time>2026-09-01T20:00:50Z</time>
  <course>155.98</course>
  <speed>3.73</speed>
  <fix>3d</fix>
</trkpt>
<trkpt lat="-27.2388668" lon="151.3801935">
  <ele>539.66</ele>
  <time>2026-09-01T20:00:50Z</time>
  <course>222.0</course>
  <speed>2.950016949103852</speed>
  <fix>3d</fix>
</trkpt>
<trkpt lat="-27.2388585" lon="151.3801887">
  <ele>539.12</ele>
  <time>2026-09-01T20:00:50Z</time>
  <course>155.98</course>
  <speed>3.73</speed>
  <fix>3d</fix>
</trkpt>
<trkpt lat="-27.2388689" lon="151.3801949">
  <ele>539.87</ele>
  <time>2026-09-01T20:00:50Z</time>
  <course>223.43</course>
  <speed>2.693640659033792</speed>
  <fix>3d</fix>
</trkpt>
<trkpt lat="-27.2388641" lon="151.3801917">
  <ele>539.46</ele>
  <time>2026-09-01T20:00:50Z</time>
  <course>151.2</course>
  <speed>3.22</speed>
  <fix>3d</fix>
</trkpt>
<trkpt lat="-27.2388708" lon="151.3801966">
  <ele>540.09</ele>
  <time>2026-09-01T20:00:50Z</time>
  <course>224.8</course>
  <speed>2.4364728605096344</speed>
  <fix>3d</fix>
</trkpt>
<trkpt lat="-27.2388641" lon="151.3801917">
  <ele>539.46</ele>
  <time>2026-09-01T20:00:50Z</time>
  <course>151.2</course>
  <speed>3.22</speed>
  <fix>3d</fix>
</trkpt>
<trkpt lat="-27.2388724" lon="151.3801981">
  <ele>540.32</ele>
  <time>2026-09-01T20:00:50Z</time>
  <course>226.08</course>
  <speed>2.19</speed>
  <fix>3d</fix>
</trkpt>
<trkpt lat="-27.2388687" lon="151.3801949">
  <ele>539.86</ele>
  <time>2026-09-01T20:00:50Z</time>
  <course>145.56</course>
  <speed>2.71</speed>
  <fix>3d</fix>
</trkpt>
<trkpt lat="-27.2388737" lon="151.3801995">
  <ele>540.54</ele>
  <time>2026-09-01T20:00:50Z</time>
  <course>227.3</course>
  <speed>1.9518196638009362</speed>
  <fix>3d</fix>
</trkpt>
<trkpt lat="-27.2388687" lon="151.3801949">
  <ele>539.86</ele>
  <time>2026-09-01T20:00:50Z</time>
  <course>145.56</course>
  <speed>2.71</speed>
  <fix>3d</fix>
</trkpt>
<trkpt lat="-27.2388749" lon="151.3802007">
  <ele>540.79</ele>
  <time>2026-09-01T20:00:50Z</time>
  <course>228.44</course>
  <speed>1.7126587517658036</speed>
  <fix>3d</fix>
</trkpt>
<trkpt lat="-27.2388722" lon="151.3801979">
  <ele>540.31</ele>
  <time>2026-09-01T20:00:50Z</time>
  <course>139.43</course>
  <speed>2.2</speed>
  <fix>3d</fix>
</trkpt>
<trkpt lat="-27.2388759" lon="151.380202">
  <ele>540.99</ele>
  <time>2026-09-01T20:00:50Z</time>
  <course>229.13</course>
  <speed>1.661715980545412</speed>
  <fix>3d</fix>
</trkpt>
<trkpt lat="-27.2388722" lon="151.3801979">
  <ele>540.31</ele>
  <time>2026-09-01T20:00:50Z</time>
  <course>139.43</course>
  <speed>2.2</speed>
  <fix>3d</fix>
</trkpt>
<trkpt lat="-27.238877" lon="151.3802031">
  <ele>541.08</ele>
  <time>2026-09-01T20:00:50Z</time>
  <course>229.23</course>
  <speed>1.6483021567661678</speed>
  <fix>3d</fix>
</trkpt>
<trkpt lat="-27.2388748" lon="151.3802007">
  <ele>540.76</ele>
  <time>2026-09-01T20:00:50Z</time>
  <course>135.33</course>
  <speed>1.81</speed>
  <fix>3d</fix>
</trkpt>
<trkpt lat="-27.2388781" lon="151.3802043">
  <ele>541.06</ele>
  <time>2026-09-01T20:00:50Z</time>
  <course>228.91</course>
  <speed>1.599624956044385</speed>
  <fix>3d</fix>
</trkpt>
<trkpt lat="-27.2388748" lon="151.3802007">
  <ele>540.76</ele>
  <time>2026-09-01T20:00:50Z</time>
  <course>135.33</course>
  <speed>1.81</speed>
  <fix>3d</fix>
</trkpt>
<trkpt lat="-27.2388791" lon="151.3802054">
  <ele>540.96</ele>
  <time>2026-09-01T20:00:50Z</time>
  <course>228.08</course>
  <speed>1.5505160431288676</speed>
  <fix>3d</fix>
</trkpt>
<trkpt lat="-27.2388769" lon="151.3802031">
  <ele>541.02</ele>
  <time>2026-09-01T20:00:50Z</time>
  <course>136.03</course>
  <speed>1.64</speed>
  <fix>3d</fix>
</trkpt>
<trkpt lat="-27.2388802" lon="151.3802064">
  <ele>540.78</ele>
  <time>2026-09-01T20:00:50Z</time>
  <course>226.51</course>
  <speed>1.4591093173576817</speed>
  <fix>3d</fix>
</trkpt>
<trkpt lat="-27.2388769" lon="151.3802031">
  <ele>541.02</ele>
  <time>2026-09-01T20:00:50Z</time>
  <course>136.03</course>
  <speed>1.64</speed>
  <fix>3d</fix>
</trkpt>
<trkpt lat="-27.2388811" lon="151.3802074">
  <ele>540.52</ele>
  <time>2026-09-01T20:00:50Z</time>
  <course>223.79</course>
  <speed>1.3124404748406686</speed>
  <fix>3d</fix>
</trkpt>
<trkpt lat="-27.238879" lon="151.3802053">
  <ele>540.93</ele>
  <time>2026-09-01T20:00:50Z</time>
  <course>137.94</course>
  <speed>1.54</speed>
  <fix>3d</fix>
</trkpt>
<trkpt lat="-27.238882" lon="151.3802082">
  <ele>540.2</ele>
  <time>2026-09-01T20:00:50Z</time>
  <course>219.63</course>
  <speed>1.1385077953180645</speed>
  <fix>3d</fix>
</trkpt>
<trkpt lat="-27.238879" lon="151.3802053">
  <ele>540.93</ele>
  <time>2026-09-01T20:00:50Z</time>
  <course>137.94</course>
  <speed>1.54</speed>
  <fix>3d</fix>
</trkpt>
<trkpt lat="-27.2388827" lon="151.3802088">
  <ele>539.82</ele>
  <time>2026-09-01T20:00:50Z</time>
  <course>214.59</course>
  <speed>1.016070863670443</speed>
  <fix>3d</fix>
</trkpt>
<trkpt lat="-27.238881" lon="151.3802072">
  <ele>540.5</ele>
  <time>2026-09-01T20:00:50Z</time>
  <course>139.66</course>
  <speed>1.31</speed>
  <fix>3d</fix>
</trkpt>
<trkpt lat="-27.2388834" lon="151.3802093">
  <ele>539.39</ele>
  <time>2026-09-01T20:00:50Z</time>
  <course>209.76</course>
  <speed>0.9264987857520376</speed>
  <fix>3d</fix>
</trkpt>
<trkpt lat="-27.238881" lon="151.3802072">
  <ele>540.5</ele>
  <time>2026-09-01T20:00:50Z</time>
  <course>139.66</course>
  <speed>1.31</speed>
  <fix>3d</fix>
</trkpt>
<trkpt lat="-27.2388841" lon="151.3802098">
  <ele>538.91</ele>
  <time>2026-09-01T20:00:50Z</time>
  <course>205.41</course>
  <speed>0.8588364221433555</speed>
  <fix>3d</fix>
</trkpt>
<trkpt lat="-27.2388826" lon="151.3802087">
  <ele>539.81</ele>
  <time>2026-09-01T20:00:50Z</time>
  <course>143.85</course>
  <speed>1.04</speed>
  <fix>3d</fix>
</trkpt>
<trkpt lat="-27.2388848" lon="151.3802102">
  <ele>538.37</ele>
  <time>2026-09-01T20:00:50Z</time>
  <course>201.52</course>
  <speed>0.8415461959987698</speed>
  <fix>3d</fix>
</trkpt>
<trkpt lat="-27.2388826" lon="151.3802087">
  <ele>539.81</ele>
  <time>2026-09-01T20:00:50Z</time>
  <course>143.85</course>
  <speed>1.04</speed>
  <fix>3d</fix>
</trkpt>
<trkpt lat="-27.2388856" lon="151.3802103">
  <ele>537.79</ele>
  <time>2026-09-01T20:00:50Z</time>
  <course>197.92</course>
  <speed>0.870976463516667</speed>
  <fix>3d</fix>
</trkpt>
<trkpt lat="-27.2388841" lon="151.3802097">
  <ele>538.9</ele>
  <time>2026-09-01T20:00:50Z</time>
  <course>152.76</course>
  <speed>0.88</speed>
  <fix>3d</fix>
</trkpt>
<trkpt lat="-27.2388864" lon="151.3802106">
  <ele>537.16</ele>
  <time>2026-09-01T20:00:50Z</time>
  <course>194.55</course>
  <speed>0.9353608929178086</speed>
  <fix>3d</fix>
</trkpt>
<trkpt lat="-27.2388841" lon="151.3802097">
  <ele>538.9</ele>
  <time>2026-09-01T20:00:50Z</time>
  <course>152.76</course>
  <speed>0.88</speed>
  <fix>3d</fix>
</trkpt>
<trkpt lat="-27.2388873" lon="151.3802106">
  <ele>536.41</ele>
  <time>2026-09-01T20:00:50Z</time>
  <course>191.01</course>
  <speed>1.2410076550932312</speed>
  <fix>3d</fix>
</trkpt>
<trkpt lat="-27.2388855" lon="151.3802104">
  <ele>537.79</ele>
  <time>2026-09-01T20:00:50Z</time>
  <course>166.66</course>
  <speed>0.88</speed>
  <fix>3d</fix>
</trkpt>
<trkpt lat="-27.2388888" lon="151.3802103">
  <ele>535.64</ele>
  <time>2026-09-01T20:00:50Z</time>
  <course>186.57</course>
  <speed>2.035313243704762</speed>
  <fix>3d</fix>
</trkpt>
<trkpt lat="-27.2388855" lon="151.3802104">
  <ele>537.79</ele>
  <time>2026-09-01T20:00:50Z</time>
  <course>166.66</course>
  <speed>0.88</speed>
  <fix>3d</fix>
</trkpt>
<trkpt lat="-27.2388908" lon="151.38021">
  <ele>534.78</ele>
  <time>2026-09-01T20:00:50Z</time>
  <course>179.83</course>
  <speed>2.393658288060349</speed>
  <fix>3d</fix>
</trkpt>
<trkpt lat="-27.2388875" lon="151.3802104">
  <ele>536.43</ele>
  <time>2026-09-01T20:00:50Z</time>
  <course>184.01</course>
  <speed>1.45</speed>
  <fix>3d</fix>
</trkpt>
<trkpt lat="-27.2388929" lon="151.3802096">
  <ele>533.84</ele>
  <time>2026-09-01T20:00:50Z</time>
  <course>168.8</course>
  <speed>2.3739418695494634</speed>
  <fix>3d</fix>
</trkpt>
<trkpt lat="-27.2388875" lon="151.3802104">
  <ele>536.43</ele>
  <time>2026-09-01T20:00:50Z</time>
  <course>184.01</course>
  <speed>1.45</speed>
  <fix>3d</fix>
</trkpt>
<trkpt lat="-27.238895" lon="151.3802092">
  <ele>532.79</ele>
  <time>2026-09-01T20:00:50Z</time>
  <course>159.22</course>
  <speed>2.2030206535572923</speed>
  <fix>3d</fix>
</trkpt>
<trkpt lat="-27.2388907" lon="151.38021">
  <ele>534.79</ele>
  <time>2026-09-01T20:00:50Z</time>
  <course>189.37</course>
  <speed>2.19</speed>
  <fix>3d</fix>
</trkpt>
<trkpt lat="-27.2388969" lon="151.3802089">
  <ele>531.66</ele>
  <time>2026-09-01T20:00:50Z</time>
  <course>160.75</course>
  <speed>2.189794510907359</speed>
  <fix>3d</fix>
</trkpt>
<trkpt lat="-27.2388907" lon="151.38021">
  <ele>534.79</ele>
  <time>2026-09-01T20:00:50Z</time>
  <course>189.37</course>
  <speed>2.19</speed>
  <fix>3d</fix>
</trkpt>
<trkpt lat="-27.238899" lon="151.3802086">
  <ele>530.45</ele>
  <time>2026-09-01T20:00:50Z</time>
  <course>161.88</course>
  <speed>2.592084103573802</speed>
  <fix>3d</fix>
</trkpt>
<trkpt lat="-27.2388948" lon="151.3802093">
  <ele>532.81</ele>
  <time>2026-09-01T20:00:50Z</time>
  <course>189.77</course>
  <speed>2.28</speed>
  <fix>3d</fix>
</trkpt>
<trkpt lat="-27.2389017" lon="151.3802084">
  <ele>529.16</ele>
  <time>2026-09-01T20:00:50Z</time>
  <course>161.01</course>
  <speed>3.4511737133908515</speed>
  <fix>3d</fix>
</trkpt>
<trkpt lat="-27.2388948" lon="151.3802093">
  <ele>532.81</ele>
  <time>2026-09-01T20:00:50Z</time>
  <course>189.77</course>
  <speed>2.28</speed>
  <fix>3d</fix>
</trkpt>
<trkpt lat="-27.2389053" lon="151.3802088">
  <ele>527.81</ele>
  <time>2026-09-01T20:00:50Z</time>
  <course>160.23</course>
  <speed>4.616492174801123</speed>
  <fix>3d</fix>
</trkpt>
<trkpt lat="-27.2388991" lon="151.3802087">
  <ele>530.48</ele>
  <time>2026-09-01T20:00:50Z</time>
  <course>183.11</course>
  <speed>2.78</speed>
  <fix>3d</fix>
</trkpt>
<trkpt lat="-27.2389099" lon="151.3802098">
  <ele>526.44</ele>
  <time>2026-09-01T20:00:50Z</time>
  <course>160.35</course>
  <speed>5.89152781543124</speed>
  <fix>3d</fix>
</trkpt>
<trkpt lat="-27.2388991" lon="151.3802087">
  <ele>530.48</ele>
  <time>2026-09-01T20:00:50Z</time>
  <course>183.11</course>
  <speed>2.78</speed>
  <fix>3d</fix>
</trkpt>
<trkpt lat="-27.2389155" lon="151.3802117">
  <ele>525.04</ele>
  <time>2026-09-01T20:00:50Z</time>
  <course>161.06</course>
  <speed>7.1435915336754805</speed>
  <fix>3d</fix>
</trkpt>
<trkpt lat="-27.2389055" lon="151.3802091">
  <ele>527.87</ele>
  <time>2026-09-01T20:00:50Z</time>
  <course>170.47</course>
  <speed>4.58</speed>
  <fix>3d</fix>
</trkpt>
<trkpt lat="-27.2389221" lon="151.3802145">
  <ele>523.63</ele>
  <time>2026-09-01T20:00:50Z</time>
  <course>161.79</course>
  <speed>8.375494015280532</speed>
  <fix>3d</fix>
</trkpt>
<trkpt lat="-27.2389055" lon="151.3802091">
  <ele>527.87</ele>
  <time>2026-09-01T20:00:50Z</time>
  <course>170.47</course>
  <speed>4.58</speed>
  <fix>3d</fix>
</trkpt>
<trkpt lat="-27.2389296" lon="151.3802177">
  <ele>522.22</ele>
  <time>2026-09-01T20:00:50Z</time>
  <course>162.25</course>
  <speed>9.630721675970083</speed>
  <fix>3d</fix>
</trkpt>
<trkpt lat="-27.2389156" lon="151.380212">
  <ele>525.11</ele>
  <time>2026-09-01T20:00:50Z</time>
  <course>162.12</course>
  <speed>7.05</speed>
  <fix>3d</fix>
</trkpt>
<trkpt lat="-27.2389383" lon="151.3802215">
  <ele>520.83</ele>
  <time>2026-09-01T20:00:50Z</time>
  <course>162.42</course>
  <speed>10.910824900070573</speed>
  <fix>3d</fix>
</trkpt>
<trkpt lat="-27.2389156" lon="151.380212">
  <ele>525.11</ele>
  <time>2026-09-01T20:00:50Z</time>
  <course>162.12</course>
  <speed>7.05</speed>
  <fix>3d</fix>
</trkpt>
<trkpt lat="-27.238948" lon="151.3802256">
  <ele>519.48</ele>
  <time>2026-09-01T20:00:50Z</time>
  <course>162.37</course>
  <speed>12.201954761430645</speed>
  <fix>3d</fix>
</trkpt>
<trkpt lat="-27.2389297" lon="151.3802177">
  <ele>522.31</ele>
  <time>2026-09-01T20:00:50Z</time>
  <course>159.28</course>
  <speed>9.57</speed>
  <fix>3d</fix>
</trkpt>
<trkpt lat="-27.2389588" lon="151.3802299">
  <ele>518.19</ele>
  <time>2026-09-01T20:00:50Z</time>
  <course>162.18</course>
  <speed>13.440275294799584</speed>
  <fix>3d</fix>
</trkpt>
<trkpt lat="-27.2389297" lon="151.3802177">
  <ele>522.31</ele>
  <time>2026-09-01T20:00:50Z</time>
  <course>159.28</course>
  <speed>9.57</speed>
  <fix>3d</fix>
</trkpt>
<trkpt lat="-27.2389708" lon="151.3802344">
  <ele>516.97</ele>
  <time>2026-09-01T20:00:50Z</time>
  <course>161.94</course>
  <speed>14.594331091214835</speed>
  <fix>3d</fix>
</trkpt>
<trkpt lat="-27.2389479" lon="151.3802254">
  <ele>519.58</ele>
  <time>2026-09-01T20:00:50Z</time>
  <course>160.07</course>
  <speed>12.1</speed>
  <fix>3d</fix>
</trkpt>
<trkpt lat="-27.2389838" lon="151.380239">
  <ele>515.84</ele>
  <time>2026-09-01T20:00:50Z</time>
  <course>161.68</course>
  <speed>15.665404559091348</speed>
  <fix>3d</fix>
</trkpt>
<trkpt lat="-27.2389479" lon="151.3802254">
  <ele>519.58</ele>
  <time>2026-09-01T20:00:50Z</time>
  <course>160.07</course>
  <speed>12.1</speed>
  <fix>3d</fix>
</trkpt>
<trkpt lat="-27.2389976" lon="151.3802438">
  <ele>514.81</ele>
  <time>2026-09-01T20:00:50Z</time>
  <course>161.41</course>
  <speed>16.61515272274077</speed>
  <fix>3d</fix>
</trkpt>
<trkpt lat="-27.2389706" lon="151.3802342">
  <ele>517.07</ele>
  <time>2026-09-01T20:00:50Z</time>
  <course>161.83</course>
  <speed>14.49</speed>
  <fix>3d</fix>
</trkpt>
<trkpt lat="-27.2390122" lon="151.380249">
  <ele>513.9</ele>
  <time>2026-09-01T20:00:50Z</time>
  <course>161.14</course>
  <speed>17.426474112682694</speed>
  <fix>3d</fix>
</trkpt>
<trkpt lat="-27.2389706" lon="151.3802342">
  <ele>517.07</ele>
  <time>2026-09-01T20:00:50Z</time>
  <course>161.83</course>
  <speed>14.49</speed>
  <fix>3d</fix>
</trkpt>
<trkpt lat="-27.2390274" lon="151.3802545">
  <ele>513.11</ele>
  <time>2026-09-01T20:00:50Z</time>
  <course>160.84</course>
  <speed>18.06635823844972</speed>
  <fix>3d</fix>
</trkpt>
<trkpt lat="-27.2389973" lon="151.3802437">
  <ele>514.91</ele>
  <time>2026-09-01T20:00:50Z</time>
  <course>162.54</course>
  <speed>16.5</speed>
  <fix>3d</fix>
</trkpt>
<trkpt lat="-27.239043" lon="151.3802604">
  <ele>512.46</ele>
  <time>2026-09-01T20:00:50Z</time>
  <course>160.52</course>
  <speed>18.544325277561327</speed>
  <fix>3d</fix>
</trkpt>
<trkpt lat="-27.2389973" lon="151.3802437">
  <ele>514.91</ele>
  <time>2026-09-01T20:00:50Z</time>
  <course>162.54</course>
  <speed>16.5</speed>
  <fix>3d</fix>
</trkpt>
<trkpt lat="-27.2390589" lon="151.3802666">
  <ele>511.94</ele>
  <time>2026-09-01T20:00:50Z</time>
  <course>160.22</course>
  <speed>18.84561487455371</speed>
  <fix>3d</fix>
</trkpt>
<trkpt lat="-27.2390268" lon="151.3802543">
  <ele>513.21</ele>
  <time>2026-09-01T20:00:50Z</time>
  <course>161.77</course>
  <speed>17.96</speed>
  <fix>3d</fix>
</trkpt>
<trkpt lat="-27.2390748" lon="151.3802732">
  <ele>511.54</ele>
  <time>2026-09-01T20:00:50Z</time>
  <course>160.04</course>
  <speed>18.97830867069034</speed>
  <fix>3d</fix>
</trkpt>
<trkpt lat="-27.2390268" lon="151.3802543">
  <ele>513.21</ele>
  <time>2026-09-01T20:00:50Z</time>
  <course>161.77</course>
  <speed>17.96</speed>
  <fix>3d</fix>
</trkpt>
<trkpt lat="-27.2390908" lon="151.38028">
  <ele>511.24</ele>
  <time>2026-09-01T20:00:50Z</time>
  <course>159.95</course>
  <speed>18.986576837334315</speed>
  <fix>3d</fix>
</trkpt>
<trkpt lat="-27.2390581" lon="151.3802665">
  <ele>512.02</ele>
  <time>2026-09-01T20:00:50Z</time>
  <course>160.36</course>
  <speed>18.75</speed>
  <fix>3d</fix>
</trkpt>
<trkpt lat="-27.2391067" lon="151.3802868">
  <ele>511.01</ele>
  <time>2026-09-01T20:00:50Z</time>
  <course>159.83</course>
  <speed>18.913183232866963</speed>
  <fix>3d</fix>
</trkpt>
<trkpt lat="-27.2390581" lon="151.3802665">
  <ele>512.02</ele>
  <time>2026-09-01T20:00:50Z</time>
  <course>160.36</course>
  <speed>18.75</speed>
  <fix>3d</fix>
</trkpt>
<trkpt lat="-27.2391224" lon="151.3802935">
  <ele>510.81</ele>
  <time>2026-09-01T20:00:50Z</time>
  <course>159.65</course>
  <speed>18.81265797275866</speed>
  <fix>3d</fix>
</trkpt>
<trkpt lat="-27.2390899" lon="151.3802797">
  <ele>511.28</ele>
  <time>2026-09-01T20:00:50Z</time>
  <course>159.32</course>
  <speed>18.95</speed>
  <fix>3d</fix>
</trkpt>
<trkpt lat="-27.2391384" lon="151.3803005">
  <ele>510.63</ele>
  <time>2026-09-01T20:00:50Z</time>
  <course>159.41</course>
  <speed>18.695630505548614</speed>
  <fix>3d</fix>
</trkpt>
<trkpt lat="-27.2390899" lon="151.3802797">
  <ele>511.28</ele>
  <time>2026-09-01T20:00:50Z</time>
  <course>159.32</course>
  <speed>18.95</speed>
  <fix>3d</fix>
</trkpt>
<trkpt lat="-27.239154" lon="151.3803072">
  <ele>510.46</ele>
  <time>2026-09-01T20:00:50Z</time>
  <course>159.16</course>
  <speed>18.571432362636976</speed>
  <fix>3d</fix>
</trkpt>
<trkpt lat="-27.2391217" lon="151.3802933">
  <ele>510.83</ele>
  <time>2026-09-01T20:00:50Z</time>
  <course>158.98</course>
  <speed>18.81</speed>
  <fix>3d</fix>
</trkpt>
<trkpt lat="-27.2391695" lon="151.3803139">
  <ele>510.29</ele>
  <time>2026-09-01T20:00:50Z</time>
  <course>158.95</course>
  <speed>18.447249117415854</speed>
  <fix>3d</fix>
</trkpt>
<trkpt lat="-27.2391217" lon="151.3802933">
  <ele>510.83</ele>
  <time>2026-09-01T20:00:50Z</time>
  <course>158.98</course>
  <speed>18.81</speed>
  <fix>3d</fix>
</trkpt>
<trkpt lat="-27.2391849" lon="151.3803206">
  <ele>510.12</ele>
  <time>2026-09-01T20:00:50Z</time>
  <course>158.79</course>
  <speed>18.320878799882934</speed>
  <fix>3d</fix>
</trkpt>
<trkpt lat="-27.239153" lon="151.3803068">
  <ele>510.47</ele>
  <time>2026-09-01T20:00:50Z</time>
  <course>159.0</course>
  <speed>18.58</speed>
  <fix>3d</fix>
</trkpt>
<trkpt lat="-27.2392003" lon="151.3803271">
  <ele>509.95</ele>
  <time>2026-09-01T20:00:50Z</time>
  <course>158.71</course>
  <speed>18.203848494205833</speed>
  <fix>3d</fix>
</trkpt>
<trkpt lat="-27.239153" lon="151.3803068">
  <ele>510.47</ele>
  <time>2026-09-01T20:00:50Z</time>
  <course>159.0</course>
  <speed>18.58</speed>
  <fix>3d</fix>
</trkpt>
<trkpt lat="-27.2392155" lon="151.3803337">
  <ele>509.79</ele>
  <time>2026-09-01T20:00:50Z</time>
  <course>158.68</course>
  <speed>18.08464818568501</speed>
  <fix>3d</fix>
</trkpt>
<trkpt lat="-27.239184" lon="151.3803201">
  <ele>510.13</ele>
  <time>2026-09-01T20:00:50Z</time>
  <course>159.03</course>
  <speed>18.33</speed>
  <fix>3d</fix>
</trkpt>
<trkpt lat="-27.2392306" lon="151.3803403">
  <ele>509.63</ele>
  <time>2026-09-01T20:00:50Z</time>
  <course>158.7</course>
  <speed>17.969084562102765</speed>
  <fix>3d</fix>
</trkpt>
<trkpt lat="-27.239184" lon="151.3803201">
  <ele>510.13</ele>
  <time>2026-09-01T20:00:50Z</time>
  <course>159.03</course>
  <speed>18.33</speed>
  <fix>3d</fix>
</trkpt>
<trkpt lat="-27.2392456" lon="151.3803467">
  <ele>509.46</ele>
  <time>2026-09-01T20:00:50Z</time>
  <course>158.73</course>
  <speed>17.857211428439772</speed>
  <fix>3d</fix>
</trkpt>
<trkpt lat="-27.2392145" lon="151.3803333">
  <ele>509.8</ele>
  <time>2026-09-01T20:00:50Z</time>
  <course>158.94</course>
  <speed>18.09</speed>
  <fix>3d</fix>
</trkpt>
<trkpt lat="-27.2392605" lon="151.3803534">
  <ele>509.3</ele>
  <time>2026-09-01T20:00:50Z</time>
  <course>158.75</course>
  <speed>17.74179528683611</speed>
  <fix>3d</fix>
</trkpt>
<trkpt lat="-27.2392145" lon="151.3803333">
  <ele>509.8</ele>
  <time>2026-09-01T20:00:50Z</time>
  <course>158.94</course>
  <speed>18.09</speed>
  <fix>3d</fix>
</trkpt>
<trkpt lat="-27.2392753" lon="151.3803599">
  <ele>509.13</ele>
  <time>2026-09-01T20:00:50Z</time>
  <course>158.75</course>
  <speed>17.630113442629913</speed>
  <fix>3d</fix>
</trkpt>
<trkpt lat="-27.2392446" lon="151.3803464">
  <ele>509.47</ele>
  <time>2026-09-01T20:00:50Z</time>
  <course>158.72</course>
  <speed>17.86</speed>
  <fix>3d</fix>
</trkpt>
<trkpt lat="-27.2392899" lon="151.3803664">
  <ele>508.97</ele>
  <time>2026-09-01T20:00:50Z</time>
  <course>158.71</course>
  <speed>17.520462322667175</speed>
  <fix>3d</fix>
</trkpt>
<trkpt lat="-27.2392446" lon="151.3803464">
  <ele>509.47</ele>
  <time>2026-09-01T20:00:50Z</time>
  <course>158.72</course>
  <speed>17.86</speed>
  <fix>3d</fix>
</trkpt>
<trkpt lat="-27.2393045" lon="151.380373">
  <ele>508.81</ele>
  <time>2026-09-01T20:00:50Z</time>
  <course>158.63</course>
  <speed>17.420132031646602</speed>
  <fix>3d</fix>
</trkpt>
<trkpt lat="-27.2392743" lon="151.3803595">
  <ele>509.14</ele>
  <time>2026-09-01T20:00:50Z</time>
  <course>158.49</course>
  <speed>17.64</speed>
  <fix>3d</fix>
</trkpt>
<trkpt lat="-27.2374599" lon="151.384393">
  <ele>542.96</ele>
  <time>2026-09-01T20:00:50Z</time>
  <course>250.01</course>
  <speed>0.0</speed>
  <fix>3d</fix>
</trkpt>
<trkpt lat="-27.2392743" lon="151.3803595">
  <ele>509.14</ele>
  <time>2026-09-01T20:00:50Z</time>
  <course>158.49</course>
  <speed>17.64</speed>
  <fix>3d</fix>
</trkpt>
<trkpt lat="-27.23746" lon="151.384393">
  <ele>542.83</ele>
  <time>2026-09-01T20:00:50Z</time>
  <course>250.01</course>
  <speed>0.01</speed>
  <fix>3d</fix>
</trkpt>
<trkpt lat="-27.2383745" lon="151.3823795">
  <ele>525.97</ele>
  <time>2026-09-01T20:00:50Z</time>
  <course>158.39</course>
  <speed>8.76</speed>
  <fix>3d</fix>
</trkpt>
<trkpt lat="-27.23746" lon="151.3843929">
  <ele>542.61</ele>
  <time>2026-09-01T20:00:50Z</time>
  <course>250.02</course>
  <speed>0.053851648071345036</speed>
  <fix>3d</fix>
</trkpt>
<trkpt lat="-27.2383745" lon="151.3823795">
  <ele>525.97</ele>
  <time>2026-09-01T20:00:50Z</time>
  <course>158.39</course>
  <speed>8.76</speed>
  <fix>3d</fix>
</trkpt>
<trkpt lat="-27.23746" lon="151.3843928">
  <ele>542.29</ele>
  <time>2026-09-01T20:00:50Z</time>
  <course>250.65</course>
  <speed>0.13601470508735444</speed>
  <fix>3d</fix>
</trkpt>
<trkpt lat="-27.2374599" lon="151.3843929">
  <ele>542.79</ele>
  <time>2026-09-01T20:00:50Z</time>
  <course>243.65</course>
  <speed>0.02</speed>
  <fix>3d</fix>
</trkpt>
<trkpt lat="-27.23746" lon="151.3843925">
  <ele>541.91</ele>
  <time>2026-09-01T20:00:50Z</time>
  <course>253.87</course>
  <speed>0.2863564212655271</speed>
  <fix>3d</fix>
</trkpt>
<trkpt lat="-27.2374599" lon="151.3843929">
  <ele>542.79</ele>
  <time>2026-09-01T20:00:50Z</time>
  <course>243.65</course>
  <speed>0.02</speed>
  <fix>3d</fix>
</trkpt>
<trkpt lat="-27.2374599" lon="151.3843923">
  <ele>541.46</ele>
  <time>2026-09-01T20:00:50Z</time>
  <course>263.42</course>
  <speed>0.46647615158762407</speed>
  <fix>3d</fix>
</trkpt>
<trkpt lat="-27.23746" lon="151.3843927">
  <ele>542.28</ele>
  <time>2026-09-01T20:00:50Z</time>
  <course>276.03</course>
  <speed>0.16</speed>
  <fix>3d</fix>
</trkpt>
<trkpt lat="-27.2374598" lon="151.384392">
  <ele>540.94</ele>
  <time>2026-09-01T20:00:50Z</time>
  <course>264.9</course>
  <speed>0.4382921400162225</speed>
  <fix>3d</fix>
</trkpt>
<trkpt lat="-27.23746" lon="151.3843927">
  <ele>542.28</ele>
  <time>2026-09-01T20:00:50Z</time>
  <course>276.03</course>
  <speed>0.16</speed>
  <fix>3d</fix>
</trkpt>
<trkpt lat="-27.2374606" lon="151.3843916">
  <ele>540.36</ele>
  <time>2026-09-01T20:00:50Z</time>
  <course>252.26</course>
  <speed>1.710263137648707</speed>
  <fix>3d</fix>
</trkpt>
<trkpt lat="-27.2374599" lon="151.3843923">
  <ele>541.45</ele>
  <time>2026-09-01T20:00:50Z</time>
  <course>257.29</course>
  <speed>0.33</speed>
  <fix>3d</fix>
</trkpt>
<trkpt lat="-27.2374627" lon="151.384392">
  <ele>539.79</ele>
  <time>2026-09-01T20:00:50Z</time>
  <course>242.48</course>
  <speed>2.9742393985689852</speed>
  <fix>3d</fix>
</trkpt>
<trkpt lat="-27.2374599" lon="151.3843923">
  <ele>541.45</ele>
  <time>2026-09-01T20:00:50Z</time>
  <course>257.29</course>
  <speed>0.33</speed>
  <fix>3d</fix>
</trkpt>
<trkpt lat="-27.2374658" lon="151.3843925">
  <ele>539.27</ele>
  <time>2026-09-01T20:00:50Z</time>
  <course>234.65</course>
  <speed>3.9366229181876182</speed>
  <fix>3d</fix>
</trkpt>
<trkpt lat="-27.2374612" lon="151.3843919">
  <ele>540.39</ele>
  <time>2026-09-01T20:00:50Z</time>
  <course>179.03</course>
  <speed>1.55</speed>
  <fix>3d</fix>
</trkpt>
<trkpt lat="-27.2374695" lon="151.3843937">
  <ele>538.79</ele>
  <time>2026-09-01T20:00:50Z</time>
  <course>227.75</course>
  <speed>4.662027455946608</speed>
  <fix>3d</fix>
</trkpt>
<trkpt lat="-27.2374612" lon="151.3843919">
  <ele>540.39</ele>
  <time>2026-09-01T20:00:50Z</time>
  <course>179.03</course>
  <speed>1.55</speed>
  <fix>3d</fix>
</trkpt>
<trkpt lat="-27.2374739" lon="151.3843951">
  <ele>538.4</ele>
  <time>2026-09-01T20:00:50Z</time>
  <course>221.18</course>
  <speed>5.458800234483764</speed>
  <fix>3d</fix>
</trkpt>
<trkpt lat="-27.2374659" lon="151.3843927">
  <ele>539.32</ele>
  <time>2026-09-01T20:00:50Z</time>
  <course>166.92</course>
  <speed>3.77</speed>
  <fix>3d</fix>
</trkpt>
<trkpt lat="-27.2374788" lon="151.3843968">
  <ele>538.1</ele>
  <time>2026-09-01T20:00:50Z</time>
  <course>214.25</course>
  <speed>5.990008347239593</speed>
  <fix>3d</fix>
</trkpt>
<trkpt lat="-27.2374659" lon="151.3843927">
  <ele>539.32</ele>
  <time>2026-09-01T20:00:50Z</time>
  <course>166.92</course>
  <speed>3.77</speed>
  <fix>3d</fix>
</trkpt>
<trkpt lat="-27.2374841" lon="151.3843987">
  <ele>537.89</ele>
  <time>2026-09-01T20:00:50Z</time>
  <course>207.92</course>
  <speed>6.272710737791118</speed>
  <fix>3d</fix>
</trkpt>
<trkpt lat="-27.2374739" lon="151.3843951">
  <ele>538.47</ele>
  <time>2026-09-01T20:00:50Z</time>
  <course>163.15</course>
  <speed>5.3</speed>
  <fix>3d</fix>
</trkpt>
<trkpt lat="-27.2374894" lon="151.3844011">
  <ele>537.77</ele>
  <time>2026-09-01T20:00:50Z</time>
  <course>202.71</course>
  <speed>6.32635756182023</speed>
  <fix>3d</fix>
</trkpt>
<trkpt lat="-27.2374739" lon="151.3843951">
  <ele>538.47</ele>
  <time>2026-09-01T20:00:50Z</time>
  <course>163.15</course>
  <speed>5.3</speed>
  <fix>3d</fix>
</trkpt>
<trkpt lat="-27.2374945" lon="151.3844038">
  <ele>537.72</ele>
  <time>2026-09-01T20:00:50Z</time>
  <course>198.57</course>
  <speed>6.225214855729881</speed>
  <fix>3d</fix>
</trkpt>
<trkpt lat="-27.2374838" lon="151.3843988">
  <ele>537.94</ele>
  <time>2026-09-01T20:00:50Z</time>
  <course>159.73</course>
  <speed>6.15</speed>
  <fix>3d</fix>
</trkpt>
<trkpt lat="-27.2374994" lon="151.3844067">
  <ele>537.75</ele>
  <time>2026-09-01T20:00:50Z</time>
  <course>194.94</course>
  <speed>6.070551869476119</speed>
  <fix>3d</fix>
</trkpt>
<trkpt lat="-27.2374838" lon="151.3843988">
  <ele>537.94</ele>
  <time>2026-09-01T20:00:50Z</time>
  <course>159.73</course>
  <speed>6.15</speed>
  <fix>3d</fix>
</trkpt>
<trkpt lat="-27.2375041" lon="151.3844097">
  <ele>537.82</ele>
  <time>2026-09-01T20:00:50Z</time>
  <course>191.39</course>
  <speed>5.930430001273095</speed>
  <fix>3d</fix>
</trkpt>
<trkpt lat="-27.2374941" lon="151.3844038">
  <ele>537.75</ele>
  <time>2026-09-01T20:00:50Z</time>
  <course>154.08</course>
  <speed>6.2</speed>
  <fix>3d</fix>
</trkpt>
<trkpt lat="-27.2375086" lon="151.3844129">
  <ele>537.94</ele>
  <time>2026-09-01T20:00:50Z</time>
  <course>188.12</course>
  <speed>5.8098623047366615</speed>
  <fix>3d</fix>
</trkpt>
<trkpt lat="-27.2374941" lon="151.3844038">
  <ele>537.75</ele>
  <time>2026-09-01T20:00:50Z</time>
  <course>154.08</course>
  <speed>6.2</speed>
  <fix>3d</fix>
</trkpt>
<trkpt lat="-27.2375129" lon="151.3844159">
  <ele>538.1</ele>
  <time>2026-09-01T20:00:50Z</time>
  <course>185.43</course>
  <speed>5.725425748361427</speed>
  <fix>3d</fix>
</trkpt>
<trkpt lat="-27.2375037" lon="151.3844096">
  <ele>537.83</ele>
  <time>2026-09-01T20:00:50Z</time>
  <course>149.43</course>
  <speed>5.95</speed>
  <fix>3d</fix>
</trkpt>
<trkpt lat="-27.2375173" lon="151.3844192">
  <ele>538.27</ele>
  <time>2026-09-01T20:00:50Z</time>
  <course>183.47</course>
  <speed>5.677966185175816</speed>
  <fix>3d</fix>
</trkpt>
<trkpt lat="-27.2375037" lon="151.3844096">
  <ele>537.83</ele>
  <time>2026-09-01T20:00:50Z</time>
  <course>149.43</course>
  <speed>5.95</speed>
  <fix>3d</fix>
</trkpt>
<trkpt lat="-27.2375215" lon="151.3844222">
  <ele>538.47</ele>
  <time>2026-09-01T20:00:50Z</time>
  <course>182.18</course>
  <speed>5.63649713918139</speed>
  <fix>3d</fix>
</trkpt>
<trkpt lat="-27.2375126" lon="151.3844158">
  <ele>538.09</ele>
  <time>2026-09-01T20:00:50Z</time>
  <course>147.51</course>
  <speed>5.75</speed>
  <fix>3d</fix>
</trkpt>
<trkpt lat="-27.2375258" lon="151.3844253">
  <ele>538.69</ele>
  <time>2026-09-01T20:00:50Z</time>
  <course>181.43</course>
  <speed>5.608859064016496</speed>
  <fix>3d</fix>
</trkpt>
<trkpt lat="-27.2375126" lon="151.3844158">
  <ele>538.09</ele>
  <time>2026-09-01T20:00:50Z</time>
  <course>147.51</course>
  <speed>5.75</speed>
  <fix>3d</fix>
</trkpt>
<trkpt lat="-27.23753" lon="151.3844284">
  <ele>538.93</ele>
  <time>2026-09-01T20:00:50Z</time>
  <course>181.06</course>
  <speed>5.592709540106656</speed>
  <fix>3d</fix>
</trkpt>
<trkpt lat="-27.2375213" lon="151.3844221">
  <ele>538.47</ele>
  <time>2026-09-01T20:00:50Z</time>
  <course>147.24</course>
  <speed>5.65</speed>
  <fix>3d</fix>
</trkpt>
<trkpt lat="-27.2375343" lon="151.3844313">
  <ele>539.2</ele>
  <time>2026-09-01T20:00:50Z</time>
  <course>180.92</course>
  <speed>5.576674636376055</speed>
  <fix>3d</fix>
</trkpt>
<trkpt lat="-27.2375213" lon="151.3844221">
  <ele>538.47</ele>
  <time>2026-09-01T20:00:50Z</time>
  <course>147.24</course>
  <speed>5.65</speed>
  <fix>3d</fix>
</trkpt>
<trkpt lat="-27.2375385" lon="151.3844344">
  <ele>539.47</ele>
  <time>2026-09-01T20:00:50Z</time>
  <course>180.88</course>
  <speed>5.569245909456684</speed>
  <fix>3d</fix>
</trkpt>
<trkpt lat="-27.2375298" lon="151.3844282">
  <ele>538.93</ele>
  <time>2026-09-01T20:00:50Z</time>
  <course>147.56</course>
  <speed>5.6</speed>
  <fix>3d</fix>
</trkpt>
<trkpt lat="-27.2375428" lon="151.3844373">
  <ele>539.76</ele>
  <time>2026-09-01T20:00:50Z</time>
  <course>180.89</course>
  <speed>5.565294241996554</speed>
  <fix>3d</fix>
</trkpt>
<trkpt lat="-27.2375298" lon="151.3844282">
  <ele>538.93</ele>
  <time>2026-09-01T20:00:50Z</time>
  <course>147.56</course>
  <speed>5.6</speed>
  <fix>3d</fix>
</trkpt>
<trkpt lat="-27.2375471" lon="151.3844402">
  <ele>540.06</ele>
  <time>2026-09-01T20:00:50Z</time>
  <course>180.94</course>
  <speed>5.561699380585038</speed>
  <fix>3d</fix>
</trkpt>
<trkpt lat="-27.2375383" lon="151.3844341">
  <ele>539.46</ele>
  <time>2026-09-01T20:00:50Z</time>
  <course>148.18</course>
  <speed>5.57</speed>
  <fix>3d</fix>
</trkpt>
<trkpt lat="-27.2375514" lon="151.3844431">
  <ele>540.37</ele>
  <time>2026-09-01T20:00:50Z</time>
  <course>180.99</course>
  <speed>5.567081820846538</speed>
  <fix>3d</fix>
</trkpt>
<trkpt lat="-27.2375383" lon="151.3844341">
  <ele>539.46</ele>
  <time>2026-09-01T20:00:50Z</time>
  <course>148.18</course>
  <speed>5.57</speed>
  <fix>3d</fix>
</trkpt>
<trkpt lat="-27.2375557" lon="151.384446">
  <ele>540.68</ele>
  <time>2026-09-01T20:00:50Z</time>
  <course>181.07</course>
  <speed>5.572907679120479</speed>
  <fix>3d</fix>
</trkpt>
<trkpt lat="-27.2375468" lon="151.3844401">
  <ele>540.05</ele>
  <time>2026-09-01T20:00:50Z</time>
  <course>149.05</course>
  <speed>5.57</speed>
  <fix>3d</fix>
</trkpt>
<trkpt lat="-27.23756" lon="151.3844487">
  <ele>540.99</ele>
  <time>2026-09-01T20:00:50Z</time>
  <course>181.16</course>
  <speed>5.5742712528186145</speed>
  <fix>3d</fix>
</trkpt>
<trkpt lat="-27.2375468" lon="151.3844401">
  <ele>540.05</ele>
  <time>2026-09-01T20:00:50Z</time>
  <course>149.05</course>
  <speed>5.57</speed>
  <fix>3d</fix>
</trkpt>
<trkpt lat="-27.2375644" lon="151.3844514">
  <ele>541.29</ele>
  <time>2026-09-01T20:00:50Z</time>
  <course>181.27</course>
  <speed>5.581057247511443</speed>
  <fix>3d</fix>
</trkpt>
<trkpt lat="-27.2375554" lon="151.3844457">
  <ele>540.66</ele>
  <time>2026-09-01T20:00:50Z</time>
  <course>150.06</course>
  <speed>5.57</speed>
  <fix>3d</fix>
</trkpt>
<trkpt lat="-27.2375688" lon="151.3844542">
  <ele>541.6</ele>
  <time>2026-09-01T20:00:50Z</time>
  <course>181.4</course>
  <speed>5.588282383702527</speed>
  <fix>3d</fix>
</trkpt>
<trkpt lat="-27.2375554" lon="151.3844457">
  <ele>540.66</ele>
  <time>2026-09-01T20:00:50Z</time>
  <course>150.06</course>
  <speed>5.57</speed>
  <fix>3d</fix>
</trkpt>
<trkpt lat="-27.2375733" lon="151.3844567">
  <ele>541.9</ele>
  <time>2026-09-01T20:00:50Z</time>
  <course>181.55</course>
  <speed>5.591779680924491</speed>
  <fix>3d</fix>
</trkpt>
<trkpt lat="-27.2375642" lon="151.3844513">
  <ele>541.28</ele>
  <time>2026-09-01T20:00:50Z</time>
  <course>151.11</course>
  <speed>5.58</speed>
  <fix>3d</fix>
</trkpt>
<trkpt lat="-27.2375777" lon="151.3844595">
  <ele>542.2</ele>
  <time>2026-09-01T20:00:50Z</time>
  <course>181.73</course>
  <speed>5.59128786595718</speed>
  <fix>3d</fix>
</trkpt>
<trkpt lat="-27.2375642" lon="151.3844513">
  <ele>541.28</ele>
  <time>2026-09-01T20:00:50Z</time>
  <course>151.11</course>
  <speed>5.58</speed>
  <fix>3d</fix>
</trkpt>
<trkpt lat="-27.2375822" lon="151.384462">
  <ele>542.49</ele>
  <time>2026-09-01T20:00:50Z</time>
  <course>181.95</course>
  <speed>5.59128786595718</speed>
  <fix>3d</fix>
</trkpt>
<trkpt lat="-27.237573" lon="151.3844566">
  <ele>541.88</ele>
  <time>2026-09-01T20:00:50Z</time>
  <course>151.93</course>
  <speed>5.59</speed>
  <fix>3d</fix>
</trkpt>
<trkpt lat="-27.2375866" lon="151.3844648">
  <ele>542.77</ele>
  <time>2026-09-01T20:00:50Z</time>
  <course>182.18</course>
  <speed>5.5829472503329285</speed>
  <fix>3d</fix>
</trkpt>
<trkpt lat="-27.237573" lon="151.3844566">
  <ele>541.88</ele>
  <time>2026-09-01T20:00:50Z</time>
  <course>151.93</course>
  <speed>5.59</speed>
  <fix>3d</fix>
</trkpt>
<trkpt lat="-27.237591" lon="151.3844674">
  <ele>543.04</ele>
  <time>2026-09-01T20:00:50Z</time>
  <course>182.39</course>
  <speed>5.55713055452182</speed>
  <fix>3d</fix>
</trkpt>
<trkpt lat="-27.2375819" lon="151.3844619">
  <ele>542.47</ele>
  <time>2026-09-01T20:00:50Z</time>
  <course>152.12</course>
  <speed>5.59</speed>
  <fix>3d</fix>
</trkpt>
<trkpt lat="-27.2375954" lon="151.38447">
  <ele>543.32</ele>
  <time>2026-09-01T20:00:50Z</time>
  <course>182.57</course>
  <speed>5.505270202269822</speed>
  <fix>3d</fix>
</trkpt>
<trkpt lat="-27.2375819" lon="151.3844619">
  <ele>542.47</ele>
  <time>2026-09-01T20:00:50Z</time>
  <course>152.12</course>
  <speed>5.59</speed>
  <fix>3d</fix>
</trkpt>
<trkpt lat="-27.2375997" lon="151.3844728">
  <ele>543.58</ele>
  <time>2026-09-01T20:00:50Z</time>
  <course>182.8</course>
  <speed>5.395600059307584</speed>
  <fix>3d</fix>
</trkpt>
<trkpt lat="-27.2375908" lon="151.3844672">
  <ele>543.03</ele>
  <time>2026-09-01T20:00:50Z</time>
  <course>151.56</course>
  <speed>5.54</speed>
  <fix>3d</fix>
</trkpt>
<trkpt lat="-27.2376038" lon="151.3844754">
  <ele>543.85</ele>
  <time>2026-09-01T20:00:50Z</time>
  <course>183.08</course>
  <speed>5.23676426813352</speed>
  <fix>3d</fix>
</trkpt>
<trkpt lat="-27.2375908" lon="151.3844672">
  <ele>543.03</ele>
  <time>2026-09-01T20:00:50Z</time>
  <course>151.56</course>
  <speed>5.54</speed>
  <fix>3d</fix>
</trkpt>
<trkpt lat="-27.2376078" lon="151.3844781">
  <ele>544.11</ele>
  <time>2026-09-01T20:00:50Z</time>
  <course>183.42</course>
  <speed>5.011387033546701</speed>
  <fix>3d</fix>
</trkpt>
<trkpt lat="-27.2375994" lon="151.3844727">
  <ele>543.57</ele>
  <time>2026-09-01T20:00:50Z</time>
  <course>150.59</course>
  <speed>5.38</speed>
  <fix>3d</fix>
</trkpt>
<trkpt lat="-27.2376116" lon="151.3844806">
  <ele>544.37</ele>
  <time>2026-09-01T20:00:50Z</time>
  <course>183.81</course>
  <speed>4.745366160793074</speed>
  <fix>3d</fix>
</trkpt>
<trkpt lat="-27.2375994" lon="151.3844727">
  <ele>543.57</ele>
  <time>2026-09-01T20:00:50Z</time>
  <course>150.59</course>
  <speed>5.38</speed>
  <fix>3d</fix>
</trkpt>
<trkpt lat="-27.2376151" lon="151.384483">
  <ele>544.64</ele>
  <time>2026-09-01T20:00:50Z</time>
  <course>184.28</course>
  <speed>4.443703410444941</speed>
  <fix>3d</fix>
</trkpt>
<trkpt lat="-27.2376075" lon="151.3844779">
  <ele>544.1</ele>
  <time>2026-09-01T20:00:50Z</time>
  <course>149.56</course>
  <speed>5.0</speed>
  <fix>3d</fix>
</trkpt>
<trkpt lat="-27.2376184" lon="151.3844853">
  <ele>544.91</ele>
  <time>2026-09-01T20:00:50Z</time>
  <course>184.84</course>
  <speed>4.1181185024231635</speed>
  <fix>3d</fix>
</trkpt>
<trkpt lat="-27.2376075" lon="151.3844779">
  <ele>544.1</ele>
  <time>2026-09-01T20:00:50Z</time>
  <course>149.56</course>
  <speed>5.0</speed>
  <fix>3d</fix>
</trkpt>
<trkpt lat="-27.2376214" lon="151.3844873">
  <ele>545.16</ele>
  <time>2026-09-01T20:00:50Z</time>
  <course>185.48</course>
  <speed>3.773592452822642</speed>
  <fix>3d</fix>
</trkpt>
<trkpt lat="-27.2376148" lon="151.3844828">
  <ele>544.62</ele>
  <time>2026-09-01T20:00:50Z</time>
  <course>148.63</course>
  <speed>4.45</speed>
  <fix>3d</fix>
</trkpt>
<trkpt lat="-27.2376242" lon="151.3844894">
  <ele>545.43</ele>
  <time>2026-09-01T20:00:50Z</time>
  <course>186.22</course>
  <speed>3.4206724485106723</speed>
  <fix>3d</fix>
</trkpt>
<trkpt lat="-27.2376148" lon="151.3844828">
  <ele>544.62</ele>
  <time>2026-09-01T20:00:50Z</time>
  <course>148.63</course>
  <speed>4.45</speed>
  <fix>3d</fix>
</trkpt>
<trkpt lat="-27.2376266" lon="151.3844911">
  <ele>545.7</ele>
  <time>2026-09-01T20:00:50Z</time>
  <course>187.05</course>
  <speed>3.0624989795916666</speed>
  <fix>3d</fix>
</trkpt>
<trkpt lat="-27.2376211" lon="151.3844872">
  <ele>545.15</ele>
  <time>2026-09-01T20:00:50Z</time>
  <course>147.98</course>
  <speed>3.79</speed>
  <fix>3d</fix>
</trkpt>
<trkpt lat="-27.2376288" lon="151.3844926">
  <ele>545.96</ele>
  <time>2026-09-01T20:00:50Z</time>
  <course>187.95</course>
  <speed>2.7073972741361767</speed>
  <fix>3d</fix>
</trkpt>
<trkpt lat="-27.2376211" lon="151.3844872">
  <ele>545.15</ele>
  <time>2026-09-01T20:00:50Z</time>
  <course>147.98</course>
  <speed>3.79</speed>
  <fix>3d</fix>
</trkpt>
<trkpt lat="-27.2376307" lon="151.384494">
  <ele>546.22</ele>
  <time>2026-09-01T20:00:50Z</time>
  <course>188.91</course>
  <speed>2.3547823678633235</speed>
  <fix>3d</fix>
</trkpt>
<trkpt lat="-27.2376263" lon="151.3844909">
  <ele>545.68</ele>
  <time>2026-09-01T20:00:50Z</time>
  <course>147.49</course>
  <speed>3.08</speed>
  <fix>3d</fix>
</trkpt>
<trkpt lat="-27.2376324" lon="151.3844953">
  <ele>546.48</ele>
  <time>2026-09-01T20:00:50Z</time>
  <course>189.9</course>
  <speed>2.01357890334598</speed>
  <fix>3d</fix>
</trkpt>
<trkpt lat="-27.2376263" lon="151.3844909">
  <ele>545.68</ele>
  <time>2026-09-01T20:00:50Z</time>
  <course>147.49</course>
  <speed>3.08</speed>
  <fix>3d</fix>
</trkpt>
<trkpt lat="-27.2376337" lon="151.3844963">
  <ele>546.74</ele>
  <time>2026-09-01T20:00:50Z</time>
  <course>190.87</course>
  <speed>1.6862977198585072</speed>
  <fix>3d</fix>
</trkpt>
<trkpt lat="-27.2376305" lon="151.3844939">
  <ele>546.2</ele>
  <time>2026-09-01T20:00:50Z</time>
  <course>146.9</course>
  <speed>2.38</speed>
  <fix>3d</fix>
</trkpt>
<trkpt lat="-27.2376349" lon="151.3844972">
  <ele>546.99</ele>
  <time>2026-09-01T20:00:50Z</time>
  <course>191.76</course>
  <speed>1.359154148726332</speed>
  <fix>3d</fix>
</trkpt>
<trkpt lat="-27.2376305" lon="151.3844939">
  <ele>546.2</ele>
  <time>2026-09-01T20:00:50Z</time>
  <course>146.9</course>
  <speed>2.38</speed>
  <fix>3d</fix>
</trkpt>
<trkpt lat="-27.2376359" lon="151.3844979">
  <ele>547.21</ele>
  <time>2026-09-01T20:00:50Z</time>
  <course>192.41</course>
  <speed>1.3423859355639869</speed>
  <fix>3d</fix>
</trkpt>
<trkpt lat="-27.2376335" lon="151.3844962">
  <ele>546.72</ele>
  <time>2026-09-01T20:00:50Z</time>
  <course>146.04</course>
  <speed>1.71</speed>
  <fix>3d</fix>
</trkpt>
<trkpt lat="-27.2376369" lon="151.3844987">
  <ele>547.31</ele>
  <time>2026-09-01T20:00:50Z</time>
  <course>192.76</course>
  <speed>1.3452880732393342</speed>
  <fix>3d</fix>
</trkpt>
<trkpt lat="-27.2376335" lon="151.3844962">
  <ele>546.72</ele>
  <time>2026-09-01T20:00:50Z</time>
  <course>146.04</course>
  <speed>1.71</speed>
  <fix>3d</fix>
</trkpt>
<trkpt lat="-27.2376379" lon="151.3844995">
  <ele>547.32</ele>
  <time>2026-09-01T20:00:50Z</time>
  <course>192.93</course>
  <speed>1.3398880550254935</speed>
  <fix>3d</fix>
</trkpt>
<trkpt lat="-27.2376358" lon="151.3844979">
  <ele>547.14</ele>
  <time>2026-09-01T20:00:50Z</time>
  <course>146.18</course>
  <speed>1.37</speed>
  <fix>3d</fix>
</trkpt>
<trkpt lat="-27.2376389" lon="151.3845002">
  <ele>547.23</ele>
  <time>2026-09-01T20:00:50Z</time>
  <course>192.92</course>
  <speed>1.3092364186807515</speed>
  <fix>3d</fix>
</trkpt>
<trkpt lat="-27.2376358" lon="151.3844979">
  <ele>547.14</ele>
  <time>2026-09-01T20:00:50Z</time>
  <course>146.18</course>
  <speed>1.37</speed>
  <fix>3d</fix>
</trkpt>
<trkpt lat="-27.2376399" lon="151.3845009">
  <ele>547.06</ele>
  <time>2026-09-01T20:00:50Z</time>
  <course>192.57</course>
  <speed>1.2539936203984452</speed>
  <fix>3d</fix>
</trkpt>
<trkpt lat="-27.2376378" lon="151.3844994">
  <ele>547.27</ele>
  <time>2026-09-01T20:00:50Z</time>
  <course>147.1</course>
  <speed>1.33</speed>
  <fix>3d</fix>
</trkpt>
<trkpt lat="-27.2376408" lon="151.3845015">
  <ele>546.8</ele>
  <time>2026-09-01T20:00:50Z</time>
  <course>191.62</course>
  <speed>1.162841347734075</speed>
  <fix>3d</fix>
</trkpt>
<trkpt lat="-27.2376378" lon="151.3844994">
  <ele>547.27</ele>
  <time>2026-09-01T20:00:50Z</time>
  <course>147.1</course>
  <speed>1.33</speed>
  <fix>3d</fix>
</trkpt>
<trkpt lat="-27.2376417" lon="151.3845021">
  <ele>546.47</ele>
  <time>2026-09-01T20:00:50Z</time>
  <course>190.07</course>
  <speed>1.0754068997360953</speed>
  <fix>3d</fix>
</trkpt>
<trkpt lat="-27.2376398" lon="151.3845008">
  <ele>547.02</ele>
  <time>2026-09-01T20:00:50Z</time>
  <course>147.78</course>
  <speed>1.24</speed>
  <fix>3d</fix>
</trkpt>
<trkpt lat="-27.2376425" lon="151.3845026">
  <ele>546.08</ele>
  <time>2026-09-01T20:00:50Z</time>
  <course>188.5</course>
  <speed>0.9936297097007517</speed>
  <fix>3d</fix>
</trkpt>
<trkpt lat="-27.2376398" lon="151.3845008">
  <ele>547.02</ele>
  <time>2026-09-01T20:00:50Z</time>
  <course>147.78</course>
  <speed>1.24</speed>
  <fix>3d</fix>
</trkpt>
<trkpt lat="-27.2376433" lon="151.3845031">
  <ele>545.65</ele>
  <time>2026-09-01T20:00:50Z</time>
  <course>187.12</course>
  <speed>0.9302150289046076</speed>
  <fix>3d</fix>
</trkpt>
<trkpt lat="-27.2376416" lon="151.384502">
  <ele>546.45</ele>
  <time>2026-09-01T20:00:50Z</time>
  <course>149.52</course>
  <speed>1.08</speed>
  <fix>3d</fix>
</trkpt>
<trkpt lat="-27.237644" lon="151.3845035">
  <ele>545.16</ele>
  <time>2026-09-01T20:00:50Z</time>
  <course>185.89</course>
  <speed>0.8915716460273958</speed>
  <fix>3d</fix>
</trkpt>
<trkpt lat="-27.2376416" lon="151.384502">
  <ele>546.45</ele>
  <time>2026-09-01T20:00:50Z</time>
  <course>149.52</course>
  <speed>1.08</speed>
  <fix>3d</fix>
</trkpt>
<trkpt lat="-27.2376447" lon="151.3845038">
  <ele>544.64</ele>
  <time>2026-09-01T20:00:50Z</time>
  <course>184.72</course>
  <speed>0.8949301648732151</speed>
  <fix>3d</fix>
</trkpt>
<trkpt lat="-27.2376432" lon="151.384503">
  <ele>545.64</ele>
  <time>2026-09-01T20:00:50Z</time>
  <course>153.41</course>
  <speed>0.94</speed>
  <fix>3d</fix>
</trkpt>
<trkpt lat="-27.2376456" lon="151.384504">
  <ele>544.04</ele>
  <time>2026-09-01T20:00:50Z</time>
  <course>183.54</course>
  <speed>0.9556673061269805</speed>
  <fix>3d</fix>
</trkpt>
<trkpt lat="-27.2376432" lon="151.384503">
  <ele>545.64</ele>
  <time>2026-09-01T20:00:50Z</time>
  <course>153.41</course>
  <speed>0.94</speed>
  <fix>3d</fix>
</trkpt>
<trkpt lat="-27.2376464" lon="151.3845043">
  <ele>543.41</ele>
  <time>2026-09-01T20:00:50Z</time>
  <course>182.31</course>
  <speed>1.0340696301506973</speed>
  <fix>3d</fix>
</trkpt>
<trkpt lat="-27.2376447" lon="151.3845038">
  <ele>544.63</ele>
  <time>2026-09-01T20:00:50Z</time>
  <course>161.48</course>
  <speed>0.92</speed>
  <fix>3d</fix>
</trkpt>
<trkpt lat="-27.2376475" lon="151.3845044">
  <ele>542.7</ele>
  <time>2026-09-01T20:00:50Z</time>
  <course>180.9</course>
  <speed>1.4621901381147393</speed>
  <fix>3d</fix>
</trkpt>
<trkpt lat="-27.2376447" lon="151.3845038">
  <ele>544.63</ele>
  <time>2026-09-01T20:00:50Z</time>
  <course>161.48</course>
  <speed>0.92</speed>
  <fix>3d</fix>
</trkpt>
<trkpt lat="-27.2376491" lon="151.3845045">
  <ele>541.91</ele>
  <time>2026-09-01T20:00:50Z</time>
  <course>178.23</course>
  <speed>2.1500930212435</speed>
  <fix>3d</fix>
</trkpt>
<trkpt lat="-27.2376464" lon="151.3845042">
  <ele>543.4</ele>
  <time>2026-09-01T20:00:50Z</time>
  <course>172.21</course>
  <speed>1.18</speed>
  <fix>3d</fix>
</trkpt>
<trkpt lat="-27.2376512" lon="151.3845044">
  <ele>541.07</ele>
  <time>2026-09-01T20:00:50Z</time>
  <course>172.63</course>
  <speed>2.3907530194480566</speed>
  <fix>3d</fix>
</trkpt>
<trkpt lat="-27.2376464" lon="151.3845042">
  <ele>543.4</ele>
  <time>2026-09-01T20:00:50Z</time>
  <course>172.21</course>
  <speed>1.18</speed>
  <fix>3d</fix>
</trkpt>
<trkpt lat="-27.2376533" lon="151.3845044">
  <ele>540.12</ele>
  <time>2026-09-01T20:00:50Z</time>
  <course>160.27</course>
  <speed>2.25055548698538</speed>
  <fix>3d</fix>
</trkpt>
<trkpt lat="-27.2376492" lon="151.3845044">
  <ele>541.91</ele>
  <time>2026-09-01T20:00:50Z</time>
  <course>179.47</course>
  <speed>1.9</speed>
  <fix>3d</fix>
</trkpt>
<trkpt lat="-27.2376552" lon="151.3845044">
  <ele>539.07</ele>
  <time>2026-09-01T20:00:50Z</time>
  <course>150.95</course>
  <speed>2.010895322984267</speed>
  <fix>3d</fix>
</trkpt>
<trkpt lat="-27.2376492" lon="151.3845044">
  <ele>541.91</ele>
  <time>2026-09-01T20:00:50Z</time>
  <course>179.47</course>
  <speed>1.9</speed>
  <fix>3d</fix>
</trkpt>
<trkpt lat="-27.237657" lon="151.3845043">
  <ele>537.91</ele>
  <time>2026-09-01T20:00:50Z</time>
  <course>156.39</course>
  <speed>1.99090431713832</speed>
  <fix>3d</fix>
</trkpt>
<trkpt lat="-27.237653" lon="151.3845044">
  <ele>540.11</ele>
  <time>2026-09-01T20:00:50Z</time>
  <course>181.54</course>
  <speed>2.2</speed>
  <fix>3d</fix>
</trkpt>
<trkpt lat="-27.237659" lon="151.3845043">
  <ele>536.7</ele>
  <time>2026-09-01T20:00:50Z</time>
  <course>157.79</course>
  <speed>2.450081631293129</speed>
  <fix>3d</fix>
</trkpt>
<trkpt lat="-27.237653" lon="151.3845044">
  <ele>540.11</ele>
  <time>2026-09-01T20:00:50Z</time>
  <course>181.54</course>
  <speed>2.2</speed>
  <fix>3d</fix>
</trkpt>
<trkpt lat="-27.2376616" lon="151.3845044">
  <ele>535.4</ele>
  <time>2026-09-01T20:00:50Z</time>
  <course>156.41</course>
  <speed>3.3924917096435183</speed>
  <fix>3d</fix>
</trkpt>
<trkpt lat="-27.237657" lon="151.3845043">
  <ele>537.94</ele>
  <time>2026-09-01T20:00:50Z</time>
  <course>180.54</course>
  <speed>2.21</speed>
  <fix>3d</fix>
</trkpt>
<trkpt lat="-27.2376651" lon="151.384505">
  <ele>534.06</ele>
  <time>2026-09-01T20:00:50Z</time>
  <course>155.18</course>
  <speed>4.644921958440206</speed>
  <fix>3d</fix>
</trkpt>
<trkpt lat="-27.237657" lon="151.3845043">
  <ele>537.94</ele>
  <time>2026-09-01T20:00:50Z</time>
  <course>180.54</course>
  <speed>2.21</speed>
  <fix>3d</fix>
</trkpt>
<trkpt lat="-27.2376697" lon="151.3845065">
  <ele>532.68</ele>
  <time>2026-09-01T20:00:50Z</time>
  <course>155.09</course>
  <speed>5.957851961907076</speed>
  <fix>3d</fix>
</trkpt>
<trkpt lat="-27.2376619" lon="151.3845046">
  <ele>535.44</ele>
  <time>2026-09-01T20:00:50Z</time>
  <course>171.28</course>
  <speed>3.47</speed>
  <fix>3d</fix>
</trkpt>
<trkpt lat="-27.2376752" lon="151.3845089">
  <ele>531.28</ele>
  <time>2026-09-01T20:00:50Z</time>
  <course>155.84</course>
  <speed>7.19617954195141</speed>
  <fix>3d</fix>
</trkpt>
<trkpt lat="-27.2376619" lon="151.3845046">
  <ele>535.44</ele>
  <time>2026-09-01T20:00:50Z</time>
  <course>171.28</course>
  <speed>3.47</speed>
  <fix>3d</fix>
</trkpt>
<trkpt lat="-27.2376816" lon="151.3845122">
  <ele>529.87</ele>
  <time>2026-09-01T20:00:50Z</time>
  <course>156.72</course>
  <speed>8.398630840797802</speed>
  <fix>3d</fix>
</trkpt>
<trkpt lat="-27.2376699" lon="151.3845069">
  <ele>532.74</ele>
  <time>2026-09-01T20:00:50Z</time>
  <course>161.26</course>
  <speed>5.84</speed>
  <fix>3d</fix>
</trkpt>
<trkpt lat="-27.2376889" lon="151.384516">
  <ele>528.46</ele>
  <time>2026-09-01T20:00:51Z</time>
  <course>157.36</course>
  <speed>9.625035064871192</speed>
  <fix>3d</fix>
</trkpt>
<trkpt lat="-27.2376699" lon="151.3845069">
  <ele>532.74</ele>
  <time>2026-09-01T20:00:51Z</time>
  <course>161.26</course>
  <speed>5.84</speed>
  <fix>3d</fix>
</trkpt>
<trkpt lat="-27.2376973" lon="151.3845206">
  <ele>527.07</ele>
  <time>2026-09-01T20:00:51Z</time>
  <course>157.72</course>
  <speed>10.917806556263946</speed>
  <fix>3d</fix>
</trkpt>
<trkpt lat="-27.2376817" lon="151.3845123">
  <ele>529.94</ele>
  <time>2026-09-01T20:00:51Z</time>
  <course>155.7</course>
  <speed>8.35</speed>
  <fix>3d</fix>
</trkpt>
<trkpt lat="-27.2377067" lon="151.3845256">
  <ele>525.72</ele>
  <time>2026-09-01T20:00:51Z</time>
  <course>157.83</course>
  <speed>12.214172096380498</speed>
  <fix>3d</fix>
</trkpt>
<trkpt lat="-27.2376817" lon="151.3845123">
  <ele>529.94</ele>
  <time>2026-09-01T20:00:51Z</time>
  <course>155.7</course>
  <speed>8.35</speed>
  <fix>3d</fix>
</trkpt>
<trkpt lat="-27.2377172" lon="151.3845308">
  <ele>524.43</ele>
  <time>2026-09-01T20:00:51Z</time>
  <course>157.77</course>
  <speed>13.45037174207464</speed>
  <fix>3d</fix>
</trkpt>
<trkpt lat="-27.2376974" lon="151.3845206">
  <ele>527.16</ele>
  <time>2026-09-01T20:00:51Z</time>
  <course>154.69</course>
  <speed>10.86</speed>
  <fix>3d</fix>
</trkpt>
<trkpt lat="-27.2377288" lon="151.3845365">
  <ele>523.21</ele>
  <time>2026-09-01T20:00:51Z</time>
  <course>157.63</course>
  <speed>14.608466723102735</speed>
  <fix>3d</fix>
</trkpt>
<trkpt lat="-27.2376974" lon="151.3845206">
  <ele>527.16</ele>
  <time>2026-09-01T20:00:51Z</time>
  <course>154.69</course>
  <speed>10.86</speed>
  <fix>3d</fix>
</trkpt>
<trkpt lat="-27.2377414" lon="151.3845423">
  <ele>522.08</ele>
  <time>2026-09-01T20:00:51Z</time>
  <course>157.45</course>
  <speed>15.674546245426054</speed>
  <fix>3d</fix>
</trkpt>
<trkpt lat="-27.2377172" lon="151.3845308">
  <ele>524.52</ele>
  <time>2026-09-01T20:00:51Z</time>
  <course>156.26</course>
  <speed>13.36</speed>
  <fix>3d</fix>
</trkpt>
<trkpt lat="-27.2377549" lon="151.3845483">
  <ele>521.04</ele>
  <time>2026-09-01T20:00:51Z</time>
  <course>157.25</course>
  <speed>16.625552622394242</speed>
  <fix>3d</fix>
</trkpt>
<trkpt lat="-27.2377172" lon="151.3845308">
  <ele>524.52</ele>
  <time>2026-09-01T20:00:51Z</time>
  <course>156.26</course>
  <speed>13.36</speed>
  <fix>3d</fix>
</trkpt>
<trkpt lat="-27.2377691" lon="151.3845547">
  <ele>520.13</ele>
  <time>2026-09-01T20:00:51Z</time>
  <course>157.04</course>
  <speed>17.43503656434365</speed>
  <fix>3d</fix>
</trkpt>
<trkpt lat="-27.2377412" lon="151.3845422">
  <ele>522.17</ele>
  <time>2026-09-01T20:00:51Z</time>
  <course>157.93</course>
  <speed>15.58</speed>
  <fix>3d</fix>
</trkpt>
<trkpt lat="-27.2377839" lon="151.3845613">
  <ele>519.35</ele>
  <time>2026-09-01T20:00:51Z</time>
  <course>156.8</course>
  <speed>18.086945568558555</speed>
  <fix>3d</fix>
</trkpt>
<trkpt lat="-27.2377412" lon="151.3845422">
  <ele>522.17</ele>
  <time>2026-09-01T20:00:51Z</time>
  <course>157.93</course>
  <speed>15.58</speed>
  <fix>3d</fix>
</trkpt>
<trkpt lat="-27.2377992" lon="151.3845684">
  <ele>518.69</ele>
  <time>2026-09-01T20:00:51Z</time>
  <course>156.53</course>
  <speed>18.559315720144426</speed>
  <fix>3d</fix>
</trkpt>
<trkpt lat="-27.2377688" lon="151.3845545">
  <ele>520.23</ele>
  <time>2026-09-01T20:00:51Z</time>
  <course>158.2</course>
  <speed>17.32</speed>
  <fix>3d</fix>
</trkpt>
<trkpt lat="-27.2378146" lon="151.3845758">
  <ele>518.16</ele>
  <time>2026-09-01T20:00:51Z</time>
  <course>156.27</course>
  <speed>18.862547547985134</speed>
  <fix>3d</fix>
</trkpt>
<trkpt lat="-27.2377688" lon="151.3845545">
  <ele>520.23</ele>
  <time>2026-09-01T20:00:51Z</time>
  <course>158.2</course>
  <speed>17.32</speed>
  <fix>3d</fix>
</trkpt>
<trkpt lat="-27.2378302" lon="151.3845835">
  <ele>517.78</ele>
  <time>2026-09-01T20:00:51Z</time>
  <course>156.13</course>
  <speed>19.000342102183318</speed>
  <fix>3d</fix>
</trkpt>
<trkpt lat="-27.2377986" lon="151.3845682">
  <ele>518.78</ele>
  <time>2026-09-01T20:00:51Z</time>
  <course>157.18</course>
  <speed>18.46</speed>
  <fix>3d</fix>
</trkpt>
<trkpt lat="-27.2359836" lon="151.3886009">
  <ele>542.96</ele>
  <time>2026-09-01T20:00:51Z</time>
  <course>250.01</course>
  <speed>0.0</speed>
  <fix>3d</fix>
</trkpt>
<trkpt lat="-27.2377986" lon="151.3845682">
  <ele>518.78</ele>
  <time>2026-09-01T20:00:51Z</time>
  <course>157.18</course>
  <speed>18.46</speed>
  <fix>3d</fix>
</trkpt>
<trkpt lat="-27.2359837" lon="151.3886009">
  <ele>542.82</ele>
  <time>2026-09-01T20:00:51Z</time>
  <course>250.01</course>
  <speed>0.01</speed>
  <fix>3d</fix>
</trkpt>
<trkpt lat="-27.2368988" lon="151.3865882">
  <ele>530.57</ele>
  <time>2026-09-01T20:00:51Z</time>
  <course>156.47</course>
  <speed>9.42</speed>
  <fix>3d</fix>
</trkpt>
<trkpt lat="-27.2359837" lon="151.3886009">
  <ele>542.6</ele>
  <time>2026-09-01T20:00:51Z</time>
  <course>250.03</course>
  <speed>0.05830951894845301</speed>
  <fix>3d</fix>
</trkpt>
<trkpt lat="-27.2368988" lon="151.3865882">
  <ele>530.57</ele>
  <time>2026-09-01T20:00:51Z</time>
  <course>156.47</course>
  <speed>9.42</speed>
  <fix>3d</fix>
</trkpt>
<trkpt lat="-27.2359837" lon="151.3886008">
  <ele>542.28</ele>
  <time>2026-09-01T20:00:51Z</time>
  <course>250.68</course>
  <speed>0.13601470508735444</speed>
  <fix>3d</fix>
</trkpt>
<trkpt lat="-27.2359836" lon="151.3886009">
  <ele>542.78</ele>
  <time>2026-09-01T20:00:51Z</time>
  <course>242.63</course>
  <speed>0.03</speed>
  <fix>3d</fix>
</trkpt>
<trkpt lat="-27.2359837" lon="151.3886006">
  <ele>541.9</ele>
  <time>2026-09-01T20:00:51Z</time>
  <course>253.94</course>
  <speed>0.2863564212655271</speed>
  <fix>3d</fix>
</trkpt>
<trkpt lat="-27.2359836" lon="151.3886009">
  <ele>542.78</ele>
  <time>2026-09-01T20:00:51Z</time>
  <course>242.63</course>
  <speed>0.03</speed>
  <fix>3d</fix>
</trkpt>
<trkpt lat="-27.2359836" lon="151.3886001">
  <ele>541.45</ele>
  <time>2026-09-01T20:00:51Z</time>
  <course>263.54</course>
  <speed>0.46647615158762407</speed>
  <fix>3d</fix>
</trkpt>
<trkpt lat="-27.2359837" lon="151.3886007">
  <ele>542.26</ele>
  <time>2026-09-01T20:00:51Z</time>
  <course>275.85</course>
  <speed>0.16</speed>
  <fix>3d</fix>
</trkpt>
<trkpt lat="-27.2359835" lon="151.3885999">
  <ele>540.91</ele>
  <time>2026-09-01T20:00:51Z</time>
  <course>264.93</course>
  <speed>0.45803929962395146</speed>
  <fix>3d</fix>
</trkpt>
<trkpt lat="-27.2359837" lon="151.3886007">
  <ele>542.26</ele>
  <time>2026-09-01T20:00:51Z</time>
  <course>275.85</course>
  <speed>0.16</speed>
  <fix>3d</fix>
</trkpt>
<trkpt lat="-27.2359843" lon="151.3885996">
  <ele>540.34</ele>
  <time>2026-09-01T20:00:51Z</time>
  <course>252.23</course>
  <speed>1.7404597093871492</speed>
  <fix>3d</fix>
</trkpt>
<trkpt lat="-27.2359836" lon="151.3886002">
  <ele>541.43</ele>
  <time>2026-09-01T20:00:51Z</time>
  <course>255.91</course>
  <speed>0.34</speed>
  <fix>3d</fix>
</trkpt>
<trkpt lat="-27.2359864" lon="151.3885999">
  <ele>539.77</ele>
  <time>2026-09-01T20:00:51Z</time>
  <course>242.42</course>
  <speed>2.991070042643602</speed>
  <fix>3d</fix>
</trkpt>
<trkpt lat="-27.2359836" lon="151.3886002">
  <ele>541.43</ele>
  <time>2026-09-01T20:00:51Z</time>
  <course>255.91</course>
  <speed>0.34</speed>
  <fix>3d</fix>
</trkpt>
<trkpt lat="-27.2359896" lon="151.3886005">
  <ele>539.24</ele>
  <time>2026-09-01T20:00:51Z</time>
  <course>234.5</course>
  <speed>3.9537956446938427</speed>
  <fix>3d</fix>
</trkpt>
<trkpt lat="-27.2359849" lon="151.3885998">
  <ele>540.37</ele>
  <time>2026-09-01T20:00:51Z</time>
  <course>179.29</course>
  <speed>1.57</speed>
  <fix>3d</fix>
</trkpt>
<trkpt lat="-27.2359933" lon="151.3886015">
  <ele>538.77</ele>
  <time>2026-09-01T20:00:51Z</time>
  <course>227.59</course>
  <speed>4.678504034411</speed>
  <fix>3d</fix>
</trkpt>
<trkpt lat="-27.2359849" lon="151.3885998">
  <ele>540.37</ele>
  <time>2026-09-01T20:00:51Z</time>
  <course>179.29</course>
  <speed>1.57</speed>
  <fix>3d</fix>
</trkpt>
<trkpt lat="-27.2359977" lon="151.388603">
  <ele>538.37</ele>
  <time>2026-09-01T20:00:51Z</time>
  <course>221.75</course>
  <speed>5.491675518455183</speed>
  <fix>3d</fix>
</trkpt>
<trkpt lat="-27.2359897" lon="151.3886006">
  <ele>539.29</ele>
  <time>2026-09-01T20:00:51Z</time>
  <course>167.17</course>
  <speed>3.79</speed>
  <fix>3d</fix>
</trkpt>
<trkpt lat="-27.2360027" lon="151.3886045">
  <ele>538.07</ele>
  <time>2026-09-01T20:00:51Z</time>
  <course>217.21</course>
  <speed>6.039751650523389</speed>
  <fix>3d</fix>
</trkpt>
<trkpt lat="-27.2359897" lon="151.3886006">
  <ele>539.29</ele>
  <time>2026-09-01T20:00:51Z</time>
  <course>167.17</course>
  <speed>3.79</speed>
  <fix>3d</fix>
</trkpt>
<trkpt lat="-27.2360081" lon="151.3886063">
  <ele>537.85</ele>
  <time>2026-09-01T20:00:51Z</time>
  <course>213.61</course>
  <speed>6.379749211371871</speed>
  <fix>3d</fix>
</trkpt>
<trkpt lat="-27.2359978" lon="151.388603">
  <ele>538.44</ele>
  <time>2026-09-01T20:00:51Z</time>
  <course>164.11</course>
  <speed>5.33</speed>
  <fix>3d</fix>
</trkpt>
<trkpt lat="-27.2360138" lon="151.3886078">
  <ele>537.69</ele>
  <time>2026-09-01T20:00:51Z</time>
  <course>210.9</course>
  <speed>6.572952152571933</speed>
  <fix>3d</fix>
</trkpt>
<trkpt lat="-27.2359978" lon="151.388603">
  <ele>538.44</ele>
  <time>2026-09-01T20:00:51Z</time>
  <course>164.11</course>
  <speed>5.33</speed>
  <fix>3d</fix>
</trkpt>
<trkpt lat="-27.2360196" lon="151.3886094">
  <ele>537.59</ele>
  <time>2026-09-01T20:00:51Z</time>
  <course>209.38</course>
  <speed>6.62323938869795</speed>
  <fix>3d</fix>
</trkpt>
<trkpt lat="-27.236008" lon="151.3886061">
  <ele>537.89</ele>
  <time>2026-09-01T20:00:51Z</time>
  <course>165.25</course>
  <speed>6.29</speed>
  <fix>3d</fix>
</trkpt>
<trkpt lat="-27.2360254" lon="151.3886106">
  <ele>537.56</ele>
  <time>2026-09-01T20:00:51Z</time>
  <course>208.86</course>
  <speed>6.572343569838691</speed>
  <fix>3d</fix>
</trkpt>
<trkpt lat="-27.236008" lon="151.3886061">
  <ele>537.89</ele>
  <time>2026-09-01T20:00:51Z</time>
  <course>165.25</course>
  <speed>6.29</speed>
  <fix>3d</fix>
</trkpt>
<trkpt lat="-27.2360312" lon="151.3886119">
  <ele>537.58</ele>
  <time>2026-09-01T20:00:51Z</time>
  <course>208.88</course>
  <speed>6.462584622269947</speed>
  <fix>3d</fix>
</trkpt>
<trkpt lat="-27.2360193" lon="151.3886092">
  <ele>537.62</ele>
  <time>2026-09-01T20:00:51Z</time>
  <course>167.83</course>
  <speed>6.57</speed>
  <fix>3d</fix>
</trkpt>
<trkpt lat="-27.2360368" lon="151.3886129">
  <ele>537.65</ele>
  <time>2026-09-01T20:00:51Z</time>
  <course>209.07</course>
  <speed>6.340954186871247</speed>
  <fix>3d</fix>
</trkpt>
<trkpt lat="-27.2360193" lon="151.3886092">
  <ele>537.62</ele>
  <time>2026-09-01T20:00:51Z</time>
  <course>167.83</course>
  <speed>6.57</speed>
  <fix>3d</fix>
</trkpt>
<trkpt lat="-27.2360424" lon="151.3886139">
  <ele>537.75</ele>
  <time>2026-09-01T20:00:51Z</time>
  <course>209.35</course>
  <speed>6.24423734334306</speed>
  <fix>3d</fix>
</trkpt>
<trkpt lat="-27.2360309" lon="151.3886117">
  <ele>537.6</ele>
  <time>2026-09-01T20:00:51Z</time>
  <course>170.03</course>
  <speed>6.46</speed>
  <fix>3d</fix>
</trkpt>
<trkpt lat="-27.2360479" lon="151.3886149">
  <ele>537.89</ele>
  <time>2026-09-01T20:00:51Z</time>
  <course>209.72</course>
  <speed>6.177394272668695</speed>
  <fix>3d</fix>
</trkpt>
<trkpt lat="-27.2360309" lon="151.3886117">
  <ele>537.6</ele>
  <time>2026-09-01T20:00:51Z</time>
  <course>170.03</course>
  <speed>6.46</speed>
  <fix>3d</fix>
</trkpt>
<trkpt lat="-27.2360534" lon="151.3886158">
  <ele>538.04</ele>
  <time>2026-09-01T20:00:51Z</time>
  <course>210.11</course>
  <speed>6.140521150521347</speed>
  <fix>3d</fix>
</trkpt>
<trkpt lat="-27.2360421" lon="151.3886138">
  <ele>537.76</ele>
  <time>2026-09-01T20:00:51Z</time>
  <course>171.13</course>
  <speed>6.26</speed>
  <fix>3d</fix>
</trkpt>
<trkpt lat="-27.2360589" lon="151.3886166">
  <ele>538.22</ele>
  <time>2026-09-01T20:00:51Z</time>
  <course>210.5</course>
  <speed>6.112577197876522</speed>
  <fix>3d</fix>
</trkpt>
<trkpt lat="-27.2360421" lon="151.3886138">
  <ele>537.76</ele>
  <time>2026-09-01T20:00:51Z</time>
  <course>171.13</course>
  <speed>6.26</speed>
  <fix>3d</fix>
</trkpt>
<trkpt lat="-27.2360643" lon="151.3886173">
  <ele>538.41</ele>
  <time>2026-09-01T20:00:51Z</time>
  <course>210.88</course>
  <speed>6.096310359553555</speed>
  <fix>3d</fix>
</trkpt>
<trkpt lat="-27.2360531" lon="151.3886157">
  <ele>538.04</ele>
  <time>2026-09-01T20:00:51Z</time>
  <course>171.92</course>
  <speed>6.15</speed>
  <fix>3d</fix>
</trkpt>
<trkpt lat="-27.2360697" lon="151.3886181">
  <ele>538.61</ele>
  <time>2026-09-01T20:00:51Z</time>
  <course>211.24</course>
  <speed>6.079284497373026</speed>
  <fix>3d</fix>
</trkpt>
<trkpt lat="-27.2360531" lon="151.3886157">
  <ele>538.04</ele>
  <time>2026-09-01T20:00:51Z</time>
  <course>171.92</course>
  <speed>6.15</speed>
  <fix>3d</fix>
</trkpt>
<trkpt lat="-27.2360752" lon="151.3886188">
  <ele>538.83</ele>
  <time>2026-09-01T20:00:51Z</time>
  <course>211.58</course>
  <speed>6.072767079346943</speed>
  <fix>3d</fix>
</trkpt>
<trkpt lat="-27.236064" lon="151.3886173">
  <ele>538.4</ele>
  <time>2026-09-01T20:00:51Z</time>
  <course>172.9</course>
  <speed>6.1</speed>
  <fix>3d</fix>
</trkpt>
<trkpt lat="-27.2360806" lon="151.3886193">
  <ele>539.07</ele>
  <time>2026-09-01T20:00:51Z</time>
  <course>211.91</course>
  <speed>6.0659047140554385</speed>
  <fix>3d</fix>
</trkpt>
<trkpt lat="-27.236064" lon="151.3886173">
  <ele>538.4</ele>
  <time>2026-09-01T20:00:51Z</time>
  <course>172.9</course>
  <speed>6.1</speed>
  <fix>3d</fix>
</trkpt>
<trkpt lat="-27.236086" lon="151.3886198">
  <ele>539.31</ele>
  <time>2026-09-01T20:00:51Z</time>
  <course>212.21</course>
  <speed>6.0598432322957</speed>
  <fix>3d</fix>
</trkpt>
<trkpt lat="-27.2360749" lon="151.3886187">
  <ele>538.82</ele>
  <time>2026-09-01T20:00:51Z</time>
  <course>174.0</course>
  <speed>6.07</speed>
  <fix>3d</fix>
</trkpt>
<trkpt lat="-27.2360914" lon="151.3886203">
  <ele>539.57</ele>
  <time>2026-09-01T20:00:51Z</time>
  <course>212.48</course>
  <speed>6.054585039455635</speed>
  <fix>3d</fix>
</trkpt>
<trkpt lat="-27.2360749" lon="151.3886187">
  <ele>538.82</ele>
  <time>2026-09-01T20:00:51Z</time>
  <course>174.0</course>
  <speed>6.07</speed>
  <fix>3d</fix>
</trkpt>
<trkpt lat="-27.2360969" lon="151.3886207">
  <ele>539.83</ele>
  <time>2026-09-01T20:00:51Z</time>
  <course>212.76</course>
  <speed>6.050132229959937</speed>
  <fix>3d</fix>
</trkpt>
<trkpt lat="-27.2360858" lon="151.3886198">
  <ele>539.31</ele>
  <time>2026-09-01T20:00:51Z</time>
  <course>175.25</course>
  <speed>6.06</speed>
  <fix>3d</fix>
</trkpt>
<trkpt lat="-27.2361023" lon="151.3886211">
  <ele>540.1</ele>
  <time>2026-09-01T20:00:51Z</time>
  <course>213.03</course>
  <speed>6.056021796526165</speed>
  <fix>3d</fix>
</trkpt>
<trkpt lat="-27.2360858" lon="151.3886198">
  <ele>539.31</ele>
  <time>2026-09-01T20:00:51Z</time>
  <course>175.25</course>
  <speed>6.06</speed>
  <fix>3d</fix>
</trkpt>
<trkpt lat="-27.2361078" lon="151.3886214">
  <ele>540.38</ele>
  <time>2026-09-01T20:00:51Z</time>
  <course>213.32</course>
  <speed>6.053304882458837</speed>
  <fix>3d</fix>
</trkpt>
<trkpt lat="-27.2360966" lon="151.3886207">
  <ele>539.82</ele>
  <time>2026-09-01T20:00:51Z</time>
  <course>176.63</course>
  <speed>6.05</speed>
  <fix>3d</fix>
</trkpt>
<trkpt lat="-27.2361132" lon="151.3886215">
  <ele>540.66</ele>
  <time>2026-09-01T20:00:51Z</time>
  <course>213.62</course>
  <speed>6.051189965618332</speed>
  <fix>3d</fix>
</trkpt>
<trkpt lat="-27.2360966" lon="151.3886207">
  <ele>539.82</ele>
  <time>2026-09-01T20:00:51Z</time>
  <course>176.63</course>
  <speed>6.05</speed>
  <fix>3d</fix>
</trkpt>
<trkpt lat="-27.2361186" lon="151.3886216">
  <ele>540.94</ele>
  <time>2026-09-01T20:00:51Z</time>
  <course>213.93</course>
  <speed>6.06013201176344</speed>
  <fix>3d</fix>
</trkpt>
<trkpt lat="-27.2361075" lon="151.3886213">
  <ele>540.37</ele>
  <time>2026-09-01T20:00:51Z</time>
  <course>178.07</course>
  <speed>6.05</speed>
  <fix>3d</fix>
</trkpt>
<trkpt lat="-27.2361241" lon="151.3886216">
  <ele>541.22</ele>
  <time>2026-09-01T20:00:51Z</time>
  <course>214.26</course>
  <speed>6.0600742569707835</speed>
  <fix>3d</fix>
</trkpt>
<trkpt lat="-27.2361075" lon="151.3886213">
  <ele>540.37</ele>
  <time>2026-09-01T20:00:51Z</time>
  <course>178.07</course>
  <speed>6.05</speed>
  <fix>3d</fix>
</trkpt>
<trkpt lat="-27.2361294" lon="151.3886215">
  <ele>541.51</ele>
  <time>2026-09-01T20:00:51Z</time>
  <course>214.6</course>
  <speed>6.070996623290117</speed>
  <fix>3d</fix>
</trkpt>
<trkpt lat="-27.2361184" lon="151.3886215">
  <ele>540.93</ele>
  <time>2026-09-01T20:00:51Z</time>
  <course>179.55</course>
  <speed>6.06</speed>
  <fix>3d</fix>
</trkpt>
<trkpt lat="-27.236135" lon="151.3886214">
  <ele>541.79</ele>
  <time>2026-09-01T20:00:51Z</time>
  <course>214.96</course>
  <speed>6.072972912832726</speed>
  <fix>3d</fix>
</trkpt>
<trkpt lat="-27.2361184" lon="151.3886215">
  <ele>540.93</ele>
  <time>2026-09-01T20:00:51Z</time>
  <course>179.55</course>
  <speed>6.06</speed>
  <fix>3d</fix>
</trkpt>
<trkpt lat="-27.2361405" lon="151.3886212">
  <ele>542.07</ele>
  <time>2026-09-01T20:00:51Z</time>
  <course>215.33</course>
  <speed>6.076001974983221</speed>
  <fix>3d</fix>
</trkpt>
<trkpt lat="-27.2361293" lon="151.3886215">
  <ele>541.49</ele>
  <time>2026-09-01T20:00:51Z</time>
  <course>181.05</course>
  <speed>6.07</speed>
  <fix>3d</fix>
</trkpt>
<trkpt lat="-27.2361459" lon="151.3886209">
  <ele>542.35</ele>
  <time>2026-09-01T20:00:51Z</time>
  <course>215.71</course>
  <speed>6.0800822362859535</speed>
  <fix>3d</fix>
</trkpt>
<trkpt lat="-27.2361293" lon="151.3886215">
  <ele>541.49</ele>
  <time>2026-09-01T20:00:51Z</time>
  <course>181.05</course>
  <speed>6.07</speed>
  <fix>3d</fix>
</trkpt>
<trkpt lat="-27.2361514" lon="151.3886205">
  <ele>542.62</ele>
  <time>2026-09-01T20:00:51Z</time>
  <course>216.1</course>
  <speed>6.074537019394976</speed>
  <fix>3d</fix>
</trkpt>
<trkpt lat="-27.2361402" lon="151.3886211">
  <ele>542.06</ele>
  <time>2026-09-01T20:00:51Z</time>
  <course>182.54</course>
  <speed>6.08</speed>
  <fix>3d</fix>
</trkpt>
<trkpt lat="-27.2361568" lon="151.3886201">
  <ele>542.89</ele>
  <time>2026-09-01T20:00:51Z</time>
  <course>216.52</course>
  <speed>6.0598432322957</speed>
  <fix>3d</fix>
</trkpt>
<trkpt lat="-27.2361402" lon="151.3886211">
  <ele>542.06</ele>
  <time>2026-09-01T20:00:51Z</time>
  <course>182.54</course>
  <speed>6.08</speed>
  <fix>3d</fix>
</trkpt>
<trkpt lat="-27.2361622" lon="151.3886195">
  <ele>543.16</ele>
  <time>2026-09-01T20:00:51Z</time>
  <course>216.97</course>
  <speed>6.0342108017536145</speed>
  <fix>3d</fix>
</trkpt>
<trkpt lat="-27.2361511" lon="151.3886205">
  <ele>542.61</ele>
  <time>2026-09-01T20:00:51Z</time>
  <course>183.95</course>
  <speed>6.07</speed>
  <fix>3d</fix>
</trkpt>
<trkpt lat="-27.2361676" lon="151.388619">
  <ele>543.41</ele>
  <time>2026-09-01T20:00:51Z</time>
  <course>217.44</course>
  <speed>5.989131823561743</speed>
  <fix>3d</fix>
</trkpt>
<trkpt lat="-27.2361511" lon="151.3886205">
  <ele>542.61</ele>
  <time>2026-09-01T20:00:51Z</time>
  <course>183.95</course>
  <speed>6.07</speed>
  <fix>3d</fix>
</trkpt>
<trkpt lat="-27.236173" lon="151.3886183">
  <ele>543.68</ele>
  <time>2026-09-01T20:00:51Z</time>
  <course>217.95</course>
  <speed>5.943483826847685</speed>
  <fix>3d</fix>
</trkpt>
<trkpt lat="-27.236162" lon="151.3886195">
  <ele>543.14</ele>
  <time>2026-09-01T20:00:51Z</time>
  <course>185.15</course>
  <speed>6.03</speed>
  <fix>3d</fix>
</trkpt>
<trkpt lat="-27.2361782" lon="151.3886177">
  <ele>543.94</ele>
  <time>2026-09-01T20:00:51Z</time>
  <course>218.48</course>
  <speed>5.866123080877181</speed>
  <fix>3d</fix>
</trkpt>
<trkpt lat="-27.236162" lon="151.3886195">
  <ele>543.14</ele>
  <time>2026-09-01T20:00:51Z</time>
  <course>185.15</course>
  <speed>6.03</speed>
  <fix>3d</fix>
</trkpt>
<trkpt lat="-27.2361834" lon="151.3886169">
  <ele>544.2</ele>
  <time>2026-09-01T20:00:51Z</time>
  <course>219.03</course>
  <speed>5.778970496550402</speed>
  <fix>3d</fix>
</trkpt>
<trkpt lat="-27.2361727" lon="151.3886183">
  <ele>543.67</ele>
  <time>2026-09-01T20:00:51Z</time>
  <course>186.04</course>
  <speed>5.93</speed>
  <fix>3d</fix>
</trkpt>
<trkpt lat="-27.2361885" lon="151.3886163">
  <ele>544.46</ele>
  <time>2026-09-01T20:00:51Z</time>
  <course>219.6</course>
  <speed>5.670917033425899</speed>
  <fix>3d</fix>
</trkpt>
<trkpt lat="-27.2361727" lon="151.3886183">
  <ele>543.67</ele>
  <time>2026-09-01T20:00:51Z</time>
  <course>186.04</course>
  <speed>5.93</speed>
  <fix>3d</fix>
</trkpt>
<trkpt lat="-27.2361935" lon="151.3886157">
  <ele>544.72</ele>
  <time>2026-09-01T20:00:51Z</time>
  <course>220.21</course>
  <speed>5.540658805593429</speed>
  <fix>3d</fix>
</trkpt>
<trkpt lat="-27.2361831" lon="151.388617">
  <ele>544.19</ele>
  <time>2026-09-01T20:00:51Z</time>
  <course>186.64</course>
  <speed>5.77</speed>
  <fix>3d</fix>
</trkpt>
<trkpt lat="-27.2361984" lon="151.3886149">
  <ele>544.98</ele>
  <time>2026-09-01T20:00:51Z</time>
  <course>220.83</course>
  <speed>5.400481460018171</speed>
  <fix>3d</fix>
</trkpt>
<trkpt lat="-27.2361831" lon="151.388617">
  <ele>544.19</ele>
  <time>2026-09-01T20:00:51Z</time>
  <course>186.64</course>
  <speed>5.77</speed>
  <fix>3d</fix>
</trkpt>
<trkpt lat="-27.2362032" lon="151.3886143">
  <ele>545.23</ele>
  <time>2026-09-01T20:00:51Z</time>
  <course>221.49</course>
  <speed>5.22062256823839</speed>
  <fix>3d</fix>
</trkpt>
<trkpt lat="-27.2361932" lon="151.3886157">
  <ele>544.7</ele>
  <time>2026-09-01T20:00:51Z</time>
  <course>186.98</course>
  <speed>5.54</speed>
  <fix>3d</fix>
</trkpt>
<trkpt lat="-27.2362077" lon="151.3886136">
  <ele>545.49</ele>
  <time>2026-09-01T20:00:51Z</time>
  <course>222.19</course>
  <speed>5.018445974602098</speed>
  <fix>3d</fix>
</trkpt>
<trkpt lat="-27.2361932" lon="151.3886157">
  <ele>544.7</ele>
  <time>2026-09-01T20:00:51Z</time>
  <course>186.98</course>
  <speed>5.54</speed>
  <fix>3d</fix>
</trkpt>
<trkpt lat="-27.2362121" lon="151.388613">
  <ele>545.76</ele>
  <time>2026-09-01T20:00:51Z</time>
  <course>222.94</course>
  <speed>4.786501854172837</speed>
  <fix>3d</fix>
</trkpt>
<trkpt lat="-27.2362029" lon="151.3886143">
  <ele>545.22</ele>
  <time>2026-09-01T20:00:51Z</time>
  <course>187.13</course>
  <speed>5.22</speed>
  <fix>3d</fix>
</trkpt>
<trkpt lat="-27.2362163" lon="151.3886124">
  <ele>546.02</ele>
  <time>2026-09-01T20:00:51Z</time>
  <course>223.74</course>
  <speed>4.526035793053342</speed>
  <fix>3d</fix>
</trkpt>
<trkpt lat="-27.2362029" lon="151.3886143">
  <ele>545.22</ele>
  <time>2026-09-01T20:00:51Z</time>
  <course>187.13</course>
  <speed>5.22</speed>
  <fix>3d</fix>
</trkpt>
<trkpt lat="-27.2362202" lon="151.3886119">
  <ele>546.28</ele>
  <time>2026-09-01T20:00:51Z</time>
  <course>224.6</course>
  <speed>4.244490546579177</speed>
  <fix>3d</fix>
</trkpt>
<trkpt lat="-27.2362118" lon="151.388613">
  <ele>545.74</ele>
  <time>2026-09-01T20:00:51Z</time>
  <course>187.2</course>
  <speed>4.78</speed>
  <fix>3d</fix>
</trkpt>
<trkpt lat="-27.2362238" lon="151.3886114">
  <ele>546.55</ele>
  <time>2026-09-01T20:00:51Z</time>
  <course>225.54</course>
  <speed>3.933204800159788</speed>
  <fix>3d</fix>
</trkpt>
<trkpt lat="-27.2362118" lon="151.388613">
  <ele>545.74</ele>
  <time>2026-09-01T20:00:51Z</time>
  <course>187.2</course>
  <speed>4.78</speed>
  <fix>3d</fix>
</trkpt>
<trkpt lat="-27.2362272" lon="151.3886109">
  <ele>546.81</ele>
  <time>2026-09-01T20:00:51Z</time>
  <course>226.54</course>
  <speed>3.600805465447974</speed>
  <fix>3d</fix>
</trkpt>
<trkpt lat="-27.2362199" lon="151.3886119">
  <ele>546.27</ele>
  <time>2026-09-01T20:00:51Z</time>
  <course>187.33</course>
  <speed>4.24</speed>
  <fix>3d</fix>
</trkpt>
<trkpt lat="-27.2362302" lon="151.3886104">
  <ele>547.08</ele>
  <time>2026-09-01T20:00:51Z</time>
  <course>227.57</course>
  <speed>3.249923076012723</speed>
  <fix>3d</fix>
</trkpt>
<trkpt lat="-27.2362199" lon="151.3886119">
  <ele>546.27</ele>
  <time>2026-09-01T20:00:51Z</time>
  <course>187.33</course>
  <speed>4.24</speed>
  <fix>3d</fix>
</trkpt>
<trkpt lat="-27.236233" lon="151.38861">
  <ele>547.34</ele>
  <time>2026-09-01T20:00:51Z</time>
  <course>228.6</course>
  <speed>2.887836560472216</speed>
  <fix>3d</fix>
</trkpt>
<trkpt lat="-27.2362269" lon="151.3886109">
  <ele>546.8</ele>
  <time>2026-09-01T20:00:51Z</time>
  <course>187.6</course>
  <speed>3.6</speed>
  <fix>3d</fix>
</trkpt>
<trkpt lat="-27.2362354" lon="151.3886096">
  <ele>547.6</ele>
  <time>2026-09-01T20:00:51Z</time>
  <course>229.6</course>
  <speed>2.5257870060636547</speed>
  <fix>3d</fix>
</trkpt>
<trkpt lat="-27.2362269" lon="151.3886109">
  <ele>546.8</ele>
  <time>2026-09-01T20:00:51Z</time>
  <course>187.6</course>
  <speed>3.6</speed>
  <fix>3d</fix>
</trkpt>
<trkpt lat="-27.2362375" lon="151.3886092">
  <ele>547.87</ele>
  <time>2026-09-01T20:00:51Z</time>
  <course>230.57</course>
  <speed>2.163792966066763</speed>
  <fix>3d</fix>
</trkpt>
<trkpt lat="-27.2362327" lon="151.38861">
  <ele>547.33</ele>
  <time>2026-09-01T20:00:51Z</time>
  <course>188.0</course>
  <speed>2.9</speed>
  <fix>3d</fix>
</trkpt>
<trkpt lat="-27.2362392" lon="151.3886088">
  <ele>548.13</ele>
  <time>2026-09-01T20:00:51Z</time>
  <course>231.47</course>
  <speed>1.8133394607739612</speed>
  <fix>3d</fix>
</trkpt>
<trkpt lat="-27.2362327" lon="151.38861">
  <ele>547.33</ele>
  <time>2026-09-01T20:00:51Z</time>
  <course>188.0</course>
  <speed>2.9</speed>
  <fix>3d</fix>
</trkpt>
<trkpt lat="-27.2362407" lon="151.3886086">
  <ele>548.38</ele>
  <time>2026-09-01T20:00:51Z</time>
  <course>232.27</course>
  <speed>1.4713938969562161</speed>
  <fix>3d</fix>
</trkpt>
<trkpt lat="-27.2362372" lon="151.3886092">
  <ele>547.86</ele>
  <time>2026-09-01T20:00:51Z</time>
  <course>188.66</course>
  <speed>2.18</speed>
  <fix>3d</fix>
</trkpt>
<trkpt lat="-27.236242" lon="151.3886083">
  <ele>548.59</ele>
  <time>2026-09-01T20:00:51Z</time>
  <course>232.84</course>
  <speed>1.46696966567138</speed>
  <fix>3d</fix>
</trkpt>
<trkpt lat="-27.2362372" lon="151.3886092">
  <ele>547.86</ele>
  <time>2026-09-01T20:00:51Z</time>
  <course>188.66</course>
  <speed>2.18</speed>
  <fix>3d</fix>
</trkpt>
<trkpt lat="-27.2362433" lon="151.3886081">
  <ele>548.7</ele>
  <time>2026-09-01T20:00:51Z</time>
  <course>233.12</course>
  <speed>1.468911161370898</speed>
  <fix>3d</fix>
</trkpt>
<trkpt lat="-27.2362405" lon="151.3886086">
  <ele>548.35</ele>
  <time>2026-09-01T20:00:51Z</time>
  <course>190.02</course>
  <speed>1.64</speed>
  <fix>3d</fix>
</trkpt>
<trkpt lat="-27.2362446" lon="151.3886078">
  <ele>548.71</ele>
  <time>2026-09-01T20:00:51Z</time>
  <course>233.22</course>
  <speed>1.4611296999240004</speed>
  <fix>3d</fix>
</trkpt>
<trkpt lat="-27.2362405" lon="151.3886086">
  <ele>548.35</ele>
  <time>2026-09-01T20:00:51Z</time>
  <course>190.02</course>
  <speed>1.64</speed>
  <fix>3d</fix>
</trkpt>
<trkpt lat="-27.2362458" lon="151.3886075">
  <ele>548.62</ele>
  <time>2026-09-01T20:00:51Z</time>
  <course>233.13</course>
  <speed>1.4297202523570827</speed>
  <fix>3d</fix>
</trkpt>
<trkpt lat="-27.2362431" lon="151.3886081">
  <ele>548.65</ele>
  <time>2026-09-01T20:00:51Z</time>
  <course>191.45</course>
  <speed>1.46</speed>
  <fix>3d</fix>
</trkpt>
<trkpt lat="-27.2362471" lon="151.3886072">
  <ele>548.44</ele>
  <time>2026-09-01T20:00:51Z</time>
  <course>232.73</course>
  <speed>1.3689411966918081</speed>
  <fix>3d</fix>
</trkpt>
<trkpt lat="-27.2362431" lon="151.3886081">
  <ele>548.65</ele>
  <time>2026-09-01T20:00:51Z</time>
  <course>191.45</course>
  <speed>1.46</speed>
  <fix>3d</fix>
</trkpt>
<trkpt lat="-27.2362482" lon="151.3886068">
  <ele>548.18</ele>
  <time>2026-09-01T20:00:51Z</time>
  <course>231.82</course>
  <speed>1.2712198865656563</speed>
  <fix>3d</fix>
</trkpt>
<trkpt lat="-27.2362457" lon="151.3886074">
  <ele>548.58</ele>
  <time>2026-09-01T20:00:51Z</time>
  <course>191.96</course>
  <speed>1.41</speed>
  <fix>3d</fix>
</trkpt>
<trkpt lat="-27.2362493" lon="151.3886066">
  <ele>547.85</ele>
  <time>2026-09-01T20:00:51Z</time>
  <course>230.49</course>
  <speed>1.1835962149314267</speed>
  <fix>3d</fix>
</trkpt>
<trkpt lat="-27.2362457" lon="151.3886074">
  <ele>548.58</ele>
  <time>2026-09-01T20:00:51Z</time>
  <course>191.96</course>
  <speed>1.41</speed>
  <fix>3d</fix>
</trkpt>
<trkpt lat="-27.2362503" lon="151.3886063">
  <ele>547.46</ele>
  <time>2026-09-01T20:00:51Z</time>
  <course>229.18</course>
  <speed>1.0963576058932596</speed>
  <fix>3d</fix>
</trkpt>
<trkpt lat="-27.2362481" lon="151.3886069">
  <ele>548.16</ele>
  <time>2026-09-01T20:00:51Z</time>
  <course>192.87</course>
  <speed>1.28</speed>
  <fix>3d</fix>
</trkpt>
<trkpt lat="-27.2362512" lon="151.3886059">
  <ele>547.03</ele>
  <time>2026-09-01T20:00:51Z</time>
  <course>228.08</course>
  <speed>1.0220078277586722</speed>
  <fix>3d</fix>
</trkpt>
<trkpt lat="-27.2362481" lon="151.3886069">
  <ele>548.16</ele>
  <time>2026-09-01T20:00:51Z</time>
  <course>192.87</course>
  <speed>1.28</speed>
  <fix>3d</fix>
</trkpt>
<trkpt lat="-27.2362521" lon="151.3886057">
  <ele>546.54</ele>
  <time>2026-09-01T20:00:51Z</time>
  <course>227.13</course>
  <speed>0.9679876032264049</speed>
  <fix>3d</fix>
</trkpt>
<trkpt lat="-27.2362502" lon="151.3886063">
  <ele>547.45</ele>
  <time>2026-09-01T20:00:51Z</time>
  <course>195.11</course>
  <speed>1.1</speed>
  <fix>3d</fix>
</trkpt>
<trkpt lat="-27.2362529" lon="151.3886053">
  <ele>546.01</ele>
  <time>2026-09-01T20:00:51Z</time>
  <course>226.27</course>
  <speed>0.9757561170702442</speed>
  <fix>3d</fix>
</trkpt>
<trkpt lat="-27.2362502" lon="151.3886063">
  <ele>547.45</ele>
  <time>2026-09-01T20:00:51Z</time>
  <course>195.11</course>
  <speed>1.1</speed>
  <fix>3d</fix>
</trkpt>
<trkpt lat="-27.2362537" lon="151.3886049">
  <ele>545.43</ele>
  <time>2026-09-01T20:00:51Z</time>
  <course>225.46</course>
  <speed>1.0247438704378766</speed>
  <fix>3d</fix>
</trkpt>
<trkpt lat="-27.236252" lon="151.3886056">
  <ele>546.54</ele>
  <time>2026-09-01T20:00:51Z</time>
  <course>200.3</course>
  <speed>1.0</speed>
  <fix>3d</fix>
</trkpt>
<trkpt lat="-27.2362545" lon="151.3886043">
  <ele>544.79</ele>
  <time>2026-09-01T20:00:51Z</time>
  <course>224.67</course>
  <speed>1.0960383204979651</speed>
  <fix>3d</fix>
</trkpt>
<trkpt lat="-27.236252" lon="151.3886056">
  <ele>546.54</ele>
  <time>2026-09-01T20:00:51Z</time>
  <course>200.3</course>
  <speed>1.0</speed>
  <fix>3d</fix>
</trkpt>
<trkpt lat="-27.2362554" lon="151.3886037">
  <ele>544.08</ele>
  <time>2026-09-01T20:00:51Z</time>
  <course>223.87</course>
  <speed>1.4</speed>
  <fix>3d</fix>
</trkpt>
<trkpt lat="-27.2362537" lon="151.3886049">
  <ele>545.43</ele>
  <time>2026-09-01T20:00:51Z</time>
  <course>208.3</course>
  <speed>1.03</speed>
  <fix>3d</fix>
</trkpt>
<trkpt lat="-27.2362567" lon="151.3886025">
  <ele>543.31</ele>
  <time>2026-09-01T20:00:51Z</time>
  <course>222.45</course>
  <speed>2.174143509522773</speed>
  <fix>3d</fix>
</trkpt>
<trkpt lat="-27.2362537" lon="151.3886049">
  <ele>545.43</ele>
  <time>2026-09-01T20:00:51Z</time>
  <course>208.3</course>
  <speed>1.03</speed>
  <fix>3d</fix>
</trkpt>
<trkpt lat="-27.2362582" lon="151.3886009">
  <ele>542.47</ele>
  <time>2026-09-01T20:00:51Z</time>
  <course>219.71</course>
  <speed>2.4983394485137524</speed>
  <fix>3d</fix>
</trkpt>
<trkpt lat="-27.2362555" lon="151.3886034">
  <ele>544.08</ele>
  <time>2026-09-01T20:00:51Z</time>
  <course>218.37</course>
  <speed>1.62</speed>
  <fix>3d</fix>
</trkpt>
<trkpt lat="-27.2362599" lon="151.3885991">
  <ele>541.53</ele>
  <time>2026-09-01T20:00:51Z</time>
  <course>214.34</course>
  <speed>2.4344609259546557</speed>
  <fix>3d</fix>
</trkpt>
<trkpt lat="-27.2362555" lon="151.3886034">
  <ele>544.08</ele>
  <time>2026-09-01T20:00:51Z</time>
  <course>218.37</course>
  <speed>1.62</speed>
  <fix>3d</fix>
</trkpt>
<trkpt lat="-27.2362614" lon="151.3885976">
  <ele>540.5</ele>
  <time>2026-09-01T20:00:51Z</time>
  <course>209.12</course>
  <speed>2.201022489662475</speed>
  <fix>3d</fix>
</trkpt>
<trkpt lat="-27.2362582" lon="151.3886008">
  <ele>542.45</ele>
  <time>2026-09-01T20:00:51Z</time>
  <course>222.18</course>
  <speed>2.3</speed>
  <fix>3d</fix>
</trkpt>
<trkpt lat="-27.2362628" lon="151.3885961">
  <ele>539.37</ele>
  <time>2026-09-01T20:00:51Z</time>
  <course>210.74</course>
  <speed>2.1371476317746514</speed>
  <fix>3d</fix>
</trkpt>
<trkpt lat="-27.2362582" lon="151.3886008">
  <ele>542.45</ele>
  <time>2026-09-01T20:00:51Z</time>
  <course>222.18</course>
  <speed>2.3</speed>
  <fix>3d</fix>
</trkpt>
<trkpt lat="-27.2362644" lon="151.3885944">
  <ele>538.16</ele>
  <time>2026-09-01T20:00:51Z</time>
  <course>211.65</course>
  <speed>2.4996999819978396</speed>
  <fix>3d</fix>
</trkpt>
<trkpt lat="-27.2362613" lon="151.3885976">
  <ele>540.48</ele>
  <time>2026-09-01T20:00:51Z</time>
  <course>222.75</course>
  <speed>2.29</speed>
  <fix>3d</fix>
</trkpt>
<trkpt lat="-27.2362663" lon="151.3885925">
  <ele>536.87</ele>
  <time>2026-09-01T20:00:51Z</time>
  <course>211.16</course>
  <speed>3.3751592555018792</speed>
  <fix>3d</fix>
</trkpt>
<trkpt lat="-27.2362613" lon="151.3885976">
  <ele>540.48</ele>
  <time>2026-09-01T20:00:51Z</time>
  <course>222.75</course>
  <speed>2.29</speed>
  <fix>3d</fix>
</trkpt>
<trkpt lat="-27.2362692" lon="151.38859">
  <ele>535.53</ele>
  <time>2026-09-01T20:00:51Z</time>
  <course>210.63</course>
  <speed>4.614249668147575</speed>
  <fix>3d</fix>
</trkpt>
<trkpt lat="-27.2362645" lon="151.3885944">
  <ele>538.16</ele>
  <time>2026-09-01T20:00:51Z</time>
  <course>220.81</course>
  <speed>2.73</speed>
  <fix>3d</fix>
</trkpt>
<trkpt lat="-27.2362731" lon="151.3885871">
  <ele>534.16</ele>
  <time>2026-09-01T20:00:51Z</time>
  <course>210.56</course>
  <speed>5.9713482564660385</speed>
  <fix>3d</fix>
</trkpt>
<trkpt lat="-27.2362645" lon="151.3885944">
  <ele>538.16</ele>
  <time>2026-09-01T20:00:51Z</time>
  <course>220.81</course>
  <speed>2.73</speed>
  <fix>3d</fix>
</trkpt>
<trkpt lat="-27.2362781" lon="151.3885834">
  <ele>532.77</ele>
  <time>2026-09-01T20:00:51Z</time>
  <course>210.92</course>
  <speed>7.298116195293139</speed>
  <fix>3d</fix>
</trkpt>
<trkpt lat="-27.2362696" lon="151.3885899">
  <ele>535.55</ele>
  <time>2026-09-01T20:00:51Z</time>
  <course>215.81</course>
  <speed>4.63</speed>
  <fix>3d</fix>
</trkpt>
<trkpt lat="-27.2362842" lon="151.3885793">
  <ele>531.37</ele>
  <time>2026-09-01T20:00:51Z</time>
  <course>211.38</course>
  <speed>8.54588204926794</speed>
  <fix>3d</fix>
</trkpt>
<trkpt lat="-27.2362696" lon="151.3885899">
  <ele>535.55</ele>
  <time>2026-09-01T20:00:51Z</time>
  <course>215.81</course>
  <speed>4.63</speed>
  <fix>3d</fix>
</trkpt>
<trkpt lat="-27.2362913" lon="151.3885746">
  <ele>529.98</ele>
  <time>2026-09-01T20:00:51Z</time>
  <course>211.73</course>
  <speed>9.76933979345585</speed>
  <fix>3d</fix>
</trkpt>
<trkpt lat="-27.2362784" lon="151.3885833">
  <ele>532.81</ele>
  <time>2026-09-01T20:00:51Z</time>
  <course>211.97</course>
  <speed>7.22</speed>
  <fix>3d</fix>
</trkpt>
<trkpt lat="-27.2362994" lon="151.3885693">
  <ele>528.61</ele>
  <time>2026-09-01T20:00:51Z</time>
  <course>211.91</course>
  <speed>11.005984735588179</speed>
  <fix>3d</fix>
</trkpt>
<trkpt lat="-27.2362784" lon="151.3885833">
  <ele>532.81</ele>
  <time>2026-09-01T20:00:51Z</time>
  <course>211.97</course>
  <speed>7.22</speed>
  <fix>3d</fix>
</trkpt>
<trkpt lat="-27.2363084" lon="151.3885633">
  <ele>527.28</ele>
  <time>2026-09-01T20:00:51Z</time>
  <course>211.97</course>
  <speed>12.257246836055804</speed>
  <fix>3d</fix>
</trkpt>
<trkpt lat="-27.2362915" lon="151.3885745">
  <ele>530.04</ele>
  <time>2026-09-01T20:00:51Z</time>
  <course>210.46</course>
  <speed>9.73</speed>
  <fix>3d</fix>
</trkpt>
<trkpt lat="-27.2363183" lon="151.3885566">
  <ele>526.0</ele>
  <time>2026-09-01T20:00:51Z</time>
  <course>211.96</course>
  <speed>13.486734222931807</speed>
  <fix>3d</fix>
</trkpt>
<trkpt lat="-27.2362915" lon="151.3885745">
  <ele>530.04</ele>
  <time>2026-09-01T20:00:51Z</time>
  <course>210.46</course>
  <speed>9.73</speed>
  <fix>3d</fix>
</trkpt>
<trkpt lat="-27.2363291" lon="151.3885493">
  <ele>524.79</ele>
  <time>2026-09-01T20:00:51Z</time>
  <course>211.89</course>
  <speed>14.633475322014249</speed>
  <fix>3d</fix>
</trkpt>
<trkpt lat="-27.2363085" lon="151.3885632">
  <ele>527.35</ele>
  <time>2026-09-01T20:00:51Z</time>
  <course>210.75</course>
  <speed>12.2</speed>
  <fix>3d</fix>
</trkpt>
<trkpt lat="-27.2363407" lon="151.3885411">
  <ele>523.66</ele>
  <time>2026-09-01T20:00:51Z</time>
  <course>211.81</course>
  <speed>15.690114722333933</speed>
  <fix>3d</fix>
</trkpt>
<trkpt lat="-27.2363085" lon="151.3885632">
  <ele>527.35</ele>
  <time>2026-09-01T20:00:51Z</time>
  <course>210.75</course>
  <speed>12.2</speed>
  <fix>3d</fix>
</trkpt>
<trkpt lat="-27.236353" lon="151.3885324">
  <ele>522.66</ele>
  <time>2026-09-01T20:00:51Z</time>
  <course>211.73</course>
  <speed>16.61252539501445</speed>
  <fix>3d</fix>
</trkpt>
<trkpt lat="-27.2363291" lon="151.3885492">
  <ele>524.88</ele>
  <time>2026-09-01T20:00:51Z</time>
  <course>211.67</course>
  <speed>14.55</speed>
  <fix>3d</fix>
</trkpt>
<trkpt lat="-27.236366" lon="151.3885231">
  <ele>521.76</ele>
  <time>2026-09-01T20:00:51Z</time>
  <course>211.63</course>
  <speed>17.397936659270833</speed>
  <fix>3d</fix>
</trkpt>
<trkpt lat="-27.2363291" lon="151.3885492">
  <ele>524.88</ele>
  <time>2026-09-01T20:00:51Z</time>
  <course>211.67</course>
  <speed>14.55</speed>
  <fix>3d</fix>
</trkpt>
<trkpt lat="-27.2363793" lon="151.3885137">
  <ele>520.99</ele>
  <time>2026-09-01T20:00:51Z</time>
  <course>211.53</course>
  <speed>18.029511917963838</speed>
  <fix>3d</fix>
</trkpt>
<trkpt lat="-27.2363528" lon="151.3885325">
  <ele>522.76</ele>
  <time>2026-09-01T20:00:51Z</time>
  <course>212.2</course>
  <speed>16.51</speed>
  <fix>3d</fix>
</trkpt>
<trkpt lat="-27.2363934" lon="151.3885039">
  <ele>520.35</ele>
  <time>2026-09-01T20:00:51Z</time>
  <course>211.4</course>
  <speed>18.490843680048783</speed>
  <fix>3d</fix>
</trkpt>
<trkpt lat="-27.2363528" lon="151.3885325">
  <ele>522.76</ele>
  <time>2026-09-01T20:00:51Z</time>
  <course>212.2</course>
  <speed>16.51</speed>
  <fix>3d</fix>
</trkpt>
<trkpt lat="-27.2364077" lon="151.3884939">
  <ele>519.84</ele>
  <time>2026-09-01T20:00:51Z</time>
  <course>211.28</course>
  <speed>18.781227329437232</speed>
  <fix>3d</fix>
</trkpt>
<trkpt lat="-27.2363791" lon="151.3885139">
  <ele>521.08</ele>
  <time>2026-09-01T20:00:51Z</time>
  <course>212.0</course>
  <speed>17.93</speed>
  <fix>3d</fix>
</trkpt>
<trkpt lat="-27.2364222" lon="151.3884842">
  <ele>519.45</ele>
  <time>2026-09-01T20:00:51Z</time>
  <course>211.21</course>
  <speed>18.907736511809127</speed>
  <fix>3d</fix>
</trkpt>
<trkpt lat="-27.2363791" lon="151.3885139">
  <ele>521.08</ele>
  <time>2026-09-01T20:00:51Z</time>
  <course>212.0</course>
  <speed>17.93</speed>
  <fix>3d</fix>
</trkpt>
<trkpt lat="-27.2364367" lon="151.3884742">
  <ele>519.16</ele>
  <time>2026-09-01T20:00:51Z</time>
  <course>211.18</course>
  <speed>18.911205672827947</speed>
  <fix>3d</fix>
</trkpt>
<trkpt lat="-27.2364072" lon="151.3884943">
  <ele>519.91</ele>
  <time>2026-09-01T20:00:51Z</time>
  <course>211.39</course>
  <speed>18.7</speed>
  <fix>3d</fix>
</trkpt>
<trkpt lat="-27.2364513" lon="151.3884646">
  <ele>518.91</ele>
  <time>2026-09-01T20:00:51Z</time>
  <course>211.14</course>
  <speed>18.846137535314764</speed>
  <fix>3d</fix>
</trkpt>
<trkpt lat="-27.2364072" lon="151.3884943">
  <ele>519.91</ele>
  <time>2026-09-01T20:00:51Z</time>
  <course>211.39</course>
  <speed>18.7</speed>
  <fix>3d</fix>
</trkpt>
<trkpt lat="-27.2364658" lon="151.3884549">
  <ele>518.72</ele>
  <time>2026-09-01T20:00:51Z</time>
  <course>211.07</course>
  <speed>18.73301096994287</speed>
  <fix>3d</fix>
</trkpt>
<trkpt lat="-27.2364362" lon="151.3884747">
  <ele>519.19</ele>
  <time>2026-09-01T20:00:51Z</time>
  <course>210.89</course>
  <speed>18.88</speed>
  <fix>3d</fix>
</trkpt>
<trkpt lat="-27.2364802" lon="151.3884453">
  <ele>518.53</ele>
  <time>2026-09-01T20:00:51Z</time>
  <course>210.96</course>
  <speed>18.63009661810695</speed>
  <fix>3d</fix>
</trkpt>
<trkpt lat="-27.2364362" lon="151.3884747">
  <ele>519.19</ele>
  <time>2026-09-01T20:00:51Z</time>
  <course>210.89</course>
  <speed>18.88</speed>
  <fix>3d</fix>
</trkpt>
<trkpt lat="-27.2364946" lon="151.3884357">
  <ele>518.35</ele>
  <time>2026-09-01T20:00:51Z</time>
  <course>210.84</course>
  <speed>18.50488043733328</speed>
  <fix>3d</fix>
</trkpt>
<trkpt lat="-27.2364653" lon="151.3884552">
  <ele>518.73</ele>
  <time>2026-09-01T20:00:51Z</time>
  <course>210.71</course>
  <speed>18.74</speed>
  <fix>3d</fix>
</trkpt>
<trkpt lat="-27.2365088" lon="151.3884262">
  <ele>518.18</ele>
  <time>2026-09-01T20:00:51Z</time>
  <course>210.74</course>
  <speed>18.393371088519906</speed>
  <fix>3d</fix>
</trkpt>
<trkpt lat="-27.2364653" lon="151.3884552">
  <ele>518.73</ele>
  <time>2026-09-01T20:00:51Z</time>
  <course>210.71</course>
  <speed>18.74</speed>
  <fix>3d</fix>
</trkpt>
<trkpt lat="-27.236523" lon="151.3884167">
  <ele>518.01</ele>
  <time>2026-09-01T20:00:51Z</time>
  <course>210.66</course>
  <speed>18.268158089966267</speed>
  <fix>3d</fix>
</trkpt>
<trkpt lat="-27.2364941" lon="151.388436">
  <ele>518.36</ele>
  <time>2026-09-01T20:00:51Z</time>
  <course>210.71</course>
  <speed>18.51</speed>
  <fix>3d</fix>
</trkpt>
<trkpt lat="-27.236537" lon="151.3884072">
  <ele>517.84</ele>
  <time>2026-09-01T20:00:51Z</time>
  <course>210.61</course>
  <speed>18.151539879580465</speed>
  <fix>3d</fix>
</trkpt>
<trkpt lat="-27.2364941" lon="151.388436">
  <ele>518.36</ele>
  <time>2026-09-01T20:00:51Z</time>
  <course>210.71</course>
  <speed>18.51</speed>
  <fix>3d</fix>
</trkpt>
<trkpt lat="-27.236551" lon="151.3883979">
  <ele>517.66</ele>
  <time>2026-09-01T20:00:51Z</time>
  <course>210.59</course>
  <speed>18.038409020753466</speed>
  <fix>3d</fix>
</trkpt>
<trkpt lat="-27.2365225" lon="151.388417">
  <ele>518.01</ele>
  <time>2026-09-01T20:00:51Z</time>
  <course>210.74</course>
  <speed>18.28</speed>
  <fix>3d</fix>
</trkpt>
<trkpt lat="-27.2365649" lon="151.3883887">
  <ele>517.51</ele>
  <time>2026-09-01T20:00:51Z</time>
  <course>210.59</course>
  <speed>17.916687751925576</speed>
  <fix>3d</fix>
</trkpt>
<trkpt lat="-27.2365225" lon="151.388417">
  <ele>518.01</ele>
  <time>2026-09-01T20:00:51Z</time>
  <course>210.74</course>
  <speed>18.28</speed>
  <fix>3d</fix>
</trkpt>
<trkpt lat="-27.2347372" lon="151.3924509">
  <ele>542.98</ele>
  <time>2026-09-01T20:00:51Z</time>
  <course>250.0</course>
  <speed>0.0</speed>
  <fix>3d</fix>
</trkpt>
<trkpt lat="-27.2365505" lon="151.3883983">
  <ele>517.68</ele>
  <time>2026-09-01T20:00:51Z</time>
  <course>210.71</course>
  <speed>18.04</speed>
  <fix>3d</fix>
</trkpt>
<trkpt lat="-27.2347372" lon="151.3924509">
  <ele>542.88</ele>
  <time>2026-09-01T20:00:51Z</time>
  <course>250.0</course>
  <speed>0.01</speed>
  <fix>3d</fix>
</trkpt>
<trkpt lat="-27.2365505" lon="151.3883983">
  <ele>517.68</ele>
  <time>2026-09-01T20:00:51Z</time>
  <course>210.71</course>
  <speed>18.04</speed>
  <fix>3d</fix>
</trkpt>
<trkpt lat="-27.2347372" lon="151.3924508">
  <ele>542.69</ele>
  <time>2026-09-01T20:00:51Z</time>
  <course>250.01</course>
  <speed>0.044721359549995794</speed>
  <fix>3d</fix>
</trkpt>
<trkpt lat="-27.2356508" lon="151.3904199">
  <ele>530.2</ele>
  <time>2026-09-01T20:00:51Z</time>
  <course>210.72</course>
  <speed>8.97</speed>
  <fix>3d</fix>
</trkpt>
<trkpt lat="-27.2347372" lon="151.3924508">
  <ele>542.4</ele>
  <time>2026-09-01T20:00:51Z</time>
  <course>250.56</course>
  <speed>0.11704699910719625</speed>
  <fix>3d</fix>
</trkpt>
<trkpt lat="-27.2356508" lon="151.3904199">
  <ele>530.2</ele>
  <time>2026-09-01T20:00:51Z</time>
  <course>210.72</course>
  <speed>8.97</speed>
  <fix>3d</fix>
</trkpt>
<trkpt lat="-27.2347372" lon="151.3924506">
  <ele>542.04</ele>
  <time>2026-09-01T20:00:51Z</time>
  <course>253.62</course>
  <speed>0.2570992026436488</speed>
  <fix>3d</fix>
</trkpt>
<trkpt lat="-27.2347372" lon="151.3924508">
  <ele>542.65</ele>
  <time>2026-09-01T20:00:51Z</time>
  <course>249.1</course>
  <speed>0.06</speed>
  <fix>3d</fix>
</trkpt>
<trkpt lat="-27.2347371" lon="151.3924501">
  <ele>541.61</ele>
  <time>2026-09-01T20:00:51Z</time>
  <course>263.03</course>
  <speed>0.4410215414239989</speed>
  <fix>3d</fix>
</trkpt>
<trkpt lat="-27.2347372" lon="151.3924508">
  <ele>542.65</ele>
  <time>2026-09-01T20:00:51Z</time>
  <course>249.1</course>
  <speed>0.06</speed>
  <fix>3d</fix>
</trkpt>
<trkpt lat="-27.234737" lon="151.3924499">
  <ele>541.1</ele>
  <time>2026-09-01T20:00:51Z</time>
  <course>264.28</course>
  <speed>0.39698866482558415</speed>
  <fix>3d</fix>
</trkpt>
<trkpt lat="-27.2347371" lon="151.3924505">
  <ele>542.02</ele>
  <time>2026-09-01T20:00:51Z</time>
  <course>292.21</course>
  <speed>0.26</speed>
  <fix>3d</fix>
</trkpt>
<trkpt lat="-27.2347378" lon="151.3924496">
  <ele>540.54</ele>
  <time>2026-09-01T20:00:51Z</time>
  <course>251.99</course>
  <speed>1.7607100840286</speed>
  <fix>3d</fix>
</trkpt>
<trkpt lat="-27.2347371" lon="151.3924505">
  <ele>542.02</ele>
  <time>2026-09-01T20:00:51Z</time>
  <course>292.21</course>
  <speed>0.26</speed>
  <fix>3d</fix>
</trkpt>
<trkpt lat="-27.23474" lon="151.39245">
  <ele>540.0</ele>
  <time>2026-09-01T20:00:51Z</time>
  <course>242.6</course>
  <speed>3.0419894805866767</speed>
  <fix>3d</fix>
</trkpt>
<trkpt lat="-27.2347374" lon="151.39245">
  <ele>541.1</ele>
  <time>2026-09-01T20:00:51Z</time>
  <course>192.61</course>
  <speed>0.75</speed>
  <fix>3d</fix>
</trkpt>
<trkpt lat="-27.2347431" lon="151.3924509">
  <ele>539.49</ele>
  <time>2026-09-01T20:00:51Z</time>
  <course>235.04</course>
  <speed>4.009912717254578</speed>
  <fix>3d</fix>
</trkpt>
<trkpt lat="-27.2347374" lon="151.39245">
  <ele>541.1</ele>
  <time>2026-09-01T20:00:51Z</time>
  <course>192.61</course>
  <speed>0.75</speed>
  <fix>3d</fix>
</trkpt>
<trkpt lat="-27.2347469" lon="151.392452">
  <ele>539.04</ele>
  <time>2026-09-01T20:00:51Z</time>
  <course>228.3</course>
  <speed>4.814187366524074</speed>
  <fix>3d</fix>
</trkpt>
<trkpt lat="-27.2347404" lon="151.3924502">
  <ele>540.04</ele>
  <time>2026-09-01T20:00:51Z</time>
  <course>169.0</course>
  <speed>2.83</speed>
  <fix>3d</fix>
</trkpt>
<trkpt lat="-27.2347514" lon="151.3924537">
  <ele>538.66</ele>
  <time>2026-09-01T20:00:51Z</time>
  <course>222.13</course>
  <speed>5.620115657172902</speed>
  <fix>3d</fix>
</trkpt>
<trkpt lat="-27.2347404" lon="151.3924502">
  <ele>540.04</ele>
  <time>2026-09-01T20:00:51Z</time>
  <course>169.0</course>
  <speed>2.83</speed>
  <fix>3d</fix>
</trkpt>
<trkpt lat="-27.2347565" lon="151.3924556">
  <ele>538.38</ele>
  <time>2026-09-01T20:00:51Z</time>
  <course>216.46</course>
  <speed>6.125397946256227</speed>
  <fix>3d</fix>
</trkpt>
<trkpt lat="-27.2347471" lon="151.3924522">
  <ele>539.08</ele>
  <time>2026-09-01T20:00:51Z</time>
  <course>163.49</course>
  <speed>4.8</speed>
  <fix>3d</fix>
</trkpt>
<trkpt lat="-27.2347618" lon="151.3924576">
  <ele>538.16</ele>
  <time>2026-09-01T20:00:51Z</time>
  <course>211.72</course>
  <speed>6.4481082497116935</speed>
  <fix>3d</fix>
</trkpt>
<trkpt lat="-27.2347471" lon="151.3924522">
  <ele>539.08</ele>
  <time>2026-09-01T20:00:51Z</time>
  <course>163.49</course>
  <speed>4.8</speed>
  <fix>3d</fix>
</trkpt>
<trkpt lat="-27.2347674" lon="151.3924597">
  <ele>538.0</ele>
  <time>2026-09-01T20:00:51Z</time>
  <course>208.0</course>
  <speed>6.645336710807061</speed>
  <fix>3d</fix>
</trkpt>
<trkpt lat="-27.2347565" lon="151.3924556">
  <ele>538.41</ele>
  <time>2026-09-01T20:00:51Z</time>
  <course>161.76</course>
  <speed>6.02</speed>
  <fix>3d</fix>
</trkpt>
<trkpt lat="-27.2347731" lon="151.3924621">
  <ele>537.9</ele>
  <time>2026-09-01T20:00:51Z</time>
  <course>205.27</course>
  <speed>6.706713054842886</speed>
  <fix>3d</fix>
</trkpt>
<trkpt lat="-27.2347565" lon="151.3924556">
  <ele>538.41</ele>
  <time>2026-09-01T20:00:51Z</time>
  <course>161.76</course>
  <speed>6.02</speed>
  <fix>3d</fix>
</trkpt>
<trkpt lat="-27.2347787" lon="151.3924644">
  <ele>537.86</ele>
  <time>2026-09-01T20:00:51Z</time>
  <course>203.27</course>
  <speed>6.641001430507299</speed>
  <fix>3d</fix>
</trkpt>
<trkpt lat="-27.2347673" lon="151.3924597">
  <ele>538.03</ele>
  <time>2026-09-01T20:00:51Z</time>
  <course>160.51</course>
  <speed>6.57</speed>
  <fix>3d</fix>
</trkpt>
<trkpt lat="-27.2347842" lon="151.3924667">
  <ele>537.87</ele>
  <time>2026-09-01T20:00:51Z</time>
  <course>201.69</course>
  <speed>6.499307655435308</speed>
  <fix>3d</fix>
</trkpt>
<trkpt lat="-27.2347673" lon="151.3924597">
  <ele>538.03</ele>
  <time>2026-09-01T20:00:51Z</time>
  <course>160.51</course>
  <speed>6.57</speed>
  <fix>3d</fix>
</trkpt>
<trkpt lat="-27.2347896" lon="151.392469">
  <ele>537.9</ele>
  <time>2026-09-01T20:00:51Z</time>
  <course>200.41</course>
  <speed>6.329612942352794</speed>
  <fix>3d</fix>
</trkpt>
<trkpt lat="-27.2347784" lon="151.3924643">
  <ele>537.88</ele>
  <time>2026-09-01T20:00:51Z</time>
  <course>159.73</course>
  <speed>6.61</speed>
  <fix>3d</fix>
</trkpt>
<trkpt lat="-27.2347949" lon="151.3924712">
  <ele>537.95</ele>
  <time>2026-09-01T20:00:51Z</time>
  <course>199.39</course>
  <speed>6.147161946784873</speed>
  <fix>3d</fix>
</trkpt>
<trkpt lat="-27.2347784" lon="151.3924643">
  <ele>537.88</ele>
  <time>2026-09-01T20:00:51Z</time>
  <course>159.73</course>
  <speed>6.61</speed>
  <fix>3d</fix>
</trkpt>
<trkpt lat="-27.2347999" lon="151.3924735">
  <ele>538.02</ele>
  <time>2026-09-01T20:00:51Z</time>
  <course>198.64</course>
  <speed>5.9498319303993785</speed>
  <fix>3d</fix>
</trkpt>
<trkpt lat="-27.2347893" lon="151.3924688">
  <ele>537.91</ele>
  <time>2026-09-01T20:00:51Z</time>
  <course>159.27</course>
  <speed>6.33</speed>
  <fix>3d</fix>
</trkpt>
<trkpt lat="-27.2348048" lon="151.3924755">
  <ele>538.09</ele>
  <time>2026-09-01T20:00:51Z</time>
  <course>198.15</course>
  <speed>5.743561612797412</speed>
  <fix>3d</fix>
</trkpt>
<trkpt lat="-27.2347893" lon="151.3924688">
  <ele>537.91</ele>
  <time>2026-09-01T20:00:51Z</time>
  <course>159.27</course>
  <speed>6.33</speed>
  <fix>3d</fix>
</trkpt>
<trkpt lat="-27.2348095" lon="151.3924778">
  <ele>538.16</ele>
  <time>2026-09-01T20:00:51Z</time>
  <course>197.92</course>
  <speed>5.532314163168971</speed>
  <fix>3d</fix>
</trkpt>
<trkpt lat="-27.2347996" lon="151.3924733">
  <ele>538.02</ele>
  <time>2026-09-01T20:00:51Z</time>
  <course>158.58</course>
  <speed>5.96</speed>
  <fix>3d</fix>
</trkpt>
<trkpt lat="-27.234814" lon="151.3924798">
  <ele>538.25</ele>
  <time>2026-09-01T20:00:51Z</time>
  <course>197.96</course>
  <speed>5.316624869219193</speed>
  <fix>3d</fix>
</trkpt>
<trkpt lat="-27.2347996" lon="151.3924733">
  <ele>538.02</ele>
  <time>2026-09-01T20:00:51Z</time>
  <course>158.58</course>
  <speed>5.96</speed>
  <fix>3d</fix>
</trkpt>
<trkpt lat="-27.2348183" lon="151.3924821">
  <ele>538.34</ele>
  <time>2026-09-01T20:00:51Z</time>
  <course>198.28</course>
  <speed>5.083984657726654</speed>
  <fix>3d</fix>
</trkpt>
<trkpt lat="-27.2348093" lon="151.3924777">
  <ele>538.17</ele>
  <time>2026-09-01T20:00:51Z</time>
  <course>157.39</course>
  <speed>5.54</speed>
  <fix>3d</fix>
</trkpt>
<trkpt lat="-27.2348223" lon="151.3924841">
  <ele>538.44</ele>
  <time>2026-09-01T20:00:51Z</time>
  <course>198.87</course>
  <speed>4.844068537913146</speed>
  <fix>3d</fix>
</trkpt>
<trkpt lat="-27.2348093" lon="151.3924777">
  <ele>538.17</ele>
  <time>2026-09-01T20:00:51Z</time>
  <course>157.39</course>
  <speed>5.54</speed>
  <fix>3d</fix>
</trkpt>
<trkpt lat="-27.2348261" lon="151.3924863">
  <ele>538.54</ele>
  <time>2026-09-01T20:00:51Z</time>
  <course>199.72</course>
  <speed>4.606354306824432</speed>
  <fix>3d</fix>
</trkpt>
<trkpt lat="-27.234818" lon="151.3924819">
  <ele>538.34</ele>
  <time>2026-09-01T20:00:51Z</time>
  <course>155.58</course>
  <speed>5.09</speed>
  <fix>3d</fix>
</trkpt>
<trkpt lat="-27.2348297" lon="151.3924884">
  <ele>538.66</ele>
  <time>2026-09-01T20:00:51Z</time>
  <course>200.78</course>
  <speed>4.357659922481331</speed>
  <fix>3d</fix>
</trkpt>
<trkpt lat="-27.234818" lon="151.3924819">
  <ele>538.34</ele>
  <time>2026-09-01T20:00:51Z</time>
  <course>155.58</course>
  <speed>5.09</speed>
  <fix>3d</fix>
</trkpt>
<trkpt lat="-27.234833" lon="151.3924904">
  <ele>538.79</ele>
  <time>2026-09-01T20:00:51Z</time>
  <course>202.04</course>
  <speed>4.106799240284336</speed>
  <fix>3d</fix>
</trkpt>
<trkpt lat="-27.2348259" lon="151.3924862">
  <ele>538.55</ele>
  <time>2026-09-01T20:00:51Z</time>
  <course>153.22</course>
  <speed>4.61</speed>
  <fix>3d</fix>
</trkpt>
<trkpt lat="-27.2348361" lon="151.3924925">
  <ele>538.93</ele>
  <time>2026-09-01T20:00:51Z</time>
  <course>203.45</course>
  <speed>3.85700661135031</speed>
  <fix>3d</fix>
</trkpt>
<trkpt lat="-27.2348259" lon="151.3924862">
  <ele>538.55</ele>
  <time>2026-09-01T20:00:51Z</time>
  <course>153.22</course>
  <speed>4.61</speed>
  <fix>3d</fix>
</trkpt>
<trkpt lat="-27.234839" lon="151.3924945">
  <ele>539.08</ele>
  <time>2026-09-01T20:00:51Z</time>
  <course>205.0</course>
  <speed>3.609348971767623</speed>
  <fix>3d</fix>
</trkpt>
<trkpt lat="-27.2348328" lon="151.3924903">
  <ele>538.79</ele>
  <time>2026-09-01T20:00:51Z</time>
  <course>150.54</course>
  <speed>4.11</speed>
  <fix>3d</fix>
</trkpt>
<trkpt lat="-27.2348416" lon="151.3924964">
  <ele>539.24</ele>
  <time>2026-09-01T20:00:51Z</time>
  <course>206.63</course>
  <speed>3.35316268618151</speed>
  <fix>3d</fix>
</trkpt>
<trkpt lat="-27.2348328" lon="151.3924903">
  <ele>538.79</ele>
  <time>2026-09-01T20:00:51Z</time>
  <course>150.54</course>
  <speed>4.11</speed>
  <fix>3d</fix>
</trkpt>
<trkpt lat="-27.234844" lon="151.3924982">
  <ele>539.41</ele>
  <time>2026-09-01T20:00:51Z</time>
  <course>208.33</course>
  <speed>3.085255256862874</speed>
  <fix>3d</fix>
</trkpt>
<trkpt lat="-27.2348388" lon="151.3924943">
  <ele>539.07</ele>
  <time>2026-09-01T20:00:51Z</time>
  <course>147.78</course>
  <speed>3.61</speed>
  <fix>3d</fix>
</trkpt>
<trkpt lat="-27.2348462" lon="151.3924999">
  <ele>539.61</ele>
  <time>2026-09-01T20:00:51Z</time>
  <course>210.07</course>
  <speed>2.8060114041108246</speed>
  <fix>3d</fix>
</trkpt>
<trkpt lat="-27.2348388" lon="151.3924943">
  <ele>539.07</ele>
  <time>2026-09-01T20:00:51Z</time>
  <course>147.78</course>
  <speed>3.61</speed>
  <fix>3d</fix>
</trkpt>
<trkpt lat="-27.2348481" lon="151.3925017">
  <ele>539.81</ele>
  <time>2026-09-01T20:00:51Z</time>
  <course>211.71</course>
  <speed>2.531600284405103</speed>
  <fix>3d</fix>
</trkpt>
<trkpt lat="-27.2348438" lon="151.3924981">
  <ele>539.41</ele>
  <time>2026-09-01T20:00:51Z</time>
  <course>144.82</course>
  <speed>3.09</speed>
  <fix>3d</fix>
</trkpt>
<trkpt lat="-27.2348498" lon="151.3925032">
  <ele>540.03</ele>
  <time>2026-09-01T20:00:51Z</time>
  <course>213.27</course>
  <speed>2.2539742678211745</speed>
  <fix>3d</fix>
</trkpt>
<trkpt lat="-27.2348438" lon="151.3924981">
  <ele>539.41</ele>
  <time>2026-09-01T20:00:51Z</time>
  <course>144.82</course>
  <speed>3.09</speed>
  <fix>3d</fix>
</trkpt>
<trkpt lat="-27.2348512" lon="151.3925047">
  <ele>540.26</ele>
  <time>2026-09-01T20:00:51Z</time>
  <course>214.73</course>
  <speed>1.9952944644838766</speed>
  <fix>3d</fix>
</trkpt>
<trkpt lat="-27.2348479" lon="151.3925015">
  <ele>539.8</ele>
  <time>2026-09-01T20:00:51Z</time>
  <course>141.3</course>
  <speed>2.55</speed>
  <fix>3d</fix>
</trkpt>
<trkpt lat="-27.2348524" lon="151.392506">
  <ele>540.49</ele>
  <time>2026-09-01T20:00:51Z</time>
  <course>216.07</course>
  <speed>1.739482681718907</speed>
  <fix>3d</fix>
</trkpt>
<trkpt lat="-27.2348479" lon="151.3925015">
  <ele>539.8</ele>
  <time>2026-09-01T20:00:51Z</time>
  <course>141.3</course>
  <speed>2.55</speed>
  <fix>3d</fix>
</trkpt>
<trkpt lat="-27.2348534" lon="151.3925071">
  <ele>540.73</ele>
  <time>2026-09-01T20:00:51Z</time>
  <course>217.3</course>
  <speed>1.4928161306738348</speed>
  <fix>3d</fix>
</trkpt>
<trkpt lat="-27.234851" lon="151.3925045">
  <ele>540.24</ele>
  <time>2026-09-01T20:00:51Z</time>
  <course>137.38</course>
  <speed>2.02</speed>
  <fix>3d</fix>
</trkpt>
<trkpt lat="-27.2348543" lon="151.3925081">
  <ele>540.93</ele>
  <time>2026-09-01T20:00:51Z</time>
  <course>218.11</course>
  <speed>1.4637281168304446</speed>
  <fix>3d</fix>
</trkpt>
<trkpt lat="-27.234851" lon="151.3925045">
  <ele>540.24</ele>
  <time>2026-09-01T20:00:51Z</time>
  <course>137.38</course>
  <speed>2.02</speed>
  <fix>3d</fix>
</trkpt>
<trkpt lat="-27.2348552" lon="151.3925093">
  <ele>541.02</ele>
  <time>2026-09-01T20:00:51Z</time>
  <course>218.44</course>
  <speed>1.4495861478366852</speed>
  <fix>3d</fix>
</trkpt>
<trkpt lat="-27.2348533" lon="151.392507">
  <ele>540.69</ele>
  <time>2026-09-01T20:00:51Z</time>
  <course>134.84</course>
  <speed>1.61</speed>
  <fix>3d</fix>
</trkpt>
<trkpt lat="-27.2348561" lon="151.3925103">
  <ele>541.02</ele>
  <time>2026-09-01T20:00:51Z</time>
  <course>218.45</course>
  <speed>1.428355697996826</speed>
  <fix>3d</fix>
</trkpt>
<trkpt lat="-27.2348533" lon="151.392507">
  <ele>540.69</ele>
  <time>2026-09-01T20:00:51Z</time>
  <course>134.84</course>
  <speed>1.61</speed>
  <fix>3d</fix>
</trkpt>
<trkpt lat="-27.234857" lon="151.3925113">
  <ele>540.91</ele>
  <time>2026-09-01T20:00:51Z</time>
  <course>218.09</course>
  <speed>1.3859292911256333</speed>
  <fix>3d</fix>
</trkpt>
<trkpt lat="-27.2348552" lon="151.3925092">
  <ele>540.97</ele>
  <time>2026-09-01T20:00:51Z</time>
  <course>134.8</course>
  <speed>1.45</speed>
  <fix>3d</fix>
</trkpt>
<trkpt lat="-27.2348579" lon="151.3925123">
  <ele>540.73</ele>
  <time>2026-09-01T20:00:51Z</time>
  <course>217.11</course>
  <speed>1.308166656049603</speed>
  <fix>3d</fix>
</trkpt>
<trkpt lat="-27.2348552" lon="151.3925092">
  <ele>540.97</ele>
  <time>2026-09-01T20:00:51Z</time>
  <course>134.8</course>
  <speed>1.45</speed>
  <fix>3d</fix>
</trkpt>
<trkpt lat="-27.2348587" lon="151.3925132">
  <ele>540.47</ele>
  <time>2026-09-01T20:00:51Z</time>
  <course>215.09</course>
  <speed>1.181397477566293</speed>
  <fix>3d</fix>
</trkpt>
<trkpt lat="-27.234857" lon="151.3925112">
  <ele>540.88</ele>
  <time>2026-09-01T20:00:51Z</time>
  <course>135.26</course>
  <speed>1.37</speed>
  <fix>3d</fix>
</trkpt>
<trkpt lat="-27.2348595" lon="151.3925138">
  <ele>540.15</ele>
  <time>2026-09-01T20:00:51Z</time>
  <course>211.78</course>
  <speed>1.0347946656221223</speed>
  <fix>3d</fix>
</trkpt>
<trkpt lat="-27.234857" lon="151.3925112">
  <ele>540.88</ele>
  <time>2026-09-01T20:00:51Z</time>
  <course>135.26</course>
  <speed>1.37</speed>
  <fix>3d</fix>
</trkpt>
<trkpt lat="-27.2348601" lon="151.3925146">
  <ele>539.76</ele>
  <time>2026-09-01T20:00:51Z</time>
  <course>207.81</course>
  <speed>0.9402127418834527</speed>
  <fix>3d</fix>
</trkpt>
<trkpt lat="-27.2348586" lon="151.392513">
  <ele>540.44</ele>
  <time>2026-09-01T20:00:51Z</time>
  <course>136.94</course>
  <speed>1.18</speed>
  <fix>3d</fix>
</trkpt>
<trkpt lat="-27.2348608" lon="151.3925151">
  <ele>539.32</ele>
  <time>2026-09-01T20:00:51Z</time>
  <course>204.01</course>
  <speed>0.862670273047588</speed>
  <fix>3d</fix>
</trkpt>
<trkpt lat="-27.2348586" lon="151.392513">
  <ele>540.44</ele>
  <time>2026-09-01T20:00:51Z</time>
  <course>136.94</course>
  <speed>1.18</speed>
  <fix>3d</fix>
</trkpt>
<trkpt lat="-27.2348614" lon="151.3925156">
  <ele>538.84</ele>
  <time>2026-09-01T20:00:51Z</time>
  <course>200.6</course>
  <speed>0.8062257748298549</speed>
  <fix>3d</fix>
</trkpt>
<trkpt lat="-27.2348601" lon="151.3925145">
  <ele>539.75</ele>
  <time>2026-09-01T20:00:51Z</time>
  <course>141.56</course>
  <speed>0.96</speed>
  <fix>3d</fix>
</trkpt>
<trkpt lat="-27.2348621" lon="151.3925159">
  <ele>538.29</ele>
  <time>2026-09-01T20:00:51Z</time>
  <course>197.55</course>
  <speed>0.7984985911070852</speed>
  <fix>3d</fix>
</trkpt>
<trkpt lat="-27.2348601" lon="151.3925145">
  <ele>539.75</ele>
  <time>2026-09-01T20:00:51Z</time>
  <course>141.56</course>
  <speed>0.96</speed>
  <fix>3d</fix>
</trkpt>
<trkpt lat="-27.2348628" lon="151.3925162">
  <ele>537.71</ele>
  <time>2026-09-01T20:00:51Z</time>
  <course>194.74</course>
  <speed>0.8440379138403676</speed>
  <fix>3d</fix>
</trkpt>
<trkpt lat="-27.2348614" lon="151.3925155">
  <ele>538.82</ele>
  <time>2026-09-01T20:00:51Z</time>
  <course>151.03</course>
  <speed>0.83</speed>
  <fix>3d</fix>
</trkpt>
<trkpt lat="-27.2348636" lon="151.3925164">
  <ele>537.06</ele>
  <time>2026-09-01T20:00:51Z</time>
  <course>192.05</course>
  <speed>0.9093404203047393</speed>
  <fix>3d</fix>
</trkpt>
<trkpt lat="-27.2348614" lon="151.3925155">
  <ele>538.82</ele>
  <time>2026-09-01T20:00:51Z</time>
  <course>151.03</course>
  <speed>0.83</speed>
  <fix>3d</fix>
</trkpt>
<trkpt lat="-27.2348645" lon="151.3925164">
  <ele>536.34</ele>
  <time>2026-09-01T20:00:51Z</time>
  <course>189.39</course>
  <speed>1.24</speed>
  <fix>3d</fix>
</trkpt>
<trkpt lat="-27.2348628" lon="151.3925161">
  <ele>537.69</ele>
  <time>2026-09-01T20:00:51Z</time>
  <course>165.09</course>
  <speed>0.85</speed>
  <fix>3d</fix>
</trkpt>
<trkpt lat="-27.234866" lon="151.3925162">
  <ele>535.56</ele>
  <time>2026-09-01T20:00:51Z</time>
  <course>186.02</course>
  <speed>2.040833163195855</speed>
  <fix>3d</fix>
</trkpt>
<trkpt lat="-27.2348628" lon="151.3925161">
  <ele>537.69</ele>
  <time>2026-09-01T20:00:51Z</time>
  <course>165.09</course>
  <speed>0.85</speed>
  <fix>3d</fix>
</trkpt>
<trkpt lat="-27.2348681" lon="151.392516">
  <ele>534.66</ele>
  <time>2026-09-01T20:00:51Z</time>
  <course>180.93</course>
  <speed>2.3864827675891562</speed>
  <fix>3d</fix>
</trkpt>
<trkpt lat="-27.2348647" lon="151.3925163">
  <ele>536.33</ele>
  <time>2026-09-01T20:00:51Z</time>
  <course>181.54</course>
  <speed>1.46</speed>
  <fix>3d</fix>
</trkpt>
<trkpt lat="-27.2348702" lon="151.3925157">
  <ele>533.72</ele>
  <time>2026-09-01T20:00:51Z</time>
  <course>172.76</course>
  <speed>2.345591609807641</speed>
  <fix>3d</fix>
</trkpt>
<trkpt lat="-27.2348647" lon="151.3925163">
  <ele>536.33</ele>
  <time>2026-09-01T20:00:51Z</time>
  <course>181.54</course>
  <speed>1.46</speed>
  <fix>3d</fix>
</trkpt>
<trkpt lat="-27.2348722" lon="151.3925155">
  <ele>532.66</ele>
  <time>2026-09-01T20:00:51Z</time>
  <course>165.42</course>
  <speed>2.16566387050253</speed>
  <fix>3d</fix>
</trkpt>
<trkpt lat="-27.234868" lon="151.392516">
  <ele>534.67</ele>
  <time>2026-09-01T20:00:51Z</time>
  <course>186.43</course>
  <speed>2.19</speed>
  <fix>3d</fix>
</trkpt>
<trkpt lat="-27.2348741" lon="151.3925152">
  <ele>531.53</ele>
  <time>2026-09-01T20:00:51Z</time>
  <course>166.28</course>
  <speed>2.1644860821913365</speed>
  <fix>3d</fix>
</trkpt>
<trkpt lat="-27.234868" lon="151.392516">
  <ele>534.67</ele>
  <time>2026-09-01T20:00:51Z</time>
  <course>186.43</course>
  <speed>2.19</speed>
  <fix>3d</fix>
</trkpt>
<trkpt lat="-27.2348762" lon="151.3925151">
  <ele>530.29</ele>
  <time>2026-09-01T20:00:51Z</time>
  <course>166.85</course>
  <speed>2.5943399931389104</speed>
  <fix>3d</fix>
</trkpt>
<trkpt lat="-27.234872" lon="151.3925155">
  <ele>532.68</ele>
  <time>2026-09-01T20:00:51Z</time>
  <course>186.78</course>
  <speed>2.26</speed>
  <fix>3d</fix>
</trkpt>
<trkpt lat="-27.2348789" lon="151.3925151">
  <ele>529.01</ele>
  <time>2026-09-01T20:00:51Z</time>
  <course>166.21</course>
  <speed>3.482068350851258</speed>
  <fix>3d</fix>
</trkpt>
<trkpt lat="-27.234872" lon="151.3925155">
  <ele>532.68</ele>
  <time>2026-09-01T20:00:51Z</time>
  <course>186.78</course>
  <speed>2.26</speed>
  <fix>3d</fix>
</trkpt>
<trkpt lat="-27.2348826" lon="151.3925152">
  <ele>527.66</ele>
  <time>2026-09-01T20:00:51Z</time>
  <course>165.67</course>
  <speed>4.707122263124254</speed>
  <fix>3d</fix>
</trkpt>
<trkpt lat="-27.2348763" lon="151.3925152">
  <ele>530.33</ele>
  <time>2026-09-01T20:00:51Z</time>
  <course>181.58</course>
  <speed>2.78</speed>
  <fix>3d</fix>
</trkpt>
<trkpt lat="-27.2348873" lon="151.3925162">
  <ele>526.28</ele>
  <time>2026-09-01T20:00:51Z</time>
  <course>165.73</course>
  <speed>6.03257822162299</speed>
  <fix>3d</fix>
</trkpt>
<trkpt lat="-27.2348763" lon="151.3925152">
  <ele>530.33</ele>
  <time>2026-09-01T20:00:51Z</time>
  <course>181.58</course>
  <speed>2.78</speed>
  <fix>3d</fix>
</trkpt>
<trkpt lat="-27.2348932" lon="151.3925176">
  <ele>524.88</ele>
  <time>2026-09-01T20:00:51Z</time>
  <course>166.17</course>
  <speed>7.336879445649901</speed>
  <fix>3d</fix>
</trkpt>
<trkpt lat="-27.2348828" lon="151.3925156">
  <ele>527.72</ele>
  <time>2026-09-01T20:00:51Z</time>
  <course>172.42</course>
  <speed>4.68</speed>
  <fix>3d</fix>
</trkpt>
<trkpt lat="-27.2349001" lon="151.3925196">
  <ele>523.48</ele>
  <time>2026-09-01T20:00:51Z</time>
  <course>166.61</course>
  <speed>8.58210347176029</speed>
  <fix>3d</fix>
</trkpt>
<trkpt lat="-27.2348828" lon="151.3925156">
  <ele>527.72</ele>
  <time>2026-09-01T20:00:51Z</time>
  <course>172.42</course>
  <speed>4.68</speed>
  <fix>3d</fix>
</trkpt>
<trkpt lat="-27.2349081" lon="151.392522">
  <ele>522.08</ele>
  <time>2026-09-01T20:00:51Z</time>
  <course>166.85</course>
  <speed>9.82574679095691</speed>
  <fix>3d</fix>
</trkpt>
<trkpt lat="-27.2348933" lon="151.3925178">
  <ele>524.95</ele>
  <time>2026-09-01T20:00:51Z</time>
  <course>166.69</course>
  <speed>7.23</speed>
  <fix>3d</fix>
</trkpt>
<trkpt lat="-27.2349172" lon="151.392525">
  <ele>520.7</ele>
  <time>2026-09-01T20:00:51Z</time>
  <course>166.9</course>
  <speed>11.093912745285136</speed>
  <fix>3d</fix>
</trkpt>
<trkpt lat="-27.2348933" lon="151.3925178">
  <ele>524.95</ele>
  <time>2026-09-01T20:00:51Z</time>
  <course>166.69</course>
  <speed>7.23</speed>
  <fix>3d</fix>
</trkpt>
<trkpt lat="-27.2349271" lon="151.392528">
  <ele>519.39</ele>
  <time>2026-09-01T20:00:51Z</time>
  <course>166.83</course>
  <speed>12.336308199781651</speed>
  <fix>3d</fix>
</trkpt>
<trkpt lat="-27.2349081" lon="151.3925221">
  <ele>522.17</ele>
  <time>2026-09-01T20:00:51Z</time>
  <course>164.82</course>
  <speed>9.77</speed>
  <fix>3d</fix>
</trkpt>
<trkpt lat="-27.2349384" lon="151.3925311">
  <ele>518.11</ele>
  <time>2026-09-01T20:00:51Z</time>
  <course>166.68</course>
  <speed>13.565017508282104</speed>
  <fix>3d</fix>
</trkpt>
<trkpt lat="-27.2349081" lon="151.3925221">
  <ele>522.17</ele>
  <time>2026-09-01T20:00:51Z</time>
  <course>164.82</course>
  <speed>9.77</speed>
  <fix>3d</fix>
</trkpt>
<trkpt lat="-27.2349507" lon="151.3925346">
  <ele>516.91</ele>
  <time>2026-09-01T20:00:51Z</time>
  <course>166.49</course>
  <speed>14.710683192836422</speed>
  <fix>3d</fix>
</trkpt>
<trkpt lat="-27.2349273" lon="151.3925279">
  <ele>519.46</ele>
  <time>2026-09-01T20:00:51Z</time>
  <course>165.35</course>
  <speed>12.27</speed>
  <fix>3d</fix>
</trkpt>
<trkpt lat="-27.2349641" lon="151.3925381">
  <ele>515.79</ele>
  <time>2026-09-01T20:00:51Z</time>
  <course>166.3</course>
  <speed>15.76490088773158</speed>
  <fix>3d</fix>
</trkpt>
<trkpt lat="-27.2349273" lon="151.3925279">
  <ele>519.46</ele>
  <time>2026-09-01T20:00:51Z</time>
  <course>165.35</course>
  <speed>12.27</speed>
  <fix>3d</fix>
</trkpt>
<trkpt lat="-27.2349783" lon="151.3925418">
  <ele>514.78</ele>
  <time>2026-09-01T20:00:51Z</time>
  <course>166.12</course>
  <speed>16.694325383195334</speed>
  <fix>3d</fix>
</trkpt>
<trkpt lat="-27.2349508" lon="151.3925345">
  <ele>516.99</ele>
  <time>2026-09-01T20:00:51Z</time>
  <course>166.47</course>
  <speed>14.63</speed>
  <fix>3d</fix>
</trkpt>
<trkpt lat="-27.2349933" lon="151.3925457">
  <ele>513.89</ele>
  <time>2026-09-01T20:00:51Z</time>
  <course>165.92</course>
  <speed>17.47915329757137</speed>
  <fix>3d</fix>
</trkpt>
<trkpt lat="-27.2349508" lon="151.3925345">
  <ele>516.99</ele>
  <time>2026-09-01T20:00:51Z</time>
  <course>166.47</course>
  <speed>14.63</speed>
  <fix>3d</fix>
</trkpt>
<trkpt lat="-27.2350088" lon="151.3925499">
  <ele>513.12</ele>
  <time>2026-09-01T20:00:51Z</time>
  <course>165.72</course>
  <speed>18.098499937840153</speed>
  <fix>3d</fix>
</trkpt>
<trkpt lat="-27.2349782" lon="151.3925418">
  <ele>514.87</ele>
  <time>2026-09-01T20:00:51Z</time>
  <course>166.87</course>
  <speed>16.6</speed>
  <fix>3d</fix>
</trkpt>
<trkpt lat="-27.2350248" lon="151.3925543">
  <ele>512.48</ele>
  <time>2026-09-01T20:00:51Z</time>
  <course>165.49</course>
  <speed>18.563717300153005</speed>
  <fix>3d</fix>
</trkpt>
<trkpt lat="-27.2349782" lon="151.3925418">
  <ele>514.87</ele>
  <time>2026-09-01T20:00:51Z</time>
  <course>166.87</course>
  <speed>16.6</speed>
  <fix>3d</fix>
</trkpt>
<trkpt lat="-27.2350416" lon="151.3925592">
  <ele>511.97</ele>
  <time>2026-09-01T20:00:51Z</time>
  <course>165.29</course>
  <speed>18.848793064809215</speed>
  <fix>3d</fix>
</trkpt>
<trkpt lat="-27.2350086" lon="151.3925499">
  <ele>513.2</ele>
  <time>2026-09-01T20:00:51Z</time>
  <course>166.31</course>
  <speed>18.01</speed>
  <fix>3d</fix>
</trkpt>
<trkpt lat="-27.2350581" lon="151.392564">
  <ele>511.59</ele>
  <time>2026-09-01T20:00:51Z</time>
  <course>165.17</course>
  <speed>18.957650170841323</speed>
  <fix>3d</fix>
</trkpt>
<trkpt lat="-27.2350086" lon="151.3925499">
  <ele>513.2</ele>
  <time>2026-09-01T20:00:51Z</time>
  <course>166.31</course>
  <speed>18.01</speed>
  <fix>3d</fix>
</trkpt>
<trkpt lat="-27.2350745" lon="151.3925692">
  <ele>511.31</ele>
  <time>2026-09-01T20:00:51Z</time>
  <course>165.11</course>
  <speed>18.949770447158457</speed>
  <fix>3d</fix>
</trkpt>
<trkpt lat="-27.2350407" lon="151.392559">
  <ele>512.05</ele>
  <time>2026-09-01T20:00:51Z</time>
  <course>165.35</course>
  <speed>18.75</speed>
  <fix>3d</fix>
</trkpt>
<trkpt lat="-27.2350909" lon="151.3925743">
  <ele>511.08</ele>
  <time>2026-09-01T20:00:51Z</time>
  <course>165.03</course>
  <speed>18.868357109192097</speed>
  <fix>3d</fix>
</trkpt>
<trkpt lat="-27.2350407" lon="151.392559">
  <ele>512.05</ele>
  <time>2026-09-01T20:00:51Z</time>
  <course>165.35</course>
  <speed>18.75</speed>
  <fix>3d</fix>
</trkpt>
<trkpt lat="-27.2351071" lon="151.3925794">
  <ele>510.88</ele>
  <time>2026-09-01T20:00:51Z</time>
  <course>164.89</course>
  <speed>18.75702001918215</speed>
  <fix>3d</fix>
</trkpt>
<trkpt lat="-27.2350735" lon="151.3925689">
  <ele>511.34</ele>
  <time>2026-09-01T20:00:51Z</time>
  <course>164.67</course>
  <speed>18.91</speed>
  <fix>3d</fix>
</trkpt>
<trkpt lat="-27.2351233" lon="151.3925845">
  <ele>510.7</ele>
  <time>2026-09-01T20:00:51Z</time>
  <course>164.73</course>
  <speed>18.64300404977696</speed>
  <fix>3d</fix>
</trkpt>
<trkpt lat="-27.2350735" lon="151.3925689">
  <ele>511.34</ele>
  <time>2026-09-01T20:00:51Z</time>
  <course>164.67</course>
  <speed>18.91</speed>
  <fix>3d</fix>
</trkpt>
<trkpt lat="-27.2351394" lon="151.3925894">
  <ele>510.53</ele>
  <time>2026-09-01T20:00:51Z</time>
  <course>164.56</course>
  <speed>18.526308320871703</speed>
  <fix>3d</fix>
</trkpt>
<trkpt lat="-27.2351061" lon="151.392579">
  <ele>510.9</ele>
  <time>2026-09-01T20:00:51Z</time>
  <course>164.45</course>
  <speed>18.76</speed>
  <fix>3d</fix>
</trkpt>
<trkpt lat="-27.2351554" lon="151.3925945">
  <ele>510.36</ele>
  <time>2026-09-01T20:00:51Z</time>
  <course>164.42</course>
  <speed>18.399980978251037</speed>
  <fix>3d</fix>
</trkpt>
<trkpt lat="-27.2351061" lon="151.392579">
  <ele>510.9</ele>
  <time>2026-09-01T20:00:51Z</time>
  <course>164.45</course>
  <speed>18.76</speed>
  <fix>3d</fix>
</trkpt>
<trkpt lat="-27.2351713" lon="151.3925994">
  <ele>510.19</ele>
  <time>2026-09-01T20:00:51Z</time>
  <course>164.32</course>
  <speed>18.283292920040417</speed>
  <fix>3d</fix>
</trkpt>
<trkpt lat="-27.2351383" lon="151.3925891">
  <ele>510.53</ele>
  <time>2026-09-01T20:00:51Z</time>
  <course>164.46</course>
  <speed>18.53</speed>
  <fix>3d</fix>
</trkpt>
<trkpt lat="-27.235187" lon="151.3926043">
  <ele>510.02</ele>
  <time>2026-09-01T20:00:51Z</time>
  <course>164.26</course>
  <speed>18.162312628076855</speed>
  <fix>3d</fix>
</trkpt>
<trkpt lat="-27.2351383" lon="151.3925891">
  <ele>510.53</ele>
  <time>2026-09-01T20:00:51Z</time>
  <course>164.46</course>
  <speed>18.53</speed>
  <fix>3d</fix>
</trkpt>
<trkpt lat="-27.2352027" lon="151.3926093">
  <ele>509.86</ele>
  <time>2026-09-01T20:00:51Z</time>
  <course>164.24</course>
  <speed>18.041341413542398</speed>
  <fix>3d</fix>
</trkpt>
<trkpt lat="-27.2351702" lon="151.3925991">
  <ele>510.2</ele>
  <time>2026-09-01T20:00:51Z</time>
  <course>164.47</course>
  <speed>18.29</speed>
  <fix>3d</fix>
</trkpt>
<trkpt lat="-27.2352182" lon="151.3926142">
  <ele>509.69</ele>
  <time>2026-09-01T20:00:51Z</time>
  <course>164.25</course>
  <speed>17.923071723340282</speed>
  <fix>3d</fix>
</trkpt>
<trkpt lat="-27.2351702" lon="151.3925991">
  <ele>510.2</ele>
  <time>2026-09-01T20:00:51Z</time>
  <course>164.47</course>
  <speed>18.29</speed>
  <fix>3d</fix>
</trkpt>
<trkpt lat="-27.2352337" lon="151.392619">
  <ele>509.53</ele>
  <time>2026-09-01T20:00:51Z</time>
  <course>164.27</course>
  <speed>17.817165880128073</speed>
  <fix>3d</fix>
</trkpt>
<trkpt lat="-27.2352017" lon="151.392609">
  <ele>509.86</ele>
  <time>2026-09-01T20:00:51Z</time>
  <course>164.4</course>
  <speed>18.05</speed>
  <fix>3d</fix>
</trkpt>
<trkpt lat="-27.235249" lon="151.3926239">
  <ele>509.36</ele>
  <time>2026-09-01T20:00:52Z</time>
  <course>164.28</course>
  <speed>17.701689184933738</speed>
  <fix>3d</fix>
</trkpt>
<trkpt lat="-27.2352017" lon="151.392609">
  <ele>509.86</ele>
  <time>2026-09-01T20:00:52Z</time>
  <course>164.4</course>
  <speed>18.05</speed>
  <fix>3d</fix>
</trkpt>
<trkpt lat="-27.2352643" lon="151.3926287">
  <ele>509.2</ele>
  <time>2026-09-01T20:00:52Z</time>
  <course>164.27</course>
  <speed>17.59314639284287</speed>
  <fix>3d</fix>
</trkpt>
<trkpt lat="-27.2352327" lon="151.3926187">
  <ele>509.53</ele>
  <time>2026-09-01T20:00:52Z</time>
  <course>164.26</course>
  <speed>17.82</speed>
  <fix>3d</fix>
</trkpt>
<trkpt lat="-27.2352794" lon="151.3926337">
  <ele>509.04</ele>
  <time>2026-09-01T20:00:52Z</time>
  <course>164.24</course>
  <speed>17.494241909839936</speed>
  <fix>3d</fix>
</trkpt>
<trkpt lat="-27.2352327" lon="151.3926187">
  <ele>509.53</ele>
  <time>2026-09-01T20:00:52Z</time>
  <course>164.26</course>
  <speed>17.82</speed>
  <fix>3d</fix>
</trkpt>
<trkpt lat="-27.2352945" lon="151.3926385">
  <ele>508.88</ele>
  <time>2026-09-01T20:00:52Z</time>
  <course>164.18</course>
  <speed>17.382985934528048</speed>
  <fix>3d</fix>
</trkpt>
<trkpt lat="-27.2352634" lon="151.3926285">
  <ele>509.21</ele>
  <time>2026-09-01T20:00:52Z</time>
  <course>164.1</course>
  <speed>17.6</speed>
  <fix>3d</fix>
</trkpt>
<trkpt lat="-27.2334484" lon="151.3966638">
  <ele>542.95</ele>
  <time>2026-09-01T20:00:52Z</time>
  <course>250.01</course>
  <speed>0.0</speed>
  <fix>3d</fix>
</trkpt>
<trkpt lat="-27.2352634" lon="151.3926285">
  <ele>509.21</ele>
  <time>2026-09-01T20:00:52Z</time>
  <course>164.1</course>
  <speed>17.6</speed>
  <fix>3d</fix>
</trkpt>
<trkpt lat="-27.2334485" lon="151.3966638">
  <ele>542.82</ele>
  <time>2026-09-01T20:00:52Z</time>
  <course>250.01</course>
  <speed>0.01</speed>
  <fix>3d</fix>
</trkpt>
<trkpt lat="-27.2343635" lon="151.3946485">
  <ele>526.0</ele>
  <time>2026-09-01T20:00:52Z</time>
  <course>164.03</course>
  <speed>8.75</speed>
  <fix>3d</fix>
</trkpt>
<trkpt lat="-27.2334485" lon="151.3966638">
  <ele>542.59</ele>
  <time>2026-09-01T20:00:52Z</time>
  <course>250.02</course>
  <speed>0.05830951894845301</speed>
  <fix>3d</fix>
</trkpt>
<trkpt lat="-27.2343635" lon="151.3946485">
  <ele>526.0</ele>
  <time>2026-09-01T20:00:52Z</time>
  <course>164.03</course>
  <speed>8.75</speed>
  <fix>3d</fix>
</trkpt>
<trkpt lat="-27.2334485" lon="151.3966637">
  <ele>542.28</ele>
  <time>2026-09-01T20:00:52Z</time>
  <course>250.63</course>
  <speed>0.1392838827718412</speed>
  <fix>3d</fix>
</trkpt>
<trkpt lat="-27.2334484" lon="151.3966638">
  <ele>542.78</ele>
  <time>2026-09-01T20:00:52Z</time>
  <course>243.95</course>
  <speed>0.03</speed>
  <fix>3d</fix>
</trkpt>
<trkpt lat="-27.2334485" lon="151.3966635">
  <ele>541.89</ele>
  <time>2026-09-01T20:00:52Z</time>
  <course>253.96</course>
  <speed>0.29832867780352595</speed>
  <fix>3d</fix>
</trkpt>
<trkpt lat="-27.2334484" lon="151.3966638">
  <ele>542.78</ele>
  <time>2026-09-01T20:00:52Z</time>
  <course>243.95</course>
  <speed>0.03</speed>
  <fix>3d</fix>
</trkpt>
<trkpt lat="-27.2334484" lon="151.396663">
  <ele>541.43</ele>
  <time>2026-09-01T20:00:52Z</time>
  <course>263.59</course>
  <speed>0.4802082881417188</speed>
  <fix>3d</fix>
</trkpt>
<trkpt lat="-27.2334485" lon="151.3966636">
  <ele>542.25</ele>
  <time>2026-09-01T20:00:52Z</time>
  <course>275.68</course>
  <speed>0.16</speed>
  <fix>3d</fix>
</trkpt>
<trkpt lat="-27.2334483" lon="151.3966628">
  <ele>540.9</ele>
  <time>2026-09-01T20:00:52Z</time>
  <course>264.92</course>
  <speed>0.47010637094172636</speed>
  <fix>3d</fix>
</trkpt>
<trkpt lat="-27.2334485" lon="151.3966636">
  <ele>542.25</ele>
  <time>2026-09-01T20:00:52Z</time>
  <course>275.68</course>
  <speed>0.16</speed>
  <fix>3d</fix>
</trkpt>
<trkpt lat="-27.2334491" lon="151.3966625">
  <ele>540.32</ele>
  <time>2026-09-01T20:00:52Z</time>
  <course>252.18</course>
  <speed>1.7704519197086375</speed>
  <fix>3d</fix>
</trkpt>
<trkpt lat="-27.2334484" lon="151.3966631">
  <ele>541.42</ele>
  <time>2026-09-01T20:00:52Z</time>
  <course>256.2</course>
  <speed>0.34</speed>
  <fix>3d</fix>
</trkpt>
<trkpt lat="-27.2334513" lon="151.3966626">
  <ele>539.75</ele>
  <time>2026-09-01T20:00:52Z</time>
  <course>242.35</course>
  <speed>3.0108636634693373</speed>
  <fix>3d</fix>
</trkpt>
<trkpt lat="-27.2334484" lon="151.3966631">
  <ele>541.42</ele>
  <time>2026-09-01T20:00:52Z</time>
  <course>256.2</course>
  <speed>0.34</speed>
  <fix>3d</fix>
</trkpt>
<trkpt lat="-27.2334544" lon="151.3966633">
  <ele>539.23</ele>
  <time>2026-09-01T20:00:52Z</time>
  <course>234.47</course>
  <speed>3.9710200200955925</speed>
  <fix>3d</fix>
</trkpt>
<trkpt lat="-27.2334497" lon="151.3966627">
  <ele>540.36</ele>
  <time>2026-09-01T20:00:52Z</time>
  <course>179.73</course>
  <speed>1.57</speed>
  <fix>3d</fix>
</trkpt>
<trkpt lat="-27.2334582" lon="151.3966644">
  <ele>538.75</ele>
  <time>2026-09-01T20:00:52Z</time>
  <course>227.54</course>
  <speed>4.682702211330548</speed>
  <fix>3d</fix>
</trkpt>
<trkpt lat="-27.2334497" lon="151.3966627">
  <ele>540.36</ele>
  <time>2026-09-01T20:00:52Z</time>
  <course>179.73</course>
  <speed>1.57</speed>
  <fix>3d</fix>
</trkpt>
<trkpt lat="-27.2334626" lon="151.3966658">
  <ele>538.35</ele>
  <time>2026-09-01T20:00:52Z</time>
  <course>220.85</course>
  <speed>5.491675518455183</speed>
  <fix>3d</fix>
</trkpt>
<trkpt lat="-27.2334545" lon="151.3966635">
  <ele>539.28</ele>
  <time>2026-09-01T20:00:52Z</time>
  <course>167.44</course>
  <speed>3.79</speed>
  <fix>3d</fix>
</trkpt>
<trkpt lat="-27.2334676" lon="151.3966675">
  <ele>538.04</ele>
  <time>2026-09-01T20:00:52Z</time>
  <course>213.68</course>
  <speed>6.022175686577069</speed>
  <fix>3d</fix>
</trkpt>
<trkpt lat="-27.2334545" lon="151.3966635">
  <ele>539.28</ele>
  <time>2026-09-01T20:00:52Z</time>
  <course>167.44</course>
  <speed>3.79</speed>
  <fix>3d</fix>
</trkpt>
<trkpt lat="-27.2334728" lon="151.3966695">
  <ele>537.84</ele>
  <time>2026-09-01T20:00:52Z</time>
  <course>206.97</course>
  <speed>6.279530237207239</speed>
  <fix>3d</fix>
</trkpt>
<trkpt lat="-27.2334625" lon="151.3966658">
  <ele>538.42</ele>
  <time>2026-09-01T20:00:52Z</time>
  <course>163.5</course>
  <speed>5.32</speed>
  <fix>3d</fix>
</trkpt>
<trkpt lat="-27.2334781" lon="151.3966719">
  <ele>537.72</ele>
  <time>2026-09-01T20:00:52Z</time>
  <course>201.2</course>
  <speed>6.299214236712386</speed>
  <fix>3d</fix>
</trkpt>
<trkpt lat="-27.2334625" lon="151.3966658">
  <ele>538.42</ele>
  <time>2026-09-01T20:00:52Z</time>
  <course>163.5</course>
  <speed>5.32</speed>
  <fix>3d</fix>
</trkpt>
<trkpt lat="-27.2334831" lon="151.3966745">
  <ele>537.68</ele>
  <time>2026-09-01T20:00:52Z</time>
  <course>196.51</course>
  <speed>6.138924987324735</speed>
  <fix>3d</fix>
</trkpt>
<trkpt lat="-27.2334725" lon="151.3966695">
  <ele>537.89</ele>
  <time>2026-09-01T20:00:52Z</time>
  <course>159.47</course>
  <speed>6.14</speed>
  <fix>3d</fix>
</trkpt>
<trkpt lat="-27.2334878" lon="151.3966777">
  <ele>537.72</ele>
  <time>2026-09-01T20:00:52Z</time>
  <course>192.54</course>
  <speed>5.903329568980542</speed>
  <fix>3d</fix>
</trkpt>
<trkpt lat="-27.2334725" lon="151.3966695">
  <ele>537.89</ele>
  <time>2026-09-01T20:00:52Z</time>
  <course>159.47</course>
  <speed>6.14</speed>
  <fix>3d</fix>
</trkpt>
<trkpt lat="-27.2334921" lon="151.396681">
  <ele>537.79</ele>
  <time>2026-09-01T20:00:52Z</time>
  <course>188.77</course>
  <speed>5.701973342624464</speed>
  <fix>3d</fix>
</trkpt>
<trkpt lat="-27.2334826" lon="151.3966745">
  <ele>537.71</ele>
  <time>2026-09-01T20:00:52Z</time>
  <course>152.17</course>
  <speed>6.1</speed>
  <fix>3d</fix>
</trkpt>
<trkpt lat="-27.2334962" lon="151.3966844">
  <ele>537.93</ele>
  <time>2026-09-01T20:00:52Z</time>
  <course>184.99</course>
  <speed>5.554043572029301</speed>
  <fix>3d</fix>
</trkpt>
<trkpt lat="-27.2334826" lon="151.3966745">
  <ele>537.71</ele>
  <time>2026-09-01T20:00:52Z</time>
  <course>152.17</course>
  <speed>6.1</speed>
  <fix>3d</fix>
</trkpt>
<trkpt lat="-27.2335001" lon="151.3966878">
  <ele>538.1</ele>
  <time>2026-09-01T20:00:52Z</time>
  <course>181.46</course>
  <speed>5.464951966852042</speed>
  <fix>3d</fix>
</trkpt>
<trkpt lat="-27.2334917" lon="151.3966808">
  <ele>537.81</ele>
  <time>2026-09-01T20:00:52Z</time>
  <course>145.41</course>
  <speed>5.74</speed>
  <fix>3d</fix>
</trkpt>
<trkpt lat="-27.2335039" lon="151.3966912">
  <ele>538.29</ele>
  <time>2026-09-01T20:00:52Z</time>
  <course>178.56</course>
  <speed>5.411561696959576</speed>
  <fix>3d</fix>
</trkpt>
<trkpt lat="-27.2334917" lon="151.3966808">
  <ele>537.81</ele>
  <time>2026-09-01T20:00:52Z</time>
  <course>145.41</course>
  <speed>5.74</speed>
  <fix>3d</fix>
</trkpt>
<trkpt lat="-27.2335077" lon="151.3966946">
  <ele>538.51</ele>
  <time>2026-09-01T20:00:52Z</time>
  <course>176.45</course>
  <speed>5.37398362483549</speed>
  <fix>3d</fix>
</trkpt>
<trkpt lat="-27.2334998" lon="151.3966876">
  <ele>538.1</ele>
  <time>2026-09-01T20:00:52Z</time>
  <course>142.31</course>
  <speed>5.49</speed>
  <fix>3d</fix>
</trkpt>
<trkpt lat="-27.2335115" lon="151.3966979">
  <ele>538.74</ele>
  <time>2026-09-01T20:00:52Z</time>
  <course>175.06</course>
  <speed>5.338052079176448</speed>
  <fix>3d</fix>
</trkpt>
<trkpt lat="-27.2334998" lon="151.3966876">
  <ele>538.1</ele>
  <time>2026-09-01T20:00:52Z</time>
  <course>142.31</course>
  <speed>5.49</speed>
  <fix>3d</fix>
</trkpt>
<trkpt lat="-27.2335153" lon="151.3967013">
  <ele>539.0</ele>
  <time>2026-09-01T20:00:52Z</time>
  <course>174.24</course>
  <speed>5.311591098719855</speed>
  <fix>3d</fix>
</trkpt>
<trkpt lat="-27.2335075" lon="151.3966944">
  <ele>538.5</ele>
  <time>2026-09-01T20:00:52Z</time>
  <course>141.64</course>
  <speed>5.38</speed>
  <fix>3d</fix>
</trkpt>
<trkpt lat="-27.233519" lon="151.3967046">
  <ele>539.28</ele>
  <time>2026-09-01T20:00:52Z</time>
  <course>173.81</course>
  <speed>5.299226358630097</speed>
  <fix>3d</fix>
</trkpt>
<trkpt lat="-27.2335075" lon="151.3966944">
  <ele>538.5</ele>
  <time>2026-09-01T20:00:52Z</time>
  <course>141.64</course>
  <speed>5.38</speed>
  <fix>3d</fix>
</trkpt>
<trkpt lat="-27.2335228" lon="151.3967079">
  <ele>539.57</ele>
  <time>2026-09-01T20:00:52Z</time>
  <course>173.62</course>
  <speed>5.294799335196754</speed>
  <fix>3d</fix>
</trkpt>
<trkpt lat="-27.233515" lon="151.3967011">
  <ele>538.99</ele>
  <time>2026-09-01T20:00:52Z</time>
  <course>141.73</course>
  <speed>5.32</speed>
  <fix>3d</fix>
</trkpt>
<trkpt lat="-27.2335265" lon="151.3967112">
  <ele>539.87</ele>
  <time>2026-09-01T20:00:52Z</time>
  <course>173.55</course>
  <speed>5.2922962880020235</speed>
  <fix>3d</fix>
</trkpt>
<trkpt lat="-27.233515" lon="151.3967011">
  <ele>538.99</ele>
  <time>2026-09-01T20:00:52Z</time>
  <course>141.73</course>
  <speed>5.32</speed>
  <fix>3d</fix>
</trkpt>
<trkpt lat="-27.2335303" lon="151.3967143">
  <ele>540.18</ele>
  <time>2026-09-01T20:00:52Z</time>
  <course>173.55</course>
  <speed>5.290037807048264</speed>
  <fix>3d</fix>
</trkpt>
<trkpt lat="-27.2335225" lon="151.3967076">
  <ele>539.55</ele>
  <time>2026-09-01T20:00:52Z</time>
  <course>142.17</course>
  <speed>5.3</speed>
  <fix>3d</fix>
</trkpt>
<trkpt lat="-27.2335341" lon="151.3967176">
  <ele>540.5</ele>
  <time>2026-09-01T20:00:52Z</time>
  <course>173.58</course>
  <speed>5.288024205693465</speed>
  <fix>3d</fix>
</trkpt>
<trkpt lat="-27.2335225" lon="151.3967076">
  <ele>539.55</ele>
  <time>2026-09-01T20:00:52Z</time>
  <course>142.17</course>
  <speed>5.3</speed>
  <fix>3d</fix>
</trkpt>
<trkpt lat="-27.2335379" lon="151.3967208">
  <ele>540.82</ele>
  <time>2026-09-01T20:00:52Z</time>
  <course>173.63</course>
  <speed>5.286255763770799</speed>
  <fix>3d</fix>
</trkpt>
<trkpt lat="-27.23353" lon="151.3967142">
  <ele>540.16</ele>
  <time>2026-09-01T20:00:52Z</time>
  <course>142.85</course>
  <speed>5.29</speed>
  <fix>3d</fix>
</trkpt>
<trkpt lat="-27.2335418" lon="151.3967238">
  <ele>541.13</ele>
  <time>2026-09-01T20:00:52Z</time>
  <course>173.7</course>
  <speed>5.292834779208586</speed>
  <fix>3d</fix>
</trkpt>
<trkpt lat="-27.23353" lon="151.3967142">
  <ele>540.16</ele>
  <time>2026-09-01T20:00:52Z</time>
  <course>142.85</course>
  <speed>5.29</speed>
  <fix>3d</fix>
</trkpt>
<trkpt lat="-27.2335457" lon="151.3967271">
  <ele>541.45</ele>
  <time>2026-09-01T20:00:52Z</time>
  <course>173.78</course>
  <speed>5.297405025104273</speed>
  <fix>3d</fix>
</trkpt>
<trkpt lat="-27.2335377" lon="151.3967206">
  <ele>540.8</ele>
  <time>2026-09-01T20:00:52Z</time>
  <course>143.68</course>
  <speed>5.29</speed>
  <fix>3d</fix>
</trkpt>
<trkpt lat="-27.2335496" lon="151.3967301">
  <ele>541.76</ele>
  <time>2026-09-01T20:00:52Z</time>
  <course>173.88</course>
  <speed>5.293958821146987</speed>
  <fix>3d</fix>
</trkpt>
<trkpt lat="-27.2335377" lon="151.3967206">
  <ele>540.8</ele>
  <time>2026-09-01T20:00:52Z</time>
  <course>143.68</course>
  <speed>5.29</speed>
  <fix>3d</fix>
</trkpt>
<trkpt lat="-27.2335535" lon="151.3967333">
  <ele>542.06</ele>
  <time>2026-09-01T20:00:52Z</time>
  <course>174.02</course>
  <speed>5.293958821146987</speed>
  <fix>3d</fix>
</trkpt>
<trkpt lat="-27.2335454" lon="151.3967268">
  <ele>541.43</ele>
  <time>2026-09-01T20:00:52Z</time>
  <course>144.38</course>
  <speed>5.3</speed>
  <fix>3d</fix>
</trkpt>
<trkpt lat="-27.2335573" lon="151.3967363">
  <ele>542.36</ele>
  <time>2026-09-01T20:00:52Z</time>
  <course>174.18</course>
  <speed>5.281145709029434</speed>
  <fix>3d</fix>
</trkpt>
<trkpt lat="-27.2335454" lon="151.3967268">
  <ele>541.43</ele>
  <time>2026-09-01T20:00:52Z</time>
  <course>144.38</course>
  <speed>5.3</speed>
  <fix>3d</fix>
</trkpt>
<trkpt lat="-27.2335612" lon="151.3967395">
  <ele>542.65</ele>
  <time>2026-09-01T20:00:52Z</time>
  <course>174.32</course>
  <speed>5.260465758846834</speed>
  <fix>3d</fix>
</trkpt>
<trkpt lat="-27.2335532" lon="151.3967331">
  <ele>542.04</ele>
  <time>2026-09-01T20:00:52Z</time>
  <course>144.52</course>
  <speed>5.29</speed>
  <fix>3d</fix>
</trkpt>
<trkpt lat="-27.2335649" lon="151.3967427">
  <ele>542.93</ele>
  <time>2026-09-01T20:00:52Z</time>
  <course>174.44</course>
  <speed>5.202018838873999</speed>
  <fix>3d</fix>
</trkpt>
<trkpt lat="-27.2335532" lon="151.3967331">
  <ele>542.04</ele>
  <time>2026-09-01T20:00:52Z</time>
  <course>144.52</course>
  <speed>5.29</speed>
  <fix>3d</fix>
</trkpt>
<trkpt lat="-27.2335686" lon="151.3967458">
  <ele>543.21</ele>
  <time>2026-09-01T20:00:52Z</time>
  <course>174.63</course>
  <speed>5.100245092149985</speed>
  <fix>3d</fix>
</trkpt>
<trkpt lat="-27.2335609" lon="151.3967393">
  <ele>542.63</ele>
  <time>2026-09-01T20:00:52Z</time>
  <course>143.83</course>
  <speed>5.25</speed>
  <fix>3d</fix>
</trkpt>
<trkpt lat="-27.2335722" lon="151.3967489">
  <ele>543.48</ele>
  <time>2026-09-01T20:00:52Z</time>
  <course>174.89</course>
  <speed>4.936972756659692</speed>
  <fix>3d</fix>
</trkpt>
<trkpt lat="-27.2335609" lon="151.3967393">
  <ele>542.63</ele>
  <time>2026-09-01T20:00:52Z</time>
  <course>143.83</course>
  <speed>5.25</speed>
  <fix>3d</fix>
</trkpt>
<trkpt lat="-27.2335756" lon="151.3967519">
  <ele>543.75</ele>
  <time>2026-09-01T20:00:52Z</time>
  <course>175.22</course>
  <speed>4.7180186519343055</speed>
  <fix>3d</fix>
</trkpt>
<trkpt lat="-27.2335683" lon="151.3967455">
  <ele>543.19</ele>
  <time>2026-09-01T20:00:52Z</time>
  <course>142.65</course>
  <speed>5.08</speed>
  <fix>3d</fix>
</trkpt>
<trkpt lat="-27.2335788" lon="151.3967549">
  <ele>544.02</ele>
  <time>2026-09-01T20:00:52Z</time>
  <course>175.6</course>
  <speed>4.443253312607779</speed>
  <fix>3d</fix>
</trkpt>
<trkpt lat="-27.2335683" lon="151.3967455">
  <ele>543.19</ele>
  <time>2026-09-01T20:00:52Z</time>
  <course>142.65</course>
  <speed>5.08</speed>
  <fix>3d</fix>
</trkpt>
<trkpt lat="-27.2335818" lon="151.3967576">
  <ele>544.28</ele>
  <time>2026-09-01T20:00:52Z</time>
  <course>176.04</course>
  <speed>4.126657242854075</speed>
  <fix>3d</fix>
</trkpt>
<trkpt lat="-27.2335753" lon="151.3967516">
  <ele>543.73</ele>
  <time>2026-09-01T20:00:52Z</time>
  <course>141.48</course>
  <speed>4.71</speed>
  <fix>3d</fix>
</trkpt>
<trkpt lat="-27.2335846" lon="151.3967602">
  <ele>544.54</ele>
  <time>2026-09-01T20:00:52Z</time>
  <course>176.55</course>
  <speed>3.7975913418902776</speed>
  <fix>3d</fix>
</trkpt>
<trkpt lat="-27.2335753" lon="151.3967516">
  <ele>543.73</ele>
  <time>2026-09-01T20:00:52Z</time>
  <course>141.48</course>
  <speed>4.71</speed>
  <fix>3d</fix>
</trkpt>
<trkpt lat="-27.2335871" lon="151.3967625">
  <ele>544.81</ele>
  <time>2026-09-01T20:00:52Z</time>
  <course>177.14</course>
  <speed>3.4557922391254947</speed>
  <fix>3d</fix>
</trkpt>
<trkpt lat="-27.2335815" lon="151.3967573">
  <ele>544.26</ele>
  <time>2026-09-01T20:00:52Z</time>
  <course>140.5</course>
  <speed>4.14</speed>
  <fix>3d</fix>
</trkpt>
<trkpt lat="-27.2335893" lon="151.3967647">
  <ele>545.07</ele>
  <time>2026-09-01T20:00:52Z</time>
  <course>177.83</course>
  <speed>3.1064449134018135</speed>
  <fix>3d</fix>
</trkpt>
<trkpt lat="-27.2335815" lon="151.3967573">
  <ele>544.26</ele>
  <time>2026-09-01T20:00:52Z</time>
  <course>140.5</course>
  <speed>4.14</speed>
  <fix>3d</fix>
</trkpt>
<trkpt lat="-27.2335913" lon="151.3967666">
  <ele>545.34</ele>
  <time>2026-09-01T20:00:52Z</time>
  <course>178.6</course>
  <speed>2.7572631357924475</speed>
  <fix>3d</fix>
</trkpt>
<trkpt lat="-27.2335868" lon="151.3967622">
  <ele>544.79</ele>
  <time>2026-09-01T20:00:52Z</time>
  <course>139.75</course>
  <speed>3.47</speed>
  <fix>3d</fix>
</trkpt>
<trkpt lat="-27.233593" lon="151.3967683">
  <ele>545.6</ele>
  <time>2026-09-01T20:00:52Z</time>
  <course>179.45</course>
  <speed>2.415802144216285</speed>
  <fix>3d</fix>
</trkpt>
<trkpt lat="-27.2335868" lon="151.3967622">
  <ele>544.79</ele>
  <time>2026-09-01T20:00:52Z</time>
  <course>139.75</course>
  <speed>3.47</speed>
  <fix>3d</fix>
</trkpt>
<trkpt lat="-27.2335946" lon="151.3967698">
  <ele>545.86</ele>
  <time>2026-09-01T20:00:52Z</time>
  <course>180.34</course>
  <speed>2.081970220728433</speed>
  <fix>3d</fix>
</trkpt>
<trkpt lat="-27.2335911" lon="151.3967664">
  <ele>545.32</ele>
  <time>2026-09-01T20:00:52Z</time>
  <course>139.03</course>
  <speed>2.78</speed>
  <fix>3d</fix>
</trkpt>
<trkpt lat="-27.2335958" lon="151.3967712">
  <ele>546.12</ele>
  <time>2026-09-01T20:00:52Z</time>
  <course>181.23</course>
  <speed>1.7550498568416797</speed>
  <fix>3d</fix>
</trkpt>
<trkpt lat="-27.2335911" lon="151.3967664">
  <ele>545.32</ele>
  <time>2026-09-01T20:00:52Z</time>
  <course>139.03</course>
  <speed>2.78</speed>
  <fix>3d</fix>
</trkpt>
<trkpt lat="-27.2335969" lon="151.3967722">
  <ele>546.37</ele>
  <time>2026-09-01T20:00:52Z</time>
  <course>182.06</course>
  <speed>1.45</speed>
  <fix>3d</fix>
</trkpt>
<trkpt lat="-27.2335944" lon="151.3967697">
  <ele>545.83</ele>
  <time>2026-09-01T20:00:52Z</time>
  <course>138.02</course>
  <speed>2.11</speed>
  <fix>3d</fix>
</trkpt>
<trkpt lat="-27.2335978" lon="151.3967733">
  <ele>546.58</ele>
  <time>2026-09-01T20:00:52Z</time>
  <course>182.65</course>
  <speed>1.4368368035375485</speed>
  <fix>3d</fix>
</trkpt>
<trkpt lat="-27.2335944" lon="151.3967697">
  <ele>545.83</ele>
  <time>2026-09-01T20:00:52Z</time>
  <course>138.02</course>
  <speed>2.11</speed>
  <fix>3d</fix>
</trkpt>
<trkpt lat="-27.2335988" lon="151.3967743">
  <ele>546.69</ele>
  <time>2026-09-01T20:00:52Z</time>
  <course>182.93</course>
  <speed>1.4442298985964803</speed>
  <fix>3d</fix>
</trkpt>
<trkpt lat="-27.2335968" lon="151.3967721">
  <ele>546.33</ele>
  <time>2026-09-01T20:00:52Z</time>
  <course>137.3</course>
  <speed>1.61</speed>
  <fix>3d</fix>
</trkpt>
<trkpt lat="-27.2335998" lon="151.3967751">
  <ele>546.69</ele>
  <time>2026-09-01T20:00:52Z</time>
  <course>183.03</course>
  <speed>1.430873858870865</speed>
  <fix>3d</fix>
</trkpt>
<trkpt lat="-27.2335968" lon="151.3967721">
  <ele>546.33</ele>
  <time>2026-09-01T20:00:52Z</time>
  <course>137.3</course>
  <speed>1.61</speed>
  <fix>3d</fix>
</trkpt>
<trkpt lat="-27.2336007" lon="151.3967762">
  <ele>546.61</ele>
  <time>2026-09-01T20:00:52Z</time>
  <course>182.93</course>
  <speed>1.3951702405083042</speed>
  <fix>3d</fix>
</trkpt>
<trkpt lat="-27.2335987" lon="151.3967741">
  <ele>546.63</ele>
  <time>2026-09-01T20:00:52Z</time>
  <course>137.75</course>
  <speed>1.44</speed>
  <fix>3d</fix>
</trkpt>
<trkpt lat="-27.2336016" lon="151.396777">
  <ele>546.43</ele>
  <time>2026-09-01T20:00:52Z</time>
  <course>182.47</course>
  <speed>1.3386933928274987</speed>
  <fix>3d</fix>
</trkpt>
<trkpt lat="-27.2335987" lon="151.3967741">
  <ele>546.63</ele>
  <time>2026-09-01T20:00:52Z</time>
  <course>137.75</course>
  <speed>1.44</speed>
  <fix>3d</fix>
</trkpt>
<trkpt lat="-27.2336025" lon="151.3967779">
  <ele>546.16</ele>
  <time>2026-09-01T20:00:52Z</time>
  <course>181.4</course>
  <speed>1.2408464852672147</speed>
  <fix>3d</fix>
</trkpt>
<trkpt lat="-27.2336006" lon="151.3967761">
  <ele>546.57</ele>
  <time>2026-09-01T20:00:52Z</time>
  <course>138.22</course>
  <speed>1.39</speed>
  <fix>3d</fix>
</trkpt>
<trkpt lat="-27.2336033" lon="151.3967788">
  <ele>545.84</ele>
  <time>2026-09-01T20:00:52Z</time>
  <course>179.64</course>
  <speed>1.1370136322841515</speed>
  <fix>3d</fix>
</trkpt>
<trkpt lat="-27.2336006" lon="151.3967761">
  <ele>546.57</ele>
  <time>2026-09-01T20:00:52Z</time>
  <course>138.22</course>
  <speed>1.39</speed>
  <fix>3d</fix>
</trkpt>
<trkpt lat="-27.2336041" lon="151.3967794">
  <ele>545.45</ele>
  <time>2026-09-01T20:00:52Z</time>
  <course>177.71</course>
  <speed>1.054229576515476</speed>
  <fix>3d</fix>
</trkpt>
<trkpt lat="-27.2336024" lon="151.3967779">
  <ele>546.14</ele>
  <time>2026-09-01T20:00:52Z</time>
  <course>139.36</course>
  <speed>1.25</speed>
  <fix>3d</fix>
</trkpt>
<trkpt lat="-27.2336048" lon="151.3967801">
  <ele>545.01</ele>
  <time>2026-09-01T20:00:52Z</time>
  <course>176.0</course>
  <speed>0.98812954616285</speed>
  <fix>3d</fix>
</trkpt>
<trkpt lat="-27.2336024" lon="151.3967779">
  <ele>546.14</ele>
  <time>2026-09-01T20:00:52Z</time>
  <course>139.36</course>
  <speed>1.25</speed>
  <fix>3d</fix>
</trkpt>
<trkpt lat="-27.2336056" lon="151.3967807">
  <ele>544.53</ele>
  <time>2026-09-01T20:00:52Z</time>
  <course>174.49</course>
  <speed>0.9403190947758107</speed>
  <fix>3d</fix>
</trkpt>
<trkpt lat="-27.233604" lon="151.3967794">
  <ele>545.44</ele>
  <time>2026-09-01T20:00:52Z</time>
  <course>142.04</course>
  <speed>1.07</speed>
  <fix>3d</fix>
</trkpt>
<trkpt lat="-27.2336063" lon="151.3967812">
  <ele>544.0</ele>
  <time>2026-09-01T20:00:52Z</time>
  <course>173.11</course>
  <speed>0.9441398201537736</speed>
  <fix>3d</fix>
</trkpt>
<trkpt lat="-27.233604" lon="151.3967794">
  <ele>545.44</ele>
  <time>2026-09-01T20:00:52Z</time>
  <course>142.04</course>
  <speed>1.07</speed>
  <fix>3d</fix>
</trkpt>
<trkpt lat="-27.2336071" lon="151.3967816">
  <ele>543.41</ele>
  <time>2026-09-01T20:00:52Z</time>
  <course>171.83</course>
  <speed>0.9940321926376429</speed>
  <fix>3d</fix>
</trkpt>
<trkpt lat="-27.2336055" lon="151.3967806">
  <ele>544.53</ele>
  <time>2026-09-01T20:00:52Z</time>
  <course>147.39</course>
  <speed>0.96</speed>
  <fix>3d</fix>
</trkpt>
<trkpt lat="-27.2336079" lon="151.396782">
  <ele>542.78</ele>
  <time>2026-09-01T20:00:52Z</time>
  <course>170.65</course>
  <speed>1.0791200118615167</speed>
  <fix>3d</fix>
</trkpt>
<trkpt lat="-27.2336055" lon="151.3967806">
  <ele>544.53</ele>
  <time>2026-09-01T20:00:52Z</time>
  <course>147.39</course>
  <speed>0.96</speed>
  <fix>3d</fix>
</trkpt>
<trkpt lat="-27.2336089" lon="151.3967824">
  <ele>542.07</ele>
  <time>2026-09-01T20:00:52Z</time>
  <course>169.59</course>
  <speed>1.3189768762188365</speed>
  <fix>3d</fix>
</trkpt>
<trkpt lat="-27.2336071" lon="151.3967815">
  <ele>543.42</ele>
  <time>2026-09-01T20:00:52Z</time>
  <course>155.49</course>
  <speed>1.01</speed>
  <fix>3d</fix>
</trkpt>
<trkpt lat="-27.2336105" lon="151.3967827">
  <ele>541.29</ele>
  <time>2026-09-01T20:00:52Z</time>
  <course>168.47</course>
  <speed>2.139252205795287</speed>
  <fix>3d</fix>
</trkpt>
<trkpt lat="-27.2336071" lon="151.3967815">
  <ele>543.42</ele>
  <time>2026-09-01T20:00:52Z</time>
  <course>155.49</course>
  <speed>1.01</speed>
  <fix>3d</fix>
</trkpt>
<trkpt lat="-27.2336125" lon="151.3967834">
  <ele>540.46</ele>
  <time>2026-09-01T20:00:52Z</time>
  <course>167.35</course>
  <speed>2.5034376365310163</speed>
  <fix>3d</fix>
</trkpt>
<trkpt lat="-27.2336091" lon="151.3967824">
  <ele>542.08</ele>
  <time>2026-09-01T20:00:52Z</time>
  <course>163.95</course>
  <speed>1.59</speed>
  <fix>3d</fix>
</trkpt>
<trkpt lat="-27.2336147" lon="151.3967839">
  <ele>539.53</ele>
  <time>2026-09-01T20:00:52Z</time>
  <course>166.38</course>
  <speed>2.45246814454337</speed>
  <fix>3d</fix>
</trkpt>
<trkpt lat="-27.2336091" lon="151.3967824">
  <ele>542.08</ele>
  <time>2026-09-01T20:00:52Z</time>
  <course>163.95</course>
  <speed>1.59</speed>
  <fix>3d</fix>
</trkpt>
<trkpt lat="-27.2336168" lon="151.3967845">
  <ele>538.5</ele>
  <time>2026-09-01T20:00:52Z</time>
  <course>165.6</course>
  <speed>2.234390297150433</speed>
  <fix>3d</fix>
</trkpt>
<trkpt lat="-27.2336125" lon="151.3967833">
  <ele>540.46</ele>
  <time>2026-09-01T20:00:52Z</time>
  <course>166.72</course>
  <speed>2.29</speed>
  <fix>3d</fix>
</trkpt>
<trkpt lat="-27.2336187" lon="151.396785">
  <ele>537.38</ele>
  <time>2026-09-01T20:00:52Z</time>
  <course>165.29</course>
  <speed>2.144411341137703</speed>
  <fix>3d</fix>
</trkpt>
<trkpt lat="-27.2336125" lon="151.3967833">
  <ele>540.46</ele>
  <time>2026-09-01T20:00:52Z</time>
  <course>166.72</course>
  <speed>2.29</speed>
  <fix>3d</fix>
</trkpt>
<trkpt lat="-27.2336207" lon="151.3967855">
  <ele>536.16</ele>
  <time>2026-09-01T20:00:52Z</time>
  <course>165.34</course>
  <speed>2.471457060116562</speed>
  <fix>3d</fix>
</trkpt>
<trkpt lat="-27.2336166" lon="151.3967844">
  <ele>538.51</ele>
  <time>2026-09-01T20:00:52Z</time>
  <course>166.99</course>
  <speed>2.3</speed>
  <fix>3d</fix>
</trkpt>
<trkpt lat="-27.2336232" lon="151.3967861">
  <ele>534.89</ele>
  <time>2026-09-01T20:00:52Z</time>
  <course>165.55</course>
  <speed>3.315569332708939</speed>
  <fix>3d</fix>
</trkpt>
<trkpt lat="-27.2336166" lon="151.3967844">
  <ele>538.51</ele>
  <time>2026-09-01T20:00:52Z</time>
  <course>166.99</course>
  <speed>2.3</speed>
  <fix>3d</fix>
</trkpt>
<trkpt lat="-27.2336266" lon="151.3967872">
  <ele>533.54</ele>
  <time>2026-09-01T20:00:52Z</time>
  <course>165.81</course>
  <speed>4.543236731670495</speed>
  <fix>3d</fix>
</trkpt>
<trkpt lat="-27.2336208" lon="151.3967855">
  <ele>536.19</ele>
  <time>2026-09-01T20:00:52Z</time>
  <course>166.04</course>
  <speed>2.7</speed>
  <fix>3d</fix>
</trkpt>
<trkpt lat="-27.2336311" lon="151.3967885">
  <ele>532.18</ele>
  <time>2026-09-01T20:00:52Z</time>
  <course>165.99</course>
  <speed>5.928178472347135</speed>
  <fix>3d</fix>
</trkpt>
<trkpt lat="-27.2336208" lon="151.3967855">
  <ele>536.19</ele>
  <time>2026-09-01T20:00:52Z</time>
  <course>166.04</course>
  <speed>2.7</speed>
  <fix>3d</fix>
</trkpt>
<trkpt lat="-27.2336369" lon="151.3967903">
  <ele>530.79</ele>
  <time>2026-09-01T20:00:52Z</time>
  <course>166.05</course>
  <speed>7.27648266678345</speed>
  <fix>3d</fix>
</trkpt>
<trkpt lat="-27.2336269" lon="151.3967873">
  <ele>533.6</ele>
  <time>2026-09-01T20:00:52Z</time>
  <course>165.21</course>
  <speed>4.56</speed>
  <fix>3d</fix>
</trkpt>
<trkpt lat="-27.2336437" lon="151.3967922">
  <ele>529.4</ele>
  <time>2026-09-01T20:00:52Z</time>
  <course>166.01</course>
  <speed>8.537405929203555</speed>
  <fix>3d</fix>
</trkpt>
<trkpt lat="-27.2336269" lon="151.3967873">
  <ele>533.6</ele>
  <time>2026-09-01T20:00:52Z</time>
  <course>165.21</course>
  <speed>4.56</speed>
  <fix>3d</fix>
</trkpt>
<trkpt lat="-27.2336517" lon="151.3967946">
  <ele>528.01</ele>
  <time>2026-09-01T20:00:52Z</time>
  <course>165.93</course>
  <speed>9.757238338792385</speed>
  <fix>3d</fix>
</trkpt>
<trkpt lat="-27.2336371" lon="151.3967903">
  <ele>530.86</ele>
  <time>2026-09-01T20:00:52Z</time>
  <course>165.36</course>
  <speed>7.17</speed>
  <fix>3d</fix>
</trkpt>
<trkpt lat="-27.2336608" lon="151.396797">
  <ele>526.64</ele>
  <time>2026-09-01T20:00:52Z</time>
  <course>165.83</course>
  <speed>10.98929024095733</speed>
  <fix>3d</fix>
</trkpt>
<trkpt lat="-27.2336371" lon="151.3967903">
  <ele>530.86</ele>
  <time>2026-09-01T20:00:52Z</time>
  <course>165.36</course>
  <speed>7.17</speed>
  <fix>3d</fix>
</trkpt>
<trkpt lat="-27.2336709" lon="151.3967999">
  <ele>525.31</ele>
  <time>2026-09-01T20:00:52Z</time>
  <course>165.76</course>
  <speed>12.23349909061181</speed>
  <fix>3d</fix>
</trkpt>
<trkpt lat="-27.2336518" lon="151.3967946">
  <ele>528.08</ele>
  <time>2026-09-01T20:00:52Z</time>
  <course>165.76</course>
  <speed>9.7</speed>
  <fix>3d</fix>
</trkpt>
<trkpt lat="-27.2336821" lon="151.3968031">
  <ele>524.03</ele>
  <time>2026-09-01T20:00:52Z</time>
  <course>165.69</course>
  <speed>13.460728063518705</speed>
  <fix>3d</fix>
</trkpt>
<trkpt lat="-27.2336518" lon="151.3967946">
  <ele>528.08</ele>
  <time>2026-09-01T20:00:52Z</time>
  <course>165.76</course>
  <speed>9.7</speed>
  <fix>3d</fix>
</trkpt>
<trkpt lat="-27.2336943" lon="151.3968066">
  <ele>522.83</ele>
  <time>2026-09-01T20:00:52Z</time>
  <course>165.65</course>
  <speed>14.610355916267064</speed>
  <fix>3d</fix>
</trkpt>
<trkpt lat="-27.2336709" lon="151.3967999">
  <ele>525.4</ele>
  <time>2026-09-01T20:00:52Z</time>
  <course>165.95</course>
  <speed>12.16</speed>
  <fix>3d</fix>
</trkpt>
<trkpt lat="-27.2337075" lon="151.3968103">
  <ele>521.72</ele>
  <time>2026-09-01T20:00:52Z</time>
  <course>165.6</course>
  <speed>15.660616207544324</speed>
  <fix>3d</fix>
</trkpt>
<trkpt lat="-27.2336709" lon="151.3967999">
  <ele>525.4</ele>
  <time>2026-09-01T20:00:52Z</time>
  <course>165.95</course>
  <speed>12.16</speed>
  <fix>3d</fix>
</trkpt>
<trkpt lat="-27.2337216" lon="151.3968143">
  <ele>520.7</ele>
  <time>2026-09-01T20:00:52Z</time>
  <course>165.56</course>
  <speed>16.58973477786791</speed>
  <fix>3d</fix>
</trkpt>
<trkpt lat="-27.2336941" lon="151.3968065">
  <ele>522.93</ele>
  <time>2026-09-01T20:00:52Z</time>
  <course>165.85</course>
  <speed>14.5</speed>
  <fix>3d</fix>
</trkpt>
<trkpt lat="-27.2337363" lon="151.3968186">
  <ele>519.81</ele>
  <time>2026-09-01T20:00:52Z</time>
  <course>165.52</course>
  <speed>17.373396328870186</speed>
  <fix>3d</fix>
</trkpt>
<trkpt lat="-27.2336941" lon="151.3968065">
  <ele>522.93</ele>
  <time>2026-09-01T20:00:52Z</time>
  <course>165.85</course>
  <speed>14.5</speed>
  <fix>3d</fix>
</trkpt>
<trkpt lat="-27.2337517" lon="151.3968231">
  <ele>519.03</ele>
  <time>2026-09-01T20:00:52Z</time>
  <course>165.48</course>
  <speed>17.999369433399604</speed>
  <fix>3d</fix>
</trkpt>
<trkpt lat="-27.2337212" lon="151.3968142">
  <ele>520.81</ele>
  <time>2026-09-01T20:00:52Z</time>
  <course>165.62</course>
  <speed>16.47</speed>
  <fix>3d</fix>
</trkpt>
<trkpt lat="-27.2337676" lon="151.3968277">
  <ele>518.39</ele>
  <time>2026-09-01T20:00:52Z</time>
  <course>165.45</course>
  <speed>18.467606775107598</speed>
  <fix>3d</fix>
</trkpt>
<trkpt lat="-27.2337212" lon="151.3968142">
  <ele>520.81</ele>
  <time>2026-09-01T20:00:52Z</time>
  <course>165.62</course>
  <speed>16.47</speed>
  <fix>3d</fix>
</trkpt>
<trkpt lat="-27.2337838" lon="151.3968325">
  <ele>517.88</ele>
  <time>2026-09-01T20:00:52Z</time>
  <course>165.42</course>
  <speed>18.76840962894832</speed>
  <fix>3d</fix>
</trkpt>
<trkpt lat="-27.2337512" lon="151.3968229">
  <ele>519.13</ele>
  <time>2026-09-01T20:00:52Z</time>
  <course>165.43</course>
  <speed>17.89</speed>
  <fix>3d</fix>
</trkpt>
<trkpt lat="-27.2338003" lon="151.3968373">
  <ele>517.49</ele>
  <time>2026-09-01T20:00:52Z</time>
  <course>165.41</course>
  <speed>18.89209623096389</speed>
  <fix>3d</fix>
</trkpt>
<trkpt lat="-27.2337512" lon="151.3968229">
  <ele>519.13</ele>
  <time>2026-09-01T20:00:52Z</time>
  <course>165.43</course>
  <speed>17.89</speed>
  <fix>3d</fix>
</trkpt>
<trkpt lat="-27.2338167" lon="151.3968421">
  <ele>517.2</ele>
  <time>2026-09-01T20:00:52Z</time>
  <course>165.39</course>
  <speed>18.89209623096389</speed>
  <fix>3d</fix>
</trkpt>
<trkpt lat="-27.2337832" lon="151.3968324">
  <ele>517.95</ele>
  <time>2026-09-01T20:00:52Z</time>
  <course>165.36</course>
  <speed>18.67</speed>
  <fix>3d</fix>
</trkpt>
<trkpt lat="-27.2338331" lon="151.3968469">
  <ele>516.96</ele>
  <time>2026-09-01T20:00:52Z</time>
  <course>165.38</course>
  <speed>18.816793031757562</speed>
  <fix>3d</fix>
</trkpt>
<trkpt lat="-27.2337832" lon="151.3968324">
  <ele>517.95</ele>
  <time>2026-09-01T20:00:52Z</time>
  <course>165.36</course>
  <speed>18.67</speed>
  <fix>3d</fix>
</trkpt>
<trkpt lat="-27.2338494" lon="151.3968517">
  <ele>516.76</ele>
  <time>2026-09-01T20:00:52Z</time>
  <course>165.37</course>
  <speed>18.72213930083846</speed>
  <fix>3d</fix>
</trkpt>
<trkpt lat="-27.2338159" lon="151.396842">
  <ele>517.24</ele>
  <time>2026-09-01T20:00:52Z</time>
  <course>165.37</course>
  <speed>18.86</speed>
  <fix>3d</fix>
</trkpt>
<trkpt lat="-27.2338657" lon="151.3968566">
  <ele>516.57</ele>
  <time>2026-09-01T20:00:52Z</time>
  <course>165.36</course>
  <speed>18.608129943656348</speed>
  <fix>3d</fix>
</trkpt>
<trkpt lat="-27.2338159" lon="151.396842">
  <ele>517.24</ele>
  <time>2026-09-01T20:00:52Z</time>
  <course>165.37</course>
  <speed>18.86</speed>
  <fix>3d</fix>
</trkpt>
<trkpt lat="-27.2338818" lon="151.3968612">
  <ele>516.39</ele>
  <time>2026-09-01T20:00:52Z</time>
  <course>165.36</course>
  <speed>18.484442106809716</speed>
  <fix>3d</fix>
</trkpt>
<trkpt lat="-27.2338486" lon="151.3968515">
  <ele>516.77</ele>
  <time>2026-09-01T20:00:52Z</time>
  <course>165.4</course>
  <speed>18.72</speed>
  <fix>3d</fix>
</trkpt>
<trkpt lat="-27.2338978" lon="151.396866">
  <ele>516.22</ele>
  <time>2026-09-01T20:00:52Z</time>
  <course>165.37</course>
  <speed>18.372950225807504</speed>
  <fix>3d</fix>
</trkpt>
<trkpt lat="-27.2338486" lon="151.3968515">
  <ele>516.77</ele>
  <time>2026-09-01T20:00:52Z</time>
  <course>165.4</course>
  <speed>18.72</speed>
  <fix>3d</fix>
</trkpt>
<trkpt lat="-27.2339137" lon="151.3968706">
  <ele>516.04</ele>
  <time>2026-09-01T20:00:52Z</time>
  <course>165.38</course>
  <speed>18.24926299881724</speed>
  <fix>3d</fix>
</trkpt>
<trkpt lat="-27.2338809" lon="151.396861">
  <ele>516.4</ele>
  <time>2026-09-01T20:00:52Z</time>
  <course>165.4</course>
  <speed>18.5</speed>
  <fix>3d</fix>
</trkpt>
<trkpt lat="-27.2339295" lon="151.3968753">
  <ele>515.88</ele>
  <time>2026-09-01T20:00:52Z</time>
  <course>165.38</course>
  <speed>18.135252962117733</speed>
  <fix>3d</fix>
</trkpt>
<trkpt lat="-27.2338809" lon="151.396861">
  <ele>516.4</ele>
  <time>2026-09-01T20:00:52Z</time>
  <course>165.4</course>
  <speed>18.5</speed>
  <fix>3d</fix>
</trkpt>
<trkpt lat="-27.2339452" lon="151.3968798">
  <ele>515.71</ele>
  <time>2026-09-01T20:00:52Z</time>
  <course>165.38</course>
  <speed>18.023764867529756</speed>
  <fix>3d</fix>
</trkpt>
<trkpt lat="-27.2339128" lon="151.3968703">
  <ele>516.06</ele>
  <time>2026-09-01T20:00:52Z</time>
  <course>165.39</course>
  <speed>18.26</speed>
  <fix>3d</fix>
</trkpt>
<trkpt lat="-27.2339609" lon="151.3968845">
  <ele>515.54</ele>
  <time>2026-09-01T20:00:52Z</time>
  <course>165.37</course>
  <speed>17.909754325506533</speed>
  <fix>3d</fix>
</trkpt>
<trkpt lat="-27.2339128" lon="151.3968703">
  <ele>516.06</ele>
  <time>2026-09-01T20:00:52Z</time>
  <course>165.39</course>
  <speed>18.26</speed>
  <fix>3d</fix>
</trkpt>
<trkpt lat="-27.2339764" lon="151.3968889">
  <ele>515.38</ele>
  <time>2026-09-01T20:00:52Z</time>
  <course>165.36</course>
  <speed>17.79826957881018</speed>
  <fix>3d</fix>
</trkpt>
<trkpt lat="-27.2339444" lon="151.3968795">
  <ele>515.71</ele>
  <time>2026-09-01T20:00:52Z</time>
  <course>165.36</course>
  <speed>18.03</speed>
  <fix>3d</fix>
</trkpt>
<trkpt lat="-27.2339918" lon="151.3968936">
  <ele>515.21</ele>
  <time>2026-09-01T20:00:52Z</time>
  <course>165.35</course>
  <speed>17.686788854961772</speed>
  <fix>3d</fix>
</trkpt>
<trkpt lat="-27.2339444" lon="151.3968795">
  <ele>515.71</ele>
  <time>2026-09-01T20:00:52Z</time>
  <course>165.36</course>
  <speed>18.03</speed>
  <fix>3d</fix>
</trkpt>
<trkpt lat="-27.2321602" lon="151.4009245">
  <ele>542.95</ele>
  <time>2026-09-01T20:00:52Z</time>
  <course>250.01</course>
  <speed>0.0</speed>
  <fix>3d</fix>
</trkpt>
<trkpt lat="-27.2339755" lon="151.3968888">
  <ele>515.38</ele>
  <time>2026-09-01T20:00:52Z</time>
  <course>165.34</course>
  <speed>17.8</speed>
  <fix>3d</fix>
</trkpt>
<trkpt lat="-27.2321603" lon="151.4009245">
  <ele>542.82</ele>
  <time>2026-09-01T20:00:52Z</time>
  <course>250.01</course>
  <speed>0.01</speed>
  <fix>3d</fix>
</trkpt>
<trkpt lat="-27.2339755" lon="151.3968888">
  <ele>515.38</ele>
  <time>2026-09-01T20:00:52Z</time>
  <course>165.34</course>
  <speed>17.8</speed>
  <fix>3d</fix>
</trkpt>
<trkpt lat="-27.2321603" lon="151.4009243">
  <ele>542.59</ele>
  <time>2026-09-01T20:00:52Z</time>
  <course>250.02</course>
  <speed>0.05830951894845301</speed>
  <fix>3d</fix>
</trkpt>
<trkpt lat="-27.2330756" lon="151.3989089">
  <ele>529.02</ele>
  <time>2026-09-01T20:00:52Z</time>
  <course>165.38</course>
  <speed>8.85</speed>
  <fix>3d</fix>
</trkpt>
<trkpt lat="-27.2321603" lon="151.4009242">
  <ele>542.28</ele>
  <time>2026-09-01T20:00:52Z</time>
  <course>250.67</course>
  <speed>0.13601470508735444</speed>
  <fix>3d</fix>
</trkpt>
<trkpt lat="-27.2330756" lon="151.3989089">
  <ele>529.02</ele>
  <time>2026-09-01T20:00:52Z</time>
  <course>165.38</course>
  <speed>8.85</speed>
  <fix>3d</fix>
</trkpt>
<trkpt lat="-27.2321603" lon="151.4009241">
  <ele>541.89</ele>
  <time>2026-09-01T20:00:52Z</time>
  <course>253.92</course>
  <speed>0.29614185789921693</speed>
  <fix>3d</fix>
</trkpt>
<trkpt lat="-27.2321603" lon="151.4009244">
  <ele>542.56</ele>
  <time>2026-09-01T20:00:52Z</time>
  <course>249.11</course>
  <speed>0.07</speed>
  <fix>3d</fix>
</trkpt>
<trkpt lat="-27.2321602" lon="151.4009237">
  <ele>541.44</ele>
  <time>2026-09-01T20:00:52Z</time>
  <course>263.5</course>
  <speed>0.4802082881417188</speed>
  <fix>3d</fix>
</trkpt>
<trkpt lat="-27.2321603" lon="151.4009244">
  <ele>542.56</ele>
  <time>2026-09-01T20:00:52Z</time>
  <course>249.11</course>
  <speed>0.07</speed>
  <fix>3d</fix>
</trkpt>
<trkpt lat="-27.2321601" lon="151.4009233">
  <ele>540.91</ele>
  <time>2026-09-01T20:00:52Z</time>
  <course>265.0</course>
  <speed>0.4522167621838005</speed>
  <fix>3d</fix>
</trkpt>
<trkpt lat="-27.2321602" lon="151.4009241">
  <ele>541.87</ele>
  <time>2026-09-01T20:00:52Z</time>
  <course>289.76</course>
  <speed>0.28</speed>
  <fix>3d</fix>
</trkpt>
<trkpt lat="-27.2321609" lon="151.4009231">
  <ele>540.33</ele>
  <time>2026-09-01T20:00:52Z</time>
  <course>252.29</course>
  <speed>1.7207265907168403</speed>
  <fix>3d</fix>
</trkpt>
<trkpt lat="-27.2321602" lon="151.4009241">
  <ele>541.87</ele>
  <time>2026-09-01T20:00:52Z</time>
  <course>289.76</course>
  <speed>0.28</speed>
  <fix>3d</fix>
</trkpt>
<trkpt lat="-27.232163" lon="151.4009233">
  <ele>539.76</ele>
  <time>2026-09-01T20:00:52Z</time>
  <course>242.44</course>
  <speed>2.9811742652854094</speed>
  <fix>3d</fix>
</trkpt>
<trkpt lat="-27.2321605" lon="151.4009234">
  <ele>540.9</ele>
  <time>2026-09-01T20:00:52Z</time>
  <course>198.54</course>
  <speed>0.75</speed>
  <fix>3d</fix>
</trkpt>
<trkpt lat="-27.2321661" lon="151.400924">
  <ele>539.23</ele>
  <time>2026-09-01T20:00:52Z</time>
  <course>234.56</course>
  <speed>3.9417889339740144</speed>
  <fix>3d</fix>
</trkpt>
<trkpt lat="-27.2321605" lon="151.4009234">
  <ele>540.9</ele>
  <time>2026-09-01T20:00:52Z</time>
  <course>198.54</course>
  <speed>0.75</speed>
  <fix>3d</fix>
</trkpt>
<trkpt lat="-27.2321698" lon="151.4009251">
  <ele>538.76</ele>
  <time>2026-09-01T20:00:52Z</time>
  <course>227.64</course>
  <speed>4.653815638806505</speed>
  <fix>3d</fix>
</trkpt>
<trkpt lat="-27.2321633" lon="151.4009234">
  <ele>539.8</ele>
  <time>2026-09-01T20:00:52Z</time>
  <course>171.62</course>
  <speed>2.76</speed>
  <fix>3d</fix>
</trkpt>
<trkpt lat="-27.2321742" lon="151.4009265">
  <ele>538.36</ele>
  <time>2026-09-01T20:00:52Z</time>
  <course>221.01</course>
  <speed>5.453228401598451</speed>
  <fix>3d</fix>
</trkpt>
<trkpt lat="-27.2321633" lon="151.4009234">
  <ele>539.8</ele>
  <time>2026-09-01T20:00:52Z</time>
  <course>171.62</course>
  <speed>2.76</speed>
  <fix>3d</fix>
</trkpt>
<trkpt lat="-27.2321792" lon="151.4009281">
  <ele>538.06</ele>
  <time>2026-09-01T20:00:52Z</time>
  <course>213.86</course>
  <speed>5.983995320853786</speed>
  <fix>3d</fix>
</trkpt>
<trkpt lat="-27.2321699" lon="151.4009251">
  <ele>538.81</ele>
  <time>2026-09-01T20:00:52Z</time>
  <course>165.23</course>
  <speed>4.66</speed>
  <fix>3d</fix>
</trkpt>
<trkpt lat="-27.2321844" lon="151.4009302">
  <ele>537.84</ele>
  <time>2026-09-01T20:00:52Z</time>
  <course>207.07</course>
  <speed>6.277021586708142</speed>
  <fix>3d</fix>
</trkpt>
<trkpt lat="-27.2321699" lon="151.4009251">
  <ele>538.81</ele>
  <time>2026-09-01T20:00:52Z</time>
  <course>165.23</course>
  <speed>4.66</speed>
  <fix>3d</fix>
</trkpt>
<trkpt lat="-27.2321897" lon="151.4009326">
  <ele>537.71</ele>
  <time>2026-09-01T20:00:52Z</time>
  <course>201.15</course>
  <speed>6.3246343767841635</speed>
  <fix>3d</fix>
</trkpt>
<trkpt lat="-27.232179" lon="151.4009282">
  <ele>538.11</ele>
  <time>2026-09-01T20:00:52Z</time>
  <course>161.77</course>
  <speed>5.84</speed>
  <fix>3d</fix>
</trkpt>
<trkpt lat="-27.2321947" lon="151.4009353">
  <ele>537.66</ele>
  <time>2026-09-01T20:00:52Z</time>
  <course>196.31</course>
  <speed>6.185208161412192</speed>
  <fix>3d</fix>
</trkpt>
<trkpt lat="-27.232179" lon="151.4009282">
  <ele>538.11</ele>
  <time>2026-09-01T20:00:52Z</time>
  <course>161.77</course>
  <speed>5.84</speed>
  <fix>3d</fix>
</trkpt>
<trkpt lat="-27.2321994" lon="151.4009386">
  <ele>537.69</ele>
  <time>2026-09-01T20:00:52Z</time>
  <course>192.33</course>
  <speed>5.963430220938282</speed>
  <fix>3d</fix>
</trkpt>
<trkpt lat="-27.2321893" lon="151.4009327">
  <ele>537.75</ele>
  <time>2026-09-01T20:00:52Z</time>
  <course>155.68</course>
  <speed>6.22</speed>
  <fix>3d</fix>
</trkpt>
<trkpt lat="-27.2322038" lon="151.4009419">
  <ele>537.77</ele>
  <time>2026-09-01T20:00:52Z</time>
  <course>188.58</course>
  <speed>5.762612254871917</speed>
  <fix>3d</fix>
</trkpt>
<trkpt lat="-27.2321893" lon="151.4009327">
  <ele>537.75</ele>
  <time>2026-09-01T20:00:52Z</time>
  <course>155.68</course>
  <speed>6.22</speed>
  <fix>3d</fix>
</trkpt>
<trkpt lat="-27.2322078" lon="151.4009453">
  <ele>537.89</ele>
  <time>2026-09-01T20:00:52Z</time>
  <course>184.77</course>
  <speed>5.616689416373314</speed>
  <fix>3d</fix>
</trkpt>
<trkpt lat="-27.232199" lon="151.4009385">
  <ele>537.7</ele>
  <time>2026-09-01T20:00:52Z</time>
  <course>147.87</course>
  <speed>5.97</speed>
  <fix>3d</fix>
</trkpt>
<trkpt lat="-27.2322118" lon="151.4009489">
  <ele>538.04</ele>
  <time>2026-09-01T20:00:52Z</time>
  <course>181.14</course>
  <speed>5.528553156115984</speed>
  <fix>3d</fix>
</trkpt>
<trkpt lat="-27.232199" lon="151.4009385">
  <ele>537.7</ele>
  <time>2026-09-01T20:00:52Z</time>
  <course>147.87</course>
  <speed>5.97</speed>
  <fix>3d</fix>
</trkpt>
<trkpt lat="-27.2322156" lon="151.4009524">
  <ele>538.23</ele>
  <time>2026-09-01T20:00:52Z</time>
  <course>178.12</course>
  <speed>5.467732619651404</speed>
  <fix>3d</fix>
</trkpt>
<trkpt lat="-27.2322076" lon="151.4009452">
  <ele>537.9</ele>
  <time>2026-09-01T20:00:52Z</time>
  <course>142.74</course>
  <speed>5.65</speed>
  <fix>3d</fix>
</trkpt>
<trkpt lat="-27.2322194" lon="151.4009558">
  <ele>538.44</ele>
  <time>2026-09-01T20:00:52Z</time>
  <course>175.91</course>
  <speed>5.424066740002376</speed>
  <fix>3d</fix>
</trkpt>
<trkpt lat="-27.2322076" lon="151.4009452">
  <ele>537.9</ele>
  <time>2026-09-01T20:00:52Z</time>
  <course>142.74</course>
  <speed>5.65</speed>
  <fix>3d</fix>
</trkpt>
<trkpt lat="-27.2322232" lon="151.4009592">
  <ele>538.66</ele>
  <time>2026-09-01T20:00:52Z</time>
  <course>174.43</course>
  <speed>5.403702434442518</speed>
  <fix>3d</fix>
</trkpt>
<trkpt lat="-27.2322154" lon="151.4009522">
  <ele>538.23</ele>
  <time>2026-09-01T20:00:52Z</time>
  <course>141.13</course>
  <speed>5.48</speed>
  <fix>3d</fix>
</trkpt>
<trkpt lat="-27.232227" lon="151.4009626">
  <ele>538.91</ele>
  <time>2026-09-01T20:00:52Z</time>
  <course>173.56</course>
  <speed>5.3833539731286475</speed>
  <fix>3d</fix>
</trkpt>
<trkpt lat="-27.2322154" lon="151.4009522">
  <ele>538.23</ele>
  <time>2026-09-01T20:00:52Z</time>
  <course>141.13</course>
  <speed>5.48</speed>
  <fix>3d</fix>
</trkpt>
<trkpt lat="-27.2322307" lon="151.4009662">
  <ele>539.19</ele>
  <time>2026-09-01T20:00:52Z</time>
  <course>173.09</course>
  <speed>5.370819304351991</speed>
  <fix>3d</fix>
</trkpt>
<trkpt lat="-27.232223" lon="151.4009591">
  <ele>538.67</ele>
  <time>2026-09-01T20:00:52Z</time>
  <course>140.98</course>
  <speed>5.41</speed>
  <fix>3d</fix>
</trkpt>
<trkpt lat="-27.2322344" lon="151.4009695">
  <ele>539.47</ele>
  <time>2026-09-01T20:00:52Z</time>
  <course>172.89</course>
  <speed>5.366153184544772</speed>
  <fix>3d</fix>
</trkpt>
<trkpt lat="-27.232223" lon="151.4009591">
  <ele>538.67</ele>
  <time>2026-09-01T20:00:52Z</time>
  <course>140.98</course>
  <speed>5.41</speed>
  <fix>3d</fix>
</trkpt>
<trkpt lat="-27.2322383" lon="151.4009729">
  <ele>539.76</ele>
  <time>2026-09-01T20:00:52Z</time>
  <course>172.82</course>
  <speed>5.363254608910526</speed>
  <fix>3d</fix>
</trkpt>
<trkpt lat="-27.2322305" lon="151.4009659">
  <ele>539.18</ele>
  <time>2026-09-01T20:00:52Z</time>
  <course>141.28</course>
  <speed>5.38</speed>
  <fix>3d</fix>
</trkpt>
<trkpt lat="-27.232242" lon="151.4009762">
  <ele>540.07</ele>
  <time>2026-09-01T20:00:52Z</time>
  <course>172.83</course>
  <speed>5.360596981680305</speed>
  <fix>3d</fix>
</trkpt>
<trkpt lat="-27.2322305" lon="151.4009659">
  <ele>539.18</ele>
  <time>2026-09-01T20:00:52Z</time>
  <course>141.28</course>
  <speed>5.38</speed>
  <fix>3d</fix>
</trkpt>
<trkpt lat="-27.2322459" lon="151.4009795">
  <ele>540.38</ele>
  <time>2026-09-01T20:00:52Z</time>
  <course>172.87</course>
  <speed>5.358180661381249</speed>
  <fix>3d</fix>
</trkpt>
<trkpt lat="-27.232238" lon="151.4009727">
  <ele>539.76</ele>
  <time>2026-09-01T20:00:52Z</time>
  <course>141.85</course>
  <speed>5.36</speed>
  <fix>3d</fix>
</trkpt>
<trkpt lat="-27.2322498" lon="151.4009827">
  <ele>540.69</ele>
  <time>2026-09-01T20:00:52Z</time>
  <course>172.94</course>
  <speed>5.364000372856065</speed>
  <fix>3d</fix>
</trkpt>
<trkpt lat="-27.232238" lon="151.4009727">
  <ele>539.76</ele>
  <time>2026-09-01T20:00:52Z</time>
  <course>141.85</course>
  <speed>5.36</speed>
  <fix>3d</fix>
</trkpt>
<trkpt lat="-27.2322536" lon="151.400986">
  <ele>541.0</ele>
  <time>2026-09-01T20:00:52Z</time>
  <course>173.02</course>
  <speed>5.37014897372503</speed>
  <fix>3d</fix>
</trkpt>
<trkpt lat="-27.2322457" lon="151.4009793">
  <ele>540.37</ele>
  <time>2026-09-01T20:00:52Z</time>
  <course>142.61</course>
  <speed>5.36</speed>
  <fix>3d</fix>
</trkpt>
<trkpt lat="-27.2322575" lon="151.4009893">
  <ele>541.32</ele>
  <time>2026-09-01T20:00:52Z</time>
  <course>173.1</course>
  <speed>5.368537976022894</speed>
  <fix>3d</fix>
</trkpt>
<trkpt lat="-27.2322457" lon="151.4009793">
  <ele>540.37</ele>
  <time>2026-09-01T20:00:52Z</time>
  <course>142.61</course>
  <speed>5.36</speed>
  <fix>3d</fix>
</trkpt>
<trkpt lat="-27.2322614" lon="151.4009925">
  <ele>541.62</ele>
  <time>2026-09-01T20:00:52Z</time>
  <course>173.21</course>
  <speed>5.378856755854351</speed>
  <fix>3d</fix>
</trkpt>
<trkpt lat="-27.2322534" lon="151.4009859">
  <ele>540.99</ele>
  <time>2026-09-01T20:00:52Z</time>
  <course>143.46</course>
  <speed>5.37</speed>
  <fix>3d</fix>
</trkpt>
<trkpt lat="-27.2322653" lon="151.4009955">
  <ele>541.91</ele>
  <time>2026-09-01T20:00:52Z</time>
  <course>173.34</course>
  <speed>5.373006607105561</speed>
  <fix>3d</fix>
</trkpt>
<trkpt lat="-27.2322534" lon="151.4009859">
  <ele>540.99</ele>
  <time>2026-09-01T20:00:52Z</time>
  <course>143.46</course>
  <speed>5.37</speed>
  <fix>3d</fix>
</trkpt>
<trkpt lat="-27.2322693" lon="151.4009988">
  <ele>542.22</ele>
  <time>2026-09-01T20:00:52Z</time>
  <course>173.5</course>
  <speed>5.364895152749958</speed>
  <fix>3d</fix>
</trkpt>
<trkpt lat="-27.2322612" lon="151.4009922">
  <ele>541.6</ele>
  <time>2026-09-01T20:00:52Z</time>
  <course>144.07</course>
  <speed>5.38</speed>
  <fix>3d</fix>
</trkpt>
<trkpt lat="-27.2322732" lon="151.401002">
  <ele>542.51</ele>
  <time>2026-09-01T20:00:52Z</time>
  <course>173.66</course>
  <speed>5.352382647008714</speed>
  <fix>3d</fix>
</trkpt>
<trkpt lat="-27.2322612" lon="151.4009922">
  <ele>541.6</ele>
  <time>2026-09-01T20:00:52Z</time>
  <course>144.07</course>
  <speed>5.38</speed>
  <fix>3d</fix>
</trkpt>
<trkpt lat="-27.232277" lon="151.4010051">
  <ele>542.79</ele>
  <time>2026-09-01T20:00:52Z</time>
  <course>173.78</course>
  <speed>5.316013544000805</speed>
  <fix>3d</fix>
</trkpt>
<trkpt lat="-27.2322691" lon="151.4009987">
  <ele>542.2</ele>
  <time>2026-09-01T20:00:52Z</time>
  <course>144.04</course>
  <speed>5.37</speed>
  <fix>3d</fix>
</trkpt>
<trkpt lat="-27.2322808" lon="151.4010084">
  <ele>543.07</ele>
  <time>2026-09-01T20:00:52Z</time>
  <course>173.94</course>
  <speed>5.230152961434302</speed>
  <fix>3d</fix>
</trkpt>
<trkpt lat="-27.2322691" lon="151.4009987">
  <ele>542.2</ele>
  <time>2026-09-01T20:00:52Z</time>
  <course>144.04</course>
  <speed>5.37</speed>
  <fix>3d</fix>
</trkpt>
<trkpt lat="-27.2322845" lon="151.4010116">
  <ele>543.35</ele>
  <time>2026-09-01T20:00:52Z</time>
  <course>174.17</course>
  <speed>5.102724762320617</speed>
  <fix>3d</fix>
</trkpt>
<trkpt lat="-27.2322768" lon="151.4010051">
  <ele>542.78</ele>
  <time>2026-09-01T20:00:52Z</time>
  <course>143.27</course>
  <speed>5.3</speed>
  <fix>3d</fix>
</trkpt>
<trkpt lat="-27.232288" lon="151.4010147">
  <ele>543.61</ele>
  <time>2026-09-01T20:00:52Z</time>
  <course>174.46</course>
  <speed>4.913369515922856</speed>
  <fix>3d</fix>
</trkpt>
<trkpt lat="-27.2322768" lon="151.4010051">
  <ele>542.78</ele>
  <time>2026-09-01T20:00:52Z</time>
  <course>143.27</course>
  <speed>5.3</speed>
  <fix>3d</fix>
</trkpt>
<trkpt lat="-27.2322914" lon="151.4010178">
  <ele>543.88</ele>
  <time>2026-09-01T20:00:52Z</time>
  <course>174.81</course>
  <speed>4.6664761865887625</speed>
  <fix>3d</fix>
</trkpt>
<trkpt lat="-27.2322843" lon="151.4010114">
  <ele>543.32</ele>
  <time>2026-09-01T20:00:52Z</time>
  <course>142.22</course>
  <speed>5.08</speed>
  <fix>3d</fix>
</trkpt>
<trkpt lat="-27.2322946" lon="151.4010205">
  <ele>544.15</ele>
  <time>2026-09-01T20:00:52Z</time>
  <course>175.22</course>
  <speed>4.371464285568395</speed>
  <fix>3d</fix>
</trkpt>
<trkpt lat="-27.2322843" lon="151.4010114">
  <ele>543.32</ele>
  <time>2026-09-01T20:00:52Z</time>
  <course>142.22</course>
  <speed>5.08</speed>
  <fix>3d</fix>
</trkpt>
<trkpt lat="-27.2322975" lon="151.4010233">
  <ele>544.41</ele>
  <time>2026-09-01T20:00:52Z</time>
  <course>175.7</course>
  <speed>4.056266756513925</speed>
  <fix>3d</fix>
</trkpt>
<trkpt lat="-27.2322912" lon="151.4010175">
  <ele>543.87</ele>
  <time>2026-09-01T20:00:52Z</time>
  <course>141.28</course>
  <speed>4.66</speed>
  <fix>3d</fix>
</trkpt>
<trkpt lat="-27.2323002" lon="151.4010258">
  <ele>544.68</ele>
  <time>2026-09-01T20:00:52Z</time>
  <course>176.26</course>
  <speed>3.7207526120396666</speed>
  <fix>3d</fix>
</trkpt>
<trkpt lat="-27.2322912" lon="151.4010175">
  <ele>543.87</ele>
  <time>2026-09-01T20:00:52Z</time>
  <course>141.28</course>
  <speed>4.66</speed>
  <fix>3d</fix>
</trkpt>
<trkpt lat="-27.2323027" lon="151.4010281">
  <ele>544.95</ele>
  <time>2026-09-01T20:00:52Z</time>
  <course>176.91</course>
  <speed>3.378905148121208</speed>
  <fix>3d</fix>
</trkpt>
<trkpt lat="-27.2322973" lon="151.4010231">
  <ele>544.4</ele>
  <time>2026-09-01T20:00:52Z</time>
  <course>140.55</course>
  <speed>4.06</speed>
  <fix>3d</fix>
</trkpt>
<trkpt lat="-27.2323049" lon="151.4010303">
  <ele>545.21</ele>
  <time>2026-09-01T20:00:52Z</time>
  <course>177.65</course>
  <speed>3.023011743278547</speed>
  <fix>3d</fix>
</trkpt>
<trkpt lat="-27.2322973" lon="151.4010231">
  <ele>544.4</ele>
  <time>2026-09-01T20:00:52Z</time>
  <course>140.55</course>
  <speed>4.06</speed>
  <fix>3d</fix>
</trkpt>
<trkpt lat="-27.2323068" lon="151.401032">
  <ele>545.47</ele>
  <time>2026-09-01T20:00:52Z</time>
  <course>178.46</course>
  <speed>2.6888845270855346</speed>
  <fix>3d</fix>
</trkpt>
<trkpt lat="-27.2323024" lon="151.401028">
  <ele>544.93</ele>
  <time>2026-09-01T20:00:52Z</time>
  <course>140.07</course>
  <speed>3.39</speed>
  <fix>3d</fix>
</trkpt>
<trkpt lat="-27.2323086" lon="151.4010338">
  <ele>545.73</ele>
  <time>2026-09-01T20:00:52Z</time>
  <course>179.34</course>
  <speed>2.3471898091121646</speed>
  <fix>3d</fix>
</trkpt>
<trkpt lat="-27.2323024" lon="151.401028">
  <ele>544.93</ele>
  <time>2026-09-01T20:00:52Z</time>
  <course>140.07</course>
  <speed>3.39</speed>
  <fix>3d</fix>
</trkpt>
<trkpt lat="-27.23231" lon="151.4010352">
  <ele>545.99</ele>
  <time>2026-09-01T20:00:52Z</time>
  <course>180.25</course>
  <speed>2.0272641663088704</speed>
  <fix>3d</fix>
</trkpt>
<trkpt lat="-27.2323066" lon="151.4010319">
  <ele>545.45</ele>
  <time>2026-09-01T20:00:52Z</time>
  <course>139.63</course>
  <speed>2.71</speed>
  <fix>3d</fix>
</trkpt>
<trkpt lat="-27.2323113" lon="151.4010365">
  <ele>546.25</ele>
  <time>2026-09-01T20:00:52Z</time>
  <course>181.12</course>
  <speed>1.7074249617479536</speed>
  <fix>3d</fix>
</trkpt>
<trkpt lat="-27.2323066" lon="151.4010319">
  <ele>545.45</ele>
  <time>2026-09-01T20:00:52Z</time>
  <course>139.63</course>
  <speed>2.71</speed>
  <fix>3d</fix>
</trkpt>
<trkpt lat="-27.2323123" lon="151.4010375">
  <ele>546.5</ele>
  <time>2026-09-01T20:00:52Z</time>
  <course>181.92</course>
  <speed>1.3951702405083042</speed>
  <fix>3d</fix>
</trkpt>
<trkpt lat="-27.2323099" lon="151.401035">
  <ele>545.98</ele>
  <time>2026-09-01T20:00:52Z</time>
  <course>139.01</course>
  <speed>2.04</speed>
  <fix>3d</fix>
</trkpt>
<trkpt lat="-27.2323133" lon="151.4010384">
  <ele>546.71</ele>
  <time>2026-09-01T20:00:52Z</time>
  <course>182.48</course>
  <speed>1.3894603268895447</speed>
  <fix>3d</fix>
</trkpt>
<trkpt lat="-27.2323099" lon="151.401035">
  <ele>545.98</ele>
  <time>2026-09-01T20:00:52Z</time>
  <course>139.01</course>
  <speed>2.04</speed>
  <fix>3d</fix>
</trkpt>
<trkpt lat="-27.2323142" lon="151.4010394">
  <ele>546.82</ele>
  <time>2026-09-01T20:00:52Z</time>
  <course>182.75</course>
  <speed>1.3905394636614958</speed>
  <fix>3d</fix>
</trkpt>
<trkpt lat="-27.2323122" lon="151.4010374">
  <ele>546.47</ele>
  <time>2026-09-01T20:00:52Z</time>
  <course>138.75</course>
  <speed>1.55</speed>
  <fix>3d</fix>
</trkpt>
<trkpt lat="-27.2323152" lon="151.4010403">
  <ele>546.82</ele>
  <time>2026-09-01T20:00:52Z</time>
  <course>182.86</course>
  <speed>1.384088147481944</speed>
  <fix>3d</fix>
</trkpt>
<trkpt lat="-27.2323122" lon="151.4010374">
  <ele>546.47</ele>
  <time>2026-09-01T20:00:52Z</time>
  <course>138.75</course>
  <speed>1.55</speed>
  <fix>3d</fix>
</trkpt>
<trkpt lat="-27.2323161" lon="151.4010411">
  <ele>546.73</ele>
  <time>2026-09-01T20:00:52Z</time>
  <course>182.78</course>
  <speed>1.3482581355215328</speed>
  <fix>3d</fix>
</trkpt>
<trkpt lat="-27.2323141" lon="151.4010392">
  <ele>546.76</ele>
  <time>2026-09-01T20:00:52Z</time>
  <course>139.4</course>
  <speed>1.39</speed>
  <fix>3d</fix>
</trkpt>
<trkpt lat="-27.232317" lon="151.401042">
  <ele>546.55</ele>
  <time>2026-09-01T20:00:52Z</time>
  <course>182.38</course>
  <speed>1.2918978287774927</speed>
  <fix>3d</fix>
</trkpt>
<trkpt lat="-27.2323141" lon="151.4010392">
  <ele>546.76</ele>
  <time>2026-09-01T20:00:52Z</time>
  <course>139.4</course>
  <speed>1.39</speed>
  <fix>3d</fix>
</trkpt>
<trkpt lat="-27.2323179" lon="151.4010428">
  <ele>546.29</ele>
  <time>2026-09-01T20:00:52Z</time>
  <course>181.4</course>
  <speed>1.2088010589009262</speed>
  <fix>3d</fix>
</trkpt>
<trkpt lat="-27.232316" lon="151.401041">
  <ele>546.69</ele>
  <time>2026-09-01T20:00:52Z</time>
  <course>139.87</course>
  <speed>1.34</speed>
  <fix>3d</fix>
</trkpt>
<trkpt lat="-27.2323187" lon="151.4010435">
  <ele>545.96</ele>
  <time>2026-09-01T20:00:52Z</time>
  <course>179.81</course>
  <speed>1.1121151019566275</speed>
  <fix>3d</fix>
</trkpt>
<trkpt lat="-27.232316" lon="151.401041">
  <ele>546.69</ele>
  <time>2026-09-01T20:00:52Z</time>
  <course>139.87</course>
  <speed>1.34</speed>
  <fix>3d</fix>
</trkpt>
<trkpt lat="-27.2323195" lon="151.4010442">
  <ele>545.57</ele>
  <time>2026-09-01T20:00:52Z</time>
  <course>178.13</course>
  <speed>1.0300485425454473</speed>
  <fix>3d</fix>
</trkpt>
<trkpt lat="-27.2323178" lon="151.4010427">
  <ele>546.27</ele>
  <time>2026-09-01T20:00:52Z</time>
  <course>141.01</course>
  <speed>1.21</speed>
  <fix>3d</fix>
</trkpt>
<trkpt lat="-27.2323202" lon="151.4010448">
  <ele>545.14</ele>
  <time>2026-09-01T20:00:52Z</time>
  <course>176.68</course>
  <speed>0.9626006440887103</speed>
  <fix>3d</fix>
</trkpt>
<trkpt lat="-27.2323178" lon="151.4010427">
  <ele>546.27</ele>
  <time>2026-09-01T20:00:52Z</time>
  <course>141.01</course>
  <speed>1.21</speed>
  <fix>3d</fix>
</trkpt>
<trkpt lat="-27.2323209" lon="151.4010453">
  <ele>544.65</ele>
  <time>2026-09-01T20:00:52Z</time>
  <course>175.43</course>
  <speed>0.9158602513484249</speed>
  <fix>3d</fix>
</trkpt>
<trkpt lat="-27.2323194" lon="151.4010441">
  <ele>545.56</ele>
  <time>2026-09-01T20:00:52Z</time>
  <course>143.61</course>
  <speed>1.04</speed>
  <fix>3d</fix>
</trkpt>
<trkpt lat="-27.2323217" lon="151.4010458">
  <ele>544.12</ele>
  <time>2026-09-01T20:00:52Z</time>
  <course>174.27</course>
  <speed>0.9213034245024816</speed>
  <fix>3d</fix>
</trkpt>
<trkpt lat="-27.2323194" lon="151.4010441">
  <ele>545.56</ele>
  <time>2026-09-01T20:00:52Z</time>
  <course>143.61</course>
  <speed>1.04</speed>
  <fix>3d</fix>
</trkpt>
<trkpt lat="-27.2323224" lon="151.4010462">
  <ele>543.54</ele>
  <time>2026-09-01T20:00:52Z</time>
  <course>173.2</course>
  <speed>0.9730878685915265</speed>
  <fix>3d</fix>
</trkpt>
<trkpt lat="-27.2323209" lon="151.4010453">
  <ele>544.65</ele>
  <time>2026-09-01T20:00:52Z</time>
  <course>148.91</course>
  <speed>0.94</speed>
  <fix>3d</fix>
</trkpt>
<trkpt lat="-27.2323233" lon="151.4010466">
  <ele>542.91</ele>
  <time>2026-09-01T20:00:52Z</time>
  <course>172.21</course>
  <speed>1.0594810050208545</speed>
  <fix>3d</fix>
</trkpt>
<trkpt lat="-27.2323209" lon="151.4010453">
  <ele>544.65</ele>
  <time>2026-09-01T20:00:52Z</time>
  <course>148.91</course>
  <speed>0.94</speed>
  <fix>3d</fix>
</trkpt>
<trkpt lat="-27.2323243" lon="151.4010468">
  <ele>542.2</ele>
  <time>2026-09-01T20:00:52Z</time>
  <course>171.34</course>
  <speed>1.298075498574717</speed>
  <fix>3d</fix>
</trkpt>
<trkpt lat="-27.2323224" lon="151.4010461">
  <ele>543.54</ele>
  <time>2026-09-01T20:00:52Z</time>
  <course>156.95</course>
  <speed>0.99</speed>
  <fix>3d</fix>
</trkpt>
<trkpt lat="-27.2323258" lon="151.4010472">
  <ele>541.43</ele>
  <time>2026-09-01T20:00:52Z</time>
  <course>170.42</course>
  <speed>2.1162466774929616</speed>
  <fix>3d</fix>
</trkpt>
<trkpt lat="-27.2323224" lon="151.4010461">
  <ele>543.54</ele>
  <time>2026-09-01T20:00:52Z</time>
  <course>156.95</course>
  <speed>0.99</speed>
  <fix>3d</fix>
</trkpt>
<trkpt lat="-27.2323279" lon="151.4010477">
  <ele>540.59</ele>
  <time>2026-09-01T20:00:52Z</time>
  <course>169.53</course>
  <speed>2.488714527622644</speed>
  <fix>3d</fix>
</trkpt>
<trkpt lat="-27.2323245" lon="151.4010468">
  <ele>542.19</ele>
  <time>2026-09-01T20:00:52Z</time>
  <course>165.42</course>
  <speed>1.57</speed>
  <fix>3d</fix>
</trkpt>
<trkpt lat="-27.2323301" lon="151.4010482">
  <ele>539.66</ele>
  <time>2026-09-01T20:00:52Z</time>
  <course>168.84</course>
  <speed>2.447529366524537</speed>
  <fix>3d</fix>
</trkpt>
<trkpt lat="-27.2323245" lon="151.4010468">
  <ele>542.19</ele>
  <time>2026-09-01T20:00:52Z</time>
  <course>165.42</course>
  <speed>1.57</speed>
  <fix>3d</fix>
</trkpt>
<trkpt lat="-27.2323321" lon="151.4010487">
  <ele>538.63</ele>
  <time>2026-09-01T20:00:52Z</time>
  <course>168.21</course>
  <speed>2.2121934815924216</speed>
  <fix>3d</fix>
</trkpt>
<trkpt lat="-27.2323278" lon="151.4010477">
  <ele>540.58</ele>
  <time>2026-09-01T20:00:52Z</time>
  <course>168.26</course>
  <speed>2.27</speed>
  <fix>3d</fix>
</trkpt>
<trkpt lat="-27.232334" lon="151.4010492">
  <ele>537.51</ele>
  <time>2026-09-01T20:00:52Z</time>
  <course>167.78</course>
  <speed>2.131783291050007</speed>
  <fix>3d</fix>
</trkpt>
<trkpt lat="-27.2323278" lon="151.4010477">
  <ele>540.58</ele>
  <time>2026-09-01T20:00:52Z</time>
  <course>168.26</course>
  <speed>2.27</speed>
  <fix>3d</fix>
</trkpt>
<trkpt lat="-27.232336" lon="151.4010496">
  <ele>536.29</ele>
  <time>2026-09-01T20:00:52Z</time>
  <course>167.81</course>
  <speed>2.4535892076710804</speed>
  <fix>3d</fix>
</trkpt>
<trkpt lat="-27.2323319" lon="151.4010487">
  <ele>538.62</ele>
  <time>2026-09-01T20:00:52Z</time>
  <course>168.55</course>
  <speed>2.29</speed>
  <fix>3d</fix>
</trkpt>
<trkpt lat="-27.2323385" lon="151.4010502">
  <ele>535.01</ele>
  <time>2026-09-01T20:00:52Z</time>
  <course>168.03</course>
  <speed>3.297347418759509</speed>
  <fix>3d</fix>
</trkpt>
<trkpt lat="-27.2323319" lon="151.4010487">
  <ele>538.62</ele>
  <time>2026-09-01T20:00:52Z</time>
  <course>168.55</course>
  <speed>2.29</speed>
  <fix>3d</fix>
</trkpt>
<trkpt lat="-27.2323419" lon="151.4010511">
  <ele>533.66</ele>
  <time>2026-09-01T20:00:52Z</time>
  <course>168.27</course>
  <speed>4.5295143227502885</speed>
  <fix>3d</fix>
</trkpt>
<trkpt lat="-27.2323361" lon="151.4010496">
  <ele>536.3</ele>
  <time>2026-09-01T20:00:52Z</time>
  <course>167.87</course>
  <speed>2.69</speed>
  <fix>3d</fix>
</trkpt>
<trkpt lat="-27.2323465" lon="151.4010523">
  <ele>532.29</ele>
  <time>2026-09-01T20:00:52Z</time>
  <course>168.44</course>
  <speed>5.908113065945844</speed>
  <fix>3d</fix>
</trkpt>
<trkpt lat="-27.2323361" lon="151.4010496">
  <ele>536.3</ele>
  <time>2026-09-01T20:00:52Z</time>
  <course>167.87</course>
  <speed>2.69</speed>
  <fix>3d</fix>
</trkpt>
<trkpt lat="-27.2323523" lon="151.4010537">
  <ele>530.91</ele>
  <time>2026-09-01T20:00:52Z</time>
  <course>168.49</course>
  <speed>7.2629814814578735</speed>
  <fix>3d</fix>
</trkpt>
<trkpt lat="-27.2323423" lon="151.4010511">
  <ele>533.7</ele>
  <time>2026-09-01T20:00:52Z</time>
  <course>167.5</course>
  <speed>4.55</speed>
  <fix>3d</fix>
</trkpt>
<trkpt lat="-27.2323593" lon="151.4010554">
  <ele>529.52</ele>
  <time>2026-09-01T20:00:52Z</time>
  <course>168.45</course>
  <speed>8.521625431805836</speed>
  <fix>3d</fix>
</trkpt>
<trkpt lat="-27.2323423" lon="151.4010511">
  <ele>533.7</ele>
  <time>2026-09-01T20:00:52Z</time>
  <course>167.5</course>
  <speed>4.55</speed>
  <fix>3d</fix>
</trkpt>
<trkpt lat="-27.2323673" lon="151.4010573">
  <ele>528.13</ele>
  <time>2026-09-01T20:00:52Z</time>
  <course>168.37</course>
  <speed>9.751071735968308</speed>
  <fix>3d</fix>
</trkpt>
<trkpt lat="-27.2323526" lon="151.4010537">
  <ele>530.95</ele>
  <time>2026-09-01T20:00:52Z</time>
  <course>167.86</course>
  <speed>7.16</speed>
  <fix>3d</fix>
</trkpt>
<trkpt lat="-27.2323764" lon="151.4010593">
  <ele>526.76</ele>
  <time>2026-09-01T20:00:52Z</time>
  <course>168.3</course>
  <speed>10.980605629927704</speed>
  <fix>3d</fix>
</trkpt>
<trkpt lat="-27.2323526" lon="151.4010537">
  <ele>530.95</ele>
  <time>2026-09-01T20:00:52Z</time>
  <course>167.86</course>
  <speed>7.16</speed>
  <fix>3d</fix>
</trkpt>
<trkpt lat="-27.2323866" lon="151.4010616">
  <ele>525.41</ele>
  <time>2026-09-01T20:00:52Z</time>
  <course>168.24</course>
  <speed>12.223964168795654</speed>
  <fix>3d</fix>
</trkpt>
<trkpt lat="-27.2323674" lon="151.4010573">
  <ele>528.19</ele>
  <time>2026-09-01T20:00:52Z</time>
  <course>168.29</course>
  <speed>9.7</speed>
  <fix>3d</fix>
</trkpt>
<trkpt lat="-27.2323979" lon="151.4010643">
  <ele>524.14</ele>
  <time>2026-09-01T20:00:52Z</time>
  <course>168.19</course>
  <speed>13.451709928481211</speed>
  <fix>3d</fix>
</trkpt>
<trkpt lat="-27.2323674" lon="151.4010573">
  <ele>528.19</ele>
  <time>2026-09-01T20:00:52Z</time>
  <course>168.29</course>
  <speed>9.7</speed>
  <fix>3d</fix>
</trkpt>
<trkpt lat="-27.2324103" lon="151.4010672">
  <ele>522.94</ele>
  <time>2026-09-01T20:00:52Z</time>
  <course>168.15</course>
  <speed>14.60889112835057</speed>
  <fix>3d</fix>
</trkpt>
<trkpt lat="-27.2323867" lon="151.4010617">
  <ele>525.5</ele>
  <time>2026-09-01T20:00:52Z</time>
  <course>168.45</course>
  <speed>12.16</speed>
  <fix>3d</fix>
</trkpt>
<trkpt lat="-27.2324236" lon="151.4010702">
  <ele>521.83</ele>
  <time>2026-09-01T20:00:52Z</time>
  <course>168.11</course>
  <speed>15.658384335556464</speed>
  <fix>3d</fix>
</trkpt>
<trkpt lat="-27.2323867" lon="151.4010617">
  <ele>525.5</ele>
  <time>2026-09-01T20:00:52Z</time>
  <course>168.45</course>
  <speed>12.16</speed>
  <fix>3d</fix>
</trkpt>
<trkpt lat="-27.2324378" lon="151.4010736">
  <ele>520.81</ele>
  <time>2026-09-01T20:00:52Z</time>
  <course>168.08</course>
  <speed>16.584360102216788</speed>
  <fix>3d</fix>
</trkpt>
<trkpt lat="-27.2324101" lon="151.4010671">
  <ele>523.03</ele>
  <time>2026-09-01T20:00:52Z</time>
  <course>168.33</course>
  <speed>14.51</speed>
  <fix>3d</fix>
</trkpt>
<trkpt lat="-27.2324527" lon="151.4010772">
  <ele>519.91</ele>
  <time>2026-09-01T20:00:52Z</time>
  <course>168.04</course>
  <speed>17.36928898947795</speed>
  <fix>3d</fix>
</trkpt>
<trkpt lat="-27.2324101" lon="151.4010671">
  <ele>523.03</ele>
  <time>2026-09-01T20:00:52Z</time>
  <course>168.33</course>
  <speed>14.51</speed>
  <fix>3d</fix>
</trkpt>
<trkpt lat="-27.2324683" lon="151.4010808">
  <ele>519.14</ele>
  <time>2026-09-01T20:00:52Z</time>
  <course>168.02</course>
  <speed>18.006934775247007</speed>
  <fix>3d</fix>
</trkpt>
<trkpt lat="-27.2324375" lon="151.4010735">
  <ele>520.91</ele>
  <time>2026-09-01T20:00:52Z</time>
  <course>168.11</course>
  <speed>16.48</speed>
  <fix>3d</fix>
</trkpt>
<trkpt lat="-27.2324843" lon="151.4010846">
  <ele>518.5</ele>
  <time>2026-09-01T20:00:52Z</time>
  <course>167.99</course>
  <speed>18.467896469278788</speed>
  <fix>3d</fix>
</trkpt>
<trkpt lat="-27.2324375" lon="151.4010735">
  <ele>520.91</ele>
  <time>2026-09-01T20:00:52Z</time>
  <course>168.11</course>
  <speed>16.48</speed>
  <fix>3d</fix>
</trkpt>
<trkpt lat="-27.2325007" lon="151.4010887">
  <ele>517.98</ele>
  <time>2026-09-01T20:00:52Z</time>
  <course>167.98</course>
  <speed>18.76612373400538</speed>
  <fix>3d</fix>
</trkpt>
<trkpt lat="-27.2324678" lon="151.4010808">
  <ele>519.23</ele>
  <time>2026-09-01T20:00:52Z</time>
  <course>167.95</course>
  <speed>17.9</speed>
  <fix>3d</fix>
</trkpt>
<trkpt lat="-27.2325172" lon="151.4010927">
  <ele>517.6</ele>
  <time>2026-09-01T20:00:52Z</time>
  <course>167.97</course>
  <speed>18.89743104234012</speed>
  <fix>3d</fix>
</trkpt>
<trkpt lat="-27.2324678" lon="151.4010808">
  <ele>519.23</ele>
  <time>2026-09-01T20:00:52Z</time>
  <course>167.95</course>
  <speed>17.9</speed>
  <fix>3d</fix>
</trkpt>
<trkpt lat="-27.2325339" lon="151.4010966">
  <ele>517.29</ele>
  <time>2026-09-01T20:00:52Z</time>
  <course>167.96</course>
  <speed>18.895343341680775</speed>
  <fix>3d</fix>
</trkpt>
<trkpt lat="-27.2325001" lon="151.4010885">
  <ele>518.06</ele>
  <time>2026-09-01T20:00:52Z</time>
  <course>167.92</course>
  <speed>18.68</speed>
  <fix>3d</fix>
</trkpt>
<trkpt lat="-27.2325504" lon="151.4011006">
  <ele>517.07</ele>
  <time>2026-09-01T20:00:52Z</time>
  <course>167.95</course>
  <speed>18.83249319660039</speed>
  <fix>3d</fix>
</trkpt>
<trkpt lat="-27.2325001" lon="151.4010885">
  <ele>518.06</ele>
  <time>2026-09-01T20:00:52Z</time>
  <course>167.92</course>
  <speed>18.68</speed>
  <fix>3d</fix>
</trkpt>
<trkpt lat="-27.2325669" lon="151.4011046">
  <ele>516.86</ele>
  <time>2026-09-01T20:00:52Z</time>
  <course>167.94</course>
  <speed>18.7284409388502</speed>
  <fix>3d</fix>
</trkpt>
<trkpt lat="-27.2325332" lon="151.4010965">
  <ele>517.33</ele>
  <time>2026-09-01T20:00:52Z</time>
  <course>167.95</course>
  <speed>18.86</speed>
  <fix>3d</fix>
</trkpt>
<trkpt lat="-27.2325833" lon="151.4011085">
  <ele>516.66</ele>
  <time>2026-09-01T20:00:52Z</time>
  <course>167.94</course>
  <speed>18.61668606385143</speed>
  <fix>3d</fix>
</trkpt>
<trkpt lat="-27.2325332" lon="151.4010965">
  <ele>517.33</ele>
  <time>2026-09-01T20:00:52Z</time>
  <course>167.95</course>
  <speed>18.86</speed>
  <fix>3d</fix>
</trkpt>
<trkpt lat="-27.2307165" lon="151.4051328">
  <ele>542.96</ele>
  <time>2026-09-01T20:00:52Z</time>
  <course>250.0</course>
  <speed>0.0</speed>
  <fix>3d</fix>
</trkpt>
<trkpt lat="-27.2325663" lon="151.4011044">
  <ele>516.87</ele>
  <time>2026-09-01T20:00:52Z</time>
  <course>167.98</course>
  <speed>18.73</speed>
  <fix>3d</fix>
</trkpt>
<trkpt lat="-27.2307166" lon="151.4051328">
  <ele>542.84</ele>
  <time>2026-09-01T20:00:52Z</time>
  <course>250.0</course>
  <speed>0.01</speed>
  <fix>3d</fix>
</trkpt>
<trkpt lat="-27.2325663" lon="151.4011044">
  <ele>516.87</ele>
  <time>2026-09-01T20:00:52Z</time>
  <course>167.98</course>
  <speed>18.73</speed>
  <fix>3d</fix>
</trkpt>
<trkpt lat="-27.2307166" lon="151.4051328">
  <ele>542.62</ele>
  <time>2026-09-01T20:00:52Z</time>
  <course>249.99</course>
  <speed>0.05099019513592785</speed>
  <fix>3d</fix>
</trkpt>
<trkpt lat="-27.2316497" lon="151.4031206">
  <ele>529.76</ele>
  <time>2026-09-01T20:00:52Z</time>
  <course>168.04</course>
  <speed>9.31</speed>
  <fix>3d</fix>
</trkpt>
<trkpt lat="-27.2307166" lon="151.4051327">
  <ele>542.31</ele>
  <time>2026-09-01T20:00:52Z</time>
  <course>249.41</course>
  <speed>0.13601470508735444</speed>
  <fix>3d</fix>
</trkpt>
<trkpt lat="-27.2316497" lon="151.4031206">
  <ele>529.76</ele>
  <time>2026-09-01T20:00:52Z</time>
  <course>168.04</course>
  <speed>9.31</speed>
  <fix>3d</fix>
</trkpt>
<trkpt lat="-27.2307167" lon="151.4051324">
  <ele>541.93</ele>
  <time>2026-09-01T20:00:52Z</time>
  <course>246.31</course>
  <speed>0.2780287754891569</speed>
  <fix>3d</fix>
</trkpt>
<trkpt lat="-27.2307166" lon="151.4051327">
  <ele>542.58</ele>
  <time>2026-09-01T20:00:52Z</time>
  <course>251.26</course>
  <speed>0.07</speed>
  <fix>3d</fix>
</trkpt>
<trkpt lat="-27.2307169" lon="151.4051323">
  <ele>541.48</ele>
  <time>2026-09-01T20:00:52Z</time>
  <course>236.93</course>
  <speed>0.46486557196677836</speed>
  <fix>3d</fix>
</trkpt>
<trkpt lat="-27.2307166" lon="151.4051327">
  <ele>542.58</ele>
  <time>2026-09-01T20:00:52Z</time>
  <course>251.26</course>
  <speed>0.07</speed>
  <fix>3d</fix>
</trkpt>
<trkpt lat="-27.2307172" lon="151.4051322">
  <ele>540.95</ele>
  <time>2026-09-01T20:00:52Z</time>
  <course>235.02</course>
  <speed>0.43185645763378366</speed>
  <fix>3d</fix>
</trkpt>
<trkpt lat="-27.2307167" lon="151.4051325">
  <ele>541.91</ele>
  <time>2026-09-01T20:00:52Z</time>
  <course>210.02</course>
  <speed>0.27</speed>
  <fix>3d</fix>
</trkpt>
<trkpt lat="-27.2307168" lon="151.4051313">
  <ele>540.38</ele>
  <time>2026-09-01T20:00:52Z</time>
  <course>247.61</course>
  <speed>1.700823330037544</speed>
  <fix>3d</fix>
</trkpt>
<trkpt lat="-27.2307167" lon="151.4051325">
  <ele>541.91</ele>
  <time>2026-09-01T20:00:52Z</time>
  <course>210.02</course>
  <speed>0.27</speed>
  <fix>3d</fix>
</trkpt>
<trkpt lat="-27.230715" lon="151.4051299">
  <ele>539.81</ele>
  <time>2026-09-01T20:00:52Z</time>
  <course>257.39</course>
  <speed>2.9703871801500896</speed>
  <fix>3d</fix>
</trkpt>
<trkpt lat="-27.2307168" lon="151.4051319">
  <ele>540.95</ele>
  <time>2026-09-01T20:00:52Z</time>
  <course>302.1</course>
  <speed>0.73</speed>
  <fix>3d</fix>
</trkpt>
<trkpt lat="-27.2307123" lon="151.4051284">
  <ele>539.29</ele>
  <time>2026-09-01T20:00:52Z</time>
  <course>265.21</course>
  <speed>3.931017679939891</speed>
  <fix>3d</fix>
</trkpt>
<trkpt lat="-27.2307168" lon="151.4051319">
  <ele>540.95</ele>
  <time>2026-09-01T20:00:52Z</time>
  <course>302.1</course>
  <speed>0.73</speed>
  <fix>3d</fix>
</trkpt>
<trkpt lat="-27.2307088" lon="151.4051265">
  <ele>538.82</ele>
  <time>2026-09-01T20:00:53Z</time>
  <course>272.08</course>
  <speed>4.656393454166003</speed>
  <fix>3d</fix>
</trkpt>
<trkpt lat="-27.2307146" lon="151.4051299">
  <ele>539.85</ele>
  <time>2026-09-01T20:00:53Z</time>
  <course>328.83</course>
  <speed>2.75</speed>
  <fix>3d</fix>
</trkpt>
<trkpt lat="-27.2307046" lon="151.4051245">
  <ele>538.41</ele>
  <time>2026-09-01T20:00:53Z</time>
  <course>278.69</course>
  <speed>5.445410911951456</speed>
  <fix>3d</fix>
</trkpt>
<trkpt lat="-27.2307146" lon="151.4051299">
  <ele>539.85</ele>
  <time>2026-09-01T20:00:53Z</time>
  <course>328.83</course>
  <speed>2.75</speed>
  <fix>3d</fix>
</trkpt>
<trkpt lat="-27.2306999" lon="151.4051222">
  <ele>538.13</ele>
  <time>2026-09-01T20:00:53Z</time>
  <course>285.46</course>
  <speed>5.931112880396056</speed>
  <fix>3d</fix>
</trkpt>
<trkpt lat="-27.2307086" lon="151.4051265">
  <ele>538.87</ele>
  <time>2026-09-01T20:00:53Z</time>
  <course>335.1</course>
  <speed>4.66</speed>
  <fix>3d</fix>
</trkpt>
<trkpt lat="-27.2306949" lon="151.4051198">
  <ele>537.95</ele>
  <time>2026-09-01T20:00:53Z</time>
  <course>290.89</course>
  <speed>6.027835432391964</speed>
  <fix>3d</fix>
</trkpt>
<trkpt lat="-27.2307086" lon="151.4051265">
  <ele>538.87</ele>
  <time>2026-09-01T20:00:53Z</time>
  <course>335.1</course>
  <speed>4.66</speed>
  <fix>3d</fix>
</trkpt>
<trkpt lat="-27.2306899" lon="151.4051175">
  <ele>537.88</ele>
  <time>2026-09-01T20:00:53Z</time>
  <course>295.06</course>
  <speed>5.8005603177624145</speed>
  <fix>3d</fix>
</trkpt>
<trkpt lat="-27.2306999" lon="151.4051222">
  <ele>538.19</ele>
  <time>2026-09-01T20:00:53Z</time>
  <course>337.07</course>
  <speed>5.73</speed>
  <fix>3d</fix>
</trkpt>
<trkpt lat="-27.2306852" lon="151.4051156">
  <ele>537.89</ele>
  <time>2026-09-01T20:00:53Z</time>
  <course>298.86</course>
  <speed>5.420276745702197</speed>
  <fix>3d</fix>
</trkpt>
<trkpt lat="-27.2306999" lon="151.4051222">
  <ele>538.19</ele>
  <time>2026-09-01T20:00:53Z</time>
  <course>337.07</course>
  <speed>5.73</speed>
  <fix>3d</fix>
</trkpt>
<trkpt lat="-27.2306807" lon="151.4051141">
  <ele>537.98</ele>
  <time>2026-09-01T20:00:53Z</time>
  <course>302.53</course>
  <speed>5.0612251481237225</speed>
  <fix>3d</fix>
</trkpt>
<trkpt lat="-27.2306902" lon="151.4051178">
  <ele>537.92</ele>
  <time>2026-09-01T20:00:53Z</time>
  <course>339.3</course>
  <speed>5.74</speed>
  <fix>3d</fix>
</trkpt>
<trkpt lat="-27.2306764" lon="151.4051127">
  <ele>538.11</ele>
  <time>2026-09-01T20:00:53Z</time>
  <course>305.88</course>
  <speed>4.794037963971499</speed>
  <fix>3d</fix>
</trkpt>
<trkpt lat="-27.2306902" lon="151.4051178">
  <ele>537.92</ele>
  <time>2026-09-01T20:00:53Z</time>
  <course>339.3</course>
  <speed>5.74</speed>
  <fix>3d</fix>
</trkpt>
<trkpt lat="-27.2306724" lon="151.4051115">
  <ele>538.28</ele>
  <time>2026-09-01T20:00:53Z</time>
  <course>308.78</course>
  <speed>4.613079231923076</speed>
  <fix>3d</fix>
</trkpt>
<trkpt lat="-27.230681" lon="151.4051142">
  <ele>537.99</ele>
  <time>2026-09-01T20:00:53Z</time>
  <course>342.67</course>
  <speed>5.12</speed>
  <fix>3d</fix>
</trkpt>
<trkpt lat="-27.2306684" lon="151.4051103">
  <ele>538.49</ele>
  <time>2026-09-01T20:00:53Z</time>
  <course>311.08</course>
  <speed>4.489743867972871</speed>
  <fix>3d</fix>
</trkpt>
<trkpt lat="-27.230681" lon="151.4051142">
  <ele>537.99</ele>
  <time>2026-09-01T20:00:53Z</time>
  <course>342.67</course>
  <speed>5.12</speed>
  <fix>3d</fix>
</trkpt>
<trkpt lat="-27.2306645" lon="151.4051093">
  <ele>538.74</ele>
  <time>2026-09-01T20:00:53Z</time>
  <course>312.72</course>
  <speed>4.403691633164157</speed>
  <fix>3d</fix>
</trkpt>
<trkpt lat="-27.2306725" lon="151.4051115">
  <ele>538.29</ele>
  <time>2026-09-01T20:00:53Z</time>
  <course>345.52</course>
  <speed>4.65</speed>
  <fix>3d</fix>
</trkpt>
<trkpt lat="-27.2306607" lon="151.4051084">
  <ele>539.01</ele>
  <time>2026-09-01T20:00:53Z</time>
  <course>313.79</course>
  <speed>4.334466518500287</speed>
  <fix>3d</fix>
</trkpt>
<trkpt lat="-27.2306725" lon="151.4051115">
  <ele>538.29</ele>
  <time>2026-09-01T20:00:53Z</time>
  <course>345.52</course>
  <speed>4.65</speed>
  <fix>3d</fix>
</trkpt>
<trkpt lat="-27.2306569" lon="151.4051074">
  <ele>539.31</ele>
  <time>2026-09-01T20:00:53Z</time>
  <course>314.45</course>
  <speed>4.2793691123809365</speed>
  <fix>3d</fix>
</trkpt>
<trkpt lat="-27.2306646" lon="151.4051093">
  <ele>538.74</ele>
  <time>2026-09-01T20:00:53Z</time>
  <course>347.27</course>
  <speed>4.42</speed>
  <fix>3d</fix>
</trkpt>
<trkpt lat="-27.2306531" lon="151.4051065">
  <ele>539.62</ele>
  <time>2026-09-01T20:00:53Z</time>
  <course>314.85</course>
  <speed>4.245951012435259</speed>
  <fix>3d</fix>
</trkpt>
<trkpt lat="-27.2306646" lon="151.4051093">
  <ele>538.74</ele>
  <time>2026-09-01T20:00:53Z</time>
  <course>347.27</course>
  <speed>4.42</speed>
  <fix>3d</fix>
</trkpt>
<trkpt lat="-27.2306494" lon="151.4051058">
  <ele>539.95</ele>
  <time>2026-09-01T20:00:53Z</time>
  <course>315.08</course>
  <speed>4.2047592083257275</speed>
  <fix>3d</fix>
</trkpt>
<trkpt lat="-27.230657" lon="151.4051075">
  <ele>539.3</ele>
  <time>2026-09-01T20:00:53Z</time>
  <course>348.16</course>
  <speed>4.29</speed>
  <fix>3d</fix>
</trkpt>
<trkpt lat="-27.2306457" lon="151.4051049">
  <ele>540.28</ele>
  <time>2026-09-01T20:00:53Z</time>
  <course>315.24</course>
  <speed>4.175368247232812</speed>
  <fix>3d</fix>
</trkpt>
<trkpt lat="-27.230657" lon="151.4051075">
  <ele>539.3</ele>
  <time>2026-09-01T20:00:53Z</time>
  <course>348.16</course>
  <speed>4.29</speed>
  <fix>3d</fix>
</trkpt>
<trkpt lat="-27.230642" lon="151.4051041">
  <ele>540.62</ele>
  <time>2026-09-01T20:00:53Z</time>
  <course>315.35</course>
  <speed>4.145986010589038</speed>
  <fix>3d</fix>
</trkpt>
<trkpt lat="-27.2306495" lon="151.4051058">
  <ele>539.94</ele>
  <time>2026-09-01T20:00:53Z</time>
  <course>348.34</course>
  <speed>4.21</speed>
  <fix>3d</fix>
</trkpt>
<trkpt lat="-27.2306384" lon="151.4051031">
  <ele>540.96</ele>
  <time>2026-09-01T20:00:53Z</time>
  <course>315.42</course>
  <speed>4.124378741095439</speed>
  <fix>3d</fix>
</trkpt>
<trkpt lat="-27.2306495" lon="151.4051058">
  <ele>539.94</ele>
  <time>2026-09-01T20:00:53Z</time>
  <course>348.34</course>
  <speed>4.21</speed>
  <fix>3d</fix>
</trkpt>
<trkpt lat="-27.2306348" lon="151.4051024">
  <ele>541.29</ele>
  <time>2026-09-01T20:00:53Z</time>
  <course>315.44</course>
  <speed>4.087077195258245</speed>
  <fix>3d</fix>
</trkpt>
<trkpt lat="-27.2306421" lon="151.4051041">
  <ele>540.61</ele>
  <time>2026-09-01T20:00:53Z</time>
  <course>348.32</course>
  <speed>4.15</speed>
  <fix>3d</fix>
</trkpt>
<trkpt lat="-27.2306312" lon="151.4051016">
  <ele>541.62</ele>
  <time>2026-09-01T20:00:53Z</time>
  <course>315.43</course>
  <speed>4.03655793963124</speed>
  <fix>3d</fix>
</trkpt>
<trkpt lat="-27.2306421" lon="151.4051041">
  <ele>540.61</ele>
  <time>2026-09-01T20:00:53Z</time>
  <course>348.32</course>
  <speed>4.15</speed>
  <fix>3d</fix>
</trkpt>
<trkpt lat="-27.2306276" lon="151.4051008">
  <ele>541.94</ele>
  <time>2026-09-01T20:00:53Z</time>
  <course>315.38</course>
  <speed>3.983390515628615</speed>
  <fix>3d</fix>
</trkpt>
<trkpt lat="-27.2306349" lon="151.4051024">
  <ele>541.28</ele>
  <time>2026-09-01T20:00:53Z</time>
  <course>348.89</course>
  <speed>4.08</speed>
  <fix>3d</fix>
</trkpt>
<trkpt lat="-27.2306241" lon="151.4051002">
  <ele>542.25</ele>
  <time>2026-09-01T20:00:53Z</time>
  <course>315.23</course>
  <speed>3.8905141048452707</speed>
  <fix>3d</fix>
</trkpt>
<trkpt lat="-27.2306349" lon="151.4051024">
  <ele>541.28</ele>
  <time>2026-09-01T20:00:53Z</time>
  <course>348.89</course>
  <speed>4.08</speed>
  <fix>3d</fix>
</trkpt>
<trkpt lat="-27.2306207" lon="151.4050997">
  <ele>542.54</ele>
  <time>2026-09-01T20:00:53Z</time>
  <course>315.02</course>
  <speed>3.7781079921039846</speed>
  <fix>3d</fix>
</trkpt>
<trkpt lat="-27.2306278" lon="151.4051009">
  <ele>541.92</ele>
  <time>2026-09-01T20:00:53Z</time>
  <course>350.51</course>
  <speed>3.97</speed>
  <fix>3d</fix>
</trkpt>
<trkpt lat="-27.2306174" lon="151.4050993">
  <ele>542.84</ele>
  <time>2026-09-01T20:00:53Z</time>
  <course>314.79</course>
  <speed>3.646834243559748</speed>
  <fix>3d</fix>
</trkpt>
<trkpt lat="-27.2306278" lon="151.4051009">
  <ele>541.92</ele>
  <time>2026-09-01T20:00:53Z</time>
  <course>350.51</course>
  <speed>3.97</speed>
  <fix>3d</fix>
</trkpt>
<trkpt lat="-27.2306142" lon="151.4050991">
  <ele>543.13</ele>
  <time>2026-09-01T20:00:53Z</time>
  <course>314.54</course>
  <speed>3.488266044899672</speed>
  <fix>3d</fix>
</trkpt>
<trkpt lat="-27.2306209" lon="151.4050998">
  <ele>542.53</ele>
  <time>2026-09-01T20:00:53Z</time>
  <course>352.96</course>
  <speed>3.77</speed>
  <fix>3d</fix>
</trkpt>
<trkpt lat="-27.2306111" lon="151.4050988">
  <ele>543.4</ele>
  <time>2026-09-01T20:00:53Z</time>
  <course>314.28</course>
  <speed>3.3221679668553787</speed>
  <fix>3d</fix>
</trkpt>
<trkpt lat="-27.2306209" lon="151.4050998">
  <ele>542.53</ele>
  <time>2026-09-01T20:00:53Z</time>
  <course>352.96</course>
  <speed>3.77</speed>
  <fix>3d</fix>
</trkpt>
<trkpt lat="-27.2306082" lon="151.4050988">
  <ele>543.66</ele>
  <time>2026-09-01T20:00:53Z</time>
  <course>314.01</course>
  <speed>3.1500158729758807</speed>
  <fix>3d</fix>
</trkpt>
<trkpt lat="-27.2306143" lon="151.4050991">
  <ele>543.11</ele>
  <time>2026-09-01T20:00:53Z</time>
  <course>355.97</course>
  <speed>3.49</speed>
  <fix>3d</fix>
</trkpt>
<trkpt lat="-27.2306054" lon="151.4050988">
  <ele>543.93</ele>
  <time>2026-09-01T20:00:53Z</time>
  <course>313.72</course>
  <speed>2.9713633234594523</speed>
  <fix>3d</fix>
</trkpt>
<trkpt lat="-27.2306143" lon="151.4050991">
  <ele>543.11</ele>
  <time>2026-09-01T20:00:53Z</time>
  <course>355.97</course>
  <speed>3.49</speed>
  <fix>3d</fix>
</trkpt>
<trkpt lat="-27.2306029" lon="151.4050988">
  <ele>544.19</ele>
  <time>2026-09-01T20:00:53Z</time>
  <course>313.41</course>
  <speed>2.7779488836189916</speed>
  <fix>3d</fix>
</trkpt>
<trkpt lat="-27.2306084" lon="151.4050988">
  <ele>543.65</ele>
  <time>2026-09-01T20:00:53Z</time>
  <course>359.65</course>
  <speed>3.15</speed>
  <fix>3d</fix>
</trkpt>
<trkpt lat="-27.2306005" lon="151.4050992">
  <ele>544.44</ele>
  <time>2026-09-01T20:00:53Z</time>
  <course>313.08</course>
  <speed>2.5997692205270835</speed>
  <fix>3d</fix>
</trkpt>
<trkpt lat="-27.2306084" lon="151.4050988">
  <ele>543.65</ele>
  <time>2026-09-01T20:00:53Z</time>
  <course>359.65</course>
  <speed>3.15</speed>
  <fix>3d</fix>
</trkpt>
<trkpt lat="-27.2305982" lon="151.4050996">
  <ele>544.69</ele>
  <time>2026-09-01T20:00:53Z</time>
  <course>312.73</course>
  <speed>2.4167747102284896</speed>
  <fix>3d</fix>
</trkpt>
<trkpt lat="-27.230603" lon="151.405099">
  <ele>544.18</ele>
  <time>2026-09-01T20:00:53Z</time>
  <course>4.25</course>
  <speed>2.79</speed>
  <fix>3d</fix>
</trkpt>
<trkpt lat="-27.2305962" lon="151.4051">
  <ele>544.94</ele>
  <time>2026-09-01T20:00:53Z</time>
  <course>312.37</course>
  <speed>2.2314345161801183</speed>
  <fix>3d</fix>
</trkpt>
<trkpt lat="-27.230603" lon="151.405099">
  <ele>544.18</ele>
  <time>2026-09-01T20:00:53Z</time>
  <course>4.25</course>
  <speed>2.79</speed>
  <fix>3d</fix>
</trkpt>
<trkpt lat="-27.2305943" lon="151.4051006">
  <ele>545.18</ele>
  <time>2026-09-01T20:00:53Z</time>
  <course>312.02</course>
  <speed>2.065260274154326</speed>
  <fix>3d</fix>
</trkpt>
<trkpt lat="-27.2305984" lon="151.4050996">
  <ele>544.68</ele>
  <time>2026-09-01T20:00:53Z</time>
  <course>10.03</course>
  <speed>2.42</speed>
  <fix>3d</fix>
</trkpt>
<trkpt lat="-27.2305926" lon="151.4051012">
  <ele>545.41</ele>
  <time>2026-09-01T20:00:53Z</time>
  <course>311.69</course>
  <speed>1.8940960904874915</speed>
  <fix>3d</fix>
</trkpt>
<trkpt lat="-27.2305984" lon="151.4050996">
  <ele>544.68</ele>
  <time>2026-09-01T20:00:53Z</time>
  <course>10.03</course>
  <speed>2.42</speed>
  <fix>3d</fix>
</trkpt>
<trkpt lat="-27.2305912" lon="151.405102">
  <ele>545.66</ele>
  <time>2026-09-01T20:00:53Z</time>
  <course>311.41</course>
  <speed>1.744133022449836</speed>
  <fix>3d</fix>
</trkpt>
<trkpt lat="-27.2305945" lon="151.4051006">
  <ele>545.17</ele>
  <time>2026-09-01T20:00:53Z</time>
  <course>17.28</course>
  <speed>2.07</speed>
  <fix>3d</fix>
</trkpt>
<trkpt lat="-27.2305898" lon="151.4051027">
  <ele>545.86</ele>
  <time>2026-09-01T20:00:53Z</time>
  <course>311.42</course>
  <speed>1.7085666507338835</speed>
  <fix>3d</fix>
</trkpt>
<trkpt lat="-27.2305945" lon="151.4051006">
  <ele>545.17</ele>
  <time>2026-09-01T20:00:53Z</time>
  <course>17.28</course>
  <speed>2.07</speed>
  <fix>3d</fix>
</trkpt>
<trkpt lat="-27.2305884" lon="151.4051036">
  <ele>545.95</ele>
  <time>2026-09-01T20:00:53Z</time>
  <course>311.92</course>
  <speed>1.6867127793432999</speed>
  <fix>3d</fix>
</trkpt>
<trkpt lat="-27.2305912" lon="151.405102">
  <ele>545.63</ele>
  <time>2026-09-01T20:00:53Z</time>
  <course>23.63</course>
  <speed>1.8</speed>
  <fix>3d</fix>
</trkpt>
<trkpt lat="-27.230587" lon="151.4051043">
  <ele>545.94</ele>
  <time>2026-09-01T20:00:53Z</time>
  <course>312.7</course>
  <speed>1.664361739526597</speed>
  <fix>3d</fix>
</trkpt>
<trkpt lat="-27.2305912" lon="151.405102">
  <ele>545.63</ele>
  <time>2026-09-01T20:00:53Z</time>
  <course>23.63</course>
  <speed>1.8</speed>
  <fix>3d</fix>
</trkpt>
<trkpt lat="-27.2305857" lon="151.405105">
  <ele>545.84</ele>
  <time>2026-09-01T20:00:53Z</time>
  <course>313.81</course>
  <speed>1.6191355718407276</speed>
  <fix>3d</fix>
</trkpt>
<trkpt lat="-27.2305884" lon="151.4051035">
  <ele>545.89</ele>
  <time>2026-09-01T20:00:53Z</time>
  <course>25.41</course>
  <speed>1.69</speed>
  <fix>3d</fix>
</trkpt>
<trkpt lat="-27.2305844" lon="151.4051057">
  <ele>545.65</ele>
  <time>2026-09-01T20:00:53Z</time>
  <course>315.47</course>
  <speed>1.552063143045411</speed>
  <fix>3d</fix>
</trkpt>
<trkpt lat="-27.2305884" lon="151.4051035">
  <ele>545.89</ele>
  <time>2026-09-01T20:00:53Z</time>
  <course>25.41</course>
  <speed>1.69</speed>
  <fix>3d</fix>
</trkpt>
<trkpt lat="-27.2305832" lon="151.4051064">
  <ele>545.39</ele>
  <time>2026-09-01T20:00:53Z</time>
  <course>318.0</course>
  <speed>1.4402777509911067</speed>
  <fix>3d</fix>
</trkpt>
<trkpt lat="-27.2305857" lon="151.405105">
  <ele>545.8</ele>
  <time>2026-09-01T20:00:53Z</time>
  <course>25.44</course>
  <speed>1.61</speed>
  <fix>3d</fix>
</trkpt>
<trkpt lat="-27.2305821" lon="151.4051069">
  <ele>545.07</ele>
  <time>2026-09-01T20:00:53Z</time>
  <course>321.71</course>
  <speed>1.293560976529518</speed>
  <fix>3d</fix>
</trkpt>
<trkpt lat="-27.2305857" lon="151.405105">
  <ele>545.8</ele>
  <time>2026-09-01T20:00:53Z</time>
  <course>25.44</course>
  <speed>1.61</speed>
  <fix>3d</fix>
</trkpt>
<trkpt lat="-27.230581" lon="151.4051074">
  <ele>544.69</ele>
  <time>2026-09-01T20:00:53Z</time>
  <course>326.62</course>
  <speed>1.149478142462918</speed>
  <fix>3d</fix>
</trkpt>
<trkpt lat="-27.2305832" lon="151.4051063">
  <ele>545.37</ele>
  <time>2026-09-01T20:00:53Z</time>
  <course>25.13</course>
  <speed>1.43</speed>
  <fix>3d</fix>
</trkpt>
<trkpt lat="-27.2305801" lon="151.4051078">
  <ele>544.26</ele>
  <time>2026-09-01T20:00:53Z</time>
  <course>332.04</course>
  <speed>1.0467568963231146</speed>
  <fix>3d</fix>
</trkpt>
<trkpt lat="-27.2305832" lon="151.4051063">
  <ele>545.37</ele>
  <time>2026-09-01T20:00:53Z</time>
  <course>25.13</course>
  <speed>1.43</speed>
  <fix>3d</fix>
</trkpt>
<trkpt lat="-27.2305792" lon="151.4051081">
  <ele>543.78</ele>
  <time>2026-09-01T20:00:53Z</time>
  <course>337.15</course>
  <speed>0.978008179924892</speed>
  <fix>3d</fix>
</trkpt>
<trkpt lat="-27.2305811" lon="151.4051073">
  <ele>544.67</ele>
  <time>2026-09-01T20:00:53Z</time>
  <course>21.89</course>
  <speed>1.17</speed>
  <fix>3d</fix>
</trkpt>
<trkpt lat="-27.2305784" lon="151.4051084">
  <ele>543.27</ele>
  <time>2026-09-01T20:00:53Z</time>
  <course>341.66</course>
  <speed>0.9610411021387171</speed>
  <fix>3d</fix>
</trkpt>
<trkpt lat="-27.2305811" lon="151.4051073">
  <ele>544.67</ele>
  <time>2026-09-01T20:00:53Z</time>
  <course>21.89</course>
  <speed>1.17</speed>
  <fix>3d</fix>
</trkpt>
<trkpt lat="-27.2305775" lon="151.4051084">
  <ele>542.7</ele>
  <time>2026-09-01T20:00:53Z</time>
  <course>345.53</course>
  <speed>0.9885848471426213</speed>
  <fix>3d</fix>
</trkpt>
<trkpt lat="-27.2305792" lon="151.405108">
  <ele>543.78</ele>
  <time>2026-09-01T20:00:53Z</time>
  <course>15.8</course>
  <speed>1.0</speed>
  <fix>3d</fix>
</trkpt>
<trkpt lat="-27.2305766" lon="151.4051086">
  <ele>542.09</ele>
  <time>2026-09-01T20:00:53Z</time>
  <course>348.79</course>
  <speed>1.0623088063270492</speed>
  <fix>3d</fix>
</trkpt>
<trkpt lat="-27.2305792" lon="151.405108">
  <ele>543.78</ele>
  <time>2026-09-01T20:00:53Z</time>
  <course>15.8</course>
  <speed>1.0</speed>
  <fix>3d</fix>
</trkpt>
<trkpt lat="-27.2305756" lon="151.4051087">
  <ele>541.41</ele>
  <time>2026-09-01T20:00:53Z</time>
  <course>351.6</course>
  <speed>1.150173899895142</speed>
  <fix>3d</fix>
</trkpt>
<trkpt lat="-27.2305775" lon="151.4051084">
  <ele>542.69</ele>
  <time>2026-09-01T20:00:53Z</time>
  <course>7.96</course>
  <speed>1.01</speed>
  <fix>3d</fix>
</trkpt>
<trkpt lat="-27.2305744" lon="151.4051087">
  <ele>540.66</ele>
  <time>2026-09-01T20:00:53Z</time>
  <course>354.21</course>
  <speed>1.7718069872308326</speed>
  <fix>3d</fix>
</trkpt>
<trkpt lat="-27.2305775" lon="151.4051084">
  <ele>542.69</ele>
  <time>2026-09-01T20:00:53Z</time>
  <course>7.96</course>
  <speed>1.01</speed>
  <fix>3d</fix>
</trkpt>
<trkpt lat="-27.2305724" lon="151.4051084">
  <ele>539.86</ele>
  <time>2026-09-01T20:00:53Z</time>
  <course>356.6</course>
  <speed>2.443460660620506</speed>
  <fix>3d</fix>
</trkpt>
<trkpt lat="-27.2305755" lon="151.4051086">
  <ele>541.39</ele>
  <time>2026-09-01T20:00:53Z</time>
  <course>359.87</course>
  <speed>1.41</speed>
  <fix>3d</fix>
</trkpt>
<trkpt lat="-27.2305701" lon="151.4051084">
  <ele>538.97</ele>
  <time>2026-09-01T20:00:53Z</time>
  <course>358.28</course>
  <speed>2.6431988196123273</speed>
  <fix>3d</fix>
</trkpt>
<trkpt lat="-27.2305755" lon="151.4051086">
  <ele>541.39</ele>
  <time>2026-09-01T20:00:53Z</time>
  <course>359.87</course>
  <speed>1.41</speed>
  <fix>3d</fix>
</trkpt>
<trkpt lat="-27.2305678" lon="151.4051083">
  <ele>537.98</ele>
  <time>2026-09-01T20:00:53Z</time>
  <course>359.42</course>
  <speed>2.5238858928247923</speed>
  <fix>3d</fix>
</trkpt>
<trkpt lat="-27.2305723" lon="151.4051085">
  <ele>539.83</ele>
  <time>2026-09-01T20:00:53Z</time>
  <course>357.14</course>
  <speed>2.2</speed>
  <fix>3d</fix>
</trkpt>
<trkpt lat="-27.2305656" lon="151.4051082">
  <ele>536.91</ele>
  <time>2026-09-01T20:00:53Z</time>
  <course>2.08</course>
  <speed>2.354166519174037</speed>
  <fix>3d</fix>
</trkpt>
<trkpt lat="-27.2305723" lon="151.4051085">
  <ele>539.83</ele>
  <time>2026-09-01T20:00:53Z</time>
  <course>357.14</course>
  <speed>2.2</speed>
  <fix>3d</fix>
</trkpt>
<trkpt lat="-27.2305635" lon="151.4051081">
  <ele>535.74</ele>
  <time>2026-09-01T20:00:53Z</time>
  <course>4.21</course>
  <speed>2.4410038918445007</speed>
  <fix>3d</fix>
</trkpt>
<trkpt lat="-27.2305679" lon="151.4051083">
  <ele>537.96</ele>
  <time>2026-09-01T20:00:53Z</time>
  <course>356.74</course>
  <speed>2.5</speed>
  <fix>3d</fix>
</trkpt>
<trkpt lat="-27.2305611" lon="151.4051081">
  <ele>534.49</ele>
  <time>2026-09-01T20:00:53Z</time>
  <course>4.51</course>
  <speed>2.9916717734403955</speed>
  <fix>3d</fix>
</trkpt>
<trkpt lat="-27.2305679" lon="151.4051083">
  <ele>537.96</ele>
  <time>2026-09-01T20:00:53Z</time>
  <course>356.74</course>
  <speed>2.5</speed>
  <fix>3d</fix>
</trkpt>
<trkpt lat="-27.230558" lon="151.4051082">
  <ele>533.18</ele>
  <time>2026-09-01T20:00:53Z</time>
  <course>4.0</course>
  <speed>4.0144239935512545</speed>
  <fix>3d</fix>
</trkpt>
<trkpt lat="-27.2305634" lon="151.4051081">
  <ele>535.73</ele>
  <time>2026-09-01T20:00:53Z</time>
  <course>359.47</course>
  <speed>2.66</speed>
  <fix>3d</fix>
</trkpt>
<trkpt lat="-27.2305538" lon="151.4051087">
  <ele>531.82</ele>
  <time>2026-09-01T20:00:53Z</time>
  <course>3.38</course>
  <speed>5.3384080023917235</speed>
  <fix>3d</fix>
</trkpt>
<trkpt lat="-27.2305634" lon="151.4051081">
  <ele>535.73</ele>
  <time>2026-09-01T20:00:53Z</time>
  <course>359.47</course>
  <speed>2.66</speed>
  <fix>3d</fix>
</trkpt>
<trkpt lat="-27.2305484" lon="151.4051093">
  <ele>530.44</ele>
  <time>2026-09-01T20:00:53Z</time>
  <course>3.08</course>
  <speed>6.715541675844175</speed>
  <fix>3d</fix>
</trkpt>
<trkpt lat="-27.2305575" lon="151.4051084">
  <ele>533.2</ele>
  <time>2026-09-01T20:00:53Z</time>
  <course>4.51</course>
  <speed>4.13</speed>
  <fix>3d</fix>
</trkpt>
<trkpt lat="-27.2305418" lon="151.4051101">
  <ele>529.06</ele>
  <time>2026-09-01T20:00:53Z</time>
  <course>3.19</course>
  <speed>8.024194663640706</speed>
  <fix>3d</fix>
</trkpt>
<trkpt lat="-27.2305575" lon="151.4051084">
  <ele>533.2</ele>
  <time>2026-09-01T20:00:53Z</time>
  <course>4.51</course>
  <speed>4.13</speed>
  <fix>3d</fix>
</trkpt>
<trkpt lat="-27.230534" lon="151.4051108">
  <ele>527.66</ele>
  <time>2026-09-01T20:00:53Z</time>
  <course>3.59</course>
  <speed>9.261236418535054</speed>
  <fix>3d</fix>
</trkpt>
<trkpt lat="-27.2305479" lon="151.4051093">
  <ele>530.48</ele>
  <time>2026-09-01T20:00:53Z</time>
  <course>5.61</course>
  <speed>6.64</speed>
  <fix>3d</fix>
</trkpt>
<trkpt lat="-27.2305252" lon="151.4051116">
  <ele>526.29</ele>
  <time>2026-09-01T20:00:53Z</time>
  <course>4.07</course>
  <speed>10.467626282973615</speed>
  <fix>3d</fix>
</trkpt>
<trkpt lat="-27.2305479" lon="151.4051093">
  <ele>530.48</ele>
  <time>2026-09-01T20:00:53Z</time>
  <course>5.61</course>
  <speed>6.64</speed>
  <fix>3d</fix>
</trkpt>
<trkpt lat="-27.2305152" lon="151.4051124">
  <ele>524.95</ele>
  <time>2026-09-01T20:00:53Z</time>
  <course>4.51</course>
  <speed>11.697388597460547</speed>
  <fix>3d</fix>
</trkpt>
<trkpt lat="-27.2305337" lon="151.4051108">
  <ele>527.72</ele>
  <time>2026-09-01T20:00:53Z</time>
  <course>4.71</course>
  <speed>9.21</speed>
  <fix>3d</fix>
</trkpt>
<trkpt lat="-27.2305042" lon="151.4051132">
  <ele>523.65</ele>
  <time>2026-09-01T20:00:53Z</time>
  <course>4.87</course>
  <speed>12.92998066510542</speed>
  <fix>3d</fix>
</trkpt>
<trkpt lat="-27.2305337" lon="151.4051108">
  <ele>527.72</ele>
  <time>2026-09-01T20:00:53Z</time>
  <course>4.71</course>
  <speed>9.21</speed>
  <fix>3d</fix>
</trkpt>
<trkpt lat="-27.2304921" lon="151.4051141">
  <ele>522.41</ele>
  <time>2026-09-01T20:00:53Z</time>
  <course>5.14</course>
  <speed>14.117623737725834</speed>
  <fix>3d</fix>
</trkpt>
<trkpt lat="-27.230515" lon="151.4051124">
  <ele>525.01</ele>
  <time>2026-09-01T20:00:53Z</time>
  <course>4.05</course>
  <speed>11.66</speed>
  <fix>3d</fix>
</trkpt>
<trkpt lat="-27.2304789" lon="151.4051153">
  <ele>521.27</ele>
  <time>2026-09-01T20:00:53Z</time>
  <course>5.36</course>
  <speed>15.209815909471095</speed>
  <fix>3d</fix>
</trkpt>
<trkpt lat="-27.230515" lon="151.4051124">
  <ele>525.01</ele>
  <time>2026-09-01T20:00:53Z</time>
  <course>4.05</course>
  <speed>11.66</speed>
  <fix>3d</fix>
</trkpt>
<trkpt lat="-27.2304649" lon="151.4051166">
  <ele>520.21</ele>
  <time>2026-09-01T20:00:53Z</time>
  <course>5.54</course>
  <speed>16.185981589017082</speed>
  <fix>3d</fix>
</trkpt>
<trkpt lat="-27.230492" lon="151.4051142">
  <ele>522.49</ele>
  <time>2026-09-01T20:00:53Z</time>
  <course>4.31</course>
  <speed>14.03</speed>
  <fix>3d</fix>
</trkpt>
<trkpt lat="-27.23045" lon="151.4051183">
  <ele>519.27</ele>
  <time>2026-09-01T20:00:53Z</time>
  <course>5.71</course>
  <speed>17.023101949997244</speed>
  <fix>3d</fix>
</trkpt>
<trkpt lat="-27.230492" lon="151.4051142">
  <ele>522.49</ele>
  <time>2026-09-01T20:00:53Z</time>
  <course>4.31</course>
  <speed>14.03</speed>
  <fix>3d</fix>
</trkpt>
<trkpt lat="-27.2304345" lon="151.4051201">
  <ele>518.44</ele>
  <time>2026-09-01T20:00:53Z</time>
  <course>5.87</course>
  <speed>17.718953129347117</speed>
  <fix>3d</fix>
</trkpt>
<trkpt lat="-27.2304649" lon="151.4051167">
  <ele>520.3</ele>
  <time>2026-09-01T20:00:53Z</time>
  <course>5.18</course>
  <speed>16.08</speed>
  <fix>3d</fix>
</trkpt>
<trkpt lat="-27.2304184" lon="151.4051221">
  <ele>517.74</ele>
  <time>2026-09-01T20:00:53Z</time>
  <course>6.01</course>
  <speed>18.26095835382141</speed>
  <fix>3d</fix>
</trkpt>
<trkpt lat="-27.2304649" lon="151.4051167">
  <ele>520.3</ele>
  <time>2026-09-01T20:00:53Z</time>
  <course>5.18</course>
  <speed>16.08</speed>
  <fix>3d</fix>
</trkpt>
<trkpt lat="-27.2304019" lon="151.4051241">
  <ele>517.16</ele>
  <time>2026-09-01T20:00:53Z</time>
  <course>6.12</course>
  <speed>18.627619278909478</speed>
  <fix>3d</fix>
</trkpt>
<trkpt lat="-27.2304347" lon="151.4051201">
  <ele>518.53</ele>
  <time>2026-09-01T20:00:53Z</time>
  <course>6.0</course>
  <speed>17.62</speed>
  <fix>3d</fix>
</trkpt>
<trkpt lat="-27.2303852" lon="151.4051263">
  <ele>516.73</ele>
  <time>2026-09-01T20:00:53Z</time>
  <course>6.2</course>
  <speed>18.829723842903274</speed>
  <fix>3d</fix>
</trkpt>
<trkpt lat="-27.2304347" lon="151.4051201">
  <ele>518.53</ele>
  <time>2026-09-01T20:00:53Z</time>
  <course>6.0</course>
  <speed>17.62</speed>
  <fix>3d</fix>
</trkpt>
<trkpt lat="-27.2303684" lon="151.4051284">
  <ele>516.4</ele>
  <time>2026-09-01T20:00:53Z</time>
  <course>6.28</course>
  <speed>18.878286468850927</speed>
  <fix>3d</fix>
</trkpt>
<trkpt lat="-27.2304022" lon="151.4051241">
  <ele>517.25</ele>
  <time>2026-09-01T20:00:53Z</time>
  <course>6.4</course>
  <speed>18.54</speed>
  <fix>3d</fix>
</trkpt>
<trkpt lat="-27.2303515" lon="151.4051306">
  <ele>516.15</ele>
  <time>2026-09-01T20:00:53Z</time>
  <course>6.36</course>
  <speed>18.83630802466343</speed>
  <fix>3d</fix>
</trkpt>
<trkpt lat="-27.2304022" lon="151.4051241">
  <ele>517.25</ele>
  <time>2026-09-01T20:00:53Z</time>
  <course>6.4</course>
  <speed>18.54</speed>
  <fix>3d</fix>
</trkpt>
<trkpt lat="-27.2303342" lon="151.4051327">
  <ele>515.93</ele>
  <time>2026-09-01T20:00:53Z</time>
  <course>6.44</course>
  <speed>18.743545555737313</speed>
  <fix>3d</fix>
</trkpt>
<trkpt lat="-27.2303687" lon="151.4051283">
  <ele>516.44</ele>
  <time>2026-09-01T20:00:53Z</time>
  <course>6.42</course>
  <speed>18.83</speed>
  <fix>3d</fix>
</trkpt>
<trkpt lat="-27.2303175" lon="151.4051347">
  <ele>515.74</ele>
  <time>2026-09-01T20:00:53Z</time>
  <course>6.49</course>
  <speed>18.63201545727139</speed>
  <fix>3d</fix>
</trkpt>
<trkpt lat="-27.2303352" lon="151.4051326">
  <ele>515.95</ele>
  <time>2026-09-01T20:00:53Z</time>
  <course>6.34</course>
  <speed>18.74</speed>
  <fix>3d</fix>
</trkpt>
<trkpt lat="-27.2303009" lon="151.4051369">
  <ele>515.56</ele>
  <time>2026-09-01T20:00:53Z</time>
  <course>6.51</course>
  <speed>18.511642282628518</speed>
  <fix>3d</fix>
</trkpt>
<trkpt lat="-27.2303352" lon="151.4051326">
  <ele>515.95</ele>
  <time>2026-09-01T20:00:53Z</time>
  <course>6.34</course>
  <speed>18.74</speed>
  <fix>3d</fix>
</trkpt>
<trkpt lat="-27.2302845" lon="151.4051389">
  <ele>515.38</ele>
  <time>2026-09-01T20:00:53Z</time>
  <course>6.5</course>
  <speed>18.392370700918356</speed>
  <fix>3d</fix>
</trkpt>
<trkpt lat="-27.2303019" lon="151.4051367">
  <ele>515.57</ele>
  <time>2026-09-01T20:00:53Z</time>
  <course>6.32</course>
  <speed>18.52</speed>
  <fix>3d</fix>
</trkpt>
<trkpt lat="-27.2302681" lon="151.4051409">
  <ele>515.21</ele>
  <time>2026-09-01T20:00:53Z</time>
  <course>6.47</course>
  <speed>18.27310865725917</speed>
  <fix>3d</fix>
</trkpt>
<trkpt lat="-27.2303019" lon="151.4051367">
  <ele>515.57</ele>
  <time>2026-09-01T20:00:53Z</time>
  <course>6.32</course>
  <speed>18.52</speed>
  <fix>3d</fix>
</trkpt>
<trkpt lat="-27.2285253" lon="151.4091752">
  <ele>542.96</ele>
  <time>2026-09-01T20:00:53Z</time>
  <course>250.0</course>
  <speed>0.0</speed>
  <fix>3d</fix>
</trkpt>
<trkpt lat="-27.2294053" lon="151.4071569">
  <ele>529.17</ele>
  <time>2026-09-01T20:00:53Z</time>
  <course>6.34</course>
  <speed>9.2</speed>
  <fix>3d</fix>
</trkpt>
<trkpt lat="-27.2285254" lon="151.4091752">
  <ele>542.83</ele>
  <time>2026-09-01T20:00:53Z</time>
  <course>250.0</course>
  <speed>0.01</speed>
  <fix>3d</fix>
</trkpt>
<trkpt lat="-27.2294053" lon="151.4071569">
  <ele>529.17</ele>
  <time>2026-09-01T20:00:53Z</time>
  <course>6.34</course>
  <speed>9.2</speed>
  <fix>3d</fix>
</trkpt>
<trkpt lat="-27.2285254" lon="151.4091752">
  <ele>542.6</ele>
  <time>2026-09-01T20:00:53Z</time>
  <course>249.99</course>
  <speed>0.06082762530298219</speed>
  <fix>3d</fix>
</trkpt>
<trkpt lat="-27.2294053" lon="151.4071569">
  <ele>529.17</ele>
  <time>2026-09-01T20:00:53Z</time>
  <course>6.34</course>
  <speed>9.2</speed>
  <fix>3d</fix>
</trkpt>
<trkpt lat="-27.2285254" lon="151.4091751">
  <ele>542.29</ele>
  <time>2026-09-01T20:00:53Z</time>
  <course>249.35</course>
  <speed>0.1392838827718412</speed>
  <fix>3d</fix>
</trkpt>
<trkpt lat="-27.2285253" lon="151.4091752">
  <ele>542.78</ele>
  <time>2026-09-01T20:00:53Z</time>
  <course>257.09</course>
  <speed>0.02</speed>
  <fix>3d</fix>
</trkpt>
<trkpt lat="-27.2285255" lon="151.4091748">
  <ele>541.91</ele>
  <time>2026-09-01T20:00:53Z</time>
  <course>246.1</course>
  <speed>0.28600699292150183</speed>
  <fix>3d</fix>
</trkpt>
<trkpt lat="-27.2285253" lon="151.4091752">
  <ele>542.78</ele>
  <time>2026-09-01T20:00:53Z</time>
  <course>257.09</course>
  <speed>0.02</speed>
  <fix>3d</fix>
</trkpt>
<trkpt lat="-27.2285258" lon="151.4091748">
  <ele>541.45</ele>
  <time>2026-09-01T20:00:53Z</time>
  <course>236.51</course>
  <speed>0.4743416490252569</speed>
  <fix>3d</fix>
</trkpt>
<trkpt lat="-27.2285254" lon="151.4091751">
  <ele>542.26</ele>
  <time>2026-09-01T20:00:53Z</time>
  <course>223.81</course>
  <speed>0.16</speed>
  <fix>3d</fix>
</trkpt>
<trkpt lat="-27.2285261" lon="151.4091746">
  <ele>540.91</ele>
  <time>2026-09-01T20:00:53Z</time>
  <course>235.2</course>
  <speed>0.47</speed>
  <fix>3d</fix>
</trkpt>
<trkpt lat="-27.2285254" lon="151.4091751">
  <ele>542.26</ele>
  <time>2026-09-01T20:00:53Z</time>
  <course>223.81</course>
  <speed>0.16</speed>
  <fix>3d</fix>
</trkpt>
<trkpt lat="-27.2285255" lon="151.4091737">
  <ele>540.35</ele>
  <time>2026-09-01T20:00:53Z</time>
  <course>247.86</course>
  <speed>1.8005554698481245</speed>
  <fix>3d</fix>
</trkpt>
<trkpt lat="-27.2285258" lon="151.4091748">
  <ele>541.43</ele>
  <time>2026-09-01T20:00:53Z</time>
  <course>247.09</course>
  <speed>0.34</speed>
  <fix>3d</fix>
</trkpt>
<trkpt lat="-27.2285237" lon="151.4091723">
  <ele>539.79</ele>
  <time>2026-09-01T20:00:53Z</time>
  <course>257.58</course>
  <speed>3.039111712326482</speed>
  <fix>3d</fix>
</trkpt>
<trkpt lat="-27.2285258" lon="151.4091748">
  <ele>541.43</ele>
  <time>2026-09-01T20:00:53Z</time>
  <course>247.09</course>
  <speed>0.34</speed>
  <fix>3d</fix>
</trkpt>
<trkpt lat="-27.2285209" lon="151.4091705">
  <ele>539.26</ele>
  <time>2026-09-01T20:00:53Z</time>
  <course>265.37</course>
  <speed>3.9891853805006354</speed>
  <fix>3d</fix>
</trkpt>
<trkpt lat="-27.2285249" lon="151.4091735">
  <ele>540.37</ele>
  <time>2026-09-01T20:00:53Z</time>
  <course>321.11</course>
  <speed>1.62</speed>
  <fix>3d</fix>
</trkpt>
<trkpt lat="-27.2285173" lon="151.4091686">
  <ele>538.79</ele>
  <time>2026-09-01T20:00:53Z</time>
  <course>272.25</course>
  <speed>4.7132685049761385</speed>
  <fix>3d</fix>
</trkpt>
<trkpt lat="-27.2285249" lon="151.4091735">
  <ele>540.37</ele>
  <time>2026-09-01T20:00:53Z</time>
  <course>321.11</course>
  <speed>1.62</speed>
  <fix>3d</fix>
</trkpt>
<trkpt lat="-27.2285131" lon="151.4091666">
  <ele>538.4</ele>
  <time>2026-09-01T20:00:53Z</time>
  <course>278.9</course>
  <speed>5.524499977373518</speed>
  <fix>3d</fix>
</trkpt>
<trkpt lat="-27.2285206" lon="151.4091705">
  <ele>539.3</ele>
  <time>2026-09-01T20:00:53Z</time>
  <course>332.86</course>
  <speed>3.84</speed>
  <fix>3d</fix>
</trkpt>
<trkpt lat="-27.2285083" lon="151.4091642">
  <ele>538.1</ele>
  <time>2026-09-01T20:00:53Z</time>
  <course>286.04</course>
  <speed>6.030008291868262</speed>
  <fix>3d</fix>
</trkpt>
<trkpt lat="-27.2285206" lon="151.4091705">
  <ele>539.3</ele>
  <time>2026-09-01T20:00:53Z</time>
  <course>332.86</course>
  <speed>3.84</speed>
  <fix>3d</fix>
</trkpt>
<trkpt lat="-27.2285032" lon="151.4091619">
  <ele>537.89</ele>
  <time>2026-09-01T20:00:53Z</time>
  <course>292.66</course>
  <speed>6.2855150942464535</speed>
  <fix>3d</fix>
</trkpt>
<trkpt lat="-27.228513" lon="151.4091665">
  <ele>538.45</ele>
  <time>2026-09-01T20:00:53Z</time>
  <course>336.67</course>
  <speed>5.36</speed>
  <fix>3d</fix>
</trkpt>
<trkpt lat="-27.2284978" lon="151.4091599">
  <ele>537.77</ele>
  <time>2026-09-01T20:00:53Z</time>
  <course>298.3</course>
  <speed>6.288409973912325</speed>
  <fix>3d</fix>
</trkpt>
<trkpt lat="-27.228513" lon="151.4091665">
  <ele>538.45</ele>
  <time>2026-09-01T20:00:53Z</time>
  <course>336.67</course>
  <speed>5.36</speed>
  <fix>3d</fix>
</trkpt>
<trkpt lat="-27.2284924" lon="151.4091585">
  <ele>537.74</ele>
  <time>2026-09-01T20:00:53Z</time>
  <course>302.9</course>
  <speed>6.130872694812705</speed>
  <fix>3d</fix>
</trkpt>
<trkpt lat="-27.2285032" lon="151.4091621">
  <ele>537.94</ele>
  <time>2026-09-01T20:00:53Z</time>
  <course>340.59</course>
  <speed>6.15</speed>
  <fix>3d</fix>
</trkpt>
<trkpt lat="-27.2284869" lon="151.4091574">
  <ele>537.78</ele>
  <time>2026-09-01T20:00:53Z</time>
  <course>306.93</course>
  <speed>5.895905358806228</speed>
  <fix>3d</fix>
</trkpt>
<trkpt lat="-27.2284925" lon="151.4091586">
  <ele>537.77</ele>
  <time>2026-09-01T20:00:53Z</time>
  <course>347.62</course>
  <speed>6.09</speed>
  <fix>3d</fix>
</trkpt>
<trkpt lat="-27.2284817" lon="151.4091566">
  <ele>537.87</ele>
  <time>2026-09-01T20:00:53Z</time>
  <course>310.65</course>
  <speed>5.692890302825094</speed>
  <fix>3d</fix>
</trkpt>
<trkpt lat="-27.2284925" lon="151.4091586">
  <ele>537.77</ele>
  <time>2026-09-01T20:00:53Z</time>
  <course>347.62</course>
  <speed>6.09</speed>
  <fix>3d</fix>
</trkpt>
<trkpt lat="-27.2284766" lon="151.4091563">
  <ele>538.0</ele>
  <time>2026-09-01T20:00:53Z</time>
  <course>314.36</course>
  <speed>5.561025085359713</speed>
  <fix>3d</fix>
</trkpt>
<trkpt lat="-27.228482" lon="151.4091568">
  <ele>537.88</ele>
  <time>2026-09-01T20:00:53Z</time>
  <course>354.0</course>
  <speed>5.73</speed>
  <fix>3d</fix>
</trkpt>
<trkpt lat="-27.2284717" lon="151.409156">
  <ele>538.16</ele>
  <time>2026-09-01T20:00:53Z</time>
  <course>317.74</course>
  <speed>5.476659565830252</speed>
  <fix>3d</fix>
</trkpt>
<trkpt lat="-27.228482" lon="151.4091568">
  <ele>537.88</ele>
  <time>2026-09-01T20:00:53Z</time>
  <course>354.0</course>
  <speed>5.73</speed>
  <fix>3d</fix>
</trkpt>
<trkpt lat="-27.2284668" lon="151.4091556">
  <ele>538.36</ele>
  <time>2026-09-01T20:00:53Z</time>
  <course>320.46</course>
  <speed>5.415320858453357</speed>
  <fix>3d</fix>
</trkpt>
<trkpt lat="-27.228472" lon="151.409156">
  <ele>538.17</ele>
  <time>2026-09-01T20:00:53Z</time>
  <course>356.84</course>
  <speed>5.49</speed>
  <fix>3d</fix>
</trkpt>
<trkpt lat="-27.228462" lon="151.4091555">
  <ele>538.58</ele>
  <time>2026-09-01T20:00:53Z</time>
  <course>322.4</course>
  <speed>5.3749232552660695</speed>
  <fix>3d</fix>
</trkpt>
<trkpt lat="-27.228472" lon="151.409156">
  <ele>538.17</ele>
  <time>2026-09-01T20:00:53Z</time>
  <course>356.84</course>
  <speed>5.49</speed>
  <fix>3d</fix>
</trkpt>
<trkpt lat="-27.2284572" lon="151.4091552">
  <ele>538.82</ele>
  <time>2026-09-01T20:00:53Z</time>
  <course>323.64</course>
  <speed>5.344950888455384</speed>
  <fix>3d</fix>
</trkpt>
<trkpt lat="-27.2284622" lon="151.4091555">
  <ele>538.57</ele>
  <time>2026-09-01T20:00:53Z</time>
  <course>357.4</course>
  <speed>5.38</speed>
  <fix>3d</fix>
</trkpt>
<trkpt lat="-27.2284524" lon="151.409155">
  <ele>539.08</ele>
  <time>2026-09-01T20:00:53Z</time>
  <course>324.35</course>
  <speed>5.315881864752075</speed>
  <fix>3d</fix>
</trkpt>
<trkpt lat="-27.2284622" lon="151.4091555">
  <ele>538.57</ele>
  <time>2026-09-01T20:00:53Z</time>
  <course>357.4</course>
  <speed>5.38</speed>
  <fix>3d</fix>
</trkpt>
<trkpt lat="-27.2284476" lon="151.4091546">
  <ele>539.36</ele>
  <time>2026-09-01T20:00:53Z</time>
  <course>324.71</course>
  <speed>5.30687290219014</speed>
  <fix>3d</fix>
</trkpt>
<trkpt lat="-27.2284526" lon="151.409155">
  <ele>539.07</ele>
  <time>2026-09-01T20:00:53Z</time>
  <course>357.26</course>
  <speed>5.33</speed>
  <fix>3d</fix>
</trkpt>
<trkpt lat="-27.2284428" lon="151.4091545">
  <ele>539.66</ele>
  <time>2026-09-01T20:00:53Z</time>
  <course>324.87</course>
  <speed>5.2979429970508365</speed>
  <fix>3d</fix>
</trkpt>
<trkpt lat="-27.2284526" lon="151.409155">
  <ele>539.07</ele>
  <time>2026-09-01T20:00:53Z</time>
  <course>357.26</course>
  <speed>5.33</speed>
  <fix>3d</fix>
</trkpt>
<trkpt lat="-27.2284381" lon="151.4091541">
  <ele>539.97</ele>
  <time>2026-09-01T20:00:53Z</time>
  <course>324.92</course>
  <speed>5.290302448820861</speed>
  <fix>3d</fix>
</trkpt>
<trkpt lat="-27.2284431" lon="151.4091545">
  <ele>539.64</ele>
  <time>2026-09-01T20:00:53Z</time>
  <course>356.76</course>
  <speed>5.3</speed>
  <fix>3d</fix>
</trkpt>
<trkpt lat="-27.2284334" lon="151.4091537">
  <ele>540.28</ele>
  <time>2026-09-01T20:00:53Z</time>
  <course>324.92</course>
  <speed>5.282281703960893</speed>
  <fix>3d</fix>
</trkpt>
<trkpt lat="-27.2284431" lon="151.4091545">
  <ele>539.64</ele>
  <time>2026-09-01T20:00:53Z</time>
  <course>356.76</course>
  <speed>5.3</speed>
  <fix>3d</fix>
</trkpt>
<trkpt lat="-27.2284287" lon="151.4091533">
  <ele>540.6</ele>
  <time>2026-09-01T20:00:53Z</time>
  <course>324.89</course>
  <speed>5.2751872004697615</speed>
  <fix>3d</fix>
</trkpt>
<trkpt lat="-27.2284431" lon="151.4091545">
  <ele>539.64</ele>
  <time>2026-09-01T20:00:53Z</time>
  <course>356.76</course>
  <speed>5.3</speed>
  <fix>3d</fix>
</trkpt>
<trkpt lat="-27.228424" lon="151.409153">
  <ele>540.91</ele>
  <time>2026-09-01T20:00:53Z</time>
  <course>324.83</course>
  <speed>5.279213956641652</speed>
  <fix>3d</fix>
</trkpt>
<trkpt lat="-27.2284336" lon="151.4091537">
  <ele>540.27</ele>
  <time>2026-09-01T20:00:53Z</time>
  <course>356.0</course>
  <speed>5.28</speed>
  <fix>3d</fix>
</trkpt>
<trkpt lat="-27.2284193" lon="151.4091525">
  <ele>541.24</ele>
  <time>2026-09-01T20:00:53Z</time>
  <course>324.76</course>
  <speed>5.282773892568184</speed>
  <fix>3d</fix>
</trkpt>
<trkpt lat="-27.2284336" lon="151.4091537">
  <ele>540.27</ele>
  <time>2026-09-01T20:00:53Z</time>
  <course>356.0</course>
  <speed>5.28</speed>
  <fix>3d</fix>
</trkpt>
<trkpt lat="-27.2284146" lon="151.409152">
  <ele>541.56</ele>
  <time>2026-09-01T20:00:53Z</time>
  <course>324.68</course>
  <speed>5.286634089853392</speed>
  <fix>3d</fix>
</trkpt>
<trkpt lat="-27.2284241" lon="151.4091529">
  <ele>540.91</ele>
  <time>2026-09-01T20:00:53Z</time>
  <course>355.1</course>
  <speed>5.28</speed>
  <fix>3d</fix>
</trkpt>
<trkpt lat="-27.2284098" lon="151.4091513">
  <ele>541.87</ele>
  <time>2026-09-01T20:00:53Z</time>
  <course>324.57</course>
  <speed>5.278730908087663</speed>
  <fix>3d</fix>
</trkpt>
<trkpt lat="-27.2284241" lon="151.4091529">
  <ele>540.91</ele>
  <time>2026-09-01T20:00:53Z</time>
  <course>355.1</course>
  <speed>5.28</speed>
  <fix>3d</fix>
</trkpt>
<trkpt lat="-27.2284051" lon="151.4091508">
  <ele>542.18</ele>
  <time>2026-09-01T20:00:53Z</time>
  <course>324.42</course>
  <speed>5.278730908087663</speed>
  <fix>3d</fix>
</trkpt>
<trkpt lat="-27.2284147" lon="151.4091519">
  <ele>541.54</ele>
  <time>2026-09-01T20:00:53Z</time>
  <course>354.32</course>
  <speed>5.28</speed>
  <fix>3d</fix>
</trkpt>
<trkpt lat="-27.2284004" lon="151.4091503">
  <ele>542.48</ele>
  <time>2026-09-01T20:00:53Z</time>
  <course>324.24</course>
  <speed>5.266735231621198</speed>
  <fix>3d</fix>
</trkpt>
<trkpt lat="-27.2284147" lon="151.4091519">
  <ele>541.54</ele>
  <time>2026-09-01T20:00:53Z</time>
  <course>354.32</course>
  <speed>5.28</speed>
  <fix>3d</fix>
</trkpt>
<trkpt lat="-27.2283957" lon="151.4091498">
  <ele>542.77</ele>
  <time>2026-09-01T20:00:53Z</time>
  <course>324.08</course>
  <speed>5.242022510443847</speed>
  <fix>3d</fix>
</trkpt>
<trkpt lat="-27.2284052" lon="151.4091508">
  <ele>542.16</ele>
  <time>2026-09-01T20:00:53Z</time>
  <course>354.1</course>
  <speed>5.27</speed>
  <fix>3d</fix>
</trkpt>
<trkpt lat="-27.228391" lon="151.4091493">
  <ele>543.04</ele>
  <time>2026-09-01T20:00:53Z</time>
  <course>323.94</course>
  <speed>5.187031906591668</speed>
  <fix>3d</fix>
</trkpt>
<trkpt lat="-27.2284052" lon="151.4091508">
  <ele>542.16</ele>
  <time>2026-09-01T20:00:53Z</time>
  <course>354.1</course>
  <speed>5.27</speed>
  <fix>3d</fix>
</trkpt>
<trkpt lat="-27.2283863" lon="151.4091489">
  <ele>543.34</ele>
  <time>2026-09-01T20:00:53Z</time>
  <course>323.73</course>
  <speed>5.08138760576282</speed>
  <fix>3d</fix>
</trkpt>
<trkpt lat="-27.2283958" lon="151.4091498">
  <ele>542.76</ele>
  <time>2026-09-01T20:00:53Z</time>
  <course>354.76</course>
  <speed>5.23</speed>
  <fix>3d</fix>
</trkpt>
<trkpt lat="-27.2283818" lon="151.4091485">
  <ele>543.61</ele>
  <time>2026-09-01T20:00:53Z</time>
  <course>323.44</course>
  <speed>4.927961038807024</speed>
  <fix>3d</fix>
</trkpt>
<trkpt lat="-27.2283866" lon="151.4091489">
  <ele>543.32</ele>
  <time>2026-09-01T20:00:53Z</time>
  <course>355.98</course>
  <speed>5.06</speed>
  <fix>3d</fix>
</trkpt>
<trkpt lat="-27.2283774" lon="151.4091484">
  <ele>543.88</ele>
  <time>2026-09-01T20:00:53Z</time>
  <course>323.09</course>
  <speed>4.705146118878775</speed>
  <fix>3d</fix>
</trkpt>
<trkpt lat="-27.2283866" lon="151.4091489">
  <ele>543.32</ele>
  <time>2026-09-01T20:00:53Z</time>
  <course>355.98</course>
  <speed>5.06</speed>
  <fix>3d</fix>
</trkpt>
<trkpt lat="-27.2283734" lon="151.4091482">
  <ele>544.15</ele>
  <time>2026-09-01T20:00:53Z</time>
  <course>322.69</course>
  <speed>4.422894979535462</speed>
  <fix>3d</fix>
</trkpt>
<trkpt lat="-27.2283777" lon="151.4091484">
  <ele>543.86</ele>
  <time>2026-09-01T20:00:53Z</time>
  <course>357.21</course>
  <speed>4.69</speed>
  <fix>3d</fix>
</trkpt>
<trkpt lat="-27.2283695" lon="151.4091479">
  <ele>544.41</ele>
  <time>2026-09-01T20:00:53Z</time>
  <course>322.23</course>
  <speed>4.111471755953092</speed>
  <fix>3d</fix>
</trkpt>
<trkpt lat="-27.2283777" lon="151.4091484">
  <ele>543.86</ele>
  <time>2026-09-01T20:00:53Z</time>
  <course>357.21</course>
  <speed>4.69</speed>
  <fix>3d</fix>
</trkpt>
<trkpt lat="-27.228366" lon="151.4091479">
  <ele>544.68</ele>
  <time>2026-09-01T20:00:53Z</time>
  <course>321.7</course>
  <speed>3.770848710834207</speed>
  <fix>3d</fix>
</trkpt>
<trkpt lat="-27.2283698" lon="151.409148">
  <ele>544.39</ele>
  <time>2026-09-01T20:00:53Z</time>
  <course>358.26</course>
  <speed>4.12</speed>
  <fix>3d</fix>
</trkpt>
<trkpt lat="-27.2283627" lon="151.4091479">
  <ele>544.94</ele>
  <time>2026-09-01T20:00:53Z</time>
  <course>321.1</course>
  <speed>3.430364412128834</speed>
  <fix>3d</fix>
</trkpt>
<trkpt lat="-27.2283698" lon="151.409148">
  <ele>544.39</ele>
  <time>2026-09-01T20:00:53Z</time>
  <course>358.26</course>
  <speed>4.12</speed>
  <fix>3d</fix>
</trkpt>
<trkpt lat="-27.2283598" lon="151.4091478">
  <ele>545.2</ele>
  <time>2026-09-01T20:00:53Z</time>
  <course>320.4</course>
  <speed>3.0700651458886017</speed>
  <fix>3d</fix>
</trkpt>
<trkpt lat="-27.2283631" lon="151.4091478">
  <ele>544.92</ele>
  <time>2026-09-01T20:00:53Z</time>
  <course>359.07</course>
  <speed>3.44</speed>
  <fix>3d</fix>
</trkpt>
<trkpt lat="-27.2283572" lon="151.4091478">
  <ele>545.46</ele>
  <time>2026-09-01T20:00:53Z</time>
  <course>319.61</course>
  <speed>2.72</speed>
  <fix>3d</fix>
</trkpt>
<trkpt lat="-27.2283631" lon="151.4091478">
  <ele>544.92</ele>
  <time>2026-09-01T20:00:53Z</time>
  <course>359.07</course>
  <speed>3.44</speed>
  <fix>3d</fix>
</trkpt>
<trkpt lat="-27.2283549" lon="151.4091478">
  <ele>545.72</ele>
  <time>2026-09-01T20:00:53Z</time>
  <course>318.75</course>
  <speed>2.380021008310641</speed>
  <fix>3d</fix>
</trkpt>
<trkpt lat="-27.2283575" lon="151.4091478">
  <ele>545.45</ele>
  <time>2026-09-01T20:00:53Z</time>
  <course>359.86</course>
  <speed>2.75</speed>
  <fix>3d</fix>
</trkpt>
<trkpt lat="-27.2283529" lon="151.4091478">
  <ele>545.98</ele>
  <time>2026-09-01T20:00:53Z</time>
  <course>317.86</course>
  <speed>2.0402205763103165</speed>
  <fix>3d</fix>
</trkpt>
<trkpt lat="-27.2283575" lon="151.4091478">
  <ele>545.45</ele>
  <time>2026-09-01T20:00:53Z</time>
  <course>359.86</course>
  <speed>2.75</speed>
  <fix>3d</fix>
</trkpt>
<trkpt lat="-27.2283513" lon="151.4091478">
  <ele>546.24</ele>
  <time>2026-09-01T20:00:53Z</time>
  <course>316.97</course>
  <speed>1.710730837975396</speed>
  <fix>3d</fix>
</trkpt>
<trkpt lat="-27.2283531" lon="151.4091478">
  <ele>545.97</ele>
  <time>2026-09-01T20:00:53Z</time>
  <course>0.95</course>
  <speed>2.06</speed>
  <fix>3d</fix>
</trkpt>
<trkpt lat="-27.2283499" lon="151.4091479">
  <ele>546.5</ele>
  <time>2026-09-01T20:00:53Z</time>
  <course>316.15</course>
  <speed>1.401748907615055</speed>
  <fix>3d</fix>
</trkpt>
<trkpt lat="-27.2283531" lon="151.4091478">
  <ele>545.97</ele>
  <time>2026-09-01T20:00:53Z</time>
  <course>0.95</course>
  <speed>2.06</speed>
  <fix>3d</fix>
</trkpt>
<trkpt lat="-27.2283486" lon="151.4091479">
  <ele>546.71</ele>
  <time>2026-09-01T20:00:53Z</time>
  <course>315.57</course>
  <speed>1.3905754204644925</speed>
  <fix>3d</fix>
</trkpt>
<trkpt lat="-27.22835" lon="151.4091478">
  <ele>546.46</ele>
  <time>2026-09-01T20:00:53Z</time>
  <course>1.79</course>
  <speed>1.56</speed>
  <fix>3d</fix>
</trkpt>
<trkpt lat="-27.2283474" lon="151.4091479">
  <ele>546.81</ele>
  <time>2026-09-01T20:00:53Z</time>
  <course>315.29</course>
  <speed>1.3901438774457844</speed>
  <fix>3d</fix>
</trkpt>
<trkpt lat="-27.22835" lon="151.4091478">
  <ele>546.46</ele>
  <time>2026-09-01T20:00:53Z</time>
  <course>1.79</course>
  <speed>1.56</speed>
  <fix>3d</fix>
</trkpt>
<trkpt lat="-27.2283461" lon="151.4091479">
  <ele>546.82</ele>
  <time>2026-09-01T20:00:53Z</time>
  <course>315.2</course>
  <speed>1.3801449199268894</speed>
  <fix>3d</fix>
</trkpt>
<trkpt lat="-27.2283474" lon="151.4091479">
  <ele>546.76</ele>
  <time>2026-09-01T20:00:53Z</time>
  <course>1.4</course>
  <speed>1.39</speed>
  <fix>3d</fix>
</trkpt>
<trkpt lat="-27.2283449" lon="151.4091479">
  <ele>546.73</ele>
  <time>2026-09-01T20:00:53Z</time>
  <course>315.29</course>
  <speed>1.350148140020198</speed>
  <fix>3d</fix>
</trkpt>
<trkpt lat="-27.2283474" lon="151.4091479">
  <ele>546.76</ele>
  <time>2026-09-01T20:00:53Z</time>
  <course>1.4</course>
  <speed>1.39</speed>
  <fix>3d</fix>
</trkpt>
<trkpt lat="-27.2283437" lon="151.4091479">
  <ele>546.55</ele>
  <time>2026-09-01T20:00:53Z</time>
  <course>315.73</course>
  <speed>1.2900387591076479</speed>
  <fix>3d</fix>
</trkpt>
<trkpt lat="-27.2283449" lon="151.4091479">
  <ele>546.69</ele>
  <time>2026-09-01T20:00:53Z</time>
  <course>0.92</course>
  <speed>1.34</speed>
  <fix>3d</fix>
</trkpt>
<trkpt lat="-27.2283425" lon="151.4091479">
  <ele>546.29</ele>
  <time>2026-09-01T20:00:53Z</time>
  <course>316.8</course>
  <speed>1.2</speed>
  <fix>3d</fix>
</trkpt>
<trkpt lat="-27.2283449" lon="151.4091479">
  <ele>546.69</ele>
  <time>2026-09-01T20:00:53Z</time>
  <course>0.92</course>
  <speed>1.34</speed>
  <fix>3d</fix>
</trkpt>
<trkpt lat="-27.2283415" lon="151.4091479">
  <ele>545.97</ele>
  <time>2026-09-01T20:00:53Z</time>
  <course>318.53</course>
  <speed>1.100409014866745</speed>
  <fix>3d</fix>
</trkpt>
<trkpt lat="-27.2283449" lon="151.4091479">
  <ele>546.69</ele>
  <time>2026-09-01T20:00:53Z</time>
  <course>0.92</course>
  <speed>1.34</speed>
  <fix>3d</fix>
</trkpt>
<trkpt lat="-27.2283405" lon="151.4091479">
  <ele>545.57</ele>
  <time>2026-09-01T20:00:53Z</time>
  <course>320.48</course>
  <speed>1.0212247548899311</speed>
  <fix>3d</fix>
</trkpt>
<trkpt lat="-27.2283426" lon="151.4091479">
  <ele>546.27</ele>
  <time>2026-09-01T20:00:53Z</time>
  <course>359.68</course>
  <speed>1.2</speed>
  <fix>3d</fix>
</trkpt>
<trkpt lat="-27.2283397" lon="151.4091479">
  <ele>545.13</ele>
  <time>2026-09-01T20:00:53Z</time>
  <course>322.1</course>
  <speed>0.9533624704172071</speed>
  <fix>3d</fix>
</trkpt>
<trkpt lat="-27.2283406" lon="151.4091479">
  <ele>545.56</ele>
  <time>2026-09-01T20:00:53Z</time>
  <course>356.87</course>
  <speed>1.03</speed>
  <fix>3d</fix>
</trkpt>
<trkpt lat="-27.2283388" lon="151.4091479">
  <ele>544.65</ele>
  <time>2026-09-01T20:00:53Z</time>
  <course>323.51</course>
  <speed>0.9093404203047393</speed>
  <fix>3d</fix>
</trkpt>
<trkpt lat="-27.2283406" lon="151.4091479">
  <ele>545.56</ele>
  <time>2026-09-01T20:00:53Z</time>
  <course>356.87</course>
  <speed>1.03</speed>
  <fix>3d</fix>
</trkpt>
<trkpt lat="-27.228338" lon="151.4091477">
  <ele>544.12</ele>
  <time>2026-09-01T20:00:53Z</time>
  <course>324.79</course>
  <speed>0.9121951545584969</speed>
  <fix>3d</fix>
</trkpt>
<trkpt lat="-27.2283389" lon="151.4091478">
  <ele>544.65</ele>
  <time>2026-09-01T20:00:53Z</time>
  <course>351.43</course>
  <speed>0.93</speed>
  <fix>3d</fix>
</trkpt>
<trkpt lat="-27.2283372" lon="151.4091475">
  <ele>543.54</ele>
  <time>2026-09-01T20:00:53Z</time>
  <course>325.97</course>
  <speed>0.9646242791885347</speed>
  <fix>3d</fix>
</trkpt>
<trkpt lat="-27.2283389" lon="151.4091478">
  <ele>544.65</ele>
  <time>2026-09-01T20:00:53Z</time>
  <course>351.43</course>
  <speed>0.93</speed>
  <fix>3d</fix>
</trkpt>
<trkpt lat="-27.2283364" lon="151.409147">
  <ele>542.91</ele>
  <time>2026-09-01T20:00:53Z</time>
  <course>327.04</course>
  <speed>1.0475208828467335</speed>
  <fix>3d</fix>
</trkpt>
<trkpt lat="-27.2283372" lon="151.4091474">
  <ele>543.55</ele>
  <time>2026-09-01T20:00:53Z</time>
  <course>343.12</course>
  <speed>0.97</speed>
  <fix>3d</fix>
</trkpt>
<trkpt lat="-27.2283354" lon="151.4091466">
  <ele>542.21</ele>
  <time>2026-09-01T20:00:53Z</time>
  <course>327.97</course>
  <speed>1.2580143083447024</speed>
  <fix>3d</fix>
</trkpt>
<trkpt lat="-27.2283372" lon="151.4091474">
  <ele>543.55</ele>
  <time>2026-09-01T20:00:53Z</time>
  <course>343.12</course>
  <speed>0.97</speed>
  <fix>3d</fix>
</trkpt>
<trkpt lat="-27.2283341" lon="151.4091459">
  <ele>541.44</ele>
  <time>2026-09-01T20:00:53Z</time>
  <course>328.87</course>
  <speed>2.0847062143141417</speed>
  <fix>3d</fix>
</trkpt>
<trkpt lat="-27.2283353" lon="151.4091465">
  <ele>542.21</ele>
  <time>2026-09-01T20:00:53Z</time>
  <course>334.51</course>
  <speed>1.54</speed>
  <fix>3d</fix>
</trkpt>
<trkpt lat="-27.2283322" lon="151.4091448">
  <ele>540.6</ele>
  <time>2026-09-01T20:00:53Z</time>
  <course>329.57</course>
  <speed>2.470080970332754</speed>
  <fix>3d</fix>
</trkpt>
<trkpt lat="-27.2283353" lon="151.4091465">
  <ele>542.21</ele>
  <time>2026-09-01T20:00:53Z</time>
  <course>334.51</course>
  <speed>1.54</speed>
  <fix>3d</fix>
</trkpt>
<trkpt lat="-27.2283303" lon="151.4091436">
  <ele>539.66</ele>
  <time>2026-09-01T20:00:53Z</time>
  <course>329.77</course>
  <speed>2.4389546941261537</speed>
  <fix>3d</fix>
</trkpt>
<trkpt lat="-27.2283323" lon="151.4091448">
  <ele>540.6</ele>
  <time>2026-09-01T20:00:53Z</time>
  <course>331.65</course>
  <speed>2.25</speed>
  <fix>3d</fix>
</trkpt>
<trkpt lat="-27.2283284" lon="151.4091425">
  <ele>538.64</ele>
  <time>2026-09-01T20:00:53Z</time>
  <course>329.91</course>
  <speed>2.219481921530338</speed>
  <fix>3d</fix>
</trkpt>
<trkpt lat="-27.2283323" lon="151.4091448">
  <ele>540.6</ele>
  <time>2026-09-01T20:00:53Z</time>
  <course>331.65</course>
  <speed>2.25</speed>
  <fix>3d</fix>
</trkpt>
<trkpt lat="-27.2283267" lon="151.4091413">
  <ele>537.53</ele>
  <time>2026-09-01T20:00:53Z</time>
  <course>330.6</course>
  <speed>2.116530179326532</speed>
  <fix>3d</fix>
</trkpt>
<trkpt lat="-27.2283286" lon="151.4091426">
  <ele>538.66</ele>
  <time>2026-09-01T20:00:53Z</time>
  <course>331.36</course>
  <speed>2.29</speed>
  <fix>3d</fix>
</trkpt>
<trkpt lat="-27.2283249" lon="151.4091403">
  <ele>536.32</ele>
  <time>2026-09-01T20:00:53Z</time>
  <course>330.71</course>
  <speed>2.4335365211970825</speed>
  <fix>3d</fix>
</trkpt>
<trkpt lat="-27.2283286" lon="151.4091426">
  <ele>538.66</ele>
  <time>2026-09-01T20:00:53Z</time>
  <course>331.36</course>
  <speed>2.29</speed>
  <fix>3d</fix>
</trkpt>
<trkpt lat="-27.2283227" lon="151.4091389">
  <ele>535.04</ele>
  <time>2026-09-01T20:00:53Z</time>
  <course>330.46</course>
  <speed>3.256501189927619</speed>
  <fix>3d</fix>
</trkpt>
<trkpt lat="-27.2283248" lon="151.4091403">
  <ele>536.35</ele>
  <time>2026-09-01T20:00:53Z</time>
  <course>331.81</course>
  <speed>2.66</speed>
  <fix>3d</fix>
</trkpt>
<trkpt lat="-27.2283197" lon="151.4091372">
  <ele>533.7</ele>
  <time>2026-09-01T20:00:53Z</time>
  <course>330.18</course>
  <speed>4.4694183066703435</speed>
  <fix>3d</fix>
</trkpt>
<trkpt lat="-27.2283248" lon="151.4091403">
  <ele>536.35</ele>
  <time>2026-09-01T20:00:53Z</time>
  <course>331.81</course>
  <speed>2.66</speed>
  <fix>3d</fix>
</trkpt>
<trkpt lat="-27.2283156" lon="151.4091346">
  <ele>532.33</ele>
  <time>2026-09-01T20:00:53Z</time>
  <course>330.04</course>
  <speed>5.857960395905728</speed>
  <fix>3d</fix>
</trkpt>
<trkpt lat="-27.2283193" lon="151.4091369">
  <ele>533.76</ele>
  <time>2026-09-01T20:00:53Z</time>
  <course>331.59</course>
  <speed>4.49</speed>
  <fix>3d</fix>
</trkpt>
<trkpt lat="-27.2283104" lon="151.4091315">
  <ele>530.94</ele>
  <time>2026-09-01T20:00:53Z</time>
  <course>330.07</course>
  <speed>7.203068790453136</speed>
  <fix>3d</fix>
</trkpt>
<trkpt lat="-27.2283193" lon="151.4091369">
  <ele>533.76</ele>
  <time>2026-09-01T20:00:53Z</time>
  <course>331.59</course>
  <speed>4.49</speed>
  <fix>3d</fix>
</trkpt>
<trkpt lat="-27.2283043" lon="151.4091276">
  <ele>529.54</ele>
  <time>2026-09-01T20:00:53Z</time>
  <course>330.2</course>
  <speed>8.472856661126754</speed>
  <fix>3d</fix>
</trkpt>
<trkpt lat="-27.2283101" lon="151.4091313">
  <ele>531.01</ele>
  <time>2026-09-01T20:00:53Z</time>
  <course>330.8</course>
  <speed>7.09</speed>
  <fix>3d</fix>
</trkpt>
<trkpt lat="-27.2282972" lon="151.409123">
  <ele>528.16</ele>
  <time>2026-09-01T20:00:53Z</time>
  <course>330.34</course>
  <speed>9.693322443826988</speed>
  <fix>3d</fix>
</trkpt>
<trkpt lat="-27.2283101" lon="151.4091313">
  <ele>531.01</ele>
  <time>2026-09-01T20:00:53Z</time>
  <course>330.8</course>
  <speed>7.09</speed>
  <fix>3d</fix>
</trkpt>
<trkpt lat="-27.2282892" lon="151.4091178">
  <ele>526.79</ele>
  <time>2026-09-01T20:00:53Z</time>
  <course>330.45</course>
  <speed>10.926271093103997</speed>
  <fix>3d</fix>
</trkpt>
<trkpt lat="-27.2282971" lon="151.4091229">
  <ele>528.24</ele>
  <time>2026-09-01T20:00:53Z</time>
  <course>330.24</course>
  <speed>9.64</speed>
  <fix>3d</fix>
</trkpt>
<trkpt lat="-27.2282802" lon="151.409112">
  <ele>525.45</ele>
  <time>2026-09-01T20:00:53Z</time>
  <course>330.53</course>
  <speed>12.17527001753965</speed>
  <fix>3d</fix>
</trkpt>
<trkpt lat="-27.2282971" lon="151.4091229">
  <ele>528.24</ele>
  <time>2026-09-01T20:00:53Z</time>
  <course>330.24</course>
  <speed>9.64</speed>
  <fix>3d</fix>
</trkpt>
<trkpt lat="-27.2282702" lon="151.4091056">
  <ele>524.16</ele>
  <time>2026-09-01T20:00:53Z</time>
  <course>330.57</course>
  <speed>13.405674171782634</speed>
  <fix>3d</fix>
</trkpt>
<trkpt lat="-27.2282801" lon="151.409112">
  <ele>525.54</ele>
  <time>2026-09-01T20:00:53Z</time>
  <course>330.16</course>
  <speed>12.11</speed>
  <fix>3d</fix>
</trkpt>
<trkpt lat="-27.2282593" lon="151.4090986">
  <ele>522.96</ele>
  <time>2026-09-01T20:00:53Z</time>
  <course>330.6</course>
  <speed>14.559247920136533</speed>
  <fix>3d</fix>
</trkpt>
<trkpt lat="-27.2282801" lon="151.409112">
  <ele>525.54</ele>
  <time>2026-09-01T20:00:53Z</time>
  <course>330.16</course>
  <speed>12.11</speed>
  <fix>3d</fix>
</trkpt>
<trkpt lat="-27.2282474" lon="151.409091">
  <ele>521.84</ele>
  <time>2026-09-01T20:00:53Z</time>
  <course>330.62</course>
  <speed>15.613740743332457</speed>
  <fix>3d</fix>
</trkpt>
<trkpt lat="-27.2282594" lon="151.4090986">
  <ele>523.06</ele>
  <time>2026-09-01T20:00:53Z</time>
  <course>330.4</course>
  <speed>14.46</speed>
  <fix>3d</fix>
</trkpt>
<trkpt lat="-27.2282348" lon="151.4090831">
  <ele>520.83</ele>
  <time>2026-09-01T20:00:53Z</time>
  <course>330.63</course>
  <speed>16.547957577900664</speed>
  <fix>3d</fix>
</trkpt>
<trkpt lat="-27.2282594" lon="151.4090986">
  <ele>523.06</ele>
  <time>2026-09-01T20:00:53Z</time>
  <course>330.4</course>
  <speed>14.46</speed>
  <fix>3d</fix>
</trkpt>
<trkpt lat="-27.2282216" lon="151.4090747">
  <ele>519.91</ele>
  <time>2026-09-01T20:00:53Z</time>
  <course>330.64</course>
  <speed>17.33948672827428</speed>
  <fix>3d</fix>
</trkpt>
<trkpt lat="-27.2282351" lon="151.4090833">
  <ele>520.93</ele>
  <time>2026-09-01T20:00:53Z</time>
  <course>330.66</course>
  <speed>16.44</speed>
  <fix>3d</fix>
</trkpt>
<trkpt lat="-27.2282077" lon="151.409066">
  <ele>519.14</ele>
  <time>2026-09-01T20:00:53Z</time>
  <course>330.65</course>
  <speed>17.983406240198214</speed>
  <fix>3d</fix>
</trkpt>
<trkpt lat="-27.2282351" lon="151.4090833">
  <ele>520.93</ele>
  <time>2026-09-01T20:00:53Z</time>
  <course>330.66</course>
  <speed>16.44</speed>
  <fix>3d</fix>
</trkpt>
<trkpt lat="-27.2281933" lon="151.4090569">
  <ele>518.49</ele>
  <time>2026-09-01T20:00:53Z</time>
  <course>330.64</course>
  <speed>18.463274357491414</speed>
  <fix>3d</fix>
</trkpt>
<trkpt lat="-27.2282081" lon="151.4090663">
  <ele>519.24</ele>
  <time>2026-09-01T20:00:53Z</time>
  <course>330.76</course>
  <speed>17.87</speed>
  <fix>3d</fix>
</trkpt>
<trkpt lat="-27.2281787" lon="151.4090477">
  <ele>517.97</ele>
  <time>2026-09-01T20:00:53Z</time>
  <course>330.63</course>
  <speed>18.759584217140848</speed>
  <fix>3d</fix>
</trkpt>
<trkpt lat="-27.2282081" lon="151.4090663">
  <ele>519.24</ele>
  <time>2026-09-01T20:00:53Z</time>
  <course>330.76</course>
  <speed>17.87</speed>
  <fix>3d</fix>
</trkpt>
<trkpt lat="-27.2281639" lon="151.4090383">
  <ele>517.58</ele>
  <time>2026-09-01T20:00:53Z</time>
  <course>330.62</course>
  <speed>18.89466856020502</speed>
  <fix>3d</fix>
</trkpt>
<trkpt lat="-27.2281794" lon="151.4090482">
  <ele>518.06</ele>
  <time>2026-09-01T20:00:53Z</time>
  <course>330.7</course>
  <speed>18.67</speed>
  <fix>3d</fix>
</trkpt>
<trkpt lat="-27.2281491" lon="151.409029">
  <ele>517.28</ele>
  <time>2026-09-01T20:00:53Z</time>
  <course>330.62</course>
  <speed>18.895766721676047</speed>
  <fix>3d</fix>
</trkpt>
<trkpt lat="-27.2281794" lon="151.4090482">
  <ele>518.06</ele>
  <time>2026-09-01T20:00:53Z</time>
  <course>330.7</course>
  <speed>18.67</speed>
  <fix>3d</fix>
</trkpt>
<trkpt lat="-27.2281344" lon="151.4090196">
  <ele>517.04</ele>
  <time>2026-09-01T20:00:53Z</time>
  <course>330.62</course>
  <speed>18.833682592631746</speed>
  <fix>3d</fix>
</trkpt>
<trkpt lat="-27.22815" lon="151.4090296">
  <ele>517.32</ele>
  <time>2026-09-01T20:00:53Z</time>
  <course>330.59</course>
  <speed>18.87</speed>
  <fix>3d</fix>
</trkpt>
<trkpt lat="-27.2281197" lon="151.4090103">
  <ele>516.84</ele>
  <time>2026-09-01T20:00:53Z</time>
  <course>330.62</course>
  <speed>18.73564784041374</speed>
  <fix>3d</fix>
</trkpt>
<trkpt lat="-27.22815" lon="151.4090296">
  <ele>517.32</ele>
  <time>2026-09-01T20:00:53Z</time>
  <course>330.59</course>
  <speed>18.87</speed>
  <fix>3d</fix>
</trkpt>
<trkpt lat="-27.2281051" lon="151.409001">
  <ele>516.66</ele>
  <time>2026-09-01T20:00:53Z</time>
  <course>330.6</course>
  <speed>18.61906818291399</speed>
  <fix>3d</fix>
</trkpt>
<trkpt lat="-27.2281205" lon="151.4090109">
  <ele>516.86</ele>
  <time>2026-09-01T20:00:53Z</time>
  <course>330.52</course>
  <speed>18.73</speed>
  <fix>3d</fix>
</trkpt>
<trkpt lat="-27.2280906" lon="151.4089918">
  <ele>516.48</ele>
  <time>2026-09-01T20:00:53Z</time>
  <course>330.58</course>
  <speed>18.49870536010561</speed>
  <fix>3d</fix>
</trkpt>
<trkpt lat="-27.2281205" lon="151.4090109">
  <ele>516.86</ele>
  <time>2026-09-01T20:00:53Z</time>
  <course>330.52</course>
  <speed>18.73</speed>
  <fix>3d</fix>
</trkpt>
<trkpt lat="-27.2280761" lon="151.4089826">
  <ele>516.29</ele>
  <time>2026-09-01T20:00:53Z</time>
  <course>330.55</course>
  <speed>18.38212446916841</speed>
  <fix>3d</fix>
</trkpt>
<trkpt lat="-27.2280914" lon="151.4089924">
  <ele>516.49</ele>
  <time>2026-09-01T20:00:53Z</time>
  <course>330.5</course>
  <speed>18.51</speed>
  <fix>3d</fix>
</trkpt>
<trkpt lat="-27.2280618" lon="151.4089735">
  <ele>516.13</ele>
  <time>2026-09-01T20:00:53Z</time>
  <course>330.53</course>
  <speed>18.26554406526124</speed>
  <fix>3d</fix>
</trkpt>
<trkpt lat="-27.2280914" lon="151.4089924">
  <ele>516.49</ele>
  <time>2026-09-01T20:00:53Z</time>
  <course>330.5</course>
  <speed>18.51</speed>
  <fix>3d</fix>
</trkpt>
<trkpt lat="-27.2280476" lon="151.4089645">
  <ele>515.96</ele>
  <time>2026-09-01T20:00:53Z</time>
  <course>330.52</course>
  <speed>18.148964157769445</speed>
  <fix>3d</fix>
</trkpt>
<trkpt lat="-27.2280627" lon="151.4089741">
  <ele>516.14</ele>
  <time>2026-09-01T20:00:53Z</time>
  <course>330.51</course>
  <speed>18.27</speed>
  <fix>3d</fix>
</trkpt>
<trkpt lat="-27.2280334" lon="151.4089555">
  <ele>515.79</ele>
  <time>2026-09-01T20:00:53Z</time>
  <course>330.51</course>
  <speed>18.032384756321054</speed>
  <fix>3d</fix>
</trkpt>
<trkpt lat="-27.2280627" lon="151.4089741">
  <ele>516.14</ele>
  <time>2026-09-01T20:00:53Z</time>
  <course>330.51</course>
  <speed>18.27</speed>
  <fix>3d</fix>
</trkpt>
<trkpt lat="-27.2280194" lon="151.4089466">
  <ele>515.63</ele>
  <time>2026-09-01T20:00:53Z</time>
  <course>330.51</course>
  <speed>17.91580587079465</speed>
  <fix>3d</fix>
</trkpt>
<trkpt lat="-27.2280342" lon="151.408956">
  <ele>515.8</ele>
  <time>2026-09-01T20:00:53Z</time>
  <course>330.52</course>
  <speed>18.04</speed>
  <fix>3d</fix>
</trkpt>
<trkpt lat="-27.2280054" lon="151.4089377">
  <ele>515.46</ele>
  <time>2026-09-01T20:00:53Z</time>
  <course>330.52</course>
  <speed>17.80414558466651</speed>
  <fix>3d</fix>
</trkpt>
<trkpt lat="-27.2280342" lon="151.408956">
  <ele>515.8</ele>
  <time>2026-09-01T20:00:53Z</time>
  <course>330.52</course>
  <speed>18.04</speed>
  <fix>3d</fix>
</trkpt>
<trkpt lat="-27.2279915" lon="151.4089289">
  <ele>515.29</ele>
  <time>2026-09-01T20:00:53Z</time>
  <course>330.52</course>
  <speed>17.701192050254694</speed>
  <fix>3d</fix>
</trkpt>
<trkpt lat="-27.2280061" lon="151.4089381">
  <ele>515.46</ele>
  <time>2026-09-01T20:00:53Z</time>
  <course>330.52</course>
  <speed>17.81</speed>
  <fix>3d</fix>
</trkpt>
<trkpt lat="-27.2262264" lon="151.4129898">
  <ele>542.96</ele>
  <time>2026-09-01T20:00:53Z</time>
  <course>250.01</course>
  <speed>0.0</speed>
  <fix>3d</fix>
</trkpt>
<trkpt lat="-27.2280061" lon="151.4089381">
  <ele>515.46</ele>
  <time>2026-09-01T20:00:53Z</time>
  <course>330.52</course>
  <speed>17.81</speed>
  <fix>3d</fix>
</trkpt>
<trkpt lat="-27.2262265" lon="151.4129898">
  <ele>542.82</ele>
  <time>2026-09-01T20:00:53Z</time>
  <course>250.01</course>
  <speed>0.01</speed>
  <fix>3d</fix>
</trkpt>
<trkpt lat="-27.2271093" lon="151.4109595">
  <ele>529.06</ele>
  <time>2026-09-01T20:00:53Z</time>
  <course>330.47</course>
  <speed>8.85</speed>
  <fix>3d</fix>
</trkpt>
<trkpt lat="-27.2262265" lon="151.4129898">
  <ele>542.6</ele>
  <time>2026-09-01T20:00:53Z</time>
  <course>250.02</course>
  <speed>0.053851648071345036</speed>
  <fix>3d</fix>
</trkpt>
<trkpt lat="-27.2271093" lon="151.4109595">
  <ele>529.06</ele>
  <time>2026-09-01T20:00:53Z</time>
  <course>330.47</course>
  <speed>8.85</speed>
  <fix>3d</fix>
</trkpt>
<trkpt lat="-27.2262265" lon="151.4129897">
  <ele>542.29</ele>
  <time>2026-09-01T20:00:53Z</time>
  <course>250.66</course>
  <speed>0.13601470508735444</speed>
  <fix>3d</fix>
</trkpt>
<trkpt lat="-27.2262265" lon="151.4129898">
  <ele>542.56</ele>
  <time>2026-09-01T20:00:53Z</time>
  <course>249.16</course>
  <speed>0.07</speed>
  <fix>3d</fix>
</trkpt>
<trkpt lat="-27.2262265" lon="151.4129894">
  <ele>541.9</ele>
  <time>2026-09-01T20:00:53Z</time>
  <course>253.89</course>
  <speed>0.2863564212655271</speed>
  <fix>3d</fix>
</trkpt>
<trkpt lat="-27.2262265" lon="151.4129898">
  <ele>542.56</ele>
  <time>2026-09-01T20:00:53Z</time>
  <course>249.16</course>
  <speed>0.07</speed>
  <fix>3d</fix>
</trkpt>
<trkpt lat="-27.2262264" lon="151.4129892">
  <ele>541.45</ele>
  <time>2026-09-01T20:00:54Z</time>
  <course>263.45</course>
  <speed>0.46647615158762407</speed>
  <fix>3d</fix>
</trkpt>
<trkpt lat="-27.2262264" lon="151.4129894">
  <ele>541.88</ele>
  <time>2026-09-01T20:00:54Z</time>
  <course>289.89</course>
  <speed>0.28</speed>
  <fix>3d</fix>
</trkpt>
<trkpt lat="-27.2262263" lon="151.4129887">
  <ele>540.91</ele>
  <time>2026-09-01T20:00:54Z</time>
  <course>264.93</course>
  <speed>0.4522167621838005</speed>
  <fix>3d</fix>
</trkpt>
<trkpt lat="-27.2262264" lon="151.4129894">
  <ele>541.88</ele>
  <time>2026-09-01T20:00:54Z</time>
  <course>289.89</course>
  <speed>0.28</speed>
  <fix>3d</fix>
</trkpt>
<trkpt lat="-27.2262271" lon="151.4129884">
  <ele>540.35</ele>
  <time>2026-09-01T20:00:54Z</time>
  <course>252.24</course>
  <speed>1.7204650534085255</speed>
  <fix>3d</fix>
</trkpt>
<trkpt lat="-27.2262267" lon="151.4129888">
  <ele>540.92</ele>
  <time>2026-09-01T20:00:54Z</time>
  <course>198.36</course>
  <speed>0.74</speed>
  <fix>3d</fix>
</trkpt>
<trkpt lat="-27.2262292" lon="151.4129887">
  <ele>539.78</ele>
  <time>2026-09-01T20:00:54Z</time>
  <course>242.42</course>
  <speed>2.982633064927699</speed>
  <fix>3d</fix>
</trkpt>
<trkpt lat="-27.2262267" lon="151.4129888">
  <ele>540.92</ele>
  <time>2026-09-01T20:00:54Z</time>
  <course>198.36</course>
  <speed>0.74</speed>
  <fix>3d</fix>
</trkpt>
<trkpt lat="-27.2262323" lon="151.4129893">
  <ele>539.25</ele>
  <time>2026-09-01T20:00:54Z</time>
  <course>234.56</course>
  <speed>3.9440588230907507</speed>
  <fix>3d</fix>
</trkpt>
<trkpt lat="-27.2262295" lon="151.4129889">
  <ele>539.82</ele>
  <time>2026-09-01T20:00:54Z</time>
  <course>171.45</course>
  <speed>2.76</speed>
  <fix>3d</fix>
</trkpt>
<trkpt lat="-27.226236" lon="151.4129905">
  <ele>538.78</ele>
  <time>2026-09-01T20:00:54Z</time>
  <course>227.65</course>
  <speed>4.659270329139532</speed>
  <fix>3d</fix>
</trkpt>
<trkpt lat="-27.2262295" lon="151.4129889">
  <ele>539.82</ele>
  <time>2026-09-01T20:00:54Z</time>
  <course>171.45</course>
  <speed>2.76</speed>
  <fix>3d</fix>
</trkpt>
<trkpt lat="-27.2262404" lon="151.4129918">
  <ele>538.38</ele>
  <time>2026-09-01T20:00:54Z</time>
  <course>221.02</course>
  <speed>5.462838090223799</speed>
  <fix>3d</fix>
</trkpt>
<trkpt lat="-27.2262361" lon="151.4129906">
  <ele>538.84</ele>
  <time>2026-09-01T20:00:54Z</time>
  <course>165.14</course>
  <speed>4.66</speed>
  <fix>3d</fix>
</trkpt>
<trkpt lat="-27.2262454" lon="151.4129936">
  <ele>538.09</ele>
  <time>2026-09-01T20:00:54Z</time>
  <course>214.24</course>
  <speed>5.945258615064613</speed>
  <fix>3d</fix>
</trkpt>
<trkpt lat="-27.2262361" lon="151.4129906">
  <ele>538.84</ele>
  <time>2026-09-01T20:00:54Z</time>
  <course>165.14</course>
  <speed>4.66</speed>
  <fix>3d</fix>
</trkpt>
<trkpt lat="-27.2262506" lon="151.4129954">
  <ele>537.91</ele>
  <time>2026-09-01T20:00:54Z</time>
  <course>208.77</course>
  <speed>6.050231400533371</speed>
  <fix>3d</fix>
</trkpt>
<trkpt lat="-27.2262452" lon="151.4129936">
  <ele>538.15</ele>
  <time>2026-09-01T20:00:54Z</time>
  <course>163.17</course>
  <speed>5.74</speed>
  <fix>3d</fix>
</trkpt>
<trkpt lat="-27.2262557" lon="151.4129973">
  <ele>537.84</ele>
  <time>2026-09-01T20:00:54Z</time>
  <course>204.6</course>
  <speed>5.8094836259344085</speed>
  <fix>3d</fix>
</trkpt>
<trkpt lat="-27.2262452" lon="151.4129936">
  <ele>538.15</ele>
  <time>2026-09-01T20:00:54Z</time>
  <course>163.17</course>
  <speed>5.74</speed>
  <fix>3d</fix>
</trkpt>
<trkpt lat="-27.2262604" lon="151.4129992">
  <ele>537.86</ele>
  <time>2026-09-01T20:00:54Z</time>
  <course>200.8</course>
  <speed>5.424923962600766</speed>
  <fix>3d</fix>
</trkpt>
<trkpt lat="-27.2262552" lon="151.4129972">
  <ele>537.88</ele>
  <time>2026-09-01T20:00:54Z</time>
  <course>160.95</course>
  <speed>5.75</speed>
  <fix>3d</fix>
</trkpt>
<trkpt lat="-27.2262648" lon="151.4130012">
  <ele>537.94</ele>
  <time>2026-09-01T20:00:54Z</time>
  <course>197.13</course>
  <speed>5.060770692295789</speed>
  <fix>3d</fix>
</trkpt>
<trkpt lat="-27.2262552" lon="151.4129972">
  <ele>537.88</ele>
  <time>2026-09-01T20:00:54Z</time>
  <course>160.95</course>
  <speed>5.75</speed>
  <fix>3d</fix>
</trkpt>
<trkpt lat="-27.2262689" lon="151.4130031">
  <ele>538.08</ele>
  <time>2026-09-01T20:00:54Z</time>
  <course>193.77</course>
  <speed>4.79351645454566</speed>
  <fix>3d</fix>
</trkpt>
<trkpt lat="-27.2262644" lon="151.413001">
  <ele>537.95</ele>
  <time>2026-09-01T20:00:54Z</time>
  <course>157.62</course>
  <speed>5.13</speed>
  <fix>3d</fix>
</trkpt>
<trkpt lat="-27.2262727" lon="151.4130051">
  <ele>538.25</ele>
  <time>2026-09-01T20:00:54Z</time>
  <course>190.87</course>
  <speed>4.61619973571335</speed>
  <fix>3d</fix>
</trkpt>
<trkpt lat="-27.2262644" lon="151.413001">
  <ele>537.95</ele>
  <time>2026-09-01T20:00:54Z</time>
  <course>157.62</course>
  <speed>5.13</speed>
  <fix>3d</fix>
</trkpt>
<trkpt lat="-27.2262764" lon="151.4130071">
  <ele>538.46</ele>
  <time>2026-09-01T20:00:54Z</time>
  <course>188.57</course>
  <speed>4.494552258011915</speed>
  <fix>3d</fix>
</trkpt>
<trkpt lat="-27.2262724" lon="151.413005">
  <ele>538.26</ele>
  <time>2026-09-01T20:00:54Z</time>
  <course>154.81</course>
  <speed>4.66</speed>
  <fix>3d</fix>
</trkpt>
<trkpt lat="-27.22628" lon="151.4130092">
  <ele>538.71</ele>
  <time>2026-09-01T20:00:54Z</time>
  <course>186.92</course>
  <speed>4.40963717328308</speed>
  <fix>3d</fix>
</trkpt>
<trkpt lat="-27.2262724" lon="151.413005">
  <ele>538.26</ele>
  <time>2026-09-01T20:00:54Z</time>
  <course>154.81</course>
  <speed>4.66</speed>
  <fix>3d</fix>
</trkpt>
<trkpt lat="-27.2262835" lon="151.4130112">
  <ele>538.98</ele>
  <time>2026-09-01T20:00:54Z</time>
  <course>185.83</course>
  <speed>4.351976562436889</speed>
  <fix>3d</fix>
</trkpt>
<trkpt lat="-27.2262797" lon="151.4130091">
  <ele>538.7</ele>
  <time>2026-09-01T20:00:54Z</time>
  <course>153.12</course>
  <speed>4.43</speed>
  <fix>3d</fix>
</trkpt>
<trkpt lat="-27.2262869" lon="151.4130132">
  <ele>539.28</ele>
  <time>2026-09-01T20:00:54Z</time>
  <course>185.16</course>
  <speed>4.294182110716778</speed>
  <fix>3d</fix>
</trkpt>
<trkpt lat="-27.2262797" lon="151.4130091">
  <ele>538.7</ele>
  <time>2026-09-01T20:00:54Z</time>
  <course>153.12</course>
  <speed>4.43</speed>
  <fix>3d</fix>
</trkpt>
<trkpt lat="-27.2262903" lon="151.4130152">
  <ele>539.6</ele>
  <time>2026-09-01T20:00:54Z</time>
  <course>184.76</course>
  <speed>4.267657437049042</speed>
  <fix>3d</fix>
</trkpt>
<trkpt lat="-27.2262867" lon="151.4130131">
  <ele>539.27</ele>
  <time>2026-09-01T20:00:54Z</time>
  <course>152.28</course>
  <speed>4.31</speed>
  <fix>3d</fix>
</trkpt>
<trkpt lat="-27.2262937" lon="151.4130173">
  <ele>539.93</ele>
  <time>2026-09-01T20:00:54Z</time>
  <course>184.52</course>
  <speed>4.231784493567696</speed>
  <fix>3d</fix>
</trkpt>
<trkpt lat="-27.2262867" lon="151.4130131">
  <ele>539.27</ele>
  <time>2026-09-01T20:00:54Z</time>
  <course>152.28</course>
  <speed>4.31</speed>
  <fix>3d</fix>
</trkpt>
<trkpt lat="-27.226297" lon="151.4130193">
  <ele>540.26</ele>
  <time>2026-09-01T20:00:54Z</time>
  <course>184.37</course>
  <speed>4.2047592083257275</speed>
  <fix>3d</fix>
</trkpt>
<trkpt lat="-27.2262935" lon="151.4130171">
  <ele>539.91</ele>
  <time>2026-09-01T20:00:54Z</time>
  <course>152.1</course>
  <speed>4.24</speed>
  <fix>3d</fix>
</trkpt>
<trkpt lat="-27.2263004" lon="151.4130212">
  <ele>540.6</ele>
  <time>2026-09-01T20:00:54Z</time>
  <course>184.26</course>
  <speed>4.182403615147634</speed>
  <fix>3d</fix>
</trkpt>
<trkpt lat="-27.2262935" lon="151.4130171">
  <ele>539.91</ele>
  <time>2026-09-01T20:00:54Z</time>
  <course>152.1</course>
  <speed>4.24</speed>
  <fix>3d</fix>
</trkpt>
<trkpt lat="-27.2263037" lon="151.4130232">
  <ele>540.94</ele>
  <time>2026-09-01T20:00:54Z</time>
  <course>184.2</course>
  <speed>4.155887390197188</speed>
  <fix>3d</fix>
</trkpt>
<trkpt lat="-27.2263002" lon="151.4130211">
  <ele>540.58</ele>
  <time>2026-09-01T20:00:54Z</time>
  <course>152.07</course>
  <speed>4.18</speed>
  <fix>3d</fix>
</trkpt>
<trkpt lat="-27.2263069" lon="151.4130252">
  <ele>541.27</ele>
  <time>2026-09-01T20:00:54Z</time>
  <course>184.18</course>
  <speed>4.11655195521689</speed>
  <fix>3d</fix>
</trkpt>
<trkpt lat="-27.2263002" lon="151.4130211">
  <ele>540.58</ele>
  <time>2026-09-01T20:00:54Z</time>
  <course>152.07</course>
  <speed>4.18</speed>
  <fix>3d</fix>
</trkpt>
<trkpt lat="-27.2263102" lon="151.4130271">
  <ele>541.59</ele>
  <time>2026-09-01T20:00:54Z</time>
  <course>184.19</course>
  <speed>4.078443330487749</speed>
  <fix>3d</fix>
</trkpt>
<trkpt lat="-27.2263067" lon="151.4130251">
  <ele>541.25</ele>
  <time>2026-09-01T20:00:54Z</time>
  <course>151.44</course>
  <speed>4.12</speed>
  <fix>3d</fix>
</trkpt>
<trkpt lat="-27.2263133" lon="151.4130291">
  <ele>541.91</ele>
  <time>2026-09-01T20:00:54Z</time>
  <course>184.23</course>
  <speed>4.015133870744536</speed>
  <fix>3d</fix>
</trkpt>
<trkpt lat="-27.2263067" lon="151.4130251">
  <ele>541.25</ele>
  <time>2026-09-01T20:00:54Z</time>
  <course>151.44</course>
  <speed>4.12</speed>
  <fix>3d</fix>
</trkpt>
<trkpt lat="-27.2263164" lon="151.4130313">
  <ele>542.22</ele>
  <time>2026-09-01T20:00:54Z</time>
  <course>184.36</course>
  <speed>3.927467377331096</speed>
  <fix>3d</fix>
</trkpt>
<trkpt lat="-27.2263131" lon="151.4130291">
  <ele>541.89</ele>
  <time>2026-09-01T20:00:54Z</time>
  <course>149.76</course>
  <speed>4.01</speed>
  <fix>3d</fix>
</trkpt>
<trkpt lat="-27.2263194" lon="151.4130334">
  <ele>542.52</ele>
  <time>2026-09-01T20:00:54Z</time>
  <course>184.56</course>
  <speed>3.819554947896417</speed>
  <fix>3d</fix>
</trkpt>
<trkpt lat="-27.2263131" lon="151.4130291">
  <ele>541.89</ele>
  <time>2026-09-01T20:00:54Z</time>
  <course>149.76</course>
  <speed>4.01</speed>
  <fix>3d</fix>
</trkpt>
<trkpt lat="-27.2263222" lon="151.4130355">
  <ele>542.81</ele>
  <time>2026-09-01T20:00:54Z</time>
  <course>184.78</course>
  <speed>3.6778390394360656</speed>
  <fix>3d</fix>
</trkpt>
<trkpt lat="-27.2263191" lon="151.4130333">
  <ele>542.5</ele>
  <time>2026-09-01T20:00:54Z</time>
  <course>147.24</course>
  <speed>3.81</speed>
  <fix>3d</fix>
</trkpt>
<trkpt lat="-27.2263248" lon="151.4130376">
  <ele>543.1</ele>
  <time>2026-09-01T20:00:54Z</time>
  <course>185.02</course>
  <speed>3.5224139450098706</speed>
  <fix>3d</fix>
</trkpt>
<trkpt lat="-27.2263191" lon="151.4130333">
  <ele>542.5</ele>
  <time>2026-09-01T20:00:54Z</time>
  <course>147.24</course>
  <speed>3.81</speed>
  <fix>3d</fix>
</trkpt>
<trkpt lat="-27.2263273" lon="151.4130396">
  <ele>543.37</ele>
  <time>2026-09-01T20:00:54Z</time>
  <course>185.26</course>
  <speed>3.35828825445345</speed>
  <fix>3d</fix>
</trkpt>
<trkpt lat="-27.2263246" lon="151.4130374">
  <ele>543.07</ele>
  <time>2026-09-01T20:00:54Z</time>
  <course>144.16</course>
  <speed>3.53</speed>
  <fix>3d</fix>
</trkpt>
<trkpt lat="-27.2263296" lon="151.4130416">
  <ele>543.64</ele>
  <time>2026-09-01T20:00:54Z</time>
  <course>185.51</course>
  <speed>3.1817290896617836</speed>
  <fix>3d</fix>
</trkpt>
<trkpt lat="-27.2263246" lon="151.4130374">
  <ele>543.07</ele>
  <time>2026-09-01T20:00:54Z</time>
  <course>144.16</course>
  <speed>3.53</speed>
  <fix>3d</fix>
</trkpt>
<trkpt lat="-27.2263317" lon="151.4130437">
  <ele>543.9</ele>
  <time>2026-09-01T20:00:54Z</time>
  <course>185.78</course>
  <speed>2.995479928158425</speed>
  <fix>3d</fix>
</trkpt>
<trkpt lat="-27.2263294" lon="151.4130415">
  <ele>543.62</ele>
  <time>2026-09-01T20:00:54Z</time>
  <course>140.41</course>
  <speed>3.18</speed>
  <fix>3d</fix>
</trkpt>
<trkpt lat="-27.2263336" lon="151.4130458">
  <ele>544.16</ele>
  <time>2026-09-01T20:00:54Z</time>
  <course>186.07</course>
  <speed>2.800285699709942</speed>
  <fix>3d</fix>
</trkpt>
<trkpt lat="-27.2263294" lon="151.4130415">
  <ele>543.62</ele>
  <time>2026-09-01T20:00:54Z</time>
  <course>140.41</course>
  <speed>3.18</speed>
  <fix>3d</fix>
</trkpt>
<trkpt lat="-27.2263353" lon="151.4130477">
  <ele>544.41</ele>
  <time>2026-09-01T20:00:54Z</time>
  <course>186.39</course>
  <speed>2.618167297939534</speed>
  <fix>3d</fix>
</trkpt>
<trkpt lat="-27.2263334" lon="151.4130455">
  <ele>544.14</ele>
  <time>2026-09-01T20:00:54Z</time>
  <course>135.75</course>
  <speed>2.81</speed>
  <fix>3d</fix>
</trkpt>
<trkpt lat="-27.2263368" lon="151.4130496">
  <ele>544.66</ele>
  <time>2026-09-01T20:00:54Z</time>
  <course>186.72</course>
  <speed>2.42886804911259</speed>
  <fix>3d</fix>
</trkpt>
<trkpt lat="-27.2263334" lon="151.4130455">
  <ele>544.14</ele>
  <time>2026-09-01T20:00:54Z</time>
  <course>135.75</course>
  <speed>2.81</speed>
  <fix>3d</fix>
</trkpt>
<trkpt lat="-27.2263381" lon="151.4130515">
  <ele>544.91</ele>
  <time>2026-09-01T20:00:54Z</time>
  <course>187.07</course>
  <speed>2.2541739063346466</speed>
  <fix>3d</fix>
</trkpt>
<trkpt lat="-27.2263366" lon="151.4130495">
  <ele>544.65</ele>
  <time>2026-09-01T20:00:54Z</time>
  <course>129.89</course>
  <speed>2.44</speed>
  <fix>3d</fix>
</trkpt>
<trkpt lat="-27.2263392" lon="151.4130533">
  <ele>545.15</ele>
  <time>2026-09-01T20:00:54Z</time>
  <course>187.41</course>
  <speed>2.0807931180201455</speed>
  <fix>3d</fix>
</trkpt>
<trkpt lat="-27.2263366" lon="151.4130495">
  <ele>544.65</ele>
  <time>2026-09-01T20:00:54Z</time>
  <course>129.89</course>
  <speed>2.44</speed>
  <fix>3d</fix>
</trkpt>
<trkpt lat="-27.2263401" lon="151.413055">
  <ele>545.39</ele>
  <time>2026-09-01T20:00:54Z</time>
  <course>187.73</course>
  <speed>1.910026177831079</speed>
  <fix>3d</fix>
</trkpt>
<trkpt lat="-27.226339" lon="151.4130531">
  <ele>545.14</ele>
  <time>2026-09-01T20:00:54Z</time>
  <course>122.55</course>
  <speed>2.09</speed>
  <fix>3d</fix>
</trkpt>
<trkpt lat="-27.2263408" lon="151.4130568">
  <ele>545.63</ele>
  <time>2026-09-01T20:00:54Z</time>
  <course>188.01</course>
  <speed>1.7608236708995024</speed>
  <fix>3d</fix>
</trkpt>
<trkpt lat="-27.226339" lon="151.4130531">
  <ele>545.14</ele>
  <time>2026-09-01T20:00:54Z</time>
  <course>122.55</course>
  <speed>2.09</speed>
  <fix>3d</fix>
</trkpt>
<trkpt lat="-27.2263414" lon="151.4130583">
  <ele>545.83</ele>
  <time>2026-09-01T20:00:54Z</time>
  <course>187.97</course>
  <speed>1.7281203661782358</speed>
  <fix>3d</fix>
</trkpt>
<trkpt lat="-27.2263407" lon="151.4130566">
  <ele>545.6</ele>
  <time>2026-09-01T20:00:54Z</time>
  <course>116.18</course>
  <speed>1.82</speed>
  <fix>3d</fix>
</trkpt>
<trkpt lat="-27.2263421" lon="151.41306">
  <ele>545.91</ele>
  <time>2026-09-01T20:00:54Z</time>
  <course>187.46</course>
  <speed>1.7090640713560157</speed>
  <fix>3d</fix>
</trkpt>
<trkpt lat="-27.2263407" lon="151.4130566">
  <ele>545.6</ele>
  <time>2026-09-01T20:00:54Z</time>
  <course>116.18</course>
  <speed>1.82</speed>
  <fix>3d</fix>
</trkpt>
<trkpt lat="-27.2263427" lon="151.4130615">
  <ele>545.9</ele>
  <time>2026-09-01T20:00:54Z</time>
  <course>186.65</course>
  <speed>1.6825278600962303</speed>
  <fix>3d</fix>
</trkpt>
<trkpt lat="-27.226342" lon="151.4130598">
  <ele>545.86</ele>
  <time>2026-09-01T20:00:54Z</time>
  <course>114.42</course>
  <speed>1.71</speed>
  <fix>3d</fix>
</trkpt>
<trkpt lat="-27.2263433" lon="151.413063">
  <ele>545.79</ele>
  <time>2026-09-01T20:00:54Z</time>
  <course>185.51</course>
  <speed>1.6428329190760695</speed>
  <fix>3d</fix>
</trkpt>
<trkpt lat="-27.226342" lon="151.4130598">
  <ele>545.86</ele>
  <time>2026-09-01T20:00:54Z</time>
  <course>114.42</course>
  <speed>1.71</speed>
  <fix>3d</fix>
</trkpt>
<trkpt lat="-27.2263439" lon="151.4130645">
  <ele>545.61</ele>
  <time>2026-09-01T20:00:54Z</time>
  <course>183.82</course>
  <speed>1.5626259949200898</speed>
  <fix>3d</fix>
</trkpt>
<trkpt lat="-27.2263433" lon="151.4130629">
  <ele>545.76</ele>
  <time>2026-09-01T20:00:54Z</time>
  <course>114.37</course>
  <speed>1.63</speed>
  <fix>3d</fix>
</trkpt>
<trkpt lat="-27.2263445" lon="151.4130659">
  <ele>545.35</ele>
  <time>2026-09-01T20:00:54Z</time>
  <course>181.22</course>
  <speed>1.4549914089093448</speed>
  <fix>3d</fix>
</trkpt>
<trkpt lat="-27.2263433" lon="151.4130629">
  <ele>545.76</ele>
  <time>2026-09-01T20:00:54Z</time>
  <course>114.37</course>
  <speed>1.63</speed>
  <fix>3d</fix>
</trkpt>
<trkpt lat="-27.226345" lon="151.4130672">
  <ele>545.02</ele>
  <time>2026-09-01T20:00:54Z</time>
  <course>177.41</course>
  <speed>1.3061393493804556</speed>
  <fix>3d</fix>
</trkpt>
<trkpt lat="-27.2263444" lon="151.4130658">
  <ele>545.32</ele>
  <time>2026-09-01T20:00:54Z</time>
  <course>114.65</course>
  <speed>1.44</speed>
  <fix>3d</fix>
</trkpt>
<trkpt lat="-27.2263455" lon="151.4130683">
  <ele>544.64</ele>
  <time>2026-09-01T20:00:54Z</time>
  <course>172.38</course>
  <speed>1.158835622510803</speed>
  <fix>3d</fix>
</trkpt>
<trkpt lat="-27.2263444" lon="151.4130658">
  <ele>545.32</ele>
  <time>2026-09-01T20:00:54Z</time>
  <course>114.65</course>
  <speed>1.44</speed>
  <fix>3d</fix>
</trkpt>
<trkpt lat="-27.226346" lon="151.4130693">
  <ele>544.21</ele>
  <time>2026-09-01T20:00:54Z</time>
  <course>166.8</course>
  <speed>1.049571341072154</speed>
  <fix>3d</fix>
</trkpt>
<trkpt lat="-27.2263455" lon="151.4130682">
  <ele>544.63</ele>
  <time>2026-09-01T20:00:54Z</time>
  <course>117.88</course>
  <speed>1.19</speed>
  <fix>3d</fix>
</trkpt>
<trkpt lat="-27.2263465" lon="151.4130702">
  <ele>543.73</ele>
  <time>2026-09-01T20:00:54Z</time>
  <course>161.46</course>
  <speed>0.9873702446397704</speed>
  <fix>3d</fix>
</trkpt>
<trkpt lat="-27.2263455" lon="151.4130682">
  <ele>544.63</ele>
  <time>2026-09-01T20:00:54Z</time>
  <course>117.88</course>
  <speed>1.19</speed>
  <fix>3d</fix>
</trkpt>
<trkpt lat="-27.226347" lon="151.413071">
  <ele>543.22</ele>
  <time>2026-09-01T20:00:54Z</time>
  <course>156.57</course>
  <speed>0.9604686356149272</speed>
  <fix>3d</fix>
</trkpt>
<trkpt lat="-27.2263465" lon="151.41307">
  <ele>543.73</ele>
  <time>2026-09-01T20:00:54Z</time>
  <course>124.29</course>
  <speed>1.01</speed>
  <fix>3d</fix>
</trkpt>
<trkpt lat="-27.2263476" lon="151.4130717">
  <ele>542.65</ele>
  <time>2026-09-01T20:00:54Z</time>
  <course>152.09</course>
  <speed>0.9903534722511957</speed>
  <fix>3d</fix>
</trkpt>
<trkpt lat="-27.2263465" lon="151.41307">
  <ele>543.73</ele>
  <time>2026-09-01T20:00:54Z</time>
  <course>124.29</course>
  <speed>1.01</speed>
  <fix>3d</fix>
</trkpt>
<trkpt lat="-27.2263483" lon="151.4130724">
  <ele>542.03</ele>
  <time>2026-09-01T20:00:54Z</time>
  <course>147.88</course>
  <speed>1.0688779163215976</speed>
  <fix>3d</fix>
</trkpt>
<trkpt lat="-27.2263476" lon="151.4130716">
  <ele>542.65</ele>
  <time>2026-09-01T20:00:54Z</time>
  <course>133.04</course>
  <speed>1.01</speed>
  <fix>3d</fix>
</trkpt>
<trkpt lat="-27.226349" lon="151.4130731">
  <ele>541.35</ele>
  <time>2026-09-01T20:00:54Z</time>
  <course>143.89</course>
  <speed>1.1574541027617467</speed>
  <fix>3d</fix>
</trkpt>
<trkpt lat="-27.2263476" lon="151.4130716">
  <ele>542.65</ele>
  <time>2026-09-01T20:00:54Z</time>
  <course>133.04</course>
  <speed>1.01</speed>
  <fix>3d</fix>
</trkpt>
<trkpt lat="-27.22635" lon="151.413074">
  <ele>540.6</ele>
  <time>2026-09-01T20:00:54Z</time>
  <course>139.81</course>
  <speed>1.7867568385205639</speed>
  <fix>3d</fix>
</trkpt>
<trkpt lat="-27.226349" lon="151.4130731">
  <ele>541.34</ele>
  <time>2026-09-01T20:00:54Z</time>
  <course>141.89</course>
  <speed>1.4</speed>
  <fix>3d</fix>
</trkpt>
<trkpt lat="-27.2263516" lon="151.4130753">
  <ele>539.79</ele>
  <time>2026-09-01T20:00:54Z</time>
  <course>134.26</course>
  <speed>2.4629250902128548</speed>
  <fix>3d</fix>
</trkpt>
<trkpt lat="-27.226349" lon="151.4130731">
  <ele>541.34</ele>
  <time>2026-09-01T20:00:54Z</time>
  <course>141.89</course>
  <speed>1.4</speed>
  <fix>3d</fix>
</trkpt>
<trkpt lat="-27.2263535" lon="151.4130768">
  <ele>538.9</ele>
  <time>2026-09-01T20:00:54Z</time>
  <course>126.03</course>
  <speed>2.6822565127146207</speed>
  <fix>3d</fix>
</trkpt>
<trkpt lat="-27.2263517" lon="151.4130753">
  <ele>539.78</ele>
  <time>2026-09-01T20:00:54Z</time>
  <course>145.19</course>
  <speed>2.21</speed>
  <fix>3d</fix>
</trkpt>
<trkpt lat="-27.2263555" lon="151.4130783">
  <ele>537.91</ele>
  <time>2026-09-01T20:00:54Z</time>
  <course>116.1</course>
  <speed>2.588010819142764</speed>
  <fix>3d</fix>
</trkpt>
<trkpt lat="-27.2263517" lon="151.4130753">
  <ele>539.78</ele>
  <time>2026-09-01T20:00:54Z</time>
  <course>145.19</course>
  <speed>2.21</speed>
  <fix>3d</fix>
</trkpt>
<trkpt lat="-27.2263574" lon="151.4130797">
  <ele>536.85</ele>
  <time>2026-09-01T20:00:54Z</time>
  <course>113.76</course>
  <speed>2.4463850882475553</speed>
  <fix>3d</fix>
</trkpt>
<trkpt lat="-27.2263554" lon="151.4130782">
  <ele>537.91</ele>
  <time>2026-09-01T20:00:54Z</time>
  <course>145.56</course>
  <speed>2.57</speed>
  <fix>3d</fix>
</trkpt>
<trkpt lat="-27.2263592" lon="151.4130812">
  <ele>535.68</ele>
  <time>2026-09-01T20:00:54Z</time>
  <course>116.9</course>
  <speed>2.5842793966597344</speed>
  <fix>3d</fix>
</trkpt>
<trkpt lat="-27.2263554" lon="151.4130782">
  <ele>537.91</ele>
  <time>2026-09-01T20:00:54Z</time>
  <course>145.56</course>
  <speed>2.57</speed>
  <fix>3d</fix>
</trkpt>
<trkpt lat="-27.2263612" lon="151.4130829">
  <ele>534.43</ele>
  <time>2026-09-01T20:00:54Z</time>
  <course>117.55</course>
  <speed>3.1524117751334457</speed>
  <fix>3d</fix>
</trkpt>
<trkpt lat="-27.2263592" lon="151.4130812">
  <ele>535.69</ele>
  <time>2026-09-01T20:00:54Z</time>
  <course>141.74</course>
  <speed>2.78</speed>
  <fix>3d</fix>
</trkpt>
<trkpt lat="-27.2263635" lon="151.4130855">
  <ele>533.13</ele>
  <time>2026-09-01T20:00:54Z</time>
  <course>117.08</course>
  <speed>4.132614184750374</speed>
  <fix>3d</fix>
</trkpt>
<trkpt lat="-27.2263592" lon="151.4130812">
  <ele>535.69</ele>
  <time>2026-09-01T20:00:54Z</time>
  <course>141.74</course>
  <speed>2.78</speed>
  <fix>3d</fix>
</trkpt>
<trkpt lat="-27.226366" lon="151.4130893">
  <ele>531.77</ele>
  <time>2026-09-01T20:00:54Z</time>
  <course>117.13</course>
  <speed>5.331050553127405</speed>
  <fix>3d</fix>
</trkpt>
<trkpt lat="-27.2263635" lon="151.413086">
  <ele>533.16</ele>
  <time>2026-09-01T20:00:54Z</time>
  <course>129.86</course>
  <speed>4.17</speed>
  <fix>3d</fix>
</trkpt>
<trkpt lat="-27.2263689" lon="151.4130945">
  <ele>530.38</ele>
  <time>2026-09-01T20:00:54Z</time>
  <course>117.95</course>
  <speed>6.602370786316079</speed>
  <fix>3d</fix>
</trkpt>
<trkpt lat="-27.2263635" lon="151.413086">
  <ele>533.16</ele>
  <time>2026-09-01T20:00:54Z</time>
  <course>129.86</course>
  <speed>4.17</speed>
  <fix>3d</fix>
</trkpt>
<trkpt lat="-27.226372" lon="151.4131009">
  <ele>528.98</ele>
  <time>2026-09-01T20:00:54Z</time>
  <course>118.98</course>
  <speed>7.831079108271094</speed>
  <fix>3d</fix>
</trkpt>
<trkpt lat="-27.2263688" lon="151.4130949">
  <ele>530.44</ele>
  <time>2026-09-01T20:00:54Z</time>
  <course>120.22</course>
  <speed>6.52</speed>
  <fix>3d</fix>
</trkpt>
<trkpt lat="-27.2263754" lon="151.4131085">
  <ele>527.59</ele>
  <time>2026-09-01T20:00:54Z</time>
  <course>119.77</course>
  <speed>9.074282340769434</speed>
  <fix>3d</fix>
</trkpt>
<trkpt lat="-27.2263688" lon="151.4130949">
  <ele>530.44</ele>
  <time>2026-09-01T20:00:54Z</time>
  <course>120.22</course>
  <speed>6.52</speed>
  <fix>3d</fix>
</trkpt>
<trkpt lat="-27.2263792" lon="151.4131174">
  <ele>526.2</ele>
  <time>2026-09-01T20:00:54Z</time>
  <course>120.18</course>
  <speed>10.339825917296674</speed>
  <fix>3d</fix>
</trkpt>
<trkpt lat="-27.2263754" lon="151.4131087">
  <ele>527.66</ele>
  <time>2026-09-01T20:00:54Z</time>
  <course>116.62</course>
  <speed>9.03</speed>
  <fix>3d</fix>
</trkpt>
<trkpt lat="-27.2263836" lon="151.4131272">
  <ele>524.84</ele>
  <time>2026-09-01T20:00:54Z</time>
  <course>120.26</course>
  <speed>11.605731342746134</speed>
  <fix>3d</fix>
</trkpt>
<trkpt lat="-27.2263754" lon="151.4131087">
  <ele>527.66</ele>
  <time>2026-09-01T20:00:54Z</time>
  <course>116.62</course>
  <speed>9.03</speed>
  <fix>3d</fix>
</trkpt>
<trkpt lat="-27.2263887" lon="151.4131382">
  <ele>523.53</ele>
  <time>2026-09-01T20:00:54Z</time>
  <course>120.13</course>
  <speed>12.841339493993608</speed>
  <fix>3d</fix>
</trkpt>
<trkpt lat="-27.2263837" lon="151.4131272">
  <ele>524.93</ele>
  <time>2026-09-01T20:00:54Z</time>
  <course>117.36</course>
  <speed>11.53</speed>
  <fix>3d</fix>
</trkpt>
<trkpt lat="-27.2263946" lon="151.4131501">
  <ele>522.28</ele>
  <time>2026-09-01T20:00:54Z</time>
  <course>119.9</course>
  <speed>14.017221550649758</speed>
  <fix>3d</fix>
</trkpt>
<trkpt lat="-27.2263837" lon="151.4131272">
  <ele>524.93</ele>
  <time>2026-09-01T20:00:54Z</time>
  <course>117.36</course>
  <speed>11.53</speed>
  <fix>3d</fix>
</trkpt>
<trkpt lat="-27.2264012" lon="151.4131629">
  <ele>521.11</ele>
  <time>2026-09-01T20:00:54Z</time>
  <course>119.63</course>
  <speed>15.114777537231568</speed>
  <fix>3d</fix>
</trkpt>
<trkpt lat="-27.2263946" lon="151.4131499">
  <ele>522.38</ele>
  <time>2026-09-01T20:00:54Z</time>
  <course>119.46</course>
  <speed>13.92</speed>
  <fix>3d</fix>
</trkpt>
<trkpt lat="-27.2264083" lon="151.4131765">
  <ele>520.04</ele>
  <time>2026-09-01T20:00:54Z</time>
  <course>119.35</course>
  <speed>16.112358610706256</speed>
  <fix>3d</fix>
</trkpt>
<trkpt lat="-27.2263946" lon="151.4131499">
  <ele>522.38</ele>
  <time>2026-09-01T20:00:54Z</time>
  <course>119.46</course>
  <speed>13.92</speed>
  <fix>3d</fix>
</trkpt>
<trkpt lat="-27.2264159" lon="151.4131909">
  <ele>519.07</ele>
  <time>2026-09-01T20:00:54Z</time>
  <course>119.07</course>
  <speed>16.99235122047564</speed>
  <fix>3d</fix>
</trkpt>
<trkpt lat="-27.2264082" lon="151.4131761">
  <ele>520.14</ele>
  <time>2026-09-01T20:00:54Z</time>
  <course>120.54</course>
  <speed>16.01</speed>
  <fix>3d</fix>
</trkpt>
<trkpt lat="-27.2264238" lon="151.413206">
  <ele>518.23</ele>
  <time>2026-09-01T20:00:54Z</time>
  <course>118.77</course>
  <speed>17.714829945556914</speed>
  <fix>3d</fix>
</trkpt>
<trkpt lat="-27.2264082" lon="151.4131761">
  <ele>520.14</ele>
  <time>2026-09-01T20:00:54Z</time>
  <course>120.54</course>
  <speed>16.01</speed>
  <fix>3d</fix>
</trkpt>
<trkpt lat="-27.2264318" lon="151.4132218">
  <ele>517.51</ele>
  <time>2026-09-01T20:00:54Z</time>
  <course>118.44</course>
  <speed>18.269937055173454</speed>
  <fix>3d</fix>
</trkpt>
<trkpt lat="-27.2264235" lon="151.4132055">
  <ele>518.32</ele>
  <time>2026-09-01T20:00:54Z</time>
  <course>119.91</course>
  <speed>17.6</speed>
  <fix>3d</fix>
</trkpt>
<trkpt lat="-27.2264398" lon="151.4132382">
  <ele>516.93</ele>
  <time>2026-09-01T20:00:54Z</time>
  <course>118.1</course>
  <speed>18.657183603105803</speed>
  <fix>3d</fix>
</trkpt>
<trkpt lat="-27.2264235" lon="151.4132055">
  <ele>518.32</ele>
  <time>2026-09-01T20:00:54Z</time>
  <course>119.91</course>
  <speed>17.6</speed>
  <fix>3d</fix>
</trkpt>
<trkpt lat="-27.2264477" lon="151.4132549">
  <ele>516.47</ele>
  <time>2026-09-01T20:00:54Z</time>
  <course>117.85</course>
  <speed>18.875009933772223</speed>
  <fix>3d</fix>
</trkpt>
<trkpt lat="-27.2264394" lon="151.4132376">
  <ele>517.01</ele>
  <time>2026-09-01T20:00:54Z</time>
  <course>118.38</course>
  <speed>18.56</speed>
  <fix>3d</fix>
</trkpt>
<trkpt lat="-27.2264555" lon="151.4132718">
  <ele>516.12</ele>
  <time>2026-09-01T20:00:54Z</time>
  <course>117.72</course>
  <speed>18.931059135716627</speed>
  <fix>3d</fix>
</trkpt>
<trkpt lat="-27.2264394" lon="151.4132376">
  <ele>517.01</ele>
  <time>2026-09-01T20:00:54Z</time>
  <course>118.38</course>
  <speed>18.56</speed>
  <fix>3d</fix>
</trkpt>
<trkpt lat="-27.2264631" lon="151.413289">
  <ele>515.86</ele>
  <time>2026-09-01T20:00:54Z</time>
  <course>117.61</course>
  <speed>18.8993227391883</speed>
  <fix>3d</fix>
</trkpt>
<trkpt lat="-27.2264551" lon="151.4132712">
  <ele>516.18</ele>
  <time>2026-09-01T20:00:54Z</time>
  <course>117.13</course>
  <speed>18.89</speed>
  <fix>3d</fix>
</trkpt>
<trkpt lat="-27.2264707" lon="151.413306">
  <ele>515.64</ele>
  <time>2026-09-01T20:00:54Z</time>
  <course>117.44</course>
  <speed>18.814284466861874</speed>
  <fix>3d</fix>
</trkpt>
<trkpt lat="-27.2264551" lon="151.4132712">
  <ele>516.18</ele>
  <time>2026-09-01T20:00:54Z</time>
  <course>117.13</course>
  <speed>18.89</speed>
  <fix>3d</fix>
</trkpt>
<trkpt lat="-27.2264783" lon="151.413323">
  <ele>515.45</ele>
  <time>2026-09-01T20:00:54Z</time>
  <course>117.19</course>
  <speed>18.70248111882485</speed>
  <fix>3d</fix>
</trkpt>
<trkpt lat="-27.2264704" lon="151.4133052">
  <ele>515.66</ele>
  <time>2026-09-01T20:00:54Z</time>
  <course>116.68</course>
  <speed>18.81</speed>
  <fix>3d</fix>
</trkpt>
<trkpt lat="-27.2264858" lon="151.4133398">
  <ele>515.27</ele>
  <time>2026-09-01T20:00:54Z</time>
  <course>116.93</course>
  <speed>18.58177870926247</speed>
  <fix>3d</fix>
</trkpt>
<trkpt lat="-27.2264704" lon="151.4133052">
  <ele>515.66</ele>
  <time>2026-09-01T20:00:54Z</time>
  <course>116.68</course>
  <speed>18.81</speed>
  <fix>3d</fix>
</trkpt>
<trkpt lat="-27.2264933" lon="151.4133565">
  <ele>515.1</ele>
  <time>2026-09-01T20:00:54Z</time>
  <course>116.68</course>
  <speed>18.46554088024502</speed>
  <fix>3d</fix>
</trkpt>
<trkpt lat="-27.2264855" lon="151.413339">
  <ele>515.28</ele>
  <time>2026-09-01T20:00:54Z</time>
  <course>116.69</course>
  <speed>18.59</speed>
  <fix>3d</fix>
</trkpt>
<trkpt lat="-27.2265007" lon="151.4133731">
  <ele>514.91</ele>
  <time>2026-09-01T20:00:54Z</time>
  <course>116.5</course>
  <speed>18.344808529935655</speed>
  <fix>3d</fix>
</trkpt>
<trkpt lat="-27.2264855" lon="151.413339">
  <ele>515.28</ele>
  <time>2026-09-01T20:00:54Z</time>
  <course>116.69</course>
  <speed>18.59</speed>
  <fix>3d</fix>
</trkpt>
<trkpt lat="-27.2265081" lon="151.4133895">
  <ele>514.76</ele>
  <time>2026-09-01T20:00:54Z</time>
  <course>116.39</course>
  <speed>18.2285051499019</speed>
  <fix>3d</fix>
</trkpt>
<trkpt lat="-27.2265004" lon="151.4133723">
  <ele>514.93</ele>
  <time>2026-09-01T20:00:54Z</time>
  <course>116.75</course>
  <speed>18.35</speed>
  <fix>3d</fix>
</trkpt>
<trkpt lat="-27.2246948" lon="151.4173932">
  <ele>542.97</ele>
  <time>2026-09-01T20:00:54Z</time>
  <course>250.0</course>
  <speed>0.0</speed>
  <fix>3d</fix>
</trkpt>
<trkpt lat="-27.2265004" lon="151.4133723">
  <ele>514.93</ele>
  <time>2026-09-01T20:00:54Z</time>
  <course>116.75</course>
  <speed>18.35</speed>
  <fix>3d</fix>
</trkpt>
<trkpt lat="-27.2246949" lon="151.4173932">
  <ele>542.84</ele>
  <time>2026-09-01T20:00:54Z</time>
  <course>250.0</course>
  <speed>0.01</speed>
  <fix>3d</fix>
</trkpt>
<trkpt lat="-27.2256013" lon="151.415391">
  <ele>528.8</ele>
  <time>2026-09-01T20:00:54Z</time>
  <course>116.79</course>
  <speed>9.11</speed>
  <fix>3d</fix>
</trkpt>
<trkpt lat="-27.2246949" lon="151.4173932">
  <ele>542.63</ele>
  <time>2026-09-01T20:00:54Z</time>
  <course>250.01</course>
  <speed>0.053851648071345036</speed>
  <fix>3d</fix>
</trkpt>
<trkpt lat="-27.2256013" lon="151.415391">
  <ele>528.8</ele>
  <time>2026-09-01T20:00:54Z</time>
  <course>116.79</course>
  <speed>9.11</speed>
  <fix>3d</fix>
</trkpt>
<trkpt lat="-27.2246949" lon="151.4173931">
  <ele>542.32</ele>
  <time>2026-09-01T20:00:54Z</time>
  <course>250.59</course>
  <speed>0.1264911064067352</speed>
  <fix>3d</fix>
</trkpt>
<trkpt lat="-27.2246949" lon="151.4173931">
  <ele>542.58</ele>
  <time>2026-09-01T20:00:54Z</time>
  <course>248.44</course>
  <speed>0.07</speed>
  <fix>3d</fix>
</trkpt>
<trkpt lat="-27.2246949" lon="151.4173928">
  <ele>541.94</ele>
  <time>2026-09-01T20:00:54Z</time>
  <course>253.66</course>
  <speed>0.2765863337187866</speed>
  <fix>3d</fix>
</trkpt>
<trkpt lat="-27.2246949" lon="151.4173931">
  <ele>542.58</ele>
  <time>2026-09-01T20:00:54Z</time>
  <course>248.44</course>
  <speed>0.07</speed>
  <fix>3d</fix>
</trkpt>
<trkpt lat="-27.2246948" lon="151.4173925">
  <ele>541.5</ele>
  <time>2026-09-01T20:00:54Z</time>
  <course>263.0</course>
  <speed>0.45793012567421243</speed>
  <fix>3d</fix>
</trkpt>
<trkpt lat="-27.2246948" lon="151.4173928">
  <ele>541.92</ele>
  <time>2026-09-01T20:00:54Z</time>
  <course>290.27</course>
  <speed>0.27</speed>
  <fix>3d</fix>
</trkpt>
<trkpt lat="-27.2246947" lon="151.4173921">
  <ele>540.97</ele>
  <time>2026-09-01T20:00:54Z</time>
  <course>265.09</course>
  <speed>0.42720018726587655</speed>
  <fix>3d</fix>
</trkpt>
<trkpt lat="-27.2246948" lon="151.4173928">
  <ele>541.92</ele>
  <time>2026-09-01T20:00:54Z</time>
  <course>290.27</course>
  <speed>0.27</speed>
  <fix>3d</fix>
</trkpt>
<trkpt lat="-27.2246954" lon="151.4173918">
  <ele>540.4</ele>
  <time>2026-09-01T20:00:54Z</time>
  <course>252.52</course>
  <speed>1.690266251216062</speed>
  <fix>3d</fix>
</trkpt>
<trkpt lat="-27.2246951" lon="151.4173922">
  <ele>540.97</ele>
  <time>2026-09-01T20:00:54Z</time>
  <course>198.11</course>
  <speed>0.72</speed>
  <fix>3d</fix>
</trkpt>
<trkpt lat="-27.2246976" lon="151.4173921">
  <ele>539.83</ele>
  <time>2026-09-01T20:00:54Z</time>
  <course>242.71</course>
  <speed>2.964354904528134</speed>
  <fix>3d</fix>
</trkpt>
<trkpt lat="-27.2246951" lon="151.4173922">
  <ele>540.97</ele>
  <time>2026-09-01T20:00:54Z</time>
  <course>198.11</course>
  <speed>0.72</speed>
  <fix>3d</fix>
</trkpt>
<trkpt lat="-27.2247006" lon="151.4173927">
  <ele>539.31</ele>
  <time>2026-09-01T20:00:54Z</time>
  <course>234.86</course>
  <speed>3.9292238419311265</speed>
  <fix>3d</fix>
</trkpt>
<trkpt lat="-27.2246979" lon="151.4173923">
  <ele>539.88</ele>
  <time>2026-09-01T20:00:54Z</time>
  <course>171.16</course>
  <speed>2.74</speed>
  <fix>3d</fix>
</trkpt>
<trkpt lat="-27.2247044" lon="151.4173938">
  <ele>538.84</ele>
  <time>2026-09-01T20:00:54Z</time>
  <course>227.95</course>
  <speed>4.664804390325494</speed>
  <fix>3d</fix>
</trkpt>
<trkpt lat="-27.2246979" lon="151.4173923">
  <ele>539.88</ele>
  <time>2026-09-01T20:00:54Z</time>
  <course>171.16</course>
  <speed>2.74</speed>
  <fix>3d</fix>
</trkpt>
<trkpt lat="-27.2247087" lon="151.4173954">
  <ele>538.44</ele>
  <time>2026-09-01T20:00:54Z</time>
  <course>221.36</course>
  <speed>5.474029594366475</speed>
  <fix>3d</fix>
</trkpt>
<trkpt lat="-27.2247045" lon="151.417394">
  <ele>538.89</ele>
  <time>2026-09-01T20:00:54Z</time>
  <course>164.86</course>
  <speed>4.67</speed>
  <fix>3d</fix>
</trkpt>
<trkpt lat="-27.2247137" lon="151.4173971">
  <ele>538.14</ele>
  <time>2026-09-01T20:00:54Z</time>
  <course>214.25</course>
  <speed>6.005605714663593</speed>
  <fix>3d</fix>
</trkpt>
<trkpt lat="-27.2247045" lon="151.417394">
  <ele>538.89</ele>
  <time>2026-09-01T20:00:54Z</time>
  <course>164.86</course>
  <speed>4.67</speed>
  <fix>3d</fix>
</trkpt>
<trkpt lat="-27.2247189" lon="151.417399">
  <ele>537.91</ele>
  <time>2026-09-01T20:00:54Z</time>
  <course>207.47</course>
  <speed>6.296824596572466</speed>
  <fix>3d</fix>
</trkpt>
<trkpt lat="-27.2247136" lon="151.4173971">
  <ele>538.19</ele>
  <time>2026-09-01T20:00:54Z</time>
  <course>161.5</course>
  <speed>5.87</speed>
  <fix>3d</fix>
</trkpt>
<trkpt lat="-27.2247242" lon="151.4174016">
  <ele>537.79</ele>
  <time>2026-09-01T20:00:54Z</time>
  <course>201.57</course>
  <speed>6.369317074851903</speed>
  <fix>3d</fix>
</trkpt>
<trkpt lat="-27.2247136" lon="151.4173971">
  <ele>538.19</ele>
  <time>2026-09-01T20:00:54Z</time>
  <course>161.5</course>
  <speed>5.87</speed>
  <fix>3d</fix>
</trkpt>
<trkpt lat="-27.2247293" lon="151.4174043">
  <ele>537.74</ele>
  <time>2026-09-01T20:00:54Z</time>
  <course>196.81</course>
  <speed>6.260199677326594</speed>
  <fix>3d</fix>
</trkpt>
<trkpt lat="-27.2247239" lon="151.4174016">
  <ele>537.83</ele>
  <time>2026-09-01T20:00:54Z</time>
  <course>155.68</course>
  <speed>6.26</speed>
  <fix>3d</fix>
</trkpt>
<trkpt lat="-27.2247341" lon="151.4174076">
  <ele>537.76</ele>
  <time>2026-09-01T20:00:54Z</time>
  <course>192.89</course>
  <speed>6.055955746205549</speed>
  <fix>3d</fix>
</trkpt>
<trkpt lat="-27.2247239" lon="151.4174016">
  <ele>537.83</ele>
  <time>2026-09-01T20:00:54Z</time>
  <course>155.68</course>
  <speed>6.26</speed>
  <fix>3d</fix>
</trkpt>
<trkpt lat="-27.2247385" lon="151.4174109">
  <ele>537.83</ele>
  <time>2026-09-01T20:00:54Z</time>
  <course>189.17</course>
  <speed>5.870638806807994</speed>
  <fix>3d</fix>
</trkpt>
<trkpt lat="-27.2247337" lon="151.4174075">
  <ele>537.78</ele>
  <time>2026-09-01T20:00:54Z</time>
  <course>148.37</course>
  <speed>6.06</speed>
  <fix>3d</fix>
</trkpt>
<trkpt lat="-27.2247428" lon="151.4174143">
  <ele>537.95</ele>
  <time>2026-09-01T20:00:54Z</time>
  <course>185.39</course>
  <speed>5.738022307380828</speed>
  <fix>3d</fix>
</trkpt>
<trkpt lat="-27.2247337" lon="151.4174075">
  <ele>537.78</ele>
  <time>2026-09-01T20:00:54Z</time>
  <course>148.37</course>
  <speed>6.06</speed>
  <fix>3d</fix>
</trkpt>
<trkpt lat="-27.2247468" lon="151.4174179">
  <ele>538.1</ele>
  <time>2026-09-01T20:00:54Z</time>
  <course>181.86</course>
  <speed>5.648362594593233</speed>
  <fix>3d</fix>
</trkpt>
<trkpt lat="-27.2247425" lon="151.4174142">
  <ele>537.96</ele>
  <time>2026-09-01T20:00:54Z</time>
  <course>143.74</course>
  <speed>5.77</speed>
  <fix>3d</fix>
</trkpt>
<trkpt lat="-27.2247508" lon="151.4174213">
  <ele>538.28</ele>
  <time>2026-09-01T20:00:54Z</time>
  <course>178.98</course>
  <speed>5.588631317236806</speed>
  <fix>3d</fix>
</trkpt>
<trkpt lat="-27.2247425" lon="151.4174142">
  <ele>537.96</ele>
  <time>2026-09-01T20:00:54Z</time>
  <course>143.74</course>
  <speed>5.77</speed>
  <fix>3d</fix>
</trkpt>
<trkpt lat="-27.2247548" lon="151.4174248">
  <ele>538.48</ele>
  <time>2026-09-01T20:00:54Z</time>
  <course>176.91</course>
  <speed>5.5526660263336565</speed>
  <fix>3d</fix>
</trkpt>
<trkpt lat="-27.2247506" lon="151.4174211">
  <ele>538.28</ele>
  <time>2026-09-01T20:00:54Z</time>
  <course>142.38</course>
  <speed>5.61</speed>
  <fix>3d</fix>
</trkpt>
<trkpt lat="-27.2247587" lon="151.4174282">
  <ele>538.7</ele>
  <time>2026-09-01T20:00:54Z</time>
  <course>175.56</course>
  <speed>5.532522028876161</speed>
  <fix>3d</fix>
</trkpt>
<trkpt lat="-27.2247506" lon="151.4174211">
  <ele>538.28</ele>
  <time>2026-09-01T20:00:54Z</time>
  <course>142.38</course>
  <speed>5.61</speed>
  <fix>3d</fix>
</trkpt>
<trkpt lat="-27.2247627" lon="151.4174315">
  <ele>538.95</ele>
  <time>2026-09-01T20:00:54Z</time>
  <course>174.78</course>
  <speed>5.506305476451519</speed>
  <fix>3d</fix>
</trkpt>
<trkpt lat="-27.2247585" lon="151.417428">
  <ele>538.7</ele>
  <time>2026-09-01T20:00:54Z</time>
  <course>142.35</course>
  <speed>5.53</speed>
  <fix>3d</fix>
</trkpt>
<trkpt lat="-27.2247666" lon="151.4174349">
  <ele>539.21</ele>
  <time>2026-09-01T20:00:54Z</time>
  <course>174.4</course>
  <speed>5.494160536424103</speed>
  <fix>3d</fix>
</trkpt>
<trkpt lat="-27.2247585" lon="151.417428">
  <ele>538.7</ele>
  <time>2026-09-01T20:00:54Z</time>
  <course>142.35</course>
  <speed>5.53</speed>
  <fix>3d</fix>
</trkpt>
<trkpt lat="-27.2247705" lon="151.4174382">
  <ele>539.48</ele>
  <time>2026-09-01T20:00:54Z</time>
  <course>174.25</course>
  <speed>5.484013129087129</speed>
  <fix>3d</fix>
</trkpt>
<trkpt lat="-27.2247664" lon="151.4174348">
  <ele>539.2</ele>
  <time>2026-09-01T20:00:54Z</time>
  <course>142.71</course>
  <speed>5.5</speed>
  <fix>3d</fix>
</trkpt>
<trkpt lat="-27.2247745" lon="151.4174416">
  <ele>539.77</ele>
  <time>2026-09-01T20:00:54Z</time>
  <course>174.23</course>
  <speed>5.488023323565598</speed>
  <fix>3d</fix>
</trkpt>
<trkpt lat="-27.2247664" lon="151.4174348">
  <ele>539.2</ele>
  <time>2026-09-01T20:00:54Z</time>
  <course>142.71</course>
  <speed>5.5</speed>
  <fix>3d</fix>
</trkpt>
<trkpt lat="-27.2247784" lon="151.4174449">
  <ele>540.07</ele>
  <time>2026-09-01T20:00:54Z</time>
  <course>174.26</course>
  <speed>5.48624643996239</speed>
  <fix>3d</fix>
</trkpt>
<trkpt lat="-27.2247743" lon="151.4174415">
  <ele>539.76</ele>
  <time>2026-09-01T20:00:54Z</time>
  <course>143.31</course>
  <speed>5.49</speed>
  <fix>3d</fix>
</trkpt>
<trkpt lat="-27.2247824" lon="151.4174482">
  <ele>540.38</ele>
  <time>2026-09-01T20:00:54Z</time>
  <course>174.32</course>
  <speed>5.486948149928155</speed>
  <fix>3d</fix>
</trkpt>
<trkpt lat="-27.2247743" lon="151.4174415">
  <ele>539.76</ele>
  <time>2026-09-01T20:00:54Z</time>
  <course>143.31</course>
  <speed>5.49</speed>
  <fix>3d</fix>
</trkpt>
<trkpt lat="-27.2247864" lon="151.4174515">
  <ele>540.7</ele>
  <time>2026-09-01T20:00:54Z</time>
  <course>174.4</course>
  <speed>5.493887512499686</speed>
  <fix>3d</fix>
</trkpt>
<trkpt lat="-27.2247823" lon="151.417448">
  <ele>540.37</ele>
  <time>2026-09-01T20:00:54Z</time>
  <course>144.12</course>
  <speed>5.49</speed>
  <fix>3d</fix>
</trkpt>
<trkpt lat="-27.2247905" lon="151.4174546">
  <ele>541.01</ele>
  <time>2026-09-01T20:00:54Z</time>
  <course>174.49</course>
  <speed>5.501145335291552</speed>
  <fix>3d</fix>
</trkpt>
<trkpt lat="-27.2247823" lon="151.417448">
  <ele>540.37</ele>
  <time>2026-09-01T20:00:54Z</time>
  <course>144.12</course>
  <speed>5.49</speed>
  <fix>3d</fix>
</trkpt>
<trkpt lat="-27.2247945" lon="151.4174578">
  <ele>541.32</ele>
  <time>2026-09-01T20:00:54Z</time>
  <course>174.59</course>
  <speed>5.503062783577886</speed>
  <fix>3d</fix>
</trkpt>
<trkpt lat="-27.2247903" lon="151.4174545">
  <ele>540.99</ele>
  <time>2026-09-01T20:00:54Z</time>
  <course>145.05</course>
  <speed>5.5</speed>
  <fix>3d</fix>
</trkpt>
<trkpt lat="-27.2247986" lon="151.417461">
  <ele>541.63</ele>
  <time>2026-09-01T20:00:54Z</time>
  <course>174.69</course>
  <speed>5.51101624022285</speed>
  <fix>3d</fix>
</trkpt>
<trkpt lat="-27.2247903" lon="151.4174545">
  <ele>540.99</ele>
  <time>2026-09-01T20:00:54Z</time>
  <course>145.05</course>
  <speed>5.5</speed>
  <fix>3d</fix>
</trkpt>
<trkpt lat="-27.2248027" lon="151.4174641">
  <ele>541.94</ele>
  <time>2026-09-01T20:00:54Z</time>
  <course>174.82</course>
  <speed>5.516493451459903</speed>
  <fix>3d</fix>
</trkpt>
<trkpt lat="-27.2247985" lon="151.4174608">
  <ele>541.62</ele>
  <time>2026-09-01T20:00:54Z</time>
  <course>145.92</course>
  <speed>5.51</speed>
  <fix>3d</fix>
</trkpt>
<trkpt lat="-27.2248069" lon="151.4174672">
  <ele>542.24</ele>
  <time>2026-09-01T20:00:54Z</time>
  <course>174.98</course>
  <speed>5.519284373902109</speed>
  <fix>3d</fix>
</trkpt>
<trkpt lat="-27.2247985" lon="151.4174608">
  <ele>541.62</ele>
  <time>2026-09-01T20:00:54Z</time>
  <course>145.92</course>
  <speed>5.51</speed>
  <fix>3d</fix>
</trkpt>
<trkpt lat="-27.224811" lon="151.4174703">
  <ele>542.53</ele>
  <time>2026-09-01T20:00:54Z</time>
  <course>175.17</course>
  <speed>5.5109527306991115</speed>
  <fix>3d</fix>
</trkpt>
<trkpt lat="-27.2248067" lon="151.417467">
  <ele>542.22</ele>
  <time>2026-09-01T20:00:54Z</time>
  <course>146.33</course>
  <speed>5.52</speed>
  <fix>3d</fix>
</trkpt>
<trkpt lat="-27.2248151" lon="151.4174734">
  <ele>542.82</ele>
  <time>2026-09-01T20:00:54Z</time>
  <course>175.37</course>
  <speed>5.49713561775585</speed>
  <fix>3d</fix>
</trkpt>
<trkpt lat="-27.2248067" lon="151.417467">
  <ele>542.22</ele>
  <time>2026-09-01T20:00:54Z</time>
  <course>146.33</course>
  <speed>5.52</speed>
  <fix>3d</fix>
</trkpt>
<trkpt lat="-27.2248192" lon="151.4174765">
  <ele>543.1</ele>
  <time>2026-09-01T20:00:54Z</time>
  <course>175.52</course>
  <speed>5.467010151810586</speed>
  <fix>3d</fix>
</trkpt>
<trkpt lat="-27.224815" lon="151.4174732">
  <ele>542.8</ele>
  <time>2026-09-01T20:00:54Z</time>
  <course>145.98</course>
  <speed>5.49</speed>
  <fix>3d</fix>
</trkpt>
<trkpt lat="-27.2248232" lon="151.4174796">
  <ele>543.37</ele>
  <time>2026-09-01T20:00:54Z</time>
  <course>175.69</course>
  <speed>5.393004728349495</speed>
  <fix>3d</fix>
</trkpt>
<trkpt lat="-27.224815" lon="151.4174732">
  <ele>542.8</ele>
  <time>2026-09-01T20:00:54Z</time>
  <course>145.98</course>
  <speed>5.49</speed>
  <fix>3d</fix>
</trkpt>
<trkpt lat="-27.2248272" lon="151.4174827">
  <ele>543.64</ele>
  <time>2026-09-01T20:00:54Z</time>
  <course>175.92</course>
  <speed>5.263705918837031</speed>
  <fix>3d</fix>
</trkpt>
<trkpt lat="-27.224823" lon="151.4174794">
  <ele>543.36</ele>
  <time>2026-09-01T20:00:54Z</time>
  <course>145.09</course>
  <speed>5.37</speed>
  <fix>3d</fix>
</trkpt>
<trkpt lat="-27.2248309" lon="151.4174857">
  <ele>543.91</ele>
  <time>2026-09-01T20:00:54Z</time>
  <course>176.22</course>
  <speed>5.076662289339326</speed>
  <fix>3d</fix>
</trkpt>
<trkpt lat="-27.224823" lon="151.4174794">
  <ele>543.36</ele>
  <time>2026-09-01T20:00:54Z</time>
  <course>145.09</course>
  <speed>5.37</speed>
  <fix>3d</fix>
</trkpt>
<trkpt lat="-27.2248345" lon="151.4174887">
  <ele>544.16</ele>
  <time>2026-09-01T20:00:54Z</time>
  <course>176.56</course>
  <speed>4.834149356401807</speed>
  <fix>3d</fix>
</trkpt>
<trkpt lat="-27.2248307" lon="151.4174856">
  <ele>543.89</ele>
  <time>2026-09-01T20:00:54Z</time>
  <course>144.08</course>
  <speed>5.06</speed>
  <fix>3d</fix>
</trkpt>
<trkpt lat="-27.2248379" lon="151.4174916">
  <ele>544.44</ele>
  <time>2026-09-01T20:00:54Z</time>
  <course>176.96</course>
  <speed>4.55</speed>
  <fix>3d</fix>
</trkpt>
<trkpt lat="-27.2248307" lon="151.4174856">
  <ele>543.89</ele>
  <time>2026-09-01T20:00:54Z</time>
  <course>144.08</course>
  <speed>5.06</speed>
  <fix>3d</fix>
</trkpt>
<trkpt lat="-27.2248411" lon="151.4174942">
  <ele>544.7</ele>
  <time>2026-09-01T20:00:54Z</time>
  <course>177.43</course>
  <speed>4.232079866921228</speed>
  <fix>3d</fix>
</trkpt>
<trkpt lat="-27.2248377" lon="151.4174913">
  <ele>544.42</ele>
  <time>2026-09-01T20:00:54Z</time>
  <course>143.19</course>
  <speed>4.55</speed>
  <fix>3d</fix>
</trkpt>
<trkpt lat="-27.224844" lon="151.4174966">
  <ele>544.97</ele>
  <time>2026-09-01T20:00:54Z</time>
  <course>177.98</course>
  <speed>3.894226495724151</speed>
  <fix>3d</fix>
</trkpt>
<trkpt lat="-27.2248377" lon="151.4174913">
  <ele>544.42</ele>
  <time>2026-09-01T20:00:54Z</time>
  <course>143.19</course>
  <speed>4.55</speed>
  <fix>3d</fix>
</trkpt>
<trkpt lat="-27.2248466" lon="151.417499">
  <ele>545.23</ele>
  <time>2026-09-01T20:00:54Z</time>
  <course>178.62</course>
  <speed>3.5582720525558473</speed>
  <fix>3d</fix>
</trkpt>
<trkpt lat="-27.2248437" lon="151.4174965">
  <ele>544.95</ele>
  <time>2026-09-01T20:00:54Z</time>
  <course>142.58</course>
  <speed>3.91</speed>
  <fix>3d</fix>
</trkpt>
<trkpt lat="-27.2248491" lon="151.417501">
  <ele>545.5</ele>
  <time>2026-09-01T20:00:54Z</time>
  <course>179.34</course>
  <speed>3.208301731446093</speed>
  <fix>3d</fix>
</trkpt>
<trkpt lat="-27.2248437" lon="151.4174965">
  <ele>544.95</ele>
  <time>2026-09-01T20:00:54Z</time>
  <course>142.58</course>
  <speed>3.91</speed>
  <fix>3d</fix>
</trkpt>
<trkpt lat="-27.2248512" lon="151.4175029">
  <ele>545.76</ele>
  <time>2026-09-01T20:00:54Z</time>
  <course>180.16</course>
  <speed>2.8644720281406135</speed>
  <fix>3d</fix>
</trkpt>
<trkpt lat="-27.2248487" lon="151.4175009">
  <ele>545.48</ele>
  <time>2026-09-01T20:00:54Z</time>
  <course>142.23</course>
  <speed>3.22</speed>
  <fix>3d</fix>
</trkpt>
<trkpt lat="-27.2248531" lon="151.4175047">
  <ele>546.02</ele>
  <time>2026-09-01T20:00:54Z</time>
  <course>181.04</course>
  <speed>2.514537730876194</speed>
  <fix>3d</fix>
</trkpt>
<trkpt lat="-27.2248487" lon="151.4175009">
  <ele>545.48</ele>
  <time>2026-09-01T20:00:54Z</time>
  <course>142.23</course>
  <speed>3.22</speed>
  <fix>3d</fix>
</trkpt>
<trkpt lat="-27.2248548" lon="151.4175062">
  <ele>546.28</ele>
  <time>2026-09-01T20:00:54Z</time>
  <course>181.95</course>
  <speed>2.178669318643837</speed>
  <fix>3d</fix>
</trkpt>
<trkpt lat="-27.2248529" lon="151.4175045">
  <ele>546.01</ele>
  <time>2026-09-01T20:00:54Z</time>
  <course>141.88</course>
  <speed>2.54</speed>
  <fix>3d</fix>
</trkpt>
<trkpt lat="-27.2248562" lon="151.4175074">
  <ele>546.54</ele>
  <time>2026-09-01T20:00:54Z</time>
  <course>182.85</course>
  <speed>1.8569060288555261</speed>
  <fix>3d</fix>
</trkpt>
<trkpt lat="-27.2248529" lon="151.4175045">
  <ele>546.01</ele>
  <time>2026-09-01T20:00:54Z</time>
  <course>141.88</course>
  <speed>2.54</speed>
  <fix>3d</fix>
</trkpt>
<trkpt lat="-27.2248574" lon="151.4175085">
  <ele>546.8</ele>
  <time>2026-09-01T20:00:54Z</time>
  <course>183.7</course>
  <speed>1.5352524222420234</speed>
  <fix>3d</fix>
</trkpt>
<trkpt lat="-27.224856" lon="151.4175073">
  <ele>546.53</ele>
  <time>2026-09-01T20:00:54Z</time>
  <course>141.36</course>
  <speed>1.87</speed>
  <fix>3d</fix>
</trkpt>
<trkpt lat="-27.2248584" lon="151.4175095">
  <ele>547.01</ele>
  <time>2026-09-01T20:00:54Z</time>
  <course>184.31</course>
  <speed>1.5102979838429236</speed>
  <fix>3d</fix>
</trkpt>
<trkpt lat="-27.224856" lon="151.4175073">
  <ele>546.53</ele>
  <time>2026-09-01T20:00:54Z</time>
  <course>141.36</course>
  <speed>1.87</speed>
  <fix>3d</fix>
</trkpt>
<trkpt lat="-27.2248595" lon="151.4175104">
  <ele>547.12</ele>
  <time>2026-09-01T20:00:54Z</time>
  <course>184.62</course>
  <speed>1.5200328943809078</speed>
  <fix>3d</fix>
</trkpt>
<trkpt lat="-27.2248584" lon="151.4175094">
  <ele>546.94</ele>
  <time>2026-09-01T20:00:54Z</time>
  <course>141.74</course>
  <speed>1.54</speed>
  <fix>3d</fix>
</trkpt>
<trkpt lat="-27.2248606" lon="151.4175113">
  <ele>547.13</ele>
  <time>2026-09-01T20:00:54Z</time>
  <course>184.72</course>
  <speed>1.5060212481900777</speed>
  <fix>3d</fix>
</trkpt>
<trkpt lat="-27.2248584" lon="151.4175094">
  <ele>546.94</ele>
  <time>2026-09-01T20:00:54Z</time>
  <course>141.74</course>
  <speed>1.54</speed>
  <fix>3d</fix>
</trkpt>
<trkpt lat="-27.2248617" lon="151.4175123">
  <ele>547.04</ele>
  <time>2026-09-01T20:00:54Z</time>
  <course>184.63</course>
  <speed>1.4780054127099804</speed>
  <fix>3d</fix>
</trkpt>
<trkpt lat="-27.2248606" lon="151.4175113">
  <ele>547.07</ele>
  <time>2026-09-01T20:00:54Z</time>
  <course>142.64</course>
  <speed>1.5</speed>
  <fix>3d</fix>
</trkpt>
<trkpt lat="-27.2248627" lon="151.417513">
  <ele>546.86</ele>
  <time>2026-09-01T20:00:54Z</time>
  <course>184.21</course>
  <speed>1.4140014144264494</speed>
  <fix>3d</fix>
</trkpt>
<trkpt lat="-27.2248606" lon="151.4175113">
  <ele>547.07</ele>
  <time>2026-09-01T20:00:54Z</time>
  <course>142.64</course>
  <speed>1.5</speed>
  <fix>3d</fix>
</trkpt>
<trkpt lat="-27.2248637" lon="151.4175139">
  <ele>546.61</ele>
  <time>2026-09-01T20:00:54Z</time>
  <course>183.22</course>
  <speed>1.3241223508422477</speed>
  <fix>3d</fix>
</trkpt>
<trkpt lat="-27.2248627" lon="151.4175131">
  <ele>546.83</ele>
  <time>2026-09-01T20:00:54Z</time>
  <course>143.16</course>
  <speed>1.41</speed>
  <fix>3d</fix>
</trkpt>
<trkpt lat="-27.2248647" lon="151.4175147">
  <ele>546.28</ele>
  <time>2026-09-01T20:00:54Z</time>
  <course>181.62</course>
  <speed>1.2206555615733703</speed>
  <fix>3d</fix>
</trkpt>
<trkpt lat="-27.2248627" lon="151.4175131">
  <ele>546.83</ele>
  <time>2026-09-01T20:00:54Z</time>
  <course>143.16</course>
  <speed>1.41</speed>
  <fix>3d</fix>
</trkpt>
<trkpt lat="-27.2248655" lon="151.4175153">
  <ele>545.89</ele>
  <time>2026-09-01T20:00:54Z</time>
  <course>179.8</course>
  <speed>1.131591799192624</speed>
  <fix>3d</fix>
</trkpt>
<trkpt lat="-27.2248646" lon="151.4175146">
  <ele>546.26</ele>
  <time>2026-09-01T20:00:54Z</time>
  <course>144.68</course>
  <speed>1.23</speed>
  <fix>3d</fix>
</trkpt>
<trkpt lat="-27.2248663" lon="151.417516">
  <ele>545.45</ele>
  <time>2026-09-01T20:00:54Z</time>
  <course>178.13</course>
  <speed>1.05152270541344</speed>
  <fix>3d</fix>
</trkpt>
<trkpt lat="-27.2248646" lon="151.4175146">
  <ele>546.26</ele>
  <time>2026-09-01T20:00:54Z</time>
  <course>144.68</course>
  <speed>1.23</speed>
  <fix>3d</fix>
</trkpt>
<trkpt lat="-27.2248671" lon="151.4175165">
  <ele>544.97</ele>
  <time>2026-09-01T20:00:54Z</time>
  <course>176.64</course>
  <speed>0.9936297097007517</speed>
  <fix>3d</fix>
</trkpt>
<trkpt lat="-27.2248663" lon="151.4175159">
  <ele>545.44</ele>
  <time>2026-09-01T20:00:54Z</time>
  <course>148.2</course>
  <speed>1.07</speed>
  <fix>3d</fix>
</trkpt>
<trkpt lat="-27.2248679" lon="151.417517">
  <ele>544.44</ele>
  <time>2026-09-01T20:00:54Z</time>
  <course>175.25</course>
  <speed>1.0022474744293448</speed>
  <fix>3d</fix>
</trkpt>
<trkpt lat="-27.2248663" lon="151.4175159">
  <ele>545.44</ele>
  <time>2026-09-01T20:00:54Z</time>
  <course>148.2</course>
  <speed>1.07</speed>
  <fix>3d</fix>
</trkpt>
<trkpt lat="-27.2248688" lon="151.4175173">
  <ele>543.86</ele>
  <time>2026-09-01T20:00:54Z</time>
  <course>173.97</course>
  <speed>1.0475208828467335</speed>
  <fix>3d</fix>
</trkpt>
<trkpt lat="-27.2248679" lon="151.4175169">
  <ele>544.43</ele>
  <time>2026-09-01T20:00:54Z</time>
  <course>154.97</course>
  <speed>1.02</speed>
  <fix>3d</fix>
</trkpt>
<trkpt lat="-27.2248697" lon="151.4175177">
  <ele>543.22</ele>
  <time>2026-09-01T20:00:54Z</time>
  <course>172.77</course>
  <speed>1.132254388377453</speed>
  <fix>3d</fix>
</trkpt>
<trkpt lat="-27.2248679" lon="151.4175169">
  <ele>544.43</ele>
  <time>2026-09-01T20:00:54Z</time>
  <course>154.97</course>
  <speed>1.02</speed>
  <fix>3d</fix>
</trkpt>
<trkpt lat="-27.2248708" lon="151.4175181">
  <ele>542.52</ele>
  <time>2026-09-01T20:00:54Z</time>
  <course>171.67</course>
  <speed>1.3509256086106296</speed>
  <fix>3d</fix>
</trkpt>
<trkpt lat="-27.2248697" lon="151.4175177">
  <ele>543.21</ele>
  <time>2026-09-01T20:00:54Z</time>
  <course>162.46</course>
  <speed>1.18</speed>
  <fix>3d</fix>
</trkpt>
<trkpt lat="-27.2248723" lon="151.4175185">
  <ele>541.75</ele>
  <time>2026-09-01T20:00:54Z</time>
  <course>170.27</course>
  <speed>2.175247112398957</speed>
  <fix>3d</fix>
</trkpt>
<trkpt lat="-27.2248697" lon="151.4175177">
  <ele>543.21</ele>
  <time>2026-09-01T20:00:54Z</time>
  <course>162.46</course>
  <speed>1.18</speed>
  <fix>3d</fix>
</trkpt>
<trkpt lat="-27.2248745" lon="151.4175189">
  <ele>540.91</ele>
  <time>2026-09-01T20:00:54Z</time>
  <course>168.28</course>
  <speed>2.556423282635331</speed>
  <fix>3d</fix>
</trkpt>
<trkpt lat="-27.2248725" lon="151.4175185">
  <ele>541.75</ele>
  <time>2026-09-01T20:00:54Z</time>
  <course>168.57</course>
  <speed>1.93</speed>
  <fix>3d</fix>
</trkpt>
<trkpt lat="-27.2248768" lon="151.4175192">
  <ele>539.98</ele>
  <time>2026-09-01T20:00:54Z</time>
  <course>165.29</course>
  <speed>2.525173261382276</speed>
  <fix>3d</fix>
</trkpt>
<trkpt lat="-27.2248725" lon="151.4175185">
  <ele>541.75</ele>
  <time>2026-09-01T20:00:54Z</time>
  <course>168.57</course>
  <speed>1.93</speed>
  <fix>3d</fix>
</trkpt>
<trkpt lat="-27.2248789" lon="151.4175196">
  <ele>538.96</ele>
  <time>2026-09-01T20:00:54Z</time>
  <course>162.55</course>
  <speed>2.3114497615133236</speed>
  <fix>3d</fix>
</trkpt>
<trkpt lat="-27.2248766" lon="151.4175192">
  <ele>539.97</ele>
  <time>2026-09-01T20:00:54Z</time>
  <course>170.36</course>
  <speed>2.43</speed>
  <fix>3d</fix>
</trkpt>
<trkpt lat="-27.2248809" lon="151.4175201">
  <ele>537.84</ele>
  <time>2026-09-01T20:00:54Z</time>
  <course>163.16</course>
  <speed>2.2210357943986403</speed>
  <fix>3d</fix>
</trkpt>
<trkpt lat="-27.2248766" lon="151.4175192">
  <ele>539.97</ele>
  <time>2026-09-01T20:00:54Z</time>
  <course>170.36</course>
  <speed>2.43</speed>
  <fix>3d</fix>
</trkpt>
<trkpt lat="-27.224883" lon="151.4175205">
  <ele>536.63</ele>
  <time>2026-09-01T20:00:54Z</time>
  <course>163.73</course>
  <speed>2.5419677417308035</speed>
  <fix>3d</fix>
</trkpt>
<trkpt lat="-27.2248808" lon="151.4175201">
  <ele>537.83</ele>
  <time>2026-09-01T20:00:54Z</time>
  <course>169.96</course>
  <speed>2.42</speed>
  <fix>3d</fix>
</trkpt>
<trkpt lat="-27.2248855" lon="151.417521">
  <ele>535.35</ele>
  <time>2026-09-01T20:00:54Z</time>
  <course>163.68</course>
  <speed>3.365739146160914</speed>
  <fix>3d</fix>
</trkpt>
<trkpt lat="-27.2248808" lon="151.4175201">
  <ele>537.83</ele>
  <time>2026-09-01T20:00:54Z</time>
  <course>169.96</course>
  <speed>2.42</speed>
  <fix>3d</fix>
</trkpt>
<trkpt lat="-27.224889" lon="151.417522">
  <ele>534.01</ele>
  <time>2026-09-01T20:00:54Z</time>
  <course>163.62</course>
  <speed>4.576647244435603</speed>
  <fix>3d</fix>
</trkpt>
<trkpt lat="-27.2248858" lon="151.4175212">
  <ele>535.37</ele>
  <time>2026-09-01T20:00:54Z</time>
  <course>167.24</course>
  <speed>3.52</speed>
  <fix>3d</fix>
</trkpt>
<trkpt lat="-27.2248936" lon="151.4175234">
  <ele>532.64</ele>
  <time>2026-09-01T20:00:54Z</time>
  <course>163.74</course>
  <speed>5.941195165957772</speed>
  <fix>3d</fix>
</trkpt>
<trkpt lat="-27.2248858" lon="151.4175212">
  <ele>535.37</ele>
  <time>2026-09-01T20:00:54Z</time>
  <course>167.24</course>
  <speed>3.52</speed>
  <fix>3d</fix>
</trkpt>
<trkpt lat="-27.2248993" lon="151.4175252">
  <ele>531.26</ele>
  <time>2026-09-01T20:00:54Z</time>
  <course>163.98</course>
  <speed>7.285629691385639</speed>
  <fix>3d</fix>
</trkpt>
<trkpt lat="-27.224894" lon="151.4175235">
  <ele>532.68</ele>
  <time>2026-09-01T20:00:54Z</time>
  <course>164.67</course>
  <speed>5.89</speed>
  <fix>3d</fix>
</trkpt>
<trkpt lat="-27.2249061" lon="151.4175275">
  <ele>529.87</ele>
  <time>2026-09-01T20:00:54Z</time>
  <course>164.2</course>
  <speed>8.552479172731145</speed>
  <fix>3d</fix>
</trkpt>
<trkpt lat="-27.224894" lon="151.4175235">
  <ele>532.68</ele>
  <time>2026-09-01T20:00:54Z</time>
  <course>164.67</course>
  <speed>5.89</speed>
  <fix>3d</fix>
</trkpt>
<trkpt lat="-27.224914" lon="151.4175301">
  <ele>528.49</ele>
  <time>2026-09-01T20:00:54Z</time>
  <course>164.33</course>
  <speed>9.77370451773533</speed>
  <fix>3d</fix>
</trkpt>
<trkpt lat="-27.2249064" lon="151.4175276">
  <ele>529.92</ele>
  <time>2026-09-01T20:00:54Z</time>
  <course>163.62</course>
  <speed>8.49</speed>
  <fix>3d</fix>
</trkpt>
<trkpt lat="-27.224923" lon="151.417533">
  <ele>527.12</ele>
  <time>2026-09-01T20:00:54Z</time>
  <course>164.36</course>
  <speed>10.996022007980887</speed>
  <fix>3d</fix>
</trkpt>
<trkpt lat="-27.2249064" lon="151.4175276">
  <ele>529.92</ele>
  <time>2026-09-01T20:00:54Z</time>
  <course>163.62</course>
  <speed>8.49</speed>
  <fix>3d</fix>
</trkpt>
<trkpt lat="-27.224933" lon="151.4175364">
  <ele>525.79</ele>
  <time>2026-09-01T20:00:54Z</time>
  <course>164.34</course>
  <speed>12.232027632408291</speed>
  <fix>3d</fix>
</trkpt>
<trkpt lat="-27.2249232" lon="151.4175331">
  <ele>527.18</ele>
  <time>2026-09-01T20:00:54Z</time>
  <course>163.66</course>
  <speed>10.96</speed>
  <fix>3d</fix>
</trkpt>
<trkpt lat="-27.2249441" lon="151.41754">
  <ele>524.52</ele>
  <time>2026-09-01T20:00:54Z</time>
  <course>164.29</course>
  <speed>13.453103731109785</speed>
  <fix>3d</fix>
</trkpt>
<trkpt lat="-27.2249232" lon="151.4175331">
  <ele>527.18</ele>
  <time>2026-09-01T20:00:54Z</time>
  <course>163.66</course>
  <speed>10.96</speed>
  <fix>3d</fix>
</trkpt>
<trkpt lat="-27.2249563" lon="151.4175438">
  <ele>523.32</ele>
  <time>2026-09-01T20:00:54Z</time>
  <course>164.23</course>
  <speed>14.60161634888412</speed>
  <fix>3d</fix>
</trkpt>
<trkpt lat="-27.2249442" lon="151.4175399">
  <ele>524.59</ele>
  <time>2026-09-01T20:00:54Z</time>
  <course>164.1</course>
  <speed>13.38</speed>
  <fix>3d</fix>
</trkpt>
<trkpt lat="-27.2249694" lon="151.4175479">
  <ele>522.2</ele>
  <time>2026-09-01T20:00:54Z</time>
  <course>164.17</course>
  <speed>15.65127790309788</speed>
  <fix>3d</fix>
</trkpt>
<trkpt lat="-27.2249442" lon="151.4175399">
  <ele>524.59</ele>
  <time>2026-09-01T20:00:54Z</time>
  <course>164.1</course>
  <speed>13.38</speed>
  <fix>3d</fix>
</trkpt>
<trkpt lat="-27.2249833" lon="151.4175522">
  <ele>521.19</ele>
  <time>2026-09-01T20:00:54Z</time>
  <course>164.11</course>
  <speed>16.575720195514883</speed>
  <fix>3d</fix>
</trkpt>
<trkpt lat="-27.2249693" lon="151.4175479">
  <ele>522.28</ele>
  <time>2026-09-01T20:00:54Z</time>
  <course>164.39</course>
  <speed>15.56</speed>
  <fix>3d</fix>
</trkpt>
<trkpt lat="-27.224998" lon="151.4175569">
  <ele>520.29</ele>
  <time>2026-09-01T20:00:54Z</time>
  <course>164.04</course>
  <speed>17.352996859332396</speed>
  <fix>3d</fix>
</trkpt>
<trkpt lat="-27.2249693" lon="151.4175479">
  <ele>522.28</ele>
  <time>2026-09-01T20:00:54Z</time>
  <course>164.39</course>
  <speed>15.56</speed>
  <fix>3d</fix>
</trkpt>
<trkpt lat="-27.2250133" lon="151.4175617">
  <ele>519.53</ele>
  <time>2026-09-01T20:00:54Z</time>
  <course>163.96</course>
  <speed>17.98054504179448</speed>
  <fix>3d</fix>
</trkpt>
<trkpt lat="-27.2249978" lon="151.4175569">
  <ele>520.39</ele>
  <time>2026-09-01T20:00:54Z</time>
  <course>164.3</course>
  <speed>17.26</speed>
  <fix>3d</fix>
</trkpt>
<trkpt lat="-27.225029" lon="151.4175668">
  <ele>518.88</ele>
  <time>2026-09-01T20:00:54Z</time>
  <course>163.88</course>
  <speed>18.455776873380323</speed>
  <fix>3d</fix>
</trkpt>
<trkpt lat="-27.2249978" lon="151.4175569">
  <ele>520.39</ele>
  <time>2026-09-01T20:00:54Z</time>
  <course>164.3</course>
  <speed>17.26</speed>
  <fix>3d</fix>
</trkpt>
<trkpt lat="-27.2250451" lon="151.417572">
  <ele>518.37</ele>
  <time>2026-09-01T20:00:54Z</time>
  <course>163.8</course>
  <speed>18.744409833334313</speed>
  <fix>3d</fix>
</trkpt>
<trkpt lat="-27.2250287" lon="151.4175667">
  <ele>518.96</ele>
  <time>2026-09-01T20:00:54Z</time>
  <course>163.97</course>
  <speed>18.35</speed>
  <fix>3d</fix>
</trkpt>
<trkpt lat="-27.2250613" lon="151.4175774">
  <ele>517.99</ele>
  <time>2026-09-01T20:00:54Z</time>
  <course>163.75</course>
  <speed>18.872419028836763</speed>
  <fix>3d</fix>
</trkpt>
<trkpt lat="-27.2250287" lon="151.4175667">
  <ele>518.96</ele>
  <time>2026-09-01T20:00:54Z</time>
  <course>163.97</course>
  <speed>18.35</speed>
  <fix>3d</fix>
</trkpt>
<trkpt lat="-27.2250777" lon="151.4175828">
  <ele>517.69</ele>
  <time>2026-09-01T20:00:54Z</time>
  <course>163.72</course>
  <speed>18.87129036393643</speed>
  <fix>3d</fix>
</trkpt>
<trkpt lat="-27.2250608" lon="151.4175772">
  <ele>518.04</ele>
  <time>2026-09-01T20:00:54Z</time>
  <course>163.67</course>
  <speed>18.81</speed>
  <fix>3d</fix>
</trkpt>
<trkpt lat="-27.225094" lon="151.4175881">
  <ele>517.45</ele>
  <time>2026-09-01T20:00:54Z</time>
  <course>163.68</course>
  <speed>18.80416177339474</speed>
  <fix>3d</fix>
</trkpt>
<trkpt lat="-27.2250608" lon="151.4175772">
  <ele>518.04</ele>
  <time>2026-09-01T20:00:54Z</time>
  <course>163.67</course>
  <speed>18.81</speed>
  <fix>3d</fix>
</trkpt>
<trkpt lat="-27.2251101" lon="151.4175936">
  <ele>517.25</ele>
  <time>2026-09-01T20:00:54Z</time>
  <course>163.63</course>
  <speed>18.709347930914106</speed>
  <fix>3d</fix>
</trkpt>
<trkpt lat="-27.2250933" lon="151.417588">
  <ele>517.47</ele>
  <time>2026-09-01T20:00:54Z</time>
  <course>163.52</course>
  <speed>18.8</speed>
  <fix>3d</fix>
</trkpt>
<trkpt lat="-27.2251262" lon="151.4175989">
  <ele>517.06</ele>
  <time>2026-09-01T20:00:54Z</time>
  <course>163.57</course>
  <speed>18.595356947367264</speed>
  <fix>3d</fix>
</trkpt>
<trkpt lat="-27.2250933" lon="151.417588">
  <ele>517.47</ele>
  <time>2026-09-01T20:00:54Z</time>
  <course>163.52</course>
  <speed>18.8</speed>
  <fix>3d</fix>
</trkpt>
<trkpt lat="-27.2251422" lon="151.4176043">
  <ele>516.88</ele>
  <time>2026-09-01T20:00:54Z</time>
  <course>163.52</course>
  <speed>18.478528079909395</speed>
  <fix>3d</fix>
</trkpt>
<trkpt lat="-27.2251255" lon="151.4175987">
  <ele>517.07</ele>
  <time>2026-09-01T20:00:54Z</time>
  <course>163.49</course>
  <speed>18.6</speed>
  <fix>3d</fix>
</trkpt>
<trkpt lat="-27.225158" lon="151.4176095">
  <ele>516.7</ele>
  <time>2026-09-01T20:00:54Z</time>
  <course>163.48</course>
  <speed>18.364536476589873</speed>
  <fix>3d</fix>
</trkpt>
<trkpt lat="-27.2251255" lon="151.4175987">
  <ele>517.07</ele>
  <time>2026-09-01T20:00:54Z</time>
  <course>163.49</course>
  <speed>18.6</speed>
  <fix>3d</fix>
</trkpt>
<trkpt lat="-27.2251738" lon="151.4176148">
  <ele>516.53</ele>
  <time>2026-09-01T20:00:54Z</time>
  <course>163.45</course>
  <speed>18.240956663508634</speed>
  <fix>3d</fix>
</trkpt>
<trkpt lat="-27.2251574" lon="151.4176093">
  <ele>516.71</ele>
  <time>2026-09-01T20:00:54Z</time>
  <course>163.5</course>
  <speed>18.37</speed>
  <fix>3d</fix>
</trkpt>
<trkpt lat="-27.2251894" lon="151.41762">
  <ele>516.37</ele>
  <time>2026-09-01T20:00:55Z</time>
  <course>163.43</course>
  <speed>18.126966100260685</speed>
  <fix>3d</fix>
</trkpt>
<trkpt lat="-27.2251574" lon="151.4176093">
  <ele>516.71</ele>
  <time>2026-09-01T20:00:55Z</time>
  <course>163.5</course>
  <speed>18.37</speed>
  <fix>3d</fix>
</trkpt>
<trkpt lat="-27.225205" lon="151.4176252">
  <ele>516.2</ele>
  <time>2026-09-01T20:00:55Z</time>
  <course>163.43</course>
  <speed>18.01297587851602</speed>
  <fix>3d</fix>
</trkpt>
<trkpt lat="-27.2251889" lon="151.4176197">
  <ele>516.37</ele>
  <time>2026-09-01T20:00:55Z</time>
  <course>163.48</course>
  <speed>18.13</speed>
  <fix>3d</fix>
</trkpt>
<trkpt lat="-27.2252205" lon="151.4176304">
  <ele>516.03</ele>
  <time>2026-09-01T20:00:55Z</time>
  <course>163.43</course>
  <speed>17.90183230845379</speed>
  <fix>3d</fix>
</trkpt>
<trkpt lat="-27.2251889" lon="151.4176197">
  <ele>516.37</ele>
  <time>2026-09-01T20:00:55Z</time>
  <course>163.48</course>
  <speed>18.13</speed>
  <fix>3d</fix>
</trkpt>
<trkpt lat="-27.2252358" lon="151.4176355">
  <ele>515.86</ele>
  <time>2026-09-01T20:00:55Z</time>
  <course>163.43</course>
  <speed>17.78784416392273</speed>
  <fix>3d</fix>
</trkpt>
<trkpt lat="-27.2252199" lon="151.4176301">
  <ele>516.03</ele>
  <time>2026-09-01T20:00:55Z</time>
  <course>163.44</course>
  <speed>17.9</speed>
  <fix>3d</fix>
</trkpt>
<trkpt lat="-27.2252511" lon="151.4176406">
  <ele>515.7</ele>
  <time>2026-09-01T20:00:55Z</time>
  <course>163.42</course>
  <speed>17.676710666863336</speed>
  <fix>3d</fix>
</trkpt>
<trkpt lat="-27.2252199" lon="151.4176301">
  <ele>516.03</ele>
  <time>2026-09-01T20:00:55Z</time>
  <course>163.44</course>
  <speed>17.9</speed>
  <fix>3d</fix>
</trkpt>
<trkpt lat="-27.2234048" lon="151.4216649">
  <ele>542.97</ele>
  <time>2026-09-01T20:00:55Z</time>
  <course>250.0</course>
  <speed>0.0</speed>
  <fix>3d</fix>
</trkpt>
<trkpt lat="-27.22432" lon="151.4196501">
  <ele>529.42</ele>
  <time>2026-09-01T20:00:55Z</time>
  <course>163.42</course>
  <speed>8.89</speed>
  <fix>3d</fix>
</trkpt>
<trkpt lat="-27.2234048" lon="151.4216649">
  <ele>542.86</ele>
  <time>2026-09-01T20:00:55Z</time>
  <course>250.0</course>
  <speed>0.01</speed>
  <fix>3d</fix>
</trkpt>
<trkpt lat="-27.22432" lon="151.4196501">
  <ele>529.42</ele>
  <time>2026-09-01T20:00:55Z</time>
  <course>163.42</course>
  <speed>8.89</speed>
  <fix>3d</fix>
</trkpt>
<trkpt lat="-27.2234048" lon="151.4216648">
  <ele>542.65</ele>
  <time>2026-09-01T20:00:55Z</time>
  <course>250.02</course>
  <speed>0.044721359549995794</speed>
  <fix>3d</fix>
</trkpt>
<trkpt lat="-27.2234048" lon="151.4216648">
  <ele>542.81</ele>
  <time>2026-09-01T20:00:55Z</time>
  <course>243.05</course>
  <speed>0.02</speed>
  <fix>3d</fix>
</trkpt>
<trkpt lat="-27.2234048" lon="151.4216646">
  <ele>542.35</ele>
  <time>2026-09-01T20:00:55Z</time>
  <course>250.61</course>
  <speed>0.1264911064067352</speed>
  <fix>3d</fix>
</trkpt>
<trkpt lat="-27.2234048" lon="151.4216648">
  <ele>542.81</ele>
  <time>2026-09-01T20:00:55Z</time>
  <course>243.05</course>
  <speed>0.02</speed>
  <fix>3d</fix>
</trkpt>
<trkpt lat="-27.2234048" lon="151.4216645">
  <ele>541.98</ele>
  <time>2026-09-01T20:00:55Z</time>
  <course>253.75</course>
  <speed>0.2668332812825267</speed>
  <fix>3d</fix>
</trkpt>
<trkpt lat="-27.2234048" lon="151.4216647">
  <ele>542.32</ele>
  <time>2026-09-01T20:00:55Z</time>
  <course>276.71</course>
  <speed>0.15</speed>
  <fix>3d</fix>
</trkpt>
<trkpt lat="-27.2234047" lon="151.4216641">
  <ele>541.54</ele>
  <time>2026-09-01T20:00:55Z</time>
  <course>263.23</course>
  <speed>0.44944410108488464</speed>
  <fix>3d</fix>
</trkpt>
<trkpt lat="-27.2234048" lon="151.4216647">
  <ele>542.32</ele>
  <time>2026-09-01T20:00:55Z</time>
  <course>276.71</course>
  <speed>0.15</speed>
  <fix>3d</fix>
</trkpt>
<trkpt lat="-27.2234046" lon="151.4216639">
  <ele>541.02</ele>
  <time>2026-09-01T20:00:55Z</time>
  <course>264.58</course>
  <speed>0.4201190307520001</speed>
  <fix>3d</fix>
</trkpt>
<trkpt lat="-27.2234046" lon="151.4216642">
  <ele>541.51</ele>
  <time>2026-09-01T20:00:55Z</time>
  <course>254.63</course>
  <speed>0.31</speed>
  <fix>3d</fix>
</trkpt>
<trkpt lat="-27.2234054" lon="151.4216636">
  <ele>540.46</ele>
  <time>2026-09-01T20:00:55Z</time>
  <course>252.1</course>
  <speed>1.740028735394907</speed>
  <fix>3d</fix>
</trkpt>
<trkpt lat="-27.2234046" lon="151.4216642">
  <ele>541.51</ele>
  <time>2026-09-01T20:00:55Z</time>
  <course>254.63</course>
  <speed>0.31</speed>
  <fix>3d</fix>
</trkpt>
<trkpt lat="-27.2234075" lon="151.4216639">
  <ele>539.9</ele>
  <time>2026-09-01T20:00:55Z</time>
  <course>242.51</course>
  <speed>3.0134697609234444</speed>
  <fix>3d</fix>
</trkpt>
<trkpt lat="-27.223406" lon="151.4216639">
  <ele>540.48</ele>
  <time>2026-09-01T20:00:55Z</time>
  <course>177.19</course>
  <speed>1.58</speed>
  <fix>3d</fix>
</trkpt>
<trkpt lat="-27.2234106" lon="151.4216646">
  <ele>539.38</ele>
  <time>2026-09-01T20:00:55Z</time>
  <course>234.81</course>
  <speed>3.9752484199103835</speed>
  <fix>3d</fix>
</trkpt>
<trkpt lat="-27.223406" lon="151.4216639">
  <ele>540.48</ele>
  <time>2026-09-01T20:00:55Z</time>
  <course>177.19</course>
  <speed>1.58</speed>
  <fix>3d</fix>
</trkpt>
<trkpt lat="-27.2234144" lon="151.4216659">
  <ele>538.91</ele>
  <time>2026-09-01T20:00:55Z</time>
  <course>227.98</course>
  <speed>4.720169488482378</speed>
  <fix>3d</fix>
</trkpt>
<trkpt lat="-27.2234109" lon="151.4216648">
  <ele>539.42</ele>
  <time>2026-09-01T20:00:55Z</time>
  <course>165.98</course>
  <speed>3.83</speed>
  <fix>3d</fix>
</trkpt>
<trkpt lat="-27.2234188" lon="151.4216674">
  <ele>538.54</ele>
  <time>2026-09-01T20:00:55Z</time>
  <course>221.59</course>
  <speed>5.542057379710173</speed>
  <fix>3d</fix>
</trkpt>
<trkpt lat="-27.2234109" lon="151.4216648">
  <ele>539.42</ele>
  <time>2026-09-01T20:00:55Z</time>
  <course>165.98</course>
  <speed>3.83</speed>
  <fix>3d</fix>
</trkpt>
<trkpt lat="-27.2234238" lon="151.4216692">
  <ele>538.24</ele>
  <time>2026-09-01T20:00:55Z</time>
  <course>215.19</course>
  <speed>6.05594748986482</speed>
  <fix>3d</fix>
</trkpt>
<trkpt lat="-27.223419" lon="151.4216674">
  <ele>538.58</ele>
  <time>2026-09-01T20:00:55Z</time>
  <course>162.52</course>
  <speed>5.37</speed>
  <fix>3d</fix>
</trkpt>
<trkpt lat="-27.2234291" lon="151.4216712">
  <ele>538.03</ele>
  <time>2026-09-01T20:00:55Z</time>
  <course>209.66</course>
  <speed>6.382993028352765</speed>
  <fix>3d</fix>
</trkpt>
<trkpt lat="-27.223419" lon="151.4216674">
  <ele>538.58</ele>
  <time>2026-09-01T20:00:55Z</time>
  <course>162.52</course>
  <speed>5.37</speed>
  <fix>3d</fix>
</trkpt>
<trkpt lat="-27.2234346" lon="151.4216735">
  <ele>537.88</ele>
  <time>2026-09-01T20:00:55Z</time>
  <course>205.24</course>
  <speed>6.542186178946606</speed>
  <fix>3d</fix>
</trkpt>
<trkpt lat="-27.223429" lon="151.4216712">
  <ele>538.06</ele>
  <time>2026-09-01T20:00:55Z</time>
  <course>160.25</course>
  <speed>6.29</speed>
  <fix>3d</fix>
</trkpt>
<trkpt lat="-27.2234401" lon="151.421676">
  <ele>537.81</ele>
  <time>2026-09-01T20:00:55Z</time>
  <course>201.62</course>
  <speed>6.578540871652315</speed>
  <fix>3d</fix>
</trkpt>
<trkpt lat="-27.223429" lon="151.4216712">
  <ele>538.06</ele>
  <time>2026-09-01T20:00:55Z</time>
  <course>160.25</course>
  <speed>6.29</speed>
  <fix>3d</fix>
</trkpt>
<trkpt lat="-27.2234455" lon="151.4216787">
  <ele>537.79</ele>
  <time>2026-09-01T20:00:55Z</time>
  <course>198.55</course>
  <speed>6.54492169548269</speed>
  <fix>3d</fix>
</trkpt>
<trkpt lat="-27.2234398" lon="151.421676">
  <ele>537.83</ele>
  <time>2026-09-01T20:00:55Z</time>
  <course>157.3</course>
  <speed>6.54</speed>
  <fix>3d</fix>
</trkpt>
<trkpt lat="-27.2234508" lon="151.4216813">
  <ele>537.83</ele>
  <time>2026-09-01T20:00:55Z</time>
  <course>196.13</course>
  <speed>6.478641832977032</speed>
  <fix>3d</fix>
</trkpt>
<trkpt lat="-27.2234398" lon="151.421676">
  <ele>537.83</ele>
  <time>2026-09-01T20:00:55Z</time>
  <course>157.3</course>
  <speed>6.54</speed>
  <fix>3d</fix>
</trkpt>
<trkpt lat="-27.2234561" lon="151.4216841">
  <ele>537.91</ele>
  <time>2026-09-01T20:00:55Z</time>
  <course>194.33</course>
  <speed>6.4013279872226505</speed>
  <fix>3d</fix>
</trkpt>
<trkpt lat="-27.2234506" lon="151.4216813">
  <ele>537.84</ele>
  <time>2026-09-01T20:00:55Z</time>
  <course>155.35</course>
  <speed>6.47</speed>
  <fix>3d</fix>
</trkpt>
<trkpt lat="-27.2234612" lon="151.4216869">
  <ele>538.02</ele>
  <time>2026-09-01T20:00:55Z</time>
  <course>193.12</course>
  <speed>6.333782440216904</speed>
  <fix>3d</fix>
</trkpt>
<trkpt lat="-27.2234506" lon="151.4216813">
  <ele>537.84</ele>
  <time>2026-09-01T20:00:55Z</time>
  <course>155.35</course>
  <speed>6.47</speed>
  <fix>3d</fix>
</trkpt>
<trkpt lat="-27.2234664" lon="151.4216895">
  <ele>538.15</ele>
  <time>2026-09-01T20:00:55Z</time>
  <course>192.35</course>
  <speed>6.275746967493193</speed>
  <fix>3d</fix>
</trkpt>
<trkpt lat="-27.223461" lon="151.4216868">
  <ele>538.02</ele>
  <time>2026-09-01T20:00:55Z</time>
  <course>154.65</course>
  <speed>6.34</speed>
  <fix>3d</fix>
</trkpt>
<trkpt lat="-27.2234714" lon="151.4216923">
  <ele>538.31</ele>
  <time>2026-09-01T20:00:55Z</time>
  <course>191.9</course>
  <speed>6.240592920548495</speed>
  <fix>3d</fix>
</trkpt>
<trkpt lat="-27.223461" lon="151.4216868">
  <ele>538.02</ele>
  <time>2026-09-01T20:00:55Z</time>
  <course>154.65</course>
  <speed>6.34</speed>
  <fix>3d</fix>
</trkpt>
<trkpt lat="-27.2234765" lon="151.421695">
  <ele>538.49</ele>
  <time>2026-09-01T20:00:55Z</time>
  <course>191.69</course>
  <speed>6.219525705389438</speed>
  <fix>3d</fix>
</trkpt>
<trkpt lat="-27.2234712" lon="151.4216922">
  <ele>538.31</ele>
  <time>2026-09-01T20:00:55Z</time>
  <course>154.91</course>
  <speed>6.25</speed>
  <fix>3d</fix>
</trkpt>
<trkpt lat="-27.2234816" lon="151.4216975">
  <ele>538.68</ele>
  <time>2026-09-01T20:00:55Z</time>
  <course>191.64</course>
  <speed>6.198790204547981</speed>
  <fix>3d</fix>
</trkpt>
<trkpt lat="-27.2234712" lon="151.4216922">
  <ele>538.31</ele>
  <time>2026-09-01T20:00:55Z</time>
  <course>154.91</course>
  <speed>6.25</speed>
  <fix>3d</fix>
</trkpt>
<trkpt lat="-27.2234867" lon="151.4217002">
  <ele>538.88</ele>
  <time>2026-09-01T20:00:55Z</time>
  <course>191.69</course>
  <speed>6.192656941894972</speed>
  <fix>3d</fix>
</trkpt>
<trkpt lat="-27.2234814" lon="151.4216975">
  <ele>538.67</ele>
  <time>2026-09-01T20:00:55Z</time>
  <course>155.73</course>
  <speed>6.21</speed>
  <fix>3d</fix>
</trkpt>
<trkpt lat="-27.2234918" lon="151.4217027">
  <ele>539.1</ele>
  <time>2026-09-01T20:00:55Z</time>
  <course>191.8</course>
  <speed>6.1819090902406515</speed>
  <fix>3d</fix>
</trkpt>
<trkpt lat="-27.2234814" lon="151.4216975">
  <ele>538.67</ele>
  <time>2026-09-01T20:00:55Z</time>
  <course>155.73</course>
  <speed>6.21</speed>
  <fix>3d</fix>
</trkpt>
<trkpt lat="-27.2234969" lon="151.4217051">
  <ele>539.33</ele>
  <time>2026-09-01T20:00:55Z</time>
  <course>191.97</course>
  <speed>6.186153893979683</speed>
  <fix>3d</fix>
</trkpt>
<trkpt lat="-27.2234916" lon="151.4217025">
  <ele>539.09</ele>
  <time>2026-09-01T20:00:55Z</time>
  <course>156.75</course>
  <speed>6.19</speed>
  <fix>3d</fix>
</trkpt>
<trkpt lat="-27.223502" lon="151.4217075">
  <ele>539.57</ele>
  <time>2026-09-01T20:00:55Z</time>
  <course>192.16</course>
  <speed>6.1818524731669235</speed>
  <fix>3d</fix>
</trkpt>
<trkpt lat="-27.2234916" lon="151.4217025">
  <ele>539.09</ele>
  <time>2026-09-01T20:00:55Z</time>
  <course>156.75</course>
  <speed>6.19</speed>
  <fix>3d</fix>
</trkpt>
<trkpt lat="-27.2235072" lon="151.4217098">
  <ele>539.83</ele>
  <time>2026-09-01T20:00:55Z</time>
  <course>192.36</course>
  <speed>6.187503535352525</speed>
  <fix>3d</fix>
</trkpt>
<trkpt lat="-27.2235018" lon="151.4217073">
  <ele>539.57</ele>
  <time>2026-09-01T20:00:55Z</time>
  <course>157.92</course>
  <speed>6.19</speed>
  <fix>3d</fix>
</trkpt>
<trkpt lat="-27.2235124" lon="151.4217119">
  <ele>540.09</ele>
  <time>2026-09-01T20:00:55Z</time>
  <course>192.56</course>
  <speed>6.193876007799962</speed>
  <fix>3d</fix>
</trkpt>
<trkpt lat="-27.2235018" lon="151.4217073">
  <ele>539.57</ele>
  <time>2026-09-01T20:00:55Z</time>
  <course>157.92</course>
  <speed>6.19</speed>
  <fix>3d</fix>
</trkpt>
<trkpt lat="-27.2235176" lon="151.4217142">
  <ele>540.36</ele>
  <time>2026-09-01T20:00:55Z</time>
  <course>192.78</course>
  <speed>6.206915498055374</speed>
  <fix>3d</fix>
</trkpt>
<trkpt lat="-27.2235122" lon="151.4217119">
  <ele>540.08</ele>
  <time>2026-09-01T20:00:55Z</time>
  <course>159.19</course>
  <speed>6.2</speed>
  <fix>3d</fix>
</trkpt>
<trkpt lat="-27.2235229" lon="151.4217163">
  <ele>540.64</ele>
  <time>2026-09-01T20:00:55Z</time>
  <course>193.01</course>
  <speed>6.214861221298509</speed>
  <fix>3d</fix>
</trkpt>
<trkpt lat="-27.2235122" lon="151.4217119">
  <ele>540.08</ele>
  <time>2026-09-01T20:00:55Z</time>
  <course>159.19</course>
  <speed>6.2</speed>
  <fix>3d</fix>
</trkpt>
<trkpt lat="-27.2235282" lon="151.4217184">
  <ele>540.91</ele>
  <time>2026-09-01T20:00:55Z</time>
  <course>193.26</course>
  <speed>6.2202974205418835</speed>
  <fix>3d</fix>
</trkpt>
<trkpt lat="-27.2235226" lon="151.4217162">
  <ele>540.63</ele>
  <time>2026-09-01T20:00:55Z</time>
  <course>160.54</course>
  <speed>6.21</speed>
  <fix>3d</fix>
</trkpt>
<trkpt lat="-27.2235335" lon="151.4217204">
  <ele>541.2</ele>
  <time>2026-09-01T20:00:55Z</time>
  <course>193.51</course>
  <speed>6.236168695601491</speed>
  <fix>3d</fix>
</trkpt>
<trkpt lat="-27.2235226" lon="151.4217162">
  <ele>540.63</ele>
  <time>2026-09-01T20:00:55Z</time>
  <course>160.54</course>
  <speed>6.21</speed>
  <fix>3d</fix>
</trkpt>
<trkpt lat="-27.2235388" lon="151.4217223">
  <ele>541.48</ele>
  <time>2026-09-01T20:00:55Z</time>
  <course>193.78</course>
  <speed>6.2530392610313905</speed>
  <fix>3d</fix>
</trkpt>
<trkpt lat="-27.2235333" lon="151.4217203">
  <ele>541.18</ele>
  <time>2026-09-01T20:00:55Z</time>
  <course>161.92</course>
  <speed>6.24</speed>
  <fix>3d</fix>
</trkpt>
<trkpt lat="-27.2235442" lon="151.4217242">
  <ele>541.76</ele>
  <time>2026-09-01T20:00:55Z</time>
  <course>194.07</course>
  <speed>6.261317752677945</speed>
  <fix>3d</fix>
</trkpt>
<trkpt lat="-27.2235333" lon="151.4217203">
  <ele>541.18</ele>
  <time>2026-09-01T20:00:55Z</time>
  <course>161.92</course>
  <speed>6.24</speed>
  <fix>3d</fix>
</trkpt>
<trkpt lat="-27.2235496" lon="151.4217258">
  <ele>542.04</ele>
  <time>2026-09-01T20:00:55Z</time>
  <course>194.37</course>
  <speed>6.2801273872430325</speed>
  <fix>3d</fix>
</trkpt>
<trkpt lat="-27.2235441" lon="151.4217241">
  <ele>541.75</ele>
  <time>2026-09-01T20:00:55Z</time>
  <course>163.32</course>
  <speed>6.27</speed>
  <fix>3d</fix>
</trkpt>
<trkpt lat="-27.223555" lon="151.4217277">
  <ele>542.32</ele>
  <time>2026-09-01T20:00:55Z</time>
  <course>194.69</course>
  <speed>6.290262315674919</speed>
  <fix>3d</fix>
</trkpt>
<trkpt lat="-27.2235441" lon="151.4217241">
  <ele>541.75</ele>
  <time>2026-09-01T20:00:55Z</time>
  <course>163.32</course>
  <speed>6.27</speed>
  <fix>3d</fix>
</trkpt>
<trkpt lat="-27.2235607" lon="151.4217292">
  <ele>542.61</ele>
  <time>2026-09-01T20:00:55Z</time>
  <course>195.04</course>
  <speed>6.301301452874636</speed>
  <fix>3d</fix>
</trkpt>
<trkpt lat="-27.2235549" lon="151.4217276">
  <ele>542.31</ele>
  <time>2026-09-01T20:00:55Z</time>
  <course>164.72</course>
  <speed>6.29</speed>
  <fix>3d</fix>
</trkpt>
<trkpt lat="-27.2235662" lon="151.4217309">
  <ele>542.88</ele>
  <time>2026-09-01T20:00:55Z</time>
  <course>195.39</course>
  <speed>6.310855726444711</speed>
  <fix>3d</fix>
</trkpt>
<trkpt lat="-27.2235549" lon="151.4217276">
  <ele>542.31</ele>
  <time>2026-09-01T20:00:55Z</time>
  <course>164.72</course>
  <speed>6.29</speed>
  <fix>3d</fix>
</trkpt>
<trkpt lat="-27.2235717" lon="151.4217324">
  <ele>543.15</ele>
  <time>2026-09-01T20:00:55Z</time>
  <course>195.75</course>
  <speed>6.311806397537871</speed>
  <fix>3d</fix>
</trkpt>
<trkpt lat="-27.2235658" lon="151.4217307">
  <ele>542.86</ele>
  <time>2026-09-01T20:00:55Z</time>
  <course>166.15</course>
  <speed>6.31</speed>
  <fix>3d</fix>
</trkpt>
<trkpt lat="-27.2235772" lon="151.4217338">
  <ele>543.41</ele>
  <time>2026-09-01T20:00:55Z</time>
  <course>196.13</course>
  <speed>6.306195366463047</speed>
  <fix>3d</fix>
</trkpt>
<trkpt lat="-27.2235658" lon="151.4217307">
  <ele>542.86</ele>
  <time>2026-09-01T20:00:55Z</time>
  <course>166.15</course>
  <speed>6.31</speed>
  <fix>3d</fix>
</trkpt>
<trkpt lat="-27.2235828" lon="151.4217351">
  <ele>543.68</ele>
  <time>2026-09-01T20:00:55Z</time>
  <course>196.54</course>
  <speed>6.289554833213556</speed>
  <fix>3d</fix>
</trkpt>
<trkpt lat="-27.2235769" lon="151.4217336">
  <ele>543.39</ele>
  <time>2026-09-01T20:00:55Z</time>
  <course>167.57</course>
  <speed>6.3</speed>
  <fix>3d</fix>
</trkpt>
<trkpt lat="-27.2235883" lon="151.4217363">
  <ele>543.94</ele>
  <time>2026-09-01T20:00:55Z</time>
  <course>196.97</course>
  <speed>6.265979572261626</speed>
  <fix>3d</fix>
</trkpt>
<trkpt lat="-27.2235769" lon="151.4217336">
  <ele>543.39</ele>
  <time>2026-09-01T20:00:55Z</time>
  <course>167.57</course>
  <speed>6.3</speed>
  <fix>3d</fix>
</trkpt>
<trkpt lat="-27.2235937" lon="151.4217375">
  <ele>544.19</ele>
  <time>2026-09-01T20:00:55Z</time>
  <course>197.42</course>
  <speed>6.233281639714348</speed>
  <fix>3d</fix>
</trkpt>
<trkpt lat="-27.223588" lon="151.4217362">
  <ele>543.92</ele>
  <time>2026-09-01T20:00:55Z</time>
  <course>168.87</course>
  <speed>6.26</speed>
  <fix>3d</fix>
</trkpt>
<trkpt lat="-27.2235992" lon="151.4217386">
  <ele>544.44</ele>
  <time>2026-09-01T20:00:55Z</time>
  <course>197.92</course>
  <speed>6.181561291453802</speed>
  <fix>3d</fix>
</trkpt>
<trkpt lat="-27.223588" lon="151.4217362">
  <ele>543.92</ele>
  <time>2026-09-01T20:00:55Z</time>
  <course>168.87</course>
  <speed>6.26</speed>
  <fix>3d</fix>
</trkpt>
<trkpt lat="-27.2236046" lon="151.4217397">
  <ele>544.7</ele>
  <time>2026-09-01T20:00:55Z</time>
  <course>198.43</course>
  <speed>6.122221818915091</speed>
  <fix>3d</fix>
</trkpt>
<trkpt lat="-27.223599" lon="151.4217385">
  <ele>544.43</ele>
  <time>2026-09-01T20:00:55Z</time>
  <course>170.01</course>
  <speed>6.18</speed>
  <fix>3d</fix>
</trkpt>
<trkpt lat="-27.22361" lon="151.4217406">
  <ele>544.95</ele>
  <time>2026-09-01T20:00:55Z</time>
  <course>198.96</course>
  <speed>6.043550281084787</speed>
  <fix>3d</fix>
</trkpt>
<trkpt lat="-27.223599" lon="151.4217385">
  <ele>544.43</ele>
  <time>2026-09-01T20:00:55Z</time>
  <course>170.01</course>
  <speed>6.18</speed>
  <fix>3d</fix>
</trkpt>
<trkpt lat="-27.2236154" lon="151.4217416">
  <ele>545.21</ele>
  <time>2026-09-01T20:00:55Z</time>
  <course>199.52</course>
  <speed>5.953906280753838</speed>
  <fix>3d</fix>
</trkpt>
<trkpt lat="-27.2236098" lon="151.4217405">
  <ele>544.94</ele>
  <time>2026-09-01T20:00:55Z</time>
  <course>171.02</course>
  <speed>6.04</speed>
  <fix>3d</fix>
</trkpt>
<trkpt lat="-27.2236206" lon="151.4217424">
  <ele>545.46</ele>
  <time>2026-09-01T20:00:55Z</time>
  <course>200.08</course>
  <speed>5.8576787211317765</speed>
  <fix>3d</fix>
</trkpt>
<trkpt lat="-27.2236098" lon="151.4217405">
  <ele>544.94</ele>
  <time>2026-09-01T20:00:55Z</time>
  <course>171.02</course>
  <speed>6.04</speed>
  <fix>3d</fix>
</trkpt>
<trkpt lat="-27.2236258" lon="151.4217431">
  <ele>545.72</ele>
  <time>2026-09-01T20:00:55Z</time>
  <course>200.66</course>
  <speed>5.74053133429302</speed>
  <fix>3d</fix>
</trkpt>
<trkpt lat="-27.2236204" lon="151.4217423">
  <ele>545.45</ele>
  <time>2026-09-01T20:00:55Z</time>
  <course>171.91</course>
  <speed>5.85</speed>
  <fix>3d</fix>
</trkpt>
<trkpt lat="-27.2236308" lon="151.421744">
  <ele>545.98</ele>
  <time>2026-09-01T20:00:55Z</time>
  <course>201.24</course>
  <speed>5.603891505016849</speed>
  <fix>3d</fix>
</trkpt>
<trkpt lat="-27.2236204" lon="151.4217423">
  <ele>545.45</ele>
  <time>2026-09-01T20:00:55Z</time>
  <course>171.91</course>
  <speed>5.85</speed>
  <fix>3d</fix>
</trkpt>
<trkpt lat="-27.2236358" lon="151.4217447">
  <ele>546.24</ele>
  <time>2026-09-01T20:00:55Z</time>
  <course>201.84</course>
  <speed>5.458836872448196</speed>
  <fix>3d</fix>
</trkpt>
<trkpt lat="-27.2236306" lon="151.4217438">
  <ele>545.97</ele>
  <time>2026-09-01T20:00:55Z</time>
  <course>172.7</course>
  <speed>5.6</speed>
  <fix>3d</fix>
</trkpt>
<trkpt lat="-27.2236406" lon="151.4217453">
  <ele>546.5</ele>
  <time>2026-09-01T20:00:55Z</time>
  <course>202.45</course>
  <speed>5.294109934634905</speed>
  <fix>3d</fix>
</trkpt>
<trkpt lat="-27.2236306" lon="151.4217438">
  <ele>545.97</ele>
  <time>2026-09-01T20:00:55Z</time>
  <course>172.7</course>
  <speed>5.6</speed>
  <fix>3d</fix>
</trkpt>
<trkpt lat="-27.2236452" lon="151.4217459">
  <ele>546.77</ele>
  <time>2026-09-01T20:00:55Z</time>
  <course>203.08</course>
  <speed>5.120712841001729</speed>
  <fix>3d</fix>
</trkpt>
<trkpt lat="-27.2236403" lon="151.4217452">
  <ele>546.49</ele>
  <time>2026-09-01T20:00:55Z</time>
  <course>173.39</course>
  <speed>5.29</speed>
  <fix>3d</fix>
</trkpt>
<trkpt lat="-27.2236497" lon="151.4217464">
  <ele>547.03</ele>
  <time>2026-09-01T20:00:55Z</time>
  <course>203.74</course>
  <speed>4.916523161747537</speed>
  <fix>3d</fix>
</trkpt>
<trkpt lat="-27.2236403" lon="151.4217452">
  <ele>546.49</ele>
  <time>2026-09-01T20:00:55Z</time>
  <course>173.39</course>
  <speed>5.29</speed>
  <fix>3d</fix>
</trkpt>
<trkpt lat="-27.223654" lon="151.4217468">
  <ele>547.29</ele>
  <time>2026-09-01T20:00:55Z</time>
  <course>204.44</course>
  <speed>4.682648823048766</speed>
  <fix>3d</fix>
</trkpt>
<trkpt lat="-27.2236495" lon="151.4217464">
  <ele>547.02</ele>
  <time>2026-09-01T20:00:55Z</time>
  <course>173.97</course>
  <speed>4.91</speed>
  <fix>3d</fix>
</trkpt>
<trkpt lat="-27.2236581" lon="151.4217473">
  <ele>547.56</ele>
  <time>2026-09-01T20:00:55Z</time>
  <course>205.16</course>
  <speed>4.429954853043087</speed>
  <fix>3d</fix>
</trkpt>
<trkpt lat="-27.2236495" lon="151.4217464">
  <ele>547.02</ele>
  <time>2026-09-01T20:00:55Z</time>
  <course>173.97</course>
  <speed>4.91</speed>
  <fix>3d</fix>
</trkpt>
<trkpt lat="-27.2236619" lon="151.4217478">
  <ele>547.82</ele>
  <time>2026-09-01T20:00:55Z</time>
  <course>205.93</course>
  <speed>4.146540726919247</speed>
  <fix>3d</fix>
</trkpt>
<trkpt lat="-27.2236578" lon="151.4217473">
  <ele>547.55</ele>
  <time>2026-09-01T20:00:55Z</time>
  <course>174.54</course>
  <speed>4.42</speed>
  <fix>3d</fix>
</trkpt>
<trkpt lat="-27.2236656" lon="151.4217481">
  <ele>548.1</ele>
  <time>2026-09-01T20:00:55Z</time>
  <course>206.75</course>
  <speed>3.8325578925829675</speed>
  <fix>3d</fix>
</trkpt>
<trkpt lat="-27.2236578" lon="151.4217473">
  <ele>547.55</ele>
  <time>2026-09-01T20:00:55Z</time>
  <course>174.54</course>
  <speed>4.42</speed>
  <fix>3d</fix>
</trkpt>
<trkpt lat="-27.2236689" lon="151.4217483">
  <ele>548.36</ele>
  <time>2026-09-01T20:00:55Z</time>
  <course>207.53</course>
  <speed>3.5096438565757637</speed>
  <fix>3d</fix>
</trkpt>
<trkpt lat="-27.2236652" lon="151.4217481">
  <ele>548.08</ele>
  <time>2026-09-01T20:00:55Z</time>
  <course>175.25</course>
  <speed>3.85</speed>
  <fix>3d</fix>
</trkpt>
<trkpt lat="-27.2236719" lon="151.4217487">
  <ele>548.62</ele>
  <time>2026-09-01T20:00:55Z</time>
  <course>208.27</course>
  <speed>3.1763028822831116</speed>
  <fix>3d</fix>
</trkpt>
<trkpt lat="-27.2236652" lon="151.4217481">
  <ele>548.08</ele>
  <time>2026-09-01T20:00:55Z</time>
  <course>175.25</course>
  <speed>3.85</speed>
  <fix>3d</fix>
</trkpt>
<trkpt lat="-27.2236746" lon="151.4217488">
  <ele>548.88</ele>
  <time>2026-09-01T20:00:55Z</time>
  <course>208.97</course>
  <speed>2.8339724769305716</speed>
  <fix>3d</fix>
</trkpt>
<trkpt lat="-27.2236715" lon="151.4217486">
  <ele>548.6</ele>
  <time>2026-09-01T20:00:55Z</time>
  <course>176.21</course>
  <speed>3.2</speed>
  <fix>3d</fix>
</trkpt>
<trkpt lat="-27.223677" lon="151.421749">
  <ele>549.14</ele>
  <time>2026-09-01T20:00:55Z</time>
  <course>209.6</course>
  <speed>2.5019992006393608</speed>
  <fix>3d</fix>
</trkpt>
<trkpt lat="-27.2236715" lon="151.4217486">
  <ele>548.6</ele>
  <time>2026-09-01T20:00:55Z</time>
  <course>176.21</course>
  <speed>3.2</speed>
  <fix>3d</fix>
</trkpt>
<trkpt lat="-27.2236791" lon="151.4217491">
  <ele>549.4</ele>
  <time>2026-09-01T20:00:55Z</time>
  <course>210.19</course>
  <speed>2.1605786262017865</speed>
  <fix>3d</fix>
</trkpt>
<trkpt lat="-27.2236767" lon="151.4217489">
  <ele>549.12</ele>
  <time>2026-09-01T20:00:55Z</time>
  <course>177.52</course>
  <speed>2.52</speed>
  <fix>3d</fix>
</trkpt>
<trkpt lat="-27.2236809" lon="151.4217491">
  <ele>549.65</ele>
  <time>2026-09-01T20:00:55Z</time>
  <course>210.72</course>
  <speed>1.8400271737123886</speed>
  <fix>3d</fix>
</trkpt>
<trkpt lat="-27.2236767" lon="151.4217489">
  <ele>549.12</ele>
  <time>2026-09-01T20:00:55Z</time>
  <course>177.52</course>
  <speed>2.52</speed>
  <fix>3d</fix>
</trkpt>
<trkpt lat="-27.2236824" lon="151.4217491">
  <ele>549.9</ele>
  <time>2026-09-01T20:00:55Z</time>
  <course>211.21</course>
  <speed>1.5201315732527891</speed>
  <fix>3d</fix>
</trkpt>
<trkpt lat="-27.2236806" lon="151.4217491">
  <ele>549.63</ele>
  <time>2026-09-01T20:00:55Z</time>
  <course>179.45</course>
  <speed>1.86</speed>
  <fix>3d</fix>
</trkpt>
<trkpt lat="-27.2236838" lon="151.4217491">
  <ele>550.11</ele>
  <time>2026-09-01T20:00:55Z</time>
  <course>211.55</course>
  <speed>1.5108275877809487</speed>
  <fix>3d</fix>
</trkpt>
<trkpt lat="-27.2236806" lon="151.4217491">
  <ele>549.63</ele>
  <time>2026-09-01T20:00:55Z</time>
  <course>179.45</course>
  <speed>1.86</speed>
  <fix>3d</fix>
</trkpt>
<trkpt lat="-27.2236851" lon="151.4217491">
  <ele>550.22</ele>
  <time>2026-09-01T20:00:55Z</time>
  <course>211.69</course>
  <speed>1.5211837495845133</speed>
  <fix>3d</fix>
</trkpt>
<trkpt lat="-27.2236836" lon="151.4217491">
  <ele>550.05</ele>
  <time>2026-09-01T20:00:55Z</time>
  <course>181.59</course>
  <speed>1.53</speed>
  <fix>3d</fix>
</trkpt>
<trkpt lat="-27.2236865" lon="151.421749">
  <ele>550.23</ele>
  <time>2026-09-01T20:00:55Z</time>
  <course>211.7</course>
  <speed>1.5111915828246265</speed>
  <fix>3d</fix>
</trkpt>
<trkpt lat="-27.2236836" lon="151.4217491">
  <ele>550.05</ele>
  <time>2026-09-01T20:00:55Z</time>
  <course>181.59</course>
  <speed>1.53</speed>
  <fix>3d</fix>
</trkpt>
<trkpt lat="-27.2236878" lon="151.421749">
  <ele>550.14</ele>
  <time>2026-09-01T20:00:55Z</time>
  <course>211.58</course>
  <speed>1.481215716902842</speed>
  <fix>3d</fix>
</trkpt>
<trkpt lat="-27.2236864" lon="151.421749">
  <ele>550.18</ele>
  <time>2026-09-01T20:00:55Z</time>
  <course>182.44</course>
  <speed>1.5</speed>
  <fix>3d</fix>
</trkpt>
<trkpt lat="-27.2236892" lon="151.4217488">
  <ele>549.96</ele>
  <time>2026-09-01T20:00:55Z</time>
  <course>211.25</course>
  <speed>1.431258187749506</speed>
  <fix>3d</fix>
</trkpt>
<trkpt lat="-27.2236864" lon="151.421749">
  <ele>550.18</ele>
  <time>2026-09-01T20:00:55Z</time>
  <course>182.44</course>
  <speed>1.5</speed>
  <fix>3d</fix>
</trkpt>
<trkpt lat="-27.2236904" lon="151.4217488">
  <ele>549.71</ele>
  <time>2026-09-01T20:00:55Z</time>
  <course>210.61</course>
  <speed>1.3418271125595878</speed>
  <fix>3d</fix>
</trkpt>
<trkpt lat="-27.223689" lon="151.4217489">
  <ele>549.93</ele>
  <time>2026-09-01T20:00:55Z</time>
  <course>182.91</course>
  <speed>1.42</speed>
  <fix>3d</fix>
</trkpt>
<trkpt lat="-27.2236915" lon="151.4217487">
  <ele>549.38</ele>
  <time>2026-09-01T20:00:55Z</time>
  <course>209.67</course>
  <speed>1.2425779653607254</speed>
  <fix>3d</fix>
</trkpt>
<trkpt lat="-27.223689" lon="151.4217489">
  <ele>549.93</ele>
  <time>2026-09-01T20:00:55Z</time>
  <course>182.91</course>
  <speed>1.42</speed>
  <fix>3d</fix>
</trkpt>
<trkpt lat="-27.2236926" lon="151.4217486">
  <ele>548.99</ele>
  <time>2026-09-01T20:00:55Z</time>
  <course>208.75</course>
  <speed>1.1535163631262453</speed>
  <fix>3d</fix>
</trkpt>
<trkpt lat="-27.2236914" lon="151.4217487">
  <ele>549.36</ele>
  <time>2026-09-01T20:00:55Z</time>
  <course>183.84</course>
  <speed>1.25</speed>
  <fix>3d</fix>
</trkpt>
<trkpt lat="-27.2236936" lon="151.4217485">
  <ele>548.55</ele>
  <time>2026-09-01T20:00:55Z</time>
  <course>208.04</course>
  <speed>1.0746627377926528</speed>
  <fix>3d</fix>
</trkpt>
<trkpt lat="-27.2236914" lon="151.4217487">
  <ele>549.36</ele>
  <time>2026-09-01T20:00:55Z</time>
  <course>183.84</course>
  <speed>1.25</speed>
  <fix>3d</fix>
</trkpt>
<trkpt lat="-27.2236946" lon="151.4217483">
  <ele>548.07</ele>
  <time>2026-09-01T20:00:55Z</time>
  <course>207.56</course>
  <speed>1.0282509421342632</speed>
  <fix>3d</fix>
</trkpt>
<trkpt lat="-27.2236935" lon="151.4217485">
  <ele>548.54</ele>
  <time>2026-09-01T20:00:55Z</time>
  <course>185.93</course>
  <speed>1.09</speed>
  <fix>3d</fix>
</trkpt>
<trkpt lat="-27.2236955" lon="151.4217483">
  <ele>547.55</ele>
  <time>2026-09-01T20:00:55Z</time>
  <course>207.28</course>
  <speed>1.0259142264341596</speed>
  <fix>3d</fix>
</trkpt>
<trkpt lat="-27.2236935" lon="151.4217485">
  <ele>548.54</ele>
  <time>2026-09-01T20:00:55Z</time>
  <course>185.93</course>
  <speed>1.09</speed>
  <fix>3d</fix>
</trkpt>
<trkpt lat="-27.2236964" lon="151.4217481">
  <ele>546.97</ele>
  <time>2026-09-01T20:00:55Z</time>
  <course>207.18</course>
  <speed>1.0770793842609745</speed>
  <fix>3d</fix>
</trkpt>
<trkpt lat="-27.2236954" lon="151.4217482">
  <ele>547.53</ele>
  <time>2026-09-01T20:00:55Z</time>
  <course>190.25</course>
  <speed>1.05</speed>
  <fix>3d</fix>
</trkpt>
<trkpt lat="-27.2236974" lon="151.4217478">
  <ele>546.34</ele>
  <time>2026-09-01T20:00:55Z</time>
  <course>207.28</course>
  <speed>1.1594826432508596</speed>
  <fix>3d</fix>
</trkpt>
<trkpt lat="-27.2236954" lon="151.4217482">
  <ele>547.53</ele>
  <time>2026-09-01T20:00:55Z</time>
  <course>190.25</course>
  <speed>1.05</speed>
  <fix>3d</fix>
</trkpt>
<trkpt lat="-27.2236985" lon="151.4217473">
  <ele>545.63</ele>
  <time>2026-09-01T20:00:55Z</time>
  <course>207.63</course>
  <speed>1.2720062892926276</speed>
  <fix>3d</fix>
</trkpt>
<trkpt lat="-27.2236974" lon="151.4217478">
  <ele>546.32</ele>
  <time>2026-09-01T20:00:55Z</time>
  <course>194.84</course>
  <speed>1.17</speed>
  <fix>3d</fix>
</trkpt>
<trkpt lat="-27.2236999" lon="151.4217468">
  <ele>544.87</ele>
  <time>2026-09-01T20:00:55Z</time>
  <course>208.13</course>
  <speed>2.0872230355187247</speed>
  <fix>3d</fix>
</trkpt>
<trkpt lat="-27.2236974" lon="151.4217478">
  <ele>546.32</ele>
  <time>2026-09-01T20:00:55Z</time>
  <course>194.84</course>
  <speed>1.17</speed>
  <fix>3d</fix>
</trkpt>
<trkpt lat="-27.2237019" lon="151.4217459">
  <ele>544.04</ele>
  <time>2026-09-01T20:00:55Z</time>
  <course>208.74</course>
  <speed>2.576237566685185</speed>
  <fix>3d</fix>
</trkpt>
<trkpt lat="-27.2237" lon="151.4217467">
  <ele>544.88</ele>
  <time>2026-09-01T20:00:55Z</time>
  <course>200.94</course>
  <speed>1.91</speed>
  <fix>3d</fix>
</trkpt>
<trkpt lat="-27.223704" lon="151.4217449">
  <ele>543.13</ele>
  <time>2026-09-01T20:00:55Z</time>
  <course>209.35</course>
  <speed>2.6379727064547125</speed>
  <fix>3d</fix>
</trkpt>
<trkpt lat="-27.2237" lon="151.4217467">
  <ele>544.88</ele>
  <time>2026-09-01T20:00:55Z</time>
  <course>200.94</course>
  <speed>1.91</speed>
  <fix>3d</fix>
</trkpt>
<trkpt lat="-27.2237061" lon="151.4217439">
  <ele>542.13</ele>
  <time>2026-09-01T20:00:55Z</time>
  <course>209.6</course>
  <speed>2.4423349483639627</speed>
  <fix>3d</fix>
</trkpt>
<trkpt lat="-27.2237038" lon="151.4217449">
  <ele>543.14</ele>
  <time>2026-09-01T20:00:55Z</time>
  <course>203.11</course>
  <speed>2.51</speed>
  <fix>3d</fix>
</trkpt>
<trkpt lat="-27.2237081" lon="151.4217429">
  <ele>541.03</ele>
  <time>2026-09-01T20:00:55Z</time>
  <course>209.73</course>
  <speed>2.3031283073246267</speed>
  <fix>3d</fix>
</trkpt>
<trkpt lat="-27.2237038" lon="151.4217449">
  <ele>543.14</ele>
  <time>2026-09-01T20:00:55Z</time>
  <course>203.11</course>
  <speed>2.51</speed>
  <fix>3d</fix>
</trkpt>
<trkpt lat="-27.22371" lon="151.421742">
  <ele>539.84</ele>
  <time>2026-09-01T20:00:55Z</time>
  <course>210.1</course>
  <speed>2.5242028444639706</speed>
  <fix>3d</fix>
</trkpt>
<trkpt lat="-27.2237079" lon="151.4217429">
  <ele>541.05</ele>
  <time>2026-09-01T20:00:55Z</time>
  <course>203.71</course>
  <speed>2.48</speed>
  <fix>3d</fix>
</trkpt>
<trkpt lat="-27.2237123" lon="151.4217406">
  <ele>538.57</ele>
  <time>2026-09-01T20:00:55Z</time>
  <course>210.25</course>
  <speed>3.2334656330321496</speed>
  <fix>3d</fix>
</trkpt>
<trkpt lat="-27.2237079" lon="151.4217429">
  <ele>541.05</ele>
  <time>2026-09-01T20:00:55Z</time>
  <course>203.71</course>
  <speed>2.48</speed>
  <fix>3d</fix>
</trkpt>
<trkpt lat="-27.2237153" lon="151.4217388">
  <ele>537.24</ele>
  <time>2026-09-01T20:00:55Z</time>
  <course>210.11</course>
  <speed>4.373705522780426</speed>
  <fix>3d</fix>
</trkpt>
<trkpt lat="-27.2237125" lon="151.4217405">
  <ele>538.61</ele>
  <time>2026-09-01T20:00:55Z</time>
  <course>207.32</course>
  <speed>3.4</speed>
  <fix>3d</fix>
</trkpt>
<trkpt lat="-27.2237193" lon="151.4217363">
  <ele>535.88</ele>
  <time>2026-09-01T20:00:55Z</time>
  <course>209.84</course>
  <speed>5.731893229989547</speed>
  <fix>3d</fix>
</trkpt>
<trkpt lat="-27.2237125" lon="151.4217405">
  <ele>538.61</ele>
  <time>2026-09-01T20:00:55Z</time>
  <course>207.32</course>
  <speed>3.4</speed>
  <fix>3d</fix>
</trkpt>
<trkpt lat="-27.2237243" lon="151.421733">
  <ele>534.5</ele>
  <time>2026-09-01T20:00:55Z</time>
  <course>209.62</course>
  <speed>7.093264410692724</speed>
  <fix>3d</fix>
</trkpt>
<trkpt lat="-27.2237195" lon="151.4217361">
  <ele>535.95</ele>
  <time>2026-09-01T20:00:55Z</time>
  <course>210.09</course>
  <speed>5.66</speed>
  <fix>3d</fix>
</trkpt>
<trkpt lat="-27.2237302" lon="151.4217291">
  <ele>533.11</ele>
  <time>2026-09-01T20:00:55Z</time>
  <course>209.56</course>
  <speed>8.376061126806562</speed>
  <fix>3d</fix>
</trkpt>
<trkpt lat="-27.2237195" lon="151.4217361">
  <ele>535.95</ele>
  <time>2026-09-01T20:00:55Z</time>
  <course>210.09</course>
  <speed>5.66</speed>
  <fix>3d</fix>
</trkpt>
<trkpt lat="-27.2237372" lon="151.4217243">
  <ele>531.73</ele>
  <time>2026-09-01T20:00:55Z</time>
  <course>209.64</course>
  <speed>9.588769472669577</speed>
  <fix>3d</fix>
</trkpt>
<trkpt lat="-27.2237303" lon="151.421729">
  <ele>533.19</ele>
  <time>2026-09-01T20:00:55Z</time>
  <course>210.6</course>
  <speed>8.27</speed>
  <fix>3d</fix>
</trkpt>
<trkpt lat="-27.2237451" lon="151.4217191">
  <ele>530.36</ele>
  <time>2026-09-01T20:00:55Z</time>
  <course>209.8</course>
  <speed>10.80875571007135</speed>
  <fix>3d</fix>
</trkpt>
<trkpt lat="-27.2237303" lon="151.421729">
  <ele>533.19</ele>
  <time>2026-09-01T20:00:55Z</time>
  <course>210.6</course>
  <speed>8.27</speed>
  <fix>3d</fix>
</trkpt>
<trkpt lat="-27.223754" lon="151.4217133">
  <ele>529.03</ele>
  <time>2026-09-01T20:00:55Z</time>
  <course>209.97</course>
  <speed>12.042645058291804</speed>
  <fix>3d</fix>
</trkpt>
<trkpt lat="-27.2237451" lon="151.4217192">
  <ele>530.45</ele>
  <time>2026-09-01T20:00:55Z</time>
  <course>210.24</course>
  <speed>10.75</speed>
  <fix>3d</fix>
</trkpt>
<trkpt lat="-27.2237638" lon="151.421707">
  <ele>527.75</ele>
  <time>2026-09-01T20:00:55Z</time>
  <course>210.13</course>
  <speed>13.259336333316234</speed>
  <fix>3d</fix>
</trkpt>
<trkpt lat="-27.2237451" lon="151.4217192">
  <ele>530.45</ele>
  <time>2026-09-01T20:00:55Z</time>
  <course>210.24</course>
  <speed>10.75</speed>
  <fix>3d</fix>
</trkpt>
<trkpt lat="-27.2237746" lon="151.4217">
  <ele>526.53</ele>
  <time>2026-09-01T20:00:55Z</time>
  <course>210.26</course>
  <speed>14.424025097038621</speed>
  <fix>3d</fix>
</trkpt>
<trkpt lat="-27.2237637" lon="151.4217071">
  <ele>527.85</ele>
  <time>2026-09-01T20:00:55Z</time>
  <course>209.93</course>
  <speed>13.17</speed>
  <fix>3d</fix>
</trkpt>
<trkpt lat="-27.2237863" lon="151.4216925">
  <ele>525.41</ele>
  <time>2026-09-01T20:00:55Z</time>
  <course>210.38</course>
  <speed>15.478404310522452</speed>
  <fix>3d</fix>
</trkpt>
<trkpt lat="-27.2237637" lon="151.4217071">
  <ele>527.85</ele>
  <time>2026-09-01T20:00:55Z</time>
  <course>209.93</course>
  <speed>13.17</speed>
  <fix>3d</fix>
</trkpt>
<trkpt lat="-27.2237987" lon="151.4216844">
  <ele>524.38</ele>
  <time>2026-09-01T20:00:55Z</time>
  <course>210.48</course>
  <speed>16.422621593399757</speed>
  <fix>3d</fix>
</trkpt>
<trkpt lat="-27.2237861" lon="151.4216926">
  <ele>525.51</ele>
  <time>2026-09-01T20:00:55Z</time>
  <course>210.01</course>
  <speed>15.37</speed>
  <fix>3d</fix>
</trkpt>
<trkpt lat="-27.2238114" lon="151.421676">
  <ele>523.49</ele>
  <time>2026-09-01T20:00:55Z</time>
  <course>210.58</course>
  <speed>17.207257189918444</speed>
  <fix>3d</fix>
</trkpt>
<trkpt lat="-27.2237861" lon="151.4216926">
  <ele>525.51</ele>
  <time>2026-09-01T20:00:55Z</time>
  <course>210.01</course>
  <speed>15.37</speed>
  <fix>3d</fix>
</trkpt>
<trkpt lat="-27.223825" lon="151.421667">
  <ele>522.7</ele>
  <time>2026-09-01T20:00:55Z</time>
  <course>210.69</course>
  <speed>17.86188399917545</speed>
  <fix>3d</fix>
</trkpt>
<trkpt lat="-27.2238114" lon="151.4216761">
  <ele>523.57</ele>
  <time>2026-09-01T20:00:55Z</time>
  <course>210.4</course>
  <speed>17.12</speed>
  <fix>3d</fix>
</trkpt>
<trkpt lat="-27.2238395" lon="151.4216573">
  <ele>522.01</ele>
  <time>2026-09-01T20:00:55Z</time>
  <course>210.79</course>
  <speed>18.377834475258503</speed>
  <fix>3d</fix>
</trkpt>
<trkpt lat="-27.2238114" lon="151.4216761">
  <ele>523.57</ele>
  <time>2026-09-01T20:00:55Z</time>
  <course>210.4</course>
  <speed>17.12</speed>
  <fix>3d</fix>
</trkpt>
<trkpt lat="-27.2238537" lon="151.4216478">
  <ele>521.48</ele>
  <time>2026-09-01T20:00:55Z</time>
  <course>210.88</course>
  <speed>18.70020855498676</speed>
  <fix>3d</fix>
</trkpt>
<trkpt lat="-27.2238388" lon="151.4216578">
  <ele>522.11</ele>
  <time>2026-09-01T20:00:55Z</time>
  <course>210.82</course>
  <speed>18.27</speed>
  <fix>3d</fix>
</trkpt>
<trkpt lat="-27.2238683" lon="151.421638">
  <ele>521.07</ele>
  <time>2026-09-01T20:00:55Z</time>
  <course>210.94</course>
  <speed>18.846020800158318</speed>
  <fix>3d</fix>
</trkpt>
<trkpt lat="-27.2238388" lon="151.4216578">
  <ele>522.11</ele>
  <time>2026-09-01T20:00:55Z</time>
  <course>210.82</course>
  <speed>18.27</speed>
  <fix>3d</fix>
</trkpt>
<trkpt lat="-27.2238828" lon="151.4216281">
  <ele>520.76</ele>
  <time>2026-09-01T20:00:55Z</time>
  <course>210.99</course>
  <speed>18.864914524057617</speed>
  <fix>3d</fix>
</trkpt>
<trkpt lat="-27.2238674" lon="151.4216384">
  <ele>521.14</ele>
  <time>2026-09-01T20:00:55Z</time>
  <course>211.06</course>
  <speed>18.78</speed>
  <fix>3d</fix>
</trkpt>
<trkpt lat="-27.2238973" lon="151.4216183">
  <ele>520.52</ele>
  <time>2026-09-01T20:00:55Z</time>
  <course>211.04</course>
  <speed>18.80660522263388</speed>
  <fix>3d</fix>
</trkpt>
<trkpt lat="-27.2238674" lon="151.4216384">
  <ele>521.14</ele>
  <time>2026-09-01T20:00:55Z</time>
  <course>211.06</course>
  <speed>18.78</speed>
  <fix>3d</fix>
</trkpt>
<trkpt lat="-27.2239117" lon="151.4216085">
  <ele>520.31</ele>
  <time>2026-09-01T20:00:55Z</time>
  <course>211.09</course>
  <speed>18.712276718774763</speed>
  <fix>3d</fix>
</trkpt>
<trkpt lat="-27.2238963" lon="151.4216189">
  <ele>520.55</ele>
  <time>2026-09-01T20:00:55Z</time>
  <course>211.12</course>
  <speed>18.8</speed>
  <fix>3d</fix>
</trkpt>
<trkpt lat="-27.223926" lon="151.4215987">
  <ele>520.12</ele>
  <time>2026-09-01T20:00:55Z</time>
  <course>211.13</course>
  <speed>18.604219951398125</speed>
  <fix>3d</fix>
</trkpt>
<trkpt lat="-27.2238963" lon="151.4216189">
  <ele>520.55</ele>
  <time>2026-09-01T20:00:55Z</time>
  <course>211.12</course>
  <speed>18.8</speed>
  <fix>3d</fix>
</trkpt>
<trkpt lat="-27.2239403" lon="151.4215891">
  <ele>519.94</ele>
  <time>2026-09-01T20:00:55Z</time>
  <course>211.16</course>
  <speed>18.487601250567906</speed>
  <fix>3d</fix>
</trkpt>
<trkpt lat="-27.2239251" lon="151.4215993">
  <ele>520.13</ele>
  <time>2026-09-01T20:00:55Z</time>
  <course>211.11</course>
  <speed>18.61</speed>
  <fix>3d</fix>
</trkpt>
<trkpt lat="-27.2239545" lon="151.4215793">
  <ele>519.76</ele>
  <time>2026-09-01T20:00:55Z</time>
  <course>211.18</course>
  <speed>18.370982554017083</speed>
  <fix>3d</fix>
</trkpt>
<trkpt lat="-27.2239251" lon="151.4215993">
  <ele>520.13</ele>
  <time>2026-09-01T20:00:55Z</time>
  <course>211.11</course>
  <speed>18.61</speed>
  <fix>3d</fix>
</trkpt>
<trkpt lat="-27.2239686" lon="151.4215698">
  <ele>519.59</ele>
  <time>2026-09-01T20:00:55Z</time>
  <course>211.19</course>
  <speed>18.259531757413715</speed>
  <fix>3d</fix>
</trkpt>
<trkpt lat="-27.2239536" lon="151.42158">
  <ele>519.77</ele>
  <time>2026-09-01T20:00:55Z</time>
  <course>211.11</course>
  <speed>18.38</speed>
  <fix>3d</fix>
</trkpt>
<trkpt lat="-27.2239825" lon="151.4215604">
  <ele>519.41</ele>
  <time>2026-09-01T20:00:55Z</time>
  <course>211.19</course>
  <speed>18.13435413793389</speed>
  <fix>3d</fix>
</trkpt>
<trkpt lat="-27.2239536" lon="151.42158">
  <ele>519.77</ele>
  <time>2026-09-01T20:00:55Z</time>
  <course>211.11</course>
  <speed>18.38</speed>
  <fix>3d</fix>
</trkpt>
<trkpt lat="-27.2239964" lon="151.4215509">
  <ele>519.25</ele>
  <time>2026-09-01T20:00:55Z</time>
  <course>211.18</course>
  <speed>18.022910419796244</speed>
  <fix>3d</fix>
</trkpt>
<trkpt lat="-27.2239816" lon="151.4215609">
  <ele>519.43</ele>
  <time>2026-09-01T20:00:55Z</time>
  <course>211.15</course>
  <speed>18.15</speed>
  <fix>3d</fix>
</trkpt>
<trkpt lat="-27.2240103" lon="151.4215415">
  <ele>519.09</ele>
  <time>2026-09-01T20:00:55Z</time>
  <course>211.18</course>
  <speed>17.911471184690555</speed>
  <fix>3d</fix>
</trkpt>
<trkpt lat="-27.2239816" lon="151.4215609">
  <ele>519.43</ele>
  <time>2026-09-01T20:00:55Z</time>
  <course>211.15</course>
  <speed>18.15</speed>
  <fix>3d</fix>
</trkpt>
<trkpt lat="-27.224024" lon="151.4215322">
  <ele>518.91</ele>
  <time>2026-09-01T20:00:55Z</time>
  <course>211.19</course>
  <speed>17.800036516816476</speed>
  <fix>3d</fix>
</trkpt>
<trkpt lat="-27.2240094" lon="151.4215421">
  <ele>519.09</ele>
  <time>2026-09-01T20:00:55Z</time>
  <course>211.2</course>
  <speed>17.92</speed>
  <fix>3d</fix>
</trkpt>
<trkpt lat="-27.2240376" lon="151.4215228">
  <ele>518.75</ele>
  <time>2026-09-01T20:00:55Z</time>
  <course>211.2</course>
  <speed>17.688606502491936</speed>
  <fix>3d</fix>
</trkpt>
<trkpt lat="-27.2240094" lon="151.4215421">
  <ele>519.09</ele>
  <time>2026-09-01T20:00:55Z</time>
  <course>211.2</course>
  <speed>17.92</speed>
  <fix>3d</fix>
</trkpt>
<trkpt lat="-27.2240511" lon="151.4215136">
  <ele>518.59</ele>
  <time>2026-09-01T20:00:55Z</time>
  <course>211.21</course>
  <speed>17.585727167222856</speed>
  <fix>3d</fix>
</trkpt>
<trkpt lat="-27.2240367" lon="151.4215234">
  <ele>518.76</ele>
  <time>2026-09-01T20:00:55Z</time>
  <course>211.25</course>
  <speed>17.7</speed>
  <fix>3d</fix>
</trkpt>
<trkpt lat="-27.2240646" lon="151.4215044">
  <ele>518.43</ele>
  <time>2026-09-01T20:00:55Z</time>
  <course>211.24</course>
  <speed>17.47430399186188</speed>
  <fix>3d</fix>
</trkpt>
<trkpt lat="-27.2240367" lon="151.4215234">
  <ele>518.76</ele>
  <time>2026-09-01T20:00:55Z</time>
  <course>211.25</course>
  <speed>17.7</speed>
  <fix>3d</fix>
</trkpt>
<trkpt lat="-27.224078" lon="151.4214953">
  <ele>518.27</ele>
  <time>2026-09-01T20:00:55Z</time>
  <course>211.27</course>
  <speed>17.36623160043652</speed>
  <fix>3d</fix>
</trkpt>
<trkpt lat="-27.2240637" lon="151.4215049">
  <ele>518.44</ele>
  <time>2026-09-01T20:00:55Z</time>
  <course>211.29</course>
  <speed>17.48</speed>
  <fix>3d</fix>
</trkpt>
<trkpt lat="-27.2240913" lon="151.4214862">
  <ele>518.1</ele>
  <time>2026-09-01T20:00:55Z</time>
  <course>211.29</course>
  <speed>17.271899142827348</speed>
  <fix>3d</fix>
</trkpt>
<trkpt lat="-27.2240637" lon="151.4215049">
  <ele>518.44</ele>
  <time>2026-09-01T20:00:55Z</time>
  <course>211.29</course>
  <speed>17.48</speed>
  <fix>3d</fix>
</trkpt>
<trkpt lat="-27.2222509" lon="151.4255569">
  <ele>542.97</ele>
  <time>2026-09-01T20:00:55Z</time>
  <course>250.0</course>
  <speed>0.0</speed>
  <fix>3d</fix>
</trkpt>
<trkpt lat="-27.2231641" lon="151.4235263">
  <ele>530.62</ele>
  <time>2026-09-01T20:00:55Z</time>
  <course>211.3</course>
  <speed>8.69</speed>
  <fix>3d</fix>
</trkpt>
<trkpt lat="-27.222251" lon="151.4255569">
  <ele>542.84</ele>
  <time>2026-09-01T20:00:55Z</time>
  <course>250.0</course>
  <speed>0.01</speed>
  <fix>3d</fix>
</trkpt>
<trkpt lat="-27.2231641" lon="151.4235263">
  <ele>530.62</ele>
  <time>2026-09-01T20:00:55Z</time>
  <course>211.3</course>
  <speed>8.69</speed>
  <fix>3d</fix>
</trkpt>
<trkpt lat="-27.222251" lon="151.4255569">
  <ele>542.63</ele>
  <time>2026-09-01T20:00:55Z</time>
  <course>249.99</course>
  <speed>0.05099019513592785</speed>
  <fix>3d</fix>
</trkpt>
<trkpt lat="-27.2222509" lon="151.4255569">
  <ele>542.8</ele>
  <time>2026-09-01T20:00:55Z</time>
  <course>256.17</course>
  <speed>0.02</speed>
  <fix>3d</fix>
</trkpt>
<trkpt lat="-27.222251" lon="151.4255567">
  <ele>542.32</ele>
  <time>2026-09-01T20:00:55Z</time>
  <course>249.38</course>
  <speed>0.1264911064067352</speed>
  <fix>3d</fix>
</trkpt>
<trkpt lat="-27.2222509" lon="151.4255569">
  <ele>542.8</ele>
  <time>2026-09-01T20:00:55Z</time>
  <course>256.17</course>
  <speed>0.02</speed>
  <fix>3d</fix>
</trkpt>
<trkpt lat="-27.2222511" lon="151.4255566">
  <ele>541.94</ele>
  <time>2026-09-01T20:00:55Z</time>
  <course>246.19</course>
  <speed>0.2720294101747089</speed>
  <fix>3d</fix>
</trkpt>
<trkpt lat="-27.222251" lon="151.4255567">
  <ele>542.3</ele>
  <time>2026-09-01T20:00:55Z</time>
  <course>223.84</course>
  <speed>0.15</speed>
  <fix>3d</fix>
</trkpt>
<trkpt lat="-27.2222514" lon="151.4255565">
  <ele>541.49</ele>
  <time>2026-09-01T20:00:55Z</time>
  <course>236.67</course>
  <speed>0.4617358552246078</speed>
  <fix>3d</fix>
</trkpt>
<trkpt lat="-27.222251" lon="151.4255567">
  <ele>542.3</ele>
  <time>2026-09-01T20:00:55Z</time>
  <course>223.84</course>
  <speed>0.15</speed>
  <fix>3d</fix>
</trkpt>
<trkpt lat="-27.2222516" lon="151.4255562">
  <ele>540.97</ele>
  <time>2026-09-01T20:00:55Z</time>
  <course>235.35</course>
  <speed>0.44011362169330775</speed>
  <fix>3d</fix>
</trkpt>
<trkpt lat="-27.2222513" lon="151.4255564">
  <ele>541.48</ele>
  <time>2026-09-01T20:00:55Z</time>
  <course>244.74</course>
  <speed>0.32</speed>
  <fix>3d</fix>
</trkpt>
<trkpt lat="-27.2222511" lon="151.4255555">
  <ele>540.4</ele>
  <time>2026-09-01T20:00:55Z</time>
  <course>248.02</course>
  <speed>1.7669465187152666</speed>
  <fix>3d</fix>
</trkpt>
<trkpt lat="-27.2222513" lon="151.4255564">
  <ele>541.48</ele>
  <time>2026-09-01T20:00:55Z</time>
  <course>244.74</course>
  <speed>0.32</speed>
  <fix>3d</fix>
</trkpt>
<trkpt lat="-27.2222493" lon="151.4255541">
  <ele>539.84</ele>
  <time>2026-09-01T20:00:55Z</time>
  <course>257.64</course>
  <speed>3.0269621735330623</speed>
  <fix>3d</fix>
</trkpt>
<trkpt lat="-27.2222505" lon="151.4255552">
  <ele>540.43</ele>
  <time>2026-09-01T20:00:55Z</time>
  <course>321.8</course>
  <speed>1.58</speed>
  <fix>3d</fix>
</trkpt>
<trkpt lat="-27.2222465" lon="151.4255523">
  <ele>539.32</ele>
  <time>2026-09-01T20:00:55Z</time>
  <course>265.36</course>
  <speed>3.984833748100415</speed>
  <fix>3d</fix>
</trkpt>
<trkpt lat="-27.2222505" lon="151.4255552">
  <ele>540.43</ele>
  <time>2026-09-01T20:00:55Z</time>
  <course>321.8</course>
  <speed>1.58</speed>
  <fix>3d</fix>
</trkpt>
<trkpt lat="-27.2222429" lon="151.4255505">
  <ele>538.85</ele>
  <time>2026-09-01T20:00:55Z</time>
  <course>272.2</course>
  <speed>4.711348002429878</speed>
  <fix>3d</fix>
</trkpt>
<trkpt lat="-27.2222462" lon="151.4255524">
  <ele>539.37</ele>
  <time>2026-09-01T20:00:55Z</time>
  <course>333.46</course>
  <speed>3.81</speed>
  <fix>3d</fix>
</trkpt>
<trkpt lat="-27.2222387" lon="151.4255485">
  <ele>538.46</ele>
  <time>2026-09-01T20:00:55Z</time>
  <course>278.81</course>
  <speed>5.513592295409591</speed>
  <fix>3d</fix>
</trkpt>
<trkpt lat="-27.2222462" lon="151.4255524">
  <ele>539.37</ele>
  <time>2026-09-01T20:00:55Z</time>
  <course>333.46</course>
  <speed>3.81</speed>
  <fix>3d</fix>
</trkpt>
<trkpt lat="-27.2222339" lon="151.4255461">
  <ele>538.16</ele>
  <time>2026-09-01T20:00:55Z</time>
  <course>285.84</course>
  <speed>6.014798417237273</speed>
  <fix>3d</fix>
</trkpt>
<trkpt lat="-27.2222386" lon="151.4255485">
  <ele>538.52</ele>
  <time>2026-09-01T20:00:55Z</time>
  <course>337.11</course>
  <speed>5.33</speed>
  <fix>3d</fix>
</trkpt>
<trkpt lat="-27.2222287" lon="151.425544">
  <ele>537.97</ele>
  <time>2026-09-01T20:00:55Z</time>
  <course>292.15</course>
  <speed>6.241097659867213</speed>
  <fix>3d</fix>
</trkpt>
<trkpt lat="-27.2222386" lon="151.4255485">
  <ele>538.52</ele>
  <time>2026-09-01T20:00:55Z</time>
  <course>337.11</course>
  <speed>5.33</speed>
  <fix>3d</fix>
</trkpt>
<trkpt lat="-27.2222234" lon="151.425542">
  <ele>537.86</ele>
  <time>2026-09-01T20:00:55Z</time>
  <course>297.39</course>
  <speed>6.226861167554646</speed>
  <fix>3d</fix>
</trkpt>
<trkpt lat="-27.2222289" lon="151.4255442">
  <ele>538.02</ele>
  <time>2026-09-01T20:00:55Z</time>
  <course>340.49</course>
  <speed>6.11</speed>
  <fix>3d</fix>
</trkpt>
<trkpt lat="-27.222218" lon="151.4255404">
  <ele>537.84</ele>
  <time>2026-09-01T20:00:55Z</time>
  <course>301.66</course>
  <speed>6.062227313455014</speed>
  <fix>3d</fix>
</trkpt>
<trkpt lat="-27.2222289" lon="151.4255442">
  <ele>538.02</ele>
  <time>2026-09-01T20:00:55Z</time>
  <course>340.49</course>
  <speed>6.11</speed>
  <fix>3d</fix>
</trkpt>
<trkpt lat="-27.2222128" lon="151.4255392">
  <ele>537.88</ele>
  <time>2026-09-01T20:00:55Z</time>
  <course>305.4</course>
  <speed>5.854314648188974</speed>
  <fix>3d</fix>
</trkpt>
<trkpt lat="-27.2222183" lon="151.4255407">
  <ele>537.86</ele>
  <time>2026-09-01T20:00:55Z</time>
  <course>346.54</course>
  <speed>6.04</speed>
  <fix>3d</fix>
</trkpt>
<trkpt lat="-27.2222077" lon="151.4255384">
  <ele>537.97</ele>
  <time>2026-09-01T20:00:55Z</time>
  <course>309.03</course>
  <speed>5.689648495293888</speed>
  <fix>3d</fix>
</trkpt>
<trkpt lat="-27.2222183" lon="151.4255407">
  <ele>537.86</ele>
  <time>2026-09-01T20:00:55Z</time>
  <course>346.54</course>
  <speed>6.04</speed>
  <fix>3d</fix>
</trkpt>
<trkpt lat="-27.2222026" lon="151.4255377">
  <ele>538.11</ele>
  <time>2026-09-01T20:00:55Z</time>
  <course>312.5</course>
  <speed>5.564647338331514</speed>
  <fix>3d</fix>
</trkpt>
<trkpt lat="-27.222208" lon="151.4255385">
  <ele>537.98</ele>
  <time>2026-09-01T20:00:55Z</time>
  <course>351.78</course>
  <speed>5.72</speed>
  <fix>3d</fix>
</trkpt>
<trkpt lat="-27.2221977" lon="151.425537">
  <ele>538.28</ele>
  <time>2026-09-01T20:00:55Z</time>
  <course>315.48</course>
  <speed>5.488642819495544</speed>
  <fix>3d</fix>
</trkpt>
<trkpt lat="-27.222208" lon="151.4255385">
  <ele>537.98</ele>
  <time>2026-09-01T20:00:55Z</time>
  <course>351.78</course>
  <speed>5.72</speed>
  <fix>3d</fix>
</trkpt>
<trkpt lat="-27.2221928" lon="151.4255365">
  <ele>538.47</ele>
  <time>2026-09-01T20:00:55Z</time>
  <course>317.74</course>
  <speed>5.436883298361296</speed>
  <fix>3d</fix>
</trkpt>
<trkpt lat="-27.222198" lon="151.4255371">
  <ele>538.28</ele>
  <time>2026-09-01T20:00:55Z</time>
  <course>353.92</course>
  <speed>5.5</speed>
  <fix>3d</fix>
</trkpt>
<trkpt lat="-27.222188" lon="151.425536">
  <ele>538.69</ele>
  <time>2026-09-01T20:00:55Z</time>
  <course>319.26</course>
  <speed>5.386139619430599</speed>
  <fix>3d</fix>
</trkpt>
<trkpt lat="-27.222198" lon="151.4255371">
  <ele>538.28</ele>
  <time>2026-09-01T20:00:55Z</time>
  <course>353.92</course>
  <speed>5.5</speed>
  <fix>3d</fix>
</trkpt>
<trkpt lat="-27.2221832" lon="151.4255355">
  <ele>538.93</ele>
  <time>2026-09-01T20:00:55Z</time>
  <course>320.18</course>
  <speed>5.3562860267166466</speed>
  <fix>3d</fix>
</trkpt>
<trkpt lat="-27.2221882" lon="151.425536">
  <ele>538.69</ele>
  <time>2026-09-01T20:00:55Z</time>
  <course>354.26</course>
  <speed>5.4</speed>
  <fix>3d</fix>
</trkpt>
<trkpt lat="-27.2221784" lon="151.4255349">
  <ele>539.19</ele>
  <time>2026-09-01T20:00:55Z</time>
  <course>320.67</course>
  <speed>5.3384080023917235</speed>
  <fix>3d</fix>
</trkpt>
<trkpt lat="-27.2221882" lon="151.425536">
  <ele>538.69</ele>
  <time>2026-09-01T20:00:55Z</time>
  <course>354.26</course>
  <speed>5.4</speed>
  <fix>3d</fix>
</trkpt>
<trkpt lat="-27.2221736" lon="151.4255342">
  <ele>539.48</ele>
  <time>2026-09-01T20:00:55Z</time>
  <course>320.9</course>
  <speed>5.3206202645932175</speed>
  <fix>3d</fix>
</trkpt>
<trkpt lat="-27.2221786" lon="151.4255349">
  <ele>539.19</ele>
  <time>2026-09-01T20:00:55Z</time>
  <course>354.04</course>
  <speed>5.34</speed>
  <fix>3d</fix>
</trkpt>
<trkpt lat="-27.2221689" lon="151.4255337">
  <ele>539.78</ele>
  <time>2026-09-01T20:00:55Z</time>
  <course>320.99</course>
  <speed>5.304045625746445</speed>
  <fix>3d</fix>
</trkpt>
<trkpt lat="-27.2221786" lon="151.4255349">
  <ele>539.19</ele>
  <time>2026-09-01T20:00:55Z</time>
  <course>354.04</course>
  <speed>5.34</speed>
  <fix>3d</fix>
</trkpt>
<trkpt lat="-27.2221642" lon="151.4255331">
  <ele>540.09</ele>
  <time>2026-09-01T20:00:55Z</time>
  <course>321.01</course>
  <speed>5.297593793412251</speed>
  <fix>3d</fix>
</trkpt>
<trkpt lat="-27.2221691" lon="151.4255337">
  <ele>539.76</ele>
  <time>2026-09-01T20:00:55Z</time>
  <course>353.47</course>
  <speed>5.31</speed>
  <fix>3d</fix>
</trkpt>
<trkpt lat="-27.2221594" lon="151.4255325">
  <ele>540.41</ele>
  <time>2026-09-01T20:00:55Z</time>
  <course>321.0</course>
  <speed>5.282660314652079</speed>
  <fix>3d</fix>
</trkpt>
<trkpt lat="-27.2221691" lon="151.4255337">
  <ele>539.76</ele>
  <time>2026-09-01T20:00:55Z</time>
  <course>353.47</course>
  <speed>5.31</speed>
  <fix>3d</fix>
</trkpt>
<trkpt lat="-27.2221547" lon="151.4255317">
  <ele>540.73</ele>
  <time>2026-09-01T20:00:55Z</time>
  <course>320.97</course>
  <speed>5.279327608701699</speed>
  <fix>3d</fix>
</trkpt>
<trkpt lat="-27.2221597" lon="151.4255324">
  <ele>540.39</ele>
  <time>2026-09-01T20:00:55Z</time>
  <course>352.65</course>
  <speed>5.29</speed>
  <fix>3d</fix>
</trkpt>
<trkpt lat="-27.22215" lon="151.425531">
  <ele>541.06</ele>
  <time>2026-09-01T20:00:55Z</time>
  <course>320.91</course>
  <speed>5.284931409204854</speed>
  <fix>3d</fix>
</trkpt>
<trkpt lat="-27.2221597" lon="151.4255324">
  <ele>540.39</ele>
  <time>2026-09-01T20:00:55Z</time>
  <course>352.65</course>
  <speed>5.29</speed>
  <fix>3d</fix>
</trkpt>
<trkpt lat="-27.2221453" lon="151.4255302">
  <ele>541.38</ele>
  <time>2026-09-01T20:00:55Z</time>
  <course>320.85</course>
  <speed>5.282471012698507</speed>
  <fix>3d</fix>
</trkpt>
<trkpt lat="-27.2221502" lon="151.425531">
  <ele>541.04</ele>
  <time>2026-09-01T20:00:55Z</time>
  <course>351.68</course>
  <speed>5.28</speed>
  <fix>3d</fix>
</trkpt>
<trkpt lat="-27.2221407" lon="151.4255293">
  <ele>541.7</ele>
  <time>2026-09-01T20:00:55Z</time>
  <course>320.76</course>
  <speed>5.277281497134675</speed>
  <fix>3d</fix>
</trkpt>
<trkpt lat="-27.2221502" lon="151.425531">
  <ele>541.04</ele>
  <time>2026-09-01T20:00:55Z</time>
  <course>351.68</course>
  <speed>5.28</speed>
  <fix>3d</fix>
</trkpt>
<trkpt lat="-27.222136" lon="151.4255284">
  <ele>542.01</ele>
  <time>2026-09-01T20:00:55Z</time>
  <course>320.64</course>
  <speed>5.272276548133643</speed>
  <fix>3d</fix>
</trkpt>
<trkpt lat="-27.2221409" lon="151.4255293">
  <ele>541.68</ele>
  <time>2026-09-01T20:00:55Z</time>
  <course>350.85</course>
  <speed>5.28</speed>
  <fix>3d</fix>
</trkpt>
<trkpt lat="-27.2221313" lon="151.4255275">
  <ele>542.32</ele>
  <time>2026-09-01T20:00:55Z</time>
  <course>320.48</course>
  <speed>5.272276548133643</speed>
  <fix>3d</fix>
</trkpt>
<trkpt lat="-27.2221409" lon="151.4255293">
  <ele>541.68</ele>
  <time>2026-09-01T20:00:55Z</time>
  <course>350.85</course>
  <speed>5.28</speed>
  <fix>3d</fix>
</trkpt>
<trkpt lat="-27.2221266" lon="151.4255268">
  <ele>542.61</ele>
  <time>2026-09-01T20:00:55Z</time>
  <course>320.29</course>
  <speed>5.247666147917568</speed>
  <fix>3d</fix>
</trkpt>
<trkpt lat="-27.2221315" lon="151.4255276">
  <ele>542.3</ele>
  <time>2026-09-01T20:00:55Z</time>
  <course>350.61</course>
  <speed>5.27</speed>
  <fix>3d</fix>
</trkpt>
<trkpt lat="-27.2221219" lon="151.4255259">
  <ele>542.91</ele>
  <time>2026-09-01T20:00:55Z</time>
  <course>320.08</course>
  <speed>5.230009560220708</speed>
  <fix>3d</fix>
</trkpt>
<trkpt lat="-27.2221315" lon="151.4255276">
  <ele>542.3</ele>
  <time>2026-09-01T20:00:55Z</time>
  <course>350.61</course>
  <speed>5.27</speed>
  <fix>3d</fix>
</trkpt>
<trkpt lat="-27.2221173" lon="151.425525">
  <ele>543.19</ele>
  <time>2026-09-01T20:00:55Z</time>
  <course>319.93</course>
  <speed>5.180279915216937</speed>
  <fix>3d</fix>
</trkpt>
<trkpt lat="-27.2221222" lon="151.425526">
  <ele>542.88</ele>
  <time>2026-09-01T20:00:55Z</time>
  <course>351.3</course>
  <speed>5.22</speed>
  <fix>3d</fix>
</trkpt>
<trkpt lat="-27.2221127" lon="151.4255245">
  <ele>543.47</ele>
  <time>2026-09-01T20:00:55Z</time>
  <course>319.74</course>
  <speed>5.089145311346494</speed>
  <fix>3d</fix>
</trkpt>
<trkpt lat="-27.2221222" lon="151.425526">
  <ele>542.88</ele>
  <time>2026-09-01T20:00:55Z</time>
  <course>351.3</course>
  <speed>5.22</speed>
  <fix>3d</fix>
</trkpt>
<trkpt lat="-27.2221082" lon="151.4255237">
  <ele>543.74</ele>
  <time>2026-09-01T20:00:55Z</time>
  <course>319.47</course>
  <speed>4.940708451224379</speed>
  <fix>3d</fix>
</trkpt>
<trkpt lat="-27.222113" lon="151.4255245">
  <ele>543.44</ele>
  <time>2026-09-01T20:00:55Z</time>
  <course>352.71</course>
  <speed>5.07</speed>
  <fix>3d</fix>
</trkpt>
<trkpt lat="-27.2221039" lon="151.4255232">
  <ele>544.0</ele>
  <time>2026-09-01T20:00:55Z</time>
  <course>319.13</course>
  <speed>4.73240953426476</speed>
  <fix>3d</fix>
</trkpt>
<trkpt lat="-27.222113" lon="151.4255245">
  <ele>543.44</ele>
  <time>2026-09-01T20:00:55Z</time>
  <course>352.71</course>
  <speed>5.07</speed>
  <fix>3d</fix>
</trkpt>
<trkpt lat="-27.2220998" lon="151.4255229">
  <ele>544.27</ele>
  <time>2026-09-01T20:00:55Z</time>
  <course>318.73</course>
  <speed>4.466195248754806</speed>
  <fix>3d</fix>
</trkpt>
<trkpt lat="-27.2221042" lon="151.4255234">
  <ele>543.98</ele>
  <time>2026-09-01T20:00:55Z</time>
  <course>354.25</course>
  <speed>4.72</speed>
  <fix>3d</fix>
</trkpt>
<trkpt lat="-27.2220959" lon="151.4255226">
  <ele>544.53</ele>
  <time>2026-09-01T20:00:55Z</time>
  <course>318.27</course>
  <speed>4.150855333542714</speed>
  <fix>3d</fix>
</trkpt>
<trkpt lat="-27.2221042" lon="151.4255234">
  <ele>543.98</ele>
  <time>2026-09-01T20:00:55Z</time>
  <course>354.25</course>
  <speed>4.72</speed>
  <fix>3d</fix>
</trkpt>
<trkpt lat="-27.2220924" lon="151.4255222">
  <ele>544.79</ele>
  <time>2026-09-01T20:00:55Z</time>
  <course>317.75</course>
  <speed>3.8069541631073</speed>
  <fix>3d</fix>
</trkpt>
<trkpt lat="-27.2220962" lon="151.4255226">
  <ele>544.51</ele>
  <time>2026-09-01T20:00:55Z</time>
  <course>355.65</course>
  <speed>4.15</speed>
  <fix>3d</fix>
</trkpt>
<trkpt lat="-27.2220891" lon="151.4255221">
  <ele>545.04</ele>
  <time>2026-09-01T20:00:55Z</time>
  <course>317.14</course>
  <speed>3.45469246098694</speed>
  <fix>3d</fix>
</trkpt>
<trkpt lat="-27.2220962" lon="151.4255226">
  <ele>544.51</ele>
  <time>2026-09-01T20:00:55Z</time>
  <course>355.65</course>
  <speed>4.15</speed>
  <fix>3d</fix>
</trkpt>
<trkpt lat="-27.2220862" lon="151.4255219">
  <ele>545.31</ele>
  <time>2026-09-01T20:00:55Z</time>
  <course>316.45</course>
  <speed>3.092733418838423</speed>
  <fix>3d</fix>
</trkpt>
<trkpt lat="-27.2220894" lon="151.4255221">
  <ele>545.04</ele>
  <time>2026-09-01T20:00:55Z</time>
  <course>356.89</course>
  <speed>3.46</speed>
  <fix>3d</fix>
</trkpt>
<trkpt lat="-27.2220836" lon="151.4255217">
  <ele>545.58</ele>
  <time>2026-09-01T20:00:55Z</time>
  <course>315.66</course>
  <speed>2.7311719096387908</speed>
  <fix>3d</fix>
</trkpt>
<trkpt lat="-27.2220894" lon="151.4255221">
  <ele>545.04</ele>
  <time>2026-09-01T20:00:55Z</time>
  <course>356.89</course>
  <speed>3.46</speed>
  <fix>3d</fix>
</trkpt>
<trkpt lat="-27.2220813" lon="151.4255217">
  <ele>545.84</ele>
  <time>2026-09-01T20:00:55Z</time>
  <course>314.79</course>
  <speed>2.3701898658124416</speed>
  <fix>3d</fix>
</trkpt>
<trkpt lat="-27.2220838" lon="151.4255218">
  <ele>545.56</ele>
  <time>2026-09-01T20:00:55Z</time>
  <course>358.18</course>
  <speed>2.75</speed>
  <fix>3d</fix>
</trkpt>
<trkpt lat="-27.2220793" lon="151.4255217">
  <ele>546.1</ele>
  <time>2026-09-01T20:00:55Z</time>
  <course>313.88</course>
  <speed>2.03</speed>
  <fix>3d</fix>
</trkpt>
<trkpt lat="-27.2220838" lon="151.4255218">
  <ele>545.56</ele>
  <time>2026-09-01T20:00:55Z</time>
  <course>358.18</course>
  <speed>2.75</speed>
  <fix>3d</fix>
</trkpt>
<trkpt lat="-27.2220776" lon="151.4255217">
  <ele>546.35</ele>
  <time>2026-09-01T20:00:55Z</time>
  <course>312.95</course>
  <speed>1.7004705231199981</speed>
  <fix>3d</fix>
</trkpt>
<trkpt lat="-27.2220795" lon="151.4255217">
  <ele>546.08</ele>
  <time>2026-09-01T20:00:55Z</time>
  <course>0.0</course>
  <speed>2.05</speed>
  <fix>3d</fix>
</trkpt>
<trkpt lat="-27.2220762" lon="151.4255217">
  <ele>546.61</ele>
  <time>2026-09-01T20:00:55Z</time>
  <course>312.08</course>
  <speed>1.3717871555019021</speed>
  <fix>3d</fix>
</trkpt>
<trkpt lat="-27.2220795" lon="151.4255217">
  <ele>546.08</ele>
  <time>2026-09-01T20:00:55Z</time>
  <course>0.0</course>
  <speed>2.05</speed>
  <fix>3d</fix>
</trkpt>
<trkpt lat="-27.222075" lon="151.4255217">
  <ele>546.82</ele>
  <time>2026-09-01T20:00:55Z</time>
  <course>311.46</course>
  <speed>1.3609188072769072</speed>
  <fix>3d</fix>
</trkpt>
<trkpt lat="-27.2220764" lon="151.4255217">
  <ele>546.57</ele>
  <time>2026-09-01T20:00:55Z</time>
  <course>1.71</course>
  <speed>1.54</speed>
  <fix>3d</fix>
</trkpt>
<trkpt lat="-27.2220738" lon="151.4255217">
  <ele>546.91</ele>
  <time>2026-09-01T20:00:55Z</time>
  <course>311.16</course>
  <speed>1.3603308421115798</speed>
  <fix>3d</fix>
</trkpt>
<trkpt lat="-27.2220764" lon="151.4255217">
  <ele>546.57</ele>
  <time>2026-09-01T20:00:55Z</time>
  <course>1.71</course>
  <speed>1.54</speed>
  <fix>3d</fix>
</trkpt>
<trkpt lat="-27.2220726" lon="151.4255219">
  <ele>546.93</ele>
  <time>2026-09-01T20:00:55Z</time>
  <course>311.05</course>
  <speed>1.3503332921912277</speed>
  <fix>3d</fix>
</trkpt>
<trkpt lat="-27.2220738" lon="151.4255218">
  <ele>546.87</ele>
  <time>2026-09-01T20:00:55Z</time>
  <course>1.71</course>
  <speed>1.36</speed>
  <fix>3d</fix>
</trkpt>
<trkpt lat="-27.2220714" lon="151.4255219">
  <ele>546.84</ele>
  <time>2026-09-01T20:00:55Z</time>
  <course>311.14</course>
  <speed>1.3203408650799233</speed>
  <fix>3d</fix>
</trkpt>
<trkpt lat="-27.2220738" lon="151.4255218">
  <ele>546.87</ele>
  <time>2026-09-01T20:00:55Z</time>
  <course>1.71</course>
  <speed>1.36</speed>
  <fix>3d</fix>
</trkpt>
<trkpt lat="-27.2220702" lon="151.4255219">
  <ele>546.66</ele>
  <time>2026-09-01T20:00:55Z</time>
  <course>311.62</course>
  <speed>1.2601587201618691</speed>
  <fix>3d</fix>
</trkpt>
<trkpt lat="-27.2220714" lon="151.4255219">
  <ele>546.8</ele>
  <time>2026-09-01T20:00:55Z</time>
  <course>1.23</course>
  <speed>1.31</speed>
  <fix>3d</fix>
</trkpt>
<trkpt lat="-27.2220691" lon="151.4255219">
  <ele>546.4</ele>
  <time>2026-09-01T20:00:55Z</time>
  <course>312.82</course>
  <speed>1.16</speed>
  <fix>3d</fix>
</trkpt>
<trkpt lat="-27.2220714" lon="151.4255219">
  <ele>546.8</ele>
  <time>2026-09-01T20:00:55Z</time>
  <course>1.23</course>
  <speed>1.31</speed>
  <fix>3d</fix>
</trkpt>
<trkpt lat="-27.2220681" lon="151.4255219">
  <ele>546.07</ele>
  <time>2026-09-01T20:00:55Z</time>
  <course>314.83</course>
  <speed>1.0604244433244643</speed>
  <fix>3d</fix>
</trkpt>
<trkpt lat="-27.2220691" lon="151.4255219">
  <ele>546.38</ele>
  <time>2026-09-01T20:00:55Z</time>
  <course>359.8</course>
  <speed>1.16</speed>
  <fix>3d</fix>
</trkpt>
<trkpt lat="-27.2220672" lon="151.4255219">
  <ele>545.69</ele>
  <time>2026-09-01T20:00:55Z</time>
  <course>316.91</course>
  <speed>0.9812746812182611</speed>
  <fix>3d</fix>
</trkpt>
<trkpt lat="-27.2220691" lon="151.4255219">
  <ele>546.38</ele>
  <time>2026-09-01T20:00:55Z</time>
  <course>359.8</course>
  <speed>1.16</speed>
  <fix>3d</fix>
</trkpt>
<trkpt lat="-27.2220663" lon="151.4255219">
  <ele>545.25</ele>
  <time>2026-09-01T20:00:55Z</time>
  <course>318.65</course>
  <speed>0.9135097153287424</speed>
  <fix>3d</fix>
</trkpt>
<trkpt lat="-27.2220672" lon="151.4255219">
  <ele>545.68</ele>
  <time>2026-09-01T20:00:55Z</time>
  <course>356.69</course>
  <speed>0.99</speed>
  <fix>3d</fix>
</trkpt>
<trkpt lat="-27.2220655" lon="151.4255217">
  <ele>544.77</ele>
  <time>2026-09-01T20:00:55Z</time>
  <course>320.14</course>
  <speed>0.8697700845625813</speed>
  <fix>3d</fix>
</trkpt>
<trkpt lat="-27.2220672" lon="151.4255219">
  <ele>545.68</ele>
  <time>2026-09-01T20:00:55Z</time>
  <course>356.69</course>
  <speed>0.99</speed>
  <fix>3d</fix>
</trkpt>
<trkpt lat="-27.2220648" lon="151.4255216">
  <ele>544.25</ele>
  <time>2026-09-01T20:00:55Z</time>
  <course>321.49</course>
  <speed>0.8755569655939013</speed>
  <fix>3d</fix>
</trkpt>
<trkpt lat="-27.2220656" lon="151.4255217">
  <ele>544.77</ele>
  <time>2026-09-01T20:00:55Z</time>
  <course>350.78</course>
  <speed>0.89</speed>
  <fix>3d</fix>
</trkpt>
<trkpt lat="-27.222064" lon="151.4255213">
  <ele>543.66</ele>
  <time>2026-09-01T20:00:55Z</time>
  <course>322.74</course>
  <speed>0.9297311439335567</speed>
  <fix>3d</fix>
</trkpt>
<trkpt lat="-27.2220656" lon="151.4255217">
  <ele>544.77</ele>
  <time>2026-09-01T20:00:55Z</time>
  <course>350.78</course>
  <speed>0.89</speed>
  <fix>3d</fix>
</trkpt>
<trkpt lat="-27.2220632" lon="151.425521">
  <ele>543.03</ele>
  <time>2026-09-01T20:00:55Z</time>
  <course>323.89</course>
  <speed>1.0084641788382966</speed>
  <fix>3d</fix>
</trkpt>
<trkpt lat="-27.2220639" lon="151.4255213">
  <ele>543.66</ele>
  <time>2026-09-01T20:00:55Z</time>
  <course>341.55</course>
  <speed>0.94</speed>
  <fix>3d</fix>
</trkpt>
<trkpt lat="-27.2220623" lon="151.4255205">
  <ele>542.32</ele>
  <time>2026-09-01T20:00:55Z</time>
  <course>324.92</course>
  <speed>1.2567020331009255</speed>
  <fix>3d</fix>
</trkpt>
<trkpt lat="-27.2220639" lon="151.4255213">
  <ele>543.66</ele>
  <time>2026-09-01T20:00:55Z</time>
  <course>341.55</course>
  <speed>0.94</speed>
  <fix>3d</fix>
</trkpt>
<trkpt lat="-27.2220609" lon="151.4255197">
  <ele>541.56</ele>
  <time>2026-09-01T20:00:55Z</time>
  <course>326.02</course>
  <speed>2.0682843131445927</speed>
  <fix>3d</fix>
</trkpt>
<trkpt lat="-27.2220621" lon="151.4255203">
  <ele>542.32</ele>
  <time>2026-09-01T20:00:55Z</time>
  <course>331.75</course>
  <speed>1.52</speed>
  <fix>3d</fix>
</trkpt>
<trkpt lat="-27.2220592" lon="151.4255184">
  <ele>540.71</ele>
  <time>2026-09-01T20:00:55Z</time>
  <course>327.14</course>
  <speed>2.4200206610688264</speed>
  <fix>3d</fix>
</trkpt>
<trkpt lat="-27.2220621" lon="151.4255203">
  <ele>542.32</ele>
  <time>2026-09-01T20:00:55Z</time>
  <course>331.75</course>
  <speed>1.52</speed>
  <fix>3d</fix>
</trkpt>
<trkpt lat="-27.2220573" lon="151.4255172">
  <ele>539.78</ele>
  <time>2026-09-01T20:00:55Z</time>
  <course>328.3</course>
  <speed>2.366981199756348</speed>
  <fix>3d</fix>
</trkpt>
<trkpt lat="-27.2220591" lon="151.4255185">
  <ele>540.71</ele>
  <time>2026-09-01T20:00:55Z</time>
  <course>328.54</course>
  <speed>2.21</speed>
  <fix>3d</fix>
</trkpt>
<trkpt lat="-27.2220556" lon="151.4255159">
  <ele>538.75</ele>
  <time>2026-09-01T20:00:55Z</time>
  <course>329.64</course>
  <speed>2.133775995740884</speed>
  <fix>3d</fix>
</trkpt>
<trkpt lat="-27.2220591" lon="151.4255185">
  <ele>540.71</ele>
  <time>2026-09-01T20:00:55Z</time>
  <course>328.54</course>
  <speed>2.21</speed>
  <fix>3d</fix>
</trkpt>
<trkpt lat="-27.222054" lon="151.4255149">
  <ele>537.63</ele>
  <time>2026-09-01T20:00:56Z</time>
  <course>330.01</course>
  <speed>2.0479257799051216</speed>
  <fix>3d</fix>
</trkpt>
<trkpt lat="-27.2220557" lon="151.425516">
  <ele>538.76</ele>
  <time>2026-09-01T20:00:56Z</time>
  <course>328.21</course>
  <speed>2.21</speed>
  <fix>3d</fix>
</trkpt>
<trkpt lat="-27.2220524" lon="151.4255136">
  <ele>536.41</ele>
  <time>2026-09-01T20:00:56Z</time>
  <course>329.86</course>
  <speed>2.3735627229968035</speed>
  <fix>3d</fix>
</trkpt>
<trkpt lat="-27.2220557" lon="151.425516">
  <ele>538.76</ele>
  <time>2026-09-01T20:00:56Z</time>
  <course>328.21</course>
  <speed>2.21</speed>
  <fix>3d</fix>
</trkpt>
<trkpt lat="-27.2220502" lon="151.4255122">
  <ele>535.13</ele>
  <time>2026-09-01T20:00:56Z</time>
  <course>329.67</course>
  <speed>3.2140006222774753</speed>
  <fix>3d</fix>
</trkpt>
<trkpt lat="-27.2220522" lon="151.4255136">
  <ele>536.44</ele>
  <time>2026-09-01T20:00:56Z</time>
  <course>329.02</course>
  <speed>2.6</speed>
  <fix>3d</fix>
</trkpt>
<trkpt lat="-27.2220473" lon="151.4255103">
  <ele>533.79</ele>
  <time>2026-09-01T20:00:56Z</time>
  <course>329.5</course>
  <speed>4.449202175671499</speed>
  <fix>3d</fix>
</trkpt>
<trkpt lat="-27.2220522" lon="151.4255136">
  <ele>536.44</ele>
  <time>2026-09-01T20:00:56Z</time>
  <course>329.02</course>
  <speed>2.6</speed>
  <fix>3d</fix>
</trkpt>
<trkpt lat="-27.2220433" lon="151.4255078">
  <ele>532.41</ele>
  <time>2026-09-01T20:00:56Z</time>
  <course>329.38</course>
  <speed>5.833429523016456</speed>
  <fix>3d</fix>
</trkpt>
<trkpt lat="-27.2220469" lon="151.4255101">
  <ele>533.84</ele>
  <time>2026-09-01T20:00:56Z</time>
  <course>329.78</course>
  <speed>4.47</speed>
  <fix>3d</fix>
</trkpt>
<trkpt lat="-27.2220382" lon="151.4255045">
  <ele>531.03</ele>
  <time>2026-09-01T20:00:56Z</time>
  <course>329.34</course>
  <speed>7.19169660094195</speed>
  <fix>3d</fix>
</trkpt>
<trkpt lat="-27.2220469" lon="151.4255101">
  <ele>533.84</ele>
  <time>2026-09-01T20:00:56Z</time>
  <course>329.78</course>
  <speed>4.47</speed>
  <fix>3d</fix>
</trkpt>
<trkpt lat="-27.2220321" lon="151.4255005">
  <ele>529.63</ele>
  <time>2026-09-01T20:00:56Z</time>
  <course>329.38</course>
  <speed>8.457121259624932</speed>
  <fix>3d</fix>
</trkpt>
<trkpt lat="-27.2220379" lon="151.4255043">
  <ele>531.09</ele>
  <time>2026-09-01T20:00:56Z</time>
  <course>329.79</course>
  <speed>7.08</speed>
  <fix>3d</fix>
</trkpt>
<trkpt lat="-27.2220251" lon="151.4254958">
  <ele>528.24</ele>
  <time>2026-09-01T20:00:56Z</time>
  <course>329.44</course>
  <speed>9.681554627228005</speed>
  <fix>3d</fix>
</trkpt>
<trkpt lat="-27.2220379" lon="151.4255043">
  <ele>531.09</ele>
  <time>2026-09-01T20:00:56Z</time>
  <course>329.79</course>
  <speed>7.08</speed>
  <fix>3d</fix>
</trkpt>
<trkpt lat="-27.2220171" lon="151.4254905">
  <ele>526.86</ele>
  <time>2026-09-01T20:00:56Z</time>
  <course>329.5</course>
  <speed>10.924770020462674</speed>
  <fix>3d</fix>
</trkpt>
<trkpt lat="-27.2220249" lon="151.4254957">
  <ele>528.31</ele>
  <time>2026-09-01T20:00:56Z</time>
  <course>329.57</course>
  <speed>9.63</speed>
  <fix>3d</fix>
</trkpt>
<trkpt lat="-27.2220082" lon="151.4254846">
  <ele>525.53</ele>
  <time>2026-09-01T20:00:56Z</time>
  <course>329.56</course>
  <speed>12.171544684221473</speed>
  <fix>3d</fix>
</trkpt>
<trkpt lat="-27.2220249" lon="151.4254957">
  <ele>528.31</ele>
  <time>2026-09-01T20:00:56Z</time>
  <course>329.57</course>
  <speed>9.63</speed>
  <fix>3d</fix>
</trkpt>
<trkpt lat="-27.2219983" lon="151.425478">
  <ele>524.24</ele>
  <time>2026-09-01T20:00:56Z</time>
  <course>329.6</course>
  <speed>13.413236000309546</speed>
  <fix>3d</fix>
</trkpt>
<trkpt lat="-27.2220081" lon="151.4254846">
  <ele>525.61</ele>
  <time>2026-09-01T20:00:56Z</time>
  <course>329.45</course>
  <speed>12.11</speed>
  <fix>3d</fix>
</trkpt>
<trkpt lat="-27.2219874" lon="151.4254708">
  <ele>523.03</ele>
  <time>2026-09-01T20:00:56Z</time>
  <course>329.63</course>
  <speed>14.577846205801459</speed>
  <fix>3d</fix>
</trkpt>
<trkpt lat="-27.2220081" lon="151.4254846">
  <ele>525.61</ele>
  <time>2026-09-01T20:00:56Z</time>
  <course>329.45</course>
  <speed>12.11</speed>
  <fix>3d</fix>
</trkpt>
<trkpt lat="-27.2219757" lon="151.4254631">
  <ele>521.91</ele>
  <time>2026-09-01T20:00:56Z</time>
  <course>329.66</course>
  <speed>15.634474727345335</speed>
  <fix>3d</fix>
</trkpt>
<trkpt lat="-27.2219875" lon="151.4254709">
  <ele>523.13</ele>
  <time>2026-09-01T20:00:56Z</time>
  <course>329.5</course>
  <speed>14.47</speed>
  <fix>3d</fix>
</trkpt>
<trkpt lat="-27.2219632" lon="151.4254549">
  <ele>520.89</ele>
  <time>2026-09-01T20:00:56Z</time>
  <course>329.69</course>
  <speed>16.569456840826135</speed>
  <fix>3d</fix>
</trkpt>
<trkpt lat="-27.2219875" lon="151.4254709">
  <ele>523.13</ele>
  <time>2026-09-01T20:00:56Z</time>
  <course>329.5</course>
  <speed>14.47</speed>
  <fix>3d</fix>
</trkpt>
<trkpt lat="-27.2219501" lon="151.4254461">
  <ele>519.98</ele>
  <time>2026-09-01T20:00:56Z</time>
  <course>329.72</course>
  <speed>17.35691792917164</speed>
  <fix>3d</fix>
</trkpt>
<trkpt lat="-27.2219634" lon="151.425455">
  <ele>520.99</ele>
  <time>2026-09-01T20:00:56Z</time>
  <course>329.64</course>
  <speed>16.46</speed>
  <fix>3d</fix>
</trkpt>
<trkpt lat="-27.2219363" lon="151.4254372">
  <ele>519.2</ele>
  <time>2026-09-01T20:00:56Z</time>
  <course>329.74</course>
  <speed>18.005476944529963</speed>
  <fix>3d</fix>
</trkpt>
<trkpt lat="-27.2219634" lon="151.425455">
  <ele>520.99</ele>
  <time>2026-09-01T20:00:56Z</time>
  <course>329.64</course>
  <speed>16.46</speed>
  <fix>3d</fix>
</trkpt>
<trkpt lat="-27.2219222" lon="151.4254279">
  <ele>518.54</ele>
  <time>2026-09-01T20:00:56Z</time>
  <course>329.77</course>
  <speed>18.475524349798572</speed>
  <fix>3d</fix>
</trkpt>
<trkpt lat="-27.2219367" lon="151.4254374">
  <ele>519.3</ele>
  <time>2026-09-01T20:00:56Z</time>
  <course>329.76</course>
  <speed>17.9</speed>
  <fix>3d</fix>
</trkpt>
<trkpt lat="-27.2219077" lon="151.4254185">
  <ele>518.04</ele>
  <time>2026-09-01T20:00:56Z</time>
  <course>329.78</course>
  <speed>18.784333898224872</speed>
  <fix>3d</fix>
</trkpt>
<trkpt lat="-27.2219367" lon="151.4254374">
  <ele>519.3</ele>
  <time>2026-09-01T20:00:56Z</time>
  <course>329.76</course>
  <speed>17.9</speed>
  <fix>3d</fix>
</trkpt>
<trkpt lat="-27.221893" lon="151.4254088">
  <ele>517.64</ele>
  <time>2026-09-01T20:00:56Z</time>
  <course>329.8</course>
  <speed>18.914613398110998</speed>
  <fix>3d</fix>
</trkpt>
<trkpt lat="-27.2219082" lon="151.4254188">
  <ele>518.12</ele>
  <time>2026-09-01T20:00:56Z</time>
  <course>329.81</course>
  <speed>18.69</speed>
  <fix>3d</fix>
</trkpt>
<trkpt lat="-27.2218783" lon="151.4253992">
  <ele>517.35</ele>
  <time>2026-09-01T20:00:56Z</time>
  <course>329.81</course>
  <speed>18.914613398110998</speed>
  <fix>3d</fix>
</trkpt>
<trkpt lat="-27.2219082" lon="151.4254188">
  <ele>518.12</ele>
  <time>2026-09-01T20:00:56Z</time>
  <course>329.81</course>
  <speed>18.69</speed>
  <fix>3d</fix>
</trkpt>
<trkpt lat="-27.2218637" lon="151.4253896">
  <ele>517.11</ele>
  <time>2026-09-01T20:00:56Z</time>
  <course>329.81</course>
  <speed>18.847665637951028</speed>
  <fix>3d</fix>
</trkpt>
<trkpt lat="-27.2218789" lon="151.4253996">
  <ele>517.39</ele>
  <time>2026-09-01T20:00:56Z</time>
  <course>329.81</course>
  <speed>18.89</speed>
  <fix>3d</fix>
</trkpt>
<trkpt lat="-27.2218491" lon="151.42538">
  <ele>516.91</ele>
  <time>2026-09-01T20:00:56Z</time>
  <course>329.81</course>
  <speed>18.75337302993784</speed>
  <fix>3d</fix>
</trkpt>
<trkpt lat="-27.2218789" lon="151.4253996">
  <ele>517.39</ele>
  <time>2026-09-01T20:00:56Z</time>
  <course>329.81</course>
  <speed>18.89</speed>
  <fix>3d</fix>
</trkpt>
<trkpt lat="-27.2201002" lon="151.429452">
  <ele>542.98</ele>
  <time>2026-09-01T20:00:56Z</time>
  <course>250.0</course>
  <speed>0.0</speed>
  <fix>3d</fix>
</trkpt>
<trkpt lat="-27.2209822" lon="151.427421">
  <ele>530.05</ele>
  <time>2026-09-01T20:00:56Z</time>
  <course>329.79</course>
  <speed>9.43</speed>
  <fix>3d</fix>
</trkpt>
<trkpt lat="-27.2201002" lon="151.429452">
  <ele>542.87</ele>
  <time>2026-09-01T20:00:56Z</time>
  <course>250.0</course>
  <speed>0.01</speed>
  <fix>3d</fix>
</trkpt>
<trkpt lat="-27.2209822" lon="151.427421">
  <ele>530.05</ele>
  <time>2026-09-01T20:00:56Z</time>
  <course>329.79</course>
  <speed>9.43</speed>
  <fix>3d</fix>
</trkpt>
<trkpt lat="-27.2201002" lon="151.429452">
  <ele>542.66</ele>
  <time>2026-09-01T20:00:56Z</time>
  <course>250.01</course>
  <speed>0.044721359549995794</speed>
  <fix>3d</fix>
</trkpt>
<trkpt lat="-27.2201002" lon="151.429452">
  <ele>542.82</ele>
  <time>2026-09-01T20:00:56Z</time>
  <course>242.22</course>
  <speed>0.02</speed>
  <fix>3d</fix>
</trkpt>
<trkpt lat="-27.2201002" lon="151.4294519">
  <ele>542.37</ele>
  <time>2026-09-01T20:00:56Z</time>
  <course>250.63</course>
  <speed>0.1264911064067352</speed>
  <fix>3d</fix>
</trkpt>
<trkpt lat="-27.2201002" lon="151.429452">
  <ele>542.82</ele>
  <time>2026-09-01T20:00:56Z</time>
  <course>242.22</course>
  <speed>0.02</speed>
  <fix>3d</fix>
</trkpt>
<trkpt lat="-27.2201002" lon="151.4294516">
  <ele>542.0</ele>
  <time>2026-09-01T20:00:56Z</time>
  <course>253.88</course>
  <speed>0.2692582403567252</speed>
  <fix>3d</fix>
</trkpt>
<trkpt lat="-27.2201002" lon="151.4294518">
  <ele>542.35</ele>
  <time>2026-09-01T20:00:56Z</time>
  <course>277.24</course>
  <speed>0.15</speed>
  <fix>3d</fix>
</trkpt>
<trkpt lat="-27.2201" lon="151.4294514">
  <ele>541.56</ele>
  <time>2026-09-01T20:00:56Z</time>
  <course>263.53</course>
  <speed>0.44944410108488464</speed>
  <fix>3d</fix>
</trkpt>
<trkpt lat="-27.2201002" lon="151.4294518">
  <ele>542.35</ele>
  <time>2026-09-01T20:00:56Z</time>
  <course>277.24</course>
  <speed>0.15</speed>
  <fix>3d</fix>
</trkpt>
<trkpt lat="-27.2201" lon="151.4294511">
  <ele>541.04</ele>
  <time>2026-09-01T20:00:56Z</time>
  <course>264.03</course>
  <speed>0.43139309220245986</speed>
  <fix>3d</fix>
</trkpt>
<trkpt lat="-27.2201" lon="151.4294514">
  <ele>541.54</ele>
  <time>2026-09-01T20:00:56Z</time>
  <course>252.28</course>
  <speed>0.3</speed>
  <fix>3d</fix>
</trkpt>
<trkpt lat="-27.2201008" lon="151.429451">
  <ele>540.49</ele>
  <time>2026-09-01T20:00:56Z</time>
  <course>251.63</course>
  <speed>1.7906981878585793</speed>
  <fix>3d</fix>
</trkpt>
<trkpt lat="-27.2201" lon="151.4294514">
  <ele>541.54</ele>
  <time>2026-09-01T20:00:56Z</time>
  <course>252.28</course>
  <speed>0.3</speed>
  <fix>3d</fix>
</trkpt>
<trkpt lat="-27.220103" lon="151.4294512">
  <ele>539.94</ele>
  <time>2026-09-01T20:00:56Z</time>
  <course>242.25</course>
  <speed>3.0616498820080653</speed>
  <fix>3d</fix>
</trkpt>
<trkpt lat="-27.2201014" lon="151.4294511">
  <ele>540.52</ele>
  <time>2026-09-01T20:00:56Z</time>
  <course>176.13</course>
  <speed>1.6</speed>
  <fix>3d</fix>
</trkpt>
<trkpt lat="-27.2201062" lon="151.429452">
  <ele>539.43</ele>
  <time>2026-09-01T20:00:56Z</time>
  <course>234.67</course>
  <speed>4.016964027720437</speed>
  <fix>3d</fix>
</trkpt>
<trkpt lat="-27.2201014" lon="151.4294511">
  <ele>540.52</ele>
  <time>2026-09-01T20:00:56Z</time>
  <course>176.13</course>
  <speed>1.6</speed>
  <fix>3d</fix>
</trkpt>
<trkpt lat="-27.22011" lon="151.4294533">
  <ele>538.97</ele>
  <time>2026-09-01T20:00:56Z</time>
  <course>227.91</course>
  <speed>4.792128963206228</speed>
  <fix>3d</fix>
</trkpt>
<trkpt lat="-27.2201063" lon="151.4294521">
  <ele>539.48</ele>
  <time>2026-09-01T20:00:56Z</time>
  <course>165.47</course>
  <speed>3.87</speed>
  <fix>3d</fix>
</trkpt>
<trkpt lat="-27.2201145" lon="151.4294548">
  <ele>538.6</ele>
  <time>2026-09-01T20:00:56Z</time>
  <course>221.32</course>
  <speed>5.5920658079103465</speed>
  <fix>3d</fix>
</trkpt>
<trkpt lat="-27.2201063" lon="151.4294521">
  <ele>539.48</ele>
  <time>2026-09-01T20:00:56Z</time>
  <course>165.47</course>
  <speed>3.87</speed>
  <fix>3d</fix>
</trkpt>
<trkpt lat="-27.2201195" lon="151.4294565">
  <ele>538.32</ele>
  <time>2026-09-01T20:00:56Z</time>
  <course>214.45</course>
  <speed>6.030762804156701</speed>
  <fix>3d</fix>
</trkpt>
<trkpt lat="-27.2201145" lon="151.4294548">
  <ele>538.66</ele>
  <time>2026-09-01T20:00:56Z</time>
  <course>162.43</course>
  <speed>5.39</speed>
  <fix>3d</fix>
</trkpt>
<trkpt lat="-27.2201247" lon="151.4294586">
  <ele>538.15</ele>
  <time>2026-09-01T20:00:56Z</time>
  <course>208.88</course>
  <speed>6.112977997670202</speed>
  <fix>3d</fix>
</trkpt>
<trkpt lat="-27.2201145" lon="151.4294548">
  <ele>538.66</ele>
  <time>2026-09-01T20:00:56Z</time>
  <course>162.43</course>
  <speed>5.39</speed>
  <fix>3d</fix>
</trkpt>
<trkpt lat="-27.2201298" lon="151.4294606">
  <ele>538.09</ele>
  <time>2026-09-01T20:00:56Z</time>
  <course>204.56</course>
  <speed>5.87664019657491</speed>
  <fix>3d</fix>
</trkpt>
<trkpt lat="-27.2201244" lon="151.4294585">
  <ele>538.21</ele>
  <time>2026-09-01T20:00:56Z</time>
  <course>160.77</course>
  <speed>5.96</speed>
  <fix>3d</fix>
</trkpt>
<trkpt lat="-27.2201345" lon="151.4294626">
  <ele>538.11</ele>
  <time>2026-09-01T20:00:56Z</time>
  <course>200.63</course>
  <speed>5.500772672997858</speed>
  <fix>3d</fix>
</trkpt>
<trkpt lat="-27.2201244" lon="151.4294585">
  <ele>538.21</ele>
  <time>2026-09-01T20:00:56Z</time>
  <course>160.77</course>
  <speed>5.96</speed>
  <fix>3d</fix>
</trkpt>
<trkpt lat="-27.2201389" lon="151.4294649">
  <ele>538.2</ele>
  <time>2026-09-01T20:00:56Z</time>
  <course>196.88</course>
  <speed>5.155162461067546</speed>
  <fix>3d</fix>
</trkpt>
<trkpt lat="-27.2201341" lon="151.4294626">
  <ele>538.14</ele>
  <time>2026-09-01T20:00:56Z</time>
  <course>157.6</course>
  <speed>5.53</speed>
  <fix>3d</fix>
</trkpt>
<trkpt lat="-27.220143" lon="151.429467">
  <ele>538.33</ele>
  <time>2026-09-01T20:00:56Z</time>
  <course>193.47</course>
  <speed>4.888210306441407</speed>
  <fix>3d</fix>
</trkpt>
<trkpt lat="-27.2201341" lon="151.4294626">
  <ele>538.14</ele>
  <time>2026-09-01T20:00:56Z</time>
  <course>157.6</course>
  <speed>5.53</speed>
  <fix>3d</fix>
</trkpt>
<trkpt lat="-27.2201468" lon="151.4294693">
  <ele>538.5</ele>
  <time>2026-09-01T20:00:56Z</time>
  <course>190.55</course>
  <speed>4.709702750705187</speed>
  <fix>3d</fix>
</trkpt>
<trkpt lat="-27.2201426" lon="151.429467">
  <ele>538.33</ele>
  <time>2026-09-01T20:00:56Z</time>
  <course>154.14</course>
  <speed>4.94</speed>
  <fix>3d</fix>
</trkpt>
<trkpt lat="-27.2201505" lon="151.4294715">
  <ele>538.71</ele>
  <time>2026-09-01T20:00:56Z</time>
  <course>188.25</course>
  <speed>4.586610949273984</speed>
  <fix>3d</fix>
</trkpt>
<trkpt lat="-27.2201426" lon="151.429467">
  <ele>538.33</ele>
  <time>2026-09-01T20:00:56Z</time>
  <course>154.14</course>
  <speed>4.94</speed>
  <fix>3d</fix>
</trkpt>
<trkpt lat="-27.2201541" lon="151.4294737">
  <ele>538.95</ele>
  <time>2026-09-01T20:00:56Z</time>
  <course>186.62</course>
  <speed>4.495152945117663</speed>
  <fix>3d</fix>
</trkpt>
<trkpt lat="-27.2201503" lon="151.4294714">
  <ele>538.71</ele>
  <time>2026-09-01T20:00:56Z</time>
  <course>151.64</course>
  <speed>4.61</speed>
  <fix>3d</fix>
</trkpt>
<trkpt lat="-27.2201576" lon="151.4294759">
  <ele>539.22</ele>
  <time>2026-09-01T20:00:56Z</time>
  <course>185.57</course>
  <speed>4.430541727599459</speed>
  <fix>3d</fix>
</trkpt>
<trkpt lat="-27.2201503" lon="151.4294714">
  <ele>538.71</ele>
  <time>2026-09-01T20:00:56Z</time>
  <course>151.64</course>
  <speed>4.61</speed>
  <fix>3d</fix>
</trkpt>
<trkpt lat="-27.220161" lon="151.4294782">
  <ele>539.51</ele>
  <time>2026-09-01T20:00:56Z</time>
  <course>184.93</course>
  <speed>4.3786413417862855</speed>
  <fix>3d</fix>
</trkpt>
<trkpt lat="-27.2201573" lon="151.4294758">
  <ele>539.22</ele>
  <time>2026-09-01T20:00:56Z</time>
  <course>150.14</course>
  <speed>4.44</speed>
  <fix>3d</fix>
</trkpt>
<trkpt lat="-27.2201644" lon="151.4294804">
  <ele>539.82</ele>
  <time>2026-09-01T20:00:56Z</time>
  <course>184.53</course>
  <speed>4.330461869131282</speed>
  <fix>3d</fix>
</trkpt>
<trkpt lat="-27.2201573" lon="151.4294758">
  <ele>539.22</ele>
  <time>2026-09-01T20:00:56Z</time>
  <course>150.14</course>
  <speed>4.44</speed>
  <fix>3d</fix>
</trkpt>
<trkpt lat="-27.2201677" lon="151.4294826">
  <ele>540.15</ele>
  <time>2026-09-01T20:00:56Z</time>
  <course>184.28</course>
  <speed>4.303080292069856</speed>
  <fix>3d</fix>
</trkpt>
<trkpt lat="-27.2201642" lon="151.4294803">
  <ele>539.81</ele>
  <time>2026-09-01T20:00:56Z</time>
  <course>149.54</course>
  <speed>4.34</speed>
  <fix>3d</fix>
</trkpt>
<trkpt lat="-27.2201709" lon="151.4294847">
  <ele>540.48</ele>
  <time>2026-09-01T20:00:56Z</time>
  <course>184.1</course>
  <speed>4.267083312990268</speed>
  <fix>3d</fix>
</trkpt>
<trkpt lat="-27.2201642" lon="151.4294803">
  <ele>539.81</ele>
  <time>2026-09-01T20:00:56Z</time>
  <course>149.54</course>
  <speed>4.34</speed>
  <fix>3d</fix>
</trkpt>
<trkpt lat="-27.2201743" lon="151.429487">
  <ele>540.82</ele>
  <time>2026-09-01T20:00:56Z</time>
  <course>183.96</course>
  <speed>4.239716971685728</speed>
  <fix>3d</fix>
</trkpt>
<trkpt lat="-27.2201709" lon="151.4294847">
  <ele>540.46</ele>
  <time>2026-09-01T20:00:56Z</time>
  <course>149.57</course>
  <speed>4.27</speed>
  <fix>3d</fix>
</trkpt>
<trkpt lat="-27.2201776" lon="151.429489">
  <ele>541.15</ele>
  <time>2026-09-01T20:00:56Z</time>
  <course>183.87</course>
  <speed>4.217404415040132</speed>
  <fix>3d</fix>
</trkpt>
<trkpt lat="-27.2201709" lon="151.4294847">
  <ele>540.46</ele>
  <time>2026-09-01T20:00:56Z</time>
  <course>149.57</course>
  <speed>4.27</speed>
  <fix>3d</fix>
</trkpt>
<trkpt lat="-27.2201809" lon="151.4294913">
  <ele>541.49</ele>
  <time>2026-09-01T20:00:56Z</time>
  <course>183.83</course>
  <speed>4.182929595391249</speed>
  <fix>3d</fix>
</trkpt>
<trkpt lat="-27.2201774" lon="151.429489">
  <ele>541.13</ele>
  <time>2026-09-01T20:00:56Z</time>
  <course>149.52</course>
  <speed>4.21</speed>
  <fix>3d</fix>
</trkpt>
<trkpt lat="-27.2201841" lon="151.4294935">
  <ele>541.82</ele>
  <time>2026-09-01T20:00:56Z</time>
  <course>183.83</course>
  <speed>4.141750837508215</speed>
  <fix>3d</fix>
</trkpt>
<trkpt lat="-27.2201774" lon="151.429489">
  <ele>541.13</ele>
  <time>2026-09-01T20:00:56Z</time>
  <course>149.52</course>
  <speed>4.21</speed>
  <fix>3d</fix>
</trkpt>
<trkpt lat="-27.2201872" lon="151.4294957">
  <ele>542.14</ele>
  <time>2026-09-01T20:00:56Z</time>
  <course>183.86</course>
  <speed>4.084176783637065</speed>
  <fix>3d</fix>
</trkpt>
<trkpt lat="-27.2201839" lon="151.4294934">
  <ele>541.79</ele>
  <time>2026-09-01T20:00:56Z</time>
  <course>148.64</course>
  <speed>4.14</speed>
  <fix>3d</fix>
</trkpt>
<trkpt lat="-27.2201903" lon="151.4294979">
  <ele>542.45</ele>
  <time>2026-09-01T20:00:56Z</time>
  <course>183.98</course>
  <speed>3.9939579366838602</speed>
  <fix>3d</fix>
</trkpt>
<trkpt lat="-27.2201839" lon="151.4294934">
  <ele>541.79</ele>
  <time>2026-09-01T20:00:56Z</time>
  <course>148.64</course>
  <speed>4.14</speed>
  <fix>3d</fix>
</trkpt>
<trkpt lat="-27.2201933" lon="151.4295">
  <ele>542.75</ele>
  <time>2026-09-01T20:00:56Z</time>
  <course>184.19</course>
  <speed>3.8776410354750475</speed>
  <fix>3d</fix>
</trkpt>
<trkpt lat="-27.2201901" lon="151.4294977">
  <ele>542.43</ele>
  <time>2026-09-01T20:00:56Z</time>
  <course>146.8</course>
  <speed>3.99</speed>
  <fix>3d</fix>
</trkpt>
<trkpt lat="-27.2201961" lon="151.4295023">
  <ele>543.04</ele>
  <time>2026-09-01T20:00:56Z</time>
  <course>184.45</course>
  <speed>3.7327335827781765</speed>
  <fix>3d</fix>
</trkpt>
<trkpt lat="-27.2201901" lon="151.4294977">
  <ele>542.43</ele>
  <time>2026-09-01T20:00:56Z</time>
  <course>146.8</course>
  <speed>3.99</speed>
  <fix>3d</fix>
</trkpt>
<trkpt lat="-27.2201987" lon="151.4295045">
  <ele>543.33</ele>
  <time>2026-09-01T20:00:56Z</time>
  <course>184.73</course>
  <speed>3.56808071657579</speed>
  <fix>3d</fix>
</trkpt>
<trkpt lat="-27.2201958" lon="151.4295022">
  <ele>543.03</ele>
  <time>2026-09-01T20:00:56Z</time>
  <course>144.31</course>
  <speed>3.73</speed>
  <fix>3d</fix>
</trkpt>
<trkpt lat="-27.2202012" lon="151.4295067">
  <ele>543.6</ele>
  <time>2026-09-01T20:00:56Z</time>
  <course>185.03</course>
  <speed>3.3858529206095174</speed>
  <fix>3d</fix>
</trkpt>
<trkpt lat="-27.2201958" lon="151.4295022">
  <ele>543.03</ele>
  <time>2026-09-01T20:00:56Z</time>
  <course>144.31</course>
  <speed>3.73</speed>
  <fix>3d</fix>
</trkpt>
<trkpt lat="-27.2202034" lon="151.4295087">
  <ele>543.87</ele>
  <time>2026-09-01T20:00:56Z</time>
  <course>185.36</course>
  <speed>3.1910499839394557</speed>
  <fix>3d</fix>
</trkpt>
<trkpt lat="-27.2202009" lon="151.4295065">
  <ele>543.58</ele>
  <time>2026-09-01T20:00:56Z</time>
  <course>141.23</course>
  <speed>3.39</speed>
  <fix>3d</fix>
</trkpt>
<trkpt lat="-27.2202055" lon="151.4295109">
  <ele>544.14</ele>
  <time>2026-09-01T20:00:56Z</time>
  <course>185.73</course>
  <speed>3.000266654815868</speed>
  <fix>3d</fix>
</trkpt>
<trkpt lat="-27.2202009" lon="151.4295065">
  <ele>543.58</ele>
  <time>2026-09-01T20:00:56Z</time>
  <course>141.23</course>
  <speed>3.39</speed>
  <fix>3d</fix>
</trkpt>
<trkpt lat="-27.2202074" lon="151.4295129">
  <ele>544.4</ele>
  <time>2026-09-01T20:00:56Z</time>
  <course>186.12</course>
  <speed>2.8001428534987283</speed>
  <fix>3d</fix>
</trkpt>
<trkpt lat="-27.2202052" lon="151.4295107">
  <ele>544.12</ele>
  <time>2026-09-01T20:00:56Z</time>
  <course>137.34</course>
  <speed>3.01</speed>
  <fix>3d</fix>
</trkpt>
<trkpt lat="-27.2202091" lon="151.4295148">
  <ele>544.65</ele>
  <time>2026-09-01T20:00:56Z</time>
  <course>186.55</course>
  <speed>2.605263902179585</speed>
  <fix>3d</fix>
</trkpt>
<trkpt lat="-27.2202052" lon="151.4295107">
  <ele>544.12</ele>
  <time>2026-09-01T20:00:56Z</time>
  <course>137.34</course>
  <speed>3.01</speed>
  <fix>3d</fix>
</trkpt>
<trkpt lat="-27.2202105" lon="151.4295167">
  <ele>544.9</ele>
  <time>2026-09-01T20:00:56Z</time>
  <course>187.0</course>
  <speed>2.4020824298928627</speed>
  <fix>3d</fix>
</trkpt>
<trkpt lat="-27.2202089" lon="151.4295147">
  <ele>544.64</ele>
  <time>2026-09-01T20:00:56Z</time>
  <course>132.35</course>
  <speed>2.61</speed>
  <fix>3d</fix>
</trkpt>
<trkpt lat="-27.2202118" lon="151.4295187">
  <ele>545.15</ele>
  <time>2026-09-01T20:00:56Z</time>
  <course>187.45</course>
  <speed>2.206399782451041</speed>
  <fix>3d</fix>
</trkpt>
<trkpt lat="-27.2202089" lon="151.4295147">
  <ele>544.64</ele>
  <time>2026-09-01T20:00:56Z</time>
  <course>132.35</course>
  <speed>2.61</speed>
  <fix>3d</fix>
</trkpt>
<trkpt lat="-27.2202129" lon="151.4295204">
  <ele>545.39</ele>
  <time>2026-09-01T20:00:56Z</time>
  <course>187.9</course>
  <speed>2.025660386145713</speed>
  <fix>3d</fix>
</trkpt>
<trkpt lat="-27.2202116" lon="151.4295185">
  <ele>545.13</ele>
  <time>2026-09-01T20:00:56Z</time>
  <course>125.95</course>
  <speed>2.22</speed>
  <fix>3d</fix>
</trkpt>
<trkpt lat="-27.2202137" lon="151.429522">
  <ele>545.63</ele>
  <time>2026-09-01T20:00:56Z</time>
  <course>188.33</course>
  <speed>1.847187050625897</speed>
  <fix>3d</fix>
</trkpt>
<trkpt lat="-27.2202116" lon="151.4295185">
  <ele>545.13</ele>
  <time>2026-09-01T20:00:56Z</time>
  <course>125.95</course>
  <speed>2.22</speed>
  <fix>3d</fix>
</trkpt>
<trkpt lat="-27.2202144" lon="151.4295238">
  <ele>545.87</ele>
  <time>2026-09-01T20:00:56Z</time>
  <course>188.71</course>
  <speed>1.6861791126686392</speed>
  <fix>3d</fix>
</trkpt>
<trkpt lat="-27.2202136" lon="151.429522">
  <ele>545.62</ele>
  <time>2026-09-01T20:00:56Z</time>
  <course>117.76</course>
  <speed>1.86</speed>
  <fix>3d</fix>
</trkpt>
<trkpt lat="-27.220215" lon="151.4295253">
  <ele>546.06</ele>
  <time>2026-09-01T20:00:56Z</time>
  <course>188.78</course>
  <speed>1.647938105633825</speed>
  <fix>3d</fix>
</trkpt>
<trkpt lat="-27.2202136" lon="151.429522">
  <ele>545.62</ele>
  <time>2026-09-01T20:00:56Z</time>
  <course>117.76</course>
  <speed>1.86</speed>
  <fix>3d</fix>
</trkpt>
<trkpt lat="-27.2202156" lon="151.4295268">
  <ele>546.15</ele>
  <time>2026-09-01T20:00:56Z</time>
  <course>188.38</course>
  <speed>1.6337074401495513</speed>
  <fix>3d</fix>
</trkpt>
<trkpt lat="-27.220215" lon="151.4295252">
  <ele>546.0</ele>
  <time>2026-09-01T20:00:56Z</time>
  <course>113.48</course>
  <speed>1.66</speed>
  <fix>3d</fix>
</trkpt>
<trkpt lat="-27.2202162" lon="151.4295282">
  <ele>546.14</ele>
  <time>2026-09-01T20:00:56Z</time>
  <course>187.69</course>
  <speed>1.6113658802394943</speed>
  <fix>3d</fix>
</trkpt>
<trkpt lat="-27.220215" lon="151.4295252">
  <ele>546.0</ele>
  <time>2026-09-01T20:00:56Z</time>
  <course>113.48</course>
  <speed>1.66</speed>
  <fix>3d</fix>
</trkpt>
<trkpt lat="-27.2202168" lon="151.4295297">
  <ele>546.03</ele>
  <time>2026-09-01T20:00:56Z</time>
  <course>186.67</course>
  <speed>1.5717824276915684</speed>
  <fix>3d</fix>
</trkpt>
<trkpt lat="-27.2202161" lon="151.4295282">
  <ele>546.09</ele>
  <time>2026-09-01T20:00:56Z</time>
  <course>113.98</course>
  <speed>1.61</speed>
  <fix>3d</fix>
</trkpt>
<trkpt lat="-27.2202173" lon="151.4295311">
  <ele>545.85</ele>
  <time>2026-09-01T20:00:56Z</time>
  <course>185.09</course>
  <speed>1.49164338901763</speed>
  <fix>3d</fix>
</trkpt>
<trkpt lat="-27.2202161" lon="151.4295282">
  <ele>546.09</ele>
  <time>2026-09-01T20:00:56Z</time>
  <course>113.98</course>
  <speed>1.61</speed>
  <fix>3d</fix>
</trkpt>
<trkpt lat="-27.2202178" lon="151.4295325">
  <ele>545.58</ele>
  <time>2026-09-01T20:00:56Z</time>
  <course>182.56</course>
  <speed>1.3788400922514545</speed>
  <fix>3d</fix>
</trkpt>
<trkpt lat="-27.2202172" lon="151.4295311">
  <ele>545.81</ele>
  <time>2026-09-01T20:00:56Z</time>
  <course>113.81</course>
  <speed>1.48</speed>
  <fix>3d</fix>
</trkpt>
<trkpt lat="-27.2202183" lon="151.4295338">
  <ele>545.26</ele>
  <time>2026-09-01T20:00:56Z</time>
  <course>178.75</course>
  <speed>1.2300406497347964</speed>
  <fix>3d</fix>
</trkpt>
<trkpt lat="-27.2202172" lon="151.4295311">
  <ele>545.81</ele>
  <time>2026-09-01T20:00:56Z</time>
  <course>113.81</course>
  <speed>1.48</speed>
  <fix>3d</fix>
</trkpt>
<trkpt lat="-27.2202188" lon="151.4295348">
  <ele>544.87</ele>
  <time>2026-09-01T20:00:56Z</time>
  <course>173.71</course>
  <speed>1.0917875251164946</speed>
  <fix>3d</fix>
</trkpt>
<trkpt lat="-27.2202183" lon="151.4295336">
  <ele>545.24</ele>
  <time>2026-09-01T20:00:56Z</time>
  <course>115.96</course>
  <speed>1.24</speed>
  <fix>3d</fix>
</trkpt>
<trkpt lat="-27.2202193" lon="151.4295357">
  <ele>544.44</ele>
  <time>2026-09-01T20:00:56Z</time>
  <course>168.29</course>
  <speed>0.9964436762808022</speed>
  <fix>3d</fix>
</trkpt>
<trkpt lat="-27.2202183" lon="151.4295336">
  <ele>545.24</ele>
  <time>2026-09-01T20:00:56Z</time>
  <course>115.96</course>
  <speed>1.24</speed>
  <fix>3d</fix>
</trkpt>
<trkpt lat="-27.2202198" lon="151.4295366">
  <ele>543.97</ele>
  <time>2026-09-01T20:00:56Z</time>
  <course>163.18</course>
  <speed>0.9347726996441434</speed>
  <fix>3d</fix>
</trkpt>
<trkpt lat="-27.2202192" lon="151.4295356">
  <ele>544.43</ele>
  <time>2026-09-01T20:00:56Z</time>
  <course>121.36</course>
  <speed>1.01</speed>
  <fix>3d</fix>
</trkpt>
<trkpt lat="-27.2202203" lon="151.4295373">
  <ele>543.44</ele>
  <time>2026-09-01T20:00:56Z</time>
  <course>158.48</course>
  <speed>0.9154780172128657</speed>
  <fix>3d</fix>
</trkpt>
<trkpt lat="-27.2202192" lon="151.4295356">
  <ele>544.43</ele>
  <time>2026-09-01T20:00:56Z</time>
  <course>121.36</course>
  <speed>1.01</speed>
  <fix>3d</fix>
</trkpt>
<trkpt lat="-27.2202208" lon="151.4295379">
  <ele>542.86</ele>
  <time>2026-09-01T20:00:56Z</time>
  <course>154.05</course>
  <speed>0.9546203433826455</speed>
  <fix>3d</fix>
</trkpt>
<trkpt lat="-27.2202202" lon="151.4295372">
  <ele>543.43</ele>
  <time>2026-09-01T20:00:56Z</time>
  <course>130.14</course>
  <speed>0.94</speed>
  <fix>3d</fix>
</trkpt>
<trkpt lat="-27.2202215" lon="151.4295387">
  <ele>542.23</ele>
  <time>2026-09-01T20:00:56Z</time>
  <course>149.84</course>
  <speed>1.029417310909429</speed>
  <fix>3d</fix>
</trkpt>
<trkpt lat="-27.2202202" lon="151.4295372">
  <ele>543.43</ele>
  <time>2026-09-01T20:00:56Z</time>
  <course>130.14</course>
  <speed>0.94</speed>
  <fix>3d</fix>
</trkpt>
<trkpt lat="-27.2202223" lon="151.4295393">
  <ele>541.54</ele>
  <time>2026-09-01T20:00:56Z</time>
  <course>145.73</course>
  <speed>1.1420157617125957</speed>
  <fix>3d</fix>
</trkpt>
<trkpt lat="-27.2202215" lon="151.4295386">
  <ele>542.23</ele>
  <time>2026-09-01T20:00:56Z</time>
  <course>139.45</course>
  <speed>1.04</speed>
  <fix>3d</fix>
</trkpt>
<trkpt lat="-27.2202234" lon="151.4295402">
  <ele>540.78</ele>
  <time>2026-09-01T20:00:56Z</time>
  <course>140.98</course>
  <speed>1.9568597292601226</speed>
  <fix>3d</fix>
</trkpt>
<trkpt lat="-27.2202215" lon="151.4295386">
  <ele>542.23</ele>
  <time>2026-09-01T20:00:56Z</time>
  <course>139.45</course>
  <speed>1.04</speed>
  <fix>3d</fix>
</trkpt>
<trkpt lat="-27.2202252" lon="151.4295414">
  <ele>539.95</ele>
  <time>2026-09-01T20:00:56Z</time>
  <course>133.82</course>
  <speed>2.47987902930768</speed>
  <fix>3d</fix>
</trkpt>
<trkpt lat="-27.2202236" lon="151.4295402">
  <ele>540.78</ele>
  <time>2026-09-01T20:00:56Z</time>
  <course>147.19</course>
  <speed>1.8</speed>
  <fix>3d</fix>
</trkpt>
<trkpt lat="-27.2202271" lon="151.4295426">
  <ele>539.04</ele>
  <time>2026-09-01T20:00:56Z</time>
  <course>122.54</course>
  <speed>2.565618833731932</speed>
  <fix>3d</fix>
</trkpt>
<trkpt lat="-27.2202236" lon="151.4295402">
  <ele>540.78</ele>
  <time>2026-09-01T20:00:56Z</time>
  <course>147.19</course>
  <speed>1.8</speed>
  <fix>3d</fix>
</trkpt>
<trkpt lat="-27.2202291" lon="151.429544">
  <ele>538.04</ele>
  <time>2026-09-01T20:00:56Z</time>
  <course>110.74</course>
  <speed>2.4129857024027306</speed>
  <fix>3d</fix>
</trkpt>
<trkpt lat="-27.220227" lon="151.4295426">
  <ele>539.03</ele>
  <time>2026-09-01T20:00:56Z</time>
  <course>149.07</course>
  <speed>2.44</speed>
  <fix>3d</fix>
</trkpt>
<trkpt lat="-27.2202309" lon="151.4295452">
  <ele>536.94</ele>
  <time>2026-09-01T20:00:56Z</time>
  <course>111.15</course>
  <speed>2.323811524198983</speed>
  <fix>3d</fix>
</trkpt>
<trkpt lat="-27.220227" lon="151.4295426">
  <ele>539.03</ele>
  <time>2026-09-01T20:00:56Z</time>
  <course>149.07</course>
  <speed>2.44</speed>
  <fix>3d</fix>
</trkpt>
<trkpt lat="-27.2202327" lon="151.4295464">
  <ele>535.75</ele>
  <time>2026-09-01T20:00:56Z</time>
  <course>114.78</course>
  <speed>2.571089263327899</speed>
  <fix>3d</fix>
</trkpt>
<trkpt lat="-27.2202308" lon="151.4295452">
  <ele>536.94</ele>
  <time>2026-09-01T20:00:56Z</time>
  <course>147.49</course>
  <speed>2.49</speed>
  <fix>3d</fix>
</trkpt>
<trkpt lat="-27.2202348" lon="151.4295483">
  <ele>534.49</ele>
  <time>2026-09-01T20:00:56Z</time>
  <course>114.86</course>
  <speed>3.279466420014085</speed>
  <fix>3d</fix>
</trkpt>
<trkpt lat="-27.2202308" lon="151.4295452">
  <ele>536.94</ele>
  <time>2026-09-01T20:00:56Z</time>
  <course>147.49</course>
  <speed>2.49</speed>
  <fix>3d</fix>
</trkpt>
<trkpt lat="-27.2202371" lon="151.4295511">
  <ele>533.16</ele>
  <time>2026-09-01T20:00:56Z</time>
  <course>114.13</course>
  <speed>4.320092591600323</speed>
  <fix>3d</fix>
</trkpt>
<trkpt lat="-27.2202348" lon="151.4295487">
  <ele>534.51</ele>
  <time>2026-09-01T20:00:56Z</time>
  <course>135.86</course>
  <speed>3.38</speed>
  <fix>3d</fix>
</trkpt>
<trkpt lat="-27.2202397" lon="151.4295551">
  <ele>531.79</ele>
  <time>2026-09-01T20:00:56Z</time>
  <course>114.31</course>
  <speed>5.516230597065356</speed>
  <fix>3d</fix>
</trkpt>
<trkpt lat="-27.2202348" lon="151.4295487">
  <ele>534.51</ele>
  <time>2026-09-01T20:00:56Z</time>
  <course>135.86</course>
  <speed>3.38</speed>
  <fix>3d</fix>
</trkpt>
<trkpt lat="-27.2202423" lon="151.4295606">
  <ele>530.41</ele>
  <time>2026-09-01T20:00:56Z</time>
  <course>115.33</course>
  <speed>6.726187627475166</speed>
  <fix>3d</fix>
</trkpt>
<trkpt lat="-27.2202396" lon="151.4295556">
  <ele>531.84</ele>
  <time>2026-09-01T20:00:56Z</time>
  <course>122.01</course>
  <speed>5.44</speed>
  <fix>3d</fix>
</trkpt>
<trkpt lat="-27.2202452" lon="151.4295673">
  <ele>529.0</ele>
  <time>2026-09-01T20:00:56Z</time>
  <course>116.49</course>
  <speed>7.927830724731702</speed>
  <fix>3d</fix>
</trkpt>
<trkpt lat="-27.2202396" lon="151.4295556">
  <ele>531.84</ele>
  <time>2026-09-01T20:00:56Z</time>
  <course>122.01</course>
  <speed>5.44</speed>
  <fix>3d</fix>
</trkpt>
<trkpt lat="-27.2202482" lon="151.4295751">
  <ele>527.59</ele>
  <time>2026-09-01T20:00:56Z</time>
  <course>117.33</course>
  <speed>9.16930204541218</speed>
  <fix>3d</fix>
</trkpt>
<trkpt lat="-27.2202451" lon="151.4295675">
  <ele>529.06</ele>
  <time>2026-09-01T20:00:56Z</time>
  <course>114.65</course>
  <speed>7.89</speed>
  <fix>3d</fix>
</trkpt>
<trkpt lat="-27.2202516" lon="151.4295843">
  <ele>526.19</ele>
  <time>2026-09-01T20:00:56Z</time>
  <course>117.78</course>
  <speed>10.470386812338884</speed>
  <fix>3d</fix>
</trkpt>
<trkpt lat="-27.2202451" lon="151.4295675">
  <ele>529.06</ele>
  <time>2026-09-01T20:00:56Z</time>
  <course>114.65</course>
  <speed>7.89</speed>
  <fix>3d</fix>
</trkpt>
<trkpt lat="-27.2202556" lon="151.4295946">
  <ele>524.83</ele>
  <time>2026-09-01T20:00:56Z</time>
  <course>117.87</course>
  <speed>11.757861200065257</speed>
  <fix>3d</fix>
</trkpt>
<trkpt lat="-27.2202518" lon="151.4295845">
  <ele>526.27</ele>
  <time>2026-09-01T20:00:56Z</time>
  <course>113.63</course>
  <speed>10.42</speed>
  <fix>3d</fix>
</trkpt>
<trkpt lat="-27.2202604" lon="151.429606">
  <ele>523.52</ele>
  <time>2026-09-01T20:00:56Z</time>
  <course>117.7</course>
  <speed>13.006140857302753</speed>
  <fix>3d</fix>
</trkpt>
<trkpt lat="-27.2202518" lon="151.4295845">
  <ele>526.27</ele>
  <time>2026-09-01T20:00:56Z</time>
  <course>113.63</course>
  <speed>10.42</speed>
  <fix>3d</fix>
</trkpt>
<trkpt lat="-27.2202658" lon="151.4296182">
  <ele>522.27</ele>
  <time>2026-09-01T20:00:56Z</time>
  <course>117.43</course>
  <speed>14.173217701002127</speed>
  <fix>3d</fix>
</trkpt>
<trkpt lat="-27.2202605" lon="151.429606">
  <ele>523.59</ele>
  <time>2026-09-01T20:00:56Z</time>
  <course>115.84</course>
  <speed>12.92</speed>
  <fix>3d</fix>
</trkpt>
<trkpt lat="-27.220272" lon="151.4296314">
  <ele>521.1</ele>
  <time>2026-09-01T20:00:56Z</time>
  <course>117.11</course>
  <speed>15.274161188098024</speed>
  <fix>3d</fix>
</trkpt>
<trkpt lat="-27.2202605" lon="151.429606">
  <ele>523.59</ele>
  <time>2026-09-01T20:00:56Z</time>
  <course>115.84</course>
  <speed>12.92</speed>
  <fix>3d</fix>
</trkpt>
<trkpt lat="-27.2202787" lon="151.4296455">
  <ele>520.03</ele>
  <time>2026-09-01T20:00:56Z</time>
  <course>116.79</course>
  <speed>16.270602324437778</speed>
  <fix>3d</fix>
</trkpt>
<trkpt lat="-27.220272" lon="151.4296314">
  <ele>521.18</ele>
  <time>2026-09-01T20:00:56Z</time>
  <course>117.92</course>
  <speed>15.19</speed>
  <fix>3d</fix>
</trkpt>
<trkpt lat="-27.2202859" lon="151.4296603">
  <ele>519.07</ele>
  <time>2026-09-01T20:00:56Z</time>
  <course>116.45</course>
  <speed>17.144806793895345</speed>
  <fix>3d</fix>
</trkpt>
<trkpt lat="-27.220272" lon="151.4296314">
  <ele>521.18</ele>
  <time>2026-09-01T20:00:56Z</time>
  <course>117.92</course>
  <speed>15.19</speed>
  <fix>3d</fix>
</trkpt>
<trkpt lat="-27.2202933" lon="151.4296759">
  <ele>518.24</ele>
  <time>2026-09-01T20:00:56Z</time>
  <course>116.09</course>
  <speed>17.850809505453807</speed>
  <fix>3d</fix>
</trkpt>
<trkpt lat="-27.2202857" lon="151.4296602">
  <ele>519.16</ele>
  <time>2026-09-01T20:00:56Z</time>
  <course>118.03</course>
  <speed>17.04</speed>
  <fix>3d</fix>
</trkpt>
<trkpt lat="-27.2203007" lon="151.4296923">
  <ele>517.53</ele>
  <time>2026-09-01T20:00:56Z</time>
  <course>115.69</course>
  <speed>18.384955806310767</speed>
  <fix>3d</fix>
</trkpt>
<trkpt lat="-27.2202857" lon="151.4296602">
  <ele>519.16</ele>
  <time>2026-09-01T20:00:56Z</time>
  <course>118.03</course>
  <speed>17.04</speed>
  <fix>3d</fix>
</trkpt>
<trkpt lat="-27.220308" lon="151.4297091">
  <ele>516.96</ele>
  <time>2026-09-01T20:00:56Z</time>
  <course>115.29</course>
  <speed>18.750693320514845</speed>
  <fix>3d</fix>
</trkpt>
<trkpt lat="-27.2203003" lon="151.429692">
  <ele>517.62</ele>
  <time>2026-09-01T20:00:56Z</time>
  <course>116.5</course>
  <speed>18.29</speed>
  <fix>3d</fix>
</trkpt>
<trkpt lat="-27.2203151" lon="151.4297264">
  <ele>516.52</ele>
  <time>2026-09-01T20:00:56Z</time>
  <course>115.0</course>
  <speed>18.95137198199645</speed>
  <fix>3d</fix>
</trkpt>
<trkpt lat="-27.2203003" lon="151.429692">
  <ele>517.62</ele>
  <time>2026-09-01T20:00:56Z</time>
  <course>116.5</course>
  <speed>18.29</speed>
  <fix>3d</fix>
</trkpt>
<trkpt lat="-27.2203221" lon="151.4297439">
  <ele>516.18</ele>
  <time>2026-09-01T20:00:56Z</time>
  <course>114.85</course>
  <speed>19.004236369820283</speed>
  <fix>3d</fix>
</trkpt>
<trkpt lat="-27.2203148" lon="151.4297259">
  <ele>516.58</ele>
  <time>2026-09-01T20:00:56Z</time>
  <course>114.72</course>
  <speed>18.87</speed>
  <fix>3d</fix>
</trkpt>
<trkpt lat="-27.220329" lon="151.4297614">
  <ele>515.93</ele>
  <time>2026-09-01T20:00:56Z</time>
  <course>114.72</course>
  <speed>18.95987605444719</speed>
  <fix>3d</fix>
</trkpt>
<trkpt lat="-27.2203148" lon="151.4297259">
  <ele>516.58</ele>
  <time>2026-09-01T20:00:56Z</time>
  <course>114.72</course>
  <speed>18.87</speed>
  <fix>3d</fix>
</trkpt>
<trkpt lat="-27.2203359" lon="151.4297791">
  <ele>515.71</ele>
  <time>2026-09-01T20:00:56Z</time>
  <course>114.5</course>
  <speed>18.862547547985134</speed>
  <fix>3d</fix>
</trkpt>
<trkpt lat="-27.2203287" lon="151.4297608">
  <ele>515.95</ele>
  <time>2026-09-01T20:00:56Z</time>
  <course>113.76</course>
  <speed>18.94</speed>
  <fix>3d</fix>
</trkpt>
<trkpt lat="-27.2203426" lon="151.4297964">
  <ele>515.52</ele>
  <time>2026-09-01T20:00:56Z</time>
  <course>114.21</course>
  <speed>18.745730180497105</speed>
  <fix>3d</fix>
</trkpt>
<trkpt lat="-27.2203287" lon="151.4297608">
  <ele>515.95</ele>
  <time>2026-09-01T20:00:56Z</time>
  <course>113.76</course>
  <speed>18.94</speed>
  <fix>3d</fix>
</trkpt>
<trkpt lat="-27.2203494" lon="151.4298138">
  <ele>515.35</ele>
  <time>2026-09-01T20:00:56Z</time>
  <course>113.88</course>
  <speed>18.623761703801947</speed>
  <fix>3d</fix>
</trkpt>
<trkpt lat="-27.2203423" lon="151.4297957">
  <ele>515.53</ele>
  <time>2026-09-01T20:00:56Z</time>
  <course>113.6</course>
  <speed>18.75</speed>
  <fix>3d</fix>
</trkpt>
<trkpt lat="-27.2203561" lon="151.429831">
  <ele>515.16</ele>
  <time>2026-09-01T20:00:56Z</time>
  <course>113.6</course>
  <speed>18.501816127072498</speed>
  <fix>3d</fix>
</trkpt>
<trkpt lat="-27.2203423" lon="151.4297957">
  <ele>515.53</ele>
  <time>2026-09-01T20:00:56Z</time>
  <course>113.6</course>
  <speed>18.75</speed>
  <fix>3d</fix>
</trkpt>
<trkpt lat="-27.2203627" lon="151.429848">
  <ele>515.0</ele>
  <time>2026-09-01T20:00:56Z</time>
  <course>113.39</course>
  <speed>18.385018357347377</speed>
  <fix>3d</fix>
</trkpt>
<trkpt lat="-27.2203557" lon="151.4298302">
  <ele>515.18</ele>
  <time>2026-09-01T20:00:56Z</time>
  <course>113.69</course>
  <speed>18.51</speed>
  <fix>3d</fix>
</trkpt>
<trkpt lat="-27.2185511" lon="151.4338502">
  <ele>542.98</ele>
  <time>2026-09-01T20:00:56Z</time>
  <course>250.01</course>
  <speed>0.0</speed>
  <fix>3d</fix>
</trkpt>
<trkpt lat="-27.2203557" lon="151.4298302">
  <ele>515.18</ele>
  <time>2026-09-01T20:00:56Z</time>
  <course>113.69</course>
  <speed>18.51</speed>
  <fix>3d</fix>
</trkpt>
<trkpt lat="-27.2185512" lon="151.4338502">
  <ele>542.89</ele>
  <time>2026-09-01T20:00:56Z</time>
  <course>250.01</course>
  <speed>0.01</speed>
  <fix>3d</fix>
</trkpt>
<trkpt lat="-27.2194568" lon="151.4318487">
  <ele>528.95</ele>
  <time>2026-09-01T20:00:56Z</time>
  <course>113.77</course>
  <speed>9.19</speed>
  <fix>3d</fix>
</trkpt>
<trkpt lat="-27.2185512" lon="151.4338501">
  <ele>542.7</ele>
  <time>2026-09-01T20:00:56Z</time>
  <course>250.01</course>
  <speed>0.044721359549995794</speed>
  <fix>3d</fix>
</trkpt>
<trkpt lat="-27.2194568" lon="151.4318487">
  <ele>528.95</ele>
  <time>2026-09-01T20:00:56Z</time>
  <course>113.77</course>
  <speed>9.19</speed>
  <fix>3d</fix>
</trkpt>
<trkpt lat="-27.2185512" lon="151.4338501">
  <ele>542.41</ele>
  <time>2026-09-01T20:00:56Z</time>
  <course>250.52</course>
  <speed>0.11704699910719625</speed>
  <fix>3d</fix>
</trkpt>
<trkpt lat="-27.2185512" lon="151.4338501">
  <ele>542.66</ele>
  <time>2026-09-01T20:00:56Z</time>
  <course>247.85</course>
  <speed>0.06</speed>
  <fix>3d</fix>
</trkpt>
<trkpt lat="-27.2185512" lon="151.4338498">
  <ele>542.06</ele>
  <time>2026-09-01T20:00:56Z</time>
  <course>253.44</course>
  <speed>0.24515301344262524</speed>
  <fix>3d</fix>
</trkpt>
<trkpt lat="-27.2185512" lon="151.4338501">
  <ele>542.66</ele>
  <time>2026-09-01T20:00:56Z</time>
  <course>247.85</course>
  <speed>0.06</speed>
  <fix>3d</fix>
</trkpt>
<trkpt lat="-27.2185511" lon="151.4338496">
  <ele>541.63</ele>
  <time>2026-09-01T20:00:56Z</time>
  <course>262.65</course>
  <speed>0.42720018726587655</speed>
  <fix>3d</fix>
</trkpt>
<trkpt lat="-27.2185511" lon="151.4338498">
  <ele>542.04</ele>
  <time>2026-09-01T20:00:56Z</time>
  <course>291.89</course>
  <speed>0.25</speed>
  <fix>3d</fix>
</trkpt>
<trkpt lat="-27.218551" lon="151.4338492">
  <ele>541.13</ele>
  <time>2026-09-01T20:00:56Z</time>
  <course>264.56</course>
  <speed>0.38013155617496425</speed>
  <fix>3d</fix>
</trkpt>
<trkpt lat="-27.2185511" lon="151.4338498">
  <ele>542.04</ele>
  <time>2026-09-01T20:00:56Z</time>
  <course>291.89</course>
  <speed>0.25</speed>
  <fix>3d</fix>
</trkpt>
<trkpt lat="-27.2185517" lon="151.4338491">
  <ele>540.57</ele>
  <time>2026-09-01T20:00:56Z</time>
  <course>252.33</course>
  <speed>1.7104677722775137</speed>
  <fix>3d</fix>
</trkpt>
<trkpt lat="-27.2185514" lon="151.4338493">
  <ele>541.12</ele>
  <time>2026-09-01T20:00:56Z</time>
  <course>193.36</course>
  <speed>0.73</speed>
  <fix>3d</fix>
</trkpt>
<trkpt lat="-27.2185539" lon="151.4338493">
  <ele>540.03</ele>
  <time>2026-09-01T20:00:56Z</time>
  <course>242.86</course>
  <speed>3.000833217624732</speed>
  <fix>3d</fix>
</trkpt>
<trkpt lat="-27.2185514" lon="151.4338493">
  <ele>541.12</ele>
  <time>2026-09-01T20:00:56Z</time>
  <course>193.36</course>
  <speed>0.73</speed>
  <fix>3d</fix>
</trkpt>
<trkpt lat="-27.2185569" lon="151.4338502">
  <ele>539.51</ele>
  <time>2026-09-01T20:00:56Z</time>
  <course>235.26</course>
  <speed>3.978341362930034</speed>
  <fix>3d</fix>
</trkpt>
<trkpt lat="-27.2185542" lon="151.4338496">
  <ele>540.06</ele>
  <time>2026-09-01T20:00:56Z</time>
  <course>169.08</course>
  <speed>2.79</speed>
  <fix>3d</fix>
</trkpt>
<trkpt lat="-27.2185607" lon="151.4338513">
  <ele>539.06</ele>
  <time>2026-09-01T20:00:56Z</time>
  <course>228.5</course>
  <speed>4.775981574503821</speed>
  <fix>3d</fix>
</trkpt>
<trkpt lat="-27.2185542" lon="151.4338496">
  <ele>540.06</ele>
  <time>2026-09-01T20:00:56Z</time>
  <course>169.08</course>
  <speed>2.79</speed>
  <fix>3d</fix>
</trkpt>
<trkpt lat="-27.2185652" lon="151.433853">
  <ele>538.68</ele>
  <time>2026-09-01T20:00:56Z</time>
  <course>222.25</course>
  <speed>5.591511423577707</speed>
  <fix>3d</fix>
</trkpt>
<trkpt lat="-27.2185609" lon="151.4338515">
  <ele>539.11</ele>
  <time>2026-09-01T20:00:56Z</time>
  <course>163.45</course>
  <speed>4.76</speed>
  <fix>3d</fix>
</trkpt>
<trkpt lat="-27.2185702" lon="151.4338548">
  <ele>538.39</ele>
  <time>2026-09-01T20:00:56Z</time>
  <course>216.17</course>
  <speed>6.090550057260838</speed>
  <fix>3d</fix>
</trkpt>
<trkpt lat="-27.2185609" lon="151.4338515">
  <ele>539.11</ele>
  <time>2026-09-01T20:00:56Z</time>
  <course>163.45</course>
  <speed>4.76</speed>
  <fix>3d</fix>
</trkpt>
<trkpt lat="-27.2185755" lon="151.4338569">
  <ele>538.18</ele>
  <time>2026-09-01T20:00:56Z</time>
  <course>210.85</course>
  <speed>6.411247928445756</speed>
  <fix>3d</fix>
</trkpt>
<trkpt lat="-27.2185702" lon="151.4338549">
  <ele>538.43</ele>
  <time>2026-09-01T20:00:56Z</time>
  <course>161.35</course>
  <speed>5.99</speed>
  <fix>3d</fix>
</trkpt>
<trkpt lat="-27.218581" lon="151.4338592">
  <ele>538.02</ele>
  <time>2026-09-01T20:00:56Z</time>
  <course>206.62</course>
  <speed>6.589476458718098</speed>
  <fix>3d</fix>
</trkpt>
<trkpt lat="-27.2185702" lon="151.4338549">
  <ele>538.43</ele>
  <time>2026-09-01T20:00:56Z</time>
  <course>161.35</course>
  <speed>5.99</speed>
  <fix>3d</fix>
</trkpt>
<trkpt lat="-27.2185866" lon="151.4338616">
  <ele>537.94</ele>
  <time>2026-09-01T20:00:56Z</time>
  <course>203.5</course>
  <speed>6.62375271277544</speed>
  <fix>3d</fix>
</trkpt>
<trkpt lat="-27.2185809" lon="151.4338591">
  <ele>538.06</ele>
  <time>2026-09-01T20:00:56Z</time>
  <course>159.3</course>
  <speed>6.52</speed>
  <fix>3d</fix>
</trkpt>
<trkpt lat="-27.2185921" lon="151.4338641">
  <ele>537.9</ele>
  <time>2026-09-01T20:00:56Z</time>
  <course>201.04</course>
  <speed>6.559245383426359</speed>
  <fix>3d</fix>
</trkpt>
<trkpt lat="-27.2185809" lon="151.4338591">
  <ele>538.06</ele>
  <time>2026-09-01T20:00:56Z</time>
  <course>159.3</course>
  <speed>6.52</speed>
  <fix>3d</fix>
</trkpt>
<trkpt lat="-27.2185974" lon="151.4338666">
  <ele>537.91</ele>
  <time>2026-09-01T20:00:56Z</time>
  <course>199.06</course>
  <speed>6.434034504103937</speed>
  <fix>3d</fix>
</trkpt>
<trkpt lat="-27.2185918" lon="151.433864">
  <ele>537.92</ele>
  <time>2026-09-01T20:00:56Z</time>
  <course>157.59</course>
  <speed>6.53</speed>
  <fix>3d</fix>
</trkpt>
<trkpt lat="-27.2186027" lon="151.4338692">
  <ele>537.93</ele>
  <time>2026-09-01T20:00:56Z</time>
  <course>197.47</course>
  <speed>6.283128201779747</speed>
  <fix>3d</fix>
</trkpt>
<trkpt lat="-27.2185918" lon="151.433864">
  <ele>537.92</ele>
  <time>2026-09-01T20:00:56Z</time>
  <course>157.59</course>
  <speed>6.53</speed>
  <fix>3d</fix>
</trkpt>
<trkpt lat="-27.2186078" lon="151.4338717">
  <ele>537.98</ele>
  <time>2026-09-01T20:00:56Z</time>
  <course>196.25</course>
  <speed>6.110360054857652</speed>
  <fix>3d</fix>
</trkpt>
<trkpt lat="-27.2186024" lon="151.4338691">
  <ele>537.94</ele>
  <time>2026-09-01T20:00:56Z</time>
  <course>156.48</course>
  <speed>6.28</speed>
  <fix>3d</fix>
</trkpt>
<trkpt lat="-27.2186127" lon="151.4338742">
  <ele>538.04</ele>
  <time>2026-09-01T20:00:56Z</time>
  <course>195.35</course>
  <speed>5.924837550515625</speed>
  <fix>3d</fix>
</trkpt>
<trkpt lat="-27.2186024" lon="151.4338691">
  <ele>537.94</ele>
  <time>2026-09-01T20:00:56Z</time>
  <course>156.48</course>
  <speed>6.28</speed>
  <fix>3d</fix>
</trkpt>
<trkpt lat="-27.2186175" lon="151.4338766">
  <ele>538.1</ele>
  <time>2026-09-01T20:00:56Z</time>
  <course>194.75</course>
  <speed>5.721651859384665</speed>
  <fix>3d</fix>
</trkpt>
<trkpt lat="-27.2186124" lon="151.4338741">
  <ele>538.04</ele>
  <time>2026-09-01T20:00:56Z</time>
  <course>155.42</course>
  <speed>5.93</speed>
  <fix>3d</fix>
</trkpt>
<trkpt lat="-27.218622" lon="151.4338792">
  <ele>538.18</ele>
  <time>2026-09-01T20:00:56Z</time>
  <course>194.45</course>
  <speed>5.523495270207081</speed>
  <fix>3d</fix>
</trkpt>
<trkpt lat="-27.2186124" lon="151.4338741">
  <ele>538.04</ele>
  <time>2026-09-01T20:00:56Z</time>
  <course>155.42</course>
  <speed>5.93</speed>
  <fix>3d</fix>
</trkpt>
<trkpt lat="-27.2186264" lon="151.4338816">
  <ele>538.26</ele>
  <time>2026-09-01T20:00:56Z</time>
  <course>194.43</course>
  <speed>5.295025967830565</speed>
  <fix>3d</fix>
</trkpt>
<trkpt lat="-27.2186218" lon="151.433879">
  <ele>538.17</ele>
  <time>2026-09-01T20:00:56Z</time>
  <course>154.12</course>
  <speed>5.52</speed>
  <fix>3d</fix>
</trkpt>
<trkpt lat="-27.2186306" lon="151.433884">
  <ele>538.34</ele>
  <time>2026-09-01T20:00:56Z</time>
  <course>194.7</course>
  <speed>5.0678003117723565</speed>
  <fix>3d</fix>
</trkpt>
<trkpt lat="-27.2186218" lon="151.433879">
  <ele>538.17</ele>
  <time>2026-09-01T20:00:56Z</time>
  <course>154.12</course>
  <speed>5.52</speed>
  <fix>3d</fix>
</trkpt>
<trkpt lat="-27.2186345" lon="151.4338864">
  <ele>538.44</ele>
  <time>2026-09-01T20:00:56Z</time>
  <course>195.25</course>
  <speed>4.838026457141383</speed>
  <fix>3d</fix>
</trkpt>
<trkpt lat="-27.2186303" lon="151.4338838">
  <ele>538.34</ele>
  <time>2026-09-01T20:00:56Z</time>
  <course>152.34</course>
  <speed>5.08</speed>
  <fix>3d</fix>
</trkpt>
<trkpt lat="-27.2186382" lon="151.4338886">
  <ele>538.54</ele>
  <time>2026-09-01T20:00:56Z</time>
  <course>196.06</course>
  <speed>4.591786144846034</speed>
  <fix>3d</fix>
</trkpt>
<trkpt lat="-27.2186303" lon="151.4338838">
  <ele>538.34</ele>
  <time>2026-09-01T20:00:56Z</time>
  <course>152.34</course>
  <speed>5.08</speed>
  <fix>3d</fix>
</trkpt>
<trkpt lat="-27.2186416" lon="151.433891">
  <ele>538.66</ele>
  <time>2026-09-01T20:00:56Z</time>
  <course>197.1</course>
  <speed>4.338963009752446</speed>
  <fix>3d</fix>
</trkpt>
<trkpt lat="-27.2186379" lon="151.4338886">
  <ele>538.55</ele>
  <time>2026-09-01T20:00:56Z</time>
  <course>150.08</course>
  <speed>4.6</speed>
  <fix>3d</fix>
</trkpt>
<trkpt lat="-27.2186449" lon="151.4338933">
  <ele>538.79</ele>
  <time>2026-09-01T20:00:56Z</time>
  <course>198.32</course>
  <speed>4.091760012512953</speed>
  <fix>3d</fix>
</trkpt>
<trkpt lat="-27.2186379" lon="151.4338886">
  <ele>538.55</ele>
  <time>2026-09-01T20:00:56Z</time>
  <course>150.08</course>
  <speed>4.6</speed>
  <fix>3d</fix>
</trkpt>
<trkpt lat="-27.2186478" lon="151.4338955">
  <ele>538.91</ele>
  <time>2026-09-01T20:00:56Z</time>
  <course>199.71</course>
  <speed>3.849623358200124</speed>
  <fix>3d</fix>
</trkpt>
<trkpt lat="-27.2186446" lon="151.4338931">
  <ele>538.79</ele>
  <time>2026-09-01T20:00:56Z</time>
  <course>147.56</course>
  <speed>4.11</speed>
  <fix>3d</fix>
</trkpt>
<trkpt lat="-27.2186506" lon="151.4338976">
  <ele>539.07</ele>
  <time>2026-09-01T20:00:56Z</time>
  <course>201.22</course>
  <speed>3.603803546254984</speed>
  <fix>3d</fix>
</trkpt>
<trkpt lat="-27.2186446" lon="151.4338931">
  <ele>538.79</ele>
  <time>2026-09-01T20:00:56Z</time>
  <course>147.56</course>
  <speed>4.11</speed>
  <fix>3d</fix>
</trkpt>
<trkpt lat="-27.2186532" lon="151.4338996">
  <ele>539.23</ele>
  <time>2026-09-01T20:00:56Z</time>
  <course>202.82</course>
  <speed>3.340134727821619</speed>
  <fix>3d</fix>
</trkpt>
<trkpt lat="-27.2186504" lon="151.4338975">
  <ele>539.06</ele>
  <time>2026-09-01T20:00:56Z</time>
  <course>145.02</course>
  <speed>3.61</speed>
  <fix>3d</fix>
</trkpt>
<trkpt lat="-27.2186554" lon="151.4339015">
  <ele>539.4</ele>
  <time>2026-09-01T20:00:56Z</time>
  <course>204.47</course>
  <speed>3.086373276193273</speed>
  <fix>3d</fix>
</trkpt>
<trkpt lat="-27.2186504" lon="151.4338975">
  <ele>539.06</ele>
  <time>2026-09-01T20:00:56Z</time>
  <course>145.02</course>
  <speed>3.61</speed>
  <fix>3d</fix>
</trkpt>
<trkpt lat="-27.2186575" lon="151.4339034">
  <ele>539.6</ele>
  <time>2026-09-01T20:00:56Z</time>
  <course>206.12</course>
  <speed>2.806652810733811</speed>
  <fix>3d</fix>
</trkpt>
<trkpt lat="-27.2186553" lon="151.4339015">
  <ele>539.4</ele>
  <time>2026-09-01T20:00:56Z</time>
  <course>142.34</course>
  <speed>3.09</speed>
  <fix>3d</fix>
</trkpt>
<trkpt lat="-27.2186594" lon="151.4339052">
  <ele>539.79</ele>
  <time>2026-09-01T20:00:56Z</time>
  <course>207.71</course>
  <speed>2.5381095327034253</speed>
  <fix>3d</fix>
</trkpt>
<trkpt lat="-27.2186553" lon="151.4339015">
  <ele>539.4</ele>
  <time>2026-09-01T20:00:56Z</time>
  <course>142.34</course>
  <speed>3.09</speed>
  <fix>3d</fix>
</trkpt>
<trkpt lat="-27.218661" lon="151.4339068">
  <ele>540.02</ele>
  <time>2026-09-01T20:00:56Z</time>
  <course>209.22</course>
  <speed>2.2716733920174352</speed>
  <fix>3d</fix>
</trkpt>
<trkpt lat="-27.2186592" lon="151.4339051">
  <ele>539.8</ele>
  <time>2026-09-01T20:00:56Z</time>
  <course>139.17</course>
  <speed>2.55</speed>
  <fix>3d</fix>
</trkpt>
<trkpt lat="-27.2186624" lon="151.4339082">
  <ele>540.25</ele>
  <time>2026-09-01T20:00:56Z</time>
  <course>210.63</course>
  <speed>2.008233054204616</speed>
  <fix>3d</fix>
</trkpt>
<trkpt lat="-27.2186592" lon="151.4339051">
  <ele>539.8</ele>
  <time>2026-09-01T20:00:56Z</time>
  <course>139.17</course>
  <speed>2.55</speed>
  <fix>3d</fix>
</trkpt>
<trkpt lat="-27.2186636" lon="151.4339096">
  <ele>540.49</ele>
  <time>2026-09-01T20:00:56Z</time>
  <course>211.92</course>
  <speed>1.7541379649275024</speed>
  <fix>3d</fix>
</trkpt>
<trkpt lat="-27.2186622" lon="151.4339082">
  <ele>540.24</ele>
  <time>2026-09-01T20:00:56Z</time>
  <course>135.67</course>
  <speed>2.02</speed>
  <fix>3d</fix>
</trkpt>
<trkpt lat="-27.2186646" lon="151.4339109">
  <ele>540.73</ele>
  <time>2026-09-01T20:00:56Z</time>
  <course>213.09</course>
  <speed>1.515585695366646</speed>
  <fix>3d</fix>
</trkpt>
<trkpt lat="-27.2186622" lon="151.4339082">
  <ele>540.24</ele>
  <time>2026-09-01T20:00:56Z</time>
  <course>135.67</course>
  <speed>2.02</speed>
  <fix>3d</fix>
</trkpt>
<trkpt lat="-27.2186654" lon="151.433912">
  <ele>540.98</ele>
  <time>2026-09-01T20:00:56Z</time>
  <course>214.13</course>
  <speed>1.2842507543311004</speed>
  <fix>3d</fix>
</trkpt>
<trkpt lat="-27.2186644" lon="151.4339107">
  <ele>540.72</ele>
  <time>2026-09-01T20:00:56Z</time>
  <course>132.24</course>
  <speed>1.53</speed>
  <fix>3d</fix>
</trkpt>
<trkpt lat="-27.2186661" lon="151.4339129">
  <ele>541.23</ele>
  <time>2026-09-01T20:00:56Z</time>
  <course>215.03</course>
  <speed>1.0604244433244643</speed>
  <fix>3d</fix>
</trkpt>
<trkpt lat="-27.2186644" lon="151.4339107">
  <ele>540.72</ele>
  <time>2026-09-01T20:00:56Z</time>
  <course>132.24</course>
  <speed>1.53</speed>
  <fix>3d</fix>
</trkpt>
<trkpt lat="-27.2186666" lon="151.4339137">
  <ele>541.49</ele>
  <time>2026-09-01T20:00:56Z</time>
  <course>215.79</course>
  <speed>0.85</speed>
  <fix>3d</fix>
</trkpt>
<trkpt lat="-27.218666" lon="151.4339127">
  <ele>541.22</ele>
  <time>2026-09-01T20:00:56Z</time>
  <course>129.01</course>
  <speed>1.07</speed>
  <fix>3d</fix>
</trkpt>
<trkpt lat="-27.218667" lon="151.4339143">
  <ele>541.74</ele>
  <time>2026-09-01T20:00:56Z</time>
  <course>216.4</course>
  <speed>0.6463745044476924</speed>
  <fix>3d</fix>
</trkpt>
<trkpt lat="-27.218666" lon="151.4339127">
  <ele>541.22</ele>
  <time>2026-09-01T20:00:56Z</time>
  <course>129.01</course>
  <speed>1.07</speed>
  <fix>3d</fix>
</trkpt>
<trkpt lat="-27.2186673" lon="151.4339147">
  <ele>542.0</ele>
  <time>2026-09-01T20:00:56Z</time>
  <course>216.84</course>
  <speed>0.4441846462902562</speed>
  <fix>3d</fix>
</trkpt>
<trkpt lat="-27.2186669" lon="151.4339141">
  <ele>541.73</ele>
  <time>2026-09-01T20:00:56Z</time>
  <course>125.24</course>
  <speed>0.65</speed>
  <fix>3d</fix>
</trkpt>
<trkpt lat="-27.2186674" lon="151.4339149">
  <ele>542.25</ele>
  <time>2026-09-01T20:00:56Z</time>
  <course>217.14</course>
  <speed>0.2640075756488817</speed>
  <fix>3d</fix>
</trkpt>
<trkpt lat="-27.2186669" lon="151.4339141">
  <ele>541.73</ele>
  <time>2026-09-01T20:00:56Z</time>
  <course>125.24</course>
  <speed>0.65</speed>
  <fix>3d</fix>
</trkpt>
<trkpt lat="-27.2186675" lon="151.4339152">
  <ele>542.51</ele>
  <time>2026-09-01T20:00:56Z</time>
  <course>217.31</course>
  <speed>0.1</speed>
  <fix>3d</fix>
</trkpt>
<trkpt lat="-27.2186674" lon="151.4339149">
  <ele>542.24</ele>
  <time>2026-09-01T20:00:56Z</time>
  <course>116.19</course>
  <speed>0.28</speed>
  <fix>3d</fix>
</trkpt>
<trkpt lat="-27.2186674" lon="151.4339153">
  <ele>542.76</ele>
  <time>2026-09-01T20:00:56Z</time>
  <course>217.42</course>
  <speed>0.1019803902718557</speed>
  <fix>3d</fix>
</trkpt>
<trkpt lat="-27.2186674" lon="151.4339149">
  <ele>542.24</ele>
  <time>2026-09-01T20:00:56Z</time>
  <course>116.19</course>
  <speed>0.28</speed>
  <fix>3d</fix>
</trkpt>
<trkpt lat="-27.2186673" lon="151.4339152">
  <ele>543.01</ele>
  <time>2026-09-01T20:00:56Z</time>
  <course>217.56</course>
  <speed>0.23021728866442676</speed>
  <fix>3d</fix>
</trkpt>
<trkpt lat="-27.2186674" lon="151.4339149">
  <ele>542.24</ele>
  <time>2026-09-01T20:00:56Z</time>
  <course>116.19</course>
  <speed>0.28</speed>
  <fix>3d</fix>
</trkpt>
<trkpt lat="-27.2186672" lon="151.4339151">
  <ele>543.26</ele>
  <time>2026-09-01T20:00:56Z</time>
  <course>218.04</course>
  <speed>0.32649655434629016</speed>
  <fix>3d</fix>
</trkpt>
<trkpt lat="-27.2186674" lon="151.4339152">
  <ele>542.75</ele>
  <time>2026-09-01T20:00:56Z</time>
  <course>353.77</course>
  <speed>0.09</speed>
  <fix>3d</fix>
</trkpt>
<trkpt lat="-27.2186669" lon="151.4339149">
  <ele>543.51</ele>
  <time>2026-09-01T20:00:56Z</time>
  <course>219.3</course>
  <speed>0.38948684188300897</speed>
  <fix>3d</fix>
</trkpt>
<trkpt lat="-27.2186674" lon="151.4339152">
  <ele>542.75</ele>
  <time>2026-09-01T20:00:56Z</time>
  <course>353.77</course>
  <speed>0.09</speed>
  <fix>3d</fix>
</trkpt>
<trkpt lat="-27.2186666" lon="151.4339145">
  <ele>543.76</ele>
  <time>2026-09-01T20:00:56Z</time>
  <course>221.12</course>
  <speed>0.4386342439892262</speed>
  <fix>3d</fix>
</trkpt>
<trkpt lat="-27.2186671" lon="151.433915">
  <ele>543.25</ele>
  <time>2026-09-01T20:00:56Z</time>
  <course>321.26</course>
  <speed>0.31</speed>
  <fix>3d</fix>
</trkpt>
<trkpt lat="-27.2186663" lon="151.4339142">
  <ele>544.01</ele>
  <time>2026-09-01T20:00:56Z</time>
  <course>223.03</course>
  <speed>0.48795491595023405</speed>
  <fix>3d</fix>
</trkpt>
<trkpt lat="-27.2186666" lon="151.4339145">
  <ele>543.75</ele>
  <time>2026-09-01T20:00:56Z</time>
  <course>316.94</course>
  <speed>0.44</speed>
  <fix>3d</fix>
</trkpt>
<trkpt lat="-27.218666" lon="151.4339139">
  <ele>544.25</ele>
  <time>2026-09-01T20:00:56Z</time>
  <course>224.72</course>
  <speed>0.5303772242470448</speed>
  <fix>3d</fix>
</trkpt>
<trkpt lat="-27.2186666" lon="151.4339145">
  <ele>543.75</ele>
  <time>2026-09-01T20:00:56Z</time>
  <course>316.94</course>
  <speed>0.44</speed>
  <fix>3d</fix>
</trkpt>
<trkpt lat="-27.2186657" lon="151.4339135">
  <ele>544.5</ele>
  <time>2026-09-01T20:00:56Z</time>
  <course>226.03</course>
  <speed>0.5731491952362839</speed>
  <fix>3d</fix>
</trkpt>
<trkpt lat="-27.218666" lon="151.4339139">
  <ele>544.24</ele>
  <time>2026-09-01T20:00:56Z</time>
  <course>314.18</course>
  <speed>0.53</speed>
  <fix>3d</fix>
</trkpt>
<trkpt lat="-27.2186653" lon="151.433913">
  <ele>544.74</ele>
  <time>2026-09-01T20:00:56Z</time>
  <course>226.99</course>
  <speed>0.6161980201201558</speed>
  <fix>3d</fix>
</trkpt>
<trkpt lat="-27.218666" lon="151.4339139">
  <ele>544.24</ele>
  <time>2026-09-01T20:00:56Z</time>
  <course>314.18</course>
  <speed>0.53</speed>
  <fix>3d</fix>
</trkpt>
<trkpt lat="-27.2186649" lon="151.4339125">
  <ele>544.98</ele>
  <time>2026-09-01T20:00:56Z</time>
  <course>227.64</course>
  <speed>0.6594694837519018</speed>
  <fix>3d</fix>
</trkpt>
<trkpt lat="-27.2186653" lon="151.433913">
  <ele>544.73</ele>
  <time>2026-09-01T20:00:56Z</time>
  <course>311.65</course>
  <speed>0.62</speed>
  <fix>3d</fix>
</trkpt>
<trkpt lat="-27.2186645" lon="151.433912">
  <ele>545.23</ele>
  <time>2026-09-01T20:00:56Z</time>
  <course>228.06</course>
  <speed>0.6965629906907199</speed>
  <fix>3d</fix>
</trkpt>
<trkpt lat="-27.2186653" lon="151.433913">
  <ele>544.73</ele>
  <time>2026-09-01T20:00:56Z</time>
  <course>311.65</course>
  <speed>0.62</speed>
  <fix>3d</fix>
</trkpt>
<trkpt lat="-27.2186641" lon="151.4339114">
  <ele>545.47</ele>
  <time>2026-09-01T20:00:56Z</time>
  <course>228.32</course>
  <speed>0.7262231062146123</speed>
  <fix>3d</fix>
</trkpt>
<trkpt lat="-27.2186645" lon="151.4339119">
  <ele>545.22</ele>
  <time>2026-09-01T20:00:56Z</time>
  <course>309.52</course>
  <speed>0.69</speed>
  <fix>3d</fix>
</trkpt>
<trkpt lat="-27.2186637" lon="151.4339108">
  <ele>545.66</ele>
  <time>2026-09-01T20:00:56Z</time>
  <course>228.72</course>
  <speed>0.7021395872616784</speed>
  <fix>3d</fix>
</trkpt>
<trkpt lat="-27.2186645" lon="151.4339119">
  <ele>545.22</ele>
  <time>2026-09-01T20:00:56Z</time>
  <course>309.52</course>
  <speed>0.69</speed>
  <fix>3d</fix>
</trkpt>
<trkpt lat="-27.2186634" lon="151.4339102">
  <ele>545.76</ele>
  <time>2026-09-01T20:00:56Z</time>
  <course>229.4</course>
  <speed>0.6906518659932803</speed>
  <fix>3d</fix>
</trkpt>
<trkpt lat="-27.2186637" lon="151.4339108">
  <ele>545.61</ele>
  <time>2026-09-01T20:00:56Z</time>
  <course>306.69</course>
  <speed>0.71</speed>
  <fix>3d</fix>
</trkpt>
<trkpt lat="-27.218663" lon="151.4339096">
  <ele>545.76</ele>
  <time>2026-09-01T20:00:56Z</time>
  <course>230.15</course>
  <speed>0.6906518659932803</speed>
  <fix>3d</fix>
</trkpt>
<trkpt lat="-27.2186637" lon="151.4339108">
  <ele>545.61</ele>
  <time>2026-09-01T20:00:56Z</time>
  <course>306.69</course>
  <speed>0.71</speed>
  <fix>3d</fix>
</trkpt>
<trkpt lat="-27.2186626" lon="151.4339091">
  <ele>545.65</ele>
  <time>2026-09-01T20:00:56Z</time>
  <course>230.96</course>
  <speed>0.6824221567329127</speed>
  <fix>3d</fix>
</trkpt>
<trkpt lat="-27.218663" lon="151.4339096">
  <ele>545.7</ele>
  <time>2026-09-01T20:00:56Z</time>
  <course>304.67</course>
  <speed>0.69</speed>
  <fix>3d</fix>
</trkpt>
<trkpt lat="-27.2186623" lon="151.4339085">
  <ele>545.46</ele>
  <time>2026-09-01T20:00:56Z</time>
  <course>232.02</course>
  <speed>0.6545991139621257</speed>
  <fix>3d</fix>
</trkpt>
<trkpt lat="-27.218663" lon="151.4339096">
  <ele>545.7</ele>
  <time>2026-09-01T20:00:56Z</time>
  <course>304.67</course>
  <speed>0.69</speed>
  <fix>3d</fix>
</trkpt>
<trkpt lat="-27.218662" lon="151.433908">
  <ele>545.19</ele>
  <time>2026-09-01T20:00:56Z</time>
  <course>233.69</course>
  <speed>0.6020797289396147</speed>
  <fix>3d</fix>
</trkpt>
<trkpt lat="-27.2186623" lon="151.4339085">
  <ele>545.43</ele>
  <time>2026-09-01T20:00:56Z</time>
  <course>303.52</course>
  <speed>0.64</speed>
  <fix>3d</fix>
</trkpt>
<trkpt lat="-27.2186617" lon="151.4339075">
  <ele>544.85</ele>
  <time>2026-09-01T20:00:56Z</time>
  <course>236.27</course>
  <speed>0.5323532661682466</speed>
  <fix>3d</fix>
</trkpt>
<trkpt lat="-27.2186623" lon="151.4339085">
  <ele>545.43</ele>
  <time>2026-09-01T20:00:56Z</time>
  <course>303.52</course>
  <speed>0.64</speed>
  <fix>3d</fix>
</trkpt>
<trkpt lat="-27.2186615" lon="151.433907">
  <ele>544.46</ele>
  <time>2026-09-01T20:00:56Z</time>
  <course>239.76</course>
  <speed>0.47169905660283024</speed>
  <fix>3d</fix>
</trkpt>
<trkpt lat="-27.2186617" lon="151.4339075">
  <ele>544.83</ele>
  <time>2026-09-01T20:00:56Z</time>
  <course>297.68</course>
  <speed>0.54</speed>
  <fix>3d</fix>
</trkpt>
<trkpt lat="-27.2186614" lon="151.4339066">
  <ele>544.02</ele>
  <time>2026-09-01T20:00:56Z</time>
  <course>243.59</course>
  <speed>0.45607017003965516</speed>
  <fix>3d</fix>
</trkpt>
<trkpt lat="-27.2186617" lon="151.4339075">
  <ele>544.83</ele>
  <time>2026-09-01T20:00:56Z</time>
  <course>297.68</course>
  <speed>0.54</speed>
  <fix>3d</fix>
</trkpt>
<trkpt lat="-27.2186613" lon="151.4339061">
  <ele>543.54</ele>
  <time>2026-09-01T20:00:56Z</time>
  <course>247.19</course>
  <speed>0.4570557952810576</speed>
  <fix>3d</fix>
</trkpt>
<trkpt lat="-27.2186614" lon="151.4339066">
  <ele>544.01</ele>
  <time>2026-09-01T20:00:56Z</time>
  <course>286.37</course>
  <speed>0.47</speed>
  <fix>3d</fix>
</trkpt>
<trkpt lat="-27.2186613" lon="151.4339057">
  <ele>543.01</ele>
  <time>2026-09-01T20:00:56Z</time>
  <course>250.39</course>
  <speed>0.5008991914547277</speed>
  <fix>3d</fix>
</trkpt>
<trkpt lat="-27.2186614" lon="151.4339066">
  <ele>544.01</ele>
  <time>2026-09-01T20:00:56Z</time>
  <course>286.37</course>
  <speed>0.47</speed>
  <fix>3d</fix>
</trkpt>
<trkpt lat="-27.2186612" lon="151.4339051">
  <ele>542.43</ele>
  <time>2026-09-01T20:00:56Z</time>
  <course>253.17</course>
  <speed>0.5803447251418763</speed>
  <fix>3d</fix>
</trkpt>
<trkpt lat="-27.2186614" lon="151.4339066">
  <ele>544.01</ele>
  <time>2026-09-01T20:00:56Z</time>
  <course>286.37</course>
  <speed>0.47</speed>
  <fix>3d</fix>
</trkpt>
<trkpt lat="-27.2186613" lon="151.4339044">
  <ele>541.81</ele>
  <time>2026-09-01T20:00:56Z</time>
  <course>255.68</course>
  <speed>0.6935416353759881</speed>
  <fix>3d</fix>
</trkpt>
<trkpt lat="-27.2186612" lon="151.4339056">
  <ele>543.0</ele>
  <time>2026-09-01T20:00:56Z</time>
  <course>273.55</course>
  <speed>0.52</speed>
  <fix>3d</fix>
</trkpt>
<trkpt lat="-27.2186613" lon="151.4339037">
  <ele>541.12</ele>
  <time>2026-09-01T20:00:56Z</time>
  <course>258.01</course>
  <speed>0.8089499366462674</speed>
  <fix>3d</fix>
</trkpt>
<trkpt lat="-27.2186612" lon="151.4339056">
  <ele>543.0</ele>
  <time>2026-09-01T20:00:56Z</time>
  <course>273.55</course>
  <speed>0.52</speed>
  <fix>3d</fix>
</trkpt>
<trkpt lat="-27.2186614" lon="151.4339027">
  <ele>540.34</ele>
  <time>2026-09-01T20:00:56Z</time>
  <course>260.29</course>
  <speed>1.4204224723651762</speed>
  <fix>3d</fix>
</trkpt>
<trkpt lat="-27.2186612" lon="151.4339044">
  <ele>541.79</ele>
  <time>2026-09-01T20:00:56Z</time>
  <course>263.91</course>
  <speed>0.69</speed>
  <fix>3d</fix>
</trkpt>
<trkpt lat="-27.2186617" lon="151.4339008">
  <ele>539.52</ele>
  <time>2026-09-01T20:00:56Z</time>
  <course>262.04</course>
  <speed>2.153903433304288</speed>
  <fix>3d</fix>
</trkpt>
<trkpt lat="-27.2186612" lon="151.4339044">
  <ele>541.79</ele>
  <time>2026-09-01T20:00:56Z</time>
  <course>263.91</course>
  <speed>0.69</speed>
  <fix>3d</fix>
</trkpt>
<trkpt lat="-27.218662" lon="151.4338985">
  <ele>538.62</ele>
  <time>2026-09-01T20:00:56Z</time>
  <course>262.61</course>
  <speed>2.4027692356945143</speed>
  <fix>3d</fix>
</trkpt>
<trkpt lat="-27.2186614" lon="151.4339023">
  <ele>540.35</ele>
  <time>2026-09-01T20:00:56Z</time>
  <course>261.16</course>
  <speed>1.46</speed>
  <fix>3d</fix>
</trkpt>
<trkpt lat="-27.2186623" lon="151.4338961">
  <ele>537.63</ele>
  <time>2026-09-01T20:00:56Z</time>
  <course>261.51</course>
  <speed>2.3122499864850257</speed>
  <fix>3d</fix>
</trkpt>
<trkpt lat="-27.2186614" lon="151.4339023">
  <ele>540.35</ele>
  <time>2026-09-01T20:00:56Z</time>
  <course>261.16</course>
  <speed>1.46</speed>
  <fix>3d</fix>
</trkpt>
<trkpt lat="-27.2186626" lon="151.4338938">
  <ele>536.54</ele>
  <time>2026-09-01T20:00:56Z</time>
  <course>262.21</course>
  <speed>2.160925727552893</speed>
  <fix>3d</fix>
</trkpt>
<trkpt lat="-27.218662" lon="151.4338986">
  <ele>538.63</ele>
  <time>2026-09-01T20:00:56Z</time>
  <course>261.62</course>
  <speed>2.23</speed>
  <fix>3d</fix>
</trkpt>
<trkpt lat="-27.2186628" lon="151.4338917">
  <ele>535.37</ele>
  <time>2026-09-01T20:00:56Z</time>
  <course>264.09</course>
  <speed>2.2638462845343543</speed>
  <fix>3d</fix>
</trkpt>
<trkpt lat="-27.218662" lon="151.4338986">
  <ele>538.63</ele>
  <time>2026-09-01T20:00:56Z</time>
  <course>261.62</course>
  <speed>2.23</speed>
  <fix>3d</fix>
</trkpt>
<trkpt lat="-27.218663" lon="151.4338893">
  <ele>534.14</ele>
  <time>2026-09-01T20:00:56Z</time>
  <course>264.19</course>
  <speed>2.806439024814186</speed>
  <fix>3d</fix>
</trkpt>
<trkpt lat="-27.2186625" lon="151.433894">
  <ele>536.56</ele>
  <time>2026-09-01T20:00:56Z</time>
  <course>262.65</course>
  <speed>2.29</speed>
  <fix>3d</fix>
</trkpt>
<trkpt lat="-27.2186632" lon="151.4338859">
  <ele>532.82</ele>
  <time>2026-09-01T20:00:56Z</time>
  <course>263.45</course>
  <speed>3.8542054952999067</speed>
  <fix>3d</fix>
</trkpt>
<trkpt lat="-27.218663" lon="151.4338889">
  <ele>534.15</ele>
  <time>2026-09-01T20:00:56Z</time>
  <course>265.83</course>
  <speed>3.02</speed>
  <fix>3d</fix>
</trkpt>
<trkpt lat="-27.2186634" lon="151.4338814">
  <ele>531.45</ele>
  <time>2026-09-01T20:00:56Z</time>
  <course>262.73</course>
  <speed>5.187031906591668</speed>
  <fix>3d</fix>
</trkpt>
<trkpt lat="-27.218663" lon="151.4338889">
  <ele>534.15</ele>
  <time>2026-09-01T20:00:56Z</time>
  <course>265.83</course>
  <speed>3.02</speed>
  <fix>3d</fix>
</trkpt>
<trkpt lat="-27.2186637" lon="151.4338754">
  <ele>530.06</ele>
  <time>2026-09-01T20:00:56Z</time>
  <course>262.46</course>
  <speed>6.587510910806904</speed>
  <fix>3d</fix>
</trkpt>
<trkpt lat="-27.2186634" lon="151.4338808">
  <ele>531.48</ele>
  <time>2026-09-01T20:00:56Z</time>
  <course>266.37</course>
  <speed>5.18</speed>
  <fix>3d</fix>
</trkpt>
<trkpt lat="-27.2186643" lon="151.433868">
  <ele>528.66</ele>
  <time>2026-09-01T20:00:56Z</time>
  <course>262.67</course>
  <speed>7.904713783559782</speed>
  <fix>3d</fix>
</trkpt>
<trkpt lat="-27.2186634" lon="151.4338808">
  <ele>531.48</ele>
  <time>2026-09-01T20:00:56Z</time>
  <course>266.37</course>
  <speed>5.18</speed>
  <fix>3d</fix>
</trkpt>
<trkpt lat="-27.2186651" lon="151.4338594">
  <ele>527.26</ele>
  <time>2026-09-01T20:00:57Z</time>
  <course>263.14</course>
  <speed>9.154780172128657</speed>
  <fix>3d</fix>
</trkpt>
<trkpt lat="-27.2186643" lon="151.4338677">
  <ele>528.7</ele>
  <time>2026-09-01T20:00:57Z</time>
  <course>264.59</course>
  <speed>7.83</speed>
  <fix>3d</fix>
</trkpt>
<trkpt lat="-27.2186661" lon="151.4338497">
  <ele>525.87</ele>
  <time>2026-09-01T20:00:57Z</time>
  <course>263.63</course>
  <speed>10.385499506523507</speed>
  <fix>3d</fix>
</trkpt>
<trkpt lat="-27.2186643" lon="151.4338677">
  <ele>528.7</ele>
  <time>2026-09-01T20:00:57Z</time>
  <course>264.59</course>
  <speed>7.83</speed>
  <fix>3d</fix>
</trkpt>
<trkpt lat="-27.2186673" lon="151.4338387">
  <ele>524.51</ele>
  <time>2026-09-01T20:00:57Z</time>
  <course>264.05</course>
  <speed>11.639420088647027</speed>
  <fix>3d</fix>
</trkpt>
<trkpt lat="-27.2186661" lon="151.4338494">
  <ele>525.93</ele>
  <time>2026-09-01T20:00:57Z</time>
  <course>263.24</course>
  <speed>10.35</speed>
  <fix>3d</fix>
</trkpt>
<trkpt lat="-27.2186687" lon="151.4338263">
  <ele>523.2</ele>
  <time>2026-09-01T20:00:57Z</time>
  <course>264.36</course>
  <speed>12.893506117422056</speed>
  <fix>3d</fix>
</trkpt>
<trkpt lat="-27.2186661" lon="151.4338494">
  <ele>525.93</ele>
  <time>2026-09-01T20:00:57Z</time>
  <course>263.24</course>
  <speed>10.35</speed>
  <fix>3d</fix>
</trkpt>
<trkpt lat="-27.2186701" lon="151.4338128">
  <ele>521.95</ele>
  <time>2026-09-01T20:00:57Z</time>
  <course>264.58</course>
  <speed>14.098812006690494</speed>
  <fix>3d</fix>
</trkpt>
<trkpt lat="-27.2186686" lon="151.4338262">
  <ele>523.27</ele>
  <time>2026-09-01T20:00:57Z</time>
  <course>263.23</course>
  <speed>12.82</speed>
  <fix>3d</fix>
</trkpt>
<trkpt lat="-27.2186715" lon="151.4337981">
  <ele>520.78</ele>
  <time>2026-09-01T20:00:57Z</time>
  <course>264.75</course>
  <speed>15.209188012514014</speed>
  <fix>3d</fix>
</trkpt>
<trkpt lat="-27.2186686" lon="151.4338262">
  <ele>523.27</ele>
  <time>2026-09-01T20:00:57Z</time>
  <course>263.23</course>
  <speed>12.82</speed>
  <fix>3d</fix>
</trkpt>
<trkpt lat="-27.2186729" lon="151.4337823">
  <ele>519.72</ele>
  <time>2026-09-01T20:00:57Z</time>
  <course>264.89</course>
  <speed>16.19775601742414</speed>
  <fix>3d</fix>
</trkpt>
<trkpt lat="-27.2186686" lon="151.4338262">
  <ele>523.27</ele>
  <time>2026-09-01T20:00:57Z</time>
  <course>263.23</course>
  <speed>12.82</speed>
  <fix>3d</fix>
</trkpt>
<trkpt lat="-27.2186742" lon="151.4337655">
  <ele>518.76</ele>
  <time>2026-09-01T20:00:57Z</time>
  <course>265.01</course>
  <speed>17.049237519607733</speed>
  <fix>3d</fix>
</trkpt>
<trkpt lat="-27.2186714" lon="151.433798">
  <ele>520.86</ele>
  <time>2026-09-01T20:00:57Z</time>
  <course>264.16</course>
  <speed>15.11</speed>
  <fix>3d</fix>
</trkpt>
<trkpt lat="-27.2186754" lon="151.4337479">
  <ele>517.91</ele>
  <time>2026-09-01T20:00:57Z</time>
  <course>265.12</course>
  <speed>17.763684865477657</speed>
  <fix>3d</fix>
</trkpt>
<trkpt lat="-27.2186714" lon="151.433798">
  <ele>520.86</ele>
  <time>2026-09-01T20:00:57Z</time>
  <course>264.16</course>
  <speed>15.11</speed>
  <fix>3d</fix>
</trkpt>
<trkpt lat="-27.2186767" lon="151.4337297">
  <ele>517.21</ele>
  <time>2026-09-01T20:00:57Z</time>
  <course>265.2</course>
  <speed>18.32204409993601</speed>
  <fix>3d</fix>
</trkpt>
<trkpt lat="-27.2186741" lon="151.4337656">
  <ele>518.83</ele>
  <time>2026-09-01T20:00:57Z</time>
  <course>265.13</course>
  <speed>16.96</speed>
  <fix>3d</fix>
</trkpt>
<trkpt lat="-27.218678" lon="151.4337105">
  <ele>516.62</ele>
  <time>2026-09-01T20:00:57Z</time>
  <course>265.26</course>
  <speed>18.71395201447305</speed>
  <fix>3d</fix>
</trkpt>
<trkpt lat="-27.2186741" lon="151.4337656">
  <ele>518.83</ele>
  <time>2026-09-01T20:00:57Z</time>
  <course>265.13</course>
  <speed>16.96</speed>
  <fix>3d</fix>
</trkpt>
<trkpt lat="-27.2186793" lon="151.4336916">
  <ele>516.18</ele>
  <time>2026-09-01T20:00:57Z</time>
  <course>265.31</course>
  <speed>18.907231420808284</speed>
  <fix>3d</fix>
</trkpt>
<trkpt lat="-27.2186766" lon="151.43373">
  <ele>517.29</ele>
  <time>2026-09-01T20:00:57Z</time>
  <course>265.58</course>
  <speed>18.22</speed>
  <fix>3d</fix>
</trkpt>
<trkpt lat="-27.2186806" lon="151.4336725">
  <ele>515.85</ele>
  <time>2026-09-01T20:00:57Z</time>
  <course>265.36</course>
  <speed>18.961023179143048</speed>
  <fix>3d</fix>
</trkpt>
<trkpt lat="-27.2186766" lon="151.43373">
  <ele>517.29</ele>
  <time>2026-09-01T20:00:57Z</time>
  <course>265.58</course>
  <speed>18.22</speed>
  <fix>3d</fix>
</trkpt>
<trkpt lat="-27.218682" lon="151.4336534">
  <ele>515.59</ele>
  <time>2026-09-01T20:00:57Z</time>
  <course>265.43</course>
  <speed>18.913619431510195</speed>
  <fix>3d</fix>
</trkpt>
<trkpt lat="-27.2186791" lon="151.4336925">
  <ele>516.25</ele>
  <time>2026-09-01T20:00:57Z</time>
  <course>265.52</course>
  <speed>18.83</speed>
  <fix>3d</fix>
</trkpt>
<trkpt lat="-27.2186834" lon="151.4336344">
  <ele>515.38</ele>
  <time>2026-09-01T20:00:57Z</time>
  <course>265.48</course>
  <speed>18.814784080610654</speed>
  <fix>3d</fix>
</trkpt>
<trkpt lat="-27.2186791" lon="151.4336925">
  <ele>516.25</ele>
  <time>2026-09-01T20:00:57Z</time>
  <course>265.52</course>
  <speed>18.83</speed>
  <fix>3d</fix>
</trkpt>
<trkpt lat="-27.2186848" lon="151.4336156">
  <ele>515.19</ele>
  <time>2026-09-01T20:00:57Z</time>
  <course>265.5</course>
  <speed>18.705165062089133</speed>
  <fix>3d</fix>
</trkpt>
<trkpt lat="-27.2186819" lon="151.4336546">
  <ele>515.62</ele>
  <time>2026-09-01T20:00:57Z</time>
  <course>265.3</course>
  <speed>18.89</speed>
  <fix>3d</fix>
</trkpt>
<trkpt lat="-27.2186862" lon="151.4335968">
  <ele>515.01</ele>
  <time>2026-09-01T20:00:57Z</time>
  <course>265.47</course>
  <speed>18.583917778552507</speed>
  <fix>3d</fix>
</trkpt>
<trkpt lat="-27.2186819" lon="151.4336546">
  <ele>515.62</ele>
  <time>2026-09-01T20:00:57Z</time>
  <course>265.3</course>
  <speed>18.89</speed>
  <fix>3d</fix>
</trkpt>
<trkpt lat="-27.2186876" lon="151.4335782">
  <ele>514.84</ele>
  <time>2026-09-01T20:00:57Z</time>
  <course>265.42</course>
  <speed>18.46267586239871</speed>
  <fix>3d</fix>
</trkpt>
<trkpt lat="-27.2186847" lon="151.4336167">
  <ele>515.2</ele>
  <time>2026-09-01T20:00:57Z</time>
  <course>265.21</course>
  <speed>18.71</speed>
  <fix>3d</fix>
</trkpt>
<trkpt lat="-27.2186889" lon="151.4335596">
  <ele>514.66</ele>
  <time>2026-09-01T20:00:57Z</time>
  <course>265.36</course>
  <speed>18.3406243078037</speed>
  <fix>3d</fix>
</trkpt>
<trkpt lat="-27.2186847" lon="151.4336167">
  <ele>515.2</ele>
  <time>2026-09-01T20:00:57Z</time>
  <course>265.21</course>
  <speed>18.71</speed>
  <fix>3d</fix>
</trkpt>
<trkpt lat="-27.2186903" lon="151.4335411">
  <ele>514.5</ele>
  <time>2026-09-01T20:00:57Z</time>
  <course>265.32</course>
  <speed>18.228562751901205</speed>
  <fix>3d</fix>
</trkpt>
<trkpt lat="-27.2186875" lon="151.4335793">
  <ele>514.84</ele>
  <time>2026-09-01T20:00:57Z</time>
  <course>265.26</course>
  <speed>18.47</speed>
  <fix>3d</fix>
</trkpt>
<trkpt lat="-27.2186916" lon="151.4335228">
  <ele>514.34</ele>
  <time>2026-09-01T20:00:57Z</time>
  <course>265.29</course>
  <speed>18.10734933666438</speed>
  <fix>3d</fix>
</trkpt>
<trkpt lat="-27.2186875" lon="151.4335793">
  <ele>514.84</ele>
  <time>2026-09-01T20:00:57Z</time>
  <course>265.26</course>
  <speed>18.47</speed>
  <fix>3d</fix>
</trkpt>
<trkpt lat="-27.2186929" lon="151.4335047">
  <ele>514.16</ele>
  <time>2026-09-01T20:00:57Z</time>
  <course>265.29</course>
  <speed>17.986141887575556</speed>
  <fix>3d</fix>
</trkpt>
<trkpt lat="-27.2186902" lon="151.4335423">
  <ele>514.51</ele>
  <time>2026-09-01T20:00:57Z</time>
  <course>265.37</course>
  <speed>18.23</speed>
  <fix>3d</fix>
</trkpt>
<trkpt lat="-27.2186941" lon="151.4334867">
  <ele>514.01</ele>
  <time>2026-09-01T20:00:57Z</time>
  <course>265.31</course>
  <speed>17.87490978998216</speed>
  <fix>3d</fix>
</trkpt>
<trkpt lat="-27.2186902" lon="151.4335423">
  <ele>514.51</ele>
  <time>2026-09-01T20:00:57Z</time>
  <course>265.37</course>
  <speed>18.23</speed>
  <fix>3d</fix>
</trkpt>
<trkpt lat="-27.2186954" lon="151.4334692">
  <ele>513.85</ele>
  <time>2026-09-01T20:00:57Z</time>
  <course>265.35</course>
  <speed>17.764464528940916</speed>
  <fix>3d</fix>
</trkpt>
<trkpt lat="-27.2186928" lon="151.4335059">
  <ele>514.18</ele>
  <time>2026-09-01T20:00:57Z</time>
  <course>265.46</course>
  <speed>18.0</speed>
  <fix>3d</fix>
</trkpt>
<trkpt lat="-27.2186966" lon="151.4334514">
  <ele>513.69</ele>
  <time>2026-09-01T20:00:57Z</time>
  <course>265.4</course>
  <speed>17.654019372369568</speed>
  <fix>3d</fix>
</trkpt>
<trkpt lat="-27.2186953" lon="151.4334698">
  <ele>513.86</ele>
  <time>2026-09-01T20:00:57Z</time>
  <course>265.49</course>
  <speed>17.77</speed>
  <fix>3d</fix>
</trkpt>
<trkpt lat="-27.2186979" lon="151.4334337">
  <ele>513.53</ele>
  <time>2026-09-01T20:00:57Z</time>
  <course>265.45</course>
  <speed>17.54435806748141</speed>
  <fix>3d</fix>
</trkpt>
<trkpt lat="-27.2186953" lon="151.4334698">
  <ele>513.86</ele>
  <time>2026-09-01T20:00:57Z</time>
  <course>265.49</course>
  <speed>17.77</speed>
  <fix>3d</fix>
</trkpt>
<trkpt lat="-27.2186991" lon="151.4334161">
  <ele>513.37</ele>
  <time>2026-09-01T20:00:57Z</time>
  <course>265.48</course>
  <speed>17.433912354947758</speed>
  <fix>3d</fix>
</trkpt>
<trkpt lat="-27.2186978" lon="151.4334342">
  <ele>513.54</ele>
  <time>2026-09-01T20:00:57Z</time>
  <course>265.48</course>
  <speed>17.55</speed>
  <fix>3d</fix>
</trkpt>
<trkpt lat="-27.2168997" lon="151.4374963">
  <ele>542.95</ele>
  <time>2026-09-01T20:00:57Z</time>
  <course>250.01</course>
  <speed>0.0</speed>
  <fix>3d</fix>
</trkpt>
<trkpt lat="-27.2186978" lon="151.4334342">
  <ele>513.54</ele>
  <time>2026-09-01T20:00:57Z</time>
  <course>265.48</course>
  <speed>17.55</speed>
  <fix>3d</fix>
</trkpt>
<trkpt lat="-27.2168998" lon="151.4374963">
  <ele>542.81</ele>
  <time>2026-09-01T20:00:57Z</time>
  <course>250.01</course>
  <speed>0.01</speed>
  <fix>3d</fix>
</trkpt>
<trkpt lat="-27.2186978" lon="151.4334342">
  <ele>513.54</ele>
  <time>2026-09-01T20:00:57Z</time>
  <course>265.48</course>
  <speed>17.55</speed>
  <fix>3d</fix>
</trkpt>
<trkpt lat="-27.2168998" lon="151.4374963">
  <ele>542.58</ele>
  <time>2026-09-01T20:00:57Z</time>
  <course>250.02</course>
  <speed>0.05830951894845301</speed>
  <fix>3d</fix>
</trkpt>
<trkpt lat="-27.2177993" lon="151.4354564">
  <ele>528.1</ele>
  <time>2026-09-01T20:00:57Z</time>
  <course>265.45</course>
  <speed>8.73</speed>
  <fix>3d</fix>
</trkpt>
<trkpt lat="-27.2168998" lon="151.4374962">
  <ele>542.26</ele>
  <time>2026-09-01T20:00:57Z</time>
  <course>250.67</course>
  <speed>0.14560219778561037</speed>
  <fix>3d</fix>
</trkpt>
<trkpt lat="-27.2177993" lon="151.4354564">
  <ele>528.1</ele>
  <time>2026-09-01T20:00:57Z</time>
  <course>265.45</course>
  <speed>8.73</speed>
  <fix>3d</fix>
</trkpt>
<trkpt lat="-27.2168998" lon="151.4374959">
  <ele>541.86</ele>
  <time>2026-09-01T20:00:57Z</time>
  <course>254.12</course>
  <speed>0.3080584360149873</speed>
  <fix>3d</fix>
</trkpt>
<trkpt lat="-27.2168998" lon="151.4374962">
  <ele>542.54</ele>
  <time>2026-09-01T20:00:57Z</time>
  <course>249.97</course>
  <speed>0.08</speed>
  <fix>3d</fix>
</trkpt>
<trkpt lat="-27.2168997" lon="151.4374956">
  <ele>541.4</ele>
  <time>2026-09-01T20:00:57Z</time>
  <course>263.9</course>
  <speed>0.4802082881417188</speed>
  <fix>3d</fix>
</trkpt>
<trkpt lat="-27.2168998" lon="151.4374962">
  <ele>542.54</ele>
  <time>2026-09-01T20:00:57Z</time>
  <course>249.97</course>
  <speed>0.08</speed>
  <fix>3d</fix>
</trkpt>
<trkpt lat="-27.2168996" lon="151.4374952">
  <ele>540.87</ele>
  <time>2026-09-01T20:00:57Z</time>
  <course>264.69</course>
  <speed>0.48918299234540036</speed>
  <fix>3d</fix>
</trkpt>
<trkpt lat="-27.2168997" lon="151.4374958">
  <ele>541.85</ele>
  <time>2026-09-01T20:00:57Z</time>
  <course>289.46</course>
  <speed>0.29</speed>
  <fix>3d</fix>
</trkpt>
<trkpt lat="-27.2169005" lon="151.4374949">
  <ele>540.29</ele>
  <time>2026-09-01T20:00:57Z</time>
  <course>251.89</course>
  <speed>1.800444389588304</speed>
  <fix>3d</fix>
</trkpt>
<trkpt lat="-27.2168997" lon="151.4374958">
  <ele>541.85</ele>
  <time>2026-09-01T20:00:57Z</time>
  <course>289.46</course>
  <speed>0.29</speed>
  <fix>3d</fix>
</trkpt>
<trkpt lat="-27.2169027" lon="151.4374951">
  <ele>539.72</ele>
  <time>2026-09-01T20:00:57Z</time>
  <course>242.11</course>
  <speed>3.0405591591021546</speed>
  <fix>3d</fix>
</trkpt>
<trkpt lat="-27.2169" lon="151.4374953">
  <ele>540.87</ele>
  <time>2026-09-01T20:00:57Z</time>
  <course>198.21</course>
  <speed>0.77</speed>
  <fix>3d</fix>
</trkpt>
<trkpt lat="-27.2169058" lon="151.4374958">
  <ele>539.19</ele>
  <time>2026-09-01T20:00:57Z</time>
  <course>234.25</course>
  <speed>3.9785424466756667</speed>
  <fix>3d</fix>
</trkpt>
<trkpt lat="-27.2169" lon="151.4374953">
  <ele>540.87</ele>
  <time>2026-09-01T20:00:57Z</time>
  <course>198.21</course>
  <speed>0.77</speed>
  <fix>3d</fix>
</trkpt>
<trkpt lat="-27.2169096" lon="151.4374968">
  <ele>538.72</ele>
  <time>2026-09-01T20:00:57Z</time>
  <course>227.33</course>
  <speed>4.689658836205465</speed>
  <fix>3d</fix>
</trkpt>
<trkpt lat="-27.216903" lon="151.4374953">
  <ele>539.77</ele>
  <time>2026-09-01T20:00:57Z</time>
  <course>171.9</course>
  <speed>2.81</speed>
  <fix>3d</fix>
</trkpt>
<trkpt lat="-27.216914" lon="151.4374982">
  <ele>538.32</ele>
  <time>2026-09-01T20:00:57Z</time>
  <course>220.64</course>
  <speed>5.493132075601315</speed>
  <fix>3d</fix>
</trkpt>
<trkpt lat="-27.216903" lon="151.4374953">
  <ele>539.77</ele>
  <time>2026-09-01T20:00:57Z</time>
  <course>171.9</course>
  <speed>2.81</speed>
  <fix>3d</fix>
</trkpt>
<trkpt lat="-27.216919" lon="151.4374999">
  <ele>538.03</ele>
  <time>2026-09-01T20:00:57Z</time>
  <course>213.87</course>
  <speed>5.968400120635344</speed>
  <fix>3d</fix>
</trkpt>
<trkpt lat="-27.2169096" lon="151.4374969">
  <ele>538.78</ele>
  <time>2026-09-01T20:00:57Z</time>
  <course>165.56</course>
  <speed>4.69</speed>
  <fix>3d</fix>
</trkpt>
<trkpt lat="-27.2169242" lon="151.4375016">
  <ele>537.85</ele>
  <time>2026-09-01T20:00:57Z</time>
  <course>208.41</course>
  <speed>6.081850047477331</speed>
  <fix>3d</fix>
</trkpt>
<trkpt lat="-27.2169096" lon="151.4374969">
  <ele>538.78</ele>
  <time>2026-09-01T20:00:57Z</time>
  <course>165.56</course>
  <speed>4.69</speed>
  <fix>3d</fix>
</trkpt>
<trkpt lat="-27.2169293" lon="151.4375035">
  <ele>537.77</ele>
  <time>2026-09-01T20:00:57Z</time>
  <course>204.08</course>
  <speed>5.889261413793754</speed>
  <fix>3d</fix>
</trkpt>
<trkpt lat="-27.2169188" lon="151.4374998">
  <ele>538.1</ele>
  <time>2026-09-01T20:00:57Z</time>
  <course>163.39</course>
  <speed>5.77</speed>
  <fix>3d</fix>
</trkpt>
<trkpt lat="-27.2169341" lon="151.4375055">
  <ele>537.79</ele>
  <time>2026-09-01T20:00:57Z</time>
  <course>200.23</course>
  <speed>5.58574077450789</speed>
  <fix>3d</fix>
</trkpt>
<trkpt lat="-27.2169188" lon="151.4374998">
  <ele>538.1</ele>
  <time>2026-09-01T20:00:57Z</time>
  <course>163.39</course>
  <speed>5.77</speed>
  <fix>3d</fix>
</trkpt>
<trkpt lat="-27.2169386" lon="151.4375078">
  <ele>537.86</ele>
  <time>2026-09-01T20:00:57Z</time>
  <course>196.63</course>
  <speed>5.299179181722391</speed>
  <fix>3d</fix>
</trkpt>
<trkpt lat="-27.2169289" lon="151.4375035">
  <ele>537.82</ele>
  <time>2026-09-01T20:00:57Z</time>
  <course>160.45</course>
  <speed>5.84</speed>
  <fix>3d</fix>
</trkpt>
<trkpt lat="-27.2169428" lon="151.43751">
  <ele>537.99</ele>
  <time>2026-09-01T20:00:57Z</time>
  <course>193.34</course>
  <speed>5.089449872039217</speed>
  <fix>3d</fix>
</trkpt>
<trkpt lat="-27.2169289" lon="151.4375035">
  <ele>537.82</ele>
  <time>2026-09-01T20:00:57Z</time>
  <course>160.45</course>
  <speed>5.84</speed>
  <fix>3d</fix>
</trkpt>
<trkpt lat="-27.2169469" lon="151.4375122">
  <ele>538.16</ele>
  <time>2026-09-01T20:00:57Z</time>
  <course>190.5</course>
  <speed>4.9421655172606265</speed>
  <fix>3d</fix>
</trkpt>
<trkpt lat="-27.2169382" lon="151.4375076">
  <ele>537.88</ele>
  <time>2026-09-01T20:00:57Z</time>
  <course>156.15</course>
  <speed>5.35</speed>
  <fix>3d</fix>
</trkpt>
<trkpt lat="-27.2169507" lon="151.4375145">
  <ele>538.36</ele>
  <time>2026-09-01T20:00:57Z</time>
  <course>188.29</course>
  <speed>4.840588807159724</speed>
  <fix>3d</fix>
</trkpt>
<trkpt lat="-27.2169382" lon="151.4375076">
  <ele>537.88</ele>
  <time>2026-09-01T20:00:57Z</time>
  <course>156.15</course>
  <speed>5.35</speed>
  <fix>3d</fix>
</trkpt>
<trkpt lat="-27.2169546" lon="151.4375169">
  <ele>538.59</ele>
  <time>2026-09-01T20:00:57Z</time>
  <course>186.74</course>
  <speed>4.774955497174816</speed>
  <fix>3d</fix>
</trkpt>
<trkpt lat="-27.2169465" lon="151.4375121">
  <ele>538.16</ele>
  <time>2026-09-01T20:00:57Z</time>
  <course>152.97</course>
  <speed>4.97</speed>
  <fix>3d</fix>
</trkpt>
<trkpt lat="-27.2169583" lon="151.4375192">
  <ele>538.85</ele>
  <time>2026-09-01T20:00:57Z</time>
  <course>185.72</course>
  <speed>4.726309342393915</speed>
  <fix>3d</fix>
</trkpt>
<trkpt lat="-27.2169465" lon="151.4375121">
  <ele>538.16</ele>
  <time>2026-09-01T20:00:57Z</time>
  <course>152.97</course>
  <speed>4.97</speed>
  <fix>3d</fix>
</trkpt>
<trkpt lat="-27.216962" lon="151.4375215">
  <ele>539.12</ele>
  <time>2026-09-01T20:00:57Z</time>
  <course>185.11</course>
  <speed>4.6864592177890545</speed>
  <fix>3d</fix>
</trkpt>
<trkpt lat="-27.2169543" lon="151.4375168">
  <ele>538.58</ele>
  <time>2026-09-01T20:00:57Z</time>
  <course>151.51</course>
  <speed>4.79</speed>
  <fix>3d</fix>
</trkpt>
<trkpt lat="-27.2169657" lon="151.4375237">
  <ele>539.41</ele>
  <time>2026-09-01T20:00:57Z</time>
  <course>184.75</course>
  <speed>4.65537323960174</speed>
  <fix>3d</fix>
</trkpt>
<trkpt lat="-27.2169543" lon="151.4375168">
  <ele>538.58</ele>
  <time>2026-09-01T20:00:57Z</time>
  <course>151.51</course>
  <speed>4.79</speed>
  <fix>3d</fix>
</trkpt>
<trkpt lat="-27.2169692" lon="151.437526">
  <ele>539.72</ele>
  <time>2026-09-01T20:00:57Z</time>
  <course>184.56</course>
  <speed>4.628185389545237</speed>
  <fix>3d</fix>
</trkpt>
<trkpt lat="-27.2169618" lon="151.4375213">
  <ele>539.11</ele>
  <time>2026-09-01T20:00:57Z</time>
  <course>151.03</course>
  <speed>4.69</speed>
  <fix>3d</fix>
</trkpt>
<trkpt lat="-27.216973" lon="151.4375284">
  <ele>540.04</ele>
  <time>2026-09-01T20:00:57Z</time>
  <course>184.45</course>
  <speed>4.604964712134068</speed>
  <fix>3d</fix>
</trkpt>
<trkpt lat="-27.2169618" lon="151.4375213">
  <ele>539.11</ele>
  <time>2026-09-01T20:00:57Z</time>
  <course>151.03</course>
  <speed>4.69</speed>
  <fix>3d</fix>
</trkpt>
<trkpt lat="-27.2169766" lon="151.4375306">
  <ele>540.37</ele>
  <time>2026-09-01T20:00:57Z</time>
  <course>184.38</course>
  <speed>4.581844606705906</speed>
  <fix>3d</fix>
</trkpt>
<trkpt lat="-27.2169691" lon="151.437526">
  <ele>539.71</ele>
  <time>2026-09-01T20:00:57Z</time>
  <course>151.13</course>
  <speed>4.63</speed>
  <fix>3d</fix>
</trkpt>
<trkpt lat="-27.2169802" lon="151.4375327">
  <ele>540.69</ele>
  <time>2026-09-01T20:00:57Z</time>
  <course>184.34</course>
  <speed>4.563551248753541</speed>
  <fix>3d</fix>
</trkpt>
<trkpt lat="-27.2169691" lon="151.437526">
  <ele>539.71</ele>
  <time>2026-09-01T20:00:57Z</time>
  <course>151.13</course>
  <speed>4.63</speed>
  <fix>3d</fix>
</trkpt>
<trkpt lat="-27.2169838" lon="151.437535">
  <ele>541.01</ele>
  <time>2026-09-01T20:00:57Z</time>
  <course>184.33</course>
  <speed>4.541200281863816</speed>
  <fix>3d</fix>
</trkpt>
<trkpt lat="-27.2169764" lon="151.4375304">
  <ele>540.35</ele>
  <time>2026-09-01T20:00:57Z</time>
  <course>151.49</course>
  <speed>4.59</speed>
  <fix>3d</fix>
</trkpt>
<trkpt lat="-27.2169874" lon="151.4375371">
  <ele>541.33</ele>
  <time>2026-09-01T20:00:57Z</time>
  <course>184.37</course>
  <speed>4.519568563480368</speed>
  <fix>3d</fix>
</trkpt>
<trkpt lat="-27.2169764" lon="151.4375304">
  <ele>540.35</ele>
  <time>2026-09-01T20:00:57Z</time>
  <course>151.49</course>
  <speed>4.59</speed>
  <fix>3d</fix>
</trkpt>
<trkpt lat="-27.216991" lon="151.4375394">
  <ele>541.64</ele>
  <time>2026-09-01T20:00:57Z</time>
  <course>184.43</course>
  <speed>4.485398533017997</speed>
  <fix>3d</fix>
</trkpt>
<trkpt lat="-27.2169836" lon="151.4375348">
  <ele>540.99</ele>
  <time>2026-09-01T20:00:57Z</time>
  <course>151.57</course>
  <speed>4.55</speed>
  <fix>3d</fix>
</trkpt>
<trkpt lat="-27.2169945" lon="151.4375416">
  <ele>541.95</ele>
  <time>2026-09-01T20:00:57Z</time>
  <course>184.48</course>
  <speed>4.452864246751747</speed>
  <fix>3d</fix>
</trkpt>
<trkpt lat="-27.2169836" lon="151.4375348">
  <ele>540.99</ele>
  <time>2026-09-01T20:00:57Z</time>
  <course>151.57</course>
  <speed>4.55</speed>
  <fix>3d</fix>
</trkpt>
<trkpt lat="-27.2169979" lon="151.4375438">
  <ele>542.25</ele>
  <time>2026-09-01T20:00:57Z</time>
  <course>184.55</course>
  <speed>4.373213921133975</speed>
  <fix>3d</fix>
</trkpt>
<trkpt lat="-27.2169907" lon="151.4375392">
  <ele>541.62</ele>
  <time>2026-09-01T20:00:57Z</time>
  <course>150.79</course>
  <speed>4.49</speed>
  <fix>3d</fix>
</trkpt>
<trkpt lat="-27.2170012" lon="151.4375461">
  <ele>542.54</ele>
  <time>2026-09-01T20:00:57Z</time>
  <course>184.7</course>
  <speed>4.255925281299003</speed>
  <fix>3d</fix>
</trkpt>
<trkpt lat="-27.2169907" lon="151.4375392">
  <ele>541.62</ele>
  <time>2026-09-01T20:00:57Z</time>
  <course>150.79</course>
  <speed>4.49</speed>
  <fix>3d</fix>
</trkpt>
<trkpt lat="-27.2170044" lon="151.4375484">
  <ele>542.83</ele>
  <time>2026-09-01T20:00:57Z</time>
  <course>184.94</course>
  <speed>4.093763549595897</speed>
  <fix>3d</fix>
</trkpt>
<trkpt lat="-27.2169976" lon="151.4375437">
  <ele>542.23</ele>
  <time>2026-09-01T20:00:57Z</time>
  <course>149.02</course>
  <speed>4.36</speed>
  <fix>3d</fix>
</trkpt>
<trkpt lat="-27.2170073" lon="151.4375507">
  <ele>543.11</ele>
  <time>2026-09-01T20:00:57Z</time>
  <course>185.23</course>
  <speed>3.8864508230517982</speed>
  <fix>3d</fix>
</trkpt>
<trkpt lat="-27.2169976" lon="151.4375437">
  <ele>542.23</ele>
  <time>2026-09-01T20:00:57Z</time>
  <course>149.02</course>
  <speed>4.36</speed>
  <fix>3d</fix>
</trkpt>
<trkpt lat="-27.2170101" lon="151.4375528">
  <ele>543.39</ele>
  <time>2026-09-01T20:00:57Z</time>
  <course>185.55</course>
  <speed>3.662157833846051</speed>
  <fix>3d</fix>
</trkpt>
<trkpt lat="-27.217004" lon="151.4375483">
  <ele>542.81</ele>
  <time>2026-09-01T20:00:57Z</time>
  <course>146.62</course>
  <speed>4.08</speed>
  <fix>3d</fix>
</trkpt>
<trkpt lat="-27.2170126" lon="151.4375551">
  <ele>543.66</ele>
  <time>2026-09-01T20:00:57Z</time>
  <course>185.9</course>
  <speed>3.4109382873338534</speed>
  <fix>3d</fix>
</trkpt>
<trkpt lat="-27.217004" lon="151.4375483">
  <ele>542.81</ele>
  <time>2026-09-01T20:00:57Z</time>
  <course>146.62</course>
  <speed>4.08</speed>
  <fix>3d</fix>
</trkpt>
<trkpt lat="-27.2170149" lon="151.4375571">
  <ele>543.91</ele>
  <time>2026-09-01T20:00:57Z</time>
  <course>186.29</course>
  <speed>3.1574831749353787</speed>
  <fix>3d</fix>
</trkpt>
<trkpt lat="-27.2170098" lon="151.4375528">
  <ele>543.37</ele>
  <time>2026-09-01T20:00:57Z</time>
  <course>143.7</course>
  <speed>3.66</speed>
  <fix>3d</fix>
</trkpt>
<trkpt lat="-27.217017" lon="151.4375591">
  <ele>544.19</ele>
  <time>2026-09-01T20:00:57Z</time>
  <course>186.74</course>
  <speed>2.9086938649503833</speed>
  <fix>3d</fix>
</trkpt>
<trkpt lat="-27.2170098" lon="151.4375528">
  <ele>543.37</ele>
  <time>2026-09-01T20:00:57Z</time>
  <course>143.7</course>
  <speed>3.66</speed>
  <fix>3d</fix>
</trkpt>
<trkpt lat="-27.2170188" lon="151.4375612">
  <ele>544.44</ele>
  <time>2026-09-01T20:00:57Z</time>
  <course>187.24</course>
  <speed>2.658759109058209</speed>
  <fix>3d</fix>
</trkpt>
<trkpt lat="-27.2170147" lon="151.437557">
  <ele>543.9</ele>
  <time>2026-09-01T20:00:57Z</time>
  <course>139.93</course>
  <speed>3.17</speed>
  <fix>3d</fix>
</trkpt>
<trkpt lat="-27.2170203" lon="151.4375629">
  <ele>544.7</ele>
  <time>2026-09-01T20:00:57Z</time>
  <course>187.77</course>
  <speed>2.408318915758459</speed>
  <fix>3d</fix>
</trkpt>
<trkpt lat="-27.2170147" lon="151.437557">
  <ele>543.9</ele>
  <time>2026-09-01T20:00:57Z</time>
  <course>139.93</course>
  <speed>3.17</speed>
  <fix>3d</fix>
</trkpt>
<trkpt lat="-27.2170217" lon="151.4375648">
  <ele>544.95</ele>
  <time>2026-09-01T20:00:57Z</time>
  <course>188.33</course>
  <speed>2.174235497824465</speed>
  <fix>3d</fix>
</trkpt>
<trkpt lat="-27.2170185" lon="151.437561">
  <ele>544.43</ele>
  <time>2026-09-01T20:00:57Z</time>
  <course>134.91</course>
  <speed>2.67</speed>
  <fix>3d</fix>
</trkpt>
<trkpt lat="-27.2170227" lon="151.4375665">
  <ele>545.2</ele>
  <time>2026-09-01T20:00:57Z</time>
  <course>188.88</course>
  <speed>1.955326059765992</speed>
  <fix>3d</fix>
</trkpt>
<trkpt lat="-27.2170185" lon="151.437561">
  <ele>544.43</ele>
  <time>2026-09-01T20:00:57Z</time>
  <course>134.91</course>
  <speed>2.67</speed>
  <fix>3d</fix>
</trkpt>
<trkpt lat="-27.2170236" lon="151.4375681">
  <ele>545.45</ele>
  <time>2026-09-01T20:00:57Z</time>
  <course>189.4</course>
  <speed>1.7406320691059327</speed>
  <fix>3d</fix>
</trkpt>
<trkpt lat="-27.2170215" lon="151.4375646">
  <ele>544.94</ele>
  <time>2026-09-01T20:00:57Z</time>
  <course>128.15</course>
  <speed>2.19</speed>
  <fix>3d</fix>
</trkpt>
<trkpt lat="-27.2170244" lon="151.4375696">
  <ele>545.65</ele>
  <time>2026-09-01T20:00:57Z</time>
  <course>189.61</course>
  <speed>1.7104677722775137</speed>
  <fix>3d</fix>
</trkpt>
<trkpt lat="-27.2170215" lon="151.4375646">
  <ele>544.94</ele>
  <time>2026-09-01T20:00:57Z</time>
  <course>128.15</course>
  <speed>2.19</speed>
  <fix>3d</fix>
</trkpt>
<trkpt lat="-27.2170251" lon="151.437571">
  <ele>545.74</ele>
  <time>2026-09-01T20:00:57Z</time>
  <course>189.35</course>
  <speed>1.7030854353202602</speed>
  <fix>3d</fix>
</trkpt>
<trkpt lat="-27.2170234" lon="151.437568">
  <ele>545.41</ele>
  <time>2026-09-01T20:00:57Z</time>
  <course>121.75</course>
  <speed>1.84</speed>
  <fix>3d</fix>
</trkpt>
<trkpt lat="-27.2170259" lon="151.4375725">
  <ele>545.74</ele>
  <time>2026-09-01T20:00:57Z</time>
  <course>188.78</course>
  <speed>1.6757386431063765</speed>
  <fix>3d</fix>
</trkpt>
<trkpt lat="-27.2170234" lon="151.437568">
  <ele>545.41</ele>
  <time>2026-09-01T20:00:57Z</time>
  <course>121.75</course>
  <speed>1.84</speed>
  <fix>3d</fix>
</trkpt>
<trkpt lat="-27.2170266" lon="151.4375741">
  <ele>545.64</ele>
  <time>2026-09-01T20:00:57Z</time>
  <course>187.88</course>
  <speed>1.6347782724271815</speed>
  <fix>3d</fix>
</trkpt>
<trkpt lat="-27.2170251" lon="151.437571">
  <ele>545.69</ele>
  <time>2026-09-01T20:00:57Z</time>
  <course>119.85</course>
  <speed>1.7</speed>
  <fix>3d</fix>
</trkpt>
<trkpt lat="-27.2170273" lon="151.4375754">
  <ele>545.45</ele>
  <time>2026-09-01T20:00:57Z</time>
  <course>186.41</course>
  <speed>1.5492256130079958</speed>
  <fix>3d</fix>
</trkpt>
<trkpt lat="-27.2170251" lon="151.437571">
  <ele>545.69</ele>
  <time>2026-09-01T20:00:57Z</time>
  <course>119.85</course>
  <speed>1.7</speed>
  <fix>3d</fix>
</trkpt>
<trkpt lat="-27.217028" lon="151.4375767">
  <ele>545.19</ele>
  <time>2026-09-01T20:00:57Z</time>
  <course>184.01</course>
  <speed>1.4288806808127823</speed>
  <fix>3d</fix>
</trkpt>
<trkpt lat="-27.2170265" lon="151.4375739">
  <ele>545.6</ele>
  <time>2026-09-01T20:00:57Z</time>
  <course>119.86</course>
  <speed>1.62</speed>
  <fix>3d</fix>
</trkpt>
<trkpt lat="-27.2170286" lon="151.437578">
  <ele>544.87</ele>
  <time>2026-09-01T20:00:57Z</time>
  <course>180.29</course>
  <speed>1.2794530081249564</speed>
  <fix>3d</fix>
</trkpt>
<trkpt lat="-27.2170265" lon="151.4375739">
  <ele>545.6</ele>
  <time>2026-09-01T20:00:57Z</time>
  <course>119.86</course>
  <speed>1.62</speed>
  <fix>3d</fix>
</trkpt>
<trkpt lat="-27.2170292" lon="151.437579">
  <ele>544.49</ele>
  <time>2026-09-01T20:00:57Z</time>
  <course>175.35</course>
  <speed>1.128937553631732</speed>
  <fix>3d</fix>
</trkpt>
<trkpt lat="-27.2170279" lon="151.4375766">
  <ele>545.17</ele>
  <time>2026-09-01T20:00:57Z</time>
  <course>120.38</course>
  <speed>1.42</speed>
  <fix>3d</fix>
</trkpt>
<trkpt lat="-27.2170298" lon="151.4375799">
  <ele>544.06</ele>
  <time>2026-09-01T20:00:57Z</time>
  <course>170.13</course>
  <speed>1.0280077820717117</speed>
  <fix>3d</fix>
</trkpt>
<trkpt lat="-27.2170279" lon="151.4375766">
  <ele>545.17</ele>
  <time>2026-09-01T20:00:57Z</time>
  <course>120.38</course>
  <speed>1.42</speed>
  <fix>3d</fix>
</trkpt>
<trkpt lat="-27.2170304" lon="151.4375806">
  <ele>543.58</ele>
  <time>2026-09-01T20:00:57Z</time>
  <course>165.3</course>
  <speed>0.9654014708917736</speed>
  <fix>3d</fix>
</trkpt>
<trkpt lat="-27.2170292" lon="151.4375788">
  <ele>544.48</ele>
  <time>2026-09-01T20:00:57Z</time>
  <course>123.93</course>
  <speed>1.16</speed>
  <fix>3d</fix>
</trkpt>
<trkpt lat="-27.2170309" lon="151.4375814">
  <ele>543.06</ele>
  <time>2026-09-01T20:00:57Z</time>
  <course>160.93</course>
  <speed>0.9475230867899737</speed>
  <fix>3d</fix>
</trkpt>
<trkpt lat="-27.2170292" lon="151.4375788">
  <ele>544.48</ele>
  <time>2026-09-01T20:00:57Z</time>
  <course>123.93</course>
  <speed>1.16</speed>
  <fix>3d</fix>
</trkpt>
<trkpt lat="-27.2170316" lon="151.437582">
  <ele>542.49</ele>
  <time>2026-09-01T20:00:57Z</time>
  <course>156.93</course>
  <speed>0.9794896630388705</speed>
  <fix>3d</fix>
</trkpt>
<trkpt lat="-27.2170303" lon="151.4375806">
  <ele>543.58</ele>
  <time>2026-09-01T20:00:57Z</time>
  <course>130.5</course>
  <speed>0.99</speed>
  <fix>3d</fix>
</trkpt>
<trkpt lat="-27.2170323" lon="151.4375827">
  <ele>541.87</ele>
  <time>2026-09-01T20:00:57Z</time>
  <course>153.17</course>
  <speed>1.0601886624558856</speed>
  <fix>3d</fix>
</trkpt>
<trkpt lat="-27.2170303" lon="151.4375806">
  <ele>543.58</ele>
  <time>2026-09-01T20:00:57Z</time>
  <course>130.5</course>
  <speed>0.99</speed>
  <fix>3d</fix>
</trkpt>
<trkpt lat="-27.2170331" lon="151.4375833">
  <ele>541.19</ele>
  <time>2026-09-01T20:00:57Z</time>
  <course>149.56</course>
  <speed>1.1537764081484765</speed>
  <fix>3d</fix>
</trkpt>
<trkpt lat="-27.2170316" lon="151.437582">
  <ele>542.5</ele>
  <time>2026-09-01T20:00:57Z</time>
  <course>139.29</course>
  <speed>1.0</speed>
  <fix>3d</fix>
</trkpt>
<trkpt lat="-27.2170343" lon="151.437584">
  <ele>540.43</ele>
  <time>2026-09-01T20:00:57Z</time>
  <course>145.63</course>
  <speed>1.9066462702871763</speed>
  <fix>3d</fix>
</trkpt>
<trkpt lat="-27.2170316" lon="151.437582">
  <ele>542.5</ele>
  <time>2026-09-01T20:00:57Z</time>
  <course>139.29</course>
  <speed>1.0</speed>
  <fix>3d</fix>
</trkpt>
<trkpt lat="-27.217036" lon="151.4375852">
  <ele>539.61</ele>
  <time>2026-09-01T20:00:57Z</time>
  <course>139.9</course>
  <speed>2.4694128856876083</speed>
  <fix>3d</fix>
</trkpt>
<trkpt lat="-27.2170332" lon="151.4375833">
  <ele>541.19</ele>
  <time>2026-09-01T20:00:57Z</time>
  <course>148.32</course>
  <speed>1.46</speed>
  <fix>3d</fix>
</trkpt>
<trkpt lat="-27.2170381" lon="151.4375863">
  <ele>538.71</ele>
  <time>2026-09-01T20:00:57Z</time>
  <course>130.86</course>
  <speed>2.5994230129011324</speed>
  <fix>3d</fix>
</trkpt>
<trkpt lat="-27.2170332" lon="151.4375833">
  <ele>541.19</ele>
  <time>2026-09-01T20:00:57Z</time>
  <course>148.32</course>
  <speed>1.46</speed>
  <fix>3d</fix>
</trkpt>
<trkpt lat="-27.2170401" lon="151.4375876">
  <ele>537.72</ele>
  <time>2026-09-01T20:00:57Z</time>
  <course>120.24</course>
  <speed>2.4429695045169924</speed>
  <fix>3d</fix>
</trkpt>
<trkpt lat="-27.2170361" lon="151.4375851">
  <ele>539.62</ele>
  <time>2026-09-01T20:00:57Z</time>
  <course>151.36</course>
  <speed>2.23</speed>
  <fix>3d</fix>
</trkpt>
<trkpt lat="-27.217042" lon="151.4375887">
  <ele>536.63</ele>
  <time>2026-09-01T20:00:57Z</time>
  <course>119.62</course>
  <speed>2.3129418496797536</speed>
  <fix>3d</fix>
</trkpt>
<trkpt lat="-27.2170361" lon="151.4375851">
  <ele>539.62</ele>
  <time>2026-09-01T20:00:57Z</time>
  <course>151.36</course>
  <speed>2.23</speed>
  <fix>3d</fix>
</trkpt>
<trkpt lat="-27.2170438" lon="151.4375899">
  <ele>535.45</ele>
  <time>2026-09-01T20:00:57Z</time>
  <course>122.8</course>
  <speed>2.5092827660508887</speed>
  <fix>3d</fix>
</trkpt>
<trkpt lat="-27.2170399" lon="151.4375875">
  <ele>537.73</ele>
  <time>2026-09-01T20:00:57Z</time>
  <course>151.76</course>
  <speed>2.46</speed>
  <fix>3d</fix>
</trkpt>
<trkpt lat="-27.2170459" lon="151.4375915">
  <ele>534.2</ele>
  <time>2026-09-01T20:00:57Z</time>
  <course>122.89</course>
  <speed>3.1541242841714405</speed>
  <fix>3d</fix>
</trkpt>
<trkpt lat="-27.2170399" lon="151.4375875">
  <ele>537.73</ele>
  <time>2026-09-01T20:00:57Z</time>
  <course>151.76</course>
  <speed>2.46</speed>
  <fix>3d</fix>
</trkpt>
<trkpt lat="-27.2170484" lon="151.4375939">
  <ele>532.88</ele>
  <time>2026-09-01T20:00:57Z</time>
  <course>122.16</course>
  <speed>4.193626115904945</speed>
  <fix>3d</fix>
</trkpt>
<trkpt lat="-27.2170438" lon="151.43759">
  <ele>535.47</ele>
  <time>2026-09-01T20:00:57Z</time>
  <course>147.39</course>
  <speed>2.71</speed>
  <fix>3d</fix>
</trkpt>
<trkpt lat="-27.2170513" lon="151.4375974">
  <ele>531.52</ele>
  <time>2026-09-01T20:00:57Z</time>
  <course>122.18</course>
  <speed>5.428959384633486</speed>
  <fix>3d</fix>
</trkpt>
<trkpt lat="-27.2170438" lon="151.43759">
  <ele>535.47</ele>
  <time>2026-09-01T20:00:57Z</time>
  <course>147.39</course>
  <speed>2.71</speed>
  <fix>3d</fix>
</trkpt>
<trkpt lat="-27.2170546" lon="151.4376024">
  <ele>530.13</ele>
  <time>2026-09-01T20:00:57Z</time>
  <course>122.99</course>
  <speed>6.682529461214518</speed>
  <fix>3d</fix>
</trkpt>
<trkpt lat="-27.2170485" lon="151.4375943">
  <ele>532.92</ele>
  <time>2026-09-01T20:00:57Z</time>
  <course>134.87</course>
  <speed>4.21</speed>
  <fix>3d</fix>
</trkpt>
<trkpt lat="-27.2170582" lon="151.4376084">
  <ele>528.73</ele>
  <time>2026-09-01T20:00:57Z</time>
  <course>124.0</course>
  <speed>7.912907177516996</speed>
  <fix>3d</fix>
</trkpt>
<trkpt lat="-27.2170485" lon="151.4375943">
  <ele>532.92</ele>
  <time>2026-09-01T20:00:57Z</time>
  <course>134.87</course>
  <speed>4.21</speed>
  <fix>3d</fix>
</trkpt>
<trkpt lat="-27.2170622" lon="151.4376159">
  <ele>527.33</ele>
  <time>2026-09-01T20:00:57Z</time>
  <course>124.77</course>
  <speed>9.151174787971215</speed>
  <fix>3d</fix>
</trkpt>
<trkpt lat="-27.2170546" lon="151.4376027">
  <ele>530.19</ele>
  <time>2026-09-01T20:00:57Z</time>
  <course>125.22</course>
  <speed>6.6</speed>
  <fix>3d</fix>
</trkpt>
<trkpt lat="-27.2170668" lon="151.4376244">
  <ele>525.94</ele>
  <time>2026-09-01T20:00:57Z</time>
  <course>125.16</course>
  <speed>10.418641946050359</speed>
  <fix>3d</fix>
</trkpt>
<trkpt lat="-27.2170546" lon="151.4376027">
  <ele>530.19</ele>
  <time>2026-09-01T20:00:57Z</time>
  <course>125.22</course>
  <speed>6.6</speed>
  <fix>3d</fix>
</trkpt>
<trkpt lat="-27.217072" lon="151.4376338">
  <ele>524.58</ele>
  <time>2026-09-01T20:00:57Z</time>
  <course>125.26</course>
  <speed>11.700277774480398</speed>
  <fix>3d</fix>
</trkpt>
<trkpt lat="-27.2170622" lon="151.437616">
  <ele>527.4</ele>
  <time>2026-09-01T20:00:57Z</time>
  <course>121.63</course>
  <speed>9.11</speed>
  <fix>3d</fix>
</trkpt>
<trkpt lat="-27.217078" lon="151.4376443">
  <ele>523.26</ele>
  <time>2026-09-01T20:00:57Z</time>
  <course>125.14</course>
  <speed>12.935779837334895</speed>
  <fix>3d</fix>
</trkpt>
<trkpt lat="-27.2170622" lon="151.437616">
  <ele>527.4</ele>
  <time>2026-09-01T20:00:57Z</time>
  <course>121.63</course>
  <speed>9.11</speed>
  <fix>3d</fix>
</trkpt>
<trkpt lat="-27.2170848" lon="151.4376557">
  <ele>522.02</ele>
  <time>2026-09-01T20:00:57Z</time>
  <course>124.92</course>
  <speed>14.110722873049417</speed>
  <fix>3d</fix>
</trkpt>
<trkpt lat="-27.217072" lon="151.4376338">
  <ele>524.67</ele>
  <time>2026-09-01T20:00:57Z</time>
  <course>122.36</course>
  <speed>11.62</speed>
  <fix>3d</fix>
</trkpt>
<trkpt lat="-27.2170924" lon="151.4376677">
  <ele>520.85</ele>
  <time>2026-09-01T20:00:57Z</time>
  <course>124.67</course>
  <speed>15.206357223214242</speed>
  <fix>3d</fix>
</trkpt>
<trkpt lat="-27.217072" lon="151.4376338">
  <ele>524.67</ele>
  <time>2026-09-01T20:00:57Z</time>
  <course>122.36</course>
  <speed>11.62</speed>
  <fix>3d</fix>
</trkpt>
<trkpt lat="-27.2171006" lon="151.4376806">
  <ele>519.78</ele>
  <time>2026-09-01T20:00:57Z</time>
  <course>124.41</course>
  <speed>16.208630417157398</speed>
  <fix>3d</fix>
</trkpt>
<trkpt lat="-27.2170848" lon="151.4376555">
  <ele>522.12</ele>
  <time>2026-09-01T20:00:57Z</time>
  <course>124.49</course>
  <speed>14.02</speed>
  <fix>3d</fix>
</trkpt>
<trkpt lat="-27.2171094" lon="151.4376944">
  <ele>518.82</ele>
  <time>2026-09-01T20:00:57Z</time>
  <course>124.14</course>
  <speed>17.07566982580771</speed>
  <fix>3d</fix>
</trkpt>
<trkpt lat="-27.2170848" lon="151.4376555">
  <ele>522.12</ele>
  <time>2026-09-01T20:00:57Z</time>
  <course>124.49</course>
  <speed>14.02</speed>
  <fix>3d</fix>
</trkpt>
<trkpt lat="-27.2171184" lon="151.4377087">
  <ele>517.99</ele>
  <time>2026-09-01T20:00:57Z</time>
  <course>123.85</course>
  <speed>17.786382431512035</speed>
  <fix>3d</fix>
</trkpt>
<trkpt lat="-27.2171004" lon="151.4376804">
  <ele>519.89</ele>
  <time>2026-09-01T20:00:57Z</time>
  <course>125.59</course>
  <speed>16.1</speed>
  <fix>3d</fix>
</trkpt>
<trkpt lat="-27.2171278" lon="151.4377238">
  <ele>517.28</ele>
  <time>2026-09-01T20:00:57Z</time>
  <course>123.53</course>
  <speed>18.336613645927102</speed>
  <fix>3d</fix>
</trkpt>
<trkpt lat="-27.2171004" lon="151.4376804">
  <ele>519.89</ele>
  <time>2026-09-01T20:00:57Z</time>
  <course>125.59</course>
  <speed>16.1</speed>
  <fix>3d</fix>
</trkpt>
<trkpt lat="-27.217137" lon="151.4377394">
  <ele>516.7</ele>
  <time>2026-09-01T20:00:57Z</time>
  <course>123.2</course>
  <speed>18.710275251850252</speed>
  <fix>3d</fix>
</trkpt>
<trkpt lat="-27.217118" lon="151.4377083">
  <ele>518.08</ele>
  <time>2026-09-01T20:00:57Z</time>
  <course>124.99</course>
  <speed>17.67</speed>
  <fix>3d</fix>
</trkpt>
<trkpt lat="-27.2171462" lon="151.4377553">
  <ele>516.26</ele>
  <time>2026-09-01T20:00:57Z</time>
  <course>122.97</course>
  <speed>18.910341086294558</speed>
  <fix>3d</fix>
</trkpt>
<trkpt lat="-27.217118" lon="151.4377083">
  <ele>518.08</ele>
  <time>2026-09-01T20:00:57Z</time>
  <course>124.99</course>
  <speed>17.67</speed>
  <fix>3d</fix>
</trkpt>
<trkpt lat="-27.2171554" lon="151.4377715">
  <ele>515.91</ele>
  <time>2026-09-01T20:00:57Z</time>
  <course>122.85</course>
  <speed>18.961276328348784</speed>
  <fix>3d</fix>
</trkpt>
<trkpt lat="-27.2171364" lon="151.4377387">
  <ele>516.79</ele>
  <time>2026-09-01T20:00:57Z</time>
  <course>123.48</course>
  <speed>18.61</speed>
  <fix>3d</fix>
</trkpt>
<trkpt lat="-27.2171644" lon="151.4377878">
  <ele>515.66</ele>
  <time>2026-09-01T20:00:57Z</time>
  <course>122.75</course>
  <speed>18.916799412162725</speed>
  <fix>3d</fix>
</trkpt>
<trkpt lat="-27.2171364" lon="151.4377387">
  <ele>516.79</ele>
  <time>2026-09-01T20:00:57Z</time>
  <course>123.48</course>
  <speed>18.61</speed>
  <fix>3d</fix>
</trkpt>
<trkpt lat="-27.2171733" lon="151.437804">
  <ele>515.45</ele>
  <time>2026-09-01T20:00:57Z</time>
  <course>122.58</course>
  <speed>18.8289192467332</speed>
  <fix>3d</fix>
</trkpt>
<trkpt lat="-27.2171548" lon="151.4377706">
  <ele>515.97</ele>
  <time>2026-09-01T20:00:57Z</time>
  <course>122.26</course>
  <speed>18.92</speed>
  <fix>3d</fix>
</trkpt>
<trkpt lat="-27.2171822" lon="151.43782">
  <ele>515.26</ele>
  <time>2026-09-01T20:00:57Z</time>
  <course>122.33</course>
  <speed>18.71757730049485</speed>
  <fix>3d</fix>
</trkpt>
<trkpt lat="-27.2171548" lon="151.4377706">
  <ele>515.97</ele>
  <time>2026-09-01T20:00:57Z</time>
  <course>122.26</course>
  <speed>18.92</speed>
  <fix>3d</fix>
</trkpt>
<trkpt lat="-27.217191" lon="151.4378361">
  <ele>515.08</ele>
  <time>2026-09-01T20:00:57Z</time>
  <course>122.06</course>
  <speed>18.59774448689948</speed>
  <fix>3d</fix>
</trkpt>
<trkpt lat="-27.2171728" lon="151.4378031">
  <ele>515.46</ele>
  <time>2026-09-01T20:00:57Z</time>
  <course>121.81</course>
  <speed>18.82</speed>
  <fix>3d</fix>
</trkpt>
<trkpt lat="-27.2171998" lon="151.437852">
  <ele>514.91</ele>
  <time>2026-09-01T20:00:57Z</time>
  <course>121.82</course>
  <speed>18.47792466701821</speed>
  <fix>3d</fix>
</trkpt>
<trkpt lat="-27.2171728" lon="151.4378031">
  <ele>515.46</ele>
  <time>2026-09-01T20:00:57Z</time>
  <course>121.81</course>
  <speed>18.82</speed>
  <fix>3d</fix>
</trkpt>
<trkpt lat="-27.2172085" lon="151.4378678">
  <ele>514.74</ele>
  <time>2026-09-01T20:00:57Z</time>
  <course>121.64</course>
  <speed>18.358118095273273</speed>
  <fix>3d</fix>
</trkpt>
<trkpt lat="-27.2171905" lon="151.4378352">
  <ele>515.09</ele>
  <time>2026-09-01T20:00:57Z</time>
  <course>121.83</course>
  <speed>18.6</speed>
  <fix>3d</fix>
</trkpt>
<trkpt lat="-27.2172172" lon="151.4378835">
  <ele>514.57</ele>
  <time>2026-09-01T20:00:57Z</time>
  <course>121.53</course>
  <speed>18.236227680087786</speed>
  <fix>3d</fix>
</trkpt>
<trkpt lat="-27.2171905" lon="151.4378352">
  <ele>515.09</ele>
  <time>2026-09-01T20:00:57Z</time>
  <course>121.83</course>
  <speed>18.6</speed>
  <fix>3d</fix>
</trkpt>
<trkpt lat="-27.215401" lon="151.4418885">
  <ele>542.98</ele>
  <time>2026-09-01T20:00:57Z</time>
  <course>250.01</course>
  <speed>0.0</speed>
  <fix>3d</fix>
</trkpt>
<trkpt lat="-27.2172081" lon="151.4378669">
  <ele>514.75</ele>
  <time>2026-09-01T20:00:57Z</time>
  <course>121.9</course>
  <speed>18.36</speed>
  <fix>3d</fix>
</trkpt>
<trkpt lat="-27.215401" lon="151.4418885">
  <ele>542.87</ele>
  <time>2026-09-01T20:00:57Z</time>
  <course>250.01</course>
  <speed>0.01</speed>
  <fix>3d</fix>
</trkpt>
<trkpt lat="-27.2172081" lon="151.4378669">
  <ele>514.75</ele>
  <time>2026-09-01T20:00:57Z</time>
  <course>121.9</course>
  <speed>18.36</speed>
  <fix>3d</fix>
</trkpt>
<trkpt lat="-27.215401" lon="151.4418883">
  <ele>542.66</ele>
  <time>2026-09-01T20:00:57Z</time>
  <course>250.02</course>
  <speed>0.044721359549995794</speed>
  <fix>3d</fix>
</trkpt>
<trkpt lat="-27.2163089" lon="151.4398856">
  <ele>528.73</ele>
  <time>2026-09-01T20:00:57Z</time>
  <course>121.95</course>
  <speed>9.11</speed>
  <fix>3d</fix>
</trkpt>
<trkpt lat="-27.215401" lon="151.4418883">
  <ele>542.38</ele>
  <time>2026-09-01T20:00:57Z</time>
  <course>250.59</course>
  <speed>0.11704699910719625</speed>
  <fix>3d</fix>
</trkpt>
<trkpt lat="-27.2163089" lon="151.4398856">
  <ele>528.73</ele>
  <time>2026-09-01T20:00:57Z</time>
  <course>121.95</course>
  <speed>9.11</speed>
  <fix>3d</fix>
</trkpt>
<trkpt lat="-27.215401" lon="151.4418882">
  <ele>542.02</ele>
  <time>2026-09-01T20:00:57Z</time>
  <course>253.69</course>
  <speed>0.2570992026436488</speed>
  <fix>3d</fix>
</trkpt>
<trkpt lat="-27.215401" lon="151.4418884">
  <ele>542.64</ele>
  <time>2026-09-01T20:00:57Z</time>
  <course>248.69</course>
  <speed>0.06</speed>
  <fix>3d</fix>
</trkpt>
<trkpt lat="-27.2154009" lon="151.4418878">
  <ele>541.58</ele>
  <time>2026-09-01T20:00:57Z</time>
  <course>263.13</course>
  <speed>0.4410215414239989</speed>
  <fix>3d</fix>
</trkpt>
<trkpt lat="-27.215401" lon="151.4418884">
  <ele>542.64</ele>
  <time>2026-09-01T20:00:57Z</time>
  <course>248.69</course>
  <speed>0.06</speed>
  <fix>3d</fix>
</trkpt>
<trkpt lat="-27.2154008" lon="151.4418875">
  <ele>541.07</ele>
  <time>2026-09-01T20:00:57Z</time>
  <course>264.37</course>
  <speed>0.4045985664828782</speed>
  <fix>3d</fix>
</trkpt>
<trkpt lat="-27.2154009" lon="151.4418881">
  <ele>542.0</ele>
  <time>2026-09-01T20:00:57Z</time>
  <course>291.79</course>
  <speed>0.26</speed>
  <fix>3d</fix>
</trkpt>
<trkpt lat="-27.2154016" lon="151.4418873">
  <ele>540.51</ele>
  <time>2026-09-01T20:00:57Z</time>
  <course>252.0</course>
  <speed>1.7504570831642803</speed>
  <fix>3d</fix>
</trkpt>
<trkpt lat="-27.2154009" lon="151.4418881">
  <ele>542.0</ele>
  <time>2026-09-01T20:00:57Z</time>
  <course>291.79</course>
  <speed>0.26</speed>
  <fix>3d</fix>
</trkpt>
<trkpt lat="-27.2154038" lon="151.4418876">
  <ele>539.96</ele>
  <time>2026-09-01T20:00:57Z</time>
  <course>242.53</course>
  <speed>3.028530997034701</speed>
  <fix>3d</fix>
</trkpt>
<trkpt lat="-27.2154012" lon="151.4418875">
  <ele>541.07</ele>
  <time>2026-09-01T20:00:57Z</time>
  <course>193.87</course>
  <speed>0.74</speed>
  <fix>3d</fix>
</trkpt>
<trkpt lat="-27.2154069" lon="151.4418883">
  <ele>539.45</ele>
  <time>2026-09-01T20:00:57Z</time>
  <course>234.91</course>
  <speed>3.9950594488693154</speed>
  <fix>3d</fix>
</trkpt>
<trkpt lat="-27.2154012" lon="151.4418875">
  <ele>541.07</ele>
  <time>2026-09-01T20:00:57Z</time>
  <course>193.87</course>
  <speed>0.74</speed>
  <fix>3d</fix>
</trkpt>
<trkpt lat="-27.2154106" lon="151.4418897">
  <ele>538.99</ele>
  <time>2026-09-01T20:00:57Z</time>
  <course>228.13</course>
  <speed>4.773017913228485</speed>
  <fix>3d</fix>
</trkpt>
<trkpt lat="-27.2154041" lon="151.4418878">
  <ele>540.0</ele>
  <time>2026-09-01T20:00:57Z</time>
  <course>169.44</course>
  <speed>2.8</speed>
  <fix>3d</fix>
</trkpt>
<trkpt lat="-27.2154151" lon="151.4418911">
  <ele>538.61</ele>
  <time>2026-09-01T20:00:57Z</time>
  <course>221.79</course>
  <speed>5.582517353309347</speed>
  <fix>3d</fix>
</trkpt>
<trkpt lat="-27.2154041" lon="151.4418878">
  <ele>540.0</ele>
  <time>2026-09-01T20:00:57Z</time>
  <course>169.44</course>
  <speed>2.8</speed>
  <fix>3d</fix>
</trkpt>
<trkpt lat="-27.2154201" lon="151.441893">
  <ele>538.33</ele>
  <time>2026-09-01T20:00:57Z</time>
  <course>215.52</course>
  <speed>6.087405030060017</speed>
  <fix>3d</fix>
</trkpt>
<trkpt lat="-27.2154108" lon="151.4418897">
  <ele>539.05</ele>
  <time>2026-09-01T20:00:57Z</time>
  <course>163.72</course>
  <speed>4.75</speed>
  <fix>3d</fix>
</trkpt>
<trkpt lat="-27.2154254" lon="151.441895">
  <ele>538.11</ele>
  <time>2026-09-01T20:00:57Z</time>
  <course>210.09</course>
  <speed>6.399164007899782</speed>
  <fix>3d</fix>
</trkpt>
<trkpt lat="-27.2154108" lon="151.4418897">
  <ele>539.05</ele>
  <time>2026-09-01T20:00:57Z</time>
  <course>163.72</course>
  <speed>4.75</speed>
  <fix>3d</fix>
</trkpt>
<trkpt lat="-27.2154309" lon="151.4418973">
  <ele>537.96</ele>
  <time>2026-09-01T20:00:57Z</time>
  <course>205.75</course>
  <speed>6.570121764472862</speed>
  <fix>3d</fix>
</trkpt>
<trkpt lat="-27.21542" lon="151.441893">
  <ele>538.37</ele>
  <time>2026-09-01T20:00:57Z</time>
  <course>161.37</course>
  <speed>5.97</speed>
  <fix>3d</fix>
</trkpt>
<trkpt lat="-27.2154364" lon="151.4418998">
  <ele>537.89</ele>
  <time>2026-09-01T20:00:57Z</time>
  <course>202.31</course>
  <speed>6.61692526782644</speed>
  <fix>3d</fix>
</trkpt>
<trkpt lat="-27.21542" lon="151.441893">
  <ele>538.37</ele>
  <time>2026-09-01T20:00:57Z</time>
  <course>161.37</course>
  <speed>5.97</speed>
  <fix>3d</fix>
</trkpt>
<trkpt lat="-27.2154419" lon="151.4419025">
  <ele>537.87</ele>
  <time>2026-09-01T20:00:57Z</time>
  <course>199.6</course>
  <speed>6.5917524225353</speed>
  <fix>3d</fix>
</trkpt>
<trkpt lat="-27.2154307" lon="151.4418973">
  <ele>538.0</ele>
  <time>2026-09-01T20:00:57Z</time>
  <course>158.81</course>
  <speed>6.5</speed>
  <fix>3d</fix>
</trkpt>
<trkpt lat="-27.2154473" lon="151.4419051">
  <ele>537.9</ele>
  <time>2026-09-01T20:00:57Z</time>
  <course>197.51</course>
  <speed>6.525710689265959</speed>
  <fix>3d</fix>
</trkpt>
<trkpt lat="-27.2154307" lon="151.4418973">
  <ele>538.0</ele>
  <time>2026-09-01T20:00:57Z</time>
  <course>158.81</course>
  <speed>6.5</speed>
  <fix>3d</fix>
</trkpt>
<trkpt lat="-27.2154526" lon="151.4419079">
  <ele>537.96</ele>
  <time>2026-09-01T20:00:57Z</time>
  <course>196.0</course>
  <speed>6.4570116927259775</speed>
  <fix>3d</fix>
</trkpt>
<trkpt lat="-27.2154416" lon="151.4419024">
  <ele>537.89</ele>
  <time>2026-09-01T20:00:57Z</time>
  <course>156.58</course>
  <speed>6.58</speed>
  <fix>3d</fix>
</trkpt>
<trkpt lat="-27.2154579" lon="151.4419107">
  <ele>538.07</ele>
  <time>2026-09-01T20:00:57Z</time>
  <course>194.98</course>
  <speed>6.3892409564830155</speed>
  <fix>3d</fix>
</trkpt>
<trkpt lat="-27.2154416" lon="151.4419024">
  <ele>537.89</ele>
  <time>2026-09-01T20:00:57Z</time>
  <course>156.58</course>
  <speed>6.58</speed>
  <fix>3d</fix>
</trkpt>
<trkpt lat="-27.215463" lon="151.4419134">
  <ele>538.19</ele>
  <time>2026-09-01T20:00:57Z</time>
  <course>194.34</course>
  <speed>6.331271594237607</speed>
  <fix>3d</fix>
</trkpt>
<trkpt lat="-27.2154522" lon="151.4419078">
  <ele>537.97</ele>
  <time>2026-09-01T20:00:57Z</time>
  <course>155.46</course>
  <speed>6.46</speed>
  <fix>3d</fix>
</trkpt>
<trkpt lat="-27.2154682" lon="151.441916">
  <ele>538.34</ele>
  <time>2026-09-01T20:00:57Z</time>
  <course>193.96</course>
  <speed>6.292288931700451</speed>
  <fix>3d</fix>
</trkpt>
<trkpt lat="-27.2154522" lon="151.4419078">
  <ele>537.97</ele>
  <time>2026-09-01T20:00:57Z</time>
  <course>155.46</course>
  <speed>6.46</speed>
  <fix>3d</fix>
</trkpt>
<trkpt lat="-27.2154734" lon="151.4419185">
  <ele>538.51</ele>
  <time>2026-09-01T20:00:57Z</time>
  <course>193.79</course>
  <speed>6.267734838041571</speed>
  <fix>3d</fix>
</trkpt>
<trkpt lat="-27.2154628" lon="151.4419131">
  <ele>538.2</ele>
  <time>2026-09-01T20:00:57Z</time>
  <course>155.37</course>
  <speed>6.35</speed>
  <fix>3d</fix>
</trkpt>
<trkpt lat="-27.2154785" lon="151.4419212">
  <ele>538.69</ele>
  <time>2026-09-01T20:00:57Z</time>
  <course>193.75</course>
  <speed>6.256812287419209</speed>
  <fix>3d</fix>
</trkpt>
<trkpt lat="-27.2154628" lon="151.4419131">
  <ele>538.2</ele>
  <time>2026-09-01T20:00:57Z</time>
  <course>155.37</course>
  <speed>6.35</speed>
  <fix>3d</fix>
</trkpt>
<trkpt lat="-27.2154837" lon="151.4419237">
  <ele>538.88</ele>
  <time>2026-09-01T20:00:57Z</time>
  <course>193.82</course>
  <speed>6.242387363821633</speed>
  <fix>3d</fix>
</trkpt>
<trkpt lat="-27.2154731" lon="151.4419184">
  <ele>538.51</ele>
  <time>2026-09-01T20:00:57Z</time>
  <course>156.04</course>
  <speed>6.28</speed>
  <fix>3d</fix>
</trkpt>
<trkpt lat="-27.2154889" lon="151.4419261">
  <ele>539.09</ele>
  <time>2026-09-01T20:00:57Z</time>
  <course>193.95</course>
  <speed>6.233979467402825</speed>
  <fix>3d</fix>
</trkpt>
<trkpt lat="-27.2154731" lon="151.4419184">
  <ele>538.51</ele>
  <time>2026-09-01T20:00:57Z</time>
  <course>156.04</course>
  <speed>6.28</speed>
  <fix>3d</fix>
</trkpt>
<trkpt lat="-27.215494" lon="151.4419284">
  <ele>539.31</ele>
  <time>2026-09-01T20:00:57Z</time>
  <course>194.13</course>
  <speed>6.230096307441804</speed>
  <fix>3d</fix>
</trkpt>
<trkpt lat="-27.2154834" lon="151.4419235">
  <ele>538.88</ele>
  <time>2026-09-01T20:00:57Z</time>
  <course>157.08</course>
  <speed>6.24</speed>
  <fix>3d</fix>
</trkpt>
<trkpt lat="-27.2154993" lon="151.4419307">
  <ele>539.54</ele>
  <time>2026-09-01T20:00:57Z</time>
  <course>194.34</course>
  <speed>6.226853137821704</speed>
  <fix>3d</fix>
</trkpt>
<trkpt lat="-27.2154834" lon="151.4419235">
  <ele>538.88</ele>
  <time>2026-09-01T20:00:57Z</time>
  <course>157.08</course>
  <speed>6.24</speed>
  <fix>3d</fix>
</trkpt>
<trkpt lat="-27.2155045" lon="151.441933">
  <ele>539.79</ele>
  <time>2026-09-01T20:00:57Z</time>
  <course>194.56</course>
  <speed>6.230128409591571</speed>
  <fix>3d</fix>
</trkpt>
<trkpt lat="-27.2154938" lon="151.4419283">
  <ele>539.3</ele>
  <time>2026-09-01T20:00:57Z</time>
  <course>158.27</course>
  <speed>6.23</speed>
  <fix>3d</fix>
</trkpt>
<trkpt lat="-27.2155098" lon="151.4419351">
  <ele>540.04</ele>
  <time>2026-09-01T20:00:57Z</time>
  <course>194.79</course>
  <speed>6.234332362009584</speed>
  <fix>3d</fix>
</trkpt>
<trkpt lat="-27.2154938" lon="151.4419283">
  <ele>539.3</ele>
  <time>2026-09-01T20:00:57Z</time>
  <course>158.27</course>
  <speed>6.23</speed>
  <fix>3d</fix>
</trkpt>
<trkpt lat="-27.215515" lon="151.4419371">
  <ele>540.29</ele>
  <time>2026-09-01T20:00:57Z</time>
  <course>195.04</course>
  <speed>6.239463117929298</speed>
  <fix>3d</fix>
</trkpt>
<trkpt lat="-27.2155042" lon="151.4419328">
  <ele>539.77</ele>
  <time>2026-09-01T20:00:57Z</time>
  <course>159.57</course>
  <speed>6.23</speed>
  <fix>3d</fix>
</trkpt>
<trkpt lat="-27.2155204" lon="151.4419392">
  <ele>540.56</ele>
  <time>2026-09-01T20:00:57Z</time>
  <course>195.31</course>
  <speed>6.2455183932160505</speed>
  <fix>3d</fix>
</trkpt>
<trkpt lat="-27.2155042" lon="151.4419328">
  <ele>539.77</ele>
  <time>2026-09-01T20:00:57Z</time>
  <course>159.57</course>
  <speed>6.23</speed>
  <fix>3d</fix>
</trkpt>
<trkpt lat="-27.2155257" lon="151.4419412">
  <ele>540.83</ele>
  <time>2026-09-01T20:00:57Z</time>
  <course>195.59</course>
  <speed>6.262028425358672</speed>
  <fix>3d</fix>
</trkpt>
<trkpt lat="-27.2155148" lon="151.441937">
  <ele>540.28</ele>
  <time>2026-09-01T20:00:57Z</time>
  <course>160.94</course>
  <speed>6.24</speed>
  <fix>3d</fix>
</trkpt>
<trkpt lat="-27.2155311" lon="151.4419431">
  <ele>541.1</ele>
  <time>2026-09-01T20:00:57Z</time>
  <course>195.89</course>
  <speed>6.269960127464926</speed>
  <fix>3d</fix>
</trkpt>
<trkpt lat="-27.2155148" lon="151.441937">
  <ele>540.28</ele>
  <time>2026-09-01T20:00:57Z</time>
  <course>160.94</course>
  <speed>6.24</speed>
  <fix>3d</fix>
</trkpt>
<trkpt lat="-27.2155365" lon="151.4419448">
  <ele>541.37</ele>
  <time>2026-09-01T20:00:57Z</time>
  <course>196.2</course>
  <speed>6.278805618905558</speed>
  <fix>3d</fix>
</trkpt>
<trkpt lat="-27.2155254" lon="151.441941">
  <ele>540.81</ele>
  <time>2026-09-01T20:00:57Z</time>
  <course>162.36</course>
  <speed>6.26</speed>
  <fix>3d</fix>
</trkpt>
<trkpt lat="-27.2155419" lon="151.4419466">
  <ele>541.65</ele>
  <time>2026-09-01T20:00:57Z</time>
  <course>196.52</course>
  <speed>6.295538102497672</speed>
  <fix>3d</fix>
</trkpt>
<trkpt lat="-27.2155254" lon="151.441941">
  <ele>540.81</ele>
  <time>2026-09-01T20:00:57Z</time>
  <course>162.36</course>
  <speed>6.26</speed>
  <fix>3d</fix>
</trkpt>
<trkpt lat="-27.2155474" lon="151.4419483">
  <ele>541.93</ele>
  <time>2026-09-01T20:00:57Z</time>
  <course>196.85</course>
  <speed>6.3063460101710245</speed>
  <fix>3d</fix>
</trkpt>
<trkpt lat="-27.2155362" lon="151.4419447">
  <ele>541.36</ele>
  <time>2026-09-01T20:00:57Z</time>
  <course>163.8</course>
  <speed>6.28</speed>
  <fix>3d</fix>
</trkpt>
<trkpt lat="-27.2155529" lon="151.4419498">
  <ele>542.2</ele>
  <time>2026-09-01T20:00:57Z</time>
  <course>197.2</course>
  <speed>6.315639318390498</speed>
  <fix>3d</fix>
</trkpt>
<trkpt lat="-27.2155362" lon="151.4419447">
  <ele>541.36</ele>
  <time>2026-09-01T20:00:57Z</time>
  <course>163.8</course>
  <speed>6.28</speed>
  <fix>3d</fix>
</trkpt>
<trkpt lat="-27.2155584" lon="151.4419513">
  <ele>542.48</ele>
  <time>2026-09-01T20:00:57Z</time>
  <course>197.56</course>
  <speed>6.326073031510149</speed>
  <fix>3d</fix>
</trkpt>
<trkpt lat="-27.2155472" lon="151.4419481">
  <ele>541.91</ele>
  <time>2026-09-01T20:00:57Z</time>
  <course>165.26</course>
  <speed>6.31</speed>
  <fix>3d</fix>
</trkpt>
<trkpt lat="-27.215564" lon="151.4419528">
  <ele>542.75</ele>
  <time>2026-09-01T20:00:57Z</time>
  <course>197.93</course>
  <speed>6.327874840734447</speed>
  <fix>3d</fix>
</trkpt>
<trkpt lat="-27.2155472" lon="151.4419481">
  <ele>541.91</ele>
  <time>2026-09-01T20:00:57Z</time>
  <course>165.26</course>
  <speed>6.31</speed>
  <fix>3d</fix>
</trkpt>
<trkpt lat="-27.2155695" lon="151.4419541">
  <ele>543.02</ele>
  <time>2026-09-01T20:00:57Z</time>
  <course>198.32</course>
  <speed>6.330750350471893</speed>
  <fix>3d</fix>
</trkpt>
<trkpt lat="-27.2155581" lon="151.4419512">
  <ele>542.46</ele>
  <time>2026-09-01T20:00:57Z</time>
  <course>166.75</course>
  <speed>6.32</speed>
  <fix>3d</fix>
</trkpt>
<trkpt lat="-27.2155751" lon="151.4419553">
  <ele>543.28</ele>
  <time>2026-09-01T20:00:57Z</time>
  <course>198.73</course>
  <speed>6.322989799137747</speed>
  <fix>3d</fix>
</trkpt>
<trkpt lat="-27.2155581" lon="151.4419512">
  <ele>542.46</ele>
  <time>2026-09-01T20:00:57Z</time>
  <course>166.75</course>
  <speed>6.32</speed>
  <fix>3d</fix>
</trkpt>
<trkpt lat="-27.2155807" lon="151.4419565">
  <ele>543.54</ele>
  <time>2026-09-01T20:00:57Z</time>
  <course>199.16</course>
  <speed>6.316518028154436</speed>
  <fix>3d</fix>
</trkpt>
<trkpt lat="-27.2155693" lon="151.441954">
  <ele>543.0</ele>
  <time>2026-09-01T20:00:57Z</time>
  <course>168.29</course>
  <speed>6.33</speed>
  <fix>3d</fix>
</trkpt>
<trkpt lat="-27.2155863" lon="151.4419576">
  <ele>543.81</ele>
  <time>2026-09-01T20:00:57Z</time>
  <course>199.61</course>
  <speed>6.3014680829152825</speed>
  <fix>3d</fix>
</trkpt>
<trkpt lat="-27.2155693" lon="151.441954">
  <ele>543.0</ele>
  <time>2026-09-01T20:00:57Z</time>
  <course>168.29</course>
  <speed>6.33</speed>
  <fix>3d</fix>
</trkpt>
<trkpt lat="-27.2155919" lon="151.4419586">
  <ele>544.07</ele>
  <time>2026-09-01T20:00:57Z</time>
  <course>200.09</course>
  <speed>6.277778269419843</speed>
  <fix>3d</fix>
</trkpt>
<trkpt lat="-27.2155805" lon="151.4419563">
  <ele>543.53</ele>
  <time>2026-09-01T20:00:57Z</time>
  <course>169.89</course>
  <speed>6.31</speed>
  <fix>3d</fix>
</trkpt>
<trkpt lat="-27.2155975" lon="151.4419595">
  <ele>544.33</ele>
  <time>2026-09-01T20:00:57Z</time>
  <course>200.6</course>
  <speed>6.246735147258927</speed>
  <fix>3d</fix>
</trkpt>
<trkpt lat="-27.2155805" lon="151.4419563">
  <ele>543.53</ele>
  <time>2026-09-01T20:00:57Z</time>
  <course>169.89</course>
  <speed>6.31</speed>
  <fix>3d</fix>
</trkpt>
<trkpt lat="-27.2156031" lon="151.4419603">
  <ele>544.58</ele>
  <time>2026-09-01T20:00:57Z</time>
  <course>201.14</course>
  <speed>6.205489505268702</speed>
  <fix>3d</fix>
</trkpt>
<trkpt lat="-27.2155916" lon="151.4419584">
  <ele>544.06</ele>
  <time>2026-09-01T20:00:57Z</time>
  <course>171.46</course>
  <speed>6.28</speed>
  <fix>3d</fix>
</trkpt>
<trkpt lat="-27.2156086" lon="151.441961">
  <ele>544.84</ele>
  <time>2026-09-01T20:00:57Z</time>
  <course>201.71</course>
  <speed>6.157661893933444</speed>
  <fix>3d</fix>
</trkpt>
<trkpt lat="-27.2155916" lon="151.4419584">
  <ele>544.06</ele>
  <time>2026-09-01T20:00:57Z</time>
  <course>171.46</course>
  <speed>6.28</speed>
  <fix>3d</fix>
</trkpt>
<trkpt lat="-27.215614" lon="151.4419615">
  <ele>545.09</ele>
  <time>2026-09-01T20:00:57Z</time>
  <course>202.3</course>
  <speed>6.089630530664401</speed>
  <fix>3d</fix>
</trkpt>
<trkpt lat="-27.2156027" lon="151.4419601">
  <ele>544.57</ele>
  <time>2026-09-01T20:00:57Z</time>
  <course>172.92</course>
  <speed>6.2</speed>
  <fix>3d</fix>
</trkpt>
<trkpt lat="-27.2156195" lon="151.4419622">
  <ele>545.35</ele>
  <time>2026-09-01T20:00:57Z</time>
  <course>202.9</course>
  <speed>6.013401699537459</speed>
  <fix>3d</fix>
</trkpt>
<trkpt lat="-27.2156027" lon="151.4419601">
  <ele>544.57</ele>
  <time>2026-09-01T20:00:57Z</time>
  <course>172.92</course>
  <speed>6.2</speed>
  <fix>3d</fix>
</trkpt>
<trkpt lat="-27.2156248" lon="151.4419627">
  <ele>545.6</ele>
  <time>2026-09-01T20:00:57Z</time>
  <course>203.52</course>
  <speed>5.927874829987556</speed>
  <fix>3d</fix>
</trkpt>
<trkpt lat="-27.2156137" lon="151.4419616">
  <ele>545.08</ele>
  <time>2026-09-01T20:00:57Z</time>
  <course>174.25</course>
  <speed>6.09</speed>
  <fix>3d</fix>
</trkpt>
<trkpt lat="-27.2156301" lon="151.4419632">
  <ele>545.86</ele>
  <time>2026-09-01T20:00:57Z</time>
  <course>204.15</course>
  <speed>5.823074789147054</speed>
  <fix>3d</fix>
</trkpt>
<trkpt lat="-27.2156137" lon="151.4419616">
  <ele>545.08</ele>
  <time>2026-09-01T20:00:57Z</time>
  <course>174.25</course>
  <speed>6.09</speed>
  <fix>3d</fix>
</trkpt>
<trkpt lat="-27.2156352" lon="151.4419634">
  <ele>546.12</ele>
  <time>2026-09-01T20:00:57Z</time>
  <course>204.79</course>
  <speed>5.709544640336916</speed>
  <fix>3d</fix>
</trkpt>
<trkpt lat="-27.2156244" lon="151.4419626">
  <ele>545.59</ele>
  <time>2026-09-01T20:00:57Z</time>
  <course>175.47</course>
  <speed>5.92</speed>
  <fix>3d</fix>
</trkpt>
<trkpt lat="-27.2156403" lon="151.4419638">
  <ele>546.38</ele>
  <time>2026-09-01T20:00:57Z</time>
  <course>205.44</course>
  <speed>5.576540146004509</speed>
  <fix>3d</fix>
</trkpt>
<trkpt lat="-27.2156244" lon="151.4419626">
  <ele>545.59</ele>
  <time>2026-09-01T20:00:57Z</time>
  <course>175.47</course>
  <speed>5.92</speed>
  <fix>3d</fix>
</trkpt>
<trkpt lat="-27.2156453" lon="151.4419641">
  <ele>546.64</ele>
  <time>2026-09-01T20:00:57Z</time>
  <course>206.1</course>
  <speed>5.434454894467337</speed>
  <fix>3d</fix>
</trkpt>
<trkpt lat="-27.2156349" lon="151.4419634">
  <ele>546.1</ele>
  <time>2026-09-01T20:00:57Z</time>
  <course>176.57</course>
  <speed>5.71</speed>
  <fix>3d</fix>
</trkpt>
<trkpt lat="-27.2156501" lon="151.4419643">
  <ele>546.9</ele>
  <time>2026-09-01T20:00:57Z</time>
  <course>206.76</course>
  <speed>5.27274122255208</speed>
  <fix>3d</fix>
</trkpt>
<trkpt lat="-27.2156349" lon="151.4419634">
  <ele>546.1</ele>
  <time>2026-09-01T20:00:57Z</time>
  <course>176.57</course>
  <speed>5.71</speed>
  <fix>3d</fix>
</trkpt>
<trkpt lat="-27.2156547" lon="151.4419644">
  <ele>547.16</ele>
  <time>2026-09-01T20:00:57Z</time>
  <course>207.44</course>
  <speed>5.091659847240387</speed>
  <fix>3d</fix>
</trkpt>
<trkpt lat="-27.2156449" lon="151.441964">
  <ele>546.62</ele>
  <time>2026-09-01T20:00:57Z</time>
  <course>177.55</course>
  <speed>5.43</speed>
  <fix>3d</fix>
</trkpt>
<trkpt lat="-27.2156592" lon="151.4419646">
  <ele>547.41</ele>
  <time>2026-09-01T20:00:57Z</time>
  <course>208.14</course>
  <speed>4.890828150732757</speed>
  <fix>3d</fix>
</trkpt>
<trkpt lat="-27.2156449" lon="151.441964">
  <ele>546.62</ele>
  <time>2026-09-01T20:00:57Z</time>
  <course>177.55</course>
  <speed>5.43</speed>
  <fix>3d</fix>
</trkpt>
<trkpt lat="-27.2156635" lon="151.4419647">
  <ele>547.69</ele>
  <time>2026-09-01T20:00:57Z</time>
  <course>208.87</course>
  <speed>4.670385423067351</speed>
  <fix>3d</fix>
</trkpt>
<trkpt lat="-27.2156544" lon="151.4419644">
  <ele>547.14</ele>
  <time>2026-09-01T20:00:57Z</time>
  <course>178.41</course>
  <speed>5.09</speed>
  <fix>3d</fix>
</trkpt>
<trkpt lat="-27.2156676" lon="151.4419647">
  <ele>547.95</ele>
  <time>2026-09-01T20:00:57Z</time>
  <course>209.62</course>
  <speed>4.420101808782237</speed>
  <fix>3d</fix>
</trkpt>
<trkpt lat="-27.2156544" lon="151.4419644">
  <ele>547.14</ele>
  <time>2026-09-01T20:00:57Z</time>
  <course>178.41</course>
  <speed>5.09</speed>
  <fix>3d</fix>
</trkpt>
<trkpt lat="-27.2156715" lon="151.4419647">
  <ele>548.22</ele>
  <time>2026-09-01T20:00:57Z</time>
  <course>210.39</course>
  <speed>4.15</speed>
  <fix>3d</fix>
</trkpt>
<trkpt lat="-27.2156632" lon="151.4419646">
  <ele>547.67</ele>
  <time>2026-09-01T20:00:57Z</time>
  <course>179.17</course>
  <speed>4.67</speed>
  <fix>3d</fix>
</trkpt>
<trkpt lat="-27.2156751" lon="151.4419647">
  <ele>548.48</ele>
  <time>2026-09-01T20:00:57Z</time>
  <course>211.17</course>
  <speed>3.8501168813426947</speed>
  <fix>3d</fix>
</trkpt>
<trkpt lat="-27.2156632" lon="151.4419646">
  <ele>547.67</ele>
  <time>2026-09-01T20:00:57Z</time>
  <course>179.17</course>
  <speed>4.67</speed>
  <fix>3d</fix>
</trkpt>
<trkpt lat="-27.2156784" lon="151.4419647">
  <ele>548.74</ele>
  <time>2026-09-01T20:00:57Z</time>
  <course>211.93</course>
  <speed>3.5405084380636636</speed>
  <fix>3d</fix>
</trkpt>
<trkpt lat="-27.2156711" lon="151.4419647">
  <ele>548.2</ele>
  <time>2026-09-01T20:00:57Z</time>
  <course>179.96</course>
  <speed>4.15</speed>
  <fix>3d</fix>
</trkpt>
<trkpt lat="-27.2156814" lon="151.4419646">
  <ele>549.0</ele>
  <time>2026-09-01T20:00:57Z</time>
  <course>212.62</course>
  <speed>3.200999843798809</speed>
  <fix>3d</fix>
</trkpt>
<trkpt lat="-27.2156711" lon="151.4419647">
  <ele>548.2</ele>
  <time>2026-09-01T20:00:57Z</time>
  <course>179.96</course>
  <speed>4.15</speed>
  <fix>3d</fix>
</trkpt>
<trkpt lat="-27.2156841" lon="151.4419644">
  <ele>549.26</ele>
  <time>2026-09-01T20:00:57Z</time>
  <course>213.25</course>
  <speed>2.872107240337658</speed>
  <fix>3d</fix>
</trkpt>
<trkpt lat="-27.2156781" lon="151.4419646">
  <ele>548.73</ele>
  <time>2026-09-01T20:00:57Z</time>
  <course>180.94</course>
  <speed>3.54</speed>
  <fix>3d</fix>
</trkpt>
<trkpt lat="-27.2156866" lon="151.4419644">
  <ele>549.52</ele>
  <time>2026-09-01T20:00:57Z</time>
  <course>213.82</course>
  <speed>2.533337719294449</speed>
  <fix>3d</fix>
</trkpt>
<trkpt lat="-27.2156781" lon="151.4419646">
  <ele>548.73</ele>
  <time>2026-09-01T20:00:57Z</time>
  <course>180.94</course>
  <speed>3.54</speed>
  <fix>3d</fix>
</trkpt>
<trkpt lat="-27.2156887" lon="151.4419643">
  <ele>549.78</ele>
  <time>2026-09-01T20:00:57Z</time>
  <course>214.34</course>
  <speed>2.2051077071199945</speed>
  <fix>3d</fix>
</trkpt>
<trkpt lat="-27.2156839" lon="151.4419645">
  <ele>549.25</ele>
  <time>2026-09-01T20:00:57Z</time>
  <course>182.24</course>
  <speed>2.88</speed>
  <fix>3d</fix>
</trkpt>
<trkpt lat="-27.2156905" lon="151.4419641">
  <ele>550.03</ele>
  <time>2026-09-01T20:00:57Z</time>
  <course>214.83</course>
  <speed>1.8777113729218342</speed>
  <fix>3d</fix>
</trkpt>
<trkpt lat="-27.2156839" lon="151.4419645">
  <ele>549.25</ele>
  <time>2026-09-01T20:00:57Z</time>
  <course>182.24</course>
  <speed>2.88</speed>
  <fix>3d</fix>
</trkpt>
<trkpt lat="-27.2156921" lon="151.4419639">
  <ele>550.29</ele>
  <time>2026-09-01T20:00:57Z</time>
  <course>215.29</course>
  <speed>1.570350279396288</speed>
  <fix>3d</fix>
</trkpt>
<trkpt lat="-27.2156884" lon="151.4419643">
  <ele>549.76</ele>
  <time>2026-09-01T20:00:57Z</time>
  <course>184.02</course>
  <speed>2.22</speed>
  <fix>3d</fix>
</trkpt>
<trkpt lat="-27.2156934" lon="151.4419637">
  <ele>550.49</ele>
  <time>2026-09-01T20:00:57Z</time>
  <course>215.61</course>
  <speed>1.5641611170208776</speed>
  <fix>3d</fix>
</trkpt>
<trkpt lat="-27.2156884" lon="151.4419643">
  <ele>549.76</ele>
  <time>2026-09-01T20:00:57Z</time>
  <course>184.02</course>
  <speed>2.22</speed>
  <fix>3d</fix>
</trkpt>
<trkpt lat="-27.2156949" lon="151.4419634">
  <ele>550.6</ele>
  <time>2026-09-01T20:00:57Z</time>
  <course>215.73</course>
  <speed>1.5754364474646383</speed>
  <fix>3d</fix>
</trkpt>
<trkpt lat="-27.2156919" lon="151.4419639">
  <ele>550.25</ele>
  <time>2026-09-01T20:00:57Z</time>
  <course>186.36</course>
  <speed>1.73</speed>
  <fix>3d</fix>
</trkpt>
<trkpt lat="-27.2156963" lon="151.4419633">
  <ele>550.6</ele>
  <time>2026-09-01T20:00:57Z</time>
  <course>215.73</course>
  <speed>1.5655350523063993</speed>
  <fix>3d</fix>
</trkpt>
<trkpt lat="-27.2156919" lon="151.4419639">
  <ele>550.25</ele>
  <time>2026-09-01T20:00:57Z</time>
  <course>186.36</course>
  <speed>1.73</speed>
  <fix>3d</fix>
</trkpt>
<trkpt lat="-27.2156977" lon="151.441963">
  <ele>550.51</ele>
  <time>2026-09-01T20:00:57Z</time>
  <course>215.59</course>
  <speed>1.535838533179839</speed>
  <fix>3d</fix>
</trkpt>
<trkpt lat="-27.2156948" lon="151.4419635">
  <ele>550.54</ele>
  <time>2026-09-01T20:00:57Z</time>
  <course>188.0</course>
  <speed>1.57</speed>
  <fix>3d</fix>
</trkpt>
<trkpt lat="-27.215699" lon="151.4419628">
  <ele>550.33</ele>
  <time>2026-09-01T20:00:57Z</time>
  <course>215.25</course>
  <speed>1.486371420607918</speed>
  <fix>3d</fix>
</trkpt>
<trkpt lat="-27.2156948" lon="151.4419635">
  <ele>550.54</ele>
  <time>2026-09-01T20:00:57Z</time>
  <course>188.0</course>
  <speed>1.57</speed>
  <fix>3d</fix>
</trkpt>
<trkpt lat="-27.2157003" lon="151.4419625">
  <ele>550.06</ele>
  <time>2026-09-01T20:00:57Z</time>
  <course>214.59</course>
  <speed>1.3958868148958208</speed>
  <fix>3d</fix>
</trkpt>
<trkpt lat="-27.2156975" lon="151.4419631">
  <ele>550.47</ele>
  <time>2026-09-01T20:00:57Z</time>
  <course>188.41</course>
  <speed>1.53</speed>
  <fix>3d</fix>
</trkpt>
<trkpt lat="-27.2157015" lon="151.4419624">
  <ele>549.73</ele>
  <time>2026-09-01T20:00:57Z</time>
  <course>213.66</course>
  <speed>1.287245120402482</speed>
  <fix>3d</fix>
</trkpt>
<trkpt lat="-27.2156975" lon="151.4419631">
  <ele>550.47</ele>
  <time>2026-09-01T20:00:57Z</time>
  <course>188.41</course>
  <speed>1.53</speed>
  <fix>3d</fix>
</trkpt>
<trkpt lat="-27.2157026" lon="151.4419622">
  <ele>549.34</ele>
  <time>2026-09-01T20:00:57Z</time>
  <course>212.73</course>
  <speed>1.1985407794480754</speed>
  <fix>3d</fix>
</trkpt>
<trkpt lat="-27.2157001" lon="151.4419626">
  <ele>550.04</ele>
  <time>2026-09-01T20:00:57Z</time>
  <course>189.03</course>
  <speed>1.39</speed>
  <fix>3d</fix>
</trkpt>
<trkpt lat="-27.2157036" lon="151.441962">
  <ele>548.9</ele>
  <time>2026-09-01T20:00:57Z</time>
  <course>212.0</course>
  <speed>1.1217842929904127</speed>
  <fix>3d</fix>
</trkpt>
<trkpt lat="-27.2157001" lon="151.4419626">
  <ele>550.04</ele>
  <time>2026-09-01T20:00:57Z</time>
  <course>189.03</course>
  <speed>1.39</speed>
  <fix>3d</fix>
</trkpt>
<trkpt lat="-27.2157046" lon="151.4419617">
  <ele>548.41</ele>
  <time>2026-09-01T20:00:57Z</time>
  <course>211.49</course>
  <speed>1.0673331251301068</speed>
  <fix>3d</fix>
</trkpt>
<trkpt lat="-27.2157025" lon="151.4419621">
  <ele>549.33</ele>
  <time>2026-09-01T20:00:57Z</time>
  <course>190.4</course>
  <speed>1.21</speed>
  <fix>3d</fix>
</trkpt>
<trkpt lat="-27.2157055" lon="151.4419615">
  <ele>547.88</ele>
  <time>2026-09-01T20:00:57Z</time>
  <course>211.18</course>
  <speed>1.067379969832674</speed>
  <fix>3d</fix>
</trkpt>
<trkpt lat="-27.2157025" lon="151.4419621">
  <ele>549.33</ele>
  <time>2026-09-01T20:00:57Z</time>
  <course>190.4</course>
  <speed>1.21</speed>
  <fix>3d</fix>
</trkpt>
<trkpt lat="-27.2157064" lon="151.4419611">
  <ele>547.31</ele>
  <time>2026-09-01T20:00:57Z</time>
  <course>211.09</course>
  <speed>1.1131936040060597</speed>
  <fix>3d</fix>
</trkpt>
<trkpt lat="-27.2157045" lon="151.4419617">
  <ele>548.41</ele>
  <time>2026-09-01T20:00:57Z</time>
  <course>193.27</course>
  <speed>1.09</speed>
  <fix>3d</fix>
</trkpt>
<trkpt lat="-27.2157074" lon="151.4419608">
  <ele>546.68</ele>
  <time>2026-09-01T20:00:57Z</time>
  <course>211.21</course>
  <speed>1.19870763741623</speed>
  <fix>3d</fix>
</trkpt>
<trkpt lat="-27.2157045" lon="151.4419617">
  <ele>548.41</ele>
  <time>2026-09-01T20:00:57Z</time>
  <course>193.27</course>
  <speed>1.09</speed>
  <fix>3d</fix>
</trkpt>
<trkpt lat="-27.2157085" lon="151.4419603">
  <ele>545.98</ele>
  <time>2026-09-01T20:00:57Z</time>
  <course>211.47</course>
  <speed>1.3074020039758238</speed>
  <fix>3d</fix>
</trkpt>
<trkpt lat="-27.2157064" lon="151.4419611">
  <ele>547.3</ele>
  <time>2026-09-01T20:00:57Z</time>
  <course>197.61</course>
  <speed>1.13</speed>
  <fix>3d</fix>
</trkpt>
<trkpt lat="-27.2157099" lon="151.4419596">
  <ele>545.22</ele>
  <time>2026-09-01T20:00:57Z</time>
  <course>211.63</course>
  <speed>2.249555511651135</speed>
  <fix>3d</fix>
</trkpt>
<trkpt lat="-27.2157064" lon="151.4419611">
  <ele>547.3</ele>
  <time>2026-09-01T20:00:57Z</time>
  <course>197.61</course>
  <speed>1.13</speed>
  <fix>3d</fix>
</trkpt>
<trkpt lat="-27.2157123" lon="151.4419581">
  <ele>544.44</ele>
  <time>2026-09-01T20:00:57Z</time>
  <course>212.46</course>
  <speed>3.88171353914737</speed>
  <fix>3d</fix>
</trkpt>
<trkpt lat="-27.2157086" lon="151.4419602">
  <ele>545.98</ele>
  <time>2026-09-01T20:00:57Z</time>
  <course>203.69</course>
  <speed>1.69</speed>
  <fix>3d</fix>
</trkpt>
<trkpt lat="-27.2157157" lon="151.4419553">
  <ele>543.68</ele>
  <time>2026-09-01T20:00:57Z</time>
  <course>214.38</course>
  <speed>5.482526789720229</speed>
  <fix>3d</fix>
</trkpt>
<trkpt lat="-27.2157086" lon="151.4419602">
  <ele>545.98</ele>
  <time>2026-09-01T20:00:57Z</time>
  <course>203.69</course>
  <speed>1.69</speed>
  <fix>3d</fix>
</trkpt>
<trkpt lat="-27.21572" lon="151.4419513">
  <ele>542.97</ele>
  <time>2026-09-01T20:00:57Z</time>
  <course>216.41</course>
  <speed>6.860619505554873</speed>
  <fix>3d</fix>
</trkpt>
<trkpt lat="-27.2157127" lon="151.4419576">
  <ele>544.48</ele>
  <time>2026-09-01T20:00:57Z</time>
  <course>214.12</course>
  <speed>3.79</speed>
  <fix>3d</fix>
</trkpt>
<trkpt lat="-27.2157248" lon="151.4419461">
  <ele>542.33</ele>
  <time>2026-09-01T20:00:58Z</time>
  <course>218.2</course>
  <speed>8.047484078890744</speed>
  <fix>3d</fix>
</trkpt>
<trkpt lat="-27.2157127" lon="151.4419576">
  <ele>544.48</ele>
  <time>2026-09-01T20:00:58Z</time>
  <course>214.12</course>
  <speed>3.79</speed>
  <fix>3d</fix>
</trkpt>
<trkpt lat="-27.2157301" lon="151.4419398">
  <ele>541.79</ele>
  <time>2026-09-01T20:00:58Z</time>
  <course>219.66</course>
  <speed>9.003804751325964</speed>
  <fix>3d</fix>
</trkpt>
<trkpt lat="-27.2157201" lon="151.4419509">
  <ele>543.03</ele>
  <time>2026-09-01T20:00:58Z</time>
  <course>222.26</course>
  <speed>6.7</speed>
  <fix>3d</fix>
</trkpt>
<trkpt lat="-27.2157355" lon="151.4419325">
  <ele>541.36</ele>
  <time>2026-09-01T20:00:58Z</time>
  <course>220.91</course>
  <speed>9.6632189253892</speed>
  <fix>3d</fix>
</trkpt>
<trkpt lat="-27.2157201" lon="151.4419509">
  <ele>543.03</ele>
  <time>2026-09-01T20:00:58Z</time>
  <course>222.26</course>
  <speed>6.7</speed>
  <fix>3d</fix>
</trkpt>
<trkpt lat="-27.215741" lon="151.4419246">
  <ele>541.06</ele>
  <time>2026-09-01T20:00:58Z</time>
  <course>222.03</course>
  <speed>10.007247373778664</speed>
  <fix>3d</fix>
</trkpt>
<trkpt lat="-27.2157299" lon="151.4419395">
  <ele>541.87</ele>
  <time>2026-09-01T20:00:58Z</time>
  <course>228.27</course>
  <speed>8.82</speed>
  <fix>3d</fix>
</trkpt>
<trkpt lat="-27.2157465" lon="151.4419167">
  <ele>540.88</ele>
  <time>2026-09-01T20:00:58Z</time>
  <course>222.93</course>
  <speed>10.034071955093804</speed>
  <fix>3d</fix>
</trkpt>
<trkpt lat="-27.2157299" lon="151.4419395">
  <ele>541.87</ele>
  <time>2026-09-01T20:00:58Z</time>
  <course>228.27</course>
  <speed>8.82</speed>
  <fix>3d</fix>
</trkpt>
<trkpt lat="-27.2157518" lon="151.4419086">
  <ele>540.81</ele>
  <time>2026-09-01T20:00:58Z</time>
  <course>223.81</course>
  <speed>9.799765303312116</speed>
  <fix>3d</fix>
</trkpt>
<trkpt lat="-27.2157408" lon="151.4419249">
  <ele>541.13</ele>
  <time>2026-09-01T20:00:58Z</time>
  <course>231.94</course>
  <speed>9.84</speed>
  <fix>3d</fix>
</trkpt>
<trkpt lat="-27.2157567" lon="151.4419006">
  <ele>540.85</ele>
  <time>2026-09-01T20:00:58Z</time>
  <course>224.87</course>
  <speed>9.38122060288532</speed>
  <fix>3d</fix>
</trkpt>
<trkpt lat="-27.2157408" lon="151.4419249">
  <ele>541.13</ele>
  <time>2026-09-01T20:00:58Z</time>
  <course>231.94</course>
  <speed>9.84</speed>
  <fix>3d</fix>
</trkpt>
<trkpt lat="-27.2157613" lon="151.441893">
  <ele>540.96</ele>
  <time>2026-09-01T20:00:58Z</time>
  <course>225.97</course>
  <speed>8.856105238760435</speed>
  <fix>3d</fix>
</trkpt>
<trkpt lat="-27.2157514" lon="151.441909">
  <ele>540.86</ele>
  <time>2026-09-01T20:00:58Z</time>
  <course>234.27</course>
  <speed>9.72</speed>
  <fix>3d</fix>
</trkpt>
<trkpt lat="-27.2157654" lon="151.4418857">
  <ele>541.12</ele>
  <time>2026-09-01T20:00:58Z</time>
  <course>227.0</course>
  <speed>8.323322653844436</speed>
  <fix>3d</fix>
</trkpt>
<trkpt lat="-27.2157514" lon="151.441909">
  <ele>540.86</ele>
  <time>2026-09-01T20:00:58Z</time>
  <course>234.27</course>
  <speed>9.72</speed>
  <fix>3d</fix>
</trkpt>
<trkpt lat="-27.2157691" lon="151.4418787">
  <ele>541.32</ele>
  <time>2026-09-01T20:00:58Z</time>
  <course>227.86</course>
  <speed>7.798063862267352</speed>
  <fix>3d</fix>
</trkpt>
<trkpt lat="-27.2157609" lon="151.4418935">
  <ele>540.97</ele>
  <time>2026-09-01T20:00:58Z</time>
  <course>236.74</course>
  <speed>8.87</speed>
  <fix>3d</fix>
</trkpt>
<trkpt lat="-27.2157724" lon="151.441872">
  <ele>541.53</ele>
  <time>2026-09-01T20:00:58Z</time>
  <course>228.5</course>
  <speed>7.286604147337771</speed>
  <fix>3d</fix>
</trkpt>
<trkpt lat="-27.2157609" lon="151.4418935">
  <ele>540.97</ele>
  <time>2026-09-01T20:00:58Z</time>
  <course>236.74</course>
  <speed>8.87</speed>
  <fix>3d</fix>
</trkpt>
<trkpt lat="-27.2157752" lon="151.4418656">
  <ele>541.76</ele>
  <time>2026-09-01T20:00:58Z</time>
  <course>228.86</course>
  <speed>6.7675845026124355</speed>
  <fix>3d</fix>
</trkpt>
<trkpt lat="-27.2157688" lon="151.4418791">
  <ele>541.31</ele>
  <time>2026-09-01T20:00:58Z</time>
  <course>240.12</course>
  <speed>7.82</speed>
  <fix>3d</fix>
</trkpt>
<trkpt lat="-27.2157776" lon="151.4418595">
  <ele>541.99</ele>
  <time>2026-09-01T20:00:58Z</time>
  <course>228.94</course>
  <speed>6.264702706433882</speed>
  <fix>3d</fix>
</trkpt>
<trkpt lat="-27.2157688" lon="151.4418791">
  <ele>541.31</ele>
  <time>2026-09-01T20:00:58Z</time>
  <course>240.12</course>
  <speed>7.82</speed>
  <fix>3d</fix>
</trkpt>
<trkpt lat="-27.2157796" lon="151.4418538">
  <ele>542.22</ele>
  <time>2026-09-01T20:00:58Z</time>
  <course>228.72</course>
  <speed>5.75070430469173</speed>
  <fix>3d</fix>
</trkpt>
<trkpt lat="-27.2157749" lon="151.441866">
  <ele>541.75</ele>
  <time>2026-09-01T20:00:58Z</time>
  <course>244.4</course>
  <speed>6.79</speed>
  <fix>3d</fix>
</trkpt>
<trkpt lat="-27.2157812" lon="151.4418486">
  <ele>542.46</ele>
  <time>2026-09-01T20:00:58Z</time>
  <course>228.23</course>
  <speed>5.24321466278084</speed>
  <fix>3d</fix>
</trkpt>
<trkpt lat="-27.2157749" lon="151.441866">
  <ele>541.75</ele>
  <time>2026-09-01T20:00:58Z</time>
  <course>244.4</course>
  <speed>6.79</speed>
  <fix>3d</fix>
</trkpt>
<trkpt lat="-27.2157823" lon="151.4418437">
  <ele>542.7</ele>
  <time>2026-09-01T20:00:58Z</time>
  <course>227.52</course>
  <speed>4.762709312985624</speed>
  <fix>3d</fix>
</trkpt>
<trkpt lat="-27.2157793" lon="151.4418543">
  <ele>542.21</ele>
  <time>2026-09-01T20:00:58Z</time>
  <course>249.92</course>
  <speed>5.77</speed>
  <fix>3d</fix>
</trkpt>
<trkpt lat="-27.215783" lon="151.4418393">
  <ele>542.95</ele>
  <time>2026-09-01T20:00:58Z</time>
  <course>226.64</course>
  <speed>4.303452102672923</speed>
  <fix>3d</fix>
</trkpt>
<trkpt lat="-27.2157793" lon="151.4418543">
  <ele>542.21</ele>
  <time>2026-09-01T20:00:58Z</time>
  <course>249.92</course>
  <speed>5.77</speed>
  <fix>3d</fix>
</trkpt>
<trkpt lat="-27.2157834" lon="151.4418351">
  <ele>543.18</ele>
  <time>2026-09-01T20:00:58Z</time>
  <course>225.65</course>
  <speed>3.876248186068586</speed>
  <fix>3d</fix>
</trkpt>
<trkpt lat="-27.215782" lon="151.4418441">
  <ele>542.69</ele>
  <time>2026-09-01T20:00:58Z</time>
  <course>257.12</course>
  <speed>4.78</speed>
  <fix>3d</fix>
</trkpt>
<trkpt lat="-27.2157834" lon="151.4418313">
  <ele>543.41</ele>
  <time>2026-09-01T20:00:58Z</time>
  <course>224.6</course>
  <speed>3.5014282800023193</speed>
  <fix>3d</fix>
</trkpt>
<trkpt lat="-27.215782" lon="151.4418441">
  <ele>542.69</ele>
  <time>2026-09-01T20:00:58Z</time>
  <course>257.12</course>
  <speed>4.78</speed>
  <fix>3d</fix>
</trkpt>
<trkpt lat="-27.2157832" lon="151.441828">
  <ele>543.63</ele>
  <time>2026-09-01T20:00:58Z</time>
  <course>223.53</course>
  <speed>3.175295261861485</speed>
  <fix>3d</fix>
</trkpt>
<trkpt lat="-27.2157832" lon="151.4418355">
  <ele>543.17</ele>
  <time>2026-09-01T20:00:58Z</time>
  <course>266.1</course>
  <speed>3.91</speed>
  <fix>3d</fix>
</trkpt>
<trkpt lat="-27.2157828" lon="151.4418251">
  <ele>543.83</ele>
  <time>2026-09-01T20:00:58Z</time>
  <course>222.44</course>
  <speed>2.8693204770467866</speed>
  <fix>3d</fix>
</trkpt>
<trkpt lat="-27.2157832" lon="151.4418355">
  <ele>543.17</ele>
  <time>2026-09-01T20:00:58Z</time>
  <course>266.1</course>
  <speed>3.91</speed>
  <fix>3d</fix>
</trkpt>
<trkpt lat="-27.2157821" lon="151.4418224">
  <ele>544.01</ele>
  <time>2026-09-01T20:00:58Z</time>
  <course>221.33</course>
  <speed>2.58897663179875</speed>
  <fix>3d</fix>
</trkpt>
<trkpt lat="-27.2157832" lon="151.4418284">
  <ele>543.61</ele>
  <time>2026-09-01T20:00:58Z</time>
  <course>276.82</course>
  <speed>3.18</speed>
  <fix>3d</fix>
</trkpt>
<trkpt lat="-27.2157812" lon="151.4418202">
  <ele>544.16</ele>
  <time>2026-09-01T20:00:58Z</time>
  <course>220.2</course>
  <speed>2.3603813251252435</speed>
  <fix>3d</fix>
</trkpt>
<trkpt lat="-27.2157832" lon="151.4418284">
  <ele>543.61</ele>
  <time>2026-09-01T20:00:58Z</time>
  <course>276.82</course>
  <speed>3.18</speed>
  <fix>3d</fix>
</trkpt>
<trkpt lat="-27.21578" lon="151.4418183">
  <ele>544.29</ele>
  <time>2026-09-01T20:00:58Z</time>
  <course>219.06</course>
  <speed>2.1804815981796315</speed>
  <fix>3d</fix>
</trkpt>
<trkpt lat="-27.215782" lon="151.4418227">
  <ele>543.99</ele>
  <time>2026-09-01T20:00:58Z</time>
  <course>290.48</course>
  <speed>2.6</speed>
  <fix>3d</fix>
</trkpt>
<trkpt lat="-27.2157787" lon="151.4418168">
  <ele>544.41</ele>
  <time>2026-09-01T20:00:58Z</time>
  <course>217.99</course>
  <speed>2.058834621818858</speed>
  <fix>3d</fix>
</trkpt>
<trkpt lat="-27.215782" lon="151.4418227">
  <ele>543.99</ele>
  <time>2026-09-01T20:00:58Z</time>
  <course>290.48</course>
  <speed>2.6</speed>
  <fix>3d</fix>
</trkpt>
<trkpt lat="-27.2157772" lon="151.4418155">
  <ele>544.5</ele>
  <time>2026-09-01T20:00:58Z</time>
  <course>217.02</course>
  <speed>1.98600100704909</speed>
  <fix>3d</fix>
</trkpt>
<trkpt lat="-27.2157799" lon="151.4418185">
  <ele>544.28</ele>
  <time>2026-09-01T20:00:58Z</time>
  <course>308.85</course>
  <speed>2.18</speed>
  <fix>3d</fix>
</trkpt>
<trkpt lat="-27.2157756" lon="151.4418146">
  <ele>544.56</ele>
  <time>2026-09-01T20:00:58Z</time>
  <course>216.14</course>
  <speed>1.893620870184948</speed>
  <fix>3d</fix>
</trkpt>
<trkpt lat="-27.2157799" lon="151.4418185">
  <ele>544.28</ele>
  <time>2026-09-01T20:00:58Z</time>
  <course>308.85</course>
  <speed>2.18</speed>
  <fix>3d</fix>
</trkpt>
<trkpt lat="-27.2157741" lon="151.441814">
  <ele>544.6</ele>
  <time>2026-09-01T20:00:58Z</time>
  <course>215.31</course>
  <speed>1.7772450590731714</speed>
  <fix>3d</fix>
</trkpt>
<trkpt lat="-27.2157772" lon="151.4418157">
  <ele>544.48</ele>
  <time>2026-09-01T20:00:58Z</time>
  <course>327.46</course>
  <speed>1.96</speed>
  <fix>3d</fix>
</trkpt>
<trkpt lat="-27.2157726" lon="151.4418136">
  <ele>544.62</ele>
  <time>2026-09-01T20:00:58Z</time>
  <course>214.52</course>
  <speed>1.6595180023127196</speed>
  <fix>3d</fix>
</trkpt>
<trkpt lat="-27.2157772" lon="151.4418157">
  <ele>544.48</ele>
  <time>2026-09-01T20:00:58Z</time>
  <course>327.46</course>
  <speed>1.96</speed>
  <fix>3d</fix>
</trkpt>
<trkpt lat="-27.2157712" lon="151.4418133">
  <ele>544.61</ele>
  <time>2026-09-01T20:00:58Z</time>
  <course>213.8</course>
  <speed>1.5482893786369525</speed>
  <fix>3d</fix>
</trkpt>
<trkpt lat="-27.2157742" lon="151.4418141">
  <ele>544.58</ele>
  <time>2026-09-01T20:00:58Z</time>
  <course>341.14</course>
  <speed>1.77</speed>
  <fix>3d</fix>
</trkpt>
<trkpt lat="-27.2157698" lon="151.4418131">
  <ele>544.58</ele>
  <time>2026-09-01T20:00:58Z</time>
  <course>213.22</course>
  <speed>1.4400347218036098</speed>
  <fix>3d</fix>
</trkpt>
<trkpt lat="-27.2157742" lon="151.4418141">
  <ele>544.58</ele>
  <time>2026-09-01T20:00:58Z</time>
  <course>341.14</course>
  <speed>1.77</speed>
  <fix>3d</fix>
</trkpt>
<trkpt lat="-27.2157686" lon="151.4418131">
  <ele>544.53</ele>
  <time>2026-09-01T20:00:58Z</time>
  <course>212.79</course>
  <speed>1.3633048081775403</speed>
  <fix>3d</fix>
</trkpt>
<trkpt lat="-27.2157713" lon="151.4418134">
  <ele>544.6</ele>
  <time>2026-09-01T20:00:58Z</time>
  <course>353.24</course>
  <speed>1.55</speed>
  <fix>3d</fix>
</trkpt>
<trkpt lat="-27.2157674" lon="151.4418135">
  <ele>544.45</ele>
  <time>2026-09-01T20:00:58Z</time>
  <course>212.58</course>
  <speed>1.3189768762188365</speed>
  <fix>3d</fix>
</trkpt>
<trkpt lat="-27.2157713" lon="151.4418134">
  <ele>544.6</ele>
  <time>2026-09-01T20:00:58Z</time>
  <course>353.24</course>
  <speed>1.55</speed>
  <fix>3d</fix>
</trkpt>
<trkpt lat="-27.2157663" lon="151.441814">
  <ele>544.36</ele>
  <time>2026-09-01T20:00:58Z</time>
  <course>212.66</course>
  <speed>1.2925169244539896</speed>
  <fix>3d</fix>
</trkpt>
<trkpt lat="-27.2157686" lon="151.4418133">
  <ele>544.52</ele>
  <time>2026-09-01T20:00:58Z</time>
  <course>8.26</course>
  <speed>1.37</speed>
  <fix>3d</fix>
</trkpt>
<trkpt lat="-27.2157653" lon="151.4418146">
  <ele>544.25</ele>
  <time>2026-09-01T20:00:58Z</time>
  <course>212.2</course>
  <speed>1.3008458786497346</speed>
  <fix>3d</fix>
</trkpt>
<trkpt lat="-27.2157686" lon="151.4418133">
  <ele>544.52</ele>
  <time>2026-09-01T20:00:58Z</time>
  <course>8.26</course>
  <speed>1.37</speed>
  <fix>3d</fix>
</trkpt>
<trkpt lat="-27.2157644" lon="151.4418155">
  <ele>544.12</ele>
  <time>2026-09-01T20:00:58Z</time>
  <course>210.66</course>
  <speed>1.3009611831257686</speed>
  <fix>3d</fix>
</trkpt>
<trkpt lat="-27.2157663" lon="151.441814">
  <ele>544.35</ele>
  <time>2026-09-01T20:00:58Z</time>
  <course>25.1</course>
  <speed>1.3</speed>
  <fix>3d</fix>
</trkpt>
<trkpt lat="-27.2157635" lon="151.4418164">
  <ele>543.99</ele>
  <time>2026-09-01T20:00:58Z</time>
  <course>208.48</course>
  <speed>1.3011533345459327</speed>
  <fix>3d</fix>
</trkpt>
<trkpt lat="-27.2157663" lon="151.441814">
  <ele>544.35</ele>
  <time>2026-09-01T20:00:58Z</time>
  <course>25.1</course>
  <speed>1.3</speed>
  <fix>3d</fix>
</trkpt>
<trkpt lat="-27.2157627" lon="151.4418174">
  <ele>543.85</ele>
  <time>2026-09-01T20:00:58Z</time>
  <course>206.13</course>
  <speed>1.3261221663180205</speed>
  <fix>3d</fix>
</trkpt>
<trkpt lat="-27.2157644" lon="151.4418155">
  <ele>544.12</ele>
  <time>2026-09-01T20:00:58Z</time>
  <course>39.29</course>
  <speed>1.3</speed>
  <fix>3d</fix>
</trkpt>
<trkpt lat="-27.215762" lon="151.4418184">
  <ele>543.7</ele>
  <time>2026-09-01T20:00:58Z</time>
  <course>203.94</course>
  <speed>1.3669308687713508</speed>
  <fix>3d</fix>
</trkpt>
<trkpt lat="-27.2157644" lon="151.4418155">
  <ele>544.12</ele>
  <time>2026-09-01T20:00:58Z</time>
  <course>39.29</course>
  <speed>1.3</speed>
  <fix>3d</fix>
</trkpt>
<trkpt lat="-27.2157615" lon="151.4418198">
  <ele>543.54</ele>
  <time>2026-09-01T20:00:58Z</time>
  <course>202.07</course>
  <speed>1.4246754016266303</speed>
  <fix>3d</fix>
</trkpt>
<trkpt lat="-27.2157628" lon="151.4418174">
  <ele>543.84</ele>
  <time>2026-09-01T20:00:58Z</time>
  <course>52.55</course>
  <speed>1.33</speed>
  <fix>3d</fix>
</trkpt>
<trkpt lat="-27.215761" lon="151.4418212">
  <ele>543.39</ele>
  <time>2026-09-01T20:00:58Z</time>
  <course>200.55</course>
  <speed>1.5</speed>
  <fix>3d</fix>
</trkpt>
<trkpt lat="-27.2157628" lon="151.4418174">
  <ele>543.84</ele>
  <time>2026-09-01T20:00:58Z</time>
  <course>52.55</course>
  <speed>1.33</speed>
  <fix>3d</fix>
</trkpt>
<trkpt lat="-27.2157607" lon="151.4418227">
  <ele>543.24</ele>
  <time>2026-09-01T20:00:58Z</time>
  <course>199.34</course>
  <speed>1.6046183346827367</speed>
  <fix>3d</fix>
</trkpt>
<trkpt lat="-27.2157615" lon="151.4418198">
  <ele>543.55</ele>
  <time>2026-09-01T20:00:58Z</time>
  <course>66.79</course>
  <speed>1.42</speed>
  <fix>3d</fix>
</trkpt>
<trkpt lat="-27.2157605" lon="151.4418244">
  <ele>543.09</ele>
  <time>2026-09-01T20:00:58Z</time>
  <course>198.39</course>
  <speed>1.71572142260916</speed>
  <fix>3d</fix>
</trkpt>
<trkpt lat="-27.2157615" lon="151.4418198">
  <ele>543.55</ele>
  <time>2026-09-01T20:00:58Z</time>
  <course>66.79</course>
  <speed>1.42</speed>
  <fix>3d</fix>
</trkpt>
<trkpt lat="-27.2157604" lon="151.4418261">
  <ele>542.94</ele>
  <time>2026-09-01T20:00:58Z</time>
  <course>197.63</course>
  <speed>1.8400271737123886</speed>
  <fix>3d</fix>
</trkpt>
<trkpt lat="-27.2157607" lon="151.4418227">
  <ele>543.24</ele>
  <time>2026-09-01T20:00:58Z</time>
  <course>79.57</course>
  <speed>1.6</speed>
  <fix>3d</fix>
</trkpt>
<trkpt lat="-27.2157605" lon="151.441828">
  <ele>542.79</ele>
  <time>2026-09-01T20:00:58Z</time>
  <course>197.0</course>
  <speed>1.9520758181996927</speed>
  <fix>3d</fix>
</trkpt>
<trkpt lat="-27.2157607" lon="151.4418227">
  <ele>543.24</ele>
  <time>2026-09-01T20:00:58Z</time>
  <course>79.57</course>
  <speed>1.6</speed>
  <fix>3d</fix>
</trkpt>
<trkpt lat="-27.2157606" lon="151.4418301">
  <ele>542.65</ele>
  <time>2026-09-01T20:00:58Z</time>
  <course>196.45</course>
  <speed>2.0687435800504614</speed>
  <fix>3d</fix>
</trkpt>
<trkpt lat="-27.2157605" lon="151.4418261">
  <ele>542.94</ele>
  <time>2026-09-01T20:00:58Z</time>
  <course>89.02</course>
  <speed>1.83</speed>
  <fix>3d</fix>
</trkpt>
<trkpt lat="-27.2157608" lon="151.4418322">
  <ele>542.5</ele>
  <time>2026-09-01T20:00:58Z</time>
  <course>195.93</course>
  <speed>2.16566387050253</speed>
  <fix>3d</fix>
</trkpt>
<trkpt lat="-27.2157605" lon="151.4418261">
  <ele>542.94</ele>
  <time>2026-09-01T20:00:58Z</time>
  <course>89.02</course>
  <speed>1.83</speed>
  <fix>3d</fix>
</trkpt>
<trkpt lat="-27.2157611" lon="151.4418345">
  <ele>542.36</ele>
  <time>2026-09-01T20:00:58Z</time>
  <course>195.43</course>
  <speed>2.242944493294473</speed>
  <fix>3d</fix>
</trkpt>
<trkpt lat="-27.2157606" lon="151.4418301">
  <ele>542.65</ele>
  <time>2026-09-01T20:00:58Z</time>
  <course>94.93</course>
  <speed>2.05</speed>
  <fix>3d</fix>
</trkpt>
<trkpt lat="-27.2157613" lon="151.4418368">
  <ele>542.23</ele>
  <time>2026-09-01T20:00:58Z</time>
  <course>194.9</course>
  <speed>2.3181242417092314</speed>
  <fix>3d</fix>
</trkpt>
<trkpt lat="-27.2157606" lon="151.4418301">
  <ele>542.65</ele>
  <time>2026-09-01T20:00:58Z</time>
  <course>94.93</course>
  <speed>2.05</speed>
  <fix>3d</fix>
</trkpt>
<trkpt lat="-27.2157616" lon="151.441839">
  <ele>542.09</ele>
  <time>2026-09-01T20:00:58Z</time>
  <course>194.35</course>
  <speed>2.3706539182259396</speed>
  <fix>3d</fix>
</trkpt>
<trkpt lat="-27.215761" lon="151.4418344">
  <ele>542.37</ele>
  <time>2026-09-01T20:00:58Z</time>
  <course>97.99</course>
  <speed>2.24</speed>
  <fix>3d</fix>
</trkpt>
<trkpt lat="-27.215762" lon="151.4418414">
  <ele>541.95</ele>
  <time>2026-09-01T20:00:58Z</time>
  <course>193.76</course>
  <speed>2.400270818053663</speed>
  <fix>3d</fix>
</trkpt>
<trkpt lat="-27.215761" lon="151.4418344">
  <ele>542.37</ele>
  <time>2026-09-01T20:00:58Z</time>
  <course>97.99</course>
  <speed>2.24</speed>
  <fix>3d</fix>
</trkpt>
<trkpt lat="-27.2157623" lon="151.4418438">
  <ele>541.81</ele>
  <time>2026-09-01T20:00:58Z</time>
  <course>193.15</course>
  <speed>2.42835335155327</speed>
  <fix>3d</fix>
</trkpt>
<trkpt lat="-27.2157616" lon="151.441839">
  <ele>542.08</ele>
  <time>2026-09-01T20:00:58Z</time>
  <course>99.06</course>
  <speed>2.36</speed>
  <fix>3d</fix>
</trkpt>
<trkpt lat="-27.2157627" lon="151.4418462">
  <ele>541.66</ele>
  <time>2026-09-01T20:00:58Z</time>
  <course>192.5</course>
  <speed>2.4367396249907376</speed>
  <fix>3d</fix>
</trkpt>
<trkpt lat="-27.2157616" lon="151.441839">
  <ele>542.08</ele>
  <time>2026-09-01T20:00:58Z</time>
  <course>99.06</course>
  <speed>2.36</speed>
  <fix>3d</fix>
</trkpt>
<trkpt lat="-27.215763" lon="151.4418488">
  <ele>541.52</ele>
  <time>2026-09-01T20:00:58Z</time>
  <course>191.85</course>
  <speed>2.442396364229197</speed>
  <fix>3d</fix>
</trkpt>
<trkpt lat="-27.2157623" lon="151.4418438">
  <ele>541.81</ele>
  <time>2026-09-01T20:00:58Z</time>
  <course>98.88</course>
  <speed>2.42</speed>
  <fix>3d</fix>
</trkpt>
<trkpt lat="-27.2157633" lon="151.4418512">
  <ele>541.37</ele>
  <time>2026-09-01T20:00:58Z</time>
  <course>191.21</course>
  <speed>2.4385241438214225</speed>
  <fix>3d</fix>
</trkpt>
<trkpt lat="-27.2157623" lon="151.4418438">
  <ele>541.81</ele>
  <time>2026-09-01T20:00:58Z</time>
  <course>98.88</course>
  <speed>2.42</speed>
  <fix>3d</fix>
</trkpt>
<trkpt lat="-27.2157635" lon="151.4418537">
  <ele>541.22</ele>
  <time>2026-09-01T20:00:58Z</time>
  <course>190.6</course>
  <speed>2.415139747509448</speed>
  <fix>3d</fix>
</trkpt>
<trkpt lat="-27.2157629" lon="151.4418487">
  <ele>541.52</ele>
  <time>2026-09-01T20:00:58Z</time>
  <course>97.92</course>
  <speed>2.44</speed>
  <fix>3d</fix>
</trkpt>
<trkpt lat="-27.2157638" lon="151.4418561">
  <ele>541.07</ele>
  <time>2026-09-01T20:00:58Z</time>
  <course>190.02</course>
  <speed>2.401041440708594</speed>
  <fix>3d</fix>
</trkpt>
<trkpt lat="-27.2157629" lon="151.4418487">
  <ele>541.52</ele>
  <time>2026-09-01T20:00:58Z</time>
  <course>97.92</course>
  <speed>2.44</speed>
  <fix>3d</fix>
</trkpt>
<trkpt lat="-27.2157639" lon="151.4418585">
  <ele>540.91</ele>
  <time>2026-09-01T20:00:58Z</time>
  <course>189.51</course>
  <speed>2.3676359517459606</speed>
  <fix>3d</fix>
</trkpt>
<trkpt lat="-27.2157635" lon="151.4418536">
  <ele>541.22</ele>
  <time>2026-09-01T20:00:58Z</time>
  <course>96.5</course>
  <speed>2.42</speed>
  <fix>3d</fix>
</trkpt>
<trkpt lat="-27.2157641" lon="151.4418609">
  <ele>540.75</ele>
  <time>2026-09-01T20:00:58Z</time>
  <course>189.07</course>
  <speed>2.334823333787805</speed>
  <fix>3d</fix>
</trkpt>
<trkpt lat="-27.2157635" lon="151.4418536">
  <ele>541.22</ele>
  <time>2026-09-01T20:00:58Z</time>
  <course>96.5</course>
  <speed>2.42</speed>
  <fix>3d</fix>
</trkpt>
<trkpt lat="-27.2157642" lon="151.4418632">
  <ele>540.59</ele>
  <time>2026-09-01T20:00:58Z</time>
  <course>188.73</course>
  <speed>2.302628932329306</speed>
  <fix>3d</fix>
</trkpt>
<trkpt lat="-27.2157639" lon="151.4418584">
  <ele>540.91</ele>
  <time>2026-09-01T20:00:58Z</time>
  <course>94.79</course>
  <speed>2.37</speed>
  <fix>3d</fix>
</trkpt>
<trkpt lat="-27.2157643" lon="151.4418655">
  <ele>540.43</ele>
  <time>2026-09-01T20:00:58Z</time>
  <course>188.49</course>
  <speed>2.2510886255321</speed>
  <fix>3d</fix>
</trkpt>
<trkpt lat="-27.2157639" lon="151.4418584">
  <ele>540.91</ele>
  <time>2026-09-01T20:00:58Z</time>
  <course>94.79</course>
  <speed>2.37</speed>
  <fix>3d</fix>
</trkpt>
<trkpt lat="-27.2157644" lon="151.4418677">
  <ele>540.27</ele>
  <time>2026-09-01T20:00:58Z</time>
  <course>188.36</course>
  <speed>2.2102036105300344</speed>
  <fix>3d</fix>
</trkpt>
<trkpt lat="-27.2157642" lon="151.441863">
  <ele>540.6</ele>
  <time>2026-09-01T20:00:58Z</time>
  <course>92.9</course>
  <speed>2.3</speed>
  <fix>3d</fix>
</trkpt>
<trkpt lat="-27.2157644" lon="151.44187">
  <ele>540.11</ele>
  <time>2026-09-01T20:00:58Z</time>
  <course>188.36</course>
  <speed>2.15</speed>
  <fix>3d</fix>
</trkpt>
<trkpt lat="-27.2157642" lon="151.441863">
  <ele>540.6</ele>
  <time>2026-09-01T20:00:58Z</time>
  <course>92.9</course>
  <speed>2.3</speed>
  <fix>3d</fix>
</trkpt>
<trkpt lat="-27.2157643" lon="151.441872">
  <ele>539.95</ele>
  <time>2026-09-01T20:00:58Z</time>
  <course>188.48</course>
  <speed>2.0903827400741712</speed>
  <fix>3d</fix>
</trkpt>
<trkpt lat="-27.2157643" lon="151.4418676">
  <ele>540.27</ele>
  <time>2026-09-01T20:00:58Z</time>
  <course>90.89</course>
  <speed>2.21</speed>
  <fix>3d</fix>
</trkpt>
<trkpt lat="-27.2157643" lon="151.4418742">
  <ele>539.78</ele>
  <time>2026-09-01T20:00:58Z</time>
  <course>188.73</course>
  <speed>2.0315757431117354</speed>
  <fix>3d</fix>
</trkpt>
<trkpt lat="-27.2157643" lon="151.4418676">
  <ele>540.27</ele>
  <time>2026-09-01T20:00:58Z</time>
  <course>90.89</course>
  <speed>2.21</speed>
  <fix>3d</fix>
</trkpt>
<trkpt lat="-27.2157643" lon="151.4418762">
  <ele>539.62</ele>
  <time>2026-09-01T20:00:58Z</time>
  <course>189.12</course>
  <speed>1.9636700333813724</speed>
  <fix>3d</fix>
</trkpt>
<trkpt lat="-27.2157643" lon="151.441872">
  <ele>539.94</ele>
  <time>2026-09-01T20:00:58Z</time>
  <course>88.77</course>
  <speed>2.09</speed>
  <fix>3d</fix>
</trkpt>
<trkpt lat="-27.2157642" lon="151.4418782">
  <ele>539.46</ele>
  <time>2026-09-01T20:00:58Z</time>
  <course>189.63</course>
  <speed>1.886796226411321</speed>
  <fix>3d</fix>
</trkpt>
<trkpt lat="-27.2157643" lon="151.441872">
  <ele>539.94</ele>
  <time>2026-09-01T20:00:58Z</time>
  <course>88.77</course>
  <speed>2.09</speed>
  <fix>3d</fix>
</trkpt>
<trkpt lat="-27.215764" lon="151.44188">
  <ele>539.29</ele>
  <time>2026-09-01T20:00:58Z</time>
  <course>190.26</course>
  <speed>1.8110770276274835</speed>
  <fix>3d</fix>
</trkpt>
<trkpt lat="-27.2157642" lon="151.4418761">
  <ele>539.63</ele>
  <time>2026-09-01T20:00:58Z</time>
  <course>86.43</course>
  <speed>1.96</speed>
  <fix>3d</fix>
</trkpt>
<trkpt lat="-27.2157638" lon="151.4418818">
  <ele>539.14</ele>
  <time>2026-09-01T20:00:58Z</time>
  <course>191.02</course>
  <speed>1.7253985046939155</speed>
  <fix>3d</fix>
</trkpt>
<trkpt lat="-27.2157642" lon="151.4418761">
  <ele>539.63</ele>
  <time>2026-09-01T20:00:58Z</time>
  <course>86.43</course>
  <speed>1.96</speed>
  <fix>3d</fix>
</trkpt>
<trkpt lat="-27.2157636" lon="151.4418835">
  <ele>538.98</ele>
  <time>2026-09-01T20:00:58Z</time>
  <course>191.89</course>
  <speed>1.6341664541900252</speed>
  <fix>3d</fix>
</trkpt>
<trkpt lat="-27.215764" lon="151.4418799">
  <ele>539.3</ele>
  <time>2026-09-01T20:00:58Z</time>
  <course>83.68</course>
  <speed>1.81</speed>
  <fix>3d</fix>
</trkpt>
<trkpt lat="-27.2157633" lon="151.441885">
  <ele>538.82</ele>
  <time>2026-09-01T20:00:58Z</time>
  <course>192.85</course>
  <speed>1.5435349040433133</speed>
  <fix>3d</fix>
</trkpt>
<trkpt lat="-27.215764" lon="151.4418799">
  <ele>539.3</ele>
  <time>2026-09-01T20:00:58Z</time>
  <course>83.68</course>
  <speed>1.81</speed>
  <fix>3d</fix>
</trkpt>
<trkpt lat="-27.215763" lon="151.4418866">
  <ele>538.66</ele>
  <time>2026-09-01T20:00:58Z</time>
  <course>193.9</course>
  <speed>1.4455448799674122</speed>
  <fix>3d</fix>
</trkpt>
<trkpt lat="-27.2157635" lon="151.4418834">
  <ele>538.98</ele>
  <time>2026-09-01T20:00:58Z</time>
  <course>80.17</course>
  <speed>1.63</speed>
  <fix>3d</fix>
</trkpt>
<trkpt lat="-27.2157626" lon="151.4418878">
  <ele>538.5</ele>
  <time>2026-09-01T20:00:58Z</time>
  <course>195.02</course>
  <speed>1.3440610105199837</speed>
  <fix>3d</fix>
</trkpt>
<trkpt lat="-27.2157635" lon="151.4418834">
  <ele>538.98</ele>
  <time>2026-09-01T20:00:58Z</time>
  <course>80.17</course>
  <speed>1.63</speed>
  <fix>3d</fix>
</trkpt>
<trkpt lat="-27.2157622" lon="151.4418892">
  <ele>538.34</ele>
  <time>2026-09-01T20:00:58Z</time>
  <course>196.19</course>
  <speed>1.2478781991845198</speed>
  <fix>3d</fix>
</trkpt>
<trkpt lat="-27.215763" lon="151.4418864">
  <ele>538.66</ele>
  <time>2026-09-01T20:00:58Z</time>
  <course>75.39</course>
  <speed>1.44</speed>
  <fix>3d</fix>
</trkpt>
<trkpt lat="-27.2157618" lon="151.4418902">
  <ele>538.18</ele>
  <time>2026-09-01T20:00:58Z</time>
  <course>197.39</course>
  <speed>1.1583177456984763</speed>
  <fix>3d</fix>
</trkpt>
<trkpt lat="-27.215763" lon="151.4418864">
  <ele>538.66</ele>
  <time>2026-09-01T20:00:58Z</time>
  <course>75.39</course>
  <speed>1.44</speed>
  <fix>3d</fix>
</trkpt>
<trkpt lat="-27.2157613" lon="151.4418912">
  <ele>538.02</ele>
  <time>2026-09-01T20:00:58Z</time>
  <course>198.6</course>
  <speed>1.0685036265731624</speed>
  <fix>3d</fix>
</trkpt>
<trkpt lat="-27.2157622" lon="151.441889">
  <ele>538.34</ele>
  <time>2026-09-01T20:00:58Z</time>
  <course>68.53</course>
  <speed>1.25</speed>
  <fix>3d</fix>
</trkpt>
<trkpt lat="-27.2157608" lon="151.4418921">
  <ele>537.87</ele>
  <time>2026-09-01T20:00:58Z</time>
  <course>199.79</course>
  <speed>0.982344135219425</speed>
  <fix>3d</fix>
</trkpt>
<trkpt lat="-27.2157622" lon="151.441889">
  <ele>538.34</ele>
  <time>2026-09-01T20:00:58Z</time>
  <course>68.53</course>
  <speed>1.25</speed>
  <fix>3d</fix>
</trkpt>
<trkpt lat="-27.2157602" lon="151.4418928">
  <ele>537.71</ele>
  <time>2026-09-01T20:00:58Z</time>
  <course>200.95</course>
  <speed>0.9193475947648964</speed>
  <fix>3d</fix>
</trkpt>
<trkpt lat="-27.2157612" lon="151.4418911">
  <ele>538.03</ele>
  <time>2026-09-01T20:00:58Z</time>
  <course>58.51</course>
  <speed>1.07</speed>
  <fix>3d</fix>
</trkpt>
<trkpt lat="-27.2157596" lon="151.4418934">
  <ele>537.56</ele>
  <time>2026-09-01T20:00:58Z</time>
  <course>202.04</course>
  <speed>0.8683893136145793</speed>
  <fix>3d</fix>
</trkpt>
<trkpt lat="-27.2157612" lon="151.4418911">
  <ele>538.03</ele>
  <time>2026-09-01T20:00:58Z</time>
  <course>58.51</course>
  <speed>1.07</speed>
  <fix>3d</fix>
</trkpt>
<trkpt lat="-27.215759" lon="151.4418939">
  <ele>537.41</ele>
  <time>2026-09-01T20:00:58Z</time>
  <course>203.36</course>
  <speed>0.8421995013059553</speed>
  <fix>3d</fix>
</trkpt>
<trkpt lat="-27.2157602" lon="151.4418927">
  <ele>537.71</ele>
  <time>2026-09-01T20:00:58Z</time>
  <course>44.25</course>
  <speed>0.92</speed>
  <fix>3d</fix>
</trkpt>
<trkpt lat="-27.2157583" lon="151.4418943">
  <ele>537.26</ele>
  <time>2026-09-01T20:00:58Z</time>
  <course>205.91</course>
  <speed>0.8273451516749222</speed>
  <fix>3d</fix>
</trkpt>
<trkpt lat="-27.2157602" lon="151.4418927">
  <ele>537.71</ele>
  <time>2026-09-01T20:00:58Z</time>
  <course>44.25</course>
  <speed>0.92</speed>
  <fix>3d</fix>
</trkpt>
<trkpt lat="-27.2157576" lon="151.4418945">
  <ele>537.11</ele>
  <time>2026-09-01T20:00:58Z</time>
  <course>209.25</course>
  <speed>0.8023091673413684</speed>
  <fix>3d</fix>
</trkpt>
<trkpt lat="-27.2157589" lon="151.4418938">
  <ele>537.41</ele>
  <time>2026-09-01T20:00:58Z</time>
  <course>31.27</course>
  <speed>0.85</speed>
  <fix>3d</fix>
</trkpt>
<trkpt lat="-27.215757" lon="151.4418949">
  <ele>536.96</ele>
  <time>2026-09-01T20:00:58Z</time>
  <course>212.78</course>
  <speed>0.7874642849044012</speed>
  <fix>3d</fix>
</trkpt>
<trkpt lat="-27.2157589" lon="151.4418938">
  <ele>537.41</ele>
  <time>2026-09-01T20:00:58Z</time>
  <course>31.27</course>
  <speed>0.85</speed>
  <fix>3d</fix>
</trkpt>
<trkpt lat="-27.2157563" lon="151.441895">
  <ele>536.82</ele>
  <time>2026-09-01T20:00:58Z</time>
  <course>215.92</course>
  <speed>0.7690253571892152</speed>
  <fix>3d</fix>
</trkpt>
<trkpt lat="-27.2157576" lon="151.4418945">
  <ele>537.11</ele>
  <time>2026-09-01T20:00:58Z</time>
  <course>22.84</course>
  <speed>0.8</speed>
  <fix>3d</fix>
</trkpt>
<trkpt lat="-27.2157556" lon="151.4418952">
  <ele>536.66</ele>
  <time>2026-09-01T20:00:58Z</time>
  <course>218.31</course>
  <speed>0.7653103945458993</speed>
  <fix>3d</fix>
</trkpt>
<trkpt lat="-27.2157576" lon="151.4418945">
  <ele>537.11</ele>
  <time>2026-09-01T20:00:58Z</time>
  <course>22.84</course>
  <speed>0.8</speed>
  <fix>3d</fix>
</trkpt>
<trkpt lat="-27.2157549" lon="151.4418953">
  <ele>536.53</ele>
  <time>2026-09-01T20:00:58Z</time>
  <course>219.86</course>
  <speed>0.77</speed>
  <fix>3d</fix>
</trkpt>
<trkpt lat="-27.2157563" lon="151.441895">
  <ele>536.82</ele>
  <time>2026-09-01T20:00:58Z</time>
  <course>12.84</course>
  <speed>0.77</speed>
  <fix>3d</fix>
</trkpt>
<trkpt lat="-27.2157542" lon="151.4418953">
  <ele>536.39</ele>
  <time>2026-09-01T20:00:58Z</time>
  <course>220.69</course>
  <speed>0.7731752712031082</speed>
  <fix>3d</fix>
</trkpt>
<trkpt lat="-27.2157563" lon="151.441895">
  <ele>536.82</ele>
  <time>2026-09-01T20:00:58Z</time>
  <course>12.84</course>
  <speed>0.77</speed>
  <fix>3d</fix>
</trkpt>
<trkpt lat="-27.2157535" lon="151.441895">
  <ele>536.25</ele>
  <time>2026-09-01T20:00:58Z</time>
  <course>220.94</course>
  <speed>0.7844743462982074</speed>
  <fix>3d</fix>
</trkpt>
<trkpt lat="-27.2157549" lon="151.4418952">
  <ele>536.53</ele>
  <time>2026-09-01T20:00:58Z</time>
  <course>0.66</course>
  <speed>0.76</speed>
  <fix>3d</fix>
</trkpt>
<trkpt lat="-27.2157528" lon="151.4418949">
  <ele>536.1</ele>
  <time>2026-09-01T20:00:58Z</time>
  <course>220.79</course>
  <speed>0.8036168241145777</speed>
  <fix>3d</fix>
</trkpt>
<trkpt lat="-27.2157549" lon="151.4418952">
  <ele>536.53</ele>
  <time>2026-09-01T20:00:58Z</time>
  <course>0.66</course>
  <speed>0.76</speed>
  <fix>3d</fix>
</trkpt>
<trkpt lat="-27.2157521" lon="151.4418947">
  <ele>535.96</ele>
  <time>2026-09-01T20:00:58Z</time>
  <course>220.37</course>
  <speed>0.8170679286326198</speed>
  <fix>3d</fix>
</trkpt>
<trkpt lat="-27.2157535" lon="151.4418951">
  <ele>536.25</ele>
  <time>2026-09-01T20:00:58Z</time>
  <course>348.86</course>
  <speed>0.78</speed>
  <fix>3d</fix>
</trkpt>
<trkpt lat="-27.2157514" lon="151.4418944">
  <ele>535.82</ele>
  <time>2026-09-01T20:00:58Z</time>
  <course>219.8</course>
  <speed>0.8409518416651456</speed>
  <fix>3d</fix>
</trkpt>
<trkpt lat="-27.2157535" lon="151.4418951">
  <ele>536.25</ele>
  <time>2026-09-01T20:00:58Z</time>
  <course>348.86</course>
  <speed>0.78</speed>
  <fix>3d</fix>
</trkpt>
<trkpt lat="-27.2157508" lon="151.441894">
  <ele>535.66</ele>
  <time>2026-09-01T20:00:58Z</time>
  <course>219.15</course>
  <speed>0.8459905436823747</speed>
  <fix>3d</fix>
</trkpt>
<trkpt lat="-27.2157521" lon="151.4418946">
  <ele>535.96</ele>
  <time>2026-09-01T20:00:58Z</time>
  <course>338.93</course>
  <speed>0.82</speed>
  <fix>3d</fix>
</trkpt>
<trkpt lat="-27.2157501" lon="151.4418935">
  <ele>535.53</ele>
  <time>2026-09-01T20:00:58Z</time>
  <course>218.48</course>
  <speed>0.8628441342444185</speed>
  <fix>3d</fix>
</trkpt>
<trkpt lat="-27.2157521" lon="151.4418946">
  <ele>535.96</ele>
  <time>2026-09-01T20:00:58Z</time>
  <course>338.93</course>
  <speed>0.82</speed>
  <fix>3d</fix>
</trkpt>
<trkpt lat="-27.2157494" lon="151.441893">
  <ele>535.39</ele>
  <time>2026-09-01T20:00:58Z</time>
  <course>217.84</course>
  <speed>0.8741853350405736</speed>
  <fix>3d</fix>
</trkpt>
<trkpt lat="-27.2157508" lon="151.441894">
  <ele>535.68</ele>
  <time>2026-09-01T20:00:58Z</time>
  <course>331.02</course>
  <speed>0.85</speed>
  <fix>3d</fix>
</trkpt>
<trkpt lat="-27.2157488" lon="151.4418926">
  <ele>535.24</ele>
  <time>2026-09-01T20:00:58Z</time>
  <course>217.25</course>
  <speed>0.876184911990614</speed>
  <fix>3d</fix>
</trkpt>
<trkpt lat="-27.2157508" lon="151.441894">
  <ele>535.68</ele>
  <time>2026-09-01T20:00:58Z</time>
  <course>331.02</course>
  <speed>0.85</speed>
  <fix>3d</fix>
</trkpt>
<trkpt lat="-27.2157482" lon="151.441892">
  <ele>535.1</ele>
  <time>2026-09-01T20:00:58Z</time>
  <course>216.73</course>
  <speed>0.8796590248499698</speed>
  <fix>3d</fix>
</trkpt>
<trkpt lat="-27.2157494" lon="151.441893">
  <ele>535.39</ele>
  <time>2026-09-01T20:00:58Z</time>
  <course>324.74</course>
  <speed>0.87</speed>
  <fix>3d</fix>
</trkpt>
<trkpt lat="-27.2157476" lon="151.4418914">
  <ele>534.95</ele>
  <time>2026-09-01T20:00:58Z</time>
  <course>216.27</course>
  <speed>0.8845903006477066</speed>
  <fix>3d</fix>
</trkpt>
<trkpt lat="-27.2157494" lon="151.441893">
  <ele>535.39</ele>
  <time>2026-09-01T20:00:58Z</time>
  <course>324.74</course>
  <speed>0.87</speed>
  <fix>3d</fix>
</trkpt>
<trkpt lat="-27.215747" lon="151.4418907">
  <ele>534.79</ele>
  <time>2026-09-01T20:00:58Z</time>
  <course>215.89</course>
  <speed>0.8768124086713189</speed>
  <fix>3d</fix>
</trkpt>
<trkpt lat="-27.2157482" lon="151.441892">
  <ele>535.1</ele>
  <time>2026-09-01T20:00:58Z</time>
  <course>319.6</course>
  <speed>0.88</speed>
  <fix>3d</fix>
</trkpt>
<trkpt lat="-27.2157465" lon="151.4418901">
  <ele>534.66</ele>
  <time>2026-09-01T20:00:58Z</time>
  <course>215.58</course>
  <speed>0.8631338250816034</speed>
  <fix>3d</fix>
</trkpt>
<trkpt lat="-27.2157482" lon="151.441892">
  <ele>535.1</ele>
  <time>2026-09-01T20:00:58Z</time>
  <course>319.6</course>
  <speed>0.88</speed>
  <fix>3d</fix>
</trkpt>
<trkpt lat="-27.2157459" lon="151.4418895">
  <ele>534.51</ele>
  <time>2026-09-01T20:00:58Z</time>
  <course>215.33</course>
  <speed>0.850411665018772</speed>
  <fix>3d</fix>
</trkpt>
<trkpt lat="-27.215747" lon="151.4418907">
  <ele>534.8</ele>
  <time>2026-09-01T20:00:58Z</time>
  <course>315.16</course>
  <speed>0.87</speed>
  <fix>3d</fix>
</trkpt>
<trkpt lat="-27.2157455" lon="151.4418887">
  <ele>534.36</ele>
  <time>2026-09-01T20:00:58Z</time>
  <course>215.12</course>
  <speed>0.8386894538504702</speed>
  <fix>3d</fix>
</trkpt>
<trkpt lat="-27.215747" lon="151.4418907">
  <ele>534.8</ele>
  <time>2026-09-01T20:00:58Z</time>
  <course>315.16</course>
  <speed>0.87</speed>
  <fix>3d</fix>
</trkpt>
<trkpt lat="-27.215745" lon="151.4418882">
  <ele>534.21</ele>
  <time>2026-09-01T20:00:58Z</time>
  <course>214.95</course>
  <speed>0.8140024569987488</speed>
  <fix>3d</fix>
</trkpt>
<trkpt lat="-27.2157459" lon="151.4418894">
  <ele>534.51</ele>
  <time>2026-09-01T20:00:58Z</time>
  <course>311.1</course>
  <speed>0.85</speed>
  <fix>3d</fix>
</trkpt>
<trkpt lat="-27.2157446" lon="151.4418875">
  <ele>534.06</ele>
  <time>2026-09-01T20:00:58Z</time>
  <course>214.8</course>
  <speed>0.7963039620647382</speed>
  <fix>3d</fix>
</trkpt>
<trkpt lat="-27.2157459" lon="151.4418894">
  <ele>534.51</ele>
  <time>2026-09-01T20:00:58Z</time>
  <course>311.1</course>
  <speed>0.85</speed>
  <fix>3d</fix>
</trkpt>
<trkpt lat="-27.2157442" lon="151.4418868">
  <ele>533.91</ele>
  <time>2026-09-01T20:00:58Z</time>
  <course>214.67</course>
  <speed>0.7655063683601856</speed>
  <fix>3d</fix>
</trkpt>
<trkpt lat="-27.215745" lon="151.4418881">
  <ele>534.2</ele>
  <time>2026-09-01T20:00:58Z</time>
  <course>307.2</course>
  <speed>0.82</speed>
  <fix>3d</fix>
</trkpt>
<trkpt lat="-27.2157438" lon="151.4418862">
  <ele>533.76</ele>
  <time>2026-09-01T20:00:58Z</time>
  <course>214.54</course>
  <speed>0.7443117626371358</speed>
  <fix>3d</fix>
</trkpt>
<trkpt lat="-27.215745" lon="151.4418881">
  <ele>534.2</ele>
  <time>2026-09-01T20:00:58Z</time>
  <course>307.2</course>
  <speed>0.82</speed>
  <fix>3d</fix>
</trkpt>
<trkpt lat="-27.2157435" lon="151.4418854">
  <ele>533.61</ele>
  <time>2026-09-01T20:00:58Z</time>
  <course>214.41</course>
  <speed>0.7071067811865476</speed>
  <fix>3d</fix>
</trkpt>
<trkpt lat="-27.2157441" lon="151.4418868">
  <ele>533.91</ele>
  <time>2026-09-01T20:00:58Z</time>
  <course>303.17</course>
  <speed>0.77</speed>
  <fix>3d</fix>
</trkpt>
<trkpt lat="-27.2157432" lon="151.4418849">
  <ele>533.46</ele>
  <time>2026-09-01T20:00:58Z</time>
  <course>214.26</course>
  <speed>0.6797793759742936</speed>
  <fix>3d</fix>
</trkpt>
<trkpt lat="-27.2157441" lon="151.4418868">
  <ele>533.91</ele>
  <time>2026-09-01T20:00:58Z</time>
  <course>303.17</course>
  <speed>0.77</speed>
  <fix>3d</fix>
</trkpt>
<trkpt lat="-27.2157429" lon="151.4418843">
  <ele>533.31</ele>
  <time>2026-09-01T20:00:58Z</time>
  <course>214.1</course>
  <speed>0.6539113089708727</speed>
  <fix>3d</fix>
</trkpt>
<trkpt lat="-27.2157435" lon="151.4418855">
  <ele>533.61</ele>
  <time>2026-09-01T20:00:58Z</time>
  <course>298.74</course>
  <speed>0.71</speed>
  <fix>3d</fix>
</trkpt>
<trkpt lat="-27.2157427" lon="151.4418837">
  <ele>533.16</ele>
  <time>2026-09-01T20:00:58Z</time>
  <course>213.94</course>
  <speed>0.6168468205316454</speed>
  <fix>3d</fix>
</trkpt>
<trkpt lat="-27.2157435" lon="151.4418855">
  <ele>533.61</ele>
  <time>2026-09-01T20:00:58Z</time>
  <course>298.74</course>
  <speed>0.71</speed>
  <fix>3d</fix>
</trkpt>
<trkpt lat="-27.2157425" lon="151.441883">
  <ele>533.0</ele>
  <time>2026-09-01T20:00:58Z</time>
  <course>213.77</course>
  <speed>0.5852349955359812</speed>
  <fix>3d</fix>
</trkpt>
<trkpt lat="-27.2157429" lon="151.4418843">
  <ele>533.31</ele>
  <time>2026-09-01T20:00:58Z</time>
  <course>293.65</course>
  <speed>0.65</speed>
  <fix>3d</fix>
</trkpt>
<trkpt lat="-27.2157424" lon="151.4418825">
  <ele>532.85</ele>
  <time>2026-09-01T20:00:58Z</time>
  <course>213.59</course>
  <speed>0.5554277630799526</speed>
  <fix>3d</fix>
</trkpt>
<trkpt lat="-27.2157429" lon="151.4418843">
  <ele>533.31</ele>
  <time>2026-09-01T20:00:58Z</time>
  <course>293.65</course>
  <speed>0.65</speed>
  <fix>3d</fix>
</trkpt>
<trkpt lat="-27.2157423" lon="151.441882">
  <ele>532.7</ele>
  <time>2026-09-01T20:00:58Z</time>
  <course>213.41</course>
  <speed>0.517880295048962</speed>
  <fix>3d</fix>
</trkpt>
<trkpt lat="-27.2157425" lon="151.4418831">
  <ele>533.01</ele>
  <time>2026-09-01T20:00:58Z</time>
  <course>287.56</course>
  <speed>0.59</speed>
  <fix>3d</fix>
</trkpt>
<trkpt lat="-27.2157422" lon="151.4418815">
  <ele>532.54</ele>
  <time>2026-09-01T20:00:58Z</time>
  <course>213.24</course>
  <speed>0.4916299421312742</speed>
  <fix>3d</fix>
</trkpt>
<trkpt lat="-27.2157425" lon="151.4418831">
  <ele>533.01</ele>
  <time>2026-09-01T20:00:58Z</time>
  <course>287.56</course>
  <speed>0.59</speed>
  <fix>3d</fix>
</trkpt>
<trkpt lat="-27.2157422" lon="151.441881">
  <ele>532.4</ele>
  <time>2026-09-01T20:00:58Z</time>
  <course>213.06</course>
  <speed>0.47</speed>
  <fix>3d</fix>
</trkpt>
<trkpt lat="-27.2157423" lon="151.441882">
  <ele>532.7</ele>
  <time>2026-09-01T20:00:58Z</time>
  <course>280.04</course>
  <speed>0.52</speed>
  <fix>3d</fix>
</trkpt>
<trkpt lat="-27.2157422" lon="151.4418806">
  <ele>532.25</ele>
  <time>2026-09-01T20:00:58Z</time>
  <course>212.89</course>
  <speed>0.4410215414239989</speed>
  <fix>3d</fix>
</trkpt>
<trkpt lat="-27.2157423" lon="151.441882">
  <ele>532.7</ele>
  <time>2026-09-01T20:00:58Z</time>
  <course>280.04</course>
  <speed>0.52</speed>
  <fix>3d</fix>
</trkpt>
<trkpt lat="-27.2157423" lon="151.4418801">
  <ele>532.1</ele>
  <time>2026-09-01T20:00:58Z</time>
  <course>212.73</course>
  <speed>0.42755116652863895</speed>
  <fix>3d</fix>
</trkpt>
<trkpt lat="-27.2157422" lon="151.441881">
  <ele>532.41</ele>
  <time>2026-09-01T20:00:58Z</time>
  <course>270.67</course>
  <speed>0.47</speed>
  <fix>3d</fix>
</trkpt>
<trkpt lat="-27.2157424" lon="151.4418796">
  <ele>531.95</ele>
  <time>2026-09-01T20:00:58Z</time>
  <course>212.56</course>
  <speed>0.4080441152620633</speed>
  <fix>3d</fix>
</trkpt>
<trkpt lat="-27.2157422" lon="151.441881">
  <ele>532.41</ele>
  <time>2026-09-01T20:00:58Z</time>
  <course>270.67</course>
  <speed>0.47</speed>
  <fix>3d</fix>
</trkpt>
<trkpt lat="-27.2157424" lon="151.4418792">
  <ele>531.81</ele>
  <time>2026-09-01T20:00:58Z</time>
  <course>212.39</course>
  <speed>0.40311288741492746</speed>
  <fix>3d</fix>
</trkpt>
<trkpt lat="-27.2157423" lon="151.4418801">
  <ele>532.11</ele>
  <time>2026-09-01T20:00:58Z</time>
  <course>259.39</course>
  <speed>0.43</speed>
  <fix>3d</fix>
</trkpt>
<trkpt lat="-27.2157426" lon="151.4418789">
  <ele>531.66</ele>
  <time>2026-09-01T20:00:58Z</time>
  <course>212.21</course>
  <speed>0.40311288741492746</speed>
  <fix>3d</fix>
</trkpt>
<trkpt lat="-27.2157423" lon="151.4418801">
  <ele>532.11</ele>
  <time>2026-09-01T20:00:58Z</time>
  <course>259.39</course>
  <speed>0.43</speed>
  <fix>3d</fix>
</trkpt>
<trkpt lat="-27.2157428" lon="151.4418786">
  <ele>531.5</ele>
  <time>2026-09-01T20:00:58Z</time>
  <course>212.04</course>
  <speed>0.4</speed>
  <fix>3d</fix>
</trkpt>
<trkpt lat="-27.2157425" lon="151.4418793">
  <ele>531.81</ele>
  <time>2026-09-01T20:00:58Z</time>
  <course>246.75</course>
  <speed>0.4</speed>
  <fix>3d</fix>
</trkpt>
<trkpt lat="-27.215743" lon="151.4418782">
  <ele>531.35</ele>
  <time>2026-09-01T20:00:58Z</time>
  <course>211.87</course>
  <speed>0.40360872141221127</speed>
  <fix>3d</fix>
</trkpt>
<trkpt lat="-27.2157425" lon="151.4418793">
  <ele>531.81</ele>
  <time>2026-09-01T20:00:58Z</time>
  <course>246.75</course>
  <speed>0.4</speed>
  <fix>3d</fix>
</trkpt>
<trkpt lat="-27.2157433" lon="151.441878">
  <ele>531.21</ele>
  <time>2026-09-01T20:00:58Z</time>
  <course>211.72</course>
  <speed>0.41109609582188933</speed>
  <fix>3d</fix>
</trkpt>
<trkpt lat="-27.2157428" lon="151.4418786">
  <ele>531.51</ele>
  <time>2026-09-01T20:00:58Z</time>
  <course>233.88</course>
  <speed>0.4</speed>
  <fix>3d</fix>
</trkpt>
<trkpt lat="-27.2157436" lon="151.4418777">
  <ele>531.06</ele>
  <time>2026-09-01T20:00:58Z</time>
  <course>211.57</course>
  <speed>0.4220189569201838</speed>
  <fix>3d</fix>
</trkpt>
<trkpt lat="-27.2157428" lon="151.4418786">
  <ele>531.51</ele>
  <time>2026-09-01T20:00:58Z</time>
  <course>233.88</course>
  <speed>0.4</speed>
  <fix>3d</fix>
</trkpt>
<trkpt lat="-27.2157439" lon="151.4418775">
  <ele>530.91</ele>
  <time>2026-09-01T20:00:58Z</time>
  <course>211.44</course>
  <speed>0.4356604182158393</speed>
  <fix>3d</fix>
</trkpt>
<trkpt lat="-27.2157433" lon="151.4418779">
  <ele>531.21</ele>
  <time>2026-09-01T20:00:58Z</time>
  <course>221.96</course>
  <speed>0.41</speed>
  <fix>3d</fix>
</trkpt>
<trkpt lat="-27.2157442" lon="151.4418772">
  <ele>530.77</ele>
  <time>2026-09-01T20:00:58Z</time>
  <course>211.33</course>
  <speed>0.447213595499958</speed>
  <fix>3d</fix>
</trkpt>
<trkpt lat="-27.2157433" lon="151.4418779">
  <ele>531.21</ele>
  <time>2026-09-01T20:00:58Z</time>
  <course>221.96</course>
  <speed>0.41</speed>
  <fix>3d</fix>
</trkpt>
<trkpt lat="-27.2157446" lon="151.4418771">
  <ele>530.62</ele>
  <time>2026-09-01T20:00:58Z</time>
  <course>211.23</course>
  <speed>0.4661544808322666</speed>
  <fix>3d</fix>
</trkpt>
<trkpt lat="-27.2157439" lon="151.4418774">
  <ele>530.92</ele>
  <time>2026-09-01T20:00:58Z</time>
  <course>211.67</course>
  <speed>0.44</speed>
  <fix>3d</fix>
</trkpt>
<trkpt lat="-27.215745" lon="151.4418768">
  <ele>530.47</ele>
  <time>2026-09-01T20:00:58Z</time>
  <course>211.14</course>
  <speed>0.48703182647543686</speed>
  <fix>3d</fix>
</trkpt>
<trkpt lat="-27.2157439" lon="151.4418774">
  <ele>530.92</ele>
  <time>2026-09-01T20:00:58Z</time>
  <course>211.67</course>
  <speed>0.44</speed>
  <fix>3d</fix>
</trkpt>
<trkpt lat="-27.2157455" lon="151.4418767">
  <ele>530.32</ele>
  <time>2026-09-01T20:00:58Z</time>
  <course>211.06</course>
  <speed>0.5</speed>
  <fix>3d</fix>
</trkpt>
<trkpt lat="-27.2157446" lon="151.4418771">
  <ele>530.62</ele>
  <time>2026-09-01T20:00:58Z</time>
  <course>203.18</course>
  <speed>0.47</speed>
  <fix>3d</fix>
</trkpt>
<trkpt lat="-27.2157459" lon="151.4418766">
  <ele>530.16</ele>
  <time>2026-09-01T20:00:58Z</time>
  <course>210.99</course>
  <speed>0.5217278984298233</speed>
  <fix>3d</fix>
</trkpt>
<trkpt lat="-27.2157446" lon="151.4418771">
  <ele>530.62</ele>
  <time>2026-09-01T20:00:58Z</time>
  <course>203.18</course>
  <speed>0.47</speed>
  <fix>3d</fix>
</trkpt>
<trkpt lat="-27.2157464" lon="151.4418765">
  <ele>530.02</ele>
  <time>2026-09-01T20:00:58Z</time>
  <course>210.93</course>
  <speed>0.5375872022286245</speed>
  <fix>3d</fix>
</trkpt>
<trkpt lat="-27.2157454" lon="151.4418767">
  <ele>530.32</ele>
  <time>2026-09-01T20:00:58Z</time>
  <course>196.28</course>
  <speed>0.5</speed>
  <fix>3d</fix>
</trkpt>
<trkpt lat="-27.2157469" lon="151.4418763">
  <ele>529.88</ele>
  <time>2026-09-01T20:00:58Z</time>
  <course>210.88</course>
  <speed>0.5544366510251645</speed>
  <fix>3d</fix>
</trkpt>
<trkpt lat="-27.2157454" lon="151.4418767">
  <ele>530.32</ele>
  <time>2026-09-01T20:00:58Z</time>
  <course>196.28</course>
  <speed>0.5</speed>
  <fix>3d</fix>
</trkpt>
<trkpt lat="-27.2157474" lon="151.4418763">
  <ele>529.73</ele>
  <time>2026-09-01T20:00:58Z</time>
  <course>210.83</course>
  <speed>0.5622277118748239</speed>
  <fix>3d</fix>
</trkpt>
<trkpt lat="-27.2157463" lon="151.4418764">
  <ele>530.03</ele>
  <time>2026-09-01T20:00:58Z</time>
  <course>190.67</course>
  <speed>0.53</speed>
  <fix>3d</fix>
</trkpt>
<trkpt lat="-27.2157479" lon="151.4418763">
  <ele>529.58</ele>
  <time>2026-09-01T20:00:58Z</time>
  <course>210.79</course>
  <speed>0.5807753438292642</speed>
  <fix>3d</fix>
</trkpt>
<trkpt lat="-27.2157463" lon="151.4418764">
  <ele>530.03</ele>
  <time>2026-09-01T20:00:58Z</time>
  <course>190.67</course>
  <speed>0.53</speed>
  <fix>3d</fix>
</trkpt>
<trkpt lat="-27.2157484" lon="151.4418762">
  <ele>529.43</ele>
  <time>2026-09-01T20:00:58Z</time>
  <course>210.75</course>
  <speed>0.5903388857258176</speed>
  <fix>3d</fix>
</trkpt>
<trkpt lat="-27.2157473" lon="151.4418763">
  <ele>529.73</ele>
  <time>2026-09-01T20:00:58Z</time>
  <course>186.03</course>
  <speed>0.56</speed>
  <fix>3d</fix>
</trkpt>
<trkpt lat="-27.2157489" lon="151.4418762">
  <ele>529.28</ele>
  <time>2026-09-01T20:00:58Z</time>
  <course>210.71</course>
  <speed>0.6</speed>
  <fix>3d</fix>
</trkpt>
<trkpt lat="-27.2157473" lon="151.4418763">
  <ele>529.73</ele>
  <time>2026-09-01T20:00:58Z</time>
  <course>186.03</course>
  <speed>0.56</speed>
  <fix>3d</fix>
</trkpt>
<trkpt lat="-27.2157495" lon="151.4418762">
  <ele>529.13</ele>
  <time>2026-09-01T20:00:58Z</time>
  <course>210.68</course>
  <speed>0.6000833275470999</speed>
  <fix>3d</fix>
</trkpt>
<trkpt lat="-27.2157484" lon="151.4418762">
  <ele>529.43</ele>
  <time>2026-09-01T20:00:58Z</time>
  <course>182.12</course>
  <speed>0.59</speed>
  <fix>3d</fix>
</trkpt>
<trkpt lat="-27.21575" lon="151.4418763">
  <ele>528.98</ele>
  <time>2026-09-01T20:00:58Z</time>
  <course>210.64</course>
  <speed>0.6107372593840988</speed>
  <fix>3d</fix>
</trkpt>
<trkpt lat="-27.2157484" lon="151.4418762">
  <ele>529.43</ele>
  <time>2026-09-01T20:00:58Z</time>
  <course>182.12</course>
  <speed>0.59</speed>
  <fix>3d</fix>
</trkpt>
<trkpt lat="-27.2157506" lon="151.4418763">
  <ele>528.83</ele>
  <time>2026-09-01T20:00:58Z</time>
  <course>210.61</course>
  <speed>0.611310068623117</speed>
  <fix>3d</fix>
</trkpt>
<trkpt lat="-27.2157494" lon="151.4418762">
  <ele>529.14</ele>
  <time>2026-09-01T20:00:58Z</time>
  <course>178.74</course>
  <speed>0.6</speed>
  <fix>3d</fix>
</trkpt>
<trkpt lat="-27.2157511" lon="151.4418763">
  <ele>528.69</ele>
  <time>2026-09-01T20:00:58Z</time>
  <course>210.58</course>
  <speed>0.6129437168288782</speed>
  <fix>3d</fix>
</trkpt>
<trkpt lat="-27.2157494" lon="151.4418762">
  <ele>529.14</ele>
  <time>2026-09-01T20:00:58Z</time>
  <course>178.74</course>
  <speed>0.6</speed>
  <fix>3d</fix>
</trkpt>
<trkpt lat="-27.2157517" lon="151.4418763">
  <ele>528.53</ele>
  <time>2026-09-01T20:00:58Z</time>
  <course>210.55</course>
  <speed>0.6140032573203501</speed>
  <fix>3d</fix>
</trkpt>
<trkpt lat="-27.2157505" lon="151.4418763">
  <ele>528.83</ele>
  <time>2026-09-01T20:00:58Z</time>
  <course>175.76</course>
  <speed>0.61</speed>
  <fix>3d</fix>
</trkpt>
<trkpt lat="-27.2157522" lon="151.4418763">
  <ele>528.38</ele>
  <time>2026-09-01T20:00:58Z</time>
  <course>210.52</course>
  <speed>0.6053098380168622</speed>
  <fix>3d</fix>
</trkpt>
<trkpt lat="-27.2157505" lon="151.4418763">
  <ele>528.83</ele>
  <time>2026-09-01T20:00:58Z</time>
  <course>175.76</course>
  <speed>0.61</speed>
  <fix>3d</fix>
</trkpt>
<trkpt lat="-27.2157528" lon="151.4418765">
  <ele>528.23</ele>
  <time>2026-09-01T20:00:58Z</time>
  <course>210.49</course>
  <speed>0.596824932455071</speed>
  <fix>3d</fix>
</trkpt>
<trkpt lat="-27.2157516" lon="151.4418763">
  <ele>528.54</ele>
  <time>2026-09-01T20:00:58Z</time>
  <course>173.1</course>
  <speed>0.61</speed>
  <fix>3d</fix>
</trkpt>
<trkpt lat="-27.2157533" lon="151.4418766">
  <ele>528.08</ele>
  <time>2026-09-01T20:00:58Z</time>
  <course>210.46</course>
  <speed>0.6001666435249463</speed>
  <fix>3d</fix>
</trkpt>
<trkpt lat="-27.2157516" lon="151.4418763">
  <ele>528.54</ele>
  <time>2026-09-01T20:00:58Z</time>
  <course>173.1</course>
  <speed>0.61</speed>
  <fix>3d</fix>
</trkpt>
<trkpt lat="-27.2157538" lon="151.4418767">
  <ele>527.93</ele>
  <time>2026-09-01T20:00:58Z</time>
  <course>210.43</course>
  <speed>0.5824946351684279</speed>
  <fix>3d</fix>
</trkpt>
<trkpt lat="-27.2157527" lon="151.4418764">
  <ele>528.24</ele>
  <time>2026-09-01T20:00:58Z</time>
  <course>170.64</course>
  <speed>0.6</speed>
  <fix>3d</fix>
</trkpt>
<trkpt lat="-27.2157544" lon="151.4418768">
  <ele>527.78</ele>
  <time>2026-09-01T20:00:58Z</time>
  <course>210.41</course>
  <speed>0.5727128425310541</speed>
  <fix>3d</fix>
</trkpt>
<trkpt lat="-27.2157527" lon="151.4418764">
  <ele>528.24</ele>
  <time>2026-09-01T20:00:58Z</time>
  <course>170.64</course>
  <speed>0.6</speed>
  <fix>3d</fix>
</trkpt>
<trkpt lat="-27.2157549" lon="151.441877">
  <ele>527.64</ele>
  <time>2026-09-01T20:00:58Z</time>
  <course>210.39</course>
  <speed>0.5651548460377916</speed>
  <fix>3d</fix>
</trkpt>
<trkpt lat="-27.2157538" lon="151.4418767">
  <ele>527.94</ele>
  <time>2026-09-01T20:00:58Z</time>
  <course>168.36</course>
  <speed>0.59</speed>
  <fix>3d</fix>
</trkpt>
<trkpt lat="-27.2157554" lon="151.4418771">
  <ele>527.49</ele>
  <time>2026-09-01T20:00:58Z</time>
  <course>210.38</course>
  <speed>0.5481788029466298</speed>
  <fix>3d</fix>
</trkpt>
<trkpt lat="-27.2157538" lon="151.4418767">
  <ele>527.94</ele>
  <time>2026-09-01T20:00:58Z</time>
  <course>168.36</course>
  <speed>0.59</speed>
  <fix>3d</fix>
</trkpt>
<trkpt lat="-27.2157558" lon="151.4418772">
  <ele>527.34</ele>
  <time>2026-09-01T20:00:59Z</time>
  <course>210.37</course>
  <speed>0.5385164807134504</speed>
  <fix>3d</fix>
</trkpt>
<trkpt lat="-27.2157548" lon="151.4418769">
  <ele>527.64</ele>
  <time>2026-09-01T20:00:59Z</time>
  <course>166.27</course>
  <speed>0.56</speed>
  <fix>3d</fix>
</trkpt>
<trkpt lat="-27.2157563" lon="151.4418773">
  <ele>527.19</ele>
  <time>2026-09-01T20:00:59Z</time>
  <course>210.36</course>
  <speed>0.5220153254455275</speed>
  <fix>3d</fix>
</trkpt>
<trkpt lat="-27.2157548" lon="151.4418769">
  <ele>527.64</ele>
  <time>2026-09-01T20:00:59Z</time>
  <course>166.27</course>
  <speed>0.56</speed>
  <fix>3d</fix>
</trkpt>
<trkpt lat="-27.2157567" lon="151.4418776">
  <ele>527.04</ele>
  <time>2026-09-01T20:00:59Z</time>
  <course>210.35</course>
  <speed>0.5028916384272063</speed>
  <fix>3d</fix>
</trkpt>
<trkpt lat="-27.2157557" lon="151.4418772">
  <ele>527.34</ele>
  <time>2026-09-01T20:00:59Z</time>
  <course>164.37</course>
  <speed>0.54</speed>
  <fix>3d</fix>
</trkpt>
<trkpt lat="-27.2157572" lon="151.4418777">
  <ele>526.89</ele>
  <time>2026-09-01T20:00:59Z</time>
  <course>210.35</course>
  <speed>0.4838388161361178</speed>
  <fix>3d</fix>
</trkpt>
<trkpt lat="-27.2157557" lon="151.4418772">
  <ele>527.34</ele>
  <time>2026-09-01T20:00:59Z</time>
  <course>164.37</course>
  <speed>0.54</speed>
  <fix>3d</fix>
</trkpt>
<trkpt lat="-27.2157576" lon="151.4418778">
  <ele>526.74</ele>
  <time>2026-09-01T20:00:59Z</time>
  <course>210.34</course>
  <speed>0.46486557196677836</speed>
  <fix>3d</fix>
</trkpt>
<trkpt lat="-27.2157567" lon="151.4418775">
  <ele>527.05</ele>
  <time>2026-09-01T20:00:59Z</time>
  <course>162.61</course>
  <speed>0.5</speed>
  <fix>3d</fix>
</trkpt>
<trkpt lat="-27.215758" lon="151.441878">
  <ele>526.59</ele>
  <time>2026-09-01T20:00:59Z</time>
  <course>210.33</course>
  <speed>0.4459820624195552</speed>
  <fix>3d</fix>
</trkpt>
<trkpt lat="-27.2157567" lon="151.4418775">
  <ele>527.05</ele>
  <time>2026-09-01T20:00:59Z</time>
  <course>162.61</course>
  <speed>0.5</speed>
  <fix>3d</fix>
</trkpt>
<trkpt lat="-27.2157583" lon="151.4418782">
  <ele>526.44</ele>
  <time>2026-09-01T20:00:59Z</time>
  <course>210.32</course>
  <speed>0.42720018726587655</speed>
  <fix>3d</fix>
</trkpt>
<trkpt lat="-27.2157575" lon="151.4418778">
  <ele>526.75</ele>
  <time>2026-09-01T20:00:59Z</time>
  <course>160.93</course>
  <speed>0.47</speed>
  <fix>3d</fix>
</trkpt>
<trkpt lat="-27.2157587" lon="151.4418782">
  <ele>526.29</ele>
  <time>2026-09-01T20:00:59Z</time>
  <course>210.32</course>
  <speed>0.4049691346263317</speed>
  <fix>3d</fix>
</trkpt>
<trkpt lat="-27.2157575" lon="151.4418778">
  <ele>526.75</ele>
  <time>2026-09-01T20:00:59Z</time>
  <course>160.93</course>
  <speed>0.47</speed>
  <fix>3d</fix>
</trkpt>
<trkpt lat="-27.215759" lon="151.4418785">
  <ele>526.14</ele>
  <time>2026-09-01T20:00:59Z</time>
  <course>210.32</course>
  <speed>0.3769615364994153</speed>
  <fix>3d</fix>
</trkpt>
<trkpt lat="-27.2157583" lon="151.4418781">
  <ele>526.44</ele>
  <time>2026-09-01T20:00:59Z</time>
  <course>159.4</course>
  <speed>0.43</speed>
  <fix>3d</fix>
</trkpt>
<trkpt lat="-27.2157593" lon="151.4418786">
  <ele>525.99</ele>
  <time>2026-09-01T20:00:59Z</time>
  <course>210.32</course>
  <speed>0.3584689665786984</speed>
  <fix>3d</fix>
</trkpt>
<trkpt lat="-27.2157583" lon="151.4418781">
  <ele>526.44</ele>
  <time>2026-09-01T20:00:59Z</time>
  <course>159.4</course>
  <speed>0.43</speed>
  <fix>3d</fix>
</trkpt>
<trkpt lat="-27.2157596" lon="151.4418787">
  <ele>525.84</ele>
  <time>2026-09-01T20:00:59Z</time>
  <course>210.32</course>
  <speed>0.3361547262794322</speed>
  <fix>3d</fix>
</trkpt>
<trkpt lat="-27.215759" lon="151.4418784">
  <ele>526.15</ele>
  <time>2026-09-01T20:00:59Z</time>
  <course>158.0</course>
  <speed>0.38</speed>
  <fix>3d</fix>
</trkpt>
<trkpt lat="-27.2157599" lon="151.4418789">
  <ele>525.69</ele>
  <time>2026-09-01T20:00:59Z</time>
  <course>210.32</course>
  <speed>0.30463092423455634</speed>
  <fix>3d</fix>
</trkpt>
<trkpt lat="-27.215759" lon="151.4418784">
  <ele>526.15</ele>
  <time>2026-09-01T20:00:59Z</time>
  <course>158.0</course>
  <speed>0.38</speed>
  <fix>3d</fix>
</trkpt>
<trkpt lat="-27.2157601" lon="151.441879">
  <ele>525.54</ele>
  <time>2026-09-01T20:00:59Z</time>
  <course>210.32</course>
  <speed>0.2863564212655271</speed>
  <fix>3d</fix>
</trkpt>
<trkpt lat="-27.2157596" lon="151.4418787">
  <ele>525.85</ele>
  <time>2026-09-01T20:00:59Z</time>
  <course>156.67</course>
  <speed>0.34</speed>
  <fix>3d</fix>
</trkpt>
<trkpt lat="-27.2157604" lon="151.4418792">
  <ele>525.39</ele>
  <time>2026-09-01T20:00:59Z</time>
  <course>210.31</course>
  <speed>0.2640075756488817</speed>
  <fix>3d</fix>
</trkpt>
<trkpt lat="-27.2157596" lon="151.4418787">
  <ele>525.85</ele>
  <time>2026-09-01T20:00:59Z</time>
  <course>156.67</course>
  <speed>0.34</speed>
  <fix>3d</fix>
</trkpt>
<trkpt lat="-27.2157606" lon="151.4418792">
  <ele>525.24</ele>
  <time>2026-09-01T20:00:59Z</time>
  <course>210.31</course>
  <speed>0.23259406699226015</speed>
  <fix>3d</fix>
</trkpt>
<trkpt lat="-27.2157601" lon="151.441879">
  <ele>525.55</ele>
  <time>2026-09-01T20:00:59Z</time>
  <course>155.49</course>
  <speed>0.29</speed>
  <fix>3d</fix>
</trkpt>
<trkpt lat="-27.2157608" lon="151.4418794">
  <ele>525.09</ele>
  <time>2026-09-01T20:00:59Z</time>
  <course>210.31</course>
  <speed>0.2102379604162864</speed>
  <fix>3d</fix>
</trkpt>
<trkpt lat="-27.2157601" lon="151.441879">
  <ele>525.55</ele>
  <time>2026-09-01T20:00:59Z</time>
  <course>155.49</course>
  <speed>0.29</speed>
  <fix>3d</fix>
</trkpt>
<trkpt lat="-27.2157609" lon="151.4418795">
  <ele>524.94</ele>
  <time>2026-09-01T20:00:59Z</time>
  <course>210.31</course>
  <speed>0.18788294228055935</speed>
  <fix>3d</fix>
</trkpt>
<trkpt lat="-27.2157605" lon="151.4418792">
  <ele>525.25</ele>
  <time>2026-09-01T20:00:59Z</time>
  <course>154.55</course>
  <speed>0.24</speed>
  <fix>3d</fix>
</trkpt>
<trkpt lat="-27.2157611" lon="151.4418795">
  <ele>524.79</ele>
  <time>2026-09-01T20:00:59Z</time>
  <course>210.3</course>
  <speed>0.16552945357246848</speed>
  <fix>3d</fix>
</trkpt>
<trkpt lat="-27.2157605" lon="151.4418792">
  <ele>525.25</ele>
  <time>2026-09-01T20:00:59Z</time>
  <course>154.55</course>
  <speed>0.24</speed>
  <fix>3d</fix>
</trkpt>
<trkpt lat="-27.2157612" lon="151.4418796">
  <ele>524.64</ele>
  <time>2026-09-01T20:00:59Z</time>
  <course>210.29</course>
  <speed>0.14317821063276354</speed>
  <fix>3d</fix>
</trkpt>
<trkpt lat="-27.2157609" lon="151.4418794">
  <ele>524.94</ele>
  <time>2026-09-01T20:00:59Z</time>
  <course>153.75</course>
  <speed>0.19</speed>
  <fix>3d</fix>
</trkpt>
<trkpt lat="-27.2157613" lon="151.4418796">
  <ele>524.49</ele>
  <time>2026-09-01T20:00:59Z</time>
  <course>210.27</course>
  <speed>0.12083045973594572</speed>
  <fix>3d</fix>
</trkpt>
<trkpt lat="-27.2157609" lon="151.4418794">
  <ele>524.94</ele>
  <time>2026-09-01T20:00:59Z</time>
  <course>153.75</course>
  <speed>0.19</speed>
  <fix>3d</fix>
</trkpt>
<trkpt lat="-27.2157614" lon="151.4418796">
  <ele>524.34</ele>
  <time>2026-09-01T20:00:59Z</time>
  <course>210.25</course>
  <speed>0.08944271909999159</speed>
  <fix>3d</fix>
</trkpt>
<trkpt lat="-27.2157612" lon="151.4418796">
  <ele>524.65</ele>
  <time>2026-09-01T20:00:59Z</time>
  <course>153.16</course>
  <speed>0.14</speed>
  <fix>3d</fix>
</trkpt>
<trkpt lat="-27.2157615" lon="151.4418797">
  <ele>524.19</ele>
  <time>2026-09-01T20:00:59Z</time>
  <course>210.21</course>
  <speed>0.07615773105863909</speed>
  <fix>3d</fix>
</trkpt>
<trkpt lat="-27.2157612" lon="151.4418796">
  <ele>524.65</ele>
  <time>2026-09-01T20:00:59Z</time>
  <course>153.16</course>
  <speed>0.14</speed>
  <fix>3d</fix>
</trkpt>
<trkpt lat="-27.2157615" lon="151.4418797">
  <ele>524.04</ele>
  <time>2026-09-01T20:00:59Z</time>
  <course>210.17</course>
  <speed>0.053851648071345036</speed>
  <fix>3d</fix>
</trkpt>
<trkpt lat="-27.2157614" lon="151.4418797">
  <ele>524.35</ele>
  <time>2026-09-01T20:00:59Z</time>
  <course>153.27</course>
  <speed>0.1</speed>
  <fix>3d</fix>
</trkpt>
<trkpt lat="-27.2157616" lon="151.4418797">
  <ele>523.89</ele>
  <time>2026-09-01T20:00:59Z</time>
  <course>210.11</course>
  <speed>0.03</speed>
  <fix>3d</fix>
</trkpt>
<trkpt lat="-27.2157614" lon="151.4418797">
  <ele>524.35</ele>
  <time>2026-09-01T20:00:59Z</time>
  <course>153.27</course>
  <speed>0.1</speed>
  <fix>3d</fix>
</trkpt>
<trkpt lat="-27.2157616" lon="151.4418797">
  <ele>523.74</ele>
  <time>2026-09-01T20:00:59Z</time>
  <course>209.98</course>
  <speed>0.01</speed>
  <fix>3d</fix>
</trkpt>
<trkpt lat="-27.2157615" lon="151.4418797">
  <ele>524.05</ele>
  <time>2026-09-01T20:00:59Z</time>
  <course>156.53</course>
  <speed>0.05</speed>
  <fix>3d</fix>
</trkpt>
<trkpt lat="-27.2157616" lon="151.4418797">
  <ele>523.59</ele>
  <time>2026-09-01T20:00:59Z</time>
  <course>210.04</course>
  <speed>0.0</speed>
  <fix>3d</fix>
</trkpt>
<trkpt lat="-27.2157615" lon="151.4418797">
  <ele>524.05</ele>
  <time>2026-09-01T20:00:59Z</time>
  <course>156.53</course>
  <speed>0.05</speed>
  <fix>3d</fix>
</trkpt>
<trkpt lat="-27.2157616" lon="151.4418797">
  <ele>523.44</ele>
  <time>2026-09-01T20:00:59Z</time>
  <course>210.33</course>
  <speed>0.0</speed>
  <fix>3d</fix>
</trkpt>
<trkpt lat="-27.2157616" lon="151.4418797">
  <ele>523.75</ele>
  <time>2026-09-01T20:00:59Z</time>
  <course>167.97</course>
  <speed>0.01</speed>
  <fix>3d</fix>
</trkpt>
<trkpt lat="-27.2157616" lon="151.4418797">
  <ele>523.29</ele>
  <time>2026-09-01T20:00:59Z</time>
  <course>210.76</course>
  <speed>0.0</speed>
  <fix>3d</fix>
</trkpt>
<trkpt lat="-27.2157616" lon="151.4418797">
  <ele>523.75</ele>
  <time>2026-09-01T20:00:59Z</time>
  <course>167.97</course>
  <speed>0.01</speed>
  <fix>3d</fix>
</trkpt>
<trkpt lat="-27.2157616" lon="151.4418797">
  <ele>523.14</ele>
  <time>2026-09-01T20:00:59Z</time>
  <course>211.24</course>
  <speed>0.01</speed>
  <fix>3d</fix>
</trkpt>
<trkpt lat="-27.2157616" lon="151.4418797">
  <ele>523.44</ele>
  <time>2026-09-01T20:00:59Z</time>
  <course>37.19</course>
  <speed>0.0</speed>
  <fix>3d</fix>
</trkpt>
<trkpt lat="-27.2157615" lon="151.4418797">
  <ele>522.99</ele>
  <time>2026-09-01T20:00:59Z</time>
  <course>211.7</course>
  <speed>0.01414213562373095</speed>
  <fix>3d</fix>
</trkpt>
<trkpt lat="-27.2157616" lon="151.4418797">
  <ele>523.44</ele>
  <time>2026-09-01T20:00:59Z</time>
  <course>37.19</course>
  <speed>0.0</speed>
  <fix>3d</fix>
</trkpt>
<trkpt lat="-27.2157615" lon="151.4418799">
  <ele>522.84</ele>
  <time>2026-09-01T20:00:59Z</time>
  <course>212.07</course>
  <speed>0.022360679774997897</speed>
  <fix>3d</fix>
</trkpt>
<trkpt lat="-27.2157615" lon="151.4418797">
  <ele>523.15</ele>
  <time>2026-09-01T20:00:59Z</time>
  <course>34.28</course>
  <speed>0.01</speed>
  <fix>3d</fix>
</trkpt>
<trkpt lat="-27.2157615" lon="151.4418799">
  <ele>522.69</ele>
  <time>2026-09-01T20:00:59Z</time>
  <course>212.34</course>
  <speed>0.0282842712474619</speed>
  <fix>3d</fix>
</trkpt>
<trkpt lat="-27.2157615" lon="151.4418797">
  <ele>523.15</ele>
  <time>2026-09-01T20:00:59Z</time>
  <course>34.28</course>
  <speed>0.01</speed>
  <fix>3d</fix>
</trkpt>
<trkpt lat="-27.2157615" lon="151.4418799">
  <ele>522.54</ele>
  <time>2026-09-01T20:00:59Z</time>
  <course>212.5</course>
  <speed>0.03605551275463989</speed>
  <fix>3d</fix>
</trkpt>
<trkpt lat="-27.2157615" lon="151.4418798">
  <ele>522.84</ele>
  <time>2026-09-01T20:00:59Z</time>
  <course>37.31</course>
  <speed>0.02</speed>
  <fix>3d</fix>
</trkpt>
<trkpt lat="-27.2157615" lon="151.4418799">
  <ele>522.39</ele>
  <time>2026-09-01T20:00:59Z</time>
  <course>212.56</course>
  <speed>0.03605551275463989</speed>
  <fix>3d</fix>
</trkpt>
<trkpt lat="-27.2157615" lon="151.4418798">
  <ele>522.84</ele>
  <time>2026-09-01T20:00:59Z</time>
  <course>37.31</course>
  <speed>0.02</speed>
  <fix>3d</fix>
</trkpt>
<trkpt lat="-27.2157615" lon="151.44188">
  <ele>522.24</ele>
  <time>2026-09-01T20:00:59Z</time>
  <course>212.55</course>
  <speed>0.03605551275463989</speed>
  <fix>3d</fix>
</trkpt>
<trkpt lat="-27.2157615" lon="151.4418799">
  <ele>522.55</ele>
  <time>2026-09-01T20:00:59Z</time>
  <course>39.26</course>
  <speed>0.03</speed>
  <fix>3d</fix>
</trkpt>
<trkpt lat="-27.2157615" lon="151.44188">
  <ele>522.09</ele>
  <time>2026-09-01T20:00:59Z</time>
  <course>212.49</course>
  <speed>0.04242640687119285</speed>
  <fix>3d</fix>
</trkpt>
<trkpt lat="-27.2157615" lon="151.4418799">
  <ele>522.55</ele>
  <time>2026-09-01T20:00:59Z</time>
  <course>39.26</course>
  <speed>0.03</speed>
  <fix>3d</fix>
</trkpt>
<trkpt lat="-27.2157615" lon="151.44188">
  <ele>521.94</ele>
  <time>2026-09-01T20:00:59Z</time>
  <course>212.4</course>
  <speed>0.04242640687119285</speed>
  <fix>3d</fix>
</trkpt>
<trkpt lat="-27.2157615" lon="151.4418799">
  <ele>522.25</ele>
  <time>2026-09-01T20:00:59Z</time>
  <course>39.91</course>
  <speed>0.04</speed>
  <fix>3d</fix>
</trkpt>
<trkpt lat="-27.2157614" lon="151.4418801">
  <ele>521.79</ele>
  <time>2026-09-01T20:00:59Z</time>
  <course>212.3</course>
  <speed>0.05</speed>
  <fix>3d</fix>
</trkpt>
<trkpt lat="-27.2157615" lon="151.4418799">
  <ele>522.25</ele>
  <time>2026-09-01T20:00:59Z</time>
  <course>39.91</course>
  <speed>0.04</speed>
  <fix>3d</fix>
</trkpt>
<trkpt lat="-27.2157614" lon="151.4418801">
  <ele>521.64</ele>
  <time>2026-09-01T20:00:59Z</time>
  <course>212.22</course>
  <speed>0.05</speed>
  <fix>3d</fix>
</trkpt>
<trkpt lat="-27.2157614" lon="151.44188">
  <ele>521.94</ele>
  <time>2026-09-01T20:00:59Z</time>
  <course>39.85</course>
  <speed>0.05</speed>
  <fix>3d</fix>
</trkpt>
<trkpt lat="-27.2157613" lon="151.4418801">
  <ele>521.49</ele>
  <time>2026-09-01T20:00:59Z</time>
  <course>212.16</course>
  <speed>0.05</speed>
  <fix>3d</fix>
</trkpt>
<trkpt lat="-27.2157614" lon="151.44188">
  <ele>521.94</ele>
  <time>2026-09-01T20:00:59Z</time>
  <course>39.85</course>
  <speed>0.05</speed>
  <fix>3d</fix>
</trkpt>
<trkpt lat="-27.2157613" lon="151.4418801">
  <ele>521.34</ele>
  <time>2026-09-01T20:00:59Z</time>
  <course>212.13</course>
  <speed>0.05</speed>
  <fix>3d</fix>
</trkpt>
<trkpt lat="-27.2157613" lon="151.44188">
  <ele>521.65</ele>
  <time>2026-09-01T20:00:59Z</time>
  <course>40.07</course>
  <speed>0.05</speed>
  <fix>3d</fix>
</trkpt>
<trkpt lat="-27.2157613" lon="151.4418801">
  <ele>521.19</ele>
  <time>2026-09-01T20:00:59Z</time>
  <course>212.13</course>
  <speed>0.05</speed>
  <fix>3d</fix>
</trkpt>
<trkpt lat="-27.2157613" lon="151.44188">
  <ele>521.65</ele>
  <time>2026-09-01T20:00:59Z</time>
  <course>40.07</course>
  <speed>0.05</speed>
  <fix>3d</fix>
</trkpt>
<trkpt lat="-27.2157612" lon="151.4418801">
  <ele>521.04</ele>
  <time>2026-09-01T20:00:59Z</time>
  <course>212.14</course>
  <speed>0.05</speed>
  <fix>3d</fix>
</trkpt>
<trkpt lat="-27.2157613" lon="151.4418801">
  <ele>521.34</ele>
  <time>2026-09-01T20:00:59Z</time>
  <course>39.84</course>
  <speed>0.05</speed>
  <fix>3d</fix>
</trkpt>
<trkpt lat="-27.2157612" lon="151.4418802">
  <ele>520.89</ele>
  <time>2026-09-01T20:00:59Z</time>
  <course>212.16</course>
  <speed>0.05</speed>
  <fix>3d</fix>
</trkpt>
<trkpt lat="-27.2157613" lon="151.4418801">
  <ele>521.34</ele>
  <time>2026-09-01T20:00:59Z</time>
  <course>39.84</course>
  <speed>0.05</speed>
  <fix>3d</fix>
</trkpt>
<trkpt lat="-27.2157611" lon="151.4418802">
  <ele>520.74</ele>
  <time>2026-09-01T20:00:59Z</time>
  <course>212.2</course>
  <speed>0.0565685424949238</speed>
  <fix>3d</fix>
</trkpt>
<trkpt lat="-27.2157612" lon="151.4418802">
  <ele>521.05</ele>
  <time>2026-09-01T20:00:59Z</time>
  <course>39.66</course>
  <speed>0.06</speed>
  <fix>3d</fix>
</trkpt>
<trkpt lat="-27.2157611" lon="151.4418804">
  <ele>520.59</ele>
  <time>2026-09-01T20:00:59Z</time>
  <course>212.25</course>
  <speed>0.0565685424949238</speed>
  <fix>3d</fix>
</trkpt>
<trkpt lat="-27.2157612" lon="151.4418802">
  <ele>521.05</ele>
  <time>2026-09-01T20:00:59Z</time>
  <course>39.66</course>
  <speed>0.06</speed>
  <fix>3d</fix>
</trkpt>
<trkpt lat="-27.215761" lon="151.4418804">
  <ele>520.44</ele>
  <time>2026-09-01T20:00:59Z</time>
  <course>212.3</course>
  <speed>0.0565685424949238</speed>
  <fix>3d</fix>
</trkpt>
<trkpt lat="-27.2157611" lon="151.4418803">
  <ele>520.74</ele>
  <time>2026-09-01T20:00:59Z</time>
  <course>40.19</course>
  <speed>0.06</speed>
  <fix>3d</fix>
</trkpt>
<trkpt lat="-27.215761" lon="151.4418804">
  <ele>520.28</ele>
  <time>2026-09-01T20:00:59Z</time>
  <course>212.36</course>
  <speed>0.0565685424949238</speed>
  <fix>3d</fix>
</trkpt>
<trkpt lat="-27.2157611" lon="151.4418803">
  <ele>520.74</ele>
  <time>2026-09-01T20:00:59Z</time>
  <course>40.19</course>
  <speed>0.06</speed>
  <fix>3d</fix>
</trkpt>
<trkpt lat="-27.215761" lon="151.4418805">
  <ele>520.13</ele>
  <time>2026-09-01T20:00:59Z</time>
  <course>212.42</course>
  <speed>0.0565685424949238</speed>
  <fix>3d</fix>
</trkpt>
<trkpt lat="-27.215761" lon="151.4418804">
  <ele>520.44</ele>
  <time>2026-09-01T20:00:59Z</time>
  <course>41.83</course>
  <speed>0.06</speed>
  <fix>3d</fix>
</trkpt>
<trkpt lat="-27.2157609" lon="151.4418805">
  <ele>519.98</ele>
  <time>2026-09-01T20:00:59Z</time>
  <course>212.49</course>
  <speed>0.0565685424949238</speed>
  <fix>3d</fix>
</trkpt>
<trkpt lat="-27.215761" lon="151.4418804">
  <ele>520.44</ele>
  <time>2026-09-01T20:00:59Z</time>
  <course>41.83</course>
  <speed>0.06</speed>
  <fix>3d</fix>
</trkpt>
<trkpt lat="-27.2157609" lon="151.4418806">
  <ele>519.83</ele>
  <time>2026-09-01T20:00:59Z</time>
  <course>212.54</course>
  <speed>0.0565685424949238</speed>
  <fix>3d</fix>
</trkpt>
<trkpt lat="-27.2157609" lon="151.4418804">
  <ele>520.14</ele>
  <time>2026-09-01T20:00:59Z</time>
  <course>43.94</course>
  <speed>0.06</speed>
  <fix>3d</fix>
</trkpt>
<trkpt lat="-27.2157609" lon="151.4418806">
  <ele>519.68</ele>
  <time>2026-09-01T20:00:59Z</time>
  <course>212.57</course>
  <speed>0.05</speed>
  <fix>3d</fix>
</trkpt>
<trkpt lat="-27.2157609" lon="151.4418804">
  <ele>520.14</ele>
  <time>2026-09-01T20:00:59Z</time>
  <course>43.94</course>
  <speed>0.06</speed>
  <fix>3d</fix>
</trkpt>
<trkpt lat="-27.2157608" lon="151.4418806">
  <ele>519.53</ele>
  <time>2026-09-01T20:00:59Z</time>
  <course>212.58</course>
  <speed>0.05</speed>
  <fix>3d</fix>
</trkpt>
<trkpt lat="-27.2157609" lon="151.4418805">
  <ele>519.83</ele>
  <time>2026-09-01T20:00:59Z</time>
  <course>45.63</course>
  <speed>0.05</speed>
  <fix>3d</fix>
</trkpt>
<trkpt lat="-27.2157608" lon="151.4418806">
  <ele>519.38</ele>
  <time>2026-09-01T20:00:59Z</time>
  <course>212.57</course>
  <speed>0.04242640687119285</speed>
  <fix>3d</fix>
</trkpt>
<trkpt lat="-27.2157609" lon="151.4418805">
  <ele>519.83</ele>
  <time>2026-09-01T20:00:59Z</time>
  <course>45.63</course>
  <speed>0.05</speed>
  <fix>3d</fix>
</trkpt>
<trkpt lat="-27.2157608" lon="151.4418806">
  <ele>519.23</ele>
  <time>2026-09-01T20:00:59Z</time>
  <course>212.56</course>
  <speed>0.04242640687119285</speed>
  <fix>3d</fix>
</trkpt>
<trkpt lat="-27.2157608" lon="151.4418806">
  <ele>519.54</ele>
  <time>2026-09-01T20:00:59Z</time>
  <course>46.92</course>
  <speed>0.05</speed>
  <fix>3d</fix>
</trkpt>
<trkpt lat="-27.2157607" lon="151.4418808">
  <ele>519.08</ele>
  <time>2026-09-01T20:00:59Z</time>
  <course>212.55</course>
  <speed>0.04242640687119285</speed>
  <fix>3d</fix>
</trkpt>
<trkpt lat="-27.2157608" lon="151.4418806">
  <ele>519.54</ele>
  <time>2026-09-01T20:00:59Z</time>
  <course>46.92</course>
  <speed>0.05</speed>
  <fix>3d</fix>
</trkpt>
<trkpt lat="-27.2157607" lon="151.4418808">
  <ele>518.93</ele>
  <time>2026-09-01T20:00:59Z</time>
  <course>212.55</course>
  <speed>0.04242640687119285</speed>
  <fix>3d</fix>
</trkpt>
<trkpt lat="-27.2157607" lon="151.4418807">
  <ele>519.24</ele>
  <time>2026-09-01T20:00:59Z</time>
  <course>48.4</course>
  <speed>0.05</speed>
  <fix>3d</fix>
</trkpt>
<trkpt lat="-27.2157607" lon="151.4418809">
  <ele>518.78</ele>
  <time>2026-09-01T20:00:59Z</time>
  <course>212.56</course>
  <speed>0.03605551275463989</speed>
  <fix>3d</fix>
</trkpt>
<trkpt lat="-27.2157607" lon="151.4418807">
  <ele>519.24</ele>
  <time>2026-09-01T20:00:59Z</time>
  <course>48.4</course>
  <speed>0.05</speed>
  <fix>3d</fix>
</trkpt>
<trkpt lat="-27.2157606" lon="151.4418809">
  <ele>518.63</ele>
  <time>2026-09-01T20:00:59Z</time>
  <course>212.58</course>
  <speed>0.03605551275463989</speed>
  <fix>3d</fix>
</trkpt>
<trkpt lat="-27.2157607" lon="151.4418808">
  <ele>518.94</ele>
  <time>2026-09-01T20:00:59Z</time>
  <course>50.82</course>
  <speed>0.04</speed>
  <fix>3d</fix>
</trkpt>
<trkpt lat="-27.2157606" lon="151.4418809">
  <ele>518.48</ele>
  <time>2026-09-01T20:00:59Z</time>
  <course>212.61</course>
  <speed>0.03605551275463989</speed>
  <fix>3d</fix>
</trkpt>
<trkpt lat="-27.2157607" lon="151.4418808">
  <ele>518.94</ele>
  <time>2026-09-01T20:00:59Z</time>
  <course>50.82</course>
  <speed>0.04</speed>
  <fix>3d</fix>
</trkpt>
<trkpt lat="-27.2157606" lon="151.441881">
  <ele>518.33</ele>
  <time>2026-09-01T20:00:59Z</time>
  <course>212.64</course>
  <speed>0.03605551275463989</speed>
  <fix>3d</fix>
</trkpt>
<trkpt lat="-27.2157606" lon="151.4418808">
  <ele>518.64</ele>
  <time>2026-09-01T20:00:59Z</time>
  <course>53.82</course>
  <speed>0.04</speed>
  <fix>3d</fix>
</trkpt>
<trkpt lat="-27.2157606" lon="151.441881">
  <ele>518.18</ele>
  <time>2026-09-01T20:00:59Z</time>
  <course>212.68</course>
  <speed>0.03605551275463989</speed>
  <fix>3d</fix>
</trkpt>
<trkpt lat="-27.2157606" lon="151.4418808">
  <ele>518.64</ele>
  <time>2026-09-01T20:00:59Z</time>
  <course>53.82</course>
  <speed>0.04</speed>
  <fix>3d</fix>
</trkpt>
<trkpt lat="-27.2157606" lon="151.441881">
  <ele>518.03</ele>
  <time>2026-09-01T20:00:59Z</time>
  <course>212.73</course>
  <speed>0.0316227766016838</speed>
  <fix>3d</fix>
</trkpt>
<trkpt lat="-27.2157606" lon="151.4418809">
  <ele>518.33</ele>
  <time>2026-09-01T20:00:59Z</time>
  <course>57.56</course>
  <speed>0.04</speed>
  <fix>3d</fix>
</trkpt>
<trkpt lat="-27.2157605" lon="151.4418811">
  <ele>517.88</ele>
  <time>2026-09-01T20:00:59Z</time>
  <course>212.78</course>
  <speed>0.0316227766016838</speed>
  <fix>3d</fix>
</trkpt>
<trkpt lat="-27.2157606" lon="151.4418809">
  <ele>518.33</ele>
  <time>2026-09-01T20:00:59Z</time>
  <course>57.56</course>
  <speed>0.04</speed>
  <fix>3d</fix>
</trkpt>
<trkpt lat="-27.2157605" lon="151.4418811">
  <ele>517.73</ele>
  <time>2026-09-01T20:00:59Z</time>
  <course>212.82</course>
  <speed>0.0316227766016838</speed>
  <fix>3d</fix>
</trkpt>
<trkpt lat="-27.2157605" lon="151.441881">
  <ele>518.04</ele>
  <time>2026-09-01T20:00:59Z</time>
  <course>61.84</course>
  <speed>0.03</speed>
  <fix>3d</fix>
</trkpt>
<trkpt lat="-27.2157605" lon="151.4418811">
  <ele>517.58</ele>
  <time>2026-09-01T20:00:59Z</time>
  <course>212.85</course>
  <speed>0.0316227766016838</speed>
  <fix>3d</fix>
</trkpt>
<trkpt lat="-27.2157605" lon="151.441881">
  <ele>518.04</ele>
  <time>2026-09-01T20:00:59Z</time>
  <course>61.84</course>
  <speed>0.03</speed>
  <fix>3d</fix>
</trkpt>
<trkpt lat="-27.2157605" lon="151.4418811">
  <ele>517.43</ele>
  <time>2026-09-01T20:00:59Z</time>
  <course>212.88</course>
  <speed>0.03</speed>
  <fix>3d</fix>
</trkpt>
<trkpt lat="-27.2157605" lon="151.4418811">
  <ele>517.74</ele>
  <time>2026-09-01T20:00:59Z</time>
  <course>66.91</course>
  <speed>0.03</speed>
  <fix>3d</fix>
</trkpt>
<trkpt lat="-27.2157605" lon="151.4418811">
  <ele>517.28</ele>
  <time>2026-09-01T20:00:59Z</time>
  <course>212.89</course>
  <speed>0.03</speed>
  <fix>3d</fix>
</trkpt>
<trkpt lat="-27.2157605" lon="151.4418811">
  <ele>517.74</ele>
  <time>2026-09-01T20:00:59Z</time>
  <course>66.91</course>
  <speed>0.03</speed>
  <fix>3d</fix>
</trkpt>
<trkpt lat="-27.2157605" lon="151.4418811">
  <ele>517.13</ele>
  <time>2026-09-01T20:00:59Z</time>
  <course>212.89</course>
  <speed>0.02</speed>
  <fix>3d</fix>
</trkpt>
<trkpt lat="-27.2157605" lon="151.4418811">
  <ele>517.44</ele>
  <time>2026-09-01T20:00:59Z</time>
  <course>72.93</course>
  <speed>0.03</speed>
  <fix>3d</fix>
</trkpt>
<trkpt lat="-27.2157605" lon="151.4418813">
  <ele>516.98</ele>
  <time>2026-09-01T20:00:59Z</time>
  <course>212.89</course>
  <speed>0.02</speed>
  <fix>3d</fix>
</trkpt>
<trkpt lat="-27.2157605" lon="151.4418811">
  <ele>517.44</ele>
  <time>2026-09-01T20:00:59Z</time>
  <course>72.93</course>
  <speed>0.03</speed>
  <fix>3d</fix>
</trkpt>
<trkpt lat="-27.2157605" lon="151.4418813">
  <ele>516.83</ele>
  <time>2026-09-01T20:00:59Z</time>
  <course>212.9</course>
  <speed>0.02</speed>
  <fix>3d</fix>
</trkpt>
<trkpt lat="-27.2157605" lon="151.4418812">
  <ele>517.14</ele>
  <time>2026-09-01T20:00:59Z</time>
  <course>79.16</course>
  <speed>0.03</speed>
  <fix>3d</fix>
</trkpt>
<trkpt lat="-27.2157605" lon="151.4418813">
  <ele>516.68</ele>
  <time>2026-09-01T20:00:59Z</time>
  <course>212.94</course>
  <speed>0.02</speed>
  <fix>3d</fix>
</trkpt>
<trkpt lat="-27.2157605" lon="151.4418812">
  <ele>517.14</ele>
  <time>2026-09-01T20:00:59Z</time>
  <course>79.16</course>
  <speed>0.03</speed>
  <fix>3d</fix>
</trkpt>
<trkpt lat="-27.2157605" lon="151.4418813">
  <ele>516.53</ele>
  <time>2026-09-01T20:00:59Z</time>
  <course>213.0</course>
  <speed>0.02</speed>
  <fix>3d</fix>
</trkpt>
<trkpt lat="-27.2157605" lon="151.4418813">
  <ele>516.83</ele>
  <time>2026-09-01T20:00:59Z</time>
  <course>87.38</course>
  <speed>0.02</speed>
  <fix>3d</fix>
</trkpt>
<trkpt lat="-27.2157605" lon="151.4418814">
  <ele>516.38</ele>
  <time>2026-09-01T20:00:59Z</time>
  <course>213.06</course>
  <speed>0.02</speed>
  <fix>3d</fix>
</trkpt>
<trkpt lat="-27.2157605" lon="151.4418813">
  <ele>516.83</ele>
  <time>2026-09-01T20:00:59Z</time>
  <course>87.38</course>
  <speed>0.02</speed>
  <fix>3d</fix>
</trkpt>
<trkpt lat="-27.2157605" lon="151.4418814">
  <ele>516.23</ele>
  <time>2026-09-01T20:00:59Z</time>
  <course>213.12</course>
  <speed>0.02</speed>
  <fix>3d</fix>
</trkpt>
<trkpt lat="-27.2157605" lon="151.4418813">
  <ele>516.54</ele>
  <time>2026-09-01T20:00:59Z</time>
  <course>96.86</course>
  <speed>0.02</speed>
  <fix>3d</fix>
</trkpt>
<trkpt lat="-27.2157605" lon="151.4418814">
  <ele>516.08</ele>
  <time>2026-09-01T20:00:59Z</time>
  <course>213.17</course>
  <speed>0.022360679774997897</speed>
  <fix>3d</fix>
</trkpt>
<trkpt lat="-27.2157605" lon="151.4418813">
  <ele>516.54</ele>
  <time>2026-09-01T20:00:59Z</time>
  <course>96.86</course>
  <speed>0.02</speed>
  <fix>3d</fix>
</trkpt>
<trkpt lat="-27.2157605" lon="151.4418815">
  <ele>515.93</ele>
  <time>2026-09-01T20:00:59Z</time>
  <course>213.22</course>
  <speed>0.022360679774997897</speed>
  <fix>3d</fix>
</trkpt>
<trkpt lat="-27.2157605" lon="151.4418814">
  <ele>516.24</ele>
  <time>2026-09-01T20:00:59Z</time>
  <course>106.28</course>
  <speed>0.02</speed>
  <fix>3d</fix>
</trkpt>
<trkpt lat="-27.2157605" lon="151.4418815">
  <ele>515.78</ele>
  <time>2026-09-01T20:00:59Z</time>
  <course>213.26</course>
  <speed>0.022360679774997897</speed>
  <fix>3d</fix>
</trkpt>
<trkpt lat="-27.2157605" lon="151.4418814">
  <ele>516.24</ele>
  <time>2026-09-01T20:00:59Z</time>
  <course>106.28</course>
  <speed>0.02</speed>
  <fix>3d</fix>
</trkpt>
<trkpt lat="-27.2157605" lon="151.4418815">
  <ele>515.63</ele>
  <time>2026-09-01T20:00:59Z</time>
  <course>213.3</course>
  <speed>0.022360679774997897</speed>
  <fix>3d</fix>
</trkpt>
<trkpt lat="-27.2157605" lon="151.4418814">
  <ele>515.94</ele>
  <time>2026-09-01T20:00:59Z</time>
  <course>115.77</course>
  <speed>0.02</speed>
  <fix>3d</fix>
</trkpt>
<trkpt lat="-27.2157605" lon="151.4418815">
  <ele>515.48</ele>
  <time>2026-09-01T20:00:59Z</time>
  <course>213.33</course>
  <speed>0.022360679774997897</speed>
  <fix>3d</fix>
</trkpt>
<trkpt lat="-27.2157605" lon="151.4418814">
  <ele>515.94</ele>
  <time>2026-09-01T20:00:59Z</time>
  <course>115.77</course>
  <speed>0.02</speed>
  <fix>3d</fix>
</trkpt>
<trkpt lat="-27.2157605" lon="151.4418815">
  <ele>515.33</ele>
  <time>2026-09-01T20:00:59Z</time>
  <course>213.35</course>
  <speed>0.0282842712474619</speed>
  <fix>3d</fix>
</trkpt>
<trkpt lat="-27.2157605" lon="151.4418815">
  <ele>515.64</ele>
  <time>2026-09-01T20:00:59Z</time>
  <course>124.04</course>
  <speed>0.03</speed>
  <fix>3d</fix>
</trkpt>
<trkpt lat="-27.2157605" lon="151.4418815">
  <ele>515.18</ele>
  <time>2026-09-01T20:00:59Z</time>
  <course>213.38</course>
  <speed>0.0282842712474619</speed>
  <fix>3d</fix>
</trkpt>
<trkpt lat="-27.2157605" lon="151.4418815">
  <ele>515.64</ele>
  <time>2026-09-01T20:00:59Z</time>
  <course>124.04</course>
  <speed>0.03</speed>
  <fix>3d</fix>
</trkpt>
<trkpt lat="-27.2157605" lon="151.4418815">
  <ele>515.03</ele>
  <time>2026-09-01T20:00:59Z</time>
  <course>213.4</course>
  <speed>0.0282842712474619</speed>
  <fix>3d</fix>
</trkpt>
<trkpt lat="-27.2157605" lon="151.4418815">
  <ele>515.33</ele>
  <time>2026-09-01T20:00:59Z</time>
  <course>131.01</course>
  <speed>0.03</speed>
  <fix>3d</fix>
</trkpt>
<trkpt lat="-27.2157605" lon="151.4418815">
  <ele>514.88</ele>
  <time>2026-09-01T20:00:59Z</time>
  <course>213.35</course>
  <speed>0.022360679774997897</speed>
  <fix>3d</fix>
</trkpt>
<trkpt lat="-27.2157605" lon="151.4418815">
  <ele>515.33</ele>
  <time>2026-09-01T20:00:59Z</time>
  <course>131.01</course>
  <speed>0.03</speed>
  <fix>3d</fix>
</trkpt>
<trkpt lat="-27.2157606" lon="151.4418815">
  <ele>514.73</ele>
  <time>2026-09-01T20:00:59Z</time>
  <course>213.22</course>
  <speed>0.022360679774997897</speed>
  <fix>3d</fix>
</trkpt>
<trkpt lat="-27.2157605" lon="151.4418815">
  <ele>515.04</ele>
  <time>2026-09-01T20:00:59Z</time>
  <course>138.36</course>
  <speed>0.03</speed>
  <fix>3d</fix>
</trkpt>
<trkpt lat="-27.2157606" lon="151.4418816">
  <ele>514.58</ele>
  <time>2026-09-01T20:00:59Z</time>
  <course>213.06</course>
  <speed>0.01</speed>
  <fix>3d</fix>
</trkpt>
<trkpt lat="-27.2157605" lon="151.4418815">
  <ele>515.04</ele>
  <time>2026-09-01T20:00:59Z</time>
  <course>138.36</course>
  <speed>0.03</speed>
  <fix>3d</fix>
</trkpt>
<trkpt lat="-27.2157606" lon="151.4418816">
  <ele>514.43</ele>
  <time>2026-09-01T20:00:59Z</time>
  <course>212.91</course>
  <speed>0.01</speed>
  <fix>3d</fix>
</trkpt>
<trkpt lat="-27.2157605" lon="151.4418816">
  <ele>514.74</ele>
  <time>2026-09-01T20:00:59Z</time>
  <course>151.65</course>
  <speed>0.02</speed>
  <fix>3d</fix>
</trkpt>
<trkpt lat="-27.2157606" lon="151.4418816">
  <ele>514.28</ele>
  <time>2026-09-01T20:00:59Z</time>
  <course>212.78</course>
  <speed>0.01</speed>
  <fix>3d</fix>
</trkpt>
<trkpt lat="-27.2157605" lon="151.4418816">
  <ele>514.74</ele>
  <time>2026-09-01T20:00:59Z</time>
  <course>151.65</course>
  <speed>0.02</speed>
  <fix>3d</fix>
</trkpt>
<trkpt lat="-27.2157606" lon="151.4418815">
  <ele>514.13</ele>
  <time>2026-09-01T20:00:59Z</time>
  <course>212.69</course>
  <speed>0.01414213562373095</speed>
  <fix>3d</fix>
</trkpt>
<trkpt lat="-27.2157606" lon="151.4418816">
  <ele>514.44</ele>
  <time>2026-09-01T20:00:59Z</time>
  <course>179.84</course>
  <speed>0.01</speed>
  <fix>3d</fix>
</trkpt>
<trkpt lat="-27.2157606" lon="151.4418815">
  <ele>513.98</ele>
  <time>2026-09-01T20:00:59Z</time>
  <course>212.64</course>
  <speed>0.01</speed>
  <fix>3d</fix>
</trkpt>
<trkpt lat="-27.2157606" lon="151.4418816">
  <ele>514.44</ele>
  <time>2026-09-01T20:00:59Z</time>
  <course>179.84</course>
  <speed>0.01</speed>
  <fix>3d</fix>
</trkpt>
<trkpt lat="-27.2157606" lon="151.4418815">
  <ele>513.83</ele>
  <time>2026-09-01T20:00:59Z</time>
  <course>212.62</course>
  <speed>0.02</speed>
  <fix>3d</fix>
</trkpt>
<trkpt lat="-27.2157606" lon="151.4418816">
  <ele>514.14</ele>
  <time>2026-09-01T20:00:59Z</time>
  <course>224.15</course>
  <speed>0.01</speed>
  <fix>3d</fix>
</trkpt>
<trkpt lat="-27.2157606" lon="151.4418815">
  <ele>513.68</ele>
  <time>2026-09-01T20:00:59Z</time>
  <course>212.63</course>
  <speed>0.02</speed>
  <fix>3d</fix>
</trkpt>
<trkpt lat="-27.2157606" lon="151.4418816">
  <ele>514.14</ele>
  <time>2026-09-01T20:00:59Z</time>
  <course>224.15</course>
  <speed>0.01</speed>
  <fix>3d</fix>
</trkpt>
<trkpt lat="-27.2157606" lon="151.4418815">
  <ele>513.53</ele>
  <time>2026-09-01T20:00:59Z</time>
  <course>212.65</course>
  <speed>0.02</speed>
  <fix>3d</fix>
</trkpt>
<trkpt lat="-27.2157606" lon="151.4418815">
  <ele>513.83</ele>
  <time>2026-09-01T20:00:59Z</time>
  <course>253.25</course>
  <speed>0.02</speed>
  <fix>3d</fix>
</trkpt>
<trkpt lat="-27.2157606" lon="151.4418815">
  <ele>513.38</ele>
  <time>2026-09-01T20:00:59Z</time>
  <course>212.68</course>
  <speed>0.03</speed>
  <fix>3d</fix>
</trkpt>
<trkpt lat="-27.2157606" lon="151.4418815">
  <ele>513.83</ele>
  <time>2026-09-01T20:00:59Z</time>
  <course>253.25</course>
  <speed>0.02</speed>
  <fix>3d</fix>
</trkpt>
<trkpt lat="-27.2157606" lon="151.4418815">
  <ele>513.23</ele>
  <time>2026-09-01T20:00:59Z</time>
  <course>212.71</course>
  <speed>0.03</speed>
  <fix>3d</fix>
</trkpt>
<trkpt lat="-27.2157606" lon="151.4418815">
  <ele>513.54</ele>
  <time>2026-09-01T20:00:59Z</time>
  <course>267.1</course>
  <speed>0.02</speed>
  <fix>3d</fix>
</trkpt>
<trkpt lat="-27.2157606" lon="151.4418815">
  <ele>513.08</ele>
  <time>2026-09-01T20:00:59Z</time>
  <course>212.73</course>
  <speed>0.04</speed>
  <fix>3d</fix>
</trkpt>
<trkpt lat="-27.2157606" lon="151.4418815">
  <ele>513.54</ele>
  <time>2026-09-01T20:00:59Z</time>
  <course>267.1</course>
  <speed>0.02</speed>
  <fix>3d</fix>
</trkpt>
<trkpt lat="-27.2157606" lon="151.4418815">
  <ele>512.93</ele>
  <time>2026-09-01T20:00:59Z</time>
  <course>212.75</course>
  <speed>0.04</speed>
  <fix>3d</fix>
</trkpt>
<trkpt lat="-27.2157606" lon="151.4418815">
  <ele>513.24</ele>
  <time>2026-09-01T20:00:59Z</time>
  <course>274.82</course>
  <speed>0.03</speed>
  <fix>3d</fix>
</trkpt>
<trkpt lat="-27.2157606" lon="151.4418815">
  <ele>512.78</ele>
  <time>2026-09-01T20:00:59Z</time>
  <course>212.75</course>
  <speed>0.04</speed>
  <fix>3d</fix>
</trkpt>
<trkpt lat="-27.2157606" lon="151.4418815">
  <ele>513.24</ele>
  <time>2026-09-01T20:00:59Z</time>
  <course>274.82</course>
  <speed>0.03</speed>
  <fix>3d</fix>
</trkpt>
<trkpt lat="-27.2157606" lon="151.4418814">
  <ele>512.63</ele>
  <time>2026-09-01T20:00:59Z</time>
  <course>212.74</course>
  <speed>0.05099019513592785</speed>
  <fix>3d</fix>
</trkpt>
<trkpt lat="-27.2157606" lon="151.4418815">
  <ele>512.94</ele>
  <time>2026-09-01T20:00:59Z</time>
  <course>279.61</course>
  <speed>0.04</speed>
  <fix>3d</fix>
</trkpt>
<trkpt lat="-27.2157606" lon="151.4418814">
  <ele>512.48</ele>
  <time>2026-09-01T20:00:59Z</time>
  <course>212.72</course>
  <speed>0.05099019513592785</speed>
  <fix>3d</fix>
</trkpt>
<trkpt lat="-27.2157606" lon="151.4418815">
  <ele>512.94</ele>
  <time>2026-09-01T20:00:59Z</time>
  <course>279.61</course>
  <speed>0.04</speed>
  <fix>3d</fix>
</trkpt>
<trkpt lat="-27.2157606" lon="151.4418813">
  <ele>512.33</ele>
  <time>2026-09-01T20:00:59Z</time>
  <course>212.7</course>
  <speed>0.05099019513592785</speed>
  <fix>3d</fix>
</trkpt>
<trkpt lat="-27.2157606" lon="151.4418814">
  <ele>512.64</ele>
  <time>2026-09-01T20:00:59Z</time>
  <course>282.76</course>
  <speed>0.05</speed>
  <fix>3d</fix>
</trkpt>
<trkpt lat="-27.2157606" lon="151.4418811">
  <ele>512.18</ele>
  <time>2026-09-01T20:00:59Z</time>
  <course>212.69</course>
  <speed>0.06082762530298219</speed>
  <fix>3d</fix>
</trkpt>
<trkpt lat="-27.2157606" lon="151.4418814">
  <ele>512.64</ele>
  <time>2026-09-01T20:00:59Z</time>
  <course>282.76</course>
  <speed>0.05</speed>
  <fix>3d</fix>
</trkpt>
<trkpt lat="-27.2157606" lon="151.4418811">
  <ele>512.03</ele>
  <time>2026-09-01T20:00:59Z</time>
  <course>212.67</course>
  <speed>0.06082762530298219</speed>
  <fix>3d</fix>
</trkpt>
<trkpt lat="-27.2157606" lon="151.4418812">
  <ele>512.33</ele>
  <time>2026-09-01T20:00:59Z</time>
  <course>284.95</course>
  <speed>0.06</speed>
  <fix>3d</fix>
</trkpt>
<trkpt lat="-27.2157606" lon="151.4418811">
  <ele>511.88</ele>
  <time>2026-09-01T20:00:59Z</time>
  <course>212.66</course>
  <speed>0.0632455532033676</speed>
  <fix>3d</fix>
</trkpt>
<trkpt lat="-27.2157606" lon="151.4418812">
  <ele>512.33</ele>
  <time>2026-09-01T20:00:59Z</time>
  <course>284.95</course>
  <speed>0.06</speed>
  <fix>3d</fix>
</trkpt>
<trkpt lat="-27.2157606" lon="151.441881">
  <ele>511.73</ele>
  <time>2026-09-01T20:00:59Z</time>
  <course>212.65</course>
  <speed>0.0632455532033676</speed>
  <fix>3d</fix>
</trkpt>
<trkpt lat="-27.2157606" lon="151.4418811">
  <ele>512.04</ele>
  <time>2026-09-01T20:00:59Z</time>
  <course>286.7</course>
  <speed>0.06</speed>
  <fix>3d</fix>
</trkpt>
<trkpt lat="-27.2157606" lon="151.441881">
  <ele>511.58</ele>
  <time>2026-09-01T20:00:59Z</time>
  <course>212.64</course>
  <speed>0.0632455532033676</speed>
  <fix>3d</fix>
</trkpt>
<trkpt lat="-27.2157606" lon="151.4418811">
  <ele>512.04</ele>
  <time>2026-09-01T20:00:59Z</time>
  <course>286.7</course>
  <speed>0.06</speed>
  <fix>3d</fix>
</trkpt>
<trkpt lat="-27.2157606" lon="151.4418809">
  <ele>511.43</ele>
  <time>2026-09-01T20:00:59Z</time>
  <course>212.64</course>
  <speed>0.0632455532033676</speed>
  <fix>3d</fix>
</trkpt>
<trkpt lat="-27.2157606" lon="151.441881">
  <ele>511.74</ele>
  <time>2026-09-01T20:00:59Z</time>
  <course>288.21</course>
  <speed>0.06</speed>
  <fix>3d</fix>
</trkpt>
<trkpt lat="-27.2157606" lon="151.4418808">
  <ele>511.28</ele>
  <time>2026-09-01T20:00:59Z</time>
  <course>212.63</course>
  <speed>0.0632455532033676</speed>
  <fix>3d</fix>
</trkpt>
<trkpt lat="-27.2157606" lon="151.441881">
  <ele>511.74</ele>
  <time>2026-09-01T20:00:59Z</time>
  <course>288.21</course>
  <speed>0.06</speed>
  <fix>3d</fix>
</trkpt>
<trkpt lat="-27.2157605" lon="151.4418808">
  <ele>511.13</ele>
  <time>2026-09-01T20:00:59Z</time>
  <course>212.62</course>
  <speed>0.0632455532033676</speed>
  <fix>3d</fix>
</trkpt>
<trkpt lat="-27.2157606" lon="151.4418809">
  <ele>511.44</ele>
  <time>2026-09-01T20:00:59Z</time>
  <course>289.46</course>
  <speed>0.07</speed>
  <fix>3d</fix>
</trkpt>
<trkpt lat="-27.2157605" lon="151.4418806">
  <ele>510.98</ele>
  <time>2026-09-01T20:00:59Z</time>
  <course>212.61</course>
  <speed>0.0632455532033676</speed>
  <fix>3d</fix>
</trkpt>
<trkpt lat="-27.2157606" lon="151.4418809">
  <ele>511.44</ele>
  <time>2026-09-01T20:00:59Z</time>
  <course>289.46</course>
  <speed>0.07</speed>
  <fix>3d</fix>
</trkpt>
<trkpt lat="-27.2157605" lon="151.4418806">
  <ele>510.83</ele>
  <time>2026-09-01T20:00:59Z</time>
  <course>212.6</course>
  <speed>0.0632455532033676</speed>
  <fix>3d</fix>
</trkpt>
<trkpt lat="-27.2157605" lon="151.4418807">
  <ele>511.14</ele>
  <time>2026-09-01T20:00:59Z</time>
  <course>290.53</course>
  <speed>0.07</speed>
  <fix>3d</fix>
</trkpt>
<trkpt lat="-27.2157605" lon="151.4418806">
  <ele>510.68</ele>
  <time>2026-09-01T20:00:59Z</time>
  <course>212.59</course>
  <speed>0.0632455532033676</speed>
  <fix>3d</fix>
</trkpt>
<trkpt lat="-27.2157605" lon="151.4418807">
  <ele>511.14</ele>
  <time>2026-09-01T20:00:59Z</time>
  <course>290.53</course>
  <speed>0.07</speed>
  <fix>3d</fix>
</trkpt>
<trkpt lat="-27.2157604" lon="151.4418805">
  <ele>510.54</ele>
  <time>2026-09-01T20:00:59Z</time>
  <course>212.57</course>
  <speed>0.0632455532033676</speed>
  <fix>3d</fix>
</trkpt>
<trkpt lat="-27.2157605" lon="151.4418806">
  <ele>510.84</ele>
  <time>2026-09-01T20:00:59Z</time>
  <course>291.39</course>
  <speed>0.07</speed>
  <fix>3d</fix>
</trkpt>
<trkpt lat="-27.2157604" lon="151.4418804">
  <ele>510.39</ele>
  <time>2026-09-01T20:00:59Z</time>
  <course>212.56</course>
  <speed>0.0632455532033676</speed>
  <fix>3d</fix>
</trkpt>
<trkpt lat="-27.2157605" lon="151.4418806">
  <ele>510.84</ele>
  <time>2026-09-01T20:00:59Z</time>
  <course>291.39</course>
  <speed>0.07</speed>
  <fix>3d</fix>
</trkpt>
<trkpt lat="-27.2157604" lon="151.4418804">
  <ele>510.24</ele>
  <time>2026-09-01T20:00:59Z</time>
  <course>212.56</course>
  <speed>0.0632455532033676</speed>
  <fix>3d</fix>
</trkpt>
<trkpt lat="-27.2157604" lon="151.4418805">
  <ele>510.54</ele>
  <time>2026-09-01T20:00:59Z</time>
  <course>292.07</course>
  <speed>0.07</speed>
  <fix>3d</fix>
</trkpt>
<trkpt lat="-27.2157604" lon="151.4418802">
  <ele>510.09</ele>
  <time>2026-09-01T20:00:59Z</time>
  <course>212.57</course>
  <speed>0.0632455532033676</speed>
  <fix>3d</fix>
</trkpt>
<trkpt lat="-27.2157604" lon="151.4418805">
  <ele>510.54</ele>
  <time>2026-09-01T20:00:59Z</time>
  <course>292.07</course>
  <speed>0.07</speed>
  <fix>3d</fix>
</trkpt>
<trkpt lat="-27.2157603" lon="151.4418801">
  <ele>509.93</ele>
  <time>2026-09-01T20:00:59Z</time>
  <course>212.58</course>
  <speed>0.053851648071345036</speed>
  <fix>3d</fix>
</trkpt>
<trkpt lat="-27.2157604" lon="151.4418803">
  <ele>510.24</ele>
  <time>2026-09-01T20:00:59Z</time>
  <course>292.63</course>
  <speed>0.06</speed>
  <fix>3d</fix>
</trkpt>
<trkpt lat="-27.2157603" lon="151.4418801">
  <ele>509.78</ele>
  <time>2026-09-01T20:00:59Z</time>
  <course>212.58</course>
  <speed>0.053851648071345036</speed>
  <fix>3d</fix>
</trkpt>
<trkpt lat="-27.2157604" lon="151.4418803">
  <ele>510.24</ele>
  <time>2026-09-01T20:00:59Z</time>
  <course>292.63</course>
  <speed>0.06</speed>
  <fix>3d</fix>
</trkpt>
<trkpt lat="-27.2157603" lon="151.4418801">
  <ele>509.63</ele>
  <time>2026-09-01T20:00:59Z</time>
  <course>212.59</course>
  <speed>0.053851648071345036</speed>
  <fix>3d</fix>
</trkpt>
<trkpt lat="-27.2157603" lon="151.4418802">
  <ele>509.94</ele>
  <time>2026-09-01T20:00:59Z</time>
  <course>293.13</course>
  <speed>0.06</speed>
  <fix>3d</fix>
</trkpt>
<trkpt lat="-27.2157603" lon="151.4418801">
  <ele>509.48</ele>
  <time>2026-09-01T20:00:59Z</time>
  <course>212.59</course>
  <speed>0.044721359549995794</speed>
  <fix>3d</fix>
</trkpt>
<trkpt lat="-27.2157603" lon="151.4418802">
  <ele>509.94</ele>
  <time>2026-09-01T20:00:59Z</time>
  <course>293.13</course>
  <speed>0.06</speed>
  <fix>3d</fix>
</trkpt>
<trkpt lat="-27.2157603" lon="151.44188">
  <ele>509.33</ele>
  <time>2026-09-01T20:00:59Z</time>
  <course>212.59</course>
  <speed>0.0412310562561766</speed>
  <fix>3d</fix>
</trkpt>
<trkpt lat="-27.2157603" lon="151.4418801">
  <ele>509.64</ele>
  <time>2026-09-01T20:00:59Z</time>
  <course>293.18</course>
  <speed>0.05</speed>
  <fix>3d</fix>
</trkpt>
<trkpt lat="-27.2157602" lon="151.44188">
  <ele>509.18</ele>
  <time>2026-09-01T20:00:59Z</time>
  <course>212.58</course>
  <speed>0.0412310562561766</speed>
  <fix>3d</fix>
</trkpt>
<trkpt lat="-27.2157603" lon="151.4418801">
  <ele>509.64</ele>
  <time>2026-09-01T20:00:59Z</time>
  <course>293.18</course>
  <speed>0.05</speed>
  <fix>3d</fix>
</trkpt>
<trkpt lat="-27.2157602" lon="151.4418799">
  <ele>509.03</ele>
  <time>2026-09-01T20:00:59Z</time>
  <course>212.57</course>
  <speed>0.0412310562561766</speed>
  <fix>3d</fix>
</trkpt>
<trkpt lat="-27.2157602" lon="151.44188">
  <ele>509.34</ele>
  <time>2026-09-01T20:00:59Z</time>
  <course>292.71</course>
  <speed>0.05</speed>
  <fix>3d</fix>
</trkpt>
<trkpt lat="-27.2157602" lon="151.4418799">
  <ele>508.88</ele>
  <time>2026-09-01T20:00:59Z</time>
  <course>212.57</course>
  <speed>0.0316227766016838</speed>
  <fix>3d</fix>
</trkpt>
<trkpt lat="-27.2157602" lon="151.44188">
  <ele>509.34</ele>
  <time>2026-09-01T20:00:59Z</time>
  <course>292.71</course>
  <speed>0.05</speed>
  <fix>3d</fix>
</trkpt>
<trkpt lat="-27.2157602" lon="151.4418799">
  <ele>508.73</ele>
  <time>2026-09-01T20:00:59Z</time>
  <course>212.56</course>
  <speed>0.0316227766016838</speed>
  <fix>3d</fix>
</trkpt>
<trkpt lat="-27.2157602" lon="151.4418799">
  <ele>509.04</ele>
  <time>2026-09-01T20:00:59Z</time>
  <course>292.18</course>
  <speed>0.04</speed>
  <fix>3d</fix>
</trkpt>
<trkpt lat="-27.2157602" lon="151.4418797">
  <ele>508.58</ele>
  <time>2026-09-01T20:00:59Z</time>
  <course>212.56</course>
  <speed>0.022360679774997897</speed>
  <fix>3d</fix>
</trkpt>
<trkpt lat="-27.2157602" lon="151.4418799">
  <ele>509.04</ele>
  <time>2026-09-01T20:00:59Z</time>
  <course>292.18</course>
  <speed>0.04</speed>
  <fix>3d</fix>
</trkpt>
<trkpt lat="-27.2157602" lon="151.4418797">
  <ele>508.43</ele>
  <time>2026-09-01T20:00:59Z</time>
  <course>212.55</course>
  <speed>0.02</speed>
  <fix>3d</fix>
</trkpt>
<trkpt lat="-27.2157602" lon="151.4418798">
  <ele>508.74</ele>
  <time>2026-09-01T20:00:59Z</time>
  <course>291.59</course>
  <speed>0.03</speed>
  <fix>3d</fix>
</trkpt>
<trkpt lat="-27.2157602" lon="151.4418797">
  <ele>508.28</ele>
  <time>2026-09-01T20:00:59Z</time>
  <course>212.55</course>
  <speed>0.02</speed>
  <fix>3d</fix>
</trkpt>
<trkpt lat="-27.2157602" lon="151.4418798">
  <ele>508.74</ele>
  <time>2026-09-01T20:00:59Z</time>
  <course>291.59</course>
  <speed>0.03</speed>
  <fix>3d</fix>
</trkpt>
<trkpt lat="-27.2157602" lon="151.4418797">
  <ele>508.14</ele>
  <time>2026-09-01T20:00:59Z</time>
  <course>212.57</course>
  <speed>0.01</speed>
  <fix>3d</fix>
</trkpt>
<trkpt lat="-27.2157602" lon="151.4418797">
  <ele>508.44</ele>
  <time>2026-09-01T20:00:59Z</time>
  <course>290.97</course>
  <speed>0.02</speed>
  <fix>3d</fix>
</trkpt>
<trkpt lat="-27.2157602" lon="151.4418796">
  <ele>507.99</ele>
  <time>2026-09-01T20:00:59Z</time>
  <course>212.59</course>
  <speed>0.01</speed>
  <fix>3d</fix>
</trkpt>
<trkpt lat="-27.2157602" lon="151.4418797">
  <ele>508.44</ele>
  <time>2026-09-01T20:00:59Z</time>
  <course>290.97</course>
  <speed>0.02</speed>
  <fix>3d</fix>
</trkpt>
<trkpt lat="-27.2157602" lon="151.4418796">
  <ele>507.84</ele>
  <time>2026-09-01T20:00:59Z</time>
  <course>212.62</course>
  <speed>0.0</speed>
  <fix>3d</fix>
</trkpt>
<trkpt lat="-27.2157602" lon="151.4418797">
  <ele>508.14</ele>
  <time>2026-09-01T20:00:59Z</time>
  <course>290.15</course>
  <speed>0.01</speed>
  <fix>3d</fix>
</trkpt>
<trkpt lat="-27.2157602" lon="151.4418796">
  <ele>507.69</ele>
  <time>2026-09-01T20:00:59Z</time>
  <course>212.67</course>
  <speed>0.0</speed>
  <fix>3d</fix>
</trkpt>
<trkpt lat="-27.2157602" lon="151.4418797">
  <ele>508.14</ele>
  <time>2026-09-01T20:00:59Z</time>
  <course>290.15</course>
  <speed>0.01</speed>
  <fix>3d</fix>
</trkpt>
<trkpt lat="-27.2157602" lon="151.4418796">
  <ele>507.54</ele>
  <time>2026-09-01T20:00:59Z</time>
  <course>212.74</course>
  <speed>0.0</speed>
  <fix>3d</fix>
</trkpt>
<trkpt lat="-27.2157602" lon="151.4418796">
  <ele>507.84</ele>
  <time>2026-09-01T20:00:59Z</time>
  <course>283.37</course>
  <speed>0.0</speed>
  <fix>3d</fix>
</trkpt>
<trkpt lat="-27.2157602" lon="151.4418796">
  <ele>507.39</ele>
  <time>2026-09-01T20:00:59Z</time>
  <course>212.85</course>
  <speed>0.01414213562373095</speed>
  <fix>3d</fix>
</trkpt>
<trkpt lat="-27.2157602" lon="151.4418796">
  <ele>507.84</ele>
  <time>2026-09-01T20:00:59Z</time>
  <course>283.37</course>
  <speed>0.0</speed>
  <fix>3d</fix>
</trkpt>
<trkpt lat="-27.2157602" lon="151.4418796">
  <ele>507.24</ele>
  <time>2026-09-01T20:00:59Z</time>
  <course>213.0</course>
  <speed>0.022360679774997897</speed>
  <fix>3d</fix>
</trkpt>
<trkpt lat="-27.2157602" lon="151.4418796">
  <ele>507.54</ele>
  <time>2026-09-01T20:00:59Z</time>
  <course>127.11</course>
  <speed>0.0</speed>
  <fix>3d</fix>
</trkpt>
<trkpt lat="-27.2157602" lon="151.4418796">
  <ele>507.09</ele>
  <time>2026-09-01T20:00:59Z</time>
  <course>213.05</course>
  <speed>0.022360679774997897</speed>
  <fix>3d</fix>
</trkpt>
<trkpt lat="-27.2157602" lon="151.4418796">
  <ele>507.54</ele>
  <time>2026-09-01T20:00:59Z</time>
  <course>127.11</course>
  <speed>0.0</speed>
  <fix>3d</fix>
</trkpt>
<trkpt lat="-27.2157602" lon="151.4418796">
  <ele>506.93</ele>
  <time>2026-09-01T20:00:59Z</time>
  <course>212.99</course>
  <speed>0.022360679774997897</speed>
  <fix>3d</fix>
</trkpt>
<trkpt lat="-27.2157602" lon="151.4418796">
  <ele>507.24</ele>
  <time>2026-09-01T20:00:59Z</time>
  <course>122.7</course>
  <speed>0.02</speed>
  <fix>3d</fix>
</trkpt>
<trkpt lat="-27.2157602" lon="151.4418796">
  <ele>506.78</ele>
  <time>2026-09-01T20:00:59Z</time>
  <course>212.86</course>
  <speed>0.022360679774997897</speed>
  <fix>3d</fix>
</trkpt>
<trkpt lat="-27.2157602" lon="151.4418796">
  <ele>507.24</ele>
  <time>2026-09-01T20:00:59Z</time>
  <course>122.7</course>
  <speed>0.02</speed>
  <fix>3d</fix>
</trkpt>
<trkpt lat="-27.2157602" lon="151.4418797">
  <ele>506.63</ele>
  <time>2026-09-01T20:00:59Z</time>
  <course>212.69</course>
  <speed>0.022360679774997897</speed>
  <fix>3d</fix>
</trkpt>
<trkpt lat="-27.2157602" lon="151.4418796">
  <ele>506.94</ele>
  <time>2026-09-01T20:00:59Z</time>
  <course>122.14</course>
  <speed>0.02</speed>
  <fix>3d</fix>
</trkpt>
<trkpt lat="-27.2157602" lon="151.4418797">
  <ele>506.48</ele>
  <time>2026-09-01T20:00:59Z</time>
  <course>212.52</course>
  <speed>0.022360679774997897</speed>
  <fix>3d</fix>
</trkpt>
<trkpt lat="-27.2157602" lon="151.4418796">
  <ele>506.94</ele>
  <time>2026-09-01T20:00:59Z</time>
  <course>122.14</course>
  <speed>0.02</speed>
  <fix>3d</fix>
</trkpt>
<trkpt lat="-27.2157602" lon="151.4418797">
  <ele>506.33</ele>
  <time>2026-09-01T20:00:59Z</time>
  <course>212.38</course>
  <speed>0.022360679774997897</speed>
  <fix>3d</fix>
</trkpt>
<trkpt lat="-27.2157602" lon="151.4418797">
  <ele>506.64</ele>
  <time>2026-09-01T20:00:59Z</time>
  <course>121.56</course>
  <speed>0.03</speed>
  <fix>3d</fix>
</trkpt>
<trkpt lat="-27.2157602" lon="151.4418797">
  <ele>506.18</ele>
  <time>2026-09-01T20:00:59Z</time>
  <course>212.28</course>
  <speed>0.022360679774997897</speed>
  <fix>3d</fix>
</trkpt>
<trkpt lat="-27.2157602" lon="151.4418797">
  <ele>506.64</ele>
  <time>2026-09-01T20:00:59Z</time>
  <course>121.56</course>
  <speed>0.03</speed>
  <fix>3d</fix>
</trkpt>
<trkpt lat="-27.2157602" lon="151.4418799">
  <ele>506.03</ele>
  <time>2026-09-01T20:00:59Z</time>
  <course>212.22</course>
  <speed>0.022360679774997897</speed>
  <fix>3d</fix>
</trkpt>
<trkpt lat="-27.2157602" lon="151.4418797">
  <ele>506.34</ele>
  <time>2026-09-01T20:00:59Z</time>
  <course>120.29</course>
  <speed>0.03</speed>
  <fix>3d</fix>
</trkpt>
<trkpt lat="-27.2157602" lon="151.4418799">
  <ele>505.88</ele>
  <time>2026-09-01T20:00:59Z</time>
  <course>212.21</course>
  <speed>0.022360679774997897</speed>
  <fix>3d</fix>
</trkpt>
<trkpt lat="-27.2157602" lon="151.4418797">
  <ele>506.34</ele>
  <time>2026-09-01T20:00:59Z</time>
  <course>120.29</course>
  <speed>0.03</speed>
  <fix>3d</fix>
</trkpt>
<trkpt lat="-27.2157602" lon="151.4418799">
  <ele>505.73</ele>
  <time>2026-09-01T20:00:59Z</time>
  <course>212.24</course>
  <speed>0.022360679774997897</speed>
  <fix>3d</fix>
</trkpt>
<trkpt lat="-27.2157602" lon="151.4418798">
  <ele>506.04</ele>
  <time>2026-09-01T20:00:59Z</time>
  <course>118.78</course>
  <speed>0.03</speed>
  <fix>3d</fix>
</trkpt>
<trkpt lat="-27.2157602" lon="151.44188">
  <ele>505.58</ele>
  <time>2026-09-01T20:00:59Z</time>
  <course>212.29</course>
  <speed>0.022360679774997897</speed>
  <fix>3d</fix>
</trkpt>
<trkpt lat="-27.2157602" lon="151.4418798">
  <ele>506.04</ele>
  <time>2026-09-01T20:00:59Z</time>
  <course>118.78</course>
  <speed>0.03</speed>
  <fix>3d</fix>
</trkpt>
<trkpt lat="-27.2157602" lon="151.44188">
  <ele>505.43</ele>
  <time>2026-09-01T20:00:59Z</time>
  <course>212.36</course>
  <speed>0.022360679774997897</speed>
  <fix>3d</fix>
</trkpt>
<trkpt lat="-27.2157602" lon="151.4418799">
  <ele>505.74</ele>
  <time>2026-09-01T20:00:59Z</time>
  <course>117.73</course>
  <speed>0.03</speed>
  <fix>3d</fix>
</trkpt>
<trkpt lat="-27.2157603" lon="151.44188">
  <ele>505.28</ele>
  <time>2026-09-01T20:00:59Z</time>
  <course>212.42</course>
  <speed>0.022360679774997897</speed>
  <fix>3d</fix>
</trkpt>
<trkpt lat="-27.2157602" lon="151.4418799">
  <ele>505.74</ele>
  <time>2026-09-01T20:00:59Z</time>
  <course>117.73</course>
  <speed>0.03</speed>
  <fix>3d</fix>
</trkpt>
<trkpt lat="-27.2157603" lon="151.4418801">
  <ele>505.14</ele>
  <time>2026-09-01T20:00:59Z</time>
  <course>212.48</course>
  <speed>0.0316227766016838</speed>
  <fix>3d</fix>
</trkpt>
<trkpt lat="-27.2157602" lon="151.44188">
  <ele>505.44</ele>
  <time>2026-09-01T20:00:59Z</time>
  <course>117.49</course>
  <speed>0.03</speed>
  <fix>3d</fix>
</trkpt>
<trkpt lat="-27.2157603" lon="151.4418801">
  <ele>504.99</ele>
  <time>2026-09-01T20:00:59Z</time>
  <course>212.54</course>
  <speed>0.0316227766016838</speed>
  <fix>3d</fix>
</trkpt>
<trkpt lat="-27.2157602" lon="151.44188">
  <ele>505.44</ele>
  <time>2026-09-01T20:00:59Z</time>
  <course>117.49</course>
  <speed>0.03</speed>
  <fix>3d</fix>
</trkpt>
<trkpt lat="-27.2157603" lon="151.4418801">
  <ele>504.84</ele>
  <time>2026-09-01T20:00:59Z</time>
  <course>212.58</course>
  <speed>0.0316227766016838</speed>
  <fix>3d</fix>
</trkpt>
<trkpt lat="-27.2157603" lon="151.44188">
  <ele>505.14</ele>
  <time>2026-09-01T20:00:59Z</time>
  <course>117.67</course>
  <speed>0.03</speed>
  <fix>3d</fix>
</trkpt>
<trkpt lat="-27.2157603" lon="151.4418801">
  <ele>504.69</ele>
  <time>2026-09-01T20:00:59Z</time>
  <course>212.61</course>
  <speed>0.0316227766016838</speed>
  <fix>3d</fix>
</trkpt>
<trkpt lat="-27.2157603" lon="151.44188">
  <ele>505.14</ele>
  <time>2026-09-01T20:00:59Z</time>
  <course>117.67</course>
  <speed>0.03</speed>
  <fix>3d</fix>
</trkpt>
<trkpt lat="-27.2157603" lon="151.4418801">
  <ele>504.54</ele>
  <time>2026-09-01T20:00:59Z</time>
  <course>212.62</course>
  <speed>0.0316227766016838</speed>
  <fix>3d</fix>
</trkpt>
<trkpt lat="-27.2157603" lon="151.4418801">
  <ele>504.84</ele>
  <time>2026-09-01T20:00:59Z</time>
  <course>117.83</course>
  <speed>0.03</speed>
  <fix>3d</fix>
</trkpt>
<trkpt lat="-27.2157603" lon="151.4418801">
  <ele>504.39</ele>
  <time>2026-09-01T20:00:59Z</time>
  <course>212.62</course>
  <speed>0.0316227766016838</speed>
  <fix>3d</fix>
</trkpt>
<trkpt lat="-27.2157603" lon="151.4418801">
  <ele>504.84</ele>
  <time>2026-09-01T20:00:59Z</time>
  <course>117.83</course>
  <speed>0.03</speed>
  <fix>3d</fix>
</trkpt>
<trkpt lat="-27.2157604" lon="151.4418801">
  <ele>504.24</ele>
  <time>2026-09-01T20:00:59Z</time>
  <course>212.61</course>
  <speed>0.0316227766016838</speed>
  <fix>3d</fix>
</trkpt>
<trkpt lat="-27.2157603" lon="151.4418801">
  <ele>504.54</ele>
  <time>2026-09-01T20:00:59Z</time>
  <course>118.35</course>
  <speed>0.03</speed>
  <fix>3d</fix>
</trkpt>
<trkpt lat="-27.2157604" lon="151.4418802">
  <ele>504.09</ele>
  <time>2026-09-01T20:00:59Z</time>
  <course>212.6</course>
  <speed>0.0316227766016838</speed>
  <fix>3d</fix>
</trkpt>
<trkpt lat="-27.2157603" lon="151.4418801">
  <ele>504.54</ele>
  <time>2026-09-01T20:00:59Z</time>
  <course>118.35</course>
  <speed>0.03</speed>
  <fix>3d</fix>
</trkpt>
<trkpt lat="-27.2157604" lon="151.4418802">
  <ele>503.93</ele>
  <time>2026-09-01T20:00:59Z</time>
  <course>212.61</course>
  <speed>0.0316227766016838</speed>
  <fix>3d</fix>
</trkpt>
<trkpt lat="-27.2157603" lon="151.4418802">
  <ele>504.24</ele>
  <time>2026-09-01T20:00:59Z</time>
  <course>119.1</course>
  <speed>0.03</speed>
  <fix>3d</fix>
</trkpt>
<trkpt lat="-27.2157604" lon="151.4418802">
  <ele>503.78</ele>
  <time>2026-09-01T20:00:59Z</time>
  <course>212.63</course>
  <speed>0.0316227766016838</speed>
  <fix>3d</fix>
</trkpt>
<trkpt lat="-27.2157603" lon="151.4418802">
  <ele>504.24</ele>
  <time>2026-09-01T20:00:59Z</time>
  <course>119.1</course>
  <speed>0.03</speed>
  <fix>3d</fix>
</trkpt>
<trkpt lat="-27.2157604" lon="151.4418804">
  <ele>503.63</ele>
  <time>2026-09-01T20:00:59Z</time>
  <course>212.66</course>
  <speed>0.0316227766016838</speed>
  <fix>3d</fix>
</trkpt>
<trkpt lat="-27.2157604" lon="151.4418802">
  <ele>503.94</ele>
  <time>2026-09-01T20:00:59Z</time>
  <course>119.61</course>
  <speed>0.03</speed>
  <fix>3d</fix>
</trkpt>
<trkpt lat="-27.2157604" lon="151.4418804">
  <ele>503.48</ele>
  <time>2026-09-01T20:00:59Z</time>
  <course>212.69</course>
  <speed>0.03605551275463989</speed>
  <fix>3d</fix>
</trkpt>
<trkpt lat="-27.2157604" lon="151.4418802">
  <ele>503.94</ele>
  <time>2026-09-01T20:00:59Z</time>
  <course>119.61</course>
  <speed>0.03</speed>
  <fix>3d</fix>
</trkpt>
<trkpt lat="-27.2157605" lon="151.4418804">
  <ele>503.33</ele>
  <time>2026-09-01T20:00:59Z</time>
  <course>212.75</course>
  <speed>0.03605551275463989</speed>
  <fix>3d</fix>
</trkpt>
<trkpt lat="-27.2157604" lon="151.4418803">
  <ele>503.64</ele>
  <time>2026-09-01T20:00:59Z</time>
  <course>120.03</course>
  <speed>0.03</speed>
  <fix>3d</fix>
</trkpt>
<trkpt lat="-27.2157605" lon="151.4418805">
  <ele>503.18</ele>
  <time>2026-09-01T20:00:59Z</time>
  <course>212.81</course>
  <speed>0.03605551275463989</speed>
  <fix>3d</fix>
</trkpt>
<trkpt lat="-27.2157604" lon="151.4418803">
  <ele>503.64</ele>
  <time>2026-09-01T20:00:59Z</time>
  <course>120.03</course>
  <speed>0.03</speed>
  <fix>3d</fix>
</trkpt>
<trkpt lat="-27.2157605" lon="151.4418805">
  <ele>503.03</ele>
  <time>2026-09-01T20:00:59Z</time>
  <course>212.87</course>
  <speed>0.03605551275463989</speed>
  <fix>3d</fix>
</trkpt>
<trkpt lat="-27.2157604" lon="151.4418804">
  <ele>503.34</ele>
  <time>2026-09-01T20:00:59Z</time>
  <course>120.94</course>
  <speed>0.04</speed>
  <fix>3d</fix>
</trkpt>
<trkpt lat="-27.2157605" lon="151.4418806">
  <ele>502.88</ele>
  <time>2026-09-01T20:00:59Z</time>
  <course>212.93</course>
  <speed>0.03605551275463989</speed>
  <fix>3d</fix>
</trkpt>
<trkpt lat="-27.2157604" lon="151.4418804">
  <ele>503.34</ele>
  <time>2026-09-01T20:00:59Z</time>
  <course>120.94</course>
  <speed>0.04</speed>
  <fix>3d</fix>
</trkpt>
<trkpt lat="-27.2157606" lon="151.4418806">
  <ele>502.74</ele>
  <time>2026-09-01T20:00:59Z</time>
  <course>212.98</course>
  <speed>0.03605551275463989</speed>
  <fix>3d</fix>
</trkpt>
<trkpt lat="-27.2157605" lon="151.4418805">
  <ele>503.04</ele>
  <time>2026-09-01T20:00:59Z</time>
  <course>122.14</course>
  <speed>0.04</speed>
  <fix>3d</fix>
</trkpt>
<trkpt lat="-27.2157606" lon="151.4418806">
  <ele>502.59</ele>
  <time>2026-09-01T20:00:59Z</time>
  <course>213.02</course>
  <speed>0.03605551275463989</speed>
  <fix>3d</fix>
</trkpt>
<trkpt lat="-27.2157605" lon="151.4418805">
  <ele>503.04</ele>
  <time>2026-09-01T20:00:59Z</time>
  <course>122.14</course>
  <speed>0.04</speed>
  <fix>3d</fix>
</trkpt>
<trkpt lat="-27.2157606" lon="151.4418806">
  <ele>502.44</ele>
  <time>2026-09-01T20:00:59Z</time>
  <course>213.07</course>
  <speed>0.03605551275463989</speed>
  <fix>3d</fix>
</trkpt>
<trkpt lat="-27.2157605" lon="151.4418806">
  <ele>502.74</ele>
  <time>2026-09-01T20:00:59Z</time>
  <course>123.49</course>
  <speed>0.04</speed>
  <fix>3d</fix>
</trkpt>
<trkpt lat="-27.2157606" lon="151.4418806">
  <ele>502.29</ele>
  <time>2026-09-01T20:00:59Z</time>
  <course>213.11</course>
  <speed>0.03605551275463989</speed>
  <fix>3d</fix>
</trkpt>
<trkpt lat="-27.2157605" lon="151.4418806">
  <ele>502.74</ele>
  <time>2026-09-01T20:00:59Z</time>
  <course>123.49</course>
  <speed>0.04</speed>
  <fix>3d</fix>
</trkpt>
<trkpt lat="-27.2157606" lon="151.4418806">
  <ele>502.14</ele>
  <time>2026-09-01T20:00:59Z</time>
  <course>213.12</course>
  <speed>0.03605551275463989</speed>
  <fix>3d</fix>
</trkpt>
<trkpt lat="-27.2157606" lon="151.4418806">
  <ele>502.44</ele>
  <time>2026-09-01T20:00:59Z</time>
  <course>124.65</course>
  <speed>0.04</speed>
  <fix>3d</fix>
</trkpt>
<trkpt lat="-27.2157607" lon="151.4418808">
  <ele>501.99</ele>
  <time>2026-09-01T20:00:59Z</time>
  <course>213.13</course>
  <speed>0.03605551275463989</speed>
  <fix>3d</fix>
</trkpt>
<trkpt lat="-27.2157606" lon="151.4418806">
  <ele>502.44</ele>
  <time>2026-09-01T20:00:59Z</time>
  <course>124.65</course>
  <speed>0.04</speed>
  <fix>3d</fix>
</trkpt>
<trkpt lat="-27.2157607" lon="151.4418808">
  <ele>501.84</ele>
  <time>2026-09-01T20:00:59Z</time>
  <course>213.15</course>
  <speed>0.03605551275463989</speed>
  <fix>3d</fix>
</trkpt>
<trkpt lat="-27.2157606" lon="151.4418807">
  <ele>502.14</ele>
  <time>2026-09-01T20:00:59Z</time>
  <course>125.53</course>
  <speed>0.04</speed>
  <fix>3d</fix>
</trkpt>
<trkpt lat="-27.2157607" lon="151.4418809">
  <ele>501.69</ele>
  <time>2026-09-01T20:00:59Z</time>
  <course>213.18</course>
  <speed>0.04242640687119285</speed>
  <fix>3d</fix>
</trkpt>
<trkpt lat="-27.2157606" lon="151.4418807">
  <ele>502.14</ele>
  <time>2026-09-01T20:00:59Z</time>
  <course>125.53</course>
  <speed>0.04</speed>
  <fix>3d</fix>
</trkpt>
<trkpt lat="-27.2157607" lon="151.4418809">
  <ele>501.53</ele>
  <time>2026-09-01T20:00:59Z</time>
  <course>213.22</course>
  <speed>0.05</speed>
  <fix>3d</fix>
</trkpt>
<trkpt lat="-27.2157607" lon="151.4418808">
  <ele>501.84</ele>
  <time>2026-09-01T20:00:59Z</time>
  <course>126.67</course>
  <speed>0.04</speed>
  <fix>3d</fix>
</trkpt>
<trkpt lat="-27.2157608" lon="151.4418809">
  <ele>501.38</ele>
  <time>2026-09-01T20:00:59Z</time>
  <course>213.27</course>
  <speed>0.05</speed>
  <fix>3d</fix>
</trkpt>
<trkpt lat="-27.2157607" lon="151.4418808">
  <ele>501.84</ele>
  <time>2026-09-01T20:00:59Z</time>
  <course>126.67</course>
  <speed>0.04</speed>
  <fix>3d</fix>
</trkpt>
<trkpt lat="-27.2157608" lon="151.441881">
  <ele>501.23</ele>
  <time>2026-09-01T20:00:59Z</time>
  <course>213.33</course>
  <speed>0.05</speed>
  <fix>3d</fix>
</trkpt>
<trkpt lat="-27.2157607" lon="151.4418809">
  <ele>501.54</ele>
  <time>2026-09-01T20:00:59Z</time>
  <course>127.77</course>
  <speed>0.05</speed>
  <fix>3d</fix>
</trkpt>
<trkpt lat="-27.2157608" lon="151.441881">
  <ele>501.08</ele>
  <time>2026-09-01T20:00:59Z</time>
  <course>213.39</course>
  <speed>0.05</speed>
  <fix>3d</fix>
</trkpt>
<trkpt lat="-27.2157607" lon="151.4418809">
  <ele>501.54</ele>
  <time>2026-09-01T20:00:59Z</time>
  <course>127.77</course>
  <speed>0.05</speed>
  <fix>3d</fix>
</trkpt>
<trkpt lat="-27.2157609" lon="151.4418811">
  <ele>500.93</ele>
  <time>2026-09-01T20:00:59Z</time>
  <course>213.45</course>
  <speed>0.05</speed>
  <fix>3d</fix>
</trkpt>
<trkpt lat="-27.2157608" lon="151.4418809">
  <ele>501.24</ele>
  <time>2026-09-01T20:00:59Z</time>
  <course>128.64</course>
  <speed>0.05</speed>
  <fix>3d</fix>
</trkpt>
<trkpt lat="-27.2157609" lon="151.4418811">
  <ele>500.78</ele>
  <time>2026-09-01T20:00:59Z</time>
  <course>213.5</course>
  <speed>0.05</speed>
  <fix>3d</fix>
</trkpt>
<trkpt lat="-27.2157608" lon="151.4418809">
  <ele>501.24</ele>
  <time>2026-09-01T20:00:59Z</time>
  <course>128.64</course>
  <speed>0.05</speed>
  <fix>3d</fix>
</trkpt>
<trkpt lat="-27.2157609" lon="151.4418811">
  <ele>500.63</ele>
  <time>2026-09-01T20:00:59Z</time>
  <course>213.45</course>
  <speed>0.03605551275463989</speed>
  <fix>3d</fix>
</trkpt>
<trkpt lat="-27.2157608" lon="151.441881">
  <ele>500.94</ele>
  <time>2026-09-01T20:00:59Z</time>
  <course>129.5</course>
  <speed>0.05</speed>
  <fix>3d</fix>
</trkpt>
<trkpt lat="-27.215761" lon="151.4418811">
  <ele>500.48</ele>
  <time>2026-09-01T20:00:59Z</time>
  <course>213.2</course>
  <speed>0.022360679774997897</speed>
  <fix>3d</fix>
</trkpt>
<trkpt lat="-27.2157608" lon="151.441881">
  <ele>500.94</ele>
  <time>2026-09-01T20:00:59Z</time>
  <course>129.5</course>
  <speed>0.05</speed>
  <fix>3d</fix>
</trkpt>
<trkpt lat="-27.215761" lon="151.4418811">
  <ele>500.33</ele>
  <time>2026-09-01T20:00:59Z</time>
  <course>212.81</course>
  <speed>0.01</speed>
  <fix>3d</fix>
</trkpt>
<trkpt lat="-27.2157609" lon="151.4418811">
  <ele>500.64</ele>
  <time>2026-09-01T20:00:59Z</time>
  <course>132.4</course>
  <speed>0.04</speed>
  <fix>3d</fix>
</trkpt>
<trkpt lat="-27.215761" lon="151.4418811">
  <ele>500.19</ele>
  <time>2026-09-01T20:00:59Z</time>
  <course>212.36</course>
  <speed>0.0</speed>
  <fix>3d</fix>
</trkpt>
<trkpt lat="-27.2157609" lon="151.4418811">
  <ele>500.64</ele>
  <time>2026-09-01T20:00:59Z</time>
  <course>132.4</course>
  <speed>0.04</speed>
  <fix>3d</fix>
</trkpt>
<trkpt lat="-27.215761" lon="151.4418811">
  <ele>500.04</ele>
  <time>2026-09-01T20:00:59Z</time>
  <course>211.93</course>
  <speed>0.02</speed>
  <fix>3d</fix>
</trkpt>
<trkpt lat="-27.215761" lon="151.4418811">
  <ele>500.34</ele>
  <time>2026-09-01T20:00:59Z</time>
  <course>155.65</course>
  <speed>0.01</speed>
  <fix>3d</fix>
</trkpt>
<trkpt lat="-27.215761" lon="151.4418811">
  <ele>499.89</ele>
  <time>2026-09-01T20:00:59Z</time>
  <course>211.59</course>
  <speed>0.0316227766016838</speed>
  <fix>3d</fix>
</trkpt>
<trkpt lat="-27.215761" lon="151.4418811">
  <ele>500.34</ele>
  <time>2026-09-01T20:00:59Z</time>
  <course>155.65</course>
  <speed>0.01</speed>
  <fix>3d</fix>
</trkpt>
<trkpt lat="-27.215761" lon="151.4418811">
  <ele>499.74</ele>
  <time>2026-09-01T20:00:59Z</time>
  <course>211.37</course>
  <speed>0.044721359549995794</speed>
  <fix>3d</fix>
</trkpt>
<trkpt lat="-27.215761" lon="151.4418811">
  <ele>500.04</ele>
  <time>2026-09-01T20:00:59Z</time>
  <course>288.31</course>
  <speed>0.02</speed>
  <fix>3d</fix>
</trkpt>
<trkpt lat="-27.215761" lon="151.4418811">
  <ele>499.59</ele>
  <time>2026-09-01T20:00:59Z</time>
  <course>211.27</course>
  <speed>0.05830951894845301</speed>
  <fix>3d</fix>
</trkpt>
<trkpt lat="-27.215761" lon="151.4418811">
  <ele>500.04</ele>
  <time>2026-09-01T20:00:59Z</time>
  <course>288.31</course>
  <speed>0.02</speed>
  <fix>3d</fix>
</trkpt>
<trkpt lat="-27.215761" lon="151.4418811">
  <ele>499.44</ele>
  <time>2026-09-01T20:00:59Z</time>
  <course>211.28</course>
  <speed>0.0670820393249937</speed>
  <fix>3d</fix>
</trkpt>
<trkpt lat="-27.215761" lon="151.4418811">
  <ele>499.74</ele>
  <time>2026-09-01T20:00:59Z</time>
  <course>298.81</course>
  <speed>0.04</speed>
  <fix>3d</fix>
</trkpt>
<trkpt lat="-27.2157609" lon="151.441881">
  <ele>499.29</ele>
  <time>2026-09-01T20:00:59Z</time>
  <course>211.36</course>
  <speed>0.08062257748298549</speed>
  <fix>3d</fix>
</trkpt>
<trkpt lat="-27.215761" lon="151.4418811">
  <ele>499.74</ele>
  <time>2026-09-01T20:00:59Z</time>
  <course>298.81</course>
  <speed>0.04</speed>
  <fix>3d</fix>
</trkpt>
<trkpt lat="-27.2157609" lon="151.441881">
  <ele>499.14</ele>
  <time>2026-09-01T20:00:59Z</time>
  <course>211.47</course>
  <speed>0.08602325267042626</speed>
  <fix>3d</fix>
</trkpt>
<trkpt lat="-27.2157609" lon="151.441881">
  <ele>499.44</ele>
  <time>2026-09-01T20:00:59Z</time>
  <course>302.17</course>
  <speed>0.07</speed>
  <fix>3d</fix>
</trkpt>
<trkpt lat="-27.2157608" lon="151.4418809">
  <ele>498.99</ele>
  <time>2026-09-01T20:00:59Z</time>
  <course>211.59</course>
  <speed>0.09433981132056603</speed>
  <fix>3d</fix>
</trkpt>
<trkpt lat="-27.2157609" lon="151.441881">
  <ele>499.44</ele>
  <time>2026-09-01T20:00:59Z</time>
  <course>302.17</course>
  <speed>0.07</speed>
  <fix>3d</fix>
</trkpt>
<trkpt lat="-27.2157608" lon="151.4418808">
  <ele>498.84</ele>
  <time>2026-09-01T20:00:59Z</time>
  <course>211.7</course>
  <speed>0.10816653826391968</speed>
  <fix>3d</fix>
</trkpt>
<trkpt lat="-27.2157609" lon="151.4418809">
  <ele>499.14</ele>
  <time>2026-09-01T20:00:59Z</time>
  <course>303.84</course>
  <speed>0.09</speed>
  <fix>3d</fix>
</trkpt>
<trkpt lat="-27.2157607" lon="151.4418806">
  <ele>498.69</ele>
  <time>2026-09-01T20:00:59Z</time>
  <course>211.79</course>
  <speed>0.10816653826391968</speed>
  <fix>3d</fix>
</trkpt>
<trkpt lat="-27.2157609" lon="151.4418809">
  <ele>499.14</ele>
  <time>2026-09-01T20:00:59Z</time>
  <course>303.84</course>
  <speed>0.09</speed>
  <fix>3d</fix>
</trkpt>
<trkpt lat="-27.2157607" lon="151.4418806">
  <ele>498.54</ele>
  <time>2026-09-01T20:00:59Z</time>
  <course>211.84</course>
  <speed>0.12206555615733702</speed>
  <fix>3d</fix>
</trkpt>
<trkpt lat="-27.2157608" lon="151.4418807">
  <ele>498.84</ele>
  <time>2026-09-01T20:00:59Z</time>
  <course>304.67</course>
  <speed>0.11</speed>
  <fix>3d</fix>
</trkpt>
<trkpt lat="-27.2157606" lon="151.4418805">
  <ele>498.38</ele>
  <time>2026-09-01T20:01:00Z</time>
  <course>211.86</course>
  <speed>0.12206555615733702</speed>
  <fix>3d</fix>
</trkpt>
<trkpt lat="-27.2157608" lon="151.4418807">
  <ele>498.84</ele>
  <time>2026-09-01T20:01:00Z</time>
  <course>304.67</course>
  <speed>0.11</speed>
  <fix>3d</fix>
</trkpt>
<trkpt lat="-27.2157605" lon="151.4418804">
  <ele>498.23</ele>
  <time>2026-09-01T20:01:00Z</time>
  <course>211.85</course>
  <speed>0.12206555615733702</speed>
  <fix>3d</fix>
</trkpt>
<trkpt lat="-27.2157606" lon="151.4418806">
  <ele>498.54</ele>
  <time>2026-09-01T20:01:00Z</time>
  <course>305.12</course>
  <speed>0.12</speed>
  <fix>3d</fix>
</trkpt>
<trkpt lat="-27.2157605" lon="151.4418802">
  <ele>498.08</ele>
  <time>2026-09-01T20:01:00Z</time>
  <course>211.82</course>
  <speed>0.130384048104053</speed>
  <fix>3d</fix>
</trkpt>
<trkpt lat="-27.2157606" lon="151.4418806">
  <ele>498.54</ele>
  <time>2026-09-01T20:01:00Z</time>
  <course>305.12</course>
  <speed>0.12</speed>
  <fix>3d</fix>
</trkpt>
<trkpt lat="-27.2157604" lon="151.4418801">
  <ele>497.94</ele>
  <time>2026-09-01T20:01:00Z</time>
  <course>211.79</course>
  <speed>0.13601470508735444</speed>
  <fix>3d</fix>
</trkpt>
<trkpt lat="-27.2157605" lon="151.4418804">
  <ele>498.24</ele>
  <time>2026-09-01T20:01:00Z</time>
  <course>305.43</course>
  <speed>0.13</speed>
  <fix>3d</fix>
</trkpt>
<trkpt lat="-27.2157603" lon="151.44188">
  <ele>497.79</ele>
  <time>2026-09-01T20:01:00Z</time>
  <course>211.75</course>
  <speed>0.13601470508735444</speed>
  <fix>3d</fix>
</trkpt>
<trkpt lat="-27.2157605" lon="151.4418804">
  <ele>498.24</ele>
  <time>2026-09-01T20:01:00Z</time>
  <course>305.43</course>
  <speed>0.13</speed>
  <fix>3d</fix>
</trkpt>
<trkpt lat="-27.2157602" lon="151.4418799">
  <ele>497.64</ele>
  <time>2026-09-01T20:01:00Z</time>
  <course>211.72</course>
  <speed>0.13601470508735444</speed>
  <fix>3d</fix>
</trkpt>
<trkpt lat="-27.2157604" lon="151.4418801">
  <ele>497.94</ele>
  <time>2026-09-01T20:01:00Z</time>
  <course>305.59</course>
  <speed>0.13</speed>
  <fix>3d</fix>
</trkpt>
<trkpt lat="-27.2157602" lon="151.4418797">
  <ele>497.48</ele>
  <time>2026-09-01T20:01:00Z</time>
  <course>211.7</course>
  <speed>0.13601470508735444</speed>
  <fix>3d</fix>
</trkpt>
<trkpt lat="-27.2157604" lon="151.4418801">
  <ele>497.94</ele>
  <time>2026-09-01T20:01:00Z</time>
  <course>305.59</course>
  <speed>0.13</speed>
  <fix>3d</fix>
</trkpt>
<trkpt lat="-27.2157601" lon="151.4418796">
  <ele>497.33</ele>
  <time>2026-09-01T20:01:00Z</time>
  <course>211.69</course>
  <speed>0.13601470508735444</speed>
  <fix>3d</fix>
</trkpt>
<trkpt lat="-27.2157602" lon="151.4418799">
  <ele>497.64</ele>
  <time>2026-09-01T20:01:00Z</time>
  <course>305.67</course>
  <speed>0.13</speed>
  <fix>3d</fix>
</trkpt>
<trkpt lat="-27.21576" lon="151.4418796">
  <ele>497.18</ele>
  <time>2026-09-01T20:01:00Z</time>
  <course>211.69</course>
  <speed>0.130384048104053</speed>
  <fix>3d</fix>
</trkpt>
<trkpt lat="-27.2157602" lon="151.4418799">
  <ele>497.64</ele>
  <time>2026-09-01T20:01:00Z</time>
  <course>305.67</course>
  <speed>0.13</speed>
  <fix>3d</fix>
</trkpt>
<trkpt lat="-27.21576" lon="151.4418795">
  <ele>497.03</ele>
  <time>2026-09-01T20:01:00Z</time>
  <course>211.69</course>
  <speed>0.12206555615733702</speed>
  <fix>3d</fix>
</trkpt>
<trkpt lat="-27.2157601" lon="151.4418796">
  <ele>497.34</ele>
  <time>2026-09-01T20:01:00Z</time>
  <course>305.82</course>
  <speed>0.13</speed>
  <fix>3d</fix>
</trkpt>
<trkpt lat="-27.2157599" lon="151.4418794">
  <ele>496.88</ele>
  <time>2026-09-01T20:01:00Z</time>
  <course>211.69</course>
  <speed>0.12206555615733702</speed>
  <fix>3d</fix>
</trkpt>
<trkpt lat="-27.2157601" lon="151.4418796">
  <ele>497.34</ele>
  <time>2026-09-01T20:01:00Z</time>
  <course>305.82</course>
  <speed>0.13</speed>
  <fix>3d</fix>
</trkpt>
<trkpt lat="-27.2157598" lon="151.4418792">
  <ele>496.73</ele>
  <time>2026-09-01T20:01:00Z</time>
  <course>211.69</course>
  <speed>0.11401754250991379</speed>
  <fix>3d</fix>
</trkpt>
<trkpt lat="-27.2157599" lon="151.4418795">
  <ele>497.04</ele>
  <time>2026-09-01T20:01:00Z</time>
  <course>306.12</course>
  <speed>0.13</speed>
  <fix>3d</fix>
</trkpt>
<trkpt lat="-27.2157598" lon="151.4418792">
  <ele>496.59</ele>
  <time>2026-09-01T20:01:00Z</time>
  <course>211.7</course>
  <speed>0.10816653826391968</speed>
  <fix>3d</fix>
</trkpt>
<trkpt lat="-27.2157599" lon="151.4418795">
  <ele>497.04</ele>
  <time>2026-09-01T20:01:00Z</time>
  <course>306.12</course>
  <speed>0.13</speed>
  <fix>3d</fix>
</trkpt>
<trkpt lat="-27.2157597" lon="151.4418791">
  <ele>496.44</ele>
  <time>2026-09-01T20:01:00Z</time>
  <course>211.71</course>
  <speed>0.1</speed>
  <fix>3d</fix>
</trkpt>
<trkpt lat="-27.2157598" lon="151.4418792">
  <ele>496.74</ele>
  <time>2026-09-01T20:01:00Z</time>
  <course>306.4</course>
  <speed>0.12</speed>
  <fix>3d</fix>
</trkpt>
<trkpt lat="-27.2157596" lon="151.441879">
  <ele>496.29</ele>
  <time>2026-09-01T20:01:00Z</time>
  <course>211.71</course>
  <speed>0.1</speed>
  <fix>3d</fix>
</trkpt>
<trkpt lat="-27.2157598" lon="151.4418792">
  <ele>496.74</ele>
  <time>2026-09-01T20:01:00Z</time>
  <course>306.4</course>
  <speed>0.12</speed>
  <fix>3d</fix>
</trkpt>
<trkpt lat="-27.2157596" lon="151.4418789">
  <ele>496.14</ele>
  <time>2026-09-01T20:01:00Z</time>
  <course>211.71</course>
  <speed>0.08602325267042626</speed>
  <fix>3d</fix>
</trkpt>
<trkpt lat="-27.2157597" lon="151.4418791">
  <ele>496.44</ele>
  <time>2026-09-01T20:01:00Z</time>
  <course>306.59</course>
  <speed>0.11</speed>
  <fix>3d</fix>
</trkpt>
<trkpt lat="-27.2157595" lon="151.4418787">
  <ele>495.99</ele>
  <time>2026-09-01T20:01:00Z</time>
  <course>211.71</course>
  <speed>0.08602325267042626</speed>
  <fix>3d</fix>
</trkpt>
<trkpt lat="-27.2157597" lon="151.4418791">
  <ele>496.44</ele>
  <time>2026-09-01T20:01:00Z</time>
  <course>306.59</course>
  <speed>0.11</speed>
  <fix>3d</fix>
</trkpt>
<trkpt lat="-27.2157595" lon="151.4418787">
  <ele>495.84</ele>
  <time>2026-09-01T20:01:00Z</time>
  <course>211.71</course>
  <speed>0.07810249675906654</speed>
  <fix>3d</fix>
</trkpt>
<trkpt lat="-27.2157595" lon="151.4418789">
  <ele>496.14</ele>
  <time>2026-09-01T20:01:00Z</time>
  <course>307.03</course>
  <speed>0.09</speed>
  <fix>3d</fix>
</trkpt>
<trkpt lat="-27.2157594" lon="151.4418787">
  <ele>495.69</ele>
  <time>2026-09-01T20:01:00Z</time>
  <course>211.72</course>
  <speed>0.06403124237432849</speed>
  <fix>3d</fix>
</trkpt>
<trkpt lat="-27.2157595" lon="151.4418789">
  <ele>496.14</ele>
  <time>2026-09-01T20:01:00Z</time>
  <course>307.03</course>
  <speed>0.09</speed>
  <fix>3d</fix>
</trkpt>
<trkpt lat="-27.2157594" lon="151.4418786">
  <ele>495.53</ele>
  <time>2026-09-01T20:01:00Z</time>
  <course>211.73</course>
  <speed>0.05</speed>
  <fix>3d</fix>
</trkpt>
<trkpt lat="-27.2157594" lon="151.4418787">
  <ele>495.84</ele>
  <time>2026-09-01T20:01:00Z</time>
  <course>307.97</course>
  <speed>0.08</speed>
  <fix>3d</fix>
</trkpt>
<trkpt lat="-27.2157594" lon="151.4418786">
  <ele>495.38</ele>
  <time>2026-09-01T20:01:00Z</time>
  <course>211.75</course>
  <speed>0.05</speed>
  <fix>3d</fix>
</trkpt>
<trkpt lat="-27.2157594" lon="151.4418787">
  <ele>495.84</ele>
  <time>2026-09-01T20:01:00Z</time>
  <course>307.97</course>
  <speed>0.08</speed>
  <fix>3d</fix>
</trkpt>
<trkpt lat="-27.2157593" lon="151.4418786">
  <ele>495.23</ele>
  <time>2026-09-01T20:01:00Z</time>
  <course>211.77</course>
  <speed>0.03605551275463989</speed>
  <fix>3d</fix>
</trkpt>
<trkpt lat="-27.2157594" lon="151.4418786">
  <ele>495.54</ele>
  <time>2026-09-01T20:01:00Z</time>
  <course>309.49</course>
  <speed>0.06</speed>
  <fix>3d</fix>
</trkpt>
<trkpt lat="-27.2157593" lon="151.4418785">
  <ele>495.08</ele>
  <time>2026-09-01T20:01:00Z</time>
  <course>211.8</course>
  <speed>0.0282842712474619</speed>
  <fix>3d</fix>
</trkpt>
<trkpt lat="-27.2157594" lon="151.4418786">
  <ele>495.54</ele>
  <time>2026-09-01T20:01:00Z</time>
  <course>309.49</course>
  <speed>0.06</speed>
  <fix>3d</fix>
</trkpt>
<trkpt lat="-27.2157593" lon="151.4418785">
  <ele>494.93</ele>
  <time>2026-09-01T20:01:00Z</time>
  <course>211.83</course>
  <speed>0.01414213562373095</speed>
  <fix>3d</fix>
</trkpt>
<trkpt lat="-27.2157593" lon="151.4418785">
  <ele>495.24</ele>
  <time>2026-09-01T20:01:00Z</time>
  <course>312.12</course>
  <speed>0.04</speed>
  <fix>3d</fix>
</trkpt>
<trkpt lat="-27.2157593" lon="151.4418785">
  <ele>494.78</ele>
  <time>2026-09-01T20:01:00Z</time>
  <course>211.87</course>
  <speed>0.01</speed>
  <fix>3d</fix>
</trkpt>
<trkpt lat="-27.2157593" lon="151.4418785">
  <ele>495.24</ele>
  <time>2026-09-01T20:01:00Z</time>
  <course>312.12</course>
  <speed>0.04</speed>
  <fix>3d</fix>
</trkpt>
<trkpt lat="-27.2157593" lon="151.4418785">
  <ele>494.63</ele>
  <time>2026-09-01T20:01:00Z</time>
  <course>211.93</course>
  <speed>0.0</speed>
  <fix>3d</fix>
</trkpt>
<trkpt lat="-27.2157593" lon="151.4418785">
  <ele>494.94</ele>
  <time>2026-09-01T20:01:00Z</time>
  <course>319.58</course>
  <speed>0.02</speed>
  <fix>3d</fix>
</trkpt>
<trkpt lat="-27.2157593" lon="151.4418785">
  <ele>494.49</ele>
  <time>2026-09-01T20:01:00Z</time>
  <course>212.04</course>
  <speed>0.01</speed>
  <fix>3d</fix>
</trkpt>
<trkpt lat="-27.2157593" lon="151.4418785">
  <ele>494.94</ele>
  <time>2026-09-01T20:01:00Z</time>
  <course>319.58</course>
  <speed>0.02</speed>
  <fix>3d</fix>
</trkpt>
<trkpt lat="-27.2157593" lon="151.4418785">
  <ele>494.34</ele>
  <time>2026-09-01T20:01:00Z</time>
  <course>212.14</course>
  <speed>0.02</speed>
  <fix>3d</fix>
</trkpt>
<trkpt lat="-27.2157593" lon="151.4418785">
  <ele>494.64</ele>
  <time>2026-09-01T20:01:00Z</time>
  <course>68.32</course>
  <speed>0.0</speed>
  <fix>3d</fix>
</trkpt>
<trkpt lat="-27.2157593" lon="151.4418786">
  <ele>494.19</ele>
  <time>2026-09-01T20:01:00Z</time>
  <course>212.07</course>
  <speed>0.02</speed>
  <fix>3d</fix>
</trkpt>
<trkpt lat="-27.2157593" lon="151.4418785">
  <ele>494.64</ele>
  <time>2026-09-01T20:01:00Z</time>
  <course>68.32</course>
  <speed>0.0</speed>
  <fix>3d</fix>
</trkpt>
<trkpt lat="-27.2157593" lon="151.4418786">
  <ele>494.04</ele>
  <time>2026-09-01T20:01:00Z</time>
  <course>211.87</course>
  <speed>0.02</speed>
  <fix>3d</fix>
</trkpt>
<trkpt lat="-27.2157593" lon="151.4418785">
  <ele>494.34</ele>
  <time>2026-09-01T20:01:00Z</time>
  <course>109.43</course>
  <speed>0.02</speed>
  <fix>3d</fix>
</trkpt>
<trkpt lat="-27.2157593" lon="151.4418786">
  <ele>493.89</ele>
  <time>2026-09-01T20:01:00Z</time>
  <course>211.59</course>
  <speed>0.022360679774997897</speed>
  <fix>3d</fix>
</trkpt>
<trkpt lat="-27.2157593" lon="151.4418785">
  <ele>494.34</ele>
  <time>2026-09-01T20:01:00Z</time>
  <course>109.43</course>
  <speed>0.02</speed>
  <fix>3d</fix>
</trkpt>
<trkpt lat="-27.2157593" lon="151.4418786">
  <ele>493.74</ele>
  <time>2026-09-01T20:01:00Z</time>
  <course>211.31</course>
  <speed>0.022360679774997897</speed>
  <fix>3d</fix>
</trkpt>
<trkpt lat="-27.2157593" lon="151.4418786">
  <ele>494.04</ele>
  <time>2026-09-01T20:01:00Z</time>
  <course>113.27</course>
  <speed>0.02</speed>
  <fix>3d</fix>
</trkpt>
<trkpt lat="-27.2157593" lon="151.4418786">
  <ele>493.59</ele>
  <time>2026-09-01T20:01:00Z</time>
  <course>211.05</course>
  <speed>0.022360679774997897</speed>
  <fix>3d</fix>
</trkpt>
<trkpt lat="-27.2157593" lon="151.4418786">
  <ele>494.04</ele>
  <time>2026-09-01T20:01:00Z</time>
  <course>113.27</course>
  <speed>0.02</speed>
  <fix>3d</fix>
</trkpt>
<trkpt lat="-27.2157593" lon="151.4418786">
  <ele>493.44</ele>
  <time>2026-09-01T20:01:00Z</time>
  <course>210.86</course>
  <speed>0.022360679774997897</speed>
  <fix>3d</fix>
</trkpt>
<trkpt lat="-27.2157593" lon="151.4418786">
  <ele>493.74</ele>
  <time>2026-09-01T20:01:00Z</time>
  <course>115.56</course>
  <speed>0.02</speed>
  <fix>3d</fix>
</trkpt>
<trkpt lat="-27.2157593" lon="151.4418786">
  <ele>493.28</ele>
  <time>2026-09-01T20:01:00Z</time>
  <course>210.72</course>
  <speed>0.01414213562373095</speed>
  <fix>3d</fix>
</trkpt>
<trkpt lat="-27.2157593" lon="151.4418786">
  <ele>493.74</ele>
  <time>2026-09-01T20:01:00Z</time>
  <course>115.56</course>
  <speed>0.02</speed>
  <fix>3d</fix>
</trkpt>
<trkpt lat="-27.2157593" lon="151.4418786">
  <ele>493.13</ele>
  <time>2026-09-01T20:01:00Z</time>
  <course>210.65</course>
  <speed>0.01414213562373095</speed>
  <fix>3d</fix>
</trkpt>
<trkpt lat="-27.2157593" lon="151.4418786">
  <ele>493.44</ele>
  <time>2026-09-01T20:01:00Z</time>
  <course>117.15</course>
  <speed>0.02</speed>
  <fix>3d</fix>
</trkpt>
<trkpt lat="-27.2157593" lon="151.4418786">
  <ele>492.98</ele>
  <time>2026-09-01T20:01:00Z</time>
  <course>210.62</course>
  <speed>0.01</speed>
  <fix>3d</fix>
</trkpt>
<trkpt lat="-27.2157593" lon="151.4418786">
  <ele>493.44</ele>
  <time>2026-09-01T20:01:00Z</time>
  <course>117.15</course>
  <speed>0.02</speed>
  <fix>3d</fix>
</trkpt>
<trkpt lat="-27.2157593" lon="151.4418786">
  <ele>492.83</ele>
  <time>2026-09-01T20:01:00Z</time>
  <course>210.63</course>
  <speed>0.01</speed>
  <fix>3d</fix>
</trkpt>
<trkpt lat="-27.2157593" lon="151.4418786">
  <ele>493.14</ele>
  <time>2026-09-01T20:01:00Z</time>
  <course>117.6</course>
  <speed>0.02</speed>
  <fix>3d</fix>
</trkpt>
<trkpt lat="-27.2157593" lon="151.4418787">
  <ele>492.68</ele>
  <time>2026-09-01T20:01:00Z</time>
  <course>210.66</course>
  <speed>0.01</speed>
  <fix>3d</fix>
</trkpt>
<trkpt lat="-27.2157593" lon="151.4418786">
  <ele>493.14</ele>
  <time>2026-09-01T20:01:00Z</time>
  <course>117.6</course>
  <speed>0.02</speed>
  <fix>3d</fix>
</trkpt>
<trkpt lat="-27.2157593" lon="151.4418787">
  <ele>492.53</ele>
  <time>2026-09-01T20:01:00Z</time>
  <course>210.7</course>
  <speed>0.01</speed>
  <fix>3d</fix>
</trkpt>
<trkpt lat="-27.2157593" lon="151.4418786">
  <ele>492.84</ele>
  <time>2026-09-01T20:01:00Z</time>
  <course>117.39</course>
  <speed>0.02</speed>
  <fix>3d</fix>
</trkpt>
<trkpt lat="-27.2157593" lon="151.4418787">
  <ele>492.38</ele>
  <time>2026-09-01T20:01:00Z</time>
  <course>210.75</course>
  <speed>0.01</speed>
  <fix>3d</fix>
</trkpt>
<trkpt lat="-27.2157593" lon="151.4418786">
  <ele>492.84</ele>
  <time>2026-09-01T20:01:00Z</time>
  <course>117.39</course>
  <speed>0.02</speed>
  <fix>3d</fix>
</trkpt>
<trkpt lat="-27.2157593" lon="151.4418787">
  <ele>492.23</ele>
  <time>2026-09-01T20:01:00Z</time>
  <course>210.79</course>
  <speed>0.01</speed>
  <fix>3d</fix>
</trkpt>
<trkpt lat="-27.2157593" lon="151.4418787">
  <ele>492.54</ele>
  <time>2026-09-01T20:01:00Z</time>
  <course>117.77</course>
  <speed>0.02</speed>
  <fix>3d</fix>
</trkpt>
<trkpt lat="-27.2157593" lon="151.4418787">
  <ele>492.09</ele>
  <time>2026-09-01T20:01:00Z</time>
  <course>210.81</course>
  <speed>0.01414213562373095</speed>
  <fix>3d</fix>
</trkpt>
<trkpt lat="-27.2157593" lon="151.4418787">
  <ele>492.54</ele>
  <time>2026-09-01T20:01:00Z</time>
  <course>117.77</course>
  <speed>0.02</speed>
  <fix>3d</fix>
</trkpt>
<trkpt lat="-27.2157593" lon="151.4418787">
  <ele>491.94</ele>
  <time>2026-09-01T20:01:00Z</time>
  <course>210.81</course>
  <speed>0.01414213562373095</speed>
  <fix>3d</fix>
</trkpt>
<trkpt lat="-27.2157593" lon="151.4418787">
  <ele>492.24</ele>
  <time>2026-09-01T20:01:00Z</time>
  <course>119.6</course>
  <speed>0.02</speed>
  <fix>3d</fix>
</trkpt>
<trkpt lat="-27.2157593" lon="151.4418787">
  <ele>491.79</ele>
  <time>2026-09-01T20:01:00Z</time>
  <course>210.8</course>
  <speed>0.01414213562373095</speed>
  <fix>3d</fix>
</trkpt>
<trkpt lat="-27.2157593" lon="151.4418787">
  <ele>492.24</ele>
  <time>2026-09-01T20:01:00Z</time>
  <course>119.6</course>
  <speed>0.02</speed>
  <fix>3d</fix>
</trkpt>
<trkpt lat="-27.2157594" lon="151.4418787">
  <ele>491.64</ele>
  <time>2026-09-01T20:01:00Z</time>
  <course>210.79</course>
  <speed>0.01414213562373095</speed>
  <fix>3d</fix>
</trkpt>
<trkpt lat="-27.2157593" lon="151.4418787">
  <ele>491.94</ele>
  <time>2026-09-01T20:01:00Z</time>
  <course>122.41</course>
  <speed>0.01</speed>
  <fix>3d</fix>
</trkpt>
<trkpt lat="-27.2157594" lon="151.4418787">
  <ele>491.49</ele>
  <time>2026-09-01T20:01:00Z</time>
  <course>210.77</course>
  <speed>0.01414213562373095</speed>
  <fix>3d</fix>
</trkpt>
<trkpt lat="-27.2157593" lon="151.4418787">
  <ele>491.94</ele>
  <time>2026-09-01T20:01:00Z</time>
  <course>122.41</course>
  <speed>0.01</speed>
  <fix>3d</fix>
</trkpt>
<trkpt lat="-27.2157594" lon="151.4418787">
  <ele>491.34</ele>
  <time>2026-09-01T20:01:00Z</time>
  <course>210.75</course>
  <speed>0.01414213562373095</speed>
  <fix>3d</fix>
</trkpt>
<trkpt lat="-27.2157593" lon="151.4418787">
  <ele>491.64</ele>
  <time>2026-09-01T20:01:00Z</time>
  <course>124.62</course>
  <speed>0.01</speed>
  <fix>3d</fix>
</trkpt>
<trkpt lat="-27.2157594" lon="151.4418787">
  <ele>491.19</ele>
  <time>2026-09-01T20:01:00Z</time>
  <course>210.73</course>
  <speed>0.01414213562373095</speed>
  <fix>3d</fix>
</trkpt>
<trkpt lat="-27.2157593" lon="151.4418787">
  <ele>491.64</ele>
  <time>2026-09-01T20:01:00Z</time>
  <course>124.62</course>
  <speed>0.01</speed>
  <fix>3d</fix>
</trkpt>
<trkpt lat="-27.2157594" lon="151.4418787">
  <ele>491.04</ele>
  <time>2026-09-01T20:01:00Z</time>
  <course>210.7</course>
  <speed>0.01414213562373095</speed>
  <fix>3d</fix>
</trkpt>
<trkpt lat="-27.2157594" lon="151.4418787">
  <ele>491.34</ele>
  <time>2026-09-01T20:01:00Z</time>
  <course>126.38</course>
  <speed>0.01</speed>
  <fix>3d</fix>
</trkpt>
<trkpt lat="-27.2157594" lon="151.4418789">
  <ele>490.89</ele>
  <time>2026-09-01T20:01:00Z</time>
  <course>210.68</course>
  <speed>0.01414213562373095</speed>
  <fix>3d</fix>
</trkpt>
<trkpt lat="-27.2157594" lon="151.4418787">
  <ele>491.34</ele>
  <time>2026-09-01T20:01:00Z</time>
  <course>126.38</course>
  <speed>0.01</speed>
  <fix>3d</fix>
</trkpt>
<trkpt lat="-27.2157594" lon="151.4418789">
  <ele>490.74</ele>
  <time>2026-09-01T20:01:00Z</time>
  <course>210.67</course>
  <speed>0.01414213562373095</speed>
  <fix>3d</fix>
</trkpt>
<trkpt lat="-27.2157594" lon="151.4418788">
  <ele>491.04</ele>
  <time>2026-09-01T20:01:00Z</time>
  <course>126.57</course>
  <speed>0.01</speed>
  <fix>3d</fix>
</trkpt>
<trkpt lat="-27.2157594" lon="151.4418789">
  <ele>490.59</ele>
  <time>2026-09-01T20:01:00Z</time>
  <course>210.68</course>
  <speed>0.01414213562373095</speed>
  <fix>3d</fix>
</trkpt>
<trkpt lat="-27.2157594" lon="151.4418788">
  <ele>491.04</ele>
  <time>2026-09-01T20:01:00Z</time>
  <course>126.57</course>
  <speed>0.01</speed>
  <fix>3d</fix>
</trkpt>
<trkpt lat="-27.2157594" lon="151.4418789">
  <ele>490.44</ele>
  <time>2026-09-01T20:01:00Z</time>
  <course>210.7</course>
  <speed>0.01414213562373095</speed>
  <fix>3d</fix>
</trkpt>
<trkpt lat="-27.2157594" lon="151.4418789">
  <ele>490.74</ele>
  <time>2026-09-01T20:01:00Z</time>
  <course>126.4</course>
  <speed>0.01</speed>
  <fix>3d</fix>
</trkpt>
<trkpt lat="-27.2157594" lon="151.4418789">
  <ele>490.29</ele>
  <time>2026-09-01T20:01:00Z</time>
  <course>210.71</course>
  <speed>0.01414213562373095</speed>
  <fix>3d</fix>
</trkpt>
<trkpt lat="-27.2157594" lon="151.4418789">
  <ele>490.74</ele>
  <time>2026-09-01T20:01:00Z</time>
  <course>126.4</course>
  <speed>0.01</speed>
  <fix>3d</fix>
</trkpt>
<trkpt lat="-27.2157595" lon="151.4418789">
  <ele>490.13</ele>
  <time>2026-09-01T20:01:00Z</time>
  <course>210.7</course>
  <speed>0.01414213562373095</speed>
  <fix>3d</fix>
</trkpt>
<trkpt lat="-27.2157594" lon="151.4418789">
  <ele>490.44</ele>
  <time>2026-09-01T20:01:00Z</time>
  <course>128.07</course>
  <speed>0.01</speed>
  <fix>3d</fix>
</trkpt>
<trkpt lat="-27.2157595" lon="151.4418789">
  <ele>489.98</ele>
  <time>2026-09-01T20:01:00Z</time>
  <course>210.7</course>
  <speed>0.01414213562373095</speed>
  <fix>3d</fix>
</trkpt>
<trkpt lat="-27.2157594" lon="151.4418789">
  <ele>490.44</ele>
  <time>2026-09-01T20:01:00Z</time>
  <course>128.07</course>
  <speed>0.01</speed>
  <fix>3d</fix>
</trkpt>
<trkpt lat="-27.2157595" lon="151.441879">
  <ele>489.83</ele>
  <time>2026-09-01T20:01:00Z</time>
  <course>210.69</course>
  <speed>0.01414213562373095</speed>
  <fix>3d</fix>
</trkpt>
<trkpt lat="-27.2157594" lon="151.4418789">
  <ele>490.14</ele>
  <time>2026-09-01T20:01:00Z</time>
  <course>130.55</course>
  <speed>0.01</speed>
  <fix>3d</fix>
</trkpt>
<trkpt lat="-27.2157595" lon="151.441879">
  <ele>489.68</ele>
  <time>2026-09-01T20:01:00Z</time>
  <course>210.69</course>
  <speed>0.01414213562373095</speed>
  <fix>3d</fix>
</trkpt>
<trkpt lat="-27.2157594" lon="151.4418789">
  <ele>490.14</ele>
  <time>2026-09-01T20:01:00Z</time>
  <course>130.55</course>
  <speed>0.01</speed>
  <fix>3d</fix>
</trkpt>
<trkpt lat="-27.2157595" lon="151.441879">
  <ele>489.54</ele>
  <time>2026-09-01T20:01:00Z</time>
  <course>210.68</course>
  <speed>0.01414213562373095</speed>
  <fix>3d</fix>
</trkpt>
<trkpt lat="-27.2157595" lon="151.4418789">
  <ele>489.84</ele>
  <time>2026-09-01T20:01:00Z</time>
  <course>133.14</course>
  <speed>0.01</speed>
  <fix>3d</fix>
</trkpt>
<trkpt lat="-27.2157595" lon="151.441879">
  <ele>489.39</ele>
  <time>2026-09-01T20:01:00Z</time>
  <course>210.68</course>
  <speed>0.01414213562373095</speed>
  <fix>3d</fix>
</trkpt>
<trkpt lat="-27.2157595" lon="151.4418789">
  <ele>489.84</ele>
  <time>2026-09-01T20:01:00Z</time>
  <course>133.14</course>
  <speed>0.01</speed>
  <fix>3d</fix>
</trkpt>
<trkpt lat="-27.2157595" lon="151.441879">
  <ele>489.24</ele>
  <time>2026-09-01T20:01:00Z</time>
  <course>210.69</course>
  <speed>0.01414213562373095</speed>
  <fix>3d</fix>
</trkpt>
<trkpt lat="-27.2157595" lon="151.441879">
  <ele>489.54</ele>
  <time>2026-09-01T20:01:00Z</time>
  <course>134.53</course>
  <speed>0.01</speed>
  <fix>3d</fix>
</trkpt>
<trkpt lat="-27.2157595" lon="151.441879">
  <ele>489.08</ele>
  <time>2026-09-01T20:01:00Z</time>
  <course>210.71</course>
  <speed>0.01414213562373095</speed>
  <fix>3d</fix>
</trkpt>
<trkpt lat="-27.2157595" lon="151.441879">
  <ele>489.54</ele>
  <time>2026-09-01T20:01:00Z</time>
  <course>134.53</course>
  <speed>0.01</speed>
  <fix>3d</fix>
</trkpt>
<trkpt lat="-27.2157595" lon="151.441879">
  <ele>488.93</ele>
  <time>2026-09-01T20:01:00Z</time>
  <course>210.72</course>
  <speed>0.01414213562373095</speed>
  <fix>3d</fix>
</trkpt>
<trkpt lat="-27.2157595" lon="151.441879">
  <ele>489.24</ele>
  <time>2026-09-01T20:01:00Z</time>
  <course>134.81</course>
  <speed>0.01</speed>
  <fix>3d</fix>
</trkpt>
<trkpt lat="-27.2157596" lon="151.4418791">
  <ele>488.78</ele>
  <time>2026-09-01T20:01:00Z</time>
  <course>210.72</course>
  <speed>0.01414213562373095</speed>
  <fix>3d</fix>
</trkpt>
<trkpt lat="-27.2157595" lon="151.441879">
  <ele>489.24</ele>
  <time>2026-09-01T20:01:00Z</time>
  <course>134.81</course>
  <speed>0.01</speed>
  <fix>3d</fix>
</trkpt>
<trkpt lat="-27.2157596" lon="151.4418791">
  <ele>488.64</ele>
  <time>2026-09-01T20:01:00Z</time>
  <course>210.72</course>
  <speed>0.01414213562373095</speed>
  <fix>3d</fix>
</trkpt>
<trkpt lat="-27.2157595" lon="151.441879">
  <ele>488.94</ele>
  <time>2026-09-01T20:01:00Z</time>
  <course>135.98</course>
  <speed>0.01</speed>
  <fix>3d</fix>
</trkpt>
<trkpt lat="-27.2157596" lon="151.4418791">
  <ele>488.49</ele>
  <time>2026-09-01T20:01:00Z</time>
  <course>210.73</course>
  <speed>0.01414213562373095</speed>
  <fix>3d</fix>
</trkpt>
<trkpt lat="-27.2157595" lon="151.441879">
  <ele>488.94</ele>
  <time>2026-09-01T20:01:00Z</time>
  <course>135.98</course>
  <speed>0.01</speed>
  <fix>3d</fix>
</trkpt>
<trkpt lat="-27.2157596" lon="151.4418791">
  <ele>488.34</ele>
  <time>2026-09-01T20:01:00Z</time>
  <course>210.74</course>
  <speed>0.01414213562373095</speed>
  <fix>3d</fix>
</trkpt>
<trkpt lat="-27.2157596" lon="151.4418791">
  <ele>488.64</ele>
  <time>2026-09-01T20:01:00Z</time>
  <course>137.32</course>
  <speed>0.01</speed>
  <fix>3d</fix>
</trkpt>
<trkpt lat="-27.2157596" lon="151.4418791">
  <ele>488.19</ele>
  <time>2026-09-01T20:01:00Z</time>
  <course>210.74</course>
  <speed>0.01414213562373095</speed>
  <fix>3d</fix>
</trkpt>
<trkpt lat="-27.2157596" lon="151.4418791">
  <ele>488.64</ele>
  <time>2026-09-01T20:01:00Z</time>
  <course>137.32</course>
  <speed>0.01</speed>
  <fix>3d</fix>
</trkpt>
<trkpt lat="-27.2157596" lon="151.4418791">
  <ele>488.04</ele>
  <time>2026-09-01T20:01:00Z</time>
  <course>210.74</course>
  <speed>0.01414213562373095</speed>
  <fix>3d</fix>
</trkpt>
<trkpt lat="-27.2157596" lon="151.4418791">
  <ele>488.34</ele>
  <time>2026-09-01T20:01:00Z</time>
  <course>137.68</course>
  <speed>0.01</speed>
  <fix>3d</fix>
</trkpt>
<trkpt lat="-27.2157596" lon="151.4418791">
  <ele>487.89</ele>
  <time>2026-09-01T20:01:00Z</time>
  <course>210.74</course>
  <speed>0.01414213562373095</speed>
  <fix>3d</fix>
</trkpt>
<trkpt lat="-27.2157596" lon="151.4418791">
  <ele>488.34</ele>
  <time>2026-09-01T20:01:00Z</time>
  <course>137.68</course>
  <speed>0.01</speed>
  <fix>3d</fix>
</trkpt>
<trkpt lat="-27.2157596" lon="151.4418791">
  <ele>487.74</ele>
  <time>2026-09-01T20:01:00Z</time>
  <course>210.74</course>
  <speed>0.01414213562373095</speed>
  <fix>3d</fix>
</trkpt>
<trkpt lat="-27.2157596" lon="151.4418791">
  <ele>488.04</ele>
  <time>2026-09-01T20:01:00Z</time>
  <course>137.72</course>
  <speed>0.01</speed>
  <fix>3d</fix>
</trkpt>
<trkpt lat="-27.2157597" lon="151.4418792">
  <ele>487.59</ele>
  <time>2026-09-01T20:01:00Z</time>
  <course>210.73</course>
  <speed>0.01414213562373095</speed>
  <fix>3d</fix>
</trkpt>
<trkpt lat="-27.2157596" lon="151.4418791">
  <ele>488.04</ele>
  <time>2026-09-01T20:01:00Z</time>
  <course>137.72</course>
  <speed>0.01</speed>
  <fix>3d</fix>
</trkpt>
<trkpt lat="-27.2157597" lon="151.4418792">
  <ele>487.44</ele>
  <time>2026-09-01T20:01:00Z</time>
  <course>210.73</course>
  <speed>0.01414213562373095</speed>
  <fix>3d</fix>
</trkpt>
<trkpt lat="-27.2157596" lon="151.4418791">
  <ele>487.74</ele>
  <time>2026-09-01T20:01:00Z</time>
  <course>138.03</course>
  <speed>0.01</speed>
  <fix>3d</fix>
</trkpt>
<trkpt lat="-27.2157597" lon="151.4418792">
  <ele>487.29</ele>
  <time>2026-09-01T20:01:00Z</time>
  <course>210.74</course>
  <speed>0.01414213562373095</speed>
  <fix>3d</fix>
</trkpt>
<trkpt lat="-27.2157596" lon="151.4418791">
  <ele>487.74</ele>
  <time>2026-09-01T20:01:00Z</time>
  <course>138.03</course>
  <speed>0.01</speed>
  <fix>3d</fix>
</trkpt>
<trkpt lat="-27.2157597" lon="151.4418792">
  <ele>487.14</ele>
  <time>2026-09-01T20:01:00Z</time>
  <course>210.76</course>
  <speed>0.01414213562373095</speed>
  <fix>3d</fix>
</trkpt>
<trkpt lat="-27.2157597" lon="151.4418792">
  <ele>487.44</ele>
  <time>2026-09-01T20:01:00Z</time>
  <course>138.01</course>
  <speed>0.01</speed>
  <fix>3d</fix>
</trkpt>
<trkpt lat="-27.2157597" lon="151.4418792">
  <ele>486.98</ele>
  <time>2026-09-01T20:01:00Z</time>
  <course>210.77</course>
  <speed>0.01414213562373095</speed>
  <fix>3d</fix>
</trkpt>
<trkpt lat="-27.2157597" lon="151.4418792">
  <ele>487.44</ele>
  <time>2026-09-01T20:01:00Z</time>
  <course>138.01</course>
  <speed>0.01</speed>
  <fix>3d</fix>
</trkpt>
<trkpt lat="-27.2157597" lon="151.4418792">
  <ele>486.83</ele>
  <time>2026-09-01T20:01:00Z</time>
  <course>210.78</course>
  <speed>0.01414213562373095</speed>
  <fix>3d</fix>
</trkpt>
<trkpt lat="-27.2157597" lon="151.4418792">
  <ele>487.14</ele>
  <time>2026-09-01T20:01:00Z</time>
  <course>137.7</course>
  <speed>0.01</speed>
  <fix>3d</fix>
</trkpt>
<trkpt lat="-27.2157597" lon="151.4418792">
  <ele>486.68</ele>
  <time>2026-09-01T20:01:00Z</time>
  <course>210.77</course>
  <speed>0.01414213562373095</speed>
  <fix>3d</fix>
</trkpt>
<trkpt lat="-27.2157597" lon="151.4418792">
  <ele>487.14</ele>
  <time>2026-09-01T20:01:00Z</time>
  <course>137.7</course>
  <speed>0.01</speed>
  <fix>3d</fix>
</trkpt>
<trkpt lat="-27.2157597" lon="151.4418792">
  <ele>486.54</ele>
  <time>2026-09-01T20:01:00Z</time>
  <course>210.76</course>
  <speed>0.01414213562373095</speed>
  <fix>3d</fix>
</trkpt>
<trkpt lat="-27.2157597" lon="151.4418792">
  <ele>486.84</ele>
  <time>2026-09-01T20:01:00Z</time>
  <course>138.28</course>
  <speed>0.01</speed>
  <fix>3d</fix>
</trkpt>
<trkpt lat="-27.2157597" lon="151.4418792">
  <ele>486.39</ele>
  <time>2026-09-01T20:01:00Z</time>
  <course>210.75</course>
  <speed>0.01414213562373095</speed>
  <fix>3d</fix>
</trkpt>
<trkpt lat="-27.2157597" lon="151.4418792">
  <ele>486.84</ele>
  <time>2026-09-01T20:01:00Z</time>
  <course>138.28</course>
  <speed>0.01</speed>
  <fix>3d</fix>
</trkpt>
<trkpt lat="-27.2157598" lon="151.4418792">
  <ele>486.24</ele>
  <time>2026-09-01T20:01:00Z</time>
  <course>210.73</course>
  <speed>0.01414213562373095</speed>
  <fix>3d</fix>
</trkpt>
<trkpt lat="-27.2157597" lon="151.4418792">
  <ele>486.54</ele>
  <time>2026-09-01T20:01:00Z</time>
  <course>138.85</course>
  <speed>0.01</speed>
  <fix>3d</fix>
</trkpt>
<trkpt lat="-27.2157598" lon="151.4418792">
  <ele>486.09</ele>
  <time>2026-09-01T20:01:00Z</time>
  <course>210.71</course>
  <speed>0.01414213562373095</speed>
  <fix>3d</fix>
</trkpt>
<trkpt lat="-27.2157597" lon="151.4418792">
  <ele>486.54</ele>
  <time>2026-09-01T20:01:00Z</time>
  <course>138.85</course>
  <speed>0.01</speed>
  <fix>3d</fix>
</trkpt>
<trkpt lat="-27.2157598" lon="151.4418792">
  <ele>485.94</ele>
  <time>2026-09-01T20:01:00Z</time>
  <course>210.7</course>
  <speed>0.01414213562373095</speed>
  <fix>3d</fix>
</trkpt>
<trkpt lat="-27.2157597" lon="151.4418792">
  <ele>486.24</ele>
  <time>2026-09-01T20:01:00Z</time>
  <course>138.62</course>
  <speed>0.01</speed>
  <fix>3d</fix>
</trkpt>
<trkpt lat="-27.2157598" lon="151.4418792">
  <ele>485.79</ele>
  <time>2026-09-01T20:01:00Z</time>
  <course>210.69</course>
  <speed>0.01414213562373095</speed>
  <fix>3d</fix>
</trkpt>
<trkpt lat="-27.2157597" lon="151.4418792">
  <ele>486.24</ele>
  <time>2026-09-01T20:01:00Z</time>
  <course>138.62</course>
  <speed>0.01</speed>
  <fix>3d</fix>
</trkpt>
<trkpt lat="-27.2157598" lon="151.4418792">
  <ele>485.64</ele>
  <time>2026-09-01T20:01:00Z</time>
  <course>210.69</course>
  <speed>0.01414213562373095</speed>
  <fix>3d</fix>
</trkpt>
<trkpt lat="-27.2157598" lon="151.4418792">
  <ele>485.94</ele>
  <time>2026-09-01T20:01:00Z</time>
  <course>136.54</course>
  <speed>0.01</speed>
  <fix>3d</fix>
</trkpt>
<trkpt lat="-27.2157598" lon="151.4418792">
  <ele>485.49</ele>
  <time>2026-09-01T20:01:00Z</time>
  <course>210.69</course>
  <speed>0.01414213562373095</speed>
  <fix>3d</fix>
</trkpt>
<trkpt lat="-27.2157598" lon="151.4418792">
  <ele>485.94</ele>
  <time>2026-09-01T20:01:00Z</time>
  <course>136.54</course>
  <speed>0.01</speed>
  <fix>3d</fix>
</trkpt>
<trkpt lat="-27.2157598" lon="151.4418792">
  <ele>485.34</ele>
  <time>2026-09-01T20:01:00Z</time>
  <course>210.69</course>
  <speed>0.01</speed>
  <fix>3d</fix>
</trkpt>
<trkpt lat="-27.2157598" lon="151.4418792">
  <ele>485.64</ele>
  <time>2026-09-01T20:01:00Z</time>
  <course>132.29</course>
  <speed>0.01</speed>
  <fix>3d</fix>
</trkpt>
<trkpt lat="-27.2157598" lon="151.4418792">
  <ele>485.19</ele>
  <time>2026-09-01T20:01:00Z</time>
  <course>210.7</course>
  <speed>0.01</speed>
  <fix>3d</fix>
</trkpt>
<trkpt lat="-27.2157598" lon="151.4418792">
  <ele>485.64</ele>
  <time>2026-09-01T20:01:00Z</time>
  <course>132.29</course>
  <speed>0.01</speed>
  <fix>3d</fix>
</trkpt>
<trkpt lat="-27.2157598" lon="151.4418794">
  <ele>485.04</ele>
  <time>2026-09-01T20:01:00Z</time>
  <course>210.7</course>
  <speed>0.01</speed>
  <fix>3d</fix>
</trkpt>
<trkpt lat="-27.2157598" lon="151.4418792">
  <ele>485.34</ele>
  <time>2026-09-01T20:01:00Z</time>
  <course>128.1</course>
  <speed>0.01</speed>
  <fix>3d</fix>
</trkpt>
<trkpt lat="-27.2157598" lon="151.4418794">
  <ele>484.88</ele>
  <time>2026-09-01T20:01:00Z</time>
  <course>210.71</course>
  <speed>0.01</speed>
  <fix>3d</fix>
</trkpt>
<trkpt lat="-27.2157598" lon="151.4418792">
  <ele>485.34</ele>
  <time>2026-09-01T20:01:00Z</time>
  <course>128.1</course>
  <speed>0.01</speed>
  <fix>3d</fix>
</trkpt>
<trkpt lat="-27.2157599" lon="151.4418794">
  <ele>484.74</ele>
  <time>2026-09-01T20:01:00Z</time>
  <course>210.73</course>
  <speed>0.01</speed>
  <fix>3d</fix>
</trkpt>
<trkpt lat="-27.2157598" lon="151.4418793">
  <ele>485.04</ele>
  <time>2026-09-01T20:01:00Z</time>
  <course>125.2</course>
  <speed>0.01</speed>
  <fix>3d</fix>
</trkpt>
<trkpt lat="-27.2157599" lon="151.4418794">
  <ele>484.59</ele>
  <time>2026-09-01T20:01:00Z</time>
  <course>210.75</course>
  <speed>0.01</speed>
  <fix>3d</fix>
</trkpt>
<trkpt lat="-27.2157598" lon="151.4418793">
  <ele>485.04</ele>
  <time>2026-09-01T20:01:00Z</time>
  <course>125.2</course>
  <speed>0.01</speed>
  <fix>3d</fix>
</trkpt>
<trkpt lat="-27.2157599" lon="151.4418794">
  <ele>484.44</ele>
  <time>2026-09-01T20:01:00Z</time>
  <course>210.78</course>
  <speed>0.01414213562373095</speed>
  <fix>3d</fix>
</trkpt>
<trkpt lat="-27.2157598" lon="151.4418794">
  <ele>484.74</ele>
  <time>2026-09-01T20:01:00Z</time>
  <course>125.07</course>
  <speed>0.01</speed>
  <fix>3d</fix>
</trkpt>
<trkpt lat="-27.2157599" lon="151.4418794">
  <ele>484.29</ele>
  <time>2026-09-01T20:01:00Z</time>
  <course>210.81</course>
  <speed>0.01414213562373095</speed>
  <fix>3d</fix>
</trkpt>
<trkpt lat="-27.2157598" lon="151.4418794">
  <ele>484.74</ele>
  <time>2026-09-01T20:01:00Z</time>
  <course>125.07</course>
  <speed>0.01</speed>
  <fix>3d</fix>
</trkpt>
<trkpt lat="-27.2157599" lon="151.4418794">
  <ele>484.14</ele>
  <time>2026-09-01T20:01:00Z</time>
  <course>210.83</course>
  <speed>0.01414213562373095</speed>
  <fix>3d</fix>
</trkpt>
<trkpt lat="-27.2157599" lon="151.4418794">
  <ele>484.44</ele>
  <time>2026-09-01T20:01:00Z</time>
  <course>127.73</course>
  <speed>0.01</speed>
  <fix>3d</fix>
</trkpt>
<trkpt lat="-27.2157599" lon="151.4418794">
  <ele>483.99</ele>
  <time>2026-09-01T20:01:00Z</time>
  <course>210.86</course>
  <speed>0.01414213562373095</speed>
  <fix>3d</fix>
</trkpt>
<trkpt lat="-27.2157599" lon="151.4418794">
  <ele>484.44</ele>
  <time>2026-09-01T20:01:00Z</time>
  <course>127.73</course>
  <speed>0.01</speed>
  <fix>3d</fix>
</trkpt>
<trkpt lat="-27.2157599" lon="151.4418795">
  <ele>483.84</ele>
  <time>2026-09-01T20:01:00Z</time>
  <course>210.88</course>
  <speed>0.01414213562373095</speed>
  <fix>3d</fix>
</trkpt>
<trkpt lat="-27.2157599" lon="151.4418794">
  <ele>484.14</ele>
  <time>2026-09-01T20:01:00Z</time>
  <course>130.72</course>
  <speed>0.01</speed>
  <fix>3d</fix>
</trkpt>
<trkpt lat="-27.2157599" lon="151.4418795">
  <ele>483.69</ele>
  <time>2026-09-01T20:01:00Z</time>
  <course>210.9</course>
  <speed>0.01414213562373095</speed>
  <fix>3d</fix>
</trkpt>
<trkpt lat="-27.2157599" lon="151.4418794">
  <ele>484.14</ele>
  <time>2026-09-01T20:01:00Z</time>
  <course>130.72</course>
  <speed>0.01</speed>
  <fix>3d</fix>
</trkpt>
<trkpt lat="-27.2157599" lon="151.4418795">
  <ele>483.54</ele>
  <time>2026-09-01T20:01:00Z</time>
  <course>210.91</course>
  <speed>0.01414213562373095</speed>
  <fix>3d</fix>
</trkpt>
<trkpt lat="-27.2157599" lon="151.4418794">
  <ele>483.84</ele>
  <time>2026-09-01T20:01:00Z</time>
  <course>131.32</course>
  <speed>0.01</speed>
  <fix>3d</fix>
</trkpt>
<trkpt lat="-27.2157599" lon="151.4418795">
  <ele>483.39</ele>
  <time>2026-09-01T20:01:00Z</time>
  <course>210.92</course>
  <speed>0.01414213562373095</speed>
  <fix>3d</fix>
</trkpt>
<trkpt lat="-27.2157599" lon="151.4418794">
  <ele>483.84</ele>
  <time>2026-09-01T20:01:00Z</time>
  <course>131.32</course>
  <speed>0.01</speed>
  <fix>3d</fix>
</trkpt>
<trkpt lat="-27.21576" lon="151.4418795">
  <ele>483.24</ele>
  <time>2026-09-01T20:01:00Z</time>
  <course>210.92</course>
  <speed>0.01414213562373095</speed>
  <fix>3d</fix>
</trkpt>
<trkpt lat="-27.2157599" lon="151.4418795">
  <ele>483.54</ele>
  <time>2026-09-01T20:01:00Z</time>
  <course>130.23</course>
  <speed>0.01</speed>
  <fix>3d</fix>
</trkpt>
<trkpt lat="-27.21576" lon="151.4418795">
  <ele>483.09</ele>
  <time>2026-09-01T20:01:00Z</time>
  <course>210.92</course>
  <speed>0.01414213562373095</speed>
  <fix>3d</fix>
</trkpt>
<trkpt lat="-27.2157599" lon="151.4418795">
  <ele>483.54</ele>
  <time>2026-09-01T20:01:00Z</time>
  <course>130.23</course>
  <speed>0.01</speed>
  <fix>3d</fix>
</trkpt>
<trkpt lat="-27.21576" lon="151.4418795">
  <ele>482.94</ele>
  <time>2026-09-01T20:01:00Z</time>
  <course>210.93</course>
  <speed>0.01414213562373095</speed>
  <fix>3d</fix>
</trkpt>
<trkpt lat="-27.2157599" lon="151.4418795">
  <ele>483.24</ele>
  <time>2026-09-01T20:01:00Z</time>
  <course>129.28</course>
  <speed>0.01</speed>
  <fix>3d</fix>
</trkpt>
<trkpt lat="-27.21576" lon="151.4418796">
  <ele>482.78</ele>
  <time>2026-09-01T20:01:00Z</time>
  <course>210.94</course>
  <speed>0.01414213562373095</speed>
  <fix>3d</fix>
</trkpt>
<trkpt lat="-27.2157599" lon="151.4418795">
  <ele>483.24</ele>
  <time>2026-09-01T20:01:00Z</time>
  <course>129.28</course>
  <speed>0.01</speed>
  <fix>3d</fix>
</trkpt>
<trkpt lat="-27.21576" lon="151.4418796">
  <ele>482.63</ele>
  <time>2026-09-01T20:01:00Z</time>
  <course>210.95</course>
  <speed>0.01414213562373095</speed>
  <fix>3d</fix>
</trkpt>
<trkpt lat="-27.21576" lon="151.4418795">
  <ele>482.94</ele>
  <time>2026-09-01T20:01:00Z</time>
  <course>127.57</course>
  <speed>0.01</speed>
  <fix>3d</fix>
</trkpt>
<trkpt lat="-27.21576" lon="151.4418796">
  <ele>482.49</ele>
  <time>2026-09-01T20:01:00Z</time>
  <course>210.96</course>
  <speed>0.01414213562373095</speed>
  <fix>3d</fix>
</trkpt>
<trkpt lat="-27.21576" lon="151.4418795">
  <ele>482.94</ele>
  <time>2026-09-01T20:01:00Z</time>
  <course>127.57</course>
  <speed>0.01</speed>
  <fix>3d</fix>
</trkpt>
<trkpt lat="-27.21576" lon="151.4418796">
  <ele>482.34</ele>
  <time>2026-09-01T20:01:00Z</time>
  <course>210.97</course>
  <speed>0.01414213562373095</speed>
  <fix>3d</fix>
</trkpt>
<trkpt lat="-27.21576" lon="151.4418796">
  <ele>482.64</ele>
  <time>2026-09-01T20:01:00Z</time>
  <course>126.14</course>
  <speed>0.01</speed>
  <fix>3d</fix>
</trkpt>
<trkpt lat="-27.21576" lon="151.4418796">
  <ele>482.19</ele>
  <time>2026-09-01T20:01:00Z</time>
  <course>210.98</course>
  <speed>0.01414213562373095</speed>
  <fix>3d</fix>
</trkpt>
<trkpt lat="-27.21576" lon="151.4418796">
  <ele>482.64</ele>
  <time>2026-09-01T20:01:00Z</time>
  <course>126.14</course>
  <speed>0.01</speed>
  <fix>3d</fix>
</trkpt>
<trkpt lat="-27.21576" lon="151.4418796">
  <ele>482.04</ele>
  <time>2026-09-01T20:01:00Z</time>
  <course>211.0</course>
  <speed>0.01414213562373095</speed>
  <fix>3d</fix>
</trkpt>
<trkpt lat="-27.21576" lon="151.4418796">
  <ele>482.34</ele>
  <time>2026-09-01T20:01:00Z</time>
  <course>126.71</course>
  <speed>0.01</speed>
  <fix>3d</fix>
</trkpt>
<trkpt lat="-27.21576" lon="151.4418796">
  <ele>481.89</ele>
  <time>2026-09-01T20:01:00Z</time>
  <course>211.03</course>
  <speed>0.01414213562373095</speed>
  <fix>3d</fix>
</trkpt>
<trkpt lat="-27.21576" lon="151.4418796">
  <ele>482.34</ele>
  <time>2026-09-01T20:01:00Z</time>
  <course>126.71</course>
  <speed>0.01</speed>
  <fix>3d</fix>
</trkpt>
<trkpt lat="-27.2157601" lon="151.4418796">
  <ele>481.74</ele>
  <time>2026-09-01T20:01:00Z</time>
  <course>211.04</course>
  <speed>0.01414213562373095</speed>
  <fix>3d</fix>
</trkpt>
<trkpt lat="-27.21576" lon="151.4418796">
  <ele>482.04</ele>
  <time>2026-09-01T20:01:00Z</time>
  <course>128.45</course>
  <speed>0.01</speed>
  <fix>3d</fix>
</trkpt>
<trkpt lat="-27.2157601" lon="151.4418796">
  <ele>481.58</ele>
  <time>2026-09-01T20:01:00Z</time>
  <course>211.05</course>
  <speed>0.01414213562373095</speed>
  <fix>3d</fix>
</trkpt>
<trkpt lat="-27.21576" lon="151.4418796">
  <ele>482.04</ele>
  <time>2026-09-01T20:01:00Z</time>
  <course>128.45</course>
  <speed>0.01</speed>
  <fix>3d</fix>
</trkpt>
<trkpt lat="-27.2157601" lon="151.4418796">
  <ele>481.43</ele>
  <time>2026-09-01T20:01:00Z</time>
  <course>211.05</course>
  <speed>0.01414213562373095</speed>
  <fix>3d</fix>
</trkpt>
<trkpt lat="-27.21576" lon="151.4418796">
  <ele>481.74</ele>
  <time>2026-09-01T20:01:00Z</time>
  <course>130.76</course>
  <speed>0.01</speed>
  <fix>3d</fix>
</trkpt>
<trkpt lat="-27.2157601" lon="151.4418796">
  <ele>481.28</ele>
  <time>2026-09-01T20:01:00Z</time>
  <course>211.06</course>
  <speed>0.01414213562373095</speed>
  <fix>3d</fix>
</trkpt>
<trkpt lat="-27.21576" lon="151.4418796">
  <ele>481.74</ele>
  <time>2026-09-01T20:01:00Z</time>
  <course>130.76</course>
  <speed>0.01</speed>
  <fix>3d</fix>
</trkpt>
<trkpt lat="-27.2157601" lon="151.4418796">
  <ele>481.13</ele>
  <time>2026-09-01T20:01:00Z</time>
  <course>211.06</course>
  <speed>0.01414213562373095</speed>
  <fix>3d</fix>
</trkpt>
<trkpt lat="-27.2157601" lon="151.4418796">
  <ele>481.44</ele>
  <time>2026-09-01T20:01:00Z</time>
  <course>132.8</course>
  <speed>0.01</speed>
  <fix>3d</fix>
</trkpt>
<trkpt lat="-27.2157601" lon="151.4418796">
  <ele>480.98</ele>
  <time>2026-09-01T20:01:00Z</time>
  <course>211.07</course>
  <speed>0.01414213562373095</speed>
  <fix>3d</fix>
</trkpt>
<trkpt lat="-27.2157601" lon="151.4418796">
  <ele>481.44</ele>
  <time>2026-09-01T20:01:00Z</time>
  <course>132.8</course>
  <speed>0.01</speed>
  <fix>3d</fix>
</trkpt>
<trkpt lat="-27.2157601" lon="151.4418797">
  <ele>480.83</ele>
  <time>2026-09-01T20:01:00Z</time>
  <course>211.08</course>
  <speed>0.01414213562373095</speed>
  <fix>3d</fix>
</trkpt>
<trkpt lat="-27.2157601" lon="151.4418796">
  <ele>481.14</ele>
  <time>2026-09-01T20:01:00Z</time>
  <course>133.41</course>
  <speed>0.02</speed>
  <fix>3d</fix>
</trkpt>
<trkpt lat="-27.2157601" lon="151.4418797">
  <ele>480.68</ele>
  <time>2026-09-01T20:01:00Z</time>
  <course>211.09</course>
  <speed>0.01414213562373095</speed>
  <fix>3d</fix>
</trkpt>
<trkpt lat="-27.2157601" lon="151.4418796">
  <ele>481.14</ele>
  <time>2026-09-01T20:01:00Z</time>
  <course>133.41</course>
  <speed>0.02</speed>
  <fix>3d</fix>
</trkpt>
<trkpt lat="-27.2157602" lon="151.4418797">
  <ele>480.53</ele>
  <time>2026-09-01T20:01:00Z</time>
  <course>211.11</course>
  <speed>0.01414213562373095</speed>
  <fix>3d</fix>
</trkpt>
<trkpt lat="-27.2157601" lon="151.4418797">
  <ele>480.84</ele>
  <time>2026-09-01T20:01:00Z</time>
  <course>132.99</course>
  <speed>0.02</speed>
  <fix>3d</fix>
</trkpt>
<trkpt lat="-27.2157602" lon="151.4418797">
  <ele>480.38</ele>
  <time>2026-09-01T20:01:00Z</time>
  <course>211.14</course>
  <speed>0.01414213562373095</speed>
  <fix>3d</fix>
</trkpt>
<trkpt lat="-27.2157601" lon="151.4418797">
  <ele>480.84</ele>
  <time>2026-09-01T20:01:00Z</time>
  <course>132.99</course>
  <speed>0.02</speed>
  <fix>3d</fix>
</trkpt>
<trkpt lat="-27.2157602" lon="151.4418797">
  <ele>480.24</ele>
  <time>2026-09-01T20:01:00Z</time>
  <course>211.17</course>
  <speed>0.01414213562373095</speed>
  <fix>3d</fix>
</trkpt>
<trkpt lat="-27.2157601" lon="151.4418797">
  <ele>480.54</ele>
  <time>2026-09-01T20:01:00Z</time>
  <course>131.45</course>
  <speed>0.02</speed>
  <fix>3d</fix>
</trkpt>
<trkpt lat="-27.2157602" lon="151.4418797">
  <ele>480.09</ele>
  <time>2026-09-01T20:01:00Z</time>
  <course>211.18</course>
  <speed>0.01414213562373095</speed>
  <fix>3d</fix>
</trkpt>
<trkpt lat="-27.2157601" lon="151.4418797">
  <ele>480.54</ele>
  <time>2026-09-01T20:01:00Z</time>
  <course>131.45</course>
  <speed>0.02</speed>
  <fix>3d</fix>
</trkpt>
<trkpt lat="-27.2157602" lon="151.4418799">
  <ele>479.94</ele>
  <time>2026-09-01T20:01:00Z</time>
  <course>211.2</course>
  <speed>0.01414213562373095</speed>
  <fix>3d</fix>
</trkpt>
<trkpt lat="-27.2157602" lon="151.4418797">
  <ele>480.24</ele>
  <time>2026-09-01T20:01:00Z</time>
  <course>128.63</course>
  <speed>0.02</speed>
  <fix>3d</fix>
</trkpt>
<trkpt lat="-27.2157602" lon="151.4418799">
  <ele>479.79</ele>
  <time>2026-09-01T20:01:00Z</time>
  <course>211.23</course>
  <speed>0.01414213562373095</speed>
  <fix>3d</fix>
</trkpt>
<trkpt lat="-27.2157602" lon="151.4418797">
  <ele>480.24</ele>
  <time>2026-09-01T20:01:00Z</time>
  <course>128.63</course>
  <speed>0.02</speed>
  <fix>3d</fix>
</trkpt>
<trkpt lat="-27.2157602" lon="151.4418799">
  <ele>479.64</ele>
  <time>2026-09-01T20:01:00Z</time>
  <course>211.26</course>
  <speed>0.01414213562373095</speed>
  <fix>3d</fix>
</trkpt>
<trkpt lat="-27.2157602" lon="151.4418798">
  <ele>479.94</ele>
  <time>2026-09-01T20:01:00Z</time>
  <course>125.02</course>
  <speed>0.02</speed>
  <fix>3d</fix>
</trkpt>
<trkpt lat="-27.2157602" lon="151.4418799">
  <ele>479.49</ele>
  <time>2026-09-01T20:01:00Z</time>
  <course>211.29</course>
  <speed>0.01414213562373095</speed>
  <fix>3d</fix>
</trkpt>
<trkpt lat="-27.2157602" lon="151.4418798">
  <ele>479.94</ele>
  <time>2026-09-01T20:01:00Z</time>
  <course>125.02</course>
  <speed>0.02</speed>
  <fix>3d</fix>
</trkpt>
<trkpt lat="-27.2157602" lon="151.4418799">
  <ele>479.34</ele>
  <time>2026-09-01T20:01:00Z</time>
  <course>211.32</course>
  <speed>0.01414213562373095</speed>
  <fix>3d</fix>
</trkpt>
<trkpt lat="-27.2157602" lon="151.4418799">
  <ele>479.64</ele>
  <time>2026-09-01T20:01:00Z</time>
  <course>122.29</course>
  <speed>0.02</speed>
  <fix>3d</fix>
</trkpt>
<trkpt lat="-27.2157603" lon="151.44188">
  <ele>479.19</ele>
  <time>2026-09-01T20:01:00Z</time>
  <course>211.34</course>
  <speed>0.022360679774997897</speed>
  <fix>3d</fix>
</trkpt>
<trkpt lat="-27.2157602" lon="151.4418799">
  <ele>479.64</ele>
  <time>2026-09-01T20:01:00Z</time>
  <course>122.29</course>
  <speed>0.02</speed>
  <fix>3d</fix>
</trkpt>
<trkpt lat="-27.2157603" lon="151.44188">
  <ele>479.04</ele>
  <time>2026-09-01T20:01:00Z</time>
  <course>211.37</course>
  <speed>0.022360679774997897</speed>
  <fix>3d</fix>
</trkpt>
<trkpt lat="-27.2157602" lon="151.4418799">
  <ele>479.34</ele>
  <time>2026-09-01T20:01:00Z</time>
  <course>121.82</course>
  <speed>0.02</speed>
  <fix>3d</fix>
</trkpt>
<trkpt lat="-27.2157603" lon="151.44188">
  <ele>478.89</ele>
  <time>2026-09-01T20:01:00Z</time>
  <course>211.41</course>
  <speed>0.022360679774997897</speed>
  <fix>3d</fix>
</trkpt>
<trkpt lat="-27.2157602" lon="151.4418799">
  <ele>479.34</ele>
  <time>2026-09-01T20:01:00Z</time>
  <course>121.82</course>
  <speed>0.02</speed>
  <fix>3d</fix>
</trkpt>
<trkpt lat="-27.2157603" lon="151.44188">
  <ele>478.74</ele>
  <time>2026-09-01T20:01:00Z</time>
  <course>211.43</course>
  <speed>0.022360679774997897</speed>
  <fix>3d</fix>
</trkpt>
<trkpt lat="-27.2157603" lon="151.44188">
  <ele>479.04</ele>
  <time>2026-09-01T20:01:00Z</time>
  <course>122.0</course>
  <speed>0.02</speed>
  <fix>3d</fix>
</trkpt>
<trkpt lat="-27.2157603" lon="151.44188">
  <ele>478.59</ele>
  <time>2026-09-01T20:01:00Z</time>
  <course>211.45</course>
  <speed>0.022360679774997897</speed>
  <fix>3d</fix>
</trkpt>
<trkpt lat="-27.2157603" lon="151.44188">
  <ele>479.04</ele>
  <time>2026-09-01T20:01:00Z</time>
  <course>122.0</course>
  <speed>0.02</speed>
  <fix>3d</fix>
</trkpt>
<trkpt lat="-27.2157603" lon="151.4418801">
  <ele>478.43</ele>
  <time>2026-09-01T20:01:00Z</time>
  <course>211.47</course>
  <speed>0.022360679774997897</speed>
  <fix>3d</fix>
</trkpt>
<trkpt lat="-27.2157603" lon="151.44188">
  <ele>478.74</ele>
  <time>2026-09-01T20:01:00Z</time>
  <course>121.11</course>
  <speed>0.02</speed>
  <fix>3d</fix>
</trkpt>
<trkpt lat="-27.2157603" lon="151.4418801">
  <ele>478.28</ele>
  <time>2026-09-01T20:01:00Z</time>
  <course>211.48</course>
  <speed>0.022360679774997897</speed>
  <fix>3d</fix>
</trkpt>
<trkpt lat="-27.2157603" lon="151.44188">
  <ele>478.74</ele>
  <time>2026-09-01T20:01:00Z</time>
  <course>121.11</course>
  <speed>0.02</speed>
  <fix>3d</fix>
</trkpt>
<trkpt lat="-27.2157603" lon="151.4418801">
  <ele>478.13</ele>
  <time>2026-09-01T20:01:00Z</time>
  <course>211.49</course>
  <speed>0.022360679774997897</speed>
  <fix>3d</fix>
</trkpt>
<trkpt lat="-27.2157603" lon="151.44188">
  <ele>478.44</ele>
  <time>2026-09-01T20:01:00Z</time>
  <course>120.43</course>
  <speed>0.02</speed>
  <fix>3d</fix>
</trkpt>
<trkpt lat="-27.2157603" lon="151.4418801">
  <ele>477.98</ele>
  <time>2026-09-01T20:01:00Z</time>
  <course>211.52</course>
  <speed>0.022360679774997897</speed>
  <fix>3d</fix>
</trkpt>
<trkpt lat="-27.2157603" lon="151.44188">
  <ele>478.44</ele>
  <time>2026-09-01T20:01:00Z</time>
  <course>120.43</course>
  <speed>0.02</speed>
  <fix>3d</fix>
</trkpt>
<trkpt lat="-27.2157604" lon="151.4418801">
  <ele>477.83</ele>
  <time>2026-09-01T20:01:00Z</time>
  <course>211.55</course>
  <speed>0.022360679774997897</speed>
  <fix>3d</fix>
</trkpt>
<trkpt lat="-27.2157603" lon="151.4418801">
  <ele>478.14</ele>
  <time>2026-09-01T20:01:00Z</time>
  <course>121.14</course>
  <speed>0.02</speed>
  <fix>3d</fix>
</trkpt>
<trkpt lat="-27.2157604" lon="151.4418801">
  <ele>477.68</ele>
  <time>2026-09-01T20:01:00Z</time>
  <course>211.58</course>
  <speed>0.022360679774997897</speed>
  <fix>3d</fix>
</trkpt>
<trkpt lat="-27.2157603" lon="151.4418801">
  <ele>478.14</ele>
  <time>2026-09-01T20:01:00Z</time>
  <course>121.14</course>
  <speed>0.02</speed>
  <fix>3d</fix>
</trkpt>
<trkpt lat="-27.2157604" lon="151.4418801">
  <ele>477.53</ele>
  <time>2026-09-01T20:01:00Z</time>
  <course>211.61</course>
  <speed>0.022360679774997897</speed>
  <fix>3d</fix>
</trkpt>
<trkpt lat="-27.2157603" lon="151.4418801">
  <ele>477.84</ele>
  <time>2026-09-01T20:01:00Z</time>
  <course>121.96</course>
  <speed>0.02</speed>
  <fix>3d</fix>
</trkpt>
<trkpt lat="-27.2157604" lon="151.4418801">
  <ele>477.38</ele>
  <time>2026-09-01T20:01:00Z</time>
  <course>211.63</course>
  <speed>0.022360679774997897</speed>
  <fix>3d</fix>
</trkpt>
<trkpt lat="-27.2157603" lon="151.4418801">
  <ele>477.84</ele>
  <time>2026-09-01T20:01:00Z</time>
  <course>121.96</course>
  <speed>0.02</speed>
  <fix>3d</fix>
</trkpt>
<trkpt lat="-27.2157604" lon="151.4418801">
  <ele>477.23</ele>
  <time>2026-09-01T20:01:00Z</time>
  <course>211.64</course>
  <speed>0.022360679774997897</speed>
  <fix>3d</fix>
</trkpt>
<trkpt lat="-27.2157604" lon="151.4418801">
  <ele>477.54</ele>
  <time>2026-09-01T20:01:00Z</time>
  <course>121.42</course>
  <speed>0.02</speed>
  <fix>3d</fix>
</trkpt>
<trkpt lat="-27.2157604" lon="151.4418802">
  <ele>477.08</ele>
  <time>2026-09-01T20:01:00Z</time>
  <course>211.66</course>
  <speed>0.022360679774997897</speed>
  <fix>3d</fix>
</trkpt>
<trkpt lat="-27.2157604" lon="151.4418801">
  <ele>477.54</ele>
  <time>2026-09-01T20:01:00Z</time>
  <course>121.42</course>
  <speed>0.02</speed>
  <fix>3d</fix>
</trkpt>
<trkpt lat="-27.2157604" lon="151.4418802">
  <ele>476.93</ele>
  <time>2026-09-01T20:01:00Z</time>
  <course>211.68</course>
  <speed>0.022360679774997897</speed>
  <fix>3d</fix>
</trkpt>
<trkpt lat="-27.2157604" lon="151.4418802">
  <ele>477.24</ele>
  <time>2026-09-01T20:01:00Z</time>
  <course>120.79</course>
  <speed>0.02</speed>
  <fix>3d</fix>
</trkpt>
<trkpt lat="-27.2157605" lon="151.4418802">
  <ele>476.78</ele>
  <time>2026-09-01T20:01:00Z</time>
  <course>211.71</course>
  <speed>0.022360679774997897</speed>
  <fix>3d</fix>
</trkpt>
<trkpt lat="-27.2157604" lon="151.4418802">
  <ele>477.24</ele>
  <time>2026-09-01T20:01:00Z</time>
  <course>120.79</course>
  <speed>0.02</speed>
  <fix>3d</fix>
</trkpt>
<trkpt lat="-27.2157605" lon="151.4418802">
  <ele>476.64</ele>
  <time>2026-09-01T20:01:00Z</time>
  <course>211.75</course>
  <speed>0.022360679774997897</speed>
  <fix>3d</fix>
</trkpt>
<trkpt lat="-27.2157604" lon="151.4418802">
  <ele>476.94</ele>
  <time>2026-09-01T20:01:00Z</time>
  <course>121.11</course>
  <speed>0.02</speed>
  <fix>3d</fix>
</trkpt>
<trkpt lat="-27.2157605" lon="151.4418804">
  <ele>476.49</ele>
  <time>2026-09-01T20:01:00Z</time>
  <course>211.78</course>
  <speed>0.022360679774997897</speed>
  <fix>3d</fix>
</trkpt>
<trkpt lat="-27.2157604" lon="151.4418802">
  <ele>476.94</ele>
  <time>2026-09-01T20:01:00Z</time>
  <course>121.11</course>
  <speed>0.02</speed>
  <fix>3d</fix>
</trkpt>
<trkpt lat="-27.2157605" lon="151.4418804">
  <ele>476.34</ele>
  <time>2026-09-01T20:01:00Z</time>
  <course>211.82</course>
  <speed>0.022360679774997897</speed>
  <fix>3d</fix>
</trkpt>
<trkpt lat="-27.2157605" lon="151.4418803">
  <ele>476.64</ele>
  <time>2026-09-01T20:01:00Z</time>
  <course>121.04</course>
  <speed>0.03</speed>
  <fix>3d</fix>
</trkpt>
<trkpt lat="-27.2157605" lon="151.4418804">
  <ele>476.19</ele>
  <time>2026-09-01T20:01:00Z</time>
  <course>211.87</course>
  <speed>0.022360679774997897</speed>
  <fix>3d</fix>
</trkpt>
<trkpt lat="-27.2157605" lon="151.4418803">
  <ele>476.64</ele>
  <time>2026-09-01T20:01:00Z</time>
  <course>121.04</course>
  <speed>0.03</speed>
  <fix>3d</fix>
</trkpt>
<trkpt lat="-27.2157605" lon="151.4418805">
  <ele>476.04</ele>
  <time>2026-09-01T20:01:00Z</time>
  <course>211.93</course>
  <speed>0.022360679774997897</speed>
  <fix>3d</fix>
</trkpt>
<trkpt lat="-27.2157605" lon="151.4418804">
  <ele>476.34</ele>
  <time>2026-09-01T20:01:00Z</time>
  <course>120.74</course>
  <speed>0.03</speed>
  <fix>3d</fix>
</trkpt>
<trkpt lat="-27.2157605" lon="151.4418805">
  <ele>475.89</ele>
  <time>2026-09-01T20:01:00Z</time>
  <course>211.98</course>
  <speed>0.022360679774997897</speed>
  <fix>3d</fix>
</trkpt>
<trkpt lat="-27.2157605" lon="151.4418804">
  <ele>476.34</ele>
  <time>2026-09-01T20:01:00Z</time>
  <course>120.74</course>
  <speed>0.03</speed>
  <fix>3d</fix>
</trkpt>
<trkpt lat="-27.2157606" lon="151.4418805">
  <ele>475.74</ele>
  <time>2026-09-01T20:01:00Z</time>
  <course>212.02</course>
  <speed>0.022360679774997897</speed>
  <fix>3d</fix>
</trkpt>
<trkpt lat="-27.2157605" lon="151.4418804">
  <ele>476.04</ele>
  <time>2026-09-01T20:01:00Z</time>
  <course>121.14</course>
  <speed>0.03</speed>
  <fix>3d</fix>
</trkpt>
<trkpt lat="-27.2157606" lon="151.4418805">
  <ele>475.59</ele>
  <time>2026-09-01T20:01:00Z</time>
  <course>212.06</course>
  <speed>0.022360679774997897</speed>
  <fix>3d</fix>
</trkpt>
<trkpt lat="-27.2157605" lon="151.4418804">
  <ele>476.04</ele>
  <time>2026-09-01T20:01:00Z</time>
  <course>121.14</course>
  <speed>0.03</speed>
  <fix>3d</fix>
</trkpt>
<trkpt lat="-27.2157606" lon="151.4418806">
  <ele>475.43</ele>
  <time>2026-09-01T20:01:00Z</time>
  <course>212.1</course>
  <speed>0.0316227766016838</speed>
  <fix>3d</fix>
</trkpt>
<trkpt lat="-27.2157605" lon="151.4418805">
  <ele>475.74</ele>
  <time>2026-09-01T20:01:00Z</time>
  <course>121.73</course>
  <speed>0.03</speed>
  <fix>3d</fix>
</trkpt>
<trkpt lat="-27.2157606" lon="151.4418806">
  <ele>475.28</ele>
  <time>2026-09-01T20:01:00Z</time>
  <course>212.14</course>
  <speed>0.0316227766016838</speed>
  <fix>3d</fix>
</trkpt>
<trkpt lat="-27.2157605" lon="151.4418805">
  <ele>475.74</ele>
  <time>2026-09-01T20:01:00Z</time>
  <course>121.73</course>
  <speed>0.03</speed>
  <fix>3d</fix>
</trkpt>
<trkpt lat="-27.2157606" lon="151.4418806">
  <ele>475.13</ele>
  <time>2026-09-01T20:01:00Z</time>
  <course>212.18</course>
  <speed>0.03605551275463989</speed>
  <fix>3d</fix>
</trkpt>
<trkpt lat="-27.2157606" lon="151.4418805">
  <ele>475.44</ele>
  <time>2026-09-01T20:01:00Z</time>
  <course>122.36</course>
  <speed>0.03</speed>
  <fix>3d</fix>
</trkpt>
<trkpt lat="-27.2157606" lon="151.4418806">
  <ele>474.98</ele>
  <time>2026-09-01T20:01:00Z</time>
  <course>212.21</course>
  <speed>0.03605551275463989</speed>
  <fix>3d</fix>
</trkpt>
<trkpt lat="-27.2157606" lon="151.4418805">
  <ele>475.44</ele>
  <time>2026-09-01T20:01:00Z</time>
  <course>122.36</course>
  <speed>0.03</speed>
  <fix>3d</fix>
</trkpt>
<trkpt lat="-27.2157607" lon="151.4418806">
  <ele>474.83</ele>
  <time>2026-09-01T20:01:00Z</time>
  <course>212.24</course>
  <speed>0.03605551275463989</speed>
  <fix>3d</fix>
</trkpt>
<trkpt lat="-27.2157606" lon="151.4418806">
  <ele>475.14</ele>
  <time>2026-09-01T20:01:00Z</time>
  <course>123.02</course>
  <speed>0.03</speed>
  <fix>3d</fix>
</trkpt>
<trkpt lat="-27.2157607" lon="151.4418806">
  <ele>474.68</ele>
  <time>2026-09-01T20:01:00Z</time>
  <course>212.28</course>
  <speed>0.03605551275463989</speed>
  <fix>3d</fix>
</trkpt>
<trkpt lat="-27.2157606" lon="151.4418806">
  <ele>475.14</ele>
  <time>2026-09-01T20:01:00Z</time>
  <course>123.02</course>
  <speed>0.03</speed>
  <fix>3d</fix>
</trkpt>
<trkpt lat="-27.2157607" lon="151.4418808">
  <ele>474.53</ele>
  <time>2026-09-01T20:01:00Z</time>
  <course>212.31</course>
  <speed>0.03605551275463989</speed>
  <fix>3d</fix>
</trkpt>
<trkpt lat="-27.2157606" lon="151.4418806">
  <ele>474.84</ele>
  <time>2026-09-01T20:01:00Z</time>
  <course>123.56</course>
  <speed>0.03</speed>
  <fix>3d</fix>
</trkpt>
<trkpt lat="-27.2157607" lon="151.4418808">
  <ele>474.38</ele>
  <time>2026-09-01T20:01:00Z</time>
  <course>212.34</course>
  <speed>0.03605551275463989</speed>
  <fix>3d</fix>
</trkpt>
<trkpt lat="-27.2157606" lon="151.4418806">
  <ele>474.84</ele>
  <time>2026-09-01T20:01:00Z</time>
  <course>123.56</course>
  <speed>0.03</speed>
  <fix>3d</fix>
</trkpt>
<trkpt lat="-27.2157607" lon="151.4418808">
  <ele>474.23</ele>
  <time>2026-09-01T20:01:00Z</time>
  <course>212.39</course>
  <speed>0.03605551275463989</speed>
  <fix>3d</fix>
</trkpt>
<trkpt lat="-27.2157607" lon="151.4418807">
  <ele>474.54</ele>
  <time>2026-09-01T20:01:00Z</time>
  <course>123.89</course>
  <speed>0.03</speed>
  <fix>3d</fix>
</trkpt>
<trkpt lat="-27.2157608" lon="151.4418809">
  <ele>474.08</ele>
  <time>2026-09-01T20:01:00Z</time>
  <course>212.44</course>
  <speed>0.03605551275463989</speed>
  <fix>3d</fix>
</trkpt>
<trkpt lat="-27.2157607" lon="151.4418807">
  <ele>474.54</ele>
  <time>2026-09-01T20:01:00Z</time>
  <course>123.89</course>
  <speed>0.03</speed>
  <fix>3d</fix>
</trkpt>
<trkpt lat="-27.2157608" lon="151.4418809">
  <ele>473.93</ele>
  <time>2026-09-01T20:01:00Z</time>
  <course>212.5</course>
  <speed>0.03605551275463989</speed>
  <fix>3d</fix>
</trkpt>
<trkpt lat="-27.2157607" lon="151.4418808">
  <ele>474.24</ele>
  <time>2026-09-01T20:01:00Z</time>
  <course>124.32</course>
  <speed>0.04</speed>
  <fix>3d</fix>
</trkpt>
<trkpt lat="-27.2157608" lon="151.4418809">
  <ele>473.78</ele>
  <time>2026-09-01T20:01:00Z</time>
  <course>212.56</course>
  <speed>0.03605551275463989</speed>
  <fix>3d</fix>
</trkpt>
<trkpt lat="-27.2157607" lon="151.4418808">
  <ele>474.24</ele>
  <time>2026-09-01T20:01:00Z</time>
  <course>124.32</course>
  <speed>0.04</speed>
  <fix>3d</fix>
</trkpt>
<trkpt lat="-27.2157608" lon="151.441881">
  <ele>473.63</ele>
  <time>2026-09-01T20:01:00Z</time>
  <course>212.62</course>
  <speed>0.03605551275463989</speed>
  <fix>3d</fix>
</trkpt>
<trkpt lat="-27.2157608" lon="151.4418809">
  <ele>473.94</ele>
  <time>2026-09-01T20:01:00Z</time>
  <course>124.99</course>
  <speed>0.04</speed>
  <fix>3d</fix>
</trkpt>
<trkpt lat="-27.2157609" lon="151.441881">
  <ele>473.48</ele>
  <time>2026-09-01T20:01:00Z</time>
  <course>212.68</course>
  <speed>0.03605551275463989</speed>
  <fix>3d</fix>
</trkpt>
<trkpt lat="-27.2157608" lon="151.4418809">
  <ele>473.94</ele>
  <time>2026-09-01T20:01:00Z</time>
  <course>124.99</course>
  <speed>0.04</speed>
  <fix>3d</fix>
</trkpt>
<trkpt lat="-27.2157609" lon="151.4418811">
  <ele>473.33</ele>
  <time>2026-09-01T20:01:00Z</time>
  <course>212.73</course>
  <speed>0.03605551275463989</speed>
  <fix>3d</fix>
</trkpt>
<trkpt lat="-27.2157608" lon="151.4418809">
  <ele>473.64</ele>
  <time>2026-09-01T20:01:00Z</time>
  <course>125.77</course>
  <speed>0.04</speed>
  <fix>3d</fix>
</trkpt>
<trkpt lat="-27.2157609" lon="151.4418811">
  <ele>473.18</ele>
  <time>2026-09-01T20:01:00Z</time>
  <course>212.78</course>
  <speed>0.03605551275463989</speed>
  <fix>3d</fix>
</trkpt>
<trkpt lat="-27.2157608" lon="151.4418809">
  <ele>473.64</ele>
  <time>2026-09-01T20:01:00Z</time>
  <course>125.77</course>
  <speed>0.04</speed>
  <fix>3d</fix>
</trkpt>
<trkpt lat="-27.2157609" lon="151.4418811">
  <ele>473.03</ele>
  <time>2026-09-01T20:01:00Z</time>
  <course>212.84</course>
  <speed>0.04242640687119285</speed>
  <fix>3d</fix>
</trkpt>
<trkpt lat="-27.2157609" lon="151.441881">
  <ele>473.34</ele>
  <time>2026-09-01T20:01:00Z</time>
  <course>126.66</course>
  <speed>0.04</speed>
  <fix>3d</fix>
</trkpt>
<trkpt lat="-27.215761" lon="151.4418811">
  <ele>472.88</ele>
  <time>2026-09-01T20:01:00Z</time>
  <course>212.89</course>
  <speed>0.04242640687119285</speed>
  <fix>3d</fix>
</trkpt>
<trkpt lat="-27.2157609" lon="151.441881">
  <ele>473.34</ele>
  <time>2026-09-01T20:01:00Z</time>
  <course>126.66</course>
  <speed>0.04</speed>
  <fix>3d</fix>
</trkpt>
<trkpt lat="-27.215761" lon="151.4418811">
  <ele>472.73</ele>
  <time>2026-09-01T20:01:00Z</time>
  <course>212.94</course>
  <speed>0.05</speed>
  <fix>3d</fix>
</trkpt>
<trkpt lat="-27.2157609" lon="151.4418811">
  <ele>473.04</ele>
  <time>2026-09-01T20:01:00Z</time>
  <course>127.55</course>
  <speed>0.04</speed>
  <fix>3d</fix>
</trkpt>
<trkpt lat="-27.215761" lon="151.4418813">
  <ele>472.58</ele>
  <time>2026-09-01T20:01:00Z</time>
  <course>212.99</course>
  <speed>0.05</speed>
  <fix>3d</fix>
</trkpt>
<trkpt lat="-27.2157609" lon="151.4418811">
  <ele>473.04</ele>
  <time>2026-09-01T20:01:00Z</time>
  <course>127.55</course>
  <speed>0.04</speed>
  <fix>3d</fix>
</trkpt>
<trkpt lat="-27.215761" lon="151.4418813">
  <ele>472.44</ele>
  <time>2026-09-01T20:01:00Z</time>
  <course>213.03</course>
  <speed>0.05</speed>
  <fix>3d</fix>
</trkpt>
<trkpt lat="-27.215761" lon="151.4418811">
  <ele>472.74</ele>
  <time>2026-09-01T20:01:00Z</time>
  <course>128.2</course>
  <speed>0.05</speed>
  <fix>3d</fix>
</trkpt>
<trkpt lat="-27.2157611" lon="151.4418813">
  <ele>472.28</ele>
  <time>2026-09-01T20:01:00Z</time>
  <course>213.08</course>
  <speed>0.05</speed>
  <fix>3d</fix>
</trkpt>
<trkpt lat="-27.215761" lon="151.4418811">
  <ele>472.74</ele>
  <time>2026-09-01T20:01:00Z</time>
  <course>128.2</course>
  <speed>0.05</speed>
  <fix>3d</fix>
</trkpt>
<trkpt lat="-27.2157611" lon="151.4418814">
  <ele>472.13</ele>
  <time>2026-09-01T20:01:00Z</time>
  <course>213.12</course>
  <speed>0.05</speed>
  <fix>3d</fix>
</trkpt>
<trkpt lat="-27.215761" lon="151.4418812">
  <ele>472.44</ele>
  <time>2026-09-01T20:01:00Z</time>
  <course>128.68</course>
  <speed>0.05</speed>
  <fix>3d</fix>
</trkpt>
<trkpt lat="-27.2157611" lon="151.4418814">
  <ele>471.98</ele>
  <time>2026-09-01T20:01:00Z</time>
  <course>213.05</course>
  <speed>0.03605551275463989</speed>
  <fix>3d</fix>
</trkpt>
<trkpt lat="-27.215761" lon="151.4418812">
  <ele>472.44</ele>
  <time>2026-09-01T20:01:00Z</time>
  <course>128.68</course>
  <speed>0.05</speed>
  <fix>3d</fix>
</trkpt>
<trkpt lat="-27.2157612" lon="151.4418814">
  <ele>471.83</ele>
  <time>2026-09-01T20:01:00Z</time>
  <course>212.8</course>
  <speed>0.01414213562373095</speed>
  <fix>3d</fix>
</trkpt>
<trkpt lat="-27.2157611" lon="151.4418813">
  <ele>472.14</ele>
  <time>2026-09-01T20:01:00Z</time>
  <course>130.05</course>
  <speed>0.04</speed>
  <fix>3d</fix>
</trkpt>
<trkpt lat="-27.2157612" lon="151.4418814">
  <ele>471.68</ele>
  <time>2026-09-01T20:01:00Z</time>
  <course>212.42</course>
  <speed>0.0</speed>
  <fix>3d</fix>
</trkpt>
<trkpt lat="-27.2157611" lon="151.4418813">
  <ele>472.14</ele>
  <time>2026-09-01T20:01:00Z</time>
  <course>130.05</course>
  <speed>0.04</speed>
  <fix>3d</fix>
</trkpt>
<trkpt lat="-27.2157612" lon="151.4418814">
  <ele>471.53</ele>
  <time>2026-09-01T20:01:00Z</time>
  <course>211.99</course>
  <speed>0.01</speed>
  <fix>3d</fix>
</trkpt>
<trkpt lat="-27.2157611" lon="151.4418814">
  <ele>471.84</ele>
  <time>2026-09-01T20:01:00Z</time>
  <course>137.65</course>
  <speed>0.02</speed>
  <fix>3d</fix>
</trkpt>
<trkpt lat="-27.2157612" lon="151.4418814">
  <ele>471.38</ele>
  <time>2026-09-01T20:01:00Z</time>
  <course>211.59</course>
  <speed>0.02</speed>
  <fix>3d</fix>
</trkpt>
<trkpt lat="-27.2157611" lon="151.4418814">
  <ele>471.84</ele>
  <time>2026-09-01T20:01:00Z</time>
  <course>137.65</course>
  <speed>0.02</speed>
  <fix>3d</fix>
</trkpt>
<trkpt lat="-27.2157612" lon="151.4418814">
  <ele>471.23</ele>
  <time>2026-09-01T20:01:00Z</time>
  <course>211.29</course>
  <speed>0.0316227766016838</speed>
  <fix>3d</fix>
</trkpt>
<trkpt lat="-27.2157612" lon="151.4418814">
  <ele>471.54</ele>
  <time>2026-09-01T20:01:00Z</time>
  <course>266.57</course>
  <speed>0.01</speed>
  <fix>3d</fix>
</trkpt>
<trkpt lat="-27.2157612" lon="151.4418814">
  <ele>471.08</ele>
  <time>2026-09-01T20:01:00Z</time>
  <course>211.1</course>
  <speed>0.044721359549995794</speed>
  <fix>3d</fix>
</trkpt>
<trkpt lat="-27.2157612" lon="151.4418814">
  <ele>471.54</ele>
  <time>2026-09-01T20:01:00Z</time>
  <course>266.57</course>
  <speed>0.01</speed>
  <fix>3d</fix>
</trkpt>
<trkpt lat="-27.2157612" lon="151.4418814">
  <ele>470.93</ele>
  <time>2026-09-01T20:01:00Z</time>
  <course>211.02</course>
  <speed>0.05830951894845301</speed>
  <fix>3d</fix>
</trkpt>
<trkpt lat="-27.2157612" lon="151.4418814">
  <ele>471.24</ele>
  <time>2026-09-01T20:01:00Z</time>
  <course>295.77</course>
  <speed>0.03</speed>
  <fix>3d</fix>
</trkpt>
<trkpt lat="-27.2157612" lon="151.4418813">
  <ele>470.78</ele>
  <time>2026-09-01T20:01:00Z</time>
  <course>211.04</course>
  <speed>0.07211102550927978</speed>
  <fix>3d</fix>
</trkpt>
<trkpt lat="-27.2157612" lon="151.4418814">
  <ele>471.24</ele>
  <time>2026-09-01T20:01:00Z</time>
  <course>295.77</course>
  <speed>0.03</speed>
  <fix>3d</fix>
</trkpt>
<trkpt lat="-27.2157611" lon="151.4418813">
  <ele>470.63</ele>
  <time>2026-09-01T20:01:00Z</time>
  <course>211.12</course>
  <speed>0.08062257748298549</speed>
  <fix>3d</fix>
</trkpt>
<trkpt lat="-27.2157612" lon="151.4418813">
  <ele>470.94</ele>
  <time>2026-09-01T20:01:00Z</time>
  <course>300.64</course>
  <speed>0.06</speed>
  <fix>3d</fix>
</trkpt>
<trkpt lat="-27.2157611" lon="151.4418811">
  <ele>470.48</ele>
  <time>2026-09-01T20:01:00Z</time>
  <course>211.23</course>
  <speed>0.09433981132056603</speed>
  <fix>3d</fix>
</trkpt>
<trkpt lat="-27.2157612" lon="151.4418813">
  <ele>470.94</ele>
  <time>2026-09-01T20:01:00Z</time>
  <course>300.64</course>
  <speed>0.06</speed>
  <fix>3d</fix>
</trkpt>
<trkpt lat="-27.215761" lon="151.4418811">
  <ele>470.33</ele>
  <time>2026-09-01T20:01:00Z</time>
  <course>211.34</course>
  <speed>0.09433981132056603</speed>
  <fix>3d</fix>
</trkpt>
<trkpt lat="-27.2157611" lon="151.4418812">
  <ele>470.64</ele>
  <time>2026-09-01T20:01:00Z</time>
  <course>302.85</course>
  <speed>0.08</speed>
  <fix>3d</fix>
</trkpt>
<trkpt lat="-27.215761" lon="151.441881">
  <ele>470.18</ele>
  <time>2026-09-01T20:01:00Z</time>
  <course>211.45</course>
  <speed>0.10816653826391968</speed>
  <fix>3d</fix>
</trkpt>
<trkpt lat="-27.2157611" lon="151.4418812">
  <ele>470.64</ele>
  <time>2026-09-01T20:01:00Z</time>
  <course>302.85</course>
  <speed>0.08</speed>
  <fix>3d</fix>
</trkpt>
<trkpt lat="-27.2157609" lon="151.4418809">
  <ele>470.03</ele>
  <time>2026-09-01T20:01:00Z</time>
  <course>211.52</course>
  <speed>0.11661903789690602</speed>
  <fix>3d</fix>
</trkpt>
<trkpt lat="-27.215761" lon="151.4418811">
  <ele>470.34</ele>
  <time>2026-09-01T20:01:00Z</time>
  <course>303.98</course>
  <speed>0.1</speed>
  <fix>3d</fix>
</trkpt>
<trkpt lat="-27.2157609" lon="151.4418808">
  <ele>469.88</ele>
  <time>2026-09-01T20:01:00Z</time>
  <course>211.56</course>
  <speed>0.12206555615733702</speed>
  <fix>3d</fix>
</trkpt>
<trkpt lat="-27.215761" lon="151.4418811">
  <ele>470.34</ele>
  <time>2026-09-01T20:01:00Z</time>
  <course>303.98</course>
  <speed>0.1</speed>
  <fix>3d</fix>
</trkpt>
<trkpt lat="-27.2157608" lon="151.4418806">
  <ele>469.73</ele>
  <time>2026-09-01T20:01:00Z</time>
  <course>211.58</course>
  <speed>0.12206555615733702</speed>
  <fix>3d</fix>
</trkpt>
<trkpt lat="-27.2157609" lon="151.4418809">
  <ele>470.04</ele>
  <time>2026-09-01T20:01:00Z</time>
  <course>304.66</course>
  <speed>0.12</speed>
  <fix>3d</fix>
</trkpt>
<trkpt lat="-27.2157607" lon="151.4418806">
  <ele>469.58</ele>
  <time>2026-09-01T20:01:00Z</time>
  <course>211.58</course>
  <speed>0.130384048104053</speed>
  <fix>3d</fix>
</trkpt>
<trkpt lat="-27.2157609" lon="151.4418809">
  <ele>470.04</ele>
  <time>2026-09-01T20:01:00Z</time>
  <course>304.66</course>
  <speed>0.12</speed>
  <fix>3d</fix>
</trkpt>
<trkpt lat="-27.2157607" lon="151.4418805">
  <ele>469.43</ele>
  <time>2026-09-01T20:01:00Z</time>
  <course>211.56</course>
  <speed>0.13601470508735444</speed>
  <fix>3d</fix>
</trkpt>
<trkpt lat="-27.2157608" lon="151.4418807">
  <ele>469.74</ele>
  <time>2026-09-01T20:01:00Z</time>
  <course>305.12</course>
  <speed>0.13</speed>
  <fix>3d</fix>
</trkpt>
<trkpt lat="-27.2157606" lon="151.4418804">
  <ele>469.29</ele>
  <time>2026-09-01T20:01:00Z</time>
  <course>211.53</course>
  <speed>0.13601470508735444</speed>
  <fix>3d</fix>
</trkpt>
<trkpt lat="-27.2157608" lon="151.4418807">
  <ele>469.74</ele>
  <time>2026-09-01T20:01:00Z</time>
  <course>305.12</course>
  <speed>0.13</speed>
  <fix>3d</fix>
</trkpt>
<trkpt lat="-27.2157605" lon="151.4418801">
  <ele>469.14</ele>
  <time>2026-09-01T20:01:00Z</time>
  <course>211.5</course>
  <speed>0.13601470508735444</speed>
  <fix>3d</fix>
</trkpt>
<trkpt lat="-27.2157606" lon="151.4418805">
  <ele>469.44</ele>
  <time>2026-09-01T20:01:00Z</time>
  <course>305.42</course>
  <speed>0.14</speed>
  <fix>3d</fix>
</trkpt>
<trkpt lat="-27.2157604" lon="151.4418801">
  <ele>468.99</ele>
  <time>2026-09-01T20:01:00Z</time>
  <course>211.47</course>
  <speed>0.13601470508735444</speed>
  <fix>3d</fix>
</trkpt>
<trkpt lat="-27.2157606" lon="151.4418805">
  <ele>469.44</ele>
  <time>2026-09-01T20:01:00Z</time>
  <course>305.42</course>
  <speed>0.14</speed>
  <fix>3d</fix>
</trkpt>
<trkpt lat="-27.2157603" lon="151.44188">
  <ele>468.84</ele>
  <time>2026-09-01T20:01:00Z</time>
  <course>211.45</course>
  <speed>0.13601470508735444</speed>
  <fix>3d</fix>
</trkpt>
<trkpt lat="-27.2157605" lon="151.4418802">
  <ele>469.14</ele>
  <time>2026-09-01T20:01:00Z</time>
  <course>305.59</course>
  <speed>0.14</speed>
  <fix>3d</fix>
</trkpt>
<trkpt lat="-27.2157603" lon="151.4418799">
  <ele>468.69</ele>
  <time>2026-09-01T20:01:00Z</time>
  <course>211.44</course>
  <speed>0.13601470508735444</speed>
  <fix>3d</fix>
</trkpt>
<trkpt lat="-27.2157605" lon="151.4418802">
  <ele>469.14</ele>
  <time>2026-09-01T20:01:00Z</time>
  <course>305.59</course>
  <speed>0.14</speed>
  <fix>3d</fix>
</trkpt>
<trkpt lat="-27.2157602" lon="151.4418797">
  <ele>468.54</ele>
  <time>2026-09-01T20:01:01Z</time>
  <course>211.44</course>
  <speed>0.13601470508735444</speed>
  <fix>3d</fix>
</trkpt>
<trkpt lat="-27.2157603" lon="151.44188">
  <ele>468.84</ele>
  <time>2026-09-01T20:01:01Z</time>
  <course>305.64</course>
  <speed>0.14</speed>
  <fix>3d</fix>
</trkpt>
<trkpt lat="-27.2157601" lon="151.4418796">
  <ele>468.38</ele>
  <time>2026-09-01T20:01:01Z</time>
  <course>211.44</course>
  <speed>0.130384048104053</speed>
  <fix>3d</fix>
</trkpt>
<trkpt lat="-27.2157603" lon="151.44188">
  <ele>468.84</ele>
  <time>2026-09-01T20:01:01Z</time>
  <course>305.64</course>
  <speed>0.14</speed>
  <fix>3d</fix>
</trkpt>
<trkpt lat="-27.2157601" lon="151.4418795">
  <ele>468.23</ele>
  <time>2026-09-01T20:01:01Z</time>
  <course>211.44</course>
  <speed>0.12206555615733702</speed>
  <fix>3d</fix>
</trkpt>
<trkpt lat="-27.2157602" lon="151.4418797">
  <ele>468.54</ele>
  <time>2026-09-01T20:01:01Z</time>
  <course>305.64</course>
  <speed>0.13</speed>
  <fix>3d</fix>
</trkpt>
<trkpt lat="-27.21576" lon="151.4418794">
  <ele>468.08</ele>
  <time>2026-09-01T20:01:01Z</time>
  <course>211.45</course>
  <speed>0.12206555615733702</speed>
  <fix>3d</fix>
</trkpt>
<trkpt lat="-27.2157602" lon="151.4418797">
  <ele>468.54</ele>
  <time>2026-09-01T20:01:01Z</time>
  <course>305.64</course>
  <speed>0.13</speed>
  <fix>3d</fix>
</trkpt>
<trkpt lat="-27.2157599" lon="151.4418792">
  <ele>467.93</ele>
  <time>2026-09-01T20:01:01Z</time>
  <course>211.46</course>
  <speed>0.12206555615733702</speed>
  <fix>3d</fix>
</trkpt>
<trkpt lat="-27.21576" lon="151.4418795">
  <ele>468.24</ele>
  <time>2026-09-01T20:01:01Z</time>
  <course>305.73</course>
  <speed>0.13</speed>
  <fix>3d</fix>
</trkpt>
<trkpt lat="-27.2157599" lon="151.4418792">
  <ele>467.78</ele>
  <time>2026-09-01T20:01:01Z</time>
  <course>211.47</course>
  <speed>0.10816653826391968</speed>
  <fix>3d</fix>
</trkpt>
<trkpt lat="-27.21576" lon="151.4418795">
  <ele>468.24</ele>
  <time>2026-09-01T20:01:01Z</time>
  <course>305.73</course>
  <speed>0.13</speed>
  <fix>3d</fix>
</trkpt>
<trkpt lat="-27.2157598" lon="151.4418791">
  <ele>467.63</ele>
  <time>2026-09-01T20:01:01Z</time>
  <course>211.48</course>
  <speed>0.10816653826391968</speed>
  <fix>3d</fix>
</trkpt>
<trkpt lat="-27.2157599" lon="151.4418792">
  <ele>467.94</ele>
  <time>2026-09-01T20:01:01Z</time>
  <course>305.93</course>
  <speed>0.12</speed>
  <fix>3d</fix>
</trkpt>
<trkpt lat="-27.2157597" lon="151.441879">
  <ele>467.48</ele>
  <time>2026-09-01T20:01:01Z</time>
  <course>211.48</course>
  <speed>0.1</speed>
  <fix>3d</fix>
</trkpt>
<trkpt lat="-27.2157599" lon="151.4418792">
  <ele>467.94</ele>
  <time>2026-09-01T20:01:01Z</time>
  <course>305.93</course>
  <speed>0.12</speed>
  <fix>3d</fix>
</trkpt>
<trkpt lat="-27.2157597" lon="151.441879">
  <ele>467.33</ele>
  <time>2026-09-01T20:01:01Z</time>
  <course>211.48</course>
  <speed>0.08602325267042626</speed>
  <fix>3d</fix>
</trkpt>
<trkpt lat="-27.2157598" lon="151.4418791">
  <ele>467.64</ele>
  <time>2026-09-01T20:01:01Z</time>
  <course>306.12</course>
  <speed>0.11</speed>
  <fix>3d</fix>
</trkpt>
<trkpt lat="-27.2157596" lon="151.4418789">
  <ele>467.18</ele>
  <time>2026-09-01T20:01:01Z</time>
  <course>211.48</course>
  <speed>0.08602325267042626</speed>
  <fix>3d</fix>
</trkpt>
<trkpt lat="-27.2157598" lon="151.4418791">
  <ele>467.64</ele>
  <time>2026-09-01T20:01:01Z</time>
  <course>306.12</course>
  <speed>0.11</speed>
  <fix>3d</fix>
</trkpt>
<trkpt lat="-27.2157596" lon="151.4418787">
  <ele>467.03</ele>
  <time>2026-09-01T20:01:01Z</time>
  <course>211.48</course>
  <speed>0.07211102550927978</speed>
  <fix>3d</fix>
</trkpt>
<trkpt lat="-27.2157596" lon="151.441879">
  <ele>467.34</ele>
  <time>2026-09-01T20:01:01Z</time>
  <course>306.3</course>
  <speed>0.09</speed>
  <fix>3d</fix>
</trkpt>
<trkpt lat="-27.2157595" lon="151.4418787">
  <ele>466.88</ele>
  <time>2026-09-01T20:01:01Z</time>
  <course>211.48</course>
  <speed>0.06403124237432849</speed>
  <fix>3d</fix>
</trkpt>
<trkpt lat="-27.2157596" lon="151.441879">
  <ele>467.34</ele>
  <time>2026-09-01T20:01:01Z</time>
  <course>306.3</course>
  <speed>0.09</speed>
  <fix>3d</fix>
</trkpt>
<trkpt lat="-27.2157595" lon="151.4418787">
  <ele>466.73</ele>
  <time>2026-09-01T20:01:01Z</time>
  <course>211.49</course>
  <speed>0.05830951894845301</speed>
  <fix>3d</fix>
</trkpt>
<trkpt lat="-27.2157596" lon="151.4418788">
  <ele>467.04</ele>
  <time>2026-09-01T20:01:01Z</time>
  <course>306.72</course>
  <speed>0.08</speed>
  <fix>3d</fix>
</trkpt>
<trkpt lat="-27.2157595" lon="151.4418787">
  <ele>466.58</ele>
  <time>2026-09-01T20:01:01Z</time>
  <course>211.49</course>
  <speed>0.05</speed>
  <fix>3d</fix>
</trkpt>
<trkpt lat="-27.2157596" lon="151.4418788">
  <ele>467.04</ele>
  <time>2026-09-01T20:01:01Z</time>
  <course>306.72</course>
  <speed>0.08</speed>
  <fix>3d</fix>
</trkpt>
<trkpt lat="-27.2157594" lon="151.4418786">
  <ele>466.43</ele>
  <time>2026-09-01T20:01:01Z</time>
  <course>211.51</course>
  <speed>0.03605551275463989</speed>
  <fix>3d</fix>
</trkpt>
<trkpt lat="-27.2157595" lon="151.4418787">
  <ele>466.74</ele>
  <time>2026-09-01T20:01:01Z</time>
  <course>307.71</course>
  <speed>0.06</speed>
  <fix>3d</fix>
</trkpt>
<trkpt lat="-27.2157594" lon="151.4418786">
  <ele>466.28</ele>
  <time>2026-09-01T20:01:01Z</time>
  <course>211.53</course>
  <speed>0.0282842712474619</speed>
  <fix>3d</fix>
</trkpt>
<trkpt lat="-27.2157595" lon="151.4418787">
  <ele>466.74</ele>
  <time>2026-09-01T20:01:01Z</time>
  <course>307.71</course>
  <speed>0.06</speed>
  <fix>3d</fix>
</trkpt>
<trkpt lat="-27.2157594" lon="151.4418786">
  <ele>466.13</ele>
  <time>2026-09-01T20:01:01Z</time>
  <course>211.57</course>
  <speed>0.01414213562373095</speed>
  <fix>3d</fix>
</trkpt>
<trkpt lat="-27.2157594" lon="151.4418786">
  <ele>466.44</ele>
  <time>2026-09-01T20:01:01Z</time>
  <course>310.06</course>
  <speed>0.04</speed>
  <fix>3d</fix>
</trkpt>
<trkpt lat="-27.2157594" lon="151.4418785">
  <ele>465.98</ele>
  <time>2026-09-01T20:01:01Z</time>
  <course>211.63</course>
  <speed>0.01</speed>
  <fix>3d</fix>
</trkpt>
<trkpt lat="-27.2157594" lon="151.4418786">
  <ele>466.44</ele>
  <time>2026-09-01T20:01:01Z</time>
  <course>310.06</course>
  <speed>0.04</speed>
  <fix>3d</fix>
</trkpt>
<trkpt lat="-27.2157594" lon="151.4418785">
  <ele>465.83</ele>
  <time>2026-09-01T20:01:01Z</time>
  <course>211.71</course>
  <speed>0.0</speed>
  <fix>3d</fix>
</trkpt>
<trkpt lat="-27.2157594" lon="151.4418785">
  <ele>466.14</ele>
  <time>2026-09-01T20:01:01Z</time>
  <course>317.1</course>
  <speed>0.02</speed>
  <fix>3d</fix>
</trkpt>
<trkpt lat="-27.2157594" lon="151.4418786">
  <ele>465.68</ele>
  <time>2026-09-01T20:01:01Z</time>
  <course>211.84</course>
  <speed>0.01</speed>
  <fix>3d</fix>
</trkpt>
<trkpt lat="-27.2157594" lon="151.4418785">
  <ele>466.14</ele>
  <time>2026-09-01T20:01:01Z</time>
  <course>317.1</course>
  <speed>0.02</speed>
  <fix>3d</fix>
</trkpt>
<trkpt lat="-27.2157594" lon="151.4418786">
  <ele>465.53</ele>
  <time>2026-09-01T20:01:01Z</time>
  <course>211.97</course>
  <speed>0.02</speed>
  <fix>3d</fix>
</trkpt>
<trkpt lat="-27.2157594" lon="151.4418785">
  <ele>465.84</ele>
  <time>2026-09-01T20:01:01Z</time>
  <course>48.14</course>
  <speed>0.0</speed>
  <fix>3d</fix>
</trkpt>
<trkpt lat="-27.2157594" lon="151.4418786">
  <ele>465.38</ele>
  <time>2026-09-01T20:01:01Z</time>
  <course>211.91</course>
  <speed>0.02</speed>
  <fix>3d</fix>
</trkpt>
<trkpt lat="-27.2157594" lon="151.4418785">
  <ele>465.84</ele>
  <time>2026-09-01T20:01:01Z</time>
  <course>48.14</course>
  <speed>0.0</speed>
  <fix>3d</fix>
</trkpt>
<trkpt lat="-27.2157594" lon="151.4418786">
  <ele>465.23</ele>
  <time>2026-09-01T20:01:01Z</time>
  <course>211.73</course>
  <speed>0.02</speed>
  <fix>3d</fix>
</trkpt>
<trkpt lat="-27.2157594" lon="151.4418786">
  <ele>465.54</ele>
  <time>2026-09-01T20:01:01Z</time>
  <course>106.11</course>
  <speed>0.02</speed>
  <fix>3d</fix>
</trkpt>
<trkpt lat="-27.2157594" lon="151.4418786">
  <ele>465.08</ele>
  <time>2026-09-01T20:01:01Z</time>
  <course>211.46</course>
  <speed>0.02</speed>
  <fix>3d</fix>
</trkpt>
<trkpt lat="-27.2157594" lon="151.4418786">
  <ele>465.54</ele>
  <time>2026-09-01T20:01:01Z</time>
  <course>106.11</course>
  <speed>0.02</speed>
  <fix>3d</fix>
</trkpt>
<trkpt lat="-27.2157594" lon="151.4418786">
  <ele>464.93</ele>
  <time>2026-09-01T20:01:01Z</time>
  <course>211.16</course>
  <speed>0.02</speed>
  <fix>3d</fix>
</trkpt>
<trkpt lat="-27.2157594" lon="151.4418786">
  <ele>465.24</ele>
  <time>2026-09-01T20:01:01Z</time>
  <course>110.25</course>
  <speed>0.02</speed>
  <fix>3d</fix>
</trkpt>
<trkpt lat="-27.2157594" lon="151.4418786">
  <ele>464.78</ele>
  <time>2026-09-01T20:01:01Z</time>
  <course>210.89</course>
  <speed>0.02</speed>
  <fix>3d</fix>
</trkpt>
<trkpt lat="-27.2157594" lon="151.4418786">
  <ele>465.24</ele>
  <time>2026-09-01T20:01:01Z</time>
  <course>110.25</course>
  <speed>0.02</speed>
  <fix>3d</fix>
</trkpt>
<trkpt lat="-27.2157594" lon="151.4418786">
  <ele>464.63</ele>
  <time>2026-09-01T20:01:01Z</time>
  <course>210.67</course>
  <speed>0.02</speed>
  <fix>3d</fix>
</trkpt>
<trkpt lat="-27.2157594" lon="151.4418786">
  <ele>464.94</ele>
  <time>2026-09-01T20:01:01Z</time>
  <course>111.16</course>
  <speed>0.02</speed>
  <fix>3d</fix>
</trkpt>
<trkpt lat="-27.2157594" lon="151.4418786">
  <ele>464.48</ele>
  <time>2026-09-01T20:01:01Z</time>
  <course>210.53</course>
  <speed>0.02</speed>
  <fix>3d</fix>
</trkpt>
<trkpt lat="-27.2157594" lon="151.4418786">
  <ele>464.94</ele>
  <time>2026-09-01T20:01:01Z</time>
  <course>111.16</course>
  <speed>0.02</speed>
  <fix>3d</fix>
</trkpt>
<trkpt lat="-27.2157594" lon="151.4418787">
  <ele>464.33</ele>
  <time>2026-09-01T20:01:01Z</time>
  <course>210.43</course>
  <speed>0.02</speed>
  <fix>3d</fix>
</trkpt>
<trkpt lat="-27.2157594" lon="151.4418786">
  <ele>464.64</ele>
  <time>2026-09-01T20:01:01Z</time>
  <course>111.21</course>
  <speed>0.02</speed>
  <fix>3d</fix>
</trkpt>
<trkpt lat="-27.2157594" lon="151.4418787">
  <ele>464.18</ele>
  <time>2026-09-01T20:01:01Z</time>
  <course>210.4</course>
  <speed>0.01</speed>
  <fix>3d</fix>
</trkpt>
<trkpt lat="-27.2157594" lon="151.4418786">
  <ele>464.64</ele>
  <time>2026-09-01T20:01:01Z</time>
  <course>111.21</course>
  <speed>0.02</speed>
  <fix>3d</fix>
</trkpt>
<trkpt lat="-27.2157594" lon="151.4418787">
  <ele>464.03</ele>
  <time>2026-09-01T20:01:01Z</time>
  <course>210.41</course>
  <speed>0.02</speed>
  <fix>3d</fix>
</trkpt>
<trkpt lat="-27.2157594" lon="151.4418786">
  <ele>464.34</ele>
  <time>2026-09-01T20:01:01Z</time>
  <course>110.38</course>
  <speed>0.02</speed>
  <fix>3d</fix>
</trkpt>
<trkpt lat="-27.2157594" lon="151.4418787">
  <ele>463.88</ele>
  <time>2026-09-01T20:01:01Z</time>
  <course>210.46</course>
  <speed>0.02</speed>
  <fix>3d</fix>
</trkpt>
<trkpt lat="-27.2157594" lon="151.4418786">
  <ele>464.34</ele>
  <time>2026-09-01T20:01:01Z</time>
  <course>110.38</course>
  <speed>0.02</speed>
  <fix>3d</fix>
</trkpt>
<trkpt lat="-27.2157594" lon="151.4418787">
  <ele>463.73</ele>
  <time>2026-09-01T20:01:01Z</time>
  <course>210.52</course>
  <speed>0.02</speed>
  <fix>3d</fix>
</trkpt>
<trkpt lat="-27.2157594" lon="151.4418787">
  <ele>464.04</ele>
  <time>2026-09-01T20:01:01Z</time>
  <course>109.95</course>
  <speed>0.02</speed>
  <fix>3d</fix>
</trkpt>
<trkpt lat="-27.2157594" lon="151.4418787">
  <ele>463.58</ele>
  <time>2026-09-01T20:01:01Z</time>
  <course>210.59</course>
  <speed>0.01</speed>
  <fix>3d</fix>
</trkpt>
<trkpt lat="-27.2157594" lon="151.4418787">
  <ele>464.04</ele>
  <time>2026-09-01T20:01:01Z</time>
  <course>109.95</course>
  <speed>0.02</speed>
  <fix>3d</fix>
</trkpt>
<trkpt lat="-27.2157594" lon="151.4418787">
  <ele>463.43</ele>
  <time>2026-09-01T20:01:01Z</time>
  <course>210.63</course>
  <speed>0.01</speed>
  <fix>3d</fix>
</trkpt>
<trkpt lat="-27.2157594" lon="151.4418787">
  <ele>463.74</ele>
  <time>2026-09-01T20:01:01Z</time>
  <course>110.63</course>
  <speed>0.02</speed>
  <fix>3d</fix>
</trkpt>
<trkpt lat="-27.2157594" lon="151.4418787">
  <ele>463.28</ele>
  <time>2026-09-01T20:01:01Z</time>
  <course>210.66</course>
  <speed>0.01</speed>
  <fix>3d</fix>
</trkpt>
<trkpt lat="-27.2157594" lon="151.4418787">
  <ele>463.74</ele>
  <time>2026-09-01T20:01:01Z</time>
  <course>110.63</course>
  <speed>0.02</speed>
  <fix>3d</fix>
</trkpt>
<trkpt lat="-27.2157594" lon="151.4418787">
  <ele>463.13</ele>
  <time>2026-09-01T20:01:01Z</time>
  <course>210.68</course>
  <speed>0.01</speed>
  <fix>3d</fix>
</trkpt>
<trkpt lat="-27.2157594" lon="151.4418787">
  <ele>463.44</ele>
  <time>2026-09-01T20:01:01Z</time>
  <course>111.24</course>
  <speed>0.02</speed>
  <fix>3d</fix>
</trkpt>
<trkpt lat="-27.2157594" lon="151.4418787">
  <ele>462.99</ele>
  <time>2026-09-01T20:01:01Z</time>
  <course>210.67</course>
  <speed>0.01</speed>
  <fix>3d</fix>
</trkpt>
<trkpt lat="-27.2157594" lon="151.4418787">
  <ele>463.44</ele>
  <time>2026-09-01T20:01:01Z</time>
  <course>111.24</course>
  <speed>0.02</speed>
  <fix>3d</fix>
</trkpt>
<trkpt lat="-27.2157594" lon="151.4418789">
  <ele>462.84</ele>
  <time>2026-09-01T20:01:01Z</time>
  <course>210.65</course>
  <speed>0.01</speed>
  <fix>3d</fix>
</trkpt>
<trkpt lat="-27.2157594" lon="151.4418787">
  <ele>463.14</ele>
  <time>2026-09-01T20:01:01Z</time>
  <course>112.06</course>
  <speed>0.01</speed>
  <fix>3d</fix>
</trkpt>
<trkpt lat="-27.2157594" lon="151.4418789">
  <ele>462.69</ele>
  <time>2026-09-01T20:01:01Z</time>
  <course>210.62</course>
  <speed>0.01</speed>
  <fix>3d</fix>
</trkpt>
<trkpt lat="-27.2157594" lon="151.4418787">
  <ele>463.14</ele>
  <time>2026-09-01T20:01:01Z</time>
  <course>112.06</course>
  <speed>0.01</speed>
  <fix>3d</fix>
</trkpt>
<trkpt lat="-27.2157594" lon="151.4418789">
  <ele>462.54</ele>
  <time>2026-09-01T20:01:01Z</time>
  <course>210.6</course>
  <speed>0.01</speed>
  <fix>3d</fix>
</trkpt>
<trkpt lat="-27.2157594" lon="151.4418788">
  <ele>462.84</ele>
  <time>2026-09-01T20:01:01Z</time>
  <course>112.78</course>
  <speed>0.01</speed>
  <fix>3d</fix>
</trkpt>
<trkpt lat="-27.2157594" lon="151.4418789">
  <ele>462.39</ele>
  <time>2026-09-01T20:01:01Z</time>
  <course>210.6</course>
  <speed>0.01</speed>
  <fix>3d</fix>
</trkpt>
<trkpt lat="-27.2157594" lon="151.4418788">
  <ele>462.84</ele>
  <time>2026-09-01T20:01:01Z</time>
  <course>112.78</course>
  <speed>0.01</speed>
  <fix>3d</fix>
</trkpt>
<trkpt lat="-27.2157594" lon="151.4418789">
  <ele>462.23</ele>
  <time>2026-09-01T20:01:01Z</time>
  <course>210.6</course>
  <speed>0.01</speed>
  <fix>3d</fix>
</trkpt>
<trkpt lat="-27.2157594" lon="151.4418789">
  <ele>462.54</ele>
  <time>2026-09-01T20:01:01Z</time>
  <course>114.52</course>
  <speed>0.01</speed>
  <fix>3d</fix>
</trkpt>
<trkpt lat="-27.2157595" lon="151.4418789">
  <ele>462.08</ele>
  <time>2026-09-01T20:01:01Z</time>
  <course>210.6</course>
  <speed>0.01414213562373095</speed>
  <fix>3d</fix>
</trkpt>
<trkpt lat="-27.2157594" lon="151.4418789">
  <ele>462.54</ele>
  <time>2026-09-01T20:01:01Z</time>
  <course>114.52</course>
  <speed>0.01</speed>
  <fix>3d</fix>
</trkpt>
<trkpt lat="-27.2157595" lon="151.441879">
  <ele>461.93</ele>
  <time>2026-09-01T20:01:01Z</time>
  <course>210.61</course>
  <speed>0.01414213562373095</speed>
  <fix>3d</fix>
</trkpt>
<trkpt lat="-27.2157594" lon="151.4418789">
  <ele>462.24</ele>
  <time>2026-09-01T20:01:01Z</time>
  <course>118.28</course>
  <speed>0.01</speed>
  <fix>3d</fix>
</trkpt>
<trkpt lat="-27.2157595" lon="151.441879">
  <ele>461.78</ele>
  <time>2026-09-01T20:01:01Z</time>
  <course>210.62</course>
  <speed>0.01414213562373095</speed>
  <fix>3d</fix>
</trkpt>
<trkpt lat="-27.2157594" lon="151.4418789">
  <ele>462.24</ele>
  <time>2026-09-01T20:01:01Z</time>
  <course>118.28</course>
  <speed>0.01</speed>
  <fix>3d</fix>
</trkpt>
<trkpt lat="-27.2157595" lon="151.441879">
  <ele>461.63</ele>
  <time>2026-09-01T20:01:01Z</time>
  <course>210.63</course>
  <speed>0.01414213562373095</speed>
  <fix>3d</fix>
</trkpt>
<trkpt lat="-27.2157595" lon="151.4418789">
  <ele>461.94</ele>
  <time>2026-09-01T20:01:01Z</time>
  <course>122.44</course>
  <speed>0.01</speed>
  <fix>3d</fix>
</trkpt>
<trkpt lat="-27.2157595" lon="151.441879">
  <ele>461.48</ele>
  <time>2026-09-01T20:01:01Z</time>
  <course>210.65</course>
  <speed>0.01414213562373095</speed>
  <fix>3d</fix>
</trkpt>
<trkpt lat="-27.2157595" lon="151.4418789">
  <ele>461.94</ele>
  <time>2026-09-01T20:01:01Z</time>
  <course>122.44</course>
  <speed>0.01</speed>
  <fix>3d</fix>
</trkpt>
<trkpt lat="-27.2157595" lon="151.441879">
  <ele>461.33</ele>
  <time>2026-09-01T20:01:01Z</time>
  <course>210.67</course>
  <speed>0.01414213562373095</speed>
  <fix>3d</fix>
</trkpt>
<trkpt lat="-27.2157595" lon="151.441879">
  <ele>461.64</ele>
  <time>2026-09-01T20:01:01Z</time>
  <course>125.15</course>
  <speed>0.01</speed>
  <fix>3d</fix>
</trkpt>
<trkpt lat="-27.2157595" lon="151.441879">
  <ele>461.18</ele>
  <time>2026-09-01T20:01:01Z</time>
  <course>210.68</course>
  <speed>0.01414213562373095</speed>
  <fix>3d</fix>
</trkpt>
<trkpt lat="-27.2157595" lon="151.441879">
  <ele>461.64</ele>
  <time>2026-09-01T20:01:01Z</time>
  <course>125.15</course>
  <speed>0.01</speed>
  <fix>3d</fix>
</trkpt>
<trkpt lat="-27.2157595" lon="151.4418791">
  <ele>461.03</ele>
  <time>2026-09-01T20:01:01Z</time>
  <course>210.68</course>
  <speed>0.01414213562373095</speed>
  <fix>3d</fix>
</trkpt>
<trkpt lat="-27.2157595" lon="151.441879">
  <ele>461.34</ele>
  <time>2026-09-01T20:01:01Z</time>
  <course>126.88</course>
  <speed>0.01</speed>
  <fix>3d</fix>
</trkpt>
<trkpt lat="-27.2157595" lon="151.4418791">
  <ele>460.88</ele>
  <time>2026-09-01T20:01:01Z</time>
  <course>210.68</course>
  <speed>0.01414213562373095</speed>
  <fix>3d</fix>
</trkpt>
<trkpt lat="-27.2157595" lon="151.441879">
  <ele>461.34</ele>
  <time>2026-09-01T20:01:01Z</time>
  <course>126.88</course>
  <speed>0.01</speed>
  <fix>3d</fix>
</trkpt>
<trkpt lat="-27.2157595" lon="151.4418791">
  <ele>460.73</ele>
  <time>2026-09-01T20:01:01Z</time>
  <course>210.69</course>
  <speed>0.01414213562373095</speed>
  <fix>3d</fix>
</trkpt>
<trkpt lat="-27.2157595" lon="151.441879">
  <ele>461.04</ele>
  <time>2026-09-01T20:01:01Z</time>
  <course>128.82</course>
  <speed>0.01</speed>
  <fix>3d</fix>
</trkpt>
<trkpt lat="-27.2157596" lon="151.4418791">
  <ele>460.59</ele>
  <time>2026-09-01T20:01:01Z</time>
  <course>210.7</course>
  <speed>0.01414213562373095</speed>
  <fix>3d</fix>
</trkpt>
<trkpt lat="-27.2157595" lon="151.441879">
  <ele>461.04</ele>
  <time>2026-09-01T20:01:01Z</time>
  <course>128.82</course>
  <speed>0.01</speed>
  <fix>3d</fix>
</trkpt>
<trkpt lat="-27.2157596" lon="151.4418791">
  <ele>460.44</ele>
  <time>2026-09-01T20:01:01Z</time>
  <course>210.7</course>
  <speed>0.01414213562373095</speed>
  <fix>3d</fix>
</trkpt>
<trkpt lat="-27.2157595" lon="151.4418791">
  <ele>460.74</ele>
  <time>2026-09-01T20:01:01Z</time>
  <course>131.11</course>
  <speed>0.01</speed>
  <fix>3d</fix>
</trkpt>
<trkpt lat="-27.2157596" lon="151.4418791">
  <ele>460.29</ele>
  <time>2026-09-01T20:01:01Z</time>
  <course>210.69</course>
  <speed>0.01414213562373095</speed>
  <fix>3d</fix>
</trkpt>
<trkpt lat="-27.2157595" lon="151.4418791">
  <ele>460.74</ele>
  <time>2026-09-01T20:01:01Z</time>
  <course>131.11</course>
  <speed>0.01</speed>
  <fix>3d</fix>
</trkpt>
<trkpt lat="-27.2157596" lon="151.4418791">
  <ele>460.14</ele>
  <time>2026-09-01T20:01:01Z</time>
  <course>210.67</course>
  <speed>0.01414213562373095</speed>
  <fix>3d</fix>
</trkpt>
<trkpt lat="-27.2157596" lon="151.4418791">
  <ele>460.44</ele>
  <time>2026-09-01T20:01:01Z</time>
  <course>133.75</course>
  <speed>0.01</speed>
  <fix>3d</fix>
</trkpt>
<trkpt lat="-27.2157596" lon="151.4418792">
  <ele>459.98</ele>
  <time>2026-09-01T20:01:01Z</time>
  <course>210.65</course>
  <speed>0.01414213562373095</speed>
  <fix>3d</fix>
</trkpt>
<trkpt lat="-27.2157596" lon="151.4418791">
  <ele>460.44</ele>
  <time>2026-09-01T20:01:01Z</time>
  <course>133.75</course>
  <speed>0.01</speed>
  <fix>3d</fix>
</trkpt>
<trkpt lat="-27.2157596" lon="151.4418792">
  <ele>459.83</ele>
  <time>2026-09-01T20:01:01Z</time>
  <course>210.64</course>
  <speed>0.01414213562373095</speed>
  <fix>3d</fix>
</trkpt>
<trkpt lat="-27.2157596" lon="151.4418791">
  <ele>460.14</ele>
  <time>2026-09-01T20:01:01Z</time>
  <course>135.85</course>
  <speed>0.01</speed>
  <fix>3d</fix>
</trkpt>
<trkpt lat="-27.2157596" lon="151.4418792">
  <ele>459.68</ele>
  <time>2026-09-01T20:01:01Z</time>
  <course>210.63</course>
  <speed>0.01414213562373095</speed>
  <fix>3d</fix>
</trkpt>
<trkpt lat="-27.2157596" lon="151.4418791">
  <ele>460.14</ele>
  <time>2026-09-01T20:01:01Z</time>
  <course>135.85</course>
  <speed>0.01</speed>
  <fix>3d</fix>
</trkpt>
<trkpt lat="-27.2157596" lon="151.4418792">
  <ele>459.53</ele>
  <time>2026-09-01T20:01:01Z</time>
  <course>210.63</course>
  <speed>0.01414213562373095</speed>
  <fix>3d</fix>
</trkpt>
<trkpt lat="-27.2157596" lon="151.4418792">
  <ele>459.84</ele>
  <time>2026-09-01T20:01:01Z</time>
  <course>136.72</course>
  <speed>0.01</speed>
  <fix>3d</fix>
</trkpt>
<trkpt lat="-27.2157597" lon="151.4418792">
  <ele>459.38</ele>
  <time>2026-09-01T20:01:01Z</time>
  <course>210.62</course>
  <speed>0.01414213562373095</speed>
  <fix>3d</fix>
</trkpt>
<trkpt lat="-27.2157596" lon="151.4418792">
  <ele>459.84</ele>
  <time>2026-09-01T20:01:01Z</time>
  <course>136.72</course>
  <speed>0.01</speed>
  <fix>3d</fix>
</trkpt>
<trkpt lat="-27.2157597" lon="151.4418792">
  <ele>459.23</ele>
  <time>2026-09-01T20:01:01Z</time>
  <course>210.63</course>
  <speed>0.01414213562373095</speed>
  <fix>3d</fix>
</trkpt>
<trkpt lat="-27.2157596" lon="151.4418792">
  <ele>459.54</ele>
  <time>2026-09-01T20:01:01Z</time>
  <course>136.49</course>
  <speed>0.01</speed>
  <fix>3d</fix>
</trkpt>
<trkpt lat="-27.2157597" lon="151.4418792">
  <ele>459.08</ele>
  <time>2026-09-01T20:01:01Z</time>
  <course>210.63</course>
  <speed>0.01414213562373095</speed>
  <fix>3d</fix>
</trkpt>
<trkpt lat="-27.2157596" lon="151.4418792">
  <ele>459.54</ele>
  <time>2026-09-01T20:01:01Z</time>
  <course>136.49</course>
  <speed>0.01</speed>
  <fix>3d</fix>
</trkpt>
<trkpt lat="-27.2157597" lon="151.4418792">
  <ele>458.93</ele>
  <time>2026-09-01T20:01:01Z</time>
  <course>210.64</course>
  <speed>0.01414213562373095</speed>
  <fix>3d</fix>
</trkpt>
<trkpt lat="-27.2157597" lon="151.4418792">
  <ele>459.24</ele>
  <time>2026-09-01T20:01:01Z</time>
  <course>135.58</course>
  <speed>0.01</speed>
  <fix>3d</fix>
</trkpt>
<trkpt lat="-27.2157597" lon="151.4418792">
  <ele>458.78</ele>
  <time>2026-09-01T20:01:01Z</time>
  <course>210.65</course>
  <speed>0.01414213562373095</speed>
  <fix>3d</fix>
</trkpt>
<trkpt lat="-27.2157597" lon="151.4418792">
  <ele>459.24</ele>
  <time>2026-09-01T20:01:01Z</time>
  <course>135.58</course>
  <speed>0.01</speed>
  <fix>3d</fix>
</trkpt>
<trkpt lat="-27.2157597" lon="151.4418792">
  <ele>458.63</ele>
  <time>2026-09-01T20:01:01Z</time>
  <course>210.65</course>
  <speed>0.01414213562373095</speed>
  <fix>3d</fix>
</trkpt>
<trkpt lat="-27.2157597" lon="151.4418792">
  <ele>458.94</ele>
  <time>2026-09-01T20:01:01Z</time>
  <course>134.93</course>
  <speed>0.01</speed>
  <fix>3d</fix>
</trkpt>
<trkpt lat="-27.2157597" lon="151.4418792">
  <ele>458.48</ele>
  <time>2026-09-01T20:01:01Z</time>
  <course>210.65</course>
  <speed>0.01414213562373095</speed>
  <fix>3d</fix>
</trkpt>
<trkpt lat="-27.2157597" lon="151.4418792">
  <ele>458.94</ele>
  <time>2026-09-01T20:01:01Z</time>
  <course>134.93</course>
  <speed>0.01</speed>
  <fix>3d</fix>
</trkpt>
<trkpt lat="-27.2157597" lon="151.4418792">
  <ele>458.33</ele>
  <time>2026-09-01T20:01:01Z</time>
  <course>210.66</course>
  <speed>0.01414213562373095</speed>
  <fix>3d</fix>
</trkpt>
<trkpt lat="-27.2157597" lon="151.4418792">
  <ele>458.64</ele>
  <time>2026-09-01T20:01:01Z</time>
  <course>134.1</course>
  <speed>0.01</speed>
  <fix>3d</fix>
</trkpt>
<trkpt lat="-27.2157598" lon="151.4418792">
  <ele>458.19</ele>
  <time>2026-09-01T20:01:01Z</time>
  <course>210.66</course>
  <speed>0.01414213562373095</speed>
  <fix>3d</fix>
</trkpt>
<trkpt lat="-27.2157597" lon="151.4418792">
  <ele>458.64</ele>
  <time>2026-09-01T20:01:01Z</time>
  <course>134.1</course>
  <speed>0.01</speed>
  <fix>3d</fix>
</trkpt>
<trkpt lat="-27.2157598" lon="151.4418792">
  <ele>458.04</ele>
  <time>2026-09-01T20:01:01Z</time>
  <course>210.66</course>
  <speed>0.01414213562373095</speed>
  <fix>3d</fix>
</trkpt>
<trkpt lat="-27.2157597" lon="151.4418792">
  <ele>458.34</ele>
  <time>2026-09-01T20:01:01Z</time>
  <course>133.26</course>
  <speed>0.01</speed>
  <fix>3d</fix>
</trkpt>
<trkpt lat="-27.2157598" lon="151.4418794">
  <ele>457.89</ele>
  <time>2026-09-01T20:01:01Z</time>
  <course>210.67</course>
  <speed>0.01414213562373095</speed>
  <fix>3d</fix>
</trkpt>
<trkpt lat="-27.2157597" lon="151.4418792">
  <ele>458.34</ele>
  <time>2026-09-01T20:01:01Z</time>
  <course>133.26</course>
  <speed>0.01</speed>
  <fix>3d</fix>
</trkpt>
<trkpt lat="-27.2157598" lon="151.4418794">
  <ele>457.74</ele>
  <time>2026-09-01T20:01:01Z</time>
  <course>210.7</course>
  <speed>0.01414213562373095</speed>
  <fix>3d</fix>
</trkpt>
<trkpt lat="-27.2157598" lon="151.4418793">
  <ele>458.04</ele>
  <time>2026-09-01T20:01:01Z</time>
  <course>132.49</course>
  <speed>0.01</speed>
  <fix>3d</fix>
</trkpt>
<trkpt lat="-27.2157598" lon="151.4418794">
  <ele>457.59</ele>
  <time>2026-09-01T20:01:01Z</time>
  <course>210.73</course>
  <speed>0.01414213562373095</speed>
  <fix>3d</fix>
</trkpt>
<trkpt lat="-27.2157598" lon="151.4418793">
  <ele>458.04</ele>
  <time>2026-09-01T20:01:01Z</time>
  <course>132.49</course>
  <speed>0.01</speed>
  <fix>3d</fix>
</trkpt>
<trkpt lat="-27.2157598" lon="151.4418794">
  <ele>457.44</ele>
  <time>2026-09-01T20:01:01Z</time>
  <course>210.77</course>
  <speed>0.01414213562373095</speed>
  <fix>3d</fix>
</trkpt>
<trkpt lat="-27.2157598" lon="151.4418794">
  <ele>457.74</ele>
  <time>2026-09-01T20:01:01Z</time>
  <course>132.18</course>
  <speed>0.01</speed>
  <fix>3d</fix>
</trkpt>
<trkpt lat="-27.2157598" lon="151.4418794">
  <ele>457.28</ele>
  <time>2026-09-01T20:01:01Z</time>
  <course>210.79</course>
  <speed>0.01414213562373095</speed>
  <fix>3d</fix>
</trkpt>
<trkpt lat="-27.2157598" lon="151.4418794">
  <ele>457.74</ele>
  <time>2026-09-01T20:01:01Z</time>
  <course>132.18</course>
  <speed>0.01</speed>
  <fix>3d</fix>
</trkpt>
<trkpt lat="-27.2157598" lon="151.4418794">
  <ele>457.13</ele>
  <time>2026-09-01T20:01:01Z</time>
  <course>210.8</course>
  <speed>0.01414213562373095</speed>
  <fix>3d</fix>
</trkpt>
<trkpt lat="-27.2157598" lon="151.4418794">
  <ele>457.44</ele>
  <time>2026-09-01T20:01:01Z</time>
  <course>133.99</course>
  <speed>0.01</speed>
  <fix>3d</fix>
</trkpt>
<trkpt lat="-27.2157599" lon="151.4418794">
  <ele>456.98</ele>
  <time>2026-09-01T20:01:01Z</time>
  <course>210.8</course>
  <speed>0.01414213562373095</speed>
  <fix>3d</fix>
</trkpt>
<trkpt lat="-27.2157598" lon="151.4418794">
  <ele>457.44</ele>
  <time>2026-09-01T20:01:01Z</time>
  <course>133.99</course>
  <speed>0.01</speed>
  <fix>3d</fix>
</trkpt>
<trkpt lat="-27.2157599" lon="151.4418794">
  <ele>456.83</ele>
  <time>2026-09-01T20:01:01Z</time>
  <course>210.81</course>
  <speed>0.01414213562373095</speed>
  <fix>3d</fix>
</trkpt>
<trkpt lat="-27.2157598" lon="151.4418794">
  <ele>457.14</ele>
  <time>2026-09-01T20:01:01Z</time>
  <course>136.64</course>
  <speed>0.01</speed>
  <fix>3d</fix>
</trkpt>
<trkpt lat="-27.2157599" lon="151.4418795">
  <ele>456.68</ele>
  <time>2026-09-01T20:01:01Z</time>
  <course>210.82</course>
  <speed>0.01414213562373095</speed>
  <fix>3d</fix>
</trkpt>
<trkpt lat="-27.2157598" lon="151.4418794">
  <ele>457.14</ele>
  <time>2026-09-01T20:01:01Z</time>
  <course>136.64</course>
  <speed>0.01</speed>
  <fix>3d</fix>
</trkpt>
<trkpt lat="-27.2157599" lon="151.4418795">
  <ele>456.53</ele>
  <time>2026-09-01T20:01:01Z</time>
  <course>210.85</course>
  <speed>0.01414213562373095</speed>
  <fix>3d</fix>
</trkpt>
<trkpt lat="-27.2157599" lon="151.4418794">
  <ele>456.84</ele>
  <time>2026-09-01T20:01:01Z</time>
  <course>137.49</course>
  <speed>0.02</speed>
  <fix>3d</fix>
</trkpt>
<trkpt lat="-27.2157599" lon="151.4418795">
  <ele>456.38</ele>
  <time>2026-09-01T20:01:01Z</time>
  <course>210.88</course>
  <speed>0.01414213562373095</speed>
  <fix>3d</fix>
</trkpt>
<trkpt lat="-27.2157599" lon="151.4418794">
  <ele>456.84</ele>
  <time>2026-09-01T20:01:01Z</time>
  <course>137.49</course>
  <speed>0.02</speed>
  <fix>3d</fix>
</trkpt>
<trkpt lat="-27.2157599" lon="151.4418795">
  <ele>456.23</ele>
  <time>2026-09-01T20:01:01Z</time>
  <course>210.9</course>
  <speed>0.01414213562373095</speed>
  <fix>3d</fix>
</trkpt>
<trkpt lat="-27.2157599" lon="151.4418795">
  <ele>456.54</ele>
  <time>2026-09-01T20:01:01Z</time>
  <course>136.76</course>
  <speed>0.02</speed>
  <fix>3d</fix>
</trkpt>
<trkpt lat="-27.2157599" lon="151.4418795">
  <ele>456.09</ele>
  <time>2026-09-01T20:01:01Z</time>
  <course>210.9</course>
  <speed>0.01414213562373095</speed>
  <fix>3d</fix>
</trkpt>
<trkpt lat="-27.2157599" lon="151.4418795">
  <ele>456.54</ele>
  <time>2026-09-01T20:01:01Z</time>
  <course>136.76</course>
  <speed>0.02</speed>
  <fix>3d</fix>
</trkpt>
<trkpt lat="-27.2157599" lon="151.4418795">
  <ele>455.94</ele>
  <time>2026-09-01T20:01:01Z</time>
  <course>210.9</course>
  <speed>0.01414213562373095</speed>
  <fix>3d</fix>
</trkpt>
<trkpt lat="-27.2157599" lon="151.4418795">
  <ele>456.24</ele>
  <time>2026-09-01T20:01:01Z</time>
  <course>136.08</course>
  <speed>0.02</speed>
  <fix>3d</fix>
</trkpt>
<trkpt lat="-27.21576" lon="151.4418796">
  <ele>455.78</ele>
  <time>2026-09-01T20:01:01Z</time>
  <course>210.89</course>
  <speed>0.01414213562373095</speed>
  <fix>3d</fix>
</trkpt>
<trkpt lat="-27.2157599" lon="151.4418795">
  <ele>456.24</ele>
  <time>2026-09-01T20:01:01Z</time>
  <course>136.08</course>
  <speed>0.02</speed>
  <fix>3d</fix>
</trkpt>
<trkpt lat="-27.21576" lon="151.4418796">
  <ele>455.63</ele>
  <time>2026-09-01T20:01:01Z</time>
  <course>210.88</course>
  <speed>0.01414213562373095</speed>
  <fix>3d</fix>
</trkpt>
<trkpt lat="-27.2157599" lon="151.4418795">
  <ele>455.94</ele>
  <time>2026-09-01T20:01:01Z</time>
  <course>135.36</course>
  <speed>0.02</speed>
  <fix>3d</fix>
</trkpt>
<trkpt lat="-27.21576" lon="151.4418796">
  <ele>455.48</ele>
  <time>2026-09-01T20:01:01Z</time>
  <course>210.88</course>
  <speed>0.01414213562373095</speed>
  <fix>3d</fix>
</trkpt>
<trkpt lat="-27.2157599" lon="151.4418795">
  <ele>455.94</ele>
  <time>2026-09-01T20:01:01Z</time>
  <course>135.36</course>
  <speed>0.02</speed>
  <fix>3d</fix>
</trkpt>
<trkpt lat="-27.21576" lon="151.4418796">
  <ele>455.33</ele>
  <time>2026-09-01T20:01:01Z</time>
  <course>210.9</course>
  <speed>0.01414213562373095</speed>
  <fix>3d</fix>
</trkpt>
<trkpt lat="-27.21576" lon="151.4418796">
  <ele>455.64</ele>
  <time>2026-09-01T20:01:01Z</time>
  <course>133.85</course>
  <speed>0.02</speed>
  <fix>3d</fix>
</trkpt>
<trkpt lat="-27.21576" lon="151.4418796">
  <ele>455.18</ele>
  <time>2026-09-01T20:01:01Z</time>
  <course>210.93</course>
  <speed>0.01414213562373095</speed>
  <fix>3d</fix>
</trkpt>
<trkpt lat="-27.21576" lon="151.4418796">
  <ele>455.64</ele>
  <time>2026-09-01T20:01:01Z</time>
  <course>133.85</course>
  <speed>0.02</speed>
  <fix>3d</fix>
</trkpt>
<trkpt lat="-27.21576" lon="151.4418796">
  <ele>455.04</ele>
  <time>2026-09-01T20:01:01Z</time>
  <course>210.95</course>
  <speed>0.01414213562373095</speed>
  <fix>3d</fix>
</trkpt>
<trkpt lat="-27.21576" lon="151.4418796">
  <ele>455.34</ele>
  <time>2026-09-01T20:01:01Z</time>
  <course>132.65</course>
  <speed>0.02</speed>
  <fix>3d</fix>
</trkpt>
<trkpt lat="-27.21576" lon="151.4418796">
  <ele>454.89</ele>
  <time>2026-09-01T20:01:01Z</time>
  <course>210.98</course>
  <speed>0.01414213562373095</speed>
  <fix>3d</fix>
</trkpt>
<trkpt lat="-27.21576" lon="151.4418796">
  <ele>455.34</ele>
  <time>2026-09-01T20:01:01Z</time>
  <course>132.65</course>
  <speed>0.02</speed>
  <fix>3d</fix>
</trkpt>
<trkpt lat="-27.2157601" lon="151.4418796">
  <ele>454.74</ele>
  <time>2026-09-01T20:01:01Z</time>
  <course>211.0</course>
  <speed>0.01414213562373095</speed>
  <fix>3d</fix>
</trkpt>
<trkpt lat="-27.21576" lon="151.4418796">
  <ele>455.04</ele>
  <time>2026-09-01T20:01:01Z</time>
  <course>131.49</course>
  <speed>0.02</speed>
  <fix>3d</fix>
</trkpt>
<trkpt lat="-27.2157601" lon="151.4418796">
  <ele>454.59</ele>
  <time>2026-09-01T20:01:01Z</time>
  <course>211.02</course>
  <speed>0.01414213562373095</speed>
  <fix>3d</fix>
</trkpt>
<trkpt lat="-27.21576" lon="151.4418796">
  <ele>455.04</ele>
  <time>2026-09-01T20:01:01Z</time>
  <course>131.49</course>
  <speed>0.02</speed>
  <fix>3d</fix>
</trkpt>
<trkpt lat="-27.2157601" lon="151.4418796">
  <ele>454.44</ele>
  <time>2026-09-01T20:01:01Z</time>
  <course>211.03</course>
  <speed>0.01414213562373095</speed>
  <fix>3d</fix>
</trkpt>
<trkpt lat="-27.21576" lon="151.4418796">
  <ele>454.74</ele>
  <time>2026-09-01T20:01:01Z</time>
  <course>130.45</course>
  <speed>0.02</speed>
  <fix>3d</fix>
</trkpt>
<trkpt lat="-27.2157601" lon="151.4418796">
  <ele>454.29</ele>
  <time>2026-09-01T20:01:01Z</time>
  <course>211.04</course>
  <speed>0.01414213562373095</speed>
  <fix>3d</fix>
</trkpt>
<trkpt lat="-27.21576" lon="151.4418796">
  <ele>454.74</ele>
  <time>2026-09-01T20:01:01Z</time>
  <course>130.45</course>
  <speed>0.02</speed>
  <fix>3d</fix>
</trkpt>
<trkpt lat="-27.2157601" lon="151.4418796">
  <ele>454.14</ele>
  <time>2026-09-01T20:01:01Z</time>
  <course>211.05</course>
  <speed>0.01414213562373095</speed>
  <fix>3d</fix>
</trkpt>
<trkpt lat="-27.2157601" lon="151.4418796">
  <ele>454.44</ele>
  <time>2026-09-01T20:01:01Z</time>
  <course>128.8</course>
  <speed>0.02</speed>
  <fix>3d</fix>
</trkpt>
<trkpt lat="-27.2157601" lon="151.4418797">
  <ele>453.99</ele>
  <time>2026-09-01T20:01:01Z</time>
  <course>211.05</course>
  <speed>0.01414213562373095</speed>
  <fix>3d</fix>
</trkpt>
<trkpt lat="-27.2157601" lon="151.4418796">
  <ele>454.44</ele>
  <time>2026-09-01T20:01:01Z</time>
  <course>128.8</course>
  <speed>0.02</speed>
  <fix>3d</fix>
</trkpt>
<trkpt lat="-27.2157601" lon="151.4418797">
  <ele>453.83</ele>
  <time>2026-09-01T20:01:01Z</time>
  <course>211.05</course>
  <speed>0.01414213562373095</speed>
  <fix>3d</fix>
</trkpt>
<trkpt lat="-27.2157601" lon="151.4418797">
  <ele>454.14</ele>
  <time>2026-09-01T20:01:01Z</time>
  <course>125.92</course>
  <speed>0.02</speed>
  <fix>3d</fix>
</trkpt>
<trkpt lat="-27.2157601" lon="151.4418797">
  <ele>453.68</ele>
  <time>2026-09-01T20:01:01Z</time>
  <course>211.06</course>
  <speed>0.01414213562373095</speed>
  <fix>3d</fix>
</trkpt>
<trkpt lat="-27.2157601" lon="151.4418797">
  <ele>454.14</ele>
  <time>2026-09-01T20:01:01Z</time>
  <course>125.92</course>
  <speed>0.02</speed>
  <fix>3d</fix>
</trkpt>
<trkpt lat="-27.2157601" lon="151.4418797">
  <ele>453.53</ele>
  <time>2026-09-01T20:01:01Z</time>
  <course>211.08</course>
  <speed>0.01414213562373095</speed>
  <fix>3d</fix>
</trkpt>
<trkpt lat="-27.2157601" lon="151.4418797">
  <ele>453.84</ele>
  <time>2026-09-01T20:01:01Z</time>
  <course>123.57</course>
  <speed>0.02</speed>
  <fix>3d</fix>
</trkpt>
<trkpt lat="-27.2157602" lon="151.4418797">
  <ele>453.38</ele>
  <time>2026-09-01T20:01:01Z</time>
  <course>211.1</course>
  <speed>0.01414213562373095</speed>
  <fix>3d</fix>
</trkpt>
<trkpt lat="-27.2157601" lon="151.4418797">
  <ele>453.84</ele>
  <time>2026-09-01T20:01:01Z</time>
  <course>123.57</course>
  <speed>0.02</speed>
  <fix>3d</fix>
</trkpt>
<trkpt lat="-27.2157602" lon="151.4418797">
  <ele>453.23</ele>
  <time>2026-09-01T20:01:01Z</time>
  <course>211.12</course>
  <speed>0.01414213562373095</speed>
  <fix>3d</fix>
</trkpt>
<trkpt lat="-27.2157601" lon="151.4418797">
  <ele>453.54</ele>
  <time>2026-09-01T20:01:01Z</time>
  <course>123.3</course>
  <speed>0.02</speed>
  <fix>3d</fix>
</trkpt>
<trkpt lat="-27.2157602" lon="151.4418799">
  <ele>453.08</ele>
  <time>2026-09-01T20:01:01Z</time>
  <course>211.15</course>
  <speed>0.022360679774997897</speed>
  <fix>3d</fix>
</trkpt>
<trkpt lat="-27.2157601" lon="151.4418797">
  <ele>453.54</ele>
  <time>2026-09-01T20:01:01Z</time>
  <course>123.3</course>
  <speed>0.02</speed>
  <fix>3d</fix>
</trkpt>
<trkpt lat="-27.2157602" lon="151.4418799">
  <ele>452.93</ele>
  <time>2026-09-01T20:01:01Z</time>
  <course>211.19</course>
  <speed>0.022360679774997897</speed>
  <fix>3d</fix>
</trkpt>
<trkpt lat="-27.2157602" lon="151.4418798">
  <ele>453.24</ele>
  <time>2026-09-01T20:01:01Z</time>
  <course>123.52</course>
  <speed>0.02</speed>
  <fix>3d</fix>
</trkpt>
<trkpt lat="-27.2157602" lon="151.4418799">
  <ele>452.79</ele>
  <time>2026-09-01T20:01:01Z</time>
  <course>211.23</course>
  <speed>0.022360679774997897</speed>
  <fix>3d</fix>
</trkpt>
<trkpt lat="-27.2157602" lon="151.4418798">
  <ele>453.24</ele>
  <time>2026-09-01T20:01:01Z</time>
  <course>123.52</course>
  <speed>0.02</speed>
  <fix>3d</fix>
</trkpt>
<trkpt lat="-27.2157602" lon="151.4418799">
  <ele>452.64</ele>
  <time>2026-09-01T20:01:01Z</time>
  <course>211.27</course>
  <speed>0.022360679774997897</speed>
  <fix>3d</fix>
</trkpt>
<trkpt lat="-27.2157602" lon="151.4418799">
  <ele>452.94</ele>
  <time>2026-09-01T20:01:01Z</time>
  <course>123.49</course>
  <speed>0.02</speed>
  <fix>3d</fix>
</trkpt>
<trkpt lat="-27.2157602" lon="151.44188">
  <ele>452.49</ele>
  <time>2026-09-01T20:01:01Z</time>
  <course>211.31</course>
  <speed>0.022360679774997897</speed>
  <fix>3d</fix>
</trkpt>
<trkpt lat="-27.2157602" lon="151.4418799">
  <ele>452.94</ele>
  <time>2026-09-01T20:01:01Z</time>
  <course>123.49</course>
  <speed>0.02</speed>
  <fix>3d</fix>
</trkpt>
<trkpt lat="-27.2157602" lon="151.44188">
  <ele>452.34</ele>
  <time>2026-09-01T20:01:01Z</time>
  <course>211.34</course>
  <speed>0.022360679774997897</speed>
  <fix>3d</fix>
</trkpt>
<trkpt lat="-27.2157602" lon="151.4418799">
  <ele>452.64</ele>
  <time>2026-09-01T20:01:01Z</time>
  <course>124.68</course>
  <speed>0.02</speed>
  <fix>3d</fix>
</trkpt>
<trkpt lat="-27.2157603" lon="151.44188">
  <ele>452.19</ele>
  <time>2026-09-01T20:01:01Z</time>
  <course>211.37</course>
  <speed>0.022360679774997897</speed>
  <fix>3d</fix>
</trkpt>
<trkpt lat="-27.2157602" lon="151.4418799">
  <ele>452.64</ele>
  <time>2026-09-01T20:01:01Z</time>
  <course>124.68</course>
  <speed>0.02</speed>
  <fix>3d</fix>
</trkpt>
<trkpt lat="-27.2157603" lon="151.44188">
  <ele>452.04</ele>
  <time>2026-09-01T20:01:01Z</time>
  <course>211.4</course>
  <speed>0.022360679774997897</speed>
  <fix>3d</fix>
</trkpt>
<trkpt lat="-27.2157602" lon="151.44188">
  <ele>452.34</ele>
  <time>2026-09-01T20:01:01Z</time>
  <course>126.32</course>
  <speed>0.02</speed>
  <fix>3d</fix>
</trkpt>
<trkpt lat="-27.2157603" lon="151.44188">
  <ele>451.89</ele>
  <time>2026-09-01T20:01:01Z</time>
  <course>211.42</course>
  <speed>0.022360679774997897</speed>
  <fix>3d</fix>
</trkpt>
<trkpt lat="-27.2157602" lon="151.44188">
  <ele>452.34</ele>
  <time>2026-09-01T20:01:01Z</time>
  <course>126.32</course>
  <speed>0.02</speed>
  <fix>3d</fix>
</trkpt>
<trkpt lat="-27.2157603" lon="151.4418801">
  <ele>451.74</ele>
  <time>2026-09-01T20:01:01Z</time>
  <course>211.44</course>
  <speed>0.022360679774997897</speed>
  <fix>3d</fix>
</trkpt>
<trkpt lat="-27.2157603" lon="151.44188">
  <ele>452.04</ele>
  <time>2026-09-01T20:01:01Z</time>
  <course>126.63</course>
  <speed>0.02</speed>
  <fix>3d</fix>
</trkpt>
<trkpt lat="-27.2157603" lon="151.4418801">
  <ele>451.58</ele>
  <time>2026-09-01T20:01:01Z</time>
  <course>211.47</course>
  <speed>0.022360679774997897</speed>
  <fix>3d</fix>
</trkpt>
<trkpt lat="-27.2157603" lon="151.44188">
  <ele>452.04</ele>
  <time>2026-09-01T20:01:01Z</time>
  <course>126.63</course>
  <speed>0.02</speed>
  <fix>3d</fix>
</trkpt>
<trkpt lat="-27.2157603" lon="151.4418801">
  <ele>451.43</ele>
  <time>2026-09-01T20:01:01Z</time>
  <course>211.5</course>
  <speed>0.022360679774997897</speed>
  <fix>3d</fix>
</trkpt>
<trkpt lat="-27.2157603" lon="151.44188">
  <ele>451.74</ele>
  <time>2026-09-01T20:01:01Z</time>
  <course>125.96</course>
  <speed>0.02</speed>
  <fix>3d</fix>
</trkpt>
<trkpt lat="-27.2157603" lon="151.4418801">
  <ele>451.28</ele>
  <time>2026-09-01T20:01:01Z</time>
  <course>211.53</course>
  <speed>0.022360679774997897</speed>
  <fix>3d</fix>
</trkpt>
<trkpt lat="-27.2157603" lon="151.44188">
  <ele>451.74</ele>
  <time>2026-09-01T20:01:01Z</time>
  <course>125.96</course>
  <speed>0.02</speed>
  <fix>3d</fix>
</trkpt>
<trkpt lat="-27.2157604" lon="151.4418801">
  <ele>451.13</ele>
  <time>2026-09-01T20:01:01Z</time>
  <course>211.56</course>
  <speed>0.022360679774997897</speed>
  <fix>3d</fix>
</trkpt>
<trkpt lat="-27.2157603" lon="151.4418801">
  <ele>451.44</ele>
  <time>2026-09-01T20:01:01Z</time>
  <course>126.4</course>
  <speed>0.02</speed>
  <fix>3d</fix>
</trkpt>
<trkpt lat="-27.2157604" lon="151.4418801">
  <ele>450.98</ele>
  <time>2026-09-01T20:01:01Z</time>
  <course>211.59</course>
  <speed>0.022360679774997897</speed>
  <fix>3d</fix>
</trkpt>
<trkpt lat="-27.2157603" lon="151.4418801">
  <ele>451.44</ele>
  <time>2026-09-01T20:01:01Z</time>
  <course>126.4</course>
  <speed>0.02</speed>
  <fix>3d</fix>
</trkpt>
<trkpt lat="-27.2157604" lon="151.4418801">
  <ele>450.83</ele>
  <time>2026-09-01T20:01:01Z</time>
  <course>211.6</course>
  <speed>0.022360679774997897</speed>
  <fix>3d</fix>
</trkpt>
<trkpt lat="-27.2157603" lon="151.4418801">
  <ele>451.14</ele>
  <time>2026-09-01T20:01:01Z</time>
  <course>127.39</course>
  <speed>0.02</speed>
  <fix>3d</fix>
</trkpt>
<trkpt lat="-27.2157604" lon="151.4418801">
  <ele>450.68</ele>
  <time>2026-09-01T20:01:01Z</time>
  <course>211.61</course>
  <speed>0.022360679774997897</speed>
  <fix>3d</fix>
</trkpt>
<trkpt lat="-27.2157603" lon="151.4418801">
  <ele>451.14</ele>
  <time>2026-09-01T20:01:01Z</time>
  <course>127.39</course>
  <speed>0.02</speed>
  <fix>3d</fix>
</trkpt>
<trkpt lat="-27.2157604" lon="151.4418802">
  <ele>450.53</ele>
  <time>2026-09-01T20:01:01Z</time>
  <course>211.61</course>
  <speed>0.022360679774997897</speed>
  <fix>3d</fix>
</trkpt>
<trkpt lat="-27.2157604" lon="151.4418801">
  <ele>450.84</ele>
  <time>2026-09-01T20:01:01Z</time>
  <course>127.35</course>
  <speed>0.02</speed>
  <fix>3d</fix>
</trkpt>
<trkpt lat="-27.2157604" lon="151.4418802">
  <ele>450.39</ele>
  <time>2026-09-01T20:01:01Z</time>
  <course>211.62</course>
  <speed>0.022360679774997897</speed>
  <fix>3d</fix>
</trkpt>
<trkpt lat="-27.2157604" lon="151.4418801">
  <ele>450.84</ele>
  <time>2026-09-01T20:01:01Z</time>
  <course>127.35</course>
  <speed>0.02</speed>
  <fix>3d</fix>
</trkpt>
<trkpt lat="-27.2157605" lon="151.4418802">
  <ele>450.24</ele>
  <time>2026-09-01T20:01:01Z</time>
  <course>211.64</course>
  <speed>0.022360679774997897</speed>
  <fix>3d</fix>
</trkpt>
<trkpt lat="-27.2157604" lon="151.4418802">
  <ele>450.54</ele>
  <time>2026-09-01T20:01:01Z</time>
  <course>126.37</course>
  <speed>0.03</speed>
  <fix>3d</fix>
</trkpt>
<trkpt lat="-27.2157605" lon="151.4418802">
  <ele>450.09</ele>
  <time>2026-09-01T20:01:01Z</time>
  <course>211.67</course>
  <speed>0.022360679774997897</speed>
  <fix>3d</fix>
</trkpt>
<trkpt lat="-27.2157604" lon="151.4418802">
  <ele>450.54</ele>
  <time>2026-09-01T20:01:01Z</time>
  <course>126.37</course>
  <speed>0.03</speed>
  <fix>3d</fix>
</trkpt>
<trkpt lat="-27.2157605" lon="151.4418804">
  <ele>449.94</ele>
  <time>2026-09-01T20:01:01Z</time>
  <course>211.71</course>
  <speed>0.022360679774997897</speed>
  <fix>3d</fix>
</trkpt>
<trkpt lat="-27.2157604" lon="151.4418802">
  <ele>450.24</ele>
  <time>2026-09-01T20:01:01Z</time>
  <course>125.46</course>
  <speed>0.03</speed>
  <fix>3d</fix>
</trkpt>
<trkpt lat="-27.2157605" lon="151.4418804">
  <ele>449.79</ele>
  <time>2026-09-01T20:01:01Z</time>
  <course>211.76</course>
  <speed>0.022360679774997897</speed>
  <fix>3d</fix>
</trkpt>
<trkpt lat="-27.2157604" lon="151.4418802">
  <ele>450.24</ele>
  <time>2026-09-01T20:01:01Z</time>
  <course>125.46</course>
  <speed>0.03</speed>
  <fix>3d</fix>
</trkpt>
<trkpt lat="-27.2157605" lon="151.4418804">
  <ele>449.64</ele>
  <time>2026-09-01T20:01:01Z</time>
  <course>211.83</course>
  <speed>0.022360679774997897</speed>
  <fix>3d</fix>
</trkpt>
<trkpt lat="-27.2157605" lon="151.4418803">
  <ele>449.94</ele>
  <time>2026-09-01T20:01:01Z</time>
  <course>124.61</course>
  <speed>0.03</speed>
  <fix>3d</fix>
</trkpt>
<trkpt lat="-27.2157605" lon="151.4418804">
  <ele>449.49</ele>
  <time>2026-09-01T20:01:01Z</time>
  <course>211.89</course>
  <speed>0.0282842712474619</speed>
  <fix>3d</fix>
</trkpt>
<trkpt lat="-27.2157605" lon="151.4418803">
  <ele>449.94</ele>
  <time>2026-09-01T20:01:01Z</time>
  <course>124.61</course>
  <speed>0.03</speed>
  <fix>3d</fix>
</trkpt>
<trkpt lat="-27.2157606" lon="151.4418805">
  <ele>449.34</ele>
  <time>2026-09-01T20:01:01Z</time>
  <course>211.95</course>
  <speed>0.0282842712474619</speed>
  <fix>3d</fix>
</trkpt>
<trkpt lat="-27.2157605" lon="151.4418804">
  <ele>449.64</ele>
  <time>2026-09-01T20:01:01Z</time>
  <course>123.95</course>
  <speed>0.03</speed>
  <fix>3d</fix>
</trkpt>
<trkpt lat="-27.2157606" lon="151.4418805">
  <ele>449.19</ele>
  <time>2026-09-01T20:01:01Z</time>
  <course>212.01</course>
  <speed>0.03605551275463989</speed>
  <fix>3d</fix>
</trkpt>
<trkpt lat="-27.2157605" lon="151.4418804">
  <ele>449.64</ele>
  <time>2026-09-01T20:01:01Z</time>
  <course>123.95</course>
  <speed>0.03</speed>
  <fix>3d</fix>
</trkpt>
<trkpt lat="-27.2157606" lon="151.4418805">
  <ele>449.04</ele>
  <time>2026-09-01T20:01:01Z</time>
  <course>212.06</course>
  <speed>0.03605551275463989</speed>
  <fix>3d</fix>
</trkpt>
<trkpt lat="-27.2157605" lon="151.4418804">
  <ele>449.34</ele>
  <time>2026-09-01T20:01:01Z</time>
  <course>124.03</course>
  <speed>0.03</speed>
  <fix>3d</fix>
</trkpt>
<trkpt lat="-27.2157606" lon="151.4418806">
  <ele>448.89</ele>
  <time>2026-09-01T20:01:01Z</time>
  <course>212.11</course>
  <speed>0.03605551275463989</speed>
  <fix>3d</fix>
</trkpt>
<trkpt lat="-27.2157605" lon="151.4418804">
  <ele>449.34</ele>
  <time>2026-09-01T20:01:01Z</time>
  <course>124.03</course>
  <speed>0.03</speed>
  <fix>3d</fix>
</trkpt>
<trkpt lat="-27.2157606" lon="151.4418806">
  <ele>448.73</ele>
  <time>2026-09-01T20:01:01Z</time>
  <course>212.15</course>
  <speed>0.03605551275463989</speed>
  <fix>3d</fix>
</trkpt>
<trkpt lat="-27.2157606" lon="151.4418805">
  <ele>449.04</ele>
  <time>2026-09-01T20:01:01Z</time>
  <course>124.2</course>
  <speed>0.03</speed>
  <fix>3d</fix>
</trkpt>
<trkpt lat="-27.2157607" lon="151.4418806">
  <ele>448.58</ele>
  <time>2026-09-01T20:01:01Z</time>
  <course>212.18</course>
  <speed>0.03605551275463989</speed>
  <fix>3d</fix>
</trkpt>
<trkpt lat="-27.2157606" lon="151.4418805">
  <ele>449.04</ele>
  <time>2026-09-01T20:01:01Z</time>
  <course>124.2</course>
  <speed>0.03</speed>
  <fix>3d</fix>
</trkpt>
<trkpt lat="-27.2157607" lon="151.4418806">
  <ele>448.43</ele>
  <time>2026-09-01T20:01:01Z</time>
  <course>212.21</course>
  <speed>0.03605551275463989</speed>
  <fix>3d</fix>
</trkpt>
<trkpt lat="-27.2157606" lon="151.4418806">
  <ele>448.74</ele>
  <time>2026-09-01T20:01:01Z</time>
  <course>124.36</course>
  <speed>0.03</speed>
  <fix>3d</fix>
</trkpt>
<trkpt lat="-27.2157607" lon="151.4418806">
  <ele>448.28</ele>
  <time>2026-09-01T20:01:01Z</time>
  <course>212.24</course>
  <speed>0.03605551275463989</speed>
  <fix>3d</fix>
</trkpt>
<trkpt lat="-27.2157606" lon="151.4418806">
  <ele>448.74</ele>
  <time>2026-09-01T20:01:01Z</time>
  <course>124.36</course>
  <speed>0.03</speed>
  <fix>3d</fix>
</trkpt>
<trkpt lat="-27.2157607" lon="151.4418806">
  <ele>448.13</ele>
  <time>2026-09-01T20:01:01Z</time>
  <course>212.26</course>
  <speed>0.03605551275463989</speed>
  <fix>3d</fix>
</trkpt>
<trkpt lat="-27.2157607" lon="151.4418806">
  <ele>448.44</ele>
  <time>2026-09-01T20:01:01Z</time>
  <course>124.26</course>
  <speed>0.04</speed>
  <fix>3d</fix>
</trkpt>
<trkpt lat="-27.2157607" lon="151.4418808">
  <ele>447.99</ele>
  <time>2026-09-01T20:01:01Z</time>
  <course>212.29</course>
  <speed>0.03605551275463989</speed>
  <fix>3d</fix>
</trkpt>
<trkpt lat="-27.2157607" lon="151.4418806">
  <ele>448.44</ele>
  <time>2026-09-01T20:01:01Z</time>
  <course>124.26</course>
  <speed>0.04</speed>
  <fix>3d</fix>
</trkpt>
<trkpt lat="-27.2157608" lon="151.4418808">
  <ele>447.84</ele>
  <time>2026-09-01T20:01:01Z</time>
  <course>212.32</course>
  <speed>0.03605551275463989</speed>
  <fix>3d</fix>
</trkpt>
<trkpt lat="-27.2157607" lon="151.4418807">
  <ele>448.14</ele>
  <time>2026-09-01T20:01:01Z</time>
  <course>124.1</course>
  <speed>0.04</speed>
  <fix>3d</fix>
</trkpt>
<trkpt lat="-27.2157608" lon="151.4418808">
  <ele>447.69</ele>
  <time>2026-09-01T20:01:01Z</time>
  <course>212.36</course>
  <speed>0.03605551275463989</speed>
  <fix>3d</fix>
</trkpt>
<trkpt lat="-27.2157607" lon="151.4418807">
  <ele>448.14</ele>
  <time>2026-09-01T20:01:01Z</time>
  <course>124.1</course>
  <speed>0.04</speed>
  <fix>3d</fix>
</trkpt>
<trkpt lat="-27.2157608" lon="151.4418809">
  <ele>447.53</ele>
  <time>2026-09-01T20:01:01Z</time>
  <course>212.42</course>
  <speed>0.03605551275463989</speed>
  <fix>3d</fix>
</trkpt>
<trkpt lat="-27.2157607" lon="151.4418808">
  <ele>447.84</ele>
  <time>2026-09-01T20:01:01Z</time>
  <course>124.54</course>
  <speed>0.04</speed>
  <fix>3d</fix>
</trkpt>
<trkpt lat="-27.2157608" lon="151.4418809">
  <ele>447.38</ele>
  <time>2026-09-01T20:01:01Z</time>
  <course>212.49</course>
  <speed>0.03605551275463989</speed>
  <fix>3d</fix>
</trkpt>
<trkpt lat="-27.2157607" lon="151.4418808">
  <ele>447.84</ele>
  <time>2026-09-01T20:01:01Z</time>
  <course>124.54</course>
  <speed>0.04</speed>
  <fix>3d</fix>
</trkpt>
<trkpt lat="-27.2157609" lon="151.4418809">
  <ele>447.23</ele>
  <time>2026-09-01T20:01:01Z</time>
  <course>212.56</course>
  <speed>0.03605551275463989</speed>
  <fix>3d</fix>
</trkpt>
<trkpt lat="-27.2157608" lon="151.4418808">
  <ele>447.54</ele>
  <time>2026-09-01T20:01:01Z</time>
  <course>125.09</course>
  <speed>0.04</speed>
  <fix>3d</fix>
</trkpt>
<trkpt lat="-27.2157609" lon="151.441881">
  <ele>447.08</ele>
  <time>2026-09-01T20:01:01Z</time>
  <course>212.63</course>
  <speed>0.03605551275463989</speed>
  <fix>3d</fix>
</trkpt>
<trkpt lat="-27.2157608" lon="151.4418808">
  <ele>447.54</ele>
  <time>2026-09-01T20:01:01Z</time>
  <course>125.09</course>
  <speed>0.04</speed>
  <fix>3d</fix>
</trkpt>
<trkpt lat="-27.2157609" lon="151.441881">
  <ele>446.94</ele>
  <time>2026-09-01T20:01:01Z</time>
  <course>212.7</course>
  <speed>0.03605551275463989</speed>
  <fix>3d</fix>
</trkpt>
<trkpt lat="-27.2157608" lon="151.4418809">
  <ele>447.24</ele>
  <time>2026-09-01T20:01:01Z</time>
  <course>125.61</course>
  <speed>0.04</speed>
  <fix>3d</fix>
</trkpt>
<trkpt lat="-27.2157609" lon="151.4418811">
  <ele>446.79</ele>
  <time>2026-09-01T20:01:01Z</time>
  <course>212.76</course>
  <speed>0.044721359549995794</speed>
  <fix>3d</fix>
</trkpt>
<trkpt lat="-27.2157608" lon="151.4418809">
  <ele>447.24</ele>
  <time>2026-09-01T20:01:01Z</time>
  <course>125.61</course>
  <speed>0.04</speed>
  <fix>3d</fix>
</trkpt>
<trkpt lat="-27.215761" lon="151.4418811">
  <ele>446.64</ele>
  <time>2026-09-01T20:01:01Z</time>
  <course>212.81</course>
  <speed>0.05</speed>
  <fix>3d</fix>
</trkpt>
<trkpt lat="-27.2157609" lon="151.441881">
  <ele>446.94</ele>
  <time>2026-09-01T20:01:01Z</time>
  <course>126.13</course>
  <speed>0.04</speed>
  <fix>3d</fix>
</trkpt>
<trkpt lat="-27.215761" lon="151.4418811">
  <ele>446.49</ele>
  <time>2026-09-01T20:01:01Z</time>
  <course>212.87</course>
  <speed>0.05</speed>
  <fix>3d</fix>
</trkpt>
<trkpt lat="-27.2157609" lon="151.441881">
  <ele>446.94</ele>
  <time>2026-09-01T20:01:01Z</time>
  <course>126.13</course>
  <speed>0.04</speed>
  <fix>3d</fix>
</trkpt>
<trkpt lat="-27.215761" lon="151.4418811">
  <ele>446.34</ele>
  <time>2026-09-01T20:01:01Z</time>
  <course>212.92</course>
  <speed>0.05</speed>
  <fix>3d</fix>
</trkpt>
<trkpt lat="-27.2157609" lon="151.4418811">
  <ele>446.64</ele>
  <time>2026-09-01T20:01:01Z</time>
  <course>126.65</course>
  <speed>0.05</speed>
  <fix>3d</fix>
</trkpt>
<trkpt lat="-27.215761" lon="151.4418811">
  <ele>446.19</ele>
  <time>2026-09-01T20:01:01Z</time>
  <course>212.97</course>
  <speed>0.05</speed>
  <fix>3d</fix>
</trkpt>
<trkpt lat="-27.2157609" lon="151.4418811">
  <ele>446.64</ele>
  <time>2026-09-01T20:01:01Z</time>
  <course>126.65</course>
  <speed>0.05</speed>
  <fix>3d</fix>
</trkpt>
<trkpt lat="-27.2157611" lon="151.4418813">
  <ele>446.04</ele>
  <time>2026-09-01T20:01:01Z</time>
  <course>213.02</course>
  <speed>0.05</speed>
  <fix>3d</fix>
</trkpt>
<trkpt lat="-27.215761" lon="151.4418811">
  <ele>446.34</ele>
  <time>2026-09-01T20:01:01Z</time>
  <course>127.2</course>
  <speed>0.05</speed>
  <fix>3d</fix>
</trkpt>
<trkpt lat="-27.2157611" lon="151.4418813">
  <ele>445.89</ele>
  <time>2026-09-01T20:01:01Z</time>
  <course>213.07</course>
  <speed>0.05</speed>
  <fix>3d</fix>
</trkpt>
<trkpt lat="-27.215761" lon="151.4418811">
  <ele>446.34</ele>
  <time>2026-09-01T20:01:01Z</time>
  <course>127.2</course>
  <speed>0.05</speed>
  <fix>3d</fix>
</trkpt>
<trkpt lat="-27.2157611" lon="151.4418814">
  <ele>445.74</ele>
  <time>2026-09-01T20:01:01Z</time>
  <course>213.05</course>
  <speed>0.03605551275463989</speed>
  <fix>3d</fix>
</trkpt>
<trkpt lat="-27.215761" lon="151.4418812">
  <ele>446.04</ele>
  <time>2026-09-01T20:01:01Z</time>
  <course>127.68</course>
  <speed>0.05</speed>
  <fix>3d</fix>
</trkpt>
<trkpt lat="-27.2157612" lon="151.4418814">
  <ele>445.58</ele>
  <time>2026-09-01T20:01:01Z</time>
  <course>212.86</course>
  <speed>0.0282842712474619</speed>
  <fix>3d</fix>
</trkpt>
<trkpt lat="-27.215761" lon="151.4418812">
  <ele>446.04</ele>
  <time>2026-09-01T20:01:01Z</time>
  <course>127.68</course>
  <speed>0.05</speed>
  <fix>3d</fix>
</trkpt>
<trkpt lat="-27.2157612" lon="151.4418814">
  <ele>445.43</ele>
  <time>2026-09-01T20:01:01Z</time>
  <course>212.5</course>
  <speed>0.01</speed>
  <fix>3d</fix>
</trkpt>
<trkpt lat="-27.2157611" lon="151.4418813">
  <ele>445.74</ele>
  <time>2026-09-01T20:01:01Z</time>
  <course>129.86</course>
  <speed>0.04</speed>
  <fix>3d</fix>
</trkpt>
<trkpt lat="-27.2157612" lon="151.4418814">
  <ele>445.28</ele>
  <time>2026-09-01T20:01:01Z</time>
  <course>212.07</course>
  <speed>0.0</speed>
  <fix>3d</fix>
</trkpt>
<trkpt lat="-27.2157611" lon="151.4418813">
  <ele>445.74</ele>
  <time>2026-09-01T20:01:01Z</time>
  <course>129.86</course>
  <speed>0.04</speed>
  <fix>3d</fix>
</trkpt>
<trkpt lat="-27.2157612" lon="151.4418814">
  <ele>445.13</ele>
  <time>2026-09-01T20:01:01Z</time>
  <course>211.63</course>
  <speed>0.02</speed>
  <fix>3d</fix>
</trkpt>
<trkpt lat="-27.2157612" lon="151.4418814">
  <ele>445.44</ele>
  <time>2026-09-01T20:01:01Z</time>
  <course>145.22</course>
  <speed>0.01</speed>
  <fix>3d</fix>
</trkpt>
<trkpt lat="-27.2157612" lon="151.4418814">
  <ele>444.98</ele>
  <time>2026-09-01T20:01:01Z</time>
  <course>211.28</course>
  <speed>0.0316227766016838</speed>
  <fix>3d</fix>
</trkpt>
<trkpt lat="-27.2157612" lon="151.4418814">
  <ele>445.44</ele>
  <time>2026-09-01T20:01:01Z</time>
  <course>145.22</course>
  <speed>0.01</speed>
  <fix>3d</fix>
</trkpt>
<trkpt lat="-27.2157612" lon="151.4418813">
  <ele>444.83</ele>
  <time>2026-09-01T20:01:01Z</time>
  <course>211.03</course>
  <speed>0.044721359549995794</speed>
  <fix>3d</fix>
</trkpt>
<trkpt lat="-27.2157612" lon="151.4418814">
  <ele>445.14</ele>
  <time>2026-09-01T20:01:01Z</time>
  <course>287.81</course>
  <speed>0.02</speed>
  <fix>3d</fix>
</trkpt>
<trkpt lat="-27.2157611" lon="151.4418813">
  <ele>444.68</ele>
  <time>2026-09-01T20:01:01Z</time>
  <course>210.9</course>
  <speed>0.05830951894845301</speed>
  <fix>3d</fix>
</trkpt>
<trkpt lat="-27.2157612" lon="151.4418814">
  <ele>445.14</ele>
  <time>2026-09-01T20:01:01Z</time>
  <course>287.81</course>
  <speed>0.02</speed>
  <fix>3d</fix>
</trkpt>
<trkpt lat="-27.2157611" lon="151.4418813">
  <ele>444.54</ele>
  <time>2026-09-01T20:01:01Z</time>
  <course>210.88</course>
  <speed>0.07211102550927978</speed>
  <fix>3d</fix>
</trkpt>
<trkpt lat="-27.2157611" lon="151.4418813">
  <ele>444.84</ele>
  <time>2026-09-01T20:01:01Z</time>
  <course>298.92</course>
  <speed>0.04</speed>
  <fix>3d</fix>
</trkpt>
<trkpt lat="-27.2157611" lon="151.4418813">
  <ele>444.39</ele>
  <time>2026-09-01T20:01:01Z</time>
  <course>210.93</course>
  <speed>0.08062257748298549</speed>
  <fix>3d</fix>
</trkpt>
<trkpt lat="-27.2157611" lon="151.4418813">
  <ele>444.84</ele>
  <time>2026-09-01T20:01:01Z</time>
  <course>298.92</course>
  <speed>0.04</speed>
  <fix>3d</fix>
</trkpt>
<trkpt lat="-27.2157611" lon="151.4418811">
  <ele>444.24</ele>
  <time>2026-09-01T20:01:01Z</time>
  <course>211.04</course>
  <speed>0.09433981132056603</speed>
  <fix>3d</fix>
</trkpt>
<trkpt lat="-27.2157611" lon="151.4418813">
  <ele>444.54</ele>
  <time>2026-09-01T20:01:01Z</time>
  <course>302.06</course>
  <speed>0.07</speed>
  <fix>3d</fix>
</trkpt>
<trkpt lat="-27.2157611" lon="151.4418811">
  <ele>444.09</ele>
  <time>2026-09-01T20:01:01Z</time>
  <course>211.16</course>
  <speed>0.1</speed>
  <fix>3d</fix>
</trkpt>
<trkpt lat="-27.2157611" lon="151.4418813">
  <ele>444.54</ele>
  <time>2026-09-01T20:01:01Z</time>
  <course>302.06</course>
  <speed>0.07</speed>
  <fix>3d</fix>
</trkpt>
<trkpt lat="-27.215761" lon="151.441881">
  <ele>443.94</ele>
  <time>2026-09-01T20:01:01Z</time>
  <course>211.27</course>
  <speed>0.10816653826391968</speed>
  <fix>3d</fix>
</trkpt>
<trkpt lat="-27.2157611" lon="151.4418812">
  <ele>444.24</ele>
  <time>2026-09-01T20:01:01Z</time>
  <course>303.61</course>
  <speed>0.09</speed>
  <fix>3d</fix>
</trkpt>
<trkpt lat="-27.2157609" lon="151.4418809">
  <ele>443.79</ele>
  <time>2026-09-01T20:01:01Z</time>
  <course>211.37</course>
  <speed>0.12206555615733702</speed>
  <fix>3d</fix>
</trkpt>
<trkpt lat="-27.2157611" lon="151.4418812">
  <ele>444.24</ele>
  <time>2026-09-01T20:01:01Z</time>
  <course>303.61</course>
  <speed>0.09</speed>
  <fix>3d</fix>
</trkpt>
<trkpt lat="-27.2157609" lon="151.4418808">
  <ele>443.64</ele>
  <time>2026-09-01T20:01:01Z</time>
  <course>211.44</course>
  <speed>0.12206555615733702</speed>
  <fix>3d</fix>
</trkpt>
<trkpt lat="-27.215761" lon="151.441881">
  <ele>443.94</ele>
  <time>2026-09-01T20:01:01Z</time>
  <course>304.56</course>
  <speed>0.11</speed>
  <fix>3d</fix>
</trkpt>
<trkpt lat="-27.2157608" lon="151.4418806">
  <ele>443.49</ele>
  <time>2026-09-01T20:01:01Z</time>
  <course>211.47</course>
  <speed>0.130384048104053</speed>
  <fix>3d</fix>
</trkpt>
<trkpt lat="-27.215761" lon="151.441881">
  <ele>443.94</ele>
  <time>2026-09-01T20:01:01Z</time>
  <course>304.56</course>
  <speed>0.11</speed>
  <fix>3d</fix>
</trkpt>
<trkpt lat="-27.2157607" lon="151.4418806">
  <ele>443.34</ele>
  <time>2026-09-01T20:01:01Z</time>
  <course>211.47</course>
  <speed>0.13601470508735444</speed>
  <fix>3d</fix>
</trkpt>
<trkpt lat="-27.2157608" lon="151.4418807">
  <ele>443.64</ele>
  <time>2026-09-01T20:01:01Z</time>
  <course>305.12</course>
  <speed>0.12</speed>
  <fix>3d</fix>
</trkpt>
<trkpt lat="-27.2157607" lon="151.4418805">
  <ele>443.19</ele>
  <time>2026-09-01T20:01:01Z</time>
  <course>211.46</course>
  <speed>0.13601470508735444</speed>
  <fix>3d</fix>
</trkpt>
<trkpt lat="-27.2157608" lon="151.4418807">
  <ele>443.64</ele>
  <time>2026-09-01T20:01:01Z</time>
  <course>305.12</course>
  <speed>0.12</speed>
  <fix>3d</fix>
</trkpt>
<trkpt lat="-27.2157606" lon="151.4418802">
  <ele>443.04</ele>
  <time>2026-09-01T20:01:01Z</time>
  <course>211.44</course>
  <speed>0.13601470508735444</speed>
  <fix>3d</fix>
</trkpt>
<trkpt lat="-27.2157607" lon="151.4418806">
  <ele>443.34</ele>
  <time>2026-09-01T20:01:01Z</time>
  <course>305.37</course>
  <speed>0.14</speed>
  <fix>3d</fix>
</trkpt>
<trkpt lat="-27.2157605" lon="151.4418801">
  <ele>442.89</ele>
  <time>2026-09-01T20:01:01Z</time>
  <course>211.41</course>
  <speed>0.14422205101855956</speed>
  <fix>3d</fix>
</trkpt>
<trkpt lat="-27.2157607" lon="151.4418806">
  <ele>443.34</ele>
  <time>2026-09-01T20:01:01Z</time>
  <course>305.37</course>
  <speed>0.14</speed>
  <fix>3d</fix>
</trkpt>
<trkpt lat="-27.2157604" lon="151.4418801">
  <ele>442.74</ele>
  <time>2026-09-01T20:01:01Z</time>
  <course>211.38</course>
  <speed>0.14422205101855956</speed>
  <fix>3d</fix>
</trkpt>
<trkpt lat="-27.2157605" lon="151.4418803">
  <ele>443.04</ele>
  <time>2026-09-01T20:01:01Z</time>
  <course>305.49</course>
  <speed>0.14</speed>
  <fix>3d</fix>
</trkpt>
<trkpt lat="-27.2157603" lon="151.44188">
  <ele>442.59</ele>
  <time>2026-09-01T20:01:01Z</time>
  <course>211.37</course>
  <speed>0.13601470508735444</speed>
  <fix>3d</fix>
</trkpt>
<trkpt lat="-27.2157605" lon="151.4418803">
  <ele>443.04</ele>
  <time>2026-09-01T20:01:01Z</time>
  <course>305.49</course>
  <speed>0.14</speed>
  <fix>3d</fix>
</trkpt>
<trkpt lat="-27.2157603" lon="151.4418797">
  <ele>442.44</ele>
  <time>2026-09-01T20:01:01Z</time>
  <course>211.36</course>
  <speed>0.13601470508735444</speed>
  <fix>3d</fix>
</trkpt>
<trkpt lat="-27.2157604" lon="151.4418801">
  <ele>442.74</ele>
  <time>2026-09-01T20:01:01Z</time>
  <course>305.74</course>
  <speed>0.14</speed>
  <fix>3d</fix>
</trkpt>
<trkpt lat="-27.2157602" lon="151.4418796">
  <ele>442.29</ele>
  <time>2026-09-01T20:01:01Z</time>
  <course>211.36</course>
  <speed>0.13601470508735444</speed>
  <fix>3d</fix>
</trkpt>
<trkpt lat="-27.2157604" lon="151.4418801">
  <ele>442.74</ele>
  <time>2026-09-01T20:01:01Z</time>
  <course>305.74</course>
  <speed>0.14</speed>
  <fix>3d</fix>
</trkpt>
<trkpt lat="-27.2157601" lon="151.4418796">
  <ele>442.14</ele>
  <time>2026-09-01T20:01:01Z</time>
  <course>211.36</course>
  <speed>0.13601470508735444</speed>
  <fix>3d</fix>
</trkpt>
<trkpt lat="-27.2157603" lon="151.4418798">
  <ele>442.44</ele>
  <time>2026-09-01T20:01:01Z</time>
  <course>306.14</course>
  <speed>0.14</speed>
  <fix>3d</fix>
</trkpt>
<trkpt lat="-27.21576" lon="151.4418795">
  <ele>441.99</ele>
  <time>2026-09-01T20:01:01Z</time>
  <course>211.37</course>
  <speed>0.12806248474865697</speed>
  <fix>3d</fix>
</trkpt>
<trkpt lat="-27.2157603" lon="151.4418798">
  <ele>442.44</ele>
  <time>2026-09-01T20:01:01Z</time>
  <course>306.14</course>
  <speed>0.14</speed>
  <fix>3d</fix>
</trkpt>
<trkpt lat="-27.21576" lon="151.4418794">
  <ele>441.84</ele>
  <time>2026-09-01T20:01:01Z</time>
  <course>211.38</course>
  <speed>0.12206555615733702</speed>
  <fix>3d</fix>
</trkpt>
<trkpt lat="-27.2157601" lon="151.4418796">
  <ele>442.14</ele>
  <time>2026-09-01T20:01:01Z</time>
  <course>306.55</course>
  <speed>0.14</speed>
  <fix>3d</fix>
</trkpt>
<trkpt lat="-27.2157599" lon="151.4418792">
  <ele>441.68</ele>
  <time>2026-09-01T20:01:01Z</time>
  <course>211.38</course>
  <speed>0.12206555615733702</speed>
  <fix>3d</fix>
</trkpt>
<trkpt lat="-27.2157601" lon="151.4418796">
  <ele>442.14</ele>
  <time>2026-09-01T20:01:01Z</time>
  <course>306.55</course>
  <speed>0.14</speed>
  <fix>3d</fix>
</trkpt>
<trkpt lat="-27.2157598" lon="151.4418792">
  <ele>441.53</ele>
  <time>2026-09-01T20:01:01Z</time>
  <course>211.39</course>
  <speed>0.11401754250991379</speed>
  <fix>3d</fix>
</trkpt>
<trkpt lat="-27.2157599" lon="151.4418794">
  <ele>441.84</ele>
  <time>2026-09-01T20:01:01Z</time>
  <course>307.01</course>
  <speed>0.13</speed>
  <fix>3d</fix>
</trkpt>
<trkpt lat="-27.2157598" lon="151.4418791">
  <ele>441.38</ele>
  <time>2026-09-01T20:01:01Z</time>
  <course>211.4</course>
  <speed>0.1</speed>
  <fix>3d</fix>
</trkpt>
<trkpt lat="-27.2157599" lon="151.4418794">
  <ele>441.84</ele>
  <time>2026-09-01T20:01:01Z</time>
  <course>307.01</course>
  <speed>0.13</speed>
  <fix>3d</fix>
</trkpt>
<trkpt lat="-27.2157597" lon="151.441879">
  <ele>441.23</ele>
  <time>2026-09-01T20:01:01Z</time>
  <course>211.4</course>
  <speed>0.1</speed>
  <fix>3d</fix>
</trkpt>
<trkpt lat="-27.2157598" lon="151.4418792">
  <ele>441.54</ele>
  <time>2026-09-01T20:01:01Z</time>
  <course>307.41</course>
  <speed>0.12</speed>
  <fix>3d</fix>
</trkpt>
<trkpt lat="-27.2157597" lon="151.4418789">
  <ele>441.08</ele>
  <time>2026-09-01T20:01:01Z</time>
  <course>211.4</course>
  <speed>0.09219544457292887</speed>
  <fix>3d</fix>
</trkpt>
<trkpt lat="-27.2157598" lon="151.4418792">
  <ele>441.54</ele>
  <time>2026-09-01T20:01:01Z</time>
  <course>307.41</course>
  <speed>0.12</speed>
  <fix>3d</fix>
</trkpt>
<trkpt lat="-27.2157596" lon="151.4418787">
  <ele>440.93</ele>
  <time>2026-09-01T20:01:01Z</time>
  <course>211.4</course>
  <speed>0.08602325267042626</speed>
  <fix>3d</fix>
</trkpt>
<trkpt lat="-27.2157597" lon="151.441879">
  <ele>441.24</ele>
  <time>2026-09-01T20:01:01Z</time>
  <course>307.68</course>
  <speed>0.1</speed>
  <fix>3d</fix>
</trkpt>
<trkpt lat="-27.2157596" lon="151.4418787">
  <ele>440.79</ele>
  <time>2026-09-01T20:01:01Z</time>
  <course>211.4</course>
  <speed>0.07810249675906654</speed>
  <fix>3d</fix>
</trkpt>
<trkpt lat="-27.2157597" lon="151.441879">
  <ele>441.24</ele>
  <time>2026-09-01T20:01:01Z</time>
  <course>307.68</course>
  <speed>0.1</speed>
  <fix>3d</fix>
</trkpt>
<trkpt lat="-27.2157595" lon="151.4418787">
  <ele>440.64</ele>
  <time>2026-09-01T20:01:01Z</time>
  <course>211.41</course>
  <speed>0.06403124237432849</speed>
  <fix>3d</fix>
</trkpt>
<trkpt lat="-27.2157596" lon="151.4418788">
  <ele>440.94</ele>
  <time>2026-09-01T20:01:01Z</time>
  <course>307.96</course>
  <speed>0.09</speed>
  <fix>3d</fix>
</trkpt>
<trkpt lat="-27.2157595" lon="151.4418787">
  <ele>440.49</ele>
  <time>2026-09-01T20:01:01Z</time>
  <course>211.41</course>
  <speed>0.06403124237432849</speed>
  <fix>3d</fix>
</trkpt>
<trkpt lat="-27.2157596" lon="151.4418788">
  <ele>440.94</ele>
  <time>2026-09-01T20:01:01Z</time>
  <course>307.96</course>
  <speed>0.09</speed>
  <fix>3d</fix>
</trkpt>
<trkpt lat="-27.2157594" lon="151.4418786">
  <ele>440.34</ele>
  <time>2026-09-01T20:01:01Z</time>
  <course>211.42</course>
  <speed>0.05</speed>
  <fix>3d</fix>
</trkpt>
<trkpt lat="-27.2157595" lon="151.4418787">
  <ele>440.64</ele>
  <time>2026-09-01T20:01:01Z</time>
  <course>308.67</course>
  <speed>0.07</speed>
  <fix>3d</fix>
</trkpt>
<trkpt lat="-27.2157594" lon="151.4418786">
  <ele>440.19</ele>
  <time>2026-09-01T20:01:01Z</time>
  <course>211.43</course>
  <speed>0.04242640687119285</speed>
  <fix>3d</fix>
</trkpt>
<trkpt lat="-27.2157595" lon="151.4418787">
  <ele>440.64</ele>
  <time>2026-09-01T20:01:01Z</time>
  <course>308.67</course>
  <speed>0.07</speed>
  <fix>3d</fix>
</trkpt>
<trkpt lat="-27.2157594" lon="151.4418785">
  <ele>440.04</ele>
  <time>2026-09-01T20:01:01Z</time>
  <course>211.46</course>
  <speed>0.0282842712474619</speed>
  <fix>3d</fix>
</trkpt>
<trkpt lat="-27.2157594" lon="151.4418786">
  <ele>440.34</ele>
  <time>2026-09-01T20:01:01Z</time>
  <course>310.12</course>
  <speed>0.05</speed>
  <fix>3d</fix>
</trkpt>
<trkpt lat="-27.2157594" lon="151.4418785">
  <ele>439.89</ele>
  <time>2026-09-01T20:01:01Z</time>
  <course>211.49</course>
  <speed>0.01414213562373095</speed>
  <fix>3d</fix>
</trkpt>
<trkpt lat="-27.2157594" lon="151.4418786">
  <ele>440.34</ele>
  <time>2026-09-01T20:01:01Z</time>
  <course>310.12</course>
  <speed>0.05</speed>
  <fix>3d</fix>
</trkpt>
<trkpt lat="-27.2157593" lon="151.4418785">
  <ele>439.74</ele>
  <time>2026-09-01T20:01:01Z</time>
  <course>211.54</course>
  <speed>0.01</speed>
  <fix>3d</fix>
</trkpt>
<trkpt lat="-27.2157594" lon="151.4418785">
  <ele>440.04</ele>
  <time>2026-09-01T20:01:01Z</time>
  <course>313.15</course>
  <speed>0.03</speed>
  <fix>3d</fix>
</trkpt>
<trkpt lat="-27.2157593" lon="151.4418785">
  <ele>439.59</ele>
  <time>2026-09-01T20:01:02Z</time>
  <course>211.6</course>
  <speed>0.0</speed>
  <fix>3d</fix>
</trkpt>
<trkpt lat="-27.2157594" lon="151.4418785">
  <ele>440.04</ele>
  <time>2026-09-01T20:01:02Z</time>
  <course>313.15</course>
  <speed>0.03</speed>
  <fix>3d</fix>
</trkpt>
<trkpt lat="-27.2157593" lon="151.4418785">
  <ele>439.44</ele>
  <time>2026-09-01T20:01:02Z</time>
  <course>211.71</course>
  <speed>0.01</speed>
  <fix>3d</fix>
</trkpt>
<trkpt lat="-27.2157593" lon="151.4418785">
  <ele>439.74</ele>
  <time>2026-09-01T20:01:02Z</time>
  <course>326.84</course>
  <speed>0.01</speed>
  <fix>3d</fix>
</trkpt>
<trkpt lat="-27.2157593" lon="151.4418785">
  <ele>439.29</ele>
  <time>2026-09-01T20:01:02Z</time>
  <course>211.84</course>
  <speed>0.02</speed>
  <fix>3d</fix>
</trkpt>
<trkpt lat="-27.2157593" lon="151.4418785">
  <ele>439.74</ele>
  <time>2026-09-01T20:01:02Z</time>
  <course>326.84</course>
  <speed>0.01</speed>
  <fix>3d</fix>
</trkpt>
<trkpt lat="-27.2157593" lon="151.4418785">
  <ele>439.13</ele>
  <time>2026-09-01T20:01:02Z</time>
  <course>211.81</course>
  <speed>0.02</speed>
  <fix>3d</fix>
</trkpt>
<trkpt lat="-27.2157593" lon="151.4418785">
  <ele>439.44</ele>
  <time>2026-09-01T20:01:02Z</time>
  <course>96.15</course>
  <speed>0.01</speed>
  <fix>3d</fix>
</trkpt>
<trkpt lat="-27.2157594" lon="151.4418785">
  <ele>438.98</ele>
  <time>2026-09-01T20:01:02Z</time>
  <course>211.63</course>
  <speed>0.022360679774997897</speed>
  <fix>3d</fix>
</trkpt>
<trkpt lat="-27.2157593" lon="151.4418785">
  <ele>439.44</ele>
  <time>2026-09-01T20:01:02Z</time>
  <course>96.15</course>
  <speed>0.01</speed>
  <fix>3d</fix>
</trkpt>
<trkpt lat="-27.2157594" lon="151.4418785">
  <ele>438.83</ele>
  <time>2026-09-01T20:01:02Z</time>
  <course>211.36</course>
  <speed>0.022360679774997897</speed>
  <fix>3d</fix>
</trkpt>
<trkpt lat="-27.2157593" lon="151.4418785">
  <ele>439.14</ele>
  <time>2026-09-01T20:01:02Z</time>
  <course>112.6</course>
  <speed>0.02</speed>
  <fix>3d</fix>
</trkpt>
<trkpt lat="-27.2157594" lon="151.4418785">
  <ele>438.68</ele>
  <time>2026-09-01T20:01:02Z</time>
  <course>211.07</course>
  <speed>0.022360679774997897</speed>
  <fix>3d</fix>
</trkpt>
<trkpt lat="-27.2157593" lon="151.4418785">
  <ele>439.14</ele>
  <time>2026-09-01T20:01:02Z</time>
  <course>112.6</course>
  <speed>0.02</speed>
  <fix>3d</fix>
</trkpt>
<trkpt lat="-27.2157594" lon="151.4418785">
  <ele>438.53</ele>
  <time>2026-09-01T20:01:02Z</time>
  <course>210.8</course>
  <speed>0.02</speed>
  <fix>3d</fix>
</trkpt>
<trkpt lat="-27.2157594" lon="151.4418785">
  <ele>438.84</ele>
  <time>2026-09-01T20:01:02Z</time>
  <course>114.69</course>
  <speed>0.02</speed>
  <fix>3d</fix>
</trkpt>
<trkpt lat="-27.2157594" lon="151.4418786">
  <ele>438.38</ele>
  <time>2026-09-01T20:01:02Z</time>
  <course>210.58</course>
  <speed>0.02</speed>
  <fix>3d</fix>
</trkpt>
<trkpt lat="-27.2157594" lon="151.4418785">
  <ele>438.84</ele>
  <time>2026-09-01T20:01:02Z</time>
  <course>114.69</course>
  <speed>0.02</speed>
  <fix>3d</fix>
</trkpt>
<trkpt lat="-27.2157594" lon="151.4418786">
  <ele>438.23</ele>
  <time>2026-09-01T20:01:02Z</time>
  <course>210.42</course>
  <speed>0.02</speed>
  <fix>3d</fix>
</trkpt>
<trkpt lat="-27.2157594" lon="151.4418785">
  <ele>438.54</ele>
  <time>2026-09-01T20:01:02Z</time>
  <course>114.45</course>
  <speed>0.02</speed>
  <fix>3d</fix>
</trkpt>
<trkpt lat="-27.2157594" lon="151.4418786">
  <ele>438.09</ele>
  <time>2026-09-01T20:01:02Z</time>
  <course>210.33</course>
  <speed>0.02</speed>
  <fix>3d</fix>
</trkpt>
<trkpt lat="-27.2157594" lon="151.4418785">
  <ele>438.54</ele>
  <time>2026-09-01T20:01:02Z</time>
  <course>114.45</course>
  <speed>0.02</speed>
  <fix>3d</fix>
</trkpt>
<trkpt lat="-27.2157594" lon="151.4418786">
  <ele>437.94</ele>
  <time>2026-09-01T20:01:02Z</time>
  <course>210.3</course>
  <speed>0.01</speed>
  <fix>3d</fix>
</trkpt>
<trkpt lat="-27.2157594" lon="151.4418786">
  <ele>438.24</ele>
  <time>2026-09-01T20:01:02Z</time>
  <course>113.1</course>
  <speed>0.02</speed>
  <fix>3d</fix>
</trkpt>
<trkpt lat="-27.2157594" lon="151.4418786">
  <ele>437.79</ele>
  <time>2026-09-01T20:01:02Z</time>
  <course>210.31</course>
  <speed>0.01</speed>
  <fix>3d</fix>
</trkpt>
<trkpt lat="-27.2157594" lon="151.4418786">
  <ele>438.24</ele>
  <time>2026-09-01T20:01:02Z</time>
  <course>113.1</course>
  <speed>0.02</speed>
  <fix>3d</fix>
</trkpt>
<trkpt lat="-27.2157594" lon="151.4418787">
  <ele>437.64</ele>
  <time>2026-09-01T20:01:02Z</time>
  <course>210.35</course>
  <speed>0.01</speed>
  <fix>3d</fix>
</trkpt>
<trkpt lat="-27.2157594" lon="151.4418786">
  <ele>437.94</ele>
  <time>2026-09-01T20:01:02Z</time>
  <course>112.12</course>
  <speed>0.02</speed>
  <fix>3d</fix>
</trkpt>
<trkpt lat="-27.2157594" lon="151.4418787">
  <ele>437.49</ele>
  <time>2026-09-01T20:01:02Z</time>
  <course>210.42</course>
  <speed>0.01</speed>
  <fix>3d</fix>
</trkpt>
<trkpt lat="-27.2157594" lon="151.4418786">
  <ele>437.94</ele>
  <time>2026-09-01T20:01:02Z</time>
  <course>112.12</course>
  <speed>0.02</speed>
  <fix>3d</fix>
</trkpt>
<trkpt lat="-27.2157594" lon="151.4418787">
  <ele>437.34</ele>
  <time>2026-09-01T20:01:02Z</time>
  <course>210.48</course>
  <speed>0.01</speed>
  <fix>3d</fix>
</trkpt>
<trkpt lat="-27.2157594" lon="151.4418786">
  <ele>437.64</ele>
  <time>2026-09-01T20:01:02Z</time>
  <course>112.09</course>
  <speed>0.02</speed>
  <fix>3d</fix>
</trkpt>
<trkpt lat="-27.2157594" lon="151.4418787">
  <ele>437.19</ele>
  <time>2026-09-01T20:01:02Z</time>
  <course>210.53</course>
  <speed>0.01</speed>
  <fix>3d</fix>
</trkpt>
<trkpt lat="-27.2157594" lon="151.4418786">
  <ele>437.64</ele>
  <time>2026-09-01T20:01:02Z</time>
  <course>112.09</course>
  <speed>0.02</speed>
  <fix>3d</fix>
</trkpt>
<trkpt lat="-27.2157594" lon="151.4418787">
  <ele>437.04</ele>
  <time>2026-09-01T20:01:02Z</time>
  <course>210.58</course>
  <speed>0.01</speed>
  <fix>3d</fix>
</trkpt>
<trkpt lat="-27.2157594" lon="151.4418787">
  <ele>437.34</ele>
  <time>2026-09-01T20:01:02Z</time>
  <course>112.27</course>
  <speed>0.02</speed>
  <fix>3d</fix>
</trkpt>
<trkpt lat="-27.2157594" lon="151.4418787">
  <ele>436.89</ele>
  <time>2026-09-01T20:01:02Z</time>
  <course>210.6</course>
  <speed>0.01</speed>
  <fix>3d</fix>
</trkpt>
<trkpt lat="-27.2157594" lon="151.4418787">
  <ele>437.34</ele>
  <time>2026-09-01T20:01:02Z</time>
  <course>112.27</course>
  <speed>0.02</speed>
  <fix>3d</fix>
</trkpt>
<trkpt lat="-27.2157594" lon="151.4418787">
  <ele>436.74</ele>
  <time>2026-09-01T20:01:02Z</time>
  <course>210.6</course>
  <speed>0.01</speed>
  <fix>3d</fix>
</trkpt>
<trkpt lat="-27.2157594" lon="151.4418787">
  <ele>437.04</ele>
  <time>2026-09-01T20:01:02Z</time>
  <course>112.92</course>
  <speed>0.02</speed>
  <fix>3d</fix>
</trkpt>
<trkpt lat="-27.2157594" lon="151.4418787">
  <ele>436.59</ele>
  <time>2026-09-01T20:01:02Z</time>
  <course>210.59</course>
  <speed>0.01</speed>
  <fix>3d</fix>
</trkpt>
<trkpt lat="-27.2157594" lon="151.4418787">
  <ele>437.04</ele>
  <time>2026-09-01T20:01:02Z</time>
  <course>112.92</course>
  <speed>0.02</speed>
  <fix>3d</fix>
</trkpt>
<trkpt lat="-27.2157594" lon="151.4418787">
  <ele>436.44</ele>
  <time>2026-09-01T20:01:02Z</time>
  <course>210.57</course>
  <speed>0.01</speed>
  <fix>3d</fix>
</trkpt>
<trkpt lat="-27.2157594" lon="151.4418787">
  <ele>436.74</ele>
  <time>2026-09-01T20:01:02Z</time>
  <course>114.47</course>
  <speed>0.01</speed>
  <fix>3d</fix>
</trkpt>
<trkpt lat="-27.2157594" lon="151.4418787">
  <ele>436.29</ele>
  <time>2026-09-01T20:01:02Z</time>
  <course>210.54</course>
  <speed>0.01</speed>
  <fix>3d</fix>
</trkpt>
<trkpt lat="-27.2157594" lon="151.4418787">
  <ele>436.74</ele>
  <time>2026-09-01T20:01:02Z</time>
  <course>114.47</course>
  <speed>0.01</speed>
  <fix>3d</fix>
</trkpt>
<trkpt lat="-27.2157594" lon="151.4418789">
  <ele>436.14</ele>
  <time>2026-09-01T20:01:02Z</time>
  <course>210.5</course>
  <speed>0.01</speed>
  <fix>3d</fix>
</trkpt>
<trkpt lat="-27.2157594" lon="151.4418787">
  <ele>436.44</ele>
  <time>2026-09-01T20:01:02Z</time>
  <course>115.84</course>
  <speed>0.01</speed>
  <fix>3d</fix>
</trkpt>
<trkpt lat="-27.2157594" lon="151.4418789">
  <ele>435.99</ele>
  <time>2026-09-01T20:01:02Z</time>
  <course>210.47</course>
  <speed>0.01</speed>
  <fix>3d</fix>
</trkpt>
<trkpt lat="-27.2157594" lon="151.4418787">
  <ele>436.44</ele>
  <time>2026-09-01T20:01:02Z</time>
  <course>115.84</course>
  <speed>0.01</speed>
  <fix>3d</fix>
</trkpt>
<trkpt lat="-27.2157594" lon="151.4418789">
  <ele>435.84</ele>
  <time>2026-09-01T20:01:02Z</time>
  <course>210.45</course>
  <speed>0.01</speed>
  <fix>3d</fix>
</trkpt>
<trkpt lat="-27.2157594" lon="151.4418788">
  <ele>436.14</ele>
  <time>2026-09-01T20:01:02Z</time>
  <course>117.53</course>
  <speed>0.01</speed>
  <fix>3d</fix>
</trkpt>
<trkpt lat="-27.2157594" lon="151.4418789">
  <ele>435.69</ele>
  <time>2026-09-01T20:01:02Z</time>
  <course>210.45</course>
  <speed>0.01</speed>
  <fix>3d</fix>
</trkpt>
<trkpt lat="-27.2157594" lon="151.4418788">
  <ele>436.14</ele>
  <time>2026-09-01T20:01:02Z</time>
  <course>117.53</course>
  <speed>0.01</speed>
  <fix>3d</fix>
</trkpt>
<trkpt lat="-27.2157594" lon="151.4418789">
  <ele>435.54</ele>
  <time>2026-09-01T20:01:02Z</time>
  <course>210.45</course>
  <speed>0.01</speed>
  <fix>3d</fix>
</trkpt>
<trkpt lat="-27.2157594" lon="151.4418789">
  <ele>435.84</ele>
  <time>2026-09-01T20:01:02Z</time>
  <course>119.53</course>
  <speed>0.01</speed>
  <fix>3d</fix>
</trkpt>
<trkpt lat="-27.2157594" lon="151.4418789">
  <ele>435.39</ele>
  <time>2026-09-01T20:01:02Z</time>
  <course>210.46</course>
  <speed>0.01</speed>
  <fix>3d</fix>
</trkpt>
<trkpt lat="-27.2157594" lon="151.4418789">
  <ele>435.84</ele>
  <time>2026-09-01T20:01:02Z</time>
  <course>119.53</course>
  <speed>0.01</speed>
  <fix>3d</fix>
</trkpt>
<trkpt lat="-27.2157595" lon="151.441879">
  <ele>435.24</ele>
  <time>2026-09-01T20:01:02Z</time>
  <course>210.46</course>
  <speed>0.01</speed>
  <fix>3d</fix>
</trkpt>
<trkpt lat="-27.2157594" lon="151.4418789">
  <ele>435.54</ele>
  <time>2026-09-01T20:01:02Z</time>
  <course>121.08</course>
  <speed>0.01</speed>
  <fix>3d</fix>
</trkpt>
<trkpt lat="-27.2157595" lon="151.441879">
  <ele>435.09</ele>
  <time>2026-09-01T20:01:02Z</time>
  <course>210.47</course>
  <speed>0.01</speed>
  <fix>3d</fix>
</trkpt>
<trkpt lat="-27.2157594" lon="151.4418789">
  <ele>435.54</ele>
  <time>2026-09-01T20:01:02Z</time>
  <course>121.08</course>
  <speed>0.01</speed>
  <fix>3d</fix>
</trkpt>
<trkpt lat="-27.2157595" lon="151.441879">
  <ele>434.93</ele>
  <time>2026-09-01T20:01:02Z</time>
  <course>210.48</course>
  <speed>0.01414213562373095</speed>
  <fix>3d</fix>
</trkpt>
<trkpt lat="-27.2157594" lon="151.4418789">
  <ele>435.24</ele>
  <time>2026-09-01T20:01:02Z</time>
  <course>122.5</course>
  <speed>0.01</speed>
  <fix>3d</fix>
</trkpt>
<trkpt lat="-27.2157595" lon="151.441879">
  <ele>434.78</ele>
  <time>2026-09-01T20:01:02Z</time>
  <course>210.49</course>
  <speed>0.01414213562373095</speed>
  <fix>3d</fix>
</trkpt>
<trkpt lat="-27.2157594" lon="151.4418789">
  <ele>435.24</ele>
  <time>2026-09-01T20:01:02Z</time>
  <course>122.5</course>
  <speed>0.01</speed>
  <fix>3d</fix>
</trkpt>
<trkpt lat="-27.2157595" lon="151.441879">
  <ele>434.63</ele>
  <time>2026-09-01T20:01:02Z</time>
  <course>210.5</course>
  <speed>0.01414213562373095</speed>
  <fix>3d</fix>
</trkpt>
<trkpt lat="-27.2157595" lon="151.441879">
  <ele>434.94</ele>
  <time>2026-09-01T20:01:02Z</time>
  <course>123.46</course>
  <speed>0.01</speed>
  <fix>3d</fix>
</trkpt>
<trkpt lat="-27.2157595" lon="151.441879">
  <ele>434.48</ele>
  <time>2026-09-01T20:01:02Z</time>
  <course>210.5</course>
  <speed>0.01414213562373095</speed>
  <fix>3d</fix>
</trkpt>
<trkpt lat="-27.2157595" lon="151.441879">
  <ele>434.94</ele>
  <time>2026-09-01T20:01:02Z</time>
  <course>123.46</course>
  <speed>0.01</speed>
  <fix>3d</fix>
</trkpt>
<trkpt lat="-27.2157595" lon="151.441879">
  <ele>434.33</ele>
  <time>2026-09-01T20:01:02Z</time>
  <course>210.51</course>
  <speed>0.01414213562373095</speed>
  <fix>3d</fix>
</trkpt>
<trkpt lat="-27.2157595" lon="151.441879">
  <ele>434.64</ele>
  <time>2026-09-01T20:01:02Z</time>
  <course>125.78</course>
  <speed>0.01</speed>
  <fix>3d</fix>
</trkpt>
<trkpt lat="-27.2157595" lon="151.4418791">
  <ele>434.19</ele>
  <time>2026-09-01T20:01:02Z</time>
  <course>210.51</course>
  <speed>0.01414213562373095</speed>
  <fix>3d</fix>
</trkpt>
<trkpt lat="-27.2157595" lon="151.441879">
  <ele>434.64</ele>
  <time>2026-09-01T20:01:02Z</time>
  <course>125.78</course>
  <speed>0.01</speed>
  <fix>3d</fix>
</trkpt>
<trkpt lat="-27.2157595" lon="151.4418791">
  <ele>434.04</ele>
  <time>2026-09-01T20:01:02Z</time>
  <course>210.51</course>
  <speed>0.01414213562373095</speed>
  <fix>3d</fix>
</trkpt>
<trkpt lat="-27.2157595" lon="151.441879">
  <ele>434.34</ele>
  <time>2026-09-01T20:01:02Z</time>
  <course>130.75</course>
  <speed>0.01</speed>
  <fix>3d</fix>
</trkpt>
<trkpt lat="-27.2157595" lon="151.4418791">
  <ele>433.89</ele>
  <time>2026-09-01T20:01:02Z</time>
  <course>210.52</course>
  <speed>0.01414213562373095</speed>
  <fix>3d</fix>
</trkpt>
<trkpt lat="-27.2157595" lon="151.441879">
  <ele>434.34</ele>
  <time>2026-09-01T20:01:02Z</time>
  <course>130.75</course>
  <speed>0.01</speed>
  <fix>3d</fix>
</trkpt>
<trkpt lat="-27.2157596" lon="151.4418791">
  <ele>433.74</ele>
  <time>2026-09-01T20:01:02Z</time>
  <course>210.52</course>
  <speed>0.01414213562373095</speed>
  <fix>3d</fix>
</trkpt>
<trkpt lat="-27.2157595" lon="151.4418791">
  <ele>434.04</ele>
  <time>2026-09-01T20:01:02Z</time>
  <course>135.36</course>
  <speed>0.01</speed>
  <fix>3d</fix>
</trkpt>
<trkpt lat="-27.2157596" lon="151.4418791">
  <ele>433.59</ele>
  <time>2026-09-01T20:01:02Z</time>
  <course>210.53</course>
  <speed>0.01414213562373095</speed>
  <fix>3d</fix>
</trkpt>
<trkpt lat="-27.2157595" lon="151.4418791">
  <ele>434.04</ele>
  <time>2026-09-01T20:01:02Z</time>
  <course>135.36</course>
  <speed>0.01</speed>
  <fix>3d</fix>
</trkpt>
<trkpt lat="-27.2157596" lon="151.4418791">
  <ele>433.44</ele>
  <time>2026-09-01T20:01:02Z</time>
  <course>210.53</course>
  <speed>0.01414213562373095</speed>
  <fix>3d</fix>
</trkpt>
<trkpt lat="-27.2157595" lon="151.4418791">
  <ele>433.74</ele>
  <time>2026-09-01T20:01:02Z</time>
  <course>136.98</course>
  <speed>0.01</speed>
  <fix>3d</fix>
</trkpt>
<trkpt lat="-27.2157596" lon="151.4418791">
  <ele>433.29</ele>
  <time>2026-09-01T20:01:02Z</time>
  <course>210.54</course>
  <speed>0.01414213562373095</speed>
  <fix>3d</fix>
</trkpt>
<trkpt lat="-27.2157595" lon="151.4418791">
  <ele>433.74</ele>
  <time>2026-09-01T20:01:02Z</time>
  <course>136.98</course>
  <speed>0.01</speed>
  <fix>3d</fix>
</trkpt>
<trkpt lat="-27.2157596" lon="151.4418791">
  <ele>433.14</ele>
  <time>2026-09-01T20:01:02Z</time>
  <course>210.54</course>
  <speed>0.01414213562373095</speed>
  <fix>3d</fix>
</trkpt>
<trkpt lat="-27.2157596" lon="151.4418791">
  <ele>433.44</ele>
  <time>2026-09-01T20:01:02Z</time>
  <course>136.41</course>
  <speed>0.01</speed>
  <fix>3d</fix>
</trkpt>
<trkpt lat="-27.2157596" lon="151.4418792">
  <ele>432.99</ele>
  <time>2026-09-01T20:01:02Z</time>
  <course>210.55</course>
  <speed>0.01414213562373095</speed>
  <fix>3d</fix>
</trkpt>
<trkpt lat="-27.2157596" lon="151.4418791">
  <ele>433.44</ele>
  <time>2026-09-01T20:01:02Z</time>
  <course>136.41</course>
  <speed>0.01</speed>
  <fix>3d</fix>
</trkpt>
<trkpt lat="-27.2157596" lon="151.4418792">
  <ele>432.84</ele>
  <time>2026-09-01T20:01:02Z</time>
  <course>210.55</course>
  <speed>0.01414213562373095</speed>
  <fix>3d</fix>
</trkpt>
<trkpt lat="-27.2157596" lon="151.4418791">
  <ele>433.14</ele>
  <time>2026-09-01T20:01:02Z</time>
  <course>135.33</course>
  <speed>0.01</speed>
  <fix>3d</fix>
</trkpt>
<trkpt lat="-27.2157596" lon="151.4418792">
  <ele>432.69</ele>
  <time>2026-09-01T20:01:02Z</time>
  <course>210.56</course>
  <speed>0.01414213562373095</speed>
  <fix>3d</fix>
</trkpt>
<trkpt lat="-27.2157596" lon="151.4418791">
  <ele>433.14</ele>
  <time>2026-09-01T20:01:02Z</time>
  <course>135.33</course>
  <speed>0.01</speed>
  <fix>3d</fix>
</trkpt>
<trkpt lat="-27.2157597" lon="151.4418792">
  <ele>432.54</ele>
  <time>2026-09-01T20:01:02Z</time>
  <course>210.57</course>
  <speed>0.01414213562373095</speed>
  <fix>3d</fix>
</trkpt>
<trkpt lat="-27.2157596" lon="151.4418792">
  <ele>432.84</ele>
  <time>2026-09-01T20:01:02Z</time>
  <course>135.5</course>
  <speed>0.01</speed>
  <fix>3d</fix>
</trkpt>
<trkpt lat="-27.2157597" lon="151.4418792">
  <ele>432.39</ele>
  <time>2026-09-01T20:01:02Z</time>
  <course>210.57</course>
  <speed>0.01414213562373095</speed>
  <fix>3d</fix>
</trkpt>
<trkpt lat="-27.2157596" lon="151.4418792">
  <ele>432.84</ele>
  <time>2026-09-01T20:01:02Z</time>
  <course>135.5</course>
  <speed>0.01</speed>
  <fix>3d</fix>
</trkpt>
<trkpt lat="-27.2157597" lon="151.4418792">
  <ele>432.24</ele>
  <time>2026-09-01T20:01:02Z</time>
  <course>210.58</course>
  <speed>0.01414213562373095</speed>
  <fix>3d</fix>
</trkpt>
<trkpt lat="-27.2157596" lon="151.4418792">
  <ele>432.54</ele>
  <time>2026-09-01T20:01:02Z</time>
  <course>136.96</course>
  <speed>0.01</speed>
  <fix>3d</fix>
</trkpt>
<trkpt lat="-27.2157597" lon="151.4418792">
  <ele>432.09</ele>
  <time>2026-09-01T20:01:02Z</time>
  <course>210.59</course>
  <speed>0.01414213562373095</speed>
  <fix>3d</fix>
</trkpt>
<trkpt lat="-27.2157596" lon="151.4418792">
  <ele>432.54</ele>
  <time>2026-09-01T20:01:02Z</time>
  <course>136.96</course>
  <speed>0.01</speed>
  <fix>3d</fix>
</trkpt>
<trkpt lat="-27.2157597" lon="151.4418792">
  <ele>431.94</ele>
  <time>2026-09-01T20:01:02Z</time>
  <course>210.59</course>
  <speed>0.01414213562373095</speed>
  <fix>3d</fix>
</trkpt>
<trkpt lat="-27.2157597" lon="151.4418792">
  <ele>432.24</ele>
  <time>2026-09-01T20:01:02Z</time>
  <course>138.61</course>
  <speed>0.01</speed>
  <fix>3d</fix>
</trkpt>
<trkpt lat="-27.2157597" lon="151.4418792">
  <ele>431.79</ele>
  <time>2026-09-01T20:01:02Z</time>
  <course>210.59</course>
  <speed>0.01414213562373095</speed>
  <fix>3d</fix>
</trkpt>
<trkpt lat="-27.2157597" lon="151.4418792">
  <ele>432.24</ele>
  <time>2026-09-01T20:01:02Z</time>
  <course>138.61</course>
  <speed>0.01</speed>
  <fix>3d</fix>
</trkpt>
<trkpt lat="-27.2157597" lon="151.4418792">
  <ele>431.63</ele>
  <time>2026-09-01T20:01:02Z</time>
  <course>210.6</course>
  <speed>0.01414213562373095</speed>
  <fix>3d</fix>
</trkpt>
<trkpt lat="-27.2157597" lon="151.4418792">
  <ele>431.94</ele>
  <time>2026-09-01T20:01:02Z</time>
  <course>139.73</course>
  <speed>0.01</speed>
  <fix>3d</fix>
</trkpt>
<trkpt lat="-27.2157597" lon="151.4418792">
  <ele>431.48</ele>
  <time>2026-09-01T20:01:02Z</time>
  <course>210.6</course>
  <speed>0.01414213562373095</speed>
  <fix>3d</fix>
</trkpt>
<trkpt lat="-27.2157597" lon="151.4418792">
  <ele>431.94</ele>
  <time>2026-09-01T20:01:02Z</time>
  <course>139.73</course>
  <speed>0.01</speed>
  <fix>3d</fix>
</trkpt>
<trkpt lat="-27.2157598" lon="151.4418792">
  <ele>431.33</ele>
  <time>2026-09-01T20:01:02Z</time>
  <course>210.6</course>
  <speed>0.01414213562373095</speed>
  <fix>3d</fix>
</trkpt>
<trkpt lat="-27.2157597" lon="151.4418792">
  <ele>431.64</ele>
  <time>2026-09-01T20:01:02Z</time>
  <course>140.62</course>
  <speed>0.01</speed>
  <fix>3d</fix>
</trkpt>
<trkpt lat="-27.2157598" lon="151.4418792">
  <ele>431.18</ele>
  <time>2026-09-01T20:01:02Z</time>
  <course>210.61</course>
  <speed>0.01414213562373095</speed>
  <fix>3d</fix>
</trkpt>
<trkpt lat="-27.2157597" lon="151.4418792">
  <ele>431.64</ele>
  <time>2026-09-01T20:01:02Z</time>
  <course>140.62</course>
  <speed>0.01</speed>
  <fix>3d</fix>
</trkpt>
<trkpt lat="-27.2157598" lon="151.4418792">
  <ele>431.03</ele>
  <time>2026-09-01T20:01:02Z</time>
  <course>210.62</course>
  <speed>0.01414213562373095</speed>
  <fix>3d</fix>
</trkpt>
<trkpt lat="-27.2157597" lon="151.4418792">
  <ele>431.34</ele>
  <time>2026-09-01T20:01:02Z</time>
  <course>141.61</course>
  <speed>0.01</speed>
  <fix>3d</fix>
</trkpt>
<trkpt lat="-27.2157598" lon="151.4418792">
  <ele>430.88</ele>
  <time>2026-09-01T20:01:02Z</time>
  <course>210.62</course>
  <speed>0.01414213562373095</speed>
  <fix>3d</fix>
</trkpt>
<trkpt lat="-27.2157597" lon="151.4418792">
  <ele>431.34</ele>
  <time>2026-09-01T20:01:02Z</time>
  <course>141.61</course>
  <speed>0.01</speed>
  <fix>3d</fix>
</trkpt>
<trkpt lat="-27.2157598" lon="151.4418792">
  <ele>430.73</ele>
  <time>2026-09-01T20:01:02Z</time>
  <course>210.63</course>
  <speed>0.01414213562373095</speed>
  <fix>3d</fix>
</trkpt>
<trkpt lat="-27.2157598" lon="151.4418792">
  <ele>431.04</ele>
  <time>2026-09-01T20:01:02Z</time>
  <course>141.63</course>
  <speed>0.01</speed>
  <fix>3d</fix>
</trkpt>
<trkpt lat="-27.2157598" lon="151.4418794">
  <ele>430.59</ele>
  <time>2026-09-01T20:01:02Z</time>
  <course>210.63</course>
  <speed>0.01414213562373095</speed>
  <fix>3d</fix>
</trkpt>
<trkpt lat="-27.2157598" lon="151.4418792">
  <ele>431.04</ele>
  <time>2026-09-01T20:01:02Z</time>
  <course>141.63</course>
  <speed>0.01</speed>
  <fix>3d</fix>
</trkpt>
<trkpt lat="-27.2157598" lon="151.4418794">
  <ele>430.44</ele>
  <time>2026-09-01T20:01:02Z</time>
  <course>210.64</course>
  <speed>0.01414213562373095</speed>
  <fix>3d</fix>
</trkpt>
<trkpt lat="-27.2157598" lon="151.4418793">
  <ele>430.74</ele>
  <time>2026-09-01T20:01:02Z</time>
  <course>140.57</course>
  <speed>0.01</speed>
  <fix>3d</fix>
</trkpt>
<trkpt lat="-27.2157598" lon="151.4418794">
  <ele>430.29</ele>
  <time>2026-09-01T20:01:02Z</time>
  <course>210.65</course>
  <speed>0.01414213562373095</speed>
  <fix>3d</fix>
</trkpt>
<trkpt lat="-27.2157598" lon="151.4418793">
  <ele>430.74</ele>
  <time>2026-09-01T20:01:02Z</time>
  <course>140.57</course>
  <speed>0.01</speed>
  <fix>3d</fix>
</trkpt>
<trkpt lat="-27.2157599" lon="151.4418794">
  <ele>430.14</ele>
  <time>2026-09-01T20:01:02Z</time>
  <course>210.67</course>
  <speed>0.01414213562373095</speed>
  <fix>3d</fix>
</trkpt>
<trkpt lat="-27.2157598" lon="151.4418794">
  <ele>430.44</ele>
  <time>2026-09-01T20:01:02Z</time>
  <course>139.44</course>
  <speed>0.01</speed>
  <fix>3d</fix>
</trkpt>
<trkpt lat="-27.2157599" lon="151.4418794">
  <ele>429.99</ele>
  <time>2026-09-01T20:01:02Z</time>
  <course>210.68</course>
  <speed>0.01414213562373095</speed>
  <fix>3d</fix>
</trkpt>
<trkpt lat="-27.2157598" lon="151.4418794">
  <ele>430.44</ele>
  <time>2026-09-01T20:01:02Z</time>
  <course>139.44</course>
  <speed>0.01</speed>
  <fix>3d</fix>
</trkpt>
<trkpt lat="-27.2157599" lon="151.4418794">
  <ele>429.84</ele>
  <time>2026-09-01T20:01:02Z</time>
  <course>210.7</course>
  <speed>0.01414213562373095</speed>
  <fix>3d</fix>
</trkpt>
<trkpt lat="-27.2157598" lon="151.4418794">
  <ele>430.14</ele>
  <time>2026-09-01T20:01:02Z</time>
  <course>138.15</course>
  <speed>0.01</speed>
  <fix>3d</fix>
</trkpt>
<trkpt lat="-27.2157599" lon="151.4418794">
  <ele>429.69</ele>
  <time>2026-09-01T20:01:02Z</time>
  <course>210.71</course>
  <speed>0.01414213562373095</speed>
  <fix>3d</fix>
</trkpt>
<trkpt lat="-27.2157598" lon="151.4418794">
  <ele>430.14</ele>
  <time>2026-09-01T20:01:02Z</time>
  <course>138.15</course>
  <speed>0.01</speed>
  <fix>3d</fix>
</trkpt>
<trkpt lat="-27.2157599" lon="151.4418794">
  <ele>429.54</ele>
  <time>2026-09-01T20:01:02Z</time>
  <course>210.72</course>
  <speed>0.01414213562373095</speed>
  <fix>3d</fix>
</trkpt>
<trkpt lat="-27.2157599" lon="151.4418794">
  <ele>429.84</ele>
  <time>2026-09-01T20:01:02Z</time>
  <course>135.78</course>
  <speed>0.01</speed>
  <fix>3d</fix>
</trkpt>
<trkpt lat="-27.2157599" lon="151.4418795">
  <ele>429.39</ele>
  <time>2026-09-01T20:01:02Z</time>
  <course>210.73</course>
  <speed>0.01414213562373095</speed>
  <fix>3d</fix>
</trkpt>
<trkpt lat="-27.2157599" lon="151.4418794">
  <ele>429.84</ele>
  <time>2026-09-01T20:01:02Z</time>
  <course>135.78</course>
  <speed>0.01</speed>
  <fix>3d</fix>
</trkpt>
<trkpt lat="-27.2157599" lon="151.4418795">
  <ele>429.24</ele>
  <time>2026-09-01T20:01:02Z</time>
  <course>210.75</course>
  <speed>0.01414213562373095</speed>
  <fix>3d</fix>
</trkpt>
<trkpt lat="-27.2157599" lon="151.4418794">
  <ele>429.54</ele>
  <time>2026-09-01T20:01:02Z</time>
  <course>133.46</course>
  <speed>0.01</speed>
  <fix>3d</fix>
</trkpt>
<trkpt lat="-27.2157599" lon="151.4418795">
  <ele>429.09</ele>
  <time>2026-09-01T20:01:02Z</time>
  <course>210.77</course>
  <speed>0.01414213562373095</speed>
  <fix>3d</fix>
</trkpt>
<trkpt lat="-27.2157599" lon="151.4418794">
  <ele>429.54</ele>
  <time>2026-09-01T20:01:02Z</time>
  <course>133.46</course>
  <speed>0.01</speed>
  <fix>3d</fix>
</trkpt>
<trkpt lat="-27.21576" lon="151.4418795">
  <ele>428.94</ele>
  <time>2026-09-01T20:01:02Z</time>
  <course>210.79</course>
  <speed>0.01414213562373095</speed>
  <fix>3d</fix>
</trkpt>
<trkpt lat="-27.2157599" lon="151.4418795">
  <ele>429.24</ele>
  <time>2026-09-01T20:01:02Z</time>
  <course>132.94</course>
  <speed>0.01</speed>
  <fix>3d</fix>
</trkpt>
<trkpt lat="-27.21576" lon="151.4418795">
  <ele>428.79</ele>
  <time>2026-09-01T20:01:02Z</time>
  <course>210.81</course>
  <speed>0.01414213562373095</speed>
  <fix>3d</fix>
</trkpt>
<trkpt lat="-27.2157599" lon="151.4418795">
  <ele>429.24</ele>
  <time>2026-09-01T20:01:02Z</time>
  <course>132.94</course>
  <speed>0.01</speed>
  <fix>3d</fix>
</trkpt>
<trkpt lat="-27.21576" lon="151.4418795">
  <ele>428.64</ele>
  <time>2026-09-01T20:01:02Z</time>
  <course>210.81</course>
  <speed>0.01414213562373095</speed>
  <fix>3d</fix>
</trkpt>
<trkpt lat="-27.2157599" lon="151.4418795">
  <ele>428.94</ele>
  <time>2026-09-01T20:01:02Z</time>
  <course>133.68</course>
  <speed>0.01</speed>
  <fix>3d</fix>
</trkpt>
<trkpt lat="-27.21576" lon="151.4418795">
  <ele>428.48</ele>
  <time>2026-09-01T20:01:02Z</time>
  <course>210.81</course>
  <speed>0.01414213562373095</speed>
  <fix>3d</fix>
</trkpt>
<trkpt lat="-27.2157599" lon="151.4418795">
  <ele>428.94</ele>
  <time>2026-09-01T20:01:02Z</time>
  <course>133.68</course>
  <speed>0.01</speed>
  <fix>3d</fix>
</trkpt>
<trkpt lat="-27.21576" lon="151.4418796">
  <ele>428.33</ele>
  <time>2026-09-01T20:01:02Z</time>
  <course>210.82</course>
  <speed>0.01414213562373095</speed>
  <fix>3d</fix>
</trkpt>
<trkpt lat="-27.21576" lon="151.4418795">
  <ele>428.64</ele>
  <time>2026-09-01T20:01:02Z</time>
  <course>134.78</course>
  <speed>0.01</speed>
  <fix>3d</fix>
</trkpt>
<trkpt lat="-27.21576" lon="151.4418796">
  <ele>428.18</ele>
  <time>2026-09-01T20:01:02Z</time>
  <course>210.83</course>
  <speed>0.01414213562373095</speed>
  <fix>3d</fix>
</trkpt>
<trkpt lat="-27.21576" lon="151.4418795">
  <ele>428.64</ele>
  <time>2026-09-01T20:01:02Z</time>
  <course>134.78</course>
  <speed>0.01</speed>
  <fix>3d</fix>
</trkpt>
<trkpt lat="-27.21576" lon="151.4418796">
  <ele>428.03</ele>
  <time>2026-09-01T20:01:02Z</time>
  <course>210.84</course>
  <speed>0.01414213562373095</speed>
  <fix>3d</fix>
</trkpt>
<trkpt lat="-27.21576" lon="151.4418795">
  <ele>428.34</ele>
  <time>2026-09-01T20:01:02Z</time>
  <course>134.95</course>
  <speed>0.01</speed>
  <fix>3d</fix>
</trkpt>
<trkpt lat="-27.21576" lon="151.4418796">
  <ele>427.88</ele>
  <time>2026-09-01T20:01:02Z</time>
  <course>210.85</course>
  <speed>0.01414213562373095</speed>
  <fix>3d</fix>
</trkpt>
<trkpt lat="-27.21576" lon="151.4418795">
  <ele>428.34</ele>
  <time>2026-09-01T20:01:02Z</time>
  <course>134.95</course>
  <speed>0.01</speed>
  <fix>3d</fix>
</trkpt>
<trkpt lat="-27.2157601" lon="151.4418796">
  <ele>427.73</ele>
  <time>2026-09-01T20:01:02Z</time>
  <course>210.86</course>
  <speed>0.01414213562373095</speed>
  <fix>3d</fix>
</trkpt>
<trkpt lat="-27.21576" lon="151.4418796">
  <ele>428.04</ele>
  <time>2026-09-01T20:01:02Z</time>
  <course>134.61</course>
  <speed>0.02</speed>
  <fix>3d</fix>
</trkpt>
<trkpt lat="-27.2157601" lon="151.4418796">
  <ele>427.58</ele>
  <time>2026-09-01T20:01:02Z</time>
  <course>210.87</course>
  <speed>0.01414213562373095</speed>
  <fix>3d</fix>
</trkpt>
<trkpt lat="-27.21576" lon="151.4418796">
  <ele>428.04</ele>
  <time>2026-09-01T20:01:02Z</time>
  <course>134.61</course>
  <speed>0.02</speed>
  <fix>3d</fix>
</trkpt>
<trkpt lat="-27.2157601" lon="151.4418796">
  <ele>427.43</ele>
  <time>2026-09-01T20:01:02Z</time>
  <course>210.88</course>
  <speed>0.01414213562373095</speed>
  <fix>3d</fix>
</trkpt>
<trkpt lat="-27.21576" lon="151.4418796">
  <ele>427.74</ele>
  <time>2026-09-01T20:01:02Z</time>
  <course>134.95</course>
  <speed>0.02</speed>
  <fix>3d</fix>
</trkpt>
<trkpt lat="-27.2157601" lon="151.4418796">
  <ele>427.28</ele>
  <time>2026-09-01T20:01:02Z</time>
  <course>210.89</course>
  <speed>0.01414213562373095</speed>
  <fix>3d</fix>
</trkpt>
<trkpt lat="-27.21576" lon="151.4418796">
  <ele>427.74</ele>
  <time>2026-09-01T20:01:02Z</time>
  <course>134.95</course>
  <speed>0.02</speed>
  <fix>3d</fix>
</trkpt>
<trkpt lat="-27.2157601" lon="151.4418796">
  <ele>427.13</ele>
  <time>2026-09-01T20:01:02Z</time>
  <course>210.9</course>
  <speed>0.01414213562373095</speed>
  <fix>3d</fix>
</trkpt>
<trkpt lat="-27.2157601" lon="151.4418796">
  <ele>427.44</ele>
  <time>2026-09-01T20:01:02Z</time>
  <course>134.4</course>
  <speed>0.02</speed>
  <fix>3d</fix>
</trkpt>
<trkpt lat="-27.2157601" lon="151.4418796">
  <ele>426.98</ele>
  <time>2026-09-01T20:01:02Z</time>
  <course>210.91</course>
  <speed>0.01414213562373095</speed>
  <fix>3d</fix>
</trkpt>
<trkpt lat="-27.2157601" lon="151.4418796">
  <ele>427.44</ele>
  <time>2026-09-01T20:01:02Z</time>
  <course>134.4</course>
  <speed>0.02</speed>
  <fix>3d</fix>
</trkpt>
<trkpt lat="-27.2157601" lon="151.4418796">
  <ele>426.83</ele>
  <time>2026-09-01T20:01:02Z</time>
  <course>210.93</course>
  <speed>0.01414213562373095</speed>
  <fix>3d</fix>
</trkpt>
<trkpt lat="-27.2157601" lon="151.4418796">
  <ele>427.14</ele>
  <time>2026-09-01T20:01:02Z</time>
  <course>132.51</course>
  <speed>0.02</speed>
  <fix>3d</fix>
</trkpt>
<trkpt lat="-27.2157601" lon="151.4418796">
  <ele>426.69</ele>
  <time>2026-09-01T20:01:02Z</time>
  <course>210.95</course>
  <speed>0.01414213562373095</speed>
  <fix>3d</fix>
</trkpt>
<trkpt lat="-27.2157601" lon="151.4418796">
  <ele>427.14</ele>
  <time>2026-09-01T20:01:02Z</time>
  <course>132.51</course>
  <speed>0.02</speed>
  <fix>3d</fix>
</trkpt>
<trkpt lat="-27.2157602" lon="151.4418796">
  <ele>426.54</ele>
  <time>2026-09-01T20:01:02Z</time>
  <course>210.97</course>
  <speed>0.01414213562373095</speed>
  <fix>3d</fix>
</trkpt>
<trkpt lat="-27.2157601" lon="151.4418796">
  <ele>426.84</ele>
  <time>2026-09-01T20:01:02Z</time>
  <course>129.26</course>
  <speed>0.02</speed>
  <fix>3d</fix>
</trkpt>
<trkpt lat="-27.2157602" lon="151.4418797">
  <ele>426.39</ele>
  <time>2026-09-01T20:01:02Z</time>
  <course>211.0</course>
  <speed>0.01414213562373095</speed>
  <fix>3d</fix>
</trkpt>
<trkpt lat="-27.2157601" lon="151.4418796">
  <ele>426.84</ele>
  <time>2026-09-01T20:01:02Z</time>
  <course>129.26</course>
  <speed>0.02</speed>
  <fix>3d</fix>
</trkpt>
<trkpt lat="-27.2157602" lon="151.4418797">
  <ele>426.24</ele>
  <time>2026-09-01T20:01:02Z</time>
  <course>211.04</course>
  <speed>0.01414213562373095</speed>
  <fix>3d</fix>
</trkpt>
<trkpt lat="-27.2157601" lon="151.4418797">
  <ele>426.54</ele>
  <time>2026-09-01T20:01:02Z</time>
  <course>124.82</course>
  <speed>0.02</speed>
  <fix>3d</fix>
</trkpt>
<trkpt lat="-27.2157602" lon="151.4418797">
  <ele>426.09</ele>
  <time>2026-09-01T20:01:02Z</time>
  <course>211.08</course>
  <speed>0.01414213562373095</speed>
  <fix>3d</fix>
</trkpt>
<trkpt lat="-27.2157601" lon="151.4418797">
  <ele>426.54</ele>
  <time>2026-09-01T20:01:02Z</time>
  <course>124.82</course>
  <speed>0.02</speed>
  <fix>3d</fix>
</trkpt>
<trkpt lat="-27.2157602" lon="151.4418797">
  <ele>425.94</ele>
  <time>2026-09-01T20:01:02Z</time>
  <course>211.1</course>
  <speed>0.01414213562373095</speed>
  <fix>3d</fix>
</trkpt>
<trkpt lat="-27.2157602" lon="151.4418797">
  <ele>426.24</ele>
  <time>2026-09-01T20:01:02Z</time>
  <course>120.84</course>
  <speed>0.02</speed>
  <fix>3d</fix>
</trkpt>
<trkpt lat="-27.2157602" lon="151.4418797">
  <ele>425.79</ele>
  <time>2026-09-01T20:01:02Z</time>
  <course>211.12</course>
  <speed>0.01414213562373095</speed>
  <fix>3d</fix>
</trkpt>
<trkpt lat="-27.2157602" lon="151.4418797">
  <ele>426.24</ele>
  <time>2026-09-01T20:01:02Z</time>
  <course>120.84</course>
  <speed>0.02</speed>
  <fix>3d</fix>
</trkpt>
<trkpt lat="-27.2157602" lon="151.4418799">
  <ele>425.64</ele>
  <time>2026-09-01T20:01:02Z</time>
  <course>211.13</course>
  <speed>0.01414213562373095</speed>
  <fix>3d</fix>
</trkpt>
<trkpt lat="-27.2157602" lon="151.4418797">
  <ele>425.94</ele>
  <time>2026-09-01T20:01:02Z</time>
  <course>118.29</course>
  <speed>0.02</speed>
  <fix>3d</fix>
</trkpt>
<trkpt lat="-27.2157602" lon="151.4418799">
  <ele>425.49</ele>
  <time>2026-09-01T20:01:02Z</time>
  <course>211.15</course>
  <speed>0.022360679774997897</speed>
  <fix>3d</fix>
</trkpt>
<trkpt lat="-27.2157602" lon="151.4418797">
  <ele>425.94</ele>
  <time>2026-09-01T20:01:02Z</time>
  <course>118.29</course>
  <speed>0.02</speed>
  <fix>3d</fix>
</trkpt>
<trkpt lat="-27.2157602" lon="151.4418799">
  <ele>425.33</ele>
  <time>2026-09-01T20:01:02Z</time>
  <course>211.18</course>
  <speed>0.022360679774997897</speed>
  <fix>3d</fix>
</trkpt>
<trkpt lat="-27.2157602" lon="151.4418798">
  <ele>425.64</ele>
  <time>2026-09-01T20:01:02Z</time>
  <course>117.86</course>
  <speed>0.02</speed>
  <fix>3d</fix>
</trkpt>
<trkpt lat="-27.2157602" lon="151.4418799">
  <ele>425.18</ele>
  <time>2026-09-01T20:01:02Z</time>
  <course>211.21</course>
  <speed>0.022360679774997897</speed>
  <fix>3d</fix>
</trkpt>
<trkpt lat="-27.2157602" lon="151.4418798">
  <ele>425.64</ele>
  <time>2026-09-01T20:01:02Z</time>
  <course>117.86</course>
  <speed>0.02</speed>
  <fix>3d</fix>
</trkpt>
<trkpt lat="-27.2157603" lon="151.4418799">
  <ele>425.03</ele>
  <time>2026-09-01T20:01:02Z</time>
  <course>211.24</course>
  <speed>0.022360679774997897</speed>
  <fix>3d</fix>
</trkpt>
<trkpt lat="-27.2157602" lon="151.4418799">
  <ele>425.34</ele>
  <time>2026-09-01T20:01:02Z</time>
  <course>119.09</course>
  <speed>0.02</speed>
  <fix>3d</fix>
</trkpt>
<trkpt lat="-27.2157603" lon="151.44188">
  <ele>424.88</ele>
  <time>2026-09-01T20:01:02Z</time>
  <course>211.27</course>
  <speed>0.022360679774997897</speed>
  <fix>3d</fix>
</trkpt>
<trkpt lat="-27.2157602" lon="151.4418799">
  <ele>425.34</ele>
  <time>2026-09-01T20:01:02Z</time>
  <course>119.09</course>
  <speed>0.02</speed>
  <fix>3d</fix>
</trkpt>
<trkpt lat="-27.2157603" lon="151.44188">
  <ele>424.73</ele>
  <time>2026-09-01T20:01:02Z</time>
  <course>211.3</course>
  <speed>0.022360679774997897</speed>
  <fix>3d</fix>
</trkpt>
<trkpt lat="-27.2157602" lon="151.4418799">
  <ele>425.04</ele>
  <time>2026-09-01T20:01:02Z</time>
  <course>119.5</course>
  <speed>0.02</speed>
  <fix>3d</fix>
</trkpt>
<trkpt lat="-27.2157603" lon="151.44188">
  <ele>424.58</ele>
  <time>2026-09-01T20:01:02Z</time>
  <course>211.33</course>
  <speed>0.022360679774997897</speed>
  <fix>3d</fix>
</trkpt>
<trkpt lat="-27.2157602" lon="151.4418799">
  <ele>425.04</ele>
  <time>2026-09-01T20:01:02Z</time>
  <course>119.5</course>
  <speed>0.02</speed>
  <fix>3d</fix>
</trkpt>
<trkpt lat="-27.2157603" lon="151.44188">
  <ele>424.43</ele>
  <time>2026-09-01T20:01:02Z</time>
  <course>211.36</course>
  <speed>0.022360679774997897</speed>
  <fix>3d</fix>
</trkpt>
<trkpt lat="-27.2157603" lon="151.44188">
  <ele>424.74</ele>
  <time>2026-09-01T20:01:02Z</time>
  <course>118.87</course>
  <speed>0.02</speed>
  <fix>3d</fix>
</trkpt>
<trkpt lat="-27.2157603" lon="151.4418801">
  <ele>424.28</ele>
  <time>2026-09-01T20:01:02Z</time>
  <course>211.39</course>
  <speed>0.022360679774997897</speed>
  <fix>3d</fix>
</trkpt>
<trkpt lat="-27.2157603" lon="151.44188">
  <ele>424.74</ele>
  <time>2026-09-01T20:01:02Z</time>
  <course>118.87</course>
  <speed>0.02</speed>
  <fix>3d</fix>
</trkpt>
<trkpt lat="-27.2157603" lon="151.4418801">
  <ele>424.13</ele>
  <time>2026-09-01T20:01:02Z</time>
  <course>211.41</course>
  <speed>0.022360679774997897</speed>
  <fix>3d</fix>
</trkpt>
<trkpt lat="-27.2157603" lon="151.44188">
  <ele>424.44</ele>
  <time>2026-09-01T20:01:02Z</time>
  <course>119.18</course>
  <speed>0.02</speed>
  <fix>3d</fix>
</trkpt>
<trkpt lat="-27.2157603" lon="151.4418801">
  <ele>423.98</ele>
  <time>2026-09-01T20:01:02Z</time>
  <course>211.43</course>
  <speed>0.022360679774997897</speed>
  <fix>3d</fix>
</trkpt>
<trkpt lat="-27.2157603" lon="151.44188">
  <ele>424.44</ele>
  <time>2026-09-01T20:01:02Z</time>
  <course>119.18</course>
  <speed>0.02</speed>
  <fix>3d</fix>
</trkpt>
<trkpt lat="-27.2157603" lon="151.4418801">
  <ele>423.83</ele>
  <time>2026-09-01T20:01:02Z</time>
  <course>211.45</course>
  <speed>0.022360679774997897</speed>
  <fix>3d</fix>
</trkpt>
<trkpt lat="-27.2157603" lon="151.4418801">
  <ele>424.14</ele>
  <time>2026-09-01T20:01:02Z</time>
  <course>119.44</course>
  <speed>0.02</speed>
  <fix>3d</fix>
</trkpt>
<trkpt lat="-27.2157604" lon="151.4418801">
  <ele>423.68</ele>
  <time>2026-09-01T20:01:02Z</time>
  <course>211.47</course>
  <speed>0.022360679774997897</speed>
  <fix>3d</fix>
</trkpt>
<trkpt lat="-27.2157603" lon="151.4418801">
  <ele>424.14</ele>
  <time>2026-09-01T20:01:02Z</time>
  <course>119.44</course>
  <speed>0.02</speed>
  <fix>3d</fix>
</trkpt>
<trkpt lat="-27.2157604" lon="151.4418801">
  <ele>423.53</ele>
  <time>2026-09-01T20:01:02Z</time>
  <course>211.49</course>
  <speed>0.022360679774997897</speed>
  <fix>3d</fix>
</trkpt>
<trkpt lat="-27.2157603" lon="151.4418801">
  <ele>423.84</ele>
  <time>2026-09-01T20:01:02Z</time>
  <course>118.85</course>
  <speed>0.02</speed>
  <fix>3d</fix>
</trkpt>
<trkpt lat="-27.2157604" lon="151.4418801">
  <ele>423.38</ele>
  <time>2026-09-01T20:01:02Z</time>
  <course>211.52</course>
  <speed>0.022360679774997897</speed>
  <fix>3d</fix>
</trkpt>
<trkpt lat="-27.2157603" lon="151.4418801">
  <ele>423.84</ele>
  <time>2026-09-01T20:01:02Z</time>
  <course>118.85</course>
  <speed>0.02</speed>
  <fix>3d</fix>
</trkpt>
<trkpt lat="-27.2157604" lon="151.4418801">
  <ele>423.23</ele>
  <time>2026-09-01T20:01:02Z</time>
  <course>211.55</course>
  <speed>0.022360679774997897</speed>
  <fix>3d</fix>
</trkpt>
<trkpt lat="-27.2157604" lon="151.4418801">
  <ele>423.54</ele>
  <time>2026-09-01T20:01:02Z</time>
  <course>118.88</course>
  <speed>0.02</speed>
  <fix>3d</fix>
</trkpt>
<trkpt lat="-27.2157604" lon="151.4418801">
  <ele>423.08</ele>
  <time>2026-09-01T20:01:02Z</time>
  <course>211.57</course>
  <speed>0.022360679774997897</speed>
  <fix>3d</fix>
</trkpt>
<trkpt lat="-27.2157604" lon="151.4418801">
  <ele>423.54</ele>
  <time>2026-09-01T20:01:02Z</time>
  <course>118.88</course>
  <speed>0.02</speed>
  <fix>3d</fix>
</trkpt>
<trkpt lat="-27.2157604" lon="151.4418802">
  <ele>422.93</ele>
  <time>2026-09-01T20:01:02Z</time>
  <course>211.6</course>
  <speed>0.022360679774997897</speed>
  <fix>3d</fix>
</trkpt>
<trkpt lat="-27.2157604" lon="151.4418801">
  <ele>423.24</ele>
  <time>2026-09-01T20:01:02Z</time>
  <course>119.41</course>
  <speed>0.02</speed>
  <fix>3d</fix>
</trkpt>
<trkpt lat="-27.2157604" lon="151.4418802">
  <ele>422.78</ele>
  <time>2026-09-01T20:01:02Z</time>
  <course>211.62</course>
  <speed>0.022360679774997897</speed>
  <fix>3d</fix>
</trkpt>
<trkpt lat="-27.2157604" lon="151.4418801">
  <ele>423.24</ele>
  <time>2026-09-01T20:01:02Z</time>
  <course>119.41</course>
  <speed>0.02</speed>
  <fix>3d</fix>
</trkpt>
<trkpt lat="-27.2157604" lon="151.4418802">
  <ele>422.63</ele>
  <time>2026-09-01T20:01:02Z</time>
  <course>211.65</course>
  <speed>0.022360679774997897</speed>
  <fix>3d</fix>
</trkpt>
<trkpt lat="-27.2157604" lon="151.4418802">
  <ele>422.94</ele>
  <time>2026-09-01T20:01:02Z</time>
  <course>119.09</course>
  <speed>0.02</speed>
  <fix>3d</fix>
</trkpt>
<trkpt lat="-27.2157605" lon="151.4418804">
  <ele>422.49</ele>
  <time>2026-09-01T20:01:02Z</time>
  <course>211.68</course>
  <speed>0.022360679774997897</speed>
  <fix>3d</fix>
</trkpt>
<trkpt lat="-27.2157604" lon="151.4418802">
  <ele>422.94</ele>
  <time>2026-09-01T20:01:02Z</time>
  <course>119.09</course>
  <speed>0.02</speed>
  <fix>3d</fix>
</trkpt>
<trkpt lat="-27.2157605" lon="151.4418804">
  <ele>422.33</ele>
  <time>2026-09-01T20:01:02Z</time>
  <course>211.72</course>
  <speed>0.022360679774997897</speed>
  <fix>3d</fix>
</trkpt>
<trkpt lat="-27.2157604" lon="151.4418803">
  <ele>422.64</ele>
  <time>2026-09-01T20:01:02Z</time>
  <course>119.03</course>
  <speed>0.03</speed>
  <fix>3d</fix>
</trkpt>
<trkpt lat="-27.2157605" lon="151.4418804">
  <ele>422.18</ele>
  <time>2026-09-01T20:01:02Z</time>
  <course>211.76</course>
  <speed>0.022360679774997897</speed>
  <fix>3d</fix>
</trkpt>
<trkpt lat="-27.2157604" lon="151.4418803">
  <ele>422.64</ele>
  <time>2026-09-01T20:01:02Z</time>
  <course>119.03</course>
  <speed>0.03</speed>
  <fix>3d</fix>
</trkpt>
<trkpt lat="-27.2157605" lon="151.4418804">
  <ele>422.03</ele>
  <time>2026-09-01T20:01:02Z</time>
  <course>211.82</course>
  <speed>0.022360679774997897</speed>
  <fix>3d</fix>
</trkpt>
<trkpt lat="-27.2157605" lon="151.4418804">
  <ele>422.34</ele>
  <time>2026-09-01T20:01:02Z</time>
  <course>119.92</course>
  <speed>0.03</speed>
  <fix>3d</fix>
</trkpt>
<trkpt lat="-27.2157605" lon="151.4418805">
  <ele>421.88</ele>
  <time>2026-09-01T20:01:02Z</time>
  <course>211.87</course>
  <speed>0.022360679774997897</speed>
  <fix>3d</fix>
</trkpt>
<trkpt lat="-27.2157605" lon="151.4418804">
  <ele>422.34</ele>
  <time>2026-09-01T20:01:02Z</time>
  <course>119.92</course>
  <speed>0.03</speed>
  <fix>3d</fix>
</trkpt>
<trkpt lat="-27.2157605" lon="151.4418805">
  <ele>421.73</ele>
  <time>2026-09-01T20:01:02Z</time>
  <course>211.92</course>
  <speed>0.022360679774997897</speed>
  <fix>3d</fix>
</trkpt>
<trkpt lat="-27.2157605" lon="151.4418804">
  <ele>422.04</ele>
  <time>2026-09-01T20:01:02Z</time>
  <course>120.88</course>
  <speed>0.03</speed>
  <fix>3d</fix>
</trkpt>
<trkpt lat="-27.2157606" lon="151.4418805">
  <ele>421.58</ele>
  <time>2026-09-01T20:01:02Z</time>
  <course>211.96</course>
  <speed>0.0316227766016838</speed>
  <fix>3d</fix>
</trkpt>
<trkpt lat="-27.2157605" lon="151.4418804">
  <ele>422.04</ele>
  <time>2026-09-01T20:01:02Z</time>
  <course>120.88</course>
  <speed>0.03</speed>
  <fix>3d</fix>
</trkpt>
<trkpt lat="-27.2157606" lon="151.4418806">
  <ele>421.43</ele>
  <time>2026-09-01T20:01:02Z</time>
  <course>212.01</course>
  <speed>0.022360679774997897</speed>
  <fix>3d</fix>
</trkpt>
<trkpt lat="-27.2157605" lon="151.4418805">
  <ele>421.74</ele>
  <time>2026-09-01T20:01:02Z</time>
  <course>121.93</course>
  <speed>0.03</speed>
  <fix>3d</fix>
</trkpt>
<trkpt lat="-27.2157606" lon="151.4418806">
  <ele>421.28</ele>
  <time>2026-09-01T20:01:02Z</time>
  <course>212.04</course>
  <speed>0.03605551275463989</speed>
  <fix>3d</fix>
</trkpt>
<trkpt lat="-27.2157605" lon="151.4418805">
  <ele>421.74</ele>
  <time>2026-09-01T20:01:02Z</time>
  <course>121.93</course>
  <speed>0.03</speed>
  <fix>3d</fix>
</trkpt>
<trkpt lat="-27.2157606" lon="151.4418806">
  <ele>421.13</ele>
  <time>2026-09-01T20:01:02Z</time>
  <course>212.08</course>
  <speed>0.03605551275463989</speed>
  <fix>3d</fix>
</trkpt>
<trkpt lat="-27.2157606" lon="151.4418805">
  <ele>421.44</ele>
  <time>2026-09-01T20:01:02Z</time>
  <course>123.18</course>
  <speed>0.03</speed>
  <fix>3d</fix>
</trkpt>
<trkpt lat="-27.2157606" lon="151.4418806">
  <ele>420.98</ele>
  <time>2026-09-01T20:01:02Z</time>
  <course>212.12</course>
  <speed>0.03605551275463989</speed>
  <fix>3d</fix>
</trkpt>
<trkpt lat="-27.2157606" lon="151.4418805">
  <ele>421.44</ele>
  <time>2026-09-01T20:01:02Z</time>
  <course>123.18</course>
  <speed>0.03</speed>
  <fix>3d</fix>
</trkpt>
<trkpt lat="-27.2157606" lon="151.4418806">
  <ele>420.83</ele>
  <time>2026-09-01T20:01:02Z</time>
  <course>212.16</course>
  <speed>0.03605551275463989</speed>
  <fix>3d</fix>
</trkpt>
<trkpt lat="-27.2157606" lon="151.4418806">
  <ele>421.14</ele>
  <time>2026-09-01T20:01:02Z</time>
  <course>124.02</course>
  <speed>0.03</speed>
  <fix>3d</fix>
</trkpt>
<trkpt lat="-27.2157607" lon="151.4418806">
  <ele>420.68</ele>
  <time>2026-09-01T20:01:02Z</time>
  <course>212.19</course>
  <speed>0.03605551275463989</speed>
  <fix>3d</fix>
</trkpt>
<trkpt lat="-27.2157606" lon="151.4418806">
  <ele>421.14</ele>
  <time>2026-09-01T20:01:02Z</time>
  <course>124.02</course>
  <speed>0.03</speed>
  <fix>3d</fix>
</trkpt>
<trkpt lat="-27.2157607" lon="151.4418808">
  <ele>420.53</ele>
  <time>2026-09-01T20:01:02Z</time>
  <course>212.22</course>
  <speed>0.03605551275463989</speed>
  <fix>3d</fix>
</trkpt>
<trkpt lat="-27.2157606" lon="151.4418806">
  <ele>420.84</ele>
  <time>2026-09-01T20:01:02Z</time>
  <course>124.55</course>
  <speed>0.03</speed>
  <fix>3d</fix>
</trkpt>
<trkpt lat="-27.2157607" lon="151.4418808">
  <ele>420.38</ele>
  <time>2026-09-01T20:01:02Z</time>
  <course>212.26</course>
  <speed>0.03605551275463989</speed>
  <fix>3d</fix>
</trkpt>
<trkpt lat="-27.2157606" lon="151.4418806">
  <ele>420.84</ele>
  <time>2026-09-01T20:01:02Z</time>
  <course>124.55</course>
  <speed>0.03</speed>
  <fix>3d</fix>
</trkpt>
<trkpt lat="-27.2157607" lon="151.4418808">
  <ele>420.23</ele>
  <time>2026-09-01T20:01:02Z</time>
  <course>212.31</course>
  <speed>0.03605551275463989</speed>
  <fix>3d</fix>
</trkpt>
<trkpt lat="-27.2157607" lon="151.4418807">
  <ele>420.54</ele>
  <time>2026-09-01T20:01:02Z</time>
  <course>124.86</course>
  <speed>0.04</speed>
  <fix>3d</fix>
</trkpt>
<trkpt lat="-27.2157608" lon="151.4418809">
  <ele>420.08</ele>
  <time>2026-09-01T20:01:02Z</time>
  <course>212.36</course>
  <speed>0.03605551275463989</speed>
  <fix>3d</fix>
</trkpt>
<trkpt lat="-27.2157607" lon="151.4418807">
  <ele>420.54</ele>
  <time>2026-09-01T20:01:02Z</time>
  <course>124.86</course>
  <speed>0.04</speed>
  <fix>3d</fix>
</trkpt>
<trkpt lat="-27.2157608" lon="151.4418809">
  <ele>419.93</ele>
  <time>2026-09-01T20:01:02Z</time>
  <course>212.43</course>
  <speed>0.03605551275463989</speed>
  <fix>3d</fix>
</trkpt>
<trkpt lat="-27.2157607" lon="151.4418808">
  <ele>420.24</ele>
  <time>2026-09-01T20:01:02Z</time>
  <course>125.23</course>
  <speed>0.04</speed>
  <fix>3d</fix>
</trkpt>
<trkpt lat="-27.2157608" lon="151.4418809">
  <ele>419.79</ele>
  <time>2026-09-01T20:01:02Z</time>
  <course>212.49</course>
  <speed>0.03605551275463989</speed>
  <fix>3d</fix>
</trkpt>
<trkpt lat="-27.2157607" lon="151.4418808">
  <ele>420.24</ele>
  <time>2026-09-01T20:01:02Z</time>
  <course>125.23</course>
  <speed>0.04</speed>
  <fix>3d</fix>
</trkpt>
<trkpt lat="-27.2157608" lon="151.441881">
  <ele>419.64</ele>
  <time>2026-09-01T20:01:02Z</time>
  <course>212.54</course>
  <speed>0.03605551275463989</speed>
  <fix>3d</fix>
</trkpt>
<trkpt lat="-27.2157608" lon="151.4418809">
  <ele>419.94</ele>
  <time>2026-09-01T20:01:02Z</time>
  <course>126.13</course>
  <speed>0.04</speed>
  <fix>3d</fix>
</trkpt>
<trkpt lat="-27.2157609" lon="151.441881">
  <ele>419.49</ele>
  <time>2026-09-01T20:01:02Z</time>
  <course>212.6</course>
  <speed>0.03605551275463989</speed>
  <fix>3d</fix>
</trkpt>
<trkpt lat="-27.2157608" lon="151.4418809">
  <ele>419.94</ele>
  <time>2026-09-01T20:01:02Z</time>
  <course>126.13</course>
  <speed>0.04</speed>
  <fix>3d</fix>
</trkpt>
<trkpt lat="-27.2157609" lon="151.441881">
  <ele>419.34</ele>
  <time>2026-09-01T20:01:02Z</time>
  <course>212.66</course>
  <speed>0.03605551275463989</speed>
  <fix>3d</fix>
</trkpt>
<trkpt lat="-27.2157608" lon="151.4418809">
  <ele>419.64</ele>
  <time>2026-09-01T20:01:02Z</time>
  <course>126.94</course>
  <speed>0.04</speed>
  <fix>3d</fix>
</trkpt>
<trkpt lat="-27.2157609" lon="151.4418811">
  <ele>419.19</ele>
  <time>2026-09-01T20:01:02Z</time>
  <course>212.71</course>
  <speed>0.04242640687119285</speed>
  <fix>3d</fix>
</trkpt>
<trkpt lat="-27.2157608" lon="151.4418809">
  <ele>419.64</ele>
  <time>2026-09-01T20:01:02Z</time>
  <course>126.94</course>
  <speed>0.04</speed>
  <fix>3d</fix>
</trkpt>
<trkpt lat="-27.2157609" lon="151.4418811">
  <ele>419.03</ele>
  <time>2026-09-01T20:01:02Z</time>
  <course>212.77</course>
  <speed>0.04242640687119285</speed>
  <fix>3d</fix>
</trkpt>
<trkpt lat="-27.2157608" lon="151.441881">
  <ele>419.34</ele>
  <time>2026-09-01T20:01:02Z</time>
  <course>127.71</course>
  <speed>0.04</speed>
  <fix>3d</fix>
</trkpt>
<trkpt lat="-27.215761" lon="151.4418811">
  <ele>418.88</ele>
  <time>2026-09-01T20:01:02Z</time>
  <course>212.82</course>
  <speed>0.05</speed>
  <fix>3d</fix>
</trkpt>
<trkpt lat="-27.2157608" lon="151.441881">
  <ele>419.34</ele>
  <time>2026-09-01T20:01:02Z</time>
  <course>127.71</course>
  <speed>0.04</speed>
  <fix>3d</fix>
</trkpt>
<trkpt lat="-27.215761" lon="151.4418811">
  <ele>418.73</ele>
  <time>2026-09-01T20:01:02Z</time>
  <course>212.88</course>
  <speed>0.05</speed>
  <fix>3d</fix>
</trkpt>
<trkpt lat="-27.2157609" lon="151.4418811">
  <ele>419.04</ele>
  <time>2026-09-01T20:01:02Z</time>
  <course>128.39</course>
  <speed>0.05</speed>
  <fix>3d</fix>
</trkpt>
<trkpt lat="-27.215761" lon="151.4418811">
  <ele>418.58</ele>
  <time>2026-09-01T20:01:02Z</time>
  <course>212.93</course>
  <speed>0.05</speed>
  <fix>3d</fix>
</trkpt>
<trkpt lat="-27.2157609" lon="151.4418811">
  <ele>419.04</ele>
  <time>2026-09-01T20:01:02Z</time>
  <course>128.39</course>
  <speed>0.05</speed>
  <fix>3d</fix>
</trkpt>
<trkpt lat="-27.215761" lon="151.4418813">
  <ele>418.43</ele>
  <time>2026-09-01T20:01:02Z</time>
  <course>212.98</course>
  <speed>0.05</speed>
  <fix>3d</fix>
</trkpt>
<trkpt lat="-27.215761" lon="151.4418811">
  <ele>418.74</ele>
  <time>2026-09-01T20:01:02Z</time>
  <course>128.94</course>
  <speed>0.05</speed>
  <fix>3d</fix>
</trkpt>
<trkpt lat="-27.2157611" lon="151.4418813">
  <ele>418.28</ele>
  <time>2026-09-01T20:01:02Z</time>
  <course>213.03</course>
  <speed>0.05</speed>
  <fix>3d</fix>
</trkpt>
<trkpt lat="-27.215761" lon="151.4418811">
  <ele>418.74</ele>
  <time>2026-09-01T20:01:02Z</time>
  <course>128.94</course>
  <speed>0.05</speed>
  <fix>3d</fix>
</trkpt>
<trkpt lat="-27.2157611" lon="151.4418814">
  <ele>418.13</ele>
  <time>2026-09-01T20:01:02Z</time>
  <course>213.07</course>
  <speed>0.05</speed>
  <fix>3d</fix>
</trkpt>
<trkpt lat="-27.215761" lon="151.4418812">
  <ele>418.44</ele>
  <time>2026-09-01T20:01:02Z</time>
  <course>129.35</course>
  <speed>0.05</speed>
  <fix>3d</fix>
</trkpt>
<trkpt lat="-27.2157611" lon="151.4418814">
  <ele>417.98</ele>
  <time>2026-09-01T20:01:02Z</time>
  <course>212.98</course>
  <speed>0.0282842712474619</speed>
  <fix>3d</fix>
</trkpt>
<trkpt lat="-27.215761" lon="151.4418812">
  <ele>418.44</ele>
  <time>2026-09-01T20:01:02Z</time>
  <course>129.35</course>
  <speed>0.05</speed>
  <fix>3d</fix>
</trkpt>
<trkpt lat="-27.2157612" lon="151.4418814">
  <ele>417.83</ele>
  <time>2026-09-01T20:01:02Z</time>
  <course>212.68</course>
  <speed>0.01414213562373095</speed>
  <fix>3d</fix>
</trkpt>
<trkpt lat="-27.2157611" lon="151.4418813">
  <ele>418.14</ele>
  <time>2026-09-01T20:01:02Z</time>
  <course>131.11</course>
  <speed>0.04</speed>
  <fix>3d</fix>
</trkpt>
<trkpt lat="-27.2157612" lon="151.4418814">
  <ele>417.68</ele>
  <time>2026-09-01T20:01:02Z</time>
  <course>212.26</course>
  <speed>0.0</speed>
  <fix>3d</fix>
</trkpt>
<trkpt lat="-27.2157611" lon="151.4418813">
  <ele>418.14</ele>
  <time>2026-09-01T20:01:02Z</time>
  <course>131.11</course>
  <speed>0.04</speed>
  <fix>3d</fix>
</trkpt>
<trkpt lat="-27.2157612" lon="151.4418814">
  <ele>417.53</ele>
  <time>2026-09-01T20:01:02Z</time>
  <course>211.82</course>
  <speed>0.01</speed>
  <fix>3d</fix>
</trkpt>
<trkpt lat="-27.2157611" lon="151.4418814">
  <ele>417.84</ele>
  <time>2026-09-01T20:01:02Z</time>
  <course>141.89</course>
  <speed>0.02</speed>
  <fix>3d</fix>
</trkpt>
<trkpt lat="-27.2157612" lon="151.4418814">
  <ele>417.38</ele>
  <time>2026-09-01T20:01:02Z</time>
  <course>211.42</course>
  <speed>0.022360679774997897</speed>
  <fix>3d</fix>
</trkpt>
<trkpt lat="-27.2157611" lon="151.4418814">
  <ele>417.84</ele>
  <time>2026-09-01T20:01:02Z</time>
  <course>141.89</course>
  <speed>0.02</speed>
  <fix>3d</fix>
</trkpt>
<trkpt lat="-27.2157612" lon="151.4418814">
  <ele>417.23</ele>
  <time>2026-09-01T20:01:02Z</time>
  <course>211.13</course>
  <speed>0.0316227766016838</speed>
  <fix>3d</fix>
</trkpt>
<trkpt lat="-27.2157612" lon="151.4418814">
  <ele>417.54</ele>
  <time>2026-09-01T20:01:02Z</time>
  <course>272.72</course>
  <speed>0.01</speed>
  <fix>3d</fix>
</trkpt>
<trkpt lat="-27.2157612" lon="151.4418814">
  <ele>417.08</ele>
  <time>2026-09-01T20:01:02Z</time>
  <course>210.96</course>
  <speed>0.053851648071345036</speed>
  <fix>3d</fix>
</trkpt>
<trkpt lat="-27.2157612" lon="151.4418814">
  <ele>417.54</ele>
  <time>2026-09-01T20:01:02Z</time>
  <course>272.72</course>
  <speed>0.01</speed>
  <fix>3d</fix>
</trkpt>
<trkpt lat="-27.2157612" lon="151.4418814">
  <ele>416.93</ele>
  <time>2026-09-01T20:01:02Z</time>
  <course>210.9</course>
  <speed>0.05830951894845301</speed>
  <fix>3d</fix>
</trkpt>
<trkpt lat="-27.2157612" lon="151.4418814">
  <ele>417.24</ele>
  <time>2026-09-01T20:01:02Z</time>
  <course>295.74</course>
  <speed>0.04</speed>
  <fix>3d</fix>
</trkpt>
<trkpt lat="-27.2157612" lon="151.4418813">
  <ele>416.78</ele>
  <time>2026-09-01T20:01:02Z</time>
  <course>210.94</course>
  <speed>0.07211102550927978</speed>
  <fix>3d</fix>
</trkpt>
<trkpt lat="-27.2157612" lon="151.4418814">
  <ele>417.24</ele>
  <time>2026-09-01T20:01:02Z</time>
  <course>295.74</course>
  <speed>0.04</speed>
  <fix>3d</fix>
</trkpt>
<trkpt lat="-27.2157611" lon="151.4418811">
  <ele>416.63</ele>
  <time>2026-09-01T20:01:02Z</time>
  <course>211.03</course>
  <speed>0.08062257748298549</speed>
  <fix>3d</fix>
</trkpt>
<trkpt lat="-27.2157612" lon="151.4418813">
  <ele>416.94</ele>
  <time>2026-09-01T20:01:02Z</time>
  <course>300.61</course>
  <speed>0.06</speed>
  <fix>3d</fix>
</trkpt>
<trkpt lat="-27.2157611" lon="151.4418811">
  <ele>416.48</ele>
  <time>2026-09-01T20:01:02Z</time>
  <course>211.15</course>
  <speed>0.09433981132056603</speed>
  <fix>3d</fix>
</trkpt>
<trkpt lat="-27.2157612" lon="151.4418813">
  <ele>416.94</ele>
  <time>2026-09-01T20:01:02Z</time>
  <course>300.61</course>
  <speed>0.06</speed>
  <fix>3d</fix>
</trkpt>
<trkpt lat="-27.215761" lon="151.4418811">
  <ele>416.33</ele>
  <time>2026-09-01T20:01:02Z</time>
  <course>211.28</course>
  <speed>0.10816653826391968</speed>
  <fix>3d</fix>
</trkpt>
<trkpt lat="-27.2157611" lon="151.4418812">
  <ele>416.64</ele>
  <time>2026-09-01T20:01:02Z</time>
  <course>302.86</course>
  <speed>0.09</speed>
  <fix>3d</fix>
</trkpt>
<trkpt lat="-27.215761" lon="151.441881">
  <ele>416.19</ele>
  <time>2026-09-01T20:01:02Z</time>
  <course>211.38</course>
  <speed>0.10816653826391968</speed>
  <fix>3d</fix>
</trkpt>
<trkpt lat="-27.2157611" lon="151.4418812">
  <ele>416.64</ele>
  <time>2026-09-01T20:01:02Z</time>
  <course>302.86</course>
  <speed>0.09</speed>
  <fix>3d</fix>
</trkpt>
<trkpt lat="-27.2157609" lon="151.4418809">
  <ele>416.04</ele>
  <time>2026-09-01T20:01:02Z</time>
  <course>211.46</course>
  <speed>0.12206555615733702</speed>
  <fix>3d</fix>
</trkpt>
<trkpt lat="-27.215761" lon="151.4418811">
  <ele>416.34</ele>
  <time>2026-09-01T20:01:02Z</time>
  <course>304.04</course>
  <speed>0.1</speed>
  <fix>3d</fix>
</trkpt>
<trkpt lat="-27.2157608" lon="151.4418808">
  <ele>415.89</ele>
  <time>2026-09-01T20:01:02Z</time>
  <course>211.51</course>
  <speed>0.12206555615733702</speed>
  <fix>3d</fix>
</trkpt>
<trkpt lat="-27.215761" lon="151.4418811">
  <ele>416.34</ele>
  <time>2026-09-01T20:01:02Z</time>
  <course>304.04</course>
  <speed>0.1</speed>
  <fix>3d</fix>
</trkpt>
<trkpt lat="-27.2157608" lon="151.4418806">
  <ele>415.74</ele>
  <time>2026-09-01T20:01:02Z</time>
  <course>211.53</course>
  <speed>0.130384048104053</speed>
  <fix>3d</fix>
</trkpt>
<trkpt lat="-27.2157609" lon="151.4418809">
  <ele>416.04</ele>
  <time>2026-09-01T20:01:02Z</time>
  <course>304.69</course>
  <speed>0.12</speed>
  <fix>3d</fix>
</trkpt>
<trkpt lat="-27.2157607" lon="151.4418805">
  <ele>415.59</ele>
  <time>2026-09-01T20:01:02Z</time>
  <course>211.52</course>
  <speed>0.13601470508735444</speed>
  <fix>3d</fix>
</trkpt>
<trkpt lat="-27.2157609" lon="151.4418809">
  <ele>416.04</ele>
  <time>2026-09-01T20:01:02Z</time>
  <course>304.69</course>
  <speed>0.12</speed>
  <fix>3d</fix>
</trkpt>
<trkpt lat="-27.2157606" lon="151.4418804">
  <ele>415.44</ele>
  <time>2026-09-01T20:01:02Z</time>
  <course>211.5</course>
  <speed>0.13601470508735444</speed>
  <fix>3d</fix>
</trkpt>
<trkpt lat="-27.2157607" lon="151.4418806">
  <ele>415.74</ele>
  <time>2026-09-01T20:01:02Z</time>
  <course>305.12</course>
  <speed>0.13</speed>
  <fix>3d</fix>
</trkpt>
<trkpt lat="-27.2157606" lon="151.4418802">
  <ele>415.29</ele>
  <time>2026-09-01T20:01:02Z</time>
  <course>211.47</course>
  <speed>0.13601470508735444</speed>
  <fix>3d</fix>
</trkpt>
<trkpt lat="-27.2157607" lon="151.4418806">
  <ele>415.74</ele>
  <time>2026-09-01T20:01:02Z</time>
  <course>305.12</course>
  <speed>0.13</speed>
  <fix>3d</fix>
</trkpt>
<trkpt lat="-27.2157605" lon="151.4418801">
  <ele>415.14</ele>
  <time>2026-09-01T20:01:02Z</time>
  <course>211.44</course>
  <speed>0.13601470508735444</speed>
  <fix>3d</fix>
</trkpt>
<trkpt lat="-27.2157606" lon="151.4418804">
  <ele>415.44</ele>
  <time>2026-09-01T20:01:02Z</time>
  <course>305.35</course>
  <speed>0.14</speed>
  <fix>3d</fix>
</trkpt>
<trkpt lat="-27.2157604" lon="151.4418801">
  <ele>414.99</ele>
  <time>2026-09-01T20:01:02Z</time>
  <course>211.42</course>
  <speed>0.13601470508735444</speed>
  <fix>3d</fix>
</trkpt>
<trkpt lat="-27.2157606" lon="151.4418804">
  <ele>415.44</ele>
  <time>2026-09-01T20:01:02Z</time>
  <course>305.35</course>
  <speed>0.14</speed>
  <fix>3d</fix>
</trkpt>
<trkpt lat="-27.2157603" lon="151.4418799">
  <ele>414.83</ele>
  <time>2026-09-01T20:01:02Z</time>
  <course>211.4</course>
  <speed>0.13601470508735444</speed>
  <fix>3d</fix>
</trkpt>
<trkpt lat="-27.2157605" lon="151.4418801">
  <ele>415.14</ele>
  <time>2026-09-01T20:01:02Z</time>
  <course>305.43</course>
  <speed>0.14</speed>
  <fix>3d</fix>
</trkpt>
<trkpt lat="-27.2157603" lon="151.4418797">
  <ele>414.68</ele>
  <time>2026-09-01T20:01:02Z</time>
  <course>211.39</course>
  <speed>0.13601470508735444</speed>
  <fix>3d</fix>
</trkpt>
<trkpt lat="-27.2157605" lon="151.4418801">
  <ele>415.14</ele>
  <time>2026-09-01T20:01:02Z</time>
  <course>305.43</course>
  <speed>0.14</speed>
  <fix>3d</fix>
</trkpt>
<trkpt lat="-27.2157602" lon="151.4418796">
  <ele>414.53</ele>
  <time>2026-09-01T20:01:02Z</time>
  <course>211.39</course>
  <speed>0.13601470508735444</speed>
  <fix>3d</fix>
</trkpt>
<trkpt lat="-27.2157603" lon="151.4418799">
  <ele>414.84</ele>
  <time>2026-09-01T20:01:02Z</time>
  <course>305.65</course>
  <speed>0.14</speed>
  <fix>3d</fix>
</trkpt>
<trkpt lat="-27.2157601" lon="151.4418796">
  <ele>414.38</ele>
  <time>2026-09-01T20:01:02Z</time>
  <course>211.39</course>
  <speed>0.13601470508735444</speed>
  <fix>3d</fix>
</trkpt>
<trkpt lat="-27.2157603" lon="151.4418799">
  <ele>414.84</ele>
  <time>2026-09-01T20:01:02Z</time>
  <course>305.65</course>
  <speed>0.14</speed>
  <fix>3d</fix>
</trkpt>
<trkpt lat="-27.21576" lon="151.4418795">
  <ele>414.23</ele>
  <time>2026-09-01T20:01:02Z</time>
  <course>211.39</course>
  <speed>0.12206555615733702</speed>
  <fix>3d</fix>
</trkpt>
<trkpt lat="-27.2157602" lon="151.4418796">
  <ele>414.54</ele>
  <time>2026-09-01T20:01:02Z</time>
  <course>305.86</course>
  <speed>0.13</speed>
  <fix>3d</fix>
</trkpt>
<trkpt lat="-27.21576" lon="151.4418794">
  <ele>414.08</ele>
  <time>2026-09-01T20:01:02Z</time>
  <course>211.4</course>
  <speed>0.12206555615733702</speed>
  <fix>3d</fix>
</trkpt>
<trkpt lat="-27.2157602" lon="151.4418796">
  <ele>414.54</ele>
  <time>2026-09-01T20:01:02Z</time>
  <course>305.86</course>
  <speed>0.13</speed>
  <fix>3d</fix>
</trkpt>
<trkpt lat="-27.2157599" lon="151.4418792">
  <ele>413.93</ele>
  <time>2026-09-01T20:01:02Z</time>
  <course>211.4</course>
  <speed>0.11401754250991379</speed>
  <fix>3d</fix>
</trkpt>
<trkpt lat="-27.21576" lon="151.4418795">
  <ele>414.24</ele>
  <time>2026-09-01T20:01:02Z</time>
  <course>305.92</course>
  <speed>0.13</speed>
  <fix>3d</fix>
</trkpt>
<trkpt lat="-27.2157598" lon="151.4418792">
  <ele>413.78</ele>
  <time>2026-09-01T20:01:02Z</time>
  <course>211.4</course>
  <speed>0.10816653826391968</speed>
  <fix>3d</fix>
</trkpt>
<trkpt lat="-27.21576" lon="151.4418795">
  <ele>414.24</ele>
  <time>2026-09-01T20:01:02Z</time>
  <course>305.92</course>
  <speed>0.13</speed>
  <fix>3d</fix>
</trkpt>
<trkpt lat="-27.2157598" lon="151.4418791">
  <ele>413.63</ele>
  <time>2026-09-01T20:01:02Z</time>
  <course>211.4</course>
  <speed>0.1</speed>
  <fix>3d</fix>
</trkpt>
<trkpt lat="-27.2157599" lon="151.4418792">
  <ele>413.94</ele>
  <time>2026-09-01T20:01:02Z</time>
  <course>305.91</course>
  <speed>0.12</speed>
  <fix>3d</fix>
</trkpt>
<trkpt lat="-27.2157597" lon="151.441879">
  <ele>413.48</ele>
  <time>2026-09-01T20:01:02Z</time>
  <course>211.41</course>
  <speed>0.1</speed>
  <fix>3d</fix>
</trkpt>
<trkpt lat="-27.2157599" lon="151.4418792">
  <ele>413.94</ele>
  <time>2026-09-01T20:01:02Z</time>
  <course>305.91</course>
  <speed>0.12</speed>
  <fix>3d</fix>
</trkpt>
<trkpt lat="-27.2157597" lon="151.4418789">
  <ele>413.33</ele>
  <time>2026-09-01T20:01:02Z</time>
  <course>211.41</course>
  <speed>0.08602325267042626</speed>
  <fix>3d</fix>
</trkpt>
<trkpt lat="-27.2157597" lon="151.4418791">
  <ele>413.64</ele>
  <time>2026-09-01T20:01:02Z</time>
  <course>306.05</course>
  <speed>0.11</speed>
  <fix>3d</fix>
</trkpt>
<trkpt lat="-27.2157596" lon="151.4418787">
  <ele>413.18</ele>
  <time>2026-09-01T20:01:02Z</time>
  <course>211.42</course>
  <speed>0.07810249675906654</speed>
  <fix>3d</fix>
</trkpt>
<trkpt lat="-27.2157597" lon="151.4418791">
  <ele>413.64</ele>
  <time>2026-09-01T20:01:02Z</time>
  <course>306.05</course>
  <speed>0.11</speed>
  <fix>3d</fix>
</trkpt>
<trkpt lat="-27.2157596" lon="151.4418787">
  <ele>413.03</ele>
  <time>2026-09-01T20:01:02Z</time>
  <course>211.42</course>
  <speed>0.07211102550927978</speed>
  <fix>3d</fix>
</trkpt>
<trkpt lat="-27.2157596" lon="151.4418789">
  <ele>413.34</ele>
  <time>2026-09-01T20:01:02Z</time>
  <course>306.52</course>
  <speed>0.09</speed>
  <fix>3d</fix>
</trkpt>
<trkpt lat="-27.2157595" lon="151.4418787">
  <ele>412.88</ele>
  <time>2026-09-01T20:01:02Z</time>
  <course>211.43</course>
  <speed>0.06403124237432849</speed>
  <fix>3d</fix>
</trkpt>
<trkpt lat="-27.2157596" lon="151.4418789">
  <ele>413.34</ele>
  <time>2026-09-01T20:01:02Z</time>
  <course>306.52</course>
  <speed>0.09</speed>
  <fix>3d</fix>
</trkpt>
<trkpt lat="-27.2157595" lon="151.4418787">
  <ele>412.73</ele>
  <time>2026-09-01T20:01:02Z</time>
  <course>211.45</course>
  <speed>0.05</speed>
  <fix>3d</fix>
</trkpt>
<trkpt lat="-27.2157595" lon="151.4418787">
  <ele>413.04</ele>
  <time>2026-09-01T20:01:02Z</time>
  <course>307.51</course>
  <speed>0.07</speed>
  <fix>3d</fix>
</trkpt>
<trkpt lat="-27.2157595" lon="151.4418786">
  <ele>412.58</ele>
  <time>2026-09-01T20:01:02Z</time>
  <course>211.47</course>
  <speed>0.04242640687119285</speed>
  <fix>3d</fix>
</trkpt>
<trkpt lat="-27.2157595" lon="151.4418787">
  <ele>413.04</ele>
  <time>2026-09-01T20:01:02Z</time>
  <course>307.51</course>
  <speed>0.07</speed>
  <fix>3d</fix>
</trkpt>
<trkpt lat="-27.2157594" lon="151.4418786">
  <ele>412.43</ele>
  <time>2026-09-01T20:01:02Z</time>
  <course>211.5</course>
  <speed>0.0282842712474619</speed>
  <fix>3d</fix>
</trkpt>
<trkpt lat="-27.2157595" lon="151.4418786">
  <ele>412.74</ele>
  <time>2026-09-01T20:01:02Z</time>
  <course>309.47</course>
  <speed>0.06</speed>
  <fix>3d</fix>
</trkpt>
<trkpt lat="-27.2157594" lon="151.4418786">
  <ele>412.28</ele>
  <time>2026-09-01T20:01:02Z</time>
  <course>211.54</course>
  <speed>0.0282842712474619</speed>
  <fix>3d</fix>
</trkpt>
<trkpt lat="-27.2157595" lon="151.4418786">
  <ele>412.74</ele>
  <time>2026-09-01T20:01:02Z</time>
  <course>309.47</course>
  <speed>0.06</speed>
  <fix>3d</fix>
</trkpt>
<trkpt lat="-27.2157594" lon="151.4418786">
  <ele>412.13</ele>
  <time>2026-09-01T20:01:02Z</time>
  <course>211.58</course>
  <speed>0.01414213562373095</speed>
  <fix>3d</fix>
</trkpt>
<trkpt lat="-27.2157594" lon="151.4418786">
  <ele>412.44</ele>
  <time>2026-09-01T20:01:02Z</time>
  <course>313.21</course>
  <speed>0.04</speed>
  <fix>3d</fix>
</trkpt>
<trkpt lat="-27.2157594" lon="151.4418785">
  <ele>411.98</ele>
  <time>2026-09-01T20:01:02Z</time>
  <course>211.64</course>
  <speed>0.0</speed>
  <fix>3d</fix>
</trkpt>
<trkpt lat="-27.2157594" lon="151.4418786">
  <ele>412.44</ele>
  <time>2026-09-01T20:01:02Z</time>
  <course>313.21</course>
  <speed>0.04</speed>
  <fix>3d</fix>
</trkpt>
<trkpt lat="-27.2157594" lon="151.4418785">
  <ele>411.84</ele>
  <time>2026-09-01T20:01:02Z</time>
  <course>211.73</course>
  <speed>0.0</speed>
  <fix>3d</fix>
</trkpt>
<trkpt lat="-27.2157594" lon="151.4418785">
  <ele>412.14</ele>
  <time>2026-09-01T20:01:02Z</time>
  <course>323.93</course>
  <speed>0.01</speed>
  <fix>3d</fix>
</trkpt>
<trkpt lat="-27.2157594" lon="151.4418786">
  <ele>411.69</ele>
  <time>2026-09-01T20:01:03Z</time>
  <course>211.88</course>
  <speed>0.02</speed>
  <fix>3d</fix>
</trkpt>
<trkpt lat="-27.2157594" lon="151.4418785">
  <ele>412.14</ele>
  <time>2026-09-01T20:01:03Z</time>
  <course>323.93</course>
  <speed>0.01</speed>
  <fix>3d</fix>
</trkpt>
<trkpt lat="-27.2157594" lon="151.4418786">
  <ele>411.54</ele>
  <time>2026-09-01T20:01:03Z</time>
  <course>211.93</course>
  <speed>0.02</speed>
  <fix>3d</fix>
</trkpt>
<trkpt lat="-27.2157594" lon="151.4418785">
  <ele>411.84</ele>
  <time>2026-09-01T20:01:03Z</time>
  <course>80.96</course>
  <speed>0.01</speed>
  <fix>3d</fix>
</trkpt>
<trkpt lat="-27.2157594" lon="151.4418786">
  <ele>411.39</ele>
  <time>2026-09-01T20:01:03Z</time>
  <course>211.82</course>
  <speed>0.02</speed>
  <fix>3d</fix>
</trkpt>
<trkpt lat="-27.2157594" lon="151.4418785">
  <ele>411.84</ele>
  <time>2026-09-01T20:01:03Z</time>
  <course>80.96</course>
  <speed>0.01</speed>
  <fix>3d</fix>
</trkpt>
<trkpt lat="-27.2157594" lon="151.4418786">
  <ele>411.24</ele>
  <time>2026-09-01T20:01:03Z</time>
  <course>211.6</course>
  <speed>0.02</speed>
  <fix>3d</fix>
</trkpt>
<trkpt lat="-27.2157594" lon="151.4418786">
  <ele>411.54</ele>
  <time>2026-09-01T20:01:03Z</time>
  <course>107.95</course>
  <speed>0.02</speed>
  <fix>3d</fix>
</trkpt>
<trkpt lat="-27.2157594" lon="151.4418786">
  <ele>411.09</ele>
  <time>2026-09-01T20:01:03Z</time>
  <course>211.32</course>
  <speed>0.02</speed>
  <fix>3d</fix>
</trkpt>
<trkpt lat="-27.2157594" lon="151.4418786">
  <ele>411.54</ele>
  <time>2026-09-01T20:01:03Z</time>
  <course>107.95</course>
  <speed>0.02</speed>
  <fix>3d</fix>
</trkpt>
<trkpt lat="-27.2157594" lon="151.4418786">
  <ele>410.93</ele>
  <time>2026-09-01T20:01:03Z</time>
  <course>211.03</course>
  <speed>0.02</speed>
  <fix>3d</fix>
</trkpt>
<trkpt lat="-27.2157594" lon="151.4418786">
  <ele>411.24</ele>
  <time>2026-09-01T20:01:03Z</time>
  <course>110.37</course>
  <speed>0.02</speed>
  <fix>3d</fix>
</trkpt>
<trkpt lat="-27.2157594" lon="151.4418786">
  <ele>410.78</ele>
  <time>2026-09-01T20:01:03Z</time>
  <course>210.77</course>
  <speed>0.02</speed>
  <fix>3d</fix>
</trkpt>
<trkpt lat="-27.2157594" lon="151.4418786">
  <ele>411.24</ele>
  <time>2026-09-01T20:01:03Z</time>
  <course>110.37</course>
  <speed>0.02</speed>
  <fix>3d</fix>
</trkpt>
<trkpt lat="-27.2157594" lon="151.4418786">
  <ele>410.63</ele>
  <time>2026-09-01T20:01:03Z</time>
  <course>210.58</course>
  <speed>0.02</speed>
  <fix>3d</fix>
</trkpt>
<trkpt lat="-27.2157594" lon="151.4418786">
  <ele>410.94</ele>
  <time>2026-09-01T20:01:03Z</time>
  <course>111.92</course>
  <speed>0.02</speed>
  <fix>3d</fix>
</trkpt>
<trkpt lat="-27.2157594" lon="151.4418787">
  <ele>410.48</ele>
  <time>2026-09-01T20:01:03Z</time>
  <course>210.46</course>
  <speed>0.02</speed>
  <fix>3d</fix>
</trkpt>
<trkpt lat="-27.2157594" lon="151.4418786">
  <ele>410.94</ele>
  <time>2026-09-01T20:01:03Z</time>
  <course>111.92</course>
  <speed>0.02</speed>
  <fix>3d</fix>
</trkpt>
<trkpt lat="-27.2157594" lon="151.4418787">
  <ele>410.33</ele>
  <time>2026-09-01T20:01:03Z</time>
  <course>210.4</course>
  <speed>0.02</speed>
  <fix>3d</fix>
</trkpt>
<trkpt lat="-27.2157594" lon="151.4418786">
  <ele>410.64</ele>
  <time>2026-09-01T20:01:03Z</time>
  <course>112.74</course>
  <speed>0.02</speed>
  <fix>3d</fix>
</trkpt>
<trkpt lat="-27.2157594" lon="151.4418787">
  <ele>410.18</ele>
  <time>2026-09-01T20:01:03Z</time>
  <course>210.41</course>
  <speed>0.02</speed>
  <fix>3d</fix>
</trkpt>
<trkpt lat="-27.2157594" lon="151.4418786">
  <ele>410.64</ele>
  <time>2026-09-01T20:01:03Z</time>
  <course>112.74</course>
  <speed>0.02</speed>
  <fix>3d</fix>
</trkpt>
<trkpt lat="-27.2157594" lon="151.4418787">
  <ele>410.03</ele>
  <time>2026-09-01T20:01:03Z</time>
  <course>210.44</course>
  <speed>0.02</speed>
  <fix>3d</fix>
</trkpt>
<trkpt lat="-27.2157594" lon="151.4418787">
  <ele>410.34</ele>
  <time>2026-09-01T20:01:03Z</time>
  <course>112.76</course>
  <speed>0.02</speed>
  <fix>3d</fix>
</trkpt>
<trkpt lat="-27.2157594" lon="151.4418787">
  <ele>409.88</ele>
  <time>2026-09-01T20:01:03Z</time>
  <course>210.5</course>
  <speed>0.02</speed>
  <fix>3d</fix>
</trkpt>
<trkpt lat="-27.2157594" lon="151.4418787">
  <ele>410.34</ele>
  <time>2026-09-01T20:01:03Z</time>
  <course>112.76</course>
  <speed>0.02</speed>
  <fix>3d</fix>
</trkpt>
<trkpt lat="-27.2157594" lon="151.4418787">
  <ele>409.73</ele>
  <time>2026-09-01T20:01:03Z</time>
  <course>210.55</course>
  <speed>0.02</speed>
  <fix>3d</fix>
</trkpt>
<trkpt lat="-27.2157594" lon="151.4418787">
  <ele>410.04</ele>
  <time>2026-09-01T20:01:03Z</time>
  <course>112.67</course>
  <speed>0.02</speed>
  <fix>3d</fix>
</trkpt>
<trkpt lat="-27.2157594" lon="151.4418787">
  <ele>409.58</ele>
  <time>2026-09-01T20:01:03Z</time>
  <course>210.59</course>
  <speed>0.01</speed>
  <fix>3d</fix>
</trkpt>
<trkpt lat="-27.2157594" lon="151.4418787">
  <ele>410.04</ele>
  <time>2026-09-01T20:01:03Z</time>
  <course>112.67</course>
  <speed>0.02</speed>
  <fix>3d</fix>
</trkpt>
<trkpt lat="-27.2157594" lon="151.4418787">
  <ele>409.43</ele>
  <time>2026-09-01T20:01:03Z</time>
  <course>210.62</course>
  <speed>0.01</speed>
  <fix>3d</fix>
</trkpt>
<trkpt lat="-27.2157594" lon="151.4418787">
  <ele>409.74</ele>
  <time>2026-09-01T20:01:03Z</time>
  <course>113.33</course>
  <speed>0.02</speed>
  <fix>3d</fix>
</trkpt>
<trkpt lat="-27.2157594" lon="151.4418787">
  <ele>409.28</ele>
  <time>2026-09-01T20:01:03Z</time>
  <course>210.62</course>
  <speed>0.01</speed>
  <fix>3d</fix>
</trkpt>
<trkpt lat="-27.2157594" lon="151.4418787">
  <ele>409.74</ele>
  <time>2026-09-01T20:01:03Z</time>
  <course>113.33</course>
  <speed>0.02</speed>
  <fix>3d</fix>
</trkpt>
<trkpt lat="-27.2157594" lon="151.4418787">
  <ele>409.13</ele>
  <time>2026-09-01T20:01:03Z</time>
  <course>210.62</course>
  <speed>0.01</speed>
  <fix>3d</fix>
</trkpt>
<trkpt lat="-27.2157594" lon="151.4418787">
  <ele>409.44</ele>
  <time>2026-09-01T20:01:03Z</time>
  <course>115.08</course>
  <speed>0.02</speed>
  <fix>3d</fix>
</trkpt>
<trkpt lat="-27.2157594" lon="151.4418789">
  <ele>408.98</ele>
  <time>2026-09-01T20:01:03Z</time>
  <course>210.6</course>
  <speed>0.01</speed>
  <fix>3d</fix>
</trkpt>
<trkpt lat="-27.2157594" lon="151.4418787">
  <ele>409.44</ele>
  <time>2026-09-01T20:01:03Z</time>
  <course>115.08</course>
  <speed>0.02</speed>
  <fix>3d</fix>
</trkpt>
<trkpt lat="-27.2157594" lon="151.4418789">
  <ele>408.84</ele>
  <time>2026-09-01T20:01:03Z</time>
  <course>210.58</course>
  <speed>0.01</speed>
  <fix>3d</fix>
</trkpt>
<trkpt lat="-27.2157594" lon="151.4418788">
  <ele>409.14</ele>
  <time>2026-09-01T20:01:03Z</time>
  <course>117.0</course>
  <speed>0.02</speed>
  <fix>3d</fix>
</trkpt>
<trkpt lat="-27.2157594" lon="151.4418789">
  <ele>408.69</ele>
  <time>2026-09-01T20:01:03Z</time>
  <course>210.57</course>
  <speed>0.01</speed>
  <fix>3d</fix>
</trkpt>
<trkpt lat="-27.2157594" lon="151.4418788">
  <ele>409.14</ele>
  <time>2026-09-01T20:01:03Z</time>
  <course>117.0</course>
  <speed>0.02</speed>
  <fix>3d</fix>
</trkpt>
<trkpt lat="-27.2157595" lon="151.4418789">
  <ele>408.54</ele>
  <time>2026-09-01T20:01:03Z</time>
  <course>210.56</course>
  <speed>0.01</speed>
  <fix>3d</fix>
</trkpt>
<trkpt lat="-27.2157594" lon="151.4418789">
  <ele>408.84</ele>
  <time>2026-09-01T20:01:03Z</time>
  <course>117.75</course>
  <speed>0.02</speed>
  <fix>3d</fix>
</trkpt>
<trkpt lat="-27.2157595" lon="151.4418789">
  <ele>408.39</ele>
  <time>2026-09-01T20:01:03Z</time>
  <course>210.55</course>
  <speed>0.01</speed>
  <fix>3d</fix>
</trkpt>
<trkpt lat="-27.2157594" lon="151.4418789">
  <ele>408.84</ele>
  <time>2026-09-01T20:01:03Z</time>
  <course>117.75</course>
  <speed>0.02</speed>
  <fix>3d</fix>
</trkpt>
<trkpt lat="-27.2157595" lon="151.4418789">
  <ele>408.24</ele>
  <time>2026-09-01T20:01:03Z</time>
  <course>210.55</course>
  <speed>0.01</speed>
  <fix>3d</fix>
</trkpt>
<trkpt lat="-27.2157594" lon="151.4418789">
  <ele>408.54</ele>
  <time>2026-09-01T20:01:03Z</time>
  <course>118.62</course>
  <speed>0.02</speed>
  <fix>3d</fix>
</trkpt>
<trkpt lat="-27.2157595" lon="151.441879">
  <ele>408.09</ele>
  <time>2026-09-01T20:01:03Z</time>
  <course>210.55</course>
  <speed>0.01</speed>
  <fix>3d</fix>
</trkpt>
<trkpt lat="-27.2157594" lon="151.4418789">
  <ele>408.54</ele>
  <time>2026-09-01T20:01:03Z</time>
  <course>118.62</course>
  <speed>0.02</speed>
  <fix>3d</fix>
</trkpt>
<trkpt lat="-27.2157595" lon="151.441879">
  <ele>407.94</ele>
  <time>2026-09-01T20:01:03Z</time>
  <course>210.56</course>
  <speed>0.01</speed>
  <fix>3d</fix>
</trkpt>
<trkpt lat="-27.2157595" lon="151.4418789">
  <ele>408.24</ele>
  <time>2026-09-01T20:01:03Z</time>
  <course>119.09</course>
  <speed>0.02</speed>
  <fix>3d</fix>
</trkpt>
<trkpt lat="-27.2157595" lon="151.441879">
  <ele>407.78</ele>
  <time>2026-09-01T20:01:03Z</time>
  <course>210.57</course>
  <speed>0.01</speed>
  <fix>3d</fix>
</trkpt>
<trkpt lat="-27.2157595" lon="151.4418789">
  <ele>408.24</ele>
  <time>2026-09-01T20:01:03Z</time>
  <course>119.09</course>
  <speed>0.02</speed>
  <fix>3d</fix>
</trkpt>
<trkpt lat="-27.2157595" lon="151.441879">
  <ele>407.63</ele>
  <time>2026-09-01T20:01:03Z</time>
  <course>210.58</course>
  <speed>0.01414213562373095</speed>
  <fix>3d</fix>
</trkpt>
<trkpt lat="-27.2157595" lon="151.441879">
  <ele>407.94</ele>
  <time>2026-09-01T20:01:03Z</time>
  <course>118.83</course>
  <speed>0.02</speed>
  <fix>3d</fix>
</trkpt>
<trkpt lat="-27.2157595" lon="151.441879">
  <ele>407.48</ele>
  <time>2026-09-01T20:01:03Z</time>
  <course>210.59</course>
  <speed>0.01414213562373095</speed>
  <fix>3d</fix>
</trkpt>
<trkpt lat="-27.2157595" lon="151.441879">
  <ele>407.94</ele>
  <time>2026-09-01T20:01:03Z</time>
  <course>118.83</course>
  <speed>0.02</speed>
  <fix>3d</fix>
</trkpt>
<trkpt lat="-27.2157595" lon="151.441879">
  <ele>407.33</ele>
  <time>2026-09-01T20:01:03Z</time>
  <course>210.6</course>
  <speed>0.01414213562373095</speed>
  <fix>3d</fix>
</trkpt>
<trkpt lat="-27.2157595" lon="151.441879">
  <ele>407.64</ele>
  <time>2026-09-01T20:01:03Z</time>
  <course>120.37</course>
  <speed>0.02</speed>
  <fix>3d</fix>
</trkpt>
<trkpt lat="-27.2157595" lon="151.4418791">
  <ele>407.18</ele>
  <time>2026-09-01T20:01:03Z</time>
  <course>210.63</course>
  <speed>0.01414213562373095</speed>
  <fix>3d</fix>
</trkpt>
<trkpt lat="-27.2157595" lon="151.441879">
  <ele>407.64</ele>
  <time>2026-09-01T20:01:03Z</time>
  <course>120.37</course>
  <speed>0.02</speed>
  <fix>3d</fix>
</trkpt>
<trkpt lat="-27.2157595" lon="151.4418791">
  <ele>407.03</ele>
  <time>2026-09-01T20:01:03Z</time>
  <course>210.64</course>
  <speed>0.01414213562373095</speed>
  <fix>3d</fix>
</trkpt>
<trkpt lat="-27.2157595" lon="151.441879">
  <ele>407.34</ele>
  <time>2026-09-01T20:01:03Z</time>
  <course>123.62</course>
  <speed>0.02</speed>
  <fix>3d</fix>
</trkpt>
<trkpt lat="-27.2157596" lon="151.4418791">
  <ele>406.88</ele>
  <time>2026-09-01T20:01:03Z</time>
  <course>210.66</course>
  <speed>0.01414213562373095</speed>
  <fix>3d</fix>
</trkpt>
<trkpt lat="-27.2157595" lon="151.441879">
  <ele>407.34</ele>
  <time>2026-09-01T20:01:03Z</time>
  <course>123.62</course>
  <speed>0.02</speed>
  <fix>3d</fix>
</trkpt>
<trkpt lat="-27.2157596" lon="151.4418791">
  <ele>406.73</ele>
  <time>2026-09-01T20:01:03Z</time>
  <course>210.66</course>
  <speed>0.01414213562373095</speed>
  <fix>3d</fix>
</trkpt>
<trkpt lat="-27.2157595" lon="151.4418791">
  <ele>407.04</ele>
  <time>2026-09-01T20:01:03Z</time>
  <course>127.29</course>
  <speed>0.02</speed>
  <fix>3d</fix>
</trkpt>
<trkpt lat="-27.2157596" lon="151.4418791">
  <ele>406.58</ele>
  <time>2026-09-01T20:01:03Z</time>
  <course>210.66</course>
  <speed>0.01414213562373095</speed>
  <fix>3d</fix>
</trkpt>
<trkpt lat="-27.2157595" lon="151.4418791">
  <ele>407.04</ele>
  <time>2026-09-01T20:01:03Z</time>
  <course>127.29</course>
  <speed>0.02</speed>
  <fix>3d</fix>
</trkpt>
<trkpt lat="-27.2157596" lon="151.4418791">
  <ele>406.44</ele>
  <time>2026-09-01T20:01:03Z</time>
  <course>210.66</course>
  <speed>0.01414213562373095</speed>
  <fix>3d</fix>
</trkpt>
<trkpt lat="-27.2157596" lon="151.4418791">
  <ele>406.74</ele>
  <time>2026-09-01T20:01:03Z</time>
  <course>130.33</course>
  <speed>0.02</speed>
  <fix>3d</fix>
</trkpt>
<trkpt lat="-27.2157596" lon="151.4418792">
  <ele>406.29</ele>
  <time>2026-09-01T20:01:03Z</time>
  <course>210.66</course>
  <speed>0.01414213562373095</speed>
  <fix>3d</fix>
</trkpt>
<trkpt lat="-27.2157596" lon="151.4418791">
  <ele>406.74</ele>
  <time>2026-09-01T20:01:03Z</time>
  <course>130.33</course>
  <speed>0.02</speed>
  <fix>3d</fix>
</trkpt>
<trkpt lat="-27.2157596" lon="151.4418792">
  <ele>406.14</ele>
  <time>2026-09-01T20:01:03Z</time>
  <course>210.66</course>
  <speed>0.01414213562373095</speed>
  <fix>3d</fix>
</trkpt>
<trkpt lat="-27.2157596" lon="151.4418791">
  <ele>406.44</ele>
  <time>2026-09-01T20:01:03Z</time>
  <course>132.12</course>
  <speed>0.02</speed>
  <fix>3d</fix>
</trkpt>
<trkpt lat="-27.2157596" lon="151.4418792">
  <ele>405.99</ele>
  <time>2026-09-01T20:01:03Z</time>
  <course>210.65</course>
  <speed>0.01414213562373095</speed>
  <fix>3d</fix>
</trkpt>
<trkpt lat="-27.2157596" lon="151.4418791">
  <ele>406.44</ele>
  <time>2026-09-01T20:01:03Z</time>
  <course>132.12</course>
  <speed>0.02</speed>
  <fix>3d</fix>
</trkpt>
<trkpt lat="-27.2157596" lon="151.4418792">
  <ele>405.83</ele>
  <time>2026-09-01T20:01:03Z</time>
  <course>210.64</course>
  <speed>0.01414213562373095</speed>
  <fix>3d</fix>
</trkpt>
<trkpt lat="-27.2157596" lon="151.4418792">
  <ele>406.14</ele>
  <time>2026-09-01T20:01:03Z</time>
  <course>133.62</course>
  <speed>0.02</speed>
  <fix>3d</fix>
</trkpt>
<trkpt lat="-27.2157597" lon="151.4418792">
  <ele>405.68</ele>
  <time>2026-09-01T20:01:03Z</time>
  <course>210.63</course>
  <speed>0.01414213562373095</speed>
  <fix>3d</fix>
</trkpt>
<trkpt lat="-27.2157596" lon="151.4418792">
  <ele>406.14</ele>
  <time>2026-09-01T20:01:03Z</time>
  <course>133.62</course>
  <speed>0.02</speed>
  <fix>3d</fix>
</trkpt>
<trkpt lat="-27.2157597" lon="151.4418792">
  <ele>405.53</ele>
  <time>2026-09-01T20:01:03Z</time>
  <course>210.63</course>
  <speed>0.01414213562373095</speed>
  <fix>3d</fix>
</trkpt>
<trkpt lat="-27.2157596" lon="151.4418792">
  <ele>405.84</ele>
  <time>2026-09-01T20:01:03Z</time>
  <course>135.71</course>
  <speed>0.02</speed>
  <fix>3d</fix>
</trkpt>
<trkpt lat="-27.2157597" lon="151.4418792">
  <ele>405.38</ele>
  <time>2026-09-01T20:01:03Z</time>
  <course>210.64</course>
  <speed>0.01414213562373095</speed>
  <fix>3d</fix>
</trkpt>
<trkpt lat="-27.2157596" lon="151.4418792">
  <ele>405.84</ele>
  <time>2026-09-01T20:01:03Z</time>
  <course>135.71</course>
  <speed>0.02</speed>
  <fix>3d</fix>
</trkpt>
<trkpt lat="-27.2157597" lon="151.4418792">
  <ele>405.23</ele>
  <time>2026-09-01T20:01:03Z</time>
  <course>210.66</course>
  <speed>0.01414213562373095</speed>
  <fix>3d</fix>
</trkpt>
<trkpt lat="-27.2157597" lon="151.4418792">
  <ele>405.54</ele>
  <time>2026-09-01T20:01:03Z</time>
  <course>137.68</course>
  <speed>0.02</speed>
  <fix>3d</fix>
</trkpt>
<trkpt lat="-27.2157597" lon="151.4418792">
  <ele>405.08</ele>
  <time>2026-09-01T20:01:03Z</time>
  <course>210.68</course>
  <speed>0.01414213562373095</speed>
  <fix>3d</fix>
</trkpt>
<trkpt lat="-27.2157597" lon="151.4418792">
  <ele>405.54</ele>
  <time>2026-09-01T20:01:03Z</time>
  <course>137.68</course>
  <speed>0.02</speed>
  <fix>3d</fix>
</trkpt>
<trkpt lat="-27.2157597" lon="151.4418792">
  <ele>404.93</ele>
  <time>2026-09-01T20:01:03Z</time>
  <course>210.7</course>
  <speed>0.01414213562373095</speed>
  <fix>3d</fix>
</trkpt>
<trkpt lat="-27.2157597" lon="151.4418792">
  <ele>405.24</ele>
  <time>2026-09-01T20:01:03Z</time>
  <course>138.61</course>
  <speed>0.02</speed>
  <fix>3d</fix>
</trkpt>
<trkpt lat="-27.2157597" lon="151.4418792">
  <ele>404.79</ele>
  <time>2026-09-01T20:01:03Z</time>
  <course>210.72</course>
  <speed>0.01414213562373095</speed>
  <fix>3d</fix>
</trkpt>
<trkpt lat="-27.2157597" lon="151.4418792">
  <ele>405.24</ele>
  <time>2026-09-01T20:01:03Z</time>
  <course>138.61</course>
  <speed>0.02</speed>
  <fix>3d</fix>
</trkpt>
<trkpt lat="-27.2157598" lon="151.4418792">
  <ele>404.64</ele>
  <time>2026-09-01T20:01:03Z</time>
  <course>210.72</course>
  <speed>0.01414213562373095</speed>
  <fix>3d</fix>
</trkpt>
<trkpt lat="-27.2157597" lon="151.4418792">
  <ele>404.94</ele>
  <time>2026-09-01T20:01:03Z</time>
  <course>138.11</course>
  <speed>0.02</speed>
  <fix>3d</fix>
</trkpt>
<trkpt lat="-27.2157598" lon="151.4418792">
  <ele>404.49</ele>
  <time>2026-09-01T20:01:03Z</time>
  <course>210.71</course>
  <speed>0.01414213562373095</speed>
  <fix>3d</fix>
</trkpt>
<trkpt lat="-27.2157597" lon="151.4418792">
  <ele>404.94</ele>
  <time>2026-09-01T20:01:03Z</time>
  <course>138.11</course>
  <speed>0.02</speed>
  <fix>3d</fix>
</trkpt>
<trkpt lat="-27.2157598" lon="151.4418792">
  <ele>404.34</ele>
  <time>2026-09-01T20:01:03Z</time>
  <course>210.69</course>
  <speed>0.01414213562373095</speed>
  <fix>3d</fix>
</trkpt>
<trkpt lat="-27.2157597" lon="151.4418792">
  <ele>404.64</ele>
  <time>2026-09-01T20:01:03Z</time>
  <course>136.8</course>
  <speed>0.02</speed>
  <fix>3d</fix>
</trkpt>
<trkpt lat="-27.2157598" lon="151.4418794">
  <ele>404.19</ele>
  <time>2026-09-01T20:01:03Z</time>
  <course>210.68</course>
  <speed>0.01414213562373095</speed>
  <fix>3d</fix>
</trkpt>
<trkpt lat="-27.2157597" lon="151.4418792">
  <ele>404.64</ele>
  <time>2026-09-01T20:01:03Z</time>
  <course>136.8</course>
  <speed>0.02</speed>
  <fix>3d</fix>
</trkpt>
<trkpt lat="-27.2157598" lon="151.4418794">
  <ele>404.04</ele>
  <time>2026-09-01T20:01:03Z</time>
  <course>210.69</course>
  <speed>0.01414213562373095</speed>
  <fix>3d</fix>
</trkpt>
<trkpt lat="-27.2157598" lon="151.4418793">
  <ele>404.34</ele>
  <time>2026-09-01T20:01:03Z</time>
  <course>134.42</course>
  <speed>0.01</speed>
  <fix>3d</fix>
</trkpt>
<trkpt lat="-27.2157598" lon="151.4418794">
  <ele>403.89</ele>
  <time>2026-09-01T20:01:03Z</time>
  <course>210.71</course>
  <speed>0.01414213562373095</speed>
  <fix>3d</fix>
</trkpt>
<trkpt lat="-27.2157598" lon="151.4418793">
  <ele>404.34</ele>
  <time>2026-09-01T20:01:03Z</time>
  <course>134.42</course>
  <speed>0.01</speed>
  <fix>3d</fix>
</trkpt>
<trkpt lat="-27.2157598" lon="151.4418794">
  <ele>403.74</ele>
  <time>2026-09-01T20:01:03Z</time>
  <course>210.73</course>
  <speed>0.01414213562373095</speed>
  <fix>3d</fix>
</trkpt>
<trkpt lat="-27.2157598" lon="151.4418794">
  <ele>404.04</ele>
  <time>2026-09-01T20:01:03Z</time>
  <course>132.14</course>
  <speed>0.02</speed>
  <fix>3d</fix>
</trkpt>
<trkpt lat="-27.2157598" lon="151.4418794">
  <ele>403.58</ele>
  <time>2026-09-01T20:01:03Z</time>
  <course>210.74</course>
  <speed>0.01414213562373095</speed>
  <fix>3d</fix>
</trkpt>
<trkpt lat="-27.2157598" lon="151.4418794">
  <ele>404.04</ele>
  <time>2026-09-01T20:01:03Z</time>
  <course>132.14</course>
  <speed>0.02</speed>
  <fix>3d</fix>
</trkpt>
<trkpt lat="-27.2157599" lon="151.4418794">
  <ele>403.43</ele>
  <time>2026-09-01T20:01:03Z</time>
  <course>210.76</course>
  <speed>0.01414213562373095</speed>
  <fix>3d</fix>
</trkpt>
<trkpt lat="-27.2157598" lon="151.4418794">
  <ele>403.74</ele>
  <time>2026-09-01T20:01:03Z</time>
  <course>131.81</course>
  <speed>0.02</speed>
  <fix>3d</fix>
</trkpt>
<trkpt lat="-27.2157599" lon="151.4418795">
  <ele>403.28</ele>
  <time>2026-09-01T20:01:03Z</time>
  <course>210.78</course>
  <speed>0.01414213562373095</speed>
  <fix>3d</fix>
</trkpt>
<trkpt lat="-27.2157598" lon="151.4418794">
  <ele>403.74</ele>
  <time>2026-09-01T20:01:03Z</time>
  <course>131.81</course>
  <speed>0.02</speed>
  <fix>3d</fix>
</trkpt>
<trkpt lat="-27.2157599" lon="151.4418795">
  <ele>403.13</ele>
  <time>2026-09-01T20:01:03Z</time>
  <course>210.81</course>
  <speed>0.01414213562373095</speed>
  <fix>3d</fix>
</trkpt>
<trkpt lat="-27.2157598" lon="151.4418794">
  <ele>403.44</ele>
  <time>2026-09-01T20:01:03Z</time>
  <course>131.91</course>
  <speed>0.02</speed>
  <fix>3d</fix>
</trkpt>
<trkpt lat="-27.2157599" lon="151.4418795">
  <ele>402.98</ele>
  <time>2026-09-01T20:01:03Z</time>
  <course>210.83</course>
  <speed>0.01414213562373095</speed>
  <fix>3d</fix>
</trkpt>
<trkpt lat="-27.2157598" lon="151.4418794">
  <ele>403.44</ele>
  <time>2026-09-01T20:01:03Z</time>
  <course>131.91</course>
  <speed>0.02</speed>
  <fix>3d</fix>
</trkpt>
<trkpt lat="-27.2157599" lon="151.4418795">
  <ele>402.83</ele>
  <time>2026-09-01T20:01:03Z</time>
  <course>210.85</course>
  <speed>0.01414213562373095</speed>
  <fix>3d</fix>
</trkpt>
<trkpt lat="-27.2157599" lon="151.4418795">
  <ele>403.14</ele>
  <time>2026-09-01T20:01:03Z</time>
  <course>131.39</course>
  <speed>0.02</speed>
  <fix>3d</fix>
</trkpt>
<trkpt lat="-27.2157599" lon="151.4418795">
  <ele>402.69</ele>
  <time>2026-09-01T20:01:03Z</time>
  <course>210.86</course>
  <speed>0.01414213562373095</speed>
  <fix>3d</fix>
</trkpt>
<trkpt lat="-27.2157599" lon="151.4418795">
  <ele>403.14</ele>
  <time>2026-09-01T20:01:03Z</time>
  <course>131.39</course>
  <speed>0.02</speed>
  <fix>3d</fix>
</trkpt>
<trkpt lat="-27.2157599" lon="151.4418795">
  <ele>402.54</ele>
  <time>2026-09-01T20:01:03Z</time>
  <course>210.87</course>
  <speed>0.01414213562373095</speed>
  <fix>3d</fix>
</trkpt>
<trkpt lat="-27.2157599" lon="151.4418795">
  <ele>402.84</ele>
  <time>2026-09-01T20:01:03Z</time>
  <course>131.2</course>
  <speed>0.02</speed>
  <fix>3d</fix>
</trkpt>
<trkpt lat="-27.2157599" lon="151.4418796">
  <ele>402.39</ele>
  <time>2026-09-01T20:01:03Z</time>
  <course>210.89</course>
  <speed>0.01414213562373095</speed>
  <fix>3d</fix>
</trkpt>
<trkpt lat="-27.2157599" lon="151.4418795">
  <ele>402.84</ele>
  <time>2026-09-01T20:01:03Z</time>
  <course>131.2</course>
  <speed>0.02</speed>
  <fix>3d</fix>
</trkpt>
<trkpt lat="-27.21576" lon="151.4418796">
  <ele>402.24</ele>
  <time>2026-09-01T20:01:03Z</time>
  <course>210.91</course>
  <speed>0.01414213562373095</speed>
  <fix>3d</fix>
</trkpt>
<trkpt lat="-27.2157599" lon="151.4418795">
  <ele>402.54</ele>
  <time>2026-09-01T20:01:03Z</time>
  <course>131.41</course>
  <speed>0.02</speed>
  <fix>3d</fix>
</trkpt>
<trkpt lat="-27.21576" lon="151.4418796">
  <ele>402.09</ele>
  <time>2026-09-01T20:01:03Z</time>
  <course>210.93</course>
  <speed>0.01414213562373095</speed>
  <fix>3d</fix>
</trkpt>
<trkpt lat="-27.2157599" lon="151.4418795">
  <ele>402.54</ele>
  <time>2026-09-01T20:01:03Z</time>
  <course>131.41</course>
  <speed>0.02</speed>
  <fix>3d</fix>
</trkpt>
<trkpt lat="-27.21576" lon="151.4418796">
  <ele>401.94</ele>
  <time>2026-09-01T20:01:03Z</time>
  <course>210.95</course>
  <speed>0.01414213562373095</speed>
  <fix>3d</fix>
</trkpt>
<trkpt lat="-27.2157599" lon="151.4418795">
  <ele>402.24</ele>
  <time>2026-09-01T20:01:03Z</time>
  <course>131.26</course>
  <speed>0.02</speed>
  <fix>3d</fix>
</trkpt>
<trkpt lat="-27.21576" lon="151.4418796">
  <ele>401.79</ele>
  <time>2026-09-01T20:01:03Z</time>
  <course>210.97</course>
  <speed>0.01414213562373095</speed>
  <fix>3d</fix>
</trkpt>
<trkpt lat="-27.2157599" lon="151.4418795">
  <ele>402.24</ele>
  <time>2026-09-01T20:01:03Z</time>
  <course>131.26</course>
  <speed>0.02</speed>
  <fix>3d</fix>
</trkpt>
<trkpt lat="-27.21576" lon="151.4418796">
  <ele>401.63</ele>
  <time>2026-09-01T20:01:03Z</time>
  <course>210.98</course>
  <speed>0.01414213562373095</speed>
  <fix>3d</fix>
</trkpt>
<trkpt lat="-27.21576" lon="151.4418796">
  <ele>401.94</ele>
  <time>2026-09-01T20:01:03Z</time>
  <course>130.46</course>
  <speed>0.02</speed>
  <fix>3d</fix>
</trkpt>
<trkpt lat="-27.21576" lon="151.4418796">
  <ele>401.48</ele>
  <time>2026-09-01T20:01:03Z</time>
  <course>211.0</course>
  <speed>0.01414213562373095</speed>
  <fix>3d</fix>
</trkpt>
<trkpt lat="-27.21576" lon="151.4418796">
  <ele>401.94</ele>
  <time>2026-09-01T20:01:03Z</time>
  <course>130.46</course>
  <speed>0.02</speed>
  <fix>3d</fix>
</trkpt>
<trkpt lat="-27.21576" lon="151.4418796">
  <ele>401.33</ele>
  <time>2026-09-01T20:01:03Z</time>
  <course>211.0</course>
  <speed>0.01414213562373095</speed>
  <fix>3d</fix>
</trkpt>
<trkpt lat="-27.21576" lon="151.4418796">
  <ele>401.64</ele>
  <time>2026-09-01T20:01:03Z</time>
  <course>130.16</course>
  <speed>0.02</speed>
  <fix>3d</fix>
</trkpt>
<trkpt lat="-27.2157601" lon="151.4418796">
  <ele>401.18</ele>
  <time>2026-09-01T20:01:03Z</time>
  <course>211.01</course>
  <speed>0.01414213562373095</speed>
  <fix>3d</fix>
</trkpt>
<trkpt lat="-27.21576" lon="151.4418796">
  <ele>401.64</ele>
  <time>2026-09-01T20:01:03Z</time>
  <course>130.16</course>
  <speed>0.02</speed>
  <fix>3d</fix>
</trkpt>
<trkpt lat="-27.2157601" lon="151.4418796">
  <ele>401.03</ele>
  <time>2026-09-01T20:01:03Z</time>
  <course>211.02</course>
  <speed>0.01414213562373095</speed>
  <fix>3d</fix>
</trkpt>
<trkpt lat="-27.21576" lon="151.4418796">
  <ele>401.34</ele>
  <time>2026-09-01T20:01:03Z</time>
  <course>130.14</course>
  <speed>0.02</speed>
  <fix>3d</fix>
</trkpt>
<trkpt lat="-27.2157601" lon="151.4418796">
  <ele>400.88</ele>
  <time>2026-09-01T20:01:03Z</time>
  <course>211.03</course>
  <speed>0.01414213562373095</speed>
  <fix>3d</fix>
</trkpt>
<trkpt lat="-27.21576" lon="151.4418796">
  <ele>401.34</ele>
  <time>2026-09-01T20:01:03Z</time>
  <course>130.14</course>
  <speed>0.02</speed>
  <fix>3d</fix>
</trkpt>
<trkpt lat="-27.2157601" lon="151.4418796">
  <ele>400.74</ele>
  <time>2026-09-01T20:01:03Z</time>
  <course>211.05</course>
  <speed>0.01414213562373095</speed>
  <fix>3d</fix>
</trkpt>
<trkpt lat="-27.2157601" lon="151.4418796">
  <ele>401.04</ele>
  <time>2026-09-01T20:01:03Z</time>
  <course>129.0</course>
  <speed>0.02</speed>
  <fix>3d</fix>
</trkpt>
<trkpt lat="-27.2157601" lon="151.4418797">
  <ele>400.59</ele>
  <time>2026-09-01T20:01:03Z</time>
  <course>211.07</course>
  <speed>0.01414213562373095</speed>
  <fix>3d</fix>
</trkpt>
<trkpt lat="-27.2157601" lon="151.4418796">
  <ele>401.04</ele>
  <time>2026-09-01T20:01:03Z</time>
  <course>129.0</course>
  <speed>0.02</speed>
  <fix>3d</fix>
</trkpt>
<trkpt lat="-27.2157601" lon="151.4418797">
  <ele>400.44</ele>
  <time>2026-09-01T20:01:03Z</time>
  <course>211.1</course>
  <speed>0.022360679774997897</speed>
  <fix>3d</fix>
</trkpt>
<trkpt lat="-27.2157601" lon="151.4418797">
  <ele>400.74</ele>
  <time>2026-09-01T20:01:03Z</time>
  <course>126.98</course>
  <speed>0.02</speed>
  <fix>3d</fix>
</trkpt>
<trkpt lat="-27.2157601" lon="151.4418797">
  <ele>400.29</ele>
  <time>2026-09-01T20:01:03Z</time>
  <course>211.13</course>
  <speed>0.022360679774997897</speed>
  <fix>3d</fix>
</trkpt>
<trkpt lat="-27.2157601" lon="151.4418797">
  <ele>400.74</ele>
  <time>2026-09-01T20:01:03Z</time>
  <course>126.98</course>
  <speed>0.02</speed>
  <fix>3d</fix>
</trkpt>
<trkpt lat="-27.2157601" lon="151.4418797">
  <ele>400.14</ele>
  <time>2026-09-01T20:01:03Z</time>
  <course>211.15</course>
  <speed>0.022360679774997897</speed>
  <fix>3d</fix>
</trkpt>
<trkpt lat="-27.2157601" lon="151.4418797">
  <ele>400.44</ele>
  <time>2026-09-01T20:01:03Z</time>
  <course>125.36</course>
  <speed>0.02</speed>
  <fix>3d</fix>
</trkpt>
<trkpt lat="-27.2157602" lon="151.4418797">
  <ele>399.99</ele>
  <time>2026-09-01T20:01:03Z</time>
  <course>211.18</course>
  <speed>0.022360679774997897</speed>
  <fix>3d</fix>
</trkpt>
<trkpt lat="-27.2157601" lon="151.4418797">
  <ele>400.44</ele>
  <time>2026-09-01T20:01:03Z</time>
  <course>125.36</course>
  <speed>0.02</speed>
  <fix>3d</fix>
</trkpt>
<trkpt lat="-27.2157602" lon="151.4418799">
  <ele>399.84</ele>
  <time>2026-09-01T20:01:03Z</time>
  <course>211.2</course>
  <speed>0.022360679774997897</speed>
  <fix>3d</fix>
</trkpt>
<trkpt lat="-27.2157601" lon="151.4418797">
  <ele>400.14</ele>
  <time>2026-09-01T20:01:03Z</time>
  <course>124.72</course>
  <speed>0.02</speed>
  <fix>3d</fix>
</trkpt>
<trkpt lat="-27.2157602" lon="151.4418799">
  <ele>399.69</ele>
  <time>2026-09-01T20:01:03Z</time>
  <course>211.23</course>
  <speed>0.022360679774997897</speed>
  <fix>3d</fix>
</trkpt>
<trkpt lat="-27.2157601" lon="151.4418797">
  <ele>400.14</ele>
  <time>2026-09-01T20:01:03Z</time>
  <course>124.72</course>
  <speed>0.02</speed>
  <fix>3d</fix>
</trkpt>
<trkpt lat="-27.2157602" lon="151.4418799">
  <ele>399.54</ele>
  <time>2026-09-01T20:01:03Z</time>
  <course>211.26</course>
  <speed>0.022360679774997897</speed>
  <fix>3d</fix>
</trkpt>
<trkpt lat="-27.2157602" lon="151.4418798">
  <ele>399.84</ele>
  <time>2026-09-01T20:01:03Z</time>
  <course>124.96</course>
  <speed>0.02</speed>
  <fix>3d</fix>
</trkpt>
<trkpt lat="-27.2157602" lon="151.4418799">
  <ele>399.39</ele>
  <time>2026-09-01T20:01:03Z</time>
  <course>211.29</course>
  <speed>0.022360679774997897</speed>
  <fix>3d</fix>
</trkpt>
<trkpt lat="-27.2157602" lon="151.4418798">
  <ele>399.84</ele>
  <time>2026-09-01T20:01:03Z</time>
  <course>124.96</course>
  <speed>0.02</speed>
  <fix>3d</fix>
</trkpt>
<trkpt lat="-27.2157602" lon="151.44188">
  <ele>399.24</ele>
  <time>2026-09-01T20:01:03Z</time>
  <course>211.31</course>
  <speed>0.022360679774997897</speed>
  <fix>3d</fix>
</trkpt>
<trkpt lat="-27.2157602" lon="151.4418799">
  <ele>399.54</ele>
  <time>2026-09-01T20:01:03Z</time>
  <course>126.1</course>
  <speed>0.02</speed>
  <fix>3d</fix>
</trkpt>
<trkpt lat="-27.2157602" lon="151.44188">
  <ele>399.08</ele>
  <time>2026-09-01T20:01:03Z</time>
  <course>211.33</course>
  <speed>0.022360679774997897</speed>
  <fix>3d</fix>
</trkpt>
<trkpt lat="-27.2157602" lon="151.4418799">
  <ele>399.54</ele>
  <time>2026-09-01T20:01:03Z</time>
  <course>126.1</course>
  <speed>0.02</speed>
  <fix>3d</fix>
</trkpt>
<trkpt lat="-27.2157603" lon="151.44188">
  <ele>398.93</ele>
  <time>2026-09-01T20:01:03Z</time>
  <course>211.34</course>
  <speed>0.022360679774997897</speed>
  <fix>3d</fix>
</trkpt>
<trkpt lat="-27.2157602" lon="151.4418799">
  <ele>399.24</ele>
  <time>2026-09-01T20:01:03Z</time>
  <course>126.65</course>
  <speed>0.02</speed>
  <fix>3d</fix>
</trkpt>
<trkpt lat="-27.2157603" lon="151.44188">
  <ele>398.78</ele>
  <time>2026-09-01T20:01:03Z</time>
  <course>211.35</course>
  <speed>0.022360679774997897</speed>
  <fix>3d</fix>
</trkpt>
<trkpt lat="-27.2157602" lon="151.4418799">
  <ele>399.24</ele>
  <time>2026-09-01T20:01:03Z</time>
  <course>126.65</course>
  <speed>0.02</speed>
  <fix>3d</fix>
</trkpt>
<trkpt lat="-27.2157603" lon="151.44188">
  <ele>398.63</ele>
  <time>2026-09-01T20:01:03Z</time>
  <course>211.37</course>
  <speed>0.022360679774997897</speed>
  <fix>3d</fix>
</trkpt>
<trkpt lat="-27.2157602" lon="151.44188">
  <ele>398.94</ele>
  <time>2026-09-01T20:01:03Z</time>
  <course>126.65</course>
  <speed>0.02</speed>
  <fix>3d</fix>
</trkpt>
<trkpt lat="-27.2157603" lon="151.4418801">
  <ele>398.48</ele>
  <time>2026-09-01T20:01:03Z</time>
  <course>211.4</course>
  <speed>0.022360679774997897</speed>
  <fix>3d</fix>
</trkpt>
<trkpt lat="-27.2157602" lon="151.44188">
  <ele>398.94</ele>
  <time>2026-09-01T20:01:03Z</time>
  <course>126.65</course>
  <speed>0.02</speed>
  <fix>3d</fix>
</trkpt>
<trkpt lat="-27.2157603" lon="151.4418801">
  <ele>398.34</ele>
  <time>2026-09-01T20:01:03Z</time>
  <course>211.43</course>
  <speed>0.022360679774997897</speed>
  <fix>3d</fix>
</trkpt>
<trkpt lat="-27.2157603" lon="151.44188">
  <ele>398.64</ele>
  <time>2026-09-01T20:01:03Z</time>
  <course>126.78</course>
  <speed>0.02</speed>
  <fix>3d</fix>
</trkpt>
<trkpt lat="-27.2157603" lon="151.4418801">
  <ele>398.19</ele>
  <time>2026-09-01T20:01:03Z</time>
  <course>211.48</course>
  <speed>0.022360679774997897</speed>
  <fix>3d</fix>
</trkpt>
<trkpt lat="-27.2157603" lon="151.44188">
  <ele>398.64</ele>
  <time>2026-09-01T20:01:03Z</time>
  <course>126.78</course>
  <speed>0.02</speed>
  <fix>3d</fix>
</trkpt>
<trkpt lat="-27.2157603" lon="151.4418801">
  <ele>398.04</ele>
  <time>2026-09-01T20:01:03Z</time>
  <course>211.52</course>
  <speed>0.022360679774997897</speed>
  <fix>3d</fix>
</trkpt>
<trkpt lat="-27.2157603" lon="151.4418801">
  <ele>398.34</ele>
  <time>2026-09-01T20:01:03Z</time>
  <course>126.35</course>
  <speed>0.02</speed>
  <fix>3d</fix>
</trkpt>
<trkpt lat="-27.2157604" lon="151.4418801">
  <ele>397.89</ele>
  <time>2026-09-01T20:01:03Z</time>
  <course>211.56</course>
  <speed>0.022360679774997897</speed>
  <fix>3d</fix>
</trkpt>
<trkpt lat="-27.2157603" lon="151.4418801">
  <ele>398.34</ele>
  <time>2026-09-01T20:01:03Z</time>
  <course>126.35</course>
  <speed>0.02</speed>
  <fix>3d</fix>
</trkpt>
<trkpt lat="-27.2157604" lon="151.4418801">
  <ele>397.74</ele>
  <time>2026-09-01T20:01:03Z</time>
  <course>211.59</course>
  <speed>0.022360679774997897</speed>
  <fix>3d</fix>
</trkpt>
<trkpt lat="-27.2157603" lon="151.4418801">
  <ele>398.04</ele>
  <time>2026-09-01T20:01:03Z</time>
  <course>126.12</course>
  <speed>0.03</speed>
  <fix>3d</fix>
</trkpt>
<trkpt lat="-27.2157604" lon="151.4418801">
  <ele>397.59</ele>
  <time>2026-09-01T20:01:03Z</time>
  <course>211.61</course>
  <speed>0.022360679774997897</speed>
  <fix>3d</fix>
</trkpt>
<trkpt lat="-27.2157603" lon="151.4418801">
  <ele>398.04</ele>
  <time>2026-09-01T20:01:03Z</time>
  <course>126.12</course>
  <speed>0.03</speed>
  <fix>3d</fix>
</trkpt>
<trkpt lat="-27.2157604" lon="151.4418801">
  <ele>397.43</ele>
  <time>2026-09-01T20:01:03Z</time>
  <course>211.63</course>
  <speed>0.022360679774997897</speed>
  <fix>3d</fix>
</trkpt>
<trkpt lat="-27.2157604" lon="151.4418801">
  <ele>397.74</ele>
  <time>2026-09-01T20:01:03Z</time>
  <course>126.38</course>
  <speed>0.03</speed>
  <fix>3d</fix>
</trkpt>
<trkpt lat="-27.2157604" lon="151.4418802">
  <ele>397.28</ele>
  <time>2026-09-01T20:01:03Z</time>
  <course>211.64</course>
  <speed>0.022360679774997897</speed>
  <fix>3d</fix>
</trkpt>
<trkpt lat="-27.2157604" lon="151.4418801">
  <ele>397.74</ele>
  <time>2026-09-01T20:01:03Z</time>
  <course>126.38</course>
  <speed>0.03</speed>
  <fix>3d</fix>
</trkpt>
<trkpt lat="-27.2157604" lon="151.4418802">
  <ele>397.14</ele>
  <time>2026-09-01T20:01:03Z</time>
  <course>211.66</course>
  <speed>0.022360679774997897</speed>
  <fix>3d</fix>
</trkpt>
<trkpt lat="-27.2157604" lon="151.4418802">
  <ele>397.44</ele>
  <time>2026-09-01T20:01:03Z</time>
  <course>126.09</course>
  <speed>0.03</speed>
  <fix>3d</fix>
</trkpt>
<trkpt lat="-27.2157605" lon="151.4418802">
  <ele>396.99</ele>
  <time>2026-09-01T20:01:03Z</time>
  <course>211.69</course>
  <speed>0.022360679774997897</speed>
  <fix>3d</fix>
</trkpt>
<trkpt lat="-27.2157604" lon="151.4418802">
  <ele>397.44</ele>
  <time>2026-09-01T20:01:03Z</time>
  <course>126.09</course>
  <speed>0.03</speed>
  <fix>3d</fix>
</trkpt>
<trkpt lat="-27.2157605" lon="151.4418802">
  <ele>396.84</ele>
  <time>2026-09-01T20:01:03Z</time>
  <course>211.73</course>
  <speed>0.022360679774997897</speed>
  <fix>3d</fix>
</trkpt>
<trkpt lat="-27.2157604" lon="151.4418802">
  <ele>397.14</ele>
  <time>2026-09-01T20:01:03Z</time>
  <course>125.07</course>
  <speed>0.03</speed>
  <fix>3d</fix>
</trkpt>
<trkpt lat="-27.2157605" lon="151.4418804">
  <ele>396.69</ele>
  <time>2026-09-01T20:01:03Z</time>
  <course>211.77</course>
  <speed>0.022360679774997897</speed>
  <fix>3d</fix>
</trkpt>
<trkpt lat="-27.2157604" lon="151.4418802">
  <ele>397.14</ele>
  <time>2026-09-01T20:01:03Z</time>
  <course>125.07</course>
  <speed>0.03</speed>
  <fix>3d</fix>
</trkpt>
<trkpt lat="-27.2157605" lon="151.4418804">
  <ele>396.54</ele>
  <time>2026-09-01T20:01:03Z</time>
  <course>211.82</course>
  <speed>0.0282842712474619</speed>
  <fix>3d</fix>
</trkpt>
<trkpt lat="-27.2157605" lon="151.4418803">
  <ele>396.84</ele>
  <time>2026-09-01T20:01:03Z</time>
  <course>124.23</course>
  <speed>0.03</speed>
  <fix>3d</fix>
</trkpt>
<trkpt lat="-27.2157605" lon="151.4418804">
  <ele>396.39</ele>
  <time>2026-09-01T20:01:03Z</time>
  <course>211.87</course>
  <speed>0.03605551275463989</speed>
  <fix>3d</fix>
</trkpt>
<trkpt lat="-27.2157605" lon="151.4418803">
  <ele>396.84</ele>
  <time>2026-09-01T20:01:03Z</time>
  <course>124.23</course>
  <speed>0.03</speed>
  <fix>3d</fix>
</trkpt>
<trkpt lat="-27.2157606" lon="151.4418805">
  <ele>396.24</ele>
  <time>2026-09-01T20:01:03Z</time>
  <course>211.93</course>
  <speed>0.0282842712474619</speed>
  <fix>3d</fix>
</trkpt>
<trkpt lat="-27.2157605" lon="151.4418804">
  <ele>396.54</ele>
  <time>2026-09-01T20:01:03Z</time>
  <course>124.13</course>
  <speed>0.03</speed>
  <fix>3d</fix>
</trkpt>
<trkpt lat="-27.2157606" lon="151.4418805">
  <ele>396.09</ele>
  <time>2026-09-01T20:01:03Z</time>
  <course>211.97</course>
  <speed>0.03605551275463989</speed>
  <fix>3d</fix>
</trkpt>
<trkpt lat="-27.2157605" lon="151.4418804">
  <ele>396.54</ele>
  <time>2026-09-01T20:01:03Z</time>
  <course>124.13</course>
  <speed>0.03</speed>
  <fix>3d</fix>
</trkpt>
<trkpt lat="-27.2157606" lon="151.4418805">
  <ele>395.94</ele>
  <time>2026-09-01T20:01:03Z</time>
  <course>212.03</course>
  <speed>0.03605551275463989</speed>
  <fix>3d</fix>
</trkpt>
<trkpt lat="-27.2157605" lon="151.4418804">
  <ele>396.24</ele>
  <time>2026-09-01T20:01:03Z</time>
  <course>124.69</course>
  <speed>0.03</speed>
  <fix>3d</fix>
</trkpt>
<trkpt lat="-27.2157606" lon="151.4418806">
  <ele>395.78</ele>
  <time>2026-09-01T20:01:03Z</time>
  <course>212.08</course>
  <speed>0.03605551275463989</speed>
  <fix>3d</fix>
</trkpt>
<trkpt lat="-27.2157605" lon="151.4418804">
  <ele>396.24</ele>
  <time>2026-09-01T20:01:03Z</time>
  <course>124.69</course>
  <speed>0.03</speed>
  <fix>3d</fix>
</trkpt>
<trkpt lat="-27.2157606" lon="151.4418806">
  <ele>395.63</ele>
  <time>2026-09-01T20:01:03Z</time>
  <course>212.11</course>
  <speed>0.03605551275463989</speed>
  <fix>3d</fix>
</trkpt>
<trkpt lat="-27.2157606" lon="151.4418805">
  <ele>395.94</ele>
  <time>2026-09-01T20:01:03Z</time>
  <course>125.3</course>
  <speed>0.03</speed>
  <fix>3d</fix>
</trkpt>
<trkpt lat="-27.2157607" lon="151.4418806">
  <ele>395.48</ele>
  <time>2026-09-01T20:01:03Z</time>
  <course>212.15</course>
  <speed>0.03605551275463989</speed>
  <fix>3d</fix>
</trkpt>
<trkpt lat="-27.2157606" lon="151.4418805">
  <ele>395.94</ele>
  <time>2026-09-01T20:01:03Z</time>
  <course>125.3</course>
  <speed>0.03</speed>
  <fix>3d</fix>
</trkpt>
<trkpt lat="-27.2157607" lon="151.4418806">
  <ele>395.33</ele>
  <time>2026-09-01T20:01:03Z</time>
  <course>212.18</course>
  <speed>0.03605551275463989</speed>
  <fix>3d</fix>
</trkpt>
<trkpt lat="-27.2157606" lon="151.4418806">
  <ele>395.64</ele>
  <time>2026-09-01T20:01:03Z</time>
  <course>125.62</course>
  <speed>0.03</speed>
  <fix>3d</fix>
</trkpt>
<trkpt lat="-27.2157607" lon="151.4418806">
  <ele>395.19</ele>
  <time>2026-09-01T20:01:03Z</time>
  <course>212.21</course>
  <speed>0.03605551275463989</speed>
  <fix>3d</fix>
</trkpt>
<trkpt lat="-27.2157606" lon="151.4418806">
  <ele>395.64</ele>
  <time>2026-09-01T20:01:03Z</time>
  <course>125.62</course>
  <speed>0.03</speed>
  <fix>3d</fix>
</trkpt>
<trkpt lat="-27.2157607" lon="151.4418806">
  <ele>395.04</ele>
  <time>2026-09-01T20:01:03Z</time>
  <course>212.25</course>
  <speed>0.03605551275463989</speed>
  <fix>3d</fix>
</trkpt>
<trkpt lat="-27.2157607" lon="151.4418806">
  <ele>395.34</ele>
  <time>2026-09-01T20:01:03Z</time>
  <course>125.89</course>
  <speed>0.04</speed>
  <fix>3d</fix>
</trkpt>
<trkpt lat="-27.2157607" lon="151.4418808">
  <ele>394.89</ele>
  <time>2026-09-01T20:01:03Z</time>
  <course>212.29</course>
  <speed>0.03605551275463989</speed>
  <fix>3d</fix>
</trkpt>
<trkpt lat="-27.2157607" lon="151.4418806">
  <ele>395.34</ele>
  <time>2026-09-01T20:01:03Z</time>
  <course>125.89</course>
  <speed>0.04</speed>
  <fix>3d</fix>
</trkpt>
<trkpt lat="-27.2157608" lon="151.4418808">
  <ele>394.74</ele>
  <time>2026-09-01T20:01:03Z</time>
  <course>212.34</course>
  <speed>0.03605551275463989</speed>
  <fix>3d</fix>
</trkpt>
<trkpt lat="-27.2157607" lon="151.4418807">
  <ele>395.04</ele>
  <time>2026-09-01T20:01:03Z</time>
  <course>126.09</course>
  <speed>0.04</speed>
  <fix>3d</fix>
</trkpt>
<trkpt lat="-27.2157608" lon="151.4418808">
  <ele>394.59</ele>
  <time>2026-09-01T20:01:03Z</time>
  <course>212.4</course>
  <speed>0.03605551275463989</speed>
  <fix>3d</fix>
</trkpt>
<trkpt lat="-27.2157607" lon="151.4418807">
  <ele>395.04</ele>
  <time>2026-09-01T20:01:03Z</time>
  <course>126.09</course>
  <speed>0.04</speed>
  <fix>3d</fix>
</trkpt>
<trkpt lat="-27.2157608" lon="151.4418809">
  <ele>394.44</ele>
  <time>2026-09-01T20:01:03Z</time>
  <course>212.46</course>
  <speed>0.03605551275463989</speed>
  <fix>3d</fix>
</trkpt>
<trkpt lat="-27.2157607" lon="151.4418808">
  <ele>394.74</ele>
  <time>2026-09-01T20:01:03Z</time>
  <course>126.04</course>
  <speed>0.04</speed>
  <fix>3d</fix>
</trkpt>
<trkpt lat="-27.2157608" lon="151.4418809">
  <ele>394.29</ele>
  <time>2026-09-01T20:01:03Z</time>
  <course>212.52</course>
  <speed>0.03605551275463989</speed>
  <fix>3d</fix>
</trkpt>
<trkpt lat="-27.2157607" lon="151.4418808">
  <ele>394.74</ele>
  <time>2026-09-01T20:01:03Z</time>
  <course>126.04</course>
  <speed>0.04</speed>
  <fix>3d</fix>
</trkpt>
<trkpt lat="-27.2157609" lon="151.441881">
  <ele>394.14</ele>
  <time>2026-09-01T20:01:03Z</time>
  <course>212.58</course>
  <speed>0.03605551275463989</speed>
  <fix>3d</fix>
</trkpt>
<trkpt lat="-27.2157608" lon="151.4418808">
  <ele>394.44</ele>
  <time>2026-09-01T20:01:03Z</time>
  <course>126.11</course>
  <speed>0.04</speed>
  <fix>3d</fix>
</trkpt>
<trkpt lat="-27.2157609" lon="151.441881">
  <ele>393.99</ele>
  <time>2026-09-01T20:01:03Z</time>
  <course>212.64</course>
  <speed>0.03605551275463989</speed>
  <fix>3d</fix>
</trkpt>
<trkpt lat="-27.2157608" lon="151.4418808">
  <ele>394.44</ele>
  <time>2026-09-01T20:01:03Z</time>
  <course>126.11</course>
  <speed>0.04</speed>
  <fix>3d</fix>
</trkpt>
<trkpt lat="-27.2157609" lon="151.441881">
  <ele>393.84</ele>
  <time>2026-09-01T20:01:03Z</time>
  <course>212.7</course>
  <speed>0.05</speed>
  <fix>3d</fix>
</trkpt>
<trkpt lat="-27.2157608" lon="151.4418809">
  <ele>394.14</ele>
  <time>2026-09-01T20:01:03Z</time>
  <course>126.52</course>
  <speed>0.04</speed>
  <fix>3d</fix>
</trkpt>
<trkpt lat="-27.2157609" lon="151.4418811">
  <ele>393.69</ele>
  <time>2026-09-01T20:01:03Z</time>
  <course>212.76</course>
  <speed>0.05</speed>
  <fix>3d</fix>
</trkpt>
<trkpt lat="-27.2157608" lon="151.4418809">
  <ele>394.14</ele>
  <time>2026-09-01T20:01:03Z</time>
  <course>126.52</course>
  <speed>0.04</speed>
  <fix>3d</fix>
</trkpt>
<trkpt lat="-27.215761" lon="151.4418811">
  <ele>393.54</ele>
  <time>2026-09-01T20:01:03Z</time>
  <course>212.81</course>
  <speed>0.05</speed>
  <fix>3d</fix>
</trkpt>
<trkpt lat="-27.2157609" lon="151.441881">
  <ele>393.84</ele>
  <time>2026-09-01T20:01:03Z</time>
  <course>127.09</course>
  <speed>0.05</speed>
  <fix>3d</fix>
</trkpt>
<trkpt lat="-27.215761" lon="151.4418811">
  <ele>393.38</ele>
  <time>2026-09-01T20:01:03Z</time>
  <course>212.87</course>
  <speed>0.05</speed>
  <fix>3d</fix>
</trkpt>
<trkpt lat="-27.2157609" lon="151.441881">
  <ele>393.84</ele>
  <time>2026-09-01T20:01:03Z</time>
  <course>127.09</course>
  <speed>0.05</speed>
  <fix>3d</fix>
</trkpt>
<trkpt lat="-27.215761" lon="151.4418811">
  <ele>393.23</ele>
  <time>2026-09-01T20:01:03Z</time>
  <course>212.93</course>
  <speed>0.05</speed>
  <fix>3d</fix>
</trkpt>
<trkpt lat="-27.2157609" lon="151.4418811">
  <ele>393.54</ele>
  <time>2026-09-01T20:01:03Z</time>
  <course>127.59</course>
  <speed>0.05</speed>
  <fix>3d</fix>
</trkpt>
<trkpt lat="-27.2157611" lon="151.4418811">
  <ele>393.08</ele>
  <time>2026-09-01T20:01:03Z</time>
  <course>212.98</course>
  <speed>0.05</speed>
  <fix>3d</fix>
</trkpt>
<trkpt lat="-27.2157609" lon="151.4418811">
  <ele>393.54</ele>
  <time>2026-09-01T20:01:03Z</time>
  <course>127.59</course>
  <speed>0.05</speed>
  <fix>3d</fix>
</trkpt>
<trkpt lat="-27.2157611" lon="151.4418813">
  <ele>392.94</ele>
  <time>2026-09-01T20:01:03Z</time>
  <course>213.02</course>
  <speed>0.05</speed>
  <fix>3d</fix>
</trkpt>
<trkpt lat="-27.215761" lon="151.4418811">
  <ele>393.24</ele>
  <time>2026-09-01T20:01:03Z</time>
  <course>128.01</course>
  <speed>0.05</speed>
  <fix>3d</fix>
</trkpt>
<trkpt lat="-27.2157611" lon="151.4418813">
  <ele>392.79</ele>
  <time>2026-09-01T20:01:03Z</time>
  <course>213.02</course>
  <speed>0.04242640687119285</speed>
  <fix>3d</fix>
</trkpt>
<trkpt lat="-27.215761" lon="151.4418811">
  <ele>393.24</ele>
  <time>2026-09-01T20:01:03Z</time>
  <course>128.01</course>
  <speed>0.05</speed>
  <fix>3d</fix>
</trkpt>
<trkpt lat="-27.2157611" lon="151.4418814">
  <ele>392.64</ele>
  <time>2026-09-01T20:01:03Z</time>
  <course>212.86</course>
  <speed>0.0282842712474619</speed>
  <fix>3d</fix>
</trkpt>
<trkpt lat="-27.2157611" lon="151.4418812">
  <ele>392.94</ele>
  <time>2026-09-01T20:01:03Z</time>
  <course>128.7</course>
  <speed>0.05</speed>
  <fix>3d</fix>
</trkpt>
<trkpt lat="-27.2157612" lon="151.4418814">
  <ele>392.49</ele>
  <time>2026-09-01T20:01:03Z</time>
  <course>212.53</course>
  <speed>0.01414213562373095</speed>
  <fix>3d</fix>
</trkpt>
<trkpt lat="-27.2157611" lon="151.4418812">
  <ele>392.94</ele>
  <time>2026-09-01T20:01:03Z</time>
  <course>128.7</course>
  <speed>0.05</speed>
  <fix>3d</fix>
</trkpt>
<trkpt lat="-27.2157612" lon="151.4418814">
  <ele>392.34</ele>
  <time>2026-09-01T20:01:03Z</time>
  <course>212.1</course>
  <speed>0.0</speed>
  <fix>3d</fix>
</trkpt>
<trkpt lat="-27.2157611" lon="151.4418813">
  <ele>392.64</ele>
  <time>2026-09-01T20:01:03Z</time>
  <course>132.86</course>
  <speed>0.03</speed>
  <fix>3d</fix>
</trkpt>
<trkpt lat="-27.2157612" lon="151.4418814">
  <ele>392.19</ele>
  <time>2026-09-01T20:01:03Z</time>
  <course>211.66</course>
  <speed>0.01</speed>
  <fix>3d</fix>
</trkpt>
<trkpt lat="-27.2157611" lon="151.4418813">
  <ele>392.64</ele>
  <time>2026-09-01T20:01:03Z</time>
  <course>132.86</course>
  <speed>0.03</speed>
  <fix>3d</fix>
</trkpt>
<trkpt lat="-27.2157612" lon="151.4418813">
  <ele>392.04</ele>
  <time>2026-09-01T20:01:03Z</time>
  <course>211.28</course>
  <speed>0.0316227766016838</speed>
  <fix>3d</fix>
</trkpt>
<trkpt lat="-27.2157612" lon="151.4418814">
  <ele>392.34</ele>
  <time>2026-09-01T20:01:03Z</time>
  <course>214.64</course>
  <speed>0.0</speed>
  <fix>3d</fix>
</trkpt>
<trkpt lat="-27.2157612" lon="151.4418813">
  <ele>391.89</ele>
  <time>2026-09-01T20:01:03Z</time>
  <course>211.02</course>
  <speed>0.044721359549995794</speed>
  <fix>3d</fix>
</trkpt>
<trkpt lat="-27.2157612" lon="151.4418814">
  <ele>392.34</ele>
  <time>2026-09-01T20:01:03Z</time>
  <course>214.64</course>
  <speed>0.0</speed>
  <fix>3d</fix>
</trkpt>
<trkpt lat="-27.2157612" lon="151.4418813">
  <ele>391.74</ele>
  <time>2026-09-01T20:01:03Z</time>
  <course>210.87</course>
  <speed>0.05830951894845301</speed>
  <fix>3d</fix>
</trkpt>
<trkpt lat="-27.2157612" lon="151.4418813">
  <ele>392.04</ele>
  <time>2026-09-01T20:01:03Z</time>
  <course>294.29</course>
  <speed>0.03</speed>
  <fix>3d</fix>
</trkpt>
<trkpt lat="-27.2157612" lon="151.4418813">
  <ele>391.59</ele>
  <time>2026-09-01T20:01:03Z</time>
  <course>210.84</course>
  <speed>0.0670820393249937</speed>
  <fix>3d</fix>
</trkpt>
<trkpt lat="-27.2157612" lon="151.4418813">
  <ele>392.04</ele>
  <time>2026-09-01T20:01:03Z</time>
  <course>294.29</course>
  <speed>0.03</speed>
  <fix>3d</fix>
</trkpt>
<trkpt lat="-27.2157612" lon="151.4418811">
  <ele>391.43</ele>
  <time>2026-09-01T20:01:03Z</time>
  <course>210.89</course>
  <speed>0.08062257748298549</speed>
  <fix>3d</fix>
</trkpt>
<trkpt lat="-27.2157612" lon="151.4418813">
  <ele>391.74</ele>
  <time>2026-09-01T20:01:03Z</time>
  <course>300.27</course>
  <speed>0.06</speed>
  <fix>3d</fix>
</trkpt>
<trkpt lat="-27.2157611" lon="151.4418811">
  <ele>391.29</ele>
  <time>2026-09-01T20:01:03Z</time>
  <course>210.99</course>
  <speed>0.09433981132056603</speed>
  <fix>3d</fix>
</trkpt>
<trkpt lat="-27.2157612" lon="151.4418813">
  <ele>391.74</ele>
  <time>2026-09-01T20:01:03Z</time>
  <course>300.27</course>
  <speed>0.06</speed>
  <fix>3d</fix>
</trkpt>
<trkpt lat="-27.2157611" lon="151.4418811">
  <ele>391.14</ele>
  <time>2026-09-01T20:01:03Z</time>
  <course>211.11</course>
  <speed>0.09433981132056603</speed>
  <fix>3d</fix>
</trkpt>
<trkpt lat="-27.2157611" lon="151.4418812">
  <ele>391.44</ele>
  <time>2026-09-01T20:01:03Z</time>
  <course>302.84</course>
  <speed>0.08</speed>
  <fix>3d</fix>
</trkpt>
<trkpt lat="-27.215761" lon="151.441881">
  <ele>390.99</ele>
  <time>2026-09-01T20:01:03Z</time>
  <course>211.23</course>
  <speed>0.10816653826391968</speed>
  <fix>3d</fix>
</trkpt>
<trkpt lat="-27.2157611" lon="151.4418812">
  <ele>391.44</ele>
  <time>2026-09-01T20:01:03Z</time>
  <course>302.84</course>
  <speed>0.08</speed>
  <fix>3d</fix>
</trkpt>
<trkpt lat="-27.2157609" lon="151.4418809">
  <ele>390.84</ele>
  <time>2026-09-01T20:01:03Z</time>
  <course>211.33</course>
  <speed>0.10816653826391968</speed>
  <fix>3d</fix>
</trkpt>
<trkpt lat="-27.215761" lon="151.4418811">
  <ele>391.14</ele>
  <time>2026-09-01T20:01:03Z</time>
  <course>304.25</course>
  <speed>0.1</speed>
  <fix>3d</fix>
</trkpt>
<trkpt lat="-27.2157609" lon="151.4418808">
  <ele>390.69</ele>
  <time>2026-09-01T20:01:03Z</time>
  <course>211.4</course>
  <speed>0.12206555615733702</speed>
  <fix>3d</fix>
</trkpt>
<trkpt lat="-27.215761" lon="151.4418811">
  <ele>391.14</ele>
  <time>2026-09-01T20:01:03Z</time>
  <course>304.25</course>
  <speed>0.1</speed>
  <fix>3d</fix>
</trkpt>
<trkpt lat="-27.2157608" lon="151.4418806">
  <ele>390.54</ele>
  <time>2026-09-01T20:01:03Z</time>
  <course>211.44</course>
  <speed>0.12206555615733702</speed>
  <fix>3d</fix>
</trkpt>
<trkpt lat="-27.2157609" lon="151.4418809">
  <ele>390.84</ele>
  <time>2026-09-01T20:01:03Z</time>
  <course>304.99</course>
  <speed>0.12</speed>
  <fix>3d</fix>
</trkpt>
<trkpt lat="-27.2157607" lon="151.4418806">
  <ele>390.39</ele>
  <time>2026-09-01T20:01:03Z</time>
  <course>211.44</course>
  <speed>0.13601470508735444</speed>
  <fix>3d</fix>
</trkpt>
<trkpt lat="-27.2157609" lon="151.4418809">
  <ele>390.84</ele>
  <time>2026-09-01T20:01:03Z</time>
  <course>304.99</course>
  <speed>0.12</speed>
  <fix>3d</fix>
</trkpt>
<trkpt lat="-27.2157607" lon="151.4418804">
  <ele>390.24</ele>
  <time>2026-09-01T20:01:03Z</time>
  <course>211.43</course>
  <speed>0.13601470508735444</speed>
  <fix>3d</fix>
</trkpt>
<trkpt lat="-27.2157608" lon="151.4418807">
  <ele>390.54</ele>
  <time>2026-09-01T20:01:03Z</time>
  <course>305.46</course>
  <speed>0.13</speed>
  <fix>3d</fix>
</trkpt>
<trkpt lat="-27.2157606" lon="151.4418802">
  <ele>390.09</ele>
  <time>2026-09-01T20:01:03Z</time>
  <course>211.41</course>
  <speed>0.13601470508735444</speed>
  <fix>3d</fix>
</trkpt>
<trkpt lat="-27.2157608" lon="151.4418807">
  <ele>390.54</ele>
  <time>2026-09-01T20:01:03Z</time>
  <course>305.46</course>
  <speed>0.13</speed>
  <fix>3d</fix>
</trkpt>
<trkpt lat="-27.2157605" lon="151.4418801">
  <ele>389.94</ele>
  <time>2026-09-01T20:01:03Z</time>
  <course>211.38</course>
  <speed>0.13601470508735444</speed>
  <fix>3d</fix>
</trkpt>
<trkpt lat="-27.2157606" lon="151.4418804">
  <ele>390.24</ele>
  <time>2026-09-01T20:01:03Z</time>
  <course>305.78</course>
  <speed>0.14</speed>
  <fix>3d</fix>
</trkpt>
<trkpt lat="-27.2157604" lon="151.4418801">
  <ele>389.79</ele>
  <time>2026-09-01T20:01:03Z</time>
  <course>211.36</course>
  <speed>0.13601470508735444</speed>
  <fix>3d</fix>
</trkpt>
<trkpt lat="-27.2157606" lon="151.4418804">
  <ele>390.24</ele>
  <time>2026-09-01T20:01:03Z</time>
  <course>305.78</course>
  <speed>0.14</speed>
  <fix>3d</fix>
</trkpt>
<trkpt lat="-27.2157604" lon="151.44188">
  <ele>389.64</ele>
  <time>2026-09-01T20:01:03Z</time>
  <course>211.33</course>
  <speed>0.13601470508735444</speed>
  <fix>3d</fix>
</trkpt>
<trkpt lat="-27.2157605" lon="151.4418801">
  <ele>389.94</ele>
  <time>2026-09-01T20:01:03Z</time>
  <course>305.89</course>
  <speed>0.14</speed>
  <fix>3d</fix>
</trkpt>
<trkpt lat="-27.2157603" lon="151.4418797">
  <ele>389.49</ele>
  <time>2026-09-01T20:01:03Z</time>
  <course>211.32</course>
  <speed>0.13601470508735444</speed>
  <fix>3d</fix>
</trkpt>
<trkpt lat="-27.2157605" lon="151.4418801">
  <ele>389.94</ele>
  <time>2026-09-01T20:01:03Z</time>
  <course>305.89</course>
  <speed>0.14</speed>
  <fix>3d</fix>
</trkpt>
<trkpt lat="-27.2157602" lon="151.4418796">
  <ele>389.34</ele>
  <time>2026-09-01T20:01:03Z</time>
  <course>211.32</course>
  <speed>0.13601470508735444</speed>
  <fix>3d</fix>
</trkpt>
<trkpt lat="-27.2157603" lon="151.4418799">
  <ele>389.64</ele>
  <time>2026-09-01T20:01:03Z</time>
  <course>306.1</course>
  <speed>0.14</speed>
  <fix>3d</fix>
</trkpt>
<trkpt lat="-27.2157601" lon="151.4418796">
  <ele>389.19</ele>
  <time>2026-09-01T20:01:03Z</time>
  <course>211.33</course>
  <speed>0.13601470508735444</speed>
  <fix>3d</fix>
</trkpt>
<trkpt lat="-27.2157603" lon="151.4418799">
  <ele>389.64</ele>
  <time>2026-09-01T20:01:03Z</time>
  <course>306.1</course>
  <speed>0.14</speed>
  <fix>3d</fix>
</trkpt>
<trkpt lat="-27.21576" lon="151.4418795">
  <ele>389.04</ele>
  <time>2026-09-01T20:01:03Z</time>
  <course>211.33</course>
  <speed>0.12806248474865697</speed>
  <fix>3d</fix>
</trkpt>
<trkpt lat="-27.2157602" lon="151.4418796">
  <ele>389.34</ele>
  <time>2026-09-01T20:01:03Z</time>
  <course>306.55</course>
  <speed>0.14</speed>
  <fix>3d</fix>
</trkpt>
<trkpt lat="-27.21576" lon="151.4418794">
  <ele>388.89</ele>
  <time>2026-09-01T20:01:03Z</time>
  <course>211.34</course>
  <speed>0.12206555615733702</speed>
  <fix>3d</fix>
</trkpt>
<trkpt lat="-27.2157602" lon="151.4418796">
  <ele>389.34</ele>
  <time>2026-09-01T20:01:03Z</time>
  <course>306.55</course>
  <speed>0.14</speed>
  <fix>3d</fix>
</trkpt>
<trkpt lat="-27.2157599" lon="151.4418792">
  <ele>388.74</ele>
  <time>2026-09-01T20:01:03Z</time>
  <course>211.35</course>
  <speed>0.12206555615733702</speed>
  <fix>3d</fix>
</trkpt>
<trkpt lat="-27.21576" lon="151.4418795">
  <ele>389.04</ele>
  <time>2026-09-01T20:01:03Z</time>
  <course>307.05</course>
  <speed>0.13</speed>
  <fix>3d</fix>
</trkpt>
<trkpt lat="-27.2157598" lon="151.4418792">
  <ele>388.59</ele>
  <time>2026-09-01T20:01:03Z</time>
  <course>211.36</course>
  <speed>0.11401754250991379</speed>
  <fix>3d</fix>
</trkpt>
<trkpt lat="-27.21576" lon="151.4418795">
  <ele>389.04</ele>
  <time>2026-09-01T20:01:03Z</time>
  <course>307.05</course>
  <speed>0.13</speed>
  <fix>3d</fix>
</trkpt>
<trkpt lat="-27.2157598" lon="151.4418791">
  <ele>388.44</ele>
  <time>2026-09-01T20:01:03Z</time>
  <course>211.37</course>
  <speed>0.11401754250991379</speed>
  <fix>3d</fix>
</trkpt>
<trkpt lat="-27.2157599" lon="151.4418792">
  <ele>388.74</ele>
  <time>2026-09-01T20:01:03Z</time>
  <course>307.35</course>
  <speed>0.12</speed>
  <fix>3d</fix>
</trkpt>
<trkpt lat="-27.2157597" lon="151.441879">
  <ele>388.29</ele>
  <time>2026-09-01T20:01:03Z</time>
  <course>211.38</course>
  <speed>0.1</speed>
  <fix>3d</fix>
</trkpt>
<trkpt lat="-27.2157599" lon="151.4418792">
  <ele>388.74</ele>
  <time>2026-09-01T20:01:03Z</time>
  <course>307.35</course>
  <speed>0.12</speed>
  <fix>3d</fix>
</trkpt>
<trkpt lat="-27.2157597" lon="151.4418789">
  <ele>388.13</ele>
  <time>2026-09-01T20:01:03Z</time>
  <course>211.38</course>
  <speed>0.1</speed>
  <fix>3d</fix>
</trkpt>
<trkpt lat="-27.2157597" lon="151.4418791">
  <ele>388.44</ele>
  <time>2026-09-01T20:01:03Z</time>
  <course>307.41</course>
  <speed>0.11</speed>
  <fix>3d</fix>
</trkpt>
<trkpt lat="-27.2157596" lon="151.4418787">
  <ele>387.98</ele>
  <time>2026-09-01T20:01:03Z</time>
  <course>211.39</course>
  <speed>0.08602325267042626</speed>
  <fix>3d</fix>
</trkpt>
<trkpt lat="-27.2157597" lon="151.4418791">
  <ele>388.44</ele>
  <time>2026-09-01T20:01:03Z</time>
  <course>307.41</course>
  <speed>0.11</speed>
  <fix>3d</fix>
</trkpt>
<trkpt lat="-27.2157596" lon="151.4418787">
  <ele>387.83</ele>
  <time>2026-09-01T20:01:03Z</time>
  <course>211.39</course>
  <speed>0.07810249675906654</speed>
  <fix>3d</fix>
</trkpt>
<trkpt lat="-27.2157596" lon="151.4418789">
  <ele>388.14</ele>
  <time>2026-09-01T20:01:03Z</time>
  <course>307.42</course>
  <speed>0.1</speed>
  <fix>3d</fix>
</trkpt>
<trkpt lat="-27.2157595" lon="151.4418787">
  <ele>387.68</ele>
  <time>2026-09-01T20:01:03Z</time>
  <course>211.39</course>
  <speed>0.06403124237432849</speed>
  <fix>3d</fix>
</trkpt>
<trkpt lat="-27.2157596" lon="151.4418789">
  <ele>388.14</ele>
  <time>2026-09-01T20:01:03Z</time>
  <course>307.42</course>
  <speed>0.1</speed>
  <fix>3d</fix>
</trkpt>
<trkpt lat="-27.2157595" lon="151.4418787">
  <ele>387.53</ele>
  <time>2026-09-01T20:01:03Z</time>
  <course>211.4</course>
  <speed>0.06403124237432849</speed>
  <fix>3d</fix>
</trkpt>
<trkpt lat="-27.2157595" lon="151.4418787">
  <ele>387.84</ele>
  <time>2026-09-01T20:01:03Z</time>
  <course>307.96</course>
  <speed>0.08</speed>
  <fix>3d</fix>
</trkpt>
<trkpt lat="-27.2157594" lon="151.4418786">
  <ele>387.39</ele>
  <time>2026-09-01T20:01:03Z</time>
  <course>211.41</course>
  <speed>0.05</speed>
  <fix>3d</fix>
</trkpt>
<trkpt lat="-27.2157595" lon="151.4418787">
  <ele>387.84</ele>
  <time>2026-09-01T20:01:03Z</time>
  <course>307.96</course>
  <speed>0.08</speed>
  <fix>3d</fix>
</trkpt>
<trkpt lat="-27.2157594" lon="151.4418786">
  <ele>387.24</ele>
  <time>2026-09-01T20:01:03Z</time>
  <course>211.42</course>
  <speed>0.04242640687119285</speed>
  <fix>3d</fix>
</trkpt>
<trkpt lat="-27.2157594" lon="151.4418786">
  <ele>387.54</ele>
  <time>2026-09-01T20:01:03Z</time>
  <course>309.61</course>
  <speed>0.06</speed>
  <fix>3d</fix>
</trkpt>
<trkpt lat="-27.2157594" lon="151.4418785">
  <ele>387.09</ele>
  <time>2026-09-01T20:01:03Z</time>
  <course>211.45</course>
  <speed>0.0282842712474619</speed>
  <fix>3d</fix>
</trkpt>
<trkpt lat="-27.2157594" lon="151.4418786">
  <ele>387.54</ele>
  <time>2026-09-01T20:01:03Z</time>
  <course>309.61</course>
  <speed>0.06</speed>
  <fix>3d</fix>
</trkpt>
<trkpt lat="-27.2157594" lon="151.4418785">
  <ele>386.94</ele>
  <time>2026-09-01T20:01:03Z</time>
  <course>211.48</course>
  <speed>0.01414213562373095</speed>
  <fix>3d</fix>
</trkpt>
<trkpt lat="-27.2157594" lon="151.4418785">
  <ele>387.24</ele>
  <time>2026-09-01T20:01:03Z</time>
  <course>312.47</course>
  <speed>0.04</speed>
  <fix>3d</fix>
</trkpt>
<trkpt lat="-27.2157593" lon="151.4418785">
  <ele>386.79</ele>
  <time>2026-09-01T20:01:03Z</time>
  <course>211.53</course>
  <speed>0.01</speed>
  <fix>3d</fix>
</trkpt>
<trkpt lat="-27.2157594" lon="151.4418785">
  <ele>387.24</ele>
  <time>2026-09-01T20:01:03Z</time>
  <course>312.47</course>
  <speed>0.04</speed>
  <fix>3d</fix>
</trkpt>
<trkpt lat="-27.2157593" lon="151.4418785">
  <ele>386.64</ele>
  <time>2026-09-01T20:01:03Z</time>
  <course>211.6</course>
  <speed>0.0</speed>
  <fix>3d</fix>
</trkpt>
<trkpt lat="-27.2157593" lon="151.4418785">
  <ele>386.94</ele>
  <time>2026-09-01T20:01:03Z</time>
  <course>319.5</course>
  <speed>0.02</speed>
  <fix>3d</fix>
</trkpt>
<trkpt lat="-27.2157593" lon="151.4418785">
  <ele>386.49</ele>
  <time>2026-09-01T20:01:03Z</time>
  <course>211.71</course>
  <speed>0.01</speed>
  <fix>3d</fix>
</trkpt>
<trkpt lat="-27.2157593" lon="151.4418785">
  <ele>386.94</ele>
  <time>2026-09-01T20:01:03Z</time>
  <course>319.5</course>
  <speed>0.02</speed>
  <fix>3d</fix>
</trkpt>
<trkpt lat="-27.2157593" lon="151.4418785">
  <ele>386.34</ele>
  <time>2026-09-01T20:01:03Z</time>
  <course>211.85</course>
  <speed>0.02</speed>
  <fix>3d</fix>
</trkpt>
<trkpt lat="-27.2157593" lon="151.4418785">
  <ele>386.64</ele>
  <time>2026-09-01T20:01:03Z</time>
  <course>41.28</course>
  <speed>0.0</speed>
  <fix>3d</fix>
</trkpt>
<trkpt lat="-27.2157593" lon="151.4418786">
  <ele>386.19</ele>
  <time>2026-09-01T20:01:03Z</time>
  <course>211.8</course>
  <speed>0.02</speed>
  <fix>3d</fix>
</trkpt>
<trkpt lat="-27.2157593" lon="151.4418785">
  <ele>386.64</ele>
  <time>2026-09-01T20:01:03Z</time>
  <course>41.28</course>
  <speed>0.0</speed>
  <fix>3d</fix>
</trkpt>
<trkpt lat="-27.2157594" lon="151.4418786">
  <ele>386.04</ele>
  <time>2026-09-01T20:01:03Z</time>
  <course>211.61</course>
  <speed>0.022360679774997897</speed>
  <fix>3d</fix>
</trkpt>
<trkpt lat="-27.2157593" lon="151.4418785">
  <ele>386.34</ele>
  <time>2026-09-01T20:01:03Z</time>
  <course>107.49</course>
  <speed>0.02</speed>
  <fix>3d</fix>
</trkpt>
<trkpt lat="-27.2157594" lon="151.4418786">
  <ele>385.89</ele>
  <time>2026-09-01T20:01:03Z</time>
  <course>211.34</course>
  <speed>0.022360679774997897</speed>
  <fix>3d</fix>
</trkpt>
<trkpt lat="-27.2157593" lon="151.4418785">
  <ele>386.34</ele>
  <time>2026-09-01T20:01:03Z</time>
  <course>107.49</course>
  <speed>0.02</speed>
  <fix>3d</fix>
</trkpt>
<trkpt lat="-27.2157594" lon="151.4418786">
  <ele>385.74</ele>
  <time>2026-09-01T20:01:03Z</time>
  <course>211.05</course>
  <speed>0.022360679774997897</speed>
  <fix>3d</fix>
</trkpt>
<trkpt lat="-27.2157593" lon="151.4418786">
  <ele>386.04</ele>
  <time>2026-09-01T20:01:03Z</time>
  <course>113.93</course>
  <speed>0.02</speed>
  <fix>3d</fix>
</trkpt>
<trkpt lat="-27.2157594" lon="151.4418786">
  <ele>385.59</ele>
  <time>2026-09-01T20:01:03Z</time>
  <course>210.79</course>
  <speed>0.022360679774997897</speed>
  <fix>3d</fix>
</trkpt>
<trkpt lat="-27.2157593" lon="151.4418786">
  <ele>386.04</ele>
  <time>2026-09-01T20:01:03Z</time>
  <course>113.93</course>
  <speed>0.02</speed>
  <fix>3d</fix>
</trkpt>
<trkpt lat="-27.2157594" lon="151.4418786">
  <ele>385.44</ele>
  <time>2026-09-01T20:01:03Z</time>
  <course>210.58</course>
  <speed>0.022360679774997897</speed>
  <fix>3d</fix>
</trkpt>
<trkpt lat="-27.2157594" lon="151.4418786">
  <ele>385.74</ele>
  <time>2026-09-01T20:01:03Z</time>
  <course>116.34</course>
  <speed>0.02</speed>
  <fix>3d</fix>
</trkpt>
<trkpt lat="-27.2157594" lon="151.4418786">
  <ele>385.29</ele>
  <time>2026-09-01T20:01:03Z</time>
  <course>210.44</course>
  <speed>0.022360679774997897</speed>
  <fix>3d</fix>
</trkpt>
<trkpt lat="-27.2157594" lon="151.4418786">
  <ele>385.74</ele>
  <time>2026-09-01T20:01:03Z</time>
  <course>116.34</course>
  <speed>0.02</speed>
  <fix>3d</fix>
</trkpt>
<trkpt lat="-27.2157594" lon="151.4418786">
  <ele>385.14</ele>
  <time>2026-09-01T20:01:03Z</time>
  <course>210.37</course>
  <speed>0.02</speed>
  <fix>3d</fix>
</trkpt>
<trkpt lat="-27.2157594" lon="151.4418786">
  <ele>385.44</ele>
  <time>2026-09-01T20:01:03Z</time>
  <course>116.56</course>
  <speed>0.02</speed>
  <fix>3d</fix>
</trkpt>
<trkpt lat="-27.2157594" lon="151.4418786">
  <ele>384.98</ele>
  <time>2026-09-01T20:01:03Z</time>
  <course>210.34</course>
  <speed>0.02</speed>
  <fix>3d</fix>
</trkpt>
<trkpt lat="-27.2157594" lon="151.4418786">
  <ele>385.44</ele>
  <time>2026-09-01T20:01:03Z</time>
  <course>116.56</course>
  <speed>0.02</speed>
  <fix>3d</fix>
</trkpt>
<trkpt lat="-27.2157594" lon="151.4418787">
  <ele>384.83</ele>
  <time>2026-09-01T20:01:03Z</time>
  <course>210.36</course>
  <speed>0.01</speed>
  <fix>3d</fix>
</trkpt>
<trkpt lat="-27.2157594" lon="151.4418786">
  <ele>385.14</ele>
  <time>2026-09-01T20:01:03Z</time>
  <course>115.55</course>
  <speed>0.02</speed>
  <fix>3d</fix>
</trkpt>
<trkpt lat="-27.2157594" lon="151.4418787">
  <ele>384.68</ele>
  <time>2026-09-01T20:01:03Z</time>
  <course>210.38</course>
  <speed>0.02</speed>
  <fix>3d</fix>
</trkpt>
<trkpt lat="-27.2157594" lon="151.4418786">
  <ele>385.14</ele>
  <time>2026-09-01T20:01:03Z</time>
  <course>115.55</course>
  <speed>0.02</speed>
  <fix>3d</fix>
</trkpt>
<trkpt lat="-27.2157594" lon="151.4418787">
  <ele>384.53</ele>
  <time>2026-09-01T20:01:03Z</time>
  <course>210.43</course>
  <speed>0.02</speed>
  <fix>3d</fix>
</trkpt>
<trkpt lat="-27.2157594" lon="151.4418786">
  <ele>384.84</ele>
  <time>2026-09-01T20:01:03Z</time>
  <course>114.15</course>
  <speed>0.02</speed>
  <fix>3d</fix>
</trkpt>
<trkpt lat="-27.2157594" lon="151.4418787">
  <ele>384.38</ele>
  <time>2026-09-01T20:01:03Z</time>
  <course>210.48</course>
  <speed>0.01</speed>
  <fix>3d</fix>
</trkpt>
<trkpt lat="-27.2157594" lon="151.4418786">
  <ele>384.84</ele>
  <time>2026-09-01T20:01:03Z</time>
  <course>114.15</course>
  <speed>0.02</speed>
  <fix>3d</fix>
</trkpt>
<trkpt lat="-27.2157594" lon="151.4418787">
  <ele>384.24</ele>
  <time>2026-09-01T20:01:03Z</time>
  <course>210.52</course>
  <speed>0.01</speed>
  <fix>3d</fix>
</trkpt>
<trkpt lat="-27.2157594" lon="151.4418787">
  <ele>384.54</ele>
  <time>2026-09-01T20:01:03Z</time>
  <course>113.5</course>
  <speed>0.02</speed>
  <fix>3d</fix>
</trkpt>
<trkpt lat="-27.2157594" lon="151.4418787">
  <ele>384.09</ele>
  <time>2026-09-01T20:01:03Z</time>
  <course>210.54</course>
  <speed>0.01</speed>
  <fix>3d</fix>
</trkpt>
<trkpt lat="-27.2157594" lon="151.4418787">
  <ele>384.54</ele>
  <time>2026-09-01T20:01:04Z</time>
  <course>113.5</course>
  <speed>0.02</speed>
  <fix>3d</fix>
</trkpt>
<trkpt lat="-27.2157594" lon="151.4418787">
  <ele>383.94</ele>
  <time>2026-09-01T20:01:04Z</time>
  <course>210.56</course>
  <speed>0.01</speed>
  <fix>3d</fix>
</trkpt>
<trkpt lat="-27.2157594" lon="151.4418787">
  <ele>384.24</ele>
  <time>2026-09-01T20:01:04Z</time>
  <course>114.26</course>
  <speed>0.02</speed>
  <fix>3d</fix>
</trkpt>
<trkpt lat="-27.2157594" lon="151.4418787">
  <ele>383.79</ele>
  <time>2026-09-01T20:01:04Z</time>
  <course>210.57</course>
  <speed>0.01</speed>
  <fix>3d</fix>
</trkpt>
<trkpt lat="-27.2157594" lon="151.4418787">
  <ele>384.24</ele>
  <time>2026-09-01T20:01:04Z</time>
  <course>114.26</course>
  <speed>0.02</speed>
  <fix>3d</fix>
</trkpt>
<trkpt lat="-27.2157594" lon="151.4418787">
  <ele>383.64</ele>
  <time>2026-09-01T20:01:04Z</time>
  <course>210.56</course>
  <speed>0.01</speed>
  <fix>3d</fix>
</trkpt>
<trkpt lat="-27.2157594" lon="151.4418787">
  <ele>383.94</ele>
  <time>2026-09-01T20:01:04Z</time>
  <course>115.92</course>
  <speed>0.02</speed>
  <fix>3d</fix>
</trkpt>
<trkpt lat="-27.2157594" lon="151.4418787">
  <ele>383.49</ele>
  <time>2026-09-01T20:01:04Z</time>
  <course>210.56</course>
  <speed>0.01</speed>
  <fix>3d</fix>
</trkpt>
<trkpt lat="-27.2157594" lon="151.4418787">
  <ele>383.94</ele>
  <time>2026-09-01T20:01:04Z</time>
  <course>115.92</course>
  <speed>0.02</speed>
  <fix>3d</fix>
</trkpt>
<trkpt lat="-27.2157594" lon="151.4418787">
  <ele>383.34</ele>
  <time>2026-09-01T20:01:04Z</time>
  <course>210.55</course>
  <speed>0.01</speed>
  <fix>3d</fix>
</trkpt>
<trkpt lat="-27.2157594" lon="151.4418787">
  <ele>383.64</ele>
  <time>2026-09-01T20:01:04Z</time>
  <course>117.46</course>
  <speed>0.02</speed>
  <fix>3d</fix>
</trkpt>
<trkpt lat="-27.2157594" lon="151.4418789">
  <ele>383.19</ele>
  <time>2026-09-01T20:01:04Z</time>
  <course>210.52</course>
  <speed>0.01</speed>
  <fix>3d</fix>
</trkpt>
<trkpt lat="-27.2157594" lon="151.4418787">
  <ele>383.64</ele>
  <time>2026-09-01T20:01:04Z</time>
  <course>117.46</course>
  <speed>0.02</speed>
  <fix>3d</fix>
</trkpt>
<trkpt lat="-27.2157594" lon="151.4418789">
  <ele>383.04</ele>
  <time>2026-09-01T20:01:04Z</time>
  <course>210.49</course>
  <speed>0.01</speed>
  <fix>3d</fix>
</trkpt>
<trkpt lat="-27.2157594" lon="151.4418788">
  <ele>383.34</ele>
  <time>2026-09-01T20:01:04Z</time>
  <course>118.44</course>
  <speed>0.01</speed>
  <fix>3d</fix>
</trkpt>
<trkpt lat="-27.2157594" lon="151.4418789">
  <ele>382.89</ele>
  <time>2026-09-01T20:01:04Z</time>
  <course>210.48</course>
  <speed>0.01414213562373095</speed>
  <fix>3d</fix>
</trkpt>
<trkpt lat="-27.2157594" lon="151.4418788">
  <ele>383.34</ele>
  <time>2026-09-01T20:01:04Z</time>
  <course>118.44</course>
  <speed>0.01</speed>
  <fix>3d</fix>
</trkpt>
<trkpt lat="-27.2157594" lon="151.4418789">
  <ele>382.74</ele>
  <time>2026-09-01T20:01:04Z</time>
  <course>210.47</course>
  <speed>0.01414213562373095</speed>
  <fix>3d</fix>
</trkpt>
<trkpt lat="-27.2157594" lon="151.4418789">
  <ele>383.04</ele>
  <time>2026-09-01T20:01:04Z</time>
  <course>120.51</course>
  <speed>0.01</speed>
  <fix>3d</fix>
</trkpt>
<trkpt lat="-27.2157595" lon="151.4418789">
  <ele>382.59</ele>
  <time>2026-09-01T20:01:04Z</time>
  <course>210.48</course>
  <speed>0.01414213562373095</speed>
  <fix>3d</fix>
</trkpt>
<trkpt lat="-27.2157594" lon="151.4418789">
  <ele>383.04</ele>
  <time>2026-09-01T20:01:04Z</time>
  <course>120.51</course>
  <speed>0.01</speed>
  <fix>3d</fix>
</trkpt>
<trkpt lat="-27.2157595" lon="151.4418789">
  <ele>382.44</ele>
  <time>2026-09-01T20:01:04Z</time>
  <course>210.48</course>
  <speed>0.01414213562373095</speed>
  <fix>3d</fix>
</trkpt>
<trkpt lat="-27.2157594" lon="151.4418789">
  <ele>382.74</ele>
  <time>2026-09-01T20:01:04Z</time>
  <course>124.61</course>
  <speed>0.01</speed>
  <fix>3d</fix>
</trkpt>
<trkpt lat="-27.2157595" lon="151.441879">
  <ele>382.29</ele>
  <time>2026-09-01T20:01:04Z</time>
  <course>210.49</course>
  <speed>0.01414213562373095</speed>
  <fix>3d</fix>
</trkpt>
<trkpt lat="-27.2157594" lon="151.4418789">
  <ele>382.74</ele>
  <time>2026-09-01T20:01:04Z</time>
  <course>124.61</course>
  <speed>0.01</speed>
  <fix>3d</fix>
</trkpt>
<trkpt lat="-27.2157595" lon="151.441879">
  <ele>382.14</ele>
  <time>2026-09-01T20:01:04Z</time>
  <course>210.5</course>
  <speed>0.01414213562373095</speed>
  <fix>3d</fix>
</trkpt>
<trkpt lat="-27.2157595" lon="151.4418789">
  <ele>382.44</ele>
  <time>2026-09-01T20:01:04Z</time>
  <course>128.76</course>
  <speed>0.01</speed>
  <fix>3d</fix>
</trkpt>
<trkpt lat="-27.2157595" lon="151.441879">
  <ele>381.99</ele>
  <time>2026-09-01T20:01:04Z</time>
  <course>210.51</course>
  <speed>0.01414213562373095</speed>
  <fix>3d</fix>
</trkpt>
<trkpt lat="-27.2157595" lon="151.4418789">
  <ele>382.44</ele>
  <time>2026-09-01T20:01:04Z</time>
  <course>128.76</course>
  <speed>0.01</speed>
  <fix>3d</fix>
</trkpt>
<trkpt lat="-27.2157595" lon="151.441879">
  <ele>381.84</ele>
  <time>2026-09-01T20:01:04Z</time>
  <course>210.52</course>
  <speed>0.01414213562373095</speed>
  <fix>3d</fix>
</trkpt>
<trkpt lat="-27.2157595" lon="151.441879">
  <ele>382.14</ele>
  <time>2026-09-01T20:01:04Z</time>
  <course>131.39</course>
  <speed>0.01</speed>
  <fix>3d</fix>
</trkpt>
<trkpt lat="-27.2157595" lon="151.441879">
  <ele>381.68</ele>
  <time>2026-09-01T20:01:04Z</time>
  <course>210.52</course>
  <speed>0.01414213562373095</speed>
  <fix>3d</fix>
</trkpt>
<trkpt lat="-27.2157595" lon="151.441879">
  <ele>381.84</ele>
  <time>2026-09-01T20:01:04Z</time>
  <course>133.76</course>
  <speed>0.01</speed>
  <fix>3d</fix>
</trkpt>
<trkpt lat="-27.2157595" lon="151.441879">
  <ele>381.53</ele>
  <time>2026-09-01T20:01:04Z</time>
  <course>210.52</course>
  <speed>0.01414213562373095</speed>
  <fix>3d</fix>
</trkpt>
<trkpt lat="-27.2157595" lon="151.441879">
  <ele>381.84</ele>
  <time>2026-09-01T20:01:04Z</time>
  <course>133.76</course>
  <speed>0.01</speed>
  <fix>3d</fix>
</trkpt>
<trkpt lat="-27.2157596" lon="151.441879">
  <ele>381.38</ele>
  <time>2026-09-01T20:01:04Z</time>
  <course>210.52</course>
  <speed>0.01414213562373095</speed>
  <fix>3d</fix>
</trkpt>
<trkpt lat="-27.2157595" lon="151.441879">
  <ele>381.54</ele>
  <time>2026-09-01T20:01:04Z</time>
  <course>136.22</course>
  <speed>0.01</speed>
  <fix>3d</fix>
</trkpt>
<trkpt lat="-27.2157596" lon="151.4418791">
  <ele>381.23</ele>
  <time>2026-09-01T20:01:04Z</time>
  <course>210.52</course>
  <speed>0.01414213562373095</speed>
  <fix>3d</fix>
</trkpt>
<trkpt lat="-27.2157595" lon="151.441879">
  <ele>381.54</ele>
  <time>2026-09-01T20:01:04Z</time>
  <course>136.22</course>
  <speed>0.01</speed>
  <fix>3d</fix>
</trkpt>
<trkpt lat="-27.2157596" lon="151.4418791">
  <ele>381.08</ele>
  <time>2026-09-01T20:01:04Z</time>
  <course>210.52</course>
  <speed>0.01414213562373095</speed>
  <fix>3d</fix>
</trkpt>
<trkpt lat="-27.2157595" lon="151.441879">
  <ele>381.24</ele>
  <time>2026-09-01T20:01:04Z</time>
  <course>137.1</course>
  <speed>0.01</speed>
  <fix>3d</fix>
</trkpt>
<trkpt lat="-27.2157596" lon="151.4418791">
  <ele>380.93</ele>
  <time>2026-09-01T20:01:04Z</time>
  <course>210.54</course>
  <speed>0.01414213562373095</speed>
  <fix>3d</fix>
</trkpt>
<trkpt lat="-27.2157595" lon="151.441879">
  <ele>381.24</ele>
  <time>2026-09-01T20:01:04Z</time>
  <course>137.1</course>
  <speed>0.01</speed>
  <fix>3d</fix>
</trkpt>
<trkpt lat="-27.2157596" lon="151.4418791">
  <ele>380.79</ele>
  <time>2026-09-01T20:01:04Z</time>
  <course>210.55</course>
  <speed>0.01414213562373095</speed>
  <fix>3d</fix>
</trkpt>
<trkpt lat="-27.2157595" lon="151.441879">
  <ele>381.24</ele>
  <time>2026-09-01T20:01:04Z</time>
  <course>137.1</course>
  <speed>0.01</speed>
  <fix>3d</fix>
</trkpt>
<trkpt lat="-27.2157596" lon="151.4418791">
  <ele>380.64</ele>
  <time>2026-09-01T20:01:04Z</time>
  <course>210.56</course>
  <speed>0.01414213562373095</speed>
  <fix>3d</fix>
</trkpt>
<trkpt lat="-27.2157596" lon="151.4418791">
  <ele>380.94</ele>
  <time>2026-09-01T20:01:04Z</time>
  <course>136.76</course>
  <speed>0.01</speed>
  <fix>3d</fix>
</trkpt>
<trkpt lat="-27.2157596" lon="151.4418791">
  <ele>380.49</ele>
  <time>2026-09-01T20:01:04Z</time>
  <course>210.57</course>
  <speed>0.01414213562373095</speed>
  <fix>3d</fix>
</trkpt>
<trkpt lat="-27.2157596" lon="151.4418791">
  <ele>380.94</ele>
  <time>2026-09-01T20:01:04Z</time>
  <course>136.76</course>
  <speed>0.01</speed>
  <fix>3d</fix>
</trkpt>
<trkpt lat="-27.2157596" lon="151.4418791">
  <ele>380.34</ele>
  <time>2026-09-01T20:01:04Z</time>
  <course>210.57</course>
  <speed>0.01414213562373095</speed>
  <fix>3d</fix>
</trkpt>
<trkpt lat="-27.2157596" lon="151.4418791">
  <ele>380.64</ele>
  <time>2026-09-01T20:01:04Z</time>
  <course>136.97</course>
  <speed>0.01</speed>
  <fix>3d</fix>
</trkpt>
<trkpt lat="-27.2157597" lon="151.4418792">
  <ele>380.19</ele>
  <time>2026-09-01T20:01:04Z</time>
  <course>210.57</course>
  <speed>0.01414213562373095</speed>
  <fix>3d</fix>
</trkpt>
<trkpt lat="-27.2157596" lon="151.4418791">
  <ele>380.64</ele>
  <time>2026-09-01T20:01:04Z</time>
  <course>136.97</course>
  <speed>0.01</speed>
  <fix>3d</fix>
</trkpt>
<trkpt lat="-27.2157597" lon="151.4418792">
  <ele>380.04</ele>
  <time>2026-09-01T20:01:04Z</time>
  <course>210.58</course>
  <speed>0.01414213562373095</speed>
  <fix>3d</fix>
</trkpt>
<trkpt lat="-27.2157596" lon="151.4418791">
  <ele>380.34</ele>
  <time>2026-09-01T20:01:04Z</time>
  <course>137.82</course>
  <speed>0.01</speed>
  <fix>3d</fix>
</trkpt>
<trkpt lat="-27.2157597" lon="151.4418792">
  <ele>379.89</ele>
  <time>2026-09-01T20:01:04Z</time>
  <course>210.59</course>
  <speed>0.01414213562373095</speed>
  <fix>3d</fix>
</trkpt>
<trkpt lat="-27.2157596" lon="151.4418791">
  <ele>380.34</ele>
  <time>2026-09-01T20:01:04Z</time>
  <course>137.82</course>
  <speed>0.01</speed>
  <fix>3d</fix>
</trkpt>
<trkpt lat="-27.2157597" lon="151.4418792">
  <ele>379.74</ele>
  <time>2026-09-01T20:01:04Z</time>
  <course>210.61</course>
  <speed>0.01414213562373095</speed>
  <fix>3d</fix>
</trkpt>
<trkpt lat="-27.2157597" lon="151.4418792">
  <ele>380.04</ele>
  <time>2026-09-01T20:01:04Z</time>
  <course>137.46</course>
  <speed>0.01</speed>
  <fix>3d</fix>
</trkpt>
<trkpt lat="-27.2157597" lon="151.4418792">
  <ele>379.59</ele>
  <time>2026-09-01T20:01:04Z</time>
  <course>210.62</course>
  <speed>0.01414213562373095</speed>
  <fix>3d</fix>
</trkpt>
<trkpt lat="-27.2157597" lon="151.4418792">
  <ele>380.04</ele>
  <time>2026-09-01T20:01:04Z</time>
  <course>137.46</course>
  <speed>0.01</speed>
  <fix>3d</fix>
</trkpt>
<trkpt lat="-27.2157597" lon="151.4418792">
  <ele>379.44</ele>
  <time>2026-09-01T20:01:04Z</time>
  <course>210.62</course>
  <speed>0.01414213562373095</speed>
  <fix>3d</fix>
</trkpt>
<trkpt lat="-27.2157597" lon="151.4418792">
  <ele>379.74</ele>
  <time>2026-09-01T20:01:04Z</time>
  <course>136.58</course>
  <speed>0.02</speed>
  <fix>3d</fix>
</trkpt>
<trkpt lat="-27.2157597" lon="151.4418792">
  <ele>379.29</ele>
  <time>2026-09-01T20:01:04Z</time>
  <course>210.63</course>
  <speed>0.01414213562373095</speed>
  <fix>3d</fix>
</trkpt>
<trkpt lat="-27.2157597" lon="151.4418792">
  <ele>379.74</ele>
  <time>2026-09-01T20:01:04Z</time>
  <course>136.58</course>
  <speed>0.02</speed>
  <fix>3d</fix>
</trkpt>
<trkpt lat="-27.2157597" lon="151.4418792">
  <ele>379.14</ele>
  <time>2026-09-01T20:01:04Z</time>
  <course>210.62</course>
  <speed>0.01414213562373095</speed>
  <fix>3d</fix>
</trkpt>
<trkpt lat="-27.2157597" lon="151.4418792">
  <ele>379.44</ele>
  <time>2026-09-01T20:01:04Z</time>
  <course>136.46</course>
  <speed>0.01</speed>
  <fix>3d</fix>
</trkpt>
<trkpt lat="-27.2157598" lon="151.4418792">
  <ele>378.99</ele>
  <time>2026-09-01T20:01:04Z</time>
  <course>210.62</course>
  <speed>0.01414213562373095</speed>
  <fix>3d</fix>
</trkpt>
<trkpt lat="-27.2157597" lon="151.4418792">
  <ele>379.44</ele>
  <time>2026-09-01T20:01:04Z</time>
  <course>136.46</course>
  <speed>0.01</speed>
  <fix>3d</fix>
</trkpt>
<trkpt lat="-27.2157598" lon="151.4418792">
  <ele>378.84</ele>
  <time>2026-09-01T20:01:04Z</time>
  <course>210.62</course>
  <speed>0.01414213562373095</speed>
  <fix>3d</fix>
</trkpt>
<trkpt lat="-27.2157597" lon="151.4418792">
  <ele>379.14</ele>
  <time>2026-09-01T20:01:04Z</time>
  <course>136.46</course>
  <speed>0.01</speed>
  <fix>3d</fix>
</trkpt>
<trkpt lat="-27.2157598" lon="151.4418792">
  <ele>378.69</ele>
  <time>2026-09-01T20:01:04Z</time>
  <course>210.63</course>
  <speed>0.01414213562373095</speed>
  <fix>3d</fix>
</trkpt>
<trkpt lat="-27.2157597" lon="151.4418792">
  <ele>379.14</ele>
  <time>2026-09-01T20:01:04Z</time>
  <course>136.46</course>
  <speed>0.01</speed>
  <fix>3d</fix>
</trkpt>
<trkpt lat="-27.2157598" lon="151.4418792">
  <ele>378.53</ele>
  <time>2026-09-01T20:01:04Z</time>
  <course>210.64</course>
  <speed>0.01414213562373095</speed>
  <fix>3d</fix>
</trkpt>
<trkpt lat="-27.2157598" lon="151.4418792">
  <ele>378.84</ele>
  <time>2026-09-01T20:01:04Z</time>
  <course>135.28</course>
  <speed>0.01</speed>
  <fix>3d</fix>
</trkpt>
<trkpt lat="-27.2157598" lon="151.4418792">
  <ele>378.38</ele>
  <time>2026-09-01T20:01:04Z</time>
  <course>210.65</course>
  <speed>0.01414213562373095</speed>
  <fix>3d</fix>
</trkpt>
<trkpt lat="-27.2157598" lon="151.4418792">
  <ele>378.54</ele>
  <time>2026-09-01T20:01:04Z</time>
  <course>132.7</course>
  <speed>0.01</speed>
  <fix>3d</fix>
</trkpt>
<trkpt lat="-27.2157598" lon="151.4418792">
  <ele>378.23</ele>
  <time>2026-09-01T20:01:04Z</time>
  <course>210.65</course>
  <speed>0.01414213562373095</speed>
  <fix>3d</fix>
</trkpt>
<trkpt lat="-27.2157598" lon="151.4418792">
  <ele>378.54</ele>
  <time>2026-09-01T20:01:04Z</time>
  <course>132.7</course>
  <speed>0.01</speed>
  <fix>3d</fix>
</trkpt>
<trkpt lat="-27.2157598" lon="151.4418794">
  <ele>378.08</ele>
  <time>2026-09-01T20:01:04Z</time>
  <course>210.65</course>
  <speed>0.01414213562373095</speed>
  <fix>3d</fix>
</trkpt>
<trkpt lat="-27.2157598" lon="151.4418792">
  <ele>378.24</ele>
  <time>2026-09-01T20:01:04Z</time>
  <course>130.07</course>
  <speed>0.01</speed>
  <fix>3d</fix>
</trkpt>
<trkpt lat="-27.2157598" lon="151.4418794">
  <ele>377.93</ele>
  <time>2026-09-01T20:01:04Z</time>
  <course>210.65</course>
  <speed>0.01414213562373095</speed>
  <fix>3d</fix>
</trkpt>
<trkpt lat="-27.2157598" lon="151.4418792">
  <ele>378.24</ele>
  <time>2026-09-01T20:01:04Z</time>
  <course>130.07</course>
  <speed>0.01</speed>
  <fix>3d</fix>
</trkpt>
<trkpt lat="-27.2157599" lon="151.4418794">
  <ele>377.78</ele>
  <time>2026-09-01T20:01:04Z</time>
  <course>210.67</course>
  <speed>0.01414213562373095</speed>
  <fix>3d</fix>
</trkpt>
<trkpt lat="-27.2157598" lon="151.4418793">
  <ele>377.94</ele>
  <time>2026-09-01T20:01:04Z</time>
  <course>127.83</course>
  <speed>0.01</speed>
  <fix>3d</fix>
</trkpt>
<trkpt lat="-27.2157599" lon="151.4418794">
  <ele>377.63</ele>
  <time>2026-09-01T20:01:04Z</time>
  <course>210.69</course>
  <speed>0.01414213562373095</speed>
  <fix>3d</fix>
</trkpt>
<trkpt lat="-27.2157598" lon="151.4418793">
  <ele>377.94</ele>
  <time>2026-09-01T20:01:04Z</time>
  <course>127.83</course>
  <speed>0.01</speed>
  <fix>3d</fix>
</trkpt>
<trkpt lat="-27.2157599" lon="151.4418794">
  <ele>377.48</ele>
  <time>2026-09-01T20:01:04Z</time>
  <course>210.71</course>
  <speed>0.01414213562373095</speed>
  <fix>3d</fix>
</trkpt>
<trkpt lat="-27.2157598" lon="151.4418794">
  <ele>377.64</ele>
  <time>2026-09-01T20:01:04Z</time>
  <course>126.79</course>
  <speed>0.02</speed>
  <fix>3d</fix>
</trkpt>
<trkpt lat="-27.2157599" lon="151.4418794">
  <ele>377.33</ele>
  <time>2026-09-01T20:01:04Z</time>
  <course>210.72</course>
  <speed>0.01414213562373095</speed>
  <fix>3d</fix>
</trkpt>
<trkpt lat="-27.2157598" lon="151.4418794">
  <ele>377.64</ele>
  <time>2026-09-01T20:01:04Z</time>
  <course>126.79</course>
  <speed>0.02</speed>
  <fix>3d</fix>
</trkpt>
<trkpt lat="-27.2157599" lon="151.4418794">
  <ele>377.18</ele>
  <time>2026-09-01T20:01:04Z</time>
  <course>210.73</course>
  <speed>0.01414213562373095</speed>
  <fix>3d</fix>
</trkpt>
<trkpt lat="-27.2157599" lon="151.4418794">
  <ele>377.34</ele>
  <time>2026-09-01T20:01:04Z</time>
  <course>126.87</course>
  <speed>0.01</speed>
  <fix>3d</fix>
</trkpt>
<trkpt lat="-27.2157599" lon="151.4418795">
  <ele>377.03</ele>
  <time>2026-09-01T20:01:04Z</time>
  <course>210.73</course>
  <speed>0.01414213562373095</speed>
  <fix>3d</fix>
</trkpt>
<trkpt lat="-27.2157599" lon="151.4418794">
  <ele>377.34</ele>
  <time>2026-09-01T20:01:04Z</time>
  <course>126.87</course>
  <speed>0.01</speed>
  <fix>3d</fix>
</trkpt>
<trkpt lat="-27.2157599" lon="151.4418795">
  <ele>376.88</ele>
  <time>2026-09-01T20:01:04Z</time>
  <course>210.74</course>
  <speed>0.01414213562373095</speed>
  <fix>3d</fix>
</trkpt>
<trkpt lat="-27.2157599" lon="151.4418794">
  <ele>377.04</ele>
  <time>2026-09-01T20:01:04Z</time>
  <course>127.15</course>
  <speed>0.01</speed>
  <fix>3d</fix>
</trkpt>
<trkpt lat="-27.2157599" lon="151.4418795">
  <ele>376.74</ele>
  <time>2026-09-01T20:01:04Z</time>
  <course>210.75</course>
  <speed>0.01414213562373095</speed>
  <fix>3d</fix>
</trkpt>
<trkpt lat="-27.2157599" lon="151.4418794">
  <ele>377.04</ele>
  <time>2026-09-01T20:01:04Z</time>
  <course>127.15</course>
  <speed>0.01</speed>
  <fix>3d</fix>
</trkpt>
<trkpt lat="-27.2157599" lon="151.4418795">
  <ele>376.59</ele>
  <time>2026-09-01T20:01:04Z</time>
  <course>210.76</course>
  <speed>0.01414213562373095</speed>
  <fix>3d</fix>
</trkpt>
<trkpt lat="-27.2157599" lon="151.4418794">
  <ele>377.04</ele>
  <time>2026-09-01T20:01:04Z</time>
  <course>127.15</course>
  <speed>0.01</speed>
  <fix>3d</fix>
</trkpt>
<trkpt lat="-27.2157599" lon="151.4418795">
  <ele>376.44</ele>
  <time>2026-09-01T20:01:04Z</time>
  <course>210.77</course>
  <speed>0.01414213562373095</speed>
  <fix>3d</fix>
</trkpt>
<trkpt lat="-27.2157599" lon="151.4418795">
  <ele>376.74</ele>
  <time>2026-09-01T20:01:04Z</time>
  <course>127.93</course>
  <speed>0.02</speed>
  <fix>3d</fix>
</trkpt>
<trkpt lat="-27.21576" lon="151.4418795">
  <ele>376.29</ele>
  <time>2026-09-01T20:01:04Z</time>
  <course>210.77</course>
  <speed>0.01414213562373095</speed>
  <fix>3d</fix>
</trkpt>
<trkpt lat="-27.2157599" lon="151.4418795">
  <ele>376.74</ele>
  <time>2026-09-01T20:01:04Z</time>
  <course>127.93</course>
  <speed>0.02</speed>
  <fix>3d</fix>
</trkpt>
<trkpt lat="-27.21576" lon="151.4418796">
  <ele>376.14</ele>
  <time>2026-09-01T20:01:04Z</time>
  <course>210.78</course>
  <speed>0.01414213562373095</speed>
  <fix>3d</fix>
</trkpt>
<trkpt lat="-27.2157599" lon="151.4418795">
  <ele>376.44</ele>
  <time>2026-09-01T20:01:04Z</time>
  <course>128.83</course>
  <speed>0.02</speed>
  <fix>3d</fix>
</trkpt>
<trkpt lat="-27.21576" lon="151.4418796">
  <ele>375.99</ele>
  <time>2026-09-01T20:01:04Z</time>
  <course>210.8</course>
  <speed>0.01414213562373095</speed>
  <fix>3d</fix>
</trkpt>
<trkpt lat="-27.2157599" lon="151.4418795">
  <ele>376.44</ele>
  <time>2026-09-01T20:01:04Z</time>
  <course>128.83</course>
  <speed>0.02</speed>
  <fix>3d</fix>
</trkpt>
<trkpt lat="-27.21576" lon="151.4418796">
  <ele>375.84</ele>
  <time>2026-09-01T20:01:04Z</time>
  <course>210.81</course>
  <speed>0.01414213562373095</speed>
  <fix>3d</fix>
</trkpt>
<trkpt lat="-27.21576" lon="151.4418795">
  <ele>376.14</ele>
  <time>2026-09-01T20:01:04Z</time>
  <course>128.22</course>
  <speed>0.01</speed>
  <fix>3d</fix>
</trkpt>
<trkpt lat="-27.21576" lon="151.4418796">
  <ele>375.69</ele>
  <time>2026-09-01T20:01:04Z</time>
  <course>210.84</course>
  <speed>0.01414213562373095</speed>
  <fix>3d</fix>
</trkpt>
<trkpt lat="-27.21576" lon="151.4418795">
  <ele>376.14</ele>
  <time>2026-09-01T20:01:04Z</time>
  <course>128.22</course>
  <speed>0.01</speed>
  <fix>3d</fix>
</trkpt>
<trkpt lat="-27.21576" lon="151.4418796">
  <ele>375.54</ele>
  <time>2026-09-01T20:01:04Z</time>
  <course>210.87</course>
  <speed>0.01414213562373095</speed>
  <fix>3d</fix>
</trkpt>
<trkpt lat="-27.21576" lon="151.4418796">
  <ele>375.84</ele>
  <time>2026-09-01T20:01:04Z</time>
  <course>126.36</course>
  <speed>0.02</speed>
  <fix>3d</fix>
</trkpt>
<trkpt lat="-27.21576" lon="151.4418796">
  <ele>375.38</ele>
  <time>2026-09-01T20:01:04Z</time>
  <course>210.92</course>
  <speed>0.01414213562373095</speed>
  <fix>3d</fix>
</trkpt>
<trkpt lat="-27.21576" lon="151.4418796">
  <ele>375.54</ele>
  <time>2026-09-01T20:01:04Z</time>
  <course>125.08</course>
  <speed>0.02</speed>
  <fix>3d</fix>
</trkpt>
<trkpt lat="-27.21576" lon="151.4418796">
  <ele>375.23</ele>
  <time>2026-09-01T20:01:04Z</time>
  <course>210.95</course>
  <speed>0.01414213562373095</speed>
  <fix>3d</fix>
</trkpt>
<trkpt lat="-27.21576" lon="151.4418796">
  <ele>375.54</ele>
  <time>2026-09-01T20:01:04Z</time>
  <course>125.08</course>
  <speed>0.02</speed>
  <fix>3d</fix>
</trkpt>
<trkpt lat="-27.21576" lon="151.4418796">
  <ele>375.08</ele>
  <time>2026-09-01T20:01:04Z</time>
  <course>210.97</course>
  <speed>0.01414213562373095</speed>
  <fix>3d</fix>
</trkpt>
<trkpt lat="-27.21576" lon="151.4418796">
  <ele>375.24</ele>
  <time>2026-09-01T20:01:04Z</time>
  <course>124.44</course>
  <speed>0.02</speed>
  <fix>3d</fix>
</trkpt>
<trkpt lat="-27.2157601" lon="151.4418796">
  <ele>374.93</ele>
  <time>2026-09-01T20:01:04Z</time>
  <course>210.98</course>
  <speed>0.01414213562373095</speed>
  <fix>3d</fix>
</trkpt>
<trkpt lat="-27.21576" lon="151.4418796">
  <ele>375.24</ele>
  <time>2026-09-01T20:01:04Z</time>
  <course>124.44</course>
  <speed>0.02</speed>
  <fix>3d</fix>
</trkpt>
<trkpt lat="-27.2157601" lon="151.4418796">
  <ele>374.78</ele>
  <time>2026-09-01T20:01:04Z</time>
  <course>210.98</course>
  <speed>0.01414213562373095</speed>
  <fix>3d</fix>
</trkpt>
<trkpt lat="-27.21576" lon="151.4418796">
  <ele>374.94</ele>
  <time>2026-09-01T20:01:04Z</time>
  <course>123.91</course>
  <speed>0.02</speed>
  <fix>3d</fix>
</trkpt>
<trkpt lat="-27.2157601" lon="151.4418796">
  <ele>374.63</ele>
  <time>2026-09-01T20:01:04Z</time>
  <course>210.99</course>
  <speed>0.01414213562373095</speed>
  <fix>3d</fix>
</trkpt>
<trkpt lat="-27.21576" lon="151.4418796">
  <ele>374.94</ele>
  <time>2026-09-01T20:01:04Z</time>
  <course>123.91</course>
  <speed>0.02</speed>
  <fix>3d</fix>
</trkpt>
<trkpt lat="-27.2157601" lon="151.4418797">
  <ele>374.48</ele>
  <time>2026-09-01T20:01:04Z</time>
  <course>210.99</course>
  <speed>0.01414213562373095</speed>
  <fix>3d</fix>
</trkpt>
<trkpt lat="-27.2157601" lon="151.4418796">
  <ele>374.64</ele>
  <time>2026-09-01T20:01:04Z</time>
  <course>122.82</course>
  <speed>0.02</speed>
  <fix>3d</fix>
</trkpt>
<trkpt lat="-27.2157601" lon="151.4418797">
  <ele>374.33</ele>
  <time>2026-09-01T20:01:04Z</time>
  <course>211.0</course>
  <speed>0.01414213562373095</speed>
  <fix>3d</fix>
</trkpt>
<trkpt lat="-27.2157601" lon="151.4418796">
  <ele>374.64</ele>
  <time>2026-09-01T20:01:04Z</time>
  <course>122.82</course>
  <speed>0.02</speed>
  <fix>3d</fix>
</trkpt>
<trkpt lat="-27.2157601" lon="151.4418797">
  <ele>374.18</ele>
  <time>2026-09-01T20:01:04Z</time>
  <course>211.01</course>
  <speed>0.01414213562373095</speed>
  <fix>3d</fix>
</trkpt>
<trkpt lat="-27.2157601" lon="151.4418797">
  <ele>374.34</ele>
  <time>2026-09-01T20:01:04Z</time>
  <course>121.3</course>
  <speed>0.02</speed>
  <fix>3d</fix>
</trkpt>
<trkpt lat="-27.2157601" lon="151.4418797">
  <ele>374.03</ele>
  <time>2026-09-01T20:01:04Z</time>
  <course>211.03</course>
  <speed>0.01414213562373095</speed>
  <fix>3d</fix>
</trkpt>
<trkpt lat="-27.2157601" lon="151.4418797">
  <ele>374.34</ele>
  <time>2026-09-01T20:01:04Z</time>
  <course>121.3</course>
  <speed>0.02</speed>
  <fix>3d</fix>
</trkpt>
<trkpt lat="-27.2157601" lon="151.4418797">
  <ele>373.88</ele>
  <time>2026-09-01T20:01:04Z</time>
  <course>211.05</course>
  <speed>0.01414213562373095</speed>
  <fix>3d</fix>
</trkpt>
<trkpt lat="-27.2157601" lon="151.4418797">
  <ele>374.04</ele>
  <time>2026-09-01T20:01:04Z</time>
  <course>120.91</course>
  <speed>0.02</speed>
  <fix>3d</fix>
</trkpt>
<trkpt lat="-27.2157601" lon="151.4418797">
  <ele>373.73</ele>
  <time>2026-09-01T20:01:04Z</time>
  <course>211.08</course>
  <speed>0.022360679774997897</speed>
  <fix>3d</fix>
</trkpt>
<trkpt lat="-27.2157601" lon="151.4418797">
  <ele>374.04</ele>
  <time>2026-09-01T20:01:04Z</time>
  <course>120.91</course>
  <speed>0.02</speed>
  <fix>3d</fix>
</trkpt>
<trkpt lat="-27.2157602" lon="151.4418799">
  <ele>373.58</ele>
  <time>2026-09-01T20:01:04Z</time>
  <course>211.11</course>
  <speed>0.022360679774997897</speed>
  <fix>3d</fix>
</trkpt>
<trkpt lat="-27.2157601" lon="151.4418798">
  <ele>373.74</ele>
  <time>2026-09-01T20:01:04Z</time>
  <course>122.04</course>
  <speed>0.02</speed>
  <fix>3d</fix>
</trkpt>
<trkpt lat="-27.2157602" lon="151.4418799">
  <ele>373.43</ele>
  <time>2026-09-01T20:01:04Z</time>
  <course>211.16</course>
  <speed>0.022360679774997897</speed>
  <fix>3d</fix>
</trkpt>
<trkpt lat="-27.2157601" lon="151.4418798">
  <ele>373.74</ele>
  <time>2026-09-01T20:01:04Z</time>
  <course>122.04</course>
  <speed>0.02</speed>
  <fix>3d</fix>
</trkpt>
<trkpt lat="-27.2157602" lon="151.4418799">
  <ele>373.28</ele>
  <time>2026-09-01T20:01:04Z</time>
  <course>211.2</course>
  <speed>0.022360679774997897</speed>
  <fix>3d</fix>
</trkpt>
<trkpt lat="-27.2157602" lon="151.4418799">
  <ele>373.44</ele>
  <time>2026-09-01T20:01:04Z</time>
  <course>123.11</course>
  <speed>0.02</speed>
  <fix>3d</fix>
</trkpt>
<trkpt lat="-27.2157602" lon="151.4418799">
  <ele>373.13</ele>
  <time>2026-09-01T20:01:04Z</time>
  <course>211.25</course>
  <speed>0.022360679774997897</speed>
  <fix>3d</fix>
</trkpt>
<trkpt lat="-27.2157602" lon="151.4418799">
  <ele>373.44</ele>
  <time>2026-09-01T20:01:04Z</time>
  <course>123.11</course>
  <speed>0.02</speed>
  <fix>3d</fix>
</trkpt>
<trkpt lat="-27.2157602" lon="151.44188">
  <ele>372.98</ele>
  <time>2026-09-01T20:01:04Z</time>
  <course>211.3</course>
  <speed>0.022360679774997897</speed>
  <fix>3d</fix>
</trkpt>
<trkpt lat="-27.2157602" lon="151.4418799">
  <ele>373.14</ele>
  <time>2026-09-01T20:01:04Z</time>
  <course>123.88</course>
  <speed>0.02</speed>
  <fix>3d</fix>
</trkpt>
<trkpt lat="-27.2157602" lon="151.44188">
  <ele>372.83</ele>
  <time>2026-09-01T20:01:04Z</time>
  <course>211.33</course>
  <speed>0.022360679774997897</speed>
  <fix>3d</fix>
</trkpt>
<trkpt lat="-27.2157602" lon="151.4418799">
  <ele>373.14</ele>
  <time>2026-09-01T20:01:04Z</time>
  <course>123.88</course>
  <speed>0.02</speed>
  <fix>3d</fix>
</trkpt>
<trkpt lat="-27.2157602" lon="151.44188">
  <ele>372.68</ele>
  <time>2026-09-01T20:01:04Z</time>
  <course>211.36</course>
  <speed>0.022360679774997897</speed>
  <fix>3d</fix>
</trkpt>
<trkpt lat="-27.2157602" lon="151.44188">
  <ele>372.84</ele>
  <time>2026-09-01T20:01:04Z</time>
  <course>124.58</course>
  <speed>0.02</speed>
  <fix>3d</fix>
</trkpt>
<trkpt lat="-27.2157602" lon="151.44188">
  <ele>372.54</ele>
  <time>2026-09-01T20:01:04Z</time>
  <course>211.37</course>
  <speed>0.022360679774997897</speed>
  <fix>3d</fix>
</trkpt>
<trkpt lat="-27.2157602" lon="151.44188">
  <ele>372.84</ele>
  <time>2026-09-01T20:01:04Z</time>
  <course>124.58</course>
  <speed>0.02</speed>
  <fix>3d</fix>
</trkpt>
<trkpt lat="-27.2157603" lon="151.44188">
  <ele>372.39</ele>
  <time>2026-09-01T20:01:04Z</time>
  <course>211.37</course>
  <speed>0.022360679774997897</speed>
  <fix>3d</fix>
</trkpt>
<trkpt lat="-27.2157602" lon="151.44188">
  <ele>372.84</ele>
  <time>2026-09-01T20:01:04Z</time>
  <course>124.58</course>
  <speed>0.02</speed>
  <fix>3d</fix>
</trkpt>
<trkpt lat="-27.2157603" lon="151.4418801">
  <ele>372.23</ele>
  <time>2026-09-01T20:01:04Z</time>
  <course>211.37</course>
  <speed>0.022360679774997897</speed>
  <fix>3d</fix>
</trkpt>
<trkpt lat="-27.2157602" lon="151.44188">
  <ele>372.54</ele>
  <time>2026-09-01T20:01:04Z</time>
  <course>124.92</course>
  <speed>0.02</speed>
  <fix>3d</fix>
</trkpt>
<trkpt lat="-27.2157603" lon="151.4418801">
  <ele>372.08</ele>
  <time>2026-09-01T20:01:04Z</time>
  <course>211.38</course>
  <speed>0.022360679774997897</speed>
  <fix>3d</fix>
</trkpt>
<trkpt lat="-27.2157603" lon="151.44188">
  <ele>372.24</ele>
  <time>2026-09-01T20:01:04Z</time>
  <course>124.38</course>
  <speed>0.02</speed>
  <fix>3d</fix>
</trkpt>
<trkpt lat="-27.2157603" lon="151.4418801">
  <ele>371.93</ele>
  <time>2026-09-01T20:01:04Z</time>
  <course>211.41</course>
  <speed>0.022360679774997897</speed>
  <fix>3d</fix>
</trkpt>
<trkpt lat="-27.2157603" lon="151.44188">
  <ele>372.24</ele>
  <time>2026-09-01T20:01:04Z</time>
  <course>124.38</course>
  <speed>0.02</speed>
  <fix>3d</fix>
</trkpt>
<trkpt lat="-27.2157603" lon="151.4418801">
  <ele>371.78</ele>
  <time>2026-09-01T20:01:04Z</time>
  <course>211.45</course>
  <speed>0.022360679774997897</speed>
  <fix>3d</fix>
</trkpt>
<trkpt lat="-27.2157603" lon="151.4418801">
  <ele>371.94</ele>
  <time>2026-09-01T20:01:04Z</time>
  <course>123.98</course>
  <speed>0.02</speed>
  <fix>3d</fix>
</trkpt>
<trkpt lat="-27.2157603" lon="151.4418801">
  <ele>371.63</ele>
  <time>2026-09-01T20:01:04Z</time>
  <course>211.49</course>
  <speed>0.022360679774997897</speed>
  <fix>3d</fix>
</trkpt>
<trkpt lat="-27.2157603" lon="151.4418801">
  <ele>371.94</ele>
  <time>2026-09-01T20:01:04Z</time>
  <course>123.98</course>
  <speed>0.02</speed>
  <fix>3d</fix>
</trkpt>
<trkpt lat="-27.2157603" lon="151.4418801">
  <ele>371.48</ele>
  <time>2026-09-01T20:01:04Z</time>
  <course>211.52</course>
  <speed>0.022360679774997897</speed>
  <fix>3d</fix>
</trkpt>
<trkpt lat="-27.2157603" lon="151.4418801">
  <ele>371.64</ele>
  <time>2026-09-01T20:01:04Z</time>
  <course>124.56</course>
  <speed>0.02</speed>
  <fix>3d</fix>
</trkpt>
<trkpt lat="-27.2157604" lon="151.4418801">
  <ele>371.33</ele>
  <time>2026-09-01T20:01:04Z</time>
  <course>211.55</course>
  <speed>0.022360679774997897</speed>
  <fix>3d</fix>
</trkpt>
<trkpt lat="-27.2157603" lon="151.4418801">
  <ele>371.64</ele>
  <time>2026-09-01T20:01:04Z</time>
  <course>124.56</course>
  <speed>0.02</speed>
  <fix>3d</fix>
</trkpt>
<trkpt lat="-27.2157604" lon="151.4418801">
  <ele>371.18</ele>
  <time>2026-09-01T20:01:04Z</time>
  <course>211.58</course>
  <speed>0.022360679774997897</speed>
  <fix>3d</fix>
</trkpt>
<trkpt lat="-27.2157603" lon="151.4418801">
  <ele>371.34</ele>
  <time>2026-09-01T20:01:04Z</time>
  <course>125.08</course>
  <speed>0.03</speed>
  <fix>3d</fix>
</trkpt>
<trkpt lat="-27.2157604" lon="151.4418802">
  <ele>371.03</ele>
  <time>2026-09-01T20:01:04Z</time>
  <course>211.6</course>
  <speed>0.022360679774997897</speed>
  <fix>3d</fix>
</trkpt>
<trkpt lat="-27.2157603" lon="151.4418801">
  <ele>371.34</ele>
  <time>2026-09-01T20:01:04Z</time>
  <course>125.08</course>
  <speed>0.03</speed>
  <fix>3d</fix>
</trkpt>
<trkpt lat="-27.2157604" lon="151.4418802">
  <ele>370.89</ele>
  <time>2026-09-01T20:01:04Z</time>
  <course>211.63</course>
  <speed>0.022360679774997897</speed>
  <fix>3d</fix>
</trkpt>
<trkpt lat="-27.2157604" lon="151.4418802">
  <ele>371.04</ele>
  <time>2026-09-01T20:01:04Z</time>
  <course>125.74</course>
  <speed>0.03</speed>
  <fix>3d</fix>
</trkpt>
<trkpt lat="-27.2157604" lon="151.4418802">
  <ele>370.74</ele>
  <time>2026-09-01T20:01:04Z</time>
  <course>211.64</course>
  <speed>0.022360679774997897</speed>
  <fix>3d</fix>
</trkpt>
<trkpt lat="-27.2157604" lon="151.4418802">
  <ele>371.04</ele>
  <time>2026-09-01T20:01:04Z</time>
  <course>125.74</course>
  <speed>0.03</speed>
  <fix>3d</fix>
</trkpt>
<trkpt lat="-27.2157604" lon="151.4418802">
  <ele>370.59</ele>
  <time>2026-09-01T20:01:04Z</time>
  <course>211.66</course>
  <speed>0.022360679774997897</speed>
  <fix>3d</fix>
</trkpt>
<trkpt lat="-27.2157604" lon="151.4418802">
  <ele>370.74</ele>
  <time>2026-09-01T20:01:04Z</time>
  <course>126.51</course>
  <speed>0.03</speed>
  <fix>3d</fix>
</trkpt>
<trkpt lat="-27.2157605" lon="151.4418804">
  <ele>370.44</ele>
  <time>2026-09-01T20:01:04Z</time>
  <course>211.69</course>
  <speed>0.0282842712474619</speed>
  <fix>3d</fix>
</trkpt>
<trkpt lat="-27.2157604" lon="151.4418802">
  <ele>370.74</ele>
  <time>2026-09-01T20:01:04Z</time>
  <course>126.51</course>
  <speed>0.03</speed>
  <fix>3d</fix>
</trkpt>
<trkpt lat="-27.2157605" lon="151.4418804">
  <ele>370.28</ele>
  <time>2026-09-01T20:01:04Z</time>
  <course>211.73</course>
  <speed>0.0282842712474619</speed>
  <fix>3d</fix>
</trkpt>
<trkpt lat="-27.2157604" lon="151.4418803">
  <ele>370.44</ele>
  <time>2026-09-01T20:01:04Z</time>
  <course>127.06</course>
  <speed>0.03</speed>
  <fix>3d</fix>
</trkpt>
<trkpt lat="-27.2157605" lon="151.4418804">
  <ele>370.13</ele>
  <time>2026-09-01T20:01:04Z</time>
  <course>211.78</course>
  <speed>0.0282842712474619</speed>
  <fix>3d</fix>
</trkpt>
<trkpt lat="-27.2157604" lon="151.4418803">
  <ele>370.44</ele>
  <time>2026-09-01T20:01:04Z</time>
  <course>127.06</course>
  <speed>0.03</speed>
  <fix>3d</fix>
</trkpt>
<trkpt lat="-27.2157605" lon="151.4418805">
  <ele>369.98</ele>
  <time>2026-09-01T20:01:04Z</time>
  <course>211.84</course>
  <speed>0.0282842712474619</speed>
  <fix>3d</fix>
</trkpt>
<trkpt lat="-27.2157605" lon="151.4418804">
  <ele>370.14</ele>
  <time>2026-09-01T20:01:04Z</time>
  <course>127.07</course>
  <speed>0.03</speed>
  <fix>3d</fix>
</trkpt>
<trkpt lat="-27.2157605" lon="151.4418805">
  <ele>369.83</ele>
  <time>2026-09-01T20:01:04Z</time>
  <course>211.89</course>
  <speed>0.0282842712474619</speed>
  <fix>3d</fix>
</trkpt>
<trkpt lat="-27.2157605" lon="151.4418804">
  <ele>370.14</ele>
  <time>2026-09-01T20:01:04Z</time>
  <course>127.07</course>
  <speed>0.03</speed>
  <fix>3d</fix>
</trkpt>
<trkpt lat="-27.2157606" lon="151.4418805">
  <ele>369.68</ele>
  <time>2026-09-01T20:01:04Z</time>
  <course>211.94</course>
  <speed>0.0282842712474619</speed>
  <fix>3d</fix>
</trkpt>
<trkpt lat="-27.2157605" lon="151.4418804">
  <ele>369.84</ele>
  <time>2026-09-01T20:01:04Z</time>
  <course>126.96</course>
  <speed>0.03</speed>
  <fix>3d</fix>
</trkpt>
<trkpt lat="-27.2157606" lon="151.4418805">
  <ele>369.53</ele>
  <time>2026-09-01T20:01:04Z</time>
  <course>211.99</course>
  <speed>0.0282842712474619</speed>
  <fix>3d</fix>
</trkpt>
<trkpt lat="-27.2157605" lon="151.4418804">
  <ele>369.84</ele>
  <time>2026-09-01T20:01:04Z</time>
  <course>126.96</course>
  <speed>0.03</speed>
  <fix>3d</fix>
</trkpt>
<trkpt lat="-27.2157606" lon="151.4418806">
  <ele>369.38</ele>
  <time>2026-09-01T20:01:04Z</time>
  <course>212.04</course>
  <speed>0.03605551275463989</speed>
  <fix>3d</fix>
</trkpt>
<trkpt lat="-27.2157606" lon="151.4418805">
  <ele>369.54</ele>
  <time>2026-09-01T20:01:04Z</time>
  <course>126.97</course>
  <speed>0.03</speed>
  <fix>3d</fix>
</trkpt>
<trkpt lat="-27.2157606" lon="151.4418806">
  <ele>369.23</ele>
  <time>2026-09-01T20:01:04Z</time>
  <course>212.08</course>
  <speed>0.03605551275463989</speed>
  <fix>3d</fix>
</trkpt>
<trkpt lat="-27.2157606" lon="151.4418805">
  <ele>369.54</ele>
  <time>2026-09-01T20:01:04Z</time>
  <course>126.97</course>
  <speed>0.03</speed>
  <fix>3d</fix>
</trkpt>
<trkpt lat="-27.2157606" lon="151.4418806">
  <ele>369.08</ele>
  <time>2026-09-01T20:01:04Z</time>
  <course>212.13</course>
  <speed>0.03605551275463989</speed>
  <fix>3d</fix>
</trkpt>
<trkpt lat="-27.2157606" lon="151.4418806">
  <ele>369.24</ele>
  <time>2026-09-01T20:01:04Z</time>
  <course>127.02</course>
  <speed>0.03</speed>
  <fix>3d</fix>
</trkpt>
<trkpt lat="-27.2157607" lon="151.4418806">
  <ele>368.93</ele>
  <time>2026-09-01T20:01:04Z</time>
  <course>212.17</course>
  <speed>0.03605551275463989</speed>
  <fix>3d</fix>
</trkpt>
<trkpt lat="-27.2157606" lon="151.4418806">
  <ele>369.24</ele>
  <time>2026-09-01T20:01:04Z</time>
  <course>127.02</course>
  <speed>0.03</speed>
  <fix>3d</fix>
</trkpt>
<trkpt lat="-27.2157607" lon="151.4418806">
  <ele>368.79</ele>
  <time>2026-09-01T20:01:04Z</time>
  <course>212.21</course>
  <speed>0.03605551275463989</speed>
  <fix>3d</fix>
</trkpt>
<trkpt lat="-27.2157606" lon="151.4418806">
  <ele>368.94</ele>
  <time>2026-09-01T20:01:04Z</time>
  <course>127.06</course>
  <speed>0.04</speed>
  <fix>3d</fix>
</trkpt>
<trkpt lat="-27.2157607" lon="151.4418806">
  <ele>368.64</ele>
  <time>2026-09-01T20:01:04Z</time>
  <course>212.24</course>
  <speed>0.03605551275463989</speed>
  <fix>3d</fix>
</trkpt>
<trkpt lat="-27.2157606" lon="151.4418806">
  <ele>368.94</ele>
  <time>2026-09-01T20:01:04Z</time>
  <course>127.06</course>
  <speed>0.04</speed>
  <fix>3d</fix>
</trkpt>
<trkpt lat="-27.2157607" lon="151.4418808">
  <ele>368.49</ele>
  <time>2026-09-01T20:01:04Z</time>
  <course>212.28</course>
  <speed>0.03605551275463989</speed>
  <fix>3d</fix>
</trkpt>
<trkpt lat="-27.2157607" lon="151.4418807">
  <ele>368.64</ele>
  <time>2026-09-01T20:01:04Z</time>
  <course>126.73</course>
  <speed>0.04</speed>
  <fix>3d</fix>
</trkpt>
<trkpt lat="-27.2157608" lon="151.4418808">
  <ele>368.33</ele>
  <time>2026-09-01T20:01:04Z</time>
  <course>212.31</course>
  <speed>0.03605551275463989</speed>
  <fix>3d</fix>
</trkpt>
<trkpt lat="-27.2157607" lon="151.4418807">
  <ele>368.64</ele>
  <time>2026-09-01T20:01:04Z</time>
  <course>126.73</course>
  <speed>0.04</speed>
  <fix>3d</fix>
</trkpt>
<trkpt lat="-27.2157608" lon="151.4418808">
  <ele>368.18</ele>
  <time>2026-09-01T20:01:04Z</time>
  <course>212.36</course>
  <speed>0.03605551275463989</speed>
  <fix>3d</fix>
</trkpt>
<trkpt lat="-27.2157607" lon="151.4418808">
  <ele>368.34</ele>
  <time>2026-09-01T20:01:04Z</time>
  <course>126.76</course>
  <speed>0.04</speed>
  <fix>3d</fix>
</trkpt>
<trkpt lat="-27.2157608" lon="151.4418809">
  <ele>368.03</ele>
  <time>2026-09-01T20:01:04Z</time>
  <course>212.41</course>
  <speed>0.03605551275463989</speed>
  <fix>3d</fix>
</trkpt>
<trkpt lat="-27.2157607" lon="151.4418808">
  <ele>368.34</ele>
  <time>2026-09-01T20:01:04Z</time>
  <course>126.76</course>
  <speed>0.04</speed>
  <fix>3d</fix>
</trkpt>
<trkpt lat="-27.2157608" lon="151.4418809">
  <ele>367.88</ele>
  <time>2026-09-01T20:01:04Z</time>
  <course>212.47</course>
  <speed>0.03605551275463989</speed>
  <fix>3d</fix>
</trkpt>
<trkpt lat="-27.2157608" lon="151.4418808">
  <ele>368.04</ele>
  <time>2026-09-01T20:01:04Z</time>
  <course>127.1</course>
  <speed>0.04</speed>
  <fix>3d</fix>
</trkpt>
<trkpt lat="-27.2157609" lon="151.4418809">
  <ele>367.73</ele>
  <time>2026-09-01T20:01:04Z</time>
  <course>212.53</course>
  <speed>0.03605551275463989</speed>
  <fix>3d</fix>
</trkpt>
<trkpt lat="-27.2157608" lon="151.4418808">
  <ele>368.04</ele>
  <time>2026-09-01T20:01:04Z</time>
  <course>127.1</course>
  <speed>0.04</speed>
  <fix>3d</fix>
</trkpt>
<trkpt lat="-27.2157609" lon="151.441881">
  <ele>367.58</ele>
  <time>2026-09-01T20:01:04Z</time>
  <course>212.59</course>
  <speed>0.03605551275463989</speed>
  <fix>3d</fix>
</trkpt>
<trkpt lat="-27.2157608" lon="151.4418809">
  <ele>367.74</ele>
  <time>2026-09-01T20:01:04Z</time>
  <course>127.37</course>
  <speed>0.04</speed>
  <fix>3d</fix>
</trkpt>
<trkpt lat="-27.2157609" lon="151.441881">
  <ele>367.43</ele>
  <time>2026-09-01T20:01:04Z</time>
  <course>212.65</course>
  <speed>0.04242640687119285</speed>
  <fix>3d</fix>
</trkpt>
<trkpt lat="-27.2157608" lon="151.4418809">
  <ele>367.74</ele>
  <time>2026-09-01T20:01:04Z</time>
  <course>127.37</course>
  <speed>0.04</speed>
  <fix>3d</fix>
</trkpt>
<trkpt lat="-27.2157609" lon="151.4418811">
  <ele>367.28</ele>
  <time>2026-09-01T20:01:04Z</time>
  <course>212.71</course>
  <speed>0.04242640687119285</speed>
  <fix>3d</fix>
</trkpt>
<trkpt lat="-27.2157609" lon="151.441881">
  <ele>367.44</ele>
  <time>2026-09-01T20:01:04Z</time>
  <course>127.67</course>
  <speed>0.04</speed>
  <fix>3d</fix>
</trkpt>
<trkpt lat="-27.215761" lon="151.4418811">
  <ele>367.13</ele>
  <time>2026-09-01T20:01:04Z</time>
  <course>212.77</course>
  <speed>0.05</speed>
  <fix>3d</fix>
</trkpt>
<trkpt lat="-27.2157609" lon="151.441881">
  <ele>367.44</ele>
  <time>2026-09-01T20:01:04Z</time>
  <course>127.67</course>
  <speed>0.04</speed>
  <fix>3d</fix>
</trkpt>
<trkpt lat="-27.215761" lon="151.4418811">
  <ele>366.98</ele>
  <time>2026-09-01T20:01:04Z</time>
  <course>212.83</course>
  <speed>0.05</speed>
  <fix>3d</fix>
</trkpt>
<trkpt lat="-27.2157609" lon="151.4418811">
  <ele>367.14</ele>
  <time>2026-09-01T20:01:04Z</time>
  <course>128.1</course>
  <speed>0.05</speed>
  <fix>3d</fix>
</trkpt>
<trkpt lat="-27.215761" lon="151.4418811">
  <ele>366.84</ele>
  <time>2026-09-01T20:01:04Z</time>
  <course>212.88</course>
  <speed>0.05</speed>
  <fix>3d</fix>
</trkpt>
<trkpt lat="-27.2157609" lon="151.4418811">
  <ele>367.14</ele>
  <time>2026-09-01T20:01:04Z</time>
  <course>128.1</course>
  <speed>0.05</speed>
  <fix>3d</fix>
</trkpt>
<trkpt lat="-27.215761" lon="151.4418811">
  <ele>366.69</ele>
  <time>2026-09-01T20:01:04Z</time>
  <course>212.93</course>
  <speed>0.05</speed>
  <fix>3d</fix>
</trkpt>
<trkpt lat="-27.215761" lon="151.4418811">
  <ele>366.84</ele>
  <time>2026-09-01T20:01:04Z</time>
  <course>128.56</course>
  <speed>0.05</speed>
  <fix>3d</fix>
</trkpt>
<trkpt lat="-27.2157611" lon="151.4418813">
  <ele>366.54</ele>
  <time>2026-09-01T20:01:04Z</time>
  <course>212.98</course>
  <speed>0.05</speed>
  <fix>3d</fix>
</trkpt>
<trkpt lat="-27.215761" lon="151.4418811">
  <ele>366.84</ele>
  <time>2026-09-01T20:01:04Z</time>
  <course>128.56</course>
  <speed>0.05</speed>
  <fix>3d</fix>
</trkpt>
<trkpt lat="-27.2157611" lon="151.4418813">
  <ele>366.39</ele>
  <time>2026-09-01T20:01:04Z</time>
  <course>213.04</course>
  <speed>0.05</speed>
  <fix>3d</fix>
</trkpt>
<trkpt lat="-27.215761" lon="151.4418812">
  <ele>366.54</ele>
  <time>2026-09-01T20:01:04Z</time>
  <course>128.76</course>
  <speed>0.05</speed>
  <fix>3d</fix>
</trkpt>
<trkpt lat="-27.2157611" lon="151.4418814">
  <ele>366.24</ele>
  <time>2026-09-01T20:01:04Z</time>
  <course>213.08</course>
  <speed>0.05</speed>
  <fix>3d</fix>
</trkpt>
<trkpt lat="-27.215761" lon="151.4418812">
  <ele>366.54</ele>
  <time>2026-09-01T20:01:04Z</time>
  <course>128.76</course>
  <speed>0.05</speed>
  <fix>3d</fix>
</trkpt>
<trkpt lat="-27.2157612" lon="151.4418814">
  <ele>366.12</ele>
  <time>2026-09-01T20:01:04Z</time>
  <course>213.07</course>
  <speed>0.01414213562373095</speed>
  <fix>3d</fix>
</trkpt>
<trkpt lat="-27.2157611" lon="151.4418813">
  <ele>366.26</ele>
  <time>2026-09-01T20:01:04Z</time>
  <course>129.07</course>
  <speed>0.03</speed>
  <fix>3d</fix>
</trkpt>
<trkpt lat="-27.2157612" lon="151.4418814">
  <ele>366.12</ele>
  <time>2026-09-01T20:01:04Z</time>
  <course>213.06</course>
  <speed>0.0</speed>
  <fix>3d</fix>
</trkpt>
<trkpt lat="-27.2157611" lon="151.4418813">
  <ele>366.26</ele>
  <time>2026-09-01T20:01:04Z</time>
  <course>129.07</course>
  <speed>0.03</speed>
  <fix>3d</fix>
</trkpt>
<trkpt lat="-27.2157612" lon="151.4418814">
  <ele>366.16</ele>
  <time>2026-09-01T20:01:04Z</time>
  <course>213.06</course>
  <speed>0.01</speed>
  <fix>3d</fix>
</trkpt>
<trkpt lat="-27.2157612" lon="151.4418814">
  <ele>366.14</ele>
  <time>2026-09-01T20:01:04Z</time>
  <course>129.92</course>
  <speed>0.0</speed>
  <fix>3d</fix>
</trkpt>
<trkpt lat="-27.2157612" lon="151.4418814">
  <ele>366.2</ele>
  <time>2026-09-01T20:01:04Z</time>
  <course>213.06</course>
  <speed>0.0</speed>
  <fix>3d</fix>
</trkpt>
<trkpt lat="-27.2157612" lon="151.4418814">
  <ele>366.14</ele>
  <time>2026-09-01T20:01:04Z</time>
  <course>129.92</course>
  <speed>0.0</speed>
  <fix>3d</fix>
</trkpt>
<trkpt lat="-27.2157611" lon="151.4418814">
  <ele>366.21</ele>
  <time>2026-09-01T20:01:04Z</time>
  <course>213.06</course>
  <speed>0.0</speed>
  <fix>3d</fix>
</trkpt>
<trkpt lat="-27.2157611" lon="151.4418814">
  <ele>366.18</ele>
  <time>2026-09-01T20:01:04Z</time>
  <course>309.85</course>
  <speed>0.0</speed>
  <fix>3d</fix>
</trkpt>
<trkpt lat="-27.2157611" lon="151.4418814">
  <ele>366.2</ele>
  <time>2026-09-01T20:01:04Z</time>
  <course>213.06</course>
  <speed>0.0</speed>
  <fix>3d</fix>
</trkpt>
<trkpt lat="-27.2157611" lon="151.4418814">
  <ele>366.18</ele>
  <time>2026-09-01T20:01:04Z</time>
  <course>309.85</course>
  <speed>0.0</speed>
  <fix>3d</fix>
</trkpt>
<trkpt lat="-27.2157612" lon="151.4418814">
  <ele>366.2</ele>
  <time>2026-09-01T20:01:04Z</time>
  <course>213.06</course>
  <speed>0.0</speed>
  <fix>3d</fix>
</trkpt>
<trkpt lat="-27.2157611" lon="151.4418814">
  <ele>366.2</ele>
  <time>2026-09-01T20:01:04Z</time>
  <course>129.82</course>
  <speed>0.0</speed>
  <fix>3d</fix>
</trkpt>
<trkpt lat="-27.2157612" lon="151.4418814">
  <ele>366.19</ele>
  <time>2026-09-01T20:01:04Z</time>
  <course>213.06</course>
  <speed>0.0</speed>
  <fix>3d</fix>
</trkpt>
<trkpt lat="-27.2157611" lon="151.4418814">
  <ele>366.2</ele>
  <time>2026-09-01T20:01:04Z</time>
  <course>129.82</course>
  <speed>0.0</speed>
  <fix>3d</fix>
</trkpt>
<trkpt lat="-27.2157612" lon="151.4418814">
  <ele>366.19</ele>
  <time>2026-09-01T20:01:04Z</time>
  <course>213.06</course>
  <speed>0.0</speed>
  <fix>3d</fix>
</trkpt>
<trkpt lat="-27.2157612" lon="151.4418814">
  <ele>366.19</ele>
  <time>2026-09-01T20:01:04Z</time>
  <course>129.85</course>
  <speed>0.0</speed>
  <fix>3d</fix>
</trkpt>
<trkpt lat="-27.2157612" lon="151.4418814">
  <ele>366.19</ele>
  <time>2026-09-01T20:01:04Z</time>
  <course>213.06</course>
  <speed>0.0</speed>
  <fix>3d</fix>
</trkpt>
<trkpt lat="-27.2157612" lon="151.4418814">
  <ele>366.19</ele>
  <time>2026-09-01T20:01:04Z</time>
  <course>129.85</course>
  <speed>0.0</speed>
  <fix>3d</fix>
</trkpt>
<trkpt lat="-27.2157612" lon="151.4418814">
  <ele>366.19</ele>
  <time>2026-09-01T20:01:04Z</time>
  <course>213.06</course>
  <speed>0.0</speed>
  <fix>3d</fix>
</trkpt>
<trkpt lat="-27.2157612" lon="151.4418814">
  <ele>366.19</ele>
  <time>2026-09-01T20:01:04Z</time>
  <course>309.84</course>
  <speed>0.0</speed>
  <fix>3d</fix>
</trkpt>
<trkpt lat="-27.2157612" lon="151.4418814">
  <ele>366.19</ele>
  <time>2026-09-01T20:01:04Z</time>
  <course>213.06</course>
  <speed>0.0</speed>
  <fix>3d</fix>
</trkpt>
<trkpt lat="-27.2157612" lon="151.4418814">
  <ele>366.19</ele>
  <time>2026-09-01T20:01:04Z</time>
  <course>309.84</course>
  <speed>0.0</speed>
  <fix>3d</fix>
</trkpt>
<trkpt lat="-27.2157612" lon="151.4418814">
  <ele>366.19</ele>
  <time>2026-09-01T20:01:04Z</time>
  <course>213.06</course>
  <speed>0.0</speed>
  <fix>3d</fix>
</trkpt>
<trkpt lat="-27.2157612" lon="151.4418814">
  <ele>366.19</ele>
  <time>2026-09-01T20:01:04Z</time>
  <course>309.86</course>
  <speed>0.0</speed>
  <fix>3d</fix>
</trkpt>
<trkpt lat="-27.2157612" lon="151.4418814">
  <ele>366.19</ele>
  <time>2026-09-01T20:01:04Z</time>
  <course>213.06</course>
  <speed>0.0</speed>
  <fix>3d</fix>
</trkpt>
<trkpt lat="-27.2157612" lon="151.4418814">
  <ele>366.19</ele>
  <time>2026-09-01T20:01:04Z</time>
  <course>309.86</course>
  <speed>0.0</speed>
  <fix>3d</fix>
</trkpt>
<trkpt lat="-27.2157612" lon="151.4418814">
  <ele>366.19</ele>
  <time>2026-09-01T20:01:04Z</time>
  <course>213.06</course>
  <speed>0.0</speed>
  <fix>3d</fix>
</trkpt>
<trkpt lat="-27.2157612" lon="151.4418814">
  <ele>366.19</ele>
  <time>2026-09-01T20:01:04Z</time>
  <course>129.87</course>
  <speed>0.0</speed>
  <fix>3d</fix>
</trkpt>
<trkpt lat="-27.2157612" lon="151.4418814">
  <ele>366.19</ele>
  <time>2026-09-01T20:01:04Z</time>
  <course>213.06</course>
  <speed>0.0</speed>
  <fix>3d</fix>
</trkpt>
<trkpt lat="-27.2157612" lon="151.4418814">
  <ele>366.19</ele>
  <time>2026-09-01T20:01:04Z</time>
  <course>129.87</course>
  <speed>0.0</speed>
  <fix>3d</fix>
</trkpt>
<trkpt lat="-27.2157612" lon="151.4418814">
  <ele>366.19</ele>
  <time>2026-09-01T20:01:04Z</time>
  <course>213.06</course>
  <speed>0.0</speed>
  <fix>3d</fix>
</trkpt>
<trkpt lat="-27.2157612" lon="151.4418814">
  <ele>366.19</ele>
  <time>2026-09-01T20:01:04Z</time>
  <course>130.04</course>
  <speed>0.0</speed>
  <fix>3d</fix>
</trkpt>
<trkpt lat="-27.2157612" lon="151.4418814">
  <ele>366.19</ele>
  <time>2026-09-01T20:01:04Z</time>
  <course>213.06</course>
  <speed>0.0</speed>
  <fix>3d</fix>
</trkpt>
<trkpt lat="-27.2157612" lon="151.4418814">
  <ele>366.19</ele>
  <time>2026-09-01T20:01:04Z</time>
  <course>130.04</course>
  <speed>0.0</speed>
  <fix>3d</fix>
</trkpt>
<trkpt lat="-27.2157612" lon="151.4418814">
  <ele>366.19</ele>
  <time>2026-09-01T20:01:04Z</time>
  <course>213.06</course>
  <speed>0.0</speed>
  <fix>3d</fix>
</trkpt>
<trkpt lat="-27.2157612" lon="151.4418814">
  <ele>366.19</ele>
  <time>2026-09-01T20:01:04Z</time>
  <course>310.02</course>
  <speed>0.0</speed>
  <fix>3d</fix>
</trkpt>
<trkpt lat="-27.2157612" lon="151.4418814">
  <ele>366.19</ele>
  <time>2026-09-01T20:01:04Z</time>
  <course>213.06</course>
  <speed>0.0</speed>
  <fix>3d</fix>
</trkpt>
<trkpt lat="-27.2157612" lon="151.4418814">
  <ele>366.19</ele>
  <time>2026-09-01T20:01:04Z</time>
  <course>310.02</course>
  <speed>0.0</speed>
  <fix>3d</fix>
</trkpt>
<trkpt lat="-27.2157612" lon="151.4418814">
  <ele>366.19</ele>
  <time>2026-09-01T20:01:04Z</time>
  <course>213.06</course>
  <speed>0.0</speed>
  <fix>3d</fix>
</trkpt>
<trkpt lat="-27.2157612" lon="151.4418814">
  <ele>366.19</ele>
  <time>2026-09-01T20:01:04Z</time>
  <course>313.33</course>
  <speed>0.0</speed>
  <fix>3d</fix>
</trkpt>
<trkpt lat="-27.2157612" lon="151.4418814">
  <ele>366.19</ele>
  <time>2026-09-01T20:01:04Z</time>
  <course>213.06</course>
  <speed>0.0</speed>
  <fix>3d</fix>
</trkpt>
<trkpt lat="-27.2157612" lon="151.4418814">
  <ele>366.19</ele>
  <time>2026-09-01T20:01:04Z</time>
  <course>313.33</course>
  <speed>0.0</speed>
  <fix>3d</fix>
</trkpt>
<trkpt lat="-27.2157612" lon="151.4418814">
  <ele>366.19</ele>
  <time>2026-09-01T20:01:04Z</time>
  <course>213.06</course>
  <speed>0.0</speed>
  <fix>3d</fix>
</trkpt>
<trkpt lat="-27.2157612" lon="151.4418814">
  <ele>366.19</ele>
  <time>2026-09-01T20:01:04Z</time>
  <course>131.1</course>
  <speed>0.0</speed>
  <fix>3d</fix>
</trkpt>
<trkpt lat="-27.2157612" lon="151.4418814">
  <ele>366.19</ele>
  <time>2026-09-01T20:01:04Z</time>
  <course>213.06</course>
  <speed>0.0</speed>
  <fix>3d</fix>
</trkpt>
<trkpt lat="-27.2157612" lon="151.4418814">
  <ele>366.19</ele>
  <time>2026-09-01T20:01:04Z</time>
  <course>131.1</course>
  <speed>0.0</speed>
  <fix>3d</fix>
</trkpt>
<trkpt lat="-27.2157612" lon="151.4418814">
  <ele>366.19</ele>
  <time>2026-09-01T20:01:04Z</time>
  <course>213.06</course>
  <speed>0.0</speed>
  <fix>3d</fix>
</trkpt>
<trkpt lat="-27.2157612" lon="151.4418814">
  <ele>366.19</ele>
  <time>2026-09-01T20:01:04Z</time>
  <course>260.68</course>
  <speed>0.0</speed>
  <fix>3d</fix>
</trkpt>
<trkpt lat="-27.2157612" lon="151.4418814">
  <ele>366.19</ele>
  <time>2026-09-01T20:01:04Z</time>
  <course>213.06</course>
  <speed>0.0</speed>
  <fix>3d</fix>
</trkpt>
<trkpt lat="-27.2157612" lon="151.4418814">
  <ele>366.19</ele>
  <time>2026-09-01T20:01:04Z</time>
  <course>260.68</course>
  <speed>0.0</speed>
  <fix>3d</fix>
</trkpt>
<trkpt lat="-27.2157612" lon="151.4418814">
  <ele>366.19</ele>
  <time>2026-09-01T20:01:04Z</time>
  <course>213.06</course>
  <speed>0.0</speed>
  <fix>3d</fix>
</trkpt>
<trkpt lat="-27.2157612" lon="151.4418814">
  <ele>366.19</ele>
  <time>2026-09-01T20:01:04Z</time>
  <course>309.9</course>
  <speed>0.0</speed>
  <fix>3d</fix>
</trkpt>
<trkpt lat="-27.2157612" lon="151.4418814">
  <ele>366.19</ele>
  <time>2026-09-01T20:01:04Z</time>
  <course>213.06</course>
  <speed>0.0</speed>
  <fix>3d</fix>
</trkpt>
<trkpt lat="-27.2157612" lon="151.4418814">
  <ele>366.19</ele>
  <time>2026-09-01T20:01:04Z</time>
  <course>309.9</course>
  <speed>0.0</speed>
  <fix>3d</fix>
</trkpt>
<trkpt lat="-27.2157612" lon="151.4418814">
  <ele>366.19</ele>
  <time>2026-09-01T20:01:04Z</time>
  <course>213.06</course>
  <speed>0.0</speed>
  <fix>3d</fix>
</trkpt>
<trkpt lat="-27.2157612" lon="151.4418814">
  <ele>366.19</ele>
  <time>2026-09-01T20:01:04Z</time>
  <course>112.08</course>
  <speed>0.0</speed>
  <fix>3d</fix>
</trkpt>
<trkpt lat="-27.2157612" lon="151.4418814">
  <ele>366.19</ele>
  <time>2026-09-01T20:01:04Z</time>
  <course>213.06</course>
  <speed>0.0</speed>
  <fix>3d</fix>
</trkpt>
<trkpt lat="-27.2157612" lon="151.4418814">
  <ele>366.19</ele>
  <time>2026-09-01T20:01:04Z</time>
  <course>112.08</course>
  <speed>0.0</speed>
  <fix>3d</fix>
</trkpt>
<trkpt lat="-27.2157612" lon="151.4418814">
  <ele>366.19</ele>
  <time>2026-09-01T20:01:04Z</time>
  <course>213.06</course>
  <speed>0.0</speed>
  <fix>3d</fix>
</trkpt>
<trkpt lat="-27.2157612" lon="151.4418814">
  <ele>366.19</ele>
  <time>2026-09-01T20:01:04Z</time>
  <course>129.78</course>
  <speed>0.0</speed>
  <fix>3d</fix>
</trkpt>
<trkpt lat="-27.2157612" lon="151.4418814">
  <ele>366.19</ele>
  <time>2026-09-01T20:01:04Z</time>
  <course>213.06</course>
  <speed>0.0</speed>
  <fix>3d</fix>
</trkpt>
<trkpt lat="-27.2157612" lon="151.4418814">
  <ele>366.19</ele>
  <time>2026-09-01T20:01:04Z</time>
  <course>129.78</course>
  <speed>0.0</speed>
  <fix>3d</fix>
</trkpt>
<trkpt lat="-27.2157612" lon="151.4418814">
  <ele>366.19</ele>
  <time>2026-09-01T20:01:04Z</time>
  <course>213.06</course>
  <speed>0.0</speed>
  <fix>3d</fix>
</trkpt>
<trkpt lat="-27.2157612" lon="151.4418814">
  <ele>366.19</ele>
  <time>2026-09-01T20:01:04Z</time>
  <course>309.56</course>
  <speed>0.0</speed>
  <fix>3d</fix>
</trkpt>
<trkpt lat="-27.2157612" lon="151.4418814">
  <ele>366.19</ele>
  <time>2026-09-01T20:01:04Z</time>
  <course>213.06</course>
  <speed>0.0</speed>
  <fix>3d</fix>
</trkpt>
<trkpt lat="-27.2157612" lon="151.4418814">
  <ele>366.19</ele>
  <time>2026-09-01T20:01:04Z</time>
  <course>309.56</course>
  <speed>0.0</speed>
  <fix>3d</fix>
</trkpt>
<trkpt lat="-27.2157612" lon="151.4418814">
  <ele>366.19</ele>
  <time>2026-09-01T20:01:04Z</time>
  <course>213.06</course>
  <speed>0.0</speed>
  <fix>3d</fix>
</trkpt>
<trkpt lat="-27.2157612" lon="151.4418814">
  <ele>366.19</ele>
  <time>2026-09-01T20:01:04Z</time>
  <course>315.55</course>
  <speed>0.0</speed>
  <fix>3d</fix>
</trkpt>
<trkpt lat="-27.2157612" lon="151.4418814">
  <ele>366.19</ele>
  <time>2026-09-01T20:01:04Z</time>
  <course>213.06</course>
  <speed>0.0</speed>
  <fix>3d</fix>
</trkpt>
<trkpt lat="-27.2157612" lon="151.4418814">
  <ele>366.19</ele>
  <time>2026-09-01T20:01:04Z</time>
  <course>315.55</course>
  <speed>0.0</speed>
  <fix>3d</fix>
</trkpt>
<trkpt lat="-27.2157612" lon="151.4418814">
  <ele>366.19</ele>
  <time>2026-09-01T20:01:04Z</time>
  <course>213.06</course>
  <speed>0.0</speed>
  <fix>3d</fix>
</trkpt>
<trkpt lat="-27.2157612" lon="151.4418814">
  <ele>366.19</ele>
  <time>2026-09-01T20:01:04Z</time>
  <course>318.26</course>
  <speed>0.0</speed>
  <fix>3d</fix>
</trkpt>
<trkpt lat="-27.2157612" lon="151.4418814">
  <ele>366.19</ele>
  <time>2026-09-01T20:01:04Z</time>
  <course>213.06</course>
  <speed>0.0</speed>
  <fix>3d</fix>
</trkpt>
<trkpt lat="-27.2157612" lon="151.4418814">
  <ele>366.19</ele>
  <time>2026-09-01T20:01:04Z</time>
  <course>318.26</course>
  <speed>0.0</speed>
  <fix>3d</fix>
</trkpt>
<trkpt lat="-27.2157612" lon="151.4418814">
  <ele>366.19</ele>
  <time>2026-09-01T20:01:04Z</time>
  <course>213.06</course>
  <speed>0.0</speed>
  <fix>3d</fix>
</trkpt>
<trkpt lat="-27.2157612" lon="151.4418814">
  <ele>366.19</ele>
  <time>2026-09-01T20:01:04Z</time>
  <course>315.91</course>
  <speed>0.0</speed>
  <fix>3d</fix>
</trkpt>
<trkpt lat="-27.2157612" lon="151.4418814">
  <ele>366.19</ele>
  <time>2026-09-01T20:01:04Z</time>
  <course>213.06</course>
  <speed>0.0</speed>
  <fix>3d</fix>
</trkpt>
<trkpt lat="-27.2157612" lon="151.4418814">
  <ele>366.19</ele>
  <time>2026-09-01T20:01:04Z</time>
  <course>315.91</course>
  <speed>0.0</speed>
  <fix>3d</fix>
</trkpt>
<trkpt lat="-27.2157612" lon="151.4418814">
  <ele>366.19</ele>
  <time>2026-09-01T20:01:04Z</time>
  <course>213.06</course>
  <speed>0.0</speed>
  <fix>3d</fix>
</trkpt>
<trkpt lat="-27.2157612" lon="151.4418814">
  <ele>366.19</ele>
  <time>2026-09-01T20:01:04Z</time>
  <course>315.82</course>
  <speed>0.0</speed>
  <fix>3d</fix>
</trkpt>
<trkpt lat="-27.2157612" lon="151.4418814">
  <ele>366.19</ele>
  <time>2026-09-01T20:01:04Z</time>
  <course>213.06</course>
  <speed>0.0</speed>
  <fix>3d</fix>
</trkpt>
<trkpt lat="-27.2157612" lon="151.4418814">
  <ele>366.19</ele>
  <time>2026-09-01T20:01:04Z</time>
  <course>315.82</course>
  <speed>0.0</speed>
  <fix>3d</fix>
</trkpt>
<trkpt lat="-27.2157612" lon="151.4418814">
  <ele>366.19</ele>
  <time>2026-09-01T20:01:04Z</time>
  <course>213.06</course>
  <speed>0.0</speed>
  <fix>3d</fix>
</trkpt>
<trkpt lat="-27.2157612" lon="151.4418814">
  <ele>366.19</ele>
  <time>2026-09-01T20:01:04Z</time>
  <course>316.09</course>
  <speed>0.0</speed>
  <fix>3d</fix>
</trkpt>
<trkpt lat="-27.2157612" lon="151.4418814">
  <ele>366.19</ele>
  <time>2026-09-01T20:01:04Z</time>
  <course>213.06</course>
  <speed>0.0</speed>
  <fix>3d</fix>
</trkpt>
<trkpt lat="-27.2157612" lon="151.4418814">
  <ele>366.19</ele>
  <time>2026-09-01T20:01:04Z</time>
  <course>316.09</course>
  <speed>0.0</speed>
  <fix>3d</fix>
</trkpt>
<trkpt lat="-27.2157612" lon="151.4418814">
  <ele>366.19</ele>
  <time>2026-09-01T20:01:04Z</time>
  <course>213.06</course>
  <speed>0.0</speed>
  <fix>3d</fix>
</trkpt>
<trkpt lat="-27.2157612" lon="151.4418814">
  <ele>366.19</ele>
  <time>2026-09-01T20:01:04Z</time>
  <course>316.07</course>
  <speed>0.0</speed>
  <fix>3d</fix>
</trkpt>
<trkpt lat="-27.2157612" lon="151.4418814">
  <ele>366.19</ele>
  <time>2026-09-01T20:01:04Z</time>
  <course>213.06</course>
  <speed>0.0</speed>
  <fix>3d</fix>
</trkpt>
<trkpt lat="-27.2157612" lon="151.4418814">
  <ele>366.19</ele>
  <time>2026-09-01T20:01:04Z</time>
  <course>316.07</course>
  <speed>0.0</speed>
  <fix>3d</fix>
</trkpt>
<trkpt lat="-27.2157612" lon="151.4418814">
  <ele>366.19</ele>
  <time>2026-09-01T20:01:04Z</time>
  <course>213.06</course>
  <speed>0.0</speed>
  <fix>3d</fix>
</trkpt>
<trkpt lat="-27.2157612" lon="151.4418814">
  <ele>366.19</ele>
  <time>2026-09-01T20:01:04Z</time>
  <course>316.03</course>
  <speed>0.0</speed>
  <fix>3d</fix>
</trkpt>
<trkpt lat="-27.2157612" lon="151.4418814">
  <ele>366.19</ele>
  <time>2026-09-01T20:01:04Z</time>
  <course>213.06</course>
  <speed>0.0</speed>
  <fix>3d</fix>
</trkpt>
<trkpt lat="-27.2157612" lon="151.4418814">
  <ele>366.19</ele>
  <time>2026-09-01T20:01:04Z</time>
  <course>316.03</course>
  <speed>0.0</speed>
  <fix>3d</fix>
</trkpt>
<trkpt lat="-27.2157612" lon="151.4418814">
  <ele>366.19</ele>
  <time>2026-09-01T20:01:04Z</time>
  <course>213.06</course>
  <speed>0.0</speed>
  <fix>3d</fix>
</trkpt>
<trkpt lat="-27.2157612" lon="151.4418814">
  <ele>366.19</ele>
  <time>2026-09-01T20:01:04Z</time>
  <course>316.04</course>
  <speed>0.0</speed>
  <fix>3d</fix>
</trkpt>
<trkpt lat="-27.2157612" lon="151.4418814">
  <ele>366.19</ele>
  <time>2026-09-01T20:01:04Z</time>
  <course>213.06</course>
  <speed>0.0</speed>
  <fix>3d</fix>
</trkpt>
<trkpt lat="-27.2157612" lon="151.4418814">
  <ele>366.19</ele>
  <time>2026-09-01T20:01:04Z</time>
  <course>316.04</course>
  <speed>0.0</speed>
  <fix>3d</fix>
</trkpt>
<trkpt lat="-27.2157612" lon="151.4418814">
  <ele>366.19</ele>
  <time>2026-09-01T20:01:04Z</time>
  <course>213.06</course>
  <speed>0.0</speed>
  <fix>3d</fix>
</trkpt>
<trkpt lat="-27.2157612" lon="151.4418814">
  <ele>366.19</ele>
  <time>2026-09-01T20:01:04Z</time>
  <course>316.04</course>
  <speed>0.0</speed>
  <fix>3d</fix>
</trkpt>
<trkpt lat="-27.2157612" lon="151.4418814">
  <ele>366.19</ele>
  <time>2026-09-01T20:01:04Z</time>
  <course>213.06</course>
  <speed>0.0</speed>
  <fix>3d</fix>
</trkpt>
<trkpt lat="-27.2157612" lon="151.4418814">
  <ele>366.19</ele>
  <time>2026-09-01T20:01:04Z</time>
  <course>316.04</course>
  <speed>0.0</speed>
  <fix>3d</fix>
</trkpt>
<trkpt lat="-27.2157612" lon="151.4418814">
  <ele>366.19</ele>
  <time>2026-09-01T20:01:04Z</time>
  <course>213.06</course>
  <speed>0.0</speed>
  <fix>3d</fix>
</trkpt>
<trkpt lat="-27.2157612" lon="151.4418814">
  <ele>366.19</ele>
  <time>2026-09-01T20:01:04Z</time>
  <course>316.04</course>
  <speed>0.0</speed>
  <fix>3d</fix>
</trkpt>
<trkpt lat="-27.2157612" lon="151.4418814">
  <ele>366.19</ele>
  <time>2026-09-01T20:01:04Z</time>
  <course>213.06</course>
  <speed>0.0</speed>
  <fix>3d</fix>
</trkpt>
<trkpt lat="-27.2157612" lon="151.4418814">
  <ele>366.19</ele>
  <time>2026-09-01T20:01:04Z</time>
  <course>316.04</course>
  <speed>0.0</speed>
  <fix>3d</fix>
</trkpt>
<trkpt lat="-27.2157612" lon="151.4418814">
  <ele>366.19</ele>
  <time>2026-09-01T20:01:04Z</time>
  <course>213.06</course>
  <speed>0.0</speed>
  <fix>3d</fix>
</trkpt>
<trkpt lat="-27.2157612" lon="151.4418814">
  <ele>366.19</ele>
  <time>2026-09-01T20:01:04Z</time>
  <course>316.04</course>
  <speed>0.0</speed>
  <fix>3d</fix>
</trkpt>
<trkpt lat="-27.2157612" lon="151.4418814">
  <ele>366.19</ele>
  <time>2026-09-01T20:01:04Z</time>
  <course>213.06</course>
  <speed>0.0</speed>
  <fix>3d</fix>
</trkpt>
<trkpt lat="-27.2157612" lon="151.4418814">
  <ele>366.19</ele>
  <time>2026-09-01T20:01:04Z</time>
  <course>316.04</course>
  <speed>0.0</speed>
  <fix>3d</fix>
</trkpt>
<trkpt lat="-27.2157612" lon="151.4418814">
  <ele>366.19</ele>
  <time>2026-09-01T20:01:04Z</time>
  <course>213.06</course>
  <speed>0.0</speed>
  <fix>3d</fix>
</trkpt>
<trkpt lat="-27.2157612" lon="151.4418814">
  <ele>366.19</ele>
  <time>2026-09-01T20:01:04Z</time>
  <course>316.04</course>
  <speed>0.0</speed>
  <fix>3d</fix>
</trkpt>
<trkpt lat="-27.2157612" lon="151.4418814">
  <ele>366.19</ele>
  <time>2026-09-01T20:01:04Z</time>
  <course>213.06</course>
  <speed>0.0</speed>
  <fix>3d</fix>
</trkpt>
<trkpt lat="-27.2157612" lon="151.4418814">
  <ele>366.19</ele>
  <time>2026-09-01T20:01:04Z</time>
  <course>316.04</course>
  <speed>0.0</speed>
  <fix>3d</fix>
</trkpt>
<trkpt lat="-27.2157612" lon="151.4418814">
  <ele>366.19</ele>
  <time>2026-09-01T20:01:04Z</time>
  <course>213.06</course>
  <speed>0.0</speed>
  <fix>3d</fix>
</trkpt>
<trkpt lat="-27.2157612" lon="151.4418814">
  <ele>366.19</ele>
  <time>2026-09-01T20:01:04Z</time>
  <course>316.04</course>
  <speed>0.0</speed>
  <fix>3d</fix>
</trkpt>
<trkpt lat="-27.2157612" lon="151.4418814">
  <ele>366.19</ele>
  <time>2026-09-01T20:01:04Z</time>
  <course>213.06</course>
  <speed>0.0</speed>
  <fix>3d</fix>
</trkpt>
<trkpt lat="-27.2157612" lon="151.4418814">
  <ele>366.19</ele>
  <time>2026-09-01T20:01:04Z</time>
  <course>316.04</course>
  <speed>0.0</speed>
  <fix>3d</fix>
</trkpt>
<trkpt lat="-27.2157612" lon="151.4418814">
  <ele>366.19</ele>
  <time>2026-09-01T20:01:04Z</time>
  <course>213.06</course>
  <speed>0.0</speed>
  <fix>3d</fix>
</trkpt>
<trkpt lat="-27.2157612" lon="151.4418814">
  <ele>366.19</ele>
  <time>2026-09-01T20:01:04Z</time>
  <course>316.04</course>
  <speed>0.0</speed>
  <fix>3d</fix>
</trkpt>
<trkpt lat="-27.2157612" lon="151.4418814">
  <ele>366.19</ele>
  <time>2026-09-01T20:01:04Z</time>
  <course>213.06</course>
  <speed>0.0</speed>
  <fix>3d</fix>
</trkpt>
<trkpt lat="-27.2157612" lon="151.4418814">
  <ele>366.19</ele>
  <time>2026-09-01T20:01:04Z</time>
  <course>316.04</course>
  <speed>0.0</speed>
  <fix>3d</fix>
</trkpt>
<trkpt lat="-27.2157612" lon="151.4418814">
  <ele>366.19</ele>
  <time>2026-09-01T20:01:04Z</time>
  <course>213.06</course>
  <speed>0.0</speed>
  <fix>3d</fix>
</trkpt>
<trkpt lat="-27.2157612" lon="151.4418814">
  <ele>366.19</ele>
  <time>2026-09-01T20:01:04Z</time>
  <course>316.04</course>
  <speed>0.0</speed>
  <fix>3d</fix>
</trkpt>
<trkpt lat="-27.2157612" lon="151.4418814">
  <ele>366.19</ele>
  <time>2026-09-01T20:01:04Z</time>
  <course>213.06</course>
  <speed>0.0</speed>
  <fix>3d</fix>
</trkpt>
<trkpt lat="-27.2157612" lon="151.4418814">
  <ele>366.19</ele>
  <time>2026-09-01T20:01:04Z</time>
  <course>316.04</course>
  <speed>0.0</speed>
  <fix>3d</fix>
</trkpt>
<trkpt lat="-27.2157612" lon="151.4418814">
  <ele>366.19</ele>
  <time>2026-09-01T20:01:04Z</time>
  <course>213.06</course>
  <speed>0.0</speed>
  <fix>3d</fix>
</trkpt>
<trkpt lat="-27.2157612" lon="151.4418814">
  <ele>366.19</ele>
  <time>2026-09-01T20:01:04Z</time>
  <course>316.04</course>
  <speed>0.0</speed>
  <fix>3d</fix>
</trkpt>
<trkpt lat="-27.2157612" lon="151.4418814">
  <ele>366.19</ele>
  <time>2026-09-01T20:01:04Z</time>
  <course>213.06</course>
  <speed>0.0</speed>
  <fix>3d</fix>
</trkpt>
<trkpt lat="-27.2157612" lon="151.4418814">
  <ele>366.19</ele>
  <time>2026-09-01T20:01:04Z</time>
  <course>316.04</course>
  <speed>0.0</speed>
  <fix>3d</fix>
</trkpt>
<trkpt lat="-27.2157612" lon="151.4418814">
  <ele>366.19</ele>
  <time>2026-09-01T20:01:04Z</time>
  <course>213.06</course>
  <speed>0.0</speed>
  <fix>3d</fix>
</trkpt>
<trkpt lat="-27.2157612" lon="151.4418814">
  <ele>366.19</ele>
  <time>2026-09-01T20:01:04Z</time>
  <course>316.04</course>
  <speed>0.0</speed>
  <fix>3d</fix>
</trkpt>
<trkpt lat="-27.2157612" lon="151.4418814">
  <ele>366.19</ele>
  <time>2026-09-01T20:01:04Z</time>
  <course>213.06</course>
  <speed>0.0</speed>
  <fix>3d</fix>
</trkpt>
<trkpt lat="-27.2157612" lon="151.4418814">
  <ele>366.19</ele>
  <time>2026-09-01T20:01:04Z</time>
  <course>316.04</course>
  <speed>0.0</speed>
  <fix>3d</fix>
</trkpt>
<trkpt lat="-27.2157612" lon="151.4418814">
  <ele>366.19</ele>
  <time>2026-09-01T20:01:04Z</time>
  <course>213.06</course>
  <speed>0.0</speed>
  <fix>3d</fix>
</trkpt>
<trkpt lat="-27.2157612" lon="151.4418814">
  <ele>366.19</ele>
  <time>2026-09-01T20:01:04Z</time>
  <course>316.04</course>
  <speed>0.0</speed>
  <fix>3d</fix>
</trkpt>
<trkpt lat="-27.2157612" lon="151.4418814">
  <ele>366.19</ele>
  <time>2026-09-01T20:01:05Z</time>
  <course>213.06</course>
  <speed>0.0</speed>
  <fix>3d</fix>
</trkpt>
<trkpt lat="-27.2157612" lon="151.4418814">
  <ele>366.19</ele>
  <time>2026-09-01T20:01:05Z</time>
  <course>316.04</course>
  <speed>0.0</speed>
  <fix>3d</fix>
</trkpt>
<trkpt lat="-27.2157612" lon="151.4418814">
  <ele>366.19</ele>
  <time>2026-09-01T20:01:05Z</time>
  <course>213.06</course>
  <speed>0.0</speed>
  <fix>3d</fix>
</trkpt>
<trkpt lat="-27.2157612" lon="151.4418814">
  <ele>366.19</ele>
  <time>2026-09-01T20:01:05Z</time>
  <course>316.04</course>
  <speed>0.0</speed>
  <fix>3d</fix>
</trkpt>
<trkpt lat="-27.2157612" lon="151.4418814">
  <ele>366.19</ele>
  <time>2026-09-01T20:01:05Z</time>
  <course>213.06</course>
  <speed>0.0</speed>
  <fix>3d</fix>
</trkpt>
<trkpt lat="-27.2157612" lon="151.4418814">
  <ele>366.19</ele>
  <time>2026-09-01T20:01:05Z</time>
  <course>316.04</course>
  <speed>0.0</speed>
  <fix>3d</fix>
</trkpt>
<trkpt lat="-27.2157612" lon="151.4418814">
  <ele>366.19</ele>
  <time>2026-09-01T20:01:05Z</time>
  <course>213.06</course>
  <speed>0.0</speed>
  <fix>3d</fix>
</trkpt>
<trkpt lat="-27.2157612" lon="151.4418814">
  <ele>366.19</ele>
  <time>2026-09-01T20:01:05Z</time>
  <course>316.04</course>
  <speed>0.0</speed>
  <fix>3d</fix>
</trkpt>
<trkpt lat="-27.2157612" lon="151.4418814">
  <ele>366.19</ele>
  <time>2026-09-01T20:01:05Z</time>
  <course>213.06</course>
  <speed>0.0</speed>
  <fix>3d</fix>
</trkpt>
<trkpt lat="-27.2157612" lon="151.4418814">
  <ele>366.19</ele>
  <time>2026-09-01T20:01:05Z</time>
  <course>316.04</course>
  <speed>0.0</speed>
  <fix>3d</fix>
</trkpt>
<trkpt lat="-27.2157612" lon="151.4418814">
  <ele>366.19</ele>
  <time>2026-09-01T20:01:05Z</time>
  <course>213.06</course>
  <speed>0.0</speed>
  <fix>3d</fix>
</trkpt>
<trkpt lat="-27.2157612" lon="151.4418814">
  <ele>366.19</ele>
  <time>2026-09-01T20:01:05Z</time>
  <course>316.04</course>
  <speed>0.0</speed>
  <fix>3d</fix>
</trkpt>
<trkpt lat="-27.2157612" lon="151.4418814">
  <ele>366.19</ele>
  <time>2026-09-01T20:01:05Z</time>
  <course>213.06</course>
  <speed>0.0</speed>
  <fix>3d</fix>
</trkpt>
<trkpt lat="-27.2157612" lon="151.4418814">
  <ele>366.19</ele>
  <time>2026-09-01T20:01:05Z</time>
  <course>316.04</course>
  <speed>0.0</speed>
  <fix>3d</fix>
</trkpt>
<trkpt lat="-27.2157612" lon="151.4418814">
  <ele>366.19</ele>
  <time>2026-09-01T20:01:05Z</time>
  <course>213.06</course>
  <speed>0.0</speed>
  <fix>3d</fix>
</trkpt>
<trkpt lat="-27.2157612" lon="151.4418814">
  <ele>366.19</ele>
  <time>2026-09-01T20:01:05Z</time>
  <course>316.04</course>
  <speed>0.0</speed>
  <fix>3d</fix>
</trkpt>
<trkpt lat="-27.2157612" lon="151.4418814">
  <ele>366.19</ele>
  <time>2026-09-01T20:01:05Z</time>
  <course>213.06</course>
  <speed>0.0</speed>
  <fix>3d</fix>
</trkpt>
<trkpt lat="-27.2157612" lon="151.4418814">
  <ele>366.19</ele>
  <time>2026-09-01T20:01:05Z</time>
  <course>316.04</course>
  <speed>0.0</speed>
  <fix>3d</fix>
</trkpt>
<trkpt lat="-27.2157612" lon="151.4418814">
  <ele>366.19</ele>
  <time>2026-09-01T20:01:05Z</time>
  <course>213.06</course>
  <speed>0.0</speed>
  <fix>3d</fix>
</trkpt>
<trkpt lat="-27.2157612" lon="151.4418814">
  <ele>366.19</ele>
  <time>2026-09-01T20:01:05Z</time>
  <course>316.04</course>
  <speed>0.0</speed>
  <fix>3d</fix>
</trkpt>
<trkpt lat="-27.2157612" lon="151.4418814">
  <ele>366.19</ele>
  <time>2026-09-01T20:01:05Z</time>
  <course>213.06</course>
  <speed>0.0</speed>
  <fix>3d</fix>
</trkpt>
<trkpt lat="-27.2157612" lon="151.4418814">
  <ele>366.19</ele>
  <time>2026-09-01T20:01:05Z</time>
  <course>316.04</course>
  <speed>0.0</speed>
  <fix>3d</fix>
</trkpt>
<trkpt lat="-27.2157612" lon="151.4418814">
  <ele>366.19</ele>
  <time>2026-09-01T20:01:05Z</time>
  <course>213.06</course>
  <speed>0.0</speed>
  <fix>3d</fix>
</trkpt>
<trkpt lat="-27.2157612" lon="151.4418814">
  <ele>366.19</ele>
  <time>2026-09-01T20:01:05Z</time>
  <course>316.04</course>
  <speed>0.0</speed>
  <fix>3d</fix>
</trkpt>
<trkpt lat="-27.2157612" lon="151.4418814">
  <ele>366.19</ele>
  <time>2026-09-01T20:01:05Z</time>
  <course>213.06</course>
  <speed>0.0</speed>
  <fix>3d</fix>
</trkpt>
<trkpt lat="-27.2157612" lon="151.4418814">
  <ele>366.19</ele>
  <time>2026-09-01T20:01:05Z</time>
  <course>316.04</course>
  <speed>0.0</speed>
  <fix>3d</fix>
</trkpt>
<trkpt lat="-27.2157612" lon="151.4418814">
  <ele>366.19</ele>
  <time>2026-09-01T20:01:05Z</time>
  <course>213.06</course>
  <speed>0.0</speed>
  <fix>3d</fix>
</trkpt>
<trkpt lat="-27.2157612" lon="151.4418814">
  <ele>366.19</ele>
  <time>2026-09-01T20:01:05Z</time>
  <course>316.04</course>
  <speed>0.0</speed>
  <fix>3d</fix>
</trkpt>
<trkpt lat="-27.2157612" lon="151.4418814">
  <ele>366.19</ele>
  <time>2026-09-01T20:01:05Z</time>
  <course>213.06</course>
  <speed>0.0</speed>
  <fix>3d</fix>
</trkpt>
<trkpt lat="-27.2157612" lon="151.4418814">
  <ele>366.19</ele>
  <time>2026-09-01T20:01:05Z</time>
  <course>316.04</course>
  <speed>0.0</speed>
  <fix>3d</fix>
</trkpt>
<trkpt lat="-27.2157612" lon="151.4418814">
  <ele>366.19</ele>
  <time>2026-09-01T20:01:05Z</time>
  <course>213.06</course>
  <speed>0.0</speed>
  <fix>3d</fix>
</trkpt>
<trkpt lat="-27.2157612" lon="151.4418814">
  <ele>366.19</ele>
  <time>2026-09-01T20:01:05Z</time>
  <course>316.04</course>
  <speed>0.0</speed>
  <fix>3d</fix>
</trkpt>
<trkpt lat="-27.2157612" lon="151.4418814">
  <ele>366.19</ele>
  <time>2026-09-01T20:01:05Z</time>
  <course>213.06</course>
  <speed>0.0</speed>
  <fix>3d</fix>
</trkpt>
<trkpt lat="-27.2157612" lon="151.4418814">
  <ele>366.19</ele>
  <time>2026-09-01T20:01:05Z</time>
  <course>316.04</course>
  <speed>0.0</speed>
  <fix>3d</fix>
</trkpt>
<trkpt lat="-27.2157612" lon="151.4418814">
  <ele>366.19</ele>
  <time>2026-09-01T20:01:05Z</time>
  <course>213.06</course>
  <speed>0.0</speed>
  <fix>3d</fix>
</trkpt>
<trkpt lat="-27.2157612" lon="151.4418814">
  <ele>366.19</ele>
  <time>2026-09-01T20:01:05Z</time>
  <course>316.04</course>
  <speed>0.0</speed>
  <fix>3d</fix>
</trkpt>
<trkpt lat="-27.2157612" lon="151.4418814">
  <ele>366.19</ele>
  <time>2026-09-01T20:01:05Z</time>
  <course>213.06</course>
  <speed>0.0</speed>
  <fix>3d</fix>
</trkpt>
<trkpt lat="-27.2157612" lon="151.4418814">
  <ele>366.19</ele>
  <time>2026-09-01T20:01:05Z</time>
  <course>316.04</course>
  <speed>0.0</speed>
  <fix>3d</fix>
</trkpt>
<trkpt lat="-27.2157612" lon="151.4418814">
  <ele>366.19</ele>
  <time>2026-09-01T20:01:05Z</time>
  <course>213.06</course>
  <speed>0.0</speed>
  <fix>3d</fix>
</trkpt>
<trkpt lat="-27.2157612" lon="151.4418814">
  <ele>366.19</ele>
  <time>2026-09-01T20:01:05Z</time>
  <course>316.04</course>
  <speed>0.0</speed>
  <fix>3d</fix>
</trkpt>
<trkpt lat="-27.2157612" lon="151.4418814">
  <ele>366.19</ele>
  <time>2026-09-01T20:01:05Z</time>
  <course>213.06</course>
  <speed>0.0</speed>
  <fix>3d</fix>
</trkpt>
<trkpt lat="-27.2157612" lon="151.4418814">
  <ele>366.19</ele>
  <time>2026-09-01T20:01:05Z</time>
  <course>316.04</course>
  <speed>0.0</speed>
  <fix>3d</fix>
</trkpt>
<trkpt lat="-27.2157612" lon="151.4418814">
  <ele>366.19</ele>
  <time>2026-09-01T20:01:05Z</time>
  <course>213.06</course>
  <speed>0.0</speed>
  <fix>3d</fix>
</trkpt>
<trkpt lat="-27.2157612" lon="151.4418814">
  <ele>366.19</ele>
  <time>2026-09-01T20:01:05Z</time>
  <course>316.04</course>
  <speed>0.0</speed>
  <fix>3d</fix>
</trkpt>
<trkpt lat="-27.2157612" lon="151.4418814">
  <ele>366.19</ele>
  <time>2026-09-01T20:01:05Z</time>
  <course>213.06</course>
  <speed>0.0</speed>
  <fix>3d</fix>
</trkpt>
<trkpt lat="-27.2157612" lon="151.4418814">
  <ele>366.19</ele>
  <time>2026-09-01T20:01:05Z</time>
  <course>316.04</course>
  <speed>0.0</speed>
  <fix>3d</fix>
</trkpt>
<trkpt lat="-27.2157612" lon="151.4418814">
  <ele>366.19</ele>
  <time>2026-09-01T20:01:05Z</time>
  <course>213.06</course>
  <speed>0.0</speed>
  <fix>3d</fix>
</trkpt>
<trkpt lat="-27.2157612" lon="151.4418814">
  <ele>366.19</ele>
  <time>2026-09-01T20:01:05Z</time>
  <course>316.04</course>
  <speed>0.0</speed>
  <fix>3d</fix>
</trkpt>
<trkpt lat="-27.2157612" lon="151.4418814">
  <ele>366.19</ele>
  <time>2026-09-01T20:01:05Z</time>
  <course>213.06</course>
  <speed>0.0</speed>
  <fix>3d</fix>
</trkpt>
<trkpt lat="-27.2157612" lon="151.4418814">
  <ele>366.19</ele>
  <time>2026-09-01T20:01:05Z</time>
  <course>316.04</course>
  <speed>0.0</speed>
  <fix>3d</fix>
</trkpt>
<trkpt lat="-27.2157612" lon="151.4418814">
  <ele>366.19</ele>
  <time>2026-09-01T20:01:05Z</time>
  <course>213.06</course>
  <speed>0.0</speed>
  <fix>3d</fix>
</trkpt>
<trkpt lat="-27.2157612" lon="151.4418814">
  <ele>366.19</ele>
  <time>2026-09-01T20:01:05Z</time>
  <course>316.04</course>
  <speed>0.0</speed>
  <fix>3d</fix>
</trkpt>
<trkpt lat="-27.2157612" lon="151.4418814">
  <ele>366.19</ele>
  <time>2026-09-01T20:01:05Z</time>
  <course>213.06</course>
  <speed>0.0</speed>
  <fix>3d</fix>
</trkpt>
<trkpt lat="-27.2157612" lon="151.4418814">
  <ele>366.19</ele>
  <time>2026-09-01T20:01:05Z</time>
  <course>316.04</course>
  <speed>0.0</speed>
  <fix>3d</fix>
</trkpt>
<trkpt lat="-27.2157612" lon="151.4418814">
  <ele>366.19</ele>
  <time>2026-09-01T20:01:05Z</time>
  <course>213.06</course>
  <speed>0.0</speed>
  <fix>3d</fix>
</trkpt>
<trkpt lat="-27.2157612" lon="151.4418814">
  <ele>366.19</ele>
  <time>2026-09-01T20:01:05Z</time>
  <course>316.04</course>
  <speed>0.0</speed>
  <fix>3d</fix>
</trkpt>
<trkpt lat="-27.2157612" lon="151.4418814">
  <ele>366.19</ele>
  <time>2026-09-01T20:01:05Z</time>
  <course>213.06</course>
  <speed>0.0</speed>
  <fix>3d</fix>
</trkpt>
<trkpt lat="-27.2157612" lon="151.4418814">
  <ele>366.19</ele>
  <time>2026-09-01T20:01:05Z</time>
  <course>316.04</course>
  <speed>0.0</speed>
  <fix>3d</fix>
</trkpt>
<trkpt lat="-27.2157612" lon="151.4418814">
  <ele>366.19</ele>
  <time>2026-09-01T20:01:05Z</time>
  <course>213.06</course>
  <speed>0.0</speed>
  <fix>3d</fix>
</trkpt>
<trkpt lat="-27.2157612" lon="151.4418814">
  <ele>366.19</ele>
  <time>2026-09-01T20:01:05Z</time>
  <course>316.04</course>
  <speed>0.0</speed>
  <fix>3d</fix>
</trkpt>
<trkpt lat="-27.2157612" lon="151.4418814">
  <ele>366.19</ele>
  <time>2026-09-01T20:01:05Z</time>
  <course>213.06</course>
  <speed>0.0</speed>
  <fix>3d</fix>
</trkpt>
<trkpt lat="-27.2157612" lon="151.4418814">
  <ele>366.19</ele>
  <time>2026-09-01T20:01:05Z</time>
  <course>316.04</course>
  <speed>0.0</speed>
  <fix>3d</fix>
</trkpt>
<trkpt lat="-27.2157612" lon="151.4418814">
  <ele>366.19</ele>
  <time>2026-09-01T20:01:05Z</time>
  <course>213.06</course>
  <speed>0.0</speed>
  <fix>3d</fix>
</trkpt>
<trkpt lat="-27.2157612" lon="151.4418814">
  <ele>366.19</ele>
  <time>2026-09-01T20:01:05Z</time>
  <course>316.04</course>
  <speed>0.0</speed>
  <fix>3d</fix>
</trkpt>
<trkpt lat="-27.2157612" lon="151.4418814">
  <ele>366.19</ele>
  <time>2026-09-01T20:01:05Z</time>
  <course>213.06</course>
  <speed>0.0</speed>
  <fix>3d</fix>
</trkpt>
<trkpt lat="-27.2157612" lon="151.4418814">
  <ele>366.19</ele>
  <time>2026-09-01T20:01:05Z</time>
  <course>316.04</course>
  <speed>0.0</speed>
  <fix>3d</fix>
</trkpt>
<trkpt lat="-27.2157612" lon="151.4418814">
  <ele>366.19</ele>
  <time>2026-09-01T20:01:05Z</time>
  <course>213.06</course>
  <speed>0.0</speed>
  <fix>3d</fix>
</trkpt>
<trkpt lat="-27.2157612" lon="151.4418814">
  <ele>366.19</ele>
  <time>2026-09-01T20:01:05Z</time>
  <course>316.04</course>
  <speed>0.0</speed>
  <fix>3d</fix>
</trkpt>
<trkpt lat="-27.2157612" lon="151.4418814">
  <ele>366.19</ele>
  <time>2026-09-01T20:01:05Z</time>
  <course>213.06</course>
  <speed>0.0</speed>
  <fix>3d</fix>
</trkpt>
<trkpt lat="-27.2157612" lon="151.4418814">
  <ele>366.19</ele>
  <time>2026-09-01T20:01:05Z</time>
  <course>316.04</course>
  <speed>0.0</speed>
  <fix>3d</fix>
</trkpt>
<trkpt lat="-27.2157612" lon="151.4418814">
  <ele>366.19</ele>
  <time>2026-09-01T20:01:05Z</time>
  <course>213.06</course>
  <speed>0.0</speed>
  <fix>3d</fix>
</trkpt>
<trkpt lat="-27.2157612" lon="151.4418814">
  <ele>366.19</ele>
  <time>2026-09-01T20:01:05Z</time>
  <course>316.04</course>
  <speed>0.0</speed>
  <fix>3d</fix>
</trkpt>
<trkpt lat="-27.2157612" lon="151.4418814">
  <ele>366.19</ele>
  <time>2026-09-01T20:01:05Z</time>
  <course>213.06</course>
  <speed>0.0</speed>
  <fix>3d</fix>
</trkpt>
<trkpt lat="-27.2157612" lon="151.4418814">
  <ele>366.19</ele>
  <time>2026-09-01T20:01:05Z</time>
  <course>316.04</course>
  <speed>0.0</speed>
  <fix>3d</fix>
</trkpt>
<trkpt lat="-27.2157612" lon="151.4418814">
  <ele>366.19</ele>
  <time>2026-09-01T20:01:05Z</time>
  <course>213.06</course>
  <speed>0.0</speed>
  <fix>3d</fix>
</trkpt>
<trkpt lat="-27.2157612" lon="151.4418814">
  <ele>366.19</ele>
  <time>2026-09-01T20:01:05Z</time>
  <course>316.04</course>
  <speed>0.0</speed>
  <fix>3d</fix>
</trkpt>
<trkpt lat="-27.2157612" lon="151.4418814">
  <ele>366.19</ele>
  <time>2026-09-01T20:01:05Z</time>
  <course>213.06</course>
  <speed>0.0</speed>
  <fix>3d</fix>
</trkpt>
<trkpt lat="-27.2157612" lon="151.4418814">
  <ele>366.19</ele>
  <time>2026-09-01T20:01:05Z</time>
  <course>316.04</course>
  <speed>0.0</speed>
  <fix>3d</fix>
</trkpt>
<trkpt lat="-27.2157612" lon="151.4418814">
  <ele>366.19</ele>
  <time>2026-09-01T20:01:05Z</time>
  <course>213.06</course>
  <speed>0.0</speed>
  <fix>3d</fix>
</trkpt>
<trkpt lat="-27.2157612" lon="151.4418814">
  <ele>366.19</ele>
  <time>2026-09-01T20:01:05Z</time>
  <course>316.04</course>
  <speed>0.0</speed>
  <fix>3d</fix>
</trkpt>
<trkpt lat="-27.2157612" lon="151.4418814">
  <ele>366.19</ele>
  <time>2026-09-01T20:01:05Z</time>
  <course>213.06</course>
  <speed>0.0</speed>
  <fix>3d</fix>
</trkpt>
<trkpt lat="-27.2157612" lon="151.4418814">
  <ele>366.19</ele>
  <time>2026-09-01T20:01:05Z</time>
  <course>316.04</course>
  <speed>0.0</speed>
  <fix>3d</fix>
</trkpt>
<trkpt lat="-27.2157612" lon="151.4418814">
  <ele>366.19</ele>
  <time>2026-09-01T20:01:05Z</time>
  <course>213.06</course>
  <speed>0.0</speed>
  <fix>3d</fix>
</trkpt>
<trkpt lat="-27.2157612" lon="151.4418814">
  <ele>366.19</ele>
  <time>2026-09-01T20:01:05Z</time>
  <course>316.04</course>
  <speed>0.0</speed>
  <fix>3d</fix>
</trkpt>
<trkpt lat="-27.2157612" lon="151.4418814">
  <ele>366.19</ele>
  <time>2026-09-01T20:01:05Z</time>
  <course>213.06</course>
  <speed>0.0</speed>
  <fix>3d</fix>
</trkpt>
<trkpt lat="-27.2157612" lon="151.4418814">
  <ele>366.19</ele>
  <time>2026-09-01T20:01:05Z</time>
  <course>316.04</course>
  <speed>0.0</speed>
  <fix>3d</fix>
</trkpt>
<trkpt lat="-27.2157612" lon="151.4418814">
  <ele>366.19</ele>
  <time>2026-09-01T20:01:05Z</time>
  <course>213.06</course>
  <speed>0.0</speed>
  <fix>3d</fix>
</trkpt>
<trkpt lat="-27.2157612" lon="151.4418814">
  <ele>366.19</ele>
  <time>2026-09-01T20:01:05Z</time>
  <course>316.04</course>
  <speed>0.0</speed>
  <fix>3d</fix>
</trkpt>
<trkpt lat="-27.2157612" lon="151.4418814">
  <ele>366.19</ele>
  <time>2026-09-01T20:01:05Z</time>
  <course>213.06</course>
  <speed>0.0</speed>
  <fix>3d</fix>
</trkpt>
<trkpt lat="-27.2157612" lon="151.4418814">
  <ele>366.19</ele>
  <time>2026-09-01T20:01:05Z</time>
  <course>316.04</course>
  <speed>0.0</speed>
  <fix>3d</fix>
</trkpt>
<trkpt lat="-27.2157612" lon="151.4418814">
  <ele>366.19</ele>
  <time>2026-09-01T20:01:05Z</time>
  <course>213.06</course>
  <speed>0.0</speed>
  <fix>3d</fix>
</trkpt>
<trkpt lat="-27.2157612" lon="151.4418814">
  <ele>366.19</ele>
  <time>2026-09-01T20:01:05Z</time>
  <course>316.04</course>
  <speed>0.0</speed>
  <fix>3d</fix>
</trkpt>
<trkpt lat="-27.2157612" lon="151.4418814">
  <ele>366.19</ele>
  <time>2026-09-01T20:01:05Z</time>
  <course>213.06</course>
  <speed>0.0</speed>
  <fix>3d</fix>
</trkpt>
<trkpt lat="-27.2157612" lon="151.4418814">
  <ele>366.19</ele>
  <time>2026-09-01T20:01:05Z</time>
  <course>316.04</course>
  <speed>0.0</speed>
  <fix>3d</fix>
</trkpt>
<trkpt lat="-27.2157612" lon="151.4418814">
  <ele>366.19</ele>
  <time>2026-09-01T20:01:05Z</time>
  <course>213.06</course>
  <speed>0.0</speed>
  <fix>3d</fix>
</trkpt>
<trkpt lat="-27.2157612" lon="151.4418814">
  <ele>366.19</ele>
  <time>2026-09-01T20:01:05Z</time>
  <course>316.04</course>
  <speed>0.0</speed>
  <fix>3d</fix>
</trkpt>
<trkpt lat="-27.2157612" lon="151.4418814">
  <ele>366.19</ele>
  <time>2026-09-01T20:01:05Z</time>
  <course>213.06</course>
  <speed>0.0</speed>
  <fix>3d</fix>
</trkpt>
<trkpt lat="-27.2157612" lon="151.4418814">
  <ele>366.19</ele>
  <time>2026-09-01T20:01:05Z</time>
  <course>316.04</course>
  <speed>0.0</speed>
  <fix>3d</fix>
</trkpt>
<trkpt lat="-27.2157612" lon="151.4418814">
  <ele>366.19</ele>
  <time>2026-09-01T20:01:05Z</time>
  <course>213.06</course>
  <speed>0.0</speed>
  <fix>3d</fix>
</trkpt>
<trkpt lat="-27.2157612" lon="151.4418814">
  <ele>366.19</ele>
  <time>2026-09-01T20:01:05Z</time>
  <course>316.04</course>
  <speed>0.0</speed>
  <fix>3d</fix>
</trkpt>
<trkpt lat="-27.2157612" lon="151.4418814">
  <ele>366.19</ele>
  <time>2026-09-01T20:01:05Z</time>
  <course>213.06</course>
  <speed>0.0</speed>
  <fix>3d</fix>
</trkpt>
<trkpt lat="-27.2157612" lon="151.4418814">
  <ele>366.19</ele>
  <time>2026-09-01T20:01:05Z</time>
  <course>316.04</course>
  <speed>0.0</speed>
  <fix>3d</fix>
</trkpt>
<trkpt lat="-27.2157612" lon="151.4418814">
  <ele>366.19</ele>
  <time>2026-09-01T20:01:05Z</time>
  <course>213.06</course>
  <speed>0.0</speed>
  <fix>3d</fix>
</trkpt>
<trkpt lat="-27.2157612" lon="151.4418814">
  <ele>366.19</ele>
  <time>2026-09-01T20:01:05Z</time>
  <course>316.04</course>
  <speed>0.0</speed>
  <fix>3d</fix>
</trkpt>
<trkpt lat="-27.2157612" lon="151.4418814">
  <ele>366.19</ele>
  <time>2026-09-01T20:01:05Z</time>
  <course>213.06</course>
  <speed>0.0</speed>
  <fix>3d</fix>
</trkpt>
<trkpt lat="-27.2157612" lon="151.4418814">
  <ele>366.19</ele>
  <time>2026-09-01T20:01:05Z</time>
  <course>316.04</course>
  <speed>0.0</speed>
  <fix>3d</fix>
</trkpt>
<trkpt lat="-27.2157612" lon="151.4418814">
  <ele>366.19</ele>
  <time>2026-09-01T20:01:05Z</time>
  <course>213.06</course>
  <speed>0.0</speed>
  <fix>3d</fix>
</trkpt>
<trkpt lat="-27.2157612" lon="151.4418814">
  <ele>366.19</ele>
  <time>2026-09-01T20:01:05Z</time>
  <course>315.99</course>
  <speed>0.0</speed>
  <fix>3d</fix>
</trkpt>
<trkpt lat="-27.2157612" lon="151.4418814">
  <ele>366.19</ele>
  <time>2026-09-01T20:01:05Z</time>
  <course>213.06</course>
  <speed>0.0</speed>
  <fix>3d</fix>
</trkpt>
<trkpt lat="-27.2157612" lon="151.4418814">
  <ele>366.19</ele>
  <time>2026-09-01T20:01:05Z</time>
  <course>315.99</course>
  <speed>0.0</speed>
  <fix>3d</fix>
</trkpt>
<trkpt lat="-27.2157612" lon="151.4418814">
  <ele>366.19</ele>
  <time>2026-09-01T20:01:05Z</time>
  <course>213.06</course>
  <speed>0.0</speed>
  <fix>3d</fix>
</trkpt>
<trkpt lat="-27.2157612" lon="151.4418814">
  <ele>366.19</ele>
  <time>2026-09-01T20:01:05Z</time>
  <course>316.05</course>
  <speed>0.0</speed>
  <fix>3d</fix>
</trkpt>
<trkpt lat="-27.2157612" lon="151.4418814">
  <ele>366.19</ele>
  <time>2026-09-01T20:01:05Z</time>
  <course>213.06</course>
  <speed>0.0</speed>
  <fix>3d</fix>
</trkpt>
<trkpt lat="-27.2157612" lon="151.4418814">
  <ele>366.19</ele>
  <time>2026-09-01T20:01:05Z</time>
  <course>316.05</course>
  <speed>0.0</speed>
  <fix>3d</fix>
</trkpt>
<trkpt lat="-27.2157612" lon="151.4418814">
  <ele>366.19</ele>
  <time>2026-09-01T20:01:05Z</time>
  <course>213.06</course>
  <speed>0.0</speed>
  <fix>3d</fix>
</trkpt>
<trkpt lat="-27.2157612" lon="151.4418814">
  <ele>366.19</ele>
  <time>2026-09-01T20:01:05Z</time>
  <course>316.46</course>
  <speed>0.0</speed>
  <fix>3d</fix>
</trkpt>
<trkpt lat="-27.2157612" lon="151.4418814">
  <ele>366.19</ele>
  <time>2026-09-01T20:01:05Z</time>
  <course>213.06</course>
  <speed>0.0</speed>
  <fix>3d</fix>
</trkpt>
<trkpt lat="-27.2157612" lon="151.4418814">
  <ele>366.19</ele>
  <time>2026-09-01T20:01:05Z</time>
  <course>316.46</course>
  <speed>0.0</speed>
  <fix>3d</fix>
</trkpt>
<trkpt lat="-27.2157612" lon="151.4418814">
  <ele>366.19</ele>
  <time>2026-09-01T20:01:05Z</time>
  <course>213.06</course>
  <speed>0.0</speed>
  <fix>3d</fix>
</trkpt>
<trkpt lat="-27.2157612" lon="151.4418814">
  <ele>366.19</ele>
  <time>2026-09-01T20:01:05Z</time>
  <course>136.09</course>
  <speed>0.0</speed>
  <fix>3d</fix>
</trkpt>
<trkpt lat="-27.2157612" lon="151.4418814">
  <ele>366.19</ele>
  <time>2026-09-01T20:01:05Z</time>
  <course>213.06</course>
  <speed>0.0</speed>
  <fix>3d</fix>
</trkpt>
<trkpt lat="-27.2157612" lon="151.4418814">
  <ele>366.19</ele>
  <time>2026-09-01T20:01:05Z</time>
  <course>136.09</course>
  <speed>0.0</speed>
  <fix>3d</fix>
</trkpt>
<trkpt lat="-27.2157612" lon="151.4418814">
  <ele>366.19</ele>
  <time>2026-09-01T20:01:05Z</time>
  <course>213.06</course>
  <speed>0.0</speed>
  <fix>3d</fix>
</trkpt>
<trkpt lat="-27.2157612" lon="151.4418814">
  <ele>366.19</ele>
  <time>2026-09-01T20:01:05Z</time>
  <course>312.96</course>
  <speed>0.0</speed>
  <fix>3d</fix>
</trkpt>
<trkpt lat="-27.2157612" lon="151.4418814">
  <ele>366.19</ele>
  <time>2026-09-01T20:01:05Z</time>
  <course>213.06</course>
  <speed>0.0</speed>
  <fix>3d</fix>
</trkpt>
<trkpt lat="-27.2157612" lon="151.4418814">
  <ele>366.19</ele>
  <time>2026-09-01T20:01:05Z</time>
  <course>312.96</course>
  <speed>0.0</speed>
  <fix>3d</fix>
</trkpt>
<trkpt lat="-27.2157612" lon="151.4418814">
  <ele>366.19</ele>
  <time>2026-09-01T20:01:05Z</time>
  <course>213.06</course>
  <speed>0.0</speed>
  <fix>3d</fix>
</trkpt>
<trkpt lat="-27.2157612" lon="151.4418814">
  <ele>366.19</ele>
  <time>2026-09-01T20:01:05Z</time>
  <course>316.12</course>
  <speed>0.0</speed>
  <fix>3d</fix>
</trkpt>
<trkpt lat="-27.2157612" lon="151.4418814">
  <ele>366.19</ele>
  <time>2026-09-01T20:01:05Z</time>
  <course>213.06</course>
  <speed>0.0</speed>
  <fix>3d</fix>
</trkpt>
<trkpt lat="-27.2157612" lon="151.4418814">
  <ele>366.19</ele>
  <time>2026-09-01T20:01:05Z</time>
  <course>316.12</course>
  <speed>0.0</speed>
  <fix>3d</fix>
</trkpt>
<trkpt lat="-27.2157612" lon="151.4418814">
  <ele>366.19</ele>
  <time>2026-09-01T20:01:05Z</time>
  <course>213.06</course>
  <speed>0.0</speed>
  <fix>3d</fix>
</trkpt>
<trkpt lat="-27.2157612" lon="151.4418814">
  <ele>366.19</ele>
  <time>2026-09-01T20:01:05Z</time>
  <course>135.82</course>
  <speed>0.0</speed>
  <fix>3d</fix>
</trkpt>
<trkpt lat="-27.2157612" lon="151.4418814">
  <ele>366.19</ele>
  <time>2026-09-01T20:01:05Z</time>
  <course>213.06</course>
  <speed>0.0</speed>
  <fix>3d</fix>
</trkpt>
<trkpt lat="-27.2157612" lon="151.4418814">
  <ele>366.19</ele>
  <time>2026-09-01T20:01:05Z</time>
  <course>135.82</course>
  <speed>0.0</speed>
  <fix>3d</fix>
</trkpt>
<trkpt lat="-27.2157612" lon="151.4418814">
  <ele>366.19</ele>
  <time>2026-09-01T20:01:05Z</time>
  <course>213.06</course>
  <speed>0.0</speed>
  <fix>3d</fix>
</trkpt>
<trkpt lat="-27.2157612" lon="151.4418814">
  <ele>366.19</ele>
  <time>2026-09-01T20:01:05Z</time>
  <course>136.16</course>
  <speed>0.0</speed>
  <fix>3d</fix>
</trkpt>
<trkpt lat="-27.2157612" lon="151.4418814">
  <ele>366.19</ele>
  <time>2026-09-01T20:01:05Z</time>
  <course>213.06</course>
  <speed>0.0</speed>
  <fix>3d</fix>
</trkpt>
<trkpt lat="-27.2157612" lon="151.4418814">
  <ele>366.19</ele>
  <time>2026-09-01T20:01:05Z</time>
  <course>136.16</course>
  <speed>0.0</speed>
  <fix>3d</fix>
</trkpt>
<trkpt lat="-27.2157612" lon="151.4418814">
  <ele>366.19</ele>
  <time>2026-09-01T20:01:05Z</time>
  <course>213.06</course>
  <speed>0.0</speed>
  <fix>3d</fix>
</trkpt>
<trkpt lat="-27.2157612" lon="151.4418814">
  <ele>366.19</ele>
  <time>2026-09-01T20:01:05Z</time>
  <course>315.97</course>
  <speed>0.0</speed>
  <fix>3d</fix>
</trkpt>
<trkpt lat="-27.2157612" lon="151.4418814">
  <ele>366.19</ele>
  <time>2026-09-01T20:01:05Z</time>
  <course>213.06</course>
  <speed>0.0</speed>
  <fix>3d</fix>
</trkpt>
<trkpt lat="-27.2157612" lon="151.4418814">
  <ele>366.19</ele>
  <time>2026-09-01T20:01:05Z</time>
  <course>315.97</course>
  <speed>0.0</speed>
  <fix>3d</fix>
</trkpt>
<trkpt lat="-27.2157612" lon="151.4418814">
  <ele>366.25</ele>
  <time>2026-09-01T20:01:05Z</time>
  <course>212.75</course>
  <speed>0.0</speed>
  <fix>3d</fix>
</trkpt>
<trkpt lat="-27.2157612" lon="151.4418814">
  <ele>366.19</ele>
  <time>2026-09-01T20:01:05Z</time>
  <course>316.22</course>
  <speed>0.0</speed>
  <fix>3d</fix>
</trkpt>
<trkpt lat="-27.2157612" lon="151.4418814">
  <ele>366.4</ele>
  <time>2026-09-01T20:01:05Z</time>
  <course>212.74</course>
  <speed>0.0</speed>
  <fix>3d</fix>
</trkpt>
<trkpt lat="-27.2157612" lon="151.4418814">
  <ele>366.19</ele>
  <time>2026-09-01T20:01:05Z</time>
  <course>316.22</course>
  <speed>0.0</speed>
  <fix>3d</fix>
</trkpt>
<trkpt lat="-27.2157612" lon="151.4418814">
  <ele>366.42</ele>
  <time>2026-09-01T20:01:05Z</time>
  <course>212.74</course>
  <speed>0.0</speed>
  <fix>3d</fix>
</trkpt>
<trkpt lat="-27.2157612" lon="151.4418814">
  <ele>366.19</ele>
  <time>2026-09-01T20:01:05Z</time>
  <course>136.04</course>
  <speed>0.0</speed>
  <fix>3d</fix>
</trkpt>
<trkpt lat="-27.2157612" lon="151.4418814">
  <ele>366.15</ele>
  <time>2026-09-01T20:01:05Z</time>
  <course>212.73</course>
  <speed>0.0</speed>
  <fix>3d</fix>
</trkpt>
<trkpt lat="-27.2157612" lon="151.4418814">
  <ele>366.19</ele>
  <time>2026-09-01T20:01:05Z</time>
  <course>136.04</course>
  <speed>0.0</speed>
  <fix>3d</fix>
</trkpt>
<trkpt lat="-27.2157612" lon="151.4418814">
  <ele>366.37</ele>
  <time>2026-09-01T20:01:05Z</time>
  <course>212.72</course>
  <speed>0.0</speed>
  <fix>3d</fix>
</trkpt>
<trkpt lat="-27.2157612" lon="151.4418814">
  <ele>366.19</ele>
  <time>2026-09-01T20:01:05Z</time>
  <course>136.36</course>
  <speed>0.0</speed>
  <fix>3d</fix>
</trkpt>
<trkpt lat="-27.2157612" lon="151.4418814">
  <ele>366.4</ele>
  <time>2026-09-01T20:01:05Z</time>
  <course>212.72</course>
  <speed>0.0</speed>
  <fix>3d</fix>
</trkpt>
<trkpt lat="-27.2157612" lon="151.4418814">
  <ele>366.19</ele>
  <time>2026-09-01T20:01:05Z</time>
  <course>136.36</course>
  <speed>0.0</speed>
  <fix>3d</fix>
</trkpt>
<trkpt lat="-27.2157612" lon="151.4418814">
  <ele>366.4</ele>
  <time>2026-09-01T20:01:05Z</time>
  <course>212.71</course>
  <speed>0.0</speed>
  <fix>3d</fix>
</trkpt>
<trkpt lat="-27.2157612" lon="151.4418814">
  <ele>366.19</ele>
  <time>2026-09-01T20:01:05Z</time>
  <course>316.08</course>
  <speed>0.0</speed>
  <fix>3d</fix>
</trkpt>
<trkpt lat="-27.2157612" lon="151.4418814">
  <ele>366.45</ele>
  <time>2026-09-01T20:01:05Z</time>
  <course>212.7</course>
  <speed>0.0</speed>
  <fix>3d</fix>
</trkpt>
<trkpt lat="-27.2157612" lon="151.4418814">
  <ele>366.19</ele>
  <time>2026-09-01T20:01:05Z</time>
  <course>316.08</course>
  <speed>0.0</speed>
  <fix>3d</fix>
</trkpt>
<trkpt lat="-27.2157612" lon="151.4418814">
  <ele>366.44</ele>
  <time>2026-09-01T20:01:05Z</time>
  <course>212.7</course>
  <speed>0.0</speed>
  <fix>3d</fix>
</trkpt>
<trkpt lat="-27.2157612" lon="151.4418814">
  <ele>366.19</ele>
  <time>2026-09-01T20:01:05Z</time>
  <course>317.8</course>
  <speed>0.0</speed>
  <fix>3d</fix>
</trkpt>
<trkpt lat="-27.2157612" lon="151.4418814">
  <ele>366.15</ele>
  <time>2026-09-01T20:01:05Z</time>
  <course>212.69</course>
  <speed>0.0</speed>
  <fix>3d</fix>
</trkpt>
<trkpt lat="-27.2157612" lon="151.4418814">
  <ele>366.19</ele>
  <time>2026-09-01T20:01:05Z</time>
  <course>317.8</course>
  <speed>0.0</speed>
  <fix>3d</fix>
</trkpt>
<trkpt lat="-27.2157612" lon="151.4418814">
  <ele>366.16</ele>
  <time>2026-09-01T20:01:05Z</time>
  <course>212.68</course>
  <speed>0.0</speed>
  <fix>3d</fix>
</trkpt>
<trkpt lat="-27.2157612" lon="151.4418814">
  <ele>366.19</ele>
  <time>2026-09-01T20:01:05Z</time>
  <course>136.11</course>
  <speed>0.0</speed>
  <fix>3d</fix>
</trkpt>
<trkpt lat="-27.2157612" lon="151.4418814">
  <ele>366.29</ele>
  <time>2026-09-01T20:01:05Z</time>
  <course>212.68</course>
  <speed>0.0</speed>
  <fix>3d</fix>
</trkpt>
<trkpt lat="-27.2157612" lon="151.4418814">
  <ele>366.19</ele>
  <time>2026-09-01T20:01:05Z</time>
  <course>136.11</course>
  <speed>0.0</speed>
  <fix>3d</fix>
</trkpt>
<trkpt lat="-26.9720619" lon="149.6127921">
  <ele>339.29</ele>
  <time>2026-09-01T20:01:06Z</time>
  <course>310.27</course>
  <speed>0.0</speed>
  <fix>3d</fix>
</trkpt>
<trkpt lat="-26.9720619" lon="149.6127921">
  <ele>339.29</ele>
  <time>2026-09-01T20:01:06Z</time>
  <course>310.27</course>
  <speed>0.0</speed>
  <fix>3d</fix>
</trkpt>
<trkpt lat="-27.274439" lon="151.290064">
  <ele>-0.01</ele>
  <time>2026-09-01T20:01:06Z</time>
  <course>0.22</course>
  <speed>0.0</speed>
  <fix>3d</fix>
</trkpt>
<trkpt lat="-27.274439" lon="151.290064">
  <ele>343.1</ele>
  <time>2026-09-01T20:01:06Z</time>
  <course>294.58</course>
  <speed>0.0</speed>
  <fix>3d</fix>
</trkpt>
<trkpt lat="-27.274439" lon="151.290064">
  <ele>0.02</ele>
  <time>2026-09-01T20:01:06Z</time>
  <course>1.22</course>
  <speed>0.0</speed>
  <fix>3d</fix>
</trkpt>
<trkpt lat="-27.274439" lon="151.290064">
  <ele>343.1</ele>
  <time>2026-09-01T20:01:06Z</time>
  <course>294.58</course>
  <speed>0.0</speed>
  <fix>3d</fix>
</trkpt>
<trkpt lat="-27.274439" lon="151.290064">
  <ele>-0.08</ele>
  <time>2026-09-01T20:01:06Z</time>
  <course>2.11</course>
  <speed>0.0</speed>
  <fix>3d</fix>
</trkpt>
<trkpt lat="-27.274439" lon="151.290064">
  <ele>343.1</ele>
  <time>2026-09-01T20:01:06Z</time>
  <course>273.33</course>
  <speed>0.0</speed>
  <fix>3d</fix>
</trkpt>
<trkpt lat="-27.274439" lon="151.290064">
  <ele>0.22</ele>
  <time>2026-09-01T20:01:06Z</time>
  <course>2.92</course>
  <speed>0.0</speed>
  <fix>3d</fix>
</trkpt>
<trkpt lat="-27.274439" lon="151.290064">
  <ele>343.1</ele>
  <time>2026-09-01T20:01:06Z</time>
  <course>273.33</course>
  <speed>0.0</speed>
  <fix>3d</fix>
</trkpt>
<trkpt lat="-27.274439" lon="151.290064">
  <ele>0.09</ele>
  <time>2026-09-01T20:01:06Z</time>
  <course>3.65</course>
  <speed>0.0</speed>
  <fix>3d</fix>
</trkpt>
<trkpt lat="-27.274439" lon="151.290064">
  <ele>343.1</ele>
  <time>2026-09-01T20:01:06Z</time>
  <course>270.44</course>
  <speed>0.0</speed>
  <fix>3d</fix>
</trkpt>
<trkpt lat="-27.274439" lon="151.290064">
  <ele>0.08</ele>
  <time>2026-09-01T20:01:06Z</time>
  <course>4.32</course>
  <speed>0.0</speed>
  <fix>3d</fix>
</trkpt>
<trkpt lat="-27.274439" lon="151.290064">
  <ele>343.1</ele>
  <time>2026-09-01T20:01:06Z</time>
  <course>270.44</course>
  <speed>0.0</speed>
  <fix>3d</fix>
</trkpt>
<trkpt lat="-27.274439" lon="151.290064">
  <ele>0.09</ele>
  <time>2026-09-01T20:01:06Z</time>
  <course>4.92</course>
  <speed>0.0</speed>
  <fix>3d</fix>
</trkpt>
<trkpt lat="-27.274439" lon="151.290064">
  <ele>343.1</ele>
  <time>2026-09-01T20:01:06Z</time>
  <course>270.05</course>
  <speed>0.0</speed>
  <fix>3d</fix>
</trkpt>
<trkpt lat="-27.274439" lon="151.290064">
  <ele>-0.05</ele>
  <time>2026-09-01T20:01:06Z</time>
  <course>5.46</course>
  <speed>0.0</speed>
  <fix>3d</fix>
</trkpt>
<trkpt lat="-27.274439" lon="151.290064">
  <ele>343.1</ele>
  <time>2026-09-01T20:01:06Z</time>
  <course>270.05</course>
  <speed>0.0</speed>
  <fix>3d</fix>
</trkpt>
<trkpt lat="-27.274439" lon="151.290064">
  <ele>343.06</ele>
  <time>2026-09-01T20:01:06Z</time>
  <course>5.94</course>
  <speed>0.0</speed>
  <fix>3d</fix>
</trkpt>
<trkpt lat="-27.274439" lon="151.290064">
  <ele>343.1</ele>
  <time>2026-09-01T20:01:06Z</time>
  <course>270.0</course>
  <speed>0.0</speed>
  <fix>3d</fix>
</trkpt>
<trkpt lat="-27.274439" lon="151.290064">
  <ele>343.18</ele>
  <time>2026-09-01T20:01:06Z</time>
  <course>6.4</course>
  <speed>0.0</speed>
  <fix>3d</fix>
</trkpt>
<trkpt lat="-27.274439" lon="151.290064">
  <ele>343.1</ele>
  <time>2026-09-01T20:01:06Z</time>
  <course>270.0</course>
  <speed>0.0</speed>
  <fix>3d</fix>
</trkpt>
<trkpt lat="-27.274439" lon="151.290064">
  <ele>342.91</ele>
  <time>2026-09-01T20:01:06Z</time>
  <course>6.81</course>
  <speed>0.0</speed>
  <fix>3d</fix>
</trkpt>
<trkpt lat="-27.274439" lon="151.290064">
  <ele>343.1</ele>
  <time>2026-09-01T20:01:06Z</time>
  <course>270.0</course>
  <speed>0.0</speed>
  <fix>3d</fix>
</trkpt>
<trkpt lat="-27.274439" lon="151.290064">
  <ele>343.06</ele>
  <time>2026-09-01T20:01:06Z</time>
  <course>7.19</course>
  <speed>0.0</speed>
  <fix>3d</fix>
</trkpt>
<trkpt lat="-27.274439" lon="151.290064">
  <ele>343.1</ele>
  <time>2026-09-01T20:01:06Z</time>
  <course>270.0</course>
  <speed>0.0</speed>
  <fix>3d</fix>
</trkpt>
<trkpt lat="-27.274439" lon="151.290064">
  <ele>343.13</ele>
  <time>2026-09-01T20:01:06Z</time>
  <course>7.53</course>
  <speed>0.0</speed>
  <fix>3d</fix>
</trkpt>
<trkpt lat="-27.274439" lon="151.290064">
  <ele>343.1</ele>
  <time>2026-09-01T20:01:06Z</time>
  <course>270.0</course>
  <speed>0.0</speed>
  <fix>3d</fix>
</trkpt>
<trkpt lat="-27.274439" lon="151.290064">
  <ele>343.04</ele>
  <time>2026-09-01T20:01:06Z</time>
  <course>7.84</course>
  <speed>0.0</speed>
  <fix>3d</fix>
</trkpt>
<trkpt lat="-27.274439" lon="151.290064">
  <ele>343.1</ele>
  <time>2026-09-01T20:01:06Z</time>
  <course>270.0</course>
  <speed>0.0</speed>
  <fix>3d</fix>
</trkpt>
<trkpt lat="-27.274439" lon="151.290064">
  <ele>342.88</ele>
  <time>2026-09-01T20:01:06Z</time>
  <course>8.12</course>
  <speed>0.0</speed>
  <fix>3d</fix>
</trkpt>
<trkpt lat="-27.274439" lon="151.290064">
  <ele>343.1</ele>
  <time>2026-09-01T20:01:06Z</time>
  <course>270.0</course>
  <speed>0.0</speed>
  <fix>3d</fix>
</trkpt>
<trkpt lat="-27.274439" lon="151.290064">
  <ele>343.02</ele>
  <time>2026-09-01T20:01:06Z</time>
  <course>8.37</course>
  <speed>0.0</speed>
  <fix>3d</fix>
</trkpt>
<trkpt lat="-27.274439" lon="151.290064">
  <ele>343.1</ele>
  <time>2026-09-01T20:01:06Z</time>
  <course>270.0</course>
  <speed>0.0</speed>
  <fix>3d</fix>
</trkpt>
<trkpt lat="-27.274439" lon="151.290064">
  <ele>343.23</ele>
  <time>2026-09-01T20:01:06Z</time>
  <course>8.61</course>
  <speed>0.0</speed>
  <fix>3d</fix>
</trkpt>
<trkpt lat="-27.274439" lon="151.290064">
  <ele>343.1</ele>
  <time>2026-09-01T20:01:06Z</time>
  <course>270.0</course>
  <speed>0.0</speed>
  <fix>3d</fix>
</trkpt>
<trkpt lat="-27.274439" lon="151.290064">
  <ele>343.17</ele>
  <time>2026-09-01T20:01:06Z</time>
  <course>8.81</course>
  <speed>0.0</speed>
  <fix>3d</fix>
</trkpt>
<trkpt lat="-27.274439" lon="151.290064">
  <ele>343.1</ele>
  <time>2026-09-01T20:01:06Z</time>
  <course>270.0</course>
  <speed>0.0</speed>
  <fix>3d</fix>
</trkpt>
<trkpt lat="-27.274439" lon="151.290064">
  <ele>343.04</ele>
  <time>2026-09-01T20:01:06Z</time>
  <course>8.99</course>
  <speed>0.0</speed>
  <fix>3d</fix>
</trkpt>
<trkpt lat="-27.274439" lon="151.290064">
  <ele>343.1</ele>
  <time>2026-09-01T20:01:06Z</time>
  <course>270.0</course>
  <speed>0.0</speed>
  <fix>3d</fix>
</trkpt>
<trkpt lat="-27.274439" lon="151.290064">
  <ele>342.89</ele>
  <time>2026-09-01T20:01:06Z</time>
  <course>9.16</course>
  <speed>0.0</speed>
  <fix>3d</fix>
</trkpt>
<trkpt lat="-27.274439" lon="151.290064">
  <ele>343.1</ele>
  <time>2026-09-01T20:01:06Z</time>
  <course>270.0</course>
  <speed>0.0</speed>
  <fix>3d</fix>
</trkpt>
<trkpt lat="-27.274439" lon="151.290064">
  <ele>343.08</ele>
  <time>2026-09-01T20:01:06Z</time>
  <course>9.31</course>
  <speed>0.0</speed>
  <fix>3d</fix>
</trkpt>
<trkpt lat="-27.274439" lon="151.290064">
  <ele>343.1</ele>
  <time>2026-09-01T20:01:06Z</time>
  <course>270.0</course>
  <speed>0.0</speed>
  <fix>3d</fix>
</trkpt>
<trkpt lat="-27.274439" lon="151.290064">
  <ele>343.19</ele>
  <time>2026-09-01T20:01:06Z</time>
  <course>9.45</course>
  <speed>0.0</speed>
  <fix>3d</fix>
</trkpt>
<trkpt lat="-27.274439" lon="151.290064">
  <ele>343.1</ele>
  <time>2026-09-01T20:01:06Z</time>
  <course>270.0</course>
  <speed>0.0</speed>
  <fix>3d</fix>
</trkpt>
<trkpt lat="-27.274439" lon="151.290064">
  <ele>342.88</ele>
  <time>2026-09-01T20:01:06Z</time>
  <course>9.58</course>
  <speed>0.0</speed>
  <fix>3d</fix>
</trkpt>
<trkpt lat="-27.274439" lon="151.290064">
  <ele>343.1</ele>
  <time>2026-09-01T20:01:06Z</time>
  <course>270.0</course>
  <speed>0.0</speed>
  <fix>3d</fix>
</trkpt>
<trkpt lat="-27.274439" lon="151.290064">
  <ele>343.17</ele>
  <time>2026-09-01T20:01:06Z</time>
  <course>9.69</course>
  <speed>0.0</speed>
  <fix>3d</fix>
</trkpt>
<trkpt lat="-27.274439" lon="151.290064">
  <ele>343.1</ele>
  <time>2026-09-01T20:01:06Z</time>
  <course>270.0</course>
  <speed>0.0</speed>
  <fix>3d</fix>
</trkpt>
<trkpt lat="-27.274439" lon="151.290064">
  <ele>342.89</ele>
  <time>2026-09-01T20:01:06Z</time>
  <course>9.79</course>
  <speed>0.0</speed>
  <fix>3d</fix>
</trkpt>
<trkpt lat="-27.274439" lon="151.290064">
  <ele>343.1</ele>
  <time>2026-09-01T20:01:06Z</time>
  <course>270.0</course>
  <speed>0.0</speed>
  <fix>3d</fix>
</trkpt>
<trkpt lat="-27.274439" lon="151.290064">
  <ele>342.99</ele>
  <time>2026-09-01T20:01:06Z</time>
  <course>9.88</course>
  <speed>0.0</speed>
  <fix>3d</fix>
</trkpt>
<trkpt lat="-27.274439" lon="151.290064">
  <ele>343.1</ele>
  <time>2026-09-01T20:01:06Z</time>
  <course>270.0</course>
  <speed>0.0</speed>
  <fix>3d</fix>
</trkpt>
<trkpt lat="-27.274439" lon="151.290064">
  <ele>342.87</ele>
  <time>2026-09-01T20:01:06Z</time>
  <course>9.97</course>
  <speed>0.0</speed>
  <fix>3d</fix>
</trkpt>
<trkpt lat="-27.274439" lon="151.290064">
  <ele>343.1</ele>
  <time>2026-09-01T20:01:06Z</time>
  <course>270.0</course>
  <speed>0.0</speed>
  <fix>3d</fix>
</trkpt>
<trkpt lat="-27.274439" lon="151.290064">
  <ele>343.09</ele>
  <time>2026-09-01T20:01:06Z</time>
  <course>10.05</course>
  <speed>0.0</speed>
  <fix>3d</fix>
</trkpt>
<trkpt lat="-27.274439" lon="151.290064">
  <ele>343.1</ele>
  <time>2026-09-01T20:01:06Z</time>
  <course>270.0</course>
  <speed>0.0</speed>
  <fix>3d</fix>
</trkpt>
<trkpt lat="-27.274439" lon="151.290064">
  <ele>343.18</ele>
  <time>2026-09-01T20:01:06Z</time>
  <course>10.12</course>
  <speed>0.0</speed>
  <fix>3d</fix>
</trkpt>
<trkpt lat="-27.274439" lon="151.290064">
  <ele>343.1</ele>
  <time>2026-09-01T20:01:06Z</time>
  <course>270.0</course>
  <speed>0.0</speed>
  <fix>3d</fix>
</trkpt>
<trkpt lat="-27.274439" lon="151.290064">
  <ele>343.05</ele>
  <time>2026-09-01T20:01:06Z</time>
  <course>10.19</course>
  <speed>0.0</speed>
  <fix>3d</fix>
</trkpt>
<trkpt lat="-27.274439" lon="151.290064">
  <ele>343.1</ele>
  <time>2026-09-01T20:01:06Z</time>
  <course>270.0</course>
  <speed>0.0</speed>
  <fix>3d</fix>
</trkpt>
<trkpt lat="-27.274439" lon="151.290064">
  <ele>342.96</ele>
  <time>2026-09-01T20:01:06Z</time>
  <course>10.25</course>
  <speed>0.0</speed>
  <fix>3d</fix>
</trkpt>
<trkpt lat="-27.274439" lon="151.290064">
  <ele>343.1</ele>
  <time>2026-09-01T20:01:06Z</time>
  <course>270.0</course>
  <speed>0.0</speed>
  <fix>3d</fix>
</trkpt>
<trkpt lat="-27.274439" lon="151.290064">
  <ele>343.1</ele>
  <time>2026-09-01T20:01:06Z</time>
  <course>10.3</course>
  <speed>0.0</speed>
  <fix>3d</fix>
</trkpt>
<trkpt lat="-27.274439" lon="151.290064">
  <ele>343.1</ele>
  <time>2026-09-01T20:01:06Z</time>
  <course>270.0</course>
  <speed>0.0</speed>
  <fix>3d</fix>
</trkpt>
<trkpt lat="-27.274439" lon="151.290064">
  <ele>343.22</ele>
  <time>2026-09-01T20:01:06Z</time>
  <course>10.35</course>
  <speed>0.0</speed>
  <fix>3d</fix>
</trkpt>
<trkpt lat="-27.274439" lon="151.290064">
  <ele>343.1</ele>
  <time>2026-09-01T20:01:06Z</time>
  <course>270.0</course>
  <speed>0.0</speed>
  <fix>3d</fix>
</trkpt>
<trkpt lat="-27.274439" lon="151.290064">
  <ele>343.17</ele>
  <time>2026-09-01T20:01:06Z</time>
  <course>10.39</course>
  <speed>0.0</speed>
  <fix>3d</fix>
</trkpt>
<trkpt lat="-27.274439" lon="151.290064">
  <ele>343.1</ele>
  <time>2026-09-01T20:01:06Z</time>
  <course>270.0</course>
  <speed>0.0</speed>
  <fix>3d</fix>
</trkpt>
<trkpt lat="-27.274439" lon="151.290064">
  <ele>343.08</ele>
  <time>2026-09-01T20:01:06Z</time>
  <course>10.43</course>
  <speed>0.0</speed>
  <fix>3d</fix>
</trkpt>
<trkpt lat="-27.274439" lon="151.290064">
  <ele>343.1</ele>
  <time>2026-09-01T20:01:06Z</time>
  <course>270.0</course>
  <speed>0.0</speed>
  <fix>3d</fix>
</trkpt>
<trkpt lat="-27.274439" lon="151.290064">
  <ele>343.04</ele>
  <time>2026-09-01T20:01:06Z</time>
  <course>10.47</course>
  <speed>0.0</speed>
  <fix>3d</fix>
</trkpt>
<trkpt lat="-27.274439" lon="151.290064">
  <ele>343.1</ele>
  <time>2026-09-01T20:01:06Z</time>
  <course>270.0</course>
  <speed>0.0</speed>
  <fix>3d</fix>
</trkpt>
<trkpt lat="-27.274439" lon="151.290064">
  <ele>343.18</ele>
  <time>2026-09-01T20:01:06Z</time>
  <course>10.5</course>
  <speed>0.0</speed>
  <fix>3d</fix>
</trkpt>
<trkpt lat="-27.274439" lon="151.290064">
  <ele>343.1</ele>
  <time>2026-09-01T20:01:06Z</time>
  <course>270.0</course>
  <speed>0.0</speed>
  <fix>3d</fix>
</trkpt>
<trkpt lat="-27.274439" lon="151.290064">
  <ele>343.12</ele>
  <time>2026-09-01T20:01:06Z</time>
  <course>10.53</course>
  <speed>0.0</speed>
  <fix>3d</fix>
</trkpt>
<trkpt lat="-27.274439" lon="151.290064">
  <ele>343.1</ele>
  <time>2026-09-01T20:01:06Z</time>
  <course>270.0</course>
  <speed>0.0</speed>
  <fix>3d</fix>
</trkpt>
<trkpt lat="-27.274439" lon="151.290064">
  <ele>343.04</ele>
  <time>2026-09-01T20:01:06Z</time>
  <course>10.55</course>
  <speed>0.0</speed>
  <fix>3d</fix>
</trkpt>
<trkpt lat="-27.274439" lon="151.290064">
  <ele>343.1</ele>
  <time>2026-09-01T20:01:06Z</time>
  <course>270.0</course>
  <speed>0.0</speed>
  <fix>3d</fix>
</trkpt>
<trkpt lat="-27.274439" lon="151.290064">
  <ele>343.07</ele>
  <time>2026-09-01T20:01:06Z</time>
  <course>10.58</course>
  <speed>0.0</speed>
  <fix>3d</fix>
</trkpt>
<trkpt lat="-27.274439" lon="151.290064">
  <ele>343.1</ele>
  <time>2026-09-01T20:01:06Z</time>
  <course>270.0</course>
  <speed>0.0</speed>
  <fix>3d</fix>
</trkpt>
<trkpt lat="-27.274439" lon="151.290064">
  <ele>343.04</ele>
  <time>2026-09-01T20:01:06Z</time>
  <course>10.6</course>
  <speed>0.0</speed>
  <fix>3d</fix>
</trkpt>
<trkpt lat="-27.274439" lon="151.290064">
  <ele>343.1</ele>
  <time>2026-09-01T20:01:06Z</time>
  <course>270.0</course>
  <speed>0.0</speed>
  <fix>3d</fix>
</trkpt>
<trkpt lat="-27.274439" lon="151.290064">
  <ele>343.01</ele>
  <time>2026-09-01T20:01:06Z</time>
  <course>10.62</course>
  <speed>0.0</speed>
  <fix>3d</fix>
</trkpt>
<trkpt lat="-27.274439" lon="151.290064">
  <ele>343.1</ele>
  <time>2026-09-01T20:01:06Z</time>
  <course>270.0</course>
  <speed>0.0</speed>
  <fix>3d</fix>
</trkpt>
<trkpt lat="-27.274439" lon="151.290064">
  <ele>343.2</ele>
  <time>2026-09-01T20:01:06Z</time>
  <course>10.63</course>
  <speed>0.0</speed>
  <fix>3d</fix>
</trkpt>
<trkpt lat="-27.274439" lon="151.290064">
  <ele>343.1</ele>
  <time>2026-09-01T20:01:06Z</time>
  <course>270.0</course>
  <speed>0.0</speed>
  <fix>3d</fix>
</trkpt>
<trkpt lat="-27.274439" lon="151.290064">
  <ele>343.24</ele>
  <time>2026-09-01T20:01:06Z</time>
  <course>10.65</course>
  <speed>0.0</speed>
  <fix>3d</fix>
</trkpt>
<trkpt lat="-27.274439" lon="151.290064">
  <ele>343.1</ele>
  <time>2026-09-01T20:01:06Z</time>
  <course>270.0</course>
  <speed>0.0</speed>
  <fix>3d</fix>
</trkpt>
<trkpt lat="-27.274439" lon="151.290064">
  <ele>342.88</ele>
  <time>2026-09-01T20:01:06Z</time>
  <course>10.66</course>
  <speed>0.0</speed>
  <fix>3d</fix>
</trkpt>
<trkpt lat="-27.274439" lon="151.290064">
  <ele>343.1</ele>
  <time>2026-09-01T20:01:06Z</time>
  <course>270.0</course>
  <speed>0.0</speed>
  <fix>3d</fix>
</trkpt>
<trkpt lat="-27.274439" lon="151.290064">
  <ele>343.21</ele>
  <time>2026-09-01T20:01:06Z</time>
  <course>10.68</course>
  <speed>0.0</speed>
  <fix>3d</fix>
</trkpt>
<trkpt lat="-27.274439" lon="151.290064">
  <ele>343.1</ele>
  <time>2026-09-01T20:01:06Z</time>
  <course>270.0</course>
  <speed>0.0</speed>
  <fix>3d</fix>
</trkpt>
<trkpt lat="-27.274439" lon="151.290064">
  <ele>343.02</ele>
  <time>2026-09-01T20:01:06Z</time>
  <course>10.69</course>
  <speed>0.0</speed>
  <fix>3d</fix>
</trkpt>
<trkpt lat="-27.274439" lon="151.290064">
  <ele>343.1</ele>
  <time>2026-09-01T20:01:06Z</time>
  <course>270.0</course>
  <speed>0.0</speed>
  <fix>3d</fix>
</trkpt>
<trkpt lat="-27.274439" lon="151.290064">
  <ele>342.93</ele>
  <time>2026-09-01T20:01:06Z</time>
  <course>10.7</course>
  <speed>0.0</speed>
  <fix>3d</fix>
</trkpt>
<trkpt lat="-27.274439" lon="151.290064">
  <ele>343.1</ele>
  <time>2026-09-01T20:01:06Z</time>
  <course>270.0</course>
  <speed>0.0</speed>
  <fix>3d</fix>
</trkpt>
<trkpt lat="-27.274439" lon="151.290064">
  <ele>343.07</ele>
  <time>2026-09-01T20:01:06Z</time>
  <course>10.71</course>
  <speed>0.0</speed>
  <fix>3d</fix>
</trkpt>
<trkpt lat="-27.274439" lon="151.290064">
  <ele>343.1</ele>
  <time>2026-09-01T20:01:06Z</time>
  <course>270.0</course>
  <speed>0.0</speed>
  <fix>3d</fix>
</trkpt>
<trkpt lat="-27.274439" lon="151.290064">
  <ele>342.94</ele>
  <time>2026-09-01T20:01:06Z</time>
  <course>10.72</course>
  <speed>0.0</speed>
  <fix>3d</fix>
</trkpt>
<trkpt lat="-27.274439" lon="151.290064">
  <ele>343.1</ele>
  <time>2026-09-01T20:01:06Z</time>
  <course>270.0</course>
  <speed>0.0</speed>
  <fix>3d</fix>
</trkpt>
<trkpt lat="-27.274439" lon="151.290064">
  <ele>343.11</ele>
  <time>2026-09-01T20:01:06Z</time>
  <course>10.73</course>
  <speed>0.0</speed>
  <fix>3d</fix>
</trkpt>
<trkpt lat="-27.274439" lon="151.290064">
  <ele>343.1</ele>
  <time>2026-09-01T20:01:06Z</time>
  <course>270.0</course>
  <speed>0.0</speed>
  <fix>3d</fix>
</trkpt>
<trkpt lat="-27.274439" lon="151.290064">
  <ele>343.24</ele>
  <time>2026-09-01T20:01:06Z</time>
  <course>10.73</course>
  <speed>0.0</speed>
  <fix>3d</fix>
</trkpt>
<trkpt lat="-27.274439" lon="151.290064">
  <ele>343.1</ele>
  <time>2026-09-01T20:01:06Z</time>
  <course>270.0</course>
  <speed>0.0</speed>
  <fix>3d</fix>
</trkpt>
<trkpt lat="-27.274439" lon="151.290064">
  <ele>343.18</ele>
  <time>2026-09-01T20:01:06Z</time>
  <course>10.74</course>
  <speed>0.0</speed>
  <fix>3d</fix>
</trkpt>
<trkpt lat="-27.274439" lon="151.290064">
  <ele>343.1</ele>
  <time>2026-09-01T20:01:06Z</time>
  <course>270.0</course>
  <speed>0.0</speed>
  <fix>3d</fix>
</trkpt>
<trkpt lat="-27.274439" lon="151.290064">
  <ele>342.89</ele>
  <time>2026-09-01T20:01:06Z</time>
  <course>10.74</course>
  <speed>0.0</speed>
  <fix>3d</fix>
</trkpt>
<trkpt lat="-27.274439" lon="151.290064">
  <ele>343.1</ele>
  <time>2026-09-01T20:01:06Z</time>
  <course>270.0</course>
  <speed>0.0</speed>
  <fix>3d</fix>
</trkpt>
<trkpt lat="-27.274439" lon="151.290064">
  <ele>343.23</ele>
  <time>2026-09-01T20:01:06Z</time>
  <course>10.75</course>
  <speed>0.0</speed>
  <fix>3d</fix>
</trkpt>
<trkpt lat="-27.274439" lon="151.290064">
  <ele>343.1</ele>
  <time>2026-09-01T20:01:06Z</time>
  <course>270.0</course>
  <speed>0.0</speed>
  <fix>3d</fix>
</trkpt>
<trkpt lat="-27.274439" lon="151.290064">
  <ele>343.23</ele>
  <time>2026-09-01T20:01:06Z</time>
  <course>10.75</course>
  <speed>0.0</speed>
  <fix>3d</fix>
</trkpt>
<trkpt lat="-27.274439" lon="151.290064">
  <ele>343.1</ele>
  <time>2026-09-01T20:01:06Z</time>
  <course>270.0</course>
  <speed>0.0</speed>
  <fix>3d</fix>
</trkpt>
<trkpt lat="-27.274439" lon="151.290064">
  <ele>342.99</ele>
  <time>2026-09-01T20:01:06Z</time>
  <course>10.76</course>
  <speed>0.0</speed>
  <fix>3d</fix>
</trkpt>
<trkpt lat="-27.274439" lon="151.290064">
  <ele>343.1</ele>
  <time>2026-09-01T20:01:06Z</time>
  <course>270.0</course>
  <speed>0.0</speed>
  <fix>3d</fix>
</trkpt>
<trkpt lat="-27.274439" lon="151.290064">
  <ele>343.13</ele>
  <time>2026-09-01T20:01:06Z</time>
  <course>10.76</course>
  <speed>0.0</speed>
  <fix>3d</fix>
</trkpt>
<trkpt lat="-27.274439" lon="151.290064">
  <ele>343.1</ele>
  <time>2026-09-01T20:01:06Z</time>
  <course>270.0</course>
  <speed>0.0</speed>
  <fix>3d</fix>
</trkpt>
<trkpt lat="-27.274439" lon="151.290064">
  <ele>343.07</ele>
  <time>2026-09-01T20:01:06Z</time>
  <course>10.77</course>
  <speed>0.0</speed>
  <fix>3d</fix>
</trkpt>
<trkpt lat="-27.274439" lon="151.290064">
  <ele>343.1</ele>
  <time>2026-09-01T20:01:06Z</time>
  <course>270.0</course>
  <speed>0.0</speed>
  <fix>3d</fix>
</trkpt>
<trkpt lat="-27.274439" lon="151.290064">
  <ele>343.19</ele>
  <time>2026-09-01T20:01:06Z</time>
  <course>10.77</course>
  <speed>0.0</speed>
  <fix>3d</fix>
</trkpt>
<trkpt lat="-27.274439" lon="151.290064">
  <ele>343.1</ele>
  <time>2026-09-01T20:01:06Z</time>
  <course>270.0</course>
  <speed>0.0</speed>
  <fix>3d</fix>
</trkpt>
<trkpt lat="-27.274439" lon="151.290064">
  <ele>342.93</ele>
  <time>2026-09-01T20:01:06Z</time>
  <course>10.77</course>
  <speed>0.0</speed>
  <fix>3d</fix>
</trkpt>
<trkpt lat="-27.274439" lon="151.290064">
  <ele>343.1</ele>
  <time>2026-09-01T20:01:06Z</time>
  <course>270.0</course>
  <speed>0.0</speed>
  <fix>3d</fix>
</trkpt>
<trkpt lat="-27.274439" lon="151.290064">
  <ele>343.19</ele>
  <time>2026-09-01T20:01:06Z</time>
  <course>10.78</course>
  <speed>0.0</speed>
  <fix>3d</fix>
</trkpt>
<trkpt lat="-27.274439" lon="151.290064">
  <ele>343.1</ele>
  <time>2026-09-01T20:01:06Z</time>
  <course>270.0</course>
  <speed>0.0</speed>
  <fix>3d</fix>
</trkpt>
<trkpt lat="-27.274439" lon="151.290064">
  <ele>343.1</ele>
  <time>2026-09-01T20:01:06Z</time>
  <course>10.78</course>
  <speed>0.0</speed>
  <fix>3d</fix>
</trkpt>
<trkpt lat="-27.274439" lon="151.290064">
  <ele>343.1</ele>
  <time>2026-09-01T20:01:06Z</time>
  <course>270.0</course>
  <speed>0.0</speed>
  <fix>3d</fix>
</trkpt>
<trkpt lat="-27.274439" lon="151.290064">
  <ele>343.01</ele>
  <time>2026-09-01T20:01:06Z</time>
  <course>10.78</course>
  <speed>0.0</speed>
  <fix>3d</fix>
</trkpt>
<trkpt lat="-27.274439" lon="151.290064">
  <ele>343.1</ele>
  <time>2026-09-01T20:01:06Z</time>
  <course>270.0</course>
  <speed>0.0</speed>
  <fix>3d</fix>
</trkpt>
<trkpt lat="-27.274439" lon="151.290064">
  <ele>343.11</ele>
  <time>2026-09-01T20:01:06Z</time>
  <course>10.78</course>
  <speed>0.0</speed>
  <fix>3d</fix>
</trkpt>
<trkpt lat="-27.274439" lon="151.290064">
  <ele>343.1</ele>
  <time>2026-09-01T20:01:06Z</time>
  <course>270.0</course>
  <speed>0.0</speed>
  <fix>3d</fix>
</trkpt>
<trkpt lat="-27.274439" lon="151.290064">
  <ele>342.96</ele>
  <time>2026-09-01T20:01:06Z</time>
  <course>10.78</course>
  <speed>0.0</speed>
  <fix>3d</fix>
</trkpt>
<trkpt lat="-27.274439" lon="151.290064">
  <ele>343.1</ele>
  <time>2026-09-01T20:01:06Z</time>
  <course>270.0</course>
  <speed>0.0</speed>
  <fix>3d</fix>
</trkpt>
<trkpt lat="-27.274439" lon="151.290064">
  <ele>343.19</ele>
  <time>2026-09-01T20:01:06Z</time>
  <course>10.78</course>
  <speed>0.0</speed>
  <fix>3d</fix>
</trkpt>
<trkpt lat="-27.274439" lon="151.290064">
  <ele>343.1</ele>
  <time>2026-09-01T20:01:06Z</time>
  <course>270.0</course>
  <speed>0.0</speed>
  <fix>3d</fix>
</trkpt>
<trkpt lat="-27.274439" lon="151.290064">
  <ele>343.0</ele>
  <time>2026-09-01T20:01:06Z</time>
  <course>10.79</course>
  <speed>0.0</speed>
  <fix>3d</fix>
</trkpt>
<trkpt lat="-27.274439" lon="151.290064">
  <ele>343.1</ele>
  <time>2026-09-01T20:01:06Z</time>
  <course>270.0</course>
  <speed>0.0</speed>
  <fix>3d</fix>
</trkpt>
<trkpt lat="-27.274439" lon="151.290064">
  <ele>343.2</ele>
  <time>2026-09-01T20:01:06Z</time>
  <course>10.79</course>
  <speed>0.0</speed>
  <fix>3d</fix>
</trkpt>
<trkpt lat="-27.274439" lon="151.290064">
  <ele>343.1</ele>
  <time>2026-09-01T20:01:06Z</time>
  <course>270.0</course>
  <speed>0.0</speed>
  <fix>3d</fix>
</trkpt>
<trkpt lat="-27.274439" lon="151.290064">
  <ele>343.2</ele>
  <time>2026-09-01T20:01:06Z</time>
  <course>10.79</course>
  <speed>0.0</speed>
  <fix>3d</fix>
</trkpt>
<trkpt lat="-27.274439" lon="151.290064">
  <ele>343.1</ele>
  <time>2026-09-01T20:01:06Z</time>
  <course>270.0</course>
  <speed>0.0</speed>
  <fix>3d</fix>
</trkpt>
<trkpt lat="-27.274439" lon="151.290064">
  <ele>343.13</ele>
  <time>2026-09-01T20:01:06Z</time>
  <course>10.79</course>
  <speed>0.0</speed>
  <fix>3d</fix>
</trkpt>
<trkpt lat="-27.274439" lon="151.290064">
  <ele>343.1</ele>
  <time>2026-09-01T20:01:06Z</time>
  <course>270.0</course>
  <speed>0.0</speed>
  <fix>3d</fix>
</trkpt>
<trkpt lat="-27.274439" lon="151.290064">
  <ele>343.1</ele>
  <time>2026-09-01T20:01:06Z</time>
  <course>10.79</course>
  <speed>0.0</speed>
  <fix>3d</fix>
</trkpt>
<trkpt lat="-27.274439" lon="151.290064">
  <ele>343.1</ele>
  <time>2026-09-01T20:01:06Z</time>
  <course>270.0</course>
  <speed>0.0</speed>
  <fix>3d</fix>
</trkpt>
<trkpt lat="-27.274439" lon="151.290064">
  <ele>343.12</ele>
  <time>2026-09-01T20:01:06Z</time>
  <course>10.79</course>
  <speed>0.0</speed>
  <fix>3d</fix>
</trkpt>
<trkpt lat="-27.274439" lon="151.290064">
  <ele>343.1</ele>
  <time>2026-09-01T20:01:06Z</time>
  <course>270.0</course>
  <speed>0.0</speed>
  <fix>3d</fix>
</trkpt>
<trkpt lat="-27.274439" lon="151.290064">
  <ele>342.94</ele>
  <time>2026-09-01T20:01:06Z</time>
  <course>10.79</course>
  <speed>0.0</speed>
  <fix>3d</fix>
</trkpt>
<trkpt lat="-27.274439" lon="151.290064">
  <ele>343.1</ele>
  <time>2026-09-01T20:01:06Z</time>
  <course>270.0</course>
  <speed>0.0</speed>
  <fix>3d</fix>
</trkpt>
<trkpt lat="-27.274439" lon="151.290064">
  <ele>343.25</ele>
  <time>2026-09-01T20:01:06Z</time>
  <course>10.79</course>
  <speed>0.0</speed>
  <fix>3d</fix>
</trkpt>
<trkpt lat="-27.274439" lon="151.290064">
  <ele>343.1</ele>
  <time>2026-09-01T20:01:06Z</time>
  <course>270.0</course>
  <speed>0.0</speed>
  <fix>3d</fix>
</trkpt>
<trkpt lat="-27.274439" lon="151.290064">
  <ele>342.93</ele>
  <time>2026-09-01T20:01:06Z</time>
  <course>10.79</course>
  <speed>0.0</speed>
  <fix>3d</fix>
</trkpt>
<trkpt lat="-27.274439" lon="151.290064">
  <ele>343.1</ele>
  <time>2026-09-01T20:01:06Z</time>
  <course>270.0</course>
  <speed>0.0</speed>
  <fix>3d</fix>
</trkpt>
<trkpt lat="-27.274439" lon="151.290064">
  <ele>343.08</ele>
  <time>2026-09-01T20:01:06Z</time>
  <course>10.79</course>
  <speed>0.0</speed>
  <fix>3d</fix>
</trkpt>
<trkpt lat="-27.274439" lon="151.290064">
  <ele>343.1</ele>
  <time>2026-09-01T20:01:06Z</time>
  <course>270.0</course>
  <speed>0.0</speed>
  <fix>3d</fix>
</trkpt>
<trkpt lat="-27.274439" lon="151.290064">
  <ele>343.23</ele>
  <time>2026-09-01T20:01:06Z</time>
  <course>10.79</course>
  <speed>0.0</speed>
  <fix>3d</fix>
</trkpt>
<trkpt lat="-27.274439" lon="151.290064">
  <ele>343.1</ele>
  <time>2026-09-01T20:01:06Z</time>
  <course>270.0</course>
  <speed>0.0</speed>
  <fix>3d</fix>
</trkpt>
<trkpt lat="-27.274439" lon="151.290064">
  <ele>343.01</ele>
  <time>2026-09-01T20:01:06Z</time>
  <course>10.79</course>
  <speed>0.0</speed>
  <fix>3d</fix>
</trkpt>
<trkpt lat="-27.274439" lon="151.290064">
  <ele>343.1</ele>
  <time>2026-09-01T20:01:06Z</time>
  <course>270.0</course>
  <speed>0.0</speed>
  <fix>3d</fix>
</trkpt>
<trkpt lat="-27.274439" lon="151.290064">
  <ele>343.1</ele>
  <time>2026-09-01T20:01:06Z</time>
  <course>10.8</course>
  <speed>0.0</speed>
  <fix>3d</fix>
</trkpt>
<trkpt lat="-27.274439" lon="151.290064">
  <ele>343.1</ele>
  <time>2026-09-01T20:01:06Z</time>
  <course>270.0</course>
  <speed>0.0</speed>
  <fix>3d</fix>
</trkpt>
<trkpt lat="-27.274439" lon="151.290064">
  <ele>342.99</ele>
  <time>2026-09-01T20:01:06Z</time>
  <course>10.8</course>
  <speed>0.0</speed>
  <fix>3d</fix>
</trkpt>
<trkpt lat="-27.274439" lon="151.290064">
  <ele>343.1</ele>
  <time>2026-09-01T20:01:06Z</time>
  <course>270.0</course>
  <speed>0.0</speed>
  <fix>3d</fix>
</trkpt>
<trkpt lat="-27.274439" lon="151.290064">
  <ele>342.87</ele>
  <time>2026-09-01T20:01:06Z</time>
  <course>10.8</course>
  <speed>0.0</speed>
  <fix>3d</fix>
</trkpt>
<trkpt lat="-27.274439" lon="151.290064">
  <ele>343.1</ele>
  <time>2026-09-01T20:01:06Z</time>
  <course>270.0</course>
  <speed>0.0</speed>
  <fix>3d</fix>
</trkpt>
<trkpt lat="-27.274439" lon="151.290064">
  <ele>343.1</ele>
  <time>2026-09-01T20:01:06Z</time>
  <course>10.8</course>
  <speed>0.0</speed>
  <fix>3d</fix>
</trkpt>
<trkpt lat="-27.274439" lon="151.290064">
  <ele>343.1</ele>
  <time>2026-09-01T20:01:06Z</time>
  <course>270.0</course>
  <speed>0.0</speed>
  <fix>3d</fix>
</trkpt>
<trkpt lat="-27.274439" lon="151.290064">
  <ele>342.99</ele>
  <time>2026-09-01T20:01:06Z</time>
  <course>10.8</course>
  <speed>0.0</speed>
  <fix>3d</fix>
</trkpt>
<trkpt lat="-27.274439" lon="151.290064">
  <ele>343.1</ele>
  <time>2026-09-01T20:01:06Z</time>
  <course>270.0</course>
  <speed>0.0</speed>
  <fix>3d</fix>
</trkpt>
<trkpt lat="-27.274439" lon="151.290064">
  <ele>342.91</ele>
  <time>2026-09-01T20:01:06Z</time>
  <course>10.8</course>
  <speed>0.0</speed>
  <fix>3d</fix>
</trkpt>
<trkpt lat="-27.274439" lon="151.290064">
  <ele>343.1</ele>
  <time>2026-09-01T20:01:06Z</time>
  <course>270.0</course>
  <speed>0.0</speed>
  <fix>3d</fix>
</trkpt>
<trkpt lat="-27.274439" lon="151.290064">
  <ele>342.9</ele>
  <time>2026-09-01T20:01:06Z</time>
  <course>10.8</course>
  <speed>0.0</speed>
  <fix>3d</fix>
</trkpt>
<trkpt lat="-27.274439" lon="151.290064">
  <ele>343.1</ele>
  <time>2026-09-01T20:01:06Z</time>
  <course>270.0</course>
  <speed>0.0</speed>
  <fix>3d</fix>
</trkpt>
<trkpt lat="-27.274439" lon="151.290064">
  <ele>342.87</ele>
  <time>2026-09-01T20:01:06Z</time>
  <course>10.8</course>
  <speed>0.0</speed>
  <fix>3d</fix>
</trkpt>
<trkpt lat="-27.274439" lon="151.290064">
  <ele>343.1</ele>
  <time>2026-09-01T20:01:06Z</time>
  <course>270.0</course>
  <speed>0.0</speed>
  <fix>3d</fix>
</trkpt>
<trkpt lat="-27.274439" lon="151.290064">
  <ele>343.12</ele>
  <time>2026-09-01T20:01:06Z</time>
  <course>10.8</course>
  <speed>0.0</speed>
  <fix>3d</fix>
</trkpt>
<trkpt lat="-27.274439" lon="151.290064">
  <ele>343.1</ele>
  <time>2026-09-01T20:01:06Z</time>
  <course>270.0</course>
  <speed>0.0</speed>
  <fix>3d</fix>
</trkpt>
<trkpt lat="-27.274439" lon="151.290064">
  <ele>342.99</ele>
  <time>2026-09-01T20:01:06Z</time>
  <course>10.8</course>
  <speed>0.0</speed>
  <fix>3d</fix>
</trkpt>
<trkpt lat="-27.274439" lon="151.290064">
  <ele>343.1</ele>
  <time>2026-09-01T20:01:06Z</time>
  <course>270.0</course>
  <speed>0.0</speed>
  <fix>3d</fix>
</trkpt>
<trkpt lat="-27.274439" lon="151.290064">
  <ele>343.13</ele>
  <time>2026-09-01T20:01:06Z</time>
  <course>10.8</course>
  <speed>0.0</speed>
  <fix>3d</fix>
</trkpt>
<trkpt lat="-27.274439" lon="151.290064">
  <ele>343.1</ele>
  <time>2026-09-01T20:01:06Z</time>
  <course>270.0</course>
  <speed>0.0</speed>
  <fix>3d</fix>
</trkpt>
<trkpt lat="-27.274439" lon="151.290064">
  <ele>343.0</ele>
  <time>2026-09-01T20:01:06Z</time>
  <course>10.8</course>
  <speed>0.0</speed>
  <fix>3d</fix>
</trkpt>
<trkpt lat="-27.274439" lon="151.290064">
  <ele>343.1</ele>
  <time>2026-09-01T20:01:06Z</time>
  <course>270.0</course>
  <speed>0.0</speed>
  <fix>3d</fix>
</trkpt>
<trkpt lat="-27.274439" lon="151.290064">
  <ele>343.17</ele>
  <time>2026-09-01T20:01:06Z</time>
  <course>10.8</course>
  <speed>0.0</speed>
  <fix>3d</fix>
</trkpt>
<trkpt lat="-27.274439" lon="151.290064">
  <ele>343.1</ele>
  <time>2026-09-01T20:01:06Z</time>
  <course>270.0</course>
  <speed>0.0</speed>
  <fix>3d</fix>
</trkpt>
<trkpt lat="-27.274439" lon="151.290064">
  <ele>343.0</ele>
  <time>2026-09-01T20:01:06Z</time>
  <course>10.8</course>
  <speed>0.0</speed>
  <fix>3d</fix>
</trkpt>
<trkpt lat="-27.274439" lon="151.290064">
  <ele>343.1</ele>
  <time>2026-09-01T20:01:06Z</time>
  <course>270.0</course>
  <speed>0.0</speed>
  <fix>3d</fix>
</trkpt>
<trkpt lat="-27.274439" lon="151.290064">
  <ele>342.99</ele>
  <time>2026-09-01T20:01:06Z</time>
  <course>10.8</course>
  <speed>0.0</speed>
  <fix>3d</fix>
</trkpt>
<trkpt lat="-27.274439" lon="151.290064">
  <ele>343.1</ele>
  <time>2026-09-01T20:01:06Z</time>
  <course>270.0</course>
  <speed>0.0</speed>
  <fix>3d</fix>
</trkpt>
<trkpt lat="-27.274439" lon="151.290064">
  <ele>343.17</ele>
  <time>2026-09-01T20:01:06Z</time>
  <course>10.8</course>
  <speed>0.0</speed>
  <fix>3d</fix>
</trkpt>
<trkpt lat="-27.274439" lon="151.290064">
  <ele>343.1</ele>
  <time>2026-09-01T20:01:06Z</time>
  <course>270.0</course>
  <speed>0.0</speed>
  <fix>3d</fix>
</trkpt>
<trkpt lat="-27.274439" lon="151.290064">
  <ele>343.16</ele>
  <time>2026-09-01T20:01:06Z</time>
  <course>10.8</course>
  <speed>0.0</speed>
  <fix>3d</fix>
</trkpt>
<trkpt lat="-27.274439" lon="151.290064">
  <ele>343.1</ele>
  <time>2026-09-01T20:01:06Z</time>
  <course>270.0</course>
  <speed>0.0</speed>
  <fix>3d</fix>
</trkpt>
<trkpt lat="-27.274439" lon="151.290064">
  <ele>342.87</ele>
  <time>2026-09-01T20:01:06Z</time>
  <course>10.8</course>
  <speed>0.0</speed>
  <fix>3d</fix>
</trkpt>
<trkpt lat="-27.274439" lon="151.290064">
  <ele>343.1</ele>
  <time>2026-09-01T20:01:06Z</time>
  <course>270.0</course>
  <speed>0.0</speed>
  <fix>3d</fix>
</trkpt>
<trkpt lat="-27.274439" lon="151.290064">
  <ele>343.19</ele>
  <time>2026-09-01T20:01:06Z</time>
  <course>10.8</course>
  <speed>0.0</speed>
  <fix>3d</fix>
</trkpt>
<trkpt lat="-27.274439" lon="151.290064">
  <ele>343.1</ele>
  <time>2026-09-01T20:01:06Z</time>
  <course>270.0</course>
  <speed>0.0</speed>
  <fix>3d</fix>
</trkpt>
<trkpt lat="-27.274439" lon="151.290064">
  <ele>343.16</ele>
  <time>2026-09-01T20:01:06Z</time>
  <course>10.8</course>
  <speed>0.0</speed>
  <fix>3d</fix>
</trkpt>
<trkpt lat="-27.274439" lon="151.290064">
  <ele>343.1</ele>
  <time>2026-09-01T20:01:06Z</time>
  <course>270.0</course>
  <speed>0.0</speed>
  <fix>3d</fix>
</trkpt>
<trkpt lat="-27.274439" lon="151.290064">
  <ele>343.21</ele>
  <time>2026-09-01T20:01:06Z</time>
  <course>10.8</course>
  <speed>0.0</speed>
  <fix>3d</fix>
</trkpt>
<trkpt lat="-27.274439" lon="151.290064">
  <ele>343.1</ele>
  <time>2026-09-01T20:01:06Z</time>
  <course>270.0</course>
  <speed>0.0</speed>
  <fix>3d</fix>
</trkpt>
<trkpt lat="-27.274439" lon="151.290064">
  <ele>343.22</ele>
  <time>2026-09-01T20:01:06Z</time>
  <course>10.8</course>
  <speed>0.0</speed>
  <fix>3d</fix>
</trkpt>
<trkpt lat="-27.274439" lon="151.290064">
  <ele>343.1</ele>
  <time>2026-09-01T20:01:06Z</time>
  <course>270.0</course>
  <speed>0.0</speed>
  <fix>3d</fix>
</trkpt>
<trkpt lat="-27.274439" lon="151.290064">
  <ele>343.12</ele>
  <time>2026-09-01T20:01:06Z</time>
  <course>10.8</course>
  <speed>0.0</speed>
  <fix>3d</fix>
</trkpt>
<trkpt lat="-27.274439" lon="151.290064">
  <ele>343.1</ele>
  <time>2026-09-01T20:01:06Z</time>
  <course>270.0</course>
  <speed>0.0</speed>
  <fix>3d</fix>
</trkpt>
<trkpt lat="-27.274439" lon="151.290064">
  <ele>342.88</ele>
  <time>2026-09-01T20:01:06Z</time>
  <course>10.8</course>
  <speed>0.0</speed>
  <fix>3d</fix>
</trkpt>
<trkpt lat="-27.274439" lon="151.290064">
  <ele>343.1</ele>
  <time>2026-09-01T20:01:06Z</time>
  <course>270.0</course>
  <speed>0.0</speed>
  <fix>3d</fix>
</trkpt>
<trkpt lat="-27.274439" lon="151.290064">
  <ele>342.97</ele>
  <time>2026-09-01T20:01:06Z</time>
  <course>10.8</course>
  <speed>0.0</speed>
  <fix>3d</fix>
</trkpt>
<trkpt lat="-27.274439" lon="151.290064">
  <ele>343.1</ele>
  <time>2026-09-01T20:01:06Z</time>
  <course>270.0</course>
  <speed>0.0</speed>
  <fix>3d</fix>
</trkpt>
<trkpt lat="-27.274439" lon="151.290064">
  <ele>342.92</ele>
  <time>2026-09-01T20:01:06Z</time>
  <course>10.8</course>
  <speed>0.0</speed>
  <fix>3d</fix>
</trkpt>
<trkpt lat="-27.274439" lon="151.290064">
  <ele>343.1</ele>
  <time>2026-09-01T20:01:06Z</time>
  <course>270.0</course>
  <speed>0.0</speed>
  <fix>3d</fix>
</trkpt>
<trkpt lat="-27.274439" lon="151.290064">
  <ele>342.74</ele>
  <time>2026-09-01T20:01:06Z</time>
  <course>10.8</course>
  <speed>0.0</speed>
  <fix>3d</fix>
</trkpt>
<trkpt lat="-27.274439" lon="151.290064">
  <ele>343.1</ele>
  <time>2026-09-01T20:01:06Z</time>
  <course>270.0</course>
  <speed>0.0</speed>
  <fix>3d</fix>
</trkpt>
<trkpt lat="-27.274439" lon="151.290064">
  <ele>342.8</ele>
  <time>2026-09-01T20:01:06Z</time>
  <course>10.8</course>
  <speed>0.0</speed>
  <fix>3d</fix>
</trkpt>
<trkpt lat="-27.274439" lon="151.290064">
  <ele>343.1</ele>
  <time>2026-09-01T20:01:06Z</time>
  <course>270.0</course>
  <speed>0.0</speed>
  <fix>3d</fix>
</trkpt>
<trkpt lat="-27.274439" lon="151.290064">
  <ele>342.83</ele>
  <time>2026-09-01T20:01:06Z</time>
  <course>10.8</course>
  <speed>0.0</speed>
  <fix>3d</fix>
</trkpt>
<trkpt lat="-27.274439" lon="151.290064">
  <ele>343.1</ele>
  <time>2026-09-01T20:01:06Z</time>
  <course>270.0</course>
  <speed>0.0</speed>
  <fix>3d</fix>
</trkpt>
<trkpt lat="-27.274439" lon="151.290064">
  <ele>343.03</ele>
  <time>2026-09-01T20:01:06Z</time>
  <course>10.8</course>
  <speed>0.0</speed>
  <fix>3d</fix>
</trkpt>
<trkpt lat="-27.274439" lon="151.290064">
  <ele>343.1</ele>
  <time>2026-09-01T20:01:06Z</time>
  <course>270.0</course>
  <speed>0.0</speed>
  <fix>3d</fix>
</trkpt>
<trkpt lat="-27.274439" lon="151.290064">
  <ele>343.04</ele>
  <time>2026-09-01T20:01:06Z</time>
  <course>10.8</course>
  <speed>0.0</speed>
  <fix>3d</fix>
</trkpt>
<trkpt lat="-27.274439" lon="151.290064">
  <ele>343.1</ele>
  <time>2026-09-01T20:01:06Z</time>
  <course>270.0</course>
  <speed>0.0</speed>
  <fix>3d</fix>
</trkpt>
<trkpt lat="-27.274439" lon="151.290064">
  <ele>343.07</ele>
  <time>2026-09-01T20:01:06Z</time>
  <course>10.81</course>
  <speed>0.0</speed>
  <fix>3d</fix>
</trkpt>
<trkpt lat="-27.274439" lon="151.290064">
  <ele>343.1</ele>
  <time>2026-09-01T20:01:06Z</time>
  <course>270.0</course>
  <speed>0.0</speed>
  <fix>3d</fix>
</trkpt>
<trkpt lat="-27.274439" lon="151.290064">
  <ele>343.01</ele>
  <time>2026-09-01T20:01:06Z</time>
  <course>10.82</course>
  <speed>0.0</speed>
  <fix>3d</fix>
</trkpt>
<trkpt lat="-27.274439" lon="151.290064">
  <ele>343.1</ele>
  <time>2026-09-01T20:01:06Z</time>
  <course>270.0</course>
  <speed>0.0</speed>
  <fix>3d</fix>
</trkpt>
<trkpt lat="-27.274439" lon="151.290064">
  <ele>342.88</ele>
  <time>2026-09-01T20:01:06Z</time>
  <course>10.83</course>
  <speed>0.0</speed>
  <fix>3d</fix>
</trkpt>
<trkpt lat="-27.274439" lon="151.290064">
  <ele>343.1</ele>
  <time>2026-09-01T20:01:06Z</time>
  <course>270.0</course>
  <speed>0.0</speed>
  <fix>3d</fix>
</trkpt>
<trkpt lat="-27.274439" lon="151.290064">
  <ele>343.12</ele>
  <time>2026-09-01T20:01:06Z</time>
  <course>10.84</course>
  <speed>0.0</speed>
  <fix>3d</fix>
</trkpt>
<trkpt lat="-27.274439" lon="151.290064">
  <ele>343.1</ele>
  <time>2026-09-01T20:01:06Z</time>
  <course>270.0</course>
  <speed>0.0</speed>
  <fix>3d</fix>
</trkpt>
<trkpt lat="-27.274439" lon="151.290064">
  <ele>342.88</ele>
  <time>2026-09-01T20:01:07Z</time>
  <course>10.84</course>
  <speed>0.0</speed>
  <fix>3d</fix>
</trkpt>
<trkpt lat="-27.274439" lon="151.290064">
  <ele>343.1</ele>
  <time>2026-09-01T20:01:07Z</time>
  <course>270.0</course>
  <speed>0.0</speed>
  <fix>3d</fix>
</trkpt>
<trkpt lat="-27.274439" lon="151.290064">
  <ele>343.02</ele>
  <time>2026-09-01T20:01:07Z</time>
  <course>10.85</course>
  <speed>0.0</speed>
  <fix>3d</fix>
</trkpt>
<trkpt lat="-27.274439" lon="151.290064">
  <ele>343.1</ele>
  <time>2026-09-01T20:01:07Z</time>
  <course>270.0</course>
  <speed>0.0</speed>
  <fix>3d</fix>
</trkpt>
<trkpt lat="-27.274439" lon="151.290064">
  <ele>342.83</ele>
  <time>2026-09-01T20:01:07Z</time>
  <course>10.86</course>
  <speed>0.0</speed>
  <fix>3d</fix>
</trkpt>
<trkpt lat="-27.274439" lon="151.290064">
  <ele>343.1</ele>
  <time>2026-09-01T20:01:07Z</time>
  <course>270.0</course>
  <speed>0.0</speed>
  <fix>3d</fix>
</trkpt>
<trkpt lat="-27.274439" lon="151.290064">
  <ele>342.9</ele>
  <time>2026-09-01T20:01:07Z</time>
  <course>10.87</course>
  <speed>0.0</speed>
  <fix>3d</fix>
</trkpt>
<trkpt lat="-27.274439" lon="151.290064">
  <ele>343.1</ele>
  <time>2026-09-01T20:01:07Z</time>
  <course>270.0</course>
  <speed>0.0</speed>
  <fix>3d</fix>
</trkpt>
<trkpt lat="-27.274439" lon="151.290064">
  <ele>343.04</ele>
  <time>2026-09-01T20:01:07Z</time>
  <course>10.88</course>
  <speed>0.0</speed>
  <fix>3d</fix>
</trkpt>
<trkpt lat="-27.274439" lon="151.290064">
  <ele>343.1</ele>
  <time>2026-09-01T20:01:07Z</time>
  <course>270.0</course>
  <speed>0.0</speed>
  <fix>3d</fix>
</trkpt>
<trkpt lat="-27.274439" lon="151.290064">
  <ele>343.09</ele>
  <time>2026-09-01T20:01:07Z</time>
  <course>10.88</course>
  <speed>0.0</speed>
  <fix>3d</fix>
</trkpt>
<trkpt lat="-27.274439" lon="151.290064">
  <ele>343.1</ele>
  <time>2026-09-01T20:01:07Z</time>
  <course>270.0</course>
  <speed>0.0</speed>
  <fix>3d</fix>
</trkpt>
<trkpt lat="-27.274439" lon="151.290064">
  <ele>342.75</ele>
  <time>2026-09-01T20:01:07Z</time>
  <course>10.89</course>
  <speed>0.0</speed>
  <fix>3d</fix>
</trkpt>
<trkpt lat="-27.274439" lon="151.290064">
  <ele>343.1</ele>
  <time>2026-09-01T20:01:07Z</time>
  <course>270.0</course>
  <speed>0.0</speed>
  <fix>3d</fix>
</trkpt>
<trkpt lat="-27.274439" lon="151.290064">
  <ele>342.95</ele>
  <time>2026-09-01T20:01:07Z</time>
  <course>10.9</course>
  <speed>0.0</speed>
  <fix>3d</fix>
</trkpt>
<trkpt lat="-27.274439" lon="151.290064">
  <ele>343.1</ele>
  <time>2026-09-01T20:01:07Z</time>
  <course>270.0</course>
  <speed>0.0</speed>
  <fix>3d</fix>
</trkpt>
<trkpt lat="-27.274439" lon="151.290064">
  <ele>342.83</ele>
  <time>2026-09-01T20:01:07Z</time>
  <course>10.91</course>
  <speed>0.0</speed>
  <fix>3d</fix>
</trkpt>
<trkpt lat="-27.274439" lon="151.290064">
  <ele>343.1</ele>
  <time>2026-09-01T20:01:07Z</time>
  <course>270.0</course>
  <speed>0.0</speed>
  <fix>3d</fix>
</trkpt>
<trkpt lat="-27.274439" lon="151.290064">
  <ele>343.05</ele>
  <time>2026-09-01T20:01:07Z</time>
  <course>10.91</course>
  <speed>0.0</speed>
  <fix>3d</fix>
</trkpt>
<trkpt lat="-27.274439" lon="151.290064">
  <ele>343.1</ele>
  <time>2026-09-01T20:01:07Z</time>
  <course>270.0</course>
  <speed>0.0</speed>
  <fix>3d</fix>
</trkpt>
<trkpt lat="-27.274439" lon="151.290064">
  <ele>342.88</ele>
  <time>2026-09-01T20:01:07Z</time>
  <course>10.92</course>
  <speed>0.0</speed>
  <fix>3d</fix>
</trkpt>
<trkpt lat="-27.274439" lon="151.290064">
  <ele>343.1</ele>
  <time>2026-09-01T20:01:07Z</time>
  <course>270.0</course>
  <speed>0.0</speed>
  <fix>3d</fix>
</trkpt>
<trkpt lat="-27.274439" lon="151.290064">
  <ele>343.12</ele>
  <time>2026-09-01T20:01:07Z</time>
  <course>10.93</course>
  <speed>0.0</speed>
  <fix>3d</fix>
</trkpt>
<trkpt lat="-27.274439" lon="151.290064">
  <ele>343.1</ele>
  <time>2026-09-01T20:01:07Z</time>
  <course>270.0</course>
  <speed>0.0</speed>
  <fix>3d</fix>
</trkpt>
<trkpt lat="-27.274439" lon="151.290064">
  <ele>342.95</ele>
  <time>2026-09-01T20:01:07Z</time>
  <course>10.94</course>
  <speed>0.0</speed>
  <fix>3d</fix>
</trkpt>
<trkpt lat="-27.274439" lon="151.290064">
  <ele>343.1</ele>
  <time>2026-09-01T20:01:07Z</time>
  <course>270.0</course>
  <speed>0.0</speed>
  <fix>3d</fix>
</trkpt>
<trkpt lat="-27.274439" lon="151.290064">
  <ele>343.19</ele>
  <time>2026-09-01T20:01:07Z</time>
  <course>10.94</course>
  <speed>0.0</speed>
  <fix>3d</fix>
</trkpt>
<trkpt lat="-27.274439" lon="151.290064">
  <ele>343.1</ele>
  <time>2026-09-01T20:01:07Z</time>
  <course>270.0</course>
  <speed>0.0</speed>
  <fix>3d</fix>
</trkpt>
<trkpt lat="-27.274439" lon="151.290064">
  <ele>343.02</ele>
  <time>2026-09-01T20:01:07Z</time>
  <course>10.95</course>
  <speed>0.0</speed>
  <fix>3d</fix>
</trkpt>
<trkpt lat="-27.274439" lon="151.290064">
  <ele>343.1</ele>
  <time>2026-09-01T20:01:07Z</time>
  <course>270.0</course>
  <speed>0.0</speed>
  <fix>3d</fix>
</trkpt>
<trkpt lat="-27.274439" lon="151.290064">
  <ele>343.25</ele>
  <time>2026-09-01T20:01:07Z</time>
  <course>10.96</course>
  <speed>0.0</speed>
  <fix>3d</fix>
</trkpt>
<trkpt lat="-27.274439" lon="151.290064">
  <ele>343.1</ele>
  <time>2026-09-01T20:01:07Z</time>
  <course>270.0</course>
  <speed>0.0</speed>
  <fix>3d</fix>
</trkpt>
<trkpt lat="-27.274439" lon="151.290064">
  <ele>342.94</ele>
  <time>2026-09-01T20:01:07Z</time>
  <course>10.96</course>
  <speed>0.0</speed>
  <fix>3d</fix>
</trkpt>
<trkpt lat="-27.274439" lon="151.290064">
  <ele>343.1</ele>
  <time>2026-09-01T20:01:07Z</time>
  <course>270.0</course>
  <speed>0.0</speed>
  <fix>3d</fix>
</trkpt>
<trkpt lat="-27.274439" lon="151.290064">
  <ele>343.12</ele>
  <time>2026-09-01T20:01:07Z</time>
  <course>10.97</course>
  <speed>0.0</speed>
  <fix>3d</fix>
</trkpt>
<trkpt lat="-27.274439" lon="151.290064">
  <ele>343.1</ele>
  <time>2026-09-01T20:01:07Z</time>
  <course>270.0</course>
  <speed>0.0</speed>
  <fix>3d</fix>
</trkpt>
<trkpt lat="-27.274439" lon="151.290064">
  <ele>343.01</ele>
  <time>2026-09-01T20:01:07Z</time>
  <course>10.98</course>
  <speed>0.0</speed>
  <fix>3d</fix>
</trkpt>
<trkpt lat="-27.274439" lon="151.290064">
  <ele>343.1</ele>
  <time>2026-09-01T20:01:07Z</time>
  <course>270.0</course>
  <speed>0.0</speed>
  <fix>3d</fix>
</trkpt>
<trkpt lat="-27.274439" lon="151.290064">
  <ele>343.13</ele>
  <time>2026-09-01T20:01:07Z</time>
  <course>10.98</course>
  <speed>0.0</speed>
  <fix>3d</fix>
</trkpt>
<trkpt lat="-27.274439" lon="151.290064">
  <ele>343.1</ele>
  <time>2026-09-01T20:01:07Z</time>
  <course>270.0</course>
  <speed>0.0</speed>
  <fix>3d</fix>
</trkpt>
<trkpt lat="-27.274439" lon="151.290064">
  <ele>343.18</ele>
  <time>2026-09-01T20:01:07Z</time>
  <course>10.99</course>
  <speed>0.0</speed>
  <fix>3d</fix>
</trkpt>
<trkpt lat="-27.274439" lon="151.290064">
  <ele>343.1</ele>
  <time>2026-09-01T20:01:07Z</time>
  <course>270.0</course>
  <speed>0.0</speed>
  <fix>3d</fix>
</trkpt>
<trkpt lat="-27.274439" lon="151.290064">
  <ele>342.97</ele>
  <time>2026-09-01T20:01:07Z</time>
  <course>10.99</course>
  <speed>0.0</speed>
  <fix>3d</fix>
</trkpt>
<trkpt lat="-27.274439" lon="151.290064">
  <ele>343.1</ele>
  <time>2026-09-01T20:01:07Z</time>
  <course>270.0</course>
  <speed>0.0</speed>
  <fix>3d</fix>
</trkpt>
<trkpt lat="-27.274439" lon="151.290064">
  <ele>343.14</ele>
  <time>2026-09-01T20:01:07Z</time>
  <course>11.0</course>
  <speed>0.0</speed>
  <fix>3d</fix>
</trkpt>
<trkpt lat="-27.274439" lon="151.290064">
  <ele>343.1</ele>
  <time>2026-09-01T20:01:07Z</time>
  <course>270.0</course>
  <speed>0.0</speed>
  <fix>3d</fix>
</trkpt>
<trkpt lat="-27.274439" lon="151.290064">
  <ele>342.96</ele>
  <time>2026-09-01T20:01:07Z</time>
  <course>11.01</course>
  <speed>0.0</speed>
  <fix>3d</fix>
</trkpt>
<trkpt lat="-27.274439" lon="151.290064">
  <ele>343.1</ele>
  <time>2026-09-01T20:01:07Z</time>
  <course>270.0</course>
  <speed>0.0</speed>
  <fix>3d</fix>
</trkpt>
<trkpt lat="-27.274439" lon="151.290064">
  <ele>343.3</ele>
  <time>2026-09-01T20:01:07Z</time>
  <course>11.01</course>
  <speed>0.0</speed>
  <fix>3d</fix>
</trkpt>
<trkpt lat="-27.274439" lon="151.290064">
  <ele>343.1</ele>
  <time>2026-09-01T20:01:07Z</time>
  <course>270.0</course>
  <speed>0.0</speed>
  <fix>3d</fix>
</trkpt>
<trkpt lat="-27.274439" lon="151.290064">
  <ele>343.22</ele>
  <time>2026-09-01T20:01:07Z</time>
  <course>11.02</course>
  <speed>0.0</speed>
  <fix>3d</fix>
</trkpt>
<trkpt lat="-27.274439" lon="151.290064">
  <ele>343.1</ele>
  <time>2026-09-01T20:01:07Z</time>
  <course>270.0</course>
  <speed>0.0</speed>
  <fix>3d</fix>
</trkpt>
<trkpt lat="-27.274439" lon="151.290064">
  <ele>343.08</ele>
  <time>2026-09-01T20:01:07Z</time>
  <course>11.02</course>
  <speed>0.0</speed>
  <fix>3d</fix>
</trkpt>
<trkpt lat="-27.274439" lon="151.290064">
  <ele>343.1</ele>
  <time>2026-09-01T20:01:07Z</time>
  <course>270.0</course>
  <speed>0.0</speed>
  <fix>3d</fix>
</trkpt>
<trkpt lat="-27.274439" lon="151.290064">
  <ele>343.23</ele>
  <time>2026-09-01T20:01:07Z</time>
  <course>11.03</course>
  <speed>0.0</speed>
  <fix>3d</fix>
</trkpt>
<trkpt lat="-27.274439" lon="151.290064">
  <ele>343.1</ele>
  <time>2026-09-01T20:01:07Z</time>
  <course>270.0</course>
  <speed>0.0</speed>
  <fix>3d</fix>
</trkpt>
<trkpt lat="-27.274439" lon="151.290064">
  <ele>343.33</ele>
  <time>2026-09-01T20:01:07Z</time>
  <course>11.03</course>
  <speed>0.0</speed>
  <fix>3d</fix>
</trkpt>
<trkpt lat="-27.274439" lon="151.290064">
  <ele>343.1</ele>
  <time>2026-09-01T20:01:07Z</time>
  <course>270.0</course>
  <speed>0.0</speed>
  <fix>3d</fix>
</trkpt>
<trkpt lat="-27.274439" lon="151.290064">
  <ele>343.05</ele>
  <time>2026-09-01T20:01:07Z</time>
  <course>11.04</course>
  <speed>0.0</speed>
  <fix>3d</fix>
</trkpt>
<trkpt lat="-27.274439" lon="151.290064">
  <ele>343.1</ele>
  <time>2026-09-01T20:01:07Z</time>
  <course>270.0</course>
  <speed>0.0</speed>
  <fix>3d</fix>
</trkpt>
<trkpt lat="-27.274439" lon="151.290064">
  <ele>343.16</ele>
  <time>2026-09-01T20:01:07Z</time>
  <course>11.04</course>
  <speed>0.0</speed>
  <fix>3d</fix>
</trkpt>
<trkpt lat="-27.274439" lon="151.290064">
  <ele>343.1</ele>
  <time>2026-09-01T20:01:07Z</time>
  <course>270.0</course>
  <speed>0.0</speed>
  <fix>3d</fix>
</trkpt>
<trkpt lat="-27.274439" lon="151.290064">
  <ele>343.16</ele>
  <time>2026-09-01T20:01:07Z</time>
  <course>11.05</course>
  <speed>0.0</speed>
  <fix>3d</fix>
</trkpt>
<trkpt lat="-27.274439" lon="151.290064">
  <ele>343.1</ele>
  <time>2026-09-01T20:01:07Z</time>
  <course>270.0</course>
  <speed>0.0</speed>
  <fix>3d</fix>
</trkpt>
<trkpt lat="-27.274439" lon="151.290064">
  <ele>343.08</ele>
  <time>2026-09-01T20:01:07Z</time>
  <course>11.05</course>
  <speed>0.0</speed>
  <fix>3d</fix>
</trkpt>
<trkpt lat="-27.274439" lon="151.290064">
  <ele>343.1</ele>
  <time>2026-09-01T20:01:07Z</time>
  <course>270.0</course>
  <speed>0.0</speed>
  <fix>3d</fix>
</trkpt>
<trkpt lat="-27.274439" lon="151.290064">
  <ele>343.17</ele>
  <time>2026-09-01T20:01:07Z</time>
  <course>11.06</course>
  <speed>0.0</speed>
  <fix>3d</fix>
</trkpt>
<trkpt lat="-27.274439" lon="151.290064">
  <ele>343.1</ele>
  <time>2026-09-01T20:01:07Z</time>
  <course>270.0</course>
  <speed>0.0</speed>
  <fix>3d</fix>
</trkpt>
<trkpt lat="-27.274439" lon="151.290064">
  <ele>343.22</ele>
  <time>2026-09-01T20:01:07Z</time>
  <course>11.06</course>
  <speed>0.0</speed>
  <fix>3d</fix>
</trkpt>
<trkpt lat="-27.274439" lon="151.290064">
  <ele>343.1</ele>
  <time>2026-09-01T20:01:07Z</time>
  <course>270.0</course>
  <speed>0.0</speed>
  <fix>3d</fix>
</trkpt>
<trkpt lat="-27.274439" lon="151.290064">
  <ele>343.01</ele>
  <time>2026-09-01T20:01:07Z</time>
  <course>11.07</course>
  <speed>0.0</speed>
  <fix>3d</fix>
</trkpt>
<trkpt lat="-27.274439" lon="151.290064">
  <ele>343.1</ele>
  <time>2026-09-01T20:01:07Z</time>
  <course>270.0</course>
  <speed>0.0</speed>
  <fix>3d</fix>
</trkpt>
<trkpt lat="-27.274439" lon="151.290064">
  <ele>343.26</ele>
  <time>2026-09-01T20:01:07Z</time>
  <course>11.07</course>
  <speed>0.0</speed>
  <fix>3d</fix>
</trkpt>
<trkpt lat="-27.274439" lon="151.290064">
  <ele>343.1</ele>
  <time>2026-09-01T20:01:07Z</time>
  <course>270.0</course>
  <speed>0.0</speed>
  <fix>3d</fix>
</trkpt>
<trkpt lat="-27.274439" lon="151.290064">
  <ele>343.28</ele>
  <time>2026-09-01T20:01:07Z</time>
  <course>11.08</course>
  <speed>0.0</speed>
  <fix>3d</fix>
</trkpt>
<trkpt lat="-27.274439" lon="151.290064">
  <ele>343.1</ele>
  <time>2026-09-01T20:01:07Z</time>
  <course>270.0</course>
  <speed>0.0</speed>
  <fix>3d</fix>
</trkpt>
<trkpt lat="-27.274439" lon="151.290064">
  <ele>343.34</ele>
  <time>2026-09-01T20:01:07Z</time>
  <course>11.08</course>
  <speed>0.0</speed>
  <fix>3d</fix>
</trkpt>
<trkpt lat="-27.274439" lon="151.290064">
  <ele>343.1</ele>
  <time>2026-09-01T20:01:07Z</time>
  <course>270.0</course>
  <speed>0.0</speed>
  <fix>3d</fix>
</trkpt>
<trkpt lat="-27.274439" lon="151.290064">
  <ele>343.1</ele>
  <time>2026-09-01T20:01:07Z</time>
  <course>11.09</course>
  <speed>0.0</speed>
  <fix>3d</fix>
</trkpt>
<trkpt lat="-27.274439" lon="151.290064">
  <ele>343.1</ele>
  <time>2026-09-01T20:01:07Z</time>
  <course>270.0</course>
  <speed>0.0</speed>
  <fix>3d</fix>
</trkpt>
<trkpt lat="-27.274439" lon="151.290064">
  <ele>342.96</ele>
  <time>2026-09-01T20:01:07Z</time>
  <course>11.09</course>
  <speed>0.0</speed>
  <fix>3d</fix>
</trkpt>
<trkpt lat="-27.274439" lon="151.290064">
  <ele>343.1</ele>
  <time>2026-09-01T20:01:07Z</time>
  <course>270.0</course>
  <speed>0.0</speed>
  <fix>3d</fix>
</trkpt>
<trkpt lat="-27.274439" lon="151.290064">
  <ele>343.03</ele>
  <time>2026-09-01T20:01:07Z</time>
  <course>11.1</course>
  <speed>0.0</speed>
  <fix>3d</fix>
</trkpt>
<trkpt lat="-27.274439" lon="151.290064">
  <ele>343.1</ele>
  <time>2026-09-01T20:01:07Z</time>
  <course>270.0</course>
  <speed>0.0</speed>
  <fix>3d</fix>
</trkpt>
<trkpt lat="-27.274439" lon="151.290064">
  <ele>343.23</ele>
  <time>2026-09-01T20:01:07Z</time>
  <course>11.1</course>
  <speed>0.0</speed>
  <fix>3d</fix>
</trkpt>
<trkpt lat="-27.274439" lon="151.290064">
  <ele>343.1</ele>
  <time>2026-09-01T20:01:07Z</time>
  <course>270.0</course>
  <speed>0.0</speed>
  <fix>3d</fix>
</trkpt>
<trkpt lat="-27.274439" lon="151.290064">
  <ele>343.14</ele>
  <time>2026-09-01T20:01:07Z</time>
  <course>11.11</course>
  <speed>0.0</speed>
  <fix>3d</fix>
</trkpt>
<trkpt lat="-27.274439" lon="151.290064">
  <ele>343.1</ele>
  <time>2026-09-01T20:01:07Z</time>
  <course>270.0</course>
  <speed>0.0</speed>
  <fix>3d</fix>
</trkpt>
<trkpt lat="-27.274439" lon="151.290064">
  <ele>343.13</ele>
  <time>2026-09-01T20:01:07Z</time>
  <course>11.11</course>
  <speed>0.0</speed>
  <fix>3d</fix>
</trkpt>
<trkpt lat="-27.274439" lon="151.290064">
  <ele>343.1</ele>
  <time>2026-09-01T20:01:07Z</time>
  <course>270.0</course>
  <speed>0.0</speed>
  <fix>3d</fix>
</trkpt>
<trkpt lat="-27.274439" lon="151.290064">
  <ele>343.03</ele>
  <time>2026-09-01T20:01:07Z</time>
  <course>11.11</course>
  <speed>0.0</speed>
  <fix>3d</fix>
</trkpt>
<trkpt lat="-27.274439" lon="151.290064">
  <ele>343.1</ele>
  <time>2026-09-01T20:01:07Z</time>
  <course>270.0</course>
  <speed>0.0</speed>
  <fix>3d</fix>
</trkpt>
<trkpt lat="-27.274439" lon="151.290064">
  <ele>343.15</ele>
  <time>2026-09-01T20:01:07Z</time>
  <course>11.12</course>
  <speed>0.0</speed>
  <fix>3d</fix>
</trkpt>
<trkpt lat="-27.274439" lon="151.290064">
  <ele>343.1</ele>
  <time>2026-09-01T20:01:07Z</time>
  <course>270.0</course>
  <speed>0.0</speed>
  <fix>3d</fix>
</trkpt>
<trkpt lat="-27.274439" lon="151.290064">
  <ele>343.14</ele>
  <time>2026-09-01T20:01:07Z</time>
  <course>11.12</course>
  <speed>0.0</speed>
  <fix>3d</fix>
</trkpt>
<trkpt lat="-27.274439" lon="151.290064">
  <ele>343.1</ele>
  <time>2026-09-01T20:01:07Z</time>
  <course>270.0</course>
  <speed>0.0</speed>
  <fix>3d</fix>
</trkpt>
<trkpt lat="-27.274439" lon="151.290064">
  <ele>343.17</ele>
  <time>2026-09-01T20:01:07Z</time>
  <course>11.13</course>
  <speed>0.0</speed>
  <fix>3d</fix>
</trkpt>
<trkpt lat="-27.274439" lon="151.290064">
  <ele>343.1</ele>
  <time>2026-09-01T20:01:07Z</time>
  <course>270.0</course>
  <speed>0.0</speed>
  <fix>3d</fix>
</trkpt>
<trkpt lat="-27.274439" lon="151.290064">
  <ele>342.95</ele>
  <time>2026-09-01T20:01:07Z</time>
  <course>11.13</course>
  <speed>0.0</speed>
  <fix>3d</fix>
</trkpt>
<trkpt lat="-27.274439" lon="151.290064">
  <ele>343.1</ele>
  <time>2026-09-01T20:01:07Z</time>
  <course>270.0</course>
  <speed>0.0</speed>
  <fix>3d</fix>
</trkpt>
<trkpt lat="-27.274439" lon="151.290064">
  <ele>343.06</ele>
  <time>2026-09-01T20:01:07Z</time>
  <course>11.14</course>
  <speed>0.0</speed>
  <fix>3d</fix>
</trkpt>
<trkpt lat="-27.274439" lon="151.290064">
  <ele>343.1</ele>
  <time>2026-09-01T20:01:07Z</time>
  <course>270.0</course>
  <speed>0.0</speed>
  <fix>3d</fix>
</trkpt>
<trkpt lat="-27.274439" lon="151.290064">
  <ele>343.11</ele>
  <time>2026-09-01T20:01:07Z</time>
  <course>11.14</course>
  <speed>0.0</speed>
  <fix>3d</fix>
</trkpt>
<trkpt lat="-27.274439" lon="151.290064">
  <ele>343.1</ele>
  <time>2026-09-01T20:01:07Z</time>
  <course>270.0</course>
  <speed>0.0</speed>
  <fix>3d</fix>
</trkpt>
<trkpt lat="-27.274439" lon="151.290064">
  <ele>343.3</ele>
  <time>2026-09-01T20:01:07Z</time>
  <course>11.14</course>
  <speed>0.0</speed>
  <fix>3d</fix>
</trkpt>
<trkpt lat="-27.274439" lon="151.290064">
  <ele>343.1</ele>
  <time>2026-09-01T20:01:07Z</time>
  <course>270.0</course>
  <speed>0.0</speed>
  <fix>3d</fix>
</trkpt>
<trkpt lat="-27.274439" lon="151.290064">
  <ele>343.03</ele>
  <time>2026-09-01T20:01:07Z</time>
  <course>11.15</course>
  <speed>0.0</speed>
  <fix>3d</fix>
</trkpt>
<trkpt lat="-27.274439" lon="151.290064">
  <ele>343.1</ele>
  <time>2026-09-01T20:01:07Z</time>
  <course>270.0</course>
  <speed>0.0</speed>
  <fix>3d</fix>
</trkpt>
<trkpt lat="-27.274439" lon="151.290064">
  <ele>343.13</ele>
  <time>2026-09-01T20:01:07Z</time>
  <course>11.15</course>
  <speed>0.0</speed>
  <fix>3d</fix>
</trkpt>
<trkpt lat="-27.274439" lon="151.290064">
  <ele>343.1</ele>
  <time>2026-09-01T20:01:07Z</time>
  <course>270.0</course>
  <speed>0.0</speed>
  <fix>3d</fix>
</trkpt>
<trkpt lat="-27.274439" lon="151.290064">
  <ele>343.02</ele>
  <time>2026-09-01T20:01:07Z</time>
  <course>11.15</course>
  <speed>0.0</speed>
  <fix>3d</fix>
</trkpt>
<trkpt lat="-27.274439" lon="151.290064">
  <ele>343.1</ele>
  <time>2026-09-01T20:01:07Z</time>
  <course>270.0</course>
  <speed>0.0</speed>
  <fix>3d</fix>
</trkpt>
<trkpt lat="-27.274439" lon="151.290064">
  <ele>343.17</ele>
  <time>2026-09-01T20:01:07Z</time>
  <course>11.16</course>
  <speed>0.0</speed>
  <fix>3d</fix>
</trkpt>
<trkpt lat="-27.274439" lon="151.290064">
  <ele>343.1</ele>
  <time>2026-09-01T20:01:07Z</time>
  <course>270.0</course>
  <speed>0.0</speed>
  <fix>3d</fix>
</trkpt>
<trkpt lat="-27.274439" lon="151.290064">
  <ele>343.26</ele>
  <time>2026-09-01T20:01:07Z</time>
  <course>11.16</course>
  <speed>0.0</speed>
  <fix>3d</fix>
</trkpt>
<trkpt lat="-27.274439" lon="151.290064">
  <ele>343.1</ele>
  <time>2026-09-01T20:01:07Z</time>
  <course>270.0</course>
  <speed>0.0</speed>
  <fix>3d</fix>
</trkpt>
<trkpt lat="-27.274439" lon="151.290064">
  <ele>343.29</ele>
  <time>2026-09-01T20:01:07Z</time>
  <course>11.17</course>
  <speed>0.0</speed>
  <fix>3d</fix>
</trkpt>
<trkpt lat="-27.274439" lon="151.290064">
  <ele>343.1</ele>
  <time>2026-09-01T20:01:07Z</time>
  <course>270.0</course>
  <speed>0.0</speed>
  <fix>3d</fix>
</trkpt>
<trkpt lat="-27.274439" lon="151.290064">
  <ele>343.13</ele>
  <time>2026-09-01T20:01:07Z</time>
  <course>11.17</course>
  <speed>0.0</speed>
  <fix>3d</fix>
</trkpt>
<trkpt lat="-27.274439" lon="151.290064">
  <ele>343.1</ele>
  <time>2026-09-01T20:01:07Z</time>
  <course>270.0</course>
  <speed>0.0</speed>
  <fix>3d</fix>
</trkpt>
<trkpt lat="-27.274439" lon="151.290064">
  <ele>343.1</ele>
  <time>2026-09-01T20:01:07Z</time>
  <course>11.17</course>
  <speed>0.0</speed>
  <fix>3d</fix>
</trkpt>
<trkpt lat="-27.274439" lon="151.290064">
  <ele>343.1</ele>
  <time>2026-09-01T20:01:07Z</time>
  <course>270.0</course>
  <speed>0.0</speed>
  <fix>3d</fix>
</trkpt>
<trkpt lat="-27.274439" lon="151.290064">
  <ele>343.2</ele>
  <time>2026-09-01T20:01:07Z</time>
  <course>11.18</course>
  <speed>0.0</speed>
  <fix>3d</fix>
</trkpt>
<trkpt lat="-27.274439" lon="151.290064">
  <ele>343.1</ele>
  <time>2026-09-01T20:01:07Z</time>
  <course>270.0</course>
  <speed>0.0</speed>
  <fix>3d</fix>
</trkpt>
<trkpt lat="-27.274439" lon="151.290064">
  <ele>343.09</ele>
  <time>2026-09-01T20:01:07Z</time>
  <course>11.18</course>
  <speed>0.0</speed>
  <fix>3d</fix>
</trkpt>
<trkpt lat="-27.274439" lon="151.290064">
  <ele>343.1</ele>
  <time>2026-09-01T20:01:07Z</time>
  <course>270.0</course>
  <speed>0.0</speed>
  <fix>3d</fix>
</trkpt>
<trkpt lat="-27.274439" lon="151.290064">
  <ele>343.11</ele>
  <time>2026-09-01T20:01:07Z</time>
  <course>11.18</course>
  <speed>0.0</speed>
  <fix>3d</fix>
</trkpt>
<trkpt lat="-27.274439" lon="151.290064">
  <ele>343.1</ele>
  <time>2026-09-01T20:01:07Z</time>
  <course>270.0</course>
  <speed>0.0</speed>
  <fix>3d</fix>
</trkpt>
<trkpt lat="-27.274439" lon="151.290064">
  <ele>343.21</ele>
  <time>2026-09-01T20:01:07Z</time>
  <course>11.19</course>
  <speed>0.0</speed>
  <fix>3d</fix>
</trkpt>
<trkpt lat="-27.274439" lon="151.290064">
  <ele>343.1</ele>
  <time>2026-09-01T20:01:07Z</time>
  <course>270.0</course>
  <speed>0.0</speed>
  <fix>3d</fix>
</trkpt>
<trkpt lat="-27.274439" lon="151.290064">
  <ele>343.22</ele>
  <time>2026-09-01T20:01:07Z</time>
  <course>11.19</course>
  <speed>0.0</speed>
  <fix>3d</fix>
</trkpt>
<trkpt lat="-27.274439" lon="151.290064">
  <ele>343.1</ele>
  <time>2026-09-01T20:01:07Z</time>
  <course>270.0</course>
  <speed>0.0</speed>
  <fix>3d</fix>
</trkpt>
<trkpt lat="-27.274439" lon="151.290064">
  <ele>342.98</ele>
  <time>2026-09-01T20:01:07Z</time>
  <course>11.19</course>
  <speed>0.0</speed>
  <fix>3d</fix>
</trkpt>
<trkpt lat="-27.274439" lon="151.290064">
  <ele>343.1</ele>
  <time>2026-09-01T20:01:07Z</time>
  <course>270.0</course>
  <speed>0.0</speed>
  <fix>3d</fix>
</trkpt>
<trkpt lat="-27.274439" lon="151.290064">
  <ele>343.15</ele>
  <time>2026-09-01T20:01:07Z</time>
  <course>11.2</course>
  <speed>0.0</speed>
  <fix>3d</fix>
</trkpt>
<trkpt lat="-27.274439" lon="151.290064">
  <ele>343.1</ele>
  <time>2026-09-01T20:01:07Z</time>
  <course>270.0</course>
  <speed>0.0</speed>
  <fix>3d</fix>
</trkpt>
<trkpt lat="-27.274439" lon="151.290064">
  <ele>343.28</ele>
  <time>2026-09-01T20:01:07Z</time>
  <course>11.2</course>
  <speed>0.0</speed>
  <fix>3d</fix>
</trkpt>
<trkpt lat="-27.274439" lon="151.290064">
  <ele>343.1</ele>
  <time>2026-09-01T20:01:07Z</time>
  <course>270.0</course>
  <speed>0.0</speed>
  <fix>3d</fix>
</trkpt>
<trkpt lat="-27.274439" lon="151.290064">
  <ele>343.3</ele>
  <time>2026-09-01T20:01:07Z</time>
  <course>11.2</course>
  <speed>0.0</speed>
  <fix>3d</fix>
</trkpt>
<trkpt lat="-27.274439" lon="151.290064">
  <ele>343.1</ele>
  <time>2026-09-01T20:01:07Z</time>
  <course>270.0</course>
  <speed>0.0</speed>
  <fix>3d</fix>
</trkpt>
<trkpt lat="-27.274439" lon="151.290064">
  <ele>343.33</ele>
  <time>2026-09-01T20:01:07Z</time>
  <course>11.2</course>
  <speed>0.0</speed>
  <fix>3d</fix>
</trkpt>
<trkpt lat="-27.274439" lon="151.290064">
  <ele>343.1</ele>
  <time>2026-09-01T20:01:07Z</time>
  <course>270.0</course>
  <speed>0.0</speed>
  <fix>3d</fix>
</trkpt>
<trkpt lat="-27.274439" lon="151.290064">
  <ele>342.96</ele>
  <time>2026-09-01T20:01:07Z</time>
  <course>11.2</course>
  <speed>0.0</speed>
  <fix>3d</fix>
</trkpt>
<trkpt lat="-27.274439" lon="151.290064">
  <ele>343.1</ele>
  <time>2026-09-01T20:01:07Z</time>
  <course>270.0</course>
  <speed>0.0</speed>
  <fix>3d</fix>
</trkpt>
<trkpt lat="-27.274439" lon="151.290064">
  <ele>342.97</ele>
  <time>2026-09-01T20:01:07Z</time>
  <course>11.2</course>
  <speed>0.0</speed>
  <fix>3d</fix>
</trkpt>
<trkpt lat="-27.274439" lon="151.290064">
  <ele>343.1</ele>
  <time>2026-09-01T20:01:07Z</time>
  <course>270.0</course>
  <speed>0.0</speed>
  <fix>3d</fix>
</trkpt>
<trkpt lat="-27.274439" lon="151.290064">
  <ele>342.83</ele>
  <time>2026-09-01T20:01:07Z</time>
  <course>11.2</course>
  <speed>0.0</speed>
  <fix>3d</fix>
</trkpt>
<trkpt lat="-27.274439" lon="151.290064">
  <ele>343.1</ele>
  <time>2026-09-01T20:01:07Z</time>
  <course>270.0</course>
  <speed>0.0</speed>
  <fix>3d</fix>
</trkpt>
<trkpt lat="-27.274439" lon="151.290064">
  <ele>342.84</ele>
  <time>2026-09-01T20:01:07Z</time>
  <course>11.2</course>
  <speed>0.0</speed>
  <fix>3d</fix>
</trkpt>
<trkpt lat="-27.274439" lon="151.290064">
  <ele>343.1</ele>
  <time>2026-09-01T20:01:07Z</time>
  <course>270.0</course>
  <speed>0.0</speed>
  <fix>3d</fix>
</trkpt>
<trkpt lat="-27.274439" lon="151.290064">
  <ele>342.75</ele>
  <time>2026-09-01T20:01:07Z</time>
  <course>11.21</course>
  <speed>0.0</speed>
  <fix>3d</fix>
</trkpt>
<trkpt lat="-27.274439" lon="151.290064">
  <ele>343.1</ele>
  <time>2026-09-01T20:01:07Z</time>
  <course>270.0</course>
  <speed>0.0</speed>
  <fix>3d</fix>
</trkpt>
<trkpt lat="-27.274439" lon="151.290064">
  <ele>343.03</ele>
  <time>2026-09-01T20:01:07Z</time>
  <course>11.21</course>
  <speed>0.0</speed>
  <fix>3d</fix>
</trkpt>
<trkpt lat="-27.274439" lon="151.290064">
  <ele>343.1</ele>
  <time>2026-09-01T20:01:07Z</time>
  <course>270.0</course>
  <speed>0.0</speed>
  <fix>3d</fix>
</trkpt>
<trkpt lat="-27.274439" lon="151.290064">
  <ele>342.8</ele>
  <time>2026-09-01T20:01:07Z</time>
  <course>11.21</course>
  <speed>0.0</speed>
  <fix>3d</fix>
</trkpt>
<trkpt lat="-27.274439" lon="151.290064">
  <ele>343.1</ele>
  <time>2026-09-01T20:01:07Z</time>
  <course>270.0</course>
  <speed>0.0</speed>
  <fix>3d</fix>
</trkpt>
<trkpt lat="-27.274439" lon="151.290064">
  <ele>343.05</ele>
  <time>2026-09-01T20:01:07Z</time>
  <course>11.21</course>
  <speed>0.0</speed>
  <fix>3d</fix>
</trkpt>
<trkpt lat="-27.274439" lon="151.290064">
  <ele>343.1</ele>
  <time>2026-09-01T20:01:07Z</time>
  <course>270.0</course>
  <speed>0.0</speed>
  <fix>3d</fix>
</trkpt>
<trkpt lat="-27.274439" lon="151.290064">
  <ele>343.03</ele>
  <time>2026-09-01T20:01:07Z</time>
  <course>11.21</course>
  <speed>0.0</speed>
  <fix>3d</fix>
</trkpt>
<trkpt lat="-27.274439" lon="151.290064">
  <ele>343.1</ele>
  <time>2026-09-01T20:01:07Z</time>
  <course>270.0</course>
  <speed>0.0</speed>
  <fix>3d</fix>
</trkpt>
<trkpt lat="-27.274439" lon="151.290064">
  <ele>342.88</ele>
  <time>2026-09-01T20:01:07Z</time>
  <course>11.21</course>
  <speed>0.0</speed>
  <fix>3d</fix>
</trkpt>
<trkpt lat="-27.274439" lon="151.290064">
  <ele>343.1</ele>
  <time>2026-09-01T20:01:07Z</time>
  <course>270.0</course>
  <speed>0.0</speed>
  <fix>3d</fix>
</trkpt>
<trkpt lat="-27.274439" lon="151.290064">
  <ele>342.83</ele>
  <time>2026-09-01T20:01:07Z</time>
  <course>11.21</course>
  <speed>0.0</speed>
  <fix>3d</fix>
</trkpt>
<trkpt lat="-27.274439" lon="151.290064">
  <ele>343.1</ele>
  <time>2026-09-01T20:01:07Z</time>
  <course>270.0</course>
  <speed>0.0</speed>
  <fix>3d</fix>
</trkpt>
<trkpt lat="-27.274439" lon="151.290064">
  <ele>342.87</ele>
  <time>2026-09-01T20:01:07Z</time>
  <course>11.21</course>
  <speed>0.0</speed>
  <fix>3d</fix>
</trkpt>
<trkpt lat="-27.274439" lon="151.290064">
  <ele>343.1</ele>
  <time>2026-09-01T20:01:07Z</time>
  <course>270.0</course>
  <speed>0.0</speed>
  <fix>3d</fix>
</trkpt>
<trkpt lat="-27.274439" lon="151.290064">
  <ele>342.78</ele>
  <time>2026-09-01T20:01:07Z</time>
  <course>11.21</course>
  <speed>0.0</speed>
  <fix>3d</fix>
</trkpt>
<trkpt lat="-27.274439" lon="151.290064">
  <ele>343.1</ele>
  <time>2026-09-01T20:01:07Z</time>
  <course>270.0</course>
  <speed>0.0</speed>
  <fix>3d</fix>
</trkpt>
<trkpt lat="-27.274439" lon="151.290064">
  <ele>342.8</ele>
  <time>2026-09-01T20:01:07Z</time>
  <course>11.21</course>
  <speed>0.0</speed>
  <fix>3d</fix>
</trkpt>
<trkpt lat="-27.274439" lon="151.290064">
  <ele>343.1</ele>
  <time>2026-09-01T20:01:07Z</time>
  <course>270.0</course>
  <speed>0.0</speed>
  <fix>3d</fix>
</trkpt>
<trkpt lat="-27.274439" lon="151.290064">
  <ele>342.9</ele>
  <time>2026-09-01T20:01:07Z</time>
  <course>11.21</course>
  <speed>0.0</speed>
  <fix>3d</fix>
</trkpt>
<trkpt lat="-27.274439" lon="151.290064">
  <ele>343.1</ele>
  <time>2026-09-01T20:01:07Z</time>
  <course>270.0</course>
  <speed>0.0</speed>
  <fix>3d</fix>
</trkpt>
<trkpt lat="-27.274439" lon="151.290064">
  <ele>342.82</ele>
  <time>2026-09-01T20:01:07Z</time>
  <course>11.22</course>
  <speed>0.0</speed>
  <fix>3d</fix>
</trkpt>
<trkpt lat="-27.274439" lon="151.290064">
  <ele>343.1</ele>
  <time>2026-09-01T20:01:07Z</time>
  <course>270.0</course>
  <speed>0.0</speed>
  <fix>3d</fix>
</trkpt>
<trkpt lat="-27.274439" lon="151.290064">
  <ele>342.8</ele>
  <time>2026-09-01T20:01:07Z</time>
  <course>11.22</course>
  <speed>0.0</speed>
  <fix>3d</fix>
</trkpt>
<trkpt lat="-27.274439" lon="151.290064">
  <ele>343.1</ele>
  <time>2026-09-01T20:01:07Z</time>
  <course>270.0</course>
  <speed>0.0</speed>
  <fix>3d</fix>
</trkpt>
<trkpt lat="-27.274439" lon="151.290064">
  <ele>342.8</ele>
  <time>2026-09-01T20:01:07Z</time>
  <course>11.22</course>
  <speed>0.0</speed>
  <fix>3d</fix>
</trkpt>
<trkpt lat="-27.274439" lon="151.290064">
  <ele>343.1</ele>
  <time>2026-09-01T20:01:07Z</time>
  <course>270.0</course>
  <speed>0.0</speed>
  <fix>3d</fix>
</trkpt>
<trkpt lat="-27.274439" lon="151.290064">
  <ele>342.83</ele>
  <time>2026-09-01T20:01:07Z</time>
  <course>11.22</course>
  <speed>0.0</speed>
  <fix>3d</fix>
</trkpt>
<trkpt lat="-27.274439" lon="151.290064">
  <ele>343.1</ele>
  <time>2026-09-01T20:01:07Z</time>
  <course>270.0</course>
  <speed>0.0</speed>
  <fix>3d</fix>
</trkpt>
<trkpt lat="-27.274439" lon="151.290064">
  <ele>343.04</ele>
  <time>2026-09-01T20:01:07Z</time>
  <course>11.22</course>
  <speed>0.0</speed>
  <fix>3d</fix>
</trkpt>
<trkpt lat="-27.274439" lon="151.290064">
  <ele>343.1</ele>
  <time>2026-09-01T20:01:07Z</time>
  <course>270.0</course>
  <speed>0.0</speed>
  <fix>3d</fix>
</trkpt>
<trkpt lat="-27.274439" lon="151.290064">
  <ele>342.99</ele>
  <time>2026-09-01T20:01:07Z</time>
  <course>11.22</course>
  <speed>0.0</speed>
  <fix>3d</fix>
</trkpt>
<trkpt lat="-27.274439" lon="151.290064">
  <ele>343.1</ele>
  <time>2026-09-01T20:01:07Z</time>
  <course>270.0</course>
  <speed>0.0</speed>
  <fix>3d</fix>
</trkpt>
<trkpt lat="-27.274439" lon="151.290064">
  <ele>342.99</ele>
  <time>2026-09-01T20:01:07Z</time>
  <course>11.22</course>
  <speed>0.0</speed>
  <fix>3d</fix>
</trkpt>
<trkpt lat="-27.274439" lon="151.290064">
  <ele>343.1</ele>
  <time>2026-09-01T20:01:07Z</time>
  <course>270.0</course>
  <speed>0.0</speed>
  <fix>3d</fix>
</trkpt>
<trkpt lat="-27.274439" lon="151.290064">
  <ele>342.95</ele>
  <time>2026-09-01T20:01:07Z</time>
  <course>11.22</course>
  <speed>0.0</speed>
  <fix>3d</fix>
</trkpt>
<trkpt lat="-27.274439" lon="151.290064">
  <ele>343.1</ele>
  <time>2026-09-01T20:01:07Z</time>
  <course>270.0</course>
  <speed>0.0</speed>
  <fix>3d</fix>
</trkpt>
<trkpt lat="-27.274439" lon="151.290064">
  <ele>343.0</ele>
  <time>2026-09-01T20:01:07Z</time>
  <course>11.22</course>
  <speed>0.0</speed>
  <fix>3d</fix>
</trkpt>
<trkpt lat="-27.274439" lon="151.290064">
  <ele>343.1</ele>
  <time>2026-09-01T20:01:07Z</time>
  <course>270.0</course>
  <speed>0.0</speed>
  <fix>3d</fix>
</trkpt>
<trkpt lat="-27.274439" lon="151.290064">
  <ele>343.01</ele>
  <time>2026-09-01T20:01:07Z</time>
  <course>11.22</course>
  <speed>0.0</speed>
  <fix>3d</fix>
</trkpt>
<trkpt lat="-27.274439" lon="151.290064">
  <ele>343.1</ele>
  <time>2026-09-01T20:01:07Z</time>
  <course>270.0</course>
  <speed>0.0</speed>
  <fix>3d</fix>
</trkpt>
<trkpt lat="-27.274439" lon="151.290064">
  <ele>342.8</ele>
  <time>2026-09-01T20:01:07Z</time>
  <course>11.22</course>
  <speed>0.0</speed>
  <fix>3d</fix>
</trkpt>
<trkpt lat="-27.274439" lon="151.290064">
  <ele>343.1</ele>
  <time>2026-09-01T20:01:07Z</time>
  <course>270.0</course>
  <speed>0.0</speed>
  <fix>3d</fix>
</trkpt>
<trkpt lat="-27.274439" lon="151.290064">
  <ele>342.93</ele>
  <time>2026-09-01T20:01:07Z</time>
  <course>11.23</course>
  <speed>0.0</speed>
  <fix>3d</fix>
</trkpt>
<trkpt lat="-27.274439" lon="151.290064">
  <ele>343.1</ele>
  <time>2026-09-01T20:01:07Z</time>
  <course>270.0</course>
  <speed>0.0</speed>
  <fix>3d</fix>
</trkpt>
<trkpt lat="-27.274439" lon="151.290064">
  <ele>342.7</ele>
  <time>2026-09-01T20:01:07Z</time>
  <course>11.23</course>
  <speed>0.0</speed>
  <fix>3d</fix>
</trkpt>
<trkpt lat="-27.274439" lon="151.290064">
  <ele>343.1</ele>
  <time>2026-09-01T20:01:07Z</time>
  <course>270.0</course>
  <speed>0.0</speed>
  <fix>3d</fix>
</trkpt>
<trkpt lat="-27.274439" lon="151.290064">
  <ele>342.98</ele>
  <time>2026-09-01T20:01:07Z</time>
  <course>11.23</course>
  <speed>0.0</speed>
  <fix>3d</fix>
</trkpt>
<trkpt lat="-27.274439" lon="151.290064">
  <ele>343.1</ele>
  <time>2026-09-01T20:01:07Z</time>
  <course>270.0</course>
  <speed>0.0</speed>
  <fix>3d</fix>
</trkpt>
<trkpt lat="-27.274439" lon="151.290064">
  <ele>342.89</ele>
  <time>2026-09-01T20:01:07Z</time>
  <course>11.23</course>
  <speed>0.0</speed>
  <fix>3d</fix>
</trkpt>
<trkpt lat="-27.274439" lon="151.290064">
  <ele>343.1</ele>
  <time>2026-09-01T20:01:07Z</time>
  <course>270.0</course>
  <speed>0.0</speed>
  <fix>3d</fix>
</trkpt>
<trkpt lat="-27.274439" lon="151.290064">
  <ele>342.96</ele>
  <time>2026-09-01T20:01:07Z</time>
  <course>11.23</course>
  <speed>0.0</speed>
  <fix>3d</fix>
</trkpt>
<trkpt lat="-27.274439" lon="151.290064">
  <ele>343.1</ele>
  <time>2026-09-01T20:01:07Z</time>
  <course>270.0</course>
  <speed>0.0</speed>
  <fix>3d</fix>
</trkpt>
<trkpt lat="-27.274439" lon="151.290064">
  <ele>342.7</ele>
  <time>2026-09-01T20:01:07Z</time>
  <course>11.23</course>
  <speed>0.0</speed>
  <fix>3d</fix>
</trkpt>
<trkpt lat="-27.274439" lon="151.290064">
  <ele>343.1</ele>
  <time>2026-09-01T20:01:07Z</time>
  <course>270.0</course>
  <speed>0.0</speed>
  <fix>3d</fix>
</trkpt>
<trkpt lat="-27.274439" lon="151.290064">
  <ele>342.96</ele>
  <time>2026-09-01T20:01:07Z</time>
  <course>11.23</course>
  <speed>0.0</speed>
  <fix>3d</fix>
</trkpt>
<trkpt lat="-27.274439" lon="151.290064">
  <ele>343.1</ele>
  <time>2026-09-01T20:01:07Z</time>
  <course>270.0</course>
  <speed>0.0</speed>
  <fix>3d</fix>
</trkpt>
<trkpt lat="-27.274439" lon="151.290064">
  <ele>343.0</ele>
  <time>2026-09-01T20:01:07Z</time>
  <course>11.23</course>
  <speed>0.0</speed>
  <fix>3d</fix>
</trkpt>
<trkpt lat="-27.274439" lon="151.290064">
  <ele>343.1</ele>
  <time>2026-09-01T20:01:07Z</time>
  <course>270.0</course>
  <speed>0.0</speed>
  <fix>3d</fix>
</trkpt>
<trkpt lat="-27.274439" lon="151.290064">
  <ele>342.98</ele>
  <time>2026-09-01T20:01:07Z</time>
  <course>11.23</course>
  <speed>0.0</speed>
  <fix>3d</fix>
</trkpt>
<trkpt lat="-27.274439" lon="151.290064">
  <ele>343.1</ele>
  <time>2026-09-01T20:01:07Z</time>
  <course>270.0</course>
  <speed>0.0</speed>
  <fix>3d</fix>
</trkpt>
<trkpt lat="-27.274439" lon="151.290064">
  <ele>343.08</ele>
  <time>2026-09-01T20:01:07Z</time>
  <course>11.23</course>
  <speed>0.0</speed>
  <fix>3d</fix>
</trkpt>
<trkpt lat="-27.274439" lon="151.290064">
  <ele>343.1</ele>
  <time>2026-09-01T20:01:07Z</time>
  <course>270.0</course>
  <speed>0.0</speed>
  <fix>3d</fix>
</trkpt>
<trkpt lat="-27.274439" lon="151.290064">
  <ele>342.82</ele>
  <time>2026-09-01T20:01:07Z</time>
  <course>11.23</course>
  <speed>0.0</speed>
  <fix>3d</fix>
</trkpt>
<trkpt lat="-27.274439" lon="151.290064">
  <ele>343.1</ele>
  <time>2026-09-01T20:01:07Z</time>
  <course>270.0</course>
  <speed>0.0</speed>
  <fix>3d</fix>
</trkpt>
<trkpt lat="-27.274439" lon="151.290064">
  <ele>342.78</ele>
  <time>2026-09-01T20:01:07Z</time>
  <course>11.23</course>
  <speed>0.0</speed>
  <fix>3d</fix>
</trkpt>
<trkpt lat="-27.274439" lon="151.290064">
  <ele>343.1</ele>
  <time>2026-09-01T20:01:07Z</time>
  <course>270.0</course>
  <speed>0.0</speed>
  <fix>3d</fix>
</trkpt>
<trkpt lat="-27.274439" lon="151.290064">
  <ele>342.98</ele>
  <time>2026-09-01T20:01:07Z</time>
  <course>11.23</course>
  <speed>0.0</speed>
  <fix>3d</fix>
</trkpt>
<trkpt lat="-27.274439" lon="151.290064">
  <ele>343.1</ele>
  <time>2026-09-01T20:01:07Z</time>
  <course>270.0</course>
  <speed>0.0</speed>
  <fix>3d</fix>
</trkpt>
<trkpt lat="-27.274439" lon="151.290064">
  <ele>342.9</ele>
  <time>2026-09-01T20:01:07Z</time>
  <course>11.24</course>
  <speed>0.0</speed>
  <fix>3d</fix>
</trkpt>
<trkpt lat="-27.274439" lon="151.290064">
  <ele>343.1</ele>
  <time>2026-09-01T20:01:07Z</time>
  <course>270.0</course>
  <speed>0.0</speed>
  <fix>3d</fix>
</trkpt>
<trkpt lat="-27.274439" lon="151.290064">
  <ele>343.0</ele>
  <time>2026-09-01T20:01:07Z</time>
  <course>11.24</course>
  <speed>0.0</speed>
  <fix>3d</fix>
</trkpt>
<trkpt lat="-27.274439" lon="151.290064">
  <ele>343.1</ele>
  <time>2026-09-01T20:01:07Z</time>
  <course>270.0</course>
  <speed>0.0</speed>
  <fix>3d</fix>
</trkpt>
<trkpt lat="-27.274439" lon="151.290064">
  <ele>342.9</ele>
  <time>2026-09-01T20:01:07Z</time>
  <course>11.24</course>
  <speed>0.0</speed>
  <fix>3d</fix>
</trkpt>
<trkpt lat="-27.274439" lon="151.290064">
  <ele>343.1</ele>
  <time>2026-09-01T20:01:07Z</time>
  <course>270.0</course>
  <speed>0.0</speed>
  <fix>3d</fix>
</trkpt>
<trkpt lat="-27.274439" lon="151.290064">
  <ele>342.91</ele>
  <time>2026-09-01T20:01:07Z</time>
  <course>11.24</course>
  <speed>0.0</speed>
  <fix>3d</fix>
</trkpt>
<trkpt lat="-27.274439" lon="151.290064">
  <ele>343.1</ele>
  <time>2026-09-01T20:01:07Z</time>
  <course>270.0</course>
  <speed>0.0</speed>
  <fix>3d</fix>
</trkpt>
<trkpt lat="-27.274439" lon="151.290064">
  <ele>342.83</ele>
  <time>2026-09-01T20:01:07Z</time>
  <course>11.24</course>
  <speed>0.0</speed>
  <fix>3d</fix>
</trkpt>
<trkpt lat="-27.274439" lon="151.290064">
  <ele>343.1</ele>
  <time>2026-09-01T20:01:07Z</time>
  <course>270.0</course>
  <speed>0.0</speed>
  <fix>3d</fix>
</trkpt>
<trkpt lat="-27.274439" lon="151.290064">
  <ele>342.74</ele>
  <time>2026-09-01T20:01:07Z</time>
  <course>11.24</course>
  <speed>0.0</speed>
  <fix>3d</fix>
</trkpt>
<trkpt lat="-27.274439" lon="151.290064">
  <ele>343.1</ele>
  <time>2026-09-01T20:01:07Z</time>
  <course>270.0</course>
  <speed>0.0</speed>
  <fix>3d</fix>
</trkpt>
<trkpt lat="-27.274439" lon="151.290064">
  <ele>342.89</ele>
  <time>2026-09-01T20:01:07Z</time>
  <course>11.24</course>
  <speed>0.0</speed>
  <fix>3d</fix>
</trkpt>
<trkpt lat="-27.274439" lon="151.290064">
  <ele>343.1</ele>
  <time>2026-09-01T20:01:07Z</time>
  <course>270.0</course>
  <speed>0.0</speed>
  <fix>3d</fix>
</trkpt>
<trkpt lat="-27.274439" lon="151.290064">
  <ele>342.87</ele>
  <time>2026-09-01T20:01:07Z</time>
  <course>11.24</course>
  <speed>0.0</speed>
  <fix>3d</fix>
</trkpt>
<trkpt lat="-27.274439" lon="151.290064">
  <ele>343.1</ele>
  <time>2026-09-01T20:01:07Z</time>
  <course>270.0</course>
  <speed>0.0</speed>
  <fix>3d</fix>
</trkpt>
<trkpt lat="-27.274439" lon="151.290064">
  <ele>342.92</ele>
  <time>2026-09-01T20:01:07Z</time>
  <course>11.24</course>
  <speed>0.0</speed>
  <fix>3d</fix>
</trkpt>
<trkpt lat="-27.274439" lon="151.290064">
  <ele>343.1</ele>
  <time>2026-09-01T20:01:07Z</time>
  <course>270.0</course>
  <speed>0.0</speed>
  <fix>3d</fix>
</trkpt>
<trkpt lat="-27.274439" lon="151.290064">
  <ele>343.01</ele>
  <time>2026-09-01T20:01:07Z</time>
  <course>11.24</course>
  <speed>0.0</speed>
  <fix>3d</fix>
</trkpt>
<trkpt lat="-27.274439" lon="151.290064">
  <ele>343.1</ele>
  <time>2026-09-01T20:01:07Z</time>
  <course>270.0</course>
  <speed>0.0</speed>
  <fix>3d</fix>
</trkpt>
<trkpt lat="-27.274439" lon="151.290064">
  <ele>342.9</ele>
  <time>2026-09-01T20:01:07Z</time>
  <course>11.24</course>
  <speed>0.0</speed>
  <fix>3d</fix>
</trkpt>
<trkpt lat="-27.274439" lon="151.290064">
  <ele>343.1</ele>
  <time>2026-09-01T20:01:07Z</time>
  <course>270.0</course>
  <speed>0.0</speed>
  <fix>3d</fix>
</trkpt>
<trkpt lat="-27.274439" lon="151.290064">
  <ele>342.71</ele>
  <time>2026-09-01T20:01:07Z</time>
  <course>11.24</course>
  <speed>0.0</speed>
  <fix>3d</fix>
</trkpt>
<trkpt lat="-27.274439" lon="151.290064">
  <ele>343.1</ele>
  <time>2026-09-01T20:01:07Z</time>
  <course>270.0</course>
  <speed>0.0</speed>
  <fix>3d</fix>
</trkpt>
<trkpt lat="-27.274439" lon="151.290064">
  <ele>343.05</ele>
  <time>2026-09-01T20:01:07Z</time>
  <course>11.24</course>
  <speed>0.0</speed>
  <fix>3d</fix>
</trkpt>
<trkpt lat="-27.274439" lon="151.290064">
  <ele>343.1</ele>
  <time>2026-09-01T20:01:07Z</time>
  <course>270.0</course>
  <speed>0.0</speed>
  <fix>3d</fix>
</trkpt>
<trkpt lat="-27.274439" lon="151.290064">
  <ele>343.0</ele>
  <time>2026-09-01T20:01:07Z</time>
  <course>11.23</course>
  <speed>0.0</speed>
  <fix>3d</fix>
</trkpt>
<trkpt lat="-27.274439" lon="151.290064">
  <ele>343.1</ele>
  <time>2026-09-01T20:01:07Z</time>
  <course>270.0</course>
  <speed>0.0</speed>
  <fix>3d</fix>
</trkpt>
<trkpt lat="-27.274439" lon="151.290064">
  <ele>342.8</ele>
  <time>2026-09-01T20:01:07Z</time>
  <course>11.23</course>
  <speed>0.0</speed>
  <fix>3d</fix>
</trkpt>
<trkpt lat="-27.274439" lon="151.290064">
  <ele>343.1</ele>
  <time>2026-09-01T20:01:07Z</time>
  <course>270.0</course>
  <speed>0.0</speed>
  <fix>3d</fix>
</trkpt>
<trkpt lat="-27.274439" lon="151.290064">
  <ele>342.85</ele>
  <time>2026-09-01T20:01:07Z</time>
  <course>11.23</course>
  <speed>0.0</speed>
  <fix>3d</fix>
</trkpt>
<trkpt lat="-27.274439" lon="151.290064">
  <ele>343.1</ele>
  <time>2026-09-01T20:01:07Z</time>
  <course>270.0</course>
  <speed>0.0</speed>
  <fix>3d</fix>
</trkpt>
<trkpt lat="-27.274439" lon="151.290064">
  <ele>342.96</ele>
  <time>2026-09-01T20:01:07Z</time>
  <course>11.23</course>
  <speed>0.0</speed>
  <fix>3d</fix>
</trkpt>
<trkpt lat="-27.274439" lon="151.290064">
  <ele>343.1</ele>
  <time>2026-09-01T20:01:07Z</time>
  <course>270.0</course>
  <speed>0.0</speed>
  <fix>3d</fix>
</trkpt>
<trkpt lat="-27.274439" lon="151.290064">
  <ele>342.82</ele>
  <time>2026-09-01T20:01:07Z</time>
  <course>11.22</course>
  <speed>0.0</speed>
  <fix>3d</fix>
</trkpt>
<trkpt lat="-27.274439" lon="151.290064">
  <ele>343.1</ele>
  <time>2026-09-01T20:01:07Z</time>
  <course>270.0</course>
  <speed>0.0</speed>
  <fix>3d</fix>
</trkpt>
<trkpt lat="-27.274439" lon="151.290064">
  <ele>342.75</ele>
  <time>2026-09-01T20:01:07Z</time>
  <course>11.22</course>
  <speed>0.0</speed>
  <fix>3d</fix>
</trkpt>
<trkpt lat="-27.274439" lon="151.290064">
  <ele>343.1</ele>
  <time>2026-09-01T20:01:07Z</time>
  <course>270.0</course>
  <speed>0.0</speed>
  <fix>3d</fix>
</trkpt>
<trkpt lat="-27.274439" lon="151.290064">
  <ele>343.08</ele>
  <time>2026-09-01T20:01:07Z</time>
  <course>11.22</course>
  <speed>0.0</speed>
  <fix>3d</fix>
</trkpt>
<trkpt lat="-27.274439" lon="151.290064">
  <ele>343.1</ele>
  <time>2026-09-01T20:01:07Z</time>
  <course>270.0</course>
  <speed>0.0</speed>
  <fix>3d</fix>
</trkpt>
<trkpt lat="-27.274439" lon="151.290064">
  <ele>343.03</ele>
  <time>2026-09-01T20:01:07Z</time>
  <course>11.22</course>
  <speed>0.0</speed>
  <fix>3d</fix>
</trkpt>
<trkpt lat="-27.274439" lon="151.290064">
  <ele>343.1</ele>
  <time>2026-09-01T20:01:07Z</time>
  <course>270.0</course>
  <speed>0.0</speed>
  <fix>3d</fix>
</trkpt>
<trkpt lat="-27.274439" lon="151.290064">
  <ele>342.94</ele>
  <time>2026-09-01T20:01:07Z</time>
  <course>11.22</course>
  <speed>0.0</speed>
  <fix>3d</fix>
</trkpt>
<trkpt lat="-27.274439" lon="151.290064">
  <ele>343.1</ele>
  <time>2026-09-01T20:01:07Z</time>
  <course>270.0</course>
  <speed>0.0</speed>
  <fix>3d</fix>
</trkpt>
<trkpt lat="-27.274439" lon="151.290064">
  <ele>342.93</ele>
  <time>2026-09-01T20:01:07Z</time>
  <course>11.21</course>
  <speed>0.0</speed>
  <fix>3d</fix>
</trkpt>
<trkpt lat="-27.274439" lon="151.290064">
  <ele>343.1</ele>
  <time>2026-09-01T20:01:07Z</time>
  <course>270.0</course>
  <speed>0.0</speed>
  <fix>3d</fix>
</trkpt>
<trkpt lat="-27.274439" lon="151.290064">
  <ele>343.08</ele>
  <time>2026-09-01T20:01:07Z</time>
  <course>11.21</course>
  <speed>0.0</speed>
  <fix>3d</fix>
</trkpt>
<trkpt lat="-27.274439" lon="151.290064">
  <ele>343.1</ele>
  <time>2026-09-01T20:01:07Z</time>
  <course>270.0</course>
  <speed>0.0</speed>
  <fix>3d</fix>
</trkpt>
<trkpt lat="-27.274439" lon="151.290064">
  <ele>342.85</ele>
  <time>2026-09-01T20:01:07Z</time>
  <course>11.21</course>
  <speed>0.0</speed>
  <fix>3d</fix>
</trkpt>
<trkpt lat="-27.274439" lon="151.290064">
  <ele>343.1</ele>
  <time>2026-09-01T20:01:07Z</time>
  <course>270.0</course>
  <speed>0.0</speed>
  <fix>3d</fix>
</trkpt>
<trkpt lat="-27.274439" lon="151.290064">
  <ele>342.86</ele>
  <time>2026-09-01T20:01:07Z</time>
  <course>11.21</course>
  <speed>0.0</speed>
  <fix>3d</fix>
</trkpt>
<trkpt lat="-27.274439" lon="151.290064">
  <ele>343.1</ele>
  <time>2026-09-01T20:01:07Z</time>
  <course>270.0</course>
  <speed>0.0</speed>
  <fix>3d</fix>
</trkpt>
<trkpt lat="-27.274439" lon="151.290064">
  <ele>342.83</ele>
  <time>2026-09-01T20:01:07Z</time>
  <course>11.21</course>
  <speed>0.0</speed>
  <fix>3d</fix>
</trkpt>
<trkpt lat="-27.274439" lon="151.290064">
  <ele>343.1</ele>
  <time>2026-09-01T20:01:07Z</time>
  <course>270.0</course>
  <speed>0.0</speed>
  <fix>3d</fix>
</trkpt>
<trkpt lat="-27.274439" lon="151.290064">
  <ele>343.14</ele>
  <time>2026-09-01T20:01:07Z</time>
  <course>11.2</course>
  <speed>0.0</speed>
  <fix>3d</fix>
</trkpt>
<trkpt lat="-27.274439" lon="151.290064">
  <ele>343.1</ele>
  <time>2026-09-01T20:01:07Z</time>
  <course>270.0</course>
  <speed>0.0</speed>
  <fix>3d</fix>
</trkpt>
<trkpt lat="-27.274439" lon="151.290064">
  <ele>343.03</ele>
  <time>2026-09-01T20:01:07Z</time>
  <course>11.2</course>
  <speed>0.0</speed>
  <fix>3d</fix>
</trkpt>
<trkpt lat="-27.274439" lon="151.290064">
  <ele>343.1</ele>
  <time>2026-09-01T20:01:07Z</time>
  <course>270.0</course>
  <speed>0.0</speed>
  <fix>3d</fix>
</trkpt>
<trkpt lat="-27.274439" lon="151.290064">
  <ele>342.82</ele>
  <time>2026-09-01T20:01:07Z</time>
  <course>11.2</course>
  <speed>0.0</speed>
  <fix>3d</fix>
</trkpt>
<trkpt lat="-27.274439" lon="151.290064">
  <ele>343.1</ele>
  <time>2026-09-01T20:01:07Z</time>
  <course>270.0</course>
  <speed>0.0</speed>
  <fix>3d</fix>
</trkpt>
<trkpt lat="-27.274439" lon="151.290064">
  <ele>342.93</ele>
  <time>2026-09-01T20:01:07Z</time>
  <course>11.2</course>
  <speed>0.0</speed>
  <fix>3d</fix>
</trkpt>
<trkpt lat="-27.274439" lon="151.290064">
  <ele>343.1</ele>
  <time>2026-09-01T20:01:07Z</time>
  <course>270.0</course>
  <speed>0.0</speed>
  <fix>3d</fix>
</trkpt>
<trkpt lat="-27.274439" lon="151.290064">
  <ele>342.82</ele>
  <time>2026-09-01T20:01:07Z</time>
  <course>11.2</course>
  <speed>0.0</speed>
  <fix>3d</fix>
</trkpt>
<trkpt lat="-27.274439" lon="151.290064">
  <ele>343.1</ele>
  <time>2026-09-01T20:01:07Z</time>
  <course>270.0</course>
  <speed>0.0</speed>
  <fix>3d</fix>
</trkpt>
<trkpt lat="-27.274439" lon="151.290064">
  <ele>342.83</ele>
  <time>2026-09-01T20:01:07Z</time>
  <course>11.19</course>
  <speed>0.0</speed>
  <fix>3d</fix>
</trkpt>
<trkpt lat="-27.274439" lon="151.290064">
  <ele>343.1</ele>
  <time>2026-09-01T20:01:07Z</time>
  <course>270.0</course>
  <speed>0.0</speed>
  <fix>3d</fix>
</trkpt>
<trkpt lat="-27.274439" lon="151.290064">
  <ele>342.9</ele>
  <time>2026-09-01T20:01:07Z</time>
  <course>11.19</course>
  <speed>0.0</speed>
  <fix>3d</fix>
</trkpt>
<trkpt lat="-27.274439" lon="151.290064">
  <ele>343.1</ele>
  <time>2026-09-01T20:01:07Z</time>
  <course>270.0</course>
  <speed>0.0</speed>
  <fix>3d</fix>
</trkpt>
<trkpt lat="-27.274439" lon="151.290064">
  <ele>342.83</ele>
  <time>2026-09-01T20:01:07Z</time>
  <course>11.19</course>
  <speed>0.0</speed>
  <fix>3d</fix>
</trkpt>
<trkpt lat="-27.274439" lon="151.290064">
  <ele>343.1</ele>
  <time>2026-09-01T20:01:07Z</time>
  <course>270.0</course>
  <speed>0.0</speed>
  <fix>3d</fix>
</trkpt>
<trkpt lat="-27.274439" lon="151.290064">
  <ele>343.04</ele>
  <time>2026-09-01T20:01:07Z</time>
  <course>11.19</course>
  <speed>0.0</speed>
  <fix>3d</fix>
</trkpt>
<trkpt lat="-27.274439" lon="151.290064">
  <ele>343.1</ele>
  <time>2026-09-01T20:01:07Z</time>
  <course>270.0</course>
  <speed>0.0</speed>
  <fix>3d</fix>
</trkpt>
<trkpt lat="-27.274439" lon="151.290064">
  <ele>342.98</ele>
  <time>2026-09-01T20:01:07Z</time>
  <course>11.19</course>
  <speed>0.0</speed>
  <fix>3d</fix>
</trkpt>
<trkpt lat="-27.274439" lon="151.290064">
  <ele>343.1</ele>
  <time>2026-09-01T20:01:07Z</time>
  <course>270.0</course>
  <speed>0.0</speed>
  <fix>3d</fix>
</trkpt>
<trkpt lat="-27.274439" lon="151.290064">
  <ele>342.99</ele>
  <time>2026-09-01T20:01:07Z</time>
  <course>11.19</course>
  <speed>0.0</speed>
  <fix>3d</fix>
</trkpt>
<trkpt lat="-27.274439" lon="151.290064">
  <ele>343.1</ele>
  <time>2026-09-01T20:01:07Z</time>
  <course>270.0</course>
  <speed>0.0</speed>
  <fix>3d</fix>
</trkpt>
<trkpt lat="-27.274439" lon="151.290064">
  <ele>342.98</ele>
  <time>2026-09-01T20:01:07Z</time>
  <course>11.18</course>
  <speed>0.0</speed>
  <fix>3d</fix>
</trkpt>
<trkpt lat="-27.274439" lon="151.290064">
  <ele>343.1</ele>
  <time>2026-09-01T20:01:07Z</time>
  <course>270.0</course>
  <speed>0.0</speed>
  <fix>3d</fix>
</trkpt>
<trkpt lat="-27.274439" lon="151.290064">
  <ele>342.9</ele>
  <time>2026-09-01T20:01:07Z</time>
  <course>11.18</course>
  <speed>0.0</speed>
  <fix>3d</fix>
</trkpt>
<trkpt lat="-27.274439" lon="151.290064">
  <ele>343.1</ele>
  <time>2026-09-01T20:01:07Z</time>
  <course>270.0</course>
  <speed>0.0</speed>
  <fix>3d</fix>
</trkpt>
<trkpt lat="-27.274439" lon="151.290064">
  <ele>343.03</ele>
  <time>2026-09-01T20:01:07Z</time>
  <course>11.18</course>
  <speed>0.0</speed>
  <fix>3d</fix>
</trkpt>
<trkpt lat="-27.274439" lon="151.290064">
  <ele>343.1</ele>
  <time>2026-09-01T20:01:07Z</time>
  <course>270.0</course>
  <speed>0.0</speed>
  <fix>3d</fix>
</trkpt>
<trkpt lat="-27.274439" lon="151.290064">
  <ele>343.11</ele>
  <time>2026-09-01T20:01:07Z</time>
  <course>11.18</course>
  <speed>0.0</speed>
  <fix>3d</fix>
</trkpt>
<trkpt lat="-27.274439" lon="151.290064">
  <ele>343.1</ele>
  <time>2026-09-01T20:01:07Z</time>
  <course>270.0</course>
  <speed>0.0</speed>
  <fix>3d</fix>
</trkpt>
<trkpt lat="-27.274439" lon="151.290064">
  <ele>342.98</ele>
  <time>2026-09-01T20:01:07Z</time>
  <course>11.18</course>
  <speed>0.0</speed>
  <fix>3d</fix>
</trkpt>
<trkpt lat="-27.274439" lon="151.290064">
  <ele>343.1</ele>
  <time>2026-09-01T20:01:07Z</time>
  <course>270.0</course>
  <speed>0.0</speed>
  <fix>3d</fix>
</trkpt>
<trkpt lat="-27.274439" lon="151.290064">
  <ele>343.06</ele>
  <time>2026-09-01T20:01:07Z</time>
  <course>11.18</course>
  <speed>0.0</speed>
  <fix>3d</fix>
</trkpt>
<trkpt lat="-27.274439" lon="151.290064">
  <ele>343.1</ele>
  <time>2026-09-01T20:01:07Z</time>
  <course>270.0</course>
  <speed>0.0</speed>
  <fix>3d</fix>
</trkpt>
<trkpt lat="-27.274439" lon="151.290064">
  <ele>342.9</ele>
  <time>2026-09-01T20:01:07Z</time>
  <course>11.18</course>
  <speed>0.0</speed>
  <fix>3d</fix>
</trkpt>
<trkpt lat="-27.274439" lon="151.290064">
  <ele>343.1</ele>
  <time>2026-09-01T20:01:07Z</time>
  <course>270.0</course>
  <speed>0.0</speed>
  <fix>3d</fix>
</trkpt>
<trkpt lat="-27.274439" lon="151.290064">
  <ele>342.79</ele>
  <time>2026-09-01T20:01:07Z</time>
  <course>11.17</course>
  <speed>0.0</speed>
  <fix>3d</fix>
</trkpt>
<trkpt lat="-27.274439" lon="151.290064">
  <ele>343.1</ele>
  <time>2026-09-01T20:01:07Z</time>
  <course>270.0</course>
  <speed>0.0</speed>
  <fix>3d</fix>
</trkpt>
<trkpt lat="-27.274439" lon="151.290064">
  <ele>343.08</ele>
  <time>2026-09-01T20:01:07Z</time>
  <course>11.17</course>
  <speed>0.0</speed>
  <fix>3d</fix>
</trkpt>
<trkpt lat="-27.274439" lon="151.290064">
  <ele>343.1</ele>
  <time>2026-09-01T20:01:07Z</time>
  <course>270.0</course>
  <speed>0.0</speed>
  <fix>3d</fix>
</trkpt>
<trkpt lat="-27.274439" lon="151.290064">
  <ele>342.99</ele>
  <time>2026-09-01T20:01:07Z</time>
  <course>11.17</course>
  <speed>0.0</speed>
  <fix>3d</fix>
</trkpt>
<trkpt lat="-27.274439" lon="151.290064">
  <ele>343.1</ele>
  <time>2026-09-01T20:01:07Z</time>
  <course>270.0</course>
  <speed>0.0</speed>
  <fix>3d</fix>
</trkpt>
<trkpt lat="-27.274439" lon="151.290064">
  <ele>342.95</ele>
  <time>2026-09-01T20:01:07Z</time>
  <course>11.17</course>
  <speed>0.0</speed>
  <fix>3d</fix>
</trkpt>
<trkpt lat="-27.274439" lon="151.290064">
  <ele>343.1</ele>
  <time>2026-09-01T20:01:07Z</time>
  <course>270.0</course>
  <speed>0.0</speed>
  <fix>3d</fix>
</trkpt>
<trkpt lat="-27.274439" lon="151.290064">
  <ele>342.8</ele>
  <time>2026-09-01T20:01:07Z</time>
  <course>11.17</course>
  <speed>0.0</speed>
  <fix>3d</fix>
</trkpt>
<trkpt lat="-27.274439" lon="151.290064">
  <ele>343.1</ele>
  <time>2026-09-01T20:01:07Z</time>
  <course>270.0</course>
  <speed>0.0</speed>
  <fix>3d</fix>
</trkpt>
<trkpt lat="-27.274439" lon="151.290064">
  <ele>343.01</ele>
  <time>2026-09-01T20:01:07Z</time>
  <course>11.17</course>
  <speed>0.0</speed>
  <fix>3d</fix>
</trkpt>
<trkpt lat="-27.274439" lon="151.290064">
  <ele>343.1</ele>
  <time>2026-09-01T20:01:07Z</time>
  <course>270.0</course>
  <speed>0.0</speed>
  <fix>3d</fix>
</trkpt>
<trkpt lat="-27.274439" lon="151.290064">
  <ele>342.78</ele>
  <time>2026-09-01T20:01:07Z</time>
  <course>11.17</course>
  <speed>0.0</speed>
  <fix>3d</fix>
</trkpt>
<trkpt lat="-27.274439" lon="151.290064">
  <ele>343.1</ele>
  <time>2026-09-01T20:01:07Z</time>
  <course>270.0</course>
  <speed>0.0</speed>
  <fix>3d</fix>
</trkpt>
<trkpt lat="-27.274439" lon="151.290064">
  <ele>342.81</ele>
  <time>2026-09-01T20:01:07Z</time>
  <course>11.16</course>
  <speed>0.0</speed>
  <fix>3d</fix>
</trkpt>
<trkpt lat="-27.274439" lon="151.290064">
  <ele>343.1</ele>
  <time>2026-09-01T20:01:07Z</time>
  <course>270.0</course>
  <speed>0.0</speed>
  <fix>3d</fix>
</trkpt>
<trkpt lat="-27.274439" lon="151.290064">
  <ele>342.85</ele>
  <time>2026-09-01T20:01:07Z</time>
  <course>11.16</course>
  <speed>0.0</speed>
  <fix>3d</fix>
</trkpt>
<trkpt lat="-27.274439" lon="151.290064">
  <ele>343.1</ele>
  <time>2026-09-01T20:01:07Z</time>
  <course>270.0</course>
  <speed>0.0</speed>
  <fix>3d</fix>
</trkpt>
<trkpt lat="-27.274439" lon="151.290064">
  <ele>342.78</ele>
  <time>2026-09-01T20:01:07Z</time>
  <course>11.16</course>
  <speed>0.0</speed>
  <fix>3d</fix>
</trkpt>
<trkpt lat="-27.274439" lon="151.290064">
  <ele>343.1</ele>
  <time>2026-09-01T20:01:07Z</time>
  <course>270.0</course>
  <speed>0.0</speed>
  <fix>3d</fix>
</trkpt>
<trkpt lat="-27.274439" lon="151.290064">
  <ele>342.79</ele>
  <time>2026-09-01T20:01:07Z</time>
  <course>11.16</course>
  <speed>0.0</speed>
  <fix>3d</fix>
</trkpt>
<trkpt lat="-27.274439" lon="151.290064">
  <ele>343.1</ele>
  <time>2026-09-01T20:01:07Z</time>
  <course>270.0</course>
  <speed>0.0</speed>
  <fix>3d</fix>
</trkpt>
<trkpt lat="-27.274439" lon="151.290064">
  <ele>342.9</ele>
  <time>2026-09-01T20:01:07Z</time>
  <course>11.16</course>
  <speed>0.0</speed>
  <fix>3d</fix>
</trkpt>
<trkpt lat="-27.274439" lon="151.290064">
  <ele>343.1</ele>
  <time>2026-09-01T20:01:07Z</time>
  <course>270.0</course>
  <speed>0.0</speed>
  <fix>3d</fix>
</trkpt>
<trkpt lat="-27.274439" lon="151.290064">
  <ele>342.98</ele>
  <time>2026-09-01T20:01:07Z</time>
  <course>11.16</course>
  <speed>0.0</speed>
  <fix>3d</fix>
</trkpt>
<trkpt lat="-27.274439" lon="151.290064">
  <ele>343.1</ele>
  <time>2026-09-01T20:01:07Z</time>
  <course>270.0</course>
  <speed>0.0</speed>
  <fix>3d</fix>
</trkpt>
<trkpt lat="-27.274439" lon="151.290064">
  <ele>342.77</ele>
  <time>2026-09-01T20:01:07Z</time>
  <course>11.16</course>
  <speed>0.0</speed>
  <fix>3d</fix>
</trkpt>
<trkpt lat="-27.274439" lon="151.290064">
  <ele>343.1</ele>
  <time>2026-09-01T20:01:07Z</time>
  <course>270.0</course>
  <speed>0.0</speed>
  <fix>3d</fix>
</trkpt>
<trkpt lat="-27.274439" lon="151.290064">
  <ele>342.95</ele>
  <time>2026-09-01T20:01:07Z</time>
  <course>11.16</course>
  <speed>0.0</speed>
  <fix>3d</fix>
</trkpt>
<trkpt lat="-27.274439" lon="151.290064">
  <ele>343.1</ele>
  <time>2026-09-01T20:01:07Z</time>
  <course>270.0</course>
  <speed>0.0</speed>
  <fix>3d</fix>
</trkpt>
<trkpt lat="-27.274439" lon="151.290064">
  <ele>343.04</ele>
  <time>2026-09-01T20:01:07Z</time>
  <course>11.15</course>
  <speed>0.0</speed>
  <fix>3d</fix>
</trkpt>
<trkpt lat="-27.274439" lon="151.290064">
  <ele>343.1</ele>
  <time>2026-09-01T20:01:07Z</time>
  <course>270.0</course>
  <speed>0.0</speed>
  <fix>3d</fix>
</trkpt>
<trkpt lat="-27.274439" lon="151.290064">
  <ele>342.83</ele>
  <time>2026-09-01T20:01:07Z</time>
  <course>11.15</course>
  <speed>0.0</speed>
  <fix>3d</fix>
</trkpt>
<trkpt lat="-27.274439" lon="151.290064">
  <ele>343.1</ele>
  <time>2026-09-01T20:01:07Z</time>
  <course>270.0</course>
  <speed>0.0</speed>
  <fix>3d</fix>
</trkpt>
<trkpt lat="-27.274439" lon="151.290064">
  <ele>342.87</ele>
  <time>2026-09-01T20:01:07Z</time>
  <course>11.15</course>
  <speed>0.0</speed>
  <fix>3d</fix>
</trkpt>
<trkpt lat="-27.274439" lon="151.290064">
  <ele>343.1</ele>
  <time>2026-09-01T20:01:07Z</time>
  <course>270.0</course>
  <speed>0.0</speed>
  <fix>3d</fix>
</trkpt>
<trkpt lat="-27.274439" lon="151.290064">
  <ele>342.76</ele>
  <time>2026-09-01T20:01:07Z</time>
  <course>11.15</course>
  <speed>0.0</speed>
  <fix>3d</fix>
</trkpt>
<trkpt lat="-27.274439" lon="151.290064">
  <ele>343.1</ele>
  <time>2026-09-01T20:01:07Z</time>
  <course>270.0</course>
  <speed>0.0</speed>
  <fix>3d</fix>
</trkpt>
<trkpt lat="-27.274439" lon="151.290064">
  <ele>343.01</ele>
  <time>2026-09-01T20:01:07Z</time>
  <course>11.14</course>
  <speed>0.0</speed>
  <fix>3d</fix>
</trkpt>
<trkpt lat="-27.274439" lon="151.290064">
  <ele>343.1</ele>
  <time>2026-09-01T20:01:07Z</time>
  <course>270.0</course>
  <speed>0.0</speed>
  <fix>3d</fix>
</trkpt>
<trkpt lat="-27.274439" lon="151.290064">
  <ele>343.08</ele>
  <time>2026-09-01T20:01:07Z</time>
  <course>11.14</course>
  <speed>0.0</speed>
  <fix>3d</fix>
</trkpt>
<trkpt lat="-27.274439" lon="151.290064">
  <ele>343.1</ele>
  <time>2026-09-01T20:01:07Z</time>
  <course>270.0</course>
  <speed>0.0</speed>
  <fix>3d</fix>
</trkpt>
<trkpt lat="-27.274439" lon="151.290064">
  <ele>342.82</ele>
  <time>2026-09-01T20:01:07Z</time>
  <course>11.13</course>
  <speed>0.0</speed>
  <fix>3d</fix>
</trkpt>
<trkpt lat="-27.274439" lon="151.290064">
  <ele>343.1</ele>
  <time>2026-09-01T20:01:07Z</time>
  <course>270.0</course>
  <speed>0.0</speed>
  <fix>3d</fix>
</trkpt>
<trkpt lat="-27.274439" lon="151.290064">
  <ele>343.12</ele>
  <time>2026-09-01T20:01:07Z</time>
  <course>11.13</course>
  <speed>0.0</speed>
  <fix>3d</fix>
</trkpt>
<trkpt lat="-27.274439" lon="151.290064">
  <ele>343.1</ele>
  <time>2026-09-01T20:01:07Z</time>
  <course>270.0</course>
  <speed>0.0</speed>
  <fix>3d</fix>
</trkpt>
<trkpt lat="-27.274439" lon="151.290064">
  <ele>342.85</ele>
  <time>2026-09-01T20:01:07Z</time>
  <course>11.13</course>
  <speed>0.0</speed>
  <fix>3d</fix>
</trkpt>
<trkpt lat="-27.274439" lon="151.290064">
  <ele>343.1</ele>
  <time>2026-09-01T20:01:07Z</time>
  <course>270.0</course>
  <speed>0.0</speed>
  <fix>3d</fix>
</trkpt>
<trkpt lat="-27.274439" lon="151.290064">
  <ele>343.01</ele>
  <time>2026-09-01T20:01:07Z</time>
  <course>11.12</course>
  <speed>0.0</speed>
  <fix>3d</fix>
</trkpt>
<trkpt lat="-27.274439" lon="151.290064">
  <ele>343.1</ele>
  <time>2026-09-01T20:01:07Z</time>
  <course>270.0</course>
  <speed>0.0</speed>
  <fix>3d</fix>
</trkpt>
<trkpt lat="-27.274439" lon="151.290064">
  <ele>343.01</ele>
  <time>2026-09-01T20:01:07Z</time>
  <course>11.12</course>
  <speed>0.0</speed>
  <fix>3d</fix>
</trkpt>
<trkpt lat="-27.274439" lon="151.290064">
  <ele>343.1</ele>
  <time>2026-09-01T20:01:07Z</time>
  <course>270.0</course>
  <speed>0.0</speed>
  <fix>3d</fix>
</trkpt>
<trkpt lat="-27.274439" lon="151.290064">
  <ele>342.82</ele>
  <time>2026-09-01T20:01:07Z</time>
  <course>11.11</course>
  <speed>0.0</speed>
  <fix>3d</fix>
</trkpt>
<trkpt lat="-27.274439" lon="151.290064">
  <ele>343.1</ele>
  <time>2026-09-01T20:01:07Z</time>
  <course>270.0</course>
  <speed>0.0</speed>
  <fix>3d</fix>
</trkpt>
<trkpt lat="-27.274439" lon="151.290064">
  <ele>343.05</ele>
  <time>2026-09-01T20:01:07Z</time>
  <course>11.11</course>
  <speed>0.0</speed>
  <fix>3d</fix>
</trkpt>
<trkpt lat="-27.274439" lon="151.290064">
  <ele>343.1</ele>
  <time>2026-09-01T20:01:07Z</time>
  <course>270.0</course>
  <speed>0.0</speed>
  <fix>3d</fix>
</trkpt>
<trkpt lat="-27.274439" lon="151.290064">
  <ele>342.9</ele>
  <time>2026-09-01T20:01:07Z</time>
  <course>11.11</course>
  <speed>0.0</speed>
  <fix>3d</fix>
</trkpt>
<trkpt lat="-27.274439" lon="151.290064">
  <ele>343.1</ele>
  <time>2026-09-01T20:01:07Z</time>
  <course>270.0</course>
  <speed>0.0</speed>
  <fix>3d</fix>
</trkpt>
<trkpt lat="-27.274439" lon="151.290064">
  <ele>342.98</ele>
  <time>2026-09-01T20:01:07Z</time>
  <course>11.1</course>
  <speed>0.0</speed>
  <fix>3d</fix>
</trkpt>
<trkpt lat="-27.274439" lon="151.290064">
  <ele>343.1</ele>
  <time>2026-09-01T20:01:07Z</time>
  <course>270.0</course>
  <speed>0.0</speed>
  <fix>3d</fix>
</trkpt>
<trkpt lat="-27.274439" lon="151.290064">
  <ele>342.84</ele>
  <time>2026-09-01T20:01:07Z</time>
  <course>11.1</course>
  <speed>0.0</speed>
  <fix>3d</fix>
</trkpt>
<trkpt lat="-27.274439" lon="151.290064">
  <ele>343.1</ele>
  <time>2026-09-01T20:01:07Z</time>
  <course>270.0</course>
  <speed>0.0</speed>
  <fix>3d</fix>
</trkpt>
<trkpt lat="-27.274439" lon="151.290064">
  <ele>343.0</ele>
  <time>2026-09-01T20:01:07Z</time>
  <course>11.1</course>
  <speed>0.0</speed>
  <fix>3d</fix>
</trkpt>
<trkpt lat="-27.274439" lon="151.290064">
  <ele>343.1</ele>
  <time>2026-09-01T20:01:07Z</time>
  <course>270.0</course>
  <speed>0.0</speed>
  <fix>3d</fix>
</trkpt>
<trkpt lat="-27.274439" lon="151.290064">
  <ele>343.0</ele>
  <time>2026-09-01T20:01:07Z</time>
  <course>11.09</course>
  <speed>0.0</speed>
  <fix>3d</fix>
</trkpt>
<trkpt lat="-27.274439" lon="151.290064">
  <ele>343.1</ele>
  <time>2026-09-01T20:01:07Z</time>
  <course>270.0</course>
  <speed>0.0</speed>
  <fix>3d</fix>
</trkpt>
<trkpt lat="-27.274439" lon="151.290064">
  <ele>342.78</ele>
  <time>2026-09-01T20:01:07Z</time>
  <course>11.09</course>
  <speed>0.0</speed>
  <fix>3d</fix>
</trkpt>
<trkpt lat="-27.274439" lon="151.290064">
  <ele>343.1</ele>
  <time>2026-09-01T20:01:07Z</time>
  <course>270.0</course>
  <speed>0.0</speed>
  <fix>3d</fix>
</trkpt>
<trkpt lat="-27.274439" lon="151.290064">
  <ele>343.06</ele>
  <time>2026-09-01T20:01:08Z</time>
  <course>11.09</course>
  <speed>0.0</speed>
  <fix>3d</fix>
</trkpt>
<trkpt lat="-27.274439" lon="151.290064">
  <ele>343.1</ele>
  <time>2026-09-01T20:01:08Z</time>
  <course>270.0</course>
  <speed>0.0</speed>
  <fix>3d</fix>
</trkpt>
<trkpt lat="-27.274439" lon="151.290064">
  <ele>343.03</ele>
  <time>2026-09-01T20:01:08Z</time>
  <course>11.08</course>
  <speed>0.0</speed>
  <fix>3d</fix>
</trkpt>
<trkpt lat="-27.274439" lon="151.290064">
  <ele>343.1</ele>
  <time>2026-09-01T20:01:08Z</time>
  <course>270.0</course>
  <speed>0.0</speed>
  <fix>3d</fix>
</trkpt>
<trkpt lat="-27.274439" lon="151.290064">
  <ele>343.15</ele>
  <time>2026-09-01T20:01:08Z</time>
  <course>11.08</course>
  <speed>0.0</speed>
  <fix>3d</fix>
</trkpt>
<trkpt lat="-27.274439" lon="151.290064">
  <ele>343.1</ele>
  <time>2026-09-01T20:01:08Z</time>
  <course>270.0</course>
  <speed>0.0</speed>
  <fix>3d</fix>
</trkpt>
<trkpt lat="-27.274439" lon="151.290064">
  <ele>342.95</ele>
  <time>2026-09-01T20:01:08Z</time>
  <course>11.08</course>
  <speed>0.0</speed>
  <fix>3d</fix>
</trkpt>
<trkpt lat="-27.274439" lon="151.290064">
  <ele>343.1</ele>
  <time>2026-09-01T20:01:08Z</time>
  <course>270.0</course>
  <speed>0.0</speed>
  <fix>3d</fix>
</trkpt>
<trkpt lat="-27.274439" lon="151.290064">
  <ele>343.03</ele>
  <time>2026-09-01T20:01:08Z</time>
  <course>11.07</course>
  <speed>0.0</speed>
  <fix>3d</fix>
</trkpt>
<trkpt lat="-27.274439" lon="151.290064">
  <ele>343.1</ele>
  <time>2026-09-01T20:01:08Z</time>
  <course>270.0</course>
  <speed>0.0</speed>
  <fix>3d</fix>
</trkpt>
<trkpt lat="-27.274439" lon="151.290064">
  <ele>343.12</ele>
  <time>2026-09-01T20:01:08Z</time>
  <course>11.07</course>
  <speed>0.0</speed>
  <fix>3d</fix>
</trkpt>
<trkpt lat="-27.274439" lon="151.290064">
  <ele>343.1</ele>
  <time>2026-09-01T20:01:08Z</time>
  <course>270.0</course>
  <speed>0.0</speed>
  <fix>3d</fix>
</trkpt>
<trkpt lat="-27.274439" lon="151.290064">
  <ele>343.16</ele>
  <time>2026-09-01T20:01:08Z</time>
  <course>11.07</course>
  <speed>0.0</speed>
  <fix>3d</fix>
</trkpt>
<trkpt lat="-27.274439" lon="151.290064">
  <ele>343.1</ele>
  <time>2026-09-01T20:01:08Z</time>
  <course>270.0</course>
  <speed>0.0</speed>
  <fix>3d</fix>
</trkpt>
<trkpt lat="-27.274439" lon="151.290064">
  <ele>342.97</ele>
  <time>2026-09-01T20:01:08Z</time>
  <course>11.06</course>
  <speed>0.0</speed>
  <fix>3d</fix>
</trkpt>
<trkpt lat="-27.274439" lon="151.290064">
  <ele>343.1</ele>
  <time>2026-09-01T20:01:08Z</time>
  <course>270.0</course>
  <speed>0.0</speed>
  <fix>3d</fix>
</trkpt>
<trkpt lat="-27.274439" lon="151.290064">
  <ele>343.14</ele>
  <time>2026-09-01T20:01:08Z</time>
  <course>11.06</course>
  <speed>0.0</speed>
  <fix>3d</fix>
</trkpt>
<trkpt lat="-27.274439" lon="151.290064">
  <ele>343.1</ele>
  <time>2026-09-01T20:01:08Z</time>
  <course>270.0</course>
  <speed>0.0</speed>
  <fix>3d</fix>
</trkpt>
<trkpt lat="-27.274439" lon="151.290064">
  <ele>342.86</ele>
  <time>2026-09-01T20:01:08Z</time>
  <course>11.06</course>
  <speed>0.0</speed>
  <fix>3d</fix>
</trkpt>
<trkpt lat="-27.274439" lon="151.290064">
  <ele>343.1</ele>
  <time>2026-09-01T20:01:08Z</time>
  <course>270.0</course>
  <speed>0.0</speed>
  <fix>3d</fix>
</trkpt>
<trkpt lat="-27.274439" lon="151.290064">
  <ele>342.92</ele>
  <time>2026-09-01T20:01:08Z</time>
  <course>11.05</course>
  <speed>0.0</speed>
  <fix>3d</fix>
</trkpt>
<trkpt lat="-27.274439" lon="151.290064">
  <ele>343.1</ele>
  <time>2026-09-01T20:01:08Z</time>
  <course>270.0</course>
  <speed>0.0</speed>
  <fix>3d</fix>
</trkpt>
<trkpt lat="-27.274439" lon="151.290064">
  <ele>343.12</ele>
  <time>2026-09-01T20:01:08Z</time>
  <course>11.05</course>
  <speed>0.0</speed>
  <fix>3d</fix>
</trkpt>
<trkpt lat="-27.274439" lon="151.290064">
  <ele>343.1</ele>
  <time>2026-09-01T20:01:08Z</time>
  <course>270.0</course>
  <speed>0.0</speed>
  <fix>3d</fix>
</trkpt>
<trkpt lat="-27.274439" lon="151.290064">
  <ele>343.03</ele>
  <time>2026-09-01T20:01:08Z</time>
  <course>11.05</course>
  <speed>0.0</speed>
  <fix>3d</fix>
</trkpt>
<trkpt lat="-27.274439" lon="151.290064">
  <ele>343.1</ele>
  <time>2026-09-01T20:01:08Z</time>
  <course>270.0</course>
  <speed>0.0</speed>
  <fix>3d</fix>
</trkpt>
<trkpt lat="-27.274439" lon="151.290064">
  <ele>343.07</ele>
  <time>2026-09-01T20:01:08Z</time>
  <course>11.05</course>
  <speed>0.0</speed>
  <fix>3d</fix>
</trkpt>
<trkpt lat="-27.274439" lon="151.290064">
  <ele>343.1</ele>
  <time>2026-09-01T20:01:08Z</time>
  <course>270.0</course>
  <speed>0.0</speed>
  <fix>3d</fix>
</trkpt>
<trkpt lat="-27.274439" lon="151.290064">
  <ele>343.03</ele>
  <time>2026-09-01T20:01:08Z</time>
  <course>11.04</course>
  <speed>0.0</speed>
  <fix>3d</fix>
</trkpt>
<trkpt lat="-27.274439" lon="151.290064">
  <ele>343.1</ele>
  <time>2026-09-01T20:01:08Z</time>
  <course>270.0</course>
  <speed>0.0</speed>
  <fix>3d</fix>
</trkpt>
<trkpt lat="-27.274439" lon="151.290064">
  <ele>343.07</ele>
  <time>2026-09-01T20:01:08Z</time>
  <course>12.69</course>
  <speed>0.0</speed>
  <fix>3d</fix>
</trkpt>
<trkpt lat="-27.274439" lon="151.290064">
  <ele>343.1</ele>
  <time>2026-09-01T20:01:08Z</time>
  <course>270.0</course>
  <speed>0.0</speed>
  <fix>3d</fix>
</trkpt>
<trkpt lat="-27.274439" lon="151.290064">
  <ele>343.07</ele>
  <time>2026-09-01T20:01:08Z</time>
  <course>12.69</course>
  <speed>0.0</speed>
  <fix>3d</fix>
</trkpt>
<trkpt lat="-27.274439" lon="151.290064">
  <ele>343.1</ele>
  <time>2026-09-01T20:01:08Z</time>
  <course>270.0</course>
  <speed>0.0</speed>
  <fix>3d</fix>
</trkpt>
<trkpt lat="-27.274439" lon="151.290064">
  <ele>343.06</ele>
  <time>2026-09-01T20:01:08Z</time>
  <course>12.68</course>
  <speed>0.0</speed>
  <fix>3d</fix>
</trkpt>
<trkpt lat="-27.274439" lon="151.290064">
  <ele>343.1</ele>
  <time>2026-09-01T20:01:08Z</time>
  <course>270.0</course>
  <speed>0.0</speed>
  <fix>3d</fix>
</trkpt>
<trkpt lat="-27.274439" lon="151.290064">
  <ele>343.06</ele>
  <time>2026-09-01T20:01:08Z</time>
  <course>12.68</course>
  <speed>0.0</speed>
  <fix>3d</fix>
</trkpt>
<trkpt lat="-27.274439" lon="151.290064">
  <ele>343.1</ele>
  <time>2026-09-01T20:01:08Z</time>
  <course>270.0</course>
  <speed>0.0</speed>
  <fix>3d</fix>
</trkpt>
<trkpt lat="-27.274439" lon="151.290064">
  <ele>343.06</ele>
  <time>2026-09-01T20:01:08Z</time>
  <course>12.67</course>
  <speed>0.0</speed>
  <fix>3d</fix>
</trkpt>
<trkpt lat="-27.274439" lon="151.290064">
  <ele>343.1</ele>
  <time>2026-09-01T20:01:08Z</time>
  <course>270.0</course>
  <speed>0.0</speed>
  <fix>3d</fix>
</trkpt>
<trkpt lat="-27.274439" lon="151.290064">
  <ele>343.06</ele>
  <time>2026-09-01T20:01:08Z</time>
  <course>12.67</course>
  <speed>0.0</speed>
  <fix>3d</fix>
</trkpt>
<trkpt lat="-27.274439" lon="151.290064">
  <ele>343.1</ele>
  <time>2026-09-01T20:01:08Z</time>
  <course>270.0</course>
  <speed>0.0</speed>
  <fix>3d</fix>
</trkpt>
<trkpt lat="-27.274439" lon="151.290064">
  <ele>343.06</ele>
  <time>2026-09-01T20:01:08Z</time>
  <course>12.66</course>
  <speed>0.0</speed>
  <fix>3d</fix>
</trkpt>
<trkpt lat="-27.274439" lon="151.290064">
  <ele>343.1</ele>
  <time>2026-09-01T20:01:08Z</time>
  <course>270.0</course>
  <speed>0.0</speed>
  <fix>3d</fix>
</trkpt>
<trkpt lat="-27.274439" lon="151.290064">
  <ele>343.06</ele>
  <time>2026-09-01T20:01:08Z</time>
  <course>12.66</course>
  <speed>0.0</speed>
  <fix>3d</fix>
</trkpt>
<trkpt lat="-27.274439" lon="151.290064">
  <ele>343.1</ele>
  <time>2026-09-01T20:01:08Z</time>
  <course>270.0</course>
  <speed>0.0</speed>
  <fix>3d</fix>
</trkpt>
<trkpt lat="-27.274439" lon="151.290064">
  <ele>343.06</ele>
  <time>2026-09-01T20:01:08Z</time>
  <course>12.65</course>
  <speed>0.0</speed>
  <fix>3d</fix>
</trkpt>
<trkpt lat="-27.274439" lon="151.290064">
  <ele>343.1</ele>
  <time>2026-09-01T20:01:08Z</time>
  <course>270.0</course>
  <speed>0.0</speed>
  <fix>3d</fix>
</trkpt>
<trkpt lat="-27.274439" lon="151.290064">
  <ele>343.06</ele>
  <time>2026-09-01T20:01:08Z</time>
  <course>12.65</course>
  <speed>0.01</speed>
  <fix>3d</fix>
</trkpt>
<trkpt lat="-27.274439" lon="151.290064">
  <ele>343.1</ele>
  <time>2026-09-01T20:01:08Z</time>
  <course>270.0</course>
  <speed>0.0</speed>
  <fix>3d</fix>
</trkpt>
<trkpt lat="-27.274439" lon="151.290064">
  <ele>343.09</ele>
  <time>2026-09-01T20:01:08Z</time>
  <course>12.64</course>
  <speed>0.01</speed>
  <fix>3d</fix>
</trkpt>
<trkpt lat="-27.274439" lon="151.290064">
  <ele>343.1</ele>
  <time>2026-09-01T20:01:08Z</time>
  <course>270.0</course>
  <speed>0.0</speed>
  <fix>3d</fix>
</trkpt>
<trkpt lat="-27.274439" lon="151.290064">
  <ele>343.09</ele>
  <time>2026-09-01T20:01:08Z</time>
  <course>12.64</course>
  <speed>0.01</speed>
  <fix>3d</fix>
</trkpt>
<trkpt lat="-27.274439" lon="151.290064">
  <ele>343.1</ele>
  <time>2026-09-01T20:01:08Z</time>
  <course>270.0</course>
  <speed>0.0</speed>
  <fix>3d</fix>
</trkpt>
<trkpt lat="-27.274439" lon="151.290064">
  <ele>343.09</ele>
  <time>2026-09-01T20:01:08Z</time>
  <course>12.64</course>
  <speed>0.01</speed>
  <fix>3d</fix>
</trkpt>
<trkpt lat="-27.274439" lon="151.290064">
  <ele>343.1</ele>
  <time>2026-09-01T20:01:08Z</time>
  <course>270.0</course>
  <speed>0.0</speed>
  <fix>3d</fix>
</trkpt>
<trkpt lat="-27.274439" lon="151.290064">
  <ele>343.09</ele>
  <time>2026-09-01T20:01:08Z</time>
  <course>12.63</course>
  <speed>0.01</speed>
  <fix>3d</fix>
</trkpt>
<trkpt lat="-27.274439" lon="151.290064">
  <ele>343.1</ele>
  <time>2026-09-01T20:01:08Z</time>
  <course>270.0</course>
  <speed>0.0</speed>
  <fix>3d</fix>
</trkpt>
<trkpt lat="-27.274439" lon="151.290064">
  <ele>343.09</ele>
  <time>2026-09-01T20:01:08Z</time>
  <course>12.63</course>
  <speed>0.01</speed>
  <fix>3d</fix>
</trkpt>
<trkpt lat="-27.274439" lon="151.290064">
  <ele>343.1</ele>
  <time>2026-09-01T20:01:08Z</time>
  <course>270.0</course>
  <speed>0.0</speed>
  <fix>3d</fix>
</trkpt>
<trkpt lat="-27.274439" lon="151.290064">
  <ele>343.1</ele>
  <time>2026-09-01T20:01:08Z</time>
  <course>12.62</course>
  <speed>0.01414213562373095</speed>
  <fix>3d</fix>
</trkpt>
<trkpt lat="-27.274439" lon="151.290064">
  <ele>343.1</ele>
  <time>2026-09-01T20:01:08Z</time>
  <course>270.0</course>
  <speed>0.0</speed>
  <fix>3d</fix>
</trkpt>
<trkpt lat="-27.274439" lon="151.290064">
  <ele>343.1</ele>
  <time>2026-09-01T20:01:08Z</time>
  <course>12.62</course>
  <speed>0.01414213562373095</speed>
  <fix>3d</fix>
</trkpt>
<trkpt lat="-27.274439" lon="151.290064">
  <ele>343.1</ele>
  <time>2026-09-01T20:01:08Z</time>
  <course>270.0</course>
  <speed>0.0</speed>
  <fix>3d</fix>
</trkpt>
<trkpt lat="-27.274439" lon="151.290064">
  <ele>343.11</ele>
  <time>2026-09-01T20:01:08Z</time>
  <course>12.61</course>
  <speed>0.01414213562373095</speed>
  <fix>3d</fix>
</trkpt>
<trkpt lat="-27.274439" lon="151.290064">
  <ele>343.1</ele>
  <time>2026-09-01T20:01:08Z</time>
  <course>270.0</course>
  <speed>0.0</speed>
  <fix>3d</fix>
</trkpt>
<trkpt lat="-27.274439" lon="151.290064">
  <ele>343.11</ele>
  <time>2026-09-01T20:01:08Z</time>
  <course>12.61</course>
  <speed>0.01414213562373095</speed>
  <fix>3d</fix>
</trkpt>
<trkpt lat="-27.274439" lon="151.290064">
  <ele>343.1</ele>
  <time>2026-09-01T20:01:08Z</time>
  <course>270.0</course>
  <speed>0.0</speed>
  <fix>3d</fix>
</trkpt>
<trkpt lat="-27.274439" lon="151.290064">
  <ele>343.11</ele>
  <time>2026-09-01T20:01:08Z</time>
  <course>12.6</course>
  <speed>0.01414213562373095</speed>
  <fix>3d</fix>
</trkpt>
<trkpt lat="-27.274439" lon="151.290064">
  <ele>343.1</ele>
  <time>2026-09-01T20:01:08Z</time>
  <course>270.0</course>
  <speed>0.0</speed>
  <fix>3d</fix>
</trkpt>
<trkpt lat="-27.274439" lon="151.290064">
  <ele>343.11</ele>
  <time>2026-09-01T20:01:08Z</time>
  <course>12.6</course>
  <speed>0.01414213562373095</speed>
  <fix>3d</fix>
</trkpt>
<trkpt lat="-27.274439" lon="151.290064">
  <ele>343.1</ele>
  <time>2026-09-01T20:01:08Z</time>
  <course>270.0</course>
  <speed>0.0</speed>
  <fix>3d</fix>
</trkpt>
<trkpt lat="-27.274439" lon="151.290064">
  <ele>343.11</ele>
  <time>2026-09-01T20:01:08Z</time>
  <course>12.6</course>
  <speed>0.01414213562373095</speed>
  <fix>3d</fix>
</trkpt>
<trkpt lat="-27.274439" lon="151.290064">
  <ele>343.1</ele>
  <time>2026-09-01T20:01:08Z</time>
  <course>270.0</course>
  <speed>0.0</speed>
  <fix>3d</fix>
</trkpt>
<trkpt lat="-27.274439" lon="151.290064">
  <ele>343.11</ele>
  <time>2026-09-01T20:01:08Z</time>
  <course>12.59</course>
  <speed>0.01414213562373095</speed>
  <fix>3d</fix>
</trkpt>
<trkpt lat="-27.274439" lon="151.290064">
  <ele>343.1</ele>
  <time>2026-09-01T20:01:08Z</time>
  <course>135.3</course>
  <speed>0.0</speed>
  <fix>3d</fix>
</trkpt>
<trkpt lat="-27.274439" lon="151.290064">
  <ele>343.11</ele>
  <time>2026-09-01T20:01:08Z</time>
  <course>12.59</course>
  <speed>0.01414213562373095</speed>
  <fix>3d</fix>
</trkpt>
<trkpt lat="-27.274439" lon="151.290064">
  <ele>343.1</ele>
  <time>2026-09-01T20:01:08Z</time>
  <course>135.3</course>
  <speed>0.0</speed>
  <fix>3d</fix>
</trkpt>
<trkpt lat="-27.274439" lon="151.290064">
  <ele>343.11</ele>
  <time>2026-09-01T20:01:08Z</time>
  <course>12.59</course>
  <speed>0.01414213562373095</speed>
  <fix>3d</fix>
</trkpt>
<trkpt lat="-27.274439" lon="151.290064">
  <ele>343.11</ele>
  <time>2026-09-01T20:01:08Z</time>
  <course>12.58</course>
  <speed>0.01414213562373095</speed>
  <fix>3d</fix>
</trkpt>
<trkpt lat="-27.274439" lon="151.290064">
  <ele>343.1</ele>
  <time>2026-09-01T20:01:08Z</time>
  <course>139.12</course>
  <speed>0.0</speed>
  <fix>3d</fix>
</trkpt>
<trkpt lat="-27.274439" lon="151.290064">
  <ele>343.11</ele>
  <time>2026-09-01T20:01:08Z</time>
  <course>12.58</course>
  <speed>0.01414213562373095</speed>
  <fix>3d</fix>
</trkpt>
<trkpt lat="-27.274439" lon="151.290064">
  <ele>343.11</ele>
  <time>2026-09-01T20:01:08Z</time>
  <course>12.58</course>
  <speed>0.01414213562373095</speed>
  <fix>3d</fix>
</trkpt>
<trkpt lat="-27.274439" lon="151.290064">
  <ele>343.1</ele>
  <time>2026-09-01T20:01:08Z</time>
  <course>139.12</course>
  <speed>0.0</speed>
  <fix>3d</fix>
</trkpt>
<trkpt lat="-27.274439" lon="151.290064">
  <ele>343.11</ele>
  <time>2026-09-01T20:01:08Z</time>
  <course>12.58</course>
  <speed>0.01414213562373095</speed>
  <fix>3d</fix>
</trkpt>
<trkpt lat="-27.274439" lon="151.290064">
  <ele>343.11</ele>
  <time>2026-09-01T20:01:08Z</time>
  <course>12.57</course>
  <speed>0.01414213562373095</speed>
  <fix>3d</fix>
</trkpt>
<trkpt lat="-27.274439" lon="151.290064">
  <ele>343.1</ele>
  <time>2026-09-01T20:01:08Z</time>
  <course>143.82</course>
  <speed>0.0</speed>
  <fix>3d</fix>
</trkpt>
<trkpt lat="-27.274439" lon="151.290064">
  <ele>343.11</ele>
  <time>2026-09-01T20:01:08Z</time>
  <course>12.57</course>
  <speed>0.01414213562373095</speed>
  <fix>3d</fix>
</trkpt>
<trkpt lat="-27.274439" lon="151.290064">
  <ele>343.11</ele>
  <time>2026-09-01T20:01:08Z</time>
  <course>12.57</course>
  <speed>0.01414213562373095</speed>
  <fix>3d</fix>
</trkpt>
<trkpt lat="-27.274439" lon="151.290064">
  <ele>343.1</ele>
  <time>2026-09-01T20:01:08Z</time>
  <course>143.82</course>
  <speed>0.0</speed>
  <fix>3d</fix>
</trkpt>
<trkpt lat="-27.274439" lon="151.290064">
  <ele>343.11</ele>
  <time>2026-09-01T20:01:08Z</time>
  <course>12.57</course>
  <speed>0.01414213562373095</speed>
  <fix>3d</fix>
</trkpt>
<trkpt lat="-27.274439" lon="151.290064">
  <ele>343.1</ele>
  <time>2026-09-01T20:01:08Z</time>
  <course>12.57</course>
  <speed>0.01</speed>
  <fix>3d</fix>
</trkpt>
<trkpt lat="-27.274439" lon="151.290064">
  <ele>343.1</ele>
  <time>2026-09-01T20:01:08Z</time>
  <course>319.11</course>
  <speed>0.0</speed>
  <fix>3d</fix>
</trkpt>
<trkpt lat="-27.274439" lon="151.290064">
  <ele>343.1</ele>
  <time>2026-09-01T20:01:08Z</time>
  <course>12.57</course>
  <speed>0.01</speed>
  <fix>3d</fix>
</trkpt>
<trkpt lat="-27.274439" lon="151.290064">
  <ele>343.1</ele>
  <time>2026-09-01T20:01:08Z</time>
  <course>12.56</course>
  <speed>0.01</speed>
  <fix>3d</fix>
</trkpt>
<trkpt lat="-27.274439" lon="151.290064">
  <ele>343.1</ele>
  <time>2026-09-01T20:01:08Z</time>
  <course>319.11</course>
  <speed>0.0</speed>
  <fix>3d</fix>
</trkpt>
<trkpt lat="-27.274439" lon="151.290064">
  <ele>343.1</ele>
  <time>2026-09-01T20:01:08Z</time>
  <course>12.56</course>
  <speed>0.01</speed>
  <fix>3d</fix>
</trkpt>
<trkpt lat="-27.274439" lon="151.290064">
  <ele>343.1</ele>
  <time>2026-09-01T20:01:08Z</time>
  <course>12.56</course>
  <speed>0.01</speed>
  <fix>3d</fix>
</trkpt>
<trkpt lat="-27.274439" lon="151.290064">
  <ele>343.1</ele>
  <time>2026-09-01T20:01:08Z</time>
  <course>317.25</course>
  <speed>0.0</speed>
  <fix>3d</fix>
</trkpt>
<trkpt lat="-27.274439" lon="151.290064">
  <ele>343.1</ele>
  <time>2026-09-01T20:01:08Z</time>
  <course>12.56</course>
  <speed>0.01</speed>
  <fix>3d</fix>
</trkpt>
<trkpt lat="-27.274439" lon="151.290064">
  <ele>343.11</ele>
  <time>2026-09-01T20:01:08Z</time>
  <course>12.55</course>
  <speed>0.01</speed>
  <fix>3d</fix>
</trkpt>
<trkpt lat="-27.274439" lon="151.290064">
  <ele>343.1</ele>
  <time>2026-09-01T20:01:08Z</time>
  <course>317.25</course>
  <speed>0.0</speed>
  <fix>3d</fix>
</trkpt>
<trkpt lat="-27.274439" lon="151.290064">
  <ele>343.11</ele>
  <time>2026-09-01T20:01:08Z</time>
  <course>12.55</course>
  <speed>0.01</speed>
  <fix>3d</fix>
</trkpt>
<trkpt lat="-27.274439" lon="151.290064">
  <ele>343.12</ele>
  <time>2026-09-01T20:01:08Z</time>
  <course>12.55</course>
  <speed>0.01</speed>
  <fix>3d</fix>
</trkpt>
<trkpt lat="-27.274439" lon="151.290064">
  <ele>343.1</ele>
  <time>2026-09-01T20:01:08Z</time>
  <course>4.52</course>
  <speed>0.0</speed>
  <fix>3d</fix>
</trkpt>
<trkpt lat="-27.274439" lon="151.290064">
  <ele>343.13</ele>
  <time>2026-09-01T20:01:08Z</time>
  <course>12.55</course>
  <speed>0.01</speed>
  <fix>3d</fix>
</trkpt>
<trkpt lat="-27.274439" lon="151.290064">
  <ele>343.16</ele>
  <time>2026-09-01T20:01:08Z</time>
  <course>12.55</course>
  <speed>0.01</speed>
  <fix>3d</fix>
</trkpt>
<trkpt lat="-27.274439" lon="151.290064">
  <ele>343.1</ele>
  <time>2026-09-01T20:01:08Z</time>
  <course>4.52</course>
  <speed>0.0</speed>
  <fix>3d</fix>
</trkpt>
<trkpt lat="-27.274439" lon="151.290064">
  <ele>343.16</ele>
  <time>2026-09-01T20:01:08Z</time>
  <course>12.55</course>
  <speed>0.01</speed>
  <fix>3d</fix>
</trkpt>
<trkpt lat="-27.274439" lon="151.290064">
  <ele>343.2</ele>
  <time>2026-09-01T20:01:08Z</time>
  <course>12.54</course>
  <speed>0.0</speed>
  <fix>3d</fix>
</trkpt>
<trkpt lat="-27.274439" lon="151.290064">
  <ele>343.12</ele>
  <time>2026-09-01T20:01:08Z</time>
  <course>7.58</course>
  <speed>0.0</speed>
  <fix>3d</fix>
</trkpt>
<trkpt lat="-27.274439" lon="151.290064">
  <ele>343.2</ele>
  <time>2026-09-01T20:01:08Z</time>
  <course>12.54</course>
  <speed>0.0</speed>
  <fix>3d</fix>
</trkpt>
<trkpt lat="-27.274439" lon="151.290064">
  <ele>343.26</ele>
  <time>2026-09-01T20:01:08Z</time>
  <course>12.54</course>
  <speed>0.0</speed>
  <fix>3d</fix>
</trkpt>
<trkpt lat="-27.274439" lon="151.290064">
  <ele>343.12</ele>
  <time>2026-09-01T20:01:08Z</time>
  <course>7.58</course>
  <speed>0.0</speed>
  <fix>3d</fix>
</trkpt>
<trkpt lat="-27.274439" lon="151.290064">
  <ele>343.26</ele>
  <time>2026-09-01T20:01:08Z</time>
  <course>12.54</course>
  <speed>0.0</speed>
  <fix>3d</fix>
</trkpt>
<trkpt lat="-27.274439" lon="151.290064">
  <ele>343.38</ele>
  <time>2026-09-01T20:01:08Z</time>
  <course>12.57</course>
  <speed>0.022360679774997897</speed>
  <fix>3d</fix>
</trkpt>
<trkpt lat="-27.274439" lon="151.290064">
  <ele>343.19</ele>
  <time>2026-09-01T20:01:08Z</time>
  <course>2.92</course>
  <speed>0.0</speed>
  <fix>3d</fix>
</trkpt>
<trkpt lat="-27.274439" lon="151.290064">
  <ele>343.43</ele>
  <time>2026-09-01T20:01:08Z</time>
  <course>12.58</course>
  <speed>0.0316227766016838</speed>
  <fix>3d</fix>
</trkpt>
<trkpt lat="-27.274439" lon="151.290064">
  <ele>343.57</ele>
  <time>2026-09-01T20:01:08Z</time>
  <course>12.6</course>
  <speed>0.06082762530298219</speed>
  <fix>3d</fix>
</trkpt>
<trkpt lat="-27.274439" lon="151.290064">
  <ele>343.19</ele>
  <time>2026-09-01T20:01:08Z</time>
  <course>2.92</course>
  <speed>0.0</speed>
  <fix>3d</fix>
</trkpt>
<trkpt lat="-27.274439" lon="151.290064">
  <ele>343.62</ele>
  <time>2026-09-01T20:01:08Z</time>
  <course>12.6</course>
  <speed>0.07071067811865475</speed>
  <fix>3d</fix>
</trkpt>
<trkpt lat="-27.2744389" lon="151.290064">
  <ele>343.78</ele>
  <time>2026-09-01T20:01:08Z</time>
  <course>12.61</course>
  <speed>0.1019803902718557</speed>
  <fix>3d</fix>
</trkpt>
<trkpt lat="-27.274439" lon="151.290064">
  <ele>343.39</ele>
  <time>2026-09-01T20:01:08Z</time>
  <course>1.46</course>
  <speed>0.04</speed>
  <fix>3d</fix>
</trkpt>
<trkpt lat="-27.2744389" lon="151.290064">
  <ele>343.85</ele>
  <time>2026-09-01T20:01:08Z</time>
  <course>12.61</course>
  <speed>0.12165525060596438</speed>
  <fix>3d</fix>
</trkpt>
<trkpt lat="-27.2744388" lon="151.290064">
  <ele>344.01</ele>
  <time>2026-09-01T20:01:08Z</time>
  <course>12.61</course>
  <speed>0.1414213562373095</speed>
  <fix>3d</fix>
</trkpt>
<trkpt lat="-27.274439" lon="151.290064">
  <ele>343.39</ele>
  <time>2026-09-01T20:01:08Z</time>
  <course>1.46</course>
  <speed>0.04</speed>
  <fix>3d</fix>
</trkpt>
<trkpt lat="-27.2744388" lon="151.290064">
  <ele>344.06</ele>
  <time>2026-09-01T20:01:08Z</time>
  <course>12.61</course>
  <speed>0.15132745950421556</speed>
  <fix>3d</fix>
</trkpt>
<trkpt lat="-27.2744386" lon="151.290064">
  <ele>344.24</ele>
  <time>2026-09-01T20:01:08Z</time>
  <course>12.59</course>
  <speed>0.1824828759089466</speed>
  <fix>3d</fix>
</trkpt>
<trkpt lat="-27.2744389" lon="151.290064">
  <ele>343.76</ele>
  <time>2026-09-01T20:01:08Z</time>
  <course>1.94</course>
  <speed>0.12</speed>
  <fix>3d</fix>
</trkpt>
<trkpt lat="-27.2744386" lon="151.290064">
  <ele>344.3</ele>
  <time>2026-09-01T20:01:08Z</time>
  <course>12.58</course>
  <speed>0.19235384061671343</speed>
  <fix>3d</fix>
</trkpt>
<trkpt lat="-27.2744385" lon="151.2900641">
  <ele>344.46</ele>
  <time>2026-09-01T20:01:08Z</time>
  <course>12.55</course>
  <speed>0.2220360331117452</speed>
  <fix>3d</fix>
</trkpt>
<trkpt lat="-27.2744389" lon="151.290064">
  <ele>343.76</ele>
  <time>2026-09-01T20:01:08Z</time>
  <course>1.94</course>
  <speed>0.12</speed>
  <fix>3d</fix>
</trkpt>
<trkpt lat="-27.2744384" lon="151.2900641">
  <ele>344.52</ele>
  <time>2026-09-01T20:01:08Z</time>
  <course>12.54</course>
  <speed>0.23194827009486402</speed>
  <fix>3d</fix>
</trkpt>
<trkpt lat="-27.2744382" lon="151.2900641">
  <ele>344.69</ele>
  <time>2026-09-01T20:01:08Z</time>
  <course>12.51</course>
  <speed>0.26305892875931813</speed>
  <fix>3d</fix>
</trkpt>
<trkpt lat="-27.2744386" lon="151.290064">
  <ele>344.22</ele>
  <time>2026-09-01T20:01:08Z</time>
  <course>2.6</course>
  <speed>0.2</speed>
  <fix>3d</fix>
</trkpt>
<trkpt lat="-27.2744382" lon="151.2900641">
  <ele>344.75</ele>
  <time>2026-09-01T20:01:08Z</time>
  <course>12.5</course>
  <speed>0.27294688127912364</speed>
  <fix>3d</fix>
</trkpt>
<trkpt lat="-27.274438" lon="151.2900641">
  <ele>344.92</ele>
  <time>2026-09-01T20:01:08Z</time>
  <course>12.47</course>
  <speed>0.3026549190084311</speed>
  <fix>3d</fix>
</trkpt>
<trkpt lat="-27.2744386" lon="151.290064">
  <ele>344.22</ele>
  <time>2026-09-01T20:01:08Z</time>
  <course>2.6</course>
  <speed>0.2</speed>
  <fix>3d</fix>
</trkpt>
<trkpt lat="-27.2744379" lon="151.2900641">
  <ele>344.98</ele>
  <time>2026-09-01T20:01:08Z</time>
  <course>12.46</course>
  <speed>0.3026549190084311</speed>
  <fix>3d</fix>
</trkpt>
<trkpt lat="-27.2744377" lon="151.2900641">
  <ele>345.15</ele>
  <time>2026-09-01T20:01:08Z</time>
  <course>10.47</course>
  <speed>0.33241540277189324</speed>
  <fix>3d</fix>
</trkpt>
<trkpt lat="-27.2744382" lon="151.290064">
  <ele>344.67</ele>
  <time>2026-09-01T20:01:08Z</time>
  <course>3.09</course>
  <speed>0.27</speed>
  <fix>3d</fix>
</trkpt>
<trkpt lat="-27.2744376" lon="151.2900641">
  <ele>345.21</ele>
  <time>2026-09-01T20:01:08Z</time>
  <course>10.47</course>
  <speed>0.34365680554879163</speed>
  <fix>3d</fix>
</trkpt>
<trkpt lat="-27.2744374" lon="151.2900642">
  <ele>345.37</ele>
  <time>2026-09-01T20:01:08Z</time>
  <course>10.46</course>
  <speed>0.3634556369077249</speed>
  <fix>3d</fix>
</trkpt>
<trkpt lat="-27.2744382" lon="151.290064">
  <ele>344.67</ele>
  <time>2026-09-01T20:01:08Z</time>
  <course>3.09</course>
  <speed>0.27</speed>
  <fix>3d</fix>
</trkpt>
<trkpt lat="-27.2744374" lon="151.2900642">
  <ele>345.38</ele>
  <time>2026-09-01T20:01:08Z</time>
  <course>10.46</course>
  <speed>0.3634556369077249</speed>
  <fix>3d</fix>
</trkpt>
<trkpt lat="-27.274437" lon="151.2900642">
  <ele>345.58</ele>
  <time>2026-09-01T20:01:08Z</time>
  <course>10.46</course>
  <speed>0.383275357934736</speed>
  <fix>3d</fix>
</trkpt>
<trkpt lat="-27.2744376" lon="151.290064">
  <ele>345.12</ele>
  <time>2026-09-01T20:01:08Z</time>
  <course>3.4</course>
  <speed>0.34</speed>
  <fix>3d</fix>
</trkpt>
<trkpt lat="-27.274437" lon="151.2900642">
  <ele>345.59</ele>
  <time>2026-09-01T20:01:08Z</time>
  <course>10.46</course>
  <speed>0.39319206502675</speed>
  <fix>3d</fix>
</trkpt>
<trkpt lat="-27.2744367" lon="151.2900642">
  <ele>345.79</ele>
  <time>2026-09-01T20:01:08Z</time>
  <course>10.48</course>
  <speed>0.41303752856126763</speed>
  <fix>3d</fix>
</trkpt>
<trkpt lat="-27.2744376" lon="151.290064">
  <ele>345.12</ele>
  <time>2026-09-01T20:01:08Z</time>
  <course>3.4</course>
  <speed>0.34</speed>
  <fix>3d</fix>
</trkpt>
<trkpt lat="-27.2744367" lon="151.2900642">
  <ele>345.79</ele>
  <time>2026-09-01T20:01:08Z</time>
  <course>10.48</course>
  <speed>0.41303752856126763</speed>
  <fix>3d</fix>
</trkpt>
<trkpt lat="-27.2744363" lon="151.2900642">
  <ele>345.98</ele>
  <time>2026-09-01T20:01:08Z</time>
  <course>10.49</course>
  <speed>0.43289721643826723</speed>
  <fix>3d</fix>
</trkpt>
<trkpt lat="-27.2744369" lon="151.290064">
  <ele>345.54</ele>
  <time>2026-09-01T20:01:08Z</time>
  <course>3.54</course>
  <speed>0.4</speed>
  <fix>3d</fix>
</trkpt>
<trkpt lat="-27.2744362" lon="151.2900642">
  <ele>346.03</ele>
  <time>2026-09-01T20:01:08Z</time>
  <course>10.49</course>
  <speed>0.43289721643826723</speed>
  <fix>3d</fix>
</trkpt>
<trkpt lat="-27.2744359" lon="151.2900643">
  <ele>346.16</ele>
  <time>2026-09-01T20:01:08Z</time>
  <course>10.5</course>
  <speed>0.45276925690687087</speed>
  <fix>3d</fix>
</trkpt>
<trkpt lat="-27.2744369" lon="151.290064">
  <ele>345.54</ele>
  <time>2026-09-01T20:01:08Z</time>
  <course>3.54</course>
  <speed>0.4</speed>
  <fix>3d</fix>
</trkpt>
<trkpt lat="-27.2744358" lon="151.2900643">
  <ele>346.21</ele>
  <time>2026-09-01T20:01:08Z</time>
  <course>10.51</course>
  <speed>0.45276925690687087</speed>
  <fix>3d</fix>
</trkpt>
<trkpt lat="-27.2744355" lon="151.2900643">
  <ele>346.34</ele>
  <time>2026-09-01T20:01:08Z</time>
  <course>10.51</course>
  <speed>0.4617358552246078</speed>
  <fix>3d</fix>
</trkpt>
<trkpt lat="-27.2744361" lon="151.2900641">
  <ele>345.93</ele>
  <time>2026-09-01T20:01:08Z</time>
  <course>3.54</course>
  <speed>0.45</speed>
  <fix>3d</fix>
</trkpt>
<trkpt lat="-27.2744353" lon="151.2900643">
  <ele>346.38</ele>
  <time>2026-09-01T20:01:08Z</time>
  <course>10.52</course>
  <speed>0.47169905660283024</speed>
  <fix>3d</fix>
</trkpt>
<trkpt lat="-27.274435" lon="151.2900643">
  <ele>346.5</ele>
  <time>2026-09-01T20:01:08Z</time>
  <course>10.53</course>
  <speed>0.48166378315169184</speed>
  <fix>3d</fix>
</trkpt>
<trkpt lat="-27.2744361" lon="151.2900641">
  <ele>345.93</ele>
  <time>2026-09-01T20:01:08Z</time>
  <course>3.54</course>
  <speed>0.45</speed>
  <fix>3d</fix>
</trkpt>
<trkpt lat="-27.2744349" lon="151.2900643">
  <ele>346.54</ele>
  <time>2026-09-01T20:01:08Z</time>
  <course>10.54</course>
  <speed>0.48166378315169184</speed>
  <fix>3d</fix>
</trkpt>
<trkpt lat="-27.2744346" lon="151.2900643">
  <ele>346.65</ele>
  <time>2026-09-01T20:01:08Z</time>
  <course>10.54</course>
  <speed>0.4916299421312742</speed>
  <fix>3d</fix>
</trkpt>
<trkpt lat="-27.2744353" lon="151.2900641">
  <ele>346.28</ele>
  <time>2026-09-01T20:01:08Z</time>
  <course>3.47</course>
  <speed>0.48</speed>
  <fix>3d</fix>
</trkpt>
<trkpt lat="-27.2744344" lon="151.2900643">
  <ele>346.69</ele>
  <time>2026-09-01T20:01:08Z</time>
  <course>10.55</course>
  <speed>0.4916299421312742</speed>
  <fix>3d</fix>
</trkpt>
<trkpt lat="-27.2744341" lon="151.2900643">
  <ele>346.8</ele>
  <time>2026-09-01T20:01:08Z</time>
  <course>10.56</course>
  <speed>0.5015974481593781</speed>
  <fix>3d</fix>
</trkpt>
<trkpt lat="-27.2744353" lon="151.2900641">
  <ele>346.28</ele>
  <time>2026-09-01T20:01:08Z</time>
  <course>3.47</course>
  <speed>0.48</speed>
  <fix>3d</fix>
</trkpt>
<trkpt lat="-27.274434" lon="151.2900643">
  <ele>346.83</ele>
  <time>2026-09-01T20:01:08Z</time>
  <course>10.56</course>
  <speed>0.5115662224971466</speed>
  <fix>3d</fix>
</trkpt>
<trkpt lat="-27.2744336" lon="151.2900643">
  <ele>346.94</ele>
  <time>2026-09-01T20:01:08Z</time>
  <course>10.57</course>
  <speed>0.5115662224971466</speed>
  <fix>3d</fix>
</trkpt>
<trkpt lat="-27.2744344" lon="151.2900642">
  <ele>346.6</ele>
  <time>2026-09-01T20:01:08Z</time>
  <course>3.33</course>
  <speed>0.51</speed>
  <fix>3d</fix>
</trkpt>
<trkpt lat="-27.2744335" lon="151.2900644">
  <ele>346.98</ele>
  <time>2026-09-01T20:01:08Z</time>
  <course>10.57</course>
  <speed>0.521536192416212</speed>
  <fix>3d</fix>
</trkpt>
<trkpt lat="-27.2744332" lon="151.2900644">
  <ele>347.08</ele>
  <time>2026-09-01T20:01:08Z</time>
  <course>10.57</course>
  <speed>0.5315072906367324</speed>
  <fix>3d</fix>
</trkpt>
<trkpt lat="-27.2744344" lon="151.2900642">
  <ele>346.6</ele>
  <time>2026-09-01T20:01:08Z</time>
  <course>3.33</course>
  <speed>0.51</speed>
  <fix>3d</fix>
</trkpt>
<trkpt lat="-27.2744331" lon="151.2900644">
  <ele>347.09</ele>
  <time>2026-09-01T20:01:08Z</time>
  <course>10.57</course>
  <speed>0.5315072906367324</speed>
  <fix>3d</fix>
</trkpt>
<trkpt lat="-27.2744327" lon="151.2900644">
  <ele>347.21</ele>
  <time>2026-09-01T20:01:08Z</time>
  <course>10.57</course>
  <speed>0.5408326913195984</speed>
  <fix>3d</fix>
</trkpt>
<trkpt lat="-27.2744335" lon="151.2900642">
  <ele>346.88</ele>
  <time>2026-09-01T20:01:08Z</time>
  <course>3.13</course>
  <speed>0.53</speed>
  <fix>3d</fix>
</trkpt>
<trkpt lat="-27.2744326" lon="151.2900644">
  <ele>347.22</ele>
  <time>2026-09-01T20:01:08Z</time>
  <course>10.57</course>
  <speed>0.5408326913195984</speed>
  <fix>3d</fix>
</trkpt>
<trkpt lat="-27.2744322" lon="151.2900644">
  <ele>347.34</ele>
  <time>2026-09-01T20:01:08Z</time>
  <course>10.58</course>
  <speed>0.5508175741568164</speed>
  <fix>3d</fix>
</trkpt>
<trkpt lat="-27.2744335" lon="151.2900642">
  <ele>346.88</ele>
  <time>2026-09-01T20:01:08Z</time>
  <course>3.13</course>
  <speed>0.53</speed>
  <fix>3d</fix>
</trkpt>
<trkpt lat="-27.274432" lon="151.2900644">
  <ele>347.38</ele>
  <time>2026-09-01T20:01:08Z</time>
  <course>10.58</course>
  <speed>0.5508175741568164</speed>
  <fix>3d</fix>
</trkpt>
<trkpt lat="-27.2744316" lon="151.2900644">
  <ele>347.47</ele>
  <time>2026-09-01T20:01:08Z</time>
  <course>10.58</course>
  <speed>0.5608029957123981</speed>
  <fix>3d</fix>
</trkpt>
<trkpt lat="-27.2744324" lon="151.2900643">
  <ele>347.15</ele>
  <time>2026-09-01T20:01:08Z</time>
  <course>2.91</course>
  <speed>0.55</speed>
  <fix>3d</fix>
</trkpt>
<trkpt lat="-27.2744315" lon="151.2900644">
  <ele>347.51</ele>
  <time>2026-09-01T20:01:08Z</time>
  <course>10.58</course>
  <speed>0.5608029957123981</speed>
  <fix>3d</fix>
</trkpt>
<trkpt lat="-27.2744311" lon="151.2900644">
  <ele>347.6</ele>
  <time>2026-09-01T20:01:08Z</time>
  <course>10.58</course>
  <speed>0.5707889277132134</speed>
  <fix>3d</fix>
</trkpt>
<trkpt lat="-27.2744324" lon="151.2900643">
  <ele>347.15</ele>
  <time>2026-09-01T20:01:08Z</time>
  <course>2.91</course>
  <speed>0.55</speed>
  <fix>3d</fix>
</trkpt>
<trkpt lat="-27.2744311" lon="151.2900644">
  <ele>347.61</ele>
  <time>2026-09-01T20:01:08Z</time>
  <course>10.58</course>
  <speed>0.5707889277132134</speed>
  <fix>3d</fix>
</trkpt>
<trkpt lat="-27.2744306" lon="151.2900644">
  <ele>347.73</ele>
  <time>2026-09-01T20:01:08Z</time>
  <course>10.58</course>
  <speed>0.5807753438292642</speed>
  <fix>3d</fix>
</trkpt>
<trkpt lat="-27.2744315" lon="151.2900644">
  <ele>347.41</ele>
  <time>2026-09-01T20:01:08Z</time>
  <course>2.68</course>
  <speed>0.57</speed>
  <fix>3d</fix>
</trkpt>
<trkpt lat="-27.2744306" lon="151.2900644">
  <ele>347.73</ele>
  <time>2026-09-01T20:01:08Z</time>
  <course>10.58</course>
  <speed>0.5807753438292642</speed>
  <fix>3d</fix>
</trkpt>
<trkpt lat="-27.2744301" lon="151.2900645">
  <ele>347.86</ele>
  <time>2026-09-01T20:01:08Z</time>
  <course>10.58</course>
  <speed>0.5907622195096772</speed>
  <fix>3d</fix>
</trkpt>
<trkpt lat="-27.2744315" lon="151.2900644">
  <ele>347.41</ele>
  <time>2026-09-01T20:01:08Z</time>
  <course>2.68</course>
  <speed>0.57</speed>
  <fix>3d</fix>
</trkpt>
<trkpt lat="-27.27443" lon="151.2900645">
  <ele>347.86</ele>
  <time>2026-09-01T20:01:08Z</time>
  <course>10.58</course>
  <speed>0.5907622195096772</speed>
  <fix>3d</fix>
</trkpt>
<trkpt lat="-27.2744295" lon="151.2900645">
  <ele>347.99</ele>
  <time>2026-09-01T20:01:08Z</time>
  <course>10.57</course>
  <speed>0.6003332407921453</speed>
  <fix>3d</fix>
</trkpt>
<trkpt lat="-27.2744304" lon="151.2900644">
  <ele>347.66</ele>
  <time>2026-09-01T20:01:08Z</time>
  <course>2.48</course>
  <speed>0.59</speed>
  <fix>3d</fix>
</trkpt>
<trkpt lat="-27.2744294" lon="151.2900645">
  <ele>348.03</ele>
  <time>2026-09-01T20:01:08Z</time>
  <course>10.57</course>
  <speed>0.6003332407921453</speed>
  <fix>3d</fix>
</trkpt>
<trkpt lat="-27.274429" lon="151.2900645">
  <ele>348.13</ele>
  <time>2026-09-01T20:01:08Z</time>
  <course>10.57</course>
  <speed>0.6103277807866851</speed>
  <fix>3d</fix>
</trkpt>
<trkpt lat="-27.2744304" lon="151.2900644">
  <ele>347.66</ele>
  <time>2026-09-01T20:01:08Z</time>
  <course>2.48</course>
  <speed>0.59</speed>
  <fix>3d</fix>
</trkpt>
<trkpt lat="-27.2744288" lon="151.2900645">
  <ele>348.16</ele>
  <time>2026-09-01T20:01:08Z</time>
  <course>10.57</course>
  <speed>0.6103277807866851</speed>
  <fix>3d</fix>
</trkpt>
<trkpt lat="-27.2744284" lon="151.2900645">
  <ele>348.26</ele>
  <time>2026-09-01T20:01:08Z</time>
  <course>10.57</course>
  <speed>0.620322496770833</speed>
  <fix>3d</fix>
</trkpt>
<trkpt lat="-27.2744293" lon="151.2900645">
  <ele>347.93</ele>
  <time>2026-09-01T20:01:08Z</time>
  <course>2.31</course>
  <speed>0.61</speed>
  <fix>3d</fix>
</trkpt>
<trkpt lat="-27.2744282" lon="151.2900645">
  <ele>348.3</ele>
  <time>2026-09-01T20:01:08Z</time>
  <course>10.57</course>
  <speed>0.620322496770833</speed>
  <fix>3d</fix>
</trkpt>
<trkpt lat="-27.2744278" lon="151.2900645">
  <ele>348.4</ele>
  <time>2026-09-01T20:01:08Z</time>
  <course>10.57</course>
  <speed>0.630317380372777</speed>
  <fix>3d</fix>
</trkpt>
<trkpt lat="-27.2744293" lon="151.2900645">
  <ele>347.93</ele>
  <time>2026-09-01T20:01:08Z</time>
  <course>2.31</course>
  <speed>0.61</speed>
  <fix>3d</fix>
</trkpt>
<trkpt lat="-27.2744277" lon="151.2900645">
  <ele>348.44</ele>
  <time>2026-09-01T20:01:08Z</time>
  <course>10.57</course>
  <speed>0.630317380372777</speed>
  <fix>3d</fix>
</trkpt>
<trkpt lat="-27.2744272" lon="151.2900646">
  <ele>348.54</ele>
  <time>2026-09-01T20:01:08Z</time>
  <course>10.56</course>
  <speed>0.6403124237432849</speed>
  <fix>3d</fix>
</trkpt>
<trkpt lat="-27.2744282" lon="151.2900645">
  <ele>348.2</ele>
  <time>2026-09-01T20:01:08Z</time>
  <course>2.17</course>
  <speed>0.63</speed>
  <fix>3d</fix>
</trkpt>
<trkpt lat="-27.2744272" lon="151.2900646">
  <ele>348.55</ele>
  <time>2026-09-01T20:01:08Z</time>
  <course>10.56</course>
  <speed>0.6403124237432849</speed>
  <fix>3d</fix>
</trkpt>
<trkpt lat="-27.2744266" lon="151.2900646">
  <ele>348.69</ele>
  <time>2026-09-01T20:01:08Z</time>
  <course>10.56</course>
  <speed>0.6503076195155643</speed>
  <fix>3d</fix>
</trkpt>
<trkpt lat="-27.2744282" lon="151.2900645">
  <ele>348.2</ele>
  <time>2026-09-01T20:01:08Z</time>
  <course>2.17</course>
  <speed>0.63</speed>
  <fix>3d</fix>
</trkpt>
<trkpt lat="-27.2744266" lon="151.2900646">
  <ele>348.69</ele>
  <time>2026-09-01T20:01:08Z</time>
  <course>10.56</course>
  <speed>0.6503076195155643</speed>
  <fix>3d</fix>
</trkpt>
<trkpt lat="-27.274426" lon="151.2900646">
  <ele>348.83</ele>
  <time>2026-09-01T20:01:08Z</time>
  <course>10.55</course>
  <speed>0.660302960768767</speed>
  <fix>3d</fix>
</trkpt>
<trkpt lat="-27.274427" lon="151.2900646">
  <ele>348.48</ele>
  <time>2026-09-01T20:01:08Z</time>
  <course>2.05</course>
  <speed>0.65</speed>
  <fix>3d</fix>
</trkpt>
<trkpt lat="-27.2744259" lon="151.2900646">
  <ele>348.87</ele>
  <time>2026-09-01T20:01:08Z</time>
  <course>10.55</course>
  <speed>0.660302960768767</speed>
  <fix>3d</fix>
</trkpt>
<trkpt lat="-27.2744254" lon="151.2900646">
  <ele>348.98</ele>
  <time>2026-09-01T20:01:08Z</time>
  <course>10.55</course>
  <speed>0.6702984409947557</speed>
  <fix>3d</fix>
</trkpt>
<trkpt lat="-27.274427" lon="151.2900646">
  <ele>348.48</ele>
  <time>2026-09-01T20:01:08Z</time>
  <course>2.05</course>
  <speed>0.65</speed>
  <fix>3d</fix>
</trkpt>
<trkpt lat="-27.2744252" lon="151.2900646">
  <ele>349.02</ele>
  <time>2026-09-01T20:01:08Z</time>
  <course>10.55</course>
  <speed>0.680294054067798</speed>
  <fix>3d</fix>
</trkpt>
<trkpt lat="-27.2744248" lon="151.2900646">
  <ele>349.13</ele>
  <time>2026-09-01T20:01:08Z</time>
  <course>10.54</course>
  <speed>0.680294054067798</speed>
  <fix>3d</fix>
</trkpt>
<trkpt lat="-27.2744259" lon="151.2900646">
  <ele>348.77</ele>
  <time>2026-09-01T20:01:08Z</time>
  <course>1.96</course>
  <speed>0.68</speed>
  <fix>3d</fix>
</trkpt>
<trkpt lat="-27.2744246" lon="151.2900646">
  <ele>349.17</ele>
  <time>2026-09-01T20:01:08Z</time>
  <course>10.54</course>
  <speed>0.6902897942168927</speed>
  <fix>3d</fix>
</trkpt>
<trkpt lat="-27.2744241" lon="151.2900647">
  <ele>349.28</ele>
  <time>2026-09-01T20:01:08Z</time>
  <course>10.54</course>
  <speed>0.6902897942168927</speed>
  <fix>3d</fix>
</trkpt>
<trkpt lat="-27.2744259" lon="151.2900646">
  <ele>348.77</ele>
  <time>2026-09-01T20:01:08Z</time>
  <course>1.96</course>
  <speed>0.68</speed>
  <fix>3d</fix>
</trkpt>
<trkpt lat="-27.274424" lon="151.2900647">
  <ele>349.32</ele>
  <time>2026-09-01T20:01:08Z</time>
  <course>10.54</course>
  <speed>0.7002856560004639</speed>
  <fix>3d</fix>
</trkpt>
<trkpt lat="-27.2744235" lon="151.2900647">
  <ele>349.43</ele>
  <time>2026-09-01T20:01:08Z</time>
  <course>10.54</course>
  <speed>0.7002856560004639</speed>
  <fix>3d</fix>
</trkpt>
<trkpt lat="-27.2744246" lon="151.2900646">
  <ele>349.06</ele>
  <time>2026-09-01T20:01:08Z</time>
  <course>1.9</course>
  <speed>0.7</speed>
  <fix>3d</fix>
</trkpt>
<trkpt lat="-27.2744233" lon="151.2900647">
  <ele>349.47</ele>
  <time>2026-09-01T20:01:08Z</time>
  <course>10.54</course>
  <speed>0.7102816342831905</speed>
  <fix>3d</fix>
</trkpt>
<trkpt lat="-27.2744229" lon="151.2900647">
  <ele>349.58</ele>
  <time>2026-09-01T20:01:08Z</time>
  <course>10.54</course>
  <speed>0.7102816342831905</speed>
  <fix>3d</fix>
</trkpt>
<trkpt lat="-27.2744246" lon="151.2900646">
  <ele>349.06</ele>
  <time>2026-09-01T20:01:08Z</time>
  <course>1.9</course>
  <speed>0.7</speed>
  <fix>3d</fix>
</trkpt>
<trkpt lat="-27.2744228" lon="151.2900647">
  <ele>349.58</ele>
  <time>2026-09-01T20:01:08Z</time>
  <course>10.54</course>
  <speed>0.7102816342831905</speed>
  <fix>3d</fix>
</trkpt>
<trkpt lat="-27.2744222" lon="151.2900647">
  <ele>349.72</ele>
  <time>2026-09-01T20:01:08Z</time>
  <course>10.54</course>
  <speed>0.7202777242147643</speed>
  <fix>3d</fix>
</trkpt>
<trkpt lat="-27.2744233" lon="151.2900647">
  <ele>349.36</ele>
  <time>2026-09-01T20:01:08Z</time>
  <course>1.84</course>
  <speed>0.72</speed>
  <fix>3d</fix>
</trkpt>
<trkpt lat="-27.274422" lon="151.2900647">
  <ele>349.76</ele>
  <time>2026-09-01T20:01:08Z</time>
  <course>10.54</course>
  <speed>0.7302739212103907</speed>
  <fix>3d</fix>
</trkpt>
<trkpt lat="-27.2744215" lon="151.2900647">
  <ele>349.87</ele>
  <time>2026-09-01T20:01:08Z</time>
  <course>10.54</course>
  <speed>0.7302739212103907</speed>
  <fix>3d</fix>
</trkpt>
<trkpt lat="-27.2744233" lon="151.2900647">
  <ele>349.36</ele>
  <time>2026-09-01T20:01:08Z</time>
  <course>1.84</course>
  <speed>0.72</speed>
  <fix>3d</fix>
</trkpt>
<trkpt lat="-27.2744213" lon="151.2900647">
  <ele>349.9</ele>
  <time>2026-09-01T20:01:08Z</time>
  <course>10.54</course>
  <speed>0.7402702209328699</speed>
  <fix>3d</fix>
</trkpt>
<trkpt lat="-27.2744208" lon="151.2900647">
  <ele>350.01</ele>
  <time>2026-09-01T20:01:08Z</time>
  <course>10.54</course>
  <speed>0.7502666192761077</speed>
  <fix>3d</fix>
</trkpt>
<trkpt lat="-27.274422" lon="151.2900647">
  <ele>349.65</ele>
  <time>2026-09-01T20:01:08Z</time>
  <course>1.77</course>
  <speed>0.74</speed>
  <fix>3d</fix>
</trkpt>
<trkpt lat="-27.2744206" lon="151.2900648">
  <ele>350.05</ele>
  <time>2026-09-01T20:01:08Z</time>
  <course>10.54</course>
  <speed>0.7502666192761077</speed>
  <fix>3d</fix>
</trkpt>
<trkpt lat="-27.2744201" lon="151.2900648">
  <ele>350.15</ele>
  <time>2026-09-01T20:01:08Z</time>
  <course>10.54</course>
  <speed>0.7602631123499285</speed>
  <fix>3d</fix>
</trkpt>
<trkpt lat="-27.274422" lon="151.2900647">
  <ele>349.65</ele>
  <time>2026-09-01T20:01:08Z</time>
  <course>1.77</course>
  <speed>0.74</speed>
  <fix>3d</fix>
</trkpt>
<trkpt lat="-27.2744201" lon="151.2900648">
  <ele>350.16</ele>
  <time>2026-09-01T20:01:08Z</time>
  <course>10.54</course>
  <speed>0.7602631123499285</speed>
  <fix>3d</fix>
</trkpt>
<trkpt lat="-27.2744194" lon="151.2900648">
  <ele>350.3</ele>
  <time>2026-09-01T20:01:08Z</time>
  <course>10.54</course>
  <speed>0.7702596964660685</speed>
  <fix>3d</fix>
</trkpt>
<trkpt lat="-27.2744207" lon="151.2900648">
  <ele>349.95</ele>
  <time>2026-09-01T20:01:08Z</time>
  <course>1.72</course>
  <speed>0.76</speed>
  <fix>3d</fix>
</trkpt>
<trkpt lat="-27.2744194" lon="151.2900648">
  <ele>350.3</ele>
  <time>2026-09-01T20:01:08Z</time>
  <course>10.54</course>
  <speed>0.7702596964660685</speed>
  <fix>3d</fix>
</trkpt>
<trkpt lat="-27.2744187" lon="151.2900648">
  <ele>350.45</ele>
  <time>2026-09-01T20:01:08Z</time>
  <course>10.54</course>
  <speed>0.7802563681252463</speed>
  <fix>3d</fix>
</trkpt>
<trkpt lat="-27.2744207" lon="151.2900648">
  <ele>349.95</ele>
  <time>2026-09-01T20:01:08Z</time>
  <course>1.72</course>
  <speed>0.76</speed>
  <fix>3d</fix>
</trkpt>
<trkpt lat="-27.2744186" lon="151.2900648">
  <ele>350.48</ele>
  <time>2026-09-01T20:01:08Z</time>
  <course>10.54</course>
  <speed>0.7802563681252463</speed>
  <fix>3d</fix>
</trkpt>
<trkpt lat="-27.274418" lon="151.2900648">
  <ele>350.59</ele>
  <time>2026-09-01T20:01:08Z</time>
  <course>10.55</course>
  <speed>0.7902531240052139</speed>
  <fix>3d</fix>
</trkpt>
<trkpt lat="-27.2744193" lon="151.2900649">
  <ele>350.24</ele>
  <time>2026-09-01T20:01:08Z</time>
  <course>1.7</course>
  <speed>0.78</speed>
  <fix>3d</fix>
</trkpt>
<trkpt lat="-27.2744178" lon="151.2900648">
  <ele>350.63</ele>
  <time>2026-09-01T20:01:08Z</time>
  <course>10.55</course>
  <speed>0.7902531240052139</speed>
  <fix>3d</fix>
</trkpt>
<trkpt lat="-27.2744173" lon="151.2900649">
  <ele>350.74</ele>
  <time>2026-09-01T20:01:08Z</time>
  <course>10.55</course>
  <speed>0.8002499609497022</speed>
  <fix>3d</fix>
</trkpt>
<trkpt lat="-27.2744193" lon="151.2900649">
  <ele>350.24</ele>
  <time>2026-09-01T20:01:08Z</time>
  <course>1.7</course>
  <speed>0.78</speed>
  <fix>3d</fix>
</trkpt>
<trkpt lat="-27.2744171" lon="151.2900649">
  <ele>350.78</ele>
  <time>2026-09-01T20:01:08Z</time>
  <course>10.55</course>
  <speed>0.8002499609497022</speed>
  <fix>3d</fix>
</trkpt>
<trkpt lat="-27.2744166" lon="151.2900649">
  <ele>350.88</ele>
  <time>2026-09-01T20:01:08Z</time>
  <course>10.55</course>
  <speed>0.8102468759581859</speed>
  <fix>3d</fix>
</trkpt>
<trkpt lat="-27.2744178" lon="151.2900649">
  <ele>350.53</ele>
  <time>2026-09-01T20:01:08Z</time>
  <course>1.69</course>
  <speed>0.8</speed>
  <fix>3d</fix>
</trkpt>
<trkpt lat="-27.2744164" lon="151.2900649">
  <ele>350.92</ele>
  <time>2026-09-01T20:01:08Z</time>
  <course>10.55</course>
  <speed>0.8102468759581859</speed>
  <fix>3d</fix>
</trkpt>
<trkpt lat="-27.2744158" lon="151.2900649">
  <ele>351.03</ele>
  <time>2026-09-01T20:01:08Z</time>
  <course>10.55</course>
  <speed>0.8202438661763951</speed>
  <fix>3d</fix>
</trkpt>
<trkpt lat="-27.2744178" lon="151.2900649">
  <ele>350.53</ele>
  <time>2026-09-01T20:01:08Z</time>
  <course>1.69</course>
  <speed>0.8</speed>
  <fix>3d</fix>
</trkpt>
<trkpt lat="-27.2744156" lon="151.2900649">
  <ele>351.07</ele>
  <time>2026-09-01T20:01:08Z</time>
  <course>10.55</course>
  <speed>0.8202438661763951</speed>
  <fix>3d</fix>
</trkpt>
<trkpt lat="-27.2744151" lon="151.2900649">
  <ele>351.17</ele>
  <time>2026-09-01T20:01:08Z</time>
  <course>10.55</course>
  <speed>0.8302409288875127</speed>
  <fix>3d</fix>
</trkpt>
<trkpt lat="-27.2744163" lon="151.290065">
  <ele>350.82</ele>
  <time>2026-09-01T20:01:08Z</time>
  <course>1.68</course>
  <speed>0.82</speed>
  <fix>3d</fix>
</trkpt>
<trkpt lat="-27.2744149" lon="151.290065">
  <ele>351.21</ele>
  <time>2026-09-01T20:01:08Z</time>
  <course>10.55</course>
  <speed>0.8302409288875127</speed>
  <fix>3d</fix>
</trkpt>
<trkpt lat="-27.2744143" lon="151.290065">
  <ele>351.32</ele>
  <time>2026-09-01T20:01:08Z</time>
  <course>10.54</course>
  <speed>0.8402380615040002</speed>
  <fix>3d</fix>
</trkpt>
<trkpt lat="-27.2744163" lon="151.290065">
  <ele>350.82</ele>
  <time>2026-09-01T20:01:08Z</time>
  <course>1.68</course>
  <speed>0.82</speed>
  <fix>3d</fix>
</trkpt>
<trkpt lat="-27.2744141" lon="151.290065">
  <ele>351.35</ele>
  <time>2026-09-01T20:01:08Z</time>
  <course>10.54</course>
  <speed>0.8402380615040002</speed>
  <fix>3d</fix>
</trkpt>
<trkpt lat="-27.2744135" lon="151.290065">
  <ele>351.46</ele>
  <time>2026-09-01T20:01:08Z</time>
  <course>10.54</course>
  <speed>0.8502352615599991</speed>
  <fix>3d</fix>
</trkpt>
<trkpt lat="-27.2744148" lon="151.290065">
  <ele>351.1</ele>
  <time>2026-09-01T20:01:08Z</time>
  <course>1.64</course>
  <speed>0.84</speed>
  <fix>3d</fix>
</trkpt>
<trkpt lat="-27.2744133" lon="151.290065">
  <ele>351.5</ele>
  <time>2026-09-01T20:01:08Z</time>
  <course>10.54</course>
  <speed>0.8502352615599991</speed>
  <fix>3d</fix>
</trkpt>
<trkpt lat="-27.2744127" lon="151.290065">
  <ele>351.61</ele>
  <time>2026-09-01T20:01:08Z</time>
  <course>10.53</course>
  <speed>0.8602325267042628</speed>
  <fix>3d</fix>
</trkpt>
<trkpt lat="-27.2744148" lon="151.290065">
  <ele>351.1</ele>
  <time>2026-09-01T20:01:08Z</time>
  <course>1.64</course>
  <speed>0.84</speed>
  <fix>3d</fix>
</trkpt>
<trkpt lat="-27.2744125" lon="151.290065">
  <ele>351.65</ele>
  <time>2026-09-01T20:01:08Z</time>
  <course>10.53</course>
  <speed>0.8602325267042628</speed>
  <fix>3d</fix>
</trkpt>
<trkpt lat="-27.2744119" lon="151.2900651">
  <ele>351.75</ele>
  <time>2026-09-01T20:01:08Z</time>
  <course>10.53</course>
  <speed>0.8702298546935746</speed>
  <fix>3d</fix>
</trkpt>
<trkpt lat="-27.2744133" lon="151.2900651">
  <ele>351.39</ele>
  <time>2026-09-01T20:01:08Z</time>
  <course>1.56</course>
  <speed>0.86</speed>
  <fix>3d</fix>
</trkpt>
<trkpt lat="-27.2744119" lon="151.2900651">
  <ele>351.75</ele>
  <time>2026-09-01T20:01:08Z</time>
  <course>10.53</course>
  <speed>0.8702298546935746</speed>
  <fix>3d</fix>
</trkpt>
<trkpt lat="-27.2744111" lon="151.2900651">
  <ele>351.89</ele>
  <time>2026-09-01T20:01:08Z</time>
  <course>10.53</course>
  <speed>0.8802272433866155</speed>
  <fix>3d</fix>
</trkpt>
<trkpt lat="-27.2744133" lon="151.2900651">
  <ele>351.39</ele>
  <time>2026-09-01T20:01:08Z</time>
  <course>1.56</course>
  <speed>0.86</speed>
  <fix>3d</fix>
</trkpt>
<trkpt lat="-27.2744111" lon="151.2900651">
  <ele>351.9</ele>
  <time>2026-09-01T20:01:08Z</time>
  <course>10.53</course>
  <speed>0.8802272433866155</speed>
  <fix>3d</fix>
</trkpt>
<trkpt lat="-27.2744103" lon="151.2900651">
  <ele>352.03</ele>
  <time>2026-09-01T20:01:08Z</time>
  <course>10.54</course>
  <speed>0.8902246907382428</speed>
  <fix>3d</fix>
</trkpt>
<trkpt lat="-27.2744117" lon="151.2900651">
  <ele>351.68</ele>
  <time>2026-09-01T20:01:08Z</time>
  <course>1.45</course>
  <speed>0.88</speed>
  <fix>3d</fix>
</trkpt>
<trkpt lat="-27.2744103" lon="151.2900651">
  <ele>352.04</ele>
  <time>2026-09-01T20:01:08Z</time>
  <course>10.54</course>
  <speed>0.8902246907382428</speed>
  <fix>3d</fix>
</trkpt>
<trkpt lat="-27.2744095" lon="151.2900651">
  <ele>352.17</ele>
  <time>2026-09-01T20:01:08Z</time>
  <course>10.54</course>
  <speed>0.900222194794152</speed>
  <fix>3d</fix>
</trkpt>
<trkpt lat="-27.2744117" lon="151.2900651">
  <ele>351.68</ele>
  <time>2026-09-01T20:01:08Z</time>
  <course>1.45</course>
  <speed>0.88</speed>
  <fix>3d</fix>
</trkpt>
<trkpt lat="-27.2744093" lon="151.2900651">
  <ele>352.21</ele>
  <time>2026-09-01T20:01:08Z</time>
  <course>10.54</course>
  <speed>0.900222194794152</speed>
  <fix>3d</fix>
</trkpt>
<trkpt lat="-27.2744087" lon="151.2900652">
  <ele>352.32</ele>
  <time>2026-09-01T20:01:08Z</time>
  <course>10.54</course>
  <speed>0.900222194794152</speed>
  <fix>3d</fix>
</trkpt>
<trkpt lat="-27.2744101" lon="151.2900651">
  <ele>351.96</ele>
  <time>2026-09-01T20:01:08Z</time>
  <course>1.34</course>
  <speed>0.9</speed>
  <fix>3d</fix>
</trkpt>
<trkpt lat="-27.2744085" lon="151.2900652">
  <ele>352.35</ele>
  <time>2026-09-01T20:01:08Z</time>
  <course>10.54</course>
  <speed>0.9102197536858887</speed>
  <fix>3d</fix>
</trkpt>
<trkpt lat="-27.2744079" lon="151.2900652">
  <ele>352.46</ele>
  <time>2026-09-01T20:01:08Z</time>
  <course>10.54</course>
  <speed>0.9102197536858887</speed>
  <fix>3d</fix>
</trkpt>
<trkpt lat="-27.2744101" lon="151.2900651">
  <ele>351.96</ele>
  <time>2026-09-01T20:01:08Z</time>
  <course>1.34</course>
  <speed>0.9</speed>
  <fix>3d</fix>
</trkpt>
<trkpt lat="-27.2744076" lon="151.2900652">
  <ele>352.5</ele>
  <time>2026-09-01T20:01:08Z</time>
  <course>10.55</course>
  <speed>0.9202173656261873</speed>
  <fix>3d</fix>
</trkpt>
<trkpt lat="-27.274407" lon="151.2900652">
  <ele>352.6</ele>
  <time>2026-09-01T20:01:08Z</time>
  <course>10.55</course>
  <speed>0.9202173656261873</speed>
  <fix>3d</fix>
</trkpt>
<trkpt lat="-27.2744085" lon="151.2900651">
  <ele>352.25</ele>
  <time>2026-09-01T20:01:08Z</time>
  <course>1.24</course>
  <speed>0.92</speed>
  <fix>3d</fix>
</trkpt>
<trkpt lat="-27.2744068" lon="151.2900652">
  <ele>352.64</ele>
  <time>2026-09-01T20:01:08Z</time>
  <course>10.55</course>
  <speed>0.9302150289046076</speed>
  <fix>3d</fix>
</trkpt>
<trkpt lat="-27.2744062" lon="151.2900652">
  <ele>352.74</ele>
  <time>2026-09-01T20:01:08Z</time>
  <course>10.55</course>
  <speed>0.9302150289046076</speed>
  <fix>3d</fix>
</trkpt>
<trkpt lat="-27.2744085" lon="151.2900651">
  <ele>352.25</ele>
  <time>2026-09-01T20:01:08Z</time>
  <course>1.24</course>
  <speed>0.92</speed>
  <fix>3d</fix>
</trkpt>
<trkpt lat="-27.274406" lon="151.2900652">
  <ele>352.78</ele>
  <time>2026-09-01T20:01:08Z</time>
  <course>10.55</course>
  <speed>0.9402127418834527</speed>
  <fix>3d</fix>
</trkpt>
<trkpt lat="-27.2744053" lon="151.2900652">
  <ele>352.88</ele>
  <time>2026-09-01T20:01:08Z</time>
  <course>10.55</course>
  <speed>0.9402127418834527</speed>
  <fix>3d</fix>
</trkpt>
<trkpt lat="-27.2744068" lon="151.2900652">
  <ele>352.53</ele>
  <time>2026-09-01T20:01:08Z</time>
  <course>1.17</course>
  <speed>0.94</speed>
  <fix>3d</fix>
</trkpt>
<trkpt lat="-27.2744051" lon="151.2900652">
  <ele>352.92</ele>
  <time>2026-09-01T20:01:08Z</time>
  <course>10.54</course>
  <speed>0.9502105029939419</speed>
  <fix>3d</fix>
</trkpt>
<trkpt lat="-27.2744045" lon="151.2900653">
  <ele>353.02</ele>
  <time>2026-09-01T20:01:08Z</time>
  <course>10.54</course>
  <speed>0.9502105029939419</speed>
  <fix>3d</fix>
</trkpt>
<trkpt lat="-27.2744068" lon="151.2900652">
  <ele>352.53</ele>
  <time>2026-09-01T20:01:08Z</time>
  <course>1.17</course>
  <speed>0.94</speed>
  <fix>3d</fix>
</trkpt>
<trkpt lat="-27.2744042" lon="151.2900653">
  <ele>353.06</ele>
  <time>2026-09-01T20:01:08Z</time>
  <course>10.54</course>
  <speed>0.9602083107326242</speed>
  <fix>3d</fix>
</trkpt>
<trkpt lat="-27.2744036" lon="151.2900653">
  <ele>353.16</ele>
  <time>2026-09-01T20:01:08Z</time>
  <course>10.54</course>
  <speed>0.9602083107326242</speed>
  <fix>3d</fix>
</trkpt>
<trkpt lat="-27.2744051" lon="151.2900652">
  <ele>352.82</ele>
  <time>2026-09-01T20:01:08Z</time>
  <course>1.11</course>
  <speed>0.96</speed>
  <fix>3d</fix>
</trkpt>
<trkpt lat="-27.2744034" lon="151.2900653">
  <ele>353.2</ele>
  <time>2026-09-01T20:01:08Z</time>
  <course>10.54</course>
  <speed>0.9702061636580135</speed>
  <fix>3d</fix>
</trkpt>
<trkpt lat="-27.2744027" lon="151.2900653">
  <ele>353.31</ele>
  <time>2026-09-01T20:01:08Z</time>
  <course>10.54</course>
  <speed>0.9702061636580135</speed>
  <fix>3d</fix>
</trkpt>
<trkpt lat="-27.2744051" lon="151.2900652">
  <ele>352.82</ele>
  <time>2026-09-01T20:01:08Z</time>
  <course>1.11</course>
  <speed>0.96</speed>
  <fix>3d</fix>
</trkpt>
<trkpt lat="-27.2744027" lon="151.2900653">
  <ele>353.31</ele>
  <time>2026-09-01T20:01:08Z</time>
  <course>10.54</course>
  <speed>0.9702061636580135</speed>
  <fix>3d</fix>
</trkpt>
<trkpt lat="-27.2744018" lon="151.2900653">
  <ele>353.45</ele>
  <time>2026-09-01T20:01:08Z</time>
  <course>10.54</course>
  <speed>0.9802040603874276</speed>
  <fix>3d</fix>
</trkpt>
<trkpt lat="-27.2744033" lon="151.2900653">
  <ele>353.1</ele>
  <time>2026-09-01T20:01:08Z</time>
  <course>1.04</course>
  <speed>0.98</speed>
  <fix>3d</fix>
</trkpt>
<trkpt lat="-27.2744018" lon="151.2900653">
  <ele>353.45</ele>
  <time>2026-09-01T20:01:08Z</time>
  <course>10.54</course>
  <speed>0.9802040603874276</speed>
  <fix>3d</fix>
</trkpt>
<trkpt lat="-27.2744009" lon="151.2900653">
  <ele>353.59</ele>
  <time>2026-09-01T20:01:08Z</time>
  <course>10.54</course>
  <speed>0.9902019995940222</speed>
  <fix>3d</fix>
</trkpt>
<trkpt lat="-27.2744033" lon="151.2900653">
  <ele>353.1</ele>
  <time>2026-09-01T20:01:08Z</time>
  <course>1.04</course>
  <speed>0.98</speed>
  <fix>3d</fix>
</trkpt>
<trkpt lat="-27.2744007" lon="151.2900653">
  <ele>353.63</ele>
  <time>2026-09-01T20:01:08Z</time>
  <course>10.54</course>
  <speed>1.000199980003999</speed>
  <fix>3d</fix>
</trkpt>
<trkpt lat="-27.2744" lon="151.2900653">
  <ele>353.74</ele>
  <time>2026-09-01T20:01:08Z</time>
  <course>10.54</course>
  <speed>1.000199980003999</speed>
  <fix>3d</fix>
</trkpt>
<trkpt lat="-27.2744015" lon="151.2900654">
  <ele>353.39</ele>
  <time>2026-09-01T20:01:08Z</time>
  <course>1.0</course>
  <speed>1.01</speed>
  <fix>3d</fix>
</trkpt>
<trkpt lat="-27.2744" lon="151.2900653">
  <ele>353.74</ele>
  <time>2026-09-01T20:01:08Z</time>
  <course>10.54</course>
  <speed>1.000199980003999</speed>
  <fix>3d</fix>
</trkpt>
<trkpt lat="-27.2743991" lon="151.2900654">
  <ele>353.88</ele>
  <time>2026-09-01T20:01:08Z</time>
  <course>10.55</course>
  <speed>1.010198000393982</speed>
  <fix>3d</fix>
</trkpt>
<trkpt lat="-27.2744015" lon="151.2900654">
  <ele>353.39</ele>
  <time>2026-09-01T20:01:08Z</time>
  <course>1.0</course>
  <speed>1.01</speed>
  <fix>3d</fix>
</trkpt>
<trkpt lat="-27.2743988" lon="151.2900654">
  <ele>353.92</ele>
  <time>2026-09-01T20:01:08Z</time>
  <course>10.55</course>
  <speed>1.020196059588548</speed>
  <fix>3d</fix>
</trkpt>
<trkpt lat="-27.2743981" lon="151.2900654">
  <ele>354.03</ele>
  <time>2026-09-01T20:01:08Z</time>
  <course>10.55</course>
  <speed>1.020196059588548</speed>
  <fix>3d</fix>
</trkpt>
<trkpt lat="-27.2743997" lon="151.2900654">
  <ele>353.68</ele>
  <time>2026-09-01T20:01:08Z</time>
  <course>0.98</course>
  <speed>1.03</speed>
  <fix>3d</fix>
</trkpt>
<trkpt lat="-27.2743979" lon="151.2900654">
  <ele>354.07</ele>
  <time>2026-09-01T20:01:08Z</time>
  <course>10.55</course>
  <speed>1.030194156457898</speed>
  <fix>3d</fix>
</trkpt>
<trkpt lat="-27.2743972" lon="151.2900654">
  <ele>354.18</ele>
  <time>2026-09-01T20:01:08Z</time>
  <course>10.54</course>
  <speed>1.030194156457898</speed>
  <fix>3d</fix>
</trkpt>
<trkpt lat="-27.2743997" lon="151.2900654">
  <ele>353.68</ele>
  <time>2026-09-01T20:01:08Z</time>
  <course>0.98</course>
  <speed>1.03</speed>
  <fix>3d</fix>
</trkpt>
<trkpt lat="-27.2743969" lon="151.2900654">
  <ele>354.22</ele>
  <time>2026-09-01T20:01:08Z</time>
  <course>10.54</course>
  <speed>1.0401922899156675</speed>
  <fix>3d</fix>
</trkpt>
<trkpt lat="-27.2743962" lon="151.2900654">
  <ele>354.33</ele>
  <time>2026-09-01T20:01:08Z</time>
  <course>10.54</course>
  <speed>1.0501904589168576</speed>
  <fix>3d</fix>
</trkpt>
<trkpt lat="-27.2743978" lon="151.2900654">
  <ele>353.97</ele>
  <time>2026-09-01T20:01:08Z</time>
  <course>0.95</course>
  <speed>1.05</speed>
  <fix>3d</fix>
</trkpt>
<trkpt lat="-27.274396" lon="151.2900655">
  <ele>354.36</ele>
  <time>2026-09-01T20:01:08Z</time>
  <course>10.54</course>
  <speed>1.0501904589168576</speed>
  <fix>3d</fix>
</trkpt>
<trkpt lat="-27.2743953" lon="151.2900655">
  <ele>354.47</ele>
  <time>2026-09-01T20:01:08Z</time>
  <course>10.54</course>
  <speed>1.0601886624558856</speed>
  <fix>3d</fix>
</trkpt>
<trkpt lat="-27.2743978" lon="151.2900654">
  <ele>353.97</ele>
  <time>2026-09-01T20:01:08Z</time>
  <course>0.95</course>
  <speed>1.05</speed>
  <fix>3d</fix>
</trkpt>
<trkpt lat="-27.274395" lon="151.2900655">
  <ele>354.51</ele>
  <time>2026-09-01T20:01:08Z</time>
  <course>10.53</course>
  <speed>1.0601886624558856</speed>
  <fix>3d</fix>
</trkpt>
<trkpt lat="-27.2743943" lon="151.2900655">
  <ele>354.62</ele>
  <time>2026-09-01T20:01:08Z</time>
  <course>10.53</course>
  <speed>1.070186899564744</speed>
  <fix>3d</fix>
</trkpt>
<trkpt lat="-27.2743959" lon="151.2900655">
  <ele>354.26</ele>
  <time>2026-09-01T20:01:08Z</time>
  <course>0.91</course>
  <speed>1.07</speed>
  <fix>3d</fix>
</trkpt>
<trkpt lat="-27.274394" lon="151.2900655">
  <ele>354.66</ele>
  <time>2026-09-01T20:01:08Z</time>
  <course>10.53</course>
  <speed>1.070186899564744</speed>
  <fix>3d</fix>
</trkpt>
<trkpt lat="-27.2743933" lon="151.2900655">
  <ele>354.77</ele>
  <time>2026-09-01T20:01:08Z</time>
  <course>10.53</course>
  <speed>1.080185169311262</speed>
  <fix>3d</fix>
</trkpt>
<trkpt lat="-27.2743959" lon="151.2900655">
  <ele>354.26</ele>
  <time>2026-09-01T20:01:08Z</time>
  <course>0.91</course>
  <speed>1.07</speed>
  <fix>3d</fix>
</trkpt>
<trkpt lat="-27.2743929" lon="151.2900655">
  <ele>354.83</ele>
  <time>2026-09-01T20:01:08Z</time>
  <course>10.53</course>
  <speed>1.080185169311262</speed>
  <fix>3d</fix>
</trkpt>
<trkpt lat="-27.2743923" lon="151.2900655">
  <ele>354.91</ele>
  <time>2026-09-01T20:01:08Z</time>
  <course>10.52</course>
  <speed>1.0901834707974616</speed>
  <fix>3d</fix>
</trkpt>
<trkpt lat="-27.274394" lon="151.2900655">
  <ele>354.55</ele>
  <time>2026-09-01T20:01:08Z</time>
  <course>0.86</course>
  <speed>1.09</speed>
  <fix>3d</fix>
</trkpt>
<trkpt lat="-27.2743923" lon="151.2900655">
  <ele>354.92</ele>
  <time>2026-09-01T20:01:08Z</time>
  <course>10.52</course>
  <speed>1.0901834707974616</speed>
  <fix>3d</fix>
</trkpt>
<trkpt lat="-27.2743913" lon="151.2900656">
  <ele>355.06</ele>
  <time>2026-09-01T20:01:08Z</time>
  <course>10.52</course>
  <speed>1.100409014866745</speed>
  <fix>3d</fix>
</trkpt>
<trkpt lat="-27.274394" lon="151.2900655">
  <ele>354.55</ele>
  <time>2026-09-01T20:01:08Z</time>
  <course>0.86</course>
  <speed>1.09</speed>
  <fix>3d</fix>
</trkpt>
<trkpt lat="-27.2743913" lon="151.2900656">
  <ele>355.06</ele>
  <time>2026-09-01T20:01:08Z</time>
  <course>10.52</course>
  <speed>1.100409014866745</speed>
  <fix>3d</fix>
</trkpt>
<trkpt lat="-27.2743903" lon="151.2900656">
  <ele>355.2</ele>
  <time>2026-09-01T20:01:08Z</time>
  <course>10.52</course>
  <speed>1.110405331399305</speed>
  <fix>3d</fix>
</trkpt>
<trkpt lat="-27.274392" lon="151.2900655">
  <ele>354.84</ele>
  <time>2026-09-01T20:01:08Z</time>
  <course>0.82</course>
  <speed>1.11</speed>
  <fix>3d</fix>
</trkpt>
<trkpt lat="-27.27439" lon="151.2900656">
  <ele>355.24</ele>
  <time>2026-09-01T20:01:08Z</time>
  <course>10.53</course>
  <speed>1.110405331399305</speed>
  <fix>3d</fix>
</trkpt>
<trkpt lat="-27.2743893" lon="151.2900656">
  <ele>355.34</ele>
  <time>2026-09-01T20:01:08Z</time>
  <course>10.53</course>
  <speed>1.1204017136723774</speed>
  <fix>3d</fix>
</trkpt>
<trkpt lat="-27.274392" lon="151.2900655">
  <ele>354.84</ele>
  <time>2026-09-01T20:01:08Z</time>
  <course>0.82</course>
  <speed>1.11</speed>
  <fix>3d</fix>
</trkpt>
<trkpt lat="-27.274389" lon="151.2900656">
  <ele>355.38</ele>
  <time>2026-09-01T20:01:08Z</time>
  <course>10.53</course>
  <speed>1.1204017136723774</speed>
  <fix>3d</fix>
</trkpt>
<trkpt lat="-27.2743883" lon="151.2900656">
  <ele>355.49</ele>
  <time>2026-09-01T20:01:08Z</time>
  <course>10.53</course>
  <speed>1.1303981599418853</speed>
  <fix>3d</fix>
</trkpt>
<trkpt lat="-27.2743899" lon="151.2900656">
  <ele>355.12</ele>
  <time>2026-09-01T20:01:08Z</time>
  <course>0.79</course>
  <speed>1.14</speed>
  <fix>3d</fix>
</trkpt>
<trkpt lat="-27.2743879" lon="151.2900656">
  <ele>355.53</ele>
  <time>2026-09-01T20:01:08Z</time>
  <course>10.53</course>
  <speed>1.1303981599418853</speed>
  <fix>3d</fix>
</trkpt>
<trkpt lat="-27.2743872" lon="151.2900657">
  <ele>355.63</ele>
  <time>2026-09-01T20:01:08Z</time>
  <course>10.53</course>
  <speed>1.1403946685248927</speed>
  <fix>3d</fix>
</trkpt>
<trkpt lat="-27.2743899" lon="151.2900656">
  <ele>355.12</ele>
  <time>2026-09-01T20:01:08Z</time>
  <course>0.79</course>
  <speed>1.14</speed>
  <fix>3d</fix>
</trkpt>
<trkpt lat="-27.2743869" lon="151.2900657">
  <ele>355.67</ele>
  <time>2026-09-01T20:01:08Z</time>
  <course>10.53</course>
  <speed>1.1403946685248927</speed>
  <fix>3d</fix>
</trkpt>
<trkpt lat="-27.2743861" lon="151.2900657">
  <ele>355.77</ele>
  <time>2026-09-01T20:01:08Z</time>
  <course>10.53</course>
  <speed>1.1503912377969505</speed>
  <fix>3d</fix>
</trkpt>
<trkpt lat="-27.2743878" lon="151.2900656">
  <ele>355.4</ele>
  <time>2026-09-01T20:01:08Z</time>
  <course>0.75</course>
  <speed>1.16</speed>
  <fix>3d</fix>
</trkpt>
<trkpt lat="-27.2743861" lon="151.2900657">
  <ele>355.77</ele>
  <time>2026-09-01T20:01:08Z</time>
  <course>10.53</course>
  <speed>1.1503912377969505</speed>
  <fix>3d</fix>
</trkpt>
<trkpt lat="-27.2743851" lon="151.2900657">
  <ele>355.91</ele>
  <time>2026-09-01T20:01:08Z</time>
  <course>10.53</course>
  <speed>1.1603878661895772</speed>
  <fix>3d</fix>
</trkpt>
<trkpt lat="-27.2743878" lon="151.2900656">
  <ele>355.4</ele>
  <time>2026-09-01T20:01:08Z</time>
  <course>0.75</course>
  <speed>1.16</speed>
  <fix>3d</fix>
</trkpt>
<trkpt lat="-27.2743848" lon="151.2900657">
  <ele>355.95</ele>
  <time>2026-09-01T20:01:08Z</time>
  <course>10.53</course>
  <speed>1.1603878661895772</speed>
  <fix>3d</fix>
</trkpt>
<trkpt lat="-27.274384" lon="151.2900657">
  <ele>356.06</ele>
  <time>2026-09-01T20:01:08Z</time>
  <course>10.53</course>
  <speed>1.1703845521878697</speed>
  <fix>3d</fix>
</trkpt>
<trkpt lat="-27.2743857" lon="151.2900656">
  <ele>355.69</ele>
  <time>2026-09-01T20:01:08Z</time>
  <course>0.72</course>
  <speed>1.18</speed>
  <fix>3d</fix>
</trkpt>
<trkpt lat="-27.2743837" lon="151.2900657">
  <ele>356.09</ele>
  <time>2026-09-01T20:01:08Z</time>
  <course>10.53</course>
  <speed>1.1803812943282352</speed>
  <fix>3d</fix>
</trkpt>
<trkpt lat="-27.2743829" lon="151.2900657">
  <ele>356.2</ele>
  <time>2026-09-01T20:01:08Z</time>
  <course>10.53</course>
  <speed>1.1803812943282352</speed>
  <fix>3d</fix>
</trkpt>
<trkpt lat="-27.2743857" lon="151.2900656">
  <ele>355.69</ele>
  <time>2026-09-01T20:01:08Z</time>
  <course>0.72</course>
  <speed>1.18</speed>
  <fix>3d</fix>
</trkpt>
<trkpt lat="-27.2743826" lon="151.2900657">
  <ele>356.24</ele>
  <time>2026-09-01T20:01:08Z</time>
  <course>10.53</course>
  <speed>1.1903780911962385</speed>
  <fix>3d</fix>
</trkpt>
<trkpt lat="-27.2743818" lon="151.2900657">
  <ele>356.34</ele>
  <time>2026-09-01T20:01:08Z</time>
  <course>10.53</course>
  <speed>1.2003749414245535</speed>
  <fix>3d</fix>
</trkpt>
<trkpt lat="-27.2743836" lon="151.2900656">
  <ele>355.97</ele>
  <time>2026-09-01T20:01:08Z</time>
  <course>0.69</course>
  <speed>1.2</speed>
  <fix>3d</fix>
</trkpt>
<trkpt lat="-27.2743815" lon="151.2900657">
  <ele>356.38</ele>
  <time>2026-09-01T20:01:08Z</time>
  <course>10.53</course>
  <speed>1.2003749414245535</speed>
  <fix>3d</fix>
</trkpt>
<trkpt lat="-27.2743807" lon="151.2900658">
  <ele>356.49</ele>
  <time>2026-09-01T20:01:08Z</time>
  <course>10.52</course>
  <speed>1.2103718436910205</speed>
  <fix>3d</fix>
</trkpt>
<trkpt lat="-27.2743836" lon="151.2900656">
  <ele>355.97</ele>
  <time>2026-09-01T20:01:08Z</time>
  <course>0.69</course>
  <speed>1.2</speed>
  <fix>3d</fix>
</trkpt>
<trkpt lat="-27.2743807" lon="151.2900658">
  <ele>356.49</ele>
  <time>2026-09-01T20:01:08Z</time>
  <course>10.52</course>
  <speed>1.2103718436910205</speed>
  <fix>3d</fix>
</trkpt>
<trkpt lat="-27.2743796" lon="151.2900658">
  <ele>356.63</ele>
  <time>2026-09-01T20:01:08Z</time>
  <course>10.52</course>
  <speed>1.2203687967167958</speed>
  <fix>3d</fix>
</trkpt>
<trkpt lat="-27.2743813" lon="151.2900656">
  <ele>356.26</ele>
  <time>2026-09-01T20:01:08Z</time>
  <course>0.67</course>
  <speed>1.23</speed>
  <fix>3d</fix>
</trkpt>
<trkpt lat="-27.2743795" lon="151.2900658">
  <ele>356.64</ele>
  <time>2026-09-01T20:01:08Z</time>
  <course>10.52</course>
  <speed>1.2203687967167958</speed>
  <fix>3d</fix>
</trkpt>
<trkpt lat="-27.2743785" lon="151.2900658">
  <ele>356.78</ele>
  <time>2026-09-01T20:01:08Z</time>
  <course>10.52</course>
  <speed>1.2303657992645927</speed>
  <fix>3d</fix>
</trkpt>
<trkpt lat="-27.2743813" lon="151.2900656">
  <ele>356.26</ele>
  <time>2026-09-01T20:01:08Z</time>
  <course>0.67</course>
  <speed>1.23</speed>
  <fix>3d</fix>
</trkpt>
<trkpt lat="-27.2743782" lon="151.2900658">
  <ele>356.82</ele>
  <time>2026-09-01T20:01:08Z</time>
  <course>10.52</course>
  <speed>1.2303657992645927</speed>
  <fix>3d</fix>
</trkpt>
<trkpt lat="-27.2743773" lon="151.2900658">
  <ele>356.92</ele>
  <time>2026-09-01T20:01:08Z</time>
  <course>10.52</course>
  <speed>1.2403628501370074</speed>
  <fix>3d</fix>
</trkpt>
<trkpt lat="-27.2743792" lon="151.2900656">
  <ele>356.54</ele>
  <time>2026-09-01T20:01:08Z</time>
  <course>0.67</course>
  <speed>1.25</speed>
  <fix>3d</fix>
</trkpt>
<trkpt lat="-27.274377" lon="151.2900658">
  <ele>356.96</ele>
  <time>2026-09-01T20:01:08Z</time>
  <course>10.52</course>
  <speed>1.2403628501370074</speed>
  <fix>3d</fix>
</trkpt>
<trkpt lat="-27.2743762" lon="151.2900658">
  <ele>357.07</ele>
  <time>2026-09-01T20:01:08Z</time>
  <course>10.51</course>
  <speed>1.2503599481749246</speed>
  <fix>3d</fix>
</trkpt>
<trkpt lat="-27.2743792" lon="151.2900656">
  <ele>356.54</ele>
  <time>2026-09-01T20:01:08Z</time>
  <course>0.67</course>
  <speed>1.25</speed>
  <fix>3d</fix>
</trkpt>
<trkpt lat="-27.2743759" lon="151.2900658">
  <ele>357.1</ele>
  <time>2026-09-01T20:01:08Z</time>
  <course>10.51</course>
  <speed>1.2603570922560003</speed>
  <fix>3d</fix>
</trkpt>
<trkpt lat="-27.274375" lon="151.2900658">
  <ele>357.21</ele>
  <time>2026-09-01T20:01:08Z</time>
  <course>10.51</course>
  <speed>1.2603570922560003</speed>
  <fix>3d</fix>
</trkpt>
<trkpt lat="-27.2743769" lon="151.2900657">
  <ele>356.83</ele>
  <time>2026-09-01T20:01:08Z</time>
  <course>0.68</course>
  <speed>1.27</speed>
  <fix>3d</fix>
</trkpt>
<trkpt lat="-27.2743747" lon="151.2900658">
  <ele>357.25</ele>
  <time>2026-09-01T20:01:08Z</time>
  <course>10.51</course>
  <speed>1.2703542812932147</speed>
  <fix>3d</fix>
</trkpt>
<trkpt lat="-27.2743738" lon="151.2900658">
  <ele>357.35</ele>
  <time>2026-09-01T20:01:08Z</time>
  <course>10.51</course>
  <speed>1.2803515142334936</speed>
  <fix>3d</fix>
</trkpt>
<trkpt lat="-27.2743769" lon="151.2900657">
  <ele>356.83</ele>
  <time>2026-09-01T20:01:08Z</time>
  <course>0.68</course>
  <speed>1.27</speed>
  <fix>3d</fix>
</trkpt>
<trkpt lat="-27.2743735" lon="151.2900659">
  <ele>357.39</ele>
  <time>2026-09-01T20:01:08Z</time>
  <course>10.51</course>
  <speed>1.2803515142334936</speed>
  <fix>3d</fix>
</trkpt>
<trkpt lat="-27.2743727" lon="151.2900659">
  <ele>357.5</ele>
  <time>2026-09-01T20:01:08Z</time>
  <course>10.51</course>
  <speed>1.290348790056394</speed>
  <fix>3d</fix>
</trkpt>
<trkpt lat="-27.2743746" lon="151.2900657">
  <ele>357.11</ele>
  <time>2026-09-01T20:01:08Z</time>
  <course>0.71</course>
  <speed>1.3</speed>
  <fix>3d</fix>
</trkpt>
<trkpt lat="-27.2743723" lon="151.2900659">
  <ele>357.54</ele>
  <time>2026-09-01T20:01:08Z</time>
  <course>10.51</course>
  <speed>1.290348790056394</speed>
  <fix>3d</fix>
</trkpt>
<trkpt lat="-27.2743715" lon="151.2900659">
  <ele>357.64</ele>
  <time>2026-09-01T20:01:08Z</time>
  <course>10.51</course>
  <speed>1.30034610777285</speed>
  <fix>3d</fix>
</trkpt>
<trkpt lat="-27.2743746" lon="151.2900657">
  <ele>357.11</ele>
  <time>2026-09-01T20:01:08Z</time>
  <course>0.71</course>
  <speed>1.3</speed>
  <fix>3d</fix>
</trkpt>
<trkpt lat="-27.2743711" lon="151.2900659">
  <ele>357.68</ele>
  <time>2026-09-01T20:01:08Z</time>
  <course>10.51</course>
  <speed>1.30034610777285</speed>
  <fix>3d</fix>
</trkpt>
<trkpt lat="-27.2743703" lon="151.2900659">
  <ele>357.79</ele>
  <time>2026-09-01T20:01:08Z</time>
  <course>10.51</course>
  <speed>1.3103434664239755</speed>
  <fix>3d</fix>
</trkpt>
<trkpt lat="-27.2743722" lon="151.2900657">
  <ele>357.4</ele>
  <time>2026-09-01T20:01:08Z</time>
  <course>0.74</course>
  <speed>1.32</speed>
  <fix>3d</fix>
</trkpt>
<trkpt lat="-27.2743702" lon="151.2900659">
  <ele>357.79</ele>
  <time>2026-09-01T20:01:08Z</time>
  <course>10.51</course>
  <speed>1.3103434664239755</speed>
  <fix>3d</fix>
</trkpt>
<trkpt lat="-27.2743691" lon="151.2900659">
  <ele>357.93</ele>
  <time>2026-09-01T20:01:08Z</time>
  <course>10.51</course>
  <speed>1.3203408650799233</speed>
  <fix>3d</fix>
</trkpt>
<trkpt lat="-27.2743722" lon="151.2900657">
  <ele>357.4</ele>
  <time>2026-09-01T20:01:08Z</time>
  <course>0.74</course>
  <speed>1.32</speed>
  <fix>3d</fix>
</trkpt>
<trkpt lat="-27.2743687" lon="151.2900659">
  <ele>357.97</ele>
  <time>2026-09-01T20:01:08Z</time>
  <course>10.51</course>
  <speed>1.330338302838793</speed>
  <fix>3d</fix>
</trkpt>
<trkpt lat="-27.2743678" lon="151.2900659">
  <ele>358.07</ele>
  <time>2026-09-01T20:01:08Z</time>
  <course>10.51</course>
  <speed>1.3403357788255896</speed>
  <fix>3d</fix>
</trkpt>
<trkpt lat="-27.2743698" lon="151.2900658">
  <ele>357.68</ele>
  <time>2026-09-01T20:01:08Z</time>
  <course>0.78</course>
  <speed>1.35</speed>
  <fix>3d</fix>
</trkpt>
<trkpt lat="-27.2743678" lon="151.2900659">
  <ele>358.08</ele>
  <time>2026-09-01T20:01:08Z</time>
  <course>10.51</course>
  <speed>1.3403357788255896</speed>
  <fix>3d</fix>
</trkpt>
<trkpt lat="-27.2743666" lon="151.290066">
  <ele>358.21</ele>
  <time>2026-09-01T20:01:08Z</time>
  <course>10.51</course>
  <speed>1.3503332921912277</speed>
  <fix>3d</fix>
</trkpt>
<trkpt lat="-27.2743698" lon="151.2900658">
  <ele>357.68</ele>
  <time>2026-09-01T20:01:08Z</time>
  <course>0.78</course>
  <speed>1.35</speed>
  <fix>3d</fix>
</trkpt>
<trkpt lat="-27.2743665" lon="151.290066">
  <ele>358.22</ele>
  <time>2026-09-01T20:01:08Z</time>
  <course>10.51</course>
  <speed>1.3503332921912277</speed>
  <fix>3d</fix>
</trkpt>
<trkpt lat="-27.2743653" lon="151.290066">
  <ele>358.36</ele>
  <time>2026-09-01T20:01:08Z</time>
  <course>10.51</course>
  <speed>1.3603308421115798</speed>
  <fix>3d</fix>
</trkpt>
<trkpt lat="-27.2743674" lon="151.2900659">
  <ele>357.96</ele>
  <time>2026-09-01T20:01:08Z</time>
  <course>0.82</course>
  <speed>1.37</speed>
  <fix>3d</fix>
</trkpt>
<trkpt lat="-27.274365" lon="151.290066">
  <ele>358.4</ele>
  <time>2026-09-01T20:01:08Z</time>
  <course>10.51</course>
  <speed>1.3603308421115798</speed>
  <fix>3d</fix>
</trkpt>
<trkpt lat="-27.2743641" lon="151.290066">
  <ele>358.5</ele>
  <time>2026-09-01T20:01:08Z</time>
  <course>10.51</course>
  <speed>1.3703284277865655</speed>
  <fix>3d</fix>
</trkpt>
<trkpt lat="-27.2743674" lon="151.2900659">
  <ele>357.96</ele>
  <time>2026-09-01T20:01:08Z</time>
  <course>0.82</course>
  <speed>1.37</speed>
  <fix>3d</fix>
</trkpt>
<trkpt lat="-27.2743637" lon="151.290066">
  <ele>358.54</ele>
  <time>2026-09-01T20:01:08Z</time>
  <course>10.51</course>
  <speed>1.3803260484392808</speed>
  <fix>3d</fix>
</trkpt>
<trkpt lat="-27.2743628" lon="151.290066">
  <ele>358.64</ele>
  <time>2026-09-01T20:01:08Z</time>
  <course>10.51</course>
  <speed>1.3905754204644925</speed>
  <fix>3d</fix>
</trkpt>
<trkpt lat="-27.2743649" lon="151.2900659">
  <ele>358.25</ele>
  <time>2026-09-01T20:01:08Z</time>
  <course>0.83</course>
  <speed>1.39</speed>
  <fix>3d</fix>
</trkpt>
<trkpt lat="-27.2743625" lon="151.290066">
  <ele>358.67</ele>
  <time>2026-09-01T20:01:08Z</time>
  <course>10.51</course>
  <speed>1.3905754204644925</speed>
  <fix>3d</fix>
</trkpt>
<trkpt lat="-27.2743615" lon="151.290066">
  <ele>358.78</ele>
  <time>2026-09-01T20:01:08Z</time>
  <course>10.51</course>
  <speed>1.4005713120009278</speed>
  <fix>3d</fix>
</trkpt>
<trkpt lat="-27.2743649" lon="151.2900659">
  <ele>358.25</ele>
  <time>2026-09-01T20:01:08Z</time>
  <course>0.83</course>
  <speed>1.39</speed>
  <fix>3d</fix>
</trkpt>
<trkpt lat="-27.2743612" lon="151.2900661">
  <ele>358.82</ele>
  <time>2026-09-01T20:01:08Z</time>
  <course>10.52</course>
  <speed>1.4005713120009278</speed>
  <fix>3d</fix>
</trkpt>
<trkpt lat="-27.2743602" lon="151.2900661">
  <ele>358.92</ele>
  <time>2026-09-01T20:01:08Z</time>
  <course>10.52</course>
  <speed>1.4105672617780407</speed>
  <fix>3d</fix>
</trkpt>
<trkpt lat="-27.2743623" lon="151.290066">
  <ele>358.53</ele>
  <time>2026-09-01T20:01:08Z</time>
  <course>0.83</course>
  <speed>1.42</speed>
  <fix>3d</fix>
</trkpt>
<trkpt lat="-27.2743598" lon="151.2900661">
  <ele>358.96</ele>
  <time>2026-09-01T20:01:08Z</time>
  <course>10.52</course>
  <speed>1.4105672617780407</speed>
  <fix>3d</fix>
</trkpt>
<trkpt lat="-27.2743589" lon="151.2900661">
  <ele>359.06</ele>
  <time>2026-09-01T20:01:08Z</time>
  <course>10.52</course>
  <speed>1.420563268566381</speed>
  <fix>3d</fix>
</trkpt>
<trkpt lat="-27.2743623" lon="151.290066">
  <ele>358.53</ele>
  <time>2026-09-01T20:01:08Z</time>
  <course>0.83</course>
  <speed>1.42</speed>
  <fix>3d</fix>
</trkpt>
<trkpt lat="-27.2743586" lon="151.2900661">
  <ele>359.1</ele>
  <time>2026-09-01T20:01:08Z</time>
  <course>10.52</course>
  <speed>1.4305593311708538</speed>
  <fix>3d</fix>
</trkpt>
<trkpt lat="-27.2743576" lon="151.2900661">
  <ele>359.2</ele>
  <time>2026-09-01T20:01:08Z</time>
  <course>10.51</course>
  <speed>1.4405554484295287</speed>
  <fix>3d</fix>
</trkpt>
<trkpt lat="-27.2743598" lon="151.290066">
  <ele>358.81</ele>
  <time>2026-09-01T20:01:08Z</time>
  <course>0.84</course>
  <speed>1.45</speed>
  <fix>3d</fix>
</trkpt>
<trkpt lat="-27.2743572" lon="151.2900661">
  <ele>359.24</ele>
  <time>2026-09-01T20:01:08Z</time>
  <course>10.51</course>
  <speed>1.4405554484295287</speed>
  <fix>3d</fix>
</trkpt>
<trkpt lat="-27.2743563" lon="151.2900662">
  <ele>359.34</ele>
  <time>2026-09-01T20:01:08Z</time>
  <course>10.51</course>
  <speed>1.450551619212498</speed>
  <fix>3d</fix>
</trkpt>
<trkpt lat="-27.2743598" lon="151.290066">
  <ele>358.81</ele>
  <time>2026-09-01T20:01:08Z</time>
  <course>0.84</course>
  <speed>1.45</speed>
  <fix>3d</fix>
</trkpt>
<trkpt lat="-27.2743559" lon="151.2900662">
  <ele>359.38</ele>
  <time>2026-09-01T20:01:08Z</time>
  <course>10.51</course>
  <speed>1.450551619212498</speed>
  <fix>3d</fix>
</trkpt>
<trkpt lat="-27.274355" lon="151.2900662">
  <ele>359.49</ele>
  <time>2026-09-01T20:01:08Z</time>
  <course>10.51</course>
  <speed>1.4605478424207814</speed>
  <fix>3d</fix>
</trkpt>
<trkpt lat="-27.2743571" lon="151.290066">
  <ele>359.09</ele>
  <time>2026-09-01T20:01:08Z</time>
  <course>0.86</course>
  <speed>1.47</speed>
  <fix>3d</fix>
</trkpt>
<trkpt lat="-27.2743549" lon="151.2900662">
  <ele>359.49</ele>
  <time>2026-09-01T20:01:08Z</time>
  <course>10.51</course>
  <speed>1.4605478424207814</speed>
  <fix>3d</fix>
</trkpt>
<trkpt lat="-27.2743536" lon="151.2900662">
  <ele>359.63</ele>
  <time>2026-09-01T20:01:08Z</time>
  <course>10.51</course>
  <speed>1.4705441169852742</speed>
  <fix>3d</fix>
</trkpt>
<trkpt lat="-27.2743571" lon="151.290066">
  <ele>359.09</ele>
  <time>2026-09-01T20:01:08Z</time>
  <course>0.86</course>
  <speed>1.47</speed>
  <fix>3d</fix>
</trkpt>
<trkpt lat="-27.2743532" lon="151.2900662">
  <ele>359.67</ele>
  <time>2026-09-01T20:01:08Z</time>
  <course>10.51</course>
  <speed>1.4805404418657397</speed>
  <fix>3d</fix>
</trkpt>
<trkpt lat="-27.2743522" lon="151.2900662">
  <ele>359.78</ele>
  <time>2026-09-01T20:01:08Z</time>
  <course>10.51</course>
  <speed>1.4905368160498418</speed>
  <fix>3d</fix>
</trkpt>
<trkpt lat="-27.2743544" lon="151.2900661">
  <ele>359.38</ele>
  <time>2026-09-01T20:01:08Z</time>
  <course>0.89</course>
  <speed>1.5</speed>
  <fix>3d</fix>
</trkpt>
<trkpt lat="-27.2743519" lon="151.2900662">
  <ele>359.81</ele>
  <time>2026-09-01T20:01:08Z</time>
  <course>10.51</course>
  <speed>1.4905368160498418</speed>
  <fix>3d</fix>
</trkpt>
<trkpt lat="-27.2743509" lon="151.2900663">
  <ele>359.92</ele>
  <time>2026-09-01T20:01:08Z</time>
  <course>10.51</course>
  <speed>1.5005332385522154</speed>
  <fix>3d</fix>
</trkpt>
<trkpt lat="-27.2743544" lon="151.2900661">
  <ele>359.38</ele>
  <time>2026-09-01T20:01:08Z</time>
  <course>0.89</course>
  <speed>1.5</speed>
  <fix>3d</fix>
</trkpt>
<trkpt lat="-27.2743505" lon="151.2900663">
  <ele>359.96</ele>
  <time>2026-09-01T20:01:08Z</time>
  <course>10.51</course>
  <speed>1.5005332385522154</speed>
  <fix>3d</fix>
</trkpt>
<trkpt lat="-27.2743495" lon="151.2900663">
  <ele>360.06</ele>
  <time>2026-09-01T20:01:08Z</time>
  <course>10.51</course>
  <speed>1.5105297084135751</speed>
  <fix>3d</fix>
</trkpt>
<trkpt lat="-27.2743517" lon="151.2900661">
  <ele>359.66</ele>
  <time>2026-09-01T20:01:08Z</time>
  <course>0.94</course>
  <speed>1.52</speed>
  <fix>3d</fix>
</trkpt>
<trkpt lat="-27.274349" lon="151.2900663">
  <ele>360.1</ele>
  <time>2026-09-01T20:01:08Z</time>
  <course>10.51</course>
  <speed>1.520526224699857</speed>
  <fix>3d</fix>
</trkpt>
<trkpt lat="-27.2743481" lon="151.2900663">
  <ele>360.2</ele>
  <time>2026-09-01T20:01:08Z</time>
  <course>10.51</course>
  <speed>1.5308167754502824</speed>
  <fix>3d</fix>
</trkpt>
<trkpt lat="-27.2743517" lon="151.2900661">
  <ele>359.66</ele>
  <time>2026-09-01T20:01:08Z</time>
  <course>0.94</course>
  <speed>1.52</speed>
  <fix>3d</fix>
</trkpt>
<trkpt lat="-27.2743476" lon="151.2900663">
  <ele>360.25</ele>
  <time>2026-09-01T20:01:08Z</time>
  <course>10.51</course>
  <speed>1.5308167754502824</speed>
  <fix>3d</fix>
</trkpt>
<trkpt lat="-27.2743467" lon="151.2900663">
  <ele>360.35</ele>
  <time>2026-09-01T20:01:08Z</time>
  <course>10.51</course>
  <speed>1.540811474515945</speed>
  <fix>3d</fix>
</trkpt>
<trkpt lat="-27.274349" lon="151.2900661">
  <ele>359.95</ele>
  <time>2026-09-01T20:01:08Z</time>
  <course>1.02</course>
  <speed>1.55</speed>
  <fix>3d</fix>
</trkpt>
<trkpt lat="-27.2743462" lon="151.2900664">
  <ele>360.39</ele>
  <time>2026-09-01T20:01:08Z</time>
  <course>10.51</course>
  <speed>1.5508062419270823</speed>
  <fix>3d</fix>
</trkpt>
<trkpt lat="-27.2743452" lon="151.2900664">
  <ele>360.49</ele>
  <time>2026-09-01T20:01:08Z</time>
  <course>10.51</course>
  <speed>1.5508062419270823</speed>
  <fix>3d</fix>
</trkpt>
<trkpt lat="-27.274349" lon="151.2900661">
  <ele>359.95</ele>
  <time>2026-09-01T20:01:08Z</time>
  <course>1.02</course>
  <speed>1.55</speed>
  <fix>3d</fix>
</trkpt>
<trkpt lat="-27.2743449" lon="151.2900664">
  <ele>360.53</ele>
  <time>2026-09-01T20:01:08Z</time>
  <course>10.51</course>
  <speed>1.5608010763707205</speed>
  <fix>3d</fix>
</trkpt>
<trkpt lat="-27.2743438" lon="151.2900664">
  <ele>360.63</ele>
  <time>2026-09-01T20:01:08Z</time>
  <course>10.5</course>
  <speed>1.5707959765672945</speed>
  <fix>3d</fix>
</trkpt>
<trkpt lat="-27.2743461" lon="151.2900662">
  <ele>360.24</ele>
  <time>2026-09-01T20:01:08Z</time>
  <course>1.1</course>
  <speed>1.58</speed>
  <fix>3d</fix>
</trkpt>
<trkpt lat="-27.2743434" lon="151.2900664">
  <ele>360.67</ele>
  <time>2026-09-01T20:01:08Z</time>
  <course>10.5</course>
  <speed>1.5707959765672945</speed>
  <fix>3d</fix>
</trkpt>
<trkpt lat="-27.2743423" lon="151.2900664">
  <ele>360.78</ele>
  <time>2026-09-01T20:01:08Z</time>
  <course>10.5</course>
  <speed>1.5807909412695913</speed>
  <fix>3d</fix>
</trkpt>
<trkpt lat="-27.2743461" lon="151.2900662">
  <ele>360.24</ele>
  <time>2026-09-01T20:01:08Z</time>
  <course>1.1</course>
  <speed>1.58</speed>
  <fix>3d</fix>
</trkpt>
<trkpt lat="-27.274342" lon="151.2900664">
  <ele>360.82</ele>
  <time>2026-09-01T20:01:08Z</time>
  <course>10.49</course>
  <speed>1.5907859692617357</speed>
  <fix>3d</fix>
</trkpt>
<trkpt lat="-27.2743409" lon="151.2900665">
  <ele>360.92</ele>
  <time>2026-09-01T20:01:08Z</time>
  <course>10.49</course>
  <speed>1.6007810593582121</speed>
  <fix>3d</fix>
</trkpt>
<trkpt lat="-27.2743433" lon="151.2900663">
  <ele>360.53</ele>
  <time>2026-09-01T20:01:08Z</time>
  <course>1.17</course>
  <speed>1.6</speed>
  <fix>3d</fix>
</trkpt>
<trkpt lat="-27.2743405" lon="151.2900665">
  <ele>360.96</ele>
  <time>2026-09-01T20:01:08Z</time>
  <course>10.48</course>
  <speed>1.6007810593582121</speed>
  <fix>3d</fix>
</trkpt>
<trkpt lat="-27.2743394" lon="151.2900665">
  <ele>361.07</ele>
  <time>2026-09-01T20:01:08Z</time>
  <course>10.48</course>
  <speed>1.6107762104029226</speed>
  <fix>3d</fix>
</trkpt>
<trkpt lat="-27.2743433" lon="151.2900663">
  <ele>360.53</ele>
  <time>2026-09-01T20:01:08Z</time>
  <course>1.17</course>
  <speed>1.6</speed>
  <fix>3d</fix>
</trkpt>
<trkpt lat="-27.2743394" lon="151.2900665">
  <ele>361.07</ele>
  <time>2026-09-01T20:01:08Z</time>
  <course>10.48</course>
  <speed>1.6107762104029226</speed>
  <fix>3d</fix>
</trkpt>
<trkpt lat="-27.2743379" lon="151.2900665">
  <ele>361.21</ele>
  <time>2026-09-01T20:01:08Z</time>
  <course>10.48</course>
  <speed>1.62077142126828</speed>
  <fix>3d</fix>
</trkpt>
<trkpt lat="-27.2743404" lon="151.2900664">
  <ele>360.82</ele>
  <time>2026-09-01T20:01:08Z</time>
  <course>1.23</course>
  <speed>1.63</speed>
  <fix>3d</fix>
</trkpt>
<trkpt lat="-27.2743379" lon="151.2900665">
  <ele>361.22</ele>
  <time>2026-09-01T20:01:08Z</time>
  <course>10.48</course>
  <speed>1.62077142126828</speed>
  <fix>3d</fix>
</trkpt>
<trkpt lat="-27.2743364" lon="151.2900666">
  <ele>361.36</ele>
  <time>2026-09-01T20:01:08Z</time>
  <course>10.49</course>
  <speed>1.6407620180879372</speed>
  <fix>3d</fix>
</trkpt>
<trkpt lat="-27.2743404" lon="151.2900664">
  <ele>360.82</ele>
  <time>2026-09-01T20:01:08Z</time>
  <course>1.23</course>
  <speed>1.63</speed>
  <fix>3d</fix>
</trkpt>
<trkpt lat="-27.274336" lon="151.2900666">
  <ele>361.4</ele>
  <time>2026-09-01T20:01:08Z</time>
  <course>10.49</course>
  <speed>1.6407620180879372</speed>
  <fix>3d</fix>
</trkpt>
<trkpt lat="-27.2743349" lon="151.2900666">
  <ele>361.5</ele>
  <time>2026-09-01T20:01:08Z</time>
  <course>10.49</course>
  <speed>1.6507574019219178</speed>
  <fix>3d</fix>
</trkpt>
<trkpt lat="-27.2743374" lon="151.2900664">
  <ele>361.11</ele>
  <time>2026-09-01T20:01:08Z</time>
  <course>1.28</course>
  <speed>1.66</speed>
  <fix>3d</fix>
</trkpt>
<trkpt lat="-27.2743345" lon="151.2900666">
  <ele>361.54</ele>
  <time>2026-09-01T20:01:08Z</time>
  <course>10.49</course>
  <speed>1.6607528413343149</speed>
  <fix>3d</fix>
</trkpt>
<trkpt lat="-27.2743334" lon="151.2900667">
  <ele>361.65</ele>
  <time>2026-09-01T20:01:08Z</time>
  <course>10.49</course>
  <speed>1.6710774967068402</speed>
  <fix>3d</fix>
</trkpt>
<trkpt lat="-27.2743374" lon="151.2900664">
  <ele>361.11</ele>
  <time>2026-09-01T20:01:08Z</time>
  <course>1.28</course>
  <speed>1.66</speed>
  <fix>3d</fix>
</trkpt>
<trkpt lat="-27.274333" lon="151.2900667">
  <ele>361.68</ele>
  <time>2026-09-01T20:01:08Z</time>
  <course>10.49</course>
  <speed>1.6710774967068402</speed>
  <fix>3d</fix>
</trkpt>
<trkpt lat="-27.2743318" lon="151.2900667">
  <ele>361.79</ele>
  <time>2026-09-01T20:01:08Z</time>
  <course>10.49</course>
  <speed>1.681071087134628</speed>
  <fix>3d</fix>
</trkpt>
<trkpt lat="-27.2743344" lon="151.2900665">
  <ele>361.39</ele>
  <time>2026-09-01T20:01:08Z</time>
  <course>1.34</course>
  <speed>1.69</speed>
  <fix>3d</fix>
</trkpt>
<trkpt lat="-27.2743313" lon="151.2900667">
  <ele>361.84</ele>
  <time>2026-09-01T20:01:08Z</time>
  <course>10.49</course>
  <speed>1.6910647533432894</speed>
  <fix>3d</fix>
</trkpt>
<trkpt lat="-27.2743303" lon="151.2900667">
  <ele>361.93</ele>
  <time>2026-09-01T20:01:08Z</time>
  <course>10.5</course>
  <speed>1.7010584939971936</speed>
  <fix>3d</fix>
</trkpt>
<trkpt lat="-27.2743344" lon="151.2900665">
  <ele>361.39</ele>
  <time>2026-09-01T20:01:08Z</time>
  <course>1.34</course>
  <speed>1.69</speed>
  <fix>3d</fix>
</trkpt>
<trkpt lat="-27.2743298" lon="151.2900668">
  <ele>361.98</ele>
  <time>2026-09-01T20:01:08Z</time>
  <course>10.5</course>
  <speed>1.7010584939971936</speed>
  <fix>3d</fix>
</trkpt>
<trkpt lat="-27.2743287" lon="151.2900668">
  <ele>362.08</ele>
  <time>2026-09-01T20:01:08Z</time>
  <course>10.5</course>
  <speed>1.7110523077919038</speed>
  <fix>3d</fix>
</trkpt>
<trkpt lat="-27.2743313" lon="151.2900666">
  <ele>361.68</ele>
  <time>2026-09-01T20:01:08Z</time>
  <course>1.4</course>
  <speed>1.72</speed>
  <fix>3d</fix>
</trkpt>
<trkpt lat="-27.2743282" lon="151.2900668">
  <ele>362.12</ele>
  <time>2026-09-01T20:01:08Z</time>
  <course>10.5</course>
  <speed>1.7210461934532728</speed>
  <fix>3d</fix>
</trkpt>
<trkpt lat="-27.2743272" lon="151.2900668">
  <ele>362.22</ele>
  <time>2026-09-01T20:01:08Z</time>
  <course>10.5</course>
  <speed>1.731040149736568</speed>
  <fix>3d</fix>
</trkpt>
<trkpt lat="-27.2743313" lon="151.2900666">
  <ele>361.68</ele>
  <time>2026-09-01T20:01:08Z</time>
  <course>1.4</course>
  <speed>1.72</speed>
  <fix>3d</fix>
</trkpt>
<trkpt lat="-27.2743267" lon="151.2900669">
  <ele>362.26</ele>
  <time>2026-09-01T20:01:08Z</time>
  <course>10.5</course>
  <speed>1.731040149736568</speed>
  <fix>3d</fix>
</trkpt>
<trkpt lat="-27.2743256" lon="151.2900669">
  <ele>362.36</ele>
  <time>2026-09-01T20:01:08Z</time>
  <course>10.5</course>
  <speed>1.741034175425629</speed>
  <fix>3d</fix>
</trkpt>
<trkpt lat="-27.2743282" lon="151.2900667">
  <ele>361.97</ele>
  <time>2026-09-01T20:01:08Z</time>
  <course>1.46</course>
  <speed>1.75</speed>
  <fix>3d</fix>
</trkpt>
<trkpt lat="-27.2743251" lon="151.2900669">
  <ele>362.4</ele>
  <time>2026-09-01T20:01:08Z</time>
  <course>10.5</course>
  <speed>1.7510282693320516</speed>
  <fix>3d</fix>
</trkpt>
<trkpt lat="-27.274324" lon="151.2900669">
  <ele>362.5</ele>
  <time>2026-09-01T20:01:08Z</time>
  <course>10.5</course>
  <speed>1.7610224302944013</speed>
  <fix>3d</fix>
</trkpt>
<trkpt lat="-27.2743282" lon="151.2900667">
  <ele>361.97</ele>
  <time>2026-09-01T20:01:08Z</time>
  <course>1.46</course>
  <speed>1.75</speed>
  <fix>3d</fix>
</trkpt>
<trkpt lat="-27.2743239" lon="151.2900669">
  <ele>362.51</ele>
  <time>2026-09-01T20:01:08Z</time>
  <course>10.5</course>
  <speed>1.7610224302944013</speed>
  <fix>3d</fix>
</trkpt>
<trkpt lat="-27.2743223" lon="151.290067">
  <ele>362.64</ele>
  <time>2026-09-01T20:01:08Z</time>
  <course>10.5</course>
  <speed>1.7713836399831628</speed>
  <fix>3d</fix>
</trkpt>
<trkpt lat="-27.274325" lon="151.2900668">
  <ele>362.26</ele>
  <time>2026-09-01T20:01:08Z</time>
  <course>1.54</course>
  <speed>1.78</speed>
  <fix>3d</fix>
</trkpt>
<trkpt lat="-27.2743223" lon="151.290067">
  <ele>362.65</ele>
  <time>2026-09-01T20:01:08Z</time>
  <course>10.5</course>
  <speed>1.7713836399831628</speed>
  <fix>3d</fix>
</trkpt>
<trkpt lat="-27.2743207" lon="151.290067">
  <ele>362.79</ele>
  <time>2026-09-01T20:01:08Z</time>
  <course>10.5</course>
  <speed>1.7913681921927718</speed>
  <fix>3d</fix>
</trkpt>
<trkpt lat="-27.274325" lon="151.2900668">
  <ele>362.26</ele>
  <time>2026-09-01T20:01:08Z</time>
  <course>1.54</course>
  <speed>1.78</speed>
  <fix>3d</fix>
</trkpt>
<trkpt lat="-27.2743203" lon="151.2900671">
  <ele>362.82</ele>
  <time>2026-09-01T20:01:08Z</time>
  <course>10.5</course>
  <speed>1.7913681921927718</speed>
  <fix>3d</fix>
</trkpt>
<trkpt lat="-27.274319" lon="151.2900671">
  <ele>362.93</ele>
  <time>2026-09-01T20:01:08Z</time>
  <course>10.5</course>
  <speed>1.8013605968822566</speed>
  <fix>3d</fix>
</trkpt>
<trkpt lat="-27.2743218" lon="151.2900669">
  <ele>362.54</ele>
  <time>2026-09-01T20:01:08Z</time>
  <course>1.62</course>
  <speed>1.81</speed>
  <fix>3d</fix>
</trkpt>
<trkpt lat="-27.2743186" lon="151.2900671">
  <ele>362.97</ele>
  <time>2026-09-01T20:01:08Z</time>
  <course>10.5</course>
  <speed>1.8113530854032849</speed>
  <fix>3d</fix>
</trkpt>
<trkpt lat="-27.2743174" lon="151.2900672">
  <ele>363.07</ele>
  <time>2026-09-01T20:01:08Z</time>
  <course>10.5</course>
  <speed>1.8213456563760764</speed>
  <fix>3d</fix>
</trkpt>
<trkpt lat="-27.2743218" lon="151.2900669">
  <ele>362.54</ele>
  <time>2026-09-01T20:01:08Z</time>
  <course>1.62</course>
  <speed>1.81</speed>
  <fix>3d</fix>
</trkpt>
<trkpt lat="-27.2743169" lon="151.2900672">
  <ele>363.11</ele>
  <time>2026-09-01T20:01:08Z</time>
  <course>10.5</course>
  <speed>1.8213456563760764</speed>
  <fix>3d</fix>
</trkpt>
<trkpt lat="-27.2743157" lon="151.2900672">
  <ele>363.21</ele>
  <time>2026-09-01T20:01:08Z</time>
  <course>10.5</course>
  <speed>1.8413310403075271</speed>
  <fix>3d</fix>
</trkpt>
<trkpt lat="-27.2743185" lon="151.290067">
  <ele>362.83</ele>
  <time>2026-09-01T20:01:08Z</time>
  <course>1.71</course>
  <speed>1.84</speed>
  <fix>3d</fix>
</trkpt>
<trkpt lat="-27.274314" lon="151.2900673">
  <ele>363.35</ele>
  <time>2026-09-01T20:01:08Z</time>
  <course>10.5</course>
  <speed>1.8517289218457436</speed>
  <fix>3d</fix>
</trkpt>
<trkpt lat="-27.2743185" lon="151.290067">
  <ele>362.83</ele>
  <time>2026-09-01T20:01:08Z</time>
  <course>1.71</course>
  <speed>1.84</speed>
  <fix>3d</fix>
</trkpt>
<trkpt lat="-27.2743123" lon="151.2900673">
  <ele>363.49</ele>
  <time>2026-09-01T20:01:08Z</time>
  <course>10.49</course>
  <speed>1.8717104476921635</speed>
  <fix>3d</fix>
</trkpt>
<trkpt lat="-27.2743151" lon="151.2900671">
  <ele>363.11</ele>
  <time>2026-09-01T20:01:08Z</time>
  <course>1.8</course>
  <speed>1.87</speed>
  <fix>3d</fix>
</trkpt>
<trkpt lat="-27.2743106" lon="151.2900674">
  <ele>363.63</ele>
  <time>2026-09-01T20:01:08Z</time>
  <course>10.49</course>
  <speed>1.881701357814252</speed>
  <fix>3d</fix>
</trkpt>
<trkpt lat="-27.2743151" lon="151.2900671">
  <ele>363.11</ele>
  <time>2026-09-01T20:01:08Z</time>
  <course>1.8</course>
  <speed>1.87</speed>
  <fix>3d</fix>
</trkpt>
<trkpt lat="-27.2743089" lon="151.2900675">
  <ele>363.77</ele>
  <time>2026-09-01T20:01:08Z</time>
  <course>10.49</course>
  <speed>1.9016834647227703</speed>
  <fix>3d</fix>
</trkpt>
<trkpt lat="-27.2743118" lon="151.2900672">
  <ele>363.4</ele>
  <time>2026-09-01T20:01:08Z</time>
  <course>1.9</course>
  <speed>1.9</speed>
  <fix>3d</fix>
</trkpt>
<trkpt lat="-27.2743071" lon="151.2900675">
  <ele>363.89</ele>
  <time>2026-09-01T20:01:08Z</time>
  <course>10.5</course>
  <speed>1.911674658512792</speed>
  <fix>3d</fix>
</trkpt>
<trkpt lat="-27.2743118" lon="151.2900672">
  <ele>363.4</ele>
  <time>2026-09-01T20:01:08Z</time>
  <course>1.9</course>
  <speed>1.9</speed>
  <fix>3d</fix>
</trkpt>
<trkpt lat="-27.2743053" lon="151.2900676">
  <ele>364.0</ele>
  <time>2026-09-01T20:01:08Z</time>
  <course>10.5</course>
  <speed>1.931657319505714</speed>
  <fix>3d</fix>
</trkpt>
<trkpt lat="-27.2743083" lon="151.2900674">
  <ele>363.66</ele>
  <time>2026-09-01T20:01:08Z</time>
  <course>1.99</course>
  <speed>1.93</speed>
  <fix>3d</fix>
</trkpt>
<trkpt lat="-27.2743036" lon="151.2900677">
  <ele>364.09</ele>
  <time>2026-09-01T20:01:08Z</time>
  <course>10.51</course>
  <speed>1.942086506827129</speed>
  <fix>3d</fix>
</trkpt>
<trkpt lat="-27.2743083" lon="151.2900674">
  <ele>363.66</ele>
  <time>2026-09-01T20:01:08Z</time>
  <course>1.99</course>
  <speed>1.93</speed>
  <fix>3d</fix>
</trkpt>
<trkpt lat="-27.2743018" lon="151.2900677">
  <ele>364.16</ele>
  <time>2026-09-01T20:01:08Z</time>
  <course>10.52</course>
  <speed>1.962065238466856</speed>
  <fix>3d</fix>
</trkpt>
<trkpt lat="-27.2743048" lon="151.2900675">
  <ele>363.9</ele>
  <time>2026-09-01T20:01:08Z</time>
  <course>2.08</course>
  <speed>1.96</speed>
  <fix>3d</fix>
</trkpt>
<trkpt lat="-27.2743" lon="151.2900678">
  <ele>364.21</ele>
  <time>2026-09-01T20:01:08Z</time>
  <course>10.53</course>
  <speed>1.962065238466856</speed>
  <fix>3d</fix>
</trkpt>
<trkpt lat="-27.2743048" lon="151.2900675">
  <ele>363.9</ele>
  <time>2026-09-01T20:01:08Z</time>
  <course>2.08</course>
  <speed>1.96</speed>
  <fix>3d</fix>
</trkpt>
<trkpt lat="-27.2742982" lon="151.2900679">
  <ele>364.25</ele>
  <time>2026-09-01T20:01:08Z</time>
  <course>10.55</course>
  <speed>1.9720547659738055</speed>
  <fix>3d</fix>
</trkpt>
<trkpt lat="-27.2743012" lon="151.2900677">
  <ele>364.06</ele>
  <time>2026-09-01T20:01:08Z</time>
  <course>2.14</course>
  <speed>1.99</speed>
  <fix>3d</fix>
</trkpt>
<trkpt lat="-27.2742964" lon="151.290068">
  <ele>364.27</ele>
  <time>2026-09-01T20:01:08Z</time>
  <course>10.56</course>
  <speed>1.971623696347759</speed>
  <fix>3d</fix>
</trkpt>
<trkpt lat="-27.2743012" lon="151.2900677">
  <ele>364.06</ele>
  <time>2026-09-01T20:01:08Z</time>
  <course>2.14</course>
  <speed>1.99</speed>
  <fix>3d</fix>
</trkpt>
<trkpt lat="-27.2742946" lon="151.290068">
  <ele>364.28</ele>
  <time>2026-09-01T20:01:08Z</time>
  <course>10.58</course>
  <speed>1.971623696347759</speed>
  <fix>3d</fix>
</trkpt>
<trkpt lat="-27.2742977" lon="151.2900678">
  <ele>364.15</ele>
  <time>2026-09-01T20:01:08Z</time>
  <course>2.17</course>
  <speed>2.0</speed>
  <fix>3d</fix>
</trkpt>
<trkpt lat="-27.2742928" lon="151.2900681">
  <ele>364.28</ele>
  <time>2026-09-01T20:01:08Z</time>
  <course>10.59</course>
  <speed>1.971623696347759</speed>
  <fix>3d</fix>
</trkpt>
<trkpt lat="-27.2742977" lon="151.2900678">
  <ele>364.15</ele>
  <time>2026-09-01T20:01:08Z</time>
  <course>2.17</course>
  <speed>2.0</speed>
  <fix>3d</fix>
</trkpt>
<trkpt lat="-27.274291" lon="151.2900682">
  <ele>364.27</ele>
  <time>2026-09-01T20:01:08Z</time>
  <course>10.6</course>
  <speed>1.971623696347759</speed>
  <fix>3d</fix>
</trkpt>
<trkpt lat="-27.2742941" lon="151.290068">
  <ele>364.18</ele>
  <time>2026-09-01T20:01:08Z</time>
  <course>2.17</course>
  <speed>2.0</speed>
  <fix>3d</fix>
</trkpt>
<trkpt lat="-27.2742892" lon="151.2900683">
  <ele>364.25</ele>
  <time>2026-09-01T20:01:08Z</time>
  <course>10.6</course>
  <speed>1.9816155025635018</speed>
  <fix>3d</fix>
</trkpt>
<trkpt lat="-27.2742941" lon="151.290068">
  <ele>364.18</ele>
  <time>2026-09-01T20:01:08Z</time>
  <course>2.17</course>
  <speed>2.0</speed>
  <fix>3d</fix>
</trkpt>
<trkpt lat="-27.2742874" lon="151.2900683">
  <ele>364.24</ele>
  <time>2026-09-01T20:01:08Z</time>
  <course>10.61</course>
  <speed>1.9816155025635018</speed>
  <fix>3d</fix>
</trkpt>
<trkpt lat="-27.2742905" lon="151.2900681">
  <ele>364.18</ele>
  <time>2026-09-01T20:01:08Z</time>
  <course>2.16</course>
  <speed>2.0</speed>
  <fix>3d</fix>
</trkpt>
<trkpt lat="-27.2742856" lon="151.2900684">
  <ele>364.22</ele>
  <time>2026-09-01T20:01:08Z</time>
  <course>10.61</course>
  <speed>1.9816155025635018</speed>
  <fix>3d</fix>
</trkpt>
<trkpt lat="-27.2742905" lon="151.2900681">
  <ele>364.18</ele>
  <time>2026-09-01T20:01:08Z</time>
  <course>2.16</course>
  <speed>2.0</speed>
  <fix>3d</fix>
</trkpt>
<trkpt lat="-27.2742838" lon="151.2900685">
  <ele>364.21</ele>
  <time>2026-09-01T20:01:08Z</time>
  <course>10.61</course>
  <speed>1.9916073910286636</speed>
  <fix>3d</fix>
</trkpt>
<trkpt lat="-27.2742869" lon="151.2900682">
  <ele>364.15</ele>
  <time>2026-09-01T20:01:08Z</time>
  <course>2.15</course>
  <speed>2.01</speed>
  <fix>3d</fix>
</trkpt>
<trkpt lat="-27.274282" lon="151.2900685">
  <ele>364.19</ele>
  <time>2026-09-01T20:01:08Z</time>
  <course>10.61</course>
  <speed>1.9916073910286636</speed>
  <fix>3d</fix>
</trkpt>
<trkpt lat="-27.2742869" lon="151.2900682">
  <ele>364.15</ele>
  <time>2026-09-01T20:01:08Z</time>
  <course>2.15</course>
  <speed>2.01</speed>
  <fix>3d</fix>
</trkpt>
<trkpt lat="-27.2742802" lon="151.2900686">
  <ele>364.18</ele>
  <time>2026-09-01T20:01:08Z</time>
  <course>10.61</course>
  <speed>1.9916073910286636</speed>
  <fix>3d</fix>
</trkpt>
<trkpt lat="-27.2742832" lon="151.2900684">
  <ele>364.12</ele>
  <time>2026-09-01T20:01:08Z</time>
  <course>2.14</course>
  <speed>2.02</speed>
  <fix>3d</fix>
</trkpt>
<trkpt lat="-27.2742783" lon="151.2900687">
  <ele>364.17</ele>
  <time>2026-09-01T20:01:08Z</time>
  <course>10.61</course>
  <speed>1.9916073910286636</speed>
  <fix>3d</fix>
</trkpt>
<trkpt lat="-27.2742832" lon="151.2900684">
  <ele>364.12</ele>
  <time>2026-09-01T20:01:08Z</time>
  <course>2.14</course>
  <speed>2.02</speed>
  <fix>3d</fix>
</trkpt>
<trkpt lat="-27.2742765" lon="151.2900687">
  <ele>364.16</ele>
  <time>2026-09-01T20:01:08Z</time>
  <course>10.61</course>
  <speed>1.9916073910286636</speed>
  <fix>3d</fix>
</trkpt>
<trkpt lat="-27.2742796" lon="151.2900685">
  <ele>364.09</ele>
  <time>2026-09-01T20:01:08Z</time>
  <course>2.12</course>
  <speed>2.02</speed>
  <fix>3d</fix>
</trkpt>
<trkpt lat="-27.2742747" lon="151.2900688">
  <ele>364.16</ele>
  <time>2026-09-01T20:01:08Z</time>
  <course>10.61</course>
  <speed>1.9912307751739877</speed>
  <fix>3d</fix>
</trkpt>
<trkpt lat="-27.2742796" lon="151.2900685">
  <ele>364.09</ele>
  <time>2026-09-01T20:01:08Z</time>
  <course>2.12</course>
  <speed>2.02</speed>
  <fix>3d</fix>
</trkpt>
<trkpt lat="-27.2742728" lon="151.2900689">
  <ele>364.15</ele>
  <time>2026-09-01T20:01:08Z</time>
  <course>10.61</course>
  <speed>2.001224625073357</speed>
  <fix>3d</fix>
</trkpt>
<trkpt lat="-27.274276" lon="151.2900687">
  <ele>364.08</ele>
  <time>2026-09-01T20:01:08Z</time>
  <course>2.1</course>
  <speed>2.02</speed>
  <fix>3d</fix>
</trkpt>
<trkpt lat="-27.274271" lon="151.2900689">
  <ele>364.15</ele>
  <time>2026-09-01T20:01:08Z</time>
  <course>10.61</course>
  <speed>2.001224625073357</speed>
  <fix>3d</fix>
</trkpt>
<trkpt lat="-27.274276" lon="151.2900687">
  <ele>364.08</ele>
  <time>2026-09-01T20:01:08Z</time>
  <course>2.1</course>
  <speed>2.02</speed>
  <fix>3d</fix>
</trkpt>
<trkpt lat="-27.2742692" lon="151.290069">
  <ele>364.15</ele>
  <time>2026-09-01T20:01:08Z</time>
  <course>10.61</course>
  <speed>2.001224625073357</speed>
  <fix>3d</fix>
</trkpt>
<trkpt lat="-27.2742723" lon="151.2900689">
  <ele>364.07</ele>
  <time>2026-09-01T20:01:08Z</time>
  <course>2.08</course>
  <speed>2.03</speed>
  <fix>3d</fix>
</trkpt>
<trkpt lat="-27.2742674" lon="151.2900691">
  <ele>364.15</ele>
  <time>2026-09-01T20:01:08Z</time>
  <course>10.61</course>
  <speed>2.001224625073357</speed>
  <fix>3d</fix>
</trkpt>
<trkpt lat="-27.2742723" lon="151.2900689">
  <ele>364.07</ele>
  <time>2026-09-01T20:01:08Z</time>
  <course>2.08</course>
  <speed>2.03</speed>
  <fix>3d</fix>
</trkpt>
<trkpt lat="-27.2742655" lon="151.2900692">
  <ele>364.15</ele>
  <time>2026-09-01T20:01:08Z</time>
  <course>10.61</course>
  <speed>2.001224625073357</speed>
  <fix>3d</fix>
</trkpt>
<trkpt lat="-27.2742686" lon="151.290069">
  <ele>364.07</ele>
  <time>2026-09-01T20:01:08Z</time>
  <course>2.07</course>
  <speed>2.03</speed>
  <fix>3d</fix>
</trkpt>
<trkpt lat="-27.2742637" lon="151.2900692">
  <ele>364.15</ele>
  <time>2026-09-01T20:01:08Z</time>
  <course>10.62</course>
  <speed>2.001224625073357</speed>
  <fix>3d</fix>
</trkpt>
<trkpt lat="-27.2742686" lon="151.290069">
  <ele>364.07</ele>
  <time>2026-09-01T20:01:08Z</time>
  <course>2.07</course>
  <speed>2.03</speed>
  <fix>3d</fix>
</trkpt>
<trkpt lat="-27.2742619" lon="151.2900693">
  <ele>364.16</ele>
  <time>2026-09-01T20:01:09Z</time>
  <course>10.62</course>
  <speed>2.001224625073357</speed>
  <fix>3d</fix>
</trkpt>
<trkpt lat="-27.274265" lon="151.2900692">
  <ele>364.08</ele>
  <time>2026-09-01T20:01:09Z</time>
  <course>2.06</course>
  <speed>2.03</speed>
  <fix>3d</fix>
</trkpt>
<trkpt lat="-27.2742601" lon="151.2900694">
  <ele>364.16</ele>
  <time>2026-09-01T20:01:09Z</time>
  <course>10.62</course>
  <speed>2.001224625073357</speed>
  <fix>3d</fix>
</trkpt>
<trkpt lat="-27.274265" lon="151.2900692">
  <ele>364.08</ele>
  <time>2026-09-01T20:01:09Z</time>
  <course>2.06</course>
  <speed>2.03</speed>
  <fix>3d</fix>
</trkpt>
<trkpt lat="-27.2742582" lon="151.2900694">
  <ele>364.17</ele>
  <time>2026-09-01T20:01:09Z</time>
  <course>10.62</course>
  <speed>2.001224625073357</speed>
  <fix>3d</fix>
</trkpt>
<trkpt lat="-27.2742613" lon="151.2900693">
  <ele>364.09</ele>
  <time>2026-09-01T20:01:09Z</time>
  <course>2.05</course>
  <speed>2.03</speed>
  <fix>3d</fix>
</trkpt>
<trkpt lat="-27.2742564" lon="151.2900695">
  <ele>364.17</ele>
  <time>2026-09-01T20:01:09Z</time>
  <course>10.62</course>
  <speed>2.001224625073357</speed>
  <fix>3d</fix>
</trkpt>
<trkpt lat="-27.2742613" lon="151.2900693">
  <ele>364.09</ele>
  <time>2026-09-01T20:01:09Z</time>
  <course>2.05</course>
  <speed>2.03</speed>
  <fix>3d</fix>
</trkpt>
<trkpt lat="-27.2742546" lon="151.2900696">
  <ele>364.17</ele>
  <time>2026-09-01T20:01:09Z</time>
  <course>10.62</course>
  <speed>2.001224625073357</speed>
  <fix>3d</fix>
</trkpt>
<trkpt lat="-27.2742577" lon="151.2900694">
  <ele>364.1</ele>
  <time>2026-09-01T20:01:09Z</time>
  <course>2.05</course>
  <speed>2.03</speed>
  <fix>3d</fix>
</trkpt>
<trkpt lat="-27.2742528" lon="151.2900696">
  <ele>364.17</ele>
  <time>2026-09-01T20:01:09Z</time>
  <course>10.62</course>
  <speed>2.001224625073357</speed>
  <fix>3d</fix>
</trkpt>
<trkpt lat="-27.2742577" lon="151.2900694">
  <ele>364.1</ele>
  <time>2026-09-01T20:01:09Z</time>
  <course>2.05</course>
  <speed>2.03</speed>
  <fix>3d</fix>
</trkpt>
<trkpt lat="-27.2742509" lon="151.2900697">
  <ele>364.15</ele>
  <time>2026-09-01T20:01:09Z</time>
  <course>10.61</course>
  <speed>2.001224625073357</speed>
  <fix>3d</fix>
</trkpt>
<trkpt lat="-27.274254" lon="151.2900696">
  <ele>364.11</ele>
  <time>2026-09-01T20:01:09Z</time>
  <course>2.05</course>
  <speed>2.03</speed>
  <fix>3d</fix>
</trkpt>
<trkpt lat="-27.2742491" lon="151.2900698">
  <ele>364.11</ele>
  <time>2026-09-01T20:01:09Z</time>
  <course>10.6</course>
  <speed>2.0112185361118766</speed>
  <fix>3d</fix>
</trkpt>
<trkpt lat="-27.274254" lon="151.2900696">
  <ele>364.11</ele>
  <time>2026-09-01T20:01:09Z</time>
  <course>2.05</course>
  <speed>2.03</speed>
  <fix>3d</fix>
</trkpt>
<trkpt lat="-27.2742472" lon="151.2900698">
  <ele>364.08</ele>
  <time>2026-09-01T20:01:09Z</time>
  <course>10.59</course>
  <speed>2.0112185361118766</speed>
  <fix>3d</fix>
</trkpt>
<trkpt lat="-27.2742504" lon="151.2900698">
  <ele>364.09</ele>
  <time>2026-09-01T20:01:09Z</time>
  <course>2.06</course>
  <speed>2.03</speed>
  <fix>3d</fix>
</trkpt>
<trkpt lat="-27.2742454" lon="151.2900699">
  <ele>364.04</ele>
  <time>2026-09-01T20:01:09Z</time>
  <course>10.59</course>
  <speed>2.0212125073826352</speed>
  <fix>3d</fix>
</trkpt>
<trkpt lat="-27.2742504" lon="151.2900698">
  <ele>364.09</ele>
  <time>2026-09-01T20:01:09Z</time>
  <course>2.06</course>
  <speed>2.03</speed>
  <fix>3d</fix>
</trkpt>
<trkpt lat="-27.2742436" lon="151.29007">
  <ele>364.0</ele>
  <time>2026-09-01T20:01:09Z</time>
  <course>10.59</course>
  <speed>2.0212125073826352</speed>
  <fix>3d</fix>
</trkpt>
<trkpt lat="-27.2742467" lon="151.2900699">
  <ele>364.03</ele>
  <time>2026-09-01T20:01:09Z</time>
  <course>2.08</course>
  <speed>2.04</speed>
  <fix>3d</fix>
</trkpt>
<trkpt lat="-27.2742417" lon="151.2900701">
  <ele>363.97</ele>
  <time>2026-09-01T20:01:09Z</time>
  <course>10.6</course>
  <speed>2.031206537996567</speed>
  <fix>3d</fix>
</trkpt>
<trkpt lat="-27.2742467" lon="151.2900699">
  <ele>364.03</ele>
  <time>2026-09-01T20:01:09Z</time>
  <course>2.08</course>
  <speed>2.04</speed>
  <fix>3d</fix>
</trkpt>
<trkpt lat="-27.2742399" lon="151.2900701">
  <ele>363.95</ele>
  <time>2026-09-01T20:01:09Z</time>
  <course>10.61</course>
  <speed>2.031206537996567</speed>
  <fix>3d</fix>
</trkpt>
<trkpt lat="-27.274243" lon="151.29007">
  <ele>363.97</ele>
  <time>2026-09-01T20:01:09Z</time>
  <course>2.09</course>
  <speed>2.05</speed>
  <fix>3d</fix>
</trkpt>
<trkpt lat="-27.274238" lon="151.2900702">
  <ele>363.93</ele>
  <time>2026-09-01T20:01:09Z</time>
  <course>10.63</course>
  <speed>2.031206537996567</speed>
  <fix>3d</fix>
</trkpt>
<trkpt lat="-27.274243" lon="151.29007">
  <ele>363.97</ele>
  <time>2026-09-01T20:01:09Z</time>
  <course>2.09</course>
  <speed>2.05</speed>
  <fix>3d</fix>
</trkpt>
<trkpt lat="-27.2742362" lon="151.2900703">
  <ele>363.93</ele>
  <time>2026-09-01T20:01:09Z</time>
  <course>10.65</course>
  <speed>2.031206537996567</speed>
  <fix>3d</fix>
</trkpt>
<trkpt lat="-27.2742393" lon="151.2900702">
  <ele>363.92</ele>
  <time>2026-09-01T20:01:09Z</time>
  <course>2.07</course>
  <speed>2.05</speed>
  <fix>3d</fix>
</trkpt>
<trkpt lat="-27.2742343" lon="151.2900704">
  <ele>363.92</ele>
  <time>2026-09-01T20:01:09Z</time>
  <course>10.66</course>
  <speed>2.031206537996567</speed>
  <fix>3d</fix>
</trkpt>
<trkpt lat="-27.2742393" lon="151.2900702">
  <ele>363.92</ele>
  <time>2026-09-01T20:01:09Z</time>
  <course>2.07</course>
  <speed>2.05</speed>
  <fix>3d</fix>
</trkpt>
<trkpt lat="-27.2742324" lon="151.2900704">
  <ele>363.93</ele>
  <time>2026-09-01T20:01:09Z</time>
  <course>10.66</course>
  <speed>2.031206537996567</speed>
  <fix>3d</fix>
</trkpt>
<trkpt lat="-27.2742356" lon="151.2900704">
  <ele>363.9</ele>
  <time>2026-09-01T20:01:09Z</time>
  <course>2.05</course>
  <speed>2.06</speed>
  <fix>3d</fix>
</trkpt>
<trkpt lat="-27.2742306" lon="151.2900705">
  <ele>363.93</ele>
  <time>2026-09-01T20:01:09Z</time>
  <course>10.66</course>
  <speed>2.031206537996567</speed>
  <fix>3d</fix>
</trkpt>
<trkpt lat="-27.2742356" lon="151.2900704">
  <ele>363.9</ele>
  <time>2026-09-01T20:01:09Z</time>
  <course>2.05</course>
  <speed>2.06</speed>
  <fix>3d</fix>
</trkpt>
<trkpt lat="-27.2742287" lon="151.2900706">
  <ele>363.95</ele>
  <time>2026-09-01T20:01:09Z</time>
  <course>10.65</course>
  <speed>2.031206537996567</speed>
  <fix>3d</fix>
</trkpt>
<trkpt lat="-27.2742319" lon="151.2900705">
  <ele>363.9</ele>
  <time>2026-09-01T20:01:09Z</time>
  <course>2.02</course>
  <speed>2.06</speed>
  <fix>3d</fix>
</trkpt>
<trkpt lat="-27.2742269" lon="151.2900707">
  <ele>363.96</ele>
  <time>2026-09-01T20:01:09Z</time>
  <course>10.65</course>
  <speed>2.031206537996567</speed>
  <fix>3d</fix>
</trkpt>
<trkpt lat="-27.2742319" lon="151.2900705">
  <ele>363.9</ele>
  <time>2026-09-01T20:01:09Z</time>
  <course>2.02</course>
  <speed>2.06</speed>
  <fix>3d</fix>
</trkpt>
<trkpt lat="-27.274225" lon="151.2900707">
  <ele>363.98</ele>
  <time>2026-09-01T20:01:09Z</time>
  <course>10.64</course>
  <speed>2.031206537996567</speed>
  <fix>3d</fix>
</trkpt>
<trkpt lat="-27.2742282" lon="151.2900707">
  <ele>363.92</ele>
  <time>2026-09-01T20:01:09Z</time>
  <course>1.99</course>
  <speed>2.06</speed>
  <fix>3d</fix>
</trkpt>
<trkpt lat="-27.2742232" lon="151.2900708">
  <ele>363.99</ele>
  <time>2026-09-01T20:01:09Z</time>
  <course>10.63</course>
  <speed>2.031206537996567</speed>
  <fix>3d</fix>
</trkpt>
<trkpt lat="-27.2742282" lon="151.2900707">
  <ele>363.92</ele>
  <time>2026-09-01T20:01:09Z</time>
  <course>1.99</course>
  <speed>2.06</speed>
  <fix>3d</fix>
</trkpt>
<trkpt lat="-27.2742213" lon="151.2900709">
  <ele>364.02</ele>
  <time>2026-09-01T20:01:09Z</time>
  <course>10.63</course>
  <speed>2.031206537996567</speed>
  <fix>3d</fix>
</trkpt>
<trkpt lat="-27.2742245" lon="151.2900708">
  <ele>363.96</ele>
  <time>2026-09-01T20:01:09Z</time>
  <course>1.98</course>
  <speed>2.06</speed>
  <fix>3d</fix>
</trkpt>
<trkpt lat="-27.2742195" lon="151.290071">
  <ele>364.04</ele>
  <time>2026-09-01T20:01:09Z</time>
  <course>10.63</course>
  <speed>2.031206537996567</speed>
  <fix>3d</fix>
</trkpt>
<trkpt lat="-27.2742245" lon="151.2900708">
  <ele>363.96</ele>
  <time>2026-09-01T20:01:09Z</time>
  <course>1.98</course>
  <speed>2.06</speed>
  <fix>3d</fix>
</trkpt>
<trkpt lat="-27.2742176" lon="151.290071">
  <ele>364.06</ele>
  <time>2026-09-01T20:01:09Z</time>
  <course>10.62</course>
  <speed>2.031206537996567</speed>
  <fix>3d</fix>
</trkpt>
<trkpt lat="-27.2742208" lon="151.290071">
  <ele>364.0</ele>
  <time>2026-09-01T20:01:09Z</time>
  <course>1.96</course>
  <speed>2.06</speed>
  <fix>3d</fix>
</trkpt>
<trkpt lat="-27.2742157" lon="151.2900711">
  <ele>364.08</ele>
  <time>2026-09-01T20:01:09Z</time>
  <course>10.62</course>
  <speed>2.031206537996567</speed>
  <fix>3d</fix>
</trkpt>
<trkpt lat="-27.2742208" lon="151.290071">
  <ele>364.0</ele>
  <time>2026-09-01T20:01:09Z</time>
  <course>1.96</course>
  <speed>2.06</speed>
  <fix>3d</fix>
</trkpt>
<trkpt lat="-27.2742139" lon="151.2900712">
  <ele>364.1</ele>
  <time>2026-09-01T20:01:09Z</time>
  <course>10.62</course>
  <speed>2.031206537996567</speed>
  <fix>3d</fix>
</trkpt>
<trkpt lat="-27.2742171" lon="151.2900711">
  <ele>364.05</ele>
  <time>2026-09-01T20:01:09Z</time>
  <course>1.95</course>
  <speed>2.06</speed>
  <fix>3d</fix>
</trkpt>
<trkpt lat="-27.274212" lon="151.2900713">
  <ele>364.12</ele>
  <time>2026-09-01T20:01:09Z</time>
  <course>10.62</course>
  <speed>2.031206537996567</speed>
  <fix>3d</fix>
</trkpt>
<trkpt lat="-27.2742171" lon="151.2900711">
  <ele>364.05</ele>
  <time>2026-09-01T20:01:09Z</time>
  <course>1.95</course>
  <speed>2.06</speed>
  <fix>3d</fix>
</trkpt>
<trkpt lat="-27.2742102" lon="151.2900713">
  <ele>364.14</ele>
  <time>2026-09-01T20:01:09Z</time>
  <course>10.62</course>
  <speed>2.0412006270820124</speed>
  <fix>3d</fix>
</trkpt>
<trkpt lat="-27.2742134" lon="151.2900712">
  <ele>364.1</ele>
  <time>2026-09-01T20:01:09Z</time>
  <course>1.94</course>
  <speed>2.06</speed>
  <fix>3d</fix>
</trkpt>
<trkpt lat="-27.2742083" lon="151.2900714">
  <ele>364.15</ele>
  <time>2026-09-01T20:01:09Z</time>
  <course>10.63</course>
  <speed>2.0412006270820124</speed>
  <fix>3d</fix>
</trkpt>
<trkpt lat="-27.2742134" lon="151.2900712">
  <ele>364.1</ele>
  <time>2026-09-01T20:01:09Z</time>
  <course>1.94</course>
  <speed>2.06</speed>
  <fix>3d</fix>
</trkpt>
<trkpt lat="-27.2742065" lon="151.2900715">
  <ele>364.17</ele>
  <time>2026-09-01T20:01:09Z</time>
  <course>10.63</course>
  <speed>2.0412006270820124</speed>
  <fix>3d</fix>
</trkpt>
<trkpt lat="-27.2742097" lon="151.2900713">
  <ele>364.14</ele>
  <time>2026-09-01T20:01:09Z</time>
  <course>1.93</course>
  <speed>2.06</speed>
  <fix>3d</fix>
</trkpt>
<trkpt lat="-27.2742046" lon="151.2900715">
  <ele>364.18</ele>
  <time>2026-09-01T20:01:09Z</time>
  <course>10.63</course>
  <speed>2.0412006270820124</speed>
  <fix>3d</fix>
</trkpt>
<trkpt lat="-27.2742097" lon="151.2900713">
  <ele>364.14</ele>
  <time>2026-09-01T20:01:09Z</time>
  <course>1.93</course>
  <speed>2.06</speed>
  <fix>3d</fix>
</trkpt>
<trkpt lat="-27.2742028" lon="151.2900716">
  <ele>364.2</ele>
  <time>2026-09-01T20:01:09Z</time>
  <course>10.63</course>
  <speed>2.0412006270820124</speed>
  <fix>3d</fix>
</trkpt>
<trkpt lat="-27.274206" lon="151.2900715">
  <ele>364.17</ele>
  <time>2026-09-01T20:01:09Z</time>
  <course>1.92</course>
  <speed>2.06</speed>
  <fix>3d</fix>
</trkpt>
<trkpt lat="-27.2742009" lon="151.2900717">
  <ele>364.21</ele>
  <time>2026-09-01T20:01:09Z</time>
  <course>10.63</course>
  <speed>2.031206537996567</speed>
  <fix>3d</fix>
</trkpt>
<trkpt lat="-27.274206" lon="151.2900715">
  <ele>364.17</ele>
  <time>2026-09-01T20:01:09Z</time>
  <course>1.92</course>
  <speed>2.06</speed>
  <fix>3d</fix>
</trkpt>
<trkpt lat="-27.274199" lon="151.2900717">
  <ele>364.22</ele>
  <time>2026-09-01T20:01:09Z</time>
  <course>10.62</course>
  <speed>2.031206537996567</speed>
  <fix>3d</fix>
</trkpt>
<trkpt lat="-27.2742023" lon="151.2900717">
  <ele>364.2</ele>
  <time>2026-09-01T20:01:09Z</time>
  <course>1.9</course>
  <speed>2.06</speed>
  <fix>3d</fix>
</trkpt>
<trkpt lat="-27.2741972" lon="151.2900718">
  <ele>364.22</ele>
  <time>2026-09-01T20:01:09Z</time>
  <course>10.62</course>
  <speed>2.031206537996567</speed>
  <fix>3d</fix>
</trkpt>
<trkpt lat="-27.2742023" lon="151.2900717">
  <ele>364.2</ele>
  <time>2026-09-01T20:01:09Z</time>
  <course>1.9</course>
  <speed>2.06</speed>
  <fix>3d</fix>
</trkpt>
<trkpt lat="-27.2741953" lon="151.2900719">
  <ele>364.23</ele>
  <time>2026-09-01T20:01:09Z</time>
  <course>10.61</course>
  <speed>2.0412006270820124</speed>
  <fix>3d</fix>
</trkpt>
<trkpt lat="-27.2741986" lon="151.2900718">
  <ele>364.21</ele>
  <time>2026-09-01T20:01:09Z</time>
  <course>1.88</course>
  <speed>2.06</speed>
  <fix>3d</fix>
</trkpt>
<trkpt lat="-27.2741935" lon="151.2900719">
  <ele>364.22</ele>
  <time>2026-09-01T20:01:09Z</time>
  <course>10.6</course>
  <speed>2.0412006270820124</speed>
  <fix>3d</fix>
</trkpt>
<trkpt lat="-27.2741986" lon="151.2900718">
  <ele>364.21</ele>
  <time>2026-09-01T20:01:09Z</time>
  <course>1.88</course>
  <speed>2.06</speed>
  <fix>3d</fix>
</trkpt>
<trkpt lat="-27.2741916" lon="151.290072">
  <ele>364.19</ele>
  <time>2026-09-01T20:01:09Z</time>
  <course>10.59</course>
  <speed>2.0412006270820124</speed>
  <fix>3d</fix>
</trkpt>
<trkpt lat="-27.2741949" lon="151.2900719">
  <ele>364.22</ele>
  <time>2026-09-01T20:01:09Z</time>
  <course>1.86</course>
  <speed>2.06</speed>
  <fix>3d</fix>
</trkpt>
<trkpt lat="-27.2741898" lon="151.2900721">
  <ele>364.13</ele>
  <time>2026-09-01T20:01:09Z</time>
  <course>10.57</course>
  <speed>2.0511947737842937</speed>
  <fix>3d</fix>
</trkpt>
<trkpt lat="-27.2741949" lon="151.2900719">
  <ele>364.22</ele>
  <time>2026-09-01T20:01:09Z</time>
  <course>1.86</course>
  <speed>2.06</speed>
  <fix>3d</fix>
</trkpt>
<trkpt lat="-27.2741879" lon="151.2900721">
  <ele>364.05</ele>
  <time>2026-09-01T20:01:09Z</time>
  <course>10.56</course>
  <speed>2.071183236703117</speed>
  <fix>3d</fix>
</trkpt>
<trkpt lat="-27.2741912" lon="151.290072">
  <ele>364.16</ele>
  <time>2026-09-01T20:01:09Z</time>
  <course>1.88</course>
  <speed>2.06</speed>
  <fix>3d</fix>
</trkpt>
<trkpt lat="-27.274186" lon="151.2900722">
  <ele>363.95</ele>
  <time>2026-09-01T20:01:09Z</time>
  <course>10.54</course>
  <speed>2.0915305400591215</speed>
  <fix>3d</fix>
</trkpt>
<trkpt lat="-27.2741912" lon="151.290072">
  <ele>364.16</ele>
  <time>2026-09-01T20:01:09Z</time>
  <course>1.88</course>
  <speed>2.06</speed>
  <fix>3d</fix>
</trkpt>
<trkpt lat="-27.2741841" lon="151.2900723">
  <ele>363.82</ele>
  <time>2026-09-01T20:01:09Z</time>
  <course>10.53</course>
  <speed>2.081177551291576</speed>
  <fix>3d</fix>
</trkpt>
<trkpt lat="-27.2741874" lon="151.2900722">
  <ele>364.03</ele>
  <time>2026-09-01T20:01:09Z</time>
  <course>1.99</course>
  <speed>2.09</speed>
  <fix>3d</fix>
</trkpt>
<trkpt lat="-27.2741822" lon="151.2900724">
  <ele>363.67</ele>
  <time>2026-09-01T20:01:09Z</time>
  <course>10.51</course>
  <speed>2.0611889772653065</speed>
  <fix>3d</fix>
</trkpt>
<trkpt lat="-27.2741874" lon="151.2900722">
  <ele>364.03</ele>
  <time>2026-09-01T20:01:09Z</time>
  <course>1.99</course>
  <speed>2.09</speed>
  <fix>3d</fix>
</trkpt>
<trkpt lat="-27.2741803" lon="151.2900724">
  <ele>363.49</ele>
  <time>2026-09-01T20:01:09Z</time>
  <course>10.49</course>
  <speed>2.0412006270820124</speed>
  <fix>3d</fix>
</trkpt>
<trkpt lat="-27.2741837" lon="151.2900723">
  <ele>363.8</ele>
  <time>2026-09-01T20:01:09Z</time>
  <course>2.05</course>
  <speed>2.1</speed>
  <fix>3d</fix>
</trkpt>
<trkpt lat="-27.2741785" lon="151.2900725">
  <ele>363.29</ele>
  <time>2026-09-01T20:01:09Z</time>
  <course>10.46</course>
  <speed>2.0112185361118766</speed>
  <fix>3d</fix>
</trkpt>
<trkpt lat="-27.2741837" lon="151.2900723">
  <ele>363.8</ele>
  <time>2026-09-01T20:01:09Z</time>
  <course>2.05</course>
  <speed>2.1</speed>
  <fix>3d</fix>
</trkpt>
<trkpt lat="-27.2741767" lon="151.2900726">
  <ele>363.07</ele>
  <time>2026-09-01T20:01:09Z</time>
  <course>10.42</course>
  <speed>1.970913493789111</speed>
  <fix>3d</fix>
</trkpt>
<trkpt lat="-27.2741799" lon="151.2900725">
  <ele>363.48</ele>
  <time>2026-09-01T20:01:09Z</time>
  <course>2.04</course>
  <speed>2.05</speed>
  <fix>3d</fix>
</trkpt>
<trkpt lat="-27.2741749" lon="151.2900726">
  <ele>362.82</ele>
  <time>2026-09-01T20:01:09Z</time>
  <course>10.38</course>
  <speed>1.9409276132818556</speed>
  <fix>3d</fix>
</trkpt>
<trkpt lat="-27.2741799" lon="151.2900725">
  <ele>363.48</ele>
  <time>2026-09-01T20:01:09Z</time>
  <course>2.04</course>
  <speed>2.05</speed>
  <fix>3d</fix>
</trkpt>
<trkpt lat="-27.2741731" lon="151.2900727">
  <ele>362.57</ele>
  <time>2026-09-01T20:01:09Z</time>
  <course>10.34</course>
  <speed>1.9006577808748213</speed>
  <fix>3d</fix>
</trkpt>
<trkpt lat="-27.2741763" lon="151.2900727">
  <ele>363.06</ele>
  <time>2026-09-01T20:01:09Z</time>
  <course>2.01</course>
  <speed>1.99</speed>
  <fix>3d</fix>
</trkpt>
<trkpt lat="-27.2741714" lon="151.2900728">
  <ele>362.29</ele>
  <time>2026-09-01T20:01:09Z</time>
  <course>10.29</course>
  <speed>1.8506755523321745</speed>
  <fix>3d</fix>
</trkpt>
<trkpt lat="-27.2741763" lon="151.2900727">
  <ele>363.06</ele>
  <time>2026-09-01T20:01:09Z</time>
  <course>2.01</course>
  <speed>1.99</speed>
  <fix>3d</fix>
</trkpt>
<trkpt lat="-27.2741698" lon="151.2900728">
  <ele>362.0</ele>
  <time>2026-09-01T20:01:09Z</time>
  <course>10.25</course>
  <speed>1.8106904760339355</speed>
  <fix>3d</fix>
</trkpt>
<trkpt lat="-27.2741728" lon="151.2900728">
  <ele>362.56</ele>
  <time>2026-09-01T20:01:09Z</time>
  <course>1.98</course>
  <speed>1.91</speed>
  <fix>3d</fix>
</trkpt>
<trkpt lat="-27.2741682" lon="151.2900729">
  <ele>361.7</ele>
  <time>2026-09-01T20:01:09Z</time>
  <course>10.21</course>
  <speed>1.760454486773231</speed>
  <fix>3d</fix>
</trkpt>
<trkpt lat="-27.2741728" lon="151.2900728">
  <ele>362.56</ele>
  <time>2026-09-01T20:01:09Z</time>
  <course>1.98</course>
  <speed>1.91</speed>
  <fix>3d</fix>
</trkpt>
<trkpt lat="-27.2741666" lon="151.2900729">
  <ele>361.38</ele>
  <time>2026-09-01T20:01:09Z</time>
  <course>10.17</course>
  <speed>1.7104677722775137</speed>
  <fix>3d</fix>
</trkpt>
<trkpt lat="-27.2741694" lon="151.2900729">
  <ele>362.01</ele>
  <time>2026-09-01T20:01:09Z</time>
  <course>1.96</course>
  <speed>1.82</speed>
  <fix>3d</fix>
</trkpt>
<trkpt lat="-27.274165" lon="151.290073">
  <ele>361.06</ele>
  <time>2026-09-01T20:01:09Z</time>
  <course>10.14</course>
  <speed>1.6602710622064096</speed>
  <fix>3d</fix>
</trkpt>
<trkpt lat="-27.2741694" lon="151.2900729">
  <ele>362.01</ele>
  <time>2026-09-01T20:01:09Z</time>
  <course>1.96</course>
  <speed>1.82</speed>
  <fix>3d</fix>
</trkpt>
<trkpt lat="-27.2741635" lon="151.290073">
  <ele>360.73</ele>
  <time>2026-09-01T20:01:09Z</time>
  <course>10.1</course>
  <speed>1.6102794788483146</speed>
  <fix>3d</fix>
</trkpt>
<trkpt lat="-27.2741662" lon="151.290073">
  <ele>361.4</ele>
  <time>2026-09-01T20:01:09Z</time>
  <course>1.95</course>
  <speed>1.73</speed>
  <fix>3d</fix>
</trkpt>
<trkpt lat="-27.2741621" lon="151.2900731">
  <ele>360.39</ele>
  <time>2026-09-01T20:01:09Z</time>
  <course>10.08</course>
  <speed>1.560288434873501</speed>
  <fix>3d</fix>
</trkpt>
<trkpt lat="-27.2741662" lon="151.290073">
  <ele>361.4</ele>
  <time>2026-09-01T20:01:09Z</time>
  <course>1.95</course>
  <speed>1.73</speed>
  <fix>3d</fix>
</trkpt>
<trkpt lat="-27.2741607" lon="151.2900731">
  <ele>360.05</ele>
  <time>2026-09-01T20:01:09Z</time>
  <course>10.05</course>
  <speed>1.510132444522665</speed>
  <fix>3d</fix>
</trkpt>
<trkpt lat="-27.2741632" lon="151.2900732">
  <ele>360.76</ele>
  <time>2026-09-01T20:01:09Z</time>
  <course>1.94</course>
  <speed>1.63</speed>
  <fix>3d</fix>
</trkpt>
<trkpt lat="-27.2741594" lon="151.2900731">
  <ele>359.71</ele>
  <time>2026-09-01T20:01:09Z</time>
  <course>10.03</course>
  <speed>1.450137924474772</speed>
  <fix>3d</fix>
</trkpt>
<trkpt lat="-27.2741632" lon="151.2900732">
  <ele>360.76</ele>
  <time>2026-09-01T20:01:09Z</time>
  <course>1.94</course>
  <speed>1.63</speed>
  <fix>3d</fix>
</trkpt>
<trkpt lat="-27.2741581" lon="151.2900732">
  <ele>359.36</ele>
  <time>2026-09-01T20:01:09Z</time>
  <course>10.0</course>
  <speed>1.400142849854971</speed>
  <fix>3d</fix>
</trkpt>
<trkpt lat="-27.2741604" lon="151.2900733">
  <ele>360.09</ele>
  <time>2026-09-01T20:01:09Z</time>
  <course>1.94</course>
  <speed>1.52</speed>
  <fix>3d</fix>
</trkpt>
<trkpt lat="-27.2741568" lon="151.2900732">
  <ele>359.01</ele>
  <time>2026-09-01T20:01:09Z</time>
  <course>9.99</course>
  <speed>1.350148140020198</speed>
  <fix>3d</fix>
</trkpt>
<trkpt lat="-27.2741604" lon="151.2900733">
  <ele>360.09</ele>
  <time>2026-09-01T20:01:09Z</time>
  <course>1.94</course>
  <speed>1.52</speed>
  <fix>3d</fix>
</trkpt>
<trkpt lat="-27.2741556" lon="151.2900732">
  <ele>358.65</ele>
  <time>2026-09-01T20:01:09Z</time>
  <course>9.98</course>
  <speed>1.3000384609695206</speed>
  <fix>3d</fix>
</trkpt>
<trkpt lat="-27.2741578" lon="151.2900734">
  <ele>359.4</ele>
  <time>2026-09-01T20:01:09Z</time>
  <course>1.95</course>
  <speed>1.42</speed>
  <fix>3d</fix>
</trkpt>
<trkpt lat="-27.2741545" lon="151.2900733">
  <ele>358.3</ele>
  <time>2026-09-01T20:01:09Z</time>
  <course>9.97</course>
  <speed>1.2500399993600204</speed>
  <fix>3d</fix>
</trkpt>
<trkpt lat="-27.2741578" lon="151.2900734">
  <ele>359.4</ele>
  <time>2026-09-01T20:01:09Z</time>
  <course>1.95</course>
  <speed>1.42</speed>
  <fix>3d</fix>
</trkpt>
<trkpt lat="-27.2741533" lon="151.2900733">
  <ele>357.95</ele>
  <time>2026-09-01T20:01:09Z</time>
  <course>9.95</course>
  <speed>1.2000416659433122</speed>
  <fix>3d</fix>
</trkpt>
<trkpt lat="-27.2741553" lon="151.2900735">
  <ele>358.71</ele>
  <time>2026-09-01T20:01:09Z</time>
  <course>1.98</course>
  <speed>1.32</speed>
  <fix>3d</fix>
</trkpt>
<trkpt lat="-27.2741523" lon="151.2900734">
  <ele>357.59</ele>
  <time>2026-09-01T20:01:09Z</time>
  <course>9.95</course>
  <speed>1.1500434774390054</speed>
  <fix>3d</fix>
</trkpt>
<trkpt lat="-27.2741553" lon="151.2900735">
  <ele>358.71</ele>
  <time>2026-09-01T20:01:09Z</time>
  <course>1.98</course>
  <speed>1.32</speed>
  <fix>3d</fix>
</trkpt>
<trkpt lat="-27.2741512" lon="151.2900734">
  <ele>357.23</ele>
  <time>2026-09-01T20:01:09Z</time>
  <course>9.95</course>
  <speed>1.1000454536063498</speed>
  <fix>3d</fix>
</trkpt>
<trkpt lat="-27.274153" lon="151.2900736">
  <ele>358.01</ele>
  <time>2026-09-01T20:01:09Z</time>
  <course>2.0</course>
  <speed>1.22</speed>
  <fix>3d</fix>
</trkpt>
<trkpt lat="-27.2741503" lon="151.2900734">
  <ele>356.88</ele>
  <time>2026-09-01T20:01:09Z</time>
  <course>9.95</course>
  <speed>1.050047617967871</speed>
  <fix>3d</fix>
</trkpt>
<trkpt lat="-27.274153" lon="151.2900736">
  <ele>358.01</ele>
  <time>2026-09-01T20:01:09Z</time>
  <course>2.0</course>
  <speed>1.22</speed>
  <fix>3d</fix>
</trkpt>
<trkpt lat="-27.2741493" lon="151.2900735">
  <ele>356.52</ele>
  <time>2026-09-01T20:01:09Z</time>
  <course>9.96</course>
  <speed>1.010049503737317</speed>
  <fix>3d</fix>
</trkpt>
<trkpt lat="-27.2741509" lon="151.2900736">
  <ele>357.31</ele>
  <time>2026-09-01T20:01:09Z</time>
  <course>2.03</course>
  <speed>1.12</speed>
  <fix>3d</fix>
</trkpt>
<trkpt lat="-27.2741484" lon="151.2900735">
  <ele>356.17</ele>
  <time>2026-09-01T20:01:09Z</time>
  <course>9.97</course>
  <speed>0.9600520819205591</speed>
  <fix>3d</fix>
</trkpt>
<trkpt lat="-27.2741509" lon="151.2900736">
  <ele>357.31</ele>
  <time>2026-09-01T20:01:09Z</time>
  <course>2.03</course>
  <speed>1.12</speed>
  <fix>3d</fix>
</trkpt>
<trkpt lat="-27.2741475" lon="151.2900735">
  <ele>355.81</ele>
  <time>2026-09-01T20:01:09Z</time>
  <course>9.98</course>
  <speed>0.9200543462209175</speed>
  <fix>3d</fix>
</trkpt>
<trkpt lat="-27.274149" lon="151.2900737">
  <ele>356.61</ele>
  <time>2026-09-01T20:01:09Z</time>
  <course>2.07</course>
  <speed>1.03</speed>
  <fix>3d</fix>
</trkpt>
<trkpt lat="-27.2741467" lon="151.2900736">
  <ele>355.48</ele>
  <time>2026-09-01T20:01:09Z</time>
  <course>10.03</course>
  <speed>0.8900561780022652</speed>
  <fix>3d</fix>
</trkpt>
<trkpt lat="-27.274149" lon="151.2900737">
  <ele>356.61</ele>
  <time>2026-09-01T20:01:09Z</time>
  <course>2.07</course>
  <speed>1.03</speed>
  <fix>3d</fix>
</trkpt>
<trkpt lat="-27.2741459" lon="151.2900736">
  <ele>355.23</ele>
  <time>2026-09-01T20:01:09Z</time>
  <course>10.23</course>
  <speed>0.8600581375697809</speed>
  <fix>3d</fix>
</trkpt>
<trkpt lat="-27.2741472" lon="151.2900738">
  <ele>355.91</ele>
  <time>2026-09-01T20:01:09Z</time>
  <course>2.09</course>
  <speed>0.95</speed>
  <fix>3d</fix>
</trkpt>
<trkpt lat="-27.2741451" lon="151.2900736">
  <ele>355.07</ele>
  <time>2026-09-01T20:01:09Z</time>
  <course>10.47</course>
  <speed>0.83</speed>
  <fix>3d</fix>
</trkpt>
<trkpt lat="-27.2741472" lon="151.2900738">
  <ele>355.91</ele>
  <time>2026-09-01T20:01:09Z</time>
  <course>2.09</course>
  <speed>0.95</speed>
  <fix>3d</fix>
</trkpt>
<trkpt lat="-27.2741444" lon="151.2900737">
  <ele>354.97</ele>
  <time>2026-09-01T20:01:09Z</time>
  <course>10.63</course>
  <speed>0.82</speed>
  <fix>3d</fix>
</trkpt>
<trkpt lat="-27.2741455" lon="151.2900738">
  <ele>355.37</ele>
  <time>2026-09-01T20:01:09Z</time>
  <course>1.77</course>
  <speed>0.89</speed>
  <fix>3d</fix>
</trkpt>
<trkpt lat="-27.2741436" lon="151.2900737">
  <ele>354.95</ele>
  <time>2026-09-01T20:01:09Z</time>
  <course>10.68</course>
  <speed>0.79</speed>
  <fix>3d</fix>
</trkpt>
<trkpt lat="-27.2741455" lon="151.2900738">
  <ele>355.37</ele>
  <time>2026-09-01T20:01:09Z</time>
  <course>1.77</course>
  <speed>0.89</speed>
  <fix>3d</fix>
</trkpt>
<trkpt lat="-27.2741436" lon="151.2900737">
  <ele>354.96</ele>
  <time>2026-09-01T20:01:09Z</time>
  <course>10.68</course>
  <speed>0.79</speed>
  <fix>3d</fix>
</trkpt>
<trkpt lat="-27.2741429" lon="151.2900737">
  <ele>355.0</ele>
  <time>2026-09-01T20:01:09Z</time>
  <course>10.67</course>
  <speed>0.75</speed>
  <fix>3d</fix>
</trkpt>
<trkpt lat="-27.274144" lon="151.2900739">
  <ele>355.1</ele>
  <time>2026-09-01T20:01:09Z</time>
  <course>1.09</course>
  <speed>0.84</speed>
  <fix>3d</fix>
</trkpt>
<trkpt lat="-27.2741429" lon="151.2900737">
  <ele>355.0</ele>
  <time>2026-09-01T20:01:09Z</time>
  <course>10.67</course>
  <speed>0.75</speed>
  <fix>3d</fix>
</trkpt>
<trkpt lat="-27.2741422" lon="151.2900737">
  <ele>355.09</ele>
  <time>2026-09-01T20:01:09Z</time>
  <course>10.65</course>
  <speed>0.71</speed>
  <fix>3d</fix>
</trkpt>
<trkpt lat="-27.274144" lon="151.2900739">
  <ele>355.1</ele>
  <time>2026-09-01T20:01:09Z</time>
  <course>1.09</course>
  <speed>0.84</speed>
  <fix>3d</fix>
</trkpt>
<trkpt lat="-27.2741422" lon="151.2900737">
  <ele>355.09</ele>
  <time>2026-09-01T20:01:09Z</time>
  <course>10.65</course>
  <speed>0.71</speed>
  <fix>3d</fix>
</trkpt>
<trkpt lat="-27.2741416" lon="151.2900738">
  <ele>355.2</ele>
  <time>2026-09-01T20:01:09Z</time>
  <course>10.64</course>
  <speed>0.65</speed>
  <fix>3d</fix>
</trkpt>
<trkpt lat="-27.2741424" lon="151.290074">
  <ele>355.12</ele>
  <time>2026-09-01T20:01:09Z</time>
  <course>0.63</course>
  <speed>0.78</speed>
  <fix>3d</fix>
</trkpt>
<trkpt lat="-27.2741414" lon="151.2900738">
  <ele>355.24</ele>
  <time>2026-09-01T20:01:09Z</time>
  <course>10.64</course>
  <speed>0.64</speed>
  <fix>3d</fix>
</trkpt>
<trkpt lat="-27.274141" lon="151.2900738">
  <ele>355.32</ele>
  <time>2026-09-01T20:01:09Z</time>
  <course>10.66</course>
  <speed>0.59</speed>
  <fix>3d</fix>
</trkpt>
<trkpt lat="-27.2741424" lon="151.290074">
  <ele>355.12</ele>
  <time>2026-09-01T20:01:09Z</time>
  <course>0.63</course>
  <speed>0.78</speed>
  <fix>3d</fix>
</trkpt>
<trkpt lat="-27.2741408" lon="151.2900738">
  <ele>355.36</ele>
  <time>2026-09-01T20:01:09Z</time>
  <course>10.67</course>
  <speed>0.58</speed>
  <fix>3d</fix>
</trkpt>
<trkpt lat="-27.2741404" lon="151.2900738">
  <ele>355.44</ele>
  <time>2026-09-01T20:01:09Z</time>
  <course>10.71</course>
  <speed>0.5300943312279428</speed>
  <fix>3d</fix>
</trkpt>
<trkpt lat="-27.2741412" lon="151.290074">
  <ele>355.32</ele>
  <time>2026-09-01T20:01:09Z</time>
  <course>0.73</course>
  <speed>0.69</speed>
  <fix>3d</fix>
</trkpt>
<trkpt lat="-27.2741403" lon="151.2900738">
  <ele>355.46</ele>
  <time>2026-09-01T20:01:09Z</time>
  <course>10.73</course>
  <speed>0.510098029794274</speed>
  <fix>3d</fix>
</trkpt>
<trkpt lat="-27.27414" lon="151.2900738">
  <ele>355.53</ele>
  <time>2026-09-01T20:01:09Z</time>
  <course>10.8</course>
  <speed>0.46010868281309364</speed>
  <fix>3d</fix>
</trkpt>
<trkpt lat="-27.2741412" lon="151.290074">
  <ele>355.32</ele>
  <time>2026-09-01T20:01:09Z</time>
  <course>0.73</course>
  <speed>0.69</speed>
  <fix>3d</fix>
</trkpt>
<trkpt lat="-27.2741399" lon="151.2900739">
  <ele>355.55</ele>
  <time>2026-09-01T20:01:09Z</time>
  <course>10.83</course>
  <speed>0.44011362169330775</speed>
  <fix>3d</fix>
</trkpt>
<trkpt lat="-27.2741395" lon="151.2900739">
  <ele>355.6</ele>
  <time>2026-09-01T20:01:09Z</time>
  <course>10.95</course>
  <speed>0.38013155617496425</speed>
  <fix>3d</fix>
</trkpt>
<trkpt lat="-27.27414" lon="151.290074">
  <ele>355.54</ele>
  <time>2026-09-01T20:01:09Z</time>
  <course>1.47</course>
  <speed>0.56</speed>
  <fix>3d</fix>
</trkpt>
<trkpt lat="-27.2741394" lon="151.2900739">
  <ele>355.62</ele>
  <time>2026-09-01T20:01:09Z</time>
  <course>11.0</course>
  <speed>0.36013886210738216</speed>
  <fix>3d</fix>
</trkpt>
<trkpt lat="-27.2741392" lon="151.2900739">
  <ele>355.64</ele>
  <time>2026-09-01T20:01:09Z</time>
  <course>11.15</course>
  <speed>0.29017236257093815</speed>
  <fix>3d</fix>
</trkpt>
<trkpt lat="-27.27414" lon="151.290074">
  <ele>355.54</ele>
  <time>2026-09-01T20:01:09Z</time>
  <course>1.47</course>
  <speed>0.56</speed>
  <fix>3d</fix>
</trkpt>
<trkpt lat="-27.2741391" lon="151.2900739">
  <ele>355.64</ele>
  <time>2026-09-01T20:01:09Z</time>
  <course>11.2</course>
  <speed>0.27018512172212594</speed>
  <fix>3d</fix>
</trkpt>
<trkpt lat="-27.2741389" lon="151.2900739">
  <ele>355.65</ele>
  <time>2026-09-01T20:01:09Z</time>
  <course>11.38</course>
  <speed>0.19026297590440447</speed>
  <fix>3d</fix>
</trkpt>
<trkpt lat="-27.2741391" lon="151.290074">
  <ele>355.7</ele>
  <time>2026-09-01T20:01:09Z</time>
  <course>3.08</course>
  <speed>0.41</speed>
  <fix>3d</fix>
</trkpt>
<trkpt lat="-27.2741389" lon="151.2900739">
  <ele>355.64</ele>
  <time>2026-09-01T20:01:09Z</time>
  <course>11.44</course>
  <speed>0.16031219541881397</speed>
  <fix>3d</fix>
</trkpt>
<trkpt lat="-27.2741388" lon="151.290074">
  <ele>355.63</ele>
  <time>2026-09-01T20:01:09Z</time>
  <course>11.63</course>
  <speed>0.07071067811865475</speed>
  <fix>3d</fix>
</trkpt>
<trkpt lat="-27.2741391" lon="151.290074">
  <ele>355.7</ele>
  <time>2026-09-01T20:01:09Z</time>
  <course>3.08</course>
  <speed>0.41</speed>
  <fix>3d</fix>
</trkpt>
<trkpt lat="-27.2741388" lon="151.290074">
  <ele>355.62</ele>
  <time>2026-09-01T20:01:09Z</time>
  <course>11.69</course>
  <speed>0.0412310562561766</speed>
  <fix>3d</fix>
</trkpt>
<trkpt lat="-27.2741387" lon="151.290074">
  <ele>355.58</ele>
  <time>2026-09-01T20:01:09Z</time>
  <course>11.91</course>
  <speed>0.06082762530298219</speed>
  <fix>3d</fix>
</trkpt>
<trkpt lat="-27.2741386" lon="151.2900741">
  <ele>355.74</ele>
  <time>2026-09-01T20:01:09Z</time>
  <course>7.83</course>
  <speed>0.21</speed>
  <fix>3d</fix>
</trkpt>
<trkpt lat="-27.2741388" lon="151.290074">
  <ele>355.56</ele>
  <time>2026-09-01T20:01:09Z</time>
  <course>11.99</course>
  <speed>0.1004987562112089</speed>
  <fix>3d</fix>
</trkpt>
<trkpt lat="-27.2741388" lon="151.290074">
  <ele>355.52</ele>
  <time>2026-09-01T20:01:09Z</time>
  <course>12.26</course>
  <speed>0.22</speed>
  <fix>3d</fix>
</trkpt>
<trkpt lat="-27.2741386" lon="151.2900741">
  <ele>355.74</ele>
  <time>2026-09-01T20:01:09Z</time>
  <course>7.83</course>
  <speed>0.21</speed>
  <fix>3d</fix>
</trkpt>
<trkpt lat="-27.2741388" lon="151.290074">
  <ele>355.52</ele>
  <time>2026-09-01T20:01:09Z</time>
  <course>12.27</course>
  <speed>0.23</speed>
  <fix>3d</fix>
</trkpt>
<trkpt lat="-27.2741391" lon="151.290074">
  <ele>355.45</ele>
  <time>2026-09-01T20:01:09Z</time>
  <course>12.7</course>
  <speed>0.41</speed>
  <fix>3d</fix>
</trkpt>
<trkpt lat="-27.2741384" lon="151.2900741">
  <ele>355.68</ele>
  <time>2026-09-01T20:01:09Z</time>
  <course>146.13</course>
  <speed>0.05</speed>
  <fix>3d</fix>
</trkpt>
<trkpt lat="-27.2741391" lon="151.290074">
  <ele>355.45</ele>
  <time>2026-09-01T20:01:09Z</time>
  <course>12.71</course>
  <speed>0.41</speed>
  <fix>3d</fix>
</trkpt>
<trkpt lat="-27.2741394" lon="151.290074">
  <ele>355.37</ele>
  <time>2026-09-01T20:01:09Z</time>
  <course>13.23</course>
  <speed>0.6000833275470999</speed>
  <fix>3d</fix>
</trkpt>
<trkpt lat="-27.2741384" lon="151.2900741">
  <ele>355.68</ele>
  <time>2026-09-01T20:01:09Z</time>
  <course>146.13</course>
  <speed>0.05</speed>
  <fix>3d</fix>
</trkpt>
<trkpt lat="-27.2741396" lon="151.290074">
  <ele>355.36</ele>
  <time>2026-09-01T20:01:09Z</time>
  <course>13.39</course>
  <speed>0.6500769185258002</speed>
  <fix>3d</fix>
</trkpt>
<trkpt lat="-27.27414" lon="151.290074">
  <ele>355.31</ele>
  <time>2026-09-01T20:01:09Z</time>
  <course>13.8</course>
  <speed>0.8000624975587844</speed>
  <fix>3d</fix>
</trkpt>
<trkpt lat="-27.2741388" lon="151.2900742">
  <ele>355.53</ele>
  <time>2026-09-01T20:01:09Z</time>
  <course>176.65</course>
  <speed>0.38</speed>
  <fix>3d</fix>
</trkpt>
<trkpt lat="-27.2741402" lon="151.290074">
  <ele>355.29</ele>
  <time>2026-09-01T20:01:09Z</time>
  <course>13.95</course>
  <speed>0.8400595217006948</speed>
  <fix>3d</fix>
</trkpt>
<trkpt lat="-27.2741408" lon="151.290074">
  <ele>355.25</ele>
  <time>2026-09-01T20:01:09Z</time>
  <course>14.37</course>
  <speed>0.9800510190801294</speed>
  <fix>3d</fix>
</trkpt>
<trkpt lat="-27.2741388" lon="151.2900742">
  <ele>355.53</ele>
  <time>2026-09-01T20:01:09Z</time>
  <course>176.65</course>
  <speed>0.38</speed>
  <fix>3d</fix>
</trkpt>
<trkpt lat="-27.274141" lon="151.290074">
  <ele>355.23</ele>
  <time>2026-09-01T20:01:09Z</time>
  <course>14.52</course>
  <speed>1.0200490184299968</speed>
  <fix>3d</fix>
</trkpt>
<trkpt lat="-27.2741417" lon="151.290074">
  <ele>355.2</ele>
  <time>2026-09-01T20:01:09Z</time>
  <course>14.91</course>
  <speed>1.13</speed>
  <fix>3d</fix>
</trkpt>
<trkpt lat="-27.2741397" lon="151.2900742">
  <ele>355.39</ele>
  <time>2026-09-01T20:01:09Z</time>
  <course>178.69</course>
  <speed>0.76</speed>
  <fix>3d</fix>
</trkpt>
<trkpt lat="-27.2741419" lon="151.290074">
  <ele>355.19</ele>
  <time>2026-09-01T20:01:09Z</time>
  <course>15.05</course>
  <speed>1.16</speed>
  <fix>3d</fix>
</trkpt>
<trkpt lat="-27.2741427" lon="151.2900741">
  <ele>355.16</ele>
  <time>2026-09-01T20:01:09Z</time>
  <course>15.49</course>
  <speed>1.24</speed>
  <fix>3d</fix>
</trkpt>
<trkpt lat="-27.2741397" lon="151.2900742">
  <ele>355.39</ele>
  <time>2026-09-01T20:01:09Z</time>
  <course>178.69</course>
  <speed>0.76</speed>
  <fix>3d</fix>
</trkpt>
<trkpt lat="-27.2741427" lon="151.2900741">
  <ele>355.16</ele>
  <time>2026-09-01T20:01:09Z</time>
  <course>15.52</course>
  <speed>1.25</speed>
  <fix>3d</fix>
</trkpt>
<trkpt lat="-27.2741438" lon="151.2900741">
  <ele>355.14</ele>
  <time>2026-09-01T20:01:09Z</time>
  <course>16.33</course>
  <speed>1.3500370365289984</speed>
  <fix>3d</fix>
</trkpt>
<trkpt lat="-27.2741414" lon="151.2900742">
  <ele>355.28</ele>
  <time>2026-09-01T20:01:09Z</time>
  <course>178.45</course>
  <speed>1.09</speed>
  <fix>3d</fix>
</trkpt>
<trkpt lat="-27.2741439" lon="151.2900741">
  <ele>355.14</ele>
  <time>2026-09-01T20:01:09Z</time>
  <course>16.37</course>
  <speed>1.360036764208968</speed>
  <fix>3d</fix>
</trkpt>
<trkpt lat="-27.274145" lon="151.2900741">
  <ele>355.12</ele>
  <time>2026-09-01T20:01:09Z</time>
  <course>17.83</course>
  <speed>1.4400347218036098</speed>
  <fix>3d</fix>
</trkpt>
<trkpt lat="-27.2741414" lon="151.2900742">
  <ele>355.28</ele>
  <time>2026-09-01T20:01:09Z</time>
  <course>178.45</course>
  <speed>1.09</speed>
  <fix>3d</fix>
</trkpt>
<trkpt lat="-27.2741454" lon="151.2900742">
  <ele>355.12</ele>
  <time>2026-09-01T20:01:09Z</time>
  <course>18.39</course>
  <speed>1.4600342461736986</speed>
  <fix>3d</fix>
</trkpt>
<trkpt lat="-27.2741463" lon="151.2900742">
  <ele>355.12</ele>
  <time>2026-09-01T20:01:09Z</time>
  <course>20.34</course>
  <speed>1.5100331122197286</speed>
  <fix>3d</fix>
</trkpt>
<trkpt lat="-27.2741436" lon="151.2900743">
  <ele>355.22</ele>
  <time>2026-09-01T20:01:09Z</time>
  <course>178.06</course>
  <speed>1.33</speed>
  <fix>3d</fix>
</trkpt>
<trkpt lat="-27.2741467" lon="151.2900742">
  <ele>355.12</ele>
  <time>2026-09-01T20:01:09Z</time>
  <course>21.33</course>
  <speed>1.5300326793895613</speed>
  <fix>3d</fix>
</trkpt>
<trkpt lat="-27.2741477" lon="151.2900742">
  <ele>355.12</ele>
  <time>2026-09-01T20:01:09Z</time>
  <course>24.12</course>
  <speed>1.56</speed>
  <fix>3d</fix>
</trkpt>
<trkpt lat="-27.2741436" lon="151.2900743">
  <ele>355.22</ele>
  <time>2026-09-01T20:01:09Z</time>
  <course>178.06</course>
  <speed>1.33</speed>
  <fix>3d</fix>
</trkpt>
<trkpt lat="-27.274148" lon="151.2900742">
  <ele>355.13</ele>
  <time>2026-09-01T20:01:09Z</time>
  <course>25.35</course>
  <speed>1.57</speed>
  <fix>3d</fix>
</trkpt>
<trkpt lat="-27.274149" lon="151.2900743">
  <ele>355.13</ele>
  <time>2026-09-01T20:01:09Z</time>
  <course>29.15</course>
  <speed>1.6</speed>
  <fix>3d</fix>
</trkpt>
<trkpt lat="-27.2741461" lon="151.2900744">
  <ele>355.2</ele>
  <time>2026-09-01T20:01:09Z</time>
  <course>178.5</course>
  <speed>1.49</speed>
  <fix>3d</fix>
</trkpt>
<trkpt lat="-27.2741491" lon="151.2900743">
  <ele>355.13</ele>
  <time>2026-09-01T20:01:09Z</time>
  <course>29.38</course>
  <speed>1.6</speed>
  <fix>3d</fix>
</trkpt>
<trkpt lat="-27.2741504" lon="151.2900743">
  <ele>355.14</ele>
  <time>2026-09-01T20:01:09Z</time>
  <course>35.33</course>
  <speed>1.63</speed>
  <fix>3d</fix>
</trkpt>
<trkpt lat="-27.2741461" lon="151.2900744">
  <ele>355.2</ele>
  <time>2026-09-01T20:01:09Z</time>
  <course>178.5</course>
  <speed>1.49</speed>
  <fix>3d</fix>
</trkpt>
<trkpt lat="-27.2741505" lon="151.2900743">
  <ele>355.14</ele>
  <time>2026-09-01T20:01:09Z</time>
  <course>35.61</course>
  <speed>1.63</speed>
  <fix>3d</fix>
</trkpt>
<trkpt lat="-27.2741519" lon="151.2900743">
  <ele>355.16</ele>
  <time>2026-09-01T20:01:09Z</time>
  <course>42.27</course>
  <speed>1.6601204775557707</speed>
  <fix>3d</fix>
</trkpt>
<trkpt lat="-27.2741489" lon="151.2900745">
  <ele>355.21</ele>
  <time>2026-09-01T20:01:09Z</time>
  <course>179.12</course>
  <speed>1.59</speed>
  <fix>3d</fix>
</trkpt>
<trkpt lat="-27.2741524" lon="151.2900744">
  <ele>355.16</ele>
  <time>2026-09-01T20:01:09Z</time>
  <course>44.76</course>
  <speed>1.6802678357928535</speed>
  <fix>3d</fix>
</trkpt>
<trkpt lat="-27.2741534" lon="151.2900744">
  <ele>355.17</ele>
  <time>2026-09-01T20:01:09Z</time>
  <course>49.62</course>
  <speed>1.7110523077919038</speed>
  <fix>3d</fix>
</trkpt>
<trkpt lat="-27.2741489" lon="151.2900745">
  <ele>355.21</ele>
  <time>2026-09-01T20:01:09Z</time>
  <course>179.12</course>
  <speed>1.59</speed>
  <fix>3d</fix>
</trkpt>
<trkpt lat="-27.2741537" lon="151.2900744">
  <ele>355.17</ele>
  <time>2026-09-01T20:01:09Z</time>
  <course>51.42</course>
  <speed>1.7214238292762187</speed>
  <fix>3d</fix>
</trkpt>
<trkpt lat="-27.2741549" lon="151.2900745">
  <ele>355.18</ele>
  <time>2026-09-01T20:01:09Z</time>
  <course>57.02</course>
  <speed>1.7640861656959956</speed>
  <fix>3d</fix>
</trkpt>
<trkpt lat="-27.2741519" lon="151.2900745">
  <ele>355.22</ele>
  <time>2026-09-01T20:01:09Z</time>
  <course>178.47</course>
  <speed>1.67</speed>
  <fix>3d</fix>
</trkpt>
<trkpt lat="-27.274155" lon="151.2900745">
  <ele>355.18</ele>
  <time>2026-09-01T20:01:09Z</time>
  <course>57.33</course>
  <speed>1.7640861656959956</speed>
  <fix>3d</fix>
</trkpt>
<trkpt lat="-27.2741565" lon="151.2900747">
  <ele>355.19</ele>
  <time>2026-09-01T20:01:09Z</time>
  <course>64.31</course>
  <speed>1.8497837711473197</speed>
  <fix>3d</fix>
</trkpt>
<trkpt lat="-27.2741519" lon="151.2900745">
  <ele>355.22</ele>
  <time>2026-09-01T20:01:09Z</time>
  <course>178.47</course>
  <speed>1.67</speed>
  <fix>3d</fix>
</trkpt>
<trkpt lat="-27.2741566" lon="151.2900747">
  <ele>355.19</ele>
  <time>2026-09-01T20:01:09Z</time>
  <course>64.54</course>
  <speed>1.8497837711473197</speed>
  <fix>3d</fix>
</trkpt>
<trkpt lat="-27.2741582" lon="151.290075">
  <ele>355.2</ele>
  <time>2026-09-01T20:01:09Z</time>
  <course>71.19</course>
  <speed>1.9573451407454945</speed>
  <fix>3d</fix>
</trkpt>
<trkpt lat="-27.274155" lon="151.2900747">
  <ele>355.25</ele>
  <time>2026-09-01T20:01:09Z</time>
  <course>175.78</course>
  <speed>1.77</speed>
  <fix>3d</fix>
</trkpt>
<trkpt lat="-27.2741582" lon="151.290075">
  <ele>355.2</ele>
  <time>2026-09-01T20:01:09Z</time>
  <course>71.42</course>
  <speed>1.9573451407454945</speed>
  <fix>3d</fix>
</trkpt>
<trkpt lat="-27.27416" lon="151.2900753">
  <ele>355.2</ele>
  <time>2026-09-01T20:01:09Z</time>
  <course>77.78</course>
  <speed>2.081730049742281</speed>
  <fix>3d</fix>
</trkpt>
<trkpt lat="-27.274155" lon="151.2900747">
  <ele>355.25</ele>
  <time>2026-09-01T20:01:09Z</time>
  <course>175.78</course>
  <speed>1.77</speed>
  <fix>3d</fix>
</trkpt>
<trkpt lat="-27.2741604" lon="151.2900754">
  <ele>355.2</ele>
  <time>2026-09-01T20:01:09Z</time>
  <course>79.2</course>
  <speed>2.121320343559643</speed>
  <fix>3d</fix>
</trkpt>
<trkpt lat="-27.2741619" lon="151.2900756">
  <ele>355.19</ele>
  <time>2026-09-01T20:01:09Z</time>
  <course>83.98</course>
  <speed>2.236358647444546</speed>
  <fix>3d</fix>
</trkpt>
<trkpt lat="-27.2741583" lon="151.2900751">
  <ele>355.26</ele>
  <time>2026-09-01T20:01:09Z</time>
  <course>172.91</course>
  <speed>1.96</speed>
  <fix>3d</fix>
</trkpt>
<trkpt lat="-27.2741624" lon="151.2900757">
  <ele>355.19</ele>
  <time>2026-09-01T20:01:09Z</time>
  <course>85.59</course>
  <speed>2.2737853900489378</speed>
  <fix>3d</fix>
</trkpt>
<trkpt lat="-27.2741639" lon="151.2900759">
  <ele>355.19</ele>
  <time>2026-09-01T20:01:09Z</time>
  <course>89.96</course>
  <speed>2.3867970169245645</speed>
  <fix>3d</fix>
</trkpt>
<trkpt lat="-27.2741583" lon="151.2900751">
  <ele>355.26</ele>
  <time>2026-09-01T20:01:09Z</time>
  <course>172.91</course>
  <speed>1.96</speed>
  <fix>3d</fix>
</trkpt>
<trkpt lat="-27.2741645" lon="151.2900759">
  <ele>355.19</ele>
  <time>2026-09-01T20:01:09Z</time>
  <course>91.54</course>
  <speed>2.4352617929085163</speed>
  <fix>3d</fix>
</trkpt>
<trkpt lat="-27.2741661" lon="151.290076">
  <ele>355.18</ele>
  <time>2026-09-01T20:01:09Z</time>
  <course>95.86</course>
  <speed>2.5515877409957906</speed>
  <fix>3d</fix>
</trkpt>
<trkpt lat="-27.274162" lon="151.2900756">
  <ele>355.26</ele>
  <time>2026-09-01T20:01:09Z</time>
  <course>173.94</course>
  <speed>2.23</speed>
  <fix>3d</fix>
</trkpt>
<trkpt lat="-27.2741667" lon="151.290076">
  <ele>355.18</ele>
  <time>2026-09-01T20:01:09Z</time>
  <course>97.44</course>
  <speed>2.590694887477103</speed>
  <fix>3d</fix>
</trkpt>
<trkpt lat="-27.2741685" lon="151.2900761">
  <ele>355.18</ele>
  <time>2026-09-01T20:01:09Z</time>
  <course>101.81</course>
  <speed>2.7000185184550123</speed>
  <fix>3d</fix>
</trkpt>
<trkpt lat="-27.274162" lon="151.2900756">
  <ele>355.26</ele>
  <time>2026-09-01T20:01:09Z</time>
  <course>173.94</course>
  <speed>2.23</speed>
  <fix>3d</fix>
</trkpt>
<trkpt lat="-27.2741685" lon="151.2900761">
  <ele>355.18</ele>
  <time>2026-09-01T20:01:09Z</time>
  <course>102.01</course>
  <speed>2.71</speed>
  <fix>3d</fix>
</trkpt>
<trkpt lat="-27.2741709" lon="151.290076">
  <ele>355.19</ele>
  <time>2026-09-01T20:01:09Z</time>
  <course>107.87</course>
  <speed>2.8504385627478452</speed>
  <fix>3d</fix>
</trkpt>
<trkpt lat="-27.2741663" lon="151.290076">
  <ele>355.25</ele>
  <time>2026-09-01T20:01:09Z</time>
  <course>178.04</course>
  <speed>2.54</speed>
  <fix>3d</fix>
</trkpt>
<trkpt lat="-27.274171" lon="151.290076">
  <ele>355.19</ele>
  <time>2026-09-01T20:01:09Z</time>
  <course>108.08</course>
  <speed>2.8604370295463593</speed>
  <fix>3d</fix>
</trkpt>
<trkpt lat="-27.2741735" lon="151.290076">
  <ele>355.19</ele>
  <time>2026-09-01T20:01:09Z</time>
  <course>114.07</course>
  <speed>3.0016662039607267</speed>
  <fix>3d</fix>
</trkpt>
<trkpt lat="-27.2741663" lon="151.290076">
  <ele>355.25</ele>
  <time>2026-09-01T20:01:09Z</time>
  <course>178.04</course>
  <speed>2.54</speed>
  <fix>3d</fix>
</trkpt>
<trkpt lat="-27.2741742" lon="151.2900759">
  <ele>355.19</ele>
  <time>2026-09-01T20:01:09Z</time>
  <course>115.53</course>
  <speed>3.0319960422137755</speed>
  <fix>3d</fix>
</trkpt>
<trkpt lat="-27.2741763" lon="151.2900758">
  <ele>355.2</ele>
  <time>2026-09-01T20:01:09Z</time>
  <course>120.35</course>
  <speed>3.142689930616764</speed>
  <fix>3d</fix>
</trkpt>
<trkpt lat="-27.2741711" lon="151.290076">
  <ele>355.24</ele>
  <time>2026-09-01T20:01:09Z</time>
  <course>181.32</course>
  <speed>2.85</speed>
  <fix>3d</fix>
</trkpt>
<trkpt lat="-27.274177" lon="151.2900758">
  <ele>355.2</ele>
  <time>2026-09-01T20:01:09Z</time>
  <course>121.98</course>
  <speed>3.1830802691732423</speed>
  <fix>3d</fix>
</trkpt>
<trkpt lat="-27.2741791" lon="151.2900757">
  <ele>355.2</ele>
  <time>2026-09-01T20:01:09Z</time>
  <course>126.63</course>
  <speed>3.283900120283807</speed>
  <fix>3d</fix>
</trkpt>
<trkpt lat="-27.2741711" lon="151.290076">
  <ele>355.24</ele>
  <time>2026-09-01T20:01:09Z</time>
  <course>181.32</course>
  <speed>2.85</speed>
  <fix>3d</fix>
</trkpt>
<trkpt lat="-27.2741799" lon="151.2900756">
  <ele>355.2</ele>
  <time>2026-09-01T20:01:09Z</time>
  <course>128.24</course>
  <speed>3.3238531856867564</speed>
  <fix>3d</fix>
</trkpt>
<trkpt lat="-27.2741821" lon="151.2900755">
  <ele>355.21</ele>
  <time>2026-09-01T20:01:09Z</time>
  <course>132.83</course>
  <speed>3.4247335662792806</speed>
  <fix>3d</fix>
</trkpt>
<trkpt lat="-27.2741765" lon="151.2900757">
  <ele>355.24</ele>
  <time>2026-09-01T20:01:09Z</time>
  <course>182.9</course>
  <speed>3.14</speed>
  <fix>3d</fix>
</trkpt>
<trkpt lat="-27.2741829" lon="151.2900755">
  <ele>355.21</ele>
  <time>2026-09-01T20:01:09Z</time>
  <course>134.41</course>
  <speed>3.4646789173024386</speed>
  <fix>3d</fix>
</trkpt>
<trkpt lat="-27.2741852" lon="151.2900754">
  <ele>355.21</ele>
  <time>2026-09-01T20:01:09Z</time>
  <course>138.9</course>
  <speed>3.565613551690648</speed>
  <fix>3d</fix>
</trkpt>
<trkpt lat="-27.2741765" lon="151.2900757">
  <ele>355.24</ele>
  <time>2026-09-01T20:01:09Z</time>
  <course>182.9</course>
  <speed>3.14</speed>
  <fix>3d</fix>
</trkpt>
<trkpt lat="-27.274186" lon="151.2900753">
  <ele>355.22</ele>
  <time>2026-09-01T20:01:09Z</time>
  <course>140.3</course>
  <speed>3.59556671471967</speed>
  <fix>3d</fix>
</trkpt>
<trkpt lat="-27.2741885" lon="151.2900752">
  <ele>355.22</ele>
  <time>2026-09-01T20:01:09Z</time>
  <course>144.82</course>
  <speed>3.706534769835567</speed>
  <fix>3d</fix>
</trkpt>
<trkpt lat="-27.2741825" lon="151.2900754">
  <ele>355.25</ele>
  <time>2026-09-01T20:01:09Z</time>
  <course>183.57</course>
  <speed>3.43</speed>
  <fix>3d</fix>
</trkpt>
<trkpt lat="-27.2741894" lon="151.2900751">
  <ele>355.22</ele>
  <time>2026-09-01T20:01:09Z</time>
  <course>146.38</course>
  <speed>3.7464650005038083</speed>
  <fix>3d</fix>
</trkpt>
<trkpt lat="-27.2741918" lon="151.2900749">
  <ele>355.23</ele>
  <time>2026-09-01T20:01:09Z</time>
  <course>150.59</course>
  <speed>3.847492690051536</speed>
  <fix>3d</fix>
</trkpt>
<trkpt lat="-27.2741825" lon="151.2900754">
  <ele>355.25</ele>
  <time>2026-09-01T20:01:09Z</time>
  <course>183.57</course>
  <speed>3.43</speed>
  <fix>3d</fix>
</trkpt>
<trkpt lat="-27.2741926" lon="151.2900748">
  <ele>355.23</ele>
  <time>2026-09-01T20:01:09Z</time>
  <course>151.92</course>
  <speed>3.877434718986253</speed>
  <fix>3d</fix>
</trkpt>
<trkpt lat="-27.2741953" lon="151.2900746">
  <ele>355.24</ele>
  <time>2026-09-01T20:01:09Z</time>
  <course>156.23</course>
  <speed>3.9778637482950567</speed>
  <fix>3d</fix>
</trkpt>
<trkpt lat="-27.2741889" lon="151.290075">
  <ele>355.27</ele>
  <time>2026-09-01T20:01:09Z</time>
  <course>183.93</course>
  <speed>3.71</speed>
  <fix>3d</fix>
</trkpt>
<trkpt lat="-27.2741963" lon="151.2900746">
  <ele>355.24</ele>
  <time>2026-09-01T20:01:09Z</time>
  <course>157.71</course>
  <speed>4.018420087546846</speed>
  <fix>3d</fix>
</trkpt>
<trkpt lat="-27.2741989" lon="151.2900744">
  <ele>355.25</ele>
  <time>2026-09-01T20:01:09Z</time>
  <course>161.69</course>
  <speed>4.108880626155985</speed>
  <fix>3d</fix>
</trkpt>
<trkpt lat="-27.2741889" lon="151.290075">
  <ele>355.27</ele>
  <time>2026-09-01T20:01:09Z</time>
  <course>183.93</course>
  <speed>3.71</speed>
  <fix>3d</fix>
</trkpt>
<trkpt lat="-27.2741998" lon="151.2900743">
  <ele>355.25</ele>
  <time>2026-09-01T20:01:09Z</time>
  <course>163.0</course>
  <speed>4.1394806437523055</speed>
  <fix>3d</fix>
</trkpt>
<trkpt lat="-27.2742026" lon="151.290074">
  <ele>355.25</ele>
  <time>2026-09-01T20:01:09Z</time>
  <course>167.06</course>
  <speed>4.24062495394252</speed>
  <fix>3d</fix>
</trkpt>
<trkpt lat="-27.2741958" lon="151.2900743">
  <ele>355.28</ele>
  <time>2026-09-01T20:01:09Z</time>
  <course>184.24</course>
  <speed>3.98</speed>
  <fix>3d</fix>
</trkpt>
<trkpt lat="-27.2742028" lon="151.290074">
  <ele>355.25</ele>
  <time>2026-09-01T20:01:09Z</time>
  <course>167.27</course>
  <speed>4.250599957653037</speed>
  <fix>3d</fix>
</trkpt>
<trkpt lat="-27.2742065" lon="151.2900737">
  <ele>355.26</ele>
  <time>2026-09-01T20:01:09Z</time>
  <course>172.12</course>
  <speed>4.371727347399424</speed>
  <fix>3d</fix>
</trkpt>
<trkpt lat="-27.2741958" lon="151.2900743">
  <ele>355.28</ele>
  <time>2026-09-01T20:01:09Z</time>
  <course>184.24</course>
  <speed>3.98</speed>
  <fix>3d</fix>
</trkpt>
<trkpt lat="-27.2742066" lon="151.2900737">
  <ele>355.26</ele>
  <time>2026-09-01T20:01:09Z</time>
  <course>172.32</course>
  <speed>4.371727347399424</speed>
  <fix>3d</fix>
</trkpt>
<trkpt lat="-27.2742104" lon="151.2900733">
  <ele>355.27</ele>
  <time>2026-09-01T20:01:09Z</time>
  <course>176.66</course>
  <speed>4.493651076797129</speed>
  <fix>3d</fix>
</trkpt>
<trkpt lat="-27.2742032" lon="151.2900738">
  <ele>355.29</ele>
  <time>2026-09-01T20:01:09Z</time>
  <course>184.57</course>
  <speed>4.25</speed>
  <fix>3d</fix>
</trkpt>
<trkpt lat="-27.2742115" lon="151.2900732">
  <ele>355.27</ele>
  <time>2026-09-01T20:01:09Z</time>
  <course>177.8</course>
  <speed>4.523560544526844</speed>
  <fix>3d</fix>
</trkpt>
<trkpt lat="-27.2742145" lon="151.2900729">
  <ele>355.28</ele>
  <time>2026-09-01T20:01:09Z</time>
  <course>180.54</course>
  <speed>4.6048887065813</speed>
  <fix>3d</fix>
</trkpt>
<trkpt lat="-27.2742032" lon="151.2900738">
  <ele>355.29</ele>
  <time>2026-09-01T20:01:09Z</time>
  <course>184.57</course>
  <speed>4.25</speed>
  <fix>3d</fix>
</trkpt>
<trkpt lat="-27.2742156" lon="151.2900728">
  <ele>355.28</ele>
  <time>2026-09-01T20:01:09Z</time>
  <course>181.42</course>
  <speed>4.634792336232553</speed>
  <fix>3d</fix>
</trkpt>
<trkpt lat="-27.2742187" lon="151.2900725">
  <ele>355.28</ele>
  <time>2026-09-01T20:01:09Z</time>
  <course>183.51</course>
  <speed>4.716153093359035</speed>
  <fix>3d</fix>
</trkpt>
<trkpt lat="-27.274211" lon="151.2900731">
  <ele>355.3</ele>
  <time>2026-09-01T20:01:09Z</time>
  <course>184.92</course>
  <speed>4.5</speed>
  <fix>3d</fix>
</trkpt>
<trkpt lat="-27.2742198" lon="151.2900724">
  <ele>355.28</ele>
  <time>2026-09-01T20:01:09Z</time>
  <course>184.15</course>
  <speed>4.746050990033714</speed>
  <fix>3d</fix>
</trkpt>
<trkpt lat="-27.2742229" lon="151.2900721">
  <ele>355.29</ele>
  <time>2026-09-01T20:01:09Z</time>
  <course>185.57</course>
  <speed>4.816637831516918</speed>
  <fix>3d</fix>
</trkpt>
<trkpt lat="-27.274211" lon="151.2900731">
  <ele>355.3</ele>
  <time>2026-09-01T20:01:09Z</time>
  <course>184.92</course>
  <speed>4.5</speed>
  <fix>3d</fix>
</trkpt>
<trkpt lat="-27.2742239" lon="151.290072">
  <ele>355.29</ele>
  <time>2026-09-01T20:01:09Z</time>
  <course>185.91</course>
  <speed>4.83740632984247</speed>
  <fix>3d</fix>
</trkpt>
<trkpt lat="-27.2742274" lon="151.2900716">
  <ele>355.29</ele>
  <time>2026-09-01T20:01:09Z</time>
  <course>186.74</course>
  <speed>4.907158036990453</speed>
  <fix>3d</fix>
</trkpt>
<trkpt lat="-27.2742193" lon="151.2900722">
  <ele>355.31</ele>
  <time>2026-09-01T20:01:09Z</time>
  <course>185.18</course>
  <speed>4.72</speed>
  <fix>3d</fix>
</trkpt>
<trkpt lat="-27.2742286" lon="151.2900715">
  <ele>355.29</ele>
  <time>2026-09-01T20:01:09Z</time>
  <course>186.9</course>
  <speed>4.927088389708469</speed>
  <fix>3d</fix>
</trkpt>
<trkpt lat="-27.2742318" lon="151.2900712">
  <ele>355.3</ele>
  <time>2026-09-01T20:01:09Z</time>
  <course>187.09</course>
  <speed>4.987714907650596</speed>
  <fix>3d</fix>
</trkpt>
<trkpt lat="-27.2742193" lon="151.2900722">
  <ele>355.31</ele>
  <time>2026-09-01T20:01:09Z</time>
  <course>185.18</course>
  <speed>4.72</speed>
  <fix>3d</fix>
</trkpt>
<trkpt lat="-27.2742329" lon="151.2900711">
  <ele>355.3</ele>
  <time>2026-09-01T20:01:09Z</time>
  <course>187.09</course>
  <speed>4.997679461510112</speed>
  <fix>3d</fix>
</trkpt>
<trkpt lat="-27.2742363" lon="151.2900707">
  <ele>355.31</ele>
  <time>2026-09-01T20:01:09Z</time>
  <course>186.92</course>
  <speed>5.046682078356036</speed>
  <fix>3d</fix>
</trkpt>
<trkpt lat="-27.2742279" lon="151.2900713">
  <ele>355.32</ele>
  <time>2026-09-01T20:01:09Z</time>
  <course>185.26</course>
  <speed>4.91</speed>
  <fix>3d</fix>
</trkpt>
<trkpt lat="-27.2742375" lon="151.2900706">
  <ele>355.31</ele>
  <time>2026-09-01T20:01:09Z</time>
  <course>186.81</course>
  <speed>5.056649088081948</speed>
  <fix>3d</fix>
</trkpt>
<trkpt lat="-27.2742408" lon="151.2900703">
  <ele>355.31</ele>
  <time>2026-09-01T20:01:09Z</time>
  <course>186.47</course>
  <speed>5.086550894270105</speed>
  <fix>3d</fix>
</trkpt>
<trkpt lat="-27.2742279" lon="151.2900713">
  <ele>355.32</ele>
  <time>2026-09-01T20:01:09Z</time>
  <course>185.26</course>
  <speed>4.91</speed>
  <fix>3d</fix>
</trkpt>
<trkpt lat="-27.2742419" lon="151.2900702">
  <ele>355.31</ele>
  <time>2026-09-01T20:01:09Z</time>
  <course>186.34</course>
  <speed>5.095723697376066</speed>
  <fix>3d</fix>
</trkpt>
<trkpt lat="-27.2742453" lon="151.2900698">
  <ele>355.32</ele>
  <time>2026-09-01T20:01:09Z</time>
  <course>185.92</course>
  <speed>5.115662224971465</speed>
  <fix>3d</fix>
</trkpt>
<trkpt lat="-27.2742368" lon="151.2900704">
  <ele>355.32</ele>
  <time>2026-09-01T20:01:09Z</time>
  <course>185.13</course>
  <speed>5.05</speed>
  <fix>3d</fix>
</trkpt>
<trkpt lat="-27.2742457" lon="151.2900698">
  <ele>355.32</ele>
  <time>2026-09-01T20:01:09Z</time>
  <course>185.88</course>
  <speed>5.124860973724068</speed>
  <fix>3d</fix>
</trkpt>
<trkpt lat="-27.2742499" lon="151.2900694">
  <ele>355.33</ele>
  <time>2026-09-01T20:01:09Z</time>
  <course>185.41</course>
  <speed>5.134082196459266</speed>
  <fix>3d</fix>
</trkpt>
<trkpt lat="-27.2742368" lon="151.2900704">
  <ele>355.32</ele>
  <time>2026-09-01T20:01:09Z</time>
  <course>185.13</course>
  <speed>5.05</speed>
  <fix>3d</fix>
</trkpt>
<trkpt lat="-27.2742501" lon="151.2900694">
  <ele>355.33</ele>
  <time>2026-09-01T20:01:09Z</time>
  <course>185.4</course>
  <speed>5.134082196459266</speed>
  <fix>3d</fix>
</trkpt>
<trkpt lat="-27.2742544" lon="151.290069">
  <ele>355.33</ele>
  <time>2026-09-01T20:01:09Z</time>
  <course>185.01</course>
  <speed>5.143325772299476</speed>
  <fix>3d</fix>
</trkpt>
<trkpt lat="-27.274246" lon="151.2900695">
  <ele>355.33</ele>
  <time>2026-09-01T20:01:09Z</time>
  <course>184.85</course>
  <speed>5.13</speed>
  <fix>3d</fix>
</trkpt>
<trkpt lat="-27.2742556" lon="151.2900689">
  <ele>355.33</ele>
  <time>2026-09-01T20:01:09Z</time>
  <course>184.92</course>
  <speed>5.142616065778196</speed>
  <fix>3d</fix>
</trkpt>
<trkpt lat="-27.2742591" lon="151.2900686">
  <ele>355.34</ele>
  <time>2026-09-01T20:01:09Z</time>
  <course>184.7</course>
  <speed>5.14192570930386</speed>
  <fix>3d</fix>
</trkpt>
<trkpt lat="-27.274246" lon="151.2900695">
  <ele>355.33</ele>
  <time>2026-09-01T20:01:09Z</time>
  <course>184.85</course>
  <speed>5.13</speed>
  <fix>3d</fix>
</trkpt>
<trkpt lat="-27.2742602" lon="151.2900685">
  <ele>355.34</ele>
  <time>2026-09-01T20:01:09Z</time>
  <course>184.64</course>
  <speed>5.14192570930386</speed>
  <fix>3d</fix>
</trkpt>
<trkpt lat="-27.2742637" lon="151.2900682">
  <ele>355.34</ele>
  <time>2026-09-01T20:01:09Z</time>
  <course>184.48</course>
  <speed>5.131276644267</speed>
  <fix>3d</fix>
</trkpt>
<trkpt lat="-27.2742552" lon="151.2900687">
  <ele>355.34</ele>
  <time>2026-09-01T20:01:09Z</time>
  <course>184.51</course>
  <speed>5.15</speed>
  <fix>3d</fix>
</trkpt>
<trkpt lat="-27.2742648" lon="151.2900681">
  <ele>355.34</ele>
  <time>2026-09-01T20:01:09Z</time>
  <course>184.43</course>
  <speed>5.130623743756698</speed>
  <fix>3d</fix>
</trkpt>
<trkpt lat="-27.2742682" lon="151.2900679">
  <ele>355.35</ele>
  <time>2026-09-01T20:01:09Z</time>
  <course>184.31</course>
  <speed>5.1100293541231245</speed>
  <fix>3d</fix>
</trkpt>
<trkpt lat="-27.2742552" lon="151.2900687">
  <ele>355.34</ele>
  <time>2026-09-01T20:01:09Z</time>
  <course>184.51</course>
  <speed>5.15</speed>
  <fix>3d</fix>
</trkpt>
<trkpt lat="-27.2742694" lon="151.2900678">
  <ele>355.35</ele>
  <time>2026-09-01T20:01:09Z</time>
  <course>184.28</course>
  <speed>5.1100293541231245</speed>
  <fix>3d</fix>
</trkpt>
<trkpt lat="-27.2742728" lon="151.2900675">
  <ele>355.35</ele>
  <time>2026-09-01T20:01:09Z</time>
  <course>184.19</course>
  <speed>5.088850557837202</speed>
  <fix>3d</fix>
</trkpt>
<trkpt lat="-27.2742644" lon="151.2900679">
  <ele>355.35</ele>
  <time>2026-09-01T20:01:09Z</time>
  <course>184.16</course>
  <speed>5.14</speed>
  <fix>3d</fix>
</trkpt>
<trkpt lat="-27.274274" lon="151.2900674">
  <ele>355.35</ele>
  <time>2026-09-01T20:01:09Z</time>
  <course>184.15</course>
  <speed>5.07886798410827</speed>
  <fix>3d</fix>
</trkpt>
<trkpt lat="-27.2742774" lon="151.2900672">
  <ele>355.36</ele>
  <time>2026-09-01T20:01:09Z</time>
  <course>184.07</course>
  <speed>5.0583198791693675</speed>
  <fix>3d</fix>
</trkpt>
<trkpt lat="-27.2742644" lon="151.2900679">
  <ele>355.35</ele>
  <time>2026-09-01T20:01:09Z</time>
  <course>184.16</course>
  <speed>5.14</speed>
  <fix>3d</fix>
</trkpt>
<trkpt lat="-27.2742784" lon="151.2900671">
  <ele>355.36</ele>
  <time>2026-09-01T20:01:09Z</time>
  <course>184.04</course>
  <speed>5.0477717856495845</speed>
  <fix>3d</fix>
</trkpt>
<trkpt lat="-27.2742819" lon="151.2900668">
  <ele>355.36</ele>
  <time>2026-09-01T20:01:09Z</time>
  <course>183.96</course>
  <speed>5.017270174108626</speed>
  <fix>3d</fix>
</trkpt>
<trkpt lat="-27.2742736" lon="151.2900671">
  <ele>355.36</ele>
  <time>2026-09-01T20:01:09Z</time>
  <course>183.82</course>
  <speed>5.1</speed>
  <fix>3d</fix>
</trkpt>
<trkpt lat="-27.2742831" lon="151.2900667">
  <ele>355.36</ele>
  <time>2026-09-01T20:01:09Z</time>
  <course>183.92</course>
  <speed>5.007284693324317</speed>
  <fix>3d</fix>
</trkpt>
<trkpt lat="-27.2742864" lon="151.2900665">
  <ele>355.36</ele>
  <time>2026-09-01T20:01:09Z</time>
  <course>183.83</course>
  <speed>4.976796158172444</speed>
  <fix>3d</fix>
</trkpt>
<trkpt lat="-27.2742736" lon="151.2900671">
  <ele>355.36</ele>
  <time>2026-09-01T20:01:09Z</time>
  <course>183.82</course>
  <speed>5.1</speed>
  <fix>3d</fix>
</trkpt>
<trkpt lat="-27.2742874" lon="151.2900665">
  <ele>355.36</ele>
  <time>2026-09-01T20:01:09Z</time>
  <course>183.81</course>
  <speed>4.966296406780408</speed>
  <fix>3d</fix>
</trkpt>
<trkpt lat="-27.2742908" lon="151.2900662">
  <ele>355.36</ele>
  <time>2026-09-01T20:01:09Z</time>
  <course>183.71</course>
  <speed>4.9258501804257095</speed>
  <fix>3d</fix>
</trkpt>
<trkpt lat="-27.2742827" lon="151.2900665">
  <ele>355.36</ele>
  <time>2026-09-01T20:01:09Z</time>
  <course>183.5</course>
  <speed>5.03</speed>
  <fix>3d</fix>
</trkpt>
<trkpt lat="-27.274292" lon="151.2900662">
  <ele>355.36</ele>
  <time>2026-09-01T20:01:09Z</time>
  <course>183.67</course>
  <speed>4.915862081059639</speed>
  <fix>3d</fix>
</trkpt>
<trkpt lat="-27.2742952" lon="151.290066">
  <ele>355.36</ele>
  <time>2026-09-01T20:01:09Z</time>
  <course>183.57</course>
  <speed>4.875428186323741</speed>
  <fix>3d</fix>
</trkpt>
<trkpt lat="-27.2742827" lon="151.2900665">
  <ele>355.36</ele>
  <time>2026-09-01T20:01:09Z</time>
  <course>183.5</course>
  <speed>5.03</speed>
  <fix>3d</fix>
</trkpt>
<trkpt lat="-27.2742954" lon="151.290066">
  <ele>355.36</ele>
  <time>2026-09-01T20:01:09Z</time>
  <course>183.56</course>
  <speed>4.875428186323741</speed>
  <fix>3d</fix>
</trkpt>
<trkpt lat="-27.2742996" lon="151.2900657">
  <ele>355.36</ele>
  <time>2026-09-01T20:01:09Z</time>
  <course>183.42</course>
  <speed>4.824572519923397</speed>
  <fix>3d</fix>
</trkpt>
<trkpt lat="-27.2742916" lon="151.2900659">
  <ele>355.36</ele>
  <time>2026-09-01T20:01:09Z</time>
  <course>183.19</course>
  <speed>4.94</speed>
  <fix>3d</fix>
</trkpt>
<trkpt lat="-27.2742998" lon="151.2900657">
  <ele>355.36</ele>
  <time>2026-09-01T20:01:09Z</time>
  <course>183.42</course>
  <speed>4.814582017164106</speed>
  <fix>3d</fix>
</trkpt>
<trkpt lat="-27.2743039" lon="151.2900655">
  <ele>355.36</ele>
  <time>2026-09-01T20:01:09Z</time>
  <course>183.28</course>
  <speed>4.764199827882957</speed>
  <fix>3d</fix>
</trkpt>
<trkpt lat="-27.2742916" lon="151.2900659">
  <ele>355.36</ele>
  <time>2026-09-01T20:01:09Z</time>
  <course>183.19</course>
  <speed>4.94</speed>
  <fix>3d</fix>
</trkpt>
<trkpt lat="-27.2743051" lon="151.2900654">
  <ele>355.36</ele>
  <time>2026-09-01T20:01:09Z</time>
  <course>183.24</course>
  <speed>4.7442175329552505</speed>
  <fix>3d</fix>
</trkpt>
<trkpt lat="-27.2743082" lon="151.2900652">
  <ele>355.35</ele>
  <time>2026-09-01T20:01:09Z</time>
  <course>183.13</course>
  <speed>4.693847036280582</speed>
  <fix>3d</fix>
</trkpt>
<trkpt lat="-27.2743004" lon="151.2900654">
  <ele>355.35</ele>
  <time>2026-09-01T20:01:09Z</time>
  <course>182.89</course>
  <speed>4.83</speed>
  <fix>3d</fix>
</trkpt>
<trkpt lat="-27.2743093" lon="151.2900652">
  <ele>355.35</ele>
  <time>2026-09-01T20:01:09Z</time>
  <course>183.09</course>
  <speed>4.683460259252768</speed>
  <fix>3d</fix>
</trkpt>
<trkpt lat="-27.2743124" lon="151.290065">
  <ele>355.34</ele>
  <time>2026-09-01T20:01:09Z</time>
  <course>182.97</course>
  <speed>4.633119899160824</speed>
  <fix>3d</fix>
</trkpt>
<trkpt lat="-27.2743004" lon="151.2900654">
  <ele>355.35</ele>
  <time>2026-09-01T20:01:09Z</time>
  <course>182.89</course>
  <speed>4.83</speed>
  <fix>3d</fix>
</trkpt>
<trkpt lat="-27.2743134" lon="151.290065">
  <ele>355.34</ele>
  <time>2026-09-01T20:01:09Z</time>
  <course>182.94</course>
  <speed>4.613133425341174</speed>
  <fix>3d</fix>
</trkpt>
<trkpt lat="-27.2743166" lon="151.2900648">
  <ele>355.33</ele>
  <time>2026-09-01T20:01:09Z</time>
  <course>182.83</course>
  <speed>4.562806154111744</speed>
  <fix>3d</fix>
</trkpt>
<trkpt lat="-27.274309" lon="151.2900649">
  <ele>355.34</ele>
  <time>2026-09-01T20:01:09Z</time>
  <course>182.6</course>
  <speed>4.7</speed>
  <fix>3d</fix>
</trkpt>
<trkpt lat="-27.2743177" lon="151.2900647">
  <ele>355.33</ele>
  <time>2026-09-01T20:01:09Z</time>
  <course>182.79</course>
  <speed>4.542818508371207</speed>
  <fix>3d</fix>
</trkpt>
<trkpt lat="-27.2743208" lon="151.2900646">
  <ele>355.32</ele>
  <time>2026-09-01T20:01:09Z</time>
  <course>182.68</course>
  <speed>4.49250486922385</speed>
  <fix>3d</fix>
</trkpt>
<trkpt lat="-27.274309" lon="151.2900649">
  <ele>355.34</ele>
  <time>2026-09-01T20:01:09Z</time>
  <course>182.6</course>
  <speed>4.7</speed>
  <fix>3d</fix>
</trkpt>
<trkpt lat="-27.2743217" lon="151.2900646">
  <ele>355.32</ele>
  <time>2026-09-01T20:01:09Z</time>
  <course>182.65</course>
  <speed>4.472191856349635</speed>
  <fix>3d</fix>
</trkpt>
<trkpt lat="-27.2743248" lon="151.2900644">
  <ele>355.31</ele>
  <time>2026-09-01T20:01:09Z</time>
  <course>182.54</course>
  <speed>4.421911351440687</speed>
  <fix>3d</fix>
</trkpt>
<trkpt lat="-27.2743173" lon="151.2900645">
  <ele>355.33</ele>
  <time>2026-09-01T20:01:09Z</time>
  <course>182.3</course>
  <speed>4.57</speed>
  <fix>3d</fix>
</trkpt>
<trkpt lat="-27.2743259" lon="151.2900644">
  <ele>355.31</ele>
  <time>2026-09-01T20:01:09Z</time>
  <course>182.5</course>
  <speed>4.40192003562082</speed>
  <fix>3d</fix>
</trkpt>
<trkpt lat="-27.2743287" lon="151.2900643">
  <ele>355.3</ele>
  <time>2026-09-01T20:01:09Z</time>
  <course>182.4</course>
  <speed>4.351654857637494</speed>
  <fix>3d</fix>
</trkpt>
<trkpt lat="-27.2743173" lon="151.2900645">
  <ele>355.33</ele>
  <time>2026-09-01T20:01:09Z</time>
  <course>182.3</course>
  <speed>4.57</speed>
  <fix>3d</fix>
</trkpt>
<trkpt lat="-27.2743297" lon="151.2900642">
  <ele>355.3</ele>
  <time>2026-09-01T20:01:09Z</time>
  <course>182.36</course>
  <speed>4.341658669218482</speed>
  <fix>3d</fix>
</trkpt>
<trkpt lat="-27.2743326" lon="151.2900641">
  <ele>355.29</ele>
  <time>2026-09-01T20:01:09Z</time>
  <course>182.26</course>
  <speed>4.291410024688855</speed>
  <fix>3d</fix>
</trkpt>
<trkpt lat="-27.2743254" lon="151.2900642">
  <ele>355.31</ele>
  <time>2026-09-01T20:01:09Z</time>
  <course>182.01</course>
  <speed>4.43</speed>
  <fix>3d</fix>
</trkpt>
<trkpt lat="-27.2743337" lon="151.2900641">
  <ele>355.29</ele>
  <time>2026-09-01T20:01:09Z</time>
  <course>182.22</course>
  <speed>4.271170799675424</speed>
  <fix>3d</fix>
</trkpt>
<trkpt lat="-27.2743365" lon="151.290064">
  <ele>355.29</ele>
  <time>2026-09-01T20:01:09Z</time>
  <course>182.11</course>
  <speed>4.231181867989132</speed>
  <fix>3d</fix>
</trkpt>
<trkpt lat="-27.2743254" lon="151.2900642">
  <ele>355.31</ele>
  <time>2026-09-01T20:01:09Z</time>
  <course>182.01</course>
  <speed>4.43</speed>
  <fix>3d</fix>
</trkpt>
<trkpt lat="-27.2743366" lon="151.290064">
  <ele>355.29</ele>
  <time>2026-09-01T20:01:09Z</time>
  <course>182.11</course>
  <speed>4.220959606534987</speed>
  <fix>3d</fix>
</trkpt>
<trkpt lat="-27.2743403" lon="151.2900639">
  <ele>355.28</ele>
  <time>2026-09-01T20:01:09Z</time>
  <course>181.97</course>
  <speed>4.16076915966267</speed>
  <fix>3d</fix>
</trkpt>
<trkpt lat="-27.2743332" lon="151.2900639">
  <ele>355.28</ele>
  <time>2026-09-01T20:01:09Z</time>
  <course>181.7</course>
  <speed>4.29</speed>
  <fix>3d</fix>
</trkpt>
<trkpt lat="-27.2743404" lon="151.2900639">
  <ele>355.28</ele>
  <time>2026-09-01T20:01:09Z</time>
  <course>181.96</course>
  <speed>4.16076915966267</speed>
  <fix>3d</fix>
</trkpt>
<trkpt lat="-27.274344" lon="151.2900638">
  <ele>355.27</ele>
  <time>2026-09-01T20:01:09Z</time>
  <course>181.82</course>
  <speed>4.100597517435721</speed>
  <fix>3d</fix>
</trkpt>
<trkpt lat="-27.2743332" lon="151.2900639">
  <ele>355.28</ele>
  <time>2026-09-01T20:01:09Z</time>
  <course>181.7</course>
  <speed>4.29</speed>
  <fix>3d</fix>
</trkpt>
<trkpt lat="-27.274345" lon="151.2900638">
  <ele>355.26</ele>
  <time>2026-09-01T20:01:09Z</time>
  <course>181.78</course>
  <speed>4.090598978144888</speed>
  <fix>3d</fix>
</trkpt>
<trkpt lat="-27.2743477" lon="151.2900637">
  <ele>355.26</ele>
  <time>2026-09-01T20:01:09Z</time>
  <course>181.67</course>
  <speed>4.050444420060594</speed>
  <fix>3d</fix>
</trkpt>
<trkpt lat="-27.2743408" lon="151.2900637">
  <ele>355.27</ele>
  <time>2026-09-01T20:01:09Z</time>
  <course>181.39</course>
  <speed>4.16</speed>
  <fix>3d</fix>
</trkpt>
<trkpt lat="-27.2743487" lon="151.2900637">
  <ele>355.26</ele>
  <time>2026-09-01T20:01:09Z</time>
  <course>181.64</course>
  <speed>4.030446625375406</speed>
  <fix>3d</fix>
</trkpt>
<trkpt lat="-27.2743513" lon="151.2900636">
  <ele>355.25</ele>
  <time>2026-09-01T20:01:09Z</time>
  <course>181.53</course>
  <speed>3.990313270909942</speed>
  <fix>3d</fix>
</trkpt>
<trkpt lat="-27.2743408" lon="151.2900637">
  <ele>355.27</ele>
  <time>2026-09-01T20:01:09Z</time>
  <course>181.39</course>
  <speed>4.16</speed>
  <fix>3d</fix>
</trkpt>
<trkpt lat="-27.2743514" lon="151.2900636">
  <ele>355.25</ele>
  <time>2026-09-01T20:01:09Z</time>
  <course>181.52</course>
  <speed>3.990313270909942</speed>
  <fix>3d</fix>
</trkpt>
<trkpt lat="-27.2743549" lon="151.2900635">
  <ele>355.24</ele>
  <time>2026-09-01T20:01:09Z</time>
  <course>181.38</course>
  <speed>3.930203557069277</speed>
  <fix>3d</fix>
</trkpt>
<trkpt lat="-27.2743482" lon="151.2900634">
  <ele>355.25</ele>
  <time>2026-09-01T20:01:09Z</time>
  <course>181.07</course>
  <speed>4.04</speed>
  <fix>3d</fix>
</trkpt>
<trkpt lat="-27.274355" lon="151.2900635">
  <ele>355.24</ele>
  <time>2026-09-01T20:01:09Z</time>
  <course>181.37</course>
  <speed>3.930203557069277</speed>
  <fix>3d</fix>
</trkpt>
<trkpt lat="-27.2743584" lon="151.2900635">
  <ele>355.24</ele>
  <time>2026-09-01T20:01:09Z</time>
  <course>181.23</course>
  <speed>3.880115977648091</speed>
  <fix>3d</fix>
</trkpt>
<trkpt lat="-27.2743482" lon="151.2900634">
  <ele>355.25</ele>
  <time>2026-09-01T20:01:09Z</time>
  <course>181.07</course>
  <speed>4.04</speed>
  <fix>3d</fix>
</trkpt>
<trkpt lat="-27.2743592" lon="151.2900635">
  <ele>355.23</ele>
  <time>2026-09-01T20:01:09Z</time>
  <course>181.21</course>
  <speed>3.8701162773229436</speed>
  <fix>3d</fix>
</trkpt>
<trkpt lat="-27.2743619" lon="151.2900634">
  <ele>355.23</ele>
  <time>2026-09-01T20:01:09Z</time>
  <course>181.11</course>
  <speed>3.840052082980125</speed>
  <fix>3d</fix>
</trkpt>
<trkpt lat="-27.2743554" lon="151.2900633">
  <ele>355.23</ele>
  <time>2026-09-01T20:01:09Z</time>
  <course>180.74</course>
  <speed>3.93</speed>
  <fix>3d</fix>
</trkpt>
<trkpt lat="-27.2743628" lon="151.2900634">
  <ele>355.23</ele>
  <time>2026-09-01T20:01:09Z</time>
  <course>181.08</course>
  <speed>3.830052218965167</speed>
  <fix>3d</fix>
</trkpt>
<trkpt lat="-27.2743653" lon="151.2900634">
  <ele>355.22</ele>
  <time>2026-09-01T20:01:09Z</time>
  <course>181.01</course>
  <speed>3.7900131925891767</speed>
  <fix>3d</fix>
</trkpt>
<trkpt lat="-27.2743554" lon="151.2900633">
  <ele>355.23</ele>
  <time>2026-09-01T20:01:09Z</time>
  <course>180.74</course>
  <speed>3.93</speed>
  <fix>3d</fix>
</trkpt>
<trkpt lat="-27.2743661" lon="151.2900634">
  <ele>355.22</ele>
  <time>2026-09-01T20:01:09Z</time>
  <course>181.0</course>
  <speed>3.7800132274900835</speed>
  <fix>3d</fix>
</trkpt>
<trkpt lat="-27.2743686" lon="151.2900634">
  <ele>355.22</ele>
  <time>2026-09-01T20:01:09Z</time>
  <course>180.94</course>
  <speed>3.74</speed>
  <fix>3d</fix>
</trkpt>
<trkpt lat="-27.2743623" lon="151.2900632">
  <ele>355.22</ele>
  <time>2026-09-01T20:01:09Z</time>
  <course>180.41</course>
  <speed>3.83</speed>
  <fix>3d</fix>
</trkpt>
<trkpt lat="-27.2743695" lon="151.2900634">
  <ele>355.22</ele>
  <time>2026-09-01T20:01:09Z</time>
  <course>180.93</course>
  <speed>3.73</speed>
  <fix>3d</fix>
</trkpt>
<trkpt lat="-27.274372" lon="151.2900633">
  <ele>355.22</ele>
  <time>2026-09-01T20:01:09Z</time>
  <course>180.9</course>
  <speed>3.69</speed>
  <fix>3d</fix>
</trkpt>
<trkpt lat="-27.2743623" lon="151.2900632">
  <ele>355.22</ele>
  <time>2026-09-01T20:01:09Z</time>
  <course>180.41</course>
  <speed>3.83</speed>
  <fix>3d</fix>
</trkpt>
<trkpt lat="-27.2743728" lon="151.2900633">
  <ele>355.22</ele>
  <time>2026-09-01T20:01:09Z</time>
  <course>180.89</course>
  <speed>3.67</speed>
  <fix>3d</fix>
</trkpt>
<trkpt lat="-27.2743752" lon="151.2900633">
  <ele>355.21</ele>
  <time>2026-09-01T20:01:09Z</time>
  <course>180.87</course>
  <speed>3.620013812128346</speed>
  <fix>3d</fix>
</trkpt>
<trkpt lat="-27.2743691" lon="151.2900632">
  <ele>355.21</ele>
  <time>2026-09-01T20:01:09Z</time>
  <course>180.09</course>
  <speed>3.73</speed>
  <fix>3d</fix>
</trkpt>
<trkpt lat="-27.2743754" lon="151.2900633">
  <ele>355.21</ele>
  <time>2026-09-01T20:01:09Z</time>
  <course>180.87</course>
  <speed>3.6100138503889427</speed>
  <fix>3d</fix>
</trkpt>
<trkpt lat="-27.2743785" lon="151.2900633">
  <ele>355.21</ele>
  <time>2026-09-01T20:01:09Z</time>
  <course>180.87</course>
  <speed>3.5300141642775316</speed>
  <fix>3d</fix>
</trkpt>
<trkpt lat="-27.2743691" lon="151.2900632">
  <ele>355.21</ele>
  <time>2026-09-01T20:01:09Z</time>
  <course>180.09</course>
  <speed>3.73</speed>
  <fix>3d</fix>
</trkpt>
<trkpt lat="-27.2743786" lon="151.2900633">
  <ele>355.21</ele>
  <time>2026-09-01T20:01:09Z</time>
  <course>180.86</course>
  <speed>3.5300141642775316</speed>
  <fix>3d</fix>
</trkpt>
<trkpt lat="-27.2743816" lon="151.2900634">
  <ele>355.21</ele>
  <time>2026-09-01T20:01:09Z</time>
  <course>180.87</course>
  <speed>3.430058308542291</speed>
  <fix>3d</fix>
</trkpt>
<trkpt lat="-27.2743757" lon="151.2900632">
  <ele>355.2</ele>
  <time>2026-09-01T20:01:09Z</time>
  <course>179.78</course>
  <speed>3.6</speed>
  <fix>3d</fix>
</trkpt>
<trkpt lat="-27.2743822" lon="151.2900634">
  <ele>355.21</ele>
  <time>2026-09-01T20:01:09Z</time>
  <course>180.87</course>
  <speed>3.410058650522011</speed>
  <fix>3d</fix>
</trkpt>
<trkpt lat="-27.2743847" lon="151.2900634">
  <ele>355.21</ele>
  <time>2026-09-01T20:01:09Z</time>
  <course>180.87</course>
  <speed>3.3201355394019685</speed>
  <fix>3d</fix>
</trkpt>
<trkpt lat="-27.2743757" lon="151.2900632">
  <ele>355.2</ele>
  <time>2026-09-01T20:01:09Z</time>
  <course>179.78</course>
  <speed>3.6</speed>
  <fix>3d</fix>
</trkpt>
<trkpt lat="-27.2743852" lon="151.2900634">
  <ele>355.21</ele>
  <time>2026-09-01T20:01:09Z</time>
  <course>180.87</course>
  <speed>3.3001363608190495</speed>
  <fix>3d</fix>
</trkpt>
<trkpt lat="-27.2743876" lon="151.2900634">
  <ele>355.21</ele>
  <time>2026-09-01T20:01:09Z</time>
  <course>180.88</course>
  <speed>3.2001406219102306</speed>
  <fix>3d</fix>
</trkpt>
<trkpt lat="-27.274382" lon="151.2900632">
  <ele>355.2</ele>
  <time>2026-09-01T20:01:09Z</time>
  <course>179.5</course>
  <speed>3.42</speed>
  <fix>3d</fix>
</trkpt>
<trkpt lat="-27.2743882" lon="151.2900634">
  <ele>355.21</ele>
  <time>2026-09-01T20:01:09Z</time>
  <course>180.88</course>
  <speed>3.170141952657641</speed>
  <fix>3d</fix>
</trkpt>
<trkpt lat="-27.2743904" lon="151.2900634">
  <ele>355.21</ele>
  <time>2026-09-01T20:01:09Z</time>
  <course>180.88</course>
  <speed>3.0702605752606735</speed>
  <fix>3d</fix>
</trkpt>
<trkpt lat="-27.274382" lon="151.2900632">
  <ele>355.2</ele>
  <time>2026-09-01T20:01:09Z</time>
  <course>179.5</course>
  <speed>3.42</speed>
  <fix>3d</fix>
</trkpt>
<trkpt lat="-27.2743909" lon="151.2900634">
  <ele>355.21</ele>
  <time>2026-09-01T20:01:09Z</time>
  <course>180.88</course>
  <speed>3.0402631465055783</speed>
  <fix>3d</fix>
</trkpt>
<trkpt lat="-27.2743932" lon="151.2900634">
  <ele>355.22</ele>
  <time>2026-09-01T20:01:09Z</time>
  <course>180.88</course>
  <speed>2.9202739597510368</speed>
  <fix>3d</fix>
</trkpt>
<trkpt lat="-27.274388" lon="151.2900632">
  <ele>355.21</ele>
  <time>2026-09-01T20:01:09Z</time>
  <course>179.24</course>
  <speed>3.19</speed>
  <fix>3d</fix>
</trkpt>
<trkpt lat="-27.2743937" lon="151.2900634">
  <ele>355.22</ele>
  <time>2026-09-01T20:01:09Z</time>
  <course>180.88</course>
  <speed>2.900275848949544</speed>
  <fix>3d</fix>
</trkpt>
<trkpt lat="-27.2743958" lon="151.2900634">
  <ele>355.22</ele>
  <time>2026-09-01T20:01:09Z</time>
  <course>180.88</course>
  <speed>2.7902867236182023</speed>
  <fix>3d</fix>
</trkpt>
<trkpt lat="-27.274388" lon="151.2900632">
  <ele>355.21</ele>
  <time>2026-09-01T20:01:09Z</time>
  <course>179.24</course>
  <speed>3.19</speed>
  <fix>3d</fix>
</trkpt>
<trkpt lat="-27.2743962" lon="151.2900634">
  <ele>355.22</ele>
  <time>2026-09-01T20:01:09Z</time>
  <course>180.88</course>
  <speed>2.7602898398537787</speed>
  <fix>3d</fix>
</trkpt>
<trkpt lat="-27.2743982" lon="151.2900634">
  <ele>355.22</ele>
  <time>2026-09-01T20:01:09Z</time>
  <course>180.88</course>
  <speed>2.6504716561397146</speed>
  <fix>3d</fix>
</trkpt>
<trkpt lat="-27.2743935" lon="151.2900633">
  <ele>355.21</ele>
  <time>2026-09-01T20:01:09Z</time>
  <course>179.0</course>
  <speed>2.92</speed>
  <fix>3d</fix>
</trkpt>
<trkpt lat="-27.2743987" lon="151.2900635">
  <ele>355.22</ele>
  <time>2026-09-01T20:01:09Z</time>
  <course>180.88</course>
  <speed>2.620477055804916</speed>
  <fix>3d</fix>
</trkpt>
<trkpt lat="-27.2744005" lon="151.2900635">
  <ele>355.22</ele>
  <time>2026-09-01T20:01:09Z</time>
  <course>180.88</course>
  <speed>2.5104979585731595</speed>
  <fix>3d</fix>
</trkpt>
<trkpt lat="-27.2743935" lon="151.2900633">
  <ele>355.21</ele>
  <time>2026-09-01T20:01:09Z</time>
  <course>179.0</course>
  <speed>2.92</speed>
  <fix>3d</fix>
</trkpt>
<trkpt lat="-27.2744006" lon="151.2900635">
  <ele>355.22</ele>
  <time>2026-09-01T20:01:09Z</time>
  <course>180.88</course>
  <speed>2.5004999500099974</speed>
  <fix>3d</fix>
</trkpt>
<trkpt lat="-27.2744027" lon="151.2900635">
  <ele>355.22</ele>
  <time>2026-09-01T20:01:09Z</time>
  <course>180.88</course>
  <speed>2.3705273674859777</speed>
  <fix>3d</fix>
</trkpt>
<trkpt lat="-27.2743985" lon="151.2900634">
  <ele>355.22</ele>
  <time>2026-09-01T20:01:09Z</time>
  <course>178.76</course>
  <speed>2.65</speed>
  <fix>3d</fix>
</trkpt>
<trkpt lat="-27.2744028" lon="151.2900635">
  <ele>355.22</ele>
  <time>2026-09-01T20:01:09Z</time>
  <course>180.88</course>
  <speed>2.3605296015936763</speed>
  <fix>3d</fix>
</trkpt>
<trkpt lat="-27.2744048" lon="151.2900636">
  <ele>355.23</ele>
  <time>2026-09-01T20:01:09Z</time>
  <course>180.88</course>
  <speed>2.230560467685196</speed>
  <fix>3d</fix>
</trkpt>
<trkpt lat="-27.2743985" lon="151.2900634">
  <ele>355.22</ele>
  <time>2026-09-01T20:01:09Z</time>
  <course>178.76</course>
  <speed>2.65</speed>
  <fix>3d</fix>
</trkpt>
<trkpt lat="-27.2744049" lon="151.2900636">
  <ele>355.23</ele>
  <time>2026-09-01T20:01:09Z</time>
  <course>180.88</course>
  <speed>2.230560467685196</speed>
  <fix>3d</fix>
</trkpt>
<trkpt lat="-27.2744068" lon="151.2900636">
  <ele>355.23</ele>
  <time>2026-09-01T20:01:09Z</time>
  <course>180.88</course>
  <speed>2.1005951537600005</speed>
  <fix>3d</fix>
</trkpt>
<trkpt lat="-27.274403" lon="151.2900636">
  <ele>355.23</ele>
  <time>2026-09-01T20:01:09Z</time>
  <course>178.51</course>
  <speed>2.37</speed>
  <fix>3d</fix>
</trkpt>
<trkpt lat="-27.2744072" lon="151.2900637">
  <ele>355.23</ele>
  <time>2026-09-01T20:01:09Z</time>
  <course>180.88</course>
  <speed>2.0706037766796426</speed>
  <fix>3d</fix>
</trkpt>
<trkpt lat="-27.2744086" lon="151.2900637">
  <ele>355.23</ele>
  <time>2026-09-01T20:01:09Z</time>
  <course>180.88</course>
  <speed>1.9706344156134086</speed>
  <fix>3d</fix>
</trkpt>
<trkpt lat="-27.274403" lon="151.2900636">
  <ele>355.23</ele>
  <time>2026-09-01T20:01:09Z</time>
  <course>178.51</course>
  <speed>2.37</speed>
  <fix>3d</fix>
</trkpt>
<trkpt lat="-27.2744089" lon="151.2900637">
  <ele>355.23</ele>
  <time>2026-09-01T20:01:09Z</time>
  <course>180.88</course>
  <speed>1.9506409203131159</speed>
  <fix>3d</fix>
</trkpt>
<trkpt lat="-27.2744104" lon="151.2900638">
  <ele>355.23</ele>
  <time>2026-09-01T20:01:09Z</time>
  <course>180.88</course>
  <speed>1.8406792224611002</speed>
  <fix>3d</fix>
</trkpt>
<trkpt lat="-27.2744071" lon="151.2900637">
  <ele>355.22</ele>
  <time>2026-09-01T20:01:09Z</time>
  <course>178.25</course>
  <speed>2.1</speed>
  <fix>3d</fix>
</trkpt>
<trkpt lat="-27.2744106" lon="151.2900638">
  <ele>355.23</ele>
  <time>2026-09-01T20:01:09Z</time>
  <course>180.89</course>
  <speed>1.820686683644388</speed>
  <fix>3d</fix>
</trkpt>
<trkpt lat="-27.274412" lon="151.2900638">
  <ele>355.22</ele>
  <time>2026-09-01T20:01:09Z</time>
  <course>180.89</course>
  <speed>1.710730837975396</speed>
  <fix>3d</fix>
</trkpt>
<trkpt lat="-27.2744071" lon="151.2900637">
  <ele>355.22</ele>
  <time>2026-09-01T20:01:09Z</time>
  <course>178.25</course>
  <speed>2.1</speed>
  <fix>3d</fix>
</trkpt>
<trkpt lat="-27.2744122" lon="151.2900638">
  <ele>355.22</ele>
  <time>2026-09-01T20:01:09Z</time>
  <course>180.89</course>
  <speed>1.6907394831847986</speed>
  <fix>3d</fix>
</trkpt>
<trkpt lat="-27.2744135" lon="151.2900639">
  <ele>355.22</ele>
  <time>2026-09-01T20:01:09Z</time>
  <course>180.9</course>
  <speed>1.5907859692617357</speed>
  <fix>3d</fix>
</trkpt>
<trkpt lat="-27.2744106" lon="151.2900638">
  <ele>355.22</ele>
  <time>2026-09-01T20:01:09Z</time>
  <course>177.96</course>
  <speed>1.84</speed>
  <fix>3d</fix>
</trkpt>
<trkpt lat="-27.2744138" lon="151.2900639">
  <ele>355.22</ele>
  <time>2026-09-01T20:01:09Z</time>
  <course>180.9</course>
  <speed>1.5707959765672945</speed>
  <fix>3d</fix>
</trkpt>
<trkpt lat="-27.2744149" lon="151.2900639">
  <ele>355.22</ele>
  <time>2026-09-01T20:01:09Z</time>
  <course>180.9</course>
  <speed>1.4808443537387717</speed>
  <fix>3d</fix>
</trkpt>
<trkpt lat="-27.2744106" lon="151.2900638">
  <ele>355.22</ele>
  <time>2026-09-01T20:01:09Z</time>
  <course>177.96</course>
  <speed>1.84</speed>
  <fix>3d</fix>
</trkpt>
<trkpt lat="-27.2744151" lon="151.2900639">
  <ele>355.22</ele>
  <time>2026-09-01T20:01:09Z</time>
  <course>180.9</course>
  <speed>1.4608559134972896</speed>
  <fix>3d</fix>
</trkpt>
<trkpt lat="-27.2744162" lon="151.290064">
  <ele>355.21</ele>
  <time>2026-09-01T20:01:09Z</time>
  <course>180.91</course>
  <speed>1.3609188072769072</speed>
  <fix>3d</fix>
</trkpt>
<trkpt lat="-27.2744136" lon="151.290064">
  <ele>355.21</ele>
  <time>2026-09-01T20:01:09Z</time>
  <course>177.64</course>
  <speed>1.59</speed>
  <fix>3d</fix>
</trkpt>
<trkpt lat="-27.2744164" lon="151.290064">
  <ele>355.21</ele>
  <time>2026-09-01T20:01:09Z</time>
  <course>180.91</course>
  <speed>1.3409325113517085</speed>
  <fix>3d</fix>
</trkpt>
<trkpt lat="-27.2744173" lon="151.290064">
  <ele>355.21</ele>
  <time>2026-09-01T20:01:09Z</time>
  <course>180.92</course>
  <speed>1.260634760745554</speed>
  <fix>3d</fix>
</trkpt>
<trkpt lat="-27.2744136" lon="151.290064">
  <ele>355.21</ele>
  <time>2026-09-01T20:01:09Z</time>
  <course>177.64</course>
  <speed>1.59</speed>
  <fix>3d</fix>
</trkpt>
<trkpt lat="-27.2744175" lon="151.2900641">
  <ele>355.21</ele>
  <time>2026-09-01T20:01:09Z</time>
  <course>180.92</course>
  <speed>1.240644993541666</speed>
  <fix>3d</fix>
</trkpt>
<trkpt lat="-27.2744184" lon="151.2900641">
  <ele>355.21</ele>
  <time>2026-09-01T20:01:09Z</time>
  <course>180.92</course>
  <speed>1.1506954418958997</speed>
  <fix>3d</fix>
</trkpt>
<trkpt lat="-27.2744163" lon="151.2900641">
  <ele>355.2</ele>
  <time>2026-09-01T20:01:09Z</time>
  <course>177.3</course>
  <speed>1.36</speed>
  <fix>3d</fix>
</trkpt>
<trkpt lat="-27.2744186" lon="151.2900641">
  <ele>355.21</ele>
  <time>2026-09-01T20:01:09Z</time>
  <course>180.92</course>
  <speed>1.140701538527936</speed>
  <fix>3d</fix>
</trkpt>
<trkpt lat="-27.2744194" lon="151.2900642">
  <ele>355.2</ele>
  <time>2026-09-01T20:01:09Z</time>
  <course>180.93</course>
  <speed>1.0507616285342742</speed>
  <fix>3d</fix>
</trkpt>
<trkpt lat="-27.2744163" lon="151.2900641">
  <ele>355.2</ele>
  <time>2026-09-01T20:01:09Z</time>
  <course>177.3</course>
  <speed>1.36</speed>
  <fix>3d</fix>
</trkpt>
<trkpt lat="-27.2744195" lon="151.2900642">
  <ele>355.2</ele>
  <time>2026-09-01T20:01:09Z</time>
  <course>180.93</course>
  <speed>1.0507616285342742</speed>
  <fix>3d</fix>
</trkpt>
<trkpt lat="-27.2744204" lon="151.2900642">
  <ele>355.2</ele>
  <time>2026-09-01T20:01:10Z</time>
  <course>180.93</course>
  <speed>0.9608329719571451</speed>
  <fix>3d</fix>
</trkpt>
<trkpt lat="-27.2744186" lon="151.2900642">
  <ele>355.2</ele>
  <time>2026-09-01T20:01:10Z</time>
  <course>176.92</course>
  <speed>1.15</speed>
  <fix>3d</fix>
</trkpt>
<trkpt lat="-27.2744204" lon="151.2900642">
  <ele>355.2</ele>
  <time>2026-09-01T20:01:10Z</time>
  <course>180.93</course>
  <speed>0.9608329719571451</speed>
  <fix>3d</fix>
</trkpt>
<trkpt lat="-27.2744212" lon="151.2900643">
  <ele>355.2</ele>
  <time>2026-09-01T20:01:10Z</time>
  <course>180.94</course>
  <speed>0.8809086218218095</speed>
  <fix>3d</fix>
</trkpt>
<trkpt lat="-27.2744186" lon="151.2900642">
  <ele>355.2</ele>
  <time>2026-09-01T20:01:10Z</time>
  <course>176.92</course>
  <speed>1.15</speed>
  <fix>3d</fix>
</trkpt>
<trkpt lat="-27.2744212" lon="151.2900643">
  <ele>355.2</ele>
  <time>2026-09-01T20:01:10Z</time>
  <course>180.94</course>
  <speed>0.8705170877128146</speed>
  <fix>3d</fix>
</trkpt>
<trkpt lat="-27.2744219" lon="151.2900643">
  <ele>355.2</ele>
  <time>2026-09-01T20:01:10Z</time>
  <course>180.94</course>
  <speed>0.7905694150420949</speed>
  <fix>3d</fix>
</trkpt>
<trkpt lat="-27.2744205" lon="151.2900643">
  <ele>355.19</ele>
  <time>2026-09-01T20:01:10Z</time>
  <course>176.5</course>
  <speed>0.96</speed>
  <fix>3d</fix>
</trkpt>
<trkpt lat="-27.274422" lon="151.2900643">
  <ele>355.2</ele>
  <time>2026-09-01T20:01:10Z</time>
  <course>180.94</course>
  <speed>0.7905694150420949</speed>
  <fix>3d</fix>
</trkpt>
<trkpt lat="-27.2744226" lon="151.2900643">
  <ele>355.2</ele>
  <time>2026-09-01T20:01:10Z</time>
  <course>180.95</course>
  <speed>0.7206247289678588</speed>
  <fix>3d</fix>
</trkpt>
<trkpt lat="-27.2744205" lon="151.2900643">
  <ele>355.19</ele>
  <time>2026-09-01T20:01:10Z</time>
  <course>176.5</course>
  <speed>0.96</speed>
  <fix>3d</fix>
</trkpt>
<trkpt lat="-27.2744227" lon="151.2900644">
  <ele>355.2</ele>
  <time>2026-09-01T20:01:10Z</time>
  <course>180.95</course>
  <speed>0.7106335201775947</speed>
  <fix>3d</fix>
</trkpt>
<trkpt lat="-27.2744232" lon="151.2900644">
  <ele>355.2</ele>
  <time>2026-09-01T20:01:10Z</time>
  <course>180.95</course>
  <speed>0.6606814663663572</speed>
  <fix>3d</fix>
</trkpt>
<trkpt lat="-27.2744221" lon="151.2900645">
  <ele>355.19</ele>
  <time>2026-09-01T20:01:10Z</time>
  <course>176.04</course>
  <speed>0.8</speed>
  <fix>3d</fix>
</trkpt>
<trkpt lat="-27.2744234" lon="151.2900644">
  <ele>355.19</ele>
  <time>2026-09-01T20:01:10Z</time>
  <course>180.95</course>
  <speed>0.6407027391856539</speed>
  <fix>3d</fix>
</trkpt>
<trkpt lat="-27.2744238" lon="151.2900644">
  <ele>355.18</ele>
  <time>2026-09-01T20:01:10Z</time>
  <course>180.95</course>
  <speed>0.6003332407921453</speed>
  <fix>3d</fix>
</trkpt>
<trkpt lat="-27.2744221" lon="151.2900645">
  <ele>355.19</ele>
  <time>2026-09-01T20:01:10Z</time>
  <course>176.04</course>
  <speed>0.8</speed>
  <fix>3d</fix>
</trkpt>
<trkpt lat="-27.2744239" lon="151.2900644">
  <ele>355.18</ele>
  <time>2026-09-01T20:01:10Z</time>
  <course>180.95</course>
  <speed>0.5903388857258176</speed>
  <fix>3d</fix>
</trkpt>
<trkpt lat="-27.2744244" lon="151.2900645">
  <ele>355.16</ele>
  <time>2026-09-01T20:01:10Z</time>
  <course>180.96</course>
  <speed>0.5503635162326805</speed>
  <fix>3d</fix>
</trkpt>
<trkpt lat="-27.2744234" lon="151.2900646">
  <ele>355.18</ele>
  <time>2026-09-01T20:01:10Z</time>
  <course>175.57</course>
  <speed>0.66</speed>
  <fix>3d</fix>
</trkpt>
<trkpt lat="-27.2744245" lon="151.2900645">
  <ele>355.15</ele>
  <time>2026-09-01T20:01:10Z</time>
  <course>180.96</course>
  <speed>0.5403702434442519</speed>
  <fix>3d</fix>
</trkpt>
<trkpt lat="-27.2744248" lon="151.2900645">
  <ele>355.12</ele>
  <time>2026-09-01T20:01:10Z</time>
  <course>180.96</course>
  <speed>0.5003998401278722</speed>
  <fix>3d</fix>
</trkpt>
<trkpt lat="-27.2744234" lon="151.2900646">
  <ele>355.18</ele>
  <time>2026-09-01T20:01:10Z</time>
  <course>175.57</course>
  <speed>0.66</speed>
  <fix>3d</fix>
</trkpt>
<trkpt lat="-27.2744249" lon="151.2900645">
  <ele>355.11</ele>
  <time>2026-09-01T20:01:10Z</time>
  <course>180.95</course>
  <speed>0.5003998401278722</speed>
  <fix>3d</fix>
</trkpt>
<trkpt lat="-27.2744253" lon="151.2900646">
  <ele>355.06</ele>
  <time>2026-09-01T20:01:10Z</time>
  <course>180.95</course>
  <speed>0.46010868281309364</speed>
  <fix>3d</fix>
</trkpt>
<trkpt lat="-27.2744245" lon="151.2900647">
  <ele>355.14</ele>
  <time>2026-09-01T20:01:10Z</time>
  <course>175.15</course>
  <speed>0.55</speed>
  <fix>3d</fix>
</trkpt>
<trkpt lat="-27.2744254" lon="151.2900646">
  <ele>355.04</ele>
  <time>2026-09-01T20:01:10Z</time>
  <course>180.95</course>
  <speed>0.450111097397076</speed>
  <fix>3d</fix>
</trkpt>
<trkpt lat="-27.2744257" lon="151.2900646">
  <ele>354.98</ele>
  <time>2026-09-01T20:01:10Z</time>
  <course>180.94</course>
  <speed>0.4201190307520001</speed>
  <fix>3d</fix>
</trkpt>
<trkpt lat="-27.2744245" lon="151.2900647">
  <ele>355.14</ele>
  <time>2026-09-01T20:01:10Z</time>
  <course>175.15</course>
  <speed>0.55</speed>
  <fix>3d</fix>
</trkpt>
<trkpt lat="-27.2744257" lon="151.2900646">
  <ele>354.97</ele>
  <time>2026-09-01T20:01:10Z</time>
  <course>180.94</course>
  <speed>0.4201190307520001</speed>
  <fix>3d</fix>
</trkpt>
<trkpt lat="-27.2744261" lon="151.2900646">
  <ele>354.88</ele>
  <time>2026-09-01T20:01:10Z</time>
  <course>180.93</course>
  <speed>0.38013155617496425</speed>
  <fix>3d</fix>
</trkpt>
<trkpt lat="-27.2744254" lon="151.2900647">
  <ele>355.03</ele>
  <time>2026-09-01T20:01:10Z</time>
  <course>174.8</course>
  <speed>0.46</speed>
  <fix>3d</fix>
</trkpt>
<trkpt lat="-27.2744261" lon="151.2900646">
  <ele>354.86</ele>
  <time>2026-09-01T20:01:10Z</time>
  <course>180.93</course>
  <speed>0.37013511046643494</speed>
  <fix>3d</fix>
</trkpt>
<trkpt lat="-27.2744264" lon="151.2900647">
  <ele>354.77</ele>
  <time>2026-09-01T20:01:10Z</time>
  <course>180.92</course>
  <speed>0.34</speed>
  <fix>3d</fix>
</trkpt>
<trkpt lat="-27.2744254" lon="151.2900647">
  <ele>355.03</ele>
  <time>2026-09-01T20:01:10Z</time>
  <course>174.8</course>
  <speed>0.46</speed>
  <fix>3d</fix>
</trkpt>
<trkpt lat="-27.2744265" lon="151.2900647">
  <ele>354.74</ele>
  <time>2026-09-01T20:01:10Z</time>
  <course>180.91</course>
  <speed>0.34</speed>
  <fix>3d</fix>
</trkpt>
<trkpt lat="-27.2744267" lon="151.2900647">
  <ele>354.64</ele>
  <time>2026-09-01T20:01:10Z</time>
  <course>180.9</course>
  <speed>0.31</speed>
  <fix>3d</fix>
</trkpt>
<trkpt lat="-27.2744261" lon="151.2900648">
  <ele>354.86</ele>
  <time>2026-09-01T20:01:10Z</time>
  <course>174.56</course>
  <speed>0.38</speed>
  <fix>3d</fix>
</trkpt>
<trkpt lat="-27.2744268" lon="151.2900647">
  <ele>354.6</ele>
  <time>2026-09-01T20:01:10Z</time>
  <course>180.89</course>
  <speed>0.3</speed>
  <fix>3d</fix>
</trkpt>
<trkpt lat="-27.274427" lon="151.2900647">
  <ele>354.5</ele>
  <time>2026-09-01T20:01:10Z</time>
  <course>180.88</course>
  <speed>0.28</speed>
  <fix>3d</fix>
</trkpt>
<trkpt lat="-27.2744261" lon="151.2900648">
  <ele>354.86</ele>
  <time>2026-09-01T20:01:10Z</time>
  <course>174.56</course>
  <speed>0.38</speed>
  <fix>3d</fix>
</trkpt>
<trkpt lat="-27.274427" lon="151.2900647">
  <ele>354.47</ele>
  <time>2026-09-01T20:01:10Z</time>
  <course>180.87</course>
  <speed>0.28</speed>
  <fix>3d</fix>
</trkpt>
<trkpt lat="-27.2744272" lon="151.2900647">
  <ele>354.36</ele>
  <time>2026-09-01T20:01:10Z</time>
  <course>180.86</course>
  <speed>0.26</speed>
  <fix>3d</fix>
</trkpt>
<trkpt lat="-27.2744268" lon="151.2900649">
  <ele>354.63</ele>
  <time>2026-09-01T20:01:10Z</time>
  <course>174.54</course>
  <speed>0.31</speed>
  <fix>3d</fix>
</trkpt>
<trkpt lat="-27.2744273" lon="151.2900647">
  <ele>354.32</ele>
  <time>2026-09-01T20:01:10Z</time>
  <course>180.85</course>
  <speed>0.25</speed>
  <fix>3d</fix>
</trkpt>
<trkpt lat="-27.2744274" lon="151.2900647">
  <ele>354.21</ele>
  <time>2026-09-01T20:01:10Z</time>
  <course>180.84</course>
  <speed>0.24020824298928628</speed>
  <fix>3d</fix>
</trkpt>
<trkpt lat="-27.2744268" lon="151.2900649">
  <ele>354.63</ele>
  <time>2026-09-01T20:01:10Z</time>
  <course>174.54</course>
  <speed>0.31</speed>
  <fix>3d</fix>
</trkpt>
<trkpt lat="-27.2744275" lon="151.2900647">
  <ele>354.17</ele>
  <time>2026-09-01T20:01:10Z</time>
  <course>180.84</course>
  <speed>0.23021728866442676</speed>
  <fix>3d</fix>
</trkpt>
<trkpt lat="-27.2744276" lon="151.2900647">
  <ele>354.05</ele>
  <time>2026-09-01T20:01:10Z</time>
  <course>180.83</course>
  <speed>0.22022715545545238</speed>
  <fix>3d</fix>
</trkpt>
<trkpt lat="-27.2744273" lon="151.290065">
  <ele>354.35</ele>
  <time>2026-09-01T20:01:10Z</time>
  <course>174.91</course>
  <speed>0.26</speed>
  <fix>3d</fix>
</trkpt>
<trkpt lat="-27.2744277" lon="151.2900647">
  <ele>354.01</ele>
  <time>2026-09-01T20:01:10Z</time>
  <course>180.83</course>
  <speed>0.22022715545545238</speed>
  <fix>3d</fix>
</trkpt>
<trkpt lat="-27.2744278" lon="151.2900647">
  <ele>353.9</ele>
  <time>2026-09-01T20:01:10Z</time>
  <course>180.83</course>
  <speed>0.2109502310972899</speed>
  <fix>3d</fix>
</trkpt>
<trkpt lat="-27.2744273" lon="151.290065">
  <ele>354.35</ele>
  <time>2026-09-01T20:01:10Z</time>
  <course>174.91</course>
  <speed>0.26</speed>
  <fix>3d</fix>
</trkpt>
<trkpt lat="-27.2744279" lon="151.2900647">
  <ele>353.86</ele>
  <time>2026-09-01T20:01:10Z</time>
  <course>180.84</course>
  <speed>0.2009975124224178</speed>
  <fix>3d</fix>
</trkpt>
<trkpt lat="-27.274428" lon="151.2900647">
  <ele>353.74</ele>
  <time>2026-09-01T20:01:10Z</time>
  <course>180.84</course>
  <speed>0.2009975124224178</speed>
  <fix>3d</fix>
</trkpt>
<trkpt lat="-27.2744278" lon="151.290065">
  <ele>354.05</ele>
  <time>2026-09-01T20:01:10Z</time>
  <course>175.65</course>
  <speed>0.22</speed>
  <fix>3d</fix>
</trkpt>
<trkpt lat="-27.2744281" lon="151.2900647">
  <ele>353.7</ele>
  <time>2026-09-01T20:01:10Z</time>
  <course>180.85</course>
  <speed>0.191049731745428</speed>
  <fix>3d</fix>
</trkpt>
<trkpt lat="-27.2744282" lon="151.2900647">
  <ele>353.6</ele>
  <time>2026-09-01T20:01:10Z</time>
  <course>180.86</course>
  <speed>0.191049731745428</speed>
  <fix>3d</fix>
</trkpt>
<trkpt lat="-27.2744278" lon="151.290065">
  <ele>354.05</ele>
  <time>2026-09-01T20:01:10Z</time>
  <course>175.65</course>
  <speed>0.22</speed>
  <fix>3d</fix>
</trkpt>
<trkpt lat="-27.2744283" lon="151.2900647">
  <ele>353.56</ele>
  <time>2026-09-01T20:01:10Z</time>
  <course>180.86</course>
  <speed>0.19235384061671343</speed>
  <fix>3d</fix>
</trkpt>
<trkpt lat="-27.2744284" lon="151.2900647">
  <ele>353.45</ele>
  <time>2026-09-01T20:01:10Z</time>
  <course>180.88</course>
  <speed>0.1824828759089466</speed>
  <fix>3d</fix>
</trkpt>
<trkpt lat="-27.2744281" lon="151.2900651">
  <ele>353.75</ele>
  <time>2026-09-01T20:01:10Z</time>
  <course>176.62</course>
  <speed>0.2</speed>
  <fix>3d</fix>
</trkpt>
<trkpt lat="-27.2744284" lon="151.2900647">
  <ele>353.45</ele>
  <time>2026-09-01T20:01:10Z</time>
  <course>180.88</course>
  <speed>0.1824828759089466</speed>
  <fix>3d</fix>
</trkpt>
<trkpt lat="-27.2744286" lon="151.2900647">
  <ele>353.31</ele>
  <time>2026-09-01T20:01:10Z</time>
  <course>180.9</course>
  <speed>0.1824828759089466</speed>
  <fix>3d</fix>
</trkpt>
<trkpt lat="-27.2744281" lon="151.2900651">
  <ele>353.75</ele>
  <time>2026-09-01T20:01:10Z</time>
  <course>176.62</course>
  <speed>0.2</speed>
  <fix>3d</fix>
</trkpt>
<trkpt lat="-27.2744286" lon="151.2900648">
  <ele>353.31</ele>
  <time>2026-09-01T20:01:10Z</time>
  <course>180.9</course>
  <speed>0.1824828759089466</speed>
  <fix>3d</fix>
</trkpt>
<trkpt lat="-27.2744287" lon="151.2900648">
  <ele>353.17</ele>
  <time>2026-09-01T20:01:10Z</time>
  <course>180.92</course>
  <speed>0.1824828759089466</speed>
  <fix>3d</fix>
</trkpt>
<trkpt lat="-27.2744285" lon="151.2900651">
  <ele>353.45</ele>
  <time>2026-09-01T20:01:10Z</time>
  <course>177.58</course>
  <speed>0.19</speed>
  <fix>3d</fix>
</trkpt>
<trkpt lat="-27.2744288" lon="151.2900648">
  <ele>353.13</ele>
  <time>2026-09-01T20:01:10Z</time>
  <course>180.93</course>
  <speed>0.1824828759089466</speed>
  <fix>3d</fix>
</trkpt>
<trkpt lat="-27.2744289" lon="151.2900648">
  <ele>353.04</ele>
  <time>2026-09-01T20:01:10Z</time>
  <course>180.94</course>
  <speed>0.18439088914585774</speed>
  <fix>3d</fix>
</trkpt>
<trkpt lat="-27.2744285" lon="151.2900651">
  <ele>353.45</ele>
  <time>2026-09-01T20:01:10Z</time>
  <course>177.58</course>
  <speed>0.19</speed>
  <fix>3d</fix>
</trkpt>
<trkpt lat="-27.274429" lon="151.2900648">
  <ele>353.01</ele>
  <time>2026-09-01T20:01:10Z</time>
  <course>180.94</course>
  <speed>0.18439088914585774</speed>
  <fix>3d</fix>
</trkpt>
<trkpt lat="-27.2744291" lon="151.2900648">
  <ele>352.91</ele>
  <time>2026-09-01T20:01:10Z</time>
  <course>180.95</course>
  <speed>0.194164878389476</speed>
  <fix>3d</fix>
</trkpt>
<trkpt lat="-27.2744288" lon="151.2900651">
  <ele>353.17</ele>
  <time>2026-09-01T20:01:10Z</time>
  <course>178.38</course>
  <speed>0.19</speed>
  <fix>3d</fix>
</trkpt>
<trkpt lat="-27.2744291" lon="151.2900648">
  <ele>352.88</ele>
  <time>2026-09-01T20:01:10Z</time>
  <course>180.95</course>
  <speed>0.194164878389476</speed>
  <fix>3d</fix>
</trkpt>
<trkpt lat="-27.2744293" lon="151.2900648">
  <ele>352.79</ele>
  <time>2026-09-01T20:01:10Z</time>
  <course>180.96</course>
  <speed>0.194164878389476</speed>
  <fix>3d</fix>
</trkpt>
<trkpt lat="-27.2744288" lon="151.2900651">
  <ele>353.17</ele>
  <time>2026-09-01T20:01:10Z</time>
  <course>178.38</course>
  <speed>0.19</speed>
  <fix>3d</fix>
</trkpt>
<trkpt lat="-27.2744293" lon="151.2900648">
  <ele>352.76</ele>
  <time>2026-09-01T20:01:10Z</time>
  <course>180.96</course>
  <speed>0.194164878389476</speed>
  <fix>3d</fix>
</trkpt>
<trkpt lat="-27.2744294" lon="151.2900648">
  <ele>352.67</ele>
  <time>2026-09-01T20:01:10Z</time>
  <course>180.96</course>
  <speed>0.2039607805437114</speed>
  <fix>3d</fix>
</trkpt>
<trkpt lat="-27.2744292" lon="151.2900651">
  <ele>352.91</ele>
  <time>2026-09-01T20:01:10Z</time>
  <course>178.92</course>
  <speed>0.2</speed>
  <fix>3d</fix>
</trkpt>
<trkpt lat="-27.2744295" lon="151.2900648">
  <ele>352.63</ele>
  <time>2026-09-01T20:01:10Z</time>
  <course>180.96</course>
  <speed>0.2039607805437114</speed>
  <fix>3d</fix>
</trkpt>
<trkpt lat="-27.2744296" lon="151.2900648">
  <ele>352.55</ele>
  <time>2026-09-01T20:01:10Z</time>
  <course>180.96</course>
  <speed>0.2039607805437114</speed>
  <fix>3d</fix>
</trkpt>
<trkpt lat="-27.2744292" lon="151.2900651">
  <ele>352.91</ele>
  <time>2026-09-01T20:01:10Z</time>
  <course>178.92</course>
  <speed>0.2</speed>
  <fix>3d</fix>
</trkpt>
<trkpt lat="-27.2744297" lon="151.2900648">
  <ele>352.52</ele>
  <time>2026-09-01T20:01:10Z</time>
  <course>180.96</course>
  <speed>0.21377558326431947</speed>
  <fix>3d</fix>
</trkpt>
<trkpt lat="-27.2744298" lon="151.2900648">
  <ele>352.44</ele>
  <time>2026-09-01T20:01:10Z</time>
  <course>180.95</course>
  <speed>0.215870331449229</speed>
  <fix>3d</fix>
</trkpt>
<trkpt lat="-27.2744296" lon="151.2900651">
  <ele>352.67</ele>
  <time>2026-09-01T20:01:10Z</time>
  <course>179.19</course>
  <speed>0.21</speed>
  <fix>3d</fix>
</trkpt>
<trkpt lat="-27.2744298" lon="151.2900648">
  <ele>352.44</ele>
  <time>2026-09-01T20:01:10Z</time>
  <course>180.95</course>
  <speed>0.215870331449229</speed>
  <fix>3d</fix>
</trkpt>
<trkpt lat="-27.27443" lon="151.2900647">
  <ele>352.33</ele>
  <time>2026-09-01T20:01:10Z</time>
  <course>180.95</course>
  <speed>0.22561028345356957</speed>
  <fix>3d</fix>
</trkpt>
<trkpt lat="-27.2744296" lon="151.2900651">
  <ele>352.67</ele>
  <time>2026-09-01T20:01:10Z</time>
  <course>179.19</course>
  <speed>0.21</speed>
  <fix>3d</fix>
</trkpt>
<trkpt lat="-27.27443" lon="151.2900647">
  <ele>352.33</ele>
  <time>2026-09-01T20:01:10Z</time>
  <course>180.95</course>
  <speed>0.22561028345356957</speed>
  <fix>3d</fix>
</trkpt>
<trkpt lat="-27.2744303" lon="151.2900647">
  <ele>352.22</ele>
  <time>2026-09-01T20:01:10Z</time>
  <course>180.94</course>
  <speed>0.2353720459187964</speed>
  <fix>3d</fix>
</trkpt>
<trkpt lat="-27.27443" lon="151.2900651">
  <ele>352.45</ele>
  <time>2026-09-01T20:01:10Z</time>
  <course>179.32</course>
  <speed>0.23</speed>
  <fix>3d</fix>
</trkpt>
<trkpt lat="-27.2744303" lon="151.2900647">
  <ele>352.22</ele>
  <time>2026-09-01T20:01:10Z</time>
  <course>180.94</course>
  <speed>0.2353720459187964</speed>
  <fix>3d</fix>
</trkpt>
<trkpt lat="-27.2744305" lon="151.2900647">
  <ele>352.12</ele>
  <time>2026-09-01T20:01:10Z</time>
  <course>180.93</course>
  <speed>0.24515301344262524</speed>
  <fix>3d</fix>
</trkpt>
<trkpt lat="-27.27443" lon="151.2900651">
  <ele>352.45</ele>
  <time>2026-09-01T20:01:10Z</time>
  <course>179.32</course>
  <speed>0.23</speed>
  <fix>3d</fix>
</trkpt>
<trkpt lat="-27.2744305" lon="151.2900647">
  <ele>352.12</ele>
  <time>2026-09-01T20:01:10Z</time>
  <course>180.93</course>
  <speed>0.24515301344262524</speed>
  <fix>3d</fix>
</trkpt>
<trkpt lat="-27.2744307" lon="151.2900647">
  <ele>352.02</ele>
  <time>2026-09-01T20:01:10Z</time>
  <course>180.93</course>
  <speed>0.25495097567963926</speed>
  <fix>3d</fix>
</trkpt>
<trkpt lat="-27.2744304" lon="151.2900651">
  <ele>352.23</ele>
  <time>2026-09-01T20:01:10Z</time>
  <course>179.35</course>
  <speed>0.25</speed>
  <fix>3d</fix>
</trkpt>
<trkpt lat="-27.2744307" lon="151.2900647">
  <ele>352.01</ele>
  <time>2026-09-01T20:01:10Z</time>
  <course>180.93</course>
  <speed>0.25495097567963926</speed>
  <fix>3d</fix>
</trkpt>
<trkpt lat="-27.274431" lon="151.2900647">
  <ele>351.92</ele>
  <time>2026-09-01T20:01:10Z</time>
  <course>180.93</course>
  <speed>0.26476404589747454</speed>
  <fix>3d</fix>
</trkpt>
<trkpt lat="-27.2744304" lon="151.2900651">
  <ele>352.23</ele>
  <time>2026-09-01T20:01:10Z</time>
  <course>179.35</course>
  <speed>0.25</speed>
  <fix>3d</fix>
</trkpt>
<trkpt lat="-27.274431" lon="151.2900647">
  <ele>351.89</ele>
  <time>2026-09-01T20:01:10Z</time>
  <course>180.93</course>
  <speed>0.26476404589747454</speed>
  <fix>3d</fix>
</trkpt>
<trkpt lat="-27.2744312" lon="151.2900647">
  <ele>351.82</ele>
  <time>2026-09-01T20:01:10Z</time>
  <course>180.93</course>
  <speed>0.2745906043549196</speed>
  <fix>3d</fix>
</trkpt>
<trkpt lat="-27.2744308" lon="151.2900651">
  <ele>352.02</ele>
  <time>2026-09-01T20:01:10Z</time>
  <course>179.31</course>
  <speed>0.27</speed>
  <fix>3d</fix>
</trkpt>
<trkpt lat="-27.2744313" lon="151.2900647">
  <ele>351.79</ele>
  <time>2026-09-01T20:01:10Z</time>
  <course>180.93</course>
  <speed>0.2745906043549196</speed>
  <fix>3d</fix>
</trkpt>
<trkpt lat="-27.2744315" lon="151.2900647">
  <ele>351.72</ele>
  <time>2026-09-01T20:01:10Z</time>
  <course>180.93</course>
  <speed>0.28442925306655786</speed>
  <fix>3d</fix>
</trkpt>
<trkpt lat="-27.2744308" lon="151.2900651">
  <ele>352.02</ele>
  <time>2026-09-01T20:01:10Z</time>
  <course>179.31</course>
  <speed>0.27</speed>
  <fix>3d</fix>
</trkpt>
<trkpt lat="-27.2744315" lon="151.2900647">
  <ele>351.69</ele>
  <time>2026-09-01T20:01:10Z</time>
  <course>180.93</course>
  <speed>0.28442925306655786</speed>
  <fix>3d</fix>
</trkpt>
<trkpt lat="-27.2744317" lon="151.2900647">
  <ele>351.62</ele>
  <time>2026-09-01T20:01:10Z</time>
  <course>180.92</course>
  <speed>0.2942787793912432</speed>
  <fix>3d</fix>
</trkpt>
<trkpt lat="-27.2744313" lon="151.2900651">
  <ele>351.82</ele>
  <time>2026-09-01T20:01:10Z</time>
  <course>179.22</course>
  <speed>0.29</speed>
  <fix>3d</fix>
</trkpt>
<trkpt lat="-27.2744318" lon="151.2900647">
  <ele>351.6</ele>
  <time>2026-09-01T20:01:10Z</time>
  <course>180.92</course>
  <speed>0.2942787793912432</speed>
  <fix>3d</fix>
</trkpt>
<trkpt lat="-27.274432" lon="151.2900647">
  <ele>351.53</ele>
  <time>2026-09-01T20:01:10Z</time>
  <course>180.92</course>
  <speed>0.304138126514911</speed>
  <fix>3d</fix>
</trkpt>
<trkpt lat="-27.2744313" lon="151.2900651">
  <ele>351.82</ele>
  <time>2026-09-01T20:01:10Z</time>
  <course>179.22</course>
  <speed>0.29</speed>
  <fix>3d</fix>
</trkpt>
<trkpt lat="-27.2744321" lon="151.2900647">
  <ele>351.5</ele>
  <time>2026-09-01T20:01:10Z</time>
  <course>180.92</course>
  <speed>0.304138126514911</speed>
  <fix>3d</fix>
</trkpt>
<trkpt lat="-27.2744323" lon="151.2900647">
  <ele>351.43</ele>
  <time>2026-09-01T20:01:10Z</time>
  <course>180.92</course>
  <speed>0.31400636936215165</speed>
  <fix>3d</fix>
</trkpt>
<trkpt lat="-27.2744319" lon="151.2900651">
  <ele>351.63</ele>
  <time>2026-09-01T20:01:10Z</time>
  <course>179.11</course>
  <speed>0.31</speed>
  <fix>3d</fix>
</trkpt>
<trkpt lat="-27.2744324" lon="151.2900647">
  <ele>351.41</ele>
  <time>2026-09-01T20:01:10Z</time>
  <course>180.91</course>
  <speed>0.31400636936215165</speed>
  <fix>3d</fix>
</trkpt>
<trkpt lat="-27.2744326" lon="151.2900647">
  <ele>351.34</ele>
  <time>2026-09-01T20:01:10Z</time>
  <course>180.91</course>
  <speed>0.3238826948140329</speed>
  <fix>3d</fix>
</trkpt>
<trkpt lat="-27.2744319" lon="151.2900651">
  <ele>351.63</ele>
  <time>2026-09-01T20:01:10Z</time>
  <course>179.11</course>
  <speed>0.31</speed>
  <fix>3d</fix>
</trkpt>
<trkpt lat="-27.2744327" lon="151.2900647">
  <ele>351.31</ele>
  <time>2026-09-01T20:01:10Z</time>
  <course>180.91</course>
  <speed>0.3238826948140329</speed>
  <fix>3d</fix>
</trkpt>
<trkpt lat="-27.2744329" lon="151.2900647">
  <ele>351.24</ele>
  <time>2026-09-01T20:01:10Z</time>
  <course>180.91</course>
  <speed>0.3238826948140329</speed>
  <fix>3d</fix>
</trkpt>
<trkpt lat="-27.2744325" lon="151.2900651">
  <ele>351.43</ele>
  <time>2026-09-01T20:01:10Z</time>
  <course>179.02</course>
  <speed>0.33</speed>
  <fix>3d</fix>
</trkpt>
<trkpt lat="-27.274433" lon="151.2900647">
  <ele>351.22</ele>
  <time>2026-09-01T20:01:10Z</time>
  <course>180.91</course>
  <speed>0.33376638536557274</speed>
  <fix>3d</fix>
</trkpt>
<trkpt lat="-27.2744332" lon="151.2900647">
  <ele>351.15</ele>
  <time>2026-09-01T20:01:10Z</time>
  <course>180.91</course>
  <speed>0.33376638536557274</speed>
  <fix>3d</fix>
</trkpt>
<trkpt lat="-27.2744325" lon="151.2900651">
  <ele>351.43</ele>
  <time>2026-09-01T20:01:10Z</time>
  <course>179.02</course>
  <speed>0.33</speed>
  <fix>3d</fix>
</trkpt>
<trkpt lat="-27.2744333" lon="151.2900647">
  <ele>351.12</ele>
  <time>2026-09-01T20:01:10Z</time>
  <course>180.91</course>
  <speed>0.33376638536557274</speed>
  <fix>3d</fix>
</trkpt>
<trkpt lat="-27.2744335" lon="151.2900647">
  <ele>351.06</ele>
  <time>2026-09-01T20:01:10Z</time>
  <course>180.9</course>
  <speed>0.34365680554879163</speed>
  <fix>3d</fix>
</trkpt>
<trkpt lat="-27.2744331" lon="151.2900651">
  <ele>351.24</ele>
  <time>2026-09-01T20:01:10Z</time>
  <course>178.91</course>
  <speed>0.35</speed>
  <fix>3d</fix>
</trkpt>
<trkpt lat="-27.2744336" lon="151.2900647">
  <ele>351.05</ele>
  <time>2026-09-01T20:01:10Z</time>
  <course>180.9</course>
  <speed>0.34365680554879163</speed>
  <fix>3d</fix>
</trkpt>
<trkpt lat="-27.2744339" lon="151.2900647">
  <ele>350.96</ele>
  <time>2026-09-01T20:01:10Z</time>
  <course>180.91</course>
  <speed>0.34365680554879163</speed>
  <fix>3d</fix>
</trkpt>
<trkpt lat="-27.2744331" lon="151.2900651">
  <ele>351.24</ele>
  <time>2026-09-01T20:01:10Z</time>
  <course>178.91</course>
  <speed>0.35</speed>
  <fix>3d</fix>
</trkpt>
<trkpt lat="-27.2744339" lon="151.2900647">
  <ele>350.96</ele>
  <time>2026-09-01T20:01:10Z</time>
  <course>180.91</course>
  <speed>0.34365680554879163</speed>
  <fix>3d</fix>
</trkpt>
<trkpt lat="-27.2744342" lon="151.2900647">
  <ele>350.88</ele>
  <time>2026-09-01T20:01:10Z</time>
  <course>180.91</course>
  <speed>0.3535533905932738</speed>
  <fix>3d</fix>
</trkpt>
<trkpt lat="-27.2744337" lon="151.2900651">
  <ele>351.06</ele>
  <time>2026-09-01T20:01:10Z</time>
  <course>178.8</course>
  <speed>0.36</speed>
  <fix>3d</fix>
</trkpt>
<trkpt lat="-27.2744343" lon="151.2900647">
  <ele>350.85</ele>
  <time>2026-09-01T20:01:10Z</time>
  <course>180.91</course>
  <speed>0.3535533905932738</speed>
  <fix>3d</fix>
</trkpt>
<trkpt lat="-27.2744345" lon="151.2900647">
  <ele>350.79</ele>
  <time>2026-09-01T20:01:10Z</time>
  <course>180.91</course>
  <speed>0.3535533905932738</speed>
  <fix>3d</fix>
</trkpt>
<trkpt lat="-27.2744337" lon="151.2900651">
  <ele>351.06</ele>
  <time>2026-09-01T20:01:10Z</time>
  <course>178.8</course>
  <speed>0.36</speed>
  <fix>3d</fix>
</trkpt>
<trkpt lat="-27.2744346" lon="151.2900647">
  <ele>350.77</ele>
  <time>2026-09-01T20:01:10Z</time>
  <course>180.91</course>
  <speed>0.3535533905932738</speed>
  <fix>3d</fix>
</trkpt>
<trkpt lat="-27.2744349" lon="151.2900647">
  <ele>350.7</ele>
  <time>2026-09-01T20:01:10Z</time>
  <course>180.91</course>
  <speed>0.3535533905932738</speed>
  <fix>3d</fix>
</trkpt>
<trkpt lat="-27.2744344" lon="151.2900651">
  <ele>350.88</ele>
  <time>2026-09-01T20:01:10Z</time>
  <course>178.74</course>
  <speed>0.37</speed>
  <fix>3d</fix>
</trkpt>
<trkpt lat="-27.2744349" lon="151.2900647">
  <ele>350.68</ele>
  <time>2026-09-01T20:01:10Z</time>
  <course>180.91</course>
  <speed>0.3535533905932738</speed>
  <fix>3d</fix>
</trkpt>
<trkpt lat="-27.2744352" lon="151.2900647">
  <ele>350.62</ele>
  <time>2026-09-01T20:01:10Z</time>
  <course>180.91</course>
  <speed>0.3535533905932738</speed>
  <fix>3d</fix>
</trkpt>
<trkpt lat="-27.2744344" lon="151.2900651">
  <ele>350.88</ele>
  <time>2026-09-01T20:01:10Z</time>
  <course>178.74</course>
  <speed>0.37</speed>
  <fix>3d</fix>
</trkpt>
<trkpt lat="-27.2744353" lon="151.2900647">
  <ele>350.6</ele>
  <time>2026-09-01T20:01:10Z</time>
  <course>180.91</course>
  <speed>0.3535533905932738</speed>
  <fix>3d</fix>
</trkpt>
<trkpt lat="-27.2744355" lon="151.2900647">
  <ele>350.53</ele>
  <time>2026-09-01T20:01:10Z</time>
  <course>180.91</course>
  <speed>0.3522782990761707</speed>
  <fix>3d</fix>
</trkpt>
<trkpt lat="-27.2744351" lon="151.2900651">
  <ele>350.7</ele>
  <time>2026-09-01T20:01:10Z</time>
  <course>178.72</course>
  <speed>0.38</speed>
  <fix>3d</fix>
</trkpt>
<trkpt lat="-27.2744356" lon="151.2900647">
  <ele>350.51</ele>
  <time>2026-09-01T20:01:10Z</time>
  <course>180.91</course>
  <speed>0.3522782990761707</speed>
  <fix>3d</fix>
</trkpt>
<trkpt lat="-27.2744359" lon="151.2900647">
  <ele>350.45</ele>
  <time>2026-09-01T20:01:10Z</time>
  <course>180.91</course>
  <speed>0.3522782990761707</speed>
  <fix>3d</fix>
</trkpt>
<trkpt lat="-27.2744351" lon="151.2900651">
  <ele>350.7</ele>
  <time>2026-09-01T20:01:10Z</time>
  <course>178.72</course>
  <speed>0.38</speed>
  <fix>3d</fix>
</trkpt>
<trkpt lat="-27.274436" lon="151.2900647">
  <ele>350.43</ele>
  <time>2026-09-01T20:01:10Z</time>
  <course>180.91</course>
  <speed>0.3522782990761707</speed>
  <fix>3d</fix>
</trkpt>
<trkpt lat="-27.2744362" lon="151.2900647">
  <ele>350.37</ele>
  <time>2026-09-01T20:01:10Z</time>
  <course>180.9</course>
  <speed>0.3522782990761707</speed>
  <fix>3d</fix>
</trkpt>
<trkpt lat="-27.2744358" lon="151.2900652">
  <ele>350.53</ele>
  <time>2026-09-01T20:01:10Z</time>
  <course>178.71</course>
  <speed>0.38</speed>
  <fix>3d</fix>
</trkpt>
<trkpt lat="-27.2744363" lon="151.2900647">
  <ele>350.35</ele>
  <time>2026-09-01T20:01:10Z</time>
  <course>180.9</course>
  <speed>0.3522782990761707</speed>
  <fix>3d</fix>
</trkpt>
<trkpt lat="-27.2744365" lon="151.2900647">
  <ele>350.29</ele>
  <time>2026-09-01T20:01:10Z</time>
  <course>180.9</course>
  <speed>0.3522782990761707</speed>
  <fix>3d</fix>
</trkpt>
<trkpt lat="-27.2744358" lon="151.2900652">
  <ele>350.53</ele>
  <time>2026-09-01T20:01:10Z</time>
  <course>178.71</course>
  <speed>0.38</speed>
  <fix>3d</fix>
</trkpt>
<trkpt lat="-27.2744366" lon="151.2900647">
  <ele>350.27</ele>
  <time>2026-09-01T20:01:10Z</time>
  <course>180.9</course>
  <speed>0.3522782990761707</speed>
  <fix>3d</fix>
</trkpt>
<trkpt lat="-27.2744369" lon="151.2900647">
  <ele>350.21</ele>
  <time>2026-09-01T20:01:10Z</time>
  <course>180.9</course>
  <speed>0.3423448553724738</speed>
  <fix>3d</fix>
</trkpt>
<trkpt lat="-27.2744365" lon="151.2900652">
  <ele>350.38</ele>
  <time>2026-09-01T20:01:10Z</time>
  <course>178.73</course>
  <speed>0.38</speed>
  <fix>3d</fix>
</trkpt>
<trkpt lat="-27.274437" lon="151.2900647">
  <ele>350.19</ele>
  <time>2026-09-01T20:01:10Z</time>
  <course>180.9</course>
  <speed>0.3423448553724738</speed>
  <fix>3d</fix>
</trkpt>
<trkpt lat="-27.2744372" lon="151.2900647">
  <ele>350.13</ele>
  <time>2026-09-01T20:01:10Z</time>
  <course>180.9</course>
  <speed>0.3423448553724738</speed>
  <fix>3d</fix>
</trkpt>
<trkpt lat="-27.2744365" lon="151.2900652">
  <ele>350.38</ele>
  <time>2026-09-01T20:01:10Z</time>
  <course>178.73</course>
  <speed>0.38</speed>
  <fix>3d</fix>
</trkpt>
<trkpt lat="-27.2744372" lon="151.2900647">
  <ele>350.13</ele>
  <time>2026-09-01T20:01:10Z</time>
  <course>180.91</course>
  <speed>0.3423448553724738</speed>
  <fix>3d</fix>
</trkpt>
<trkpt lat="-27.2744375" lon="151.2900648">
  <ele>350.06</ele>
  <time>2026-09-01T20:01:10Z</time>
  <course>180.9</course>
  <speed>0.33241540277189324</speed>
  <fix>3d</fix>
</trkpt>
<trkpt lat="-27.2744372" lon="151.2900652">
  <ele>350.22</ele>
  <time>2026-09-01T20:01:10Z</time>
  <course>178.79</course>
  <speed>0.38</speed>
  <fix>3d</fix>
</trkpt>
<trkpt lat="-27.2744376" lon="151.2900647">
  <ele>350.06</ele>
  <time>2026-09-01T20:01:10Z</time>
  <course>180.9</course>
  <speed>0.33241540277189324</speed>
  <fix>3d</fix>
</trkpt>
<trkpt lat="-27.2744379" lon="151.2900647">
  <ele>349.99</ele>
  <time>2026-09-01T20:01:10Z</time>
  <course>180.91</course>
  <speed>0.32249030993194194</speed>
  <fix>3d</fix>
</trkpt>
<trkpt lat="-27.2744372" lon="151.2900652">
  <ele>350.22</ele>
  <time>2026-09-01T20:01:10Z</time>
  <course>178.79</course>
  <speed>0.38</speed>
  <fix>3d</fix>
</trkpt>
<trkpt lat="-27.2744379" lon="151.2900648">
  <ele>349.97</ele>
  <time>2026-09-01T20:01:10Z</time>
  <course>180.91</course>
  <speed>0.32249030993194194</speed>
  <fix>3d</fix>
</trkpt>
<trkpt lat="-27.2744382" lon="151.2900648">
  <ele>349.92</ele>
  <time>2026-09-01T20:01:10Z</time>
  <course>180.91</course>
  <speed>0.3125699921617557</speed>
  <fix>3d</fix>
</trkpt>
<trkpt lat="-27.2744379" lon="151.2900652">
  <ele>350.08</ele>
  <time>2026-09-01T20:01:10Z</time>
  <course>178.91</course>
  <speed>0.36</speed>
  <fix>3d</fix>
</trkpt>
<trkpt lat="-27.2744382" lon="151.2900648">
  <ele>349.91</ele>
  <time>2026-09-01T20:01:10Z</time>
  <course>180.91</course>
  <speed>0.3125699921617557</speed>
  <fix>3d</fix>
</trkpt>
<trkpt lat="-27.2744385" lon="151.2900648">
  <ele>349.85</ele>
  <time>2026-09-01T20:01:10Z</time>
  <course>180.91</course>
  <speed>0.3026549190084311</speed>
  <fix>3d</fix>
</trkpt>
<trkpt lat="-27.2744379" lon="151.2900652">
  <ele>350.08</ele>
  <time>2026-09-01T20:01:10Z</time>
  <course>178.91</course>
  <speed>0.36</speed>
  <fix>3d</fix>
</trkpt>
<trkpt lat="-27.2744386" lon="151.2900648">
  <ele>349.83</ele>
  <time>2026-09-01T20:01:10Z</time>
  <course>180.91</course>
  <speed>0.3026549190084311</speed>
  <fix>3d</fix>
</trkpt>
<trkpt lat="-27.2744388" lon="151.2900648">
  <ele>349.78</ele>
  <time>2026-09-01T20:01:10Z</time>
  <course>180.91</course>
  <speed>0.29274562336608895</speed>
  <fix>3d</fix>
</trkpt>
<trkpt lat="-27.2744385" lon="151.2900652">
  <ele>349.94</ele>
  <time>2026-09-01T20:01:10Z</time>
  <course>179.12</course>
  <speed>0.35</speed>
  <fix>3d</fix>
</trkpt>
<trkpt lat="-27.2744389" lon="151.2900648">
  <ele>349.76</ele>
  <time>2026-09-01T20:01:10Z</time>
  <course>180.91</course>
  <speed>0.29274562336608895</speed>
  <fix>3d</fix>
</trkpt>
<trkpt lat="-27.2744391" lon="151.2900648">
  <ele>349.71</ele>
  <time>2026-09-01T20:01:10Z</time>
  <course>180.91</course>
  <speed>0.282842712474619</speed>
  <fix>3d</fix>
</trkpt>
<trkpt lat="-27.2744385" lon="151.2900652">
  <ele>349.94</ele>
  <time>2026-09-01T20:01:10Z</time>
  <course>179.12</course>
  <speed>0.35</speed>
  <fix>3d</fix>
</trkpt>
<trkpt lat="-27.2744392" lon="151.2900648">
  <ele>349.7</ele>
  <time>2026-09-01T20:01:10Z</time>
  <course>180.91</course>
  <speed>0.282842712474619</speed>
  <fix>3d</fix>
</trkpt>
<trkpt lat="-27.2744394" lon="151.2900648">
  <ele>349.65</ele>
  <time>2026-09-01T20:01:10Z</time>
  <course>180.91</course>
  <speed>0.27294688127912364</speed>
  <fix>3d</fix>
</trkpt>
<trkpt lat="-27.2744392" lon="151.2900652">
  <ele>349.8</ele>
  <time>2026-09-01T20:01:10Z</time>
  <course>179.36</course>
  <speed>0.33</speed>
  <fix>3d</fix>
</trkpt>
<trkpt lat="-27.2744394" lon="151.2900648">
  <ele>349.63</ele>
  <time>2026-09-01T20:01:10Z</time>
  <course>180.91</course>
  <speed>0.26305892875931813</speed>
  <fix>3d</fix>
</trkpt>
<trkpt lat="-27.2744396" lon="151.2900648">
  <ele>349.58</ele>
  <time>2026-09-01T20:01:10Z</time>
  <course>180.91</course>
  <speed>0.25317977802344327</speed>
  <fix>3d</fix>
</trkpt>
<trkpt lat="-27.2744392" lon="151.2900652">
  <ele>349.8</ele>
  <time>2026-09-01T20:01:10Z</time>
  <course>179.36</course>
  <speed>0.33</speed>
  <fix>3d</fix>
</trkpt>
<trkpt lat="-27.2744397" lon="151.2900648">
  <ele>349.57</ele>
  <time>2026-09-01T20:01:10Z</time>
  <course>180.91</course>
  <speed>0.25317977802344327</speed>
  <fix>3d</fix>
</trkpt>
<trkpt lat="-27.2744399" lon="151.2900648">
  <ele>349.52</ele>
  <time>2026-09-01T20:01:10Z</time>
  <course>180.91</course>
  <speed>0.24331050121192876</speed>
  <fix>3d</fix>
</trkpt>
<trkpt lat="-27.2744397" lon="151.2900652">
  <ele>349.66</ele>
  <time>2026-09-01T20:01:10Z</time>
  <course>179.68</course>
  <speed>0.3</speed>
  <fix>3d</fix>
</trkpt>
<trkpt lat="-27.27444" lon="151.2900648">
  <ele>349.5</ele>
  <time>2026-09-01T20:01:10Z</time>
  <course>180.91</course>
  <speed>0.23345235059857505</speed>
  <fix>3d</fix>
</trkpt>
<trkpt lat="-27.2744401" lon="151.2900648">
  <ele>349.46</ele>
  <time>2026-09-01T20:01:10Z</time>
  <course>180.91</course>
  <speed>0.223606797749979</speed>
  <fix>3d</fix>
</trkpt>
<trkpt lat="-27.2744397" lon="151.2900652">
  <ele>349.66</ele>
  <time>2026-09-01T20:01:10Z</time>
  <course>179.68</course>
  <speed>0.3</speed>
  <fix>3d</fix>
</trkpt>
<trkpt lat="-27.2744402" lon="151.2900648">
  <ele>349.44</ele>
  <time>2026-09-01T20:01:10Z</time>
  <course>180.91</course>
  <speed>0.223606797749979</speed>
  <fix>3d</fix>
</trkpt>
<trkpt lat="-27.2744404" lon="151.2900648">
  <ele>349.4</ele>
  <time>2026-09-01T20:01:10Z</time>
  <course>180.91</course>
  <speed>0.21377558326431947</speed>
  <fix>3d</fix>
</trkpt>
<trkpt lat="-27.2744402" lon="151.2900652">
  <ele>349.54</ele>
  <time>2026-09-01T20:01:10Z</time>
  <course>180.13</course>
  <speed>0.27</speed>
  <fix>3d</fix>
</trkpt>
<trkpt lat="-27.2744404" lon="151.2900648">
  <ele>349.4</ele>
  <time>2026-09-01T20:01:10Z</time>
  <course>180.91</course>
  <speed>0.21377558326431947</speed>
  <fix>3d</fix>
</trkpt>
<trkpt lat="-27.2744406" lon="151.2900648">
  <ele>349.34</ele>
  <time>2026-09-01T20:01:10Z</time>
  <course>180.92</course>
  <speed>0.194164878389476</speed>
  <fix>3d</fix>
</trkpt>
<trkpt lat="-27.2744402" lon="151.2900652">
  <ele>349.54</ele>
  <time>2026-09-01T20:01:10Z</time>
  <course>180.13</course>
  <speed>0.27</speed>
  <fix>3d</fix>
</trkpt>
<trkpt lat="-27.2744406" lon="151.2900648">
  <ele>349.34</ele>
  <time>2026-09-01T20:01:10Z</time>
  <course>180.92</course>
  <speed>0.194164878389476</speed>
  <fix>3d</fix>
</trkpt>
<trkpt lat="-27.2744408" lon="151.2900648">
  <ele>349.29</ele>
  <time>2026-09-01T20:01:10Z</time>
  <course>180.92</course>
  <speed>0.17464249196572978</speed>
  <fix>3d</fix>
</trkpt>
<trkpt lat="-27.2744407" lon="151.2900652">
  <ele>349.41</ele>
  <time>2026-09-01T20:01:10Z</time>
  <course>180.72</course>
  <speed>0.24</speed>
  <fix>3d</fix>
</trkpt>
<trkpt lat="-27.2744408" lon="151.2900648">
  <ele>349.27</ele>
  <time>2026-09-01T20:01:10Z</time>
  <course>180.92</course>
  <speed>0.17464249196572978</speed>
  <fix>3d</fix>
</trkpt>
<trkpt lat="-27.274441" lon="151.2900648">
  <ele>349.23</ele>
  <time>2026-09-01T20:01:10Z</time>
  <course>180.92</course>
  <speed>0.1649242250247064</speed>
  <fix>3d</fix>
</trkpt>
<trkpt lat="-27.2744407" lon="151.2900652">
  <ele>349.41</ele>
  <time>2026-09-01T20:01:10Z</time>
  <course>180.72</course>
  <speed>0.24</speed>
  <fix>3d</fix>
</trkpt>
<trkpt lat="-27.274441" lon="151.2900648">
  <ele>349.22</ele>
  <time>2026-09-01T20:01:10Z</time>
  <course>180.92</course>
  <speed>0.15524174696260024</speed>
  <fix>3d</fix>
</trkpt>
<trkpt lat="-27.2744411" lon="151.2900648">
  <ele>349.17</ele>
  <time>2026-09-01T20:01:10Z</time>
  <course>180.92</course>
  <speed>0.14560219778561037</speed>
  <fix>3d</fix>
</trkpt>
<trkpt lat="-27.2744411" lon="151.2900652">
  <ele>349.3</ele>
  <time>2026-09-01T20:01:10Z</time>
  <course>181.49</course>
  <speed>0.21</speed>
  <fix>3d</fix>
</trkpt>
<trkpt lat="-27.2744412" lon="151.2900648">
  <ele>349.16</ele>
  <time>2026-09-01T20:01:10Z</time>
  <course>180.92</course>
  <speed>0.13601470508735444</speed>
  <fix>3d</fix>
</trkpt>
<trkpt lat="-27.2744413" lon="151.2900648">
  <ele>349.12</ele>
  <time>2026-09-01T20:01:10Z</time>
  <course>180.92</course>
  <speed>0.1264911064067352</speed>
  <fix>3d</fix>
</trkpt>
<trkpt lat="-27.2744411" lon="151.2900652">
  <ele>349.3</ele>
  <time>2026-09-01T20:01:10Z</time>
  <course>181.49</course>
  <speed>0.21</speed>
  <fix>3d</fix>
</trkpt>
<trkpt lat="-27.2744413" lon="151.2900648">
  <ele>349.11</ele>
  <time>2026-09-01T20:01:10Z</time>
  <course>180.92</course>
  <speed>0.1264911064067352</speed>
  <fix>3d</fix>
</trkpt>
<trkpt lat="-27.2744414" lon="151.2900648">
  <ele>349.07</ele>
  <time>2026-09-01T20:01:10Z</time>
  <course>180.92</course>
  <speed>0.10770329614269007</speed>
  <fix>3d</fix>
</trkpt>
<trkpt lat="-27.2744415" lon="151.2900652">
  <ele>349.19</ele>
  <time>2026-09-01T20:01:10Z</time>
  <course>182.49</course>
  <speed>0.18</speed>
  <fix>3d</fix>
</trkpt>
<trkpt lat="-27.2744414" lon="151.2900648">
  <ele>349.05</ele>
  <time>2026-09-01T20:01:10Z</time>
  <course>180.92</course>
  <speed>0.10770329614269007</speed>
  <fix>3d</fix>
</trkpt>
<trkpt lat="-27.2744415" lon="151.2900648">
  <ele>349.01</ele>
  <time>2026-09-01T20:01:10Z</time>
  <course>180.92</course>
  <speed>0.09848857801796104</speed>
  <fix>3d</fix>
</trkpt>
<trkpt lat="-27.2744415" lon="151.2900652">
  <ele>349.19</ele>
  <time>2026-09-01T20:01:10Z</time>
  <course>182.49</course>
  <speed>0.18</speed>
  <fix>3d</fix>
</trkpt>
<trkpt lat="-27.2744415" lon="151.2900648">
  <ele>349.01</ele>
  <time>2026-09-01T20:01:10Z</time>
  <course>180.92</course>
  <speed>0.09848857801796104</speed>
  <fix>3d</fix>
</trkpt>
<trkpt lat="-27.2744416" lon="151.2900648">
  <ele>348.96</ele>
  <time>2026-09-01T20:01:10Z</time>
  <course>180.91</course>
  <speed>0.08062257748298549</speed>
  <fix>3d</fix>
</trkpt>
<trkpt lat="-27.2744418" lon="151.2900652">
  <ele>349.08</ele>
  <time>2026-09-01T20:01:10Z</time>
  <course>183.9</course>
  <speed>0.14</speed>
  <fix>3d</fix>
</trkpt>
<trkpt lat="-27.2744416" lon="151.2900648">
  <ele>348.96</ele>
  <time>2026-09-01T20:01:10Z</time>
  <course>180.91</course>
  <speed>0.08062257748298549</speed>
  <fix>3d</fix>
</trkpt>
<trkpt lat="-27.2744417" lon="151.2900648">
  <ele>348.91</ele>
  <time>2026-09-01T20:01:10Z</time>
  <course>180.91</course>
  <speed>0.07211102550927978</speed>
  <fix>3d</fix>
</trkpt>
<trkpt lat="-27.2744418" lon="151.2900652">
  <ele>349.08</ele>
  <time>2026-09-01T20:01:10Z</time>
  <course>183.9</course>
  <speed>0.14</speed>
  <fix>3d</fix>
</trkpt>
<trkpt lat="-27.2744418" lon="151.2900648">
  <ele>348.89</ele>
  <time>2026-09-01T20:01:10Z</time>
  <course>180.92</course>
  <speed>0.06403124237432849</speed>
  <fix>3d</fix>
</trkpt>
<trkpt lat="-27.2744418" lon="151.2900648">
  <ele>348.85</ele>
  <time>2026-09-01T20:01:10Z</time>
  <course>180.91</course>
  <speed>0.0565685424949238</speed>
  <fix>3d</fix>
</trkpt>
<trkpt lat="-27.274442" lon="151.2900652">
  <ele>348.97</ele>
  <time>2026-09-01T20:01:10Z</time>
  <course>185.28</course>
  <speed>0.11</speed>
  <fix>3d</fix>
</trkpt>
<trkpt lat="-27.2744418" lon="151.2900648">
  <ele>348.84</ele>
  <time>2026-09-01T20:01:10Z</time>
  <course>180.91</course>
  <speed>0.0565685424949238</speed>
  <fix>3d</fix>
</trkpt>
<trkpt lat="-27.2744419" lon="151.2900648">
  <ele>348.8</ele>
  <time>2026-09-01T20:01:10Z</time>
  <course>180.92</course>
  <speed>0.04242640687119285</speed>
  <fix>3d</fix>
</trkpt>
<trkpt lat="-27.274442" lon="151.2900652">
  <ele>348.97</ele>
  <time>2026-09-01T20:01:10Z</time>
  <course>185.28</course>
  <speed>0.11</speed>
  <fix>3d</fix>
</trkpt>
<trkpt lat="-27.2744419" lon="151.2900648">
  <ele>348.8</ele>
  <time>2026-09-01T20:01:10Z</time>
  <course>180.92</course>
  <speed>0.04242640687119285</speed>
  <fix>3d</fix>
</trkpt>
<trkpt lat="-27.274442" lon="151.2900648">
  <ele>348.75</ele>
  <time>2026-09-01T20:01:10Z</time>
  <course>180.92</course>
  <speed>0.03605551275463989</speed>
  <fix>3d</fix>
</trkpt>
<trkpt lat="-27.2744422" lon="151.2900652">
  <ele>348.86</ele>
  <time>2026-09-01T20:01:10Z</time>
  <course>185.08</course>
  <speed>0.08</speed>
  <fix>3d</fix>
</trkpt>
<trkpt lat="-27.274442" lon="151.2900648">
  <ele>348.75</ele>
  <time>2026-09-01T20:01:10Z</time>
  <course>180.92</course>
  <speed>0.03605551275463989</speed>
  <fix>3d</fix>
</trkpt>
<trkpt lat="-27.274442" lon="151.2900648">
  <ele>348.7</ele>
  <time>2026-09-01T20:01:10Z</time>
  <course>180.92</course>
  <speed>0.03</speed>
  <fix>3d</fix>
</trkpt>
<trkpt lat="-27.2744422" lon="151.2900652">
  <ele>348.86</ele>
  <time>2026-09-01T20:01:10Z</time>
  <course>185.08</course>
  <speed>0.08</speed>
  <fix>3d</fix>
</trkpt>
<trkpt lat="-27.274442" lon="151.2900648">
  <ele>348.69</ele>
  <time>2026-09-01T20:01:10Z</time>
  <course>180.92</course>
  <speed>0.03</speed>
  <fix>3d</fix>
</trkpt>
<trkpt lat="-27.274442" lon="151.2900648">
  <ele>348.65</ele>
  <time>2026-09-01T20:01:10Z</time>
  <course>180.92</course>
  <speed>0.03</speed>
  <fix>3d</fix>
</trkpt>
<trkpt lat="-27.2744423" lon="151.2900652">
  <ele>348.76</ele>
  <time>2026-09-01T20:01:10Z</time>
  <course>183.23</course>
  <speed>0.05</speed>
  <fix>3d</fix>
</trkpt>
<trkpt lat="-27.274442" lon="151.2900648">
  <ele>348.63</ele>
  <time>2026-09-01T20:01:10Z</time>
  <course>180.92</course>
  <speed>0.0316227766016838</speed>
  <fix>3d</fix>
</trkpt>
<trkpt lat="-27.274442" lon="151.2900648">
  <ele>348.6</ele>
  <time>2026-09-01T20:01:10Z</time>
  <course>180.92</course>
  <speed>0.03605551275463989</speed>
  <fix>3d</fix>
</trkpt>
<trkpt lat="-27.2744423" lon="151.2900652">
  <ele>348.76</ele>
  <time>2026-09-01T20:01:10Z</time>
  <course>183.23</course>
  <speed>0.05</speed>
  <fix>3d</fix>
</trkpt>
<trkpt lat="-27.274442" lon="151.2900648">
  <ele>348.59</ele>
  <time>2026-09-01T20:01:10Z</time>
  <course>180.92</course>
  <speed>0.03605551275463989</speed>
  <fix>3d</fix>
</trkpt>
<trkpt lat="-27.274442" lon="151.2900648">
  <ele>348.55</ele>
  <time>2026-09-01T20:01:10Z</time>
  <course>180.95</course>
  <speed>0.03605551275463989</speed>
  <fix>3d</fix>
</trkpt>
<trkpt lat="-27.2744424" lon="151.2900652">
  <ele>348.65</ele>
  <time>2026-09-01T20:01:10Z</time>
  <course>182.69</course>
  <speed>0.02</speed>
  <fix>3d</fix>
</trkpt>
<trkpt lat="-27.274442" lon="151.2900648">
  <ele>348.53</ele>
  <time>2026-09-01T20:01:10Z</time>
  <course>180.96</course>
  <speed>0.044721359549995794</speed>
  <fix>3d</fix>
</trkpt>
<trkpt lat="-27.274442" lon="151.2900648">
  <ele>348.5</ele>
  <time>2026-09-01T20:01:10Z</time>
  <course>181.01</course>
  <speed>0.053851648071345036</speed>
  <fix>3d</fix>
</trkpt>
<trkpt lat="-27.2744424" lon="151.2900652">
  <ele>348.65</ele>
  <time>2026-09-01T20:01:10Z</time>
  <course>182.69</course>
  <speed>0.02</speed>
  <fix>3d</fix>
</trkpt>
<trkpt lat="-27.274442" lon="151.2900648">
  <ele>348.48</ele>
  <time>2026-09-01T20:01:10Z</time>
  <course>181.02</course>
  <speed>0.053851648071345036</speed>
  <fix>3d</fix>
</trkpt>
<trkpt lat="-27.2744421" lon="151.2900648">
  <ele>348.44</ele>
  <time>2026-09-01T20:01:10Z</time>
  <course>181.07</course>
  <speed>0.0632455532033676</speed>
  <fix>3d</fix>
</trkpt>
<trkpt lat="-27.2744424" lon="151.2900652">
  <ele>348.56</ele>
  <time>2026-09-01T20:01:10Z</time>
  <course>0.67</course>
  <speed>0.0</speed>
  <fix>3d</fix>
</trkpt>
<trkpt lat="-27.2744421" lon="151.2900648">
  <ele>348.43</ele>
  <time>2026-09-01T20:01:10Z</time>
  <course>181.09</course>
  <speed>0.07280109889280519</speed>
  <fix>3d</fix>
</trkpt>
<trkpt lat="-27.2744421" lon="151.2900648">
  <ele>348.39</ele>
  <time>2026-09-01T20:01:10Z</time>
  <course>181.13</course>
  <speed>0.0824621125123532</speed>
  <fix>3d</fix>
</trkpt>
<trkpt lat="-27.2744424" lon="151.2900652">
  <ele>348.56</ele>
  <time>2026-09-01T20:01:10Z</time>
  <course>0.67</course>
  <speed>0.0</speed>
  <fix>3d</fix>
</trkpt>
<trkpt lat="-27.2744421" lon="151.2900648">
  <ele>348.38</ele>
  <time>2026-09-01T20:01:10Z</time>
  <course>181.15</course>
  <speed>0.0824621125123532</speed>
  <fix>3d</fix>
</trkpt>
<trkpt lat="-27.274442" lon="151.2900648">
  <ele>348.34</ele>
  <time>2026-09-01T20:01:10Z</time>
  <course>181.19</course>
  <speed>0.09219544457292887</speed>
  <fix>3d</fix>
</trkpt>
<trkpt lat="-27.2744424" lon="151.2900652">
  <ele>348.46</ele>
  <time>2026-09-01T20:01:10Z</time>
  <course>2.06</course>
  <speed>0.03</speed>
  <fix>3d</fix>
</trkpt>
<trkpt lat="-27.274442" lon="151.2900648">
  <ele>348.33</ele>
  <time>2026-09-01T20:01:10Z</time>
  <course>181.2</course>
  <speed>0.09219544457292887</speed>
  <fix>3d</fix>
</trkpt>
<trkpt lat="-27.274442" lon="151.2900648">
  <ele>348.29</ele>
  <time>2026-09-01T20:01:10Z</time>
  <course>181.23</course>
  <speed>0.1019803902718557</speed>
  <fix>3d</fix>
</trkpt>
<trkpt lat="-27.2744424" lon="151.2900652">
  <ele>348.46</ele>
  <time>2026-09-01T20:01:10Z</time>
  <course>2.06</course>
  <speed>0.03</speed>
  <fix>3d</fix>
</trkpt>
<trkpt lat="-27.274442" lon="151.2900648">
  <ele>348.29</ele>
  <time>2026-09-01T20:01:10Z</time>
  <course>181.23</course>
  <speed>0.1019803902718557</speed>
  <fix>3d</fix>
</trkpt>
<trkpt lat="-27.2744419" lon="151.2900648">
  <ele>348.24</ele>
  <time>2026-09-01T20:01:10Z</time>
  <course>181.25</course>
  <speed>0.1118033988749895</speed>
  <fix>3d</fix>
</trkpt>
<trkpt lat="-27.2744423" lon="151.2900652">
  <ele>348.36</ele>
  <time>2026-09-01T20:01:10Z</time>
  <course>1.57</course>
  <speed>0.06</speed>
  <fix>3d</fix>
</trkpt>
<trkpt lat="-27.2744419" lon="151.2900648">
  <ele>348.24</ele>
  <time>2026-09-01T20:01:10Z</time>
  <course>181.25</course>
  <speed>0.1118033988749895</speed>
  <fix>3d</fix>
</trkpt>
<trkpt lat="-27.2744418" lon="151.2900648">
  <ele>348.19</ele>
  <time>2026-09-01T20:01:10Z</time>
  <course>181.27</course>
  <speed>0.12165525060596438</speed>
  <fix>3d</fix>
</trkpt>
<trkpt lat="-27.2744423" lon="151.2900652">
  <ele>348.36</ele>
  <time>2026-09-01T20:01:10Z</time>
  <course>1.57</course>
  <speed>0.06</speed>
  <fix>3d</fix>
</trkpt>
<trkpt lat="-27.2744418" lon="151.2900648">
  <ele>348.19</ele>
  <time>2026-09-01T20:01:10Z</time>
  <course>181.27</course>
  <speed>0.12165525060596438</speed>
  <fix>3d</fix>
</trkpt>
<trkpt lat="-27.2744418" lon="151.2900648">
  <ele>348.14</ele>
  <time>2026-09-01T20:01:10Z</time>
  <course>181.29</course>
  <speed>0.13152946437965907</speed>
  <fix>3d</fix>
</trkpt>
<trkpt lat="-27.2744422" lon="151.2900652">
  <ele>348.26</ele>
  <time>2026-09-01T20:01:10Z</time>
  <course>1.51</course>
  <speed>0.08</speed>
  <fix>3d</fix>
</trkpt>
<trkpt lat="-27.2744417" lon="151.2900648">
  <ele>348.13</ele>
  <time>2026-09-01T20:01:10Z</time>
  <course>181.3</course>
  <speed>0.13152946437965907</speed>
  <fix>3d</fix>
</trkpt>
<trkpt lat="-27.2744417" lon="151.2900648">
  <ele>348.09</ele>
  <time>2026-09-01T20:01:10Z</time>
  <course>181.3</course>
  <speed>0.13152946437965907</speed>
  <fix>3d</fix>
</trkpt>
<trkpt lat="-27.2744422" lon="151.2900652">
  <ele>348.26</ele>
  <time>2026-09-01T20:01:10Z</time>
  <course>1.51</course>
  <speed>0.08</speed>
  <fix>3d</fix>
</trkpt>
<trkpt lat="-27.2744416" lon="151.2900649">
  <ele>348.08</ele>
  <time>2026-09-01T20:01:10Z</time>
  <course>181.31</course>
  <speed>0.13152946437965907</speed>
  <fix>3d</fix>
</trkpt>
<trkpt lat="-27.2744416" lon="151.2900649">
  <ele>348.04</ele>
  <time>2026-09-01T20:01:10Z</time>
  <course>181.31</course>
  <speed>0.1414213562373095</speed>
  <fix>3d</fix>
</trkpt>
<trkpt lat="-27.2744421" lon="151.2900652">
  <ele>348.15</ele>
  <time>2026-09-01T20:01:10Z</time>
  <course>1.42</course>
  <speed>0.1</speed>
  <fix>3d</fix>
</trkpt>
<trkpt lat="-27.2744416" lon="151.2900649">
  <ele>348.03</ele>
  <time>2026-09-01T20:01:10Z</time>
  <course>181.31</course>
  <speed>0.1414213562373095</speed>
  <fix>3d</fix>
</trkpt>
<trkpt lat="-27.2744415" lon="151.2900649">
  <ele>347.99</ele>
  <time>2026-09-01T20:01:10Z</time>
  <course>181.3</course>
  <speed>0.1414213562373095</speed>
  <fix>3d</fix>
</trkpt>
<trkpt lat="-27.2744421" lon="151.2900652">
  <ele>348.15</ele>
  <time>2026-09-01T20:01:10Z</time>
  <course>1.42</course>
  <speed>0.1</speed>
  <fix>3d</fix>
</trkpt>
<trkpt lat="-27.2744415" lon="151.2900649">
  <ele>347.98</ele>
  <time>2026-09-01T20:01:10Z</time>
  <course>181.29</course>
  <speed>0.1414213562373095</speed>
  <fix>3d</fix>
</trkpt>
<trkpt lat="-27.2744414" lon="151.2900649">
  <ele>347.94</ele>
  <time>2026-09-01T20:01:10Z</time>
  <course>181.28</course>
  <speed>0.15132745950421556</speed>
  <fix>3d</fix>
</trkpt>
<trkpt lat="-27.2744419" lon="151.2900652">
  <ele>348.05</ele>
  <time>2026-09-01T20:01:10Z</time>
  <course>1.27</course>
  <speed>0.11</speed>
  <fix>3d</fix>
</trkpt>
<trkpt lat="-27.2744414" lon="151.2900649">
  <ele>347.93</ele>
  <time>2026-09-01T20:01:10Z</time>
  <course>181.27</course>
  <speed>0.15132745950421556</speed>
  <fix>3d</fix>
</trkpt>
<trkpt lat="-27.2744413" lon="151.2900649">
  <ele>347.89</ele>
  <time>2026-09-01T20:01:10Z</time>
  <course>181.25</course>
  <speed>0.15132745950421556</speed>
  <fix>3d</fix>
</trkpt>
<trkpt lat="-27.2744419" lon="151.2900652">
  <ele>348.05</ele>
  <time>2026-09-01T20:01:10Z</time>
  <course>1.27</course>
  <speed>0.11</speed>
  <fix>3d</fix>
</trkpt>
<trkpt lat="-27.2744413" lon="151.2900649">
  <ele>347.88</ele>
  <time>2026-09-01T20:01:10Z</time>
  <course>181.24</course>
  <speed>0.15132745950421556</speed>
  <fix>3d</fix>
</trkpt>
<trkpt lat="-27.2744412" lon="151.2900649">
  <ele>347.84</ele>
  <time>2026-09-01T20:01:10Z</time>
  <course>181.22</course>
  <speed>0.15132745950421556</speed>
  <fix>3d</fix>
</trkpt>
<trkpt lat="-27.2744416" lon="151.2900652">
  <ele>347.95</ele>
  <time>2026-09-01T20:01:10Z</time>
  <course>1.16</course>
  <speed>0.12</speed>
  <fix>3d</fix>
</trkpt>
<trkpt lat="-27.2744411" lon="151.2900649">
  <ele>347.83</ele>
  <time>2026-09-01T20:01:10Z</time>
  <course>181.22</course>
  <speed>0.15132745950421556</speed>
  <fix>3d</fix>
</trkpt>
<trkpt lat="-27.2744411" lon="151.2900649">
  <ele>347.79</ele>
  <time>2026-09-01T20:01:10Z</time>
  <course>181.21</course>
  <speed>0.15132745950421556</speed>
  <fix>3d</fix>
</trkpt>
<trkpt lat="-27.2744416" lon="151.2900652">
  <ele>347.95</ele>
  <time>2026-09-01T20:01:10Z</time>
  <course>1.16</course>
  <speed>0.12</speed>
  <fix>3d</fix>
</trkpt>
<trkpt lat="-27.274441" lon="151.2900649">
  <ele>347.78</ele>
  <time>2026-09-01T20:01:10Z</time>
  <course>181.21</course>
  <speed>0.15132745950421556</speed>
  <fix>3d</fix>
</trkpt>
<trkpt lat="-27.274441" lon="151.2900649">
  <ele>347.74</ele>
  <time>2026-09-01T20:01:10Z</time>
  <course>181.2</course>
  <speed>0.15132745950421556</speed>
  <fix>3d</fix>
</trkpt>
<trkpt lat="-27.2744414" lon="151.2900652">
  <ele>347.84</ele>
  <time>2026-09-01T20:01:10Z</time>
  <course>1.09</course>
  <speed>0.13</speed>
  <fix>3d</fix>
</trkpt>
<trkpt lat="-27.274441" lon="151.2900649">
  <ele>347.74</ele>
  <time>2026-09-01T20:01:10Z</time>
  <course>181.2</course>
  <speed>0.15132745950421556</speed>
  <fix>3d</fix>
</trkpt>
<trkpt lat="-27.2744408" lon="151.2900649">
  <ele>347.69</ele>
  <time>2026-09-01T20:01:10Z</time>
  <course>181.21</course>
  <speed>0.15132745950421556</speed>
  <fix>3d</fix>
</trkpt>
<trkpt lat="-27.2744414" lon="151.2900652">
  <ele>347.84</ele>
  <time>2026-09-01T20:01:10Z</time>
  <course>1.09</course>
  <speed>0.13</speed>
  <fix>3d</fix>
</trkpt>
<trkpt lat="-27.2744408" lon="151.2900649">
  <ele>347.69</ele>
  <time>2026-09-01T20:01:10Z</time>
  <course>181.21</course>
  <speed>0.16124515496597097</speed>
  <fix>3d</fix>
</trkpt>
<trkpt lat="-27.2744407" lon="151.2900649">
  <ele>347.64</ele>
  <time>2026-09-01T20:01:10Z</time>
  <course>181.21</course>
  <speed>0.15132745950421556</speed>
  <fix>3d</fix>
</trkpt>
<trkpt lat="-27.2744412" lon="151.2900652">
  <ele>347.75</ele>
  <time>2026-09-01T20:01:10Z</time>
  <course>1.04</course>
  <speed>0.13</speed>
  <fix>3d</fix>
</trkpt>
<trkpt lat="-27.2744407" lon="151.2900649">
  <ele>347.62</ele>
  <time>2026-09-01T20:01:10Z</time>
  <course>181.21</course>
  <speed>0.15132745950421556</speed>
  <fix>3d</fix>
</trkpt>
<trkpt lat="-27.2744406" lon="151.2900649">
  <ele>347.59</ele>
  <time>2026-09-01T20:01:10Z</time>
  <course>181.22</course>
  <speed>0.15132745950421556</speed>
  <fix>3d</fix>
</trkpt>
<trkpt lat="-27.2744412" lon="151.2900652">
  <ele>347.75</ele>
  <time>2026-09-01T20:01:10Z</time>
  <course>1.04</course>
  <speed>0.13</speed>
  <fix>3d</fix>
</trkpt>
<trkpt lat="-27.2744406" lon="151.2900649">
  <ele>347.59</ele>
  <time>2026-09-01T20:01:10Z</time>
  <course>181.22</course>
  <speed>0.15132745950421556</speed>
  <fix>3d</fix>
</trkpt>
<trkpt lat="-27.2744405" lon="151.2900649">
  <ele>347.54</ele>
  <time>2026-09-01T20:01:10Z</time>
  <course>181.23</course>
  <speed>0.15132745950421556</speed>
  <fix>3d</fix>
</trkpt>
<trkpt lat="-27.2744409" lon="151.2900652">
  <ele>347.65</ele>
  <time>2026-09-01T20:01:10Z</time>
  <course>1.07</course>
  <speed>0.13</speed>
  <fix>3d</fix>
</trkpt>
<trkpt lat="-27.2744405" lon="151.2900649">
  <ele>347.53</ele>
  <time>2026-09-01T20:01:10Z</time>
  <course>181.23</course>
  <speed>0.15132745950421556</speed>
  <fix>3d</fix>
</trkpt>
<trkpt lat="-27.2744404" lon="151.2900649">
  <ele>347.49</ele>
  <time>2026-09-01T20:01:10Z</time>
  <course>181.23</course>
  <speed>0.15132745950421556</speed>
  <fix>3d</fix>
</trkpt>
<trkpt lat="-27.2744409" lon="151.2900652">
  <ele>347.65</ele>
  <time>2026-09-01T20:01:10Z</time>
  <course>1.07</course>
  <speed>0.13</speed>
  <fix>3d</fix>
</trkpt>
<trkpt lat="-27.2744404" lon="151.2900649">
  <ele>347.48</ele>
  <time>2026-09-01T20:01:10Z</time>
  <course>181.23</course>
  <speed>0.15132745950421556</speed>
  <fix>3d</fix>
</trkpt>
<trkpt lat="-27.2744403" lon="151.2900649">
  <ele>347.44</ele>
  <time>2026-09-01T20:01:10Z</time>
  <course>181.22</course>
  <speed>0.15132745950421556</speed>
  <fix>3d</fix>
</trkpt>
<trkpt lat="-27.2744407" lon="151.2900652">
  <ele>347.55</ele>
  <time>2026-09-01T20:01:10Z</time>
  <course>1.11</course>
  <speed>0.13</speed>
  <fix>3d</fix>
</trkpt>
<trkpt lat="-27.2744402" lon="151.2900649">
  <ele>347.42</ele>
  <time>2026-09-01T20:01:10Z</time>
  <course>181.22</course>
  <speed>0.15132745950421556</speed>
  <fix>3d</fix>
</trkpt>
<trkpt lat="-27.2744402" lon="151.2900649">
  <ele>347.39</ele>
  <time>2026-09-01T20:01:10Z</time>
  <course>181.22</course>
  <speed>0.15132745950421556</speed>
  <fix>3d</fix>
</trkpt>
<trkpt lat="-27.2744407" lon="151.2900652">
  <ele>347.55</ele>
  <time>2026-09-01T20:01:10Z</time>
  <course>1.11</course>
  <speed>0.13</speed>
  <fix>3d</fix>
</trkpt>
<trkpt lat="-27.2744401" lon="151.2900649">
  <ele>347.38</ele>
  <time>2026-09-01T20:01:10Z</time>
  <course>181.21</course>
  <speed>0.1414213562373095</speed>
  <fix>3d</fix>
</trkpt>
<trkpt lat="-27.2744401" lon="151.2900649">
  <ele>347.34</ele>
  <time>2026-09-01T20:01:10Z</time>
  <course>181.21</course>
  <speed>0.1414213562373095</speed>
  <fix>3d</fix>
</trkpt>
<trkpt lat="-27.2744405" lon="151.2900652">
  <ele>347.45</ele>
  <time>2026-09-01T20:01:10Z</time>
  <course>1.13</course>
  <speed>0.12</speed>
  <fix>3d</fix>
</trkpt>
<trkpt lat="-27.27444" lon="151.2900649">
  <ele>347.32</ele>
  <time>2026-09-01T20:01:10Z</time>
  <course>181.21</course>
  <speed>0.1414213562373095</speed>
  <fix>3d</fix>
</trkpt>
<trkpt lat="-27.2744399" lon="151.2900649">
  <ele>347.29</ele>
  <time>2026-09-01T20:01:10Z</time>
  <course>181.2</course>
  <speed>0.1414213562373095</speed>
  <fix>3d</fix>
</trkpt>
<trkpt lat="-27.2744405" lon="151.2900652">
  <ele>347.45</ele>
  <time>2026-09-01T20:01:10Z</time>
  <course>1.13</course>
  <speed>0.12</speed>
  <fix>3d</fix>
</trkpt>
<trkpt lat="-27.2744399" lon="151.2900649">
  <ele>347.28</ele>
  <time>2026-09-01T20:01:10Z</time>
  <course>181.2</course>
  <speed>0.1414213562373095</speed>
  <fix>3d</fix>
</trkpt>
<trkpt lat="-27.2744399" lon="151.2900649">
  <ele>347.24</ele>
  <time>2026-09-01T20:01:10Z</time>
  <course>181.2</course>
  <speed>0.13152946437965907</speed>
  <fix>3d</fix>
</trkpt>
<trkpt lat="-27.2744403" lon="151.2900652">
  <ele>347.34</ele>
  <time>2026-09-01T20:01:10Z</time>
  <course>1.16</course>
  <speed>0.12</speed>
  <fix>3d</fix>
</trkpt>
<trkpt lat="-27.2744398" lon="151.2900649">
  <ele>347.22</ele>
  <time>2026-09-01T20:01:10Z</time>
  <course>181.2</course>
  <speed>0.13152946437965907</speed>
  <fix>3d</fix>
</trkpt>
<trkpt lat="-27.2744398" lon="151.2900649">
  <ele>347.19</ele>
  <time>2026-09-01T20:01:10Z</time>
  <course>181.2</course>
  <speed>0.13152946437965907</speed>
  <fix>3d</fix>
</trkpt>
<trkpt lat="-27.2744403" lon="151.2900652">
  <ele>347.34</ele>
  <time>2026-09-01T20:01:10Z</time>
  <course>1.16</course>
  <speed>0.12</speed>
  <fix>3d</fix>
</trkpt>
<trkpt lat="-27.2744397" lon="151.2900649">
  <ele>347.19</ele>
  <time>2026-09-01T20:01:10Z</time>
  <course>181.2</course>
  <speed>0.13152946437965907</speed>
  <fix>3d</fix>
</trkpt>
<trkpt lat="-27.2744397" lon="151.2900649">
  <ele>347.14</ele>
  <time>2026-09-01T20:01:10Z</time>
  <course>181.2</course>
  <speed>0.12165525060596438</speed>
  <fix>3d</fix>
</trkpt>
<trkpt lat="-27.2744401" lon="151.2900652">
  <ele>347.25</ele>
  <time>2026-09-01T20:01:10Z</time>
  <course>1.22</course>
  <speed>0.11</speed>
  <fix>3d</fix>
</trkpt>
<trkpt lat="-27.2744397" lon="151.2900649">
  <ele>347.14</ele>
  <time>2026-09-01T20:01:10Z</time>
  <course>181.2</course>
  <speed>0.12165525060596438</speed>
  <fix>3d</fix>
</trkpt>
<trkpt lat="-27.2744396" lon="151.2900649">
  <ele>347.09</ele>
  <time>2026-09-01T20:01:10Z</time>
  <course>181.2</course>
  <speed>0.12165525060596438</speed>
  <fix>3d</fix>
</trkpt>
<trkpt lat="-27.2744401" lon="151.2900652">
  <ele>347.25</ele>
  <time>2026-09-01T20:01:10Z</time>
  <course>1.22</course>
  <speed>0.11</speed>
  <fix>3d</fix>
</trkpt>
<trkpt lat="-27.2744396" lon="151.2900649">
  <ele>347.09</ele>
  <time>2026-09-01T20:01:10Z</time>
  <course>181.2</course>
  <speed>0.12165525060596438</speed>
  <fix>3d</fix>
</trkpt>
<trkpt lat="-27.2744395" lon="151.2900649">
  <ele>347.04</ele>
  <time>2026-09-01T20:01:10Z</time>
  <course>181.2</course>
  <speed>0.1118033988749895</speed>
  <fix>3d</fix>
</trkpt>
<trkpt lat="-27.2744399" lon="151.2900652">
  <ele>347.15</ele>
  <time>2026-09-01T20:01:10Z</time>
  <course>1.32</course>
  <speed>0.1</speed>
  <fix>3d</fix>
</trkpt>
<trkpt lat="-27.2744395" lon="151.2900649">
  <ele>347.04</ele>
  <time>2026-09-01T20:01:10Z</time>
  <course>181.2</course>
  <speed>0.1118033988749895</speed>
  <fix>3d</fix>
</trkpt>
<trkpt lat="-27.2744394" lon="151.2900649">
  <ele>346.99</ele>
  <time>2026-09-01T20:01:10Z</time>
  <course>181.2</course>
  <speed>0.1118033988749895</speed>
  <fix>3d</fix>
</trkpt>
<trkpt lat="-27.2744399" lon="151.2900652">
  <ele>347.15</ele>
  <time>2026-09-01T20:01:10Z</time>
  <course>1.32</course>
  <speed>0.1</speed>
  <fix>3d</fix>
</trkpt>
<trkpt lat="-27.2744394" lon="151.2900649">
  <ele>346.97</ele>
  <time>2026-09-01T20:01:10Z</time>
  <course>181.2</course>
  <speed>0.1118033988749895</speed>
  <fix>3d</fix>
</trkpt>
<trkpt lat="-27.2744394" lon="151.2900649">
  <ele>346.94</ele>
  <time>2026-09-01T20:01:10Z</time>
  <course>181.2</course>
  <speed>0.1019803902718557</speed>
  <fix>3d</fix>
</trkpt>
<trkpt lat="-27.2744397" lon="151.2900652">
  <ele>347.04</ele>
  <time>2026-09-01T20:01:10Z</time>
  <course>1.44</course>
  <speed>0.09</speed>
  <fix>3d</fix>
</trkpt>
<trkpt lat="-27.2744394" lon="151.2900649">
  <ele>346.93</ele>
  <time>2026-09-01T20:01:10Z</time>
  <course>181.2</course>
  <speed>0.1019803902718557</speed>
  <fix>3d</fix>
</trkpt>
<trkpt lat="-27.2744393" lon="151.2900649">
  <ele>346.89</ele>
  <time>2026-09-01T20:01:10Z</time>
  <course>181.2</course>
  <speed>0.1019803902718557</speed>
  <fix>3d</fix>
</trkpt>
<trkpt lat="-27.2744397" lon="151.2900652">
  <ele>347.04</ele>
  <time>2026-09-01T20:01:10Z</time>
  <course>1.44</course>
  <speed>0.09</speed>
  <fix>3d</fix>
</trkpt>
<trkpt lat="-27.2744393" lon="151.2900649">
  <ele>346.88</ele>
  <time>2026-09-01T20:01:10Z</time>
  <course>181.2</course>
  <speed>0.1019803902718557</speed>
  <fix>3d</fix>
</trkpt>
<trkpt lat="-27.2744392" lon="151.2900649">
  <ele>346.83</ele>
  <time>2026-09-01T20:01:10Z</time>
  <course>181.21</course>
  <speed>0.09219544457292887</speed>
  <fix>3d</fix>
</trkpt>
<trkpt lat="-27.2744395" lon="151.2900652">
  <ele>346.94</ele>
  <time>2026-09-01T20:01:10Z</time>
  <course>1.61</course>
  <speed>0.08</speed>
  <fix>3d</fix>
</trkpt>
<trkpt lat="-27.2744392" lon="151.2900649">
  <ele>346.82</ele>
  <time>2026-09-01T20:01:10Z</time>
  <course>181.21</course>
  <speed>0.09219544457292887</speed>
  <fix>3d</fix>
</trkpt>
<trkpt lat="-27.2744392" lon="151.2900649">
  <ele>346.78</ele>
  <time>2026-09-01T20:01:10Z</time>
  <course>181.22</course>
  <speed>0.09219544457292887</speed>
  <fix>3d</fix>
</trkpt>
<trkpt lat="-27.2744395" lon="151.2900652">
  <ele>346.94</ele>
  <time>2026-09-01T20:01:10Z</time>
  <course>1.61</course>
  <speed>0.08</speed>
  <fix>3d</fix>
</trkpt>
<trkpt lat="-27.2744391" lon="151.2900649">
  <ele>346.77</ele>
  <time>2026-09-01T20:01:10Z</time>
  <course>181.23</course>
  <speed>0.09219544457292887</speed>
  <fix>3d</fix>
</trkpt>
<trkpt lat="-27.2744391" lon="151.2900649">
  <ele>346.73</ele>
  <time>2026-09-01T20:01:10Z</time>
  <course>181.23</course>
  <speed>0.0824621125123532</speed>
  <fix>3d</fix>
</trkpt>
<trkpt lat="-27.2744393" lon="151.2900652">
  <ele>346.84</ele>
  <time>2026-09-01T20:01:10Z</time>
  <course>1.78</course>
  <speed>0.07</speed>
  <fix>3d</fix>
</trkpt>
<trkpt lat="-27.2744391" lon="151.2900649">
  <ele>346.72</ele>
  <time>2026-09-01T20:01:10Z</time>
  <course>181.24</course>
  <speed>0.0824621125123532</speed>
  <fix>3d</fix>
</trkpt>
<trkpt lat="-27.274439" lon="151.2900649">
  <ele>346.68</ele>
  <time>2026-09-01T20:01:10Z</time>
  <course>181.24</course>
  <speed>0.0824621125123532</speed>
  <fix>3d</fix>
</trkpt>
<trkpt lat="-27.2744393" lon="151.2900652">
  <ele>346.84</ele>
  <time>2026-09-01T20:01:10Z</time>
  <course>1.78</course>
  <speed>0.07</speed>
  <fix>3d</fix>
</trkpt>
<trkpt lat="-27.274439" lon="151.2900649">
  <ele>346.68</ele>
  <time>2026-09-01T20:01:10Z</time>
  <course>181.24</course>
  <speed>0.0824621125123532</speed>
  <fix>3d</fix>
</trkpt>
<trkpt lat="-27.274439" lon="151.2900649">
  <ele>346.63</ele>
  <time>2026-09-01T20:01:10Z</time>
  <course>181.25</course>
  <speed>0.07280109889280519</speed>
  <fix>3d</fix>
</trkpt>
<trkpt lat="-27.2744392" lon="151.2900652">
  <ele>346.74</ele>
  <time>2026-09-01T20:01:10Z</time>
  <course>1.73</course>
  <speed>0.06</speed>
  <fix>3d</fix>
</trkpt>
<trkpt lat="-27.274439" lon="151.2900649">
  <ele>346.63</ele>
  <time>2026-09-01T20:01:10Z</time>
  <course>181.25</course>
  <speed>0.07280109889280519</speed>
  <fix>3d</fix>
</trkpt>
<trkpt lat="-27.2744389" lon="151.2900649">
  <ele>346.58</ele>
  <time>2026-09-01T20:01:10Z</time>
  <course>181.25</course>
  <speed>0.0632455532033676</speed>
  <fix>3d</fix>
</trkpt>
<trkpt lat="-27.2744392" lon="151.2900652">
  <ele>346.74</ele>
  <time>2026-09-01T20:01:10Z</time>
  <course>1.73</course>
  <speed>0.06</speed>
  <fix>3d</fix>
</trkpt>
<trkpt lat="-27.2744389" lon="151.2900649">
  <ele>346.57</ele>
  <time>2026-09-01T20:01:10Z</time>
  <course>181.25</course>
  <speed>0.0632455532033676</speed>
  <fix>3d</fix>
</trkpt>
<trkpt lat="-27.2744389" lon="151.2900649">
  <ele>346.53</ele>
  <time>2026-09-01T20:01:10Z</time>
  <course>181.25</course>
  <speed>0.0632455532033676</speed>
  <fix>3d</fix>
</trkpt>
<trkpt lat="-27.2744391" lon="151.2900652">
  <ele>346.64</ele>
  <time>2026-09-01T20:01:10Z</time>
  <course>1.72</course>
  <speed>0.05</speed>
  <fix>3d</fix>
</trkpt>
<trkpt lat="-27.2744389" lon="151.2900649">
  <ele>346.52</ele>
  <time>2026-09-01T20:01:10Z</time>
  <course>181.24</course>
  <speed>0.0632455532033676</speed>
  <fix>3d</fix>
</trkpt>
<trkpt lat="-27.2744389" lon="151.2900649">
  <ele>346.48</ele>
  <time>2026-09-01T20:01:10Z</time>
  <course>181.24</course>
  <speed>0.053851648071345036</speed>
  <fix>3d</fix>
</trkpt>
<trkpt lat="-27.2744391" lon="151.2900652">
  <ele>346.64</ele>
  <time>2026-09-01T20:01:10Z</time>
  <course>1.72</course>
  <speed>0.05</speed>
  <fix>3d</fix>
</trkpt>
<trkpt lat="-27.2744389" lon="151.2900649">
  <ele>346.47</ele>
  <time>2026-09-01T20:01:10Z</time>
  <course>181.23</course>
  <speed>0.053851648071345036</speed>
  <fix>3d</fix>
</trkpt>
<trkpt lat="-27.2744388" lon="151.2900649">
  <ele>346.43</ele>
  <time>2026-09-01T20:01:10Z</time>
  <course>181.22</course>
  <speed>0.053851648071345036</speed>
  <fix>3d</fix>
</trkpt>
<trkpt lat="-27.274439" lon="151.2900652">
  <ele>346.53</ele>
  <time>2026-09-01T20:01:10Z</time>
  <course>1.95</course>
  <speed>0.04</speed>
  <fix>3d</fix>
</trkpt>
<trkpt lat="-27.2744388" lon="151.2900649">
  <ele>346.42</ele>
  <time>2026-09-01T20:01:10Z</time>
  <course>181.22</course>
  <speed>0.05830951894845301</speed>
  <fix>3d</fix>
</trkpt>
<trkpt lat="-27.2744388" lon="151.2900649">
  <ele>346.38</ele>
  <time>2026-09-01T20:01:10Z</time>
  <course>181.21</course>
  <speed>0.05</speed>
  <fix>3d</fix>
</trkpt>
<trkpt lat="-27.274439" lon="151.2900652">
  <ele>346.53</ele>
  <time>2026-09-01T20:01:10Z</time>
  <course>1.95</course>
  <speed>0.04</speed>
  <fix>3d</fix>
</trkpt>
<trkpt lat="-27.2744388" lon="151.2900649">
  <ele>346.37</ele>
  <time>2026-09-01T20:01:10Z</time>
  <course>181.2</course>
  <speed>0.05</speed>
  <fix>3d</fix>
</trkpt>
<trkpt lat="-27.2744388" lon="151.2900649">
  <ele>346.33</ele>
  <time>2026-09-01T20:01:10Z</time>
  <course>181.19</course>
  <speed>0.05</speed>
  <fix>3d</fix>
</trkpt>
<trkpt lat="-27.274439" lon="151.2900652">
  <ele>346.44</ele>
  <time>2026-09-01T20:01:10Z</time>
  <course>1.69</course>
  <speed>0.02</speed>
  <fix>3d</fix>
</trkpt>
<trkpt lat="-27.2744388" lon="151.2900649">
  <ele>346.32</ele>
  <time>2026-09-01T20:01:10Z</time>
  <course>181.18</course>
  <speed>0.05</speed>
  <fix>3d</fix>
</trkpt>
<trkpt lat="-27.2744388" lon="151.2900649">
  <ele>346.28</ele>
  <time>2026-09-01T20:01:10Z</time>
  <course>181.17</course>
  <speed>0.04242640687119285</speed>
  <fix>3d</fix>
</trkpt>
<trkpt lat="-27.274439" lon="151.2900652">
  <ele>346.44</ele>
  <time>2026-09-01T20:01:10Z</time>
  <course>1.69</course>
  <speed>0.02</speed>
  <fix>3d</fix>
</trkpt>
<trkpt lat="-27.2744388" lon="151.2900649">
  <ele>346.28</ele>
  <time>2026-09-01T20:01:10Z</time>
  <course>181.17</course>
  <speed>0.04242640687119285</speed>
  <fix>3d</fix>
</trkpt>
<trkpt lat="-27.2744388" lon="151.2900649">
  <ele>346.23</ele>
  <time>2026-09-01T20:01:10Z</time>
  <course>181.15</course>
  <speed>0.04242640687119285</speed>
  <fix>3d</fix>
</trkpt>
<trkpt lat="-27.2744389" lon="151.2900652">
  <ele>346.34</ele>
  <time>2026-09-01T20:01:10Z</time>
  <course>0.41</course>
  <speed>0.01</speed>
  <fix>3d</fix>
</trkpt>
<trkpt lat="-27.2744388" lon="151.2900649">
  <ele>346.23</ele>
  <time>2026-09-01T20:01:10Z</time>
  <course>181.15</course>
  <speed>0.04242640687119285</speed>
  <fix>3d</fix>
</trkpt>
<trkpt lat="-27.2744388" lon="151.2900649">
  <ele>346.18</ele>
  <time>2026-09-01T20:01:10Z</time>
  <course>181.13</course>
  <speed>0.03605551275463989</speed>
  <fix>3d</fix>
</trkpt>
<trkpt lat="-27.2744389" lon="151.2900652">
  <ele>346.34</ele>
  <time>2026-09-01T20:01:10Z</time>
  <course>0.41</course>
  <speed>0.01</speed>
  <fix>3d</fix>
</trkpt>
<trkpt lat="-27.2744388" lon="151.2900649">
  <ele>346.18</ele>
  <time>2026-09-01T20:01:10Z</time>
  <course>181.13</course>
  <speed>0.03605551275463989</speed>
  <fix>3d</fix>
</trkpt>
<trkpt lat="-27.2744388" lon="151.2900649">
  <ele>346.13</ele>
  <time>2026-09-01T20:01:10Z</time>
  <course>181.11</course>
  <speed>0.03605551275463989</speed>
  <fix>3d</fix>
</trkpt>
<trkpt lat="-27.2744389" lon="151.2900652">
  <ele>346.24</ele>
  <time>2026-09-01T20:01:10Z</time>
  <course>355.19</course>
  <speed>0.0</speed>
  <fix>3d</fix>
</trkpt>
<trkpt lat="-27.2744388" lon="151.2900649">
  <ele>346.13</ele>
  <time>2026-09-01T20:01:10Z</time>
  <course>181.11</course>
  <speed>0.03605551275463989</speed>
  <fix>3d</fix>
</trkpt>
<trkpt lat="-27.2744387" lon="151.2900649">
  <ele>346.08</ele>
  <time>2026-09-01T20:01:10Z</time>
  <course>181.06</course>
  <speed>0.03605551275463989</speed>
  <fix>3d</fix>
</trkpt>
<trkpt lat="-27.2744389" lon="151.2900652">
  <ele>346.24</ele>
  <time>2026-09-01T20:01:10Z</time>
  <course>355.19</course>
  <speed>0.0</speed>
  <fix>3d</fix>
</trkpt>
<trkpt lat="-27.2744387" lon="151.2900649">
  <ele>346.08</ele>
  <time>2026-09-01T20:01:10Z</time>
  <course>181.06</course>
  <speed>0.03605551275463989</speed>
  <fix>3d</fix>
</trkpt>
<trkpt lat="-27.2744388" lon="151.2900649">
  <ele>346.03</ele>
  <time>2026-09-01T20:01:10Z</time>
  <course>181.0</course>
  <speed>0.0412310562561766</speed>
  <fix>3d</fix>
</trkpt>
<trkpt lat="-27.2744389" lon="151.2900652">
  <ele>346.14</ele>
  <time>2026-09-01T20:01:10Z</time>
  <course>290.26</course>
  <speed>0.0</speed>
  <fix>3d</fix>
</trkpt>
<trkpt lat="-27.2744388" lon="151.2900649">
  <ele>346.02</ele>
  <time>2026-09-01T20:01:10Z</time>
  <course>180.99</course>
  <speed>0.0412310562561766</speed>
  <fix>3d</fix>
</trkpt>
<trkpt lat="-27.2744388" lon="151.2900649">
  <ele>345.98</ele>
  <time>2026-09-01T20:01:10Z</time>
  <course>180.93</course>
  <speed>0.0412310562561766</speed>
  <fix>3d</fix>
</trkpt>
<trkpt lat="-27.2744389" lon="151.2900652">
  <ele>346.14</ele>
  <time>2026-09-01T20:01:10Z</time>
  <course>290.26</course>
  <speed>0.0</speed>
  <fix>3d</fix>
</trkpt>
<trkpt lat="-27.2744388" lon="151.2900649">
  <ele>345.97</ele>
  <time>2026-09-01T20:01:10Z</time>
  <course>180.92</course>
  <speed>0.0412310562561766</speed>
  <fix>3d</fix>
</trkpt>
<trkpt lat="-27.2744388" lon="151.2900649">
  <ele>345.93</ele>
  <time>2026-09-01T20:01:10Z</time>
  <course>180.87</course>
  <speed>0.0412310562561766</speed>
  <fix>3d</fix>
</trkpt>
<trkpt lat="-27.2744389" lon="151.2900652">
  <ele>346.03</ele>
  <time>2026-09-01T20:01:10Z</time>
  <course>237.22</course>
  <speed>0.01</speed>
  <fix>3d</fix>
</trkpt>
<trkpt lat="-27.2744388" lon="151.2900649">
  <ele>345.92</ele>
  <time>2026-09-01T20:01:10Z</time>
  <course>180.85</course>
  <speed>0.0412310562561766</speed>
  <fix>3d</fix>
</trkpt>
<trkpt lat="-27.2744388" lon="151.2900649">
  <ele>345.88</ele>
  <time>2026-09-01T20:01:10Z</time>
  <course>180.82</course>
  <speed>0.04</speed>
  <fix>3d</fix>
</trkpt>
<trkpt lat="-27.2744389" lon="151.2900652">
  <ele>346.03</ele>
  <time>2026-09-01T20:01:10Z</time>
  <course>237.22</course>
  <speed>0.01</speed>
  <fix>3d</fix>
</trkpt>
<trkpt lat="-27.2744388" lon="151.2900649">
  <ele>345.87</ele>
  <time>2026-09-01T20:01:10Z</time>
  <course>180.81</course>
  <speed>0.05</speed>
  <fix>3d</fix>
</trkpt>
<trkpt lat="-27.2744388" lon="151.2900649">
  <ele>345.83</ele>
  <time>2026-09-01T20:01:10Z</time>
  <course>180.79</course>
  <speed>0.05</speed>
  <fix>3d</fix>
</trkpt>
<trkpt lat="-27.2744389" lon="151.2900652">
  <ele>345.94</ele>
  <time>2026-09-01T20:01:10Z</time>
  <course>229.81</course>
  <speed>0.02</speed>
  <fix>3d</fix>
</trkpt>
<trkpt lat="-27.2744388" lon="151.2900649">
  <ele>345.82</ele>
  <time>2026-09-01T20:01:10Z</time>
  <course>180.79</course>
  <speed>0.05</speed>
  <fix>3d</fix>
</trkpt>
<trkpt lat="-27.2744388" lon="151.2900649">
  <ele>345.78</ele>
  <time>2026-09-01T20:01:10Z</time>
  <course>180.78</course>
  <speed>0.05</speed>
  <fix>3d</fix>
</trkpt>
<trkpt lat="-27.2744389" lon="151.2900652">
  <ele>345.94</ele>
  <time>2026-09-01T20:01:10Z</time>
  <course>229.81</course>
  <speed>0.02</speed>
  <fix>3d</fix>
</trkpt>
<trkpt lat="-27.2744388" lon="151.2900648">
  <ele>345.77</ele>
  <time>2026-09-01T20:01:10Z</time>
  <course>180.78</course>
  <speed>0.05</speed>
  <fix>3d</fix>
</trkpt>
<trkpt lat="-27.2744388" lon="151.2900648">
  <ele>345.73</ele>
  <time>2026-09-01T20:01:10Z</time>
  <course>180.78</course>
  <speed>0.05</speed>
  <fix>3d</fix>
</trkpt>
<trkpt lat="-27.2744389" lon="151.2900652">
  <ele>345.84</ele>
  <time>2026-09-01T20:01:10Z</time>
  <course>226.45</course>
  <speed>0.02</speed>
  <fix>3d</fix>
</trkpt>
<trkpt lat="-27.2744388" lon="151.2900648">
  <ele>345.73</ele>
  <time>2026-09-01T20:01:10Z</time>
  <course>180.78</course>
  <speed>0.05</speed>
  <fix>3d</fix>
</trkpt>
<trkpt lat="-27.2744388" lon="151.2900648">
  <ele>345.69</ele>
  <time>2026-09-01T20:01:10Z</time>
  <course>180.79</course>
  <speed>0.05</speed>
  <fix>3d</fix>
</trkpt>
<trkpt lat="-27.2744389" lon="151.2900652">
  <ele>345.84</ele>
  <time>2026-09-01T20:01:10Z</time>
  <course>226.45</course>
  <speed>0.02</speed>
  <fix>3d</fix>
</trkpt>
<trkpt lat="-27.2744388" lon="151.2900648">
  <ele>345.68</ele>
  <time>2026-09-01T20:01:10Z</time>
  <course>180.79</course>
  <speed>0.05</speed>
  <fix>3d</fix>
</trkpt>
<trkpt lat="-27.2744388" lon="151.2900648">
  <ele>345.64</ele>
  <time>2026-09-01T20:01:10Z</time>
  <course>180.8</course>
  <speed>0.05</speed>
  <fix>3d</fix>
</trkpt>
<trkpt lat="-27.2744389" lon="151.2900652">
  <ele>345.74</ele>
  <time>2026-09-01T20:01:10Z</time>
  <course>224.0</course>
  <speed>0.03</speed>
  <fix>3d</fix>
</trkpt>
<trkpt lat="-27.2744388" lon="151.2900648">
  <ele>345.62</ele>
  <time>2026-09-01T20:01:10Z</time>
  <course>180.8</course>
  <speed>0.05</speed>
  <fix>3d</fix>
</trkpt>
<trkpt lat="-27.2744388" lon="151.2900648">
  <ele>345.59</ele>
  <time>2026-09-01T20:01:10Z</time>
  <course>180.81</course>
  <speed>0.05</speed>
  <fix>3d</fix>
</trkpt>
<trkpt lat="-27.2744389" lon="151.2900652">
  <ele>345.74</ele>
  <time>2026-09-01T20:01:10Z</time>
  <course>224.0</course>
  <speed>0.03</speed>
  <fix>3d</fix>
</trkpt>
<trkpt lat="-27.2744388" lon="151.2900648">
  <ele>345.58</ele>
  <time>2026-09-01T20:01:10Z</time>
  <course>180.81</course>
  <speed>0.05</speed>
  <fix>3d</fix>
</trkpt>
<trkpt lat="-27.2744388" lon="151.2900648">
  <ele>345.54</ele>
  <time>2026-09-01T20:01:10Z</time>
  <course>180.82</course>
  <speed>0.05</speed>
  <fix>3d</fix>
</trkpt>
<trkpt lat="-27.2744389" lon="151.2900652">
  <ele>345.64</ele>
  <time>2026-09-01T20:01:10Z</time>
  <course>221.96</course>
  <speed>0.04</speed>
  <fix>3d</fix>
</trkpt>
<trkpt lat="-27.2744388" lon="151.2900648">
  <ele>345.54</ele>
  <time>2026-09-01T20:01:10Z</time>
  <course>180.82</course>
  <speed>0.05</speed>
  <fix>3d</fix>
</trkpt>
<trkpt lat="-27.2744388" lon="151.2900647">
  <ele>345.49</ele>
  <time>2026-09-01T20:01:10Z</time>
  <course>180.83</course>
  <speed>0.06082762530298219</speed>
  <fix>3d</fix>
</trkpt>
<trkpt lat="-27.2744389" lon="151.2900652">
  <ele>345.64</ele>
  <time>2026-09-01T20:01:10Z</time>
  <course>221.96</course>
  <speed>0.04</speed>
  <fix>3d</fix>
</trkpt>
<trkpt lat="-27.2744388" lon="151.2900647">
  <ele>345.47</ele>
  <time>2026-09-01T20:01:10Z</time>
  <course>180.84</course>
  <speed>0.06082762530298219</speed>
  <fix>3d</fix>
</trkpt>
<trkpt lat="-27.2744389" lon="151.2900647">
  <ele>345.44</ele>
  <time>2026-09-01T20:01:10Z</time>
  <course>180.84</course>
  <speed>0.06082762530298219</speed>
  <fix>3d</fix>
</trkpt>
<trkpt lat="-27.274439" lon="151.2900651">
  <ele>345.53</ele>
  <time>2026-09-01T20:01:10Z</time>
  <course>220.55</course>
  <speed>0.04</speed>
  <fix>3d</fix>
</trkpt>
<trkpt lat="-27.2744389" lon="151.2900647">
  <ele>345.43</ele>
  <time>2026-09-01T20:01:10Z</time>
  <course>180.84</course>
  <speed>0.06082762530298219</speed>
  <fix>3d</fix>
</trkpt>
<trkpt lat="-27.2744389" lon="151.2900647">
  <ele>345.39</ele>
  <time>2026-09-01T20:01:10Z</time>
  <course>180.85</course>
  <speed>0.06082762530298219</speed>
  <fix>3d</fix>
</trkpt>
<trkpt lat="-27.274439" lon="151.2900651">
  <ele>345.53</ele>
  <time>2026-09-01T20:01:10Z</time>
  <course>220.55</course>
  <speed>0.04</speed>
  <fix>3d</fix>
</trkpt>
<trkpt lat="-27.2744389" lon="151.2900647">
  <ele>345.38</ele>
  <time>2026-09-01T20:01:10Z</time>
  <course>180.85</course>
  <speed>0.06082762530298219</speed>
  <fix>3d</fix>
</trkpt>
<trkpt lat="-27.2744389" lon="151.2900647">
  <ele>345.34</ele>
  <time>2026-09-01T20:01:10Z</time>
  <course>180.85</course>
  <speed>0.06082762530298219</speed>
  <fix>3d</fix>
</trkpt>
<trkpt lat="-27.274439" lon="151.2900651">
  <ele>345.44</ele>
  <time>2026-09-01T20:01:10Z</time>
  <course>220.1</course>
  <speed>0.05</speed>
  <fix>3d</fix>
</trkpt>
<trkpt lat="-27.2744389" lon="151.2900647">
  <ele>345.33</ele>
  <time>2026-09-01T20:01:10Z</time>
  <course>180.85</course>
  <speed>0.06082762530298219</speed>
  <fix>3d</fix>
</trkpt>
<trkpt lat="-27.2744389" lon="151.2900646">
  <ele>345.29</ele>
  <time>2026-09-01T20:01:10Z</time>
  <course>180.85</course>
  <speed>0.06082762530298219</speed>
  <fix>3d</fix>
</trkpt>
<trkpt lat="-27.274439" lon="151.2900651">
  <ele>345.44</ele>
  <time>2026-09-01T20:01:10Z</time>
  <course>220.1</course>
  <speed>0.05</speed>
  <fix>3d</fix>
</trkpt>
<trkpt lat="-27.274439" lon="151.2900646">
  <ele>345.28</ele>
  <time>2026-09-01T20:01:10Z</time>
  <course>180.84</course>
  <speed>0.06082762530298219</speed>
  <fix>3d</fix>
</trkpt>
<trkpt lat="-27.274439" lon="151.2900646">
  <ele>345.24</ele>
  <time>2026-09-01T20:01:10Z</time>
  <course>180.84</course>
  <speed>0.06082762530298219</speed>
  <fix>3d</fix>
</trkpt>
<trkpt lat="-27.2744391" lon="151.290065">
  <ele>345.34</ele>
  <time>2026-09-01T20:01:10Z</time>
  <course>220.03</course>
  <speed>0.05</speed>
  <fix>3d</fix>
</trkpt>
<trkpt lat="-27.274439" lon="151.2900646">
  <ele>345.22</ele>
  <time>2026-09-01T20:01:10Z</time>
  <course>180.84</course>
  <speed>0.06082762530298219</speed>
  <fix>3d</fix>
</trkpt>
<trkpt lat="-27.274439" lon="151.2900646">
  <ele>345.19</ele>
  <time>2026-09-01T20:01:10Z</time>
  <course>180.83</course>
  <speed>0.06082762530298219</speed>
  <fix>3d</fix>
</trkpt>
<trkpt lat="-27.2744391" lon="151.290065">
  <ele>345.34</ele>
  <time>2026-09-01T20:01:10Z</time>
  <course>220.03</course>
  <speed>0.05</speed>
  <fix>3d</fix>
</trkpt>
<trkpt lat="-27.274439" lon="151.2900646">
  <ele>345.17</ele>
  <time>2026-09-01T20:01:10Z</time>
  <course>180.83</course>
  <speed>0.06082762530298219</speed>
  <fix>3d</fix>
</trkpt>
<trkpt lat="-27.274439" lon="151.2900646">
  <ele>345.14</ele>
  <time>2026-09-01T20:01:10Z</time>
  <course>180.82</course>
  <speed>0.06082762530298219</speed>
  <fix>3d</fix>
</trkpt>
<trkpt lat="-27.2744392" lon="151.2900649">
  <ele>345.24</ele>
  <time>2026-09-01T20:01:10Z</time>
  <course>219.81</course>
  <speed>0.05</speed>
  <fix>3d</fix>
</trkpt>
<trkpt lat="-27.274439" lon="151.2900645">
  <ele>345.12</ele>
  <time>2026-09-01T20:01:10Z</time>
  <course>180.82</course>
  <speed>0.06082762530298219</speed>
  <fix>3d</fix>
</trkpt>
<trkpt lat="-27.2744391" lon="151.2900645">
  <ele>345.09</ele>
  <time>2026-09-01T20:01:10Z</time>
  <course>180.82</course>
  <speed>0.06082762530298219</speed>
  <fix>3d</fix>
</trkpt>
<trkpt lat="-27.2744392" lon="151.2900649">
  <ele>345.24</ele>
  <time>2026-09-01T20:01:10Z</time>
  <course>219.81</course>
  <speed>0.05</speed>
  <fix>3d</fix>
</trkpt>
<trkpt lat="-27.2744391" lon="151.2900645">
  <ele>345.07</ele>
  <time>2026-09-01T20:01:10Z</time>
  <course>180.82</course>
  <speed>0.06082762530298219</speed>
  <fix>3d</fix>
</trkpt>
<trkpt lat="-27.2744391" lon="151.2900645">
  <ele>345.04</ele>
  <time>2026-09-01T20:01:10Z</time>
  <course>180.82</course>
  <speed>0.06082762530298219</speed>
  <fix>3d</fix>
</trkpt>
<trkpt lat="-27.2744393" lon="151.2900649">
  <ele>345.14</ele>
  <time>2026-09-01T20:01:10Z</time>
  <course>219.36</course>
  <speed>0.05</speed>
  <fix>3d</fix>
</trkpt>
<trkpt lat="-27.2744391" lon="151.2900645">
  <ele>345.04</ele>
  <time>2026-09-01T20:01:10Z</time>
  <course>180.82</course>
  <speed>0.06082762530298219</speed>
  <fix>3d</fix>
</trkpt>
<trkpt lat="-27.2744391" lon="151.2900645">
  <ele>344.99</ele>
  <time>2026-09-01T20:01:10Z</time>
  <course>180.82</course>
  <speed>0.05099019513592785</speed>
  <fix>3d</fix>
</trkpt>
<trkpt lat="-27.2744393" lon="151.2900649">
  <ele>345.14</ele>
  <time>2026-09-01T20:01:10Z</time>
  <course>219.36</course>
  <speed>0.05</speed>
  <fix>3d</fix>
</trkpt>
<trkpt lat="-27.2744391" lon="151.2900645">
  <ele>344.99</ele>
  <time>2026-09-01T20:01:10Z</time>
  <course>180.82</course>
  <speed>0.05099019513592785</speed>
  <fix>3d</fix>
</trkpt>
<trkpt lat="-27.2744392" lon="151.2900645">
  <ele>344.94</ele>
  <time>2026-09-01T20:01:10Z</time>
  <course>180.83</course>
  <speed>0.05099019513592785</speed>
  <fix>3d</fix>
</trkpt>
<trkpt lat="-27.2744393" lon="151.2900648">
  <ele>345.03</ele>
  <time>2026-09-01T20:01:10Z</time>
  <course>218.7</course>
  <speed>0.05</speed>
  <fix>3d</fix>
</trkpt>
<trkpt lat="-27.2744392" lon="151.2900644">
  <ele>344.92</ele>
  <time>2026-09-01T20:01:10Z</time>
  <course>180.83</course>
  <speed>0.05099019513592785</speed>
  <fix>3d</fix>
</trkpt>
<trkpt lat="-27.2744392" lon="151.2900644">
  <ele>344.89</ele>
  <time>2026-09-01T20:01:10Z</time>
  <course>180.83</course>
  <speed>0.05099019513592785</speed>
  <fix>3d</fix>
</trkpt>
<trkpt lat="-27.2744393" lon="151.2900648">
  <ele>345.03</ele>
  <time>2026-09-01T20:01:10Z</time>
  <course>218.7</course>
  <speed>0.05</speed>
  <fix>3d</fix>
</trkpt>
<trkpt lat="-27.2744392" lon="151.2900644">
  <ele>344.87</ele>
  <time>2026-09-01T20:01:10Z</time>
  <course>180.83</course>
  <speed>0.05099019513592785</speed>
  <fix>3d</fix>
</trkpt>
<trkpt lat="-27.2744392" lon="151.2900644">
  <ele>344.84</ele>
  <time>2026-09-01T20:01:10Z</time>
  <course>180.83</course>
  <speed>0.05099019513592785</speed>
  <fix>3d</fix>
</trkpt>
<trkpt lat="-27.2744394" lon="151.2900647">
  <ele>344.93</ele>
  <time>2026-09-01T20:01:10Z</time>
  <course>217.92</course>
  <speed>0.05</speed>
  <fix>3d</fix>
</trkpt>
<trkpt lat="-27.2744392" lon="151.2900644">
  <ele>344.84</ele>
  <time>2026-09-01T20:01:10Z</time>
  <course>180.83</course>
  <speed>0.05099019513592785</speed>
  <fix>3d</fix>
</trkpt>
<trkpt lat="-27.2744393" lon="151.2900644">
  <ele>344.79</ele>
  <time>2026-09-01T20:01:10Z</time>
  <course>180.83</course>
  <speed>0.05099019513592785</speed>
  <fix>3d</fix>
</trkpt>
<trkpt lat="-27.2744394" lon="151.2900647">
  <ele>344.93</ele>
  <time>2026-09-01T20:01:10Z</time>
  <course>217.92</course>
  <speed>0.05</speed>
  <fix>3d</fix>
</trkpt>
<trkpt lat="-27.2744393" lon="151.2900644">
  <ele>344.77</ele>
  <time>2026-09-01T20:01:10Z</time>
  <course>180.83</course>
  <speed>0.05099019513592785</speed>
  <fix>3d</fix>
</trkpt>
<trkpt lat="-27.2744393" lon="151.2900643">
  <ele>344.73</ele>
  <time>2026-09-01T20:01:10Z</time>
  <course>180.83</course>
  <speed>0.05099019513592785</speed>
  <fix>3d</fix>
</trkpt>
<trkpt lat="-27.2744395" lon="151.2900646">
  <ele>344.83</ele>
  <time>2026-09-01T20:01:10Z</time>
  <course>217.06</course>
  <speed>0.05</speed>
  <fix>3d</fix>
</trkpt>
<trkpt lat="-27.2744393" lon="151.2900643">
  <ele>344.72</ele>
  <time>2026-09-01T20:01:10Z</time>
  <course>180.83</course>
  <speed>0.05099019513592785</speed>
  <fix>3d</fix>
</trkpt>
<trkpt lat="-27.2744393" lon="151.2900643">
  <ele>344.68</ele>
  <time>2026-09-01T20:01:10Z</time>
  <course>180.83</course>
  <speed>0.05</speed>
  <fix>3d</fix>
</trkpt>
<trkpt lat="-27.2744395" lon="151.2900646">
  <ele>344.83</ele>
  <time>2026-09-01T20:01:10Z</time>
  <course>217.06</course>
  <speed>0.05</speed>
  <fix>3d</fix>
</trkpt>
<trkpt lat="-27.2744393" lon="151.2900643">
  <ele>344.67</ele>
  <time>2026-09-01T20:01:10Z</time>
  <course>180.83</course>
  <speed>0.05</speed>
  <fix>3d</fix>
</trkpt>
<trkpt lat="-27.2744394" lon="151.2900643">
  <ele>344.63</ele>
  <time>2026-09-01T20:01:10Z</time>
  <course>180.83</course>
  <speed>0.04</speed>
  <fix>3d</fix>
</trkpt>
<trkpt lat="-27.2744396" lon="151.2900646">
  <ele>344.72</ele>
  <time>2026-09-01T20:01:10Z</time>
  <course>216.08</course>
  <speed>0.05</speed>
  <fix>3d</fix>
</trkpt>
<trkpt lat="-27.2744394" lon="151.2900643">
  <ele>344.62</ele>
  <time>2026-09-01T20:01:10Z</time>
  <course>180.83</course>
  <speed>0.04</speed>
  <fix>3d</fix>
</trkpt>
<trkpt lat="-27.2744394" lon="151.2900643">
  <ele>344.58</ele>
  <time>2026-09-01T20:01:10Z</time>
  <course>180.83</course>
  <speed>0.04</speed>
  <fix>3d</fix>
</trkpt>
<trkpt lat="-27.2744396" lon="151.2900646">
  <ele>344.72</ele>
  <time>2026-09-01T20:01:10Z</time>
  <course>216.08</course>
  <speed>0.05</speed>
  <fix>3d</fix>
</trkpt>
<trkpt lat="-27.2744394" lon="151.2900643">
  <ele>344.57</ele>
  <time>2026-09-01T20:01:10Z</time>
  <course>180.83</course>
  <speed>0.04</speed>
  <fix>3d</fix>
</trkpt>
<trkpt lat="-27.2744394" lon="151.2900643">
  <ele>344.53</ele>
  <time>2026-09-01T20:01:10Z</time>
  <course>180.83</course>
  <speed>0.04</speed>
  <fix>3d</fix>
</trkpt>
<trkpt lat="-27.2744397" lon="151.2900645">
  <ele>344.63</ele>
  <time>2026-09-01T20:01:10Z</time>
  <course>214.85</course>
  <speed>0.04</speed>
  <fix>3d</fix>
</trkpt>
<trkpt lat="-27.2744394" lon="151.2900642">
  <ele>344.52</ele>
  <time>2026-09-01T20:01:10Z</time>
  <course>180.83</course>
  <speed>0.04</speed>
  <fix>3d</fix>
</trkpt>
<trkpt lat="-27.2744395" lon="151.2900642">
  <ele>344.48</ele>
  <time>2026-09-01T20:01:10Z</time>
  <course>180.82</course>
  <speed>0.04</speed>
  <fix>3d</fix>
</trkpt>
<trkpt lat="-27.2744397" lon="151.2900645">
  <ele>344.63</ele>
  <time>2026-09-01T20:01:10Z</time>
  <course>214.85</course>
  <speed>0.04</speed>
  <fix>3d</fix>
</trkpt>
<trkpt lat="-27.2744395" lon="151.2900642">
  <ele>344.48</ele>
  <time>2026-09-01T20:01:10Z</time>
  <course>180.82</course>
  <speed>0.04</speed>
  <fix>3d</fix>
</trkpt>
<trkpt lat="-27.2744395" lon="151.2900642">
  <ele>344.43</ele>
  <time>2026-09-01T20:01:10Z</time>
  <course>180.82</course>
  <speed>0.04</speed>
  <fix>3d</fix>
</trkpt>
<trkpt lat="-27.2744397" lon="151.2900645">
  <ele>344.53</ele>
  <time>2026-09-01T20:01:10Z</time>
  <course>213.38</course>
  <speed>0.04</speed>
  <fix>3d</fix>
</trkpt>
<trkpt lat="-27.2744395" lon="151.2900642">
  <ele>344.43</ele>
  <time>2026-09-01T20:01:10Z</time>
  <course>180.82</course>
  <speed>0.04</speed>
  <fix>3d</fix>
</trkpt>
<trkpt lat="-27.2744395" lon="151.2900642">
  <ele>344.38</ele>
  <time>2026-09-01T20:01:10Z</time>
  <course>180.82</course>
  <speed>0.04</speed>
  <fix>3d</fix>
</trkpt>
<trkpt lat="-27.2744397" lon="151.2900645">
  <ele>344.53</ele>
  <time>2026-09-01T20:01:10Z</time>
  <course>213.38</course>
  <speed>0.04</speed>
  <fix>3d</fix>
</trkpt>
<trkpt lat="-27.2744395" lon="151.2900642">
  <ele>344.37</ele>
  <time>2026-09-01T20:01:10Z</time>
  <course>180.81</course>
  <speed>0.04</speed>
  <fix>3d</fix>
</trkpt>
<trkpt lat="-27.2744395" lon="151.2900642">
  <ele>344.33</ele>
  <time>2026-09-01T20:01:10Z</time>
  <course>180.81</course>
  <speed>0.03</speed>
  <fix>3d</fix>
</trkpt>
<trkpt lat="-27.2744398" lon="151.2900645">
  <ele>344.43</ele>
  <time>2026-09-01T20:01:10Z</time>
  <course>211.62</course>
  <speed>0.03</speed>
  <fix>3d</fix>
</trkpt>
<trkpt lat="-27.2744396" lon="151.2900642">
  <ele>344.32</ele>
  <time>2026-09-01T20:01:10Z</time>
  <course>180.81</course>
  <speed>0.03</speed>
  <fix>3d</fix>
</trkpt>
<trkpt lat="-27.2744396" lon="151.2900642">
  <ele>344.28</ele>
  <time>2026-09-01T20:01:10Z</time>
  <course>180.8</course>
  <speed>0.03</speed>
  <fix>3d</fix>
</trkpt>
<trkpt lat="-27.2744398" lon="151.2900645">
  <ele>344.43</ele>
  <time>2026-09-01T20:01:10Z</time>
  <course>211.62</course>
  <speed>0.03</speed>
  <fix>3d</fix>
</trkpt>
<trkpt lat="-27.2744396" lon="151.2900642">
  <ele>344.27</ele>
  <time>2026-09-01T20:01:10Z</time>
  <course>180.8</course>
  <speed>0.03</speed>
  <fix>3d</fix>
</trkpt>
<trkpt lat="-27.2744396" lon="151.2900642">
  <ele>344.23</ele>
  <time>2026-09-01T20:01:10Z</time>
  <course>180.81</course>
  <speed>0.03</speed>
  <fix>3d</fix>
</trkpt>
<trkpt lat="-27.2744398" lon="151.2900644">
  <ele>344.33</ele>
  <time>2026-09-01T20:01:10Z</time>
  <course>209.76</course>
  <speed>0.03</speed>
  <fix>3d</fix>
</trkpt>
<trkpt lat="-27.2744396" lon="151.2900642">
  <ele>344.22</ele>
  <time>2026-09-01T20:01:10Z</time>
  <course>180.81</course>
  <speed>0.03</speed>
  <fix>3d</fix>
</trkpt>
<trkpt lat="-27.2744396" lon="151.2900642">
  <ele>344.18</ele>
  <time>2026-09-01T20:01:10Z</time>
  <course>180.81</course>
  <speed>0.03</speed>
  <fix>3d</fix>
</trkpt>
<trkpt lat="-27.2744398" lon="151.2900644">
  <ele>344.33</ele>
  <time>2026-09-01T20:01:10Z</time>
  <course>209.76</course>
  <speed>0.03</speed>
  <fix>3d</fix>
</trkpt>
<trkpt lat="-27.2744396" lon="151.2900642">
  <ele>344.18</ele>
  <time>2026-09-01T20:01:10Z</time>
  <course>180.81</course>
  <speed>0.03</speed>
  <fix>3d</fix>
</trkpt>
<trkpt lat="-27.2744396" lon="151.2900642">
  <ele>344.13</ele>
  <time>2026-09-01T20:01:10Z</time>
  <course>180.81</course>
  <speed>0.03</speed>
  <fix>3d</fix>
</trkpt>
<trkpt lat="-27.2744399" lon="151.2900644">
  <ele>344.23</ele>
  <time>2026-09-01T20:01:10Z</time>
  <course>207.55</course>
  <speed>0.02</speed>
  <fix>3d</fix>
</trkpt>
<trkpt lat="-27.2744396" lon="151.2900642">
  <ele>344.13</ele>
  <time>2026-09-01T20:01:10Z</time>
  <course>180.81</course>
  <speed>0.03</speed>
  <fix>3d</fix>
</trkpt>
<trkpt lat="-27.2744397" lon="151.2900641">
  <ele>344.08</ele>
  <time>2026-09-01T20:01:10Z</time>
  <course>180.81</course>
  <speed>0.02</speed>
  <fix>3d</fix>
</trkpt>
<trkpt lat="-27.2744399" lon="151.2900644">
  <ele>344.23</ele>
  <time>2026-09-01T20:01:10Z</time>
  <course>207.55</course>
  <speed>0.02</speed>
  <fix>3d</fix>
</trkpt>
<trkpt lat="-27.2744397" lon="151.2900641">
  <ele>344.07</ele>
  <time>2026-09-01T20:01:10Z</time>
  <course>180.81</course>
  <speed>0.02</speed>
  <fix>3d</fix>
</trkpt>
<trkpt lat="-27.2744397" lon="151.2900641">
  <ele>344.03</ele>
  <time>2026-09-01T20:01:10Z</time>
  <course>180.8</course>
  <speed>0.02</speed>
  <fix>3d</fix>
</trkpt>
<trkpt lat="-27.2744399" lon="151.2900644">
  <ele>344.14</ele>
  <time>2026-09-01T20:01:10Z</time>
  <course>203.39</course>
  <speed>0.02</speed>
  <fix>3d</fix>
</trkpt>
<trkpt lat="-27.2744397" lon="151.2900641">
  <ele>344.02</ele>
  <time>2026-09-01T20:01:10Z</time>
  <course>180.79</course>
  <speed>0.02</speed>
  <fix>3d</fix>
</trkpt>
<trkpt lat="-27.2744397" lon="151.2900641">
  <ele>343.99</ele>
  <time>2026-09-01T20:01:10Z</time>
  <course>180.78</course>
  <speed>0.022360679774997897</speed>
  <fix>3d</fix>
</trkpt>
<trkpt lat="-27.2744399" lon="151.2900644">
  <ele>344.14</ele>
  <time>2026-09-01T20:01:10Z</time>
  <course>203.39</course>
  <speed>0.02</speed>
  <fix>3d</fix>
</trkpt>
<trkpt lat="-27.2744397" lon="151.2900641">
  <ele>343.94</ele>
  <time>2026-09-01T20:01:10Z</time>
  <course>180.76</course>
  <speed>0.022360679774997897</speed>
  <fix>3d</fix>
</trkpt>
<trkpt lat="-27.27444" lon="151.2900644">
  <ele>344.03</ele>
  <time>2026-09-01T20:01:10Z</time>
  <course>197.19</course>
  <speed>0.01</speed>
  <fix>3d</fix>
</trkpt>
<trkpt lat="-27.2744397" lon="151.2900641">
  <ele>343.89</ele>
  <time>2026-09-01T20:01:10Z</time>
  <course>180.75</course>
  <speed>0.022360679774997897</speed>
  <fix>3d</fix>
</trkpt>
<trkpt lat="-27.27444" lon="151.2900644">
  <ele>344.03</ele>
  <time>2026-09-01T20:01:10Z</time>
  <course>197.19</course>
  <speed>0.01</speed>
  <fix>3d</fix>
</trkpt>
<trkpt lat="-27.2744397" lon="151.2900642">
  <ele>343.83</ele>
  <time>2026-09-01T20:01:10Z</time>
  <course>180.74</course>
  <speed>0.022360679774997897</speed>
  <fix>3d</fix>
</trkpt>
<trkpt lat="-27.27444" lon="151.2900644">
  <ele>343.94</ele>
  <time>2026-09-01T20:01:10Z</time>
  <course>190.66</course>
  <speed>0.01</speed>
  <fix>3d</fix>
</trkpt>
<trkpt lat="-27.2744397" lon="151.2900642">
  <ele>343.78</ele>
  <time>2026-09-01T20:01:10Z</time>
  <course>180.74</course>
  <speed>0.0282842712474619</speed>
  <fix>3d</fix>
</trkpt>
<trkpt lat="-27.27444" lon="151.2900644">
  <ele>343.94</ele>
  <time>2026-09-01T20:01:10Z</time>
  <course>190.66</course>
  <speed>0.01</speed>
  <fix>3d</fix>
</trkpt>
<trkpt lat="-27.2744397" lon="151.2900642">
  <ele>343.73</ele>
  <time>2026-09-01T20:01:10Z</time>
  <course>180.74</course>
  <speed>0.0282842712474619</speed>
  <fix>3d</fix>
</trkpt>
<trkpt lat="-27.2744401" lon="151.2900644">
  <ele>343.84</ele>
  <time>2026-09-01T20:01:10Z</time>
  <course>182.65</course>
  <speed>0.0</speed>
  <fix>3d</fix>
</trkpt>
<trkpt lat="-27.2744398" lon="151.2900642">
  <ele>343.68</ele>
  <time>2026-09-01T20:01:10Z</time>
  <course>180.73</course>
  <speed>0.0282842712474619</speed>
  <fix>3d</fix>
</trkpt>
<trkpt lat="-27.2744401" lon="151.2900644">
  <ele>343.84</ele>
  <time>2026-09-01T20:01:10Z</time>
  <course>182.65</course>
  <speed>0.0</speed>
  <fix>3d</fix>
</trkpt>
<trkpt lat="-27.2744398" lon="151.2900642">
  <ele>343.64</ele>
  <time>2026-09-01T20:01:10Z</time>
  <course>180.7</course>
  <speed>0.0282842712474619</speed>
  <fix>3d</fix>
</trkpt>
<trkpt lat="-27.2744401" lon="151.2900644">
  <ele>343.74</ele>
  <time>2026-09-01T20:01:10Z</time>
  <course>170.2</course>
  <speed>0.0</speed>
  <fix>3d</fix>
</trkpt>
<trkpt lat="-27.2744398" lon="151.2900642">
  <ele>343.59</ele>
  <time>2026-09-01T20:01:10Z</time>
  <course>180.66</course>
  <speed>0.0282842712474619</speed>
  <fix>3d</fix>
</trkpt>
<trkpt lat="-27.2744401" lon="151.2900644">
  <ele>343.74</ele>
  <time>2026-09-01T20:01:10Z</time>
  <course>170.2</course>
  <speed>0.0</speed>
  <fix>3d</fix>
</trkpt>
<trkpt lat="-27.2744398" lon="151.2900642">
  <ele>343.54</ele>
  <time>2026-09-01T20:01:10Z</time>
  <course>180.62</course>
  <speed>0.0282842712474619</speed>
  <fix>3d</fix>
</trkpt>
<trkpt lat="-27.2744401" lon="151.2900644">
  <ele>343.64</ele>
  <time>2026-09-01T20:01:10Z</time>
  <course>147.46</course>
  <speed>0.0</speed>
  <fix>3d</fix>
</trkpt>
<trkpt lat="-27.2744398" lon="151.2900642">
  <ele>343.49</ele>
  <time>2026-09-01T20:01:10Z</time>
  <course>180.59</course>
  <speed>0.03605551275463989</speed>
  <fix>3d</fix>
</trkpt>
<trkpt lat="-27.2744401" lon="151.2900644">
  <ele>343.64</ele>
  <time>2026-09-01T20:01:10Z</time>
  <course>147.46</course>
  <speed>0.0</speed>
  <fix>3d</fix>
</trkpt>
<trkpt lat="-27.2744398" lon="151.2900642">
  <ele>343.44</ele>
  <time>2026-09-01T20:01:10Z</time>
  <course>180.58</course>
  <speed>0.03605551275463989</speed>
  <fix>3d</fix>
</trkpt>
<trkpt lat="-27.2744401" lon="151.2900644">
  <ele>343.53</ele>
  <time>2026-09-01T20:01:10Z</time>
  <course>350.8</course>
  <speed>0.0</speed>
  <fix>3d</fix>
</trkpt>
<trkpt lat="-27.2744398" lon="151.2900642">
  <ele>343.39</ele>
  <time>2026-09-01T20:01:10Z</time>
  <course>180.58</course>
  <speed>0.03605551275463989</speed>
  <fix>3d</fix>
</trkpt>
<trkpt lat="-27.2744401" lon="151.2900644">
  <ele>343.53</ele>
  <time>2026-09-01T20:01:10Z</time>
  <course>350.8</course>
  <speed>0.0</speed>
  <fix>3d</fix>
</trkpt>
<trkpt lat="-27.2744398" lon="151.2900642">
  <ele>343.34</ele>
  <time>2026-09-01T20:01:10Z</time>
  <course>180.59</course>
  <speed>0.03605551275463989</speed>
  <fix>3d</fix>
</trkpt>
<trkpt lat="-27.2744401" lon="151.2900644">
  <ele>343.44</ele>
  <time>2026-09-01T20:01:10Z</time>
  <course>354.28</course>
  <speed>0.0</speed>
  <fix>3d</fix>
</trkpt>
<trkpt lat="-27.2744398" lon="151.2900642">
  <ele>343.29</ele>
  <time>2026-09-01T20:01:10Z</time>
  <course>180.6</course>
  <speed>0.03605551275463989</speed>
  <fix>3d</fix>
</trkpt>
<trkpt lat="-27.2744401" lon="151.2900644">
  <ele>343.44</ele>
  <time>2026-09-01T20:01:10Z</time>
  <course>354.28</course>
  <speed>0.0</speed>
  <fix>3d</fix>
</trkpt>
<trkpt lat="-27.2744398" lon="151.2900642">
  <ele>343.24</ele>
  <time>2026-09-01T20:01:10Z</time>
  <course>180.61</course>
  <speed>0.03605551275463989</speed>
  <fix>3d</fix>
</trkpt>
<trkpt lat="-27.2744401" lon="151.2900644">
  <ele>343.34</ele>
  <time>2026-09-01T20:01:10Z</time>
  <course>355.76</course>
  <speed>0.01</speed>
  <fix>3d</fix>
</trkpt>
<trkpt lat="-27.2744398" lon="151.2900642">
  <ele>343.19</ele>
  <time>2026-09-01T20:01:10Z</time>
  <course>180.62</course>
  <speed>0.03605551275463989</speed>
  <fix>3d</fix>
</trkpt>
<trkpt lat="-27.2744401" lon="151.2900644">
  <ele>343.34</ele>
  <time>2026-09-01T20:01:10Z</time>
  <course>355.76</course>
  <speed>0.01</speed>
  <fix>3d</fix>
</trkpt>
<trkpt lat="-27.2744398" lon="151.2900642">
  <ele>343.14</ele>
  <time>2026-09-01T20:01:10Z</time>
  <course>180.64</course>
  <speed>0.03605551275463989</speed>
  <fix>3d</fix>
</trkpt>
<trkpt lat="-27.2744401" lon="151.2900644">
  <ele>343.24</ele>
  <time>2026-09-01T20:01:10Z</time>
  <course>356.65</course>
  <speed>0.01</speed>
  <fix>3d</fix>
</trkpt>
<trkpt lat="-27.2744398" lon="151.2900642">
  <ele>343.09</ele>
  <time>2026-09-01T20:01:10Z</time>
  <course>180.64</course>
  <speed>0.03605551275463989</speed>
  <fix>3d</fix>
</trkpt>
<trkpt lat="-27.2744401" lon="151.2900644">
  <ele>343.24</ele>
  <time>2026-09-01T20:01:10Z</time>
  <course>356.65</course>
  <speed>0.01</speed>
  <fix>3d</fix>
</trkpt>
<trkpt lat="-27.2744398" lon="151.2900642">
  <ele>343.08</ele>
  <time>2026-09-01T20:01:10Z</time>
  <course>180.64</course>
  <speed>0.0282842712474619</speed>
  <fix>3d</fix>
</trkpt>
<trkpt lat="-27.2744401" lon="151.2900643">
  <ele>343.14</ele>
  <time>2026-09-01T20:01:10Z</time>
  <course>356.88</course>
  <speed>0.01</speed>
  <fix>3d</fix>
</trkpt>
<trkpt lat="-27.2744398" lon="151.2900642">
  <ele>343.09</ele>
  <time>2026-09-01T20:01:10Z</time>
  <course>180.64</course>
  <speed>0.022360679774997897</speed>
  <fix>3d</fix>
</trkpt>
<trkpt lat="-27.2744401" lon="151.2900643">
  <ele>343.14</ele>
  <time>2026-09-01T20:01:10Z</time>
  <course>356.88</course>
  <speed>0.01</speed>
  <fix>3d</fix>
</trkpt>
<trkpt lat="-27.2744398" lon="151.2900642">
  <ele>343.1</ele>
  <time>2026-09-01T20:01:10Z</time>
  <course>180.64</course>
  <speed>0.022360679774997897</speed>
  <fix>3d</fix>
</trkpt>
<trkpt lat="-27.2744401" lon="151.2900642">
  <ele>343.08</ele>
  <time>2026-09-01T20:01:10Z</time>
  <course>356.88</course>
  <speed>0.0</speed>
  <fix>3d</fix>
</trkpt>
<trkpt lat="-27.2744398" lon="151.2900642">
  <ele>343.1</ele>
  <time>2026-09-01T20:01:10Z</time>
  <course>180.64</course>
  <speed>0.0282842712474619</speed>
  <fix>3d</fix>
</trkpt>
<trkpt lat="-27.2744401" lon="151.2900642">
  <ele>343.08</ele>
  <time>2026-09-01T20:01:10Z</time>
  <course>356.88</course>
  <speed>0.0</speed>
  <fix>3d</fix>
</trkpt>
<trkpt lat="-27.2744398" lon="151.2900642">
  <ele>343.1</ele>
  <time>2026-09-01T20:01:10Z</time>
  <course>180.64</course>
  <speed>0.0282842712474619</speed>
  <fix>3d</fix>
</trkpt>
<trkpt lat="-27.2744401" lon="151.2900643">
  <ele>343.09</ele>
  <time>2026-09-01T20:01:10Z</time>
  <course>176.89</course>
  <speed>0.0</speed>
  <fix>3d</fix>
</trkpt>
<trkpt lat="-27.2744398" lon="151.2900641">
  <ele>343.09</ele>
  <time>2026-09-01T20:01:10Z</time>
  <course>180.64</course>
  <speed>0.0282842712474619</speed>
  <fix>3d</fix>
</trkpt>
<trkpt lat="-27.2744401" lon="151.2900643">
  <ele>343.09</ele>
  <time>2026-09-01T20:01:10Z</time>
  <course>176.89</course>
  <speed>0.0</speed>
  <fix>3d</fix>
</trkpt>
<trkpt lat="-27.2744398" lon="151.2900641">
  <ele>343.09</ele>
  <time>2026-09-01T20:01:10Z</time>
  <course>180.64</course>
  <speed>0.0282842712474619</speed>
  <fix>3d</fix>
</trkpt>
<trkpt lat="-27.2744401" lon="151.2900644">
  <ele>343.1</ele>
  <time>2026-09-01T20:01:10Z</time>
  <course>176.9</course>
  <speed>0.0</speed>
  <fix>3d</fix>
</trkpt>
<trkpt lat="-27.2744398" lon="151.2900641">
  <ele>343.09</ele>
  <time>2026-09-01T20:01:10Z</time>
  <course>180.63</course>
  <speed>0.0282842712474619</speed>
  <fix>3d</fix>
</trkpt>
<trkpt lat="-27.2744401" lon="151.2900644">
  <ele>343.1</ele>
  <time>2026-09-01T20:01:10Z</time>
  <course>176.9</course>
  <speed>0.0</speed>
  <fix>3d</fix>
</trkpt>
<trkpt lat="-27.2744398" lon="151.2900641">
  <ele>343.09</ele>
  <time>2026-09-01T20:01:10Z</time>
  <course>180.63</course>
  <speed>0.0282842712474619</speed>
  <fix>3d</fix>
</trkpt>
<trkpt lat="-27.2744401" lon="151.2900644">
  <ele>343.09</ele>
  <time>2026-09-01T20:01:10Z</time>
  <course>356.87</course>
  <speed>0.0</speed>
  <fix>3d</fix>
</trkpt>
<trkpt lat="-27.2744398" lon="151.2900641">
  <ele>343.08</ele>
  <time>2026-09-01T20:01:10Z</time>
  <course>180.63</course>
  <speed>0.0282842712474619</speed>
  <fix>3d</fix>
</trkpt>
<trkpt lat="-27.2744401" lon="151.2900644">
  <ele>343.09</ele>
  <time>2026-09-01T20:01:10Z</time>
  <course>356.87</course>
  <speed>0.0</speed>
  <fix>3d</fix>
</trkpt>
<trkpt lat="-27.2744398" lon="151.2900641">
  <ele>343.08</ele>
  <time>2026-09-01T20:01:10Z</time>
  <course>180.63</course>
  <speed>0.022360679774997897</speed>
  <fix>3d</fix>
</trkpt>
<trkpt lat="-27.2744401" lon="151.2900644">
  <ele>343.09</ele>
  <time>2026-09-01T20:01:10Z</time>
  <course>177.23</course>
  <speed>0.0</speed>
  <fix>3d</fix>
</trkpt>
<trkpt lat="-27.2744398" lon="151.2900641">
  <ele>343.08</ele>
  <time>2026-09-01T20:01:11Z</time>
  <course>180.63</course>
  <speed>0.022360679774997897</speed>
  <fix>3d</fix>
</trkpt>
<trkpt lat="-27.2744401" lon="151.2900644">
  <ele>343.09</ele>
  <time>2026-09-01T20:01:11Z</time>
  <course>177.23</course>
  <speed>0.0</speed>
  <fix>3d</fix>
</trkpt>
<trkpt lat="-27.2744398" lon="151.2900641">
  <ele>343.08</ele>
  <time>2026-09-01T20:01:11Z</time>
  <course>180.63</course>
  <speed>0.022360679774997897</speed>
  <fix>3d</fix>
</trkpt>
<trkpt lat="-27.2744401" lon="151.2900644">
  <ele>343.1</ele>
  <time>2026-09-01T20:01:11Z</time>
  <course>177.03</course>
  <speed>0.0</speed>
  <fix>3d</fix>
</trkpt>
<trkpt lat="-27.2744398" lon="151.2900641">
  <ele>343.08</ele>
  <time>2026-09-01T20:01:11Z</time>
  <course>180.63</course>
  <speed>0.022360679774997897</speed>
  <fix>3d</fix>
</trkpt>
<trkpt lat="-27.2744401" lon="151.2900644">
  <ele>343.1</ele>
  <time>2026-09-01T20:01:11Z</time>
  <course>177.03</course>
  <speed>0.0</speed>
  <fix>3d</fix>
</trkpt>
<trkpt lat="-27.2744398" lon="151.2900642">
  <ele>343.08</ele>
  <time>2026-09-01T20:01:11Z</time>
  <course>180.63</course>
  <speed>0.022360679774997897</speed>
  <fix>3d</fix>
</trkpt>
<trkpt lat="-27.2744401" lon="151.2900644">
  <ele>343.1</ele>
  <time>2026-09-01T20:01:11Z</time>
  <course>356.47</course>
  <speed>0.0</speed>
  <fix>3d</fix>
</trkpt>
<trkpt lat="-27.2744398" lon="151.2900642">
  <ele>343.08</ele>
  <time>2026-09-01T20:01:11Z</time>
  <course>180.63</course>
  <speed>0.022360679774997897</speed>
  <fix>3d</fix>
</trkpt>
<trkpt lat="-27.2744401" lon="151.2900644">
  <ele>343.1</ele>
  <time>2026-09-01T20:01:11Z</time>
  <course>356.47</course>
  <speed>0.0</speed>
  <fix>3d</fix>
</trkpt>
<trkpt lat="-27.2744399" lon="151.2900642">
  <ele>343.08</ele>
  <time>2026-09-01T20:01:11Z</time>
  <course>180.62</course>
  <speed>0.022360679774997897</speed>
  <fix>3d</fix>
</trkpt>
<trkpt lat="-27.2744401" lon="151.2900644">
  <ele>343.1</ele>
  <time>2026-09-01T20:01:11Z</time>
  <course>356.26</course>
  <speed>0.0</speed>
  <fix>3d</fix>
</trkpt>
<trkpt lat="-27.2744399" lon="151.2900642">
  <ele>343.09</ele>
  <time>2026-09-01T20:01:11Z</time>
  <course>180.62</course>
  <speed>0.022360679774997897</speed>
  <fix>3d</fix>
</trkpt>
<trkpt lat="-27.2744401" lon="151.2900644">
  <ele>343.1</ele>
  <time>2026-09-01T20:01:11Z</time>
  <course>356.26</course>
  <speed>0.0</speed>
  <fix>3d</fix>
</trkpt>
<trkpt lat="-27.2744399" lon="151.2900642">
  <ele>343.09</ele>
  <time>2026-09-01T20:01:11Z</time>
  <course>180.62</course>
  <speed>0.022360679774997897</speed>
  <fix>3d</fix>
</trkpt>
<trkpt lat="-27.2744401" lon="151.2900644">
  <ele>343.1</ele>
  <time>2026-09-01T20:01:11Z</time>
  <course>178.93</course>
  <speed>0.0</speed>
  <fix>3d</fix>
</trkpt>
<trkpt lat="-27.2744399" lon="151.2900642">
  <ele>343.08</ele>
  <time>2026-09-01T20:01:11Z</time>
  <course>180.62</course>
  <speed>0.022360679774997897</speed>
  <fix>3d</fix>
</trkpt>
<trkpt lat="-27.2744401" lon="151.2900644">
  <ele>343.1</ele>
  <time>2026-09-01T20:01:11Z</time>
  <course>178.93</course>
  <speed>0.0</speed>
  <fix>3d</fix>
</trkpt>
<trkpt lat="-27.2744399" lon="151.2900642">
  <ele>343.08</ele>
  <time>2026-09-01T20:01:11Z</time>
  <course>180.62</course>
  <speed>0.022360679774997897</speed>
  <fix>3d</fix>
</trkpt>
<trkpt lat="-27.2744401" lon="151.2900644">
  <ele>343.1</ele>
  <time>2026-09-01T20:01:11Z</time>
  <course>183.63</course>
  <speed>0.0</speed>
  <fix>3d</fix>
</trkpt>
<trkpt lat="-27.2744399" lon="151.2900642">
  <ele>343.08</ele>
  <time>2026-09-01T20:01:11Z</time>
  <course>180.62</course>
  <speed>0.022360679774997897</speed>
  <fix>3d</fix>
</trkpt>
<trkpt lat="-27.2744401" lon="151.2900644">
  <ele>343.1</ele>
  <time>2026-09-01T20:01:11Z</time>
  <course>183.63</course>
  <speed>0.0</speed>
  <fix>3d</fix>
</trkpt>
<trkpt lat="-27.2744399" lon="151.2900642">
  <ele>343.08</ele>
  <time>2026-09-01T20:01:11Z</time>
  <course>180.62</course>
  <speed>0.022360679774997897</speed>
  <fix>3d</fix>
</trkpt>
<trkpt lat="-27.2744401" lon="151.2900644">
  <ele>343.1</ele>
  <time>2026-09-01T20:01:11Z</time>
  <course>346.69</course>
  <speed>0.0</speed>
  <fix>3d</fix>
</trkpt>
<trkpt lat="-27.2744399" lon="151.2900642">
  <ele>343.09</ele>
  <time>2026-09-01T20:01:11Z</time>
  <course>180.61</course>
  <speed>0.022360679774997897</speed>
  <fix>3d</fix>
</trkpt>
<trkpt lat="-27.2744401" lon="151.2900644">
  <ele>343.1</ele>
  <time>2026-09-01T20:01:11Z</time>
  <course>346.69</course>
  <speed>0.0</speed>
  <fix>3d</fix>
</trkpt>
<trkpt lat="-27.2744399" lon="151.2900642">
  <ele>343.09</ele>
  <time>2026-09-01T20:01:11Z</time>
  <course>180.61</course>
  <speed>0.022360679774997897</speed>
  <fix>3d</fix>
</trkpt>
<trkpt lat="-27.2744401" lon="151.2900644">
  <ele>343.1</ele>
  <time>2026-09-01T20:01:11Z</time>
  <course>358.74</course>
  <speed>0.0</speed>
  <fix>3d</fix>
</trkpt>
<trkpt lat="-27.2744399" lon="151.2900642">
  <ele>343.09</ele>
  <time>2026-09-01T20:01:11Z</time>
  <course>180.61</course>
  <speed>0.022360679774997897</speed>
  <fix>3d</fix>
</trkpt>
<trkpt lat="-27.2744401" lon="151.2900644">
  <ele>343.1</ele>
  <time>2026-09-01T20:01:11Z</time>
  <course>358.74</course>
  <speed>0.0</speed>
  <fix>3d</fix>
</trkpt>
<trkpt lat="-27.2744399" lon="151.2900642">
  <ele>343.09</ele>
  <time>2026-09-01T20:01:11Z</time>
  <course>180.61</course>
  <speed>0.022360679774997897</speed>
  <fix>3d</fix>
</trkpt>
<trkpt lat="-27.2744401" lon="151.2900644">
  <ele>343.1</ele>
  <time>2026-09-01T20:01:11Z</time>
  <course>3.11</course>
  <speed>0.0</speed>
  <fix>3d</fix>
</trkpt>
<trkpt lat="-27.2744399" lon="151.2900642">
  <ele>343.09</ele>
  <time>2026-09-01T20:01:11Z</time>
  <course>180.61</course>
  <speed>0.022360679774997897</speed>
  <fix>3d</fix>
</trkpt>
<trkpt lat="-27.2744401" lon="151.2900644">
  <ele>343.1</ele>
  <time>2026-09-01T20:01:11Z</time>
  <course>3.11</course>
  <speed>0.0</speed>
  <fix>3d</fix>
</trkpt>
<trkpt lat="-27.2744399" lon="151.2900642">
  <ele>343.09</ele>
  <time>2026-09-01T20:01:11Z</time>
  <course>180.61</course>
  <speed>0.022360679774997897</speed>
  <fix>3d</fix>
</trkpt>
<trkpt lat="-27.2744401" lon="151.2900644">
  <ele>343.1</ele>
  <time>2026-09-01T20:01:11Z</time>
  <course>347.69</course>
  <speed>0.0</speed>
  <fix>3d</fix>
</trkpt>
<trkpt lat="-27.2744399" lon="151.2900642">
  <ele>343.09</ele>
  <time>2026-09-01T20:01:11Z</time>
  <course>180.61</course>
  <speed>0.022360679774997897</speed>
  <fix>3d</fix>
</trkpt>
<trkpt lat="-27.2744401" lon="151.2900644">
  <ele>343.1</ele>
  <time>2026-09-01T20:01:11Z</time>
  <course>347.69</course>
  <speed>0.0</speed>
  <fix>3d</fix>
</trkpt>
<trkpt lat="-27.2744399" lon="151.2900642">
  <ele>343.09</ele>
  <time>2026-09-01T20:01:11Z</time>
  <course>180.6</course>
  <speed>0.022360679774997897</speed>
  <fix>3d</fix>
</trkpt>
<trkpt lat="-27.2744401" lon="151.2900644">
  <ele>343.1</ele>
  <time>2026-09-01T20:01:11Z</time>
  <course>320.82</course>
  <speed>0.0</speed>
  <fix>3d</fix>
</trkpt>
<trkpt lat="-27.2744399" lon="151.2900642">
  <ele>343.09</ele>
  <time>2026-09-01T20:01:11Z</time>
  <course>180.6</course>
  <speed>0.022360679774997897</speed>
  <fix>3d</fix>
</trkpt>
<trkpt lat="-27.2744401" lon="151.2900644">
  <ele>343.1</ele>
  <time>2026-09-01T20:01:11Z</time>
  <course>320.82</course>
  <speed>0.0</speed>
  <fix>3d</fix>
</trkpt>
<trkpt lat="-27.2744399" lon="151.2900642">
  <ele>343.09</ele>
  <time>2026-09-01T20:01:11Z</time>
  <course>180.6</course>
  <speed>0.022360679774997897</speed>
  <fix>3d</fix>
</trkpt>
<trkpt lat="-27.2744401" lon="151.2900644">
  <ele>343.1</ele>
  <time>2026-09-01T20:01:11Z</time>
  <course>305.08</course>
  <speed>0.0</speed>
  <fix>3d</fix>
</trkpt>
<trkpt lat="-27.2744399" lon="151.2900642">
  <ele>343.09</ele>
  <time>2026-09-01T20:01:11Z</time>
  <course>180.6</course>
  <speed>0.0282842712474619</speed>
  <fix>3d</fix>
</trkpt>
<trkpt lat="-27.2744401" lon="151.2900644">
  <ele>343.1</ele>
  <time>2026-09-01T20:01:11Z</time>
  <course>305.08</course>
  <speed>0.0</speed>
  <fix>3d</fix>
</trkpt>
<trkpt lat="-27.2744399" lon="151.2900642">
  <ele>343.09</ele>
  <time>2026-09-01T20:01:11Z</time>
  <course>180.6</course>
  <speed>0.0282842712474619</speed>
  <fix>3d</fix>
</trkpt>
<trkpt lat="-27.2744401" lon="151.2900644">
  <ele>343.1</ele>
  <time>2026-09-01T20:01:11Z</time>
  <course>314.79</course>
  <speed>0.0</speed>
  <fix>3d</fix>
</trkpt>
<trkpt lat="-27.2744399" lon="151.2900642">
  <ele>343.09</ele>
  <time>2026-09-01T20:01:11Z</time>
  <course>180.6</course>
  <speed>0.0282842712474619</speed>
  <fix>3d</fix>
</trkpt>
<trkpt lat="-27.2744401" lon="151.2900644">
  <ele>343.1</ele>
  <time>2026-09-01T20:01:11Z</time>
  <course>314.79</course>
  <speed>0.0</speed>
  <fix>3d</fix>
</trkpt>
<trkpt lat="-27.2744399" lon="151.2900642">
  <ele>343.09</ele>
  <time>2026-09-01T20:01:11Z</time>
  <course>180.59</course>
  <speed>0.0282842712474619</speed>
  <fix>3d</fix>
</trkpt>
<trkpt lat="-27.2744401" lon="151.2900644">
  <ele>343.1</ele>
  <time>2026-09-01T20:01:11Z</time>
  <course>315.56</course>
  <speed>0.0</speed>
  <fix>3d</fix>
</trkpt>
<trkpt lat="-27.2744399" lon="151.2900642">
  <ele>343.09</ele>
  <time>2026-09-01T20:01:11Z</time>
  <course>180.59</course>
  <speed>0.0282842712474619</speed>
  <fix>3d</fix>
</trkpt>
<trkpt lat="-27.2744401" lon="151.2900644">
  <ele>343.1</ele>
  <time>2026-09-01T20:01:11Z</time>
  <course>315.56</course>
  <speed>0.0</speed>
  <fix>3d</fix>
</trkpt>
<trkpt lat="-27.2744399" lon="151.2900642">
  <ele>343.09</ele>
  <time>2026-09-01T20:01:11Z</time>
  <course>180.59</course>
  <speed>0.0282842712474619</speed>
  <fix>3d</fix>
</trkpt>
<trkpt lat="-27.2744401" lon="151.2900644">
  <ele>343.1</ele>
  <time>2026-09-01T20:01:11Z</time>
  <course>314.4</course>
  <speed>0.0</speed>
  <fix>3d</fix>
</trkpt>
<trkpt lat="-27.2744399" lon="151.2900642">
  <ele>343.09</ele>
  <time>2026-09-01T20:01:11Z</time>
  <course>180.59</course>
  <speed>0.0282842712474619</speed>
  <fix>3d</fix>
</trkpt>
<trkpt lat="-27.2744401" lon="151.2900644">
  <ele>343.1</ele>
  <time>2026-09-01T20:01:11Z</time>
  <course>314.4</course>
  <speed>0.0</speed>
  <fix>3d</fix>
</trkpt>
<trkpt lat="-27.2744399" lon="151.2900642">
  <ele>343.09</ele>
  <time>2026-09-01T20:01:11Z</time>
  <course>180.59</course>
  <speed>0.0282842712474619</speed>
  <fix>3d</fix>
</trkpt>
<trkpt lat="-27.2744401" lon="151.2900644">
  <ele>343.1</ele>
  <time>2026-09-01T20:01:11Z</time>
  <course>314.64</course>
  <speed>0.0</speed>
  <fix>3d</fix>
</trkpt>
<trkpt lat="-27.2744399" lon="151.2900642">
  <ele>343.1</ele>
  <time>2026-09-01T20:01:11Z</time>
  <course>180.59</course>
  <speed>0.0282842712474619</speed>
  <fix>3d</fix>
</trkpt>
<trkpt lat="-27.2744401" lon="151.2900644">
  <ele>343.1</ele>
  <time>2026-09-01T20:01:11Z</time>
  <course>314.64</course>
  <speed>0.0</speed>
  <fix>3d</fix>
</trkpt>
<trkpt lat="-27.2744399" lon="151.2900642">
  <ele>343.1</ele>
  <time>2026-09-01T20:01:11Z</time>
  <course>180.58</course>
  <speed>0.0282842712474619</speed>
  <fix>3d</fix>
</trkpt>
<trkpt lat="-27.2744401" lon="151.2900644">
  <ele>343.1</ele>
  <time>2026-09-01T20:01:11Z</time>
  <course>314.83</course>
  <speed>0.0</speed>
  <fix>3d</fix>
</trkpt>
<trkpt lat="-27.2744399" lon="151.2900642">
  <ele>343.1</ele>
  <time>2026-09-01T20:01:11Z</time>
  <course>180.58</course>
  <speed>0.0282842712474619</speed>
  <fix>3d</fix>
</trkpt>
<trkpt lat="-27.2744401" lon="151.2900644">
  <ele>343.1</ele>
  <time>2026-09-01T20:01:11Z</time>
  <course>314.83</course>
  <speed>0.0</speed>
  <fix>3d</fix>
</trkpt>
<trkpt lat="-27.2744399" lon="151.2900642">
  <ele>343.1</ele>
  <time>2026-09-01T20:01:11Z</time>
  <course>180.58</course>
  <speed>0.0282842712474619</speed>
  <fix>3d</fix>
</trkpt>
<trkpt lat="-27.2744401" lon="151.2900644">
  <ele>343.1</ele>
  <time>2026-09-01T20:01:11Z</time>
  <course>282.48</course>
  <speed>0.0</speed>
  <fix>3d</fix>
</trkpt>
<trkpt lat="-27.2744399" lon="151.2900642">
  <ele>343.1</ele>
  <time>2026-09-01T20:01:11Z</time>
  <course>180.58</course>
  <speed>0.0282842712474619</speed>
  <fix>3d</fix>
</trkpt>
<trkpt lat="-27.2744401" lon="151.2900644">
  <ele>343.1</ele>
  <time>2026-09-01T20:01:11Z</time>
  <course>282.48</course>
  <speed>0.0</speed>
  <fix>3d</fix>
</trkpt>
<trkpt lat="-27.2744399" lon="151.2900642">
  <ele>343.1</ele>
  <time>2026-09-01T20:01:11Z</time>
  <course>180.58</course>
  <speed>0.0282842712474619</speed>
  <fix>3d</fix>
</trkpt>
<trkpt lat="-27.2744401" lon="151.2900644">
  <ele>343.1</ele>
  <time>2026-09-01T20:01:11Z</time>
  <course>275.67</course>
  <speed>0.0</speed>
  <fix>3d</fix>
</trkpt>
<trkpt lat="-27.2744399" lon="151.2900642">
  <ele>343.1</ele>
  <time>2026-09-01T20:01:11Z</time>
  <course>180.58</course>
  <speed>0.0282842712474619</speed>
  <fix>3d</fix>
</trkpt>
<trkpt lat="-27.2744401" lon="151.2900644">
  <ele>343.1</ele>
  <time>2026-09-01T20:01:11Z</time>
  <course>275.67</course>
  <speed>0.0</speed>
  <fix>3d</fix>
</trkpt>
<trkpt lat="-27.2744399" lon="151.2900642">
  <ele>343.1</ele>
  <time>2026-09-01T20:01:11Z</time>
  <course>180.57</course>
  <speed>0.0282842712474619</speed>
  <fix>3d</fix>
</trkpt>
<trkpt lat="-27.2744401" lon="151.2900644">
  <ele>343.1</ele>
  <time>2026-09-01T20:01:11Z</time>
  <course>329.11</course>
  <speed>0.0</speed>
  <fix>3d</fix>
</trkpt>
<trkpt lat="-27.2744399" lon="151.2900642">
  <ele>343.1</ele>
  <time>2026-09-01T20:01:11Z</time>
  <course>180.57</course>
  <speed>0.0282842712474619</speed>
  <fix>3d</fix>
</trkpt>
<trkpt lat="-27.2744401" lon="151.2900644">
  <ele>343.1</ele>
  <time>2026-09-01T20:01:11Z</time>
  <course>329.11</course>
  <speed>0.0</speed>
  <fix>3d</fix>
</trkpt>
<trkpt lat="-27.2744399" lon="151.2900642">
  <ele>343.11</ele>
  <time>2026-09-01T20:01:11Z</time>
  <course>180.57</course>
  <speed>0.0282842712474619</speed>
  <fix>3d</fix>
</trkpt>
<trkpt lat="-27.2744401" lon="151.2900644">
  <ele>343.1</ele>
  <time>2026-09-01T20:01:11Z</time>
  <course>330.9</course>
  <speed>0.0</speed>
  <fix>3d</fix>
</trkpt>
<trkpt lat="-27.2744399" lon="151.2900642">
  <ele>343.1</ele>
  <time>2026-09-01T20:01:11Z</time>
  <course>180.57</course>
  <speed>0.0282842712474619</speed>
  <fix>3d</fix>
</trkpt>
<trkpt lat="-27.2744401" lon="151.2900644">
  <ele>343.1</ele>
  <time>2026-09-01T20:01:11Z</time>
  <course>330.9</course>
  <speed>0.0</speed>
  <fix>3d</fix>
</trkpt>
<trkpt lat="-27.2744399" lon="151.2900642">
  <ele>343.1</ele>
  <time>2026-09-01T20:01:11Z</time>
  <course>180.57</course>
  <speed>0.0282842712474619</speed>
  <fix>3d</fix>
</trkpt>
<trkpt lat="-27.2744401" lon="151.2900644">
  <ele>343.1</ele>
  <time>2026-09-01T20:01:11Z</time>
  <course>304.33</course>
  <speed>0.0</speed>
  <fix>3d</fix>
</trkpt>
<trkpt lat="-27.2744399" lon="151.2900642">
  <ele>343.11</ele>
  <time>2026-09-01T20:01:11Z</time>
  <course>180.56</course>
  <speed>0.0282842712474619</speed>
  <fix>3d</fix>
</trkpt>
<trkpt lat="-27.2744401" lon="151.2900644">
  <ele>343.1</ele>
  <time>2026-09-01T20:01:11Z</time>
  <course>304.33</course>
  <speed>0.0</speed>
  <fix>3d</fix>
</trkpt>
<trkpt lat="-27.2744399" lon="151.2900642">
  <ele>343.11</ele>
  <time>2026-09-01T20:01:11Z</time>
  <course>180.56</course>
  <speed>0.0282842712474619</speed>
  <fix>3d</fix>
</trkpt>
<trkpt lat="-27.2744401" lon="151.2900644">
  <ele>343.1</ele>
  <time>2026-09-01T20:01:11Z</time>
  <course>293.86</course>
  <speed>0.0</speed>
  <fix>3d</fix>
</trkpt>
<trkpt lat="-27.2744399" lon="151.2900642">
  <ele>343.11</ele>
  <time>2026-09-01T20:01:11Z</time>
  <course>180.56</course>
  <speed>0.0282842712474619</speed>
  <fix>3d</fix>
</trkpt>
<trkpt lat="-27.2744401" lon="151.2900644">
  <ele>343.1</ele>
  <time>2026-09-01T20:01:11Z</time>
  <course>293.86</course>
  <speed>0.0</speed>
  <fix>3d</fix>
</trkpt>
<trkpt lat="-27.2744399" lon="151.2900642">
  <ele>343.11</ele>
  <time>2026-09-01T20:01:11Z</time>
  <course>180.56</course>
  <speed>0.0282842712474619</speed>
  <fix>3d</fix>
</trkpt>
<trkpt lat="-27.2744401" lon="151.2900644">
  <ele>343.1</ele>
  <time>2026-09-01T20:01:11Z</time>
  <course>297.63</course>
  <speed>0.0</speed>
  <fix>3d</fix>
</trkpt>
<trkpt lat="-27.2744399" lon="151.2900642">
  <ele>343.11</ele>
  <time>2026-09-01T20:01:11Z</time>
  <course>180.56</course>
  <speed>0.0282842712474619</speed>
  <fix>3d</fix>
</trkpt>
<trkpt lat="-27.2744401" lon="151.2900644">
  <ele>343.1</ele>
  <time>2026-09-01T20:01:11Z</time>
  <course>297.63</course>
  <speed>0.0</speed>
  <fix>3d</fix>
</trkpt>
<trkpt lat="-27.2744399" lon="151.2900642">
  <ele>343.11</ele>
  <time>2026-09-01T20:01:11Z</time>
  <course>180.55</course>
  <speed>0.0282842712474619</speed>
  <fix>3d</fix>
</trkpt>
<trkpt lat="-27.2744401" lon="151.2900644">
  <ele>343.1</ele>
  <time>2026-09-01T20:01:11Z</time>
  <course>305.34</course>
  <speed>0.0</speed>
  <fix>3d</fix>
</trkpt>
<trkpt lat="-27.2744399" lon="151.2900642">
  <ele>343.11</ele>
  <time>2026-09-01T20:01:11Z</time>
  <course>180.55</course>
  <speed>0.0282842712474619</speed>
  <fix>3d</fix>
</trkpt>
<trkpt lat="-27.2744401" lon="151.2900644">
  <ele>343.1</ele>
  <time>2026-09-01T20:01:11Z</time>
  <course>305.34</course>
  <speed>0.0</speed>
  <fix>3d</fix>
</trkpt>
<trkpt lat="-27.2744399" lon="151.2900642">
  <ele>343.11</ele>
  <time>2026-09-01T20:01:11Z</time>
  <course>180.55</course>
  <speed>0.0282842712474619</speed>
  <fix>3d</fix>
</trkpt>
<trkpt lat="-27.2744401" lon="151.2900644">
  <ele>343.1</ele>
  <time>2026-09-01T20:01:11Z</time>
  <course>325.96</course>
  <speed>0.0</speed>
  <fix>3d</fix>
</trkpt>
<trkpt lat="-27.2744399" lon="151.2900642">
  <ele>343.11</ele>
  <time>2026-09-01T20:01:11Z</time>
  <course>180.54</course>
  <speed>0.0282842712474619</speed>
  <fix>3d</fix>
</trkpt>
<trkpt lat="-27.2744401" lon="151.2900644">
  <ele>343.1</ele>
  <time>2026-09-01T20:01:11Z</time>
  <course>325.96</course>
  <speed>0.0</speed>
  <fix>3d</fix>
</trkpt>
<trkpt lat="-27.2744399" lon="151.2900642">
  <ele>343.11</ele>
  <time>2026-09-01T20:01:11Z</time>
  <course>180.54</course>
  <speed>0.0282842712474619</speed>
  <fix>3d</fix>
</trkpt>
<trkpt lat="-27.2744401" lon="151.2900644">
  <ele>343.1</ele>
  <time>2026-09-01T20:01:11Z</time>
  <course>72.95</course>
  <speed>0.0</speed>
  <fix>3d</fix>
</trkpt>
<trkpt lat="-27.2744399" lon="151.2900642">
  <ele>343.11</ele>
  <time>2026-09-01T20:01:11Z</time>
  <course>180.53</course>
  <speed>0.0282842712474619</speed>
  <fix>3d</fix>
</trkpt>
<trkpt lat="-27.2744401" lon="151.2900644">
  <ele>343.1</ele>
  <time>2026-09-01T20:01:11Z</time>
  <course>72.95</course>
  <speed>0.0</speed>
  <fix>3d</fix>
</trkpt>
<trkpt lat="-27.2744399" lon="151.2900642">
  <ele>343.11</ele>
  <time>2026-09-01T20:01:11Z</time>
  <course>180.52</course>
  <speed>0.0282842712474619</speed>
  <fix>3d</fix>
</trkpt>
<trkpt lat="-27.2744401" lon="151.2900644">
  <ele>343.1</ele>
  <time>2026-09-01T20:01:11Z</time>
  <course>75.07</course>
  <speed>0.0</speed>
  <fix>3d</fix>
</trkpt>
<trkpt lat="-27.2744399" lon="151.2900642">
  <ele>343.11</ele>
  <time>2026-09-01T20:01:11Z</time>
  <course>180.52</course>
  <speed>0.0282842712474619</speed>
  <fix>3d</fix>
</trkpt>
<trkpt lat="-27.2744401" lon="151.2900644">
  <ele>343.1</ele>
  <time>2026-09-01T20:01:11Z</time>
  <course>75.07</course>
  <speed>0.0</speed>
  <fix>3d</fix>
</trkpt>
<trkpt lat="-27.2744399" lon="151.2900642">
  <ele>343.1</ele>
  <time>2026-09-01T20:01:11Z</time>
  <course>180.51</course>
  <speed>0.0282842712474619</speed>
  <fix>3d</fix>
</trkpt>
<trkpt lat="-27.2744401" lon="151.2900644">
  <ele>343.1</ele>
  <time>2026-09-01T20:01:11Z</time>
  <course>253.77</course>
  <speed>0.0</speed>
  <fix>3d</fix>
</trkpt>
<trkpt lat="-27.2744399" lon="151.2900642">
  <ele>343.1</ele>
  <time>2026-09-01T20:01:11Z</time>
  <course>180.5</course>
  <speed>0.0282842712474619</speed>
  <fix>3d</fix>
</trkpt>
<trkpt lat="-27.2744401" lon="151.2900644">
  <ele>343.1</ele>
  <time>2026-09-01T20:01:11Z</time>
  <course>253.77</course>
  <speed>0.0</speed>
  <fix>3d</fix>
</trkpt>
<trkpt lat="-27.2744399" lon="151.2900642">
  <ele>343.1</ele>
  <time>2026-09-01T20:01:11Z</time>
  <course>180.5</course>
  <speed>0.0282842712474619</speed>
  <fix>3d</fix>
</trkpt>
<trkpt lat="-27.2744401" lon="151.2900644">
  <ele>343.1</ele>
  <time>2026-09-01T20:01:11Z</time>
  <course>255.29</course>
  <speed>0.0</speed>
  <fix>3d</fix>
</trkpt>
<trkpt lat="-27.2744399" lon="151.2900642">
  <ele>343.1</ele>
  <time>2026-09-01T20:01:11Z</time>
  <course>180.49</course>
  <speed>0.0282842712474619</speed>
  <fix>3d</fix>
</trkpt>
<trkpt lat="-27.2744401" lon="151.2900644">
  <ele>343.1</ele>
  <time>2026-09-01T20:01:11Z</time>
  <course>255.29</course>
  <speed>0.0</speed>
  <fix>3d</fix>
</trkpt>
<trkpt lat="-27.2744399" lon="151.2900642">
  <ele>343.09</ele>
  <time>2026-09-01T20:01:11Z</time>
  <course>180.48</course>
  <speed>0.0282842712474619</speed>
  <fix>3d</fix>
</trkpt>
<trkpt lat="-27.2744401" lon="151.2900644">
  <ele>343.1</ele>
  <time>2026-09-01T20:01:11Z</time>
  <course>74.36</course>
  <speed>0.0</speed>
  <fix>3d</fix>
</trkpt>
<trkpt lat="-27.2744399" lon="151.2900642">
  <ele>343.09</ele>
  <time>2026-09-01T20:01:11Z</time>
  <course>180.48</course>
  <speed>0.0282842712474619</speed>
  <fix>3d</fix>
</trkpt>
<trkpt lat="-27.2744401" lon="151.2900644">
  <ele>343.1</ele>
  <time>2026-09-01T20:01:11Z</time>
  <course>74.36</course>
  <speed>0.0</speed>
  <fix>3d</fix>
</trkpt>
<trkpt lat="-27.2744399" lon="151.2900642">
  <ele>343.09</ele>
  <time>2026-09-01T20:01:11Z</time>
  <course>180.47</course>
  <speed>0.0282842712474619</speed>
  <fix>3d</fix>
</trkpt>
<trkpt lat="-27.2744401" lon="151.2900644">
  <ele>343.1</ele>
  <time>2026-09-01T20:01:11Z</time>
  <course>75.63</course>
  <speed>0.0</speed>
  <fix>3d</fix>
</trkpt>
<trkpt lat="-27.2744399" lon="151.2900642">
  <ele>343.08</ele>
  <time>2026-09-01T20:01:11Z</time>
  <course>180.46</course>
  <speed>0.0282842712474619</speed>
  <fix>3d</fix>
</trkpt>
<trkpt lat="-27.2744401" lon="151.2900644">
  <ele>343.1</ele>
  <time>2026-09-01T20:01:11Z</time>
  <course>75.63</course>
  <speed>0.0</speed>
  <fix>3d</fix>
</trkpt>
<trkpt lat="-27.2744399" lon="151.2900642">
  <ele>343.08</ele>
  <time>2026-09-01T20:01:11Z</time>
  <course>180.46</course>
  <speed>0.0282842712474619</speed>
  <fix>3d</fix>
</trkpt>
<trkpt lat="-27.2744401" lon="151.2900644">
  <ele>343.1</ele>
  <time>2026-09-01T20:01:11Z</time>
  <course>254.64</course>
  <speed>0.0</speed>
  <fix>3d</fix>
</trkpt>
<trkpt lat="-27.2744399" lon="151.2900642">
  <ele>343.08</ele>
  <time>2026-09-01T20:01:11Z</time>
  <course>180.45</course>
  <speed>0.0282842712474619</speed>
  <fix>3d</fix>
</trkpt>
<trkpt lat="-27.2744401" lon="151.2900644">
  <ele>343.1</ele>
  <time>2026-09-01T20:01:11Z</time>
  <course>254.64</course>
  <speed>0.0</speed>
  <fix>3d</fix>
</trkpt>
<trkpt lat="-27.2744399" lon="151.2900642">
  <ele>343.08</ele>
  <time>2026-09-01T20:01:11Z</time>
  <course>180.44</course>
  <speed>0.0282842712474619</speed>
  <fix>3d</fix>
</trkpt>
<trkpt lat="-27.2744401" lon="151.2900644">
  <ele>343.1</ele>
  <time>2026-09-01T20:01:11Z</time>
  <course>256.53</course>
  <speed>0.0</speed>
  <fix>3d</fix>
</trkpt>
<trkpt lat="-27.2744399" lon="151.2900642">
  <ele>343.07</ele>
  <time>2026-09-01T20:01:11Z</time>
  <course>180.44</course>
  <speed>0.0282842712474619</speed>
  <fix>3d</fix>
</trkpt>
<trkpt lat="-27.2744401" lon="151.2900644">
  <ele>343.1</ele>
  <time>2026-09-01T20:01:11Z</time>
  <course>256.53</course>
  <speed>0.0</speed>
  <fix>3d</fix>
</trkpt>
<trkpt lat="-27.2744399" lon="151.2900642">
  <ele>343.07</ele>
  <time>2026-09-01T20:01:11Z</time>
  <course>180.43</course>
  <speed>0.0282842712474619</speed>
  <fix>3d</fix>
</trkpt>
<trkpt lat="-27.2744401" lon="151.2900644">
  <ele>343.1</ele>
  <time>2026-09-01T20:01:11Z</time>
  <course>74.83</course>
  <speed>0.0</speed>
  <fix>3d</fix>
</trkpt>
<trkpt lat="-27.2744399" lon="151.2900642">
  <ele>343.07</ele>
  <time>2026-09-01T20:01:11Z</time>
  <course>180.42</course>
  <speed>0.0282842712474619</speed>
  <fix>3d</fix>
</trkpt>
<trkpt lat="-27.2744401" lon="151.2900644">
  <ele>343.1</ele>
  <time>2026-09-01T20:01:11Z</time>
  <course>74.83</course>
  <speed>0.0</speed>
  <fix>3d</fix>
</trkpt>
<trkpt lat="-27.2744399" lon="151.2900642">
  <ele>343.07</ele>
  <time>2026-09-01T20:01:11Z</time>
  <course>180.42</course>
  <speed>0.0282842712474619</speed>
  <fix>3d</fix>
</trkpt>
<trkpt lat="-27.2744401" lon="151.2900644">
  <ele>343.1</ele>
  <time>2026-09-01T20:01:11Z</time>
  <course>194.19</course>
  <speed>0.0</speed>
  <fix>3d</fix>
</trkpt>
<trkpt lat="-27.2744399" lon="151.2900642">
  <ele>343.06</ele>
  <time>2026-09-01T20:01:11Z</time>
  <course>180.41</course>
  <speed>0.0282842712474619</speed>
  <fix>3d</fix>
</trkpt>
<trkpt lat="-27.2744401" lon="151.2900644">
  <ele>343.1</ele>
  <time>2026-09-01T20:01:11Z</time>
  <course>194.19</course>
  <speed>0.0</speed>
  <fix>3d</fix>
</trkpt>
<trkpt lat="-27.2744399" lon="151.2900642">
  <ele>343.06</ele>
  <time>2026-09-01T20:01:11Z</time>
  <course>180.4</course>
  <speed>0.0282842712474619</speed>
  <fix>3d</fix>
</trkpt>
<trkpt lat="-27.2744401" lon="151.2900644">
  <ele>343.1</ele>
  <time>2026-09-01T20:01:11Z</time>
  <course>255.01</course>
  <speed>0.0</speed>
  <fix>3d</fix>
</trkpt>
<trkpt lat="-27.2744399" lon="151.2900642">
  <ele>343.06</ele>
  <time>2026-09-01T20:01:11Z</time>
  <course>180.4</course>
  <speed>0.0282842712474619</speed>
  <fix>3d</fix>
</trkpt>
<trkpt lat="-27.2744401" lon="151.2900644">
  <ele>343.1</ele>
  <time>2026-09-01T20:01:11Z</time>
  <course>255.01</course>
  <speed>0.0</speed>
  <fix>3d</fix>
</trkpt>
<trkpt lat="-27.2744399" lon="151.2900642">
  <ele>343.05</ele>
  <time>2026-09-01T20:01:11Z</time>
  <course>180.39</course>
  <speed>0.0282842712474619</speed>
  <fix>3d</fix>
</trkpt>
<trkpt lat="-27.2744401" lon="151.2900644">
  <ele>343.1</ele>
  <time>2026-09-01T20:01:11Z</time>
  <course>73.4</course>
  <speed>0.0</speed>
  <fix>3d</fix>
</trkpt>
<trkpt lat="-27.2744399" lon="151.2900642">
  <ele>343.05</ele>
  <time>2026-09-01T20:01:11Z</time>
  <course>180.38</course>
  <speed>0.0282842712474619</speed>
  <fix>3d</fix>
</trkpt>
<trkpt lat="-27.2744401" lon="151.2900644">
  <ele>343.1</ele>
  <time>2026-09-01T20:01:11Z</time>
  <course>73.4</course>
  <speed>0.0</speed>
  <fix>3d</fix>
</trkpt>
<trkpt lat="-27.2744399" lon="151.2900642">
  <ele>343.05</ele>
  <time>2026-09-01T20:01:11Z</time>
  <course>180.38</course>
  <speed>0.0282842712474619</speed>
  <fix>3d</fix>
</trkpt>
<trkpt lat="-27.2744401" lon="151.2900644">
  <ele>343.1</ele>
  <time>2026-09-01T20:01:11Z</time>
  <course>75.21</course>
  <speed>0.0</speed>
  <fix>3d</fix>
</trkpt>
<trkpt lat="-27.2744399" lon="151.2900642">
  <ele>343.05</ele>
  <time>2026-09-01T20:01:11Z</time>
  <course>180.37</course>
  <speed>0.0282842712474619</speed>
  <fix>3d</fix>
</trkpt>
<trkpt lat="-27.2744401" lon="151.2900644">
  <ele>343.1</ele>
  <time>2026-09-01T20:01:11Z</time>
  <course>75.21</course>
  <speed>0.0</speed>
  <fix>3d</fix>
</trkpt>
<trkpt lat="-27.2744399" lon="151.2900642">
  <ele>343.05</ele>
  <time>2026-09-01T20:01:11Z</time>
  <course>180.36</course>
  <speed>0.0282842712474619</speed>
  <fix>3d</fix>
</trkpt>
<trkpt lat="-27.2744401" lon="151.2900644">
  <ele>343.1</ele>
  <time>2026-09-01T20:01:11Z</time>
  <course>254.24</course>
  <speed>0.0</speed>
  <fix>3d</fix>
</trkpt>
<trkpt lat="-27.2744399" lon="151.2900642">
  <ele>343.04</ele>
  <time>2026-09-01T20:01:11Z</time>
  <course>180.36</course>
  <speed>0.0282842712474619</speed>
  <fix>3d</fix>
</trkpt>
<trkpt lat="-27.2744401" lon="151.2900644">
  <ele>343.1</ele>
  <time>2026-09-01T20:01:11Z</time>
  <course>254.24</course>
  <speed>0.0</speed>
  <fix>3d</fix>
</trkpt>
<trkpt lat="-27.2744399" lon="151.2900642">
  <ele>343.04</ele>
  <time>2026-09-01T20:01:11Z</time>
  <course>180.35</course>
  <speed>0.0282842712474619</speed>
  <fix>3d</fix>
</trkpt>
<trkpt lat="-27.2744401" lon="151.2900644">
  <ele>343.1</ele>
  <time>2026-09-01T20:01:11Z</time>
  <course>255.5</course>
  <speed>0.0</speed>
  <fix>3d</fix>
</trkpt>
<trkpt lat="-27.2744399" lon="151.2900642">
  <ele>343.04</ele>
  <time>2026-09-01T20:01:11Z</time>
  <course>180.34</course>
  <speed>0.0282842712474619</speed>
  <fix>3d</fix>
</trkpt>
<trkpt lat="-27.2744401" lon="151.2900644">
  <ele>343.1</ele>
  <time>2026-09-01T20:01:11Z</time>
  <course>255.5</course>
  <speed>0.0</speed>
  <fix>3d</fix>
</trkpt>
<trkpt lat="-27.2744399" lon="151.2900642">
  <ele>343.04</ele>
  <time>2026-09-01T20:01:11Z</time>
  <course>180.34</course>
  <speed>0.0282842712474619</speed>
  <fix>3d</fix>
</trkpt>
<trkpt lat="-27.2744401" lon="151.2900644">
  <ele>343.1</ele>
  <time>2026-09-01T20:01:11Z</time>
  <course>74.57</course>
  <speed>0.0</speed>
  <fix>3d</fix>
</trkpt>
<trkpt lat="-26.9720619" lon="149.6127921">
  <ele>339.29</ele>
  <time>2026-09-01T20:01:12Z</time>
  <course>310.27</course>
  <speed>0.0</speed>
  <fix>3d</fix>
</trkpt>
<trkpt lat="-26.9720619" lon="149.6127921">
  <ele>339.29</ele>
  <time>2026-09-01T20:01:12Z</time>
  <course>310.27</course>
  <speed>0.0</speed>
  <fix>3d</fix>
</trkpt>
<trkpt lat="-27.274439" lon="151.290064">
  <ele>-0.01</ele>
  <time>2026-09-01T20:01:12Z</time>
  <course>0.22</course>
  <speed>0.0</speed>
  <fix>3d</fix>
</trkpt>
<trkpt lat="-27.274439" lon="151.290064">
  <ele>343.1</ele>
  <time>2026-09-01T20:01:12Z</time>
  <course>294.58</course>
  <speed>0.0</speed>
  <fix>3d</fix>
</trkpt>
<trkpt lat="-27.274439" lon="151.290064">
  <ele>0.02</ele>
  <time>2026-09-01T20:01:12Z</time>
  <course>1.2</course>
  <speed>0.0</speed>
  <fix>3d</fix>
</trkpt>
<trkpt lat="-27.274439" lon="151.290064">
  <ele>343.1</ele>
  <time>2026-09-01T20:01:12Z</time>
  <course>294.58</course>
  <speed>0.0</speed>
  <fix>3d</fix>
</trkpt>
<trkpt lat="-27.274439" lon="151.290064">
  <ele>-0.08</ele>
  <time>2026-09-01T20:01:12Z</time>
  <course>2.1</course>
  <speed>0.0</speed>
  <fix>3d</fix>
</trkpt>
<trkpt lat="-27.274439" lon="151.290064">
  <ele>343.1</ele>
  <time>2026-09-01T20:01:12Z</time>
  <course>273.33</course>
  <speed>0.0</speed>
  <fix>3d</fix>
</trkpt>
<trkpt lat="-27.274439" lon="151.290064">
  <ele>0.22</ele>
  <time>2026-09-01T20:01:12Z</time>
  <course>2.92</course>
  <speed>0.0</speed>
  <fix>3d</fix>
</trkpt>
<trkpt lat="-27.274439" lon="151.290064">
  <ele>343.1</ele>
  <time>2026-09-01T20:01:12Z</time>
  <course>273.33</course>
  <speed>0.0</speed>
  <fix>3d</fix>
</trkpt>
<trkpt lat="-27.274439" lon="151.290064">
  <ele>0.09</ele>
  <time>2026-09-01T20:01:12Z</time>
  <course>3.66</course>
  <speed>0.0</speed>
  <fix>3d</fix>
</trkpt>
<trkpt lat="-27.274439" lon="151.290064">
  <ele>343.1</ele>
  <time>2026-09-01T20:01:12Z</time>
  <course>270.44</course>
  <speed>0.0</speed>
  <fix>3d</fix>
</trkpt>
<trkpt lat="-27.274439" lon="151.290064">
  <ele>0.08</ele>
  <time>2026-09-01T20:01:12Z</time>
  <course>4.34</course>
  <speed>0.0</speed>
  <fix>3d</fix>
</trkpt>
<trkpt lat="-27.274439" lon="151.290064">
  <ele>343.1</ele>
  <time>2026-09-01T20:01:12Z</time>
  <course>270.44</course>
  <speed>0.0</speed>
  <fix>3d</fix>
</trkpt>
<trkpt lat="-27.274439" lon="151.290064">
  <ele>0.09</ele>
  <time>2026-09-01T20:01:12Z</time>
  <course>4.95</course>
  <speed>0.0</speed>
  <fix>3d</fix>
</trkpt>
<trkpt lat="-27.274439" lon="151.290064">
  <ele>343.1</ele>
  <time>2026-09-01T20:01:12Z</time>
  <course>270.05</course>
  <speed>0.0</speed>
  <fix>3d</fix>
</trkpt>
<trkpt lat="-27.274439" lon="151.290064">
  <ele>-0.05</ele>
  <time>2026-09-01T20:01:12Z</time>
  <course>5.5</course>
  <speed>0.0</speed>
  <fix>3d</fix>
</trkpt>
<trkpt lat="-27.274439" lon="151.290064">
  <ele>343.1</ele>
  <time>2026-09-01T20:01:12Z</time>
  <course>270.05</course>
  <speed>0.0</speed>
  <fix>3d</fix>
</trkpt>
<trkpt lat="-27.274439" lon="151.290064">
  <ele>343.06</ele>
  <time>2026-09-01T20:01:12Z</time>
  <course>5.98</course>
  <speed>0.0</speed>
  <fix>3d</fix>
</trkpt>
<trkpt lat="-27.274439" lon="151.290064">
  <ele>343.1</ele>
  <time>2026-09-01T20:01:12Z</time>
  <course>270.0</course>
  <speed>0.0</speed>
  <fix>3d</fix>
</trkpt>
<trkpt lat="-27.274439" lon="151.290064">
  <ele>343.18</ele>
  <time>2026-09-01T20:01:12Z</time>
  <course>6.44</course>
  <speed>0.0</speed>
  <fix>3d</fix>
</trkpt>
<trkpt lat="-27.274439" lon="151.290064">
  <ele>343.1</ele>
  <time>2026-09-01T20:01:12Z</time>
  <course>270.0</course>
  <speed>0.0</speed>
  <fix>3d</fix>
</trkpt>
<trkpt lat="-27.274439" lon="151.290064">
  <ele>342.91</ele>
  <time>2026-09-01T20:01:12Z</time>
  <course>6.85</course>
  <speed>0.0</speed>
  <fix>3d</fix>
</trkpt>
<trkpt lat="-27.274439" lon="151.290064">
  <ele>343.1</ele>
  <time>2026-09-01T20:01:12Z</time>
  <course>270.0</course>
  <speed>0.0</speed>
  <fix>3d</fix>
</trkpt>
<trkpt lat="-27.274439" lon="151.290064">
  <ele>343.06</ele>
  <time>2026-09-01T20:01:12Z</time>
  <course>7.22</course>
  <speed>0.0</speed>
  <fix>3d</fix>
</trkpt>
<trkpt lat="-27.274439" lon="151.290064">
  <ele>343.1</ele>
  <time>2026-09-01T20:01:12Z</time>
  <course>270.0</course>
  <speed>0.0</speed>
  <fix>3d</fix>
</trkpt>
<trkpt lat="-27.274439" lon="151.290064">
  <ele>343.13</ele>
  <time>2026-09-01T20:01:12Z</time>
  <course>7.56</course>
  <speed>0.0</speed>
  <fix>3d</fix>
</trkpt>
<trkpt lat="-27.274439" lon="151.290064">
  <ele>343.1</ele>
  <time>2026-09-01T20:01:12Z</time>
  <course>270.0</course>
  <speed>0.0</speed>
  <fix>3d</fix>
</trkpt>
<trkpt lat="-27.274439" lon="151.290064">
  <ele>343.04</ele>
  <time>2026-09-01T20:01:12Z</time>
  <course>7.87</course>
  <speed>0.0</speed>
  <fix>3d</fix>
</trkpt>
<trkpt lat="-27.274439" lon="151.290064">
  <ele>343.1</ele>
  <time>2026-09-01T20:01:12Z</time>
  <course>270.0</course>
  <speed>0.0</speed>
  <fix>3d</fix>
</trkpt>
<trkpt lat="-27.274439" lon="151.290064">
  <ele>342.88</ele>
  <time>2026-09-01T20:01:12Z</time>
  <course>8.14</course>
  <speed>0.0</speed>
  <fix>3d</fix>
</trkpt>
<trkpt lat="-27.274439" lon="151.290064">
  <ele>343.1</ele>
  <time>2026-09-01T20:01:12Z</time>
  <course>270.0</course>
  <speed>0.0</speed>
  <fix>3d</fix>
</trkpt>
<trkpt lat="-27.274439" lon="151.290064">
  <ele>343.02</ele>
  <time>2026-09-01T20:01:12Z</time>
  <course>8.39</course>
  <speed>0.0</speed>
  <fix>3d</fix>
</trkpt>
<trkpt lat="-27.274439" lon="151.290064">
  <ele>343.1</ele>
  <time>2026-09-01T20:01:12Z</time>
  <course>270.0</course>
  <speed>0.0</speed>
  <fix>3d</fix>
</trkpt>
<trkpt lat="-27.274439" lon="151.290064">
  <ele>343.23</ele>
  <time>2026-09-01T20:01:12Z</time>
  <course>8.63</course>
  <speed>0.0</speed>
  <fix>3d</fix>
</trkpt>
<trkpt lat="-27.274439" lon="151.290064">
  <ele>343.1</ele>
  <time>2026-09-01T20:01:12Z</time>
  <course>270.0</course>
  <speed>0.0</speed>
  <fix>3d</fix>
</trkpt>
<trkpt lat="-27.274439" lon="151.290064">
  <ele>343.17</ele>
  <time>2026-09-01T20:01:12Z</time>
  <course>8.83</course>
  <speed>0.0</speed>
  <fix>3d</fix>
</trkpt>
<trkpt lat="-27.274439" lon="151.290064">
  <ele>343.1</ele>
  <time>2026-09-01T20:01:12Z</time>
  <course>270.0</course>
  <speed>0.0</speed>
  <fix>3d</fix>
</trkpt>
<trkpt lat="-27.274439" lon="151.290064">
  <ele>343.04</ele>
  <time>2026-09-01T20:01:12Z</time>
  <course>9.01</course>
  <speed>0.0</speed>
  <fix>3d</fix>
</trkpt>
<trkpt lat="-27.274439" lon="151.290064">
  <ele>343.1</ele>
  <time>2026-09-01T20:01:12Z</time>
  <course>270.0</course>
  <speed>0.0</speed>
  <fix>3d</fix>
</trkpt>
<trkpt lat="-27.274439" lon="151.290064">
  <ele>342.89</ele>
  <time>2026-09-01T20:01:12Z</time>
  <course>9.18</course>
  <speed>0.0</speed>
  <fix>3d</fix>
</trkpt>
<trkpt lat="-27.274439" lon="151.290064">
  <ele>343.1</ele>
  <time>2026-09-01T20:01:12Z</time>
  <course>270.0</course>
  <speed>0.0</speed>
  <fix>3d</fix>
</trkpt>
<trkpt lat="-27.274439" lon="151.290064">
  <ele>343.08</ele>
  <time>2026-09-01T20:01:12Z</time>
  <course>9.33</course>
  <speed>0.0</speed>
  <fix>3d</fix>
</trkpt>
<trkpt lat="-27.274439" lon="151.290064">
  <ele>343.1</ele>
  <time>2026-09-01T20:01:12Z</time>
  <course>270.0</course>
  <speed>0.0</speed>
  <fix>3d</fix>
</trkpt>
<trkpt lat="-27.274439" lon="151.290064">
  <ele>343.19</ele>
  <time>2026-09-01T20:01:12Z</time>
  <course>9.47</course>
  <speed>0.0</speed>
  <fix>3d</fix>
</trkpt>
<trkpt lat="-27.274439" lon="151.290064">
  <ele>343.1</ele>
  <time>2026-09-01T20:01:12Z</time>
  <course>270.0</course>
  <speed>0.0</speed>
  <fix>3d</fix>
</trkpt>
<trkpt lat="-27.274439" lon="151.290064">
  <ele>342.88</ele>
  <time>2026-09-01T20:01:12Z</time>
  <course>9.59</course>
  <speed>0.0</speed>
  <fix>3d</fix>
</trkpt>
<trkpt lat="-27.274439" lon="151.290064">
  <ele>343.1</ele>
  <time>2026-09-01T20:01:12Z</time>
  <course>270.0</course>
  <speed>0.0</speed>
  <fix>3d</fix>
</trkpt>
<trkpt lat="-27.274439" lon="151.290064">
  <ele>343.17</ele>
  <time>2026-09-01T20:01:12Z</time>
  <course>9.7</course>
  <speed>0.0</speed>
  <fix>3d</fix>
</trkpt>
<trkpt lat="-27.274439" lon="151.290064">
  <ele>343.1</ele>
  <time>2026-09-01T20:01:12Z</time>
  <course>270.0</course>
  <speed>0.0</speed>
  <fix>3d</fix>
</trkpt>
<trkpt lat="-27.274439" lon="151.290064">
  <ele>342.89</ele>
  <time>2026-09-01T20:01:12Z</time>
  <course>9.8</course>
  <speed>0.0</speed>
  <fix>3d</fix>
</trkpt>
<trkpt lat="-27.274439" lon="151.290064">
  <ele>343.1</ele>
  <time>2026-09-01T20:01:12Z</time>
  <course>270.0</course>
  <speed>0.0</speed>
  <fix>3d</fix>
</trkpt>
<trkpt lat="-27.274439" lon="151.290064">
  <ele>342.99</ele>
  <time>2026-09-01T20:01:12Z</time>
  <course>9.9</course>
  <speed>0.0</speed>
  <fix>3d</fix>
</trkpt>
<trkpt lat="-27.274439" lon="151.290064">
  <ele>343.1</ele>
  <time>2026-09-01T20:01:12Z</time>
  <course>270.0</course>
  <speed>0.0</speed>
  <fix>3d</fix>
</trkpt>
<trkpt lat="-27.274439" lon="151.290064">
  <ele>342.87</ele>
  <time>2026-09-01T20:01:12Z</time>
  <course>9.98</course>
  <speed>0.0</speed>
  <fix>3d</fix>
</trkpt>
<trkpt lat="-27.274439" lon="151.290064">
  <ele>343.1</ele>
  <time>2026-09-01T20:01:12Z</time>
  <course>270.0</course>
  <speed>0.0</speed>
  <fix>3d</fix>
</trkpt>
<trkpt lat="-27.274439" lon="151.290064">
  <ele>343.09</ele>
  <time>2026-09-01T20:01:12Z</time>
  <course>10.06</course>
  <speed>0.0</speed>
  <fix>3d</fix>
</trkpt>
<trkpt lat="-27.274439" lon="151.290064">
  <ele>343.1</ele>
  <time>2026-09-01T20:01:12Z</time>
  <course>270.0</course>
  <speed>0.0</speed>
  <fix>3d</fix>
</trkpt>
<trkpt lat="-27.274439" lon="151.290064">
  <ele>343.18</ele>
  <time>2026-09-01T20:01:12Z</time>
  <course>10.13</course>
  <speed>0.0</speed>
  <fix>3d</fix>
</trkpt>
<trkpt lat="-27.274439" lon="151.290064">
  <ele>343.1</ele>
  <time>2026-09-01T20:01:12Z</time>
  <course>270.0</course>
  <speed>0.0</speed>
  <fix>3d</fix>
</trkpt>
<trkpt lat="-27.274439" lon="151.290064">
  <ele>343.05</ele>
  <time>2026-09-01T20:01:12Z</time>
  <course>10.2</course>
  <speed>0.0</speed>
  <fix>3d</fix>
</trkpt>
<trkpt lat="-27.274439" lon="151.290064">
  <ele>343.1</ele>
  <time>2026-09-01T20:01:12Z</time>
  <course>270.0</course>
  <speed>0.0</speed>
  <fix>3d</fix>
</trkpt>
<trkpt lat="-27.274439" lon="151.290064">
  <ele>342.96</ele>
  <time>2026-09-01T20:01:12Z</time>
  <course>10.25</course>
  <speed>0.0</speed>
  <fix>3d</fix>
</trkpt>
<trkpt lat="-27.274439" lon="151.290064">
  <ele>343.1</ele>
  <time>2026-09-01T20:01:12Z</time>
  <course>270.0</course>
  <speed>0.0</speed>
  <fix>3d</fix>
</trkpt>
<trkpt lat="-27.274439" lon="151.290064">
  <ele>343.1</ele>
  <time>2026-09-01T20:01:12Z</time>
  <course>10.31</course>
  <speed>0.0</speed>
  <fix>3d</fix>
</trkpt>
<trkpt lat="-27.274439" lon="151.290064">
  <ele>343.1</ele>
  <time>2026-09-01T20:01:12Z</time>
  <course>270.0</course>
  <speed>0.0</speed>
  <fix>3d</fix>
</trkpt>
<trkpt lat="-27.274439" lon="151.290064">
  <ele>343.22</ele>
  <time>2026-09-01T20:01:12Z</time>
  <course>10.35</course>
  <speed>0.0</speed>
  <fix>3d</fix>
</trkpt>
<trkpt lat="-27.274439" lon="151.290064">
  <ele>343.1</ele>
  <time>2026-09-01T20:01:12Z</time>
  <course>270.0</course>
  <speed>0.0</speed>
  <fix>3d</fix>
</trkpt>
<trkpt lat="-27.274439" lon="151.290064">
  <ele>343.17</ele>
  <time>2026-09-01T20:01:12Z</time>
  <course>10.4</course>
  <speed>0.0</speed>
  <fix>3d</fix>
</trkpt>
<trkpt lat="-27.274439" lon="151.290064">
  <ele>343.1</ele>
  <time>2026-09-01T20:01:12Z</time>
  <course>270.0</course>
  <speed>0.0</speed>
  <fix>3d</fix>
</trkpt>
<trkpt lat="-27.274439" lon="151.290064">
  <ele>343.08</ele>
  <time>2026-09-01T20:01:12Z</time>
  <course>10.44</course>
  <speed>0.0</speed>
  <fix>3d</fix>
</trkpt>
<trkpt lat="-27.274439" lon="151.290064">
  <ele>343.1</ele>
  <time>2026-09-01T20:01:12Z</time>
  <course>270.0</course>
  <speed>0.0</speed>
  <fix>3d</fix>
</trkpt>
<trkpt lat="-27.274439" lon="151.290064">
  <ele>343.04</ele>
  <time>2026-09-01T20:01:12Z</time>
  <course>10.47</course>
  <speed>0.0</speed>
  <fix>3d</fix>
</trkpt>
<trkpt lat="-27.274439" lon="151.290064">
  <ele>343.1</ele>
  <time>2026-09-01T20:01:12Z</time>
  <course>270.0</course>
  <speed>0.0</speed>
  <fix>3d</fix>
</trkpt>
<trkpt lat="-27.274439" lon="151.290064">
  <ele>343.18</ele>
  <time>2026-09-01T20:01:12Z</time>
  <course>10.5</course>
  <speed>0.0</speed>
  <fix>3d</fix>
</trkpt>
<trkpt lat="-27.274439" lon="151.290064">
  <ele>343.1</ele>
  <time>2026-09-01T20:01:12Z</time>
  <course>270.0</course>
  <speed>0.0</speed>
  <fix>3d</fix>
</trkpt>
<trkpt lat="-27.274439" lon="151.290064">
  <ele>343.12</ele>
  <time>2026-09-01T20:01:12Z</time>
  <course>10.53</course>
  <speed>0.0</speed>
  <fix>3d</fix>
</trkpt>
<trkpt lat="-27.274439" lon="151.290064">
  <ele>343.1</ele>
  <time>2026-09-01T20:01:12Z</time>
  <course>270.0</course>
  <speed>0.0</speed>
  <fix>3d</fix>
</trkpt>
<trkpt lat="-27.274439" lon="151.290064">
  <ele>343.04</ele>
  <time>2026-09-01T20:01:12Z</time>
  <course>10.56</course>
  <speed>0.0</speed>
  <fix>3d</fix>
</trkpt>
<trkpt lat="-27.274439" lon="151.290064">
  <ele>343.1</ele>
  <time>2026-09-01T20:01:12Z</time>
  <course>270.0</course>
  <speed>0.0</speed>
  <fix>3d</fix>
</trkpt>
<trkpt lat="-27.274439" lon="151.290064">
  <ele>343.07</ele>
  <time>2026-09-01T20:01:12Z</time>
  <course>10.58</course>
  <speed>0.0</speed>
  <fix>3d</fix>
</trkpt>
<trkpt lat="-27.274439" lon="151.290064">
  <ele>343.1</ele>
  <time>2026-09-01T20:01:12Z</time>
  <course>270.0</course>
  <speed>0.0</speed>
  <fix>3d</fix>
</trkpt>
<trkpt lat="-27.274439" lon="151.290064">
  <ele>343.04</ele>
  <time>2026-09-01T20:01:12Z</time>
  <course>10.6</course>
  <speed>0.0</speed>
  <fix>3d</fix>
</trkpt>
<trkpt lat="-27.274439" lon="151.290064">
  <ele>343.1</ele>
  <time>2026-09-01T20:01:12Z</time>
  <course>270.0</course>
  <speed>0.0</speed>
  <fix>3d</fix>
</trkpt>
<trkpt lat="-27.274439" lon="151.290064">
  <ele>343.01</ele>
  <time>2026-09-01T20:01:12Z</time>
  <course>10.62</course>
  <speed>0.0</speed>
  <fix>3d</fix>
</trkpt>
<trkpt lat="-27.274439" lon="151.290064">
  <ele>343.1</ele>
  <time>2026-09-01T20:01:12Z</time>
  <course>270.0</course>
  <speed>0.0</speed>
  <fix>3d</fix>
</trkpt>
<trkpt lat="-27.274439" lon="151.290064">
  <ele>343.2</ele>
  <time>2026-09-01T20:01:12Z</time>
  <course>10.64</course>
  <speed>0.0</speed>
  <fix>3d</fix>
</trkpt>
<trkpt lat="-27.274439" lon="151.290064">
  <ele>343.1</ele>
  <time>2026-09-01T20:01:12Z</time>
  <course>270.0</course>
  <speed>0.0</speed>
  <fix>3d</fix>
</trkpt>
<trkpt lat="-27.274439" lon="151.290064">
  <ele>343.24</ele>
  <time>2026-09-01T20:01:12Z</time>
  <course>10.65</course>
  <speed>0.0</speed>
  <fix>3d</fix>
</trkpt>
<trkpt lat="-27.274439" lon="151.290064">
  <ele>343.1</ele>
  <time>2026-09-01T20:01:12Z</time>
  <course>270.0</course>
  <speed>0.0</speed>
  <fix>3d</fix>
</trkpt>
<trkpt lat="-27.274439" lon="151.290064">
  <ele>342.88</ele>
  <time>2026-09-01T20:01:12Z</time>
  <course>10.67</course>
  <speed>0.0</speed>
  <fix>3d</fix>
</trkpt>
<trkpt lat="-27.274439" lon="151.290064">
  <ele>343.1</ele>
  <time>2026-09-01T20:01:12Z</time>
  <course>270.0</course>
  <speed>0.0</speed>
  <fix>3d</fix>
</trkpt>
<trkpt lat="-27.274439" lon="151.290064">
  <ele>343.21</ele>
  <time>2026-09-01T20:01:12Z</time>
  <course>10.68</course>
  <speed>0.0</speed>
  <fix>3d</fix>
</trkpt>
<trkpt lat="-27.274439" lon="151.290064">
  <ele>343.1</ele>
  <time>2026-09-01T20:01:12Z</time>
  <course>270.0</course>
  <speed>0.0</speed>
  <fix>3d</fix>
</trkpt>
<trkpt lat="-27.274439" lon="151.290064">
  <ele>343.02</ele>
  <time>2026-09-01T20:01:12Z</time>
  <course>10.69</course>
  <speed>0.0</speed>
  <fix>3d</fix>
</trkpt>
<trkpt lat="-27.274439" lon="151.290064">
  <ele>343.1</ele>
  <time>2026-09-01T20:01:12Z</time>
  <course>270.0</course>
  <speed>0.0</speed>
  <fix>3d</fix>
</trkpt>
<trkpt lat="-27.274439" lon="151.290064">
  <ele>342.93</ele>
  <time>2026-09-01T20:01:12Z</time>
  <course>10.7</course>
  <speed>0.0</speed>
  <fix>3d</fix>
</trkpt>
<trkpt lat="-27.274439" lon="151.290064">
  <ele>343.1</ele>
  <time>2026-09-01T20:01:12Z</time>
  <course>270.0</course>
  <speed>0.0</speed>
  <fix>3d</fix>
</trkpt>
<trkpt lat="-27.274439" lon="151.290064">
  <ele>343.07</ele>
  <time>2026-09-01T20:01:12Z</time>
  <course>10.71</course>
  <speed>0.0</speed>
  <fix>3d</fix>
</trkpt>
<trkpt lat="-27.274439" lon="151.290064">
  <ele>343.1</ele>
  <time>2026-09-01T20:01:12Z</time>
  <course>270.0</course>
  <speed>0.0</speed>
  <fix>3d</fix>
</trkpt>
<trkpt lat="-27.274439" lon="151.290064">
  <ele>342.94</ele>
  <time>2026-09-01T20:01:12Z</time>
  <course>10.72</course>
  <speed>0.0</speed>
  <fix>3d</fix>
</trkpt>
<trkpt lat="-27.274439" lon="151.290064">
  <ele>343.1</ele>
  <time>2026-09-01T20:01:12Z</time>
  <course>270.0</course>
  <speed>0.0</speed>
  <fix>3d</fix>
</trkpt>
<trkpt lat="-27.274439" lon="151.290064">
  <ele>343.11</ele>
  <time>2026-09-01T20:01:12Z</time>
  <course>10.73</course>
  <speed>0.0</speed>
  <fix>3d</fix>
</trkpt>
<trkpt lat="-27.274439" lon="151.290064">
  <ele>343.1</ele>
  <time>2026-09-01T20:01:12Z</time>
  <course>270.0</course>
  <speed>0.0</speed>
  <fix>3d</fix>
</trkpt>
<trkpt lat="-27.274439" lon="151.290064">
  <ele>343.24</ele>
  <time>2026-09-01T20:01:12Z</time>
  <course>10.73</course>
  <speed>0.0</speed>
  <fix>3d</fix>
</trkpt>
<trkpt lat="-27.274439" lon="151.290064">
  <ele>343.1</ele>
  <time>2026-09-01T20:01:12Z</time>
  <course>270.0</course>
  <speed>0.0</speed>
  <fix>3d</fix>
</trkpt>
<trkpt lat="-27.274439" lon="151.290064">
  <ele>343.18</ele>
  <time>2026-09-01T20:01:12Z</time>
  <course>10.74</course>
  <speed>0.0</speed>
  <fix>3d</fix>
</trkpt>
<trkpt lat="-27.274439" lon="151.290064">
  <ele>343.1</ele>
  <time>2026-09-01T20:01:12Z</time>
  <course>270.0</course>
  <speed>0.0</speed>
  <fix>3d</fix>
</trkpt>
<trkpt lat="-27.274439" lon="151.290064">
  <ele>342.89</ele>
  <time>2026-09-01T20:01:12Z</time>
  <course>10.75</course>
  <speed>0.0</speed>
  <fix>3d</fix>
</trkpt>
<trkpt lat="-27.274439" lon="151.290064">
  <ele>343.1</ele>
  <time>2026-09-01T20:01:12Z</time>
  <course>270.0</course>
  <speed>0.0</speed>
  <fix>3d</fix>
</trkpt>
<trkpt lat="-27.274439" lon="151.290064">
  <ele>343.23</ele>
  <time>2026-09-01T20:01:12Z</time>
  <course>10.75</course>
  <speed>0.0</speed>
  <fix>3d</fix>
</trkpt>
<trkpt lat="-27.274439" lon="151.290064">
  <ele>343.1</ele>
  <time>2026-09-01T20:01:12Z</time>
  <course>270.0</course>
  <speed>0.0</speed>
  <fix>3d</fix>
</trkpt>
<trkpt lat="-27.274439" lon="151.290064">
  <ele>343.23</ele>
  <time>2026-09-01T20:01:12Z</time>
  <course>10.76</course>
  <speed>0.0</speed>
  <fix>3d</fix>
</trkpt>
<trkpt lat="-27.274439" lon="151.290064">
  <ele>343.1</ele>
  <time>2026-09-01T20:01:12Z</time>
  <course>270.0</course>
  <speed>0.0</speed>
  <fix>3d</fix>
</trkpt>
<trkpt lat="-27.274439" lon="151.290064">
  <ele>342.99</ele>
  <time>2026-09-01T20:01:12Z</time>
  <course>10.76</course>
  <speed>0.0</speed>
  <fix>3d</fix>
</trkpt>
<trkpt lat="-27.274439" lon="151.290064">
  <ele>343.1</ele>
  <time>2026-09-01T20:01:12Z</time>
  <course>270.0</course>
  <speed>0.0</speed>
  <fix>3d</fix>
</trkpt>
<trkpt lat="-27.274439" lon="151.290064">
  <ele>343.13</ele>
  <time>2026-09-01T20:01:12Z</time>
  <course>10.76</course>
  <speed>0.0</speed>
  <fix>3d</fix>
</trkpt>
<trkpt lat="-27.274439" lon="151.290064">
  <ele>343.1</ele>
  <time>2026-09-01T20:01:12Z</time>
  <course>270.0</course>
  <speed>0.0</speed>
  <fix>3d</fix>
</trkpt>
<trkpt lat="-27.274439" lon="151.290064">
  <ele>343.07</ele>
  <time>2026-09-01T20:01:12Z</time>
  <course>10.77</course>
  <speed>0.0</speed>
  <fix>3d</fix>
</trkpt>
<trkpt lat="-27.274439" lon="151.290064">
  <ele>343.1</ele>
  <time>2026-09-01T20:01:12Z</time>
  <course>270.0</course>
  <speed>0.0</speed>
  <fix>3d</fix>
</trkpt>
<trkpt lat="-27.274439" lon="151.290064">
  <ele>343.19</ele>
  <time>2026-09-01T20:01:12Z</time>
  <course>10.77</course>
  <speed>0.0</speed>
  <fix>3d</fix>
</trkpt>
<trkpt lat="-27.274439" lon="151.290064">
  <ele>343.1</ele>
  <time>2026-09-01T20:01:12Z</time>
  <course>270.0</course>
  <speed>0.0</speed>
  <fix>3d</fix>
</trkpt>
<trkpt lat="-27.274439" lon="151.290064">
  <ele>342.93</ele>
  <time>2026-09-01T20:01:12Z</time>
  <course>10.77</course>
  <speed>0.0</speed>
  <fix>3d</fix>
</trkpt>
<trkpt lat="-27.274439" lon="151.290064">
  <ele>343.1</ele>
  <time>2026-09-01T20:01:12Z</time>
  <course>270.0</course>
  <speed>0.0</speed>
  <fix>3d</fix>
</trkpt>
<trkpt lat="-27.274439" lon="151.290064">
  <ele>343.19</ele>
  <time>2026-09-01T20:01:12Z</time>
  <course>10.78</course>
  <speed>0.0</speed>
  <fix>3d</fix>
</trkpt>
<trkpt lat="-27.274439" lon="151.290064">
  <ele>343.1</ele>
  <time>2026-09-01T20:01:12Z</time>
  <course>270.0</course>
  <speed>0.0</speed>
  <fix>3d</fix>
</trkpt>
<trkpt lat="-27.274439" lon="151.290064">
  <ele>343.1</ele>
  <time>2026-09-01T20:01:12Z</time>
  <course>10.78</course>
  <speed>0.0</speed>
  <fix>3d</fix>
</trkpt>
<trkpt lat="-27.274439" lon="151.290064">
  <ele>343.1</ele>
  <time>2026-09-01T20:01:12Z</time>
  <course>270.0</course>
  <speed>0.0</speed>
  <fix>3d</fix>
</trkpt>
<trkpt lat="-27.274439" lon="151.290064">
  <ele>343.01</ele>
  <time>2026-09-01T20:01:12Z</time>
  <course>10.78</course>
  <speed>0.0</speed>
  <fix>3d</fix>
</trkpt>
<trkpt lat="-27.274439" lon="151.290064">
  <ele>343.1</ele>
  <time>2026-09-01T20:01:12Z</time>
  <course>270.0</course>
  <speed>0.0</speed>
  <fix>3d</fix>
</trkpt>
<trkpt lat="-27.274439" lon="151.290064">
  <ele>343.11</ele>
  <time>2026-09-01T20:01:12Z</time>
  <course>10.78</course>
  <speed>0.0</speed>
  <fix>3d</fix>
</trkpt>
<trkpt lat="-27.274439" lon="151.290064">
  <ele>343.1</ele>
  <time>2026-09-01T20:01:12Z</time>
  <course>270.0</course>
  <speed>0.0</speed>
  <fix>3d</fix>
</trkpt>
<trkpt lat="-27.274439" lon="151.290064">
  <ele>342.96</ele>
  <time>2026-09-01T20:01:12Z</time>
  <course>10.78</course>
  <speed>0.0</speed>
  <fix>3d</fix>
</trkpt>
<trkpt lat="-27.274439" lon="151.290064">
  <ele>343.1</ele>
  <time>2026-09-01T20:01:12Z</time>
  <course>270.0</course>
  <speed>0.0</speed>
  <fix>3d</fix>
</trkpt>
<trkpt lat="-27.274439" lon="151.290064">
  <ele>343.19</ele>
  <time>2026-09-01T20:01:12Z</time>
  <course>10.79</course>
  <speed>0.0</speed>
  <fix>3d</fix>
</trkpt>
<trkpt lat="-27.274439" lon="151.290064">
  <ele>343.1</ele>
  <time>2026-09-01T20:01:12Z</time>
  <course>270.0</course>
  <speed>0.0</speed>
  <fix>3d</fix>
</trkpt>
<trkpt lat="-27.274439" lon="151.290064">
  <ele>343.0</ele>
  <time>2026-09-01T20:01:12Z</time>
  <course>10.79</course>
  <speed>0.0</speed>
  <fix>3d</fix>
</trkpt>
<trkpt lat="-27.274439" lon="151.290064">
  <ele>343.1</ele>
  <time>2026-09-01T20:01:12Z</time>
  <course>270.0</course>
  <speed>0.0</speed>
  <fix>3d</fix>
</trkpt>
<trkpt lat="-27.274439" lon="151.290064">
  <ele>343.2</ele>
  <time>2026-09-01T20:01:12Z</time>
  <course>10.79</course>
  <speed>0.0</speed>
  <fix>3d</fix>
</trkpt>
<trkpt lat="-27.274439" lon="151.290064">
  <ele>343.1</ele>
  <time>2026-09-01T20:01:12Z</time>
  <course>270.0</course>
  <speed>0.0</speed>
  <fix>3d</fix>
</trkpt>
<trkpt lat="-27.274439" lon="151.290064">
  <ele>343.2</ele>
  <time>2026-09-01T20:01:12Z</time>
  <course>10.79</course>
  <speed>0.0</speed>
  <fix>3d</fix>
</trkpt>
<trkpt lat="-27.274439" lon="151.290064">
  <ele>343.1</ele>
  <time>2026-09-01T20:01:12Z</time>
  <course>270.0</course>
  <speed>0.0</speed>
  <fix>3d</fix>
</trkpt>
<trkpt lat="-27.274439" lon="151.290064">
  <ele>343.13</ele>
  <time>2026-09-01T20:01:12Z</time>
  <course>10.79</course>
  <speed>0.0</speed>
  <fix>3d</fix>
</trkpt>
<trkpt lat="-27.274439" lon="151.290064">
  <ele>343.1</ele>
  <time>2026-09-01T20:01:12Z</time>
  <course>270.0</course>
  <speed>0.0</speed>
  <fix>3d</fix>
</trkpt>
<trkpt lat="-27.274439" lon="151.290064">
  <ele>343.1</ele>
  <time>2026-09-01T20:01:12Z</time>
  <course>10.79</course>
  <speed>0.0</speed>
  <fix>3d</fix>
</trkpt>
<trkpt lat="-27.274439" lon="151.290064">
  <ele>343.1</ele>
  <time>2026-09-01T20:01:12Z</time>
  <course>270.0</course>
  <speed>0.0</speed>
  <fix>3d</fix>
</trkpt>
<trkpt lat="-27.274439" lon="151.290064">
  <ele>343.12</ele>
  <time>2026-09-01T20:01:12Z</time>
  <course>10.79</course>
  <speed>0.0</speed>
  <fix>3d</fix>
</trkpt>
<trkpt lat="-27.274439" lon="151.290064">
  <ele>343.1</ele>
  <time>2026-09-01T20:01:12Z</time>
  <course>270.0</course>
  <speed>0.0</speed>
  <fix>3d</fix>
</trkpt>
<trkpt lat="-27.274439" lon="151.290064">
  <ele>342.94</ele>
  <time>2026-09-01T20:01:12Z</time>
  <course>10.79</course>
  <speed>0.0</speed>
  <fix>3d</fix>
</trkpt>
<trkpt lat="-27.274439" lon="151.290064">
  <ele>343.1</ele>
  <time>2026-09-01T20:01:12Z</time>
  <course>270.0</course>
  <speed>0.0</speed>
  <fix>3d</fix>
</trkpt>
<trkpt lat="-27.274439" lon="151.290064">
  <ele>343.25</ele>
  <time>2026-09-01T20:01:12Z</time>
  <course>10.79</course>
  <speed>0.0</speed>
  <fix>3d</fix>
</trkpt>
<trkpt lat="-27.274439" lon="151.290064">
  <ele>343.1</ele>
  <time>2026-09-01T20:01:12Z</time>
  <course>270.0</course>
  <speed>0.0</speed>
  <fix>3d</fix>
</trkpt>
<trkpt lat="-27.274439" lon="151.290064">
  <ele>342.93</ele>
  <time>2026-09-01T20:01:12Z</time>
  <course>10.79</course>
  <speed>0.0</speed>
  <fix>3d</fix>
</trkpt>
<trkpt lat="-27.274439" lon="151.290064">
  <ele>343.1</ele>
  <time>2026-09-01T20:01:12Z</time>
  <course>270.0</course>
  <speed>0.0</speed>
  <fix>3d</fix>
</trkpt>
<trkpt lat="-27.274439" lon="151.290064">
  <ele>343.08</ele>
  <time>2026-09-01T20:01:12Z</time>
  <course>10.79</course>
  <speed>0.0</speed>
  <fix>3d</fix>
</trkpt>
<trkpt lat="-27.274439" lon="151.290064">
  <ele>343.1</ele>
  <time>2026-09-01T20:01:12Z</time>
  <course>270.0</course>
  <speed>0.0</speed>
  <fix>3d</fix>
</trkpt>
<trkpt lat="-27.274439" lon="151.290064">
  <ele>343.23</ele>
  <time>2026-09-01T20:01:12Z</time>
  <course>10.8</course>
  <speed>0.0</speed>
  <fix>3d</fix>
</trkpt>
<trkpt lat="-27.274439" lon="151.290064">
  <ele>343.1</ele>
  <time>2026-09-01T20:01:12Z</time>
  <course>270.0</course>
  <speed>0.0</speed>
  <fix>3d</fix>
</trkpt>
<trkpt lat="-27.274439" lon="151.290064">
  <ele>343.01</ele>
  <time>2026-09-01T20:01:12Z</time>
  <course>10.8</course>
  <speed>0.0</speed>
  <fix>3d</fix>
</trkpt>
<trkpt lat="-27.274439" lon="151.290064">
  <ele>343.1</ele>
  <time>2026-09-01T20:01:12Z</time>
  <course>270.0</course>
  <speed>0.0</speed>
  <fix>3d</fix>
</trkpt>
<trkpt lat="-27.274439" lon="151.290064">
  <ele>343.1</ele>
  <time>2026-09-01T20:01:12Z</time>
  <course>10.8</course>
  <speed>0.0</speed>
  <fix>3d</fix>
</trkpt>
<trkpt lat="-27.274439" lon="151.290064">
  <ele>343.1</ele>
  <time>2026-09-01T20:01:12Z</time>
  <course>270.0</course>
  <speed>0.0</speed>
  <fix>3d</fix>
</trkpt>
<trkpt lat="-27.274439" lon="151.290064">
  <ele>342.99</ele>
  <time>2026-09-01T20:01:12Z</time>
  <course>10.8</course>
  <speed>0.0</speed>
  <fix>3d</fix>
</trkpt>
<trkpt lat="-27.274439" lon="151.290064">
  <ele>343.1</ele>
  <time>2026-09-01T20:01:12Z</time>
  <course>270.0</course>
  <speed>0.0</speed>
  <fix>3d</fix>
</trkpt>
<trkpt lat="-27.274439" lon="151.290064">
  <ele>342.87</ele>
  <time>2026-09-01T20:01:12Z</time>
  <course>10.8</course>
  <speed>0.0</speed>
  <fix>3d</fix>
</trkpt>
<trkpt lat="-27.274439" lon="151.290064">
  <ele>343.1</ele>
  <time>2026-09-01T20:01:12Z</time>
  <course>270.0</course>
  <speed>0.0</speed>
  <fix>3d</fix>
</trkpt>
<trkpt lat="-27.274439" lon="151.290064">
  <ele>343.1</ele>
  <time>2026-09-01T20:01:12Z</time>
  <course>10.8</course>
  <speed>0.0</speed>
  <fix>3d</fix>
</trkpt>
<trkpt lat="-27.274439" lon="151.290064">
  <ele>343.1</ele>
  <time>2026-09-01T20:01:12Z</time>
  <course>270.0</course>
  <speed>0.0</speed>
  <fix>3d</fix>
</trkpt>
<trkpt lat="-27.274439" lon="151.290064">
  <ele>342.99</ele>
  <time>2026-09-01T20:01:12Z</time>
  <course>10.8</course>
  <speed>0.0</speed>
  <fix>3d</fix>
</trkpt>
<trkpt lat="-27.274439" lon="151.290064">
  <ele>343.1</ele>
  <time>2026-09-01T20:01:12Z</time>
  <course>270.0</course>
  <speed>0.0</speed>
  <fix>3d</fix>
</trkpt>
<trkpt lat="-27.274439" lon="151.290064">
  <ele>342.91</ele>
  <time>2026-09-01T20:01:12Z</time>
  <course>10.8</course>
  <speed>0.0</speed>
  <fix>3d</fix>
</trkpt>
<trkpt lat="-27.274439" lon="151.290064">
  <ele>343.1</ele>
  <time>2026-09-01T20:01:12Z</time>
  <course>270.0</course>
  <speed>0.0</speed>
  <fix>3d</fix>
</trkpt>
<trkpt lat="-27.274439" lon="151.290064">
  <ele>342.9</ele>
  <time>2026-09-01T20:01:12Z</time>
  <course>10.8</course>
  <speed>0.0</speed>
  <fix>3d</fix>
</trkpt>
<trkpt lat="-27.274439" lon="151.290064">
  <ele>343.1</ele>
  <time>2026-09-01T20:01:12Z</time>
  <course>270.0</course>
  <speed>0.0</speed>
  <fix>3d</fix>
</trkpt>
<trkpt lat="-27.274439" lon="151.290064">
  <ele>342.87</ele>
  <time>2026-09-01T20:01:12Z</time>
  <course>10.8</course>
  <speed>0.0</speed>
  <fix>3d</fix>
</trkpt>
<trkpt lat="-27.274439" lon="151.290064">
  <ele>343.1</ele>
  <time>2026-09-01T20:01:12Z</time>
  <course>270.0</course>
  <speed>0.0</speed>
  <fix>3d</fix>
</trkpt>
<trkpt lat="-27.274439" lon="151.290064">
  <ele>343.12</ele>
  <time>2026-09-01T20:01:12Z</time>
  <course>10.8</course>
  <speed>0.0</speed>
  <fix>3d</fix>
</trkpt>
<trkpt lat="-27.274439" lon="151.290064">
  <ele>343.1</ele>
  <time>2026-09-01T20:01:12Z</time>
  <course>270.0</course>
  <speed>0.0</speed>
  <fix>3d</fix>
</trkpt>
<trkpt lat="-27.274439" lon="151.290064">
  <ele>342.99</ele>
  <time>2026-09-01T20:01:12Z</time>
  <course>10.8</course>
  <speed>0.0</speed>
  <fix>3d</fix>
</trkpt>
<trkpt lat="-27.274439" lon="151.290064">
  <ele>343.1</ele>
  <time>2026-09-01T20:01:12Z</time>
  <course>270.0</course>
  <speed>0.0</speed>
  <fix>3d</fix>
</trkpt>
<trkpt lat="-27.274439" lon="151.290064">
  <ele>343.13</ele>
  <time>2026-09-01T20:01:12Z</time>
  <course>10.8</course>
  <speed>0.0</speed>
  <fix>3d</fix>
</trkpt>
<trkpt lat="-27.274439" lon="151.290064">
  <ele>343.1</ele>
  <time>2026-09-01T20:01:12Z</time>
  <course>270.0</course>
  <speed>0.0</speed>
  <fix>3d</fix>
</trkpt>
<trkpt lat="-27.274439" lon="151.290064">
  <ele>343.0</ele>
  <time>2026-09-01T20:01:12Z</time>
  <course>10.8</course>
  <speed>0.0</speed>
  <fix>3d</fix>
</trkpt>
<trkpt lat="-27.274439" lon="151.290064">
  <ele>343.1</ele>
  <time>2026-09-01T20:01:12Z</time>
  <course>270.0</course>
  <speed>0.0</speed>
  <fix>3d</fix>
</trkpt>
<trkpt lat="-27.274439" lon="151.290064">
  <ele>343.17</ele>
  <time>2026-09-01T20:01:12Z</time>
  <course>10.8</course>
  <speed>0.0</speed>
  <fix>3d</fix>
</trkpt>
<trkpt lat="-27.274439" lon="151.290064">
  <ele>343.1</ele>
  <time>2026-09-01T20:01:12Z</time>
  <course>270.0</course>
  <speed>0.0</speed>
  <fix>3d</fix>
</trkpt>
<trkpt lat="-27.274439" lon="151.290064">
  <ele>343.0</ele>
  <time>2026-09-01T20:01:12Z</time>
  <course>10.8</course>
  <speed>0.0</speed>
  <fix>3d</fix>
</trkpt>
<trkpt lat="-27.274439" lon="151.290064">
  <ele>343.1</ele>
  <time>2026-09-01T20:01:12Z</time>
  <course>270.0</course>
  <speed>0.0</speed>
  <fix>3d</fix>
</trkpt>
<trkpt lat="-27.274439" lon="151.290064">
  <ele>342.99</ele>
  <time>2026-09-01T20:01:12Z</time>
  <course>10.8</course>
  <speed>0.0</speed>
  <fix>3d</fix>
</trkpt>
<trkpt lat="-27.274439" lon="151.290064">
  <ele>343.1</ele>
  <time>2026-09-01T20:01:12Z</time>
  <course>270.0</course>
  <speed>0.0</speed>
  <fix>3d</fix>
</trkpt>
<trkpt lat="-27.274439" lon="151.290064">
  <ele>343.17</ele>
  <time>2026-09-01T20:01:12Z</time>
  <course>10.8</course>
  <speed>0.0</speed>
  <fix>3d</fix>
</trkpt>
<trkpt lat="-27.274439" lon="151.290064">
  <ele>343.1</ele>
  <time>2026-09-01T20:01:12Z</time>
  <course>270.0</course>
  <speed>0.0</speed>
  <fix>3d</fix>
</trkpt>
<trkpt lat="-27.274439" lon="151.290064">
  <ele>343.16</ele>
  <time>2026-09-01T20:01:12Z</time>
  <course>10.8</course>
  <speed>0.0</speed>
  <fix>3d</fix>
</trkpt>
<trkpt lat="-27.274439" lon="151.290064">
  <ele>343.1</ele>
  <time>2026-09-01T20:01:12Z</time>
  <course>270.0</course>
  <speed>0.0</speed>
  <fix>3d</fix>
</trkpt>
<trkpt lat="-27.274439" lon="151.290064">
  <ele>342.87</ele>
  <time>2026-09-01T20:01:12Z</time>
  <course>10.8</course>
  <speed>0.0</speed>
  <fix>3d</fix>
</trkpt>
<trkpt lat="-27.274439" lon="151.290064">
  <ele>343.1</ele>
  <time>2026-09-01T20:01:12Z</time>
  <course>270.0</course>
  <speed>0.0</speed>
  <fix>3d</fix>
</trkpt>
<trkpt lat="-27.274439" lon="151.290064">
  <ele>343.19</ele>
  <time>2026-09-01T20:01:12Z</time>
  <course>10.8</course>
  <speed>0.0</speed>
  <fix>3d</fix>
</trkpt>
<trkpt lat="-27.274439" lon="151.290064">
  <ele>343.1</ele>
  <time>2026-09-01T20:01:12Z</time>
  <course>270.0</course>
  <speed>0.0</speed>
  <fix>3d</fix>
</trkpt>
<trkpt lat="-27.274439" lon="151.290064">
  <ele>343.16</ele>
  <time>2026-09-01T20:01:12Z</time>
  <course>10.8</course>
  <speed>0.0</speed>
  <fix>3d</fix>
</trkpt>
<trkpt lat="-27.274439" lon="151.290064">
  <ele>343.1</ele>
  <time>2026-09-01T20:01:12Z</time>
  <course>270.0</course>
  <speed>0.0</speed>
  <fix>3d</fix>
</trkpt>
<trkpt lat="-27.274439" lon="151.290064">
  <ele>343.21</ele>
  <time>2026-09-01T20:01:12Z</time>
  <course>10.8</course>
  <speed>0.0</speed>
  <fix>3d</fix>
</trkpt>
<trkpt lat="-27.274439" lon="151.290064">
  <ele>343.1</ele>
  <time>2026-09-01T20:01:12Z</time>
  <course>270.0</course>
  <speed>0.0</speed>
  <fix>3d</fix>
</trkpt>
<trkpt lat="-27.274439" lon="151.290064">
  <ele>343.22</ele>
  <time>2026-09-01T20:01:12Z</time>
  <course>10.8</course>
  <speed>0.0</speed>
  <fix>3d</fix>
</trkpt>
<trkpt lat="-27.274439" lon="151.290064">
  <ele>343.1</ele>
  <time>2026-09-01T20:01:12Z</time>
  <course>270.0</course>
  <speed>0.0</speed>
  <fix>3d</fix>
</trkpt>
<trkpt lat="-27.274439" lon="151.290064">
  <ele>343.24</ele>
  <time>2026-09-01T20:01:12Z</time>
  <course>10.8</course>
  <speed>0.0</speed>
  <fix>3d</fix>
</trkpt>
<trkpt lat="-27.274439" lon="151.290064">
  <ele>343.1</ele>
  <time>2026-09-01T20:01:12Z</time>
  <course>270.0</course>
  <speed>0.0</speed>
  <fix>3d</fix>
</trkpt>
<trkpt lat="-27.274439" lon="151.290064">
  <ele>343.0</ele>
  <time>2026-09-01T20:01:12Z</time>
  <course>10.8</course>
  <speed>0.0</speed>
  <fix>3d</fix>
</trkpt>
<trkpt lat="-27.274439" lon="151.290064">
  <ele>343.1</ele>
  <time>2026-09-01T20:01:12Z</time>
  <course>270.0</course>
  <speed>0.0</speed>
  <fix>3d</fix>
</trkpt>
<trkpt lat="-27.274439" lon="151.290064">
  <ele>343.1</ele>
  <time>2026-09-01T20:01:12Z</time>
  <course>10.8</course>
  <speed>0.0</speed>
  <fix>3d</fix>
</trkpt>
<trkpt lat="-27.274439" lon="151.290064">
  <ele>343.1</ele>
  <time>2026-09-01T20:01:12Z</time>
  <course>270.0</course>
  <speed>0.0</speed>
  <fix>3d</fix>
</trkpt>
<trkpt lat="-27.274439" lon="151.290064">
  <ele>343.05</ele>
  <time>2026-09-01T20:01:12Z</time>
  <course>10.8</course>
  <speed>0.0</speed>
  <fix>3d</fix>
</trkpt>
<trkpt lat="-27.274439" lon="151.290064">
  <ele>343.1</ele>
  <time>2026-09-01T20:01:12Z</time>
  <course>270.0</course>
  <speed>0.0</speed>
  <fix>3d</fix>
</trkpt>
<trkpt lat="-27.274439" lon="151.290064">
  <ele>342.87</ele>
  <time>2026-09-01T20:01:12Z</time>
  <course>10.8</course>
  <speed>0.0</speed>
  <fix>3d</fix>
</trkpt>
<trkpt lat="-27.274439" lon="151.290064">
  <ele>343.1</ele>
  <time>2026-09-01T20:01:12Z</time>
  <course>270.0</course>
  <speed>0.0</speed>
  <fix>3d</fix>
</trkpt>
<trkpt lat="-27.274439" lon="151.290064">
  <ele>342.92</ele>
  <time>2026-09-01T20:01:12Z</time>
  <course>10.8</course>
  <speed>0.0</speed>
  <fix>3d</fix>
</trkpt>
<trkpt lat="-27.274439" lon="151.290064">
  <ele>343.1</ele>
  <time>2026-09-01T20:01:12Z</time>
  <course>270.0</course>
  <speed>0.0</speed>
  <fix>3d</fix>
</trkpt>
<trkpt lat="-27.274439" lon="151.290064">
  <ele>342.96</ele>
  <time>2026-09-01T20:01:12Z</time>
  <course>10.8</course>
  <speed>0.0</speed>
  <fix>3d</fix>
</trkpt>
<trkpt lat="-27.274439" lon="151.290064">
  <ele>343.1</ele>
  <time>2026-09-01T20:01:12Z</time>
  <course>270.0</course>
  <speed>0.0</speed>
  <fix>3d</fix>
</trkpt>
<trkpt lat="-27.274439" lon="151.290064">
  <ele>343.15</ele>
  <time>2026-09-01T20:01:12Z</time>
  <course>10.8</course>
  <speed>0.0</speed>
  <fix>3d</fix>
</trkpt>
<trkpt lat="-27.274439" lon="151.290064">
  <ele>343.1</ele>
  <time>2026-09-01T20:01:12Z</time>
  <course>270.0</course>
  <speed>0.0</speed>
  <fix>3d</fix>
</trkpt>
<trkpt lat="-27.274439" lon="151.290064">
  <ele>343.16</ele>
  <time>2026-09-01T20:01:12Z</time>
  <course>10.8</course>
  <speed>0.0</speed>
  <fix>3d</fix>
</trkpt>
<trkpt lat="-27.274439" lon="151.290064">
  <ele>343.1</ele>
  <time>2026-09-01T20:01:12Z</time>
  <course>270.0</course>
  <speed>0.0</speed>
  <fix>3d</fix>
</trkpt>
<trkpt lat="-27.274439" lon="151.290064">
  <ele>343.2</ele>
  <time>2026-09-01T20:01:12Z</time>
  <course>10.81</course>
  <speed>0.0</speed>
  <fix>3d</fix>
</trkpt>
<trkpt lat="-27.274439" lon="151.290064">
  <ele>343.1</ele>
  <time>2026-09-01T20:01:12Z</time>
  <course>270.0</course>
  <speed>0.0</speed>
  <fix>3d</fix>
</trkpt>
<trkpt lat="-27.274439" lon="151.290064">
  <ele>343.13</ele>
  <time>2026-09-01T20:01:12Z</time>
  <course>10.82</course>
  <speed>0.0</speed>
  <fix>3d</fix>
</trkpt>
<trkpt lat="-27.274439" lon="151.290064">
  <ele>343.1</ele>
  <time>2026-09-01T20:01:12Z</time>
  <course>270.0</course>
  <speed>0.0</speed>
  <fix>3d</fix>
</trkpt>
<trkpt lat="-27.274439" lon="151.290064">
  <ele>343.09</ele>
  <time>2026-09-01T20:01:12Z</time>
  <course>10.71</course>
  <speed>0.0</speed>
  <fix>3d</fix>
</trkpt>
<trkpt lat="-27.274439" lon="151.290064">
  <ele>343.1</ele>
  <time>2026-09-01T20:01:12Z</time>
  <course>270.0</course>
  <speed>0.0</speed>
  <fix>3d</fix>
</trkpt>
<trkpt lat="-27.274439" lon="151.290064">
  <ele>343.09</ele>
  <time>2026-09-01T20:01:12Z</time>
  <course>10.71</course>
  <speed>0.0</speed>
  <fix>3d</fix>
</trkpt>
<trkpt lat="-27.274439" lon="151.290064">
  <ele>343.1</ele>
  <time>2026-09-01T20:01:12Z</time>
  <course>270.0</course>
  <speed>0.0</speed>
  <fix>3d</fix>
</trkpt>
<trkpt lat="-27.274439" lon="151.290064">
  <ele>343.1</ele>
  <time>2026-09-01T20:01:12Z</time>
  <course>10.71</course>
  <speed>0.0</speed>
  <fix>3d</fix>
</trkpt>
<trkpt lat="-27.274439" lon="151.290064">
  <ele>343.1</ele>
  <time>2026-09-01T20:01:12Z</time>
  <course>270.0</course>
  <speed>0.0</speed>
  <fix>3d</fix>
</trkpt>
<trkpt lat="-27.274439" lon="151.290064">
  <ele>343.1</ele>
  <time>2026-09-01T20:01:12Z</time>
  <course>10.71</course>
  <speed>0.0</speed>
  <fix>3d</fix>
</trkpt>
<trkpt lat="-27.274439" lon="151.290064">
  <ele>343.1</ele>
  <time>2026-09-01T20:01:12Z</time>
  <course>270.0</course>
  <speed>0.0</speed>
  <fix>3d</fix>
</trkpt>
<trkpt lat="-27.274439" lon="151.290064">
  <ele>343.1</ele>
  <time>2026-09-01T20:01:12Z</time>
  <course>10.71</course>
  <speed>0.0</speed>
  <fix>3d</fix>
</trkpt>
<trkpt lat="-27.274439" lon="151.290064">
  <ele>343.1</ele>
  <time>2026-09-01T20:01:12Z</time>
  <course>270.0</course>
  <speed>0.0</speed>
  <fix>3d</fix>
</trkpt>
<trkpt lat="-27.274439" lon="151.290064">
  <ele>343.1</ele>
  <time>2026-09-01T20:01:12Z</time>
  <course>10.71</course>
  <speed>0.0</speed>
  <fix>3d</fix>
</trkpt>
<trkpt lat="-27.274439" lon="151.290064">
  <ele>343.1</ele>
  <time>2026-09-01T20:01:12Z</time>
  <course>270.0</course>
  <speed>0.0</speed>
  <fix>3d</fix>
</trkpt>
<trkpt lat="-27.274439" lon="151.290064">
  <ele>343.1</ele>
  <time>2026-09-01T20:01:12Z</time>
  <course>10.71</course>
  <speed>0.0</speed>
  <fix>3d</fix>
</trkpt>
<trkpt lat="-27.274439" lon="151.290064">
  <ele>343.1</ele>
  <time>2026-09-01T20:01:12Z</time>
  <course>270.0</course>
  <speed>0.0</speed>
  <fix>3d</fix>
</trkpt>
<trkpt lat="-27.274439" lon="151.290064">
  <ele>343.11</ele>
  <time>2026-09-01T20:01:12Z</time>
  <course>10.71</course>
  <speed>0.0</speed>
  <fix>3d</fix>
</trkpt>
<trkpt lat="-27.274439" lon="151.290064">
  <ele>343.1</ele>
  <time>2026-09-01T20:01:12Z</time>
  <course>270.0</course>
  <speed>0.0</speed>
  <fix>3d</fix>
</trkpt>
<trkpt lat="-27.274439" lon="151.290064">
  <ele>343.11</ele>
  <time>2026-09-01T20:01:12Z</time>
  <course>10.71</course>
  <speed>0.0</speed>
  <fix>3d</fix>
</trkpt>
<trkpt lat="-27.274439" lon="151.290064">
  <ele>343.1</ele>
  <time>2026-09-01T20:01:12Z</time>
  <course>270.0</course>
  <speed>0.0</speed>
  <fix>3d</fix>
</trkpt>
<trkpt lat="-27.274439" lon="151.290064">
  <ele>343.11</ele>
  <time>2026-09-01T20:01:12Z</time>
  <course>10.71</course>
  <speed>0.0</speed>
  <fix>3d</fix>
</trkpt>
<trkpt lat="-27.274439" lon="151.290064">
  <ele>343.1</ele>
  <time>2026-09-01T20:01:12Z</time>
  <course>270.0</course>
  <speed>0.0</speed>
  <fix>3d</fix>
</trkpt>
<trkpt lat="-27.274439" lon="151.290064">
  <ele>343.12</ele>
  <time>2026-09-01T20:01:12Z</time>
  <course>10.71</course>
  <speed>0.0</speed>
  <fix>3d</fix>
</trkpt>
<trkpt lat="-27.274439" lon="151.290064">
  <ele>343.1</ele>
  <time>2026-09-01T20:01:12Z</time>
  <course>270.0</course>
  <speed>0.0</speed>
  <fix>3d</fix>
</trkpt>
<trkpt lat="-27.274439" lon="151.290064">
  <ele>343.12</ele>
  <time>2026-09-01T20:01:12Z</time>
  <course>10.71</course>
  <speed>0.0</speed>
  <fix>3d</fix>
</trkpt>
<trkpt lat="-27.274439" lon="151.290064">
  <ele>343.1</ele>
  <time>2026-09-01T20:01:12Z</time>
  <course>270.0</course>
  <speed>0.0</speed>
  <fix>3d</fix>
</trkpt>
<trkpt lat="-27.274439" lon="151.290064">
  <ele>343.1</ele>
  <time>2026-09-01T20:01:12Z</time>
  <course>10.71</course>
  <speed>0.0</speed>
  <fix>3d</fix>
</trkpt>
<trkpt lat="-27.274439" lon="151.290064">
  <ele>343.1</ele>
  <time>2026-09-01T20:01:12Z</time>
  <course>270.0</course>
  <speed>0.0</speed>
  <fix>3d</fix>
</trkpt>
<trkpt lat="-27.274439" lon="151.290064">
  <ele>343.1</ele>
  <time>2026-09-01T20:01:12Z</time>
  <course>10.71</course>
  <speed>0.0</speed>
  <fix>3d</fix>
</trkpt>
<trkpt lat="-27.274439" lon="151.290064">
  <ele>343.1</ele>
  <time>2026-09-01T20:01:12Z</time>
  <course>270.0</course>
  <speed>0.0</speed>
  <fix>3d</fix>
</trkpt>
<trkpt lat="-27.274439" lon="151.290064">
  <ele>343.1</ele>
  <time>2026-09-01T20:01:12Z</time>
  <course>10.71</course>
  <speed>0.0</speed>
  <fix>3d</fix>
</trkpt>
<trkpt lat="-27.274439" lon="151.290064">
  <ele>343.1</ele>
  <time>2026-09-01T20:01:12Z</time>
  <course>270.0</course>
  <speed>0.0</speed>
  <fix>3d</fix>
</trkpt>
<trkpt lat="-27.274439" lon="151.290064">
  <ele>343.09</ele>
  <time>2026-09-01T20:01:12Z</time>
  <course>10.71</course>
  <speed>0.0</speed>
  <fix>3d</fix>
</trkpt>
<trkpt lat="-27.274439" lon="151.290064">
  <ele>343.1</ele>
  <time>2026-09-01T20:01:12Z</time>
  <course>270.0</course>
  <speed>0.0</speed>
  <fix>3d</fix>
</trkpt>
<trkpt lat="-27.274439" lon="151.290064">
  <ele>343.09</ele>
  <time>2026-09-01T20:01:12Z</time>
  <course>10.71</course>
  <speed>0.0</speed>
  <fix>3d</fix>
</trkpt>
<trkpt lat="-27.274439" lon="151.290064">
  <ele>343.1</ele>
  <time>2026-09-01T20:01:12Z</time>
  <course>270.0</course>
  <speed>0.0</speed>
  <fix>3d</fix>
</trkpt>
<trkpt lat="-27.274439" lon="151.290064">
  <ele>343.09</ele>
  <time>2026-09-01T20:01:12Z</time>
  <course>10.71</course>
  <speed>0.0</speed>
  <fix>3d</fix>
</trkpt>
<trkpt lat="-27.274439" lon="151.290064">
  <ele>343.1</ele>
  <time>2026-09-01T20:01:12Z</time>
  <course>270.0</course>
  <speed>0.0</speed>
  <fix>3d</fix>
</trkpt>
<trkpt lat="-27.274439" lon="151.290064">
  <ele>343.1</ele>
  <time>2026-09-01T20:01:12Z</time>
  <course>10.71</course>
  <speed>0.0</speed>
  <fix>3d</fix>
</trkpt>
<trkpt lat="-27.274439" lon="151.290064">
  <ele>343.1</ele>
  <time>2026-09-01T20:01:12Z</time>
  <course>270.0</course>
  <speed>0.0</speed>
  <fix>3d</fix>
</trkpt>
<trkpt lat="-27.274439" lon="151.290064">
  <ele>343.1</ele>
  <time>2026-09-01T20:01:12Z</time>
  <course>10.71</course>
  <speed>0.0</speed>
  <fix>3d</fix>
</trkpt>
<trkpt lat="-27.274439" lon="151.290064">
  <ele>343.1</ele>
  <time>2026-09-01T20:01:12Z</time>
  <course>270.0</course>
  <speed>0.0</speed>
  <fix>3d</fix>
</trkpt>
<trkpt lat="-27.274439" lon="151.290064">
  <ele>343.09</ele>
  <time>2026-09-01T20:01:12Z</time>
  <course>10.71</course>
  <speed>0.0</speed>
  <fix>3d</fix>
</trkpt>
<trkpt lat="-27.274439" lon="151.290064">
  <ele>343.1</ele>
  <time>2026-09-01T20:01:12Z</time>
  <course>270.0</course>
  <speed>0.0</speed>
  <fix>3d</fix>
</trkpt>
<trkpt lat="-27.274439" lon="151.290064">
  <ele>343.09</ele>
  <time>2026-09-01T20:01:12Z</time>
  <course>10.71</course>
  <speed>0.0</speed>
  <fix>3d</fix>
</trkpt>
<trkpt lat="-27.274439" lon="151.290064">
  <ele>343.1</ele>
  <time>2026-09-01T20:01:12Z</time>
  <course>270.0</course>
  <speed>0.0</speed>
  <fix>3d</fix>
</trkpt>
<trkpt lat="-27.274439" lon="151.290064">
  <ele>343.09</ele>
  <time>2026-09-01T20:01:12Z</time>
  <course>10.71</course>
  <speed>0.0</speed>
  <fix>3d</fix>
</trkpt>
<trkpt lat="-27.274439" lon="151.290064">
  <ele>343.1</ele>
  <time>2026-09-01T20:01:12Z</time>
  <course>270.0</course>
  <speed>0.0</speed>
  <fix>3d</fix>
</trkpt>
<trkpt lat="-27.274439" lon="151.290064">
  <ele>343.09</ele>
  <time>2026-09-01T20:01:12Z</time>
  <course>10.71</course>
  <speed>0.0</speed>
  <fix>3d</fix>
</trkpt>
<trkpt lat="-27.274439" lon="151.290064">
  <ele>343.1</ele>
  <time>2026-09-01T20:01:12Z</time>
  <course>270.0</course>
  <speed>0.0</speed>
  <fix>3d</fix>
</trkpt>
<trkpt lat="-27.274439" lon="151.290064">
  <ele>343.09</ele>
  <time>2026-09-01T20:01:12Z</time>
  <course>10.71</course>
  <speed>0.0</speed>
  <fix>3d</fix>
</trkpt>
<trkpt lat="-27.274439" lon="151.290064">
  <ele>343.1</ele>
  <time>2026-09-01T20:01:12Z</time>
  <course>270.0</course>
  <speed>0.0</speed>
  <fix>3d</fix>
</trkpt>
<trkpt lat="-27.274439" lon="151.290064">
  <ele>343.09</ele>
  <time>2026-09-01T20:01:12Z</time>
  <course>10.71</course>
  <speed>0.0</speed>
  <fix>3d</fix>
</trkpt>
<trkpt lat="-27.274439" lon="151.290064">
  <ele>343.1</ele>
  <time>2026-09-01T20:01:12Z</time>
  <course>270.0</course>
  <speed>0.0</speed>
  <fix>3d</fix>
</trkpt>
<trkpt lat="-27.274439" lon="151.290064">
  <ele>343.09</ele>
  <time>2026-09-01T20:01:12Z</time>
  <course>10.71</course>
  <speed>0.0</speed>
  <fix>3d</fix>
</trkpt>
<trkpt lat="-27.274439" lon="151.290064">
  <ele>343.1</ele>
  <time>2026-09-01T20:01:12Z</time>
  <course>270.0</course>
  <speed>0.0</speed>
  <fix>3d</fix>
</trkpt>
<trkpt lat="-27.274439" lon="151.290064">
  <ele>343.09</ele>
  <time>2026-09-01T20:01:12Z</time>
  <course>10.71</course>
  <speed>0.0</speed>
  <fix>3d</fix>
</trkpt>
<trkpt lat="-27.274439" lon="151.290064">
  <ele>343.1</ele>
  <time>2026-09-01T20:01:12Z</time>
  <course>270.0</course>
  <speed>0.0</speed>
  <fix>3d</fix>
</trkpt>
<trkpt lat="-27.274439" lon="151.290064">
  <ele>343.1</ele>
  <time>2026-09-01T20:01:12Z</time>
  <course>10.71</course>
  <speed>0.0</speed>
  <fix>3d</fix>
</trkpt>
<trkpt lat="-27.274439" lon="151.290064">
  <ele>343.1</ele>
  <time>2026-09-01T20:01:12Z</time>
  <course>270.0</course>
  <speed>0.0</speed>
  <fix>3d</fix>
</trkpt>
<trkpt lat="-27.274439" lon="151.290064">
  <ele>343.1</ele>
  <time>2026-09-01T20:01:12Z</time>
  <course>10.71</course>
  <speed>0.0</speed>
  <fix>3d</fix>
</trkpt>
<trkpt lat="-27.274439" lon="151.290064">
  <ele>343.1</ele>
  <time>2026-09-01T20:01:12Z</time>
  <course>270.0</course>
  <speed>0.0</speed>
  <fix>3d</fix>
</trkpt>
<trkpt lat="-27.274439" lon="151.290064">
  <ele>343.1</ele>
  <time>2026-09-01T20:01:12Z</time>
  <course>10.71</course>
  <speed>0.0</speed>
  <fix>3d</fix>
</trkpt>
<trkpt lat="-27.274439" lon="151.290064">
  <ele>343.1</ele>
  <time>2026-09-01T20:01:12Z</time>
  <course>270.0</course>
  <speed>0.0</speed>
  <fix>3d</fix>
</trkpt>
<trkpt lat="-27.274439" lon="151.290064">
  <ele>343.1</ele>
  <time>2026-09-01T20:01:12Z</time>
  <course>10.71</course>
  <speed>0.0</speed>
  <fix>3d</fix>
</trkpt>
<trkpt lat="-27.274439" lon="151.290064">
  <ele>343.1</ele>
  <time>2026-09-01T20:01:12Z</time>
  <course>270.0</course>
  <speed>0.0</speed>
  <fix>3d</fix>
</trkpt>
<trkpt lat="-27.274439" lon="151.290064">
  <ele>343.1</ele>
  <time>2026-09-01T20:01:12Z</time>
  <course>10.71</course>
  <speed>0.0</speed>
  <fix>3d</fix>
</trkpt>
<trkpt lat="-27.274439" lon="151.290064">
  <ele>343.1</ele>
  <time>2026-09-01T20:01:12Z</time>
  <course>270.0</course>
  <speed>0.0</speed>
  <fix>3d</fix>
</trkpt>
<trkpt lat="-27.274439" lon="151.290064">
  <ele>343.1</ele>
  <time>2026-09-01T20:01:12Z</time>
  <course>10.71</course>
  <speed>0.0</speed>
  <fix>3d</fix>
</trkpt>
<trkpt lat="-27.274439" lon="151.290064">
  <ele>343.1</ele>
  <time>2026-09-01T20:01:12Z</time>
  <course>270.0</course>
  <speed>0.0</speed>
  <fix>3d</fix>
</trkpt>
<trkpt lat="-27.274439" lon="151.290064">
  <ele>343.09</ele>
  <time>2026-09-01T20:01:12Z</time>
  <course>10.71</course>
  <speed>0.0</speed>
  <fix>3d</fix>
</trkpt>
<trkpt lat="-27.274439" lon="151.290064">
  <ele>343.1</ele>
  <time>2026-09-01T20:01:12Z</time>
  <course>270.0</course>
  <speed>0.0</speed>
  <fix>3d</fix>
</trkpt>
<trkpt lat="-27.274439" lon="151.290064">
  <ele>343.09</ele>
  <time>2026-09-01T20:01:12Z</time>
  <course>10.71</course>
  <speed>0.0</speed>
  <fix>3d</fix>
</trkpt>
<trkpt lat="-27.274439" lon="151.290064">
  <ele>343.1</ele>
  <time>2026-09-01T20:01:12Z</time>
  <course>270.0</course>
  <speed>0.0</speed>
  <fix>3d</fix>
</trkpt>
<trkpt lat="-27.274439" lon="151.290064">
  <ele>343.09</ele>
  <time>2026-09-01T20:01:12Z</time>
  <course>10.71</course>
  <speed>0.0</speed>
  <fix>3d</fix>
</trkpt>
<trkpt lat="-27.274439" lon="151.290064">
  <ele>343.1</ele>
  <time>2026-09-01T20:01:12Z</time>
  <course>270.0</course>
  <speed>0.0</speed>
  <fix>3d</fix>
</trkpt>
<trkpt lat="-27.274439" lon="151.290064">
  <ele>343.09</ele>
  <time>2026-09-01T20:01:12Z</time>
  <course>10.71</course>
  <speed>0.0</speed>
  <fix>3d</fix>
</trkpt>
<trkpt lat="-27.274439" lon="151.290064">
  <ele>343.1</ele>
  <time>2026-09-01T20:01:12Z</time>
  <course>270.0</course>
  <speed>0.0</speed>
  <fix>3d</fix>
</trkpt>
<trkpt lat="-27.274439" lon="151.290064">
  <ele>343.09</ele>
  <time>2026-09-01T20:01:12Z</time>
  <course>10.71</course>
  <speed>0.0</speed>
  <fix>3d</fix>
</trkpt>
<trkpt lat="-27.274439" lon="151.290064">
  <ele>343.1</ele>
  <time>2026-09-01T20:01:12Z</time>
  <course>270.0</course>
  <speed>0.0</speed>
  <fix>3d</fix>
</trkpt>
<trkpt lat="-27.274439" lon="151.290064">
  <ele>343.09</ele>
  <time>2026-09-01T20:01:12Z</time>
  <course>10.71</course>
  <speed>0.0</speed>
  <fix>3d</fix>
</trkpt>
<trkpt lat="-27.274439" lon="151.290064">
  <ele>343.09</ele>
  <time>2026-09-01T20:01:12Z</time>
  <course>10.71</course>
  <speed>0.0</speed>
  <fix>3d</fix>
</trkpt>
<trkpt lat="-27.274439" lon="151.290064">
  <ele>343.1</ele>
  <time>2026-09-01T20:01:12Z</time>
  <course>270.0</course>
  <speed>0.0</speed>
  <fix>3d</fix>
</trkpt>
<trkpt lat="-27.274439" lon="151.290064">
  <ele>343.09</ele>
  <time>2026-09-01T20:01:12Z</time>
  <course>10.71</course>
  <speed>0.0</speed>
  <fix>3d</fix>
</trkpt>
<trkpt lat="-27.274439" lon="151.290064">
  <ele>343.08</ele>
  <time>2026-09-01T20:01:12Z</time>
  <course>10.71</course>
  <speed>0.0</speed>
  <fix>3d</fix>
</trkpt>
<trkpt lat="-27.274439" lon="151.290064">
  <ele>343.1</ele>
  <time>2026-09-01T20:01:12Z</time>
  <course>270.0</course>
  <speed>0.0</speed>
  <fix>3d</fix>
</trkpt>
<trkpt lat="-27.274439" lon="151.290064">
  <ele>343.08</ele>
  <time>2026-09-01T20:01:12Z</time>
  <course>10.71</course>
  <speed>0.0</speed>
  <fix>3d</fix>
</trkpt>
<trkpt lat="-27.274439" lon="151.290064">
  <ele>343.09</ele>
  <time>2026-09-01T20:01:12Z</time>
  <course>10.71</course>
  <speed>0.0</speed>
  <fix>3d</fix>
</trkpt>
<trkpt lat="-27.274439" lon="151.290064">
  <ele>343.1</ele>
  <time>2026-09-01T20:01:12Z</time>
  <course>270.0</course>
  <speed>0.0</speed>
  <fix>3d</fix>
</trkpt>
<trkpt lat="-27.274439" lon="151.290064">
  <ele>343.09</ele>
  <time>2026-09-01T20:01:12Z</time>
  <course>10.71</course>
  <speed>0.0</speed>
  <fix>3d</fix>
</trkpt>
<trkpt lat="-27.274439" lon="151.290064">
  <ele>343.09</ele>
  <time>2026-09-01T20:01:12Z</time>
  <course>10.71</course>
  <speed>0.0</speed>
  <fix>3d</fix>
</trkpt>
<trkpt lat="-27.274439" lon="151.290064">
  <ele>343.1</ele>
  <time>2026-09-01T20:01:12Z</time>
  <course>117.49</course>
  <speed>0.0</speed>
  <fix>3d</fix>
</trkpt>
<trkpt lat="-27.274439" lon="151.290064">
  <ele>343.09</ele>
  <time>2026-09-01T20:01:12Z</time>
  <course>10.71</course>
  <speed>0.0</speed>
  <fix>3d</fix>
</trkpt>
<trkpt lat="-27.274439" lon="151.290064">
  <ele>343.08</ele>
  <time>2026-09-01T20:01:12Z</time>
  <course>10.71</course>
  <speed>0.0</speed>
  <fix>3d</fix>
</trkpt>
<trkpt lat="-27.274439" lon="151.290064">
  <ele>343.1</ele>
  <time>2026-09-01T20:01:12Z</time>
  <course>117.49</course>
  <speed>0.0</speed>
  <fix>3d</fix>
</trkpt>
<trkpt lat="-27.274439" lon="151.290064">
  <ele>343.08</ele>
  <time>2026-09-01T20:01:12Z</time>
  <course>10.71</course>
  <speed>0.0</speed>
  <fix>3d</fix>
</trkpt>
<trkpt lat="-27.274439" lon="151.290064">
  <ele>343.08</ele>
  <time>2026-09-01T20:01:12Z</time>
  <course>10.71</course>
  <speed>0.0</speed>
  <fix>3d</fix>
</trkpt>
<trkpt lat="-27.274439" lon="151.290064">
  <ele>343.1</ele>
  <time>2026-09-01T20:01:12Z</time>
  <course>118.37</course>
  <speed>0.0</speed>
  <fix>3d</fix>
</trkpt>
<trkpt lat="-27.274439" lon="151.290064">
  <ele>343.08</ele>
  <time>2026-09-01T20:01:12Z</time>
  <course>10.71</course>
  <speed>0.0</speed>
  <fix>3d</fix>
</trkpt>
<trkpt lat="-27.274439" lon="151.290064">
  <ele>343.08</ele>
  <time>2026-09-01T20:01:12Z</time>
  <course>10.71</course>
  <speed>0.0</speed>
  <fix>3d</fix>
</trkpt>
<trkpt lat="-27.274439" lon="151.290064">
  <ele>343.1</ele>
  <time>2026-09-01T20:01:12Z</time>
  <course>118.37</course>
  <speed>0.0</speed>
  <fix>3d</fix>
</trkpt>
<trkpt lat="-27.274439" lon="151.290064">
  <ele>343.08</ele>
  <time>2026-09-01T20:01:12Z</time>
  <course>10.71</course>
  <speed>0.0</speed>
  <fix>3d</fix>
</trkpt>
<trkpt lat="-27.274439" lon="151.290064">
  <ele>343.08</ele>
  <time>2026-09-01T20:01:12Z</time>
  <course>10.71</course>
  <speed>0.0</speed>
  <fix>3d</fix>
</trkpt>
<trkpt lat="-27.274439" lon="151.290064">
  <ele>343.1</ele>
  <time>2026-09-01T20:01:12Z</time>
  <course>292.05</course>
  <speed>0.0</speed>
  <fix>3d</fix>
</trkpt>
<trkpt lat="-27.274439" lon="151.290064">
  <ele>343.08</ele>
  <time>2026-09-01T20:01:12Z</time>
  <course>10.71</course>
  <speed>0.0</speed>
  <fix>3d</fix>
</trkpt>
<trkpt lat="-27.274439" lon="151.290064">
  <ele>343.08</ele>
  <time>2026-09-01T20:01:12Z</time>
  <course>10.71</course>
  <speed>0.0</speed>
  <fix>3d</fix>
</trkpt>
<trkpt lat="-27.274439" lon="151.290064">
  <ele>343.1</ele>
  <time>2026-09-01T20:01:12Z</time>
  <course>292.05</course>
  <speed>0.0</speed>
  <fix>3d</fix>
</trkpt>
<trkpt lat="-27.274439" lon="151.290064">
  <ele>343.08</ele>
  <time>2026-09-01T20:01:12Z</time>
  <course>10.71</course>
  <speed>0.0</speed>
  <fix>3d</fix>
</trkpt>
<trkpt lat="-27.274439" lon="151.290064">
  <ele>343.08</ele>
  <time>2026-09-01T20:01:12Z</time>
  <course>10.71</course>
  <speed>0.0</speed>
  <fix>3d</fix>
</trkpt>
<trkpt lat="-27.274439" lon="151.290064">
  <ele>343.1</ele>
  <time>2026-09-01T20:01:12Z</time>
  <course>294.64</course>
  <speed>0.0</speed>
  <fix>3d</fix>
</trkpt>
<trkpt lat="-27.274439" lon="151.290064">
  <ele>343.08</ele>
  <time>2026-09-01T20:01:12Z</time>
  <course>10.71</course>
  <speed>0.0</speed>
  <fix>3d</fix>
</trkpt>
<trkpt lat="-27.274439" lon="151.290064">
  <ele>343.1</ele>
  <time>2026-09-01T20:01:12Z</time>
  <course>10.71</course>
  <speed>0.0</speed>
  <fix>3d</fix>
</trkpt>
<trkpt lat="-27.274439" lon="151.290064">
  <ele>343.1</ele>
  <time>2026-09-01T20:01:12Z</time>
  <course>294.64</course>
  <speed>0.0</speed>
  <fix>3d</fix>
</trkpt>
<trkpt lat="-27.274439" lon="151.290064">
  <ele>343.1</ele>
  <time>2026-09-01T20:01:12Z</time>
  <course>10.71</course>
  <speed>0.0</speed>
  <fix>3d</fix>
</trkpt>
<trkpt lat="-27.274439" lon="151.290064">
  <ele>343.13</ele>
  <time>2026-09-01T20:01:12Z</time>
  <course>10.71</course>
  <speed>0.0</speed>
  <fix>3d</fix>
</trkpt>
<trkpt lat="-27.274439" lon="151.290064">
  <ele>343.1</ele>
  <time>2026-09-01T20:01:12Z</time>
  <course>7.87</course>
  <speed>0.0</speed>
  <fix>3d</fix>
</trkpt>
<trkpt lat="-27.274439" lon="151.290064">
  <ele>343.13</ele>
  <time>2026-09-01T20:01:12Z</time>
  <course>10.71</course>
  <speed>0.0</speed>
  <fix>3d</fix>
</trkpt>
<trkpt lat="-27.274439" lon="151.290064">
  <ele>343.18</ele>
  <time>2026-09-01T20:01:12Z</time>
  <course>10.71</course>
  <speed>0.0</speed>
  <fix>3d</fix>
</trkpt>
<trkpt lat="-27.274439" lon="151.290064">
  <ele>343.1</ele>
  <time>2026-09-01T20:01:12Z</time>
  <course>7.87</course>
  <speed>0.0</speed>
  <fix>3d</fix>
</trkpt>
<trkpt lat="-27.274439" lon="151.290064">
  <ele>343.19</ele>
  <time>2026-09-01T20:01:12Z</time>
  <course>10.71</course>
  <speed>0.0</speed>
  <fix>3d</fix>
</trkpt>
<trkpt lat="-27.274439" lon="151.290064">
  <ele>343.26</ele>
  <time>2026-09-01T20:01:12Z</time>
  <course>10.71</course>
  <speed>0.01</speed>
  <fix>3d</fix>
</trkpt>
<trkpt lat="-27.274439" lon="151.290064">
  <ele>343.15</ele>
  <time>2026-09-01T20:01:12Z</time>
  <course>7.93</course>
  <speed>0.0</speed>
  <fix>3d</fix>
</trkpt>
<trkpt lat="-27.274439" lon="151.290064">
  <ele>343.29</ele>
  <time>2026-09-01T20:01:12Z</time>
  <course>10.71</course>
  <speed>0.02</speed>
  <fix>3d</fix>
</trkpt>
<trkpt lat="-27.274439" lon="151.290064">
  <ele>343.41</ele>
  <time>2026-09-01T20:01:12Z</time>
  <course>10.71</course>
  <speed>0.04</speed>
  <fix>3d</fix>
</trkpt>
<trkpt lat="-27.274439" lon="151.290064">
  <ele>343.15</ele>
  <time>2026-09-01T20:01:12Z</time>
  <course>7.93</course>
  <speed>0.0</speed>
  <fix>3d</fix>
</trkpt>
<trkpt lat="-27.274439" lon="151.290064">
  <ele>343.45</ele>
  <time>2026-09-01T20:01:12Z</time>
  <course>10.71</course>
  <speed>0.05099019513592785</speed>
  <fix>3d</fix>
</trkpt>
<trkpt lat="-27.2744389" lon="151.290064">
  <ele>343.61</ele>
  <time>2026-09-01T20:01:12Z</time>
  <course>10.72</course>
  <speed>0.08062257748298549</speed>
  <fix>3d</fix>
</trkpt>
<trkpt lat="-27.274439" lon="151.290064">
  <ele>343.31</ele>
  <time>2026-09-01T20:01:12Z</time>
  <course>6.83</course>
  <speed>0.02</speed>
  <fix>3d</fix>
</trkpt>
<trkpt lat="-27.2744389" lon="151.290064">
  <ele>343.67</ele>
  <time>2026-09-01T20:01:12Z</time>
  <course>10.72</course>
  <speed>0.09055385138137417</speed>
  <fix>3d</fix>
</trkpt>
<trkpt lat="-27.2744389" lon="151.290064">
  <ele>343.86</ele>
  <time>2026-09-01T20:01:12Z</time>
  <course>10.72</course>
  <speed>0.12165525060596438</speed>
  <fix>3d</fix>
</trkpt>
<trkpt lat="-27.274439" lon="151.290064">
  <ele>343.31</ele>
  <time>2026-09-01T20:01:12Z</time>
  <course>6.83</course>
  <speed>0.02</speed>
  <fix>3d</fix>
</trkpt>
<trkpt lat="-27.2744388" lon="151.290064">
  <ele>343.93</ele>
  <time>2026-09-01T20:01:12Z</time>
  <course>10.71</course>
  <speed>0.13152946437965907</speed>
  <fix>3d</fix>
</trkpt>
<trkpt lat="-27.2744387" lon="151.290064">
  <ele>344.12</ele>
  <time>2026-09-01T20:01:12Z</time>
  <course>10.71</course>
  <speed>0.16278820596099705</speed>
  <fix>3d</fix>
</trkpt>
<trkpt lat="-27.2744389" lon="151.290064">
  <ele>343.66</ele>
  <time>2026-09-01T20:01:12Z</time>
  <course>6.93</course>
  <speed>0.08</speed>
  <fix>3d</fix>
</trkpt>
<trkpt lat="-27.2744387" lon="151.290064">
  <ele>344.19</ele>
  <time>2026-09-01T20:01:12Z</time>
  <course>10.71</course>
  <speed>0.17262676501632068</speed>
  <fix>3d</fix>
</trkpt>
<trkpt lat="-27.2744386" lon="151.290064">
  <ele>344.39</ele>
  <time>2026-09-01T20:01:12Z</time>
  <course>10.7</course>
  <speed>0.20223748416156684</speed>
  <fix>3d</fix>
</trkpt>
<trkpt lat="-27.2744389" lon="151.290064">
  <ele>343.66</ele>
  <time>2026-09-01T20:01:12Z</time>
  <course>6.93</course>
  <speed>0.08</speed>
  <fix>3d</fix>
</trkpt>
<trkpt lat="-27.2744385" lon="151.2900641">
  <ele>344.45</ele>
  <time>2026-09-01T20:01:12Z</time>
  <course>10.7</course>
  <speed>0.21213203435596426</speed>
  <fix>3d</fix>
</trkpt>
<trkpt lat="-27.2744384" lon="151.2900641">
  <ele>344.67</ele>
  <time>2026-09-01T20:01:12Z</time>
  <course>10.7</course>
  <speed>0.24331050121192876</speed>
  <fix>3d</fix>
</trkpt>
<trkpt lat="-27.2744387" lon="151.290064">
  <ele>344.15</ele>
  <time>2026-09-01T20:01:12Z</time>
  <course>7.15</course>
  <speed>0.16</speed>
  <fix>3d</fix>
</trkpt>
<trkpt lat="-27.2744383" lon="151.2900641">
  <ele>344.76</ele>
  <time>2026-09-01T20:01:12Z</time>
  <course>10.69</course>
  <speed>0.25317977802344327</speed>
  <fix>3d</fix>
</trkpt>
<trkpt lat="-27.2744381" lon="151.2900641">
  <ele>344.96</ele>
  <time>2026-09-01T20:01:12Z</time>
  <course>10.69</course>
  <speed>0.27294688127912364</speed>
  <fix>3d</fix>
</trkpt>
<trkpt lat="-27.2744387" lon="151.290064">
  <ele>344.15</ele>
  <time>2026-09-01T20:01:12Z</time>
  <course>7.15</course>
  <speed>0.16</speed>
  <fix>3d</fix>
</trkpt>
<trkpt lat="-27.2744381" lon="151.2900641">
  <ele>345.04</ele>
  <time>2026-09-01T20:01:12Z</time>
  <course>10.69</course>
  <speed>0.28442925306655786</speed>
  <fix>3d</fix>
</trkpt>
<trkpt lat="-27.2744379" lon="151.2900642">
  <ele>345.27</ele>
  <time>2026-09-01T20:01:12Z</time>
  <course>10.66</course>
  <speed>0.31400636936215165</speed>
  <fix>3d</fix>
</trkpt>
<trkpt lat="-27.2744384" lon="151.290064">
  <ele>344.71</ele>
  <time>2026-09-01T20:01:12Z</time>
  <course>7.34</course>
  <speed>0.24</speed>
  <fix>3d</fix>
</trkpt>
<trkpt lat="-27.2744378" lon="151.2900642">
  <ele>345.36</ele>
  <time>2026-09-01T20:01:12Z</time>
  <course>10.66</course>
  <speed>0.31400636936215165</speed>
  <fix>3d</fix>
</trkpt>
<trkpt lat="-27.2744376" lon="151.2900642">
  <ele>345.59</ele>
  <time>2026-09-01T20:01:12Z</time>
  <course>10.66</course>
  <speed>0.34525353003264136</speed>
  <fix>3d</fix>
</trkpt>
<trkpt lat="-27.2744384" lon="151.290064">
  <ele>344.71</ele>
  <time>2026-09-01T20:01:12Z</time>
  <course>7.34</course>
  <speed>0.24</speed>
  <fix>3d</fix>
</trkpt>
<trkpt lat="-27.2744376" lon="151.2900642">
  <ele>345.62</ele>
  <time>2026-09-01T20:01:12Z</time>
  <course>10.66</course>
  <speed>0.34525353003264136</speed>
  <fix>3d</fix>
</trkpt>
<trkpt lat="-27.2744373" lon="151.2900642">
  <ele>345.92</ele>
  <time>2026-09-01T20:01:12Z</time>
  <course>10.66</course>
  <speed>0.3649657518178932</speed>
  <fix>3d</fix>
</trkpt>
<trkpt lat="-27.2744379" lon="151.2900641">
  <ele>345.32</ele>
  <time>2026-09-01T20:01:12Z</time>
  <course>7.49</course>
  <speed>0.31</speed>
  <fix>3d</fix>
</trkpt>
<trkpt lat="-27.2744373" lon="151.2900642">
  <ele>345.94</ele>
  <time>2026-09-01T20:01:12Z</time>
  <course>10.66</course>
  <speed>0.3649657518178932</speed>
  <fix>3d</fix>
</trkpt>
<trkpt lat="-27.2744369" lon="151.2900643">
  <ele>346.24</ele>
  <time>2026-09-01T20:01:12Z</time>
  <course>10.65</course>
  <speed>0.38470768123342686</speed>
  <fix>3d</fix>
</trkpt>
<trkpt lat="-27.2744379" lon="151.2900641">
  <ele>345.32</ele>
  <time>2026-09-01T20:01:12Z</time>
  <course>7.49</course>
  <speed>0.31</speed>
  <fix>3d</fix>
</trkpt>
<trkpt lat="-27.2744369" lon="151.2900643">
  <ele>346.33</ele>
  <time>2026-09-01T20:01:12Z</time>
  <course>10.65</course>
  <speed>0.3945883931389772</speed>
  <fix>3d</fix>
</trkpt>
<trkpt lat="-27.2744366" lon="151.2900643">
  <ele>346.56</ele>
  <time>2026-09-01T20:01:12Z</time>
  <course>10.65</course>
  <speed>0.40607881008493907</speed>
  <fix>3d</fix>
</trkpt>
<trkpt lat="-27.2744372" lon="151.2900642">
  <ele>345.95</ele>
  <time>2026-09-01T20:01:12Z</time>
  <course>7.63</course>
  <speed>0.37</speed>
  <fix>3d</fix>
</trkpt>
<trkpt lat="-27.2744365" lon="151.2900644">
  <ele>346.65</ele>
  <time>2026-09-01T20:01:12Z</time>
  <course>10.65</course>
  <speed>0.40607881008493907</speed>
  <fix>3d</fix>
</trkpt>
<trkpt lat="-27.2744362" lon="151.2900644">
  <ele>346.88</ele>
  <time>2026-09-01T20:01:12Z</time>
  <course>10.65</course>
  <speed>0.4159326868617084</speed>
  <fix>3d</fix>
</trkpt>
<trkpt lat="-27.2744372" lon="151.2900642">
  <ele>345.95</ele>
  <time>2026-09-01T20:01:12Z</time>
  <course>7.63</course>
  <speed>0.37</speed>
  <fix>3d</fix>
</trkpt>
<trkpt lat="-27.2744361" lon="151.2900644">
  <ele>346.96</ele>
  <time>2026-09-01T20:01:12Z</time>
  <course>10.64</course>
  <speed>0.4159326868617084</speed>
  <fix>3d</fix>
</trkpt>
<trkpt lat="-27.2744359" lon="151.2900645">
  <ele>347.19</ele>
  <time>2026-09-01T20:01:12Z</time>
  <course>10.64</course>
  <speed>0.4159326868617084</speed>
  <fix>3d</fix>
</trkpt>
<trkpt lat="-27.2744365" lon="151.2900643">
  <ele>346.59</ele>
  <time>2026-09-01T20:01:12Z</time>
  <course>7.8</course>
  <speed>0.41</speed>
  <fix>3d</fix>
</trkpt>
<trkpt lat="-27.2744358" lon="151.2900645">
  <ele>347.27</ele>
  <time>2026-09-01T20:01:12Z</time>
  <course>10.64</course>
  <speed>0.4159326868617084</speed>
  <fix>3d</fix>
</trkpt>
<trkpt lat="-27.2744355" lon="151.2900645">
  <ele>347.5</ele>
  <time>2026-09-01T20:01:12Z</time>
  <course>10.64</course>
  <speed>0.4159326868617084</speed>
  <fix>3d</fix>
</trkpt>
<trkpt lat="-27.2744365" lon="151.2900643">
  <ele>346.59</ele>
  <time>2026-09-01T20:01:12Z</time>
  <course>7.8</course>
  <speed>0.41</speed>
  <fix>3d</fix>
</trkpt>
<trkpt lat="-27.2744354" lon="151.2900645">
  <ele>347.58</ele>
  <time>2026-09-01T20:01:12Z</time>
  <course>10.64</course>
  <speed>0.4159326868617084</speed>
  <fix>3d</fix>
</trkpt>
<trkpt lat="-27.2744351" lon="151.2900646">
  <ele>347.8</ele>
  <time>2026-09-01T20:01:12Z</time>
  <course>10.64</course>
  <speed>0.4143669871020132</speed>
  <fix>3d</fix>
</trkpt>
<trkpt lat="-27.2744358" lon="151.2900644">
  <ele>347.21</ele>
  <time>2026-09-01T20:01:12Z</time>
  <course>8.0</course>
  <speed>0.43</speed>
  <fix>3d</fix>
</trkpt>
<trkpt lat="-27.274435" lon="151.2900646">
  <ele>347.88</ele>
  <time>2026-09-01T20:01:12Z</time>
  <course>10.64</course>
  <speed>0.4143669871020132</speed>
  <fix>3d</fix>
</trkpt>
<trkpt lat="-27.2744347" lon="151.2900646">
  <ele>348.09</ele>
  <time>2026-09-01T20:01:12Z</time>
  <course>10.65</course>
  <speed>0.4044749683231337</speed>
  <fix>3d</fix>
</trkpt>
<trkpt lat="-27.2744358" lon="151.2900644">
  <ele>347.21</ele>
  <time>2026-09-01T20:01:12Z</time>
  <course>8.0</course>
  <speed>0.43</speed>
  <fix>3d</fix>
</trkpt>
<trkpt lat="-27.2744346" lon="151.2900646">
  <ele>348.17</ele>
  <time>2026-09-01T20:01:12Z</time>
  <course>10.65</course>
  <speed>0.3945883931389772</speed>
  <fix>3d</fix>
</trkpt>
<trkpt lat="-27.2744344" lon="151.2900647">
  <ele>348.37</ele>
  <time>2026-09-01T20:01:12Z</time>
  <course>10.66</course>
  <speed>0.38470768123342686</speed>
  <fix>3d</fix>
</trkpt>
<trkpt lat="-27.274435" lon="151.2900645">
  <ele>347.81</ele>
  <time>2026-09-01T20:01:12Z</time>
  <course>8.27</course>
  <speed>0.42</speed>
  <fix>3d</fix>
</trkpt>
<trkpt lat="-27.2744343" lon="151.2900647">
  <ele>348.45</ele>
  <time>2026-09-01T20:01:12Z</time>
  <course>10.66</course>
  <speed>0.38470768123342686</speed>
  <fix>3d</fix>
</trkpt>
<trkpt lat="-27.274434" lon="151.2900647">
  <ele>348.65</ele>
  <time>2026-09-01T20:01:12Z</time>
  <course>10.67</course>
  <speed>0.3634556369077249</speed>
  <fix>3d</fix>
</trkpt>
<trkpt lat="-27.274435" lon="151.2900645">
  <ele>347.81</ele>
  <time>2026-09-01T20:01:12Z</time>
  <course>8.27</course>
  <speed>0.42</speed>
  <fix>3d</fix>
</trkpt>
<trkpt lat="-27.274434" lon="151.2900647">
  <ele>348.72</ele>
  <time>2026-09-01T20:01:12Z</time>
  <course>10.67</course>
  <speed>0.3634556369077249</speed>
  <fix>3d</fix>
</trkpt>
<trkpt lat="-27.2744337" lon="151.2900648">
  <ele>348.92</ele>
  <time>2026-09-01T20:01:12Z</time>
  <course>10.68</course>
  <speed>0.34365680554879163</speed>
  <fix>3d</fix>
</trkpt>
<trkpt lat="-27.2744343" lon="151.2900646">
  <ele>348.38</ele>
  <time>2026-09-01T20:01:12Z</time>
  <course>8.64</course>
  <speed>0.4</speed>
  <fix>3d</fix>
</trkpt>
<trkpt lat="-27.2744337" lon="151.2900648">
  <ele>348.93</ele>
  <time>2026-09-01T20:01:12Z</time>
  <course>10.68</course>
  <speed>0.34365680554879163</speed>
  <fix>3d</fix>
</trkpt>
<trkpt lat="-27.2744334" lon="151.2900648">
  <ele>349.19</ele>
  <time>2026-09-01T20:01:12Z</time>
  <course>10.69</course>
  <speed>0.31400636936215165</speed>
  <fix>3d</fix>
</trkpt>
<trkpt lat="-27.2744343" lon="151.2900646">
  <ele>348.38</ele>
  <time>2026-09-01T20:01:12Z</time>
  <course>8.64</course>
  <speed>0.4</speed>
  <fix>3d</fix>
</trkpt>
<trkpt lat="-27.2744334" lon="151.2900648">
  <ele>349.2</ele>
  <time>2026-09-01T20:01:12Z</time>
  <course>10.69</course>
  <speed>0.3125699921617557</speed>
  <fix>3d</fix>
</trkpt>
<trkpt lat="-27.2744331" lon="151.2900648">
  <ele>349.45</ele>
  <time>2026-09-01T20:01:12Z</time>
  <course>10.7</course>
  <speed>0.282842712474619</speed>
  <fix>3d</fix>
</trkpt>
<trkpt lat="-27.2744336" lon="151.2900647">
  <ele>348.92</ele>
  <time>2026-09-01T20:01:12Z</time>
  <course>9.18</course>
  <speed>0.36</speed>
  <fix>3d</fix>
</trkpt>
<trkpt lat="-27.2744331" lon="151.2900649">
  <ele>349.52</ele>
  <time>2026-09-01T20:01:12Z</time>
  <course>10.71</course>
  <speed>0.282842712474619</speed>
  <fix>3d</fix>
</trkpt>
<trkpt lat="-27.2744329" lon="151.2900649">
  <ele>349.71</ele>
  <time>2026-09-01T20:01:12Z</time>
  <course>10.72</course>
  <speed>0.25179356624028343</speed>
  <fix>3d</fix>
</trkpt>
<trkpt lat="-27.2744336" lon="151.2900647">
  <ele>348.92</ele>
  <time>2026-09-01T20:01:12Z</time>
  <course>9.18</course>
  <speed>0.36</speed>
  <fix>3d</fix>
</trkpt>
<trkpt lat="-27.2744328" lon="151.2900649">
  <ele>349.78</ele>
  <time>2026-09-01T20:01:12Z</time>
  <course>10.72</course>
  <speed>0.24186773244895649</speed>
  <fix>3d</fix>
</trkpt>
<trkpt lat="-27.2744327" lon="151.2900649">
  <ele>349.96</ele>
  <time>2026-09-01T20:01:12Z</time>
  <course>10.73</course>
  <speed>0.2220360331117452</speed>
  <fix>3d</fix>
</trkpt>
<trkpt lat="-27.274433" lon="151.2900649">
  <ele>349.44</ele>
  <time>2026-09-01T20:01:12Z</time>
  <course>10.03</course>
  <speed>0.3</speed>
  <fix>3d</fix>
</trkpt>
<trkpt lat="-27.2744327" lon="151.2900649">
  <ele>349.97</ele>
  <time>2026-09-01T20:01:12Z</time>
  <course>10.73</course>
  <speed>0.2220360331117452</speed>
  <fix>3d</fix>
</trkpt>
<trkpt lat="-27.2744325" lon="151.2900649">
  <ele>350.2</ele>
  <time>2026-09-01T20:01:12Z</time>
  <course>10.74</course>
  <speed>0.19235384061671343</speed>
  <fix>3d</fix>
</trkpt>
<trkpt lat="-27.274433" lon="151.2900649">
  <ele>349.44</ele>
  <time>2026-09-01T20:01:12Z</time>
  <course>10.03</course>
  <speed>0.3</speed>
  <fix>3d</fix>
</trkpt>
<trkpt lat="-27.2744325" lon="151.2900649">
  <ele>350.21</ele>
  <time>2026-09-01T20:01:12Z</time>
  <course>10.74</course>
  <speed>0.18110770276274835</speed>
  <fix>3d</fix>
</trkpt>
<trkpt lat="-27.2744323" lon="151.290065">
  <ele>350.44</ele>
  <time>2026-09-01T20:01:12Z</time>
  <course>10.75</course>
  <speed>0.15132745950421556</speed>
  <fix>3d</fix>
</trkpt>
<trkpt lat="-27.2744325" lon="151.290065">
  <ele>349.93</ele>
  <time>2026-09-01T20:01:12Z</time>
  <course>11.48</course>
  <speed>0.23</speed>
  <fix>3d</fix>
</trkpt>
<trkpt lat="-27.2744323" lon="151.290065">
  <ele>350.51</ele>
  <time>2026-09-01T20:01:12Z</time>
  <course>10.76</course>
  <speed>0.1414213562373095</speed>
  <fix>3d</fix>
</trkpt>
<trkpt lat="-27.2744322" lon="151.290065">
  <ele>350.68</ele>
  <time>2026-09-01T20:01:12Z</time>
  <course>10.76</course>
  <speed>0.12165525060596438</speed>
  <fix>3d</fix>
</trkpt>
<trkpt lat="-27.2744325" lon="151.290065">
  <ele>349.93</ele>
  <time>2026-09-01T20:01:12Z</time>
  <course>11.48</course>
  <speed>0.23</speed>
  <fix>3d</fix>
</trkpt>
<trkpt lat="-27.2744321" lon="151.290065">
  <ele>350.75</ele>
  <time>2026-09-01T20:01:12Z</time>
  <course>10.77</course>
  <speed>0.11045361017187261</speed>
  <fix>3d</fix>
</trkpt>
<trkpt lat="-27.2744321" lon="151.290065">
  <ele>350.92</ele>
  <time>2026-09-01T20:01:12Z</time>
  <course>10.78</course>
  <speed>0.08062257748298549</speed>
  <fix>3d</fix>
</trkpt>
<trkpt lat="-27.2744321" lon="151.2900651">
  <ele>350.41</ele>
  <time>2026-09-01T20:01:12Z</time>
  <course>14.09</course>
  <speed>0.16</speed>
  <fix>3d</fix>
</trkpt>
<trkpt lat="-27.274432" lon="151.290065">
  <ele>350.98</ele>
  <time>2026-09-01T20:01:12Z</time>
  <course>10.78</course>
  <speed>0.07071067811865475</speed>
  <fix>3d</fix>
</trkpt>
<trkpt lat="-27.274432" lon="151.2900651">
  <ele>351.15</ele>
  <time>2026-09-01T20:01:12Z</time>
  <course>10.79</course>
  <speed>0.05099019513592785</speed>
  <fix>3d</fix>
</trkpt>
<trkpt lat="-27.2744321" lon="151.2900651">
  <ele>350.41</ele>
  <time>2026-09-01T20:01:12Z</time>
  <course>14.09</course>
  <speed>0.16</speed>
  <fix>3d</fix>
</trkpt>
<trkpt lat="-27.274432" lon="151.2900651">
  <ele>351.22</ele>
  <time>2026-09-01T20:01:12Z</time>
  <course>10.8</course>
  <speed>0.04</speed>
  <fix>3d</fix>
</trkpt>
<trkpt lat="-27.2744319" lon="151.2900651">
  <ele>351.39</ele>
  <time>2026-09-01T20:01:12Z</time>
  <course>10.81</course>
  <speed>0.02</speed>
  <fix>3d</fix>
</trkpt>
<trkpt lat="-27.2744319" lon="151.2900651">
  <ele>350.88</ele>
  <time>2026-09-01T20:01:12Z</time>
  <course>19.87</course>
  <speed>0.09</speed>
  <fix>3d</fix>
</trkpt>
<trkpt lat="-27.2744319" lon="151.2900651">
  <ele>351.46</ele>
  <time>2026-09-01T20:01:12Z</time>
  <course>10.82</course>
  <speed>0.01</speed>
  <fix>3d</fix>
</trkpt>
<trkpt lat="-27.2744319" lon="151.2900651">
  <ele>351.63</ele>
  <time>2026-09-01T20:01:12Z</time>
  <course>10.84</course>
  <speed>0.0</speed>
  <fix>3d</fix>
</trkpt>
<trkpt lat="-27.2744319" lon="151.2900651">
  <ele>350.88</ele>
  <time>2026-09-01T20:01:12Z</time>
  <course>19.87</course>
  <speed>0.09</speed>
  <fix>3d</fix>
</trkpt>
<trkpt lat="-27.2744319" lon="151.2900651">
  <ele>351.64</ele>
  <time>2026-09-01T20:01:12Z</time>
  <course>10.84</course>
  <speed>0.0</speed>
  <fix>3d</fix>
</trkpt>
<trkpt lat="-27.2744319" lon="151.2900651">
  <ele>351.87</ele>
  <time>2026-09-01T20:01:12Z</time>
  <course>10.87</course>
  <speed>0.03</speed>
  <fix>3d</fix>
</trkpt>
<trkpt lat="-27.2744318" lon="151.2900652">
  <ele>351.35</ele>
  <time>2026-09-01T20:01:12Z</time>
  <course>43.99</course>
  <speed>0.03</speed>
  <fix>3d</fix>
</trkpt>
<trkpt lat="-27.2744319" lon="151.2900651">
  <ele>351.88</ele>
  <time>2026-09-01T20:01:12Z</time>
  <course>10.87</course>
  <speed>0.03</speed>
  <fix>3d</fix>
</trkpt>
<trkpt lat="-27.2744319" lon="151.2900651">
  <ele>352.11</ele>
  <time>2026-09-01T20:01:12Z</time>
  <course>10.91</course>
  <speed>0.05</speed>
  <fix>3d</fix>
</trkpt>
<trkpt lat="-27.2744318" lon="151.2900652">
  <ele>351.35</ele>
  <time>2026-09-01T20:01:12Z</time>
  <course>43.99</course>
  <speed>0.03</speed>
  <fix>3d</fix>
</trkpt>
<trkpt lat="-27.274432" lon="151.2900651">
  <ele>352.17</ele>
  <time>2026-09-01T20:01:12Z</time>
  <course>10.92</course>
  <speed>0.06</speed>
  <fix>3d</fix>
</trkpt>
<trkpt lat="-27.274432" lon="151.2900651">
  <ele>352.34</ele>
  <time>2026-09-01T20:01:12Z</time>
  <course>10.95</course>
  <speed>0.08062257748298549</speed>
  <fix>3d</fix>
</trkpt>
<trkpt lat="-27.2744318" lon="151.2900652">
  <ele>351.82</ele>
  <time>2026-09-01T20:01:12Z</time>
  <course>154.44</course>
  <speed>0.03</speed>
  <fix>3d</fix>
</trkpt>
<trkpt lat="-27.274432" lon="151.2900651">
  <ele>352.41</ele>
  <time>2026-09-01T20:01:12Z</time>
  <course>10.96</course>
  <speed>0.08062257748298549</speed>
  <fix>3d</fix>
</trkpt>
<trkpt lat="-27.2744321" lon="151.2900651">
  <ele>352.58</ele>
  <time>2026-09-01T20:01:12Z</time>
  <course>11.0</course>
  <speed>0.1004987562112089</speed>
  <fix>3d</fix>
</trkpt>
<trkpt lat="-27.2744318" lon="151.2900652">
  <ele>351.82</ele>
  <time>2026-09-01T20:01:12Z</time>
  <course>154.44</course>
  <speed>0.03</speed>
  <fix>3d</fix>
</trkpt>
<trkpt lat="-27.2744321" lon="151.2900651">
  <ele>352.64</ele>
  <time>2026-09-01T20:01:12Z</time>
  <course>11.01</course>
  <speed>0.1004987562112089</speed>
  <fix>3d</fix>
</trkpt>
<trkpt lat="-27.2744322" lon="151.2900651">
  <ele>352.82</ele>
  <time>2026-09-01T20:01:12Z</time>
  <course>11.05</course>
  <speed>0.12165525060596438</speed>
  <fix>3d</fix>
</trkpt>
<trkpt lat="-27.2744319" lon="151.2900652">
  <ele>352.3</ele>
  <time>2026-09-01T20:01:12Z</time>
  <course>175.83</course>
  <speed>0.08</speed>
  <fix>3d</fix>
</trkpt>
<trkpt lat="-27.2744322" lon="151.2900651">
  <ele>352.89</ele>
  <time>2026-09-01T20:01:12Z</time>
  <course>11.06</course>
  <speed>0.12165525060596438</speed>
  <fix>3d</fix>
</trkpt>
<trkpt lat="-27.2744322" lon="151.2900652">
  <ele>353.06</ele>
  <time>2026-09-01T20:01:12Z</time>
  <course>11.09</course>
  <speed>0.13152946437965907</speed>
  <fix>3d</fix>
</trkpt>
<trkpt lat="-27.2744319" lon="151.2900652">
  <ele>352.3</ele>
  <time>2026-09-01T20:01:12Z</time>
  <course>175.83</course>
  <speed>0.08</speed>
  <fix>3d</fix>
</trkpt>
<trkpt lat="-27.2744322" lon="151.2900652">
  <ele>353.13</ele>
  <time>2026-09-01T20:01:12Z</time>
  <course>11.11</course>
  <speed>0.1414213562373095</speed>
  <fix>3d</fix>
</trkpt>
<trkpt lat="-27.2744323" lon="151.2900652">
  <ele>353.31</ele>
  <time>2026-09-01T20:01:12Z</time>
  <course>11.13</course>
  <speed>0.15132745950421556</speed>
  <fix>3d</fix>
</trkpt>
<trkpt lat="-27.274432" lon="151.2900652">
  <ele>352.78</ele>
  <time>2026-09-01T20:01:13Z</time>
  <course>181.82</course>
  <speed>0.12</speed>
  <fix>3d</fix>
</trkpt>
<trkpt lat="-27.2744323" lon="151.2900652">
  <ele>353.38</ele>
  <time>2026-09-01T20:01:13Z</time>
  <course>11.14</course>
  <speed>0.15297058540778355</speed>
  <fix>3d</fix>
</trkpt>
<trkpt lat="-27.2744324" lon="151.2900652">
  <ele>353.55</ele>
  <time>2026-09-01T20:01:13Z</time>
  <course>11.16</course>
  <speed>0.16278820596099705</speed>
  <fix>3d</fix>
</trkpt>
<trkpt lat="-27.274432" lon="151.2900652">
  <ele>352.78</ele>
  <time>2026-09-01T20:01:13Z</time>
  <course>181.82</course>
  <speed>0.12</speed>
  <fix>3d</fix>
</trkpt>
<trkpt lat="-27.2744324" lon="151.2900652">
  <ele>353.56</ele>
  <time>2026-09-01T20:01:13Z</time>
  <course>11.16</course>
  <speed>0.16278820596099705</speed>
  <fix>3d</fix>
</trkpt>
<trkpt lat="-27.2744326" lon="151.2900652">
  <ele>353.8</ele>
  <time>2026-09-01T20:01:13Z</time>
  <course>11.16</course>
  <speed>0.17262676501632068</speed>
  <fix>3d</fix>
</trkpt>
<trkpt lat="-27.2744323" lon="151.2900652">
  <ele>353.26</ele>
  <time>2026-09-01T20:01:13Z</time>
  <course>184.77</course>
  <speed>0.15</speed>
  <fix>3d</fix>
</trkpt>
<trkpt lat="-27.2744326" lon="151.2900651">
  <ele>353.88</ele>
  <time>2026-09-01T20:01:13Z</time>
  <course>11.15</course>
  <speed>0.17262676501632068</speed>
  <fix>3d</fix>
</trkpt>
<trkpt lat="-27.2744327" lon="151.2900651">
  <ele>354.04</ele>
  <time>2026-09-01T20:01:13Z</time>
  <course>11.13</course>
  <speed>0.1824828759089466</speed>
  <fix>3d</fix>
</trkpt>
<trkpt lat="-27.2744323" lon="151.2900652">
  <ele>353.26</ele>
  <time>2026-09-01T20:01:13Z</time>
  <course>184.77</course>
  <speed>0.15</speed>
  <fix>3d</fix>
</trkpt>
<trkpt lat="-27.2744328" lon="151.2900651">
  <ele>354.11</ele>
  <time>2026-09-01T20:01:13Z</time>
  <course>11.11</course>
  <speed>0.18439088914585774</speed>
  <fix>3d</fix>
</trkpt>
<trkpt lat="-27.2744329" lon="151.2900651">
  <ele>354.3</ele>
  <time>2026-09-01T20:01:13Z</time>
  <course>11.06</course>
  <speed>0.1824828759089466</speed>
  <fix>3d</fix>
</trkpt>
<trkpt lat="-27.2744326" lon="151.2900652">
  <ele>353.76</ele>
  <time>2026-09-01T20:01:13Z</time>
  <course>186.17</course>
  <speed>0.18</speed>
  <fix>3d</fix>
</trkpt>
<trkpt lat="-27.2744329" lon="151.2900651">
  <ele>354.3</ele>
  <time>2026-09-01T20:01:13Z</time>
  <course>11.06</course>
  <speed>0.1824828759089466</speed>
  <fix>3d</fix>
</trkpt>
<trkpt lat="-27.2744331" lon="151.2900651">
  <ele>354.55</ele>
  <time>2026-09-01T20:01:13Z</time>
  <course>11.0</course>
  <speed>0.19235384061671343</speed>
  <fix>3d</fix>
</trkpt>
<trkpt lat="-27.2744326" lon="151.2900652">
  <ele>353.76</ele>
  <time>2026-09-01T20:01:13Z</time>
  <course>186.17</course>
  <speed>0.18</speed>
  <fix>3d</fix>
</trkpt>
<trkpt lat="-27.2744331" lon="151.2900651">
  <ele>354.56</ele>
  <time>2026-09-01T20:01:13Z</time>
  <course>11.0</course>
  <speed>0.19235384061671343</speed>
  <fix>3d</fix>
</trkpt>
<trkpt lat="-27.2744332" lon="151.2900651">
  <ele>354.8</ele>
  <time>2026-09-01T20:01:13Z</time>
  <course>10.96</course>
  <speed>0.19235384061671343</speed>
  <fix>3d</fix>
</trkpt>
<trkpt lat="-27.2744329" lon="151.2900652">
  <ele>354.26</ele>
  <time>2026-09-01T20:01:13Z</time>
  <course>186.51</course>
  <speed>0.19</speed>
  <fix>3d</fix>
</trkpt>
<trkpt lat="-27.2744332" lon="151.2900651">
  <ele>354.81</ele>
  <time>2026-09-01T20:01:13Z</time>
  <course>10.96</course>
  <speed>0.19235384061671343</speed>
  <fix>3d</fix>
</trkpt>
<trkpt lat="-27.2744334" lon="151.2900651">
  <ele>355.06</ele>
  <time>2026-09-01T20:01:13Z</time>
  <course>10.93</course>
  <speed>0.194164878389476</speed>
  <fix>3d</fix>
</trkpt>
<trkpt lat="-27.2744329" lon="151.2900652">
  <ele>354.26</ele>
  <time>2026-09-01T20:01:13Z</time>
  <course>186.51</course>
  <speed>0.19</speed>
  <fix>3d</fix>
</trkpt>
<trkpt lat="-27.2744335" lon="151.290065">
  <ele>355.13</ele>
  <time>2026-09-01T20:01:13Z</time>
  <course>10.93</course>
  <speed>0.20223748416156684</speed>
  <fix>3d</fix>
</trkpt>
<trkpt lat="-27.2744336" lon="151.290065">
  <ele>355.32</ele>
  <time>2026-09-01T20:01:13Z</time>
  <course>10.9</course>
  <speed>0.20223748416156684</speed>
  <fix>3d</fix>
</trkpt>
<trkpt lat="-27.2744333" lon="151.2900652">
  <ele>354.76</ele>
  <time>2026-09-01T20:01:13Z</time>
  <course>186.94</course>
  <speed>0.21</speed>
  <fix>3d</fix>
</trkpt>
<trkpt lat="-27.2744336" lon="151.290065">
  <ele>355.39</ele>
  <time>2026-09-01T20:01:13Z</time>
  <course>10.88</course>
  <speed>0.20223748416156684</speed>
  <fix>3d</fix>
</trkpt>
<trkpt lat="-27.2744338" lon="151.290065">
  <ele>355.57</ele>
  <time>2026-09-01T20:01:13Z</time>
  <course>10.85</course>
  <speed>0.20223748416156684</speed>
  <fix>3d</fix>
</trkpt>
<trkpt lat="-27.2744333" lon="151.2900652">
  <ele>354.76</ele>
  <time>2026-09-01T20:01:13Z</time>
  <course>186.94</course>
  <speed>0.21</speed>
  <fix>3d</fix>
</trkpt>
<trkpt lat="-27.2744338" lon="151.290065">
  <ele>355.64</ele>
  <time>2026-09-01T20:01:13Z</time>
  <course>10.84</course>
  <speed>0.2009975124224178</speed>
  <fix>3d</fix>
</trkpt>
<trkpt lat="-27.274434" lon="151.290065">
  <ele>355.83</ele>
  <time>2026-09-01T20:01:13Z</time>
  <course>10.82</course>
  <speed>0.2009975124224178</speed>
  <fix>3d</fix>
</trkpt>
<trkpt lat="-27.2744336" lon="151.2900651">
  <ele>355.27</ele>
  <time>2026-09-01T20:01:13Z</time>
  <course>187.11</course>
  <speed>0.21</speed>
  <fix>3d</fix>
</trkpt>
<trkpt lat="-27.274434" lon="151.290065">
  <ele>355.9</ele>
  <time>2026-09-01T20:01:13Z</time>
  <course>10.82</course>
  <speed>0.2009975124224178</speed>
  <fix>3d</fix>
</trkpt>
<trkpt lat="-27.2744341" lon="151.290065">
  <ele>356.08</ele>
  <time>2026-09-01T20:01:13Z</time>
  <course>10.81</course>
  <speed>0.2002498439450079</speed>
  <fix>3d</fix>
</trkpt>
<trkpt lat="-27.2744336" lon="151.2900651">
  <ele>355.27</ele>
  <time>2026-09-01T20:01:13Z</time>
  <course>187.11</course>
  <speed>0.21</speed>
  <fix>3d</fix>
</trkpt>
<trkpt lat="-27.2744342" lon="151.290065">
  <ele>356.15</ele>
  <time>2026-09-01T20:01:13Z</time>
  <course>10.8</course>
  <speed>0.21</speed>
  <fix>3d</fix>
</trkpt>
<trkpt lat="-27.2744343" lon="151.290065">
  <ele>356.33</ele>
  <time>2026-09-01T20:01:13Z</time>
  <course>10.81</course>
  <speed>0.21</speed>
  <fix>3d</fix>
</trkpt>
<trkpt lat="-27.2744341" lon="151.2900651">
  <ele>355.77</ele>
  <time>2026-09-01T20:01:13Z</time>
  <course>187.19</course>
  <speed>0.21</speed>
  <fix>3d</fix>
</trkpt>
<trkpt lat="-27.2744343" lon="151.290065">
  <ele>356.34</ele>
  <time>2026-09-01T20:01:13Z</time>
  <course>10.81</course>
  <speed>0.21</speed>
  <fix>3d</fix>
</trkpt>
<trkpt lat="-27.2744345" lon="151.290065">
  <ele>356.58</ele>
  <time>2026-09-01T20:01:13Z</time>
  <course>10.83</course>
  <speed>0.2002498439450079</speed>
  <fix>3d</fix>
</trkpt>
<trkpt lat="-27.2744341" lon="151.2900651">
  <ele>355.77</ele>
  <time>2026-09-01T20:01:13Z</time>
  <course>187.19</course>
  <speed>0.21</speed>
  <fix>3d</fix>
</trkpt>
<trkpt lat="-27.2744345" lon="151.290065">
  <ele>356.59</ele>
  <time>2026-09-01T20:01:13Z</time>
  <course>10.83</course>
  <speed>0.2002498439450079</speed>
  <fix>3d</fix>
</trkpt>
<trkpt lat="-27.2744347" lon="151.290065">
  <ele>356.83</ele>
  <time>2026-09-01T20:01:13Z</time>
  <course>10.82</course>
  <speed>0.2009975124224178</speed>
  <fix>3d</fix>
</trkpt>
<trkpt lat="-27.2744345" lon="151.2900651">
  <ele>356.28</ele>
  <time>2026-09-01T20:01:13Z</time>
  <course>188.24</course>
  <speed>0.21</speed>
  <fix>3d</fix>
</trkpt>
<trkpt lat="-27.2744348" lon="151.290065">
  <ele>356.91</ele>
  <time>2026-09-01T20:01:13Z</time>
  <course>10.8</course>
  <speed>0.2002498439450079</speed>
  <fix>3d</fix>
</trkpt>
<trkpt lat="-27.2744349" lon="151.290065">
  <ele>357.09</ele>
  <time>2026-09-01T20:01:13Z</time>
  <course>10.74</course>
  <speed>0.2002498439450079</speed>
  <fix>3d</fix>
</trkpt>
<trkpt lat="-27.2744345" lon="151.2900651">
  <ele>356.28</ele>
  <time>2026-09-01T20:01:13Z</time>
  <course>188.24</course>
  <speed>0.21</speed>
  <fix>3d</fix>
</trkpt>
<trkpt lat="-27.2744349" lon="151.290065">
  <ele>357.1</ele>
  <time>2026-09-01T20:01:13Z</time>
  <course>10.74</course>
  <speed>0.2002498439450079</speed>
  <fix>3d</fix>
</trkpt>
<trkpt lat="-27.2744351" lon="151.290065">
  <ele>357.34</ele>
  <time>2026-09-01T20:01:13Z</time>
  <course>10.66</course>
  <speed>0.2039607805437114</speed>
  <fix>3d</fix>
</trkpt>
<trkpt lat="-27.2744349" lon="151.290065">
  <ele>356.78</ele>
  <time>2026-09-01T20:01:13Z</time>
  <course>188.64</course>
  <speed>0.21</speed>
  <fix>3d</fix>
</trkpt>
<trkpt lat="-27.2744351" lon="151.290065">
  <ele>357.35</ele>
  <time>2026-09-01T20:01:13Z</time>
  <course>10.66</course>
  <speed>0.2039607805437114</speed>
  <fix>3d</fix>
</trkpt>
<trkpt lat="-27.2744353" lon="151.2900649">
  <ele>357.59</ele>
  <time>2026-09-01T20:01:13Z</time>
  <course>10.57</course>
  <speed>0.20223748416156684</speed>
  <fix>3d</fix>
</trkpt>
<trkpt lat="-27.2744349" lon="151.290065">
  <ele>356.78</ele>
  <time>2026-09-01T20:01:13Z</time>
  <course>188.64</course>
  <speed>0.21</speed>
  <fix>3d</fix>
</trkpt>
<trkpt lat="-27.2744353" lon="151.2900649">
  <ele>357.66</ele>
  <time>2026-09-01T20:01:13Z</time>
  <course>10.55</course>
  <speed>0.20223748416156684</speed>
  <fix>3d</fix>
</trkpt>
<trkpt lat="-27.2744355" lon="151.2900649">
  <ele>357.84</ele>
  <time>2026-09-01T20:01:13Z</time>
  <course>10.51</course>
  <speed>0.2</speed>
  <fix>3d</fix>
</trkpt>
<trkpt lat="-27.2744352" lon="151.2900649">
  <ele>357.28</ele>
  <time>2026-09-01T20:01:13Z</time>
  <course>188.13</course>
  <speed>0.21</speed>
  <fix>3d</fix>
</trkpt>
<trkpt lat="-27.2744355" lon="151.2900649">
  <ele>357.92</ele>
  <time>2026-09-01T20:01:13Z</time>
  <course>10.5</course>
  <speed>0.2</speed>
  <fix>3d</fix>
</trkpt>
<trkpt lat="-27.2744357" lon="151.2900649">
  <ele>358.09</ele>
  <time>2026-09-01T20:01:13Z</time>
  <course>10.51</course>
  <speed>0.2</speed>
  <fix>3d</fix>
</trkpt>
<trkpt lat="-27.2744352" lon="151.2900649">
  <ele>357.28</ele>
  <time>2026-09-01T20:01:13Z</time>
  <course>188.13</course>
  <speed>0.21</speed>
  <fix>3d</fix>
</trkpt>
<trkpt lat="-27.2744357" lon="151.2900649">
  <ele>358.16</ele>
  <time>2026-09-01T20:01:13Z</time>
  <course>10.52</course>
  <speed>0.2</speed>
  <fix>3d</fix>
</trkpt>
<trkpt lat="-27.2744359" lon="151.2900649">
  <ele>358.34</ele>
  <time>2026-09-01T20:01:13Z</time>
  <course>10.58</course>
  <speed>0.19026297590440447</speed>
  <fix>3d</fix>
</trkpt>
<trkpt lat="-27.2744355" lon="151.2900649">
  <ele>357.78</ele>
  <time>2026-09-01T20:01:13Z</time>
  <course>188.24</course>
  <speed>0.2</speed>
  <fix>3d</fix>
</trkpt>
<trkpt lat="-27.2744359" lon="151.2900649">
  <ele>358.42</ele>
  <time>2026-09-01T20:01:13Z</time>
  <course>10.6</course>
  <speed>0.191049731745428</speed>
  <fix>3d</fix>
</trkpt>
<trkpt lat="-27.274436" lon="151.2900649">
  <ele>358.59</ele>
  <time>2026-09-01T20:01:13Z</time>
  <course>10.63</course>
  <speed>0.191049731745428</speed>
  <fix>3d</fix>
</trkpt>
<trkpt lat="-27.2744355" lon="151.2900649">
  <ele>357.78</ele>
  <time>2026-09-01T20:01:13Z</time>
  <course>188.24</course>
  <speed>0.2</speed>
  <fix>3d</fix>
</trkpt>
<trkpt lat="-27.2744361" lon="151.2900649">
  <ele>358.65</ele>
  <time>2026-09-01T20:01:13Z</time>
  <course>10.63</course>
  <speed>0.191049731745428</speed>
  <fix>3d</fix>
</trkpt>
<trkpt lat="-27.2744362" lon="151.2900648">
  <ele>358.84</ele>
  <time>2026-09-01T20:01:13Z</time>
  <course>10.61</course>
  <speed>0.191049731745428</speed>
  <fix>3d</fix>
</trkpt>
<trkpt lat="-27.274436" lon="151.2900648">
  <ele>358.29</ele>
  <time>2026-09-01T20:01:13Z</time>
  <course>189.08</course>
  <speed>0.2</speed>
  <fix>3d</fix>
</trkpt>
<trkpt lat="-27.2744363" lon="151.2900648">
  <ele>358.93</ele>
  <time>2026-09-01T20:01:13Z</time>
  <course>10.59</course>
  <speed>0.19026297590440447</speed>
  <fix>3d</fix>
</trkpt>
<trkpt lat="-27.2744364" lon="151.2900648">
  <ele>359.1</ele>
  <time>2026-09-01T20:01:13Z</time>
  <course>10.56</course>
  <speed>0.18110770276274835</speed>
  <fix>3d</fix>
</trkpt>
<trkpt lat="-27.274436" lon="151.2900648">
  <ele>358.29</ele>
  <time>2026-09-01T20:01:13Z</time>
  <course>189.08</course>
  <speed>0.2</speed>
  <fix>3d</fix>
</trkpt>
<trkpt lat="-27.2744364" lon="151.2900648">
  <ele>359.16</ele>
  <time>2026-09-01T20:01:13Z</time>
  <course>10.55</course>
  <speed>0.18027756377319945</speed>
  <fix>3d</fix>
</trkpt>
<trkpt lat="-27.2744366" lon="151.2900648">
  <ele>359.35</ele>
  <time>2026-09-01T20:01:13Z</time>
  <course>10.52</course>
  <speed>0.18027756377319945</speed>
  <fix>3d</fix>
</trkpt>
<trkpt lat="-27.2744363" lon="151.2900647">
  <ele>358.78</ele>
  <time>2026-09-01T20:01:13Z</time>
  <course>189.55</course>
  <speed>0.19</speed>
  <fix>3d</fix>
</trkpt>
<trkpt lat="-27.2744366" lon="151.2900648">
  <ele>359.42</ele>
  <time>2026-09-01T20:01:13Z</time>
  <course>10.51</course>
  <speed>0.18110770276274835</speed>
  <fix>3d</fix>
</trkpt>
<trkpt lat="-27.2744367" lon="151.2900647">
  <ele>359.6</ele>
  <time>2026-09-01T20:01:13Z</time>
  <course>10.49</course>
  <speed>0.17262676501632068</speed>
  <fix>3d</fix>
</trkpt>
<trkpt lat="-27.2744363" lon="151.2900647">
  <ele>358.78</ele>
  <time>2026-09-01T20:01:13Z</time>
  <course>189.55</course>
  <speed>0.19</speed>
  <fix>3d</fix>
</trkpt>
<trkpt lat="-27.2744368" lon="151.2900647">
  <ele>359.66</ele>
  <time>2026-09-01T20:01:13Z</time>
  <course>10.48</course>
  <speed>0.17464249196572978</speed>
  <fix>3d</fix>
</trkpt>
<trkpt lat="-27.2744369" lon="151.2900647">
  <ele>359.85</ele>
  <time>2026-09-01T20:01:13Z</time>
  <course>10.45</course>
  <speed>0.17262676501632068</speed>
  <fix>3d</fix>
</trkpt>
<trkpt lat="-27.2744367" lon="151.2900646">
  <ele>359.28</ele>
  <time>2026-09-01T20:01:13Z</time>
  <course>189.41</course>
  <speed>0.18</speed>
  <fix>3d</fix>
</trkpt>
<trkpt lat="-27.2744369" lon="151.2900647">
  <ele>359.86</ele>
  <time>2026-09-01T20:01:13Z</time>
  <course>10.45</course>
  <speed>0.17262676501632068</speed>
  <fix>3d</fix>
</trkpt>
<trkpt lat="-27.274437" lon="151.2900646">
  <ele>360.1</ele>
  <time>2026-09-01T20:01:13Z</time>
  <course>10.41</course>
  <speed>0.1649242250247064</speed>
  <fix>3d</fix>
</trkpt>
<trkpt lat="-27.2744367" lon="151.2900646">
  <ele>359.28</ele>
  <time>2026-09-01T20:01:13Z</time>
  <course>189.41</course>
  <speed>0.18</speed>
  <fix>3d</fix>
</trkpt>
<trkpt lat="-27.274437" lon="151.2900646">
  <ele>360.11</ele>
  <time>2026-09-01T20:01:13Z</time>
  <course>10.41</course>
  <speed>0.1649242250247064</speed>
  <fix>3d</fix>
</trkpt>
<trkpt lat="-27.2744372" lon="151.2900646">
  <ele>360.35</ele>
  <time>2026-09-01T20:01:13Z</time>
  <course>10.39</course>
  <speed>0.1676305461424021</speed>
  <fix>3d</fix>
</trkpt>
<trkpt lat="-27.274437" lon="151.2900646">
  <ele>359.78</ele>
  <time>2026-09-01T20:01:13Z</time>
  <course>188.87</course>
  <speed>0.18</speed>
  <fix>3d</fix>
</trkpt>
<trkpt lat="-27.2744372" lon="151.2900646">
  <ele>360.42</ele>
  <time>2026-09-01T20:01:13Z</time>
  <course>10.39</course>
  <speed>0.1649242250247064</speed>
  <fix>3d</fix>
</trkpt>
<trkpt lat="-27.2744373" lon="151.2900645">
  <ele>360.59</ele>
  <time>2026-09-01T20:01:13Z</time>
  <course>10.4</course>
  <speed>0.16124515496597097</speed>
  <fix>3d</fix>
</trkpt>
<trkpt lat="-27.274437" lon="151.2900646">
  <ele>359.78</ele>
  <time>2026-09-01T20:01:13Z</time>
  <course>188.87</course>
  <speed>0.18</speed>
  <fix>3d</fix>
</trkpt>
<trkpt lat="-27.2744374" lon="151.2900645">
  <ele>360.66</ele>
  <time>2026-09-01T20:01:13Z</time>
  <course>10.42</course>
  <speed>0.16124515496597097</speed>
  <fix>3d</fix>
</trkpt>
<trkpt lat="-27.2744375" lon="151.2900645">
  <ele>360.84</ele>
  <time>2026-09-01T20:01:13Z</time>
  <course>10.49</course>
  <speed>0.15297058540778355</speed>
  <fix>3d</fix>
</trkpt>
<trkpt lat="-27.2744373" lon="151.2900646">
  <ele>360.28</ele>
  <time>2026-09-01T20:01:13Z</time>
  <course>188.09</course>
  <speed>0.17</speed>
  <fix>3d</fix>
</trkpt>
<trkpt lat="-27.2744375" lon="151.2900645">
  <ele>360.91</ele>
  <time>2026-09-01T20:01:13Z</time>
  <course>10.52</course>
  <speed>0.15297058540778355</speed>
  <fix>3d</fix>
</trkpt>
<trkpt lat="-27.2744376" lon="151.2900645">
  <ele>361.09</ele>
  <time>2026-09-01T20:01:13Z</time>
  <course>10.6</course>
  <speed>0.15132745950421556</speed>
  <fix>3d</fix>
</trkpt>
<trkpt lat="-27.2744373" lon="151.2900646">
  <ele>360.28</ele>
  <time>2026-09-01T20:01:13Z</time>
  <course>188.09</course>
  <speed>0.17</speed>
  <fix>3d</fix>
</trkpt>
<trkpt lat="-27.2744377" lon="151.2900645">
  <ele>361.16</ele>
  <time>2026-09-01T20:01:13Z</time>
  <course>10.63</course>
  <speed>0.15033296378372907</speed>
  <fix>3d</fix>
</trkpt>
<trkpt lat="-27.2744378" lon="151.2900645">
  <ele>361.34</ele>
  <time>2026-09-01T20:01:13Z</time>
  <course>10.68</course>
  <speed>0.15</speed>
  <fix>3d</fix>
</trkpt>
<trkpt lat="-27.2744376" lon="151.2900645">
  <ele>360.77</ele>
  <time>2026-09-01T20:01:13Z</time>
  <course>188.29</course>
  <speed>0.15</speed>
  <fix>3d</fix>
</trkpt>
<trkpt lat="-27.2744378" lon="151.2900645">
  <ele>361.41</ele>
  <time>2026-09-01T20:01:13Z</time>
  <course>10.7</course>
  <speed>0.140356688476182</speed>
  <fix>3d</fix>
</trkpt>
<trkpt lat="-27.2744379" lon="151.2900645">
  <ele>361.59</ele>
  <time>2026-09-01T20:01:13Z</time>
  <course>10.73</course>
  <speed>0.140356688476182</speed>
  <fix>3d</fix>
</trkpt>
<trkpt lat="-27.2744376" lon="151.2900645">
  <ele>360.77</ele>
  <time>2026-09-01T20:01:13Z</time>
  <course>188.29</course>
  <speed>0.15</speed>
  <fix>3d</fix>
</trkpt>
<trkpt lat="-27.2744379" lon="151.2900645">
  <ele>361.66</ele>
  <time>2026-09-01T20:01:13Z</time>
  <course>10.74</course>
  <speed>0.140356688476182</speed>
  <fix>3d</fix>
</trkpt>
<trkpt lat="-27.274438" lon="151.2900645">
  <ele>361.84</ele>
  <time>2026-09-01T20:01:13Z</time>
  <course>10.74</course>
  <speed>0.130384048104053</speed>
  <fix>3d</fix>
</trkpt>
<trkpt lat="-27.2744379" lon="151.2900645">
  <ele>361.27</ele>
  <time>2026-09-01T20:01:13Z</time>
  <course>189.45</course>
  <speed>0.14</speed>
  <fix>3d</fix>
</trkpt>
<trkpt lat="-27.2744381" lon="151.2900645">
  <ele>361.91</ele>
  <time>2026-09-01T20:01:13Z</time>
  <course>10.73</course>
  <speed>0.130384048104053</speed>
  <fix>3d</fix>
</trkpt>
<trkpt lat="-27.2744382" lon="151.2900645">
  <ele>362.08</ele>
  <time>2026-09-01T20:01:13Z</time>
  <course>10.7</course>
  <speed>0.130384048104053</speed>
  <fix>3d</fix>
</trkpt>
<trkpt lat="-27.2744379" lon="151.2900645">
  <ele>361.27</ele>
  <time>2026-09-01T20:01:13Z</time>
  <course>189.45</course>
  <speed>0.14</speed>
  <fix>3d</fix>
</trkpt>
<trkpt lat="-27.2744382" lon="151.2900645">
  <ele>362.15</ele>
  <time>2026-09-01T20:01:13Z</time>
  <course>10.68</course>
  <speed>0.130384048104053</speed>
  <fix>3d</fix>
</trkpt>
<trkpt lat="-27.2744383" lon="151.2900645">
  <ele>362.34</ele>
  <time>2026-09-01T20:01:13Z</time>
  <course>10.61</course>
  <speed>0.12041594578792296</speed>
  <fix>3d</fix>
</trkpt>
<trkpt lat="-27.2744381" lon="151.2900644">
  <ele>361.77</ele>
  <time>2026-09-01T20:01:13Z</time>
  <course>190.75</course>
  <speed>0.13</speed>
  <fix>3d</fix>
</trkpt>
<trkpt lat="-27.2744383" lon="151.2900645">
  <ele>362.35</ele>
  <time>2026-09-01T20:01:13Z</time>
  <course>10.61</course>
  <speed>0.12041594578792296</speed>
  <fix>3d</fix>
</trkpt>
<trkpt lat="-27.2744384" lon="151.2900644">
  <ele>362.59</ele>
  <time>2026-09-01T20:01:13Z</time>
  <course>10.52</course>
  <speed>0.12</speed>
  <fix>3d</fix>
</trkpt>
<trkpt lat="-27.2744381" lon="151.2900644">
  <ele>361.77</ele>
  <time>2026-09-01T20:01:13Z</time>
  <course>190.75</course>
  <speed>0.13</speed>
  <fix>3d</fix>
</trkpt>
<trkpt lat="-27.2744384" lon="151.2900644">
  <ele>362.6</ele>
  <time>2026-09-01T20:01:13Z</time>
  <course>10.52</course>
  <speed>0.12</speed>
  <fix>3d</fix>
</trkpt>
<trkpt lat="-27.2744385" lon="151.2900644">
  <ele>362.84</ele>
  <time>2026-09-01T20:01:13Z</time>
  <course>10.45</course>
  <speed>0.11</speed>
  <fix>3d</fix>
</trkpt>
<trkpt lat="-27.2744384" lon="151.2900644">
  <ele>362.27</ele>
  <time>2026-09-01T20:01:13Z</time>
  <course>191.62</course>
  <speed>0.12</speed>
  <fix>3d</fix>
</trkpt>
<trkpt lat="-27.2744385" lon="151.2900644">
  <ele>362.9</ele>
  <time>2026-09-01T20:01:13Z</time>
  <course>10.43</course>
  <speed>0.11</speed>
  <fix>3d</fix>
</trkpt>
<trkpt lat="-27.2744386" lon="151.2900644">
  <ele>363.09</ele>
  <time>2026-09-01T20:01:13Z</time>
  <course>10.4</course>
  <speed>0.11</speed>
  <fix>3d</fix>
</trkpt>
<trkpt lat="-27.2744384" lon="151.2900644">
  <ele>362.27</ele>
  <time>2026-09-01T20:01:13Z</time>
  <course>191.62</course>
  <speed>0.12</speed>
  <fix>3d</fix>
</trkpt>
<trkpt lat="-27.2744386" lon="151.2900644">
  <ele>363.15</ele>
  <time>2026-09-01T20:01:13Z</time>
  <course>10.4</course>
  <speed>0.1</speed>
  <fix>3d</fix>
</trkpt>
<trkpt lat="-27.2744387" lon="151.2900644">
  <ele>363.33</ele>
  <time>2026-09-01T20:01:13Z</time>
  <course>10.38</course>
  <speed>0.1</speed>
  <fix>3d</fix>
</trkpt>
<trkpt lat="-27.2744385" lon="151.2900643">
  <ele>362.77</ele>
  <time>2026-09-01T20:01:13Z</time>
  <course>192.43</course>
  <speed>0.1</speed>
  <fix>3d</fix>
</trkpt>
<trkpt lat="-27.2744387" lon="151.2900644">
  <ele>363.41</ele>
  <time>2026-09-01T20:01:13Z</time>
  <course>10.37</course>
  <speed>0.1</speed>
  <fix>3d</fix>
</trkpt>
<trkpt lat="-27.2744388" lon="151.2900644">
  <ele>363.58</ele>
  <time>2026-09-01T20:01:13Z</time>
  <course>10.37</course>
  <speed>0.09</speed>
  <fix>3d</fix>
</trkpt>
<trkpt lat="-27.2744385" lon="151.2900643">
  <ele>362.77</ele>
  <time>2026-09-01T20:01:13Z</time>
  <course>192.43</course>
  <speed>0.1</speed>
  <fix>3d</fix>
</trkpt>
<trkpt lat="-27.2744388" lon="151.2900644">
  <ele>363.65</ele>
  <time>2026-09-01T20:01:13Z</time>
  <course>10.37</course>
  <speed>0.09</speed>
  <fix>3d</fix>
</trkpt>
<trkpt lat="-27.2744389" lon="151.2900644">
  <ele>363.83</ele>
  <time>2026-09-01T20:01:13Z</time>
  <course>10.36</course>
  <speed>0.09</speed>
  <fix>3d</fix>
</trkpt>
<trkpt lat="-27.2744387" lon="151.2900642">
  <ele>363.27</ele>
  <time>2026-09-01T20:01:13Z</time>
  <course>194.05</course>
  <speed>0.09</speed>
  <fix>3d</fix>
</trkpt>
<trkpt lat="-27.2744389" lon="151.2900644">
  <ele>363.9</ele>
  <time>2026-09-01T20:01:13Z</time>
  <course>10.36</course>
  <speed>0.09</speed>
  <fix>3d</fix>
</trkpt>
<trkpt lat="-27.2744389" lon="151.2900643">
  <ele>364.08</ele>
  <time>2026-09-01T20:01:13Z</time>
  <course>10.35</course>
  <speed>0.08</speed>
  <fix>3d</fix>
</trkpt>
<trkpt lat="-27.2744387" lon="151.2900642">
  <ele>363.27</ele>
  <time>2026-09-01T20:01:13Z</time>
  <course>194.05</course>
  <speed>0.09</speed>
  <fix>3d</fix>
</trkpt>
<trkpt lat="-27.2744389" lon="151.2900643">
  <ele>364.14</ele>
  <time>2026-09-01T20:01:13Z</time>
  <course>10.35</course>
  <speed>0.08</speed>
  <fix>3d</fix>
</trkpt>
<trkpt lat="-27.274439" lon="151.2900643">
  <ele>364.34</ele>
  <time>2026-09-01T20:01:13Z</time>
  <course>10.35</course>
  <speed>0.08</speed>
  <fix>3d</fix>
</trkpt>
<trkpt lat="-27.2744389" lon="151.2900642">
  <ele>363.77</ele>
  <time>2026-09-01T20:01:13Z</time>
  <course>196.31</course>
  <speed>0.08</speed>
  <fix>3d</fix>
</trkpt>
<trkpt lat="-27.274439" lon="151.2900643">
  <ele>364.34</ele>
  <time>2026-09-01T20:01:13Z</time>
  <course>10.35</course>
  <speed>0.08</speed>
  <fix>3d</fix>
</trkpt>
<trkpt lat="-27.2744391" lon="151.2900643">
  <ele>364.59</ele>
  <time>2026-09-01T20:01:13Z</time>
  <course>10.36</course>
  <speed>0.07</speed>
  <fix>3d</fix>
</trkpt>
<trkpt lat="-27.2744389" lon="151.2900642">
  <ele>363.77</ele>
  <time>2026-09-01T20:01:13Z</time>
  <course>196.31</course>
  <speed>0.08</speed>
  <fix>3d</fix>
</trkpt>
<trkpt lat="-27.2744391" lon="151.2900643">
  <ele>364.65</ele>
  <time>2026-09-01T20:01:13Z</time>
  <course>10.36</course>
  <speed>0.07</speed>
  <fix>3d</fix>
</trkpt>
<trkpt lat="-27.2744391" lon="151.2900643">
  <ele>364.84</ele>
  <time>2026-09-01T20:01:13Z</time>
  <course>10.36</course>
  <speed>0.07</speed>
  <fix>3d</fix>
</trkpt>
<trkpt lat="-27.274439" lon="151.2900642">
  <ele>364.27</ele>
  <time>2026-09-01T20:01:13Z</time>
  <course>199.14</course>
  <speed>0.07</speed>
  <fix>3d</fix>
</trkpt>
<trkpt lat="-27.2744391" lon="151.2900643">
  <ele>364.9</ele>
  <time>2026-09-01T20:01:13Z</time>
  <course>10.35</course>
  <speed>0.07</speed>
  <fix>3d</fix>
</trkpt>
<trkpt lat="-27.2744392" lon="151.2900643">
  <ele>365.09</ele>
  <time>2026-09-01T20:01:13Z</time>
  <course>10.35</course>
  <speed>0.06</speed>
  <fix>3d</fix>
</trkpt>
<trkpt lat="-27.274439" lon="151.2900642">
  <ele>364.27</ele>
  <time>2026-09-01T20:01:13Z</time>
  <course>199.14</course>
  <speed>0.07</speed>
  <fix>3d</fix>
</trkpt>
<trkpt lat="-27.2744392" lon="151.2900643">
  <ele>365.1</ele>
  <time>2026-09-01T20:01:13Z</time>
  <course>10.35</course>
  <speed>0.06</speed>
  <fix>3d</fix>
</trkpt>
<trkpt lat="-27.2744392" lon="151.2900642">
  <ele>365.34</ele>
  <time>2026-09-01T20:01:13Z</time>
  <course>10.34</course>
  <speed>0.06</speed>
  <fix>3d</fix>
</trkpt>
<trkpt lat="-27.2744391" lon="151.2900641">
  <ele>364.77</ele>
  <time>2026-09-01T20:01:13Z</time>
  <course>201.77</course>
  <speed>0.06</speed>
  <fix>3d</fix>
</trkpt>
<trkpt lat="-27.2744392" lon="151.2900642">
  <ele>365.35</ele>
  <time>2026-09-01T20:01:13Z</time>
  <course>10.34</course>
  <speed>0.06</speed>
  <fix>3d</fix>
</trkpt>
<trkpt lat="-27.2744393" lon="151.2900642">
  <ele>365.59</ele>
  <time>2026-09-01T20:01:13Z</time>
  <course>10.34</course>
  <speed>0.05</speed>
  <fix>3d</fix>
</trkpt>
<trkpt lat="-27.2744391" lon="151.2900641">
  <ele>364.77</ele>
  <time>2026-09-01T20:01:13Z</time>
  <course>201.77</course>
  <speed>0.06</speed>
  <fix>3d</fix>
</trkpt>
<trkpt lat="-27.2744393" lon="151.2900642">
  <ele>365.65</ele>
  <time>2026-09-01T20:01:13Z</time>
  <course>10.34</course>
  <speed>0.05</speed>
  <fix>3d</fix>
</trkpt>
<trkpt lat="-27.2744393" lon="151.2900642">
  <ele>365.84</ele>
  <time>2026-09-01T20:01:13Z</time>
  <course>10.35</course>
  <speed>0.05</speed>
  <fix>3d</fix>
</trkpt>
<trkpt lat="-27.2744392" lon="151.2900641">
  <ele>365.27</ele>
  <time>2026-09-01T20:01:13Z</time>
  <course>204.65</course>
  <speed>0.05</speed>
  <fix>3d</fix>
</trkpt>
<trkpt lat="-27.2744393" lon="151.2900642">
  <ele>365.9</ele>
  <time>2026-09-01T20:01:13Z</time>
  <course>10.35</course>
  <speed>0.05</speed>
  <fix>3d</fix>
</trkpt>
<trkpt lat="-27.2744393" lon="151.2900642">
  <ele>366.09</ele>
  <time>2026-09-01T20:01:13Z</time>
  <course>10.37</course>
  <speed>0.04</speed>
  <fix>3d</fix>
</trkpt>
<trkpt lat="-27.2744392" lon="151.2900641">
  <ele>365.27</ele>
  <time>2026-09-01T20:01:13Z</time>
  <course>204.65</course>
  <speed>0.05</speed>
  <fix>3d</fix>
</trkpt>
<trkpt lat="-27.2744394" lon="151.2900642">
  <ele>366.17</ele>
  <time>2026-09-01T20:01:13Z</time>
  <course>10.37</course>
  <speed>0.04</speed>
  <fix>3d</fix>
</trkpt>
<trkpt lat="-27.2744394" lon="151.2900642">
  <ele>366.34</ele>
  <time>2026-09-01T20:01:13Z</time>
  <course>10.38</course>
  <speed>0.04</speed>
  <fix>3d</fix>
</trkpt>
<trkpt lat="-27.2744393" lon="151.2900641">
  <ele>365.77</ele>
  <time>2026-09-01T20:01:13Z</time>
  <course>208.81</course>
  <speed>0.04</speed>
  <fix>3d</fix>
</trkpt>
<trkpt lat="-27.2744394" lon="151.2900642">
  <ele>366.41</ele>
  <time>2026-09-01T20:01:13Z</time>
  <course>10.38</course>
  <speed>0.04</speed>
  <fix>3d</fix>
</trkpt>
<trkpt lat="-27.2744394" lon="151.2900642">
  <ele>366.59</ele>
  <time>2026-09-01T20:01:13Z</time>
  <course>10.38</course>
  <speed>0.04</speed>
  <fix>3d</fix>
</trkpt>
<trkpt lat="-27.2744393" lon="151.2900641">
  <ele>365.77</ele>
  <time>2026-09-01T20:01:13Z</time>
  <course>208.81</course>
  <speed>0.04</speed>
  <fix>3d</fix>
</trkpt>
<trkpt lat="-27.2744394" lon="151.2900642">
  <ele>366.66</ele>
  <time>2026-09-01T20:01:13Z</time>
  <course>10.38</course>
  <speed>0.04</speed>
  <fix>3d</fix>
</trkpt>
<trkpt lat="-27.2744394" lon="151.2900642">
  <ele>366.84</ele>
  <time>2026-09-01T20:01:13Z</time>
  <course>10.39</course>
  <speed>0.03</speed>
  <fix>3d</fix>
</trkpt>
<trkpt lat="-27.2744394" lon="151.290064">
  <ele>366.27</ele>
  <time>2026-09-01T20:01:13Z</time>
  <course>214.32</course>
  <speed>0.03</speed>
  <fix>3d</fix>
</trkpt>
<trkpt lat="-27.2744394" lon="151.2900641">
  <ele>366.91</ele>
  <time>2026-09-01T20:01:13Z</time>
  <course>10.39</course>
  <speed>0.03</speed>
  <fix>3d</fix>
</trkpt>
<trkpt lat="-27.2744395" lon="151.2900641">
  <ele>367.09</ele>
  <time>2026-09-01T20:01:13Z</time>
  <course>10.4</course>
  <speed>0.03</speed>
  <fix>3d</fix>
</trkpt>
<trkpt lat="-27.2744394" lon="151.290064">
  <ele>366.27</ele>
  <time>2026-09-01T20:01:13Z</time>
  <course>214.32</course>
  <speed>0.03</speed>
  <fix>3d</fix>
</trkpt>
<trkpt lat="-27.2744395" lon="151.2900641">
  <ele>367.16</ele>
  <time>2026-09-01T20:01:13Z</time>
  <course>10.4</course>
  <speed>0.03</speed>
  <fix>3d</fix>
</trkpt>
<trkpt lat="-27.2744395" lon="151.2900641">
  <ele>367.34</ele>
  <time>2026-09-01T20:01:13Z</time>
  <course>10.4</course>
  <speed>0.03</speed>
  <fix>3d</fix>
</trkpt>
<trkpt lat="-27.2744394" lon="151.290064">
  <ele>366.77</ele>
  <time>2026-09-01T20:01:13Z</time>
  <course>223.66</course>
  <speed>0.02</speed>
  <fix>3d</fix>
</trkpt>
<trkpt lat="-27.2744395" lon="151.2900641">
  <ele>367.4</ele>
  <time>2026-09-01T20:01:13Z</time>
  <course>10.4</course>
  <speed>0.02</speed>
  <fix>3d</fix>
</trkpt>
<trkpt lat="-27.2744395" lon="151.2900641">
  <ele>367.58</ele>
  <time>2026-09-01T20:01:13Z</time>
  <course>10.4</course>
  <speed>0.02</speed>
  <fix>3d</fix>
</trkpt>
<trkpt lat="-27.2744394" lon="151.290064">
  <ele>366.77</ele>
  <time>2026-09-01T20:01:13Z</time>
  <course>223.66</course>
  <speed>0.02</speed>
  <fix>3d</fix>
</trkpt>
<trkpt lat="-27.2744395" lon="151.2900641">
  <ele>367.6</ele>
  <time>2026-09-01T20:01:13Z</time>
  <course>10.4</course>
  <speed>0.02</speed>
  <fix>3d</fix>
</trkpt>
<trkpt lat="-27.2744395" lon="151.2900641">
  <ele>367.83</ele>
  <time>2026-09-01T20:01:13Z</time>
  <course>10.39</course>
  <speed>0.02</speed>
  <fix>3d</fix>
</trkpt>
<trkpt lat="-27.2744395" lon="151.2900639">
  <ele>367.27</ele>
  <time>2026-09-01T20:01:13Z</time>
  <course>236.77</course>
  <speed>0.02</speed>
  <fix>3d</fix>
</trkpt>
<trkpt lat="-27.2744395" lon="151.2900641">
  <ele>367.84</ele>
  <time>2026-09-01T20:01:13Z</time>
  <course>10.39</course>
  <speed>0.02</speed>
  <fix>3d</fix>
</trkpt>
<trkpt lat="-27.2744395" lon="151.2900641">
  <ele>368.08</ele>
  <time>2026-09-01T20:01:13Z</time>
  <course>10.38</course>
  <speed>0.02</speed>
  <fix>3d</fix>
</trkpt>
<trkpt lat="-27.2744395" lon="151.2900639">
  <ele>367.27</ele>
  <time>2026-09-01T20:01:13Z</time>
  <course>236.77</course>
  <speed>0.02</speed>
  <fix>3d</fix>
</trkpt>
<trkpt lat="-27.2744395" lon="151.2900641">
  <ele>368.15</ele>
  <time>2026-09-01T20:01:13Z</time>
  <course>10.37</course>
  <speed>0.02</speed>
  <fix>3d</fix>
</trkpt>
<trkpt lat="-27.2744395" lon="151.290064">
  <ele>368.33</ele>
  <time>2026-09-01T20:01:13Z</time>
  <course>10.37</course>
  <speed>0.01</speed>
  <fix>3d</fix>
</trkpt>
<trkpt lat="-27.2744395" lon="151.2900639">
  <ele>367.77</ele>
  <time>2026-09-01T20:01:13Z</time>
  <course>251.45</course>
  <speed>0.02</speed>
  <fix>3d</fix>
</trkpt>
<trkpt lat="-27.2744395" lon="151.290064">
  <ele>368.41</ele>
  <time>2026-09-01T20:01:13Z</time>
  <course>10.37</course>
  <speed>0.01</speed>
  <fix>3d</fix>
</trkpt>
<trkpt lat="-27.2744395" lon="151.290064">
  <ele>368.58</ele>
  <time>2026-09-01T20:01:13Z</time>
  <course>10.37</course>
  <speed>0.01</speed>
  <fix>3d</fix>
</trkpt>
<trkpt lat="-27.2744395" lon="151.2900639">
  <ele>367.77</ele>
  <time>2026-09-01T20:01:13Z</time>
  <course>251.45</course>
  <speed>0.02</speed>
  <fix>3d</fix>
</trkpt>
<trkpt lat="-27.2744395" lon="151.290064">
  <ele>368.65</ele>
  <time>2026-09-01T20:01:13Z</time>
  <course>10.37</course>
  <speed>0.01</speed>
  <fix>3d</fix>
</trkpt>
<trkpt lat="-27.2744395" lon="151.290064">
  <ele>368.83</ele>
  <time>2026-09-01T20:01:13Z</time>
  <course>10.38</course>
  <speed>0.01</speed>
  <fix>3d</fix>
</trkpt>
<trkpt lat="-27.2744395" lon="151.2900639">
  <ele>368.28</ele>
  <time>2026-09-01T20:01:13Z</time>
  <course>269.96</course>
  <speed>0.01</speed>
  <fix>3d</fix>
</trkpt>
<trkpt lat="-27.2744395" lon="151.290064">
  <ele>368.9</ele>
  <time>2026-09-01T20:01:13Z</time>
  <course>10.39</course>
  <speed>0.01</speed>
  <fix>3d</fix>
</trkpt>
<trkpt lat="-27.2744395" lon="151.290064">
  <ele>369.08</ele>
  <time>2026-09-01T20:01:13Z</time>
  <course>10.4</course>
  <speed>0.0</speed>
  <fix>3d</fix>
</trkpt>
<trkpt lat="-27.2744395" lon="151.2900639">
  <ele>368.28</ele>
  <time>2026-09-01T20:01:13Z</time>
  <course>269.96</course>
  <speed>0.01</speed>
  <fix>3d</fix>
</trkpt>
<trkpt lat="-27.2744395" lon="151.290064">
  <ele>369.15</ele>
  <time>2026-09-01T20:01:13Z</time>
  <course>10.4</course>
  <speed>0.0</speed>
  <fix>3d</fix>
</trkpt>
<trkpt lat="-27.2744395" lon="151.290064">
  <ele>369.34</ele>
  <time>2026-09-01T20:01:13Z</time>
  <course>10.41</course>
  <speed>0.0</speed>
  <fix>3d</fix>
</trkpt>
<trkpt lat="-27.2744395" lon="151.2900638">
  <ele>368.78</ele>
  <time>2026-09-01T20:01:13Z</time>
  <course>291.23</course>
  <speed>0.01</speed>
  <fix>3d</fix>
</trkpt>
<trkpt lat="-27.2744395" lon="151.290064">
  <ele>369.41</ele>
  <time>2026-09-01T20:01:13Z</time>
  <course>10.42</course>
  <speed>0.0</speed>
  <fix>3d</fix>
</trkpt>
<trkpt lat="-27.2744395" lon="151.290064">
  <ele>369.59</ele>
  <time>2026-09-01T20:01:13Z</time>
  <course>10.43</course>
  <speed>0.0</speed>
  <fix>3d</fix>
</trkpt>
<trkpt lat="-27.2744395" lon="151.2900638">
  <ele>368.78</ele>
  <time>2026-09-01T20:01:13Z</time>
  <course>291.23</course>
  <speed>0.01</speed>
  <fix>3d</fix>
</trkpt>
<trkpt lat="-27.2744395" lon="151.290064">
  <ele>369.66</ele>
  <time>2026-09-01T20:01:13Z</time>
  <course>10.44</course>
  <speed>0.0</speed>
  <fix>3d</fix>
</trkpt>
<trkpt lat="-27.2744395" lon="151.2900639">
  <ele>369.84</ele>
  <time>2026-09-01T20:01:13Z</time>
  <course>10.45</course>
  <speed>0.0</speed>
  <fix>3d</fix>
</trkpt>
<trkpt lat="-27.2744395" lon="151.2900637">
  <ele>369.28</ele>
  <time>2026-09-01T20:01:13Z</time>
  <course>310.24</course>
  <speed>0.01</speed>
  <fix>3d</fix>
</trkpt>
<trkpt lat="-27.2744395" lon="151.2900639">
  <ele>369.92</ele>
  <time>2026-09-01T20:01:13Z</time>
  <course>10.46</course>
  <speed>0.0</speed>
  <fix>3d</fix>
</trkpt>
<trkpt lat="-27.2744395" lon="151.2900639">
  <ele>370.09</ele>
  <time>2026-09-01T20:01:13Z</time>
  <course>10.47</course>
  <speed>0.0</speed>
  <fix>3d</fix>
</trkpt>
<trkpt lat="-27.2744395" lon="151.2900637">
  <ele>369.28</ele>
  <time>2026-09-01T20:01:13Z</time>
  <course>310.24</course>
  <speed>0.01</speed>
  <fix>3d</fix>
</trkpt>
<trkpt lat="-27.2744395" lon="151.2900639">
  <ele>370.16</ele>
  <time>2026-09-01T20:01:13Z</time>
  <course>10.47</course>
  <speed>0.0</speed>
  <fix>3d</fix>
</trkpt>
<trkpt lat="-27.2744395" lon="151.2900639">
  <ele>370.34</ele>
  <time>2026-09-01T20:01:13Z</time>
  <course>10.48</course>
  <speed>0.0</speed>
  <fix>3d</fix>
</trkpt>
<trkpt lat="-27.2744395" lon="151.2900637">
  <ele>369.78</ele>
  <time>2026-09-01T20:01:13Z</time>
  <course>323.99</course>
  <speed>0.02</speed>
  <fix>3d</fix>
</trkpt>
<trkpt lat="-27.2744395" lon="151.2900639">
  <ele>370.35</ele>
  <time>2026-09-01T20:01:13Z</time>
  <course>10.48</course>
  <speed>0.0</speed>
  <fix>3d</fix>
</trkpt>
<trkpt lat="-27.2744395" lon="151.2900639">
  <ele>370.6</ele>
  <time>2026-09-01T20:01:13Z</time>
  <course>10.5</course>
  <speed>0.0</speed>
  <fix>3d</fix>
</trkpt>
<trkpt lat="-27.2744395" lon="151.2900637">
  <ele>369.78</ele>
  <time>2026-09-01T20:01:13Z</time>
  <course>323.99</course>
  <speed>0.02</speed>
  <fix>3d</fix>
</trkpt>
<trkpt lat="-27.2744395" lon="151.2900639">
  <ele>370.6</ele>
  <time>2026-09-01T20:01:13Z</time>
  <course>10.5</course>
  <speed>0.0</speed>
  <fix>3d</fix>
</trkpt>
<trkpt lat="-27.2744395" lon="151.2900639">
  <ele>370.85</ele>
  <time>2026-09-01T20:01:13Z</time>
  <course>10.52</course>
  <speed>0.0</speed>
  <fix>3d</fix>
</trkpt>
<trkpt lat="-27.2744395" lon="151.2900637">
  <ele>370.28</ele>
  <time>2026-09-01T20:01:13Z</time>
  <course>333.48</course>
  <speed>0.02</speed>
  <fix>3d</fix>
</trkpt>
<trkpt lat="-27.2744395" lon="151.2900639">
  <ele>370.92</ele>
  <time>2026-09-01T20:01:13Z</time>
  <course>10.52</course>
  <speed>0.0</speed>
  <fix>3d</fix>
</trkpt>
<trkpt lat="-27.2744395" lon="151.2900639">
  <ele>371.1</ele>
  <time>2026-09-01T20:01:13Z</time>
  <course>10.54</course>
  <speed>0.0</speed>
  <fix>3d</fix>
</trkpt>
<trkpt lat="-27.2744395" lon="151.2900637">
  <ele>370.28</ele>
  <time>2026-09-01T20:01:13Z</time>
  <course>333.48</course>
  <speed>0.02</speed>
  <fix>3d</fix>
</trkpt>
<trkpt lat="-27.2744395" lon="151.2900639">
  <ele>371.16</ele>
  <time>2026-09-01T20:01:13Z</time>
  <course>10.54</course>
  <speed>0.0</speed>
  <fix>3d</fix>
</trkpt>
<trkpt lat="-27.2744395" lon="151.2900639">
  <ele>371.35</ele>
  <time>2026-09-01T20:01:13Z</time>
  <course>10.56</course>
  <speed>0.0</speed>
  <fix>3d</fix>
</trkpt>
<trkpt lat="-27.2744394" lon="151.2900637">
  <ele>370.78</ele>
  <time>2026-09-01T20:01:13Z</time>
  <course>339.04</course>
  <speed>0.02</speed>
  <fix>3d</fix>
</trkpt>
<trkpt lat="-27.2744395" lon="151.2900638">
  <ele>371.42</ele>
  <time>2026-09-01T20:01:13Z</time>
  <course>10.56</course>
  <speed>0.0</speed>
  <fix>3d</fix>
</trkpt>
<trkpt lat="-27.2744395" lon="151.2900638">
  <ele>371.59</ele>
  <time>2026-09-01T20:01:13Z</time>
  <course>10.57</course>
  <speed>0.0</speed>
  <fix>3d</fix>
</trkpt>
<trkpt lat="-27.2744394" lon="151.2900637">
  <ele>370.78</ele>
  <time>2026-09-01T20:01:13Z</time>
  <course>339.04</course>
  <speed>0.02</speed>
  <fix>3d</fix>
</trkpt>
<trkpt lat="-27.2744395" lon="151.2900638">
  <ele>371.6</ele>
  <time>2026-09-01T20:01:13Z</time>
  <course>10.57</course>
  <speed>0.0</speed>
  <fix>3d</fix>
</trkpt>
<trkpt lat="-27.2744395" lon="151.2900638">
  <ele>371.84</ele>
  <time>2026-09-01T20:01:13Z</time>
  <course>10.58</course>
  <speed>0.0</speed>
  <fix>3d</fix>
</trkpt>
<trkpt lat="-27.2744394" lon="151.2900637">
  <ele>371.28</ele>
  <time>2026-09-01T20:01:13Z</time>
  <course>341.46</course>
  <speed>0.02</speed>
  <fix>3d</fix>
</trkpt>
<trkpt lat="-27.2744395" lon="151.2900638">
  <ele>371.91</ele>
  <time>2026-09-01T20:01:13Z</time>
  <course>10.58</course>
  <speed>0.0</speed>
  <fix>3d</fix>
</trkpt>
<trkpt lat="-27.2744395" lon="151.2900638">
  <ele>372.09</ele>
  <time>2026-09-01T20:01:13Z</time>
  <course>10.58</course>
  <speed>0.0</speed>
  <fix>3d</fix>
</trkpt>
<trkpt lat="-27.2744394" lon="151.2900637">
  <ele>371.28</ele>
  <time>2026-09-01T20:01:13Z</time>
  <course>341.46</course>
  <speed>0.02</speed>
  <fix>3d</fix>
</trkpt>
<trkpt lat="-27.2744395" lon="151.2900638">
  <ele>372.15</ele>
  <time>2026-09-01T20:01:13Z</time>
  <course>10.58</course>
  <speed>0.0</speed>
  <fix>3d</fix>
</trkpt>
<trkpt lat="-27.2744395" lon="151.2900638">
  <ele>372.34</ele>
  <time>2026-09-01T20:01:13Z</time>
  <course>10.58</course>
  <speed>0.0</speed>
  <fix>3d</fix>
</trkpt>
<trkpt lat="-27.2744394" lon="151.2900637">
  <ele>371.78</ele>
  <time>2026-09-01T20:01:13Z</time>
  <course>343.26</course>
  <speed>0.02</speed>
  <fix>3d</fix>
</trkpt>
<trkpt lat="-27.2744394" lon="151.2900638">
  <ele>372.41</ele>
  <time>2026-09-01T20:01:13Z</time>
  <course>10.58</course>
  <speed>0.0</speed>
  <fix>3d</fix>
</trkpt>
<trkpt lat="-27.2744394" lon="151.2900638">
  <ele>372.58</ele>
  <time>2026-09-01T20:01:13Z</time>
  <course>10.57</course>
  <speed>0.0</speed>
  <fix>3d</fix>
</trkpt>
<trkpt lat="-27.2744394" lon="151.2900637">
  <ele>371.78</ele>
  <time>2026-09-01T20:01:13Z</time>
  <course>343.26</course>
  <speed>0.02</speed>
  <fix>3d</fix>
</trkpt>
<trkpt lat="-27.2744394" lon="151.2900638">
  <ele>372.65</ele>
  <time>2026-09-01T20:01:13Z</time>
  <course>10.57</course>
  <speed>0.0</speed>
  <fix>3d</fix>
</trkpt>
<trkpt lat="-27.2744394" lon="151.2900638">
  <ele>372.83</ele>
  <time>2026-09-01T20:01:13Z</time>
  <course>10.57</course>
  <speed>0.0</speed>
  <fix>3d</fix>
</trkpt>
<trkpt lat="-27.2744393" lon="151.2900637">
  <ele>372.28</ele>
  <time>2026-09-01T20:01:13Z</time>
  <course>347.61</course>
  <speed>0.02</speed>
  <fix>3d</fix>
</trkpt>
<trkpt lat="-27.2744394" lon="151.2900638">
  <ele>372.89</ele>
  <time>2026-09-01T20:01:13Z</time>
  <course>10.57</course>
  <speed>0.0</speed>
  <fix>3d</fix>
</trkpt>
<trkpt lat="-27.2744394" lon="151.2900638">
  <ele>373.07</ele>
  <time>2026-09-01T20:01:13Z</time>
  <course>10.57</course>
  <speed>0.0</speed>
  <fix>3d</fix>
</trkpt>
<trkpt lat="-27.2744393" lon="151.2900637">
  <ele>372.28</ele>
  <time>2026-09-01T20:01:13Z</time>
  <course>347.61</course>
  <speed>0.02</speed>
  <fix>3d</fix>
</trkpt>
<trkpt lat="-27.2744394" lon="151.2900638">
  <ele>373.08</ele>
  <time>2026-09-01T20:01:13Z</time>
  <course>10.57</course>
  <speed>0.0</speed>
  <fix>3d</fix>
</trkpt>
<trkpt lat="-27.2744394" lon="151.2900638">
  <ele>373.32</ele>
  <time>2026-09-01T20:01:13Z</time>
  <course>10.6</course>
  <speed>0.0</speed>
  <fix>3d</fix>
</trkpt>
<trkpt lat="-27.2744393" lon="151.2900637">
  <ele>372.78</ele>
  <time>2026-09-01T20:01:13Z</time>
  <course>354.51</course>
  <speed>0.02</speed>
  <fix>3d</fix>
</trkpt>
<trkpt lat="-27.2744394" lon="151.2900638">
  <ele>373.33</ele>
  <time>2026-09-01T20:01:13Z</time>
  <course>10.6</course>
  <speed>0.0</speed>
  <fix>3d</fix>
</trkpt>
<trkpt lat="-27.2744394" lon="151.2900638">
  <ele>373.57</ele>
  <time>2026-09-01T20:01:13Z</time>
  <course>10.63</course>
  <speed>0.0</speed>
  <fix>3d</fix>
</trkpt>
<trkpt lat="-27.2744393" lon="151.2900637">
  <ele>372.78</ele>
  <time>2026-09-01T20:01:13Z</time>
  <course>354.51</course>
  <speed>0.02</speed>
  <fix>3d</fix>
</trkpt>
<trkpt lat="-27.2744394" lon="151.2900638">
  <ele>373.63</ele>
  <time>2026-09-01T20:01:13Z</time>
  <course>10.64</course>
  <speed>0.0</speed>
  <fix>3d</fix>
</trkpt>
<trkpt lat="-27.2744393" lon="151.2900638">
  <ele>373.82</ele>
  <time>2026-09-01T20:01:13Z</time>
  <course>10.66</course>
  <speed>0.0</speed>
  <fix>3d</fix>
</trkpt>
<trkpt lat="-27.2744392" lon="151.2900637">
  <ele>373.28</ele>
  <time>2026-09-01T20:01:13Z</time>
  <course>359.16</course>
  <speed>0.02</speed>
  <fix>3d</fix>
</trkpt>
<trkpt lat="-27.2744393" lon="151.2900638">
  <ele>373.89</ele>
  <time>2026-09-01T20:01:13Z</time>
  <course>10.67</course>
  <speed>0.0</speed>
  <fix>3d</fix>
</trkpt>
<trkpt lat="-27.2744393" lon="151.2900638">
  <ele>374.07</ele>
  <time>2026-09-01T20:01:13Z</time>
  <course>10.69</course>
  <speed>0.0</speed>
  <fix>3d</fix>
</trkpt>
<trkpt lat="-27.2744392" lon="151.2900637">
  <ele>373.28</ele>
  <time>2026-09-01T20:01:13Z</time>
  <course>359.16</course>
  <speed>0.02</speed>
  <fix>3d</fix>
</trkpt>
<trkpt lat="-27.2744393" lon="151.2900638">
  <ele>374.14</ele>
  <time>2026-09-01T20:01:13Z</time>
  <course>10.7</course>
  <speed>0.0</speed>
  <fix>3d</fix>
</trkpt>
<trkpt lat="-27.2744393" lon="151.2900638">
  <ele>374.32</ele>
  <time>2026-09-01T20:01:13Z</time>
  <course>10.71</course>
  <speed>0.0</speed>
  <fix>3d</fix>
</trkpt>
<trkpt lat="-27.2744392" lon="151.2900637">
  <ele>373.78</ele>
  <time>2026-09-01T20:01:13Z</time>
  <course>359.79</course>
  <speed>0.02</speed>
  <fix>3d</fix>
</trkpt>
<trkpt lat="-27.2744393" lon="151.2900638">
  <ele>374.39</ele>
  <time>2026-09-01T20:01:13Z</time>
  <course>10.72</course>
  <speed>0.0</speed>
  <fix>3d</fix>
</trkpt>
<trkpt lat="-27.2744393" lon="151.2900638">
  <ele>374.57</ele>
  <time>2026-09-01T20:01:13Z</time>
  <course>10.72</course>
  <speed>0.0</speed>
  <fix>3d</fix>
</trkpt>
<trkpt lat="-27.2744392" lon="151.2900637">
  <ele>373.78</ele>
  <time>2026-09-01T20:01:13Z</time>
  <course>359.79</course>
  <speed>0.02</speed>
  <fix>3d</fix>
</trkpt>
<trkpt lat="-27.2744393" lon="151.2900638">
  <ele>374.64</ele>
  <time>2026-09-01T20:01:13Z</time>
  <course>10.72</course>
  <speed>0.0</speed>
  <fix>3d</fix>
</trkpt>
<trkpt lat="-27.2744392" lon="151.2900638">
  <ele>374.82</ele>
  <time>2026-09-01T20:01:13Z</time>
  <course>10.73</course>
  <speed>0.0</speed>
  <fix>3d</fix>
</trkpt>
<trkpt lat="-27.2744391" lon="151.2900637">
  <ele>374.28</ele>
  <time>2026-09-01T20:01:13Z</time>
  <course>359.46</course>
  <speed>0.02</speed>
  <fix>3d</fix>
</trkpt>
<trkpt lat="-27.2744392" lon="151.2900638">
  <ele>374.89</ele>
  <time>2026-09-01T20:01:13Z</time>
  <course>10.73</course>
  <speed>0.0</speed>
  <fix>3d</fix>
</trkpt>
<trkpt lat="-27.2744392" lon="151.2900638">
  <ele>375.07</ele>
  <time>2026-09-01T20:01:13Z</time>
  <course>10.72</course>
  <speed>0.01</speed>
  <fix>3d</fix>
</trkpt>
<trkpt lat="-27.2744391" lon="151.2900637">
  <ele>374.28</ele>
  <time>2026-09-01T20:01:13Z</time>
  <course>359.46</course>
  <speed>0.02</speed>
  <fix>3d</fix>
</trkpt>
<trkpt lat="-27.2744392" lon="151.2900638">
  <ele>375.08</ele>
  <time>2026-09-01T20:01:13Z</time>
  <course>10.72</course>
  <speed>0.01</speed>
  <fix>3d</fix>
</trkpt>
<trkpt lat="-27.2744392" lon="151.2900638">
  <ele>375.32</ele>
  <time>2026-09-01T20:01:13Z</time>
  <course>10.72</course>
  <speed>0.01</speed>
  <fix>3d</fix>
</trkpt>
<trkpt lat="-27.2744391" lon="151.2900637">
  <ele>374.79</ele>
  <time>2026-09-01T20:01:13Z</time>
  <course>1.13</course>
  <speed>0.02</speed>
  <fix>3d</fix>
</trkpt>
<trkpt lat="-27.2744392" lon="151.2900638">
  <ele>375.4</ele>
  <time>2026-09-01T20:01:13Z</time>
  <course>10.72</course>
  <speed>0.01</speed>
  <fix>3d</fix>
</trkpt>
<trkpt lat="-27.2744392" lon="151.2900638">
  <ele>375.58</ele>
  <time>2026-09-01T20:01:13Z</time>
  <course>10.72</course>
  <speed>0.01</speed>
  <fix>3d</fix>
</trkpt>
<trkpt lat="-27.2744391" lon="151.2900637">
  <ele>374.79</ele>
  <time>2026-09-01T20:01:13Z</time>
  <course>1.13</course>
  <speed>0.02</speed>
  <fix>3d</fix>
</trkpt>
<trkpt lat="-27.2744392" lon="151.2900638">
  <ele>375.64</ele>
  <time>2026-09-01T20:01:13Z</time>
  <course>10.72</course>
  <speed>0.01</speed>
  <fix>3d</fix>
</trkpt>
<trkpt lat="-27.2744391" lon="151.2900638">
  <ele>375.83</ele>
  <time>2026-09-01T20:01:13Z</time>
  <course>10.71</course>
  <speed>0.01</speed>
  <fix>3d</fix>
</trkpt>
<trkpt lat="-27.274439" lon="151.2900637">
  <ele>375.29</ele>
  <time>2026-09-01T20:01:13Z</time>
  <course>5.08</course>
  <speed>0.02</speed>
  <fix>3d</fix>
</trkpt>
<trkpt lat="-27.2744391" lon="151.2900638">
  <ele>375.84</ele>
  <time>2026-09-01T20:01:13Z</time>
  <course>10.71</course>
  <speed>0.01</speed>
  <fix>3d</fix>
</trkpt>
<trkpt lat="-27.2744391" lon="151.2900638">
  <ele>376.08</ele>
  <time>2026-09-01T20:01:13Z</time>
  <course>10.71</course>
  <speed>0.01</speed>
  <fix>3d</fix>
</trkpt>
<trkpt lat="-27.274439" lon="151.2900637">
  <ele>375.29</ele>
  <time>2026-09-01T20:01:13Z</time>
  <course>5.08</course>
  <speed>0.02</speed>
  <fix>3d</fix>
</trkpt>
<trkpt lat="-27.2744391" lon="151.2900638">
  <ele>376.09</ele>
  <time>2026-09-01T20:01:13Z</time>
  <course>10.71</course>
  <speed>0.01</speed>
  <fix>3d</fix>
</trkpt>
<trkpt lat="-27.2744391" lon="151.2900638">
  <ele>376.34</ele>
  <time>2026-09-01T20:01:13Z</time>
  <course>10.73</course>
  <speed>0.01</speed>
  <fix>3d</fix>
</trkpt>
<trkpt lat="-27.274439" lon="151.2900637">
  <ele>375.79</ele>
  <time>2026-09-01T20:01:13Z</time>
  <course>8.06</course>
  <speed>0.02</speed>
  <fix>3d</fix>
</trkpt>
<trkpt lat="-27.2744391" lon="151.2900638">
  <ele>376.4</ele>
  <time>2026-09-01T20:01:13Z</time>
  <course>10.73</course>
  <speed>0.01</speed>
  <fix>3d</fix>
</trkpt>
<trkpt lat="-27.2744391" lon="151.2900638">
  <ele>376.59</ele>
  <time>2026-09-01T20:01:13Z</time>
  <course>10.74</course>
  <speed>0.0</speed>
  <fix>3d</fix>
</trkpt>
<trkpt lat="-27.274439" lon="151.2900637">
  <ele>375.79</ele>
  <time>2026-09-01T20:01:13Z</time>
  <course>8.06</course>
  <speed>0.02</speed>
  <fix>3d</fix>
</trkpt>
<trkpt lat="-27.2744391" lon="151.2900638">
  <ele>376.65</ele>
  <time>2026-09-01T20:01:13Z</time>
  <course>10.75</course>
  <speed>0.0</speed>
  <fix>3d</fix>
</trkpt>
<trkpt lat="-27.2744391" lon="151.2900638">
  <ele>376.84</ele>
  <time>2026-09-01T20:01:13Z</time>
  <course>10.76</course>
  <speed>0.0</speed>
  <fix>3d</fix>
</trkpt>
<trkpt lat="-27.2744389" lon="151.2900637">
  <ele>376.3</ele>
  <time>2026-09-01T20:01:13Z</time>
  <course>9.01</course>
  <speed>0.02</speed>
  <fix>3d</fix>
</trkpt>
<trkpt lat="-27.274439" lon="151.2900638">
  <ele>376.91</ele>
  <time>2026-09-01T20:01:13Z</time>
  <course>10.76</course>
  <speed>0.0</speed>
  <fix>3d</fix>
</trkpt>
<trkpt lat="-27.274439" lon="151.2900638">
  <ele>377.09</ele>
  <time>2026-09-01T20:01:13Z</time>
  <course>10.77</course>
  <speed>0.0</speed>
  <fix>3d</fix>
</trkpt>
<trkpt lat="-27.2744389" lon="151.2900637">
  <ele>376.3</ele>
  <time>2026-09-01T20:01:13Z</time>
  <course>9.01</course>
  <speed>0.02</speed>
  <fix>3d</fix>
</trkpt>
<trkpt lat="-27.274439" lon="151.2900638">
  <ele>377.21</ele>
  <time>2026-09-01T20:01:13Z</time>
  <course>10.77</course>
  <speed>0.0</speed>
  <fix>3d</fix>
</trkpt>
<trkpt lat="-27.274439" lon="151.2900638">
  <ele>377.34</ele>
  <time>2026-09-01T20:01:13Z</time>
  <course>10.77</course>
  <speed>0.0</speed>
  <fix>3d</fix>
</trkpt>
<trkpt lat="-27.2744389" lon="151.2900637">
  <ele>376.8</ele>
  <time>2026-09-01T20:01:13Z</time>
  <course>11.21</course>
  <speed>0.02</speed>
  <fix>3d</fix>
</trkpt>
<trkpt lat="-27.274439" lon="151.2900638">
  <ele>377.42</ele>
  <time>2026-09-01T20:01:13Z</time>
  <course>10.77</course>
  <speed>0.0</speed>
  <fix>3d</fix>
</trkpt>
<trkpt lat="-27.274439" lon="151.2900638">
  <ele>377.59</ele>
  <time>2026-09-01T20:01:13Z</time>
  <course>10.77</course>
  <speed>0.0</speed>
  <fix>3d</fix>
</trkpt>
<trkpt lat="-27.2744389" lon="151.2900637">
  <ele>376.8</ele>
  <time>2026-09-01T20:01:13Z</time>
  <course>11.21</course>
  <speed>0.02</speed>
  <fix>3d</fix>
</trkpt>
<trkpt lat="-27.274439" lon="151.2900638">
  <ele>377.66</ele>
  <time>2026-09-01T20:01:13Z</time>
  <course>10.77</course>
  <speed>0.0</speed>
  <fix>3d</fix>
</trkpt>
<trkpt lat="-27.274439" lon="151.2900638">
  <ele>377.84</ele>
  <time>2026-09-01T20:01:13Z</time>
  <course>10.78</course>
  <speed>0.0</speed>
  <fix>3d</fix>
</trkpt>
<trkpt lat="-27.2744388" lon="151.2900637">
  <ele>377.31</ele>
  <time>2026-09-01T20:01:13Z</time>
  <course>13.88</course>
  <speed>0.02</speed>
  <fix>3d</fix>
</trkpt>
<trkpt lat="-27.274439" lon="151.2900638">
  <ele>377.92</ele>
  <time>2026-09-01T20:01:13Z</time>
  <course>10.78</course>
  <speed>0.0</speed>
  <fix>3d</fix>
</trkpt>
<trkpt lat="-27.2744389" lon="151.2900638">
  <ele>378.09</ele>
  <time>2026-09-01T20:01:13Z</time>
  <course>10.79</course>
  <speed>0.0</speed>
  <fix>3d</fix>
</trkpt>
<trkpt lat="-27.2744388" lon="151.2900637">
  <ele>377.31</ele>
  <time>2026-09-01T20:01:13Z</time>
  <course>13.88</course>
  <speed>0.02</speed>
  <fix>3d</fix>
</trkpt>
<trkpt lat="-27.2744389" lon="151.2900638">
  <ele>378.16</ele>
  <time>2026-09-01T20:01:13Z</time>
  <course>10.79</course>
  <speed>0.0</speed>
  <fix>3d</fix>
</trkpt>
<trkpt lat="-27.2744389" lon="151.2900638">
  <ele>378.34</ele>
  <time>2026-09-01T20:01:13Z</time>
  <course>10.8</course>
  <speed>0.0</speed>
  <fix>3d</fix>
</trkpt>
<trkpt lat="-27.2744388" lon="151.2900637">
  <ele>377.81</ele>
  <time>2026-09-01T20:01:13Z</time>
  <course>14.5</course>
  <speed>0.02</speed>
  <fix>3d</fix>
</trkpt>
<trkpt lat="-27.2744389" lon="151.2900638">
  <ele>378.41</ele>
  <time>2026-09-01T20:01:13Z</time>
  <course>10.8</course>
  <speed>0.0</speed>
  <fix>3d</fix>
</trkpt>
<trkpt lat="-27.2744389" lon="151.2900638">
  <ele>378.59</ele>
  <time>2026-09-01T20:01:13Z</time>
  <course>10.79</course>
  <speed>0.0</speed>
  <fix>3d</fix>
</trkpt>
<trkpt lat="-27.2744388" lon="151.2900637">
  <ele>377.81</ele>
  <time>2026-09-01T20:01:13Z</time>
  <course>14.5</course>
  <speed>0.02</speed>
  <fix>3d</fix>
</trkpt>
<trkpt lat="-27.2744389" lon="151.2900638">
  <ele>378.6</ele>
  <time>2026-09-01T20:01:13Z</time>
  <course>10.79</course>
  <speed>0.0</speed>
  <fix>3d</fix>
</trkpt>
<trkpt lat="-27.2744389" lon="151.2900638">
  <ele>378.84</ele>
  <time>2026-09-01T20:01:13Z</time>
  <course>10.78</course>
  <speed>0.0</speed>
  <fix>3d</fix>
</trkpt>
<trkpt lat="-27.2744387" lon="151.2900637">
  <ele>378.31</ele>
  <time>2026-09-01T20:01:13Z</time>
  <course>14.84</course>
  <speed>0.01</speed>
  <fix>3d</fix>
</trkpt>
<trkpt lat="-27.2744389" lon="151.2900638">
  <ele>378.85</ele>
  <time>2026-09-01T20:01:13Z</time>
  <course>10.78</course>
  <speed>0.0</speed>
  <fix>3d</fix>
</trkpt>
<trkpt lat="-27.2744389" lon="151.2900638">
  <ele>379.1</ele>
  <time>2026-09-01T20:01:13Z</time>
  <course>10.76</course>
  <speed>0.0</speed>
  <fix>3d</fix>
</trkpt>
<trkpt lat="-27.2744387" lon="151.2900637">
  <ele>378.31</ele>
  <time>2026-09-01T20:01:13Z</time>
  <course>14.84</course>
  <speed>0.01</speed>
  <fix>3d</fix>
</trkpt>
<trkpt lat="-27.2744389" lon="151.2900638">
  <ele>379.16</ele>
  <time>2026-09-01T20:01:13Z</time>
  <course>10.76</course>
  <speed>0.0</speed>
  <fix>3d</fix>
</trkpt>
<trkpt lat="-27.2744389" lon="151.2900638">
  <ele>379.35</ele>
  <time>2026-09-01T20:01:13Z</time>
  <course>10.75</course>
  <speed>0.0</speed>
  <fix>3d</fix>
</trkpt>
<trkpt lat="-27.2744387" lon="151.2900637">
  <ele>378.81</ele>
  <time>2026-09-01T20:01:13Z</time>
  <course>17.81</course>
  <speed>0.01</speed>
  <fix>3d</fix>
</trkpt>
<trkpt lat="-27.2744389" lon="151.2900638">
  <ele>379.42</ele>
  <time>2026-09-01T20:01:13Z</time>
  <course>10.75</course>
  <speed>0.0</speed>
  <fix>3d</fix>
</trkpt>
<trkpt lat="-27.2744388" lon="151.2900638">
  <ele>379.61</ele>
  <time>2026-09-01T20:01:13Z</time>
  <course>10.76</course>
  <speed>0.0</speed>
  <fix>3d</fix>
</trkpt>
<trkpt lat="-27.2744387" lon="151.2900637">
  <ele>378.81</ele>
  <time>2026-09-01T20:01:13Z</time>
  <course>17.81</course>
  <speed>0.01</speed>
  <fix>3d</fix>
</trkpt>
<trkpt lat="-27.2744388" lon="151.2900638">
  <ele>379.61</ele>
  <time>2026-09-01T20:01:13Z</time>
  <course>10.76</course>
  <speed>0.0</speed>
  <fix>3d</fix>
</trkpt>
<trkpt lat="-27.2744388" lon="151.2900638">
  <ele>379.85</ele>
  <time>2026-09-01T20:01:13Z</time>
  <course>10.77</course>
  <speed>0.0</speed>
  <fix>3d</fix>
</trkpt>
<trkpt lat="-27.2744387" lon="151.2900637">
  <ele>379.31</ele>
  <time>2026-09-01T20:01:13Z</time>
  <course>24.1</course>
  <speed>0.01</speed>
  <fix>3d</fix>
</trkpt>
<trkpt lat="-27.2744388" lon="151.2900638">
  <ele>379.86</ele>
  <time>2026-09-01T20:01:13Z</time>
  <course>10.77</course>
  <speed>0.0</speed>
  <fix>3d</fix>
</trkpt>
<trkpt lat="-27.2744388" lon="151.2900638">
  <ele>380.1</ele>
  <time>2026-09-01T20:01:13Z</time>
  <course>10.78</course>
  <speed>0.0</speed>
  <fix>3d</fix>
</trkpt>
<trkpt lat="-27.2744387" lon="151.2900637">
  <ele>379.31</ele>
  <time>2026-09-01T20:01:13Z</time>
  <course>24.1</course>
  <speed>0.01</speed>
  <fix>3d</fix>
</trkpt>
<trkpt lat="-27.2744388" lon="151.2900638">
  <ele>380.17</ele>
  <time>2026-09-01T20:01:13Z</time>
  <course>10.78</course>
  <speed>0.0</speed>
  <fix>3d</fix>
</trkpt>
<trkpt lat="-27.2744388" lon="151.2900638">
  <ele>380.36</ele>
  <time>2026-09-01T20:01:13Z</time>
  <course>10.79</course>
  <speed>0.0</speed>
  <fix>3d</fix>
</trkpt>
<trkpt lat="-27.2744387" lon="151.2900637">
  <ele>379.81</ele>
  <time>2026-09-01T20:01:13Z</time>
  <course>31.89</course>
  <speed>0.01</speed>
  <fix>3d</fix>
</trkpt>
<trkpt lat="-27.2744388" lon="151.2900638">
  <ele>380.43</ele>
  <time>2026-09-01T20:01:13Z</time>
  <course>10.79</course>
  <speed>0.0</speed>
  <fix>3d</fix>
</trkpt>
<trkpt lat="-27.2744388" lon="151.2900638">
  <ele>380.61</ele>
  <time>2026-09-01T20:01:13Z</time>
  <course>10.79</course>
  <speed>0.0</speed>
  <fix>3d</fix>
</trkpt>
<trkpt lat="-27.2744387" lon="151.2900637">
  <ele>379.81</ele>
  <time>2026-09-01T20:01:13Z</time>
  <course>31.89</course>
  <speed>0.01</speed>
  <fix>3d</fix>
</trkpt>
<trkpt lat="-27.2744388" lon="151.2900638">
  <ele>380.68</ele>
  <time>2026-09-01T20:01:13Z</time>
  <course>10.79</course>
  <speed>0.0</speed>
  <fix>3d</fix>
</trkpt>
<trkpt lat="-27.2744388" lon="151.2900638">
  <ele>380.86</ele>
  <time>2026-09-01T20:01:13Z</time>
  <course>10.79</course>
  <speed>0.0</speed>
  <fix>3d</fix>
</trkpt>
<trkpt lat="-27.2744387" lon="151.2900637">
  <ele>380.31</ele>
  <time>2026-09-01T20:01:13Z</time>
  <course>42.47</course>
  <speed>0.01</speed>
  <fix>3d</fix>
</trkpt>
<trkpt lat="-27.2744388" lon="151.2900638">
  <ele>380.94</ele>
  <time>2026-09-01T20:01:13Z</time>
  <course>10.79</course>
  <speed>0.0</speed>
  <fix>3d</fix>
</trkpt>
<trkpt lat="-27.2744388" lon="151.2900638">
  <ele>381.1</ele>
  <time>2026-09-01T20:01:13Z</time>
  <course>10.79</course>
  <speed>0.0</speed>
  <fix>3d</fix>
</trkpt>
<trkpt lat="-27.2744387" lon="151.2900637">
  <ele>380.31</ele>
  <time>2026-09-01T20:01:13Z</time>
  <course>42.47</course>
  <speed>0.01</speed>
  <fix>3d</fix>
</trkpt>
<trkpt lat="-27.2744388" lon="151.2900638">
  <ele>381.11</ele>
  <time>2026-09-01T20:01:13Z</time>
  <course>10.79</course>
  <speed>0.0</speed>
  <fix>3d</fix>
</trkpt>
<trkpt lat="-27.2744388" lon="151.2900638">
  <ele>381.35</ele>
  <time>2026-09-01T20:01:13Z</time>
  <course>10.79</course>
  <speed>0.01</speed>
  <fix>3d</fix>
</trkpt>
<trkpt lat="-27.2744386" lon="151.2900637">
  <ele>380.8</ele>
  <time>2026-09-01T20:01:13Z</time>
  <course>59.62</course>
  <speed>0.0</speed>
  <fix>3d</fix>
</trkpt>
<trkpt lat="-27.2744388" lon="151.2900638">
  <ele>381.36</ele>
  <time>2026-09-01T20:01:13Z</time>
  <course>10.79</course>
  <speed>0.01</speed>
  <fix>3d</fix>
</trkpt>
<trkpt lat="-27.2744388" lon="151.2900638">
  <ele>381.6</ele>
  <time>2026-09-01T20:01:13Z</time>
  <course>10.79</course>
  <speed>0.01</speed>
  <fix>3d</fix>
</trkpt>
<trkpt lat="-27.2744386" lon="151.2900637">
  <ele>380.8</ele>
  <time>2026-09-01T20:01:13Z</time>
  <course>59.62</course>
  <speed>0.0</speed>
  <fix>3d</fix>
</trkpt>
<trkpt lat="-27.2744388" lon="151.2900638">
  <ele>381.67</ele>
  <time>2026-09-01T20:01:13Z</time>
  <course>10.79</course>
  <speed>0.01</speed>
  <fix>3d</fix>
</trkpt>
<trkpt lat="-27.2744388" lon="151.2900638">
  <ele>381.85</ele>
  <time>2026-09-01T20:01:13Z</time>
  <course>10.8</course>
  <speed>0.01</speed>
  <fix>3d</fix>
</trkpt>
<trkpt lat="-27.2744386" lon="151.2900637">
  <ele>381.3</ele>
  <time>2026-09-01T20:01:13Z</time>
  <course>79.79</course>
  <speed>0.0</speed>
  <fix>3d</fix>
</trkpt>
<trkpt lat="-27.2744388" lon="151.2900638">
  <ele>381.92</ele>
  <time>2026-09-01T20:01:13Z</time>
  <course>10.8</course>
  <speed>0.01</speed>
  <fix>3d</fix>
</trkpt>
<trkpt lat="-27.2744388" lon="151.2900638">
  <ele>382.1</ele>
  <time>2026-09-01T20:01:13Z</time>
  <course>10.82</course>
  <speed>0.01</speed>
  <fix>3d</fix>
</trkpt>
<trkpt lat="-27.2744386" lon="151.2900637">
  <ele>381.3</ele>
  <time>2026-09-01T20:01:13Z</time>
  <course>79.79</course>
  <speed>0.0</speed>
  <fix>3d</fix>
</trkpt>
<trkpt lat="-27.2744388" lon="151.2900638">
  <ele>382.21</ele>
  <time>2026-09-01T20:01:13Z</time>
  <course>10.82</course>
  <speed>0.01</speed>
  <fix>3d</fix>
</trkpt>
<trkpt lat="-27.2744388" lon="151.2900638">
  <ele>382.35</ele>
  <time>2026-09-01T20:01:13Z</time>
  <course>10.83</course>
  <speed>0.01</speed>
  <fix>3d</fix>
</trkpt>
<trkpt lat="-27.2744386" lon="151.2900637">
  <ele>381.8</ele>
  <time>2026-09-01T20:01:13Z</time>
  <course>97.98</course>
  <speed>0.0</speed>
  <fix>3d</fix>
</trkpt>
<trkpt lat="-27.2744388" lon="151.2900638">
  <ele>382.36</ele>
  <time>2026-09-01T20:01:13Z</time>
  <course>10.83</course>
  <speed>0.01</speed>
  <fix>3d</fix>
</trkpt>
<trkpt lat="-27.2744388" lon="151.2900638">
  <ele>382.6</ele>
  <time>2026-09-01T20:01:13Z</time>
  <course>10.85</course>
  <speed>0.01</speed>
  <fix>3d</fix>
</trkpt>
<trkpt lat="-27.2744386" lon="151.2900637">
  <ele>381.8</ele>
  <time>2026-09-01T20:01:13Z</time>
  <course>97.98</course>
  <speed>0.0</speed>
  <fix>3d</fix>
</trkpt>
<trkpt lat="-27.2744388" lon="151.2900638">
  <ele>382.67</ele>
  <time>2026-09-01T20:01:13Z</time>
  <course>10.85</course>
  <speed>0.01</speed>
  <fix>3d</fix>
</trkpt>
<trkpt lat="-27.2744388" lon="151.2900638">
  <ele>382.85</ele>
  <time>2026-09-01T20:01:13Z</time>
  <course>10.86</course>
  <speed>0.01</speed>
  <fix>3d</fix>
</trkpt>
<trkpt lat="-27.2744386" lon="151.2900637">
  <ele>382.3</ele>
  <time>2026-09-01T20:01:13Z</time>
  <course>111.63</course>
  <speed>0.0</speed>
  <fix>3d</fix>
</trkpt>
<trkpt lat="-27.2744388" lon="151.2900638">
  <ele>382.92</ele>
  <time>2026-09-01T20:01:13Z</time>
  <course>10.86</course>
  <speed>0.01</speed>
  <fix>3d</fix>
</trkpt>
<trkpt lat="-27.2744388" lon="151.2900638">
  <ele>383.1</ele>
  <time>2026-09-01T20:01:13Z</time>
  <course>10.86</course>
  <speed>0.01</speed>
  <fix>3d</fix>
</trkpt>
<trkpt lat="-27.2744386" lon="151.2900637">
  <ele>382.3</ele>
  <time>2026-09-01T20:01:13Z</time>
  <course>111.63</course>
  <speed>0.0</speed>
  <fix>3d</fix>
</trkpt>
<trkpt lat="-27.2744388" lon="151.2900638">
  <ele>383.17</ele>
  <time>2026-09-01T20:01:13Z</time>
  <course>10.85</course>
  <speed>0.01</speed>
  <fix>3d</fix>
</trkpt>
<trkpt lat="-27.2744388" lon="151.2900638">
  <ele>383.35</ele>
  <time>2026-09-01T20:01:13Z</time>
  <course>10.85</course>
  <speed>0.01</speed>
  <fix>3d</fix>
</trkpt>
<trkpt lat="-27.2744386" lon="151.2900637">
  <ele>382.79</ele>
  <time>2026-09-01T20:01:13Z</time>
  <course>120.14</course>
  <speed>0.0</speed>
  <fix>3d</fix>
</trkpt>
<trkpt lat="-27.2744388" lon="151.2900638">
  <ele>383.41</ele>
  <time>2026-09-01T20:01:13Z</time>
  <course>10.85</course>
  <speed>0.01</speed>
  <fix>3d</fix>
</trkpt>
<trkpt lat="-27.2744388" lon="151.2900638">
  <ele>383.6</ele>
  <time>2026-09-01T20:01:13Z</time>
  <course>10.85</course>
  <speed>0.01</speed>
  <fix>3d</fix>
</trkpt>
<trkpt lat="-27.2744386" lon="151.2900637">
  <ele>382.79</ele>
  <time>2026-09-01T20:01:13Z</time>
  <course>120.14</course>
  <speed>0.0</speed>
  <fix>3d</fix>
</trkpt>
<trkpt lat="-27.2744388" lon="151.2900638">
  <ele>383.68</ele>
  <time>2026-09-01T20:01:13Z</time>
  <course>10.85</course>
  <speed>0.01</speed>
  <fix>3d</fix>
</trkpt>
<trkpt lat="-27.2744388" lon="151.2900638">
  <ele>383.85</ele>
  <time>2026-09-01T20:01:13Z</time>
  <course>10.85</course>
  <speed>0.01</speed>
  <fix>3d</fix>
</trkpt>
<trkpt lat="-27.2744386" lon="151.2900637">
  <ele>383.29</ele>
  <time>2026-09-01T20:01:13Z</time>
  <course>125.46</course>
  <speed>0.0</speed>
  <fix>3d</fix>
</trkpt>
<trkpt lat="-27.2744388" lon="151.2900638">
  <ele>383.86</ele>
  <time>2026-09-01T20:01:13Z</time>
  <course>10.85</course>
  <speed>0.01</speed>
  <fix>3d</fix>
</trkpt>
<trkpt lat="-27.2744388" lon="151.2900638">
  <ele>384.1</ele>
  <time>2026-09-01T20:01:13Z</time>
  <course>10.86</course>
  <speed>0.01</speed>
  <fix>3d</fix>
</trkpt>
<trkpt lat="-27.2744386" lon="151.2900637">
  <ele>383.29</ele>
  <time>2026-09-01T20:01:13Z</time>
  <course>125.46</course>
  <speed>0.0</speed>
  <fix>3d</fix>
</trkpt>
<trkpt lat="-27.2744388" lon="151.2900638">
  <ele>384.11</ele>
  <time>2026-09-01T20:01:13Z</time>
  <course>10.86</course>
  <speed>0.01</speed>
  <fix>3d</fix>
</trkpt>
<trkpt lat="-27.2744388" lon="151.2900638">
  <ele>384.35</ele>
  <time>2026-09-01T20:01:13Z</time>
  <course>10.87</course>
  <speed>0.01</speed>
  <fix>3d</fix>
</trkpt>
<trkpt lat="-27.2744386" lon="151.2900637">
  <ele>383.79</ele>
  <time>2026-09-01T20:01:13Z</time>
  <course>132.01</course>
  <speed>0.01</speed>
  <fix>3d</fix>
</trkpt>
<trkpt lat="-27.2744388" lon="151.2900638">
  <ele>384.42</ele>
  <time>2026-09-01T20:01:13Z</time>
  <course>10.87</course>
  <speed>0.01</speed>
  <fix>3d</fix>
</trkpt>
<trkpt lat="-27.2744388" lon="151.2900638">
  <ele>384.6</ele>
  <time>2026-09-01T20:01:13Z</time>
  <course>10.87</course>
  <speed>0.01</speed>
  <fix>3d</fix>
</trkpt>
<trkpt lat="-27.2744386" lon="151.2900637">
  <ele>383.79</ele>
  <time>2026-09-01T20:01:13Z</time>
  <course>132.01</course>
  <speed>0.01</speed>
  <fix>3d</fix>
</trkpt>
<trkpt lat="-27.2744388" lon="151.2900638">
  <ele>384.67</ele>
  <time>2026-09-01T20:01:13Z</time>
  <course>10.87</course>
  <speed>0.01</speed>
  <fix>3d</fix>
</trkpt>
<trkpt lat="-27.2744388" lon="151.2900638">
  <ele>384.86</ele>
  <time>2026-09-01T20:01:13Z</time>
  <course>10.88</course>
  <speed>0.01</speed>
  <fix>3d</fix>
</trkpt>
<trkpt lat="-27.2744386" lon="151.2900637">
  <ele>384.29</ele>
  <time>2026-09-01T20:01:13Z</time>
  <course>137.67</course>
  <speed>0.01</speed>
  <fix>3d</fix>
</trkpt>
<trkpt lat="-27.2744388" lon="151.2900638">
  <ele>384.93</ele>
  <time>2026-09-01T20:01:13Z</time>
  <course>10.88</course>
  <speed>0.02</speed>
  <fix>3d</fix>
</trkpt>
<trkpt lat="-27.2744388" lon="151.2900638">
  <ele>385.1</ele>
  <time>2026-09-01T20:01:13Z</time>
  <course>10.88</course>
  <speed>0.02</speed>
  <fix>3d</fix>
</trkpt>
<trkpt lat="-27.2744386" lon="151.2900637">
  <ele>384.29</ele>
  <time>2026-09-01T20:01:13Z</time>
  <course>137.67</course>
  <speed>0.01</speed>
  <fix>3d</fix>
</trkpt>
<trkpt lat="-27.2744388" lon="151.2900638">
  <ele>385.18</ele>
  <time>2026-09-01T20:01:13Z</time>
  <course>10.89</course>
  <speed>0.02</speed>
  <fix>3d</fix>
</trkpt>
<trkpt lat="-27.2744388" lon="151.2900638">
  <ele>385.35</ele>
  <time>2026-09-01T20:01:13Z</time>
  <course>10.9</course>
  <speed>0.01</speed>
  <fix>3d</fix>
</trkpt>
<trkpt lat="-27.2744386" lon="151.2900638">
  <ele>384.79</ele>
  <time>2026-09-01T20:01:13Z</time>
  <course>139.93</course>
  <speed>0.01</speed>
  <fix>3d</fix>
</trkpt>
<trkpt lat="-27.2744388" lon="151.2900638">
  <ele>385.42</ele>
  <time>2026-09-01T20:01:13Z</time>
  <course>10.9</course>
  <speed>0.01</speed>
  <fix>3d</fix>
</trkpt>
<trkpt lat="-27.2744388" lon="151.2900638">
  <ele>385.6</ele>
  <time>2026-09-01T20:01:13Z</time>
  <course>10.91</course>
  <speed>0.01</speed>
  <fix>3d</fix>
</trkpt>
<trkpt lat="-27.2744386" lon="151.2900638">
  <ele>384.79</ele>
  <time>2026-09-01T20:01:13Z</time>
  <course>139.93</course>
  <speed>0.01</speed>
  <fix>3d</fix>
</trkpt>
<trkpt lat="-27.2744388" lon="151.2900638">
  <ele>385.61</ele>
  <time>2026-09-01T20:01:13Z</time>
  <course>10.91</course>
  <speed>0.01</speed>
  <fix>3d</fix>
</trkpt>
<trkpt lat="-27.2744388" lon="151.2900638">
  <ele>385.85</ele>
  <time>2026-09-01T20:01:13Z</time>
  <course>10.91</course>
  <speed>0.01</speed>
  <fix>3d</fix>
</trkpt>
<trkpt lat="-27.2744386" lon="151.2900639">
  <ele>385.28</ele>
  <time>2026-09-01T20:01:13Z</time>
  <course>140.9</course>
  <speed>0.01</speed>
  <fix>3d</fix>
</trkpt>
<trkpt lat="-27.2744388" lon="151.2900638">
  <ele>385.92</ele>
  <time>2026-09-01T20:01:13Z</time>
  <course>10.91</course>
  <speed>0.01</speed>
  <fix>3d</fix>
</trkpt>
<trkpt lat="-27.2744388" lon="151.2900638">
  <ele>386.1</ele>
  <time>2026-09-01T20:01:13Z</time>
  <course>10.91</course>
  <speed>0.01</speed>
  <fix>3d</fix>
</trkpt>
<trkpt lat="-27.2744386" lon="151.2900639">
  <ele>385.28</ele>
  <time>2026-09-01T20:01:13Z</time>
  <course>140.9</course>
  <speed>0.01</speed>
  <fix>3d</fix>
</trkpt>
<trkpt lat="-27.2744388" lon="151.2900638">
  <ele>386.17</ele>
  <time>2026-09-01T20:01:13Z</time>
  <course>10.91</course>
  <speed>0.01</speed>
  <fix>3d</fix>
</trkpt>
<trkpt lat="-27.2744388" lon="151.2900638">
  <ele>386.35</ele>
  <time>2026-09-01T20:01:13Z</time>
  <course>10.91</course>
  <speed>0.01</speed>
  <fix>3d</fix>
</trkpt>
<trkpt lat="-27.2744386" lon="151.2900639">
  <ele>385.78</ele>
  <time>2026-09-01T20:01:13Z</time>
  <course>143.79</course>
  <speed>0.01</speed>
  <fix>3d</fix>
</trkpt>
<trkpt lat="-27.2744388" lon="151.2900638">
  <ele>386.36</ele>
  <time>2026-09-01T20:01:13Z</time>
  <course>10.91</course>
  <speed>0.01</speed>
  <fix>3d</fix>
</trkpt>
<trkpt lat="-27.2744388" lon="151.2900638">
  <ele>386.61</ele>
  <time>2026-09-01T20:01:13Z</time>
  <course>10.89</course>
  <speed>0.01</speed>
  <fix>3d</fix>
</trkpt>
<trkpt lat="-27.2744386" lon="151.2900639">
  <ele>385.78</ele>
  <time>2026-09-01T20:01:13Z</time>
  <course>143.79</course>
  <speed>0.01</speed>
  <fix>3d</fix>
</trkpt>
<trkpt lat="-27.2744388" lon="151.2900638">
  <ele>386.61</ele>
  <time>2026-09-01T20:01:13Z</time>
  <course>10.89</course>
  <speed>0.01</speed>
  <fix>3d</fix>
</trkpt>
<trkpt lat="-27.2744388" lon="151.2900638">
  <ele>386.86</ele>
  <time>2026-09-01T20:01:13Z</time>
  <course>10.88</course>
  <speed>0.01</speed>
  <fix>3d</fix>
</trkpt>
<trkpt lat="-27.2744387" lon="151.2900639">
  <ele>386.28</ele>
  <time>2026-09-01T20:01:13Z</time>
  <course>148.57</course>
  <speed>0.01</speed>
  <fix>3d</fix>
</trkpt>
<trkpt lat="-27.2744388" lon="151.2900638">
  <ele>386.92</ele>
  <time>2026-09-01T20:01:13Z</time>
  <course>10.87</course>
  <speed>0.01</speed>
  <fix>3d</fix>
</trkpt>
<trkpt lat="-27.2744388" lon="151.2900638">
  <ele>387.11</ele>
  <time>2026-09-01T20:01:13Z</time>
  <course>10.87</course>
  <speed>0.01</speed>
  <fix>3d</fix>
</trkpt>
<trkpt lat="-27.2744387" lon="151.2900639">
  <ele>386.28</ele>
  <time>2026-09-01T20:01:13Z</time>
  <course>148.57</course>
  <speed>0.01</speed>
  <fix>3d</fix>
</trkpt>
<trkpt lat="-27.2744388" lon="151.2900638">
  <ele>387.17</ele>
  <time>2026-09-01T20:01:13Z</time>
  <course>10.87</course>
  <speed>0.01</speed>
  <fix>3d</fix>
</trkpt>
<trkpt lat="-27.2744388" lon="151.2900638">
  <ele>387.36</ele>
  <time>2026-09-01T20:01:13Z</time>
  <course>10.87</course>
  <speed>0.01</speed>
  <fix>3d</fix>
</trkpt>
<trkpt lat="-27.2744387" lon="151.2900639">
  <ele>386.78</ele>
  <time>2026-09-01T20:01:13Z</time>
  <course>151.89</course>
  <speed>0.01</speed>
  <fix>3d</fix>
</trkpt>
<trkpt lat="-27.2744388" lon="151.2900638">
  <ele>387.43</ele>
  <time>2026-09-01T20:01:13Z</time>
  <course>10.87</course>
  <speed>0.01</speed>
  <fix>3d</fix>
</trkpt>
<trkpt lat="-27.2744388" lon="151.2900638">
  <ele>387.61</ele>
  <time>2026-09-01T20:01:13Z</time>
  <course>10.87</course>
  <speed>0.01</speed>
  <fix>3d</fix>
</trkpt>
<trkpt lat="-27.2744387" lon="151.2900639">
  <ele>386.78</ele>
  <time>2026-09-01T20:01:13Z</time>
  <course>151.89</course>
  <speed>0.01</speed>
  <fix>3d</fix>
</trkpt>
<trkpt lat="-27.2744388" lon="151.2900638">
  <ele>387.68</ele>
  <time>2026-09-01T20:01:13Z</time>
  <course>10.87</course>
  <speed>0.01</speed>
  <fix>3d</fix>
</trkpt>
<trkpt lat="-27.2744388" lon="151.2900638">
  <ele>387.85</ele>
  <time>2026-09-01T20:01:13Z</time>
  <course>10.87</course>
  <speed>0.01</speed>
  <fix>3d</fix>
</trkpt>
<trkpt lat="-27.2744387" lon="151.2900639">
  <ele>387.28</ele>
  <time>2026-09-01T20:01:13Z</time>
  <course>152.36</course>
  <speed>0.01</speed>
  <fix>3d</fix>
</trkpt>
<trkpt lat="-27.2744388" lon="151.2900638">
  <ele>387.92</ele>
  <time>2026-09-01T20:01:13Z</time>
  <course>10.87</course>
  <speed>0.01</speed>
  <fix>3d</fix>
</trkpt>
<trkpt lat="-27.2744388" lon="151.2900638">
  <ele>388.1</ele>
  <time>2026-09-01T20:01:13Z</time>
  <course>10.87</course>
  <speed>0.01</speed>
  <fix>3d</fix>
</trkpt>
<trkpt lat="-27.2744387" lon="151.2900639">
  <ele>387.28</ele>
  <time>2026-09-01T20:01:13Z</time>
  <course>152.36</course>
  <speed>0.01</speed>
  <fix>3d</fix>
</trkpt>
<trkpt lat="-27.2744388" lon="151.2900638">
  <ele>388.16</ele>
  <time>2026-09-01T20:01:13Z</time>
  <course>10.87</course>
  <speed>0.01</speed>
  <fix>3d</fix>
</trkpt>
<trkpt lat="-27.2744388" lon="151.2900638">
  <ele>388.34</ele>
  <time>2026-09-01T20:01:13Z</time>
  <course>10.87</course>
  <speed>0.01</speed>
  <fix>3d</fix>
</trkpt>
<trkpt lat="-27.2744387" lon="151.2900639">
  <ele>387.78</ele>
  <time>2026-09-01T20:01:13Z</time>
  <course>150.23</course>
  <speed>0.01</speed>
  <fix>3d</fix>
</trkpt>
<trkpt lat="-27.2744388" lon="151.2900638">
  <ele>388.42</ele>
  <time>2026-09-01T20:01:13Z</time>
  <course>10.87</course>
  <speed>0.01</speed>
  <fix>3d</fix>
</trkpt>
<trkpt lat="-27.2744388" lon="151.2900639">
  <ele>388.59</ele>
  <time>2026-09-01T20:01:13Z</time>
  <course>10.86</course>
  <speed>0.01</speed>
  <fix>3d</fix>
</trkpt>
<trkpt lat="-27.2744387" lon="151.2900639">
  <ele>387.78</ele>
  <time>2026-09-01T20:01:13Z</time>
  <course>150.23</course>
  <speed>0.01</speed>
  <fix>3d</fix>
</trkpt>
<trkpt lat="-27.2744388" lon="151.2900639">
  <ele>388.66</ele>
  <time>2026-09-01T20:01:13Z</time>
  <course>10.86</course>
  <speed>0.01</speed>
  <fix>3d</fix>
</trkpt>
<trkpt lat="-27.2744388" lon="151.2900639">
  <ele>388.84</ele>
  <time>2026-09-01T20:01:13Z</time>
  <course>10.85</course>
  <speed>0.01</speed>
  <fix>3d</fix>
</trkpt>
<trkpt lat="-27.2744388" lon="151.2900639">
  <ele>388.27</ele>
  <time>2026-09-01T20:01:13Z</time>
  <course>148.78</course>
  <speed>0.01</speed>
  <fix>3d</fix>
</trkpt>
<trkpt lat="-27.2744388" lon="151.2900639">
  <ele>388.91</ele>
  <time>2026-09-01T20:01:13Z</time>
  <course>10.85</course>
  <speed>0.01</speed>
  <fix>3d</fix>
</trkpt>
<trkpt lat="-27.2744388" lon="151.2900639">
  <ele>389.08</ele>
  <time>2026-09-01T20:01:13Z</time>
  <course>10.84</course>
  <speed>0.01</speed>
  <fix>3d</fix>
</trkpt>
<trkpt lat="-27.2744388" lon="151.2900639">
  <ele>388.27</ele>
  <time>2026-09-01T20:01:13Z</time>
  <course>148.78</course>
  <speed>0.01</speed>
  <fix>3d</fix>
</trkpt>
<trkpt lat="-27.2744388" lon="151.2900639">
  <ele>389.09</ele>
  <time>2026-09-01T20:01:13Z</time>
  <course>10.84</course>
  <speed>0.01</speed>
  <fix>3d</fix>
</trkpt>
<trkpt lat="-27.2744388" lon="151.2900639">
  <ele>389.33</ele>
  <time>2026-09-01T20:01:13Z</time>
  <course>10.82</course>
  <speed>0.01</speed>
  <fix>3d</fix>
</trkpt>
<trkpt lat="-27.2744388" lon="151.290064">
  <ele>388.77</ele>
  <time>2026-09-01T20:01:13Z</time>
  <course>150.38</course>
  <speed>0.01</speed>
  <fix>3d</fix>
</trkpt>
<trkpt lat="-27.2744388" lon="151.2900639">
  <ele>389.34</ele>
  <time>2026-09-01T20:01:13Z</time>
  <course>10.81</course>
  <speed>0.01</speed>
  <fix>3d</fix>
</trkpt>
<trkpt lat="-27.2744388" lon="151.2900639">
  <ele>389.58</ele>
  <time>2026-09-01T20:01:13Z</time>
  <course>10.8</course>
  <speed>0.01</speed>
  <fix>3d</fix>
</trkpt>
<trkpt lat="-27.2744388" lon="151.290064">
  <ele>388.77</ele>
  <time>2026-09-01T20:01:13Z</time>
  <course>150.38</course>
  <speed>0.01</speed>
  <fix>3d</fix>
</trkpt>
<trkpt lat="-27.2744388" lon="151.2900639">
  <ele>389.59</ele>
  <time>2026-09-01T20:01:13Z</time>
  <course>10.79</course>
  <speed>0.01</speed>
  <fix>3d</fix>
</trkpt>
<trkpt lat="-27.2744388" lon="151.2900639">
  <ele>389.83</ele>
  <time>2026-09-01T20:01:13Z</time>
  <course>10.78</course>
  <speed>0.01</speed>
  <fix>3d</fix>
</trkpt>
<trkpt lat="-27.2744388" lon="151.290064">
  <ele>389.27</ele>
  <time>2026-09-01T20:01:13Z</time>
  <course>150.44</course>
  <speed>0.01</speed>
  <fix>3d</fix>
</trkpt>
<trkpt lat="-27.2744388" lon="151.2900639">
  <ele>389.9</ele>
  <time>2026-09-01T20:01:13Z</time>
  <course>10.78</course>
  <speed>0.01</speed>
  <fix>3d</fix>
</trkpt>
<trkpt lat="-27.2744388" lon="151.2900639">
  <ele>390.09</ele>
  <time>2026-09-01T20:01:13Z</time>
  <course>10.77</course>
  <speed>0.01</speed>
  <fix>3d</fix>
</trkpt>
<trkpt lat="-27.2744388" lon="151.290064">
  <ele>389.27</ele>
  <time>2026-09-01T20:01:13Z</time>
  <course>150.44</course>
  <speed>0.01</speed>
  <fix>3d</fix>
</trkpt>
<trkpt lat="-27.2744388" lon="151.2900639">
  <ele>390.15</ele>
  <time>2026-09-01T20:01:13Z</time>
  <course>10.77</course>
  <speed>0.01</speed>
  <fix>3d</fix>
</trkpt>
<trkpt lat="-27.2744388" lon="151.2900639">
  <ele>390.34</ele>
  <time>2026-09-01T20:01:13Z</time>
  <course>10.77</course>
  <speed>0.01</speed>
  <fix>3d</fix>
</trkpt>
<trkpt lat="-27.2744388" lon="151.290064">
  <ele>389.77</ele>
  <time>2026-09-01T20:01:13Z</time>
  <course>147.45</course>
  <speed>0.0</speed>
  <fix>3d</fix>
</trkpt>
<trkpt lat="-27.2744388" lon="151.2900639">
  <ele>390.41</ele>
  <time>2026-09-01T20:01:13Z</time>
  <course>10.77</course>
  <speed>0.01</speed>
  <fix>3d</fix>
</trkpt>
<trkpt lat="-27.2744388" lon="151.2900639">
  <ele>390.59</ele>
  <time>2026-09-01T20:01:13Z</time>
  <course>10.78</course>
  <speed>0.01</speed>
  <fix>3d</fix>
</trkpt>
<trkpt lat="-27.2744388" lon="151.290064">
  <ele>389.77</ele>
  <time>2026-09-01T20:01:13Z</time>
  <course>147.45</course>
  <speed>0.0</speed>
  <fix>3d</fix>
</trkpt>
<trkpt lat="-27.2744388" lon="151.2900639">
  <ele>390.66</ele>
  <time>2026-09-01T20:01:13Z</time>
  <course>10.78</course>
  <speed>0.01</speed>
  <fix>3d</fix>
</trkpt>
<trkpt lat="-27.2744388" lon="151.2900639">
  <ele>390.84</ele>
  <time>2026-09-01T20:01:13Z</time>
  <course>10.78</course>
  <speed>0.01</speed>
  <fix>3d</fix>
</trkpt>
<trkpt lat="-27.2744388" lon="151.290064">
  <ele>390.27</ele>
  <time>2026-09-01T20:01:13Z</time>
  <course>147.18</course>
  <speed>0.0</speed>
  <fix>3d</fix>
</trkpt>
<trkpt lat="-27.2744388" lon="151.2900639">
  <ele>390.91</ele>
  <time>2026-09-01T20:01:13Z</time>
  <course>10.78</course>
  <speed>0.01</speed>
  <fix>3d</fix>
</trkpt>
<trkpt lat="-27.2744388" lon="151.2900639">
  <ele>391.09</ele>
  <time>2026-09-01T20:01:13Z</time>
  <course>10.78</course>
  <speed>0.01</speed>
  <fix>3d</fix>
</trkpt>
<trkpt lat="-27.2744388" lon="151.290064">
  <ele>390.27</ele>
  <time>2026-09-01T20:01:13Z</time>
  <course>147.18</course>
  <speed>0.0</speed>
  <fix>3d</fix>
</trkpt>
<trkpt lat="-27.2744388" lon="151.2900639">
  <ele>391.16</ele>
  <time>2026-09-01T20:01:13Z</time>
  <course>10.77</course>
  <speed>0.01</speed>
  <fix>3d</fix>
</trkpt>
<trkpt lat="-27.2744388" lon="151.290064">
  <ele>391.34</ele>
  <time>2026-09-01T20:01:13Z</time>
  <course>10.77</course>
  <speed>0.01</speed>
  <fix>3d</fix>
</trkpt>
<trkpt lat="-27.2744388" lon="151.290064">
  <ele>390.77</ele>
  <time>2026-09-01T20:01:13Z</time>
  <course>144.96</course>
  <speed>0.0</speed>
  <fix>3d</fix>
</trkpt>
<trkpt lat="-27.2744388" lon="151.290064">
  <ele>391.42</ele>
  <time>2026-09-01T20:01:13Z</time>
  <course>10.77</course>
  <speed>0.01</speed>
  <fix>3d</fix>
</trkpt>
<trkpt lat="-27.2744388" lon="151.290064">
  <ele>391.59</ele>
  <time>2026-09-01T20:01:13Z</time>
  <course>10.76</course>
  <speed>0.01</speed>
  <fix>3d</fix>
</trkpt>
<trkpt lat="-27.2744388" lon="151.290064">
  <ele>390.77</ele>
  <time>2026-09-01T20:01:13Z</time>
  <course>144.96</course>
  <speed>0.0</speed>
  <fix>3d</fix>
</trkpt>
<trkpt lat="-27.2744388" lon="151.290064">
  <ele>391.6</ele>
  <time>2026-09-01T20:01:13Z</time>
  <course>10.76</course>
  <speed>0.01</speed>
  <fix>3d</fix>
</trkpt>
<trkpt lat="-27.2744388" lon="151.290064">
  <ele>391.84</ele>
  <time>2026-09-01T20:01:13Z</time>
  <course>10.75</course>
  <speed>0.01</speed>
  <fix>3d</fix>
</trkpt>
<trkpt lat="-27.2744388" lon="151.290064">
  <ele>391.28</ele>
  <time>2026-09-01T20:01:13Z</time>
  <course>135.14</course>
  <speed>0.0</speed>
  <fix>3d</fix>
</trkpt>
<trkpt lat="-27.2744388" lon="151.290064">
  <ele>391.85</ele>
  <time>2026-09-01T20:01:13Z</time>
  <course>10.75</course>
  <speed>0.01</speed>
  <fix>3d</fix>
</trkpt>
<trkpt lat="-27.2744388" lon="151.290064">
  <ele>392.09</ele>
  <time>2026-09-01T20:01:13Z</time>
  <course>10.74</course>
  <speed>0.01</speed>
  <fix>3d</fix>
</trkpt>
<trkpt lat="-27.2744388" lon="151.290064">
  <ele>391.28</ele>
  <time>2026-09-01T20:01:13Z</time>
  <course>135.14</course>
  <speed>0.0</speed>
  <fix>3d</fix>
</trkpt>
<trkpt lat="-27.2744388" lon="151.290064">
  <ele>392.16</ele>
  <time>2026-09-01T20:01:13Z</time>
  <course>10.73</course>
  <speed>0.01</speed>
  <fix>3d</fix>
</trkpt>
<trkpt lat="-27.2744388" lon="151.290064">
  <ele>392.34</ele>
  <time>2026-09-01T20:01:13Z</time>
  <course>10.73</course>
  <speed>0.0</speed>
  <fix>3d</fix>
</trkpt>
<trkpt lat="-27.2744388" lon="151.290064">
  <ele>391.78</ele>
  <time>2026-09-01T20:01:13Z</time>
  <course>131.83</course>
  <speed>0.0</speed>
  <fix>3d</fix>
</trkpt>
<trkpt lat="-27.2744388" lon="151.290064">
  <ele>392.42</ele>
  <time>2026-09-01T20:01:13Z</time>
  <course>10.73</course>
  <speed>0.0</speed>
  <fix>3d</fix>
</trkpt>
<trkpt lat="-27.2744388" lon="151.290064">
  <ele>392.59</ele>
  <time>2026-09-01T20:01:13Z</time>
  <course>10.73</course>
  <speed>0.0</speed>
  <fix>3d</fix>
</trkpt>
<trkpt lat="-27.2744388" lon="151.290064">
  <ele>391.78</ele>
  <time>2026-09-01T20:01:13Z</time>
  <course>131.83</course>
  <speed>0.0</speed>
  <fix>3d</fix>
</trkpt>
<trkpt lat="-27.2744388" lon="151.290064">
  <ele>392.66</ele>
  <time>2026-09-01T20:01:13Z</time>
  <course>10.73</course>
  <speed>0.0</speed>
  <fix>3d</fix>
</trkpt>
<trkpt lat="-27.2744388" lon="151.290064">
  <ele>392.84</ele>
  <time>2026-09-01T20:01:13Z</time>
  <course>10.72</course>
  <speed>0.0</speed>
  <fix>3d</fix>
</trkpt>
<trkpt lat="-27.2744389" lon="151.290064">
  <ele>392.28</ele>
  <time>2026-09-01T20:01:13Z</time>
  <course>142.09</course>
  <speed>0.0</speed>
  <fix>3d</fix>
</trkpt>
<trkpt lat="-27.2744388" lon="151.290064">
  <ele>392.92</ele>
  <time>2026-09-01T20:01:13Z</time>
  <course>10.72</course>
  <speed>0.0</speed>
  <fix>3d</fix>
</trkpt>
<trkpt lat="-27.2744388" lon="151.290064">
  <ele>393.09</ele>
  <time>2026-09-01T20:01:13Z</time>
  <course>10.71</course>
  <speed>0.0</speed>
  <fix>3d</fix>
</trkpt>
<trkpt lat="-27.2744389" lon="151.290064">
  <ele>392.28</ele>
  <time>2026-09-01T20:01:13Z</time>
  <course>142.09</course>
  <speed>0.0</speed>
  <fix>3d</fix>
</trkpt>
<trkpt lat="-27.2744388" lon="151.290064">
  <ele>393.1</ele>
  <time>2026-09-01T20:01:13Z</time>
  <course>10.71</course>
  <speed>0.0</speed>
  <fix>3d</fix>
</trkpt>
<trkpt lat="-27.2744389" lon="151.290064">
  <ele>393.35</ele>
  <time>2026-09-01T20:01:13Z</time>
  <course>10.69</course>
  <speed>0.0</speed>
  <fix>3d</fix>
</trkpt>
<trkpt lat="-27.2744389" lon="151.290064">
  <ele>392.78</ele>
  <time>2026-09-01T20:01:13Z</time>
  <course>158.64</course>
  <speed>0.0</speed>
  <fix>3d</fix>
</trkpt>
<trkpt lat="-27.2744389" lon="151.290064">
  <ele>393.42</ele>
  <time>2026-09-01T20:01:13Z</time>
  <course>10.69</course>
  <speed>0.0</speed>
  <fix>3d</fix>
</trkpt>
<trkpt lat="-27.2744389" lon="151.290064">
  <ele>393.6</ele>
  <time>2026-09-01T20:01:13Z</time>
  <course>10.68</course>
  <speed>0.0</speed>
  <fix>3d</fix>
</trkpt>
<trkpt lat="-27.2744389" lon="151.290064">
  <ele>392.78</ele>
  <time>2026-09-01T20:01:13Z</time>
  <course>158.64</course>
  <speed>0.0</speed>
  <fix>3d</fix>
</trkpt>
<trkpt lat="-27.2744389" lon="151.290064">
  <ele>393.67</ele>
  <time>2026-09-01T20:01:13Z</time>
  <course>10.67</course>
  <speed>0.0</speed>
  <fix>3d</fix>
</trkpt>
<trkpt lat="-27.2744389" lon="151.290064">
  <ele>393.85</ele>
  <time>2026-09-01T20:01:13Z</time>
  <course>10.67</course>
  <speed>0.0</speed>
  <fix>3d</fix>
</trkpt>
<trkpt lat="-27.2744389" lon="151.290064">
  <ele>393.28</ele>
  <time>2026-09-01T20:01:13Z</time>
  <course>165.68</course>
  <speed>0.0</speed>
  <fix>3d</fix>
</trkpt>
<trkpt lat="-27.2744389" lon="151.290064">
  <ele>393.93</ele>
  <time>2026-09-01T20:01:13Z</time>
  <course>10.66</course>
  <speed>0.0</speed>
  <fix>3d</fix>
</trkpt>
<trkpt lat="-27.2744389" lon="151.290064">
  <ele>394.11</ele>
  <time>2026-09-01T20:01:13Z</time>
  <course>10.66</course>
  <speed>0.0</speed>
  <fix>3d</fix>
</trkpt>
<trkpt lat="-27.2744389" lon="151.290064">
  <ele>393.28</ele>
  <time>2026-09-01T20:01:13Z</time>
  <course>165.68</course>
  <speed>0.0</speed>
  <fix>3d</fix>
</trkpt>
<trkpt lat="-27.2744389" lon="151.290064">
  <ele>394.14</ele>
  <time>2026-09-01T20:01:13Z</time>
  <course>10.66</course>
  <speed>0.0</speed>
  <fix>3d</fix>
</trkpt>
<trkpt lat="-27.2744389" lon="151.290064">
  <ele>394.36</ele>
  <time>2026-09-01T20:01:13Z</time>
  <course>10.67</course>
  <speed>0.0</speed>
  <fix>3d</fix>
</trkpt>
<trkpt lat="-27.2744389" lon="151.290064">
  <ele>393.79</ele>
  <time>2026-09-01T20:01:13Z</time>
  <course>175.17</course>
  <speed>0.0</speed>
  <fix>3d</fix>
</trkpt>
<trkpt lat="-27.2744389" lon="151.290064">
  <ele>394.37</ele>
  <time>2026-09-01T20:01:13Z</time>
  <course>10.67</course>
  <speed>0.0</speed>
  <fix>3d</fix>
</trkpt>
<trkpt lat="-27.2744389" lon="151.290064">
  <ele>394.61</ele>
  <time>2026-09-01T20:01:13Z</time>
  <course>10.67</course>
  <speed>0.0</speed>
  <fix>3d</fix>
</trkpt>
<trkpt lat="-27.2744389" lon="151.290064">
  <ele>393.79</ele>
  <time>2026-09-01T20:01:13Z</time>
  <course>175.17</course>
  <speed>0.0</speed>
  <fix>3d</fix>
</trkpt>
<trkpt lat="-27.2744389" lon="151.290064">
  <ele>394.62</ele>
  <time>2026-09-01T20:01:13Z</time>
  <course>10.67</course>
  <speed>0.0</speed>
  <fix>3d</fix>
</trkpt>
<trkpt lat="-27.2744389" lon="151.290064">
  <ele>394.86</ele>
  <time>2026-09-01T20:01:13Z</time>
  <course>10.67</course>
  <speed>0.01</speed>
  <fix>3d</fix>
</trkpt>
<trkpt lat="-27.2744389" lon="151.290064">
  <ele>394.29</ele>
  <time>2026-09-01T20:01:13Z</time>
  <course>130.13</course>
  <speed>0.0</speed>
  <fix>3d</fix>
</trkpt>
<trkpt lat="-27.2744389" lon="151.290064">
  <ele>394.91</ele>
  <time>2026-09-01T20:01:13Z</time>
  <course>10.67</course>
  <speed>0.01</speed>
  <fix>3d</fix>
</trkpt>
<trkpt lat="-27.2744389" lon="151.290064">
  <ele>395.1</ele>
  <time>2026-09-01T20:01:13Z</time>
  <course>10.67</course>
  <speed>0.01</speed>
  <fix>3d</fix>
</trkpt>
<trkpt lat="-27.2744389" lon="151.290064">
  <ele>394.29</ele>
  <time>2026-09-01T20:01:13Z</time>
  <course>130.13</course>
  <speed>0.0</speed>
  <fix>3d</fix>
</trkpt>
<trkpt lat="-27.2744389" lon="151.290064">
  <ele>395.16</ele>
  <time>2026-09-01T20:01:13Z</time>
  <course>10.67</course>
  <speed>0.01</speed>
  <fix>3d</fix>
</trkpt>
<trkpt lat="-27.2744389" lon="151.290064">
  <ele>395.36</ele>
  <time>2026-09-01T20:01:13Z</time>
  <course>10.68</course>
  <speed>0.01</speed>
  <fix>3d</fix>
</trkpt>
<trkpt lat="-27.2744389" lon="151.290064">
  <ele>394.79</ele>
  <time>2026-09-01T20:01:13Z</time>
  <course>117.18</course>
  <speed>0.0</speed>
  <fix>3d</fix>
</trkpt>
<trkpt lat="-27.2744389" lon="151.290064">
  <ele>395.4</ele>
  <time>2026-09-01T20:01:13Z</time>
  <course>10.68</course>
  <speed>0.01</speed>
  <fix>3d</fix>
</trkpt>
<trkpt lat="-27.2744389" lon="151.290064">
  <ele>395.61</ele>
  <time>2026-09-01T20:01:13Z</time>
  <course>10.68</course>
  <speed>0.01</speed>
  <fix>3d</fix>
</trkpt>
<trkpt lat="-27.2744389" lon="151.290064">
  <ele>394.79</ele>
  <time>2026-09-01T20:01:13Z</time>
  <course>117.18</course>
  <speed>0.0</speed>
  <fix>3d</fix>
</trkpt>
<trkpt lat="-27.2744389" lon="151.290064">
  <ele>395.67</ele>
  <time>2026-09-01T20:01:13Z</time>
  <course>10.68</course>
  <speed>0.01</speed>
  <fix>3d</fix>
</trkpt>
<trkpt lat="-27.2744389" lon="151.290064">
  <ele>395.86</ele>
  <time>2026-09-01T20:01:13Z</time>
  <course>10.68</course>
  <speed>0.01</speed>
  <fix>3d</fix>
</trkpt>
<trkpt lat="-27.2744389" lon="151.290064">
  <ele>395.29</ele>
  <time>2026-09-01T20:01:13Z</time>
  <course>130.75</course>
  <speed>0.0</speed>
  <fix>3d</fix>
</trkpt>
<trkpt lat="-27.2744389" lon="151.290064">
  <ele>395.93</ele>
  <time>2026-09-01T20:01:13Z</time>
  <course>10.68</course>
  <speed>0.01</speed>
  <fix>3d</fix>
</trkpt>
<trkpt lat="-27.2744389" lon="151.290064">
  <ele>396.11</ele>
  <time>2026-09-01T20:01:13Z</time>
  <course>10.69</course>
  <speed>0.01</speed>
  <fix>3d</fix>
</trkpt>
<trkpt lat="-27.2744389" lon="151.290064">
  <ele>395.29</ele>
  <time>2026-09-01T20:01:13Z</time>
  <course>130.75</course>
  <speed>0.0</speed>
  <fix>3d</fix>
</trkpt>
<trkpt lat="-27.2744389" lon="151.290064">
  <ele>396.17</ele>
  <time>2026-09-01T20:01:13Z</time>
  <course>10.69</course>
  <speed>0.01</speed>
  <fix>3d</fix>
</trkpt>
<trkpt lat="-27.2744389" lon="151.290064">
  <ele>396.35</ele>
  <time>2026-09-01T20:01:14Z</time>
  <course>10.69</course>
  <speed>0.01</speed>
  <fix>3d</fix>
</trkpt>
<trkpt lat="-27.2744389" lon="151.290064">
  <ele>395.78</ele>
  <time>2026-09-01T20:01:14Z</time>
  <course>246.0</course>
  <speed>0.0</speed>
  <fix>3d</fix>
</trkpt>
<trkpt lat="-27.2744389" lon="151.290064">
  <ele>396.44</ele>
  <time>2026-09-01T20:01:14Z</time>
  <course>10.69</course>
  <speed>0.01</speed>
  <fix>3d</fix>
</trkpt>
<trkpt lat="-27.2744389" lon="151.290064">
  <ele>396.6</ele>
  <time>2026-09-01T20:01:14Z</time>
  <course>10.68</course>
  <speed>0.01</speed>
  <fix>3d</fix>
</trkpt>
<trkpt lat="-27.2744389" lon="151.290064">
  <ele>395.78</ele>
  <time>2026-09-01T20:01:14Z</time>
  <course>246.0</course>
  <speed>0.0</speed>
  <fix>3d</fix>
</trkpt>
<trkpt lat="-27.2744389" lon="151.290064">
  <ele>396.66</ele>
  <time>2026-09-01T20:01:14Z</time>
  <course>10.68</course>
  <speed>0.01</speed>
  <fix>3d</fix>
</trkpt>
<trkpt lat="-27.2744389" lon="151.290064">
  <ele>396.85</ele>
  <time>2026-09-01T20:01:14Z</time>
  <course>10.67</course>
  <speed>0.01</speed>
  <fix>3d</fix>
</trkpt>
<trkpt lat="-27.2744389" lon="151.290064">
  <ele>396.28</ele>
  <time>2026-09-01T20:01:14Z</time>
  <course>252.47</course>
  <speed>0.0</speed>
  <fix>3d</fix>
</trkpt>
<trkpt lat="-27.2744389" lon="151.290064">
  <ele>396.86</ele>
  <time>2026-09-01T20:01:14Z</time>
  <course>10.67</course>
  <speed>0.01</speed>
  <fix>3d</fix>
</trkpt>
<trkpt lat="-27.2744389" lon="151.290064">
  <ele>397.1</ele>
  <time>2026-09-01T20:01:14Z</time>
  <course>10.66</course>
  <speed>0.01</speed>
  <fix>3d</fix>
</trkpt>
<trkpt lat="-27.2744389" lon="151.290064">
  <ele>396.28</ele>
  <time>2026-09-01T20:01:14Z</time>
  <course>252.47</course>
  <speed>0.0</speed>
  <fix>3d</fix>
</trkpt>
<trkpt lat="-27.2744389" lon="151.290064">
  <ele>397.13</ele>
  <time>2026-09-01T20:01:14Z</time>
  <course>10.66</course>
  <speed>0.01</speed>
  <fix>3d</fix>
</trkpt>
<trkpt lat="-27.2744389" lon="151.290064">
  <ele>397.34</ele>
  <time>2026-09-01T20:01:14Z</time>
  <course>10.65</course>
  <speed>0.01</speed>
  <fix>3d</fix>
</trkpt>
<trkpt lat="-27.2744389" lon="151.290064">
  <ele>396.78</ele>
  <time>2026-09-01T20:01:14Z</time>
  <course>262.43</course>
  <speed>0.0</speed>
  <fix>3d</fix>
</trkpt>
<trkpt lat="-27.2744389" lon="151.290064">
  <ele>397.43</ele>
  <time>2026-09-01T20:01:14Z</time>
  <course>10.65</course>
  <speed>0.01</speed>
  <fix>3d</fix>
</trkpt>
<trkpt lat="-27.2744389" lon="151.290064">
  <ele>397.59</ele>
  <time>2026-09-01T20:01:14Z</time>
  <course>10.64</course>
  <speed>0.01</speed>
  <fix>3d</fix>
</trkpt>
<trkpt lat="-27.2744389" lon="151.290064">
  <ele>396.78</ele>
  <time>2026-09-01T20:01:14Z</time>
  <course>262.43</course>
  <speed>0.0</speed>
  <fix>3d</fix>
</trkpt>
<trkpt lat="-27.2744389" lon="151.290064">
  <ele>397.67</ele>
  <time>2026-09-01T20:01:14Z</time>
  <course>10.64</course>
  <speed>0.01</speed>
  <fix>3d</fix>
</trkpt>
<trkpt lat="-27.2744389" lon="151.290064">
  <ele>397.84</ele>
  <time>2026-09-01T20:01:14Z</time>
  <course>10.64</course>
  <speed>0.01</speed>
  <fix>3d</fix>
</trkpt>
<trkpt lat="-27.2744389" lon="151.290064">
  <ele>397.28</ele>
  <time>2026-09-01T20:01:14Z</time>
  <course>274.1</course>
  <speed>0.0</speed>
  <fix>3d</fix>
</trkpt>
<trkpt lat="-27.2744389" lon="151.290064">
  <ele>397.93</ele>
  <time>2026-09-01T20:01:14Z</time>
  <course>10.64</course>
  <speed>0.01</speed>
  <fix>3d</fix>
</trkpt>
<trkpt lat="-27.2744389" lon="151.290064">
  <ele>398.09</ele>
  <time>2026-09-01T20:01:14Z</time>
  <course>10.64</course>
  <speed>0.01</speed>
  <fix>3d</fix>
</trkpt>
<trkpt lat="-27.2744389" lon="151.290064">
  <ele>397.28</ele>
  <time>2026-09-01T20:01:14Z</time>
  <course>274.1</course>
  <speed>0.0</speed>
  <fix>3d</fix>
</trkpt>
<trkpt lat="-27.2744389" lon="151.290064">
  <ele>398.17</ele>
  <time>2026-09-01T20:01:14Z</time>
  <course>10.64</course>
  <speed>0.01</speed>
  <fix>3d</fix>
</trkpt>
<trkpt lat="-27.2744389" lon="151.290064">
  <ele>398.34</ele>
  <time>2026-09-01T20:01:14Z</time>
  <course>10.63</course>
  <speed>0.01</speed>
  <fix>3d</fix>
</trkpt>
<trkpt lat="-27.2744389" lon="151.290064">
  <ele>397.78</ele>
  <time>2026-09-01T20:01:14Z</time>
  <course>299.96</course>
  <speed>0.0</speed>
  <fix>3d</fix>
</trkpt>
<trkpt lat="-27.2744389" lon="151.290064">
  <ele>398.43</ele>
  <time>2026-09-01T20:01:14Z</time>
  <course>10.63</course>
  <speed>0.01</speed>
  <fix>3d</fix>
</trkpt>
<trkpt lat="-27.2744389" lon="151.290064">
  <ele>398.59</ele>
  <time>2026-09-01T20:01:14Z</time>
  <course>10.63</course>
  <speed>0.01</speed>
  <fix>3d</fix>
</trkpt>
<trkpt lat="-27.2744389" lon="151.290064">
  <ele>397.78</ele>
  <time>2026-09-01T20:01:14Z</time>
  <course>299.96</course>
  <speed>0.0</speed>
  <fix>3d</fix>
</trkpt>
<trkpt lat="-27.2744389" lon="151.290064">
  <ele>398.68</ele>
  <time>2026-09-01T20:01:14Z</time>
  <course>10.63</course>
  <speed>0.01</speed>
  <fix>3d</fix>
</trkpt>
<trkpt lat="-27.2744389" lon="151.290064">
  <ele>398.84</ele>
  <time>2026-09-01T20:01:14Z</time>
  <course>10.64</course>
  <speed>0.01</speed>
  <fix>3d</fix>
</trkpt>
<trkpt lat="-27.2744389" lon="151.290064">
  <ele>398.28</ele>
  <time>2026-09-01T20:01:14Z</time>
  <course>318.58</course>
  <speed>0.0</speed>
  <fix>3d</fix>
</trkpt>
<trkpt lat="-27.2744389" lon="151.290064">
  <ele>398.93</ele>
  <time>2026-09-01T20:01:14Z</time>
  <course>10.64</course>
  <speed>0.0</speed>
  <fix>3d</fix>
</trkpt>
<trkpt lat="-27.2744389" lon="151.290064">
  <ele>399.09</ele>
  <time>2026-09-01T20:01:14Z</time>
  <course>10.65</course>
  <speed>0.0</speed>
  <fix>3d</fix>
</trkpt>
<trkpt lat="-27.2744389" lon="151.290064">
  <ele>398.28</ele>
  <time>2026-09-01T20:01:14Z</time>
  <course>318.58</course>
  <speed>0.0</speed>
  <fix>3d</fix>
</trkpt>
<trkpt lat="-27.2744389" lon="151.290064">
  <ele>399.14</ele>
  <time>2026-09-01T20:01:14Z</time>
  <course>10.65</course>
  <speed>0.0</speed>
  <fix>3d</fix>
</trkpt>
<trkpt lat="-27.2744389" lon="151.290064">
  <ele>399.34</ele>
  <time>2026-09-01T20:01:14Z</time>
  <course>10.67</course>
  <speed>0.0</speed>
  <fix>3d</fix>
</trkpt>
<trkpt lat="-27.2744389" lon="151.290064">
  <ele>398.78</ele>
  <time>2026-09-01T20:01:14Z</time>
  <course>329.62</course>
  <speed>0.0</speed>
  <fix>3d</fix>
</trkpt>
<trkpt lat="-27.2744389" lon="151.290064">
  <ele>399.43</ele>
  <time>2026-09-01T20:01:14Z</time>
  <course>10.67</course>
  <speed>0.0</speed>
  <fix>3d</fix>
</trkpt>
<trkpt lat="-27.2744389" lon="151.290064">
  <ele>399.59</ele>
  <time>2026-09-01T20:01:14Z</time>
  <course>10.67</course>
  <speed>0.0</speed>
  <fix>3d</fix>
</trkpt>
<trkpt lat="-27.2744389" lon="151.290064">
  <ele>398.78</ele>
  <time>2026-09-01T20:01:14Z</time>
  <course>329.62</course>
  <speed>0.0</speed>
  <fix>3d</fix>
</trkpt>
<trkpt lat="-27.2744389" lon="151.290064">
  <ele>399.6</ele>
  <time>2026-09-01T20:01:14Z</time>
  <course>10.67</course>
  <speed>0.0</speed>
  <fix>3d</fix>
</trkpt>
<trkpt lat="-27.2744389" lon="151.290064">
  <ele>399.84</ele>
  <time>2026-09-01T20:01:14Z</time>
  <course>10.67</course>
  <speed>0.0</speed>
  <fix>3d</fix>
</trkpt>
<trkpt lat="-27.2744389" lon="151.290064">
  <ele>399.28</ele>
  <time>2026-09-01T20:01:14Z</time>
  <course>334.38</course>
  <speed>0.0</speed>
  <fix>3d</fix>
</trkpt>
<trkpt lat="-27.2744389" lon="151.290064">
  <ele>399.87</ele>
  <time>2026-09-01T20:01:14Z</time>
  <course>10.67</course>
  <speed>0.0</speed>
  <fix>3d</fix>
</trkpt>
<trkpt lat="-27.2744389" lon="151.290064">
  <ele>400.09</ele>
  <time>2026-09-01T20:01:14Z</time>
  <course>10.66</course>
  <speed>0.0</speed>
  <fix>3d</fix>
</trkpt>
<trkpt lat="-27.2744389" lon="151.290064">
  <ele>399.28</ele>
  <time>2026-09-01T20:01:14Z</time>
  <course>334.38</course>
  <speed>0.0</speed>
  <fix>3d</fix>
</trkpt>
<trkpt lat="-27.2744389" lon="151.290064">
  <ele>400.18</ele>
  <time>2026-09-01T20:01:14Z</time>
  <course>10.66</course>
  <speed>0.0</speed>
  <fix>3d</fix>
</trkpt>
<trkpt lat="-27.2744389" lon="151.290064">
  <ele>400.34</ele>
  <time>2026-09-01T20:01:14Z</time>
  <course>10.65</course>
  <speed>0.0</speed>
  <fix>3d</fix>
</trkpt>
<trkpt lat="-27.2744389" lon="151.290064">
  <ele>399.78</ele>
  <time>2026-09-01T20:01:14Z</time>
  <course>334.42</course>
  <speed>0.0</speed>
  <fix>3d</fix>
</trkpt>
<trkpt lat="-27.2744389" lon="151.290064">
  <ele>400.38</ele>
  <time>2026-09-01T20:01:14Z</time>
  <course>10.65</course>
  <speed>0.0</speed>
  <fix>3d</fix>
</trkpt>
<trkpt lat="-27.2744389" lon="151.290064">
  <ele>400.59</ele>
  <time>2026-09-01T20:01:14Z</time>
  <course>10.64</course>
  <speed>0.0</speed>
  <fix>3d</fix>
</trkpt>
<trkpt lat="-27.2744389" lon="151.290064">
  <ele>399.78</ele>
  <time>2026-09-01T20:01:14Z</time>
  <course>334.42</course>
  <speed>0.0</speed>
  <fix>3d</fix>
</trkpt>
<trkpt lat="-27.2744389" lon="151.290064">
  <ele>400.68</ele>
  <time>2026-09-01T20:01:14Z</time>
  <course>10.64</course>
  <speed>0.0</speed>
  <fix>3d</fix>
</trkpt>
<trkpt lat="-27.2744389" lon="151.290064">
  <ele>400.84</ele>
  <time>2026-09-01T20:01:14Z</time>
  <course>10.63</course>
  <speed>0.0</speed>
  <fix>3d</fix>
</trkpt>
<trkpt lat="-27.2744389" lon="151.290064">
  <ele>400.29</ele>
  <time>2026-09-01T20:01:14Z</time>
  <course>333.14</course>
  <speed>0.0</speed>
  <fix>3d</fix>
</trkpt>
<trkpt lat="-27.2744389" lon="151.290064">
  <ele>400.93</ele>
  <time>2026-09-01T20:01:14Z</time>
  <course>10.63</course>
  <speed>0.0</speed>
  <fix>3d</fix>
</trkpt>
<trkpt lat="-27.2744389" lon="151.290064">
  <ele>401.09</ele>
  <time>2026-09-01T20:01:14Z</time>
  <course>10.62</course>
  <speed>0.0</speed>
  <fix>3d</fix>
</trkpt>
<trkpt lat="-27.2744389" lon="151.290064">
  <ele>400.29</ele>
  <time>2026-09-01T20:01:14Z</time>
  <course>333.14</course>
  <speed>0.0</speed>
  <fix>3d</fix>
</trkpt>
<trkpt lat="-27.2744389" lon="151.290064">
  <ele>401.18</ele>
  <time>2026-09-01T20:01:14Z</time>
  <course>10.61</course>
  <speed>0.0</speed>
  <fix>3d</fix>
</trkpt>
<trkpt lat="-27.2744389" lon="151.290064">
  <ele>401.33</ele>
  <time>2026-09-01T20:01:14Z</time>
  <course>10.6</course>
  <speed>0.0</speed>
  <fix>3d</fix>
</trkpt>
<trkpt lat="-27.2744389" lon="151.290064">
  <ele>400.79</ele>
  <time>2026-09-01T20:01:14Z</time>
  <course>335.34</course>
  <speed>0.01</speed>
  <fix>3d</fix>
</trkpt>
<trkpt lat="-27.2744389" lon="151.290064">
  <ele>401.42</ele>
  <time>2026-09-01T20:01:14Z</time>
  <course>10.6</course>
  <speed>0.0</speed>
  <fix>3d</fix>
</trkpt>
<trkpt lat="-27.2744389" lon="151.290064">
  <ele>401.57</ele>
  <time>2026-09-01T20:01:14Z</time>
  <course>10.59</course>
  <speed>0.0</speed>
  <fix>3d</fix>
</trkpt>
<trkpt lat="-27.2744389" lon="151.290064">
  <ele>400.79</ele>
  <time>2026-09-01T20:01:14Z</time>
  <course>335.34</course>
  <speed>0.01</speed>
  <fix>3d</fix>
</trkpt>
<trkpt lat="-27.2744389" lon="151.290064">
  <ele>401.65</ele>
  <time>2026-09-01T20:01:14Z</time>
  <course>10.59</course>
  <speed>0.0</speed>
  <fix>3d</fix>
</trkpt>
<trkpt lat="-27.2744389" lon="151.290064">
  <ele>401.8</ele>
  <time>2026-09-01T20:01:14Z</time>
  <course>10.59</course>
  <speed>0.0</speed>
  <fix>3d</fix>
</trkpt>
<trkpt lat="-27.2744389" lon="151.290064">
  <ele>401.28</ele>
  <time>2026-09-01T20:01:14Z</time>
  <course>337.93</course>
  <speed>0.01</speed>
  <fix>3d</fix>
</trkpt>
<trkpt lat="-27.2744389" lon="151.290064">
  <ele>401.88</ele>
  <time>2026-09-01T20:01:14Z</time>
  <course>10.58</course>
  <speed>0.0</speed>
  <fix>3d</fix>
</trkpt>
<trkpt lat="-27.2744389" lon="151.290064">
  <ele>402.02</ele>
  <time>2026-09-01T20:01:14Z</time>
  <course>10.58</course>
  <speed>0.01</speed>
  <fix>3d</fix>
</trkpt>
<trkpt lat="-27.2744389" lon="151.290064">
  <ele>401.28</ele>
  <time>2026-09-01T20:01:14Z</time>
  <course>337.93</course>
  <speed>0.01</speed>
  <fix>3d</fix>
</trkpt>
<trkpt lat="-27.2744389" lon="151.290064">
  <ele>402.03</ele>
  <time>2026-09-01T20:01:14Z</time>
  <course>10.58</course>
  <speed>0.01</speed>
  <fix>3d</fix>
</trkpt>
<trkpt lat="-27.2744389" lon="151.290064">
  <ele>402.23</ele>
  <time>2026-09-01T20:01:14Z</time>
  <course>10.58</course>
  <speed>0.01</speed>
  <fix>3d</fix>
</trkpt>
<trkpt lat="-27.2744389" lon="151.290064">
  <ele>401.75</ele>
  <time>2026-09-01T20:01:14Z</time>
  <course>329.9</course>
  <speed>0.01</speed>
  <fix>3d</fix>
</trkpt>
<trkpt lat="-27.2744389" lon="151.290064">
  <ele>402.25</ele>
  <time>2026-09-01T20:01:14Z</time>
  <course>10.58</course>
  <speed>0.01</speed>
  <fix>3d</fix>
</trkpt>
<trkpt lat="-27.2744389" lon="151.290064">
  <ele>402.42</ele>
  <time>2026-09-01T20:01:14Z</time>
  <course>10.58</course>
  <speed>0.02</speed>
  <fix>3d</fix>
</trkpt>
<trkpt lat="-27.2744389" lon="151.290064">
  <ele>401.75</ele>
  <time>2026-09-01T20:01:14Z</time>
  <course>329.9</course>
  <speed>0.01</speed>
  <fix>3d</fix>
</trkpt>
<trkpt lat="-27.2744389" lon="151.290064">
  <ele>402.59</ele>
  <time>2026-09-01T20:01:14Z</time>
  <course>10.58</course>
  <speed>0.04</speed>
  <fix>3d</fix>
</trkpt>
<trkpt lat="-27.2744389" lon="151.290064">
  <ele>402.18</ele>
  <time>2026-09-01T20:01:14Z</time>
  <course>257.85</course>
  <speed>0.0</speed>
  <fix>3d</fix>
</trkpt>
<trkpt lat="-27.274439" lon="151.290064">
  <ele>402.74</ele>
  <time>2026-09-01T20:01:14Z</time>
  <course>10.57</course>
  <speed>0.05</speed>
  <fix>3d</fix>
</trkpt>
<trkpt lat="-27.2744389" lon="151.290064">
  <ele>402.18</ele>
  <time>2026-09-01T20:01:14Z</time>
  <course>257.85</course>
  <speed>0.0</speed>
  <fix>3d</fix>
</trkpt>
<trkpt lat="-27.274439" lon="151.290064">
  <ele>402.87</ele>
  <time>2026-09-01T20:01:14Z</time>
  <course>10.55</course>
  <speed>0.06</speed>
  <fix>3d</fix>
</trkpt>
<trkpt lat="-27.2744389" lon="151.290064">
  <ele>402.54</ele>
  <time>2026-09-01T20:01:14Z</time>
  <course>203.27</course>
  <speed>0.02</speed>
  <fix>3d</fix>
</trkpt>
<trkpt lat="-27.274439" lon="151.290064">
  <ele>402.98</ele>
  <time>2026-09-01T20:01:14Z</time>
  <course>10.48</course>
  <speed>0.03</speed>
  <fix>3d</fix>
</trkpt>
<trkpt lat="-27.2744389" lon="151.290064">
  <ele>402.54</ele>
  <time>2026-09-01T20:01:14Z</time>
  <course>203.27</course>
  <speed>0.02</speed>
  <fix>3d</fix>
</trkpt>
<trkpt lat="-27.274439" lon="151.290064">
  <ele>403.06</ele>
  <time>2026-09-01T20:01:14Z</time>
  <course>10.42</course>
  <speed>0.0412310562561766</speed>
  <fix>3d</fix>
</trkpt>
<trkpt lat="-27.2744389" lon="151.290064">
  <ele>402.82</ele>
  <time>2026-09-01T20:01:14Z</time>
  <course>196.72</course>
  <speed>0.03</speed>
  <fix>3d</fix>
</trkpt>
<trkpt lat="-27.2744389" lon="151.290064">
  <ele>403.12</ele>
  <time>2026-09-01T20:01:14Z</time>
  <course>10.39</course>
  <speed>0.194164878389476</speed>
  <fix>3d</fix>
</trkpt>
<trkpt lat="-27.2744389" lon="151.290064">
  <ele>402.82</ele>
  <time>2026-09-01T20:01:14Z</time>
  <course>196.72</course>
  <speed>0.03</speed>
  <fix>3d</fix>
</trkpt>
<trkpt lat="-27.2744387" lon="151.290064">
  <ele>403.15</ele>
  <time>2026-09-01T20:01:14Z</time>
  <course>10.4</course>
  <speed>0.39812058474788764</speed>
  <fix>3d</fix>
</trkpt>
<trkpt lat="-27.2744389" lon="151.290064">
  <ele>403.01</ele>
  <time>2026-09-01T20:01:14Z</time>
  <course>5.72</course>
  <speed>0.08</speed>
  <fix>3d</fix>
</trkpt>
<trkpt lat="-27.2744382" lon="151.2900641">
  <ele>403.17</ele>
  <time>2026-09-01T20:01:14Z</time>
  <course>10.44</course>
  <speed>0.6806614430096655</speed>
  <fix>3d</fix>
</trkpt>
<trkpt lat="-27.2744389" lon="151.290064">
  <ele>403.01</ele>
  <time>2026-09-01T20:01:14Z</time>
  <course>5.72</course>
  <speed>0.08</speed>
  <fix>3d</fix>
</trkpt>
<trkpt lat="-27.2744375" lon="151.2900643">
  <ele>403.16</ele>
  <time>2026-09-01T20:01:14Z</time>
  <course>10.43</course>
  <speed>1.016070863670443</speed>
  <fix>3d</fix>
</trkpt>
<trkpt lat="-27.2744385" lon="151.290064">
  <ele>403.11</ele>
  <time>2026-09-01T20:01:14Z</time>
  <course>7.21</course>
  <speed>0.44</speed>
  <fix>3d</fix>
</trkpt>
<trkpt lat="-27.2744364" lon="151.2900645">
  <ele>403.15</ele>
  <time>2026-09-01T20:01:14Z</time>
  <course>10.43</course>
  <speed>1.4123030836190935</speed>
  <fix>3d</fix>
</trkpt>
<trkpt lat="-27.2744385" lon="151.290064">
  <ele>403.11</ele>
  <time>2026-09-01T20:01:14Z</time>
  <course>7.21</course>
  <speed>0.44</speed>
  <fix>3d</fix>
</trkpt>
<trkpt lat="-27.2744349" lon="151.2900648">
  <ele>403.13</ele>
  <time>2026-09-01T20:01:14Z</time>
  <course>10.5</course>
  <speed>1.88904737897174</speed>
  <fix>3d</fix>
</trkpt>
<trkpt lat="-27.2744372" lon="151.2900641">
  <ele>403.13</ele>
  <time>2026-09-01T20:01:14Z</time>
  <course>7.47</course>
  <speed>1.04</speed>
  <fix>3d</fix>
</trkpt>
<trkpt lat="-27.274433" lon="151.2900651">
  <ele>403.1</ele>
  <time>2026-09-01T20:01:14Z</time>
  <course>10.47</course>
  <speed>2.408692591427972</speed>
  <fix>3d</fix>
</trkpt>
<trkpt lat="-27.2744372" lon="151.2900641">
  <ele>403.13</ele>
  <time>2026-09-01T20:01:14Z</time>
  <course>7.47</course>
  <speed>1.04</speed>
  <fix>3d</fix>
</trkpt>
<trkpt lat="-27.2744306" lon="151.2900656">
  <ele>403.07</ele>
  <time>2026-09-01T20:01:14Z</time>
  <course>10.36</course>
  <speed>2.9775493278869454</speed>
  <fix>3d</fix>
</trkpt>
<trkpt lat="-27.2744346" lon="151.2900645">
  <ele>403.1</ele>
  <time>2026-09-01T20:01:14Z</time>
  <course>7.75</course>
  <speed>1.9</speed>
  <fix>3d</fix>
</trkpt>
<trkpt lat="-27.2744278" lon="151.2900661">
  <ele>403.03</ele>
  <time>2026-09-01T20:01:14Z</time>
  <course>10.22</course>
  <speed>3.574185221837279</speed>
  <fix>3d</fix>
</trkpt>
<trkpt lat="-27.2744346" lon="151.2900645">
  <ele>403.1</ele>
  <time>2026-09-01T20:01:14Z</time>
  <course>7.75</course>
  <speed>1.9</speed>
  <fix>3d</fix>
</trkpt>
<trkpt lat="-27.2744243" lon="151.2900667">
  <ele>403.01</ele>
  <time>2026-09-01T20:01:14Z</time>
  <course>9.82</course>
  <speed>4.180729601397345</speed>
  <fix>3d</fix>
</trkpt>
<trkpt lat="-27.2744302" lon="151.2900651">
  <ele>403.05</ele>
  <time>2026-09-01T20:01:14Z</time>
  <course>8.02</course>
  <speed>2.98</speed>
  <fix>3d</fix>
</trkpt>
<trkpt lat="-27.2744204" lon="151.2900674">
  <ele>402.99</ele>
  <time>2026-09-01T20:01:14Z</time>
  <course>9.53</course>
  <speed>4.787316576120698</speed>
  <fix>3d</fix>
</trkpt>
<trkpt lat="-27.2744302" lon="151.2900651">
  <ele>403.05</ele>
  <time>2026-09-01T20:01:14Z</time>
  <course>8.02</course>
  <speed>2.98</speed>
  <fix>3d</fix>
</trkpt>
<trkpt lat="-27.2744159" lon="151.2900681">
  <ele>402.97</ele>
  <time>2026-09-01T20:01:14Z</time>
  <course>9.16</course>
  <speed>5.390667862148437</speed>
  <fix>3d</fix>
</trkpt>
<trkpt lat="-27.2744239" lon="151.2900662">
  <ele>403.0</ele>
  <time>2026-09-01T20:01:14Z</time>
  <course>8.17</course>
  <speed>4.16</speed>
  <fix>3d</fix>
</trkpt>
<trkpt lat="-27.2744109" lon="151.2900689">
  <ele>402.96</ele>
  <time>2026-09-01T20:01:14Z</time>
  <course>8.82</course>
  <speed>5.985866687456379</speed>
  <fix>3d</fix>
</trkpt>
<trkpt lat="-27.2744239" lon="151.2900662">
  <ele>403.0</ele>
  <time>2026-09-01T20:01:14Z</time>
  <course>8.17</course>
  <speed>4.16</speed>
  <fix>3d</fix>
</trkpt>
<trkpt lat="-27.2744054" lon="151.2900697">
  <ele>402.96</ele>
  <time>2026-09-01T20:01:14Z</time>
  <course>8.57</course>
  <speed>6.5894233435104175</speed>
  <fix>3d</fix>
</trkpt>
<trkpt lat="-27.2744154" lon="151.2900675">
  <ele>402.97</ele>
  <time>2026-09-01T20:01:14Z</time>
  <course>8.22</course>
  <speed>5.38</speed>
  <fix>3d</fix>
</trkpt>
<trkpt lat="-27.2743993" lon="151.2900707">
  <ele>402.96</ele>
  <time>2026-09-01T20:01:14Z</time>
  <course>8.5</course>
  <speed>7.201444299583244</speed>
  <fix>3d</fix>
</trkpt>
<trkpt lat="-27.2744154" lon="151.2900675">
  <ele>402.97</ele>
  <time>2026-09-01T20:01:14Z</time>
  <course>8.22</course>
  <speed>5.38</speed>
  <fix>3d</fix>
</trkpt>
<trkpt lat="-27.2743927" lon="151.2900717">
  <ele>402.97</ele>
  <time>2026-09-01T20:01:14Z</time>
  <course>8.5</course>
  <speed>7.786886412424417</speed>
  <fix>3d</fix>
</trkpt>
<trkpt lat="-27.2744047" lon="151.2900693">
  <ele>402.97</ele>
  <time>2026-09-01T20:01:14Z</time>
  <course>8.2</course>
  <speed>6.59</speed>
  <fix>3d</fix>
</trkpt>
<trkpt lat="-27.2743855" lon="151.2900728">
  <ele>402.98</ele>
  <time>2026-09-01T20:01:14Z</time>
  <course>8.53</course>
  <speed>8.382225241545349</speed>
  <fix>3d</fix>
</trkpt>
<trkpt lat="-27.2744047" lon="151.2900693">
  <ele>402.97</ele>
  <time>2026-09-01T20:01:14Z</time>
  <course>8.2</course>
  <speed>6.59</speed>
  <fix>3d</fix>
</trkpt>
<trkpt lat="-27.2743778" lon="151.290074">
  <ele>402.99</ele>
  <time>2026-09-01T20:01:14Z</time>
  <course>8.5</course>
  <speed>8.976107174048225</speed>
  <fix>3d</fix>
</trkpt>
<trkpt lat="-27.2743919" lon="151.2900713">
  <ele>402.97</ele>
  <time>2026-09-01T20:01:14Z</time>
  <course>8.21</course>
  <speed>7.8</speed>
  <fix>3d</fix>
</trkpt>
<trkpt lat="-27.2743696" lon="151.2900752">
  <ele>403.01</ele>
  <time>2026-09-01T20:01:14Z</time>
  <course>8.38</course>
  <speed>9.551680480418092</speed>
  <fix>3d</fix>
</trkpt>
<trkpt lat="-27.2743919" lon="151.2900713">
  <ele>402.97</ele>
  <time>2026-09-01T20:01:14Z</time>
  <course>8.21</course>
  <speed>7.8</speed>
  <fix>3d</fix>
</trkpt>
<trkpt lat="-27.2743608" lon="151.2900766">
  <ele>403.02</ele>
  <time>2026-09-01T20:01:14Z</time>
  <course>8.36</course>
  <speed>10.127255304375415</speed>
  <fix>3d</fix>
</trkpt>
<trkpt lat="-27.274377" lon="151.2900737">
  <ele>403.0</ele>
  <time>2026-09-01T20:01:14Z</time>
  <course>8.24</course>
  <speed>8.98</speed>
  <fix>3d</fix>
</trkpt>
<trkpt lat="-27.2743517" lon="151.290078">
  <ele>403.05</ele>
  <time>2026-09-01T20:01:14Z</time>
  <course>8.26</course>
  <speed>10.681596322647659</speed>
  <fix>3d</fix>
</trkpt>
<trkpt lat="-27.274377" lon="151.2900737">
  <ele>403.0</ele>
  <time>2026-09-01T20:01:14Z</time>
  <course>8.24</course>
  <speed>8.98</speed>
  <fix>3d</fix>
</trkpt>
<trkpt lat="-27.274342" lon="151.2900796">
  <ele>403.07</ele>
  <time>2026-09-01T20:01:14Z</time>
  <course>8.19</course>
  <speed>11.22605006224362</speed>
  <fix>3d</fix>
</trkpt>
<trkpt lat="-27.27436" lon="151.2900766">
  <ele>403.03</ele>
  <time>2026-09-01T20:01:14Z</time>
  <course>8.26</course>
  <speed>10.14</speed>
  <fix>3d</fix>
</trkpt>
<trkpt lat="-27.2743318" lon="151.2900812">
  <ele>403.1</ele>
  <time>2026-09-01T20:01:14Z</time>
  <course>8.23</course>
  <speed>11.760612228961552</speed>
  <fix>3d</fix>
</trkpt>
<trkpt lat="-27.27436" lon="151.2900766">
  <ele>403.03</ele>
  <time>2026-09-01T20:01:14Z</time>
  <course>8.26</course>
  <speed>10.14</speed>
  <fix>3d</fix>
</trkpt>
<trkpt lat="-27.2743212" lon="151.2900829">
  <ele>403.13</ele>
  <time>2026-09-01T20:01:14Z</time>
  <course>8.29</course>
  <speed>12.275381867787251</speed>
  <fix>3d</fix>
</trkpt>
<trkpt lat="-27.274341" lon="151.2900797">
  <ele>403.08</ele>
  <time>2026-09-01T20:01:14Z</time>
  <course>8.26</course>
  <speed>11.25</speed>
  <fix>3d</fix>
</trkpt>
<trkpt lat="-27.2743101" lon="151.2900847">
  <ele>403.16</ele>
  <time>2026-09-01T20:01:14Z</time>
  <course>8.25</course>
  <speed>12.780254301069288</speed>
  <fix>3d</fix>
</trkpt>
<trkpt lat="-27.274341" lon="151.2900797">
  <ele>403.08</ele>
  <time>2026-09-01T20:01:14Z</time>
  <course>8.26</course>
  <speed>11.25</speed>
  <fix>3d</fix>
</trkpt>
<trkpt lat="-27.2742986" lon="151.2900865">
  <ele>403.2</ele>
  <time>2026-09-01T20:01:14Z</time>
  <course>8.33</course>
  <speed>13.275228811587391</speed>
  <fix>3d</fix>
</trkpt>
<trkpt lat="-27.27432" lon="151.2900832">
  <ele>403.14</ele>
  <time>2026-09-01T20:01:14Z</time>
  <course>8.24</course>
  <speed>12.32</speed>
  <fix>3d</fix>
</trkpt>
<trkpt lat="-27.2742866" lon="151.2900885">
  <ele>403.24</ele>
  <time>2026-09-01T20:01:14Z</time>
  <course>8.35</course>
  <speed>13.750407266695778</speed>
  <fix>3d</fix>
</trkpt>
<trkpt lat="-27.27432" lon="151.2900832">
  <ele>403.14</ele>
  <time>2026-09-01T20:01:14Z</time>
  <course>8.24</course>
  <speed>12.32</speed>
  <fix>3d</fix>
</trkpt>
<trkpt lat="-27.2742742" lon="151.2900905">
  <ele>403.28</ele>
  <time>2026-09-01T20:01:14Z</time>
  <course>8.27</course>
  <speed>14.205791072657657</speed>
  <fix>3d</fix>
</trkpt>
<trkpt lat="-27.2742971" lon="151.2900869">
  <ele>403.22</ele>
  <time>2026-09-01T20:01:14Z</time>
  <course>8.24</course>
  <speed>13.33</speed>
  <fix>3d</fix>
</trkpt>
<trkpt lat="-27.2742614" lon="151.2900926">
  <ele>403.32</ele>
  <time>2026-09-01T20:01:14Z</time>
  <course>8.14</course>
  <speed>14.620157317895043</speed>
  <fix>3d</fix>
</trkpt>
<trkpt lat="-27.2742971" lon="151.2900869">
  <ele>403.22</ele>
  <time>2026-09-01T20:01:14Z</time>
  <course>8.24</course>
  <speed>13.33</speed>
  <fix>3d</fix>
</trkpt>
<trkpt lat="-27.2742482" lon="151.2900947">
  <ele>403.36</ele>
  <time>2026-09-01T20:01:14Z</time>
  <course>8.03</course>
  <speed>14.985039205821252</speed>
  <fix>3d</fix>
</trkpt>
<trkpt lat="-27.2742725" lon="151.2900909">
  <ele>403.3</ele>
  <time>2026-09-01T20:01:14Z</time>
  <course>8.26</course>
  <speed>14.25</speed>
  <fix>3d</fix>
</trkpt>
<trkpt lat="-27.2742348" lon="151.2900969">
  <ele>403.4</ele>
  <time>2026-09-01T20:01:14Z</time>
  <course>8.01</course>
  <speed>15.327263291272843</speed>
  <fix>3d</fix>
</trkpt>
<trkpt lat="-27.2742725" lon="151.2900909">
  <ele>403.3</ele>
  <time>2026-09-01T20:01:14Z</time>
  <course>8.26</course>
  <speed>14.25</speed>
  <fix>3d</fix>
</trkpt>
<trkpt lat="-27.274221" lon="151.2900992">
  <ele>403.44</ele>
  <time>2026-09-01T20:01:14Z</time>
  <course>8.12</course>
  <speed>15.629900831419246</speed>
  <fix>3d</fix>
</trkpt>
<trkpt lat="-27.2742464" lon="151.2900952">
  <ele>403.38</ele>
  <time>2026-09-01T20:01:14Z</time>
  <course>8.27</course>
  <speed>15.05</speed>
  <fix>3d</fix>
</trkpt>
<trkpt lat="-27.2742071" lon="151.2901015">
  <ele>403.47</ele>
  <time>2026-09-01T20:01:14Z</time>
  <course>8.09</course>
  <speed>15.901421320121042</speed>
  <fix>3d</fix>
</trkpt>
<trkpt lat="-27.2742464" lon="151.2900952">
  <ele>403.38</ele>
  <time>2026-09-01T20:01:14Z</time>
  <course>8.27</course>
  <speed>15.05</speed>
  <fix>3d</fix>
</trkpt>
<trkpt lat="-27.2741928" lon="151.2901038">
  <ele>403.49</ele>
  <time>2026-09-01T20:01:14Z</time>
  <course>8.06</course>
  <speed>16.17436552078628</speed>
  <fix>3d</fix>
</trkpt>
<trkpt lat="-27.2742191" lon="151.2900996">
  <ele>403.45</ele>
  <time>2026-09-01T20:01:14Z</time>
  <course>8.25</course>
  <speed>15.71</speed>
  <fix>3d</fix>
</trkpt>
<trkpt lat="-27.2741783" lon="151.2901061">
  <ele>403.52</ele>
  <time>2026-09-01T20:01:14Z</time>
  <course>8.07</course>
  <speed>16.447309810421885</speed>
  <fix>3d</fix>
</trkpt>
<trkpt lat="-27.2742191" lon="151.2900996">
  <ele>403.45</ele>
  <time>2026-09-01T20:01:14Z</time>
  <course>8.25</course>
  <speed>15.71</speed>
  <fix>3d</fix>
</trkpt>
<trkpt lat="-27.2741636" lon="151.2901085">
  <ele>403.54</ele>
  <time>2026-09-01T20:01:14Z</time>
  <course>8.12</course>
  <speed>16.70893473564368</speed>
  <fix>3d</fix>
</trkpt>
<trkpt lat="-27.2741907" lon="151.2901042">
  <ele>403.51</ele>
  <time>2026-09-01T20:01:14Z</time>
  <course>8.22</course>
  <speed>16.27</speed>
  <fix>3d</fix>
</trkpt>
<trkpt lat="-27.2741486" lon="151.290111">
  <ele>403.56</ele>
  <time>2026-09-01T20:01:14Z</time>
  <course>8.2</course>
  <speed>16.96208124022521</speed>
  <fix>3d</fix>
</trkpt>
<trkpt lat="-27.2741907" lon="151.2901042">
  <ele>403.51</ele>
  <time>2026-09-01T20:01:14Z</time>
  <course>8.22</course>
  <speed>16.27</speed>
  <fix>3d</fix>
</trkpt>
<trkpt lat="-27.2741333" lon="151.2901135">
  <ele>403.59</ele>
  <time>2026-09-01T20:01:14Z</time>
  <course>8.17</course>
  <speed>17.225126995177714</speed>
  <fix>3d</fix>
</trkpt>
<trkpt lat="-27.2741613" lon="151.290109">
  <ele>403.56</ele>
  <time>2026-09-01T20:01:14Z</time>
  <course>8.21</course>
  <speed>16.81</speed>
  <fix>3d</fix>
</trkpt>
<trkpt lat="-27.2741178" lon="151.290116">
  <ele>403.61</ele>
  <time>2026-09-01T20:01:14Z</time>
  <course>8.13</course>
  <speed>17.466954514167604</speed>
  <fix>3d</fix>
</trkpt>
<trkpt lat="-27.2741613" lon="151.290109">
  <ele>403.56</ele>
  <time>2026-09-01T20:01:14Z</time>
  <course>8.21</course>
  <speed>16.81</speed>
  <fix>3d</fix>
</trkpt>
<trkpt lat="-27.2741021" lon="151.2901185">
  <ele>403.64</ele>
  <time>2026-09-01T20:01:14Z</time>
  <course>8.11</course>
  <speed>17.710203273819303</speed>
  <fix>3d</fix>
</trkpt>
<trkpt lat="-27.2741309" lon="151.290114">
  <ele>403.6</ele>
  <time>2026-09-01T20:01:14Z</time>
  <course>8.21</course>
  <speed>17.32</speed>
  <fix>3d</fix>
</trkpt>
<trkpt lat="-27.2740863" lon="151.2901211">
  <ele>403.66</ele>
  <time>2026-09-01T20:01:14Z</time>
  <course>8.13</course>
  <speed>17.94213198034169</speed>
  <fix>3d</fix>
</trkpt>
<trkpt lat="-27.2741309" lon="151.290114">
  <ele>403.6</ele>
  <time>2026-09-01T20:01:14Z</time>
  <course>8.21</course>
  <speed>17.32</speed>
  <fix>3d</fix>
</trkpt>
<trkpt lat="-27.2740702" lon="151.2901237">
  <ele>403.69</ele>
  <time>2026-09-01T20:01:14Z</time>
  <course>8.08</course>
  <speed>18.164162518541833</speed>
  <fix>3d</fix>
</trkpt>
<trkpt lat="-27.2740997" lon="151.290119">
  <ele>403.65</ele>
  <time>2026-09-01T20:01:14Z</time>
  <course>8.21</course>
  <speed>17.81</speed>
  <fix>3d</fix>
</trkpt>
<trkpt lat="-27.2740539" lon="151.2901263">
  <ele>403.72</ele>
  <time>2026-09-01T20:01:14Z</time>
  <course>8.03</course>
  <speed>18.386193189456048</speed>
  <fix>3d</fix>
</trkpt>
<trkpt lat="-27.2740997" lon="151.290119">
  <ele>403.65</ele>
  <time>2026-09-01T20:01:14Z</time>
  <course>8.21</course>
  <speed>17.81</speed>
  <fix>3d</fix>
</trkpt>
<trkpt lat="-27.2740374" lon="151.290129">
  <ele>403.75</ele>
  <time>2026-09-01T20:01:14Z</time>
  <course>8.0</course>
  <speed>18.60822398833376</speed>
  <fix>3d</fix>
</trkpt>
<trkpt lat="-27.2740676" lon="151.2901242">
  <ele>403.71</ele>
  <time>2026-09-01T20:01:14Z</time>
  <course>8.2</course>
  <speed>18.28</speed>
  <fix>3d</fix>
</trkpt>
<trkpt lat="-27.2740207" lon="151.2901317">
  <ele>403.78</ele>
  <time>2026-09-01T20:01:14Z</time>
  <course>7.98</course>
  <speed>18.820356000883724</speed>
  <fix>3d</fix>
</trkpt>
<trkpt lat="-27.2740676" lon="151.2901242">
  <ele>403.71</ele>
  <time>2026-09-01T20:01:14Z</time>
  <course>8.2</course>
  <speed>18.28</speed>
  <fix>3d</fix>
</trkpt>
<trkpt lat="-27.2740038" lon="151.2901345">
  <ele>403.8</ele>
  <time>2026-09-01T20:01:14Z</time>
  <course>8.0</course>
  <speed>19.032488013919778</speed>
  <fix>3d</fix>
</trkpt>
<trkpt lat="-27.2740346" lon="151.2901296">
  <ele>403.76</ele>
  <time>2026-09-01T20:01:14Z</time>
  <course>8.18</course>
  <speed>18.72</speed>
  <fix>3d</fix>
</trkpt>
<trkpt lat="-27.2739868" lon="151.2901372">
  <ele>403.83</ele>
  <time>2026-09-01T20:01:14Z</time>
  <course>8.01</course>
  <speed>19.233304448274094</speed>
  <fix>3d</fix>
</trkpt>
<trkpt lat="-27.2740346" lon="151.2901296">
  <ele>403.76</ele>
  <time>2026-09-01T20:01:14Z</time>
  <course>8.18</course>
  <speed>18.72</speed>
  <fix>3d</fix>
</trkpt>
<trkpt lat="-27.2739693" lon="151.29014">
  <ele>403.85</ele>
  <time>2026-09-01T20:01:14Z</time>
  <course>8.02</course>
  <speed>19.435537039145586</speed>
  <fix>3d</fix>
</trkpt>
<trkpt lat="-27.2740009" lon="151.290135">
  <ele>403.82</ele>
  <time>2026-09-01T20:01:14Z</time>
  <course>8.16</course>
  <speed>19.14</speed>
  <fix>3d</fix>
</trkpt>
<trkpt lat="-27.2739519" lon="151.2901428">
  <ele>403.87</ele>
  <time>2026-09-01T20:01:14Z</time>
  <course>8.13</course>
  <speed>19.62787049070785</speed>
  <fix>3d</fix>
</trkpt>
<trkpt lat="-27.2740009" lon="151.290135">
  <ele>403.82</ele>
  <time>2026-09-01T20:01:14Z</time>
  <course>8.16</course>
  <speed>19.14</speed>
  <fix>3d</fix>
</trkpt>
<trkpt lat="-27.2739343" lon="151.2901457">
  <ele>403.89</ele>
  <time>2026-09-01T20:01:14Z</time>
  <course>8.14</course>
  <speed>19.82020433799813</speed>
  <fix>3d</fix>
</trkpt>
<trkpt lat="-27.2739665" lon="151.2901406">
  <ele>403.87</ele>
  <time>2026-09-01T20:01:14Z</time>
  <course>8.14</course>
  <speed>19.54</speed>
  <fix>3d</fix>
</trkpt>
<trkpt lat="-27.2739166" lon="151.2901486">
  <ele>403.91</ele>
  <time>2026-09-01T20:01:14Z</time>
  <course>8.12</course>
  <speed>20.012538569606807</speed>
  <fix>3d</fix>
</trkpt>
<trkpt lat="-27.2739665" lon="151.2901406">
  <ele>403.87</ele>
  <time>2026-09-01T20:01:14Z</time>
  <course>8.14</course>
  <speed>19.54</speed>
  <fix>3d</fix>
</trkpt>
<trkpt lat="-27.2738986" lon="151.2901515">
  <ele>403.92</ele>
  <time>2026-09-01T20:01:14Z</time>
  <course>8.1</course>
  <speed>20.19497462241535</speed>
  <fix>3d</fix>
</trkpt>
<trkpt lat="-27.2739314" lon="151.2901462">
  <ele>403.91</ele>
  <time>2026-09-01T20:01:14Z</time>
  <course>8.15</course>
  <speed>19.92</speed>
  <fix>3d</fix>
</trkpt>
<trkpt lat="-27.2738805" lon="151.2901544">
  <ele>403.93</ele>
  <time>2026-09-01T20:01:14Z</time>
  <course>8.04</course>
  <speed>20.387309778389103</speed>
  <fix>3d</fix>
</trkpt>
<trkpt lat="-27.2739314" lon="151.2901462">
  <ele>403.91</ele>
  <time>2026-09-01T20:01:14Z</time>
  <course>8.15</course>
  <speed>19.92</speed>
  <fix>3d</fix>
</trkpt>
<trkpt lat="-27.2738624" lon="151.2901573">
  <ele>403.93</ele>
  <time>2026-09-01T20:01:14Z</time>
  <course>8.01</course>
  <speed>20.579645283629162</speed>
  <fix>3d</fix>
</trkpt>
<trkpt lat="-27.2738956" lon="151.2901519">
  <ele>403.95</ele>
  <time>2026-09-01T20:01:14Z</time>
  <course>8.16</course>
  <speed>20.3</speed>
  <fix>3d</fix>
</trkpt>
<trkpt lat="-27.273844" lon="151.2901603">
  <ele>403.93</ele>
  <time>2026-09-01T20:01:14Z</time>
  <course>8.05</course>
  <speed>20.762083228809193</speed>
  <fix>3d</fix>
</trkpt>
<trkpt lat="-27.2738956" lon="151.2901519">
  <ele>403.95</ele>
  <time>2026-09-01T20:01:14Z</time>
  <course>8.16</course>
  <speed>20.3</speed>
  <fix>3d</fix>
</trkpt>
<trkpt lat="-27.2738254" lon="151.2901633">
  <ele>403.91</ele>
  <time>2026-09-01T20:01:14Z</time>
  <course>8.06</course>
  <speed>20.94309671466949</speed>
  <fix>3d</fix>
</trkpt>
<trkpt lat="-27.2738592" lon="151.2901579">
  <ele>403.97</ele>
  <time>2026-09-01T20:01:14Z</time>
  <course>8.16</course>
  <speed>20.67</speed>
  <fix>3d</fix>
</trkpt>
<trkpt lat="-27.2738066" lon="151.2901664">
  <ele>403.89</ele>
  <time>2026-09-01T20:01:14Z</time>
  <course>8.06</course>
  <speed>21.125534312769464</speed>
  <fix>3d</fix>
</trkpt>
<trkpt lat="-27.2738592" lon="151.2901579">
  <ele>403.97</ele>
  <time>2026-09-01T20:01:14Z</time>
  <course>8.16</course>
  <speed>20.67</speed>
  <fix>3d</fix>
</trkpt>
<trkpt lat="-27.2737875" lon="151.2901694">
  <ele>403.85</ele>
  <time>2026-09-01T20:01:14Z</time>
  <course>8.0</course>
  <speed>21.316446702018606</speed>
  <fix>3d</fix>
</trkpt>
<trkpt lat="-27.2738222" lon="151.2901638">
  <ele>403.95</ele>
  <time>2026-09-01T20:01:14Z</time>
  <course>8.16</course>
  <speed>21.04</speed>
  <fix>3d</fix>
</trkpt>
<trkpt lat="-27.2737684" lon="151.2901725">
  <ele>403.81</ele>
  <time>2026-09-01T20:01:14Z</time>
  <course>8.0</course>
  <speed>21.508781927389563</speed>
  <fix>3d</fix>
</trkpt>
<trkpt lat="-27.2738222" lon="151.2901638">
  <ele>403.95</ele>
  <time>2026-09-01T20:01:14Z</time>
  <course>8.16</course>
  <speed>21.04</speed>
  <fix>3d</fix>
</trkpt>
<trkpt lat="-27.2737492" lon="151.2901756">
  <ele>403.75</ele>
  <time>2026-09-01T20:01:14Z</time>
  <course>8.03</course>
  <speed>21.68979714059124</speed>
  <fix>3d</fix>
</trkpt>
<trkpt lat="-27.2737844" lon="151.2901699">
  <ele>403.89</ele>
  <time>2026-09-01T20:01:14Z</time>
  <course>8.15</course>
  <speed>21.41</speed>
  <fix>3d</fix>
</trkpt>
<trkpt lat="-27.2737298" lon="151.2901788">
  <ele>403.69</ele>
  <time>2026-09-01T20:01:14Z</time>
  <course>8.01</course>
  <speed>21.872233539353036</speed>
  <fix>3d</fix>
</trkpt>
<trkpt lat="-27.2737844" lon="151.2901699">
  <ele>403.89</ele>
  <time>2026-09-01T20:01:14Z</time>
  <course>8.15</course>
  <speed>21.41</speed>
  <fix>3d</fix>
</trkpt>
<trkpt lat="-27.2737102" lon="151.2901819">
  <ele>403.62</ele>
  <time>2026-09-01T20:01:14Z</time>
  <course>8.04</course>
  <speed>22.033451840326787</speed>
  <fix>3d</fix>
</trkpt>
<trkpt lat="-27.273746" lon="151.2901761">
  <ele>403.8</ele>
  <time>2026-09-01T20:01:14Z</time>
  <course>8.13</course>
  <speed>21.77</speed>
  <fix>3d</fix>
</trkpt>
<trkpt lat="-27.2736905" lon="151.2901851">
  <ele>403.54</ele>
  <time>2026-09-01T20:01:14Z</time>
  <course>8.08</course>
  <speed>22.186193905219525</speed>
  <fix>3d</fix>
</trkpt>
<trkpt lat="-27.273746" lon="151.2901761">
  <ele>403.8</ele>
  <time>2026-09-01T20:01:14Z</time>
  <course>8.13</course>
  <speed>21.77</speed>
  <fix>3d</fix>
</trkpt>
<trkpt lat="-27.2736706" lon="151.2901883">
  <ele>403.46</ele>
  <time>2026-09-01T20:01:14Z</time>
  <course>8.06</course>
  <speed>22.306395943764652</speed>
  <fix>3d</fix>
</trkpt>
<trkpt lat="-27.273707" lon="151.2901824">
  <ele>403.68</ele>
  <time>2026-09-01T20:01:14Z</time>
  <course>8.13</course>
  <speed>22.11</speed>
  <fix>3d</fix>
</trkpt>
<trkpt lat="-27.2736507" lon="151.2901915">
  <ele>403.37</ele>
  <time>2026-09-01T20:01:14Z</time>
  <course>8.08</course>
  <speed>22.398325830293658</speed>
  <fix>3d</fix>
</trkpt>
<trkpt lat="-27.273707" lon="151.2901824">
  <ele>403.68</ele>
  <time>2026-09-01T20:01:14Z</time>
  <course>8.13</course>
  <speed>22.11</speed>
  <fix>3d</fix>
</trkpt>
<trkpt lat="-27.2736307" lon="151.2901948">
  <ele>403.28</ele>
  <time>2026-09-01T20:01:14Z</time>
  <course>8.11</course>
  <speed>22.478934583293753</speed>
  <fix>3d</fix>
</trkpt>
<trkpt lat="-27.2736674" lon="151.2901888">
  <ele>403.52</ele>
  <time>2026-09-01T20:01:14Z</time>
  <course>8.13</course>
  <speed>22.37</speed>
  <fix>3d</fix>
</trkpt>
<trkpt lat="-27.2736106" lon="151.290198">
  <ele>403.19</ele>
  <time>2026-09-01T20:01:14Z</time>
  <course>8.11</course>
  <speed>22.551070928006943</speed>
  <fix>3d</fix>
</trkpt>
<trkpt lat="-27.2736674" lon="151.2901888">
  <ele>403.52</ele>
  <time>2026-09-01T20:01:14Z</time>
  <course>8.13</course>
  <speed>22.37</speed>
  <fix>3d</fix>
</trkpt>
<trkpt lat="-27.2735905" lon="151.2902013">
  <ele>403.09</ele>
  <time>2026-09-01T20:01:14Z</time>
  <course>8.06</course>
  <speed>22.63167912462529</speed>
  <fix>3d</fix>
</trkpt>
<trkpt lat="-27.2736274" lon="151.2901952">
  <ele>403.35</ele>
  <time>2026-09-01T20:01:14Z</time>
  <course>8.14</course>
  <speed>22.55</speed>
  <fix>3d</fix>
</trkpt>
<trkpt lat="-27.2735703" lon="151.2902045">
  <ele>402.99</ele>
  <time>2026-09-01T20:01:14Z</time>
  <course>8.05</course>
  <speed>22.702389742051388</speed>
  <fix>3d</fix>
</trkpt>
<trkpt lat="-27.2736274" lon="151.2901952">
  <ele>403.35</ele>
  <time>2026-09-01T20:01:14Z</time>
  <course>8.14</course>
  <speed>22.55</speed>
  <fix>3d</fix>
</trkpt>
<trkpt lat="-27.27355" lon="151.2902078">
  <ele>402.89</ele>
  <time>2026-09-01T20:01:14Z</time>
  <course>8.09</course>
  <speed>22.78299804678919</speed>
  <fix>3d</fix>
</trkpt>
<trkpt lat="-27.2735871" lon="151.2902017">
  <ele>403.16</ele>
  <time>2026-09-01T20:01:14Z</time>
  <course>8.15</course>
  <speed>22.7</speed>
  <fix>3d</fix>
</trkpt>
<trkpt lat="-27.2735296" lon="151.2902111">
  <ele>402.78</ele>
  <time>2026-09-01T20:01:14Z</time>
  <course>8.12</course>
  <speed>22.85513727808258</speed>
  <fix>3d</fix>
</trkpt>
<trkpt lat="-27.2735871" lon="151.2902017">
  <ele>403.16</ele>
  <time>2026-09-01T20:01:14Z</time>
  <course>8.15</course>
  <speed>22.7</speed>
  <fix>3d</fix>
</trkpt>
<trkpt lat="-27.2735092" lon="151.2902144">
  <ele>402.66</ele>
  <time>2026-09-01T20:01:14Z</time>
  <course>8.05</course>
  <speed>22.9357450282305</speed>
  <fix>3d</fix>
</trkpt>
<trkpt lat="-27.2735466" lon="151.2902082">
  <ele>402.96</ele>
  <time>2026-09-01T20:01:14Z</time>
  <course>8.16</course>
  <speed>22.85</speed>
  <fix>3d</fix>
</trkpt>
<trkpt lat="-27.2734887" lon="151.2902177">
  <ele>402.55</ele>
  <time>2026-09-01T20:01:14Z</time>
  <course>8.07</course>
  <speed>23.016352882244394</speed>
  <fix>3d</fix>
</trkpt>
<trkpt lat="-27.2735466" lon="151.2902082">
  <ele>402.96</ele>
  <time>2026-09-01T20:01:14Z</time>
  <course>8.16</course>
  <speed>22.85</speed>
  <fix>3d</fix>
</trkpt>
<trkpt lat="-27.2734682" lon="151.290221">
  <ele>402.43</ele>
  <time>2026-09-01T20:01:14Z</time>
  <course>8.13</course>
  <speed>23.087063477194324</speed>
  <fix>3d</fix>
</trkpt>
<trkpt lat="-27.2735058" lon="151.2902148">
  <ele>402.74</ele>
  <time>2026-09-01T20:01:14Z</time>
  <course>8.16</course>
  <speed>23.0</speed>
  <fix>3d</fix>
</trkpt>
<trkpt lat="-27.2734475" lon="151.2902244">
  <ele>402.3</ele>
  <time>2026-09-01T20:01:14Z</time>
  <course>8.1</course>
  <speed>23.16767144104042</speed>
  <fix>3d</fix>
</trkpt>
<trkpt lat="-27.2735058" lon="151.2902148">
  <ele>402.74</ele>
  <time>2026-09-01T20:01:14Z</time>
  <course>8.16</course>
  <speed>23.0</speed>
  <fix>3d</fix>
</trkpt>
<trkpt lat="-27.2734268" lon="151.2902277">
  <ele>402.18</ele>
  <time>2026-09-01T20:01:14Z</time>
  <course>8.13</course>
  <speed>23.248279506234436</speed>
  <fix>3d</fix>
</trkpt>
<trkpt lat="-27.2734648" lon="151.2902214">
  <ele>402.51</ele>
  <time>2026-09-01T20:01:14Z</time>
  <course>8.16</course>
  <speed>23.15</speed>
  <fix>3d</fix>
</trkpt>
<trkpt lat="-27.2734061" lon="151.2902311">
  <ele>402.05</ele>
  <time>2026-09-01T20:01:14Z</time>
  <course>8.17</course>
  <speed>23.34021422352417</speed>
  <fix>3d</fix>
</trkpt>
<trkpt lat="-27.2734648" lon="151.2902214">
  <ele>402.51</ele>
  <time>2026-09-01T20:01:14Z</time>
  <course>8.16</course>
  <speed>23.15</speed>
  <fix>3d</fix>
</trkpt>
<trkpt lat="-27.2733852" lon="151.2902344">
  <ele>401.93</ele>
  <time>2026-09-01T20:01:14Z</time>
  <course>8.22</course>
  <speed>23.4208219326308</speed>
  <fix>3d</fix>
</trkpt>
<trkpt lat="-27.2734234" lon="151.2902281">
  <ele>402.27</ele>
  <time>2026-09-01T20:01:14Z</time>
  <course>8.17</course>
  <speed>23.31</speed>
  <fix>3d</fix>
</trkpt>
<trkpt lat="-27.2733642" lon="151.2902379">
  <ele>401.8</ele>
  <time>2026-09-01T20:01:14Z</time>
  <course>8.23</course>
  <speed>23.492964904413405</speed>
  <fix>3d</fix>
</trkpt>
<trkpt lat="-27.2734234" lon="151.2902281">
  <ele>402.27</ele>
  <time>2026-09-01T20:01:14Z</time>
  <course>8.17</course>
  <speed>23.31</speed>
  <fix>3d</fix>
</trkpt>
<trkpt lat="-27.2733432" lon="151.2902413">
  <ele>401.68</ele>
  <time>2026-09-01T20:01:14Z</time>
  <course>8.25</course>
  <speed>23.575007953339064</speed>
  <fix>3d</fix>
</trkpt>
<trkpt lat="-27.2733818" lon="151.2902348">
  <ele>402.03</ele>
  <time>2026-09-01T20:01:14Z</time>
  <course>8.19</course>
  <speed>23.47</speed>
  <fix>3d</fix>
</trkpt>
<trkpt lat="-27.2733222" lon="151.2902447">
  <ele>401.56</ele>
  <time>2026-09-01T20:01:14Z</time>
  <course>8.27</course>
  <speed>23.66694952882606</speed>
  <fix>3d</fix>
</trkpt>
<trkpt lat="-27.2733818" lon="151.2902348">
  <ele>402.03</ele>
  <time>2026-09-01T20:01:14Z</time>
  <course>8.19</course>
  <speed>23.47</speed>
  <fix>3d</fix>
</trkpt>
<trkpt lat="-27.273301" lon="151.2902481">
  <ele>401.44</ele>
  <time>2026-09-01T20:01:14Z</time>
  <course>8.24</course>
  <speed>23.74755566368884</speed>
  <fix>3d</fix>
</trkpt>
<trkpt lat="-27.27334" lon="151.2902416">
  <ele>401.79</ele>
  <time>2026-09-01T20:01:14Z</time>
  <course>8.22</course>
  <speed>23.63</speed>
  <fix>3d</fix>
</trkpt>
<trkpt lat="-27.2732799" lon="151.2902516">
  <ele>401.32</ele>
  <time>2026-09-01T20:01:14Z</time>
  <course>8.26</course>
  <speed>23.819708226592535</speed>
  <fix>3d</fix>
</trkpt>
<trkpt lat="-27.27334" lon="151.2902416">
  <ele>401.79</ele>
  <time>2026-09-01T20:01:14Z</time>
  <course>8.22</course>
  <speed>23.63</speed>
  <fix>3d</fix>
</trkpt>
<trkpt lat="-27.2732586" lon="151.290255">
  <ele>401.21</ele>
  <time>2026-09-01T20:01:14Z</time>
  <course>8.23</course>
  <speed>23.90031380547126</speed>
  <fix>3d</fix>
</trkpt>
<trkpt lat="-27.2732978" lon="151.2902484">
  <ele>401.55</ele>
  <time>2026-09-01T20:01:14Z</time>
  <course>8.24</course>
  <speed>23.79</speed>
  <fix>3d</fix>
</trkpt>
<trkpt lat="-27.2732373" lon="151.2902585">
  <ele>401.11</ele>
  <time>2026-09-01T20:01:14Z</time>
  <course>8.24</course>
  <speed>23.982364353833006</speed>
  <fix>3d</fix>
</trkpt>
<trkpt lat="-27.2732978" lon="151.2902484">
  <ele>401.55</ele>
  <time>2026-09-01T20:01:14Z</time>
  <course>8.24</course>
  <speed>23.79</speed>
  <fix>3d</fix>
</trkpt>
<trkpt lat="-27.2732159" lon="151.290262">
  <ele>401.0</ele>
  <time>2026-09-01T20:01:14Z</time>
  <course>8.26</course>
  <speed>24.062969475939582</speed>
  <fix>3d</fix>
</trkpt>
<trkpt lat="-27.2732554" lon="151.2902553">
  <ele>401.33</ele>
  <time>2026-09-01T20:01:14Z</time>
  <course>8.25</course>
  <speed>23.94</speed>
  <fix>3d</fix>
</trkpt>
<trkpt lat="-27.2731945" lon="151.2902655">
  <ele>400.9</ele>
  <time>2026-09-01T20:01:14Z</time>
  <course>8.27</course>
  <speed>24.133679785726837</speed>
  <fix>3d</fix>
</trkpt>
<trkpt lat="-27.2732554" lon="151.2902553">
  <ele>401.33</ele>
  <time>2026-09-01T20:01:14Z</time>
  <course>8.25</course>
  <speed>23.94</speed>
  <fix>3d</fix>
</trkpt>
<trkpt lat="-27.2731729" lon="151.290269">
  <ele>400.81</ele>
  <time>2026-09-01T20:01:14Z</time>
  <course>8.23</course>
  <speed>24.20439009766617</speed>
  <fix>3d</fix>
</trkpt>
<trkpt lat="-27.2732127" lon="151.2902624">
  <ele>401.13</ele>
  <time>2026-09-01T20:01:14Z</time>
  <course>8.26</course>
  <speed>24.09</speed>
  <fix>3d</fix>
</trkpt>
<trkpt lat="-27.2731514" lon="151.2902726">
  <ele>400.72</ele>
  <time>2026-09-01T20:01:14Z</time>
  <course>8.27</course>
  <speed>24.28499536751037</speed>
  <fix>3d</fix>
</trkpt>
<trkpt lat="-27.2732127" lon="151.2902624">
  <ele>401.13</ele>
  <time>2026-09-01T20:01:14Z</time>
  <course>8.26</course>
  <speed>24.09</speed>
  <fix>3d</fix>
</trkpt>
<trkpt lat="-27.2731297" lon="151.2902761">
  <ele>400.63</ele>
  <time>2026-09-01T20:01:14Z</time>
  <course>8.27</course>
  <speed>24.355705697023026</speed>
  <fix>3d</fix>
</trkpt>
<trkpt lat="-27.2731696" lon="151.2902694">
  <ele>400.94</ele>
  <time>2026-09-01T20:01:14Z</time>
  <course>8.27</course>
  <speed>24.24</speed>
  <fix>3d</fix>
</trkpt>
<trkpt lat="-27.273108" lon="151.2902796">
  <ele>400.55</ele>
  <time>2026-09-01T20:01:14Z</time>
  <course>8.29</course>
  <speed>24.426416028554005</speed>
  <fix>3d</fix>
</trkpt>
<trkpt lat="-27.2731696" lon="151.2902694">
  <ele>400.94</ele>
  <time>2026-09-01T20:01:14Z</time>
  <course>8.27</course>
  <speed>24.24</speed>
  <fix>3d</fix>
</trkpt>
<trkpt lat="-27.2730862" lon="151.2902832">
  <ele>400.47</ele>
  <time>2026-09-01T20:01:14Z</time>
  <course>8.32</course>
  <speed>24.49712636208582</speed>
  <fix>3d</fix>
</trkpt>
<trkpt lat="-27.2731264" lon="151.2902765">
  <ele>400.77</ele>
  <time>2026-09-01T20:01:14Z</time>
  <course>8.27</course>
  <speed>24.38</speed>
  <fix>3d</fix>
</trkpt>
<trkpt lat="-27.2730644" lon="151.2902868">
  <ele>400.39</ele>
  <time>2026-09-01T20:01:14Z</time>
  <course>8.35</course>
  <speed>24.5593892432202</speed>
  <fix>3d</fix>
</trkpt>
<trkpt lat="-27.2731264" lon="151.2902765">
  <ele>400.77</ele>
  <time>2026-09-01T20:01:14Z</time>
  <course>8.27</course>
  <speed>24.38</speed>
  <fix>3d</fix>
</trkpt>
<trkpt lat="-27.2730425" lon="151.2902904">
  <ele>400.32</ele>
  <time>2026-09-01T20:01:14Z</time>
  <course>8.28</course>
  <speed>24.620205116935967</speed>
  <fix>3d</fix>
</trkpt>
<trkpt lat="-27.2730829" lon="151.2902836">
  <ele>400.61</ele>
  <time>2026-09-01T20:01:14Z</time>
  <course>8.28</course>
  <speed>24.52</speed>
  <fix>3d</fix>
</trkpt>
<trkpt lat="-27.2730206" lon="151.290294">
  <ele>400.26</ele>
  <time>2026-09-01T20:01:14Z</time>
  <course>8.27</course>
  <speed>24.68946738996206</speed>
  <fix>3d</fix>
</trkpt>
<trkpt lat="-27.2730829" lon="151.2902836">
  <ele>400.61</ele>
  <time>2026-09-01T20:01:14Z</time>
  <course>8.28</course>
  <speed>24.52</speed>
  <fix>3d</fix>
</trkpt>
<trkpt lat="-27.2729985" lon="151.2902976">
  <ele>400.19</ele>
  <time>2026-09-01T20:01:14Z</time>
  <course>8.29</course>
  <speed>24.750282826666847</speed>
  <fix>3d</fix>
</trkpt>
<trkpt lat="-27.2730392" lon="151.2902907">
  <ele>400.47</ele>
  <time>2026-09-01T20:01:14Z</time>
  <course>8.28</course>
  <speed>24.65</speed>
  <fix>3d</fix>
</trkpt>
<trkpt lat="-27.2729765" lon="151.2903012">
  <ele>400.13</ele>
  <time>2026-09-01T20:01:14Z</time>
  <course>8.32</course>
  <speed>24.809653363156848</speed>
  <fix>3d</fix>
</trkpt>
<trkpt lat="-27.2730392" lon="151.2902907">
  <ele>400.47</ele>
  <time>2026-09-01T20:01:14Z</time>
  <course>8.28</course>
  <speed>24.65</speed>
  <fix>3d</fix>
</trkpt>
<trkpt lat="-27.2729544" lon="151.2903048">
  <ele>400.06</ele>
  <time>2026-09-01T20:01:14Z</time>
  <course>8.37</course>
  <speed>24.870468431455006</speed>
  <fix>3d</fix>
</trkpt>
<trkpt lat="-27.2729953" lon="151.290298">
  <ele>400.34</ele>
  <time>2026-09-01T20:01:14Z</time>
  <course>8.27</course>
  <speed>24.76</speed>
  <fix>3d</fix>
</trkpt>
<trkpt lat="-27.2729323" lon="151.2903084">
  <ele>399.96</ele>
  <time>2026-09-01T20:01:14Z</time>
  <course>8.45</course>
  <speed>24.931283561020276</speed>
  <fix>3d</fix>
</trkpt>
<trkpt lat="-27.2729953" lon="151.290298">
  <ele>400.34</ele>
  <time>2026-09-01T20:01:14Z</time>
  <course>8.27</course>
  <speed>24.76</speed>
  <fix>3d</fix>
</trkpt>
<trkpt lat="-27.2729102" lon="151.290312">
  <ele>399.84</ele>
  <time>2026-09-01T20:01:14Z</time>
  <course>8.62</course>
  <speed>25.01188917295133</speed>
  <fix>3d</fix>
</trkpt>
<trkpt lat="-27.2729512" lon="151.2903051">
  <ele>400.19</ele>
  <time>2026-09-01T20:01:14Z</time>
  <course>8.26</course>
  <speed>24.88</speed>
  <fix>3d</fix>
</trkpt>
<trkpt lat="-27.2728879" lon="151.2903156">
  <ele>399.72</ele>
  <time>2026-09-01T20:01:14Z</time>
  <course>9.1</course>
  <speed>25.0840447296683</speed>
  <fix>3d</fix>
</trkpt>
<trkpt lat="-27.2729512" lon="151.2903051">
  <ele>400.19</ele>
  <time>2026-09-01T20:01:14Z</time>
  <course>8.26</course>
  <speed>24.88</speed>
  <fix>3d</fix>
</trkpt>
<trkpt lat="-27.2728656" lon="151.2903193">
  <ele>399.6</ele>
  <time>2026-09-01T20:01:14Z</time>
  <course>10.18</course>
  <speed>25.16101945470414</speed>
  <fix>3d</fix>
</trkpt>
<trkpt lat="-27.2729068" lon="151.2903124">
  <ele>399.99</ele>
  <time>2026-09-01T20:01:14Z</time>
  <course>8.28</course>
  <speed>25.02</speed>
  <fix>3d</fix>
</trkpt>
<trkpt lat="-27.2728432" lon="151.2903232">
  <ele>399.49</ele>
  <time>2026-09-01T20:01:14Z</time>
  <course>11.93</course>
  <speed>25.22218269698323</speed>
  <fix>3d</fix>
</trkpt>
<trkpt lat="-27.2729068" lon="151.2903124">
  <ele>399.99</ele>
  <time>2026-09-01T20:01:14Z</time>
  <course>8.28</course>
  <speed>25.02</speed>
  <fix>3d</fix>
</trkpt>
<trkpt lat="-27.2728205" lon="151.2903278">
  <ele>399.4</ele>
  <time>2026-09-01T20:01:14Z</time>
  <course>13.85</course>
  <speed>25.28750679683547</speed>
  <fix>3d</fix>
</trkpt>
<trkpt lat="-27.2728622" lon="151.2903198">
  <ele>399.75</ele>
  <time>2026-09-01T20:01:14Z</time>
  <course>8.76</course>
  <speed>25.16</speed>
  <fix>3d</fix>
</trkpt>
<trkpt lat="-27.2727983" lon="151.2903333">
  <ele>399.29</ele>
  <time>2026-09-01T20:01:14Z</time>
  <course>15.64</course>
  <speed>25.332850214691593</speed>
  <fix>3d</fix>
</trkpt>
<trkpt lat="-27.2728622" lon="151.2903198">
  <ele>399.75</ele>
  <time>2026-09-01T20:01:14Z</time>
  <course>8.76</course>
  <speed>25.16</speed>
  <fix>3d</fix>
</trkpt>
<trkpt lat="-27.2727764" lon="151.2903404">
  <ele>399.14</ele>
  <time>2026-09-01T20:01:14Z</time>
  <course>18.89</course>
  <speed>25.374144320548034</speed>
  <fix>3d</fix>
</trkpt>
<trkpt lat="-27.2728175" lon="151.2903286">
  <ele>399.54</ele>
  <time>2026-09-01T20:01:14Z</time>
  <course>11.5</course>
  <speed>25.27</speed>
  <fix>3d</fix>
</trkpt>
<trkpt lat="-27.2727552" lon="151.2903498">
  <ele>398.86</ele>
  <time>2026-09-01T20:01:14Z</time>
  <course>22.44</course>
  <speed>25.278103172508807</speed>
  <fix>3d</fix>
</trkpt>
<trkpt lat="-27.2728175" lon="151.2903286">
  <ele>399.54</ele>
  <time>2026-09-01T20:01:14Z</time>
  <course>11.5</course>
  <speed>25.27</speed>
  <fix>3d</fix>
</trkpt>
<trkpt lat="-27.2727349" lon="151.2903608">
  <ele>398.37</ele>
  <time>2026-09-01T20:01:14Z</time>
  <course>19.77</course>
  <speed>25.10662860680422</speed>
  <fix>3d</fix>
</trkpt>
<trkpt lat="-27.2727736" lon="151.2903416">
  <ele>399.23</ele>
  <time>2026-09-01T20:01:14Z</time>
  <course>18.76</course>
  <speed>25.24</speed>
  <fix>3d</fix>
</trkpt>
<trkpt lat="-27.2727145" lon="151.2903718">
  <ele>397.77</ele>
  <time>2026-09-01T20:01:14Z</time>
  <course>16.79</course>
  <speed>25.25245334616025</speed>
  <fix>3d</fix>
</trkpt>
<trkpt lat="-27.2727736" lon="151.2903416">
  <ele>399.23</ele>
  <time>2026-09-01T20:01:14Z</time>
  <course>18.76</course>
  <speed>25.24</speed>
  <fix>3d</fix>
</trkpt>
<trkpt lat="-27.2726936" lon="151.2903819">
  <ele>397.27</ele>
  <time>2026-09-01T20:01:14Z</time>
  <course>17.73</course>
  <speed>25.534670548099893</speed>
  <fix>3d</fix>
</trkpt>
<trkpt lat="-27.2727316" lon="151.2903608">
  <ele>398.5</ele>
  <time>2026-09-01T20:01:14Z</time>
  <course>24.31</course>
  <speed>25.3</speed>
  <fix>3d</fix>
</trkpt>
<trkpt lat="-27.2726722" lon="151.2903914">
  <ele>396.88</ele>
  <time>2026-09-01T20:01:14Z</time>
  <course>20.39</course>
  <speed>25.661513984954198</speed>
  <fix>3d</fix>
</trkpt>
<trkpt lat="-27.2727316" lon="151.2903608">
  <ele>398.5</ele>
  <time>2026-09-01T20:01:14Z</time>
  <course>24.31</course>
  <speed>25.3</speed>
  <fix>3d</fix>
</trkpt>
<trkpt lat="-27.2726506" lon="151.2904006">
  <ele>396.56</ele>
  <time>2026-09-01T20:01:14Z</time>
  <course>22.28</course>
  <speed>25.61966822579871</speed>
  <fix>3d</fix>
</trkpt>
<trkpt lat="-27.27269" lon="151.2903819">
  <ele>397.5</ele>
  <time>2026-09-01T20:01:14Z</time>
  <course>23.2</course>
  <speed>25.49</speed>
  <fix>3d</fix>
</trkpt>
<trkpt lat="-27.2726291" lon="151.2904097">
  <ele>396.26</ele>
  <time>2026-09-01T20:01:14Z</time>
  <course>22.4</course>
  <speed>25.504450592004527</speed>
  <fix>3d</fix>
</trkpt>
<trkpt lat="-27.27269" lon="151.2903819">
  <ele>397.5</ele>
  <time>2026-09-01T20:01:14Z</time>
  <course>23.2</course>
  <speed>25.49</speed>
  <fix>3d</fix>
</trkpt>
<trkpt lat="-27.2726076" lon="151.2904185">
  <ele>395.97</ele>
  <time>2026-09-01T20:01:14Z</time>
  <course>21.01</course>
  <speed>25.382970669328678</speed>
  <fix>3d</fix>
</trkpt>
<trkpt lat="-27.2726473" lon="151.2904012">
  <ele>396.73</ele>
  <time>2026-09-01T20:01:14Z</time>
  <course>21.08</course>
  <speed>25.63</speed>
  <fix>3d</fix>
</trkpt>
<trkpt lat="-27.2725862" lon="151.2904271">
  <ele>395.68</ele>
  <time>2026-09-01T20:01:14Z</time>
  <course>18.89</course>
  <speed>25.294465797877606</speed>
  <fix>3d</fix>
</trkpt>
<trkpt lat="-27.2726473" lon="151.2904012">
  <ele>396.73</ele>
  <time>2026-09-01T20:01:14Z</time>
  <course>21.08</course>
  <speed>25.63</speed>
  <fix>3d</fix>
</trkpt>
<trkpt lat="-27.2725647" lon="151.2904353">
  <ele>395.37</ele>
  <time>2026-09-01T20:01:14Z</time>
  <course>16.62</course>
  <speed>25.257127706847427</speed>
  <fix>3d</fix>
</trkpt>
<trkpt lat="-27.2726044" lon="151.2904194">
  <ele>396.14</ele>
  <time>2026-09-01T20:01:14Z</time>
  <course>19.98</course>
  <speed>25.45</speed>
  <fix>3d</fix>
</trkpt>
<trkpt lat="-27.272543" lon="151.2904431">
  <ele>395.05</ele>
  <time>2026-09-01T20:01:14Z</time>
  <course>14.21</course>
  <speed>25.26276509014799</speed>
  <fix>3d</fix>
</trkpt>
<trkpt lat="-27.2726044" lon="151.2904194">
  <ele>396.14</ele>
  <time>2026-09-01T20:01:14Z</time>
  <course>19.98</course>
  <speed>25.45</speed>
  <fix>3d</fix>
</trkpt>
<trkpt lat="-27.2725212" lon="151.2904504">
  <ele>394.72</ele>
  <time>2026-09-01T20:01:14Z</time>
  <course>11.56</course>
  <speed>25.335200808361478</speed>
  <fix>3d</fix>
</trkpt>
<trkpt lat="-27.2725613" lon="151.2904362">
  <ele>395.54</ele>
  <time>2026-09-01T20:01:14Z</time>
  <course>18.39</course>
  <speed>25.32</speed>
  <fix>3d</fix>
</trkpt>
<trkpt lat="-27.2724991" lon="151.2904568">
  <ele>394.41</ele>
  <time>2026-09-01T20:01:14Z</time>
  <course>8.86</course>
  <speed>25.440397009480808</speed>
  <fix>3d</fix>
</trkpt>
<trkpt lat="-27.2725613" lon="151.2904362">
  <ele>395.54</ele>
  <time>2026-09-01T20:01:14Z</time>
  <course>18.39</course>
  <speed>25.32</speed>
  <fix>3d</fix>
</trkpt>
<trkpt lat="-27.2724767" lon="151.2904624">
  <ele>394.13</ele>
  <time>2026-09-01T20:01:14Z</time>
  <course>6.42</course>
  <speed>25.544128483861023</speed>
  <fix>3d</fix>
</trkpt>
<trkpt lat="-27.2725178" lon="151.2904513">
  <ele>394.91</ele>
  <time>2026-09-01T20:01:14Z</time>
  <course>15.59</course>
  <speed>25.37</speed>
  <fix>3d</fix>
</trkpt>
<trkpt lat="-27.2724542" lon="151.290467">
  <ele>393.91</ele>
  <time>2026-09-01T20:01:14Z</time>
  <course>4.41</course>
  <speed>25.625694136939977</speed>
  <fix>3d</fix>
</trkpt>
<trkpt lat="-27.2725178" lon="151.2904513">
  <ele>394.91</ele>
  <time>2026-09-01T20:01:14Z</time>
  <course>15.59</course>
  <speed>25.37</speed>
  <fix>3d</fix>
</trkpt>
<trkpt lat="-27.2724314" lon="151.2904706">
  <ele>393.75</ele>
  <time>2026-09-01T20:01:14Z</time>
  <course>2.83</course>
  <speed>25.6468263143805</speed>
  <fix>3d</fix>
</trkpt>
<trkpt lat="-27.2724735" lon="151.2904634">
  <ele>394.35</ele>
  <time>2026-09-01T20:01:14Z</time>
  <course>11.49</course>
  <speed>25.53</speed>
  <fix>3d</fix>
</trkpt>
<trkpt lat="-27.2724085" lon="151.2904734">
  <ele>393.67</ele>
  <time>2026-09-01T20:01:14Z</time>
  <course>1.66</course>
  <speed>25.631607440814165</speed>
  <fix>3d</fix>
</trkpt>
<trkpt lat="-27.2724735" lon="151.2904634">
  <ele>394.35</ele>
  <time>2026-09-01T20:01:14Z</time>
  <course>11.49</course>
  <speed>25.53</speed>
  <fix>3d</fix>
</trkpt>
<trkpt lat="-27.2723856" lon="151.2904755">
  <ele>393.64</ele>
  <time>2026-09-01T20:01:14Z</time>
  <course>0.74</course>
  <speed>25.59196162860518</speed>
  <fix>3d</fix>
</trkpt>
<trkpt lat="-27.2724281" lon="151.2904717">
  <ele>393.97</ele>
  <time>2026-09-01T20:01:14Z</time>
  <course>7.22</course>
  <speed>25.63</speed>
  <fix>3d</fix>
</trkpt>
<trkpt lat="-27.2723625" lon="151.2904771">
  <ele>393.65</ele>
  <time>2026-09-01T20:01:14Z</time>
  <course>0.03</course>
  <speed>25.52502497550198</speed>
  <fix>3d</fix>
</trkpt>
<trkpt lat="-27.2724281" lon="151.2904717">
  <ele>393.97</ele>
  <time>2026-09-01T20:01:14Z</time>
  <course>7.22</course>
  <speed>25.63</speed>
  <fix>3d</fix>
</trkpt>
<trkpt lat="-27.2723396" lon="151.2904782">
  <ele>393.68</ele>
  <time>2026-09-01T20:01:14Z</time>
  <course>359.41</course>
  <speed>25.4710443445101</speed>
  <fix>3d</fix>
</trkpt>
<trkpt lat="-27.2723823" lon="151.2904767">
  <ele>393.84</ele>
  <time>2026-09-01T20:01:14Z</time>
  <course>3.91</course>
  <speed>25.59</speed>
  <fix>3d</fix>
</trkpt>
<trkpt lat="-27.2723168" lon="151.2904789">
  <ele>393.71</ele>
  <time>2026-09-01T20:01:14Z</time>
  <course>358.86</course>
  <speed>25.434342924479097</speed>
  <fix>3d</fix>
</trkpt>
<trkpt lat="-27.2723823" lon="151.2904767">
  <ele>393.84</ele>
  <time>2026-09-01T20:01:14Z</time>
  <course>3.91</course>
  <speed>25.59</speed>
  <fix>3d</fix>
</trkpt>
<trkpt lat="-27.2722939" lon="151.2904794">
  <ele>393.71</ele>
  <time>2026-09-01T20:01:14Z</time>
  <course>358.46</course>
  <speed>25.42132962690976</speed>
  <fix>3d</fix>
</trkpt>
<trkpt lat="-27.2723365" lon="151.2904792">
  <ele>393.87</ele>
  <time>2026-09-01T20:01:14Z</time>
  <course>1.8</course>
  <speed>25.49</speed>
  <fix>3d</fix>
</trkpt>
<trkpt lat="-27.2722711" lon="151.2904797">
  <ele>393.69</ele>
  <time>2026-09-01T20:01:14Z</time>
  <course>358.14</course>
  <speed>25.420096380619803</speed>
  <fix>3d</fix>
</trkpt>
<trkpt lat="-27.2723365" lon="151.2904792">
  <ele>393.87</ele>
  <time>2026-09-01T20:01:14Z</time>
  <course>1.8</course>
  <speed>25.49</speed>
  <fix>3d</fix>
</trkpt>
<trkpt lat="-27.2722482" lon="151.2904798">
  <ele>393.65</ele>
  <time>2026-09-01T20:01:14Z</time>
  <course>357.83</course>
  <speed>25.430159260216993</speed>
  <fix>3d</fix>
</trkpt>
<trkpt lat="-27.2722906" lon="151.2904802">
  <ele>393.89</ele>
  <time>2026-09-01T20:01:14Z</time>
  <course>0.53</course>
  <speed>25.44</speed>
  <fix>3d</fix>
</trkpt>
<trkpt lat="-27.2722252" lon="151.2904797">
  <ele>393.58</ele>
  <time>2026-09-01T20:01:14Z</time>
  <course>357.58</course>
  <speed>25.4712269040971</speed>
  <fix>3d</fix>
</trkpt>
<trkpt lat="-27.2722906" lon="151.2904802">
  <ele>393.89</ele>
  <time>2026-09-01T20:01:14Z</time>
  <course>0.53</course>
  <speed>25.44</speed>
  <fix>3d</fix>
</trkpt>
<trkpt lat="-27.2722023" lon="151.2904795">
  <ele>393.49</ele>
  <time>2026-09-01T20:01:14Z</time>
  <course>357.42</course>
  <speed>25.503295865436684</speed>
  <fix>3d</fix>
</trkpt>
<trkpt lat="-27.2722448" lon="151.2904803">
  <ele>393.82</ele>
  <time>2026-09-01T20:01:14Z</time>
  <course>359.64</course>
  <speed>25.46</speed>
  <fix>3d</fix>
</trkpt>
<trkpt lat="-27.2721793" lon="151.290479">
  <ele>393.4</ele>
  <time>2026-09-01T20:01:14Z</time>
  <course>357.3</course>
  <speed>25.555919079540068</speed>
  <fix>3d</fix>
</trkpt>
<trkpt lat="-27.2722448" lon="151.2904803">
  <ele>393.82</ele>
  <time>2026-09-01T20:01:14Z</time>
  <course>359.64</course>
  <speed>25.46</speed>
  <fix>3d</fix>
</trkpt>
<trkpt lat="-27.2721563" lon="151.2904784">
  <ele>393.32</ele>
  <time>2026-09-01T20:01:14Z</time>
  <course>357.33</course>
  <speed>25.608250623578332</speed>
  <fix>3d</fix>
</trkpt>
<trkpt lat="-27.2721991" lon="151.2904796">
  <ele>393.66</ele>
  <time>2026-09-01T20:01:14Z</time>
  <course>358.91</course>
  <speed>25.52</speed>
  <fix>3d</fix>
</trkpt>
<trkpt lat="-27.2721332" lon="151.2904777">
  <ele>393.25</ele>
  <time>2026-09-01T20:01:14Z</time>
  <course>357.42</course>
  <speed>25.65010721225157</speed>
  <fix>3d</fix>
</trkpt>
<trkpt lat="-27.2721991" lon="151.2904796">
  <ele>393.66</ele>
  <time>2026-09-01T20:01:14Z</time>
  <course>358.91</course>
  <speed>25.52</speed>
  <fix>3d</fix>
</trkpt>
<trkpt lat="-27.2721101" lon="151.290477">
  <ele>393.2</ele>
  <time>2026-09-01T20:01:14Z</time>
  <course>357.58</course>
  <speed>25.69154140957681</speed>
  <fix>3d</fix>
</trkpt>
<trkpt lat="-27.2721532" lon="151.2904784">
  <ele>393.49</ele>
  <time>2026-09-01T20:01:14Z</time>
  <course>358.36</course>
  <speed>25.61</speed>
  <fix>3d</fix>
</trkpt>
<trkpt lat="-27.272087" lon="151.2904761">
  <ele>393.16</ele>
  <time>2026-09-01T20:01:14Z</time>
  <course>357.76</course>
  <speed>25.721829250657894</speed>
  <fix>3d</fix>
</trkpt>
<trkpt lat="-27.2721532" lon="151.2904784">
  <ele>393.49</ele>
  <time>2026-09-01T20:01:14Z</time>
  <course>358.36</course>
  <speed>25.61</speed>
  <fix>3d</fix>
</trkpt>
<trkpt lat="-27.2720638" lon="151.2904753">
  <ele>393.15</ele>
  <time>2026-09-01T20:01:14Z</time>
  <course>357.86</course>
  <speed>25.751815469981917</speed>
  <fix>3d</fix>
</trkpt>
<trkpt lat="-27.2721071" lon="151.2904768">
  <ele>393.36</ele>
  <time>2026-09-01T20:01:14Z</time>
  <course>358.07</course>
  <speed>25.69</speed>
  <fix>3d</fix>
</trkpt>
<trkpt lat="-27.2720407" lon="151.2904745">
  <ele>393.15</ele>
  <time>2026-09-01T20:01:14Z</time>
  <course>357.95</course>
  <speed>25.771208741539464</speed>
  <fix>3d</fix>
</trkpt>
<trkpt lat="-27.2721071" lon="151.2904768">
  <ele>393.36</ele>
  <time>2026-09-01T20:01:14Z</time>
  <course>358.07</course>
  <speed>25.69</speed>
  <fix>3d</fix>
</trkpt>
<trkpt lat="-27.2720175" lon="151.2904737">
  <ele>393.16</ele>
  <time>2026-09-01T20:01:14Z</time>
  <course>358.03</course>
  <speed>25.7903334604266</speed>
  <fix>3d</fix>
</trkpt>
<trkpt lat="-27.2720609" lon="151.290475">
  <ele>393.31</ele>
  <time>2026-09-01T20:01:14Z</time>
  <course>358.02</course>
  <speed>25.75</speed>
  <fix>3d</fix>
</trkpt>
<trkpt lat="-27.2719943" lon="151.2904729">
  <ele>393.18</ele>
  <time>2026-09-01T20:01:14Z</time>
  <course>358.23</course>
  <speed>25.809225094915192</speed>
  <fix>3d</fix>
</trkpt>
<trkpt lat="-27.2720609" lon="151.290475">
  <ele>393.31</ele>
  <time>2026-09-01T20:01:14Z</time>
  <course>358.02</course>
  <speed>25.75</speed>
  <fix>3d</fix>
</trkpt>
<trkpt lat="-27.2719712" lon="151.2904722">
  <ele>393.2</ele>
  <time>2026-09-01T20:01:14Z</time>
  <course>358.53</course>
  <speed>25.82768475880097</speed>
  <fix>3d</fix>
</trkpt>
<trkpt lat="-27.2720146" lon="151.2904733">
  <ele>393.31</ele>
  <time>2026-09-01T20:01:14Z</time>
  <course>358.14</course>
  <speed>25.78</speed>
  <fix>3d</fix>
</trkpt>
<trkpt lat="-27.271948" lon="151.2904715">
  <ele>393.23</ele>
  <time>2026-09-01T20:01:14Z</time>
  <course>358.84</course>
  <speed>25.84585266536974</speed>
  <fix>3d</fix>
</trkpt>
<trkpt lat="-27.2720146" lon="151.2904733">
  <ele>393.31</ele>
  <time>2026-09-01T20:01:14Z</time>
  <course>358.14</course>
  <speed>25.78</speed>
  <fix>3d</fix>
</trkpt>
<trkpt lat="-27.2719247" lon="151.2904709">
  <ele>393.26</ele>
  <time>2026-09-01T20:01:14Z</time>
  <course>359.1</course>
  <speed>25.874089355956084</speed>
  <fix>3d</fix>
</trkpt>
<trkpt lat="-27.2719683" lon="151.2904717">
  <ele>393.34</ele>
  <time>2026-09-01T20:01:14Z</time>
  <course>358.38</course>
  <speed>25.82</speed>
  <fix>3d</fix>
</trkpt>
<trkpt lat="-27.2719015" lon="151.2904704">
  <ele>393.3</ele>
  <time>2026-09-01T20:01:14Z</time>
  <course>359.43</course>
  <speed>25.882503742876192</speed>
  <fix>3d</fix>
</trkpt>
<trkpt lat="-27.2719683" lon="151.2904717">
  <ele>393.34</ele>
  <time>2026-09-01T20:01:14Z</time>
  <course>358.38</course>
  <speed>25.82</speed>
  <fix>3d</fix>
</trkpt>
<trkpt lat="-27.271878" lon="151.29047">
  <ele>393.34</ele>
  <time>2026-09-01T20:01:14Z</time>
  <course>359.84</course>
  <speed>25.901111945242814</speed>
  <fix>3d</fix>
</trkpt>
<trkpt lat="-27.2719219" lon="151.2904704">
  <ele>393.4</ele>
  <time>2026-09-01T20:01:14Z</time>
  <course>358.75</course>
  <speed>25.85</speed>
  <fix>3d</fix>
</trkpt>
<trkpt lat="-27.2718547" lon="151.2904698">
  <ele>393.39</ele>
  <time>2026-09-01T20:01:14Z</time>
  <course>0.29</course>
  <speed>25.920233409442904</speed>
  <fix>3d</fix>
</trkpt>
<trkpt lat="-27.2719219" lon="151.2904704">
  <ele>393.4</ele>
  <time>2026-09-01T20:01:14Z</time>
  <course>358.75</course>
  <speed>25.85</speed>
  <fix>3d</fix>
</trkpt>
<trkpt lat="-27.2718314" lon="151.2904696">
  <ele>393.44</ele>
  <time>2026-09-01T20:01:14Z</time>
  <course>0.7</course>
  <speed>25.93001735440993</speed>
  <fix>3d</fix>
</trkpt>
<trkpt lat="-27.2718755" lon="151.2904695">
  <ele>393.48</ele>
  <time>2026-09-01T20:01:14Z</time>
  <course>359.25</course>
  <speed>25.88</speed>
  <fix>3d</fix>
</trkpt>
<trkpt lat="-27.2718081" lon="151.2904697">
  <ele>393.49</ele>
  <time>2026-09-01T20:01:14Z</time>
  <course>1.09</course>
  <speed>25.94062451060113</speed>
  <fix>3d</fix>
</trkpt>
<trkpt lat="-27.2718755" lon="151.2904695">
  <ele>393.48</ele>
  <time>2026-09-01T20:01:14Z</time>
  <course>359.25</course>
  <speed>25.88</speed>
  <fix>3d</fix>
</trkpt>
<trkpt lat="-27.2717848" lon="151.2904697">
  <ele>393.55</ele>
  <time>2026-09-01T20:01:14Z</time>
  <course>1.45</course>
  <speed>25.95222726472624</speed>
  <fix>3d</fix>
</trkpt>
<trkpt lat="-27.2718289" lon="151.2904691">
  <ele>393.58</ele>
  <time>2026-09-01T20:01:14Z</time>
  <course>359.87</course>
  <speed>25.9</speed>
  <fix>3d</fix>
</trkpt>
<trkpt lat="-27.2717614" lon="151.2904701">
  <ele>393.61</ele>
  <time>2026-09-01T20:01:14Z</time>
  <course>1.85</course>
  <speed>25.964814653680854</speed>
  <fix>3d</fix>
</trkpt>
<trkpt lat="-27.2718289" lon="151.2904691">
  <ele>393.58</ele>
  <time>2026-09-01T20:01:14Z</time>
  <course>359.87</course>
  <speed>25.9</speed>
  <fix>3d</fix>
</trkpt>
<trkpt lat="-27.2717381" lon="151.2904706">
  <ele>393.68</ele>
  <time>2026-09-01T20:01:14Z</time>
  <course>2.19</course>
  <speed>25.968644554539228</speed>
  <fix>3d</fix>
</trkpt>
<trkpt lat="-27.2717823" lon="151.2904693">
  <ele>393.68</ele>
  <time>2026-09-01T20:01:14Z</time>
  <course>0.57</course>
  <speed>25.92</speed>
  <fix>3d</fix>
</trkpt>
<trkpt lat="-27.2717148" lon="151.2904713">
  <ele>393.75</ele>
  <time>2026-09-01T20:01:14Z</time>
  <course>2.57</course>
  <speed>25.973265100868627</speed>
  <fix>3d</fix>
</trkpt>
<trkpt lat="-27.2717823" lon="151.2904693">
  <ele>393.68</ele>
  <time>2026-09-01T20:01:14Z</time>
  <course>0.57</course>
  <speed>25.92</speed>
  <fix>3d</fix>
</trkpt>
<trkpt lat="-27.2716915" lon="151.2904721">
  <ele>393.82</ele>
  <time>2026-09-01T20:01:14Z</time>
  <course>3.0</course>
  <speed>25.979253261015796</speed>
  <fix>3d</fix>
</trkpt>
<trkpt lat="-27.2717357" lon="151.2904701">
  <ele>393.8</ele>
  <time>2026-09-01T20:01:14Z</time>
  <course>1.3</course>
  <speed>25.94</speed>
  <fix>3d</fix>
</trkpt>
<trkpt lat="-27.2716682" lon="151.2904731">
  <ele>393.9</ele>
  <time>2026-09-01T20:01:14Z</time>
  <course>3.47</course>
  <speed>25.976362331935547</speed>
  <fix>3d</fix>
</trkpt>
<trkpt lat="-27.2717357" lon="151.2904701">
  <ele>393.8</ele>
  <time>2026-09-01T20:01:14Z</time>
  <course>1.3</course>
  <speed>25.94</speed>
  <fix>3d</fix>
</trkpt>
<trkpt lat="-27.2716449" lon="151.2904743">
  <ele>393.98</ele>
  <time>2026-09-01T20:01:14Z</time>
  <course>3.92</course>
  <speed>25.98509187976829</speed>
  <fix>3d</fix>
</trkpt>
<trkpt lat="-27.271689" lon="151.2904716">
  <ele>393.94</ele>
  <time>2026-09-01T20:01:14Z</time>
  <course>2.06</course>
  <speed>25.95</speed>
  <fix>3d</fix>
</trkpt>
<trkpt lat="-27.2716216" lon="151.2904757">
  <ele>394.06</ele>
  <time>2026-09-01T20:01:15Z</time>
  <course>4.32</course>
  <speed>25.98567297569951</speed>
  <fix>3d</fix>
</trkpt>
<trkpt lat="-27.271689" lon="151.2904716">
  <ele>393.94</ele>
  <time>2026-09-01T20:01:15Z</time>
  <course>2.06</course>
  <speed>25.95</speed>
  <fix>3d</fix>
</trkpt>
<trkpt lat="-27.2715983" lon="151.2904773">
  <ele>394.15</ele>
  <time>2026-09-01T20:01:15Z</time>
  <course>4.74</course>
  <speed>25.97700521615223</speed>
  <fix>3d</fix>
</trkpt>
<trkpt lat="-27.2716425" lon="151.2904739">
  <ele>394.09</ele>
  <time>2026-09-01T20:01:15Z</time>
  <course>2.85</course>
  <speed>25.95</speed>
  <fix>3d</fix>
</trkpt>
<trkpt lat="-27.2715748" lon="151.290479">
  <ele>394.24</ele>
  <time>2026-09-01T20:01:15Z</time>
  <course>5.16</course>
  <speed>25.96959760951255</speed>
  <fix>3d</fix>
</trkpt>
<trkpt lat="-27.2716425" lon="151.2904739">
  <ele>394.09</ele>
  <time>2026-09-01T20:01:15Z</time>
  <course>2.85</course>
  <speed>25.95</speed>
  <fix>3d</fix>
</trkpt>
<trkpt lat="-27.2715516" lon="151.290481">
  <ele>394.33</ele>
  <time>2026-09-01T20:01:15Z</time>
  <course>5.55</course>
  <speed>25.963451234379455</speed>
  <fix>3d</fix>
</trkpt>
<trkpt lat="-27.271596" lon="151.2904768">
  <ele>394.26</ele>
  <time>2026-09-01T20:01:15Z</time>
  <course>3.67</course>
  <speed>25.95</speed>
  <fix>3d</fix>
</trkpt>
<trkpt lat="-27.2715284" lon="151.2904831">
  <ele>394.43</ele>
  <time>2026-09-01T20:01:15Z</time>
  <course>5.84</course>
  <speed>25.958566986642385</speed>
  <fix>3d</fix>
</trkpt>
<trkpt lat="-27.271596" lon="151.2904768">
  <ele>394.26</ele>
  <time>2026-09-01T20:01:15Z</time>
  <course>3.67</course>
  <speed>25.95</speed>
  <fix>3d</fix>
</trkpt>
<trkpt lat="-27.2715051" lon="151.2904854">
  <ele>394.53</ele>
  <time>2026-09-01T20:01:15Z</time>
  <course>6.25</course>
  <speed>25.9440513412998</speed>
  <fix>3d</fix>
</trkpt>
<trkpt lat="-27.2715495" lon="151.2904805">
  <ele>394.44</ele>
  <time>2026-09-01T20:01:15Z</time>
  <course>4.48</course>
  <speed>25.93</speed>
  <fix>3d</fix>
</trkpt>
<trkpt lat="-27.2714821" lon="151.2904878">
  <ele>394.63</ele>
  <time>2026-09-01T20:01:15Z</time>
  <course>6.65</course>
  <speed>25.92967604888268</speed>
  <fix>3d</fix>
</trkpt>
<trkpt lat="-27.2715495" lon="151.2904805">
  <ele>394.44</ele>
  <time>2026-09-01T20:01:15Z</time>
  <course>4.48</course>
  <speed>25.93</speed>
  <fix>3d</fix>
</trkpt>
<trkpt lat="-27.2714589" lon="151.2904904">
  <ele>394.73</ele>
  <time>2026-09-01T20:01:15Z</time>
  <course>7.0</course>
  <speed>25.916315324520962</speed>
  <fix>3d</fix>
</trkpt>
<trkpt lat="-27.271503" lon="151.290485">
  <ele>394.62</ele>
  <time>2026-09-01T20:01:15Z</time>
  <course>5.27</course>
  <speed>25.91</speed>
  <fix>3d</fix>
</trkpt>
<trkpt lat="-27.2714358" lon="151.2904932">
  <ele>394.84</ele>
  <time>2026-09-01T20:01:15Z</time>
  <course>7.4</course>
  <speed>25.894034061922447</speed>
  <fix>3d</fix>
</trkpt>
<trkpt lat="-27.271503" lon="151.290485">
  <ele>394.62</ele>
  <time>2026-09-01T20:01:15Z</time>
  <course>5.27</course>
  <speed>25.91</speed>
  <fix>3d</fix>
</trkpt>
<trkpt lat="-27.2714127" lon="151.2904962">
  <ele>394.95</ele>
  <time>2026-09-01T20:01:15Z</time>
  <course>7.81</course>
  <speed>25.882714308974627</speed>
  <fix>3d</fix>
</trkpt>
<trkpt lat="-27.2714568" lon="151.2904902">
  <ele>394.82</ele>
  <time>2026-09-01T20:01:15Z</time>
  <course>6.02</course>
  <speed>25.88</speed>
  <fix>3d</fix>
</trkpt>
<trkpt lat="-27.2713894" lon="151.2904993">
  <ele>395.06</ele>
  <time>2026-09-01T20:01:15Z</time>
  <course>8.11</course>
  <speed>25.86124513630386</speed>
  <fix>3d</fix>
</trkpt>
<trkpt lat="-27.2714568" lon="151.2904902">
  <ele>394.82</ele>
  <time>2026-09-01T20:01:15Z</time>
  <course>6.02</course>
  <speed>25.88</speed>
  <fix>3d</fix>
</trkpt>
<trkpt lat="-27.2713665" lon="151.2905026">
  <ele>395.17</ele>
  <time>2026-09-01T20:01:15Z</time>
  <course>8.4</course>
  <speed>25.829473475082686</speed>
  <fix>3d</fix>
</trkpt>
<trkpt lat="-27.2714106" lon="151.290496">
  <ele>395.03</ele>
  <time>2026-09-01T20:01:15Z</time>
  <course>6.75</course>
  <speed>25.84</speed>
  <fix>3d</fix>
</trkpt>
<trkpt lat="-27.2713436" lon="151.290506">
  <ele>395.28</ele>
  <time>2026-09-01T20:01:15Z</time>
  <course>8.7</course>
  <speed>25.799877906687854</speed>
  <fix>3d</fix>
</trkpt>
<trkpt lat="-27.2714106" lon="151.290496">
  <ele>395.03</ele>
  <time>2026-09-01T20:01:15Z</time>
  <course>6.75</course>
  <speed>25.84</speed>
  <fix>3d</fix>
</trkpt>
<trkpt lat="-27.2713208" lon="151.2905095">
  <ele>395.4</ele>
  <time>2026-09-01T20:01:15Z</time>
  <course>8.91</course>
  <speed>25.768385669265353</speed>
  <fix>3d</fix>
</trkpt>
<trkpt lat="-27.2713646" lon="151.2905025">
  <ele>395.24</ele>
  <time>2026-09-01T20:01:15Z</time>
  <course>7.44</course>
  <speed>25.8</speed>
  <fix>3d</fix>
</trkpt>
<trkpt lat="-27.271298" lon="151.2905132">
  <ele>395.52</ele>
  <time>2026-09-01T20:01:15Z</time>
  <course>9.14</course>
  <speed>25.73614578758832</speed>
  <fix>3d</fix>
</trkpt>
<trkpt lat="-27.2713646" lon="151.2905025">
  <ele>395.24</ele>
  <time>2026-09-01T20:01:15Z</time>
  <course>7.44</course>
  <speed>25.8</speed>
  <fix>3d</fix>
</trkpt>
<trkpt lat="-27.2712753" lon="151.290517">
  <ele>395.63</ele>
  <time>2026-09-01T20:01:15Z</time>
  <course>9.39</course>
  <speed>25.703015387304266</speed>
  <fix>3d</fix>
</trkpt>
<trkpt lat="-27.2713187" lon="151.2905095">
  <ele>395.46</ele>
  <time>2026-09-01T20:01:15Z</time>
  <course>8.07</course>
  <speed>25.75</speed>
  <fix>3d</fix>
</trkpt>
<trkpt lat="-27.2712526" lon="151.2905209">
  <ele>395.75</ele>
  <time>2026-09-01T20:01:15Z</time>
  <course>9.63</course>
  <speed>25.670410982296332</speed>
  <fix>3d</fix>
</trkpt>
<trkpt lat="-27.2713187" lon="151.2905095">
  <ele>395.46</ele>
  <time>2026-09-01T20:01:15Z</time>
  <course>8.07</course>
  <speed>25.75</speed>
  <fix>3d</fix>
</trkpt>
<trkpt lat="-27.27123" lon="151.2905249">
  <ele>395.88</ele>
  <time>2026-09-01T20:01:15Z</time>
  <course>9.83</course>
  <speed>25.636741212564438</speed>
  <fix>3d</fix>
</trkpt>
<trkpt lat="-27.2712728" lon="151.2905171">
  <ele>395.69</ele>
  <time>2026-09-01T20:01:15Z</time>
  <course>8.64</course>
  <speed>25.7</speed>
  <fix>3d</fix>
</trkpt>
<trkpt lat="-27.2712074" lon="151.290529">
  <ele>396.0</ele>
  <time>2026-09-01T20:01:15Z</time>
  <course>10.07</course>
  <speed>25.61175120916178</speed>
  <fix>3d</fix>
</trkpt>
<trkpt lat="-27.2712728" lon="151.2905171">
  <ele>395.69</ele>
  <time>2026-09-01T20:01:15Z</time>
  <course>8.64</course>
  <speed>25.7</speed>
  <fix>3d</fix>
</trkpt>
<trkpt lat="-27.2711848" lon="151.2905332">
  <ele>396.11</ele>
  <time>2026-09-01T20:01:15Z</time>
  <course>10.35</course>
  <speed>25.578922964034277</speed>
  <fix>3d</fix>
</trkpt>
<trkpt lat="-27.2712273" lon="151.2905251">
  <ele>395.92</ele>
  <time>2026-09-01T20:01:15Z</time>
  <course>9.14</course>
  <speed>25.64</speed>
  <fix>3d</fix>
</trkpt>
<trkpt lat="-27.2711622" lon="151.2905376">
  <ele>396.23</ele>
  <time>2026-09-01T20:01:15Z</time>
  <course>10.51</course>
  <speed>25.53497992950063</speed>
  <fix>3d</fix>
</trkpt>
<trkpt lat="-27.2712273" lon="151.2905251">
  <ele>395.92</ele>
  <time>2026-09-01T20:01:15Z</time>
  <course>9.14</course>
  <speed>25.64</speed>
  <fix>3d</fix>
</trkpt>
<trkpt lat="-27.2711397" lon="151.290542">
  <ele>396.36</ele>
  <time>2026-09-01T20:01:15Z</time>
  <course>10.59</course>
  <speed>25.499523524960228</speed>
  <fix>3d</fix>
</trkpt>
<trkpt lat="-27.2711819" lon="151.2905336">
  <ele>396.15</ele>
  <time>2026-09-01T20:01:15Z</time>
  <course>9.6</course>
  <speed>25.58</speed>
  <fix>3d</fix>
</trkpt>
<trkpt lat="-27.2711173" lon="151.2905465">
  <ele>396.48</ele>
  <time>2026-09-01T20:01:15Z</time>
  <course>10.72</course>
  <speed>25.462594133355697</speed>
  <fix>3d</fix>
</trkpt>
<trkpt lat="-27.2711819" lon="151.2905336">
  <ele>396.15</ele>
  <time>2026-09-01T20:01:15Z</time>
  <course>9.6</course>
  <speed>25.58</speed>
  <fix>3d</fix>
</trkpt>
<trkpt lat="-27.2710949" lon="151.290551">
  <ele>396.6</ele>
  <time>2026-09-01T20:01:15Z</time>
  <course>10.85</course>
  <speed>25.424102737363217</speed>
  <fix>3d</fix>
</trkpt>
<trkpt lat="-27.2711367" lon="151.2905424">
  <ele>396.39</ele>
  <time>2026-09-01T20:01:15Z</time>
  <course>10.03</course>
  <speed>25.52</speed>
  <fix>3d</fix>
</trkpt>
<trkpt lat="-27.2710725" lon="151.2905556">
  <ele>396.73</ele>
  <time>2026-09-01T20:01:15Z</time>
  <course>11.01</course>
  <speed>25.3857932710404</speed>
  <fix>3d</fix>
</trkpt>
<trkpt lat="-27.2711367" lon="151.2905424">
  <ele>396.39</ele>
  <time>2026-09-01T20:01:15Z</time>
  <course>10.03</course>
  <speed>25.52</speed>
  <fix>3d</fix>
</trkpt>
<trkpt lat="-27.2710501" lon="151.2905603">
  <ele>396.85</ele>
  <time>2026-09-01T20:01:15Z</time>
  <course>11.14</course>
  <speed>25.34766655927129</speed>
  <fix>3d</fix>
</trkpt>
<trkpt lat="-27.2710916" lon="151.2905515">
  <ele>396.63</ele>
  <time>2026-09-01T20:01:15Z</time>
  <course>10.38</course>
  <speed>25.45</speed>
  <fix>3d</fix>
</trkpt>
<trkpt lat="-27.2710278" lon="151.2905651">
  <ele>396.98</ele>
  <time>2026-09-01T20:01:15Z</time>
  <course>11.25</course>
  <speed>25.307848584974582</speed>
  <fix>3d</fix>
</trkpt>
<trkpt lat="-27.2710916" lon="151.2905515">
  <ele>396.63</ele>
  <time>2026-09-01T20:01:15Z</time>
  <course>10.38</course>
  <speed>25.45</speed>
  <fix>3d</fix>
</trkpt>
<trkpt lat="-27.2710055" lon="151.2905698">
  <ele>397.1</ele>
  <time>2026-09-01T20:01:15Z</time>
  <course>11.28</course>
  <speed>25.27609147000382</speed>
  <fix>3d</fix>
</trkpt>
<trkpt lat="-27.2710468" lon="151.2905609">
  <ele>396.87</ele>
  <time>2026-09-01T20:01:15Z</time>
  <course>10.67</course>
  <speed>25.37</speed>
  <fix>3d</fix>
</trkpt>
<trkpt lat="-27.2709832" lon="151.2905747">
  <ele>397.22</ele>
  <time>2026-09-01T20:01:15Z</time>
  <course>11.3</course>
  <speed>25.244421165873458</speed>
  <fix>3d</fix>
</trkpt>
<trkpt lat="-27.2710468" lon="151.2905609">
  <ele>396.87</ele>
  <time>2026-09-01T20:01:15Z</time>
  <course>10.67</course>
  <speed>25.37</speed>
  <fix>3d</fix>
</trkpt>
<trkpt lat="-27.270961" lon="151.2905795">
  <ele>397.34</ele>
  <time>2026-09-01T20:01:15Z</time>
  <course>11.32</course>
  <speed>25.1991765738486</speed>
  <fix>3d</fix>
</trkpt>
<trkpt lat="-27.271002" lon="151.2905705">
  <ele>397.11</ele>
  <time>2026-09-01T20:01:15Z</time>
  <course>10.92</course>
  <speed>25.3</speed>
  <fix>3d</fix>
</trkpt>
<trkpt lat="-27.2709388" lon="151.2905844">
  <ele>397.46</ele>
  <time>2026-09-01T20:01:15Z</time>
  <course>11.35</course>
  <speed>25.163777538358588</speed>
  <fix>3d</fix>
</trkpt>
<trkpt lat="-27.271002" lon="151.2905705">
  <ele>397.11</ele>
  <time>2026-09-01T20:01:15Z</time>
  <course>10.92</course>
  <speed>25.3</speed>
  <fix>3d</fix>
</trkpt>
<trkpt lat="-27.2709165" lon="151.2905894">
  <ele>397.59</ele>
  <time>2026-09-01T20:01:15Z</time>
  <course>11.52</course>
  <speed>25.128408226547098</speed>
  <fix>3d</fix>
</trkpt>
<trkpt lat="-27.2709575" lon="151.2905802">
  <ele>397.35</ele>
  <time>2026-09-01T20:01:15Z</time>
  <course>11.1</course>
  <speed>25.23</speed>
  <fix>3d</fix>
</trkpt>
<trkpt lat="-27.2708944" lon="151.2905943">
  <ele>397.71</ele>
  <time>2026-09-01T20:01:15Z</time>
  <course>11.55</course>
  <speed>25.093068764102966</speed>
  <fix>3d</fix>
</trkpt>
<trkpt lat="-27.2709575" lon="151.2905802">
  <ele>397.35</ele>
  <time>2026-09-01T20:01:15Z</time>
  <course>11.1</course>
  <speed>25.23</speed>
  <fix>3d</fix>
</trkpt>
<trkpt lat="-27.2708723" lon="151.2905993">
  <ele>397.84</ele>
  <time>2026-09-01T20:01:15Z</time>
  <course>11.45</course>
  <speed>25.04599169527931</speed>
  <fix>3d</fix>
</trkpt>
<trkpt lat="-27.2709131" lon="151.2905901">
  <ele>397.59</ele>
  <time>2026-09-01T20:01:15Z</time>
  <course>11.24</course>
  <speed>25.15</speed>
  <fix>3d</fix>
</trkpt>
<trkpt lat="-27.2708503" lon="151.2906042">
  <ele>397.97</ele>
  <time>2026-09-01T20:01:15Z</time>
  <course>11.38</course>
  <speed>24.996963815631688</speed>
  <fix>3d</fix>
</trkpt>
<trkpt lat="-27.2709131" lon="151.2905901">
  <ele>397.59</ele>
  <time>2026-09-01T20:01:15Z</time>
  <course>11.24</course>
  <speed>25.15</speed>
  <fix>3d</fix>
</trkpt>
<trkpt lat="-27.2708283" lon="151.2906092">
  <ele>398.09</ele>
  <time>2026-09-01T20:01:15Z</time>
  <course>11.36</course>
  <speed>24.957744289097924</speed>
  <fix>3d</fix>
</trkpt>
<trkpt lat="-27.2708688" lon="151.2906001">
  <ele>397.83</ele>
  <time>2026-09-01T20:01:15Z</time>
  <course>11.34</course>
  <speed>25.07</speed>
  <fix>3d</fix>
</trkpt>
<trkpt lat="-27.2708064" lon="151.2906141">
  <ele>398.22</ele>
  <time>2026-09-01T20:01:15Z</time>
  <course>11.41</course>
  <speed>24.9067541040578</speed>
  <fix>3d</fix>
</trkpt>
<trkpt lat="-27.2708688" lon="151.2906001">
  <ele>397.83</ele>
  <time>2026-09-01T20:01:15Z</time>
  <course>11.34</course>
  <speed>25.07</speed>
  <fix>3d</fix>
</trkpt>
<trkpt lat="-27.2707845" lon="151.2906191">
  <ele>398.35</ele>
  <time>2026-09-01T20:01:15Z</time>
  <course>11.44</course>
  <speed>24.867537071451206</speed>
  <fix>3d</fix>
</trkpt>
<trkpt lat="-27.2708246" lon="151.29061">
  <ele>398.08</ele>
  <time>2026-09-01T20:01:15Z</time>
  <course>11.39</course>
  <speed>24.98</speed>
  <fix>3d</fix>
</trkpt>
<trkpt lat="-27.2707626" lon="151.2906241">
  <ele>398.48</ele>
  <time>2026-09-01T20:01:15Z</time>
  <course>11.41</course>
  <speed>24.81654689919611</speed>
  <fix>3d</fix>
</trkpt>
<trkpt lat="-27.2708246" lon="151.29061">
  <ele>398.08</ele>
  <time>2026-09-01T20:01:15Z</time>
  <course>11.39</course>
  <speed>24.98</speed>
  <fix>3d</fix>
</trkpt>
<trkpt lat="-27.2707408" lon="151.290629">
  <ele>398.61</ele>
  <time>2026-09-01T20:01:15Z</time>
  <course>11.32</course>
  <speed>24.773392985217026</speed>
  <fix>3d</fix>
</trkpt>
<trkpt lat="-27.2707807" lon="151.29062">
  <ele>398.33</ele>
  <time>2026-09-01T20:01:15Z</time>
  <course>11.4</course>
  <speed>24.89</speed>
  <fix>3d</fix>
</trkpt>
<trkpt lat="-27.270719" lon="151.2906339">
  <ele>398.74</ele>
  <time>2026-09-01T20:01:15Z</time>
  <course>11.27</course>
  <speed>24.722402795844904</speed>
  <fix>3d</fix>
</trkpt>
<trkpt lat="-27.2707807" lon="151.29062">
  <ele>398.33</ele>
  <time>2026-09-01T20:01:15Z</time>
  <course>11.4</course>
  <speed>24.89</speed>
  <fix>3d</fix>
</trkpt>
<trkpt lat="-27.2706972" lon="151.2906388">
  <ele>398.87</ele>
  <time>2026-09-01T20:01:15Z</time>
  <course>11.23</course>
  <speed>24.6674887250405</speed>
  <fix>3d</fix>
</trkpt>
<trkpt lat="-27.2707369" lon="151.2906299">
  <ele>398.58</ele>
  <time>2026-09-01T20:01:15Z</time>
  <course>11.39</course>
  <speed>24.8</speed>
  <fix>3d</fix>
</trkpt>
<trkpt lat="-27.2706755" lon="151.2906437">
  <ele>399.01</ele>
  <time>2026-09-01T20:01:15Z</time>
  <course>11.21</course>
  <speed>24.624349737607286</speed>
  <fix>3d</fix>
</trkpt>
<trkpt lat="-27.2707369" lon="151.2906299">
  <ele>398.58</ele>
  <time>2026-09-01T20:01:15Z</time>
  <course>11.39</course>
  <speed>24.8</speed>
  <fix>3d</fix>
</trkpt>
<trkpt lat="-27.2706538" lon="151.2906486">
  <ele>399.15</ele>
  <time>2026-09-01T20:01:15Z</time>
  <course>11.14</course>
  <speed>24.56946071854244</speed>
  <fix>3d</fix>
</trkpt>
<trkpt lat="-27.2706934" lon="151.2906398">
  <ele>398.84</ele>
  <time>2026-09-01T20:01:15Z</time>
  <course>11.35</course>
  <speed>24.69</speed>
  <fix>3d</fix>
</trkpt>
<trkpt lat="-27.2706322" lon="151.2906534">
  <ele>399.28</ele>
  <time>2026-09-01T20:01:15Z</time>
  <course>11.05</course>
  <speed>24.52633686468487</speed>
  <fix>3d</fix>
</trkpt>
<trkpt lat="-27.2706934" lon="151.2906398">
  <ele>398.84</ele>
  <time>2026-09-01T20:01:15Z</time>
  <course>11.35</course>
  <speed>24.69</speed>
  <fix>3d</fix>
</trkpt>
<trkpt lat="-27.2706105" lon="151.2906582">
  <ele>399.41</ele>
  <time>2026-09-01T20:01:15Z</time>
  <course>10.97</course>
  <speed>24.48128468851257</speed>
  <fix>3d</fix>
</trkpt>
<trkpt lat="-27.2706499" lon="151.2906496">
  <ele>399.1</ele>
  <time>2026-09-01T20:01:15Z</time>
  <course>11.28</course>
  <speed>24.59</speed>
  <fix>3d</fix>
</trkpt>
<trkpt lat="-27.270589" lon="151.290663">
  <ele>399.53</ele>
  <time>2026-09-01T20:01:15Z</time>
  <course>10.95</course>
  <speed>24.436251758401898</speed>
  <fix>3d</fix>
</trkpt>
<trkpt lat="-27.2706499" lon="151.2906496">
  <ele>399.1</ele>
  <time>2026-09-01T20:01:15Z</time>
  <course>11.28</course>
  <speed>24.59</speed>
  <fix>3d</fix>
</trkpt>
<trkpt lat="-27.2705674" lon="151.2906678">
  <ele>399.64</ele>
  <time>2026-09-01T20:01:15Z</time>
  <course>10.91</course>
  <speed>24.40105325595598</speed>
  <fix>3d</fix>
</trkpt>
<trkpt lat="-27.2706067" lon="151.2906592">
  <ele>399.36</ele>
  <time>2026-09-01T20:01:15Z</time>
  <course>11.18</course>
  <speed>24.5</speed>
  <fix>3d</fix>
</trkpt>
<trkpt lat="-27.2705459" lon="151.2906725">
  <ele>399.75</ele>
  <time>2026-09-01T20:01:15Z</time>
  <course>10.89</course>
  <speed>24.3677840601069</speed>
  <fix>3d</fix>
</trkpt>
<trkpt lat="-27.2706067" lon="151.2906592">
  <ele>399.36</ele>
  <time>2026-09-01T20:01:15Z</time>
  <course>11.18</course>
  <speed>24.5</speed>
  <fix>3d</fix>
</trkpt>
<trkpt lat="-27.2705244" lon="151.2906772">
  <ele>399.84</ele>
  <time>2026-09-01T20:01:15Z</time>
  <course>10.83</course>
  <speed>24.344340204655374</speed>
  <fix>3d</fix>
</trkpt>
<trkpt lat="-27.2705636" lon="151.2906688">
  <ele>399.58</ele>
  <time>2026-09-01T20:01:15Z</time>
  <course>11.09</course>
  <speed>24.42</speed>
  <fix>3d</fix>
</trkpt>
<trkpt lat="-27.2705029" lon="151.2906819">
  <ele>399.93</ele>
  <time>2026-09-01T20:01:15Z</time>
  <course>10.78</course>
  <speed>24.319013137872183</speed>
  <fix>3d</fix>
</trkpt>
<trkpt lat="-27.2705636" lon="151.2906688">
  <ele>399.58</ele>
  <time>2026-09-01T20:01:15Z</time>
  <course>11.09</course>
  <speed>24.42</speed>
  <fix>3d</fix>
</trkpt>
<trkpt lat="-27.2704816" lon="151.2906865">
  <ele>400.01</ele>
  <time>2026-09-01T20:01:15Z</time>
  <course>10.64</course>
  <speed>24.285775672191324</speed>
  <fix>3d</fix>
</trkpt>
<trkpt lat="-27.2705206" lon="151.2906783">
  <ele>399.78</ele>
  <time>2026-09-01T20:01:15Z</time>
  <course>11.0</course>
  <speed>24.35</speed>
  <fix>3d</fix>
</trkpt>
<trkpt lat="-27.2704602" lon="151.2906912">
  <ele>400.08</ele>
  <time>2026-09-01T20:01:15Z</time>
  <course>10.55</course>
  <speed>24.268440411365543</speed>
  <fix>3d</fix>
</trkpt>
<trkpt lat="-27.2705206" lon="151.2906783">
  <ele>399.78</ele>
  <time>2026-09-01T20:01:15Z</time>
  <course>11.0</course>
  <speed>24.35</speed>
  <fix>3d</fix>
</trkpt>
<trkpt lat="-27.2704388" lon="151.2906958">
  <ele>400.15</ele>
  <time>2026-09-01T20:01:15Z</time>
  <course>10.45</course>
  <speed>24.24319492146198</speed>
  <fix>3d</fix>
</trkpt>
<trkpt lat="-27.2704777" lon="151.2906876">
  <ele>399.94</ele>
  <time>2026-09-01T20:01:15Z</time>
  <course>10.89</course>
  <speed>24.3</speed>
  <fix>3d</fix>
</trkpt>
<trkpt lat="-27.2704174" lon="151.2907003">
  <ele>400.22</ele>
  <time>2026-09-01T20:01:15Z</time>
  <course>10.35</course>
  <speed>24.225957153433587</speed>
  <fix>3d</fix>
</trkpt>
<trkpt lat="-27.2704777" lon="151.2906876">
  <ele>399.94</ele>
  <time>2026-09-01T20:01:15Z</time>
  <course>10.89</course>
  <speed>24.3</speed>
  <fix>3d</fix>
</trkpt>
<trkpt lat="-27.270396" lon="151.2907048">
  <ele>400.28</ele>
  <time>2026-09-01T20:01:15Z</time>
  <course>10.25</course>
  <speed>24.198946258050164</speed>
  <fix>3d</fix>
</trkpt>
<trkpt lat="-27.2704348" lon="151.2906968">
  <ele>400.08</ele>
  <time>2026-09-01T20:01:15Z</time>
  <course>10.74</course>
  <speed>24.25</speed>
  <fix>3d</fix>
</trkpt>
<trkpt lat="-27.2703744" lon="151.2907094">
  <ele>400.34</ele>
  <time>2026-09-01T20:01:15Z</time>
  <course>10.2</course>
  <speed>24.181821684893798</speed>
  <fix>3d</fix>
</trkpt>
<trkpt lat="-27.2704348" lon="151.2906968">
  <ele>400.08</ele>
  <time>2026-09-01T20:01:15Z</time>
  <course>10.74</course>
  <speed>24.25</speed>
  <fix>3d</fix>
</trkpt>
<trkpt lat="-27.2703531" lon="151.2907138">
  <ele>400.41</ele>
  <time>2026-09-01T20:01:15Z</time>
  <course>10.15</course>
  <speed>24.156721631877122</speed>
  <fix>3d</fix>
</trkpt>
<trkpt lat="-27.270392" lon="151.2907058">
  <ele>400.21</ele>
  <time>2026-09-01T20:01:15Z</time>
  <course>10.58</course>
  <speed>24.2</speed>
  <fix>3d</fix>
</trkpt>
<trkpt lat="-27.2703315" lon="151.2907183">
  <ele>400.47</ele>
  <time>2026-09-01T20:01:15Z</time>
  <course>10.04</course>
  <speed>24.141487112437794</speed>
  <fix>3d</fix>
</trkpt>
<trkpt lat="-27.270392" lon="151.2907058">
  <ele>400.21</ele>
  <time>2026-09-01T20:01:15Z</time>
  <course>10.58</course>
  <speed>24.2</speed>
  <fix>3d</fix>
</trkpt>
<trkpt lat="-27.2703102" lon="151.2907226">
  <ele>400.53</ele>
  <time>2026-09-01T20:01:15Z</time>
  <course>9.99</course>
  <speed>24.12450413998182</speed>
  <fix>3d</fix>
</trkpt>
<trkpt lat="-27.2703493" lon="151.2907148">
  <ele>400.33</ele>
  <time>2026-09-01T20:01:15Z</time>
  <course>10.42</course>
  <speed>24.16</speed>
  <fix>3d</fix>
</trkpt>
<trkpt lat="-27.2702889" lon="151.290727">
  <ele>400.59</ele>
  <time>2026-09-01T20:01:15Z</time>
  <course>9.9</course>
  <speed>24.109344661354857</speed>
  <fix>3d</fix>
</trkpt>
<trkpt lat="-27.2703493" lon="151.2907148">
  <ele>400.33</ele>
  <time>2026-09-01T20:01:15Z</time>
  <course>10.42</course>
  <speed>24.16</speed>
  <fix>3d</fix>
</trkpt>
<trkpt lat="-27.2702676" lon="151.2907313">
  <ele>400.65</ele>
  <time>2026-09-01T20:01:15Z</time>
  <course>9.84</course>
  <speed>24.082618213142855</speed>
  <fix>3d</fix>
</trkpt>
<trkpt lat="-27.2703066" lon="151.2907235">
  <ele>400.45</ele>
  <time>2026-09-01T20:01:15Z</time>
  <course>10.26</course>
  <speed>24.12</speed>
  <fix>3d</fix>
</trkpt>
<trkpt lat="-27.2702463" lon="151.2907355">
  <ele>400.71</ele>
  <time>2026-09-01T20:01:15Z</time>
  <course>9.74</course>
  <speed>24.067532071236553</speed>
  <fix>3d</fix>
</trkpt>
<trkpt lat="-27.2703066" lon="151.2907235">
  <ele>400.45</ele>
  <time>2026-09-01T20:01:15Z</time>
  <course>10.26</course>
  <speed>24.12</speed>
  <fix>3d</fix>
</trkpt>
<trkpt lat="-27.270225" lon="151.2907398">
  <ele>400.77</ele>
  <time>2026-09-01T20:01:15Z</time>
  <course>9.6</course>
  <speed>24.05075050804028</speed>
  <fix>3d</fix>
</trkpt>
<trkpt lat="-27.270264" lon="151.2907321">
  <ele>400.56</ele>
  <time>2026-09-01T20:01:15Z</time>
  <course>10.11</course>
  <speed>24.08</speed>
  <fix>3d</fix>
</trkpt>
<trkpt lat="-27.2702037" lon="151.2907439">
  <ele>400.82</ele>
  <time>2026-09-01T20:01:15Z</time>
  <course>9.5</course>
  <speed>24.035740055176166</speed>
  <fix>3d</fix>
</trkpt>
<trkpt lat="-27.270264" lon="151.2907321">
  <ele>400.56</ele>
  <time>2026-09-01T20:01:15Z</time>
  <course>10.11</course>
  <speed>24.08</speed>
  <fix>3d</fix>
</trkpt>
<trkpt lat="-27.2701825" lon="151.2907481">
  <ele>400.86</ele>
  <time>2026-09-01T20:01:15Z</time>
  <course>9.43</course>
  <speed>24.028915913956666</speed>
  <fix>3d</fix>
</trkpt>
<trkpt lat="-27.2702214" lon="151.2907406">
  <ele>400.67</ele>
  <time>2026-09-01T20:01:15Z</time>
  <course>9.94</course>
  <speed>24.04</speed>
  <fix>3d</fix>
</trkpt>
<trkpt lat="-27.2701612" lon="151.2907522">
  <ele>400.9</ele>
  <time>2026-09-01T20:01:15Z</time>
  <course>9.39</course>
  <speed>24.012298932005656</speed>
  <fix>3d</fix>
</trkpt>
<trkpt lat="-27.2702214" lon="151.2907406">
  <ele>400.67</ele>
  <time>2026-09-01T20:01:15Z</time>
  <course>9.94</course>
  <speed>24.04</speed>
  <fix>3d</fix>
</trkpt>
<trkpt lat="-27.27014" lon="151.2907563">
  <ele>400.94</ele>
  <time>2026-09-01T20:01:15Z</time>
  <course>9.32</course>
  <speed>23.99741027694447</speed>
  <fix>3d</fix>
</trkpt>
<trkpt lat="-27.2701789" lon="151.290749">
  <ele>400.77</ele>
  <time>2026-09-01T20:01:15Z</time>
  <course>9.77</course>
  <speed>24.02</speed>
  <fix>3d</fix>
</trkpt>
<trkpt lat="-27.2701187" lon="151.2907603">
  <ele>400.98</ele>
  <time>2026-09-01T20:01:15Z</time>
  <course>9.21</course>
  <speed>23.99241546822662</speed>
  <fix>3d</fix>
</trkpt>
<trkpt lat="-27.2701789" lon="151.290749">
  <ele>400.77</ele>
  <time>2026-09-01T20:01:15Z</time>
  <course>9.77</course>
  <speed>24.02</speed>
  <fix>3d</fix>
</trkpt>
<trkpt lat="-27.2700974" lon="151.2907644">
  <ele>401.01</ele>
  <time>2026-09-01T20:01:15Z</time>
  <course>9.15</course>
  <speed>23.987457139096673</speed>
  <fix>3d</fix>
</trkpt>
<trkpt lat="-27.2701364" lon="151.2907571">
  <ele>400.86</ele>
  <time>2026-09-01T20:01:15Z</time>
  <course>9.6</course>
  <speed>23.99</speed>
  <fix>3d</fix>
</trkpt>
<trkpt lat="-27.2700762" lon="151.2907684">
  <ele>401.05</ele>
  <time>2026-09-01T20:01:15Z</time>
  <course>9.06</course>
  <speed>23.982535312180822</speed>
  <fix>3d</fix>
</trkpt>
<trkpt lat="-27.2701364" lon="151.2907571">
  <ele>400.86</ele>
  <time>2026-09-01T20:01:15Z</time>
  <course>9.6</course>
  <speed>23.99</speed>
  <fix>3d</fix>
</trkpt>
<trkpt lat="-27.2700549" lon="151.2907723">
  <ele>401.08</ele>
  <time>2026-09-01T20:01:15Z</time>
  <course>8.95</course>
  <speed>23.977650009957188</speed>
  <fix>3d</fix>
</trkpt>
<trkpt lat="-27.2700939" lon="151.2907652">
  <ele>400.93</ele>
  <time>2026-09-01T20:01:15Z</time>
  <course>9.45</course>
  <speed>23.98</speed>
  <fix>3d</fix>
</trkpt>
<trkpt lat="-27.2700339" lon="151.2907762">
  <ele>401.12</ele>
  <time>2026-09-01T20:01:15Z</time>
  <course>8.85</course>
  <speed>23.962931790580217</speed>
  <fix>3d</fix>
</trkpt>
<trkpt lat="-27.2700939" lon="151.2907652">
  <ele>400.93</ele>
  <time>2026-09-01T20:01:15Z</time>
  <course>9.45</course>
  <speed>23.98</speed>
  <fix>3d</fix>
</trkpt>
<trkpt lat="-27.2700126" lon="151.2907801">
  <ele>401.16</ele>
  <time>2026-09-01T20:01:15Z</time>
  <course>8.79</course>
  <speed>23.95652103290459</speed>
  <fix>3d</fix>
</trkpt>
<trkpt lat="-27.2700514" lon="151.2907731">
  <ele>401.0</ele>
  <time>2026-09-01T20:01:15Z</time>
  <course>9.3</course>
  <speed>23.96</speed>
  <fix>3d</fix>
</trkpt>
<trkpt lat="-27.2699914" lon="151.2907839">
  <ele>401.21</ele>
  <time>2026-09-01T20:01:15Z</time>
  <course>8.71</course>
  <speed>23.94188171385031</speed>
  <fix>3d</fix>
</trkpt>
<trkpt lat="-27.2700514" lon="151.2907731">
  <ele>401.0</ele>
  <time>2026-09-01T20:01:15Z</time>
  <course>9.3</course>
  <speed>23.96</speed>
  <fix>3d</fix>
</trkpt>
<trkpt lat="-27.2699702" lon="151.2907878">
  <ele>401.25</ele>
  <time>2026-09-01T20:01:15Z</time>
  <course>8.64</course>
  <speed>23.937151041842885</speed>
  <fix>3d</fix>
</trkpt>
<trkpt lat="-27.270009" lon="151.2907808">
  <ele>401.08</ele>
  <time>2026-09-01T20:01:15Z</time>
  <course>9.14</course>
  <speed>23.94</speed>
  <fix>3d</fix>
</trkpt>
<trkpt lat="-27.2699488" lon="151.2907916">
  <ele>401.3</ele>
  <time>2026-09-01T20:01:15Z</time>
  <course>8.59</course>
  <speed>23.922579292375644</speed>
  <fix>3d</fix>
</trkpt>
<trkpt lat="-27.270009" lon="151.2907808">
  <ele>401.08</ele>
  <time>2026-09-01T20:01:15Z</time>
  <course>9.14</course>
  <speed>23.94</speed>
  <fix>3d</fix>
</trkpt>
<trkpt lat="-27.2699276" lon="151.2907953">
  <ele>401.34</ele>
  <time>2026-09-01T20:01:15Z</time>
  <course>8.6</course>
  <speed>23.908040488505115</speed>
  <fix>3d</fix>
</trkpt>
<trkpt lat="-27.2699665" lon="151.2907885">
  <ele>401.16</ele>
  <time>2026-09-01T20:01:15Z</time>
  <course>9.0</course>
  <speed>23.92</speed>
  <fix>3d</fix>
</trkpt>
<trkpt lat="-27.2699064" lon="151.2907991">
  <ele>401.38</ele>
  <time>2026-09-01T20:01:15Z</time>
  <course>8.56</course>
  <speed>23.90495346157361</speed>
  <fix>3d</fix>
</trkpt>
<trkpt lat="-27.2699665" lon="151.2907885">
  <ele>401.16</ele>
  <time>2026-09-01T20:01:15Z</time>
  <course>9.0</course>
  <speed>23.92</speed>
  <fix>3d</fix>
</trkpt>
<trkpt lat="-27.2698845" lon="151.2908029">
  <ele>401.41</ele>
  <time>2026-09-01T20:01:15Z</time>
  <course>8.53</course>
  <speed>23.892000753390242</speed>
  <fix>3d</fix>
</trkpt>
<trkpt lat="-27.2699239" lon="151.290796">
  <ele>401.25</ele>
  <time>2026-09-01T20:01:15Z</time>
  <course>8.87</course>
  <speed>23.89</speed>
  <fix>3d</fix>
</trkpt>
<trkpt lat="-27.2698633" lon="151.2908066">
  <ele>401.44</ele>
  <time>2026-09-01T20:01:15Z</time>
  <course>8.46</course>
  <speed>23.88894514205263</speed>
  <fix>3d</fix>
</trkpt>
<trkpt lat="-27.2699239" lon="151.290796">
  <ele>401.25</ele>
  <time>2026-09-01T20:01:15Z</time>
  <course>8.87</course>
  <speed>23.89</speed>
  <fix>3d</fix>
</trkpt>
<trkpt lat="-27.2698625" lon="151.2908067">
  <ele>401.44</ele>
  <time>2026-09-01T20:01:15Z</time>
  <course>8.46</course>
  <speed>23.88894514205263</speed>
  <fix>3d</fix>
</trkpt>
<trkpt lat="-27.2698422" lon="151.2908102">
  <ele>401.47</ele>
  <time>2026-09-01T20:01:15Z</time>
  <course>8.4</course>
  <speed>23.885905886107818</speed>
  <fix>3d</fix>
</trkpt>
<trkpt lat="-27.2698816" lon="151.2908033">
  <ele>401.32</ele>
  <time>2026-09-01T20:01:15Z</time>
  <course>8.77</course>
  <speed>23.87</speed>
  <fix>3d</fix>
</trkpt>
<trkpt lat="-27.269821" lon="151.2908139">
  <ele>401.5</ele>
  <time>2026-09-01T20:01:15Z</time>
  <course>8.3</course>
  <speed>23.874507324759605</speed>
  <fix>3d</fix>
</trkpt>
<trkpt lat="-27.2698816" lon="151.2908033">
  <ele>401.32</ele>
  <time>2026-09-01T20:01:15Z</time>
  <course>8.77</course>
  <speed>23.87</speed>
  <fix>3d</fix>
</trkpt>
<trkpt lat="-27.2697999" lon="151.2908175">
  <ele>401.52</ele>
  <time>2026-09-01T20:01:15Z</time>
  <course>8.18</course>
  <speed>23.82508342063045</speed>
  <fix>3d</fix>
</trkpt>
<trkpt lat="-27.2698392" lon="151.2908107">
  <ele>401.39</ele>
  <time>2026-09-01T20:01:15Z</time>
  <course>8.67</course>
  <speed>23.86</speed>
  <fix>3d</fix>
</trkpt>
<trkpt lat="-27.2697788" lon="151.2908211">
  <ele>401.5</ele>
  <time>2026-09-01T20:01:15Z</time>
  <course>8.04</course>
  <speed>23.73397986010774</speed>
  <fix>3d</fix>
</trkpt>
<trkpt lat="-27.2698392" lon="151.2908107">
  <ele>401.39</ele>
  <time>2026-09-01T20:01:15Z</time>
  <course>8.67</course>
  <speed>23.86</speed>
  <fix>3d</fix>
</trkpt>
<trkpt lat="-27.2697581" lon="151.2908245">
  <ele>401.37</ele>
  <time>2026-09-01T20:01:15Z</time>
  <course>9.31</course>
  <speed>23.593365592894965</speed>
  <fix>3d</fix>
</trkpt>
<trkpt lat="-27.2697968" lon="151.290818">
  <ele>401.42</ele>
  <time>2026-09-01T20:01:15Z</time>
  <course>8.56</course>
  <speed>23.79</speed>
  <fix>3d</fix>
</trkpt>
<trkpt lat="-27.2697372" lon="151.2908279">
  <ele>401.18</ele>
  <time>2026-09-01T20:01:15Z</time>
  <course>13.83</course>
  <speed>23.39480711611019</speed>
  <fix>3d</fix>
</trkpt>
<trkpt lat="-27.2697968" lon="151.290818">
  <ele>401.42</ele>
  <time>2026-09-01T20:01:15Z</time>
  <course>8.56</course>
  <speed>23.79</speed>
  <fix>3d</fix>
</trkpt>
<trkpt lat="-27.2697166" lon="151.2908318">
  <ele>400.93</ele>
  <time>2026-09-01T20:01:15Z</time>
  <course>16.27</course>
  <speed>23.147796871408737</speed>
  <fix>3d</fix>
</trkpt>
<trkpt lat="-27.2697548" lon="151.2908249">
  <ele>401.27</ele>
  <time>2026-09-01T20:01:15Z</time>
  <course>8.5</course>
  <speed>23.55</speed>
  <fix>3d</fix>
</trkpt>
<trkpt lat="-27.2696962" lon="151.2908356">
  <ele>400.63</ele>
  <time>2026-09-01T20:01:15Z</time>
  <course>10.67</course>
  <speed>22.933131055309477</speed>
  <fix>3d</fix>
</trkpt>
<trkpt lat="-27.2697548" lon="151.2908249">
  <ele>401.27</ele>
  <time>2026-09-01T20:01:15Z</time>
  <course>8.5</course>
  <speed>23.55</speed>
  <fix>3d</fix>
</trkpt>
<trkpt lat="-27.2696757" lon="151.2908375">
  <ele>400.36</ele>
  <time>2026-09-01T20:01:15Z</time>
  <course>6.02</course>
  <speed>22.78268860341114</speed>
  <fix>3d</fix>
</trkpt>
<trkpt lat="-27.2697133" lon="151.2908321">
  <ele>400.84</ele>
  <time>2026-09-01T20:01:15Z</time>
  <course>8.0</course>
  <speed>23.16</speed>
  <fix>3d</fix>
</trkpt>
<trkpt lat="-27.2696553" lon="151.2908379">
  <ele>400.15</ele>
  <time>2026-09-01T20:01:15Z</time>
  <course>2.63</course>
  <speed>22.63022094456879</speed>
  <fix>3d</fix>
</trkpt>
<trkpt lat="-27.2697133" lon="151.2908321">
  <ele>400.84</ele>
  <time>2026-09-01T20:01:15Z</time>
  <course>8.0</course>
  <speed>23.16</speed>
  <fix>3d</fix>
</trkpt>
<trkpt lat="-27.2696351" lon="151.2908373">
  <ele>400.02</ele>
  <time>2026-09-01T20:01:15Z</time>
  <course>0.23</course>
  <speed>22.43141769928954</speed>
  <fix>3d</fix>
</trkpt>
<trkpt lat="-27.2696724" lon="151.2908373">
  <ele>400.32</ele>
  <time>2026-09-01T20:01:15Z</time>
  <course>3.62</course>
  <speed>22.73</speed>
  <fix>3d</fix>
</trkpt>
<trkpt lat="-27.269615" lon="151.290836">
  <ele>399.96</ele>
  <time>2026-09-01T20:01:15Z</time>
  <course>358.5</course>
  <speed>22.202779105328233</speed>
  <fix>3d</fix>
</trkpt>
<trkpt lat="-27.2696724" lon="151.2908373">
  <ele>400.32</ele>
  <time>2026-09-01T20:01:15Z</time>
  <course>3.62</course>
  <speed>22.73</speed>
  <fix>3d</fix>
</trkpt>
<trkpt lat="-27.2695954" lon="151.2908344">
  <ele>399.94</ele>
  <time>2026-09-01T20:01:15Z</time>
  <course>357.23</course>
  <speed>21.947266344581504</speed>
  <fix>3d</fix>
</trkpt>
<trkpt lat="-27.2696319" lon="151.2908376">
  <ele>399.97</ele>
  <time>2026-09-01T20:01:15Z</time>
  <course>357.83</course>
  <speed>22.41</speed>
  <fix>3d</fix>
</trkpt>
<trkpt lat="-27.2695758" lon="151.2908325">
  <ele>399.95</ele>
  <time>2026-09-01T20:01:15Z</time>
  <course>356.27</course>
  <speed>21.68336228540214</speed>
  <fix>3d</fix>
</trkpt>
<trkpt lat="-27.2696319" lon="151.2908376">
  <ele>399.97</ele>
  <time>2026-09-01T20:01:15Z</time>
  <course>357.83</course>
  <speed>22.41</speed>
  <fix>3d</fix>
</trkpt>
<trkpt lat="-27.2695565" lon="151.2908305">
  <ele>399.97</ele>
  <time>2026-09-01T20:01:15Z</time>
  <course>355.54</course>
  <speed>21.412244160759982</speed>
  <fix>3d</fix>
</trkpt>
<trkpt lat="-27.2695921" lon="151.2908348">
  <ele>399.86</ele>
  <time>2026-09-01T20:01:15Z</time>
  <course>355.2</course>
  <speed>21.95</speed>
  <fix>3d</fix>
</trkpt>
<trkpt lat="-27.2695375" lon="151.2908284">
  <ele>400.01</ele>
  <time>2026-09-01T20:01:15Z</time>
  <course>355.0</course>
  <speed>21.13459013087313</speed>
  <fix>3d</fix>
</trkpt>
<trkpt lat="-27.2695921" lon="151.2908348">
  <ele>399.86</ele>
  <time>2026-09-01T20:01:15Z</time>
  <course>355.2</course>
  <speed>21.95</speed>
  <fix>3d</fix>
</trkpt>
<trkpt lat="-27.2695185" lon="151.2908263">
  <ele>400.06</ele>
  <time>2026-09-01T20:01:15Z</time>
  <course>354.61</course>
  <speed>20.853990025891925</speed>
  <fix>3d</fix>
</trkpt>
<trkpt lat="-27.2695532" lon="151.2908307">
  <ele>399.89</ele>
  <time>2026-09-01T20:01:15Z</time>
  <course>354.23</course>
  <speed>21.41</speed>
  <fix>3d</fix>
</trkpt>
<trkpt lat="-27.2695" lon="151.2908242">
  <ele>400.1</ele>
  <time>2026-09-01T20:01:15Z</time>
  <course>354.32</course>
  <speed>20.58334278002482</speed>
  <fix>3d</fix>
</trkpt>
<trkpt lat="-27.2695532" lon="151.2908307">
  <ele>399.89</ele>
  <time>2026-09-01T20:01:15Z</time>
  <course>354.23</course>
  <speed>21.41</speed>
  <fix>3d</fix>
</trkpt>
<trkpt lat="-27.2694994" lon="151.2908242">
  <ele>400.1</ele>
  <time>2026-09-01T20:01:15Z</time>
  <course>354.31</course>
  <speed>20.573393011363</speed>
  <fix>3d</fix>
</trkpt>
<trkpt lat="-27.2694816" lon="151.2908222">
  <ele>400.14</ele>
  <time>2026-09-01T20:01:15Z</time>
  <course>354.13</course>
  <speed>20.312697999034988</speed>
  <fix>3d</fix>
</trkpt>
<trkpt lat="-27.2695154" lon="151.2908263">
  <ele>399.97</ele>
  <time>2026-09-01T20:01:15Z</time>
  <course>353.96</course>
  <speed>20.86</speed>
  <fix>3d</fix>
</trkpt>
<trkpt lat="-27.269463" lon="151.29082">
  <ele>400.19</ele>
  <time>2026-09-01T20:01:15Z</time>
  <course>354.02</course>
  <speed>20.043066132705345</speed>
  <fix>3d</fix>
</trkpt>
<trkpt lat="-27.2695154" lon="151.2908263">
  <ele>399.97</ele>
  <time>2026-09-01T20:01:15Z</time>
  <course>353.96</course>
  <speed>20.86</speed>
  <fix>3d</fix>
</trkpt>
<trkpt lat="-27.2694452" lon="151.290818">
  <ele>400.23</ele>
  <time>2026-09-01T20:01:15Z</time>
  <course>353.96</course>
  <speed>19.803292655515648</speed>
  <fix>3d</fix>
</trkpt>
<trkpt lat="-27.2694786" lon="151.2908218">
  <ele>400.06</ele>
  <time>2026-09-01T20:01:15Z</time>
  <course>353.87</course>
  <speed>20.31</speed>
  <fix>3d</fix>
</trkpt>
<trkpt lat="-27.2694276" lon="151.2908159">
  <ele>400.27</ele>
  <time>2026-09-01T20:01:15Z</time>
  <course>353.94</course>
  <speed>19.595433141423538</speed>
  <fix>3d</fix>
</trkpt>
<trkpt lat="-27.2694786" lon="151.2908218">
  <ele>400.06</ele>
  <time>2026-09-01T20:01:15Z</time>
  <course>353.87</course>
  <speed>20.31</speed>
  <fix>3d</fix>
</trkpt>
<trkpt lat="-27.2694101" lon="151.2908138">
  <ele>400.32</ele>
  <time>2026-09-01T20:01:15Z</time>
  <course>353.98</course>
  <speed>19.447292870731392</speed>
  <fix>3d</fix>
</trkpt>
<trkpt lat="-27.2694428" lon="151.2908175">
  <ele>400.15</ele>
  <time>2026-09-01T20:01:15Z</time>
  <course>353.76</course>
  <speed>19.81</speed>
  <fix>3d</fix>
</trkpt>
<trkpt lat="-27.2693927" lon="151.2908116">
  <ele>400.37</ele>
  <time>2026-09-01T20:01:15Z</time>
  <course>354.04</course>
  <speed>19.359909607226992</speed>
  <fix>3d</fix>
</trkpt>
<trkpt lat="-27.2694428" lon="151.2908175">
  <ele>400.15</ele>
  <time>2026-09-01T20:01:15Z</time>
  <course>353.76</course>
  <speed>19.81</speed>
  <fix>3d</fix>
</trkpt>
<trkpt lat="-27.2693754" lon="151.2908095">
  <ele>400.43</ele>
  <time>2026-09-01T20:01:15Z</time>
  <course>354.14</course>
  <speed>19.34216378795299</speed>
  <fix>3d</fix>
</trkpt>
<trkpt lat="-27.2694077" lon="151.2908132">
  <ele>400.24</ele>
  <time>2026-09-01T20:01:15Z</time>
  <course>353.6</course>
  <speed>19.46</speed>
  <fix>3d</fix>
</trkpt>
<trkpt lat="-27.2693579" lon="151.2908073">
  <ele>400.48</ele>
  <time>2026-09-01T20:01:15Z</time>
  <course>354.25</course>
  <speed>19.383008022492277</speed>
  <fix>3d</fix>
</trkpt>
<trkpt lat="-27.2694077" lon="151.2908132">
  <ele>400.24</ele>
  <time>2026-09-01T20:01:15Z</time>
  <course>353.6</course>
  <speed>19.46</speed>
  <fix>3d</fix>
</trkpt>
<trkpt lat="-27.2693405" lon="151.2908051">
  <ele>400.53</ele>
  <time>2026-09-01T20:01:15Z</time>
  <course>354.47</course>
  <speed>19.49237030224903</speed>
  <fix>3d</fix>
</trkpt>
<trkpt lat="-27.2693731" lon="151.2908087">
  <ele>400.34</ele>
  <time>2026-09-01T20:01:15Z</time>
  <course>353.48</course>
  <speed>19.34</speed>
  <fix>3d</fix>
</trkpt>
<trkpt lat="-27.269323" lon="151.2908029">
  <ele>400.58</ele>
  <time>2026-09-01T20:01:15Z</time>
  <course>354.65</course>
  <speed>19.649338411254462</speed>
  <fix>3d</fix>
</trkpt>
<trkpt lat="-27.2693731" lon="151.2908087">
  <ele>400.34</ele>
  <time>2026-09-01T20:01:15Z</time>
  <course>353.48</course>
  <speed>19.34</speed>
  <fix>3d</fix>
</trkpt>
<trkpt lat="-27.2693054" lon="151.2908007">
  <ele>400.61</ele>
  <time>2026-09-01T20:01:15Z</time>
  <course>354.81</course>
  <speed>19.824209946426617</speed>
  <fix>3d</fix>
</trkpt>
<trkpt lat="-27.2693386" lon="151.2908043">
  <ele>400.44</ele>
  <time>2026-09-01T20:01:15Z</time>
  <course>353.52</course>
  <speed>19.47</speed>
  <fix>3d</fix>
</trkpt>
<trkpt lat="-27.2692876" lon="151.2907986">
  <ele>400.64</ele>
  <time>2026-09-01T20:01:15Z</time>
  <course>354.96</course>
  <speed>19.997272313993225</speed>
  <fix>3d</fix>
</trkpt>
<trkpt lat="-27.2693386" lon="151.2908043">
  <ele>400.44</ele>
  <time>2026-09-01T20:01:15Z</time>
  <course>353.52</course>
  <speed>19.47</speed>
  <fix>3d</fix>
</trkpt>
<trkpt lat="-27.2692696" lon="151.2907966">
  <ele>400.66</ele>
  <time>2026-09-01T20:01:15Z</time>
  <course>355.24</course>
  <speed>20.167815945213302</speed>
  <fix>3d</fix>
</trkpt>
<trkpt lat="-27.2693035" lon="151.2907999">
  <ele>400.52</ele>
  <time>2026-09-01T20:01:15Z</time>
  <course>353.81</course>
  <speed>19.77</speed>
  <fix>3d</fix>
</trkpt>
<trkpt lat="-27.2692515" lon="151.2907947">
  <ele>400.68</ele>
  <time>2026-09-01T20:01:15Z</time>
  <course>355.55</course>
  <speed>20.326340054225206</speed>
  <fix>3d</fix>
</trkpt>
<trkpt lat="-27.2693035" lon="151.2907999">
  <ele>400.52</ele>
  <time>2026-09-01T20:01:15Z</time>
  <course>353.81</course>
  <speed>19.77</speed>
  <fix>3d</fix>
</trkpt>
<trkpt lat="-27.2692337" lon="151.2907929">
  <ele>400.68</ele>
  <time>2026-09-01T20:01:15Z</time>
  <course>356.01</course>
  <speed>20.483371304548477</speed>
  <fix>3d</fix>
</trkpt>
<trkpt lat="-27.2692679" lon="151.2907958">
  <ele>400.56</ele>
  <time>2026-09-01T20:01:15Z</time>
  <course>354.35</course>
  <speed>20.1</speed>
  <fix>3d</fix>
</trkpt>
<trkpt lat="-27.2692155" lon="151.2907913">
  <ele>400.69</ele>
  <time>2026-09-01T20:01:15Z</time>
  <course>356.52</course>
  <speed>20.62962190637531</speed>
  <fix>3d</fix>
</trkpt>
<trkpt lat="-27.2692679" lon="151.2907958">
  <ele>400.56</ele>
  <time>2026-09-01T20:01:15Z</time>
  <course>354.35</course>
  <speed>20.1</speed>
  <fix>3d</fix>
</trkpt>
<trkpt lat="-27.269197" lon="151.2907899">
  <ele>400.69</ele>
  <time>2026-09-01T20:01:15Z</time>
  <course>357.04</course>
  <speed>20.723621787708826</speed>
  <fix>3d</fix>
</trkpt>
<trkpt lat="-27.2692317" lon="151.290792">
  <ele>400.58</ele>
  <time>2026-09-01T20:01:15Z</time>
  <course>355.22</course>
  <speed>20.42</speed>
  <fix>3d</fix>
</trkpt>
<trkpt lat="-27.2691784" lon="151.2907887">
  <ele>400.69</ele>
  <time>2026-09-01T20:01:15Z</time>
  <course>357.67</course>
  <speed>20.799050459095483</speed>
  <fix>3d</fix>
</trkpt>
<trkpt lat="-27.2692317" lon="151.290792">
  <ele>400.58</ele>
  <time>2026-09-01T20:01:15Z</time>
  <course>355.22</course>
  <speed>20.42</speed>
  <fix>3d</fix>
</trkpt>
<trkpt lat="-27.2691597" lon="151.2907879">
  <ele>400.7</ele>
  <time>2026-09-01T20:01:15Z</time>
  <course>358.21</course>
  <speed>20.898330076826714</speed>
  <fix>3d</fix>
</trkpt>
<trkpt lat="-27.2691949" lon="151.290789">
  <ele>400.59</ele>
  <time>2026-09-01T20:01:15Z</time>
  <course>356.51</course>
  <speed>20.66</speed>
  <fix>3d</fix>
</trkpt>
<trkpt lat="-27.2691407" lon="151.2907873">
  <ele>400.71</ele>
  <time>2026-09-01T20:01:15Z</time>
  <course>358.43</course>
  <speed>21.012286881727082</speed>
  <fix>3d</fix>
</trkpt>
<trkpt lat="-27.2691949" lon="151.290789">
  <ele>400.59</ele>
  <time>2026-09-01T20:01:15Z</time>
  <course>356.51</course>
  <speed>20.66</speed>
  <fix>3d</fix>
</trkpt>
<trkpt lat="-27.2691218" lon="151.290787">
  <ele>400.73</ele>
  <time>2026-09-01T20:01:15Z</time>
  <course>358.25</course>
  <speed>21.130340745004563</speed>
  <fix>3d</fix>
</trkpt>
<trkpt lat="-27.2691576" lon="151.2907871">
  <ele>400.61</ele>
  <time>2026-09-01T20:01:15Z</time>
  <course>358.09</course>
  <speed>20.85</speed>
  <fix>3d</fix>
</trkpt>
<trkpt lat="-27.2691028" lon="151.2907869">
  <ele>400.75</ele>
  <time>2026-09-01T20:01:15Z</time>
  <course>357.83</course>
  <speed>21.250021176460038</speed>
  <fix>3d</fix>
</trkpt>
<trkpt lat="-27.2691576" lon="151.2907871">
  <ele>400.61</ele>
  <time>2026-09-01T20:01:15Z</time>
  <course>358.09</course>
  <speed>20.85</speed>
  <fix>3d</fix>
</trkpt>
<trkpt lat="-27.269083" lon="151.2907867">
  <ele>400.78</ele>
  <time>2026-09-01T20:01:15Z</time>
  <course>357.29</course>
  <speed>21.350114753789967</speed>
  <fix>3d</fix>
</trkpt>
<trkpt lat="-27.2691198" lon="151.2907862">
  <ele>400.63</ele>
  <time>2026-09-01T20:01:15Z</time>
  <course>359.32</course>
  <speed>21.07</speed>
  <fix>3d</fix>
</trkpt>
<trkpt lat="-27.2690639" lon="151.2907864">
  <ele>400.82</ele>
  <time>2026-09-01T20:01:15Z</time>
  <course>356.76</course>
  <speed>21.44134324150425</speed>
  <fix>3d</fix>
</trkpt>
<trkpt lat="-27.2691198" lon="151.2907862">
  <ele>400.63</ele>
  <time>2026-09-01T20:01:15Z</time>
  <course>359.32</course>
  <speed>21.07</speed>
  <fix>3d</fix>
</trkpt>
<trkpt lat="-27.2690446" lon="151.2907859">
  <ele>400.86</ele>
  <time>2026-09-01T20:01:15Z</time>
  <course>356.25</course>
  <speed>21.52677402677884</speed>
  <fix>3d</fix>
</trkpt>
<trkpt lat="-27.2690818" lon="151.2907858">
  <ele>400.68</ele>
  <time>2026-09-01T20:01:15Z</time>
  <course>359.49</course>
  <speed>21.29</speed>
  <fix>3d</fix>
</trkpt>
<trkpt lat="-27.2690252" lon="151.2907851">
  <ele>400.91</ele>
  <time>2026-09-01T20:01:15Z</time>
  <course>355.8</course>
  <speed>21.60003009257163</speed>
  <fix>3d</fix>
</trkpt>
<trkpt lat="-27.2690818" lon="151.2907858">
  <ele>400.68</ele>
  <time>2026-09-01T20:01:15Z</time>
  <course>359.49</course>
  <speed>21.29</speed>
  <fix>3d</fix>
</trkpt>
<trkpt lat="-27.2690058" lon="151.2907838">
  <ele>400.96</ele>
  <time>2026-09-01T20:01:15Z</time>
  <course>355.19</course>
  <speed>21.675908285467532</speed>
  <fix>3d</fix>
</trkpt>
<trkpt lat="-27.2690434" lon="151.2907851">
  <ele>400.76</ele>
  <time>2026-09-01T20:01:15Z</time>
  <course>358.37</course>
  <speed>21.47</speed>
  <fix>3d</fix>
</trkpt>
<trkpt lat="-27.2689862" lon="151.290782">
  <ele>401.02</ele>
  <time>2026-09-01T20:01:15Z</time>
  <course>354.33</course>
  <speed>21.758458125519834</speed>
  <fix>3d</fix>
</trkpt>
<trkpt lat="-27.2690434" lon="151.2907851">
  <ele>400.76</ele>
  <time>2026-09-01T20:01:15Z</time>
  <course>358.37</course>
  <speed>21.47</speed>
  <fix>3d</fix>
</trkpt>
<trkpt lat="-27.2689667" lon="151.2907797">
  <ele>401.07</ele>
  <time>2026-09-01T20:01:15Z</time>
  <course>353.25</course>
  <speed>21.831795620149983</speed>
  <fix>3d</fix>
</trkpt>
<trkpt lat="-27.2690047" lon="151.290783">
  <ele>400.86</ele>
  <time>2026-09-01T20:01:15Z</time>
  <course>356.18</course>
  <speed>21.62</speed>
  <fix>3d</fix>
</trkpt>
<trkpt lat="-27.2689473" lon="151.2907767">
  <ele>401.13</ele>
  <time>2026-09-01T20:01:15Z</time>
  <course>351.89</course>
  <speed>21.91087629466243</speed>
  <fix>3d</fix>
</trkpt>
<trkpt lat="-27.2690047" lon="151.290783">
  <ele>400.86</ele>
  <time>2026-09-01T20:01:15Z</time>
  <course>356.18</course>
  <speed>21.62</speed>
  <fix>3d</fix>
</trkpt>
<trkpt lat="-27.2689278" lon="151.290773">
  <ele>401.18</ele>
  <time>2026-09-01T20:01:15Z</time>
  <course>350.31</course>
  <speed>21.989508862182436</speed>
  <fix>3d</fix>
</trkpt>
<trkpt lat="-27.2689659" lon="151.290779">
  <ele>400.97</ele>
  <time>2026-09-01T20:01:15Z</time>
  <course>353.21</course>
  <speed>21.77</speed>
  <fix>3d</fix>
</trkpt>
<trkpt lat="-27.2689084" lon="151.2907685">
  <ele>401.24</ele>
  <time>2026-09-01T20:01:15Z</time>
  <course>348.56</course>
  <speed>22.065133128988823</speed>
  <fix>3d</fix>
</trkpt>
<trkpt lat="-27.2689659" lon="151.290779">
  <ele>400.97</ele>
  <time>2026-09-01T20:01:15Z</time>
  <course>353.21</course>
  <speed>21.77</speed>
  <fix>3d</fix>
</trkpt>
<trkpt lat="-27.2688891" lon="151.2907633">
  <ele>401.29</ele>
  <time>2026-09-01T20:01:15Z</time>
  <course>346.62</course>
  <speed>22.149203145937328</speed>
  <fix>3d</fix>
</trkpt>
<trkpt lat="-27.2689271" lon="151.2907725">
  <ele>401.08</ele>
  <time>2026-09-01T20:01:15Z</time>
  <course>349.62</course>
  <speed>21.92</speed>
  <fix>3d</fix>
</trkpt>
<trkpt lat="-27.2688699" lon="151.2907572">
  <ele>401.33</ele>
  <time>2026-09-01T20:01:15Z</time>
  <course>344.49</course>
  <speed>22.23403247276571</speed>
  <fix>3d</fix>
</trkpt>
<trkpt lat="-27.2689271" lon="151.2907725">
  <ele>401.08</ele>
  <time>2026-09-01T20:01:15Z</time>
  <course>349.62</course>
  <speed>21.92</speed>
  <fix>3d</fix>
</trkpt>
<trkpt lat="-27.2688509" lon="151.2907503">
  <ele>401.38</ele>
  <time>2026-09-01T20:01:15Z</time>
  <course>342.2</course>
  <speed>22.320936360287398</speed>
  <fix>3d</fix>
</trkpt>
<trkpt lat="-27.2688885" lon="151.2907629">
  <ele>401.18</ele>
  <time>2026-09-01T20:01:15Z</time>
  <course>345.51</course>
  <speed>22.08</speed>
  <fix>3d</fix>
</trkpt>
<trkpt lat="-27.2688321" lon="151.2907424">
  <ele>401.42</ele>
  <time>2026-09-01T20:01:15Z</time>
  <course>339.81</course>
  <speed>22.415516946972247</speed>
  <fix>3d</fix>
</trkpt>
<trkpt lat="-27.2688885" lon="151.2907629">
  <ele>401.18</ele>
  <time>2026-09-01T20:01:15Z</time>
  <course>345.51</course>
  <speed>22.08</speed>
  <fix>3d</fix>
</trkpt>
<trkpt lat="-27.2688135" lon="151.2907336">
  <ele>401.45</ele>
  <time>2026-09-01T20:01:15Z</time>
  <course>337.36</course>
  <speed>22.507218841962683</speed>
  <fix>3d</fix>
</trkpt>
<trkpt lat="-27.2688504" lon="151.29075">
  <ele>401.27</ele>
  <time>2026-09-01T20:01:15Z</time>
  <course>340.94</course>
  <speed>22.26</speed>
  <fix>3d</fix>
</trkpt>
<trkpt lat="-27.2687952" lon="151.2907239">
  <ele>401.49</ele>
  <time>2026-09-01T20:01:15Z</time>
  <course>334.83</course>
  <speed>22.606691487256597</speed>
  <fix>3d</fix>
</trkpt>
<trkpt lat="-27.2688504" lon="151.29075">
  <ele>401.27</ele>
  <time>2026-09-01T20:01:15Z</time>
  <course>340.94</course>
  <speed>22.26</speed>
  <fix>3d</fix>
</trkpt>
<trkpt lat="-27.2687773" lon="151.2907131">
  <ele>401.52</ele>
  <time>2026-09-01T20:01:15Z</time>
  <course>332.26</course>
  <speed>22.69146976288667</speed>
  <fix>3d</fix>
</trkpt>
<trkpt lat="-27.268813" lon="151.2907334">
  <ele>401.34</ele>
  <time>2026-09-01T20:01:15Z</time>
  <course>335.99</course>
  <speed>22.44</speed>
  <fix>3d</fix>
</trkpt>
<trkpt lat="-27.2687597" lon="151.2907015">
  <ele>401.56</ele>
  <time>2026-09-01T20:01:15Z</time>
  <course>329.56</course>
  <speed>22.78571482310792</speed>
  <fix>3d</fix>
</trkpt>
<trkpt lat="-27.268813" lon="151.2907334">
  <ele>401.34</ele>
  <time>2026-09-01T20:01:15Z</time>
  <course>335.99</course>
  <speed>22.44</speed>
  <fix>3d</fix>
</trkpt>
<trkpt lat="-27.2687426" lon="151.2906888">
  <ele>401.59</ele>
  <time>2026-09-01T20:01:15Z</time>
  <course>326.83</course>
  <speed>22.879720278010396</speed>
  <fix>3d</fix>
</trkpt>
<trkpt lat="-27.2687768" lon="151.290713">
  <ele>401.41</ele>
  <time>2026-09-01T20:01:15Z</time>
  <course>330.75</course>
  <speed>22.63</speed>
  <fix>3d</fix>
</trkpt>
<trkpt lat="-27.268726" lon="151.2906752">
  <ele>401.62</ele>
  <time>2026-09-01T20:01:15Z</time>
  <course>324.07</course>
  <speed>22.969634302704954</speed>
  <fix>3d</fix>
</trkpt>
<trkpt lat="-27.2687768" lon="151.290713">
  <ele>401.41</ele>
  <time>2026-09-01T20:01:15Z</time>
  <course>330.75</course>
  <speed>22.63</speed>
  <fix>3d</fix>
</trkpt>
<trkpt lat="-27.2687103" lon="151.290661">
  <ele>401.64</ele>
  <time>2026-09-01T20:01:15Z</time>
  <course>321.32</course>
  <speed>23.058972223410134</speed>
  <fix>3d</fix>
</trkpt>
<trkpt lat="-27.2687421" lon="151.2906886">
  <ele>401.48</ele>
  <time>2026-09-01T20:01:15Z</time>
  <course>325.3</course>
  <speed>22.83</speed>
  <fix>3d</fix>
</trkpt>
<trkpt lat="-27.2686944" lon="151.290645">
  <ele>401.67</ele>
  <time>2026-09-01T20:01:15Z</time>
  <course>318.38</course>
  <speed>23.154621568922263</speed>
  <fix>3d</fix>
</trkpt>
<trkpt lat="-27.2687421" lon="151.2906886">
  <ele>401.48</ele>
  <time>2026-09-01T20:01:15Z</time>
  <course>325.3</course>
  <speed>22.83</speed>
  <fix>3d</fix>
</trkpt>
<trkpt lat="-27.2686797" lon="151.2906288">
  <ele>401.7</ele>
  <time>2026-09-01T20:01:15Z</time>
  <course>315.59</course>
  <speed>23.239664369349224</speed>
  <fix>3d</fix>
</trkpt>
<trkpt lat="-27.2687095" lon="151.2906604">
  <ele>401.53</ele>
  <time>2026-09-01T20:01:15Z</time>
  <course>319.7</course>
  <speed>23.02</speed>
  <fix>3d</fix>
</trkpt>
<trkpt lat="-27.2686657" lon="151.2906115">
  <ele>401.73</ele>
  <time>2026-09-01T20:01:15Z</time>
  <course>312.74</course>
  <speed>23.333718092065823</speed>
  <fix>3d</fix>
</trkpt>
<trkpt lat="-27.2687095" lon="151.2906604">
  <ele>401.53</ele>
  <time>2026-09-01T20:01:15Z</time>
  <course>319.7</course>
  <speed>23.02</speed>
  <fix>3d</fix>
</trkpt>
<trkpt lat="-27.2686524" lon="151.2905935">
  <ele>401.75</ele>
  <time>2026-09-01T20:01:15Z</time>
  <course>309.82</course>
  <speed>23.411512125448027</speed>
  <fix>3d</fix>
</trkpt>
<trkpt lat="-27.2686792" lon="151.2906285">
  <ele>401.58</ele>
  <time>2026-09-01T20:01:15Z</time>
  <course>313.98</course>
  <speed>23.21</speed>
  <fix>3d</fix>
</trkpt>
<trkpt lat="-27.2686399" lon="151.2905747">
  <ele>401.78</ele>
  <time>2026-09-01T20:01:15Z</time>
  <course>306.86</course>
  <speed>23.491670864372335</speed>
  <fix>3d</fix>
</trkpt>
<trkpt lat="-27.2686792" lon="151.2906285">
  <ele>401.58</ele>
  <time>2026-09-01T20:01:15Z</time>
  <course>313.98</course>
  <speed>23.21</speed>
  <fix>3d</fix>
</trkpt>
<trkpt lat="-27.2686281" lon="151.290555">
  <ele>401.8</ele>
  <time>2026-09-01T20:01:15Z</time>
  <course>303.86</course>
  <speed>23.576683396949626</speed>
  <fix>3d</fix>
</trkpt>
<trkpt lat="-27.2686517" lon="151.290593">
  <ele>401.63</ele>
  <time>2026-09-01T20:01:15Z</time>
  <course>308.19</course>
  <speed>23.41</speed>
  <fix>3d</fix>
</trkpt>
<trkpt lat="-27.2686173" lon="151.2905346">
  <ele>401.83</ele>
  <time>2026-09-01T20:01:15Z</time>
  <course>300.95</course>
  <speed>23.661667312342974</speed>
  <fix>3d</fix>
</trkpt>
<trkpt lat="-27.2686517" lon="151.290593">
  <ele>401.63</ele>
  <time>2026-09-01T20:01:15Z</time>
  <course>308.19</course>
  <speed>23.41</speed>
  <fix>3d</fix>
</trkpt>
<trkpt lat="-27.2686074" lon="151.2905136">
  <ele>401.85</ele>
  <time>2026-09-01T20:01:15Z</time>
  <course>298.04</course>
  <speed>23.74721036248258</speed>
  <fix>3d</fix>
</trkpt>
<trkpt lat="-27.2686273" lon="151.2905542">
  <ele>401.66</ele>
  <time>2026-09-01T20:01:15Z</time>
  <course>302.33</course>
  <speed>23.6</speed>
  <fix>3d</fix>
</trkpt>
<trkpt lat="-27.2685984" lon="151.2904919">
  <ele>401.87</ele>
  <time>2026-09-01T20:01:15Z</time>
  <course>295.13</course>
  <speed>23.828312991061704</speed>
  <fix>3d</fix>
</trkpt>
<trkpt lat="-27.2686273" lon="151.2905542">
  <ele>401.66</ele>
  <time>2026-09-01T20:01:15Z</time>
  <course>302.33</course>
  <speed>23.6</speed>
  <fix>3d</fix>
</trkpt>
<trkpt lat="-27.2685904" lon="151.2904697">
  <ele>401.89</ele>
  <time>2026-09-01T20:01:15Z</time>
  <course>291.9</course>
  <speed>23.908094863455766</speed>
  <fix>3d</fix>
</trkpt>
<trkpt lat="-27.2686065" lon="151.2905125">
  <ele>401.69</ele>
  <time>2026-09-01T20:01:15Z</time>
  <course>296.43</course>
  <speed>23.79</speed>
  <fix>3d</fix>
</trkpt>
<trkpt lat="-27.2685834" lon="151.2904469">
  <ele>401.91</ele>
  <time>2026-09-01T20:01:15Z</time>
  <course>288.29</course>
  <speed>23.964327655913902</speed>
  <fix>3d</fix>
</trkpt>
<trkpt lat="-27.2686065" lon="151.2905125">
  <ele>401.69</ele>
  <time>2026-09-01T20:01:15Z</time>
  <course>296.43</course>
  <speed>23.79</speed>
  <fix>3d</fix>
</trkpt>
<trkpt lat="-27.2685777" lon="151.2904236">
  <ele>401.95</ele>
  <time>2026-09-01T20:01:15Z</time>
  <course>285.05</course>
  <speed>24.011482669756152</speed>
  <fix>3d</fix>
</trkpt>
<trkpt lat="-27.2685894" lon="151.2904682">
  <ele>401.72</ele>
  <time>2026-09-01T20:01:15Z</time>
  <course>290.32</course>
  <speed>23.95</speed>
  <fix>3d</fix>
</trkpt>
<trkpt lat="-27.2685731" lon="151.2903999">
  <ele>402.0</ele>
  <time>2026-09-01T20:01:15Z</time>
  <course>282.21</course>
  <speed>24.057651589463177</speed>
  <fix>3d</fix>
</trkpt>
<trkpt lat="-27.2685894" lon="151.2904682">
  <ele>401.72</ele>
  <time>2026-09-01T20:01:15Z</time>
  <course>290.32</course>
  <speed>23.95</speed>
  <fix>3d</fix>
</trkpt>
<trkpt lat="-27.2685696" lon="151.2903759">
  <ele>402.06</ele>
  <time>2026-09-01T20:01:15Z</time>
  <course>279.52</course>
  <speed>24.097454222386233</speed>
  <fix>3d</fix>
</trkpt>
<trkpt lat="-27.2685767" lon="151.2904219">
  <ele>401.77</ele>
  <time>2026-09-01T20:01:15Z</time>
  <course>283.92</course>
  <speed>24.08</speed>
  <fix>3d</fix>
</trkpt>
<trkpt lat="-27.2685671" lon="151.2903517">
  <ele>402.12</ele>
  <time>2026-09-01T20:01:15Z</time>
  <course>277.01</course>
  <speed>24.152343571587416</speed>
  <fix>3d</fix>
</trkpt>
<trkpt lat="-27.2685767" lon="151.2904219">
  <ele>401.77</ele>
  <time>2026-09-01T20:01:15Z</time>
  <course>283.92</course>
  <speed>24.08</speed>
  <fix>3d</fix>
</trkpt>
<trkpt lat="-27.2685656" lon="151.2903274">
  <ele>402.17</ele>
  <time>2026-09-01T20:01:15Z</time>
  <course>274.7</course>
  <speed>24.20366294592618</speed>
  <fix>3d</fix>
</trkpt>
<trkpt lat="-27.2685686" lon="151.290374">
  <ele>401.86</ele>
  <time>2026-09-01T20:01:15Z</time>
  <course>277.87</course>
  <speed>24.19</speed>
  <fix>3d</fix>
</trkpt>
<trkpt lat="-27.268565" lon="151.2903029">
  <ele>402.22</ele>
  <time>2026-09-01T20:01:15Z</time>
  <course>272.49</course>
  <speed>24.27013184966246</speed>
  <fix>3d</fix>
</trkpt>
<trkpt lat="-27.2685686" lon="151.290374">
  <ele>401.86</ele>
  <time>2026-09-01T20:01:15Z</time>
  <course>277.87</course>
  <speed>24.19</speed>
  <fix>3d</fix>
</trkpt>
<trkpt lat="-27.2685652" lon="151.2902783">
  <ele>402.25</ele>
  <time>2026-09-01T20:01:15Z</time>
  <course>270.39</course>
  <speed>24.335200841579262</speed>
  <fix>3d</fix>
</trkpt>
<trkpt lat="-27.2685647" lon="151.2903251">
  <ele>401.96</ele>
  <time>2026-09-01T20:01:15Z</time>
  <course>272.64</course>
  <speed>24.31</speed>
  <fix>3d</fix>
</trkpt>
<trkpt lat="-27.2685663" lon="151.2902537">
  <ele>402.28</ele>
  <time>2026-09-01T20:01:15Z</time>
  <course>268.39</course>
  <speed>24.395026132390186</speed>
  <fix>3d</fix>
</trkpt>
<trkpt lat="-27.2685647" lon="151.2903251">
  <ele>401.96</ele>
  <time>2026-09-01T20:01:15Z</time>
  <course>272.64</course>
  <speed>24.31</speed>
  <fix>3d</fix>
</trkpt>
<trkpt lat="-27.2685682" lon="151.2902291">
  <ele>402.29</ele>
  <time>2026-09-01T20:01:15Z</time>
  <course>266.52</course>
  <speed>24.4628698234692</speed>
  <fix>3d</fix>
</trkpt>
<trkpt lat="-27.2685644" lon="151.2902758">
  <ele>402.04</ele>
  <time>2026-09-01T20:01:15Z</time>
  <course>268.0</course>
  <speed>24.44</speed>
  <fix>3d</fix>
</trkpt>
<trkpt lat="-27.2685708" lon="151.2902045">
  <ele>402.3</ele>
  <time>2026-09-01T20:01:15Z</time>
  <course>264.68</course>
  <speed>24.533784869033152</speed>
  <fix>3d</fix>
</trkpt>
<trkpt lat="-27.2685644" lon="151.2902758">
  <ele>402.04</ele>
  <time>2026-09-01T20:01:15Z</time>
  <course>268.0</course>
  <speed>24.44</speed>
  <fix>3d</fix>
</trkpt>
<trkpt lat="-27.2685742" lon="151.2901799">
  <ele>402.28</ele>
  <time>2026-09-01T20:01:15Z</time>
  <course>262.9</course>
  <speed>24.606310166296776</speed>
  <fix>3d</fix>
</trkpt>
<trkpt lat="-27.2685675" lon="151.2902264">
  <ele>402.08</ele>
  <time>2026-09-01T20:01:15Z</time>
  <course>263.83</course>
  <speed>24.58</speed>
  <fix>3d</fix>
</trkpt>
<trkpt lat="-27.2685781" lon="151.2901554">
  <ele>402.25</ele>
  <time>2026-09-01T20:01:15Z</time>
  <course>261.24</course>
  <speed>24.667914382857745</speed>
  <fix>3d</fix>
</trkpt>
<trkpt lat="-27.2685675" lon="151.2902264">
  <ele>402.08</ele>
  <time>2026-09-01T20:01:15Z</time>
  <course>263.83</course>
  <speed>24.58</speed>
  <fix>3d</fix>
</trkpt>
<trkpt lat="-27.2685828" lon="151.2901309">
  <ele>402.21</ele>
  <time>2026-09-01T20:01:15Z</time>
  <course>259.66</course>
  <speed>24.69731159458454</speed>
  <fix>3d</fix>
</trkpt>
<trkpt lat="-27.2685737" lon="151.2901771">
  <ele>402.07</ele>
  <time>2026-09-01T20:01:15Z</time>
  <course>260.07</course>
  <speed>24.72</speed>
  <fix>3d</fix>
</trkpt>
<trkpt lat="-27.2685881" lon="151.2901067">
  <ele>402.15</ele>
  <time>2026-09-01T20:01:15Z</time>
  <course>258.21</course>
  <speed>24.684833400288525</speed>
  <fix>3d</fix>
</trkpt>
<trkpt lat="-27.2685737" lon="151.2901771">
  <ele>402.07</ele>
  <time>2026-09-01T20:01:15Z</time>
  <course>260.07</course>
  <speed>24.72</speed>
  <fix>3d</fix>
</trkpt>
<trkpt lat="-27.268594" lon="151.2900826">
  <ele>402.07</ele>
  <time>2026-09-01T20:01:15Z</time>
  <course>256.77</course>
  <speed>24.62761458200936</speed>
  <fix>3d</fix>
</trkpt>
<trkpt lat="-27.2685827" lon="151.2901281">
  <ele>401.99</ele>
  <time>2026-09-01T20:01:15Z</time>
  <course>256.72</course>
  <speed>24.8</speed>
  <fix>3d</fix>
</trkpt>
<trkpt lat="-27.2686003" lon="151.2900589">
  <ele>401.97</ele>
  <time>2026-09-01T20:01:15Z</time>
  <course>255.41</course>
  <speed>24.545225604992922</speed>
  <fix>3d</fix>
</trkpt>
<trkpt lat="-27.2685827" lon="151.2901281">
  <ele>401.99</ele>
  <time>2026-09-01T20:01:15Z</time>
  <course>256.72</course>
  <speed>24.8</speed>
  <fix>3d</fix>
</trkpt>
<trkpt lat="-27.2686072" lon="151.2900349">
  <ele>401.85</ele>
  <time>2026-09-01T20:01:15Z</time>
  <course>254.06</course>
  <speed>24.46108133341615</speed>
  <fix>3d</fix>
</trkpt>
<trkpt lat="-27.2685941" lon="151.2900796">
  <ele>401.85</ele>
  <time>2026-09-01T20:01:15Z</time>
  <course>253.73</course>
  <speed>24.74</speed>
  <fix>3d</fix>
</trkpt>
<trkpt lat="-27.2686145" lon="151.2900116">
  <ele>401.71</ele>
  <time>2026-09-01T20:01:15Z</time>
  <course>252.8</course>
  <speed>24.389516190363434</speed>
  <fix>3d</fix>
</trkpt>
<trkpt lat="-27.2685941" lon="151.2900796">
  <ele>401.85</ele>
  <time>2026-09-01T20:01:15Z</time>
  <course>253.73</course>
  <speed>24.74</speed>
  <fix>3d</fix>
</trkpt>
<trkpt lat="-27.2686222" lon="151.2899885">
  <ele>401.54</ele>
  <time>2026-09-01T20:01:15Z</time>
  <course>251.65</course>
  <speed>24.330540478994706</speed>
  <fix>3d</fix>
</trkpt>
<trkpt lat="-27.2686075" lon="151.2900321">
  <ele>401.64</ele>
  <time>2026-09-01T20:01:15Z</time>
  <course>251.01</course>
  <speed>24.59</speed>
  <fix>3d</fix>
</trkpt>
<trkpt lat="-27.2686304" lon="151.2899656">
  <ele>401.36</ele>
  <time>2026-09-01T20:01:15Z</time>
  <course>250.61</course>
  <speed>24.273922221182136</speed>
  <fix>3d</fix>
</trkpt>
<trkpt lat="-27.2686075" lon="151.2900321">
  <ele>401.64</ele>
  <time>2026-09-01T20:01:15Z</time>
  <course>251.01</course>
  <speed>24.59</speed>
  <fix>3d</fix>
</trkpt>
<trkpt lat="-27.2686389" lon="151.2899429">
  <ele>401.14</ele>
  <time>2026-09-01T20:01:15Z</time>
  <course>249.54</course>
  <speed>24.24214924465238</speed>
  <fix>3d</fix>
</trkpt>
<trkpt lat="-27.2686227" lon="151.2899857">
  <ele>401.34</ele>
  <time>2026-09-01T20:01:15Z</time>
  <course>248.56</course>
  <speed>24.45</speed>
  <fix>3d</fix>
</trkpt>
<trkpt lat="-27.2686477" lon="151.2899205">
  <ele>400.9</ele>
  <time>2026-09-01T20:01:15Z</time>
  <course>248.44</course>
  <speed>24.21411571790306</speed>
  <fix>3d</fix>
</trkpt>
<trkpt lat="-27.2686227" lon="151.2899857">
  <ele>401.34</ele>
  <time>2026-09-01T20:01:15Z</time>
  <course>248.56</course>
  <speed>24.45</speed>
  <fix>3d</fix>
</trkpt>
<trkpt lat="-27.2686569" lon="151.2898982">
  <ele>400.65</ele>
  <time>2026-09-01T20:01:15Z</time>
  <course>247.35</course>
  <speed>24.207007249967933</speed>
  <fix>3d</fix>
</trkpt>
<trkpt lat="-27.2686395" lon="151.2899401">
  <ele>400.95</ele>
  <time>2026-09-01T20:01:15Z</time>
  <course>246.38</course>
  <speed>24.36</speed>
  <fix>3d</fix>
</trkpt>
<trkpt lat="-27.2686664" lon="151.2898762">
  <ele>400.37</ele>
  <time>2026-09-01T20:01:15Z</time>
  <course>246.25</course>
  <speed>24.212145712431187</speed>
  <fix>3d</fix>
</trkpt>
<trkpt lat="-27.2686395" lon="151.2899401">
  <ele>400.95</ele>
  <time>2026-09-01T20:01:15Z</time>
  <course>246.38</course>
  <speed>24.36</speed>
  <fix>3d</fix>
</trkpt>
<trkpt lat="-27.2686763" lon="151.2898543">
  <ele>400.07</ele>
  <time>2026-09-01T20:01:15Z</time>
  <course>245.17</course>
  <speed>24.21996077618624</speed>
  <fix>3d</fix>
</trkpt>
<trkpt lat="-27.2686578" lon="151.2898954">
  <ele>400.47</ele>
  <time>2026-09-01T20:01:15Z</time>
  <course>244.34</course>
  <speed>24.32</speed>
  <fix>3d</fix>
</trkpt>
<trkpt lat="-27.2686865" lon="151.2898326">
  <ele>399.76</ele>
  <time>2026-09-01T20:01:15Z</time>
  <course>244.13</course>
  <speed>24.257108236556146</speed>
  <fix>3d</fix>
</trkpt>
<trkpt lat="-27.2686578" lon="151.2898954">
  <ele>400.47</ele>
  <time>2026-09-01T20:01:15Z</time>
  <course>244.34</course>
  <speed>24.32</speed>
  <fix>3d</fix>
</trkpt>
<trkpt lat="-27.2686971" lon="151.289811">
  <ele>399.44</ele>
  <time>2026-09-01T20:01:15Z</time>
  <course>243.0</course>
  <speed>24.30119544384597</speed>
  <fix>3d</fix>
</trkpt>
<trkpt lat="-27.2686774" lon="151.2898515">
  <ele>399.9</ele>
  <time>2026-09-01T20:01:15Z</time>
  <course>242.36</course>
  <speed>24.33</speed>
  <fix>3d</fix>
</trkpt>
<trkpt lat="-27.268708" lon="151.2897896">
  <ele>399.11</ele>
  <time>2026-09-01T20:01:15Z</time>
  <course>241.91</course>
  <speed>24.36231721327017</speed>
  <fix>3d</fix>
</trkpt>
<trkpt lat="-27.2686774" lon="151.2898515">
  <ele>399.9</ele>
  <time>2026-09-01T20:01:15Z</time>
  <course>242.36</course>
  <speed>24.33</speed>
  <fix>3d</fix>
</trkpt>
<trkpt lat="-27.2687193" lon="151.2897684">
  <ele>398.77</ele>
  <time>2026-09-01T20:01:15Z</time>
  <course>240.84</course>
  <speed>24.425666828154352</speed>
  <fix>3d</fix>
</trkpt>
<trkpt lat="-27.2686984" lon="151.2898082">
  <ele>399.28</ele>
  <time>2026-09-01T20:01:15Z</time>
  <course>240.4</course>
  <speed>24.4</speed>
  <fix>3d</fix>
</trkpt>
<trkpt lat="-27.268731" lon="151.2897474">
  <ele>398.44</ele>
  <time>2026-09-01T20:01:15Z</time>
  <course>239.79</course>
  <speed>24.504550597797138</speed>
  <fix>3d</fix>
</trkpt>
<trkpt lat="-27.2686984" lon="151.2898082">
  <ele>399.28</ele>
  <time>2026-09-01T20:01:15Z</time>
  <course>240.4</course>
  <speed>24.4</speed>
  <fix>3d</fix>
</trkpt>
<trkpt lat="-27.268743" lon="151.2897264">
  <ele>398.1</ele>
  <time>2026-09-01T20:01:15Z</time>
  <course>238.7</course>
  <speed>24.59578215873608</speed>
  <fix>3d</fix>
</trkpt>
<trkpt lat="-27.2687207" lon="151.2897655">
  <ele>398.64</ele>
  <time>2026-09-01T20:01:15Z</time>
  <course>238.44</course>
  <speed>24.53</speed>
  <fix>3d</fix>
</trkpt>
<trkpt lat="-27.2687554" lon="151.2897057">
  <ele>397.78</ele>
  <time>2026-09-01T20:01:15Z</time>
  <course>237.67</course>
  <speed>24.702325801430117</speed>
  <fix>3d</fix>
</trkpt>
<trkpt lat="-27.2687207" lon="151.2897655">
  <ele>398.64</ele>
  <time>2026-09-01T20:01:15Z</time>
  <course>238.44</course>
  <speed>24.53</speed>
  <fix>3d</fix>
</trkpt>
<trkpt lat="-27.2687681" lon="151.289685">
  <ele>397.46</ele>
  <time>2026-09-01T20:01:15Z</time>
  <course>236.68</course>
  <speed>24.804106514849515</speed>
  <fix>3d</fix>
</trkpt>
<trkpt lat="-27.2687445" lon="151.2897236">
  <ele>397.99</ele>
  <time>2026-09-01T20:01:15Z</time>
  <course>236.51</course>
  <speed>24.69</speed>
  <fix>3d</fix>
</trkpt>
<trkpt lat="-27.2687811" lon="151.2896646">
  <ele>397.15</ele>
  <time>2026-09-01T20:01:15Z</time>
  <course>235.77</course>
  <speed>24.906159880639972</speed>
  <fix>3d</fix>
</trkpt>
<trkpt lat="-27.2687445" lon="151.2897236">
  <ele>397.99</ele>
  <time>2026-09-01T20:01:15Z</time>
  <course>236.51</course>
  <speed>24.69</speed>
  <fix>3d</fix>
</trkpt>
<trkpt lat="-27.2687945" lon="151.2896442">
  <ele>396.86</ele>
  <time>2026-09-01T20:01:15Z</time>
  <course>234.95</course>
  <speed>25.010017992796406</speed>
  <fix>3d</fix>
</trkpt>
<trkpt lat="-27.2687697" lon="151.2896822">
  <ele>397.36</ele>
  <time>2026-09-01T20:01:15Z</time>
  <course>234.66</course>
  <speed>24.89</speed>
  <fix>3d</fix>
</trkpt>
<trkpt lat="-27.2688082" lon="151.289624">
  <ele>396.59</ele>
  <time>2026-09-01T20:01:15Z</time>
  <course>234.1</course>
  <speed>25.114667029447155</speed>
  <fix>3d</fix>
</trkpt>
<trkpt lat="-27.2687697" lon="151.2896822">
  <ele>397.36</ele>
  <time>2026-09-01T20:01:15Z</time>
  <course>234.66</course>
  <speed>24.89</speed>
  <fix>3d</fix>
</trkpt>
<trkpt lat="-27.2688221" lon="151.2896041">
  <ele>396.33</ele>
  <time>2026-09-01T20:01:15Z</time>
  <course>233.34</course>
  <speed>25.211334752448153</speed>
  <fix>3d</fix>
</trkpt>
<trkpt lat="-27.2687962" lon="151.2896415">
  <ele>396.78</ele>
  <time>2026-09-01T20:01:15Z</time>
  <course>232.97</course>
  <speed>25.09</speed>
  <fix>3d</fix>
</trkpt>
<trkpt lat="-27.2688363" lon="151.2895841">
  <ele>396.1</ele>
  <time>2026-09-01T20:01:15Z</time>
  <course>232.6</course>
  <speed>25.314898775227206</speed>
  <fix>3d</fix>
</trkpt>
<trkpt lat="-27.2687962" lon="151.2896415">
  <ele>396.78</ele>
  <time>2026-09-01T20:01:15Z</time>
  <course>232.97</course>
  <speed>25.09</speed>
  <fix>3d</fix>
</trkpt>
<trkpt lat="-27.2688508" lon="151.2895642">
  <ele>395.87</ele>
  <time>2026-09-01T20:01:15Z</time>
  <course>231.91</course>
  <speed>25.40257664096302</speed>
  <fix>3d</fix>
</trkpt>
<trkpt lat="-27.2688239" lon="151.2896013">
  <ele>396.27</ele>
  <time>2026-09-01T20:01:15Z</time>
  <course>231.49</course>
  <speed>25.29</speed>
  <fix>3d</fix>
</trkpt>
<trkpt lat="-27.2688655" lon="151.2895444">
  <ele>395.66</ele>
  <time>2026-09-01T20:01:15Z</time>
  <course>231.3</course>
  <speed>25.495342711954276</speed>
  <fix>3d</fix>
</trkpt>
<trkpt lat="-27.2688239" lon="151.2896013">
  <ele>396.27</ele>
  <time>2026-09-01T20:01:15Z</time>
  <course>231.49</course>
  <speed>25.29</speed>
  <fix>3d</fix>
</trkpt>
<trkpt lat="-27.2688806" lon="151.2895246">
  <ele>395.45</ele>
  <time>2026-09-01T20:01:15Z</time>
  <course>230.78</course>
  <speed>25.577226198319472</speed>
  <fix>3d</fix>
</trkpt>
<trkpt lat="-27.2688527" lon="151.2895616">
  <ele>395.82</ele>
  <time>2026-09-01T20:01:15Z</time>
  <course>230.24</course>
  <speed>25.48</speed>
  <fix>3d</fix>
</trkpt>
<trkpt lat="-27.2688957" lon="151.2895049">
  <ele>395.27</ele>
  <time>2026-09-01T20:01:15Z</time>
  <course>230.26</course>
  <speed>25.662877858884027</speed>
  <fix>3d</fix>
</trkpt>
<trkpt lat="-27.2688527" lon="151.2895616">
  <ele>395.82</ele>
  <time>2026-09-01T20:01:15Z</time>
  <course>230.24</course>
  <speed>25.48</speed>
  <fix>3d</fix>
</trkpt>
<trkpt lat="-27.268911" lon="151.2894854">
  <ele>395.1</ele>
  <time>2026-09-01T20:01:16Z</time>
  <course>229.77</course>
  <speed>25.7300485813766</speed>
  <fix>3d</fix>
</trkpt>
<trkpt lat="-27.2688824" lon="151.2895221">
  <ele>395.42</ele>
  <time>2026-09-01T20:01:16Z</time>
  <course>229.22</course>
  <speed>25.65</speed>
  <fix>3d</fix>
</trkpt>
<trkpt lat="-27.2689265" lon="151.2894657">
  <ele>394.95</ele>
  <time>2026-09-01T20:01:16Z</time>
  <course>229.34</course>
  <speed>25.7990794409413</speed>
  <fix>3d</fix>
</trkpt>
<trkpt lat="-27.2688824" lon="151.2895221">
  <ele>395.42</ele>
  <time>2026-09-01T20:01:16Z</time>
  <course>229.22</course>
  <speed>25.65</speed>
  <fix>3d</fix>
</trkpt>
<trkpt lat="-27.2689421" lon="151.2894463">
  <ele>394.81</ele>
  <time>2026-09-01T20:01:16Z</time>
  <course>228.94</course>
  <speed>25.869712020043824</speed>
  <fix>3d</fix>
</trkpt>
<trkpt lat="-27.2689128" lon="151.289483">
  <ele>395.08</ele>
  <time>2026-09-01T20:01:16Z</time>
  <course>228.42</course>
  <speed>25.8</speed>
  <fix>3d</fix>
</trkpt>
<trkpt lat="-27.2689578" lon="151.2894269">
  <ele>394.68</ele>
  <time>2026-09-01T20:01:16Z</time>
  <course>228.56</course>
  <speed>25.92758569554828</speed>
  <fix>3d</fix>
</trkpt>
<trkpt lat="-27.2689128" lon="151.289483">
  <ele>395.08</ele>
  <time>2026-09-01T20:01:16Z</time>
  <course>228.42</course>
  <speed>25.8</speed>
  <fix>3d</fix>
</trkpt>
<trkpt lat="-27.2689736" lon="151.2894075">
  <ele>394.57</ele>
  <time>2026-09-01T20:01:16Z</time>
  <course>228.29</course>
  <speed>25.9724854413281</speed>
  <fix>3d</fix>
</trkpt>
<trkpt lat="-27.2689439" lon="151.289444">
  <ele>394.8</ele>
  <time>2026-09-01T20:01:16Z</time>
  <course>227.77</course>
  <speed>25.93</speed>
  <fix>3d</fix>
</trkpt>
<trkpt lat="-27.2689895" lon="151.2893881">
  <ele>394.46</ele>
  <time>2026-09-01T20:01:16Z</time>
  <course>228.13</course>
  <speed>26.032489316237125</speed>
  <fix>3d</fix>
</trkpt>
<trkpt lat="-27.2689439" lon="151.289444">
  <ele>394.8</ele>
  <time>2026-09-01T20:01:16Z</time>
  <course>227.77</course>
  <speed>25.93</speed>
  <fix>3d</fix>
</trkpt>
<trkpt lat="-27.2690055" lon="151.2893688">
  <ele>394.37</ele>
  <time>2026-09-01T20:01:16Z</time>
  <course>227.88</course>
  <speed>26.079666408909453</speed>
  <fix>3d</fix>
</trkpt>
<trkpt lat="-27.2689755" lon="151.2894053">
  <ele>394.57</ele>
  <time>2026-09-01T20:01:16Z</time>
  <course>227.27</course>
  <speed>26.04</speed>
  <fix>3d</fix>
</trkpt>
<trkpt lat="-27.2690216" lon="151.2893495">
  <ele>394.28</ele>
  <time>2026-09-01T20:01:16Z</time>
  <course>227.64</course>
  <speed>26.112872304669974</speed>
  <fix>3d</fix>
</trkpt>
<trkpt lat="-27.2689755" lon="151.2894053">
  <ele>394.57</ele>
  <time>2026-09-01T20:01:16Z</time>
  <course>227.27</course>
  <speed>26.04</speed>
  <fix>3d</fix>
</trkpt>
<trkpt lat="-27.2690378" lon="151.2893301">
  <ele>394.21</ele>
  <time>2026-09-01T20:01:16Z</time>
  <course>227.49</course>
  <speed>26.160798917464277</speed>
  <fix>3d</fix>
</trkpt>
<trkpt lat="-27.2690075" lon="151.2893666">
  <ele>394.38</ele>
  <time>2026-09-01T20:01:16Z</time>
  <course>226.91</course>
  <speed>26.13</speed>
  <fix>3d</fix>
</trkpt>
<trkpt lat="-27.269054" lon="151.2893108">
  <ele>394.14</ele>
  <time>2026-09-01T20:01:16Z</time>
  <course>227.29</course>
  <speed>26.19468839287843</speed>
  <fix>3d</fix>
</trkpt>
<trkpt lat="-27.2690075" lon="151.2893666">
  <ele>394.38</ele>
  <time>2026-09-01T20:01:16Z</time>
  <course>226.91</course>
  <speed>26.13</speed>
  <fix>3d</fix>
</trkpt>
<trkpt lat="-27.2690703" lon="151.2892915">
  <ele>394.09</ele>
  <time>2026-09-01T20:01:16Z</time>
  <course>227.14</course>
  <speed>26.222175729713964</speed>
  <fix>3d</fix>
</trkpt>
<trkpt lat="-27.2690397" lon="151.289328">
  <ele>394.23</ele>
  <time>2026-09-01T20:01:16Z</time>
  <course>226.66</course>
  <speed>26.21</speed>
  <fix>3d</fix>
</trkpt>
<trkpt lat="-27.2690866" lon="151.2892722">
  <ele>394.04</ele>
  <time>2026-09-01T20:01:16Z</time>
  <course>227.03</course>
  <speed>26.25658012765562</speed>
  <fix>3d</fix>
</trkpt>
<trkpt lat="-27.2690397" lon="151.289328">
  <ele>394.23</ele>
  <time>2026-09-01T20:01:16Z</time>
  <course>226.66</course>
  <speed>26.21</speed>
  <fix>3d</fix>
</trkpt>
<trkpt lat="-27.2691029" lon="151.2892529">
  <ele>394.0</ele>
  <time>2026-09-01T20:01:16Z</time>
  <course>226.99</course>
  <speed>26.277246811642957</speed>
  <fix>3d</fix>
</trkpt>
<trkpt lat="-27.2690721" lon="151.2892895">
  <ele>394.12</ele>
  <time>2026-09-01T20:01:16Z</time>
  <course>226.49</course>
  <speed>26.27</speed>
  <fix>3d</fix>
</trkpt>
<trkpt lat="-27.2691192" lon="151.2892336">
  <ele>393.98</ele>
  <time>2026-09-01T20:01:16Z</time>
  <course>226.9</course>
  <speed>26.305172495157677</speed>
  <fix>3d</fix>
</trkpt>
<trkpt lat="-27.2690721" lon="151.2892895">
  <ele>394.12</ele>
  <time>2026-09-01T20:01:16Z</time>
  <course>226.49</course>
  <speed>26.27</speed>
  <fix>3d</fix>
</trkpt>
<trkpt lat="-27.2691356" lon="151.2892142">
  <ele>393.96</ele>
  <time>2026-09-01T20:01:16Z</time>
  <course>226.87</course>
  <speed>26.312069473912537</speed>
  <fix>3d</fix>
</trkpt>
<trkpt lat="-27.2691046" lon="151.289251">
  <ele>394.05</ele>
  <time>2026-09-01T20:01:16Z</time>
  <course>226.38</course>
  <speed>26.32</speed>
  <fix>3d</fix>
</trkpt>
<trkpt lat="-27.2691518" lon="151.2891951">
  <ele>393.95</ele>
  <time>2026-09-01T20:01:16Z</time>
  <course>226.83</course>
  <speed>26.325869406346296</speed>
  <fix>3d</fix>
</trkpt>
<trkpt lat="-27.2691046" lon="151.289251">
  <ele>394.05</ele>
  <time>2026-09-01T20:01:16Z</time>
  <course>226.38</course>
  <speed>26.32</speed>
  <fix>3d</fix>
</trkpt>
<trkpt lat="-27.2691682" lon="151.2891758">
  <ele>393.94</ele>
  <time>2026-09-01T20:01:16Z</time>
  <course>226.76</course>
  <speed>26.33310653910776</speed>
  <fix>3d</fix>
</trkpt>
<trkpt lat="-27.2691373" lon="151.2892125">
  <ele>394.0</ele>
  <time>2026-09-01T20:01:16Z</time>
  <course>226.32</course>
  <speed>26.35</speed>
  <fix>3d</fix>
</trkpt>
<trkpt lat="-27.2691846" lon="151.2891565">
  <ele>393.94</ele>
  <time>2026-09-01T20:01:16Z</time>
  <course>226.73</course>
  <speed>26.340007593013333</speed>
  <fix>3d</fix>
</trkpt>
<trkpt lat="-27.2691373" lon="151.2892125">
  <ele>394.0</ele>
  <time>2026-09-01T20:01:16Z</time>
  <course>226.32</course>
  <speed>26.35</speed>
  <fix>3d</fix>
</trkpt>
<trkpt lat="-27.269201" lon="151.2891372">
  <ele>393.94</ele>
  <time>2026-09-01T20:01:16Z</time>
  <course>226.74</course>
  <speed>26.33310653910776</speed>
  <fix>3d</fix>
</trkpt>
<trkpt lat="-27.26917" lon="151.289174">
  <ele>393.99</ele>
  <time>2026-09-01T20:01:16Z</time>
  <course>226.31</course>
  <speed>26.36</speed>
  <fix>3d</fix>
</trkpt>
<trkpt lat="-27.2692175" lon="151.2891178">
  <ele>393.94</ele>
  <time>2026-09-01T20:01:16Z</time>
  <course>226.76</course>
  <speed>26.33310653910776</speed>
  <fix>3d</fix>
</trkpt>
<trkpt lat="-27.26917" lon="151.289174">
  <ele>393.99</ele>
  <time>2026-09-01T20:01:16Z</time>
  <course>226.31</course>
  <speed>26.36</speed>
  <fix>3d</fix>
</trkpt>
<trkpt lat="-27.2692339" lon="151.2890985">
  <ele>393.95</ele>
  <time>2026-09-01T20:01:16Z</time>
  <course>226.76</course>
  <speed>26.326207474681954</speed>
  <fix>3d</fix>
</trkpt>
<trkpt lat="-27.2692027" lon="151.2891355">
  <ele>393.99</ele>
  <time>2026-09-01T20:01:16Z</time>
  <course>226.32</course>
  <speed>26.36</speed>
  <fix>3d</fix>
</trkpt>
<trkpt lat="-27.2692502" lon="151.2890792">
  <ele>393.96</ele>
  <time>2026-09-01T20:01:16Z</time>
  <course>226.79</course>
  <speed>26.32655313557018</speed>
  <fix>3d</fix>
</trkpt>
<trkpt lat="-27.2692027" lon="151.2891355">
  <ele>393.99</ele>
  <time>2026-09-01T20:01:16Z</time>
  <course>226.32</course>
  <speed>26.36</speed>
  <fix>3d</fix>
</trkpt>
<trkpt lat="-27.2692665" lon="151.2890599">
  <ele>393.96</ele>
  <time>2026-09-01T20:01:16Z</time>
  <course>226.8</course>
  <speed>26.31276876347299</speed>
  <fix>3d</fix>
</trkpt>
<trkpt lat="-27.2692354" lon="151.289097">
  <ele>394.0</ele>
  <time>2026-09-01T20:01:16Z</time>
  <course>226.36</course>
  <speed>26.35</speed>
  <fix>3d</fix>
</trkpt>
<trkpt lat="-27.2692829" lon="151.2890406">
  <ele>393.96</ele>
  <time>2026-09-01T20:01:16Z</time>
  <course>226.83</course>
  <speed>26.313129802438933</speed>
  <fix>3d</fix>
</trkpt>
<trkpt lat="-27.2692354" lon="151.289097">
  <ele>394.0</ele>
  <time>2026-09-01T20:01:16Z</time>
  <course>226.36</course>
  <speed>26.35</speed>
  <fix>3d</fix>
</trkpt>
<trkpt lat="-27.2692992" lon="151.2890213">
  <ele>393.96</ele>
  <time>2026-09-01T20:01:16Z</time>
  <course>226.84</course>
  <speed>26.29936120897236</speed>
  <fix>3d</fix>
</trkpt>
<trkpt lat="-27.269268" lon="151.2890583">
  <ele>394.01</ele>
  <time>2026-09-01T20:01:16Z</time>
  <course>226.42</course>
  <speed>26.34</speed>
  <fix>3d</fix>
</trkpt>
<trkpt lat="-27.2693154" lon="151.289002">
  <ele>393.96</ele>
  <time>2026-09-01T20:01:16Z</time>
  <course>226.87</course>
  <speed>26.29247991346575</speed>
  <fix>3d</fix>
</trkpt>
<trkpt lat="-27.269268" lon="151.2890583">
  <ele>394.01</ele>
  <time>2026-09-01T20:01:16Z</time>
  <course>226.42</course>
  <speed>26.34</speed>
  <fix>3d</fix>
</trkpt>
<trkpt lat="-27.2693317" lon="151.2889827">
  <ele>393.97</ele>
  <time>2026-09-01T20:01:16Z</time>
  <course>226.89</course>
  <speed>26.27872333276485</speed>
  <fix>3d</fix>
</trkpt>
<trkpt lat="-27.2693006" lon="151.2890198">
  <ele>394.01</ele>
  <time>2026-09-01T20:01:16Z</time>
  <course>226.49</course>
  <speed>26.33</speed>
  <fix>3d</fix>
</trkpt>
<trkpt lat="-27.269348" lon="151.2889634">
  <ele>393.97</ele>
  <time>2026-09-01T20:01:16Z</time>
  <course>226.93</course>
  <speed>26.26497477630618</speed>
  <fix>3d</fix>
</trkpt>
<trkpt lat="-27.2693006" lon="151.2890198">
  <ele>394.01</ele>
  <time>2026-09-01T20:01:16Z</time>
  <course>226.49</course>
  <speed>26.33</speed>
  <fix>3d</fix>
</trkpt>
<trkpt lat="-27.2693642" lon="151.2889441">
  <ele>393.98</ele>
  <time>2026-09-01T20:01:16Z</time>
  <course>226.99</course>
  <speed>26.2585033846181</speed>
  <fix>3d</fix>
</trkpt>
<trkpt lat="-27.2693332" lon="151.2889811">
  <ele>394.02</ele>
  <time>2026-09-01T20:01:16Z</time>
  <course>226.55</course>
  <speed>26.3</speed>
  <fix>3d</fix>
</trkpt>
<trkpt lat="-27.2693806" lon="151.2889246">
  <ele>393.98</ele>
  <time>2026-09-01T20:01:16Z</time>
  <course>227.03</course>
  <speed>26.244774718027205</speed>
  <fix>3d</fix>
</trkpt>
<trkpt lat="-27.2693332" lon="151.2889811">
  <ele>394.02</ele>
  <time>2026-09-01T20:01:16Z</time>
  <course>226.55</course>
  <speed>26.3</speed>
  <fix>3d</fix>
</trkpt>
<trkpt lat="-27.2693968" lon="151.2889053">
  <ele>393.98</ele>
  <time>2026-09-01T20:01:16Z</time>
  <course>227.01</course>
  <speed>26.22419684184818</speed>
  <fix>3d</fix>
</trkpt>
<trkpt lat="-27.2693657" lon="151.2889425">
  <ele>394.03</ele>
  <time>2026-09-01T20:01:16Z</time>
  <course>226.63</course>
  <speed>26.28</speed>
  <fix>3d</fix>
</trkpt>
<trkpt lat="-27.2694129" lon="151.288886">
  <ele>393.98</ele>
  <time>2026-09-01T20:01:16Z</time>
  <course>227.05</course>
  <speed>26.203205910727792</speed>
  <fix>3d</fix>
</trkpt>
<trkpt lat="-27.2693657" lon="151.2889425">
  <ele>394.03</ele>
  <time>2026-09-01T20:01:16Z</time>
  <course>226.63</course>
  <speed>26.28</speed>
  <fix>3d</fix>
</trkpt>
<trkpt lat="-27.2694291" lon="151.2888666">
  <ele>393.99</ele>
  <time>2026-09-01T20:01:16Z</time>
  <course>227.12</course>
  <speed>26.18265265399975</speed>
  <fix>3d</fix>
</trkpt>
<trkpt lat="-27.2693981" lon="151.2889038">
  <ele>394.05</ele>
  <time>2026-09-01T20:01:16Z</time>
  <course>226.71</course>
  <speed>26.25</speed>
  <fix>3d</fix>
</trkpt>
<trkpt lat="-27.2694452" lon="151.2888473">
  <ele>393.99</ele>
  <time>2026-09-01T20:01:16Z</time>
  <course>227.13</course>
  <speed>26.168960621316238</speed>
  <fix>3d</fix>
</trkpt>
<trkpt lat="-27.2693981" lon="151.2889038">
  <ele>394.05</ele>
  <time>2026-09-01T20:01:16Z</time>
  <course>226.71</course>
  <speed>26.25</speed>
  <fix>3d</fix>
</trkpt>
<trkpt lat="-27.2694614" lon="151.288828">
  <ele>394.0</ele>
  <time>2026-09-01T20:01:16Z</time>
  <course>227.19</course>
  <speed>26.155735508679545</speed>
  <fix>3d</fix>
</trkpt>
<trkpt lat="-27.2694304" lon="151.2888653">
  <ele>394.06</ele>
  <time>2026-09-01T20:01:16Z</time>
  <course>226.79</course>
  <speed>26.21</speed>
  <fix>3d</fix>
</trkpt>
<trkpt lat="-27.2694773" lon="151.2888088">
  <ele>394.0</ele>
  <time>2026-09-01T20:01:16Z</time>
  <course>227.24</course>
  <speed>26.134766117185745</speed>
  <fix>3d</fix>
</trkpt>
<trkpt lat="-27.2694304" lon="151.2888653">
  <ele>394.06</ele>
  <time>2026-09-01T20:01:16Z</time>
  <course>226.79</course>
  <speed>26.21</speed>
  <fix>3d</fix>
</trkpt>
<trkpt lat="-27.2694934" lon="151.2887895">
  <ele>394.0</ele>
  <time>2026-09-01T20:01:16Z</time>
  <course>227.32</course>
  <speed>26.121581116004446</speed>
  <fix>3d</fix>
</trkpt>
<trkpt lat="-27.2694626" lon="151.2888267">
  <ele>394.07</ele>
  <time>2026-09-01T20:01:16Z</time>
  <course>226.87</course>
  <speed>26.17</speed>
  <fix>3d</fix>
</trkpt>
<trkpt lat="-27.2695095" lon="151.2887701">
  <ele>394.0</ele>
  <time>2026-09-01T20:01:16Z</time>
  <course>227.33</course>
  <speed>26.101113003088585</speed>
  <fix>3d</fix>
</trkpt>
<trkpt lat="-27.2694626" lon="151.2888267">
  <ele>394.07</ele>
  <time>2026-09-01T20:01:16Z</time>
  <course>226.87</course>
  <speed>26.17</speed>
  <fix>3d</fix>
</trkpt>
<trkpt lat="-27.2695255" lon="151.2887508">
  <ele>393.99</ele>
  <time>2026-09-01T20:01:16Z</time>
  <course>227.36</course>
  <speed>26.08747783899394</speed>
  <fix>3d</fix>
</trkpt>
<trkpt lat="-27.2694947" lon="151.288788">
  <ele>394.08</ele>
  <time>2026-09-01T20:01:16Z</time>
  <course>226.96</course>
  <speed>26.13</speed>
  <fix>3d</fix>
</trkpt>
<trkpt lat="-27.2695415" lon="151.2887314">
  <ele>393.98</ele>
  <time>2026-09-01T20:01:16Z</time>
  <course>227.38</course>
  <speed>26.067040491778116</speed>
  <fix>3d</fix>
</trkpt>
<trkpt lat="-27.2694947" lon="151.288788">
  <ele>394.08</ele>
  <time>2026-09-01T20:01:16Z</time>
  <course>226.96</course>
  <speed>26.13</speed>
  <fix>3d</fix>
</trkpt>
<trkpt lat="-27.2695576" lon="151.2887119">
  <ele>393.97</ele>
  <time>2026-09-01T20:01:16Z</time>
  <course>227.42</course>
  <speed>26.053425878375382</speed>
  <fix>3d</fix>
</trkpt>
<trkpt lat="-27.2695266" lon="151.2887495">
  <ele>394.07</ele>
  <time>2026-09-01T20:01:16Z</time>
  <course>227.04</course>
  <speed>26.09</speed>
  <fix>3d</fix>
</trkpt>
<trkpt lat="-27.2695735" lon="151.2886926">
  <ele>393.96</ele>
  <time>2026-09-01T20:01:16Z</time>
  <course>227.5</course>
  <speed>26.032489316237125</speed>
  <fix>3d</fix>
</trkpt>
<trkpt lat="-27.2695266" lon="151.2887495">
  <ele>394.07</ele>
  <time>2026-09-01T20:01:16Z</time>
  <course>227.04</course>
  <speed>26.09</speed>
  <fix>3d</fix>
</trkpt>
<trkpt lat="-27.2695894" lon="151.2886734">
  <ele>393.95</ele>
  <time>2026-09-01T20:01:16Z</time>
  <course>227.52</course>
  <speed>26.004755334361445</speed>
  <fix>3d</fix>
</trkpt>
<trkpt lat="-27.2695585" lon="151.2887109">
  <ele>394.06</ele>
  <time>2026-09-01T20:01:16Z</time>
  <course>227.11</course>
  <speed>26.05</speed>
  <fix>3d</fix>
</trkpt>
<trkpt lat="-27.2696052" lon="151.2886542">
  <ele>393.93</ele>
  <time>2026-09-01T20:01:16Z</time>
  <course>227.55</course>
  <speed>25.983825738331912</speed>
  <fix>3d</fix>
</trkpt>
<trkpt lat="-27.2695585" lon="151.2887109">
  <ele>394.06</ele>
  <time>2026-09-01T20:01:16Z</time>
  <course>227.11</course>
  <speed>26.05</speed>
  <fix>3d</fix>
</trkpt>
<trkpt lat="-27.269621" lon="151.288635">
  <ele>393.92</ele>
  <time>2026-09-01T20:01:16Z</time>
  <course>227.6</course>
  <speed>25.95610525483359</speed>
  <fix>3d</fix>
</trkpt>
<trkpt lat="-27.2695903" lon="151.2886722">
  <ele>394.03</ele>
  <time>2026-09-01T20:01:16Z</time>
  <course>227.17</course>
  <speed>26.02</speed>
  <fix>3d</fix>
</trkpt>
<trkpt lat="-27.2696368" lon="151.2886158">
  <ele>393.9</ele>
  <time>2026-09-01T20:01:16Z</time>
  <course>227.61</course>
  <speed>25.935182667565694</speed>
  <fix>3d</fix>
</trkpt>
<trkpt lat="-27.2695903" lon="151.2886722">
  <ele>394.03</ele>
  <time>2026-09-01T20:01:16Z</time>
  <course>227.17</course>
  <speed>26.02</speed>
  <fix>3d</fix>
</trkpt>
<trkpt lat="-27.2696525" lon="151.2885967">
  <ele>393.87</ele>
  <time>2026-09-01T20:01:16Z</time>
  <course>227.62</course>
  <speed>25.90747575507888</speed>
  <fix>3d</fix>
</trkpt>
<trkpt lat="-27.269622" lon="151.2886337">
  <ele>394.0</ele>
  <time>2026-09-01T20:01:16Z</time>
  <course>227.22</course>
  <speed>25.98</speed>
  <fix>3d</fix>
</trkpt>
<trkpt lat="-27.2696682" lon="151.2885775">
  <ele>393.85</ele>
  <time>2026-09-01T20:01:16Z</time>
  <course>227.65</course>
  <speed>25.886560219542492</speed>
  <fix>3d</fix>
</trkpt>
<trkpt lat="-27.269622" lon="151.2886337">
  <ele>394.0</ele>
  <time>2026-09-01T20:01:16Z</time>
  <course>227.22</course>
  <speed>25.98</speed>
  <fix>3d</fix>
</trkpt>
<trkpt lat="-27.2696839" lon="151.2885584">
  <ele>393.82</ele>
  <time>2026-09-01T20:01:16Z</time>
  <course>227.7</course>
  <speed>25.85886695120264</speed>
  <fix>3d</fix>
</trkpt>
<trkpt lat="-27.2696538" lon="151.2885951">
  <ele>393.96</ele>
  <time>2026-09-01T20:01:16Z</time>
  <course>227.27</course>
  <speed>25.94</speed>
  <fix>3d</fix>
</trkpt>
<trkpt lat="-27.2696996" lon="151.2885392">
  <ele>393.79</ele>
  <time>2026-09-01T20:01:16Z</time>
  <course>227.71</course>
  <speed>25.837958510687336</speed>
  <fix>3d</fix>
</trkpt>
<trkpt lat="-27.2696538" lon="151.2885951">
  <ele>393.96</ele>
  <time>2026-09-01T20:01:16Z</time>
  <course>227.27</course>
  <speed>25.94</speed>
  <fix>3d</fix>
</trkpt>
<trkpt lat="-27.2697153" lon="151.2885201">
  <ele>393.75</ele>
  <time>2026-09-01T20:01:16Z</time>
  <course>227.69</course>
  <speed>25.817052504110535</speed>
  <fix>3d</fix>
</trkpt>
<trkpt lat="-27.2696854" lon="151.2885566">
  <ele>393.91</ele>
  <time>2026-09-01T20:01:16Z</time>
  <course>227.32</course>
  <speed>25.9</speed>
  <fix>3d</fix>
</trkpt>
<trkpt lat="-27.2697309" lon="151.288501">
  <ele>393.72</ele>
  <time>2026-09-01T20:01:16Z</time>
  <course>227.76</course>
  <speed>25.796148937389862</speed>
  <fix>3d</fix>
</trkpt>
<trkpt lat="-27.2696854" lon="151.2885566">
  <ele>393.91</ele>
  <time>2026-09-01T20:01:16Z</time>
  <course>227.32</course>
  <speed>25.9</speed>
  <fix>3d</fix>
</trkpt>
<trkpt lat="-27.2697466" lon="151.2884818">
  <ele>393.69</ele>
  <time>2026-09-01T20:01:16Z</time>
  <course>227.76</course>
  <speed>25.775247816461437</speed>
  <fix>3d</fix>
</trkpt>
<trkpt lat="-27.2697169" lon="151.2885181">
  <ele>393.84</ele>
  <time>2026-09-01T20:01:16Z</time>
  <course>227.36</course>
  <speed>25.87</speed>
  <fix>3d</fix>
</trkpt>
<trkpt lat="-27.2697622" lon="151.2884627">
  <ele>393.65</ele>
  <time>2026-09-01T20:01:16Z</time>
  <course>227.79</course>
  <speed>25.761117988161928</speed>
  <fix>3d</fix>
</trkpt>
<trkpt lat="-27.2697169" lon="151.2885181">
  <ele>393.84</ele>
  <time>2026-09-01T20:01:16Z</time>
  <course>227.36</course>
  <speed>25.87</speed>
  <fix>3d</fix>
</trkpt>
<trkpt lat="-27.2697778" lon="151.2884436">
  <ele>393.6</ele>
  <time>2026-09-01T20:01:16Z</time>
  <course>227.84</course>
  <speed>25.740219501783585</speed>
  <fix>3d</fix>
</trkpt>
<trkpt lat="-27.2697484" lon="151.2884796">
  <ele>393.77</ele>
  <time>2026-09-01T20:01:16Z</time>
  <course>227.38</course>
  <speed>25.84</speed>
  <fix>3d</fix>
</trkpt>
<trkpt lat="-27.2697935" lon="151.2884245">
  <ele>393.56</ele>
  <time>2026-09-01T20:01:16Z</time>
  <course>227.85</course>
  <speed>25.726089870013283</speed>
  <fix>3d</fix>
</trkpt>
<trkpt lat="-27.2697484" lon="151.2884796">
  <ele>393.77</ele>
  <time>2026-09-01T20:01:16Z</time>
  <course>227.38</course>
  <speed>25.84</speed>
  <fix>3d</fix>
</trkpt>
<trkpt lat="-27.2698091" lon="151.2884053">
  <ele>393.51</ele>
  <time>2026-09-01T20:01:16Z</time>
  <course>227.88</course>
  <speed>25.705194027666863</speed>
  <fix>3d</fix>
</trkpt>
<trkpt lat="-27.2697798" lon="151.2884413">
  <ele>393.69</ele>
  <time>2026-09-01T20:01:16Z</time>
  <course>227.4</course>
  <speed>25.81</speed>
  <fix>3d</fix>
</trkpt>
<trkpt lat="-27.2698247" lon="151.2883862">
  <ele>393.46</ele>
  <time>2026-09-01T20:01:16Z</time>
  <course>227.89</course>
  <speed>25.69106459452391</speed>
  <fix>3d</fix>
</trkpt>
<trkpt lat="-27.2697798" lon="151.2884413">
  <ele>393.69</ele>
  <time>2026-09-01T20:01:16Z</time>
  <course>227.4</course>
  <speed>25.81</speed>
  <fix>3d</fix>
</trkpt>
<trkpt lat="-27.2698403" lon="151.2883671">
  <ele>393.41</ele>
  <time>2026-09-01T20:01:16Z</time>
  <course>227.91</course>
  <speed>25.670171405738607</speed>
  <fix>3d</fix>
</trkpt>
<trkpt lat="-27.2698111" lon="151.2884029">
  <ele>393.59</ele>
  <time>2026-09-01T20:01:16Z</time>
  <course>227.42</course>
  <speed>25.78</speed>
  <fix>3d</fix>
</trkpt>
<trkpt lat="-27.2698559" lon="151.288348">
  <ele>393.35</ele>
  <time>2026-09-01T20:01:16Z</time>
  <course>227.91</course>
  <speed>25.65604217333609</speed>
  <fix>3d</fix>
</trkpt>
<trkpt lat="-27.2698111" lon="151.2884029">
  <ele>393.59</ele>
  <time>2026-09-01T20:01:16Z</time>
  <course>227.42</course>
  <speed>25.78</speed>
  <fix>3d</fix>
</trkpt>
<trkpt lat="-27.2698716" lon="151.2883287">
  <ele>393.3</ele>
  <time>2026-09-01T20:01:16Z</time>
  <course>227.93</course>
  <speed>25.649280691668526</speed>
  <fix>3d</fix>
</trkpt>
<trkpt lat="-27.2698424" lon="151.2883645">
  <ele>393.5</ele>
  <time>2026-09-01T20:01:16Z</time>
  <course>227.43</course>
  <speed>25.75</speed>
  <fix>3d</fix>
</trkpt>
<trkpt lat="-27.2698872" lon="151.2883096">
  <ele>393.24</ele>
  <time>2026-09-01T20:01:16Z</time>
  <course>227.88</course>
  <speed>25.63515164768876</speed>
  <fix>3d</fix>
</trkpt>
<trkpt lat="-27.2698424" lon="151.2883645">
  <ele>393.5</ele>
  <time>2026-09-01T20:01:16Z</time>
  <course>227.43</course>
  <speed>25.75</speed>
  <fix>3d</fix>
</trkpt>
<trkpt lat="-27.2699027" lon="151.2882906">
  <ele>393.18</ele>
  <time>2026-09-01T20:01:16Z</time>
  <course>227.84</course>
  <speed>25.614263604484123</speed>
  <fix>3d</fix>
</trkpt>
<trkpt lat="-27.2698737" lon="151.2883262">
  <ele>393.39</ele>
  <time>2026-09-01T20:01:16Z</time>
  <course>227.45</course>
  <speed>25.72</speed>
  <fix>3d</fix>
</trkpt>
<trkpt lat="-27.2699183" lon="151.2882715">
  <ele>393.12</ele>
  <time>2026-09-01T20:01:16Z</time>
  <course>227.83</course>
  <speed>25.600134765270283</speed>
  <fix>3d</fix>
</trkpt>
<trkpt lat="-27.2698737" lon="151.2883262">
  <ele>393.39</ele>
  <time>2026-09-01T20:01:16Z</time>
  <course>227.45</course>
  <speed>25.72</speed>
  <fix>3d</fix>
</trkpt>
<trkpt lat="-27.2699339" lon="151.2882524">
  <ele>393.06</ele>
  <time>2026-09-01T20:01:16Z</time>
  <course>227.84</course>
  <speed>25.59276460251999</speed>
  <fix>3d</fix>
</trkpt>
<trkpt lat="-27.2699049" lon="151.2882879">
  <ele>393.28</ele>
  <time>2026-09-01T20:01:16Z</time>
  <course>227.46</course>
  <speed>25.7</speed>
  <fix>3d</fix>
</trkpt>
<trkpt lat="-27.2699494" lon="151.2882333">
  <ele>393.0</ele>
  <time>2026-09-01T20:01:16Z</time>
  <course>227.88</course>
  <speed>25.58600594074816</speed>
  <fix>3d</fix>
</trkpt>
<trkpt lat="-27.2699049" lon="151.2882879">
  <ele>393.28</ele>
  <time>2026-09-01T20:01:16Z</time>
  <course>227.46</course>
  <speed>25.7</speed>
  <fix>3d</fix>
</trkpt>
<trkpt lat="-27.269965" lon="151.2882142">
  <ele>392.94</ele>
  <time>2026-09-01T20:01:16Z</time>
  <course>227.91</course>
  <speed>25.571877130942106</speed>
  <fix>3d</fix>
</trkpt>
<trkpt lat="-27.2699361" lon="151.2882497">
  <ele>393.16</ele>
  <time>2026-09-01T20:01:16Z</time>
  <course>227.46</course>
  <speed>25.67</speed>
  <fix>3d</fix>
</trkpt>
<trkpt lat="-27.2699805" lon="151.2881952">
  <ele>392.88</ele>
  <time>2026-09-01T20:01:16Z</time>
  <course>227.91</course>
  <speed>25.565120770299522</speed>
  <fix>3d</fix>
</trkpt>
<trkpt lat="-27.2699361" lon="151.2882497">
  <ele>393.16</ele>
  <time>2026-09-01T20:01:16Z</time>
  <course>227.46</course>
  <speed>25.67</speed>
  <fix>3d</fix>
</trkpt>
<trkpt lat="-27.269996" lon="151.2881761">
  <ele>392.81</ele>
  <time>2026-09-01T20:01:16Z</time>
  <course>227.93</course>
  <speed>25.550992152947796</speed>
  <fix>3d</fix>
</trkpt>
<trkpt lat="-27.2699673" lon="151.2882115">
  <ele>393.03</ele>
  <time>2026-09-01T20:01:16Z</time>
  <course>227.47</course>
  <speed>25.65</speed>
  <fix>3d</fix>
</trkpt>
<trkpt lat="-27.2700116" lon="151.288157">
  <ele>392.74</ele>
  <time>2026-09-01T20:01:16Z</time>
  <course>227.89</course>
  <speed>25.544238097856823</speed>
  <fix>3d</fix>
</trkpt>
<trkpt lat="-27.2699673" lon="151.2882115">
  <ele>393.03</ele>
  <time>2026-09-01T20:01:16Z</time>
  <course>227.47</course>
  <speed>25.65</speed>
  <fix>3d</fix>
</trkpt>
<trkpt lat="-27.2700271" lon="151.2881379">
  <ele>392.67</ele>
  <time>2026-09-01T20:01:16Z</time>
  <course>227.92</course>
  <speed>25.530109674656707</speed>
  <fix>3d</fix>
</trkpt>
<trkpt lat="-27.2699985" lon="151.2881732">
  <ele>392.9</ele>
  <time>2026-09-01T20:01:16Z</time>
  <course>227.48</course>
  <speed>25.63</speed>
  <fix>3d</fix>
</trkpt>
<trkpt lat="-27.2700426" lon="151.2881189">
  <ele>392.6</ele>
  <time>2026-09-01T20:01:16Z</time>
  <course>227.95</course>
  <speed>25.523357929551512</speed>
  <fix>3d</fix>
</trkpt>
<trkpt lat="-27.2699985" lon="151.2881732">
  <ele>392.9</ele>
  <time>2026-09-01T20:01:16Z</time>
  <course>227.48</course>
  <speed>25.63</speed>
  <fix>3d</fix>
</trkpt>
<trkpt lat="-27.2700582" lon="151.2880998">
  <ele>392.52</ele>
  <time>2026-09-01T20:01:16Z</time>
  <course>227.95</course>
  <speed>25.523357929551512</speed>
  <fix>3d</fix>
</trkpt>
<trkpt lat="-27.2700296" lon="151.2881349">
  <ele>392.75</ele>
  <time>2026-09-01T20:01:16Z</time>
  <course>227.49</course>
  <speed>25.6</speed>
  <fix>3d</fix>
</trkpt>
<trkpt lat="-27.2700737" lon="151.2880807">
  <ele>392.45</ele>
  <time>2026-09-01T20:01:16Z</time>
  <course>227.93</course>
  <speed>25.509860838507134</speed>
  <fix>3d</fix>
</trkpt>
<trkpt lat="-27.2700296" lon="151.2881349">
  <ele>392.75</ele>
  <time>2026-09-01T20:01:16Z</time>
  <course>227.49</course>
  <speed>25.6</speed>
  <fix>3d</fix>
</trkpt>
<trkpt lat="-27.2700892" lon="151.2880617">
  <ele>392.38</ele>
  <time>2026-09-01T20:01:16Z</time>
  <course>227.94</course>
  <speed>25.502480271534374</speed>
  <fix>3d</fix>
</trkpt>
<trkpt lat="-27.2700607" lon="151.2880968">
  <ele>392.61</ele>
  <time>2026-09-01T20:01:16Z</time>
  <course>227.51</course>
  <speed>25.59</speed>
  <fix>3d</fix>
</trkpt>
<trkpt lat="-27.2701047" lon="151.2880426">
  <ele>392.3</ele>
  <time>2026-09-01T20:01:16Z</time>
  <course>227.93</course>
  <speed>25.502480271534374</speed>
  <fix>3d</fix>
</trkpt>
<trkpt lat="-27.2700607" lon="151.2880968">
  <ele>392.61</ele>
  <time>2026-09-01T20:01:16Z</time>
  <course>227.51</course>
  <speed>25.59</speed>
  <fix>3d</fix>
</trkpt>
<trkpt lat="-27.2701202" lon="151.2880235">
  <ele>392.22</ele>
  <time>2026-09-01T20:01:16Z</time>
  <course>228.0</course>
  <speed>25.488352241759372</speed>
  <fix>3d</fix>
</trkpt>
<trkpt lat="-27.2700917" lon="151.2880587">
  <ele>392.46</ele>
  <time>2026-09-01T20:01:16Z</time>
  <course>227.51</course>
  <speed>25.57</speed>
  <fix>3d</fix>
</trkpt>
<trkpt lat="-27.2701357" lon="151.2880045">
  <ele>392.14</ele>
  <time>2026-09-01T20:01:16Z</time>
  <course>228.03</course>
  <speed>25.481605129975623</speed>
  <fix>3d</fix>
</trkpt>
<trkpt lat="-27.2700917" lon="151.2880587">
  <ele>392.46</ele>
  <time>2026-09-01T20:01:16Z</time>
  <course>227.51</course>
  <speed>25.57</speed>
  <fix>3d</fix>
</trkpt>
<trkpt lat="-27.2701511" lon="151.2879855">
  <ele>392.06</ele>
  <time>2026-09-01T20:01:16Z</time>
  <course>228.07</course>
  <speed>25.481605129975623</speed>
  <fix>3d</fix>
</trkpt>
<trkpt lat="-27.2701227" lon="151.2880206">
  <ele>392.31</ele>
  <time>2026-09-01T20:01:16Z</time>
  <course>227.52</course>
  <speed>25.55</speed>
  <fix>3d</fix>
</trkpt>
<trkpt lat="-27.2701666" lon="151.2879664">
  <ele>391.98</ele>
  <time>2026-09-01T20:01:16Z</time>
  <course>228.05</course>
  <speed>25.468117323430093</speed>
  <fix>3d</fix>
</trkpt>
<trkpt lat="-27.2701227" lon="151.2880206">
  <ele>392.31</ele>
  <time>2026-09-01T20:01:16Z</time>
  <course>227.52</course>
  <speed>25.55</speed>
  <fix>3d</fix>
</trkpt>
<trkpt lat="-27.2701821" lon="151.2879474">
  <ele>391.9</ele>
  <time>2026-09-01T20:01:16Z</time>
  <course>228.01</course>
  <speed>25.468117323430093</speed>
  <fix>3d</fix>
</trkpt>
<trkpt lat="-27.2701537" lon="151.2879825">
  <ele>392.15</ele>
  <time>2026-09-01T20:01:16Z</time>
  <course>227.53</course>
  <speed>25.53</speed>
  <fix>3d</fix>
</trkpt>
<trkpt lat="-27.2701974" lon="151.2879285">
  <ele>391.83</ele>
  <time>2026-09-01T20:01:16Z</time>
  <course>227.97</course>
  <speed>25.453989864066497</speed>
  <fix>3d</fix>
</trkpt>
<trkpt lat="-27.2701537" lon="151.2879825">
  <ele>392.15</ele>
  <time>2026-09-01T20:01:16Z</time>
  <course>227.53</course>
  <speed>25.53</speed>
  <fix>3d</fix>
</trkpt>
<trkpt lat="-27.2702129" lon="151.2879095">
  <ele>391.75</ele>
  <time>2026-09-01T20:01:16Z</time>
  <course>227.99</course>
  <speed>25.453989864066497</speed>
  <fix>3d</fix>
</trkpt>
<trkpt lat="-27.2701846" lon="151.2879444">
  <ele>391.99</ele>
  <time>2026-09-01T20:01:16Z</time>
  <course>227.55</course>
  <speed>25.52</speed>
  <fix>3d</fix>
</trkpt>
<trkpt lat="-27.2702283" lon="151.2878904">
  <ele>391.67</ele>
  <time>2026-09-01T20:01:16Z</time>
  <course>228.05</course>
  <speed>25.439862421011636</speed>
  <fix>3d</fix>
</trkpt>
<trkpt lat="-27.2701846" lon="151.2879444">
  <ele>391.99</ele>
  <time>2026-09-01T20:01:16Z</time>
  <course>227.55</course>
  <speed>25.52</speed>
  <fix>3d</fix>
</trkpt>
<trkpt lat="-27.2702438" lon="151.2878714">
  <ele>391.59</ele>
  <time>2026-09-01T20:01:16Z</time>
  <course>228.05</course>
  <speed>25.43312210484588</speed>
  <fix>3d</fix>
</trkpt>
<trkpt lat="-27.2702155" lon="151.2879065">
  <ele>391.84</ele>
  <time>2026-09-01T20:01:16Z</time>
  <course>227.56</course>
  <speed>25.5</speed>
  <fix>3d</fix>
</trkpt>
<trkpt lat="-27.2702595" lon="151.2878521">
  <ele>391.51</ele>
  <time>2026-09-01T20:01:16Z</time>
  <course>228.06</course>
  <speed>25.42638393480284</speed>
  <fix>3d</fix>
</trkpt>
<trkpt lat="-27.2702155" lon="151.2879065">
  <ele>391.84</ele>
  <time>2026-09-01T20:01:16Z</time>
  <course>227.56</course>
  <speed>25.5</speed>
  <fix>3d</fix>
</trkpt>
<trkpt lat="-27.2702749" lon="151.2878331">
  <ele>391.43</ele>
  <time>2026-09-01T20:01:16Z</time>
  <course>228.04</course>
  <speed>25.42638393480284</speed>
  <fix>3d</fix>
</trkpt>
<trkpt lat="-27.2702464" lon="151.2878684">
  <ele>391.69</ele>
  <time>2026-09-01T20:01:16Z</time>
  <course>227.58</course>
  <speed>25.48</speed>
  <fix>3d</fix>
</trkpt>
<trkpt lat="-27.2702903" lon="151.2878141">
  <ele>391.34</ele>
  <time>2026-09-01T20:01:16Z</time>
  <course>228.01</course>
  <speed>25.42638393480284</speed>
  <fix>3d</fix>
</trkpt>
<trkpt lat="-27.2702464" lon="151.2878684">
  <ele>391.69</ele>
  <time>2026-09-01T20:01:16Z</time>
  <course>227.58</course>
  <speed>25.48</speed>
  <fix>3d</fix>
</trkpt>
<trkpt lat="-27.2703058" lon="151.287795">
  <ele>391.25</ele>
  <time>2026-09-01T20:01:16Z</time>
  <course>228.02</course>
  <speed>25.419647912589188</speed>
  <fix>3d</fix>
</trkpt>
<trkpt lat="-27.2702773" lon="151.2878304">
  <ele>391.52</ele>
  <time>2026-09-01T20:01:16Z</time>
  <course>227.59</course>
  <speed>25.47</speed>
  <fix>3d</fix>
</trkpt>
<trkpt lat="-27.2703212" lon="151.287776">
  <ele>391.16</ele>
  <time>2026-09-01T20:01:16Z</time>
  <course>228.01</course>
  <speed>25.41225688521191</speed>
  <fix>3d</fix>
</trkpt>
<trkpt lat="-27.2702773" lon="151.2878304">
  <ele>391.52</ele>
  <time>2026-09-01T20:01:16Z</time>
  <course>227.59</course>
  <speed>25.47</speed>
  <fix>3d</fix>
</trkpt>
<trkpt lat="-27.2703366" lon="151.287757">
  <ele>391.06</ele>
  <time>2026-09-01T20:01:16Z</time>
  <course>228.07</course>
  <speed>25.419647912589188</speed>
  <fix>3d</fix>
</trkpt>
<trkpt lat="-27.2703082" lon="151.2877923">
  <ele>391.35</ele>
  <time>2026-09-01T20:01:16Z</time>
  <course>227.59</course>
  <speed>25.46</speed>
  <fix>3d</fix>
</trkpt>
<trkpt lat="-27.2703521" lon="151.2877379">
  <ele>390.97</ele>
  <time>2026-09-01T20:01:16Z</time>
  <course>228.14</course>
  <speed>25.419647912589188</speed>
  <fix>3d</fix>
</trkpt>
<trkpt lat="-27.2703082" lon="151.2877923">
  <ele>391.35</ele>
  <time>2026-09-01T20:01:16Z</time>
  <course>227.59</course>
  <speed>25.46</speed>
  <fix>3d</fix>
</trkpt>
<trkpt lat="-27.2703676" lon="151.2877189">
  <ele>390.88</ele>
  <time>2026-09-01T20:01:16Z</time>
  <course>228.15</course>
  <speed>25.412914039912856</speed>
  <fix>3d</fix>
</trkpt>
<trkpt lat="-27.2703391" lon="151.2877543">
  <ele>391.16</ele>
  <time>2026-09-01T20:01:16Z</time>
  <course>227.6</course>
  <speed>25.45</speed>
  <fix>3d</fix>
</trkpt>
<trkpt lat="-27.270383" lon="151.2876998">
  <ele>390.78</ele>
  <time>2026-09-01T20:01:16Z</time>
  <course>228.11</course>
  <speed>25.420308810083323</speed>
  <fix>3d</fix>
</trkpt>
<trkpt lat="-27.2703391" lon="151.2877543">
  <ele>391.16</ele>
  <time>2026-09-01T20:01:16Z</time>
  <course>227.6</course>
  <speed>25.45</speed>
  <fix>3d</fix>
</trkpt>
<trkpt lat="-27.2703985" lon="151.2876807">
  <ele>390.69</ele>
  <time>2026-09-01T20:01:16Z</time>
  <course>228.12</course>
  <speed>25.420308810083323</speed>
  <fix>3d</fix>
</trkpt>
<trkpt lat="-27.2703699" lon="151.2877163">
  <ele>390.98</ele>
  <time>2026-09-01T20:01:16Z</time>
  <course>227.61</course>
  <speed>25.44</speed>
  <fix>3d</fix>
</trkpt>
<trkpt lat="-27.2704139" lon="151.2876616">
  <ele>390.6</ele>
  <time>2026-09-01T20:01:16Z</time>
  <course>228.12</course>
  <speed>25.427705362458486</speed>
  <fix>3d</fix>
</trkpt>
<trkpt lat="-27.2703699" lon="151.2877163">
  <ele>390.98</ele>
  <time>2026-09-01T20:01:16Z</time>
  <course>227.61</course>
  <speed>25.44</speed>
  <fix>3d</fix>
</trkpt>
<trkpt lat="-27.2704294" lon="151.2876425">
  <ele>390.51</ele>
  <time>2026-09-01T20:01:16Z</time>
  <course>228.13</course>
  <speed>25.427705362458486</speed>
  <fix>3d</fix>
</trkpt>
<trkpt lat="-27.2704007" lon="151.2876782">
  <ele>390.8</ele>
  <time>2026-09-01T20:01:16Z</time>
  <course>227.63</course>
  <speed>25.44</speed>
  <fix>3d</fix>
</trkpt>
<trkpt lat="-27.2704449" lon="151.2876234">
  <ele>390.41</ele>
  <time>2026-09-01T20:01:16Z</time>
  <course>228.14</course>
  <speed>25.428377848380343</speed>
  <fix>3d</fix>
</trkpt>
<trkpt lat="-27.2704007" lon="151.2876782">
  <ele>390.8</ele>
  <time>2026-09-01T20:01:16Z</time>
  <course>227.63</course>
  <speed>25.44</speed>
  <fix>3d</fix>
</trkpt>
<trkpt lat="-27.2704603" lon="151.2876043">
  <ele>390.32</ele>
  <time>2026-09-01T20:01:16Z</time>
  <course>228.15</course>
  <speed>25.43577991727401</speed>
  <fix>3d</fix>
</trkpt>
<trkpt lat="-27.2704315" lon="151.2876403">
  <ele>390.61</ele>
  <time>2026-09-01T20:01:16Z</time>
  <course>227.65</course>
  <speed>25.43</speed>
  <fix>3d</fix>
</trkpt>
<trkpt lat="-27.2704758" lon="151.2875852">
  <ele>390.22</ele>
  <time>2026-09-01T20:01:16Z</time>
  <course>228.15</course>
  <speed>25.43577991727401</speed>
  <fix>3d</fix>
</trkpt>
<trkpt lat="-27.2704315" lon="151.2876403">
  <ele>390.61</ele>
  <time>2026-09-01T20:01:16Z</time>
  <course>227.65</course>
  <speed>25.43</speed>
  <fix>3d</fix>
</trkpt>
<trkpt lat="-27.2704912" lon="151.2875661">
  <ele>390.13</ele>
  <time>2026-09-01T20:01:16Z</time>
  <course>228.14</course>
  <speed>25.443183763043493</speed>
  <fix>3d</fix>
</trkpt>
<trkpt lat="-27.2704623" lon="151.2876024">
  <ele>390.42</ele>
  <time>2026-09-01T20:01:16Z</time>
  <course>227.68</course>
  <speed>25.43</speed>
  <fix>3d</fix>
</trkpt>
<trkpt lat="-27.2705066" lon="151.287547">
  <ele>390.04</ele>
  <time>2026-09-01T20:01:16Z</time>
  <course>228.14</course>
  <speed>25.443183763043493</speed>
  <fix>3d</fix>
</trkpt>
<trkpt lat="-27.2704623" lon="151.2876024">
  <ele>390.42</ele>
  <time>2026-09-01T20:01:16Z</time>
  <course>227.68</course>
  <speed>25.43</speed>
  <fix>3d</fix>
</trkpt>
<trkpt lat="-27.2705219" lon="151.2875281">
  <ele>389.94</ele>
  <time>2026-09-01T20:01:16Z</time>
  <course>228.17</course>
  <speed>25.45058938413804</speed>
  <fix>3d</fix>
</trkpt>
<trkpt lat="-27.270493" lon="151.2875644">
  <ele>390.23</ele>
  <time>2026-09-01T20:01:16Z</time>
  <course>227.69</course>
  <speed>25.42</speed>
  <fix>3d</fix>
</trkpt>
<trkpt lat="-27.2705374" lon="151.2875091">
  <ele>389.85</ele>
  <time>2026-09-01T20:01:16Z</time>
  <course>228.22</course>
  <speed>25.45058938413804</speed>
  <fix>3d</fix>
</trkpt>
<trkpt lat="-27.270493" lon="151.2875644">
  <ele>390.23</ele>
  <time>2026-09-01T20:01:16Z</time>
  <course>227.69</course>
  <speed>25.42</speed>
  <fix>3d</fix>
</trkpt>
<trkpt lat="-27.2705528" lon="151.28749">
  <ele>389.75</ele>
  <time>2026-09-01T20:01:16Z</time>
  <course>228.25</course>
  <speed>25.45058938413804</speed>
  <fix>3d</fix>
</trkpt>
<trkpt lat="-27.2705237" lon="151.2875264">
  <ele>390.04</ele>
  <time>2026-09-01T20:01:16Z</time>
  <course>227.7</course>
  <speed>25.42</speed>
  <fix>3d</fix>
</trkpt>
<trkpt lat="-27.2705682" lon="151.2874709">
  <ele>389.65</ele>
  <time>2026-09-01T20:01:16Z</time>
  <course>228.24</course>
  <speed>25.45058938413804</speed>
  <fix>3d</fix>
</trkpt>
<trkpt lat="-27.2705237" lon="151.2875264">
  <ele>390.04</ele>
  <time>2026-09-01T20:01:16Z</time>
  <course>227.7</course>
  <speed>25.42</speed>
  <fix>3d</fix>
</trkpt>
<trkpt lat="-27.2705837" lon="151.2874517">
  <ele>389.55</ele>
  <time>2026-09-01T20:01:16Z</time>
  <course>228.24</course>
  <speed>25.45058938413804</speed>
  <fix>3d</fix>
</trkpt>
<trkpt lat="-27.2705544" lon="151.2874883">
  <ele>389.85</ele>
  <time>2026-09-01T20:01:16Z</time>
  <course>227.7</course>
  <speed>25.42</speed>
  <fix>3d</fix>
</trkpt>
<trkpt lat="-27.2705991" lon="151.2874327">
  <ele>389.46</ele>
  <time>2026-09-01T20:01:16Z</time>
  <course>228.21</course>
  <speed>25.45058938413804</speed>
  <fix>3d</fix>
</trkpt>
<trkpt lat="-27.2705544" lon="151.2874883">
  <ele>389.85</ele>
  <time>2026-09-01T20:01:16Z</time>
  <course>227.7</course>
  <speed>25.42</speed>
  <fix>3d</fix>
</trkpt>
<trkpt lat="-27.2706145" lon="151.2874136">
  <ele>389.36</ele>
  <time>2026-09-01T20:01:16Z</time>
  <course>228.17</course>
  <speed>25.45058938413804</speed>
  <fix>3d</fix>
</trkpt>
<trkpt lat="-27.2705852" lon="151.2874504">
  <ele>389.66</ele>
  <time>2026-09-01T20:01:16Z</time>
  <course>227.71</course>
  <speed>25.42</speed>
  <fix>3d</fix>
</trkpt>
<trkpt lat="-27.2706299" lon="151.2873946">
  <ele>389.26</ele>
  <time>2026-09-01T20:01:16Z</time>
  <course>228.15</course>
  <speed>25.45058938413804</speed>
  <fix>3d</fix>
</trkpt>
<trkpt lat="-27.2705852" lon="151.2874504">
  <ele>389.66</ele>
  <time>2026-09-01T20:01:16Z</time>
  <course>227.71</course>
  <speed>25.42</speed>
  <fix>3d</fix>
</trkpt>
<trkpt lat="-27.2706453" lon="151.2873755">
  <ele>389.17</ele>
  <time>2026-09-01T20:01:16Z</time>
  <course>228.18</course>
  <speed>25.45058938413804</speed>
  <fix>3d</fix>
</trkpt>
<trkpt lat="-27.2706159" lon="151.2874123">
  <ele>389.46</ele>
  <time>2026-09-01T20:01:16Z</time>
  <course>227.71</course>
  <speed>25.41</speed>
  <fix>3d</fix>
</trkpt>
<trkpt lat="-27.2706606" lon="151.2873565">
  <ele>389.07</ele>
  <time>2026-09-01T20:01:16Z</time>
  <course>228.22</course>
  <speed>25.45058938413804</speed>
  <fix>3d</fix>
</trkpt>
<trkpt lat="-27.2706159" lon="151.2874123">
  <ele>389.46</ele>
  <time>2026-09-01T20:01:16Z</time>
  <course>227.71</course>
  <speed>25.41</speed>
  <fix>3d</fix>
</trkpt>
<trkpt lat="-27.2706762" lon="151.2873373">
  <ele>388.97</ele>
  <time>2026-09-01T20:01:16Z</time>
  <course>228.24</course>
  <speed>25.443183763043493</speed>
  <fix>3d</fix>
</trkpt>
<trkpt lat="-27.2706467" lon="151.2873741">
  <ele>389.27</ele>
  <time>2026-09-01T20:01:16Z</time>
  <course>227.71</course>
  <speed>25.41</speed>
  <fix>3d</fix>
</trkpt>
<trkpt lat="-27.2706915" lon="151.2873183">
  <ele>388.87</ele>
  <time>2026-09-01T20:01:16Z</time>
  <course>228.24</course>
  <speed>25.443183763043493</speed>
  <fix>3d</fix>
</trkpt>
<trkpt lat="-27.2706467" lon="151.2873741">
  <ele>389.27</ele>
  <time>2026-09-01T20:01:16Z</time>
  <course>227.71</course>
  <speed>25.41</speed>
  <fix>3d</fix>
</trkpt>
<trkpt lat="-27.2707069" lon="151.2872992">
  <ele>388.78</ele>
  <time>2026-09-01T20:01:16Z</time>
  <course>228.22</course>
  <speed>25.43646398381662</speed>
  <fix>3d</fix>
</trkpt>
<trkpt lat="-27.2706774" lon="151.2873361">
  <ele>389.08</ele>
  <time>2026-09-01T20:01:16Z</time>
  <course>227.7</course>
  <speed>25.4</speed>
  <fix>3d</fix>
</trkpt>
<trkpt lat="-27.2707223" lon="151.2872802">
  <ele>388.68</ele>
  <time>2026-09-01T20:01:16Z</time>
  <course>228.2</course>
  <speed>25.43646398381662</speed>
  <fix>3d</fix>
</trkpt>
<trkpt lat="-27.2706774" lon="151.2873361">
  <ele>389.08</ele>
  <time>2026-09-01T20:01:16Z</time>
  <course>227.7</course>
  <speed>25.4</speed>
  <fix>3d</fix>
</trkpt>
<trkpt lat="-27.2707377" lon="151.2872611">
  <ele>388.58</ele>
  <time>2026-09-01T20:01:16Z</time>
  <course>228.27</course>
  <speed>25.43646398381662</speed>
  <fix>3d</fix>
</trkpt>
<trkpt lat="-27.2707081" lon="151.2872982">
  <ele>388.88</ele>
  <time>2026-09-01T20:01:16Z</time>
  <course>227.7</course>
  <speed>25.4</speed>
  <fix>3d</fix>
</trkpt>
<trkpt lat="-27.2707531" lon="151.2872421">
  <ele>388.48</ele>
  <time>2026-09-01T20:01:16Z</time>
  <course>228.27</course>
  <speed>25.43646398381662</speed>
  <fix>3d</fix>
</trkpt>
<trkpt lat="-27.2707081" lon="151.2872982">
  <ele>388.88</ele>
  <time>2026-09-01T20:01:16Z</time>
  <course>227.7</course>
  <speed>25.4</speed>
  <fix>3d</fix>
</trkpt>
<trkpt lat="-27.2707685" lon="151.2872231">
  <ele>388.38</ele>
  <time>2026-09-01T20:01:16Z</time>
  <course>228.25</course>
  <speed>25.43646398381662</speed>
  <fix>3d</fix>
</trkpt>
<trkpt lat="-27.2707388" lon="151.2872603">
  <ele>388.69</ele>
  <time>2026-09-01T20:01:16Z</time>
  <course>227.7</course>
  <speed>25.39</speed>
  <fix>3d</fix>
</trkpt>
<trkpt lat="-27.2707839" lon="151.287204">
  <ele>388.28</ele>
  <time>2026-09-01T20:01:16Z</time>
  <course>228.24</course>
  <speed>25.43646398381662</speed>
  <fix>3d</fix>
</trkpt>
<trkpt lat="-27.2707388" lon="151.2872603">
  <ele>388.69</ele>
  <time>2026-09-01T20:01:16Z</time>
  <course>227.7</course>
  <speed>25.39</speed>
  <fix>3d</fix>
</trkpt>
<trkpt lat="-27.2707993" lon="151.287185">
  <ele>388.18</ele>
  <time>2026-09-01T20:01:16Z</time>
  <course>228.26</course>
  <speed>25.43646398381662</speed>
  <fix>3d</fix>
</trkpt>
<trkpt lat="-27.2707695" lon="151.2872223">
  <ele>388.49</ele>
  <time>2026-09-01T20:01:16Z</time>
  <course>227.7</course>
  <speed>25.39</speed>
  <fix>3d</fix>
</trkpt>
<trkpt lat="-27.2708146" lon="151.287166">
  <ele>388.07</ele>
  <time>2026-09-01T20:01:16Z</time>
  <course>228.25</course>
  <speed>25.43646398381662</speed>
  <fix>3d</fix>
</trkpt>
<trkpt lat="-27.2707695" lon="151.2872223">
  <ele>388.49</ele>
  <time>2026-09-01T20:01:16Z</time>
  <course>227.7</course>
  <speed>25.39</speed>
  <fix>3d</fix>
</trkpt>
<trkpt lat="-27.27083" lon="151.287147">
  <ele>387.97</ele>
  <time>2026-09-01T20:01:16Z</time>
  <course>228.28</course>
  <speed>25.43646398381662</speed>
  <fix>3d</fix>
</trkpt>
<trkpt lat="-27.2708002" lon="151.2871844">
  <ele>388.28</ele>
  <time>2026-09-01T20:01:16Z</time>
  <course>227.7</course>
  <speed>25.38</speed>
  <fix>3d</fix>
</trkpt>
<trkpt lat="-27.2708453" lon="151.2871281">
  <ele>387.87</ele>
  <time>2026-09-01T20:01:16Z</time>
  <course>228.28</course>
  <speed>25.429746361299003</speed>
  <fix>3d</fix>
</trkpt>
<trkpt lat="-27.2708002" lon="151.2871844">
  <ele>388.28</ele>
  <time>2026-09-01T20:01:16Z</time>
  <course>227.7</course>
  <speed>25.38</speed>
  <fix>3d</fix>
</trkpt>
<trkpt lat="-27.2708606" lon="151.2871091">
  <ele>387.77</ele>
  <time>2026-09-01T20:01:16Z</time>
  <course>228.25</course>
  <speed>25.429746361299003</speed>
  <fix>3d</fix>
</trkpt>
<trkpt lat="-27.2708309" lon="151.2871464">
  <ele>388.08</ele>
  <time>2026-09-01T20:01:16Z</time>
  <course>227.7</course>
  <speed>25.38</speed>
  <fix>3d</fix>
</trkpt>
<trkpt lat="-27.270876" lon="151.2870901">
  <ele>387.67</ele>
  <time>2026-09-01T20:01:16Z</time>
  <course>228.2</course>
  <speed>25.422338602103466</speed>
  <fix>3d</fix>
</trkpt>
<trkpt lat="-27.2708309" lon="151.2871464">
  <ele>388.08</ele>
  <time>2026-09-01T20:01:16Z</time>
  <course>227.7</course>
  <speed>25.38</speed>
  <fix>3d</fix>
</trkpt>
<trkpt lat="-27.2708914" lon="151.2870711">
  <ele>387.57</ele>
  <time>2026-09-01T20:01:16Z</time>
  <course>228.22</course>
  <speed>25.422338602103466</speed>
  <fix>3d</fix>
</trkpt>
<trkpt lat="-27.2708615" lon="151.2871084">
  <ele>387.88</ele>
  <time>2026-09-01T20:01:16Z</time>
  <course>227.7</course>
  <speed>25.38</speed>
  <fix>3d</fix>
</trkpt>
<trkpt lat="-27.2709068" lon="151.2870519">
  <ele>387.47</ele>
  <time>2026-09-01T20:01:16Z</time>
  <course>228.24</course>
  <speed>25.415621180683345</speed>
  <fix>3d</fix>
</trkpt>
<trkpt lat="-27.2708615" lon="151.2871084">
  <ele>387.88</ele>
  <time>2026-09-01T20:01:16Z</time>
  <course>227.7</course>
  <speed>25.38</speed>
  <fix>3d</fix>
</trkpt>
<trkpt lat="-27.2709222" lon="151.2870329">
  <ele>387.37</ele>
  <time>2026-09-01T20:01:16Z</time>
  <course>228.2</course>
  <speed>25.422338602103466</speed>
  <fix>3d</fix>
</trkpt>
<trkpt lat="-27.2708922" lon="151.2870705">
  <ele>387.68</ele>
  <time>2026-09-01T20:01:16Z</time>
  <course>227.7</course>
  <speed>25.37</speed>
  <fix>3d</fix>
</trkpt>
<trkpt lat="-27.2709375" lon="151.2870139">
  <ele>387.26</ele>
  <time>2026-09-01T20:01:16Z</time>
  <course>228.21</course>
  <speed>25.422338602103466</speed>
  <fix>3d</fix>
</trkpt>
<trkpt lat="-27.2708922" lon="151.2870705">
  <ele>387.68</ele>
  <time>2026-09-01T20:01:16Z</time>
  <course>227.7</course>
  <speed>25.37</speed>
  <fix>3d</fix>
</trkpt>
<trkpt lat="-27.2709529" lon="151.286995">
  <ele>387.15</ele>
  <time>2026-09-01T20:01:16Z</time>
  <course>228.24</course>
  <speed>25.422338602103466</speed>
  <fix>3d</fix>
</trkpt>
<trkpt lat="-27.2709229" lon="151.2870326">
  <ele>387.47</ele>
  <time>2026-09-01T20:01:16Z</time>
  <course>227.7</course>
  <speed>25.37</speed>
  <fix>3d</fix>
</trkpt>
<trkpt lat="-27.2709682" lon="151.286976">
  <ele>387.04</ele>
  <time>2026-09-01T20:01:16Z</time>
  <course>228.24</course>
  <speed>25.422338602103466</speed>
  <fix>3d</fix>
</trkpt>
<trkpt lat="-27.2709229" lon="151.2870326">
  <ele>387.47</ele>
  <time>2026-09-01T20:01:16Z</time>
  <course>227.7</course>
  <speed>25.37</speed>
  <fix>3d</fix>
</trkpt>
<trkpt lat="-27.2709836" lon="151.286957">
  <ele>386.94</ele>
  <time>2026-09-01T20:01:16Z</time>
  <course>228.24</course>
  <speed>25.41493261844304</speed>
  <fix>3d</fix>
</trkpt>
<trkpt lat="-27.2709537" lon="151.2869946">
  <ele>387.25</ele>
  <time>2026-09-01T20:01:16Z</time>
  <course>227.69</course>
  <speed>25.37</speed>
  <fix>3d</fix>
</trkpt>
<trkpt lat="-27.2709989" lon="151.286938">
  <ele>386.83</ele>
  <time>2026-09-01T20:01:16Z</time>
  <course>228.25</course>
  <speed>25.422338602103466</speed>
  <fix>3d</fix>
</trkpt>
<trkpt lat="-27.2709537" lon="151.2869946">
  <ele>387.25</ele>
  <time>2026-09-01T20:01:16Z</time>
  <course>227.69</course>
  <speed>25.37</speed>
  <fix>3d</fix>
</trkpt>
<trkpt lat="-27.2710143" lon="151.286919">
  <ele>386.72</ele>
  <time>2026-09-01T20:01:16Z</time>
  <course>228.25</course>
  <speed>25.422338602103466</speed>
  <fix>3d</fix>
</trkpt>
<trkpt lat="-27.2709844" lon="151.2869566">
  <ele>387.03</ele>
  <time>2026-09-01T20:01:16Z</time>
  <course>227.69</course>
  <speed>25.38</speed>
  <fix>3d</fix>
</trkpt>
<trkpt lat="-27.2710297" lon="151.2869">
  <ele>386.61</ele>
  <time>2026-09-01T20:01:16Z</time>
  <course>228.26</course>
  <speed>25.429746361299003</speed>
  <fix>3d</fix>
</trkpt>
<trkpt lat="-27.2709844" lon="151.2869566">
  <ele>387.03</ele>
  <time>2026-09-01T20:01:16Z</time>
  <course>227.69</course>
  <speed>25.38</speed>
  <fix>3d</fix>
</trkpt>
<trkpt lat="-27.271045" lon="151.286881">
  <ele>386.5</ele>
  <time>2026-09-01T20:01:16Z</time>
  <course>228.29</course>
  <speed>25.423030897200277</speed>
  <fix>3d</fix>
</trkpt>
<trkpt lat="-27.2710151" lon="151.2869187">
  <ele>386.82</ele>
  <time>2026-09-01T20:01:16Z</time>
  <course>227.7</course>
  <speed>25.38</speed>
  <fix>3d</fix>
</trkpt>
<trkpt lat="-27.2710604" lon="151.286862">
  <ele>386.4</ele>
  <time>2026-09-01T20:01:16Z</time>
  <course>228.3</course>
  <speed>25.423030897200277</speed>
  <fix>3d</fix>
</trkpt>
<trkpt lat="-27.2710151" lon="151.2869187">
  <ele>386.82</ele>
  <time>2026-09-01T20:01:16Z</time>
  <course>227.7</course>
  <speed>25.38</speed>
  <fix>3d</fix>
</trkpt>
<trkpt lat="-27.2710757" lon="151.286843">
  <ele>386.29</ele>
  <time>2026-09-01T20:01:16Z</time>
  <course>228.28</course>
  <speed>25.430442387028975</speed>
  <fix>3d</fix>
</trkpt>
<trkpt lat="-27.2710457" lon="151.2868807">
  <ele>386.6</ele>
  <time>2026-09-01T20:01:16Z</time>
  <course>227.72</course>
  <speed>25.39</speed>
  <fix>3d</fix>
</trkpt>
<trkpt lat="-27.2710911" lon="151.286824">
  <ele>386.18</ele>
  <time>2026-09-01T20:01:16Z</time>
  <course>228.25</course>
  <speed>25.430442387028975</speed>
  <fix>3d</fix>
</trkpt>
<trkpt lat="-27.2710457" lon="151.2868807">
  <ele>386.6</ele>
  <time>2026-09-01T20:01:16Z</time>
  <course>227.72</course>
  <speed>25.39</speed>
  <fix>3d</fix>
</trkpt>
<trkpt lat="-27.2711066" lon="151.2868048">
  <ele>386.07</ele>
  <time>2026-09-01T20:01:16Z</time>
  <course>228.27</course>
  <speed>25.430442387028975</speed>
  <fix>3d</fix>
</trkpt>
<trkpt lat="-27.2710764" lon="151.2868427">
  <ele>386.39</ele>
  <time>2026-09-01T20:01:16Z</time>
  <course>227.74</course>
  <speed>25.39</speed>
  <fix>3d</fix>
</trkpt>
<trkpt lat="-27.2711219" lon="151.2867858">
  <ele>385.97</ele>
  <time>2026-09-01T20:01:16Z</time>
  <course>228.31</course>
  <speed>25.423731040112898</speed>
  <fix>3d</fix>
</trkpt>
<trkpt lat="-27.2710764" lon="151.2868427">
  <ele>386.39</ele>
  <time>2026-09-01T20:01:16Z</time>
  <course>227.74</course>
  <speed>25.39</speed>
  <fix>3d</fix>
</trkpt>
<trkpt lat="-27.2711372" lon="151.2867668">
  <ele>385.86</ele>
  <time>2026-09-01T20:01:16Z</time>
  <course>228.27</course>
  <speed>25.431146258082823</speed>
  <fix>3d</fix>
</trkpt>
<trkpt lat="-27.2711071" lon="151.2868047">
  <ele>386.18</ele>
  <time>2026-09-01T20:01:16Z</time>
  <course>227.75</course>
  <speed>25.4</speed>
  <fix>3d</fix>
</trkpt>
<trkpt lat="-27.2711526" lon="151.2867478">
  <ele>385.76</ele>
  <time>2026-09-01T20:01:16Z</time>
  <course>228.2</course>
  <speed>25.431146258082823</speed>
  <fix>3d</fix>
</trkpt>
<trkpt lat="-27.2711071" lon="151.2868047">
  <ele>386.18</ele>
  <time>2026-09-01T20:01:16Z</time>
  <course>227.75</course>
  <speed>25.4</speed>
  <fix>3d</fix>
</trkpt>
<trkpt lat="-27.2711678" lon="151.286729">
  <ele>385.65</ele>
  <time>2026-09-01T20:01:16Z</time>
  <course>228.18</course>
  <speed>25.423731040112898</speed>
  <fix>3d</fix>
</trkpt>
<trkpt lat="-27.2711378" lon="151.2867668">
  <ele>385.96</ele>
  <time>2026-09-01T20:01:16Z</time>
  <course>227.76</course>
  <speed>25.4</speed>
  <fix>3d</fix>
</trkpt>
<trkpt lat="-27.2711831" lon="151.28671">
  <ele>385.54</ele>
  <time>2026-09-01T20:01:16Z</time>
  <course>228.22</course>
  <speed>25.430442387028975</speed>
  <fix>3d</fix>
</trkpt>
<trkpt lat="-27.2711378" lon="151.2867668">
  <ele>385.96</ele>
  <time>2026-09-01T20:01:16Z</time>
  <course>227.76</course>
  <speed>25.4</speed>
  <fix>3d</fix>
</trkpt>
<trkpt lat="-27.2711984" lon="151.286691">
  <ele>385.43</ele>
  <time>2026-09-01T20:01:16Z</time>
  <course>228.32</course>
  <speed>25.430442387028975</speed>
  <fix>3d</fix>
</trkpt>
<trkpt lat="-27.2711684" lon="151.2867288">
  <ele>385.75</ele>
  <time>2026-09-01T20:01:16Z</time>
  <course>227.76</course>
  <speed>25.41</speed>
  <fix>3d</fix>
</trkpt>
<trkpt lat="-27.2712138" lon="151.286672">
  <ele>385.32</ele>
  <time>2026-09-01T20:01:16Z</time>
  <course>228.36</course>
  <speed>25.431146258082823</speed>
  <fix>3d</fix>
</trkpt>
<trkpt lat="-27.2711684" lon="151.2867288">
  <ele>385.75</ele>
  <time>2026-09-01T20:01:16Z</time>
  <course>227.76</course>
  <speed>25.41</speed>
  <fix>3d</fix>
</trkpt>
<trkpt lat="-27.2712292" lon="151.2866528">
  <ele>385.21</ele>
  <time>2026-09-01T20:01:16Z</time>
  <course>228.31</course>
  <speed>25.431146258082823</speed>
  <fix>3d</fix>
</trkpt>
<trkpt lat="-27.2711991" lon="151.2866907">
  <ele>385.53</ele>
  <time>2026-09-01T20:01:16Z</time>
  <course>227.76</course>
  <speed>25.41</speed>
  <fix>3d</fix>
</trkpt>
<trkpt lat="-27.2712445" lon="151.2866338">
  <ele>385.1</ele>
  <time>2026-09-01T20:01:16Z</time>
  <course>228.26</course>
  <speed>25.431146258082823</speed>
  <fix>3d</fix>
</trkpt>
<trkpt lat="-27.2711991" lon="151.2866907">
  <ele>385.53</ele>
  <time>2026-09-01T20:01:16Z</time>
  <course>227.76</course>
  <speed>25.41</speed>
  <fix>3d</fix>
</trkpt>
<trkpt lat="-27.2712599" lon="151.2866148">
  <ele>384.99</ele>
  <time>2026-09-01T20:01:16Z</time>
  <course>228.29</course>
  <speed>25.431146258082823</speed>
  <fix>3d</fix>
</trkpt>
<trkpt lat="-27.2712298" lon="151.2866527">
  <ele>385.32</ele>
  <time>2026-09-01T20:01:16Z</time>
  <course>227.77</course>
  <speed>25.42</speed>
  <fix>3d</fix>
</trkpt>
<trkpt lat="-27.2712752" lon="151.2865958">
  <ele>384.88</ele>
  <time>2026-09-01T20:01:16Z</time>
  <course>228.29</course>
  <speed>25.431146258082823</speed>
  <fix>3d</fix>
</trkpt>
<trkpt lat="-27.2712298" lon="151.2866527">
  <ele>385.32</ele>
  <time>2026-09-01T20:01:16Z</time>
  <course>227.77</course>
  <speed>25.42</speed>
  <fix>3d</fix>
</trkpt>
<trkpt lat="-27.2712905" lon="151.2865768">
  <ele>384.78</ele>
  <time>2026-09-01T20:01:16Z</time>
  <course>228.28</course>
  <speed>25.43856324559231</speed>
  <fix>3d</fix>
</trkpt>
<trkpt lat="-27.2712606" lon="151.2866146">
  <ele>385.11</ele>
  <time>2026-09-01T20:01:16Z</time>
  <course>227.78</course>
  <speed>25.42</speed>
  <fix>3d</fix>
</trkpt>
<trkpt lat="-27.2713059" lon="151.2865578">
  <ele>384.67</ele>
  <time>2026-09-01T20:01:16Z</time>
  <course>228.29</course>
  <speed>25.43185797380915</speed>
  <fix>3d</fix>
</trkpt>
<trkpt lat="-27.2712606" lon="151.2866146">
  <ele>385.11</ele>
  <time>2026-09-01T20:01:16Z</time>
  <course>227.78</course>
  <speed>25.42</speed>
  <fix>3d</fix>
</trkpt>
<trkpt lat="-27.2713212" lon="151.2865387">
  <ele>384.56</ele>
  <time>2026-09-01T20:01:16Z</time>
  <course>228.29</course>
  <speed>25.43185797380915</speed>
  <fix>3d</fix>
</trkpt>
<trkpt lat="-27.2712913" lon="151.2865764">
  <ele>384.89</ele>
  <time>2026-09-01T20:01:16Z</time>
  <course>227.8</course>
  <speed>25.43</speed>
  <fix>3d</fix>
</trkpt>
<trkpt lat="-27.2713365" lon="151.2865197">
  <ele>384.46</ele>
  <time>2026-09-01T20:01:16Z</time>
  <course>228.32</course>
  <speed>25.425154866784982</speed>
  <fix>3d</fix>
</trkpt>
<trkpt lat="-27.2712913" lon="151.2865764">
  <ele>384.89</ele>
  <time>2026-09-01T20:01:16Z</time>
  <course>227.8</course>
  <speed>25.43</speed>
  <fix>3d</fix>
</trkpt>
<trkpt lat="-27.2713519" lon="151.2865007">
  <ele>384.35</ele>
  <time>2026-09-01T20:01:16Z</time>
  <course>228.32</course>
  <speed>25.425154866784982</speed>
  <fix>3d</fix>
</trkpt>
<trkpt lat="-27.271322" lon="151.2865383">
  <ele>384.68</ele>
  <time>2026-09-01T20:01:16Z</time>
  <course>227.81</course>
  <speed>25.43</speed>
  <fix>3d</fix>
</trkpt>
<trkpt lat="-27.2713672" lon="151.2864816">
  <ele>384.24</ele>
  <time>2026-09-01T20:01:16Z</time>
  <course>228.31</course>
  <speed>25.425154866784982</speed>
  <fix>3d</fix>
</trkpt>
<trkpt lat="-27.271322" lon="151.2865383">
  <ele>384.68</ele>
  <time>2026-09-01T20:01:16Z</time>
  <course>227.81</course>
  <speed>25.43</speed>
  <fix>3d</fix>
</trkpt>
<trkpt lat="-27.2713826" lon="151.2864626">
  <ele>384.14</ele>
  <time>2026-09-01T20:01:16Z</time>
  <course>228.34</course>
  <speed>25.425154866784982</speed>
  <fix>3d</fix>
</trkpt>
<trkpt lat="-27.2713527" lon="151.2865002">
  <ele>384.46</ele>
  <time>2026-09-01T20:01:16Z</time>
  <course>227.83</course>
  <speed>25.44</speed>
  <fix>3d</fix>
</trkpt>
<trkpt lat="-27.2713979" lon="151.2864435">
  <ele>384.03</ele>
  <time>2026-09-01T20:01:16Z</time>
  <course>228.32</course>
  <speed>25.425154866784982</speed>
  <fix>3d</fix>
</trkpt>
<trkpt lat="-27.2713527" lon="151.2865002">
  <ele>384.46</ele>
  <time>2026-09-01T20:01:16Z</time>
  <course>227.83</course>
  <speed>25.44</speed>
  <fix>3d</fix>
</trkpt>
<trkpt lat="-27.2714132" lon="151.2864245">
  <ele>383.92</ele>
  <time>2026-09-01T20:01:16Z</time>
  <course>228.25</course>
  <speed>25.425154866784982</speed>
  <fix>3d</fix>
</trkpt>
<trkpt lat="-27.2713833" lon="151.2864621">
  <ele>384.25</ele>
  <time>2026-09-01T20:01:16Z</time>
  <course>227.83</course>
  <speed>25.44</speed>
  <fix>3d</fix>
</trkpt>
<trkpt lat="-27.2714286" lon="151.2864054">
  <ele>383.82</ele>
  <time>2026-09-01T20:01:16Z</time>
  <course>228.25</course>
  <speed>25.424439030192975</speed>
  <fix>3d</fix>
</trkpt>
<trkpt lat="-27.2713833" lon="151.2864621">
  <ele>384.25</ele>
  <time>2026-09-01T20:01:16Z</time>
  <course>227.83</course>
  <speed>25.44</speed>
  <fix>3d</fix>
</trkpt>
<trkpt lat="-27.2714439" lon="151.2863864">
  <ele>383.71</ele>
  <time>2026-09-01T20:01:16Z</time>
  <course>228.27</course>
  <speed>25.424439030192975</speed>
  <fix>3d</fix>
</trkpt>
<trkpt lat="-27.271414" lon="151.286424">
  <ele>384.03</ele>
  <time>2026-09-01T20:01:16Z</time>
  <course>227.82</course>
  <speed>25.44</speed>
  <fix>3d</fix>
</trkpt>
<trkpt lat="-27.2714592" lon="151.2863673">
  <ele>383.6</ele>
  <time>2026-09-01T20:01:16Z</time>
  <course>228.35</course>
  <speed>25.417733966661935</speed>
  <fix>3d</fix>
</trkpt>
<trkpt lat="-27.271414" lon="151.286424">
  <ele>384.03</ele>
  <time>2026-09-01T20:01:16Z</time>
  <course>227.82</course>
  <speed>25.44</speed>
  <fix>3d</fix>
</trkpt>
<trkpt lat="-27.2714746" lon="151.2863483">
  <ele>383.5</ele>
  <time>2026-09-01T20:01:16Z</time>
  <course>228.37</course>
  <speed>25.417733966661935</speed>
  <fix>3d</fix>
</trkpt>
<trkpt lat="-27.2714447" lon="151.2863859">
  <ele>383.82</ele>
  <time>2026-09-01T20:01:16Z</time>
  <course>227.81</course>
  <speed>25.44</speed>
  <fix>3d</fix>
</trkpt>
<trkpt lat="-27.2714899" lon="151.2863292">
  <ele>383.4</ele>
  <time>2026-09-01T20:01:16Z</time>
  <course>228.36</course>
  <speed>25.417733966661935</speed>
  <fix>3d</fix>
</trkpt>
<trkpt lat="-27.2714447" lon="151.2863859">
  <ele>383.82</ele>
  <time>2026-09-01T20:01:16Z</time>
  <course>227.81</course>
  <speed>25.44</speed>
  <fix>3d</fix>
</trkpt>
<trkpt lat="-27.2715052" lon="151.2863102">
  <ele>383.29</ele>
  <time>2026-09-01T20:01:16Z</time>
  <course>228.33</course>
  <speed>25.411031069202995</speed>
  <fix>3d</fix>
</trkpt>
<trkpt lat="-27.2714754" lon="151.2863478">
  <ele>383.61</ele>
  <time>2026-09-01T20:01:16Z</time>
  <course>227.82</course>
  <speed>25.44</speed>
  <fix>3d</fix>
</trkpt>
<trkpt lat="-27.2715206" lon="151.2862912">
  <ele>383.18</ele>
  <time>2026-09-01T20:01:16Z</time>
  <course>228.29</course>
  <speed>25.417733966661935</speed>
  <fix>3d</fix>
</trkpt>
<trkpt lat="-27.2714754" lon="151.2863478">
  <ele>383.61</ele>
  <time>2026-09-01T20:01:16Z</time>
  <course>227.82</course>
  <speed>25.44</speed>
  <fix>3d</fix>
</trkpt>
<trkpt lat="-27.2715359" lon="151.2862721">
  <ele>383.07</ele>
  <time>2026-09-01T20:01:16Z</time>
  <course>228.29</course>
  <speed>25.41031483472804</speed>
  <fix>3d</fix>
</trkpt>
<trkpt lat="-27.271506" lon="151.2863097">
  <ele>383.4</ele>
  <time>2026-09-01T20:01:16Z</time>
  <course>227.82</course>
  <speed>25.44</speed>
  <fix>3d</fix>
</trkpt>
<trkpt lat="-27.2715514" lon="151.2862529">
  <ele>382.97</ele>
  <time>2026-09-01T20:01:16Z</time>
  <course>228.31</course>
  <speed>25.41031483472804</speed>
  <fix>3d</fix>
</trkpt>
<trkpt lat="-27.271506" lon="151.2863097">
  <ele>383.4</ele>
  <time>2026-09-01T20:01:16Z</time>
  <course>227.82</course>
  <speed>25.44</speed>
  <fix>3d</fix>
</trkpt>
<trkpt lat="-27.2715667" lon="151.2862339">
  <ele>382.86</ele>
  <time>2026-09-01T20:01:16Z</time>
  <course>228.34</course>
  <speed>25.41031483472804</speed>
  <fix>3d</fix>
</trkpt>
<trkpt lat="-27.2715367" lon="151.2862716">
  <ele>383.19</ele>
  <time>2026-09-01T20:01:16Z</time>
  <course>227.81</course>
  <speed>25.44</speed>
  <fix>3d</fix>
</trkpt>
<trkpt lat="-27.271582" lon="151.2862149">
  <ele>382.76</ele>
  <time>2026-09-01T20:01:16Z</time>
  <course>228.34</course>
  <speed>25.41031483472804</speed>
  <fix>3d</fix>
</trkpt>
<trkpt lat="-27.2715367" lon="151.2862716">
  <ele>383.19</ele>
  <time>2026-09-01T20:01:16Z</time>
  <course>227.81</course>
  <speed>25.44</speed>
  <fix>3d</fix>
</trkpt>
<trkpt lat="-27.2715973" lon="151.2861959">
  <ele>382.65</ele>
  <time>2026-09-01T20:01:16Z</time>
  <course>228.32</course>
  <speed>25.403609979685957</speed>
  <fix>3d</fix>
</trkpt>
<trkpt lat="-27.2715674" lon="151.2862335">
  <ele>382.98</ele>
  <time>2026-09-01T20:01:16Z</time>
  <course>227.8</course>
  <speed>25.44</speed>
  <fix>3d</fix>
</trkpt>
<trkpt lat="-27.2716127" lon="151.2861768">
  <ele>382.55</ele>
  <time>2026-09-01T20:01:16Z</time>
  <course>228.3</course>
  <speed>25.403609979685957</speed>
  <fix>3d</fix>
</trkpt>
<trkpt lat="-27.2715674" lon="151.2862335">
  <ele>382.98</ele>
  <time>2026-09-01T20:01:16Z</time>
  <course>227.8</course>
  <speed>25.44</speed>
  <fix>3d</fix>
</trkpt>
<trkpt lat="-27.271628" lon="151.2861578">
  <ele>382.44</ele>
  <time>2026-09-01T20:01:16Z</time>
  <course>228.27</course>
  <speed>25.403609979685957</speed>
  <fix>3d</fix>
</trkpt>
<trkpt lat="-27.2715982" lon="151.2861954">
  <ele>382.77</ele>
  <time>2026-09-01T20:01:16Z</time>
  <course>227.81</course>
  <speed>25.44</speed>
  <fix>3d</fix>
</trkpt>
<trkpt lat="-27.2716433" lon="151.2861388">
  <ele>382.34</ele>
  <time>2026-09-01T20:01:16Z</time>
  <course>228.33</course>
  <speed>25.39690729203066</speed>
  <fix>3d</fix>
</trkpt>
<trkpt lat="-27.2715982" lon="151.2861954">
  <ele>382.77</ele>
  <time>2026-09-01T20:01:16Z</time>
  <course>227.81</course>
  <speed>25.44</speed>
  <fix>3d</fix>
</trkpt>
<trkpt lat="-27.2716586" lon="151.2861197">
  <ele>382.23</ele>
  <time>2026-09-01T20:01:16Z</time>
  <course>228.36</course>
  <speed>25.39690729203066</speed>
  <fix>3d</fix>
</trkpt>
<trkpt lat="-27.2716289" lon="151.2861572">
  <ele>382.56</ele>
  <time>2026-09-01T20:01:16Z</time>
  <course>227.83</course>
  <speed>25.44</speed>
  <fix>3d</fix>
</trkpt>
<trkpt lat="-27.271674" lon="151.2861007">
  <ele>382.13</ele>
  <time>2026-09-01T20:01:16Z</time>
  <course>228.38</course>
  <speed>25.39690729203066</speed>
  <fix>3d</fix>
</trkpt>
<trkpt lat="-27.2716289" lon="151.2861572">
  <ele>382.56</ele>
  <time>2026-09-01T20:01:16Z</time>
  <course>227.83</course>
  <speed>25.44</speed>
  <fix>3d</fix>
</trkpt>
<trkpt lat="-27.2716893" lon="151.2860816">
  <ele>382.03</ele>
  <time>2026-09-01T20:01:16Z</time>
  <course>228.38</course>
  <speed>25.397631779360847</speed>
  <fix>3d</fix>
</trkpt>
<trkpt lat="-27.2716596" lon="151.2861191">
  <ele>382.35</ele>
  <time>2026-09-01T20:01:16Z</time>
  <course>227.84</course>
  <speed>25.44</speed>
  <fix>3d</fix>
</trkpt>
<trkpt lat="-27.2717046" lon="151.2860626">
  <ele>381.92</ele>
  <time>2026-09-01T20:01:16Z</time>
  <course>228.39</course>
  <speed>25.397631779360847</speed>
  <fix>3d</fix>
</trkpt>
<trkpt lat="-27.2716596" lon="151.2861191">
  <ele>382.35</ele>
  <time>2026-09-01T20:01:16Z</time>
  <course>227.84</course>
  <speed>25.44</speed>
  <fix>3d</fix>
</trkpt>
<trkpt lat="-27.2717199" lon="151.2860435">
  <ele>381.81</ele>
  <time>2026-09-01T20:01:16Z</time>
  <course>228.39</course>
  <speed>25.39093539041049</speed>
  <fix>3d</fix>
</trkpt>
<trkpt lat="-27.2716902" lon="151.286081">
  <ele>382.14</ele>
  <time>2026-09-01T20:01:16Z</time>
  <course>227.86</course>
  <speed>25.44</speed>
  <fix>3d</fix>
</trkpt>
<trkpt lat="-27.2717353" lon="151.2860244">
  <ele>381.71</ele>
  <time>2026-09-01T20:01:16Z</time>
  <course>228.38</course>
  <speed>25.39093539041049</speed>
  <fix>3d</fix>
</trkpt>
<trkpt lat="-27.2716902" lon="151.286081">
  <ele>382.14</ele>
  <time>2026-09-01T20:01:16Z</time>
  <course>227.86</course>
  <speed>25.44</speed>
  <fix>3d</fix>
</trkpt>
<trkpt lat="-27.2717506" lon="151.2860054">
  <ele>381.6</ele>
  <time>2026-09-01T20:01:16Z</time>
  <course>228.35</course>
  <speed>25.39093539041049</speed>
  <fix>3d</fix>
</trkpt>
<trkpt lat="-27.2717209" lon="151.2860428">
  <ele>381.93</ele>
  <time>2026-09-01T20:01:16Z</time>
  <course>227.88</course>
  <speed>25.44</speed>
  <fix>3d</fix>
</trkpt>
<trkpt lat="-27.2717659" lon="151.2859863">
  <ele>381.5</ele>
  <time>2026-09-01T20:01:16Z</time>
  <course>228.35</course>
  <speed>25.39093539041049</speed>
  <fix>3d</fix>
</trkpt>
<trkpt lat="-27.2717209" lon="151.2860428">
  <ele>381.93</ele>
  <time>2026-09-01T20:01:16Z</time>
  <course>227.88</course>
  <speed>25.44</speed>
  <fix>3d</fix>
</trkpt>
<trkpt lat="-27.2717812" lon="151.2859673">
  <ele>381.39</ele>
  <time>2026-09-01T20:01:16Z</time>
  <course>228.39</course>
  <speed>25.391671863034148</speed>
  <fix>3d</fix>
</trkpt>
<trkpt lat="-27.2717515" lon="151.2860047">
  <ele>381.72</ele>
  <time>2026-09-01T20:01:16Z</time>
  <course>227.9</course>
  <speed>25.44</speed>
  <fix>3d</fix>
</trkpt>
<trkpt lat="-27.2717965" lon="151.2859482">
  <ele>381.29</ele>
  <time>2026-09-01T20:01:16Z</time>
  <course>228.46</course>
  <speed>25.391671863034148</speed>
  <fix>3d</fix>
</trkpt>
<trkpt lat="-27.2717515" lon="151.2860047">
  <ele>381.72</ele>
  <time>2026-09-01T20:01:16Z</time>
  <course>227.9</course>
  <speed>25.44</speed>
  <fix>3d</fix>
</trkpt>
<trkpt lat="-27.2718118" lon="151.2859291">
  <ele>381.19</ele>
  <time>2026-09-01T20:01:16Z</time>
  <course>228.49</course>
  <speed>25.384981780572545</speed>
  <fix>3d</fix>
</trkpt>
<trkpt lat="-27.2717821" lon="151.2859666">
  <ele>381.51</ele>
  <time>2026-09-01T20:01:16Z</time>
  <course>227.91</course>
  <speed>25.44</speed>
  <fix>3d</fix>
</trkpt>
<trkpt lat="-27.2718271" lon="151.28591">
  <ele>381.08</ele>
  <time>2026-09-01T20:01:16Z</time>
  <course>228.5</course>
  <speed>25.384981780572545</speed>
  <fix>3d</fix>
</trkpt>
<trkpt lat="-27.2717821" lon="151.2859666">
  <ele>381.51</ele>
  <time>2026-09-01T20:01:16Z</time>
  <course>227.91</course>
  <speed>25.44</speed>
  <fix>3d</fix>
</trkpt>
<trkpt lat="-27.2718424" lon="151.285891">
  <ele>380.98</ele>
  <time>2026-09-01T20:01:16Z</time>
  <course>228.46</course>
  <speed>25.385730243583698</speed>
  <fix>3d</fix>
</trkpt>
<trkpt lat="-27.2718128" lon="151.2859284">
  <ele>381.3</ele>
  <time>2026-09-01T20:01:16Z</time>
  <course>227.93</course>
  <speed>25.43</speed>
  <fix>3d</fix>
</trkpt>
<trkpt lat="-27.2718577" lon="151.2858719">
  <ele>380.88</ele>
  <time>2026-09-01T20:01:16Z</time>
  <course>228.47</course>
  <speed>25.37904647538989</speed>
  <fix>3d</fix>
</trkpt>
<trkpt lat="-27.2718128" lon="151.2859284">
  <ele>381.3</ele>
  <time>2026-09-01T20:01:16Z</time>
  <course>227.93</course>
  <speed>25.43</speed>
  <fix>3d</fix>
</trkpt>
<trkpt lat="-27.2718728" lon="151.285853">
  <ele>380.77</ele>
  <time>2026-09-01T20:01:17Z</time>
  <course>228.48</course>
  <speed>25.37904647538989</speed>
  <fix>3d</fix>
</trkpt>
<trkpt lat="-27.2718434" lon="151.2858903">
  <ele>381.1</ele>
  <time>2026-09-01T20:01:17Z</time>
  <course>227.97</course>
  <speed>25.43</speed>
  <fix>3d</fix>
</trkpt>
<trkpt lat="-27.2718881" lon="151.2858339">
  <ele>380.67</ele>
  <time>2026-09-01T20:01:17Z</time>
  <course>228.48</course>
  <speed>25.372364887806576</speed>
  <fix>3d</fix>
</trkpt>
<trkpt lat="-27.2718434" lon="151.2858903">
  <ele>381.1</ele>
  <time>2026-09-01T20:01:17Z</time>
  <course>227.97</course>
  <speed>25.43</speed>
  <fix>3d</fix>
</trkpt>
<trkpt lat="-27.2719034" lon="151.2858148">
  <ele>380.57</ele>
  <time>2026-09-01T20:01:17Z</time>
  <course>228.49</course>
  <speed>25.372364887806576</speed>
  <fix>3d</fix>
</trkpt>
<trkpt lat="-27.2718739" lon="151.2858521">
  <ele>380.89</ele>
  <time>2026-09-01T20:01:17Z</time>
  <course>228.0</course>
  <speed>25.42</speed>
  <fix>3d</fix>
</trkpt>
<trkpt lat="-27.2719186" lon="151.2857957">
  <ele>380.46</ele>
  <time>2026-09-01T20:01:17Z</time>
  <course>228.47</course>
  <speed>25.37980693385984</speed>
  <fix>3d</fix>
</trkpt>
<trkpt lat="-27.2718739" lon="151.2858521">
  <ele>380.89</ele>
  <time>2026-09-01T20:01:17Z</time>
  <course>228.0</course>
  <speed>25.42</speed>
  <fix>3d</fix>
</trkpt>
<trkpt lat="-27.271934" lon="151.2857764">
  <ele>380.36</ele>
  <time>2026-09-01T20:01:17Z</time>
  <course>228.48</course>
  <speed>25.372364887806576</speed>
  <fix>3d</fix>
</trkpt>
<trkpt lat="-27.2719045" lon="151.2858138">
  <ele>380.68</ele>
  <time>2026-09-01T20:01:17Z</time>
  <course>228.01</course>
  <speed>25.42</speed>
  <fix>3d</fix>
</trkpt>
<trkpt lat="-27.2719493" lon="151.2857573">
  <ele>380.25</ele>
  <time>2026-09-01T20:01:17Z</time>
  <course>228.57</course>
  <speed>25.37980693385984</speed>
  <fix>3d</fix>
</trkpt>
<trkpt lat="-27.2719045" lon="151.2858138">
  <ele>380.68</ele>
  <time>2026-09-01T20:01:17Z</time>
  <course>228.01</course>
  <speed>25.42</speed>
  <fix>3d</fix>
</trkpt>
<trkpt lat="-27.2719647" lon="151.2857381">
  <ele>380.15</ele>
  <time>2026-09-01T20:01:17Z</time>
  <course>228.58</course>
  <speed>25.37980693385984</speed>
  <fix>3d</fix>
</trkpt>
<trkpt lat="-27.2719351" lon="151.2857756">
  <ele>380.47</ele>
  <time>2026-09-01T20:01:17Z</time>
  <course>228.01</course>
  <speed>25.42</speed>
  <fix>3d</fix>
</trkpt>
<trkpt lat="-27.27198" lon="151.285719">
  <ele>380.04</ele>
  <time>2026-09-01T20:01:17Z</time>
  <course>228.55</course>
  <speed>25.387250737328767</speed>
  <fix>3d</fix>
</trkpt>
<trkpt lat="-27.2719351" lon="151.2857756">
  <ele>380.47</ele>
  <time>2026-09-01T20:01:17Z</time>
  <course>228.01</course>
  <speed>25.42</speed>
  <fix>3d</fix>
</trkpt>
<trkpt lat="-27.2719953" lon="151.2856999">
  <ele>379.94</ele>
  <time>2026-09-01T20:01:17Z</time>
  <course>228.53</course>
  <speed>25.387250737328767</speed>
  <fix>3d</fix>
</trkpt>
<trkpt lat="-27.2719657" lon="151.2857373">
  <ele>380.26</ele>
  <time>2026-09-01T20:01:17Z</time>
  <course>228.01</course>
  <speed>25.42</speed>
  <fix>3d</fix>
</trkpt>
<trkpt lat="-27.2720105" lon="151.2856808">
  <ele>379.83</ele>
  <time>2026-09-01T20:01:17Z</time>
  <course>228.6</course>
  <speed>25.387250737328767</speed>
  <fix>3d</fix>
</trkpt>
<trkpt lat="-27.2719657" lon="151.2857373">
  <ele>380.26</ele>
  <time>2026-09-01T20:01:17Z</time>
  <course>228.01</course>
  <speed>25.42</speed>
  <fix>3d</fix>
</trkpt>
<trkpt lat="-27.2720258" lon="151.2856617">
  <ele>379.73</ele>
  <time>2026-09-01T20:01:17Z</time>
  <course>228.64</course>
  <speed>25.38057524958802</speed>
  <fix>3d</fix>
</trkpt>
<trkpt lat="-27.2719962" lon="151.2856991">
  <ele>380.04</ele>
  <time>2026-09-01T20:01:17Z</time>
  <course>228.02</course>
  <speed>25.42</speed>
  <fix>3d</fix>
</trkpt>
<trkpt lat="-27.272041" lon="151.2856425">
  <ele>379.62</ele>
  <time>2026-09-01T20:01:17Z</time>
  <course>228.62</course>
  <speed>25.38057524958802</speed>
  <fix>3d</fix>
</trkpt>
<trkpt lat="-27.2719962" lon="151.2856991">
  <ele>380.04</ele>
  <time>2026-09-01T20:01:17Z</time>
  <course>228.02</course>
  <speed>25.42</speed>
  <fix>3d</fix>
</trkpt>
<trkpt lat="-27.2720563" lon="151.2856234">
  <ele>379.52</ele>
  <time>2026-09-01T20:01:17Z</time>
  <course>228.6</course>
  <speed>25.3739019466853</speed>
  <fix>3d</fix>
</trkpt>
<trkpt lat="-27.2720268" lon="151.285661">
  <ele>379.83</ele>
  <time>2026-09-01T20:01:17Z</time>
  <course>228.04</course>
  <speed>25.42</speed>
  <fix>3d</fix>
</trkpt>
<trkpt lat="-27.2720716" lon="151.2856043">
  <ele>379.42</ele>
  <time>2026-09-01T20:01:17Z</time>
  <course>228.58</course>
  <speed>25.3739019466853</speed>
  <fix>3d</fix>
</trkpt>
<trkpt lat="-27.2720268" lon="151.285661">
  <ele>379.83</ele>
  <time>2026-09-01T20:01:17Z</time>
  <course>228.04</course>
  <speed>25.42</speed>
  <fix>3d</fix>
</trkpt>
<trkpt lat="-27.2720868" lon="151.2855852">
  <ele>379.32</ele>
  <time>2026-09-01T20:01:17Z</time>
  <course>228.58</course>
  <speed>25.3739019466853</speed>
  <fix>3d</fix>
</trkpt>
<trkpt lat="-27.2720573" lon="151.2856228">
  <ele>379.63</ele>
  <time>2026-09-01T20:01:17Z</time>
  <course>228.05</course>
  <speed>25.41</speed>
  <fix>3d</fix>
</trkpt>
<trkpt lat="-27.2721021" lon="151.2855661">
  <ele>379.21</ele>
  <time>2026-09-01T20:01:17Z</time>
  <course>228.61</course>
  <speed>25.3739019466853</speed>
  <fix>3d</fix>
</trkpt>
<trkpt lat="-27.2720573" lon="151.2856228">
  <ele>379.63</ele>
  <time>2026-09-01T20:01:17Z</time>
  <course>228.05</course>
  <speed>25.41</speed>
  <fix>3d</fix>
</trkpt>
<trkpt lat="-27.2721173" lon="151.285547">
  <ele>379.11</ele>
  <time>2026-09-01T20:01:17Z</time>
  <course>228.64</course>
  <speed>25.367230830344884</speed>
  <fix>3d</fix>
</trkpt>
<trkpt lat="-27.2720878" lon="151.2855846">
  <ele>379.42</ele>
  <time>2026-09-01T20:01:17Z</time>
  <course>228.06</course>
  <speed>25.41</speed>
  <fix>3d</fix>
</trkpt>
<trkpt lat="-27.2721326" lon="151.2855279">
  <ele>379.01</ele>
  <time>2026-09-01T20:01:17Z</time>
  <course>228.63</course>
  <speed>25.367230830344884</speed>
  <fix>3d</fix>
</trkpt>
<trkpt lat="-27.2720878" lon="151.2855846">
  <ele>379.42</ele>
  <time>2026-09-01T20:01:17Z</time>
  <course>228.06</course>
  <speed>25.41</speed>
  <fix>3d</fix>
</trkpt>
<trkpt lat="-27.2721478" lon="151.2855088">
  <ele>378.91</ele>
  <time>2026-09-01T20:01:17Z</time>
  <course>228.59</course>
  <speed>25.367230830344884</speed>
  <fix>3d</fix>
</trkpt>
<trkpt lat="-27.2721183" lon="151.2855463">
  <ele>379.22</ele>
  <time>2026-09-01T20:01:17Z</time>
  <course>228.07</course>
  <speed>25.41</speed>
  <fix>3d</fix>
</trkpt>
<trkpt lat="-27.272163" lon="151.2854897">
  <ele>378.81</ele>
  <time>2026-09-01T20:01:17Z</time>
  <course>228.54</course>
  <speed>25.360561902292307</speed>
  <fix>3d</fix>
</trkpt>
<trkpt lat="-27.2721183" lon="151.2855463">
  <ele>379.22</ele>
  <time>2026-09-01T20:01:17Z</time>
  <course>228.07</course>
  <speed>25.41</speed>
  <fix>3d</fix>
</trkpt>
<trkpt lat="-27.2721781" lon="151.2854708">
  <ele>378.71</ele>
  <time>2026-09-01T20:01:17Z</time>
  <course>228.54</course>
  <speed>25.360561902292307</speed>
  <fix>3d</fix>
</trkpt>
<trkpt lat="-27.2721488" lon="151.2855081">
  <ele>379.02</ele>
  <time>2026-09-01T20:01:17Z</time>
  <course>228.08</course>
  <speed>25.4</speed>
  <fix>3d</fix>
</trkpt>
<trkpt lat="-27.2721934" lon="151.2854517">
  <ele>378.6</ele>
  <time>2026-09-01T20:01:17Z</time>
  <course>228.37</course>
  <speed>25.360561902292307</speed>
  <fix>3d</fix>
</trkpt>
<trkpt lat="-27.2721488" lon="151.2855081">
  <ele>379.02</ele>
  <time>2026-09-01T20:01:17Z</time>
  <course>228.08</course>
  <speed>25.4</speed>
  <fix>3d</fix>
</trkpt>
<trkpt lat="-27.2722086" lon="151.2854326">
  <ele>378.49</ele>
  <time>2026-09-01T20:01:17Z</time>
  <course>227.85</course>
  <speed>25.344887058339797</speed>
  <fix>3d</fix>
</trkpt>
<trkpt lat="-27.2721793" lon="151.28547">
  <ele>378.81</ele>
  <time>2026-09-01T20:01:17Z</time>
  <course>228.09</course>
  <speed>25.39</speed>
  <fix>3d</fix>
</trkpt>
<trkpt lat="-27.2722239" lon="151.2854136">
  <ele>378.37</ele>
  <time>2026-09-01T20:01:17Z</time>
  <course>227.18</course>
  <speed>25.346400138875737</speed>
  <fix>3d</fix>
</trkpt>
<trkpt lat="-27.2721793" lon="151.28547">
  <ele>378.81</ele>
  <time>2026-09-01T20:01:17Z</time>
  <course>228.09</course>
  <speed>25.39</speed>
  <fix>3d</fix>
</trkpt>
<trkpt lat="-27.2722393" lon="151.2853947">
  <ele>378.25</ele>
  <time>2026-09-01T20:01:17Z</time>
  <course>226.56</course>
  <speed>25.33546526117095</speed>
  <fix>3d</fix>
</trkpt>
<trkpt lat="-27.2722098" lon="151.2854317">
  <ele>378.59</ele>
  <time>2026-09-01T20:01:17Z</time>
  <course>227.95</course>
  <speed>25.38</speed>
  <fix>3d</fix>
</trkpt>
<trkpt lat="-27.272255" lon="151.2853758">
  <ele>378.12</ele>
  <time>2026-09-01T20:01:17Z</time>
  <course>226.12</course>
  <speed>25.336917728879335</speed>
  <fix>3d</fix>
</trkpt>
<trkpt lat="-27.2722098" lon="151.2854317">
  <ele>378.59</ele>
  <time>2026-09-01T20:01:17Z</time>
  <course>227.95</course>
  <speed>25.38</speed>
  <fix>3d</fix>
</trkpt>
<trkpt lat="-27.2722709" lon="151.2853574">
  <ele>377.98</ele>
  <time>2026-09-01T20:01:17Z</time>
  <course>225.66</course>
  <speed>25.350063116292237</speed>
  <fix>3d</fix>
</trkpt>
<trkpt lat="-27.2722406" lon="151.2853938">
  <ele>378.35</ele>
  <time>2026-09-01T20:01:17Z</time>
  <course>227.11</course>
  <speed>25.37</speed>
  <fix>3d</fix>
</trkpt>
<trkpt lat="-27.2722872" lon="151.2853394">
  <ele>377.82</ele>
  <time>2026-09-01T20:01:17Z</time>
  <course>224.95</course>
  <speed>25.36976349909474</speed>
  <fix>3d</fix>
</trkpt>
<trkpt lat="-27.2722406" lon="151.2853938">
  <ele>378.35</ele>
  <time>2026-09-01T20:01:17Z</time>
  <course>227.11</course>
  <speed>25.37</speed>
  <fix>3d</fix>
</trkpt>
<trkpt lat="-27.2723045" lon="151.2853214">
  <ele>377.65</ele>
  <time>2026-09-01T20:01:17Z</time>
  <course>223.58</course>
  <speed>25.416264477692234</speed>
  <fix>3d</fix>
</trkpt>
<trkpt lat="-27.2722721" lon="151.2853568">
  <ele>378.08</ele>
  <time>2026-09-01T20:01:17Z</time>
  <course>225.1</course>
  <speed>25.36</speed>
  <fix>3d</fix>
</trkpt>
<trkpt lat="-27.2723217" lon="151.2853048">
  <ele>377.48</ele>
  <time>2026-09-01T20:01:17Z</time>
  <course>221.59</course>
  <speed>25.483316110741942</speed>
  <fix>3d</fix>
</trkpt>
<trkpt lat="-27.2722721" lon="151.2853568">
  <ele>378.08</ele>
  <time>2026-09-01T20:01:17Z</time>
  <course>225.1</course>
  <speed>25.36</speed>
  <fix>3d</fix>
</trkpt>
<trkpt lat="-27.2723398" lon="151.2852888">
  <ele>377.31</ele>
  <time>2026-09-01T20:01:17Z</time>
  <course>218.99</course>
  <speed>25.57805700204767</speed>
  <fix>3d</fix>
</trkpt>
<trkpt lat="-27.2723052" lon="151.2853214">
  <ele>377.77</ele>
  <time>2026-09-01T20:01:17Z</time>
  <course>221.74</course>
  <speed>25.41</speed>
  <fix>3d</fix>
</trkpt>
<trkpt lat="-27.2723586" lon="151.2852738">
  <ele>377.16</ele>
  <time>2026-09-01T20:01:17Z</time>
  <course>216.12</course>
  <speed>25.694326221950245</speed>
  <fix>3d</fix>
</trkpt>
<trkpt lat="-27.2723052" lon="151.2853214">
  <ele>377.77</ele>
  <time>2026-09-01T20:01:17Z</time>
  <course>221.74</course>
  <speed>25.41</speed>
  <fix>3d</fix>
</trkpt>
<trkpt lat="-27.2723781" lon="151.2852598">
  <ele>377.02</ele>
  <time>2026-09-01T20:01:17Z</time>
  <course>213.15</course>
  <speed>25.80372841277012</speed>
  <fix>3d</fix>
</trkpt>
<trkpt lat="-27.2723405" lon="151.2852887">
  <ele>377.44</ele>
  <time>2026-09-01T20:01:17Z</time>
  <course>216.94</course>
  <speed>25.54</speed>
  <fix>3d</fix>
</trkpt>
<trkpt lat="-27.2723985" lon="151.2852468">
  <ele>376.91</ele>
  <time>2026-09-01T20:01:17Z</time>
  <course>210.04</course>
  <speed>25.91061558512264</speed>
  <fix>3d</fix>
</trkpt>
<trkpt lat="-27.2723405" lon="151.2852887">
  <ele>377.44</ele>
  <time>2026-09-01T20:01:17Z</time>
  <course>216.94</course>
  <speed>25.54</speed>
  <fix>3d</fix>
</trkpt>
<trkpt lat="-27.2724189" lon="151.2852354">
  <ele>376.82</ele>
  <time>2026-09-01T20:01:17Z</time>
  <course>207.08</course>
  <speed>25.992354645164415</speed>
  <fix>3d</fix>
</trkpt>
<trkpt lat="-27.2723786" lon="151.2852597">
  <ele>377.15</ele>
  <time>2026-09-01T20:01:17Z</time>
  <course>211.15</course>
  <speed>25.73</speed>
  <fix>3d</fix>
</trkpt>
<trkpt lat="-27.2724403" lon="151.2852249">
  <ele>376.75</ele>
  <time>2026-09-01T20:01:17Z</time>
  <course>204.05</course>
  <speed>26.058906346967056</speed>
  <fix>3d</fix>
</trkpt>
<trkpt lat="-27.2723786" lon="151.2852597">
  <ele>377.15</ele>
  <time>2026-09-01T20:01:17Z</time>
  <course>211.15</course>
  <speed>25.73</speed>
  <fix>3d</fix>
</trkpt>
<trkpt lat="-27.2724622" lon="151.2852156">
  <ele>376.71</ele>
  <time>2026-09-01T20:01:17Z</time>
  <course>201.02</course>
  <speed>26.115780669932114</speed>
  <fix>3d</fix>
</trkpt>
<trkpt lat="-27.2724195" lon="151.2852352">
  <ele>376.95</ele>
  <time>2026-09-01T20:01:17Z</time>
  <course>205.12</course>
  <speed>25.9</speed>
  <fix>3d</fix>
</trkpt>
<trkpt lat="-27.2724846" lon="151.2852076">
  <ele>376.68</ele>
  <time>2026-09-01T20:01:17Z</time>
  <course>198.02</course>
  <speed>26.16729256151656</speed>
  <fix>3d</fix>
</trkpt>
<trkpt lat="-27.2724195" lon="151.2852352">
  <ele>376.95</ele>
  <time>2026-09-01T20:01:17Z</time>
  <course>205.12</course>
  <speed>25.9</speed>
  <fix>3d</fix>
</trkpt>
<trkpt lat="-27.2725071" lon="151.285201">
  <ele>376.67</ele>
  <time>2026-09-01T20:01:17Z</time>
  <course>195.01</course>
  <speed>26.19470557192808</speed>
  <fix>3d</fix>
</trkpt>
<trkpt lat="-27.2724627" lon="151.2852154">
  <ele>376.83</ele>
  <time>2026-09-01T20:01:17Z</time>
  <course>199.13</course>
  <speed>26.02</speed>
  <fix>3d</fix>
</trkpt>
<trkpt lat="-27.2725301" lon="151.2851957">
  <ele>376.66</ele>
  <time>2026-09-01T20:01:17Z</time>
  <course>191.89</course>
  <speed>26.2230585554012</speed>
  <fix>3d</fix>
</trkpt>
<trkpt lat="-27.2724627" lon="151.2852154">
  <ele>376.83</ele>
  <time>2026-09-01T20:01:17Z</time>
  <course>199.13</course>
  <speed>26.02</speed>
  <fix>3d</fix>
</trkpt>
<trkpt lat="-27.2725531" lon="151.2851918">
  <ele>376.67</ele>
  <time>2026-09-01T20:01:17Z</time>
  <course>188.78</course>
  <speed>26.253304553903305</speed>
  <fix>3d</fix>
</trkpt>
<trkpt lat="-27.2725076" lon="151.2852007">
  <ele>376.78</ele>
  <time>2026-09-01T20:01:17Z</time>
  <course>193.12</course>
  <speed>26.11</speed>
  <fix>3d</fix>
</trkpt>
<trkpt lat="-27.2725762" lon="151.2851893">
  <ele>376.69</ele>
  <time>2026-09-01T20:01:17Z</time>
  <course>185.61</course>
  <speed>26.27833518318845</speed>
  <fix>3d</fix>
</trkpt>
<trkpt lat="-27.2725076" lon="151.2852007">
  <ele>376.78</ele>
  <time>2026-09-01T20:01:17Z</time>
  <course>193.12</course>
  <speed>26.11</speed>
  <fix>3d</fix>
</trkpt>
<trkpt lat="-27.2725996" lon="151.2851883">
  <ele>376.71</ele>
  <time>2026-09-01T20:01:17Z</time>
  <course>182.51</course>
  <speed>26.301598810718712</speed>
  <fix>3d</fix>
</trkpt>
<trkpt lat="-27.2725538" lon="151.2851916">
  <ele>376.78</ele>
  <time>2026-09-01T20:01:17Z</time>
  <course>186.95</course>
  <speed>26.18</speed>
  <fix>3d</fix>
</trkpt>
<trkpt lat="-27.272623" lon="151.2851887">
  <ele>376.75</ele>
  <time>2026-09-01T20:01:17Z</time>
  <course>179.35</course>
  <speed>26.31557903600071</speed>
  <fix>3d</fix>
</trkpt>
<trkpt lat="-27.2725538" lon="151.2851916">
  <ele>376.78</ele>
  <time>2026-09-01T20:01:17Z</time>
  <course>186.95</course>
  <speed>26.18</speed>
  <fix>3d</fix>
</trkpt>
<trkpt lat="-27.2726464" lon="151.2851905">
  <ele>376.8</ele>
  <time>2026-09-01T20:01:17Z</time>
  <course>176.23</course>
  <speed>26.318740471382743</speed>
  <fix>3d</fix>
</trkpt>
<trkpt lat="-27.2726008" lon="151.285188">
  <ele>376.82</ele>
  <time>2026-09-01T20:01:17Z</time>
  <course>180.62</course>
  <speed>26.25</speed>
  <fix>3d</fix>
</trkpt>
<trkpt lat="-27.2726699" lon="151.2851939">
  <ele>376.85</ele>
  <time>2026-09-01T20:01:17Z</time>
  <course>173.14</course>
  <speed>26.328706766569454</speed>
  <fix>3d</fix>
</trkpt>
<trkpt lat="-27.2726008" lon="151.285188">
  <ele>376.82</ele>
  <time>2026-09-01T20:01:17Z</time>
  <course>180.62</course>
  <speed>26.25</speed>
  <fix>3d</fix>
</trkpt>
<trkpt lat="-27.272693" lon="151.2851985">
  <ele>376.92</ele>
  <time>2026-09-01T20:01:17Z</time>
  <course>170.04</course>
  <speed>26.321962312867175</speed>
  <fix>3d</fix>
</trkpt>
<trkpt lat="-27.272648" lon="151.2851904">
  <ele>376.9</ele>
  <time>2026-09-01T20:01:17Z</time>
  <course>174.3</course>
  <speed>26.29</speed>
  <fix>3d</fix>
</trkpt>
<trkpt lat="-27.2727158" lon="151.2852045">
  <ele>376.99</ele>
  <time>2026-09-01T20:01:17Z</time>
  <course>167.1</course>
  <speed>26.30092964136439</speed>
  <fix>3d</fix>
</trkpt>
<trkpt lat="-27.272648" lon="151.2851904">
  <ele>376.9</ele>
  <time>2026-09-01T20:01:17Z</time>
  <course>174.3</course>
  <speed>26.29</speed>
  <fix>3d</fix>
</trkpt>
<trkpt lat="-27.2727391" lon="151.2852122">
  <ele>377.06</ele>
  <time>2026-09-01T20:01:17Z</time>
  <course>164.16</course>
  <speed>26.27330203838109</speed>
  <fix>3d</fix>
</trkpt>
<trkpt lat="-27.2726948" lon="151.2851985">
  <ele>377.01</ele>
  <time>2026-09-01T20:01:17Z</time>
  <course>168.11</course>
  <speed>26.3</speed>
  <fix>3d</fix>
</trkpt>
<trkpt lat="-27.2727613" lon="151.2852209">
  <ele>377.14</ele>
  <time>2026-09-01T20:01:17Z</time>
  <course>161.38</course>
  <speed>26.24667026500695</speed>
  <fix>3d</fix>
</trkpt>
<trkpt lat="-27.2726948" lon="151.2851985">
  <ele>377.01</ele>
  <time>2026-09-01T20:01:17Z</time>
  <course>168.11</course>
  <speed>26.3</speed>
  <fix>3d</fix>
</trkpt>
<trkpt lat="-27.2727828" lon="151.2852307">
  <ele>377.22</ele>
  <time>2026-09-01T20:01:17Z</time>
  <course>158.59</course>
  <speed>26.206693801393566</speed>
  <fix>3d</fix>
</trkpt>
<trkpt lat="-27.2727404" lon="151.2852122">
  <ele>377.14</ele>
  <time>2026-09-01T20:01:17Z</time>
  <course>162.15</course>
  <speed>26.28</speed>
  <fix>3d</fix>
</trkpt>
<trkpt lat="-27.2728041" lon="151.2852418">
  <ele>377.3</ele>
  <time>2026-09-01T20:01:17Z</time>
  <course>155.85</course>
  <speed>26.162148229837705</speed>
  <fix>3d</fix>
</trkpt>
<trkpt lat="-27.2727404" lon="151.2852122">
  <ele>377.14</ele>
  <time>2026-09-01T20:01:17Z</time>
  <course>162.15</course>
  <speed>26.28</speed>
  <fix>3d</fix>
</trkpt>
<trkpt lat="-27.2728248" lon="151.2852539">
  <ele>377.38</ele>
  <time>2026-09-01T20:01:17Z</time>
  <course>153.26</course>
  <speed>26.124679902345214</speed>
  <fix>3d</fix>
</trkpt>
<trkpt lat="-27.2727845" lon="151.285231">
  <ele>377.28</ele>
  <time>2026-09-01T20:01:17Z</time>
  <course>156.43</course>
  <speed>26.23</speed>
  <fix>3d</fix>
</trkpt>
<trkpt lat="-27.2728451" lon="151.2852672">
  <ele>377.45</ele>
  <time>2026-09-01T20:01:17Z</time>
  <course>150.74</course>
  <speed>26.078460460694377</speed>
  <fix>3d</fix>
</trkpt>
<trkpt lat="-27.2727845" lon="151.285231">
  <ele>377.28</ele>
  <time>2026-09-01T20:01:17Z</time>
  <course>156.43</course>
  <speed>26.23</speed>
  <fix>3d</fix>
</trkpt>
<trkpt lat="-27.2728649" lon="151.2852815">
  <ele>377.51</ele>
  <time>2026-09-01T20:01:17Z</time>
  <course>148.17</course>
  <speed>26.038932389788947</speed>
  <fix>3d</fix>
</trkpt>
<trkpt lat="-27.2728266" lon="151.2852544">
  <ele>377.42</ele>
  <time>2026-09-01T20:01:17Z</time>
  <course>150.94</course>
  <speed>26.15</speed>
  <fix>3d</fix>
</trkpt>
<trkpt lat="-27.2728839" lon="151.2852967">
  <ele>377.57</ele>
  <time>2026-09-01T20:01:17Z</time>
  <course>145.73</course>
  <speed>25.984027786315192</speed>
  <fix>3d</fix>
</trkpt>
<trkpt lat="-27.2728266" lon="151.2852544">
  <ele>377.42</ele>
  <time>2026-09-01T20:01:17Z</time>
  <course>150.94</course>
  <speed>26.15</speed>
  <fix>3d</fix>
</trkpt>
<trkpt lat="-27.2729023" lon="151.2853128">
  <ele>377.62</ele>
  <time>2026-09-01T20:01:17Z</time>
  <course>143.42</course>
  <speed>25.927595337786343</speed>
  <fix>3d</fix>
</trkpt>
<trkpt lat="-27.2728665" lon="151.2852821">
  <ele>377.54</ele>
  <time>2026-09-01T20:01:17Z</time>
  <course>145.73</course>
  <speed>26.07</speed>
  <fix>3d</fix>
</trkpt>
<trkpt lat="-27.27292" lon="151.2853297">
  <ele>377.66</ele>
  <time>2026-09-01T20:01:17Z</time>
  <course>141.1</course>
  <speed>25.876987846347188</speed>
  <fix>3d</fix>
</trkpt>
<trkpt lat="-27.2728665" lon="151.2852821">
  <ele>377.54</ele>
  <time>2026-09-01T20:01:17Z</time>
  <course>145.73</course>
  <speed>26.07</speed>
  <fix>3d</fix>
</trkpt>
<trkpt lat="-27.2729371" lon="151.2853473">
  <ele>377.69</ele>
  <time>2026-09-01T20:01:17Z</time>
  <course>138.86</course>
  <speed>25.814418451710274</speed>
  <fix>3d</fix>
</trkpt>
<trkpt lat="-27.2729039" lon="151.2853136">
  <ele>377.64</ele>
  <time>2026-09-01T20:01:17Z</time>
  <course>140.79</course>
  <speed>25.97</speed>
  <fix>3d</fix>
</trkpt>
<trkpt lat="-27.2729535" lon="151.2853656">
  <ele>377.71</ele>
  <time>2026-09-01T20:01:17Z</time>
  <course>136.68</course>
  <speed>25.757585290550818</speed>
  <fix>3d</fix>
</trkpt>
<trkpt lat="-27.2729039" lon="151.2853136">
  <ele>377.64</ele>
  <time>2026-09-01T20:01:17Z</time>
  <course>140.79</course>
  <speed>25.97</speed>
  <fix>3d</fix>
</trkpt>
<trkpt lat="-27.2729692" lon="151.2853846">
  <ele>377.71</ele>
  <time>2026-09-01T20:01:17Z</time>
  <course>134.59</course>
  <speed>25.6951551853652</speed>
  <fix>3d</fix>
</trkpt>
<trkpt lat="-27.2729388" lon="151.2853483">
  <ele>377.7</ele>
  <time>2026-09-01T20:01:17Z</time>
  <course>136.12</course>
  <speed>25.86</speed>
  <fix>3d</fix>
</trkpt>
<trkpt lat="-27.2729839" lon="151.2854037">
  <ele>377.7</ele>
  <time>2026-09-01T20:01:17Z</time>
  <course>132.56</course>
  <speed>25.634277832620914</speed>
  <fix>3d</fix>
</trkpt>
<trkpt lat="-27.2729388" lon="151.2853483">
  <ele>377.7</ele>
  <time>2026-09-01T20:01:17Z</time>
  <course>136.12</course>
  <speed>25.86</speed>
  <fix>3d</fix>
</trkpt>
<trkpt lat="-27.2729982" lon="151.2854237">
  <ele>377.68</ele>
  <time>2026-09-01T20:01:17Z</time>
  <course>130.51</course>
  <speed>25.572534094219133</speed>
  <fix>3d</fix>
</trkpt>
<trkpt lat="-27.2729709" lon="151.2853859">
  <ele>377.71</ele>
  <time>2026-09-01T20:01:17Z</time>
  <course>131.73</course>
  <speed>25.74</speed>
  <fix>3d</fix>
</trkpt>
<trkpt lat="-27.273012" lon="151.2854443">
  <ele>377.65</ele>
  <time>2026-09-01T20:01:17Z</time>
  <course>128.49</course>
  <speed>25.51405886957228</speed>
  <fix>3d</fix>
</trkpt>
<trkpt lat="-27.2729709" lon="151.2853859">
  <ele>377.71</ele>
  <time>2026-09-01T20:01:17Z</time>
  <course>131.73</course>
  <speed>25.74</speed>
  <fix>3d</fix>
</trkpt>
<trkpt lat="-27.273025" lon="151.2854655">
  <ele>377.59</ele>
  <time>2026-09-01T20:01:17Z</time>
  <course>126.47</course>
  <speed>25.455217539828645</speed>
  <fix>3d</fix>
</trkpt>
<trkpt lat="-27.2730003" lon="151.2854259">
  <ele>377.67</ele>
  <time>2026-09-01T20:01:17Z</time>
  <course>127.55</course>
  <speed>25.62</speed>
  <fix>3d</fix>
</trkpt>
<trkpt lat="-27.2730374" lon="151.2854871">
  <ele>377.53</ele>
  <time>2026-09-01T20:01:17Z</time>
  <course>124.45</course>
  <speed>25.405623393256857</speed>
  <fix>3d</fix>
</trkpt>
<trkpt lat="-27.2730003" lon="151.2854259">
  <ele>377.67</ele>
  <time>2026-09-01T20:01:17Z</time>
  <course>127.55</course>
  <speed>25.62</speed>
  <fix>3d</fix>
</trkpt>
<trkpt lat="-27.2730492" lon="151.2855094">
  <ele>377.44</ele>
  <time>2026-09-01T20:01:17Z</time>
  <course>122.47</course>
  <speed>25.347820419120854</speed>
  <fix>3d</fix>
</trkpt>
<trkpt lat="-27.2730271" lon="151.285468">
  <ele>377.58</ele>
  <time>2026-09-01T20:01:17Z</time>
  <course>123.48</course>
  <speed>25.5</speed>
  <fix>3d</fix>
</trkpt>
<trkpt lat="-27.2730601" lon="151.2855319">
  <ele>377.35</ele>
  <time>2026-09-01T20:01:17Z</time>
  <course>120.57</course>
  <speed>25.298926854710658</speed>
  <fix>3d</fix>
</trkpt>
<trkpt lat="-27.2730271" lon="151.285468">
  <ele>377.58</ele>
  <time>2026-09-01T20:01:17Z</time>
  <course>123.48</course>
  <speed>25.5</speed>
  <fix>3d</fix>
</trkpt>
<trkpt lat="-27.2730704" lon="151.2855547">
  <ele>377.24</ele>
  <time>2026-09-01T20:01:17Z</time>
  <course>118.74</course>
  <speed>25.261417220734074</speed>
  <fix>3d</fix>
</trkpt>
<trkpt lat="-27.273051" lon="151.2855119">
  <ele>377.43</ele>
  <time>2026-09-01T20:01:17Z</time>
  <course>119.5</course>
  <speed>25.39</speed>
  <fix>3d</fix>
</trkpt>
<trkpt lat="-27.2730803" lon="151.2855787">
  <ele>377.12</ele>
  <time>2026-09-01T20:01:17Z</time>
  <course>116.81</course>
  <speed>25.21217563004034</speed>
  <fix>3d</fix>
</trkpt>
<trkpt lat="-27.273051" lon="151.2855119">
  <ele>377.43</ele>
  <time>2026-09-01T20:01:17Z</time>
  <course>119.5</course>
  <speed>25.39</speed>
  <fix>3d</fix>
</trkpt>
<trkpt lat="-27.2730891" lon="151.2856021">
  <ele>376.98</ele>
  <time>2026-09-01T20:01:17Z</time>
  <course>114.93</course>
  <speed>25.178540466039728</speed>
  <fix>3d</fix>
</trkpt>
<trkpt lat="-27.273072" lon="151.2855573">
  <ele>377.24</ele>
  <time>2026-09-01T20:01:17Z</time>
  <course>115.63</course>
  <speed>25.29</speed>
  <fix>3d</fix>
</trkpt>
<trkpt lat="-27.2730973" lon="151.2856259">
  <ele>376.84</ele>
  <time>2026-09-01T20:01:17Z</time>
  <course>113.09</course>
  <speed>25.144673392191834</speed>
  <fix>3d</fix>
</trkpt>
<trkpt lat="-27.273072" lon="151.2855573">
  <ele>377.24</ele>
  <time>2026-09-01T20:01:17Z</time>
  <course>115.63</course>
  <speed>25.29</speed>
  <fix>3d</fix>
</trkpt>
<trkpt lat="-27.2731048" lon="151.2856499">
  <ele>376.69</ele>
  <time>2026-09-01T20:01:17Z</time>
  <course>111.31</course>
  <speed>25.11170444235118</speed>
  <fix>3d</fix>
</trkpt>
<trkpt lat="-27.2730903" lon="151.285604">
  <ele>376.99</ele>
  <time>2026-09-01T20:01:17Z</time>
  <course>111.9</course>
  <speed>25.2</speed>
  <fix>3d</fix>
</trkpt>
<trkpt lat="-27.2731116" lon="151.2856742">
  <ele>376.53</ele>
  <time>2026-09-01T20:01:17Z</time>
  <course>109.56</course>
  <speed>25.08075158363481</speed>
  <fix>3d</fix>
</trkpt>
<trkpt lat="-27.2730903" lon="151.285604">
  <ele>376.99</ele>
  <time>2026-09-01T20:01:17Z</time>
  <course>111.9</course>
  <speed>25.2</speed>
  <fix>3d</fix>
</trkpt>
<trkpt lat="-27.2731178" lon="151.2856986">
  <ele>376.36</ele>
  <time>2026-09-01T20:01:17Z</time>
  <course>107.85</course>
  <speed>25.056432307892518</speed>
  <fix>3d</fix>
</trkpt>
<trkpt lat="-27.2731057" lon="151.2856517">
  <ele>376.7</ele>
  <time>2026-09-01T20:01:17Z</time>
  <course>108.28</course>
  <speed>25.13</speed>
  <fix>3d</fix>
</trkpt>
<trkpt lat="-27.2731233" lon="151.2857234">
  <ele>376.18</ele>
  <time>2026-09-01T20:01:17Z</time>
  <course>106.15</course>
  <speed>25.035185239977753</speed>
  <fix>3d</fix>
</trkpt>
<trkpt lat="-27.2731057" lon="151.2856517">
  <ele>376.7</ele>
  <time>2026-09-01T20:01:17Z</time>
  <course>108.28</course>
  <speed>25.13</speed>
  <fix>3d</fix>
</trkpt>
<trkpt lat="-27.2731282" lon="151.2857482">
  <ele>376.0</ele>
  <time>2026-09-01T20:01:17Z</time>
  <course>104.51</course>
  <speed>25.0128007228299</speed>
  <fix>3d</fix>
</trkpt>
<trkpt lat="-27.2731186" lon="151.2857004">
  <ele>376.38</ele>
  <time>2026-09-01T20:01:17Z</time>
  <course>104.8</course>
  <speed>25.07</speed>
  <fix>3d</fix>
</trkpt>
<trkpt lat="-27.2731324" lon="151.2857731">
  <ele>375.81</ele>
  <time>2026-09-01T20:01:17Z</time>
  <course>102.94</course>
  <speed>25.002537871184195</speed>
  <fix>3d</fix>
</trkpt>
<trkpt lat="-27.2731186" lon="151.2857004">
  <ele>376.38</ele>
  <time>2026-09-01T20:01:17Z</time>
  <course>104.8</course>
  <speed>25.07</speed>
  <fix>3d</fix>
</trkpt>
<trkpt lat="-27.273136" lon="151.2857981">
  <ele>375.61</ele>
  <time>2026-09-01T20:01:17Z</time>
  <course>101.42</course>
  <speed>24.98655638538452</speed>
  <fix>3d</fix>
</trkpt>
<trkpt lat="-27.2731288" lon="151.2857497">
  <ele>376.03</ele>
  <time>2026-09-01T20:01:17Z</time>
  <course>101.48</course>
  <speed>25.02</speed>
  <fix>3d</fix>
</trkpt>
<trkpt lat="-27.273139" lon="151.2858231">
  <ele>375.41</ele>
  <time>2026-09-01T20:01:17Z</time>
  <course>99.95</course>
  <speed>24.97086502306238</speed>
  <fix>3d</fix>
</trkpt>
<trkpt lat="-27.2731288" lon="151.2857497">
  <ele>376.03</ele>
  <time>2026-09-01T20:01:17Z</time>
  <course>101.48</course>
  <speed>25.02</speed>
  <fix>3d</fix>
</trkpt>
<trkpt lat="-27.2731415" lon="151.2858483">
  <ele>375.21</ele>
  <time>2026-09-01T20:01:17Z</time>
  <course>98.53</course>
  <speed>24.96371166313215</speed>
  <fix>3d</fix>
</trkpt>
<trkpt lat="-27.2731365" lon="151.2857995">
  <ele>375.66</ele>
  <time>2026-09-01T20:01:17Z</time>
  <course>98.36</course>
  <speed>24.98</speed>
  <fix>3d</fix>
</trkpt>
<trkpt lat="-27.2731434" lon="151.2858734">
  <ele>375.01</ele>
  <time>2026-09-01T20:01:17Z</time>
  <course>97.11</course>
  <speed>24.953566879306052</speed>
  <fix>3d</fix>
</trkpt>
<trkpt lat="-27.2731365" lon="151.2857995">
  <ele>375.66</ele>
  <time>2026-09-01T20:01:17Z</time>
  <course>98.36</course>
  <speed>24.98</speed>
  <fix>3d</fix>
</trkpt>
<trkpt lat="-27.2731448" lon="151.2858987">
  <ele>374.8</ele>
  <time>2026-09-01T20:01:17Z</time>
  <course>95.78</course>
  <speed>24.95934694658496</speed>
  <fix>3d</fix>
</trkpt>
<trkpt lat="-27.2731419" lon="151.2858496">
  <ele>375.27</ele>
  <time>2026-09-01T20:01:17Z</time>
  <course>95.46</course>
  <speed>24.96</speed>
  <fix>3d</fix>
</trkpt>
<trkpt lat="-27.2731456" lon="151.2859239">
  <ele>374.6</ele>
  <time>2026-09-01T20:01:17Z</time>
  <course>94.56</course>
  <speed>24.959264812890623</speed>
  <fix>3d</fix>
</trkpt>
<trkpt lat="-27.2731419" lon="151.2858496">
  <ele>375.27</ele>
  <time>2026-09-01T20:01:17Z</time>
  <course>95.46</course>
  <speed>24.96</speed>
  <fix>3d</fix>
</trkpt>
<trkpt lat="-27.273146" lon="151.2859492">
  <ele>374.39</ele>
  <time>2026-09-01T20:01:17Z</time>
  <course>93.39</course>
  <speed>24.950649290148746</speed>
  <fix>3d</fix>
</trkpt>
<trkpt lat="-27.2731451" lon="151.2858999">
  <ele>374.88</ele>
  <time>2026-09-01T20:01:17Z</time>
  <course>92.8</course>
  <speed>24.95</speed>
  <fix>3d</fix>
</trkpt>
<trkpt lat="-27.273146" lon="151.2859744">
  <ele>374.19</ele>
  <time>2026-09-01T20:01:17Z</time>
  <course>92.31</course>
  <speed>24.951354672642523</speed>
  <fix>3d</fix>
</trkpt>
<trkpt lat="-27.2731451" lon="151.2858999">
  <ele>374.88</ele>
  <time>2026-09-01T20:01:17Z</time>
  <course>92.8</course>
  <speed>24.95</speed>
  <fix>3d</fix>
</trkpt>
<trkpt lat="-27.2731456" lon="151.2859996">
  <ele>373.98</ele>
  <time>2026-09-01T20:01:17Z</time>
  <course>91.27</course>
  <speed>24.959817707667657</speed>
  <fix>3d</fix>
</trkpt>
<trkpt lat="-27.2731464" lon="151.2859503">
  <ele>374.48</ele>
  <time>2026-09-01T20:01:17Z</time>
  <course>90.44</course>
  <speed>24.95</speed>
  <fix>3d</fix>
</trkpt>
<trkpt lat="-27.2731448" lon="151.2860249">
  <ele>373.78</ele>
  <time>2026-09-01T20:01:17Z</time>
  <course>90.25</course>
  <speed>24.964246433649866</speed>
  <fix>3d</fix>
</trkpt>
<trkpt lat="-27.2731464" lon="151.2859503">
  <ele>374.48</ele>
  <time>2026-09-01T20:01:17Z</time>
  <course>90.44</course>
  <speed>24.95</speed>
  <fix>3d</fix>
</trkpt>
<trkpt lat="-27.2731437" lon="151.2860501">
  <ele>373.58</ele>
  <time>2026-09-01T20:01:17Z</time>
  <course>89.33</course>
  <speed>24.972132468013218</speed>
  <fix>3d</fix>
</trkpt>
<trkpt lat="-27.2731459" lon="151.2860008">
  <ele>374.09</ele>
  <time>2026-09-01T20:01:17Z</time>
  <course>88.39</course>
  <speed>24.95</speed>
  <fix>3d</fix>
</trkpt>
<trkpt lat="-27.2731423" lon="151.2860747">
  <ele>373.39</ele>
  <time>2026-09-01T20:01:17Z</time>
  <course>88.49</course>
  <speed>24.972098430047886</speed>
  <fix>3d</fix>
</trkpt>
<trkpt lat="-27.2731459" lon="151.2860008">
  <ele>374.09</ele>
  <time>2026-09-01T20:01:17Z</time>
  <course>88.39</course>
  <speed>24.95</speed>
  <fix>3d</fix>
</trkpt>
<trkpt lat="-27.2731406" lon="151.2861007">
  <ele>373.18</ele>
  <time>2026-09-01T20:01:17Z</time>
  <course>87.68</course>
  <speed>24.985894020426805</speed>
  <fix>3d</fix>
</trkpt>
<trkpt lat="-27.273144" lon="151.2860513">
  <ele>373.69</ele>
  <time>2026-09-01T20:01:17Z</time>
  <course>86.66</course>
  <speed>24.97</speed>
  <fix>3d</fix>
</trkpt>
<trkpt lat="-27.2731387" lon="151.2861257">
  <ele>372.99</ele>
  <time>2026-09-01T20:01:17Z</time>
  <course>86.98</course>
  <speed>24.998819972150685</speed>
  <fix>3d</fix>
</trkpt>
<trkpt lat="-27.273144" lon="151.2860513">
  <ele>373.69</ele>
  <time>2026-09-01T20:01:17Z</time>
  <course>86.66</course>
  <speed>24.97</speed>
  <fix>3d</fix>
</trkpt>
<trkpt lat="-27.2731366" lon="151.2861508">
  <ele>372.81</ele>
  <time>2026-09-01T20:01:17Z</time>
  <course>86.36</course>
  <speed>25.020283771372377</speed>
  <fix>3d</fix>
</trkpt>
<trkpt lat="-27.2731409" lon="151.2861016">
  <ele>373.31</ele>
  <time>2026-09-01T20:01:17Z</time>
  <course>85.25</course>
  <speed>24.99</speed>
  <fix>3d</fix>
</trkpt>
<trkpt lat="-27.2731342" lon="151.286176">
  <ele>372.63</ele>
  <time>2026-09-01T20:01:17Z</time>
  <course>85.84</course>
  <speed>25.040361419116937</speed>
  <fix>3d</fix>
</trkpt>
<trkpt lat="-27.2731409" lon="151.2861016">
  <ele>373.31</ele>
  <time>2026-09-01T20:01:17Z</time>
  <course>85.25</course>
  <speed>24.99</speed>
  <fix>3d</fix>
</trkpt>
<trkpt lat="-27.2731317" lon="151.2862011">
  <ele>372.46</ele>
  <time>2026-09-01T20:01:17Z</time>
  <course>85.34</course>
  <speed>25.05721852081751</speed>
  <fix>3d</fix>
</trkpt>
<trkpt lat="-27.2731367" lon="151.2861519">
  <ele>372.94</ele>
  <time>2026-09-01T20:01:17Z</time>
  <course>84.15</course>
  <speed>25.02</speed>
  <fix>3d</fix>
</trkpt>
<trkpt lat="-27.273129" lon="151.2862265">
  <ele>372.29</ele>
  <time>2026-09-01T20:01:17Z</time>
  <course>84.85</course>
  <speed>25.07134220579345</speed>
  <fix>3d</fix>
</trkpt>
<trkpt lat="-27.2731367" lon="151.2861519">
  <ele>372.94</ele>
  <time>2026-09-01T20:01:17Z</time>
  <course>84.15</course>
  <speed>25.02</speed>
  <fix>3d</fix>
</trkpt>
<trkpt lat="-27.2731263" lon="151.2862516">
  <ele>372.14</ele>
  <time>2026-09-01T20:01:17Z</time>
  <course>84.43</course>
  <speed>25.08230651275915</speed>
  <fix>3d</fix>
</trkpt>
<trkpt lat="-27.2731318" lon="151.2862022">
  <ele>372.6</ele>
  <time>2026-09-01T20:01:17Z</time>
  <course>83.38</course>
  <speed>25.06</speed>
  <fix>3d</fix>
</trkpt>
<trkpt lat="-27.2731235" lon="151.2862768">
  <ele>371.99</ele>
  <time>2026-09-01T20:01:17Z</time>
  <course>84.19</course>
  <speed>25.10963360943365</speed>
  <fix>3d</fix>
</trkpt>
<trkpt lat="-27.2731318" lon="151.2862022">
  <ele>372.6</ele>
  <time>2026-09-01T20:01:17Z</time>
  <course>83.38</course>
  <speed>25.06</speed>
  <fix>3d</fix>
</trkpt>
<trkpt lat="-27.2731207" lon="151.286302">
  <ele>371.85</ele>
  <time>2026-09-01T20:01:17Z</time>
  <course>84.02</course>
  <speed>25.123345716683517</speed>
  <fix>3d</fix>
</trkpt>
<trkpt lat="-27.2731264" lon="151.2862526">
  <ele>372.29</ele>
  <time>2026-09-01T20:01:17Z</time>
  <course>82.91</course>
  <speed>25.11</speed>
  <fix>3d</fix>
</trkpt>
<trkpt lat="-27.2731179" lon="151.2863272">
  <ele>371.72</ele>
  <time>2026-09-01T20:01:17Z</time>
  <course>83.88</course>
  <speed>25.1431839670317</speed>
  <fix>3d</fix>
</trkpt>
<trkpt lat="-27.2731264" lon="151.2862526">
  <ele>372.29</ele>
  <time>2026-09-01T20:01:17Z</time>
  <course>82.91</course>
  <speed>25.11</speed>
  <fix>3d</fix>
</trkpt>
<trkpt lat="-27.273115" lon="151.2863524">
  <ele>371.6</ele>
  <time>2026-09-01T20:01:17Z</time>
  <course>83.73</course>
  <speed>25.15923687236956</speed>
  <fix>3d</fix>
</trkpt>
<trkpt lat="-27.2731207" lon="151.2863029">
  <ele>372.0</ele>
  <time>2026-09-01T20:01:17Z</time>
  <course>82.71</course>
  <speed>25.15</speed>
  <fix>3d</fix>
</trkpt>
<trkpt lat="-27.2731122" lon="151.2863776">
  <ele>371.48</ele>
  <time>2026-09-01T20:01:17Z</time>
  <course>83.68</course>
  <speed>25.172852440675054</speed>
  <fix>3d</fix>
</trkpt>
<trkpt lat="-27.2731207" lon="151.2863029">
  <ele>372.0</ele>
  <time>2026-09-01T20:01:17Z</time>
  <course>82.71</course>
  <speed>25.15</speed>
  <fix>3d</fix>
</trkpt>
<trkpt lat="-27.2731094" lon="151.2864029">
  <ele>371.39</ele>
  <time>2026-09-01T20:01:17Z</time>
  <course>83.75</course>
  <speed>25.1940806539949</speed>
  <fix>3d</fix>
</trkpt>
<trkpt lat="-27.273115" lon="151.2863534">
  <ele>371.75</ele>
  <time>2026-09-01T20:01:17Z</time>
  <course>82.78</course>
  <speed>25.19</speed>
  <fix>3d</fix>
</trkpt>
<trkpt lat="-27.2731068" lon="151.2864282">
  <ele>371.3</ele>
  <time>2026-09-01T20:01:17Z</time>
  <course>83.9</course>
  <speed>25.202073327407014</speed>
  <fix>3d</fix>
</trkpt>
<trkpt lat="-27.273115" lon="151.2863534">
  <ele>371.75</ele>
  <time>2026-09-01T20:01:17Z</time>
  <course>82.78</course>
  <speed>25.19</speed>
  <fix>3d</fix>
</trkpt>
<trkpt lat="-27.2731042" lon="151.2864536">
  <ele>371.21</ele>
  <time>2026-09-01T20:01:17Z</time>
  <course>84.09</course>
  <speed>25.21928825323982</speed>
  <fix>3d</fix>
</trkpt>
<trkpt lat="-27.2731094" lon="151.286404">
  <ele>371.54</ele>
  <time>2026-09-01T20:01:17Z</time>
  <course>83.07</course>
  <speed>25.24</speed>
  <fix>3d</fix>
</trkpt>
<trkpt lat="-27.2731017" lon="151.2864789">
  <ele>371.14</ele>
  <time>2026-09-01T20:01:17Z</time>
  <course>84.3</course>
  <speed>25.232726765056526</speed>
  <fix>3d</fix>
</trkpt>
<trkpt lat="-27.2731094" lon="151.286404">
  <ele>371.54</ele>
  <time>2026-09-01T20:01:17Z</time>
  <course>83.07</course>
  <speed>25.24</speed>
  <fix>3d</fix>
</trkpt>
<trkpt lat="-27.2730994" lon="151.2865043">
  <ele>371.08</ele>
  <time>2026-09-01T20:01:17Z</time>
  <course>84.54</course>
  <speed>25.245088631256575</speed>
  <fix>3d</fix>
</trkpt>
<trkpt lat="-27.2731041" lon="151.2864546">
  <ele>371.37</ele>
  <time>2026-09-01T20:01:17Z</time>
  <course>83.58</course>
  <speed>25.28</speed>
  <fix>3d</fix>
</trkpt>
<trkpt lat="-27.2730972" lon="151.2865298">
  <ele>371.03</ele>
  <time>2026-09-01T20:01:17Z</time>
  <course>84.91</course>
  <speed>25.247742473338086</speed>
  <fix>3d</fix>
</trkpt>
<trkpt lat="-27.2731041" lon="151.2864546">
  <ele>371.37</ele>
  <time>2026-09-01T20:01:17Z</time>
  <course>83.58</course>
  <speed>25.28</speed>
  <fix>3d</fix>
</trkpt>
<trkpt lat="-27.2730952" lon="151.2865552">
  <ele>370.99</ele>
  <time>2026-09-01T20:01:17Z</time>
  <course>85.25</course>
  <speed>25.25084553039759</speed>
  <fix>3d</fix>
</trkpt>
<trkpt lat="-27.2730993" lon="151.2865056">
  <ele>371.24</ele>
  <time>2026-09-01T20:01:17Z</time>
  <course>84.29</course>
  <speed>25.31</speed>
  <fix>3d</fix>
</trkpt>
<trkpt lat="-27.2730934" lon="151.2865807">
  <ele>370.96</ele>
  <time>2026-09-01T20:01:17Z</time>
  <course>85.64</course>
  <speed>25.26459380239469</speed>
  <fix>3d</fix>
</trkpt>
<trkpt lat="-27.2730993" lon="151.2865056">
  <ele>371.24</ele>
  <time>2026-09-01T20:01:17Z</time>
  <course>84.29</course>
  <speed>25.31</speed>
  <fix>3d</fix>
</trkpt>
<trkpt lat="-27.2730917" lon="151.2866062">
  <ele>370.93</ele>
  <time>2026-09-01T20:01:17Z</time>
  <course>86.03</course>
  <speed>25.268607005531585</speed>
  <fix>3d</fix>
</trkpt>
<trkpt lat="-27.2730951" lon="151.2865567">
  <ele>371.15</ele>
  <time>2026-09-01T20:01:17Z</time>
  <course>85.15</course>
  <speed>25.33</speed>
  <fix>3d</fix>
</trkpt>
<trkpt lat="-27.2730903" lon="151.2866318">
  <ele>370.91</ele>
  <time>2026-09-01T20:01:17Z</time>
  <course>86.42</course>
  <speed>25.273958930092455</speed>
  <fix>3d</fix>
</trkpt>
<trkpt lat="-27.2730951" lon="151.2865567">
  <ele>371.15</ele>
  <time>2026-09-01T20:01:17Z</time>
  <course>85.15</course>
  <speed>25.33</speed>
  <fix>3d</fix>
</trkpt>
<trkpt lat="-27.2730891" lon="151.2866573">
  <ele>370.9</ele>
  <time>2026-09-01T20:01:17Z</time>
  <course>86.9</course>
  <speed>25.2814180773152</speed>
  <fix>3d</fix>
</trkpt>
<trkpt lat="-27.2730916" lon="151.2866077">
  <ele>371.09</ele>
  <time>2026-09-01T20:01:17Z</time>
  <course>86.11</course>
  <speed>25.35</speed>
  <fix>3d</fix>
</trkpt>
<trkpt lat="-27.273088" lon="151.2866829">
  <ele>370.89</ele>
  <time>2026-09-01T20:01:17Z</time>
  <course>87.47</course>
  <speed>25.280585436259184</speed>
  <fix>3d</fix>
</trkpt>
<trkpt lat="-27.2730916" lon="151.2866077">
  <ele>371.09</ele>
  <time>2026-09-01T20:01:17Z</time>
  <course>86.11</course>
  <speed>25.35</speed>
  <fix>3d</fix>
</trkpt>
<trkpt lat="-27.2730872" lon="151.2867085">
  <ele>370.89</ele>
  <time>2026-09-01T20:01:17Z</time>
  <course>87.91</course>
  <speed>25.29172394282367</speed>
  <fix>3d</fix>
</trkpt>
<trkpt lat="-27.273089" lon="151.2866589">
  <ele>371.07</ele>
  <time>2026-09-01T20:01:17Z</time>
  <course>87.15</course>
  <speed>25.37</speed>
  <fix>3d</fix>
</trkpt>
<trkpt lat="-27.2730866" lon="151.2867341">
  <ele>370.9</ele>
  <time>2026-09-01T20:01:17Z</time>
  <course>88.33</course>
  <speed>25.285555164955344</speed>
  <fix>3d</fix>
</trkpt>
<trkpt lat="-27.273089" lon="151.2866589">
  <ele>371.07</ele>
  <time>2026-09-01T20:01:17Z</time>
  <course>87.15</course>
  <speed>25.37</speed>
  <fix>3d</fix>
</trkpt>
<trkpt lat="-27.2730863" lon="151.2867596">
  <ele>370.91</ele>
  <time>2026-09-01T20:01:17Z</time>
  <course>88.89</course>
  <speed>25.281550585357696</speed>
  <fix>3d</fix>
</trkpt>
<trkpt lat="-27.2730872" lon="151.2867102">
  <ele>371.06</ele>
  <time>2026-09-01T20:01:17Z</time>
  <course>88.25</course>
  <speed>25.39</speed>
  <fix>3d</fix>
</trkpt>
<trkpt lat="-27.2730861" lon="151.2867856">
  <ele>370.93</ele>
  <time>2026-09-01T20:01:17Z</time>
  <course>89.39</course>
  <speed>25.28001780062664</speed>
  <fix>3d</fix>
</trkpt>
<trkpt lat="-27.2730872" lon="151.2867102">
  <ele>371.06</ele>
  <time>2026-09-01T20:01:17Z</time>
  <course>88.25</course>
  <speed>25.39</speed>
  <fix>3d</fix>
</trkpt>
<trkpt lat="-27.2730862" lon="151.2868113">
  <ele>370.95</ele>
  <time>2026-09-01T20:01:17Z</time>
  <course>89.91</course>
  <speed>25.28079112686152</speed>
  <fix>3d</fix>
</trkpt>
<trkpt lat="-27.2730862" lon="151.2867615">
  <ele>371.08</ele>
  <time>2026-09-01T20:01:17Z</time>
  <course>89.38</course>
  <speed>25.39</speed>
  <fix>3d</fix>
</trkpt>
<trkpt lat="-27.2730865" lon="151.2868369">
  <ele>370.97</ele>
  <time>2026-09-01T20:01:17Z</time>
  <course>90.51</course>
  <speed>25.28400482518543</speed>
  <fix>3d</fix>
</trkpt>
<trkpt lat="-27.2730862" lon="151.2867615">
  <ele>371.08</ele>
  <time>2026-09-01T20:01:17Z</time>
  <course>89.38</course>
  <speed>25.39</speed>
  <fix>3d</fix>
</trkpt>
<trkpt lat="-27.2730871" lon="151.2868626">
  <ele>370.99</ele>
  <time>2026-09-01T20:01:17Z</time>
  <course>91.09</course>
  <speed>25.27969343168544</speed>
  <fix>3d</fix>
</trkpt>
<trkpt lat="-27.2730862" lon="151.2868128">
  <ele>371.11</ele>
  <time>2026-09-01T20:01:17Z</time>
  <course>90.49</course>
  <speed>25.4</speed>
  <fix>3d</fix>
</trkpt>
<trkpt lat="-27.2730877" lon="151.2868882">
  <ele>371.02</ele>
  <time>2026-09-01T20:01:17Z</time>
  <course>91.63</course>
  <speed>25.27785789975092</speed>
  <fix>3d</fix>
</trkpt>
<trkpt lat="-27.2730862" lon="151.2868128">
  <ele>371.11</ele>
  <time>2026-09-01T20:01:17Z</time>
  <course>90.49</course>
  <speed>25.4</speed>
  <fix>3d</fix>
</trkpt>
<trkpt lat="-27.2730887" lon="151.2869139">
  <ele>371.05</ele>
  <time>2026-09-01T20:01:17Z</time>
  <course>92.15</course>
  <speed>25.278498768716467</speed>
  <fix>3d</fix>
</trkpt>
<trkpt lat="-27.273087" lon="151.2868641">
  <ele>371.15</ele>
  <time>2026-09-01T20:01:17Z</time>
  <course>91.61</course>
  <speed>25.4</speed>
  <fix>3d</fix>
</trkpt>
<trkpt lat="-27.2730899" lon="151.2869395">
  <ele>371.08</ele>
  <time>2026-09-01T20:01:17Z</time>
  <course>92.67</course>
  <speed>25.271060523848224</speed>
  <fix>3d</fix>
</trkpt>
<trkpt lat="-27.273087" lon="151.2868641">
  <ele>371.15</ele>
  <time>2026-09-01T20:01:17Z</time>
  <course>91.61</course>
  <speed>25.4</speed>
  <fix>3d</fix>
</trkpt>
<trkpt lat="-27.2730913" lon="151.2869652">
  <ele>371.11</ele>
  <time>2026-09-01T20:01:17Z</time>
  <course>93.21</course>
  <speed>25.275893653835464</speed>
  <fix>3d</fix>
</trkpt>
<trkpt lat="-27.2730887" lon="151.2869154">
  <ele>371.2</ele>
  <time>2026-09-01T20:01:17Z</time>
  <course>92.74</course>
  <speed>25.39</speed>
  <fix>3d</fix>
</trkpt>
<trkpt lat="-27.2730929" lon="151.2869908">
  <ele>371.14</ele>
  <time>2026-09-01T20:01:17Z</time>
  <course>93.74</course>
  <speed>25.282250690949173</speed>
  <fix>3d</fix>
</trkpt>
<trkpt lat="-27.2730887" lon="151.2869154">
  <ele>371.2</ele>
  <time>2026-09-01T20:01:17Z</time>
  <course>92.74</course>
  <speed>25.39</speed>
  <fix>3d</fix>
</trkpt>
<trkpt lat="-27.2730948" lon="151.2870164">
  <ele>371.17</ele>
  <time>2026-09-01T20:01:17Z</time>
  <course>94.22</course>
  <speed>25.280737726577524</speed>
  <fix>3d</fix>
</trkpt>
<trkpt lat="-27.2730913" lon="151.2869667">
  <ele>371.26</ele>
  <time>2026-09-01T20:01:17Z</time>
  <course>93.83</course>
  <speed>25.39</speed>
  <fix>3d</fix>
</trkpt>
<trkpt lat="-27.2730968" lon="151.287042">
  <ele>371.21</ele>
  <time>2026-09-01T20:01:17Z</time>
  <course>94.7</course>
  <speed>25.271377089505826</speed>
  <fix>3d</fix>
</trkpt>
<trkpt lat="-27.2730913" lon="151.2869667">
  <ele>371.26</ele>
  <time>2026-09-01T20:01:17Z</time>
  <course>93.83</course>
  <speed>25.39</speed>
  <fix>3d</fix>
</trkpt>
<trkpt lat="-27.273099" lon="151.2870676">
  <ele>371.24</ele>
  <time>2026-09-01T20:01:17Z</time>
  <course>95.27</course>
  <speed>25.27306273485665</speed>
  <fix>3d</fix>
</trkpt>
<trkpt lat="-27.2730947" lon="151.2870178">
  <ele>371.32</ele>
  <time>2026-09-01T20:01:17Z</time>
  <course>94.89</course>
  <speed>25.39</speed>
  <fix>3d</fix>
</trkpt>
<trkpt lat="-27.2731015" lon="151.2870931">
  <ele>371.28</ele>
  <time>2026-09-01T20:01:17Z</time>
  <course>95.78</course>
  <speed>25.266740984939073</speed>
  <fix>3d</fix>
</trkpt>
<trkpt lat="-27.2730947" lon="151.2870178">
  <ele>371.32</ele>
  <time>2026-09-01T20:01:17Z</time>
  <course>94.89</course>
  <speed>25.39</speed>
  <fix>3d</fix>
</trkpt>
<trkpt lat="-27.2731041" lon="151.2871186">
  <ele>371.31</ele>
  <time>2026-09-01T20:01:17Z</time>
  <course>96.3</course>
  <speed>25.272297085939773</speed>
  <fix>3d</fix>
</trkpt>
<trkpt lat="-27.273099" lon="151.2870689">
  <ele>371.39</ele>
  <time>2026-09-01T20:01:17Z</time>
  <course>95.91</course>
  <speed>25.38</speed>
  <fix>3d</fix>
</trkpt>
<trkpt lat="-27.2731069" lon="151.287144">
  <ele>371.34</ele>
  <time>2026-09-01T20:01:17Z</time>
  <course>96.87</course>
  <speed>25.26986545274826</speed>
  <fix>3d</fix>
</trkpt>
<trkpt lat="-27.273099" lon="151.2870689">
  <ele>371.39</ele>
  <time>2026-09-01T20:01:17Z</time>
  <course>95.91</course>
  <speed>25.38</speed>
  <fix>3d</fix>
</trkpt>
<trkpt lat="-27.27311" lon="151.2871695">
  <ele>371.38</ele>
  <time>2026-09-01T20:01:17Z</time>
  <course>97.38</course>
  <speed>25.268013376599278</speed>
  <fix>3d</fix>
</trkpt>
<trkpt lat="-27.2731041" lon="151.28712">
  <ele>371.45</ele>
  <time>2026-09-01T20:01:17Z</time>
  <course>96.92</course>
  <speed>25.37</speed>
  <fix>3d</fix>
</trkpt>
<trkpt lat="-27.2731132" lon="151.2871949">
  <ele>371.41</ele>
  <time>2026-09-01T20:01:17Z</time>
  <course>97.81</course>
  <speed>25.26649164407279</speed>
  <fix>3d</fix>
</trkpt>
<trkpt lat="-27.2731041" lon="151.28712">
  <ele>371.45</ele>
  <time>2026-09-01T20:01:17Z</time>
  <course>96.92</course>
  <speed>25.37</speed>
  <fix>3d</fix>
</trkpt>
<trkpt lat="-27.2731165" lon="151.2872201">
  <ele>371.45</ele>
  <time>2026-09-01T20:01:17Z</time>
  <course>98.26</course>
  <speed>25.256706040178713</speed>
  <fix>3d</fix>
</trkpt>
<trkpt lat="-27.27311" lon="151.2871708">
  <ele>371.51</ele>
  <time>2026-09-01T20:01:17Z</time>
  <course>97.9</course>
  <speed>25.36</speed>
  <fix>3d</fix>
</trkpt>
<trkpt lat="-27.2731201" lon="151.2872453">
  <ele>371.48</ele>
  <time>2026-09-01T20:01:17Z</time>
  <course>98.73</course>
  <speed>25.245356008581062</speed>
  <fix>3d</fix>
</trkpt>
<trkpt lat="-27.27311" lon="151.2871708">
  <ele>371.51</ele>
  <time>2026-09-01T20:01:17Z</time>
  <course>97.9</course>
  <speed>25.36</speed>
  <fix>3d</fix>
</trkpt>
<trkpt lat="-27.2731238" lon="151.2872704">
  <ele>371.51</ele>
  <time>2026-09-01T20:01:17Z</time>
  <course>99.22</course>
  <speed>25.23702240756623</speed>
  <fix>3d</fix>
</trkpt>
<trkpt lat="-27.2731166" lon="151.2872216">
  <ele>371.58</ele>
  <time>2026-09-01T20:01:17Z</time>
  <course>98.82</course>
  <speed>25.35</speed>
  <fix>3d</fix>
</trkpt>
<trkpt lat="-27.2731276" lon="151.2872953">
  <ele>371.54</ele>
  <time>2026-09-01T20:01:17Z</time>
  <course>99.67</course>
  <speed>25.22668428470139</speed>
  <fix>3d</fix>
</trkpt>
<trkpt lat="-27.2731166" lon="151.2872216">
  <ele>371.58</ele>
  <time>2026-09-01T20:01:17Z</time>
  <course>98.82</course>
  <speed>25.35</speed>
  <fix>3d</fix>
</trkpt>
<trkpt lat="-27.2731316" lon="151.2873204">
  <ele>371.58</ele>
  <time>2026-09-01T20:01:17Z</time>
  <course>100.09</course>
  <speed>25.217551427527614</speed>
  <fix>3d</fix>
</trkpt>
<trkpt lat="-27.273124" lon="151.2872721">
  <ele>371.64</ele>
  <time>2026-09-01T20:01:17Z</time>
  <course>99.69</course>
  <speed>25.34</speed>
  <fix>3d</fix>
</trkpt>
<trkpt lat="-27.2731358" lon="151.2873454">
  <ele>371.61</ele>
  <time>2026-09-01T20:01:17Z</time>
  <course>100.52</course>
  <speed>25.209625145963596</speed>
  <fix>3d</fix>
</trkpt>
<trkpt lat="-27.273124" lon="151.2872721">
  <ele>371.64</ele>
  <time>2026-09-01T20:01:17Z</time>
  <course>99.69</course>
  <speed>25.34</speed>
  <fix>3d</fix>
</trkpt>
<trkpt lat="-27.2731401" lon="151.2873704">
  <ele>371.63</ele>
  <time>2026-09-01T20:01:17Z</time>
  <course>100.91</course>
  <speed>25.200960299163203</speed>
  <fix>3d</fix>
</trkpt>
<trkpt lat="-27.273132" lon="151.2873225">
  <ele>371.7</ele>
  <time>2026-09-01T20:01:17Z</time>
  <course>100.5</course>
  <speed>25.32</speed>
  <fix>3d</fix>
</trkpt>
<trkpt lat="-27.2731446" lon="151.2873955">
  <ele>371.66</ele>
  <time>2026-09-01T20:01:17Z</time>
  <course>101.28</course>
  <speed>25.19337214427636</speed>
  <fix>3d</fix>
</trkpt>
<trkpt lat="-27.273132" lon="151.2873225">
  <ele>371.7</ele>
  <time>2026-09-01T20:01:17Z</time>
  <course>100.5</course>
  <speed>25.32</speed>
  <fix>3d</fix>
</trkpt>
<trkpt lat="-27.2731493" lon="151.2874204">
  <ele>371.68</ele>
  <time>2026-09-01T20:01:17Z</time>
  <course>101.69</course>
  <speed>25.184791045390867</speed>
  <fix>3d</fix>
</trkpt>
<trkpt lat="-27.2731406" lon="151.2873727">
  <ele>371.75</ele>
  <time>2026-09-01T20:01:17Z</time>
  <course>101.26</course>
  <speed>25.32</speed>
  <fix>3d</fix>
</trkpt>
<trkpt lat="-27.273154" lon="151.2874453">
  <ele>371.71</ele>
  <time>2026-09-01T20:01:17Z</time>
  <course>102.08</course>
  <speed>25.184808913311212</speed>
  <fix>3d</fix>
</trkpt>
<trkpt lat="-27.2731406" lon="151.2873727">
  <ele>371.75</ele>
  <time>2026-09-01T20:01:17Z</time>
  <course>101.26</course>
  <speed>25.32</speed>
  <fix>3d</fix>
</trkpt>
<trkpt lat="-27.2731589" lon="151.2874702">
  <ele>371.73</ele>
  <time>2026-09-01T20:01:17Z</time>
  <course>102.46</course>
  <speed>25.178063865198215</speed>
  <fix>3d</fix>
</trkpt>
<trkpt lat="-27.2731498" lon="151.2874228">
  <ele>371.8</ele>
  <time>2026-09-01T20:01:17Z</time>
  <course>101.98</course>
  <speed>25.31</speed>
  <fix>3d</fix>
</trkpt>
<trkpt lat="-27.2731639" lon="151.2874952">
  <ele>371.76</ele>
  <time>2026-09-01T20:01:17Z</time>
  <course>102.73</course>
  <speed>25.167792910781827</speed>
  <fix>3d</fix>
</trkpt>
<trkpt lat="-27.2731498" lon="151.2874228">
  <ele>371.8</ele>
  <time>2026-09-01T20:01:17Z</time>
  <course>101.98</course>
  <speed>25.31</speed>
  <fix>3d</fix>
</trkpt>
<trkpt lat="-27.2731691" lon="151.2875201">
  <ele>371.78</ele>
  <time>2026-09-01T20:01:17Z</time>
  <course>103.02</course>
  <speed>25.16798760330273</speed>
  <fix>3d</fix>
</trkpt>
<trkpt lat="-27.2731595" lon="151.2874728">
  <ele>371.85</ele>
  <time>2026-09-01T20:01:17Z</time>
  <course>102.64</course>
  <speed>25.3</speed>
  <fix>3d</fix>
</trkpt>
<trkpt lat="-27.2731743" lon="151.2875448">
  <ele>371.8</ele>
  <time>2026-09-01T20:01:17Z</time>
  <course>103.35</course>
  <speed>25.16655121386321</speed>
  <fix>3d</fix>
</trkpt>
<trkpt lat="-27.2731595" lon="151.2874728">
  <ele>371.85</ele>
  <time>2026-09-01T20:01:17Z</time>
  <course>102.64</course>
  <speed>25.3</speed>
  <fix>3d</fix>
</trkpt>
<trkpt lat="-27.2731797" lon="151.2875696">
  <ele>371.82</ele>
  <time>2026-09-01T20:01:17Z</time>
  <course>103.62</course>
  <speed>25.163340398285758</speed>
  <fix>3d</fix>
</trkpt>
<trkpt lat="-27.2731696" lon="151.2875226">
  <ele>371.9</ele>
  <time>2026-09-01T20:01:17Z</time>
  <course>103.26</course>
  <speed>25.29</speed>
  <fix>3d</fix>
</trkpt>
<trkpt lat="-27.2731851" lon="151.2875943">
  <ele>371.84</ele>
  <time>2026-09-01T20:01:17Z</time>
  <course>103.9</course>
  <speed>25.16064585816509</speed>
  <fix>3d</fix>
</trkpt>
<trkpt lat="-27.2731696" lon="151.2875226">
  <ele>371.9</ele>
  <time>2026-09-01T20:01:17Z</time>
  <course>103.26</course>
  <speed>25.29</speed>
  <fix>3d</fix>
</trkpt>
<trkpt lat="-27.2731906" lon="151.287619">
  <ele>371.86</ele>
  <time>2026-09-01T20:01:17Z</time>
  <course>104.15</course>
  <speed>25.165692917144167</speed>
  <fix>3d</fix>
</trkpt>
<trkpt lat="-27.2731803" lon="151.2875723">
  <ele>371.94</ele>
  <time>2026-09-01T20:01:17Z</time>
  <course>103.8</course>
  <speed>25.29</speed>
  <fix>3d</fix>
</trkpt>
<trkpt lat="-27.2731963" lon="151.2876437">
  <ele>371.88</ele>
  <time>2026-09-01T20:01:17Z</time>
  <course>104.43</course>
  <speed>25.158968579812644</speed>
  <fix>3d</fix>
</trkpt>
<trkpt lat="-27.2731803" lon="151.2875723">
  <ele>371.94</ele>
  <time>2026-09-01T20:01:17Z</time>
  <course>103.8</course>
  <speed>25.29</speed>
  <fix>3d</fix>
</trkpt>
<trkpt lat="-27.273202" lon="151.2876684">
  <ele>371.9</ele>
  <time>2026-09-01T20:01:17Z</time>
  <course>104.64</course>
  <speed>25.159739664789857</speed>
  <fix>3d</fix>
</trkpt>
<trkpt lat="-27.2731914" lon="151.287622">
  <ele>371.97</ele>
  <time>2026-09-01T20:01:17Z</time>
  <course>104.28</course>
  <speed>25.28</speed>
  <fix>3d</fix>
</trkpt>
<trkpt lat="-27.2732077" lon="151.287693">
  <ele>371.92</ele>
  <time>2026-09-01T20:01:17Z</time>
  <course>104.84</course>
  <speed>25.160780989468513</speed>
  <fix>3d</fix>
</trkpt>
<trkpt lat="-27.2731914" lon="151.287622">
  <ele>371.97</ele>
  <time>2026-09-01T20:01:17Z</time>
  <course>104.28</course>
  <speed>25.28</speed>
  <fix>3d</fix>
</trkpt>
<trkpt lat="-27.2732136" lon="151.2877177">
  <ele>371.94</ele>
  <time>2026-09-01T20:01:17Z</time>
  <course>104.98</course>
  <speed>25.169157713360214</speed>
  <fix>3d</fix>
</trkpt>
<trkpt lat="-27.2732027" lon="151.2876715">
  <ele>372.02</ele>
  <time>2026-09-01T20:01:17Z</time>
  <course>104.69</course>
  <speed>25.28</speed>
  <fix>3d</fix>
</trkpt>
<trkpt lat="-27.2732195" lon="151.2877423">
  <ele>371.95</ele>
  <time>2026-09-01T20:01:17Z</time>
  <course>105.2</course>
  <speed>25.177730239241185</speed>
  <fix>3d</fix>
</trkpt>
<trkpt lat="-27.2732027" lon="151.2876715">
  <ele>372.02</ele>
  <time>2026-09-01T20:01:17Z</time>
  <course>104.69</course>
  <speed>25.28</speed>
  <fix>3d</fix>
</trkpt>
<trkpt lat="-27.2732255" lon="151.287767">
  <ele>371.96</ele>
  <time>2026-09-01T20:01:17Z</time>
  <course>105.42</course>
  <speed>25.18385593986751</speed>
  <fix>3d</fix>
</trkpt>
<trkpt lat="-27.2732144" lon="151.2877209">
  <ele>372.06</ele>
  <time>2026-09-01T20:01:17Z</time>
  <course>105.03</course>
  <speed>25.28</speed>
  <fix>3d</fix>
</trkpt>
<trkpt lat="-27.2732315" lon="151.2877916">
  <ele>371.98</ele>
  <time>2026-09-01T20:01:17Z</time>
  <course>105.6</course>
  <speed>25.190127034217195</speed>
  <fix>3d</fix>
</trkpt>
<trkpt lat="-27.2732144" lon="151.2877209">
  <ele>372.06</ele>
  <time>2026-09-01T20:01:17Z</time>
  <course>105.03</course>
  <speed>25.28</speed>
  <fix>3d</fix>
</trkpt>
<trkpt lat="-27.2732375" lon="151.2878161">
  <ele>372.0</ele>
  <time>2026-09-01T20:01:17Z</time>
  <course>105.73</course>
  <speed>25.186911283442438</speed>
  <fix>3d</fix>
</trkpt>
<trkpt lat="-27.2732263" lon="151.2877702">
  <ele>372.09</ele>
  <time>2026-09-01T20:01:17Z</time>
  <course>105.32</course>
  <speed>25.29</speed>
  <fix>3d</fix>
</trkpt>
<trkpt lat="-27.2732437" lon="151.2878407">
  <ele>372.01</ele>
  <time>2026-09-01T20:01:17Z</time>
  <course>105.86</course>
  <speed>25.20039682227246</speed>
  <fix>3d</fix>
</trkpt>
<trkpt lat="-27.2732263" lon="151.2877702">
  <ele>372.09</ele>
  <time>2026-09-01T20:01:17Z</time>
  <course>105.32</course>
  <speed>25.29</speed>
  <fix>3d</fix>
</trkpt>
<trkpt lat="-27.2732499" lon="151.2878654">
  <ele>372.03</ele>
  <time>2026-09-01T20:01:17Z</time>
  <course>105.96</course>
  <speed>25.211251456443016</speed>
  <fix>3d</fix>
</trkpt>
<trkpt lat="-27.2732383" lon="151.2878195">
  <ele>372.12</ele>
  <time>2026-09-01T20:01:17Z</time>
  <course>105.58</course>
  <speed>25.29</speed>
  <fix>3d</fix>
</trkpt>
<trkpt lat="-27.2732561" lon="151.28789">
  <ele>372.05</ele>
  <time>2026-09-01T20:01:17Z</time>
  <course>106.04</course>
  <speed>25.212546479877833</speed>
  <fix>3d</fix>
</trkpt>
<trkpt lat="-27.2732383" lon="151.2878195">
  <ele>372.12</ele>
  <time>2026-09-01T20:01:17Z</time>
  <course>105.58</course>
  <speed>25.29</speed>
  <fix>3d</fix>
</trkpt>
<trkpt lat="-27.2732624" lon="151.2879149">
  <ele>372.07</ele>
  <time>2026-09-01T20:01:17Z</time>
  <course>106.19</course>
  <speed>25.220773184024313</speed>
  <fix>3d</fix>
</trkpt>
<trkpt lat="-27.2732507" lon="151.2878687">
  <ele>372.16</ele>
  <time>2026-09-01T20:01:17Z</time>
  <course>105.79</course>
  <speed>25.29</speed>
  <fix>3d</fix>
</trkpt>
<trkpt lat="-27.2732686" lon="151.2879395">
  <ele>372.09</ele>
  <time>2026-09-01T20:01:17Z</time>
  <course>106.29</course>
  <speed>25.21942108772523</speed>
  <fix>3d</fix>
</trkpt>
<trkpt lat="-27.2732507" lon="151.2878687">
  <ele>372.16</ele>
  <time>2026-09-01T20:01:17Z</time>
  <course>105.79</course>
  <speed>25.29</speed>
  <fix>3d</fix>
</trkpt>
<trkpt lat="-27.2732749" lon="151.2879641">
  <ele>372.11</ele>
  <time>2026-09-01T20:01:17Z</time>
  <course>106.36</course>
  <speed>25.22771690026666</speed>
  <fix>3d</fix>
</trkpt>
<trkpt lat="-27.2732631" lon="151.2879178">
  <ele>372.2</ele>
  <time>2026-09-01T20:01:17Z</time>
  <course>105.95</course>
  <speed>25.29</speed>
  <fix>3d</fix>
</trkpt>
<trkpt lat="-27.2732812" lon="151.2879887">
  <ele>372.13</ele>
  <time>2026-09-01T20:01:17Z</time>
  <course>106.41</course>
  <speed>25.22365952830794</speed>
  <fix>3d</fix>
</trkpt>
<trkpt lat="-27.2732631" lon="151.2879178">
  <ele>372.2</ele>
  <time>2026-09-01T20:01:17Z</time>
  <course>105.95</course>
  <speed>25.29</speed>
  <fix>3d</fix>
</trkpt>
<trkpt lat="-27.2732876" lon="151.2880133">
  <ele>372.15</ele>
  <time>2026-09-01T20:01:17Z</time>
  <course>106.51</course>
  <speed>25.2292251169155</speed>
  <fix>3d</fix>
</trkpt>
<trkpt lat="-27.2732757" lon="151.2879669">
  <ele>372.23</ele>
  <time>2026-09-01T20:01:17Z</time>
  <course>106.08</course>
  <speed>25.29</speed>
  <fix>3d</fix>
</trkpt>
<trkpt lat="-27.2732939" lon="151.2880379">
  <ele>372.16</ele>
  <time>2026-09-01T20:01:17Z</time>
  <course>106.57</course>
  <speed>25.244407301420253</speed>
  <fix>3d</fix>
</trkpt>
<trkpt lat="-27.2732757" lon="151.2879669">
  <ele>372.23</ele>
  <time>2026-09-01T20:01:17Z</time>
  <course>106.08</course>
  <speed>25.29</speed>
  <fix>3d</fix>
</trkpt>
<trkpt lat="-27.2733003" lon="151.2880625">
  <ele>372.18</ele>
  <time>2026-09-01T20:01:17Z</time>
  <course>106.63</course>
  <speed>25.237600916093427</speed>
  <fix>3d</fix>
</trkpt>
<trkpt lat="-27.2732883" lon="151.288016">
  <ele>372.27</ele>
  <time>2026-09-01T20:01:17Z</time>
  <course>106.17</course>
  <speed>25.29</speed>
  <fix>3d</fix>
</trkpt>
<trkpt lat="-27.2733066" lon="151.288087">
  <ele>372.2</ele>
  <time>2026-09-01T20:01:17Z</time>
  <course>106.66</course>
  <speed>25.20880005077592</speed>
  <fix>3d</fix>
</trkpt>
<trkpt lat="-27.2732883" lon="151.288016">
  <ele>372.27</ele>
  <time>2026-09-01T20:01:17Z</time>
  <course>106.17</course>
  <speed>25.29</speed>
  <fix>3d</fix>
</trkpt>
<trkpt lat="-27.273313" lon="151.2881115">
  <ele>372.22</ele>
  <time>2026-09-01T20:01:17Z</time>
  <course>106.7</course>
  <speed>25.129204125877127</speed>
  <fix>3d</fix>
</trkpt>
<trkpt lat="-27.273301" lon="151.2880652">
  <ele>372.31</ele>
  <time>2026-09-01T20:01:17Z</time>
  <course>106.22</course>
  <speed>25.27</speed>
  <fix>3d</fix>
</trkpt>
<trkpt lat="-27.2733193" lon="151.2881359">
  <ele>372.25</ele>
  <time>2026-09-01T20:01:17Z</time>
  <course>106.73</course>
  <speed>24.99600968154717</speed>
  <fix>3d</fix>
</trkpt>
<trkpt lat="-27.273301" lon="151.2880652">
  <ele>372.31</ele>
  <time>2026-09-01T20:01:17Z</time>
  <course>106.22</course>
  <speed>25.27</speed>
  <fix>3d</fix>
</trkpt>
<trkpt lat="-27.2733257" lon="151.2881604">
  <ele>372.28</ele>
  <time>2026-09-01T20:01:17Z</time>
  <course>106.77</course>
  <speed>24.831216240852964</speed>
  <fix>3d</fix>
</trkpt>
<trkpt lat="-27.2733137" lon="151.2881143">
  <ele>372.34</ele>
  <time>2026-09-01T20:01:17Z</time>
  <course>106.26</course>
  <speed>25.14</speed>
  <fix>3d</fix>
</trkpt>
<trkpt lat="-27.273332" lon="151.2881845">
  <ele>372.32</ele>
  <time>2026-09-01T20:01:17Z</time>
  <course>106.8</course>
  <speed>24.67883506164746</speed>
  <fix>3d</fix>
</trkpt>
<trkpt lat="-27.2733137" lon="151.2881143">
  <ele>372.34</ele>
  <time>2026-09-01T20:01:17Z</time>
  <course>106.26</course>
  <speed>25.14</speed>
  <fix>3d</fix>
</trkpt>
<trkpt lat="-27.2733382" lon="151.2882084">
  <ele>372.36</ele>
  <time>2026-09-01T20:01:17Z</time>
  <course>106.81</course>
  <speed>24.526461220485928</speed>
  <fix>3d</fix>
</trkpt>
<trkpt lat="-27.2733263" lon="151.2881628">
  <ele>372.4</ele>
  <time>2026-09-01T20:01:17Z</time>
  <course>106.31</course>
  <speed>24.87</speed>
  <fix>3d</fix>
</trkpt>
<trkpt lat="-27.2733444" lon="151.2882322">
  <ele>372.41</ele>
  <time>2026-09-01T20:01:17Z</time>
  <course>106.83</course>
  <speed>24.38368716990931</speed>
  <fix>3d</fix>
</trkpt>
<trkpt lat="-27.2733263" lon="151.2881628">
  <ele>372.4</ele>
  <time>2026-09-01T20:01:17Z</time>
  <course>106.31</course>
  <speed>24.87</speed>
  <fix>3d</fix>
</trkpt>
<trkpt lat="-27.2733507" lon="151.2882559">
  <ele>372.45</ele>
  <time>2026-09-01T20:01:17Z</time>
  <course>106.85</course>
  <speed>24.26293057320158</speed>
  <fix>3d</fix>
</trkpt>
<trkpt lat="-27.2733388" lon="151.2882106">
  <ele>372.47</ele>
  <time>2026-09-01T20:01:17Z</time>
  <course>106.36</course>
  <speed>24.56</speed>
  <fix>3d</fix>
</trkpt>
<trkpt lat="-27.2733568" lon="151.2882795">
  <ele>372.5</ele>
  <time>2026-09-01T20:01:17Z</time>
  <course>106.89</course>
  <speed>24.13259414153398</speed>
  <fix>3d</fix>
</trkpt>
<trkpt lat="-27.2733388" lon="151.2882106">
  <ele>372.47</ele>
  <time>2026-09-01T20:01:17Z</time>
  <course>106.36</course>
  <speed>24.56</speed>
  <fix>3d</fix>
</trkpt>
<trkpt lat="-27.273363" lon="151.2883029">
  <ele>372.55</ele>
  <time>2026-09-01T20:01:17Z</time>
  <course>106.91</course>
  <speed>24.00227072591258</speed>
  <fix>3d</fix>
</trkpt>
<trkpt lat="-27.2733511" lon="151.288258">
  <ele>372.56</ele>
  <time>2026-09-01T20:01:17Z</time>
  <course>106.42</course>
  <speed>24.28</speed>
  <fix>3d</fix>
</trkpt>
<trkpt lat="-27.2733691" lon="151.288326">
  <ele>372.61</ele>
  <time>2026-09-01T20:01:17Z</time>
  <course>106.94</course>
  <speed>23.827918499105202</speed>
  <fix>3d</fix>
</trkpt>
<trkpt lat="-27.2733511" lon="151.288258">
  <ele>372.56</ele>
  <time>2026-09-01T20:01:17Z</time>
  <course>106.42</course>
  <speed>24.28</speed>
  <fix>3d</fix>
</trkpt>
<trkpt lat="-27.2733752" lon="151.288349">
  <ele>372.67</ele>
  <time>2026-09-01T20:01:17Z</time>
  <course>106.97</course>
  <speed>23.590358199908707</speed>
  <fix>3d</fix>
</trkpt>
<trkpt lat="-27.2733634" lon="151.2883048">
  <ele>372.66</ele>
  <time>2026-09-01T20:01:17Z</time>
  <course>106.49</course>
  <speed>23.99</speed>
  <fix>3d</fix>
</trkpt>
<trkpt lat="-27.2733812" lon="151.2883718">
  <ele>372.75</ele>
  <time>2026-09-01T20:01:17Z</time>
  <course>107.01</course>
  <speed>23.277149739605147</speed>
  <fix>3d</fix>
</trkpt>
<trkpt lat="-27.2733634" lon="151.2883048">
  <ele>372.66</ele>
  <time>2026-09-01T20:01:17Z</time>
  <course>106.49</course>
  <speed>23.99</speed>
  <fix>3d</fix>
</trkpt>
<trkpt lat="-27.2733871" lon="151.2883943">
  <ele>372.85</ele>
  <time>2026-09-01T20:01:17Z</time>
  <course>107.04</course>
  <speed>22.922750707539443</speed>
  <fix>3d</fix>
</trkpt>
<trkpt lat="-27.2733756" lon="151.2883509">
  <ele>372.78</ele>
  <time>2026-09-01T20:01:17Z</time>
  <course>106.53</course>
  <speed>23.56</speed>
  <fix>3d</fix>
</trkpt>
<trkpt lat="-27.273393" lon="151.2884165">
  <ele>372.97</ele>
  <time>2026-09-01T20:01:17Z</time>
  <course>107.05</course>
  <speed>22.55876769684018</speed>
  <fix>3d</fix>
</trkpt>
<trkpt lat="-27.2733756" lon="151.2883509">
  <ele>372.78</ele>
  <time>2026-09-01T20:01:17Z</time>
  <course>106.53</course>
  <speed>23.56</speed>
  <fix>3d</fix>
</trkpt>
<trkpt lat="-27.2733987" lon="151.2884383">
  <ele>373.09</ele>
  <time>2026-09-01T20:01:17Z</time>
  <course>107.05</course>
  <speed>22.201515714022772</speed>
  <fix>3d</fix>
</trkpt>
<trkpt lat="-27.2733875" lon="151.2883959">
  <ele>372.96</ele>
  <time>2026-09-01T20:01:17Z</time>
  <course>106.56</course>
  <speed>22.92</speed>
  <fix>3d</fix>
</trkpt>
<trkpt lat="-27.2734044" lon="151.2884597">
  <ele>373.2</ele>
  <time>2026-09-01T20:01:17Z</time>
  <course>107.04</course>
  <speed>21.86628683613201</speed>
  <fix>3d</fix>
</trkpt>
<trkpt lat="-27.2733875" lon="151.2883959">
  <ele>372.96</ele>
  <time>2026-09-01T20:01:18Z</time>
  <course>106.56</course>
  <speed>22.92</speed>
  <fix>3d</fix>
</trkpt>
<trkpt lat="-27.27341" lon="151.2884808">
  <ele>373.31</ele>
  <time>2026-09-01T20:01:18Z</time>
  <course>107.04</course>
  <speed>21.55307866639938</speed>
  <fix>3d</fix>
</trkpt>
<trkpt lat="-27.273399" lon="151.2884397">
  <ele>373.19</ele>
  <time>2026-09-01T20:01:18Z</time>
  <course>106.56</course>
  <speed>22.21</speed>
  <fix>3d</fix>
</trkpt>
<trkpt lat="-27.2734154" lon="151.2885016">
  <ele>373.4</ele>
  <time>2026-09-01T20:01:18Z</time>
  <course>107.03</course>
  <speed>21.239870526912352</speed>
  <fix>3d</fix>
</trkpt>
<trkpt lat="-27.273399" lon="151.2884397">
  <ele>373.19</ele>
  <time>2026-09-01T20:01:18Z</time>
  <course>106.56</course>
  <speed>22.21</speed>
  <fix>3d</fix>
</trkpt>
<trkpt lat="-27.2734208" lon="151.2885221">
  <ele>373.48</ele>
  <time>2026-09-01T20:01:18Z</time>
  <course>107.03</course>
  <speed>20.945834908162528</speed>
  <fix>3d</fix>
</trkpt>
<trkpt lat="-27.2734102" lon="151.288482">
  <ele>373.41</ele>
  <time>2026-09-01T20:01:18Z</time>
  <course>106.54</course>
  <speed>21.55</speed>
  <fix>3d</fix>
</trkpt>
<trkpt lat="-27.2734262" lon="151.2885423">
  <ele>373.56</ele>
  <time>2026-09-01T20:01:18Z</time>
  <course>107.02</course>
  <speed>20.651801374214312</speed>
  <fix>3d</fix>
</trkpt>
<trkpt lat="-27.2734102" lon="151.288482">
  <ele>373.41</ele>
  <time>2026-09-01T20:01:18Z</time>
  <course>106.54</course>
  <speed>21.55</speed>
  <fix>3d</fix>
</trkpt>
<trkpt lat="-27.2734314" lon="151.2885623">
  <ele>373.63</ele>
  <time>2026-09-01T20:01:18Z</time>
  <course>107.01</course>
  <speed>20.37694775966214</speed>
  <fix>3d</fix>
</trkpt>
<trkpt lat="-27.2734211" lon="151.2885231">
  <ele>373.59</ele>
  <time>2026-09-01T20:01:18Z</time>
  <course>106.52</course>
  <speed>20.93</speed>
  <fix>3d</fix>
</trkpt>
<trkpt lat="-27.2734366" lon="151.2885819">
  <ele>373.69</ele>
  <time>2026-09-01T20:01:18Z</time>
  <course>107.0</course>
  <speed>20.10493471762592</speed>
  <fix>3d</fix>
</trkpt>
<trkpt lat="-27.2734211" lon="151.2885231">
  <ele>373.59</ele>
  <time>2026-09-01T20:01:18Z</time>
  <course>106.52</course>
  <speed>20.93</speed>
  <fix>3d</fix>
</trkpt>
<trkpt lat="-27.2734417" lon="151.2886014">
  <ele>373.74</ele>
  <time>2026-09-01T20:01:18Z</time>
  <course>107.0</course>
  <speed>19.84251244172471</speed>
  <fix>3d</fix>
</trkpt>
<trkpt lat="-27.2734317" lon="151.2885633">
  <ele>373.73</ele>
  <time>2026-09-01T20:01:18Z</time>
  <course>106.49</course>
  <speed>20.35</speed>
  <fix>3d</fix>
</trkpt>
<trkpt lat="-27.2734467" lon="151.2886205">
  <ele>373.78</ele>
  <time>2026-09-01T20:01:18Z</time>
  <course>107.0</course>
  <speed>19.582923683658677</speed>
  <fix>3d</fix>
</trkpt>
<trkpt lat="-27.2734317" lon="151.2885633">
  <ele>373.73</ele>
  <time>2026-09-01T20:01:18Z</time>
  <course>106.49</course>
  <speed>20.35</speed>
  <fix>3d</fix>
</trkpt>
<trkpt lat="-27.2734517" lon="151.2886395">
  <ele>373.83</ele>
  <time>2026-09-01T20:01:18Z</time>
  <course>106.99</course>
  <speed>19.339684588948188</speed>
  <fix>3d</fix>
</trkpt>
<trkpt lat="-27.2734419" lon="151.2886022">
  <ele>373.83</ele>
  <time>2026-09-01T20:01:18Z</time>
  <course>106.47</course>
  <speed>19.81</speed>
  <fix>3d</fix>
</trkpt>
<trkpt lat="-27.2734566" lon="151.2886581">
  <ele>373.86</ele>
  <time>2026-09-01T20:01:18Z</time>
  <course>106.98</course>
  <speed>19.099277473244896</speed>
  <fix>3d</fix>
</trkpt>
<trkpt lat="-27.2734419" lon="151.2886022">
  <ele>373.83</ele>
  <time>2026-09-01T20:01:18Z</time>
  <course>106.47</course>
  <speed>19.81</speed>
  <fix>3d</fix>
</trkpt>
<trkpt lat="-27.2734614" lon="151.2886766">
  <ele>373.89</ele>
  <time>2026-09-01T20:01:18Z</time>
  <course>106.97</course>
  <speed>18.868463106464183</speed>
  <fix>3d</fix>
</trkpt>
<trkpt lat="-27.2734519" lon="151.2886402">
  <ele>373.91</ele>
  <time>2026-09-01T20:01:18Z</time>
  <course>106.44</course>
  <speed>19.3</speed>
  <fix>3d</fix>
</trkpt>
<trkpt lat="-27.2734662" lon="151.2886948">
  <ele>373.91</ele>
  <time>2026-09-01T20:01:18Z</time>
  <course>106.96</course>
  <speed>18.637650066464925</speed>
  <fix>3d</fix>
</trkpt>
<trkpt lat="-27.2734519" lon="151.2886402">
  <ele>373.91</ele>
  <time>2026-09-01T20:01:18Z</time>
  <course>106.44</course>
  <speed>19.3</speed>
  <fix>3d</fix>
</trkpt>
<trkpt lat="-27.2734709" lon="151.2887128">
  <ele>373.93</ele>
  <time>2026-09-01T20:01:18Z</time>
  <course>106.95</course>
  <speed>18.41925351364707</speed>
  <fix>3d</fix>
</trkpt>
<trkpt lat="-27.2734615" lon="151.2886771">
  <ele>373.97</ele>
  <time>2026-09-01T20:01:18Z</time>
  <course>106.42</course>
  <speed>18.82</speed>
  <fix>3d</fix>
</trkpt>
<trkpt lat="-27.2734755" lon="151.2887306">
  <ele>373.94</ele>
  <time>2026-09-01T20:01:18Z</time>
  <course>106.94</course>
  <speed>18.200857122674194</speed>
  <fix>3d</fix>
</trkpt>
<trkpt lat="-27.2734615" lon="151.2886771">
  <ele>373.97</ele>
  <time>2026-09-01T20:01:18Z</time>
  <course>106.42</course>
  <speed>18.82</speed>
  <fix>3d</fix>
</trkpt>
<trkpt lat="-27.2734801" lon="151.2887481">
  <ele>373.95</ele>
  <time>2026-09-01T20:01:18Z</time>
  <course>106.93</course>
  <speed>17.98923289081555</speed>
  <fix>3d</fix>
</trkpt>
<trkpt lat="-27.273471" lon="151.2887131">
  <ele>374.01</ele>
  <time>2026-09-01T20:01:18Z</time>
  <course>106.4</course>
  <speed>18.37</speed>
  <fix>3d</fix>
</trkpt>
<trkpt lat="-27.2734847" lon="151.2887655">
  <ele>373.95</ele>
  <time>2026-09-01T20:01:18Z</time>
  <course>106.92</course>
  <speed>17.79284406720859</speed>
  <fix>3d</fix>
</trkpt>
<trkpt lat="-27.273471" lon="151.2887131">
  <ele>374.01</ele>
  <time>2026-09-01T20:01:18Z</time>
  <course>106.4</course>
  <speed>18.37</speed>
  <fix>3d</fix>
</trkpt>
<trkpt lat="-27.2734891" lon="151.2887826">
  <ele>373.95</ele>
  <time>2026-09-01T20:01:18Z</time>
  <course>106.91</course>
  <speed>17.593635212769417</speed>
  <fix>3d</fix>
</trkpt>
<trkpt lat="-27.2734802" lon="151.2887483">
  <ele>374.03</ele>
  <time>2026-09-01T20:01:18Z</time>
  <course>106.38</course>
  <speed>17.94</speed>
  <fix>3d</fix>
</trkpt>
<trkpt lat="-27.2734936" lon="151.2887996">
  <ele>373.94</ele>
  <time>2026-09-01T20:01:18Z</time>
  <course>106.9</course>
  <speed>17.40402252354323</speed>
  <fix>3d</fix>
</trkpt>
<trkpt lat="-27.2734802" lon="151.2887483">
  <ele>374.03</ele>
  <time>2026-09-01T20:01:18Z</time>
  <course>106.38</course>
  <speed>17.94</speed>
  <fix>3d</fix>
</trkpt>
<trkpt lat="-27.273498" lon="151.2888165">
  <ele>373.93</ele>
  <time>2026-09-01T20:01:18Z</time>
  <course>106.89</course>
  <speed>17.21441256621904</speed>
  <fix>3d</fix>
</trkpt>
<trkpt lat="-27.2734892" lon="151.2887827">
  <ele>374.03</ele>
  <time>2026-09-01T20:01:18Z</time>
  <course>106.35</course>
  <speed>17.54</speed>
  <fix>3d</fix>
</trkpt>
<trkpt lat="-27.2735023" lon="151.2888331">
  <ele>373.91</ele>
  <time>2026-09-01T20:01:18Z</time>
  <course>106.87</course>
  <speed>17.037212213270106</speed>
  <fix>3d</fix>
</trkpt>
<trkpt lat="-27.2734892" lon="151.2887827">
  <ele>374.03</ele>
  <time>2026-09-01T20:01:18Z</time>
  <course>106.35</course>
  <speed>17.54</speed>
  <fix>3d</fix>
</trkpt>
<trkpt lat="-27.2735066" lon="151.2888495">
  <ele>373.89</ele>
  <time>2026-09-01T20:01:18Z</time>
  <course>106.86</course>
  <speed>16.86960876843325</speed>
  <fix>3d</fix>
</trkpt>
<trkpt lat="-27.2734979" lon="151.2888164">
  <ele>374.01</ele>
  <time>2026-09-01T20:01:18Z</time>
  <course>106.32</course>
  <speed>17.17</speed>
  <fix>3d</fix>
</trkpt>
<trkpt lat="-27.2735108" lon="151.2888658">
  <ele>373.85</ele>
  <time>2026-09-01T20:01:18Z</time>
  <course>106.85</course>
  <speed>16.70200586755974</speed>
  <fix>3d</fix>
</trkpt>
<trkpt lat="-27.2734979" lon="151.2888164">
  <ele>374.01</ele>
  <time>2026-09-01T20:01:18Z</time>
  <course>106.32</course>
  <speed>17.17</speed>
  <fix>3d</fix>
</trkpt>
<trkpt lat="-27.273515" lon="151.2888819">
  <ele>373.81</ele>
  <time>2026-09-01T20:01:18Z</time>
  <course>106.83</course>
  <speed>16.544001934235865</speed>
  <fix>3d</fix>
</trkpt>
<trkpt lat="-27.2735065" lon="151.2888494">
  <ele>373.97</ele>
  <time>2026-09-01T20:01:18Z</time>
  <course>106.29</course>
  <speed>16.82</speed>
  <fix>3d</fix>
</trkpt>
<trkpt lat="-27.2735191" lon="151.2888978">
  <ele>373.76</ele>
  <time>2026-09-01T20:01:18Z</time>
  <course>106.82</course>
  <speed>16.386000122055414</speed>
  <fix>3d</fix>
</trkpt>
<trkpt lat="-27.2735065" lon="151.2888494">
  <ele>373.97</ele>
  <time>2026-09-01T20:01:18Z</time>
  <course>106.29</course>
  <speed>16.82</speed>
  <fix>3d</fix>
</trkpt>
<trkpt lat="-27.2735232" lon="151.2889136">
  <ele>373.71</ele>
  <time>2026-09-01T20:01:18Z</time>
  <course>106.8</course>
  <speed>16.240400241373365</speed>
  <fix>3d</fix>
</trkpt>
<trkpt lat="-27.2735149" lon="151.2888817">
  <ele>373.9</ele>
  <time>2026-09-01T20:01:18Z</time>
  <course>106.26</course>
  <speed>16.49</speed>
  <fix>3d</fix>
</trkpt>
<trkpt lat="-27.2735273" lon="151.2889293">
  <ele>373.64</ele>
  <time>2026-09-01T20:01:18Z</time>
  <course>106.78</course>
  <speed>16.104400019870344</speed>
  <fix>3d</fix>
</trkpt>
<trkpt lat="-27.2735149" lon="151.2888817">
  <ele>373.9</ele>
  <time>2026-09-01T20:01:18Z</time>
  <course>106.26</course>
  <speed>16.49</speed>
  <fix>3d</fix>
</trkpt>
<trkpt lat="-27.2735313" lon="151.2889448">
  <ele>373.56</ele>
  <time>2026-09-01T20:01:18Z</time>
  <course>106.76</course>
  <speed>15.978000500688438</speed>
  <fix>3d</fix>
</trkpt>
<trkpt lat="-27.2735231" lon="151.2889134">
  <ele>373.79</ele>
  <time>2026-09-01T20:01:18Z</time>
  <course>106.22</course>
  <speed>16.2</speed>
  <fix>3d</fix>
</trkpt>
<trkpt lat="-27.2735353" lon="151.2889603">
  <ele>373.48</ele>
  <time>2026-09-01T20:01:18Z</time>
  <course>106.74</course>
  <speed>15.851602442655441</speed>
  <fix>3d</fix>
</trkpt>
<trkpt lat="-27.2735231" lon="151.2889134">
  <ele>373.79</ele>
  <time>2026-09-01T20:01:18Z</time>
  <course>106.22</course>
  <speed>16.2</speed>
  <fix>3d</fix>
</trkpt>
<trkpt lat="-27.2735392" lon="151.2889755">
  <ele>373.39</ele>
  <time>2026-09-01T20:01:18Z</time>
  <course>106.72</course>
  <speed>15.734808546658583</speed>
  <fix>3d</fix>
</trkpt>
<trkpt lat="-27.2735312" lon="151.2889447">
  <ele>373.65</ele>
  <time>2026-09-01T20:01:18Z</time>
  <course>106.18</course>
  <speed>15.93</speed>
  <fix>3d</fix>
</trkpt>
<trkpt lat="-27.2735431" lon="151.2889907">
  <ele>373.29</ele>
  <time>2026-09-01T20:01:18Z</time>
  <course>106.7</course>
  <speed>15.630409463606512</speed>
  <fix>3d</fix>
</trkpt>
<trkpt lat="-27.2735312" lon="151.2889447">
  <ele>373.65</ele>
  <time>2026-09-01T20:01:18Z</time>
  <course>106.18</course>
  <speed>15.93</speed>
  <fix>3d</fix>
</trkpt>
<trkpt lat="-27.273547" lon="151.2890058">
  <ele>373.19</ele>
  <time>2026-09-01T20:01:18Z</time>
  <course>106.67</course>
  <speed>15.523224536158716</speed>
  <fix>3d</fix>
</trkpt>
<trkpt lat="-27.2735391" lon="151.2889754">
  <ele>373.48</ele>
  <time>2026-09-01T20:01:18Z</time>
  <course>106.13</course>
  <speed>15.7</speed>
  <fix>3d</fix>
</trkpt>
<trkpt lat="-27.2735509" lon="151.2890208">
  <ele>373.08</ele>
  <time>2026-09-01T20:01:18Z</time>
  <course>106.65</course>
  <speed>15.428431546984937</speed>
  <fix>3d</fix>
</trkpt>
<trkpt lat="-27.2735391" lon="151.2889754">
  <ele>373.48</ele>
  <time>2026-09-01T20:01:18Z</time>
  <course>106.13</course>
  <speed>15.7</speed>
  <fix>3d</fix>
</trkpt>
<trkpt lat="-27.2735547" lon="151.2890357">
  <ele>372.97</ele>
  <time>2026-09-01T20:01:18Z</time>
  <course>106.62</course>
  <speed>15.343246071154566</speed>
  <fix>3d</fix>
</trkpt>
<trkpt lat="-27.2735469" lon="151.2890056">
  <ele>373.28</ele>
  <time>2026-09-01T20:01:18Z</time>
  <course>106.08</course>
  <speed>15.49</speed>
  <fix>3d</fix>
</trkpt>
<trkpt lat="-27.2735585" lon="151.2890506">
  <ele>372.86</ele>
  <time>2026-09-01T20:01:18Z</time>
  <course>106.59</course>
  <speed>15.248455659508604</speed>
  <fix>3d</fix>
</trkpt>
<trkpt lat="-27.2735469" lon="151.2890056">
  <ele>373.28</ele>
  <time>2026-09-01T20:01:18Z</time>
  <course>106.08</course>
  <speed>15.49</speed>
  <fix>3d</fix>
</trkpt>
<trkpt lat="-27.2735622" lon="151.2890653">
  <ele>372.75</ele>
  <time>2026-09-01T20:01:18Z</time>
  <course>106.56</course>
  <speed>15.163274712277687</speed>
  <fix>3d</fix>
</trkpt>
<trkpt lat="-27.2735546" lon="151.2890355">
  <ele>373.06</ele>
  <time>2026-09-01T20:01:18Z</time>
  <course>106.03</course>
  <speed>15.3</speed>
  <fix>3d</fix>
</trkpt>
<trkpt lat="-27.273566" lon="151.28908">
  <ele>372.65</ele>
  <time>2026-09-01T20:01:18Z</time>
  <course>106.54</course>
  <speed>15.087706916559586</speed>
  <fix>3d</fix>
</trkpt>
<trkpt lat="-27.2735546" lon="151.2890355">
  <ele>373.06</ele>
  <time>2026-09-01T20:01:18Z</time>
  <course>106.03</course>
  <speed>15.3</speed>
  <fix>3d</fix>
</trkpt>
<trkpt lat="-27.2735697" lon="151.2890945">
  <ele>372.56</ele>
  <time>2026-09-01T20:01:18Z</time>
  <course>106.51</course>
  <speed>15.002533119443529</speed>
  <fix>3d</fix>
</trkpt>
<trkpt lat="-27.2735621" lon="151.289065">
  <ele>372.84</ele>
  <time>2026-09-01T20:01:18Z</time>
  <course>105.97</course>
  <speed>15.13</speed>
  <fix>3d</fix>
</trkpt>
<trkpt lat="-27.2735734" lon="151.289109">
  <ele>372.47</ele>
  <time>2026-09-01T20:01:18Z</time>
  <course>106.48</course>
  <speed>14.920120642943878</speed>
  <fix>3d</fix>
</trkpt>
<trkpt lat="-27.2735621" lon="151.289065">
  <ele>372.84</ele>
  <time>2026-09-01T20:01:18Z</time>
  <course>105.97</course>
  <speed>15.13</speed>
  <fix>3d</fix>
</trkpt>
<trkpt lat="-27.273577" lon="151.2891233">
  <ele>372.39</ele>
  <time>2026-09-01T20:01:18Z</time>
  <course>106.45</course>
  <speed>14.844561293618618</speed>
  <fix>3d</fix>
</trkpt>
<trkpt lat="-27.2735695" lon="151.2890943">
  <ele>372.65</ele>
  <time>2026-09-01T20:01:18Z</time>
  <course>105.9</course>
  <speed>14.97</speed>
  <fix>3d</fix>
</trkpt>
<trkpt lat="-27.2735807" lon="151.2891377">
  <ele>372.32</ele>
  <time>2026-09-01T20:01:18Z</time>
  <course>106.42</course>
  <speed>14.759393618980424</speed>
  <fix>3d</fix>
</trkpt>
<trkpt lat="-27.2735695" lon="151.2890943">
  <ele>372.65</ele>
  <time>2026-09-01T20:01:18Z</time>
  <course>105.9</course>
  <speed>14.97</speed>
  <fix>3d</fix>
</trkpt>
<trkpt lat="-27.2735843" lon="151.289152">
  <ele>372.25</ele>
  <time>2026-09-01T20:01:18Z</time>
  <course>106.4</course>
  <speed>14.67422911092777</speed>
  <fix>3d</fix>
</trkpt>
<trkpt lat="-27.2735768" lon="151.2891233">
  <ele>372.48</ele>
  <time>2026-09-01T20:01:18Z</time>
  <course>105.84</course>
  <speed>14.82</speed>
  <fix>3d</fix>
</trkpt>
<trkpt lat="-27.2735878" lon="151.2891662">
  <ele>372.2</ele>
  <time>2026-09-01T20:01:18Z</time>
  <course>106.37</course>
  <speed>14.589067824916025</speed>
  <fix>3d</fix>
</trkpt>
<trkpt lat="-27.2735768" lon="151.2891233">
  <ele>372.48</ele>
  <time>2026-09-01T20:01:18Z</time>
  <course>105.84</course>
  <speed>14.82</speed>
  <fix>3d</fix>
</trkpt>
<trkpt lat="-27.2735914" lon="151.2891806">
  <ele>372.15</ele>
  <time>2026-09-01T20:01:18Z</time>
  <course>106.35</course>
  <speed>14.513528172019374</speed>
  <fix>3d</fix>
</trkpt>
<trkpt lat="-27.273584" lon="151.289152">
  <ele>372.35</ele>
  <time>2026-09-01T20:01:18Z</time>
  <course>105.77</course>
  <speed>14.66</speed>
  <fix>3d</fix>
</trkpt>
<trkpt lat="-27.273595" lon="151.2891946">
  <ele>372.12</ele>
  <time>2026-09-01T20:01:18Z</time>
  <course>106.32</course>
  <speed>14.428374821857103</speed>
  <fix>3d</fix>
</trkpt>
<trkpt lat="-27.273584" lon="151.289152">
  <ele>372.35</ele>
  <time>2026-09-01T20:01:18Z</time>
  <course>105.77</course>
  <speed>14.66</speed>
  <fix>3d</fix>
</trkpt>
<trkpt lat="-27.2735984" lon="151.2892085">
  <ele>372.09</ele>
  <time>2026-09-01T20:01:18Z</time>
  <course>106.3</course>
  <speed>14.34595413348307</speed>
  <fix>3d</fix>
</trkpt>
<trkpt lat="-27.2735911" lon="151.2891804">
  <ele>372.24</ele>
  <time>2026-09-01T20:01:18Z</time>
  <course>105.71</course>
  <speed>14.5</speed>
  <fix>3d</fix>
</trkpt>
<trkpt lat="-27.2736019" lon="151.2892224">
  <ele>372.06</ele>
  <time>2026-09-01T20:01:18Z</time>
  <course>106.28</course>
  <speed>14.251182407084684</speed>
  <fix>3d</fix>
</trkpt>
<trkpt lat="-27.2735911" lon="151.2891804">
  <ele>372.24</ele>
  <time>2026-09-01T20:01:18Z</time>
  <course>105.71</course>
  <speed>14.5</speed>
  <fix>3d</fix>
</trkpt>
<trkpt lat="-27.2736053" lon="151.2892361">
  <ele>372.05</ele>
  <time>2026-09-01T20:01:18Z</time>
  <course>106.26</course>
  <speed>14.166033319175838</speed>
  <fix>3d</fix>
</trkpt>
<trkpt lat="-27.2735981" lon="151.2892084">
  <ele>372.17</ele>
  <time>2026-09-01T20:01:18Z</time>
  <course>105.65</course>
  <speed>14.34</speed>
  <fix>3d</fix>
</trkpt>
<trkpt lat="-27.2736087" lon="151.2892497">
  <ele>372.04</ele>
  <time>2026-09-01T20:01:18Z</time>
  <course>106.24</course>
  <speed>14.080887756104016</speed>
  <fix>3d</fix>
</trkpt>
<trkpt lat="-27.2735981" lon="151.2892084">
  <ele>372.17</ele>
  <time>2026-09-01T20:01:18Z</time>
  <course>105.65</course>
  <speed>14.34</speed>
  <fix>3d</fix>
</trkpt>
<trkpt lat="-27.2736121" lon="151.2892633">
  <ele>372.03</ele>
  <time>2026-09-01T20:01:18Z</time>
  <course>106.22</course>
  <speed>13.986121692592267</speed>
  <fix>3d</fix>
</trkpt>
<trkpt lat="-27.273605" lon="151.2892362">
  <ele>372.13</ele>
  <time>2026-09-01T20:01:18Z</time>
  <course>105.6</course>
  <speed>14.17</speed>
  <fix>3d</fix>
</trkpt>
<trkpt lat="-27.2736154" lon="151.2892768">
  <ele>372.03</ele>
  <time>2026-09-01T20:01:18Z</time>
  <course>106.2</course>
  <speed>13.90098197970201</speed>
  <fix>3d</fix>
</trkpt>
<trkpt lat="-27.273605" lon="151.2892362">
  <ele>372.13</ele>
  <time>2026-09-01T20:01:18Z</time>
  <course>105.6</course>
  <speed>14.17</speed>
  <fix>3d</fix>
</trkpt>
<trkpt lat="-27.2736187" lon="151.2892902">
  <ele>372.04</ele>
  <time>2026-09-01T20:01:18Z</time>
  <course>106.19</course>
  <speed>13.806219612913594</speed>
  <fix>3d</fix>
</trkpt>
<trkpt lat="-27.2736119" lon="151.2892637">
  <ele>372.12</ele>
  <time>2026-09-01T20:01:18Z</time>
  <course>105.55</course>
  <speed>14.01</speed>
  <fix>3d</fix>
</trkpt>
<trkpt lat="-27.2736221" lon="151.2893035">
  <ele>372.05</ele>
  <time>2026-09-01T20:01:18Z</time>
  <course>106.17</course>
  <speed>13.723793207419005</speed>
  <fix>3d</fix>
</trkpt>
<trkpt lat="-27.2736119" lon="151.2892637">
  <ele>372.12</ele>
  <time>2026-09-01T20:01:18Z</time>
  <course>105.55</course>
  <speed>14.01</speed>
  <fix>3d</fix>
</trkpt>
<trkpt lat="-27.2736253" lon="151.2893168">
  <ele>372.07</ele>
  <time>2026-09-01T20:01:18Z</time>
  <course>106.16</course>
  <speed>13.638658291782225</speed>
  <fix>3d</fix>
</trkpt>
<trkpt lat="-27.2736186" lon="151.2892908">
  <ele>372.12</ele>
  <time>2026-09-01T20:01:18Z</time>
  <course>105.51</course>
  <speed>13.84</speed>
  <fix>3d</fix>
</trkpt>
<trkpt lat="-27.2736286" lon="151.28933">
  <ele>372.09</ele>
  <time>2026-09-01T20:01:18Z</time>
  <course>106.15</course>
  <speed>13.543898995488707</speed>
  <fix>3d</fix>
</trkpt>
<trkpt lat="-27.2736186" lon="151.2892908">
  <ele>372.12</ele>
  <time>2026-09-01T20:01:18Z</time>
  <course>105.51</course>
  <speed>13.84</speed>
  <fix>3d</fix>
</trkpt>
<trkpt lat="-27.2736318" lon="151.2893432">
  <ele>372.11</ele>
  <time>2026-09-01T20:01:18Z</time>
  <course>106.14</course>
  <speed>13.46147094488563</speed>
  <fix>3d</fix>
</trkpt>
<trkpt lat="-27.2736252" lon="151.2893176">
  <ele>372.14</ele>
  <time>2026-09-01T20:01:18Z</time>
  <course>105.47</course>
  <speed>13.67</speed>
  <fix>3d</fix>
</trkpt>
<trkpt lat="-27.273635" lon="151.2893562">
  <ele>372.13</ele>
  <time>2026-09-01T20:01:18Z</time>
  <course>106.13</course>
  <speed>13.366712385624224</speed>
  <fix>3d</fix>
</trkpt>
<trkpt lat="-27.2736252" lon="151.2893176">
  <ele>372.14</ele>
  <time>2026-09-01T20:01:18Z</time>
  <course>105.47</course>
  <speed>13.67</speed>
  <fix>3d</fix>
</trkpt>
<trkpt lat="-27.2736382" lon="151.2893692">
  <ele>372.15</ele>
  <time>2026-09-01T20:01:18Z</time>
  <course>106.12</course>
  <speed>13.281584995775166</speed>
  <fix>3d</fix>
</trkpt>
<trkpt lat="-27.2736316" lon="151.2893441">
  <ele>372.18</ele>
  <time>2026-09-01T20:01:18Z</time>
  <course>105.44</course>
  <speed>13.5</speed>
  <fix>3d</fix>
</trkpt>
<trkpt lat="-27.2736414" lon="151.2893821">
  <ele>372.17</ele>
  <time>2026-09-01T20:01:18Z</time>
  <course>106.11</course>
  <speed>13.186830551728494</speed>
  <fix>3d</fix>
</trkpt>
<trkpt lat="-27.2736316" lon="151.2893441">
  <ele>372.18</ele>
  <time>2026-09-01T20:01:18Z</time>
  <course>105.44</course>
  <speed>13.5</speed>
  <fix>3d</fix>
</trkpt>
<trkpt lat="-27.2736445" lon="151.2893949">
  <ele>372.2</ele>
  <time>2026-09-01T20:01:18Z</time>
  <course>106.1</course>
  <speed>13.09476994834197</speed>
  <fix>3d</fix>
</trkpt>
<trkpt lat="-27.2736381" lon="151.2893702">
  <ele>372.22</ele>
  <time>2026-09-01T20:01:18Z</time>
  <course>105.41</course>
  <speed>13.33</speed>
  <fix>3d</fix>
</trkpt>
<trkpt lat="-27.2736476" lon="151.2894075">
  <ele>372.22</ele>
  <time>2026-09-01T20:01:18Z</time>
  <course>106.1</course>
  <speed>13.00001538460628</speed>
  <fix>3d</fix>
</trkpt>
<trkpt lat="-27.2736381" lon="151.2893702">
  <ele>372.22</ele>
  <time>2026-09-01T20:01:18Z</time>
  <course>105.41</course>
  <speed>13.33</speed>
  <fix>3d</fix>
</trkpt>
<trkpt lat="-27.2736507" lon="151.2894202">
  <ele>372.25</ele>
  <time>2026-09-01T20:01:18Z</time>
  <course>106.09</course>
  <speed>12.905262492487317</speed>
  <fix>3d</fix>
</trkpt>
<trkpt lat="-27.2736444" lon="151.289396">
  <ele>372.27</ele>
  <time>2026-09-01T20:01:18Z</time>
  <course>105.39</course>
  <speed>13.15</speed>
  <fix>3d</fix>
</trkpt>
<trkpt lat="-27.2736538" lon="151.2894327">
  <ele>372.27</ele>
  <time>2026-09-01T20:01:18Z</time>
  <course>106.09</course>
  <speed>12.813200224768206</speed>
  <fix>3d</fix>
</trkpt>
<trkpt lat="-27.2736444" lon="151.289396">
  <ele>372.27</ele>
  <time>2026-09-01T20:01:18Z</time>
  <course>105.39</course>
  <speed>13.15</speed>
  <fix>3d</fix>
</trkpt>
<trkpt lat="-27.2736568" lon="151.2894452">
  <ele>372.3</ele>
  <time>2026-09-01T20:01:18Z</time>
  <course>106.08</course>
  <speed>12.718447232268568</speed>
  <fix>3d</fix>
</trkpt>
<trkpt lat="-27.2736506" lon="151.2894214">
  <ele>372.31</ele>
  <time>2026-09-01T20:01:18Z</time>
  <course>105.37</course>
  <speed>12.96</speed>
  <fix>3d</fix>
</trkpt>
<trkpt lat="-27.2736599" lon="151.2894576">
  <ele>372.32</ele>
  <time>2026-09-01T20:01:18Z</time>
  <course>106.08</course>
  <speed>12.614063579988805</speed>
  <fix>3d</fix>
</trkpt>
<trkpt lat="-27.2736506" lon="151.2894214">
  <ele>372.31</ele>
  <time>2026-09-01T20:01:18Z</time>
  <course>105.37</course>
  <speed>12.96</speed>
  <fix>3d</fix>
</trkpt>
<trkpt lat="-27.2736629" lon="151.2894699">
  <ele>372.34</ele>
  <time>2026-09-01T20:01:18Z</time>
  <course>106.08</course>
  <speed>12.509680251709074</speed>
  <fix>3d</fix>
</trkpt>
<trkpt lat="-27.2736567" lon="151.2894465">
  <ele>372.36</ele>
  <time>2026-09-01T20:01:18Z</time>
  <course>105.36</course>
  <speed>12.77</speed>
  <fix>3d</fix>
</trkpt>
<trkpt lat="-27.2736658" lon="151.2894821">
  <ele>372.36</ele>
  <time>2026-09-01T20:01:18Z</time>
  <course>106.08</course>
  <speed>12.395664564677443</speed>
  <fix>3d</fix>
</trkpt>
<trkpt lat="-27.2736567" lon="151.2894465">
  <ele>372.36</ele>
  <time>2026-09-01T20:01:18Z</time>
  <course>105.36</course>
  <speed>12.77</speed>
  <fix>3d</fix>
</trkpt>
<trkpt lat="-27.2736688" lon="151.2894942">
  <ele>372.38</ele>
  <time>2026-09-01T20:01:18Z</time>
  <course>106.08</course>
  <speed>12.281648912096452</speed>
  <fix>3d</fix>
</trkpt>
<trkpt lat="-27.2736627" lon="151.2894712">
  <ele>372.41</ele>
  <time>2026-09-01T20:01:18Z</time>
  <course>105.34</course>
  <speed>12.57</speed>
  <fix>3d</fix>
</trkpt>
<trkpt lat="-27.2736717" lon="151.2895061">
  <ele>372.41</ele>
  <time>2026-09-01T20:01:18Z</time>
  <course>106.08</course>
  <speed>12.16494965053288</speed>
  <fix>3d</fix>
</trkpt>
<trkpt lat="-27.2736627" lon="151.2894712">
  <ele>372.41</ele>
  <time>2026-09-01T20:01:18Z</time>
  <course>105.34</course>
  <speed>12.57</speed>
  <fix>3d</fix>
</trkpt>
<trkpt lat="-27.2736746" lon="151.2895179">
  <ele>372.44</ele>
  <time>2026-09-01T20:01:18Z</time>
  <course>106.08</course>
  <speed>12.031666551230549</speed>
  <fix>3d</fix>
</trkpt>
<trkpt lat="-27.2736687" lon="151.2894955">
  <ele>372.47</ele>
  <time>2026-09-01T20:01:18Z</time>
  <course>105.34</course>
  <speed>12.34</speed>
  <fix>3d</fix>
</trkpt>
<trkpt lat="-27.2736774" lon="151.2895296">
  <ele>372.46</ele>
  <time>2026-09-01T20:01:18Z</time>
  <course>106.09</course>
  <speed>11.905334938589506</speed>
  <fix>3d</fix>
</trkpt>
<trkpt lat="-27.2736687" lon="151.2894955">
  <ele>372.47</ele>
  <time>2026-09-01T20:01:18Z</time>
  <course>105.34</course>
  <speed>12.34</speed>
  <fix>3d</fix>
</trkpt>
<trkpt lat="-27.2736803" lon="151.2895413">
  <ele>372.49</ele>
  <time>2026-09-01T20:01:18Z</time>
  <course>106.09</course>
  <speed>11.762418968902612</speed>
  <fix>3d</fix>
</trkpt>
<trkpt lat="-27.2736745" lon="151.2895194">
  <ele>372.53</ele>
  <time>2026-09-01T20:01:18Z</time>
  <course>105.33</course>
  <speed>12.09</speed>
  <fix>3d</fix>
</trkpt>
<trkpt lat="-27.2736831" lon="151.2895528">
  <ele>372.52</ele>
  <time>2026-09-01T20:01:18Z</time>
  <course>106.09</course>
  <speed>11.626452597417668</speed>
  <fix>3d</fix>
</trkpt>
<trkpt lat="-27.2736745" lon="151.2895194">
  <ele>372.53</ele>
  <time>2026-09-01T20:01:18Z</time>
  <course>105.33</course>
  <speed>12.09</speed>
  <fix>3d</fix>
</trkpt>
<trkpt lat="-27.2736858" lon="151.2895641">
  <ele>372.55</ele>
  <time>2026-09-01T20:01:18Z</time>
  <course>106.09</course>
  <speed>11.480853626799707</speed>
  <fix>3d</fix>
</trkpt>
<trkpt lat="-27.2736802" lon="151.2895427">
  <ele>372.59</ele>
  <time>2026-09-01T20:01:18Z</time>
  <course>105.33</course>
  <speed>11.83</speed>
  <fix>3d</fix>
</trkpt>
<trkpt lat="-27.2736885" lon="151.2895753">
  <ele>372.58</ele>
  <time>2026-09-01T20:01:18Z</time>
  <course>106.09</course>
  <speed>11.335254739087253</speed>
  <fix>3d</fix>
</trkpt>
<trkpt lat="-27.2736802" lon="151.2895427">
  <ele>372.59</ele>
  <time>2026-09-01T20:01:18Z</time>
  <course>105.33</course>
  <speed>11.83</speed>
  <fix>3d</fix>
</trkpt>
<trkpt lat="-27.2736912" lon="151.2895864">
  <ele>372.61</ele>
  <time>2026-09-01T20:01:18Z</time>
  <course>106.09</course>
  <speed>11.189655937516577</speed>
  <fix>3d</fix>
</trkpt>
<trkpt lat="-27.2736858" lon="151.2895655">
  <ele>372.65</ele>
  <time>2026-09-01T20:01:18Z</time>
  <course>105.34</course>
  <speed>11.54</speed>
  <fix>3d</fix>
</trkpt>
<trkpt lat="-27.2736939" lon="151.2895973">
  <ele>372.63</ele>
  <time>2026-09-01T20:01:18Z</time>
  <course>106.1</course>
  <speed>11.044057225494623</speed>
  <fix>3d</fix>
</trkpt>
<trkpt lat="-27.2736858" lon="151.2895655">
  <ele>372.65</ele>
  <time>2026-09-01T20:01:18Z</time>
  <course>105.34</course>
  <speed>11.54</speed>
  <fix>3d</fix>
</trkpt>
<trkpt lat="-27.2736965" lon="151.2896081">
  <ele>372.66</ele>
  <time>2026-09-01T20:01:18Z</time>
  <course>106.09</course>
  <speed>10.910774491299874</speed>
  <fix>3d</fix>
</trkpt>
<trkpt lat="-27.2736912" lon="151.2895877">
  <ele>372.71</ele>
  <time>2026-09-01T20:01:18Z</time>
  <course>105.34</course>
  <speed>11.25</speed>
  <fix>3d</fix>
</trkpt>
<trkpt lat="-27.2736991" lon="151.2896187">
  <ele>372.68</ele>
  <time>2026-09-01T20:01:18Z</time>
  <course>106.09</course>
  <speed>10.765175335311545</speed>
  <fix>3d</fix>
</trkpt>
<trkpt lat="-27.2736912" lon="151.2895877">
  <ele>372.71</ele>
  <time>2026-09-01T20:01:18Z</time>
  <course>105.34</course>
  <speed>11.25</speed>
  <fix>3d</fix>
</trkpt>
<trkpt lat="-27.2737017" lon="151.2896292">
  <ele>372.7</ele>
  <time>2026-09-01T20:01:18Z</time>
  <course>106.09</course>
  <speed>10.619576262732897</speed>
  <fix>3d</fix>
</trkpt>
<trkpt lat="-27.2736965" lon="151.2896094">
  <ele>372.76</ele>
  <time>2026-09-01T20:01:18Z</time>
  <course>105.35</course>
  <speed>10.96</speed>
  <fix>3d</fix>
</trkpt>
<trkpt lat="-27.2737042" lon="151.2896395">
  <ele>372.72</ele>
  <time>2026-09-01T20:01:18Z</time>
  <course>106.08</course>
  <speed>10.48361101910978</speed>
  <fix>3d</fix>
</trkpt>
<trkpt lat="-27.2736965" lon="151.2896094">
  <ele>372.76</ele>
  <time>2026-09-01T20:01:18Z</time>
  <course>105.35</course>
  <speed>10.96</speed>
  <fix>3d</fix>
</trkpt>
<trkpt lat="-27.2737067" lon="151.2896497">
  <ele>372.74</ele>
  <time>2026-09-01T20:01:18Z</time>
  <course>106.06</course>
  <speed>10.338012381497713</speed>
  <fix>3d</fix>
</trkpt>
<trkpt lat="-27.2737016" lon="151.2896304">
  <ele>372.8</ele>
  <time>2026-09-01T20:01:18Z</time>
  <course>105.35</course>
  <speed>10.67</speed>
  <fix>3d</fix>
</trkpt>
<trkpt lat="-27.2737091" lon="151.2896598">
  <ele>372.75</ele>
  <time>2026-09-01T20:01:18Z</time>
  <course>106.05</course>
  <speed>10.182779581234193</speed>
  <fix>3d</fix>
</trkpt>
<trkpt lat="-27.2737016" lon="151.2896304">
  <ele>372.8</ele>
  <time>2026-09-01T20:01:18Z</time>
  <course>105.35</course>
  <speed>10.67</speed>
  <fix>3d</fix>
</trkpt>
<trkpt lat="-27.2737115" lon="151.2896697">
  <ele>372.77</ele>
  <time>2026-09-01T20:01:18Z</time>
  <course>106.04</course>
  <speed>10.027547057979833</speed>
  <fix>3d</fix>
</trkpt>
<trkpt lat="-27.2737066" lon="151.289651">
  <ele>372.83</ele>
  <time>2026-09-01T20:01:18Z</time>
  <course>105.36</course>
  <speed>10.38</speed>
  <fix>3d</fix>
</trkpt>
<trkpt lat="-27.2737139" lon="151.2896795">
  <ele>372.8</ele>
  <time>2026-09-01T20:01:18Z</time>
  <course>106.04</course>
  <speed>9.87231482480173</speed>
  <fix>3d</fix>
</trkpt>
<trkpt lat="-27.2737066" lon="151.289651">
  <ele>372.83</ele>
  <time>2026-09-01T20:01:18Z</time>
  <course>105.36</course>
  <speed>10.38</speed>
  <fix>3d</fix>
</trkpt>
<trkpt lat="-27.2737163" lon="151.2896891">
  <ele>372.83</ele>
  <time>2026-09-01T20:01:18Z</time>
  <course>106.04</course>
  <speed>9.695132799503059</speed>
  <fix>3d</fix>
</trkpt>
<trkpt lat="-27.2737115" lon="151.2896709">
  <ele>372.87</ele>
  <time>2026-09-01T20:01:18Z</time>
  <course>105.36</course>
  <speed>10.07</speed>
  <fix>3d</fix>
</trkpt>
<trkpt lat="-27.2737186" lon="151.2896986">
  <ele>372.86</ele>
  <time>2026-09-01T20:01:18Z</time>
  <course>106.04</course>
  <speed>9.527586263057396</speed>
  <fix>3d</fix>
</trkpt>
<trkpt lat="-27.2737115" lon="151.2896709">
  <ele>372.87</ele>
  <time>2026-09-01T20:01:18Z</time>
  <course>105.36</course>
  <speed>10.07</speed>
  <fix>3d</fix>
</trkpt>
<trkpt lat="-27.2737208" lon="151.2897078">
  <ele>372.89</ele>
  <time>2026-09-01T20:01:18Z</time>
  <course>106.04</course>
  <speed>9.340770846134703</speed>
  <fix>3d</fix>
</trkpt>
<trkpt lat="-27.2737162" lon="151.2896903">
  <ele>372.92</ele>
  <time>2026-09-01T20:01:18Z</time>
  <course>105.35</course>
  <speed>9.74</speed>
  <fix>3d</fix>
</trkpt>
<trkpt lat="-27.273723" lon="151.2897169">
  <ele>372.93</ele>
  <time>2026-09-01T20:01:18Z</time>
  <course>106.04</course>
  <speed>9.153955429212008</speed>
  <fix>3d</fix>
</trkpt>
<trkpt lat="-27.2737162" lon="151.2896903">
  <ele>372.92</ele>
  <time>2026-09-01T20:01:18Z</time>
  <course>105.35</course>
  <speed>9.74</speed>
  <fix>3d</fix>
</trkpt>
<trkpt lat="-27.2737252" lon="151.2897258">
  <ele>372.97</ele>
  <time>2026-09-01T20:01:18Z</time>
  <course>106.05</course>
  <speed>8.967140012289315</speed>
  <fix>3d</fix>
</trkpt>
<trkpt lat="-27.2737208" lon="151.2897089">
  <ele>372.98</ele>
  <time>2026-09-01T20:01:18Z</time>
  <course>105.34</course>
  <speed>9.39</speed>
  <fix>3d</fix>
</trkpt>
<trkpt lat="-27.2737273" lon="151.2897345">
  <ele>373.02</ele>
  <time>2026-09-01T20:01:18Z</time>
  <course>106.05</course>
  <speed>8.78032459536662</speed>
  <fix>3d</fix>
</trkpt>
<trkpt lat="-27.2737208" lon="151.2897089">
  <ele>372.98</ele>
  <time>2026-09-01T20:01:18Z</time>
  <course>105.34</course>
  <speed>9.39</speed>
  <fix>3d</fix>
</trkpt>
<trkpt lat="-27.2737294" lon="151.2897431">
  <ele>373.06</ele>
  <time>2026-09-01T20:01:18Z</time>
  <course>106.05</course>
  <speed>8.583874416602331</speed>
  <fix>3d</fix>
</trkpt>
<trkpt lat="-27.2737251" lon="151.2897269">
  <ele>373.06</ele>
  <time>2026-09-01T20:01:18Z</time>
  <course>105.34</course>
  <speed>9.01</speed>
  <fix>3d</fix>
</trkpt>
<trkpt lat="-27.2737314" lon="151.2897514">
  <ele>373.11</ele>
  <time>2026-09-01T20:01:18Z</time>
  <course>106.06</course>
  <speed>8.38474805823049</speed>
  <fix>3d</fix>
</trkpt>
<trkpt lat="-27.2737251" lon="151.2897269">
  <ele>373.06</ele>
  <time>2026-09-01T20:01:18Z</time>
  <course>105.34</course>
  <speed>9.01</speed>
  <fix>3d</fix>
</trkpt>
<trkpt lat="-27.2737334" lon="151.2897595">
  <ele>373.15</ele>
  <time>2026-09-01T20:01:18Z</time>
  <course>106.06</course>
  <speed>8.18829652614022</speed>
  <fix>3d</fix>
</trkpt>
<trkpt lat="-27.2737293" lon="151.2897441">
  <ele>373.14</ele>
  <time>2026-09-01T20:01:18Z</time>
  <course>105.33</course>
  <speed>8.62</speed>
  <fix>3d</fix>
</trkpt>
<trkpt lat="-27.2737353" lon="151.2897675">
  <ele>373.19</ele>
  <time>2026-09-01T20:01:18Z</time>
  <course>106.06</course>
  <speed>7.989173924755926</speed>
  <fix>3d</fix>
</trkpt>
<trkpt lat="-27.2737293" lon="151.2897441">
  <ele>373.14</ele>
  <time>2026-09-01T20:01:18Z</time>
  <course>105.33</course>
  <speed>8.62</speed>
  <fix>3d</fix>
</trkpt>
<trkpt lat="-27.2737372" lon="151.2897752">
  <ele>373.23</ele>
  <time>2026-09-01T20:01:18Z</time>
  <course>106.07</course>
  <speed>7.792720962539337</speed>
  <fix>3d</fix>
</trkpt>
<trkpt lat="-27.2737333" lon="151.2897605">
  <ele>373.22</ele>
  <time>2026-09-01T20:01:18Z</time>
  <course>105.31</course>
  <speed>8.22</speed>
  <fix>3d</fix>
</trkpt>
<trkpt lat="-27.273739" lon="151.2897828">
  <ele>373.27</ele>
  <time>2026-09-01T20:01:18Z</time>
  <course>106.07</course>
  <speed>7.583963343793271</speed>
  <fix>3d</fix>
</trkpt>
<trkpt lat="-27.2737333" lon="151.2897605">
  <ele>373.22</ele>
  <time>2026-09-01T20:01:18Z</time>
  <course>105.31</course>
  <speed>8.22</speed>
  <fix>3d</fix>
</trkpt>
<trkpt lat="-27.2737408" lon="151.2897902">
  <ele>373.31</ele>
  <time>2026-09-01T20:01:18Z</time>
  <course>106.07</course>
  <speed>7.3875097292660135</speed>
  <fix>3d</fix>
</trkpt>
<trkpt lat="-27.2737371" lon="151.2897762">
  <ele>373.31</ele>
  <time>2026-09-01T20:01:18Z</time>
  <course>105.3</course>
  <speed>7.82</speed>
  <fix>3d</fix>
</trkpt>
<trkpt lat="-27.2737425" lon="151.2897974">
  <ele>373.34</ele>
  <time>2026-09-01T20:01:18Z</time>
  <course>106.07</course>
  <speed>7.188393422733623</speed>
  <fix>3d</fix>
</trkpt>
<trkpt lat="-27.2737371" lon="151.2897762">
  <ele>373.31</ele>
  <time>2026-09-01T20:01:18Z</time>
  <course>105.3</course>
  <speed>7.82</speed>
  <fix>3d</fix>
</trkpt>
<trkpt lat="-27.2737442" lon="151.2898044">
  <ele>373.36</ele>
  <time>2026-09-01T20:01:18Z</time>
  <course>106.07</course>
  <speed>6.9919382148299905</speed>
  <fix>3d</fix>
</trkpt>
<trkpt lat="-27.2737407" lon="151.289791">
  <ele>373.38</ele>
  <time>2026-09-01T20:01:18Z</time>
  <course>105.27</course>
  <speed>7.42</speed>
  <fix>3d</fix>
</trkpt>
<trkpt lat="-27.2737458" lon="151.2898111">
  <ele>373.38</ele>
  <time>2026-09-01T20:01:18Z</time>
  <course>106.06</course>
  <speed>6.792827099227537</speed>
  <fix>3d</fix>
</trkpt>
<trkpt lat="-27.2737407" lon="151.289791">
  <ele>373.38</ele>
  <time>2026-09-01T20:01:18Z</time>
  <course>105.27</course>
  <speed>7.42</speed>
  <fix>3d</fix>
</trkpt>
<trkpt lat="-27.2737474" lon="151.2898177">
  <ele>373.39</ele>
  <time>2026-09-01T20:01:18Z</time>
  <course>106.05</course>
  <speed>6.606012412946256</speed>
  <fix>3d</fix>
</trkpt>
<trkpt lat="-27.2737441" lon="151.2898051">
  <ele>373.43</ele>
  <time>2026-09-01T20:01:18Z</time>
  <course>105.24</course>
  <speed>7.02</speed>
  <fix>3d</fix>
</trkpt>
<trkpt lat="-27.2737489" lon="151.2898241">
  <ele>373.35</ele>
  <time>2026-09-01T20:01:18Z</time>
  <course>106.04</course>
  <speed>6.377977735928528</speed>
  <fix>3d</fix>
</trkpt>
<trkpt lat="-27.2737441" lon="151.2898051">
  <ele>373.43</ele>
  <time>2026-09-01T20:01:18Z</time>
  <course>105.24</course>
  <speed>7.02</speed>
  <fix>3d</fix>
</trkpt>
<trkpt lat="-27.2737504" lon="151.2898302">
  <ele>373.25</ele>
  <time>2026-09-01T20:01:18Z</time>
  <course>106.06</course>
  <speed>6.001708090202321</speed>
  <fix>3d</fix>
</trkpt>
<trkpt lat="-27.2737474" lon="151.2898184">
  <ele>373.43</ele>
  <time>2026-09-01T20:01:18Z</time>
  <course>105.2</course>
  <speed>6.62</speed>
  <fix>3d</fix>
</trkpt>
<trkpt lat="-27.2737517" lon="151.2898358">
  <ele>373.1</ele>
  <time>2026-09-01T20:01:18Z</time>
  <course>106.15</course>
  <speed>5.492139837986648</speed>
  <fix>3d</fix>
</trkpt>
<trkpt lat="-27.2737474" lon="151.2898184">
  <ele>373.43</ele>
  <time>2026-09-01T20:01:18Z</time>
  <course>105.2</course>
  <speed>6.62</speed>
  <fix>3d</fix>
</trkpt>
<trkpt lat="-27.273753" lon="151.289841">
  <ele>372.93</ele>
  <time>2026-09-01T20:01:18Z</time>
  <course>106.31</course>
  <speed>4.919441025157228</speed>
  <fix>3d</fix>
</trkpt>
<trkpt lat="-27.2737504" lon="151.2898307">
  <ele>373.3</ele>
  <time>2026-09-01T20:01:18Z</time>
  <course>105.16</course>
  <speed>5.97</speed>
  <fix>3d</fix>
</trkpt>
<trkpt lat="-27.273754" lon="151.2898455">
  <ele>372.74</ele>
  <time>2026-09-01T20:01:18Z</time>
  <course>106.52</course>
  <speed>4.317788785941248</speed>
  <fix>3d</fix>
</trkpt>
<trkpt lat="-27.2737504" lon="151.2898307">
  <ele>373.3</ele>
  <time>2026-09-01T20:01:18Z</time>
  <course>105.16</course>
  <speed>5.97</speed>
  <fix>3d</fix>
</trkpt>
<trkpt lat="-27.273755" lon="151.2898495">
  <ele>372.55</ele>
  <time>2026-09-01T20:01:18Z</time>
  <course>106.73</course>
  <speed>3.713569711207802</speed>
  <fix>3d</fix>
</trkpt>
<trkpt lat="-27.2737529" lon="151.2898414">
  <ele>373.0</ele>
  <time>2026-09-01T20:01:18Z</time>
  <course>105.09</course>
  <speed>4.94</speed>
  <fix>3d</fix>
</trkpt>
<trkpt lat="-27.2737557" lon="151.2898529">
  <ele>372.37</ele>
  <time>2026-09-01T20:01:18Z</time>
  <course>106.93</course>
  <speed>3.14350123270216</speed>
  <fix>3d</fix>
</trkpt>
<trkpt lat="-27.2737529" lon="151.2898414">
  <ele>373.0</ele>
  <time>2026-09-01T20:01:18Z</time>
  <course>105.09</course>
  <speed>4.94</speed>
  <fix>3d</fix>
</trkpt>
<trkpt lat="-27.2737564" lon="151.2898557">
  <ele>372.21</ele>
  <time>2026-09-01T20:01:18Z</time>
  <course>107.12</course>
  <speed>2.604995201531089</speed>
  <fix>3d</fix>
</trkpt>
<trkpt lat="-27.273755" lon="151.2898499">
  <ele>372.63</ele>
  <time>2026-09-01T20:01:18Z</time>
  <course>105.01</course>
  <speed>3.77</speed>
  <fix>3d</fix>
</trkpt>
<trkpt lat="-27.2737569" lon="151.2898581">
  <ele>372.07</ele>
  <time>2026-09-01T20:01:18Z</time>
  <course>107.27</course>
  <speed>2.1102606474082766</speed>
  <fix>3d</fix>
</trkpt>
<trkpt lat="-27.273755" lon="151.2898499">
  <ele>372.63</ele>
  <time>2026-09-01T20:01:18Z</time>
  <course>105.01</course>
  <speed>3.77</speed>
  <fix>3d</fix>
</trkpt>
<trkpt lat="-27.2737574" lon="151.28986">
  <ele>371.95</ele>
  <time>2026-09-01T20:01:18Z</time>
  <course>107.39</course>
  <speed>1.6760966559241146</speed>
  <fix>3d</fix>
</trkpt>
<trkpt lat="-27.2737565" lon="151.2898561">
  <ele>372.29</ele>
  <time>2026-09-01T20:01:18Z</time>
  <course>105.04</course>
  <speed>2.66</speed>
  <fix>3d</fix>
</trkpt>
<trkpt lat="-27.2737577" lon="151.2898614">
  <ele>371.86</ele>
  <time>2026-09-01T20:01:18Z</time>
  <course>107.48</course>
  <speed>1.295414991421668</speed>
  <fix>3d</fix>
</trkpt>
<trkpt lat="-27.2737565" lon="151.2898561">
  <ele>372.29</ele>
  <time>2026-09-01T20:01:18Z</time>
  <course>105.04</course>
  <speed>2.66</speed>
  <fix>3d</fix>
</trkpt>
<trkpt lat="-27.273758" lon="151.2898626">
  <ele>371.79</ele>
  <time>2026-09-01T20:01:18Z</time>
  <course>107.54</course>
  <speed>0.978008179924892</speed>
  <fix>3d</fix>
</trkpt>
<trkpt lat="-27.2737575" lon="151.2898604">
  <ele>372.03</ele>
  <time>2026-09-01T20:01:18Z</time>
  <course>105.43</course>
  <speed>1.73</speed>
  <fix>3d</fix>
</trkpt>
<trkpt lat="-27.2737583" lon="151.2898635">
  <ele>371.76</ele>
  <time>2026-09-01T20:01:18Z</time>
  <course>107.57</course>
  <speed>0.7212489168102785</speed>
  <fix>3d</fix>
</trkpt>
<trkpt lat="-27.2737575" lon="151.2898604">
  <ele>372.03</ele>
  <time>2026-09-01T20:01:18Z</time>
  <course>105.43</course>
  <speed>1.73</speed>
  <fix>3d</fix>
</trkpt>
<trkpt lat="-27.2737585" lon="151.2898641">
  <ele>371.76</ele>
  <time>2026-09-01T20:01:18Z</time>
  <course>107.59</course>
  <speed>0.5092150822589606</speed>
  <fix>3d</fix>
</trkpt>
<trkpt lat="-27.2737582" lon="151.2898631">
  <ele>371.88</ele>
  <time>2026-09-01T20:01:18Z</time>
  <course>106.68</course>
  <speed>1.03</speed>
  <fix>3d</fix>
</trkpt>
<trkpt lat="-27.2737586" lon="151.2898645">
  <ele>371.78</ele>
  <time>2026-09-01T20:01:18Z</time>
  <course>107.58</course>
  <speed>0.3624913792078372</speed>
  <fix>3d</fix>
</trkpt>
<trkpt lat="-27.2737582" lon="151.2898631">
  <ele>371.88</ele>
  <time>2026-09-01T20:01:18Z</time>
  <course>106.68</course>
  <speed>1.03</speed>
  <fix>3d</fix>
</trkpt>
<trkpt lat="-27.2737587" lon="151.2898649">
  <ele>371.82</ele>
  <time>2026-09-01T20:01:18Z</time>
  <course>107.58</course>
  <speed>0.2641968962724581</speed>
  <fix>3d</fix>
</trkpt>
<trkpt lat="-27.2737586" lon="151.2898645">
  <ele>371.84</ele>
  <time>2026-09-01T20:01:18Z</time>
  <course>110.06</course>
  <speed>0.55</speed>
  <fix>3d</fix>
</trkpt>
<trkpt lat="-27.2737589" lon="151.2898651">
  <ele>371.88</ele>
  <time>2026-09-01T20:01:18Z</time>
  <course>107.57</course>
  <speed>0.19209372712298545</speed>
  <fix>3d</fix>
</trkpt>
<trkpt lat="-27.2737586" lon="151.2898645">
  <ele>371.84</ele>
  <time>2026-09-01T20:01:18Z</time>
  <course>110.06</course>
  <speed>0.55</speed>
  <fix>3d</fix>
</trkpt>
<trkpt lat="-27.273759" lon="151.2898653">
  <ele>371.95</ele>
  <time>2026-09-01T20:01:18Z</time>
  <course>107.57</course>
  <speed>0.14866068747318506</speed>
  <fix>3d</fix>
</trkpt>
<trkpt lat="-27.2737589" lon="151.2898653">
  <ele>371.9</ele>
  <time>2026-09-01T20:01:18Z</time>
  <course>117.99</course>
  <speed>0.29</speed>
  <fix>3d</fix>
</trkpt>
<trkpt lat="-27.2737591" lon="151.2898654">
  <ele>372.03</ele>
  <time>2026-09-01T20:01:18Z</time>
  <course>107.58</course>
  <speed>0.12529964086141668</speed>
  <fix>3d</fix>
</trkpt>
<trkpt lat="-27.2737589" lon="151.2898653">
  <ele>371.9</ele>
  <time>2026-09-01T20:01:18Z</time>
  <course>117.99</course>
  <speed>0.29</speed>
  <fix>3d</fix>
</trkpt>
<trkpt lat="-27.2737592" lon="151.2898655">
  <ele>372.1</ele>
  <time>2026-09-01T20:01:18Z</time>
  <course>107.6</course>
  <speed>0.10770329614269007</speed>
  <fix>3d</fix>
</trkpt>
<trkpt lat="-27.2737591" lon="151.2898657">
  <ele>372.03</ele>
  <time>2026-09-01T20:01:18Z</time>
  <course>132.44</course>
  <speed>0.16</speed>
  <fix>3d</fix>
</trkpt>
<trkpt lat="-27.2737593" lon="151.2898656">
  <ele>372.18</ele>
  <time>2026-09-01T20:01:18Z</time>
  <course>107.63</course>
  <speed>0.1004987562112089</speed>
  <fix>3d</fix>
</trkpt>
<trkpt lat="-27.2737591" lon="151.2898657">
  <ele>372.03</ele>
  <time>2026-09-01T20:01:18Z</time>
  <course>132.44</course>
  <speed>0.16</speed>
  <fix>3d</fix>
</trkpt>
<trkpt lat="-27.2737594" lon="151.2898656">
  <ele>372.25</ele>
  <time>2026-09-01T20:01:18Z</time>
  <course>107.68</course>
  <speed>0.1</speed>
  <fix>3d</fix>
</trkpt>
<trkpt lat="-27.2737593" lon="151.2898659">
  <ele>372.18</ele>
  <time>2026-09-01T20:01:18Z</time>
  <course>152.31</course>
  <speed>0.1</speed>
  <fix>3d</fix>
</trkpt>
<trkpt lat="-27.2737595" lon="151.2898656">
  <ele>372.31</ele>
  <time>2026-09-01T20:01:18Z</time>
  <course>107.72</course>
  <speed>0.09055385138137417</speed>
  <fix>3d</fix>
</trkpt>
<trkpt lat="-27.2737593" lon="151.2898659">
  <ele>372.18</ele>
  <time>2026-09-01T20:01:18Z</time>
  <course>152.31</course>
  <speed>0.1</speed>
  <fix>3d</fix>
</trkpt>
<trkpt lat="-27.2737596" lon="151.2898656">
  <ele>372.37</ele>
  <time>2026-09-01T20:01:18Z</time>
  <course>107.75</course>
  <speed>0.09055385138137417</speed>
  <fix>3d</fix>
</trkpt>
<trkpt lat="-27.2737594" lon="151.289866">
  <ele>372.32</ele>
  <time>2026-09-01T20:01:18Z</time>
  <course>173.47</course>
  <speed>0.08</speed>
  <fix>3d</fix>
</trkpt>
<trkpt lat="-27.2737597" lon="151.2898656">
  <ele>372.41</ele>
  <time>2026-09-01T20:01:18Z</time>
  <course>107.75</course>
  <speed>0.09219544457292887</speed>
  <fix>3d</fix>
</trkpt>
<trkpt lat="-27.2737594" lon="151.289866">
  <ele>372.32</ele>
  <time>2026-09-01T20:01:18Z</time>
  <course>173.47</course>
  <speed>0.08</speed>
  <fix>3d</fix>
</trkpt>
<trkpt lat="-27.2737597" lon="151.2898657">
  <ele>372.44</ele>
  <time>2026-09-01T20:01:18Z</time>
  <course>107.73</course>
  <speed>0.09219544457292887</speed>
  <fix>3d</fix>
</trkpt>
<trkpt lat="-27.2737596" lon="151.289866">
  <ele>372.43</ele>
  <time>2026-09-01T20:01:18Z</time>
  <course>189.46</course>
  <speed>0.07</speed>
  <fix>3d</fix>
</trkpt>
<trkpt lat="-27.2737598" lon="151.2898657">
  <ele>372.46</ele>
  <time>2026-09-01T20:01:18Z</time>
  <course>107.67</course>
  <speed>0.09219544457292887</speed>
  <fix>3d</fix>
</trkpt>
<trkpt lat="-27.2737596" lon="151.289866">
  <ele>372.43</ele>
  <time>2026-09-01T20:01:18Z</time>
  <course>189.46</course>
  <speed>0.07</speed>
  <fix>3d</fix>
</trkpt>
<trkpt lat="-27.2737599" lon="151.2898657">
  <ele>372.46</ele>
  <time>2026-09-01T20:01:18Z</time>
  <course>107.6</course>
  <speed>0.1004987562112089</speed>
  <fix>3d</fix>
</trkpt>
<trkpt lat="-27.2737597" lon="151.289866">
  <ele>372.5</ele>
  <time>2026-09-01T20:01:18Z</time>
  <course>194.02</course>
  <speed>0.06</speed>
  <fix>3d</fix>
</trkpt>
<trkpt lat="-27.27376" lon="151.2898657">
  <ele>372.46</ele>
  <time>2026-09-01T20:01:18Z</time>
  <course>107.52</course>
  <speed>0.1</speed>
  <fix>3d</fix>
</trkpt>
<trkpt lat="-27.2737597" lon="151.289866">
  <ele>372.5</ele>
  <time>2026-09-01T20:01:18Z</time>
  <course>194.02</course>
  <speed>0.06</speed>
  <fix>3d</fix>
</trkpt>
<trkpt lat="-27.27376" lon="151.2898657">
  <ele>372.45</ele>
  <time>2026-09-01T20:01:18Z</time>
  <course>107.44</course>
  <speed>0.1118033988749895</speed>
  <fix>3d</fix>
</trkpt>
<trkpt lat="-27.2737598" lon="151.289866">
  <ele>372.52</ele>
  <time>2026-09-01T20:01:18Z</time>
  <course>182.16</course>
  <speed>0.06</speed>
  <fix>3d</fix>
</trkpt>
<trkpt lat="-27.2737601" lon="151.2898658">
  <ele>372.43</ele>
  <time>2026-09-01T20:01:18Z</time>
  <course>107.39</course>
  <speed>0.12083045973594572</speed>
  <fix>3d</fix>
</trkpt>
<trkpt lat="-27.2737598" lon="151.289866">
  <ele>372.52</ele>
  <time>2026-09-01T20:01:18Z</time>
  <course>182.16</course>
  <speed>0.06</speed>
  <fix>3d</fix>
</trkpt>
<trkpt lat="-27.2737602" lon="151.2898659">
  <ele>372.41</ele>
  <time>2026-09-01T20:01:18Z</time>
  <course>107.35</course>
  <speed>0.14422205101855956</speed>
  <fix>3d</fix>
</trkpt>
<trkpt lat="-27.2737599" lon="151.289866">
  <ele>372.5</ele>
  <time>2026-09-01T20:01:18Z</time>
  <course>154.49</course>
  <speed>0.07</speed>
  <fix>3d</fix>
</trkpt>
<trkpt lat="-27.2737603" lon="151.289866">
  <ele>372.39</ele>
  <time>2026-09-01T20:01:18Z</time>
  <course>107.35</course>
  <speed>0.17029386365926402</speed>
  <fix>3d</fix>
</trkpt>
<trkpt lat="-27.2737599" lon="151.289866">
  <ele>372.5</ele>
  <time>2026-09-01T20:01:18Z</time>
  <course>154.49</course>
  <speed>0.07</speed>
  <fix>3d</fix>
</trkpt>
<trkpt lat="-27.2737604" lon="151.2898661">
  <ele>372.37</ele>
  <time>2026-09-01T20:01:18Z</time>
  <course>107.36</course>
  <speed>0.212602916254693</speed>
  <fix>3d</fix>
</trkpt>
<trkpt lat="-27.27376" lon="151.289866">
  <ele>372.47</ele>
  <time>2026-09-01T20:01:18Z</time>
  <course>130.25</course>
  <speed>0.12</speed>
  <fix>3d</fix>
</trkpt>
<trkpt lat="-27.2737605" lon="151.2898663">
  <ele>372.35</ele>
  <time>2026-09-01T20:01:18Z</time>
  <course>107.38</course>
  <speed>0.25</speed>
  <fix>3d</fix>
</trkpt>
<trkpt lat="-27.27376" lon="151.289866">
  <ele>372.47</ele>
  <time>2026-09-01T20:01:18Z</time>
  <course>130.25</course>
  <speed>0.12</speed>
  <fix>3d</fix>
</trkpt>
<trkpt lat="-27.2737606" lon="151.2898666">
  <ele>372.33</ele>
  <time>2026-09-01T20:01:18Z</time>
  <course>107.41</course>
  <speed>0.2968164415931166</speed>
  <fix>3d</fix>
</trkpt>
<trkpt lat="-27.2737602" lon="151.2898663">
  <ele>372.42</ele>
  <time>2026-09-01T20:01:18Z</time>
  <course>117.6</course>
  <speed>0.19</speed>
  <fix>3d</fix>
</trkpt>
<trkpt lat="-27.2737607" lon="151.2898669">
  <ele>372.31</ele>
  <time>2026-09-01T20:01:18Z</time>
  <course>107.43</course>
  <speed>0.3535533905932738</speed>
  <fix>3d</fix>
</trkpt>
<trkpt lat="-27.2737602" lon="151.2898663">
  <ele>372.42</ele>
  <time>2026-09-01T20:01:18Z</time>
  <course>117.6</course>
  <speed>0.19</speed>
  <fix>3d</fix>
</trkpt>
<trkpt lat="-27.2737609" lon="151.2898672">
  <ele>372.3</ele>
  <time>2026-09-01T20:01:18Z</time>
  <course>107.45</course>
  <speed>0.4114608122288197</speed>
  <fix>3d</fix>
</trkpt>
<trkpt lat="-27.2737604" lon="151.2898667">
  <ele>372.38</ele>
  <time>2026-09-01T20:01:18Z</time>
  <course>111.35</course>
  <speed>0.29</speed>
  <fix>3d</fix>
</trkpt>
<trkpt lat="-27.273761" lon="151.2898677">
  <ele>372.29</ele>
  <time>2026-09-01T20:01:18Z</time>
  <course>107.46</course>
  <speed>0.4609772228646444</speed>
  <fix>3d</fix>
</trkpt>
<trkpt lat="-27.2737604" lon="151.2898667">
  <ele>372.38</ele>
  <time>2026-09-01T20:01:18Z</time>
  <course>111.35</course>
  <speed>0.29</speed>
  <fix>3d</fix>
</trkpt>
<trkpt lat="-27.2737611" lon="151.2898681">
  <ele>372.29</ele>
  <time>2026-09-01T20:01:18Z</time>
  <course>107.46</course>
  <speed>0.5292447448959696</speed>
  <fix>3d</fix>
</trkpt>
<trkpt lat="-27.2737606" lon="151.2898674">
  <ele>372.36</ele>
  <time>2026-09-01T20:01:18Z</time>
  <course>108.05</course>
  <speed>0.4</speed>
  <fix>3d</fix>
</trkpt>
<trkpt lat="-27.2737613" lon="151.2898687">
  <ele>372.29</ele>
  <time>2026-09-01T20:01:18Z</time>
  <course>107.46</course>
  <speed>0.5923681287847955</speed>
  <fix>3d</fix>
</trkpt>
<trkpt lat="-27.2737606" lon="151.2898674">
  <ele>372.36</ele>
  <time>2026-09-01T20:01:18Z</time>
  <course>108.05</course>
  <speed>0.4</speed>
  <fix>3d</fix>
</trkpt>
<trkpt lat="-27.2737615" lon="151.2898693">
  <ele>372.3</ele>
  <time>2026-09-01T20:01:18Z</time>
  <course>107.45</course>
  <speed>0.6519202405202649</speed>
  <fix>3d</fix>
</trkpt>
<trkpt lat="-27.2737609" lon="151.2898683">
  <ele>372.35</ele>
  <time>2026-09-01T20:01:18Z</time>
  <course>106.13</course>
  <speed>0.53</speed>
  <fix>3d</fix>
</trkpt>
<trkpt lat="-27.2737616" lon="151.2898699">
  <ele>372.31</ele>
  <time>2026-09-01T20:01:18Z</time>
  <course>107.43</course>
  <speed>0.7116881339463234</speed>
  <fix>3d</fix>
</trkpt>
<trkpt lat="-27.2737609" lon="151.2898683">
  <ele>372.35</ele>
  <time>2026-09-01T20:01:18Z</time>
  <course>106.13</course>
  <speed>0.53</speed>
  <fix>3d</fix>
</trkpt>
<trkpt lat="-27.2737618" lon="151.2898707">
  <ele>372.31</ele>
  <time>2026-09-01T20:01:18Z</time>
  <course>107.41</course>
  <speed>0.771621668954417</speed>
  <fix>3d</fix>
</trkpt>
<trkpt lat="-27.2737611" lon="151.2898695">
  <ele>372.35</ele>
  <time>2026-09-01T20:01:18Z</time>
  <course>104.96</course>
  <speed>0.66</speed>
  <fix>3d</fix>
</trkpt>
<trkpt lat="-27.273762" lon="151.2898715">
  <ele>372.33</ele>
  <time>2026-09-01T20:01:18Z</time>
  <course>107.39</course>
  <speed>0.8348652585896721</speed>
  <fix>3d</fix>
</trkpt>
<trkpt lat="-27.2737611" lon="151.2898695">
  <ele>372.35</ele>
  <time>2026-09-01T20:01:18Z</time>
  <course>104.96</course>
  <speed>0.66</speed>
  <fix>3d</fix>
</trkpt>
<trkpt lat="-27.2737622" lon="151.2898723">
  <ele>372.34</ele>
  <time>2026-09-01T20:01:18Z</time>
  <course>107.37</course>
  <speed>0.8949301648732151</speed>
  <fix>3d</fix>
</trkpt>
<trkpt lat="-27.2737615" lon="151.2898709">
  <ele>372.37</ele>
  <time>2026-09-01T20:01:18Z</time>
  <course>104.23</course>
  <speed>0.78</speed>
  <fix>3d</fix>
</trkpt>
<trkpt lat="-27.2737624" lon="151.2898732">
  <ele>372.35</ele>
  <time>2026-09-01T20:01:18Z</time>
  <course>107.36</course>
  <speed>0.945568612000208</speed>
  <fix>3d</fix>
</trkpt>
<trkpt lat="-27.2737615" lon="151.2898709">
  <ele>372.37</ele>
  <time>2026-09-01T20:01:18Z</time>
  <course>104.23</course>
  <speed>0.78</speed>
  <fix>3d</fix>
</trkpt>
<trkpt lat="-27.2737626" lon="151.2898742">
  <ele>372.36</ele>
  <time>2026-09-01T20:01:18Z</time>
  <course>107.35</course>
  <speed>0.9962429422585637</speed>
  <fix>3d</fix>
</trkpt>
<trkpt lat="-27.2737618" lon="151.2898726">
  <ele>372.39</ele>
  <time>2026-09-01T20:01:18Z</time>
  <course>103.77</course>
  <speed>0.9</speed>
  <fix>3d</fix>
</trkpt>
<trkpt lat="-27.2737629" lon="151.2898752">
  <ele>372.36</ele>
  <time>2026-09-01T20:01:18Z</time>
  <course>107.35</course>
  <speed>1.0469479452198185</speed>
  <fix>3d</fix>
</trkpt>
<trkpt lat="-27.2737618" lon="151.2898726">
  <ele>372.39</ele>
  <time>2026-09-01T20:01:18Z</time>
  <course>103.77</course>
  <speed>0.9</speed>
  <fix>3d</fix>
</trkpt>
<trkpt lat="-27.2737631" lon="151.2898762">
  <ele>372.37</ele>
  <time>2026-09-01T20:01:18Z</time>
  <course>107.35</course>
  <speed>1.097679370308106</speed>
  <fix>3d</fix>
</trkpt>
<trkpt lat="-27.2737623" lon="151.2898745">
  <ele>372.41</ele>
  <time>2026-09-01T20:01:18Z</time>
  <course>103.48</course>
  <speed>1.01</speed>
  <fix>3d</fix>
</trkpt>
<trkpt lat="-27.2737634" lon="151.2898774">
  <ele>372.37</ele>
  <time>2026-09-01T20:01:18Z</time>
  <course>107.34</course>
  <speed>1.138859078200635</speed>
  <fix>3d</fix>
</trkpt>
<trkpt lat="-27.2737623" lon="151.2898745">
  <ele>372.41</ele>
  <time>2026-09-01T20:01:18Z</time>
  <course>103.48</course>
  <speed>1.01</speed>
  <fix>3d</fix>
</trkpt>
<trkpt lat="-27.2737636" lon="151.2898785">
  <ele>372.37</ele>
  <time>2026-09-01T20:01:18Z</time>
  <course>107.35</course>
  <speed>1.1800423721205946</speed>
  <fix>3d</fix>
</trkpt>
<trkpt lat="-27.2737627" lon="151.2898766">
  <ele>372.43</ele>
  <time>2026-09-01T20:01:18Z</time>
  <course>103.32</course>
  <speed>1.11</speed>
  <fix>3d</fix>
</trkpt>
<trkpt lat="-27.2737639" lon="151.2898797">
  <ele>372.37</ele>
  <time>2026-09-01T20:01:18Z</time>
  <course>107.35</course>
  <speed>1.2212288892750613</speed>
  <fix>3d</fix>
</trkpt>
<trkpt lat="-27.2737627" lon="151.2898766">
  <ele>372.43</ele>
  <time>2026-09-01T20:01:18Z</time>
  <course>103.32</course>
  <speed>1.11</speed>
  <fix>3d</fix>
</trkpt>
<trkpt lat="-27.2737641" lon="151.289881">
  <ele>372.37</ele>
  <time>2026-09-01T20:01:18Z</time>
  <course>107.35</course>
  <speed>1.25</speed>
  <fix>3d</fix>
</trkpt>
<trkpt lat="-27.2737632" lon="151.2898789">
  <ele>372.44</ele>
  <time>2026-09-01T20:01:18Z</time>
  <course>103.25</course>
  <speed>1.2</speed>
  <fix>3d</fix>
</trkpt>
<trkpt lat="-27.2737644" lon="151.2898822">
  <ele>372.37</ele>
  <time>2026-09-01T20:01:18Z</time>
  <course>107.35</course>
  <speed>1.2816005617976296</speed>
  <fix>3d</fix>
</trkpt>
<trkpt lat="-27.2737632" lon="151.2898789">
  <ele>372.44</ele>
  <time>2026-09-01T20:01:18Z</time>
  <course>103.25</course>
  <speed>1.2</speed>
  <fix>3d</fix>
</trkpt>
<trkpt lat="-27.2737647" lon="151.2898835">
  <ele>372.36</ele>
  <time>2026-09-01T20:01:18Z</time>
  <course>107.34</course>
  <speed>1.3008074415531299</speed>
  <fix>3d</fix>
</trkpt>
<trkpt lat="-27.2737637" lon="151.2898813">
  <ele>372.44</ele>
  <time>2026-09-01T20:01:18Z</time>
  <course>103.25</course>
  <speed>1.27</speed>
  <fix>3d</fix>
</trkpt>
<trkpt lat="-27.2737649" lon="151.2898848">
  <ele>372.36</ele>
  <time>2026-09-01T20:01:18Z</time>
  <course>107.33</course>
  <speed>1.322800060477773</speed>
  <fix>3d</fix>
</trkpt>
<trkpt lat="-27.2737637" lon="151.2898813">
  <ele>372.44</ele>
  <time>2026-09-01T20:01:18Z</time>
  <course>103.25</course>
  <speed>1.27</speed>
  <fix>3d</fix>
</trkpt>
<trkpt lat="-27.2737652" lon="151.2898861">
  <ele>372.36</ele>
  <time>2026-09-01T20:01:18Z</time>
  <course>107.32</course>
  <speed>1.3324038426843419</speed>
  <fix>3d</fix>
</trkpt>
<trkpt lat="-27.2737642" lon="151.2898839">
  <ele>372.44</ele>
  <time>2026-09-01T20:01:18Z</time>
  <course>103.28</course>
  <speed>1.32</speed>
  <fix>3d</fix>
</trkpt>
<trkpt lat="-27.2737655" lon="151.2898875">
  <ele>372.35</ele>
  <time>2026-09-01T20:01:18Z</time>
  <course>107.32</course>
  <speed>1.3420134127496641</speed>
  <fix>3d</fix>
</trkpt>
<trkpt lat="-27.2737642" lon="151.2898839">
  <ele>372.44</ele>
  <time>2026-09-01T20:01:18Z</time>
  <course>103.28</course>
  <speed>1.32</speed>
  <fix>3d</fix>
</trkpt>
<trkpt lat="-27.2737658" lon="151.2898888">
  <ele>372.35</ele>
  <time>2026-09-01T20:01:18Z</time>
  <course>107.31</course>
  <speed>1.3420134127496641</speed>
  <fix>3d</fix>
</trkpt>
<trkpt lat="-27.2737648" lon="151.2898865">
  <ele>372.44</ele>
  <time>2026-09-01T20:01:18Z</time>
  <course>103.33</course>
  <speed>1.36</speed>
  <fix>3d</fix>
</trkpt>
<trkpt lat="-27.2737661" lon="151.2898902">
  <ele>372.34</ele>
  <time>2026-09-01T20:01:18Z</time>
  <course>107.31</course>
  <speed>1.3420134127496641</speed>
  <fix>3d</fix>
</trkpt>
<trkpt lat="-27.2737648" lon="151.2898865">
  <ele>372.44</ele>
  <time>2026-09-01T20:01:18Z</time>
  <course>103.33</course>
  <speed>1.36</speed>
  <fix>3d</fix>
</trkpt>
<trkpt lat="-27.2737663" lon="151.2898915">
  <ele>372.33</ele>
  <time>2026-09-01T20:01:18Z</time>
  <course>107.31</course>
  <speed>1.3420134127496641</speed>
  <fix>3d</fix>
</trkpt>
<trkpt lat="-27.2737654" lon="151.2898892">
  <ele>372.43</ele>
  <time>2026-09-01T20:01:18Z</time>
  <course>103.44</course>
  <speed>1.37</speed>
  <fix>3d</fix>
</trkpt>
<trkpt lat="-27.2737666" lon="151.2898928">
  <ele>372.3</ele>
  <time>2026-09-01T20:01:18Z</time>
  <course>107.31</course>
  <speed>1.3324038426843419</speed>
  <fix>3d</fix>
</trkpt>
<trkpt lat="-27.2737654" lon="151.2898892">
  <ele>372.43</ele>
  <time>2026-09-01T20:01:18Z</time>
  <course>103.44</course>
  <speed>1.37</speed>
  <fix>3d</fix>
</trkpt>
<trkpt lat="-27.2737669" lon="151.2898942">
  <ele>372.26</ele>
  <time>2026-09-01T20:01:18Z</time>
  <course>107.31</course>
  <speed>1.322800060477773</speed>
  <fix>3d</fix>
</trkpt>
<trkpt lat="-27.273766" lon="151.2898919">
  <ele>372.41</ele>
  <time>2026-09-01T20:01:18Z</time>
  <course>103.58</course>
  <speed>1.37</speed>
  <fix>3d</fix>
</trkpt>
<trkpt lat="-27.2737672" lon="151.2898955">
  <ele>372.2</ele>
  <time>2026-09-01T20:01:18Z</time>
  <course>107.31</course>
  <speed>1.313202193114221</speed>
  <fix>3d</fix>
</trkpt>
<trkpt lat="-27.273766" lon="151.2898919">
  <ele>372.41</ele>
  <time>2026-09-01T20:01:18Z</time>
  <course>103.58</course>
  <speed>1.37</speed>
  <fix>3d</fix>
</trkpt>
<trkpt lat="-27.2737675" lon="151.2898968">
  <ele>372.12</ele>
  <time>2026-09-01T20:01:19Z</time>
  <course>107.31</course>
  <speed>1.2912009913255178</speed>
  <fix>3d</fix>
</trkpt>
<trkpt lat="-27.2737665" lon="151.2898946">
  <ele>372.34</ele>
  <time>2026-09-01T20:01:19Z</time>
  <course>103.77</course>
  <speed>1.36</speed>
  <fix>3d</fix>
</trkpt>
<trkpt lat="-27.2737678" lon="151.2898981">
  <ele>372.03</ele>
  <time>2026-09-01T20:01:19Z</time>
  <course>107.31</course>
  <speed>1.2596031120952345</speed>
  <fix>3d</fix>
</trkpt>
<trkpt lat="-27.2737665" lon="151.2898946">
  <ele>372.34</ele>
  <time>2026-09-01T20:01:19Z</time>
  <course>103.77</course>
  <speed>1.36</speed>
  <fix>3d</fix>
</trkpt>
<trkpt lat="-27.273768" lon="151.2898993">
  <ele>371.91</ele>
  <time>2026-09-01T20:01:19Z</time>
  <course>107.3</course>
  <speed>1.218400590938793</speed>
  <fix>3d</fix>
</trkpt>
<trkpt lat="-27.2737671" lon="151.2898973">
  <ele>372.2</ele>
  <time>2026-09-01T20:01:19Z</time>
  <course>103.98</course>
  <speed>1.32</speed>
  <fix>3d</fix>
</trkpt>
<trkpt lat="-27.2737683" lon="151.2899005">
  <ele>371.78</ele>
  <time>2026-09-01T20:01:19Z</time>
  <course>107.3</course>
  <speed>1.1676043850551436</speed>
  <fix>3d</fix>
</trkpt>
<trkpt lat="-27.2737671" lon="151.2898973">
  <ele>372.2</ele>
  <time>2026-09-01T20:01:19Z</time>
  <course>103.98</course>
  <speed>1.32</speed>
  <fix>3d</fix>
</trkpt>
<trkpt lat="-27.2737685" lon="151.2899017">
  <ele>371.64</ele>
  <time>2026-09-01T20:01:19Z</time>
  <course>107.3</course>
  <speed>1.1168258592994702</speed>
  <fix>3d</fix>
</trkpt>
<trkpt lat="-27.2737677" lon="151.2898998">
  <ele>371.99</ele>
  <time>2026-09-01T20:01:19Z</time>
  <course>104.21</course>
  <speed>1.25</speed>
  <fix>3d</fix>
</trkpt>
<trkpt lat="-27.2737688" lon="151.2899028">
  <ele>371.48</ele>
  <time>2026-09-01T20:01:19Z</time>
  <course>107.3</course>
  <speed>1.0660675400742676</speed>
  <fix>3d</fix>
</trkpt>
<trkpt lat="-27.2737677" lon="151.2898998">
  <ele>371.99</ele>
  <time>2026-09-01T20:01:19Z</time>
  <course>104.21</course>
  <speed>1.25</speed>
  <fix>3d</fix>
</trkpt>
<trkpt lat="-27.273769" lon="151.2899038">
  <ele>371.32</ele>
  <time>2026-09-01T20:01:19Z</time>
  <course>107.29</course>
  <speed>1.0057832768544126</speed>
  <fix>3d</fix>
</trkpt>
<trkpt lat="-27.2737682" lon="151.2899021">
  <ele>371.72</ele>
  <time>2026-09-01T20:01:19Z</time>
  <course>104.5</course>
  <speed>1.15</speed>
  <fix>3d</fix>
</trkpt>
<trkpt lat="-27.2737693" lon="151.2899048">
  <ele>371.16</ele>
  <time>2026-09-01T20:01:19Z</time>
  <course>107.3</course>
  <speed>0.9425497334358544</speed>
  <fix>3d</fix>
</trkpt>
<trkpt lat="-27.2737682" lon="151.2899021">
  <ele>371.72</ele>
  <time>2026-09-01T20:01:19Z</time>
  <course>104.5</course>
  <speed>1.15</speed>
  <fix>3d</fix>
</trkpt>
<trkpt lat="-27.2737695" lon="151.2899057">
  <ele>370.99</ele>
  <time>2026-09-01T20:01:19Z</time>
  <course>107.31</course>
  <speed>0.8728115489611719</speed>
  <fix>3d</fix>
</trkpt>
<trkpt lat="-27.2737687" lon="151.2899043">
  <ele>371.41</ele>
  <time>2026-09-01T20:01:19Z</time>
  <course>104.9</course>
  <speed>1.04</speed>
  <fix>3d</fix>
</trkpt>
<trkpt lat="-27.2737697" lon="151.2899066">
  <ele>370.81</ele>
  <time>2026-09-01T20:01:19Z</time>
  <course>107.32</course>
  <speed>0.8000624975587844</speed>
  <fix>3d</fix>
</trkpt>
<trkpt lat="-27.2737691" lon="151.2899062">
  <ele>371.08</ele>
  <time>2026-09-01T20:01:19Z</time>
  <course>105.42</course>
  <speed>0.91</speed>
  <fix>3d</fix>
</trkpt>
<trkpt lat="-27.2737699" lon="151.2899074">
  <ele>370.65</ele>
  <time>2026-09-01T20:01:19Z</time>
  <course>107.33</course>
  <speed>0.74</speed>
  <fix>3d</fix>
</trkpt>
<trkpt lat="-27.2737691" lon="151.2899062">
  <ele>371.08</ele>
  <time>2026-09-01T20:01:19Z</time>
  <course>105.42</course>
  <speed>0.91</speed>
  <fix>3d</fix>
</trkpt>
<trkpt lat="-27.27377" lon="151.2899081">
  <ele>370.48</ele>
  <time>2026-09-01T20:01:19Z</time>
  <course>107.35</course>
  <speed>0.6673080248281148</speed>
  <fix>3d</fix>
</trkpt>
<trkpt lat="-27.2737696" lon="151.2899079">
  <ele>370.74</ele>
  <time>2026-09-01T20:01:19Z</time>
  <course>106.12</course>
  <speed>0.78</speed>
  <fix>3d</fix>
</trkpt>
<trkpt lat="-27.2737702" lon="151.2899088">
  <ele>370.32</ele>
  <time>2026-09-01T20:01:19Z</time>
  <course>107.37</course>
  <speed>0.5980802621722272</speed>
  <fix>3d</fix>
</trkpt>
<trkpt lat="-27.2737696" lon="151.2899079">
  <ele>370.74</ele>
  <time>2026-09-01T20:01:19Z</time>
  <course>106.12</course>
  <speed>0.78</speed>
  <fix>3d</fix>
</trkpt>
<trkpt lat="-27.2737704" lon="151.2899093">
  <ele>370.16</ele>
  <time>2026-09-01T20:01:19Z</time>
  <course>107.39</course>
  <speed>0.5348831648126533</speed>
  <fix>3d</fix>
</trkpt>
<trkpt lat="-27.2737699" lon="151.2899092">
  <ele>370.41</ele>
  <time>2026-09-01T20:01:19Z</time>
  <course>107.08</course>
  <speed>0.64</speed>
  <fix>3d</fix>
</trkpt>
<trkpt lat="-27.2737705" lon="151.2899099">
  <ele>370.0</ele>
  <time>2026-09-01T20:01:19Z</time>
  <course>107.41</course>
  <speed>0.4661544808322666</speed>
  <fix>3d</fix>
</trkpt>
<trkpt lat="-27.2737699" lon="151.2899092">
  <ele>370.41</ele>
  <time>2026-09-01T20:01:19Z</time>
  <course>107.08</course>
  <speed>0.64</speed>
  <fix>3d</fix>
</trkpt>
<trkpt lat="-27.2737706" lon="151.2899103">
  <ele>369.86</ele>
  <time>2026-09-01T20:01:19Z</time>
  <course>107.43</course>
  <speed>0.40718546143004664</speed>
  <fix>3d</fix>
</trkpt>
<trkpt lat="-27.2737699" lon="151.2899092">
  <ele>370.41</ele>
  <time>2026-09-01T20:01:19Z</time>
  <course>107.08</course>
  <speed>0.64</speed>
  <fix>3d</fix>
</trkpt>
<trkpt lat="-27.2737707" lon="151.2899107">
  <ele>369.71</ele>
  <time>2026-09-01T20:01:19Z</time>
  <course>107.45</course>
  <speed>0.34438350715445126</speed>
  <fix>3d</fix>
</trkpt>
<trkpt lat="-27.2737702" lon="151.2899104">
  <ele>370.1</ele>
  <time>2026-09-01T20:01:19Z</time>
  <course>108.45</course>
  <speed>0.51</speed>
  <fix>3d</fix>
</trkpt>
<trkpt lat="-27.2737708" lon="151.289911">
  <ele>369.56</ele>
  <time>2026-09-01T20:01:19Z</time>
  <course>107.47</course>
  <speed>0.28653097563788804</speed>
  <fix>3d</fix>
</trkpt>
<trkpt lat="-27.2737702" lon="151.2899104">
  <ele>370.1</ele>
  <time>2026-09-01T20:01:19Z</time>
  <course>108.45</course>
  <speed>0.51</speed>
  <fix>3d</fix>
</trkpt>
<trkpt lat="-27.2737709" lon="151.2899113">
  <ele>369.42</ele>
  <time>2026-09-01T20:01:19Z</time>
  <course>107.5</course>
  <speed>0.23323807579381203</speed>
  <fix>3d</fix>
</trkpt>
<trkpt lat="-27.2737705" lon="151.2899112">
  <ele>369.8</ele>
  <time>2026-09-01T20:01:19Z</time>
  <course>110.47</course>
  <speed>0.39</speed>
  <fix>3d</fix>
</trkpt>
<trkpt lat="-27.273771" lon="151.2899116">
  <ele>369.27</ele>
  <time>2026-09-01T20:01:19Z</time>
  <course>107.54</course>
  <speed>0.18601075237738274</speed>
  <fix>3d</fix>
</trkpt>
<trkpt lat="-27.2737705" lon="151.2899112">
  <ele>369.8</ele>
  <time>2026-09-01T20:01:19Z</time>
  <course>110.47</course>
  <speed>0.39</speed>
  <fix>3d</fix>
</trkpt>
<trkpt lat="-27.2737711" lon="151.2899117">
  <ele>369.13</ele>
  <time>2026-09-01T20:01:19Z</time>
  <course>107.59</course>
  <speed>0.1414213562373095</speed>
  <fix>3d</fix>
</trkpt>
<trkpt lat="-27.2737708" lon="151.2899119">
  <ele>369.52</ele>
  <time>2026-09-01T20:01:19Z</time>
  <course>113.6</course>
  <speed>0.27</speed>
  <fix>3d</fix>
</trkpt>
<trkpt lat="-27.2737711" lon="151.2899119">
  <ele>368.99</ele>
  <time>2026-09-01T20:01:19Z</time>
  <course>107.67</course>
  <speed>0.1</speed>
  <fix>3d</fix>
</trkpt>
<trkpt lat="-27.2737708" lon="151.2899119">
  <ele>369.52</ele>
  <time>2026-09-01T20:01:19Z</time>
  <course>113.6</course>
  <speed>0.27</speed>
  <fix>3d</fix>
</trkpt>
<trkpt lat="-27.2737712" lon="151.289912">
  <ele>368.86</ele>
  <time>2026-09-01T20:01:19Z</time>
  <course>107.79</course>
  <speed>0.07280109889280519</speed>
  <fix>3d</fix>
</trkpt>
<trkpt lat="-27.2737709" lon="151.2899123">
  <ele>369.24</ele>
  <time>2026-09-01T20:01:19Z</time>
  <course>118.79</course>
  <speed>0.17</speed>
  <fix>3d</fix>
</trkpt>
<trkpt lat="-27.2737712" lon="151.289912">
  <ele>368.72</ele>
  <time>2026-09-01T20:01:19Z</time>
  <course>108.03</course>
  <speed>0.0412310562561766</speed>
  <fix>3d</fix>
</trkpt>
<trkpt lat="-27.2737709" lon="151.2899123">
  <ele>369.24</ele>
  <time>2026-09-01T20:01:19Z</time>
  <course>118.79</course>
  <speed>0.17</speed>
  <fix>3d</fix>
</trkpt>
<trkpt lat="-27.2737712" lon="151.2899121">
  <ele>368.58</ele>
  <time>2026-09-01T20:01:19Z</time>
  <course>108.48</course>
  <speed>0.0316227766016838</speed>
  <fix>3d</fix>
</trkpt>
<trkpt lat="-27.273771" lon="151.2899125">
  <ele>368.96</ele>
  <time>2026-09-01T20:01:19Z</time>
  <course>126.05</course>
  <speed>0.08</speed>
  <fix>3d</fix>
</trkpt>
<trkpt lat="-27.2737712" lon="151.289912">
  <ele>368.44</ele>
  <time>2026-09-01T20:01:19Z</time>
  <course>109.05</course>
  <speed>0.06</speed>
  <fix>3d</fix>
</trkpt>
<trkpt lat="-27.273771" lon="151.2899125">
  <ele>368.96</ele>
  <time>2026-09-01T20:01:19Z</time>
  <course>126.05</course>
  <speed>0.08</speed>
  <fix>3d</fix>
</trkpt>
<trkpt lat="-27.2737712" lon="151.289912">
  <ele>368.3</ele>
  <time>2026-09-01T20:01:19Z</time>
  <course>109.44</course>
  <speed>0.09219544457292887</speed>
  <fix>3d</fix>
</trkpt>
<trkpt lat="-27.2737711" lon="151.2899125">
  <ele>368.69</ele>
  <time>2026-09-01T20:01:19Z</time>
  <course>134.85</course>
  <speed>0.0</speed>
  <fix>3d</fix>
</trkpt>
<trkpt lat="-27.2737711" lon="151.289912">
  <ele>368.15</ele>
  <time>2026-09-01T20:01:19Z</time>
  <course>109.63</course>
  <speed>0.11401754250991379</speed>
  <fix>3d</fix>
</trkpt>
<trkpt lat="-27.2737711" lon="151.2899125">
  <ele>368.69</ele>
  <time>2026-09-01T20:01:19Z</time>
  <course>134.85</course>
  <speed>0.0</speed>
  <fix>3d</fix>
</trkpt>
<trkpt lat="-27.2737711" lon="151.2899119">
  <ele>368.01</ele>
  <time>2026-09-01T20:01:19Z</time>
  <course>109.64</course>
  <speed>0.13601470508735444</speed>
  <fix>3d</fix>
</trkpt>
<trkpt lat="-27.2737711" lon="151.2899125">
  <ele>368.4</ele>
  <time>2026-09-01T20:01:19Z</time>
  <course>304.16</course>
  <speed>0.05</speed>
  <fix>3d</fix>
</trkpt>
<trkpt lat="-27.2737711" lon="151.2899118">
  <ele>367.86</ele>
  <time>2026-09-01T20:01:19Z</time>
  <course>109.53</course>
  <speed>0.15524174696260024</speed>
  <fix>3d</fix>
</trkpt>
<trkpt lat="-27.2737711" lon="151.2899125">
  <ele>368.4</ele>
  <time>2026-09-01T20:01:19Z</time>
  <course>304.16</course>
  <speed>0.05</speed>
  <fix>3d</fix>
</trkpt>
<trkpt lat="-27.2737711" lon="151.2899117">
  <ele>367.71</ele>
  <time>2026-09-01T20:01:19Z</time>
  <course>109.32</course>
  <speed>0.1772004514666935</speed>
  <fix>3d</fix>
</trkpt>
<trkpt lat="-27.273771" lon="151.2899124">
  <ele>368.13</ele>
  <time>2026-09-01T20:01:19Z</time>
  <course>299.24</course>
  <speed>0.1</speed>
  <fix>3d</fix>
</trkpt>
<trkpt lat="-27.273771" lon="151.2899116">
  <ele>367.56</ele>
  <time>2026-09-01T20:01:19Z</time>
  <course>109.09</course>
  <speed>0.18681541692269404</speed>
  <fix>3d</fix>
</trkpt>
<trkpt lat="-27.273771" lon="151.2899122">
  <ele>367.84</ele>
  <time>2026-09-01T20:01:19Z</time>
  <course>296.95</course>
  <speed>0.14</speed>
  <fix>3d</fix>
</trkpt>
<trkpt lat="-27.2737709" lon="151.2899115">
  <ele>367.41</ele>
  <time>2026-09-01T20:01:19Z</time>
  <course>108.87</course>
  <speed>0.208806130178211</speed>
  <fix>3d</fix>
</trkpt>
<trkpt lat="-27.273771" lon="151.2899122">
  <ele>367.84</ele>
  <time>2026-09-01T20:01:19Z</time>
  <course>296.95</course>
  <speed>0.14</speed>
  <fix>3d</fix>
</trkpt>
<trkpt lat="-27.2737709" lon="151.2899113">
  <ele>367.26</ele>
  <time>2026-09-01T20:01:19Z</time>
  <course>108.69</course>
  <speed>0.21840329667841554</speed>
  <fix>3d</fix>
</trkpt>
<trkpt lat="-27.2737709" lon="151.289912">
  <ele>367.54</ele>
  <time>2026-09-01T20:01:19Z</time>
  <course>295.38</course>
  <speed>0.17</speed>
  <fix>3d</fix>
</trkpt>
<trkpt lat="-27.2737708" lon="151.2899111">
  <ele>367.11</ele>
  <time>2026-09-01T20:01:19Z</time>
  <course>108.57</course>
  <speed>0.22803508501982758</speed>
  <fix>3d</fix>
</trkpt>
<trkpt lat="-27.2737709" lon="151.289912">
  <ele>367.54</ele>
  <time>2026-09-01T20:01:19Z</time>
  <course>295.38</course>
  <speed>0.17</speed>
  <fix>3d</fix>
</trkpt>
<trkpt lat="-27.2737707" lon="151.2899109">
  <ele>366.96</ele>
  <time>2026-09-01T20:01:19Z</time>
  <course>108.51</course>
  <speed>0.2308679276123039</speed>
  <fix>3d</fix>
</trkpt>
<trkpt lat="-27.2737707" lon="151.2899116">
  <ele>367.25</ele>
  <time>2026-09-01T20:01:19Z</time>
  <course>294.43</course>
  <speed>0.2</speed>
  <fix>3d</fix>
</trkpt>
<trkpt lat="-27.2737707" lon="151.2899108">
  <ele>366.8</ele>
  <time>2026-09-01T20:01:19Z</time>
  <course>108.52</course>
  <speed>0.24041630560342614</speed>
  <fix>3d</fix>
</trkpt>
<trkpt lat="-27.2737707" lon="151.2899116">
  <ele>367.25</ele>
  <time>2026-09-01T20:01:19Z</time>
  <course>294.43</course>
  <speed>0.2</speed>
  <fix>3d</fix>
</trkpt>
<trkpt lat="-27.2737706" lon="151.2899106">
  <ele>366.65</ele>
  <time>2026-09-01T20:01:19Z</time>
  <course>108.59</course>
  <speed>0.24041630560342614</speed>
  <fix>3d</fix>
</trkpt>
<trkpt lat="-27.2737706" lon="151.2899112">
  <ele>366.95</ele>
  <time>2026-09-01T20:01:19Z</time>
  <course>294.26</course>
  <speed>0.21</speed>
  <fix>3d</fix>
</trkpt>
<trkpt lat="-27.2737705" lon="151.2899104">
  <ele>366.5</ele>
  <time>2026-09-01T20:01:19Z</time>
  <course>108.7</course>
  <speed>0.24351591323771843</speed>
  <fix>3d</fix>
</trkpt>
<trkpt lat="-27.2737706" lon="151.2899112">
  <ele>366.95</ele>
  <time>2026-09-01T20:01:19Z</time>
  <course>294.26</course>
  <speed>0.21</speed>
  <fix>3d</fix>
</trkpt>
<trkpt lat="-27.2737704" lon="151.2899102">
  <ele>366.35</ele>
  <time>2026-09-01T20:01:19Z</time>
  <course>108.83</course>
  <speed>0.2529822128134704</speed>
  <fix>3d</fix>
</trkpt>
<trkpt lat="-27.2737703" lon="151.2899108">
  <ele>366.65</ele>
  <time>2026-09-01T20:01:19Z</time>
  <course>294.6</course>
  <speed>0.22</speed>
  <fix>3d</fix>
</trkpt>
<trkpt lat="-27.2737703" lon="151.28991">
  <ele>366.2</ele>
  <time>2026-09-01T20:01:19Z</time>
  <course>108.96</course>
  <speed>0.2529822128134704</speed>
  <fix>3d</fix>
</trkpt>
<trkpt lat="-27.2737703" lon="151.2899108">
  <ele>366.65</ele>
  <time>2026-09-01T20:01:19Z</time>
  <course>294.6</course>
  <speed>0.22</speed>
  <fix>3d</fix>
</trkpt>
<trkpt lat="-27.2737703" lon="151.2899098">
  <ele>366.05</ele>
  <time>2026-09-01T20:01:19Z</time>
  <course>109.08</course>
  <speed>0.2529822128134704</speed>
  <fix>3d</fix>
</trkpt>
<trkpt lat="-27.2737702" lon="151.2899104">
  <ele>366.35</ele>
  <time>2026-09-01T20:01:19Z</time>
  <course>295.09</course>
  <speed>0.23</speed>
  <fix>3d</fix>
</trkpt>
<trkpt lat="-27.2737702" lon="151.2899096">
  <ele>365.9</ele>
  <time>2026-09-01T20:01:19Z</time>
  <course>109.17</course>
  <speed>0.25632011235952595</speed>
  <fix>3d</fix>
</trkpt>
<trkpt lat="-27.2737702" lon="151.2899104">
  <ele>366.35</ele>
  <time>2026-09-01T20:01:19Z</time>
  <course>295.09</course>
  <speed>0.23</speed>
  <fix>3d</fix>
</trkpt>
<trkpt lat="-27.2737701" lon="151.2899094">
  <ele>365.75</ele>
  <time>2026-09-01T20:01:19Z</time>
  <course>109.25</course>
  <speed>0.24698178070456936</speed>
  <fix>3d</fix>
</trkpt>
<trkpt lat="-27.2737702" lon="151.2899104">
  <ele>366.35</ele>
  <time>2026-09-01T20:01:19Z</time>
  <course>295.09</course>
  <speed>0.23</speed>
  <fix>3d</fix>
</trkpt>
<trkpt lat="-27.27377" lon="151.2899092">
  <ele>365.6</ele>
  <time>2026-09-01T20:01:19Z</time>
  <course>109.32</course>
  <speed>0.24698178070456936</speed>
  <fix>3d</fix>
</trkpt>
<trkpt lat="-27.2737701" lon="151.28991">
  <ele>366.05</ele>
  <time>2026-09-01T20:01:19Z</time>
  <course>295.69</course>
  <speed>0.23</speed>
  <fix>3d</fix>
</trkpt>
<trkpt lat="-27.2737699" lon="151.289909">
  <ele>365.45</ele>
  <time>2026-09-01T20:01:19Z</time>
  <course>109.38</course>
  <speed>0.24698178070456936</speed>
  <fix>3d</fix>
</trkpt>
<trkpt lat="-27.2737701" lon="151.28991">
  <ele>366.05</ele>
  <time>2026-09-01T20:01:19Z</time>
  <course>295.69</course>
  <speed>0.23</speed>
  <fix>3d</fix>
</trkpt>
<trkpt lat="-27.2737698" lon="151.2899088">
  <ele>365.3</ele>
  <time>2026-09-01T20:01:19Z</time>
  <course>109.42</course>
  <speed>0.24351591323771843</speed>
  <fix>3d</fix>
</trkpt>
<trkpt lat="-27.2737699" lon="151.2899095">
  <ele>365.75</ele>
  <time>2026-09-01T20:01:19Z</time>
  <course>296.39</course>
  <speed>0.23</speed>
  <fix>3d</fix>
</trkpt>
<trkpt lat="-27.2737697" lon="151.2899086">
  <ele>365.15</ele>
  <time>2026-09-01T20:01:19Z</time>
  <course>109.44</course>
  <speed>0.24351591323771843</speed>
  <fix>3d</fix>
</trkpt>
<trkpt lat="-27.2737699" lon="151.2899095">
  <ele>365.75</ele>
  <time>2026-09-01T20:01:19Z</time>
  <course>296.39</course>
  <speed>0.23</speed>
  <fix>3d</fix>
</trkpt>
<trkpt lat="-27.2737696" lon="151.2899084">
  <ele>364.99</ele>
  <time>2026-09-01T20:01:19Z</time>
  <course>109.44</course>
  <speed>0.2340939982143925</speed>
  <fix>3d</fix>
</trkpt>
<trkpt lat="-27.2737697" lon="151.2899092">
  <ele>365.45</ele>
  <time>2026-09-01T20:01:19Z</time>
  <course>297.03</course>
  <speed>0.22</speed>
  <fix>3d</fix>
</trkpt>
<trkpt lat="-27.2737696" lon="151.2899082">
  <ele>364.84</ele>
  <time>2026-09-01T20:01:19Z</time>
  <course>109.44</course>
  <speed>0.2340939982143925</speed>
  <fix>3d</fix>
</trkpt>
<trkpt lat="-27.2737697" lon="151.2899092">
  <ele>365.45</ele>
  <time>2026-09-01T20:01:19Z</time>
  <course>297.03</course>
  <speed>0.22</speed>
  <fix>3d</fix>
</trkpt>
<trkpt lat="-27.2737695" lon="151.289908">
  <ele>364.69</ele>
  <time>2026-09-01T20:01:19Z</time>
  <course>109.46</course>
  <speed>0.22472205054244232</speed>
  <fix>3d</fix>
</trkpt>
<trkpt lat="-27.2737695" lon="151.2899087">
  <ele>365.15</ele>
  <time>2026-09-01T20:01:19Z</time>
  <course>297.73</course>
  <speed>0.22</speed>
  <fix>3d</fix>
</trkpt>
<trkpt lat="-27.2737694" lon="151.2899079">
  <ele>364.54</ele>
  <time>2026-09-01T20:01:19Z</time>
  <course>109.48</course>
  <speed>0.22472205054244232</speed>
  <fix>3d</fix>
</trkpt>
<trkpt lat="-27.2737693" lon="151.2899084">
  <ele>364.85</ele>
  <time>2026-09-01T20:01:19Z</time>
  <course>298.51</course>
  <speed>0.21</speed>
  <fix>3d</fix>
</trkpt>
<trkpt lat="-27.2737693" lon="151.2899077">
  <ele>364.39</ele>
  <time>2026-09-01T20:01:19Z</time>
  <course>109.5</course>
  <speed>0.21540659228538014</speed>
  <fix>3d</fix>
</trkpt>
<trkpt lat="-27.2737693" lon="151.2899084">
  <ele>364.85</ele>
  <time>2026-09-01T20:01:19Z</time>
  <course>298.51</course>
  <speed>0.21</speed>
  <fix>3d</fix>
</trkpt>
<trkpt lat="-27.2737692" lon="151.2899075">
  <ele>364.24</ele>
  <time>2026-09-01T20:01:19Z</time>
  <course>109.53</course>
  <speed>0.21540659228538014</speed>
  <fix>3d</fix>
</trkpt>
<trkpt lat="-27.2737691" lon="151.2899079">
  <ele>364.55</ele>
  <time>2026-09-01T20:01:19Z</time>
  <course>299.42</course>
  <speed>0.2</speed>
  <fix>3d</fix>
</trkpt>
<trkpt lat="-27.2737691" lon="151.2899073">
  <ele>364.09</ele>
  <time>2026-09-01T20:01:19Z</time>
  <course>109.57</course>
  <speed>0.20248456731316586</speed>
  <fix>3d</fix>
</trkpt>
<trkpt lat="-27.2737691" lon="151.2899079">
  <ele>364.55</ele>
  <time>2026-09-01T20:01:19Z</time>
  <course>299.42</course>
  <speed>0.2</speed>
  <fix>3d</fix>
</trkpt>
<trkpt lat="-27.273769" lon="151.2899072">
  <ele>363.94</ele>
  <time>2026-09-01T20:01:19Z</time>
  <course>109.63</course>
  <speed>0.19697715603592209</speed>
  <fix>3d</fix>
</trkpt>
<trkpt lat="-27.273769" lon="151.2899076">
  <ele>364.25</ele>
  <time>2026-09-01T20:01:19Z</time>
  <course>300.64</course>
  <speed>0.19</speed>
  <fix>3d</fix>
</trkpt>
<trkpt lat="-27.273769" lon="151.289907">
  <ele>363.79</ele>
  <time>2026-09-01T20:01:19Z</time>
  <course>109.69</course>
  <speed>0.19313207915827968</speed>
  <fix>3d</fix>
</trkpt>
<trkpt lat="-27.273769" lon="151.2899076">
  <ele>364.25</ele>
  <time>2026-09-01T20:01:19Z</time>
  <course>300.64</course>
  <speed>0.19</speed>
  <fix>3d</fix>
</trkpt>
<trkpt lat="-27.2737689" lon="151.2899069">
  <ele>363.64</ele>
  <time>2026-09-01T20:01:19Z</time>
  <course>109.76</course>
  <speed>0.18384776310850234</speed>
  <fix>3d</fix>
</trkpt>
<trkpt lat="-27.2737688" lon="151.2899073">
  <ele>363.95</ele>
  <time>2026-09-01T20:01:19Z</time>
  <course>302.21</course>
  <speed>0.18</speed>
  <fix>3d</fix>
</trkpt>
<trkpt lat="-27.2737688" lon="151.2899067">
  <ele>363.49</ele>
  <time>2026-09-01T20:01:19Z</time>
  <course>109.83</course>
  <speed>0.17464249196572978</speed>
  <fix>3d</fix>
</trkpt>
<trkpt lat="-27.2737688" lon="151.2899073">
  <ele>363.95</ele>
  <time>2026-09-01T20:01:19Z</time>
  <course>302.21</course>
  <speed>0.18</speed>
  <fix>3d</fix>
</trkpt>
<trkpt lat="-27.2737687" lon="151.2899066">
  <ele>363.34</ele>
  <time>2026-09-01T20:01:19Z</time>
  <course>109.91</course>
  <speed>0.17464249196572978</speed>
  <fix>3d</fix>
</trkpt>
<trkpt lat="-27.2737685" lon="151.289907">
  <ele>363.66</ele>
  <time>2026-09-01T20:01:19Z</time>
  <course>304.26</course>
  <speed>0.16</speed>
  <fix>3d</fix>
</trkpt>
<trkpt lat="-27.2737686" lon="151.2899065">
  <ele>363.19</ele>
  <time>2026-09-01T20:01:19Z</time>
  <course>109.98</course>
  <speed>0.16552945357246848</speed>
  <fix>3d</fix>
</trkpt>
<trkpt lat="-27.2737685" lon="151.289907">
  <ele>363.66</ele>
  <time>2026-09-01T20:01:19Z</time>
  <course>304.26</course>
  <speed>0.16</speed>
  <fix>3d</fix>
</trkpt>
<trkpt lat="-27.2737685" lon="151.2899064">
  <ele>363.05</ele>
  <time>2026-09-01T20:01:19Z</time>
  <course>110.05</course>
  <speed>0.15652475842498528</speed>
  <fix>3d</fix>
</trkpt>
<trkpt lat="-27.2737684" lon="151.2899067">
  <ele>363.36</ele>
  <time>2026-09-01T20:01:19Z</time>
  <course>306.71</course>
  <speed>0.15</speed>
  <fix>3d</fix>
</trkpt>
<trkpt lat="-27.2737684" lon="151.2899062">
  <ele>362.9</ele>
  <time>2026-09-01T20:01:19Z</time>
  <course>110.12</course>
  <speed>0.147648230602334</speed>
  <fix>3d</fix>
</trkpt>
<trkpt lat="-27.2737684" lon="151.2899067">
  <ele>363.36</ele>
  <time>2026-09-01T20:01:19Z</time>
  <course>306.71</course>
  <speed>0.15</speed>
  <fix>3d</fix>
</trkpt>
<trkpt lat="-27.2737684" lon="151.2899061">
  <ele>362.75</ele>
  <time>2026-09-01T20:01:19Z</time>
  <course>110.18</course>
  <speed>0.13892443989449804</speed>
  <fix>3d</fix>
</trkpt>
<trkpt lat="-27.2737683" lon="151.2899065">
  <ele>363.06</ele>
  <time>2026-09-01T20:01:19Z</time>
  <course>309.6</course>
  <speed>0.14</speed>
  <fix>3d</fix>
</trkpt>
<trkpt lat="-27.2737683" lon="151.289906">
  <ele>362.6</ele>
  <time>2026-09-01T20:01:19Z</time>
  <course>110.25</course>
  <speed>0.13892443989449804</speed>
  <fix>3d</fix>
</trkpt>
<trkpt lat="-27.2737683" lon="151.2899065">
  <ele>363.06</ele>
  <time>2026-09-01T20:01:19Z</time>
  <course>309.6</course>
  <speed>0.14</speed>
  <fix>3d</fix>
</trkpt>
<trkpt lat="-27.2737682" lon="151.2899059">
  <ele>362.45</ele>
  <time>2026-09-01T20:01:19Z</time>
  <course>110.31</course>
  <speed>0.12529964086141668</speed>
  <fix>3d</fix>
</trkpt>
<trkpt lat="-27.2737681" lon="151.2899062">
  <ele>362.76</ele>
  <time>2026-09-01T20:01:19Z</time>
  <course>313.08</course>
  <speed>0.12</speed>
  <fix>3d</fix>
</trkpt>
<trkpt lat="-27.2737681" lon="151.2899059">
  <ele>362.31</ele>
  <time>2026-09-01T20:01:19Z</time>
  <course>110.37</course>
  <speed>0.11661903789690602</speed>
  <fix>3d</fix>
</trkpt>
<trkpt lat="-27.2737681" lon="151.2899062">
  <ele>362.76</ele>
  <time>2026-09-01T20:01:19Z</time>
  <course>313.08</course>
  <speed>0.12</speed>
  <fix>3d</fix>
</trkpt>
<trkpt lat="-27.2737681" lon="151.2899058">
  <ele>362.16</ele>
  <time>2026-09-01T20:01:19Z</time>
  <course>110.43</course>
  <speed>0.10816653826391968</speed>
  <fix>3d</fix>
</trkpt>
<trkpt lat="-27.2737679" lon="151.2899061">
  <ele>362.46</ele>
  <time>2026-09-01T20:01:19Z</time>
  <course>317.58</course>
  <speed>0.11</speed>
  <fix>3d</fix>
</trkpt>
<trkpt lat="-27.273768" lon="151.2899057">
  <ele>362.01</ele>
  <time>2026-09-01T20:01:19Z</time>
  <course>110.5</course>
  <speed>0.1</speed>
  <fix>3d</fix>
</trkpt>
<trkpt lat="-27.2737679" lon="151.2899061">
  <ele>362.46</ele>
  <time>2026-09-01T20:01:19Z</time>
  <course>317.58</course>
  <speed>0.11</speed>
  <fix>3d</fix>
</trkpt>
<trkpt lat="-27.2737679" lon="151.2899057">
  <ele>361.85</ele>
  <time>2026-09-01T20:01:19Z</time>
  <course>110.57</course>
  <speed>0.1</speed>
  <fix>3d</fix>
</trkpt>
<trkpt lat="-27.2737678" lon="151.2899059">
  <ele>362.15</ele>
  <time>2026-09-01T20:01:19Z</time>
  <course>323.52</course>
  <speed>0.1</speed>
  <fix>3d</fix>
</trkpt>
<trkpt lat="-27.2737678" lon="151.2899056">
  <ele>361.71</ele>
  <time>2026-09-01T20:01:19Z</time>
  <course>110.64</course>
  <speed>0.09219544457292887</speed>
  <fix>3d</fix>
</trkpt>
<trkpt lat="-27.2737678" lon="151.2899059">
  <ele>362.15</ele>
  <time>2026-09-01T20:01:19Z</time>
  <course>323.52</course>
  <speed>0.1</speed>
  <fix>3d</fix>
</trkpt>
<trkpt lat="-27.2737678" lon="151.2899056">
  <ele>361.55</ele>
  <time>2026-09-01T20:01:19Z</time>
  <course>110.71</course>
  <speed>0.07810249675906654</speed>
  <fix>3d</fix>
</trkpt>
<trkpt lat="-27.2737676" lon="151.2899058">
  <ele>361.85</ele>
  <time>2026-09-01T20:01:19Z</time>
  <course>330.2</course>
  <speed>0.09</speed>
  <fix>3d</fix>
</trkpt>
<trkpt lat="-27.2737677" lon="151.2899055">
  <ele>361.4</ele>
  <time>2026-09-01T20:01:19Z</time>
  <course>110.74</course>
  <speed>0.07810249675906654</speed>
  <fix>3d</fix>
</trkpt>
<trkpt lat="-27.2737676" lon="151.2899058">
  <ele>361.85</ele>
  <time>2026-09-01T20:01:19Z</time>
  <course>330.2</course>
  <speed>0.09</speed>
  <fix>3d</fix>
</trkpt>
<trkpt lat="-27.2737676" lon="151.2899055">
  <ele>361.25</ele>
  <time>2026-09-01T20:01:19Z</time>
  <course>110.74</course>
  <speed>0.07071067811865475</speed>
  <fix>3d</fix>
</trkpt>
<trkpt lat="-27.2737675" lon="151.2899057">
  <ele>361.55</ele>
  <time>2026-09-01T20:01:19Z</time>
  <course>336.49</course>
  <speed>0.08</speed>
  <fix>3d</fix>
</trkpt>
<trkpt lat="-27.2737676" lon="151.2899055">
  <ele>361.1</ele>
  <time>2026-09-01T20:01:19Z</time>
  <course>110.69</course>
  <speed>0.06403124237432849</speed>
  <fix>3d</fix>
</trkpt>
<trkpt lat="-27.2737675" lon="151.2899057">
  <ele>361.55</ele>
  <time>2026-09-01T20:01:19Z</time>
  <course>336.49</course>
  <speed>0.08</speed>
  <fix>3d</fix>
</trkpt>
<trkpt lat="-27.2737675" lon="151.2899054">
  <ele>360.94</ele>
  <time>2026-09-01T20:01:19Z</time>
  <course>110.57</course>
  <speed>0.05</speed>
  <fix>3d</fix>
</trkpt>
<trkpt lat="-27.2737674" lon="151.2899057">
  <ele>361.25</ele>
  <time>2026-09-01T20:01:19Z</time>
  <course>340.32</course>
  <speed>0.06</speed>
  <fix>3d</fix>
</trkpt>
<trkpt lat="-27.2737675" lon="151.2899054">
  <ele>360.79</ele>
  <time>2026-09-01T20:01:19Z</time>
  <course>110.35</course>
  <speed>0.0412310562561766</speed>
  <fix>3d</fix>
</trkpt>
<trkpt lat="-27.2737674" lon="151.2899057">
  <ele>361.25</ele>
  <time>2026-09-01T20:01:19Z</time>
  <course>340.32</course>
  <speed>0.06</speed>
  <fix>3d</fix>
</trkpt>
<trkpt lat="-27.2737675" lon="151.2899054">
  <ele>360.64</ele>
  <time>2026-09-01T20:01:19Z</time>
  <course>110.02</course>
  <speed>0.04</speed>
  <fix>3d</fix>
</trkpt>
<trkpt lat="-27.2737673" lon="151.2899057">
  <ele>360.94</ele>
  <time>2026-09-01T20:01:19Z</time>
  <course>334.59</course>
  <speed>0.03</speed>
  <fix>3d</fix>
</trkpt>
<trkpt lat="-27.2737675" lon="151.2899054">
  <ele>360.49</ele>
  <time>2026-09-01T20:01:19Z</time>
  <course>109.61</course>
  <speed>0.044721359549995794</speed>
  <fix>3d</fix>
</trkpt>
<trkpt lat="-27.2737673" lon="151.2899057">
  <ele>360.94</ele>
  <time>2026-09-01T20:01:19Z</time>
  <course>334.59</course>
  <speed>0.03</speed>
  <fix>3d</fix>
</trkpt>
<trkpt lat="-27.2737675" lon="151.2899054">
  <ele>360.34</ele>
  <time>2026-09-01T20:01:19Z</time>
  <course>109.16</course>
  <speed>0.06403124237432849</speed>
  <fix>3d</fix>
</trkpt>
<trkpt lat="-27.2737673" lon="151.2899057">
  <ele>360.64</ele>
  <time>2026-09-01T20:01:19Z</time>
  <course>259.61</course>
  <speed>0.01</speed>
  <fix>3d</fix>
</trkpt>
<trkpt lat="-27.2737675" lon="151.2899053">
  <ele>360.19</ele>
  <time>2026-09-01T20:01:19Z</time>
  <course>108.73</course>
  <speed>0.07810249675906654</speed>
  <fix>3d</fix>
</trkpt>
<trkpt lat="-27.2737673" lon="151.2899057">
  <ele>360.64</ele>
  <time>2026-09-01T20:01:19Z</time>
  <course>259.61</course>
  <speed>0.01</speed>
  <fix>3d</fix>
</trkpt>
<trkpt lat="-27.2737675" lon="151.2899053">
  <ele>360.04</ele>
  <time>2026-09-01T20:01:19Z</time>
  <course>108.37</course>
  <speed>0.09433981132056603</speed>
  <fix>3d</fix>
</trkpt>
<trkpt lat="-27.2737673" lon="151.2899056">
  <ele>360.34</ele>
  <time>2026-09-01T20:01:19Z</time>
  <course>205.27</course>
  <speed>0.04</speed>
  <fix>3d</fix>
</trkpt>
<trkpt lat="-27.2737675" lon="151.2899053">
  <ele>359.89</ele>
  <time>2026-09-01T20:01:19Z</time>
  <course>108.09</course>
  <speed>0.11661903789690602</speed>
  <fix>3d</fix>
</trkpt>
<trkpt lat="-27.2737673" lon="151.2899056">
  <ele>360.34</ele>
  <time>2026-09-01T20:01:19Z</time>
  <course>205.27</course>
  <speed>0.04</speed>
  <fix>3d</fix>
</trkpt>
<trkpt lat="-27.2737676" lon="151.2899053">
  <ele>359.74</ele>
  <time>2026-09-01T20:01:19Z</time>
  <course>107.93</course>
  <speed>0.1341640786499874</speed>
  <fix>3d</fix>
</trkpt>
<trkpt lat="-27.2737673" lon="151.2899056">
  <ele>360.04</ele>
  <time>2026-09-01T20:01:19Z</time>
  <course>197.71</course>
  <speed>0.08</speed>
  <fix>3d</fix>
</trkpt>
<trkpt lat="-27.2737677" lon="151.2899052">
  <ele>359.59</ele>
  <time>2026-09-01T20:01:19Z</time>
  <course>107.85</course>
  <speed>0.15231546211727817</speed>
  <fix>3d</fix>
</trkpt>
<trkpt lat="-27.2737673" lon="151.2899056">
  <ele>360.04</ele>
  <time>2026-09-01T20:01:19Z</time>
  <course>197.71</course>
  <speed>0.08</speed>
  <fix>3d</fix>
</trkpt>
<trkpt lat="-27.2737678" lon="151.2899052">
  <ele>359.44</ele>
  <time>2026-09-01T20:01:19Z</time>
  <course>107.85</course>
  <speed>0.1615549442140351</speed>
  <fix>3d</fix>
</trkpt>
<trkpt lat="-27.2737675" lon="151.2899055">
  <ele>359.74</ele>
  <time>2026-09-01T20:01:19Z</time>
  <course>195.44</course>
  <speed>0.12</speed>
  <fix>3d</fix>
</trkpt>
<trkpt lat="-27.2737679" lon="151.2899052">
  <ele>359.29</ele>
  <time>2026-09-01T20:01:19Z</time>
  <course>107.89</course>
  <speed>0.18384776310850234</speed>
  <fix>3d</fix>
</trkpt>
<trkpt lat="-27.2737675" lon="151.2899055">
  <ele>359.74</ele>
  <time>2026-09-01T20:01:19Z</time>
  <course>195.44</course>
  <speed>0.12</speed>
  <fix>3d</fix>
</trkpt>
<trkpt lat="-27.2737681" lon="151.2899051">
  <ele>359.14</ele>
  <time>2026-09-01T20:01:19Z</time>
  <course>107.96</course>
  <speed>0.19313207915827968</speed>
  <fix>3d</fix>
</trkpt>
<trkpt lat="-27.2737677" lon="151.2899054">
  <ele>359.44</ele>
  <time>2026-09-01T20:01:19Z</time>
  <course>194.44</course>
  <speed>0.15</speed>
  <fix>3d</fix>
</trkpt>
<trkpt lat="-27.2737682" lon="151.2899051">
  <ele>358.99</ele>
  <time>2026-09-01T20:01:19Z</time>
  <course>108.04</course>
  <speed>0.20248456731316586</speed>
  <fix>3d</fix>
</trkpt>
<trkpt lat="-27.2737677" lon="151.2899054">
  <ele>359.44</ele>
  <time>2026-09-01T20:01:19Z</time>
  <course>194.44</course>
  <speed>0.15</speed>
  <fix>3d</fix>
</trkpt>
<trkpt lat="-27.2737684" lon="151.289905">
  <ele>358.84</ele>
  <time>2026-09-01T20:01:19Z</time>
  <course>108.1</course>
  <speed>0.21189620100417092</speed>
  <fix>3d</fix>
</trkpt>
<trkpt lat="-27.273768" lon="151.2899053">
  <ele>359.14</ele>
  <time>2026-09-01T20:01:19Z</time>
  <course>193.78</course>
  <speed>0.18</speed>
  <fix>3d</fix>
</trkpt>
<trkpt lat="-27.2737685" lon="151.289905">
  <ele>358.7</ele>
  <time>2026-09-01T20:01:19Z</time>
  <course>108.15</course>
  <speed>0.22472205054244232</speed>
  <fix>3d</fix>
</trkpt>
<trkpt lat="-27.273768" lon="151.2899053">
  <ele>359.14</ele>
  <time>2026-09-01T20:01:19Z</time>
  <course>193.78</course>
  <speed>0.18</speed>
  <fix>3d</fix>
</trkpt>
<trkpt lat="-27.2737687" lon="151.2899049">
  <ele>358.55</ele>
  <time>2026-09-01T20:01:19Z</time>
  <course>108.17</course>
  <speed>0.2340939982143925</speed>
  <fix>3d</fix>
</trkpt>
<trkpt lat="-27.2737684" lon="151.2899052">
  <ele>358.84</ele>
  <time>2026-09-01T20:01:19Z</time>
  <course>193.19</course>
  <speed>0.2</speed>
  <fix>3d</fix>
</trkpt>
<trkpt lat="-27.2737689" lon="151.2899049">
  <ele>358.4</ele>
  <time>2026-09-01T20:01:19Z</time>
  <course>108.17</course>
  <speed>0.2340939982143925</speed>
  <fix>3d</fix>
</trkpt>
<trkpt lat="-27.2737684" lon="151.2899052">
  <ele>358.84</ele>
  <time>2026-09-01T20:01:19Z</time>
  <course>193.19</course>
  <speed>0.2</speed>
  <fix>3d</fix>
</trkpt>
<trkpt lat="-27.2737691" lon="151.2899048">
  <ele>358.25</ele>
  <time>2026-09-01T20:01:19Z</time>
  <course>108.16</course>
  <speed>0.24351591323771843</speed>
  <fix>3d</fix>
</trkpt>
<trkpt lat="-27.2737688" lon="151.2899052">
  <ele>358.54</ele>
  <time>2026-09-01T20:01:19Z</time>
  <course>192.59</course>
  <speed>0.21</speed>
  <fix>3d</fix>
</trkpt>
<trkpt lat="-27.2737693" lon="151.2899048">
  <ele>358.1</ele>
  <time>2026-09-01T20:01:19Z</time>
  <course>108.13</course>
  <speed>0.24351591323771843</speed>
  <fix>3d</fix>
</trkpt>
<trkpt lat="-27.2737688" lon="151.2899052">
  <ele>358.54</ele>
  <time>2026-09-01T20:01:19Z</time>
  <course>192.59</course>
  <speed>0.21</speed>
  <fix>3d</fix>
</trkpt>
<trkpt lat="-27.2737695" lon="151.2899047">
  <ele>357.96</ele>
  <time>2026-09-01T20:01:19Z</time>
  <course>108.1</course>
  <speed>0.24351591323771843</speed>
  <fix>3d</fix>
</trkpt>
<trkpt lat="-27.2737691" lon="151.2899051">
  <ele>358.24</ele>
  <time>2026-09-01T20:01:19Z</time>
  <course>191.99</course>
  <speed>0.22</speed>
  <fix>3d</fix>
</trkpt>
<trkpt lat="-27.2737697" lon="151.2899047">
  <ele>357.81</ele>
  <time>2026-09-01T20:01:19Z</time>
  <course>108.06</course>
  <speed>0.24041630560342614</speed>
  <fix>3d</fix>
</trkpt>
<trkpt lat="-27.2737691" lon="151.2899051">
  <ele>358.24</ele>
  <time>2026-09-01T20:01:19Z</time>
  <course>191.99</course>
  <speed>0.22</speed>
  <fix>3d</fix>
</trkpt>
<trkpt lat="-27.2737699" lon="151.2899046">
  <ele>357.66</ele>
  <time>2026-09-01T20:01:19Z</time>
  <course>108.04</course>
  <speed>0.24041630560342614</speed>
  <fix>3d</fix>
</trkpt>
<trkpt lat="-27.2737696" lon="151.289905">
  <ele>357.94</ele>
  <time>2026-09-01T20:01:19Z</time>
  <course>191.38</course>
  <speed>0.22</speed>
  <fix>3d</fix>
</trkpt>
<trkpt lat="-27.27377" lon="151.2899046">
  <ele>357.5</ele>
  <time>2026-09-01T20:01:19Z</time>
  <course>108.02</course>
  <speed>0.24041630560342614</speed>
  <fix>3d</fix>
</trkpt>
<trkpt lat="-27.2737696" lon="151.289905">
  <ele>357.94</ele>
  <time>2026-09-01T20:01:19Z</time>
  <course>191.38</course>
  <speed>0.22</speed>
  <fix>3d</fix>
</trkpt>
<trkpt lat="-27.2737702" lon="151.2899046">
  <ele>357.35</ele>
  <time>2026-09-01T20:01:19Z</time>
  <course>108.0</course>
  <speed>0.24041630560342614</speed>
  <fix>3d</fix>
</trkpt>
<trkpt lat="-27.27377" lon="151.2899049">
  <ele>357.64</ele>
  <time>2026-09-01T20:01:19Z</time>
  <course>190.69</course>
  <speed>0.22</speed>
  <fix>3d</fix>
</trkpt>
<trkpt lat="-27.2737704" lon="151.2899045">
  <ele>357.2</ele>
  <time>2026-09-01T20:01:19Z</time>
  <course>107.99</course>
  <speed>0.22803508501982758</speed>
  <fix>3d</fix>
</trkpt>
<trkpt lat="-27.27377" lon="151.2899049">
  <ele>357.64</ele>
  <time>2026-09-01T20:01:19Z</time>
  <course>190.69</course>
  <speed>0.22</speed>
  <fix>3d</fix>
</trkpt>
<trkpt lat="-27.2737706" lon="151.2899045">
  <ele>357.05</ele>
  <time>2026-09-01T20:01:19Z</time>
  <course>107.98</course>
  <speed>0.22803508501982758</speed>
  <fix>3d</fix>
</trkpt>
<trkpt lat="-27.2737703" lon="151.2899048">
  <ele>357.34</ele>
  <time>2026-09-01T20:01:19Z</time>
  <course>189.85</course>
  <speed>0.22</speed>
  <fix>3d</fix>
</trkpt>
<trkpt lat="-27.2737708" lon="151.2899045">
  <ele>356.89</ele>
  <time>2026-09-01T20:01:19Z</time>
  <course>107.97</course>
  <speed>0.21840329667841554</speed>
  <fix>3d</fix>
</trkpt>
<trkpt lat="-27.2737703" lon="151.2899048">
  <ele>357.34</ele>
  <time>2026-09-01T20:01:19Z</time>
  <course>189.85</course>
  <speed>0.22</speed>
  <fix>3d</fix>
</trkpt>
<trkpt lat="-27.273771" lon="151.2899044">
  <ele>356.74</ele>
  <time>2026-09-01T20:01:19Z</time>
  <course>107.96</course>
  <speed>0.21840329667841554</speed>
  <fix>3d</fix>
</trkpt>
<trkpt lat="-27.2737707" lon="151.2899047">
  <ele>357.04</ele>
  <time>2026-09-01T20:01:19Z</time>
  <course>188.89</course>
  <speed>0.2</speed>
  <fix>3d</fix>
</trkpt>
<trkpt lat="-27.2737712" lon="151.2899044">
  <ele>356.59</ele>
  <time>2026-09-01T20:01:19Z</time>
  <course>107.94</course>
  <speed>0.20615528128088303</speed>
  <fix>3d</fix>
</trkpt>
<trkpt lat="-27.2737707" lon="151.2899047">
  <ele>357.04</ele>
  <time>2026-09-01T20:01:19Z</time>
  <course>188.89</course>
  <speed>0.2</speed>
  <fix>3d</fix>
</trkpt>
<trkpt lat="-27.2737713" lon="151.2899044">
  <ele>356.44</ele>
  <time>2026-09-01T20:01:19Z</time>
  <course>107.92</course>
  <speed>0.196468827043885</speed>
  <fix>3d</fix>
</trkpt>
<trkpt lat="-27.2737711" lon="151.2899047">
  <ele>356.73</ele>
  <time>2026-09-01T20:01:19Z</time>
  <course>187.79</course>
  <speed>0.19</speed>
  <fix>3d</fix>
</trkpt>
<trkpt lat="-27.2737715" lon="151.2899044">
  <ele>356.29</ele>
  <time>2026-09-01T20:01:19Z</time>
  <course>107.9</course>
  <speed>0.18681541692269404</speed>
  <fix>3d</fix>
</trkpt>
<trkpt lat="-27.2737711" lon="151.2899047">
  <ele>356.73</ele>
  <time>2026-09-01T20:01:19Z</time>
  <course>187.79</course>
  <speed>0.19</speed>
  <fix>3d</fix>
</trkpt>
<trkpt lat="-27.2737716" lon="151.2899043">
  <ele>356.14</ele>
  <time>2026-09-01T20:01:19Z</time>
  <course>107.87</course>
  <speed>0.17464249196572978</speed>
  <fix>3d</fix>
</trkpt>
<trkpt lat="-27.2737714" lon="151.2899046">
  <ele>356.43</ele>
  <time>2026-09-01T20:01:19Z</time>
  <course>186.44</course>
  <speed>0.17</speed>
  <fix>3d</fix>
</trkpt>
<trkpt lat="-27.2737718" lon="151.2899043">
  <ele>355.99</ele>
  <time>2026-09-01T20:01:19Z</time>
  <course>107.84</course>
  <speed>0.1649242250247064</speed>
  <fix>3d</fix>
</trkpt>
<trkpt lat="-27.2737714" lon="151.2899046">
  <ele>356.43</ele>
  <time>2026-09-01T20:01:19Z</time>
  <course>186.44</course>
  <speed>0.17</speed>
  <fix>3d</fix>
</trkpt>
<trkpt lat="-27.2737719" lon="151.2899043">
  <ele>355.84</ele>
  <time>2026-09-01T20:01:19Z</time>
  <course>107.81</course>
  <speed>0.15524174696260024</speed>
  <fix>3d</fix>
</trkpt>
<trkpt lat="-27.2737717" lon="151.2899046">
  <ele>356.13</ele>
  <time>2026-09-01T20:01:19Z</time>
  <course>184.79</course>
  <speed>0.15</speed>
  <fix>3d</fix>
</trkpt>
<trkpt lat="-27.273772" lon="151.2899043">
  <ele>355.69</ele>
  <time>2026-09-01T20:01:19Z</time>
  <course>107.78</course>
  <speed>0.14317821063276354</speed>
  <fix>3d</fix>
</trkpt>
<trkpt lat="-27.2737717" lon="151.2899046">
  <ele>356.13</ele>
  <time>2026-09-01T20:01:19Z</time>
  <course>184.79</course>
  <speed>0.15</speed>
  <fix>3d</fix>
</trkpt>
<trkpt lat="-27.2737722" lon="151.2899043">
  <ele>355.54</ele>
  <time>2026-09-01T20:01:19Z</time>
  <course>107.74</course>
  <speed>0.13341664064126335</speed>
  <fix>3d</fix>
</trkpt>
<trkpt lat="-27.273772" lon="151.2899046">
  <ele>355.83</ele>
  <time>2026-09-01T20:01:19Z</time>
  <course>182.71</course>
  <speed>0.13</speed>
  <fix>3d</fix>
</trkpt>
<trkpt lat="-27.2737723" lon="151.2899043">
  <ele>355.39</ele>
  <time>2026-09-01T20:01:19Z</time>
  <course>107.71</course>
  <speed>0.12369316876852982</speed>
  <fix>3d</fix>
</trkpt>
<trkpt lat="-27.273772" lon="151.2899046">
  <ele>355.83</ele>
  <time>2026-09-01T20:01:19Z</time>
  <course>182.71</course>
  <speed>0.13</speed>
  <fix>3d</fix>
</trkpt>
<trkpt lat="-27.2737724" lon="151.2899043">
  <ele>355.24</ele>
  <time>2026-09-01T20:01:19Z</time>
  <course>107.69</course>
  <speed>0.1118033988749895</speed>
  <fix>3d</fix>
</trkpt>
<trkpt lat="-27.2737721" lon="151.2899046">
  <ele>355.53</ele>
  <time>2026-09-01T20:01:19Z</time>
  <course>180.06</course>
  <speed>0.11</speed>
  <fix>3d</fix>
</trkpt>
<trkpt lat="-27.2737724" lon="151.2899043">
  <ele>355.09</ele>
  <time>2026-09-01T20:01:19Z</time>
  <course>107.67</course>
  <speed>0.1019803902718557</speed>
  <fix>3d</fix>
</trkpt>
<trkpt lat="-27.2737721" lon="151.2899046">
  <ele>355.53</ele>
  <time>2026-09-01T20:01:19Z</time>
  <course>180.06</course>
  <speed>0.11</speed>
  <fix>3d</fix>
</trkpt>
<trkpt lat="-27.2737725" lon="151.2899043">
  <ele>354.94</ele>
  <time>2026-09-01T20:01:19Z</time>
  <course>107.64</course>
  <speed>0.09219544457292887</speed>
  <fix>3d</fix>
</trkpt>
<trkpt lat="-27.2737724" lon="151.2899046">
  <ele>355.23</ele>
  <time>2026-09-01T20:01:19Z</time>
  <course>176.43</course>
  <speed>0.09</speed>
  <fix>3d</fix>
</trkpt>
<trkpt lat="-27.2737726" lon="151.2899043">
  <ele>354.79</ele>
  <time>2026-09-01T20:01:19Z</time>
  <course>107.61</course>
  <speed>0.08062257748298549</speed>
  <fix>3d</fix>
</trkpt>
<trkpt lat="-27.2737724" lon="151.2899046">
  <ele>355.23</ele>
  <time>2026-09-01T20:01:19Z</time>
  <course>176.43</course>
  <speed>0.09</speed>
  <fix>3d</fix>
</trkpt>
<trkpt lat="-27.2737726" lon="151.2899043">
  <ele>354.64</ele>
  <time>2026-09-01T20:01:19Z</time>
  <course>107.57</course>
  <speed>0.07071067811865475</speed>
  <fix>3d</fix>
</trkpt>
<trkpt lat="-27.2737725" lon="151.2899046">
  <ele>354.94</ele>
  <time>2026-09-01T20:01:19Z</time>
  <course>170.78</course>
  <speed>0.07</speed>
  <fix>3d</fix>
</trkpt>
<trkpt lat="-27.2737727" lon="151.2899043">
  <ele>354.49</ele>
  <time>2026-09-01T20:01:19Z</time>
  <course>107.52</course>
  <speed>0.06082762530298219</speed>
  <fix>3d</fix>
</trkpt>
<trkpt lat="-27.2737725" lon="151.2899046">
  <ele>354.94</ele>
  <time>2026-09-01T20:01:19Z</time>
  <course>170.78</course>
  <speed>0.07</speed>
  <fix>3d</fix>
</trkpt>
<trkpt lat="-27.2737727" lon="151.2899043">
  <ele>354.34</ele>
  <time>2026-09-01T20:01:19Z</time>
  <course>107.45</course>
  <speed>0.05099019513592785</speed>
  <fix>3d</fix>
</trkpt>
<trkpt lat="-27.2737726" lon="151.2899046">
  <ele>354.64</ele>
  <time>2026-09-01T20:01:19Z</time>
  <course>161.64</course>
  <speed>0.05</speed>
  <fix>3d</fix>
</trkpt>
<trkpt lat="-27.2737728" lon="151.2899043">
  <ele>354.19</ele>
  <time>2026-09-01T20:01:19Z</time>
  <course>107.37</course>
  <speed>0.04</speed>
  <fix>3d</fix>
</trkpt>
<trkpt lat="-27.2737726" lon="151.2899046">
  <ele>354.64</ele>
  <time>2026-09-01T20:01:19Z</time>
  <course>161.64</course>
  <speed>0.05</speed>
  <fix>3d</fix>
</trkpt>
<trkpt lat="-27.2737728" lon="151.2899043">
  <ele>354.05</ele>
  <time>2026-09-01T20:01:19Z</time>
  <course>107.26</course>
  <speed>0.03</speed>
  <fix>3d</fix>
</trkpt>
<trkpt lat="-27.2737727" lon="151.2899046">
  <ele>354.34</ele>
  <time>2026-09-01T20:01:19Z</time>
  <course>147.87</course>
  <speed>0.03</speed>
  <fix>3d</fix>
</trkpt>
<trkpt lat="-27.2737728" lon="151.2899044">
  <ele>353.9</ele>
  <time>2026-09-01T20:01:19Z</time>
  <course>107.14</course>
  <speed>0.03</speed>
  <fix>3d</fix>
</trkpt>
<trkpt lat="-27.2737727" lon="151.2899046">
  <ele>354.34</ele>
  <time>2026-09-01T20:01:19Z</time>
  <course>147.87</course>
  <speed>0.03</speed>
  <fix>3d</fix>
</trkpt>
<trkpt lat="-27.2737728" lon="151.2899044">
  <ele>353.76</ele>
  <time>2026-09-01T20:01:19Z</time>
  <course>106.99</course>
  <speed>0.02</speed>
  <fix>3d</fix>
</trkpt>
<trkpt lat="-27.2737728" lon="151.2899046">
  <ele>354.05</ele>
  <time>2026-09-01T20:01:19Z</time>
  <course>130.93</course>
  <speed>0.02</speed>
  <fix>3d</fix>
</trkpt>
<trkpt lat="-27.2737728" lon="151.2899044">
  <ele>353.62</ele>
  <time>2026-09-01T20:01:19Z</time>
  <course>106.83</course>
  <speed>0.02</speed>
  <fix>3d</fix>
</trkpt>
<trkpt lat="-27.2737728" lon="151.2899046">
  <ele>354.05</ele>
  <time>2026-09-01T20:01:19Z</time>
  <course>130.93</course>
  <speed>0.02</speed>
  <fix>3d</fix>
</trkpt>
<trkpt lat="-27.2737728" lon="151.2899044">
  <ele>353.48</ele>
  <time>2026-09-01T20:01:19Z</time>
  <course>106.65</course>
  <speed>0.022360679774997897</speed>
  <fix>3d</fix>
</trkpt>
<trkpt lat="-27.2737728" lon="151.2899047">
  <ele>353.77</ele>
  <time>2026-09-01T20:01:19Z</time>
  <course>116.11</course>
  <speed>0.02</speed>
  <fix>3d</fix>
</trkpt>
<trkpt lat="-27.2737728" lon="151.2899044">
  <ele>353.34</ele>
  <time>2026-09-01T20:01:19Z</time>
  <course>106.48</course>
  <speed>0.01414213562373095</speed>
  <fix>3d</fix>
</trkpt>
<trkpt lat="-27.2737728" lon="151.2899047">
  <ele>353.77</ele>
  <time>2026-09-01T20:01:19Z</time>
  <course>116.11</course>
  <speed>0.02</speed>
  <fix>3d</fix>
</trkpt>
<trkpt lat="-27.2737728" lon="151.2899044">
  <ele>353.2</ele>
  <time>2026-09-01T20:01:19Z</time>
  <course>106.31</course>
  <speed>0.01414213562373095</speed>
  <fix>3d</fix>
</trkpt>
<trkpt lat="-27.2737728" lon="151.2899047">
  <ele>353.5</ele>
  <time>2026-09-01T20:01:19Z</time>
  <course>106.92</course>
  <speed>0.01</speed>
  <fix>3d</fix>
</trkpt>
<trkpt lat="-27.2737728" lon="151.2899044">
  <ele>353.07</ele>
  <time>2026-09-01T20:01:19Z</time>
  <course>106.16</course>
  <speed>0.01414213562373095</speed>
  <fix>3d</fix>
</trkpt>
<trkpt lat="-27.2737728" lon="151.2899047">
  <ele>353.5</ele>
  <time>2026-09-01T20:01:19Z</time>
  <course>106.92</course>
  <speed>0.01</speed>
  <fix>3d</fix>
</trkpt>
<trkpt lat="-27.2737729" lon="151.2899044">
  <ele>352.95</ele>
  <time>2026-09-01T20:01:19Z</time>
  <course>106.03</course>
  <speed>0.01414213562373095</speed>
  <fix>3d</fix>
</trkpt>
<trkpt lat="-27.2737728" lon="151.2899047">
  <ele>353.24</ele>
  <time>2026-09-01T20:01:19Z</time>
  <course>102.01</course>
  <speed>0.01</speed>
  <fix>3d</fix>
</trkpt>
<trkpt lat="-27.2737729" lon="151.2899045">
  <ele>352.82</ele>
  <time>2026-09-01T20:01:19Z</time>
  <course>105.94</course>
  <speed>0.022360679774997897</speed>
  <fix>3d</fix>
</trkpt>
<trkpt lat="-27.2737728" lon="151.2899047">
  <ele>353.24</ele>
  <time>2026-09-01T20:01:19Z</time>
  <course>102.01</course>
  <speed>0.01</speed>
  <fix>3d</fix>
</trkpt>
<trkpt lat="-27.2737729" lon="151.2899044">
  <ele>352.7</ele>
  <time>2026-09-01T20:01:19Z</time>
  <course>105.86</course>
  <speed>0.022360679774997897</speed>
  <fix>3d</fix>
</trkpt>
<trkpt lat="-27.2737728" lon="151.2899047">
  <ele>352.99</ele>
  <time>2026-09-01T20:01:19Z</time>
  <course>101.06</course>
  <speed>0.01</speed>
  <fix>3d</fix>
</trkpt>
<trkpt lat="-27.2737729" lon="151.2899045">
  <ele>352.58</ele>
  <time>2026-09-01T20:01:19Z</time>
  <course>105.8</course>
  <speed>0.022360679774997897</speed>
  <fix>3d</fix>
</trkpt>
<trkpt lat="-27.2737728" lon="151.2899047">
  <ele>352.99</ele>
  <time>2026-09-01T20:01:19Z</time>
  <course>101.06</course>
  <speed>0.01</speed>
  <fix>3d</fix>
</trkpt>
<trkpt lat="-27.2737729" lon="151.2899045">
  <ele>352.47</ele>
  <time>2026-09-01T20:01:19Z</time>
  <course>105.75</course>
  <speed>0.022360679774997897</speed>
  <fix>3d</fix>
</trkpt>
<trkpt lat="-27.2737728" lon="151.2899047">
  <ele>352.75</ele>
  <time>2026-09-01T20:01:19Z</time>
  <course>107.79</course>
  <speed>0.0</speed>
  <fix>3d</fix>
</trkpt>
<trkpt lat="-27.2737729" lon="151.2899045">
  <ele>352.35</ele>
  <time>2026-09-01T20:01:19Z</time>
  <course>105.71</course>
  <speed>0.0316227766016838</speed>
  <fix>3d</fix>
</trkpt>
<trkpt lat="-27.2737728" lon="151.2899047">
  <ele>352.75</ele>
  <time>2026-09-01T20:01:19Z</time>
  <course>107.79</course>
  <speed>0.0</speed>
  <fix>3d</fix>
</trkpt>
<trkpt lat="-27.2737729" lon="151.2899045">
  <ele>352.24</ele>
  <time>2026-09-01T20:01:19Z</time>
  <course>105.68</course>
  <speed>0.0316227766016838</speed>
  <fix>3d</fix>
</trkpt>
<trkpt lat="-27.2737729" lon="151.2899047">
  <ele>352.52</ele>
  <time>2026-09-01T20:01:19Z</time>
  <course>135.54</course>
  <speed>0.0</speed>
  <fix>3d</fix>
</trkpt>
<trkpt lat="-27.2737729" lon="151.2899045">
  <ele>352.13</ele>
  <time>2026-09-01T20:01:19Z</time>
  <course>105.67</course>
  <speed>0.0316227766016838</speed>
  <fix>3d</fix>
</trkpt>
<trkpt lat="-27.2737729" lon="151.2899047">
  <ele>352.52</ele>
  <time>2026-09-01T20:01:19Z</time>
  <course>135.54</course>
  <speed>0.0</speed>
  <fix>3d</fix>
</trkpt>
<trkpt lat="-27.2737729" lon="151.2899045">
  <ele>352.03</ele>
  <time>2026-09-01T20:01:19Z</time>
  <course>105.66</course>
  <speed>0.0316227766016838</speed>
  <fix>3d</fix>
</trkpt>
<trkpt lat="-27.2737729" lon="151.2899047">
  <ele>352.3</ele>
  <time>2026-09-01T20:01:19Z</time>
  <course>230.42</course>
  <speed>0.0</speed>
  <fix>3d</fix>
</trkpt>
<trkpt lat="-27.2737729" lon="151.2899045">
  <ele>351.93</ele>
  <time>2026-09-01T20:01:19Z</time>
  <course>105.64</course>
  <speed>0.0412310562561766</speed>
  <fix>3d</fix>
</trkpt>
<trkpt lat="-27.2737729" lon="151.2899047">
  <ele>352.3</ele>
  <time>2026-09-01T20:01:19Z</time>
  <course>230.42</course>
  <speed>0.0</speed>
  <fix>3d</fix>
</trkpt>
<trkpt lat="-27.2737729" lon="151.2899045">
  <ele>351.82</ele>
  <time>2026-09-01T20:01:19Z</time>
  <course>105.6</course>
  <speed>0.0412310562561766</speed>
  <fix>3d</fix>
</trkpt>
<trkpt lat="-27.2737729" lon="151.2899047">
  <ele>352.08</ele>
  <time>2026-09-01T20:01:19Z</time>
  <course>246.9</course>
  <speed>0.0</speed>
  <fix>3d</fix>
</trkpt>
<trkpt lat="-27.2737729" lon="151.2899045">
  <ele>351.72</ele>
  <time>2026-09-01T20:01:19Z</time>
  <course>105.55</course>
  <speed>0.0412310562561766</speed>
  <fix>3d</fix>
</trkpt>
<trkpt lat="-27.2737729" lon="151.2899047">
  <ele>352.08</ele>
  <time>2026-09-01T20:01:19Z</time>
  <course>246.9</course>
  <speed>0.0</speed>
  <fix>3d</fix>
</trkpt>
<trkpt lat="-27.2737729" lon="151.2899044">
  <ele>351.63</ele>
  <time>2026-09-01T20:01:19Z</time>
  <course>105.49</course>
  <speed>0.0412310562561766</speed>
  <fix>3d</fix>
</trkpt>
<trkpt lat="-27.2737729" lon="151.2899047">
  <ele>351.88</ele>
  <time>2026-09-01T20:01:19Z</time>
  <course>249.01</course>
  <speed>0.0</speed>
  <fix>3d</fix>
</trkpt>
<trkpt lat="-27.2737729" lon="151.2899044">
  <ele>351.53</ele>
  <time>2026-09-01T20:01:19Z</time>
  <course>105.43</course>
  <speed>0.044721359549995794</speed>
  <fix>3d</fix>
</trkpt>
<trkpt lat="-27.2737729" lon="151.2899047">
  <ele>351.88</ele>
  <time>2026-09-01T20:01:19Z</time>
  <course>249.01</course>
  <speed>0.0</speed>
  <fix>3d</fix>
</trkpt>
<trkpt lat="-27.2737729" lon="151.2899044">
  <ele>351.43</ele>
  <time>2026-09-01T20:01:19Z</time>
  <course>105.38</course>
  <speed>0.044721359549995794</speed>
  <fix>3d</fix>
</trkpt>
<trkpt lat="-27.2737729" lon="151.2899047">
  <ele>351.68</ele>
  <time>2026-09-01T20:01:19Z</time>
  <course>248.28</course>
  <speed>0.0</speed>
  <fix>3d</fix>
</trkpt>
<trkpt lat="-27.2737729" lon="151.2899044">
  <ele>351.34</ele>
  <time>2026-09-01T20:01:19Z</time>
  <course>105.33</course>
  <speed>0.044721359549995794</speed>
  <fix>3d</fix>
</trkpt>
<trkpt lat="-27.2737729" lon="151.2899047">
  <ele>351.68</ele>
  <time>2026-09-01T20:01:19Z</time>
  <course>248.28</course>
  <speed>0.0</speed>
  <fix>3d</fix>
</trkpt>
<trkpt lat="-27.273773" lon="151.2899044">
  <ele>351.24</ele>
  <time>2026-09-01T20:01:19Z</time>
  <course>105.28</course>
  <speed>0.044721359549995794</speed>
  <fix>3d</fix>
</trkpt>
<trkpt lat="-27.2737729" lon="151.2899047">
  <ele>351.49</ele>
  <time>2026-09-01T20:01:19Z</time>
  <course>245.29</course>
  <speed>0.01</speed>
  <fix>3d</fix>
</trkpt>
<trkpt lat="-27.273773" lon="151.2899044">
  <ele>351.15</ele>
  <time>2026-09-01T20:01:19Z</time>
  <course>105.23</course>
  <speed>0.044721359549995794</speed>
  <fix>3d</fix>
</trkpt>
<trkpt lat="-27.2737729" lon="151.2899047">
  <ele>351.49</ele>
  <time>2026-09-01T20:01:19Z</time>
  <course>245.29</course>
  <speed>0.01</speed>
  <fix>3d</fix>
</trkpt>
<trkpt lat="-27.273773" lon="151.2899044">
  <ele>351.05</ele>
  <time>2026-09-01T20:01:19Z</time>
  <course>105.19</course>
  <speed>0.044721359549995794</speed>
  <fix>3d</fix>
</trkpt>
<trkpt lat="-27.2737729" lon="151.2899047">
  <ele>351.3</ele>
  <time>2026-09-01T20:01:19Z</time>
  <course>241.3</course>
  <speed>0.01</speed>
  <fix>3d</fix>
</trkpt>
<trkpt lat="-27.273773" lon="151.2899044">
  <ele>350.96</ele>
  <time>2026-09-01T20:01:19Z</time>
  <course>105.14</course>
  <speed>0.044721359549995794</speed>
  <fix>3d</fix>
</trkpt>
<trkpt lat="-27.2737729" lon="151.2899047">
  <ele>351.3</ele>
  <time>2026-09-01T20:01:19Z</time>
  <course>241.3</course>
  <speed>0.01</speed>
  <fix>3d</fix>
</trkpt>
<trkpt lat="-27.273773" lon="151.2899043">
  <ele>350.87</ele>
  <time>2026-09-01T20:01:19Z</time>
  <course>105.09</course>
  <speed>0.044721359549995794</speed>
  <fix>3d</fix>
</trkpt>
<trkpt lat="-27.2737729" lon="151.2899047">
  <ele>351.12</ele>
  <time>2026-09-01T20:01:19Z</time>
  <course>235.98</course>
  <speed>0.01</speed>
  <fix>3d</fix>
</trkpt>
<trkpt lat="-27.273773" lon="151.2899043">
  <ele>350.78</ele>
  <time>2026-09-01T20:01:19Z</time>
  <course>105.05</course>
  <speed>0.044721359549995794</speed>
  <fix>3d</fix>
</trkpt>
<trkpt lat="-27.2737729" lon="151.2899047">
  <ele>351.12</ele>
  <time>2026-09-01T20:01:19Z</time>
  <course>235.98</course>
  <speed>0.01</speed>
  <fix>3d</fix>
</trkpt>
<trkpt lat="-27.273773" lon="151.2899043">
  <ele>350.7</ele>
  <time>2026-09-01T20:01:19Z</time>
  <course>105.0</course>
  <speed>0.044721359549995794</speed>
  <fix>3d</fix>
</trkpt>
<trkpt lat="-27.2737729" lon="151.2899047">
  <ele>350.94</ele>
  <time>2026-09-01T20:01:19Z</time>
  <course>229.2</course>
  <speed>0.01</speed>
  <fix>3d</fix>
</trkpt>
<trkpt lat="-27.273773" lon="151.2899043">
  <ele>350.61</ele>
  <time>2026-09-01T20:01:19Z</time>
  <course>104.96</course>
  <speed>0.044721359549995794</speed>
  <fix>3d</fix>
</trkpt>
<trkpt lat="-27.2737729" lon="151.2899047">
  <ele>350.94</ele>
  <time>2026-09-01T20:01:19Z</time>
  <course>229.2</course>
  <speed>0.01</speed>
  <fix>3d</fix>
</trkpt>
<trkpt lat="-27.273773" lon="151.2899043">
  <ele>350.53</ele>
  <time>2026-09-01T20:01:19Z</time>
  <course>104.93</course>
  <speed>0.044721359549995794</speed>
  <fix>3d</fix>
</trkpt>
<trkpt lat="-27.2737729" lon="151.2899047">
  <ele>350.77</ele>
  <time>2026-09-01T20:01:19Z</time>
  <course>223.5</course>
  <speed>0.01</speed>
  <fix>3d</fix>
</trkpt>
<trkpt lat="-27.273773" lon="151.2899043">
  <ele>350.45</ele>
  <time>2026-09-01T20:01:19Z</time>
  <course>104.93</course>
  <speed>0.03605551275463989</speed>
  <fix>3d</fix>
</trkpt>
<trkpt lat="-27.2737729" lon="151.2899047">
  <ele>350.77</ele>
  <time>2026-09-01T20:01:19Z</time>
  <course>223.5</course>
  <speed>0.01</speed>
  <fix>3d</fix>
</trkpt>
<trkpt lat="-27.273773" lon="151.2899043">
  <ele>350.37</ele>
  <time>2026-09-01T20:01:19Z</time>
  <course>105.0</course>
  <speed>0.0316227766016838</speed>
  <fix>3d</fix>
</trkpt>
<trkpt lat="-27.2737729" lon="151.2899047">
  <ele>350.61</ele>
  <time>2026-09-01T20:01:19Z</time>
  <course>237.24</course>
  <speed>0.0</speed>
  <fix>3d</fix>
</trkpt>
<trkpt lat="-27.273773" lon="151.2899043">
  <ele>350.29</ele>
  <time>2026-09-01T20:01:19Z</time>
  <course>105.13</course>
  <speed>0.03</speed>
  <fix>3d</fix>
</trkpt>
<trkpt lat="-27.2737729" lon="151.2899047">
  <ele>350.61</ele>
  <time>2026-09-01T20:01:19Z</time>
  <course>237.24</course>
  <speed>0.0</speed>
  <fix>3d</fix>
</trkpt>
<trkpt lat="-27.273773" lon="151.2899043">
  <ele>350.21</ele>
  <time>2026-09-01T20:01:19Z</time>
  <course>105.32</course>
  <speed>0.03</speed>
  <fix>3d</fix>
</trkpt>
<trkpt lat="-27.2737729" lon="151.2899047">
  <ele>350.45</ele>
  <time>2026-09-01T20:01:19Z</time>
  <course>351.32</course>
  <speed>0.0</speed>
  <fix>3d</fix>
</trkpt>
<trkpt lat="-27.273773" lon="151.2899044">
  <ele>350.14</ele>
  <time>2026-09-01T20:01:19Z</time>
  <course>105.52</course>
  <speed>0.02</speed>
  <fix>3d</fix>
</trkpt>
<trkpt lat="-27.2737729" lon="151.2899047">
  <ele>350.45</ele>
  <time>2026-09-01T20:01:19Z</time>
  <course>351.32</course>
  <speed>0.0</speed>
  <fix>3d</fix>
</trkpt>
<trkpt lat="-27.273773" lon="151.2899044">
  <ele>350.06</ele>
  <time>2026-09-01T20:01:19Z</time>
  <course>105.71</course>
  <speed>0.022360679774997897</speed>
  <fix>3d</fix>
</trkpt>
<trkpt lat="-27.2737729" lon="151.2899047">
  <ele>350.29</ele>
  <time>2026-09-01T20:01:19Z</time>
  <course>7.35</course>
  <speed>0.02</speed>
  <fix>3d</fix>
</trkpt>
<trkpt lat="-27.273773" lon="151.2899044">
  <ele>349.99</ele>
  <time>2026-09-01T20:01:19Z</time>
  <course>105.87</course>
  <speed>0.0282842712474619</speed>
  <fix>3d</fix>
</trkpt>
<trkpt lat="-27.2737729" lon="151.2899047">
  <ele>350.29</ele>
  <time>2026-09-01T20:01:19Z</time>
  <course>7.35</course>
  <speed>0.02</speed>
  <fix>3d</fix>
</trkpt>
<trkpt lat="-27.273773" lon="151.2899044">
  <ele>349.92</ele>
  <time>2026-09-01T20:01:19Z</time>
  <course>105.99</course>
  <speed>0.03605551275463989</speed>
  <fix>3d</fix>
</trkpt>
<trkpt lat="-27.2737729" lon="151.2899047">
  <ele>350.15</ele>
  <time>2026-09-01T20:01:19Z</time>
  <course>10.81</course>
  <speed>0.04</speed>
  <fix>3d</fix>
</trkpt>
<trkpt lat="-27.2737729" lon="151.2899044">
  <ele>349.85</ele>
  <time>2026-09-01T20:01:19Z</time>
  <course>106.06</course>
  <speed>0.0316227766016838</speed>
  <fix>3d</fix>
</trkpt>
<trkpt lat="-27.2737729" lon="151.2899047">
  <ele>350.15</ele>
  <time>2026-09-01T20:01:19Z</time>
  <course>10.81</course>
  <speed>0.04</speed>
  <fix>3d</fix>
</trkpt>
<trkpt lat="-27.2737729" lon="151.2899044">
  <ele>349.79</ele>
  <time>2026-09-01T20:01:19Z</time>
  <course>106.1</course>
  <speed>0.0412310562561766</speed>
  <fix>3d</fix>
</trkpt>
<trkpt lat="-27.2737728" lon="151.2899047">
  <ele>350.01</ele>
  <time>2026-09-01T20:01:19Z</time>
  <course>12.81</course>
  <speed>0.05</speed>
  <fix>3d</fix>
</trkpt>
<trkpt lat="-27.2737728" lon="151.2899044">
  <ele>349.72</ele>
  <time>2026-09-01T20:01:19Z</time>
  <course>106.11</course>
  <speed>0.05099019513592785</speed>
  <fix>3d</fix>
</trkpt>
<trkpt lat="-27.2737728" lon="151.2899047">
  <ele>350.01</ele>
  <time>2026-09-01T20:01:19Z</time>
  <course>12.81</course>
  <speed>0.05</speed>
  <fix>3d</fix>
</trkpt>
<trkpt lat="-27.2737728" lon="151.2899044">
  <ele>349.65</ele>
  <time>2026-09-01T20:01:19Z</time>
  <course>106.1</course>
  <speed>0.06</speed>
  <fix>3d</fix>
</trkpt>
<trkpt lat="-27.2737727" lon="151.2899047">
  <ele>349.87</ele>
  <time>2026-09-01T20:01:19Z</time>
  <course>14.21</course>
  <speed>0.07</speed>
  <fix>3d</fix>
</trkpt>
<trkpt lat="-27.2737727" lon="151.2899044">
  <ele>349.59</ele>
  <time>2026-09-01T20:01:19Z</time>
  <course>106.08</course>
  <speed>0.06</speed>
  <fix>3d</fix>
</trkpt>
<trkpt lat="-27.2737727" lon="151.2899047">
  <ele>349.87</ele>
  <time>2026-09-01T20:01:19Z</time>
  <course>14.21</course>
  <speed>0.07</speed>
  <fix>3d</fix>
</trkpt>
<trkpt lat="-27.2737726" lon="151.2899044">
  <ele>349.53</ele>
  <time>2026-09-01T20:01:19Z</time>
  <course>106.06</course>
  <speed>0.07</speed>
  <fix>3d</fix>
</trkpt>
<trkpt lat="-27.2737726" lon="151.2899047">
  <ele>349.75</ele>
  <time>2026-09-01T20:01:19Z</time>
  <course>14.87</course>
  <speed>0.08</speed>
  <fix>3d</fix>
</trkpt>
<trkpt lat="-27.2737726" lon="151.2899045">
  <ele>349.47</ele>
  <time>2026-09-01T20:01:19Z</time>
  <course>106.05</course>
  <speed>0.08</speed>
  <fix>3d</fix>
</trkpt>
<trkpt lat="-27.2737726" lon="151.2899047">
  <ele>349.75</ele>
  <time>2026-09-01T20:01:19Z</time>
  <course>14.87</course>
  <speed>0.08</speed>
  <fix>3d</fix>
</trkpt>
<trkpt lat="-27.2737725" lon="151.2899045">
  <ele>349.41</ele>
  <time>2026-09-01T20:01:19Z</time>
  <course>106.06</course>
  <speed>0.08</speed>
  <fix>3d</fix>
</trkpt>
<trkpt lat="-27.2737724" lon="151.2899047">
  <ele>349.62</ele>
  <time>2026-09-01T20:01:19Z</time>
  <course>14.91</course>
  <speed>0.1</speed>
  <fix>3d</fix>
</trkpt>
<trkpt lat="-27.2737724" lon="151.2899045">
  <ele>349.35</ele>
  <time>2026-09-01T20:01:19Z</time>
  <course>106.07</course>
  <speed>0.09</speed>
  <fix>3d</fix>
</trkpt>
<trkpt lat="-27.2737724" lon="151.2899047">
  <ele>349.62</ele>
  <time>2026-09-01T20:01:19Z</time>
  <course>14.91</course>
  <speed>0.1</speed>
  <fix>3d</fix>
</trkpt>
<trkpt lat="-27.2737723" lon="151.2899045">
  <ele>349.3</ele>
  <time>2026-09-01T20:01:19Z</time>
  <course>106.1</course>
  <speed>0.09</speed>
  <fix>3d</fix>
</trkpt>
<trkpt lat="-27.2737721" lon="151.2899048">
  <ele>349.5</ele>
  <time>2026-09-01T20:01:19Z</time>
  <course>14.87</course>
  <speed>0.11</speed>
  <fix>3d</fix>
</trkpt>
<trkpt lat="-27.2737722" lon="151.2899046">
  <ele>349.24</ele>
  <time>2026-09-01T20:01:19Z</time>
  <course>106.13</course>
  <speed>0.09</speed>
  <fix>3d</fix>
</trkpt>
<trkpt lat="-27.2737721" lon="151.2899048">
  <ele>349.5</ele>
  <time>2026-09-01T20:01:19Z</time>
  <course>14.87</course>
  <speed>0.11</speed>
  <fix>3d</fix>
</trkpt>
<trkpt lat="-27.2737721" lon="151.2899046">
  <ele>349.18</ele>
  <time>2026-09-01T20:01:19Z</time>
  <course>106.16</course>
  <speed>0.1</speed>
  <fix>3d</fix>
</trkpt>
<trkpt lat="-27.273772" lon="151.2899048">
  <ele>349.38</ele>
  <time>2026-09-01T20:01:19Z</time>
  <course>15.11</course>
  <speed>0.12</speed>
  <fix>3d</fix>
</trkpt>
<trkpt lat="-27.273772" lon="151.2899046">
  <ele>349.13</ele>
  <time>2026-09-01T20:01:19Z</time>
  <course>106.2</course>
  <speed>0.1</speed>
  <fix>3d</fix>
</trkpt>
<trkpt lat="-27.273772" lon="151.2899048">
  <ele>349.38</ele>
  <time>2026-09-01T20:01:19Z</time>
  <course>15.11</course>
  <speed>0.12</speed>
  <fix>3d</fix>
</trkpt>
<trkpt lat="-27.2737719" lon="151.2899046">
  <ele>349.07</ele>
  <time>2026-09-01T20:01:19Z</time>
  <course>106.23</course>
  <speed>0.1</speed>
  <fix>3d</fix>
</trkpt>
<trkpt lat="-27.2737718" lon="151.2899049">
  <ele>349.27</ele>
  <time>2026-09-01T20:01:19Z</time>
  <course>15.5</course>
  <speed>0.12</speed>
  <fix>3d</fix>
</trkpt>
<trkpt lat="-27.2737717" lon="151.2899047">
  <ele>349.02</ele>
  <time>2026-09-01T20:01:19Z</time>
  <course>106.25</course>
  <speed>0.1</speed>
  <fix>3d</fix>
</trkpt>
<trkpt lat="-27.2737718" lon="151.2899049">
  <ele>349.27</ele>
  <time>2026-09-01T20:01:19Z</time>
  <course>15.5</course>
  <speed>0.12</speed>
  <fix>3d</fix>
</trkpt>
<trkpt lat="-27.2737716" lon="151.2899047">
  <ele>348.96</ele>
  <time>2026-09-01T20:01:19Z</time>
  <course>106.28</course>
  <speed>0.1</speed>
  <fix>3d</fix>
</trkpt>
<trkpt lat="-27.2737715" lon="151.289905">
  <ele>349.16</ele>
  <time>2026-09-01T20:01:19Z</time>
  <course>16.06</course>
  <speed>0.13</speed>
  <fix>3d</fix>
</trkpt>
<trkpt lat="-27.2737715" lon="151.2899047">
  <ele>348.91</ele>
  <time>2026-09-01T20:01:20Z</time>
  <course>106.3</course>
  <speed>0.1</speed>
  <fix>3d</fix>
</trkpt>
<trkpt lat="-27.2737715" lon="151.289905">
  <ele>349.16</ele>
  <time>2026-09-01T20:01:20Z</time>
  <course>16.06</course>
  <speed>0.13</speed>
  <fix>3d</fix>
</trkpt>
<trkpt lat="-27.2737714" lon="151.2899048">
  <ele>348.86</ele>
  <time>2026-09-01T20:01:20Z</time>
  <course>106.31</course>
  <speed>0.1</speed>
  <fix>3d</fix>
</trkpt>
<trkpt lat="-27.2737714" lon="151.2899051">
  <ele>349.05</ele>
  <time>2026-09-01T20:01:20Z</time>
  <course>16.81</course>
  <speed>0.13</speed>
  <fix>3d</fix>
</trkpt>
<trkpt lat="-27.2737713" lon="151.2899048">
  <ele>348.8</ele>
  <time>2026-09-01T20:01:20Z</time>
  <course>106.32</course>
  <speed>0.1</speed>
  <fix>3d</fix>
</trkpt>
<trkpt lat="-27.2737714" lon="151.2899051">
  <ele>349.05</ele>
  <time>2026-09-01T20:01:20Z</time>
  <course>16.81</course>
  <speed>0.13</speed>
  <fix>3d</fix>
</trkpt>
<trkpt lat="-27.2737712" lon="151.2899048">
  <ele>348.75</ele>
  <time>2026-09-01T20:01:20Z</time>
  <course>106.32</course>
  <speed>0.1</speed>
  <fix>3d</fix>
</trkpt>
<trkpt lat="-27.2737711" lon="151.2899052">
  <ele>348.94</ele>
  <time>2026-09-01T20:01:20Z</time>
  <course>17.57</course>
  <speed>0.13</speed>
  <fix>3d</fix>
</trkpt>
<trkpt lat="-27.2737711" lon="151.2899049">
  <ele>348.7</ele>
  <time>2026-09-01T20:01:20Z</time>
  <course>106.32</course>
  <speed>0.1</speed>
  <fix>3d</fix>
</trkpt>
<trkpt lat="-27.2737711" lon="151.2899052">
  <ele>348.94</ele>
  <time>2026-09-01T20:01:20Z</time>
  <course>17.57</course>
  <speed>0.13</speed>
  <fix>3d</fix>
</trkpt>
<trkpt lat="-27.273771" lon="151.2899049">
  <ele>348.65</ele>
  <time>2026-09-01T20:01:20Z</time>
  <course>106.33</course>
  <speed>0.1</speed>
  <fix>3d</fix>
</trkpt>
<trkpt lat="-27.2737709" lon="151.2899052">
  <ele>348.84</ele>
  <time>2026-09-01T20:01:20Z</time>
  <course>18.32</course>
  <speed>0.12</speed>
  <fix>3d</fix>
</trkpt>
<trkpt lat="-27.2737709" lon="151.289905">
  <ele>348.6</ele>
  <time>2026-09-01T20:01:20Z</time>
  <course>106.34</course>
  <speed>0.09</speed>
  <fix>3d</fix>
</trkpt>
<trkpt lat="-27.2737709" lon="151.2899052">
  <ele>348.84</ele>
  <time>2026-09-01T20:01:20Z</time>
  <course>18.32</course>
  <speed>0.12</speed>
  <fix>3d</fix>
</trkpt>
<trkpt lat="-27.2737708" lon="151.289905">
  <ele>348.55</ele>
  <time>2026-09-01T20:01:20Z</time>
  <course>106.36</course>
  <speed>0.09</speed>
  <fix>3d</fix>
</trkpt>
<trkpt lat="-27.2737707" lon="151.2899053">
  <ele>348.74</ele>
  <time>2026-09-01T20:01:20Z</time>
  <course>19.11</course>
  <speed>0.12</speed>
  <fix>3d</fix>
</trkpt>
<trkpt lat="-27.2737707" lon="151.289905">
  <ele>348.5</ele>
  <time>2026-09-01T20:01:20Z</time>
  <course>106.38</course>
  <speed>0.08</speed>
  <fix>3d</fix>
</trkpt>
<trkpt lat="-27.2737707" lon="151.2899053">
  <ele>348.74</ele>
  <time>2026-09-01T20:01:20Z</time>
  <course>19.11</course>
  <speed>0.12</speed>
  <fix>3d</fix>
</trkpt>
<trkpt lat="-27.2737706" lon="151.2899051">
  <ele>348.45</ele>
  <time>2026-09-01T20:01:20Z</time>
  <course>106.4</course>
  <speed>0.08</speed>
  <fix>3d</fix>
</trkpt>
<trkpt lat="-27.2737705" lon="151.2899054">
  <ele>348.64</ele>
  <time>2026-09-01T20:01:20Z</time>
  <course>20.05</course>
  <speed>0.11</speed>
  <fix>3d</fix>
</trkpt>
<trkpt lat="-27.2737705" lon="151.2899051">
  <ele>348.4</ele>
  <time>2026-09-01T20:01:20Z</time>
  <course>106.42</course>
  <speed>0.07</speed>
  <fix>3d</fix>
</trkpt>
<trkpt lat="-27.2737705" lon="151.2899054">
  <ele>348.64</ele>
  <time>2026-09-01T20:01:20Z</time>
  <course>20.05</course>
  <speed>0.11</speed>
  <fix>3d</fix>
</trkpt>
<trkpt lat="-27.2737704" lon="151.2899051">
  <ele>348.35</ele>
  <time>2026-09-01T20:01:20Z</time>
  <course>106.43</course>
  <speed>0.07</speed>
  <fix>3d</fix>
</trkpt>
<trkpt lat="-27.2737703" lon="151.2899055">
  <ele>348.53</ele>
  <time>2026-09-01T20:01:20Z</time>
  <course>21.41</course>
  <speed>0.1</speed>
  <fix>3d</fix>
</trkpt>
<trkpt lat="-27.2737703" lon="151.2899052">
  <ele>348.3</ele>
  <time>2026-09-01T20:01:20Z</time>
  <course>106.44</course>
  <speed>0.06</speed>
  <fix>3d</fix>
</trkpt>
<trkpt lat="-27.2737703" lon="151.2899055">
  <ele>348.53</ele>
  <time>2026-09-01T20:01:20Z</time>
  <course>21.41</course>
  <speed>0.1</speed>
  <fix>3d</fix>
</trkpt>
<trkpt lat="-27.2737703" lon="151.2899052">
  <ele>348.25</ele>
  <time>2026-09-01T20:01:20Z</time>
  <course>106.45</course>
  <speed>0.06</speed>
  <fix>3d</fix>
</trkpt>
<trkpt lat="-27.2737701" lon="151.2899056">
  <ele>348.43</ele>
  <time>2026-09-01T20:01:20Z</time>
  <course>23.41</course>
  <speed>0.09</speed>
  <fix>3d</fix>
</trkpt>
<trkpt lat="-27.2737702" lon="151.2899053">
  <ele>348.2</ele>
  <time>2026-09-01T20:01:20Z</time>
  <course>106.46</course>
  <speed>0.05</speed>
  <fix>3d</fix>
</trkpt>
<trkpt lat="-27.2737701" lon="151.2899056">
  <ele>348.43</ele>
  <time>2026-09-01T20:01:20Z</time>
  <course>23.41</course>
  <speed>0.09</speed>
  <fix>3d</fix>
</trkpt>
<trkpt lat="-27.2737701" lon="151.2899053">
  <ele>348.15</ele>
  <time>2026-09-01T20:01:20Z</time>
  <course>106.47</course>
  <speed>0.05</speed>
  <fix>3d</fix>
</trkpt>
<trkpt lat="-27.27377" lon="151.2899056">
  <ele>348.33</ele>
  <time>2026-09-01T20:01:20Z</time>
  <course>26.03</course>
  <speed>0.08</speed>
  <fix>3d</fix>
</trkpt>
<trkpt lat="-27.2737701" lon="151.2899053">
  <ele>348.1</ele>
  <time>2026-09-01T20:01:20Z</time>
  <course>106.47</course>
  <speed>0.04</speed>
  <fix>3d</fix>
</trkpt>
<trkpt lat="-27.27377" lon="151.2899056">
  <ele>348.33</ele>
  <time>2026-09-01T20:01:20Z</time>
  <course>26.03</course>
  <speed>0.08</speed>
  <fix>3d</fix>
</trkpt>
<trkpt lat="-27.27377" lon="151.2899054">
  <ele>348.04</ele>
  <time>2026-09-01T20:01:20Z</time>
  <course>106.49</course>
  <speed>0.03</speed>
  <fix>3d</fix>
</trkpt>
<trkpt lat="-27.2737699" lon="151.2899057">
  <ele>348.22</ele>
  <time>2026-09-01T20:01:20Z</time>
  <course>28.89</course>
  <speed>0.07</speed>
  <fix>3d</fix>
</trkpt>
<trkpt lat="-27.27377" lon="151.2899054">
  <ele>347.99</ele>
  <time>2026-09-01T20:01:20Z</time>
  <course>106.5</course>
  <speed>0.03</speed>
  <fix>3d</fix>
</trkpt>
<trkpt lat="-27.2737699" lon="151.2899057">
  <ele>348.22</ele>
  <time>2026-09-01T20:01:20Z</time>
  <course>28.89</course>
  <speed>0.07</speed>
  <fix>3d</fix>
</trkpt>
<trkpt lat="-27.2737699" lon="151.2899054">
  <ele>347.94</ele>
  <time>2026-09-01T20:01:20Z</time>
  <course>106.52</course>
  <speed>0.02</speed>
  <fix>3d</fix>
</trkpt>
<trkpt lat="-27.2737698" lon="151.2899057">
  <ele>348.13</ele>
  <time>2026-09-01T20:01:20Z</time>
  <course>32.02</course>
  <speed>0.05</speed>
  <fix>3d</fix>
</trkpt>
<trkpt lat="-27.2737699" lon="151.2899055">
  <ele>347.89</ele>
  <time>2026-09-01T20:01:20Z</time>
  <course>106.54</course>
  <speed>0.01</speed>
  <fix>3d</fix>
</trkpt>
<trkpt lat="-27.2737698" lon="151.2899057">
  <ele>348.13</ele>
  <time>2026-09-01T20:01:20Z</time>
  <course>32.02</course>
  <speed>0.05</speed>
  <fix>3d</fix>
</trkpt>
<trkpt lat="-27.2737699" lon="151.2899055">
  <ele>347.84</ele>
  <time>2026-09-01T20:01:20Z</time>
  <course>106.55</course>
  <speed>0.01</speed>
  <fix>3d</fix>
</trkpt>
<trkpt lat="-27.2737697" lon="151.2899058">
  <ele>348.03</ele>
  <time>2026-09-01T20:01:20Z</time>
  <course>36.55</course>
  <speed>0.04</speed>
  <fix>3d</fix>
</trkpt>
<trkpt lat="-27.2737698" lon="151.2899055">
  <ele>347.79</ele>
  <time>2026-09-01T20:01:20Z</time>
  <course>106.56</course>
  <speed>0.01</speed>
  <fix>3d</fix>
</trkpt>
<trkpt lat="-27.2737697" lon="151.2899058">
  <ele>348.03</ele>
  <time>2026-09-01T20:01:20Z</time>
  <course>36.55</course>
  <speed>0.04</speed>
  <fix>3d</fix>
</trkpt>
<trkpt lat="-27.2737698" lon="151.2899055">
  <ele>347.74</ele>
  <time>2026-09-01T20:01:20Z</time>
  <course>106.57</course>
  <speed>0.01</speed>
  <fix>3d</fix>
</trkpt>
<trkpt lat="-27.2737697" lon="151.2899058">
  <ele>347.92</ele>
  <time>2026-09-01T20:01:20Z</time>
  <course>44.96</course>
  <speed>0.03</speed>
  <fix>3d</fix>
</trkpt>
<trkpt lat="-27.2737698" lon="151.2899055">
  <ele>347.69</ele>
  <time>2026-09-01T20:01:20Z</time>
  <course>106.59</course>
  <speed>0.01</speed>
  <fix>3d</fix>
</trkpt>
<trkpt lat="-27.2737697" lon="151.2899058">
  <ele>347.92</ele>
  <time>2026-09-01T20:01:20Z</time>
  <course>44.96</course>
  <speed>0.03</speed>
  <fix>3d</fix>
</trkpt>
<trkpt lat="-27.2737698" lon="151.2899055">
  <ele>347.64</ele>
  <time>2026-09-01T20:01:20Z</time>
  <course>106.6</course>
  <speed>0.01414213562373095</speed>
  <fix>3d</fix>
</trkpt>
<trkpt lat="-27.2737696" lon="151.2899059">
  <ele>347.82</ele>
  <time>2026-09-01T20:01:20Z</time>
  <course>62.71</course>
  <speed>0.01</speed>
  <fix>3d</fix>
</trkpt>
<trkpt lat="-27.2737698" lon="151.2899056">
  <ele>347.59</ele>
  <time>2026-09-01T20:01:20Z</time>
  <course>106.63</course>
  <speed>0.01414213562373095</speed>
  <fix>3d</fix>
</trkpt>
<trkpt lat="-27.2737696" lon="151.2899059">
  <ele>347.82</ele>
  <time>2026-09-01T20:01:20Z</time>
  <course>62.71</course>
  <speed>0.01</speed>
  <fix>3d</fix>
</trkpt>
<trkpt lat="-27.2737698" lon="151.2899056">
  <ele>347.54</ele>
  <time>2026-09-01T20:01:20Z</time>
  <course>106.67</course>
  <speed>0.022360679774997897</speed>
  <fix>3d</fix>
</trkpt>
<trkpt lat="-27.2737696" lon="151.289906">
  <ele>347.72</ele>
  <time>2026-09-01T20:01:20Z</time>
  <course>96.77</course>
  <speed>0.01</speed>
  <fix>3d</fix>
</trkpt>
<trkpt lat="-27.2737698" lon="151.2899056">
  <ele>347.49</ele>
  <time>2026-09-01T20:01:20Z</time>
  <course>106.73</course>
  <speed>0.022360679774997897</speed>
  <fix>3d</fix>
</trkpt>
<trkpt lat="-27.2737696" lon="151.289906">
  <ele>347.72</ele>
  <time>2026-09-01T20:01:20Z</time>
  <course>96.77</course>
  <speed>0.01</speed>
  <fix>3d</fix>
</trkpt>
<trkpt lat="-27.2737698" lon="151.2899056">
  <ele>347.44</ele>
  <time>2026-09-01T20:01:20Z</time>
  <course>106.79</course>
  <speed>0.0282842712474619</speed>
  <fix>3d</fix>
</trkpt>
<trkpt lat="-27.2737696" lon="151.289906">
  <ele>347.62</ele>
  <time>2026-09-01T20:01:20Z</time>
  <course>128.49</course>
  <speed>0.01</speed>
  <fix>3d</fix>
</trkpt>
<trkpt lat="-27.2737698" lon="151.2899056">
  <ele>347.39</ele>
  <time>2026-09-01T20:01:20Z</time>
  <course>106.85</course>
  <speed>0.03605551275463989</speed>
  <fix>3d</fix>
</trkpt>
<trkpt lat="-27.2737696" lon="151.289906">
  <ele>347.62</ele>
  <time>2026-09-01T20:01:20Z</time>
  <course>128.49</course>
  <speed>0.01</speed>
  <fix>3d</fix>
</trkpt>
<trkpt lat="-27.2737698" lon="151.2899056">
  <ele>347.34</ele>
  <time>2026-09-01T20:01:20Z</time>
  <course>106.91</course>
  <speed>0.03605551275463989</speed>
  <fix>3d</fix>
</trkpt>
<trkpt lat="-27.2737697" lon="151.289906">
  <ele>347.52</ele>
  <time>2026-09-01T20:01:20Z</time>
  <course>145.61</course>
  <speed>0.02</speed>
  <fix>3d</fix>
</trkpt>
<trkpt lat="-27.2737698" lon="151.2899056">
  <ele>347.29</ele>
  <time>2026-09-01T20:01:20Z</time>
  <course>106.96</course>
  <speed>0.03605551275463989</speed>
  <fix>3d</fix>
</trkpt>
<trkpt lat="-27.2737697" lon="151.289906">
  <ele>347.52</ele>
  <time>2026-09-01T20:01:20Z</time>
  <course>145.61</course>
  <speed>0.02</speed>
  <fix>3d</fix>
</trkpt>
<trkpt lat="-27.2737698" lon="151.2899056">
  <ele>347.24</ele>
  <time>2026-09-01T20:01:20Z</time>
  <course>106.98</course>
  <speed>0.03605551275463989</speed>
  <fix>3d</fix>
</trkpt>
<trkpt lat="-27.2737697" lon="151.2899061">
  <ele>347.41</ele>
  <time>2026-09-01T20:01:20Z</time>
  <course>156.21</course>
  <speed>0.02</speed>
  <fix>3d</fix>
</trkpt>
<trkpt lat="-27.2737698" lon="151.2899057">
  <ele>347.19</ele>
  <time>2026-09-01T20:01:20Z</time>
  <course>106.99</course>
  <speed>0.044721359549995794</speed>
  <fix>3d</fix>
</trkpt>
<trkpt lat="-27.2737697" lon="151.2899061">
  <ele>347.41</ele>
  <time>2026-09-01T20:01:20Z</time>
  <course>156.21</course>
  <speed>0.02</speed>
  <fix>3d</fix>
</trkpt>
<trkpt lat="-27.2737698" lon="151.2899057">
  <ele>347.14</ele>
  <time>2026-09-01T20:01:20Z</time>
  <course>106.99</course>
  <speed>0.044721359549995794</speed>
  <fix>3d</fix>
</trkpt>
<trkpt lat="-27.2737697" lon="151.2899061">
  <ele>347.32</ele>
  <time>2026-09-01T20:01:20Z</time>
  <course>164.32</course>
  <speed>0.02</speed>
  <fix>3d</fix>
</trkpt>
<trkpt lat="-27.2737699" lon="151.2899057">
  <ele>347.09</ele>
  <time>2026-09-01T20:01:20Z</time>
  <course>106.99</course>
  <speed>0.044721359549995794</speed>
  <fix>3d</fix>
</trkpt>
<trkpt lat="-27.2737697" lon="151.2899061">
  <ele>347.32</ele>
  <time>2026-09-01T20:01:20Z</time>
  <course>164.32</course>
  <speed>0.02</speed>
  <fix>3d</fix>
</trkpt>
<trkpt lat="-27.2737699" lon="151.2899057">
  <ele>347.04</ele>
  <time>2026-09-01T20:01:20Z</time>
  <course>106.99</course>
  <speed>0.044721359549995794</speed>
  <fix>3d</fix>
</trkpt>
<trkpt lat="-27.2737697" lon="151.2899061">
  <ele>347.22</ele>
  <time>2026-09-01T20:01:20Z</time>
  <course>170.68</course>
  <speed>0.03</speed>
  <fix>3d</fix>
</trkpt>
<trkpt lat="-27.2737699" lon="151.2899057">
  <ele>346.99</ele>
  <time>2026-09-01T20:01:20Z</time>
  <course>107.0</course>
  <speed>0.044721359549995794</speed>
  <fix>3d</fix>
</trkpt>
<trkpt lat="-27.2737697" lon="151.2899061">
  <ele>347.22</ele>
  <time>2026-09-01T20:01:20Z</time>
  <course>170.68</course>
  <speed>0.03</speed>
  <fix>3d</fix>
</trkpt>
<trkpt lat="-27.27377" lon="151.2899057">
  <ele>346.94</ele>
  <time>2026-09-01T20:01:20Z</time>
  <course>107.01</course>
  <speed>0.044721359549995794</speed>
  <fix>3d</fix>
</trkpt>
<trkpt lat="-27.2737697" lon="151.2899061">
  <ele>347.12</ele>
  <time>2026-09-01T20:01:20Z</time>
  <course>175.56</course>
  <speed>0.03</speed>
  <fix>3d</fix>
</trkpt>
<trkpt lat="-27.27377" lon="151.2899057">
  <ele>346.89</ele>
  <time>2026-09-01T20:01:20Z</time>
  <course>107.02</course>
  <speed>0.053851648071345036</speed>
  <fix>3d</fix>
</trkpt>
<trkpt lat="-27.2737697" lon="151.2899061">
  <ele>347.12</ele>
  <time>2026-09-01T20:01:20Z</time>
  <course>175.56</course>
  <speed>0.03</speed>
  <fix>3d</fix>
</trkpt>
<trkpt lat="-27.27377" lon="151.2899057">
  <ele>346.84</ele>
  <time>2026-09-01T20:01:20Z</time>
  <course>107.02</course>
  <speed>0.05830951894845301</speed>
  <fix>3d</fix>
</trkpt>
<trkpt lat="-27.2737698" lon="151.2899061">
  <ele>347.02</ele>
  <time>2026-09-01T20:01:20Z</time>
  <course>179.49</course>
  <speed>0.03</speed>
  <fix>3d</fix>
</trkpt>
<trkpt lat="-27.27377" lon="151.2899057">
  <ele>346.79</ele>
  <time>2026-09-01T20:01:20Z</time>
  <course>107.02</course>
  <speed>0.05830951894845301</speed>
  <fix>3d</fix>
</trkpt>
<trkpt lat="-27.2737698" lon="151.2899061">
  <ele>347.02</ele>
  <time>2026-09-01T20:01:20Z</time>
  <course>179.49</course>
  <speed>0.03</speed>
  <fix>3d</fix>
</trkpt>
<trkpt lat="-27.2737701" lon="151.2899057">
  <ele>346.74</ele>
  <time>2026-09-01T20:01:20Z</time>
  <course>107.03</course>
  <speed>0.05830951894845301</speed>
  <fix>3d</fix>
</trkpt>
<trkpt lat="-27.2737699" lon="151.2899061">
  <ele>346.91</ele>
  <time>2026-09-01T20:01:20Z</time>
  <course>182.68</course>
  <speed>0.04</speed>
  <fix>3d</fix>
</trkpt>
<trkpt lat="-27.2737701" lon="151.2899057">
  <ele>346.69</ele>
  <time>2026-09-01T20:01:20Z</time>
  <course>107.03</course>
  <speed>0.05830951894845301</speed>
  <fix>3d</fix>
</trkpt>
<trkpt lat="-27.2737699" lon="151.2899061">
  <ele>346.91</ele>
  <time>2026-09-01T20:01:20Z</time>
  <course>182.68</course>
  <speed>0.04</speed>
  <fix>3d</fix>
</trkpt>
<trkpt lat="-27.2737701" lon="151.2899058">
  <ele>346.64</ele>
  <time>2026-09-01T20:01:20Z</time>
  <course>107.03</course>
  <speed>0.05830951894845301</speed>
  <fix>3d</fix>
</trkpt>
<trkpt lat="-27.27377" lon="151.2899061">
  <ele>346.81</ele>
  <time>2026-09-01T20:01:20Z</time>
  <course>185.23</course>
  <speed>0.04</speed>
  <fix>3d</fix>
</trkpt>
<trkpt lat="-27.2737701" lon="151.2899058">
  <ele>346.59</ele>
  <time>2026-09-01T20:01:20Z</time>
  <course>107.03</course>
  <speed>0.05830951894845301</speed>
  <fix>3d</fix>
</trkpt>
<trkpt lat="-27.27377" lon="151.2899061">
  <ele>346.81</ele>
  <time>2026-09-01T20:01:20Z</time>
  <course>185.23</course>
  <speed>0.04</speed>
  <fix>3d</fix>
</trkpt>
<trkpt lat="-27.2737702" lon="151.2899058">
  <ele>346.54</ele>
  <time>2026-09-01T20:01:20Z</time>
  <course>107.04</course>
  <speed>0.05830951894845301</speed>
  <fix>3d</fix>
</trkpt>
<trkpt lat="-27.27377" lon="151.2899061">
  <ele>346.71</ele>
  <time>2026-09-01T20:01:20Z</time>
  <course>187.3</course>
  <speed>0.04</speed>
  <fix>3d</fix>
</trkpt>
<trkpt lat="-27.2737702" lon="151.2899058">
  <ele>346.49</ele>
  <time>2026-09-01T20:01:20Z</time>
  <course>107.04</course>
  <speed>0.05830951894845301</speed>
  <fix>3d</fix>
</trkpt>
<trkpt lat="-27.27377" lon="151.2899061">
  <ele>346.71</ele>
  <time>2026-09-01T20:01:20Z</time>
  <course>187.3</course>
  <speed>0.04</speed>
  <fix>3d</fix>
</trkpt>
<trkpt lat="-27.2737702" lon="151.2899058">
  <ele>346.44</ele>
  <time>2026-09-01T20:01:20Z</time>
  <course>107.05</course>
  <speed>0.05830951894845301</speed>
  <fix>3d</fix>
</trkpt>
<trkpt lat="-27.2737701" lon="151.2899061">
  <ele>346.61</ele>
  <time>2026-09-01T20:01:20Z</time>
  <course>189.07</course>
  <speed>0.04</speed>
  <fix>3d</fix>
</trkpt>
<trkpt lat="-27.2737703" lon="151.2899058">
  <ele>346.39</ele>
  <time>2026-09-01T20:01:20Z</time>
  <course>107.05</course>
  <speed>0.05830951894845301</speed>
  <fix>3d</fix>
</trkpt>
<trkpt lat="-27.2737701" lon="151.2899061">
  <ele>346.61</ele>
  <time>2026-09-01T20:01:20Z</time>
  <course>189.07</course>
  <speed>0.04</speed>
  <fix>3d</fix>
</trkpt>
<trkpt lat="-27.2737703" lon="151.2899058">
  <ele>346.34</ele>
  <time>2026-09-01T20:01:20Z</time>
  <course>107.05</course>
  <speed>0.05830951894845301</speed>
  <fix>3d</fix>
</trkpt>
<trkpt lat="-27.2737702" lon="151.2899061">
  <ele>346.51</ele>
  <time>2026-09-01T20:01:20Z</time>
  <course>190.45</course>
  <speed>0.04</speed>
  <fix>3d</fix>
</trkpt>
<trkpt lat="-27.2737703" lon="151.2899058">
  <ele>346.29</ele>
  <time>2026-09-01T20:01:20Z</time>
  <course>107.06</course>
  <speed>0.05830951894845301</speed>
  <fix>3d</fix>
</trkpt>
<trkpt lat="-27.2737702" lon="151.2899061">
  <ele>346.51</ele>
  <time>2026-09-01T20:01:20Z</time>
  <course>190.45</course>
  <speed>0.04</speed>
  <fix>3d</fix>
</trkpt>
<trkpt lat="-27.2737704" lon="151.2899058">
  <ele>346.24</ele>
  <time>2026-09-01T20:01:20Z</time>
  <course>107.07</course>
  <speed>0.05830951894845301</speed>
  <fix>3d</fix>
</trkpt>
<trkpt lat="-27.2737703" lon="151.2899061">
  <ele>346.4</ele>
  <time>2026-09-01T20:01:20Z</time>
  <course>191.38</course>
  <speed>0.04</speed>
  <fix>3d</fix>
</trkpt>
<trkpt lat="-27.2737704" lon="151.2899058">
  <ele>346.19</ele>
  <time>2026-09-01T20:01:20Z</time>
  <course>107.08</course>
  <speed>0.05830951894845301</speed>
  <fix>3d</fix>
</trkpt>
<trkpt lat="-27.2737703" lon="151.2899061">
  <ele>346.4</ele>
  <time>2026-09-01T20:01:20Z</time>
  <course>191.38</course>
  <speed>0.04</speed>
  <fix>3d</fix>
</trkpt>
<trkpt lat="-27.2737704" lon="151.2899058">
  <ele>346.14</ele>
  <time>2026-09-01T20:01:20Z</time>
  <course>107.08</course>
  <speed>0.05830951894845301</speed>
  <fix>3d</fix>
</trkpt>
<trkpt lat="-27.2737703" lon="151.2899061">
  <ele>346.31</ele>
  <time>2026-09-01T20:01:20Z</time>
  <course>191.92</course>
  <speed>0.04</speed>
  <fix>3d</fix>
</trkpt>
<trkpt lat="-27.2737705" lon="151.2899058">
  <ele>346.09</ele>
  <time>2026-09-01T20:01:20Z</time>
  <course>107.09</course>
  <speed>0.05830951894845301</speed>
  <fix>3d</fix>
</trkpt>
<trkpt lat="-27.2737703" lon="151.2899061">
  <ele>346.31</ele>
  <time>2026-09-01T20:01:20Z</time>
  <course>191.92</course>
  <speed>0.04</speed>
  <fix>3d</fix>
</trkpt>
<trkpt lat="-27.2737705" lon="151.2899058">
  <ele>346.04</ele>
  <time>2026-09-01T20:01:20Z</time>
  <course>107.1</course>
  <speed>0.05830951894845301</speed>
  <fix>3d</fix>
</trkpt>
<trkpt lat="-27.2737704" lon="151.2899061">
  <ele>346.21</ele>
  <time>2026-09-01T20:01:20Z</time>
  <course>192.21</course>
  <speed>0.04</speed>
  <fix>3d</fix>
</trkpt>
<trkpt lat="-27.2737705" lon="151.2899058">
  <ele>345.99</ele>
  <time>2026-09-01T20:01:20Z</time>
  <course>107.11</course>
  <speed>0.05</speed>
  <fix>3d</fix>
</trkpt>
<trkpt lat="-27.2737704" lon="151.2899061">
  <ele>346.21</ele>
  <time>2026-09-01T20:01:20Z</time>
  <course>192.21</course>
  <speed>0.04</speed>
  <fix>3d</fix>
</trkpt>
<trkpt lat="-27.2737706" lon="151.2899058">
  <ele>345.94</ele>
  <time>2026-09-01T20:01:20Z</time>
  <course>107.12</course>
  <speed>0.05</speed>
  <fix>3d</fix>
</trkpt>
<trkpt lat="-27.2737705" lon="151.2899061">
  <ele>346.11</ele>
  <time>2026-09-01T20:01:20Z</time>
  <course>192.85</course>
  <speed>0.04</speed>
  <fix>3d</fix>
</trkpt>
<trkpt lat="-27.2737706" lon="151.2899058">
  <ele>345.89</ele>
  <time>2026-09-01T20:01:20Z</time>
  <course>107.13</course>
  <speed>0.05</speed>
  <fix>3d</fix>
</trkpt>
<trkpt lat="-27.2737705" lon="151.2899061">
  <ele>346.11</ele>
  <time>2026-09-01T20:01:20Z</time>
  <course>192.85</course>
  <speed>0.04</speed>
  <fix>3d</fix>
</trkpt>
<trkpt lat="-27.2737706" lon="151.2899058">
  <ele>345.84</ele>
  <time>2026-09-01T20:01:20Z</time>
  <course>107.13</course>
  <speed>0.05</speed>
  <fix>3d</fix>
</trkpt>
<trkpt lat="-27.2737706" lon="151.2899061">
  <ele>346.01</ele>
  <time>2026-09-01T20:01:20Z</time>
  <course>194.46</course>
  <speed>0.03</speed>
  <fix>3d</fix>
</trkpt>
<trkpt lat="-27.2737707" lon="151.2899058">
  <ele>345.79</ele>
  <time>2026-09-01T20:01:20Z</time>
  <course>107.14</course>
  <speed>0.05</speed>
  <fix>3d</fix>
</trkpt>
<trkpt lat="-27.2737706" lon="151.2899061">
  <ele>346.01</ele>
  <time>2026-09-01T20:01:20Z</time>
  <course>194.46</course>
  <speed>0.03</speed>
  <fix>3d</fix>
</trkpt>
<trkpt lat="-27.2737707" lon="151.2899058">
  <ele>345.74</ele>
  <time>2026-09-01T20:01:20Z</time>
  <course>107.14</course>
  <speed>0.04242640687119285</speed>
  <fix>3d</fix>
</trkpt>
<trkpt lat="-27.2737706" lon="151.289906">
  <ele>345.9</ele>
  <time>2026-09-01T20:01:20Z</time>
  <course>197.05</course>
  <speed>0.03</speed>
  <fix>3d</fix>
</trkpt>
<trkpt lat="-27.2737707" lon="151.2899058">
  <ele>345.69</ele>
  <time>2026-09-01T20:01:20Z</time>
  <course>107.14</course>
  <speed>0.04242640687119285</speed>
  <fix>3d</fix>
</trkpt>
<trkpt lat="-27.2737706" lon="151.289906">
  <ele>345.9</ele>
  <time>2026-09-01T20:01:20Z</time>
  <course>197.05</course>
  <speed>0.03</speed>
  <fix>3d</fix>
</trkpt>
<trkpt lat="-27.2737707" lon="151.2899058">
  <ele>345.64</ele>
  <time>2026-09-01T20:01:20Z</time>
  <course>107.13</course>
  <speed>0.04242640687119285</speed>
  <fix>3d</fix>
</trkpt>
<trkpt lat="-27.2737707" lon="151.289906">
  <ele>345.81</ele>
  <time>2026-09-01T20:01:20Z</time>
  <course>200.13</course>
  <speed>0.03</speed>
  <fix>3d</fix>
</trkpt>
<trkpt lat="-27.2737708" lon="151.2899057">
  <ele>345.59</ele>
  <time>2026-09-01T20:01:20Z</time>
  <course>107.13</course>
  <speed>0.04242640687119285</speed>
  <fix>3d</fix>
</trkpt>
<trkpt lat="-27.2737707" lon="151.289906">
  <ele>345.81</ele>
  <time>2026-09-01T20:01:20Z</time>
  <course>200.13</course>
  <speed>0.03</speed>
  <fix>3d</fix>
</trkpt>
<trkpt lat="-27.2737708" lon="151.2899057">
  <ele>345.54</ele>
  <time>2026-09-01T20:01:20Z</time>
  <course>107.12</course>
  <speed>0.04242640687119285</speed>
  <fix>3d</fix>
</trkpt>
<trkpt lat="-27.2737707" lon="151.289906">
  <ele>345.7</ele>
  <time>2026-09-01T20:01:20Z</time>
  <course>203.13</course>
  <speed>0.02</speed>
  <fix>3d</fix>
</trkpt>
<trkpt lat="-27.2737708" lon="151.2899057">
  <ele>345.49</ele>
  <time>2026-09-01T20:01:20Z</time>
  <course>107.11</course>
  <speed>0.03605551275463989</speed>
  <fix>3d</fix>
</trkpt>
<trkpt lat="-27.2737707" lon="151.289906">
  <ele>345.7</ele>
  <time>2026-09-01T20:01:20Z</time>
  <course>203.13</course>
  <speed>0.02</speed>
  <fix>3d</fix>
</trkpt>
<trkpt lat="-27.2737708" lon="151.2899057">
  <ele>345.44</ele>
  <time>2026-09-01T20:01:20Z</time>
  <course>107.11</course>
  <speed>0.03605551275463989</speed>
  <fix>3d</fix>
</trkpt>
<trkpt lat="-27.2737708" lon="151.289906">
  <ele>345.59</ele>
  <time>2026-09-01T20:01:20Z</time>
  <course>206.79</course>
  <speed>0.02</speed>
  <fix>3d</fix>
</trkpt>
<trkpt lat="-27.2737708" lon="151.2899057">
  <ele>345.39</ele>
  <time>2026-09-01T20:01:20Z</time>
  <course>107.1</course>
  <speed>0.03605551275463989</speed>
  <fix>3d</fix>
</trkpt>
<trkpt lat="-27.2737708" lon="151.289906">
  <ele>345.59</ele>
  <time>2026-09-01T20:01:20Z</time>
  <course>206.79</course>
  <speed>0.02</speed>
  <fix>3d</fix>
</trkpt>
<trkpt lat="-27.2737708" lon="151.2899057">
  <ele>345.34</ele>
  <time>2026-09-01T20:01:20Z</time>
  <course>107.1</course>
  <speed>0.03605551275463989</speed>
  <fix>3d</fix>
</trkpt>
<trkpt lat="-27.2737708" lon="151.289906">
  <ele>345.5</ele>
  <time>2026-09-01T20:01:20Z</time>
  <course>213.03</course>
  <speed>0.01</speed>
  <fix>3d</fix>
</trkpt>
<trkpt lat="-27.2737709" lon="151.2899057">
  <ele>345.29</ele>
  <time>2026-09-01T20:01:20Z</time>
  <course>107.11</course>
  <speed>0.0316227766016838</speed>
  <fix>3d</fix>
</trkpt>
<trkpt lat="-27.2737708" lon="151.289906">
  <ele>345.5</ele>
  <time>2026-09-01T20:01:20Z</time>
  <course>213.03</course>
  <speed>0.01</speed>
  <fix>3d</fix>
</trkpt>
<trkpt lat="-27.2737709" lon="151.2899057">
  <ele>345.24</ele>
  <time>2026-09-01T20:01:20Z</time>
  <course>107.13</course>
  <speed>0.0316227766016838</speed>
  <fix>3d</fix>
</trkpt>
<trkpt lat="-27.2737708" lon="151.2899059">
  <ele>345.4</ele>
  <time>2026-09-01T20:01:20Z</time>
  <course>223.57</course>
  <speed>0.01</speed>
  <fix>3d</fix>
</trkpt>
<trkpt lat="-27.2737709" lon="151.2899057">
  <ele>345.19</ele>
  <time>2026-09-01T20:01:20Z</time>
  <course>107.15</course>
  <speed>0.0316227766016838</speed>
  <fix>3d</fix>
</trkpt>
<trkpt lat="-27.2737708" lon="151.2899059">
  <ele>345.4</ele>
  <time>2026-09-01T20:01:20Z</time>
  <course>223.57</course>
  <speed>0.01</speed>
  <fix>3d</fix>
</trkpt>
<trkpt lat="-27.2737709" lon="151.2899057">
  <ele>345.14</ele>
  <time>2026-09-01T20:01:20Z</time>
  <course>107.18</course>
  <speed>0.0316227766016838</speed>
  <fix>3d</fix>
</trkpt>
<trkpt lat="-27.2737709" lon="151.2899058">
  <ele>345.3</ele>
  <time>2026-09-01T20:01:20Z</time>
  <course>243.46</course>
  <speed>0.0</speed>
  <fix>3d</fix>
</trkpt>
<trkpt lat="-27.2737709" lon="151.2899057">
  <ele>345.09</ele>
  <time>2026-09-01T20:01:20Z</time>
  <course>107.21</course>
  <speed>0.03</speed>
  <fix>3d</fix>
</trkpt>
<trkpt lat="-27.2737709" lon="151.2899058">
  <ele>345.3</ele>
  <time>2026-09-01T20:01:20Z</time>
  <course>243.46</course>
  <speed>0.0</speed>
  <fix>3d</fix>
</trkpt>
<trkpt lat="-27.2737709" lon="151.2899057">
  <ele>345.04</ele>
  <time>2026-09-01T20:01:20Z</time>
  <course>107.22</course>
  <speed>0.03</speed>
  <fix>3d</fix>
</trkpt>
<trkpt lat="-27.2737709" lon="151.2899058">
  <ele>345.2</ele>
  <time>2026-09-01T20:01:20Z</time>
  <course>274.59</course>
  <speed>0.0</speed>
  <fix>3d</fix>
</trkpt>
<trkpt lat="-27.2737709" lon="151.2899057">
  <ele>344.99</ele>
  <time>2026-09-01T20:01:20Z</time>
  <course>107.17</course>
  <speed>0.03</speed>
  <fix>3d</fix>
</trkpt>
<trkpt lat="-27.2737709" lon="151.2899058">
  <ele>345.2</ele>
  <time>2026-09-01T20:01:20Z</time>
  <course>274.59</course>
  <speed>0.0</speed>
  <fix>3d</fix>
</trkpt>
<trkpt lat="-27.2737709" lon="151.2899056">
  <ele>344.94</ele>
  <time>2026-09-01T20:01:20Z</time>
  <course>107.09</course>
  <speed>0.0316227766016838</speed>
  <fix>3d</fix>
</trkpt>
<trkpt lat="-27.2737709" lon="151.2899058">
  <ele>345.09</ele>
  <time>2026-09-01T20:01:20Z</time>
  <course>287.8</course>
  <speed>0.0</speed>
  <fix>3d</fix>
</trkpt>
<trkpt lat="-27.2737709" lon="151.2899056">
  <ele>344.89</ele>
  <time>2026-09-01T20:01:20Z</time>
  <course>107.01</course>
  <speed>0.0316227766016838</speed>
  <fix>3d</fix>
</trkpt>
<trkpt lat="-27.2737709" lon="151.2899058">
  <ele>345.09</ele>
  <time>2026-09-01T20:01:20Z</time>
  <course>287.8</course>
  <speed>0.0</speed>
  <fix>3d</fix>
</trkpt>
<trkpt lat="-27.2737709" lon="151.2899056">
  <ele>344.84</ele>
  <time>2026-09-01T20:01:20Z</time>
  <course>106.93</course>
  <speed>0.0316227766016838</speed>
  <fix>3d</fix>
</trkpt>
<trkpt lat="-27.2737709" lon="151.2899058">
  <ele>345.0</ele>
  <time>2026-09-01T20:01:20Z</time>
  <course>287.43</course>
  <speed>0.0</speed>
  <fix>3d</fix>
</trkpt>
<trkpt lat="-27.2737709" lon="151.2899056">
  <ele>344.79</ele>
  <time>2026-09-01T20:01:20Z</time>
  <course>106.86</course>
  <speed>0.0316227766016838</speed>
  <fix>3d</fix>
</trkpt>
<trkpt lat="-27.2737709" lon="151.2899058">
  <ele>345.0</ele>
  <time>2026-09-01T20:01:20Z</time>
  <course>287.43</course>
  <speed>0.0</speed>
  <fix>3d</fix>
</trkpt>
<trkpt lat="-27.2737709" lon="151.2899056">
  <ele>344.74</ele>
  <time>2026-09-01T20:01:20Z</time>
  <course>106.82</course>
  <speed>0.0316227766016838</speed>
  <fix>3d</fix>
</trkpt>
<trkpt lat="-27.2737709" lon="151.2899058">
  <ele>344.9</ele>
  <time>2026-09-01T20:01:20Z</time>
  <course>285.83</course>
  <speed>0.0</speed>
  <fix>3d</fix>
</trkpt>
<trkpt lat="-27.2737709" lon="151.2899056">
  <ele>344.69</ele>
  <time>2026-09-01T20:01:20Z</time>
  <course>106.78</course>
  <speed>0.0316227766016838</speed>
  <fix>3d</fix>
</trkpt>
<trkpt lat="-27.2737709" lon="151.2899058">
  <ele>344.9</ele>
  <time>2026-09-01T20:01:20Z</time>
  <course>285.83</course>
  <speed>0.0</speed>
  <fix>3d</fix>
</trkpt>
<trkpt lat="-27.2737709" lon="151.2899056">
  <ele>344.64</ele>
  <time>2026-09-01T20:01:20Z</time>
  <course>106.77</course>
  <speed>0.0316227766016838</speed>
  <fix>3d</fix>
</trkpt>
<trkpt lat="-27.2737709" lon="151.2899058">
  <ele>344.8</ele>
  <time>2026-09-01T20:01:20Z</time>
  <course>284.92</course>
  <speed>0.0</speed>
  <fix>3d</fix>
</trkpt>
<trkpt lat="-27.2737709" lon="151.2899056">
  <ele>344.59</ele>
  <time>2026-09-01T20:01:20Z</time>
  <course>106.79</course>
  <speed>0.0316227766016838</speed>
  <fix>3d</fix>
</trkpt>
<trkpt lat="-27.2737709" lon="151.2899058">
  <ele>344.8</ele>
  <time>2026-09-01T20:01:20Z</time>
  <course>284.92</course>
  <speed>0.0</speed>
  <fix>3d</fix>
</trkpt>
<trkpt lat="-27.2737709" lon="151.2899055">
  <ele>344.54</ele>
  <time>2026-09-01T20:01:20Z</time>
  <course>106.82</course>
  <speed>0.0316227766016838</speed>
  <fix>3d</fix>
</trkpt>
<trkpt lat="-27.2737709" lon="151.2899058">
  <ele>344.7</ele>
  <time>2026-09-01T20:01:20Z</time>
  <course>285.39</course>
  <speed>0.0</speed>
  <fix>3d</fix>
</trkpt>
<trkpt lat="-27.2737709" lon="151.2899055">
  <ele>344.49</ele>
  <time>2026-09-01T20:01:20Z</time>
  <course>106.86</course>
  <speed>0.0316227766016838</speed>
  <fix>3d</fix>
</trkpt>
<trkpt lat="-27.2737709" lon="151.2899058">
  <ele>344.7</ele>
  <time>2026-09-01T20:01:20Z</time>
  <course>285.39</course>
  <speed>0.0</speed>
  <fix>3d</fix>
</trkpt>
<trkpt lat="-27.2737709" lon="151.2899055">
  <ele>344.44</ele>
  <time>2026-09-01T20:01:20Z</time>
  <course>106.89</course>
  <speed>0.0316227766016838</speed>
  <fix>3d</fix>
</trkpt>
<trkpt lat="-27.2737709" lon="151.2899057">
  <ele>344.59</ele>
  <time>2026-09-01T20:01:20Z</time>
  <course>284.53</course>
  <speed>0.0</speed>
  <fix>3d</fix>
</trkpt>
<trkpt lat="-27.2737709" lon="151.2899055">
  <ele>344.39</ele>
  <time>2026-09-01T20:01:20Z</time>
  <course>106.9</course>
  <speed>0.0316227766016838</speed>
  <fix>3d</fix>
</trkpt>
<trkpt lat="-27.2737709" lon="151.2899057">
  <ele>344.59</ele>
  <time>2026-09-01T20:01:20Z</time>
  <course>284.53</course>
  <speed>0.0</speed>
  <fix>3d</fix>
</trkpt>
<trkpt lat="-27.2737709" lon="151.2899055">
  <ele>344.34</ele>
  <time>2026-09-01T20:01:20Z</time>
  <course>106.91</course>
  <speed>0.0316227766016838</speed>
  <fix>3d</fix>
</trkpt>
<trkpt lat="-27.2737709" lon="151.2899057">
  <ele>344.5</ele>
  <time>2026-09-01T20:01:20Z</time>
  <course>283.42</course>
  <speed>0.0</speed>
  <fix>3d</fix>
</trkpt>
<trkpt lat="-27.2737709" lon="151.2899055">
  <ele>344.29</ele>
  <time>2026-09-01T20:01:20Z</time>
  <course>106.91</course>
  <speed>0.0316227766016838</speed>
  <fix>3d</fix>
</trkpt>
<trkpt lat="-27.2737709" lon="151.2899057">
  <ele>344.5</ele>
  <time>2026-09-01T20:01:20Z</time>
  <course>283.42</course>
  <speed>0.0</speed>
  <fix>3d</fix>
</trkpt>
<trkpt lat="-27.2737709" lon="151.2899055">
  <ele>344.24</ele>
  <time>2026-09-01T20:01:20Z</time>
  <course>106.89</course>
  <speed>0.0316227766016838</speed>
  <fix>3d</fix>
</trkpt>
<trkpt lat="-27.2737709" lon="151.2899057">
  <ele>344.4</ele>
  <time>2026-09-01T20:01:20Z</time>
  <course>281.95</course>
  <speed>0.0</speed>
  <fix>3d</fix>
</trkpt>
<trkpt lat="-27.2737709" lon="151.2899055">
  <ele>344.19</ele>
  <time>2026-09-01T20:01:20Z</time>
  <course>106.86</course>
  <speed>0.0316227766016838</speed>
  <fix>3d</fix>
</trkpt>
<trkpt lat="-27.2737709" lon="151.2899057">
  <ele>344.4</ele>
  <time>2026-09-01T20:01:20Z</time>
  <course>281.95</course>
  <speed>0.0</speed>
  <fix>3d</fix>
</trkpt>
<trkpt lat="-27.2737709" lon="151.2899055">
  <ele>344.14</ele>
  <time>2026-09-01T20:01:20Z</time>
  <course>106.83</course>
  <speed>0.0316227766016838</speed>
  <fix>3d</fix>
</trkpt>
<trkpt lat="-27.2737709" lon="151.2899057">
  <ele>344.3</ele>
  <time>2026-09-01T20:01:20Z</time>
  <course>279.31</course>
  <speed>0.0</speed>
  <fix>3d</fix>
</trkpt>
<trkpt lat="-27.273771" lon="151.2899055">
  <ele>344.09</ele>
  <time>2026-09-01T20:01:20Z</time>
  <course>106.81</course>
  <speed>0.0316227766016838</speed>
  <fix>3d</fix>
</trkpt>
<trkpt lat="-27.2737709" lon="151.2899057">
  <ele>344.3</ele>
  <time>2026-09-01T20:01:20Z</time>
  <course>279.31</course>
  <speed>0.0</speed>
  <fix>3d</fix>
</trkpt>
<trkpt lat="-27.273771" lon="151.2899055">
  <ele>344.04</ele>
  <time>2026-09-01T20:01:20Z</time>
  <course>106.81</course>
  <speed>0.0316227766016838</speed>
  <fix>3d</fix>
</trkpt>
<trkpt lat="-27.2737709" lon="151.2899057">
  <ele>344.2</ele>
  <time>2026-09-01T20:01:20Z</time>
  <course>278.17</course>
  <speed>0.0</speed>
  <fix>3d</fix>
</trkpt>
<trkpt lat="-27.273771" lon="151.2899055">
  <ele>343.99</ele>
  <time>2026-09-01T20:01:20Z</time>
  <course>106.81</course>
  <speed>0.0316227766016838</speed>
  <fix>3d</fix>
</trkpt>
<trkpt lat="-27.2737709" lon="151.2899057">
  <ele>344.2</ele>
  <time>2026-09-01T20:01:20Z</time>
  <course>278.17</course>
  <speed>0.0</speed>
  <fix>3d</fix>
</trkpt>
<trkpt lat="-27.273771" lon="151.2899054">
  <ele>343.94</ele>
  <time>2026-09-01T20:01:20Z</time>
  <course>106.82</course>
  <speed>0.0316227766016838</speed>
  <fix>3d</fix>
</trkpt>
<trkpt lat="-27.2737709" lon="151.2899057">
  <ele>344.09</ele>
  <time>2026-09-01T20:01:20Z</time>
  <course>275.04</course>
  <speed>0.0</speed>
  <fix>3d</fix>
</trkpt>
<trkpt lat="-27.273771" lon="151.2899054">
  <ele>343.89</ele>
  <time>2026-09-01T20:01:20Z</time>
  <course>106.84</course>
  <speed>0.0316227766016838</speed>
  <fix>3d</fix>
</trkpt>
<trkpt lat="-27.2737709" lon="151.2899057">
  <ele>344.09</ele>
  <time>2026-09-01T20:01:20Z</time>
  <course>275.04</course>
  <speed>0.0</speed>
  <fix>3d</fix>
</trkpt>
<trkpt lat="-27.273771" lon="151.2899054">
  <ele>343.84</ele>
  <time>2026-09-01T20:01:20Z</time>
  <course>106.85</course>
  <speed>0.0316227766016838</speed>
  <fix>3d</fix>
</trkpt>
<trkpt lat="-27.2737709" lon="151.2899057">
  <ele>344.0</ele>
  <time>2026-09-01T20:01:20Z</time>
  <course>251.33</course>
  <speed>0.0</speed>
  <fix>3d</fix>
</trkpt>
<trkpt lat="-27.273771" lon="151.2899054">
  <ele>343.79</ele>
  <time>2026-09-01T20:01:20Z</time>
  <course>106.85</course>
  <speed>0.0316227766016838</speed>
  <fix>3d</fix>
</trkpt>
<trkpt lat="-27.2737709" lon="151.2899057">
  <ele>344.0</ele>
  <time>2026-09-01T20:01:20Z</time>
  <course>251.33</course>
  <speed>0.0</speed>
  <fix>3d</fix>
</trkpt>
<trkpt lat="-27.273771" lon="151.2899054">
  <ele>343.74</ele>
  <time>2026-09-01T20:01:20Z</time>
  <course>106.85</course>
  <speed>0.0316227766016838</speed>
  <fix>3d</fix>
</trkpt>
<trkpt lat="-27.2737709" lon="151.2899057">
  <ele>343.9</ele>
  <time>2026-09-01T20:01:20Z</time>
  <course>188.13</course>
  <speed>0.0</speed>
  <fix>3d</fix>
</trkpt>
<trkpt lat="-27.273771" lon="151.2899054">
  <ele>343.69</ele>
  <time>2026-09-01T20:01:20Z</time>
  <course>106.84</course>
  <speed>0.0316227766016838</speed>
  <fix>3d</fix>
</trkpt>
<trkpt lat="-27.2737709" lon="151.2899057">
  <ele>343.9</ele>
  <time>2026-09-01T20:01:20Z</time>
  <course>188.13</course>
  <speed>0.0</speed>
  <fix>3d</fix>
</trkpt>
<trkpt lat="-27.273771" lon="151.2899054">
  <ele>343.64</ele>
  <time>2026-09-01T20:01:20Z</time>
  <course>106.84</course>
  <speed>0.0316227766016838</speed>
  <fix>3d</fix>
</trkpt>
<trkpt lat="-27.2737709" lon="151.2899057">
  <ele>343.8</ele>
  <time>2026-09-01T20:01:20Z</time>
  <course>130.16</course>
  <speed>0.0</speed>
  <fix>3d</fix>
</trkpt>
<trkpt lat="-27.273771" lon="151.2899054">
  <ele>343.59</ele>
  <time>2026-09-01T20:01:20Z</time>
  <course>106.84</course>
  <speed>0.022360679774997897</speed>
  <fix>3d</fix>
</trkpt>
<trkpt lat="-27.2737709" lon="151.2899057">
  <ele>343.8</ele>
  <time>2026-09-01T20:01:20Z</time>
  <course>130.16</course>
  <speed>0.0</speed>
  <fix>3d</fix>
</trkpt>
<trkpt lat="-27.273771" lon="151.2899054">
  <ele>343.54</ele>
  <time>2026-09-01T20:01:20Z</time>
  <course>106.85</course>
  <speed>0.022360679774997897</speed>
  <fix>3d</fix>
</trkpt>
<trkpt lat="-27.2737709" lon="151.2899057">
  <ele>343.7</ele>
  <time>2026-09-01T20:01:20Z</time>
  <course>85.12</course>
  <speed>0.0</speed>
  <fix>3d</fix>
</trkpt>
<trkpt lat="-27.273771" lon="151.2899054">
  <ele>343.49</ele>
  <time>2026-09-01T20:01:20Z</time>
  <course>106.86</course>
  <speed>0.022360679774997897</speed>
  <fix>3d</fix>
</trkpt>
<trkpt lat="-27.2737709" lon="151.2899057">
  <ele>343.7</ele>
  <time>2026-09-01T20:01:20Z</time>
  <course>85.12</course>
  <speed>0.0</speed>
  <fix>3d</fix>
</trkpt>
<trkpt lat="-27.273771" lon="151.2899054">
  <ele>343.44</ele>
  <time>2026-09-01T20:01:20Z</time>
  <course>106.87</course>
  <speed>0.022360679774997897</speed>
  <fix>3d</fix>
</trkpt>
<trkpt lat="-27.2737709" lon="151.2899057">
  <ele>343.59</ele>
  <time>2026-09-01T20:01:20Z</time>
  <course>74.21</course>
  <speed>0.0</speed>
  <fix>3d</fix>
</trkpt>
<trkpt lat="-27.273771" lon="151.2899055">
  <ele>343.39</ele>
  <time>2026-09-01T20:01:20Z</time>
  <course>106.88</course>
  <speed>0.022360679774997897</speed>
  <fix>3d</fix>
</trkpt>
<trkpt lat="-27.2737709" lon="151.2899057">
  <ele>343.59</ele>
  <time>2026-09-01T20:01:20Z</time>
  <course>74.21</course>
  <speed>0.0</speed>
  <fix>3d</fix>
</trkpt>
<trkpt lat="-27.273771" lon="151.2899055">
  <ele>343.34</ele>
  <time>2026-09-01T20:01:20Z</time>
  <course>106.88</course>
  <speed>0.022360679774997897</speed>
  <fix>3d</fix>
</trkpt>
<trkpt lat="-27.2737709" lon="151.2899057">
  <ele>343.5</ele>
  <time>2026-09-01T20:01:20Z</time>
  <course>68.38</course>
  <speed>0.0</speed>
  <fix>3d</fix>
</trkpt>
<trkpt lat="-27.273771" lon="151.2899055">
  <ele>343.29</ele>
  <time>2026-09-01T20:01:20Z</time>
  <course>106.89</course>
  <speed>0.022360679774997897</speed>
  <fix>3d</fix>
</trkpt>
<trkpt lat="-27.2737709" lon="151.2899057">
  <ele>343.5</ele>
  <time>2026-09-01T20:01:20Z</time>
  <course>68.38</course>
  <speed>0.0</speed>
  <fix>3d</fix>
</trkpt>
<trkpt lat="-27.273771" lon="151.2899055">
  <ele>343.24</ele>
  <time>2026-09-01T20:01:20Z</time>
  <course>106.9</course>
  <speed>0.022360679774997897</speed>
  <fix>3d</fix>
</trkpt>
<trkpt lat="-27.2737709" lon="151.2899057">
  <ele>343.4</ele>
  <time>2026-09-01T20:01:20Z</time>
  <course>61.63</course>
  <speed>0.0</speed>
  <fix>3d</fix>
</trkpt>
<trkpt lat="-27.273771" lon="151.2899055">
  <ele>343.19</ele>
  <time>2026-09-01T20:01:20Z</time>
  <course>106.9</course>
  <speed>0.022360679774997897</speed>
  <fix>3d</fix>
</trkpt>
<trkpt lat="-27.2737709" lon="151.2899057">
  <ele>343.4</ele>
  <time>2026-09-01T20:01:20Z</time>
  <course>61.63</course>
  <speed>0.0</speed>
  <fix>3d</fix>
</trkpt>
<trkpt lat="-27.273771" lon="151.2899055">
  <ele>343.14</ele>
  <time>2026-09-01T20:01:20Z</time>
  <course>106.89</course>
  <speed>0.022360679774997897</speed>
  <fix>3d</fix>
</trkpt>
<trkpt lat="-27.2737709" lon="151.2899057">
  <ele>343.3</ele>
  <time>2026-09-01T20:01:20Z</time>
  <course>53.7</course>
  <speed>0.0</speed>
  <fix>3d</fix>
</trkpt>
<trkpt lat="-27.273771" lon="151.2899055">
  <ele>343.09</ele>
  <time>2026-09-01T20:01:20Z</time>
  <course>106.89</course>
  <speed>0.02</speed>
  <fix>3d</fix>
</trkpt>
<trkpt lat="-27.2737709" lon="151.2899057">
  <ele>343.3</ele>
  <time>2026-09-01T20:01:20Z</time>
  <course>53.7</course>
  <speed>0.0</speed>
  <fix>3d</fix>
</trkpt>
<trkpt lat="-27.273771" lon="151.2899055">
  <ele>343.04</ele>
  <time>2026-09-01T20:01:20Z</time>
  <course>106.89</course>
  <speed>0.02</speed>
  <fix>3d</fix>
</trkpt>
<trkpt lat="-27.2737709" lon="151.2899057">
  <ele>343.2</ele>
  <time>2026-09-01T20:01:20Z</time>
  <course>48.03</course>
  <speed>0.0</speed>
  <fix>3d</fix>
</trkpt>
<trkpt lat="-27.273771" lon="151.2899055">
  <ele>342.99</ele>
  <time>2026-09-01T20:01:20Z</time>
  <course>106.89</course>
  <speed>0.02</speed>
  <fix>3d</fix>
</trkpt>
<trkpt lat="-27.2737709" lon="151.2899057">
  <ele>343.2</ele>
  <time>2026-09-01T20:01:20Z</time>
  <course>48.03</course>
  <speed>0.0</speed>
  <fix>3d</fix>
</trkpt>
<trkpt lat="-27.273771" lon="151.2899055">
  <ele>342.95</ele>
  <time>2026-09-01T20:01:20Z</time>
  <course>106.89</course>
  <speed>0.0316227766016838</speed>
  <fix>3d</fix>
</trkpt>
<trkpt lat="-27.2737709" lon="151.2899057">
  <ele>343.1</ele>
  <time>2026-09-01T20:01:20Z</time>
  <course>46.02</course>
  <speed>0.0</speed>
  <fix>3d</fix>
</trkpt>
<trkpt lat="-27.273771" lon="151.2899055">
  <ele>342.95</ele>
  <time>2026-09-01T20:01:20Z</time>
  <course>106.89</course>
  <speed>0.0316227766016838</speed>
  <fix>3d</fix>
</trkpt>
<trkpt lat="-27.2737709" lon="151.2899057">
  <ele>343.1</ele>
  <time>2026-09-01T20:01:20Z</time>
  <course>46.02</course>
  <speed>0.0</speed>
  <fix>3d</fix>
</trkpt>
<trkpt lat="-27.273771" lon="151.2899055">
  <ele>342.97</ele>
  <time>2026-09-01T20:01:20Z</time>
  <course>106.89</course>
  <speed>0.0316227766016838</speed>
  <fix>3d</fix>
</trkpt>
<trkpt lat="-27.2737709" lon="151.2899057">
  <ele>343.06</ele>
  <time>2026-09-01T20:01:20Z</time>
  <course>46.06</course>
  <speed>0.0</speed>
  <fix>3d</fix>
</trkpt>
<trkpt lat="-27.273771" lon="151.2899055">
  <ele>342.98</ele>
  <time>2026-09-01T20:01:20Z</time>
  <course>106.89</course>
  <speed>0.0316227766016838</speed>
  <fix>3d</fix>
</trkpt>
<trkpt lat="-27.2737709" lon="151.2899057">
  <ele>343.06</ele>
  <time>2026-09-01T20:01:20Z</time>
  <course>46.06</course>
  <speed>0.0</speed>
  <fix>3d</fix>
</trkpt>
<trkpt lat="-27.273771" lon="151.2899055">
  <ele>342.99</ele>
  <time>2026-09-01T20:01:20Z</time>
  <course>106.89</course>
  <speed>0.0316227766016838</speed>
  <fix>3d</fix>
</trkpt>
<trkpt lat="-27.2737709" lon="151.2899057">
  <ele>343.07</ele>
  <time>2026-09-01T20:01:20Z</time>
  <course>225.99</course>
  <speed>0.0</speed>
  <fix>3d</fix>
</trkpt>
<trkpt lat="-27.273771" lon="151.2899055">
  <ele>342.99</ele>
  <time>2026-09-01T20:01:20Z</time>
  <course>106.89</course>
  <speed>0.0316227766016838</speed>
  <fix>3d</fix>
</trkpt>
<trkpt lat="-27.2737709" lon="151.2899057">
  <ele>343.07</ele>
  <time>2026-09-01T20:01:20Z</time>
  <course>225.99</course>
  <speed>0.0</speed>
  <fix>3d</fix>
</trkpt>
<trkpt lat="-27.273771" lon="151.2899055">
  <ele>342.98</ele>
  <time>2026-09-01T20:01:20Z</time>
  <course>106.89</course>
  <speed>0.0316227766016838</speed>
  <fix>3d</fix>
</trkpt>
<trkpt lat="-27.2737709" lon="151.2899057">
  <ele>343.08</ele>
  <time>2026-09-01T20:01:20Z</time>
  <course>45.95</course>
  <speed>0.0</speed>
  <fix>3d</fix>
</trkpt>
<trkpt lat="-27.273771" lon="151.2899055">
  <ele>342.98</ele>
  <time>2026-09-01T20:01:20Z</time>
  <course>106.89</course>
  <speed>0.0316227766016838</speed>
  <fix>3d</fix>
</trkpt>
<trkpt lat="-27.2737709" lon="151.2899057">
  <ele>343.08</ele>
  <time>2026-09-01T20:01:20Z</time>
  <course>45.95</course>
  <speed>0.0</speed>
  <fix>3d</fix>
</trkpt>
<trkpt lat="-27.273771" lon="151.2899054">
  <ele>342.98</ele>
  <time>2026-09-01T20:01:20Z</time>
  <course>106.89</course>
  <speed>0.0316227766016838</speed>
  <fix>3d</fix>
</trkpt>
<trkpt lat="-27.2737709" lon="151.2899057">
  <ele>343.08</ele>
  <time>2026-09-01T20:01:20Z</time>
  <course>46.01</course>
  <speed>0.0</speed>
  <fix>3d</fix>
</trkpt>
<trkpt lat="-27.273771" lon="151.2899054">
  <ele>342.98</ele>
  <time>2026-09-01T20:01:20Z</time>
  <course>106.89</course>
  <speed>0.0316227766016838</speed>
  <fix>3d</fix>
</trkpt>
<trkpt lat="-27.2737709" lon="151.2899057">
  <ele>343.08</ele>
  <time>2026-09-01T20:01:20Z</time>
  <course>46.01</course>
  <speed>0.0</speed>
  <fix>3d</fix>
</trkpt>
<trkpt lat="-27.273771" lon="151.2899054">
  <ele>342.98</ele>
  <time>2026-09-01T20:01:20Z</time>
  <course>106.89</course>
  <speed>0.0316227766016838</speed>
  <fix>3d</fix>
</trkpt>
<trkpt lat="-27.2737709" lon="151.2899057">
  <ele>343.08</ele>
  <time>2026-09-01T20:01:20Z</time>
  <course>225.86</course>
  <speed>0.0</speed>
  <fix>3d</fix>
</trkpt>
<trkpt lat="-27.273771" lon="151.2899054">
  <ele>342.98</ele>
  <time>2026-09-01T20:01:20Z</time>
  <course>106.89</course>
  <speed>0.0316227766016838</speed>
  <fix>3d</fix>
</trkpt>
<trkpt lat="-27.2737709" lon="151.2899057">
  <ele>343.08</ele>
  <time>2026-09-01T20:01:20Z</time>
  <course>225.86</course>
  <speed>0.0</speed>
  <fix>3d</fix>
</trkpt>
<trkpt lat="-27.273771" lon="151.2899054">
  <ele>342.98</ele>
  <time>2026-09-01T20:01:20Z</time>
  <course>106.89</course>
  <speed>0.0316227766016838</speed>
  <fix>3d</fix>
</trkpt>
<trkpt lat="-27.2737709" lon="151.2899057">
  <ele>343.08</ele>
  <time>2026-09-01T20:01:20Z</time>
  <course>225.84</course>
  <speed>0.0</speed>
  <fix>3d</fix>
</trkpt>
<trkpt lat="-27.273771" lon="151.2899054">
  <ele>342.98</ele>
  <time>2026-09-01T20:01:20Z</time>
  <course>106.89</course>
  <speed>0.0316227766016838</speed>
  <fix>3d</fix>
</trkpt>
<trkpt lat="-27.2737709" lon="151.2899057">
  <ele>343.08</ele>
  <time>2026-09-01T20:01:20Z</time>
  <course>225.84</course>
  <speed>0.0</speed>
  <fix>3d</fix>
</trkpt>
<trkpt lat="-27.273771" lon="151.2899054">
  <ele>342.98</ele>
  <time>2026-09-01T20:01:20Z</time>
  <course>106.89</course>
  <speed>0.0316227766016838</speed>
  <fix>3d</fix>
</trkpt>
<trkpt lat="-27.2737709" lon="151.2899057">
  <ele>343.08</ele>
  <time>2026-09-01T20:01:20Z</time>
  <course>46.29</course>
  <speed>0.0</speed>
  <fix>3d</fix>
</trkpt>
<trkpt lat="-27.273771" lon="151.2899054">
  <ele>342.98</ele>
  <time>2026-09-01T20:01:20Z</time>
  <course>106.89</course>
  <speed>0.0316227766016838</speed>
  <fix>3d</fix>
</trkpt>
<trkpt lat="-27.2737709" lon="151.2899057">
  <ele>343.08</ele>
  <time>2026-09-01T20:01:20Z</time>
  <course>46.29</course>
  <speed>0.0</speed>
  <fix>3d</fix>
</trkpt>
<trkpt lat="-27.273771" lon="151.2899054">
  <ele>342.98</ele>
  <time>2026-09-01T20:01:20Z</time>
  <course>106.89</course>
  <speed>0.0316227766016838</speed>
  <fix>3d</fix>
</trkpt>
<trkpt lat="-27.2737709" lon="151.2899057">
  <ele>343.08</ele>
  <time>2026-09-01T20:01:20Z</time>
  <course>46.51</course>
  <speed>0.0</speed>
  <fix>3d</fix>
</trkpt>
<trkpt lat="-27.273771" lon="151.2899054">
  <ele>342.98</ele>
  <time>2026-09-01T20:01:20Z</time>
  <course>106.89</course>
  <speed>0.0316227766016838</speed>
  <fix>3d</fix>
</trkpt>
<trkpt lat="-27.2737709" lon="151.2899057">
  <ele>343.08</ele>
  <time>2026-09-01T20:01:20Z</time>
  <course>46.51</course>
  <speed>0.0</speed>
  <fix>3d</fix>
</trkpt>
<trkpt lat="-27.273771" lon="151.2899054">
  <ele>342.98</ele>
  <time>2026-09-01T20:01:20Z</time>
  <course>106.89</course>
  <speed>0.0316227766016838</speed>
  <fix>3d</fix>
</trkpt>
<trkpt lat="-27.2737709" lon="151.2899057">
  <ele>343.08</ele>
  <time>2026-09-01T20:01:20Z</time>
  <course>225.18</course>
  <speed>0.0</speed>
  <fix>3d</fix>
</trkpt>
<trkpt lat="-27.273771" lon="151.2899054">
  <ele>342.97</ele>
  <time>2026-09-01T20:01:20Z</time>
  <course>106.89</course>
  <speed>0.0316227766016838</speed>
  <fix>3d</fix>
</trkpt>
<trkpt lat="-27.2737709" lon="151.2899057">
  <ele>343.08</ele>
  <time>2026-09-01T20:01:20Z</time>
  <course>225.18</course>
  <speed>0.0</speed>
  <fix>3d</fix>
</trkpt>
<trkpt lat="-27.273771" lon="151.2899054">
  <ele>342.97</ele>
  <time>2026-09-01T20:01:20Z</time>
  <course>106.89</course>
  <speed>0.0316227766016838</speed>
  <fix>3d</fix>
</trkpt>
<trkpt lat="-27.2737709" lon="151.2899057">
  <ele>343.08</ele>
  <time>2026-09-01T20:01:20Z</time>
  <course>219.94</course>
  <speed>0.0</speed>
  <fix>3d</fix>
</trkpt>
<trkpt lat="-27.273771" lon="151.2899054">
  <ele>342.97</ele>
  <time>2026-09-01T20:01:20Z</time>
  <course>106.89</course>
  <speed>0.0316227766016838</speed>
  <fix>3d</fix>
</trkpt>
<trkpt lat="-27.2737709" lon="151.2899057">
  <ele>343.08</ele>
  <time>2026-09-01T20:01:20Z</time>
  <course>219.94</course>
  <speed>0.0</speed>
  <fix>3d</fix>
</trkpt>
<trkpt lat="-27.273771" lon="151.2899054">
  <ele>342.97</ele>
  <time>2026-09-01T20:01:20Z</time>
  <course>106.89</course>
  <speed>0.0316227766016838</speed>
  <fix>3d</fix>
</trkpt>
<trkpt lat="-27.2737709" lon="151.2899057">
  <ele>343.08</ele>
  <time>2026-09-01T20:01:20Z</time>
  <course>40.2</course>
  <speed>0.0</speed>
  <fix>3d</fix>
</trkpt>
<trkpt lat="-27.273771" lon="151.2899054">
  <ele>342.97</ele>
  <time>2026-09-01T20:01:20Z</time>
  <course>106.89</course>
  <speed>0.0316227766016838</speed>
  <fix>3d</fix>
</trkpt>
<trkpt lat="-27.2737709" lon="151.2899057">
  <ele>343.08</ele>
  <time>2026-09-01T20:01:20Z</time>
  <course>40.2</course>
  <speed>0.0</speed>
  <fix>3d</fix>
</trkpt>
<trkpt lat="-27.273771" lon="151.2899054">
  <ele>342.97</ele>
  <time>2026-09-01T20:01:20Z</time>
  <course>106.89</course>
  <speed>0.0316227766016838</speed>
  <fix>3d</fix>
</trkpt>
<trkpt lat="-27.2737709" lon="151.2899057">
  <ele>343.08</ele>
  <time>2026-09-01T20:01:20Z</time>
  <course>296.76</course>
  <speed>0.0</speed>
  <fix>3d</fix>
</trkpt>
<trkpt lat="-27.273771" lon="151.2899054">
  <ele>342.97</ele>
  <time>2026-09-01T20:01:20Z</time>
  <course>106.89</course>
  <speed>0.0316227766016838</speed>
  <fix>3d</fix>
</trkpt>
<trkpt lat="-27.2737709" lon="151.2899057">
  <ele>343.08</ele>
  <time>2026-09-01T20:01:20Z</time>
  <course>296.76</course>
  <speed>0.0</speed>
  <fix>3d</fix>
</trkpt>
<trkpt lat="-27.273771" lon="151.2899054">
  <ele>342.97</ele>
  <time>2026-09-01T20:01:20Z</time>
  <course>106.89</course>
  <speed>0.0316227766016838</speed>
  <fix>3d</fix>
</trkpt>
<trkpt lat="-27.2737709" lon="151.2899057">
  <ele>343.08</ele>
  <time>2026-09-01T20:01:20Z</time>
  <course>308.27</course>
  <speed>0.0</speed>
  <fix>3d</fix>
</trkpt>
<trkpt lat="-27.273771" lon="151.2899054">
  <ele>342.97</ele>
  <time>2026-09-01T20:01:20Z</time>
  <course>106.89</course>
  <speed>0.0316227766016838</speed>
  <fix>3d</fix>
</trkpt>
<trkpt lat="-27.2737709" lon="151.2899057">
  <ele>343.08</ele>
  <time>2026-09-01T20:01:20Z</time>
  <course>308.27</course>
  <speed>0.0</speed>
  <fix>3d</fix>
</trkpt>
<trkpt lat="-27.273771" lon="151.2899054">
  <ele>342.97</ele>
  <time>2026-09-01T20:01:20Z</time>
  <course>106.89</course>
  <speed>0.0316227766016838</speed>
  <fix>3d</fix>
</trkpt>
<trkpt lat="-27.2737709" lon="151.2899057">
  <ele>343.08</ele>
  <time>2026-09-01T20:01:20Z</time>
  <course>290.05</course>
  <speed>0.0</speed>
  <fix>3d</fix>
</trkpt>
<trkpt lat="-27.273771" lon="151.2899054">
  <ele>342.97</ele>
  <time>2026-09-01T20:01:20Z</time>
  <course>106.89</course>
  <speed>0.0316227766016838</speed>
  <fix>3d</fix>
</trkpt>
<trkpt lat="-27.2737709" lon="151.2899057">
  <ele>343.08</ele>
  <time>2026-09-01T20:01:20Z</time>
  <course>290.05</course>
  <speed>0.0</speed>
  <fix>3d</fix>
</trkpt>
<trkpt lat="-27.273771" lon="151.2899054">
  <ele>342.98</ele>
  <time>2026-09-01T20:01:20Z</time>
  <course>106.89</course>
  <speed>0.0316227766016838</speed>
  <fix>3d</fix>
</trkpt>
<trkpt lat="-27.2737709" lon="151.2899057">
  <ele>343.08</ele>
  <time>2026-09-01T20:01:20Z</time>
  <course>251.51</course>
  <speed>0.0</speed>
  <fix>3d</fix>
</trkpt>
<trkpt lat="-27.273771" lon="151.2899054">
  <ele>342.98</ele>
  <time>2026-09-01T20:01:20Z</time>
  <course>106.89</course>
  <speed>0.0316227766016838</speed>
  <fix>3d</fix>
</trkpt>
<trkpt lat="-27.2737709" lon="151.2899057">
  <ele>343.08</ele>
  <time>2026-09-01T20:01:20Z</time>
  <course>251.51</course>
  <speed>0.0</speed>
  <fix>3d</fix>
</trkpt>
<trkpt lat="-27.273771" lon="151.2899054">
  <ele>342.98</ele>
  <time>2026-09-01T20:01:20Z</time>
  <course>106.89</course>
  <speed>0.0316227766016838</speed>
  <fix>3d</fix>
</trkpt>
<trkpt lat="-27.2737709" lon="151.2899057">
  <ele>343.08</ele>
  <time>2026-09-01T20:01:20Z</time>
  <course>248.65</course>
  <speed>0.0</speed>
  <fix>3d</fix>
</trkpt>
<trkpt lat="-27.273771" lon="151.2899054">
  <ele>342.98</ele>
  <time>2026-09-01T20:01:20Z</time>
  <course>106.89</course>
  <speed>0.0316227766016838</speed>
  <fix>3d</fix>
</trkpt>
<trkpt lat="-27.2737709" lon="151.2899057">
  <ele>343.08</ele>
  <time>2026-09-01T20:01:20Z</time>
  <course>248.65</course>
  <speed>0.0</speed>
  <fix>3d</fix>
</trkpt>
<trkpt lat="-27.273771" lon="151.2899054">
  <ele>342.98</ele>
  <time>2026-09-01T20:01:20Z</time>
  <course>106.89</course>
  <speed>0.0316227766016838</speed>
  <fix>3d</fix>
</trkpt>
<trkpt lat="-27.2737709" lon="151.2899057">
  <ele>343.08</ele>
  <time>2026-09-01T20:01:20Z</time>
  <course>246.09</course>
  <speed>0.0</speed>
  <fix>3d</fix>
</trkpt>
<trkpt lat="-27.273771" lon="151.2899054">
  <ele>342.98</ele>
  <time>2026-09-01T20:01:20Z</time>
  <course>106.89</course>
  <speed>0.0316227766016838</speed>
  <fix>3d</fix>
</trkpt>
<trkpt lat="-27.2737709" lon="151.2899057">
  <ele>343.08</ele>
  <time>2026-09-01T20:01:20Z</time>
  <course>246.09</course>
  <speed>0.0</speed>
  <fix>3d</fix>
</trkpt>
<trkpt lat="-27.273771" lon="151.2899054">
  <ele>342.98</ele>
  <time>2026-09-01T20:01:20Z</time>
  <course>106.89</course>
  <speed>0.0316227766016838</speed>
  <fix>3d</fix>
</trkpt>
<trkpt lat="-27.2737709" lon="151.2899057">
  <ele>343.08</ele>
  <time>2026-09-01T20:01:20Z</time>
  <course>252.05</course>
  <speed>0.0</speed>
  <fix>3d</fix>
</trkpt>
<trkpt lat="-27.273771" lon="151.2899054">
  <ele>342.98</ele>
  <time>2026-09-01T20:01:20Z</time>
  <course>106.89</course>
  <speed>0.0316227766016838</speed>
  <fix>3d</fix>
</trkpt>
<trkpt lat="-27.2737709" lon="151.2899057">
  <ele>343.08</ele>
  <time>2026-09-01T20:01:20Z</time>
  <course>252.05</course>
  <speed>0.0</speed>
  <fix>3d</fix>
</trkpt>
<trkpt lat="-27.273771" lon="151.2899054">
  <ele>342.98</ele>
  <time>2026-09-01T20:01:20Z</time>
  <course>106.89</course>
  <speed>0.0316227766016838</speed>
  <fix>3d</fix>
</trkpt>
<trkpt lat="-27.2737709" lon="151.2899057">
  <ele>343.08</ele>
  <time>2026-09-01T20:01:20Z</time>
  <course>247.43</course>
  <speed>0.0</speed>
  <fix>3d</fix>
</trkpt>
<trkpt lat="-27.273771" lon="151.2899054">
  <ele>342.98</ele>
  <time>2026-09-01T20:01:20Z</time>
  <course>106.89</course>
  <speed>0.0316227766016838</speed>
  <fix>3d</fix>
</trkpt>
<trkpt lat="-27.2737709" lon="151.2899057">
  <ele>343.08</ele>
  <time>2026-09-01T20:01:20Z</time>
  <course>247.43</course>
  <speed>0.0</speed>
  <fix>3d</fix>
</trkpt>
<trkpt lat="-27.273771" lon="151.2899054">
  <ele>342.98</ele>
  <time>2026-09-01T20:01:20Z</time>
  <course>106.89</course>
  <speed>0.0316227766016838</speed>
  <fix>3d</fix>
</trkpt>
<trkpt lat="-27.2737709" lon="151.2899057">
  <ele>343.08</ele>
  <time>2026-09-01T20:01:20Z</time>
  <course>269.2</course>
  <speed>0.0</speed>
  <fix>3d</fix>
</trkpt>
<trkpt lat="-27.273771" lon="151.2899054">
  <ele>342.98</ele>
  <time>2026-09-01T20:01:20Z</time>
  <course>106.89</course>
  <speed>0.0316227766016838</speed>
  <fix>3d</fix>
</trkpt>
<trkpt lat="-27.2737709" lon="151.2899057">
  <ele>343.08</ele>
  <time>2026-09-01T20:01:20Z</time>
  <course>269.2</course>
  <speed>0.0</speed>
  <fix>3d</fix>
</trkpt>
<trkpt lat="-27.273771" lon="151.2899054">
  <ele>342.98</ele>
  <time>2026-09-01T20:01:20Z</time>
  <course>106.89</course>
  <speed>0.0316227766016838</speed>
  <fix>3d</fix>
</trkpt>
<trkpt lat="-27.2737709" lon="151.2899057">
  <ele>343.08</ele>
  <time>2026-09-01T20:01:20Z</time>
  <course>267.58</course>
  <speed>0.0</speed>
  <fix>3d</fix>
</trkpt>
<trkpt lat="-27.273771" lon="151.2899054">
  <ele>342.98</ele>
  <time>2026-09-01T20:01:20Z</time>
  <course>106.89</course>
  <speed>0.0316227766016838</speed>
  <fix>3d</fix>
</trkpt>
<trkpt lat="-27.2737709" lon="151.2899057">
  <ele>343.08</ele>
  <time>2026-09-01T20:01:20Z</time>
  <course>267.58</course>
  <speed>0.0</speed>
  <fix>3d</fix>
</trkpt>
<trkpt lat="-27.273771" lon="151.2899054">
  <ele>342.98</ele>
  <time>2026-09-01T20:01:20Z</time>
  <course>106.89</course>
  <speed>0.0316227766016838</speed>
  <fix>3d</fix>
</trkpt>
<trkpt lat="-27.2737709" lon="151.2899057">
  <ele>343.08</ele>
  <time>2026-09-01T20:01:20Z</time>
  <course>275.25</course>
  <speed>0.0</speed>
  <fix>3d</fix>
</trkpt>
<trkpt lat="-27.273771" lon="151.2899054">
  <ele>342.98</ele>
  <time>2026-09-01T20:01:20Z</time>
  <course>106.89</course>
  <speed>0.0316227766016838</speed>
  <fix>3d</fix>
</trkpt>
<trkpt lat="-27.2737709" lon="151.2899057">
  <ele>343.08</ele>
  <time>2026-09-01T20:01:20Z</time>
  <course>275.25</course>
  <speed>0.0</speed>
  <fix>3d</fix>
</trkpt>
<trkpt lat="-27.273771" lon="151.2899054">
  <ele>342.99</ele>
  <time>2026-09-01T20:01:20Z</time>
  <course>106.89</course>
  <speed>0.0316227766016838</speed>
  <fix>3d</fix>
</trkpt>
<trkpt lat="-27.2737709" lon="151.2899057">
  <ele>343.08</ele>
  <time>2026-09-01T20:01:20Z</time>
  <course>263.65</course>
  <speed>0.0</speed>
  <fix>3d</fix>
</trkpt>
<trkpt lat="-27.273771" lon="151.2899054">
  <ele>342.99</ele>
  <time>2026-09-01T20:01:20Z</time>
  <course>106.89</course>
  <speed>0.0316227766016838</speed>
  <fix>3d</fix>
</trkpt>
<trkpt lat="-27.2737709" lon="151.2899057">
  <ele>343.08</ele>
  <time>2026-09-01T20:01:20Z</time>
  <course>263.65</course>
  <speed>0.0</speed>
  <fix>3d</fix>
</trkpt>
<trkpt lat="-27.273771" lon="151.2899054">
  <ele>342.99</ele>
  <time>2026-09-01T20:01:20Z</time>
  <course>106.89</course>
  <speed>0.0316227766016838</speed>
  <fix>3d</fix>
</trkpt>
<trkpt lat="-27.2737709" lon="151.2899057">
  <ele>343.08</ele>
  <time>2026-09-01T20:01:20Z</time>
  <course>224.17</course>
  <speed>0.0</speed>
  <fix>3d</fix>
</trkpt>
<trkpt lat="-27.273771" lon="151.2899054">
  <ele>342.99</ele>
  <time>2026-09-01T20:01:20Z</time>
  <course>106.89</course>
  <speed>0.0316227766016838</speed>
  <fix>3d</fix>
</trkpt>
<trkpt lat="-27.2737709" lon="151.2899057">
  <ele>343.08</ele>
  <time>2026-09-01T20:01:20Z</time>
  <course>224.17</course>
  <speed>0.0</speed>
  <fix>3d</fix>
</trkpt>
<trkpt lat="-27.273771" lon="151.2899054">
  <ele>342.99</ele>
  <time>2026-09-01T20:01:20Z</time>
  <course>106.89</course>
  <speed>0.0316227766016838</speed>
  <fix>3d</fix>
</trkpt>
<trkpt lat="-27.2737709" lon="151.2899057">
  <ele>343.08</ele>
  <time>2026-09-01T20:01:20Z</time>
  <course>255.49</course>
  <speed>0.0</speed>
  <fix>3d</fix>
</trkpt>
<trkpt lat="-27.273771" lon="151.2899054">
  <ele>342.99</ele>
  <time>2026-09-01T20:01:20Z</time>
  <course>106.89</course>
  <speed>0.0316227766016838</speed>
  <fix>3d</fix>
</trkpt>
<trkpt lat="-27.2737709" lon="151.2899057">
  <ele>343.08</ele>
  <time>2026-09-01T20:01:20Z</time>
  <course>255.49</course>
  <speed>0.0</speed>
  <fix>3d</fix>
</trkpt>
<trkpt lat="-27.273771" lon="151.2899054">
  <ele>342.99</ele>
  <time>2026-09-01T20:01:20Z</time>
  <course>106.89</course>
  <speed>0.0316227766016838</speed>
  <fix>3d</fix>
</trkpt>
<trkpt lat="-27.2737709" lon="151.2899057">
  <ele>343.08</ele>
  <time>2026-09-01T20:01:20Z</time>
  <course>262.57</course>
  <speed>0.0</speed>
  <fix>3d</fix>
</trkpt>
<trkpt lat="-27.273771" lon="151.2899054">
  <ele>342.99</ele>
  <time>2026-09-01T20:01:20Z</time>
  <course>106.89</course>
  <speed>0.0316227766016838</speed>
  <fix>3d</fix>
</trkpt>
<trkpt lat="-27.2737709" lon="151.2899057">
  <ele>343.08</ele>
  <time>2026-09-01T20:01:20Z</time>
  <course>262.57</course>
  <speed>0.0</speed>
  <fix>3d</fix>
</trkpt>
<trkpt lat="-27.273771" lon="151.2899054">
  <ele>342.99</ele>
  <time>2026-09-01T20:01:21Z</time>
  <course>106.89</course>
  <speed>0.0316227766016838</speed>
  <fix>3d</fix>
</trkpt>
<trkpt lat="-27.2737709" lon="151.2899057">
  <ele>343.08</ele>
  <time>2026-09-01T20:01:21Z</time>
  <course>268.43</course>
  <speed>0.0</speed>
  <fix>3d</fix>
</trkpt>
<trkpt lat="-27.273771" lon="151.2899054">
  <ele>342.99</ele>
  <time>2026-09-01T20:01:21Z</time>
  <course>106.89</course>
  <speed>0.022360679774997897</speed>
  <fix>3d</fix>
</trkpt>
<trkpt lat="-27.2737709" lon="151.2899057">
  <ele>343.08</ele>
  <time>2026-09-01T20:01:21Z</time>
  <course>268.43</course>
  <speed>0.0</speed>
  <fix>3d</fix>
</trkpt>
<trkpt lat="-27.273771" lon="151.2899054">
  <ele>342.99</ele>
  <time>2026-09-01T20:01:21Z</time>
  <course>106.89</course>
  <speed>0.0316227766016838</speed>
  <fix>3d</fix>
</trkpt>
<trkpt lat="-27.2737709" lon="151.2899057">
  <ele>343.08</ele>
  <time>2026-09-01T20:01:21Z</time>
  <course>269.53</course>
  <speed>0.0</speed>
  <fix>3d</fix>
</trkpt>
<trkpt lat="-27.273771" lon="151.2899054">
  <ele>342.99</ele>
  <time>2026-09-01T20:01:21Z</time>
  <course>106.89</course>
  <speed>0.022360679774997897</speed>
  <fix>3d</fix>
</trkpt>
<trkpt lat="-27.2737709" lon="151.2899057">
  <ele>343.08</ele>
  <time>2026-09-01T20:01:21Z</time>
  <course>269.53</course>
  <speed>0.0</speed>
  <fix>3d</fix>
</trkpt>
<trkpt lat="-27.273771" lon="151.2899054">
  <ele>342.99</ele>
  <time>2026-09-01T20:01:21Z</time>
  <course>106.89</course>
  <speed>0.0316227766016838</speed>
  <fix>3d</fix>
</trkpt>
<trkpt lat="-27.2737709" lon="151.2899057">
  <ele>343.08</ele>
  <time>2026-09-01T20:01:21Z</time>
  <course>238.81</course>
  <speed>0.0</speed>
  <fix>3d</fix>
</trkpt>
<trkpt lat="-27.273771" lon="151.2899054">
  <ele>342.99</ele>
  <time>2026-09-01T20:01:21Z</time>
  <course>106.89</course>
  <speed>0.022360679774997897</speed>
  <fix>3d</fix>
</trkpt>
<trkpt lat="-27.2737709" lon="151.2899057">
  <ele>343.08</ele>
  <time>2026-09-01T20:01:21Z</time>
  <course>238.81</course>
  <speed>0.0</speed>
  <fix>3d</fix>
</trkpt>
<trkpt lat="-27.273771" lon="151.2899054">
  <ele>342.99</ele>
  <time>2026-09-01T20:01:21Z</time>
  <course>106.89</course>
  <speed>0.0316227766016838</speed>
  <fix>3d</fix>
</trkpt>
<trkpt lat="-27.2737709" lon="151.2899057">
  <ele>343.08</ele>
  <time>2026-09-01T20:01:21Z</time>
  <course>241.25</course>
  <speed>0.0</speed>
  <fix>3d</fix>
</trkpt>
<trkpt lat="-27.273771" lon="151.2899054">
  <ele>342.99</ele>
  <time>2026-09-01T20:01:21Z</time>
  <course>106.89</course>
  <speed>0.022360679774997897</speed>
  <fix>3d</fix>
</trkpt>
<trkpt lat="-27.2737709" lon="151.2899057">
  <ele>343.08</ele>
  <time>2026-09-01T20:01:21Z</time>
  <course>241.25</course>
  <speed>0.0</speed>
  <fix>3d</fix>
</trkpt>
<trkpt lat="-27.273771" lon="151.2899054">
  <ele>342.99</ele>
  <time>2026-09-01T20:01:21Z</time>
  <course>106.89</course>
  <speed>0.0316227766016838</speed>
  <fix>3d</fix>
</trkpt>
<trkpt lat="-27.2737709" lon="151.2899057">
  <ele>343.08</ele>
  <time>2026-09-01T20:01:21Z</time>
  <course>50.67</course>
  <speed>0.0</speed>
  <fix>3d</fix>
</trkpt>
<trkpt lat="-27.273771" lon="151.2899054">
  <ele>342.99</ele>
  <time>2026-09-01T20:01:21Z</time>
  <course>106.89</course>
  <speed>0.022360679774997897</speed>
  <fix>3d</fix>
</trkpt>
<trkpt lat="-27.2737709" lon="151.2899057">
  <ele>343.08</ele>
  <time>2026-09-01T20:01:21Z</time>
  <course>50.67</course>
  <speed>0.0</speed>
  <fix>3d</fix>
</trkpt>
<trkpt lat="-27.273771" lon="151.2899054">
  <ele>342.99</ele>
  <time>2026-09-01T20:01:21Z</time>
  <course>106.9</course>
  <speed>0.0316227766016838</speed>
  <fix>3d</fix>
</trkpt>
<trkpt lat="-27.2737709" lon="151.2899057">
  <ele>343.08</ele>
  <time>2026-09-01T20:01:21Z</time>
  <course>51.61</course>
  <speed>0.0</speed>
  <fix>3d</fix>
</trkpt>
<trkpt lat="-27.273771" lon="151.2899054">
  <ele>342.99</ele>
  <time>2026-09-01T20:01:21Z</time>
  <course>106.9</course>
  <speed>0.022360679774997897</speed>
  <fix>3d</fix>
</trkpt>
<trkpt lat="-27.2737709" lon="151.2899057">
  <ele>343.08</ele>
  <time>2026-09-01T20:01:21Z</time>
  <course>51.61</course>
  <speed>0.0</speed>
  <fix>3d</fix>
</trkpt>
<trkpt lat="-27.273771" lon="151.2899054">
  <ele>342.99</ele>
  <time>2026-09-01T20:01:21Z</time>
  <course>106.9</course>
  <speed>0.0316227766016838</speed>
  <fix>3d</fix>
</trkpt>
<trkpt lat="-27.2737709" lon="151.2899057">
  <ele>343.08</ele>
  <time>2026-09-01T20:01:21Z</time>
  <course>59.2</course>
  <speed>0.0</speed>
  <fix>3d</fix>
</trkpt>
<trkpt lat="-27.273771" lon="151.2899054">
  <ele>343.0</ele>
  <time>2026-09-01T20:01:21Z</time>
  <course>106.9</course>
  <speed>0.022360679774997897</speed>
  <fix>3d</fix>
</trkpt>
<trkpt lat="-27.2737709" lon="151.2899057">
  <ele>343.08</ele>
  <time>2026-09-01T20:01:21Z</time>
  <course>59.2</course>
  <speed>0.0</speed>
  <fix>3d</fix>
</trkpt>
<trkpt lat="-27.273771" lon="151.2899054">
  <ele>343.0</ele>
  <time>2026-09-01T20:01:21Z</time>
  <course>106.91</course>
  <speed>0.0316227766016838</speed>
  <fix>3d</fix>
</trkpt>
<trkpt lat="-27.2737709" lon="151.2899057">
  <ele>343.08</ele>
  <time>2026-09-01T20:01:21Z</time>
  <course>231.75</course>
  <speed>0.0</speed>
  <fix>3d</fix>
</trkpt>
<trkpt lat="-27.273771" lon="151.2899054">
  <ele>343.08</ele>
  <time>2026-09-01T20:01:21Z</time>
  <course>106.91</course>
  <speed>0.022360679774997897</speed>
  <fix>3d</fix>
</trkpt>
<trkpt lat="-27.2737709" lon="151.2899057">
  <ele>343.08</ele>
  <time>2026-09-01T20:01:21Z</time>
  <course>231.75</course>
  <speed>0.0</speed>
  <fix>3d</fix>
</trkpt>
<trkpt lat="-27.273771" lon="151.2899054">
  <ele>343.07</ele>
  <time>2026-09-01T20:01:21Z</time>
  <course>106.91</course>
  <speed>0.022360679774997897</speed>
  <fix>3d</fix>
</trkpt>
<trkpt lat="-27.2737709" lon="151.2899057">
  <ele>343.08</ele>
  <time>2026-09-01T20:01:21Z</time>
  <course>50.11</course>
  <speed>0.0</speed>
  <fix>3d</fix>
</trkpt>
<trkpt lat="-27.273771" lon="151.2899054">
  <ele>343.07</ele>
  <time>2026-09-01T20:01:21Z</time>
  <course>106.91</course>
  <speed>0.022360679774997897</speed>
  <fix>3d</fix>
</trkpt>
<trkpt lat="-27.2737709" lon="151.2899057">
  <ele>343.08</ele>
  <time>2026-09-01T20:01:21Z</time>
  <course>50.11</course>
  <speed>0.0</speed>
  <fix>3d</fix>
</trkpt>
<trkpt lat="-27.273771" lon="151.2899054">
  <ele>343.07</ele>
  <time>2026-09-01T20:01:21Z</time>
  <course>106.92</course>
  <speed>0.022360679774997897</speed>
  <fix>3d</fix>
</trkpt>
<trkpt lat="-27.2737709" lon="151.2899057">
  <ele>343.08</ele>
  <time>2026-09-01T20:01:21Z</time>
  <course>51.91</course>
  <speed>0.0</speed>
  <fix>3d</fix>
</trkpt>
<trkpt lat="-27.273771" lon="151.2899054">
  <ele>343.08</ele>
  <time>2026-09-01T20:01:21Z</time>
  <course>106.92</course>
  <speed>0.022360679774997897</speed>
  <fix>3d</fix>
</trkpt>
<trkpt lat="-27.2737709" lon="151.2899057">
  <ele>343.08</ele>
  <time>2026-09-01T20:01:21Z</time>
  <course>51.91</course>
  <speed>0.0</speed>
  <fix>3d</fix>
</trkpt>
<trkpt lat="-27.273771" lon="151.2899054">
  <ele>343.08</ele>
  <time>2026-09-01T20:01:21Z</time>
  <course>106.92</course>
  <speed>0.022360679774997897</speed>
  <fix>3d</fix>
</trkpt>
<trkpt lat="-27.2737709" lon="151.2899057">
  <ele>343.08</ele>
  <time>2026-09-01T20:01:21Z</time>
  <course>231.06</course>
  <speed>0.0</speed>
  <fix>3d</fix>
</trkpt>
<trkpt lat="-27.273771" lon="151.2899054">
  <ele>343.09</ele>
  <time>2026-09-01T20:01:21Z</time>
  <course>106.92</course>
  <speed>0.022360679774997897</speed>
  <fix>3d</fix>
</trkpt>
<trkpt lat="-27.2737709" lon="151.2899057">
  <ele>343.08</ele>
  <time>2026-09-01T20:01:21Z</time>
  <course>231.06</course>
  <speed>0.0</speed>
  <fix>3d</fix>
</trkpt>
<trkpt lat="-27.273771" lon="151.2899054">
  <ele>343.1</ele>
  <time>2026-09-01T20:01:21Z</time>
  <course>106.93</course>
  <speed>0.022360679774997897</speed>
  <fix>3d</fix>
</trkpt>
<trkpt lat="-27.2737709" lon="151.2899057">
  <ele>343.08</ele>
  <time>2026-09-01T20:01:21Z</time>
  <course>232.12</course>
  <speed>0.0</speed>
  <fix>3d</fix>
</trkpt>
<trkpt lat="-27.273771" lon="151.2899054">
  <ele>343.11</ele>
  <time>2026-09-01T20:01:21Z</time>
  <course>106.93</course>
  <speed>0.022360679774997897</speed>
  <fix>3d</fix>
</trkpt>
<trkpt lat="-27.2737709" lon="151.2899057">
  <ele>343.08</ele>
  <time>2026-09-01T20:01:21Z</time>
  <course>232.12</course>
  <speed>0.0</speed>
  <fix>3d</fix>
</trkpt>
<trkpt lat="-27.273771" lon="151.2899054">
  <ele>343.13</ele>
  <time>2026-09-01T20:01:21Z</time>
  <course>106.93</course>
  <speed>0.022360679774997897</speed>
  <fix>3d</fix>
</trkpt>
<trkpt lat="-27.2737709" lon="151.2899057">
  <ele>343.08</ele>
  <time>2026-09-01T20:01:21Z</time>
  <course>51.37</course>
  <speed>0.0</speed>
  <fix>3d</fix>
</trkpt>
<trkpt lat="-27.273771" lon="151.2899054">
  <ele>343.14</ele>
  <time>2026-09-01T20:01:21Z</time>
  <course>106.93</course>
  <speed>0.022360679774997897</speed>
  <fix>3d</fix>
</trkpt>
<trkpt lat="-27.2737709" lon="151.2899057">
  <ele>343.08</ele>
  <time>2026-09-01T20:01:21Z</time>
  <course>51.37</course>
  <speed>0.0</speed>
  <fix>3d</fix>
</trkpt>
<trkpt lat="-27.273771" lon="151.2899054">
  <ele>343.15</ele>
  <time>2026-09-01T20:01:21Z</time>
  <course>106.94</course>
  <speed>0.022360679774997897</speed>
  <fix>3d</fix>
</trkpt>
<trkpt lat="-27.2737709" lon="151.2899057">
  <ele>343.08</ele>
  <time>2026-09-01T20:01:21Z</time>
  <course>52.53</course>
  <speed>0.0</speed>
  <fix>3d</fix>
</trkpt>
<trkpt lat="-27.273771" lon="151.2899054">
  <ele>343.16</ele>
  <time>2026-09-01T20:01:21Z</time>
  <course>106.94</course>
  <speed>0.022360679774997897</speed>
  <fix>3d</fix>
</trkpt>
<trkpt lat="-27.2737709" lon="151.2899057">
  <ele>343.08</ele>
  <time>2026-09-01T20:01:21Z</time>
  <course>52.53</course>
  <speed>0.0</speed>
  <fix>3d</fix>
</trkpt>
<trkpt lat="-27.273771" lon="151.2899054">
  <ele>343.17</ele>
  <time>2026-09-01T20:01:21Z</time>
  <course>106.94</course>
  <speed>0.022360679774997897</speed>
  <fix>3d</fix>
</trkpt>
<trkpt lat="-27.2737709" lon="151.2899057">
  <ele>343.08</ele>
  <time>2026-09-01T20:01:21Z</time>
  <course>231.56</course>
  <speed>0.0</speed>
  <fix>3d</fix>
</trkpt>
<trkpt lat="-27.273771" lon="151.2899054">
  <ele>343.17</ele>
  <time>2026-09-01T20:01:21Z</time>
  <course>106.94</course>
  <speed>0.022360679774997897</speed>
  <fix>3d</fix>
</trkpt>
<trkpt lat="-27.2737709" lon="151.2899057">
  <ele>343.08</ele>
  <time>2026-09-01T20:01:21Z</time>
  <course>231.56</course>
  <speed>0.0</speed>
  <fix>3d</fix>
</trkpt>
<trkpt lat="-27.273771" lon="151.2899054">
  <ele>343.18</ele>
  <time>2026-09-01T20:01:21Z</time>
  <course>106.95</course>
  <speed>0.022360679774997897</speed>
  <fix>3d</fix>
</trkpt>
<trkpt lat="-27.2737709" lon="151.2899057">
  <ele>343.08</ele>
  <time>2026-09-01T20:01:21Z</time>
  <course>234.51</course>
  <speed>0.0</speed>
  <fix>3d</fix>
</trkpt>
<trkpt lat="-27.273771" lon="151.2899054">
  <ele>343.19</ele>
  <time>2026-09-01T20:01:21Z</time>
  <course>106.95</course>
  <speed>0.022360679774997897</speed>
  <fix>3d</fix>
</trkpt>
<trkpt lat="-27.2737709" lon="151.2899057">
  <ele>343.08</ele>
  <time>2026-09-01T20:01:21Z</time>
  <course>234.51</course>
  <speed>0.0</speed>
  <fix>3d</fix>
</trkpt>
<trkpt lat="-27.273771" lon="151.2899054">
  <ele>343.19</ele>
  <time>2026-09-01T20:01:21Z</time>
  <course>106.95</course>
  <speed>0.022360679774997897</speed>
  <fix>3d</fix>
</trkpt>
<trkpt lat="-27.2737709" lon="151.2899057">
  <ele>343.08</ele>
  <time>2026-09-01T20:01:21Z</time>
  <course>51.71</course>
  <speed>0.0</speed>
  <fix>3d</fix>
</trkpt>
<trkpt lat="-27.273771" lon="151.2899054">
  <ele>343.19</ele>
  <time>2026-09-01T20:01:21Z</time>
  <course>106.95</course>
  <speed>0.022360679774997897</speed>
  <fix>3d</fix>
</trkpt>
<trkpt lat="-27.2737709" lon="151.2899057">
  <ele>343.08</ele>
  <time>2026-09-01T20:01:21Z</time>
  <course>51.71</course>
  <speed>0.0</speed>
  <fix>3d</fix>
</trkpt>
<trkpt lat="-27.273771" lon="151.2899054">
  <ele>343.2</ele>
  <time>2026-09-01T20:01:21Z</time>
  <course>106.96</course>
  <speed>0.022360679774997897</speed>
  <fix>3d</fix>
</trkpt>
<trkpt lat="-27.2737709" lon="151.2899057">
  <ele>343.08</ele>
  <time>2026-09-01T20:01:21Z</time>
  <course>229.17</course>
  <speed>0.0</speed>
  <fix>3d</fix>
</trkpt>
<trkpt lat="-27.273771" lon="151.2899054">
  <ele>343.2</ele>
  <time>2026-09-01T20:01:21Z</time>
  <course>106.96</course>
  <speed>0.022360679774997897</speed>
  <fix>3d</fix>
</trkpt>
<trkpt lat="-27.2737709" lon="151.2899057">
  <ele>343.08</ele>
  <time>2026-09-01T20:01:21Z</time>
  <course>229.17</course>
  <speed>0.0</speed>
  <fix>3d</fix>
</trkpt>
<trkpt lat="-27.273771" lon="151.2899054">
  <ele>343.2</ele>
  <time>2026-09-01T20:01:21Z</time>
  <course>106.96</course>
  <speed>0.022360679774997897</speed>
  <fix>3d</fix>
</trkpt>
<trkpt lat="-27.2737709" lon="151.2899057">
  <ele>343.08</ele>
  <time>2026-09-01T20:01:21Z</time>
  <course>231.86</course>
  <speed>0.0</speed>
  <fix>3d</fix>
</trkpt>
<trkpt lat="-27.273771" lon="151.2899054">
  <ele>343.2</ele>
  <time>2026-09-01T20:01:21Z</time>
  <course>106.96</course>
  <speed>0.022360679774997897</speed>
  <fix>3d</fix>
</trkpt>
<trkpt lat="-27.2737709" lon="151.2899057">
  <ele>343.08</ele>
  <time>2026-09-01T20:01:21Z</time>
  <course>231.86</course>
  <speed>0.0</speed>
  <fix>3d</fix>
</trkpt>
<trkpt lat="-27.273771" lon="151.2899054">
  <ele>343.2</ele>
  <time>2026-09-01T20:01:21Z</time>
  <course>106.97</course>
  <speed>0.022360679774997897</speed>
  <fix>3d</fix>
</trkpt>
<trkpt lat="-27.2737709" lon="151.2899057">
  <ele>343.08</ele>
  <time>2026-09-01T20:01:21Z</time>
  <course>50.9</course>
  <speed>0.0</speed>
  <fix>3d</fix>
</trkpt>
<trkpt lat="-27.273771" lon="151.2899054">
  <ele>343.21</ele>
  <time>2026-09-01T20:01:21Z</time>
  <course>106.98</course>
  <speed>0.022360679774997897</speed>
  <fix>3d</fix>
</trkpt>
<trkpt lat="-27.2737709" lon="151.2899057">
  <ele>343.08</ele>
  <time>2026-09-01T20:01:21Z</time>
  <course>231.29</course>
  <speed>0.0</speed>
  <fix>3d</fix>
</trkpt>
<trkpt lat="-27.273771" lon="151.2899054">
  <ele>343.22</ele>
  <time>2026-09-01T20:01:21Z</time>
  <course>106.99</course>
  <speed>0.022360679774997897</speed>
  <fix>3d</fix>
</trkpt>
<trkpt lat="-27.2737709" lon="151.2899057">
  <ele>343.08</ele>
  <time>2026-09-01T20:01:21Z</time>
  <course>51.55</course>
  <speed>0.0</speed>
  <fix>3d</fix>
</trkpt>
<trkpt lat="-27.273771" lon="151.2899054">
  <ele>343.22</ele>
  <time>2026-09-01T20:01:21Z</time>
  <course>106.99</course>
  <speed>0.022360679774997897</speed>
  <fix>3d</fix>
</trkpt>
<trkpt lat="-27.2737709" lon="151.2899057">
  <ele>343.08</ele>
  <time>2026-09-01T20:01:21Z</time>
  <course>51.55</course>
  <speed>0.0</speed>
  <fix>3d</fix>
</trkpt>
<trkpt lat="-27.273771" lon="151.2899054">
  <ele>343.23</ele>
  <time>2026-09-01T20:01:21Z</time>
  <course>107.0</course>
  <speed>0.022360679774997897</speed>
  <fix>3d</fix>
</trkpt>
<trkpt lat="-27.2737709" lon="151.2899057">
  <ele>343.08</ele>
  <time>2026-09-01T20:01:21Z</time>
  <course>53.73</course>
  <speed>0.0</speed>
  <fix>3d</fix>
</trkpt>
<trkpt lat="-27.273771" lon="151.2899054">
  <ele>343.23</ele>
  <time>2026-09-01T20:01:21Z</time>
  <course>107.0</course>
  <speed>0.022360679774997897</speed>
  <fix>3d</fix>
</trkpt>
<trkpt lat="-27.2737709" lon="151.2899057">
  <ele>343.08</ele>
  <time>2026-09-01T20:01:21Z</time>
  <course>53.73</course>
  <speed>0.0</speed>
  <fix>3d</fix>
</trkpt>
<trkpt lat="-27.273771" lon="151.2899054">
  <ele>343.23</ele>
  <time>2026-09-01T20:01:21Z</time>
  <course>107.0</course>
  <speed>0.022360679774997897</speed>
  <fix>3d</fix>
</trkpt>
<trkpt lat="-27.2737709" lon="151.2899057">
  <ele>343.08</ele>
  <time>2026-09-01T20:01:21Z</time>
  <course>231.12</course>
  <speed>0.0</speed>
  <fix>3d</fix>
</trkpt>
<trkpt lat="-27.273771" lon="151.2899054">
  <ele>343.24</ele>
  <time>2026-09-01T20:01:21Z</time>
  <course>107.0</course>
  <speed>0.022360679774997897</speed>
  <fix>3d</fix>
</trkpt>
<trkpt lat="-27.2737709" lon="151.2899057">
  <ele>343.08</ele>
  <time>2026-09-01T20:01:21Z</time>
  <course>231.12</course>
  <speed>0.0</speed>
  <fix>3d</fix>
</trkpt>
<trkpt lat="-27.273771" lon="151.2899054">
  <ele>343.24</ele>
  <time>2026-09-01T20:01:21Z</time>
  <course>107.01</course>
  <speed>0.022360679774997897</speed>
  <fix>3d</fix>
</trkpt>
<trkpt lat="-27.2737709" lon="151.2899057">
  <ele>343.08</ele>
  <time>2026-09-01T20:01:21Z</time>
  <course>20.96</course>
  <speed>0.0</speed>
  <fix>3d</fix>
</trkpt>
<trkpt lat="-27.273771" lon="151.2899054">
  <ele>343.24</ele>
  <time>2026-09-01T20:01:21Z</time>
  <course>107.01</course>
  <speed>0.022360679774997897</speed>
  <fix>3d</fix>
</trkpt>
<trkpt lat="-27.2737709" lon="151.2899057">
  <ele>343.08</ele>
  <time>2026-09-01T20:01:21Z</time>
  <course>20.96</course>
  <speed>0.0</speed>
  <fix>3d</fix>
</trkpt>
<trkpt lat="-27.273771" lon="151.2899054">
  <ele>343.24</ele>
  <time>2026-09-01T20:01:21Z</time>
  <course>107.01</course>
  <speed>0.022360679774997897</speed>
  <fix>3d</fix>
</trkpt>
<trkpt lat="-27.2737709" lon="151.2899057">
  <ele>343.08</ele>
  <time>2026-09-01T20:01:21Z</time>
  <course>24.29</course>
  <speed>0.0</speed>
  <fix>3d</fix>
</trkpt>
<trkpt lat="-27.273771" lon="151.2899054">
  <ele>343.24</ele>
  <time>2026-09-01T20:01:21Z</time>
  <course>107.02</course>
  <speed>0.022360679774997897</speed>
  <fix>3d</fix>
</trkpt>
<trkpt lat="-27.2737709" lon="151.2899057">
  <ele>343.08</ele>
  <time>2026-09-01T20:01:21Z</time>
  <course>24.29</course>
  <speed>0.0</speed>
  <fix>3d</fix>
</trkpt>
<trkpt lat="-27.273771" lon="151.2899054">
  <ele>343.24</ele>
  <time>2026-09-01T20:01:21Z</time>
  <course>107.02</course>
  <speed>0.022360679774997897</speed>
  <fix>3d</fix>
</trkpt>
<trkpt lat="-27.2737709" lon="151.2899057">
  <ele>343.08</ele>
  <time>2026-09-01T20:01:21Z</time>
  <course>356.34</course>
  <speed>0.0</speed>
  <fix>3d</fix>
</trkpt>
<trkpt lat="-27.273771" lon="151.2899054">
  <ele>343.24</ele>
  <time>2026-09-01T20:01:21Z</time>
  <course>107.02</course>
  <speed>0.022360679774997897</speed>
  <fix>3d</fix>
</trkpt>
<trkpt lat="-27.2737709" lon="151.2899057">
  <ele>343.08</ele>
  <time>2026-09-01T20:01:21Z</time>
  <course>356.34</course>
  <speed>0.0</speed>
  <fix>3d</fix>
</trkpt>
<trkpt lat="-27.273771" lon="151.2899054">
  <ele>343.24</ele>
  <time>2026-09-01T20:01:21Z</time>
  <course>107.03</course>
  <speed>0.022360679774997897</speed>
  <fix>3d</fix>
</trkpt>
<trkpt lat="-27.2737709" lon="151.2899057">
  <ele>343.08</ele>
  <time>2026-09-01T20:01:21Z</time>
  <course>355.66</course>
  <speed>0.0</speed>
  <fix>3d</fix>
</trkpt>
<trkpt lat="-27.273771" lon="151.2899054">
  <ele>343.23</ele>
  <time>2026-09-01T20:01:21Z</time>
  <course>107.03</course>
  <speed>0.022360679774997897</speed>
  <fix>3d</fix>
</trkpt>
<trkpt lat="-27.2737709" lon="151.2899057">
  <ele>343.08</ele>
  <time>2026-09-01T20:01:21Z</time>
  <course>355.66</course>
  <speed>0.0</speed>
  <fix>3d</fix>
</trkpt>
<trkpt lat="-27.2737709" lon="151.2899057">
  <ele>343.08</ele>
  <time>2026-09-01T20:01:21Z</time>
  <course>106.27</course>
  <speed>0.0</speed>
  <fix>3d</fix>
</trkpt>
<trkpt lat="-27.2737709" lon="151.2899057">
  <ele>343.08</ele>
  <time>2026-09-01T20:01:21Z</time>
  <course>357.96</course>
  <speed>0.0</speed>
  <fix>3d</fix>
</trkpt>
<trkpt lat="-27.2737709" lon="151.2899057">
  <ele>343.08</ele>
  <time>2026-09-01T20:01:21Z</time>
  <course>106.27</course>
  <speed>0.0</speed>
  <fix>3d</fix>
</trkpt>
<trkpt lat="-27.2737709" lon="151.2899057">
  <ele>343.08</ele>
  <time>2026-09-01T20:01:21Z</time>
  <course>357.96</course>
  <speed>0.0</speed>
  <fix>3d</fix>
</trkpt>
<trkpt lat="-27.2737709" lon="151.2899057">
  <ele>343.08</ele>
  <time>2026-09-01T20:01:21Z</time>
  <course>106.27</course>
  <speed>0.0</speed>
  <fix>3d</fix>
</trkpt>
<trkpt lat="-27.2737709" lon="151.2899057">
  <ele>343.08</ele>
  <time>2026-09-01T20:01:21Z</time>
  <course>358.27</course>
  <speed>0.0</speed>
  <fix>3d</fix>
</trkpt>
<trkpt lat="-27.2737709" lon="151.2899057">
  <ele>343.08</ele>
  <time>2026-09-01T20:01:21Z</time>
  <course>106.27</course>
  <speed>0.0</speed>
  <fix>3d</fix>
</trkpt>
<trkpt lat="-27.2737709" lon="151.2899057">
  <ele>343.08</ele>
  <time>2026-09-01T20:01:21Z</time>
  <course>358.27</course>
  <speed>0.0</speed>
  <fix>3d</fix>
</trkpt>
<trkpt lat="-27.2737709" lon="151.2899057">
  <ele>343.08</ele>
  <time>2026-09-01T20:01:21Z</time>
  <course>106.27</course>
  <speed>0.0</speed>
  <fix>3d</fix>
</trkpt>
<trkpt lat="-27.2737709" lon="151.2899057">
  <ele>343.08</ele>
  <time>2026-09-01T20:01:21Z</time>
  <course>358.31</course>
  <speed>0.0</speed>
  <fix>3d</fix>
</trkpt>
<trkpt lat="-27.2737709" lon="151.2899057">
  <ele>343.08</ele>
  <time>2026-09-01T20:01:21Z</time>
  <course>106.27</course>
  <speed>0.0</speed>
  <fix>3d</fix>
</trkpt>
<trkpt lat="-27.2737709" lon="151.2899057">
  <ele>343.08</ele>
  <time>2026-09-01T20:01:21Z</time>
  <course>358.31</course>
  <speed>0.0</speed>
  <fix>3d</fix>
</trkpt>
<trkpt lat="-27.2737709" lon="151.2899057">
  <ele>343.08</ele>
  <time>2026-09-01T20:01:21Z</time>
  <course>106.27</course>
  <speed>0.0</speed>
  <fix>3d</fix>
</trkpt>
<trkpt lat="-27.2737709" lon="151.2899057">
  <ele>343.08</ele>
  <time>2026-09-01T20:01:21Z</time>
  <course>358.32</course>
  <speed>0.0</speed>
  <fix>3d</fix>
</trkpt>
<trkpt lat="-27.2737709" lon="151.2899057">
  <ele>343.08</ele>
  <time>2026-09-01T20:01:21Z</time>
  <course>106.27</course>
  <speed>0.0</speed>
  <fix>3d</fix>
</trkpt>
<trkpt lat="-27.2737709" lon="151.2899057">
  <ele>343.08</ele>
  <time>2026-09-01T20:01:21Z</time>
  <course>358.32</course>
  <speed>0.0</speed>
  <fix>3d</fix>
</trkpt>
<trkpt lat="-27.2737709" lon="151.2899057">
  <ele>343.08</ele>
  <time>2026-09-01T20:01:21Z</time>
  <course>106.27</course>
  <speed>0.0</speed>
  <fix>3d</fix>
</trkpt>
<trkpt lat="-27.2737709" lon="151.2899057">
  <ele>343.08</ele>
  <time>2026-09-01T20:01:21Z</time>
  <course>358.32</course>
  <speed>0.0</speed>
  <fix>3d</fix>
</trkpt>
<trkpt lat="-27.2737709" lon="151.2899057">
  <ele>343.08</ele>
  <time>2026-09-01T20:01:21Z</time>
  <course>106.27</course>
  <speed>0.0</speed>
  <fix>3d</fix>
</trkpt>
<trkpt lat="-27.2737709" lon="151.2899057">
  <ele>343.08</ele>
  <time>2026-09-01T20:01:21Z</time>
  <course>358.32</course>
  <speed>0.0</speed>
  <fix>3d</fix>
</trkpt>
<trkpt lat="-27.2737709" lon="151.2899057">
  <ele>343.08</ele>
  <time>2026-09-01T20:01:21Z</time>
  <course>106.27</course>
  <speed>0.0</speed>
  <fix>3d</fix>
</trkpt>
<trkpt lat="-27.2737709" lon="151.2899057">
  <ele>343.08</ele>
  <time>2026-09-01T20:01:21Z</time>
  <course>358.32</course>
  <speed>0.0</speed>
  <fix>3d</fix>
</trkpt>
<trkpt lat="-27.2737709" lon="151.2899057">
  <ele>343.08</ele>
  <time>2026-09-01T20:01:21Z</time>
  <course>106.27</course>
  <speed>0.0</speed>
  <fix>3d</fix>
</trkpt>
<trkpt lat="-27.2737709" lon="151.2899057">
  <ele>343.08</ele>
  <time>2026-09-01T20:01:21Z</time>
  <course>358.32</course>
  <speed>0.0</speed>
  <fix>3d</fix>
</trkpt>
<trkpt lat="-27.2744396" lon="151.290064">
  <ele>343.1</ele>
  <time>2026-09-01T20:01:21Z</time>
  <course>8.0</course>
  <speed>0.0</speed>
  <fix>3d</fix>
</trkpt>
<trkpt lat="-27.2744395" lon="151.290064">
  <ele>343.1</ele>
  <time>2026-09-01T20:01:21Z</time>
  <course>8.0</course>
  <speed>0.1711724276862369</speed>
  <fix>3d</fix>
</trkpt>
<trkpt lat="-27.2744393" lon="151.290064">
  <ele>343.1</ele>
  <time>2026-09-01T20:01:21Z</time>
  <course>8.0</course>
  <speed>0.27166155414412246</speed>
  <fix>3d</fix>
</trkpt>
<trkpt lat="-27.2744391" lon="151.290064">
  <ele>343.1</ele>
  <time>2026-09-01T20:01:21Z</time>
  <course>8.0</course>
  <speed>0.18110770276274835</speed>
  <fix>3d</fix>
</trkpt>
<trkpt lat="-27.274439" lon="151.290064">
  <ele>343.1</ele>
  <time>2026-09-01T20:01:21Z</time>
  <course>8.0</course>
  <speed>0.05</speed>
  <fix>3d</fix>
</trkpt>
<trkpt lat="-27.274439" lon="151.290064">
  <ele>343.1</ele>
  <time>2026-09-01T20:01:21Z</time>
  <course>8.0</course>
  <speed>0.02</speed>
  <fix>3d</fix>
</trkpt>
<trkpt lat="-27.274439" lon="151.290064">
  <ele>343.1</ele>
  <time>2026-09-01T20:01:21Z</time>
  <course>8.0</course>
  <speed>0.03</speed>
  <fix>3d</fix>
</trkpt>
<trkpt lat="-27.274439" lon="151.290064">
  <ele>343.1</ele>
  <time>2026-09-01T20:01:21Z</time>
  <course>8.0</course>
  <speed>0.02</speed>
  <fix>3d</fix>
</trkpt>
<trkpt lat="-27.274439" lon="151.290064">
  <ele>343.1</ele>
  <time>2026-09-01T20:01:21Z</time>
  <course>8.0</course>
  <speed>0.0</speed>
  <fix>3d</fix>
</trkpt>
<trkpt lat="-27.274439" lon="151.290064">
  <ele>343.1</ele>
  <time>2026-09-01T20:01:21Z</time>
  <course>8.0</course>
  <speed>0.0</speed>
  <fix>3d</fix>
</trkpt>
<trkpt lat="-27.274439" lon="151.290064">
  <ele>343.1</ele>
  <time>2026-09-01T20:01:21Z</time>
  <course>8.0</course>
  <speed>0.0</speed>
  <fix>3d</fix>
</trkpt>
<trkpt lat="-27.274439" lon="151.290064">
  <ele>343.1</ele>
  <time>2026-09-01T20:01:21Z</time>
  <course>8.0</course>
  <speed>0.0</speed>
  <fix>3d</fix>
</trkpt>
<trkpt lat="-27.274439" lon="151.290064">
  <ele>343.1</ele>
  <time>2026-09-01T20:01:21Z</time>
  <course>8.0</course>
  <speed>0.0</speed>
  <fix>3d</fix>
</trkpt>
<trkpt lat="-27.274439" lon="151.290064">
  <ele>343.1</ele>
  <time>2026-09-01T20:01:21Z</time>
  <course>8.0</course>
  <speed>0.0</speed>
  <fix>3d</fix>
</trkpt>
<trkpt lat="-27.274439" lon="151.290064">
  <ele>343.1</ele>
  <time>2026-09-01T20:01:21Z</time>
  <course>8.0</course>
  <speed>0.0</speed>
  <fix>3d</fix>
</trkpt>
<trkpt lat="-27.274439" lon="151.290064">
  <ele>343.1</ele>
  <time>2026-09-01T20:01:21Z</time>
  <course>8.0</course>
  <speed>0.0</speed>
  <fix>3d</fix>
</trkpt>
<trkpt lat="-27.274439" lon="151.290064">
  <ele>343.1</ele>
  <time>2026-09-01T20:01:21Z</time>
  <course>8.0</course>
  <speed>0.0</speed>
  <fix>3d</fix>
</trkpt>
<trkpt lat="-27.274439" lon="151.290064">
  <ele>343.1</ele>
  <time>2026-09-01T20:01:21Z</time>
  <course>8.0</course>
  <speed>0.0</speed>
  <fix>3d</fix>
</trkpt>
<trkpt lat="-27.274439" lon="151.290064">
  <ele>343.1</ele>
  <time>2026-09-01T20:01:21Z</time>
  <course>8.0</course>
  <speed>0.0</speed>
  <fix>3d</fix>
</trkpt>
<trkpt lat="-27.274439" lon="151.290064">
  <ele>343.1</ele>
  <time>2026-09-01T20:01:21Z</time>
  <course>8.0</course>
  <speed>0.0</speed>
  <fix>3d</fix>
</trkpt>
<trkpt lat="-27.274439" lon="151.290064">
  <ele>343.1</ele>
  <time>2026-09-01T20:01:21Z</time>
  <course>8.0</course>
  <speed>0.0</speed>
  <fix>3d</fix>
</trkpt>
<trkpt lat="-27.274439" lon="151.290064">
  <ele>343.1</ele>
  <time>2026-09-01T20:01:21Z</time>
  <course>8.0</course>
  <speed>0.0</speed>
  <fix>3d</fix>
</trkpt>
<trkpt lat="-27.274439" lon="151.290064">
  <ele>343.1</ele>
  <time>2026-09-01T20:01:21Z</time>
  <course>8.0</course>
  <speed>0.0</speed>
  <fix>3d</fix>
</trkpt>
<trkpt lat="-27.274439" lon="151.290064">
  <ele>343.1</ele>
  <time>2026-09-01T20:01:21Z</time>
  <course>8.0</course>
  <speed>0.0</speed>
  <fix>3d</fix>
</trkpt>
<trkpt lat="-27.274439" lon="151.290064">
  <ele>343.1</ele>
  <time>2026-09-01T20:01:21Z</time>
  <course>8.0</course>
  <speed>0.0</speed>
  <fix>3d</fix>
</trkpt>
<trkpt lat="-27.274439" lon="151.290064">
  <ele>343.1</ele>
  <time>2026-09-01T20:01:21Z</time>
  <course>8.0</course>
  <speed>0.0</speed>
  <fix>3d</fix>
</trkpt>
<trkpt lat="-27.274439" lon="151.290064">
  <ele>343.1</ele>
  <time>2026-09-01T20:01:21Z</time>
  <course>8.0</course>
  <speed>0.0</speed>
  <fix>3d</fix>
</trkpt>
<trkpt lat="-27.274439" lon="151.290064">
  <ele>343.1</ele>
  <time>2026-09-01T20:01:21Z</time>
  <course>8.0</course>
  <speed>0.0</speed>
  <fix>3d</fix>
</trkpt>
<trkpt lat="-27.274439" lon="151.290064">
  <ele>343.1</ele>
  <time>2026-09-01T20:01:21Z</time>
  <course>8.0</course>
  <speed>0.0</speed>
  <fix>3d</fix>
</trkpt>
<trkpt lat="-27.274439" lon="151.290064">
  <ele>343.1</ele>
  <time>2026-09-01T20:01:21Z</time>
  <course>8.0</course>
  <speed>0.0</speed>
  <fix>3d</fix>
</trkpt>
<trkpt lat="-27.274439" lon="151.290064">
  <ele>343.1</ele>
  <time>2026-09-01T20:01:21Z</time>
  <course>8.0</course>
  <speed>0.0</speed>
  <fix>3d</fix>
</trkpt>
<trkpt lat="-27.274439" lon="151.290064">
  <ele>343.1</ele>
  <time>2026-09-01T20:01:21Z</time>
  <course>8.0</course>
  <speed>0.0</speed>
  <fix>3d</fix>
</trkpt>
<trkpt lat="-27.274439" lon="151.290064">
  <ele>343.1</ele>
  <time>2026-09-01T20:01:21Z</time>
  <course>8.0</course>
  <speed>0.0</speed>
  <fix>3d</fix>
</trkpt>
<trkpt lat="-27.274439" lon="151.290064">
  <ele>343.1</ele>
  <time>2026-09-01T20:01:21Z</time>
  <course>8.0</course>
  <speed>0.0</speed>
  <fix>3d</fix>
</trkpt>
<trkpt lat="-27.274439" lon="151.290064">
  <ele>343.1</ele>
  <time>2026-09-01T20:01:21Z</time>
  <course>8.0</course>
  <speed>0.0</speed>
  <fix>3d</fix>
</trkpt>
<trkpt lat="-27.274439" lon="151.290064">
  <ele>343.1</ele>
  <time>2026-09-01T20:01:21Z</time>
  <course>8.0</course>
  <speed>0.0</speed>
  <fix>3d</fix>
</trkpt>
<trkpt lat="-27.274439" lon="151.290064">
  <ele>343.1</ele>
  <time>2026-09-01T20:01:21Z</time>
  <course>8.0</course>
  <speed>0.0</speed>
  <fix>3d</fix>
</trkpt>
<trkpt lat="-27.274439" lon="151.290064">
  <ele>343.1</ele>
  <time>2026-09-01T20:01:21Z</time>
  <course>8.0</course>
  <speed>0.0</speed>
  <fix>3d</fix>
</trkpt>
<trkpt lat="-27.274439" lon="151.290064">
  <ele>343.1</ele>
  <time>2026-09-01T20:01:21Z</time>
  <course>8.0</course>
  <speed>0.0</speed>
  <fix>3d</fix>
</trkpt>
<trkpt lat="-27.274439" lon="151.290064">
  <ele>343.1</ele>
  <time>2026-09-01T20:01:21Z</time>
  <course>8.0</course>
  <speed>0.0</speed>
  <fix>3d</fix>
</trkpt>
<trkpt lat="-27.274439" lon="151.290064">
  <ele>343.1</ele>
  <time>2026-09-01T20:01:21Z</time>
  <course>8.0</course>
  <speed>0.0</speed>
  <fix>3d</fix>
</trkpt>
<trkpt lat="-27.274439" lon="151.290064">
  <ele>343.1</ele>
  <time>2026-09-01T20:01:21Z</time>
  <course>8.0</course>
  <speed>0.0</speed>
  <fix>3d</fix>
</trkpt>
<trkpt lat="-27.274439" lon="151.290064">
  <ele>343.1</ele>
  <time>2026-09-01T20:01:21Z</time>
  <course>8.0</course>
  <speed>0.0</speed>
  <fix>3d</fix>
</trkpt>
<trkpt lat="-27.274439" lon="151.290064">
  <ele>343.1</ele>
  <time>2026-09-01T20:01:21Z</time>
  <course>8.0</course>
  <speed>0.0</speed>
  <fix>3d</fix>
</trkpt>
<trkpt lat="-27.274439" lon="151.290064">
  <ele>343.1</ele>
  <time>2026-09-01T20:01:21Z</time>
  <course>8.0</course>
  <speed>0.0</speed>
  <fix>3d</fix>
</trkpt>
<trkpt lat="-27.274439" lon="151.290064">
  <ele>343.1</ele>
  <time>2026-09-01T20:01:21Z</time>
  <course>8.0</course>
  <speed>0.0</speed>
  <fix>3d</fix>
</trkpt>
<trkpt lat="-27.274439" lon="151.290064">
  <ele>343.1</ele>
  <time>2026-09-01T20:01:21Z</time>
  <course>8.0</course>
  <speed>0.0</speed>
  <fix>3d</fix>
</trkpt>
<trkpt lat="-27.274439" lon="151.290064">
  <ele>343.1</ele>
  <time>2026-09-01T20:01:21Z</time>
  <course>8.0</course>
  <speed>0.0</speed>
  <fix>3d</fix>
</trkpt>
<trkpt lat="-27.274439" lon="151.290064">
  <ele>343.1</ele>
  <time>2026-09-01T20:01:21Z</time>
  <course>8.0</course>
  <speed>0.0</speed>
  <fix>3d</fix>
</trkpt>
<trkpt lat="-27.274439" lon="151.290064">
  <ele>343.1</ele>
  <time>2026-09-01T20:01:21Z</time>
  <course>8.0</course>
  <speed>0.0</speed>
  <fix>3d</fix>
</trkpt>
<trkpt lat="-27.274439" lon="151.290064">
  <ele>343.1</ele>
  <time>2026-09-01T20:01:21Z</time>
  <course>8.0</course>
  <speed>0.0</speed>
  <fix>3d</fix>
</trkpt>
<trkpt lat="-27.274439" lon="151.290064">
  <ele>343.1</ele>
  <time>2026-09-01T20:01:21Z</time>
  <course>8.0</course>
  <speed>0.0</speed>
  <fix>3d</fix>
</trkpt>
<trkpt lat="-27.274439" lon="151.290064">
  <ele>343.1</ele>
  <time>2026-09-01T20:01:21Z</time>
  <course>8.0</course>
  <speed>0.0</speed>
  <fix>3d</fix>
</trkpt>
<trkpt lat="-27.274439" lon="151.290064">
  <ele>343.1</ele>
  <time>2026-09-01T20:01:21Z</time>
  <course>8.0</course>
  <speed>0.0</speed>
  <fix>3d</fix>
</trkpt>
<trkpt lat="-27.274439" lon="151.290064">
  <ele>343.1</ele>
  <time>2026-09-01T20:01:21Z</time>
  <course>8.0</course>
  <speed>0.0</speed>
  <fix>3d</fix>
</trkpt>
<trkpt lat="-27.274439" lon="151.290064">
  <ele>343.1</ele>
  <time>2026-09-01T20:01:21Z</time>
  <course>8.0</course>
  <speed>0.0</speed>
  <fix>3d</fix>
</trkpt>
<trkpt lat="-27.274439" lon="151.290064">
  <ele>343.1</ele>
  <time>2026-09-01T20:01:21Z</time>
  <course>8.0</course>
  <speed>0.0</speed>
  <fix>3d</fix>
</trkpt>
<trkpt lat="-27.274439" lon="151.290064">
  <ele>343.1</ele>
  <time>2026-09-01T20:01:21Z</time>
  <course>8.0</course>
  <speed>0.0</speed>
  <fix>3d</fix>
</trkpt>
<trkpt lat="-27.274439" lon="151.290064">
  <ele>343.1</ele>
  <time>2026-09-01T20:01:21Z</time>
  <course>8.0</course>
  <speed>0.0</speed>
  <fix>3d</fix>
</trkpt>
<trkpt lat="-27.274439" lon="151.290064">
  <ele>343.1</ele>
  <time>2026-09-01T20:01:21Z</time>
  <course>8.0</course>
  <speed>0.0</speed>
  <fix>3d</fix>
</trkpt>
<trkpt lat="-27.274439" lon="151.290064">
  <ele>343.1</ele>
  <time>2026-09-01T20:01:21Z</time>
  <course>8.0</course>
  <speed>0.0</speed>
  <fix>3d</fix>
</trkpt>
<trkpt lat="-27.274439" lon="151.290064">
  <ele>343.1</ele>
  <time>2026-09-01T20:01:21Z</time>
  <course>8.0</course>
  <speed>0.0</speed>
  <fix>3d</fix>
</trkpt>
<trkpt lat="-27.274439" lon="151.290064">
  <ele>343.1</ele>
  <time>2026-09-01T20:01:21Z</time>
  <course>8.0</course>
  <speed>0.0</speed>
  <fix>3d</fix>
</trkpt>
<trkpt lat="-27.274439" lon="151.290064">
  <ele>343.1</ele>
  <time>2026-09-01T20:01:21Z</time>
  <course>8.0</course>
  <speed>0.0</speed>
  <fix>3d</fix>
</trkpt>
<trkpt lat="-27.274439" lon="151.290064">
  <ele>343.1</ele>
  <time>2026-09-01T20:01:21Z</time>
  <course>8.0</course>
  <speed>0.0</speed>
  <fix>3d</fix>
</trkpt>
<trkpt lat="-27.274439" lon="151.290064">
  <ele>343.1</ele>
  <time>2026-09-01T20:01:21Z</time>
  <course>8.0</course>
  <speed>0.0</speed>
  <fix>3d</fix>
</trkpt>
<trkpt lat="-27.274439" lon="151.290064">
  <ele>343.1</ele>
  <time>2026-09-01T20:01:21Z</time>
  <course>8.0</course>
  <speed>0.0</speed>
  <fix>3d</fix>
</trkpt>
<trkpt lat="-27.274439" lon="151.290064">
  <ele>343.1</ele>
  <time>2026-09-01T20:01:21Z</time>
  <course>8.0</course>
  <speed>0.0</speed>
  <fix>3d</fix>
</trkpt>
<trkpt lat="-27.274439" lon="151.290064">
  <ele>343.1</ele>
  <time>2026-09-01T20:01:21Z</time>
  <course>8.0</course>
  <speed>0.0</speed>
  <fix>3d</fix>
</trkpt>
<trkpt lat="-27.274439" lon="151.290064">
  <ele>343.1</ele>
  <time>2026-09-01T20:01:21Z</time>
  <course>8.0</course>
  <speed>0.0</speed>
  <fix>3d</fix>
</trkpt>
<trkpt lat="-27.274439" lon="151.290064">
  <ele>343.1</ele>
  <time>2026-09-01T20:01:21Z</time>
  <course>8.0</course>
  <speed>0.0</speed>
  <fix>3d</fix>
</trkpt>
<trkpt lat="-27.274439" lon="151.290064">
  <ele>343.1</ele>
  <time>2026-09-01T20:01:21Z</time>
  <course>8.0</course>
  <speed>0.0</speed>
  <fix>3d</fix>
</trkpt>
<trkpt lat="-27.274439" lon="151.290064">
  <ele>343.1</ele>
  <time>2026-09-01T20:01:21Z</time>
  <course>8.0</course>
  <speed>0.0</speed>
  <fix>3d</fix>
</trkpt>
<trkpt lat="-27.274439" lon="151.290064">
  <ele>343.1</ele>
  <time>2026-09-01T20:01:21Z</time>
  <course>8.0</course>
  <speed>0.0</speed>
  <fix>3d</fix>
</trkpt>
<trkpt lat="-27.274439" lon="151.290064">
  <ele>343.1</ele>
  <time>2026-09-01T20:01:21Z</time>
  <course>8.0</course>
  <speed>0.0</speed>
  <fix>3d</fix>
</trkpt>
<trkpt lat="-26.9720619" lon="149.6127921">
  <ele>339.29</ele>
  <time>2026-09-01T20:01:21Z</time>
  <course>310.27</course>
  <speed>0.0</speed>
  <fix>3d</fix>
</trkpt>
<trkpt lat="-27.274439" lon="151.290064">
  <ele>343.1</ele>
  <time>2026-09-01T20:01:21Z</time>
  <course>8.0</course>
  <speed>0.0</speed>
  <fix>3d</fix>
</trkpt>
<trkpt lat="-26.9720619" lon="149.6127921">
  <ele>339.29</ele>
  <time>2026-09-01T20:01:21Z</time>
  <course>310.27</course>
  <speed>0.0</speed>
  <fix>3d</fix>
</trkpt>
<trkpt lat="-27.274439" lon="151.290064">
  <ele>343.1</ele>
  <time>2026-09-01T20:01:21Z</time>
  <course>8.0</course>
  <speed>0.0</speed>
  <fix>3d</fix>
</trkpt>
<trkpt lat="-27.274439" lon="151.290064">
  <ele>343.1</ele>
  <time>2026-09-01T20:01:21Z</time>
  <course>294.58</course>
  <speed>0.0</speed>
  <fix>3d</fix>
</trkpt>
<trkpt lat="-27.274439" lon="151.290064">
  <ele>343.1</ele>
  <time>2026-09-01T20:01:21Z</time>
  <course>8.0</course>
  <speed>0.0</speed>
  <fix>3d</fix>
</trkpt>
<trkpt lat="-27.274439" lon="151.290064">
  <ele>343.1</ele>
  <time>2026-09-01T20:01:21Z</time>
  <course>294.58</course>
  <speed>0.0</speed>
  <fix>3d</fix>
</trkpt>
<trkpt lat="-27.274439" lon="151.290064">
  <ele>343.1</ele>
  <time>2026-09-01T20:01:21Z</time>
  <course>8.0</course>
  <speed>0.0</speed>
  <fix>3d</fix>
</trkpt>
<trkpt lat="-27.274439" lon="151.290064">
  <ele>343.1</ele>
  <time>2026-09-01T20:01:21Z</time>
  <course>273.33</course>
  <speed>0.0</speed>
  <fix>3d</fix>
</trkpt>
<trkpt lat="-27.274439" lon="151.290064">
  <ele>343.1</ele>
  <time>2026-09-01T20:01:21Z</time>
  <course>8.0</course>
  <speed>0.0</speed>
  <fix>3d</fix>
</trkpt>
<trkpt lat="-27.274439" lon="151.290064">
  <ele>343.1</ele>
  <time>2026-09-01T20:01:21Z</time>
  <course>273.33</course>
  <speed>0.0</speed>
  <fix>3d</fix>
</trkpt>
<trkpt lat="-27.274439" lon="151.290064">
  <ele>343.1</ele>
  <time>2026-09-01T20:01:21Z</time>
  <course>8.0</course>
  <speed>0.0</speed>
  <fix>3d</fix>
</trkpt>
<trkpt lat="-27.274439" lon="151.290064">
  <ele>343.1</ele>
  <time>2026-09-01T20:01:21Z</time>
  <course>270.44</course>
  <speed>0.0</speed>
  <fix>3d</fix>
</trkpt>
<trkpt lat="-27.274439" lon="151.290064">
  <ele>343.1</ele>
  <time>2026-09-01T20:01:21Z</time>
  <course>8.0</course>
  <speed>0.0</speed>
  <fix>3d</fix>
</trkpt>
<trkpt lat="-27.274439" lon="151.290064">
  <ele>343.1</ele>
  <time>2026-09-01T20:01:21Z</time>
  <course>270.44</course>
  <speed>0.0</speed>
  <fix>3d</fix>
</trkpt>
<trkpt lat="-27.274439" lon="151.290064">
  <ele>343.1</ele>
  <time>2026-09-01T20:01:21Z</time>
  <course>8.0</course>
  <speed>0.0</speed>
  <fix>3d</fix>
</trkpt>
<trkpt lat="-27.274439" lon="151.290064">
  <ele>343.1</ele>
  <time>2026-09-01T20:01:21Z</time>
  <course>270.05</course>
  <speed>0.0</speed>
  <fix>3d</fix>
</trkpt>
<trkpt lat="-27.274439" lon="151.290064">
  <ele>343.1</ele>
  <time>2026-09-01T20:01:21Z</time>
  <course>8.0</course>
  <speed>0.0</speed>
  <fix>3d</fix>
</trkpt>
<trkpt lat="-27.274439" lon="151.290064">
  <ele>343.1</ele>
  <time>2026-09-01T20:01:21Z</time>
  <course>270.05</course>
  <speed>0.0</speed>
  <fix>3d</fix>
</trkpt>
<trkpt lat="-27.274439" lon="151.290064">
  <ele>343.1</ele>
  <time>2026-09-01T20:01:21Z</time>
  <course>8.0</course>
  <speed>0.0</speed>
  <fix>3d</fix>
</trkpt>
<trkpt lat="-27.274439" lon="151.290064">
  <ele>343.1</ele>
  <time>2026-09-01T20:01:21Z</time>
  <course>270.0</course>
  <speed>0.0</speed>
  <fix>3d</fix>
</trkpt>
<trkpt lat="-27.274439" lon="151.290064">
  <ele>343.1</ele>
  <time>2026-09-01T20:01:21Z</time>
  <course>8.0</course>
  <speed>0.0</speed>
  <fix>3d</fix>
</trkpt>
<trkpt lat="-27.274439" lon="151.290064">
  <ele>343.1</ele>
  <time>2026-09-01T20:01:21Z</time>
  <course>270.0</course>
  <speed>0.0</speed>
  <fix>3d</fix>
</trkpt>
<trkpt lat="-27.274439" lon="151.290064">
  <ele>343.1</ele>
  <time>2026-09-01T20:01:21Z</time>
  <course>8.0</course>
  <speed>0.0</speed>
  <fix>3d</fix>
</trkpt>
<trkpt lat="-27.274439" lon="151.290064">
  <ele>343.1</ele>
  <time>2026-09-01T20:01:21Z</time>
  <course>270.0</course>
  <speed>0.0</speed>
  <fix>3d</fix>
</trkpt>
<trkpt lat="-27.274439" lon="151.290064">
  <ele>343.1</ele>
  <time>2026-09-01T20:01:21Z</time>
  <course>8.0</course>
  <speed>0.0</speed>
  <fix>3d</fix>
</trkpt>
<trkpt lat="-27.274439" lon="151.290064">
  <ele>343.1</ele>
  <time>2026-09-01T20:01:21Z</time>
  <course>270.0</course>
  <speed>0.0</speed>
  <fix>3d</fix>
</trkpt>
<trkpt lat="-27.274439" lon="151.290064">
  <ele>343.1</ele>
  <time>2026-09-01T20:01:21Z</time>
  <course>8.0</course>
  <speed>0.0</speed>
  <fix>3d</fix>
</trkpt>
<trkpt lat="-27.274439" lon="151.290064">
  <ele>343.1</ele>
  <time>2026-09-01T20:01:21Z</time>
  <course>270.0</course>
  <speed>0.0</speed>
  <fix>3d</fix>
</trkpt>
<trkpt lat="-27.274439" lon="151.290064">
  <ele>343.1</ele>
  <time>2026-09-01T20:01:21Z</time>
  <course>8.0</course>
  <speed>0.0</speed>
  <fix>3d</fix>
</trkpt>
<trkpt lat="-27.274439" lon="151.290064">
  <ele>343.1</ele>
  <time>2026-09-01T20:01:21Z</time>
  <course>270.0</course>
  <speed>0.0</speed>
  <fix>3d</fix>
</trkpt>
<trkpt lat="-27.274439" lon="151.290064">
  <ele>343.1</ele>
  <time>2026-09-01T20:01:21Z</time>
  <course>8.0</course>
  <speed>0.0</speed>
  <fix>3d</fix>
</trkpt>
<trkpt lat="-27.274439" lon="151.290064">
  <ele>343.1</ele>
  <time>2026-09-01T20:01:21Z</time>
  <course>270.0</course>
  <speed>0.0</speed>
  <fix>3d</fix>
</trkpt>
<trkpt lat="-27.274439" lon="151.290064">
  <ele>343.1</ele>
  <time>2026-09-01T20:01:21Z</time>
  <course>8.0</course>
  <speed>0.0</speed>
  <fix>3d</fix>
</trkpt>
<trkpt lat="-27.274439" lon="151.290064">
  <ele>343.1</ele>
  <time>2026-09-01T20:01:21Z</time>
  <course>270.0</course>
  <speed>0.0</speed>
  <fix>3d</fix>
</trkpt>
<trkpt lat="-27.274439" lon="151.290064">
  <ele>343.1</ele>
  <time>2026-09-01T20:01:21Z</time>
  <course>8.0</course>
  <speed>0.0</speed>
  <fix>3d</fix>
</trkpt>
<trkpt lat="-27.274439" lon="151.290064">
  <ele>343.1</ele>
  <time>2026-09-01T20:01:21Z</time>
  <course>270.0</course>
  <speed>0.0</speed>
  <fix>3d</fix>
</trkpt>
<trkpt lat="-27.274439" lon="151.290064">
  <ele>343.1</ele>
  <time>2026-09-01T20:01:22Z</time>
  <course>8.0</course>
  <speed>0.0</speed>
  <fix>3d</fix>
</trkpt>
<trkpt lat="-27.274439" lon="151.290064">
  <ele>343.1</ele>
  <time>2026-09-01T20:01:22Z</time>
  <course>270.0</course>
  <speed>0.0</speed>
  <fix>3d</fix>
</trkpt>
<trkpt lat="-27.274439" lon="151.290064">
  <ele>343.1</ele>
  <time>2026-09-01T20:01:22Z</time>
  <course>8.0</course>
  <speed>0.0</speed>
  <fix>3d</fix>
</trkpt>
<trkpt lat="-27.274439" lon="151.290064">
  <ele>343.1</ele>
  <time>2026-09-01T20:01:22Z</time>
  <course>270.0</course>
  <speed>0.0</speed>
  <fix>3d</fix>
</trkpt>
<trkpt lat="-27.274439" lon="151.290064">
  <ele>343.1</ele>
  <time>2026-09-01T20:01:22Z</time>
  <course>8.0</course>
  <speed>0.0</speed>
  <fix>3d</fix>
</trkpt>
<trkpt lat="-27.274439" lon="151.290064">
  <ele>343.1</ele>
  <time>2026-09-01T20:01:22Z</time>
  <course>270.0</course>
  <speed>0.0</speed>
  <fix>3d</fix>
</trkpt>
<trkpt lat="-27.274439" lon="151.290064">
  <ele>343.1</ele>
  <time>2026-09-01T20:01:22Z</time>
  <course>8.0</course>
  <speed>0.0</speed>
  <fix>3d</fix>
</trkpt>
<trkpt lat="-27.274439" lon="151.290064">
  <ele>343.1</ele>
  <time>2026-09-01T20:01:22Z</time>
  <course>270.0</course>
  <speed>0.0</speed>
  <fix>3d</fix>
</trkpt>
<trkpt lat="-27.274439" lon="151.290064">
  <ele>343.1</ele>
  <time>2026-09-01T20:01:22Z</time>
  <course>8.0</course>
  <speed>0.0</speed>
  <fix>3d</fix>
</trkpt>
<trkpt lat="-27.274439" lon="151.290064">
  <ele>343.1</ele>
  <time>2026-09-01T20:01:22Z</time>
  <course>270.0</course>
  <speed>0.0</speed>
  <fix>3d</fix>
</trkpt>
<trkpt lat="-27.274439" lon="151.290064">
  <ele>343.1</ele>
  <time>2026-09-01T20:01:22Z</time>
  <course>8.0</course>
  <speed>0.0</speed>
  <fix>3d</fix>
</trkpt>
<trkpt lat="-27.274439" lon="151.290064">
  <ele>343.1</ele>
  <time>2026-09-01T20:01:22Z</time>
  <course>270.0</course>
  <speed>0.0</speed>
  <fix>3d</fix>
</trkpt>
<trkpt lat="-27.274439" lon="151.290064">
  <ele>343.1</ele>
  <time>2026-09-01T20:01:22Z</time>
  <course>8.0</course>
  <speed>0.0</speed>
  <fix>3d</fix>
</trkpt>
<trkpt lat="-27.274439" lon="151.290064">
  <ele>343.1</ele>
  <time>2026-09-01T20:01:22Z</time>
  <course>270.0</course>
  <speed>0.0</speed>
  <fix>3d</fix>
</trkpt>
<trkpt lat="-27.274439" lon="151.290064">
  <ele>343.1</ele>
  <time>2026-09-01T20:01:22Z</time>
  <course>8.0</course>
  <speed>0.0</speed>
  <fix>3d</fix>
</trkpt>
<trkpt lat="-27.274439" lon="151.290064">
  <ele>343.1</ele>
  <time>2026-09-01T20:01:22Z</time>
  <course>270.0</course>
  <speed>0.0</speed>
  <fix>3d</fix>
</trkpt>
<trkpt lat="-27.274439" lon="151.290064">
  <ele>343.1</ele>
  <time>2026-09-01T20:01:22Z</time>
  <course>8.0</course>
  <speed>0.0</speed>
  <fix>3d</fix>
</trkpt>
<trkpt lat="-27.274439" lon="151.290064">
  <ele>343.1</ele>
  <time>2026-09-01T20:01:22Z</time>
  <course>270.0</course>
  <speed>0.0</speed>
  <fix>3d</fix>
</trkpt>
<trkpt lat="-27.274439" lon="151.290064">
  <ele>343.1</ele>
  <time>2026-09-01T20:01:22Z</time>
  <course>8.0</course>
  <speed>0.0</speed>
  <fix>3d</fix>
</trkpt>
<trkpt lat="-27.274439" lon="151.290064">
  <ele>343.1</ele>
  <time>2026-09-01T20:01:22Z</time>
  <course>270.0</course>
  <speed>0.0</speed>
  <fix>3d</fix>
</trkpt>
<trkpt lat="-27.274439" lon="151.290064">
  <ele>343.1</ele>
  <time>2026-09-01T20:01:22Z</time>
  <course>8.0</course>
  <speed>0.0</speed>
  <fix>3d</fix>
</trkpt>
<trkpt lat="-27.274439" lon="151.290064">
  <ele>343.1</ele>
  <time>2026-09-01T20:01:22Z</time>
  <course>270.0</course>
  <speed>0.0</speed>
  <fix>3d</fix>
</trkpt>
<trkpt lat="-27.274439" lon="151.290064">
  <ele>343.1</ele>
  <time>2026-09-01T20:01:22Z</time>
  <course>8.0</course>
  <speed>0.0</speed>
  <fix>3d</fix>
</trkpt>
<trkpt lat="-27.274439" lon="151.290064">
  <ele>343.1</ele>
  <time>2026-09-01T20:01:22Z</time>
  <course>270.0</course>
  <speed>0.0</speed>
  <fix>3d</fix>
</trkpt>
<trkpt lat="-27.274439" lon="151.290064">
  <ele>343.1</ele>
  <time>2026-09-01T20:01:22Z</time>
  <course>8.0</course>
  <speed>0.0</speed>
  <fix>3d</fix>
</trkpt>
<trkpt lat="-27.274439" lon="151.290064">
  <ele>343.1</ele>
  <time>2026-09-01T20:01:22Z</time>
  <course>270.0</course>
  <speed>0.0</speed>
  <fix>3d</fix>
</trkpt>
<trkpt lat="-27.274439" lon="151.290064">
  <ele>343.1</ele>
  <time>2026-09-01T20:01:22Z</time>
  <course>8.0</course>
  <speed>0.0</speed>
  <fix>3d</fix>
</trkpt>
<trkpt lat="-27.274439" lon="151.290064">
  <ele>343.1</ele>
  <time>2026-09-01T20:01:22Z</time>
  <course>270.0</course>
  <speed>0.0</speed>
  <fix>3d</fix>
</trkpt>
<trkpt lat="-27.274439" lon="151.290064">
  <ele>343.1</ele>
  <time>2026-09-01T20:01:22Z</time>
  <course>8.0</course>
  <speed>0.0</speed>
  <fix>3d</fix>
</trkpt>
<trkpt lat="-27.274439" lon="151.290064">
  <ele>343.1</ele>
  <time>2026-09-01T20:01:22Z</time>
  <course>270.0</course>
  <speed>0.0</speed>
  <fix>3d</fix>
</trkpt>
<trkpt lat="-27.274439" lon="151.290064">
  <ele>343.1</ele>
  <time>2026-09-01T20:01:22Z</time>
  <course>8.0</course>
  <speed>0.0</speed>
  <fix>3d</fix>
</trkpt>
<trkpt lat="-27.274439" lon="151.290064">
  <ele>343.1</ele>
  <time>2026-09-01T20:01:22Z</time>
  <course>270.0</course>
  <speed>0.0</speed>
  <fix>3d</fix>
</trkpt>
<trkpt lat="-27.274439" lon="151.290064">
  <ele>343.1</ele>
  <time>2026-09-01T20:01:22Z</time>
  <course>8.0</course>
  <speed>0.0</speed>
  <fix>3d</fix>
</trkpt>
<trkpt lat="-27.274439" lon="151.290064">
  <ele>343.1</ele>
  <time>2026-09-01T20:01:22Z</time>
  <course>270.0</course>
  <speed>0.0</speed>
  <fix>3d</fix>
</trkpt>
<trkpt lat="-27.274439" lon="151.290064">
  <ele>343.1</ele>
  <time>2026-09-01T20:01:22Z</time>
  <course>8.0</course>
  <speed>0.0</speed>
  <fix>3d</fix>
</trkpt>
<trkpt lat="-27.274439" lon="151.290064">
  <ele>343.1</ele>
  <time>2026-09-01T20:01:22Z</time>
  <course>270.0</course>
  <speed>0.0</speed>
  <fix>3d</fix>
</trkpt>
<trkpt lat="-27.274439" lon="151.290064">
  <ele>343.1</ele>
  <time>2026-09-01T20:01:22Z</time>
  <course>8.0</course>
  <speed>0.0</speed>
  <fix>3d</fix>
</trkpt>
<trkpt lat="-27.274439" lon="151.290064">
  <ele>343.1</ele>
  <time>2026-09-01T20:01:22Z</time>
  <course>270.0</course>
  <speed>0.0</speed>
  <fix>3d</fix>
</trkpt>
<trkpt lat="-27.274439" lon="151.290064">
  <ele>343.1</ele>
  <time>2026-09-01T20:01:22Z</time>
  <course>8.0</course>
  <speed>0.0</speed>
  <fix>3d</fix>
</trkpt>
<trkpt lat="-27.274439" lon="151.290064">
  <ele>343.1</ele>
  <time>2026-09-01T20:01:22Z</time>
  <course>270.0</course>
  <speed>0.0</speed>
  <fix>3d</fix>
</trkpt>
<trkpt lat="-27.274439" lon="151.290064">
  <ele>343.1</ele>
  <time>2026-09-01T20:01:22Z</time>
  <course>8.0</course>
  <speed>0.0</speed>
  <fix>3d</fix>
</trkpt>
<trkpt lat="-27.274439" lon="151.290064">
  <ele>343.1</ele>
  <time>2026-09-01T20:01:22Z</time>
  <course>270.0</course>
  <speed>0.0</speed>
  <fix>3d</fix>
</trkpt>
<trkpt lat="-27.274439" lon="151.290064">
  <ele>343.1</ele>
  <time>2026-09-01T20:01:22Z</time>
  <course>8.0</course>
  <speed>0.0</speed>
  <fix>3d</fix>
</trkpt>
<trkpt lat="-27.274439" lon="151.290064">
  <ele>343.1</ele>
  <time>2026-09-01T20:01:22Z</time>
  <course>270.0</course>
  <speed>0.0</speed>
  <fix>3d</fix>
</trkpt>
<trkpt lat="-27.274439" lon="151.290064">
  <ele>343.1</ele>
  <time>2026-09-01T20:01:22Z</time>
  <course>8.0</course>
  <speed>0.0</speed>
  <fix>3d</fix>
</trkpt>
<trkpt lat="-27.274439" lon="151.290064">
  <ele>343.1</ele>
  <time>2026-09-01T20:01:22Z</time>
  <course>270.0</course>
  <speed>0.0</speed>
  <fix>3d</fix>
</trkpt>
<trkpt lat="-27.274439" lon="151.290064">
  <ele>343.1</ele>
  <time>2026-09-01T20:01:22Z</time>
  <course>8.0</course>
  <speed>0.0</speed>
  <fix>3d</fix>
</trkpt>
<trkpt lat="-27.274439" lon="151.290064">
  <ele>343.1</ele>
  <time>2026-09-01T20:01:22Z</time>
  <course>270.0</course>
  <speed>0.0</speed>
  <fix>3d</fix>
</trkpt>
<trkpt lat="-27.274439" lon="151.290064">
  <ele>343.1</ele>
  <time>2026-09-01T20:01:22Z</time>
  <course>8.0</course>
  <speed>0.0</speed>
  <fix>3d</fix>
</trkpt>
<trkpt lat="-27.274439" lon="151.290064">
  <ele>343.1</ele>
  <time>2026-09-01T20:01:22Z</time>
  <course>270.0</course>
  <speed>0.0</speed>
  <fix>3d</fix>
</trkpt>
<trkpt lat="-27.274439" lon="151.290064">
  <ele>343.1</ele>
  <time>2026-09-01T20:01:22Z</time>
  <course>8.0</course>
  <speed>0.0</speed>
  <fix>3d</fix>
</trkpt>
<trkpt lat="-27.274439" lon="151.290064">
  <ele>343.1</ele>
  <time>2026-09-01T20:01:22Z</time>
  <course>270.0</course>
  <speed>0.0</speed>
  <fix>3d</fix>
</trkpt>
<trkpt lat="-27.274439" lon="151.290064">
  <ele>343.1</ele>
  <time>2026-09-01T20:01:22Z</time>
  <course>8.0</course>
  <speed>0.0</speed>
  <fix>3d</fix>
</trkpt>
<trkpt lat="-27.274439" lon="151.290064">
  <ele>343.1</ele>
  <time>2026-09-01T20:01:22Z</time>
  <course>270.0</course>
  <speed>0.0</speed>
  <fix>3d</fix>
</trkpt>
<trkpt lat="-27.274439" lon="151.290064">
  <ele>343.1</ele>
  <time>2026-09-01T20:01:22Z</time>
  <course>8.0</course>
  <speed>0.0</speed>
  <fix>3d</fix>
</trkpt>
<trkpt lat="-27.274439" lon="151.290064">
  <ele>343.1</ele>
  <time>2026-09-01T20:01:22Z</time>
  <course>270.0</course>
  <speed>0.0</speed>
  <fix>3d</fix>
</trkpt>
<trkpt lat="-27.274439" lon="151.290064">
  <ele>343.1</ele>
  <time>2026-09-01T20:01:22Z</time>
  <course>8.0</course>
  <speed>0.0</speed>
  <fix>3d</fix>
</trkpt>
<trkpt lat="-27.274439" lon="151.290064">
  <ele>343.1</ele>
  <time>2026-09-01T20:01:22Z</time>
  <course>270.0</course>
  <speed>0.0</speed>
  <fix>3d</fix>
</trkpt>
<trkpt lat="-27.274439" lon="151.290064">
  <ele>343.1</ele>
  <time>2026-09-01T20:01:22Z</time>
  <course>8.0</course>
  <speed>0.0</speed>
  <fix>3d</fix>
</trkpt>
<trkpt lat="-27.274439" lon="151.290064">
  <ele>343.1</ele>
  <time>2026-09-01T20:01:22Z</time>
  <course>270.0</course>
  <speed>0.0</speed>
  <fix>3d</fix>
</trkpt>
<trkpt lat="-27.274439" lon="151.290064">
  <ele>343.1</ele>
  <time>2026-09-01T20:01:22Z</time>
  <course>8.0</course>
  <speed>0.0</speed>
  <fix>3d</fix>
</trkpt>
<trkpt lat="-27.274439" lon="151.290064">
  <ele>343.1</ele>
  <time>2026-09-01T20:01:22Z</time>
  <course>270.0</course>
  <speed>0.0</speed>
  <fix>3d</fix>
</trkpt>
<trkpt lat="-27.274439" lon="151.290064">
  <ele>343.1</ele>
  <time>2026-09-01T20:01:22Z</time>
  <course>8.0</course>
  <speed>0.0</speed>
  <fix>3d</fix>
</trkpt>
<trkpt lat="-27.274439" lon="151.290064">
  <ele>343.1</ele>
  <time>2026-09-01T20:01:22Z</time>
  <course>270.0</course>
  <speed>0.0</speed>
  <fix>3d</fix>
</trkpt>
<trkpt lat="-27.274439" lon="151.290064">
  <ele>343.1</ele>
  <time>2026-09-01T20:01:22Z</time>
  <course>8.0</course>
  <speed>0.0</speed>
  <fix>3d</fix>
</trkpt>
<trkpt lat="-27.274439" lon="151.290064">
  <ele>343.1</ele>
  <time>2026-09-01T20:01:22Z</time>
  <course>270.0</course>
  <speed>0.0</speed>
  <fix>3d</fix>
</trkpt>
<trkpt lat="-27.274439" lon="151.290064">
  <ele>343.1</ele>
  <time>2026-09-01T20:01:22Z</time>
  <course>8.0</course>
  <speed>0.0</speed>
  <fix>3d</fix>
</trkpt>
<trkpt lat="-27.274439" lon="151.290064">
  <ele>343.1</ele>
  <time>2026-09-01T20:01:22Z</time>
  <course>270.0</course>
  <speed>0.0</speed>
  <fix>3d</fix>
</trkpt>
<trkpt lat="-27.274439" lon="151.290064">
  <ele>343.1</ele>
  <time>2026-09-01T20:01:22Z</time>
  <course>8.0</course>
  <speed>0.0</speed>
  <fix>3d</fix>
</trkpt>
<trkpt lat="-27.274439" lon="151.290064">
  <ele>343.1</ele>
  <time>2026-09-01T20:01:22Z</time>
  <course>270.0</course>
  <speed>0.0</speed>
  <fix>3d</fix>
</trkpt>
<trkpt lat="-27.274439" lon="151.290064">
  <ele>343.1</ele>
  <time>2026-09-01T20:01:22Z</time>
  <course>8.0</course>
  <speed>0.0</speed>
  <fix>3d</fix>
</trkpt>
<trkpt lat="-27.274439" lon="151.290064">
  <ele>343.1</ele>
  <time>2026-09-01T20:01:22Z</time>
  <course>270.0</course>
  <speed>0.0</speed>
  <fix>3d</fix>
</trkpt>
<trkpt lat="-27.274439" lon="151.290064">
  <ele>343.1</ele>
  <time>2026-09-01T20:01:22Z</time>
  <course>8.0</course>
  <speed>0.0</speed>
  <fix>3d</fix>
</trkpt>
<trkpt lat="-27.274439" lon="151.290064">
  <ele>343.1</ele>
  <time>2026-09-01T20:01:22Z</time>
  <course>270.0</course>
  <speed>0.0</speed>
  <fix>3d</fix>
</trkpt>
<trkpt lat="-27.274439" lon="151.290064">
  <ele>343.1</ele>
  <time>2026-09-01T20:01:22Z</time>
  <course>8.0</course>
  <speed>0.0</speed>
  <fix>3d</fix>
</trkpt>
<trkpt lat="-27.274439" lon="151.290064">
  <ele>343.1</ele>
  <time>2026-09-01T20:01:22Z</time>
  <course>270.0</course>
  <speed>0.0</speed>
  <fix>3d</fix>
</trkpt>
<trkpt lat="-27.274439" lon="151.290064">
  <ele>343.1</ele>
  <time>2026-09-01T20:01:22Z</time>
  <course>8.0</course>
  <speed>0.0</speed>
  <fix>3d</fix>
</trkpt>
<trkpt lat="-27.274439" lon="151.290064">
  <ele>343.1</ele>
  <time>2026-09-01T20:01:22Z</time>
  <course>270.0</course>
  <speed>0.0</speed>
  <fix>3d</fix>
</trkpt>
<trkpt lat="-27.274439" lon="151.290064">
  <ele>343.1</ele>
  <time>2026-09-01T20:01:22Z</time>
  <course>8.0</course>
  <speed>0.0</speed>
  <fix>3d</fix>
</trkpt>
<trkpt lat="-27.274439" lon="151.290064">
  <ele>343.1</ele>
  <time>2026-09-01T20:01:22Z</time>
  <course>270.0</course>
  <speed>0.0</speed>
  <fix>3d</fix>
</trkpt>
<trkpt lat="-27.274439" lon="151.290064">
  <ele>343.1</ele>
  <time>2026-09-01T20:01:22Z</time>
  <course>8.0</course>
  <speed>0.0</speed>
  <fix>3d</fix>
</trkpt>
<trkpt lat="-27.274439" lon="151.290064">
  <ele>343.1</ele>
  <time>2026-09-01T20:01:22Z</time>
  <course>270.0</course>
  <speed>0.0</speed>
  <fix>3d</fix>
</trkpt>
<trkpt lat="-27.274439" lon="151.290064">
  <ele>343.1</ele>
  <time>2026-09-01T20:01:22Z</time>
  <course>8.0</course>
  <speed>0.0</speed>
  <fix>3d</fix>
</trkpt>
<trkpt lat="-27.274439" lon="151.290064">
  <ele>343.1</ele>
  <time>2026-09-01T20:01:22Z</time>
  <course>270.0</course>
  <speed>0.0</speed>
  <fix>3d</fix>
</trkpt>
<trkpt lat="-27.274439" lon="151.290064">
  <ele>343.1</ele>
  <time>2026-09-01T20:01:22Z</time>
  <course>8.0</course>
  <speed>0.0</speed>
  <fix>3d</fix>
</trkpt>
<trkpt lat="-27.274439" lon="151.290064">
  <ele>343.1</ele>
  <time>2026-09-01T20:01:22Z</time>
  <course>270.0</course>
  <speed>0.0</speed>
  <fix>3d</fix>
</trkpt>
<trkpt lat="-27.274439" lon="151.290064">
  <ele>343.1</ele>
  <time>2026-09-01T20:01:22Z</time>
  <course>8.0</course>
  <speed>0.0</speed>
  <fix>3d</fix>
</trkpt>
<trkpt lat="-27.274439" lon="151.290064">
  <ele>343.1</ele>
  <time>2026-09-01T20:01:22Z</time>
  <course>270.0</course>
  <speed>0.0</speed>
  <fix>3d</fix>
</trkpt>
<trkpt lat="-27.274439" lon="151.290064">
  <ele>343.1</ele>
  <time>2026-09-01T20:01:22Z</time>
  <course>8.0</course>
  <speed>0.0</speed>
  <fix>3d</fix>
</trkpt>
<trkpt lat="-27.274439" lon="151.290064">
  <ele>343.1</ele>
  <time>2026-09-01T20:01:22Z</time>
  <course>270.0</course>
  <speed>0.0</speed>
  <fix>3d</fix>
</trkpt>
<trkpt lat="-27.274439" lon="151.290064">
  <ele>343.1</ele>
  <time>2026-09-01T20:01:22Z</time>
  <course>8.0</course>
  <speed>0.0</speed>
  <fix>3d</fix>
</trkpt>
<trkpt lat="-27.274439" lon="151.290064">
  <ele>343.1</ele>
  <time>2026-09-01T20:01:22Z</time>
  <course>270.0</course>
  <speed>0.0</speed>
  <fix>3d</fix>
</trkpt>
<trkpt lat="-27.274439" lon="151.290064">
  <ele>343.1</ele>
  <time>2026-09-01T20:01:22Z</time>
  <course>8.0</course>
  <speed>0.0</speed>
  <fix>3d</fix>
</trkpt>
<trkpt lat="-27.274439" lon="151.290064">
  <ele>343.1</ele>
  <time>2026-09-01T20:01:22Z</time>
  <course>270.0</course>
  <speed>0.0</speed>
  <fix>3d</fix>
</trkpt>
<trkpt lat="-27.274439" lon="151.290064">
  <ele>343.1</ele>
  <time>2026-09-01T20:01:22Z</time>
  <course>8.0</course>
  <speed>0.0</speed>
  <fix>3d</fix>
</trkpt>
<trkpt lat="-27.274439" lon="151.290064">
  <ele>343.1</ele>
  <time>2026-09-01T20:01:22Z</time>
  <course>270.0</course>
  <speed>0.0</speed>
  <fix>3d</fix>
</trkpt>
<trkpt lat="-27.274439" lon="151.290064">
  <ele>343.1</ele>
  <time>2026-09-01T20:01:22Z</time>
  <course>8.0</course>
  <speed>0.0</speed>
  <fix>3d</fix>
</trkpt>
<trkpt lat="-27.274439" lon="151.290064">
  <ele>343.1</ele>
  <time>2026-09-01T20:01:22Z</time>
  <course>270.0</course>
  <speed>0.0</speed>
  <fix>3d</fix>
</trkpt>
<trkpt lat="-27.274439" lon="151.290064">
  <ele>343.1</ele>
  <time>2026-09-01T20:01:22Z</time>
  <course>8.0</course>
  <speed>0.0</speed>
  <fix>3d</fix>
</trkpt>
<trkpt lat="-27.274439" lon="151.290064">
  <ele>343.1</ele>
  <time>2026-09-01T20:01:22Z</time>
  <course>270.0</course>
  <speed>0.0</speed>
  <fix>3d</fix>
</trkpt>
<trkpt lat="-27.274439" lon="151.290064">
  <ele>343.1</ele>
  <time>2026-09-01T20:01:22Z</time>
  <course>8.0</course>
  <speed>0.0</speed>
  <fix>3d</fix>
</trkpt>
<trkpt lat="-27.274439" lon="151.290064">
  <ele>343.1</ele>
  <time>2026-09-01T20:01:22Z</time>
  <course>270.0</course>
  <speed>0.0</speed>
  <fix>3d</fix>
</trkpt>
<trkpt lat="-27.274439" lon="151.290064">
  <ele>343.1</ele>
  <time>2026-09-01T20:01:22Z</time>
  <course>8.0</course>
  <speed>0.0</speed>
  <fix>3d</fix>
</trkpt>
<trkpt lat="-27.274439" lon="151.290064">
  <ele>343.1</ele>
  <time>2026-09-01T20:01:22Z</time>
  <course>270.0</course>
  <speed>0.0</speed>
  <fix>3d</fix>
</trkpt>
<trkpt lat="-27.274439" lon="151.290064">
  <ele>343.1</ele>
  <time>2026-09-01T20:01:22Z</time>
  <course>8.0</course>
  <speed>0.0</speed>
  <fix>3d</fix>
</trkpt>
<trkpt lat="-27.274439" lon="151.290064">
  <ele>343.1</ele>
  <time>2026-09-01T20:01:22Z</time>
  <course>270.0</course>
  <speed>0.0</speed>
  <fix>3d</fix>
</trkpt>
<trkpt lat="-27.274439" lon="151.290064">
  <ele>343.1</ele>
  <time>2026-09-01T20:01:22Z</time>
  <course>8.0</course>
  <speed>0.0</speed>
  <fix>3d</fix>
</trkpt>
<trkpt lat="-27.274439" lon="151.290064">
  <ele>343.1</ele>
  <time>2026-09-01T20:01:22Z</time>
  <course>270.0</course>
  <speed>0.0</speed>
  <fix>3d</fix>
</trkpt>
<trkpt lat="-27.274439" lon="151.290064">
  <ele>343.1</ele>
  <time>2026-09-01T20:01:22Z</time>
  <course>8.0</course>
  <speed>0.0</speed>
  <fix>3d</fix>
</trkpt>
<trkpt lat="-27.274439" lon="151.290064">
  <ele>343.1</ele>
  <time>2026-09-01T20:01:22Z</time>
  <course>270.0</course>
  <speed>0.0</speed>
  <fix>3d</fix>
</trkpt>
<trkpt lat="-27.274439" lon="151.290064">
  <ele>343.1</ele>
  <time>2026-09-01T20:01:22Z</time>
  <course>8.0</course>
  <speed>0.0</speed>
  <fix>3d</fix>
</trkpt>
<trkpt lat="-27.274439" lon="151.290064">
  <ele>343.1</ele>
  <time>2026-09-01T20:01:22Z</time>
  <course>270.0</course>
  <speed>0.0</speed>
  <fix>3d</fix>
</trkpt>
<trkpt lat="-27.274439" lon="151.290064">
  <ele>343.1</ele>
  <time>2026-09-01T20:01:22Z</time>
  <course>8.0</course>
  <speed>0.0</speed>
  <fix>3d</fix>
</trkpt>
<trkpt lat="-27.274439" lon="151.290064">
  <ele>343.1</ele>
  <time>2026-09-01T20:01:22Z</time>
  <course>270.0</course>
  <speed>0.0</speed>
  <fix>3d</fix>
</trkpt>
<trkpt lat="-27.274439" lon="151.290064">
  <ele>343.1</ele>
  <time>2026-09-01T20:01:22Z</time>
  <course>8.0</course>
  <speed>0.0</speed>
  <fix>3d</fix>
</trkpt>
<trkpt lat="-27.274439" lon="151.290064">
  <ele>343.1</ele>
  <time>2026-09-01T20:01:22Z</time>
  <course>270.0</course>
  <speed>0.0</speed>
  <fix>3d</fix>
</trkpt>
<trkpt lat="-27.274439" lon="151.290064">
  <ele>343.1</ele>
  <time>2026-09-01T20:01:22Z</time>
  <course>8.0</course>
  <speed>0.0</speed>
  <fix>3d</fix>
</trkpt>
<trkpt lat="-27.274439" lon="151.290064">
  <ele>343.1</ele>
  <time>2026-09-01T20:01:22Z</time>
  <course>270.0</course>
  <speed>0.0</speed>
  <fix>3d</fix>
</trkpt>
<trkpt lat="-27.274439" lon="151.290064">
  <ele>343.1</ele>
  <time>2026-09-01T20:01:22Z</time>
  <course>8.0</course>
  <speed>0.0</speed>
  <fix>3d</fix>
</trkpt>
<trkpt lat="-27.274439" lon="151.290064">
  <ele>343.1</ele>
  <time>2026-09-01T20:01:22Z</time>
  <course>270.0</course>
  <speed>0.0</speed>
  <fix>3d</fix>
</trkpt>
<trkpt lat="-27.274439" lon="151.290064">
  <ele>343.1</ele>
  <time>2026-09-01T20:01:22Z</time>
  <course>8.0</course>
  <speed>0.0</speed>
  <fix>3d</fix>
</trkpt>
<trkpt lat="-27.274439" lon="151.290064">
  <ele>343.1</ele>
  <time>2026-09-01T20:01:22Z</time>
  <course>270.0</course>
  <speed>0.0</speed>
  <fix>3d</fix>
</trkpt>
<trkpt lat="-27.274439" lon="151.290064">
  <ele>343.1</ele>
  <time>2026-09-01T20:01:22Z</time>
  <course>8.0</course>
  <speed>0.0</speed>
  <fix>3d</fix>
</trkpt>
<trkpt lat="-27.274439" lon="151.290064">
  <ele>343.1</ele>
  <time>2026-09-01T20:01:22Z</time>
  <course>270.0</course>
  <speed>0.0</speed>
  <fix>3d</fix>
</trkpt>
<trkpt lat="-27.274439" lon="151.290064">
  <ele>343.1</ele>
  <time>2026-09-01T20:01:22Z</time>
  <course>8.0</course>
  <speed>0.0</speed>
  <fix>3d</fix>
</trkpt>
<trkpt lat="-27.274439" lon="151.290064">
  <ele>343.1</ele>
  <time>2026-09-01T20:01:22Z</time>
  <course>270.0</course>
  <speed>0.0</speed>
  <fix>3d</fix>
</trkpt>
<trkpt lat="-27.274439" lon="151.290064">
  <ele>343.1</ele>
  <time>2026-09-01T20:01:22Z</time>
  <course>8.0</course>
  <speed>0.0</speed>
  <fix>3d</fix>
</trkpt>
<trkpt lat="-27.274439" lon="151.290064">
  <ele>343.1</ele>
  <time>2026-09-01T20:01:22Z</time>
  <course>270.0</course>
  <speed>0.0</speed>
  <fix>3d</fix>
</trkpt>
<trkpt lat="-27.274439" lon="151.290064">
  <ele>343.1</ele>
  <time>2026-09-01T20:01:22Z</time>
  <course>8.0</course>
  <speed>0.0</speed>
  <fix>3d</fix>
</trkpt>
<trkpt lat="-27.274439" lon="151.290064">
  <ele>343.1</ele>
  <time>2026-09-01T20:01:22Z</time>
  <course>270.0</course>
  <speed>0.0</speed>
  <fix>3d</fix>
</trkpt>
<trkpt lat="-27.274439" lon="151.290064">
  <ele>343.1</ele>
  <time>2026-09-01T20:01:22Z</time>
  <course>8.0</course>
  <speed>0.0</speed>
  <fix>3d</fix>
</trkpt>
<trkpt lat="-27.274439" lon="151.290064">
  <ele>343.1</ele>
  <time>2026-09-01T20:01:22Z</time>
  <course>270.0</course>
  <speed>0.0</speed>
  <fix>3d</fix>
</trkpt>
<trkpt lat="-27.274439" lon="151.290064">
  <ele>343.1</ele>
  <time>2026-09-01T20:01:22Z</time>
  <course>8.0</course>
  <speed>0.0</speed>
  <fix>3d</fix>
</trkpt>
<trkpt lat="-27.274439" lon="151.290064">
  <ele>343.1</ele>
  <time>2026-09-01T20:01:22Z</time>
  <course>270.0</course>
  <speed>0.0</speed>
  <fix>3d</fix>
</trkpt>
<trkpt lat="-27.274439" lon="151.290064">
  <ele>343.1</ele>
  <time>2026-09-01T20:01:22Z</time>
  <course>8.0</course>
  <speed>0.0</speed>
  <fix>3d</fix>
</trkpt>
<trkpt lat="-27.274439" lon="151.290064">
  <ele>343.1</ele>
  <time>2026-09-01T20:01:22Z</time>
  <course>270.0</course>
  <speed>0.0</speed>
  <fix>3d</fix>
</trkpt>
<trkpt lat="-27.274439" lon="151.290064">
  <ele>343.1</ele>
  <time>2026-09-01T20:01:22Z</time>
  <course>8.0</course>
  <speed>0.0</speed>
  <fix>3d</fix>
</trkpt>
<trkpt lat="-27.274439" lon="151.290064">
  <ele>343.1</ele>
  <time>2026-09-01T20:01:22Z</time>
  <course>270.0</course>
  <speed>0.0</speed>
  <fix>3d</fix>
</trkpt>
<trkpt lat="-27.274439" lon="151.290064">
  <ele>343.1</ele>
  <time>2026-09-01T20:01:22Z</time>
  <course>8.0</course>
  <speed>0.0</speed>
  <fix>3d</fix>
</trkpt>
<trkpt lat="-27.274439" lon="151.290064">
  <ele>343.1</ele>
  <time>2026-09-01T20:01:22Z</time>
  <course>270.0</course>
  <speed>0.0</speed>
  <fix>3d</fix>
</trkpt>
<trkpt lat="-27.274439" lon="151.290064">
  <ele>343.1</ele>
  <time>2026-09-01T20:01:22Z</time>
  <course>8.0</course>
  <speed>0.0</speed>
  <fix>3d</fix>
</trkpt>
<trkpt lat="-27.274439" lon="151.290064">
  <ele>343.1</ele>
  <time>2026-09-01T20:01:22Z</time>
  <course>270.0</course>
  <speed>0.0</speed>
  <fix>3d</fix>
</trkpt>
<trkpt lat="-27.274439" lon="151.290064">
  <ele>343.1</ele>
  <time>2026-09-01T20:01:22Z</time>
  <course>8.0</course>
  <speed>0.0</speed>
  <fix>3d</fix>
</trkpt>
<trkpt lat="-27.274439" lon="151.290064">
  <ele>343.1</ele>
  <time>2026-09-01T20:01:22Z</time>
  <course>270.0</course>
  <speed>0.0</speed>
  <fix>3d</fix>
</trkpt>
<trkpt lat="-27.274439" lon="151.290064">
  <ele>343.1</ele>
  <time>2026-09-01T20:01:22Z</time>
  <course>8.0</course>
  <speed>0.0</speed>
  <fix>3d</fix>
</trkpt>
<trkpt lat="-27.274439" lon="151.290064">
  <ele>343.1</ele>
  <time>2026-09-01T20:01:22Z</time>
  <course>270.0</course>
  <speed>0.0</speed>
  <fix>3d</fix>
</trkpt>
<trkpt lat="-27.2726451" lon="151.2940975">
  <ele>540.22</ele>
  <time>2026-09-01T20:01:22Z</time>
  <course>244.89</course>
  <speed>12.595733404609673</speed>
  <fix>3d</fix>
</trkpt>
<trkpt lat="-27.274439" lon="151.290064">
  <ele>343.1</ele>
  <time>2026-09-01T20:01:22Z</time>
  <course>270.0</course>
  <speed>0.0</speed>
  <fix>3d</fix>
</trkpt>
<trkpt lat="-27.27265" lon="151.2940846">
  <ele>536.44</ele>
  <time>2026-09-01T20:01:22Z</time>
  <course>238.81</course>
  <speed>15.571528505577094</speed>
  <fix>3d</fix>
</trkpt>
<trkpt lat="-27.274439" lon="151.290064">
  <ele>343.1</ele>
  <time>2026-09-01T20:01:22Z</time>
  <course>270.0</course>
  <speed>0.0</speed>
  <fix>3d</fix>
</trkpt>
<trkpt lat="-27.2726585" lon="151.2940702">
  <ele>532.82</ele>
  <time>2026-09-01T20:01:22Z</time>
  <course>227.1</course>
  <speed>18.141146601028282</speed>
  <fix>3d</fix>
</trkpt>
<trkpt lat="-27.2735443" lon="151.2920747">
  <ele>439.87</ele>
  <time>2026-09-01T20:01:22Z</time>
  <course>242.18</course>
  <speed>7.69</speed>
  <fix>3d</fix>
</trkpt>
<trkpt lat="-27.2726702" lon="151.2940566">
  <ele>529.31</ele>
  <time>2026-09-01T20:01:22Z</time>
  <course>212.84</course>
  <speed>19.331818331445184</speed>
  <fix>3d</fix>
</trkpt>
<trkpt lat="-27.2735443" lon="151.2920747">
  <ele>439.87</ele>
  <time>2026-09-01T20:01:22Z</time>
  <course>242.18</course>
  <speed>7.69</speed>
  <fix>3d</fix>
</trkpt>
<trkpt lat="-27.2726841" lon="151.2940446">
  <ele>525.84</ele>
  <time>2026-09-01T20:01:22Z</time>
  <course>204.23</course>
  <speed>19.59953060662423</speed>
  <fix>3d</fix>
</trkpt>
<trkpt lat="-27.2726595" lon="151.2940714">
  <ele>533.08</ele>
  <time>2026-09-01T20:01:22Z</time>
  <course>230.8</course>
  <speed>17.07</speed>
  <fix>3d</fix>
</trkpt>
<trkpt lat="-27.2726982" lon="151.2940317">
  <ele>522.41</ele>
  <time>2026-09-01T20:01:22Z</time>
  <course>216.66</course>
  <speed>21.715388552821246</speed>
  <fix>3d</fix>
</trkpt>
<trkpt lat="-27.2726595" lon="151.2940714">
  <ele>533.08</ele>
  <time>2026-09-01T20:01:22Z</time>
  <course>230.8</course>
  <speed>17.07</speed>
  <fix>3d</fix>
</trkpt>
<trkpt lat="-27.2727117" lon="151.2940121">
  <ele>519.32</ele>
  <time>2026-09-01T20:01:22Z</time>
  <course>227.64</course>
  <speed>27.656082513617143</speed>
  <fix>3d</fix>
</trkpt>
<trkpt lat="-27.2726835" lon="151.2940449">
  <ele>526.05</ele>
  <time>2026-09-01T20:01:22Z</time>
  <course>223.15</course>
  <speed>20.39</speed>
  <fix>3d</fix>
</trkpt>
<trkpt lat="-27.2727255" lon="151.2939855">
  <ele>516.91</ele>
  <time>2026-09-01T20:01:22Z</time>
  <course>234.65</course>
  <speed>33.07054580740996</speed>
  <fix>3d</fix>
</trkpt>
<trkpt lat="-27.2726835" lon="151.2940449">
  <ele>526.05</ele>
  <time>2026-09-01T20:01:22Z</time>
  <course>223.15</course>
  <speed>20.39</speed>
  <fix>3d</fix>
</trkpt>
<trkpt lat="-27.2727399" lon="151.2939543">
  <ele>515.34</ele>
  <time>2026-09-01T20:01:22Z</time>
  <course>238.74</course>
  <speed>36.175408774469986</speed>
  <fix>3d</fix>
</trkpt>
<trkpt lat="-27.2727111" lon="151.2940097">
  <ele>519.8</ele>
  <time>2026-09-01T20:01:22Z</time>
  <course>234.73</course>
  <speed>26.88</speed>
  <fix>3d</fix>
</trkpt>
<trkpt lat="-27.2727547" lon="151.2939209">
  <ele>514.59</ele>
  <time>2026-09-01T20:01:22Z</time>
  <course>240.41</course>
  <speed>37.11873516164041</speed>
  <fix>3d</fix>
</trkpt>
<trkpt lat="-27.2727111" lon="151.2940097">
  <ele>519.8</ele>
  <time>2026-09-01T20:01:22Z</time>
  <course>234.73</course>
  <speed>26.88</speed>
  <fix>3d</fix>
</trkpt>
<trkpt lat="-27.2727696" lon="151.2938877">
  <ele>514.56</ele>
  <time>2026-09-01T20:01:22Z</time>
  <course>240.75</course>
  <speed>36.54671120634523</speed>
  <fix>3d</fix>
</trkpt>
<trkpt lat="-27.2727393" lon="151.2939548">
  <ele>515.81</ele>
  <time>2026-09-01T20:01:22Z</time>
  <course>242.52</course>
  <speed>34.98</speed>
  <fix>3d</fix>
</trkpt>
<trkpt lat="-27.2727842" lon="151.2938553">
  <ele>515.1</ele>
  <time>2026-09-01T20:01:22Z</time>
  <course>240.66</course>
  <speed>35.16823140278737</speed>
  <fix>3d</fix>
</trkpt>
<trkpt lat="-27.2727393" lon="151.2939548">
  <ele>515.81</ele>
  <time>2026-09-01T20:01:22Z</time>
  <course>242.52</course>
  <speed>34.98</speed>
  <fix>3d</fix>
</trkpt>
<trkpt lat="-27.2727986" lon="151.2938246">
  <ele>516.04</ele>
  <time>2026-09-01T20:01:22Z</time>
  <course>240.48</course>
  <speed>33.62823962089006</speed>
  <fix>3d</fix>
</trkpt>
<trkpt lat="-27.2727687" lon="151.2938898">
  <ele>514.83</ele>
  <time>2026-09-01T20:01:22Z</time>
  <course>243.05</course>
  <speed>36.18</speed>
  <fix>3d</fix>
</trkpt>
<trkpt lat="-27.2728127" lon="151.2937954">
  <ele>517.24</ele>
  <time>2026-09-01T20:01:22Z</time>
  <course>240.31</course>
  <speed>32.34486667154465</speed>
  <fix>3d</fix>
</trkpt>
<trkpt lat="-27.2727687" lon="151.2938898">
  <ele>514.83</ele>
  <time>2026-09-01T20:01:22Z</time>
  <course>243.05</course>
  <speed>36.18</speed>
  <fix>3d</fix>
</trkpt>
<trkpt lat="-27.2728265" lon="151.2937672">
  <ele>518.54</ele>
  <time>2026-09-01T20:01:22Z</time>
  <course>240.25</course>
  <speed>31.4094539907971</speed>
  <fix>3d</fix>
</trkpt>
<trkpt lat="-27.2727977" lon="151.2938269">
  <ele>516.12</ele>
  <time>2026-09-01T20:01:22Z</time>
  <course>242.04</course>
  <speed>33.82</speed>
  <fix>3d</fix>
</trkpt>
<trkpt lat="-27.27284" lon="151.2937397">
  <ele>519.86</ele>
  <time>2026-09-01T20:01:22Z</time>
  <course>240.22</course>
  <speed>30.78026965443935</speed>
  <fix>3d</fix>
</trkpt>
<trkpt lat="-27.2727977" lon="151.2938269">
  <ele>516.12</ele>
  <time>2026-09-01T20:01:22Z</time>
  <course>242.04</course>
  <speed>33.82</speed>
  <fix>3d</fix>
</trkpt>
<trkpt lat="-27.2728535" lon="151.2937127">
  <ele>521.12</ele>
  <time>2026-09-01T20:01:22Z</time>
  <course>240.28</course>
  <speed>30.354269880858606</speed>
  <fix>3d</fix>
</trkpt>
<trkpt lat="-27.2728257" lon="151.2937689">
  <ele>518.48</ele>
  <time>2026-09-01T20:01:22Z</time>
  <course>241.08</course>
  <speed>31.6</speed>
  <fix>3d</fix>
</trkpt>
<trkpt lat="-27.2728668" lon="151.2936863">
  <ele>522.29</ele>
  <time>2026-09-01T20:01:22Z</time>
  <course>240.36</course>
  <speed>30.04274621268835</speed>
  <fix>3d</fix>
</trkpt>
<trkpt lat="-27.2728257" lon="151.2937689">
  <ele>518.48</ele>
  <time>2026-09-01T20:01:22Z</time>
  <course>241.08</course>
  <speed>31.6</speed>
  <fix>3d</fix>
</trkpt>
<trkpt lat="-27.2728801" lon="151.29366">
  <ele>523.37</ele>
  <time>2026-09-01T20:01:22Z</time>
  <course>240.45</course>
  <speed>29.814508213284352</speed>
  <fix>3d</fix>
</trkpt>
<trkpt lat="-27.2728528" lon="151.2937143">
  <ele>521.01</ele>
  <time>2026-09-01T20:01:22Z</time>
  <course>240.62</course>
  <speed>30.43</speed>
  <fix>3d</fix>
</trkpt>
<trkpt lat="-27.2728932" lon="151.2936337">
  <ele>524.32</ele>
  <time>2026-09-01T20:01:22Z</time>
  <course>240.56</course>
  <speed>29.612384233627658</speed>
  <fix>3d</fix>
</trkpt>
<trkpt lat="-27.2728528" lon="151.2937143">
  <ele>521.01</ele>
  <time>2026-09-01T20:01:22Z</time>
  <course>240.62</course>
  <speed>30.43</speed>
  <fix>3d</fix>
</trkpt>
<trkpt lat="-27.2729062" lon="151.2936078">
  <ele>525.14</ele>
  <time>2026-09-01T20:01:22Z</time>
  <course>240.68</course>
  <speed>29.441306017226886</speed>
  <fix>3d</fix>
</trkpt>
<trkpt lat="-27.2728793" lon="151.2936613">
  <ele>523.25</ele>
  <time>2026-09-01T20:01:22Z</time>
  <course>240.51</course>
  <speed>29.84</speed>
  <fix>3d</fix>
</trkpt>
<trkpt lat="-27.2729192" lon="151.2935819">
  <ele>525.85</ele>
  <time>2026-09-01T20:01:22Z</time>
  <course>240.73</course>
  <speed>29.261527642964914</speed>
  <fix>3d</fix>
</trkpt>
<trkpt lat="-27.2728793" lon="151.2936613">
  <ele>523.25</ele>
  <time>2026-09-01T20:01:22Z</time>
  <course>240.51</course>
  <speed>29.84</speed>
  <fix>3d</fix>
</trkpt>
<trkpt lat="-27.2729321" lon="151.2935563">
  <ele>526.43</ele>
  <time>2026-09-01T20:01:22Z</time>
  <course>240.8</course>
  <speed>29.08175544907838</speed>
  <fix>3d</fix>
</trkpt>
<trkpt lat="-27.2729055" lon="151.2936092">
  <ele>525.04</ele>
  <time>2026-09-01T20:01:22Z</time>
  <course>240.55</course>
  <speed>29.45</speed>
  <fix>3d</fix>
</trkpt>
<trkpt lat="-27.2729448" lon="151.2935307">
  <ele>526.91</ele>
  <time>2026-09-01T20:01:22Z</time>
  <course>240.81</course>
  <speed>28.884559889324954</speed>
  <fix>3d</fix>
</trkpt>
<trkpt lat="-27.2729055" lon="151.2936092">
  <ele>525.04</ele>
  <time>2026-09-01T20:01:22Z</time>
  <course>240.55</course>
  <speed>29.45</speed>
  <fix>3d</fix>
</trkpt>
<trkpt lat="-27.2729575" lon="151.2935054">
  <ele>527.29</ele>
  <time>2026-09-01T20:01:22Z</time>
  <course>240.81</course>
  <speed>28.688468066454856</speed>
  <fix>3d</fix>
</trkpt>
<trkpt lat="-27.2729314" lon="151.2935577">
  <ele>526.35</ele>
  <time>2026-09-01T20:01:22Z</time>
  <course>240.6</course>
  <speed>29.08</speed>
  <fix>3d</fix>
</trkpt>
<trkpt lat="-27.2729701" lon="151.2934803">
  <ele>527.59</ele>
  <time>2026-09-01T20:01:22Z</time>
  <course>240.74</course>
  <speed>28.502227983089323</speed>
  <fix>3d</fix>
</trkpt>
<trkpt lat="-27.2729314" lon="151.2935577">
  <ele>526.35</ele>
  <time>2026-09-01T20:01:22Z</time>
  <course>240.6</course>
  <speed>29.08</speed>
  <fix>3d</fix>
</trkpt>
<trkpt lat="-27.2729827" lon="151.2934553">
  <ele>527.81</ele>
  <time>2026-09-01T20:01:22Z</time>
  <course>240.62</course>
  <speed>28.303577512392316</speed>
  <fix>3d</fix>
</trkpt>
<trkpt lat="-27.2729568" lon="151.2935068">
  <ele>527.23</ele>
  <time>2026-09-01T20:01:22Z</time>
  <course>240.56</course>
  <speed>28.7</speed>
  <fix>3d</fix>
</trkpt>
<trkpt lat="-27.2729953" lon="151.2934306">
  <ele>527.96</ele>
  <time>2026-09-01T20:01:22Z</time>
  <course>240.49</course>
  <speed>28.128597547691566</speed>
  <fix>3d</fix>
</trkpt>
<trkpt lat="-27.2729568" lon="151.2935068">
  <ele>527.23</ele>
  <time>2026-09-01T20:01:22Z</time>
  <course>240.56</course>
  <speed>28.7</speed>
  <fix>3d</fix>
</trkpt>
<trkpt lat="-27.2730078" lon="151.293406">
  <ele>528.04</ele>
  <time>2026-09-01T20:01:22Z</time>
  <course>240.32</course>
  <speed>27.950150267932372</speed>
  <fix>3d</fix>
</trkpt>
<trkpt lat="-27.2729821" lon="151.2934566">
  <ele>527.77</ele>
  <time>2026-09-01T20:01:22Z</time>
  <course>240.38</course>
  <speed>28.32</speed>
  <fix>3d</fix>
</trkpt>
<trkpt lat="-27.2730204" lon="151.2933813">
  <ele>528.1</ele>
  <time>2026-09-01T20:01:22Z</time>
  <course>240.13</course>
  <speed>27.795715497176896</speed>
  <fix>3d</fix>
</trkpt>
<trkpt lat="-27.2729821" lon="151.2934566">
  <ele>527.77</ele>
  <time>2026-09-01T20:01:22Z</time>
  <course>240.38</course>
  <speed>28.32</speed>
  <fix>3d</fix>
</trkpt>
<trkpt lat="-27.273033" lon="151.2933572">
  <ele>528.1</ele>
  <time>2026-09-01T20:01:22Z</time>
  <course>239.9</course>
  <speed>27.646800899923306</speed>
  <fix>3d</fix>
</trkpt>
<trkpt lat="-27.2730073" lon="151.2934071">
  <ele>528.03</ele>
  <time>2026-09-01T20:01:22Z</time>
  <course>240.04</course>
  <speed>27.97</speed>
  <fix>3d</fix>
</trkpt>
<trkpt lat="-27.2730456" lon="151.2933332">
  <ele>528.07</ele>
  <time>2026-09-01T20:01:22Z</time>
  <course>239.63</course>
  <speed>27.50863500793887</speed>
  <fix>3d</fix>
</trkpt>
<trkpt lat="-27.2730073" lon="151.2934071">
  <ele>528.03</ele>
  <time>2026-09-01T20:01:22Z</time>
  <course>240.04</course>
  <speed>27.97</speed>
  <fix>3d</fix>
</trkpt>
<trkpt lat="-27.2730582" lon="151.2933094">
  <ele>528.0</ele>
  <time>2026-09-01T20:01:22Z</time>
  <course>239.34</course>
  <speed>27.376334670660352</speed>
  <fix>3d</fix>
</trkpt>
<trkpt lat="-27.2730324" lon="151.2933585">
  <ele>528.08</ele>
  <time>2026-09-01T20:01:22Z</time>
  <course>239.57</course>
  <speed>27.66</speed>
  <fix>3d</fix>
</trkpt>
<trkpt lat="-27.273071" lon="151.2932858">
  <ele>527.91</ele>
  <time>2026-09-01T20:01:22Z</time>
  <course>239.01</course>
  <speed>27.26379467352261</speed>
  <fix>3d</fix>
</trkpt>
<trkpt lat="-27.2730324" lon="151.2933585">
  <ele>528.08</ele>
  <time>2026-09-01T20:01:22Z</time>
  <course>239.57</course>
  <speed>27.66</speed>
  <fix>3d</fix>
</trkpt>
<trkpt lat="-27.2730838" lon="151.2932624">
  <ele>527.79</ele>
  <time>2026-09-01T20:01:22Z</time>
  <course>238.73</course>
  <speed>27.16273366213349</speed>
  <fix>3d</fix>
</trkpt>
<trkpt lat="-27.2730576" lon="151.2933107">
  <ele>527.99</ele>
  <time>2026-09-01T20:01:22Z</time>
  <course>238.97</course>
  <speed>27.4</speed>
  <fix>3d</fix>
</trkpt>
<trkpt lat="-27.2730966" lon="151.2932391">
  <ele>527.66</ele>
  <time>2026-09-01T20:01:22Z</time>
  <course>238.38</course>
  <speed>27.071331699788985</speed>
  <fix>3d</fix>
</trkpt>
<trkpt lat="-27.2730576" lon="151.2933107">
  <ele>527.99</ele>
  <time>2026-09-01T20:01:22Z</time>
  <course>238.97</course>
  <speed>27.4</speed>
  <fix>3d</fix>
</trkpt>
<trkpt lat="-27.2731096" lon="151.2932161">
  <ele>527.52</ele>
  <time>2026-09-01T20:01:22Z</time>
  <course>237.98</course>
  <speed>26.978000296537918</speed>
  <fix>3d</fix>
</trkpt>
<trkpt lat="-27.2730831" lon="151.2932636">
  <ele>527.79</ele>
  <time>2026-09-01T20:01:22Z</time>
  <course>238.27</course>
  <speed>27.17</speed>
  <fix>3d</fix>
</trkpt>
<trkpt lat="-27.2731227" lon="151.2931932">
  <ele>527.35</ele>
  <time>2026-09-01T20:01:22Z</time>
  <course>237.63</course>
  <speed>26.90526528395511</speed>
  <fix>3d</fix>
</trkpt>
<trkpt lat="-27.2730831" lon="151.2932636">
  <ele>527.79</ele>
  <time>2026-09-01T20:01:22Z</time>
  <course>238.27</course>
  <speed>27.17</speed>
  <fix>3d</fix>
</trkpt>
<trkpt lat="-27.2731359" lon="151.2931703">
  <ele>527.18</ele>
  <time>2026-09-01T20:01:22Z</time>
  <course>237.37</course>
  <speed>26.831399516238434</speed>
  <fix>3d</fix>
</trkpt>
<trkpt lat="-27.273109" lon="151.2932172">
  <ele>527.51</ele>
  <time>2026-09-01T20:01:22Z</time>
  <course>237.49</course>
  <speed>26.99</speed>
  <fix>3d</fix>
</trkpt>
<trkpt lat="-27.2731492" lon="151.2931477">
  <ele>527.0</ele>
  <time>2026-09-01T20:01:22Z</time>
  <course>237.21</course>
  <speed>26.764291509397367</speed>
  <fix>3d</fix>
</trkpt>
<trkpt lat="-27.273109" lon="151.2932172">
  <ele>527.51</ele>
  <time>2026-09-01T20:01:22Z</time>
  <course>237.49</course>
  <speed>26.99</speed>
  <fix>3d</fix>
</trkpt>
<trkpt lat="-27.2731625" lon="151.2931253">
  <ele>526.81</ele>
  <time>2026-09-01T20:01:22Z</time>
  <course>237.01</course>
  <speed>26.697896920918698</speed>
  <fix>3d</fix>
</trkpt>
<trkpt lat="-27.2731352" lon="151.2931716">
  <ele>527.18</ele>
  <time>2026-09-01T20:01:22Z</time>
  <course>236.72</course>
  <speed>26.84</speed>
  <fix>3d</fix>
</trkpt>
<trkpt lat="-27.2731759" lon="151.2931031">
  <ele>526.62</ele>
  <time>2026-09-01T20:01:22Z</time>
  <course>236.78</course>
  <speed>26.645633788671645</speed>
  <fix>3d</fix>
</trkpt>
<trkpt lat="-27.2731352" lon="151.2931716">
  <ele>527.18</ele>
  <time>2026-09-01T20:01:22Z</time>
  <course>236.72</course>
  <speed>26.84</speed>
  <fix>3d</fix>
</trkpt>
<trkpt lat="-27.2731893" lon="151.2930807">
  <ele>526.41</ele>
  <time>2026-09-01T20:01:22Z</time>
  <course>236.5</course>
  <speed>26.588004814201458</speed>
  <fix>3d</fix>
</trkpt>
<trkpt lat="-27.2731618" lon="151.2931266">
  <ele>526.82</ele>
  <time>2026-09-01T20:01:22Z</time>
  <course>236.14</course>
  <speed>26.71</speed>
  <fix>3d</fix>
</trkpt>
<trkpt lat="-27.2732028" lon="151.2930586">
  <ele>526.21</ele>
  <time>2026-09-01T20:01:22Z</time>
  <course>236.22</course>
  <speed>26.535805998687888</speed>
  <fix>3d</fix>
</trkpt>
<trkpt lat="-27.2731618" lon="151.2931266">
  <ele>526.82</ele>
  <time>2026-09-01T20:01:22Z</time>
  <course>236.14</course>
  <speed>26.71</speed>
  <fix>3d</fix>
</trkpt>
<trkpt lat="-27.2732162" lon="151.2930365">
  <ele>526.0</ele>
  <time>2026-09-01T20:01:22Z</time>
  <course>235.93</course>
  <speed>26.491940283791973</speed>
  <fix>3d</fix>
</trkpt>
<trkpt lat="-27.2731886" lon="151.2930819">
  <ele>526.42</ele>
  <time>2026-09-01T20:01:22Z</time>
  <course>235.79</course>
  <speed>26.59</speed>
  <fix>3d</fix>
</trkpt>
<trkpt lat="-27.2732297" lon="151.2930145">
  <ele>525.79</ele>
  <time>2026-09-01T20:01:22Z</time>
  <course>235.66</course>
  <speed>26.456381082831417</speed>
  <fix>3d</fix>
</trkpt>
<trkpt lat="-27.2731886" lon="151.2930819">
  <ele>526.42</ele>
  <time>2026-09-01T20:01:22Z</time>
  <course>235.79</course>
  <speed>26.59</speed>
  <fix>3d</fix>
</trkpt>
<trkpt lat="-27.2732431" lon="151.2929925">
  <ele>525.58</ele>
  <time>2026-09-01T20:01:22Z</time>
  <course>235.49</course>
  <speed>26.41264091301739</speed>
  <fix>3d</fix>
</trkpt>
<trkpt lat="-27.2732155" lon="151.2930376">
  <ele>526.01</ele>
  <time>2026-09-01T20:01:22Z</time>
  <course>235.57</course>
  <speed>26.5</speed>
  <fix>3d</fix>
</trkpt>
<trkpt lat="-27.2732566" lon="151.2929705">
  <ele>525.39</ele>
  <time>2026-09-01T20:01:22Z</time>
  <course>235.37</course>
  <speed>26.371501663727837</speed>
  <fix>3d</fix>
</trkpt>
<trkpt lat="-27.2732155" lon="151.2930376">
  <ele>526.01</ele>
  <time>2026-09-01T20:01:22Z</time>
  <course>235.57</course>
  <speed>26.5</speed>
  <fix>3d</fix>
</trkpt>
<trkpt lat="-27.2732701" lon="151.2929486">
  <ele>525.21</ele>
  <time>2026-09-01T20:01:22Z</time>
  <course>235.32</course>
  <speed>26.319004540445675</speed>
  <fix>3d</fix>
</trkpt>
<trkpt lat="-27.2732425" lon="151.2929935">
  <ele>525.59</ele>
  <time>2026-09-01T20:01:22Z</time>
  <course>235.41</course>
  <speed>26.42</speed>
  <fix>3d</fix>
</trkpt>
<trkpt lat="-27.2732835" lon="151.2929268">
  <ele>525.03</ele>
  <time>2026-09-01T20:01:22Z</time>
  <course>235.25</course>
  <speed>26.21402677956975</speed>
  <fix>3d</fix>
</trkpt>
<trkpt lat="-27.2732425" lon="151.2929935">
  <ele>525.59</ele>
  <time>2026-09-01T20:01:22Z</time>
  <course>235.41</course>
  <speed>26.42</speed>
  <fix>3d</fix>
</trkpt>
<trkpt lat="-27.2732969" lon="151.292905">
  <ele>524.85</ele>
  <time>2026-09-01T20:01:22Z</time>
  <course>235.19</course>
  <speed>26.062313788303598</speed>
  <fix>3d</fix>
</trkpt>
<trkpt lat="-27.2732695" lon="151.2929495">
  <ele>525.21</ele>
  <time>2026-09-01T20:01:22Z</time>
  <course>235.29</course>
  <speed>26.3</speed>
  <fix>3d</fix>
</trkpt>
<trkpt lat="-27.2733103" lon="151.2928835">
  <ele>524.68</ele>
  <time>2026-09-01T20:01:22Z</time>
  <course>235.14</course>
  <speed>25.860705713495136</speed>
  <fix>3d</fix>
</trkpt>
<trkpt lat="-27.2732695" lon="151.2929495">
  <ele>525.21</ele>
  <time>2026-09-01T20:01:22Z</time>
  <course>235.29</course>
  <speed>26.3</speed>
  <fix>3d</fix>
</trkpt>
<trkpt lat="-27.2733235" lon="151.2928623">
  <ele>524.54</ele>
  <time>2026-09-01T20:01:22Z</time>
  <course>235.08</course>
  <speed>25.590382959229043</speed>
  <fix>3d</fix>
</trkpt>
<trkpt lat="-27.2732963" lon="151.292906">
  <ele>524.86</ele>
  <time>2026-09-01T20:01:22Z</time>
  <course>235.15</course>
  <speed>26.05</speed>
  <fix>3d</fix>
</trkpt>
<trkpt lat="-27.2733367" lon="151.2928413">
  <ele>524.45</ele>
  <time>2026-09-01T20:01:22Z</time>
  <course>235.01</course>
  <speed>25.27266111829144</speed>
  <fix>3d</fix>
</trkpt>
<trkpt lat="-27.2732963" lon="151.292906">
  <ele>524.86</ele>
  <time>2026-09-01T20:01:22Z</time>
  <course>235.15</course>
  <speed>26.05</speed>
  <fix>3d</fix>
</trkpt>
<trkpt lat="-27.2733497" lon="151.2928206">
  <ele>524.39</ele>
  <time>2026-09-01T20:01:22Z</time>
  <course>234.92</course>
  <speed>24.932950086181137</speed>
  <fix>3d</fix>
</trkpt>
<trkpt lat="-27.2733228" lon="151.2928633">
  <ele>524.57</ele>
  <time>2026-09-01T20:01:22Z</time>
  <course>234.92</course>
  <speed>25.58</speed>
  <fix>3d</fix>
</trkpt>
<trkpt lat="-27.2733626" lon="151.2928001">
  <ele>524.37</ele>
  <time>2026-09-01T20:01:22Z</time>
  <course>234.82</course>
  <speed>24.581769667784297</speed>
  <fix>3d</fix>
</trkpt>
<trkpt lat="-27.2733228" lon="151.2928633">
  <ele>524.57</ele>
  <time>2026-09-01T20:01:22Z</time>
  <course>234.92</course>
  <speed>25.58</speed>
  <fix>3d</fix>
</trkpt>
<trkpt lat="-27.2733753" lon="151.29278">
  <ele>524.38</ele>
  <time>2026-09-01T20:01:22Z</time>
  <course>234.74</course>
  <speed>24.22484881273772</speed>
  <fix>3d</fix>
</trkpt>
<trkpt lat="-27.273349" lon="151.2928215">
  <ele>524.41</ele>
  <time>2026-09-01T20:01:22Z</time>
  <course>234.68</course>
  <speed>24.94</speed>
  <fix>3d</fix>
</trkpt>
<trkpt lat="-27.2733879" lon="151.29276">
  <ele>524.43</ele>
  <time>2026-09-01T20:01:22Z</time>
  <course>234.66</course>
  <speed>23.85634087616959</speed>
  <fix>3d</fix>
</trkpt>
<trkpt lat="-27.273349" lon="151.2928215">
  <ele>524.41</ele>
  <time>2026-09-01T20:01:22Z</time>
  <course>234.68</course>
  <speed>24.94</speed>
  <fix>3d</fix>
</trkpt>
<trkpt lat="-27.2734003" lon="151.2927407">
  <ele>524.49</ele>
  <time>2026-09-01T20:01:22Z</time>
  <course>234.59</course>
  <speed>23.49597837928866</speed>
  <fix>3d</fix>
</trkpt>
<trkpt lat="-27.2733746" lon="151.292781">
  <ele>524.39</ele>
  <time>2026-09-01T20:01:22Z</time>
  <course>234.51</course>
  <speed>24.24</speed>
  <fix>3d</fix>
</trkpt>
<trkpt lat="-27.2734125" lon="151.2927215">
  <ele>524.57</ele>
  <time>2026-09-01T20:01:22Z</time>
  <course>234.53</course>
  <speed>23.137934220668882</speed>
  <fix>3d</fix>
</trkpt>
<trkpt lat="-27.2733746" lon="151.292781">
  <ele>524.39</ele>
  <time>2026-09-01T20:01:22Z</time>
  <course>234.51</course>
  <speed>24.24</speed>
  <fix>3d</fix>
</trkpt>
<trkpt lat="-27.2734245" lon="151.2927027">
  <ele>524.66</ele>
  <time>2026-09-01T20:01:22Z</time>
  <course>234.48</course>
  <speed>22.785708240035024</speed>
  <fix>3d</fix>
</trkpt>
<trkpt lat="-27.2733996" lon="151.2927417">
  <ele>524.49</ele>
  <time>2026-09-01T20:01:22Z</time>
  <course>234.43</course>
  <speed>23.51</speed>
  <fix>3d</fix>
</trkpt>
<trkpt lat="-27.2734363" lon="151.2926841">
  <ele>524.74</ele>
  <time>2026-09-01T20:01:22Z</time>
  <course>234.45</course>
  <speed>22.44974832821072</speed>
  <fix>3d</fix>
</trkpt>
<trkpt lat="-27.2733996" lon="151.2927417">
  <ele>524.49</ele>
  <time>2026-09-01T20:01:22Z</time>
  <course>234.43</course>
  <speed>23.51</speed>
  <fix>3d</fix>
</trkpt>
<trkpt lat="-27.273448" lon="151.2926656">
  <ele>524.82</ele>
  <time>2026-09-01T20:01:22Z</time>
  <course>234.43</course>
  <speed>22.127740508239878</speed>
  <fix>3d</fix>
</trkpt>
<trkpt lat="-27.2734238" lon="151.2927037">
  <ele>524.65</ele>
  <time>2026-09-01T20:01:22Z</time>
  <course>234.41</course>
  <speed>22.81</speed>
  <fix>3d</fix>
</trkpt>
<trkpt lat="-27.2734595" lon="151.2926477">
  <ele>524.89</ele>
  <time>2026-09-01T20:01:22Z</time>
  <course>234.41</course>
  <speed>21.819683774060522</speed>
  <fix>3d</fix>
</trkpt>
<trkpt lat="-27.2734238" lon="151.2927037">
  <ele>524.65</ele>
  <time>2026-09-01T20:01:22Z</time>
  <course>234.41</course>
  <speed>22.81</speed>
  <fix>3d</fix>
</trkpt>
<trkpt lat="-27.2734708" lon="151.2926298">
  <ele>524.95</ele>
  <time>2026-09-01T20:01:22Z</time>
  <course>234.4</course>
  <speed>21.533713102946272</speed>
  <fix>3d</fix>
</trkpt>
<trkpt lat="-27.2734473" lon="151.2926668">
  <ele>524.81</ele>
  <time>2026-09-01T20:01:22Z</time>
  <course>234.42</course>
  <speed>22.16</speed>
  <fix>3d</fix>
</trkpt>
<trkpt lat="-27.2734819" lon="151.2926123">
  <ele>524.99</ele>
  <time>2026-09-01T20:01:22Z</time>
  <course>234.39</course>
  <speed>21.253557349300376</speed>
  <fix>3d</fix>
</trkpt>
<trkpt lat="-27.2734473" lon="151.2926668">
  <ele>524.81</ele>
  <time>2026-09-01T20:01:22Z</time>
  <course>234.42</course>
  <speed>22.16</speed>
  <fix>3d</fix>
</trkpt>
<trkpt lat="-27.273493" lon="151.2925948">
  <ele>525.01</ele>
  <time>2026-09-01T20:01:22Z</time>
  <course>234.39</course>
  <speed>20.98153712195558</speed>
  <fix>3d</fix>
</trkpt>
<trkpt lat="-27.2734701" lon="151.2926309">
  <ele>524.94</ele>
  <time>2026-09-01T20:01:22Z</time>
  <course>234.43</course>
  <speed>21.55</speed>
  <fix>3d</fix>
</trkpt>
<trkpt lat="-27.2735039" lon="151.2925778">
  <ele>525.01</ele>
  <time>2026-09-01T20:01:22Z</time>
  <course>234.39</course>
  <speed>20.729283634510868</speed>
  <fix>3d</fix>
</trkpt>
<trkpt lat="-27.2734701" lon="151.2926309">
  <ele>524.94</ele>
  <time>2026-09-01T20:01:22Z</time>
  <course>234.43</course>
  <speed>21.55</speed>
  <fix>3d</fix>
</trkpt>
<trkpt lat="-27.2735146" lon="151.2925608">
  <ele>525.0</ele>
  <time>2026-09-01T20:01:22Z</time>
  <course>234.4</course>
  <speed>20.49098582303936</speed>
  <fix>3d</fix>
</trkpt>
<trkpt lat="-27.2734924" lon="151.2925958">
  <ele>525.0</ele>
  <time>2026-09-01T20:01:22Z</time>
  <course>234.43</course>
  <speed>21.01</speed>
  <fix>3d</fix>
</trkpt>
<trkpt lat="-27.2735253" lon="151.292544">
  <ele>524.96</ele>
  <time>2026-09-01T20:01:22Z</time>
  <course>234.4</course>
  <speed>20.260821799719775</speed>
  <fix>3d</fix>
</trkpt>
<trkpt lat="-27.2734924" lon="151.2925958">
  <ele>525.0</ele>
  <time>2026-09-01T20:01:22Z</time>
  <course>234.43</course>
  <speed>21.01</speed>
  <fix>3d</fix>
</trkpt>
<trkpt lat="-27.2735359" lon="151.2925276">
  <ele>524.91</ele>
  <time>2026-09-01T20:01:22Z</time>
  <course>234.4</course>
  <speed>20.036486717985266</speed>
  <fix>3d</fix>
</trkpt>
<trkpt lat="-27.2735141" lon="151.2925616">
  <ele>524.99</ele>
  <time>2026-09-01T20:01:22Z</time>
  <course>234.39</course>
  <speed>20.51</speed>
  <fix>3d</fix>
</trkpt>
<trkpt lat="-27.2735463" lon="151.2925112">
  <ele>524.86</ele>
  <time>2026-09-01T20:01:22Z</time>
  <course>234.39</course>
  <speed>19.83423807460221</speed>
  <fix>3d</fix>
</trkpt>
<trkpt lat="-27.2735141" lon="151.2925616">
  <ele>524.99</ele>
  <time>2026-09-01T20:01:22Z</time>
  <course>234.39</course>
  <speed>20.51</speed>
  <fix>3d</fix>
</trkpt>
<trkpt lat="-27.2735566" lon="151.292495">
  <ele>524.78</ele>
  <time>2026-09-01T20:01:22Z</time>
  <course>234.37</course>
  <speed>19.631994295027695</speed>
  <fix>3d</fix>
</trkpt>
<trkpt lat="-27.2735354" lon="151.2925283">
  <ele>524.91</ele>
  <time>2026-09-01T20:01:22Z</time>
  <course>234.34</course>
  <speed>20.06</speed>
  <fix>3d</fix>
</trkpt>
<trkpt lat="-27.2735669" lon="151.2924789">
  <ele>524.68</ele>
  <time>2026-09-01T20:01:22Z</time>
  <course>234.34</course>
  <speed>19.44371363706018</speed>
  <fix>3d</fix>
</trkpt>
<trkpt lat="-27.2735354" lon="151.2925283">
  <ele>524.91</ele>
  <time>2026-09-01T20:01:22Z</time>
  <course>234.34</course>
  <speed>20.06</speed>
  <fix>3d</fix>
</trkpt>
<trkpt lat="-27.2735771" lon="151.2924631">
  <ele>524.58</ele>
  <time>2026-09-01T20:01:22Z</time>
  <course>234.31</course>
  <speed>19.27751280637624</speed>
  <fix>3d</fix>
</trkpt>
<trkpt lat="-27.2735562" lon="151.2924957">
  <ele>524.77</ele>
  <time>2026-09-01T20:01:22Z</time>
  <course>234.28</course>
  <speed>19.65</speed>
  <fix>3d</fix>
</trkpt>
<trkpt lat="-27.2735871" lon="151.2924473">
  <ele>524.45</ele>
  <time>2026-09-01T20:01:22Z</time>
  <course>234.27</course>
  <speed>19.10320653712355</speed>
  <fix>3d</fix>
</trkpt>
<trkpt lat="-27.2735562" lon="151.2924957">
  <ele>524.77</ele>
  <time>2026-09-01T20:01:22Z</time>
  <course>234.28</course>
  <speed>19.65</speed>
  <fix>3d</fix>
</trkpt>
<trkpt lat="-27.2735971" lon="151.2924318">
  <ele>524.32</ele>
  <time>2026-09-01T20:01:22Z</time>
  <course>234.24</course>
  <speed>18.945123383076712</speed>
  <fix>3d</fix>
</trkpt>
<trkpt lat="-27.2735766" lon="151.2924638">
  <ele>524.57</ele>
  <time>2026-09-01T20:01:22Z</time>
  <course>234.22</course>
  <speed>19.28</speed>
  <fix>3d</fix>
</trkpt>
<trkpt lat="-27.2736071" lon="151.2924162">
  <ele>524.18</ele>
  <time>2026-09-01T20:01:22Z</time>
  <course>234.21</course>
  <speed>18.792897594570135</speed>
  <fix>3d</fix>
</trkpt>
<trkpt lat="-27.2735766" lon="151.2924638">
  <ele>524.57</ele>
  <time>2026-09-01T20:01:22Z</time>
  <course>234.22</course>
  <speed>19.28</speed>
  <fix>3d</fix>
</trkpt>
<trkpt lat="-27.2736169" lon="151.2924009">
  <ele>524.02</ele>
  <time>2026-09-01T20:01:22Z</time>
  <course>234.17</course>
  <speed>18.65464285372411</speed>
  <fix>3d</fix>
</trkpt>
<trkpt lat="-27.2735966" lon="151.2924325">
  <ele>524.32</ele>
  <time>2026-09-01T20:01:22Z</time>
  <course>234.16</course>
  <speed>18.96</speed>
  <fix>3d</fix>
</trkpt>
<trkpt lat="-27.2736267" lon="151.2923858">
  <ele>523.86</ele>
  <time>2026-09-01T20:01:22Z</time>
  <course>234.14</course>
  <speed>18.52449459499503</speed>
  <fix>3d</fix>
</trkpt>
<trkpt lat="-27.2735966" lon="151.2924325">
  <ele>524.32</ele>
  <time>2026-09-01T20:01:22Z</time>
  <course>234.16</course>
  <speed>18.96</speed>
  <fix>3d</fix>
</trkpt>
<trkpt lat="-27.2736365" lon="151.2923707">
  <ele>523.69</ele>
  <time>2026-09-01T20:01:22Z</time>
  <course>234.1</course>
  <speed>18.394349675919504</speed>
  <fix>3d</fix>
</trkpt>
<trkpt lat="-27.2736164" lon="151.2924017">
  <ele>524.02</ele>
  <time>2026-09-01T20:01:22Z</time>
  <course>234.1</course>
  <speed>18.67</speed>
  <fix>3d</fix>
</trkpt>
<trkpt lat="-27.273646" lon="151.2923557">
  <ele>523.52</ele>
  <time>2026-09-01T20:01:22Z</time>
  <course>234.07</course>
  <speed>18.27817551070128</speed>
  <fix>3d</fix>
</trkpt>
<trkpt lat="-27.2736164" lon="151.2924017">
  <ele>524.02</ele>
  <time>2026-09-01T20:01:22Z</time>
  <course>234.1</course>
  <speed>18.67</speed>
  <fix>3d</fix>
</trkpt>
<trkpt lat="-27.2736558" lon="151.2923408">
  <ele>523.34</ele>
  <time>2026-09-01T20:01:22Z</time>
  <course>234.04</course>
  <speed>18.162007047680607</speed>
  <fix>3d</fix>
</trkpt>
<trkpt lat="-27.273636" lon="151.2923713">
  <ele>523.7</ele>
  <time>2026-09-01T20:01:22Z</time>
  <course>234.03</course>
  <speed>18.41</speed>
  <fix>3d</fix>
</trkpt>
<trkpt lat="-27.2736653" lon="151.292326">
  <ele>523.16</ele>
  <time>2026-09-01T20:01:22Z</time>
  <course>234.01</course>
  <speed>18.0458443969796</speed>
  <fix>3d</fix>
</trkpt>
<trkpt lat="-27.273636" lon="151.2923713">
  <ele>523.7</ele>
  <time>2026-09-01T20:01:22Z</time>
  <course>234.03</course>
  <speed>18.41</speed>
  <fix>3d</fix>
</trkpt>
<trkpt lat="-27.2736749" lon="151.2923112">
  <ele>522.97</ele>
  <time>2026-09-01T20:01:22Z</time>
  <course>233.97</course>
  <speed>17.943659047139747</speed>
  <fix>3d</fix>
</trkpt>
<trkpt lat="-27.2736553" lon="151.2923414">
  <ele>523.34</ele>
  <time>2026-09-01T20:01:22Z</time>
  <course>233.97</course>
  <speed>18.17</speed>
  <fix>3d</fix>
</trkpt>
<trkpt lat="-27.2736844" lon="151.2922965">
  <ele>522.78</ele>
  <time>2026-09-01T20:01:22Z</time>
  <course>233.94</course>
  <speed>17.841482561715548</speed>
  <fix>3d</fix>
</trkpt>
<trkpt lat="-27.2736553" lon="151.2923414">
  <ele>523.34</ele>
  <time>2026-09-01T20:01:22Z</time>
  <course>233.97</course>
  <speed>18.17</speed>
  <fix>3d</fix>
</trkpt>
<trkpt lat="-27.2736938" lon="151.292282">
  <ele>522.59</ele>
  <time>2026-09-01T20:01:22Z</time>
  <course>233.91</course>
  <speed>17.747388540289524</speed>
  <fix>3d</fix>
</trkpt>
<trkpt lat="-27.2736744" lon="151.2923119">
  <ele>522.97</ele>
  <time>2026-09-01T20:01:22Z</time>
  <course>233.91</course>
  <speed>17.95</speed>
  <fix>3d</fix>
</trkpt>
<trkpt lat="-27.2737032" lon="151.2922676">
  <ele>522.4</ele>
  <time>2026-09-01T20:01:22Z</time>
  <course>233.88</course>
  <speed>17.653297142460385</speed>
  <fix>3d</fix>
</trkpt>
<trkpt lat="-27.2736744" lon="151.2923119">
  <ele>522.97</ele>
  <time>2026-09-01T20:01:22Z</time>
  <course>233.91</course>
  <speed>17.95</speed>
  <fix>3d</fix>
</trkpt>
<trkpt lat="-27.2737125" lon="151.2922532">
  <ele>522.2</ele>
  <time>2026-09-01T20:01:22Z</time>
  <course>233.85</course>
  <speed>17.559208410403926</speed>
  <fix>3d</fix>
</trkpt>
<trkpt lat="-27.2736933" lon="151.2922828">
  <ele>522.59</ele>
  <time>2026-09-01T20:01:22Z</time>
  <course>233.85</course>
  <speed>17.75</speed>
  <fix>3d</fix>
</trkpt>
<trkpt lat="-27.2737217" lon="151.292239">
  <ele>522.01</ele>
  <time>2026-09-01T20:01:22Z</time>
  <course>233.82</course>
  <speed>17.46512238720359</speed>
  <fix>3d</fix>
</trkpt>
<trkpt lat="-27.2736933" lon="151.2922828">
  <ele>522.59</ele>
  <time>2026-09-01T20:01:22Z</time>
  <course>233.85</course>
  <speed>17.75</speed>
  <fix>3d</fix>
</trkpt>
<trkpt lat="-27.2737311" lon="151.2922247">
  <ele>521.81</ele>
  <time>2026-09-01T20:01:22Z</time>
  <course>233.79</course>
  <speed>17.385016537236886</speed>
  <fix>3d</fix>
</trkpt>
<trkpt lat="-27.273712" lon="151.2922539">
  <ele>522.2</ele>
  <time>2026-09-01T20:01:22Z</time>
  <course>233.79</course>
  <speed>17.56</speed>
  <fix>3d</fix>
</trkpt>
<trkpt lat="-27.2737403" lon="151.2922106">
  <ele>521.61</ele>
  <time>2026-09-01T20:01:22Z</time>
  <course>233.76</course>
  <speed>17.30491548664714</speed>
  <fix>3d</fix>
</trkpt>
<trkpt lat="-27.273712" lon="151.2922539">
  <ele>522.2</ele>
  <time>2026-09-01T20:01:22Z</time>
  <course>233.79</course>
  <speed>17.56</speed>
  <fix>3d</fix>
</trkpt>
<trkpt lat="-27.2737495" lon="151.2921965">
  <ele>521.41</ele>
  <time>2026-09-01T20:01:22Z</time>
  <course>233.74</course>
  <speed>17.224819302390372</speed>
  <fix>3d</fix>
</trkpt>
<trkpt lat="-27.2737306" lon="151.2922253">
  <ele>521.81</ele>
  <time>2026-09-01T20:01:22Z</time>
  <course>233.73</course>
  <speed>17.39</speed>
  <fix>3d</fix>
</trkpt>
<trkpt lat="-27.2737586" lon="151.2921826">
  <ele>521.21</ele>
  <time>2026-09-01T20:01:22Z</time>
  <course>233.71</course>
  <speed>17.14472805266972</speed>
  <fix>3d</fix>
</trkpt>
<trkpt lat="-27.2737306" lon="151.2922253">
  <ele>521.81</ele>
  <time>2026-09-01T20:01:22Z</time>
  <course>233.73</course>
  <speed>17.39</speed>
  <fix>3d</fix>
</trkpt>
<trkpt lat="-27.2737677" lon="151.2921686">
  <ele>521.01</ele>
  <time>2026-09-01T20:01:22Z</time>
  <course>233.68</course>
  <speed>17.06464180696448</speed>
  <fix>3d</fix>
</trkpt>
<trkpt lat="-27.273749" lon="151.2921971">
  <ele>521.41</ele>
  <time>2026-09-01T20:01:22Z</time>
  <course>233.68</course>
  <speed>17.23</speed>
  <fix>3d</fix>
</trkpt>
<trkpt lat="-27.2737768" lon="151.2921548">
  <ele>520.79</ele>
  <time>2026-09-01T20:01:22Z</time>
  <course>233.66</course>
  <speed>16.992610158536564</speed>
  <fix>3d</fix>
</trkpt>
<trkpt lat="-27.273749" lon="151.2921971">
  <ele>521.41</ele>
  <time>2026-09-01T20:01:22Z</time>
  <course>233.68</course>
  <speed>17.23</speed>
  <fix>3d</fix>
</trkpt>
<trkpt lat="-27.2737858" lon="151.2921409">
  <ele>520.6</ele>
  <time>2026-09-01T20:01:22Z</time>
  <course>233.63</course>
  <speed>16.92057918630447</speed>
  <fix>3d</fix>
</trkpt>
<trkpt lat="-27.2737673" lon="151.2921692">
  <ele>521.01</ele>
  <time>2026-09-01T20:01:22Z</time>
  <course>233.63</course>
  <speed>17.07</speed>
  <fix>3d</fix>
</trkpt>
<trkpt lat="-27.2737948" lon="151.2921273">
  <ele>520.4</ele>
  <time>2026-09-01T20:01:22Z</time>
  <course>233.61</course>
  <speed>16.854486049713888</speed>
  <fix>3d</fix>
</trkpt>
<trkpt lat="-27.2737673" lon="151.2921692">
  <ele>521.01</ele>
  <time>2026-09-01T20:01:22Z</time>
  <course>233.63</course>
  <speed>17.07</speed>
  <fix>3d</fix>
</trkpt>
<trkpt lat="-27.2738038" lon="151.2921136">
  <ele>520.19</ele>
  <time>2026-09-01T20:01:22Z</time>
  <course>233.59</course>
  <speed>16.782458103627132</speed>
  <fix>3d</fix>
</trkpt>
<trkpt lat="-27.2737854" lon="151.2921415">
  <ele>520.6</ele>
  <time>2026-09-01T20:01:22Z</time>
  <course>233.58</course>
  <speed>16.93</speed>
  <fix>3d</fix>
</trkpt>
<trkpt lat="-27.2738128" lon="151.2921">
  <ele>519.99</ele>
  <time>2026-09-01T20:01:22Z</time>
  <course>233.56</course>
  <speed>16.71637520516933</speed>
  <fix>3d</fix>
</trkpt>
<trkpt lat="-27.2737854" lon="151.2921415">
  <ele>520.6</ele>
  <time>2026-09-01T20:01:22Z</time>
  <course>233.58</course>
  <speed>16.93</speed>
  <fix>3d</fix>
</trkpt>
<trkpt lat="-27.2719984" lon="151.2961647">
  <ele>540.33</ele>
  <time>2026-09-01T20:01:22Z</time>
  <course>251.2</course>
  <speed>11.784226745951555</speed>
  <fix>3d</fix>
</trkpt>
<trkpt lat="-27.2738034" lon="151.2921141">
  <ele>520.2</ele>
  <time>2026-09-01T20:01:22Z</time>
  <course>233.54</course>
  <speed>16.79</speed>
  <fix>3d</fix>
</trkpt>
<trkpt lat="-27.272001" lon="151.2961537">
  <ele>536.48</ele>
  <time>2026-09-01T20:01:22Z</time>
  <course>249.85</course>
  <speed>11.480853626799707</speed>
  <fix>3d</fix>
</trkpt>
<trkpt lat="-27.2738034" lon="151.2921141">
  <ele>520.2</ele>
  <time>2026-09-01T20:01:22Z</time>
  <course>233.54</course>
  <speed>16.79</speed>
  <fix>3d</fix>
</trkpt>
<trkpt lat="-27.2720047" lon="151.2961422">
  <ele>532.64</ele>
  <time>2026-09-01T20:01:22Z</time>
  <course>234.94</course>
  <speed>12.848727563459349</speed>
  <fix>3d</fix>
</trkpt>
<trkpt lat="-27.2729066" lon="151.2941273">
  <ele>528.32</ele>
  <time>2026-09-01T20:01:22Z</time>
  <course>242.08</course>
  <speed>13.85</speed>
  <fix>3d</fix>
</trkpt>
<trkpt lat="-27.2720116" lon="151.296131">
  <ele>528.86</ele>
  <time>2026-09-01T20:01:22Z</time>
  <course>214.77</course>
  <speed>14.095814981759656</speed>
  <fix>3d</fix>
</trkpt>
<trkpt lat="-27.2729066" lon="151.2941273">
  <ele>528.32</ele>
  <time>2026-09-01T20:01:22Z</time>
  <course>242.08</course>
  <speed>13.85</speed>
  <fix>3d</fix>
</trkpt>
<trkpt lat="-27.2720214" lon="151.2961215">
  <ele>525.11</ele>
  <time>2026-09-01T20:01:22Z</time>
  <course>201.02</course>
  <speed>14.502155012273176</speed>
  <fix>3d</fix>
</trkpt>
<trkpt lat="-27.272006" lon="151.2961427">
  <ele>532.82</ele>
  <time>2026-09-01T20:01:22Z</time>
  <course>239.83</course>
  <speed>12.41</speed>
  <fix>3d</fix>
</trkpt>
<trkpt lat="-27.2720322" lon="151.2961128">
  <ele>521.37</ele>
  <time>2026-09-01T20:01:22Z</time>
  <course>208.53</course>
  <speed>15.731042559220288</speed>
  <fix>3d</fix>
</trkpt>
<trkpt lat="-27.272006" lon="151.2961427">
  <ele>532.82</ele>
  <time>2026-09-01T20:01:22Z</time>
  <course>239.83</course>
  <speed>12.41</speed>
  <fix>3d</fix>
</trkpt>
<trkpt lat="-27.2720431" lon="151.2960982">
  <ele>517.85</ele>
  <time>2026-09-01T20:01:22Z</time>
  <course>226.04</course>
  <speed>22.723331621925514</speed>
  <fix>3d</fix>
</trkpt>
<trkpt lat="-27.2720215" lon="151.2961222">
  <ele>525.27</ele>
  <time>2026-09-01T20:01:22Z</time>
  <course>223.44</course>
  <speed>14.78</speed>
  <fix>3d</fix>
</trkpt>
<trkpt lat="-27.2720551" lon="151.2960748">
  <ele>514.97</ele>
  <time>2026-09-01T20:01:22Z</time>
  <course>234.03</course>
  <speed>30.435958995898254</speed>
  <fix>3d</fix>
</trkpt>
<trkpt lat="-27.2720215" lon="151.2961222">
  <ele>525.27</ele>
  <time>2026-09-01T20:01:22Z</time>
  <course>223.44</course>
  <speed>14.78</speed>
  <fix>3d</fix>
</trkpt>
<trkpt lat="-27.2720692" lon="151.2960454">
  <ele>512.99</ele>
  <time>2026-09-01T20:01:22Z</time>
  <course>235.64</course>
  <speed>35.303615962107905</speed>
  <fix>3d</fix>
</trkpt>
<trkpt lat="-27.2720431" lon="151.2960946">
  <ele>518.3</ele>
  <time>2026-09-01T20:01:22Z</time>
  <course>234.01</course>
  <speed>22.49</speed>
  <fix>3d</fix>
</trkpt>
<trkpt lat="-27.2720859" lon="151.2960138">
  <ele>511.97</ele>
  <time>2026-09-01T20:01:22Z</time>
  <course>231.47</course>
  <speed>37.0734729962004</speed>
  <fix>3d</fix>
</trkpt>
<trkpt lat="-27.2720431" lon="151.2960946">
  <ele>518.3</ele>
  <time>2026-09-01T20:01:22Z</time>
  <course>234.01</course>
  <speed>22.49</speed>
  <fix>3d</fix>
</trkpt>
<trkpt lat="-27.2721055" lon="151.2959836">
  <ele>511.76</ele>
  <time>2026-09-01T20:01:22Z</time>
  <course>224.4</course>
  <speed>36.706948933410416</speed>
  <fix>3d</fix>
</trkpt>
<trkpt lat="-27.2720699" lon="151.2960454">
  <ele>513.53</ele>
  <time>2026-09-01T20:01:22Z</time>
  <course>239.11</course>
  <speed>33.59</speed>
  <fix>3d</fix>
</trkpt>
<trkpt lat="-27.2721279" lon="151.2959573">
  <ele>512.16</ele>
  <time>2026-09-01T20:01:22Z</time>
  <course>216.99</course>
  <speed>35.40344757223511</speed>
  <fix>3d</fix>
</trkpt>
<trkpt lat="-27.2720699" lon="151.2960454">
  <ele>513.53</ele>
  <time>2026-09-01T20:01:22Z</time>
  <course>239.11</course>
  <speed>33.59</speed>
  <fix>3d</fix>
</trkpt>
<trkpt lat="-27.2721525" lon="151.2959354">
  <ele>512.95</ele>
  <time>2026-09-01T20:01:22Z</time>
  <course>210.31</course>
  <speed>33.92332825652577</speed>
  <fix>3d</fix>
</trkpt>
<trkpt lat="-27.2721062" lon="151.2959864">
  <ele>512.06</ele>
  <time>2026-09-01T20:01:22Z</time>
  <course>230.02</course>
  <speed>35.96</speed>
  <fix>3d</fix>
</trkpt>
<trkpt lat="-27.2721783" lon="151.2959185">
  <ele>513.96</ele>
  <time>2026-09-01T20:01:22Z</time>
  <course>205.01</course>
  <speed>32.62485249008798</speed>
  <fix>3d</fix>
</trkpt>
<trkpt lat="-27.2721062" lon="151.2959864">
  <ele>512.06</ele>
  <time>2026-09-01T20:01:22Z</time>
  <course>230.02</course>
  <speed>35.96</speed>
  <fix>3d</fix>
</trkpt>
<trkpt lat="-27.2722046" lon="151.2959053">
  <ele>515.1</ele>
  <time>2026-09-01T20:01:22Z</time>
  <course>201.29</course>
  <speed>31.520953348526756</speed>
  <fix>3d</fix>
</trkpt>
<trkpt lat="-27.2721521" lon="151.2959386">
  <ele>513.02</ele>
  <time>2026-09-01T20:01:22Z</time>
  <course>215.16</course>
  <speed>33.76</speed>
  <fix>3d</fix>
</trkpt>
<trkpt lat="-27.2722309" lon="151.295895">
  <ele>516.31</ele>
  <time>2026-09-01T20:01:22Z</time>
  <course>199.24</course>
  <speed>30.60902481295345</speed>
  <fix>3d</fix>
</trkpt>
<trkpt lat="-27.2721521" lon="151.2959386">
  <ele>513.02</ele>
  <time>2026-09-01T20:01:22Z</time>
  <course>215.16</course>
  <speed>33.76</speed>
  <fix>3d</fix>
</trkpt>
<trkpt lat="-27.272257" lon="151.2958865">
  <ele>517.54</ele>
  <time>2026-09-01T20:01:22Z</time>
  <course>198.52</course>
  <speed>29.881398896303367</speed>
  <fix>3d</fix>
</trkpt>
<trkpt lat="-27.2722034" lon="151.2959073">
  <ele>515.08</ele>
  <time>2026-09-01T20:01:22Z</time>
  <course>202.54</course>
  <speed>31.55</speed>
  <fix>3d</fix>
</trkpt>
<trkpt lat="-27.2722827" lon="151.2958789">
  <ele>518.78</ele>
  <time>2026-09-01T20:01:22Z</time>
  <course>198.53</course>
  <speed>29.315309993244146</speed>
  <fix>3d</fix>
</trkpt>
<trkpt lat="-27.2722034" lon="151.2959073">
  <ele>515.08</ele>
  <time>2026-09-01T20:01:22Z</time>
  <course>202.54</course>
  <speed>31.55</speed>
  <fix>3d</fix>
</trkpt>
<trkpt lat="-27.2723081" lon="151.2958718">
  <ele>519.97</ele>
  <time>2026-09-01T20:01:22Z</time>
  <course>198.65</course>
  <speed>28.927303711199908</speed>
  <fix>3d</fix>
</trkpt>
<trkpt lat="-27.2722557" lon="151.2958873">
  <ele>517.49</ele>
  <time>2026-09-01T20:01:22Z</time>
  <course>195.91</course>
  <speed>29.98</speed>
  <fix>3d</fix>
</trkpt>
<trkpt lat="-27.2723331" lon="151.2958649">
  <ele>521.08</ele>
  <time>2026-09-01T20:01:22Z</time>
  <course>198.54</course>
  <speed>28.675010026153437</speed>
  <fix>3d</fix>
</trkpt>
<trkpt lat="-27.2722557" lon="151.2958873">
  <ele>517.49</ele>
  <time>2026-09-01T20:01:22Z</time>
  <course>195.91</course>
  <speed>29.98</speed>
  <fix>3d</fix>
</trkpt>
<trkpt lat="-27.2723579" lon="151.2958577">
  <ele>522.1</ele>
  <time>2026-09-01T20:01:22Z</time>
  <course>198.06</course>
  <speed>28.5301419554828</speed>
  <fix>3d</fix>
</trkpt>
<trkpt lat="-27.2723068" lon="151.2958722">
  <ele>519.88</ele>
  <time>2026-09-01T20:01:22Z</time>
  <course>194.12</course>
  <speed>29.01</speed>
  <fix>3d</fix>
</trkpt>
<trkpt lat="-27.2723828" lon="151.2958505">
  <ele>523.01</ele>
  <time>2026-09-01T20:01:22Z</time>
  <course>197.29</course>
  <speed>28.434537098394973</speed>
  <fix>3d</fix>
</trkpt>
<trkpt lat="-27.2723068" lon="151.2958722">
  <ele>519.88</ele>
  <time>2026-09-01T20:01:22Z</time>
  <course>194.12</course>
  <speed>29.01</speed>
  <fix>3d</fix>
</trkpt>
<trkpt lat="-27.2724074" lon="151.295843">
  <ele>523.81</ele>
  <time>2026-09-01T20:01:22Z</time>
  <course>196.4</course>
  <speed>28.34611260825724</speed>
  <fix>3d</fix>
</trkpt>
<trkpt lat="-27.2723569" lon="151.2958579">
  <ele>522.01</ele>
  <time>2026-09-01T20:01:22Z</time>
  <course>194.4</course>
  <speed>28.56</speed>
  <fix>3d</fix>
</trkpt>
<trkpt lat="-27.272432" lon="151.2958357">
  <ele>524.48</ele>
  <time>2026-09-01T20:01:22Z</time>
  <course>195.46</course>
  <speed>28.259860226122846</speed>
  <fix>3d</fix>
</trkpt>
<trkpt lat="-27.2723569" lon="151.2958579">
  <ele>522.01</ele>
  <time>2026-09-01T20:01:22Z</time>
  <course>194.4</course>
  <speed>28.56</speed>
  <fix>3d</fix>
</trkpt>
<trkpt lat="-27.2724564" lon="151.2958282">
  <ele>525.04</ele>
  <time>2026-09-01T20:01:22Z</time>
  <course>194.72</course>
  <speed>28.146605479169242</speed>
  <fix>3d</fix>
</trkpt>
<trkpt lat="-27.2724064" lon="151.2958433">
  <ele>523.71</ele>
  <time>2026-09-01T20:01:22Z</time>
  <course>194.88</course>
  <speed>28.35</speed>
  <fix>3d</fix>
</trkpt>
<trkpt lat="-27.2724808" lon="151.2958209">
  <ele>525.51</ele>
  <time>2026-09-01T20:01:22Z</time>
  <course>194.17</course>
  <speed>28.029020675007537</speed>
  <fix>3d</fix>
</trkpt>
<trkpt lat="-27.2724064" lon="151.2958433">
  <ele>523.71</ele>
  <time>2026-09-01T20:01:22Z</time>
  <course>194.88</course>
  <speed>28.35</speed>
  <fix>3d</fix>
</trkpt>
<trkpt lat="-27.272505" lon="151.2958133">
  <ele>525.89</ele>
  <time>2026-09-01T20:01:23Z</time>
  <course>193.8</course>
  <speed>27.900281360588465</speed>
  <fix>3d</fix>
</trkpt>
<trkpt lat="-27.2724554" lon="151.2958286">
  <ele>524.97</ele>
  <time>2026-09-01T20:01:23Z</time>
  <course>195.15</course>
  <speed>28.15</speed>
  <fix>3d</fix>
</trkpt>
<trkpt lat="-27.2725291" lon="151.2958057">
  <ele>526.18</ele>
  <time>2026-09-01T20:01:23Z</time>
  <course>193.72</course>
  <speed>27.773089493248676</speed>
  <fix>3d</fix>
</trkpt>
<trkpt lat="-27.2724554" lon="151.2958286">
  <ele>524.97</ele>
  <time>2026-09-01T20:01:23Z</time>
  <course>195.15</course>
  <speed>28.15</speed>
  <fix>3d</fix>
</trkpt>
<trkpt lat="-27.272553" lon="151.295798">
  <ele>526.41</ele>
  <time>2026-09-01T20:01:23Z</time>
  <course>193.85</course>
  <speed>27.64681898519249</speed>
  <fix>3d</fix>
</trkpt>
<trkpt lat="-27.2725039" lon="151.2958136">
  <ele>525.82</ele>
  <time>2026-09-01T20:01:23Z</time>
  <course>195.5</course>
  <speed>27.91</speed>
  <fix>3d</fix>
</trkpt>
<trkpt lat="-27.2725768" lon="151.2957902">
  <ele>526.57</ele>
  <time>2026-09-01T20:01:23Z</time>
  <course>194.18</course>
  <speed>27.53943536095103</speed>
  <fix>3d</fix>
</trkpt>
<trkpt lat="-27.2725039" lon="151.2958136">
  <ele>525.82</ele>
  <time>2026-09-01T20:01:23Z</time>
  <course>195.5</course>
  <speed>27.91</speed>
  <fix>3d</fix>
</trkpt>
<trkpt lat="-27.2726004" lon="151.295782">
  <ele>526.68</ele>
  <time>2026-09-01T20:01:23Z</time>
  <course>194.78</course>
  <speed>27.4335889011992</speed>
  <fix>3d</fix>
</trkpt>
<trkpt lat="-27.2725519" lon="151.2957983">
  <ele>526.37</ele>
  <time>2026-09-01T20:01:23Z</time>
  <course>196.24</course>
  <speed>27.66</speed>
  <fix>3d</fix>
</trkpt>
<trkpt lat="-27.2726238" lon="151.2957735">
  <ele>526.75</ele>
  <time>2026-09-01T20:01:23Z</time>
  <course>195.53</course>
  <speed>27.35377487660524</speed>
  <fix>3d</fix>
</trkpt>
<trkpt lat="-27.2725519" lon="151.2957983">
  <ele>526.37</ele>
  <time>2026-09-01T20:01:23Z</time>
  <course>196.24</course>
  <speed>27.66</speed>
  <fix>3d</fix>
</trkpt>
<trkpt lat="-27.272647" lon="151.2957645">
  <ele>526.77</ele>
  <time>2026-09-01T20:01:23Z</time>
  <course>196.48</course>
  <speed>27.27137143599493</speed>
  <fix>3d</fix>
</trkpt>
<trkpt lat="-27.2725994" lon="151.2957821">
  <ele>526.66</ele>
  <time>2026-09-01T20:01:23Z</time>
  <course>197.5</course>
  <speed>27.45</speed>
  <fix>3d</fix>
</trkpt>
<trkpt lat="-27.27267" lon="151.2957553">
  <ele>526.76</ele>
  <time>2026-09-01T20:01:23Z</time>
  <course>197.58</course>
  <speed>27.205153923475606</speed>
  <fix>3d</fix>
</trkpt>
<trkpt lat="-27.2725994" lon="151.2957821">
  <ele>526.66</ele>
  <time>2026-09-01T20:01:23Z</time>
  <course>197.5</course>
  <speed>27.45</speed>
  <fix>3d</fix>
</trkpt>
<trkpt lat="-27.2726928" lon="151.2957454">
  <ele>526.72</ele>
  <time>2026-09-01T20:01:23Z</time>
  <course>198.82</course>
  <speed>27.139508101658734</speed>
  <fix>3d</fix>
</trkpt>
<trkpt lat="-27.2726461" lon="151.2957647">
  <ele>526.75</ele>
  <time>2026-09-01T20:01:23Z</time>
  <course>199.31</course>
  <speed>27.28</speed>
  <fix>3d</fix>
</trkpt>
<trkpt lat="-27.2727153" lon="151.2957351">
  <ele>526.65</ele>
  <time>2026-09-01T20:01:23Z</time>
  <course>200.12</course>
  <speed>27.0966307868709</speed>
  <fix>3d</fix>
</trkpt>
<trkpt lat="-27.2726461" lon="151.2957647">
  <ele>526.75</ele>
  <time>2026-09-01T20:01:23Z</time>
  <course>199.31</course>
  <speed>27.28</speed>
  <fix>3d</fix>
</trkpt>
<trkpt lat="-27.2727376" lon="151.2957241">
  <ele>526.57</ele>
  <time>2026-09-01T20:01:23Z</time>
  <course>201.57</course>
  <speed>27.04949537422094</speed>
  <fix>3d</fix>
</trkpt>
<trkpt lat="-27.2726919" lon="151.2957455">
  <ele>526.7</ele>
  <time>2026-09-01T20:01:23Z</time>
  <course>201.63</course>
  <speed>27.14</speed>
  <fix>3d</fix>
</trkpt>
<trkpt lat="-27.2727595" lon="151.2957124">
  <ele>526.46</ele>
  <time>2026-09-01T20:01:23Z</time>
  <course>203.07</course>
  <speed>27.018145754288913</speed>
  <fix>3d</fix>
</trkpt>
<trkpt lat="-27.2726919" lon="151.2957455">
  <ele>526.7</ele>
  <time>2026-09-01T20:01:23Z</time>
  <course>201.63</course>
  <speed>27.14</speed>
  <fix>3d</fix>
</trkpt>
<trkpt lat="-27.2727813" lon="151.2957003">
  <ele>526.33</ele>
  <time>2026-09-01T20:01:23Z</time>
  <course>204.64</course>
  <speed>26.983465307480433</speed>
  <fix>3d</fix>
</trkpt>
<trkpt lat="-27.2727367" lon="151.2957241">
  <ele>526.56</ele>
  <time>2026-09-01T20:01:23Z</time>
  <course>204.36</course>
  <speed>27.05</speed>
  <fix>3d</fix>
</trkpt>
<trkpt lat="-27.2728026" lon="151.2956874">
  <ele>526.19</ele>
  <time>2026-09-01T20:01:23Z</time>
  <course>206.14</course>
  <speed>26.959994436201203</speed>
  <fix>3d</fix>
</trkpt>
<trkpt lat="-27.2727367" lon="151.2957241">
  <ele>526.56</ele>
  <time>2026-09-01T20:01:23Z</time>
  <course>204.36</course>
  <speed>27.05</speed>
  <fix>3d</fix>
</trkpt>
<trkpt lat="-27.2728238" lon="151.2956736">
  <ele>526.04</ele>
  <time>2026-09-01T20:01:23Z</time>
  <course>207.45</course>
  <speed>26.92939286356081</speed>
  <fix>3d</fix>
</trkpt>
<trkpt lat="-27.2727804" lon="151.2957003">
  <ele>526.32</ele>
  <time>2026-09-01T20:01:23Z</time>
  <course>207.38</course>
  <speed>26.98</speed>
  <fix>3d</fix>
</trkpt>
<trkpt lat="-27.2728444" lon="151.2956596">
  <ele>525.88</ele>
  <time>2026-09-01T20:01:23Z</time>
  <course>208.51</course>
  <speed>26.893220335244347</speed>
  <fix>3d</fix>
</trkpt>
<trkpt lat="-27.2727804" lon="151.2957003">
  <ele>526.32</ele>
  <time>2026-09-01T20:01:23Z</time>
  <course>207.38</course>
  <speed>26.98</speed>
  <fix>3d</fix>
</trkpt>
<trkpt lat="-27.2728648" lon="151.2956449">
  <ele>525.72</ele>
  <time>2026-09-01T20:01:23Z</time>
  <course>209.4</course>
  <speed>26.862542694242478</speed>
  <fix>3d</fix>
</trkpt>
<trkpt lat="-27.2728227" lon="151.295674">
  <ele>526.04</ele>
  <time>2026-09-01T20:01:23Z</time>
  <course>210.42</course>
  <speed>26.92</speed>
  <fix>3d</fix>
</trkpt>
<trkpt lat="-27.2728848" lon="151.2956299">
  <ele>525.54</ele>
  <time>2026-09-01T20:01:23Z</time>
  <course>210.23</course>
  <speed>26.820561142526454</speed>
  <fix>3d</fix>
</trkpt>
<trkpt lat="-27.2728227" lon="151.295674">
  <ele>526.04</ele>
  <time>2026-09-01T20:01:23Z</time>
  <course>210.42</course>
  <speed>26.92</speed>
  <fix>3d</fix>
</trkpt>
<trkpt lat="-27.2729047" lon="151.2956146">
  <ele>525.37</ele>
  <time>2026-09-01T20:01:23Z</time>
  <course>211.0</course>
  <speed>26.77906084985058</speed>
  <fix>3d</fix>
</trkpt>
<trkpt lat="-27.2728637" lon="151.2956453">
  <ele>525.72</ele>
  <time>2026-09-01T20:01:23Z</time>
  <course>213.0</course>
  <speed>26.86</speed>
  <fix>3d</fix>
</trkpt>
<trkpt lat="-27.2729243" lon="151.2955989">
  <ele>525.19</ele>
  <time>2026-09-01T20:01:23Z</time>
  <course>211.76</course>
  <speed>26.720692356299452</speed>
  <fix>3d</fix>
</trkpt>
<trkpt lat="-27.2728637" lon="151.2956453">
  <ele>525.72</ele>
  <time>2026-09-01T20:01:23Z</time>
  <course>213.0</course>
  <speed>26.86</speed>
  <fix>3d</fix>
</trkpt>
<trkpt lat="-27.2729437" lon="151.2955831">
  <ele>525.0</ele>
  <time>2026-09-01T20:01:23Z</time>
  <course>212.48</course>
  <speed>26.67434910171193</speed>
  <fix>3d</fix>
</trkpt>
<trkpt lat="-27.2729037" lon="151.2956151">
  <ele>525.37</ele>
  <time>2026-09-01T20:01:23Z</time>
  <course>214.83</course>
  <speed>26.77</speed>
  <fix>3d</fix>
</trkpt>
<trkpt lat="-27.272963" lon="151.2955672">
  <ele>524.81</ele>
  <time>2026-09-01T20:01:23Z</time>
  <course>213.19</course>
  <speed>26.616493007156297</speed>
  <fix>3d</fix>
</trkpt>
<trkpt lat="-27.2729037" lon="151.2956151">
  <ele>525.37</ele>
  <time>2026-09-01T20:01:23Z</time>
  <course>214.83</course>
  <speed>26.77</speed>
  <fix>3d</fix>
</trkpt>
<trkpt lat="-27.2729821" lon="151.2955512">
  <ele>524.6</ele>
  <time>2026-09-01T20:01:23Z</time>
  <course>213.82</course>
  <speed>26.566002710230983</speed>
  <fix>3d</fix>
</trkpt>
<trkpt lat="-27.2729428" lon="151.2955837">
  <ele>525.0</ele>
  <time>2026-09-01T20:01:23Z</time>
  <course>216.03</course>
  <speed>26.67</speed>
  <fix>3d</fix>
</trkpt>
<trkpt lat="-27.2730012" lon="151.295535">
  <ele>524.39</ele>
  <time>2026-09-01T20:01:23Z</time>
  <course>214.41</course>
  <speed>26.520228128732228</speed>
  <fix>3d</fix>
</trkpt>
<trkpt lat="-27.2729428" lon="151.2955837">
  <ele>525.0</ele>
  <time>2026-09-01T20:01:23Z</time>
  <course>216.03</course>
  <speed>26.67</speed>
  <fix>3d</fix>
</trkpt>
<trkpt lat="-27.2730201" lon="151.2955188">
  <ele>524.16</ele>
  <time>2026-09-01T20:01:23Z</time>
  <course>214.91</course>
  <speed>26.478785848297502</speed>
  <fix>3d</fix>
</trkpt>
<trkpt lat="-27.2729813" lon="151.2955518">
  <ele>524.6</ele>
  <time>2026-09-01T20:01:23Z</time>
  <course>216.79</course>
  <speed>26.57</speed>
  <fix>3d</fix>
</trkpt>
<trkpt lat="-27.273039" lon="151.2955026">
  <ele>523.95</ele>
  <time>2026-09-01T20:01:23Z</time>
  <course>215.34</course>
  <speed>26.433440941353055</speed>
  <fix>3d</fix>
</trkpt>
<trkpt lat="-27.2729813" lon="151.2955518">
  <ele>524.6</ele>
  <time>2026-09-01T20:01:23Z</time>
  <course>216.79</course>
  <speed>26.57</speed>
  <fix>3d</fix>
</trkpt>
<trkpt lat="-27.2730578" lon="151.2954863">
  <ele>523.74</ele>
  <time>2026-09-01T20:01:23Z</time>
  <course>215.7</course>
  <speed>26.399867423909537</speed>
  <fix>3d</fix>
</trkpt>
<trkpt lat="-27.2730193" lon="151.2955194">
  <ele>524.18</ele>
  <time>2026-09-01T20:01:23Z</time>
  <course>217.27</course>
  <speed>26.48</speed>
  <fix>3d</fix>
</trkpt>
<trkpt lat="-27.2730766" lon="151.2954701">
  <ele>523.53</ele>
  <time>2026-09-01T20:01:23Z</time>
  <course>215.99</course>
  <speed>26.36024468778695</speed>
  <fix>3d</fix>
</trkpt>
<trkpt lat="-27.2730193" lon="151.2955194">
  <ele>524.18</ele>
  <time>2026-09-01T20:01:23Z</time>
  <course>217.27</course>
  <speed>26.48</speed>
  <fix>3d</fix>
</trkpt>
<trkpt lat="-27.2730954" lon="151.2954538">
  <ele>523.33</ele>
  <time>2026-09-01T20:01:23Z</time>
  <course>216.18</course>
  <speed>26.312069473912537</speed>
  <fix>3d</fix>
</trkpt>
<trkpt lat="-27.2730571" lon="151.2954868">
  <ele>523.75</ele>
  <time>2026-09-01T20:01:23Z</time>
  <course>217.53</course>
  <speed>26.4</speed>
  <fix>3d</fix>
</trkpt>
<trkpt lat="-27.2731141" lon="151.2954376">
  <ele>523.14</ele>
  <time>2026-09-01T20:01:23Z</time>
  <course>216.35</course>
  <speed>26.221289060608747</speed>
  <fix>3d</fix>
</trkpt>
<trkpt lat="-27.2730571" lon="151.2954868">
  <ele>523.75</ele>
  <time>2026-09-01T20:01:23Z</time>
  <course>217.53</course>
  <speed>26.4</speed>
  <fix>3d</fix>
</trkpt>
<trkpt lat="-27.2731328" lon="151.2954217">
  <ele>522.94</ele>
  <time>2026-09-01T20:01:23Z</time>
  <course>216.53</course>
  <speed>26.076266987435147</speed>
  <fix>3d</fix>
</trkpt>
<trkpt lat="-27.2730947" lon="151.2954543">
  <ele>523.33</ele>
  <time>2026-09-01T20:01:23Z</time>
  <course>217.52</course>
  <speed>26.3</speed>
  <fix>3d</fix>
</trkpt>
<trkpt lat="-27.2731514" lon="151.2954059">
  <ele>522.75</ele>
  <time>2026-09-01T20:01:23Z</time>
  <course>216.6</course>
  <speed>25.876129927019612</speed>
  <fix>3d</fix>
</trkpt>
<trkpt lat="-27.2730947" lon="151.2954543">
  <ele>523.33</ele>
  <time>2026-09-01T20:01:23Z</time>
  <course>217.52</course>
  <speed>26.3</speed>
  <fix>3d</fix>
</trkpt>
<trkpt lat="-27.27317" lon="151.2953904">
  <ele>522.59</ele>
  <time>2026-09-01T20:01:23Z</time>
  <course>216.52</course>
  <speed>25.62007416070453</speed>
  <fix>3d</fix>
</trkpt>
<trkpt lat="-27.2731321" lon="151.2954222">
  <ele>522.95</ele>
  <time>2026-09-01T20:01:23Z</time>
  <course>217.07</course>
  <speed>26.05</speed>
  <fix>3d</fix>
</trkpt>
<trkpt lat="-27.2731886" lon="151.2953753">
  <ele>522.47</ele>
  <time>2026-09-01T20:01:23Z</time>
  <course>216.28</course>
  <speed>25.316417598072597</speed>
  <fix>3d</fix>
</trkpt>
<trkpt lat="-27.2731321" lon="151.2954222">
  <ele>522.95</ele>
  <time>2026-09-01T20:01:23Z</time>
  <course>217.07</course>
  <speed>26.05</speed>
  <fix>3d</fix>
</trkpt>
<trkpt lat="-27.273207" lon="151.2953607">
  <ele>522.39</ele>
  <time>2026-09-01T20:01:23Z</time>
  <course>215.91</course>
  <speed>24.979201348321766</speed>
  <fix>3d</fix>
</trkpt>
<trkpt lat="-27.2731693" lon="151.2953911">
  <ele>522.61</ele>
  <time>2026-09-01T20:01:23Z</time>
  <course>216.15</course>
  <speed>25.6</speed>
  <fix>3d</fix>
</trkpt>
<trkpt lat="-27.2732253" lon="151.2953464">
  <ele>522.34</ele>
  <time>2026-09-01T20:01:23Z</time>
  <course>215.51</course>
  <speed>24.645033982528812</speed>
  <fix>3d</fix>
</trkpt>
<trkpt lat="-27.2731693" lon="151.2953911">
  <ele>522.61</ele>
  <time>2026-09-01T20:01:23Z</time>
  <course>216.15</course>
  <speed>25.6</speed>
  <fix>3d</fix>
</trkpt>
<trkpt lat="-27.2732435" lon="151.2953324">
  <ele>522.33</ele>
  <time>2026-09-01T20:01:23Z</time>
  <course>215.14</course>
  <speed>24.30208427275323</speed>
  <fix>3d</fix>
</trkpt>
<trkpt lat="-27.2732063" lon="151.2953613">
  <ele>522.4</ele>
  <time>2026-09-01T20:01:23Z</time>
  <course>215.06</course>
  <speed>24.99</speed>
  <fix>3d</fix>
</trkpt>
<trkpt lat="-27.2732614" lon="151.2953188">
  <ele>522.33</ele>
  <time>2026-09-01T20:01:23Z</time>
  <course>214.8</course>
  <speed>23.96032136679306</speed>
  <fix>3d</fix>
</trkpt>
<trkpt lat="-27.2732063" lon="151.2953613">
  <ele>522.4</ele>
  <time>2026-09-01T20:01:23Z</time>
  <course>215.06</course>
  <speed>24.99</speed>
  <fix>3d</fix>
</trkpt>
<trkpt lat="-27.2732792" lon="151.2953054">
  <ele>522.34</ele>
  <time>2026-09-01T20:01:23Z</time>
  <course>214.49</course>
  <speed>23.627519971423155</speed>
  <fix>3d</fix>
</trkpt>
<trkpt lat="-27.2732428" lon="151.295333">
  <ele>522.33</ele>
  <time>2026-09-01T20:01:23Z</time>
  <course>214.17</course>
  <speed>24.32</speed>
  <fix>3d</fix>
</trkpt>
<trkpt lat="-27.2732968" lon="151.2952924">
  <ele>522.34</ele>
  <time>2026-09-01T20:01:23Z</time>
  <course>214.2</course>
  <speed>23.308807348296483</speed>
  <fix>3d</fix>
</trkpt>
<trkpt lat="-27.2732428" lon="151.295333">
  <ele>522.33</ele>
  <time>2026-09-01T20:01:23Z</time>
  <course>214.17</course>
  <speed>24.32</speed>
  <fix>3d</fix>
</trkpt>
<trkpt lat="-27.2733142" lon="151.2952795">
  <ele>522.35</ele>
  <time>2026-09-01T20:01:23Z</time>
  <course>213.93</course>
  <speed>22.99576047883609</speed>
  <fix>3d</fix>
</trkpt>
<trkpt lat="-27.2732785" lon="151.295306">
  <ele>522.33</ele>
  <time>2026-09-01T20:01:23Z</time>
  <course>213.6</course>
  <speed>23.65</speed>
  <fix>3d</fix>
</trkpt>
<trkpt lat="-27.2733314" lon="151.2952669">
  <ele>522.34</ele>
  <time>2026-09-01T20:01:23Z</time>
  <course>213.68</course>
  <speed>22.693789899441654</speed>
  <fix>3d</fix>
</trkpt>
<trkpt lat="-27.2732785" lon="151.295306">
  <ele>522.33</ele>
  <time>2026-09-01T20:01:23Z</time>
  <course>213.6</course>
  <speed>23.65</speed>
  <fix>3d</fix>
</trkpt>
<trkpt lat="-27.2733485" lon="151.2952544">
  <ele>522.32</ele>
  <time>2026-09-01T20:01:23Z</time>
  <course>213.47</course>
  <speed>22.411186938669715</speed>
  <fix>3d</fix>
</trkpt>
<trkpt lat="-27.2733135" lon="151.29528">
  <ele>522.34</ele>
  <time>2026-09-01T20:01:23Z</time>
  <course>213.28</course>
  <speed>23.01</speed>
  <fix>3d</fix>
</trkpt>
<trkpt lat="-27.2733652" lon="151.2952421">
  <ele>522.29</ele>
  <time>2026-09-01T20:01:23Z</time>
  <course>213.3</course>
  <speed>22.128626256503136</speed>
  <fix>3d</fix>
</trkpt>
<trkpt lat="-27.2733135" lon="151.29528">
  <ele>522.34</ele>
  <time>2026-09-01T20:01:23Z</time>
  <course>213.28</course>
  <speed>23.01</speed>
  <fix>3d</fix>
</trkpt>
<trkpt lat="-27.2733818" lon="151.29523">
  <ele>522.26</ele>
  <time>2026-09-01T20:01:23Z</time>
  <course>213.16</course>
  <speed>21.859938243279643</speed>
  <fix>3d</fix>
</trkpt>
<trkpt lat="-27.2733476" lon="151.2952549">
  <ele>522.32</ele>
  <time>2026-09-01T20:01:23Z</time>
  <course>213.08</course>
  <speed>22.43</speed>
  <fix>3d</fix>
</trkpt>
<trkpt lat="-27.2733982" lon="151.2952181">
  <ele>522.21</ele>
  <time>2026-09-01T20:01:23Z</time>
  <course>213.06</course>
  <speed>21.60511282081165</speed>
  <fix>3d</fix>
</trkpt>
<trkpt lat="-27.2733476" lon="151.2952549">
  <ele>522.32</ele>
  <time>2026-09-01T20:01:23Z</time>
  <course>213.08</course>
  <speed>22.43</speed>
  <fix>3d</fix>
</trkpt>
<trkpt lat="-27.2734144" lon="151.2952063">
  <ele>522.15</ele>
  <time>2026-09-01T20:01:23Z</time>
  <course>212.97</course>
  <speed>21.364140516295056</speed>
  <fix>3d</fix>
</trkpt>
<trkpt lat="-27.273381" lon="151.2952305">
  <ele>522.25</ele>
  <time>2026-09-01T20:01:23Z</time>
  <course>212.93</course>
  <speed>21.88</speed>
  <fix>3d</fix>
</trkpt>
<trkpt lat="-27.2734305" lon="151.2951947">
  <ele>522.07</ele>
  <time>2026-09-01T20:01:23Z</time>
  <course>212.91</course>
  <speed>21.128601468152123</speed>
  <fix>3d</fix>
</trkpt>
<trkpt lat="-27.273381" lon="151.2952305">
  <ele>522.25</ele>
  <time>2026-09-01T20:01:23Z</time>
  <course>212.93</course>
  <speed>21.88</speed>
  <fix>3d</fix>
</trkpt>
<trkpt lat="-27.2734463" lon="151.2951832">
  <ele>521.98</ele>
  <time>2026-09-01T20:01:23Z</time>
  <course>212.85</course>
  <speed>20.909904351765935</speed>
  <fix>3d</fix>
</trkpt>
<trkpt lat="-27.2734137" lon="151.2952068">
  <ele>522.14</ele>
  <time>2026-09-01T20:01:23Z</time>
  <course>212.8</course>
  <speed>21.38</speed>
  <fix>3d</fix>
</trkpt>
<trkpt lat="-27.2734621" lon="151.2951718">
  <ele>521.88</ele>
  <time>2026-09-01T20:01:23Z</time>
  <course>212.8</course>
  <speed>20.69663016048748</speed>
  <fix>3d</fix>
</trkpt>
<trkpt lat="-27.2734137" lon="151.2952068">
  <ele>522.14</ele>
  <time>2026-09-01T20:01:23Z</time>
  <course>212.8</course>
  <speed>21.38</speed>
  <fix>3d</fix>
</trkpt>
<trkpt lat="-27.2734776" lon="151.2951606">
  <ele>521.77</ele>
  <time>2026-09-01T20:01:23Z</time>
  <course>212.75</course>
  <speed>20.4971827332441</speed>
  <fix>3d</fix>
</trkpt>
<trkpt lat="-27.2734457" lon="151.2951836">
  <ele>521.98</ele>
  <time>2026-09-01T20:01:23Z</time>
  <course>212.69</course>
  <speed>20.92</speed>
  <fix>3d</fix>
</trkpt>
<trkpt lat="-27.2734931" lon="151.2951494">
  <ele>521.64</ele>
  <time>2026-09-01T20:01:23Z</time>
  <course>212.7</course>
  <speed>20.297746180302877</speed>
  <fix>3d</fix>
</trkpt>
<trkpt lat="-27.2734457" lon="151.2951836">
  <ele>521.98</ele>
  <time>2026-09-01T20:01:23Z</time>
  <course>212.69</course>
  <speed>20.92</speed>
  <fix>3d</fix>
</trkpt>
<trkpt lat="-27.2735084" lon="151.2951386">
  <ele>521.51</ele>
  <time>2026-09-01T20:01:23Z</time>
  <course>212.64</course>
  <speed>20.120561622380226</speed>
  <fix>3d</fix>
</trkpt>
<trkpt lat="-27.273477" lon="151.295161">
  <ele>521.77</ele>
  <time>2026-09-01T20:01:23Z</time>
  <course>212.59</course>
  <speed>20.51</speed>
  <fix>3d</fix>
</trkpt>
<trkpt lat="-27.2735236" lon="151.2951277">
  <ele>521.37</ele>
  <time>2026-09-01T20:01:23Z</time>
  <course>212.58</course>
  <speed>19.943392389460726</speed>
  <fix>3d</fix>
</trkpt>
<trkpt lat="-27.273477" lon="151.295161">
  <ele>521.77</ele>
  <time>2026-09-01T20:01:23Z</time>
  <course>212.59</course>
  <speed>20.51</speed>
  <fix>3d</fix>
</trkpt>
<trkpt lat="-27.2735386" lon="151.2951168">
  <ele>521.22</ele>
  <time>2026-09-01T20:01:23Z</time>
  <course>212.53</course>
  <speed>19.771598316777528</speed>
  <fix>3d</fix>
</trkpt>
<trkpt lat="-27.2735078" lon="151.295139">
  <ele>521.51</ele>
  <time>2026-09-01T20:01:23Z</time>
  <course>212.5</course>
  <speed>20.13</speed>
  <fix>3d</fix>
</trkpt>
<trkpt lat="-27.2735536" lon="151.2951062">
  <ele>521.06</ele>
  <time>2026-09-01T20:01:23Z</time>
  <course>212.48</course>
  <speed>19.613610070560696</speed>
  <fix>3d</fix>
</trkpt>
<trkpt lat="-27.2735078" lon="151.295139">
  <ele>521.51</ele>
  <time>2026-09-01T20:01:23Z</time>
  <course>212.5</course>
  <speed>20.13</speed>
  <fix>3d</fix>
</trkpt>
<trkpt lat="-27.2735684" lon="151.2950957">
  <ele>520.9</ele>
  <time>2026-09-01T20:01:23Z</time>
  <course>212.44</course>
  <speed>19.464069461446133</speed>
  <fix>3d</fix>
</trkpt>
<trkpt lat="-27.273538" lon="151.2951173">
  <ele>521.21</ele>
  <time>2026-09-01T20:01:23Z</time>
  <course>212.43</course>
  <speed>19.78</speed>
  <fix>3d</fix>
</trkpt>
<trkpt lat="-27.2735831" lon="151.2950852">
  <ele>520.73</ele>
  <time>2026-09-01T20:01:23Z</time>
  <course>212.41</course>
  <speed>19.314535976823258</speed>
  <fix>3d</fix>
</trkpt>
<trkpt lat="-27.273538" lon="151.2951173">
  <ele>521.21</ele>
  <time>2026-09-01T20:01:23Z</time>
  <course>212.43</course>
  <speed>19.78</speed>
  <fix>3d</fix>
</trkpt>
<trkpt lat="-27.2735977" lon="151.2950747">
  <ele>520.56</ele>
  <time>2026-09-01T20:01:23Z</time>
  <course>212.37</course>
  <speed>19.165009783456934</speed>
  <fix>3d</fix>
</trkpt>
<trkpt lat="-27.2735678" lon="151.295096">
  <ele>520.9</ele>
  <time>2026-09-01T20:01:23Z</time>
  <course>212.37</course>
  <speed>19.47</speed>
  <fix>3d</fix>
</trkpt>
<trkpt lat="-27.2736122" lon="151.2950645">
  <ele>520.39</ele>
  <time>2026-09-01T20:01:23Z</time>
  <course>212.34</course>
  <speed>19.029285325518664</speed>
  <fix>3d</fix>
</trkpt>
<trkpt lat="-27.2735678" lon="151.295096">
  <ele>520.9</ele>
  <time>2026-09-01T20:01:23Z</time>
  <course>212.37</course>
  <speed>19.47</speed>
  <fix>3d</fix>
</trkpt>
<trkpt lat="-27.2736266" lon="151.2950543">
  <ele>520.21</ele>
  <time>2026-09-01T20:01:23Z</time>
  <course>212.31</course>
  <speed>18.893565042098327</speed>
  <fix>3d</fix>
</trkpt>
<trkpt lat="-27.2735971" lon="151.2950751">
  <ele>520.56</ele>
  <time>2026-09-01T20:01:23Z</time>
  <course>212.3</course>
  <speed>19.18</speed>
  <fix>3d</fix>
</trkpt>
<trkpt lat="-27.2736409" lon="151.295044">
  <ele>520.03</ele>
  <time>2026-09-01T20:01:23Z</time>
  <course>212.28</course>
  <speed>18.771640844635826</speed>
  <fix>3d</fix>
</trkpt>
<trkpt lat="-27.2735971" lon="151.2950751">
  <ele>520.56</ele>
  <time>2026-09-01T20:01:23Z</time>
  <course>212.3</course>
  <speed>19.18</speed>
  <fix>3d</fix>
</trkpt>
<trkpt lat="-27.2736551" lon="151.2950339">
  <ele>519.85</ele>
  <time>2026-09-01T20:01:23Z</time>
  <course>212.25</course>
  <speed>18.64439057732915</speed>
  <fix>3d</fix>
</trkpt>
<trkpt lat="-27.273626" lon="151.2950546">
  <ele>520.21</ele>
  <time>2026-09-01T20:01:23Z</time>
  <course>212.24</course>
  <speed>18.91</speed>
  <fix>3d</fix>
</trkpt>
<trkpt lat="-27.2736692" lon="151.2950239">
  <ele>519.66</ele>
  <time>2026-09-01T20:01:23Z</time>
  <course>212.22</course>
  <speed>18.522472837070108</speed>
  <fix>3d</fix>
</trkpt>
<trkpt lat="-27.273626" lon="151.2950546">
  <ele>520.21</ele>
  <time>2026-09-01T20:01:23Z</time>
  <course>212.24</course>
  <speed>18.91</speed>
  <fix>3d</fix>
</trkpt>
<trkpt lat="-27.2736833" lon="151.2950141">
  <ele>519.48</ele>
  <time>2026-09-01T20:01:23Z</time>
  <course>212.19</course>
  <speed>18.409024960600167</speed>
  <fix>3d</fix>
</trkpt>
<trkpt lat="-27.2736546" lon="151.2950344">
  <ele>519.85</ele>
  <time>2026-09-01T20:01:23Z</time>
  <course>212.19</course>
  <speed>18.65</speed>
  <fix>3d</fix>
</trkpt>
<trkpt lat="-27.2736973" lon="151.2950042">
  <ele>519.29</ele>
  <time>2026-09-01T20:01:23Z</time>
  <course>212.16</course>
  <speed>18.295584166678033</speed>
  <fix>3d</fix>
</trkpt>
<trkpt lat="-27.2736546" lon="151.2950344">
  <ele>519.85</ele>
  <time>2026-09-01T20:01:23Z</time>
  <course>212.19</course>
  <speed>18.65</speed>
  <fix>3d</fix>
</trkpt>
<trkpt lat="-27.2737111" lon="151.2949944">
  <ele>519.1</ele>
  <time>2026-09-01T20:01:23Z</time>
  <course>212.14</course>
  <speed>18.187459965591678</speed>
  <fix>3d</fix>
</trkpt>
<trkpt lat="-27.2736828" lon="151.2950144">
  <ele>519.47</ele>
  <time>2026-09-01T20:01:23Z</time>
  <course>212.13</course>
  <speed>18.42</speed>
  <fix>3d</fix>
</trkpt>
<trkpt lat="-27.2737249" lon="151.2949846">
  <ele>518.91</ele>
  <time>2026-09-01T20:01:23Z</time>
  <course>212.11</course>
  <speed>18.087810812809824</speed>
  <fix>3d</fix>
</trkpt>
<trkpt lat="-27.2736828" lon="151.2950144">
  <ele>519.47</ele>
  <time>2026-09-01T20:01:23Z</time>
  <course>212.13</course>
  <speed>18.42</speed>
  <fix>3d</fix>
</trkpt>
<trkpt lat="-27.2737387" lon="151.294975">
  <ele>518.71</ele>
  <time>2026-09-01T20:01:23Z</time>
  <course>212.09</course>
  <speed>17.979688540127718</speed>
  <fix>3d</fix>
</trkpt>
<trkpt lat="-27.2737107" lon="151.2949947">
  <ele>519.09</ele>
  <time>2026-09-01T20:01:23Z</time>
  <course>212.08</course>
  <speed>18.2</speed>
  <fix>3d</fix>
</trkpt>
<trkpt lat="-27.2737524" lon="151.2949653">
  <ele>518.52</ele>
  <time>2026-09-01T20:01:23Z</time>
  <course>212.06</course>
  <speed>17.880044742673324</speed>
  <fix>3d</fix>
</trkpt>
<trkpt lat="-27.2737107" lon="151.2949947">
  <ele>519.09</ele>
  <time>2026-09-01T20:01:23Z</time>
  <course>212.08</course>
  <speed>18.2</speed>
  <fix>3d</fix>
</trkpt>
<trkpt lat="-27.273766" lon="151.2949558">
  <ele>518.32</ele>
  <time>2026-09-01T20:01:23Z</time>
  <course>212.04</course>
  <speed>17.78040494476996</speed>
  <fix>3d</fix>
</trkpt>
<trkpt lat="-27.2737383" lon="151.2949753">
  <ele>518.71</ele>
  <time>2026-09-01T20:01:23Z</time>
  <course>212.03</course>
  <speed>17.99</speed>
  <fix>3d</fix>
</trkpt>
<trkpt lat="-27.2737795" lon="151.2949463">
  <ele>518.13</ele>
  <time>2026-09-01T20:01:23Z</time>
  <course>212.01</course>
  <speed>17.694547182677493</speed>
  <fix>3d</fix>
</trkpt>
<trkpt lat="-27.2737383" lon="151.2949753">
  <ele>518.71</ele>
  <time>2026-09-01T20:01:23Z</time>
  <course>212.03</course>
  <speed>17.99</speed>
  <fix>3d</fix>
</trkpt>
<trkpt lat="-27.273793" lon="151.2949368">
  <ele>517.93</ele>
  <time>2026-09-01T20:01:23Z</time>
  <course>211.99</course>
  <speed>17.59491403786901</speed>
  <fix>3d</fix>
</trkpt>
<trkpt lat="-27.2737655" lon="151.2949561">
  <ele>518.33</ele>
  <time>2026-09-01T20:01:23Z</time>
  <course>211.99</course>
  <speed>17.79</speed>
  <fix>3d</fix>
</trkpt>
<trkpt lat="-27.2738064" lon="151.2949275">
  <ele>517.73</ele>
  <time>2026-09-01T20:01:23Z</time>
  <course>211.97</course>
  <speed>17.509060511632256</speed>
  <fix>3d</fix>
</trkpt>
<trkpt lat="-27.2737655" lon="151.2949561">
  <ele>518.33</ele>
  <time>2026-09-01T20:01:23Z</time>
  <course>211.99</course>
  <speed>17.79</speed>
  <fix>3d</fix>
</trkpt>
<trkpt lat="-27.2738197" lon="151.2949181">
  <ele>517.54</ele>
  <time>2026-09-01T20:01:23Z</time>
  <course>211.95</course>
  <speed>17.423208659715925</speed>
  <fix>3d</fix>
</trkpt>
<trkpt lat="-27.2737925" lon="151.2949372">
  <ele>517.93</ele>
  <time>2026-09-01T20:01:23Z</time>
  <course>211.94</course>
  <speed>17.61</speed>
  <fix>3d</fix>
</trkpt>
<trkpt lat="-27.2719817" lon="151.2989842">
  <ele>540.81</ele>
  <time>2026-09-01T20:01:23Z</time>
  <course>250.4</course>
  <speed>12.054808169357154</speed>
  <fix>3d</fix>
</trkpt>
<trkpt lat="-27.2737925" lon="151.2949372">
  <ele>517.93</ele>
  <time>2026-09-01T20:01:23Z</time>
  <course>211.94</course>
  <speed>17.61</speed>
  <fix>3d</fix>
</trkpt>
<trkpt lat="-27.2719845" lon="151.2989728">
  <ele>536.96</ele>
  <time>2026-09-01T20:01:23Z</time>
  <course>249.44</course>
  <speed>11.708800109319487</speed>
  <fix>3d</fix>
</trkpt>
<trkpt lat="-27.2728937" lon="151.2969561">
  <ele>529.33</ele>
  <time>2026-09-01T20:01:23Z</time>
  <course>228.96</course>
  <speed>13.86</speed>
  <fix>3d</fix>
</trkpt>
<trkpt lat="-27.2719884" lon="151.298961">
  <ele>533.13</ele>
  <time>2026-09-01T20:01:23Z</time>
  <course>236.25</course>
  <speed>13.13957381348421</speed>
  <fix>3d</fix>
</trkpt>
<trkpt lat="-27.2728937" lon="151.2969561">
  <ele>529.33</ele>
  <time>2026-09-01T20:01:23Z</time>
  <course>228.96</course>
  <speed>13.86</speed>
  <fix>3d</fix>
</trkpt>
<trkpt lat="-27.2719954" lon="151.2989495">
  <ele>529.36</ele>
  <time>2026-09-01T20:01:23Z</time>
  <course>216.6</course>
  <speed>14.551470716047913</speed>
  <fix>3d</fix>
</trkpt>
<trkpt lat="-27.2719849" lon="151.298973">
  <ele>537.1</ele>
  <time>2026-09-01T20:01:23Z</time>
  <course>249.0</course>
  <speed>12.55</speed>
  <fix>3d</fix>
</trkpt>
<trkpt lat="-27.2720054" lon="151.2989395">
  <ele>525.63</ele>
  <time>2026-09-01T20:01:23Z</time>
  <course>202.51</course>
  <speed>15.030402522886737</speed>
  <fix>3d</fix>
</trkpt>
<trkpt lat="-27.2719849" lon="151.298973">
  <ele>537.1</ele>
  <time>2026-09-01T20:01:23Z</time>
  <course>249.0</course>
  <speed>12.55</speed>
  <fix>3d</fix>
</trkpt>
<trkpt lat="-27.2720166" lon="151.2989306">
  <ele>521.91</ele>
  <time>2026-09-01T20:01:23Z</time>
  <course>206.44</course>
  <speed>15.926644342107975</speed>
  <fix>3d</fix>
</trkpt>
<trkpt lat="-27.2719966" lon="151.2989506">
  <ele>529.51</ele>
  <time>2026-09-01T20:01:23Z</time>
  <course>229.55</course>
  <speed>13.65</speed>
  <fix>3d</fix>
</trkpt>
<trkpt lat="-27.2720277" lon="151.2989167">
  <ele>518.38</ele>
  <time>2026-09-01T20:01:23Z</time>
  <course>224.75</course>
  <speed>22.281517004010297</speed>
  <fix>3d</fix>
</trkpt>
<trkpt lat="-27.2719966" lon="151.2989506">
  <ele>529.51</ele>
  <time>2026-09-01T20:01:23Z</time>
  <course>229.55</course>
  <speed>13.65</speed>
  <fix>3d</fix>
</trkpt>
<trkpt lat="-27.2720398" lon="151.2988939">
  <ele>515.44</ele>
  <time>2026-09-01T20:01:23Z</time>
  <course>233.8</course>
  <speed>29.945824416769693</speed>
  <fix>3d</fix>
</trkpt>
<trkpt lat="-27.2720161" lon="151.2989286">
  <ele>522.12</ele>
  <time>2026-09-01T20:01:23Z</time>
  <course>227.43</course>
  <speed>18.3</speed>
  <fix>3d</fix>
</trkpt>
<trkpt lat="-27.2720535" lon="151.2988646">
  <ele>513.38</ele>
  <time>2026-09-01T20:01:23Z</time>
  <course>237.26</course>
  <speed>35.00469682771156</speed>
  <fix>3d</fix>
</trkpt>
<trkpt lat="-27.2720161" lon="151.2989286">
  <ele>522.12</ele>
  <time>2026-09-01T20:01:23Z</time>
  <course>227.43</course>
  <speed>18.3</speed>
  <fix>3d</fix>
</trkpt>
<trkpt lat="-27.272069" lon="151.2988325">
  <ele>512.26</ele>
  <time>2026-09-01T20:01:23Z</time>
  <course>235.49</course>
  <speed>37.05049797236199</speed>
  <fix>3d</fix>
</trkpt>
<trkpt lat="-27.2720401" lon="151.2988915">
  <ele>515.95</ele>
  <time>2026-09-01T20:01:23Z</time>
  <course>239.45</course>
  <speed>28.39</speed>
  <fix>3d</fix>
</trkpt>
<trkpt lat="-27.2720866" lon="151.2988006">
  <ele>512.0</ele>
  <time>2026-09-01T20:01:23Z</time>
  <course>230.87</course>
  <speed>36.83097745105334</speed>
  <fix>3d</fix>
</trkpt>
<trkpt lat="-27.2720401" lon="151.2988915">
  <ele>515.95</ele>
  <time>2026-09-01T20:01:23Z</time>
  <course>239.45</course>
  <speed>28.39</speed>
  <fix>3d</fix>
</trkpt>
<trkpt lat="-27.2721062" lon="151.2987714">
  <ele>512.4</ele>
  <time>2026-09-01T20:01:23Z</time>
  <course>225.72</course>
  <speed>35.42525229267958</speed>
  <fix>3d</fix>
</trkpt>
<trkpt lat="-27.2720695" lon="151.2988337">
  <ele>512.7</ele>
  <time>2026-09-01T20:01:23Z</time>
  <course>239.08</course>
  <speed>35.82</speed>
  <fix>3d</fix>
</trkpt>
<trkpt lat="-27.2721272" lon="151.2987458">
  <ele>513.26</ele>
  <time>2026-09-01T20:01:23Z</time>
  <course>221.28</course>
  <speed>33.67361281478422</speed>
  <fix>3d</fix>
</trkpt>
<trkpt lat="-27.2720695" lon="151.2988337">
  <ele>512.7</ele>
  <time>2026-09-01T20:01:23Z</time>
  <course>239.08</course>
  <speed>35.82</speed>
  <fix>3d</fix>
</trkpt>
<trkpt lat="-27.2721491" lon="151.2987236">
  <ele>514.43</ele>
  <time>2026-09-01T20:01:23Z</time>
  <course>218.19</course>
  <speed>32.08745860924483</speed>
  <fix>3d</fix>
</trkpt>
<trkpt lat="-27.2721063" lon="151.298774">
  <ele>512.61</ele>
  <time>2026-09-01T20:01:23Z</time>
  <course>230.54</course>
  <speed>35.12</speed>
  <fix>3d</fix>
</trkpt>
<trkpt lat="-27.2721714" lon="151.2987042">
  <ele>515.75</ele>
  <time>2026-09-01T20:01:23Z</time>
  <course>216.43</course>
  <speed>30.80478209629148</speed>
  <fix>3d</fix>
</trkpt>
<trkpt lat="-27.2721063" lon="151.298774">
  <ele>512.61</ele>
  <time>2026-09-01T20:01:23Z</time>
  <course>230.54</course>
  <speed>35.12</speed>
  <fix>3d</fix>
</trkpt>
<trkpt lat="-27.2721937" lon="151.2986866">
  <ele>517.13</ele>
  <time>2026-09-01T20:01:23Z</time>
  <course>215.78</course>
  <speed>29.857022624501592</speed>
  <fix>3d</fix>
</trkpt>
<trkpt lat="-27.2721487" lon="151.2987255">
  <ele>514.47</ele>
  <time>2026-09-01T20:01:23Z</time>
  <course>220.6</course>
  <speed>32.19</speed>
  <fix>3d</fix>
</trkpt>
<trkpt lat="-27.2722166" lon="151.2986697">
  <ele>518.56</ele>
  <time>2026-09-01T20:01:23Z</time>
  <course>215.79</course>
  <speed>29.191368587306762</speed>
  <fix>3d</fix>
</trkpt>
<trkpt lat="-27.2721487" lon="151.2987255">
  <ele>514.47</ele>
  <time>2026-09-01T20:01:23Z</time>
  <course>220.6</course>
  <speed>32.19</speed>
  <fix>3d</fix>
</trkpt>
<trkpt lat="-27.2722385" lon="151.2986539">
  <ele>519.89</ele>
  <time>2026-09-01T20:01:23Z</time>
  <course>216.02</course>
  <speed>28.775034317963897</speed>
  <fix>3d</fix>
</trkpt>
<trkpt lat="-27.272193" lon="151.2986876">
  <ele>517.09</ele>
  <time>2026-09-01T20:01:23Z</time>
  <course>214.58</course>
  <speed>30.02</speed>
  <fix>3d</fix>
</trkpt>
<trkpt lat="-27.2722602" lon="151.2986383">
  <ele>521.14</ele>
  <time>2026-09-01T20:01:23Z</time>
  <course>216.17</course>
  <speed>28.521362169433633</speed>
  <fix>3d</fix>
</trkpt>
<trkpt lat="-27.272193" lon="151.2986876">
  <ele>517.09</ele>
  <time>2026-09-01T20:01:23Z</time>
  <course>214.58</course>
  <speed>30.02</speed>
  <fix>3d</fix>
</trkpt>
<trkpt lat="-27.2722816" lon="151.2986226">
  <ele>522.29</ele>
  <time>2026-09-01T20:01:23Z</time>
  <course>216.02</course>
  <speed>28.39181043892763</speed>
  <fix>3d</fix>
</trkpt>
<trkpt lat="-27.2722371" lon="151.2986549">
  <ele>519.77</ele>
  <time>2026-09-01T20:01:23Z</time>
  <course>212.79</course>
  <speed>28.88</speed>
  <fix>3d</fix>
</trkpt>
<trkpt lat="-27.272303" lon="151.2986071">
  <ele>523.33</ele>
  <time>2026-09-01T20:01:23Z</time>
  <course>215.61</course>
  <speed>28.312767438030495</speed>
  <fix>3d</fix>
</trkpt>
<trkpt lat="-27.2722371" lon="151.2986549">
  <ele>519.77</ele>
  <time>2026-09-01T20:01:23Z</time>
  <course>212.79</course>
  <speed>28.88</speed>
  <fix>3d</fix>
</trkpt>
<trkpt lat="-27.2723242" lon="151.2985914">
  <ele>524.23</ele>
  <time>2026-09-01T20:01:23Z</time>
  <course>215.0</course>
  <speed>28.256703629404473</speed>
  <fix>3d</fix>
</trkpt>
<trkpt lat="-27.2722803" lon="151.2986235">
  <ele>522.17</ele>
  <time>2026-09-01T20:01:23Z</time>
  <course>212.95</course>
  <speed>28.43</speed>
  <fix>3d</fix>
</trkpt>
<trkpt lat="-27.2723448" lon="151.298576">
  <ele>525.0</ele>
  <time>2026-09-01T20:01:23Z</time>
  <course>214.33</course>
  <speed>28.189978715848653</speed>
  <fix>3d</fix>
</trkpt>
<trkpt lat="-27.2722803" lon="151.2986235">
  <ele>522.17</ele>
  <time>2026-09-01T20:01:23Z</time>
  <course>212.95</course>
  <speed>28.43</speed>
  <fix>3d</fix>
</trkpt>
<trkpt lat="-27.2723659" lon="151.2985603">
  <ele>525.66</ele>
  <time>2026-09-01T20:01:23Z</time>
  <course>213.65</course>
  <speed>28.10672517387965</speed>
  <fix>3d</fix>
</trkpt>
<trkpt lat="-27.2723229" lon="151.2985922">
  <ele>524.12</ele>
  <time>2026-09-01T20:01:23Z</time>
  <course>213.38</course>
  <speed>28.26</speed>
  <fix>3d</fix>
</trkpt>
<trkpt lat="-27.2723869" lon="151.2985445">
  <ele>526.2</ele>
  <time>2026-09-01T20:01:23Z</time>
  <course>213.08</course>
  <speed>28.001292827296382</speed>
  <fix>3d</fix>
</trkpt>
<trkpt lat="-27.2723229" lon="151.2985922">
  <ele>524.12</ele>
  <time>2026-09-01T20:01:23Z</time>
  <course>213.38</course>
  <speed>28.26</speed>
  <fix>3d</fix>
</trkpt>
<trkpt lat="-27.2724077" lon="151.298529">
  <ele>526.65</ele>
  <time>2026-09-01T20:01:23Z</time>
  <course>212.66</course>
  <speed>27.87368830994564</speed>
  <fix>3d</fix>
</trkpt>
<trkpt lat="-27.2723651" lon="151.2985608">
  <ele>525.57</ele>
  <time>2026-09-01T20:01:23Z</time>
  <course>213.56</course>
  <speed>28.1</speed>
  <fix>3d</fix>
</trkpt>
<trkpt lat="-27.2724285" lon="151.2985134">
  <ele>527.0</ele>
  <time>2026-09-01T20:01:23Z</time>
  <course>212.4</course>
  <speed>27.740583988085035</speed>
  <fix>3d</fix>
</trkpt>
<trkpt lat="-27.2723651" lon="151.2985608">
  <ele>525.57</ele>
  <time>2026-09-01T20:01:23Z</time>
  <course>213.56</course>
  <speed>28.1</speed>
  <fix>3d</fix>
</trkpt>
<trkpt lat="-27.2724492" lon="151.2984978">
  <ele>527.27</ele>
  <time>2026-09-01T20:01:23Z</time>
  <course>212.26</course>
  <speed>27.616018902079276</speed>
  <fix>3d</fix>
</trkpt>
<trkpt lat="-27.272407" lon="151.2985294">
  <ele>526.58</ele>
  <time>2026-09-01T20:01:23Z</time>
  <course>213.68</course>
  <speed>27.88</speed>
  <fix>3d</fix>
</trkpt>
<trkpt lat="-27.2724697" lon="151.2984822">
  <ele>527.47</ele>
  <time>2026-09-01T20:01:23Z</time>
  <course>212.31</course>
  <speed>27.483729732334364</speed>
  <fix>3d</fix>
</trkpt>
<trkpt lat="-27.272407" lon="151.2985294">
  <ele>526.58</ele>
  <time>2026-09-01T20:01:23Z</time>
  <course>213.68</course>
  <speed>27.88</speed>
  <fix>3d</fix>
</trkpt>
<trkpt lat="-27.27249" lon="151.2984665">
  <ele>527.61</ele>
  <time>2026-09-01T20:01:23Z</time>
  <course>212.47</course>
  <speed>27.358203522892364</speed>
  <fix>3d</fix>
</trkpt>
<trkpt lat="-27.2724484" lon="151.2984983">
  <ele>527.23</ele>
  <time>2026-09-01T20:01:23Z</time>
  <course>213.97</course>
  <speed>27.62</speed>
  <fix>3d</fix>
</trkpt>
<trkpt lat="-27.2725101" lon="151.2984507">
  <ele>527.69</ele>
  <time>2026-09-01T20:01:23Z</time>
  <course>212.79</course>
  <speed>27.248473351731104</speed>
  <fix>3d</fix>
</trkpt>
<trkpt lat="-27.2724484" lon="151.2984983">
  <ele>527.23</ele>
  <time>2026-09-01T20:01:23Z</time>
  <course>213.97</course>
  <speed>27.62</speed>
  <fix>3d</fix>
</trkpt>
<trkpt lat="-27.2725301" lon="151.2984349">
  <ele>527.73</ele>
  <time>2026-09-01T20:01:23Z</time>
  <course>213.23</course>
  <speed>27.15544880866453</speed>
  <fix>3d</fix>
</trkpt>
<trkpt lat="-27.2724892" lon="151.2984669">
  <ele>527.57</ele>
  <time>2026-09-01T20:01:23Z</time>
  <course>214.59</course>
  <speed>27.37</speed>
  <fix>3d</fix>
</trkpt>
<trkpt lat="-27.2725498" lon="151.2984189">
  <ele>527.73</ele>
  <time>2026-09-01T20:01:23Z</time>
  <course>213.77</course>
  <speed>27.064061040427763</speed>
  <fix>3d</fix>
</trkpt>
<trkpt lat="-27.2724892" lon="151.2984669">
  <ele>527.57</ele>
  <time>2026-09-01T20:01:23Z</time>
  <course>214.59</course>
  <speed>27.37</speed>
  <fix>3d</fix>
</trkpt>
<trkpt lat="-27.2725693" lon="151.2984027">
  <ele>527.69</ele>
  <time>2026-09-01T20:01:23Z</time>
  <course>214.39</course>
  <speed>26.986000074112503</speed>
  <fix>3d</fix>
</trkpt>
<trkpt lat="-27.2725293" lon="151.2984353">
  <ele>527.7</ele>
  <time>2026-09-01T20:01:23Z</time>
  <course>215.56</course>
  <speed>27.16</speed>
  <fix>3d</fix>
</trkpt>
<trkpt lat="-27.2725886" lon="151.2983861">
  <ele>527.63</ele>
  <time>2026-09-01T20:01:23Z</time>
  <course>215.09</course>
  <speed>26.91630175191235</speed>
  <fix>3d</fix>
</trkpt>
<trkpt lat="-27.2725293" lon="151.2984353">
  <ele>527.7</ele>
  <time>2026-09-01T20:01:23Z</time>
  <course>215.56</course>
  <speed>27.16</speed>
  <fix>3d</fix>
</trkpt>
<trkpt lat="-27.2726076" lon="151.2983693">
  <ele>527.54</ele>
  <time>2026-09-01T20:01:23Z</time>
  <course>215.91</course>
  <speed>26.854252922023356</speed>
  <fix>3d</fix>
</trkpt>
<trkpt lat="-27.2725686" lon="151.298403">
  <ele>527.68</ele>
  <time>2026-09-01T20:01:23Z</time>
  <course>216.86</course>
  <speed>26.99</speed>
  <fix>3d</fix>
</trkpt>
<trkpt lat="-27.2726264" lon="151.2983524">
  <ele>527.43</ele>
  <time>2026-09-01T20:01:23Z</time>
  <course>216.79</course>
  <speed>26.80425339381793</speed>
  <fix>3d</fix>
</trkpt>
<trkpt lat="-27.2725686" lon="151.298403">
  <ele>527.68</ele>
  <time>2026-09-01T20:01:23Z</time>
  <course>216.86</course>
  <speed>26.99</speed>
  <fix>3d</fix>
</trkpt>
<trkpt lat="-27.2726455" lon="151.2983344">
  <ele>527.29</ele>
  <time>2026-09-01T20:01:23Z</time>
  <course>217.73</course>
  <speed>26.749059796561074</speed>
  <fix>3d</fix>
</trkpt>
<trkpt lat="-27.272607" lon="151.2983697">
  <ele>527.53</ele>
  <time>2026-09-01T20:01:23Z</time>
  <course>218.44</course>
  <speed>26.86</speed>
  <fix>3d</fix>
</trkpt>
<trkpt lat="-27.2726637" lon="151.2983169">
  <ele>527.15</ele>
  <time>2026-09-01T20:01:23Z</time>
  <course>218.58</course>
  <speed>26.702363191298254</speed>
  <fix>3d</fix>
</trkpt>
<trkpt lat="-27.272607" lon="151.2983697">
  <ele>527.53</ele>
  <time>2026-09-01T20:01:23Z</time>
  <course>218.44</course>
  <speed>26.86</speed>
  <fix>3d</fix>
</trkpt>
<trkpt lat="-27.2726816" lon="151.2982989">
  <ele>526.99</ele>
  <time>2026-09-01T20:01:23Z</time>
  <course>219.38</course>
  <speed>26.670217471929245</speed>
  <fix>3d</fix>
</trkpt>
<trkpt lat="-27.2726442" lon="151.2983353">
  <ele>527.29</ele>
  <time>2026-09-01T20:01:23Z</time>
  <course>220.22</course>
  <speed>26.75</speed>
  <fix>3d</fix>
</trkpt>
<trkpt lat="-27.2726992" lon="151.2982807">
  <ele>526.82</ele>
  <time>2026-09-01T20:01:23Z</time>
  <course>220.08</course>
  <speed>26.63186061843971</speed>
  <fix>3d</fix>
</trkpt>
<trkpt lat="-27.2726442" lon="151.2983353">
  <ele>527.29</ele>
  <time>2026-09-01T20:01:23Z</time>
  <course>220.22</course>
  <speed>26.75</speed>
  <fix>3d</fix>
</trkpt>
<trkpt lat="-27.2727166" lon="151.2982623">
  <ele>526.64</ele>
  <time>2026-09-01T20:01:23Z</time>
  <course>220.73</course>
  <speed>26.600453003661425</speed>
  <fix>3d</fix>
</trkpt>
<trkpt lat="-27.2726804" lon="151.2982998">
  <ele>526.99</ele>
  <time>2026-09-01T20:01:23Z</time>
  <course>222.04</course>
  <speed>26.67</speed>
  <fix>3d</fix>
</trkpt>
<trkpt lat="-27.2727337" lon="151.2982436">
  <ele>526.45</ele>
  <time>2026-09-01T20:01:23Z</time>
  <course>221.33</course>
  <speed>26.567290038692317</speed>
  <fix>3d</fix>
</trkpt>
<trkpt lat="-27.2726804" lon="151.2982998">
  <ele>526.99</ele>
  <time>2026-09-01T20:01:23Z</time>
  <course>222.04</course>
  <speed>26.67</speed>
  <fix>3d</fix>
</trkpt>
<trkpt lat="-27.2727507" lon="151.2982247">
  <ele>526.26</ele>
  <time>2026-09-01T20:01:23Z</time>
  <course>221.9</course>
  <speed>26.53771843998651</speed>
  <fix>3d</fix>
</trkpt>
<trkpt lat="-27.2727154" lon="151.2982632">
  <ele>526.64</ele>
  <time>2026-09-01T20:01:23Z</time>
  <course>223.66</course>
  <speed>26.6</speed>
  <fix>3d</fix>
</trkpt>
<trkpt lat="-27.2727674" lon="151.2982056">
  <ele>526.07</ele>
  <time>2026-09-01T20:01:23Z</time>
  <course>222.51</course>
  <speed>26.503211126201293</speed>
  <fix>3d</fix>
</trkpt>
<trkpt lat="-27.2727154" lon="151.2982632">
  <ele>526.64</ele>
  <time>2026-09-01T20:01:23Z</time>
  <course>223.66</course>
  <speed>26.6</speed>
  <fix>3d</fix>
</trkpt>
<trkpt lat="-27.2727841" lon="151.2981864">
  <ele>525.87</ele>
  <time>2026-09-01T20:01:23Z</time>
  <course>223.1</course>
  <speed>26.469863996628316</speed>
  <fix>3d</fix>
</trkpt>
<trkpt lat="-27.2727496" lon="151.2982257">
  <ele>526.27</ele>
  <time>2026-09-01T20:01:23Z</time>
  <course>224.91</course>
  <speed>26.54</speed>
  <fix>3d</fix>
</trkpt>
<trkpt lat="-27.2728006" lon="151.2981673">
  <ele>525.66</ele>
  <time>2026-09-01T20:01:23Z</time>
  <course>223.63</course>
  <speed>26.444040916622406</speed>
  <fix>3d</fix>
</trkpt>
<trkpt lat="-27.2727496" lon="151.2982257">
  <ele>526.27</ele>
  <time>2026-09-01T20:01:23Z</time>
  <course>224.91</course>
  <speed>26.54</speed>
  <fix>3d</fix>
</trkpt>
<trkpt lat="-27.272817" lon="151.298148">
  <ele>525.45</ele>
  <time>2026-09-01T20:01:23Z</time>
  <course>224.08</course>
  <speed>26.411380122969717</speed>
  <fix>3d</fix>
</trkpt>
<trkpt lat="-27.272783" lon="151.2981876">
  <ele>525.87</ele>
  <time>2026-09-01T20:01:23Z</time>
  <course>225.78</course>
  <speed>26.48</speed>
  <fix>3d</fix>
</trkpt>
<trkpt lat="-27.2728333" lon="151.2981285">
  <ele>525.23</ele>
  <time>2026-09-01T20:01:23Z</time>
  <course>224.51</course>
  <speed>26.39259934148207</speed>
  <fix>3d</fix>
</trkpt>
<trkpt lat="-27.272783" lon="151.2981876">
  <ele>525.87</ele>
  <time>2026-09-01T20:01:23Z</time>
  <course>225.78</course>
  <speed>26.48</speed>
  <fix>3d</fix>
</trkpt>
<trkpt lat="-27.2728496" lon="151.2981092">
  <ele>525.01</ele>
  <time>2026-09-01T20:01:23Z</time>
  <course>224.91</course>
  <speed>26.366412346013252</speed>
  <fix>3d</fix>
</trkpt>
<trkpt lat="-27.272816" lon="151.2981491">
  <ele>525.45</ele>
  <time>2026-09-01T20:01:23Z</time>
  <course>226.36</course>
  <speed>26.42</speed>
  <fix>3d</fix>
</trkpt>
<trkpt lat="-27.2728653" lon="151.2980902">
  <ele>524.79</ele>
  <time>2026-09-01T20:01:23Z</time>
  <course>225.22</course>
  <speed>26.354083175098314</speed>
  <fix>3d</fix>
</trkpt>
<trkpt lat="-27.272816" lon="151.2981491">
  <ele>525.45</ele>
  <time>2026-09-01T20:01:23Z</time>
  <course>226.36</course>
  <speed>26.42</speed>
  <fix>3d</fix>
</trkpt>
<trkpt lat="-27.2728815" lon="151.2980709">
  <ele>524.57</ele>
  <time>2026-09-01T20:01:23Z</time>
  <course>225.48</course>
  <speed>26.3340729853929</speed>
  <fix>3d</fix>
</trkpt>
<trkpt lat="-27.2728485" lon="151.2981103">
  <ele>525.02</ele>
  <time>2026-09-01T20:01:23Z</time>
  <course>226.74</course>
  <speed>26.37</speed>
  <fix>3d</fix>
</trkpt>
<trkpt lat="-27.2728976" lon="151.2980514">
  <ele>524.36</ele>
  <time>2026-09-01T20:01:23Z</time>
  <course>225.64</course>
  <speed>26.30629582438394</speed>
  <fix>3d</fix>
</trkpt>
<trkpt lat="-27.2728485" lon="151.2981103">
  <ele>525.02</ele>
  <time>2026-09-01T20:01:23Z</time>
  <course>226.74</course>
  <speed>26.37</speed>
  <fix>3d</fix>
</trkpt>
<trkpt lat="-27.2729137" lon="151.298032">
  <ele>524.13</ele>
  <time>2026-09-01T20:01:23Z</time>
  <course>225.82</course>
  <speed>26.226873622298182</speed>
  <fix>3d</fix>
</trkpt>
<trkpt lat="-27.2728809" lon="151.2980714">
  <ele>524.57</ele>
  <time>2026-09-01T20:01:23Z</time>
  <course>226.94</course>
  <speed>26.33</speed>
  <fix>3d</fix>
</trkpt>
<trkpt lat="-27.2729298" lon="151.2980126">
  <ele>523.89</ele>
  <time>2026-09-01T20:01:23Z</time>
  <course>226.06</course>
  <speed>26.110689381937046</speed>
  <fix>3d</fix>
</trkpt>
<trkpt lat="-27.2728809" lon="151.2980714">
  <ele>524.57</ele>
  <time>2026-09-01T20:01:23Z</time>
  <course>226.94</course>
  <speed>26.33</speed>
  <fix>3d</fix>
</trkpt>
<trkpt lat="-27.2729459" lon="151.2979935">
  <ele>523.65</ele>
  <time>2026-09-01T20:01:23Z</time>
  <course>226.22</course>
  <speed>25.944483035898017</speed>
  <fix>3d</fix>
</trkpt>
<trkpt lat="-27.2729132" lon="151.2980326">
  <ele>524.12</ele>
  <time>2026-09-01T20:01:23Z</time>
  <course>226.85</course>
  <speed>26.21</speed>
  <fix>3d</fix>
</trkpt>
<trkpt lat="-27.272962" lon="151.2979748">
  <ele>523.41</ele>
  <time>2026-09-01T20:01:23Z</time>
  <course>226.26</course>
  <speed>25.72158043355812</speed>
  <fix>3d</fix>
</trkpt>
<trkpt lat="-27.2729132" lon="151.2980326">
  <ele>524.12</ele>
  <time>2026-09-01T20:01:23Z</time>
  <course>226.85</course>
  <speed>26.21</speed>
  <fix>3d</fix>
</trkpt>
<trkpt lat="-27.272978" lon="151.2979561">
  <ele>523.23</ele>
  <time>2026-09-01T20:01:23Z</time>
  <course>226.16</course>
  <speed>25.45026718916719</speed>
  <fix>3d</fix>
</trkpt>
<trkpt lat="-27.2729455" lon="151.2979942">
  <ele>523.66</ele>
  <time>2026-09-01T20:01:23Z</time>
  <course>226.37</course>
  <speed>25.92</speed>
  <fix>3d</fix>
</trkpt>
<trkpt lat="-27.2729945" lon="151.2979374">
  <ele>523.07</ele>
  <time>2026-09-01T20:01:23Z</time>
  <course>225.9</course>
  <speed>25.151956186348606</speed>
  <fix>3d</fix>
</trkpt>
<trkpt lat="-27.2729455" lon="151.2979942">
  <ele>523.66</ele>
  <time>2026-09-01T20:01:23Z</time>
  <course>226.37</course>
  <speed>25.92</speed>
  <fix>3d</fix>
</trkpt>
<trkpt lat="-27.2730103" lon="151.2979195">
  <ele>522.95</ele>
  <time>2026-09-01T20:01:23Z</time>
  <course>225.57</course>
  <speed>24.847832903494822</speed>
  <fix>3d</fix>
</trkpt>
<trkpt lat="-27.2729775" lon="151.2979568">
  <ele>523.25</ele>
  <time>2026-09-01T20:01:23Z</time>
  <course>225.63</course>
  <speed>25.45</speed>
  <fix>3d</fix>
</trkpt>
<trkpt lat="-27.2730261" lon="151.297902">
  <ele>522.87</ele>
  <time>2026-09-01T20:01:23Z</time>
  <course>225.23</course>
  <speed>24.530391354399544</speed>
  <fix>3d</fix>
</trkpt>
<trkpt lat="-27.2729775" lon="151.2979568">
  <ele>523.25</ele>
  <time>2026-09-01T20:01:23Z</time>
  <course>225.63</course>
  <speed>25.45</speed>
  <fix>3d</fix>
</trkpt>
<trkpt lat="-27.2730417" lon="151.2978848">
  <ele>522.82</ele>
  <time>2026-09-01T20:01:23Z</time>
  <course>224.93</course>
  <speed>24.20635660317347</speed>
  <fix>3d</fix>
</trkpt>
<trkpt lat="-27.2730093" lon="151.2979207">
  <ele>522.97</ele>
  <time>2026-09-01T20:01:23Z</time>
  <course>224.89</course>
  <speed>24.86</speed>
  <fix>3d</fix>
</trkpt>
<trkpt lat="-27.2730572" lon="151.2978678">
  <ele>522.79</ele>
  <time>2026-09-01T20:01:23Z</time>
  <course>224.66</course>
  <speed>23.889349091174505</speed>
  <fix>3d</fix>
</trkpt>
<trkpt lat="-27.2730093" lon="151.2979207">
  <ele>522.97</ele>
  <time>2026-09-01T20:01:23Z</time>
  <course>224.89</course>
  <speed>24.86</speed>
  <fix>3d</fix>
</trkpt>
<trkpt lat="-27.2730726" lon="151.2978512">
  <ele>522.76</ele>
  <time>2026-09-01T20:01:23Z</time>
  <course>224.43</course>
  <speed>23.57235032829777</speed>
  <fix>3d</fix>
</trkpt>
<trkpt lat="-27.2730407" lon="151.2978858">
  <ele>522.82</ele>
  <time>2026-09-01T20:01:23Z</time>
  <course>224.3</course>
  <speed>24.23</speed>
  <fix>3d</fix>
</trkpt>
<trkpt lat="-27.2730878" lon="151.2978348">
  <ele>522.74</ele>
  <time>2026-09-01T20:01:23Z</time>
  <course>224.23</course>
  <speed>23.255244569773932</speed>
  <fix>3d</fix>
</trkpt>
<trkpt lat="-27.2730407" lon="151.2978858">
  <ele>522.82</ele>
  <time>2026-09-01T20:01:23Z</time>
  <course>224.3</course>
  <speed>24.23</speed>
  <fix>3d</fix>
</trkpt>
<trkpt lat="-27.2731028" lon="151.2978187">
  <ele>522.72</ele>
  <time>2026-09-01T20:01:23Z</time>
  <course>224.06</course>
  <speed>22.952073980361774</speed>
  <fix>3d</fix>
</trkpt>
<trkpt lat="-27.2730716" lon="151.2978523">
  <ele>522.76</ele>
  <time>2026-09-01T20:01:23Z</time>
  <course>223.91</course>
  <speed>23.59</speed>
  <fix>3d</fix>
</trkpt>
<trkpt lat="-27.2731176" lon="151.2978028">
  <ele>522.69</ele>
  <time>2026-09-01T20:01:23Z</time>
  <course>223.91</course>
  <speed>22.670008822230308</speed>
  <fix>3d</fix>
</trkpt>
<trkpt lat="-27.2730716" lon="151.2978523">
  <ele>522.76</ele>
  <time>2026-09-01T20:01:23Z</time>
  <course>223.91</course>
  <speed>23.59</speed>
  <fix>3d</fix>
</trkpt>
<trkpt lat="-27.2731323" lon="151.2977871">
  <ele>522.66</ele>
  <time>2026-09-01T20:01:23Z</time>
  <course>223.77</course>
  <speed>22.38799901733069</speed>
  <fix>3d</fix>
</trkpt>
<trkpt lat="-27.2731018" lon="151.2978197">
  <ele>522.71</ele>
  <time>2026-09-01T20:01:23Z</time>
  <course>223.65</course>
  <speed>22.98</speed>
  <fix>3d</fix>
</trkpt>
<trkpt lat="-27.2731468" lon="151.2977717">
  <ele>522.62</ele>
  <time>2026-09-01T20:01:23Z</time>
  <course>223.65</course>
  <speed>22.11291477847278</speed>
  <fix>3d</fix>
</trkpt>
<trkpt lat="-27.2731018" lon="151.2978197">
  <ele>522.71</ele>
  <time>2026-09-01T20:01:23Z</time>
  <course>223.65</course>
  <speed>22.98</speed>
  <fix>3d</fix>
</trkpt>
<trkpt lat="-27.2731611" lon="151.2977564">
  <ele>522.57</ele>
  <time>2026-09-01T20:01:23Z</time>
  <course>223.55</course>
  <speed>21.844729341422386</speed>
  <fix>3d</fix>
</trkpt>
<trkpt lat="-27.2731313" lon="151.2977881">
  <ele>522.66</ele>
  <time>2026-09-01T20:01:23Z</time>
  <course>223.47</course>
  <speed>22.41</speed>
  <fix>3d</fix>
</trkpt>
<trkpt lat="-27.2731753" lon="151.2977414">
  <ele>522.52</ele>
  <time>2026-09-01T20:01:23Z</time>
  <course>223.46</course>
  <speed>21.604837421281374</speed>
  <fix>3d</fix>
</trkpt>
<trkpt lat="-27.2731313" lon="151.2977881">
  <ele>522.66</ele>
  <time>2026-09-01T20:01:23Z</time>
  <course>223.47</course>
  <speed>22.41</speed>
  <fix>3d</fix>
</trkpt>
<trkpt lat="-27.2731894" lon="151.2977264">
  <ele>522.46</ele>
  <time>2026-09-01T20:01:23Z</time>
  <course>223.38</course>
  <speed>21.3508313655464</speed>
  <fix>3d</fix>
</trkpt>
<trkpt lat="-27.2731602" lon="151.2977574">
  <ele>522.57</ele>
  <time>2026-09-01T20:01:23Z</time>
  <course>223.33</course>
  <speed>21.87</speed>
  <fix>3d</fix>
</trkpt>
<trkpt lat="-27.2732033" lon="151.2977118">
  <ele>522.38</ele>
  <time>2026-09-01T20:01:23Z</time>
  <course>223.31</course>
  <speed>21.11782422504743</speed>
  <fix>3d</fix>
</trkpt>
<trkpt lat="-27.2731602" lon="151.2977574">
  <ele>522.57</ele>
  <time>2026-09-01T20:01:23Z</time>
  <course>223.33</course>
  <speed>21.87</speed>
  <fix>3d</fix>
</trkpt>
<trkpt lat="-27.2732171" lon="151.2976972">
  <ele>522.29</ele>
  <time>2026-09-01T20:01:23Z</time>
  <course>223.25</course>
  <speed>20.8989616966968</speed>
  <fix>3d</fix>
</trkpt>
<trkpt lat="-27.2731885" lon="151.2977273">
  <ele>522.45</ele>
  <time>2026-09-01T20:01:23Z</time>
  <course>223.22</course>
  <speed>21.38</speed>
  <fix>3d</fix>
</trkpt>
<trkpt lat="-27.2732307" lon="151.2976828">
  <ele>522.19</ele>
  <time>2026-09-01T20:01:23Z</time>
  <course>223.2</course>
  <speed>20.687411631231203</speed>
  <fix>3d</fix>
</trkpt>
<trkpt lat="-27.2731885" lon="151.2977273">
  <ele>522.45</ele>
  <time>2026-09-01T20:01:23Z</time>
  <course>223.22</course>
  <speed>21.38</speed>
  <fix>3d</fix>
</trkpt>
<trkpt lat="-27.2732442" lon="151.2976687">
  <ele>522.08</ele>
  <time>2026-09-01T20:01:23Z</time>
  <course>223.15</course>
  <speed>20.482707340583666</speed>
  <fix>3d</fix>
</trkpt>
<trkpt lat="-27.2732162" lon="151.2976981">
  <ele>522.29</ele>
  <time>2026-09-01T20:01:23Z</time>
  <course>223.13</course>
  <speed>20.92</speed>
  <fix>3d</fix>
</trkpt>
<trkpt lat="-27.2732576" lon="151.2976545">
  <ele>521.96</ele>
  <time>2026-09-01T20:01:23Z</time>
  <course>223.11</course>
  <speed>20.292146264010615</speed>
  <fix>3d</fix>
</trkpt>
<trkpt lat="-27.2732162" lon="151.2976981">
  <ele>522.29</ele>
  <time>2026-09-01T20:01:23Z</time>
  <course>223.13</course>
  <speed>20.92</speed>
  <fix>3d</fix>
</trkpt>
<trkpt lat="-27.2732709" lon="151.2976407">
  <ele>521.83</ele>
  <time>2026-09-01T20:01:23Z</time>
  <course>223.06</course>
  <speed>20.101594464121497</speed>
  <fix>3d</fix>
</trkpt>
<trkpt lat="-27.2732434" lon="151.2976694">
  <ele>522.08</ele>
  <time>2026-09-01T20:01:23Z</time>
  <course>223.04</course>
  <speed>20.5</speed>
  <fix>3d</fix>
</trkpt>
<trkpt lat="-27.2732837" lon="151.2976272">
  <ele>521.7</ele>
  <time>2026-09-01T20:01:23Z</time>
  <course>223.02</course>
  <speed>19.9319968894238</speed>
  <fix>3d</fix>
</trkpt>
<trkpt lat="-27.2732434" lon="151.2976694">
  <ele>522.08</ele>
  <time>2026-09-01T20:01:23Z</time>
  <course>223.04</course>
  <speed>20.5</speed>
  <fix>3d</fix>
</trkpt>
<trkpt lat="-27.2732972" lon="151.2976132">
  <ele>521.54</ele>
  <time>2026-09-01T20:01:23Z</time>
  <course>222.98</course>
  <speed>19.7555916135154</speed>
  <fix>3d</fix>
</trkpt>
<trkpt lat="-27.2732701" lon="151.2976414">
  <ele>521.83</ele>
  <time>2026-09-01T20:01:23Z</time>
  <course>222.97</course>
  <speed>20.12</speed>
  <fix>3d</fix>
</trkpt>
<trkpt lat="-27.2733101" lon="151.2975995">
  <ele>521.39</ele>
  <time>2026-09-01T20:01:23Z</time>
  <course>222.94</course>
  <speed>19.593327946012643</speed>
  <fix>3d</fix>
</trkpt>
<trkpt lat="-27.2732701" lon="151.2976414">
  <ele>521.83</ele>
  <time>2026-09-01T20:01:23Z</time>
  <course>222.97</course>
  <speed>20.12</speed>
  <fix>3d</fix>
</trkpt>
<trkpt lat="-27.273323" lon="151.2975861">
  <ele>521.23</ele>
  <time>2026-09-01T20:01:23Z</time>
  <course>222.91</course>
  <speed>19.445205064488263</speed>
  <fix>3d</fix>
</trkpt>
<trkpt lat="-27.2732964" lon="151.297614">
  <ele>521.55</ele>
  <time>2026-09-01T20:01:23Z</time>
  <course>222.9</course>
  <speed>19.77</speed>
  <fix>3d</fix>
</trkpt>
<trkpt lat="-27.2733358" lon="151.2975729">
  <ele>521.07</ele>
  <time>2026-09-01T20:01:23Z</time>
  <course>222.88</course>
  <speed>19.289753756852367</speed>
  <fix>3d</fix>
</trkpt>
<trkpt lat="-27.2732964" lon="151.297614">
  <ele>521.55</ele>
  <time>2026-09-01T20:01:23Z</time>
  <course>222.9</course>
  <speed>19.77</speed>
  <fix>3d</fix>
</trkpt>
<trkpt lat="-27.2733484" lon="151.2975597">
  <ele>520.9</ele>
  <time>2026-09-01T20:01:23Z</time>
  <course>222.84</course>
  <speed>19.141643085169047</speed>
  <fix>3d</fix>
</trkpt>
<trkpt lat="-27.2733222" lon="151.297587">
  <ele>521.24</ele>
  <time>2026-09-01T20:01:23Z</time>
  <course>222.84</course>
  <speed>19.45</speed>
  <fix>3d</fix>
</trkpt>
<trkpt lat="-27.273361" lon="151.2975466">
  <ele>520.73</ele>
  <time>2026-09-01T20:01:23Z</time>
  <course>222.81</course>
  <speed>19.007672135219504</speed>
  <fix>3d</fix>
</trkpt>
<trkpt lat="-27.2733222" lon="151.297587">
  <ele>521.24</ele>
  <time>2026-09-01T20:01:23Z</time>
  <course>222.84</course>
  <speed>19.45</speed>
  <fix>3d</fix>
</trkpt>
<trkpt lat="-27.2733735" lon="151.2975335">
  <ele>520.54</ele>
  <time>2026-09-01T20:01:23Z</time>
  <course>222.78</course>
  <speed>18.88049257832009</speed>
  <fix>3d</fix>
</trkpt>
<trkpt lat="-27.2733476" lon="151.2975605">
  <ele>520.91</ele>
  <time>2026-09-01T20:01:23Z</time>
  <course>222.78</course>
  <speed>19.16</speed>
  <fix>3d</fix>
</trkpt>
<trkpt lat="-27.2733859" lon="151.2975208">
  <ele>520.37</ele>
  <time>2026-09-01T20:01:23Z</time>
  <course>222.75</course>
  <speed>18.746533012799993</speed>
  <fix>3d</fix>
</trkpt>
<trkpt lat="-27.2733476" lon="151.2975605">
  <ele>520.91</ele>
  <time>2026-09-01T20:01:23Z</time>
  <course>222.78</course>
  <speed>19.16</speed>
  <fix>3d</fix>
</trkpt>
<trkpt lat="-27.2733983" lon="151.2975079">
  <ele>520.19</ele>
  <time>2026-09-01T20:01:23Z</time>
  <course>222.72</course>
  <speed>18.61935820591032</speed>
  <fix>3d</fix>
</trkpt>
<trkpt lat="-27.2733727" lon="151.2975344">
  <ele>520.56</ele>
  <time>2026-09-01T20:01:23Z</time>
  <course>222.72</course>
  <speed>18.89</speed>
  <fix>3d</fix>
</trkpt>
<trkpt lat="-27.2734105" lon="151.2974951">
  <ele>520.01</ele>
  <time>2026-09-01T20:01:23Z</time>
  <course>222.7</course>
  <speed>18.506315138352097</speed>
  <fix>3d</fix>
</trkpt>
<trkpt lat="-27.2733727" lon="151.2975344">
  <ele>520.56</ele>
  <time>2026-09-01T20:01:23Z</time>
  <course>222.72</course>
  <speed>18.89</speed>
  <fix>3d</fix>
</trkpt>
<trkpt lat="-27.2734227" lon="151.2974826">
  <ele>519.82</ele>
  <time>2026-09-01T20:01:23Z</time>
  <course>222.67</course>
  <speed>18.386500482691098</speed>
  <fix>3d</fix>
</trkpt>
<trkpt lat="-27.2733975" lon="151.2975087">
  <ele>520.2</ele>
  <time>2026-09-01T20:01:23Z</time>
  <course>222.67</course>
  <speed>18.64</speed>
  <fix>3d</fix>
</trkpt>
<trkpt lat="-27.2734348" lon="151.2974701">
  <ele>519.63</ele>
  <time>2026-09-01T20:01:23Z</time>
  <course>222.64</course>
  <speed>18.280823285618183</speed>
  <fix>3d</fix>
</trkpt>
<trkpt lat="-27.2733975" lon="151.2975087">
  <ele>520.2</ele>
  <time>2026-09-01T20:01:23Z</time>
  <course>222.67</course>
  <speed>18.64</speed>
  <fix>3d</fix>
</trkpt>
<trkpt lat="-27.2734469" lon="151.2974576">
  <ele>519.44</ele>
  <time>2026-09-01T20:01:23Z</time>
  <course>222.62</course>
  <speed>18.167787427202025</speed>
  <fix>3d</fix>
</trkpt>
<trkpt lat="-27.2734219" lon="151.2974833">
  <ele>519.83</ele>
  <time>2026-09-01T20:01:23Z</time>
  <course>222.61</course>
  <speed>18.4</speed>
  <fix>3d</fix>
</trkpt>
<trkpt lat="-27.2734589" lon="151.2974452">
  <ele>519.25</ele>
  <time>2026-09-01T20:01:23Z</time>
  <course>222.59</course>
  <speed>18.062120584250344</speed>
  <fix>3d</fix>
</trkpt>
<trkpt lat="-27.2734219" lon="151.2974833">
  <ele>519.83</ele>
  <time>2026-09-01T20:01:23Z</time>
  <course>222.61</course>
  <speed>18.4</speed>
  <fix>3d</fix>
</trkpt>
<trkpt lat="-27.2734708" lon="151.2974329">
  <ele>519.06</ele>
  <time>2026-09-01T20:01:23Z</time>
  <course>222.57</course>
  <speed>17.963217974516702</speed>
  <fix>3d</fix>
</trkpt>
<trkpt lat="-27.2734461" lon="151.2974583">
  <ele>519.45</ele>
  <time>2026-09-01T20:01:23Z</time>
  <course>222.57</course>
  <speed>18.18</speed>
  <fix>3d</fix>
</trkpt>
<trkpt lat="-27.2734827" lon="151.2974207">
  <ele>518.87</ele>
  <time>2026-09-01T20:01:23Z</time>
  <course>222.55</course>
  <speed>17.86431638770429</speed>
  <fix>3d</fix>
</trkpt>
<trkpt lat="-27.2734461" lon="151.2974583">
  <ele>519.45</ele>
  <time>2026-09-01T20:01:23Z</time>
  <course>222.57</course>
  <speed>18.18</speed>
  <fix>3d</fix>
</trkpt>
<trkpt lat="-27.2734945" lon="151.2974085">
  <ele>518.66</ele>
  <time>2026-09-01T20:01:23Z</time>
  <course>222.52</course>
  <speed>17.765415840897166</speed>
  <fix>3d</fix>
</trkpt>
<trkpt lat="-27.2734701" lon="151.2974336">
  <ele>519.07</ele>
  <time>2026-09-01T20:01:23Z</time>
  <course>222.52</course>
  <speed>17.97</speed>
  <fix>3d</fix>
</trkpt>
<trkpt lat="-27.2735062" lon="151.2973964">
  <ele>518.48</ele>
  <time>2026-09-01T20:01:23Z</time>
  <course>222.5</course>
  <speed>17.673893176094506</speed>
  <fix>3d</fix>
</trkpt>
<trkpt lat="-27.2734701" lon="151.2974336">
  <ele>519.07</ele>
  <time>2026-09-01T20:01:23Z</time>
  <course>222.52</course>
  <speed>17.97</speed>
  <fix>3d</fix>
</trkpt>
<trkpt lat="-27.2735179" lon="151.2973844">
  <ele>518.28</ele>
  <time>2026-09-01T20:01:23Z</time>
  <course>222.48</course>
  <speed>17.574996443811873</speed>
  <fix>3d</fix>
</trkpt>
<trkpt lat="-27.2734938" lon="151.2974092">
  <ele>518.68</ele>
  <time>2026-09-01T20:01:23Z</time>
  <course>222.48</course>
  <speed>17.77</speed>
  <fix>3d</fix>
</trkpt>
<trkpt lat="-27.2735295" lon="151.2973725">
  <ele>518.08</ele>
  <time>2026-09-01T20:01:23Z</time>
  <course>222.46</course>
  <speed>17.490228700620243</speed>
  <fix>3d</fix>
</trkpt>
<trkpt lat="-27.2734938" lon="151.2974092">
  <ele>518.68</ele>
  <time>2026-09-01T20:01:23Z</time>
  <course>222.48</course>
  <speed>17.77</speed>
  <fix>3d</fix>
</trkpt>
<trkpt lat="-27.271709" lon="151.3014337">
  <ele>540.33</ele>
  <time>2026-09-01T20:01:23Z</time>
  <course>250.73</course>
  <speed>11.833275117227691</speed>
  <fix>3d</fix>
</trkpt>
<trkpt lat="-27.2735172" lon="151.297385">
  <ele>518.29</ele>
  <time>2026-09-01T20:01:23Z</time>
  <course>222.43</course>
  <speed>17.59</speed>
  <fix>3d</fix>
</trkpt>
<trkpt lat="-27.2717117" lon="151.3014224">
  <ele>536.48</ele>
  <time>2026-09-01T20:01:23Z</time>
  <course>249.0</course>
  <speed>11.716164048015033</speed>
  <fix>3d</fix>
</trkpt>
<trkpt lat="-27.2735172" lon="151.297385">
  <ele>518.29</ele>
  <time>2026-09-01T20:01:23Z</time>
  <course>222.43</course>
  <speed>17.59</speed>
  <fix>3d</fix>
</trkpt>
<trkpt lat="-27.2717158" lon="151.3014107">
  <ele>532.65</ele>
  <time>2026-09-01T20:01:23Z</time>
  <course>234.61</course>
  <speed>13.166563712677656</speed>
  <fix>3d</fix>
</trkpt>
<trkpt lat="-27.2726202" lon="151.299398">
  <ele>527.38</ele>
  <time>2026-09-01T20:01:23Z</time>
  <course>234.86</course>
  <speed>14.06</speed>
  <fix>3d</fix>
</trkpt>
<trkpt lat="-27.2717229" lon="151.3013993">
  <ele>528.88</ele>
  <time>2026-09-01T20:01:23Z</time>
  <course>214.73</course>
  <speed>14.425688891695952</speed>
  <fix>3d</fix>
</trkpt>
<trkpt lat="-27.2726202" lon="151.299398">
  <ele>527.38</ele>
  <time>2026-09-01T20:01:23Z</time>
  <course>234.86</course>
  <speed>14.06</speed>
  <fix>3d</fix>
</trkpt>
<trkpt lat="-27.2717329" lon="151.3013896">
  <ele>525.15</ele>
  <time>2026-09-01T20:01:23Z</time>
  <course>201.45</course>
  <speed>14.817516661033318</speed>
  <fix>3d</fix>
</trkpt>
<trkpt lat="-27.271717" lon="151.3014114">
  <ele>532.87</ele>
  <time>2026-09-01T20:01:23Z</time>
  <course>239.29</course>
  <speed>12.69</speed>
  <fix>3d</fix>
</trkpt>
<trkpt lat="-27.2717439" lon="151.3013806">
  <ele>521.43</ele>
  <time>2026-09-01T20:01:23Z</time>
  <course>209.48</course>
  <speed>16.101754562779796</speed>
  <fix>3d</fix>
</trkpt>
<trkpt lat="-27.271717" lon="151.3014114">
  <ele>532.87</ele>
  <time>2026-09-01T20:01:23Z</time>
  <course>239.29</course>
  <speed>12.69</speed>
  <fix>3d</fix>
</trkpt>
<trkpt lat="-27.271755" lon="151.3013656">
  <ele>517.9</ele>
  <time>2026-09-01T20:01:23Z</time>
  <course>226.32</course>
  <speed>23.087202082539147</speed>
  <fix>3d</fix>
</trkpt>
<trkpt lat="-27.2717329" lon="151.3013905">
  <ele>525.33</ele>
  <time>2026-09-01T20:01:23Z</time>
  <course>223.56</course>
  <speed>15.12</speed>
  <fix>3d</fix>
</trkpt>
<trkpt lat="-27.2717671" lon="151.301342">
  <ele>515.04</ele>
  <time>2026-09-01T20:01:23Z</time>
  <course>234.13</course>
  <speed>30.634976742279406</speed>
  <fix>3d</fix>
</trkpt>
<trkpt lat="-27.2717329" lon="151.3013905">
  <ele>525.33</ele>
  <time>2026-09-01T20:01:23Z</time>
  <course>223.56</course>
  <speed>15.12</speed>
  <fix>3d</fix>
</trkpt>
<trkpt lat="-27.2717812" lon="151.3013124">
  <ele>513.1</ele>
  <time>2026-09-01T20:01:23Z</time>
  <course>235.7</course>
  <speed>35.368071759710055</speed>
  <fix>3d</fix>
</trkpt>
<trkpt lat="-27.2717548" lon="151.3013623">
  <ele>518.4</ele>
  <time>2026-09-01T20:01:23Z</time>
  <course>234.13</course>
  <speed>22.72</speed>
  <fix>3d</fix>
</trkpt>
<trkpt lat="-27.2717979" lon="151.3012807">
  <ele>512.09</ele>
  <time>2026-09-01T20:01:23Z</time>
  <course>231.46</course>
  <speed>37.06850415109841</speed>
  <fix>3d</fix>
</trkpt>
<trkpt lat="-27.2717548" lon="151.3013623">
  <ele>518.4</ele>
  <time>2026-09-01T20:01:23Z</time>
  <course>234.13</course>
  <speed>22.72</speed>
  <fix>3d</fix>
</trkpt>
<trkpt lat="-27.2718174" lon="151.3012504">
  <ele>511.89</ele>
  <time>2026-09-01T20:01:23Z</time>
  <course>224.37</course>
  <speed>36.673709929593976</speed>
  <fix>3d</fix>
</trkpt>
<trkpt lat="-27.2717815" lon="151.301313">
  <ele>513.65</ele>
  <time>2026-09-01T20:01:23Z</time>
  <course>239.28</course>
  <speed>33.63</speed>
  <fix>3d</fix>
</trkpt>
<trkpt lat="-27.2718398" lon="151.3012242">
  <ele>512.28</ele>
  <time>2026-09-01T20:01:23Z</time>
  <course>217.02</course>
  <speed>35.360391683351025</speed>
  <fix>3d</fix>
</trkpt>
<trkpt lat="-27.2717815" lon="151.301313">
  <ele>513.65</ele>
  <time>2026-09-01T20:01:23Z</time>
  <course>239.28</course>
  <speed>33.63</speed>
  <fix>3d</fix>
</trkpt>
<trkpt lat="-27.2718642" lon="151.3012025">
  <ele>513.04</ele>
  <time>2026-09-01T20:01:23Z</time>
  <course>210.47</course>
  <speed>33.89606761853062</speed>
  <fix>3d</fix>
</trkpt>
<trkpt lat="-27.2718176" lon="151.301254">
  <ele>512.18</ele>
  <time>2026-09-01T20:01:23Z</time>
  <course>230.23</course>
  <speed>35.95</speed>
  <fix>3d</fix>
</trkpt>
<trkpt lat="-27.2718899" lon="151.3011856">
  <ele>514.04</ele>
  <time>2026-09-01T20:01:23Z</time>
  <course>205.24</course>
  <speed>32.60316702407911</speed>
  <fix>3d</fix>
</trkpt>
<trkpt lat="-27.2718176" lon="151.301254">
  <ele>512.18</ele>
  <time>2026-09-01T20:01:23Z</time>
  <course>230.23</course>
  <speed>35.95</speed>
  <fix>3d</fix>
</trkpt>
<trkpt lat="-27.2719161" lon="151.3011723">
  <ele>515.16</ele>
  <time>2026-09-01T20:01:23Z</time>
  <course>201.54</course>
  <speed>31.51096634506787</speed>
  <fix>3d</fix>
</trkpt>
<trkpt lat="-27.2718634" lon="151.301206">
  <ele>513.11</ele>
  <time>2026-09-01T20:01:23Z</time>
  <course>215.4</course>
  <speed>33.76</speed>
  <fix>3d</fix>
</trkpt>
<trkpt lat="-27.2719424" lon="151.3011618">
  <ele>516.35</ele>
  <time>2026-09-01T20:01:23Z</time>
  <course>199.49</course>
  <speed>30.61015681109785</speed>
  <fix>3d</fix>
</trkpt>
<trkpt lat="-27.2718634" lon="151.301206">
  <ele>513.11</ele>
  <time>2026-09-01T20:01:23Z</time>
  <course>215.4</course>
  <speed>33.76</speed>
  <fix>3d</fix>
</trkpt>
<trkpt lat="-27.2719685" lon="151.3011531">
  <ele>517.56</ele>
  <time>2026-09-01T20:01:23Z</time>
  <course>198.75</course>
  <speed>29.896402793647265</speed>
  <fix>3d</fix>
</trkpt>
<trkpt lat="-27.2719146" lon="151.3011744">
  <ele>515.13</ele>
  <time>2026-09-01T20:01:23Z</time>
  <course>202.82</course>
  <speed>31.56</speed>
  <fix>3d</fix>
</trkpt>
<trkpt lat="-27.2719942" lon="151.3011455">
  <ele>518.76</ele>
  <time>2026-09-01T20:01:24Z</time>
  <course>198.77</course>
  <speed>29.34728777928209</speed>
  <fix>3d</fix>
</trkpt>
<trkpt lat="-27.2719146" lon="151.3011744">
  <ele>515.13</ele>
  <time>2026-09-01T20:01:24Z</time>
  <course>202.82</course>
  <speed>31.56</speed>
  <fix>3d</fix>
</trkpt>
<trkpt lat="-27.2720195" lon="151.3011383">
  <ele>519.93</ele>
  <time>2026-09-01T20:01:24Z</time>
  <course>198.88</course>
  <speed>28.963627189977434</speed>
  <fix>3d</fix>
</trkpt>
<trkpt lat="-27.2719668" lon="151.3011541">
  <ele>517.49</ele>
  <time>2026-09-01T20:01:24Z</time>
  <course>196.17</course>
  <speed>30.0</speed>
  <fix>3d</fix>
</trkpt>
<trkpt lat="-27.2720446" lon="151.3011311">
  <ele>521.03</ele>
  <time>2026-09-01T20:01:24Z</time>
  <course>198.77</course>
  <speed>28.709240672647542</speed>
  <fix>3d</fix>
</trkpt>
<trkpt lat="-27.2719668" lon="151.3011541">
  <ele>517.49</ele>
  <time>2026-09-01T20:01:24Z</time>
  <course>196.17</course>
  <speed>30.0</speed>
  <fix>3d</fix>
</trkpt>
<trkpt lat="-27.2720695" lon="151.3011239">
  <ele>522.03</ele>
  <time>2026-09-01T20:01:24Z</time>
  <course>198.31</course>
  <speed>28.55775376320764</speed>
  <fix>3d</fix>
</trkpt>
<trkpt lat="-27.2720181" lon="151.3011387">
  <ele>519.83</ele>
  <time>2026-09-01T20:01:24Z</time>
  <course>194.34</course>
  <speed>29.05</speed>
  <fix>3d</fix>
</trkpt>
<trkpt lat="-27.2720943" lon="151.3011166">
  <ele>522.91</ele>
  <time>2026-09-01T20:01:24Z</time>
  <course>197.5</course>
  <speed>28.460128249886715</speed>
  <fix>3d</fix>
</trkpt>
<trkpt lat="-27.2720181" lon="151.3011387">
  <ele>519.83</ele>
  <time>2026-09-01T20:01:24Z</time>
  <course>194.34</course>
  <speed>29.05</speed>
  <fix>3d</fix>
</trkpt>
<trkpt lat="-27.2721189" lon="151.3011091">
  <ele>523.7</ele>
  <time>2026-09-01T20:01:24Z</time>
  <course>196.57</course>
  <speed>28.384293191834107</speed>
  <fix>3d</fix>
</trkpt>
<trkpt lat="-27.2720682" lon="151.3011243">
  <ele>521.92</ele>
  <time>2026-09-01T20:01:24Z</time>
  <course>194.61</course>
  <speed>28.59</speed>
  <fix>3d</fix>
</trkpt>
<trkpt lat="-27.2721435" lon="151.3011017">
  <ele>524.36</ele>
  <time>2026-09-01T20:01:24Z</time>
  <course>195.72</course>
  <speed>28.285998303047396</speed>
  <fix>3d</fix>
</trkpt>
<trkpt lat="-27.2720682" lon="151.3011243">
  <ele>521.92</ele>
  <time>2026-09-01T20:01:24Z</time>
  <course>194.61</course>
  <speed>28.59</speed>
  <fix>3d</fix>
</trkpt>
<trkpt lat="-27.2721679" lon="151.3010941">
  <ele>524.91</ele>
  <time>2026-09-01T20:01:24Z</time>
  <course>194.95</course>
  <speed>28.17817950116721</speed>
  <fix>3d</fix>
</trkpt>
<trkpt lat="-27.2721176" lon="151.3011095">
  <ele>523.6</ele>
  <time>2026-09-01T20:01:24Z</time>
  <course>195.09</course>
  <speed>28.38</speed>
  <fix>3d</fix>
</trkpt>
<trkpt lat="-27.2721923" lon="151.3010866">
  <ele>525.38</ele>
  <time>2026-09-01T20:01:24Z</time>
  <course>194.34</course>
  <speed>28.058184189287804</speed>
  <fix>3d</fix>
</trkpt>
<trkpt lat="-27.2721176" lon="151.3011095">
  <ele>523.6</ele>
  <time>2026-09-01T20:01:24Z</time>
  <course>195.09</course>
  <speed>28.38</speed>
  <fix>3d</fix>
</trkpt>
<trkpt lat="-27.2722165" lon="151.3010789">
  <ele>525.74</ele>
  <time>2026-09-01T20:01:24Z</time>
  <course>194.03</course>
  <speed>27.93944344470734</speed>
  <fix>3d</fix>
</trkpt>
<trkpt lat="-27.2721667" lon="151.3010944">
  <ele>524.84</ele>
  <time>2026-09-01T20:01:24Z</time>
  <course>195.37</course>
  <speed>28.18</speed>
  <fix>3d</fix>
</trkpt>
<trkpt lat="-27.2722406" lon="151.3010713">
  <ele>526.03</ele>
  <time>2026-09-01T20:01:24Z</time>
  <course>193.97</course>
  <speed>27.815520847181705</speed>
  <fix>3d</fix>
</trkpt>
<trkpt lat="-27.2721667" lon="151.3010944">
  <ele>524.84</ele>
  <time>2026-09-01T20:01:24Z</time>
  <course>195.37</course>
  <speed>28.18</speed>
  <fix>3d</fix>
</trkpt>
<trkpt lat="-27.2722645" lon="151.3010634">
  <ele>526.25</ele>
  <time>2026-09-01T20:01:24Z</time>
  <course>194.11</course>
  <speed>27.699707579683942</speed>
  <fix>3d</fix>
</trkpt>
<trkpt lat="-27.2722152" lon="151.3010793">
  <ele>525.69</ele>
  <time>2026-09-01T20:01:24Z</time>
  <course>195.73</course>
  <speed>27.94</speed>
  <fix>3d</fix>
</trkpt>
<trkpt lat="-27.2722883" lon="151.3010554">
  <ele>526.41</ele>
  <time>2026-09-01T20:01:24Z</time>
  <course>194.45</course>
  <speed>27.583835846379305</speed>
  <fix>3d</fix>
</trkpt>
<trkpt lat="-27.2722152" lon="151.3010793">
  <ele>525.69</ele>
  <time>2026-09-01T20:01:24Z</time>
  <course>195.73</course>
  <speed>27.94</speed>
  <fix>3d</fix>
</trkpt>
<trkpt lat="-27.2723119" lon="151.3010471">
  <ele>526.52</ele>
  <time>2026-09-01T20:01:24Z</time>
  <course>195.02</course>
  <speed>27.491920631341856</speed>
  <fix>3d</fix>
</trkpt>
<trkpt lat="-27.2722632" lon="151.3010637">
  <ele>526.21</ele>
  <time>2026-09-01T20:01:24Z</time>
  <course>196.47</course>
  <speed>27.71</speed>
  <fix>3d</fix>
</trkpt>
<trkpt lat="-27.2723354" lon="151.3010385">
  <ele>526.58</ele>
  <time>2026-09-01T20:01:24Z</time>
  <course>195.81</course>
  <speed>27.40435731776974</speed>
  <fix>3d</fix>
</trkpt>
<trkpt lat="-27.2722632" lon="151.3010637">
  <ele>526.21</ele>
  <time>2026-09-01T20:01:24Z</time>
  <course>196.47</course>
  <speed>27.71</speed>
  <fix>3d</fix>
</trkpt>
<trkpt lat="-27.2723586" lon="151.3010295">
  <ele>526.6</ele>
  <time>2026-09-01T20:01:24Z</time>
  <course>196.76</course>
  <speed>27.333444715220217</speed>
  <fix>3d</fix>
</trkpt>
<trkpt lat="-27.2723106" lon="151.3010473">
  <ele>526.49</ele>
  <time>2026-09-01T20:01:24Z</time>
  <course>197.74</course>
  <speed>27.5</speed>
  <fix>3d</fix>
</trkpt>
<trkpt lat="-27.2723816" lon="151.30102">
  <ele>526.59</ele>
  <time>2026-09-01T20:01:24Z</time>
  <course>197.84</course>
  <speed>27.263611279505877</speed>
  <fix>3d</fix>
</trkpt>
<trkpt lat="-27.2723106" lon="151.3010473">
  <ele>526.49</ele>
  <time>2026-09-01T20:01:24Z</time>
  <course>197.74</course>
  <speed>27.5</speed>
  <fix>3d</fix>
</trkpt>
<trkpt lat="-27.2724046" lon="151.3010099">
  <ele>526.54</ele>
  <time>2026-09-01T20:01:24Z</time>
  <course>199.05</course>
  <speed>27.213691407084042</speed>
  <fix>3d</fix>
</trkpt>
<trkpt lat="-27.2723573" lon="151.3010296">
  <ele>526.58</ele>
  <time>2026-09-01T20:01:24Z</time>
  <course>199.56</course>
  <speed>27.34</speed>
  <fix>3d</fix>
</trkpt>
<trkpt lat="-27.2724271" lon="151.3009994">
  <ele>526.48</ele>
  <time>2026-09-01T20:01:24Z</time>
  <course>200.38</course>
  <speed>27.160738207935363</speed>
  <fix>3d</fix>
</trkpt>
<trkpt lat="-27.2723573" lon="151.3010296">
  <ele>526.58</ele>
  <time>2026-09-01T20:01:24Z</time>
  <course>199.56</course>
  <speed>27.34</speed>
  <fix>3d</fix>
</trkpt>
<trkpt lat="-27.2724494" lon="151.3009882">
  <ele>526.39</ele>
  <time>2026-09-01T20:01:24Z</time>
  <course>201.85</course>
  <speed>27.129904164961587</speed>
  <fix>3d</fix>
</trkpt>
<trkpt lat="-27.2724031" lon="151.3010102">
  <ele>526.53</ele>
  <time>2026-09-01T20:01:24Z</time>
  <course>201.88</course>
  <speed>27.21</speed>
  <fix>3d</fix>
</trkpt>
<trkpt lat="-27.2724714" lon="151.3009765">
  <ele>526.28</ele>
  <time>2026-09-01T20:01:24Z</time>
  <course>203.32</course>
  <speed>27.09748696835188</speed>
  <fix>3d</fix>
</trkpt>
<trkpt lat="-27.2724031" lon="151.3010102">
  <ele>526.53</ele>
  <time>2026-09-01T20:01:24Z</time>
  <course>201.88</course>
  <speed>27.21</speed>
  <fix>3d</fix>
</trkpt>
<trkpt lat="-27.2724931" lon="151.300964">
  <ele>526.15</ele>
  <time>2026-09-01T20:01:24Z</time>
  <course>204.71</course>
  <speed>27.06552973802656</speed>
  <fix>3d</fix>
</trkpt>
<trkpt lat="-27.2724479" lon="151.3009885">
  <ele>526.38</ele>
  <time>2026-09-01T20:01:24Z</time>
  <course>204.59</course>
  <speed>27.12</speed>
  <fix>3d</fix>
</trkpt>
<trkpt lat="-27.2725145" lon="151.3009511">
  <ele>526.02</ele>
  <time>2026-09-01T20:01:24Z</time>
  <course>205.97</course>
  <speed>27.042547956877144</speed>
  <fix>3d</fix>
</trkpt>
<trkpt lat="-27.2724479" lon="151.3009885">
  <ele>526.38</ele>
  <time>2026-09-01T20:01:24Z</time>
  <course>204.59</course>
  <speed>27.12</speed>
  <fix>3d</fix>
</trkpt>
<trkpt lat="-27.2725356" lon="151.3009376">
  <ele>525.87</ele>
  <time>2026-09-01T20:01:24Z</time>
  <course>207.0</course>
  <speed>27.015554778682596</speed>
  <fix>3d</fix>
</trkpt>
<trkpt lat="-27.2724917" lon="151.3009645">
  <ele>526.15</ele>
  <time>2026-09-01T20:01:24Z</time>
  <course>207.53</course>
  <speed>27.06</speed>
  <fix>3d</fix>
</trkpt>
<trkpt lat="-27.2725563" lon="151.3009234">
  <ele>525.71</ele>
  <time>2026-09-01T20:01:24Z</time>
  <course>207.87</course>
  <speed>26.981845748576948</speed>
  <fix>3d</fix>
</trkpt>
<trkpt lat="-27.2724917" lon="151.3009645">
  <ele>526.15</ele>
  <time>2026-09-01T20:01:24Z</time>
  <course>207.53</course>
  <speed>27.06</speed>
  <fix>3d</fix>
</trkpt>
<trkpt lat="-27.2725769" lon="151.300909">
  <ele>525.54</ele>
  <time>2026-09-01T20:01:24Z</time>
  <course>208.65</course>
  <speed>26.941234195930964</speed>
  <fix>3d</fix>
</trkpt>
<trkpt lat="-27.2725343" lon="151.300938">
  <ele>525.87</ele>
  <time>2026-09-01T20:01:24Z</time>
  <course>210.29</course>
  <speed>27.01</speed>
  <fix>3d</fix>
</trkpt>
<trkpt lat="-27.2725971" lon="151.3008941">
  <ele>525.39</ele>
  <time>2026-09-01T20:01:24Z</time>
  <course>209.38</course>
  <speed>26.892298153932476</speed>
  <fix>3d</fix>
</trkpt>
<trkpt lat="-27.2725343" lon="151.300938">
  <ele>525.87</ele>
  <time>2026-09-01T20:01:24Z</time>
  <course>210.29</course>
  <speed>27.01</speed>
  <fix>3d</fix>
</trkpt>
<trkpt lat="-27.2726172" lon="151.3008791">
  <ele>525.22</ele>
  <time>2026-09-01T20:01:24Z</time>
  <course>210.12</course>
  <speed>26.847862112279998</speed>
  <fix>3d</fix>
</trkpt>
<trkpt lat="-27.2725757" lon="151.3009095">
  <ele>525.56</ele>
  <time>2026-09-01T20:01:24Z</time>
  <course>212.44</course>
  <speed>26.94</speed>
  <fix>3d</fix>
</trkpt>
<trkpt lat="-27.2726371" lon="151.3008639">
  <ele>525.03</ele>
  <time>2026-09-01T20:01:24Z</time>
  <course>210.87</course>
  <speed>26.797331956745246</speed>
  <fix>3d</fix>
</trkpt>
<trkpt lat="-27.2725757" lon="151.3009095">
  <ele>525.56</ele>
  <time>2026-09-01T20:01:24Z</time>
  <course>212.44</course>
  <speed>26.94</speed>
  <fix>3d</fix>
</trkpt>
<trkpt lat="-27.2726569" lon="151.3008485">
  <ele>524.84</ele>
  <time>2026-09-01T20:01:24Z</time>
  <course>211.58</course>
  <speed>26.756167513304295</speed>
  <fix>3d</fix>
</trkpt>
<trkpt lat="-27.2726161" lon="151.3008797">
  <ele>525.22</ele>
  <time>2026-09-01T20:01:24Z</time>
  <course>213.89</course>
  <speed>26.85</speed>
  <fix>3d</fix>
</trkpt>
<trkpt lat="-27.2726766" lon="151.3008329">
  <ele>524.65</ele>
  <time>2026-09-01T20:01:24Z</time>
  <course>212.22</course>
  <speed>26.707160088635405</speed>
  <fix>3d</fix>
</trkpt>
<trkpt lat="-27.2726161" lon="151.3008797">
  <ele>525.22</ele>
  <time>2026-09-01T20:01:24Z</time>
  <course>213.89</course>
  <speed>26.85</speed>
  <fix>3d</fix>
</trkpt>
<trkpt lat="-27.2726961" lon="151.3008173">
  <ele>524.44</ele>
  <time>2026-09-01T20:01:24Z</time>
  <course>212.78</course>
  <speed>26.66373004663826</speed>
  <fix>3d</fix>
</trkpt>
<trkpt lat="-27.2726558" lon="151.3008491">
  <ele>524.85</ele>
  <time>2026-09-01T20:01:24Z</time>
  <course>214.82</course>
  <speed>26.76</speed>
  <fix>3d</fix>
</trkpt>
<trkpt lat="-27.2727156" lon="151.3008017">
  <ele>524.22</ele>
  <time>2026-09-01T20:01:24Z</time>
  <course>213.31</course>
  <speed>26.62547652155732</speed>
  <fix>3d</fix>
</trkpt>
<trkpt lat="-27.2726558" lon="151.3008491">
  <ele>524.85</ele>
  <time>2026-09-01T20:01:24Z</time>
  <course>214.82</course>
  <speed>26.76</speed>
  <fix>3d</fix>
</trkpt>
<trkpt lat="-27.2727349" lon="151.3007859">
  <ele>524.0</ele>
  <time>2026-09-01T20:01:24Z</time>
  <course>213.75</course>
  <speed>26.592083408413114</speed>
  <fix>3d</fix>
</trkpt>
<trkpt lat="-27.2726951" lon="151.3008181">
  <ele>524.44</ele>
  <time>2026-09-01T20:01:24Z</time>
  <course>215.44</course>
  <speed>26.67</speed>
  <fix>3d</fix>
</trkpt>
<trkpt lat="-27.2727543" lon="151.3007702">
  <ele>523.78</ele>
  <time>2026-09-01T20:01:24Z</time>
  <course>214.09</course>
  <speed>26.561103139741768</speed>
  <fix>3d</fix>
</trkpt>
<trkpt lat="-27.2726951" lon="151.3008181">
  <ele>524.44</ele>
  <time>2026-09-01T20:01:24Z</time>
  <course>215.44</course>
  <speed>26.67</speed>
  <fix>3d</fix>
</trkpt>
<trkpt lat="-27.2727736" lon="151.3007544">
  <ele>523.56</ele>
  <time>2026-09-01T20:01:24Z</time>
  <course>214.36</course>
  <speed>26.526552734948428</speed>
  <fix>3d</fix>
</trkpt>
<trkpt lat="-27.2727339" lon="151.3007867">
  <ele>524.01</ele>
  <time>2026-09-01T20:01:24Z</time>
  <course>215.84</course>
  <speed>26.59</speed>
  <fix>3d</fix>
</trkpt>
<trkpt lat="-27.2727928" lon="151.3007386">
  <ele>523.35</ele>
  <time>2026-09-01T20:01:24Z</time>
  <course>214.64</course>
  <speed>26.502311219967215</speed>
  <fix>3d</fix>
</trkpt>
<trkpt lat="-27.2727339" lon="151.3007867">
  <ele>524.01</ele>
  <time>2026-09-01T20:01:24Z</time>
  <course>215.84</course>
  <speed>26.59</speed>
  <fix>3d</fix>
</trkpt>
<trkpt lat="-27.272812" lon="151.3007228">
  <ele>523.16</ele>
  <time>2026-09-01T20:01:24Z</time>
  <course>214.87</course>
  <speed>26.48026057273606</speed>
  <fix>3d</fix>
</trkpt>
<trkpt lat="-27.2727725" lon="151.3007552">
  <ele>523.57</ele>
  <time>2026-09-01T20:01:24Z</time>
  <course>216.05</course>
  <speed>26.53</speed>
  <fix>3d</fix>
</trkpt>
<trkpt lat="-27.2728312" lon="151.300707">
  <ele>522.98</ele>
  <time>2026-09-01T20:01:24Z</time>
  <course>215.0</course>
  <speed>26.446423198610432</speed>
  <fix>3d</fix>
</trkpt>
<trkpt lat="-27.2727725" lon="151.3007552">
  <ele>523.57</ele>
  <time>2026-09-01T20:01:24Z</time>
  <course>216.05</course>
  <speed>26.53</speed>
  <fix>3d</fix>
</trkpt>
<trkpt lat="-27.2728504" lon="151.3006914">
  <ele>522.83</ele>
  <time>2026-09-01T20:01:24Z</time>
  <course>215.07</course>
  <speed>26.408909481460988</speed>
  <fix>3d</fix>
</trkpt>
<trkpt lat="-27.272811" lon="151.3007236">
  <ele>523.17</ele>
  <time>2026-09-01T20:01:24Z</time>
  <course>216.1</course>
  <speed>26.48</speed>
  <fix>3d</fix>
</trkpt>
<trkpt lat="-27.2728696" lon="151.3006757">
  <ele>522.7</ele>
  <time>2026-09-01T20:01:24Z</time>
  <course>215.13</course>
  <speed>26.30834278323133</speed>
  <fix>3d</fix>
</trkpt>
<trkpt lat="-27.272811" lon="151.3007236">
  <ele>523.17</ele>
  <time>2026-09-01T20:01:24Z</time>
  <course>216.1</course>
  <speed>26.48</speed>
  <fix>3d</fix>
</trkpt>
<trkpt lat="-27.2728887" lon="151.3006603">
  <ele>522.57</ele>
  <time>2026-09-01T20:01:24Z</time>
  <course>215.14</course>
  <speed>26.153397484839324</speed>
  <fix>3d</fix>
</trkpt>
<trkpt lat="-27.2728494" lon="151.3006921">
  <ele>522.84</ele>
  <time>2026-09-01T20:01:24Z</time>
  <course>215.97</course>
  <speed>26.38</speed>
  <fix>3d</fix>
</trkpt>
<trkpt lat="-27.2729078" lon="151.300645">
  <ele>522.47</ele>
  <time>2026-09-01T20:01:24Z</time>
  <course>215.11</course>
  <speed>25.94264828424423</speed>
  <fix>3d</fix>
</trkpt>
<trkpt lat="-27.2728494" lon="151.3006921">
  <ele>522.84</ele>
  <time>2026-09-01T20:01:24Z</time>
  <course>215.97</course>
  <speed>26.38</speed>
  <fix>3d</fix>
</trkpt>
<trkpt lat="-27.2729268" lon="151.3006302">
  <ele>522.4</ele>
  <time>2026-09-01T20:01:24Z</time>
  <course>214.97</course>
  <speed>25.646771726671563</speed>
  <fix>3d</fix>
</trkpt>
<trkpt lat="-27.2728878" lon="151.300661">
  <ele>522.58</ele>
  <time>2026-09-01T20:01:24Z</time>
  <course>215.47</course>
  <speed>26.13</speed>
  <fix>3d</fix>
</trkpt>
<trkpt lat="-27.2729457" lon="151.3006155">
  <ele>522.37</ele>
  <time>2026-09-01T20:01:24Z</time>
  <course>214.8</course>
  <speed>25.30869020712056</speed>
  <fix>3d</fix>
</trkpt>
<trkpt lat="-27.2728878" lon="151.300661">
  <ele>522.58</ele>
  <time>2026-09-01T20:01:24Z</time>
  <course>215.47</course>
  <speed>26.13</speed>
  <fix>3d</fix>
</trkpt>
<trkpt lat="-27.2729646" lon="151.3006014">
  <ele>522.37</ele>
  <time>2026-09-01T20:01:24Z</time>
  <course>214.59</course>
  <speed>24.942112981862625</speed>
  <fix>3d</fix>
</trkpt>
<trkpt lat="-27.2729259" lon="151.3006309">
  <ele>522.41</ele>
  <time>2026-09-01T20:01:24Z</time>
  <course>214.59</course>
  <speed>25.64</speed>
  <fix>3d</fix>
</trkpt>
<trkpt lat="-27.2729832" lon="151.3005876">
  <ele>522.39</ele>
  <time>2026-09-01T20:01:24Z</time>
  <course>214.37</course>
  <speed>24.576673900265675</speed>
  <fix>3d</fix>
</trkpt>
<trkpt lat="-27.2729259" lon="151.3006309">
  <ele>522.41</ele>
  <time>2026-09-01T20:01:24Z</time>
  <course>214.59</course>
  <speed>25.64</speed>
  <fix>3d</fix>
</trkpt>
<trkpt lat="-27.2730015" lon="151.3005741">
  <ele>522.41</ele>
  <time>2026-09-01T20:01:24Z</time>
  <course>214.1</course>
  <speed>24.22263610757508</speed>
  <fix>3d</fix>
</trkpt>
<trkpt lat="-27.2729636" lon="151.3006022">
  <ele>522.38</ele>
  <time>2026-09-01T20:01:24Z</time>
  <course>213.69</course>
  <speed>24.96</speed>
  <fix>3d</fix>
</trkpt>
<trkpt lat="-27.2730197" lon="151.3005609">
  <ele>522.44</ele>
  <time>2026-09-01T20:01:24Z</time>
  <course>213.81</course>
  <speed>23.882319820318962</speed>
  <fix>3d</fix>
</trkpt>
<trkpt lat="-27.2729636" lon="151.3006022">
  <ele>522.38</ele>
  <time>2026-09-01T20:01:24Z</time>
  <course>213.69</course>
  <speed>24.96</speed>
  <fix>3d</fix>
</trkpt>
<trkpt lat="-27.2730376" lon="151.3005479">
  <ele>522.46</ele>
  <time>2026-09-01T20:01:24Z</time>
  <course>213.52</course>
  <speed>23.552997686069602</speed>
  <fix>3d</fix>
</trkpt>
<trkpt lat="-27.2730005" lon="151.3005749">
  <ele>522.41</ele>
  <time>2026-09-01T20:01:24Z</time>
  <course>213.08</course>
  <speed>24.25</speed>
  <fix>3d</fix>
</trkpt>
<trkpt lat="-27.2730552" lon="151.3005351">
  <ele>522.47</ele>
  <time>2026-09-01T20:01:24Z</time>
  <course>213.24</course>
  <speed>23.234569072827668</speed>
  <fix>3d</fix>
</trkpt>
<trkpt lat="-27.2730005" lon="151.3005749">
  <ele>522.41</ele>
  <time>2026-09-01T20:01:24Z</time>
  <course>213.08</course>
  <speed>24.25</speed>
  <fix>3d</fix>
</trkpt>
<trkpt lat="-27.2730727" lon="151.3005226">
  <ele>522.47</ele>
  <time>2026-09-01T20:01:24Z</time>
  <course>212.99</course>
  <speed>22.92157498951588</speed>
  <fix>3d</fix>
</trkpt>
<trkpt lat="-27.2730366" lon="151.3005486">
  <ele>522.45</ele>
  <time>2026-09-01T20:01:24Z</time>
  <course>212.77</course>
  <speed>23.57</speed>
  <fix>3d</fix>
</trkpt>
<trkpt lat="-27.2730899" lon="151.3005102">
  <ele>522.46</ele>
  <time>2026-09-01T20:01:24Z</time>
  <course>212.8</course>
  <speed>22.62241808472295</speed>
  <fix>3d</fix>
</trkpt>
<trkpt lat="-27.2730366" lon="151.3005486">
  <ele>522.45</ele>
  <time>2026-09-01T20:01:24Z</time>
  <course>212.77</course>
  <speed>23.57</speed>
  <fix>3d</fix>
</trkpt>
<trkpt lat="-27.273107" lon="151.300498">
  <ele>522.43</ele>
  <time>2026-09-01T20:01:24Z</time>
  <course>212.67</course>
  <speed>22.345525279124676</speed>
  <fix>3d</fix>
</trkpt>
<trkpt lat="-27.2730717" lon="151.3005233">
  <ele>522.46</ele>
  <time>2026-09-01T20:01:24Z</time>
  <course>212.6</course>
  <speed>22.94</speed>
  <fix>3d</fix>
</trkpt>
<trkpt lat="-27.2731238" lon="151.3004858">
  <ele>522.4</ele>
  <time>2026-09-01T20:01:24Z</time>
  <course>212.57</course>
  <speed>22.07402319469652</speed>
  <fix>3d</fix>
</trkpt>
<trkpt lat="-27.2730717" lon="151.3005233">
  <ele>522.46</ele>
  <time>2026-09-01T20:01:24Z</time>
  <course>212.6</course>
  <speed>22.94</speed>
  <fix>3d</fix>
</trkpt>
<trkpt lat="-27.2731404" lon="151.3004741">
  <ele>522.35</ele>
  <time>2026-09-01T20:01:24Z</time>
  <course>212.51</course>
  <speed>21.81097888679002</speed>
  <fix>3d</fix>
</trkpt>
<trkpt lat="-27.273106" lon="151.3004986">
  <ele>522.43</ele>
  <time>2026-09-01T20:01:24Z</time>
  <course>212.49</course>
  <speed>22.37</speed>
  <fix>3d</fix>
</trkpt>
<trkpt lat="-27.2731569" lon="151.3004623">
  <ele>522.28</ele>
  <time>2026-09-01T20:01:24Z</time>
  <course>212.46</course>
  <speed>21.57020630406673</speed>
  <fix>3d</fix>
</trkpt>
<trkpt lat="-27.273106" lon="151.3004986">
  <ele>522.43</ele>
  <time>2026-09-01T20:01:24Z</time>
  <course>212.49</course>
  <speed>22.37</speed>
  <fix>3d</fix>
</trkpt>
<trkpt lat="-27.2731732" lon="151.3004507">
  <ele>522.2</ele>
  <time>2026-09-01T20:01:24Z</time>
  <course>212.42</course>
  <speed>21.33480020998556</speed>
  <fix>3d</fix>
</trkpt>
<trkpt lat="-27.2731395" lon="151.3004747">
  <ele>522.34</ele>
  <time>2026-09-01T20:01:24Z</time>
  <course>212.38</course>
  <speed>21.83</speed>
  <fix>3d</fix>
</trkpt>
<trkpt lat="-27.2731893" lon="151.3004393">
  <ele>522.11</ele>
  <time>2026-09-01T20:01:24Z</time>
  <course>212.37</course>
  <speed>21.10786820121824</speed>
  <fix>3d</fix>
</trkpt>
<trkpt lat="-27.2731395" lon="151.3004747">
  <ele>522.34</ele>
  <time>2026-09-01T20:01:24Z</time>
  <course>212.38</course>
  <speed>21.83</speed>
  <fix>3d</fix>
</trkpt>
<trkpt lat="-27.2732052" lon="151.3004279">
  <ele>522.0</ele>
  <time>2026-09-01T20:01:24Z</time>
  <course>212.32</course>
  <speed>20.894748143971487</speed>
  <fix>3d</fix>
</trkpt>
<trkpt lat="-27.2731723" lon="151.3004513">
  <ele>522.19</ele>
  <time>2026-09-01T20:01:24Z</time>
  <course>212.27</course>
  <speed>21.35</speed>
  <fix>3d</fix>
</trkpt>
<trkpt lat="-27.2732211" lon="151.3004168">
  <ele>521.89</ele>
  <time>2026-09-01T20:01:24Z</time>
  <course>212.27</course>
  <speed>20.681646452833487</speed>
  <fix>3d</fix>
</trkpt>
<trkpt lat="-27.2731723" lon="151.3004513">
  <ele>522.19</ele>
  <time>2026-09-01T20:01:24Z</time>
  <course>212.27</course>
  <speed>21.35</speed>
  <fix>3d</fix>
</trkpt>
<trkpt lat="-27.2732367" lon="151.3004058">
  <ele>521.76</ele>
  <time>2026-09-01T20:01:24Z</time>
  <course>212.22</course>
  <speed>20.490822335865392</speed>
  <fix>3d</fix>
</trkpt>
<trkpt lat="-27.2732044" lon="151.3004286">
  <ele>522.0</ele>
  <time>2026-09-01T20:01:24Z</time>
  <course>212.16</course>
  <speed>20.91</speed>
  <fix>3d</fix>
</trkpt>
<trkpt lat="-27.2732523" lon="151.3003948">
  <ele>521.62</ele>
  <time>2026-09-01T20:01:24Z</time>
  <course>212.16</course>
  <speed>20.29683965547346</speed>
  <fix>3d</fix>
</trkpt>
<trkpt lat="-27.2732044" lon="151.3004286">
  <ele>522.0</ele>
  <time>2026-09-01T20:01:24Z</time>
  <course>212.16</course>
  <speed>20.91</speed>
  <fix>3d</fix>
</trkpt>
<trkpt lat="-27.2732677" lon="151.3003839">
  <ele>521.48</ele>
  <time>2026-09-01T20:01:24Z</time>
  <course>212.11</course>
  <speed>20.11982604298556</speed>
  <fix>3d</fix>
</trkpt>
<trkpt lat="-27.2732358" lon="151.3004063">
  <ele>521.76</ele>
  <time>2026-09-01T20:01:24Z</time>
  <course>212.06</course>
  <speed>20.5</speed>
  <fix>3d</fix>
</trkpt>
<trkpt lat="-27.2732829" lon="151.3003733">
  <ele>521.33</ele>
  <time>2026-09-01T20:01:24Z</time>
  <course>212.05</course>
  <speed>19.948117705688425</speed>
  <fix>3d</fix>
</trkpt>
<trkpt lat="-27.2732358" lon="151.3004063">
  <ele>521.76</ele>
  <time>2026-09-01T20:01:24Z</time>
  <course>212.06</course>
  <speed>20.5</speed>
  <fix>3d</fix>
</trkpt>
<trkpt lat="-27.2732981" lon="151.3003627">
  <ele>521.16</ele>
  <time>2026-09-01T20:01:24Z</time>
  <course>211.99</course>
  <speed>19.790189488734057</speed>
  <fix>3d</fix>
</trkpt>
<trkpt lat="-27.2732668" lon="151.3003845">
  <ele>521.47</ele>
  <time>2026-09-01T20:01:24Z</time>
  <course>211.97</course>
  <speed>20.14</speed>
  <fix>3d</fix>
</trkpt>
<trkpt lat="-27.2733131" lon="151.3003522">
  <ele>521.01</ele>
  <time>2026-09-01T20:01:24Z</time>
  <course>211.95</course>
  <speed>19.626983976148757</speed>
  <fix>3d</fix>
</trkpt>
<trkpt lat="-27.2732668" lon="151.3003845">
  <ele>521.47</ele>
  <time>2026-09-01T20:01:24Z</time>
  <course>211.97</course>
  <speed>20.14</speed>
  <fix>3d</fix>
</trkpt>
<trkpt lat="-27.273328" lon="151.3003417">
  <ele>520.85</ele>
  <time>2026-09-01T20:01:24Z</time>
  <course>211.91</course>
  <speed>19.469065206116085</speed>
  <fix>3d</fix>
</trkpt>
<trkpt lat="-27.2732974" lon="151.3003632">
  <ele>521.17</ele>
  <time>2026-09-01T20:01:24Z</time>
  <course>211.9</course>
  <speed>19.8</speed>
  <fix>3d</fix>
</trkpt>
<trkpt lat="-27.2733428" lon="151.3003314">
  <ele>520.68</ele>
  <time>2026-09-01T20:01:24Z</time>
  <course>211.87</course>
  <speed>19.328147867811857</speed>
  <fix>3d</fix>
</trkpt>
<trkpt lat="-27.2732974" lon="151.3003632">
  <ele>521.17</ele>
  <time>2026-09-01T20:01:24Z</time>
  <course>211.9</course>
  <speed>19.8</speed>
  <fix>3d</fix>
</trkpt>
<trkpt lat="-27.2733575" lon="151.3003211">
  <ele>520.5</ele>
  <time>2026-09-01T20:01:24Z</time>
  <course>211.84</course>
  <speed>19.18400635946517</speed>
  <fix>3d</fix>
</trkpt>
<trkpt lat="-27.2733273" lon="151.3003422">
  <ele>520.84</ele>
  <time>2026-09-01T20:01:24Z</time>
  <course>211.83</course>
  <speed>19.48</speed>
  <fix>3d</fix>
</trkpt>
<trkpt lat="-27.2733721" lon="151.300311">
  <ele>520.33</ele>
  <time>2026-09-01T20:01:24Z</time>
  <course>211.81</course>
  <speed>19.04837000900602</speed>
  <fix>3d</fix>
</trkpt>
<trkpt lat="-27.2733273" lon="151.3003422">
  <ele>520.84</ele>
  <time>2026-09-01T20:01:24Z</time>
  <course>211.83</course>
  <speed>19.48</speed>
  <fix>3d</fix>
</trkpt>
<trkpt lat="-27.2733866" lon="151.3003009">
  <ele>520.15</ele>
  <time>2026-09-01T20:01:24Z</time>
  <course>211.78</course>
  <speed>18.912739093002898</speed>
  <fix>3d</fix>
</trkpt>
<trkpt lat="-27.2733568" lon="151.3003216">
  <ele>520.5</ele>
  <time>2026-09-01T20:01:24Z</time>
  <course>211.77</course>
  <speed>19.2</speed>
  <fix>3d</fix>
</trkpt>
<trkpt lat="-27.273401" lon="151.3002909">
  <ele>519.97</ele>
  <time>2026-09-01T20:01:24Z</time>
  <course>211.74</course>
  <speed>18.790875445279287</speed>
  <fix>3d</fix>
</trkpt>
<trkpt lat="-27.2733568" lon="151.3003216">
  <ele>520.5</ele>
  <time>2026-09-01T20:01:24Z</time>
  <course>211.77</course>
  <speed>19.2</speed>
  <fix>3d</fix>
</trkpt>
<trkpt lat="-27.2734155" lon="151.3002809">
  <ele>519.78</ele>
  <time>2026-09-01T20:01:24Z</time>
  <course>211.71</course>
  <speed>18.663767036694388</speed>
  <fix>3d</fix>
</trkpt>
<trkpt lat="-27.2733859" lon="151.3003013">
  <ele>520.15</ele>
  <time>2026-09-01T20:01:24Z</time>
  <course>211.71</course>
  <speed>18.93</speed>
  <fix>3d</fix>
</trkpt>
<trkpt lat="-27.2734297" lon="151.3002709">
  <ele>519.6</ele>
  <time>2026-09-01T20:01:24Z</time>
  <course>211.68</course>
  <speed>18.541911983395888</speed>
  <fix>3d</fix>
</trkpt>
<trkpt lat="-27.2733859" lon="151.3003013">
  <ele>520.15</ele>
  <time>2026-09-01T20:01:24Z</time>
  <course>211.71</course>
  <speed>18.93</speed>
  <fix>3d</fix>
</trkpt>
<trkpt lat="-27.2734438" lon="151.3002612">
  <ele>519.41</ele>
  <time>2026-09-01T20:01:24Z</time>
  <course>211.65</course>
  <speed>18.42857834994333</speed>
  <fix>3d</fix>
</trkpt>
<trkpt lat="-27.2734147" lon="151.3002814">
  <ele>519.78</ele>
  <time>2026-09-01T20:01:24Z</time>
  <course>211.64</course>
  <speed>18.67</speed>
  <fix>3d</fix>
</trkpt>
<trkpt lat="-27.2734579" lon="151.3002515">
  <ele>519.22</ele>
  <time>2026-09-01T20:01:24Z</time>
  <course>211.62</course>
  <speed>18.31525320600291</speed>
  <fix>3d</fix>
</trkpt>
<trkpt lat="-27.2734147" lon="151.3002814">
  <ele>519.78</ele>
  <time>2026-09-01T20:01:24Z</time>
  <course>211.64</course>
  <speed>18.67</speed>
  <fix>3d</fix>
</trkpt>
<trkpt lat="-27.2734718" lon="151.3002419">
  <ele>519.03</ele>
  <time>2026-09-01T20:01:24Z</time>
  <course>211.59</course>
  <speed>18.207163425421324</speed>
  <fix>3d</fix>
</trkpt>
<trkpt lat="-27.2734431" lon="151.3002617">
  <ele>519.41</ele>
  <time>2026-09-01T20:01:24Z</time>
  <course>211.58</course>
  <speed>18.44</speed>
  <fix>3d</fix>
</trkpt>
<trkpt lat="-27.2734858" lon="151.3002323">
  <ele>518.84</ele>
  <time>2026-09-01T20:01:24Z</time>
  <course>211.56</course>
  <speed>18.09907456197692</speed>
  <fix>3d</fix>
</trkpt>
<trkpt lat="-27.2734431" lon="151.3002617">
  <ele>519.41</ele>
  <time>2026-09-01T20:01:24Z</time>
  <course>211.58</course>
  <speed>18.44</speed>
  <fix>3d</fix>
</trkpt>
<trkpt lat="-27.2734996" lon="151.3002227">
  <ele>518.65</ele>
  <time>2026-09-01T20:01:24Z</time>
  <course>211.53</course>
  <speed>17.99951388232471</speed>
  <fix>3d</fix>
</trkpt>
<trkpt lat="-27.2734711" lon="151.3002423">
  <ele>519.03</ele>
  <time>2026-09-01T20:01:24Z</time>
  <course>211.53</course>
  <speed>18.21</speed>
  <fix>3d</fix>
</trkpt>
<trkpt lat="-27.2735134" lon="151.3002133">
  <ele>518.45</ele>
  <time>2026-09-01T20:01:24Z</time>
  <course>211.5</course>
  <speed>17.89995810050962</speed>
  <fix>3d</fix>
</trkpt>
<trkpt lat="-27.2734711" lon="151.3002423">
  <ele>519.03</ele>
  <time>2026-09-01T20:01:24Z</time>
  <course>211.53</course>
  <speed>18.21</speed>
  <fix>3d</fix>
</trkpt>
<trkpt lat="-27.273527" lon="151.3002038">
  <ele>518.26</ele>
  <time>2026-09-01T20:01:24Z</time>
  <course>211.48</course>
  <speed>17.800407298710894</speed>
  <fix>3d</fix>
</trkpt>
<trkpt lat="-27.2734989" lon="151.3002232">
  <ele>518.65</ele>
  <time>2026-09-01T20:01:24Z</time>
  <course>211.48</course>
  <speed>18.01</speed>
  <fix>3d</fix>
</trkpt>
<trkpt lat="-27.2735406" lon="151.3001945">
  <ele>518.06</ele>
  <time>2026-09-01T20:01:24Z</time>
  <course>211.45</course>
  <speed>17.70607240468648</speed>
  <fix>3d</fix>
</trkpt>
<trkpt lat="-27.2734989" lon="151.3002232">
  <ele>518.65</ele>
  <time>2026-09-01T20:01:24Z</time>
  <course>211.48</course>
  <speed>18.01</speed>
  <fix>3d</fix>
</trkpt>
<trkpt lat="-27.2735542" lon="151.3001851">
  <ele>517.86</ele>
  <time>2026-09-01T20:01:24Z</time>
  <course>211.43</course>
  <speed>17.61506457552739</speed>
  <fix>3d</fix>
</trkpt>
<trkpt lat="-27.2735263" lon="151.3002043">
  <ele>518.26</ele>
  <time>2026-09-01T20:01:24Z</time>
  <course>211.43</course>
  <speed>17.81</speed>
  <fix>3d</fix>
</trkpt>
<trkpt lat="-27.2717155" lon="151.3042504">
  <ele>540.52</ele>
  <time>2026-09-01T20:01:24Z</time>
  <course>250.49</course>
  <speed>11.92193356800817</speed>
  <fix>3d</fix>
</trkpt>
<trkpt lat="-27.2735263" lon="151.3002043">
  <ele>518.26</ele>
  <time>2026-09-01T20:01:24Z</time>
  <course>211.43</course>
  <speed>17.81</speed>
  <fix>3d</fix>
</trkpt>
<trkpt lat="-27.2717182" lon="151.304239">
  <ele>536.66</ele>
  <time>2026-09-01T20:01:24Z</time>
  <course>248.96</course>
  <speed>11.775516973789303</speed>
  <fix>3d</fix>
</trkpt>
<trkpt lat="-27.2726276" lon="151.3022229">
  <ele>529.37</ele>
  <time>2026-09-01T20:01:24Z</time>
  <course>228.54</course>
  <speed>13.86</speed>
  <fix>3d</fix>
</trkpt>
<trkpt lat="-27.2717223" lon="151.3042272">
  <ele>532.85</ele>
  <time>2026-09-01T20:01:24Z</time>
  <course>235.11</course>
  <speed>13.228911519849243</speed>
  <fix>3d</fix>
</trkpt>
<trkpt lat="-27.2726276" lon="151.3022229">
  <ele>529.37</ele>
  <time>2026-09-01T20:01:24Z</time>
  <course>228.54</course>
  <speed>13.86</speed>
  <fix>3d</fix>
</trkpt>
<trkpt lat="-27.2717295" lon="151.3042157">
  <ele>529.08</ele>
  <time>2026-09-01T20:01:24Z</time>
  <course>215.37</course>
  <speed>14.549116811683106</speed>
  <fix>3d</fix>
</trkpt>
<trkpt lat="-27.2717187" lon="151.3042393">
  <ele>536.84</ele>
  <time>2026-09-01T20:01:24Z</time>
  <course>248.72</course>
  <speed>12.53</speed>
  <fix>3d</fix>
</trkpt>
<trkpt lat="-27.2717395" lon="151.304206">
  <ele>525.35</ele>
  <time>2026-09-01T20:01:24Z</time>
  <course>201.89</course>
  <speed>14.960965877910423</speed>
  <fix>3d</fix>
</trkpt>
<trkpt lat="-27.2717187" lon="151.3042393">
  <ele>536.84</ele>
  <time>2026-09-01T20:01:24Z</time>
  <course>248.72</course>
  <speed>12.53</speed>
  <fix>3d</fix>
</trkpt>
<trkpt lat="-27.2717506" lon="151.3041969">
  <ele>521.64</ele>
  <time>2026-09-01T20:01:24Z</time>
  <course>208.78</course>
  <speed>16.129181628340604</speed>
  <fix>3d</fix>
</trkpt>
<trkpt lat="-27.2717306" lon="151.3042171">
  <ele>529.26</ele>
  <time>2026-09-01T20:01:24Z</time>
  <course>229.16</course>
  <speed>13.67</speed>
  <fix>3d</fix>
</trkpt>
<trkpt lat="-27.2717616" lon="151.3041822">
  <ele>518.13</ele>
  <time>2026-09-01T20:01:24Z</time>
  <course>225.86</course>
  <speed>22.85366491396949</speed>
  <fix>3d</fix>
</trkpt>
<trkpt lat="-27.2717306" lon="151.3042171">
  <ele>529.26</ele>
  <time>2026-09-01T20:01:24Z</time>
  <course>229.16</course>
  <speed>13.67</speed>
  <fix>3d</fix>
</trkpt>
<trkpt lat="-27.2717737" lon="151.3041589">
  <ele>515.25</ele>
  <time>2026-09-01T20:01:24Z</time>
  <course>234.26</course>
  <speed>30.382411030068038</speed>
  <fix>3d</fix>
</trkpt>
<trkpt lat="-27.2717501" lon="151.3041947">
  <ele>521.89</ele>
  <time>2026-09-01T20:01:24Z</time>
  <course>228.11</course>
  <speed>18.48</speed>
  <fix>3d</fix>
</trkpt>
<trkpt lat="-27.2717875" lon="151.3041293">
  <ele>513.25</ele>
  <time>2026-09-01T20:01:24Z</time>
  <course>237.21</course>
  <speed>35.19746155619749</speed>
  <fix>3d</fix>
</trkpt>
<trkpt lat="-27.2717501" lon="151.3041947">
  <ele>521.89</ele>
  <time>2026-09-01T20:01:24Z</time>
  <course>228.11</course>
  <speed>18.48</speed>
  <fix>3d</fix>
</trkpt>
<trkpt lat="-27.2718032" lon="151.3040971">
  <ele>512.2</ele>
  <time>2026-09-01T20:01:24Z</time>
  <course>234.95</course>
  <speed>37.04101105531543</speed>
  <fix>3d</fix>
</trkpt>
<trkpt lat="-27.271774" lon="151.3041568">
  <ele>515.79</ele>
  <time>2026-09-01T20:01:24Z</time>
  <course>239.82</course>
  <speed>28.74</speed>
  <fix>3d</fix>
</trkpt>
<trkpt lat="-27.2718211" lon="151.3040656">
  <ele>511.98</ele>
  <time>2026-09-01T20:01:24Z</time>
  <course>229.95</course>
  <speed>36.70652394329923</speed>
  <fix>3d</fix>
</trkpt>
<trkpt lat="-27.271774" lon="151.3041568">
  <ele>515.79</ele>
  <time>2026-09-01T20:01:24Z</time>
  <course>239.82</course>
  <speed>28.74</speed>
  <fix>3d</fix>
</trkpt>
<trkpt lat="-27.2718409" lon="151.3040369">
  <ele>512.4</ele>
  <time>2026-09-01T20:01:24Z</time>
  <course>224.55</course>
  <speed>35.26800958375735</speed>
  <fix>3d</fix>
</trkpt>
<trkpt lat="-27.2718036" lon="151.3040987">
  <ele>512.64</ele>
  <time>2026-09-01T20:01:24Z</time>
  <course>238.7</course>
  <speed>35.84</speed>
  <fix>3d</fix>
</trkpt>
<trkpt lat="-27.2718624" lon="151.3040119">
  <ele>513.27</ele>
  <time>2026-09-01T20:01:24Z</time>
  <course>220.0</course>
  <speed>33.5555196651758</speed>
  <fix>3d</fix>
</trkpt>
<trkpt lat="-27.2718036" lon="151.3040987">
  <ele>512.64</ele>
  <time>2026-09-01T20:01:24Z</time>
  <course>238.7</course>
  <speed>35.84</speed>
  <fix>3d</fix>
</trkpt>
<trkpt lat="-27.2718847" lon="151.3039904">
  <ele>514.41</ele>
  <time>2026-09-01T20:01:24Z</time>
  <course>216.74</course>
  <speed>31.99978906180477</speed>
  <fix>3d</fix>
</trkpt>
<trkpt lat="-27.2718409" lon="151.3040398">
  <ele>512.59</ele>
  <time>2026-09-01T20:01:24Z</time>
  <course>229.54</course>
  <speed>35.0</speed>
  <fix>3d</fix>
</trkpt>
<trkpt lat="-27.2719074" lon="151.3039717">
  <ele>515.7</ele>
  <time>2026-09-01T20:01:24Z</time>
  <course>214.87</course>
  <speed>30.766637775356603</speed>
  <fix>3d</fix>
</trkpt>
<trkpt lat="-27.2718409" lon="151.3040398">
  <ele>512.59</ele>
  <time>2026-09-01T20:01:24Z</time>
  <course>229.54</course>
  <speed>35.0</speed>
  <fix>3d</fix>
</trkpt>
<trkpt lat="-27.2719302" lon="151.3039548">
  <ele>517.04</ele>
  <time>2026-09-01T20:01:24Z</time>
  <course>214.2</course>
  <speed>29.841313644007027</speed>
  <fix>3d</fix>
</trkpt>
<trkpt lat="-27.271884" lon="151.3039925">
  <ele>514.44</ele>
  <time>2026-09-01T20:01:24Z</time>
  <course>219.18</course>
  <speed>32.12</speed>
  <fix>3d</fix>
</trkpt>
<trkpt lat="-27.2719527" lon="151.3039393">
  <ele>518.4</ele>
  <time>2026-09-01T20:01:24Z</time>
  <course>214.17</course>
  <speed>29.19777560020626</speed>
  <fix>3d</fix>
</trkpt>
<trkpt lat="-27.271884" lon="151.3039925">
  <ele>514.44</ele>
  <time>2026-09-01T20:01:24Z</time>
  <course>219.18</course>
  <speed>32.12</speed>
  <fix>3d</fix>
</trkpt>
<trkpt lat="-27.2719752" lon="151.3039241">
  <ele>519.72</ele>
  <time>2026-09-01T20:01:24Z</time>
  <course>214.36</course>
  <speed>28.77588052518984</speed>
  <fix>3d</fix>
</trkpt>
<trkpt lat="-27.2719291" lon="151.3039561">
  <ele>517.0</ele>
  <time>2026-09-01T20:01:24Z</time>
  <course>212.93</course>
  <speed>30.0</speed>
  <fix>3d</fix>
</trkpt>
<trkpt lat="-27.2719973" lon="151.3039092">
  <ele>520.95</ele>
  <time>2026-09-01T20:01:24Z</time>
  <course>214.45</course>
  <speed>28.50995966324751</speed>
  <fix>3d</fix>
</trkpt>
<trkpt lat="-27.2719291" lon="151.3039561">
  <ele>517.0</ele>
  <time>2026-09-01T20:01:24Z</time>
  <course>212.93</course>
  <speed>30.0</speed>
  <fix>3d</fix>
</trkpt>
<trkpt lat="-27.2720192" lon="151.3038944">
  <ele>522.08</ele>
  <time>2026-09-01T20:01:24Z</time>
  <course>214.3</course>
  <speed>28.36771580511903</speed>
  <fix>3d</fix>
</trkpt>
<trkpt lat="-27.271974" lon="151.3039249">
  <ele>519.62</ele>
  <time>2026-09-01T20:01:24Z</time>
  <course>211.01</course>
  <speed>28.87</speed>
  <fix>3d</fix>
</trkpt>
<trkpt lat="-27.272041" lon="151.3038795">
  <ele>523.1</ele>
  <time>2026-09-01T20:01:24Z</time>
  <course>213.85</course>
  <speed>28.28439852639614</speed>
  <fix>3d</fix>
</trkpt>
<trkpt lat="-27.271974" lon="151.3039249">
  <ele>519.62</ele>
  <time>2026-09-01T20:01:24Z</time>
  <course>211.01</course>
  <speed>28.87</speed>
  <fix>3d</fix>
</trkpt>
<trkpt lat="-27.2720626" lon="151.3038647">
  <ele>523.99</ele>
  <time>2026-09-01T20:01:24Z</time>
  <course>213.25</course>
  <speed>28.22526704922382</speed>
  <fix>3d</fix>
</trkpt>
<trkpt lat="-27.2720181" lon="151.3038951">
  <ele>521.97</ele>
  <time>2026-09-01T20:01:24Z</time>
  <course>211.13</course>
  <speed>28.4</speed>
  <fix>3d</fix>
</trkpt>
<trkpt lat="-27.2720841" lon="151.3038498">
  <ele>524.76</ele>
  <time>2026-09-01T20:01:24Z</time>
  <course>212.58</course>
  <speed>28.15390736647402</speed>
  <fix>3d</fix>
</trkpt>
<trkpt lat="-27.2720181" lon="151.3038951">
  <ele>521.97</ele>
  <time>2026-09-01T20:01:24Z</time>
  <course>211.13</course>
  <speed>28.4</speed>
  <fix>3d</fix>
</trkpt>
<trkpt lat="-27.2721056" lon="151.3038348">
  <ele>525.4</ele>
  <time>2026-09-01T20:01:24Z</time>
  <course>211.87</course>
  <speed>28.05834813384423</speed>
  <fix>3d</fix>
</trkpt>
<trkpt lat="-27.2720616" lon="151.3038653">
  <ele>523.89</ele>
  <time>2026-09-01T20:01:24Z</time>
  <course>211.55</course>
  <speed>28.22</speed>
  <fix>3d</fix>
</trkpt>
<trkpt lat="-27.272127" lon="151.3038198">
  <ele>525.94</ele>
  <time>2026-09-01T20:01:24Z</time>
  <course>211.26</course>
  <speed>27.947010573583714</speed>
  <fix>3d</fix>
</trkpt>
<trkpt lat="-27.2720616" lon="151.3038653">
  <ele>523.89</ele>
  <time>2026-09-01T20:01:24Z</time>
  <course>211.55</course>
  <speed>28.22</speed>
  <fix>3d</fix>
</trkpt>
<trkpt lat="-27.2721482" lon="151.3038049">
  <ele>526.38</ele>
  <time>2026-09-01T20:01:24Z</time>
  <course>210.83</course>
  <speed>27.820754842383412</speed>
  <fix>3d</fix>
</trkpt>
<trkpt lat="-27.2721046" lon="151.3038354">
  <ele>525.32</ele>
  <time>2026-09-01T20:01:24Z</time>
  <course>211.76</course>
  <speed>28.05</speed>
  <fix>3d</fix>
</trkpt>
<trkpt lat="-27.2721694" lon="151.3037901">
  <ele>526.72</ele>
  <time>2026-09-01T20:01:24Z</time>
  <course>210.61</course>
  <speed>27.691384941891226</speed>
  <fix>3d</fix>
</trkpt>
<trkpt lat="-27.2721046" lon="151.3038354">
  <ele>525.32</ele>
  <time>2026-09-01T20:01:24Z</time>
  <course>211.76</course>
  <speed>28.05</speed>
  <fix>3d</fix>
</trkpt>
<trkpt lat="-27.2721904" lon="151.3037754">
  <ele>526.99</ele>
  <time>2026-09-01T20:01:24Z</time>
  <course>210.52</course>
  <speed>27.558049640712966</speed>
  <fix>3d</fix>
</trkpt>
<trkpt lat="-27.2721473" lon="151.3038056">
  <ele>526.31</ele>
  <time>2026-09-01T20:01:24Z</time>
  <course>211.91</course>
  <speed>27.83</speed>
  <fix>3d</fix>
</trkpt>
<trkpt lat="-27.2722113" lon="151.3037604">
  <ele>527.18</ele>
  <time>2026-09-01T20:01:24Z</time>
  <course>210.55</course>
  <speed>27.43281611501087</speed>
  <fix>3d</fix>
</trkpt>
<trkpt lat="-27.2721473" lon="151.3038056">
  <ele>526.31</ele>
  <time>2026-09-01T20:01:24Z</time>
  <course>211.91</course>
  <speed>27.83</speed>
  <fix>3d</fix>
</trkpt>
<trkpt lat="-27.272232" lon="151.3037455">
  <ele>527.32</ele>
  <time>2026-09-01T20:01:24Z</time>
  <course>210.71</course>
  <speed>27.304798113152202</speed>
  <fix>3d</fix>
</trkpt>
<trkpt lat="-27.2721894" lon="151.3037759">
  <ele>526.94</ele>
  <time>2026-09-01T20:01:24Z</time>
  <course>212.26</course>
  <speed>27.57</speed>
  <fix>3d</fix>
</trkpt>
<trkpt lat="-27.2722524" lon="151.3037305">
  <ele>527.4</ele>
  <time>2026-09-01T20:01:24Z</time>
  <course>211.06</course>
  <speed>27.1972498609694</speed>
  <fix>3d</fix>
</trkpt>
<trkpt lat="-27.2721894" lon="151.3037759">
  <ele>526.94</ele>
  <time>2026-09-01T20:01:24Z</time>
  <course>212.26</course>
  <speed>27.57</speed>
  <fix>3d</fix>
</trkpt>
<trkpt lat="-27.2722727" lon="151.3037152">
  <ele>527.44</ele>
  <time>2026-09-01T20:01:24Z</time>
  <course>211.53</course>
  <speed>27.10024723134459</speed>
  <fix>3d</fix>
</trkpt>
<trkpt lat="-27.272231" lon="151.3037461">
  <ele>527.29</ele>
  <time>2026-09-01T20:01:24Z</time>
  <course>212.95</course>
  <speed>27.32</speed>
  <fix>3d</fix>
</trkpt>
<trkpt lat="-27.2722928" lon="151.3036998">
  <ele>527.44</ele>
  <time>2026-09-01T20:01:24Z</time>
  <course>212.18</course>
  <speed>27.012182436819135</speed>
  <fix>3d</fix>
</trkpt>
<trkpt lat="-27.272231" lon="151.3037461">
  <ele>527.29</ele>
  <time>2026-09-01T20:01:24Z</time>
  <course>212.95</course>
  <speed>27.32</speed>
  <fix>3d</fix>
</trkpt>
<trkpt lat="-27.2723126" lon="151.3036842">
  <ele>527.4</ele>
  <time>2026-09-01T20:01:24Z</time>
  <course>212.92</course>
  <speed>26.928841415850034</speed>
  <fix>3d</fix>
</trkpt>
<trkpt lat="-27.2722718" lon="151.3037158">
  <ele>527.42</ele>
  <time>2026-09-01T20:01:24Z</time>
  <course>214.0</course>
  <speed>27.11</speed>
  <fix>3d</fix>
</trkpt>
<trkpt lat="-27.2723322" lon="151.3036683">
  <ele>527.34</ele>
  <time>2026-09-01T20:01:24Z</time>
  <course>213.71</course>
  <speed>26.857587382339467</speed>
  <fix>3d</fix>
</trkpt>
<trkpt lat="-27.2722718" lon="151.3037158">
  <ele>527.42</ele>
  <time>2026-09-01T20:01:24Z</time>
  <course>214.0</course>
  <speed>27.11</speed>
  <fix>3d</fix>
</trkpt>
<trkpt lat="-27.2723515" lon="151.3036521">
  <ele>527.25</ele>
  <time>2026-09-01T20:01:24Z</time>
  <course>214.55</course>
  <speed>26.796305715527282</speed>
  <fix>3d</fix>
</trkpt>
<trkpt lat="-27.2723117" lon="151.3036847">
  <ele>527.39</ele>
  <time>2026-09-01T20:01:24Z</time>
  <course>215.41</course>
  <speed>26.94</speed>
  <fix>3d</fix>
</trkpt>
<trkpt lat="-27.2723706" lon="151.3036356">
  <ele>527.14</ele>
  <time>2026-09-01T20:01:24Z</time>
  <course>215.48</course>
  <speed>26.746074478322985</speed>
  <fix>3d</fix>
</trkpt>
<trkpt lat="-27.2723117" lon="151.3036847">
  <ele>527.39</ele>
  <time>2026-09-01T20:01:24Z</time>
  <course>215.41</course>
  <speed>26.94</speed>
  <fix>3d</fix>
</trkpt>
<trkpt lat="-27.2723893" lon="151.3036186">
  <ele>527.01</ele>
  <time>2026-09-01T20:01:24Z</time>
  <course>216.48</course>
  <speed>26.693956244813172</speed>
  <fix>3d</fix>
</trkpt>
<trkpt lat="-27.2723506" lon="151.3036526">
  <ele>527.24</ele>
  <time>2026-09-01T20:01:24Z</time>
  <course>217.13</course>
  <speed>26.8</speed>
  <fix>3d</fix>
</trkpt>
<trkpt lat="-27.2724078" lon="151.3036014">
  <ele>526.86</ele>
  <time>2026-09-01T20:01:24Z</time>
  <course>217.46</course>
  <speed>26.648701656928807</speed>
  <fix>3d</fix>
</trkpt>
<trkpt lat="-27.2723506" lon="151.3036526">
  <ele>527.24</ele>
  <time>2026-09-01T20:01:24Z</time>
  <course>217.13</course>
  <speed>26.8</speed>
  <fix>3d</fix>
</trkpt>
<trkpt lat="-27.272426" lon="151.303584">
  <ele>526.7</ele>
  <time>2026-09-01T20:01:24Z</time>
  <course>218.3</course>
  <speed>26.620548454154733</speed>
  <fix>3d</fix>
</trkpt>
<trkpt lat="-27.2723883" lon="151.3036192">
  <ele>527.0</ele>
  <time>2026-09-01T20:01:24Z</time>
  <course>219.06</course>
  <speed>26.7</speed>
  <fix>3d</fix>
</trkpt>
<trkpt lat="-27.2724438" lon="151.3035662">
  <ele>526.53</ele>
  <time>2026-09-01T20:01:24Z</time>
  <course>219.04</course>
  <speed>26.587638104953964</speed>
  <fix>3d</fix>
</trkpt>
<trkpt lat="-27.2723883" lon="151.3036192">
  <ele>527.0</ele>
  <time>2026-09-01T20:01:24Z</time>
  <course>219.06</course>
  <speed>26.7</speed>
  <fix>3d</fix>
</trkpt>
<trkpt lat="-27.2724614" lon="151.3035481">
  <ele>526.36</ele>
  <time>2026-09-01T20:01:24Z</time>
  <course>219.71</course>
  <speed>26.549109212928407</speed>
  <fix>3d</fix>
</trkpt>
<trkpt lat="-27.272425" lon="151.3035846">
  <ele>526.7</ele>
  <time>2026-09-01T20:01:24Z</time>
  <course>221.02</course>
  <speed>26.62</speed>
  <fix>3d</fix>
</trkpt>
<trkpt lat="-27.2724788" lon="151.3035296">
  <ele>526.16</ele>
  <time>2026-09-01T20:01:24Z</time>
  <course>220.33</course>
  <speed>26.510695954651965</speed>
  <fix>3d</fix>
</trkpt>
<trkpt lat="-27.272425" lon="151.3035846">
  <ele>526.7</ele>
  <time>2026-09-01T20:01:24Z</time>
  <course>221.02</course>
  <speed>26.62</speed>
  <fix>3d</fix>
</trkpt>
<trkpt lat="-27.272496" lon="151.303511">
  <ele>525.98</ele>
  <time>2026-09-01T20:01:24Z</time>
  <course>220.96</course>
  <speed>26.469863996628316</speed>
  <fix>3d</fix>
</trkpt>
<trkpt lat="-27.2724606" lon="151.3035486">
  <ele>526.36</ele>
  <time>2026-09-01T20:01:24Z</time>
  <course>222.76</course>
  <speed>26.55</speed>
  <fix>3d</fix>
</trkpt>
<trkpt lat="-27.2725131" lon="151.3034922">
  <ele>525.79</ele>
  <time>2026-09-01T20:01:24Z</time>
  <course>221.58</course>
  <speed>26.439222757108425</speed>
  <fix>3d</fix>
</trkpt>
<trkpt lat="-27.2724606" lon="151.3035486">
  <ele>526.36</ele>
  <time>2026-09-01T20:01:24Z</time>
  <course>222.76</course>
  <speed>26.55</speed>
  <fix>3d</fix>
</trkpt>
<trkpt lat="-27.2725299" lon="151.3034734">
  <ele>525.59</ele>
  <time>2026-09-01T20:01:24Z</time>
  <course>222.2</course>
  <speed>26.403382359084226</speed>
  <fix>3d</fix>
</trkpt>
<trkpt lat="-27.2724953" lon="151.3035117">
  <ele>525.98</ele>
  <time>2026-09-01T20:01:24Z</time>
  <course>224.08</course>
  <speed>26.48</speed>
  <fix>3d</fix>
</trkpt>
<trkpt lat="-27.2725466" lon="151.3034544">
  <ele>525.38</ele>
  <time>2026-09-01T20:01:24Z</time>
  <course>222.73</course>
  <speed>26.36860443785374</speed>
  <fix>3d</fix>
</trkpt>
<trkpt lat="-27.2724953" lon="151.3035117">
  <ele>525.98</ele>
  <time>2026-09-01T20:01:24Z</time>
  <course>224.08</course>
  <speed>26.48</speed>
  <fix>3d</fix>
</trkpt>
<trkpt lat="-27.2725632" lon="151.3034355">
  <ele>525.16</ele>
  <time>2026-09-01T20:01:24Z</time>
  <course>223.21</course>
  <speed>26.3414824943472</speed>
  <fix>3d</fix>
</trkpt>
<trkpt lat="-27.2725291" lon="151.3034741">
  <ele>525.58</ele>
  <time>2026-09-01T20:01:24Z</time>
  <course>225.0</course>
  <speed>26.41</speed>
  <fix>3d</fix>
</trkpt>
<trkpt lat="-27.2725797" lon="151.3034165">
  <ele>524.95</ele>
  <time>2026-09-01T20:01:24Z</time>
  <course>223.68</course>
  <speed>26.30735258440119</speed>
  <fix>3d</fix>
</trkpt>
<trkpt lat="-27.2725291" lon="151.3034741">
  <ele>525.58</ele>
  <time>2026-09-01T20:01:24Z</time>
  <course>225.0</course>
  <speed>26.41</speed>
  <fix>3d</fix>
</trkpt>
<trkpt lat="-27.2725961" lon="151.3033974">
  <ele>524.73</ele>
  <time>2026-09-01T20:01:24Z</time>
  <course>224.07</course>
  <speed>26.28742855434894</speed>
  <fix>3d</fix>
</trkpt>
<trkpt lat="-27.2725624" lon="151.3034362">
  <ele>525.17</ele>
  <time>2026-09-01T20:01:24Z</time>
  <course>225.61</course>
  <speed>26.34</speed>
  <fix>3d</fix>
</trkpt>
<trkpt lat="-27.2726124" lon="151.3033782">
  <ele>524.51</ele>
  <time>2026-09-01T20:01:24Z</time>
  <course>224.38</course>
  <speed>26.267158201830668</speed>
  <fix>3d</fix>
</trkpt>
<trkpt lat="-27.2725624" lon="151.3034362">
  <ele>525.17</ele>
  <time>2026-09-01T20:01:24Z</time>
  <course>225.61</course>
  <speed>26.34</speed>
  <fix>3d</fix>
</trkpt>
<trkpt lat="-27.2726288" lon="151.3033591">
  <ele>524.29</ele>
  <time>2026-09-01T20:01:24Z</time>
  <course>224.66</course>
  <speed>26.24667788502004</speed>
  <fix>3d</fix>
</trkpt>
<trkpt lat="-27.2725954" lon="151.303398">
  <ele>524.74</ele>
  <time>2026-09-01T20:01:24Z</time>
  <course>226.0</course>
  <speed>26.29</speed>
  <fix>3d</fix>
</trkpt>
<trkpt lat="-27.2726451" lon="151.3033399">
  <ele>524.08</ele>
  <time>2026-09-01T20:01:24Z</time>
  <course>224.87</course>
  <speed>26.21870515490801</speed>
  <fix>3d</fix>
</trkpt>
<trkpt lat="-27.2725954" lon="151.303398">
  <ele>524.74</ele>
  <time>2026-09-01T20:01:24Z</time>
  <course>226.0</course>
  <speed>26.29</speed>
  <fix>3d</fix>
</trkpt>
<trkpt lat="-27.2726613" lon="151.3033208">
  <ele>523.85</ele>
  <time>2026-09-01T20:01:24Z</time>
  <course>225.07</course>
  <speed>26.139904360957406</speed>
  <fix>3d</fix>
</trkpt>
<trkpt lat="-27.2726281" lon="151.3033598">
  <ele>524.3</ele>
  <time>2026-09-01T20:01:24Z</time>
  <course>226.19</course>
  <speed>26.25</speed>
  <fix>3d</fix>
</trkpt>
<trkpt lat="-27.2726776" lon="151.3033017">
  <ele>523.61</ele>
  <time>2026-09-01T20:01:24Z</time>
  <course>225.33</course>
  <speed>26.018034130195154</speed>
  <fix>3d</fix>
</trkpt>
<trkpt lat="-27.2726281" lon="151.3033598">
  <ele>524.3</ele>
  <time>2026-09-01T20:01:24Z</time>
  <course>226.19</course>
  <speed>26.25</speed>
  <fix>3d</fix>
</trkpt>
<trkpt lat="-27.2726938" lon="151.303283">
  <ele>523.38</ele>
  <time>2026-09-01T20:01:24Z</time>
  <course>225.49</course>
  <speed>25.84637885662129</speed>
  <fix>3d</fix>
</trkpt>
<trkpt lat="-27.2726606" lon="151.3033216">
  <ele>523.85</ele>
  <time>2026-09-01T20:01:24Z</time>
  <course>226.1</course>
  <speed>26.12</speed>
  <fix>3d</fix>
</trkpt>
<trkpt lat="-27.2727101" lon="151.3032644">
  <ele>523.16</ele>
  <time>2026-09-01T20:01:24Z</time>
  <course>225.52</course>
  <speed>25.632902683855374</speed>
  <fix>3d</fix>
</trkpt>
<trkpt lat="-27.2726606" lon="151.3033216">
  <ele>523.85</ele>
  <time>2026-09-01T20:01:24Z</time>
  <course>226.1</course>
  <speed>26.12</speed>
  <fix>3d</fix>
</trkpt>
<trkpt lat="-27.2727262" lon="151.3032462">
  <ele>522.97</ele>
  <time>2026-09-01T20:01:24Z</time>
  <course>225.41</course>
  <speed>25.364000078851912</speed>
  <fix>3d</fix>
</trkpt>
<trkpt lat="-27.2726931" lon="151.3032839">
  <ele>523.39</ele>
  <time>2026-09-01T20:01:24Z</time>
  <course>225.62</course>
  <speed>25.83</speed>
  <fix>3d</fix>
</trkpt>
<trkpt lat="-27.2727423" lon="151.3032284">
  <ele>522.82</ele>
  <time>2026-09-01T20:01:24Z</time>
  <course>225.15</course>
  <speed>25.068157092215614</speed>
  <fix>3d</fix>
</trkpt>
<trkpt lat="-27.2726931" lon="151.3032839">
  <ele>523.39</ele>
  <time>2026-09-01T20:01:24Z</time>
  <course>225.62</course>
  <speed>25.83</speed>
  <fix>3d</fix>
</trkpt>
<trkpt lat="-27.2727584" lon="151.3032107">
  <ele>522.7</ele>
  <time>2026-09-01T20:01:24Z</time>
  <course>224.8</course>
  <speed>24.766275456757725</speed>
  <fix>3d</fix>
</trkpt>
<trkpt lat="-27.2727255" lon="151.3032471">
  <ele>522.99</ele>
  <time>2026-09-01T20:01:24Z</time>
  <course>224.87</course>
  <speed>25.36</speed>
  <fix>3d</fix>
</trkpt>
<trkpt lat="-27.2727743" lon="151.3031935">
  <ele>522.62</ele>
  <time>2026-09-01T20:01:24Z</time>
  <course>224.45</course>
  <speed>24.443833578225817</speed>
  <fix>3d</fix>
</trkpt>
<trkpt lat="-27.2727255" lon="151.3032471">
  <ele>522.99</ele>
  <time>2026-09-01T20:01:24Z</time>
  <course>224.87</course>
  <speed>25.36</speed>
  <fix>3d</fix>
</trkpt>
<trkpt lat="-27.2727901" lon="151.3031766">
  <ele>522.57</ele>
  <time>2026-09-01T20:01:24Z</time>
  <course>224.14</course>
  <speed>24.12837541153569</speed>
  <fix>3d</fix>
</trkpt>
<trkpt lat="-27.2727576" lon="151.3032117">
  <ele>522.71</ele>
  <time>2026-09-01T20:01:24Z</time>
  <course>224.09</course>
  <speed>24.77</speed>
  <fix>3d</fix>
</trkpt>
<trkpt lat="-27.2728058" lon="151.30316">
  <ele>522.54</ele>
  <time>2026-09-01T20:01:24Z</time>
  <course>223.87</course>
  <speed>23.798436923462013</speed>
  <fix>3d</fix>
</trkpt>
<trkpt lat="-27.2727576" lon="151.3032117">
  <ele>522.71</ele>
  <time>2026-09-01T20:01:24Z</time>
  <course>224.09</course>
  <speed>24.77</speed>
  <fix>3d</fix>
</trkpt>
<trkpt lat="-27.2728213" lon="151.3031437">
  <ele>522.52</ele>
  <time>2026-09-01T20:01:24Z</time>
  <course>223.63</course>
  <speed>23.482472186718333</speed>
  <fix>3d</fix>
</trkpt>
<trkpt lat="-27.2727894" lon="151.3031774">
  <ele>522.57</ele>
  <time>2026-09-01T20:01:24Z</time>
  <course>223.48</course>
  <speed>24.14</speed>
  <fix>3d</fix>
</trkpt>
<trkpt lat="-27.2728366" lon="151.3031275">
  <ele>522.5</ele>
  <time>2026-09-01T20:01:24Z</time>
  <course>223.42</course>
  <speed>23.180353750536252</speed>
  <fix>3d</fix>
</trkpt>
<trkpt lat="-27.2727894" lon="151.3031774">
  <ele>522.57</ele>
  <time>2026-09-01T20:01:24Z</time>
  <course>223.48</course>
  <speed>24.14</speed>
  <fix>3d</fix>
</trkpt>
<trkpt lat="-27.2728518" lon="151.3031117">
  <ele>522.48</ele>
  <time>2026-09-01T20:01:24Z</time>
  <course>223.24</course>
  <speed>22.87784299272989</speed>
  <fix>3d</fix>
</trkpt>
<trkpt lat="-27.2728206" lon="151.3031444">
  <ele>522.52</ele>
  <time>2026-09-01T20:01:24Z</time>
  <course>223.07</course>
  <speed>23.5</speed>
  <fix>3d</fix>
</trkpt>
<trkpt lat="-27.2728668" lon="151.3030962">
  <ele>522.45</ele>
  <time>2026-09-01T20:01:24Z</time>
  <course>223.08</course>
  <speed>22.588988467835385</speed>
  <fix>3d</fix>
</trkpt>
<trkpt lat="-27.2728206" lon="151.3031444">
  <ele>522.52</ele>
  <time>2026-09-01T20:01:24Z</time>
  <course>223.07</course>
  <speed>23.5</speed>
  <fix>3d</fix>
</trkpt>
<trkpt lat="-27.2728816" lon="151.3030808">
  <ele>522.41</ele>
  <time>2026-09-01T20:01:24Z</time>
  <course>222.94</course>
  <speed>22.314311551109974</speed>
  <fix>3d</fix>
</trkpt>
<trkpt lat="-27.2728512" lon="151.3031124">
  <ele>522.47</ele>
  <time>2026-09-01T20:01:24Z</time>
  <course>222.81</course>
  <speed>22.9</speed>
  <fix>3d</fix>
</trkpt>
<trkpt lat="-27.2728963" lon="151.3030657">
  <ele>522.38</ele>
  <time>2026-09-01T20:01:24Z</time>
  <course>222.81</course>
  <speed>22.03968239335585</speed>
  <fix>3d</fix>
</trkpt>
<trkpt lat="-27.2728512" lon="151.3031124">
  <ele>522.47</ele>
  <time>2026-09-01T20:01:24Z</time>
  <course>222.81</course>
  <speed>22.9</speed>
  <fix>3d</fix>
</trkpt>
<trkpt lat="-27.2729108" lon="151.3030507">
  <ele>522.33</ele>
  <time>2026-09-01T20:01:24Z</time>
  <course>222.7</course>
  <speed>21.78598173137947</speed>
  <fix>3d</fix>
</trkpt>
<trkpt lat="-27.272881" lon="151.3030814">
  <ele>522.41</ele>
  <time>2026-09-01T20:01:24Z</time>
  <course>222.62</course>
  <speed>22.33</speed>
  <fix>3d</fix>
</trkpt>
<trkpt lat="-27.2729251" lon="151.3030359">
  <ele>522.27</ele>
  <time>2026-09-01T20:01:24Z</time>
  <course>222.61</course>
  <speed>21.53231060522767</speed>
  <fix>3d</fix>
</trkpt>
<trkpt lat="-27.272881" lon="151.3030814">
  <ele>522.41</ele>
  <time>2026-09-01T20:01:24Z</time>
  <course>222.62</course>
  <speed>22.33</speed>
  <fix>3d</fix>
</trkpt>
<trkpt lat="-27.2729393" lon="151.3030212">
  <ele>522.21</ele>
  <time>2026-09-01T20:01:24Z</time>
  <course>222.53</course>
  <speed>21.292144091190067</speed>
  <fix>3d</fix>
</trkpt>
<trkpt lat="-27.2729102" lon="151.3030513">
  <ele>522.33</ele>
  <time>2026-09-01T20:01:24Z</time>
  <course>222.48</course>
  <speed>21.8</speed>
  <fix>3d</fix>
</trkpt>
<trkpt lat="-27.2729535" lon="151.3030068">
  <ele>522.13</ele>
  <time>2026-09-01T20:01:24Z</time>
  <course>222.46</course>
  <speed>21.059375584285494</speed>
  <fix>3d</fix>
</trkpt>
<trkpt lat="-27.2729102" lon="151.3030513">
  <ele>522.33</ele>
  <time>2026-09-01T20:01:24Z</time>
  <course>222.48</course>
  <speed>21.8</speed>
  <fix>3d</fix>
</trkpt>
<trkpt lat="-27.2729674" lon="151.3029925">
  <ele>522.04</ele>
  <time>2026-09-01T20:01:24Z</time>
  <course>222.4</course>
  <speed>20.84074854701721</speed>
  <fix>3d</fix>
</trkpt>
<trkpt lat="-27.2729387" lon="151.3030218">
  <ele>522.21</ele>
  <time>2026-09-01T20:01:24Z</time>
  <course>222.37</course>
  <speed>21.31</speed>
  <fix>3d</fix>
</trkpt>
<trkpt lat="-27.2729812" lon="151.3029785">
  <ele>521.94</ele>
  <time>2026-09-01T20:01:24Z</time>
  <course>222.35</course>
  <speed>20.622136164810858</speed>
  <fix>3d</fix>
</trkpt>
<trkpt lat="-27.2729387" lon="151.3030218">
  <ele>522.21</ele>
  <time>2026-09-01T20:01:24Z</time>
  <course>222.37</course>
  <speed>21.31</speed>
  <fix>3d</fix>
</trkpt>
<trkpt lat="-27.2729949" lon="151.3029645">
  <ele>521.83</ele>
  <time>2026-09-01T20:01:24Z</time>
  <course>222.3</course>
  <speed>20.424380039550773</speed>
  <fix>3d</fix>
</trkpt>
<trkpt lat="-27.2729667" lon="151.3029932">
  <ele>522.04</ele>
  <time>2026-09-01T20:01:24Z</time>
  <course>222.27</course>
  <speed>20.85</speed>
  <fix>3d</fix>
</trkpt>
<trkpt lat="-27.2730084" lon="151.3029508">
  <ele>521.71</ele>
  <time>2026-09-01T20:01:24Z</time>
  <course>222.25</course>
  <speed>20.23404062465033</speed>
  <fix>3d</fix>
</trkpt>
<trkpt lat="-27.2729667" lon="151.3029932">
  <ele>522.04</ele>
  <time>2026-09-01T20:01:24Z</time>
  <course>222.27</course>
  <speed>20.85</speed>
  <fix>3d</fix>
</trkpt>
<trkpt lat="-27.2730218" lon="151.302937">
  <ele>521.58</ele>
  <time>2026-09-01T20:01:24Z</time>
  <course>222.21</course>
  <speed>20.04371472556921</speed>
  <fix>3d</fix>
</trkpt>
<trkpt lat="-27.2729942" lon="151.3029652">
  <ele>521.83</ele>
  <time>2026-09-01T20:01:24Z</time>
  <course>222.19</course>
  <speed>20.44</speed>
  <fix>3d</fix>
</trkpt>
<trkpt lat="-27.2730351" lon="151.3029235">
  <ele>521.44</ele>
  <time>2026-09-01T20:01:24Z</time>
  <course>222.16</course>
  <speed>19.87422702899411</speed>
  <fix>3d</fix>
</trkpt>
<trkpt lat="-27.2729942" lon="151.3029652">
  <ele>521.83</ele>
  <time>2026-09-01T20:01:24Z</time>
  <course>222.19</course>
  <speed>20.44</speed>
  <fix>3d</fix>
</trkpt>
<trkpt lat="-27.2730483" lon="151.3029101">
  <ele>521.29</ele>
  <time>2026-09-01T20:01:24Z</time>
  <course>222.12</course>
  <speed>19.71216883044583</speed>
  <fix>3d</fix>
</trkpt>
<trkpt lat="-27.2730212" lon="151.3029376">
  <ele>521.57</ele>
  <time>2026-09-01T20:01:24Z</time>
  <course>222.11</course>
  <speed>20.06</speed>
  <fix>3d</fix>
</trkpt>
<trkpt lat="-27.2730614" lon="151.3028968">
  <ele>521.13</ele>
  <time>2026-09-01T20:01:24Z</time>
  <course>222.09</course>
  <speed>19.54269172862326</speed>
  <fix>3d</fix>
</trkpt>
<trkpt lat="-27.2730212" lon="151.3029376">
  <ele>521.57</ele>
  <time>2026-09-01T20:01:24Z</time>
  <course>222.11</course>
  <speed>20.06</speed>
  <fix>3d</fix>
</trkpt>
<trkpt lat="-27.2730744" lon="151.3028837">
  <ele>520.97</ele>
  <time>2026-09-01T20:01:24Z</time>
  <course>222.05</course>
  <speed>19.394775069590263</speed>
  <fix>3d</fix>
</trkpt>
<trkpt lat="-27.2730477" lon="151.3029108">
  <ele>521.29</ele>
  <time>2026-09-01T20:01:24Z</time>
  <course>222.04</course>
  <speed>19.72</speed>
  <fix>3d</fix>
</trkpt>
<trkpt lat="-27.2730873" lon="151.3028707">
  <ele>520.81</ele>
  <time>2026-09-01T20:01:24Z</time>
  <course>222.02</course>
  <speed>19.246116491385997</speed>
  <fix>3d</fix>
</trkpt>
<trkpt lat="-27.2730477" lon="151.3029108">
  <ele>521.29</ele>
  <time>2026-09-01T20:01:24Z</time>
  <course>222.04</course>
  <speed>19.72</speed>
  <fix>3d</fix>
</trkpt>
<trkpt lat="-27.2731001" lon="151.3028577">
  <ele>520.64</ele>
  <time>2026-09-01T20:01:24Z</time>
  <course>221.99</course>
  <speed>19.098211958191268</speed>
  <fix>3d</fix>
</trkpt>
<trkpt lat="-27.2730738" lon="151.3028843">
  <ele>520.97</ele>
  <time>2026-09-01T20:01:24Z</time>
  <course>221.98</course>
  <speed>19.4</speed>
  <fix>3d</fix>
</trkpt>
<trkpt lat="-27.2731128" lon="151.3028449">
  <ele>520.47</ele>
  <time>2026-09-01T20:01:24Z</time>
  <course>221.95</course>
  <speed>18.964440408301005</speed>
  <fix>3d</fix>
</trkpt>
<trkpt lat="-27.2730738" lon="151.3028843">
  <ele>520.97</ele>
  <time>2026-09-01T20:01:24Z</time>
  <course>221.98</course>
  <speed>19.4</speed>
  <fix>3d</fix>
</trkpt>
<trkpt lat="-27.2731255" lon="151.3028321">
  <ele>520.29</ele>
  <time>2026-09-01T20:01:24Z</time>
  <course>221.92</course>
  <speed>18.837351193838266</speed>
  <fix>3d</fix>
</trkpt>
<trkpt lat="-27.2730996" lon="151.3028582">
  <ele>520.64</ele>
  <time>2026-09-01T20:01:24Z</time>
  <course>221.92</course>
  <speed>19.11</speed>
  <fix>3d</fix>
</trkpt>
<trkpt lat="-27.273138" lon="151.3028195">
  <ele>520.11</ele>
  <time>2026-09-01T20:01:24Z</time>
  <course>221.89</course>
  <speed>18.71026456253358</speed>
  <fix>3d</fix>
</trkpt>
<trkpt lat="-27.2730996" lon="151.3028582">
  <ele>520.64</ele>
  <time>2026-09-01T20:01:24Z</time>
  <course>221.92</course>
  <speed>19.11</speed>
  <fix>3d</fix>
</trkpt>
<trkpt lat="-27.2731505" lon="151.3028069">
  <ele>519.93</ele>
  <time>2026-09-01T20:01:24Z</time>
  <course>221.87</course>
  <speed>18.583180567384044</speed>
  <fix>3d</fix>
</trkpt>
<trkpt lat="-27.273125" lon="151.3028325">
  <ele>520.29</ele>
  <time>2026-09-01T20:01:24Z</time>
  <course>221.86</course>
  <speed>18.84</speed>
  <fix>3d</fix>
</trkpt>
<trkpt lat="-27.2731629" lon="151.3027943">
  <ele>519.74</ele>
  <time>2026-09-01T20:01:24Z</time>
  <course>221.84</course>
  <speed>18.463555995528058</speed>
  <fix>3d</fix>
</trkpt>
<trkpt lat="-27.273125" lon="151.3028325">
  <ele>520.29</ele>
  <time>2026-09-01T20:01:24Z</time>
  <course>221.86</course>
  <speed>18.84</speed>
  <fix>3d</fix>
</trkpt>
<trkpt lat="-27.2731753" lon="151.3027819">
  <ele>519.56</ele>
  <time>2026-09-01T20:01:24Z</time>
  <course>221.81</course>
  <speed>18.35059944524974</speed>
  <fix>3d</fix>
</trkpt>
<trkpt lat="-27.27315" lon="151.3028073">
  <ele>519.93</ele>
  <time>2026-09-01T20:01:24Z</time>
  <course>221.81</course>
  <speed>18.59</speed>
  <fix>3d</fix>
</trkpt>
<trkpt lat="-27.2731875" lon="151.3027697">
  <ele>519.37</ele>
  <time>2026-09-01T20:01:24Z</time>
  <course>221.78</course>
  <speed>18.237645133075706</speed>
  <fix>3d</fix>
</trkpt>
<trkpt lat="-27.27315" lon="151.3028073">
  <ele>519.93</ele>
  <time>2026-09-01T20:01:24Z</time>
  <course>221.81</course>
  <speed>18.59</speed>
  <fix>3d</fix>
</trkpt>
<trkpt lat="-27.2731997" lon="151.3027574">
  <ele>519.18</ele>
  <time>2026-09-01T20:01:24Z</time>
  <course>221.76</course>
  <speed>18.138811978737746</speed>
  <fix>3d</fix>
</trkpt>
<trkpt lat="-27.2731748" lon="151.3027824">
  <ele>519.56</ele>
  <time>2026-09-01T20:01:24Z</time>
  <course>221.76</course>
  <speed>18.36</speed>
  <fix>3d</fix>
</trkpt>
<trkpt lat="-27.2732118" lon="151.3027453">
  <ele>518.99</ele>
  <time>2026-09-01T20:01:24Z</time>
  <course>221.73</course>
  <speed>18.025861976615708</speed>
  <fix>3d</fix>
</trkpt>
<trkpt lat="-27.2731748" lon="151.3027824">
  <ele>519.56</ele>
  <time>2026-09-01T20:01:24Z</time>
  <course>221.76</course>
  <speed>18.36</speed>
  <fix>3d</fix>
</trkpt>
<trkpt lat="-27.2732239" lon="151.3027333">
  <ele>518.79</ele>
  <time>2026-09-01T20:01:24Z</time>
  <course>221.71</course>
  <speed>17.927032660203416</speed>
  <fix>3d</fix>
</trkpt>
<trkpt lat="-27.2731992" lon="151.3027579">
  <ele>519.19</ele>
  <time>2026-09-01T20:01:24Z</time>
  <course>221.71</course>
  <speed>18.14</speed>
  <fix>3d</fix>
</trkpt>
<trkpt lat="-27.2732359" lon="151.3027211">
  <ele>518.6</ele>
  <time>2026-09-01T20:01:24Z</time>
  <course>221.69</course>
  <speed>17.82820518167771</speed>
  <fix>3d</fix>
</trkpt>
<trkpt lat="-27.2731992" lon="151.3027579">
  <ele>519.19</ele>
  <time>2026-09-01T20:01:24Z</time>
  <course>221.71</course>
  <speed>18.14</speed>
  <fix>3d</fix>
</trkpt>
<trkpt lat="-27.2732478" lon="151.3027093">
  <ele>518.41</ele>
  <time>2026-09-01T20:01:24Z</time>
  <course>221.66</course>
  <speed>17.73685428704876</speed>
  <fix>3d</fix>
</trkpt>
<trkpt lat="-27.2732234" lon="151.3027336">
  <ele>518.8</ele>
  <time>2026-09-01T20:01:24Z</time>
  <course>221.66</course>
  <speed>17.93</speed>
  <fix>3d</fix>
</trkpt>
<trkpt lat="-27.2732596" lon="151.3026974">
  <ele>518.21</ele>
  <time>2026-09-01T20:01:24Z</time>
  <course>221.64</course>
  <speed>17.638032770124905</speed>
  <fix>3d</fix>
</trkpt>
<trkpt lat="-27.2732234" lon="151.3027336">
  <ele>518.8</ele>
  <time>2026-09-01T20:01:24Z</time>
  <course>221.66</course>
  <speed>17.93</speed>
  <fix>3d</fix>
</trkpt>
<trkpt lat="-27.2732716" lon="151.3026856">
  <ele>518.02</ele>
  <time>2026-09-01T20:01:24Z</time>
  <course>221.62</course>
  <speed>17.553330168375457</speed>
  <fix>3d</fix>
</trkpt>
<trkpt lat="-27.2732474" lon="151.3027096">
  <ele>518.41</ele>
  <time>2026-09-01T20:01:24Z</time>
  <course>221.62</course>
  <speed>17.74</speed>
  <fix>3d</fix>
</trkpt>
<trkpt lat="-27.2732833" lon="151.3026739">
  <ele>517.82</ele>
  <time>2026-09-01T20:01:24Z</time>
  <course>221.6</course>
  <speed>17.46199587676048</speed>
  <fix>3d</fix>
</trkpt>
<trkpt lat="-27.2732474" lon="151.3027096">
  <ele>518.41</ele>
  <time>2026-09-01T20:01:24Z</time>
  <course>221.62</course>
  <speed>17.74</speed>
  <fix>3d</fix>
</trkpt>
<trkpt lat="-27.2714621" lon="151.3067367">
  <ele>541.13</ele>
  <time>2026-09-01T20:01:24Z</time>
  <course>250.28</course>
  <speed>12.203212691746382</speed>
  <fix>3d</fix>
</trkpt>
<trkpt lat="-27.2732711" lon="151.302686">
  <ele>518.02</ele>
  <time>2026-09-01T20:01:24Z</time>
  <course>221.57</course>
  <speed>17.56</speed>
  <fix>3d</fix>
</trkpt>
<trkpt lat="-27.2714649" lon="151.3067252">
  <ele>537.25</ele>
  <time>2026-09-01T20:01:24Z</time>
  <course>249.97</course>
  <speed>11.615287340397566</speed>
  <fix>3d</fix>
</trkpt>
<trkpt lat="-27.2732711" lon="151.302686">
  <ele>518.02</ele>
  <time>2026-09-01T20:01:24Z</time>
  <course>221.57</course>
  <speed>17.56</speed>
  <fix>3d</fix>
</trkpt>
<trkpt lat="-27.2714686" lon="151.3067137">
  <ele>533.41</ele>
  <time>2026-09-01T20:01:24Z</time>
  <course>237.68</course>
  <speed>12.995883963778686</speed>
  <fix>3d</fix>
</trkpt>
<trkpt lat="-27.2723737" lon="151.3047">
  <ele>527.61</ele>
  <time>2026-09-01T20:01:24Z</time>
  <course>234.58</course>
  <speed>13.96</speed>
  <fix>3d</fix>
</trkpt>
<trkpt lat="-27.2714753" lon="151.306702">
  <ele>529.64</ele>
  <time>2026-09-01T20:01:24Z</time>
  <course>218.17</course>
  <speed>14.554068159796422</speed>
  <fix>3d</fix>
</trkpt>
<trkpt lat="-27.2723737" lon="151.3047">
  <ele>527.61</ele>
  <time>2026-09-01T20:01:24Z</time>
  <course>234.58</course>
  <speed>13.96</speed>
  <fix>3d</fix>
</trkpt>
<trkpt lat="-27.2714852" lon="151.3066919">
  <ele>525.91</ele>
  <time>2026-09-01T20:01:24Z</time>
  <course>203.43</course>
  <speed>15.124010711448204</speed>
  <fix>3d</fix>
</trkpt>
<trkpt lat="-27.2714698" lon="151.3067141">
  <ele>533.6</ele>
  <time>2026-09-01T20:01:24Z</time>
  <course>240.68</course>
  <speed>12.75</speed>
  <fix>3d</fix>
</trkpt>
<trkpt lat="-27.2714965" lon="151.306683">
  <ele>522.2</ele>
  <time>2026-09-01T20:01:24Z</time>
  <course>203.5</course>
  <speed>15.772342882400192</speed>
  <fix>3d</fix>
</trkpt>
<trkpt lat="-27.2714698" lon="151.3067141">
  <ele>533.6</ele>
  <time>2026-09-01T20:01:24Z</time>
  <course>240.68</course>
  <speed>12.75</speed>
  <fix>3d</fix>
</trkpt>
<trkpt lat="-27.2715079" lon="151.30667">
  <ele>518.62</ele>
  <time>2026-09-01T20:01:24Z</time>
  <course>222.62</course>
  <speed>21.46000931966247</speed>
  <fix>3d</fix>
</trkpt>
<trkpt lat="-27.2714855" lon="151.3066929">
  <ele>526.06</ele>
  <time>2026-09-01T20:01:24Z</time>
  <course>222.65</course>
  <speed>15.0</speed>
  <fix>3d</fix>
</trkpt>
<trkpt lat="-27.27152" lon="151.3066484">
  <ele>515.6</ele>
  <time>2026-09-01T20:01:24Z</time>
  <course>232.01</course>
  <speed>29.257313615573118</speed>
  <fix>3d</fix>
</trkpt>
<trkpt lat="-27.2714855" lon="151.3066929">
  <ele>526.06</ele>
  <time>2026-09-01T20:01:24Z</time>
  <course>222.65</course>
  <speed>15.0</speed>
  <fix>3d</fix>
</trkpt>
<trkpt lat="-27.271534" lon="151.3066198">
  <ele>513.44</ele>
  <time>2026-09-01T20:01:24Z</time>
  <course>235.13</course>
  <speed>34.65062914291745</speed>
  <fix>3d</fix>
</trkpt>
<trkpt lat="-27.2715078" lon="151.3066663">
  <ele>519.0</ele>
  <time>2026-09-01T20:01:24Z</time>
  <course>231.74</course>
  <speed>21.92</speed>
  <fix>3d</fix>
</trkpt>
<trkpt lat="-27.2715504" lon="151.3065885">
  <ele>512.23</ele>
  <time>2026-09-01T20:01:24Z</time>
  <course>232.37</course>
  <speed>36.96345492510136</speed>
  <fix>3d</fix>
</trkpt>
<trkpt lat="-27.2715078" lon="151.3066663">
  <ele>519.0</ele>
  <time>2026-09-01T20:01:24Z</time>
  <course>231.74</course>
  <speed>21.92</speed>
  <fix>3d</fix>
</trkpt>
<trkpt lat="-27.2715695" lon="151.3065578">
  <ele>511.86</ele>
  <time>2026-09-01T20:01:24Z</time>
  <course>226.18</course>
  <speed>36.940151596873555</speed>
  <fix>3d</fix>
</trkpt>
<trkpt lat="-27.2715346" lon="151.3066193">
  <ele>513.96</ele>
  <time>2026-09-01T20:01:24Z</time>
  <course>238.9</course>
  <speed>32.97</speed>
  <fix>3d</fix>
</trkpt>
<trkpt lat="-27.2715912" lon="151.3065303">
  <ele>512.15</ele>
  <time>2026-09-01T20:01:24Z</time>
  <course>219.31</course>
  <speed>35.71692175986055</speed>
  <fix>3d</fix>
</trkpt>
<trkpt lat="-27.2715346" lon="151.3066193">
  <ele>513.96</ele>
  <time>2026-09-01T20:01:24Z</time>
  <course>238.9</course>
  <speed>32.97</speed>
  <fix>3d</fix>
</trkpt>
<trkpt lat="-27.271615" lon="151.3065073">
  <ele>512.87</ele>
  <time>2026-09-01T20:01:24Z</time>
  <course>213.07</course>
  <speed>34.20003654968807</speed>
  <fix>3d</fix>
</trkpt>
<trkpt lat="-27.2715701" lon="151.3065603">
  <ele>512.19</ele>
  <time>2026-09-01T20:01:24Z</time>
  <course>231.48</course>
  <speed>36.12</speed>
  <fix>3d</fix>
</trkpt>
<trkpt lat="-27.2716401" lon="151.3064887">
  <ele>513.87</ele>
  <time>2026-09-01T20:01:24Z</time>
  <course>208.09</course>
  <speed>32.80060975042994</speed>
  <fix>3d</fix>
</trkpt>
<trkpt lat="-27.2715701" lon="151.3065603">
  <ele>512.19</ele>
  <time>2026-09-01T20:01:24Z</time>
  <course>231.48</course>
  <speed>36.12</speed>
  <fix>3d</fix>
</trkpt>
<trkpt lat="-27.2716658" lon="151.3064737">
  <ele>515.01</ele>
  <time>2026-09-01T20:01:24Z</time>
  <course>204.59</course>
  <speed>31.637498320821763</speed>
  <fix>3d</fix>
</trkpt>
<trkpt lat="-27.2716148" lon="151.3065102">
  <ele>512.97</ele>
  <time>2026-09-01T20:01:24Z</time>
  <course>217.9</course>
  <speed>34.04</speed>
  <fix>3d</fix>
</trkpt>
<trkpt lat="-27.2716916" lon="151.3064614">
  <ele>516.22</ele>
  <time>2026-09-01T20:01:24Z</time>
  <course>202.58</course>
  <speed>30.699892507955138</speed>
  <fix>3d</fix>
</trkpt>
<trkpt lat="-27.2716148" lon="151.3065102">
  <ele>512.97</ele>
  <time>2026-09-01T20:01:24Z</time>
  <course>217.9</course>
  <speed>34.04</speed>
  <fix>3d</fix>
</trkpt>
<trkpt lat="-27.2717172" lon="151.3064512">
  <ele>517.46</ele>
  <time>2026-09-01T20:01:24Z</time>
  <course>201.82</course>
  <speed>29.96630441012038</speed>
  <fix>3d</fix>
</trkpt>
<trkpt lat="-27.2716649" lon="151.3064755">
  <ele>515.0</ele>
  <time>2026-09-01T20:01:24Z</time>
  <course>205.91</course>
  <speed>31.69</speed>
  <fix>3d</fix>
</trkpt>
<trkpt lat="-27.2717425" lon="151.3064417">
  <ele>518.69</ele>
  <time>2026-09-01T20:01:24Z</time>
  <course>201.81</course>
  <speed>29.424197525166257</speed>
  <fix>3d</fix>
</trkpt>
<trkpt lat="-27.2716649" lon="151.3064755">
  <ele>515.0</ele>
  <time>2026-09-01T20:01:24Z</time>
  <course>205.91</course>
  <speed>31.69</speed>
  <fix>3d</fix>
</trkpt>
<trkpt lat="-27.2717675" lon="151.3064329">
  <ele>519.88</ele>
  <time>2026-09-01T20:01:24Z</time>
  <course>201.99</course>
  <speed>29.034117861577958</speed>
  <fix>3d</fix>
</trkpt>
<trkpt lat="-27.2717162" lon="151.3064519">
  <ele>517.41</ele>
  <time>2026-09-01T20:01:24Z</time>
  <course>199.48</course>
  <speed>30.07</speed>
  <fix>3d</fix>
</trkpt>
<trkpt lat="-27.2717923" lon="151.306424">
  <ele>521.0</ele>
  <time>2026-09-01T20:01:24Z</time>
  <course>201.94</course>
  <speed>28.795702804411636</speed>
  <fix>3d</fix>
</trkpt>
<trkpt lat="-27.2717162" lon="151.3064519">
  <ele>517.41</ele>
  <time>2026-09-01T20:01:24Z</time>
  <course>199.48</course>
  <speed>30.07</speed>
  <fix>3d</fix>
</trkpt>
<trkpt lat="-27.2718168" lon="151.3064153">
  <ele>522.02</ele>
  <time>2026-09-01T20:01:24Z</time>
  <course>201.56</course>
  <speed>28.6577912617145</speed>
  <fix>3d</fix>
</trkpt>
<trkpt lat="-27.2717666" lon="151.3064332">
  <ele>519.8</ele>
  <time>2026-09-01T20:01:24Z</time>
  <course>197.66</course>
  <speed>29.12</speed>
  <fix>3d</fix>
</trkpt>
<trkpt lat="-27.2718413" lon="151.3064063">
  <ele>522.93</ele>
  <time>2026-09-01T20:01:24Z</time>
  <course>200.96</course>
  <speed>28.558769231183614</speed>
  <fix>3d</fix>
</trkpt>
<trkpt lat="-27.2717666" lon="151.3064332">
  <ele>519.8</ele>
  <time>2026-09-01T20:01:24Z</time>
  <course>197.66</course>
  <speed>29.12</speed>
  <fix>3d</fix>
</trkpt>
<trkpt lat="-27.2718656" lon="151.3063972">
  <ele>523.73</ele>
  <time>2026-09-01T20:01:24Z</time>
  <course>200.14</course>
  <speed>28.488961020016156</speed>
  <fix>3d</fix>
</trkpt>
<trkpt lat="-27.271816" lon="151.3064155">
  <ele>521.93</ele>
  <time>2026-09-01T20:01:24Z</time>
  <course>197.89</course>
  <speed>28.69</speed>
  <fix>3d</fix>
</trkpt>
<trkpt lat="-27.2718898" lon="151.3063881">
  <ele>524.4</ele>
  <time>2026-09-01T20:01:24Z</time>
  <course>199.25</course>
  <speed>28.406803762479157</speed>
  <fix>3d</fix>
</trkpt>
<trkpt lat="-27.271816" lon="151.3064155">
  <ele>521.93</ele>
  <time>2026-09-01T20:01:24Z</time>
  <course>197.89</course>
  <speed>28.69</speed>
  <fix>3d</fix>
</trkpt>
<trkpt lat="-27.271914" lon="151.306379">
  <ele>524.97</ele>
  <time>2026-09-01T20:01:24Z</time>
  <course>198.52</course>
  <speed>28.305739700633158</speed>
  <fix>3d</fix>
</trkpt>
<trkpt lat="-27.2718647" lon="151.3063975">
  <ele>523.64</ele>
  <time>2026-09-01T20:01:24Z</time>
  <course>198.37</course>
  <speed>28.49</speed>
  <fix>3d</fix>
</trkpt>
<trkpt lat="-27.271938" lon="151.3063698">
  <ele>525.44</ele>
  <time>2026-09-01T20:01:24Z</time>
  <course>197.95</course>
  <speed>28.198491094383048</speed>
  <fix>3d</fix>
</trkpt>
<trkpt lat="-27.2718647" lon="151.3063975">
  <ele>523.64</ele>
  <time>2026-09-01T20:01:24Z</time>
  <course>198.37</course>
  <speed>28.49</speed>
  <fix>3d</fix>
</trkpt>
<trkpt lat="-27.2719619" lon="151.3063607">
  <ele>525.81</ele>
  <time>2026-09-01T20:01:24Z</time>
  <course>197.57</course>
  <speed>28.085136638442762</speed>
  <fix>3d</fix>
</trkpt>
<trkpt lat="-27.2719132" lon="151.3063792">
  <ele>524.9</ele>
  <time>2026-09-01T20:01:24Z</time>
  <course>198.65</course>
  <speed>28.31</speed>
  <fix>3d</fix>
</trkpt>
<trkpt lat="-27.2719857" lon="151.3063513">
  <ele>526.11</ele>
  <time>2026-09-01T20:01:24Z</time>
  <course>197.35</course>
  <speed>27.969426165010965</speed>
  <fix>3d</fix>
</trkpt>
<trkpt lat="-27.2719132" lon="151.3063792">
  <ele>524.9</ele>
  <time>2026-09-01T20:01:24Z</time>
  <course>198.65</course>
  <speed>28.31</speed>
  <fix>3d</fix>
</trkpt>
<trkpt lat="-27.2720094" lon="151.3063421">
  <ele>526.33</ele>
  <time>2026-09-01T20:01:24Z</time>
  <course>197.39</course>
  <speed>27.848743239148153</speed>
  <fix>3d</fix>
</trkpt>
<trkpt lat="-27.2719612" lon="151.3063608">
  <ele>525.76</ele>
  <time>2026-09-01T20:01:24Z</time>
  <course>198.95</course>
  <speed>28.09</speed>
  <fix>3d</fix>
</trkpt>
<trkpt lat="-27.2720331" lon="151.3063325">
  <ele>526.49</ele>
  <time>2026-09-01T20:01:24Z</time>
  <course>197.64</course>
  <speed>27.74013878840551</speed>
  <fix>3d</fix>
</trkpt>
<trkpt lat="-27.2719612" lon="151.3063608">
  <ele>525.76</ele>
  <time>2026-09-01T20:01:24Z</time>
  <course>198.95</course>
  <speed>28.09</speed>
  <fix>3d</fix>
</trkpt>
<trkpt lat="-27.2720564" lon="151.3063228">
  <ele>526.59</ele>
  <time>2026-09-01T20:01:24Z</time>
  <course>198.04</course>
  <speed>27.641608129774216</speed>
  <fix>3d</fix>
</trkpt>
<trkpt lat="-27.2720087" lon="151.3063422">
  <ele>526.29</ele>
  <time>2026-09-01T20:01:25Z</time>
  <course>199.55</course>
  <speed>27.86</speed>
  <fix>3d</fix>
</trkpt>
<trkpt lat="-27.2720795" lon="151.3063129">
  <ele>526.65</ele>
  <time>2026-09-01T20:01:25Z</time>
  <course>198.69</course>
  <speed>27.549027206055754</speed>
  <fix>3d</fix>
</trkpt>
<trkpt lat="-27.2720087" lon="151.3063422">
  <ele>526.29</ele>
  <time>2026-09-01T20:01:25Z</time>
  <course>199.55</course>
  <speed>27.86</speed>
  <fix>3d</fix>
</trkpt>
<trkpt lat="-27.2721025" lon="151.3063025">
  <ele>526.66</ele>
  <time>2026-09-01T20:01:25Z</time>
  <course>199.48</course>
  <speed>27.47957787157583</speed>
  <fix>3d</fix>
</trkpt>
<trkpt lat="-27.2720555" lon="151.306323">
  <ele>526.56</ele>
  <time>2026-09-01T20:01:25Z</time>
  <course>200.6</course>
  <speed>27.65</speed>
  <fix>3d</fix>
</trkpt>
<trkpt lat="-27.2721252" lon="151.3062919">
  <ele>526.65</ele>
  <time>2026-09-01T20:01:25Z</time>
  <course>200.38</course>
  <speed>27.411603382509384</speed>
  <fix>3d</fix>
</trkpt>
<trkpt lat="-27.2720555" lon="151.306323">
  <ele>526.56</ele>
  <time>2026-09-01T20:01:25Z</time>
  <course>200.6</course>
  <speed>27.65</speed>
  <fix>3d</fix>
</trkpt>
<trkpt lat="-27.2721478" lon="151.3062809">
  <ele>526.6</ele>
  <time>2026-09-01T20:01:25Z</time>
  <course>201.38</course>
  <speed>27.35452065015945</speed>
  <fix>3d</fix>
</trkpt>
<trkpt lat="-27.2721016" lon="151.3063027">
  <ele>526.65</ele>
  <time>2026-09-01T20:01:25Z</time>
  <course>202.14</course>
  <speed>27.48</speed>
  <fix>3d</fix>
</trkpt>
<trkpt lat="-27.2721701" lon="151.3062693">
  <ele>526.53</ele>
  <time>2026-09-01T20:01:25Z</time>
  <course>202.48</course>
  <speed>27.309567920419394</speed>
  <fix>3d</fix>
</trkpt>
<trkpt lat="-27.2721016" lon="151.3063027">
  <ele>526.65</ele>
  <time>2026-09-01T20:01:25Z</time>
  <course>202.14</course>
  <speed>27.48</speed>
  <fix>3d</fix>
</trkpt>
<trkpt lat="-27.2721921" lon="151.3062573">
  <ele>526.43</ele>
  <time>2026-09-01T20:01:25Z</time>
  <course>203.69</course>
  <speed>27.262202772336646</speed>
  <fix>3d</fix>
</trkpt>
<trkpt lat="-27.2721469" lon="151.306281">
  <ele>526.59</ele>
  <time>2026-09-01T20:01:25Z</time>
  <course>204.12</course>
  <speed>27.36</speed>
  <fix>3d</fix>
</trkpt>
<trkpt lat="-27.2722138" lon="151.3062448">
  <ele>526.31</ele>
  <time>2026-09-01T20:01:25Z</time>
  <course>204.96</course>
  <speed>27.22753936733909</speed>
  <fix>3d</fix>
</trkpt>
<trkpt lat="-27.2721469" lon="151.306281">
  <ele>526.59</ele>
  <time>2026-09-01T20:01:25Z</time>
  <course>204.12</course>
  <speed>27.36</speed>
  <fix>3d</fix>
</trkpt>
<trkpt lat="-27.2722354" lon="151.3062316">
  <ele>526.18</ele>
  <time>2026-09-01T20:01:25Z</time>
  <course>206.28</course>
  <speed>27.19406185180875</speed>
  <fix>3d</fix>
</trkpt>
<trkpt lat="-27.2721913" lon="151.3062574">
  <ele>526.42</ele>
  <time>2026-09-01T20:01:25Z</time>
  <course>206.45</course>
  <speed>27.26</speed>
  <fix>3d</fix>
</trkpt>
<trkpt lat="-27.2722566" lon="151.3062181">
  <ele>526.03</ele>
  <time>2026-09-01T20:01:25Z</time>
  <course>207.57</course>
  <speed>27.166659713700543</speed>
  <fix>3d</fix>
</trkpt>
<trkpt lat="-27.2721913" lon="151.3062574">
  <ele>526.42</ele>
  <time>2026-09-01T20:01:25Z</time>
  <course>206.45</course>
  <speed>27.26</speed>
  <fix>3d</fix>
</trkpt>
<trkpt lat="-27.2722775" lon="151.3062038">
  <ele>525.87</ele>
  <time>2026-09-01T20:01:25Z</time>
  <course>208.69</course>
  <speed>27.1437101369728</speed>
  <fix>3d</fix>
</trkpt>
<trkpt lat="-27.2722345" lon="151.3062318">
  <ele>526.18</ele>
  <time>2026-09-01T20:01:25Z</time>
  <course>209.02</course>
  <speed>27.19</speed>
  <fix>3d</fix>
</trkpt>
<trkpt lat="-27.2722981" lon="151.3061892">
  <ele>525.7</ele>
  <time>2026-09-01T20:01:25Z</time>
  <course>209.6</course>
  <speed>27.116142793546427</speed>
  <fix>3d</fix>
</trkpt>
<trkpt lat="-27.2722345" lon="151.3062318">
  <ele>526.18</ele>
  <time>2026-09-01T20:01:25Z</time>
  <course>209.02</course>
  <speed>27.19</speed>
  <fix>3d</fix>
</trkpt>
<trkpt lat="-27.2723184" lon="151.3061741">
  <ele>525.53</ele>
  <time>2026-09-01T20:01:25Z</time>
  <course>210.42</course>
  <speed>27.086365573845452</speed>
  <fix>3d</fix>
</trkpt>
<trkpt lat="-27.2722766" lon="151.3062041">
  <ele>525.87</ele>
  <time>2026-09-01T20:01:25Z</time>
  <course>211.62</course>
  <speed>27.14</speed>
  <fix>3d</fix>
</trkpt>
<trkpt lat="-27.2723384" lon="151.3061587">
  <ele>525.35</ele>
  <time>2026-09-01T20:01:25Z</time>
  <course>211.22</course>
  <speed>27.052755867009186</speed>
  <fix>3d</fix>
</trkpt>
<trkpt lat="-27.2722766" lon="151.3062041">
  <ele>525.87</ele>
  <time>2026-09-01T20:01:25Z</time>
  <course>211.62</course>
  <speed>27.14</speed>
  <fix>3d</fix>
</trkpt>
<trkpt lat="-27.2723583" lon="151.3061429">
  <ele>525.16</ele>
  <time>2026-09-01T20:01:25Z</time>
  <course>211.96</course>
  <speed>27.014797796763165</speed>
  <fix>3d</fix>
</trkpt>
<trkpt lat="-27.2723176" lon="151.3061744">
  <ele>525.53</ele>
  <time>2026-09-01T20:01:25Z</time>
  <course>213.86</course>
  <speed>27.08</speed>
  <fix>3d</fix>
</trkpt>
<trkpt lat="-27.2723779" lon="151.3061268">
  <ele>524.98</ele>
  <time>2026-09-01T20:01:25Z</time>
  <course>212.64</course>
  <speed>26.969970337395626</speed>
  <fix>3d</fix>
</trkpt>
<trkpt lat="-27.2723176" lon="151.3061744">
  <ele>525.53</ele>
  <time>2026-09-01T20:01:25Z</time>
  <course>213.86</course>
  <speed>27.08</speed>
  <fix>3d</fix>
</trkpt>
<trkpt lat="-27.2723974" lon="151.3061107">
  <ele>524.79</ele>
  <time>2026-09-01T20:01:25Z</time>
  <course>213.3</course>
  <speed>26.93022465557983</speed>
  <fix>3d</fix>
</trkpt>
<trkpt lat="-27.2723575" lon="151.3061432">
  <ele>525.17</ele>
  <time>2026-09-01T20:01:25Z</time>
  <course>215.49</course>
  <speed>27.01</speed>
  <fix>3d</fix>
</trkpt>
<trkpt lat="-27.2724167" lon="151.3060944">
  <ele>524.59</ele>
  <time>2026-09-01T20:01:25Z</time>
  <course>213.94</course>
  <speed>26.88407149224239</speed>
  <fix>3d</fix>
</trkpt>
<trkpt lat="-27.2723575" lon="151.3061432">
  <ele>525.17</ele>
  <time>2026-09-01T20:01:25Z</time>
  <course>215.49</course>
  <speed>27.01</speed>
  <fix>3d</fix>
</trkpt>
<trkpt lat="-27.272436" lon="151.3060779">
  <ele>524.38</ele>
  <time>2026-09-01T20:01:25Z</time>
  <course>214.56</course>
  <speed>26.842790465970563</speed>
  <fix>3d</fix>
</trkpt>
<trkpt lat="-27.2723967" lon="151.306111">
  <ele>524.79</ele>
  <time>2026-09-01T20:01:25Z</time>
  <course>216.58</course>
  <speed>26.93</speed>
  <fix>3d</fix>
</trkpt>
<trkpt lat="-27.2724551" lon="151.3060616">
  <ele>524.16</ele>
  <time>2026-09-01T20:01:25Z</time>
  <course>215.1</course>
  <speed>26.805934044535732</speed>
  <fix>3d</fix>
</trkpt>
<trkpt lat="-27.2723967" lon="151.306111">
  <ele>524.79</ele>
  <time>2026-09-01T20:01:25Z</time>
  <course>216.58</course>
  <speed>26.93</speed>
  <fix>3d</fix>
</trkpt>
<trkpt lat="-27.2724748" lon="151.3060444">
  <ele>523.93</ele>
  <time>2026-09-01T20:01:25Z</time>
  <course>215.52</course>
  <speed>26.765233045875014</speed>
  <fix>3d</fix>
</trkpt>
<trkpt lat="-27.2724354" lon="151.3060784">
  <ele>524.38</ele>
  <time>2026-09-01T20:01:25Z</time>
  <course>217.28</course>
  <speed>26.85</speed>
  <fix>3d</fix>
</trkpt>
<trkpt lat="-27.2724937" lon="151.3060279">
  <ele>523.71</ele>
  <time>2026-09-01T20:01:25Z</time>
  <course>215.87</course>
  <speed>26.736237581230462</speed>
  <fix>3d</fix>
</trkpt>
<trkpt lat="-27.2724354" lon="151.3060784">
  <ele>524.38</ele>
  <time>2026-09-01T20:01:25Z</time>
  <course>217.28</course>
  <speed>26.85</speed>
  <fix>3d</fix>
</trkpt>
<trkpt lat="-27.2725127" lon="151.3060113">
  <ele>523.49</ele>
  <time>2026-09-01T20:01:25Z</time>
  <course>216.22</course>
  <speed>26.71698336264781</speed>
  <fix>3d</fix>
</trkpt>
<trkpt lat="-27.2724736" lon="151.3060454">
  <ele>523.94</ele>
  <time>2026-09-01T20:01:25Z</time>
  <course>217.72</course>
  <speed>26.77</speed>
  <fix>3d</fix>
</trkpt>
<trkpt lat="-27.2725316" lon="151.3059946">
  <ele>523.28</ele>
  <time>2026-09-01T20:01:25Z</time>
  <course>216.53</course>
  <speed>26.685464208066534</speed>
  <fix>3d</fix>
</trkpt>
<trkpt lat="-27.2724736" lon="151.3060454">
  <ele>523.94</ele>
  <time>2026-09-01T20:01:25Z</time>
  <course>217.72</course>
  <speed>26.77</speed>
  <fix>3d</fix>
</trkpt>
<trkpt lat="-27.2725504" lon="151.3059781">
  <ele>523.08</ele>
  <time>2026-09-01T20:01:25Z</time>
  <course>216.71</course>
  <speed>26.663550026206188</speed>
  <fix>3d</fix>
</trkpt>
<trkpt lat="-27.2725115" lon="151.3060122">
  <ele>523.51</ele>
  <time>2026-09-01T20:01:25Z</time>
  <course>217.95</course>
  <speed>26.72</speed>
  <fix>3d</fix>
</trkpt>
<trkpt lat="-27.2725693" lon="151.3059615">
  <ele>522.91</ele>
  <time>2026-09-01T20:01:25Z</time>
  <course>216.79</course>
  <speed>26.637193921282325</speed>
  <fix>3d</fix>
</trkpt>
<trkpt lat="-27.2725115" lon="151.3060122">
  <ele>523.51</ele>
  <time>2026-09-01T20:01:25Z</time>
  <course>217.95</course>
  <speed>26.72</speed>
  <fix>3d</fix>
</trkpt>
<trkpt lat="-27.2725877" lon="151.3059453">
  <ele>522.76</ele>
  <time>2026-09-01T20:01:25Z</time>
  <course>216.83</course>
  <speed>26.592404930731632</speed>
  <fix>3d</fix>
</trkpt>
<trkpt lat="-27.2725493" lon="151.3059789">
  <ele>523.1</ele>
  <time>2026-09-01T20:01:25Z</time>
  <course>218.01</course>
  <speed>26.66</speed>
  <fix>3d</fix>
</trkpt>
<trkpt lat="-27.2726065" lon="151.3059289">
  <ele>522.63</ele>
  <time>2026-09-01T20:01:25Z</time>
  <course>216.86</course>
  <speed>26.557353030752143</speed>
  <fix>3d</fix>
</trkpt>
<trkpt lat="-27.2725493" lon="151.3059789">
  <ele>523.1</ele>
  <time>2026-09-01T20:01:25Z</time>
  <course>218.01</course>
  <speed>26.66</speed>
  <fix>3d</fix>
</trkpt>
<trkpt lat="-27.2726254" lon="151.3059125">
  <ele>522.54</ele>
  <time>2026-09-01T20:01:25Z</time>
  <course>216.83</course>
  <speed>26.496207275759296</speed>
  <fix>3d</fix>
</trkpt>
<trkpt lat="-27.272587" lon="151.3059458">
  <ele>522.78</ele>
  <time>2026-09-01T20:01:25Z</time>
  <course>217.89</course>
  <speed>26.6</speed>
  <fix>3d</fix>
</trkpt>
<trkpt lat="-27.2726442" lon="151.3058962">
  <ele>522.5</ele>
  <time>2026-09-01T20:01:25Z</time>
  <course>216.73</course>
  <speed>26.423145157229104</speed>
  <fix>3d</fix>
</trkpt>
<trkpt lat="-27.272587" lon="151.3059458">
  <ele>522.78</ele>
  <time>2026-09-01T20:01:25Z</time>
  <course>217.89</course>
  <speed>26.6</speed>
  <fix>3d</fix>
</trkpt>
<trkpt lat="-27.2726631" lon="151.30588">
  <ele>522.49</ele>
  <time>2026-09-01T20:01:25Z</time>
  <course>216.61</course>
  <speed>26.324330950662358</speed>
  <fix>3d</fix>
</trkpt>
<trkpt lat="-27.2726247" lon="151.305913">
  <ele>522.57</ele>
  <time>2026-09-01T20:01:25Z</time>
  <course>217.59</course>
  <speed>26.49</speed>
  <fix>3d</fix>
</trkpt>
<trkpt lat="-27.2726819" lon="151.305864">
  <ele>522.52</ele>
  <time>2026-09-01T20:01:25Z</time>
  <course>216.53</course>
  <speed>26.168012916536096</speed>
  <fix>3d</fix>
</trkpt>
<trkpt lat="-27.2726247" lon="151.305913">
  <ele>522.57</ele>
  <time>2026-09-01T20:01:25Z</time>
  <course>217.59</course>
  <speed>26.49</speed>
  <fix>3d</fix>
</trkpt>
<trkpt lat="-27.2727007" lon="151.3058484">
  <ele>522.56</ele>
  <time>2026-09-01T20:01:25Z</time>
  <course>216.38</course>
  <speed>25.94694972438957</speed>
  <fix>3d</fix>
</trkpt>
<trkpt lat="-27.2726624" lon="151.3058806">
  <ele>522.5</ele>
  <time>2026-09-01T20:01:25Z</time>
  <course>217.12</course>
  <speed>26.3</speed>
  <fix>3d</fix>
</trkpt>
<trkpt lat="-27.2727194" lon="151.305833">
  <ele>522.64</ele>
  <time>2026-09-01T20:01:25Z</time>
  <course>216.18</course>
  <speed>25.656196132708374</speed>
  <fix>3d</fix>
</trkpt>
<trkpt lat="-27.2726624" lon="151.3058806">
  <ele>522.5</ele>
  <time>2026-09-01T20:01:25Z</time>
  <course>217.12</course>
  <speed>26.3</speed>
  <fix>3d</fix>
</trkpt>
<trkpt lat="-27.272738" lon="151.3058179">
  <ele>522.75</ele>
  <time>2026-09-01T20:01:25Z</time>
  <course>215.92</course>
  <speed>25.29813431856191</speed>
  <fix>3d</fix>
</trkpt>
<trkpt lat="-27.2727" lon="151.305849">
  <ele>522.57</ele>
  <time>2026-09-01T20:01:25Z</time>
  <course>216.34</course>
  <speed>25.92</speed>
  <fix>3d</fix>
</trkpt>
<trkpt lat="-27.2727565" lon="151.3058035">
  <ele>522.89</ele>
  <time>2026-09-01T20:01:25Z</time>
  <course>215.62</course>
  <speed>24.887758034825072</speed>
  <fix>3d</fix>
</trkpt>
<trkpt lat="-27.2727" lon="151.305849">
  <ele>522.57</ele>
  <time>2026-09-01T20:01:25Z</time>
  <course>216.34</course>
  <speed>25.92</speed>
  <fix>3d</fix>
</trkpt>
<trkpt lat="-27.2727748" lon="151.3057893">
  <ele>523.04</ele>
  <time>2026-09-01T20:01:25Z</time>
  <course>215.29</course>
  <speed>24.466109212541337</speed>
  <fix>3d</fix>
</trkpt>
<trkpt lat="-27.2727373" lon="151.3058187">
  <ele>522.76</ele>
  <time>2026-09-01T20:01:25Z</time>
  <course>215.29</course>
  <speed>25.29</speed>
  <fix>3d</fix>
</trkpt>
<trkpt lat="-27.2727928" lon="151.3057757">
  <ele>523.21</ele>
  <time>2026-09-01T20:01:25Z</time>
  <course>214.93</course>
  <speed>24.05187102909044</speed>
  <fix>3d</fix>
</trkpt>
<trkpt lat="-27.2727373" lon="151.3058187">
  <ele>522.76</ele>
  <time>2026-09-01T20:01:25Z</time>
  <course>215.29</course>
  <speed>25.29</speed>
  <fix>3d</fix>
</trkpt>
<trkpt lat="-27.2728107" lon="151.3057623">
  <ele>523.38</ele>
  <time>2026-09-01T20:01:25Z</time>
  <course>214.58</course>
  <speed>23.65534611879522</speed>
  <fix>3d</fix>
</trkpt>
<trkpt lat="-27.2727741" lon="151.30579">
  <ele>523.05</ele>
  <time>2026-09-01T20:01:25Z</time>
  <course>214.28</course>
  <speed>24.48</speed>
  <fix>3d</fix>
</trkpt>
<trkpt lat="-27.2728283" lon="151.3057493">
  <ele>523.54</ele>
  <time>2026-09-01T20:01:25Z</time>
  <course>214.24</course>
  <speed>23.28160003092571</speed>
  <fix>3d</fix>
</trkpt>
<trkpt lat="-27.2727741" lon="151.30579">
  <ele>523.05</ele>
  <time>2026-09-01T20:01:25Z</time>
  <course>214.28</course>
  <speed>24.48</speed>
  <fix>3d</fix>
</trkpt>
<trkpt lat="-27.2728457" lon="151.3057365">
  <ele>523.68</ele>
  <time>2026-09-01T20:01:25Z</time>
  <course>213.95</course>
  <speed>22.930176623829134</speed>
  <fix>3d</fix>
</trkpt>
<trkpt lat="-27.2728101" lon="151.3057627">
  <ele>523.37</ele>
  <time>2026-09-01T20:01:25Z</time>
  <course>213.53</course>
  <speed>23.68</speed>
  <fix>3d</fix>
</trkpt>
<trkpt lat="-27.2728634" lon="151.3057236">
  <ele>523.79</ele>
  <time>2026-09-01T20:01:25Z</time>
  <course>213.7</course>
  <speed>22.58446368634863</speed>
  <fix>3d</fix>
</trkpt>
<trkpt lat="-27.2728101" lon="151.3057627">
  <ele>523.37</ele>
  <time>2026-09-01T20:01:25Z</time>
  <course>213.53</course>
  <speed>23.68</speed>
  <fix>3d</fix>
</trkpt>
<trkpt lat="-27.2728803" lon="151.3057114">
  <ele>523.88</ele>
  <time>2026-09-01T20:01:25Z</time>
  <course>213.5</course>
  <speed>22.27202056392729</speed>
  <fix>3d</fix>
</trkpt>
<trkpt lat="-27.2728451" lon="151.305737">
  <ele>523.66</ele>
  <time>2026-09-01T20:01:25Z</time>
  <course>213.02</course>
  <speed>22.95</speed>
  <fix>3d</fix>
</trkpt>
<trkpt lat="-27.2728971" lon="151.3056992">
  <ele>523.94</ele>
  <time>2026-09-01T20:01:25Z</time>
  <course>213.31</course>
  <speed>21.973552284507846</speed>
  <fix>3d</fix>
</trkpt>
<trkpt lat="-27.2728451" lon="151.305737">
  <ele>523.66</ele>
  <time>2026-09-01T20:01:25Z</time>
  <course>213.02</course>
  <speed>22.95</speed>
  <fix>3d</fix>
</trkpt>
<trkpt lat="-27.2729136" lon="151.3056875">
  <ele>523.96</ele>
  <time>2026-09-01T20:01:25Z</time>
  <course>213.12</course>
  <speed>21.699753454820634</speed>
  <fix>3d</fix>
</trkpt>
<trkpt lat="-27.2728792" lon="151.3057122">
  <ele>523.86</ele>
  <time>2026-09-01T20:01:25Z</time>
  <course>212.67</course>
  <speed>22.3</speed>
  <fix>3d</fix>
</trkpt>
<trkpt lat="-27.27293" lon="151.3056758">
  <ele>523.95</ele>
  <time>2026-09-01T20:01:25Z</time>
  <course>212.94</course>
  <speed>21.42602622979819</speed>
  <fix>3d</fix>
</trkpt>
<trkpt lat="-27.2728792" lon="151.3057122">
  <ele>523.86</ele>
  <time>2026-09-01T20:01:25Z</time>
  <course>212.67</course>
  <speed>22.3</speed>
  <fix>3d</fix>
</trkpt>
<trkpt lat="-27.2729462" lon="151.3056643">
  <ele>523.91</ele>
  <time>2026-09-01T20:01:25Z</time>
  <course>212.76</course>
  <speed>21.179955146317003</speed>
  <fix>3d</fix>
</trkpt>
<trkpt lat="-27.2729125" lon="151.3056882">
  <ele>523.94</ele>
  <time>2026-09-01T20:01:25Z</time>
  <course>212.42</course>
  <speed>21.72</speed>
  <fix>3d</fix>
</trkpt>
<trkpt lat="-27.2729622" lon="151.305653">
  <ele>523.86</ele>
  <time>2026-09-01T20:01:25Z</time>
  <course>212.59</course>
  <speed>20.944579250966108</speed>
  <fix>3d</fix>
</trkpt>
<trkpt lat="-27.2729125" lon="151.3056882">
  <ele>523.94</ele>
  <time>2026-09-01T20:01:25Z</time>
  <course>212.42</course>
  <speed>21.72</speed>
  <fix>3d</fix>
</trkpt>
<trkpt lat="-27.272978" lon="151.3056418">
  <ele>523.79</ele>
  <time>2026-09-01T20:01:25Z</time>
  <course>212.43</course>
  <speed>20.72615979866989</speed>
  <fix>3d</fix>
</trkpt>
<trkpt lat="-27.2729451" lon="151.3056651">
  <ele>523.91</ele>
  <time>2026-09-01T20:01:25Z</time>
  <course>212.23</course>
  <speed>21.2</speed>
  <fix>3d</fix>
</trkpt>
<trkpt lat="-27.2729937" lon="151.3056307">
  <ele>523.69</ele>
  <time>2026-09-01T20:01:25Z</time>
  <course>212.28</course>
  <speed>20.513081192253885</speed>
  <fix>3d</fix>
</trkpt>
<trkpt lat="-27.2729451" lon="151.3056651">
  <ele>523.91</ele>
  <time>2026-09-01T20:01:25Z</time>
  <course>212.23</course>
  <speed>21.2</speed>
  <fix>3d</fix>
</trkpt>
<trkpt lat="-27.2730093" lon="151.3056198">
  <ele>523.58</ele>
  <time>2026-09-01T20:01:25Z</time>
  <course>212.16</course>
  <speed>20.30850560725727</speed>
  <fix>3d</fix>
</trkpt>
<trkpt lat="-27.272977" lon="151.3056425">
  <ele>523.78</ele>
  <time>2026-09-01T20:01:25Z</time>
  <course>212.09</course>
  <speed>20.74</speed>
  <fix>3d</fix>
</trkpt>
<trkpt lat="-27.2730246" lon="151.305609">
  <ele>523.46</ele>
  <time>2026-09-01T20:01:25Z</time>
  <course>212.07</course>
  <speed>20.117735956115936</speed>
  <fix>3d</fix>
</trkpt>
<trkpt lat="-27.272977" lon="151.3056425">
  <ele>523.78</ele>
  <time>2026-09-01T20:01:25Z</time>
  <course>212.09</course>
  <speed>20.74</speed>
  <fix>3d</fix>
</trkpt>
<trkpt lat="-27.2730398" lon="151.3055982">
  <ele>523.32</ele>
  <time>2026-09-01T20:01:25Z</time>
  <course>211.99</course>
  <speed>19.940762272290396</speed>
  <fix>3d</fix>
</trkpt>
<trkpt lat="-27.2730083" lon="151.3056204">
  <ele>523.58</ele>
  <time>2026-09-01T20:01:25Z</time>
  <course>211.96</course>
  <speed>20.33</speed>
  <fix>3d</fix>
</trkpt>
<trkpt lat="-27.273055" lon="151.3055877">
  <ele>523.18</ele>
  <time>2026-09-01T20:01:25Z</time>
  <course>211.92</course>
  <speed>19.772308919294176</speed>
  <fix>3d</fix>
</trkpt>
<trkpt lat="-27.2730083" lon="151.3056204">
  <ele>523.58</ele>
  <time>2026-09-01T20:01:25Z</time>
  <course>211.96</course>
  <speed>20.33</speed>
  <fix>3d</fix>
</trkpt>
<trkpt lat="-27.2730698" lon="151.3055775">
  <ele>523.03</ele>
  <time>2026-09-01T20:01:25Z</time>
  <course>211.86</course>
  <speed>19.609143275523284</speed>
  <fix>3d</fix>
</trkpt>
<trkpt lat="-27.273039" lon="151.305599">
  <ele>523.32</ele>
  <time>2026-09-01T20:01:25Z</time>
  <course>211.84</course>
  <speed>19.96</speed>
  <fix>3d</fix>
</trkpt>
<trkpt lat="-27.2730847" lon="151.3055671">
  <ele>522.87</ele>
  <time>2026-09-01T20:01:25Z</time>
  <course>211.8</course>
  <speed>19.45450333470377</speed>
  <fix>3d</fix>
</trkpt>
<trkpt lat="-27.273039" lon="151.305599">
  <ele>523.32</ele>
  <time>2026-09-01T20:01:25Z</time>
  <course>211.84</course>
  <speed>19.96</speed>
  <fix>3d</fix>
</trkpt>
<trkpt lat="-27.2730995" lon="151.3055569">
  <ele>522.71</ele>
  <time>2026-09-01T20:01:25Z</time>
  <course>211.73</course>
  <speed>19.305128852198838</speed>
  <fix>3d</fix>
</trkpt>
<trkpt lat="-27.2730692" lon="151.3055779">
  <ele>523.03</ele>
  <time>2026-09-01T20:01:25Z</time>
  <course>211.72</course>
  <speed>19.62</speed>
  <fix>3d</fix>
</trkpt>
<trkpt lat="-27.2731142" lon="151.3055466">
  <ele>522.54</ele>
  <time>2026-09-01T20:01:25Z</time>
  <course>211.68</course>
  <speed>19.16428448964375</speed>
  <fix>3d</fix>
</trkpt>
<trkpt lat="-27.2730692" lon="151.3055779">
  <ele>523.03</ele>
  <time>2026-09-01T20:01:25Z</time>
  <course>211.72</course>
  <speed>19.62</speed>
  <fix>3d</fix>
</trkpt>
<trkpt lat="-27.2731288" lon="151.3055365">
  <ele>522.36</ele>
  <time>2026-09-01T20:01:25Z</time>
  <course>211.62</course>
  <speed>19.023459201733</speed>
  <fix>3d</fix>
</trkpt>
<trkpt lat="-27.2730989" lon="151.3055572">
  <ele>522.7</ele>
  <time>2026-09-01T20:01:25Z</time>
  <course>211.61</course>
  <speed>19.32</speed>
  <fix>3d</fix>
</trkpt>
<trkpt lat="-27.2731434" lon="151.3055265">
  <ele>522.19</ele>
  <time>2026-09-01T20:01:25Z</time>
  <course>211.56</course>
  <speed>18.896401773882772</speed>
  <fix>3d</fix>
</trkpt>
<trkpt lat="-27.2730989" lon="151.3055572">
  <ele>522.7</ele>
  <time>2026-09-01T20:01:25Z</time>
  <course>211.61</course>
  <speed>19.32</speed>
  <fix>3d</fix>
</trkpt>
<trkpt lat="-27.2731578" lon="151.3055167">
  <ele>522.01</ele>
  <time>2026-09-01T20:01:25Z</time>
  <course>211.51</course>
  <speed>18.760823542691295</speed>
  <fix>3d</fix>
</trkpt>
<trkpt lat="-27.2731283" lon="151.3055369">
  <ele>522.36</ele>
  <time>2026-09-01T20:01:25Z</time>
  <course>211.51</course>
  <speed>19.03</speed>
  <fix>3d</fix>
</trkpt>
<trkpt lat="-27.2731721" lon="151.3055068">
  <ele>521.82</ele>
  <time>2026-09-01T20:01:25Z</time>
  <course>211.46</course>
  <speed>18.64232818078257</speed>
  <fix>3d</fix>
</trkpt>
<trkpt lat="-27.2731283" lon="151.3055369">
  <ele>522.36</ele>
  <time>2026-09-01T20:01:25Z</time>
  <course>211.51</course>
  <speed>19.03</speed>
  <fix>3d</fix>
</trkpt>
<trkpt lat="-27.2731869" lon="151.3054967">
  <ele>521.63</ele>
  <time>2026-09-01T20:01:25Z</time>
  <course>211.41</course>
  <speed>18.52051025215018</speed>
  <fix>3d</fix>
</trkpt>
<trkpt lat="-27.2731574" lon="151.305517">
  <ele>522.01</ele>
  <time>2026-09-01T20:01:25Z</time>
  <course>211.41</course>
  <speed>18.77</speed>
  <fix>3d</fix>
</trkpt>
<trkpt lat="-27.273201" lon="151.3054871">
  <ele>521.44</ele>
  <time>2026-09-01T20:01:25Z</time>
  <course>211.37</course>
  <speed>18.40724042326823</speed>
  <fix>3d</fix>
</trkpt>
<trkpt lat="-27.2731574" lon="151.305517">
  <ele>522.01</ele>
  <time>2026-09-01T20:01:25Z</time>
  <course>211.41</course>
  <speed>18.77</speed>
  <fix>3d</fix>
</trkpt>
<trkpt lat="-27.2732151" lon="151.3054774">
  <ele>521.25</ele>
  <time>2026-09-01T20:01:25Z</time>
  <course>211.33</course>
  <speed>18.29397988410395</speed>
  <fix>3d</fix>
</trkpt>
<trkpt lat="-27.273186" lon="151.3054973">
  <ele>521.64</ele>
  <time>2026-09-01T20:01:25Z</time>
  <course>211.33</course>
  <speed>18.53</speed>
  <fix>3d</fix>
</trkpt>
<trkpt lat="-27.2732291" lon="151.3054679">
  <ele>521.06</ele>
  <time>2026-09-01T20:01:25Z</time>
  <course>211.29</course>
  <speed>18.180728808273887</speed>
  <fix>3d</fix>
</trkpt>
<trkpt lat="-27.273186" lon="151.3054973">
  <ele>521.64</ele>
  <time>2026-09-01T20:01:25Z</time>
  <course>211.33</course>
  <speed>18.53</speed>
  <fix>3d</fix>
</trkpt>
<trkpt lat="-27.2732431" lon="151.3054584">
  <ele>520.87</ele>
  <time>2026-09-01T20:01:25Z</time>
  <course>211.26</course>
  <speed>18.081219538515647</speed>
  <fix>3d</fix>
</trkpt>
<trkpt lat="-27.2732142" lon="151.305478">
  <ele>521.26</ele>
  <time>2026-09-01T20:01:25Z</time>
  <course>211.26</course>
  <speed>18.3</speed>
  <fix>3d</fix>
</trkpt>
<trkpt lat="-27.2732569" lon="151.3054488">
  <ele>520.68</ele>
  <time>2026-09-01T20:01:25Z</time>
  <course>211.22</course>
  <speed>17.973157763732004</speed>
  <fix>3d</fix>
</trkpt>
<trkpt lat="-27.2732142" lon="151.305478">
  <ele>521.26</ele>
  <time>2026-09-01T20:01:25Z</time>
  <course>211.26</course>
  <speed>18.3</speed>
  <fix>3d</fix>
</trkpt>
<trkpt lat="-27.2732707" lon="151.3054396">
  <ele>520.48</ele>
  <time>2026-09-01T20:01:25Z</time>
  <course>211.18</course>
  <speed>17.882217424022112</speed>
  <fix>3d</fix>
</trkpt>
<trkpt lat="-27.2732422" lon="151.3054589">
  <ele>520.88</ele>
  <time>2026-09-01T20:01:25Z</time>
  <course>211.19</course>
  <speed>18.09</speed>
  <fix>3d</fix>
</trkpt>
<trkpt lat="-27.2732844" lon="151.3054302">
  <ele>520.29</ele>
  <time>2026-09-01T20:01:25Z</time>
  <course>211.15</course>
  <speed>17.78272476309522</speed>
  <fix>3d</fix>
</trkpt>
<trkpt lat="-27.2732422" lon="151.3054589">
  <ele>520.88</ele>
  <time>2026-09-01T20:01:25Z</time>
  <course>211.19</course>
  <speed>18.09</speed>
  <fix>3d</fix>
</trkpt>
<trkpt lat="-27.2732981" lon="151.305421">
  <ele>520.09</ele>
  <time>2026-09-01T20:01:25Z</time>
  <course>211.12</course>
  <speed>17.683237825692444</speed>
  <fix>3d</fix>
</trkpt>
<trkpt lat="-27.2732698" lon="151.3054401">
  <ele>520.49</ele>
  <time>2026-09-01T20:01:25Z</time>
  <course>211.12</course>
  <speed>17.89</speed>
  <fix>3d</fix>
</trkpt>
<trkpt lat="-27.2733116" lon="151.3054118">
  <ele>519.89</ele>
  <time>2026-09-01T20:01:25Z</time>
  <course>211.08</course>
  <speed>17.59747993321771</speed>
  <fix>3d</fix>
</trkpt>
<trkpt lat="-27.2732698" lon="151.3054401">
  <ele>520.49</ele>
  <time>2026-09-01T20:01:25Z</time>
  <course>211.12</course>
  <speed>17.89</speed>
  <fix>3d</fix>
</trkpt>
<trkpt lat="-27.2733251" lon="151.3054027">
  <ele>519.69</ele>
  <time>2026-09-01T20:01:25Z</time>
  <course>211.05</course>
  <speed>17.506575907355497</speed>
  <fix>3d</fix>
</trkpt>
<trkpt lat="-27.2732972" lon="151.3054216">
  <ele>520.09</ele>
  <time>2026-09-01T20:01:25Z</time>
  <course>211.05</course>
  <speed>17.7</speed>
  <fix>3d</fix>
</trkpt>
<trkpt lat="-27.2733386" lon="151.3053936">
  <ele>519.49</ele>
  <time>2026-09-01T20:01:25Z</time>
  <course>211.02</course>
  <speed>17.420826616438152</speed>
  <fix>3d</fix>
</trkpt>
<trkpt lat="-27.2732972" lon="151.3054216">
  <ele>520.09</ele>
  <time>2026-09-01T20:01:25Z</time>
  <course>211.05</course>
  <speed>17.7</speed>
  <fix>3d</fix>
</trkpt>
<trkpt lat="-27.273352" lon="151.3053846">
  <ele>519.29</ele>
  <time>2026-09-01T20:01:25Z</time>
  <course>210.99</course>
  <speed>17.343658783543916</speed>
  <fix>3d</fix>
</trkpt>
<trkpt lat="-27.2733243" lon="151.3054032">
  <ele>519.7</ele>
  <time>2026-09-01T20:01:25Z</time>
  <course>210.99</course>
  <speed>17.52</speed>
  <fix>3d</fix>
</trkpt>
<trkpt lat="-27.2733653" lon="151.3053756">
  <ele>519.09</ele>
  <time>2026-09-01T20:01:25Z</time>
  <course>210.96</course>
  <speed>17.2579170237894</speed>
  <fix>3d</fix>
</trkpt>
<trkpt lat="-27.2733243" lon="151.3054032">
  <ele>519.7</ele>
  <time>2026-09-01T20:01:25Z</time>
  <course>210.99</course>
  <speed>17.52</speed>
  <fix>3d</fix>
</trkpt>
<trkpt lat="-27.2733786" lon="151.3053665">
  <ele>518.89</ele>
  <time>2026-09-01T20:01:25Z</time>
  <course>210.93</course>
  <speed>17.18589247027922</speed>
  <fix>3d</fix>
</trkpt>
<trkpt lat="-27.2733512" lon="151.3053851">
  <ele>519.3</ele>
  <time>2026-09-01T20:01:25Z</time>
  <course>210.93</course>
  <speed>17.35</speed>
  <fix>3d</fix>
</trkpt>
<trkpt lat="-27.2733918" lon="151.3053578">
  <ele>518.69</ele>
  <time>2026-09-01T20:01:25Z</time>
  <course>210.9</course>
  <speed>17.108740456269715</speed>
  <fix>3d</fix>
</trkpt>
<trkpt lat="-27.2733512" lon="151.3053851">
  <ele>519.3</ele>
  <time>2026-09-01T20:01:25Z</time>
  <course>210.93</course>
  <speed>17.35</speed>
  <fix>3d</fix>
</trkpt>
<trkpt lat="-27.273405" lon="151.3053488">
  <ele>518.49</ele>
  <time>2026-09-01T20:01:25Z</time>
  <course>210.87</course>
  <speed>17.0367191677271</speed>
  <fix>3d</fix>
</trkpt>
<trkpt lat="-27.2733778" lon="151.3053671">
  <ele>518.9</ele>
  <time>2026-09-01T20:01:25Z</time>
  <course>210.87</course>
  <speed>17.19</speed>
  <fix>3d</fix>
</trkpt>
<trkpt lat="-27.2734181" lon="151.3053401">
  <ele>518.28</ele>
  <time>2026-09-01T20:01:25Z</time>
  <course>210.85</course>
  <speed>16.959578414571514</speed>
  <fix>3d</fix>
</trkpt>
<trkpt lat="-27.2733778" lon="151.3053671">
  <ele>518.9</ele>
  <time>2026-09-01T20:01:25Z</time>
  <course>210.87</course>
  <speed>17.19</speed>
  <fix>3d</fix>
</trkpt>
<trkpt lat="-27.2734312" lon="151.3053314">
  <ele>518.08</ele>
  <time>2026-09-01T20:01:25Z</time>
  <course>210.82</course>
  <speed>16.88756051062438</speed>
  <fix>3d</fix>
</trkpt>
<trkpt lat="-27.2734042" lon="151.3053494">
  <ele>518.49</ele>
  <time>2026-09-01T20:01:25Z</time>
  <course>210.82</course>
  <speed>17.04</speed>
  <fix>3d</fix>
</trkpt>
<trkpt lat="-27.2715945" lon="151.3093922">
  <ele>539.69</ele>
  <time>2026-09-01T20:01:25Z</time>
  <course>251.73</course>
  <speed>11.532814053820516</speed>
  <fix>3d</fix>
</trkpt>
<trkpt lat="-27.2734042" lon="151.3053494">
  <ele>518.49</ele>
  <time>2026-09-01T20:01:25Z</time>
  <course>210.82</course>
  <speed>17.04</speed>
  <fix>3d</fix>
</trkpt>
<trkpt lat="-27.271597" lon="151.3093815">
  <ele>535.93</ele>
  <time>2026-09-01T20:01:25Z</time>
  <course>248.77</course>
  <speed>11.568820164563022</speed>
  <fix>3d</fix>
</trkpt>
<trkpt lat="-27.2725059" lon="151.3073667">
  <ele>529.08</ele>
  <time>2026-09-01T20:01:25Z</time>
  <course>228.7</course>
  <speed>13.25</speed>
  <fix>3d</fix>
</trkpt>
<trkpt lat="-27.2716013" lon="151.3093696">
  <ele>531.97</ele>
  <time>2026-09-01T20:01:25Z</time>
  <course>231.51</course>
  <speed>13.007294107538279</speed>
  <fix>3d</fix>
</trkpt>
<trkpt lat="-27.2725059" lon="151.3073667">
  <ele>529.08</ele>
  <time>2026-09-01T20:01:25Z</time>
  <course>228.7</course>
  <speed>13.25</speed>
  <fix>3d</fix>
</trkpt>
<trkpt lat="-27.2716086" lon="151.3093587">
  <ele>528.2</ele>
  <time>2026-09-01T20:01:25Z</time>
  <course>211.65</course>
  <speed>13.993659278401772</speed>
  <fix>3d</fix>
</trkpt>
<trkpt lat="-27.2715977" lon="151.3093816">
  <ele>536.03</ele>
  <time>2026-09-01T20:01:25Z</time>
  <course>248.59</course>
  <speed>12.18</speed>
  <fix>3d</fix>
</trkpt>
<trkpt lat="-27.2716184" lon="151.3093496">
  <ele>524.44</ele>
  <time>2026-09-01T20:01:25Z</time>
  <course>200.12</course>
  <speed>14.284628101564284</speed>
  <fix>3d</fix>
</trkpt>
<trkpt lat="-27.2715977" lon="151.3093816">
  <ele>536.03</ele>
  <time>2026-09-01T20:01:25Z</time>
  <course>248.59</course>
  <speed>12.18</speed>
  <fix>3d</fix>
</trkpt>
<trkpt lat="-27.2716289" lon="151.3093401">
  <ele>520.72</ele>
  <time>2026-09-01T20:01:25Z</time>
  <course>214.53</course>
  <speed>16.56805661506503</speed>
  <fix>3d</fix>
</trkpt>
<trkpt lat="-27.2716094" lon="151.3093601">
  <ele>528.42</ele>
  <time>2026-09-01T20:01:25Z</time>
  <course>228.55</course>
  <speed>13.24</speed>
  <fix>3d</fix>
</trkpt>
<trkpt lat="-27.2716395" lon="151.3093237">
  <ele>517.29</ele>
  <time>2026-09-01T20:01:25Z</time>
  <course>228.74</course>
  <speed>24.255055143206746</speed>
  <fix>3d</fix>
</trkpt>
<trkpt lat="-27.2716094" lon="151.3093601">
  <ele>528.42</ele>
  <time>2026-09-01T20:01:25Z</time>
  <course>228.55</course>
  <speed>13.24</speed>
  <fix>3d</fix>
</trkpt>
<trkpt lat="-27.2716516" lon="151.3092988">
  <ele>514.56</ele>
  <time>2026-09-01T20:01:25Z</time>
  <course>235.58</course>
  <speed>31.521960598922142</speed>
  <fix>3d</fix>
</trkpt>
<trkpt lat="-27.2716283" lon="151.3093375">
  <ele>521.06</ele>
  <time>2026-09-01T20:01:25Z</time>
  <course>230.18</course>
  <speed>18.68</speed>
  <fix>3d</fix>
</trkpt>
<trkpt lat="-27.2716655" lon="151.3092683">
  <ele>512.75</ele>
  <time>2026-09-01T20:01:25Z</time>
  <course>236.94</course>
  <speed>35.78771437239322</speed>
  <fix>3d</fix>
</trkpt>
<trkpt lat="-27.2716283" lon="151.3093375">
  <ele>521.06</ele>
  <time>2026-09-01T20:01:25Z</time>
  <course>230.18</course>
  <speed>18.68</speed>
  <fix>3d</fix>
</trkpt>
<trkpt lat="-27.2716818" lon="151.3092361">
  <ele>511.89</ele>
  <time>2026-09-01T20:01:25Z</time>
  <course>233.18</course>
  <speed>37.12257803547593</speed>
  <fix>3d</fix>
</trkpt>
<trkpt lat="-27.2716518" lon="151.3092975">
  <ele>515.15</ele>
  <time>2026-09-01T20:01:25Z</time>
  <course>240.76</course>
  <speed>29.69</speed>
  <fix>3d</fix>
</trkpt>
<trkpt lat="-27.2717006" lon="151.3092055">
  <ele>511.82</ele>
  <time>2026-09-01T20:01:25Z</time>
  <course>227.15</course>
  <speed>36.49667656102402</speed>
  <fix>3d</fix>
</trkpt>
<trkpt lat="-27.2716518" lon="151.3092975">
  <ele>515.15</ele>
  <time>2026-09-01T20:01:25Z</time>
  <course>240.76</course>
  <speed>29.69</speed>
  <fix>3d</fix>
</trkpt>
<trkpt lat="-27.2717217" lon="151.3091782">
  <ele>512.35</ele>
  <time>2026-09-01T20:01:25Z</time>
  <course>221.01</course>
  <speed>35.00386835765441</speed>
  <fix>3d</fix>
</trkpt>
<trkpt lat="-27.2716821" lon="151.3092386">
  <ele>512.32</ele>
  <time>2026-09-01T20:01:25Z</time>
  <course>237.43</course>
  <speed>35.98</speed>
  <fix>3d</fix>
</trkpt>
<trkpt lat="-27.2717444" lon="151.309155">
  <ele>513.28</ele>
  <time>2026-09-01T20:01:25Z</time>
  <course>215.97</course>
  <speed>33.38266765853202</speed>
  <fix>3d</fix>
</trkpt>
<trkpt lat="-27.2716821" lon="151.3092386">
  <ele>512.32</ele>
  <time>2026-09-01T20:01:25Z</time>
  <course>237.43</course>
  <speed>35.98</speed>
  <fix>3d</fix>
</trkpt>
<trkpt lat="-27.2717681" lon="151.3091355">
  <ele>514.44</ele>
  <time>2026-09-01T20:01:25Z</time>
  <course>212.37</course>
  <speed>31.973083992633555</speed>
  <fix>3d</fix>
</trkpt>
<trkpt lat="-27.2717212" lon="151.3091817">
  <ele>512.51</ele>
  <time>2026-09-01T20:01:25Z</time>
  <course>226.38</course>
  <speed>34.78</speed>
  <fix>3d</fix>
</trkpt>
<trkpt lat="-27.2717921" lon="151.3091189">
  <ele>515.74</ele>
  <time>2026-09-01T20:01:25Z</time>
  <course>210.29</course>
  <speed>30.81908661852262</speed>
  <fix>3d</fix>
</trkpt>
<trkpt lat="-27.2717212" lon="151.3091817">
  <ele>512.51</ele>
  <time>2026-09-01T20:01:25Z</time>
  <course>226.38</course>
  <speed>34.78</speed>
  <fix>3d</fix>
</trkpt>
<trkpt lat="-27.2718161" lon="151.3091045">
  <ele>517.08</ele>
  <time>2026-09-01T20:01:25Z</time>
  <course>209.5</course>
  <speed>29.915663121515458</speed>
  <fix>3d</fix>
</trkpt>
<trkpt lat="-27.2717668" lon="151.309138">
  <ele>514.43</ele>
  <time>2026-09-01T20:01:25Z</time>
  <course>214.74</course>
  <speed>32.07</speed>
  <fix>3d</fix>
</trkpt>
<trkpt lat="-27.2718399" lon="151.3090911">
  <ele>518.43</ele>
  <time>2026-09-01T20:01:25Z</time>
  <course>209.46</course>
  <speed>29.267191529082524</speed>
  <fix>3d</fix>
</trkpt>
<trkpt lat="-27.2717668" lon="151.309138">
  <ele>514.43</ele>
  <time>2026-09-01T20:01:25Z</time>
  <course>214.74</course>
  <speed>32.07</speed>
  <fix>3d</fix>
</trkpt>
<trkpt lat="-27.2718634" lon="151.3090785">
  <ele>519.74</ele>
  <time>2026-09-01T20:01:25Z</time>
  <course>209.68</course>
  <speed>28.81772544806408</speed>
  <fix>3d</fix>
</trkpt>
<trkpt lat="-27.2718146" lon="151.3091059">
  <ele>517.0</ele>
  <time>2026-09-01T20:01:25Z</time>
  <course>207.93</course>
  <speed>30.07</speed>
  <fix>3d</fix>
</trkpt>
<trkpt lat="-27.2718866" lon="151.3090659">
  <ele>520.97</ele>
  <time>2026-09-01T20:01:25Z</time>
  <course>209.73</course>
  <speed>28.539413098380283</speed>
  <fix>3d</fix>
</trkpt>
<trkpt lat="-27.2718146" lon="151.3091059">
  <ele>517.0</ele>
  <time>2026-09-01T20:01:25Z</time>
  <course>207.93</course>
  <speed>30.07</speed>
  <fix>3d</fix>
</trkpt>
<trkpt lat="-27.2719096" lon="151.3090532">
  <ele>522.1</ele>
  <time>2026-09-01T20:01:25Z</time>
  <course>209.43</course>
  <speed>28.390146177855446</speed>
  <fix>3d</fix>
</trkpt>
<trkpt lat="-27.2718619" lon="151.3090792">
  <ele>519.63</ele>
  <time>2026-09-01T20:01:25Z</time>
  <course>205.9</course>
  <speed>28.93</speed>
  <fix>3d</fix>
</trkpt>
<trkpt lat="-27.2719324" lon="151.3090407">
  <ele>523.12</ele>
  <time>2026-09-01T20:01:25Z</time>
  <course>208.87</course>
  <speed>28.299879858402228</speed>
  <fix>3d</fix>
</trkpt>
<trkpt lat="-27.2718619" lon="151.3090792">
  <ele>519.63</ele>
  <time>2026-09-01T20:01:25Z</time>
  <course>205.9</course>
  <speed>28.93</speed>
  <fix>3d</fix>
</trkpt>
<trkpt lat="-27.2719551" lon="151.3090279">
  <ele>524.02</ele>
  <time>2026-09-01T20:01:25Z</time>
  <course>208.12</course>
  <speed>28.223653200817218</speed>
  <fix>3d</fix>
</trkpt>
<trkpt lat="-27.2719083" lon="151.3090538">
  <ele>521.99</ele>
  <time>2026-09-01T20:01:25Z</time>
  <course>206.05</course>
  <speed>28.43</speed>
  <fix>3d</fix>
</trkpt>
<trkpt lat="-27.2719778" lon="151.3090152">
  <ele>524.79</ele>
  <time>2026-09-01T20:01:25Z</time>
  <course>207.31</course>
  <speed>28.138708214841703</speed>
  <fix>3d</fix>
</trkpt>
<trkpt lat="-27.2719083" lon="151.3090538">
  <ele>521.99</ele>
  <time>2026-09-01T20:01:25Z</time>
  <course>206.05</course>
  <speed>28.43</speed>
  <fix>3d</fix>
</trkpt>
<trkpt lat="-27.2720003" lon="151.3090025">
  <ele>525.44</ele>
  <time>2026-09-01T20:01:25Z</time>
  <course>206.57</course>
  <speed>28.026945962769474</speed>
  <fix>3d</fix>
</trkpt>
<trkpt lat="-27.2719539" lon="151.3090285">
  <ele>523.91</ele>
  <time>2026-09-01T20:01:25Z</time>
  <course>206.48</course>
  <speed>28.22</speed>
  <fix>3d</fix>
</trkpt>
<trkpt lat="-27.2720227" lon="151.3089896">
  <ele>525.98</ele>
  <time>2026-09-01T20:01:25Z</time>
  <course>205.91</course>
  <speed>27.915201951624855</speed>
  <fix>3d</fix>
</trkpt>
<trkpt lat="-27.2719539" lon="151.3090285">
  <ele>523.91</ele>
  <time>2026-09-01T20:01:25Z</time>
  <course>206.48</course>
  <speed>28.22</speed>
  <fix>3d</fix>
</trkpt>
<trkpt lat="-27.2720451" lon="151.3089771">
  <ele>526.41</ele>
  <time>2026-09-01T20:01:25Z</time>
  <course>205.44</course>
  <speed>27.77669886793605</speed>
  <fix>3d</fix>
</trkpt>
<trkpt lat="-27.2719991" lon="151.309003">
  <ele>525.35</ele>
  <time>2026-09-01T20:01:25Z</time>
  <course>206.68</course>
  <speed>28.03</speed>
  <fix>3d</fix>
</trkpt>
<trkpt lat="-27.2720673" lon="151.3089643">
  <ele>526.78</ele>
  <time>2026-09-01T20:01:25Z</time>
  <course>205.21</course>
  <speed>27.64744472822036</speed>
  <fix>3d</fix>
</trkpt>
<trkpt lat="-27.2719991" lon="151.309003">
  <ele>525.35</ele>
  <time>2026-09-01T20:01:25Z</time>
  <course>206.68</course>
  <speed>28.03</speed>
  <fix>3d</fix>
</trkpt>
<trkpt lat="-27.2720893" lon="151.3089517">
  <ele>527.04</ele>
  <time>2026-09-01T20:01:25Z</time>
  <course>205.14</course>
  <speed>27.509992729915435</speed>
  <fix>3d</fix>
</trkpt>
<trkpt lat="-27.2720439" lon="151.3089777">
  <ele>526.36</ele>
  <time>2026-09-01T20:01:25Z</time>
  <course>206.85</course>
  <speed>27.79</speed>
  <fix>3d</fix>
</trkpt>
<trkpt lat="-27.2721112" lon="151.3089388">
  <ele>527.26</ele>
  <time>2026-09-01T20:01:25Z</time>
  <course>205.22</course>
  <speed>27.373892671668017</speed>
  <fix>3d</fix>
</trkpt>
<trkpt lat="-27.2720439" lon="151.3089777">
  <ele>526.36</ele>
  <time>2026-09-01T20:01:25Z</time>
  <course>206.85</course>
  <speed>27.79</speed>
  <fix>3d</fix>
</trkpt>
<trkpt lat="-27.2721331" lon="151.3089259">
  <ele>527.41</ele>
  <time>2026-09-01T20:01:25Z</time>
  <course>205.54</course>
  <speed>27.25823545279481</speed>
  <fix>3d</fix>
</trkpt>
<trkpt lat="-27.2720881" lon="151.3089522">
  <ele>527.0</ele>
  <time>2026-09-01T20:01:25Z</time>
  <course>207.27</course>
  <speed>27.52</speed>
  <fix>3d</fix>
</trkpt>
<trkpt lat="-27.2721546" lon="151.3089129">
  <ele>527.5</ele>
  <time>2026-09-01T20:01:25Z</time>
  <course>206.08</course>
  <speed>27.14216277307319</speed>
  <fix>3d</fix>
</trkpt>
<trkpt lat="-27.2720881" lon="151.3089522">
  <ele>527.0</ele>
  <time>2026-09-01T20:01:25Z</time>
  <course>207.27</course>
  <speed>27.52</speed>
  <fix>3d</fix>
</trkpt>
<trkpt lat="-27.2721758" lon="151.3088996">
  <ele>527.54</ele>
  <time>2026-09-01T20:01:25Z</time>
  <course>206.74</course>
  <speed>27.044999537807353</speed>
  <fix>3d</fix>
</trkpt>
<trkpt lat="-27.2721317" lon="151.3089266">
  <ele>527.37</ele>
  <time>2026-09-01T20:01:25Z</time>
  <course>208.11</course>
  <speed>27.27</speed>
  <fix>3d</fix>
</trkpt>
<trkpt lat="-27.2721969" lon="151.308886">
  <ele>527.56</ele>
  <time>2026-09-01T20:01:25Z</time>
  <course>207.54</course>
  <speed>26.95134133953262</speed>
  <fix>3d</fix>
</trkpt>
<trkpt lat="-27.2721317" lon="151.3089266">
  <ele>527.37</ele>
  <time>2026-09-01T20:01:25Z</time>
  <course>208.11</course>
  <speed>27.27</speed>
  <fix>3d</fix>
</trkpt>
<trkpt lat="-27.2722177" lon="151.3088721">
  <ele>527.53</ele>
  <time>2026-09-01T20:01:25Z</time>
  <course>208.44</course>
  <speed>26.875760454357376</speed>
  <fix>3d</fix>
</trkpt>
<trkpt lat="-27.2721745" lon="151.3089002">
  <ele>527.53</ele>
  <time>2026-09-01T20:01:25Z</time>
  <course>209.42</course>
  <speed>27.06</speed>
  <fix>3d</fix>
</trkpt>
<trkpt lat="-27.2722382" lon="151.3088579">
  <ele>527.48</ele>
  <time>2026-09-01T20:01:25Z</time>
  <course>209.48</course>
  <speed>26.80646377275451</speed>
  <fix>3d</fix>
</trkpt>
<trkpt lat="-27.2721745" lon="151.3089002">
  <ele>527.53</ele>
  <time>2026-09-01T20:01:25Z</time>
  <course>209.42</course>
  <speed>27.06</speed>
  <fix>3d</fix>
</trkpt>
<trkpt lat="-27.2722584" lon="151.3088431">
  <ele>527.4</ele>
  <time>2026-09-01T20:01:25Z</time>
  <course>210.59</course>
  <speed>26.742580279397124</speed>
  <fix>3d</fix>
</trkpt>
<trkpt lat="-27.2722163" lon="151.3088727">
  <ele>527.52</ele>
  <time>2026-09-01T20:01:25Z</time>
  <course>211.18</course>
  <speed>26.88</speed>
  <fix>3d</fix>
</trkpt>
<trkpt lat="-27.2722783" lon="151.3088282">
  <ele>527.29</ele>
  <time>2026-09-01T20:01:25Z</time>
  <course>211.79</course>
  <speed>26.68659775992436</speed>
  <fix>3d</fix>
</trkpt>
<trkpt lat="-27.2722163" lon="151.3088727">
  <ele>527.52</ele>
  <time>2026-09-01T20:01:25Z</time>
  <course>211.18</course>
  <speed>26.88</speed>
  <fix>3d</fix>
</trkpt>
<trkpt lat="-27.2722979" lon="151.3088125">
  <ele>527.16</ele>
  <time>2026-09-01T20:01:25Z</time>
  <course>213.02</course>
  <speed>26.642997203768196</speed>
  <fix>3d</fix>
</trkpt>
<trkpt lat="-27.272257" lon="151.3088438">
  <ele>527.39</ele>
  <time>2026-09-01T20:01:25Z</time>
  <course>213.3</course>
  <speed>26.75</speed>
  <fix>3d</fix>
</trkpt>
<trkpt lat="-27.2723171" lon="151.3087966">
  <ele>527.04</ele>
  <time>2026-09-01T20:01:25Z</time>
  <course>214.13</course>
  <speed>26.60409742877965</speed>
  <fix>3d</fix>
</trkpt>
<trkpt lat="-27.272257" lon="151.3088438">
  <ele>527.39</ele>
  <time>2026-09-01T20:01:25Z</time>
  <course>213.3</course>
  <speed>26.75</speed>
  <fix>3d</fix>
</trkpt>
<trkpt lat="-27.272336" lon="151.3087803">
  <ele>526.89</ele>
  <time>2026-09-01T20:01:25Z</time>
  <course>215.13</course>
  <speed>26.567470711379357</speed>
  <fix>3d</fix>
</trkpt>
<trkpt lat="-27.2722965" lon="151.3088133">
  <ele>527.17</ele>
  <time>2026-09-01T20:01:25Z</time>
  <course>215.69</course>
  <speed>26.64</speed>
  <fix>3d</fix>
</trkpt>
<trkpt lat="-27.2723546" lon="151.3087635">
  <ele>526.73</ele>
  <time>2026-09-01T20:01:25Z</time>
  <course>216.02</course>
  <speed>26.52494109324279</speed>
  <fix>3d</fix>
</trkpt>
<trkpt lat="-27.2722965" lon="151.3088133">
  <ele>527.17</ele>
  <time>2026-09-01T20:01:25Z</time>
  <course>215.69</course>
  <speed>26.64</speed>
  <fix>3d</fix>
</trkpt>
<trkpt lat="-27.2723729" lon="151.3087463">
  <ele>526.56</ele>
  <time>2026-09-01T20:01:25Z</time>
  <course>216.8</course>
  <speed>26.4842538124071</speed>
  <fix>3d</fix>
</trkpt>
<trkpt lat="-27.2723348" lon="151.3087809">
  <ele>526.88</ele>
  <time>2026-09-01T20:01:25Z</time>
  <course>218.11</course>
  <speed>26.56</speed>
  <fix>3d</fix>
</trkpt>
<trkpt lat="-27.2723909" lon="151.3087287">
  <ele>526.38</ele>
  <time>2026-09-01T20:01:25Z</time>
  <course>217.56</course>
  <speed>26.448368569724675</speed>
  <fix>3d</fix>
</trkpt>
<trkpt lat="-27.2723348" lon="151.3087809">
  <ele>526.88</ele>
  <time>2026-09-01T20:01:25Z</time>
  <course>218.11</course>
  <speed>26.56</speed>
  <fix>3d</fix>
</trkpt>
<trkpt lat="-27.2724087" lon="151.308711">
  <ele>526.21</ele>
  <time>2026-09-01T20:01:25Z</time>
  <course>218.27</course>
  <speed>26.400378785161397</speed>
  <fix>3d</fix>
</trkpt>
<trkpt lat="-27.2723718" lon="151.3087469">
  <ele>526.56</ele>
  <time>2026-09-01T20:01:25Z</time>
  <course>220.21</course>
  <speed>26.49</speed>
  <fix>3d</fix>
</trkpt>
<trkpt lat="-27.2724262" lon="151.3086932">
  <ele>526.02</ele>
  <time>2026-09-01T20:01:25Z</time>
  <course>218.96</course>
  <speed>26.359438537267824</speed>
  <fix>3d</fix>
</trkpt>
<trkpt lat="-27.2723718" lon="151.3087469">
  <ele>526.56</ele>
  <time>2026-09-01T20:01:25Z</time>
  <course>220.21</course>
  <speed>26.49</speed>
  <fix>3d</fix>
</trkpt>
<trkpt lat="-27.2724436" lon="151.3086751">
  <ele>525.83</ele>
  <time>2026-09-01T20:01:25Z</time>
  <course>219.62</course>
  <speed>26.315138228783827</speed>
  <fix>3d</fix>
</trkpt>
<trkpt lat="-27.2724077" lon="151.3087119">
  <ele>526.21</ele>
  <time>2026-09-01T20:01:25Z</time>
  <course>221.76</course>
  <speed>26.41</speed>
  <fix>3d</fix>
</trkpt>
<trkpt lat="-27.2724609" lon="151.3086569">
  <ele>525.63</ele>
  <time>2026-09-01T20:01:25Z</time>
  <course>220.24</course>
  <speed>26.28116626027087</speed>
  <fix>3d</fix>
</trkpt>
<trkpt lat="-27.2724077" lon="151.3087119">
  <ele>526.21</ele>
  <time>2026-09-01T20:01:25Z</time>
  <course>221.76</course>
  <speed>26.41</speed>
  <fix>3d</fix>
</trkpt>
<trkpt lat="-27.272478" lon="151.3086387">
  <ele>525.41</ele>
  <time>2026-09-01T20:01:25Z</time>
  <course>220.83</course>
  <speed>26.234833713976535</speed>
  <fix>3d</fix>
</trkpt>
<trkpt lat="-27.2724427" lon="151.308676">
  <ele>525.83</ele>
  <time>2026-09-01T20:01:25Z</time>
  <course>222.81</course>
  <speed>26.32</speed>
  <fix>3d</fix>
</trkpt>
<trkpt lat="-27.272495" lon="151.3086205">
  <ele>525.21</ele>
  <time>2026-09-01T20:01:25Z</time>
  <course>221.36</course>
  <speed>26.203963440670574</speed>
  <fix>3d</fix>
</trkpt>
<trkpt lat="-27.2724427" lon="151.308676">
  <ele>525.83</ele>
  <time>2026-09-01T20:01:25Z</time>
  <course>222.81</course>
  <speed>26.32</speed>
  <fix>3d</fix>
</trkpt>
<trkpt lat="-27.272512" lon="151.3086022">
  <ele>524.99</ele>
  <time>2026-09-01T20:01:25Z</time>
  <course>221.77</course>
  <speed>26.174057767186195</speed>
  <fix>3d</fix>
</trkpt>
<trkpt lat="-27.272477" lon="151.3086396">
  <ele>525.43</ele>
  <time>2026-09-01T20:01:25Z</time>
  <course>223.51</course>
  <speed>26.25</speed>
  <fix>3d</fix>
</trkpt>
<trkpt lat="-27.2725289" lon="151.3085837">
  <ele>524.77</ele>
  <time>2026-09-01T20:01:25Z</time>
  <course>222.17</course>
  <speed>26.14484461609975</speed>
  <fix>3d</fix>
</trkpt>
<trkpt lat="-27.272477" lon="151.3086396">
  <ele>525.43</ele>
  <time>2026-09-01T20:01:25Z</time>
  <course>223.51</course>
  <speed>26.25</speed>
  <fix>3d</fix>
</trkpt>
<trkpt lat="-27.2725457" lon="151.3085654">
  <ele>524.56</ele>
  <time>2026-09-01T20:01:25Z</time>
  <course>222.47</course>
  <speed>26.122917141850753</speed>
  <fix>3d</fix>
</trkpt>
<trkpt lat="-27.272511" lon="151.308603">
  <ele>525.0</ele>
  <time>2026-09-01T20:01:25Z</time>
  <course>223.95</course>
  <speed>26.18</speed>
  <fix>3d</fix>
</trkpt>
<trkpt lat="-27.2725625" lon="151.308547">
  <ele>524.34</ele>
  <time>2026-09-01T20:01:25Z</time>
  <course>222.73</course>
  <speed>26.10142716404603</speed>
  <fix>3d</fix>
</trkpt>
<trkpt lat="-27.272511" lon="151.308603">
  <ele>525.0</ele>
  <time>2026-09-01T20:01:25Z</time>
  <course>223.95</course>
  <speed>26.18</speed>
  <fix>3d</fix>
</trkpt>
<trkpt lat="-27.2725793" lon="151.3085286">
  <ele>524.14</ele>
  <time>2026-09-01T20:01:25Z</time>
  <course>222.92</course>
  <speed>26.066165809339893</speed>
  <fix>3d</fix>
</trkpt>
<trkpt lat="-27.2725448" lon="151.3085663">
  <ele>524.56</ele>
  <time>2026-09-01T20:01:25Z</time>
  <course>224.19</course>
  <speed>26.13</speed>
  <fix>3d</fix>
</trkpt>
<trkpt lat="-27.272596" lon="151.3085102">
  <ele>523.93</ele>
  <time>2026-09-01T20:01:25Z</time>
  <course>223.15</course>
  <speed>25.982120775641082</speed>
  <fix>3d</fix>
</trkpt>
<trkpt lat="-27.2725448" lon="151.3085663">
  <ele>524.56</ele>
  <time>2026-09-01T20:01:25Z</time>
  <course>224.19</course>
  <speed>26.13</speed>
  <fix>3d</fix>
</trkpt>
<trkpt lat="-27.2726128" lon="151.308492">
  <ele>523.72</ele>
  <time>2026-09-01T20:01:25Z</time>
  <course>223.33</course>
  <speed>25.856836620128146</speed>
  <fix>3d</fix>
</trkpt>
<trkpt lat="-27.2725784" lon="151.3085295">
  <ele>524.14</ele>
  <time>2026-09-01T20:01:25Z</time>
  <course>224.19</course>
  <speed>26.05</speed>
  <fix>3d</fix>
</trkpt>
<trkpt lat="-27.2726297" lon="151.3084739">
  <ele>523.51</ele>
  <time>2026-09-01T20:01:25Z</time>
  <course>223.42</course>
  <speed>25.6696961415596</speed>
  <fix>3d</fix>
</trkpt>
<trkpt lat="-27.2725784" lon="151.3085295">
  <ele>524.14</ele>
  <time>2026-09-01T20:01:25Z</time>
  <course>224.19</course>
  <speed>26.05</speed>
  <fix>3d</fix>
</trkpt>
<trkpt lat="-27.2726464" lon="151.3084562">
  <ele>523.32</ele>
  <time>2026-09-01T20:01:25Z</time>
  <course>223.38</course>
  <speed>25.435363178063724</speed>
  <fix>3d</fix>
</trkpt>
<trkpt lat="-27.2726119" lon="151.308493">
  <ele>523.72</ele>
  <time>2026-09-01T20:01:25Z</time>
  <course>223.83</course>
  <speed>25.84</speed>
  <fix>3d</fix>
</trkpt>
<trkpt lat="-27.2726631" lon="151.3084388">
  <ele>523.16</ele>
  <time>2026-09-01T20:01:25Z</time>
  <course>223.17</course>
  <speed>25.15354845742445</speed>
  <fix>3d</fix>
</trkpt>
<trkpt lat="-27.2726119" lon="151.308493">
  <ele>523.72</ele>
  <time>2026-09-01T20:01:25Z</time>
  <course>223.83</course>
  <speed>25.84</speed>
  <fix>3d</fix>
</trkpt>
<trkpt lat="-27.2726797" lon="151.3084218">
  <ele>523.06</ele>
  <time>2026-09-01T20:01:25Z</time>
  <course>222.85</course>
  <speed>24.845363752619924</speed>
  <fix>3d</fix>
</trkpt>
<trkpt lat="-27.2726454" lon="151.3084573">
  <ele>523.34</ele>
  <time>2026-09-01T20:01:25Z</time>
  <course>223.05</course>
  <speed>25.43</speed>
  <fix>3d</fix>
</trkpt>
<trkpt lat="-27.2726962" lon="151.3084051">
  <ele>522.98</ele>
  <time>2026-09-01T20:01:25Z</time>
  <course>222.5</course>
  <speed>24.52997554014272</speed>
  <fix>3d</fix>
</trkpt>
<trkpt lat="-27.2726454" lon="151.3084573">
  <ele>523.34</ele>
  <time>2026-09-01T20:01:25Z</time>
  <course>223.05</course>
  <speed>25.43</speed>
  <fix>3d</fix>
</trkpt>
<trkpt lat="-27.2727126" lon="151.3083888">
  <ele>522.94</ele>
  <time>2026-09-01T20:01:25Z</time>
  <course>222.16</course>
  <speed>24.206643716137105</speed>
  <fix>3d</fix>
</trkpt>
<trkpt lat="-27.2726787" lon="151.3084228">
  <ele>523.08</ele>
  <time>2026-09-01T20:01:25Z</time>
  <course>222.1</course>
  <speed>24.86</speed>
  <fix>3d</fix>
</trkpt>
<trkpt lat="-27.2727289" lon="151.3083729">
  <ele>522.91</ele>
  <time>2026-09-01T20:01:25Z</time>
  <course>221.85</course>
  <speed>23.874743977684872</speed>
  <fix>3d</fix>
</trkpt>
<trkpt lat="-27.2726787" lon="151.3084228">
  <ele>523.08</ele>
  <time>2026-09-01T20:01:25Z</time>
  <course>222.1</course>
  <speed>24.86</speed>
  <fix>3d</fix>
</trkpt>
<trkpt lat="-27.272745" lon="151.3083572">
  <ele>522.9</ele>
  <time>2026-09-01T20:01:25Z</time>
  <course>221.56</course>
  <speed>23.554405108174564</speed>
  <fix>3d</fix>
</trkpt>
<trkpt lat="-27.2727117" lon="151.3083898">
  <ele>522.95</ele>
  <time>2026-09-01T20:01:25Z</time>
  <course>221.31</course>
  <speed>24.22</speed>
  <fix>3d</fix>
</trkpt>
<trkpt lat="-27.2727609" lon="151.3083418">
  <ele>522.89</ele>
  <time>2026-09-01T20:01:25Z</time>
  <course>221.29</course>
  <speed>23.247352537439614</speed>
  <fix>3d</fix>
</trkpt>
<trkpt lat="-27.2727117" lon="151.3083898">
  <ele>522.95</ele>
  <time>2026-09-01T20:01:25Z</time>
  <course>221.31</course>
  <speed>24.22</speed>
  <fix>3d</fix>
</trkpt>
<trkpt lat="-27.2727767" lon="151.3083266">
  <ele>522.87</ele>
  <time>2026-09-01T20:01:25Z</time>
  <course>221.05</course>
  <speed>22.939367907595013</speed>
  <fix>3d</fix>
</trkpt>
<trkpt lat="-27.2727441" lon="151.3083581">
  <ele>522.9</ele>
  <time>2026-09-01T20:01:25Z</time>
  <course>220.79</course>
  <speed>23.58</speed>
  <fix>3d</fix>
</trkpt>
<trkpt lat="-27.2727923" lon="151.3083117">
  <ele>522.85</ele>
  <time>2026-09-01T20:01:25Z</time>
  <course>220.83</course>
  <speed>22.64445627521226</speed>
  <fix>3d</fix>
</trkpt>
<trkpt lat="-27.2727441" lon="151.3083581">
  <ele>522.9</ele>
  <time>2026-09-01T20:01:25Z</time>
  <course>220.79</course>
  <speed>23.58</speed>
  <fix>3d</fix>
</trkpt>
<trkpt lat="-27.2728077" lon="151.3082969">
  <ele>522.82</ele>
  <time>2026-09-01T20:01:25Z</time>
  <course>220.65</course>
  <speed>22.363702734565223</speed>
  <fix>3d</fix>
</trkpt>
<trkpt lat="-27.2727758" lon="151.3083275">
  <ele>522.87</ele>
  <time>2026-09-01T20:01:25Z</time>
  <course>220.49</course>
  <speed>22.96</speed>
  <fix>3d</fix>
</trkpt>
<trkpt lat="-27.2728229" lon="151.3082825">
  <ele>522.78</ele>
  <time>2026-09-01T20:01:25Z</time>
  <course>220.49</course>
  <speed>22.095922700806135</speed>
  <fix>3d</fix>
</trkpt>
<trkpt lat="-27.2727758" lon="151.3083275">
  <ele>522.87</ele>
  <time>2026-09-01T20:01:25Z</time>
  <course>220.49</course>
  <speed>22.96</speed>
  <fix>3d</fix>
</trkpt>
<trkpt lat="-27.272838" lon="151.3082681">
  <ele>522.74</ele>
  <time>2026-09-01T20:01:25Z</time>
  <course>220.37</course>
  <speed>21.828165291659307</speed>
  <fix>3d</fix>
</trkpt>
<trkpt lat="-27.2728068" lon="151.3082978">
  <ele>522.81</ele>
  <time>2026-09-01T20:01:25Z</time>
  <course>220.3</course>
  <speed>22.39</speed>
  <fix>3d</fix>
</trkpt>
<trkpt lat="-27.2728529" lon="151.308254">
  <ele>522.68</ele>
  <time>2026-09-01T20:01:25Z</time>
  <course>220.27</course>
  <speed>21.582170882466855</speed>
  <fix>3d</fix>
</trkpt>
<trkpt lat="-27.2728068" lon="151.3082978">
  <ele>522.81</ele>
  <time>2026-09-01T20:01:25Z</time>
  <course>220.3</course>
  <speed>22.39</speed>
  <fix>3d</fix>
</trkpt>
<trkpt lat="-27.2728676" lon="151.3082401">
  <ele>522.62</ele>
  <time>2026-09-01T20:01:25Z</time>
  <course>220.19</course>
  <speed>21.336213347264785</speed>
  <fix>3d</fix>
</trkpt>
<trkpt lat="-27.272837" lon="151.3082689">
  <ele>522.72</ele>
  <time>2026-09-01T20:01:25Z</time>
  <course>220.16</course>
  <speed>21.85</speed>
  <fix>3d</fix>
</trkpt>
<trkpt lat="-27.2728822" lon="151.3082263">
  <ele>522.54</ele>
  <time>2026-09-01T20:01:25Z</time>
  <course>220.13</course>
  <speed>21.1031395768497</speed>
  <fix>3d</fix>
</trkpt>
<trkpt lat="-27.272837" lon="151.3082689">
  <ele>522.72</ele>
  <time>2026-09-01T20:01:25Z</time>
  <course>220.16</course>
  <speed>21.85</speed>
  <fix>3d</fix>
</trkpt>
<trkpt lat="-27.2728967" lon="151.3082126">
  <ele>522.45</ele>
  <time>2026-09-01T20:01:25Z</time>
  <course>220.07</course>
  <speed>20.87774173611696</speed>
  <fix>3d</fix>
</trkpt>
<trkpt lat="-27.2728668" lon="151.3082408">
  <ele>522.61</ele>
  <time>2026-09-01T20:01:25Z</time>
  <course>220.04</course>
  <speed>21.35</speed>
  <fix>3d</fix>
</trkpt>
<trkpt lat="-27.2729109" lon="151.3081992">
  <ele>522.35</ele>
  <time>2026-09-01T20:01:25Z</time>
  <course>220.02</course>
  <speed>20.666448654764082</speed>
  <fix>3d</fix>
</trkpt>
<trkpt lat="-27.2728668" lon="151.3082408">
  <ele>522.61</ele>
  <time>2026-09-01T20:01:25Z</time>
  <course>220.04</course>
  <speed>21.35</speed>
  <fix>3d</fix>
</trkpt>
<trkpt lat="-27.2729252" lon="151.3081858">
  <ele>522.24</ele>
  <time>2026-09-01T20:01:25Z</time>
  <course>219.97</course>
  <speed>20.469257436458218</speed>
  <fix>3d</fix>
</trkpt>
<trkpt lat="-27.2728959" lon="151.3082134">
  <ele>522.45</ele>
  <time>2026-09-01T20:01:25Z</time>
  <course>219.93</course>
  <speed>20.9</speed>
  <fix>3d</fix>
</trkpt>
<trkpt lat="-27.2729392" lon="151.3081727">
  <ele>522.12</ele>
  <time>2026-09-01T20:01:25Z</time>
  <course>219.92</course>
  <speed>20.272081787522463</speed>
  <fix>3d</fix>
</trkpt>
<trkpt lat="-27.2728959" lon="151.3082134">
  <ele>522.45</ele>
  <time>2026-09-01T20:01:25Z</time>
  <course>219.93</course>
  <speed>20.9</speed>
  <fix>3d</fix>
</trkpt>
<trkpt lat="-27.2729532" lon="151.3081597">
  <ele>521.99</ele>
  <time>2026-09-01T20:01:25Z</time>
  <course>219.87</course>
  <speed>20.095397483005904</speed>
  <fix>3d</fix>
</trkpt>
<trkpt lat="-27.2729244" lon="151.3081866">
  <ele>522.24</ele>
  <time>2026-09-01T20:01:25Z</time>
  <course>219.83</course>
  <speed>20.48</speed>
  <fix>3d</fix>
</trkpt>
<trkpt lat="-27.272967" lon="151.3081466">
  <ele>521.85</ele>
  <time>2026-09-01T20:01:25Z</time>
  <course>219.82</course>
  <speed>19.912327839808185</speed>
  <fix>3d</fix>
</trkpt>
<trkpt lat="-27.2729244" lon="151.3081866">
  <ele>522.24</ele>
  <time>2026-09-01T20:01:25Z</time>
  <course>219.83</course>
  <speed>20.48</speed>
  <fix>3d</fix>
</trkpt>
<trkpt lat="-27.2729807" lon="151.3081339">
  <ele>521.7</ele>
  <time>2026-09-01T20:01:25Z</time>
  <course>219.77</course>
  <speed>19.749736707105743</speed>
  <fix>3d</fix>
</trkpt>
<trkpt lat="-27.2729524" lon="151.3081604">
  <ele>521.99</ele>
  <time>2026-09-01T20:01:25Z</time>
  <course>219.75</course>
  <speed>20.11</speed>
  <fix>3d</fix>
</trkpt>
<trkpt lat="-27.2729943" lon="151.3081211">
  <ele>521.54</ele>
  <time>2026-09-01T20:01:25Z</time>
  <course>219.73</course>
  <speed>19.587148848160624</speed>
  <fix>3d</fix>
</trkpt>
<trkpt lat="-27.2729524" lon="151.3081604">
  <ele>521.99</ele>
  <time>2026-09-01T20:01:25Z</time>
  <course>219.75</course>
  <speed>20.11</speed>
  <fix>3d</fix>
</trkpt>
<trkpt lat="-27.2730078" lon="151.3081087">
  <ele>521.38</ele>
  <time>2026-09-01T20:01:25Z</time>
  <course>219.69</course>
  <speed>19.43226698046319</speed>
  <fix>3d</fix>
</trkpt>
<trkpt lat="-27.2729799" lon="151.3081346">
  <ele>521.69</ele>
  <time>2026-09-01T20:01:25Z</time>
  <course>219.68</course>
  <speed>19.76</speed>
  <fix>3d</fix>
</trkpt>
<trkpt lat="-27.2730212" lon="151.3080962">
  <ele>521.22</ele>
  <time>2026-09-01T20:01:25Z</time>
  <course>219.66</course>
  <speed>19.283767785368084</speed>
  <fix>3d</fix>
</trkpt>
<trkpt lat="-27.2729799" lon="151.3081346">
  <ele>521.69</ele>
  <time>2026-09-01T20:01:25Z</time>
  <course>219.68</course>
  <speed>19.76</speed>
  <fix>3d</fix>
</trkpt>
<trkpt lat="-27.2730345" lon="151.3080838">
  <ele>521.04</ele>
  <time>2026-09-01T20:01:25Z</time>
  <course>219.62</course>
  <speed>19.142980436703162</speed>
  <fix>3d</fix>
</trkpt>
<trkpt lat="-27.2730071" lon="151.3081093">
  <ele>521.38</ele>
  <time>2026-09-01T20:01:25Z</time>
  <course>219.62</course>
  <speed>19.44</speed>
  <fix>3d</fix>
</trkpt>
<trkpt lat="-27.2730478" lon="151.3080714">
  <ele>520.87</ele>
  <time>2026-09-01T20:01:25Z</time>
  <course>219.59</course>
  <speed>19.002202503920433</speed>
  <fix>3d</fix>
</trkpt>
<trkpt lat="-27.2730071" lon="151.3081093">
  <ele>521.38</ele>
  <time>2026-09-01T20:01:25Z</time>
  <course>219.62</course>
  <speed>19.44</speed>
  <fix>3d</fix>
</trkpt>
<trkpt lat="-27.2730609" lon="151.3080593">
  <ele>520.7</ele>
  <time>2026-09-01T20:01:25Z</time>
  <course>219.56</course>
  <speed>18.867792663690153</speed>
  <fix>3d</fix>
</trkpt>
<trkpt lat="-27.2730338" lon="151.3080843">
  <ele>521.05</ele>
  <time>2026-09-01T20:01:25Z</time>
  <course>219.55</course>
  <speed>19.15</speed>
  <fix>3d</fix>
</trkpt>
<trkpt lat="-27.273074" lon="151.3080472">
  <ele>520.52</ele>
  <time>2026-09-01T20:01:25Z</time>
  <course>219.53</course>
  <speed>18.741104556562295</speed>
  <fix>3d</fix>
</trkpt>
<trkpt lat="-27.2730338" lon="151.3080843">
  <ele>521.05</ele>
  <time>2026-09-01T20:01:25Z</time>
  <course>219.55</course>
  <speed>19.15</speed>
  <fix>3d</fix>
</trkpt>
<trkpt lat="-27.2730869" lon="151.3080352">
  <ele>520.33</ele>
  <time>2026-09-01T20:01:25Z</time>
  <course>219.5</course>
  <speed>18.620776031089573</speed>
  <fix>3d</fix>
</trkpt>
<trkpt lat="-27.2730602" lon="151.3080599">
  <ele>520.7</ele>
  <time>2026-09-01T20:01:25Z</time>
  <course>219.49</course>
  <speed>18.88</speed>
  <fix>3d</fix>
</trkpt>
<trkpt lat="-27.2730998" lon="151.3080233">
  <ele>520.15</ele>
  <time>2026-09-01T20:01:25Z</time>
  <course>219.47</course>
  <speed>18.494099058889027</speed>
  <fix>3d</fix>
</trkpt>
<trkpt lat="-27.2730602" lon="151.3080599">
  <ele>520.7</ele>
  <time>2026-09-01T20:01:25Z</time>
  <course>219.49</course>
  <speed>18.88</speed>
  <fix>3d</fix>
</trkpt>
<trkpt lat="-27.2731126" lon="151.3080115">
  <ele>519.96</ele>
  <time>2026-09-01T20:01:25Z</time>
  <course>219.44</course>
  <speed>18.3815042909986</speed>
  <fix>3d</fix>
</trkpt>
<trkpt lat="-27.2730862" lon="151.3080358">
  <ele>520.34</ele>
  <time>2026-09-01T20:01:25Z</time>
  <course>219.44</course>
  <speed>18.63</speed>
  <fix>3d</fix>
</trkpt>
<trkpt lat="-27.2731253" lon="151.3079996">
  <ele>519.77</ele>
  <time>2026-09-01T20:01:25Z</time>
  <course>219.41</course>
  <speed>18.275256496148007</speed>
  <fix>3d</fix>
</trkpt>
<trkpt lat="-27.2730862" lon="151.3080358">
  <ele>520.34</ele>
  <time>2026-09-01T20:01:25Z</time>
  <course>219.44</course>
  <speed>18.63</speed>
  <fix>3d</fix>
</trkpt>
<trkpt lat="-27.273138" lon="151.307988">
  <ele>519.58</ele>
  <time>2026-09-01T20:01:25Z</time>
  <course>219.39</course>
  <speed>18.16267050849076</speed>
  <fix>3d</fix>
</trkpt>
<trkpt lat="-27.2731119" lon="151.308012">
  <ele>519.96</ele>
  <time>2026-09-01T20:01:25Z</time>
  <course>219.38</course>
  <speed>18.39</speed>
  <fix>3d</fix>
</trkpt>
<trkpt lat="-27.2731506" lon="151.3079764">
  <ele>519.39</ele>
  <time>2026-09-01T20:01:25Z</time>
  <course>219.36</course>
  <speed>18.05642544913029</speed>
  <fix>3d</fix>
</trkpt>
<trkpt lat="-27.2731119" lon="151.308012">
  <ele>519.96</ele>
  <time>2026-09-01T20:01:25Z</time>
  <course>219.38</course>
  <speed>18.39</speed>
  <fix>3d</fix>
</trkpt>
<trkpt lat="-27.2731631" lon="151.3079649">
  <ele>519.2</ele>
  <time>2026-09-01T20:01:25Z</time>
  <course>219.34</course>
  <speed>17.95792025820362</speed>
  <fix>3d</fix>
</trkpt>
<trkpt lat="-27.2731373" lon="151.3079886">
  <ele>519.59</ele>
  <time>2026-09-01T20:01:25Z</time>
  <course>219.33</course>
  <speed>18.17</speed>
  <fix>3d</fix>
</trkpt>
<trkpt lat="-27.2731755" lon="151.3079535">
  <ele>519.01</ele>
  <time>2026-09-01T20:01:25Z</time>
  <course>219.31</course>
  <speed>17.859420483319163</speed>
  <fix>3d</fix>
</trkpt>
<trkpt lat="-27.2731373" lon="151.3079886">
  <ele>519.59</ele>
  <time>2026-09-01T20:01:25Z</time>
  <course>219.33</course>
  <speed>18.17</speed>
  <fix>3d</fix>
</trkpt>
<trkpt lat="-27.2731879" lon="151.3079421">
  <ele>518.81</ele>
  <time>2026-09-01T20:01:25Z</time>
  <course>219.29</course>
  <speed>17.76725077213692</speed>
  <fix>3d</fix>
</trkpt>
<trkpt lat="-27.2731623" lon="151.3079655">
  <ele>519.21</ele>
  <time>2026-09-01T20:01:25Z</time>
  <course>219.29</course>
  <speed>17.97</speed>
  <fix>3d</fix>
</trkpt>
<trkpt lat="-27.2732002" lon="151.3079307">
  <ele>518.61</ele>
  <time>2026-09-01T20:01:25Z</time>
  <course>219.26</course>
  <speed>17.668757737882988</speed>
  <fix>3d</fix>
</trkpt>
<trkpt lat="-27.2731623" lon="151.3079655">
  <ele>519.21</ele>
  <time>2026-09-01T20:01:25Z</time>
  <course>219.29</course>
  <speed>17.97</speed>
  <fix>3d</fix>
</trkpt>
<trkpt lat="-27.2732125" lon="151.3079195">
  <ele>518.41</ele>
  <time>2026-09-01T20:01:25Z</time>
  <course>219.24</course>
  <speed>17.576589544049778</speed>
  <fix>3d</fix>
</trkpt>
<trkpt lat="-27.2731872" lon="151.3079426">
  <ele>518.82</ele>
  <time>2026-09-01T20:01:25Z</time>
  <course>219.24</course>
  <speed>17.77</speed>
  <fix>3d</fix>
</trkpt>
<trkpt lat="-27.2732247" lon="151.3079082">
  <ele>518.22</ele>
  <time>2026-09-01T20:01:25Z</time>
  <course>219.22</course>
  <speed>17.49217253516555</speed>
  <fix>3d</fix>
</trkpt>
<trkpt lat="-27.2731872" lon="151.3079426">
  <ele>518.82</ele>
  <time>2026-09-01T20:01:25Z</time>
  <course>219.24</course>
  <speed>17.77</speed>
  <fix>3d</fix>
</trkpt>
<trkpt lat="-27.271403" lon="151.3119669">
  <ele>540.08</ele>
  <time>2026-09-01T20:01:25Z</time>
  <course>250.81</course>
  <speed>11.699183732209697</speed>
  <fix>3d</fix>
</trkpt>
<trkpt lat="-27.2732118" lon="151.3079201">
  <ele>518.42</ele>
  <time>2026-09-01T20:01:25Z</time>
  <course>219.2</course>
  <speed>17.59</speed>
  <fix>3d</fix>
</trkpt>
<trkpt lat="-27.2714058" lon="151.3119558">
  <ele>536.25</ele>
  <time>2026-09-01T20:01:25Z</time>
  <course>248.43</course>
  <speed>11.74799557371384</speed>
  <fix>3d</fix>
</trkpt>
<trkpt lat="-27.2732118" lon="151.3079201">
  <ele>518.42</ele>
  <time>2026-09-01T20:01:25Z</time>
  <course>219.2</course>
  <speed>17.59</speed>
  <fix>3d</fix>
</trkpt>
<trkpt lat="-27.27141" lon="151.3119441">
  <ele>532.43</ele>
  <time>2026-09-01T20:01:25Z</time>
  <course>233.23</course>
  <speed>13.264708817007632</speed>
  <fix>3d</fix>
</trkpt>
<trkpt lat="-27.2723148" lon="151.3099326">
  <ele>527.33</ele>
  <time>2026-09-01T20:01:25Z</time>
  <course>232.73</course>
  <speed>13.98</speed>
  <fix>3d</fix>
</trkpt>
<trkpt lat="-27.2714174" lon="151.3119328">
  <ele>528.66</ele>
  <time>2026-09-01T20:01:25Z</time>
  <course>213.56</course>
  <speed>14.462216289352057</speed>
  <fix>3d</fix>
</trkpt>
<trkpt lat="-27.2723148" lon="151.3099326">
  <ele>527.33</ele>
  <time>2026-09-01T20:01:25Z</time>
  <course>232.73</course>
  <speed>13.98</speed>
  <fix>3d</fix>
</trkpt>
<trkpt lat="-27.2714275" lon="151.3119233">
  <ele>524.94</ele>
  <time>2026-09-01T20:01:25Z</time>
  <course>200.95</course>
  <speed>14.820570164470732</speed>
  <fix>3d</fix>
</trkpt>
<trkpt lat="-27.2714113" lon="151.3119448">
  <ele>532.63</ele>
  <time>2026-09-01T20:01:25Z</time>
  <course>238.47</course>
  <speed>12.72</speed>
  <fix>3d</fix>
</trkpt>
<trkpt lat="-27.2714385" lon="151.311914">
  <ele>521.22</ele>
  <time>2026-09-01T20:01:25Z</time>
  <course>211.63</course>
  <speed>16.441608802060703</speed>
  <fix>3d</fix>
</trkpt>
<trkpt lat="-27.2714113" lon="151.3119448">
  <ele>532.63</ele>
  <time>2026-09-01T20:01:25Z</time>
  <course>238.47</course>
  <speed>12.72</speed>
  <fix>3d</fix>
</trkpt>
<trkpt lat="-27.2714495" lon="151.3118984">
  <ele>517.76</ele>
  <time>2026-09-01T20:01:25Z</time>
  <course>227.51</course>
  <speed>23.67775749516833</speed>
  <fix>3d</fix>
</trkpt>
<trkpt lat="-27.2714275" lon="151.3119239">
  <ele>525.1</ele>
  <time>2026-09-01T20:01:25Z</time>
  <course>223.97</course>
  <speed>15.33</speed>
  <fix>3d</fix>
</trkpt>
<trkpt lat="-27.2714616" lon="151.3118742">
  <ele>514.96</ele>
  <time>2026-09-01T20:01:25Z</time>
  <course>234.83</course>
  <speed>31.09425831242804</speed>
  <fix>3d</fix>
</trkpt>
<trkpt lat="-27.2714275" lon="151.3119239">
  <ele>525.1</ele>
  <time>2026-09-01T20:01:25Z</time>
  <course>223.97</course>
  <speed>15.33</speed>
  <fix>3d</fix>
</trkpt>
<trkpt lat="-27.2714757" lon="151.3118442">
  <ele>513.09</ele>
  <time>2026-09-01T20:01:25Z</time>
  <course>235.99</course>
  <speed>35.59787212741796</speed>
  <fix>3d</fix>
</trkpt>
<trkpt lat="-27.2714495" lon="151.3118949">
  <ele>518.21</ele>
  <time>2026-09-01T20:01:25Z</time>
  <course>235.03</course>
  <speed>23.21</speed>
  <fix>3d</fix>
</trkpt>
<trkpt lat="-27.2714924" lon="151.3118122">
  <ele>512.15</ele>
  <time>2026-09-01T20:01:25Z</time>
  <course>231.43</course>
  <speed>37.09569382017271</speed>
  <fix>3d</fix>
</trkpt>
<trkpt lat="-27.2714495" lon="151.3118949">
  <ele>518.21</ele>
  <time>2026-09-01T20:01:25Z</time>
  <course>235.03</course>
  <speed>23.21</speed>
  <fix>3d</fix>
</trkpt>
<trkpt lat="-27.271512" lon="151.3117823">
  <ele>512.01</ele>
  <time>2026-09-01T20:01:25Z</time>
  <course>224.22</course>
  <speed>36.57632294258131</speed>
  <fix>3d</fix>
</trkpt>
<trkpt lat="-27.2714762" lon="151.3118445">
  <ele>513.61</ele>
  <time>2026-09-01T20:01:25Z</time>
  <course>239.42</course>
  <speed>33.93</speed>
  <fix>3d</fix>
</trkpt>
<trkpt lat="-27.2715344" lon="151.3117561">
  <ele>512.44</ele>
  <time>2026-09-01T20:01:25Z</time>
  <course>216.86</course>
  <speed>35.22693997496802</speed>
  <fix>3d</fix>
</trkpt>
<trkpt lat="-27.2714762" lon="151.3118445">
  <ele>513.61</ele>
  <time>2026-09-01T20:01:25Z</time>
  <course>239.42</course>
  <speed>33.93</speed>
  <fix>3d</fix>
</trkpt>
<trkpt lat="-27.2715588" lon="151.3117347">
  <ele>513.24</ele>
  <time>2026-09-01T20:01:25Z</time>
  <course>210.35</course>
  <speed>33.76486339377075</speed>
  <fix>3d</fix>
</trkpt>
<trkpt lat="-27.2715125" lon="151.3117854">
  <ele>512.28</ele>
  <time>2026-09-01T20:01:25Z</time>
  <course>229.98</course>
  <speed>35.88</speed>
  <fix>3d</fix>
</trkpt>
<trkpt lat="-27.2715847" lon="151.3117178">
  <ele>514.26</ele>
  <time>2026-09-01T20:01:25Z</time>
  <course>205.13</course>
  <speed>32.46808432907615</speed>
  <fix>3d</fix>
</trkpt>
<trkpt lat="-27.2715125" lon="151.3117854">
  <ele>512.28</ele>
  <time>2026-09-01T20:01:25Z</time>
  <course>229.98</course>
  <speed>35.88</speed>
  <fix>3d</fix>
</trkpt>
<trkpt lat="-27.2716108" lon="151.3117047">
  <ele>515.39</ele>
  <time>2026-09-01T20:01:25Z</time>
  <course>201.53</course>
  <speed>31.38693995916136</speed>
  <fix>3d</fix>
</trkpt>
<trkpt lat="-27.2715583" lon="151.3117378">
  <ele>513.31</ele>
  <time>2026-09-01T20:01:25Z</time>
  <course>215.06</course>
  <speed>33.61</speed>
  <fix>3d</fix>
</trkpt>
<trkpt lat="-27.271637" lon="151.3116943">
  <ele>516.58</ele>
  <time>2026-09-01T20:01:25Z</time>
  <course>199.57</course>
  <speed>30.496657193863065</speed>
  <fix>3d</fix>
</trkpt>
<trkpt lat="-27.2715583" lon="151.3117378">
  <ele>513.31</ele>
  <time>2026-09-01T20:01:25Z</time>
  <course>215.06</course>
  <speed>33.61</speed>
  <fix>3d</fix>
</trkpt>
<trkpt lat="-27.271663" lon="151.3116857">
  <ele>517.79</ele>
  <time>2026-09-01T20:01:25Z</time>
  <course>198.92</course>
  <speed>29.797348875361376</speed>
  <fix>3d</fix>
</trkpt>
<trkpt lat="-27.2716095" lon="151.3117066">
  <ele>515.36</ele>
  <time>2026-09-01T20:01:25Z</time>
  <course>202.63</course>
  <speed>31.43</speed>
  <fix>3d</fix>
</trkpt>
<trkpt lat="-27.2716886" lon="151.311678">
  <ele>519.01</ele>
  <time>2026-09-01T20:01:25Z</time>
  <course>198.9</course>
  <speed>29.25790491474056</speed>
  <fix>3d</fix>
</trkpt>
<trkpt lat="-27.2716095" lon="151.3117066">
  <ele>515.36</ele>
  <time>2026-09-01T20:01:25Z</time>
  <course>202.63</course>
  <speed>31.43</speed>
  <fix>3d</fix>
</trkpt>
<trkpt lat="-27.2717139" lon="151.3116706">
  <ele>520.18</ele>
  <time>2026-09-01T20:01:25Z</time>
  <course>198.99</course>
  <speed>28.878923110116137</speed>
  <fix>3d</fix>
</trkpt>
<trkpt lat="-27.2716615" lon="151.3116866">
  <ele>517.73</ele>
  <time>2026-09-01T20:01:25Z</time>
  <course>196.19</course>
  <speed>29.9</speed>
  <fix>3d</fix>
</trkpt>
<trkpt lat="-27.2717389" lon="151.3116634">
  <ele>521.27</ele>
  <time>2026-09-01T20:01:25Z</time>
  <course>198.91</course>
  <speed>28.649139603136426</speed>
  <fix>3d</fix>
</trkpt>
<trkpt lat="-27.2716615" lon="151.3116866">
  <ele>517.73</ele>
  <time>2026-09-01T20:01:25Z</time>
  <course>196.19</course>
  <speed>29.9</speed>
  <fix>3d</fix>
</trkpt>
<trkpt lat="-27.2717637" lon="151.3116561">
  <ele>522.27</ele>
  <time>2026-09-01T20:01:25Z</time>
  <course>198.39</course>
  <speed>28.50529775322475</speed>
  <fix>3d</fix>
</trkpt>
<trkpt lat="-27.2717125" lon="151.3116711">
  <ele>520.08</ele>
  <time>2026-09-01T20:01:25Z</time>
  <course>194.48</course>
  <speed>28.97</speed>
  <fix>3d</fix>
</trkpt>
<trkpt lat="-27.2717884" lon="151.3116488">
  <ele>523.16</ele>
  <time>2026-09-01T20:01:25Z</time>
  <course>197.6</course>
  <speed>28.41064765189277</speed>
  <fix>3d</fix>
</trkpt>
<trkpt lat="-27.2717125" lon="151.3116711">
  <ele>520.08</ele>
  <time>2026-09-01T20:01:25Z</time>
  <course>194.48</course>
  <speed>28.97</speed>
  <fix>3d</fix>
</trkpt>
<trkpt lat="-27.271813" lon="151.3116413">
  <ele>523.93</ele>
  <time>2026-09-01T20:01:25Z</time>
  <course>196.71</course>
  <speed>28.332486654016094</speed>
  <fix>3d</fix>
</trkpt>
<trkpt lat="-27.2717624" lon="151.3116565">
  <ele>522.16</ele>
  <time>2026-09-01T20:01:25Z</time>
  <course>194.77</course>
  <speed>28.54</speed>
  <fix>3d</fix>
</trkpt>
<trkpt lat="-27.2718375" lon="151.3116336">
  <ele>524.59</ele>
  <time>2026-09-01T20:01:25Z</time>
  <course>195.85</course>
  <speed>28.234347876301303</speed>
  <fix>3d</fix>
</trkpt>
<trkpt lat="-27.2717624" lon="151.3116565">
  <ele>522.16</ele>
  <time>2026-09-01T20:01:25Z</time>
  <course>194.77</course>
  <speed>28.54</speed>
  <fix>3d</fix>
</trkpt>
<trkpt lat="-27.2718619" lon="151.311626">
  <ele>525.14</ele>
  <time>2026-09-01T20:01:25Z</time>
  <course>195.05</course>
  <speed>28.12669372677848</speed>
  <fix>3d</fix>
</trkpt>
<trkpt lat="-27.2718117" lon="151.3116416">
  <ele>523.83</ele>
  <time>2026-09-01T20:01:25Z</time>
  <course>195.24</course>
  <speed>28.33</speed>
  <fix>3d</fix>
</trkpt>
<trkpt lat="-27.2718862" lon="151.3116184">
  <ele>525.59</ele>
  <time>2026-09-01T20:01:25Z</time>
  <course>194.49</course>
  <speed>27.999914285583092</speed>
  <fix>3d</fix>
</trkpt>
<trkpt lat="-27.2718117" lon="151.3116416">
  <ele>523.83</ele>
  <time>2026-09-01T20:01:25Z</time>
  <course>195.24</course>
  <speed>28.33</speed>
  <fix>3d</fix>
</trkpt>
<trkpt lat="-27.2719103" lon="151.3116107">
  <ele>525.95</ele>
  <time>2026-09-01T20:01:25Z</time>
  <course>194.17</course>
  <speed>27.8814777226746</speed>
  <fix>3d</fix>
</trkpt>
<trkpt lat="-27.2718607" lon="151.3116264">
  <ele>525.06</ele>
  <time>2026-09-01T20:01:25Z</time>
  <course>195.53</course>
  <speed>28.12</speed>
  <fix>3d</fix>
</trkpt>
<trkpt lat="-27.2719343" lon="151.311603">
  <ele>526.23</ele>
  <time>2026-09-01T20:01:25Z</time>
  <course>194.13</course>
  <speed>27.748430586251178</speed>
  <fix>3d</fix>
</trkpt>
<trkpt lat="-27.2718607" lon="151.3116264">
  <ele>525.06</ele>
  <time>2026-09-01T20:01:25Z</time>
  <course>195.53</course>
  <speed>28.12</speed>
  <fix>3d</fix>
</trkpt>
<trkpt lat="-27.2719582" lon="151.3115952">
  <ele>526.45</ele>
  <time>2026-09-01T20:01:25Z</time>
  <course>194.32</course>
  <speed>27.636180995209884</speed>
  <fix>3d</fix>
</trkpt>
<trkpt lat="-27.2719092" lon="151.3116111">
  <ele>525.89</ele>
  <time>2026-09-01T20:01:25Z</time>
  <course>195.91</course>
  <speed>27.88</speed>
  <fix>3d</fix>
</trkpt>
<trkpt lat="-27.2719819" lon="151.3115871">
  <ele>526.6</ele>
  <time>2026-09-01T20:01:25Z</time>
  <course>194.67</course>
  <speed>27.524291089871873</speed>
  <fix>3d</fix>
</trkpt>
<trkpt lat="-27.2719092" lon="151.3116111">
  <ele>525.89</ele>
  <time>2026-09-01T20:01:25Z</time>
  <course>195.91</course>
  <speed>27.88</speed>
  <fix>3d</fix>
</trkpt>
<trkpt lat="-27.2720054" lon="151.3115786">
  <ele>526.7</ele>
  <time>2026-09-01T20:01:25Z</time>
  <course>195.27</course>
  <speed>27.424270272880552</speed>
  <fix>3d</fix>
</trkpt>
<trkpt lat="-27.2719571" lon="151.3115953">
  <ele>526.41</ele>
  <time>2026-09-01T20:01:25Z</time>
  <course>196.68</course>
  <speed>27.64</speed>
  <fix>3d</fix>
</trkpt>
<trkpt lat="-27.2720287" lon="151.31157">
  <ele>526.76</ele>
  <time>2026-09-01T20:01:25Z</time>
  <course>196.08</course>
  <speed>27.328977295171512</speed>
  <fix>3d</fix>
</trkpt>
<trkpt lat="-27.2719571" lon="151.3115953">
  <ele>526.41</ele>
  <time>2026-09-01T20:01:25Z</time>
  <course>196.68</course>
  <speed>27.64</speed>
  <fix>3d</fix>
</trkpt>
<trkpt lat="-27.2720519" lon="151.3115608">
  <ele>526.78</ele>
  <time>2026-09-01T20:01:25Z</time>
  <course>197.04</course>
  <speed>27.25412262392609</speed>
  <fix>3d</fix>
</trkpt>
<trkpt lat="-27.2720043" lon="151.3115788">
  <ele>526.68</ele>
  <time>2026-09-01T20:01:25Z</time>
  <course>197.98</course>
  <speed>27.43</speed>
  <fix>3d</fix>
</trkpt>
<trkpt lat="-27.2720748" lon="151.3115513">
  <ele>526.76</ele>
  <time>2026-09-01T20:01:26Z</time>
  <course>198.14</course>
  <speed>27.186954592230446</speed>
  <fix>3d</fix>
</trkpt>
<trkpt lat="-27.2720043" lon="151.3115788">
  <ele>526.68</ele>
  <time>2026-09-01T20:01:26Z</time>
  <course>197.98</course>
  <speed>27.43</speed>
  <fix>3d</fix>
</trkpt>
<trkpt lat="-27.2720975" lon="151.3115412">
  <ele>526.72</ele>
  <time>2026-09-01T20:01:26Z</time>
  <course>199.38</course>
  <speed>27.13073718128573</speed>
  <fix>3d</fix>
</trkpt>
<trkpt lat="-27.2720508" lon="151.3115609">
  <ele>526.76</ele>
  <time>2026-09-01T20:01:26Z</time>
  <course>199.83</course>
  <speed>27.26</speed>
  <fix>3d</fix>
</trkpt>
<trkpt lat="-27.2721199" lon="151.3115305">
  <ele>526.65</ele>
  <time>2026-09-01T20:01:26Z</time>
  <course>200.73</course>
  <speed>27.085075226035464</speed>
  <fix>3d</fix>
</trkpt>
<trkpt lat="-27.2720508" lon="151.3115609">
  <ele>526.76</ele>
  <time>2026-09-01T20:01:26Z</time>
  <course>199.83</course>
  <speed>27.26</speed>
  <fix>3d</fix>
</trkpt>
<trkpt lat="-27.2721421" lon="151.3115192">
  <ele>526.56</ele>
  <time>2026-09-01T20:01:26Z</time>
  <course>202.19</course>
  <speed>27.03568382712004</speed>
  <fix>3d</fix>
</trkpt>
<trkpt lat="-27.2720964" lon="151.3115413">
  <ele>526.71</ele>
  <time>2026-09-01T20:01:26Z</time>
  <course>202.19</course>
  <speed>27.13</speed>
  <fix>3d</fix>
</trkpt>
<trkpt lat="-27.2721639" lon="151.3115073">
  <ele>526.44</ele>
  <time>2026-09-01T20:01:26Z</time>
  <course>203.72</course>
  <speed>27.002786893207894</speed>
  <fix>3d</fix>
</trkpt>
<trkpt lat="-27.2720964" lon="151.3115413">
  <ele>526.71</ele>
  <time>2026-09-01T20:01:26Z</time>
  <course>202.19</course>
  <speed>27.13</speed>
  <fix>3d</fix>
</trkpt>
<trkpt lat="-27.2721855" lon="151.3114949">
  <ele>526.31</ele>
  <time>2026-09-01T20:01:26Z</time>
  <course>205.1</course>
  <speed>26.980016679016344</speed>
  <fix>3d</fix>
</trkpt>
<trkpt lat="-27.272141" lon="151.3115194">
  <ele>526.55</ele>
  <time>2026-09-01T20:01:26Z</time>
  <course>204.94</course>
  <speed>27.04</speed>
  <fix>3d</fix>
</trkpt>
<trkpt lat="-27.2722067" lon="151.3114818">
  <ele>526.16</ele>
  <time>2026-09-01T20:01:26Z</time>
  <course>206.37</course>
  <speed>26.944301809473558</speed>
  <fix>3d</fix>
</trkpt>
<trkpt lat="-27.272141" lon="151.3115194">
  <ele>526.55</ele>
  <time>2026-09-01T20:01:26Z</time>
  <course>204.94</course>
  <speed>27.04</speed>
  <fix>3d</fix>
</trkpt>
<trkpt lat="-27.2722276" lon="151.311468">
  <ele>526.02</ele>
  <time>2026-09-01T20:01:26Z</time>
  <course>207.47</course>
  <speed>26.913307117483722</speed>
  <fix>3d</fix>
</trkpt>
<trkpt lat="-27.2721844" lon="151.3114951">
  <ele>526.31</ele>
  <time>2026-09-01T20:01:26Z</time>
  <course>207.92</course>
  <speed>26.97</speed>
  <fix>3d</fix>
</trkpt>
<trkpt lat="-27.2722484" lon="151.3114537">
  <ele>525.86</ele>
  <time>2026-09-01T20:01:26Z</time>
  <course>208.36</course>
  <speed>26.885810383918134</speed>
  <fix>3d</fix>
</trkpt>
<trkpt lat="-27.2721844" lon="151.3114951">
  <ele>526.31</ele>
  <time>2026-09-01T20:01:26Z</time>
  <course>207.92</course>
  <speed>26.97</speed>
  <fix>3d</fix>
</trkpt>
<trkpt lat="-27.2722687" lon="151.3114392">
  <ele>525.7</ele>
  <time>2026-09-01T20:01:26Z</time>
  <course>209.16</course>
  <speed>26.843613765661285</speed>
  <fix>3d</fix>
</trkpt>
<trkpt lat="-27.2722265" lon="151.3114684">
  <ele>526.02</ele>
  <time>2026-09-01T20:01:26Z</time>
  <course>210.73</course>
  <speed>26.91</speed>
  <fix>3d</fix>
</trkpt>
<trkpt lat="-27.2722888" lon="151.3114243">
  <ele>525.53</ele>
  <time>2026-09-01T20:01:26Z</time>
  <course>209.89</course>
  <speed>26.803218090371164</speed>
  <fix>3d</fix>
</trkpt>
<trkpt lat="-27.2722265" lon="151.3114684">
  <ele>526.02</ele>
  <time>2026-09-01T20:01:26Z</time>
  <course>210.73</course>
  <speed>26.91</speed>
  <fix>3d</fix>
</trkpt>
<trkpt lat="-27.2723087" lon="151.3114091">
  <ele>525.36</ele>
  <time>2026-09-01T20:01:26Z</time>
  <course>210.64</course>
  <speed>26.747375572193995</speed>
  <fix>3d</fix>
</trkpt>
<trkpt lat="-27.2722676" lon="151.3114397">
  <ele>525.7</ele>
  <time>2026-09-01T20:01:26Z</time>
  <course>212.91</course>
  <speed>26.84</speed>
  <fix>3d</fix>
</trkpt>
<trkpt lat="-27.2723284" lon="151.3113937">
  <ele>525.18</ele>
  <time>2026-09-01T20:01:26Z</time>
  <course>211.38</course>
  <speed>26.70450336553743</speed>
  <fix>3d</fix>
</trkpt>
<trkpt lat="-27.2722676" lon="151.3114397">
  <ele>525.7</ele>
  <time>2026-09-01T20:01:26Z</time>
  <course>212.91</course>
  <speed>26.84</speed>
  <fix>3d</fix>
</trkpt>
<trkpt lat="-27.272348" lon="151.311378">
  <ele>524.99</ele>
  <time>2026-09-01T20:01:26Z</time>
  <course>212.02</course>
  <speed>26.651037503256795</speed>
  <fix>3d</fix>
</trkpt>
<trkpt lat="-27.2723077" lon="151.3114096">
  <ele>525.36</ele>
  <time>2026-09-01T20:01:26Z</time>
  <course>214.38</course>
  <speed>26.75</speed>
  <fix>3d</fix>
</trkpt>
<trkpt lat="-27.2723675" lon="151.3113625">
  <ele>524.79</ele>
  <time>2026-09-01T20:01:26Z</time>
  <course>212.59</course>
  <speed>26.59985338305458</speed>
  <fix>3d</fix>
</trkpt>
<trkpt lat="-27.2723077" lon="151.3114096">
  <ele>525.36</ele>
  <time>2026-09-01T20:01:26Z</time>
  <course>214.38</course>
  <speed>26.75</speed>
  <fix>3d</fix>
</trkpt>
<trkpt lat="-27.2723868" lon="151.3113468">
  <ele>524.58</ele>
  <time>2026-09-01T20:01:26Z</time>
  <course>213.1</course>
  <speed>26.55381328547747</speed>
  <fix>3d</fix>
</trkpt>
<trkpt lat="-27.2723471" lon="151.3113786">
  <ele>524.99</ele>
  <time>2026-09-01T20:01:26Z</time>
  <course>215.31</course>
  <speed>26.65</speed>
  <fix>3d</fix>
</trkpt>
<trkpt lat="-27.2724061" lon="151.311331">
  <ele>524.37</ele>
  <time>2026-09-01T20:01:26Z</time>
  <course>213.56</course>
  <speed>26.50669538060148</speed>
  <fix>3d</fix>
</trkpt>
<trkpt lat="-27.2723471" lon="151.3113786">
  <ele>524.99</ele>
  <time>2026-09-01T20:01:26Z</time>
  <course>215.31</course>
  <speed>26.65</speed>
  <fix>3d</fix>
</trkpt>
<trkpt lat="-27.2724253" lon="151.3113153">
  <ele>524.15</ele>
  <time>2026-09-01T20:01:26Z</time>
  <course>213.97</course>
  <speed>26.470007555722383</speed>
  <fix>3d</fix>
</trkpt>
<trkpt lat="-27.272386" lon="151.3113474">
  <ele>524.58</ele>
  <time>2026-09-01T20:01:26Z</time>
  <course>215.86</course>
  <speed>26.56</speed>
  <fix>3d</fix>
</trkpt>
<trkpt lat="-27.2724445" lon="151.3112995">
  <ele>523.93</ele>
  <time>2026-09-01T20:01:26Z</time>
  <course>214.28</course>
  <speed>26.431817947314936</speed>
  <fix>3d</fix>
</trkpt>
<trkpt lat="-27.272386" lon="151.3113474">
  <ele>524.58</ele>
  <time>2026-09-01T20:01:26Z</time>
  <course>215.86</course>
  <speed>26.56</speed>
  <fix>3d</fix>
</trkpt>
<trkpt lat="-27.2724637" lon="151.3112837">
  <ele>523.72</ele>
  <time>2026-09-01T20:01:26Z</time>
  <course>214.52</course>
  <speed>26.403867141007964</speed>
  <fix>3d</fix>
</trkpt>
<trkpt lat="-27.2724245" lon="151.3113158">
  <ele>524.16</ele>
  <time>2026-09-01T20:01:26Z</time>
  <course>216.12</course>
  <speed>26.48</speed>
  <fix>3d</fix>
</trkpt>
<trkpt lat="-27.2724828" lon="151.3112679">
  <ele>523.51</ele>
  <time>2026-09-01T20:01:26Z</time>
  <course>214.67</course>
  <speed>26.360404018148127</speed>
  <fix>3d</fix>
</trkpt>
<trkpt lat="-27.2724245" lon="151.3113158">
  <ele>524.16</ele>
  <time>2026-09-01T20:01:26Z</time>
  <course>216.12</course>
  <speed>26.48</speed>
  <fix>3d</fix>
</trkpt>
<trkpt lat="-27.2725019" lon="151.3112523">
  <ele>523.29</ele>
  <time>2026-09-01T20:01:26Z</time>
  <course>214.83</course>
  <speed>26.275922438612884</speed>
  <fix>3d</fix>
</trkpt>
<trkpt lat="-27.2724628" lon="151.3112843">
  <ele>523.72</ele>
  <time>2026-09-01T20:01:26Z</time>
  <course>216.15</course>
  <speed>26.4</speed>
  <fix>3d</fix>
</trkpt>
<trkpt lat="-27.272521" lon="151.3112368">
  <ele>523.08</ele>
  <time>2026-09-01T20:01:26Z</time>
  <course>215.01</course>
  <speed>26.13130880763533</speed>
  <fix>3d</fix>
</trkpt>
<trkpt lat="-27.2724628" lon="151.3112843">
  <ele>523.72</ele>
  <time>2026-09-01T20:01:26Z</time>
  <course>216.15</course>
  <speed>26.4</speed>
  <fix>3d</fix>
</trkpt>
<trkpt lat="-27.2725401" lon="151.3112217">
  <ele>522.87</ele>
  <time>2026-09-01T20:01:26Z</time>
  <course>215.08</course>
  <speed>25.94753552844663</speed>
  <fix>3d</fix>
</trkpt>
<trkpt lat="-27.2725011" lon="151.311253">
  <ele>523.3</ele>
  <time>2026-09-01T20:01:26Z</time>
  <course>215.82</course>
  <speed>26.25</speed>
  <fix>3d</fix>
</trkpt>
<trkpt lat="-27.2725592" lon="151.3112067">
  <ele>522.68</ele>
  <time>2026-09-01T20:01:26Z</time>
  <course>214.95</course>
  <speed>25.703978291307358</speed>
  <fix>3d</fix>
</trkpt>
<trkpt lat="-27.2725011" lon="151.311253">
  <ele>523.3</ele>
  <time>2026-09-01T20:01:26Z</time>
  <course>215.82</course>
  <speed>26.25</speed>
  <fix>3d</fix>
</trkpt>
<trkpt lat="-27.2725782" lon="151.3111922">
  <ele>522.52</ele>
  <time>2026-09-01T20:01:26Z</time>
  <course>214.61</course>
  <speed>25.413604624295232</speed>
  <fix>3d</fix>
</trkpt>
<trkpt lat="-27.2725393" lon="151.3112224">
  <ele>522.89</ele>
  <time>2026-09-01T20:01:26Z</time>
  <course>214.99</course>
  <speed>25.93</speed>
  <fix>3d</fix>
</trkpt>
<trkpt lat="-27.2725971" lon="151.3111783">
  <ele>522.4</ele>
  <time>2026-09-01T20:01:26Z</time>
  <course>214.13</course>
  <speed>25.104282503190564</speed>
  <fix>3d</fix>
</trkpt>
<trkpt lat="-27.2725393" lon="151.3112224">
  <ele>522.89</ele>
  <time>2026-09-01T20:01:26Z</time>
  <course>214.99</course>
  <speed>25.93</speed>
  <fix>3d</fix>
</trkpt>
<trkpt lat="-27.272616" lon="151.3111645">
  <ele>522.32</ele>
  <time>2026-09-01T20:01:26Z</time>
  <course>213.58</course>
  <speed>24.778339330955976</speed>
  <fix>3d</fix>
</trkpt>
<trkpt lat="-27.2725773" lon="151.3111931">
  <ele>522.55</ele>
  <time>2026-09-01T20:01:26Z</time>
  <course>213.79</course>
  <speed>25.42</speed>
  <fix>3d</fix>
</trkpt>
<trkpt lat="-27.2726347" lon="151.3111514">
  <ele>522.28</ele>
  <time>2026-09-01T20:01:26Z</time>
  <course>213.07</course>
  <speed>24.445678554705736</speed>
  <fix>3d</fix>
</trkpt>
<trkpt lat="-27.2725773" lon="151.3111931">
  <ele>522.55</ele>
  <time>2026-09-01T20:01:26Z</time>
  <course>213.79</course>
  <speed>25.42</speed>
  <fix>3d</fix>
</trkpt>
<trkpt lat="-27.2726532" lon="151.3111385">
  <ele>522.26</ele>
  <time>2026-09-01T20:01:26Z</time>
  <course>212.64</course>
  <speed>24.10194390500484</speed>
  <fix>3d</fix>
</trkpt>
<trkpt lat="-27.2726151" lon="151.3111654">
  <ele>522.34</ele>
  <time>2026-09-01T20:01:26Z</time>
  <course>212.57</course>
  <speed>24.79</speed>
  <fix>3d</fix>
</trkpt>
<trkpt lat="-27.2726716" lon="151.3111258">
  <ele>522.26</ele>
  <time>2026-09-01T20:01:26Z</time>
  <course>212.27</course>
  <speed>23.771649080364618</speed>
  <fix>3d</fix>
</trkpt>
<trkpt lat="-27.2726151" lon="151.3111654">
  <ele>522.34</ele>
  <time>2026-09-01T20:01:26Z</time>
  <course>212.57</course>
  <speed>24.79</speed>
  <fix>3d</fix>
</trkpt>
<trkpt lat="-27.2726897" lon="151.3111135">
  <ele>522.26</ele>
  <time>2026-09-01T20:01:26Z</time>
  <course>211.94</course>
  <speed>23.449002110964123</speed>
  <fix>3d</fix>
</trkpt>
<trkpt lat="-27.2726523" lon="151.3111391">
  <ele>522.27</ele>
  <time>2026-09-01T20:01:26Z</time>
  <course>211.61</course>
  <speed>24.12</speed>
  <fix>3d</fix>
</trkpt>
<trkpt lat="-27.2727077" lon="151.3111015">
  <ele>522.26</ele>
  <time>2026-09-01T20:01:26Z</time>
  <course>211.64</course>
  <speed>23.13359678044035</speed>
  <fix>3d</fix>
</trkpt>
<trkpt lat="-27.2726523" lon="151.3111391">
  <ele>522.27</ele>
  <time>2026-09-01T20:01:26Z</time>
  <course>211.61</course>
  <speed>24.12</speed>
  <fix>3d</fix>
</trkpt>
<trkpt lat="-27.2727254" lon="151.3110896">
  <ele>522.26</ele>
  <time>2026-09-01T20:01:26Z</time>
  <course>211.36</course>
  <speed>22.82512869624178</speed>
  <fix>3d</fix>
</trkpt>
<trkpt lat="-27.2726889" lon="151.3111141">
  <ele>522.26</ele>
  <time>2026-09-01T20:01:26Z</time>
  <course>211.0</course>
  <speed>23.47</speed>
  <fix>3d</fix>
</trkpt>
<trkpt lat="-27.272743" lon="151.3110779">
  <ele>522.24</ele>
  <time>2026-09-01T20:01:26Z</time>
  <course>211.1</course>
  <speed>22.530461602017837</speed>
  <fix>3d</fix>
</trkpt>
<trkpt lat="-27.2726889" lon="151.3111141">
  <ele>522.26</ele>
  <time>2026-09-01T20:01:26Z</time>
  <course>211.0</course>
  <speed>23.47</speed>
  <fix>3d</fix>
</trkpt>
<trkpt lat="-27.2727605" lon="151.3110663">
  <ele>522.22</ele>
  <time>2026-09-01T20:01:26Z</time>
  <course>210.87</course>
  <speed>22.254639965634134</speed>
  <fix>3d</fix>
</trkpt>
<trkpt lat="-27.2727247" lon="151.3110901">
  <ele>522.25</ele>
  <time>2026-09-01T20:01:26Z</time>
  <course>210.65</course>
  <speed>22.85</speed>
  <fix>3d</fix>
</trkpt>
<trkpt lat="-27.2727776" lon="151.3110551">
  <ele>522.19</ele>
  <time>2026-09-01T20:01:26Z</time>
  <course>210.68</course>
  <speed>21.978873947497856</speed>
  <fix>3d</fix>
</trkpt>
<trkpt lat="-27.2727247" lon="151.3110901">
  <ele>522.25</ele>
  <time>2026-09-01T20:01:26Z</time>
  <course>210.65</course>
  <speed>22.85</speed>
  <fix>3d</fix>
</trkpt>
<trkpt lat="-27.2727945" lon="151.3110439">
  <ele>522.14</ele>
  <time>2026-09-01T20:01:26Z</time>
  <course>210.52</course>
  <speed>21.72188067364334</speed>
  <fix>3d</fix>
</trkpt>
<trkpt lat="-27.2727596" lon="151.3110669">
  <ele>522.21</ele>
  <time>2026-09-01T20:01:26Z</time>
  <course>210.43</course>
  <speed>22.27</speed>
  <fix>3d</fix>
</trkpt>
<trkpt lat="-27.2728113" lon="151.3110329">
  <ele>522.09</ele>
  <time>2026-09-01T20:01:26Z</time>
  <course>210.41</course>
  <speed>21.473555830369595</speed>
  <fix>3d</fix>
</trkpt>
<trkpt lat="-27.2727596" lon="151.3110669">
  <ele>522.21</ele>
  <time>2026-09-01T20:01:26Z</time>
  <course>210.43</course>
  <speed>22.27</speed>
  <fix>3d</fix>
</trkpt>
<trkpt lat="-27.2728279" lon="151.3110221">
  <ele>522.02</ele>
  <time>2026-09-01T20:01:26Z</time>
  <course>210.32</course>
  <speed>21.230289682432502</speed>
  <fix>3d</fix>
</trkpt>
<trkpt lat="-27.2727937" lon="151.3110444">
  <ele>522.14</ele>
  <time>2026-09-01T20:01:26Z</time>
  <course>210.28</course>
  <speed>21.74</speed>
  <fix>3d</fix>
</trkpt>
<trkpt lat="-27.2728443" lon="151.3110113">
  <ele>521.94</ele>
  <time>2026-09-01T20:01:26Z</time>
  <course>210.25</course>
  <speed>21.009362198791283</speed>
  <fix>3d</fix>
</trkpt>
<trkpt lat="-27.2727937" lon="151.3110444">
  <ele>522.14</ele>
  <time>2026-09-01T20:01:26Z</time>
  <course>210.28</course>
  <speed>21.74</speed>
  <fix>3d</fix>
</trkpt>
<trkpt lat="-27.2728605" lon="151.3110007">
  <ele>521.85</ele>
  <time>2026-09-01T20:01:26Z</time>
  <course>210.19</course>
  <speed>20.788458336298053</speed>
  <fix>3d</fix>
</trkpt>
<trkpt lat="-27.2728271" lon="151.3110226">
  <ele>522.02</ele>
  <time>2026-09-01T20:01:26Z</time>
  <course>210.14</course>
  <speed>21.25</speed>
  <fix>3d</fix>
</trkpt>
<trkpt lat="-27.2728766" lon="151.3109903">
  <ele>521.74</ele>
  <time>2026-09-01T20:01:26Z</time>
  <course>210.13</course>
  <speed>20.581236600360047</speed>
  <fix>3d</fix>
</trkpt>
<trkpt lat="-27.2728271" lon="151.3110226">
  <ele>522.02</ele>
  <time>2026-09-01T20:01:26Z</time>
  <course>210.14</course>
  <speed>21.25</speed>
  <fix>3d</fix>
</trkpt>
<trkpt lat="-27.2728925" lon="151.3109801">
  <ele>521.62</ele>
  <time>2026-09-01T20:01:26Z</time>
  <course>210.08</course>
  <speed>20.38270099864098</speed>
  <fix>3d</fix>
</trkpt>
<trkpt lat="-27.2728597" lon="151.3110013">
  <ele>521.84</ele>
  <time>2026-09-01T20:01:26Z</time>
  <course>210.02</course>
  <speed>20.8</speed>
  <fix>3d</fix>
</trkpt>
<trkpt lat="-27.2729083" lon="151.3109697">
  <ele>521.5</ele>
  <time>2026-09-01T20:01:26Z</time>
  <course>210.03</course>
  <speed>20.189170364331467</speed>
  <fix>3d</fix>
</trkpt>
<trkpt lat="-27.2728597" lon="151.3110013">
  <ele>521.84</ele>
  <time>2026-09-01T20:01:26Z</time>
  <course>210.02</course>
  <speed>20.8</speed>
  <fix>3d</fix>
</trkpt>
<trkpt lat="-27.272924" lon="151.3109596">
  <ele>521.36</ele>
  <time>2026-09-01T20:01:26Z</time>
  <course>209.97</course>
  <speed>20.009300337593018</speed>
  <fix>3d</fix>
</trkpt>
<trkpt lat="-27.2728917" lon="151.3109805">
  <ele>521.62</ele>
  <time>2026-09-01T20:01:26Z</time>
  <course>209.91</course>
  <speed>20.4</speed>
  <fix>3d</fix>
</trkpt>
<trkpt lat="-27.2729395" lon="151.3109496">
  <ele>521.21</ele>
  <time>2026-09-01T20:01:26Z</time>
  <course>209.91</course>
  <speed>19.83811735019228</speed>
  <fix>3d</fix>
</trkpt>
<trkpt lat="-27.2728917" lon="151.3109805">
  <ele>521.62</ele>
  <time>2026-09-01T20:01:26Z</time>
  <course>209.91</course>
  <speed>20.4</speed>
  <fix>3d</fix>
</trkpt>
<trkpt lat="-27.2729549" lon="151.3109398">
  <ele>521.06</ele>
  <time>2026-09-01T20:01:26Z</time>
  <course>209.85</course>
  <speed>19.67190890584846</speed>
  <fix>3d</fix>
</trkpt>
<trkpt lat="-27.2729233" lon="151.3109601">
  <ele>521.36</ele>
  <time>2026-09-01T20:01:26Z</time>
  <course>209.82</course>
  <speed>20.03</speed>
  <fix>3d</fix>
</trkpt>
<trkpt lat="-27.2729702" lon="151.3109299">
  <ele>520.9</ele>
  <time>2026-09-01T20:01:26Z</time>
  <course>209.8</course>
  <speed>19.514389562576635</speed>
  <fix>3d</fix>
</trkpt>
<trkpt lat="-27.2729233" lon="151.3109601">
  <ele>521.36</ele>
  <time>2026-09-01T20:01:26Z</time>
  <course>209.82</course>
  <speed>20.03</speed>
  <fix>3d</fix>
</trkpt>
<trkpt lat="-27.2729854" lon="151.3109203">
  <ele>520.74</ele>
  <time>2026-09-01T20:01:26Z</time>
  <course>209.76</course>
  <speed>19.370518836623866</speed>
  <fix>3d</fix>
</trkpt>
<trkpt lat="-27.2729542" lon="151.3109402">
  <ele>521.06</ele>
  <time>2026-09-01T20:01:26Z</time>
  <course>209.74</course>
  <speed>19.69</speed>
  <fix>3d</fix>
</trkpt>
<trkpt lat="-27.2730005" lon="151.3109106">
  <ele>520.57</ele>
  <time>2026-09-01T20:01:26Z</time>
  <course>209.72</course>
  <speed>19.226653374937616</speed>
  <fix>3d</fix>
</trkpt>
<trkpt lat="-27.2729542" lon="151.3109402">
  <ele>521.06</ele>
  <time>2026-09-01T20:01:26Z</time>
  <course>209.74</course>
  <speed>19.69</speed>
  <fix>3d</fix>
</trkpt>
<trkpt lat="-27.2730154" lon="151.310901">
  <ele>520.4</ele>
  <time>2026-09-01T20:01:26Z</time>
  <course>209.68</course>
  <speed>19.082793296580036</speed>
  <fix>3d</fix>
</trkpt>
<trkpt lat="-27.2729847" lon="151.3109207">
  <ele>520.74</ele>
  <time>2026-09-01T20:01:26Z</time>
  <course>209.67</course>
  <speed>19.38</speed>
  <fix>3d</fix>
</trkpt>
<trkpt lat="-27.2730303" lon="151.3108915">
  <ele>520.22</ele>
  <time>2026-09-01T20:01:26Z</time>
  <course>209.65</course>
  <speed>18.94763573641841</speed>
  <fix>3d</fix>
</trkpt>
<trkpt lat="-27.2729847" lon="151.3109207">
  <ele>520.74</ele>
  <time>2026-09-01T20:01:26Z</time>
  <course>209.67</course>
  <speed>19.38</speed>
  <fix>3d</fix>
</trkpt>
<trkpt lat="-27.273045" lon="151.310882">
  <ele>520.04</ele>
  <time>2026-09-01T20:01:26Z</time>
  <course>209.61</course>
  <speed>18.81742012072856</speed>
  <fix>3d</fix>
</trkpt>
<trkpt lat="-27.2730147" lon="151.3109014">
  <ele>520.4</ele>
  <time>2026-09-01T20:01:26Z</time>
  <course>209.61</course>
  <speed>19.09</speed>
  <fix>3d</fix>
</trkpt>
<trkpt lat="-27.2730597" lon="151.3108728">
  <ele>519.86</ele>
  <time>2026-09-01T20:01:26Z</time>
  <course>209.58</course>
  <speed>18.695908643336917</speed>
  <fix>3d</fix>
</trkpt>
<trkpt lat="-27.2730147" lon="151.3109014">
  <ele>520.4</ele>
  <time>2026-09-01T20:01:26Z</time>
  <course>209.61</course>
  <speed>19.09</speed>
  <fix>3d</fix>
</trkpt>
<trkpt lat="-27.2730742" lon="151.3108634">
  <ele>519.68</ele>
  <time>2026-09-01T20:01:26Z</time>
  <course>209.55</course>
  <speed>18.57440443190575</speed>
  <fix>3d</fix>
</trkpt>
<trkpt lat="-27.2730443" lon="151.3108825">
  <ele>520.05</ele>
  <time>2026-09-01T20:01:26Z</time>
  <course>209.55</course>
  <speed>18.83</speed>
  <fix>3d</fix>
</trkpt>
<trkpt lat="-27.2730887" lon="151.3108543">
  <ele>519.49</ele>
  <time>2026-09-01T20:01:26Z</time>
  <course>209.52</course>
  <speed>18.452907629964447</speed>
  <fix>3d</fix>
</trkpt>
<trkpt lat="-27.2730443" lon="151.3108825">
  <ele>520.05</ele>
  <time>2026-09-01T20:01:26Z</time>
  <course>209.55</course>
  <speed>18.83</speed>
  <fix>3d</fix>
</trkpt>
<trkpt lat="-27.2731031" lon="151.3108452">
  <ele>519.31</ele>
  <time>2026-09-01T20:01:26Z</time>
  <course>209.49</course>
  <speed>18.33633005811141</speed>
  <fix>3d</fix>
</trkpt>
<trkpt lat="-27.2730737" lon="151.3108638">
  <ele>519.68</ele>
  <time>2026-09-01T20:01:26Z</time>
  <course>209.48</course>
  <speed>18.58</speed>
  <fix>3d</fix>
</trkpt>
<trkpt lat="-27.2731174" lon="151.3108361">
  <ele>519.12</ele>
  <time>2026-09-01T20:01:26Z</time>
  <course>209.46</course>
  <speed>18.228464005505238</speed>
  <fix>3d</fix>
</trkpt>
<trkpt lat="-27.2730737" lon="151.3108638">
  <ele>519.68</ele>
  <time>2026-09-01T20:01:26Z</time>
  <course>209.48</course>
  <speed>18.58</speed>
  <fix>3d</fix>
</trkpt>
<trkpt lat="-27.2731316" lon="151.310827">
  <ele>518.93</ele>
  <time>2026-09-01T20:01:26Z</time>
  <course>209.43</course>
  <speed>18.120601535269188</speed>
  <fix>3d</fix>
</trkpt>
<trkpt lat="-27.2731025" lon="151.3108455">
  <ele>519.31</ele>
  <time>2026-09-01T20:01:26Z</time>
  <course>209.43</course>
  <speed>18.35</speed>
  <fix>3d</fix>
</trkpt>
<trkpt lat="-27.2731458" lon="151.3108181">
  <ele>518.73</ele>
  <time>2026-09-01T20:01:26Z</time>
  <course>209.4</course>
  <speed>18.02145943035691</speed>
  <fix>3d</fix>
</trkpt>
<trkpt lat="-27.2731025" lon="151.3108455">
  <ele>519.31</ele>
  <time>2026-09-01T20:01:26Z</time>
  <course>209.43</course>
  <speed>18.35</speed>
  <fix>3d</fix>
</trkpt>
<trkpt lat="-27.2731599" lon="151.3108092">
  <ele>518.54</ele>
  <time>2026-09-01T20:01:26Z</time>
  <course>209.38</course>
  <speed>17.913606560377506</speed>
  <fix>3d</fix>
</trkpt>
<trkpt lat="-27.2731311" lon="151.3108274">
  <ele>518.93</ele>
  <time>2026-09-01T20:01:26Z</time>
  <course>209.37</course>
  <speed>18.13</speed>
  <fix>3d</fix>
</trkpt>
<trkpt lat="-27.2731739" lon="151.3108004">
  <ele>518.35</ele>
  <time>2026-09-01T20:01:26Z</time>
  <course>209.35</course>
  <speed>17.81937148162078</speed>
  <fix>3d</fix>
</trkpt>
<trkpt lat="-27.2731311" lon="151.3108274">
  <ele>518.93</ele>
  <time>2026-09-01T20:01:26Z</time>
  <course>209.37</course>
  <speed>18.13</speed>
  <fix>3d</fix>
</trkpt>
<trkpt lat="-27.2731879" lon="151.3107915">
  <ele>518.15</ele>
  <time>2026-09-01T20:01:26Z</time>
  <course>209.33</course>
  <speed>17.72513751709701</speed>
  <fix>3d</fix>
</trkpt>
<trkpt lat="-27.2731593" lon="151.3108095">
  <ele>518.54</ele>
  <time>2026-09-01T20:01:26Z</time>
  <course>209.32</course>
  <speed>17.92</speed>
  <fix>3d</fix>
</trkpt>
<trkpt lat="-27.2732017" lon="151.3107828">
  <ele>517.95</ele>
  <time>2026-09-01T20:01:26Z</time>
  <course>209.3</course>
  <speed>17.63962868089915</speed>
  <fix>3d</fix>
</trkpt>
<trkpt lat="-27.2731593" lon="151.3108095">
  <ele>518.54</ele>
  <time>2026-09-01T20:01:26Z</time>
  <course>209.32</course>
  <speed>17.92</speed>
  <fix>3d</fix>
</trkpt>
<trkpt lat="-27.2732155" lon="151.3107741">
  <ele>517.75</ele>
  <time>2026-09-01T20:01:26Z</time>
  <course>209.28</course>
  <speed>17.54539825709294</speed>
  <fix>3d</fix>
</trkpt>
<trkpt lat="-27.2731872" lon="151.3107919">
  <ele>518.15</ele>
  <time>2026-09-01T20:01:26Z</time>
  <course>209.27</course>
  <speed>17.73</speed>
  <fix>3d</fix>
</trkpt>
<trkpt lat="-27.2732292" lon="151.3107655">
  <ele>517.56</ele>
  <time>2026-09-01T20:01:26Z</time>
  <course>209.25</course>
  <speed>17.459896906912135</speed>
  <fix>3d</fix>
</trkpt>
<trkpt lat="-27.2731872" lon="151.3107919">
  <ele>518.15</ele>
  <time>2026-09-01T20:01:26Z</time>
  <course>209.27</course>
  <speed>17.73</speed>
  <fix>3d</fix>
</trkpt>
<trkpt lat="-27.271404" lon="151.3148195">
  <ele>540.46</ele>
  <time>2026-09-01T20:01:26Z</time>
  <course>250.66</course>
  <speed>11.882390331915545</speed>
  <fix>3d</fix>
</trkpt>
<trkpt lat="-27.2732149" lon="151.3107744">
  <ele>517.76</ele>
  <time>2026-09-01T20:01:26Z</time>
  <course>209.23</course>
  <speed>17.55</speed>
  <fix>3d</fix>
</trkpt>
<trkpt lat="-27.2714067" lon="151.3148081">
  <ele>536.61</ele>
  <time>2026-09-01T20:01:26Z</time>
  <course>249.24</course>
  <speed>11.682816441252513</speed>
  <fix>3d</fix>
</trkpt>
<trkpt lat="-27.2732149" lon="151.3107744">
  <ele>517.76</ele>
  <time>2026-09-01T20:01:26Z</time>
  <course>209.23</course>
  <speed>17.55</speed>
  <fix>3d</fix>
</trkpt>
<trkpt lat="-27.2714106" lon="151.3147965">
  <ele>532.78</ele>
  <time>2026-09-01T20:01:26Z</time>
  <course>235.14</course>
  <speed>13.125795214005132</speed>
  <fix>3d</fix>
</trkpt>
<trkpt lat="-27.2723176" lon="151.3127872">
  <ele>527.16</ele>
  <time>2026-09-01T20:01:26Z</time>
  <course>226.85</course>
  <speed>13.51</speed>
  <fix>3d</fix>
</trkpt>
<trkpt lat="-27.2714178" lon="151.3147851">
  <ele>529.01</ele>
  <time>2026-09-01T20:01:26Z</time>
  <course>215.36</course>
  <speed>14.456987929717586</speed>
  <fix>3d</fix>
</trkpt>
<trkpt lat="-27.2723176" lon="151.3127872">
  <ele>527.16</ele>
  <time>2026-09-01T20:01:26Z</time>
  <course>226.85</course>
  <speed>13.51</speed>
  <fix>3d</fix>
</trkpt>
<trkpt lat="-27.2714278" lon="151.3147754">
  <ele>525.27</ele>
  <time>2026-09-01T20:01:26Z</time>
  <course>201.59</course>
  <speed>14.88368569944958</speed>
  <fix>3d</fix>
</trkpt>
<trkpt lat="-27.271412" lon="151.3147971">
  <ele>532.96</ele>
  <time>2026-09-01T20:01:26Z</time>
  <course>239.45</course>
  <speed>12.7</speed>
  <fix>3d</fix>
</trkpt>
<trkpt lat="-27.2714389" lon="151.3147664">
  <ele>521.54</ele>
  <time>2026-09-01T20:01:26Z</time>
  <course>207.96</course>
  <speed>15.99578069367044</speed>
  <fix>3d</fix>
</trkpt>
<trkpt lat="-27.271412" lon="151.3147971">
  <ele>532.96</ele>
  <time>2026-09-01T20:01:26Z</time>
  <course>239.45</course>
  <speed>12.7</speed>
  <fix>3d</fix>
</trkpt>
<trkpt lat="-27.27145" lon="151.314752">
  <ele>518.04</ele>
  <time>2026-09-01T20:01:26Z</time>
  <course>225.53</course>
  <speed>22.70475721076973</speed>
  <fix>3d</fix>
</trkpt>
<trkpt lat="-27.2714279" lon="151.3147761">
  <ele>525.43</ele>
  <time>2026-09-01T20:01:26Z</time>
  <course>223.14</course>
  <speed>15.09</speed>
  <fix>3d</fix>
</trkpt>
<trkpt lat="-27.2714621" lon="151.3147289">
  <ele>515.14</ele>
  <time>2026-09-01T20:01:26Z</time>
  <course>233.69</course>
  <speed>30.342519671246816</speed>
  <fix>3d</fix>
</trkpt>
<trkpt lat="-27.2714279" lon="151.3147761">
  <ele>525.43</ele>
  <time>2026-09-01T20:01:26Z</time>
  <course>223.14</course>
  <speed>15.09</speed>
  <fix>3d</fix>
</trkpt>
<trkpt lat="-27.2714763" lon="151.3146995">
  <ele>513.15</ele>
  <time>2026-09-01T20:01:26Z</time>
  <course>235.54</course>
  <speed>35.23837964492692</speed>
  <fix>3d</fix>
</trkpt>
<trkpt lat="-27.27145" lon="151.3147483">
  <ele>518.46</ele>
  <time>2026-09-01T20:01:26Z</time>
  <course>233.53</course>
  <speed>22.6</speed>
  <fix>3d</fix>
</trkpt>
<trkpt lat="-27.2714929" lon="151.3146679">
  <ele>512.1</ele>
  <time>2026-09-01T20:01:26Z</time>
  <course>231.5</course>
  <speed>37.06010928208388</speed>
  <fix>3d</fix>
</trkpt>
<trkpt lat="-27.27145" lon="151.3147483">
  <ele>518.46</ele>
  <time>2026-09-01T20:01:26Z</time>
  <course>233.53</course>
  <speed>22.6</speed>
  <fix>3d</fix>
</trkpt>
<trkpt lat="-27.2715125" lon="151.3146377">
  <ele>511.88</ele>
  <time>2026-09-01T20:01:26Z</time>
  <course>224.55</course>
  <speed>36.72392680528595</speed>
  <fix>3d</fix>
</trkpt>
<trkpt lat="-27.271477" lon="151.3146993">
  <ele>513.67</ele>
  <time>2026-09-01T20:01:26Z</time>
  <course>239.02</course>
  <speed>33.57</speed>
  <fix>3d</fix>
</trkpt>
<trkpt lat="-27.2715348" lon="151.3146112">
  <ele>512.25</ele>
  <time>2026-09-01T20:01:26Z</time>
  <course>217.26</course>
  <speed>35.41718509424486</speed>
  <fix>3d</fix>
</trkpt>
<trkpt lat="-27.271477" lon="151.3146993">
  <ele>513.67</ele>
  <time>2026-09-01T20:01:26Z</time>
  <course>239.02</course>
  <speed>33.57</speed>
  <fix>3d</fix>
</trkpt>
<trkpt lat="-27.2715592" lon="151.3145894">
  <ele>513.02</ele>
  <time>2026-09-01T20:01:26Z</time>
  <course>210.74</course>
  <speed>33.93971861992966</speed>
  <fix>3d</fix>
</trkpt>
<trkpt lat="-27.2715131" lon="151.3146404">
  <ele>512.17</ele>
  <time>2026-09-01T20:01:26Z</time>
  <course>230.17</course>
  <speed>35.97</speed>
  <fix>3d</fix>
</trkpt>
<trkpt lat="-27.2715848" lon="151.3145721">
  <ele>514.02</ele>
  <time>2026-09-01T20:01:26Z</time>
  <course>205.52</course>
  <speed>32.614458450202726</speed>
  <fix>3d</fix>
</trkpt>
<trkpt lat="-27.2715131" lon="151.3146404">
  <ele>512.17</ele>
  <time>2026-09-01T20:01:26Z</time>
  <course>230.17</course>
  <speed>35.97</speed>
  <fix>3d</fix>
</trkpt>
<trkpt lat="-27.271611" lon="151.3145587">
  <ele>515.16</ele>
  <time>2026-09-01T20:01:26Z</time>
  <course>201.84</course>
  <speed>31.50326014875286</speed>
  <fix>3d</fix>
</trkpt>
<trkpt lat="-27.2715589" lon="151.3145923">
  <ele>513.11</ele>
  <time>2026-09-01T20:01:26Z</time>
  <course>215.52</course>
  <speed>33.77</speed>
  <fix>3d</fix>
</trkpt>
<trkpt lat="-27.2716372" lon="151.3145482">
  <ele>516.35</ele>
  <time>2026-09-01T20:01:26Z</time>
  <course>199.8</course>
  <speed>30.60523484634614</speed>
  <fix>3d</fix>
</trkpt>
<trkpt lat="-27.2715589" lon="151.3145923">
  <ele>513.11</ele>
  <time>2026-09-01T20:01:26Z</time>
  <course>215.52</course>
  <speed>33.77</speed>
  <fix>3d</fix>
</trkpt>
<trkpt lat="-27.2716632" lon="151.3145393">
  <ele>517.58</ele>
  <time>2026-09-01T20:01:26Z</time>
  <course>199.05</course>
  <speed>29.88431026475264</speed>
  <fix>3d</fix>
</trkpt>
<trkpt lat="-27.27161" lon="151.3145606">
  <ele>515.15</ele>
  <time>2026-09-01T20:01:26Z</time>
  <course>203.05</course>
  <speed>31.54</speed>
  <fix>3d</fix>
</trkpt>
<trkpt lat="-27.2716888" lon="151.3145314">
  <ele>518.79</ele>
  <time>2026-09-01T20:01:26Z</time>
  <course>198.97</course>
  <speed>29.329345372851403</speed>
  <fix>3d</fix>
</trkpt>
<trkpt lat="-27.27161" lon="151.3145606">
  <ele>515.15</ele>
  <time>2026-09-01T20:01:26Z</time>
  <course>203.05</course>
  <speed>31.54</speed>
  <fix>3d</fix>
</trkpt>
<trkpt lat="-27.2717141" lon="151.3145241">
  <ele>519.98</ele>
  <time>2026-09-01T20:01:26Z</time>
  <course>199.14</course>
  <speed>28.9449356537547</speed>
  <fix>3d</fix>
</trkpt>
<trkpt lat="-27.2716621" lon="151.3145401">
  <ele>517.53</ele>
  <time>2026-09-01T20:01:26Z</time>
  <course>196.47</course>
  <speed>29.98</speed>
  <fix>3d</fix>
</trkpt>
<trkpt lat="-27.2717392" lon="151.3145168">
  <ele>521.09</ele>
  <time>2026-09-01T20:01:26Z</time>
  <course>199.1</course>
  <speed>28.70331862346234</speed>
  <fix>3d</fix>
</trkpt>
<trkpt lat="-27.2716621" lon="151.3145401">
  <ele>517.53</ele>
  <time>2026-09-01T20:01:26Z</time>
  <course>196.47</course>
  <speed>29.98</speed>
  <fix>3d</fix>
</trkpt>
<trkpt lat="-27.271764" lon="151.3145094">
  <ele>522.1</ele>
  <time>2026-09-01T20:01:26Z</time>
  <course>198.68</course>
  <speed>28.559980742290428</speed>
  <fix>3d</fix>
</trkpt>
<trkpt lat="-27.2717132" lon="151.3145244">
  <ele>519.9</ele>
  <time>2026-09-01T20:01:26Z</time>
  <course>194.68</course>
  <speed>29.03</speed>
  <fix>3d</fix>
</trkpt>
<trkpt lat="-27.2717888" lon="151.3145018">
  <ele>523.0</ele>
  <time>2026-09-01T20:01:26Z</time>
  <course>197.95</course>
  <speed>28.465797020283834</speed>
  <fix>3d</fix>
</trkpt>
<trkpt lat="-27.2717132" lon="151.3145244">
  <ele>519.9</ele>
  <time>2026-09-01T20:01:26Z</time>
  <course>194.68</course>
  <speed>29.03</speed>
  <fix>3d</fix>
</trkpt>
<trkpt lat="-27.2718134" lon="151.3144943">
  <ele>523.79</ele>
  <time>2026-09-01T20:01:26Z</time>
  <course>197.02</course>
  <speed>28.390597034933943</speed>
  <fix>3d</fix>
</trkpt>
<trkpt lat="-27.2717631" lon="151.3145096">
  <ele>522.01</ele>
  <time>2026-09-01T20:01:26Z</time>
  <course>194.95</course>
  <speed>28.59</speed>
  <fix>3d</fix>
</trkpt>
<trkpt lat="-27.2718379" lon="151.3144865">
  <ele>524.46</ele>
  <time>2026-09-01T20:01:26Z</time>
  <course>196.1</course>
  <speed>28.304981893652574</speed>
  <fix>3d</fix>
</trkpt>
<trkpt lat="-27.2717631" lon="151.3145096">
  <ele>522.01</ele>
  <time>2026-09-01T20:01:26Z</time>
  <course>194.95</course>
  <speed>28.59</speed>
  <fix>3d</fix>
</trkpt>
<trkpt lat="-27.2718625" lon="151.3144788">
  <ele>525.03</ele>
  <time>2026-09-01T20:01:26Z</time>
  <course>195.36</course>
  <speed>28.204469503963374</speed>
  <fix>3d</fix>
</trkpt>
<trkpt lat="-27.2718125" lon="151.3144945">
  <ele>523.7</ele>
  <time>2026-09-01T20:01:26Z</time>
  <course>195.44</course>
  <speed>28.39</speed>
  <fix>3d</fix>
</trkpt>
<trkpt lat="-27.2718869" lon="151.3144711">
  <ele>525.49</ele>
  <time>2026-09-01T20:01:26Z</time>
  <course>194.82</course>
  <speed>28.084800159516888</speed>
  <fix>3d</fix>
</trkpt>
<trkpt lat="-27.2718125" lon="151.3144945">
  <ele>523.7</ele>
  <time>2026-09-01T20:01:26Z</time>
  <course>195.44</course>
  <speed>28.39</speed>
  <fix>3d</fix>
</trkpt>
<trkpt lat="-27.2719111" lon="151.3144633">
  <ele>525.86</ele>
  <time>2026-09-01T20:01:26Z</time>
  <course>194.49</course>
  <speed>27.969399350003922</speed>
  <fix>3d</fix>
</trkpt>
<trkpt lat="-27.2718614" lon="151.3144791">
  <ele>524.95</ele>
  <time>2026-09-01T20:01:26Z</time>
  <course>195.72</course>
  <speed>28.2</speed>
  <fix>3d</fix>
</trkpt>
<trkpt lat="-27.2719351" lon="151.3144554">
  <ele>526.15</ele>
  <time>2026-09-01T20:01:26Z</time>
  <course>194.37</course>
  <speed>27.846436037669164</speed>
  <fix>3d</fix>
</trkpt>
<trkpt lat="-27.2718614" lon="151.3144791">
  <ele>524.95</ele>
  <time>2026-09-01T20:01:26Z</time>
  <course>195.72</course>
  <speed>28.2</speed>
  <fix>3d</fix>
</trkpt>
<trkpt lat="-27.2719591" lon="151.3144475">
  <ele>526.37</ele>
  <time>2026-09-01T20:01:26Z</time>
  <course>194.45</course>
  <speed>27.729091222036107</speed>
  <fix>3d</fix>
</trkpt>
<trkpt lat="-27.2719099" lon="151.3144636">
  <ele>525.8</ele>
  <time>2026-09-01T20:01:26Z</time>
  <course>196.08</course>
  <speed>27.97</speed>
  <fix>3d</fix>
</trkpt>
<trkpt lat="-27.2719828" lon="151.3144393">
  <ele>526.53</ele>
  <time>2026-09-01T20:01:26Z</time>
  <course>194.79</course>
  <speed>27.631011563097</speed>
  <fix>3d</fix>
</trkpt>
<trkpt lat="-27.2719099" lon="151.3144636">
  <ele>525.8</ele>
  <time>2026-09-01T20:01:26Z</time>
  <course>196.08</course>
  <speed>27.97</speed>
  <fix>3d</fix>
</trkpt>
<trkpt lat="-27.2720064" lon="151.3144308">
  <ele>526.64</ele>
  <time>2026-09-01T20:01:26Z</time>
  <course>195.39</course>
  <speed>27.528394431931552</speed>
  <fix>3d</fix>
</trkpt>
<trkpt lat="-27.271958" lon="151.3144476">
  <ele>526.33</ele>
  <time>2026-09-01T20:01:26Z</time>
  <course>196.81</course>
  <speed>27.74</speed>
  <fix>3d</fix>
</trkpt>
<trkpt lat="-27.2720299" lon="151.3144219">
  <ele>526.7</ele>
  <time>2026-09-01T20:01:26Z</time>
  <course>196.13</course>
  <speed>27.449225854293232</speed>
  <fix>3d</fix>
</trkpt>
<trkpt lat="-27.271958" lon="151.3144476">
  <ele>526.33</ele>
  <time>2026-09-01T20:01:26Z</time>
  <course>196.81</course>
  <speed>27.74</speed>
  <fix>3d</fix>
</trkpt>
<trkpt lat="-27.2720531" lon="151.3144128">
  <ele>526.72</ele>
  <time>2026-09-01T20:01:26Z</time>
  <course>197.01</course>
  <speed>27.377189410164075</speed>
  <fix>3d</fix>
</trkpt>
<trkpt lat="-27.2720055" lon="151.3144309">
  <ele>526.61</ele>
  <time>2026-09-01T20:01:26Z</time>
  <course>198.04</course>
  <speed>27.54</speed>
  <fix>3d</fix>
</trkpt>
<trkpt lat="-27.2720761" lon="151.3144032">
  <ele>526.71</ele>
  <time>2026-09-01T20:01:26Z</time>
  <course>198.05</course>
  <speed>27.31196258052504</speed>
  <fix>3d</fix>
</trkpt>
<trkpt lat="-27.2720055" lon="151.3144309">
  <ele>526.61</ele>
  <time>2026-09-01T20:01:26Z</time>
  <course>198.04</course>
  <speed>27.54</speed>
  <fix>3d</fix>
</trkpt>
<trkpt lat="-27.2720989" lon="151.3143931">
  <ele>526.66</ele>
  <time>2026-09-01T20:01:26Z</time>
  <course>199.28</course>
  <speed>27.26592195397031</speed>
  <fix>3d</fix>
</trkpt>
<trkpt lat="-27.2720522" lon="151.3144129">
  <ele>526.7</ele>
  <time>2026-09-01T20:01:26Z</time>
  <course>199.81</course>
  <speed>27.38</speed>
  <fix>3d</fix>
</trkpt>
<trkpt lat="-27.2721215" lon="151.3143825">
  <ele>526.6</ele>
  <time>2026-09-01T20:01:26Z</time>
  <course>200.58</course>
  <speed>27.21596039091768</speed>
  <fix>3d</fix>
</trkpt>
<trkpt lat="-27.2720522" lon="151.3144129">
  <ele>526.7</ele>
  <time>2026-09-01T20:01:26Z</time>
  <course>199.81</course>
  <speed>27.38</speed>
  <fix>3d</fix>
</trkpt>
<trkpt lat="-27.2721438" lon="151.3143714">
  <ele>526.5</ele>
  <time>2026-09-01T20:01:26Z</time>
  <course>201.91</course>
  <speed>27.182218452510455</speed>
  <fix>3d</fix>
</trkpt>
<trkpt lat="-27.272098" lon="151.3143932">
  <ele>526.65</ele>
  <time>2026-09-01T20:01:26Z</time>
  <course>202.06</course>
  <speed>27.26</speed>
  <fix>3d</fix>
</trkpt>
<trkpt lat="-27.2721658" lon="151.3143596">
  <ele>526.39</ele>
  <time>2026-09-01T20:01:26Z</time>
  <course>203.34</course>
  <speed>27.151018397106213</speed>
  <fix>3d</fix>
</trkpt>
<trkpt lat="-27.272098" lon="151.3143932">
  <ele>526.65</ele>
  <time>2026-09-01T20:01:26Z</time>
  <course>202.06</course>
  <speed>27.26</speed>
  <fix>3d</fix>
</trkpt>
<trkpt lat="-27.2721876" lon="151.3143471">
  <ele>526.27</ele>
  <time>2026-09-01T20:01:26Z</time>
  <course>204.82</course>
  <speed>27.11952248842151</speed>
  <fix>3d</fix>
</trkpt>
<trkpt lat="-27.2721429" lon="151.3143714">
  <ele>526.5</ele>
  <time>2026-09-01T20:01:26Z</time>
  <course>204.71</course>
  <speed>27.18</speed>
  <fix>3d</fix>
</trkpt>
<trkpt lat="-27.272209" lon="151.3143341">
  <ele>526.12</ele>
  <time>2026-09-01T20:01:26Z</time>
  <course>206.22</course>
  <speed>27.097964868233184</speed>
  <fix>3d</fix>
</trkpt>
<trkpt lat="-27.2721429" lon="151.3143714">
  <ele>526.5</ele>
  <time>2026-09-01T20:01:26Z</time>
  <course>204.71</course>
  <speed>27.18</speed>
  <fix>3d</fix>
</trkpt>
<trkpt lat="-27.2722301" lon="151.3143204">
  <ele>525.97</ele>
  <time>2026-09-01T20:01:26Z</time>
  <course>207.43</course>
  <speed>27.074971837473814</speed>
  <fix>3d</fix>
</trkpt>
<trkpt lat="-27.2721867" lon="151.3143473">
  <ele>526.26</ele>
  <time>2026-09-01T20:01:26Z</time>
  <course>207.62</course>
  <speed>27.12</speed>
  <fix>3d</fix>
</trkpt>
<trkpt lat="-27.2722508" lon="151.3143063">
  <ele>525.81</ele>
  <time>2026-09-01T20:01:26Z</time>
  <course>208.48</course>
  <speed>27.045861051184893</speed>
  <fix>3d</fix>
</trkpt>
<trkpt lat="-27.2721867" lon="151.3143473">
  <ele>526.26</ele>
  <time>2026-09-01T20:01:26Z</time>
  <course>207.62</course>
  <speed>27.12</speed>
  <fix>3d</fix>
</trkpt>
<trkpt lat="-27.2722713" lon="151.3142916">
  <ele>525.65</ele>
  <time>2026-09-01T20:01:26Z</time>
  <course>209.41</course>
  <speed>27.02641670662243</speed>
  <fix>3d</fix>
</trkpt>
<trkpt lat="-27.2722292" lon="151.3143207">
  <ele>525.97</ele>
  <time>2026-09-01T20:01:26Z</time>
  <course>210.51</course>
  <speed>27.07</speed>
  <fix>3d</fix>
</trkpt>
<trkpt lat="-27.2722915" lon="151.3142765">
  <ele>525.47</ele>
  <time>2026-09-01T20:01:26Z</time>
  <course>210.21</course>
  <speed>26.986694869879862</speed>
  <fix>3d</fix>
</trkpt>
<trkpt lat="-27.2722292" lon="151.3143207">
  <ele>525.97</ele>
  <time>2026-09-01T20:01:26Z</time>
  <course>210.51</course>
  <speed>27.07</speed>
  <fix>3d</fix>
</trkpt>
<trkpt lat="-27.2723115" lon="151.314261">
  <ele>525.29</ele>
  <time>2026-09-01T20:01:26Z</time>
  <course>210.93</course>
  <speed>26.93889752755298</speed>
  <fix>3d</fix>
</trkpt>
<trkpt lat="-27.2722705" lon="151.3142919">
  <ele>525.65</ele>
  <time>2026-09-01T20:01:26Z</time>
  <course>212.97</course>
  <speed>27.02</speed>
  <fix>3d</fix>
</trkpt>
<trkpt lat="-27.2723312" lon="151.3142454">
  <ele>525.12</ele>
  <time>2026-09-01T20:01:26Z</time>
  <course>211.64</course>
  <speed>26.896246950085807</speed>
  <fix>3d</fix>
</trkpt>
<trkpt lat="-27.2722705" lon="151.3142919">
  <ele>525.65</ele>
  <time>2026-09-01T20:01:26Z</time>
  <course>212.97</course>
  <speed>27.02</speed>
  <fix>3d</fix>
</trkpt>
<trkpt lat="-27.2723508" lon="151.3142294">
  <ele>524.93</ele>
  <time>2026-09-01T20:01:26Z</time>
  <course>212.41</course>
  <speed>26.851539993080472</speed>
  <fix>3d</fix>
</trkpt>
<trkpt lat="-27.2723107" lon="151.3142614">
  <ele>525.3</ele>
  <time>2026-09-01T20:01:26Z</time>
  <course>214.73</course>
  <speed>26.94</speed>
  <fix>3d</fix>
</trkpt>
<trkpt lat="-27.2723703" lon="151.3142135">
  <ele>524.73</ele>
  <time>2026-09-01T20:01:26Z</time>
  <course>213.11</course>
  <speed>26.80709234512389</speed>
  <fix>3d</fix>
</trkpt>
<trkpt lat="-27.2723107" lon="151.3142614">
  <ele>525.3</ele>
  <time>2026-09-01T20:01:26Z</time>
  <course>214.73</course>
  <speed>26.94</speed>
  <fix>3d</fix>
</trkpt>
<trkpt lat="-27.2723896" lon="151.3141973">
  <ele>524.53</ele>
  <time>2026-09-01T20:01:26Z</time>
  <course>213.75</course>
  <speed>26.756158169662548</speed>
  <fix>3d</fix>
</trkpt>
<trkpt lat="-27.2723501" lon="151.31423">
  <ele>524.93</ele>
  <time>2026-09-01T20:01:26Z</time>
  <course>215.88</course>
  <speed>26.85</speed>
  <fix>3d</fix>
</trkpt>
<trkpt lat="-27.2724089" lon="151.3141813">
  <ele>524.32</ele>
  <time>2026-09-01T20:01:26Z</time>
  <course>214.3</course>
  <speed>26.71801077924777</speed>
  <fix>3d</fix>
</trkpt>
<trkpt lat="-27.2723501" lon="151.31423">
  <ele>524.93</ele>
  <time>2026-09-01T20:01:26Z</time>
  <course>215.88</course>
  <speed>26.85</speed>
  <fix>3d</fix>
</trkpt>
<trkpt lat="-27.272428" lon="151.314165">
  <ele>524.1</ele>
  <time>2026-09-01T20:01:26Z</time>
  <course>214.78</course>
  <speed>26.676260982379073</speed>
  <fix>3d</fix>
</trkpt>
<trkpt lat="-27.272389" lon="151.3141979">
  <ele>524.53</ele>
  <time>2026-09-01T20:01:26Z</time>
  <course>216.62</course>
  <speed>26.76</speed>
  <fix>3d</fix>
</trkpt>
<trkpt lat="-27.2724471" lon="151.3141487">
  <ele>523.88</ele>
  <time>2026-09-01T20:01:26Z</time>
  <course>215.2</course>
  <speed>26.644691779039217</speed>
  <fix>3d</fix>
</trkpt>
<trkpt lat="-27.272389" lon="151.3141979">
  <ele>524.53</ele>
  <time>2026-09-01T20:01:26Z</time>
  <course>216.62</course>
  <speed>26.76</speed>
  <fix>3d</fix>
</trkpt>
<trkpt lat="-27.2724663" lon="151.3141322">
  <ele>523.66</ele>
  <time>2026-09-01T20:01:26Z</time>
  <course>215.6</course>
  <speed>26.617064075513664</speed>
  <fix>3d</fix>
</trkpt>
<trkpt lat="-27.2724275" lon="151.3141653">
  <ele>524.09</ele>
  <time>2026-09-01T20:01:26Z</time>
  <course>217.09</course>
  <speed>26.68</speed>
  <fix>3d</fix>
</trkpt>
<trkpt lat="-27.2724852" lon="151.3141159">
  <ele>523.45</ele>
  <time>2026-09-01T20:01:26Z</time>
  <course>215.85</course>
  <speed>26.585291045990076</speed>
  <fix>3d</fix>
</trkpt>
<trkpt lat="-27.2724275" lon="151.3141653">
  <ele>524.09</ele>
  <time>2026-09-01T20:01:26Z</time>
  <course>217.09</course>
  <speed>26.68</speed>
  <fix>3d</fix>
</trkpt>
<trkpt lat="-27.2725042" lon="151.3140996">
  <ele>523.25</ele>
  <time>2026-09-01T20:01:26Z</time>
  <course>216.05</course>
  <speed>26.563331869326934</speed>
  <fix>3d</fix>
</trkpt>
<trkpt lat="-27.2724655" lon="151.3141327">
  <ele>523.67</ele>
  <time>2026-09-01T20:01:26Z</time>
  <course>217.35</course>
  <speed>26.62</speed>
  <fix>3d</fix>
</trkpt>
<trkpt lat="-27.2725231" lon="151.3140833">
  <ele>523.08</ele>
  <time>2026-09-01T20:01:26Z</time>
  <course>216.17</course>
  <speed>26.537158853200545</speed>
  <fix>3d</fix>
</trkpt>
<trkpt lat="-27.2724655" lon="151.3141327">
  <ele>523.67</ele>
  <time>2026-09-01T20:01:26Z</time>
  <course>217.35</course>
  <speed>26.62</speed>
  <fix>3d</fix>
</trkpt>
<trkpt lat="-27.272542" lon="151.314067">
  <ele>522.93</ele>
  <time>2026-09-01T20:01:26Z</time>
  <course>216.26</course>
  <speed>26.492800908926185</speed>
  <fix>3d</fix>
</trkpt>
<trkpt lat="-27.2725035" lon="151.3141001">
  <ele>523.27</ele>
  <time>2026-09-01T20:01:26Z</time>
  <course>217.42</course>
  <speed>26.56</speed>
  <fix>3d</fix>
</trkpt>
<trkpt lat="-27.272561" lon="151.3140508">
  <ele>522.81</ele>
  <time>2026-09-01T20:01:26Z</time>
  <course>216.3</course>
  <speed>26.45042532739313</speed>
  <fix>3d</fix>
</trkpt>
<trkpt lat="-27.2725035" lon="151.3141001">
  <ele>523.27</ele>
  <time>2026-09-01T20:01:26Z</time>
  <course>217.42</course>
  <speed>26.56</speed>
  <fix>3d</fix>
</trkpt>
<trkpt lat="-27.2725799" lon="151.3140346">
  <ele>522.73</ele>
  <time>2026-09-01T20:01:26Z</time>
  <course>216.18</course>
  <speed>26.38407284707954</speed>
  <fix>3d</fix>
</trkpt>
<trkpt lat="-27.2725414" lon="151.3140675">
  <ele>522.94</ele>
  <time>2026-09-01T20:01:26Z</time>
  <course>217.3</course>
  <speed>26.49</speed>
  <fix>3d</fix>
</trkpt>
<trkpt lat="-27.2725988" lon="151.3140187">
  <ele>522.68</ele>
  <time>2026-09-01T20:01:26Z</time>
  <course>216.1</course>
  <speed>26.300047528474167</speed>
  <fix>3d</fix>
</trkpt>
<trkpt lat="-27.2725414" lon="151.3140675">
  <ele>522.94</ele>
  <time>2026-09-01T20:01:26Z</time>
  <course>217.3</course>
  <speed>26.49</speed>
  <fix>3d</fix>
</trkpt>
<trkpt lat="-27.2726177" lon="151.3140029">
  <ele>522.66</ele>
  <time>2026-09-01T20:01:26Z</time>
  <course>216.01</course>
  <speed>26.15881113506499</speed>
  <fix>3d</fix>
</trkpt>
<trkpt lat="-27.2725792" lon="151.3140353">
  <ele>522.74</ele>
  <time>2026-09-01T20:01:26Z</time>
  <course>216.98</course>
  <speed>26.38</speed>
  <fix>3d</fix>
</trkpt>
<trkpt lat="-27.2726366" lon="151.3139874">
  <ele>522.68</ele>
  <time>2026-09-01T20:01:26Z</time>
  <course>215.88</course>
  <speed>25.955301963182784</speed>
  <fix>3d</fix>
</trkpt>
<trkpt lat="-27.2725792" lon="151.3140353">
  <ele>522.74</ele>
  <time>2026-09-01T20:01:26Z</time>
  <course>216.98</course>
  <speed>26.38</speed>
  <fix>3d</fix>
</trkpt>
<trkpt lat="-27.2726554" lon="151.3139722">
  <ele>522.72</ele>
  <time>2026-09-01T20:01:26Z</time>
  <course>215.7</course>
  <speed>25.67453602307158</speed>
  <fix>3d</fix>
</trkpt>
<trkpt lat="-27.2726171" lon="151.3140035">
  <ele>522.68</ele>
  <time>2026-09-01T20:01:26Z</time>
  <course>216.38</course>
  <speed>26.13</speed>
  <fix>3d</fix>
</trkpt>
<trkpt lat="-27.2726742" lon="151.3139573">
  <ele>522.79</ele>
  <time>2026-09-01T20:01:26Z</time>
  <course>215.43</course>
  <speed>25.32671514428983</speed>
  <fix>3d</fix>
</trkpt>
<trkpt lat="-27.2726171" lon="151.3140035">
  <ele>522.68</ele>
  <time>2026-09-01T20:01:26Z</time>
  <course>216.38</course>
  <speed>26.13</speed>
  <fix>3d</fix>
</trkpt>
<trkpt lat="-27.2726928" lon="151.313943">
  <ele>522.9</ele>
  <time>2026-09-01T20:01:26Z</time>
  <course>215.1</course>
  <speed>24.92918971807949</speed>
  <fix>3d</fix>
</trkpt>
<trkpt lat="-27.2726548" lon="151.3139728">
  <ele>522.73</ele>
  <time>2026-09-01T20:01:26Z</time>
  <course>215.4</course>
  <speed>25.65</speed>
  <fix>3d</fix>
</trkpt>
<trkpt lat="-27.2727112" lon="151.313929">
  <ele>523.02</ele>
  <time>2026-09-01T20:01:26Z</time>
  <course>214.74</course>
  <speed>24.5066603191867</speed>
  <fix>3d</fix>
</trkpt>
<trkpt lat="-27.2726548" lon="151.3139728">
  <ele>522.73</ele>
  <time>2026-09-01T20:01:26Z</time>
  <course>215.4</course>
  <speed>25.65</speed>
  <fix>3d</fix>
</trkpt>
<trkpt lat="-27.2727294" lon="151.3139155">
  <ele>523.16</ele>
  <time>2026-09-01T20:01:26Z</time>
  <course>214.36</course>
  <speed>24.1053707708469</speed>
  <fix>3d</fix>
</trkpt>
<trkpt lat="-27.2726921" lon="151.3139436">
  <ele>522.9</ele>
  <time>2026-09-01T20:01:26Z</time>
  <course>214.25</course>
  <speed>24.93</speed>
  <fix>3d</fix>
</trkpt>
<trkpt lat="-27.2727474" lon="151.3139023">
  <ele>523.32</ele>
  <time>2026-09-01T20:01:26Z</time>
  <course>213.96</course>
  <speed>23.705039548585447</speed>
  <fix>3d</fix>
</trkpt>
<trkpt lat="-27.2726921" lon="151.3139436">
  <ele>522.9</ele>
  <time>2026-09-01T20:01:26Z</time>
  <course>214.25</course>
  <speed>24.93</speed>
  <fix>3d</fix>
</trkpt>
<trkpt lat="-27.2727652" lon="151.3138894">
  <ele>523.46</ele>
  <time>2026-09-01T20:01:26Z</time>
  <course>213.59</course>
  <speed>23.33262522735065</speed>
  <fix>3d</fix>
</trkpt>
<trkpt lat="-27.2727287" lon="151.3139161">
  <ele>523.16</ele>
  <time>2026-09-01T20:01:26Z</time>
  <course>213.26</course>
  <speed>24.12</speed>
  <fix>3d</fix>
</trkpt>
<trkpt lat="-27.2727828" lon="151.313877">
  <ele>523.59</ele>
  <time>2026-09-01T20:01:26Z</time>
  <course>213.25</course>
  <speed>22.971488850311815</speed>
  <fix>3d</fix>
</trkpt>
<trkpt lat="-27.2727287" lon="151.3139161">
  <ele>523.16</ele>
  <time>2026-09-01T20:01:26Z</time>
  <course>213.26</course>
  <speed>24.12</speed>
  <fix>3d</fix>
</trkpt>
<trkpt lat="-27.2728001" lon="151.3138646">
  <ele>523.71</ele>
  <time>2026-09-01T20:01:26Z</time>
  <course>212.97</course>
  <speed>22.635211507737232</speed>
  <fix>3d</fix>
</trkpt>
<trkpt lat="-27.2727645" lon="151.31389">
  <ele>523.45</ele>
  <time>2026-09-01T20:01:26Z</time>
  <course>212.57</course>
  <speed>23.35</speed>
  <fix>3d</fix>
</trkpt>
<trkpt lat="-27.2728172" lon="151.3138526">
  <ele>523.79</ele>
  <time>2026-09-01T20:01:26Z</time>
  <course>212.74</course>
  <speed>22.31830190673117</speed>
  <fix>3d</fix>
</trkpt>
<trkpt lat="-27.2727645" lon="151.31389">
  <ele>523.45</ele>
  <time>2026-09-01T20:01:26Z</time>
  <course>212.57</course>
  <speed>23.35</speed>
  <fix>3d</fix>
</trkpt>
<trkpt lat="-27.2728342" lon="151.3138409">
  <ele>523.85</ele>
  <time>2026-09-01T20:01:26Z</time>
  <course>212.54</course>
  <speed>22.02065621183892</speed>
  <fix>3d</fix>
</trkpt>
<trkpt lat="-27.2727995" lon="151.3138651">
  <ele>523.69</ele>
  <time>2026-09-01T20:01:26Z</time>
  <course>212.09</course>
  <speed>22.66</speed>
  <fix>3d</fix>
</trkpt>
<trkpt lat="-27.2728509" lon="151.3138291">
  <ele>523.88</ele>
  <time>2026-09-01T20:01:26Z</time>
  <course>212.37</course>
  <speed>21.742182503143514</speed>
  <fix>3d</fix>
</trkpt>
<trkpt lat="-27.2727995" lon="151.3138651">
  <ele>523.69</ele>
  <time>2026-09-01T20:01:26Z</time>
  <course>212.09</course>
  <speed>22.66</speed>
  <fix>3d</fix>
</trkpt>
<trkpt lat="-27.272868" lon="151.3138175">
  <ele>523.88</ele>
  <time>2026-09-01T20:01:26Z</time>
  <course>212.19</course>
  <speed>21.46905214488986</speed>
  <fix>3d</fix>
</trkpt>
<trkpt lat="-27.2728336" lon="151.3138412">
  <ele>523.83</ele>
  <time>2026-09-01T20:01:26Z</time>
  <course>211.75</course>
  <speed>22.04</speed>
  <fix>3d</fix>
</trkpt>
<trkpt lat="-27.2728843" lon="151.3138061">
  <ele>523.85</ele>
  <time>2026-09-01T20:01:26Z</time>
  <course>212.01</course>
  <speed>21.218293993627288</speed>
  <fix>3d</fix>
</trkpt>
<trkpt lat="-27.2728336" lon="151.3138412">
  <ele>523.83</ele>
  <time>2026-09-01T20:01:26Z</time>
  <course>211.75</course>
  <speed>22.04</speed>
  <fix>3d</fix>
</trkpt>
<trkpt lat="-27.2729005" lon="151.3137951">
  <ele>523.79</ele>
  <time>2026-09-01T20:01:26Z</time>
  <course>211.83</course>
  <speed>20.978012298594926</speed>
  <fix>3d</fix>
</trkpt>
<trkpt lat="-27.2728669" lon="151.3138182">
  <ele>523.86</ele>
  <time>2026-09-01T20:01:26Z</time>
  <course>211.48</course>
  <speed>21.49</speed>
  <fix>3d</fix>
</trkpt>
<trkpt lat="-27.2729165" lon="151.3137841">
  <ele>523.72</ele>
  <time>2026-09-01T20:01:26Z</time>
  <course>211.65</course>
  <speed>20.751505969447134</speed>
  <fix>3d</fix>
</trkpt>
<trkpt lat="-27.2728669" lon="151.3138182">
  <ele>523.86</ele>
  <time>2026-09-01T20:01:26Z</time>
  <course>211.48</course>
  <speed>21.49</speed>
  <fix>3d</fix>
</trkpt>
<trkpt lat="-27.2729324" lon="151.3137734">
  <ele>523.62</ele>
  <time>2026-09-01T20:01:26Z</time>
  <course>211.48</course>
  <speed>20.53876335128286</speed>
  <fix>3d</fix>
</trkpt>
<trkpt lat="-27.2728995" lon="151.3137958">
  <ele>523.78</ele>
  <time>2026-09-01T20:01:26Z</time>
  <course>211.28</course>
  <speed>21.0</speed>
  <fix>3d</fix>
</trkpt>
<trkpt lat="-27.2729481" lon="151.3137626">
  <ele>523.51</ele>
  <time>2026-09-01T20:01:26Z</time>
  <course>211.33</course>
  <speed>20.339773843383806</speed>
  <fix>3d</fix>
</trkpt>
<trkpt lat="-27.2728995" lon="151.3137958">
  <ele>523.78</ele>
  <time>2026-09-01T20:01:26Z</time>
  <course>211.28</course>
  <speed>21.0</speed>
  <fix>3d</fix>
</trkpt>
<trkpt lat="-27.2729633" lon="151.3137524">
  <ele>523.39</ele>
  <time>2026-09-01T20:01:26Z</time>
  <course>211.21</course>
  <speed>20.14937468012345</speed>
  <fix>3d</fix>
</trkpt>
<trkpt lat="-27.2729314" lon="151.3137741">
  <ele>523.62</ele>
  <time>2026-09-01T20:01:26Z</time>
  <course>211.13</course>
  <speed>20.56</speed>
  <fix>3d</fix>
</trkpt>
<trkpt lat="-27.2729788" lon="151.313742">
  <ele>523.26</ele>
  <time>2026-09-01T20:01:26Z</time>
  <course>211.11</course>
  <speed>19.972726403773724</speed>
  <fix>3d</fix>
</trkpt>
<trkpt lat="-27.2729314" lon="151.3137741">
  <ele>523.62</ele>
  <time>2026-09-01T20:01:26Z</time>
  <course>211.13</course>
  <speed>20.56</speed>
  <fix>3d</fix>
</trkpt>
<trkpt lat="-27.2729941" lon="151.3137317">
  <ele>523.12</ele>
  <time>2026-09-01T20:01:26Z</time>
  <course>211.03</course>
  <speed>19.801237335075804</speed>
  <fix>3d</fix>
</trkpt>
<trkpt lat="-27.2729627" lon="151.3137529">
  <ele>523.39</ele>
  <time>2026-09-01T20:01:26Z</time>
  <course>211.01</course>
  <speed>20.17</speed>
  <fix>3d</fix>
</trkpt>
<trkpt lat="-27.2730093" lon="151.3137214">
  <ele>522.97</ele>
  <time>2026-09-01T20:01:26Z</time>
  <course>210.96</course>
  <speed>19.63321675121018</speed>
  <fix>3d</fix>
</trkpt>
<trkpt lat="-27.2729627" lon="151.3137529">
  <ele>523.39</ele>
  <time>2026-09-01T20:01:26Z</time>
  <course>211.01</course>
  <speed>20.17</speed>
  <fix>3d</fix>
</trkpt>
<trkpt lat="-27.2730244" lon="151.3137113">
  <ele>522.81</ele>
  <time>2026-09-01T20:01:26Z</time>
  <course>210.9</course>
  <speed>19.484057585626257</speed>
  <fix>3d</fix>
</trkpt>
<trkpt lat="-27.2729935" lon="151.313732">
  <ele>523.12</ele>
  <time>2026-09-01T20:01:26Z</time>
  <course>210.89</course>
  <speed>19.81</speed>
  <fix>3d</fix>
</trkpt>
<trkpt lat="-27.2730394" lon="151.3137013">
  <ele>522.64</ele>
  <time>2026-09-01T20:01:26Z</time>
  <course>210.84</course>
  <speed>19.329803413382145</speed>
  <fix>3d</fix>
</trkpt>
<trkpt lat="-27.2729935" lon="151.313732">
  <ele>523.12</ele>
  <time>2026-09-01T20:01:26Z</time>
  <course>210.89</course>
  <speed>19.81</speed>
  <fix>3d</fix>
</trkpt>
<trkpt lat="-27.2730542" lon="151.3136913">
  <ele>522.47</ele>
  <time>2026-09-01T20:01:26Z</time>
  <course>210.79</course>
  <speed>19.180677777388368</speed>
  <fix>3d</fix>
</trkpt>
<trkpt lat="-27.2730238" lon="151.3137117">
  <ele>522.81</ele>
  <time>2026-09-01T20:01:26Z</time>
  <course>210.78</course>
  <speed>19.49</speed>
  <fix>3d</fix>
</trkpt>
<trkpt lat="-27.273069" lon="151.3136815">
  <ele>522.29</ele>
  <time>2026-09-01T20:01:26Z</time>
  <course>210.73</course>
  <speed>19.0452645032827</speed>
  <fix>3d</fix>
</trkpt>
<trkpt lat="-27.2730238" lon="151.3137117">
  <ele>522.81</ele>
  <time>2026-09-01T20:01:26Z</time>
  <course>210.78</course>
  <speed>19.49</speed>
  <fix>3d</fix>
</trkpt>
<trkpt lat="-27.2730837" lon="151.3136717">
  <ele>522.12</ele>
  <time>2026-09-01T20:01:26Z</time>
  <course>210.67</course>
  <speed>18.918469811271734</speed>
  <fix>3d</fix>
</trkpt>
<trkpt lat="-27.2730537" lon="151.3136917">
  <ele>522.47</ele>
  <time>2026-09-01T20:01:26Z</time>
  <course>210.67</course>
  <speed>19.2</speed>
  <fix>3d</fix>
</trkpt>
<trkpt lat="-27.2730983" lon="151.313662">
  <ele>521.94</ele>
  <time>2026-09-01T20:01:26Z</time>
  <course>210.62</course>
  <speed>18.783077490123922</speed>
  <fix>3d</fix>
</trkpt>
<trkpt lat="-27.2730537" lon="151.3136917">
  <ele>522.47</ele>
  <time>2026-09-01T20:01:26Z</time>
  <course>210.67</course>
  <speed>19.2</speed>
  <fix>3d</fix>
</trkpt>
<trkpt lat="-27.2731128" lon="151.3136525">
  <ele>521.76</ele>
  <time>2026-09-01T20:01:26Z</time>
  <course>210.57</course>
  <speed>18.656312604585075</speed>
  <fix>3d</fix>
</trkpt>
<trkpt lat="-27.2730831" lon="151.3136721">
  <ele>522.13</ele>
  <time>2026-09-01T20:01:26Z</time>
  <course>210.57</course>
  <speed>18.92</speed>
  <fix>3d</fix>
</trkpt>
<trkpt lat="-27.2731272" lon="151.3136429">
  <ele>521.58</ele>
  <time>2026-09-01T20:01:26Z</time>
  <course>210.52</course>
  <speed>18.5432521419518</speed>
  <fix>3d</fix>
</trkpt>
<trkpt lat="-27.2730831" lon="151.3136721">
  <ele>522.13</ele>
  <time>2026-09-01T20:01:26Z</time>
  <course>210.57</course>
  <speed>18.92</speed>
  <fix>3d</fix>
</trkpt>
<trkpt lat="-27.2731415" lon="151.3136334">
  <ele>521.39</ele>
  <time>2026-09-01T20:01:26Z</time>
  <course>210.48</course>
  <speed>18.421577022611284</speed>
  <fix>3d</fix>
</trkpt>
<trkpt lat="-27.2731123" lon="151.3136528">
  <ele>521.76</ele>
  <time>2026-09-01T20:01:26Z</time>
  <course>210.48</course>
  <speed>18.67</speed>
  <fix>3d</fix>
</trkpt>
<trkpt lat="-27.2731557" lon="151.3136241">
  <ele>521.2</ele>
  <time>2026-09-01T20:01:26Z</time>
  <course>210.43</course>
  <speed>18.3085362604442</speed>
  <fix>3d</fix>
</trkpt>
<trkpt lat="-27.2731123" lon="151.3136528">
  <ele>521.76</ele>
  <time>2026-09-01T20:01:26Z</time>
  <course>210.48</course>
  <speed>18.67</speed>
  <fix>3d</fix>
</trkpt>
<trkpt lat="-27.2731704" lon="151.3136145">
  <ele>521.0</ele>
  <time>2026-09-01T20:01:26Z</time>
  <course>210.39</course>
  <speed>18.200554936594653</speed>
  <fix>3d</fix>
</trkpt>
<trkpt lat="-27.2731411" lon="151.3136337">
  <ele>521.39</ele>
  <time>2026-09-01T20:01:26Z</time>
  <course>210.39</course>
  <speed>18.43</speed>
  <fix>3d</fix>
</trkpt>
<trkpt lat="-27.2731844" lon="151.3136051">
  <ele>520.81</ele>
  <time>2026-09-01T20:01:26Z</time>
  <course>210.36</course>
  <speed>18.101209904313027</speed>
  <fix>3d</fix>
</trkpt>
<trkpt lat="-27.2731411" lon="151.3136337">
  <ele>521.39</ele>
  <time>2026-09-01T20:01:26Z</time>
  <course>210.39</course>
  <speed>18.43</speed>
  <fix>3d</fix>
</trkpt>
<trkpt lat="-27.2731984" lon="151.313596">
  <ele>520.62</ele>
  <time>2026-09-01T20:01:26Z</time>
  <course>210.32</course>
  <speed>17.9881961296846</speed>
  <fix>3d</fix>
</trkpt>
<trkpt lat="-27.2731695" lon="151.313615">
  <ele>521.01</ele>
  <time>2026-09-01T20:01:26Z</time>
  <course>210.32</course>
  <speed>18.21</speed>
  <fix>3d</fix>
</trkpt>
<trkpt lat="-27.2732124" lon="151.3135869">
  <ele>520.41</ele>
  <time>2026-09-01T20:01:26Z</time>
  <course>210.29</course>
  <speed>17.893901195658817</speed>
  <fix>3d</fix>
</trkpt>
<trkpt lat="-27.2731695" lon="151.313615">
  <ele>521.01</ele>
  <time>2026-09-01T20:01:26Z</time>
  <course>210.32</course>
  <speed>18.21</speed>
  <fix>3d</fix>
</trkpt>
<trkpt lat="-27.2732262" lon="151.3135778">
  <ele>520.22</ele>
  <time>2026-09-01T20:01:26Z</time>
  <course>210.25</course>
  <speed>17.794575015998554</speed>
  <fix>3d</fix>
</trkpt>
<trkpt lat="-27.2731975" lon="151.3135965">
  <ele>520.62</ele>
  <time>2026-09-01T20:01:26Z</time>
  <course>210.25</course>
  <speed>18.0</speed>
  <fix>3d</fix>
</trkpt>
<trkpt lat="-27.27324" lon="151.3135687">
  <ele>520.03</ele>
  <time>2026-09-01T20:01:26Z</time>
  <course>210.22</course>
  <speed>17.703903524364335</speed>
  <fix>3d</fix>
</trkpt>
<trkpt lat="-27.2731975" lon="151.3135965">
  <ele>520.62</ele>
  <time>2026-09-01T20:01:26Z</time>
  <course>210.25</course>
  <speed>18.0</speed>
  <fix>3d</fix>
</trkpt>
<trkpt lat="-27.2732537" lon="151.3135598">
  <ele>519.83</ele>
  <time>2026-09-01T20:01:26Z</time>
  <course>210.19</course>
  <speed>17.61826325152397</speed>
  <fix>3d</fix>
</trkpt>
<trkpt lat="-27.2732253" lon="151.3135783">
  <ele>520.23</ele>
  <time>2026-09-01T20:01:26Z</time>
  <course>210.19</course>
  <speed>17.81</speed>
  <fix>3d</fix>
</trkpt>
<trkpt lat="-27.2732674" lon="151.3135509">
  <ele>519.63</ele>
  <time>2026-09-01T20:01:26Z</time>
  <course>210.16</course>
  <speed>17.523975005688634</speed>
  <fix>3d</fix>
</trkpt>
<trkpt lat="-27.2732253" lon="151.3135783">
  <ele>520.23</ele>
  <time>2026-09-01T20:01:26Z</time>
  <course>210.19</course>
  <speed>17.81</speed>
  <fix>3d</fix>
</trkpt>
<trkpt lat="-27.273281" lon="151.3135421">
  <ele>519.43</ele>
  <time>2026-09-01T20:01:26Z</time>
  <course>210.12</course>
  <speed>17.43833994392815</speed>
  <fix>3d</fix>
</trkpt>
<trkpt lat="-27.2732529" lon="151.3135603">
  <ele>519.83</ele>
  <time>2026-09-01T20:01:26Z</time>
  <course>210.12</course>
  <speed>17.62</speed>
  <fix>3d</fix>
</trkpt>
<trkpt lat="-27.2732945" lon="151.3135333">
  <ele>519.23</ele>
  <time>2026-09-01T20:01:26Z</time>
  <course>210.09</course>
  <speed>17.361365153696873</speed>
  <fix>3d</fix>
</trkpt>
<trkpt lat="-27.2732529" lon="151.3135603">
  <ele>519.83</ele>
  <time>2026-09-01T20:01:26Z</time>
  <course>210.12</course>
  <speed>17.62</speed>
  <fix>3d</fix>
</trkpt>
<trkpt lat="-27.2733079" lon="151.3135245">
  <ele>519.03</ele>
  <time>2026-09-01T20:01:26Z</time>
  <course>210.06</course>
  <speed>17.275740215689744</speed>
  <fix>3d</fix>
</trkpt>
<trkpt lat="-27.2732801" lon="151.3135426">
  <ele>519.44</ele>
  <time>2026-09-01T20:01:26Z</time>
  <course>210.06</course>
  <speed>17.45</speed>
  <fix>3d</fix>
</trkpt>
<trkpt lat="-27.2733214" lon="151.3135158">
  <ele>518.83</ele>
  <time>2026-09-01T20:01:26Z</time>
  <course>210.03</course>
  <speed>17.198781933613787</speed>
  <fix>3d</fix>
</trkpt>
<trkpt lat="-27.2732801" lon="151.3135426">
  <ele>519.44</ele>
  <time>2026-09-01T20:01:26Z</time>
  <course>210.06</course>
  <speed>17.45</speed>
  <fix>3d</fix>
</trkpt>
<trkpt lat="-27.2733347" lon="151.313507">
  <ele>518.62</ele>
  <time>2026-09-01T20:01:26Z</time>
  <course>210.0</course>
  <speed>17.11815994784486</speed>
  <fix>3d</fix>
</trkpt>
<trkpt lat="-27.2733071" lon="151.313525">
  <ele>519.04</ele>
  <time>2026-09-01T20:01:26Z</time>
  <course>210.01</course>
  <speed>17.28</speed>
  <fix>3d</fix>
</trkpt>
<trkpt lat="-27.2733477" lon="151.3134987">
  <ele>518.43</ele>
  <time>2026-09-01T20:01:26Z</time>
  <course>209.98</course>
  <speed>17.041211811370694</speed>
  <fix>3d</fix>
</trkpt>
<trkpt lat="-27.2733071" lon="151.313525">
  <ele>519.04</ele>
  <time>2026-09-01T20:01:26Z</time>
  <course>210.01</course>
  <speed>17.28</speed>
  <fix>3d</fix>
</trkpt>
<trkpt lat="-27.2733609" lon="151.3134902">
  <ele>518.22</ele>
  <time>2026-09-01T20:01:26Z</time>
  <course>209.95</course>
  <speed>16.969257497015004</speed>
  <fix>3d</fix>
</trkpt>
<trkpt lat="-27.2733339" lon="151.3135076">
  <ele>518.63</ele>
  <time>2026-09-01T20:01:26Z</time>
  <course>209.95</course>
  <speed>17.13</speed>
  <fix>3d</fix>
</trkpt>
<trkpt lat="-27.2733741" lon="151.3134816">
  <ele>518.02</ele>
  <time>2026-09-01T20:01:26Z</time>
  <course>209.92</course>
  <speed>16.905975275032198</speed>
  <fix>3d</fix>
</trkpt>
<trkpt lat="-27.2733339" lon="151.3135076">
  <ele>518.63</ele>
  <time>2026-09-01T20:01:26Z</time>
  <course>209.95</course>
  <speed>17.13</speed>
  <fix>3d</fix>
</trkpt>
<trkpt lat="-27.2733872" lon="151.3134732">
  <ele>517.82</ele>
  <time>2026-09-01T20:01:26Z</time>
  <course>209.9</course>
  <speed>16.83402506829546</speed>
  <fix>3d</fix>
</trkpt>
<trkpt lat="-27.2733604" lon="151.3134904">
  <ele>518.22</ele>
  <time>2026-09-01T20:01:26Z</time>
  <course>209.9</course>
  <speed>16.98</speed>
  <fix>3d</fix>
</trkpt>
<trkpt lat="-27.2715498" lon="151.3175368">
  <ele>540.97</ele>
  <time>2026-09-01T20:01:26Z</time>
  <course>250.63</course>
  <speed>12.101475116695486</speed>
  <fix>3d</fix>
</trkpt>
<trkpt lat="-27.2733604" lon="151.3134904">
  <ele>518.22</ele>
  <time>2026-09-01T20:01:26Z</time>
  <course>209.9</course>
  <speed>16.98</speed>
  <fix>3d</fix>
</trkpt>
<trkpt lat="-27.2715524" lon="151.3175255">
  <ele>537.12</ele>
  <time>2026-09-01T20:01:26Z</time>
  <course>250.75</course>
  <speed>11.405437299814505</speed>
  <fix>3d</fix>
</trkpt>
<trkpt lat="-27.2724617" lon="151.3155095">
  <ele>529.55</ele>
  <time>2026-09-01T20:01:26Z</time>
  <course>228.13</course>
  <speed>13.5</speed>
  <fix>3d</fix>
</trkpt>
<trkpt lat="-27.2715559" lon="151.317514">
  <ele>533.27</ele>
  <time>2026-09-01T20:01:26Z</time>
  <course>237.9</course>
  <speed>12.702157297089341</speed>
  <fix>3d</fix>
</trkpt>
<trkpt lat="-27.2724617" lon="151.3155095">
  <ele>529.55</ele>
  <time>2026-09-01T20:01:26Z</time>
  <course>228.13</course>
  <speed>13.5</speed>
  <fix>3d</fix>
</trkpt>
<trkpt lat="-27.2715624" lon="151.3175027">
  <ele>529.49</ele>
  <time>2026-09-01T20:01:26Z</time>
  <course>217.88</course>
  <speed>14.17640645579831</speed>
  <fix>3d</fix>
</trkpt>
<trkpt lat="-27.2715527" lon="151.3175257">
  <ele>537.22</ele>
  <time>2026-09-01T20:01:26Z</time>
  <course>249.94</course>
  <speed>12.37</speed>
  <fix>3d</fix>
</trkpt>
<trkpt lat="-27.2715724" lon="151.3174924">
  <ele>525.62</ele>
  <time>2026-09-01T20:01:26Z</time>
  <course>202.61</course>
  <speed>14.718196221004801</speed>
  <fix>3d</fix>
</trkpt>
<trkpt lat="-27.2715527" lon="151.3175257">
  <ele>537.22</ele>
  <time>2026-09-01T20:01:26Z</time>
  <course>249.94</course>
  <speed>12.37</speed>
  <fix>3d</fix>
</trkpt>
<trkpt lat="-27.2715834" lon="151.3174838">
  <ele>521.88</ele>
  <time>2026-09-01T20:01:26Z</time>
  <course>204.43</course>
  <speed>15.490464809036558</speed>
  <fix>3d</fix>
</trkpt>
<trkpt lat="-27.2715638" lon="151.3175036">
  <ele>529.6</ele>
  <time>2026-09-01T20:01:26Z</time>
  <course>230.45</course>
  <speed>13.25</speed>
  <fix>3d</fix>
</trkpt>
<trkpt lat="-27.2715944" lon="151.3174707">
  <ele>518.31</ele>
  <time>2026-09-01T20:01:26Z</time>
  <course>223.43</course>
  <speed>21.573525442078306</speed>
  <fix>3d</fix>
</trkpt>
<trkpt lat="-27.2715638" lon="151.3175036">
  <ele>529.6</ele>
  <time>2026-09-01T20:01:26Z</time>
  <course>230.45</course>
  <speed>13.25</speed>
  <fix>3d</fix>
</trkpt>
<trkpt lat="-27.2716064" lon="151.3174486">
  <ele>515.29</ele>
  <time>2026-09-01T20:01:26Z</time>
  <course>232.97</course>
  <speed>29.35128787634369</speed>
  <fix>3d</fix>
</trkpt>
<trkpt lat="-27.2715827" lon="151.3174823">
  <ele>522.17</ele>
  <time>2026-09-01T20:01:26Z</time>
  <course>226.73</course>
  <speed>17.73</speed>
  <fix>3d</fix>
</trkpt>
<trkpt lat="-27.27162" lon="151.3174197">
  <ele>513.15</ele>
  <time>2026-09-01T20:01:26Z</time>
  <course>237.18</course>
  <speed>34.683258209112935</speed>
  <fix>3d</fix>
</trkpt>
<trkpt lat="-27.2715827" lon="151.3174823">
  <ele>522.17</ele>
  <time>2026-09-01T20:01:26Z</time>
  <course>226.73</course>
  <speed>17.73</speed>
  <fix>3d</fix>
</trkpt>
<trkpt lat="-27.2716354" lon="151.3173876">
  <ele>511.93</ele>
  <time>2026-09-01T20:01:26Z</time>
  <course>236.45</course>
  <speed>37.01589388357385</speed>
  <fix>3d</fix>
</trkpt>
<trkpt lat="-27.2716064" lon="151.3174466">
  <ele>515.87</ele>
  <time>2026-09-01T20:01:26Z</time>
  <course>238.96</course>
  <speed>27.7</speed>
  <fix>3d</fix>
</trkpt>
<trkpt lat="-27.2716525" lon="151.3173555">
  <ele>511.59</ele>
  <time>2026-09-01T20:01:26Z</time>
  <course>232.97</course>
  <speed>37.01548324687927</speed>
  <fix>3d</fix>
</trkpt>
<trkpt lat="-27.2716064" lon="151.3174466">
  <ele>515.87</ele>
  <time>2026-09-01T20:01:26Z</time>
  <course>238.96</course>
  <speed>27.7</speed>
  <fix>3d</fix>
</trkpt>
<trkpt lat="-27.2716712" lon="151.3173253">
  <ele>511.94</ele>
  <time>2026-09-01T20:01:26Z</time>
  <course>228.75</course>
  <speed>35.68654928681113</speed>
  <fix>3d</fix>
</trkpt>
<trkpt lat="-27.2716353" lon="151.3173894">
  <ele>512.41</ele>
  <time>2026-09-01T20:01:26Z</time>
  <course>239.86</course>
  <speed>35.73</speed>
  <fix>3d</fix>
</trkpt>
<trkpt lat="-27.2716911" lon="151.3172981">
  <ele>512.79</ele>
  <time>2026-09-01T20:01:26Z</time>
  <course>225.08</course>
  <speed>33.89126731180172</speed>
  <fix>3d</fix>
</trkpt>
<trkpt lat="-27.2716353" lon="151.3173894">
  <ele>512.41</ele>
  <time>2026-09-01T20:01:26Z</time>
  <course>239.86</course>
  <speed>35.73</speed>
  <fix>3d</fix>
</trkpt>
<trkpt lat="-27.2717117" lon="151.3172741">
  <ele>513.98</ele>
  <time>2026-09-01T20:01:26Z</time>
  <course>222.53</course>
  <speed>32.22794594757786</speed>
  <fix>3d</fix>
</trkpt>
<trkpt lat="-27.2716707" lon="151.3173285">
  <ele>512.15</ele>
  <time>2026-09-01T20:01:26Z</time>
  <course>233.15</course>
  <speed>35.42</speed>
  <fix>3d</fix>
</trkpt>
<trkpt lat="-27.2717326" lon="151.3172526">
  <ele>515.33</ele>
  <time>2026-09-01T20:01:26Z</time>
  <course>221.1</course>
  <speed>30.904705143392004</speed>
  <fix>3d</fix>
</trkpt>
<trkpt lat="-27.2716707" lon="151.3173285">
  <ele>512.15</ele>
  <time>2026-09-01T20:01:26Z</time>
  <course>233.15</course>
  <speed>35.42</speed>
  <fix>3d</fix>
</trkpt>
<trkpt lat="-27.2717535" lon="151.3172329">
  <ele>516.76</ele>
  <time>2026-09-01T20:01:26Z</time>
  <course>220.64</course>
  <speed>29.943027569035166</speed>
  <fix>3d</fix>
</trkpt>
<trkpt lat="-27.2717106" lon="151.3172768">
  <ele>513.99</ele>
  <time>2026-09-01T20:01:26Z</time>
  <course>224.91</course>
  <speed>32.42</speed>
  <fix>3d</fix>
</trkpt>
<trkpt lat="-27.2717743" lon="151.3172143">
  <ele>518.18</ele>
  <time>2026-09-01T20:01:26Z</time>
  <course>220.7</course>
  <speed>29.30795966968701</speed>
  <fix>3d</fix>
</trkpt>
<trkpt lat="-27.2717106" lon="151.3172768">
  <ele>513.99</ele>
  <time>2026-09-01T20:01:26Z</time>
  <course>224.91</course>
  <speed>32.42</speed>
  <fix>3d</fix>
</trkpt>
<trkpt lat="-27.2717948" lon="151.3171961">
  <ele>519.54</ele>
  <time>2026-09-01T20:01:26Z</time>
  <course>220.99</course>
  <speed>28.90113146574023</speed>
  <fix>3d</fix>
</trkpt>
<trkpt lat="-27.2717522" lon="151.3172346">
  <ele>516.67</ele>
  <time>2026-09-01T20:01:26Z</time>
  <course>219.8</course>
  <speed>30.15</speed>
  <fix>3d</fix>
</trkpt>
<trkpt lat="-27.2718151" lon="151.3171781">
  <ele>520.82</ele>
  <time>2026-09-01T20:01:26Z</time>
  <course>221.08</course>
  <speed>28.666401936762135</speed>
  <fix>3d</fix>
</trkpt>
<trkpt lat="-27.2717522" lon="151.3172346">
  <ele>516.67</ele>
  <time>2026-09-01T20:01:26Z</time>
  <course>219.8</course>
  <speed>30.15</speed>
  <fix>3d</fix>
</trkpt>
<trkpt lat="-27.2718353" lon="151.3171602">
  <ele>521.99</ele>
  <time>2026-09-01T20:01:26Z</time>
  <course>220.97</course>
  <speed>28.54555131714923</speed>
  <fix>3d</fix>
</trkpt>
<trkpt lat="-27.2717935" lon="151.3171972">
  <ele>519.42</ele>
  <time>2026-09-01T20:01:26Z</time>
  <course>218.32</course>
  <speed>29.01</speed>
  <fix>3d</fix>
</trkpt>
<trkpt lat="-27.2718553" lon="151.3171422">
  <ele>523.04</ele>
  <time>2026-09-01T20:01:26Z</time>
  <course>220.73</course>
  <speed>28.482991415931018</speed>
  <fix>3d</fix>
</trkpt>
<trkpt lat="-27.2717935" lon="151.3171972">
  <ele>519.42</ele>
  <time>2026-09-01T20:01:26Z</time>
  <course>218.32</course>
  <speed>29.01</speed>
  <fix>3d</fix>
</trkpt>
<trkpt lat="-27.2718752" lon="151.3171242">
  <ele>523.96</ele>
  <time>2026-09-01T20:01:26Z</time>
  <course>220.31</course>
  <speed>28.437941205368578</speed>
  <fix>3d</fix>
</trkpt>
<trkpt lat="-27.271834" lon="151.3171611">
  <ele>521.86</ele>
  <time>2026-09-01T20:01:26Z</time>
  <course>218.48</course>
  <speed>28.59</speed>
  <fix>3d</fix>
</trkpt>
<trkpt lat="-27.271895" lon="151.3171061">
  <ele>524.74</ele>
  <time>2026-09-01T20:01:26Z</time>
  <course>219.79</course>
  <speed>28.375730827592793</speed>
  <fix>3d</fix>
</trkpt>
<trkpt lat="-27.271834" lon="151.3171611">
  <ele>521.86</ele>
  <time>2026-09-01T20:01:26Z</time>
  <course>218.48</course>
  <speed>28.59</speed>
  <fix>3d</fix>
</trkpt>
<trkpt lat="-27.2719148" lon="151.3170881">
  <ele>525.4</ele>
  <time>2026-09-01T20:01:26Z</time>
  <course>219.22</course>
  <speed>28.294695615963075</speed>
  <fix>3d</fix>
</trkpt>
<trkpt lat="-27.271874" lon="151.3171251">
  <ele>523.84</ele>
  <time>2026-09-01T20:01:26Z</time>
  <course>218.86</course>
  <speed>28.44</speed>
  <fix>3d</fix>
</trkpt>
<trkpt lat="-27.271934" lon="151.3170705">
  <ele>525.94</ele>
  <time>2026-09-01T20:01:26Z</time>
  <course>218.74</course>
  <speed>28.201072674634204</speed>
  <fix>3d</fix>
</trkpt>
<trkpt lat="-27.271874" lon="151.3171251">
  <ele>523.84</ele>
  <time>2026-09-01T20:01:26Z</time>
  <course>218.86</course>
  <speed>28.44</speed>
  <fix>3d</fix>
</trkpt>
<trkpt lat="-27.2719543" lon="151.317052">
  <ele>526.4</ele>
  <time>2026-09-01T20:01:26Z</time>
  <course>218.31</course>
  <speed>28.07931979233115</speed>
  <fix>3d</fix>
</trkpt>
<trkpt lat="-27.2719137" lon="151.317089">
  <ele>525.32</ele>
  <time>2026-09-01T20:01:26Z</time>
  <course>219.04</course>
  <speed>28.29</speed>
  <fix>3d</fix>
</trkpt>
<trkpt lat="-27.2719738" lon="151.3170341">
  <ele>526.75</ele>
  <time>2026-09-01T20:01:26Z</time>
  <course>218.11</course>
  <speed>27.948370256599937</speed>
  <fix>3d</fix>
</trkpt>
<trkpt lat="-27.2719137" lon="151.317089">
  <ele>525.32</ele>
  <time>2026-09-01T20:01:26Z</time>
  <course>219.04</course>
  <speed>28.29</speed>
  <fix>3d</fix>
</trkpt>
<trkpt lat="-27.2719932" lon="151.3170163">
  <ele>527.01</ele>
  <time>2026-09-01T20:01:26Z</time>
  <course>217.96</course>
  <speed>27.82095073860705</speed>
  <fix>3d</fix>
</trkpt>
<trkpt lat="-27.271953" lon="151.3170531">
  <ele>526.32</ele>
  <time>2026-09-01T20:01:26Z</time>
  <course>219.12</course>
  <speed>28.08</speed>
  <fix>3d</fix>
</trkpt>
<trkpt lat="-27.2720124" lon="151.3169984">
  <ele>527.2</ele>
  <time>2026-09-01T20:01:26Z</time>
  <course>217.9</course>
  <speed>27.69095520201497</speed>
  <fix>3d</fix>
</trkpt>
<trkpt lat="-27.271953" lon="151.3170531">
  <ele>526.32</ele>
  <time>2026-09-01T20:01:26Z</time>
  <course>219.12</course>
  <speed>28.08</speed>
  <fix>3d</fix>
</trkpt>
<trkpt lat="-27.2720316" lon="151.3169806">
  <ele>527.34</ele>
  <time>2026-09-01T20:01:27Z</time>
  <course>217.96</course>
  <speed>27.57405483420964</speed>
  <fix>3d</fix>
</trkpt>
<trkpt lat="-27.2719919" lon="151.3170173">
  <ele>526.95</ele>
  <time>2026-09-01T20:01:27Z</time>
  <course>219.31</course>
  <speed>27.83</speed>
  <fix>3d</fix>
</trkpt>
<trkpt lat="-27.2720505" lon="151.3169629">
  <ele>527.41</ele>
  <time>2026-09-01T20:01:27Z</time>
  <course>218.17</course>
  <speed>27.461545841412498</speed>
  <fix>3d</fix>
</trkpt>
<trkpt lat="-27.2719919" lon="151.3170173">
  <ele>526.95</ele>
  <time>2026-09-01T20:01:27Z</time>
  <course>219.31</course>
  <speed>27.83</speed>
  <fix>3d</fix>
</trkpt>
<trkpt lat="-27.2720693" lon="151.316945">
  <ele>527.44</ele>
  <time>2026-09-01T20:01:27Z</time>
  <course>218.48</course>
  <speed>27.354008846967936</speed>
  <fix>3d</fix>
</trkpt>
<trkpt lat="-27.2720303" lon="151.3169816">
  <ele>527.3</ele>
  <time>2026-09-01T20:01:27Z</time>
  <course>219.73</course>
  <speed>27.58</speed>
  <fix>3d</fix>
</trkpt>
<trkpt lat="-27.272088" lon="151.316927">
  <ele>527.43</ele>
  <time>2026-09-01T20:01:27Z</time>
  <course>218.87</course>
  <speed>27.267302763566477</speed>
  <fix>3d</fix>
</trkpt>
<trkpt lat="-27.2720303" lon="151.3169816">
  <ele>527.3</ele>
  <time>2026-09-01T20:01:27Z</time>
  <course>219.73</course>
  <speed>27.58</speed>
  <fix>3d</fix>
</trkpt>
<trkpt lat="-27.2721064" lon="151.3169089">
  <ele>527.39</ele>
  <time>2026-09-01T20:01:27Z</time>
  <course>219.31</course>
  <speed>27.18693987928763</speed>
  <fix>3d</fix>
</trkpt>
<trkpt lat="-27.2720681" lon="151.3169459">
  <ele>527.42</ele>
  <time>2026-09-01T20:01:27Z</time>
  <course>220.41</course>
  <speed>27.37</speed>
  <fix>3d</fix>
</trkpt>
<trkpt lat="-27.2721246" lon="151.3168906">
  <ele>527.32</ele>
  <time>2026-09-01T20:01:27Z</time>
  <course>219.82</course>
  <speed>27.114654709215824</speed>
  <fix>3d</fix>
</trkpt>
<trkpt lat="-27.2720681" lon="151.3169459">
  <ele>527.42</ele>
  <time>2026-09-01T20:01:27Z</time>
  <course>220.41</course>
  <speed>27.37</speed>
  <fix>3d</fix>
</trkpt>
<trkpt lat="-27.2721426" lon="151.3168724">
  <ele>527.22</ele>
  <time>2026-09-01T20:01:27Z</time>
  <course>220.36</course>
  <speed>27.04434321628092</speed>
  <fix>3d</fix>
</trkpt>
<trkpt lat="-27.2721052" lon="151.3169099">
  <ele>527.38</ele>
  <time>2026-09-01T20:01:27Z</time>
  <course>221.34</course>
  <speed>27.19</speed>
  <fix>3d</fix>
</trkpt>
<trkpt lat="-27.2721604" lon="151.3168538">
  <ele>527.1</ele>
  <time>2026-09-01T20:01:27Z</time>
  <course>220.95</course>
  <speed>26.990600215630625</speed>
  <fix>3d</fix>
</trkpt>
<trkpt lat="-27.2721052" lon="151.3169099">
  <ele>527.38</ele>
  <time>2026-09-01T20:01:27Z</time>
  <course>221.34</course>
  <speed>27.19</speed>
  <fix>3d</fix>
</trkpt>
<trkpt lat="-27.272178" lon="151.3168351">
  <ele>526.97</ele>
  <time>2026-09-01T20:01:27Z</time>
  <course>221.57</course>
  <speed>26.93978656188649</speed>
  <fix>3d</fix>
</trkpt>
<trkpt lat="-27.2721414" lon="151.3168733">
  <ele>527.21</ele>
  <time>2026-09-01T20:01:27Z</time>
  <course>222.47</course>
  <speed>27.06</speed>
  <fix>3d</fix>
</trkpt>
<trkpt lat="-27.2721954" lon="151.316816">
  <ele>526.81</ele>
  <time>2026-09-01T20:01:27Z</time>
  <course>222.22</course>
  <speed>26.89254357624061</speed>
  <fix>3d</fix>
</trkpt>
<trkpt lat="-27.2721414" lon="151.3168733">
  <ele>527.21</ele>
  <time>2026-09-01T20:01:27Z</time>
  <course>222.47</course>
  <speed>27.06</speed>
  <fix>3d</fix>
</trkpt>
<trkpt lat="-27.2722125" lon="151.3167969">
  <ele>526.65</ele>
  <time>2026-09-01T20:01:27Z</time>
  <course>222.81</course>
  <speed>26.841833022355235</speed>
  <fix>3d</fix>
</trkpt>
<trkpt lat="-27.2721769" lon="151.316836">
  <ele>526.96</ele>
  <time>2026-09-01T20:01:27Z</time>
  <course>223.75</course>
  <speed>26.94</speed>
  <fix>3d</fix>
</trkpt>
<trkpt lat="-27.2722294" lon="151.3167777">
  <ele>526.47</ele>
  <time>2026-09-01T20:01:27Z</time>
  <course>223.37</course>
  <speed>26.801679051880313</speed>
  <fix>3d</fix>
</trkpt>
<trkpt lat="-27.2721769" lon="151.316836">
  <ele>526.96</ele>
  <time>2026-09-01T20:01:27Z</time>
  <course>223.75</course>
  <speed>26.94</speed>
  <fix>3d</fix>
</trkpt>
<trkpt lat="-27.2722461" lon="151.3167581">
  <ele>526.29</ele>
  <time>2026-09-01T20:01:27Z</time>
  <course>223.86</course>
  <speed>26.757251353605067</speed>
  <fix>3d</fix>
</trkpt>
<trkpt lat="-27.2722114" lon="151.316798">
  <ele>526.65</ele>
  <time>2026-09-01T20:01:27Z</time>
  <course>225.06</course>
  <speed>26.85</speed>
  <fix>3d</fix>
</trkpt>
<trkpt lat="-27.2722626" lon="151.3167385">
  <ele>526.1</ele>
  <time>2026-09-01T20:01:27Z</time>
  <course>224.34</course>
  <speed>26.721581165791818</speed>
  <fix>3d</fix>
</trkpt>
<trkpt lat="-27.2722114" lon="151.316798">
  <ele>526.65</ele>
  <time>2026-09-01T20:01:27Z</time>
  <course>225.06</course>
  <speed>26.85</speed>
  <fix>3d</fix>
</trkpt>
<trkpt lat="-27.2722789" lon="151.3167188">
  <ele>525.9</ele>
  <time>2026-09-01T20:01:27Z</time>
  <course>224.76</course>
  <speed>26.679583954777105</speed>
  <fix>3d</fix>
</trkpt>
<trkpt lat="-27.2722451" lon="151.3167591">
  <ele>526.29</ele>
  <time>2026-09-01T20:01:27Z</time>
  <course>226.28</course>
  <speed>26.76</speed>
  <fix>3d</fix>
</trkpt>
<trkpt lat="-27.2722951" lon="151.3166989">
  <ele>525.7</ele>
  <time>2026-09-01T20:01:27Z</time>
  <course>225.26</course>
  <speed>26.630452493339277</speed>
  <fix>3d</fix>
</trkpt>
<trkpt lat="-27.2722451" lon="151.3167591">
  <ele>526.29</ele>
  <time>2026-09-01T20:01:27Z</time>
  <course>226.28</course>
  <speed>26.76</speed>
  <fix>3d</fix>
</trkpt>
<trkpt lat="-27.2723111" lon="151.316679">
  <ele>525.5</ele>
  <time>2026-09-01T20:01:27Z</time>
  <course>225.74</course>
  <speed>26.595067211797005</speed>
  <fix>3d</fix>
</trkpt>
<trkpt lat="-27.272278" lon="151.3167197">
  <ele>525.91</ele>
  <time>2026-09-01T20:01:27Z</time>
  <course>227.25</course>
  <speed>26.68</speed>
  <fix>3d</fix>
</trkpt>
<trkpt lat="-27.2723271" lon="151.3166589">
  <ele>525.29</ele>
  <time>2026-09-01T20:01:27Z</time>
  <course>226.16</course>
  <speed>26.566303845284914</speed>
  <fix>3d</fix>
</trkpt>
<trkpt lat="-27.272278" lon="151.3167197">
  <ele>525.91</ele>
  <time>2026-09-01T20:01:27Z</time>
  <course>227.25</course>
  <speed>26.68</speed>
  <fix>3d</fix>
</trkpt>
<trkpt lat="-27.2723429" lon="151.3166389">
  <ele>525.07</ele>
  <time>2026-09-01T20:01:27Z</time>
  <course>226.53</course>
  <speed>26.522266117358825</speed>
  <fix>3d</fix>
</trkpt>
<trkpt lat="-27.2723103" lon="151.3166799">
  <ele>525.5</ele>
  <time>2026-09-01T20:01:27Z</time>
  <course>227.94</course>
  <speed>26.6</speed>
  <fix>3d</fix>
</trkpt>
<trkpt lat="-27.2723587" lon="151.3166188">
  <ele>524.85</ele>
  <time>2026-09-01T20:01:27Z</time>
  <course>226.86</course>
  <speed>26.49839240406859</speed>
  <fix>3d</fix>
</trkpt>
<trkpt lat="-27.2723103" lon="151.3166799">
  <ele>525.5</ele>
  <time>2026-09-01T20:01:27Z</time>
  <course>227.94</course>
  <speed>26.6</speed>
  <fix>3d</fix>
</trkpt>
<trkpt lat="-27.2723744" lon="151.3165987">
  <ele>524.63</ele>
  <time>2026-09-01T20:01:27Z</time>
  <course>227.16</course>
  <speed>26.467196678152373</speed>
  <fix>3d</fix>
</trkpt>
<trkpt lat="-27.2723421" lon="151.3166399">
  <ele>525.08</ele>
  <time>2026-09-01T20:01:27Z</time>
  <course>228.42</course>
  <speed>26.53</speed>
  <fix>3d</fix>
</trkpt>
<trkpt lat="-27.27239" lon="151.3165786">
  <ele>524.41</ele>
  <time>2026-09-01T20:01:27Z</time>
  <course>227.45</course>
  <speed>26.448368569724675</speed>
  <fix>3d</fix>
</trkpt>
<trkpt lat="-27.2723421" lon="151.3166399">
  <ele>525.08</ele>
  <time>2026-09-01T20:01:27Z</time>
  <course>228.42</course>
  <speed>26.53</speed>
  <fix>3d</fix>
</trkpt>
<trkpt lat="-27.2724056" lon="151.3165585">
  <ele>524.19</ele>
  <time>2026-09-01T20:01:27Z</time>
  <course>227.62</course>
  <speed>26.40041098164951</speed>
  <fix>3d</fix>
</trkpt>
<trkpt lat="-27.2723736" lon="151.3165998">
  <ele>524.64</ele>
  <time>2026-09-01T20:01:27Z</time>
  <course>228.71</course>
  <speed>26.47</speed>
  <fix>3d</fix>
</trkpt>
<trkpt lat="-27.2724214" lon="151.3165383">
  <ele>523.95</ele>
  <time>2026-09-01T20:01:27Z</time>
  <course>227.82</course>
  <speed>26.320429327805428</speed>
  <fix>3d</fix>
</trkpt>
<trkpt lat="-27.2723736" lon="151.3165998">
  <ele>524.64</ele>
  <time>2026-09-01T20:01:27Z</time>
  <course>228.71</course>
  <speed>26.47</speed>
  <fix>3d</fix>
</trkpt>
<trkpt lat="-27.2724369" lon="151.3165184">
  <ele>523.69</ele>
  <time>2026-09-01T20:01:27Z</time>
  <course>228.05</course>
  <speed>26.18879531402695</speed>
  <fix>3d</fix>
</trkpt>
<trkpt lat="-27.2724049" lon="151.3165596">
  <ele>524.19</ele>
  <time>2026-09-01T20:01:27Z</time>
  <course>228.83</course>
  <speed>26.39</speed>
  <fix>3d</fix>
</trkpt>
<trkpt lat="-27.2724524" lon="151.3164986">
  <ele>523.41</ele>
  <time>2026-09-01T20:01:27Z</time>
  <course>228.25</course>
  <speed>26.02648650893931</speed>
  <fix>3d</fix>
</trkpt>
<trkpt lat="-27.2724049" lon="151.3165596">
  <ele>524.19</ele>
  <time>2026-09-01T20:01:27Z</time>
  <course>228.83</course>
  <speed>26.39</speed>
  <fix>3d</fix>
</trkpt>
<trkpt lat="-27.2724679" lon="151.3164789">
  <ele>523.16</ele>
  <time>2026-09-01T20:01:27Z</time>
  <course>228.37</course>
  <speed>25.81398264507048</speed>
  <fix>3d</fix>
</trkpt>
<trkpt lat="-27.272436" lon="151.3165196">
  <ele>523.7</ele>
  <time>2026-09-01T20:01:27Z</time>
  <course>228.65</course>
  <speed>26.18</speed>
  <fix>3d</fix>
</trkpt>
<trkpt lat="-27.2724833" lon="151.3164597">
  <ele>522.93</ele>
  <time>2026-09-01T20:01:27Z</time>
  <course>228.33</course>
  <speed>25.551557682458423</speed>
  <fix>3d</fix>
</trkpt>
<trkpt lat="-27.272436" lon="151.3165196">
  <ele>523.7</ele>
  <time>2026-09-01T20:01:27Z</time>
  <course>228.65</course>
  <speed>26.18</speed>
  <fix>3d</fix>
</trkpt>
<trkpt lat="-27.2724987" lon="151.3164406">
  <ele>522.72</ele>
  <time>2026-09-01T20:01:27Z</time>
  <course>228.16</course>
  <speed>25.283180179716318</speed>
  <fix>3d</fix>
</trkpt>
<trkpt lat="-27.2724669" lon="151.3164802">
  <ele>523.19</ele>
  <time>2026-09-01T20:01:27Z</time>
  <course>228.18</course>
  <speed>25.8</speed>
  <fix>3d</fix>
</trkpt>
<trkpt lat="-27.272514" lon="151.316422">
  <ele>522.54</ele>
  <time>2026-09-01T20:01:27Z</time>
  <course>227.89</course>
  <speed>25.001969922388117</speed>
  <fix>3d</fix>
</trkpt>
<trkpt lat="-27.2724669" lon="151.3164802">
  <ele>523.19</ele>
  <time>2026-09-01T20:01:27Z</time>
  <course>228.18</course>
  <speed>25.8</speed>
  <fix>3d</fix>
</trkpt>
<trkpt lat="-27.2725291" lon="151.3164036">
  <ele>522.41</ele>
  <time>2026-09-01T20:01:27Z</time>
  <course>227.58</course>
  <speed>24.707731583453793</speed>
  <fix>3d</fix>
</trkpt>
<trkpt lat="-27.2724977" lon="151.3164419">
  <ele>522.75</ele>
  <time>2026-09-01T20:01:27Z</time>
  <course>227.6</course>
  <speed>25.29</speed>
  <fix>3d</fix>
</trkpt>
<trkpt lat="-27.2725442" lon="151.3163855">
  <ele>522.32</ele>
  <time>2026-09-01T20:01:27Z</time>
  <course>227.29</course>
  <speed>24.40713420293337</speed>
  <fix>3d</fix>
</trkpt>
<trkpt lat="-27.2724977" lon="151.3164419">
  <ele>522.75</ele>
  <time>2026-09-01T20:01:27Z</time>
  <course>227.6</course>
  <speed>25.29</speed>
  <fix>3d</fix>
</trkpt>
<trkpt lat="-27.2725592" lon="151.3163676">
  <ele>522.25</ele>
  <time>2026-09-01T20:01:27Z</time>
  <course>227.04</course>
  <speed>24.0863550584143</speed>
  <fix>3d</fix>
</trkpt>
<trkpt lat="-27.2725281" lon="151.3164047">
  <ele>522.44</ele>
  <time>2026-09-01T20:01:27Z</time>
  <course>227.05</course>
  <speed>24.72</speed>
  <fix>3d</fix>
</trkpt>
<trkpt lat="-27.2725739" lon="151.3163501">
  <ele>522.2</ele>
  <time>2026-09-01T20:01:27Z</time>
  <course>226.84</course>
  <speed>23.773457888998813</speed>
  <fix>3d</fix>
</trkpt>
<trkpt lat="-27.2725281" lon="151.3164047">
  <ele>522.44</ele>
  <time>2026-09-01T20:01:27Z</time>
  <course>227.05</course>
  <speed>24.72</speed>
  <fix>3d</fix>
</trkpt>
<trkpt lat="-27.2725886" lon="151.3163328">
  <ele>522.16</ele>
  <time>2026-09-01T20:01:27Z</time>
  <course>226.68</course>
  <speed>23.467956877410526</speed>
  <fix>3d</fix>
</trkpt>
<trkpt lat="-27.2725582" lon="151.3163688">
  <ele>522.26</ele>
  <time>2026-09-01T20:01:27Z</time>
  <course>226.62</course>
  <speed>24.11</speed>
  <fix>3d</fix>
</trkpt>
<trkpt lat="-27.2726031" lon="151.3163157">
  <ele>522.13</ele>
  <time>2026-09-01T20:01:27Z</time>
  <course>226.54</course>
  <speed>23.169807940507404</speed>
  <fix>3d</fix>
</trkpt>
<trkpt lat="-27.2725582" lon="151.3163688">
  <ele>522.26</ele>
  <time>2026-09-01T20:01:27Z</time>
  <course>226.62</course>
  <speed>24.11</speed>
  <fix>3d</fix>
</trkpt>
<trkpt lat="-27.2726174" lon="151.3162989">
  <ele>522.1</ele>
  <time>2026-09-01T20:01:27Z</time>
  <course>226.42</course>
  <speed>22.872035327010146</speed>
  <fix>3d</fix>
</trkpt>
<trkpt lat="-27.2725877" lon="151.3163338">
  <ele>522.17</ele>
  <time>2026-09-01T20:01:27Z</time>
  <course>226.32</course>
  <speed>23.49</speed>
  <fix>3d</fix>
</trkpt>
<trkpt lat="-27.2726316" lon="151.3162825">
  <ele>522.07</ele>
  <time>2026-09-01T20:01:27Z</time>
  <course>226.3</course>
  <speed>22.588461656341273</speed>
  <fix>3d</fix>
</trkpt>
<trkpt lat="-27.2725877" lon="151.3163338">
  <ele>522.17</ele>
  <time>2026-09-01T20:01:27Z</time>
  <course>226.32</course>
  <speed>23.49</speed>
  <fix>3d</fix>
</trkpt>
<trkpt lat="-27.2726456" lon="151.3162662">
  <ele>522.03</ele>
  <time>2026-09-01T20:01:27Z</time>
  <course>226.2</course>
  <speed>22.30517877085947</speed>
  <fix>3d</fix>
</trkpt>
<trkpt lat="-27.2726166" lon="151.3162999">
  <ele>522.1</ele>
  <time>2026-09-01T20:01:27Z</time>
  <course>226.1</course>
  <speed>22.89</speed>
  <fix>3d</fix>
</trkpt>
<trkpt lat="-27.2726594" lon="151.3162501">
  <ele>521.98</ele>
  <time>2026-09-01T20:01:27Z</time>
  <course>226.1</course>
  <speed>22.043023839754838</speed>
  <fix>3d</fix>
</trkpt>
<trkpt lat="-27.2726166" lon="151.3162999">
  <ele>522.1</ele>
  <time>2026-09-01T20:01:27Z</time>
  <course>226.1</course>
  <speed>22.89</speed>
  <fix>3d</fix>
</trkpt>
<trkpt lat="-27.2726731" lon="151.3162342">
  <ele>521.93</ele>
  <time>2026-09-01T20:01:27Z</time>
  <course>226.01</course>
  <speed>21.781111082770778</speed>
  <fix>3d</fix>
</trkpt>
<trkpt lat="-27.2726448" lon="151.3162671">
  <ele>522.03</ele>
  <time>2026-09-01T20:01:27Z</time>
  <course>225.93</course>
  <speed>22.33</speed>
  <fix>3d</fix>
</trkpt>
<trkpt lat="-27.2726867" lon="151.3162185">
  <ele>521.87</ele>
  <time>2026-09-01T20:01:27Z</time>
  <course>225.93</course>
  <speed>21.52618870120765</speed>
  <fix>3d</fix>
</trkpt>
<trkpt lat="-27.2726448" lon="151.3162671">
  <ele>522.03</ele>
  <time>2026-09-01T20:01:27Z</time>
  <course>225.93</course>
  <speed>22.33</speed>
  <fix>3d</fix>
</trkpt>
<trkpt lat="-27.2727001" lon="151.3162031">
  <ele>521.81</ele>
  <time>2026-09-01T20:01:27Z</time>
  <course>225.85</course>
  <speed>21.292592608698452</speed>
  <fix>3d</fix>
</trkpt>
<trkpt lat="-27.2726723" lon="151.3162351">
  <ele>521.93</ele>
  <time>2026-09-01T20:01:27Z</time>
  <course>225.81</course>
  <speed>21.8</speed>
  <fix>3d</fix>
</trkpt>
<trkpt lat="-27.2727134" lon="151.3161877">
  <ele>521.73</ele>
  <time>2026-09-01T20:01:27Z</time>
  <course>225.79</course>
  <speed>21.059012322518832</speed>
  <fix>3d</fix>
</trkpt>
<trkpt lat="-27.2726723" lon="151.3162351">
  <ele>521.93</ele>
  <time>2026-09-01T20:01:27Z</time>
  <course>225.81</course>
  <speed>21.8</speed>
  <fix>3d</fix>
</trkpt>
<trkpt lat="-27.2727266" lon="151.3161725">
  <ele>521.65</ele>
  <time>2026-09-01T20:01:27Z</time>
  <course>225.73</course>
  <speed>20.832594653571118</speed>
  <fix>3d</fix>
</trkpt>
<trkpt lat="-27.2726994" lon="151.3162039">
  <ele>521.81</ele>
  <time>2026-09-01T20:01:27Z</time>
  <course>225.71</course>
  <speed>21.31</speed>
  <fix>3d</fix>
</trkpt>
<trkpt lat="-27.2727396" lon="151.3161576">
  <ele>521.56</ele>
  <time>2026-09-01T20:01:27Z</time>
  <course>225.69</course>
  <speed>20.62032492469505</speed>
  <fix>3d</fix>
</trkpt>
<trkpt lat="-27.2726994" lon="151.3162039">
  <ele>521.81</ele>
  <time>2026-09-01T20:01:27Z</time>
  <course>225.71</course>
  <speed>21.31</speed>
  <fix>3d</fix>
</trkpt>
<trkpt lat="-27.2727525" lon="151.3161428">
  <ele>521.45</ele>
  <time>2026-09-01T20:01:27Z</time>
  <course>225.64</course>
  <speed>20.42220360294158</speed>
  <fix>3d</fix>
</trkpt>
<trkpt lat="-27.2727258" lon="151.3161734">
  <ele>521.65</ele>
  <time>2026-09-01T20:01:27Z</time>
  <course>225.62</course>
  <speed>20.85</speed>
  <fix>3d</fix>
</trkpt>
<trkpt lat="-27.2727653" lon="151.3161281">
  <ele>521.33</ele>
  <time>2026-09-01T20:01:27Z</time>
  <course>225.6</course>
  <speed>20.224089596320525</speed>
  <fix>3d</fix>
</trkpt>
<trkpt lat="-27.2727258" lon="151.3161734">
  <ele>521.65</ele>
  <time>2026-09-01T20:01:27Z</time>
  <course>225.62</course>
  <speed>20.85</speed>
  <fix>3d</fix>
</trkpt>
<trkpt lat="-27.272778" lon="151.3161137">
  <ele>521.21</ele>
  <time>2026-09-01T20:01:27Z</time>
  <course>225.57</course>
  <speed>20.040124750110714</speed>
  <fix>3d</fix>
</trkpt>
<trkpt lat="-27.2727517" lon="151.3161436">
  <ele>521.45</ele>
  <time>2026-09-01T20:01:27Z</time>
  <course>225.55</course>
  <speed>20.43</speed>
  <fix>3d</fix>
</trkpt>
<trkpt lat="-27.2727905" lon="151.3160993">
  <ele>521.07</ele>
  <time>2026-09-01T20:01:27Z</time>
  <course>225.53</course>
  <speed>19.863184538235554</speed>
  <fix>3d</fix>
</trkpt>
<trkpt lat="-27.2727517" lon="151.3161436">
  <ele>521.45</ele>
  <time>2026-09-01T20:01:27Z</time>
  <course>225.55</course>
  <speed>20.43</speed>
  <fix>3d</fix>
</trkpt>
<trkpt lat="-27.272803" lon="151.316085">
  <ele>520.93</ele>
  <time>2026-09-01T20:01:27Z</time>
  <course>225.49</course>
  <speed>19.69348369385163</speed>
  <fix>3d</fix>
</trkpt>
<trkpt lat="-27.2727772" lon="151.3161144">
  <ele>521.21</ele>
  <time>2026-09-01T20:01:27Z</time>
  <course>225.48</course>
  <speed>20.05</speed>
  <fix>3d</fix>
</trkpt>
<trkpt lat="-27.2728155" lon="151.3160708">
  <ele>520.77</ele>
  <time>2026-09-01T20:01:27Z</time>
  <course>225.46</course>
  <speed>19.530704032369137</speed>
  <fix>3d</fix>
</trkpt>
<trkpt lat="-27.2727772" lon="151.3161144">
  <ele>521.21</ele>
  <time>2026-09-01T20:01:27Z</time>
  <course>225.48</course>
  <speed>20.05</speed>
  <fix>3d</fix>
</trkpt>
<trkpt lat="-27.2728276" lon="151.3160567">
  <ele>520.62</ele>
  <time>2026-09-01T20:01:27Z</time>
  <course>225.42</course>
  <speed>19.375056128950956</speed>
  <fix>3d</fix>
</trkpt>
<trkpt lat="-27.2728023" lon="151.3160858">
  <ele>520.93</ele>
  <time>2026-09-01T20:01:27Z</time>
  <course>225.41</course>
  <speed>19.71</speed>
  <fix>3d</fix>
</trkpt>
<trkpt lat="-27.2728399" lon="151.3160429">
  <ele>520.45</ele>
  <time>2026-09-01T20:01:27Z</time>
  <course>225.39</course>
  <speed>19.226525947242784</speed>
  <fix>3d</fix>
</trkpt>
<trkpt lat="-27.2728023" lon="151.3160858">
  <ele>520.93</ele>
  <time>2026-09-01T20:01:27Z</time>
  <course>225.41</course>
  <speed>19.71</speed>
  <fix>3d</fix>
</trkpt>
<trkpt lat="-27.272852" lon="151.3160292">
  <ele>520.28</ele>
  <time>2026-09-01T20:01:27Z</time>
  <course>225.36</course>
  <speed>19.085033403166996</speed>
  <fix>3d</fix>
</trkpt>
<trkpt lat="-27.2728269" lon="151.3160577">
  <ele>520.62</ele>
  <time>2026-09-01T20:01:27Z</time>
  <course>225.35</course>
  <speed>19.39</speed>
  <fix>3d</fix>
</trkpt>
<trkpt lat="-27.272864" lon="151.3160155">
  <ele>520.11</ele>
  <time>2026-09-01T20:01:27Z</time>
  <course>225.33</course>
  <speed>18.9506517038333</speed>
  <fix>3d</fix>
</trkpt>
<trkpt lat="-27.2728269" lon="151.3160577">
  <ele>520.62</ele>
  <time>2026-09-01T20:01:27Z</time>
  <course>225.35</course>
  <speed>19.39</speed>
  <fix>3d</fix>
</trkpt>
<trkpt lat="-27.272876" lon="151.316002">
  <ele>519.94</ele>
  <time>2026-09-01T20:01:27Z</time>
  <course>225.3</course>
  <speed>18.816272213166986</speed>
  <fix>3d</fix>
</trkpt>
<trkpt lat="-27.2728513" lon="151.31603">
  <ele>520.29</ele>
  <time>2026-09-01T20:01:27Z</time>
  <course>225.29</course>
  <speed>19.1</speed>
  <fix>3d</fix>
</trkpt>
<trkpt lat="-27.2728879" lon="151.3159886">
  <ele>519.76</ele>
  <time>2026-09-01T20:01:27Z</time>
  <course>225.27</course>
  <speed>18.688940579925873</speed>
  <fix>3d</fix>
</trkpt>
<trkpt lat="-27.2728513" lon="151.31603">
  <ele>520.29</ele>
  <time>2026-09-01T20:01:27Z</time>
  <course>225.29</course>
  <speed>19.1</speed>
  <fix>3d</fix>
</trkpt>
<trkpt lat="-27.2728996" lon="151.3159752">
  <ele>519.58</ele>
  <time>2026-09-01T20:01:27Z</time>
  <course>225.24</course>
  <speed>18.568710240617143</speed>
  <fix>3d</fix>
</trkpt>
<trkpt lat="-27.2728753" lon="151.3160027">
  <ele>519.94</ele>
  <time>2026-09-01T20:01:27Z</time>
  <course>225.23</course>
  <speed>18.83</speed>
  <fix>3d</fix>
</trkpt>
<trkpt lat="-27.2729114" lon="151.3159619">
  <ele>519.39</ele>
  <time>2026-09-01T20:01:27Z</time>
  <course>225.21</course>
  <speed>18.44848232240257</speed>
  <fix>3d</fix>
</trkpt>
<trkpt lat="-27.2728753" lon="151.3160027">
  <ele>519.94</ele>
  <time>2026-09-01T20:01:27Z</time>
  <course>225.23</course>
  <speed>18.83</speed>
  <fix>3d</fix>
</trkpt>
<trkpt lat="-27.272923" lon="151.3159488">
  <ele>519.21</ele>
  <time>2026-09-01T20:01:27Z</time>
  <course>225.18</course>
  <speed>18.328256872927113</speed>
  <fix>3d</fix>
</trkpt>
<trkpt lat="-27.272899" lon="151.3159759">
  <ele>519.58</ele>
  <time>2026-09-01T20:01:27Z</time>
  <course>225.18</course>
  <speed>18.58</speed>
  <fix>3d</fix>
</trkpt>
<trkpt lat="-27.2729346" lon="151.3159356">
  <ele>519.02</ele>
  <time>2026-09-01T20:01:27Z</time>
  <course>225.16</course>
  <speed>18.222176050077007</speed>
  <fix>3d</fix>
</trkpt>
<trkpt lat="-27.272899" lon="151.3159759">
  <ele>519.58</ele>
  <time>2026-09-01T20:01:27Z</time>
  <course>225.18</course>
  <speed>18.58</speed>
  <fix>3d</fix>
</trkpt>
<trkpt lat="-27.2729461" lon="151.3159226">
  <ele>518.83</ele>
  <time>2026-09-01T20:01:27Z</time>
  <course>225.13</course>
  <speed>18.116097813822932</speed>
  <fix>3d</fix>
</trkpt>
<trkpt lat="-27.2729224" lon="151.3159494">
  <ele>519.21</ele>
  <time>2026-09-01T20:01:27Z</time>
  <course>225.13</course>
  <speed>18.34</speed>
  <fix>3d</fix>
</trkpt>
<trkpt lat="-27.2729576" lon="151.3159097">
  <ele>518.64</ele>
  <time>2026-09-01T20:01:27Z</time>
  <course>225.11</course>
  <speed>18.010022209869703</speed>
  <fix>3d</fix>
</trkpt>
<trkpt lat="-27.2729224" lon="151.3159494">
  <ele>519.21</ele>
  <time>2026-09-01T20:01:27Z</time>
  <course>225.13</course>
  <speed>18.34</speed>
  <fix>3d</fix>
</trkpt>
<trkpt lat="-27.272969" lon="151.3158968">
  <ele>518.44</ele>
  <time>2026-09-01T20:01:27Z</time>
  <course>225.08</course>
  <speed>17.91101616324434</speed>
  <fix>3d</fix>
</trkpt>
<trkpt lat="-27.2729455" lon="151.3159233">
  <ele>518.84</ele>
  <time>2026-09-01T20:01:27Z</time>
  <course>225.08</course>
  <speed>18.13</speed>
  <fix>3d</fix>
</trkpt>
<trkpt lat="-27.2729803" lon="151.3158841">
  <ele>518.25</ele>
  <time>2026-09-01T20:01:27Z</time>
  <course>225.06</course>
  <speed>17.812021221635685</speed>
  <fix>3d</fix>
</trkpt>
<trkpt lat="-27.2729455" lon="151.3159233">
  <ele>518.84</ele>
  <time>2026-09-01T20:01:27Z</time>
  <course>225.08</course>
  <speed>18.13</speed>
  <fix>3d</fix>
</trkpt>
<trkpt lat="-27.2729916" lon="151.3158714">
  <ele>518.06</ele>
  <time>2026-09-01T20:01:27Z</time>
  <course>225.04</course>
  <speed>17.720095936534882</speed>
  <fix>3d</fix>
</trkpt>
<trkpt lat="-27.2729683" lon="151.3158976">
  <ele>518.45</ele>
  <time>2026-09-01T20:01:27Z</time>
  <course>225.03</course>
  <speed>17.92</speed>
  <fix>3d</fix>
</trkpt>
<trkpt lat="-27.2730028" lon="151.3158588">
  <ele>517.86</ele>
  <time>2026-09-01T20:01:27Z</time>
  <course>225.01</course>
  <speed>17.628173473165052</speed>
  <fix>3d</fix>
</trkpt>
<trkpt lat="-27.2729683" lon="151.3158976">
  <ele>518.45</ele>
  <time>2026-09-01T20:01:27Z</time>
  <course>225.03</course>
  <speed>17.92</speed>
  <fix>3d</fix>
</trkpt>
<trkpt lat="-27.273014" lon="151.3158461">
  <ele>517.66</ele>
  <time>2026-09-01T20:01:27Z</time>
  <course>224.99</course>
  <speed>17.536253875899494</speed>
  <fix>3d</fix>
</trkpt>
<trkpt lat="-27.272991" lon="151.315872">
  <ele>518.06</ele>
  <time>2026-09-01T20:01:27Z</time>
  <course>224.99</course>
  <speed>17.73</speed>
  <fix>3d</fix>
</trkpt>
<trkpt lat="-27.2730251" lon="151.3158338">
  <ele>517.46</ele>
  <time>2026-09-01T20:01:27Z</time>
  <course>224.97</course>
  <speed>17.44433719004537</speed>
  <fix>3d</fix>
</trkpt>
<trkpt lat="-27.272991" lon="151.315872">
  <ele>518.06</ele>
  <time>2026-09-01T20:01:27Z</time>
  <course>224.99</course>
  <speed>17.73</speed>
  <fix>3d</fix>
</trkpt>
<trkpt lat="-27.2712055" lon="151.3198971">
  <ele>540.62</ele>
  <time>2026-09-01T20:01:27Z</time>
  <course>250.49</course>
  <speed>11.927283848387276</speed>
  <fix>3d</fix>
</trkpt>
<trkpt lat="-27.2730134" lon="151.3158469">
  <ele>517.66</ele>
  <time>2026-09-01T20:01:27Z</time>
  <course>224.95</course>
  <speed>17.54</speed>
  <fix>3d</fix>
</trkpt>
<trkpt lat="-27.2712082" lon="151.3198857">
  <ele>536.79</ele>
  <time>2026-09-01T20:01:27Z</time>
  <course>249.28</course>
  <speed>11.663627223124031</speed>
  <fix>3d</fix>
</trkpt>
<trkpt lat="-27.2730134" lon="151.3158469">
  <ele>517.66</ele>
  <time>2026-09-01T20:01:27Z</time>
  <course>224.95</course>
  <speed>17.54</speed>
  <fix>3d</fix>
</trkpt>
<trkpt lat="-27.2712122" lon="151.3198741">
  <ele>532.97</ele>
  <time>2026-09-01T20:01:27Z</time>
  <course>235.67</course>
  <speed>13.130198018308787</speed>
  <fix>3d</fix>
</trkpt>
<trkpt lat="-27.2721163" lon="151.3178603">
  <ele>527.22</ele>
  <time>2026-09-01T20:01:27Z</time>
  <course>236.44</course>
  <speed>14.09</speed>
  <fix>3d</fix>
</trkpt>
<trkpt lat="-27.2712193" lon="151.3198626">
  <ele>529.21</ele>
  <time>2026-09-01T20:01:27Z</time>
  <course>215.97</course>
  <speed>14.531789291068048</speed>
  <fix>3d</fix>
</trkpt>
<trkpt lat="-27.2721163" lon="151.3178603">
  <ele>527.22</ele>
  <time>2026-09-01T20:01:27Z</time>
  <course>236.44</course>
  <speed>14.09</speed>
  <fix>3d</fix>
</trkpt>
<trkpt lat="-27.2712293" lon="151.3198528">
  <ele>525.48</ele>
  <time>2026-09-01T20:01:27Z</time>
  <course>202.12</course>
  <speed>14.994832443211894</speed>
  <fix>3d</fix>
</trkpt>
<trkpt lat="-27.2712134" lon="151.3198746">
  <ele>533.19</ele>
  <time>2026-09-01T20:01:27Z</time>
  <course>239.7</course>
  <speed>12.73</speed>
  <fix>3d</fix>
</trkpt>
<trkpt lat="-27.2712404" lon="151.3198438">
  <ele>521.76</ele>
  <time>2026-09-01T20:01:27Z</time>
  <course>207.35</course>
  <speed>16.00056561500249</speed>
  <fix>3d</fix>
</trkpt>
<trkpt lat="-27.2712134" lon="151.3198746">
  <ele>533.19</ele>
  <time>2026-09-01T20:01:27Z</time>
  <course>239.7</course>
  <speed>12.73</speed>
  <fix>3d</fix>
</trkpt>
<trkpt lat="-27.2712516" lon="151.3198295">
  <ele>518.23</ele>
  <time>2026-09-01T20:01:27Z</time>
  <course>225.01</course>
  <speed>22.49531506780912</speed>
  <fix>3d</fix>
</trkpt>
<trkpt lat="-27.2712293" lon="151.3198536">
  <ele>525.65</ele>
  <time>2026-09-01T20:01:27Z</time>
  <course>223.2</course>
  <speed>15.12</speed>
  <fix>3d</fix>
</trkpt>
<trkpt lat="-27.2712636" lon="151.3198066">
  <ele>515.31</ele>
  <time>2026-09-01T20:01:27Z</time>
  <course>233.32</course>
  <speed>30.1470860946792</speed>
  <fix>3d</fix>
</trkpt>
<trkpt lat="-27.2712293" lon="151.3198536">
  <ele>525.65</ele>
  <time>2026-09-01T20:01:27Z</time>
  <course>223.2</course>
  <speed>15.12</speed>
  <fix>3d</fix>
</trkpt>
<trkpt lat="-27.2712778" lon="151.319777">
  <ele>513.27</ele>
  <time>2026-09-01T20:01:27Z</time>
  <course>235.51</course>
  <speed>35.16955643735076</speed>
  <fix>3d</fix>
</trkpt>
<trkpt lat="-27.2712515" lon="151.3198259">
  <ele>518.66</ele>
  <time>2026-09-01T20:01:27Z</time>
  <course>233.29</course>
  <speed>22.47</speed>
  <fix>3d</fix>
</trkpt>
<trkpt lat="-27.2712944" lon="151.3197454">
  <ele>512.2</ele>
  <time>2026-09-01T20:01:27Z</time>
  <course>231.75</course>
  <speed>37.06233263031349</speed>
  <fix>3d</fix>
</trkpt>
<trkpt lat="-27.2712515" lon="151.3198259">
  <ele>518.66</ele>
  <time>2026-09-01T20:01:27Z</time>
  <course>233.29</course>
  <speed>22.47</speed>
  <fix>3d</fix>
</trkpt>
<trkpt lat="-27.2713139" lon="151.3197151">
  <ele>511.96</ele>
  <time>2026-09-01T20:01:27Z</time>
  <course>225.01</course>
  <speed>36.77083762983922</speed>
  <fix>3d</fix>
</trkpt>
<trkpt lat="-27.2712783" lon="151.3197773">
  <ele>513.82</ele>
  <time>2026-09-01T20:01:27Z</time>
  <course>239.14</course>
  <speed>33.44</speed>
  <fix>3d</fix>
</trkpt>
<trkpt lat="-27.271336" lon="151.3196884">
  <ele>512.33</ele>
  <time>2026-09-01T20:01:27Z</time>
  <course>217.85</course>
  <speed>35.46740052498914</speed>
  <fix>3d</fix>
</trkpt>
<trkpt lat="-27.2712783" lon="151.3197773">
  <ele>513.82</ele>
  <time>2026-09-01T20:01:27Z</time>
  <course>239.14</course>
  <speed>33.44</speed>
  <fix>3d</fix>
</trkpt>
<trkpt lat="-27.2713602" lon="151.3196663">
  <ele>513.1</ele>
  <time>2026-09-01T20:01:27Z</time>
  <course>211.46</course>
  <speed>33.95896347063614</speed>
  <fix>3d</fix>
</trkpt>
<trkpt lat="-27.2713141" lon="151.3197183">
  <ele>512.27</ele>
  <time>2026-09-01T20:01:27Z</time>
  <course>230.66</course>
  <speed>36.01</speed>
  <fix>3d</fix>
</trkpt>
<trkpt lat="-27.2713856" lon="151.3196486">
  <ele>514.11</ele>
  <time>2026-09-01T20:01:27Z</time>
  <course>206.37</course>
  <speed>32.6160466641805</speed>
  <fix>3d</fix>
</trkpt>
<trkpt lat="-27.2713141" lon="151.3197183">
  <ele>512.27</ele>
  <time>2026-09-01T20:01:27Z</time>
  <course>230.66</course>
  <speed>36.01</speed>
  <fix>3d</fix>
</trkpt>
<trkpt lat="-27.2714116" lon="151.3196348">
  <ele>515.26</ele>
  <time>2026-09-01T20:01:27Z</time>
  <course>202.83</course>
  <speed>31.47869914720111</speed>
  <fix>3d</fix>
</trkpt>
<trkpt lat="-27.2713595" lon="151.3196695">
  <ele>513.18</ele>
  <time>2026-09-01T20:01:27Z</time>
  <course>216.33</course>
  <speed>33.82</speed>
  <fix>3d</fix>
</trkpt>
<trkpt lat="-27.2714376" lon="151.3196237">
  <ele>516.47</ele>
  <time>2026-09-01T20:01:27Z</time>
  <course>200.86</course>
  <speed>30.575025756326028</speed>
  <fix>3d</fix>
</trkpt>
<trkpt lat="-27.2713595" lon="151.3196695">
  <ele>513.18</ele>
  <time>2026-09-01T20:01:27Z</time>
  <course>216.33</course>
  <speed>33.82</speed>
  <fix>3d</fix>
</trkpt>
<trkpt lat="-27.2714634" lon="151.3196142">
  <ele>517.71</ele>
  <time>2026-09-01T20:01:27Z</time>
  <course>200.14</course>
  <speed>29.85655371940975</speed>
  <fix>3d</fix>
</trkpt>
<trkpt lat="-27.2714103" lon="151.3196368">
  <ele>515.23</ele>
  <time>2026-09-01T20:01:27Z</time>
  <course>204.06</course>
  <speed>31.54</speed>
  <fix>3d</fix>
</trkpt>
<trkpt lat="-27.2714889" lon="151.3196059">
  <ele>518.94</ele>
  <time>2026-09-01T20:01:27Z</time>
  <course>200.14</course>
  <speed>29.315526602808962</speed>
  <fix>3d</fix>
</trkpt>
<trkpt lat="-27.2714103" lon="151.3196368">
  <ele>515.23</ele>
  <time>2026-09-01T20:01:27Z</time>
  <course>204.06</course>
  <speed>31.54</speed>
  <fix>3d</fix>
</trkpt>
<trkpt lat="-27.2715141" lon="151.3195979">
  <ele>520.13</ele>
  <time>2026-09-01T20:01:27Z</time>
  <course>200.29</course>
  <speed>28.93129101854945</speed>
  <fix>3d</fix>
</trkpt>
<trkpt lat="-27.2714619" lon="151.3196152">
  <ele>517.64</ele>
  <time>2026-09-01T20:01:27Z</time>
  <course>197.61</course>
  <speed>29.96</speed>
  <fix>3d</fix>
</trkpt>
<trkpt lat="-27.271539" lon="151.3195901">
  <ele>521.25</ele>
  <time>2026-09-01T20:01:27Z</time>
  <course>200.22</course>
  <speed>28.698797884232018</speed>
  <fix>3d</fix>
</trkpt>
<trkpt lat="-27.2714619" lon="151.3196152">
  <ele>517.64</ele>
  <time>2026-09-01T20:01:27Z</time>
  <course>197.61</course>
  <speed>29.96</speed>
  <fix>3d</fix>
</trkpt>
<trkpt lat="-27.2715637" lon="151.3195821">
  <ele>522.27</ele>
  <time>2026-09-01T20:01:27Z</time>
  <course>199.76</course>
  <speed>28.558841012898267</speed>
  <fix>3d</fix>
</trkpt>
<trkpt lat="-27.2715126" lon="151.3195984">
  <ele>520.04</ele>
  <time>2026-09-01T20:01:27Z</time>
  <course>195.86</course>
  <speed>29.02</speed>
  <fix>3d</fix>
</trkpt>
<trkpt lat="-27.2715882" lon="151.319574">
  <ele>523.18</ele>
  <time>2026-09-01T20:01:27Z</time>
  <course>199.09</course>
  <speed>28.47454477248056</speed>
  <fix>3d</fix>
</trkpt>
<trkpt lat="-27.2715126" lon="151.3195984">
  <ele>520.04</ele>
  <time>2026-09-01T20:01:27Z</time>
  <course>195.86</course>
  <speed>29.02</speed>
  <fix>3d</fix>
</trkpt>
<trkpt lat="-27.2716127" lon="151.3195658">
  <ele>523.97</ele>
  <time>2026-09-01T20:01:27Z</time>
  <course>198.19</course>
  <speed>28.40147355332114</speed>
  <fix>3d</fix>
</trkpt>
<trkpt lat="-27.2715623" lon="151.3195824">
  <ele>522.16</ele>
  <time>2026-09-01T20:01:27Z</time>
  <course>196.13</course>
  <speed>28.59</speed>
  <fix>3d</fix>
</trkpt>
<trkpt lat="-27.2716371" lon="151.3195576">
  <ele>524.64</ele>
  <time>2026-09-01T20:01:27Z</time>
  <course>197.31</course>
  <speed>28.317212080287845</speed>
  <fix>3d</fix>
</trkpt>
<trkpt lat="-27.2715623" lon="151.3195824">
  <ele>522.16</ele>
  <time>2026-09-01T20:01:27Z</time>
  <course>196.13</course>
  <speed>28.59</speed>
  <fix>3d</fix>
</trkpt>
<trkpt lat="-27.2716614" lon="151.3195493">
  <ele>525.21</ele>
  <time>2026-09-01T20:01:27Z</time>
  <course>196.55</course>
  <speed>28.224390161702345</speed>
  <fix>3d</fix>
</trkpt>
<trkpt lat="-27.2716114" lon="151.3195662">
  <ele>523.87</ele>
  <time>2026-09-01T20:01:27Z</time>
  <course>196.61</course>
  <speed>28.4</speed>
  <fix>3d</fix>
</trkpt>
<trkpt lat="-27.2716856" lon="151.3195409">
  <ele>525.66</ele>
  <time>2026-09-01T20:01:27Z</time>
  <course>195.99</course>
  <speed>28.115408586751855</speed>
  <fix>3d</fix>
</trkpt>
<trkpt lat="-27.2716114" lon="151.3195662">
  <ele>523.87</ele>
  <time>2026-09-01T20:01:27Z</time>
  <course>196.61</course>
  <speed>28.4</speed>
  <fix>3d</fix>
</trkpt>
<trkpt lat="-27.2717097" lon="151.3195327">
  <ele>526.04</ele>
  <time>2026-09-01T20:01:27Z</time>
  <course>195.64</course>
  <speed>27.99625153480373</speed>
  <fix>3d</fix>
</trkpt>
<trkpt lat="-27.2716601" lon="151.3195496">
  <ele>525.13</ele>
  <time>2026-09-01T20:01:27Z</time>
  <course>196.88</course>
  <speed>28.22</speed>
  <fix>3d</fix>
</trkpt>
<trkpt lat="-27.2717337" lon="151.3195242">
  <ele>526.33</ele>
  <time>2026-09-01T20:01:27Z</time>
  <course>195.48</course>
  <speed>27.87024578291336</speed>
  <fix>3d</fix>
</trkpt>
<trkpt lat="-27.2716601" lon="151.3195496">
  <ele>525.13</ele>
  <time>2026-09-01T20:01:27Z</time>
  <course>196.88</course>
  <speed>28.22</speed>
  <fix>3d</fix>
</trkpt>
<trkpt lat="-27.2717575" lon="151.3195158">
  <ele>526.56</ele>
  <time>2026-09-01T20:01:27Z</time>
  <course>195.54</course>
  <speed>27.763193260142106</speed>
  <fix>3d</fix>
</trkpt>
<trkpt lat="-27.2717085" lon="151.3195329">
  <ele>525.98</ele>
  <time>2026-09-01T20:01:27Z</time>
  <course>197.2</course>
  <speed>28.0</speed>
  <fix>3d</fix>
</trkpt>
<trkpt lat="-27.2717811" lon="151.319507">
  <ele>526.72</ele>
  <time>2026-09-01T20:01:27Z</time>
  <course>195.84</course>
  <speed>27.65415881924453</speed>
  <fix>3d</fix>
</trkpt>
<trkpt lat="-27.2717085" lon="151.3195329">
  <ele>525.98</ele>
  <time>2026-09-01T20:01:27Z</time>
  <course>197.2</course>
  <speed>28.0</speed>
  <fix>3d</fix>
</trkpt>
<trkpt lat="-27.2718046" lon="151.3194982">
  <ele>526.83</ele>
  <time>2026-09-01T20:01:27Z</time>
  <course>196.35</course>
  <speed>27.560560589363927</speed>
  <fix>3d</fix>
</trkpt>
<trkpt lat="-27.2717564" lon="151.319516">
  <ele>526.51</ele>
  <time>2026-09-01T20:01:27Z</time>
  <course>197.87</course>
  <speed>27.77</speed>
  <fix>3d</fix>
</trkpt>
<trkpt lat="-27.2718279" lon="151.3194888">
  <ele>526.89</ele>
  <time>2026-09-01T20:01:27Z</time>
  <course>197.03</course>
  <speed>27.468647582289158</speed>
  <fix>3d</fix>
</trkpt>
<trkpt lat="-27.2717564" lon="151.319516">
  <ele>526.51</ele>
  <time>2026-09-01T20:01:27Z</time>
  <course>197.87</course>
  <speed>27.77</speed>
  <fix>3d</fix>
</trkpt>
<trkpt lat="-27.2718511" lon="151.3194794">
  <ele>526.91</ele>
  <time>2026-09-01T20:01:27Z</time>
  <course>197.89</course>
  <speed>27.393535733818663</speed>
  <fix>3d</fix>
</trkpt>
<trkpt lat="-27.2718036" lon="151.3194983">
  <ele>526.8</ele>
  <time>2026-09-01T20:01:27Z</time>
  <course>199.02</course>
  <speed>27.57</speed>
  <fix>3d</fix>
</trkpt>
<trkpt lat="-27.271874" lon="151.3194694">
  <ele>526.89</ele>
  <time>2026-09-01T20:01:27Z</time>
  <course>198.89</course>
  <speed>27.334410547879024</speed>
  <fix>3d</fix>
</trkpt>
<trkpt lat="-27.2718036" lon="151.3194983">
  <ele>526.8</ele>
  <time>2026-09-01T20:01:27Z</time>
  <course>199.02</course>
  <speed>27.57</speed>
  <fix>3d</fix>
</trkpt>
<trkpt lat="-27.2718967" lon="151.3194589">
  <ele>526.85</ele>
  <time>2026-09-01T20:01:27Z</time>
  <course>200.03</course>
  <speed>27.27555682291381</speed>
  <fix>3d</fix>
</trkpt>
<trkpt lat="-27.27185" lon="151.3194795">
  <ele>526.89</ele>
  <time>2026-09-01T20:01:27Z</time>
  <course>200.69</course>
  <speed>27.4</speed>
  <fix>3d</fix>
</trkpt>
<trkpt lat="-27.2719191" lon="151.319448">
  <ele>526.78</ele>
  <time>2026-09-01T20:01:27Z</time>
  <course>201.29</course>
  <speed>27.2255321343771</speed>
  <fix>3d</fix>
</trkpt>
<trkpt lat="-27.27185" lon="151.3194795">
  <ele>526.89</ele>
  <time>2026-09-01T20:01:27Z</time>
  <course>200.69</course>
  <speed>27.4</speed>
  <fix>3d</fix>
</trkpt>
<trkpt lat="-27.2719415" lon="151.3194364">
  <ele>526.69</ele>
  <time>2026-09-01T20:01:27Z</time>
  <course>202.64</course>
  <speed>27.187298505000452</speed>
  <fix>3d</fix>
</trkpt>
<trkpt lat="-27.2718956" lon="151.3194591">
  <ele>526.84</ele>
  <time>2026-09-01T20:01:27Z</time>
  <course>202.83</course>
  <speed>27.28</speed>
  <fix>3d</fix>
</trkpt>
<trkpt lat="-27.2719634" lon="151.3194242">
  <ele>526.57</ele>
  <time>2026-09-01T20:01:27Z</time>
  <course>204.01</course>
  <speed>27.155021635049383</speed>
  <fix>3d</fix>
</trkpt>
<trkpt lat="-27.2718956" lon="151.3194591">
  <ele>526.84</ele>
  <time>2026-09-01T20:01:27Z</time>
  <course>202.83</course>
  <speed>27.28</speed>
  <fix>3d</fix>
</trkpt>
<trkpt lat="-27.271985" lon="151.3194116">
  <ele>526.44</ele>
  <time>2026-09-01T20:01:27Z</time>
  <course>205.32</course>
  <speed>27.121253658339615</speed>
  <fix>3d</fix>
</trkpt>
<trkpt lat="-27.2719402" lon="151.3194366">
  <ele>526.68</ele>
  <time>2026-09-01T20:01:27Z</time>
  <course>205.36</course>
  <speed>27.19</speed>
  <fix>3d</fix>
</trkpt>
<trkpt lat="-27.2720064" lon="151.3193983">
  <ele>526.29</ele>
  <time>2026-09-01T20:01:27Z</time>
  <course>206.48</course>
  <speed>27.09424293092538</speed>
  <fix>3d</fix>
</trkpt>
<trkpt lat="-27.2719402" lon="151.3194366">
  <ele>526.68</ele>
  <time>2026-09-01T20:01:27Z</time>
  <course>205.36</course>
  <speed>27.19</speed>
  <fix>3d</fix>
</trkpt>
<trkpt lat="-27.2720274" lon="151.3193846">
  <ele>526.15</ele>
  <time>2026-09-01T20:01:27Z</time>
  <course>207.47</course>
  <speed>27.074521233070772</speed>
  <fix>3d</fix>
</trkpt>
<trkpt lat="-27.2719838" lon="151.3194119">
  <ele>526.44</ele>
  <time>2026-09-01T20:01:27Z</time>
  <course>208.12</course>
  <speed>27.12</speed>
  <fix>3d</fix>
</trkpt>
<trkpt lat="-27.2720481" lon="151.3193703">
  <ele>525.99</ele>
  <time>2026-09-01T20:01:27Z</time>
  <course>208.29</course>
  <speed>27.037375982147378</speed>
  <fix>3d</fix>
</trkpt>
<trkpt lat="-27.2719838" lon="151.3194119">
  <ele>526.44</ele>
  <time>2026-09-01T20:01:27Z</time>
  <course>208.12</course>
  <speed>27.12</speed>
  <fix>3d</fix>
</trkpt>
<trkpt lat="-27.2720686" lon="151.3193557">
  <ele>525.83</ele>
  <time>2026-09-01T20:01:27Z</time>
  <course>209.01</course>
  <speed>27.00551795466993</speed>
  <fix>3d</fix>
</trkpt>
<trkpt lat="-27.2720262" lon="151.319385">
  <ele>526.15</ele>
  <time>2026-09-01T20:01:27Z</time>
  <course>210.72</course>
  <speed>27.07</speed>
  <fix>3d</fix>
</trkpt>
<trkpt lat="-27.2720889" lon="151.3193407">
  <ele>525.66</ele>
  <time>2026-09-01T20:01:27Z</time>
  <course>209.78</course>
  <speed>26.955684001709173</speed>
  <fix>3d</fix>
</trkpt>
<trkpt lat="-27.2720262" lon="151.319385">
  <ele>526.15</ele>
  <time>2026-09-01T20:01:27Z</time>
  <course>210.72</course>
  <speed>27.07</speed>
  <fix>3d</fix>
</trkpt>
<trkpt lat="-27.2721089" lon="151.3193255">
  <ele>525.48</ele>
  <time>2026-09-01T20:01:27Z</time>
  <course>210.53</course>
  <speed>26.91513514734786</speed>
  <fix>3d</fix>
</trkpt>
<trkpt lat="-27.2720674" lon="151.3193562">
  <ele>525.83</ele>
  <time>2026-09-01T20:01:27Z</time>
  <course>212.74</course>
  <speed>27.0</speed>
  <fix>3d</fix>
</trkpt>
<trkpt lat="-27.2721288" lon="151.3193102">
  <ele>525.29</ele>
  <time>2026-09-01T20:01:27Z</time>
  <course>211.23</course>
  <speed>26.865446208838595</speed>
  <fix>3d</fix>
</trkpt>
<trkpt lat="-27.2720674" lon="151.3193562">
  <ele>525.83</ele>
  <time>2026-09-01T20:01:27Z</time>
  <course>212.74</course>
  <speed>27.0</speed>
  <fix>3d</fix>
</trkpt>
<trkpt lat="-27.2721486" lon="151.3192946">
  <ele>525.11</ele>
  <time>2026-09-01T20:01:27Z</time>
  <course>211.87</course>
  <speed>26.819220719476544</speed>
  <fix>3d</fix>
</trkpt>
<trkpt lat="-27.2721078" lon="151.3193262">
  <ele>525.49</ele>
  <time>2026-09-01T20:01:27Z</time>
  <course>214.12</course>
  <speed>26.92</speed>
  <fix>3d</fix>
</trkpt>
<trkpt lat="-27.2721683" lon="151.319279">
  <ele>524.91</ele>
  <time>2026-09-01T20:01:27Z</time>
  <course>212.53</course>
  <speed>26.778890940440384</speed>
  <fix>3d</fix>
</trkpt>
<trkpt lat="-27.2721078" lon="151.3193262">
  <ele>525.49</ele>
  <time>2026-09-01T20:01:27Z</time>
  <course>214.12</course>
  <speed>26.92</speed>
  <fix>3d</fix>
</trkpt>
<trkpt lat="-27.2721878" lon="151.3192633">
  <ele>524.7</ele>
  <time>2026-09-01T20:01:27Z</time>
  <course>213.05</course>
  <speed>26.738161866515807</speed>
  <fix>3d</fix>
</trkpt>
<trkpt lat="-27.2721476" lon="151.3192953">
  <ele>525.11</ele>
  <time>2026-09-01T20:01:27Z</time>
  <course>215.02</course>
  <speed>26.83</speed>
  <fix>3d</fix>
</trkpt>
<trkpt lat="-27.2722073" lon="151.3192475">
  <ele>524.48</ele>
  <time>2026-09-01T20:01:27Z</time>
  <course>213.51</course>
  <speed>26.694315874357972</speed>
  <fix>3d</fix>
</trkpt>
<trkpt lat="-27.2721476" lon="151.3192953">
  <ele>525.11</ele>
  <time>2026-09-01T20:01:27Z</time>
  <course>215.02</course>
  <speed>26.83</speed>
  <fix>3d</fix>
</trkpt>
<trkpt lat="-27.2722267" lon="151.3192317">
  <ele>524.26</ele>
  <time>2026-09-01T20:01:27Z</time>
  <course>213.94</course>
  <speed>26.66109150053688</speed>
  <fix>3d</fix>
</trkpt>
<trkpt lat="-27.272187" lon="151.3192639">
  <ele>524.69</ele>
  <time>2026-09-01T20:01:27Z</time>
  <course>215.6</course>
  <speed>26.74</speed>
  <fix>3d</fix>
</trkpt>
<trkpt lat="-27.2722461" lon="151.3192159">
  <ele>524.03</ele>
  <time>2026-09-01T20:01:27Z</time>
  <course>214.28</course>
  <speed>26.6383257732163</speed>
  <fix>3d</fix>
</trkpt>
<trkpt lat="-27.272187" lon="151.3192639">
  <ele>524.69</ele>
  <time>2026-09-01T20:01:27Z</time>
  <course>215.6</course>
  <speed>26.74</speed>
  <fix>3d</fix>
</trkpt>
<trkpt lat="-27.2722654" lon="151.3192">
  <ele>523.81</ele>
  <time>2026-09-01T20:01:27Z</time>
  <course>214.57</course>
  <speed>26.603853104390723</speed>
  <fix>3d</fix>
</trkpt>
<trkpt lat="-27.2722259" lon="151.3192323">
  <ele>524.26</ele>
  <time>2026-09-01T20:01:27Z</time>
  <course>215.96</course>
  <speed>26.67</speed>
  <fix>3d</fix>
</trkpt>
<trkpt lat="-27.2722847" lon="151.3191841">
  <ele>523.6</ele>
  <time>2026-09-01T20:01:27Z</time>
  <course>214.84</course>
  <speed>26.579648229425462</speed>
  <fix>3d</fix>
</trkpt>
<trkpt lat="-27.2722259" lon="151.3192323">
  <ele>524.26</ele>
  <time>2026-09-01T20:01:27Z</time>
  <course>215.96</course>
  <speed>26.67</speed>
  <fix>3d</fix>
</trkpt>
<trkpt lat="-27.2723039" lon="151.3191682">
  <ele>523.41</ele>
  <time>2026-09-01T20:01:27Z</time>
  <course>215.0</course>
  <speed>26.557605313732637</speed>
  <fix>3d</fix>
</trkpt>
<trkpt lat="-27.2722645" lon="151.3192006">
  <ele>523.82</ele>
  <time>2026-09-01T20:01:27Z</time>
  <course>216.16</course>
  <speed>26.61</speed>
  <fix>3d</fix>
</trkpt>
<trkpt lat="-27.2723231" lon="151.3191524">
  <ele>523.23</ele>
  <time>2026-09-01T20:01:27Z</time>
  <course>215.1</course>
  <speed>26.523742194494353</speed>
  <fix>3d</fix>
</trkpt>
<trkpt lat="-27.2722645" lon="151.3192006">
  <ele>523.82</ele>
  <time>2026-09-01T20:01:27Z</time>
  <course>216.16</course>
  <speed>26.61</speed>
  <fix>3d</fix>
</trkpt>
<trkpt lat="-27.2723424" lon="151.3191366">
  <ele>523.08</ele>
  <time>2026-09-01T20:01:27Z</time>
  <course>215.18</course>
  <speed>26.500130188359453</speed>
  <fix>3d</fix>
</trkpt>
<trkpt lat="-27.272303" lon="151.3191689">
  <ele>523.42</ele>
  <time>2026-09-01T20:01:27Z</time>
  <course>216.22</course>
  <speed>26.56</speed>
  <fix>3d</fix>
</trkpt>
<trkpt lat="-27.2723616" lon="151.3191207">
  <ele>522.96</ele>
  <time>2026-09-01T20:01:27Z</time>
  <course>215.21</course>
  <speed>26.4508166225544</speed>
  <fix>3d</fix>
</trkpt>
<trkpt lat="-27.272303" lon="151.3191689">
  <ele>523.42</ele>
  <time>2026-09-01T20:01:27Z</time>
  <course>216.22</course>
  <speed>26.56</speed>
  <fix>3d</fix>
</trkpt>
<trkpt lat="-27.2723808" lon="151.3191051">
  <ele>522.88</ele>
  <time>2026-09-01T20:01:27Z</time>
  <course>215.22</course>
  <speed>26.38177022112049</speed>
  <fix>3d</fix>
</trkpt>
<trkpt lat="-27.2723415" lon="151.3191373">
  <ele>523.1</ele>
  <time>2026-09-01T20:01:27Z</time>
  <course>216.13</course>
  <speed>26.49</speed>
  <fix>3d</fix>
</trkpt>
<trkpt lat="-27.2724" lon="151.3190895">
  <ele>522.82</ele>
  <time>2026-09-01T20:01:27Z</time>
  <course>215.19</course>
  <speed>26.26388585110741</speed>
  <fix>3d</fix>
</trkpt>
<trkpt lat="-27.2723415" lon="151.3191373">
  <ele>523.1</ele>
  <time>2026-09-01T20:01:27Z</time>
  <course>216.13</course>
  <speed>26.49</speed>
  <fix>3d</fix>
</trkpt>
<trkpt lat="-27.2724191" lon="151.3190742">
  <ele>522.78</ele>
  <time>2026-09-01T20:01:27Z</time>
  <course>215.11</course>
  <speed>26.083883913251874</speed>
  <fix>3d</fix>
</trkpt>
<trkpt lat="-27.27238" lon="151.3191058">
  <ele>522.89</ele>
  <time>2026-09-01T20:01:27Z</time>
  <course>215.85</course>
  <speed>26.36</speed>
  <fix>3d</fix>
</trkpt>
<trkpt lat="-27.2724382" lon="151.3190592">
  <ele>522.78</ele>
  <time>2026-09-01T20:01:27Z</time>
  <course>214.96</course>
  <speed>25.820681633140516</speed>
  <fix>3d</fix>
</trkpt>
<trkpt lat="-27.27238" lon="151.3191058">
  <ele>522.89</ele>
  <time>2026-09-01T20:01:27Z</time>
  <course>215.85</course>
  <speed>26.36</speed>
  <fix>3d</fix>
</trkpt>
<trkpt lat="-27.2724572" lon="151.3190444">
  <ele>522.79</ele>
  <time>2026-09-01T20:01:27Z</time>
  <course>214.76</course>
  <speed>25.489864652445686</speed>
  <fix>3d</fix>
</trkpt>
<trkpt lat="-27.2724183" lon="151.319075">
  <ele>522.8</ele>
  <time>2026-09-01T20:01:27Z</time>
  <course>215.25</course>
  <speed>26.05</speed>
  <fix>3d</fix>
</trkpt>
<trkpt lat="-27.272476" lon="151.3190301">
  <ele>522.87</ele>
  <time>2026-09-01T20:01:27Z</time>
  <course>214.51</course>
  <speed>25.102975919201295</speed>
  <fix>3d</fix>
</trkpt>
<trkpt lat="-27.2724183" lon="151.319075">
  <ele>522.8</ele>
  <time>2026-09-01T20:01:27Z</time>
  <course>215.25</course>
  <speed>26.05</speed>
  <fix>3d</fix>
</trkpt>
<trkpt lat="-27.2724948" lon="151.3190161">
  <ele>522.97</ele>
  <time>2026-09-01T20:01:27Z</time>
  <course>214.2</course>
  <speed>24.69581341037383</speed>
  <fix>3d</fix>
</trkpt>
<trkpt lat="-27.2724563" lon="151.3190452">
  <ele>522.82</ele>
  <time>2026-09-01T20:01:27Z</time>
  <course>214.32</course>
  <speed>25.48</speed>
  <fix>3d</fix>
</trkpt>
<trkpt lat="-27.2725132" lon="151.3190026">
  <ele>523.08</ele>
  <time>2026-09-01T20:01:27Z</time>
  <course>213.87</course>
  <speed>24.28975298351138</speed>
  <fix>3d</fix>
</trkpt>
<trkpt lat="-27.2724563" lon="151.3190452">
  <ele>522.82</ele>
  <time>2026-09-01T20:01:27Z</time>
  <course>214.32</course>
  <speed>25.48</speed>
  <fix>3d</fix>
</trkpt>
<trkpt lat="-27.2725314" lon="151.3189894">
  <ele>523.21</ele>
  <time>2026-09-01T20:01:27Z</time>
  <course>213.54</course>
  <speed>23.892546955065296</speed>
  <fix>3d</fix>
</trkpt>
<trkpt lat="-27.2724937" lon="151.3190169">
  <ele>522.97</ele>
  <time>2026-09-01T20:01:27Z</time>
  <course>213.36</course>
  <speed>24.72</speed>
  <fix>3d</fix>
</trkpt>
<trkpt lat="-27.2725494" lon="151.3189765">
  <ele>523.34</ele>
  <time>2026-09-01T20:01:27Z</time>
  <course>213.2</course>
  <speed>23.517510497499515</speed>
  <fix>3d</fix>
</trkpt>
<trkpt lat="-27.2724937" lon="151.3190169">
  <ele>522.97</ele>
  <time>2026-09-01T20:01:27Z</time>
  <course>213.36</course>
  <speed>24.72</speed>
  <fix>3d</fix>
</trkpt>
<trkpt lat="-27.2725671" lon="151.318964">
  <ele>523.45</ele>
  <time>2026-09-01T20:01:27Z</time>
  <course>212.91</course>
  <speed>23.167364977485033</speed>
  <fix>3d</fix>
</trkpt>
<trkpt lat="-27.2725304" lon="151.3189902">
  <ele>523.2</ele>
  <time>2026-09-01T20:01:27Z</time>
  <course>212.64</course>
  <speed>23.93</speed>
  <fix>3d</fix>
</trkpt>
<trkpt lat="-27.2725846" lon="151.3189516">
  <ele>523.56</ele>
  <time>2026-09-01T20:01:27Z</time>
  <course>212.65</course>
  <speed>22.822835056144978</speed>
  <fix>3d</fix>
</trkpt>
<trkpt lat="-27.2725304" lon="151.3189902">
  <ele>523.2</ele>
  <time>2026-09-01T20:01:27Z</time>
  <course>212.64</course>
  <speed>23.93</speed>
  <fix>3d</fix>
</trkpt>
<trkpt lat="-27.2726019" lon="151.3189396">
  <ele>523.64</ele>
  <time>2026-09-01T20:01:27Z</time>
  <course>212.45</course>
  <speed>22.502875371827486</speed>
  <fix>3d</fix>
</trkpt>
<trkpt lat="-27.2725662" lon="151.3189646">
  <ele>523.44</ele>
  <time>2026-09-01T20:01:27Z</time>
  <course>212.15</course>
  <speed>23.19</speed>
  <fix>3d</fix>
</trkpt>
<trkpt lat="-27.272619" lon="151.3189277">
  <ele>523.69</ele>
  <time>2026-09-01T20:01:27Z</time>
  <course>212.28</course>
  <speed>22.205352958239597</speed>
  <fix>3d</fix>
</trkpt>
<trkpt lat="-27.2725662" lon="151.3189646">
  <ele>523.44</ele>
  <time>2026-09-01T20:01:27Z</time>
  <course>212.15</course>
  <speed>23.19</speed>
  <fix>3d</fix>
</trkpt>
<trkpt lat="-27.2726359" lon="151.3189161">
  <ele>523.71</ele>
  <time>2026-09-01T20:01:27Z</time>
  <course>212.13</course>
  <speed>21.91845341259278</speed>
  <fix>3d</fix>
</trkpt>
<trkpt lat="-27.272601" lon="151.3189401">
  <ele>523.62</ele>
  <time>2026-09-01T20:01:27Z</time>
  <course>211.79</course>
  <speed>22.53</speed>
  <fix>3d</fix>
</trkpt>
<trkpt lat="-27.2726526" lon="151.3189046">
  <ele>523.71</ele>
  <time>2026-09-01T20:01:27Z</time>
  <course>211.99</course>
  <speed>21.6453990492206</speed>
  <fix>3d</fix>
</trkpt>
<trkpt lat="-27.272601" lon="151.3189401">
  <ele>523.62</ele>
  <time>2026-09-01T20:01:27Z</time>
  <course>211.79</course>
  <speed>22.53</speed>
  <fix>3d</fix>
</trkpt>
<trkpt lat="-27.2726691" lon="151.3188932">
  <ele>523.68</ele>
  <time>2026-09-01T20:01:27Z</time>
  <course>211.84</course>
  <speed>21.391365080330893</speed>
  <fix>3d</fix>
</trkpt>
<trkpt lat="-27.2726351" lon="151.3189166">
  <ele>523.7</ele>
  <time>2026-09-01T20:01:27Z</time>
  <course>211.51</course>
  <speed>21.94</speed>
  <fix>3d</fix>
</trkpt>
<trkpt lat="-27.2726854" lon="151.3188821">
  <ele>523.63</ele>
  <time>2026-09-01T20:01:27Z</time>
  <course>211.69</course>
  <speed>21.145935779718993</speed>
  <fix>3d</fix>
</trkpt>
<trkpt lat="-27.2726351" lon="151.3189166">
  <ele>523.7</ele>
  <time>2026-09-01T20:01:27Z</time>
  <course>211.51</course>
  <speed>21.94</speed>
  <fix>3d</fix>
</trkpt>
<trkpt lat="-27.2727016" lon="151.3188711">
  <ele>523.54</ele>
  <time>2026-09-01T20:01:27Z</time>
  <course>211.55</course>
  <speed>20.919469400536908</speed>
  <fix>3d</fix>
</trkpt>
<trkpt lat="-27.2726683" lon="151.3188938">
  <ele>523.67</ele>
  <time>2026-09-01T20:01:27Z</time>
  <course>211.29</course>
  <speed>21.41</speed>
  <fix>3d</fix>
</trkpt>
<trkpt lat="-27.2727176" lon="151.3188602">
  <ele>523.46</ele>
  <time>2026-09-01T20:01:27Z</time>
  <course>211.4</course>
  <speed>20.706762180505187</speed>
  <fix>3d</fix>
</trkpt>
<trkpt lat="-27.2726683" lon="151.3188938">
  <ele>523.67</ele>
  <time>2026-09-01T20:01:27Z</time>
  <course>211.29</course>
  <speed>21.41</speed>
  <fix>3d</fix>
</trkpt>
<trkpt lat="-27.2727335" lon="151.3188495">
  <ele>523.35</ele>
  <time>2026-09-01T20:01:27Z</time>
  <course>211.26</course>
  <speed>20.494082072637458</speed>
  <fix>3d</fix>
</trkpt>
<trkpt lat="-27.2727008" lon="151.3188716">
  <ele>523.54</ele>
  <time>2026-09-01T20:01:27Z</time>
  <course>211.12</course>
  <speed>20.94</speed>
  <fix>3d</fix>
</trkpt>
<trkpt lat="-27.2727492" lon="151.3188389">
  <ele>523.23</ele>
  <time>2026-09-01T20:01:27Z</time>
  <course>211.14</course>
  <speed>20.308865059377396</speed>
  <fix>3d</fix>
</trkpt>
<trkpt lat="-27.2727008" lon="151.3188716">
  <ele>523.54</ele>
  <time>2026-09-01T20:01:27Z</time>
  <course>211.12</course>
  <speed>20.94</speed>
  <fix>3d</fix>
</trkpt>
<trkpt lat="-27.2727648" lon="151.3188284">
  <ele>523.1</ele>
  <time>2026-09-01T20:01:27Z</time>
  <course>211.04</course>
  <speed>20.11853125851885</speed>
  <fix>3d</fix>
</trkpt>
<trkpt lat="-27.2727327" lon="151.31885">
  <ele>523.34</ele>
  <time>2026-09-01T20:01:27Z</time>
  <course>210.99</course>
  <speed>20.51</speed>
  <fix>3d</fix>
</trkpt>
<trkpt lat="-27.2727802" lon="151.318818">
  <ele>522.96</ele>
  <time>2026-09-01T20:01:27Z</time>
  <course>210.96</course>
  <speed>19.938475367991405</speed>
  <fix>3d</fix>
</trkpt>
<trkpt lat="-27.2727327" lon="151.31885">
  <ele>523.34</ele>
  <time>2026-09-01T20:01:27Z</time>
  <course>210.99</course>
  <speed>20.51</speed>
  <fix>3d</fix>
</trkpt>
<trkpt lat="-27.2727955" lon="151.3188078">
  <ele>522.81</ele>
  <time>2026-09-01T20:01:27Z</time>
  <course>210.89</course>
  <speed>19.77560365703156</speed>
  <fix>3d</fix>
</trkpt>
<trkpt lat="-27.272764" lon="151.3188289">
  <ele>523.1</ele>
  <time>2026-09-01T20:01:27Z</time>
  <course>210.88</course>
  <speed>20.13</speed>
  <fix>3d</fix>
</trkpt>
<trkpt lat="-27.2728107" lon="151.3187975">
  <ele>522.65</ele>
  <time>2026-09-01T20:01:27Z</time>
  <course>210.84</course>
  <speed>19.612750954417383</speed>
  <fix>3d</fix>
</trkpt>
<trkpt lat="-27.272764" lon="151.3188289">
  <ele>523.1</ele>
  <time>2026-09-01T20:01:27Z</time>
  <course>210.88</course>
  <speed>20.13</speed>
  <fix>3d</fix>
</trkpt>
<trkpt lat="-27.2728258" lon="151.3187874">
  <ele>522.49</ele>
  <time>2026-09-01T20:01:27Z</time>
  <course>210.78</course>
  <speed>19.463619909975638</speed>
  <fix>3d</fix>
</trkpt>
<trkpt lat="-27.2727948" lon="151.3188082">
  <ele>522.81</ele>
  <time>2026-09-01T20:01:27Z</time>
  <course>210.78</course>
  <speed>19.79</speed>
  <fix>3d</fix>
</trkpt>
<trkpt lat="-27.2728408" lon="151.3187774">
  <ele>522.32</ele>
  <time>2026-09-01T20:01:27Z</time>
  <course>210.73</course>
  <speed>19.31450232338385</speed>
  <fix>3d</fix>
</trkpt>
<trkpt lat="-27.2727948" lon="151.3188082">
  <ele>522.81</ele>
  <time>2026-09-01T20:01:27Z</time>
  <course>210.78</course>
  <speed>19.79</speed>
  <fix>3d</fix>
</trkpt>
<trkpt lat="-27.2728557" lon="151.3187676">
  <ele>522.15</ele>
  <time>2026-09-01T20:01:27Z</time>
  <course>210.68</course>
  <speed>19.165398508770956</speed>
  <fix>3d</fix>
</trkpt>
<trkpt lat="-27.2728251" lon="151.3187879">
  <ele>522.49</ele>
  <time>2026-09-01T20:01:27Z</time>
  <course>210.67</course>
  <speed>19.47</speed>
  <fix>3d</fix>
</trkpt>
<trkpt lat="-27.2728704" lon="151.3187577">
  <ele>521.98</ele>
  <time>2026-09-01T20:01:27Z</time>
  <course>210.63</course>
  <speed>19.030002627430193</speed>
  <fix>3d</fix>
</trkpt>
<trkpt lat="-27.2728251" lon="151.3187879">
  <ele>522.49</ele>
  <time>2026-09-01T20:01:27Z</time>
  <course>210.67</course>
  <speed>19.47</speed>
  <fix>3d</fix>
</trkpt>
<trkpt lat="-27.2728851" lon="151.3187481">
  <ele>521.79</ele>
  <time>2026-09-01T20:01:27Z</time>
  <course>210.58</course>
  <speed>18.90323252779799</speed>
  <fix>3d</fix>
</trkpt>
<trkpt lat="-27.272855" lon="151.318768">
  <ele>522.15</ele>
  <time>2026-09-01T20:01:27Z</time>
  <course>210.58</course>
  <speed>19.18</speed>
  <fix>3d</fix>
</trkpt>
<trkpt lat="-27.2728997" lon="151.3187384">
  <ele>521.62</ele>
  <time>2026-09-01T20:01:27Z</time>
  <course>210.54</course>
  <speed>18.767858162294385</speed>
  <fix>3d</fix>
</trkpt>
<trkpt lat="-27.272855" lon="151.318768">
  <ele>522.15</ele>
  <time>2026-09-01T20:01:27Z</time>
  <course>210.58</course>
  <speed>19.18</speed>
  <fix>3d</fix>
</trkpt>
<trkpt lat="-27.2729142" lon="151.3187289">
  <ele>521.43</ele>
  <time>2026-09-01T20:01:27Z</time>
  <course>210.49</course>
  <speed>18.646179233290663</speed>
  <fix>3d</fix>
</trkpt>
<trkpt lat="-27.2728844" lon="151.3187485">
  <ele>521.8</ele>
  <time>2026-09-01T20:01:27Z</time>
  <course>210.49</course>
  <speed>18.91</speed>
  <fix>3d</fix>
</trkpt>
<trkpt lat="-27.2729286" lon="151.3187194">
  <ele>521.25</ele>
  <time>2026-09-01T20:01:27Z</time>
  <course>210.45</course>
  <speed>18.53313249291657</speed>
  <fix>3d</fix>
</trkpt>
<trkpt lat="-27.2728844" lon="151.3187485">
  <ele>521.8</ele>
  <time>2026-09-01T20:01:27Z</time>
  <course>210.49</course>
  <speed>18.91</speed>
  <fix>3d</fix>
</trkpt>
<trkpt lat="-27.272943" lon="151.3187098">
  <ele>521.06</ele>
  <time>2026-09-01T20:01:27Z</time>
  <course>210.41</course>
  <speed>18.41146653583033</speed>
  <fix>3d</fix>
</trkpt>
<trkpt lat="-27.2729136" lon="151.3187292">
  <ele>521.43</ele>
  <time>2026-09-01T20:01:27Z</time>
  <course>210.41</course>
  <speed>18.66</speed>
  <fix>3d</fix>
</trkpt>
<trkpt lat="-27.2729573" lon="151.3187005">
  <ele>520.87</ele>
  <time>2026-09-01T20:01:27Z</time>
  <course>210.37</course>
  <speed>18.29843982420359</speed>
  <fix>3d</fix>
</trkpt>
<trkpt lat="-27.2729136" lon="151.3187292">
  <ele>521.43</ele>
  <time>2026-09-01T20:01:27Z</time>
  <course>210.41</course>
  <speed>18.66</speed>
  <fix>3d</fix>
</trkpt>
<trkpt lat="-27.2729714" lon="151.3186912">
  <ele>520.68</ele>
  <time>2026-09-01T20:01:27Z</time>
  <course>210.34</course>
  <speed>18.190464535024937</speed>
  <fix>3d</fix>
</trkpt>
<trkpt lat="-27.2729424" lon="151.3187103">
  <ele>521.06</ele>
  <time>2026-09-01T20:01:27Z</time>
  <course>210.34</course>
  <speed>18.42</speed>
  <fix>3d</fix>
</trkpt>
<trkpt lat="-27.2729855" lon="151.3186819">
  <ele>520.48</ele>
  <time>2026-09-01T20:01:27Z</time>
  <course>210.3</course>
  <speed>18.091130423497585</speed>
  <fix>3d</fix>
</trkpt>
<trkpt lat="-27.2729424" lon="151.3187103">
  <ele>521.06</ele>
  <time>2026-09-01T20:01:27Z</time>
  <course>210.34</course>
  <speed>18.42</speed>
  <fix>3d</fix>
</trkpt>
<trkpt lat="-27.2729995" lon="151.3186728">
  <ele>520.29</ele>
  <time>2026-09-01T20:01:27Z</time>
  <course>210.27</course>
  <speed>17.983161568534047</speed>
  <fix>3d</fix>
</trkpt>
<trkpt lat="-27.2729707" lon="151.3186916">
  <ele>520.68</ele>
  <time>2026-09-01T20:01:27Z</time>
  <course>210.27</course>
  <speed>18.2</speed>
  <fix>3d</fix>
</trkpt>
<trkpt lat="-27.2730134" lon="151.3186637">
  <ele>520.1</ele>
  <time>2026-09-01T20:01:27Z</time>
  <course>210.24</course>
  <speed>17.883839073308614</speed>
  <fix>3d</fix>
</trkpt>
<trkpt lat="-27.2729707" lon="151.3186916">
  <ele>520.68</ele>
  <time>2026-09-01T20:01:27Z</time>
  <course>210.27</course>
  <speed>18.2</speed>
  <fix>3d</fix>
</trkpt>
<trkpt lat="-27.2730273" lon="151.3186546">
  <ele>519.9</ele>
  <time>2026-09-01T20:01:27Z</time>
  <course>210.2</course>
  <speed>17.793172848033596</speed>
  <fix>3d</fix>
</trkpt>
<trkpt lat="-27.2729988" lon="151.3186731">
  <ele>520.29</ele>
  <time>2026-09-01T20:01:27Z</time>
  <course>210.2</course>
  <speed>17.99</speed>
  <fix>3d</fix>
</trkpt>
<trkpt lat="-27.2730411" lon="151.3186456">
  <ele>519.7</ele>
  <time>2026-09-01T20:01:27Z</time>
  <course>210.17</course>
  <speed>17.698884145617768</speed>
  <fix>3d</fix>
</trkpt>
<trkpt lat="-27.2729988" lon="151.3186731">
  <ele>520.29</ele>
  <time>2026-09-01T20:01:27Z</time>
  <course>210.2</course>
  <speed>17.99</speed>
  <fix>3d</fix>
</trkpt>
<trkpt lat="-27.2730548" lon="151.3186366">
  <ele>519.5</ele>
  <time>2026-09-01T20:01:27Z</time>
  <course>210.14</course>
  <speed>17.608236708995026</speed>
  <fix>3d</fix>
</trkpt>
<trkpt lat="-27.2730266" lon="151.3186549">
  <ele>519.9</ele>
  <time>2026-09-01T20:01:27Z</time>
  <course>210.14</course>
  <speed>17.8</speed>
  <fix>3d</fix>
</trkpt>
<trkpt lat="-27.2730684" lon="151.3186278">
  <ele>519.29</ele>
  <time>2026-09-01T20:01:27Z</time>
  <course>210.11</course>
  <speed>17.513951581524942</speed>
  <fix>3d</fix>
</trkpt>
<trkpt lat="-27.2730266" lon="151.3186549">
  <ele>519.9</ele>
  <time>2026-09-01T20:01:27Z</time>
  <course>210.14</course>
  <speed>17.8</speed>
  <fix>3d</fix>
</trkpt>
<trkpt lat="-27.273082" lon="151.3186189">
  <ele>519.11</ele>
  <time>2026-09-01T20:01:27Z</time>
  <course>210.08</course>
  <speed>17.42832464696478</speed>
  <fix>3d</fix>
</trkpt>
<trkpt lat="-27.2730542" lon="151.318637">
  <ele>519.51</ele>
  <time>2026-09-01T20:01:27Z</time>
  <course>210.08</course>
  <speed>17.61</speed>
  <fix>3d</fix>
</trkpt>
<trkpt lat="-27.2730955" lon="151.3186101">
  <ele>518.9</ele>
  <time>2026-09-01T20:01:27Z</time>
  <course>210.05</course>
  <speed>17.351363058849298</speed>
  <fix>3d</fix>
</trkpt>
<trkpt lat="-27.2730542" lon="151.318637">
  <ele>519.51</ele>
  <time>2026-09-01T20:01:27Z</time>
  <course>210.08</course>
  <speed>17.61</speed>
  <fix>3d</fix>
</trkpt>
<trkpt lat="-27.273109" lon="151.3186014">
  <ele>518.7</ele>
  <time>2026-09-01T20:01:27Z</time>
  <course>210.02</course>
  <speed>17.27074115375481</speed>
  <fix>3d</fix>
</trkpt>
<trkpt lat="-27.2730814" lon="151.3186193">
  <ele>519.11</ele>
  <time>2026-09-01T20:01:27Z</time>
  <course>210.02</course>
  <speed>17.44</speed>
  <fix>3d</fix>
</trkpt>
<trkpt lat="-27.2731224" lon="151.3185926">
  <ele>518.5</ele>
  <time>2026-09-01T20:01:27Z</time>
  <course>210.0</course>
  <speed>17.19378957647208</speed>
  <fix>3d</fix>
</trkpt>
<trkpt lat="-27.2730814" lon="151.3186193">
  <ele>519.11</ele>
  <time>2026-09-01T20:01:27Z</time>
  <course>210.02</course>
  <speed>17.44</speed>
  <fix>3d</fix>
</trkpt>
<trkpt lat="-27.2731358" lon="151.3185839">
  <ele>518.29</ele>
  <time>2026-09-01T20:01:27Z</time>
  <course>209.97</course>
  <speed>17.113167444982242</speed>
  <fix>3d</fix>
</trkpt>
<trkpt lat="-27.2731084" lon="151.3186017">
  <ele>518.7</ele>
  <time>2026-09-01T20:01:27Z</time>
  <course>209.97</course>
  <speed>17.28</speed>
  <fix>3d</fix>
</trkpt>
<trkpt lat="-27.2731491" lon="151.3185753">
  <ele>518.1</ele>
  <time>2026-09-01T20:01:27Z</time>
  <course>209.95</course>
  <speed>17.036226107914864</speed>
  <fix>3d</fix>
</trkpt>
<trkpt lat="-27.2731084" lon="151.3186017">
  <ele>518.7</ele>
  <time>2026-09-01T20:01:27Z</time>
  <course>209.97</course>
  <speed>17.28</speed>
  <fix>3d</fix>
</trkpt>
<trkpt lat="-27.2731623" lon="151.3185668">
  <ele>517.9</ele>
  <time>2026-09-01T20:01:27Z</time>
  <course>209.92</course>
  <speed>16.964274225560022</speed>
  <fix>3d</fix>
</trkpt>
<trkpt lat="-27.2731352" lon="151.3185844">
  <ele>518.31</ele>
  <time>2026-09-01T20:01:27Z</time>
  <course>209.92</course>
  <speed>17.12</speed>
  <fix>3d</fix>
</trkpt>
<trkpt lat="-27.2731755" lon="151.3185583">
  <ele>517.69</ele>
  <time>2026-09-01T20:01:27Z</time>
  <course>209.9</course>
  <speed>16.892323700426772</speed>
  <fix>3d</fix>
</trkpt>
<trkpt lat="-27.2731352" lon="151.3185844">
  <ele>518.31</ele>
  <time>2026-09-01T20:01:27Z</time>
  <course>209.92</course>
  <speed>17.12</speed>
  <fix>3d</fix>
</trkpt>
<trkpt lat="-27.2713512" lon="151.3226133">
  <ele>540.87</ele>
  <time>2026-09-01T20:01:27Z</time>
  <course>250.66</course>
  <speed>12.052091104866408</speed>
  <fix>3d</fix>
</trkpt>
<trkpt lat="-27.2731617" lon="151.3185672">
  <ele>517.9</ele>
  <time>2026-09-01T20:01:27Z</time>
  <course>209.87</course>
  <speed>16.97</speed>
  <fix>3d</fix>
</trkpt>
<trkpt lat="-27.2713538" lon="151.322602">
  <ele>537.02</ele>
  <time>2026-09-01T20:01:27Z</time>
  <course>250.44</course>
  <speed>11.474550100112857</speed>
  <fix>3d</fix>
</trkpt>
<trkpt lat="-27.2731617" lon="151.3185672">
  <ele>517.9</ele>
  <time>2026-09-01T20:01:27Z</time>
  <course>209.87</course>
  <speed>16.97</speed>
  <fix>3d</fix>
</trkpt>
<trkpt lat="-27.2713574" lon="151.3225905">
  <ele>533.18</ele>
  <time>2026-09-01T20:01:27Z</time>
  <course>237.27</course>
  <speed>12.787560361538866</speed>
  <fix>3d</fix>
</trkpt>
<trkpt lat="-27.2722644" lon="151.3205805">
  <ele>527.42</ele>
  <time>2026-09-01T20:01:27Z</time>
  <course>227.81</course>
  <speed>13.13</speed>
  <fix>3d</fix>
</trkpt>
<trkpt lat="-27.2713641" lon="151.322579">
  <ele>529.4</ele>
  <time>2026-09-01T20:01:27Z</time>
  <course>217.27</course>
  <speed>14.223702049747807</speed>
  <fix>3d</fix>
</trkpt>
<trkpt lat="-27.2722644" lon="151.3205805">
  <ele>527.42</ele>
  <time>2026-09-01T20:01:27Z</time>
  <course>227.81</course>
  <speed>13.13</speed>
  <fix>3d</fix>
</trkpt>
<trkpt lat="-27.2713737" lon="151.3225693">
  <ele>525.66</ele>
  <time>2026-09-01T20:01:27Z</time>
  <course>202.71</course>
  <speed>14.728071835783528</speed>
  <fix>3d</fix>
</trkpt>
<trkpt lat="-27.2713587" lon="151.3225909">
  <ele>533.33</ele>
  <time>2026-09-01T20:01:27Z</time>
  <course>240.76</course>
  <speed>12.51</speed>
  <fix>3d</fix>
</trkpt>
<trkpt lat="-27.2713847" lon="151.3225606">
  <ele>521.91</ele>
  <time>2026-09-01T20:01:27Z</time>
  <course>204.91</course>
  <speed>15.52753038960156</speed>
  <fix>3d</fix>
</trkpt>
<trkpt lat="-27.2713587" lon="151.3225909">
  <ele>533.33</ele>
  <time>2026-09-01T20:01:27Z</time>
  <course>240.76</course>
  <speed>12.51</speed>
  <fix>3d</fix>
</trkpt>
<trkpt lat="-27.2713957" lon="151.3225472">
  <ele>518.35</ele>
  <time>2026-09-01T20:01:27Z</time>
  <course>223.82</course>
  <speed>21.67438349757612</speed>
  <fix>3d</fix>
</trkpt>
<trkpt lat="-27.271374" lon="151.3225701">
  <ele>525.78</ele>
  <time>2026-09-01T20:01:27Z</time>
  <course>223.05</course>
  <speed>14.74</speed>
  <fix>3d</fix>
</trkpt>
<trkpt lat="-27.2714077" lon="151.3225249">
  <ele>515.36</ele>
  <time>2026-09-01T20:01:27Z</time>
  <course>232.75</course>
  <speed>29.536831245074346</speed>
  <fix>3d</fix>
</trkpt>
<trkpt lat="-27.271374" lon="151.3225701">
  <ele>525.78</ele>
  <time>2026-09-01T20:01:27Z</time>
  <course>223.05</course>
  <speed>14.74</speed>
  <fix>3d</fix>
</trkpt>
<trkpt lat="-27.2714217" lon="151.3224962">
  <ele>513.24</ele>
  <time>2026-09-01T20:01:27Z</time>
  <course>235.39</course>
  <speed>34.83834668867052</speed>
  <fix>3d</fix>
</trkpt>
<trkpt lat="-27.2713958" lon="151.3225433">
  <ele>518.75</ele>
  <time>2026-09-01T20:01:27Z</time>
  <course>232.69</course>
  <speed>21.95</speed>
  <fix>3d</fix>
</trkpt>
<trkpt lat="-27.2714382" lon="151.3224644">
  <ele>512.07</ele>
  <time>2026-09-01T20:01:27Z</time>
  <course>232.18</course>
  <speed>37.022227107509345</speed>
  <fix>3d</fix>
</trkpt>
<trkpt lat="-27.2713958" lon="151.3225433">
  <ele>518.75</ele>
  <time>2026-09-01T20:01:27Z</time>
  <course>232.69</course>
  <speed>21.95</speed>
  <fix>3d</fix>
</trkpt>
<trkpt lat="-27.2714574" lon="151.3224338">
  <ele>511.76</ele>
  <time>2026-09-01T20:01:27Z</time>
  <course>225.9</course>
  <speed>36.899498641580486</speed>
  <fix>3d</fix>
</trkpt>
<trkpt lat="-27.2714224" lon="151.3224958">
  <ele>513.77</ele>
  <time>2026-09-01T20:01:27Z</time>
  <course>239.13</course>
  <speed>33.13</speed>
  <fix>3d</fix>
</trkpt>
<trkpt lat="-27.2714793" lon="151.3224066">
  <ele>512.08</ele>
  <time>2026-09-01T20:01:27Z</time>
  <course>218.98</course>
  <speed>35.64919774693394</speed>
  <fix>3d</fix>
</trkpt>
<trkpt lat="-27.2714224" lon="151.3224958">
  <ele>513.77</ele>
  <time>2026-09-01T20:01:27Z</time>
  <course>239.13</course>
  <speed>33.13</speed>
  <fix>3d</fix>
</trkpt>
<trkpt lat="-27.2715032" lon="151.3223837">
  <ele>512.84</ele>
  <time>2026-09-01T20:01:27Z</time>
  <course>212.74</course>
  <speed>34.1386833372349</speed>
  <fix>3d</fix>
</trkpt>
<trkpt lat="-27.2714579" lon="151.3224367">
  <ele>512.07</ele>
  <time>2026-09-01T20:01:27Z</time>
  <course>231.26</course>
  <speed>36.1</speed>
  <fix>3d</fix>
</trkpt>
<trkpt lat="-27.2715283" lon="151.3223655">
  <ele>513.85</ele>
  <time>2026-09-01T20:01:27Z</time>
  <course>207.78</course>
  <speed>32.75509273380248</speed>
  <fix>3d</fix>
</trkpt>
<trkpt lat="-27.2714579" lon="151.3224367">
  <ele>512.07</ele>
  <time>2026-09-01T20:01:27Z</time>
  <course>231.26</course>
  <speed>36.1</speed>
  <fix>3d</fix>
</trkpt>
<trkpt lat="-27.2715541" lon="151.3223506">
  <ele>515.01</ele>
  <time>2026-09-01T20:01:27Z</time>
  <course>204.37</course>
  <speed>31.598824345218922</speed>
  <fix>3d</fix>
</trkpt>
<trkpt lat="-27.2715028" lon="151.3223868">
  <ele>512.93</ele>
  <time>2026-09-01T20:01:27Z</time>
  <course>217.54</course>
  <speed>33.99</speed>
  <fix>3d</fix>
</trkpt>
<trkpt lat="-27.2715799" lon="151.3223387">
  <ele>516.24</ele>
  <time>2026-09-01T20:01:27Z</time>
  <course>202.5</course>
  <speed>30.653425583448257</speed>
  <fix>3d</fix>
</trkpt>
<trkpt lat="-27.2715028" lon="151.3223868">
  <ele>512.93</ele>
  <time>2026-09-01T20:01:27Z</time>
  <course>217.54</course>
  <speed>33.99</speed>
  <fix>3d</fix>
</trkpt>
<trkpt lat="-27.2716055" lon="151.3223284">
  <ele>517.5</ele>
  <time>2026-09-01T20:01:27Z</time>
  <course>201.83</course>
  <speed>29.9248876355451</speed>
  <fix>3d</fix>
</trkpt>
<trkpt lat="-27.271553" lon="151.3223526">
  <ele>515.0</ele>
  <time>2026-09-01T20:01:27Z</time>
  <course>205.62</course>
  <speed>31.65</speed>
  <fix>3d</fix>
</trkpt>
<trkpt lat="-27.2716308" lon="151.322319">
  <ele>518.75</ele>
  <time>2026-09-01T20:01:27Z</time>
  <course>201.81</course>
  <speed>29.376972274215053</speed>
  <fix>3d</fix>
</trkpt>
<trkpt lat="-27.271553" lon="151.3223526">
  <ele>515.0</ele>
  <time>2026-09-01T20:01:27Z</time>
  <course>205.62</course>
  <speed>31.65</speed>
  <fix>3d</fix>
</trkpt>
<trkpt lat="-27.2716558" lon="151.3223102">
  <ele>519.95</ele>
  <time>2026-09-01T20:01:27Z</time>
  <course>201.97</course>
  <speed>29.005497754736083</speed>
  <fix>3d</fix>
</trkpt>
<trkpt lat="-27.2716042" lon="151.3223293">
  <ele>517.44</ele>
  <time>2026-09-01T20:01:27Z</time>
  <course>199.36</course>
  <speed>30.04</speed>
  <fix>3d</fix>
</trkpt>
<trkpt lat="-27.2716805" lon="151.3223013">
  <ele>521.08</ele>
  <time>2026-09-01T20:01:27Z</time>
  <course>201.96</course>
  <speed>28.776193285422586</speed>
  <fix>3d</fix>
</trkpt>
<trkpt lat="-27.2716042" lon="151.3223293">
  <ele>517.44</ele>
  <time>2026-09-01T20:01:27Z</time>
  <course>199.36</course>
  <speed>30.04</speed>
  <fix>3d</fix>
</trkpt>
<trkpt lat="-27.271705" lon="151.3222925">
  <ele>522.1</ele>
  <time>2026-09-01T20:01:27Z</time>
  <course>201.58</course>
  <speed>28.638491580388795</speed>
  <fix>3d</fix>
</trkpt>
<trkpt lat="-27.2716546" lon="151.3223106">
  <ele>519.86</ele>
  <time>2026-09-01T20:01:27Z</time>
  <course>197.68</course>
  <speed>29.09</speed>
  <fix>3d</fix>
</trkpt>
<trkpt lat="-27.2717294" lon="151.3222836">
  <ele>523.02</ele>
  <time>2026-09-01T20:01:27Z</time>
  <course>200.9</course>
  <speed>28.549161108515953</speed>
  <fix>3d</fix>
</trkpt>
<trkpt lat="-27.2716546" lon="151.3223106">
  <ele>519.86</ele>
  <time>2026-09-01T20:01:27Z</time>
  <course>197.68</course>
  <speed>29.09</speed>
  <fix>3d</fix>
</trkpt>
<trkpt lat="-27.2717537" lon="151.3222745">
  <ele>523.82</ele>
  <time>2026-09-01T20:01:27Z</time>
  <course>200.03</course>
  <speed>28.476314719429546</speed>
  <fix>3d</fix>
</trkpt>
<trkpt lat="-27.271704" lon="151.3222928">
  <ele>522.01</ele>
  <time>2026-09-01T20:01:27Z</time>
  <course>197.96</course>
  <speed>28.67</speed>
  <fix>3d</fix>
</trkpt>
<trkpt lat="-27.271778" lon="151.3222653">
  <ele>524.5</ele>
  <time>2026-09-01T20:01:27Z</time>
  <course>199.19</course>
  <speed>28.40369694247564</speed>
  <fix>3d</fix>
</trkpt>
<trkpt lat="-27.271704" lon="151.3222928">
  <ele>522.01</ele>
  <time>2026-09-01T20:01:27Z</time>
  <course>197.96</course>
  <speed>28.67</speed>
  <fix>3d</fix>
</trkpt>
<trkpt lat="-27.2718021" lon="151.3222562">
  <ele>525.07</ele>
  <time>2026-09-01T20:01:27Z</time>
  <course>198.43</course>
  <speed>28.31214050544395</speed>
  <fix>3d</fix>
</trkpt>
<trkpt lat="-27.2717528" lon="151.3222747">
  <ele>523.73</ele>
  <time>2026-09-01T20:01:27Z</time>
  <course>198.43</course>
  <speed>28.48</speed>
  <fix>3d</fix>
</trkpt>
<trkpt lat="-27.2718261" lon="151.322247">
  <ele>525.53</ele>
  <time>2026-09-01T20:01:27Z</time>
  <course>197.83</course>
  <speed>28.201709168062848</speed>
  <fix>3d</fix>
</trkpt>
<trkpt lat="-27.2717528" lon="151.3222747">
  <ele>523.73</ele>
  <time>2026-09-01T20:01:27Z</time>
  <course>198.43</course>
  <speed>28.48</speed>
  <fix>3d</fix>
</trkpt>
<trkpt lat="-27.27185" lon="151.3222377">
  <ele>525.91</ele>
  <time>2026-09-01T20:01:27Z</time>
  <course>197.47</course>
  <speed>28.088378379678666</speed>
  <fix>3d</fix>
</trkpt>
<trkpt lat="-27.2718012" lon="151.3222564">
  <ele>525.0</ele>
  <time>2026-09-01T20:01:27Z</time>
  <course>198.68</course>
  <speed>28.31</speed>
  <fix>3d</fix>
</trkpt>
<trkpt lat="-27.2718738" lon="151.3222286">
  <ele>526.2</ele>
  <time>2026-09-01T20:01:27Z</time>
  <course>197.3</course>
  <speed>27.969426165010965</speed>
  <fix>3d</fix>
</trkpt>
<trkpt lat="-27.2718012" lon="151.3222564">
  <ele>525.0</ele>
  <time>2026-09-01T20:01:27Z</time>
  <course>198.68</course>
  <speed>28.31</speed>
  <fix>3d</fix>
</trkpt>
<trkpt lat="-27.2718975" lon="151.3222192">
  <ele>526.41</ele>
  <time>2026-09-01T20:01:27Z</time>
  <course>197.39</course>
  <speed>27.852084302615484</speed>
  <fix>3d</fix>
</trkpt>
<trkpt lat="-27.2718491" lon="151.3222381">
  <ele>525.85</ele>
  <time>2026-09-01T20:01:27Z</time>
  <course>198.96</course>
  <speed>28.09</speed>
  <fix>3d</fix>
</trkpt>
<trkpt lat="-27.271921" lon="151.3222097">
  <ele>526.58</ele>
  <time>2026-09-01T20:01:28Z</time>
  <course>197.62</course>
  <speed>27.74355781077834</speed>
  <fix>3d</fix>
</trkpt>
<trkpt lat="-27.2718491" lon="151.3222381">
  <ele>525.85</ele>
  <time>2026-09-01T20:01:28Z</time>
  <course>198.96</course>
  <speed>28.09</speed>
  <fix>3d</fix>
</trkpt>
<trkpt lat="-27.2719443" lon="151.3221999">
  <ele>526.69</ele>
  <time>2026-09-01T20:01:28Z</time>
  <course>198.04</course>
  <speed>27.648640111224278</speed>
  <fix>3d</fix>
</trkpt>
<trkpt lat="-27.2718966" lon="151.3222194">
  <ele>526.38</ele>
  <time>2026-09-01T20:01:28Z</time>
  <course>199.57</course>
  <speed>27.86</speed>
  <fix>3d</fix>
</trkpt>
<trkpt lat="-27.2719675" lon="151.32219">
  <ele>526.75</ele>
  <time>2026-09-01T20:01:28Z</time>
  <course>198.67</course>
  <speed>27.56924554644178</speed>
  <fix>3d</fix>
</trkpt>
<trkpt lat="-27.2718966" lon="151.3222194">
  <ele>526.38</ele>
  <time>2026-09-01T20:01:28Z</time>
  <course>199.57</course>
  <speed>27.86</speed>
  <fix>3d</fix>
</trkpt>
<trkpt lat="-27.2719904" lon="151.3221797">
  <ele>526.77</ele>
  <time>2026-09-01T20:01:28Z</time>
  <course>199.52</course>
  <speed>27.494654025828368</speed>
  <fix>3d</fix>
</trkpt>
<trkpt lat="-27.2719434" lon="151.3222002">
  <ele>526.66</ele>
  <time>2026-09-01T20:01:28Z</time>
  <course>200.65</course>
  <speed>27.66</speed>
  <fix>3d</fix>
</trkpt>
<trkpt lat="-27.2720132" lon="151.322169">
  <ele>526.75</ele>
  <time>2026-09-01T20:01:28Z</time>
  <course>200.45</course>
  <speed>27.42730026816347</speed>
  <fix>3d</fix>
</trkpt>
<trkpt lat="-27.2719434" lon="151.3222002">
  <ele>526.66</ele>
  <time>2026-09-01T20:01:28Z</time>
  <course>200.65</course>
  <speed>27.66</speed>
  <fix>3d</fix>
</trkpt>
<trkpt lat="-27.2720357" lon="151.3221578">
  <ele>526.71</ele>
  <time>2026-09-01T20:01:28Z</time>
  <course>201.49</course>
  <speed>27.36995615634048</speed>
  <fix>3d</fix>
</trkpt>
<trkpt lat="-27.2719895" lon="151.3221798">
  <ele>526.75</ele>
  <time>2026-09-01T20:01:28Z</time>
  <course>202.21</course>
  <speed>27.49</speed>
  <fix>3d</fix>
</trkpt>
<trkpt lat="-27.272058" lon="151.3221462">
  <ele>526.63</ele>
  <time>2026-09-01T20:01:28Z</time>
  <course>202.64</course>
  <speed>27.31714662990994</speed>
  <fix>3d</fix>
</trkpt>
<trkpt lat="-27.2719895" lon="151.3221798">
  <ele>526.75</ele>
  <time>2026-09-01T20:01:28Z</time>
  <course>202.21</course>
  <speed>27.49</speed>
  <fix>3d</fix>
</trkpt>
<trkpt lat="-27.27208" lon="151.3221342">
  <ele>526.54</ele>
  <time>2026-09-01T20:01:28Z</time>
  <course>203.88</course>
  <speed>27.280038489708918</speed>
  <fix>3d</fix>
</trkpt>
<trkpt lat="-27.2720348" lon="151.322158">
  <ele>526.7</ele>
  <time>2026-09-01T20:01:28Z</time>
  <course>204.23</course>
  <speed>27.37</speed>
  <fix>3d</fix>
</trkpt>
<trkpt lat="-27.272102" lon="151.3221214">
  <ele>526.41</ele>
  <time>2026-09-01T20:01:28Z</time>
  <course>205.14</course>
  <speed>27.238344296230636</speed>
  <fix>3d</fix>
</trkpt>
<trkpt lat="-27.2720348" lon="151.322158">
  <ele>526.7</ele>
  <time>2026-09-01T20:01:28Z</time>
  <course>204.23</course>
  <speed>27.37</speed>
  <fix>3d</fix>
</trkpt>
<trkpt lat="-27.2721235" lon="151.3221083">
  <ele>526.29</ele>
  <time>2026-09-01T20:01:28Z</time>
  <course>206.34</course>
  <speed>27.201948459623253</speed>
  <fix>3d</fix>
</trkpt>
<trkpt lat="-27.2720792" lon="151.3221343">
  <ele>526.53</ele>
  <time>2026-09-01T20:01:28Z</time>
  <course>206.6</course>
  <speed>27.28</speed>
  <fix>3d</fix>
</trkpt>
<trkpt lat="-27.2721446" lon="151.3220946">
  <ele>526.15</ele>
  <time>2026-09-01T20:01:28Z</time>
  <course>207.37</course>
  <speed>27.16969267400719</speed>
  <fix>3d</fix>
</trkpt>
<trkpt lat="-27.2720792" lon="151.3221343">
  <ele>526.53</ele>
  <time>2026-09-01T20:01:28Z</time>
  <course>206.6</course>
  <speed>27.28</speed>
  <fix>3d</fix>
</trkpt>
<trkpt lat="-27.2721655" lon="151.3220805">
  <ele>525.99</ele>
  <time>2026-09-01T20:01:28Z</time>
  <course>208.31</course>
  <speed>27.13320106437867</speed>
  <fix>3d</fix>
</trkpt>
<trkpt lat="-27.2721224" lon="151.3221086">
  <ele>526.29</ele>
  <time>2026-09-01T20:01:28Z</time>
  <course>209.15</course>
  <speed>27.2</speed>
  <fix>3d</fix>
</trkpt>
<trkpt lat="-27.2721861" lon="151.3220658">
  <ele>525.83</ele>
  <time>2026-09-01T20:01:28Z</time>
  <course>209.1</course>
  <speed>27.095564212616054</speed>
  <fix>3d</fix>
</trkpt>
<trkpt lat="-27.2721224" lon="151.3221086">
  <ele>526.29</ele>
  <time>2026-09-01T20:01:28Z</time>
  <course>209.15</course>
  <speed>27.2</speed>
  <fix>3d</fix>
</trkpt>
<trkpt lat="-27.2722065" lon="151.3220509">
  <ele>525.66</ele>
  <time>2026-09-01T20:01:28Z</time>
  <course>209.86</course>
  <speed>27.052785438841596</speed>
  <fix>3d</fix>
</trkpt>
<trkpt lat="-27.2721645" lon="151.3220807">
  <ele>525.99</ele>
  <time>2026-09-01T20:01:28Z</time>
  <course>211.56</course>
  <speed>27.13</speed>
  <fix>3d</fix>
</trkpt>
<trkpt lat="-27.2722266" lon="151.3220356">
  <ele>525.48</ele>
  <time>2026-09-01T20:01:28Z</time>
  <course>210.58</course>
  <speed>27.00974824021875</speed>
  <fix>3d</fix>
</trkpt>
<trkpt lat="-27.2721645" lon="151.3220807">
  <ele>525.99</ele>
  <time>2026-09-01T20:01:28Z</time>
  <course>211.56</course>
  <speed>27.13</speed>
  <fix>3d</fix>
</trkpt>
<trkpt lat="-27.2722466" lon="151.3220202">
  <ele>525.29</ele>
  <time>2026-09-01T20:01:28Z</time>
  <course>211.23</course>
  <speed>26.9610255739651</speed>
  <fix>3d</fix>
</trkpt>
<trkpt lat="-27.2722056" lon="151.3220513">
  <ele>525.66</ele>
  <time>2026-09-01T20:01:28Z</time>
  <course>213.46</course>
  <speed>27.05</speed>
  <fix>3d</fix>
</trkpt>
<trkpt lat="-27.2722664" lon="151.3220045">
  <ele>525.11</ele>
  <time>2026-09-01T20:01:28Z</time>
  <course>211.91</course>
  <speed>26.916229305012244</speed>
  <fix>3d</fix>
</trkpt>
<trkpt lat="-27.2722056" lon="151.3220513">
  <ele>525.66</ele>
  <time>2026-09-01T20:01:28Z</time>
  <course>213.46</course>
  <speed>27.05</speed>
  <fix>3d</fix>
</trkpt>
<trkpt lat="-27.272286" lon="151.3219887">
  <ele>524.91</ele>
  <time>2026-09-01T20:01:28Z</time>
  <course>212.54</course>
  <speed>26.857922481085538</speed>
  <fix>3d</fix>
</trkpt>
<trkpt lat="-27.2722458" lon="151.3220206">
  <ele>525.3</ele>
  <time>2026-09-01T20:01:28Z</time>
  <course>214.76</course>
  <speed>26.96</speed>
  <fix>3d</fix>
</trkpt>
<trkpt lat="-27.2723056" lon="151.3219729">
  <ele>524.71</ele>
  <time>2026-09-01T20:01:28Z</time>
  <course>213.12</course>
  <speed>26.813289615412728</speed>
  <fix>3d</fix>
</trkpt>
<trkpt lat="-27.2722458" lon="151.3220206">
  <ele>525.3</ele>
  <time>2026-09-01T20:01:28Z</time>
  <course>214.76</course>
  <speed>26.96</speed>
  <fix>3d</fix>
</trkpt>
<trkpt lat="-27.272325" lon="151.321957">
  <ele>524.5</ele>
  <time>2026-09-01T20:01:28Z</time>
  <course>213.67</course>
  <speed>26.767818364595946</speed>
  <fix>3d</fix>
</trkpt>
<trkpt lat="-27.2722853" lon="151.3219892">
  <ele>524.92</ele>
  <time>2026-09-01T20:01:28Z</time>
  <course>215.61</course>
  <speed>26.87</speed>
  <fix>3d</fix>
</trkpt>
<trkpt lat="-27.2723444" lon="151.3219408">
  <ele>524.28</ele>
  <time>2026-09-01T20:01:28Z</time>
  <course>214.12</course>
  <speed>26.72488914850724</speed>
  <fix>3d</fix>
</trkpt>
<trkpt lat="-27.2722853" lon="151.3219892">
  <ele>524.92</ele>
  <time>2026-09-01T20:01:28Z</time>
  <course>215.61</course>
  <speed>26.87</speed>
  <fix>3d</fix>
</trkpt>
<trkpt lat="-27.2723637" lon="151.3219249">
  <ele>524.06</ele>
  <time>2026-09-01T20:01:28Z</time>
  <course>214.57</course>
  <speed>26.686432882646567</speed>
  <fix>3d</fix>
</trkpt>
<trkpt lat="-27.2723243" lon="151.3219574">
  <ele>524.5</ele>
  <time>2026-09-01T20:01:28Z</time>
  <course>216.17</course>
  <speed>26.77</speed>
  <fix>3d</fix>
</trkpt>
<trkpt lat="-27.2723829" lon="151.3219088">
  <ele>523.83</ele>
  <time>2026-09-01T20:01:28Z</time>
  <course>214.93</course>
  <speed>26.656158763032604</speed>
  <fix>3d</fix>
</trkpt>
<trkpt lat="-27.2723243" lon="151.3219574">
  <ele>524.5</ele>
  <time>2026-09-01T20:01:28Z</time>
  <course>216.17</course>
  <speed>26.77</speed>
  <fix>3d</fix>
</trkpt>
<trkpt lat="-27.2724021" lon="151.3218927">
  <ele>523.61</ele>
  <time>2026-09-01T20:01:28Z</time>
  <course>215.22</course>
  <speed>26.630067592854513</speed>
  <fix>3d</fix>
</trkpt>
<trkpt lat="-27.272363" lon="151.3219254">
  <ele>524.06</ele>
  <time>2026-09-01T20:01:28Z</time>
  <course>216.52</course>
  <speed>26.69</speed>
  <fix>3d</fix>
</trkpt>
<trkpt lat="-27.2724212" lon="151.3218766">
  <ele>523.4</ele>
  <time>2026-09-01T20:01:28Z</time>
  <course>215.44</course>
  <speed>26.59802436272288</speed>
  <fix>3d</fix>
</trkpt>
<trkpt lat="-27.272363" lon="151.3219254">
  <ele>524.06</ele>
  <time>2026-09-01T20:01:28Z</time>
  <course>216.52</course>
  <speed>26.69</speed>
  <fix>3d</fix>
</trkpt>
<trkpt lat="-27.2724403" lon="151.3218604">
  <ele>523.2</ele>
  <time>2026-09-01T20:01:28Z</time>
  <course>215.62</course>
  <speed>26.56801272206862</speed>
  <fix>3d</fix>
</trkpt>
<trkpt lat="-27.2724014" lon="151.3218933">
  <ele>523.62</ele>
  <time>2026-09-01T20:01:28Z</time>
  <course>216.72</course>
  <speed>26.63</speed>
  <fix>3d</fix>
</trkpt>
<trkpt lat="-27.2724594" lon="151.3218445">
  <ele>523.02</ele>
  <time>2026-09-01T20:01:28Z</time>
  <course>215.76</course>
  <speed>26.542036470474528</speed>
  <fix>3d</fix>
</trkpt>
<trkpt lat="-27.2724014" lon="151.3218933">
  <ele>523.62</ele>
  <time>2026-09-01T20:01:28Z</time>
  <course>216.72</course>
  <speed>26.63</speed>
  <fix>3d</fix>
</trkpt>
<trkpt lat="-27.2724785" lon="151.3218283">
  <ele>522.87</ele>
  <time>2026-09-01T20:01:28Z</time>
  <course>215.83</course>
  <speed>26.502077277073962</speed>
  <fix>3d</fix>
</trkpt>
<trkpt lat="-27.2724397" lon="151.321861">
  <ele>523.21</ele>
  <time>2026-09-01T20:01:28Z</time>
  <course>216.79</course>
  <speed>26.57</speed>
  <fix>3d</fix>
</trkpt>
<trkpt lat="-27.2724976" lon="151.3218124">
  <ele>522.75</ele>
  <time>2026-09-01T20:01:28Z</time>
  <course>215.87</course>
  <speed>26.45821233568134</speed>
  <fix>3d</fix>
</trkpt>
<trkpt lat="-27.2724397" lon="151.321861">
  <ele>523.21</ele>
  <time>2026-09-01T20:01:28Z</time>
  <course>216.79</course>
  <speed>26.57</speed>
  <fix>3d</fix>
</trkpt>
<trkpt lat="-27.2725167" lon="151.3217965">
  <ele>522.66</ele>
  <time>2026-09-01T20:01:28Z</time>
  <course>215.87</course>
  <speed>26.402509350438645</speed>
  <fix>3d</fix>
</trkpt>
<trkpt lat="-27.2724779" lon="151.3218289">
  <ele>522.89</ele>
  <time>2026-09-01T20:01:28Z</time>
  <course>216.71</course>
  <speed>26.5</speed>
  <fix>3d</fix>
</trkpt>
<trkpt lat="-27.2725357" lon="151.3217807">
  <ele>522.61</ele>
  <time>2026-09-01T20:01:28Z</time>
  <course>215.77</course>
  <speed>26.307113106534512</speed>
  <fix>3d</fix>
</trkpt>
<trkpt lat="-27.2724779" lon="151.3218289">
  <ele>522.89</ele>
  <time>2026-09-01T20:01:28Z</time>
  <course>216.71</course>
  <speed>26.5</speed>
  <fix>3d</fix>
</trkpt>
<trkpt lat="-27.2725547" lon="151.321765">
  <ele>522.59</ele>
  <time>2026-09-01T20:01:28Z</time>
  <course>215.65</course>
  <speed>26.168503969466805</speed>
  <fix>3d</fix>
</trkpt>
<trkpt lat="-27.272516" lon="151.3217971">
  <ele>522.68</ele>
  <time>2026-09-01T20:01:28Z</time>
  <course>216.49</course>
  <speed>26.39</speed>
  <fix>3d</fix>
</trkpt>
<trkpt lat="-27.2725737" lon="151.3217496">
  <ele>522.59</ele>
  <time>2026-09-01T20:01:28Z</time>
  <course>215.55</course>
  <speed>25.97332670260011</speed>
  <fix>3d</fix>
</trkpt>
<trkpt lat="-27.272516" lon="151.3217971">
  <ele>522.68</ele>
  <time>2026-09-01T20:01:28Z</time>
  <course>216.49</course>
  <speed>26.39</speed>
  <fix>3d</fix>
</trkpt>
<trkpt lat="-27.2725926" lon="151.3217344">
  <ele>522.63</ele>
  <time>2026-09-01T20:01:28Z</time>
  <course>215.41</course>
  <speed>25.69460060012609</speed>
  <fix>3d</fix>
</trkpt>
<trkpt lat="-27.2725541" lon="151.3217656">
  <ele>522.59</ele>
  <time>2026-09-01T20:01:28Z</time>
  <course>216.03</course>
  <speed>26.15</speed>
  <fix>3d</fix>
</trkpt>
<trkpt lat="-27.2726114" lon="151.3217196">
  <ele>522.7</ele>
  <time>2026-09-01T20:01:28Z</time>
  <course>215.23</course>
  <speed>25.345660378060778</speed>
  <fix>3d</fix>
</trkpt>
<trkpt lat="-27.2725541" lon="151.3217656">
  <ele>522.59</ele>
  <time>2026-09-01T20:01:28Z</time>
  <course>216.03</course>
  <speed>26.15</speed>
  <fix>3d</fix>
</trkpt>
<trkpt lat="-27.27263" lon="151.3217053">
  <ele>522.79</ele>
  <time>2026-09-01T20:01:28Z</time>
  <course>214.98</course>
  <speed>24.940435040311545</speed>
  <fix>3d</fix>
</trkpt>
<trkpt lat="-27.272592" lon="151.321735">
  <ele>522.64</ele>
  <time>2026-09-01T20:01:28Z</time>
  <course>215.23</course>
  <speed>25.67</speed>
  <fix>3d</fix>
</trkpt>
<trkpt lat="-27.2726486" lon="151.3216912">
  <ele>522.93</ele>
  <time>2026-09-01T20:01:28Z</time>
  <course>214.68</course>
  <speed>24.517775184547233</speed>
  <fix>3d</fix>
</trkpt>
<trkpt lat="-27.272592" lon="151.321735">
  <ele>522.64</ele>
  <time>2026-09-01T20:01:28Z</time>
  <course>215.23</course>
  <speed>25.67</speed>
  <fix>3d</fix>
</trkpt>
<trkpt lat="-27.2726668" lon="151.3216775">
  <ele>523.08</ele>
  <time>2026-09-01T20:01:28Z</time>
  <course>214.36</course>
  <speed>24.102018587661906</speed>
  <fix>3d</fix>
</trkpt>
<trkpt lat="-27.2726294" lon="151.3217058">
  <ele>522.81</ele>
  <time>2026-09-01T20:01:28Z</time>
  <course>214.27</course>
  <speed>24.94</speed>
  <fix>3d</fix>
</trkpt>
<trkpt lat="-27.2726847" lon="151.3216642">
  <ele>523.23</ele>
  <time>2026-09-01T20:01:28Z</time>
  <course>214.04</course>
  <speed>23.70911428122105</speed>
  <fix>3d</fix>
</trkpt>
<trkpt lat="-27.2726294" lon="151.3217058">
  <ele>522.81</ele>
  <time>2026-09-01T20:01:28Z</time>
  <course>214.27</course>
  <speed>24.94</speed>
  <fix>3d</fix>
</trkpt>
<trkpt lat="-27.2727024" lon="151.3216513">
  <ele>523.39</ele>
  <time>2026-09-01T20:01:28Z</time>
  <course>213.73</course>
  <speed>23.324744371589585</speed>
  <fix>3d</fix>
</trkpt>
<trkpt lat="-27.272666" lon="151.3216781">
  <ele>523.07</ele>
  <time>2026-09-01T20:01:28Z</time>
  <course>213.46</course>
  <speed>24.13</speed>
  <fix>3d</fix>
</trkpt>
<trkpt lat="-27.2727199" lon="151.3216387">
  <ele>523.53</ele>
  <time>2026-09-01T20:01:28Z</time>
  <course>213.45</course>
  <speed>22.959986933794195</speed>
  <fix>3d</fix>
</trkpt>
<trkpt lat="-27.272666" lon="151.3216781">
  <ele>523.07</ele>
  <time>2026-09-01T20:01:28Z</time>
  <course>213.46</course>
  <speed>24.13</speed>
  <fix>3d</fix>
</trkpt>
<trkpt lat="-27.2727372" lon="151.3216263">
  <ele>523.65</ele>
  <time>2026-09-01T20:01:28Z</time>
  <course>213.21</course>
  <speed>22.62009946927732</speed>
  <fix>3d</fix>
</trkpt>
<trkpt lat="-27.2727017" lon="151.3216519">
  <ele>523.37</ele>
  <time>2026-09-01T20:01:28Z</time>
  <course>212.89</course>
  <speed>23.35</speed>
  <fix>3d</fix>
</trkpt>
<trkpt lat="-27.2727542" lon="151.3216142">
  <ele>523.75</ele>
  <time>2026-09-01T20:01:28Z</time>
  <course>213.02</course>
  <speed>22.30491425672827</speed>
  <fix>3d</fix>
</trkpt>
<trkpt lat="-27.2727017" lon="151.3216519">
  <ele>523.37</ele>
  <time>2026-09-01T20:01:28Z</time>
  <course>212.89</course>
  <speed>23.35</speed>
  <fix>3d</fix>
</trkpt>
<trkpt lat="-27.272771" lon="151.3216022">
  <ele>523.82</ele>
  <time>2026-09-01T20:01:28Z</time>
  <course>212.86</course>
  <speed>21.998295388506808</speed>
  <fix>3d</fix>
</trkpt>
<trkpt lat="-27.2727364" lon="151.3216269">
  <ele>523.63</ele>
  <time>2026-09-01T20:01:28Z</time>
  <course>212.51</course>
  <speed>22.65</speed>
  <fix>3d</fix>
</trkpt>
<trkpt lat="-27.2727876" lon="151.3215904">
  <ele>523.85</ele>
  <time>2026-09-01T20:01:28Z</time>
  <course>212.72</course>
  <speed>21.72469792655355</speed>
  <fix>3d</fix>
</trkpt>
<trkpt lat="-27.2727364" lon="151.3216269">
  <ele>523.63</ele>
  <time>2026-09-01T20:01:28Z</time>
  <course>212.51</course>
  <speed>22.65</speed>
  <fix>3d</fix>
</trkpt>
<trkpt lat="-27.2728041" lon="151.3215789">
  <ele>523.86</ele>
  <time>2026-09-01T20:01:28Z</time>
  <course>212.58</course>
  <speed>21.451177123878306</speed>
  <fix>3d</fix>
</trkpt>
<trkpt lat="-27.2727703" lon="151.3216027">
  <ele>523.8</ele>
  <time>2026-09-01T20:01:28Z</time>
  <course>212.24</course>
  <speed>22.02</speed>
  <fix>3d</fix>
</trkpt>
<trkpt lat="-27.2728203" lon="151.3215674">
  <ele>523.84</ele>
  <time>2026-09-01T20:01:28Z</time>
  <course>212.44</course>
  <speed>21.19679692783794</speed>
  <fix>3d</fix>
</trkpt>
<trkpt lat="-27.2727703" lon="151.3216027">
  <ele>523.8</ele>
  <time>2026-09-01T20:01:28Z</time>
  <course>212.24</course>
  <speed>22.02</speed>
  <fix>3d</fix>
</trkpt>
<trkpt lat="-27.2728364" lon="151.3215562">
  <ele>523.79</ele>
  <time>2026-09-01T20:01:28Z</time>
  <course>212.29</course>
  <speed>20.95623057708614</speed>
  <fix>3d</fix>
</trkpt>
<trkpt lat="-27.2728034" lon="151.3215793">
  <ele>523.84</ele>
  <time>2026-09-01T20:01:28Z</time>
  <course>212.03</course>
  <speed>21.47</speed>
  <fix>3d</fix>
</trkpt>
<trkpt lat="-27.2728523" lon="151.321545">
  <ele>523.73</ele>
  <time>2026-09-01T20:01:28Z</time>
  <course>212.16</course>
  <speed>20.72946694924884</speed>
  <fix>3d</fix>
</trkpt>
<trkpt lat="-27.2728034" lon="151.3215793">
  <ele>523.84</ele>
  <time>2026-09-01T20:01:28Z</time>
  <course>212.03</course>
  <speed>21.47</speed>
  <fix>3d</fix>
</trkpt>
<trkpt lat="-27.272868" lon="151.321534">
  <ele>523.64</ele>
  <time>2026-09-01T20:01:28Z</time>
  <course>212.03</course>
  <speed>20.516495802158808</speed>
  <fix>3d</fix>
</trkpt>
<trkpt lat="-27.2728357" lon="151.3215566">
  <ele>523.78</ele>
  <time>2026-09-01T20:01:28Z</time>
  <course>211.87</course>
  <speed>20.97</speed>
  <fix>3d</fix>
</trkpt>
<trkpt lat="-27.2728836" lon="151.3215233">
  <ele>523.54</ele>
  <time>2026-09-01T20:01:28Z</time>
  <course>211.91</course>
  <speed>20.308798585834662</speed>
  <fix>3d</fix>
</trkpt>
<trkpt lat="-27.2728357" lon="151.3215566">
  <ele>523.78</ele>
  <time>2026-09-01T20:01:28Z</time>
  <course>211.87</course>
  <speed>20.97</speed>
  <fix>3d</fix>
</trkpt>
<trkpt lat="-27.2728991" lon="151.3215124">
  <ele>523.41</ele>
  <time>2026-09-01T20:01:28Z</time>
  <course>211.81</course>
  <speed>20.118136096567195</speed>
  <fix>3d</fix>
</trkpt>
<trkpt lat="-27.2728674" lon="151.3215345">
  <ele>523.64</ele>
  <time>2026-09-01T20:01:28Z</time>
  <course>211.74</course>
  <speed>20.53</speed>
  <fix>3d</fix>
</trkpt>
<trkpt lat="-27.2729144" lon="151.3215018">
  <ele>523.29</ele>
  <time>2026-09-01T20:01:28Z</time>
  <course>211.72</course>
  <speed>19.941256229234906</speed>
  <fix>3d</fix>
</trkpt>
<trkpt lat="-27.2728674" lon="151.3215345">
  <ele>523.64</ele>
  <time>2026-09-01T20:01:28Z</time>
  <course>211.74</course>
  <speed>20.53</speed>
  <fix>3d</fix>
</trkpt>
<trkpt lat="-27.2729296" lon="151.3214913">
  <ele>523.15</ele>
  <time>2026-09-01T20:01:28Z</time>
  <course>211.65</course>
  <speed>19.764397284005398</speed>
  <fix>3d</fix>
</trkpt>
<trkpt lat="-27.2728984" lon="151.3215129">
  <ele>523.42</ele>
  <time>2026-09-01T20:01:28Z</time>
  <course>211.63</course>
  <speed>20.13</speed>
  <fix>3d</fix>
</trkpt>
<trkpt lat="-27.2729447" lon="151.3214811">
  <ele>523.0</ele>
  <time>2026-09-01T20:01:28Z</time>
  <course>211.59</course>
  <speed>19.60130862978286</speed>
  <fix>3d</fix>
</trkpt>
<trkpt lat="-27.2728984" lon="151.3215129">
  <ele>523.42</ele>
  <time>2026-09-01T20:01:28Z</time>
  <course>211.63</course>
  <speed>20.13</speed>
  <fix>3d</fix>
</trkpt>
<trkpt lat="-27.2729596" lon="151.3214707">
  <ele>522.85</ele>
  <time>2026-09-01T20:01:28Z</time>
  <course>211.54</course>
  <speed>19.43823551663062</speed>
  <fix>3d</fix>
</trkpt>
<trkpt lat="-27.2729291" lon="151.3214918">
  <ele>523.15</ele>
  <time>2026-09-01T20:01:28Z</time>
  <course>211.52</course>
  <speed>19.78</speed>
  <fix>3d</fix>
</trkpt>
<trkpt lat="-27.2729745" lon="151.3214606">
  <ele>522.68</ele>
  <time>2026-09-01T20:01:28Z</time>
  <course>211.48</course>
  <speed>19.288921690960333</speed>
  <fix>3d</fix>
</trkpt>
<trkpt lat="-27.2729291" lon="151.3214918">
  <ele>523.15</ele>
  <time>2026-09-01T20:01:28Z</time>
  <course>211.52</course>
  <speed>19.78</speed>
  <fix>3d</fix>
</trkpt>
<trkpt lat="-27.2729892" lon="151.3214505">
  <ele>522.52</ele>
  <time>2026-09-01T20:01:28Z</time>
  <course>211.43</course>
  <speed>19.148161791670763</speed>
  <fix>3d</fix>
</trkpt>
<trkpt lat="-27.2729592" lon="151.321471">
  <ele>522.84</ele>
  <time>2026-09-01T20:01:28Z</time>
  <course>211.42</course>
  <speed>19.45</speed>
  <fix>3d</fix>
</trkpt>
<trkpt lat="-27.2730043" lon="151.3214401">
  <ele>522.34</ele>
  <time>2026-09-01T20:01:28Z</time>
  <course>211.38</course>
  <speed>19.0126116038802</speed>
  <fix>3d</fix>
</trkpt>
<trkpt lat="-27.2729888" lon="151.3214507">
  <ele>522.52</ele>
  <time>2026-09-01T20:01:28Z</time>
  <course>211.32</course>
  <speed>19.16</speed>
  <fix>3d</fix>
</trkpt>
<trkpt lat="-27.2730189" lon="151.3214301">
  <ele>522.16</ele>
  <time>2026-09-01T20:01:28Z</time>
  <course>211.33</course>
  <speed>18.87188384873116</speed>
  <fix>3d</fix>
</trkpt>
<trkpt lat="-27.2729888" lon="151.3214507">
  <ele>522.52</ele>
  <time>2026-09-01T20:01:28Z</time>
  <course>211.32</course>
  <speed>19.16</speed>
  <fix>3d</fix>
</trkpt>
<trkpt lat="-27.2730333" lon="151.3214203">
  <ele>521.98</ele>
  <time>2026-09-01T20:01:28Z</time>
  <course>211.28</course>
  <speed>18.750085333139154</speed>
  <fix>3d</fix>
</trkpt>
<trkpt lat="-27.273018" lon="151.3214307">
  <ele>522.16</ele>
  <time>2026-09-01T20:01:28Z</time>
  <course>211.23</course>
  <speed>18.89</speed>
  <fix>3d</fix>
</trkpt>
<trkpt lat="-27.2730477" lon="151.3214106">
  <ele>521.79</ele>
  <time>2026-09-01T20:01:28Z</time>
  <course>211.23</course>
  <speed>18.623117354513987</speed>
  <fix>3d</fix>
</trkpt>
<trkpt lat="-27.273018" lon="151.3214307">
  <ele>522.16</ele>
  <time>2026-09-01T20:01:28Z</time>
  <course>211.23</course>
  <speed>18.89</speed>
  <fix>3d</fix>
</trkpt>
<trkpt lat="-27.273062" lon="151.3214008">
  <ele>521.61</ele>
  <time>2026-09-01T20:01:28Z</time>
  <course>211.19</course>
  <speed>18.501329681944483</speed>
  <fix>3d</fix>
</trkpt>
<trkpt lat="-27.2730468" lon="151.3214111">
  <ele>521.8</ele>
  <time>2026-09-01T20:01:28Z</time>
  <course>211.15</course>
  <speed>18.63</speed>
  <fix>3d</fix>
</trkpt>
<trkpt lat="-27.2730762" lon="151.3213912">
  <ele>521.43</ele>
  <time>2026-09-01T20:01:28Z</time>
  <course>211.15</course>
  <speed>18.388110288988372</speed>
  <fix>3d</fix>
</trkpt>
<trkpt lat="-27.2730468" lon="151.3214111">
  <ele>521.8</ele>
  <time>2026-09-01T20:01:28Z</time>
  <course>211.15</course>
  <speed>18.63</speed>
  <fix>3d</fix>
</trkpt>
<trkpt lat="-27.2730899" lon="151.3213819">
  <ele>521.24</ele>
  <time>2026-09-01T20:01:28Z</time>
  <course>211.11</course>
  <speed>18.27490082052431</speed>
  <fix>3d</fix>
</trkpt>
<trkpt lat="-27.2730468" lon="151.3214111">
  <ele>521.8</ele>
  <time>2026-09-01T20:01:28Z</time>
  <course>211.15</course>
  <speed>18.63</speed>
  <fix>3d</fix>
</trkpt>
<trkpt lat="-27.2731039" lon="151.3213724">
  <ele>521.04</ele>
  <time>2026-09-01T20:01:28Z</time>
  <course>211.07</course>
  <speed>18.17542296619256</speed>
  <fix>3d</fix>
</trkpt>
<trkpt lat="-27.2730752" lon="151.3213917">
  <ele>521.43</ele>
  <time>2026-09-01T20:01:28Z</time>
  <course>211.07</course>
  <speed>18.4</speed>
  <fix>3d</fix>
</trkpt>
<trkpt lat="-27.2731179" lon="151.321363">
  <ele>520.86</ele>
  <time>2026-09-01T20:01:28Z</time>
  <course>211.04</course>
  <speed>18.067376677315387</speed>
  <fix>3d</fix>
</trkpt>
<trkpt lat="-27.2730752" lon="151.3213917">
  <ele>521.43</ele>
  <time>2026-09-01T20:01:28Z</time>
  <course>211.07</course>
  <speed>18.4</speed>
  <fix>3d</fix>
</trkpt>
<trkpt lat="-27.2731318" lon="151.3213535">
  <ele>520.66</ele>
  <time>2026-09-01T20:01:28Z</time>
  <course>211.0</course>
  <speed>17.9627670474234</speed>
  <fix>3d</fix>
</trkpt>
<trkpt lat="-27.2731034" lon="151.3213727">
  <ele>521.05</ele>
  <time>2026-09-01T20:01:28Z</time>
  <course>211.0</course>
  <speed>18.18</speed>
  <fix>3d</fix>
</trkpt>
<trkpt lat="-27.2731456" lon="151.3213443">
  <ele>520.47</ele>
  <time>2026-09-01T20:01:28Z</time>
  <course>210.97</course>
  <speed>17.863308764056004</speed>
  <fix>3d</fix>
</trkpt>
<trkpt lat="-27.2731034" lon="151.3213727">
  <ele>521.05</ele>
  <time>2026-09-01T20:01:28Z</time>
  <course>211.0</course>
  <speed>18.18</speed>
  <fix>3d</fix>
</trkpt>
<trkpt lat="-27.2731593" lon="151.3213351">
  <ele>520.27</ele>
  <time>2026-09-01T20:01:28Z</time>
  <course>210.93</course>
  <speed>17.777570137676296</speed>
  <fix>3d</fix>
</trkpt>
<trkpt lat="-27.2731312" lon="151.3213539">
  <ele>520.66</ele>
  <time>2026-09-01T20:01:28Z</time>
  <course>210.93</course>
  <speed>17.97</speed>
  <fix>3d</fix>
</trkpt>
<trkpt lat="-27.273173" lon="151.3213259">
  <ele>520.07</ele>
  <time>2026-09-01T20:01:28Z</time>
  <course>210.9</course>
  <speed>17.678122072211178</speed>
  <fix>3d</fix>
</trkpt>
<trkpt lat="-27.2731312" lon="151.3213539">
  <ele>520.66</ele>
  <time>2026-09-01T20:01:28Z</time>
  <course>210.93</course>
  <speed>17.97</speed>
  <fix>3d</fix>
</trkpt>
<trkpt lat="-27.2731866" lon="151.3213168">
  <ele>519.88</ele>
  <time>2026-09-01T20:01:28Z</time>
  <course>210.87</course>
  <speed>17.59239040039755</speed>
  <fix>3d</fix>
</trkpt>
<trkpt lat="-27.2731588" lon="151.3213354">
  <ele>520.27</ele>
  <time>2026-09-01T20:01:28Z</time>
  <course>210.87</course>
  <speed>17.78</speed>
  <fix>3d</fix>
</trkpt>
<trkpt lat="-27.2732001" lon="151.3213077">
  <ele>519.68</ele>
  <time>2026-09-01T20:01:28Z</time>
  <course>210.83</course>
  <speed>17.501545646027953</speed>
  <fix>3d</fix>
</trkpt>
<trkpt lat="-27.2731588" lon="151.3213354">
  <ele>520.27</ele>
  <time>2026-09-01T20:01:28Z</time>
  <course>210.87</course>
  <speed>17.78</speed>
  <fix>3d</fix>
</trkpt>
<trkpt lat="-27.2732136" lon="151.3212987">
  <ele>519.48</ele>
  <time>2026-09-01T20:01:28Z</time>
  <course>210.8</course>
  <speed>17.415823265065594</speed>
  <fix>3d</fix>
</trkpt>
<trkpt lat="-27.273186" lon="151.321317">
  <ele>519.88</ele>
  <time>2026-09-01T20:01:28Z</time>
  <course>210.8</course>
  <speed>17.6</speed>
  <fix>3d</fix>
</trkpt>
<trkpt lat="-27.273227" lon="151.3212897">
  <ele>519.28</ele>
  <time>2026-09-01T20:01:28Z</time>
  <course>210.77</course>
  <speed>17.330103865816845</speed>
  <fix>3d</fix>
</trkpt>
<trkpt lat="-27.273186" lon="151.321317">
  <ele>519.88</ele>
  <time>2026-09-01T20:01:28Z</time>
  <course>210.8</course>
  <speed>17.6</speed>
  <fix>3d</fix>
</trkpt>
<trkpt lat="-27.2732404" lon="151.3212807">
  <ele>519.07</ele>
  <time>2026-09-01T20:01:28Z</time>
  <course>210.75</course>
  <speed>17.258090856175258</speed>
  <fix>3d</fix>
</trkpt>
<trkpt lat="-27.2732132" lon="151.3212989">
  <ele>519.47</ele>
  <time>2026-09-01T20:01:28Z</time>
  <course>210.75</course>
  <speed>17.42</speed>
  <fix>3d</fix>
</trkpt>
<trkpt lat="-27.2732537" lon="151.3212719">
  <ele>518.87</ele>
  <time>2026-09-01T20:01:28Z</time>
  <course>210.72</course>
  <speed>17.172376073217123</speed>
  <fix>3d</fix>
</trkpt>
<trkpt lat="-27.2732132" lon="151.3212989">
  <ele>519.47</ele>
  <time>2026-09-01T20:01:28Z</time>
  <course>210.75</course>
  <speed>17.42</speed>
  <fix>3d</fix>
</trkpt>
<trkpt lat="-27.2732669" lon="151.321263">
  <ele>518.66</ele>
  <time>2026-09-01T20:01:28Z</time>
  <course>210.69</course>
  <speed>17.09526835121344</speed>
  <fix>3d</fix>
</trkpt>
<trkpt lat="-27.27324" lon="151.321281">
  <ele>519.08</ele>
  <time>2026-09-01T20:01:28Z</time>
  <course>210.69</course>
  <speed>17.26</speed>
  <fix>3d</fix>
</trkpt>
<trkpt lat="-27.2732801" lon="151.3212543">
  <ele>518.47</ele>
  <time>2026-09-01T20:01:28Z</time>
  <course>210.66</course>
  <speed>17.02326055724931</speed>
  <fix>3d</fix>
</trkpt>
<trkpt lat="-27.27324" lon="151.321281">
  <ele>519.08</ele>
  <time>2026-09-01T20:01:28Z</time>
  <course>210.69</course>
  <speed>17.26</speed>
  <fix>3d</fix>
</trkpt>
<trkpt lat="-27.2732937" lon="151.3212452">
  <ele>518.26</ele>
  <time>2026-09-01T20:01:28Z</time>
  <course>210.63</course>
  <speed>16.946164757844176</speed>
  <fix>3d</fix>
</trkpt>
<trkpt lat="-27.2732666" lon="151.3212633">
  <ele>518.67</ele>
  <time>2026-09-01T20:01:28Z</time>
  <course>210.64</course>
  <speed>17.1</speed>
  <fix>3d</fix>
</trkpt>
<trkpt lat="-27.2733068" lon="151.3212365">
  <ele>518.04</ele>
  <time>2026-09-01T20:01:28Z</time>
  <course>210.61</course>
  <speed>16.882772284195507</speed>
  <fix>3d</fix>
</trkpt>
<trkpt lat="-27.2732929" lon="151.3212457">
  <ele>518.26</ele>
  <time>2026-09-01T20:01:28Z</time>
  <course>210.58</course>
  <speed>16.96</speed>
  <fix>3d</fix>
</trkpt>
<trkpt lat="-27.2714825" lon="151.3252915">
  <ele>540.72</ele>
  <time>2026-09-01T20:01:28Z</time>
  <course>250.81</course>
  <speed>11.965822161473067</speed>
  <fix>3d</fix>
</trkpt>
<trkpt lat="-27.2732929" lon="151.3212457">
  <ele>518.26</ele>
  <time>2026-09-01T20:01:28Z</time>
  <course>210.58</course>
  <speed>16.96</speed>
  <fix>3d</fix>
</trkpt>
<trkpt lat="-27.2714851" lon="151.3252803">
  <ele>536.86</ele>
  <time>2026-09-01T20:01:28Z</time>
  <course>250.38</course>
  <speed>11.452624153441866</speed>
  <fix>3d</fix>
</trkpt>
<trkpt lat="-27.2723955" lon="151.323259">
  <ele>527.57</ele>
  <time>2026-09-01T20:01:28Z</time>
  <course>228.27</course>
  <speed>13.14</speed>
  <fix>3d</fix>
</trkpt>
<trkpt lat="-27.2714887" lon="151.3252689">
  <ele>533.02</ele>
  <time>2026-09-01T20:01:28Z</time>
  <course>236.71</course>
  <speed>12.785648204138887</speed>
  <fix>3d</fix>
</trkpt>
<trkpt lat="-27.2723955" lon="151.323259">
  <ele>527.57</ele>
  <time>2026-09-01T20:01:28Z</time>
  <course>228.27</course>
  <speed>13.14</speed>
  <fix>3d</fix>
</trkpt>
<trkpt lat="-27.2714954" lon="151.3252575">
  <ele>529.24</ele>
  <time>2026-09-01T20:01:28Z</time>
  <course>216.63</course>
  <speed>14.175052028123211</speed>
  <fix>3d</fix>
</trkpt>
<trkpt lat="-27.2714899" lon="151.3252695">
  <ele>533.27</ele>
  <time>2026-09-01T20:01:28Z</time>
  <course>240.81</course>
  <speed>12.45</speed>
  <fix>3d</fix>
</trkpt>
<trkpt lat="-27.2715051" lon="151.3252478">
  <ele>525.49</ele>
  <time>2026-09-01T20:01:28Z</time>
  <course>202.24</course>
  <speed>14.652443482231897</speed>
  <fix>3d</fix>
</trkpt>
<trkpt lat="-27.2714899" lon="151.3252695">
  <ele>533.27</ele>
  <time>2026-09-01T20:01:28Z</time>
  <course>240.81</course>
  <speed>12.45</speed>
  <fix>3d</fix>
</trkpt>
<trkpt lat="-27.271516" lon="151.3252391">
  <ele>521.76</ele>
  <time>2026-09-01T20:01:28Z</time>
  <course>205.62</course>
  <speed>15.532034638127744</speed>
  <fix>3d</fix>
</trkpt>
<trkpt lat="-27.2715051" lon="151.3252488">
  <ele>525.71</ele>
  <time>2026-09-01T20:01:28Z</time>
  <course>223.09</course>
  <speed>14.67</speed>
  <fix>3d</fix>
</trkpt>
<trkpt lat="-27.271527" lon="151.3252254">
  <ele>518.2</ele>
  <time>2026-09-01T20:01:28Z</time>
  <course>224.4</course>
  <speed>21.90299751175624</speed>
  <fix>3d</fix>
</trkpt>
<trkpt lat="-27.2715051" lon="151.3252488">
  <ele>525.71</ele>
  <time>2026-09-01T20:01:28Z</time>
  <course>223.09</course>
  <speed>14.67</speed>
  <fix>3d</fix>
</trkpt>
<trkpt lat="-27.271539" lon="151.3252029">
  <ele>515.23</ele>
  <time>2026-09-01T20:01:28Z</time>
  <course>233.09</course>
  <speed>29.753408208136424</speed>
  <fix>3d</fix>
</trkpt>
<trkpt lat="-27.2715268" lon="151.3252221">
  <ele>518.67</ele>
  <time>2026-09-01T20:01:28Z</time>
  <course>232.8</course>
  <speed>21.94</speed>
  <fix>3d</fix>
</trkpt>
<trkpt lat="-27.271553" lon="151.3251741">
  <ele>513.14</ele>
  <time>2026-09-01T20:01:28Z</time>
  <course>235.46</course>
  <speed>34.95577920745009</speed>
  <fix>3d</fix>
</trkpt>
<trkpt lat="-27.2715268" lon="151.3252221">
  <ele>518.67</ele>
  <time>2026-09-01T20:01:28Z</time>
  <course>232.8</course>
  <speed>21.94</speed>
  <fix>3d</fix>
</trkpt>
<trkpt lat="-27.2715695" lon="151.3251425">
  <ele>512.01</ele>
  <time>2026-09-01T20:01:28Z</time>
  <course>232.09</course>
  <speed>37.042875158389094</speed>
  <fix>3d</fix>
</trkpt>
<trkpt lat="-27.2715534" lon="151.3251745">
  <ele>513.71</ele>
  <time>2026-09-01T20:01:28Z</time>
  <course>239.14</course>
  <speed>33.16</speed>
  <fix>3d</fix>
</trkpt>
<trkpt lat="-27.2715883" lon="151.3251127">
  <ele>511.72</ele>
  <time>2026-09-01T20:01:28Z</time>
  <course>225.9</course>
  <speed>36.89491157327796</speed>
  <fix>3d</fix>
</trkpt>
<trkpt lat="-27.2715534" lon="151.3251745">
  <ele>513.71</ele>
  <time>2026-09-01T20:01:28Z</time>
  <course>239.14</course>
  <speed>33.16</speed>
  <fix>3d</fix>
</trkpt>
<trkpt lat="-27.2716101" lon="151.3250855">
  <ele>512.04</ele>
  <time>2026-09-01T20:01:28Z</time>
  <course>219.0</course>
  <speed>35.6489901680258</speed>
  <fix>3d</fix>
</trkpt>
<trkpt lat="-27.2715534" lon="151.3251745">
  <ele>513.71</ele>
  <time>2026-09-01T20:01:28Z</time>
  <course>239.14</course>
  <speed>33.16</speed>
  <fix>3d</fix>
</trkpt>
<trkpt lat="-27.271634" lon="151.3250627">
  <ele>512.79</ele>
  <time>2026-09-01T20:01:28Z</time>
  <course>212.81</course>
  <speed>34.13451772033699</speed>
  <fix>3d</fix>
</trkpt>
<trkpt lat="-27.2715889" lon="151.3251153">
  <ele>512.04</ele>
  <time>2026-09-01T20:01:28Z</time>
  <course>231.24</course>
  <speed>36.1</speed>
  <fix>3d</fix>
</trkpt>
<trkpt lat="-27.2716591" lon="151.3250443">
  <ele>513.82</ele>
  <time>2026-09-01T20:01:28Z</time>
  <course>207.89</course>
  <speed>32.752630428715186</speed>
  <fix>3d</fix>
</trkpt>
<trkpt lat="-27.2715889" lon="151.3251153">
  <ele>512.04</ele>
  <time>2026-09-01T20:01:28Z</time>
  <course>231.24</course>
  <speed>36.1</speed>
  <fix>3d</fix>
</trkpt>
<trkpt lat="-27.2716848" lon="151.3250295">
  <ele>514.99</ele>
  <time>2026-09-01T20:01:28Z</time>
  <course>204.48</course>
  <speed>31.58812751652114</speed>
  <fix>3d</fix>
</trkpt>
<trkpt lat="-27.2716338" lon="151.3250655">
  <ele>512.91</ele>
  <time>2026-09-01T20:01:28Z</time>
  <course>217.53</course>
  <speed>33.98</speed>
  <fix>3d</fix>
</trkpt>
<trkpt lat="-27.2717106" lon="151.3250174">
  <ele>516.22</ele>
  <time>2026-09-01T20:01:28Z</time>
  <course>202.58</course>
  <speed>30.64321947837727</speed>
  <fix>3d</fix>
</trkpt>
<trkpt lat="-27.2716338" lon="151.3250655">
  <ele>512.91</ele>
  <time>2026-09-01T20:01:28Z</time>
  <course>217.53</course>
  <speed>33.98</speed>
  <fix>3d</fix>
</trkpt>
<trkpt lat="-27.2717362" lon="151.3250071">
  <ele>517.49</ele>
  <time>2026-09-01T20:01:28Z</time>
  <course>201.88</course>
  <speed>29.903060044082444</speed>
  <fix>3d</fix>
</trkpt>
<trkpt lat="-27.2716841" lon="151.3250312">
  <ele>514.99</ele>
  <time>2026-09-01T20:01:28Z</time>
  <course>205.66</course>
  <speed>31.63</speed>
  <fix>3d</fix>
</trkpt>
<trkpt lat="-27.2717615" lon="151.3249976">
  <ele>518.74</ele>
  <time>2026-09-01T20:01:28Z</time>
  <course>201.93</course>
  <speed>29.366681800979833</speed>
  <fix>3d</fix>
</trkpt>
<trkpt lat="-27.2716841" lon="151.3250312">
  <ele>514.99</ele>
  <time>2026-09-01T20:01:28Z</time>
  <course>205.66</course>
  <speed>31.63</speed>
  <fix>3d</fix>
</trkpt>
<trkpt lat="-27.2717872" lon="151.3249885">
  <ele>519.98</ele>
  <time>2026-09-01T20:01:28Z</time>
  <course>202.12</course>
  <speed>28.985418748053302</speed>
  <fix>3d</fix>
</trkpt>
<trkpt lat="-27.2717354" lon="151.3250078">
  <ele>517.45</ele>
  <time>2026-09-01T20:01:28Z</time>
  <course>199.44</course>
  <speed>30.01</speed>
  <fix>3d</fix>
</trkpt>
<trkpt lat="-27.2718119" lon="151.3249796">
  <ele>521.11</ele>
  <time>2026-09-01T20:01:28Z</time>
  <course>202.04</course>
  <speed>28.75636451292131</speed>
  <fix>3d</fix>
</trkpt>
<trkpt lat="-27.2717856" lon="151.324989">
  <ele>519.87</ele>
  <time>2026-09-01T20:01:28Z</time>
  <course>197.8</course>
  <speed>29.08</speed>
  <fix>3d</fix>
</trkpt>
<trkpt lat="-27.2718365" lon="151.3249707">
  <ele>522.13</ele>
  <time>2026-09-01T20:01:28Z</time>
  <course>201.66</course>
  <speed>28.63166428973349</speed>
  <fix>3d</fix>
</trkpt>
<trkpt lat="-27.2717856" lon="151.324989">
  <ele>519.87</ele>
  <time>2026-09-01T20:01:28Z</time>
  <course>197.8</course>
  <speed>29.08</speed>
  <fix>3d</fix>
</trkpt>
<trkpt lat="-27.2718608" lon="151.3249616">
  <ele>523.04</ele>
  <time>2026-09-01T20:01:28Z</time>
  <course>200.98</course>
  <speed>28.552206569720667</speed>
  <fix>3d</fix>
</trkpt>
<trkpt lat="-27.2718349" lon="151.3249712">
  <ele>522.02</ele>
  <time>2026-09-01T20:01:28Z</time>
  <course>198.09</course>
  <speed>28.66</speed>
  <fix>3d</fix>
</trkpt>
<trkpt lat="-27.2718851" lon="151.3249525">
  <ele>523.84</ele>
  <time>2026-09-01T20:01:28Z</time>
  <course>200.13</course>
  <speed>28.47961025014212</speed>
  <fix>3d</fix>
</trkpt>
<trkpt lat="-27.2718349" lon="151.3249712">
  <ele>522.02</ele>
  <time>2026-09-01T20:01:28Z</time>
  <course>198.09</course>
  <speed>28.66</speed>
  <fix>3d</fix>
</trkpt>
<trkpt lat="-27.2719093" lon="151.3249433">
  <ele>524.52</ele>
  <time>2026-09-01T20:01:28Z</time>
  <course>199.32</course>
  <speed>28.403950429473717</speed>
  <fix>3d</fix>
</trkpt>
<trkpt lat="-27.2718836" lon="151.324953">
  <ele>523.74</ele>
  <time>2026-09-01T20:01:28Z</time>
  <course>198.56</course>
  <speed>28.48</speed>
  <fix>3d</fix>
</trkpt>
<trkpt lat="-27.2719334" lon="151.3249341">
  <ele>525.08</ele>
  <time>2026-09-01T20:01:28Z</time>
  <course>198.58</course>
  <speed>28.31248664458846</speed>
  <fix>3d</fix>
</trkpt>
<trkpt lat="-27.2718836" lon="151.324953">
  <ele>523.74</ele>
  <time>2026-09-01T20:01:28Z</time>
  <course>198.56</course>
  <speed>28.48</speed>
  <fix>3d</fix>
</trkpt>
<trkpt lat="-27.2719574" lon="151.3249248">
  <ele>525.54</ele>
  <time>2026-09-01T20:01:28Z</time>
  <course>198.04</course>
  <speed>28.192702956616273</speed>
  <fix>3d</fix>
</trkpt>
<trkpt lat="-27.2719319" lon="151.3249346">
  <ele>525.0</ele>
  <time>2026-09-01T20:01:28Z</time>
  <course>198.81</course>
  <speed>28.31</speed>
  <fix>3d</fix>
</trkpt>
<trkpt lat="-27.2719813" lon="151.3249156">
  <ele>525.91</ele>
  <time>2026-09-01T20:01:28Z</time>
  <course>197.66</course>
  <speed>28.073355695392028</speed>
  <fix>3d</fix>
</trkpt>
<trkpt lat="-27.2719319" lon="151.3249346">
  <ele>525.0</ele>
  <time>2026-09-01T20:01:28Z</time>
  <course>198.81</course>
  <speed>28.31</speed>
  <fix>3d</fix>
</trkpt>
<trkpt lat="-27.2720051" lon="151.3249062">
  <ele>526.21</ele>
  <time>2026-09-01T20:01:28Z</time>
  <course>197.49</course>
  <speed>27.958039988525663</speed>
  <fix>3d</fix>
</trkpt>
<trkpt lat="-27.2719798" lon="151.3249161">
  <ele>525.85</ele>
  <time>2026-09-01T20:01:28Z</time>
  <course>199.12</course>
  <speed>28.09</speed>
  <fix>3d</fix>
</trkpt>
<trkpt lat="-27.2720287" lon="151.3248968">
  <ele>526.43</ele>
  <time>2026-09-01T20:01:28Z</time>
  <course>197.55</course>
  <speed>27.84126793089711</speed>
  <fix>3d</fix>
</trkpt>
<trkpt lat="-27.2719798" lon="151.3249161">
  <ele>525.85</ele>
  <time>2026-09-01T20:01:28Z</time>
  <course>199.12</course>
  <speed>28.09</speed>
  <fix>3d</fix>
</trkpt>
<trkpt lat="-27.2720522" lon="151.3248873">
  <ele>526.58</ele>
  <time>2026-09-01T20:01:28Z</time>
  <course>197.82</course>
  <speed>27.73347796436646</speed>
  <fix>3d</fix>
</trkpt>
<trkpt lat="-27.2720272" lon="151.3248972">
  <ele>526.38</ele>
  <time>2026-09-01T20:01:28Z</time>
  <course>199.74</course>
  <speed>27.85</speed>
  <fix>3d</fix>
</trkpt>
<trkpt lat="-27.2720755" lon="151.3248774">
  <ele>526.69</ele>
  <time>2026-09-01T20:01:28Z</time>
  <course>198.27</course>
  <speed>27.639495292063494</speed>
  <fix>3d</fix>
</trkpt>
<trkpt lat="-27.2720272" lon="151.3248972">
  <ele>526.38</ele>
  <time>2026-09-01T20:01:28Z</time>
  <course>199.74</course>
  <speed>27.85</speed>
  <fix>3d</fix>
</trkpt>
<trkpt lat="-27.2720986" lon="151.3248673">
  <ele>526.74</ele>
  <time>2026-09-01T20:01:28Z</time>
  <course>198.91</course>
  <speed>27.55193278156725</speed>
  <fix>3d</fix>
</trkpt>
<trkpt lat="-27.2720739" lon="151.3248779">
  <ele>526.66</ele>
  <time>2026-09-01T20:01:28Z</time>
  <course>200.82</course>
  <speed>27.65</speed>
  <fix>3d</fix>
</trkpt>
<trkpt lat="-27.2721215" lon="151.3248569">
  <ele>526.76</ele>
  <time>2026-09-01T20:01:28Z</time>
  <course>199.72</course>
  <speed>27.47327610606351</speed>
  <fix>3d</fix>
</trkpt>
<trkpt lat="-27.2720739" lon="151.3248779">
  <ele>526.66</ele>
  <time>2026-09-01T20:01:28Z</time>
  <course>200.82</course>
  <speed>27.65</speed>
  <fix>3d</fix>
</trkpt>
<trkpt lat="-27.2721442" lon="151.3248462">
  <ele>526.74</ele>
  <time>2026-09-01T20:01:28Z</time>
  <course>200.64</course>
  <speed>27.407708769614434</speed>
  <fix>3d</fix>
</trkpt>
<trkpt lat="-27.27212" lon="151.3248574">
  <ele>526.74</ele>
  <time>2026-09-01T20:01:28Z</time>
  <course>202.39</course>
  <speed>27.48</speed>
  <fix>3d</fix>
</trkpt>
<trkpt lat="-27.2721667" lon="151.324835">
  <ele>526.7</ele>
  <time>2026-09-01T20:01:28Z</time>
  <course>201.65</course>
  <speed>27.34823760318021</speed>
  <fix>3d</fix>
</trkpt>
<trkpt lat="-27.27212" lon="151.3248574">
  <ele>526.74</ele>
  <time>2026-09-01T20:01:28Z</time>
  <course>202.39</course>
  <speed>27.48</speed>
  <fix>3d</fix>
</trkpt>
<trkpt lat="-27.2721889" lon="151.3248233">
  <ele>526.62</ele>
  <time>2026-09-01T20:01:28Z</time>
  <course>202.79</course>
  <speed>27.302111639944627</speed>
  <fix>3d</fix>
</trkpt>
<trkpt lat="-27.2721653" lon="151.3248354">
  <ele>526.69</ele>
  <time>2026-09-01T20:01:28Z</time>
  <course>204.4</course>
  <speed>27.35</speed>
  <fix>3d</fix>
</trkpt>
<trkpt lat="-27.2722109" lon="151.3248112">
  <ele>526.52</ele>
  <time>2026-09-01T20:01:28Z</time>
  <course>204.05</course>
  <speed>27.257897938028897</speed>
  <fix>3d</fix>
</trkpt>
<trkpt lat="-27.2721653" lon="151.3248354">
  <ele>526.69</ele>
  <time>2026-09-01T20:01:28Z</time>
  <course>204.4</course>
  <speed>27.35</speed>
  <fix>3d</fix>
</trkpt>
<trkpt lat="-27.2722326" lon="151.3247984">
  <ele>526.41</ele>
  <time>2026-09-01T20:01:28Z</time>
  <course>205.34</course>
  <speed>27.22706006898284</speed>
  <fix>3d</fix>
</trkpt>
<trkpt lat="-27.2722097" lon="151.3248116">
  <ele>526.52</ele>
  <time>2026-09-01T20:01:28Z</time>
  <course>206.76</course>
  <speed>27.26</speed>
  <fix>3d</fix>
</trkpt>
<trkpt lat="-27.2722535" lon="151.3247855">
  <ele>526.28</ele>
  <time>2026-09-01T20:01:28Z</time>
  <course>206.62</course>
  <speed>27.192620322433072</speed>
  <fix>3d</fix>
</trkpt>
<trkpt lat="-27.2722097" lon="151.3248116">
  <ele>526.52</ele>
  <time>2026-09-01T20:01:28Z</time>
  <course>206.76</course>
  <speed>27.26</speed>
  <fix>3d</fix>
</trkpt>
<trkpt lat="-27.2722753" lon="151.3247714">
  <ele>526.12</ele>
  <time>2026-09-01T20:01:28Z</time>
  <course>207.95</course>
  <speed>27.153462026047432</speed>
  <fix>3d</fix>
</trkpt>
<trkpt lat="-27.2722528" lon="151.3247857">
  <ele>526.27</ele>
  <time>2026-09-01T20:01:28Z</time>
  <course>209.38</course>
  <speed>27.18</speed>
  <fix>3d</fix>
</trkpt>
<trkpt lat="-27.2722961" lon="151.3247571">
  <ele>525.96</ele>
  <time>2026-09-01T20:01:28Z</time>
  <course>209.08</course>
  <speed>27.126477839926068</speed>
  <fix>3d</fix>
</trkpt>
<trkpt lat="-27.2722528" lon="151.3247857">
  <ele>526.27</ele>
  <time>2026-09-01T20:01:28Z</time>
  <course>209.38</course>
  <speed>27.18</speed>
  <fix>3d</fix>
</trkpt>
<trkpt lat="-27.2723166" lon="151.3247422">
  <ele>525.79</ele>
  <time>2026-09-01T20:01:28Z</time>
  <course>210.02</course>
  <speed>27.0947762493068</speed>
  <fix>3d</fix>
</trkpt>
<trkpt lat="-27.2722947" lon="151.3247576">
  <ele>525.96</ele>
  <time>2026-09-01T20:01:28Z</time>
  <course>212.02</course>
  <speed>27.12</speed>
  <fix>3d</fix>
</trkpt>
<trkpt lat="-27.2723368" lon="151.324727">
  <ele>525.62</ele>
  <time>2026-09-01T20:01:28Z</time>
  <course>210.86</course>
  <speed>27.06053214554363</speed>
  <fix>3d</fix>
</trkpt>
<trkpt lat="-27.2722947" lon="151.3247576">
  <ele>525.96</ele>
  <time>2026-09-01T20:01:28Z</time>
  <course>212.02</course>
  <speed>27.12</speed>
  <fix>3d</fix>
</trkpt>
<trkpt lat="-27.2723567" lon="151.3247113">
  <ele>525.44</ele>
  <time>2026-09-01T20:01:28Z</time>
  <course>211.61</course>
  <speed>27.027752403779342</speed>
  <fix>3d</fix>
</trkpt>
<trkpt lat="-27.2723354" lon="151.3247276">
  <ele>525.62</ele>
  <time>2026-09-01T20:01:28Z</time>
  <course>214.28</course>
  <speed>27.06</speed>
  <fix>3d</fix>
</trkpt>
<trkpt lat="-27.2723764" lon="151.3246954">
  <ele>525.25</ele>
  <time>2026-09-01T20:01:28Z</time>
  <course>212.33</course>
  <speed>26.986789360722405</speed>
  <fix>3d</fix>
</trkpt>
<trkpt lat="-27.2723354" lon="151.3247276">
  <ele>525.62</ele>
  <time>2026-09-01T20:01:28Z</time>
  <course>214.28</course>
  <speed>27.06</speed>
  <fix>3d</fix>
</trkpt>
<trkpt lat="-27.2723959" lon="151.3246792">
  <ele>525.07</ele>
  <time>2026-09-01T20:01:28Z</time>
  <course>213.06</course>
  <speed>26.93824975754735</speed>
  <fix>3d</fix>
</trkpt>
<trkpt lat="-27.2723752" lon="151.3246962">
  <ele>525.26</ele>
  <time>2026-09-01T20:01:28Z</time>
  <course>215.93</course>
  <speed>26.98</speed>
  <fix>3d</fix>
</trkpt>
<trkpt lat="-27.2724152" lon="151.3246629">
  <ele>524.87</ele>
  <time>2026-09-01T20:01:28Z</time>
  <course>213.77</course>
  <speed>26.89220890890148</speed>
  <fix>3d</fix>
</trkpt>
<trkpt lat="-27.2723752" lon="151.3246962">
  <ele>525.26</ele>
  <time>2026-09-01T20:01:28Z</time>
  <course>215.93</course>
  <speed>26.98</speed>
  <fix>3d</fix>
</trkpt>
<trkpt lat="-27.2724344" lon="151.3246465">
  <ele>524.66</ele>
  <time>2026-09-01T20:01:28Z</time>
  <course>214.42</course>
  <speed>26.845588091900687</speed>
  <fix>3d</fix>
</trkpt>
<trkpt lat="-27.272414" lon="151.3246638">
  <ele>524.88</ele>
  <time>2026-09-01T20:01:28Z</time>
  <course>217.03</course>
  <speed>26.89</speed>
  <fix>3d</fix>
</trkpt>
<trkpt lat="-27.2724535" lon="151.3246299">
  <ele>524.46</ele>
  <time>2026-09-01T20:01:28Z</time>
  <course>214.99</course>
  <speed>26.7994179041262</speed>
  <fix>3d</fix>
</trkpt>
<trkpt lat="-27.272414" lon="151.3246638">
  <ele>524.88</ele>
  <time>2026-09-01T20:01:28Z</time>
  <course>217.03</course>
  <speed>26.89</speed>
  <fix>3d</fix>
</trkpt>
<trkpt lat="-27.2724725" lon="151.3246132">
  <ele>524.24</ele>
  <time>2026-09-01T20:01:28Z</time>
  <course>215.53</course>
  <speed>26.763529288940948</speed>
  <fix>3d</fix>
</trkpt>
<trkpt lat="-27.2724523" lon="151.3246308">
  <ele>524.46</ele>
  <time>2026-09-01T20:01:28Z</time>
  <course>217.74</course>
  <speed>26.81</speed>
  <fix>3d</fix>
</trkpt>
<trkpt lat="-27.2724914" lon="151.3245966">
  <ele>524.02</ele>
  <time>2026-09-01T20:01:28Z</time>
  <course>216.04</course>
  <speed>26.717428768502405</speed>
  <fix>3d</fix>
</trkpt>
<trkpt lat="-27.2724523" lon="151.3246308">
  <ele>524.46</ele>
  <time>2026-09-01T20:01:28Z</time>
  <course>217.74</course>
  <speed>26.81</speed>
  <fix>3d</fix>
</trkpt>
<trkpt lat="-27.2725102" lon="151.3245799">
  <ele>523.79</ele>
  <time>2026-09-01T20:01:28Z</time>
  <course>216.44</course>
  <speed>26.67944901979799</speed>
  <fix>3d</fix>
</trkpt>
<trkpt lat="-27.2724902" lon="151.3245975">
  <ele>524.03</ele>
  <time>2026-09-01T20:01:28Z</time>
  <course>218.2</course>
  <speed>26.72</speed>
  <fix>3d</fix>
</trkpt>
<trkpt lat="-27.2725289" lon="151.3245631">
  <ele>523.58</ele>
  <time>2026-09-01T20:01:28Z</time>
  <course>216.73</course>
  <speed>26.64650070834818</speed>
  <fix>3d</fix>
</trkpt>
<trkpt lat="-27.2724902" lon="151.3245975">
  <ele>524.03</ele>
  <time>2026-09-01T20:01:28Z</time>
  <course>218.2</course>
  <speed>26.72</speed>
  <fix>3d</fix>
</trkpt>
<trkpt lat="-27.2725477" lon="151.3245464">
  <ele>523.37</ele>
  <time>2026-09-01T20:01:28Z</time>
  <course>216.96</course>
  <speed>26.615198665424238</speed>
  <fix>3d</fix>
</trkpt>
<trkpt lat="-27.2725278" lon="151.324564">
  <ele>523.59</ele>
  <time>2026-09-01T20:01:28Z</time>
  <course>218.45</course>
  <speed>26.65</speed>
  <fix>3d</fix>
</trkpt>
<trkpt lat="-27.2725664" lon="151.3245296">
  <ele>523.16</ele>
  <time>2026-09-01T20:01:28Z</time>
  <course>217.18</course>
  <speed>26.593324350295134</speed>
  <fix>3d</fix>
</trkpt>
<trkpt lat="-27.2725278" lon="151.324564">
  <ele>523.59</ele>
  <time>2026-09-01T20:01:28Z</time>
  <course>218.45</course>
  <speed>26.65</speed>
  <fix>3d</fix>
</trkpt>
<trkpt lat="-27.272585" lon="151.3245129">
  <ele>522.99</ele>
  <time>2026-09-01T20:01:28Z</time>
  <course>217.33</course>
  <speed>26.552764451182856</speed>
  <fix>3d</fix>
</trkpt>
<trkpt lat="-27.2725652" lon="151.3245306">
  <ele>523.19</ele>
  <time>2026-09-01T20:01:28Z</time>
  <course>218.52</course>
  <speed>26.59</speed>
  <fix>3d</fix>
</trkpt>
<trkpt lat="-27.2726037" lon="151.3244962">
  <ele>522.84</ele>
  <time>2026-09-01T20:01:28Z</time>
  <course>217.38</course>
  <speed>26.52166661429858</speed>
  <fix>3d</fix>
</trkpt>
<trkpt lat="-27.2725652" lon="151.3245306">
  <ele>523.19</ele>
  <time>2026-09-01T20:01:28Z</time>
  <course>218.52</course>
  <speed>26.59</speed>
  <fix>3d</fix>
</trkpt>
<trkpt lat="-27.2726224" lon="151.3244796">
  <ele>522.71</ele>
  <time>2026-09-01T20:01:28Z</time>
  <course>217.41</course>
  <speed>26.472030522798963</speed>
  <fix>3d</fix>
</trkpt>
<trkpt lat="-27.2726026" lon="151.3244971">
  <ele>522.86</ele>
  <time>2026-09-01T20:01:28Z</time>
  <course>218.39</course>
  <speed>26.52</speed>
  <fix>3d</fix>
</trkpt>
<trkpt lat="-27.272641" lon="151.3244631">
  <ele>522.63</ele>
  <time>2026-09-01T20:01:28Z</time>
  <course>217.39</course>
  <speed>26.410195001173314</speed>
  <fix>3d</fix>
</trkpt>
<trkpt lat="-27.2726026" lon="151.3244971">
  <ele>522.86</ele>
  <time>2026-09-01T20:01:28Z</time>
  <course>218.39</course>
  <speed>26.52</speed>
  <fix>3d</fix>
</trkpt>
<trkpt lat="-27.2726597" lon="151.3244466">
  <ele>522.58</ele>
  <time>2026-09-01T20:01:28Z</time>
  <course>217.28</course>
  <speed>26.322268139353035</speed>
  <fix>3d</fix>
</trkpt>
<trkpt lat="-27.27264" lon="151.3244639">
  <ele>522.65</ele>
  <time>2026-09-01T20:01:28Z</time>
  <course>218.1</course>
  <speed>26.4</speed>
  <fix>3d</fix>
</trkpt>
<trkpt lat="-27.2726783" lon="151.3244303">
  <ele>522.56</ele>
  <time>2026-09-01T20:01:28Z</time>
  <course>217.19</course>
  <speed>26.18402948363754</speed>
  <fix>3d</fix>
</trkpt>
<trkpt lat="-27.27264" lon="151.3244639">
  <ele>522.65</ele>
  <time>2026-09-01T20:01:28Z</time>
  <course>218.1</course>
  <speed>26.4</speed>
  <fix>3d</fix>
</trkpt>
<trkpt lat="-27.272697" lon="151.3244144">
  <ele>522.57</ele>
  <time>2026-09-01T20:01:28Z</time>
  <course>217.08</course>
  <speed>25.982305517409344</speed>
  <fix>3d</fix>
</trkpt>
<trkpt lat="-27.2726773" lon="151.3244313">
  <ele>522.57</ele>
  <time>2026-09-01T20:01:28Z</time>
  <course>217.54</course>
  <speed>26.16</speed>
  <fix>3d</fix>
</trkpt>
<trkpt lat="-27.2727155" lon="151.3243987">
  <ele>522.6</ele>
  <time>2026-09-01T20:01:28Z</time>
  <course>216.9</course>
  <speed>25.710280045149258</speed>
  <fix>3d</fix>
</trkpt>
<trkpt lat="-27.2726773" lon="151.3244313">
  <ele>522.57</ele>
  <time>2026-09-01T20:01:28Z</time>
  <course>217.54</course>
  <speed>26.16</speed>
  <fix>3d</fix>
</trkpt>
<trkpt lat="-27.272734" lon="151.3243833">
  <ele>522.66</ele>
  <time>2026-09-01T20:01:28Z</time>
  <course>216.62</course>
  <speed>25.356817623668785</speed>
  <fix>3d</fix>
</trkpt>
<trkpt lat="-27.2727145" lon="151.3243997">
  <ele>522.62</ele>
  <time>2026-09-01T20:01:28Z</time>
  <course>216.61</course>
  <speed>25.69</speed>
  <fix>3d</fix>
</trkpt>
<trkpt lat="-27.2727524" lon="151.3243685">
  <ele>522.77</ele>
  <time>2026-09-01T20:01:28Z</time>
  <course>216.29</course>
  <speed>24.953753224715516</speed>
  <fix>3d</fix>
</trkpt>
<trkpt lat="-27.2727145" lon="151.3243997">
  <ele>522.62</ele>
  <time>2026-09-01T20:01:28Z</time>
  <course>216.61</course>
  <speed>25.69</speed>
  <fix>3d</fix>
</trkpt>
<trkpt lat="-27.2727705" lon="151.3243541">
  <ele>522.9</ele>
  <time>2026-09-01T20:01:28Z</time>
  <course>215.95</course>
  <speed>24.540107986722468</speed>
  <fix>3d</fix>
</trkpt>
<trkpt lat="-27.2727513" lon="151.3243695">
  <ele>522.78</ele>
  <time>2026-09-01T20:01:28Z</time>
  <course>215.5</course>
  <speed>24.97</speed>
  <fix>3d</fix>
</trkpt>
<trkpt lat="-27.2727886" lon="151.3243401">
  <ele>523.04</ele>
  <time>2026-09-01T20:01:28Z</time>
  <course>215.58</course>
  <speed>24.1289805006345</speed>
  <fix>3d</fix>
</trkpt>
<trkpt lat="-27.2727513" lon="151.3243695">
  <ele>522.78</ele>
  <time>2026-09-01T20:01:28Z</time>
  <course>215.5</course>
  <speed>24.97</speed>
  <fix>3d</fix>
</trkpt>
<trkpt lat="-27.2728064" lon="151.3243264">
  <ele>523.19</ele>
  <time>2026-09-01T20:01:28Z</time>
  <course>215.21</course>
  <speed>23.733491104344512</speed>
  <fix>3d</fix>
</trkpt>
<trkpt lat="-27.2727875" lon="151.324341">
  <ele>523.03</ele>
  <time>2026-09-01T20:01:28Z</time>
  <course>214.54</course>
  <speed>24.16</speed>
  <fix>3d</fix>
</trkpt>
<trkpt lat="-27.2728239" lon="151.3243132">
  <ele>523.34</ele>
  <time>2026-09-01T20:01:28Z</time>
  <course>214.84</course>
  <speed>23.352944139872385</speed>
  <fix>3d</fix>
</trkpt>
<trkpt lat="-27.2727875" lon="151.324341">
  <ele>523.03</ele>
  <time>2026-09-01T20:01:28Z</time>
  <course>214.54</course>
  <speed>24.16</speed>
  <fix>3d</fix>
</trkpt>
<trkpt lat="-27.2728412" lon="151.3243001">
  <ele>523.47</ele>
  <time>2026-09-01T20:01:28Z</time>
  <course>214.51</course>
  <speed>22.99791294878733</speed>
  <fix>3d</fix>
</trkpt>
<trkpt lat="-27.2728228" lon="151.324314">
  <ele>523.32</ele>
  <time>2026-09-01T20:01:28Z</time>
  <course>213.87</course>
  <speed>23.39</speed>
  <fix>3d</fix>
</trkpt>
<trkpt lat="-27.2728584" lon="151.3242875">
  <ele>523.59</ele>
  <time>2026-09-01T20:01:28Z</time>
  <course>214.23</course>
  <speed>22.654315262218805</speed>
  <fix>3d</fix>
</trkpt>
<trkpt lat="-27.2728228" lon="151.324314">
  <ele>523.32</ele>
  <time>2026-09-01T20:01:28Z</time>
  <course>213.87</course>
  <speed>23.39</speed>
  <fix>3d</fix>
</trkpt>
<trkpt lat="-27.2728752" lon="151.324275">
  <ele>523.68</ele>
  <time>2026-09-01T20:01:28Z</time>
  <course>214.0</course>
  <speed>22.344191638992</speed>
  <fix>3d</fix>
</trkpt>
<trkpt lat="-27.2728572" lon="151.3242882">
  <ele>523.56</ele>
  <time>2026-09-01T20:01:28Z</time>
  <course>213.39</course>
  <speed>22.69</speed>
  <fix>3d</fix>
</trkpt>
<trkpt lat="-27.2728919" lon="151.3242627">
  <ele>523.74</ele>
  <time>2026-09-01T20:01:28Z</time>
  <course>213.81</course>
  <speed>22.03974818367941</speed>
  <fix>3d</fix>
</trkpt>
<trkpt lat="-27.2728572" lon="151.3242882">
  <ele>523.56</ele>
  <time>2026-09-01T20:01:28Z</time>
  <course>213.39</course>
  <speed>22.69</speed>
  <fix>3d</fix>
</trkpt>
<trkpt lat="-27.2729084" lon="151.3242507">
  <ele>523.77</ele>
  <time>2026-09-01T20:01:28Z</time>
  <course>213.64</course>
  <speed>21.75474660849903</speed>
  <fix>3d</fix>
</trkpt>
<trkpt lat="-27.2728909" lon="151.3242635">
  <ele>523.71</ele>
  <time>2026-09-01T20:01:28Z</time>
  <course>213.05</course>
  <speed>22.07</speed>
  <fix>3d</fix>
</trkpt>
<trkpt lat="-27.2729248" lon="151.3242388">
  <ele>523.78</ele>
  <time>2026-09-01T20:01:28Z</time>
  <course>213.47</course>
  <speed>21.480700640342253</speed>
  <fix>3d</fix>
</trkpt>
<trkpt lat="-27.2728909" lon="151.3242635">
  <ele>523.71</ele>
  <time>2026-09-01T20:01:28Z</time>
  <course>213.05</course>
  <speed>22.07</speed>
  <fix>3d</fix>
</trkpt>
<trkpt lat="-27.2729409" lon="151.3242272">
  <ele>523.75</ele>
  <time>2026-09-01T20:01:28Z</time>
  <course>213.3</course>
  <speed>21.228954284184606</speed>
  <fix>3d</fix>
</trkpt>
<trkpt lat="-27.2729237" lon="151.3242396">
  <ele>523.76</ele>
  <time>2026-09-01T20:01:28Z</time>
  <course>212.79</course>
  <speed>21.51</speed>
  <fix>3d</fix>
</trkpt>
<trkpt lat="-27.2729569" lon="151.3242157">
  <ele>523.71</ele>
  <time>2026-09-01T20:01:28Z</time>
  <course>213.12</course>
  <speed>20.991095731285682</speed>
  <fix>3d</fix>
</trkpt>
<trkpt lat="-27.2729237" lon="151.3242396">
  <ele>523.76</ele>
  <time>2026-09-01T20:01:28Z</time>
  <course>212.79</course>
  <speed>21.51</speed>
  <fix>3d</fix>
</trkpt>
<trkpt lat="-27.2729727" lon="151.3242043">
  <ele>523.64</ele>
  <time>2026-09-01T20:01:28Z</time>
  <course>212.95</course>
  <speed>20.764048256541884</speed>
  <fix>3d</fix>
</trkpt>
<trkpt lat="-27.2729559" lon="151.3242163">
  <ele>523.7</ele>
  <time>2026-09-01T20:01:28Z</time>
  <course>212.6</course>
  <speed>21.01</speed>
  <fix>3d</fix>
</trkpt>
<trkpt lat="-27.2729883" lon="151.3241931">
  <ele>523.54</ele>
  <time>2026-09-01T20:01:28Z</time>
  <course>212.79</course>
  <speed>20.54546178600033</speed>
  <fix>3d</fix>
</trkpt>
<trkpt lat="-27.2729559" lon="151.3242163">
  <ele>523.7</ele>
  <time>2026-09-01T20:01:28Z</time>
  <course>212.6</course>
  <speed>21.01</speed>
  <fix>3d</fix>
</trkpt>
<trkpt lat="-27.2730038" lon="151.3241819">
  <ele>523.44</ele>
  <time>2026-09-01T20:01:28Z</time>
  <course>212.65</course>
  <speed>20.34606595880393</speed>
  <fix>3d</fix>
</trkpt>
<trkpt lat="-27.2729874" lon="151.3241937">
  <ele>523.54</ele>
  <time>2026-09-01T20:01:28Z</time>
  <course>212.45</course>
  <speed>20.57</speed>
  <fix>3d</fix>
</trkpt>
<trkpt lat="-27.2730192" lon="151.3241711">
  <ele>523.32</ele>
  <time>2026-09-01T20:01:28Z</time>
  <course>212.53</course>
  <speed>20.15513086040376</speed>
  <fix>3d</fix>
</trkpt>
<trkpt lat="-27.2729874" lon="151.3241937">
  <ele>523.54</ele>
  <time>2026-09-01T20:01:28Z</time>
  <course>212.45</course>
  <speed>20.57</speed>
  <fix>3d</fix>
</trkpt>
<trkpt lat="-27.2730344" lon="151.3241603">
  <ele>523.19</ele>
  <time>2026-09-01T20:01:28Z</time>
  <course>212.43</course>
  <speed>19.97267383201358</speed>
  <fix>3d</fix>
</trkpt>
<trkpt lat="-27.2730183" lon="151.3241717">
  <ele>523.32</ele>
  <time>2026-09-01T20:01:28Z</time>
  <course>212.33</course>
  <speed>20.17</speed>
  <fix>3d</fix>
</trkpt>
<trkpt lat="-27.2730495" lon="151.3241495">
  <ele>523.04</ele>
  <time>2026-09-01T20:01:28Z</time>
  <course>212.35</course>
  <speed>19.795580314807648</speed>
  <fix>3d</fix>
</trkpt>
<trkpt lat="-27.2730183" lon="151.3241717">
  <ele>523.32</ele>
  <time>2026-09-01T20:01:28Z</time>
  <course>212.33</course>
  <speed>20.17</speed>
  <fix>3d</fix>
</trkpt>
<trkpt lat="-27.2730645" lon="151.3241388">
  <ele>522.9</ele>
  <time>2026-09-01T20:01:28Z</time>
  <course>212.28</course>
  <speed>19.63229227573795</speed>
  <fix>3d</fix>
</trkpt>
<trkpt lat="-27.2730487" lon="151.3241501">
  <ele>523.05</ele>
  <time>2026-09-01T20:01:28Z</time>
  <course>212.21</course>
  <speed>19.81</speed>
  <fix>3d</fix>
</trkpt>
<trkpt lat="-27.2730794" lon="151.3241284">
  <ele>522.75</ele>
  <time>2026-09-01T20:01:28Z</time>
  <course>212.22</course>
  <speed>19.47748700423132</speed>
  <fix>3d</fix>
</trkpt>
<trkpt lat="-27.2730487" lon="151.3241501">
  <ele>523.05</ele>
  <time>2026-09-01T20:01:28Z</time>
  <course>212.21</course>
  <speed>19.81</speed>
  <fix>3d</fix>
</trkpt>
<trkpt lat="-27.2730941" lon="151.324118">
  <ele>522.58</ele>
  <time>2026-09-01T20:01:28Z</time>
  <course>212.16</course>
  <speed>19.322704262085054</speed>
  <fix>3d</fix>
</trkpt>
<trkpt lat="-27.2730786" lon="151.324129">
  <ele>522.75</ele>
  <time>2026-09-01T20:01:28Z</time>
  <course>212.1</course>
  <speed>19.49</speed>
  <fix>3d</fix>
</trkpt>
<trkpt lat="-27.2731088" lon="151.3241076">
  <ele>522.41</ele>
  <time>2026-09-01T20:01:28Z</time>
  <course>212.11</course>
  <speed>19.18172307171595</speed>
  <fix>3d</fix>
</trkpt>
<trkpt lat="-27.2730786" lon="151.324129">
  <ele>522.75</ele>
  <time>2026-09-01T20:01:28Z</time>
  <course>212.1</course>
  <speed>19.49</speed>
  <fix>3d</fix>
</trkpt>
<trkpt lat="-27.2731234" lon="151.3240975">
  <ele>522.24</ele>
  <time>2026-09-01T20:01:28Z</time>
  <course>212.05</course>
  <speed>19.0407589134467</speed>
  <fix>3d</fix>
</trkpt>
<trkpt lat="-27.273108" lon="151.3241082">
  <ele>522.42</ele>
  <time>2026-09-01T20:01:28Z</time>
  <course>211.99</course>
  <speed>19.19</speed>
  <fix>3d</fix>
</trkpt>
<trkpt lat="-27.2731378" lon="151.3240873">
  <ele>522.07</ele>
  <time>2026-09-01T20:01:28Z</time>
  <course>212.0</course>
  <speed>18.905094551469453</speed>
  <fix>3d</fix>
</trkpt>
<trkpt lat="-27.273108" lon="151.3241082">
  <ele>522.42</ele>
  <time>2026-09-01T20:01:28Z</time>
  <course>211.99</course>
  <speed>19.19</speed>
  <fix>3d</fix>
</trkpt>
<trkpt lat="-27.2731522" lon="151.3240773">
  <ele>521.89</ele>
  <time>2026-09-01T20:01:28Z</time>
  <course>211.94</course>
  <speed>18.77792853325414</speed>
  <fix>3d</fix>
</trkpt>
<trkpt lat="-27.273137" lon="151.3240879">
  <ele>522.07</ele>
  <time>2026-09-01T20:01:28Z</time>
  <course>211.89</course>
  <speed>18.92</speed>
  <fix>3d</fix>
</trkpt>
<trkpt lat="-27.2731665" lon="151.3240673">
  <ele>521.7</ele>
  <time>2026-09-01T20:01:28Z</time>
  <course>211.89</course>
  <speed>18.659273833673165</speed>
  <fix>3d</fix>
</trkpt>
<trkpt lat="-27.273137" lon="151.3240879">
  <ele>522.07</ele>
  <time>2026-09-01T20:01:28Z</time>
  <course>211.89</course>
  <speed>18.92</speed>
  <fix>3d</fix>
</trkpt>
<trkpt lat="-27.2731807" lon="151.3240573">
  <ele>521.52</ele>
  <time>2026-09-01T20:01:28Z</time>
  <course>211.85</course>
  <speed>18.5374000334459</speed>
  <fix>3d</fix>
</trkpt>
<trkpt lat="-27.2731657" lon="151.3240678">
  <ele>521.71</ele>
  <time>2026-09-01T20:01:28Z</time>
  <course>211.8</course>
  <speed>18.67</speed>
  <fix>3d</fix>
</trkpt>
<trkpt lat="-27.2731948" lon="151.3240476">
  <ele>521.33</ele>
  <time>2026-09-01T20:01:28Z</time>
  <course>211.8</course>
  <speed>18.41877574650389</speed>
  <fix>3d</fix>
</trkpt>
<trkpt lat="-27.2731657" lon="151.3240678">
  <ele>521.71</ele>
  <time>2026-09-01T20:01:28Z</time>
  <course>211.8</course>
  <speed>18.67</speed>
  <fix>3d</fix>
</trkpt>
<trkpt lat="-27.2732088" lon="151.3240377">
  <ele>521.14</ele>
  <time>2026-09-01T20:01:28Z</time>
  <course>211.76</course>
  <speed>18.31067448238868</speed>
  <fix>3d</fix>
</trkpt>
<trkpt lat="-27.273194" lon="151.324048">
  <ele>521.34</ele>
  <time>2026-09-01T20:01:28Z</time>
  <course>211.72</course>
  <speed>18.43</speed>
  <fix>3d</fix>
</trkpt>
<trkpt lat="-27.2732229" lon="151.3240281">
  <ele>520.95</ele>
  <time>2026-09-01T20:01:28Z</time>
  <course>211.72</course>
  <speed>18.197323979090992</speed>
  <fix>3d</fix>
</trkpt>
<trkpt lat="-27.273194" lon="151.324048">
  <ele>521.34</ele>
  <time>2026-09-01T20:01:28Z</time>
  <course>211.72</course>
  <speed>18.43</speed>
  <fix>3d</fix>
</trkpt>
<trkpt lat="-27.2732368" lon="151.3240184">
  <ele>520.76</ele>
  <time>2026-09-01T20:01:28Z</time>
  <course>211.68</course>
  <speed>18.092498445488395</speed>
  <fix>3d</fix>
</trkpt>
<trkpt lat="-27.273222" lon="151.3240286">
  <ele>520.96</ele>
  <time>2026-09-01T20:01:28Z</time>
  <course>211.65</course>
  <speed>18.21</speed>
  <fix>3d</fix>
</trkpt>
<trkpt lat="-27.2732506" lon="151.3240089">
  <ele>520.56</ele>
  <time>2026-09-01T20:01:28Z</time>
  <course>211.65</course>
  <speed>17.992923609019186</speed>
  <fix>3d</fix>
</trkpt>
<trkpt lat="-27.273222" lon="151.3240286">
  <ele>520.96</ele>
  <time>2026-09-01T20:01:28Z</time>
  <course>211.65</course>
  <speed>18.21</speed>
  <fix>3d</fix>
</trkpt>
<trkpt lat="-27.2732643" lon="151.3239994">
  <ele>520.37</ele>
  <time>2026-09-01T20:01:28Z</time>
  <course>211.61</course>
  <speed>17.893353514643362</speed>
  <fix>3d</fix>
</trkpt>
<trkpt lat="-27.2732497" lon="151.3240095">
  <ele>520.57</ele>
  <time>2026-09-01T20:01:28Z</time>
  <course>211.58</course>
  <speed>18.0</speed>
  <fix>3d</fix>
</trkpt>
<trkpt lat="-27.273278" lon="151.3239899">
  <ele>520.16</ele>
  <time>2026-09-01T20:01:28Z</time>
  <course>211.58</course>
  <speed>17.793788241968038</speed>
  <fix>3d</fix>
</trkpt>
<trkpt lat="-27.2732497" lon="151.3240095">
  <ele>520.57</ele>
  <time>2026-09-01T20:01:28Z</time>
  <course>211.58</course>
  <speed>18.0</speed>
  <fix>3d</fix>
</trkpt>
<trkpt lat="-27.2732916" lon="151.3239806">
  <ele>519.97</ele>
  <time>2026-09-01T20:01:28Z</time>
  <course>211.54</course>
  <speed>17.702756847451756</speed>
  <fix>3d</fix>
</trkpt>
<trkpt lat="-27.2732772" lon="151.3239905">
  <ele>520.18</ele>
  <time>2026-09-01T20:01:28Z</time>
  <course>211.51</course>
  <speed>17.8</speed>
  <fix>3d</fix>
</trkpt>
<trkpt lat="-27.2733051" lon="151.3239712">
  <ele>519.77</ele>
  <time>2026-09-01T20:01:28Z</time>
  <course>211.51</course>
  <speed>17.61695206328268</speed>
  <fix>3d</fix>
</trkpt>
<trkpt lat="-27.2732772" lon="151.3239905">
  <ele>520.18</ele>
  <time>2026-09-01T20:01:28Z</time>
  <course>211.51</course>
  <speed>17.8</speed>
  <fix>3d</fix>
</trkpt>
<trkpt lat="-27.2733186" lon="151.323962">
  <ele>519.58</ele>
  <time>2026-09-01T20:01:28Z</time>
  <course>211.48</course>
  <speed>17.525937920693433</speed>
  <fix>3d</fix>
</trkpt>
<trkpt lat="-27.2733044" lon="151.3239717">
  <ele>519.78</ele>
  <time>2026-09-01T20:01:28Z</time>
  <course>211.45</course>
  <speed>17.62</speed>
  <fix>3d</fix>
</trkpt>
<trkpt lat="-27.273332" lon="151.3239528">
  <ele>519.38</ele>
  <time>2026-09-01T20:01:28Z</time>
  <course>211.44</course>
  <speed>17.44014048108558</speed>
  <fix>3d</fix>
</trkpt>
<trkpt lat="-27.2733044" lon="151.3239717">
  <ele>519.78</ele>
  <time>2026-09-01T20:01:28Z</time>
  <course>211.45</course>
  <speed>17.62</speed>
  <fix>3d</fix>
</trkpt>
<trkpt lat="-27.2733453" lon="151.3239437">
  <ele>519.16</ele>
  <time>2026-09-01T20:01:28Z</time>
  <course>211.41</course>
  <speed>17.35434527719211</speed>
  <fix>3d</fix>
</trkpt>
<trkpt lat="-27.2733313" lon="151.3239533">
  <ele>519.38</ele>
  <time>2026-09-01T20:01:28Z</time>
  <course>211.38</course>
  <speed>17.45</speed>
  <fix>3d</fix>
</trkpt>
<trkpt lat="-27.2733586" lon="151.3239346">
  <ele>518.97</ele>
  <time>2026-09-01T20:01:28Z</time>
  <course>211.38</course>
  <speed>17.277094663166025</speed>
  <fix>3d</fix>
</trkpt>
<trkpt lat="-27.2733313" lon="151.3239533">
  <ele>519.38</ele>
  <time>2026-09-01T20:01:28Z</time>
  <course>211.38</course>
  <speed>17.45</speed>
  <fix>3d</fix>
</trkpt>
<trkpt lat="-27.2733718" lon="151.3239255">
  <ele>518.77</ele>
  <time>2026-09-01T20:01:28Z</time>
  <course>211.35</course>
  <speed>17.19130594224883</speed>
  <fix>3d</fix>
</trkpt>
<trkpt lat="-27.2733579" lon="151.323935">
  <ele>518.97</ele>
  <time>2026-09-01T20:01:28Z</time>
  <course>211.33</course>
  <speed>17.28</speed>
  <fix>3d</fix>
</trkpt>
<trkpt lat="-27.273385" lon="151.3239165">
  <ele>518.57</ele>
  <time>2026-09-01T20:01:28Z</time>
  <course>211.32</course>
  <speed>17.119258161497537</speed>
  <fix>3d</fix>
</trkpt>
<trkpt lat="-27.2733579" lon="151.323935">
  <ele>518.97</ele>
  <time>2026-09-01T20:01:28Z</time>
  <course>211.33</course>
  <speed>17.28</speed>
  <fix>3d</fix>
</trkpt>
<trkpt lat="-27.2733981" lon="151.3239075">
  <ele>518.37</ele>
  <time>2026-09-01T20:01:28Z</time>
  <course>211.3</course>
  <speed>17.042021593695978</speed>
  <fix>3d</fix>
</trkpt>
<trkpt lat="-27.2733843" lon="151.323917">
  <ele>518.58</ele>
  <time>2026-09-01T20:01:28Z</time>
  <course>211.27</course>
  <speed>17.12</speed>
  <fix>3d</fix>
</trkpt>
<trkpt lat="-27.2734112" lon="151.3238986">
  <ele>518.16</ele>
  <time>2026-09-01T20:01:28Z</time>
  <course>211.27</course>
  <speed>16.96997642897597</speed>
  <fix>3d</fix>
</trkpt>
<trkpt lat="-27.2733843" lon="151.323917">
  <ele>518.58</ele>
  <time>2026-09-01T20:01:28Z</time>
  <course>211.27</course>
  <speed>17.12</speed>
  <fix>3d</fix>
</trkpt>
<trkpt lat="-27.2734242" lon="151.3238898">
  <ele>517.96</ele>
  <time>2026-09-01T20:01:28Z</time>
  <course>211.24</course>
  <speed>16.901304683366902</speed>
  <fix>3d</fix>
</trkpt>
<trkpt lat="-27.2734105" lon="151.3238991">
  <ele>518.17</ele>
  <time>2026-09-01T20:01:28Z</time>
  <course>211.22</course>
  <speed>16.98</speed>
  <fix>3d</fix>
</trkpt>
<trkpt lat="-27.2716008" lon="151.3279428">
  <ele>539.95</ele>
  <time>2026-09-01T20:01:28Z</time>
  <course>251.49</course>
  <speed>11.627815788014532</speed>
  <fix>3d</fix>
</trkpt>
<trkpt lat="-27.2734105" lon="151.3238991">
  <ele>518.17</ele>
  <time>2026-09-01T20:01:28Z</time>
  <course>211.22</course>
  <speed>16.98</speed>
  <fix>3d</fix>
</trkpt>
<trkpt lat="-27.2716033" lon="151.3279317">
  <ele>536.09</ele>
  <time>2026-09-01T20:01:28Z</time>
  <course>249.06</course>
  <speed>11.557612210140984</speed>
  <fix>3d</fix>
</trkpt>
<trkpt lat="-27.2725134" lon="151.3259112">
  <ele>527.12</ele>
  <time>2026-09-01T20:01:28Z</time>
  <course>228.39</course>
  <speed>13.26</speed>
  <fix>3d</fix>
</trkpt>
<trkpt lat="-27.2716073" lon="151.3279202">
  <ele>532.26</ele>
  <time>2026-09-01T20:01:28Z</time>
  <course>233.08</course>
  <speed>12.948397584257288</speed>
  <fix>3d</fix>
</trkpt>
<trkpt lat="-27.2725134" lon="151.3259112">
  <ele>527.12</ele>
  <time>2026-09-01T20:01:28Z</time>
  <course>228.39</course>
  <speed>13.26</speed>
  <fix>3d</fix>
</trkpt>
<trkpt lat="-27.2716145" lon="151.3279092">
  <ele>528.48</ele>
  <time>2026-09-01T20:01:28Z</time>
  <course>212.94</course>
  <speed>14.02386893834936</speed>
  <fix>3d</fix>
</trkpt>
<trkpt lat="-27.2716086" lon="151.327921">
  <ele>532.47</ele>
  <time>2026-09-01T20:01:28Z</time>
  <course>239.07</course>
  <speed>12.4</speed>
  <fix>3d</fix>
</trkpt>
<trkpt lat="-27.2716242" lon="151.3278999">
  <ele>524.73</ele>
  <time>2026-09-01T20:01:28Z</time>
  <course>200.48</course>
  <speed>14.352177535133825</speed>
  <fix>3d</fix>
</trkpt>
<trkpt lat="-27.2716086" lon="151.327921">
  <ele>532.47</ele>
  <time>2026-09-01T20:01:28Z</time>
  <course>239.07</course>
  <speed>12.4</speed>
  <fix>3d</fix>
</trkpt>
<trkpt lat="-27.2716348" lon="151.3278908">
  <ele>521.0</ele>
  <time>2026-09-01T20:01:28Z</time>
  <course>212.54</course>
  <speed>16.18344833464117</speed>
  <fix>3d</fix>
</trkpt>
<trkpt lat="-27.2716241" lon="151.3279005">
  <ele>524.92</ele>
  <time>2026-09-01T20:01:28Z</time>
  <course>224.52</course>
  <speed>14.96</speed>
  <fix>3d</fix>
</trkpt>
<trkpt lat="-27.2716455" lon="151.327875">
  <ele>517.53</ele>
  <time>2026-09-01T20:01:28Z</time>
  <course>227.94</course>
  <speed>23.68071156025511</speed>
  <fix>3d</fix>
</trkpt>
<trkpt lat="-27.2716241" lon="151.3279005">
  <ele>524.92</ele>
  <time>2026-09-01T20:01:28Z</time>
  <course>224.52</course>
  <speed>14.96</speed>
  <fix>3d</fix>
</trkpt>
<trkpt lat="-27.2716575" lon="151.3278507">
  <ele>514.75</ele>
  <time>2026-09-01T20:01:28Z</time>
  <course>235.0</course>
  <speed>31.158491619460655</speed>
  <fix>3d</fix>
</trkpt>
<trkpt lat="-27.2716455" lon="151.3278717">
  <ele>518.02</ele>
  <time>2026-09-01T20:01:28Z</time>
  <course>235.59</course>
  <speed>23.08</speed>
  <fix>3d</fix>
</trkpt>
<trkpt lat="-27.2716716" lon="151.3278206">
  <ele>512.88</ele>
  <time>2026-09-01T20:01:28Z</time>
  <course>235.93</course>
  <speed>35.652137383332295</speed>
  <fix>3d</fix>
</trkpt>
<trkpt lat="-27.2716455" lon="151.3278717">
  <ele>518.02</ele>
  <time>2026-09-01T20:01:28Z</time>
  <course>235.59</course>
  <speed>23.08</speed>
  <fix>3d</fix>
</trkpt>
<trkpt lat="-27.2716883" lon="151.3277887">
  <ele>511.97</ele>
  <time>2026-09-01T20:01:28Z</time>
  <course>231.26</course>
  <speed>37.09740961307137</speed>
  <fix>3d</fix>
</trkpt>
<trkpt lat="-27.2716722" lon="151.3278211">
  <ele>513.42</ele>
  <time>2026-09-01T20:01:28Z</time>
  <course>239.45</course>
  <speed>33.93</speed>
  <fix>3d</fix>
</trkpt>
<trkpt lat="-27.271708" lon="151.3277588">
  <ele>511.85</ele>
  <time>2026-09-01T20:01:28Z</time>
  <course>224.19</course>
  <speed>36.57007519817262</speed>
  <fix>3d</fix>
</trkpt>
<trkpt lat="-27.2716722" lon="151.3278211">
  <ele>513.42</ele>
  <time>2026-09-01T20:01:28Z</time>
  <course>239.45</course>
  <speed>33.93</speed>
  <fix>3d</fix>
</trkpt>
<trkpt lat="-27.2717304" lon="151.3277326">
  <ele>512.31</ele>
  <time>2026-09-01T20:01:28Z</time>
  <course>216.97</course>
  <speed>35.18457190303727</speed>
  <fix>3d</fix>
</trkpt>
<trkpt lat="-27.2717085" lon="151.3277618">
  <ele>512.13</ele>
  <time>2026-09-01T20:01:28Z</time>
  <course>229.92</course>
  <speed>35.87</speed>
  <fix>3d</fix>
</trkpt>
<trkpt lat="-27.271755" lon="151.327711">
  <ele>513.15</ele>
  <time>2026-09-01T20:01:28Z</time>
  <course>210.57</course>
  <speed>33.687518460106254</speed>
  <fix>3d</fix>
</trkpt>
<trkpt lat="-27.2717085" lon="151.3277618">
  <ele>512.13</ele>
  <time>2026-09-01T20:01:28Z</time>
  <course>229.92</course>
  <speed>35.87</speed>
  <fix>3d</fix>
</trkpt>
<trkpt lat="-27.2717805" lon="151.3276942">
  <ele>514.21</ele>
  <time>2026-09-01T20:01:28Z</time>
  <course>205.61</course>
  <speed>32.384812798594346</speed>
  <fix>3d</fix>
</trkpt>
<trkpt lat="-27.2717543" lon="151.3277142">
  <ele>513.21</ele>
  <time>2026-09-01T20:01:28Z</time>
  <course>215.24</course>
  <speed>33.57</speed>
  <fix>3d</fix>
</trkpt>
<trkpt lat="-27.2718065" lon="151.3276809">
  <ele>515.38</ele>
  <time>2026-09-01T20:01:28Z</time>
  <course>202.27</course>
  <speed>31.278721201481368</speed>
  <fix>3d</fix>
</trkpt>
<trkpt lat="-27.2717543" lon="151.3277142">
  <ele>513.21</ele>
  <time>2026-09-01T20:01:28Z</time>
  <course>215.24</course>
  <speed>33.57</speed>
  <fix>3d</fix>
</trkpt>
<trkpt lat="-27.2718325" lon="151.3276702">
  <ele>516.62</ele>
  <time>2026-09-01T20:01:28Z</time>
  <course>200.59</course>
  <speed>30.3800213956475</speed>
  <fix>3d</fix>
</trkpt>
<trkpt lat="-27.2718051" lon="151.3276828">
  <ele>515.35</ele>
  <time>2026-09-01T20:01:28Z</time>
  <course>203.22</course>
  <speed>31.34</speed>
  <fix>3d</fix>
</trkpt>
<trkpt lat="-27.2718582" lon="151.3276611">
  <ele>517.88</ele>
  <time>2026-09-01T20:01:28Z</time>
  <course>200.1</course>
  <speed>29.665926582528986</speed>
  <fix>3d</fix>
</trkpt>
<trkpt lat="-27.2718051" lon="151.3276828">
  <ele>515.35</ele>
  <time>2026-09-01T20:01:28Z</time>
  <course>203.22</course>
  <speed>31.34</speed>
  <fix>3d</fix>
</trkpt>
<trkpt lat="-27.2718836" lon="151.3276529">
  <ele>519.13</ele>
  <time>2026-09-01T20:01:28Z</time>
  <course>200.18</course>
  <speed>29.138541487178113</speed>
  <fix>3d</fix>
</trkpt>
<trkpt lat="-27.2718567" lon="151.3276619">
  <ele>517.81</ele>
  <time>2026-09-01T20:01:29Z</time>
  <course>197.21</course>
  <speed>29.78</speed>
  <fix>3d</fix>
</trkpt>
<trkpt lat="-27.2719086" lon="151.327645">
  <ele>520.32</ele>
  <time>2026-09-01T20:01:29Z</time>
  <course>200.32</course>
  <speed>28.782996716811823</speed>
  <fix>3d</fix>
</trkpt>
<trkpt lat="-27.2718567" lon="151.3276619">
  <ele>517.81</ele>
  <time>2026-09-01T20:01:29Z</time>
  <course>197.21</course>
  <speed>29.78</speed>
  <fix>3d</fix>
</trkpt>
<trkpt lat="-27.2719334" lon="151.3276372">
  <ele>521.44</ele>
  <time>2026-09-01T20:01:29Z</time>
  <course>200.15</course>
  <speed>28.56827786199231</speed>
  <fix>3d</fix>
</trkpt>
<trkpt lat="-27.2719072" lon="151.3276454">
  <ele>520.22</ele>
  <time>2026-09-01T20:01:29Z</time>
  <course>195.79</course>
  <speed>28.87</speed>
  <fix>3d</fix>
</trkpt>
<trkpt lat="-27.271958" lon="151.3276292">
  <ele>522.46</ele>
  <time>2026-09-01T20:01:29Z</time>
  <course>199.57</course>
  <speed>28.440810466651616</speed>
  <fix>3d</fix>
</trkpt>
<trkpt lat="-27.2719072" lon="151.3276454">
  <ele>520.22</ele>
  <time>2026-09-01T20:01:29Z</time>
  <course>195.79</course>
  <speed>28.87</speed>
  <fix>3d</fix>
</trkpt>
<trkpt lat="-27.2719824" lon="151.327621">
  <ele>523.36</ele>
  <time>2026-09-01T20:01:29Z</time>
  <course>198.77</course>
  <speed>28.353795160436633</speed>
  <fix>3d</fix>
</trkpt>
<trkpt lat="-27.2719566" lon="151.3276295">
  <ele>522.35</ele>
  <time>2026-09-01T20:01:29Z</time>
  <course>196.16</course>
  <speed>28.47</speed>
  <fix>3d</fix>
</trkpt>
<trkpt lat="-27.2720068" lon="151.3276129">
  <ele>524.14</ele>
  <time>2026-09-01T20:01:29Z</time>
  <course>197.93</course>
  <speed>28.27504376654438</speed>
  <fix>3d</fix>
</trkpt>
<trkpt lat="-27.2719566" lon="151.3276295">
  <ele>522.35</ele>
  <time>2026-09-01T20:01:29Z</time>
  <course>196.16</course>
  <speed>28.47</speed>
  <fix>3d</fix>
</trkpt>
<trkpt lat="-27.2720311" lon="151.3276048">
  <ele>524.81</ele>
  <time>2026-09-01T20:01:29Z</time>
  <course>197.01</course>
  <speed>28.197462651806106</speed>
  <fix>3d</fix>
</trkpt>
<trkpt lat="-27.2720055" lon="151.3276133">
  <ele>524.05</ele>
  <time>2026-09-01T20:01:29Z</time>
  <course>196.61</course>
  <speed>28.28</speed>
  <fix>3d</fix>
</trkpt>
<trkpt lat="-27.2720553" lon="151.3275965">
  <ele>525.37</ele>
  <time>2026-09-01T20:01:29Z</time>
  <course>196.24</course>
  <speed>28.08547667389678</speed>
  <fix>3d</fix>
</trkpt>
<trkpt lat="-27.2720055" lon="151.3276133">
  <ele>524.05</ele>
  <time>2026-09-01T20:01:29Z</time>
  <course>196.61</course>
  <speed>28.28</speed>
  <fix>3d</fix>
</trkpt>
<trkpt lat="-27.2720794" lon="151.3275883">
  <ele>525.83</ele>
  <time>2026-09-01T20:01:29Z</time>
  <course>195.72</course>
  <speed>27.96691080545007</speed>
  <fix>3d</fix>
</trkpt>
<trkpt lat="-27.272054" lon="151.3275969">
  <ele>525.29</ele>
  <time>2026-09-01T20:01:29Z</time>
  <course>196.86</course>
  <speed>28.09</speed>
  <fix>3d</fix>
</trkpt>
<trkpt lat="-27.2721034" lon="151.3275799">
  <ele>526.2</ele>
  <time>2026-09-01T20:01:29Z</time>
  <course>195.4</course>
  <speed>27.847732403195778</speed>
  <fix>3d</fix>
</trkpt>
<trkpt lat="-27.272054" lon="151.3275969">
  <ele>525.29</ele>
  <time>2026-09-01T20:01:29Z</time>
  <course>196.86</course>
  <speed>28.09</speed>
  <fix>3d</fix>
</trkpt>
<trkpt lat="-27.2721272" lon="151.3275717">
  <ele>526.49</ele>
  <time>2026-09-01T20:01:29Z</time>
  <course>195.32</course>
  <speed>27.727691934237875</speed>
  <fix>3d</fix>
</trkpt>
<trkpt lat="-27.2721021" lon="151.3275803">
  <ele>526.14</ele>
  <time>2026-09-01T20:01:29Z</time>
  <course>197.2</course>
  <speed>27.85</speed>
  <fix>3d</fix>
</trkpt>
<trkpt lat="-27.2721509" lon="151.3275631">
  <ele>526.71</ele>
  <time>2026-09-01T20:01:29Z</time>
  <course>195.5</course>
  <speed>27.614286157711916</speed>
  <fix>3d</fix>
</trkpt>
<trkpt lat="-27.2721021" lon="151.3275803">
  <ele>526.14</ele>
  <time>2026-09-01T20:01:29Z</time>
  <course>197.2</course>
  <speed>27.85</speed>
  <fix>3d</fix>
</trkpt>
<trkpt lat="-27.2721744" lon="151.3275545">
  <ele>526.87</ele>
  <time>2026-09-01T20:01:29Z</time>
  <course>195.89</course>
  <speed>27.505493996654558</speed>
  <fix>3d</fix>
</trkpt>
<trkpt lat="-27.2721497" lon="151.3275635">
  <ele>526.66</ele>
  <time>2026-09-01T20:01:29Z</time>
  <course>197.94</course>
  <speed>27.62</speed>
  <fix>3d</fix>
</trkpt>
<trkpt lat="-27.2721977" lon="151.3275455">
  <ele>526.98</ele>
  <time>2026-09-01T20:01:29Z</time>
  <course>196.47</course>
  <speed>27.4002627724626</speed>
  <fix>3d</fix>
</trkpt>
<trkpt lat="-27.2721497" lon="151.3275635">
  <ele>526.66</ele>
  <time>2026-09-01T20:01:29Z</time>
  <course>197.94</course>
  <speed>27.62</speed>
  <fix>3d</fix>
</trkpt>
<trkpt lat="-27.2722209" lon="151.3275363">
  <ele>527.04</ele>
  <time>2026-09-01T20:01:29Z</time>
  <course>197.22</course>
  <speed>27.31979868154229</speed>
  <fix>3d</fix>
</trkpt>
<trkpt lat="-27.2721966" lon="151.3275458">
  <ele>526.94</ele>
  <time>2026-09-01T20:01:29Z</time>
  <course>199.21</course>
  <speed>27.41</speed>
  <fix>3d</fix>
</trkpt>
<trkpt lat="-27.2722438" lon="151.3275266">
  <ele>527.06</ele>
  <time>2026-09-01T20:01:29Z</time>
  <course>198.16</course>
  <speed>27.247957721634844</speed>
  <fix>3d</fix>
</trkpt>
<trkpt lat="-27.2721966" lon="151.3275458">
  <ele>526.94</ele>
  <time>2026-09-01T20:01:29Z</time>
  <course>199.21</course>
  <speed>27.41</speed>
  <fix>3d</fix>
</trkpt>
<trkpt lat="-27.2722666" lon="151.3275165">
  <ele>527.04</ele>
  <time>2026-09-01T20:01:29Z</time>
  <course>199.28</course>
  <speed>27.188030454595275</speed>
  <fix>3d</fix>
</trkpt>
<trkpt lat="-27.2722427" lon="151.3275268">
  <ele>527.04</ele>
  <time>2026-09-01T20:01:29Z</time>
  <course>201.01</course>
  <speed>27.25</speed>
  <fix>3d</fix>
</trkpt>
<trkpt lat="-27.2722891" lon="151.3275059">
  <ele>527.01</ele>
  <time>2026-09-01T20:01:29Z</time>
  <course>200.49</course>
  <speed>27.122702667691506</speed>
  <fix>3d</fix>
</trkpt>
<trkpt lat="-27.2722427" lon="151.3275268">
  <ele>527.04</ele>
  <time>2026-09-01T20:01:29Z</time>
  <course>201.01</course>
  <speed>27.25</speed>
  <fix>3d</fix>
</trkpt>
<trkpt lat="-27.2723113" lon="151.3274947">
  <ele>526.94</ele>
  <time>2026-09-01T20:01:29Z</time>
  <course>201.77</course>
  <speed>27.081041338914574</speed>
  <fix>3d</fix>
</trkpt>
<trkpt lat="-27.2722879" lon="151.3275061">
  <ele>526.99</ele>
  <time>2026-09-01T20:01:29Z</time>
  <course>203.3</course>
  <speed>27.13</speed>
  <fix>3d</fix>
</trkpt>
<trkpt lat="-27.2723333" lon="151.3274831">
  <ele>526.85</ele>
  <time>2026-09-01T20:01:29Z</time>
  <course>203.21</course>
  <speed>27.039778105598426</speed>
  <fix>3d</fix>
</trkpt>
<trkpt lat="-27.2722879" lon="151.3275061">
  <ele>526.99</ele>
  <time>2026-09-01T20:01:29Z</time>
  <course>203.3</course>
  <speed>27.13</speed>
  <fix>3d</fix>
</trkpt>
<trkpt lat="-27.2723549" lon="151.3274707">
  <ele>526.74</ele>
  <time>2026-09-01T20:01:29Z</time>
  <course>204.71</course>
  <speed>27.001914746921187</speed>
  <fix>3d</fix>
</trkpt>
<trkpt lat="-27.2723322" lon="151.3274833">
  <ele>526.83</ele>
  <time>2026-09-01T20:01:29Z</time>
  <course>205.99</course>
  <speed>27.03</speed>
  <fix>3d</fix>
</trkpt>
<trkpt lat="-27.2723763" lon="151.3274578">
  <ele>526.61</ele>
  <time>2026-09-01T20:01:29Z</time>
  <course>206.23</course>
  <speed>26.969695956758578</speed>
  <fix>3d</fix>
</trkpt>
<trkpt lat="-27.2723322" lon="151.3274833">
  <ele>526.83</ele>
  <time>2026-09-01T20:01:29Z</time>
  <course>205.99</course>
  <speed>27.03</speed>
  <fix>3d</fix>
</trkpt>
<trkpt lat="-27.2723975" lon="151.3274443">
  <ele>526.47</ele>
  <time>2026-09-01T20:01:29Z</time>
  <course>207.71</course>
  <speed>26.94817433519384</speed>
  <fix>3d</fix>
</trkpt>
<trkpt lat="-27.2723752" lon="151.3274581">
  <ele>526.61</ele>
  <time>2026-09-01T20:01:29Z</time>
  <course>208.97</course>
  <speed>26.97</speed>
  <fix>3d</fix>
</trkpt>
<trkpt lat="-27.2724181" lon="151.32743">
  <ele>526.32</ele>
  <time>2026-09-01T20:01:29Z</time>
  <course>208.99</course>
  <speed>26.92716472263651</speed>
  <fix>3d</fix>
</trkpt>
<trkpt lat="-27.2723752" lon="151.3274581">
  <ele>526.61</ele>
  <time>2026-09-01T20:01:29Z</time>
  <course>208.97</course>
  <speed>26.97</speed>
  <fix>3d</fix>
</trkpt>
<trkpt lat="-27.2724384" lon="151.3274154">
  <ele>526.15</ele>
  <time>2026-09-01T20:01:29Z</time>
  <course>210.16</course>
  <speed>26.894804330948386</speed>
  <fix>3d</fix>
</trkpt>
<trkpt lat="-27.2724168" lon="151.3274305">
  <ele>526.31</ele>
  <time>2026-09-01T20:01:29Z</time>
  <course>211.97</course>
  <speed>26.91</speed>
  <fix>3d</fix>
</trkpt>
<trkpt lat="-27.2724584" lon="151.3274001">
  <ele>525.99</ele>
  <time>2026-09-01T20:01:29Z</time>
  <course>211.09</course>
  <speed>26.865446208838595</speed>
  <fix>3d</fix>
</trkpt>
<trkpt lat="-27.2724168" lon="151.3274305">
  <ele>526.31</ele>
  <time>2026-09-01T20:01:29Z</time>
  <course>211.97</course>
  <speed>26.91</speed>
  <fix>3d</fix>
</trkpt>
<trkpt lat="-27.2724781" lon="151.3273845">
  <ele>525.82</ele>
  <time>2026-09-01T20:01:29Z</time>
  <course>211.86</course>
  <speed>26.81959917672149</speed>
  <fix>3d</fix>
</trkpt>
<trkpt lat="-27.2724572" lon="151.3274007">
  <ele>525.99</ele>
  <time>2026-09-01T20:01:29Z</time>
  <course>214.54</course>
  <speed>26.86</speed>
  <fix>3d</fix>
</trkpt>
<trkpt lat="-27.2724975" lon="151.3273685">
  <ele>525.64</ele>
  <time>2026-09-01T20:01:29Z</time>
  <course>212.59</course>
  <speed>26.774527073321014</speed>
  <fix>3d</fix>
</trkpt>
<trkpt lat="-27.2724572" lon="151.3274007">
  <ele>525.99</ele>
  <time>2026-09-01T20:01:29Z</time>
  <course>214.54</course>
  <speed>26.86</speed>
  <fix>3d</fix>
</trkpt>
<trkpt lat="-27.2725168" lon="151.3273523">
  <ele>525.46</ele>
  <time>2026-09-01T20:01:29Z</time>
  <course>213.32</course>
  <speed>26.724325997113564</speed>
  <fix>3d</fix>
</trkpt>
<trkpt lat="-27.2724964" lon="151.3273692">
  <ele>525.65</ele>
  <time>2026-09-01T20:01:29Z</time>
  <course>216.39</course>
  <speed>26.78</speed>
  <fix>3d</fix>
</trkpt>
<trkpt lat="-27.2725358" lon="151.3273358">
  <ele>525.27</ele>
  <time>2026-09-01T20:01:29Z</time>
  <course>214.03</course>
  <speed>26.678538190837966</speed>
  <fix>3d</fix>
</trkpt>
<trkpt lat="-27.2724964" lon="151.3273692">
  <ele>525.65</ele>
  <time>2026-09-01T20:01:29Z</time>
  <course>216.39</course>
  <speed>26.78</speed>
  <fix>3d</fix>
</trkpt>
<trkpt lat="-27.2725547" lon="151.3273194">
  <ele>525.07</ele>
  <time>2026-09-01T20:01:29Z</time>
  <course>214.74</course>
  <speed>26.625889656497865</speed>
  <fix>3d</fix>
</trkpt>
<trkpt lat="-27.2725347" lon="151.3273366">
  <ele>525.27</ele>
  <time>2026-09-01T20:01:29Z</time>
  <course>217.59</course>
  <speed>26.68</speed>
  <fix>3d</fix>
</trkpt>
<trkpt lat="-27.2725735" lon="151.3273027">
  <ele>524.87</ele>
  <time>2026-09-01T20:01:29Z</time>
  <course>215.38</course>
  <speed>26.58569728256154</speed>
  <fix>3d</fix>
</trkpt>
<trkpt lat="-27.2725347" lon="151.3273366">
  <ele>525.27</ele>
  <time>2026-09-01T20:01:29Z</time>
  <course>217.59</course>
  <speed>26.68</speed>
  <fix>3d</fix>
</trkpt>
<trkpt lat="-27.2725921" lon="151.3272859">
  <ele>524.66</ele>
  <time>2026-09-01T20:01:29Z</time>
  <course>215.94</course>
  <speed>26.537045803932283</speed>
  <fix>3d</fix>
</trkpt>
<trkpt lat="-27.2725724" lon="151.3273035">
  <ele>524.87</ele>
  <time>2026-09-01T20:01:29Z</time>
  <course>218.36</course>
  <speed>26.59</speed>
  <fix>3d</fix>
</trkpt>
<trkpt lat="-27.2726107" lon="151.3272692">
  <ele>524.44</ele>
  <time>2026-09-01T20:01:29Z</time>
  <course>216.44</course>
  <speed>26.498184843494467</speed>
  <fix>3d</fix>
</trkpt>
<trkpt lat="-27.2725724" lon="151.3273035">
  <ele>524.87</ele>
  <time>2026-09-01T20:01:29Z</time>
  <course>218.36</course>
  <speed>26.59</speed>
  <fix>3d</fix>
</trkpt>
<trkpt lat="-27.2726292" lon="151.3272524">
  <ele>524.22</ele>
  <time>2026-09-01T20:01:29Z</time>
  <course>216.86</course>
  <speed>26.454831316793534</speed>
  <fix>3d</fix>
</trkpt>
<trkpt lat="-27.2726098" lon="151.3272699">
  <ele>524.44</ele>
  <time>2026-09-01T20:01:29Z</time>
  <course>218.84</course>
  <speed>26.5</speed>
  <fix>3d</fix>
</trkpt>
<trkpt lat="-27.2726476" lon="151.3272355">
  <ele>524.0</ele>
  <time>2026-09-01T20:01:29Z</time>
  <course>217.28</course>
  <speed>26.428628416926976</speed>
  <fix>3d</fix>
</trkpt>
<trkpt lat="-27.2726098" lon="151.3272699">
  <ele>524.44</ele>
  <time>2026-09-01T20:01:29Z</time>
  <course>218.84</course>
  <speed>26.5</speed>
  <fix>3d</fix>
</trkpt>
<trkpt lat="-27.272666" lon="151.3272187">
  <ele>523.79</ele>
  <time>2026-09-01T20:01:29Z</time>
  <course>217.57</course>
  <speed>26.396185330460156</speed>
  <fix>3d</fix>
</trkpt>
<trkpt lat="-27.2726468" lon="151.3272362">
  <ele>524.01</ele>
  <time>2026-09-01T20:01:29Z</time>
  <course>219.11</course>
  <speed>26.43</speed>
  <fix>3d</fix>
</trkpt>
<trkpt lat="-27.2726844" lon="151.3272017">
  <ele>523.59</ele>
  <time>2026-09-01T20:01:29Z</time>
  <course>217.76</course>
  <speed>26.347654544569995</speed>
  <fix>3d</fix>
</trkpt>
<trkpt lat="-27.2726468" lon="151.3272362">
  <ele>524.01</ele>
  <time>2026-09-01T20:01:29Z</time>
  <course>219.11</course>
  <speed>26.43</speed>
  <fix>3d</fix>
</trkpt>
<trkpt lat="-27.2727027" lon="151.3271849">
  <ele>523.4</ele>
  <time>2026-09-01T20:01:29Z</time>
  <course>217.94</course>
  <speed>26.262741669521102</speed>
  <fix>3d</fix>
</trkpt>
<trkpt lat="-27.2726836" lon="151.3272025">
  <ele>523.6</ele>
  <time>2026-09-01T20:01:29Z</time>
  <course>219.12</course>
  <speed>26.34</speed>
  <fix>3d</fix>
</trkpt>
<trkpt lat="-27.272721" lon="151.3271684">
  <ele>523.21</ele>
  <time>2026-09-01T20:01:29Z</time>
  <course>218.14</course>
  <speed>26.120095711922648</speed>
  <fix>3d</fix>
</trkpt>
<trkpt lat="-27.2726836" lon="151.3272025">
  <ele>523.6</ele>
  <time>2026-09-01T20:01:29Z</time>
  <course>219.12</course>
  <speed>26.34</speed>
  <fix>3d</fix>
</trkpt>
<trkpt lat="-27.2727393" lon="151.3271519">
  <ele>523.03</ele>
  <time>2026-09-01T20:01:29Z</time>
  <course>218.22</course>
  <speed>25.922200909645</speed>
  <fix>3d</fix>
</trkpt>
<trkpt lat="-27.2727203" lon="151.3271692">
  <ele>523.22</ele>
  <time>2026-09-01T20:01:29Z</time>
  <course>218.69</course>
  <speed>26.1</speed>
  <fix>3d</fix>
</trkpt>
<trkpt lat="-27.2727576" lon="151.3271359">
  <ele>522.88</ele>
  <time>2026-09-01T20:01:29Z</time>
  <course>218.14</course>
  <speed>25.67327404130607</speed>
  <fix>3d</fix>
</trkpt>
<trkpt lat="-27.2727203" lon="151.3271692">
  <ele>523.22</ele>
  <time>2026-09-01T20:01:29Z</time>
  <course>218.69</course>
  <speed>26.1</speed>
  <fix>3d</fix>
</trkpt>
<trkpt lat="-27.2727757" lon="151.3271202">
  <ele>522.76</ele>
  <time>2026-09-01T20:01:29Z</time>
  <course>217.9</course>
  <speed>25.364455444578343</speed>
  <fix>3d</fix>
</trkpt>
<trkpt lat="-27.2727568" lon="151.3271368">
  <ele>522.9</ele>
  <time>2026-09-01T20:01:29Z</time>
  <course>217.79</course>
  <speed>25.66</speed>
  <fix>3d</fix>
</trkpt>
<trkpt lat="-27.2727938" lon="151.327105">
  <ele>522.69</ele>
  <time>2026-09-01T20:01:29Z</time>
  <course>217.54</course>
  <speed>25.02818411311536</speed>
  <fix>3d</fix>
</trkpt>
<trkpt lat="-27.2727568" lon="151.3271368">
  <ele>522.9</ele>
  <time>2026-09-01T20:01:29Z</time>
  <course>217.79</course>
  <speed>25.66</speed>
  <fix>3d</fix>
</trkpt>
<trkpt lat="-27.2728118" lon="151.32709">
  <ele>522.65</ele>
  <time>2026-09-01T20:01:29Z</time>
  <course>217.15</course>
  <speed>24.690022276215146</speed>
  <fix>3d</fix>
</trkpt>
<trkpt lat="-27.272793" lon="151.3271057">
  <ele>522.71</ele>
  <time>2026-09-01T20:01:29Z</time>
  <course>216.71</course>
  <speed>25.04</speed>
  <fix>3d</fix>
</trkpt>
<trkpt lat="-27.2728296" lon="151.3270755">
  <ele>522.64</ele>
  <time>2026-09-01T20:01:29Z</time>
  <course>216.78</course>
  <speed>24.34473248980157</speed>
  <fix>3d</fix>
</trkpt>
<trkpt lat="-27.272793" lon="151.3271057">
  <ele>522.71</ele>
  <time>2026-09-01T20:01:29Z</time>
  <course>216.71</course>
  <speed>25.04</speed>
  <fix>3d</fix>
</trkpt>
<trkpt lat="-27.2728473" lon="151.3270613">
  <ele>522.64</ele>
  <time>2026-09-01T20:01:29Z</time>
  <course>216.44</course>
  <speed>23.993553300834787</speed>
  <fix>3d</fix>
</trkpt>
<trkpt lat="-27.2728288" lon="151.3270762">
  <ele>522.64</ele>
  <time>2026-09-01T20:01:29Z</time>
  <course>215.81</course>
  <speed>24.36</speed>
  <fix>3d</fix>
</trkpt>
<trkpt lat="-27.2728648" lon="151.3270474">
  <ele>522.66</ele>
  <time>2026-09-01T20:01:29Z</time>
  <course>216.13</course>
  <speed>23.657947924534792</speed>
  <fix>3d</fix>
</trkpt>
<trkpt lat="-27.2728288" lon="151.3270762">
  <ele>522.64</ele>
  <time>2026-09-01T20:01:29Z</time>
  <course>215.81</course>
  <speed>24.36</speed>
  <fix>3d</fix>
</trkpt>
<trkpt lat="-27.272882" lon="151.3270336">
  <ele>522.66</ele>
  <time>2026-09-01T20:01:29Z</time>
  <course>215.84</course>
  <speed>23.334185222544196</speed>
  <fix>3d</fix>
</trkpt>
<trkpt lat="-27.2728639" lon="151.327048">
  <ele>522.65</ele>
  <time>2026-09-01T20:01:29Z</time>
  <course>215.24</course>
  <speed>23.68</speed>
  <fix>3d</fix>
</trkpt>
<trkpt lat="-27.2728991" lon="151.3270202">
  <ele>522.66</ele>
  <time>2026-09-01T20:01:29Z</time>
  <course>215.57</course>
  <speed>23.019628580843783</speed>
  <fix>3d</fix>
</trkpt>
<trkpt lat="-27.2728639" lon="151.327048">
  <ele>522.65</ele>
  <time>2026-09-01T20:01:29Z</time>
  <course>215.24</course>
  <speed>23.68</speed>
  <fix>3d</fix>
</trkpt>
<trkpt lat="-27.2729161" lon="151.3270069">
  <ele>522.66</ele>
  <time>2026-09-01T20:01:29Z</time>
  <course>215.32</course>
  <speed>22.71909329176673</speed>
  <fix>3d</fix>
</trkpt>
<trkpt lat="-27.2728982" lon="151.3270209">
  <ele>522.66</ele>
  <time>2026-09-01T20:01:29Z</time>
  <course>214.91</course>
  <speed>23.04</speed>
  <fix>3d</fix>
</trkpt>
<trkpt lat="-27.2729327" lon="151.3269939">
  <ele>522.66</ele>
  <time>2026-09-01T20:01:29Z</time>
  <course>215.11</course>
  <speed>22.430035666489697</speed>
  <fix>3d</fix>
</trkpt>
<trkpt lat="-27.2728982" lon="151.3270209">
  <ele>522.66</ele>
  <time>2026-09-01T20:01:29Z</time>
  <course>214.91</course>
  <speed>23.04</speed>
  <fix>3d</fix>
</trkpt>
<trkpt lat="-27.2729492" lon="151.3269812">
  <ele>522.63</ele>
  <time>2026-09-01T20:01:29Z</time>
  <course>214.94</course>
  <speed>22.15493173088105</speed>
  <fix>3d</fix>
</trkpt>
<trkpt lat="-27.2729318" lon="151.3269947">
  <ele>522.65</ele>
  <time>2026-09-01T20:01:29Z</time>
  <course>214.71</course>
  <speed>22.45</speed>
  <fix>3d</fix>
</trkpt>
<trkpt lat="-27.2729655" lon="151.3269685">
  <ele>522.6</ele>
  <time>2026-09-01T20:01:29Z</time>
  <course>214.8</course>
  <speed>21.87986517325918</speed>
  <fix>3d</fix>
</trkpt>
<trkpt lat="-27.2729318" lon="151.3269947">
  <ele>522.65</ele>
  <time>2026-09-01T20:01:29Z</time>
  <course>214.71</course>
  <speed>22.45</speed>
  <fix>3d</fix>
</trkpt>
<trkpt lat="-27.2729816" lon="151.3269561">
  <ele>522.54</ele>
  <time>2026-09-01T20:01:29Z</time>
  <course>214.69</course>
  <speed>21.63264662495091</speed>
  <fix>3d</fix>
</trkpt>
<trkpt lat="-27.2729646" lon="151.3269692">
  <ele>522.58</ele>
  <time>2026-09-01T20:01:29Z</time>
  <course>214.56</course>
  <speed>21.91</speed>
  <fix>3d</fix>
</trkpt>
<trkpt lat="-27.2729975" lon="151.3269437">
  <ele>522.49</ele>
  <time>2026-09-01T20:01:29Z</time>
  <course>214.61</course>
  <speed>21.385455337682195</speed>
  <fix>3d</fix>
</trkpt>
<trkpt lat="-27.2729646" lon="151.3269692">
  <ele>522.58</ele>
  <time>2026-09-01T20:01:29Z</time>
  <course>214.56</course>
  <speed>21.91</speed>
  <fix>3d</fix>
</trkpt>
<trkpt lat="-27.2730133" lon="151.3269316">
  <ele>522.41</ele>
  <time>2026-09-01T20:01:29Z</time>
  <course>214.54</course>
  <speed>21.152191375836214</speed>
  <fix>3d</fix>
</trkpt>
<trkpt lat="-27.2729967" lon="151.3269443">
  <ele>522.48</ele>
  <time>2026-09-01T20:01:29Z</time>
  <course>214.44</course>
  <speed>21.4</speed>
  <fix>3d</fix>
</trkpt>
<trkpt lat="-27.2730289" lon="151.3269196">
  <ele>522.32</ele>
  <time>2026-09-01T20:01:29Z</time>
  <course>214.48</course>
  <speed>20.924588406943634</speed>
  <fix>3d</fix>
</trkpt>
<trkpt lat="-27.2729967" lon="151.3269443">
  <ele>522.48</ele>
  <time>2026-09-01T20:01:29Z</time>
  <course>214.44</course>
  <speed>21.4</speed>
  <fix>3d</fix>
</trkpt>
<trkpt lat="-27.2730443" lon="151.3269077">
  <ele>522.22</ele>
  <time>2026-09-01T20:01:29Z</time>
  <course>214.43</course>
  <speed>20.71352215341466</speed>
  <fix>3d</fix>
</trkpt>
<trkpt lat="-27.2730281" lon="151.3269202">
  <ele>522.32</ele>
  <time>2026-09-01T20:01:29Z</time>
  <course>214.32</course>
  <speed>20.94</speed>
  <fix>3d</fix>
</trkpt>
<trkpt lat="-27.2730596" lon="151.3268961">
  <ele>522.11</ele>
  <time>2026-09-01T20:01:29Z</time>
  <course>214.38</course>
  <speed>20.508108152630754</speed>
  <fix>3d</fix>
</trkpt>
<trkpt lat="-27.2730281" lon="151.3269202">
  <ele>522.32</ele>
  <time>2026-09-01T20:01:29Z</time>
  <course>214.32</course>
  <speed>20.94</speed>
  <fix>3d</fix>
</trkpt>
<trkpt lat="-27.2730748" lon="151.3268845">
  <ele>521.98</ele>
  <time>2026-09-01T20:01:29Z</time>
  <course>214.33</course>
  <speed>20.31659912485355</speed>
  <fix>3d</fix>
</trkpt>
<trkpt lat="-27.2730589" lon="151.3268966">
  <ele>522.11</ele>
  <time>2026-09-01T20:01:29Z</time>
  <course>214.22</course>
  <speed>20.53</speed>
  <fix>3d</fix>
</trkpt>
<trkpt lat="-27.2730898" lon="151.326873">
  <ele>521.85</ele>
  <time>2026-09-01T20:01:29Z</time>
  <course>214.27</course>
  <speed>20.138989547641163</speed>
  <fix>3d</fix>
</trkpt>
<trkpt lat="-27.2730589" lon="151.3268966">
  <ele>522.11</ele>
  <time>2026-09-01T20:01:29Z</time>
  <course>214.22</course>
  <speed>20.53</speed>
  <fix>3d</fix>
</trkpt>
<trkpt lat="-27.2731047" lon="151.3268616">
  <ele>521.71</ele>
  <time>2026-09-01T20:01:29Z</time>
  <course>214.21</course>
  <speed>19.961387727309944</speed>
  <fix>3d</fix>
</trkpt>
<trkpt lat="-27.2730891" lon="151.3268734">
  <ele>521.84</ele>
  <time>2026-09-01T20:01:29Z</time>
  <course>214.13</course>
  <speed>20.15</speed>
  <fix>3d</fix>
</trkpt>
<trkpt lat="-27.2731195" lon="151.3268503">
  <ele>521.56</ele>
  <time>2026-09-01T20:01:29Z</time>
  <course>214.16</course>
  <speed>19.7920792237703</speed>
  <fix>3d</fix>
</trkpt>
<trkpt lat="-27.2730891" lon="151.3268734">
  <ele>521.84</ele>
  <time>2026-09-01T20:01:29Z</time>
  <course>214.13</course>
  <speed>20.15</speed>
  <fix>3d</fix>
</trkpt>
<trkpt lat="-27.2731342" lon="151.3268392">
  <ele>521.4</ele>
  <time>2026-09-01T20:01:29Z</time>
  <course>214.11</course>
  <speed>19.628379963715805</speed>
  <fix>3d</fix>
</trkpt>
<trkpt lat="-27.2731188" lon="151.3268509">
  <ele>521.56</ele>
  <time>2026-09-01T20:01:29Z</time>
  <course>214.06</course>
  <speed>19.8</speed>
  <fix>3d</fix>
</trkpt>
<trkpt lat="-27.2731488" lon="151.3268282">
  <ele>521.24</ele>
  <time>2026-09-01T20:01:29Z</time>
  <course>214.07</course>
  <speed>19.478567709151513</speed>
  <fix>3d</fix>
</trkpt>
<trkpt lat="-27.2731188" lon="151.3268509">
  <ele>521.56</ele>
  <time>2026-09-01T20:01:29Z</time>
  <course>214.06</course>
  <speed>19.8</speed>
  <fix>3d</fix>
</trkpt>
<trkpt lat="-27.2731632" lon="151.3268172">
  <ele>521.07</ele>
  <time>2026-09-01T20:01:29Z</time>
  <course>214.03</course>
  <speed>19.328758366744616</speed>
  <fix>3d</fix>
</trkpt>
<trkpt lat="-27.2731481" lon="151.3268287">
  <ele>521.24</ele>
  <time>2026-09-01T20:01:29Z</time>
  <course>213.99</course>
  <speed>19.49</speed>
  <fix>3d</fix>
</trkpt>
<trkpt lat="-27.2731776" lon="151.3268062">
  <ele>520.9</ele>
  <time>2026-09-01T20:01:29Z</time>
  <course>214.0</course>
  <speed>19.187248369685527</speed>
  <fix>3d</fix>
</trkpt>
<trkpt lat="-27.2731481" lon="151.3268287">
  <ele>521.24</ele>
  <time>2026-09-01T20:01:29Z</time>
  <course>213.99</course>
  <speed>19.49</speed>
  <fix>3d</fix>
</trkpt>
<trkpt lat="-27.2731918" lon="151.3267956">
  <ele>520.72</ele>
  <time>2026-09-01T20:01:29Z</time>
  <course>213.97</course>
  <speed>19.045747556869486</speed>
  <fix>3d</fix>
</trkpt>
<trkpt lat="-27.2731769" lon="151.3268068">
  <ele>520.9</ele>
  <time>2026-09-01T20:01:29Z</time>
  <course>213.93</course>
  <speed>19.19</speed>
  <fix>3d</fix>
</trkpt>
<trkpt lat="-27.273206" lon="151.3267849">
  <ele>520.54</ele>
  <time>2026-09-01T20:01:29Z</time>
  <course>213.93</course>
  <speed>18.918131514502164</speed>
  <fix>3d</fix>
</trkpt>
<trkpt lat="-27.2731769" lon="151.3268068">
  <ele>520.9</ele>
  <time>2026-09-01T20:01:29Z</time>
  <course>213.93</course>
  <speed>19.19</speed>
  <fix>3d</fix>
</trkpt>
<trkpt lat="-27.27322" lon="151.3267742">
  <ele>520.37</ele>
  <time>2026-09-01T20:01:29Z</time>
  <course>213.9</course>
  <speed>18.782214991848008</speed>
  <fix>3d</fix>
</trkpt>
<trkpt lat="-27.2732053" lon="151.3267853">
  <ele>520.55</ele>
  <time>2026-09-01T20:01:29Z</time>
  <course>213.87</course>
  <speed>18.92</speed>
  <fix>3d</fix>
</trkpt>
<trkpt lat="-27.273234" lon="151.3267636">
  <ele>520.18</ele>
  <time>2026-09-01T20:01:29Z</time>
  <course>213.87</course>
  <speed>18.662917778311087</speed>
  <fix>3d</fix>
</trkpt>
<trkpt lat="-27.2732053" lon="151.3267853">
  <ele>520.55</ele>
  <time>2026-09-01T20:01:29Z</time>
  <course>213.87</course>
  <speed>18.92</speed>
  <fix>3d</fix>
</trkpt>
<trkpt lat="-27.2732479" lon="151.3267533">
  <ele>520.0</ele>
  <time>2026-09-01T20:01:29Z</time>
  <course>213.84</course>
  <speed>18.540879159306336</speed>
  <fix>3d</fix>
</trkpt>
<trkpt lat="-27.2732333" lon="151.3267641">
  <ele>520.18</ele>
  <time>2026-09-01T20:01:29Z</time>
  <course>213.81</course>
  <speed>18.67</speed>
  <fix>3d</fix>
</trkpt>
<trkpt lat="-27.2732617" lon="151.3267429">
  <ele>519.81</ele>
  <time>2026-09-01T20:01:29Z</time>
  <course>213.81</course>
  <speed>18.427153876819936</speed>
  <fix>3d</fix>
</trkpt>
<trkpt lat="-27.2732333" lon="151.3267641">
  <ele>520.18</ele>
  <time>2026-09-01T20:01:29Z</time>
  <course>213.81</course>
  <speed>18.67</speed>
  <fix>3d</fix>
</trkpt>
<trkpt lat="-27.2732754" lon="151.3267325">
  <ele>519.62</ele>
  <time>2026-09-01T20:01:29Z</time>
  <course>213.78</course>
  <speed>18.31343222883138</speed>
  <fix>3d</fix>
</trkpt>
<trkpt lat="-27.273261" lon="151.3267433">
  <ele>519.81</ele>
  <time>2026-09-01T20:01:29Z</time>
  <course>213.75</course>
  <speed>18.43</speed>
  <fix>3d</fix>
</trkpt>
<trkpt lat="-27.2732891" lon="151.3267223">
  <ele>519.43</ele>
  <time>2026-09-01T20:01:29Z</time>
  <course>213.75</course>
  <speed>18.20803394109315</speed>
  <fix>3d</fix>
</trkpt>
<trkpt lat="-27.273261" lon="151.3267433">
  <ele>519.81</ele>
  <time>2026-09-01T20:01:29Z</time>
  <course>213.75</course>
  <speed>18.43</speed>
  <fix>3d</fix>
</trkpt>
<trkpt lat="-27.2733026" lon="151.3267122">
  <ele>519.24</ele>
  <time>2026-09-01T20:01:29Z</time>
  <course>213.73</course>
  <speed>18.09432231391936</speed>
  <fix>3d</fix>
</trkpt>
<trkpt lat="-27.2732885" lon="151.3267227">
  <ele>519.43</ele>
  <time>2026-09-01T20:01:29Z</time>
  <course>213.7</course>
  <speed>18.21</speed>
  <fix>3d</fix>
</trkpt>
<trkpt lat="-27.2733161" lon="151.3267019">
  <ele>519.04</ele>
  <time>2026-09-01T20:01:29Z</time>
  <course>213.7</course>
  <speed>17.994479709066333</speed>
  <fix>3d</fix>
</trkpt>
<trkpt lat="-27.2732885" lon="151.3267227">
  <ele>519.43</ele>
  <time>2026-09-01T20:01:29Z</time>
  <course>213.7</course>
  <speed>18.21</speed>
  <fix>3d</fix>
</trkpt>
<trkpt lat="-27.2733296" lon="151.3266918">
  <ele>518.85</ele>
  <time>2026-09-01T20:01:29Z</time>
  <course>213.67</course>
  <speed>17.894638861960864</speed>
  <fix>3d</fix>
</trkpt>
<trkpt lat="-27.2733156" lon="151.3267023">
  <ele>519.05</ele>
  <time>2026-09-01T20:01:29Z</time>
  <course>213.65</course>
  <speed>18.0</speed>
  <fix>3d</fix>
</trkpt>
<trkpt lat="-27.2733429" lon="151.3266818">
  <ele>518.65</ele>
  <time>2026-09-01T20:01:29Z</time>
  <course>213.65</course>
  <speed>17.803128938475954</speed>
  <fix>3d</fix>
</trkpt>
<trkpt lat="-27.2733156" lon="151.3267023">
  <ele>519.05</ele>
  <time>2026-09-01T20:01:29Z</time>
  <course>213.65</course>
  <speed>18.0</speed>
  <fix>3d</fix>
</trkpt>
<trkpt lat="-27.2733563" lon="151.326672">
  <ele>518.46</ele>
  <time>2026-09-01T20:01:29Z</time>
  <course>213.63</course>
  <speed>17.703293478898214</speed>
  <fix>3d</fix>
</trkpt>
<trkpt lat="-27.2733424" lon="151.3266823">
  <ele>518.66</ele>
  <time>2026-09-01T20:01:29Z</time>
  <course>213.6</course>
  <speed>17.81</speed>
  <fix>3d</fix>
</trkpt>
<trkpt lat="-27.2733695" lon="151.3266621">
  <ele>518.26</ele>
  <time>2026-09-01T20:01:29Z</time>
  <course>213.6</course>
  <speed>17.617321022221283</speed>
  <fix>3d</fix>
</trkpt>
<trkpt lat="-27.2733424" lon="151.3266823">
  <ele>518.66</ele>
  <time>2026-09-01T20:01:29Z</time>
  <course>213.6</course>
  <speed>17.81</speed>
  <fix>3d</fix>
</trkpt>
<trkpt lat="-27.2733827" lon="151.3266523">
  <ele>518.06</ele>
  <time>2026-09-01T20:01:29Z</time>
  <course>213.58</course>
  <speed>17.52582380374743</speed>
  <fix>3d</fix>
</trkpt>
<trkpt lat="-27.2733689" lon="151.3266625">
  <ele>518.26</ele>
  <time>2026-09-01T20:01:29Z</time>
  <course>213.55</course>
  <speed>17.62</speed>
  <fix>3d</fix>
</trkpt>
<trkpt lat="-27.2715585" lon="151.3307098">
  <ele>540.72</ele>
  <time>2026-09-01T20:01:29Z</time>
  <course>250.49</course>
  <speed>11.993139705681745</speed>
  <fix>3d</fix>
</trkpt>
<trkpt lat="-27.2733689" lon="151.3266625">
  <ele>518.26</ele>
  <time>2026-09-01T20:01:29Z</time>
  <course>213.55</course>
  <speed>17.62</speed>
  <fix>3d</fix>
</trkpt>
<trkpt lat="-27.2715612" lon="151.3306984">
  <ele>536.87</ele>
  <time>2026-09-01T20:01:29Z</time>
  <course>249.59</course>
  <speed>11.644075746919547</speed>
  <fix>3d</fix>
</trkpt>
<trkpt lat="-27.2724716" lon="151.3286757">
  <ele>527.55</ele>
  <time>2026-09-01T20:01:29Z</time>
  <course>229.54</course>
  <speed>13.7</speed>
  <fix>3d</fix>
</trkpt>
<trkpt lat="-27.2715651" lon="151.3306868">
  <ele>533.03</ele>
  <time>2026-09-01T20:01:29Z</time>
  <course>236.39</course>
  <speed>13.054949253061078</speed>
  <fix>3d</fix>
</trkpt>
<trkpt lat="-27.2724716" lon="151.3286757">
  <ele>527.55</ele>
  <time>2026-09-01T20:01:29Z</time>
  <course>229.54</course>
  <speed>13.7</speed>
  <fix>3d</fix>
</trkpt>
<trkpt lat="-27.271572" lon="151.3306752">
  <ele>529.26</ele>
  <time>2026-09-01T20:01:29Z</time>
  <course>216.57</course>
  <speed>14.460822936472184</speed>
  <fix>3d</fix>
</trkpt>
<trkpt lat="-27.2715664" lon="151.3306873">
  <ele>533.22</ele>
  <time>2026-09-01T20:01:29Z</time>
  <course>240.06</course>
  <speed>12.71</speed>
  <fix>3d</fix>
</trkpt>
<trkpt lat="-27.2715819" lon="151.3306653">
  <ele>525.53</ele>
  <time>2026-09-01T20:01:29Z</time>
  <course>202.45</course>
  <speed>14.930405218881369</speed>
  <fix>3d</fix>
</trkpt>
<trkpt lat="-27.2715664" lon="151.3306873">
  <ele>533.22</ele>
  <time>2026-09-01T20:01:29Z</time>
  <course>240.06</course>
  <speed>12.71</speed>
  <fix>3d</fix>
</trkpt>
<trkpt lat="-27.271593" lon="151.3306565">
  <ele>521.81</ele>
  <time>2026-09-01T20:01:29Z</time>
  <course>206.35</course>
  <speed>15.8423356863816</speed>
  <fix>3d</fix>
</trkpt>
<trkpt lat="-27.2715821" lon="151.3306663">
  <ele>525.69</ele>
  <time>2026-09-01T20:01:29Z</time>
  <course>223.09</course>
  <speed>15.01</speed>
  <fix>3d</fix>
</trkpt>
<trkpt lat="-27.2716042" lon="151.3306424">
  <ele>518.26</ele>
  <time>2026-09-01T20:01:29Z</time>
  <course>224.62</course>
  <speed>22.184816880019543</speed>
  <fix>3d</fix>
</trkpt>
<trkpt lat="-27.2715821" lon="151.3306663">
  <ele>525.69</ele>
  <time>2026-09-01T20:01:29Z</time>
  <course>223.09</course>
  <speed>15.01</speed>
  <fix>3d</fix>
</trkpt>
<trkpt lat="-27.2716162" lon="151.3306199">
  <ele>515.32</ele>
  <time>2026-09-01T20:01:29Z</time>
  <course>233.17</course>
  <speed>29.904009764578394</speed>
  <fix>3d</fix>
</trkpt>
<trkpt lat="-27.2716041" lon="151.3306389">
  <ele>518.69</ele>
  <time>2026-09-01T20:01:29Z</time>
  <course>233.0</course>
  <speed>22.26</speed>
  <fix>3d</fix>
</trkpt>
<trkpt lat="-27.2716302" lon="151.3305909">
  <ele>513.26</ele>
  <time>2026-09-01T20:01:29Z</time>
  <course>235.52</course>
  <speed>35.007456348612365</speed>
  <fix>3d</fix>
</trkpt>
<trkpt lat="-27.2716041" lon="151.3306389">
  <ele>518.69</ele>
  <time>2026-09-01T20:01:29Z</time>
  <course>233.0</course>
  <speed>22.26</speed>
  <fix>3d</fix>
</trkpt>
<trkpt lat="-27.2716467" lon="151.3305593">
  <ele>512.14</ele>
  <time>2026-09-01T20:01:29Z</time>
  <course>232.01</course>
  <speed>37.026004375303586</speed>
  <fix>3d</fix>
</trkpt>
<trkpt lat="-27.2716308" lon="151.3305907">
  <ele>513.79</ele>
  <time>2026-09-01T20:01:29Z</time>
  <course>239.16</course>
  <speed>33.3</speed>
  <fix>3d</fix>
</trkpt>
<trkpt lat="-27.271666" lon="151.3305288">
  <ele>511.87</ele>
  <time>2026-09-01T20:01:29Z</time>
  <course>225.51</course>
  <speed>36.792991180386515</speed>
  <fix>3d</fix>
</trkpt>
<trkpt lat="-27.2716308" lon="151.3305907">
  <ele>513.79</ele>
  <time>2026-09-01T20:01:29Z</time>
  <course>239.16</course>
  <speed>33.3</speed>
  <fix>3d</fix>
</trkpt>
<trkpt lat="-27.2716879" lon="151.3305019">
  <ele>512.21</ele>
  <time>2026-09-01T20:01:29Z</time>
  <course>218.51</course>
  <speed>35.505912183747654</speed>
  <fix>3d</fix>
</trkpt>
<trkpt lat="-27.2716665" lon="151.3305317">
  <ele>512.18</ele>
  <time>2026-09-01T20:01:29Z</time>
  <course>231.0</course>
  <speed>36.02</speed>
  <fix>3d</fix>
</trkpt>
<trkpt lat="-27.2717119" lon="151.3304794">
  <ele>512.98</ele>
  <time>2026-09-01T20:01:29Z</time>
  <course>212.22</course>
  <speed>33.98016480242555</speed>
  <fix>3d</fix>
</trkpt>
<trkpt lat="-27.2716665" lon="151.3305317">
  <ele>512.18</ele>
  <time>2026-09-01T20:01:29Z</time>
  <course>231.0</course>
  <speed>36.02</speed>
  <fix>3d</fix>
</trkpt>
<trkpt lat="-27.2717371" lon="151.3304614">
  <ele>513.99</ele>
  <time>2026-09-01T20:01:29Z</time>
  <course>207.26</course>
  <speed>32.604186847704085</speed>
  <fix>3d</fix>
</trkpt>
<trkpt lat="-27.2717116" lon="151.3304824">
  <ele>513.07</ele>
  <time>2026-09-01T20:01:29Z</time>
  <course>217.01</course>
  <speed>33.83</speed>
  <fix>3d</fix>
</trkpt>
<trkpt lat="-27.2717628" lon="151.330447">
  <ele>515.14</ele>
  <time>2026-09-01T20:01:29Z</time>
  <course>203.79</course>
  <speed>31.460543542666265</speed>
  <fix>3d</fix>
</trkpt>
<trkpt lat="-27.2717116" lon="151.3304824">
  <ele>513.07</ele>
  <time>2026-09-01T20:01:29Z</time>
  <course>217.01</course>
  <speed>33.83</speed>
  <fix>3d</fix>
</trkpt>
<trkpt lat="-27.2717886" lon="151.3304354">
  <ele>516.37</ele>
  <time>2026-09-01T20:01:29Z</time>
  <course>201.87</course>
  <speed>30.533203238441914</speed>
  <fix>3d</fix>
</trkpt>
<trkpt lat="-27.271762" lon="151.3304488">
  <ele>515.14</ele>
  <time>2026-09-01T20:01:29Z</time>
  <course>204.97</course>
  <speed>31.5</speed>
  <fix>3d</fix>
</trkpt>
<trkpt lat="-27.2718142" lon="151.3304254">
  <ele>517.61</ele>
  <time>2026-09-01T20:01:29Z</time>
  <course>201.15</course>
  <speed>29.818009658593915</speed>
  <fix>3d</fix>
</trkpt>
<trkpt lat="-27.271762" lon="151.3304488">
  <ele>515.14</ele>
  <time>2026-09-01T20:01:29Z</time>
  <course>204.97</course>
  <speed>31.5</speed>
  <fix>3d</fix>
</trkpt>
<trkpt lat="-27.2718396" lon="151.3304164">
  <ele>518.85</ele>
  <time>2026-09-01T20:01:29Z</time>
  <course>201.17</course>
  <speed>29.285877142404324</speed>
  <fix>3d</fix>
</trkpt>
<trkpt lat="-27.2718132" lon="151.3304262">
  <ele>517.56</ele>
  <time>2026-09-01T20:01:29Z</time>
  <course>198.67</course>
  <speed>29.92</speed>
  <fix>3d</fix>
</trkpt>
<trkpt lat="-27.2718646" lon="151.330408">
  <ele>520.04</ele>
  <time>2026-09-01T20:01:29Z</time>
  <course>201.34</course>
  <speed>28.918708477385362</speed>
  <fix>3d</fix>
</trkpt>
<trkpt lat="-27.2718132" lon="151.3304262">
  <ele>517.56</ele>
  <time>2026-09-01T20:01:29Z</time>
  <course>198.67</course>
  <speed>29.92</speed>
  <fix>3d</fix>
</trkpt>
<trkpt lat="-27.2718893" lon="151.3303996">
  <ele>521.16</ele>
  <time>2026-09-01T20:01:29Z</time>
  <course>201.27</course>
  <speed>28.685243593178708</speed>
  <fix>3d</fix>
</trkpt>
<trkpt lat="-27.2718636" lon="151.3304083">
  <ele>519.96</ele>
  <time>2026-09-01T20:01:29Z</time>
  <course>196.97</course>
  <speed>29.0</speed>
  <fix>3d</fix>
</trkpt>
<trkpt lat="-27.2719139" lon="151.330391">
  <ele>522.18</ele>
  <time>2026-09-01T20:01:29Z</time>
  <course>200.87</course>
  <speed>28.54852010174958</speed>
  <fix>3d</fix>
</trkpt>
<trkpt lat="-27.2718636" lon="151.3304083">
  <ele>519.96</ele>
  <time>2026-09-01T20:01:29Z</time>
  <course>196.97</course>
  <speed>29.0</speed>
  <fix>3d</fix>
</trkpt>
<trkpt lat="-27.2719383" lon="151.3303824">
  <ele>523.09</ele>
  <time>2026-09-01T20:01:29Z</time>
  <course>200.21</course>
  <speed>28.466958039102106</speed>
  <fix>3d</fix>
</trkpt>
<trkpt lat="-27.271913" lon="151.3303913">
  <ele>522.08</ele>
  <time>2026-09-01T20:01:29Z</time>
  <course>197.25</course>
  <speed>28.58</speed>
  <fix>3d</fix>
</trkpt>
<trkpt lat="-27.2719626" lon="151.3303737">
  <ele>523.88</ele>
  <time>2026-09-01T20:01:29Z</time>
  <course>199.36</course>
  <speed>28.405481865301986</speed>
  <fix>3d</fix>
</trkpt>
<trkpt lat="-27.271913" lon="151.3303913">
  <ele>522.08</ele>
  <time>2026-09-01T20:01:29Z</time>
  <course>197.25</course>
  <speed>28.58</speed>
  <fix>3d</fix>
</trkpt>
<trkpt lat="-27.2719871" lon="151.3303649">
  <ele>524.56</ele>
  <time>2026-09-01T20:01:29Z</time>
  <course>198.48</course>
  <speed>28.328988686502736</speed>
  <fix>3d</fix>
</trkpt>
<trkpt lat="-27.2719618" lon="151.3303739">
  <ele>523.8</ele>
  <time>2026-09-01T20:01:29Z</time>
  <course>197.72</course>
  <speed>28.4</speed>
  <fix>3d</fix>
</trkpt>
<trkpt lat="-27.2720113" lon="151.3303561">
  <ele>525.13</ele>
  <time>2026-09-01T20:01:29Z</time>
  <course>197.71</course>
  <speed>28.240007082152086</speed>
  <fix>3d</fix>
</trkpt>
<trkpt lat="-27.2719618" lon="151.3303739">
  <ele>523.8</ele>
  <time>2026-09-01T20:01:29Z</time>
  <course>197.72</course>
  <speed>28.4</speed>
  <fix>3d</fix>
</trkpt>
<trkpt lat="-27.2720353" lon="151.3303472">
  <ele>525.59</ele>
  <time>2026-09-01T20:01:29Z</time>
  <course>197.12</course>
  <speed>28.128997493689678</speed>
  <fix>3d</fix>
</trkpt>
<trkpt lat="-27.2720101" lon="151.3303563">
  <ele>525.05</ele>
  <time>2026-09-01T20:01:29Z</time>
  <course>197.99</course>
  <speed>28.23</speed>
  <fix>3d</fix>
</trkpt>
<trkpt lat="-27.2720593" lon="151.3303383">
  <ele>525.96</ele>
  <time>2026-09-01T20:01:29Z</time>
  <course>196.71</course>
  <speed>28.017940680927996</speed>
  <fix>3d</fix>
</trkpt>
<trkpt lat="-27.2720101" lon="151.3303563">
  <ele>525.05</ele>
  <time>2026-09-01T20:01:29Z</time>
  <course>197.99</course>
  <speed>28.23</speed>
  <fix>3d</fix>
</trkpt>
<trkpt lat="-27.2720831" lon="151.3303295">
  <ele>526.26</ele>
  <time>2026-09-01T20:01:29Z</time>
  <course>196.58</course>
  <speed>27.90079031138724</speed>
  <fix>3d</fix>
</trkpt>
<trkpt lat="-27.2720581" lon="151.3303387">
  <ele>525.91</ele>
  <time>2026-09-01T20:01:29Z</time>
  <course>198.29</course>
  <speed>28.02</speed>
  <fix>3d</fix>
</trkpt>
<trkpt lat="-27.2721068" lon="151.3303205">
  <ele>526.48</ele>
  <time>2026-09-01T20:01:29Z</time>
  <course>196.68</course>
  <speed>27.794065913428355</speed>
  <fix>3d</fix>
</trkpt>
<trkpt lat="-27.2720581" lon="151.3303387">
  <ele>525.91</ele>
  <time>2026-09-01T20:01:29Z</time>
  <course>198.29</course>
  <speed>28.02</speed>
  <fix>3d</fix>
</trkpt>
<trkpt lat="-27.2721303" lon="151.3303113">
  <ele>526.64</ele>
  <time>2026-09-01T20:01:29Z</time>
  <course>196.96</course>
  <speed>27.686220399325002</speed>
  <fix>3d</fix>
</trkpt>
<trkpt lat="-27.2721057" lon="151.3303207">
  <ele>526.44</ele>
  <time>2026-09-01T20:01:29Z</time>
  <course>198.92</course>
  <speed>27.8</speed>
  <fix>3d</fix>
</trkpt>
<trkpt lat="-27.2721537" lon="151.3303019">
  <ele>526.74</ele>
  <time>2026-09-01T20:01:29Z</time>
  <course>197.42</course>
  <speed>27.591480569190193</speed>
  <fix>3d</fix>
</trkpt>
<trkpt lat="-27.2721057" lon="151.3303207">
  <ele>526.44</ele>
  <time>2026-09-01T20:01:29Z</time>
  <course>198.92</course>
  <speed>27.8</speed>
  <fix>3d</fix>
</trkpt>
<trkpt lat="-27.2721769" lon="151.3302922">
  <ele>526.79</ele>
  <time>2026-09-01T20:01:29Z</time>
  <course>198.05</course>
  <speed>27.502472616112172</speed>
  <fix>3d</fix>
</trkpt>
<trkpt lat="-27.2721526" lon="151.3303021">
  <ele>526.71</ele>
  <time>2026-09-01T20:01:29Z</time>
  <course>200.03</course>
  <speed>27.6</speed>
  <fix>3d</fix>
</trkpt>
<trkpt lat="-27.2721999" lon="151.3302822">
  <ele>526.82</ele>
  <time>2026-09-01T20:01:29Z</time>
  <course>198.84</course>
  <speed>27.436656137364842</speed>
  <fix>3d</fix>
</trkpt>
<trkpt lat="-27.2721526" lon="151.3303021">
  <ele>526.71</ele>
  <time>2026-09-01T20:01:29Z</time>
  <course>200.03</course>
  <speed>27.6</speed>
  <fix>3d</fix>
</trkpt>
<trkpt lat="-27.2722227" lon="151.3302718">
  <ele>526.79</ele>
  <time>2026-09-01T20:01:29Z</time>
  <course>199.85</course>
  <speed>27.372309000155614</speed>
  <fix>3d</fix>
</trkpt>
<trkpt lat="-27.2721989" lon="151.3302823">
  <ele>526.8</ele>
  <time>2026-09-01T20:01:29Z</time>
  <course>201.63</course>
  <speed>27.44</speed>
  <fix>3d</fix>
</trkpt>
<trkpt lat="-27.2722453" lon="151.3302608">
  <ele>526.76</ele>
  <time>2026-09-01T20:01:29Z</time>
  <course>200.94</course>
  <speed>27.319247793451414</speed>
  <fix>3d</fix>
</trkpt>
<trkpt lat="-27.2721989" lon="151.3302823">
  <ele>526.8</ele>
  <time>2026-09-01T20:01:29Z</time>
  <course>201.63</course>
  <speed>27.44</speed>
  <fix>3d</fix>
</trkpt>
<trkpt lat="-27.2722676" lon="151.3302496">
  <ele>526.68</ele>
  <time>2026-09-01T20:01:29Z</time>
  <course>202.11</course>
  <speed>27.269552618259066</speed>
  <fix>3d</fix>
</trkpt>
<trkpt lat="-27.2722444" lon="151.330261">
  <ele>526.74</ele>
  <time>2026-09-01T20:01:29Z</time>
  <course>203.69</course>
  <speed>27.32</speed>
  <fix>3d</fix>
</trkpt>
<trkpt lat="-27.2722897" lon="151.3302377">
  <ele>526.59</ele>
  <time>2026-09-01T20:01:29Z</time>
  <course>203.37</course>
  <speed>27.222668862549096</speed>
  <fix>3d</fix>
</trkpt>
<trkpt lat="-27.2722444" lon="151.330261">
  <ele>526.74</ele>
  <time>2026-09-01T20:01:29Z</time>
  <course>203.69</course>
  <speed>27.32</speed>
  <fix>3d</fix>
</trkpt>
<trkpt lat="-27.2723115" lon="151.3302253">
  <ele>526.47</ele>
  <time>2026-09-01T20:01:29Z</time>
  <course>204.67</course>
  <speed>27.193905567240613</speed>
  <fix>3d</fix>
</trkpt>
<trkpt lat="-27.2722888" lon="151.3302378">
  <ele>526.58</ele>
  <time>2026-09-01T20:01:29Z</time>
  <course>206.12</course>
  <speed>27.23</speed>
  <fix>3d</fix>
</trkpt>
<trkpt lat="-27.2723331" lon="151.3302123">
  <ele>526.34</ele>
  <time>2026-09-01T20:01:29Z</time>
  <course>205.95</course>
  <speed>27.167075661542963</speed>
  <fix>3d</fix>
</trkpt>
<trkpt lat="-27.2722888" lon="151.3302378">
  <ele>526.58</ele>
  <time>2026-09-01T20:01:29Z</time>
  <course>206.12</course>
  <speed>27.23</speed>
  <fix>3d</fix>
</trkpt>
<trkpt lat="-27.2723543" lon="151.3301988">
  <ele>526.2</ele>
  <time>2026-09-01T20:01:29Z</time>
  <course>207.11</course>
  <speed>27.14070374916612</speed>
  <fix>3d</fix>
</trkpt>
<trkpt lat="-27.2723322" lon="151.3302125">
  <ele>526.33</ele>
  <time>2026-09-01T20:01:29Z</time>
  <course>208.77</course>
  <speed>27.16</speed>
  <fix>3d</fix>
</trkpt>
<trkpt lat="-27.2723752" lon="151.3301847">
  <ele>526.04</ele>
  <time>2026-09-01T20:01:29Z</time>
  <course>208.09</course>
  <speed>27.113031921937463</speed>
  <fix>3d</fix>
</trkpt>
<trkpt lat="-27.2723322" lon="151.3302125">
  <ele>526.33</ele>
  <time>2026-09-01T20:01:29Z</time>
  <course>208.77</course>
  <speed>27.16</speed>
  <fix>3d</fix>
</trkpt>
<trkpt lat="-27.2723959" lon="151.3301703">
  <ele>525.88</ele>
  <time>2026-09-01T20:01:29Z</time>
  <course>208.92</course>
  <speed>27.089204491826628</speed>
  <fix>3d</fix>
</trkpt>
<trkpt lat="-27.2723743" lon="151.330185">
  <ele>526.04</ele>
  <time>2026-09-01T20:01:29Z</time>
  <course>211.28</course>
  <speed>27.11</speed>
  <fix>3d</fix>
</trkpt>
<trkpt lat="-27.2724163" lon="151.3301554">
  <ele>525.71</ele>
  <time>2026-09-01T20:01:29Z</time>
  <course>209.68</course>
  <speed>27.047522991948817</speed>
  <fix>3d</fix>
</trkpt>
<trkpt lat="-27.2723743" lon="151.330185">
  <ele>526.04</ele>
  <time>2026-09-01T20:01:29Z</time>
  <course>211.28</course>
  <speed>27.11</speed>
  <fix>3d</fix>
</trkpt>
<trkpt lat="-27.2724364" lon="151.3301402">
  <ele>525.54</ele>
  <time>2026-09-01T20:01:29Z</time>
  <course>210.38</course>
  <speed>27.01206026944261</speed>
  <fix>3d</fix>
</trkpt>
<trkpt lat="-27.2724155" lon="151.3301557">
  <ele>525.71</ele>
  <time>2026-09-01T20:01:29Z</time>
  <course>213.29</course>
  <speed>27.05</speed>
  <fix>3d</fix>
</trkpt>
<trkpt lat="-27.2724564" lon="151.3301248">
  <ele>525.36</ele>
  <time>2026-09-01T20:01:29Z</time>
  <course>211.11</course>
  <speed>26.960330116673276</speed>
  <fix>3d</fix>
</trkpt>
<trkpt lat="-27.2724155" lon="151.3301557">
  <ele>525.71</ele>
  <time>2026-09-01T20:01:29Z</time>
  <course>213.29</course>
  <speed>27.05</speed>
  <fix>3d</fix>
</trkpt>
<trkpt lat="-27.2724762" lon="151.3301091">
  <ele>525.16</ele>
  <time>2026-09-01T20:01:29Z</time>
  <course>211.82</course>
  <speed>26.912846374919173</speed>
  <fix>3d</fix>
</trkpt>
<trkpt lat="-27.2724557" lon="151.3301252">
  <ele>525.35</ele>
  <time>2026-09-01T20:01:29Z</time>
  <course>214.68</course>
  <speed>26.96</speed>
  <fix>3d</fix>
</trkpt>
<trkpt lat="-27.2724959" lon="151.3300933">
  <ele>524.97</ele>
  <time>2026-09-01T20:01:29Z</time>
  <course>212.51</course>
  <speed>26.874173475662463</speed>
  <fix>3d</fix>
</trkpt>
<trkpt lat="-27.2724557" lon="151.3301252">
  <ele>525.35</ele>
  <time>2026-09-01T20:01:29Z</time>
  <course>214.68</course>
  <speed>26.96</speed>
  <fix>3d</fix>
</trkpt>
<trkpt lat="-27.2725155" lon="151.3300774">
  <ele>524.77</ele>
  <time>2026-09-01T20:01:29Z</time>
  <course>213.12</course>
  <speed>26.829478190974942</speed>
  <fix>3d</fix>
</trkpt>
<trkpt lat="-27.2724952" lon="151.3300938">
  <ele>524.97</ele>
  <time>2026-09-01T20:01:29Z</time>
  <course>215.58</course>
  <speed>26.88</speed>
  <fix>3d</fix>
</trkpt>
<trkpt lat="-27.2725349" lon="151.3300616">
  <ele>524.56</ele>
  <time>2026-09-01T20:01:29Z</time>
  <course>213.69</course>
  <speed>26.78770240240846</speed>
  <fix>3d</fix>
</trkpt>
<trkpt lat="-27.2724952" lon="151.3300938">
  <ele>524.97</ele>
  <time>2026-09-01T20:01:29Z</time>
  <course>215.58</course>
  <speed>26.88</speed>
  <fix>3d</fix>
</trkpt>
<trkpt lat="-27.2725543" lon="151.3300454">
  <ele>524.34</ele>
  <time>2026-09-01T20:01:29Z</time>
  <course>214.13</course>
  <speed>26.752855922312296</speed>
  <fix>3d</fix>
</trkpt>
<trkpt lat="-27.2725342" lon="151.3300621">
  <ele>524.56</ele>
  <time>2026-09-01T20:01:29Z</time>
  <course>216.18</course>
  <speed>26.8</speed>
  <fix>3d</fix>
</trkpt>
<trkpt lat="-27.2725738" lon="151.3300293">
  <ele>524.12</ele>
  <time>2026-09-01T20:01:29Z</time>
  <course>214.57</course>
  <speed>26.71829710142471</speed>
  <fix>3d</fix>
</trkpt>
<trkpt lat="-27.2725342" lon="151.3300621">
  <ele>524.56</ele>
  <time>2026-09-01T20:01:29Z</time>
  <course>216.18</course>
  <speed>26.8</speed>
  <fix>3d</fix>
</trkpt>
<trkpt lat="-27.272593" lon="151.3300132">
  <ele>523.89</ele>
  <time>2026-09-01T20:01:29Z</time>
  <course>214.89</course>
  <speed>26.69609709302092</speed>
  <fix>3d</fix>
</trkpt>
<trkpt lat="-27.2725729" lon="151.33003">
  <ele>524.12</ele>
  <time>2026-09-01T20:01:29Z</time>
  <course>216.56</course>
  <speed>26.73</speed>
  <fix>3d</fix>
</trkpt>
<trkpt lat="-27.2726122" lon="151.329997">
  <ele>523.66</ele>
  <time>2026-09-01T20:01:29Z</time>
  <course>215.21</course>
  <speed>26.670029996233602</speed>
  <fix>3d</fix>
</trkpt>
<trkpt lat="-27.2725729" lon="151.33003">
  <ele>524.12</ele>
  <time>2026-09-01T20:01:29Z</time>
  <course>216.56</course>
  <speed>26.73</speed>
  <fix>3d</fix>
</trkpt>
<trkpt lat="-27.2726314" lon="151.3299808">
  <ele>523.46</ele>
  <time>2026-09-01T20:01:29Z</time>
  <course>215.45</course>
  <speed>26.64600908203703</speed>
  <fix>3d</fix>
</trkpt>
<trkpt lat="-27.2726114" lon="151.3299977">
  <ele>523.68</ele>
  <time>2026-09-01T20:01:29Z</time>
  <course>216.77</course>
  <speed>26.67</speed>
  <fix>3d</fix>
</trkpt>
<trkpt lat="-27.2726505" lon="151.3299648">
  <ele>523.26</ele>
  <time>2026-09-01T20:01:29Z</time>
  <course>215.63</course>
  <speed>26.624006084734884</speed>
  <fix>3d</fix>
</trkpt>
<trkpt lat="-27.2726114" lon="151.3299977">
  <ele>523.68</ele>
  <time>2026-09-01T20:01:29Z</time>
  <course>216.77</course>
  <speed>26.67</speed>
  <fix>3d</fix>
</trkpt>
<trkpt lat="-27.2726697" lon="151.3299487">
  <ele>523.09</ele>
  <time>2026-09-01T20:01:29Z</time>
  <course>215.76</course>
  <speed>26.590016923650122</speed>
  <fix>3d</fix>
</trkpt>
<trkpt lat="-27.2726498" lon="151.3299654">
  <ele>523.28</ele>
  <time>2026-09-01T20:01:29Z</time>
  <course>216.82</course>
  <speed>26.62</speed>
  <fix>3d</fix>
</trkpt>
<trkpt lat="-27.2726888" lon="151.3299326">
  <ele>522.93</ele>
  <time>2026-09-01T20:01:29Z</time>
  <course>215.82</course>
  <speed>26.558059040524782</speed>
  <fix>3d</fix>
</trkpt>
<trkpt lat="-27.2726498" lon="151.3299654">
  <ele>523.28</ele>
  <time>2026-09-01T20:01:29Z</time>
  <course>216.82</course>
  <speed>26.62</speed>
  <fix>3d</fix>
</trkpt>
<trkpt lat="-27.2727079" lon="151.3299166">
  <ele>522.81</ele>
  <time>2026-09-01T20:01:29Z</time>
  <course>215.83</course>
  <speed>26.51623653537583</speed>
  <fix>3d</fix>
</trkpt>
<trkpt lat="-27.2726881" lon="151.3299331">
  <ele>522.95</ele>
  <time>2026-09-01T20:01:29Z</time>
  <course>216.72</course>
  <speed>26.56</speed>
  <fix>3d</fix>
</trkpt>
<trkpt lat="-27.272727" lon="151.3299006">
  <ele>522.73</ele>
  <time>2026-09-01T20:01:29Z</time>
  <course>215.77</course>
  <speed>26.45459884405734</speed>
  <fix>3d</fix>
</trkpt>
<trkpt lat="-27.2726881" lon="151.3299331">
  <ele>522.95</ele>
  <time>2026-09-01T20:01:29Z</time>
  <course>216.72</course>
  <speed>26.56</speed>
  <fix>3d</fix>
</trkpt>
<trkpt lat="-27.2727461" lon="151.3298848">
  <ele>522.69</ele>
  <time>2026-09-01T20:01:29Z</time>
  <course>215.65</course>
  <speed>26.381281242578044</speed>
  <fix>3d</fix>
</trkpt>
<trkpt lat="-27.2727263" lon="151.3299012">
  <ele>522.75</ele>
  <time>2026-09-01T20:01:29Z</time>
  <course>216.48</course>
  <speed>26.45</speed>
  <fix>3d</fix>
</trkpt>
<trkpt lat="-27.2727652" lon="151.3298691">
  <ele>522.68</ele>
  <time>2026-09-01T20:01:29Z</time>
  <course>215.53</course>
  <speed>26.282465637759334</speed>
  <fix>3d</fix>
</trkpt>
<trkpt lat="-27.2727263" lon="151.3299012">
  <ele>522.75</ele>
  <time>2026-09-01T20:01:29Z</time>
  <course>216.48</course>
  <speed>26.45</speed>
  <fix>3d</fix>
</trkpt>
<trkpt lat="-27.2727842" lon="151.3298534">
  <ele>522.72</ele>
  <time>2026-09-01T20:01:29Z</time>
  <course>215.42</course>
  <speed>26.132707475498975</speed>
  <fix>3d</fix>
</trkpt>
<trkpt lat="-27.2727645" lon="151.3298696">
  <ele>522.7</ele>
  <time>2026-09-01T20:01:29Z</time>
  <course>216.06</course>
  <speed>26.26</speed>
  <fix>3d</fix>
</trkpt>
<trkpt lat="-27.2728032" lon="151.3298381">
  <ele>522.77</ele>
  <time>2026-09-01T20:01:29Z</time>
  <course>215.31</course>
  <speed>25.91287131909546</speed>
  <fix>3d</fix>
</trkpt>
<trkpt lat="-27.2727645" lon="151.3298696">
  <ele>522.7</ele>
  <time>2026-09-01T20:01:29Z</time>
  <course>216.06</course>
  <speed>26.26</speed>
  <fix>3d</fix>
</trkpt>
<trkpt lat="-27.2728222" lon="151.3298232">
  <ele>522.86</ele>
  <time>2026-09-01T20:01:29Z</time>
  <course>215.15</course>
  <speed>25.627251120633286</speed>
  <fix>3d</fix>
</trkpt>
<trkpt lat="-27.2728025" lon="151.3298388">
  <ele>522.78</ele>
  <time>2026-09-01T20:01:29Z</time>
  <course>215.36</course>
  <speed>25.89</speed>
  <fix>3d</fix>
</trkpt>
<trkpt lat="-27.272841" lon="151.3298086">
  <ele>522.97</ele>
  <time>2026-09-01T20:01:29Z</time>
  <course>214.95</course>
  <speed>25.265696111526395</speed>
  <fix>3d</fix>
</trkpt>
<trkpt lat="-27.2728025" lon="151.3298388">
  <ele>522.78</ele>
  <time>2026-09-01T20:01:29Z</time>
  <course>215.36</course>
  <speed>25.89</speed>
  <fix>3d</fix>
</trkpt>
<trkpt lat="-27.2728596" lon="151.3297944">
  <ele>523.12</ele>
  <time>2026-09-01T20:01:29Z</time>
  <course>214.71</course>
  <speed>24.853500759450366</speed>
  <fix>3d</fix>
</trkpt>
<trkpt lat="-27.2728402" lon="151.3298093">
  <ele>522.97</ele>
  <time>2026-09-01T20:01:29Z</time>
  <course>214.41</course>
  <speed>25.25</speed>
  <fix>3d</fix>
</trkpt>
<trkpt lat="-27.272878" lon="151.3297806">
  <ele>523.28</ele>
  <time>2026-09-01T20:01:29Z</time>
  <course>214.43</course>
  <speed>24.429189507636146</speed>
  <fix>3d</fix>
</trkpt>
<trkpt lat="-27.2728402" lon="151.3298093">
  <ele>522.97</ele>
  <time>2026-09-01T20:01:29Z</time>
  <course>214.41</course>
  <speed>25.25</speed>
  <fix>3d</fix>
</trkpt>
<trkpt lat="-27.2728962" lon="151.3297672">
  <ele>523.45</ele>
  <time>2026-09-01T20:01:29Z</time>
  <course>214.13</course>
  <speed>24.019758533340838</speed>
  <fix>3d</fix>
</trkpt>
<trkpt lat="-27.2728773" lon="151.3297812">
  <ele>523.27</ele>
  <time>2026-09-01T20:01:29Z</time>
  <course>213.51</course>
  <speed>24.45</speed>
  <fix>3d</fix>
</trkpt>
<trkpt lat="-27.2729142" lon="151.3297541">
  <ele>523.61</ele>
  <time>2026-09-01T20:01:29Z</time>
  <course>213.81</course>
  <speed>23.61911302314293</speed>
  <fix>3d</fix>
</trkpt>
<trkpt lat="-27.2728773" lon="151.3297812">
  <ele>523.27</ele>
  <time>2026-09-01T20:01:29Z</time>
  <course>213.51</course>
  <speed>24.45</speed>
  <fix>3d</fix>
</trkpt>
<trkpt lat="-27.2729319" lon="151.3297413">
  <ele>523.77</ele>
  <time>2026-09-01T20:01:29Z</time>
  <course>213.51</course>
  <speed>23.243670106074042</speed>
  <fix>3d</fix>
</trkpt>
<trkpt lat="-27.2729134" lon="151.3297546">
  <ele>523.6</ele>
  <time>2026-09-01T20:01:29Z</time>
  <course>212.84</course>
  <speed>23.65</speed>
  <fix>3d</fix>
</trkpt>
<trkpt lat="-27.2729494" lon="151.3297288">
  <ele>523.91</ele>
  <time>2026-09-01T20:01:29Z</time>
  <course>213.24</course>
  <speed>22.890096111637455</speed>
  <fix>3d</fix>
</trkpt>
<trkpt lat="-27.2729134" lon="151.3297546">
  <ele>523.6</ele>
  <time>2026-09-01T20:01:29Z</time>
  <course>212.84</course>
  <speed>23.65</speed>
  <fix>3d</fix>
</trkpt>
<trkpt lat="-27.2729666" lon="151.3297165">
  <ele>524.03</ele>
  <time>2026-09-01T20:01:29Z</time>
  <course>213.02</course>
  <speed>22.564330258175183</speed>
  <fix>3d</fix>
</trkpt>
<trkpt lat="-27.2729486" lon="151.3297293">
  <ele>523.9</ele>
  <time>2026-09-01T20:01:29Z</time>
  <course>212.4</course>
  <speed>22.92</speed>
  <fix>3d</fix>
</trkpt>
<trkpt lat="-27.2729836" lon="151.3297045">
  <ele>524.12</ele>
  <time>2026-09-01T20:01:29Z</time>
  <course>212.83</course>
  <speed>22.249379766636192</speed>
  <fix>3d</fix>
</trkpt>
<trkpt lat="-27.2729486" lon="151.3297293">
  <ele>523.9</ele>
  <time>2026-09-01T20:01:29Z</time>
  <course>212.4</course>
  <speed>22.92</speed>
  <fix>3d</fix>
</trkpt>
<trkpt lat="-27.2730005" lon="151.3296925">
  <ele>524.18</ele>
  <time>2026-09-01T20:01:29Z</time>
  <course>212.65</course>
  <speed>21.953617014059436</speed>
  <fix>3d</fix>
</trkpt>
<trkpt lat="-27.2729829" lon="151.3297049">
  <ele>524.1</ele>
  <time>2026-09-01T20:01:29Z</time>
  <course>212.1</course>
  <speed>22.27</speed>
  <fix>3d</fix>
</trkpt>
<trkpt lat="-27.273017" lon="151.329681">
  <ele>524.2</ele>
  <time>2026-09-01T20:01:29Z</time>
  <course>212.49</course>
  <speed>21.671698133741156</speed>
  <fix>3d</fix>
</trkpt>
<trkpt lat="-27.2729829" lon="151.3297049">
  <ele>524.1</ele>
  <time>2026-09-01T20:01:29Z</time>
  <course>212.1</course>
  <speed>22.27</speed>
  <fix>3d</fix>
</trkpt>
<trkpt lat="-27.2730335" lon="151.3296695">
  <ele>524.2</ele>
  <time>2026-09-01T20:01:29Z</time>
  <course>212.33</course>
  <speed>21.41210872380392</speed>
  <fix>3d</fix>
</trkpt>
<trkpt lat="-27.2730165" lon="151.3296814">
  <ele>524.19</ele>
  <time>2026-09-01T20:01:29Z</time>
  <course>211.89</course>
  <speed>21.69</speed>
  <fix>3d</fix>
</trkpt>
<trkpt lat="-27.2730498" lon="151.3296581">
  <ele>524.16</ele>
  <time>2026-09-01T20:01:29Z</time>
  <course>212.17</course>
  <speed>21.157844880800127</speed>
  <fix>3d</fix>
</trkpt>
<trkpt lat="-27.2730165" lon="151.3296814">
  <ele>524.19</ele>
  <time>2026-09-01T20:01:29Z</time>
  <course>211.89</course>
  <speed>21.69</speed>
  <fix>3d</fix>
</trkpt>
<trkpt lat="-27.2730659" lon="151.329647">
  <ele>524.11</ele>
  <time>2026-09-01T20:01:29Z</time>
  <course>212.03</course>
  <speed>20.922631287675078</speed>
  <fix>3d</fix>
</trkpt>
<trkpt lat="-27.2730492" lon="151.3296585">
  <ele>524.15</ele>
  <time>2026-09-01T20:01:29Z</time>
  <course>211.72</course>
  <speed>21.18</speed>
  <fix>3d</fix>
</trkpt>
<trkpt lat="-27.2730819" lon="151.3296359">
  <ele>524.03</ele>
  <time>2026-09-01T20:01:29Z</time>
  <course>211.89</course>
  <speed>20.70447294668473</speed>
  <fix>3d</fix>
</trkpt>
<trkpt lat="-27.2730492" lon="151.3296585">
  <ele>524.15</ele>
  <time>2026-09-01T20:01:29Z</time>
  <course>211.72</course>
  <speed>21.18</speed>
  <fix>3d</fix>
</trkpt>
<trkpt lat="-27.2730977" lon="151.329625">
  <ele>523.94</ele>
  <time>2026-09-01T20:01:29Z</time>
  <course>211.76</course>
  <speed>20.491583638167157</speed>
  <fix>3d</fix>
</trkpt>
<trkpt lat="-27.2730813" lon="151.3296363">
  <ele>524.02</ele>
  <time>2026-09-01T20:01:29Z</time>
  <course>211.58</course>
  <speed>20.72</speed>
  <fix>3d</fix>
</trkpt>
<trkpt lat="-27.2731133" lon="151.3296141">
  <ele>523.83</ele>
  <time>2026-09-01T20:01:29Z</time>
  <course>211.66</course>
  <speed>20.292466582453695</speed>
  <fix>3d</fix>
</trkpt>
<trkpt lat="-27.2730813" lon="151.3296363">
  <ele>524.02</ele>
  <time>2026-09-01T20:01:29Z</time>
  <course>211.58</course>
  <speed>20.72</speed>
  <fix>3d</fix>
</trkpt>
<trkpt lat="-27.2731288" lon="151.3296035">
  <ele>523.7</ele>
  <time>2026-09-01T20:01:29Z</time>
  <course>211.56</course>
  <speed>20.101902894999768</speed>
  <fix>3d</fix>
</trkpt>
<trkpt lat="-27.2731127" lon="151.3296146">
  <ele>523.82</ele>
  <time>2026-09-01T20:01:29Z</time>
  <course>211.46</course>
  <speed>20.3</speed>
  <fix>3d</fix>
</trkpt>
<trkpt lat="-27.2731441" lon="151.329593">
  <ele>523.57</ele>
  <time>2026-09-01T20:01:29Z</time>
  <course>211.49</course>
  <speed>19.925109786397666</speed>
  <fix>3d</fix>
</trkpt>
<trkpt lat="-27.2731127" lon="151.3296146">
  <ele>523.82</ele>
  <time>2026-09-01T20:01:29Z</time>
  <course>211.46</course>
  <speed>20.3</speed>
  <fix>3d</fix>
</trkpt>
<trkpt lat="-27.2731594" lon="151.3295825">
  <ele>523.41</ele>
  <time>2026-09-01T20:01:29Z</time>
  <course>211.42</course>
  <speed>19.75353132986606</speed>
  <fix>3d</fix>
</trkpt>
<trkpt lat="-27.2731436" lon="151.3295934">
  <ele>523.57</ele>
  <time>2026-09-01T20:01:29Z</time>
  <course>211.34</course>
  <speed>19.94</speed>
  <fix>3d</fix>
</trkpt>
<trkpt lat="-27.2731745" lon="151.3295723">
  <ele>523.27</ele>
  <time>2026-09-01T20:01:29Z</time>
  <course>211.36</course>
  <speed>19.5905104578722</speed>
  <fix>3d</fix>
</trkpt>
<trkpt lat="-27.2731436" lon="151.3295934">
  <ele>523.57</ele>
  <time>2026-09-01T20:01:29Z</time>
  <course>211.34</course>
  <speed>19.94</speed>
  <fix>3d</fix>
</trkpt>
<trkpt lat="-27.2731895" lon="151.3295621">
  <ele>523.11</ele>
  <time>2026-09-01T20:01:29Z</time>
  <course>211.3</course>
  <speed>19.436061843902433</speed>
  <fix>3d</fix>
</trkpt>
<trkpt lat="-27.2731739" lon="151.3295726">
  <ele>523.27</ele>
  <time>2026-09-01T20:01:29Z</time>
  <course>211.23</course>
  <speed>19.6</speed>
  <fix>3d</fix>
</trkpt>
<trkpt lat="-27.2732043" lon="151.329552">
  <ele>522.94</ele>
  <time>2026-09-01T20:01:29Z</time>
  <course>211.24</course>
  <speed>19.286808963641445</speed>
  <fix>3d</fix>
</trkpt>
<trkpt lat="-27.2731739" lon="151.3295726">
  <ele>523.27</ele>
  <time>2026-09-01T20:01:29Z</time>
  <course>211.23</course>
  <speed>19.6</speed>
  <fix>3d</fix>
</trkpt>
<trkpt lat="-27.2732191" lon="151.3295418">
  <ele>522.77</ele>
  <time>2026-09-01T20:01:29Z</time>
  <course>211.19</course>
  <speed>19.146132768786494</speed>
  <fix>3d</fix>
</trkpt>
<trkpt lat="-27.2732038" lon="151.3295523">
  <ele>522.94</ele>
  <time>2026-09-01T20:01:29Z</time>
  <course>211.12</course>
  <speed>19.3</speed>
  <fix>3d</fix>
</trkpt>
<trkpt lat="-27.2732338" lon="151.329532">
  <ele>522.6</ele>
  <time>2026-09-01T20:01:29Z</time>
  <course>211.13</course>
  <speed>19.010631236232005</speed>
  <fix>3d</fix>
</trkpt>
<trkpt lat="-27.2732038" lon="151.3295523">
  <ele>522.94</ele>
  <time>2026-09-01T20:01:29Z</time>
  <course>211.12</course>
  <speed>19.3</speed>
  <fix>3d</fix>
</trkpt>
<trkpt lat="-27.2732484" lon="151.3295221">
  <ele>522.41</ele>
  <time>2026-09-01T20:01:29Z</time>
  <course>211.08</course>
  <speed>18.8751370855949</speed>
  <fix>3d</fix>
</trkpt>
<trkpt lat="-27.2732332" lon="151.3295324">
  <ele>522.6</ele>
  <time>2026-09-01T20:01:29Z</time>
  <course>211.03</course>
  <speed>19.02</speed>
  <fix>3d</fix>
</trkpt>
<trkpt lat="-27.2732629" lon="151.3295124">
  <ele>522.24</ele>
  <time>2026-09-01T20:01:29Z</time>
  <course>211.03</course>
  <speed>18.74822658279977</speed>
  <fix>3d</fix>
</trkpt>
<trkpt lat="-27.2732332" lon="151.3295324">
  <ele>522.6</ele>
  <time>2026-09-01T20:01:29Z</time>
  <course>211.03</course>
  <speed>19.02</speed>
  <fix>3d</fix>
</trkpt>
<trkpt lat="-27.2732773" lon="151.3295025">
  <ele>522.06</ele>
  <time>2026-09-01T20:01:29Z</time>
  <course>210.99</course>
  <speed>18.621331853549037</speed>
  <fix>3d</fix>
</trkpt>
<trkpt lat="-27.2732623" lon="151.3295127">
  <ele>522.24</ele>
  <time>2026-09-01T20:01:29Z</time>
  <course>210.94</course>
  <speed>18.76</speed>
  <fix>3d</fix>
</trkpt>
<trkpt lat="-27.2732916" lon="151.3294929">
  <ele>521.87</ele>
  <time>2026-09-01T20:01:29Z</time>
  <course>210.94</course>
  <speed>18.508165765412844</speed>
  <fix>3d</fix>
</trkpt>
<trkpt lat="-27.2732623" lon="151.3295127">
  <ele>522.24</ele>
  <time>2026-09-01T20:01:29Z</time>
  <course>210.94</course>
  <speed>18.76</speed>
  <fix>3d</fix>
</trkpt>
<trkpt lat="-27.2733058" lon="151.3294834">
  <ele>521.68</ele>
  <time>2026-09-01T20:01:29Z</time>
  <course>210.9</course>
  <speed>18.386421620315357</speed>
  <fix>3d</fix>
</trkpt>
<trkpt lat="-27.273291" lon="151.3294934">
  <ele>521.87</ele>
  <time>2026-09-01T20:01:29Z</time>
  <course>210.86</course>
  <speed>18.51</speed>
  <fix>3d</fix>
</trkpt>
<trkpt lat="-27.27332" lon="151.329474">
  <ele>521.49</ele>
  <time>2026-09-01T20:01:29Z</time>
  <course>210.86</course>
  <speed>18.286981708308236</speed>
  <fix>3d</fix>
</trkpt>
<trkpt lat="-27.273291" lon="151.3294934">
  <ele>521.87</ele>
  <time>2026-09-01T20:01:29Z</time>
  <course>210.86</course>
  <speed>18.51</speed>
  <fix>3d</fix>
</trkpt>
<trkpt lat="-27.273334" lon="151.3294645">
  <ele>521.29</ele>
  <time>2026-09-01T20:01:29Z</time>
  <course>210.82</course>
  <speed>18.173841090974687</speed>
  <fix>3d</fix>
</trkpt>
<trkpt lat="-27.2733194" lon="151.3294743">
  <ele>521.5</ele>
  <time>2026-09-01T20:01:29Z</time>
  <course>210.78</course>
  <speed>18.29</speed>
  <fix>3d</fix>
</trkpt>
<trkpt lat="-27.273348" lon="151.3294551">
  <ele>521.11</ele>
  <time>2026-09-01T20:01:29Z</time>
  <course>210.78</course>
  <speed>18.074415619875516</speed>
  <fix>3d</fix>
</trkpt>
<trkpt lat="-27.2733194" lon="151.3294743">
  <ele>521.5</ele>
  <time>2026-09-01T20:01:29Z</time>
  <course>210.78</course>
  <speed>18.29</speed>
  <fix>3d</fix>
</trkpt>
<trkpt lat="-27.2733619" lon="151.3294459">
  <ele>520.91</ele>
  <time>2026-09-01T20:01:29Z</time>
  <course>210.75</course>
  <speed>17.966396411078097</speed>
  <fix>3d</fix>
</trkpt>
<trkpt lat="-27.2733476" lon="151.3294555">
  <ele>521.11</ele>
  <time>2026-09-01T20:01:29Z</time>
  <course>210.71</course>
  <speed>18.08</speed>
  <fix>3d</fix>
</trkpt>
<trkpt lat="-27.2733758" lon="151.3294367">
  <ele>520.72</ele>
  <time>2026-09-01T20:01:29Z</time>
  <course>210.71</course>
  <speed>17.875583906546943</speed>
  <fix>3d</fix>
</trkpt>
<trkpt lat="-27.2733476" lon="151.3294555">
  <ele>521.11</ele>
  <time>2026-09-01T20:01:29Z</time>
  <course>210.71</course>
  <speed>18.08</speed>
  <fix>3d</fix>
</trkpt>
<trkpt lat="-27.2733896" lon="151.3294274">
  <ele>520.52</ele>
  <time>2026-09-01T20:01:29Z</time>
  <course>210.67</course>
  <speed>17.776177879398034</speed>
  <fix>3d</fix>
</trkpt>
<trkpt lat="-27.2733754" lon="151.3294369">
  <ele>520.71</ele>
  <time>2026-09-01T20:01:29Z</time>
  <course>210.64</course>
  <speed>17.88</speed>
  <fix>3d</fix>
</trkpt>
<trkpt lat="-27.2734037" lon="151.3294181">
  <ele>520.32</ele>
  <time>2026-09-01T20:01:29Z</time>
  <course>210.64</course>
  <speed>17.676778552666207</speed>
  <fix>3d</fix>
</trkpt>
<trkpt lat="-27.2733754" lon="151.3294369">
  <ele>520.71</ele>
  <time>2026-09-01T20:01:29Z</time>
  <course>210.64</course>
  <speed>17.88</speed>
  <fix>3d</fix>
</trkpt>
<trkpt lat="-27.2734174" lon="151.329409">
  <ele>520.12</ele>
  <time>2026-09-01T20:01:29Z</time>
  <course>210.6</course>
  <speed>17.591080126018415</speed>
  <fix>3d</fix>
</trkpt>
<trkpt lat="-27.2734029" lon="151.3294186">
  <ele>520.32</ele>
  <time>2026-09-01T20:01:29Z</time>
  <course>210.57</course>
  <speed>17.69</speed>
  <fix>3d</fix>
</trkpt>
<trkpt lat="-27.2734309" lon="151.3294">
  <ele>519.91</ele>
  <time>2026-09-01T20:01:29Z</time>
  <course>210.57</course>
  <speed>17.500308568708153</speed>
  <fix>3d</fix>
</trkpt>
<trkpt lat="-27.2734029" lon="151.3294186">
  <ele>520.32</ele>
  <time>2026-09-01T20:01:29Z</time>
  <course>210.57</course>
  <speed>17.69</speed>
  <fix>3d</fix>
</trkpt>
<trkpt lat="-27.2734444" lon="151.3293909">
  <ele>519.72</ele>
  <time>2026-09-01T20:01:29Z</time>
  <course>210.54</course>
  <speed>17.41462029445374</speed>
  <fix>3d</fix>
</trkpt>
<trkpt lat="-27.2734301" lon="151.3294005">
  <ele>519.93</ele>
  <time>2026-09-01T20:01:29Z</time>
  <course>210.51</course>
  <speed>17.51</speed>
  <fix>3d</fix>
</trkpt>
<trkpt lat="-27.2734579" lon="151.3293821">
  <ele>519.52</ele>
  <time>2026-09-01T20:01:29Z</time>
  <course>210.51</course>
  <speed>17.328935339483497</speed>
  <fix>3d</fix>
</trkpt>
<trkpt lat="-27.2734301" lon="151.3294005">
  <ele>519.93</ele>
  <time>2026-09-01T20:01:29Z</time>
  <course>210.51</course>
  <speed>17.51</speed>
  <fix>3d</fix>
</trkpt>
<trkpt lat="-27.2734713" lon="151.3293732">
  <ele>519.32</ele>
  <time>2026-09-01T20:01:29Z</time>
  <course>210.48</course>
  <speed>17.25694063268458</speed>
  <fix>3d</fix>
</trkpt>
<trkpt lat="-27.2734571" lon="151.3293827">
  <ele>519.53</ele>
  <time>2026-09-01T20:01:29Z</time>
  <course>210.45</course>
  <speed>17.34</speed>
  <fix>3d</fix>
</trkpt>
<trkpt lat="-27.2734843" lon="151.3293646">
  <ele>519.12</ele>
  <time>2026-09-01T20:01:29Z</time>
  <course>210.45</course>
  <speed>17.179886495550544</speed>
  <fix>3d</fix>
</trkpt>
<trkpt lat="-27.2734571" lon="151.3293827">
  <ele>519.53</ele>
  <time>2026-09-01T20:01:29Z</time>
  <course>210.45</course>
  <speed>17.34</speed>
  <fix>3d</fix>
</trkpt>
<trkpt lat="-27.2734976" lon="151.3293559">
  <ele>518.91</ele>
  <time>2026-09-01T20:01:29Z</time>
  <course>210.42</course>
  <speed>17.09421247089201</speed>
  <fix>3d</fix>
</trkpt>
<trkpt lat="-27.2734838" lon="151.329365">
  <ele>519.12</ele>
  <time>2026-09-01T20:01:29Z</time>
  <course>210.39</course>
  <speed>17.18</speed>
  <fix>3d</fix>
</trkpt>
<trkpt lat="-27.2735108" lon="151.3293472">
  <ele>518.72</ele>
  <time>2026-09-01T20:01:29Z</time>
  <course>210.39</course>
  <speed>17.022223709022274</speed>
  <fix>3d</fix>
</trkpt>
<trkpt lat="-27.2734838" lon="151.329365">
  <ele>519.12</ele>
  <time>2026-09-01T20:01:29Z</time>
  <course>210.39</course>
  <speed>17.18</speed>
  <fix>3d</fix>
</trkpt>
<trkpt lat="-27.273524" lon="151.3293385">
  <ele>518.51</ele>
  <time>2026-09-01T20:01:29Z</time>
  <course>210.36</course>
  <speed>16.95886788674291</speed>
  <fix>3d</fix>
</trkpt>
<trkpt lat="-27.2735103" lon="151.3293474">
  <ele>518.71</ele>
  <time>2026-09-01T20:01:29Z</time>
  <course>210.34</course>
  <speed>17.03</speed>
  <fix>3d</fix>
</trkpt>
<trkpt lat="-27.2716995" lon="151.3333949">
  <ele>541.26</ele>
  <time>2026-09-01T20:01:29Z</time>
  <course>250.4</course>
  <speed>12.265210964349533</speed>
  <fix>3d</fix>
</trkpt>
<trkpt lat="-27.2735103" lon="151.3293474">
  <ele>518.71</ele>
  <time>2026-09-01T20:01:29Z</time>
  <course>210.34</course>
  <speed>17.03</speed>
  <fix>3d</fix>
</trkpt>
<trkpt lat="-27.2717022" lon="151.3333836">
  <ele>537.41</ele>
  <time>2026-09-01T20:01:29Z</time>
  <course>250.83</course>
  <speed>11.437001355250423</speed>
  <fix>3d</fix>
</trkpt>
<trkpt lat="-27.2726128" lon="151.3313614">
  <ele>528.03</ele>
  <time>2026-09-01T20:01:29Z</time>
  <course>228.14</course>
  <speed>13.16</speed>
  <fix>3d</fix>
</trkpt>
<trkpt lat="-27.2717056" lon="151.3333721">
  <ele>533.56</ele>
  <time>2026-09-01T20:01:29Z</time>
  <course>239.02</course>
  <speed>12.681908373742495</speed>
  <fix>3d</fix>
</trkpt>
<trkpt lat="-27.2726128" lon="151.3313614">
  <ele>528.03</ele>
  <time>2026-09-01T20:01:29Z</time>
  <course>228.14</course>
  <speed>13.16</speed>
  <fix>3d</fix>
</trkpt>
<trkpt lat="-27.271712" lon="151.3333605">
  <ele>529.78</ele>
  <time>2026-09-01T20:01:29Z</time>
  <course>219.11</course>
  <speed>14.230024595902849</speed>
  <fix>3d</fix>
</trkpt>
<trkpt lat="-27.2717069" lon="151.3333724">
  <ele>533.72</ele>
  <time>2026-09-01T20:01:29Z</time>
  <course>241.64</course>
  <speed>12.52</speed>
  <fix>3d</fix>
</trkpt>
<trkpt lat="-27.2717215" lon="151.3333505">
  <ele>526.03</ele>
  <time>2026-09-01T20:01:29Z</time>
  <course>203.95</course>
  <speed>14.816642669646859</speed>
  <fix>3d</fix>
</trkpt>
<trkpt lat="-27.2717069" lon="151.3333724">
  <ele>533.72</ele>
  <time>2026-09-01T20:01:29Z</time>
  <course>241.64</course>
  <speed>12.52</speed>
  <fix>3d</fix>
</trkpt>
<trkpt lat="-27.2717325" lon="151.3333418">
  <ele>522.29</ele>
  <time>2026-09-01T20:01:29Z</time>
  <course>202.6</course>
  <speed>15.393222534609183</speed>
  <fix>3d</fix>
</trkpt>
<trkpt lat="-27.2717219" lon="151.3333515">
  <ele>526.16</ele>
  <time>2026-09-01T20:01:29Z</time>
  <course>223.01</course>
  <speed>14.64</speed>
  <fix>3d</fix>
</trkpt>
<trkpt lat="-27.2717437" lon="151.3333291">
  <ele>518.7</ele>
  <time>2026-09-01T20:01:29Z</time>
  <course>222.24</course>
  <speed>20.892075052516926</speed>
  <fix>3d</fix>
</trkpt>
<trkpt lat="-27.2717219" lon="151.3333515">
  <ele>526.16</ele>
  <time>2026-09-01T20:01:29Z</time>
  <course>223.01</course>
  <speed>14.64</speed>
  <fix>3d</fix>
</trkpt>
<trkpt lat="-27.2717555" lon="151.333308">
  <ele>515.63</ele>
  <time>2026-09-01T20:01:29Z</time>
  <course>231.99</course>
  <speed>28.82327531700726</speed>
  <fix>3d</fix>
</trkpt>
<trkpt lat="-27.2717437" lon="151.3333253">
  <ele>519.06</ele>
  <time>2026-09-01T20:01:29Z</time>
  <course>231.82</course>
  <speed>21.53</speed>
  <fix>3d</fix>
</trkpt>
<trkpt lat="-27.2717693" lon="151.3332797">
  <ele>513.41</ele>
  <time>2026-09-01T20:01:29Z</time>
  <course>235.38</course>
  <speed>34.428746709690145</speed>
  <fix>3d</fix>
</trkpt>
<trkpt lat="-27.2717437" lon="151.3333253">
  <ele>519.06</ele>
  <time>2026-09-01T20:01:29Z</time>
  <course>231.82</course>
  <speed>21.53</speed>
  <fix>3d</fix>
</trkpt>
<trkpt lat="-27.2717855" lon="151.3332482">
  <ele>512.15</ele>
  <time>2026-09-01T20:01:29Z</time>
  <course>233.04</course>
  <speed>36.91812698390859</speed>
  <fix>3d</fix>
</trkpt>
<trkpt lat="-27.2717701" lon="151.3332788">
  <ele>513.93</ele>
  <time>2026-09-01T20:01:29Z</time>
  <course>239.23</course>
  <speed>32.77</speed>
  <fix>3d</fix>
</trkpt>
<trkpt lat="-27.2718043" lon="151.3332173">
  <ele>511.74</ele>
  <time>2026-09-01T20:01:29Z</time>
  <course>227.29</course>
  <speed>37.014551192740406</speed>
  <fix>3d</fix>
</trkpt>
<trkpt lat="-27.2717701" lon="151.3332788">
  <ele>513.93</ele>
  <time>2026-09-01T20:01:29Z</time>
  <course>239.23</course>
  <speed>32.77</speed>
  <fix>3d</fix>
</trkpt>
<trkpt lat="-27.2718263" lon="151.3331883">
  <ele>512.02</ele>
  <time>2026-09-01T20:01:29Z</time>
  <course>220.56</course>
  <speed>35.803085062603195</speed>
  <fix>3d</fix>
</trkpt>
<trkpt lat="-27.271805" lon="151.3332195">
  <ele>512.07</ele>
  <time>2026-09-01T20:01:29Z</time>
  <course>232.32</course>
  <speed>36.18</speed>
  <fix>3d</fix>
</trkpt>
<trkpt lat="-27.2718497" lon="151.3331648">
  <ele>512.76</ele>
  <time>2026-09-01T20:01:29Z</time>
  <course>214.69</course>
  <speed>34.252357583092</speed>
  <fix>3d</fix>
</trkpt>
<trkpt lat="-27.271805" lon="151.3332195">
  <ele>512.07</ele>
  <time>2026-09-01T20:01:30Z</time>
  <course>232.32</course>
  <speed>36.18</speed>
  <fix>3d</fix>
</trkpt>
<trkpt lat="-27.2718743" lon="151.3331452">
  <ele>513.78</ele>
  <time>2026-09-01T20:01:30Z</time>
  <course>210.03</course>
  <speed>32.8111764494966</speed>
  <fix>3d</fix>
</trkpt>
<trkpt lat="-27.2718489" lon="151.3331681">
  <ele>512.85</ele>
  <time>2026-09-01T20:01:30Z</time>
  <course>219.49</course>
  <speed>34.14</speed>
  <fix>3d</fix>
</trkpt>
<trkpt lat="-27.2718995" lon="151.3331294">
  <ele>514.96</ele>
  <time>2026-09-01T20:01:30Z</time>
  <course>206.81</course>
  <speed>31.614257859389962</speed>
  <fix>3d</fix>
</trkpt>
<trkpt lat="-27.2718489" lon="151.3331681">
  <ele>512.85</ele>
  <time>2026-09-01T20:01:30Z</time>
  <course>219.49</course>
  <speed>34.14</speed>
  <fix>3d</fix>
</trkpt>
<trkpt lat="-27.2719248" lon="151.333116">
  <ele>516.22</ele>
  <time>2026-09-01T20:01:30Z</time>
  <course>205.08</course>
  <speed>30.651272404257544</speed>
  <fix>3d</fix>
</trkpt>
<trkpt lat="-27.271898" lon="151.3331315">
  <ele>514.93</ele>
  <time>2026-09-01T20:01:30Z</time>
  <course>208.14</course>
  <speed>31.71</speed>
  <fix>3d</fix>
</trkpt>
<trkpt lat="-27.2719499" lon="151.3331044">
  <ele>517.49</ele>
  <time>2026-09-01T20:01:30Z</time>
  <course>204.49</course>
  <speed>29.91601744885171</speed>
  <fix>3d</fix>
</trkpt>
<trkpt lat="-27.271898" lon="151.3331315">
  <ele>514.93</ele>
  <time>2026-09-01T20:01:30Z</time>
  <course>208.14</course>
  <speed>31.71</speed>
  <fix>3d</fix>
</trkpt>
<trkpt lat="-27.2719748" lon="151.3330937">
  <ele>518.75</ele>
  <time>2026-09-01T20:01:30Z</time>
  <course>204.48</course>
  <speed>29.378498940551744</speed>
  <fix>3d</fix>
</trkpt>
<trkpt lat="-27.2719483" lon="151.3331055">
  <ele>517.41</ele>
  <time>2026-09-01T20:01:30Z</time>
  <course>202.15</course>
  <speed>30.04</speed>
  <fix>3d</fix>
</trkpt>
<trkpt lat="-27.2719993" lon="151.3330834">
  <ele>519.96</ele>
  <time>2026-09-01T20:01:30Z</time>
  <course>204.63</course>
  <speed>29.020547892829313</speed>
  <fix>3d</fix>
</trkpt>
<trkpt lat="-27.2719483" lon="151.3331055">
  <ele>517.41</ele>
  <time>2026-09-01T20:01:30Z</time>
  <course>202.15</course>
  <speed>30.04</speed>
  <fix>3d</fix>
</trkpt>
<trkpt lat="-27.2720237" lon="151.3330732">
  <ele>521.1</ele>
  <time>2026-09-01T20:01:30Z</time>
  <course>204.61</course>
  <speed>28.808512630817994</speed>
  <fix>3d</fix>
</trkpt>
<trkpt lat="-27.2719977" lon="151.333084">
  <ele>519.86</ele>
  <time>2026-09-01T20:01:30Z</time>
  <course>200.54</course>
  <speed>29.11</speed>
  <fix>3d</fix>
</trkpt>
<trkpt lat="-27.2720478" lon="151.3330629">
  <ele>522.13</ele>
  <time>2026-09-01T20:01:30Z</time>
  <course>204.3</course>
  <speed>28.684771220980657</speed>
  <fix>3d</fix>
</trkpt>
<trkpt lat="-27.2719977" lon="151.333084">
  <ele>519.86</ele>
  <time>2026-09-01T20:01:30Z</time>
  <course>200.54</course>
  <speed>29.11</speed>
  <fix>3d</fix>
</trkpt>
<trkpt lat="-27.2720718" lon="151.3330526">
  <ele>523.04</ele>
  <time>2026-09-01T20:01:30Z</time>
  <course>203.68</course>
  <speed>28.61209883947698</speed>
  <fix>3d</fix>
</trkpt>
<trkpt lat="-27.2720463" lon="151.3330634">
  <ele>522.02</ele>
  <time>2026-09-01T20:01:30Z</time>
  <course>200.81</course>
  <speed>28.71</speed>
  <fix>3d</fix>
</trkpt>
<trkpt lat="-27.2720958" lon="151.3330422">
  <ele>523.85</ele>
  <time>2026-09-01T20:01:30Z</time>
  <course>202.93</course>
  <speed>28.553535682993797</speed>
  <fix>3d</fix>
</trkpt>
<trkpt lat="-27.2720463" lon="151.3330634">
  <ele>522.02</ele>
  <time>2026-09-01T20:01:30Z</time>
  <course>200.81</course>
  <speed>28.71</speed>
  <fix>3d</fix>
</trkpt>
<trkpt lat="-27.2721196" lon="151.3330317">
  <ele>524.53</ele>
  <time>2026-09-01T20:01:30Z</time>
  <course>202.09</course>
  <speed>28.477010025632957</speed>
  <fix>3d</fix>
</trkpt>
<trkpt lat="-27.2720943" lon="151.3330427">
  <ele>523.74</ele>
  <time>2026-09-01T20:01:30Z</time>
  <course>201.26</course>
  <speed>28.55</speed>
  <fix>3d</fix>
</trkpt>
<trkpt lat="-27.2721428" lon="151.3330214">
  <ele>525.08</ele>
  <time>2026-09-01T20:01:30Z</time>
  <course>201.45</course>
  <speed>28.396910043171953</speed>
  <fix>3d</fix>
</trkpt>
<trkpt lat="-27.2720943" lon="151.3330427">
  <ele>523.74</ele>
  <time>2026-09-01T20:01:30Z</time>
  <course>201.26</course>
  <speed>28.55</speed>
  <fix>3d</fix>
</trkpt>
<trkpt lat="-27.2721664" lon="151.3330109">
  <ele>525.54</ele>
  <time>2026-09-01T20:01:30Z</time>
  <course>200.9</course>
  <speed>28.285298301414464</speed>
  <fix>3d</fix>
</trkpt>
<trkpt lat="-27.2721419" lon="151.3330217">
  <ele>525.01</ele>
  <time>2026-09-01T20:01:30Z</time>
  <course>201.51</course>
  <speed>28.39</speed>
  <fix>3d</fix>
</trkpt>
<trkpt lat="-27.27219" lon="151.3330002">
  <ele>525.91</ele>
  <time>2026-09-01T20:01:30Z</time>
  <course>200.5</course>
  <speed>28.175565655368835</speed>
  <fix>3d</fix>
</trkpt>
<trkpt lat="-27.2721419" lon="151.3330217">
  <ele>525.01</ele>
  <time>2026-09-01T20:01:30Z</time>
  <course>201.51</course>
  <speed>28.39</speed>
  <fix>3d</fix>
</trkpt>
<trkpt lat="-27.2722134" lon="151.3329898">
  <ele>526.21</ele>
  <time>2026-09-01T20:01:30Z</time>
  <course>200.29</course>
  <speed>28.0549549990728</speed>
  <fix>3d</fix>
</trkpt>
<trkpt lat="-27.2721893" lon="151.3330006">
  <ele>525.87</ele>
  <time>2026-09-01T20:01:30Z</time>
  <course>201.77</course>
  <speed>28.18</speed>
  <fix>3d</fix>
</trkpt>
<trkpt lat="-27.2722366" lon="151.3329791">
  <ele>526.43</ele>
  <time>2026-09-01T20:01:30Z</time>
  <course>200.27</course>
  <speed>27.953622305525986</speed>
  <fix>3d</fix>
</trkpt>
<trkpt lat="-27.2721893" lon="151.3330006">
  <ele>525.87</ele>
  <time>2026-09-01T20:01:30Z</time>
  <course>201.77</course>
  <speed>28.18</speed>
  <fix>3d</fix>
</trkpt>
<trkpt lat="-27.2722599" lon="151.3329683">
  <ele>526.59</ele>
  <time>2026-09-01T20:01:30Z</time>
  <course>200.49</course>
  <speed>27.84077944311186</speed>
  <fix>3d</fix>
</trkpt>
<trkpt lat="-27.2722361" lon="151.3329792">
  <ele>526.4</ele>
  <time>2026-09-01T20:01:30Z</time>
  <course>202.31</course>
  <speed>27.96</speed>
  <fix>3d</fix>
</trkpt>
<trkpt lat="-27.2722829" lon="151.3329574">
  <ele>526.69</ele>
  <time>2026-09-01T20:01:30Z</time>
  <course>200.89</course>
  <speed>27.747677380278155</speed>
  <fix>3d</fix>
</trkpt>
<trkpt lat="-27.2722361" lon="151.3329792">
  <ele>526.4</ele>
  <time>2026-09-01T20:01:30Z</time>
  <course>202.31</course>
  <speed>27.96</speed>
  <fix>3d</fix>
</trkpt>
<trkpt lat="-27.2723057" lon="151.3329461">
  <ele>526.74</ele>
  <time>2026-09-01T20:01:30Z</time>
  <course>201.39</course>
  <speed>27.66416635288329</speed>
  <fix>3d</fix>
</trkpt>
<trkpt lat="-27.2722822" lon="151.3329575">
  <ele>526.66</ele>
  <time>2026-09-01T20:01:30Z</time>
  <course>203.25</course>
  <speed>27.76</speed>
  <fix>3d</fix>
</trkpt>
<trkpt lat="-27.2723291" lon="151.3329344">
  <ele>526.76</ele>
  <time>2026-09-01T20:01:30Z</time>
  <course>202.08</course>
  <speed>27.59504484504419</speed>
  <fix>3d</fix>
</trkpt>
<trkpt lat="-27.2722822" lon="151.3329575">
  <ele>526.66</ele>
  <time>2026-09-01T20:01:30Z</time>
  <course>203.25</course>
  <speed>27.76</speed>
  <fix>3d</fix>
</trkpt>
<trkpt lat="-27.2723515" lon="151.3329226">
  <ele>526.73</ele>
  <time>2026-09-01T20:01:30Z</time>
  <course>202.89</course>
  <speed>27.52608217672831</speed>
  <fix>3d</fix>
</trkpt>
<trkpt lat="-27.2723276" lon="151.3329349">
  <ele>526.74</ele>
  <time>2026-09-01T20:01:30Z</time>
  <course>204.65</course>
  <speed>27.6</speed>
  <fix>3d</fix>
</trkpt>
<trkpt lat="-27.2723737" lon="151.3329104">
  <ele>526.68</ele>
  <time>2026-09-01T20:01:30Z</time>
  <course>203.79</course>
  <speed>27.47685571531066</speed>
  <fix>3d</fix>
</trkpt>
<trkpt lat="-27.2723276" lon="151.3329349">
  <ele>526.74</ele>
  <time>2026-09-01T20:01:30Z</time>
  <course>204.65</course>
  <speed>27.6</speed>
  <fix>3d</fix>
</trkpt>
<trkpt lat="-27.2723957" lon="151.3328977">
  <ele>526.6</ele>
  <time>2026-09-01T20:01:30Z</time>
  <course>204.77</course>
  <speed>27.426711432470352</speed>
  <fix>3d</fix>
</trkpt>
<trkpt lat="-27.2723723" lon="151.3329109">
  <ele>526.67</ele>
  <time>2026-09-01T20:01:30Z</time>
  <course>206.43</course>
  <speed>27.48</speed>
  <fix>3d</fix>
</trkpt>
<trkpt lat="-27.2724174" lon="151.3328847">
  <ele>526.5</ele>
  <time>2026-09-01T20:01:30Z</time>
  <course>205.9</course>
  <speed>27.38157409646129</speed>
  <fix>3d</fix>
</trkpt>
<trkpt lat="-27.2723723" lon="151.3329109">
  <ele>526.67</ele>
  <time>2026-09-01T20:01:30Z</time>
  <course>206.43</course>
  <speed>27.48</speed>
  <fix>3d</fix>
</trkpt>
<trkpt lat="-27.2724389" lon="151.3328713">
  <ele>526.38</ele>
  <time>2026-09-01T20:01:30Z</time>
  <course>207.0</course>
  <speed>27.34346356992837</speed>
  <fix>3d</fix>
</trkpt>
<trkpt lat="-27.272416" lon="151.3328853">
  <ele>526.5</ele>
  <time>2026-09-01T20:01:30Z</time>
  <course>208.53</course>
  <speed>27.39</speed>
  <fix>3d</fix>
</trkpt>
<trkpt lat="-27.2724601" lon="151.3328574">
  <ele>526.24</ele>
  <time>2026-09-01T20:01:30Z</time>
  <course>208.09</course>
  <speed>27.31289072947058</speed>
  <fix>3d</fix>
</trkpt>
<trkpt lat="-27.272416" lon="151.3328853">
  <ele>526.5</ele>
  <time>2026-09-01T20:01:30Z</time>
  <course>208.53</course>
  <speed>27.39</speed>
  <fix>3d</fix>
</trkpt>
<trkpt lat="-27.272481" lon="151.332843">
  <ele>526.09</ele>
  <time>2026-09-01T20:01:30Z</time>
  <course>209.05</course>
  <speed>27.28328792502839</speed>
  <fix>3d</fix>
</trkpt>
<trkpt lat="-27.2724587" lon="151.3328579">
  <ele>526.24</ele>
  <time>2026-09-01T20:01:30Z</time>
  <course>210.8</course>
  <speed>27.32</speed>
  <fix>3d</fix>
</trkpt>
<trkpt lat="-27.2725016" lon="151.3328282">
  <ele>525.93</ele>
  <time>2026-09-01T20:01:30Z</time>
  <course>209.9</course>
  <speed>27.256577187900906</speed>
  <fix>3d</fix>
</trkpt>
<trkpt lat="-27.2724587" lon="151.3328579">
  <ele>526.24</ele>
  <time>2026-09-01T20:01:30Z</time>
  <course>210.8</course>
  <speed>27.32</speed>
  <fix>3d</fix>
</trkpt>
<trkpt lat="-27.272522" lon="151.3328129">
  <ele>525.76</ele>
  <time>2026-09-01T20:01:30Z</time>
  <course>210.67</course>
  <speed>27.230793231193246</speed>
  <fix>3d</fix>
</trkpt>
<trkpt lat="-27.2725003" lon="151.3328288">
  <ele>525.93</ele>
  <time>2026-09-01T20:01:30Z</time>
  <course>212.98</course>
  <speed>27.26</speed>
  <fix>3d</fix>
</trkpt>
<trkpt lat="-27.2725422" lon="151.3327974">
  <ele>525.58</ele>
  <time>2026-09-01T20:01:30Z</time>
  <course>211.35</course>
  <speed>27.188742155531944</speed>
  <fix>3d</fix>
</trkpt>
<trkpt lat="-27.2725003" lon="151.3328288">
  <ele>525.93</ele>
  <time>2026-09-01T20:01:30Z</time>
  <course>212.98</course>
  <speed>27.26</speed>
  <fix>3d</fix>
</trkpt>
<trkpt lat="-27.2725621" lon="151.3327814">
  <ele>525.4</ele>
  <time>2026-09-01T20:01:30Z</time>
  <course>212.0</course>
  <speed>27.149639039957787</speed>
  <fix>3d</fix>
</trkpt>
<trkpt lat="-27.2725408" lon="151.3327981">
  <ele>525.58</ele>
  <time>2026-09-01T20:01:30Z</time>
  <course>214.74</course>
  <speed>27.19</speed>
  <fix>3d</fix>
</trkpt>
<trkpt lat="-27.2725819" lon="151.3327655">
  <ele>525.21</ele>
  <time>2026-09-01T20:01:30Z</time>
  <course>212.68</course>
  <speed>27.10074906713835</speed>
  <fix>3d</fix>
</trkpt>
<trkpt lat="-27.2725408" lon="151.3327981">
  <ele>525.58</ele>
  <time>2026-09-01T20:01:30Z</time>
  <course>214.74</course>
  <speed>27.19</speed>
  <fix>3d</fix>
</trkpt>
<trkpt lat="-27.2726015" lon="151.3327493">
  <ele>525.02</ele>
  <time>2026-09-01T20:01:30Z</time>
  <course>213.31</course>
  <speed>27.0626255193394</speed>
  <fix>3d</fix>
</trkpt>
<trkpt lat="-27.2725806" lon="151.3327663">
  <ele>525.22</ele>
  <time>2026-09-01T20:01:30Z</time>
  <course>215.97</course>
  <speed>27.11</speed>
  <fix>3d</fix>
</trkpt>
<trkpt lat="-27.272621" lon="151.332733">
  <ele>524.82</ele>
  <time>2026-09-01T20:01:30Z</time>
  <course>213.92</course>
  <speed>27.016002665087225</speed>
  <fix>3d</fix>
</trkpt>
<trkpt lat="-27.2725806" lon="151.3327663">
  <ele>525.22</ele>
  <time>2026-09-01T20:01:30Z</time>
  <course>215.97</course>
  <speed>27.11</speed>
  <fix>3d</fix>
</trkpt>
<trkpt lat="-27.2726403" lon="151.3327166">
  <ele>524.61</ele>
  <time>2026-09-01T20:01:30Z</time>
  <course>214.49</course>
  <speed>26.982294194526897</speed>
  <fix>3d</fix>
</trkpt>
<trkpt lat="-27.2726197" lon="151.3327338">
  <ele>524.82</ele>
  <time>2026-09-01T20:01:30Z</time>
  <course>216.79</course>
  <speed>27.02</speed>
  <fix>3d</fix>
</trkpt>
<trkpt lat="-27.2726596" lon="151.3327">
  <ele>524.39</ele>
  <time>2026-09-01T20:01:30Z</time>
  <course>215.01</course>
  <speed>26.939016314631832</speed>
  <fix>3d</fix>
</trkpt>
<trkpt lat="-27.2726197" lon="151.3327338">
  <ele>524.82</ele>
  <time>2026-09-01T20:01:30Z</time>
  <course>216.79</course>
  <speed>27.02</speed>
  <fix>3d</fix>
</trkpt>
<trkpt lat="-27.2726788" lon="151.3326835">
  <ele>524.16</ele>
  <time>2026-09-01T20:01:30Z</time>
  <course>215.39</course>
  <speed>26.89799992564503</speed>
  <fix>3d</fix>
</trkpt>
<trkpt lat="-27.2726585" lon="151.3327009">
  <ele>524.4</ele>
  <time>2026-09-01T20:01:30Z</time>
  <course>217.33</course>
  <speed>26.94</speed>
  <fix>3d</fix>
</trkpt>
<trkpt lat="-27.2726979" lon="151.3326669">
  <ele>523.95</ele>
  <time>2026-09-01T20:01:30Z</time>
  <course>215.78</course>
  <speed>26.86268787742582</speed>
  <fix>3d</fix>
</trkpt>
<trkpt lat="-27.2726585" lon="151.3327009">
  <ele>524.4</ele>
  <time>2026-09-01T20:01:30Z</time>
  <course>217.33</course>
  <speed>26.94</speed>
  <fix>3d</fix>
</trkpt>
<trkpt lat="-27.2727165" lon="151.3326506">
  <ele>523.73</ele>
  <time>2026-09-01T20:01:30Z</time>
  <course>216.11</course>
  <speed>26.827478450275567</speed>
  <fix>3d</fix>
</trkpt>
<trkpt lat="-27.2726969" lon="151.3326677">
  <ele>523.95</ele>
  <time>2026-09-01T20:01:30Z</time>
  <course>217.67</course>
  <speed>26.87</speed>
  <fix>3d</fix>
</trkpt>
<trkpt lat="-27.2727362" lon="151.3326335">
  <ele>523.5</ele>
  <time>2026-09-01T20:01:30Z</time>
  <course>216.4</course>
  <speed>26.802016715165294</speed>
  <fix>3d</fix>
</trkpt>
<trkpt lat="-27.2726969" lon="151.3326677">
  <ele>523.95</ele>
  <time>2026-09-01T20:01:30Z</time>
  <course>217.67</course>
  <speed>26.87</speed>
  <fix>3d</fix>
</trkpt>
<trkpt lat="-27.2727551" lon="151.3326169">
  <ele>523.28</ele>
  <time>2026-09-01T20:01:30Z</time>
  <course>216.62</course>
  <speed>26.778338260616547</speed>
  <fix>3d</fix>
</trkpt>
<trkpt lat="-27.272735" lon="151.3326345">
  <ele>523.51</ele>
  <time>2026-09-01T20:01:30Z</time>
  <course>217.85</course>
  <speed>26.81</speed>
  <fix>3d</fix>
</trkpt>
<trkpt lat="-27.2727741" lon="151.3326003">
  <ele>523.08</ele>
  <time>2026-09-01T20:01:30Z</time>
  <course>216.79</course>
  <speed>26.748525192989614</speed>
  <fix>3d</fix>
</trkpt>
<trkpt lat="-27.272735" lon="151.3326345">
  <ele>523.51</ele>
  <time>2026-09-01T20:01:30Z</time>
  <course>217.85</course>
  <speed>26.81</speed>
  <fix>3d</fix>
</trkpt>
<trkpt lat="-27.2727931" lon="151.3325836">
  <ele>522.9</ele>
  <time>2026-09-01T20:01:30Z</time>
  <course>216.92</course>
  <speed>26.722204250398207</speed>
  <fix>3d</fix>
</trkpt>
<trkpt lat="-27.2727729" lon="151.3326013">
  <ele>523.1</ele>
  <time>2026-09-01T20:01:30Z</time>
  <course>217.9</course>
  <speed>26.75</speed>
  <fix>3d</fix>
</trkpt>
<trkpt lat="-27.272812" lon="151.3325672">
  <ele>522.75</ele>
  <time>2026-09-01T20:01:30Z</time>
  <course>216.97</course>
  <speed>26.681862753563514</speed>
  <fix>3d</fix>
</trkpt>
<trkpt lat="-27.2727729" lon="151.3326013">
  <ele>523.1</ele>
  <time>2026-09-01T20:01:30Z</time>
  <course>217.9</course>
  <speed>26.75</speed>
  <fix>3d</fix>
</trkpt>
<trkpt lat="-27.2728309" lon="151.3325506">
  <ele>522.62</ele>
  <time>2026-09-01T20:01:30Z</time>
  <course>216.97</course>
  <speed>26.638973328565047</speed>
  <fix>3d</fix>
</trkpt>
<trkpt lat="-27.2728108" lon="151.3325681">
  <ele>522.77</ele>
  <time>2026-09-01T20:01:30Z</time>
  <course>217.81</course>
  <speed>26.68</speed>
  <fix>3d</fix>
</trkpt>
<trkpt lat="-27.2728498" lon="151.3325342">
  <ele>522.54</ele>
  <time>2026-09-01T20:01:30Z</time>
  <course>216.96</course>
  <speed>26.582174478398116</speed>
  <fix>3d</fix>
</trkpt>
<trkpt lat="-27.2728108" lon="151.3325681">
  <ele>522.77</ele>
  <time>2026-09-01T20:01:30Z</time>
  <course>217.81</course>
  <speed>26.68</speed>
  <fix>3d</fix>
</trkpt>
<trkpt lat="-27.2728687" lon="151.3325179">
  <ele>522.49</ele>
  <time>2026-09-01T20:01:30Z</time>
  <course>216.88</course>
  <speed>26.49931508548853</speed>
  <fix>3d</fix>
</trkpt>
<trkpt lat="-27.2728487" lon="151.3325352">
  <ele>522.56</ele>
  <time>2026-09-01T20:01:30Z</time>
  <course>217.59</course>
  <speed>26.57</speed>
  <fix>3d</fix>
</trkpt>
<trkpt lat="-27.2728876" lon="151.3325017">
  <ele>522.48</ele>
  <time>2026-09-01T20:01:30Z</time>
  <course>216.71</course>
  <speed>26.402655169508993</speed>
  <fix>3d</fix>
</trkpt>
<trkpt lat="-27.2728487" lon="151.3325352">
  <ele>522.56</ele>
  <time>2026-09-01T20:01:30Z</time>
  <course>217.59</course>
  <speed>26.57</speed>
  <fix>3d</fix>
</trkpt>
<trkpt lat="-27.2729065" lon="151.3324855">
  <ele>522.52</ele>
  <time>2026-09-01T20:01:30Z</time>
  <course>216.54</course>
  <speed>26.288134205378668</speed>
  <fix>3d</fix>
</trkpt>
<trkpt lat="-27.2728865" lon="151.3325026">
  <ele>522.5</ele>
  <time>2026-09-01T20:01:30Z</time>
  <course>217.26</course>
  <speed>26.4</speed>
  <fix>3d</fix>
</trkpt>
<trkpt lat="-27.2729253" lon="151.3324697">
  <ele>522.6</ele>
  <time>2026-09-01T20:01:30Z</time>
  <course>216.44</course>
  <speed>26.140017214990507</speed>
  <fix>3d</fix>
</trkpt>
<trkpt lat="-27.2728865" lon="151.3325026">
  <ele>522.5</ele>
  <time>2026-09-01T20:01:30Z</time>
  <course>217.26</course>
  <speed>26.4</speed>
  <fix>3d</fix>
</trkpt>
<trkpt lat="-27.2729441" lon="151.3324539">
  <ele>522.72</ele>
  <time>2026-09-01T20:01:30Z</time>
  <course>216.31</course>
  <speed>25.952518182249673</speed>
  <fix>3d</fix>
</trkpt>
<trkpt lat="-27.2729242" lon="151.3324706">
  <ele>522.61</ele>
  <time>2026-09-01T20:01:30Z</time>
  <course>216.79</course>
  <speed>26.13</speed>
  <fix>3d</fix>
</trkpt>
<trkpt lat="-27.2729628" lon="151.3324385">
  <ele>522.86</ele>
  <time>2026-09-01T20:01:30Z</time>
  <course>216.17</course>
  <speed>25.692119414326253</speed>
  <fix>3d</fix>
</trkpt>
<trkpt lat="-27.2729242" lon="151.3324706">
  <ele>522.61</ele>
  <time>2026-09-01T20:01:30Z</time>
  <course>216.79</course>
  <speed>26.13</speed>
  <fix>3d</fix>
</trkpt>
<trkpt lat="-27.2729813" lon="151.3324232">
  <ele>523.02</ele>
  <time>2026-09-01T20:01:30Z</time>
  <course>216.02</course>
  <speed>25.379286830011598</speed>
  <fix>3d</fix>
</trkpt>
<trkpt lat="-27.2729616" lon="151.3324395">
  <ele>522.86</ele>
  <time>2026-09-01T20:01:30Z</time>
  <course>216.12</course>
  <speed>25.68</speed>
  <fix>3d</fix>
</trkpt>
<trkpt lat="-27.2729998" lon="151.3324085">
  <ele>523.2</ele>
  <time>2026-09-01T20:01:30Z</time>
  <course>215.85</course>
  <speed>24.99585965715122</speed>
  <fix>3d</fix>
</trkpt>
<trkpt lat="-27.2729616" lon="151.3324395">
  <ele>522.86</ele>
  <time>2026-09-01T20:01:30Z</time>
  <course>216.12</course>
  <speed>25.68</speed>
  <fix>3d</fix>
</trkpt>
<trkpt lat="-27.273018" lon="151.3323941">
  <ele>523.4</ele>
  <time>2026-09-01T20:01:30Z</time>
  <course>215.66</course>
  <speed>24.575404371037315</speed>
  <fix>3d</fix>
</trkpt>
<trkpt lat="-27.2729986" lon="151.3324096">
  <ele>523.2</ele>
  <time>2026-09-01T20:01:30Z</time>
  <course>215.29</course>
  <speed>25.0</speed>
  <fix>3d</fix>
</trkpt>
<trkpt lat="-27.273036" lon="151.3323802">
  <ele>523.61</ele>
  <time>2026-09-01T20:01:30Z</time>
  <course>215.43</course>
  <speed>24.15112833803009</speed>
  <fix>3d</fix>
</trkpt>
<trkpt lat="-27.2729986" lon="151.3324096">
  <ele>523.2</ele>
  <time>2026-09-01T20:01:30Z</time>
  <course>215.29</course>
  <speed>25.0</speed>
  <fix>3d</fix>
</trkpt>
<trkpt lat="-27.2730537" lon="151.3323665">
  <ele>523.81</ele>
  <time>2026-09-01T20:01:30Z</time>
  <course>215.17</course>
  <speed>23.733783937669944</speed>
  <fix>3d</fix>
</trkpt>
<trkpt lat="-27.2730349" lon="151.3323811">
  <ele>523.59</ele>
  <time>2026-09-01T20:01:30Z</time>
  <course>214.53</course>
  <speed>24.18</speed>
  <fix>3d</fix>
</trkpt>
<trkpt lat="-27.2730713" lon="151.3323532">
  <ele>524.01</ele>
  <time>2026-09-01T20:01:30Z</time>
  <course>214.91</course>
  <speed>23.33646288536461</speed>
  <fix>3d</fix>
</trkpt>
<trkpt lat="-27.2730349" lon="151.3323811">
  <ele>523.59</ele>
  <time>2026-09-01T20:01:30Z</time>
  <course>214.53</course>
  <speed>24.18</speed>
  <fix>3d</fix>
</trkpt>
<trkpt lat="-27.2730885" lon="151.3323402">
  <ele>524.19</ele>
  <time>2026-09-01T20:01:30Z</time>
  <course>214.68</course>
  <speed>22.975702383169924</speed>
  <fix>3d</fix>
</trkpt>
<trkpt lat="-27.2730703" lon="151.332354">
  <ele>523.99</ele>
  <time>2026-09-01T20:01:30Z</time>
  <course>213.99</course>
  <speed>23.37</speed>
  <fix>3d</fix>
</trkpt>
<trkpt lat="-27.2731056" lon="151.3323274">
  <ele>524.34</ele>
  <time>2026-09-01T20:01:30Z</time>
  <course>214.47</course>
  <speed>22.6262347729356</speed>
  <fix>3d</fix>
</trkpt>
<trkpt lat="-27.2730703" lon="151.332354">
  <ele>523.99</ele>
  <time>2026-09-01T20:01:30Z</time>
  <course>213.99</course>
  <speed>23.37</speed>
  <fix>3d</fix>
</trkpt>
<trkpt lat="-27.2731224" lon="151.3323149">
  <ele>524.46</ele>
  <time>2026-09-01T20:01:30Z</time>
  <course>214.27</course>
  <speed>22.310141191843677</speed>
  <fix>3d</fix>
</trkpt>
<trkpt lat="-27.2731045" lon="151.3323281">
  <ele>524.32</ele>
  <time>2026-09-01T20:01:30Z</time>
  <course>213.65</course>
  <speed>22.66</speed>
  <fix>3d</fix>
</trkpt>
<trkpt lat="-27.273139" lon="151.3323025">
  <ele>524.54</ele>
  <time>2026-09-01T20:01:30Z</time>
  <course>214.09</course>
  <speed>21.999636360631058</speed>
  <fix>3d</fix>
</trkpt>
<trkpt lat="-27.2731045" lon="151.3323281">
  <ele>524.32</ele>
  <time>2026-09-01T20:01:30Z</time>
  <course>213.65</course>
  <speed>22.66</speed>
  <fix>3d</fix>
</trkpt>
<trkpt lat="-27.2731554" lon="151.3322904">
  <ele>524.6</ele>
  <time>2026-09-01T20:01:30Z</time>
  <course>213.91</course>
  <speed>21.716887438120594</speed>
  <fix>3d</fix>
</trkpt>
<trkpt lat="-27.273138" lon="151.3323032">
  <ele>524.53</ele>
  <time>2026-09-01T20:01:30Z</time>
  <course>213.44</course>
  <speed>22.03</speed>
  <fix>3d</fix>
</trkpt>
<trkpt lat="-27.2731716" lon="151.3322784">
  <ele>524.62</ele>
  <time>2026-09-01T20:01:30Z</time>
  <course>213.74</course>
  <speed>21.43966650860036</speed>
  <fix>3d</fix>
</trkpt>
<trkpt lat="-27.273138" lon="151.3323032">
  <ele>524.53</ele>
  <time>2026-09-01T20:01:30Z</time>
  <course>213.44</course>
  <speed>22.03</speed>
  <fix>3d</fix>
</trkpt>
<trkpt lat="-27.2731876" lon="151.3322666">
  <ele>524.61</ele>
  <time>2026-09-01T20:01:30Z</time>
  <course>213.59</course>
  <speed>21.184676065496024</speed>
  <fix>3d</fix>
</trkpt>
<trkpt lat="-27.2731707" lon="151.332279">
  <ele>524.6</ele>
  <time>2026-09-01T20:01:30Z</time>
  <course>213.3</course>
  <speed>21.47</speed>
  <fix>3d</fix>
</trkpt>
<trkpt lat="-27.2732034" lon="151.3322548">
  <ele>524.57</ele>
  <time>2026-09-01T20:01:30Z</time>
  <course>213.46</course>
  <speed>20.943555094586973</speed>
  <fix>3d</fix>
</trkpt>
<trkpt lat="-27.2731707" lon="151.332279">
  <ele>524.6</ele>
  <time>2026-09-01T20:01:30Z</time>
  <course>213.3</course>
  <speed>21.47</speed>
  <fix>3d</fix>
</trkpt>
<trkpt lat="-27.2732192" lon="151.3322432">
  <ele>524.51</ele>
  <time>2026-09-01T20:01:30Z</time>
  <course>213.34</course>
  <speed>20.716295518262914</speed>
  <fix>3d</fix>
</trkpt>
<trkpt lat="-27.2732025" lon="151.3322555">
  <ele>524.56</ele>
  <time>2026-09-01T20:01:30Z</time>
  <course>213.18</course>
  <speed>20.96</speed>
  <fix>3d</fix>
</trkpt>
<trkpt lat="-27.2732347" lon="151.3322318">
  <ele>524.41</ele>
  <time>2026-09-01T20:01:30Z</time>
  <course>213.25</course>
  <speed>20.49743398574563</speed>
  <fix>3d</fix>
</trkpt>
<trkpt lat="-27.2732025" lon="151.3322555">
  <ele>524.56</ele>
  <time>2026-09-01T20:01:30Z</time>
  <course>213.18</course>
  <speed>20.96</speed>
  <fix>3d</fix>
</trkpt>
<trkpt lat="-27.2732501" lon="151.3322207">
  <ele>524.32</ele>
  <time>2026-09-01T20:01:30Z</time>
  <course>213.17</course>
  <speed>20.29243455083692</speed>
  <fix>3d</fix>
</trkpt>
<trkpt lat="-27.2732337" lon="151.3322326">
  <ele>524.42</ele>
  <time>2026-09-01T20:01:30Z</time>
  <course>213.06</course>
  <speed>20.52</speed>
  <fix>3d</fix>
</trkpt>
<trkpt lat="-27.2732653" lon="151.3322096">
  <ele>524.21</ele>
  <time>2026-09-01T20:01:30Z</time>
  <course>213.1</course>
  <speed>20.1012885159136</speed>
  <fix>3d</fix>
</trkpt>
<trkpt lat="-27.2732337" lon="151.3322326">
  <ele>524.42</ele>
  <time>2026-09-01T20:01:30Z</time>
  <course>213.06</course>
  <speed>20.52</speed>
  <fix>3d</fix>
</trkpt>
<trkpt lat="-27.2732804" lon="151.3321986">
  <ele>524.08</ele>
  <time>2026-09-01T20:01:30Z</time>
  <course>213.03</course>
  <speed>19.918559184840653</speed>
  <fix>3d</fix>
</trkpt>
<trkpt lat="-27.2732643" lon="151.3322102">
  <ele>524.2</ele>
  <time>2026-09-01T20:01:30Z</time>
  <course>212.94</course>
  <speed>20.12</speed>
  <fix>3d</fix>
</trkpt>
<trkpt lat="-27.2732953" lon="151.3321877">
  <ele>523.94</ele>
  <time>2026-09-01T20:01:30Z</time>
  <course>212.96</course>
  <speed>19.749683541768462</speed>
  <fix>3d</fix>
</trkpt>
<trkpt lat="-27.2732643" lon="151.3322102">
  <ele>524.2</ele>
  <time>2026-09-01T20:01:30Z</time>
  <course>212.94</course>
  <speed>20.12</speed>
  <fix>3d</fix>
</trkpt>
<trkpt lat="-27.2733102" lon="151.332177">
  <ele>523.79</ele>
  <time>2026-09-01T20:01:30Z</time>
  <course>212.9</course>
  <speed>19.586242620778492</speed>
  <fix>3d</fix>
</trkpt>
<trkpt lat="-27.2732944" lon="151.3321884">
  <ele>523.94</ele>
  <time>2026-09-01T20:01:30Z</time>
  <course>212.82</course>
  <speed>19.76</speed>
  <fix>3d</fix>
</trkpt>
<trkpt lat="-27.2733249" lon="151.3321662">
  <ele>523.63</ele>
  <time>2026-09-01T20:01:30Z</time>
  <course>212.84</course>
  <speed>19.431224871325018</speed>
  <fix>3d</fix>
</trkpt>
<trkpt lat="-27.2732944" lon="151.3321884">
  <ele>523.94</ele>
  <time>2026-09-01T20:01:30Z</time>
  <course>212.82</course>
  <speed>19.76</speed>
  <fix>3d</fix>
</trkpt>
<trkpt lat="-27.2733396" lon="151.3321556">
  <ele>523.47</ele>
  <time>2026-09-01T20:01:30Z</time>
  <course>212.78</course>
  <speed>19.27622629043351</speed>
  <fix>3d</fix>
</trkpt>
<trkpt lat="-27.273324" lon="151.332167">
  <ele>523.64</ele>
  <time>2026-09-01T20:01:30Z</time>
  <course>212.71</course>
  <speed>19.44</speed>
  <fix>3d</fix>
</trkpt>
<trkpt lat="-27.2733541" lon="151.3321452">
  <ele>523.29</ele>
  <time>2026-09-01T20:01:30Z</time>
  <course>212.72</course>
  <speed>19.135059445948947</speed>
  <fix>3d</fix>
</trkpt>
<trkpt lat="-27.273324" lon="151.332167">
  <ele>523.64</ele>
  <time>2026-09-01T20:01:30Z</time>
  <course>212.71</course>
  <speed>19.44</speed>
  <fix>3d</fix>
</trkpt>
<trkpt lat="-27.2733685" lon="151.3321349">
  <ele>523.13</ele>
  <time>2026-09-01T20:01:30Z</time>
  <course>212.67</course>
  <speed>18.993906917746017</speed>
  <fix>3d</fix>
</trkpt>
<trkpt lat="-27.2733532" lon="151.3321459">
  <ele>523.31</ele>
  <time>2026-09-01T20:01:30Z</time>
  <course>212.61</course>
  <speed>19.15</speed>
  <fix>3d</fix>
</trkpt>
<trkpt lat="-27.2733828" lon="151.3321245">
  <ele>522.95</ele>
  <time>2026-09-01T20:01:30Z</time>
  <course>212.62</course>
  <speed>18.866576265978946</speed>
  <fix>3d</fix>
</trkpt>
<trkpt lat="-27.2733532" lon="151.3321459">
  <ele>523.31</ele>
  <time>2026-09-01T20:01:30Z</time>
  <course>212.61</course>
  <speed>19.15</speed>
  <fix>3d</fix>
</trkpt>
<trkpt lat="-27.2733971" lon="151.3321144">
  <ele>522.77</ele>
  <time>2026-09-01T20:01:30Z</time>
  <course>212.57</course>
  <speed>18.739255588203072</speed>
  <fix>3d</fix>
</trkpt>
<trkpt lat="-27.273382" lon="151.3321252">
  <ele>522.96</ele>
  <time>2026-09-01T20:01:30Z</time>
  <course>212.52</course>
  <speed>18.88</speed>
  <fix>3d</fix>
</trkpt>
<trkpt lat="-27.2734112" lon="151.3321043">
  <ele>522.59</ele>
  <time>2026-09-01T20:01:30Z</time>
  <course>212.52</course>
  <speed>18.61194508910877</speed>
  <fix>3d</fix>
</trkpt>
<trkpt lat="-27.273382" lon="151.3321252">
  <ele>522.96</ele>
  <time>2026-09-01T20:01:30Z</time>
  <course>212.52</course>
  <speed>18.88</speed>
  <fix>3d</fix>
</trkpt>
<trkpt lat="-27.2734253" lon="151.3320942">
  <ele>522.4</ele>
  <time>2026-09-01T20:01:30Z</time>
  <course>212.48</course>
  <speed>18.49844588066792</speed>
  <fix>3d</fix>
</trkpt>
<trkpt lat="-27.2734105" lon="151.3321048">
  <ele>522.59</ele>
  <time>2026-09-01T20:01:30Z</time>
  <course>212.44</course>
  <speed>18.62</speed>
  <fix>3d</fix>
</trkpt>
<trkpt lat="-27.2734393" lon="151.3320842">
  <ele>522.21</ele>
  <time>2026-09-01T20:01:30Z</time>
  <course>212.44</course>
  <speed>18.384953086695653</speed>
  <fix>3d</fix>
</trkpt>
<trkpt lat="-27.2734105" lon="151.3321048">
  <ele>522.59</ele>
  <time>2026-09-01T20:01:30Z</time>
  <course>212.44</course>
  <speed>18.62</speed>
  <fix>3d</fix>
</trkpt>
<trkpt lat="-27.2734532" lon="151.3320742">
  <ele>522.02</ele>
  <time>2026-09-01T20:01:30Z</time>
  <course>212.4</course>
  <speed>18.27146682672193</speed>
  <fix>3d</fix>
</trkpt>
<trkpt lat="-27.2734385" lon="151.3320847">
  <ele>522.21</ele>
  <time>2026-09-01T20:01:30Z</time>
  <course>212.35</course>
  <speed>18.39</speed>
  <fix>3d</fix>
</trkpt>
<trkpt lat="-27.273467" lon="151.3320645">
  <ele>521.83</ele>
  <time>2026-09-01T20:01:30Z</time>
  <course>212.35</course>
  <speed>18.166441588819755</speed>
  <fix>3d</fix>
</trkpt>
<trkpt lat="-27.2734385" lon="151.3320847">
  <ele>522.21</ele>
  <time>2026-09-01T20:01:30Z</time>
  <course>212.35</course>
  <speed>18.39</speed>
  <fix>3d</fix>
</trkpt>
<trkpt lat="-27.2734808" lon="151.3320546">
  <ele>521.64</ele>
  <time>2026-09-01T20:01:30Z</time>
  <course>212.31</course>
  <speed>18.052972054484545</speed>
  <fix>3d</fix>
</trkpt>
<trkpt lat="-27.2734663" lon="151.332065">
  <ele>521.84</ele>
  <time>2026-09-01T20:01:30Z</time>
  <course>212.28</course>
  <speed>18.17</speed>
  <fix>3d</fix>
</trkpt>
<trkpt lat="-27.2734945" lon="151.332045">
  <ele>521.45</ele>
  <time>2026-09-01T20:01:30Z</time>
  <course>212.28</course>
  <speed>17.953300532214126</speed>
  <fix>3d</fix>
</trkpt>
<trkpt lat="-27.2734663" lon="151.332065">
  <ele>521.84</ele>
  <time>2026-09-01T20:01:30Z</time>
  <course>212.28</course>
  <speed>18.17</speed>
  <fix>3d</fix>
</trkpt>
<trkpt lat="-27.2735081" lon="151.3320354">
  <ele>521.25</ele>
  <time>2026-09-01T20:01:30Z</time>
  <course>212.24</course>
  <speed>17.862096741424285</speed>
  <fix>3d</fix>
</trkpt>
<trkpt lat="-27.2734937" lon="151.3320455">
  <ele>521.45</ele>
  <time>2026-09-01T20:01:30Z</time>
  <course>212.2</course>
  <speed>17.97</speed>
  <fix>3d</fix>
</trkpt>
<trkpt lat="-27.2735216" lon="151.3320258">
  <ele>521.04</ele>
  <time>2026-09-01T20:01:30Z</time>
  <course>212.2</course>
  <speed>17.762435080810288</speed>
  <fix>3d</fix>
</trkpt>
<trkpt lat="-27.2734937" lon="151.3320455">
  <ele>521.45</ele>
  <time>2026-09-01T20:01:30Z</time>
  <course>212.2</course>
  <speed>17.97</speed>
  <fix>3d</fix>
</trkpt>
<trkpt lat="-27.2735351" lon="151.3320163">
  <ele>520.85</ele>
  <time>2026-09-01T20:01:30Z</time>
  <course>212.16</course>
  <speed>17.671247833698672</speed>
  <fix>3d</fix>
</trkpt>
<trkpt lat="-27.2735209" lon="151.3320263">
  <ele>521.06</ele>
  <time>2026-09-01T20:01:30Z</time>
  <course>212.13</course>
  <speed>17.77</speed>
  <fix>3d</fix>
</trkpt>
<trkpt lat="-27.2735485" lon="151.3320067">
  <ele>520.66</ele>
  <time>2026-09-01T20:01:30Z</time>
  <course>212.13</course>
  <speed>17.58007110338294</speed>
  <fix>3d</fix>
</trkpt>
<trkpt lat="-27.2735209" lon="151.3320263">
  <ele>521.06</ele>
  <time>2026-09-01T20:01:30Z</time>
  <course>212.13</course>
  <speed>17.77</speed>
  <fix>3d</fix>
</trkpt>
<trkpt lat="-27.2735619" lon="151.3319974">
  <ele>520.46</ele>
  <time>2026-09-01T20:01:30Z</time>
  <course>212.1</course>
  <speed>17.49420761280716</speed>
  <fix>3d</fix>
</trkpt>
<trkpt lat="-27.2735478" lon="151.3320073">
  <ele>520.66</ele>
  <time>2026-09-01T20:01:30Z</time>
  <course>212.06</course>
  <speed>17.59</speed>
  <fix>3d</fix>
</trkpt>
<trkpt lat="-27.2735752" lon="151.3319881">
  <ele>520.26</ele>
  <time>2026-09-01T20:01:30Z</time>
  <course>212.06</course>
  <speed>17.416825198640538</speed>
  <fix>3d</fix>
</trkpt>
<trkpt lat="-27.2735478" lon="151.3320073">
  <ele>520.66</ele>
  <time>2026-09-01T20:01:30Z</time>
  <course>212.06</course>
  <speed>17.59</speed>
  <fix>3d</fix>
</trkpt>
<trkpt lat="-27.2735884" lon="151.3319788">
  <ele>520.04</ele>
  <time>2026-09-01T20:01:30Z</time>
  <course>212.03</course>
  <speed>17.325671704150462</speed>
  <fix>3d</fix>
</trkpt>
<trkpt lat="-27.2735744" lon="151.3319885">
  <ele>520.26</ele>
  <time>2026-09-01T20:01:30Z</time>
  <course>212.0</course>
  <speed>17.42</speed>
  <fix>3d</fix>
</trkpt>
<trkpt lat="-27.2736016" lon="151.3319694">
  <ele>519.85</ele>
  <time>2026-09-01T20:01:30Z</time>
  <course>212.0</course>
  <speed>17.24830426447771</speed>
  <fix>3d</fix>
</trkpt>
<trkpt lat="-27.2735744" lon="151.3319885">
  <ele>520.26</ele>
  <time>2026-09-01T20:01:30Z</time>
  <course>212.0</course>
  <speed>17.42</speed>
  <fix>3d</fix>
</trkpt>
<trkpt lat="-27.2736148" lon="151.3319602">
  <ele>519.65</ele>
  <time>2026-09-01T20:01:30Z</time>
  <course>211.97</course>
  <speed>17.17094348019351</speed>
  <fix>3d</fix>
</trkpt>
<trkpt lat="-27.2736008" lon="151.33197">
  <ele>519.86</ele>
  <time>2026-09-01T20:01:30Z</time>
  <course>211.94</course>
  <speed>17.26</speed>
  <fix>3d</fix>
</trkpt>
<trkpt lat="-27.2736279" lon="151.3319511">
  <ele>519.45</ele>
  <time>2026-09-01T20:01:30Z</time>
  <course>211.94</course>
  <speed>17.098868383609485</speed>
  <fix>3d</fix>
</trkpt>
<trkpt lat="-27.2736008" lon="151.33197">
  <ele>519.86</ele>
  <time>2026-09-01T20:01:30Z</time>
  <course>211.94</course>
  <speed>17.26</speed>
  <fix>3d</fix>
</trkpt>
<trkpt lat="-27.2736409" lon="151.331942">
  <ele>519.24</ele>
  <time>2026-09-01T20:01:30Z</time>
  <course>211.91</course>
  <speed>17.021515796191593</speed>
  <fix>3d</fix>
</trkpt>
<trkpt lat="-27.273627" lon="151.3319516">
  <ele>519.45</ele>
  <time>2026-09-01T20:01:30Z</time>
  <course>211.88</course>
  <speed>17.1</speed>
  <fix>3d</fix>
</trkpt>
<trkpt lat="-27.2718166" lon="151.3359989">
  <ele>541.0</ele>
  <time>2026-09-01T20:01:30Z</time>
  <course>250.52</course>
  <speed>12.126190663188503</speed>
  <fix>3d</fix>
</trkpt>
<trkpt lat="-27.273627" lon="151.3319516">
  <ele>519.45</ele>
  <time>2026-09-01T20:01:30Z</time>
  <course>211.88</course>
  <speed>17.1</speed>
  <fix>3d</fix>
</trkpt>
<trkpt lat="-27.2718193" lon="151.3359874">
  <ele>537.15</ele>
  <time>2026-09-01T20:01:30Z</time>
  <course>250.43</course>
  <speed>11.496477721458865</speed>
  <fix>3d</fix>
</trkpt>
<trkpt lat="-27.2727296" lon="151.3339653">
  <ele>528.3</ele>
  <time>2026-09-01T20:01:30Z</time>
  <course>228.98</course>
  <speed>13.29</speed>
  <fix>3d</fix>
</trkpt>
<trkpt lat="-27.2718228" lon="151.3359759">
  <ele>533.31</ele>
  <time>2026-09-01T20:01:30Z</time>
  <course>237.73</course>
  <speed>12.81554134634975</speed>
  <fix>3d</fix>
</trkpt>
<trkpt lat="-27.2727296" lon="151.3339653">
  <ele>528.3</ele>
  <time>2026-09-01T20:01:30Z</time>
  <course>228.98</course>
  <speed>13.29</speed>
  <fix>3d</fix>
</trkpt>
<trkpt lat="-27.2718295" lon="151.3359645">
  <ele>529.53</ele>
  <time>2026-09-01T20:01:30Z</time>
  <course>217.87</course>
  <speed>14.307739164522115</speed>
  <fix>3d</fix>
</trkpt>
<trkpt lat="-27.271824" lon="151.3359765">
  <ele>533.53</ele>
  <time>2026-09-01T20:01:30Z</time>
  <course>241.07</course>
  <speed>12.56</speed>
  <fix>3d</fix>
</trkpt>
<trkpt lat="-27.2718392" lon="151.3359545">
  <ele>525.79</ele>
  <time>2026-09-01T20:01:30Z</time>
  <course>203.15</course>
  <speed>14.836000134807225</speed>
  <fix>3d</fix>
</trkpt>
<trkpt lat="-27.271824" lon="151.3359765">
  <ele>533.53</ele>
  <time>2026-09-01T20:01:30Z</time>
  <course>241.07</course>
  <speed>12.56</speed>
  <fix>3d</fix>
</trkpt>
<trkpt lat="-27.2718502" lon="151.3359458">
  <ele>522.06</ele>
  <time>2026-09-01T20:01:30Z</time>
  <course>204.12</course>
  <speed>15.54813172056373</speed>
  <fix>3d</fix>
</trkpt>
<trkpt lat="-27.2718393" lon="151.3359556">
  <ele>525.98</ele>
  <time>2026-09-01T20:01:30Z</time>
  <course>222.96</course>
  <speed>14.74</speed>
  <fix>3d</fix>
</trkpt>
<trkpt lat="-27.2718613" lon="151.3359326">
  <ele>518.48</ele>
  <time>2026-09-01T20:01:30Z</time>
  <course>223.44</course>
  <speed>21.490323403801998</speed>
  <fix>3d</fix>
</trkpt>
<trkpt lat="-27.2718393" lon="151.3359556">
  <ele>525.98</ele>
  <time>2026-09-01T20:01:30Z</time>
  <course>222.96</course>
  <speed>14.74</speed>
  <fix>3d</fix>
</trkpt>
<trkpt lat="-27.2718733" lon="151.3359108">
  <ele>515.47</ele>
  <time>2026-09-01T20:01:30Z</time>
  <course>232.7</course>
  <speed>29.347614894570224</speed>
  <fix>3d</fix>
</trkpt>
<trkpt lat="-27.2718611" lon="151.3359291">
  <ele>518.92</ele>
  <time>2026-09-01T20:01:30Z</time>
  <course>232.25</course>
  <speed>21.78</speed>
  <fix>3d</fix>
</trkpt>
<trkpt lat="-27.2718872" lon="151.3358821">
  <ele>513.33</ele>
  <time>2026-09-01T20:01:30Z</time>
  <course>235.57</course>
  <speed>34.73761074109732</speed>
  <fix>3d</fix>
</trkpt>
<trkpt lat="-27.2718611" lon="151.3359291">
  <ele>518.92</ele>
  <time>2026-09-01T20:01:30Z</time>
  <course>232.25</course>
  <speed>21.78</speed>
  <fix>3d</fix>
</trkpt>
<trkpt lat="-27.2719035" lon="151.3358505">
  <ele>512.13</ele>
  <time>2026-09-01T20:01:30Z</time>
  <course>232.71</course>
  <speed>37.006649402506035</speed>
  <fix>3d</fix>
</trkpt>
<trkpt lat="-27.2718876" lon="151.335882">
  <ele>513.88</ele>
  <time>2026-09-01T20:01:30Z</time>
  <course>239.26</course>
  <speed>32.98</speed>
  <fix>3d</fix>
</trkpt>
<trkpt lat="-27.2719225" lon="151.3358197">
  <ele>511.79</ele>
  <time>2026-09-01T20:01:30Z</time>
  <course>226.7</course>
  <speed>36.96200346301591</speed>
  <fix>3d</fix>
</trkpt>
<trkpt lat="-27.2718876" lon="151.335882">
  <ele>513.88</ele>
  <time>2026-09-01T20:01:30Z</time>
  <course>239.26</course>
  <speed>32.98</speed>
  <fix>3d</fix>
</trkpt>
<trkpt lat="-27.271944" lon="151.335792">
  <ele>512.1</ele>
  <time>2026-09-01T20:01:30Z</time>
  <course>220.07</course>
  <speed>35.74440515661158</speed>
  <fix>3d</fix>
</trkpt>
<trkpt lat="-27.2719227" lon="151.3358227">
  <ele>512.12</ele>
  <time>2026-09-01T20:01:30Z</time>
  <course>231.99</course>
  <speed>36.17</speed>
  <fix>3d</fix>
</trkpt>
<trkpt lat="-27.2719675" lon="151.3357687">
  <ele>512.85</ele>
  <time>2026-09-01T20:01:30Z</time>
  <course>214.12</course>
  <speed>34.21668160415326</speed>
  <fix>3d</fix>
</trkpt>
<trkpt lat="-27.2719227" lon="151.3358227">
  <ele>512.12</ele>
  <time>2026-09-01T20:01:30Z</time>
  <course>231.99</course>
  <speed>36.17</speed>
  <fix>3d</fix>
</trkpt>
<trkpt lat="-27.2719923" lon="151.3357495">
  <ele>513.87</ele>
  <time>2026-09-01T20:01:30Z</time>
  <course>209.38</course>
  <speed>32.797893225022854</speed>
  <fix>3d</fix>
</trkpt>
<trkpt lat="-27.2719669" lon="151.3357718">
  <ele>512.94</ele>
  <time>2026-09-01T20:01:30Z</time>
  <course>218.86</course>
  <speed>34.09</speed>
  <fix>3d</fix>
</trkpt>
<trkpt lat="-27.2720177" lon="151.335734">
  <ele>515.04</ele>
  <time>2026-09-01T20:01:30Z</time>
  <course>206.14</course>
  <speed>31.618641653303197</speed>
  <fix>3d</fix>
</trkpt>
<trkpt lat="-27.2719669" lon="151.3357718">
  <ele>512.94</ele>
  <time>2026-09-01T20:01:30Z</time>
  <course>218.86</course>
  <speed>34.09</speed>
  <fix>3d</fix>
</trkpt>
<trkpt lat="-27.2720431" lon="151.335721">
  <ele>516.29</ele>
  <time>2026-09-01T20:01:30Z</time>
  <course>204.36</course>
  <speed>30.667730597486344</speed>
  <fix>3d</fix>
</trkpt>
<trkpt lat="-27.2720165" lon="151.335736">
  <ele>515.02</ele>
  <time>2026-09-01T20:01:30Z</time>
  <course>207.37</course>
  <speed>31.7</speed>
  <fix>3d</fix>
</trkpt>
<trkpt lat="-27.2720684" lon="151.3357098">
  <ele>517.57</ele>
  <time>2026-09-01T20:01:30Z</time>
  <course>203.72</course>
  <speed>29.938019306560683</speed>
  <fix>3d</fix>
</trkpt>
<trkpt lat="-27.2720165" lon="151.335736">
  <ele>515.02</ele>
  <time>2026-09-01T20:01:30Z</time>
  <course>207.37</course>
  <speed>31.7</speed>
  <fix>3d</fix>
</trkpt>
<trkpt lat="-27.2720934" lon="151.3356993">
  <ele>518.83</ele>
  <time>2026-09-01T20:01:30Z</time>
  <course>203.72</course>
  <speed>29.407266108905805</speed>
  <fix>3d</fix>
</trkpt>
<trkpt lat="-27.272067" lon="151.3357107">
  <ele>517.49</ele>
  <time>2026-09-01T20:01:30Z</time>
  <course>201.34</course>
  <speed>30.06</speed>
  <fix>3d</fix>
</trkpt>
<trkpt lat="-27.2721182" lon="151.3356896">
  <ele>520.03</ele>
  <time>2026-09-01T20:01:30Z</time>
  <course>203.91</course>
  <speed>29.04745083479788</speed>
  <fix>3d</fix>
</trkpt>
<trkpt lat="-27.272067" lon="151.3357107">
  <ele>517.49</ele>
  <time>2026-09-01T20:01:30Z</time>
  <course>201.34</course>
  <speed>30.06</speed>
  <fix>3d</fix>
</trkpt>
<trkpt lat="-27.2721426" lon="151.3356796">
  <ele>521.16</ele>
  <time>2026-09-01T20:01:30Z</time>
  <course>203.89</course>
  <speed>28.828076592100278</speed>
  <fix>3d</fix>
</trkpt>
<trkpt lat="-27.2721168" lon="151.33569">
  <ele>519.93</ele>
  <time>2026-09-01T20:01:30Z</time>
  <course>199.72</course>
  <speed>29.13</speed>
  <fix>3d</fix>
</trkpt>
<trkpt lat="-27.2721669" lon="151.3356699">
  <ele>522.2</ele>
  <time>2026-09-01T20:01:30Z</time>
  <course>203.58</course>
  <speed>28.69617570339295</speed>
  <fix>3d</fix>
</trkpt>
<trkpt lat="-27.2721168" lon="151.33569">
  <ele>519.93</ele>
  <time>2026-09-01T20:01:30Z</time>
  <course>199.72</course>
  <speed>29.13</speed>
  <fix>3d</fix>
</trkpt>
<trkpt lat="-27.2721911" lon="151.3356599">
  <ele>523.11</ele>
  <time>2026-09-01T20:01:30Z</time>
  <course>202.95</course>
  <speed>28.62148144313987</speed>
  <fix>3d</fix>
</trkpt>
<trkpt lat="-27.2721656" lon="151.3356703">
  <ele>522.08</ele>
  <time>2026-09-01T20:01:30Z</time>
  <course>200.0</course>
  <speed>28.73</speed>
  <fix>3d</fix>
</trkpt>
<trkpt lat="-27.2722152" lon="151.3356498">
  <ele>523.91</ele>
  <time>2026-09-01T20:01:30Z</time>
  <course>202.16</course>
  <speed>28.55219256029211</speed>
  <fix>3d</fix>
</trkpt>
<trkpt lat="-27.2721656" lon="151.3356703">
  <ele>522.08</ele>
  <time>2026-09-01T20:01:30Z</time>
  <course>200.0</course>
  <speed>28.73</speed>
  <fix>3d</fix>
</trkpt>
<trkpt lat="-27.2722391" lon="151.3356397">
  <ele>524.59</ele>
  <time>2026-09-01T20:01:30Z</time>
  <course>201.4</course>
  <speed>28.487843021190635</speed>
  <fix>3d</fix>
</trkpt>
<trkpt lat="-27.272214" lon="151.3356502">
  <ele>523.81</ele>
  <time>2026-09-01T20:01:30Z</time>
  <course>200.47</course>
  <speed>28.56</speed>
  <fix>3d</fix>
</trkpt>
<trkpt lat="-27.272263" lon="151.3356294">
  <ele>525.15</ele>
  <time>2026-09-01T20:01:30Z</time>
  <course>200.66</course>
  <speed>28.388465967713014</speed>
  <fix>3d</fix>
</trkpt>
<trkpt lat="-27.272214" lon="151.3356502">
  <ele>523.81</ele>
  <time>2026-09-01T20:01:30Z</time>
  <course>200.47</course>
  <speed>28.56</speed>
  <fix>3d</fix>
</trkpt>
<trkpt lat="-27.272287" lon="151.3356193">
  <ele>525.62</ele>
  <time>2026-09-01T20:01:30Z</time>
  <course>200.05</course>
  <speed>28.289171073044894</speed>
  <fix>3d</fix>
</trkpt>
<trkpt lat="-27.2722619" lon="151.3356299">
  <ele>525.07</ele>
  <time>2026-09-01T20:01:30Z</time>
  <course>200.73</course>
  <speed>28.39</speed>
  <fix>3d</fix>
</trkpt>
<trkpt lat="-27.2723107" lon="151.3356091">
  <ele>525.99</ele>
  <time>2026-09-01T20:01:30Z</time>
  <course>199.67</course>
  <speed>28.16909831712758</speed>
  <fix>3d</fix>
</trkpt>
<trkpt lat="-27.2722619" lon="151.3356299">
  <ele>525.07</ele>
  <time>2026-09-01T20:01:30Z</time>
  <course>200.73</course>
  <speed>28.39</speed>
  <fix>3d</fix>
</trkpt>
<trkpt lat="-27.2723343" lon="151.3355988">
  <ele>526.28</ele>
  <time>2026-09-01T20:01:30Z</time>
  <course>199.47</course>
  <speed>28.060080185202608</speed>
  <fix>3d</fix>
</trkpt>
<trkpt lat="-27.2723094" lon="151.3356096">
  <ele>525.93</ele>
  <time>2026-09-01T20:01:30Z</time>
  <course>201.01</course>
  <speed>28.18</speed>
  <fix>3d</fix>
</trkpt>
<trkpt lat="-27.2723577" lon="151.3355885">
  <ele>526.49</ele>
  <time>2026-09-01T20:01:30Z</time>
  <course>199.48</course>
  <speed>27.951164555345454</speed>
  <fix>3d</fix>
</trkpt>
<trkpt lat="-27.2723094" lon="151.3356096">
  <ele>525.93</ele>
  <time>2026-09-01T20:01:30Z</time>
  <course>201.01</course>
  <speed>28.18</speed>
  <fix>3d</fix>
</trkpt>
<trkpt lat="-27.272381" lon="151.3355781">
  <ele>526.65</ele>
  <time>2026-09-01T20:01:30Z</time>
  <course>199.68</course>
  <speed>27.83954920612042</speed>
  <fix>3d</fix>
</trkpt>
<trkpt lat="-27.2723564" lon="151.335589">
  <ele>526.45</ele>
  <time>2026-09-01T20:01:30Z</time>
  <course>201.57</course>
  <speed>27.96</speed>
  <fix>3d</fix>
</trkpt>
<trkpt lat="-27.2724041" lon="151.3355675">
  <ele>526.75</ele>
  <time>2026-09-01T20:01:30Z</time>
  <course>200.05</course>
  <speed>27.743130681305598</speed>
  <fix>3d</fix>
</trkpt>
<trkpt lat="-27.2723564" lon="151.335589">
  <ele>526.45</ele>
  <time>2026-09-01T20:01:30Z</time>
  <course>201.57</course>
  <speed>27.96</speed>
  <fix>3d</fix>
</trkpt>
<trkpt lat="-27.272427" lon="151.3355566">
  <ele>526.79</ele>
  <time>2026-09-01T20:01:30Z</time>
  <course>200.6</course>
  <speed>27.659705349117512</speed>
  <fix>3d</fix>
</trkpt>
<trkpt lat="-27.2724028" lon="151.3355679">
  <ele>526.72</ele>
  <time>2026-09-01T20:01:30Z</time>
  <course>202.53</course>
  <speed>27.76</speed>
  <fix>3d</fix>
</trkpt>
<trkpt lat="-27.2724497" lon="151.3355455">
  <ele>526.82</ele>
  <time>2026-09-01T20:01:30Z</time>
  <course>201.31</course>
  <speed>27.581881734210956</speed>
  <fix>3d</fix>
</trkpt>
<trkpt lat="-27.2724028" lon="151.3355679">
  <ele>526.72</ele>
  <time>2026-09-01T20:01:30Z</time>
  <course>202.53</course>
  <speed>27.76</speed>
  <fix>3d</fix>
</trkpt>
<trkpt lat="-27.2724723" lon="151.335534">
  <ele>526.79</ele>
  <time>2026-09-01T20:01:30Z</time>
  <course>202.09</course>
  <speed>27.516758530030387</speed>
  <fix>3d</fix>
</trkpt>
<trkpt lat="-27.2724485" lon="151.3355459">
  <ele>526.79</ele>
  <time>2026-09-01T20:01:30Z</time>
  <course>203.94</course>
  <speed>27.6</speed>
  <fix>3d</fix>
</trkpt>
<trkpt lat="-27.2724946" lon="151.3355221">
  <ele>526.74</ele>
  <time>2026-09-01T20:01:30Z</time>
  <course>203.05</course>
  <speed>27.470551505202803</speed>
  <fix>3d</fix>
</trkpt>
<trkpt lat="-27.2724485" lon="151.3355459">
  <ele>526.79</ele>
  <time>2026-09-01T20:01:30Z</time>
  <course>203.94</course>
  <speed>27.6</speed>
  <fix>3d</fix>
</trkpt>
<trkpt lat="-27.2725167" lon="151.3355097">
  <ele>526.66</ele>
  <time>2026-09-01T20:01:30Z</time>
  <course>204.13</course>
  <speed>27.418931416085492</speed>
  <fix>3d</fix>
</trkpt>
<trkpt lat="-27.2724934" lon="151.3355225">
  <ele>526.72</ele>
  <time>2026-09-01T20:01:30Z</time>
  <course>205.76</course>
  <speed>27.47</speed>
  <fix>3d</fix>
</trkpt>
<trkpt lat="-27.2725386" lon="151.3354971">
  <ele>526.56</ele>
  <time>2026-09-01T20:01:30Z</time>
  <course>205.26</course>
  <speed>27.386524058375862</speed>
  <fix>3d</fix>
</trkpt>
<trkpt lat="-27.2724934" lon="151.3355225">
  <ele>526.72</ele>
  <time>2026-09-01T20:01:30Z</time>
  <course>205.76</course>
  <speed>27.47</speed>
  <fix>3d</fix>
</trkpt>
<trkpt lat="-27.2725602" lon="151.3354838">
  <ele>526.43</ele>
  <time>2026-09-01T20:01:30Z</time>
  <course>206.42</course>
  <speed>27.343679342765853</speed>
  <fix>3d</fix>
</trkpt>
<trkpt lat="-27.2725373" lon="151.3354975">
  <ele>526.55</ele>
  <time>2026-09-01T20:01:30Z</time>
  <course>207.92</course>
  <speed>27.38</speed>
  <fix>3d</fix>
</trkpt>
<trkpt lat="-27.2725815" lon="151.3354702">
  <ele>526.29</ele>
  <time>2026-09-01T20:01:30Z</time>
  <course>207.54</course>
  <speed>27.31777809412764</speed>
  <fix>3d</fix>
</trkpt>
<trkpt lat="-27.2725373" lon="151.3354975">
  <ele>526.55</ele>
  <time>2026-09-01T20:01:30Z</time>
  <course>207.92</course>
  <speed>27.38</speed>
  <fix>3d</fix>
</trkpt>
<trkpt lat="-27.2726025" lon="151.335456">
  <ele>526.14</ele>
  <time>2026-09-01T20:01:30Z</time>
  <course>208.55</course>
  <speed>27.293698906524195</speed>
  <fix>3d</fix>
</trkpt>
<trkpt lat="-27.2725802" lon="151.3354706">
  <ele>526.29</ele>
  <time>2026-09-01T20:01:30Z</time>
  <course>210.28</course>
  <speed>27.32</speed>
  <fix>3d</fix>
</trkpt>
<trkpt lat="-27.2726232" lon="151.3354412">
  <ele>525.98</ele>
  <time>2026-09-01T20:01:30Z</time>
  <course>209.44</course>
  <speed>27.259614817528146</speed>
  <fix>3d</fix>
</trkpt>
<trkpt lat="-27.2725802" lon="151.3354706">
  <ele>526.29</ele>
  <time>2026-09-01T20:01:30Z</time>
  <course>210.28</course>
  <speed>27.32</speed>
  <fix>3d</fix>
</trkpt>
<trkpt lat="-27.2726437" lon="151.3354262">
  <ele>525.81</ele>
  <time>2026-09-01T20:01:30Z</time>
  <course>210.24</course>
  <speed>27.233013054012222</speed>
  <fix>3d</fix>
</trkpt>
<trkpt lat="-27.272622" lon="151.3354418">
  <ele>525.98</ele>
  <time>2026-09-01T20:01:30Z</time>
  <course>212.54</course>
  <speed>27.26</speed>
  <fix>3d</fix>
</trkpt>
<trkpt lat="-27.272664" lon="151.3354108">
  <ele>525.63</ele>
  <time>2026-09-01T20:01:30Z</time>
  <course>210.96</course>
  <speed>27.18566166198645</speed>
  <fix>3d</fix>
</trkpt>
<trkpt lat="-27.272622" lon="151.3354418">
  <ele>525.98</ele>
  <time>2026-09-01T20:01:30Z</time>
  <course>212.54</course>
  <speed>27.26</speed>
  <fix>3d</fix>
</trkpt>
<trkpt lat="-27.272684" lon="151.3353952">
  <ele>525.45</ele>
  <time>2026-09-01T20:01:30Z</time>
  <course>211.61</course>
  <speed>27.15026519207501</speed>
  <fix>3d</fix>
</trkpt>
<trkpt lat="-27.2726629" lon="151.3354114">
  <ele>525.64</ele>
  <time>2026-09-01T20:01:30Z</time>
  <course>214.36</course>
  <speed>27.19</speed>
  <fix>3d</fix>
</trkpt>
<trkpt lat="-27.2727038" lon="151.3353793">
  <ele>525.26</ele>
  <time>2026-09-01T20:01:30Z</time>
  <course>212.27</course>
  <speed>27.10558060621465</speed>
  <fix>3d</fix>
</trkpt>
<trkpt lat="-27.2726629" lon="151.3354114">
  <ele>525.64</ele>
  <time>2026-09-01T20:01:30Z</time>
  <course>214.36</course>
  <speed>27.19</speed>
  <fix>3d</fix>
</trkpt>
<trkpt lat="-27.2727235" lon="151.3353632">
  <ele>525.07</ele>
  <time>2026-09-01T20:01:30Z</time>
  <course>212.95</course>
  <speed>27.064061040427763</speed>
  <fix>3d</fix>
</trkpt>
<trkpt lat="-27.2727029" lon="151.3353798">
  <ele>525.27</ele>
  <time>2026-09-01T20:01:30Z</time>
  <course>215.64</course>
  <speed>27.11</speed>
  <fix>3d</fix>
</trkpt>
<trkpt lat="-27.2727431" lon="151.3353469">
  <ele>524.87</ele>
  <time>2026-09-01T20:01:30Z</time>
  <course>213.59</course>
  <speed>27.01648570780441</speed>
  <fix>3d</fix>
</trkpt>
<trkpt lat="-27.2727029" lon="151.3353798">
  <ele>525.27</ele>
  <time>2026-09-01T20:01:30Z</time>
  <course>215.64</course>
  <speed>27.11</speed>
  <fix>3d</fix>
</trkpt>
<trkpt lat="-27.2727625" lon="151.3353306">
  <ele>524.66</ele>
  <time>2026-09-01T20:01:30Z</time>
  <course>214.16</course>
  <speed>26.97400600578268</speed>
  <fix>3d</fix>
</trkpt>
<trkpt lat="-27.2727422" lon="151.3353476">
  <ele>524.87</ele>
  <time>2026-09-01T20:01:30Z</time>
  <course>216.48</course>
  <speed>27.02</speed>
  <fix>3d</fix>
</trkpt>
<trkpt lat="-27.2727819" lon="151.3353143">
  <ele>524.45</ele>
  <time>2026-09-01T20:01:30Z</time>
  <course>214.66</course>
  <speed>26.936178273838326</speed>
  <fix>3d</fix>
</trkpt>
<trkpt lat="-27.2727422" lon="151.3353476">
  <ele>524.87</ele>
  <time>2026-09-01T20:01:30Z</time>
  <course>216.48</course>
  <speed>27.02</speed>
  <fix>3d</fix>
</trkpt>
<trkpt lat="-27.2728011" lon="151.3352979">
  <ele>524.23</ele>
  <time>2026-09-01T20:01:30Z</time>
  <course>215.11</course>
  <speed>26.89658900306877</speed>
  <fix>3d</fix>
</trkpt>
<trkpt lat="-27.272781" lon="151.3353149">
  <ele>524.45</ele>
  <time>2026-09-01T20:01:30Z</time>
  <course>217.03</course>
  <speed>26.94</speed>
  <fix>3d</fix>
</trkpt>
<trkpt lat="-27.2728203" lon="151.3352813">
  <ele>524.0</ele>
  <time>2026-09-01T20:01:30Z</time>
  <course>215.45</course>
  <speed>26.859108324737814</speed>
  <fix>3d</fix>
</trkpt>
<trkpt lat="-27.272781" lon="151.3353149">
  <ele>524.45</ele>
  <time>2026-09-01T20:01:30Z</time>
  <course>217.03</course>
  <speed>26.94</speed>
  <fix>3d</fix>
</trkpt>
<trkpt lat="-27.2728395" lon="151.3352649">
  <ele>523.78</ele>
  <time>2026-09-01T20:01:30Z</time>
  <course>215.79</course>
  <speed>26.83765451748718</speed>
  <fix>3d</fix>
</trkpt>
<trkpt lat="-27.2728195" lon="151.335282">
  <ele>524.01</ele>
  <time>2026-09-01T20:01:30Z</time>
  <course>217.37</course>
  <speed>26.87</speed>
  <fix>3d</fix>
</trkpt>
<trkpt lat="-27.2728587" lon="151.3352483">
  <ele>523.54</ele>
  <time>2026-09-01T20:01:30Z</time>
  <course>216.08</course>
  <speed>26.81203088167698</speed>
  <fix>3d</fix>
</trkpt>
<trkpt lat="-27.2728195" lon="151.335282">
  <ele>524.01</ele>
  <time>2026-09-01T20:01:30Z</time>
  <course>217.37</course>
  <speed>26.87</speed>
  <fix>3d</fix>
</trkpt>
<trkpt lat="-27.2728778" lon="151.3352316">
  <ele>523.34</ele>
  <time>2026-09-01T20:01:30Z</time>
  <course>216.3</course>
  <speed>26.788260488505035</speed>
  <fix>3d</fix>
</trkpt>
<trkpt lat="-27.2728578" lon="151.3352491">
  <ele>523.56</ele>
  <time>2026-09-01T20:01:30Z</time>
  <course>217.55</course>
  <speed>26.81</speed>
  <fix>3d</fix>
</trkpt>
<trkpt lat="-27.2728969" lon="151.3352152">
  <ele>523.13</ele>
  <time>2026-09-01T20:01:30Z</time>
  <course>216.45</course>
  <speed>26.760211135190993</speed>
  <fix>3d</fix>
</trkpt>
<trkpt lat="-27.2728578" lon="151.3352491">
  <ele>523.56</ele>
  <time>2026-09-01T20:01:30Z</time>
  <course>217.55</course>
  <speed>26.81</speed>
  <fix>3d</fix>
</trkpt>
<trkpt lat="-27.2729159" lon="151.3351987">
  <ele>522.95</ele>
  <time>2026-09-01T20:01:30Z</time>
  <course>216.56</course>
  <speed>26.72606218656239</speed>
  <fix>3d</fix>
</trkpt>
<trkpt lat="-27.2728959" lon="151.335216">
  <ele>523.15</ele>
  <time>2026-09-01T20:01:30Z</time>
  <course>217.6</course>
  <speed>26.76</speed>
  <fix>3d</fix>
</trkpt>
<trkpt lat="-27.2729349" lon="151.3351822">
  <ele>522.79</ele>
  <time>2026-09-01T20:01:30Z</time>
  <course>216.66</course>
  <speed>26.693753951065034</speed>
  <fix>3d</fix>
</trkpt>
<trkpt lat="-27.2728959" lon="151.335216">
  <ele>523.15</ele>
  <time>2026-09-01T20:01:30Z</time>
  <course>217.6</course>
  <speed>26.76</speed>
  <fix>3d</fix>
</trkpt>
<trkpt lat="-27.2729539" lon="151.3351659">
  <ele>522.66</ele>
  <time>2026-09-01T20:01:30Z</time>
  <course>216.69</course>
  <speed>26.657248545189354</speed>
  <fix>3d</fix>
</trkpt>
<trkpt lat="-27.2729339" lon="151.3351831">
  <ele>522.82</ele>
  <time>2026-09-01T20:01:30Z</time>
  <course>217.51</course>
  <speed>26.7</speed>
  <fix>3d</fix>
</trkpt>
<trkpt lat="-27.2729729" lon="151.3351495">
  <ele>522.58</ele>
  <time>2026-09-01T20:01:30Z</time>
  <course>216.62</course>
  <speed>26.600751869073175</speed>
  <fix>3d</fix>
</trkpt>
<trkpt lat="-27.2729339" lon="151.3351831">
  <ele>522.82</ele>
  <time>2026-09-01T20:01:30Z</time>
  <course>217.51</course>
  <speed>26.7</speed>
  <fix>3d</fix>
</trkpt>
<trkpt lat="-27.2729919" lon="151.3351333">
  <ele>522.53</ele>
  <time>2026-09-01T20:01:30Z</time>
  <course>216.51</course>
  <speed>26.5182899146985</speed>
  <fix>3d</fix>
</trkpt>
<trkpt lat="-27.2729719" lon="151.3351504">
  <ele>522.61</ele>
  <time>2026-09-01T20:01:30Z</time>
  <course>217.29</course>
  <speed>26.59</speed>
  <fix>3d</fix>
</trkpt>
<trkpt lat="-27.2730109" lon="151.3351171">
  <ele>522.53</ele>
  <time>2026-09-01T20:01:30Z</time>
  <course>216.37</course>
  <speed>26.430030268616797</speed>
  <fix>3d</fix>
</trkpt>
<trkpt lat="-27.2729719" lon="151.3351504">
  <ele>522.61</ele>
  <time>2026-09-01T20:01:30Z</time>
  <course>217.29</course>
  <speed>26.59</speed>
  <fix>3d</fix>
</trkpt>
<trkpt lat="-27.2730299" lon="151.3351012">
  <ele>522.56</ele>
  <time>2026-09-01T20:01:30Z</time>
  <course>216.26</course>
  <speed>26.310093120321714</speed>
  <fix>3d</fix>
</trkpt>
<trkpt lat="-27.2730099" lon="151.335118">
  <ele>522.55</ele>
  <time>2026-09-01T20:01:30Z</time>
  <course>216.94</course>
  <speed>26.42</speed>
  <fix>3d</fix>
</trkpt>
<trkpt lat="-27.2730488" lon="151.3350854">
  <ele>522.64</ele>
  <time>2026-09-01T20:01:30Z</time>
  <course>216.15</course>
  <speed>26.130843844009323</speed>
  <fix>3d</fix>
</trkpt>
<trkpt lat="-27.2730099" lon="151.335118">
  <ele>522.55</ele>
  <time>2026-09-01T20:01:30Z</time>
  <course>216.94</course>
  <speed>26.42</speed>
  <fix>3d</fix>
</trkpt>
<trkpt lat="-27.2730676" lon="151.3350698">
  <ele>522.73</ele>
  <time>2026-09-01T20:01:30Z</time>
  <course>216.05</course>
  <speed>25.906757805638282</speed>
  <fix>3d</fix>
</trkpt>
<trkpt lat="-27.2730479" lon="151.3350862">
  <ele>522.64</ele>
  <time>2026-09-01T20:01:30Z</time>
  <course>216.39</course>
  <speed>26.12</speed>
  <fix>3d</fix>
</trkpt>
<trkpt lat="-27.2730864" lon="151.3350546">
  <ele>522.86</ele>
  <time>2026-09-01T20:01:30Z</time>
  <course>215.89</course>
  <speed>25.596572036114523</speed>
  <fix>3d</fix>
</trkpt>
<trkpt lat="-27.2730479" lon="151.3350862">
  <ele>522.64</ele>
  <time>2026-09-01T20:01:30Z</time>
  <course>216.39</course>
  <speed>26.12</speed>
  <fix>3d</fix>
</trkpt>
<trkpt lat="-27.273105" lon="151.3350398">
  <ele>523.01</ele>
  <time>2026-09-01T20:01:30Z</time>
  <course>215.68</course>
  <speed>25.221756481260382</speed>
  <fix>3d</fix>
</trkpt>
<trkpt lat="-27.2730856" lon="151.3350554">
  <ele>522.86</ele>
  <time>2026-09-01T20:01:30Z</time>
  <course>215.59</course>
  <speed>25.58</speed>
  <fix>3d</fix>
</trkpt>
<trkpt lat="-27.2731235" lon="151.3350252">
  <ele>523.18</ele>
  <time>2026-09-01T20:01:30Z</time>
  <course>215.46</course>
  <speed>24.80427584107224</speed>
  <fix>3d</fix>
</trkpt>
<trkpt lat="-27.2730856" lon="151.3350554">
  <ele>522.86</ele>
  <time>2026-09-01T20:01:30Z</time>
  <course>215.59</course>
  <speed>25.58</speed>
  <fix>3d</fix>
</trkpt>
<trkpt lat="-27.2731417" lon="151.3350113">
  <ele>523.37</ele>
  <time>2026-09-01T20:01:30Z</time>
  <course>215.21</course>
  <speed>24.37483333276353</speed>
  <fix>3d</fix>
</trkpt>
<trkpt lat="-27.2731226" lon="151.3350261">
  <ele>523.18</ele>
  <time>2026-09-01T20:01:30Z</time>
  <course>214.71</course>
  <speed>24.82</speed>
  <fix>3d</fix>
</trkpt>
<trkpt lat="-27.2731596" lon="151.3349975">
  <ele>523.56</ele>
  <time>2026-09-01T20:01:30Z</time>
  <course>214.94</course>
  <speed>23.954984867455043</speed>
  <fix>3d</fix>
</trkpt>
<trkpt lat="-27.2731226" lon="151.3350261">
  <ele>523.18</ele>
  <time>2026-09-01T20:01:30Z</time>
  <course>214.71</course>
  <speed>24.82</speed>
  <fix>3d</fix>
</trkpt>
<trkpt lat="-27.2731774" lon="151.3349841">
  <ele>523.75</ele>
  <time>2026-09-01T20:01:30Z</time>
  <course>214.66</course>
  <speed>23.55811749694784</speed>
  <fix>3d</fix>
</trkpt>
<trkpt lat="-27.2731587" lon="151.3349983">
  <ele>523.55</ele>
  <time>2026-09-01T20:01:30Z</time>
  <course>214.01</course>
  <speed>23.98</speed>
  <fix>3d</fix>
</trkpt>
<trkpt lat="-27.2731948" lon="151.3349711">
  <ele>523.91</ele>
  <time>2026-09-01T20:01:30Z</time>
  <course>214.4</course>
  <speed>23.178287253375732</speed>
  <fix>3d</fix>
</trkpt>
<trkpt lat="-27.2731587" lon="151.3349983">
  <ele>523.55</ele>
  <time>2026-09-01T20:01:30Z</time>
  <course>214.01</course>
  <speed>23.98</speed>
  <fix>3d</fix>
</trkpt>
<trkpt lat="-27.2732121" lon="151.3349582">
  <ele>524.08</ele>
  <time>2026-09-01T20:01:30Z</time>
  <course>214.17</course>
  <speed>22.823595247024514</speed>
  <fix>3d</fix>
</trkpt>
<trkpt lat="-27.2731939" lon="151.3349718">
  <ele>523.9</ele>
  <time>2026-09-01T20:01:30Z</time>
  <course>213.53</course>
  <speed>23.21</speed>
  <fix>3d</fix>
</trkpt>
<trkpt lat="-27.2732291" lon="151.3349457">
  <ele>524.2</ele>
  <time>2026-09-01T20:01:30Z</time>
  <course>213.97</course>
  <speed>22.493883613106917</speed>
  <fix>3d</fix>
</trkpt>
<trkpt lat="-27.2731939" lon="151.3349718">
  <ele>523.9</ele>
  <time>2026-09-01T20:01:30Z</time>
  <course>213.53</course>
  <speed>23.21</speed>
  <fix>3d</fix>
</trkpt>
<trkpt lat="-27.2732459" lon="151.3349333">
  <ele>524.29</ele>
  <time>2026-09-01T20:01:30Z</time>
  <course>213.79</course>
  <speed>22.183570497104384</speed>
  <fix>3d</fix>
</trkpt>
<trkpt lat="-27.2732283" lon="151.3349463">
  <ele>524.18</ele>
  <time>2026-09-01T20:01:30Z</time>
  <course>213.22</course>
  <speed>22.52</speed>
  <fix>3d</fix>
</trkpt>
<trkpt lat="-27.2732625" lon="151.3349213">
  <ele>524.36</ele>
  <time>2026-09-01T20:01:30Z</time>
  <course>213.62</course>
  <speed>21.895536074734505</speed>
  <fix>3d</fix>
</trkpt>
<trkpt lat="-27.2732283" lon="151.3349463">
  <ele>524.18</ele>
  <time>2026-09-01T20:01:30Z</time>
  <course>213.22</course>
  <speed>22.52</speed>
  <fix>3d</fix>
</trkpt>
<trkpt lat="-27.2732789" lon="151.3349093">
  <ele>524.39</ele>
  <time>2026-09-01T20:01:30Z</time>
  <course>213.45</course>
  <speed>21.613007657427044</speed>
  <fix>3d</fix>
</trkpt>
<trkpt lat="-27.2732617" lon="151.3349218">
  <ele>524.33</ele>
  <time>2026-09-01T20:01:30Z</time>
  <course>213.03</course>
  <speed>21.91</speed>
  <fix>3d</fix>
</trkpt>
<trkpt lat="-27.2732951" lon="151.3348974">
  <ele>524.38</ele>
  <time>2026-09-01T20:01:30Z</time>
  <course>213.3</course>
  <speed>21.34977751640518</speed>
  <fix>3d</fix>
</trkpt>
<trkpt lat="-27.2732617" lon="151.3349218">
  <ele>524.33</ele>
  <time>2026-09-01T20:01:30Z</time>
  <course>213.03</course>
  <speed>21.91</speed>
  <fix>3d</fix>
</trkpt>
<trkpt lat="-27.2733111" lon="151.3348859">
  <ele>524.35</ele>
  <time>2026-09-01T20:01:30Z</time>
  <course>213.16</course>
  <speed>21.103376507090044</speed>
  <fix>3d</fix>
</trkpt>
<trkpt lat="-27.2732943" lon="151.334898">
  <ele>524.37</ele>
  <time>2026-09-01T20:01:30Z</time>
  <course>212.88</course>
  <speed>21.37</speed>
  <fix>3d</fix>
</trkpt>
<trkpt lat="-27.2733269" lon="151.3348744">
  <ele>524.29</ele>
  <time>2026-09-01T20:01:30Z</time>
  <course>213.03</course>
  <speed>20.867836495429998</speed>
  <fix>3d</fix>
</trkpt>
<trkpt lat="-27.2732943" lon="151.334898">
  <ele>524.37</ele>
  <time>2026-09-01T20:01:30Z</time>
  <course>212.88</course>
  <speed>21.37</speed>
  <fix>3d</fix>
</trkpt>
<trkpt lat="-27.2733426" lon="151.3348631">
  <ele>524.22</ele>
  <time>2026-09-01T20:01:30Z</time>
  <course>212.92</course>
  <speed>20.649137996536318</speed>
  <fix>3d</fix>
</trkpt>
<trkpt lat="-27.2733262" lon="151.3348749">
  <ele>524.28</ele>
  <time>2026-09-01T20:01:30Z</time>
  <course>212.75</course>
  <speed>20.88</speed>
  <fix>3d</fix>
</trkpt>
<trkpt lat="-27.2733583" lon="151.3348518">
  <ele>524.13</ele>
  <time>2026-09-01T20:01:30Z</time>
  <course>212.82</course>
  <speed>20.43586308429375</speed>
  <fix>3d</fix>
</trkpt>
<trkpt lat="-27.2733262" lon="151.3348749">
  <ele>524.28</ele>
  <time>2026-09-01T20:01:30Z</time>
  <course>212.75</course>
  <speed>20.88</speed>
  <fix>3d</fix>
</trkpt>
<trkpt lat="-27.2733737" lon="151.3348407">
  <ele>524.01</ele>
  <time>2026-09-01T20:01:30Z</time>
  <course>212.74</course>
  <speed>20.231030621300537</speed>
  <fix>3d</fix>
</trkpt>
<trkpt lat="-27.2733574" lon="151.3348524">
  <ele>524.12</ele>
  <time>2026-09-01T20:01:30Z</time>
  <course>212.63</course>
  <speed>20.45</speed>
  <fix>3d</fix>
</trkpt>
<trkpt lat="-27.2733889" lon="151.3348298">
  <ele>523.89</ele>
  <time>2026-09-01T20:01:30Z</time>
  <course>212.66</course>
  <speed>20.04846627550347</speed>
  <fix>3d</fix>
</trkpt>
<trkpt lat="-27.2733574" lon="151.3348524">
  <ele>524.12</ele>
  <time>2026-09-01T20:01:30Z</time>
  <course>212.63</course>
  <speed>20.45</speed>
  <fix>3d</fix>
</trkpt>
<trkpt lat="-27.273404" lon="151.3348188">
  <ele>523.75</ele>
  <time>2026-09-01T20:01:30Z</time>
  <course>212.59</course>
  <speed>19.871298397437446</speed>
  <fix>3d</fix>
</trkpt>
<trkpt lat="-27.2733881" lon="151.3348303">
  <ele>523.89</ele>
  <time>2026-09-01T20:01:30Z</time>
  <course>212.51</course>
  <speed>20.06</speed>
  <fix>3d</fix>
</trkpt>
<trkpt lat="-27.273419" lon="151.3348082">
  <ele>523.61</ele>
  <time>2026-09-01T20:01:30Z</time>
  <course>212.53</course>
  <speed>19.70259120014421</speed>
  <fix>3d</fix>
</trkpt>
<trkpt lat="-27.2733881" lon="151.3348303">
  <ele>523.89</ele>
  <time>2026-09-01T20:01:30Z</time>
  <course>212.51</course>
  <speed>20.06</speed>
  <fix>3d</fix>
</trkpt>
<trkpt lat="-27.2734338" lon="151.3347976">
  <ele>523.46</ele>
  <time>2026-09-01T20:01:30Z</time>
  <course>212.47</course>
  <speed>19.539257918355034</speed>
  <fix>3d</fix>
</trkpt>
<trkpt lat="-27.2734182" lon="151.3348087">
  <ele>523.61</ele>
  <time>2026-09-01T20:01:30Z</time>
  <course>212.4</course>
  <speed>19.71</speed>
  <fix>3d</fix>
</trkpt>
<trkpt lat="-27.2734487" lon="151.3347871">
  <ele>523.29</ele>
  <time>2026-09-01T20:01:30Z</time>
  <course>212.41</course>
  <speed>19.38973181867145</speed>
  <fix>3d</fix>
</trkpt>
<trkpt lat="-27.2734182" lon="151.3348087">
  <ele>523.61</ele>
  <time>2026-09-01T20:01:30Z</time>
  <course>212.4</course>
  <speed>19.71</speed>
  <fix>3d</fix>
</trkpt>
<trkpt lat="-27.2734634" lon="151.3347767">
  <ele>523.13</ele>
  <time>2026-09-01T20:01:30Z</time>
  <course>212.35</course>
  <speed>19.234877176628917</speed>
  <fix>3d</fix>
</trkpt>
<trkpt lat="-27.273448" lon="151.3347875">
  <ele>523.3</ele>
  <time>2026-09-01T20:01:30Z</time>
  <course>212.29</course>
  <speed>19.4</speed>
  <fix>3d</fix>
</trkpt>
<trkpt lat="-27.2734779" lon="151.3347662">
  <ele>522.96</ele>
  <time>2026-09-01T20:01:30Z</time>
  <course>212.3</course>
  <speed>19.093834083284584</speed>
  <fix>3d</fix>
</trkpt>
<trkpt lat="-27.273448" lon="151.3347875">
  <ele>523.3</ele>
  <time>2026-09-01T20:01:30Z</time>
  <course>212.29</course>
  <speed>19.4</speed>
  <fix>3d</fix>
</trkpt>
<trkpt lat="-27.2734924" lon="151.3347561">
  <ele>522.79</ele>
  <time>2026-09-01T20:01:30Z</time>
  <course>212.25</course>
  <speed>18.95812754467065</speed>
  <fix>3d</fix>
</trkpt>
<trkpt lat="-27.2734772" lon="151.3347668">
  <ele>522.96</ele>
  <time>2026-09-01T20:01:30Z</time>
  <course>212.19</course>
  <speed>19.11</speed>
  <fix>3d</fix>
</trkpt>
<trkpt lat="-27.2735068" lon="151.3347459">
  <ele>522.61</ele>
  <time>2026-09-01T20:01:30Z</time>
  <course>212.2</course>
  <speed>18.830894827384064</speed>
  <fix>3d</fix>
</trkpt>
<trkpt lat="-27.2734772" lon="151.3347668">
  <ele>522.96</ele>
  <time>2026-09-01T20:01:30Z</time>
  <course>212.19</course>
  <speed>19.11</speed>
  <fix>3d</fix>
</trkpt>
<trkpt lat="-27.2735211" lon="151.3347359">
  <ele>522.43</ele>
  <time>2026-09-01T20:01:30Z</time>
  <course>212.15</course>
  <speed>18.703673435985777</speed>
  <fix>3d</fix>
</trkpt>
<trkpt lat="-27.2735061" lon="151.3347464">
  <ele>522.61</ele>
  <time>2026-09-01T20:01:30Z</time>
  <course>212.11</course>
  <speed>18.84</speed>
  <fix>3d</fix>
</trkpt>
<trkpt lat="-27.2735352" lon="151.3347259">
  <ele>522.24</ele>
  <time>2026-09-01T20:01:30Z</time>
  <course>212.11</course>
  <speed>18.584942830151512</speed>
  <fix>3d</fix>
</trkpt>
<trkpt lat="-27.2735061" lon="151.3347464">
  <ele>522.61</ele>
  <time>2026-09-01T20:01:30Z</time>
  <course>212.11</course>
  <speed>18.84</speed>
  <fix>3d</fix>
</trkpt>
<trkpt lat="-27.2735494" lon="151.3347159">
  <ele>522.06</ele>
  <time>2026-09-01T20:01:30Z</time>
  <course>212.07</course>
  <speed>18.463044169367087</speed>
  <fix>3d</fix>
</trkpt>
<trkpt lat="-27.2735346" lon="151.3347263">
  <ele>522.25</ele>
  <time>2026-09-01T20:01:30Z</time>
  <course>212.02</course>
  <speed>18.59</speed>
  <fix>3d</fix>
</trkpt>
<trkpt lat="-27.2735634" lon="151.3347061">
  <ele>521.87</ele>
  <time>2026-09-01T20:01:30Z</time>
  <course>212.02</course>
  <speed>18.349632148901513</speed>
  <fix>3d</fix>
</trkpt>
<trkpt lat="-27.2735346" lon="151.3347263">
  <ele>522.25</ele>
  <time>2026-09-01T20:01:31Z</time>
  <course>212.02</course>
  <speed>18.59</speed>
  <fix>3d</fix>
</trkpt>
<trkpt lat="-27.2735773" lon="151.3346963">
  <ele>521.68</ele>
  <time>2026-09-01T20:01:31Z</time>
  <course>211.98</course>
  <speed>18.244717043571818</speed>
  <fix>3d</fix>
</trkpt>
<trkpt lat="-27.2735628" lon="151.3347065">
  <ele>521.88</ele>
  <time>2026-09-01T20:01:31Z</time>
  <course>211.94</course>
  <speed>18.36</speed>
  <fix>3d</fix>
</trkpt>
<trkpt lat="-27.2735912" lon="151.3346866">
  <ele>521.49</ele>
  <time>2026-09-01T20:01:31Z</time>
  <course>211.94</course>
  <speed>18.131323724427844</speed>
  <fix>3d</fix>
</trkpt>
<trkpt lat="-27.2735628" lon="151.3347065">
  <ele>521.88</ele>
  <time>2026-09-01T20:01:31Z</time>
  <course>211.94</course>
  <speed>18.36</speed>
  <fix>3d</fix>
</trkpt>
<trkpt lat="-27.273605" lon="151.334677">
  <ele>521.29</ele>
  <time>2026-09-01T20:01:31Z</time>
  <course>211.91</course>
  <speed>18.031708183086813</speed>
  <fix>3d</fix>
</trkpt>
<trkpt lat="-27.2735906" lon="151.334687">
  <ele>521.49</ele>
  <time>2026-09-01T20:01:31Z</time>
  <course>211.87</course>
  <speed>18.14</speed>
  <fix>3d</fix>
</trkpt>
<trkpt lat="-27.2736187" lon="151.3346674">
  <ele>521.1</ele>
  <time>2026-09-01T20:01:31Z</time>
  <course>211.87</course>
  <speed>17.93209692144229</speed>
  <fix>3d</fix>
</trkpt>
<trkpt lat="-27.2735906" lon="151.334687">
  <ele>521.49</ele>
  <time>2026-09-01T20:01:31Z</time>
  <course>211.87</course>
  <speed>18.14</speed>
  <fix>3d</fix>
</trkpt>
<trkpt lat="-27.2736324" lon="151.3346579">
  <ele>520.9</ele>
  <time>2026-09-01T20:01:31Z</time>
  <course>211.83</course>
  <speed>17.83249001121268</speed>
  <fix>3d</fix>
</trkpt>
<trkpt lat="-27.2736181" lon="151.3346678">
  <ele>521.1</ele>
  <time>2026-09-01T20:01:31Z</time>
  <course>211.8</course>
  <speed>17.94</speed>
  <fix>3d</fix>
</trkpt>
<trkpt lat="-27.273646" lon="151.3346484">
  <ele>520.71</ele>
  <time>2026-09-01T20:01:31Z</time>
  <course>211.8</course>
  <speed>17.74139227907438</speed>
  <fix>3d</fix>
</trkpt>
<trkpt lat="-27.2736181" lon="151.3346678">
  <ele>521.1</ele>
  <time>2026-09-01T20:01:31Z</time>
  <course>211.8</course>
  <speed>17.94</speed>
  <fix>3d</fix>
</trkpt>
<trkpt lat="-27.2718072" lon="151.3387143">
  <ele>540.62</ele>
  <time>2026-09-01T20:01:31Z</time>
  <course>250.44</course>
  <speed>11.96850032376655</speed>
  <fix>3d</fix>
</trkpt>
<trkpt lat="-27.2727194" lon="151.3366866">
  <ele>530.84</ele>
  <time>2026-09-01T20:01:31Z</time>
  <course>228.68</course>
  <speed>13.96</speed>
  <fix>3d</fix>
</trkpt>
<trkpt lat="-27.2718099" lon="151.3387029">
  <ele>536.77</ele>
  <time>2026-09-01T20:01:31Z</time>
  <course>249.2</course>
  <speed>11.732493341144497</speed>
  <fix>3d</fix>
</trkpt>
<trkpt lat="-27.2727194" lon="151.3366866">
  <ele>530.84</ele>
  <time>2026-09-01T20:01:31Z</time>
  <course>228.68</course>
  <speed>13.96</speed>
  <fix>3d</fix>
</trkpt>
<trkpt lat="-27.2718139" lon="151.3386913">
  <ele>532.94</ele>
  <time>2026-09-01T20:01:31Z</time>
  <course>235.67</course>
  <speed>13.192801067248759</speed>
  <fix>3d</fix>
</trkpt>
<trkpt lat="-27.2718104" lon="151.3387033">
  <ele>536.94</ele>
  <time>2026-09-01T20:01:31Z</time>
  <course>248.89</course>
  <speed>12.53</speed>
  <fix>3d</fix>
</trkpt>
<trkpt lat="-27.271821" lon="151.3386798">
  <ele>529.16</ele>
  <time>2026-09-01T20:01:31Z</time>
  <course>216.04</course>
  <speed>14.574172360720866</speed>
  <fix>3d</fix>
</trkpt>
<trkpt lat="-27.2718104" lon="151.3387033">
  <ele>536.94</ele>
  <time>2026-09-01T20:01:31Z</time>
  <course>248.89</course>
  <speed>12.53</speed>
  <fix>3d</fix>
</trkpt>
<trkpt lat="-27.2718311" lon="151.3386698">
  <ele>525.45</ele>
  <time>2026-09-01T20:01:31Z</time>
  <course>202.2</course>
  <speed>15.030851605947015</speed>
  <fix>3d</fix>
</trkpt>
<trkpt lat="-27.2718222" lon="151.338681">
  <ele>529.33</ele>
  <time>2026-09-01T20:01:31Z</time>
  <course>229.3</course>
  <speed>13.67</speed>
  <fix>3d</fix>
</trkpt>
<trkpt lat="-27.2718422" lon="151.3386608">
  <ele>521.73</ele>
  <time>2026-09-01T20:01:31Z</time>
  <course>207.44</course>
  <speed>16.042770957661897</speed>
  <fix>3d</fix>
</trkpt>
<trkpt lat="-27.2718222" lon="151.338681">
  <ele>529.33</ele>
  <time>2026-09-01T20:01:31Z</time>
  <course>229.3</course>
  <speed>13.67</speed>
  <fix>3d</fix>
</trkpt>
<trkpt lat="-27.2718533" lon="151.3386467">
  <ele>518.21</ele>
  <time>2026-09-01T20:01:31Z</time>
  <course>225.12</course>
  <speed>22.536541438295277</speed>
  <fix>3d</fix>
</trkpt>
<trkpt lat="-27.2718418" lon="151.3386587">
  <ele>521.94</ele>
  <time>2026-09-01T20:01:31Z</time>
  <course>227.68</course>
  <speed>18.41</speed>
  <fix>3d</fix>
</trkpt>
<trkpt lat="-27.2718655" lon="151.3386234">
  <ele>515.27</ele>
  <time>2026-09-01T20:01:31Z</time>
  <course>234.01</course>
  <speed>30.17037288466949</speed>
  <fix>3d</fix>
</trkpt>
<trkpt lat="-27.2718418" lon="151.3386587">
  <ele>521.94</ele>
  <time>2026-09-01T20:01:31Z</time>
  <course>227.68</course>
  <speed>18.41</speed>
  <fix>3d</fix>
</trkpt>
<trkpt lat="-27.2718793" lon="151.3385939">
  <ele>513.24</ele>
  <time>2026-09-01T20:01:31Z</time>
  <course>237.38</course>
  <speed>35.124569748254565</speed>
  <fix>3d</fix>
</trkpt>
<trkpt lat="-27.2718657" lon="151.3386212">
  <ele>515.81</ele>
  <time>2026-09-01T20:01:31Z</time>
  <course>239.67</course>
  <speed>28.57</speed>
  <fix>3d</fix>
</trkpt>
<trkpt lat="-27.2718948" lon="151.3385616">
  <ele>512.15</ele>
  <time>2026-09-01T20:01:31Z</time>
  <course>235.61</course>
  <speed>37.07895359904322</speed>
  <fix>3d</fix>
</trkpt>
<trkpt lat="-27.2718657" lon="151.3386212">
  <ele>515.81</ele>
  <time>2026-09-01T20:01:31Z</time>
  <course>239.67</course>
  <speed>28.57</speed>
  <fix>3d</fix>
</trkpt>
<trkpt lat="-27.2719124" lon="151.3385298">
  <ele>511.91</ele>
  <time>2026-09-01T20:01:31Z</time>
  <course>231.15</course>
  <speed>36.81622468423399</speed>
  <fix>3d</fix>
</trkpt>
<trkpt lat="-27.2718951" lon="151.3385631">
  <ele>512.61</ele>
  <time>2026-09-01T20:01:31Z</time>
  <course>239.24</course>
  <speed>35.87</speed>
  <fix>3d</fix>
</trkpt>
<trkpt lat="-27.2719318" lon="151.3385004">
  <ele>512.34</ele>
  <time>2026-09-01T20:01:31Z</time>
  <course>226.22</course>
  <speed>35.387558548167746</speed>
  <fix>3d</fix>
</trkpt>
<trkpt lat="-27.2718951" lon="151.3385631">
  <ele>512.61</ele>
  <time>2026-09-01T20:01:31Z</time>
  <course>239.24</course>
  <speed>35.87</speed>
  <fix>3d</fix>
</trkpt>
<trkpt lat="-27.2719526" lon="151.3384747">
  <ele>513.23</ele>
  <time>2026-09-01T20:01:31Z</time>
  <course>221.94</course>
  <speed>33.62293413728195</speed>
  <fix>3d</fix>
</trkpt>
<trkpt lat="-27.2719316" lon="151.3385033">
  <ele>512.54</ele>
  <time>2026-09-01T20:01:31Z</time>
  <course>230.94</course>
  <speed>35.12</speed>
  <fix>3d</fix>
</trkpt>
<trkpt lat="-27.2719743" lon="151.3384523">
  <ele>514.41</ele>
  <time>2026-09-01T20:01:31Z</time>
  <course>218.95</course>
  <speed>32.03231649444042</speed>
  <fix>3d</fix>
</trkpt>
<trkpt lat="-27.2719316" lon="151.3385033">
  <ele>512.54</ele>
  <time>2026-09-01T20:01:31Z</time>
  <course>230.94</course>
  <speed>35.12</speed>
  <fix>3d</fix>
</trkpt>
<trkpt lat="-27.2719963" lon="151.3384326">
  <ele>515.74</ele>
  <time>2026-09-01T20:01:31Z</time>
  <course>217.27</course>
  <speed>30.766023467455135</speed>
  <fix>3d</fix>
</trkpt>
<trkpt lat="-27.2719735" lon="151.3384545">
  <ele>514.43</ele>
  <time>2026-09-01T20:01:31Z</time>
  <course>221.33</course>
  <speed>32.17</speed>
  <fix>3d</fix>
</trkpt>
<trkpt lat="-27.2720184" lon="151.3384146">
  <ele>517.14</ele>
  <time>2026-09-01T20:01:31Z</time>
  <course>216.68</course>
  <speed>29.83812996821349</speed>
  <fix>3d</fix>
</trkpt>
<trkpt lat="-27.2719735" lon="151.3384545">
  <ele>514.43</ele>
  <time>2026-09-01T20:01:31Z</time>
  <course>221.33</course>
  <speed>32.17</speed>
  <fix>3d</fix>
</trkpt>
<trkpt lat="-27.2720402" lon="151.3383979">
  <ele>518.53</ele>
  <time>2026-09-01T20:01:31Z</time>
  <course>216.72</course>
  <speed>29.194014797557394</speed>
  <fix>3d</fix>
</trkpt>
<trkpt lat="-27.2720173" lon="151.3384159">
  <ele>517.07</ele>
  <time>2026-09-01T20:01:31Z</time>
  <course>215.51</course>
  <speed>30.01</speed>
  <fix>3d</fix>
</trkpt>
<trkpt lat="-27.2720619" lon="151.3383816">
  <ele>519.87</ele>
  <time>2026-09-01T20:01:31Z</time>
  <course>216.97</course>
  <speed>28.788978793976003</speed>
  <fix>3d</fix>
</trkpt>
<trkpt lat="-27.2720173" lon="151.3384159">
  <ele>517.07</ele>
  <time>2026-09-01T20:01:31Z</time>
  <course>215.51</course>
  <speed>30.01</speed>
  <fix>3d</fix>
</trkpt>
<trkpt lat="-27.2720833" lon="151.3383656">
  <ele>521.13</ele>
  <time>2026-09-01T20:01:31Z</time>
  <course>217.1</course>
  <speed>28.54764613764154</speed>
  <fix>3d</fix>
</trkpt>
<trkpt lat="-27.2720608" lon="151.3383824">
  <ele>519.77</ele>
  <time>2026-09-01T20:01:31Z</time>
  <course>213.8</course>
  <speed>28.89</speed>
  <fix>3d</fix>
</trkpt>
<trkpt lat="-27.2721046" lon="151.3383495">
  <ele>522.28</ele>
  <time>2026-09-01T20:01:31Z</time>
  <course>216.98</course>
  <speed>28.42599162738215</speed>
  <fix>3d</fix>
</trkpt>
<trkpt lat="-27.2720608" lon="151.3383824">
  <ele>519.77</ele>
  <time>2026-09-01T20:01:31Z</time>
  <course>213.8</course>
  <speed>28.89</speed>
  <fix>3d</fix>
</trkpt>
<trkpt lat="-27.2721257" lon="151.3383335">
  <ele>523.32</ele>
  <time>2026-09-01T20:01:31Z</time>
  <course>216.61</course>
  <speed>28.357630366446347</speed>
  <fix>3d</fix>
</trkpt>
<trkpt lat="-27.2721036" lon="151.3383501">
  <ele>522.18</ele>
  <time>2026-09-01T20:01:31Z</time>
  <course>213.96</course>
  <speed>28.46</speed>
  <fix>3d</fix>
</trkpt>
<trkpt lat="-27.2721467" lon="151.3383173">
  <ele>524.23</ele>
  <time>2026-09-01T20:01:31Z</time>
  <course>216.05</course>
  <speed>28.317183828905023</speed>
  <fix>3d</fix>
</trkpt>
<trkpt lat="-27.2721036" lon="151.3383501">
  <ele>522.18</ele>
  <time>2026-09-01T20:01:31Z</time>
  <course>213.96</course>
  <speed>28.46</speed>
  <fix>3d</fix>
</trkpt>
<trkpt lat="-27.2721676" lon="151.3383011">
  <ele>525.01</ele>
  <time>2026-09-01T20:01:31Z</time>
  <course>215.43</course>
  <speed>28.256924814990043</speed>
  <fix>3d</fix>
</trkpt>
<trkpt lat="-27.2721457" lon="151.3383179">
  <ele>524.13</ele>
  <time>2026-09-01T20:01:31Z</time>
  <course>214.39</course>
  <speed>28.31</speed>
  <fix>3d</fix>
</trkpt>
<trkpt lat="-27.2721885" lon="151.3382849">
  <ele>525.66</ele>
  <time>2026-09-01T20:01:31Z</time>
  <course>214.81</course>
  <speed>28.179712560634822</speed>
  <fix>3d</fix>
</trkpt>
<trkpt lat="-27.2721457" lon="151.3383179">
  <ele>524.13</ele>
  <time>2026-09-01T20:01:31Z</time>
  <course>214.39</course>
  <speed>28.31</speed>
  <fix>3d</fix>
</trkpt>
<trkpt lat="-27.2722093" lon="151.3382687">
  <ele>526.21</ele>
  <time>2026-09-01T20:01:31Z</time>
  <course>214.29</course>
  <speed>28.07724345444189</speed>
  <fix>3d</fix>
</trkpt>
<trkpt lat="-27.2721876" lon="151.3382856">
  <ele>525.58</ele>
  <time>2026-09-01T20:01:31Z</time>
  <course>214.6</course>
  <speed>28.17</speed>
  <fix>3d</fix>
</trkpt>
<trkpt lat="-27.27223" lon="151.3382527">
  <ele>526.65</ele>
  <time>2026-09-01T20:01:31Z</time>
  <course>213.88</course>
  <speed>27.964021527670155</speed>
  <fix>3d</fix>
</trkpt>
<trkpt lat="-27.2721876" lon="151.3382856">
  <ele>525.58</ele>
  <time>2026-09-01T20:01:31Z</time>
  <course>214.6</course>
  <speed>28.17</speed>
  <fix>3d</fix>
</trkpt>
<trkpt lat="-27.2722506" lon="151.3382365">
  <ele>526.99</ele>
  <time>2026-09-01T20:01:31Z</time>
  <course>213.54</course>
  <speed>27.840109554382142</speed>
  <fix>3d</fix>
</trkpt>
<trkpt lat="-27.2722291" lon="151.3382532">
  <ele>526.58</ele>
  <time>2026-09-01T20:01:31Z</time>
  <course>214.72</course>
  <speed>27.97</speed>
  <fix>3d</fix>
</trkpt>
<trkpt lat="-27.272271" lon="151.3382205">
  <ele>527.26</ele>
  <time>2026-09-01T20:01:31Z</time>
  <course>213.37</course>
  <speed>27.719538235692166</speed>
  <fix>3d</fix>
</trkpt>
<trkpt lat="-27.2722291" lon="151.3382532">
  <ele>526.58</ele>
  <time>2026-09-01T20:01:31Z</time>
  <course>214.72</course>
  <speed>27.97</speed>
  <fix>3d</fix>
</trkpt>
<trkpt lat="-27.2722914" lon="151.3382045">
  <ele>527.46</ele>
  <time>2026-09-01T20:01:31Z</time>
  <course>213.34</course>
  <speed>27.60006521731425</speed>
  <fix>3d</fix>
</trkpt>
<trkpt lat="-27.2722703" lon="151.338221">
  <ele>527.21</ele>
  <time>2026-09-01T20:01:31Z</time>
  <course>214.99</course>
  <speed>27.73</speed>
  <fix>3d</fix>
</trkpt>
<trkpt lat="-27.2723116" lon="151.3381884">
  <ele>527.59</ele>
  <time>2026-09-01T20:01:31Z</time>
  <course>213.49</course>
  <speed>27.487924621549734</speed>
  <fix>3d</fix>
</trkpt>
<trkpt lat="-27.2722703" lon="151.338221">
  <ele>527.21</ele>
  <time>2026-09-01T20:01:31Z</time>
  <course>214.99</course>
  <speed>27.73</speed>
  <fix>3d</fix>
</trkpt>
<trkpt lat="-27.2723316" lon="151.3381722">
  <ele>527.66</ele>
  <time>2026-09-01T20:01:31Z</time>
  <course>213.79</course>
  <speed>27.37800029220542</speed>
  <fix>3d</fix>
</trkpt>
<trkpt lat="-27.2723108" lon="151.3381888">
  <ele>527.56</ele>
  <time>2026-09-01T20:01:31Z</time>
  <course>215.53</course>
  <speed>27.5</speed>
  <fix>3d</fix>
</trkpt>
<trkpt lat="-27.2723514" lon="151.3381559">
  <ele>527.7</ele>
  <time>2026-09-01T20:01:31Z</time>
  <course>214.18</course>
  <speed>27.290969202283744</speed>
  <fix>3d</fix>
</trkpt>
<trkpt lat="-27.2723108" lon="151.3381888">
  <ele>527.56</ele>
  <time>2026-09-01T20:01:31Z</time>
  <course>215.53</course>
  <speed>27.5</speed>
  <fix>3d</fix>
</trkpt>
<trkpt lat="-27.272371" lon="151.3381394">
  <ele>527.7</ele>
  <time>2026-09-01T20:01:31Z</time>
  <course>214.65</course>
  <speed>27.20803557774798</speed>
  <fix>3d</fix>
</trkpt>
<trkpt lat="-27.2723506" lon="151.3381563">
  <ele>527.68</ele>
  <time>2026-09-01T20:01:31Z</time>
  <course>216.4</course>
  <speed>27.3</speed>
  <fix>3d</fix>
</trkpt>
<trkpt lat="-27.2723904" lon="151.3381227">
  <ele>527.66</ele>
  <time>2026-09-01T20:01:31Z</time>
  <course>215.24</course>
  <speed>27.132130399214876</speed>
  <fix>3d</fix>
</trkpt>
<trkpt lat="-27.2723506" lon="151.3381563">
  <ele>527.68</ele>
  <time>2026-09-01T20:01:31Z</time>
  <course>216.4</course>
  <speed>27.3</speed>
  <fix>3d</fix>
</trkpt>
<trkpt lat="-27.2724096" lon="151.3381059">
  <ele>527.59</ele>
  <time>2026-09-01T20:01:31Z</time>
  <course>215.91</course>
  <speed>27.070193940938065</speed>
  <fix>3d</fix>
</trkpt>
<trkpt lat="-27.2723897" lon="151.3381233">
  <ele>527.64</ele>
  <time>2026-09-01T20:01:31Z</time>
  <course>217.59</course>
  <speed>27.14</speed>
  <fix>3d</fix>
</trkpt>
<trkpt lat="-27.2724288" lon="151.3380887">
  <ele>527.49</ele>
  <time>2026-09-01T20:01:31Z</time>
  <course>216.63</course>
  <speed>27.015565883393965</speed>
  <fix>3d</fix>
</trkpt>
<trkpt lat="-27.2723897" lon="151.3381233">
  <ele>527.64</ele>
  <time>2026-09-01T20:01:31Z</time>
  <course>217.59</course>
  <speed>27.14</speed>
  <fix>3d</fix>
</trkpt>
<trkpt lat="-27.2724475" lon="151.3380714">
  <ele>527.37</ele>
  <time>2026-09-01T20:01:31Z</time>
  <course>217.41</course>
  <speed>26.9722542624824</speed>
  <fix>3d</fix>
</trkpt>
<trkpt lat="-27.2724278" lon="151.3380894">
  <ele>527.48</ele>
  <time>2026-09-01T20:01:31Z</time>
  <course>219.03</course>
  <speed>27.02</speed>
  <fix>3d</fix>
</trkpt>
<trkpt lat="-27.272466" lon="151.3380539">
  <ele>527.24</ele>
  <time>2026-09-01T20:01:31Z</time>
  <course>218.22</course>
  <speed>26.925432215658116</speed>
  <fix>3d</fix>
</trkpt>
<trkpt lat="-27.2724278" lon="151.3380894">
  <ele>527.48</ele>
  <time>2026-09-01T20:01:31Z</time>
  <course>219.03</course>
  <speed>27.02</speed>
  <fix>3d</fix>
</trkpt>
<trkpt lat="-27.2724842" lon="151.338036">
  <ele>527.09</ele>
  <time>2026-09-01T20:01:31Z</time>
  <course>219.09</course>
  <speed>26.89014689435519</speed>
  <fix>3d</fix>
</trkpt>
<trkpt lat="-27.272465" lon="151.3380544">
  <ele>527.23</ele>
  <time>2026-09-01T20:01:31Z</time>
  <course>220.66</course>
  <speed>26.93</speed>
  <fix>3d</fix>
</trkpt>
<trkpt lat="-27.2725021" lon="151.3380178">
  <ele>526.91</ele>
  <time>2026-09-01T20:01:31Z</time>
  <course>219.91</course>
  <speed>26.85454896288523</speed>
  <fix>3d</fix>
</trkpt>
<trkpt lat="-27.272465" lon="151.3380544">
  <ele>527.23</ele>
  <time>2026-09-01T20:01:31Z</time>
  <course>220.66</course>
  <speed>26.93</speed>
  <fix>3d</fix>
</trkpt>
<trkpt lat="-27.2725198" lon="151.3379994">
  <ele>526.75</ele>
  <time>2026-09-01T20:01:31Z</time>
  <course>220.68</course>
  <speed>26.832459820150667</speed>
  <fix>3d</fix>
</trkpt>
<trkpt lat="-27.2725012" lon="151.3380184">
  <ele>526.92</ele>
  <time>2026-09-01T20:01:31Z</time>
  <course>222.38</course>
  <speed>26.86</speed>
  <fix>3d</fix>
</trkpt>
<trkpt lat="-27.2725372" lon="151.3379805">
  <ele>526.56</ele>
  <time>2026-09-01T20:01:31Z</time>
  <course>221.37</course>
  <speed>26.809664302262345</speed>
  <fix>3d</fix>
</trkpt>
<trkpt lat="-27.2725012" lon="151.3380184">
  <ele>526.92</ele>
  <time>2026-09-01T20:01:31Z</time>
  <course>222.38</course>
  <speed>26.86</speed>
  <fix>3d</fix>
</trkpt>
<trkpt lat="-27.2725544" lon="151.3379617">
  <ele>526.37</ele>
  <time>2026-09-01T20:01:31Z</time>
  <course>221.96</course>
  <speed>26.785339273565306</speed>
  <fix>3d</fix>
</trkpt>
<trkpt lat="-27.2725363" lon="151.3379813">
  <ele>526.56</ele>
  <time>2026-09-01T20:01:31Z</time>
  <course>224.02</course>
  <speed>26.81</speed>
  <fix>3d</fix>
</trkpt>
<trkpt lat="-27.2725713" lon="151.3379425">
  <ele>526.16</ele>
  <time>2026-09-01T20:01:31Z</time>
  <course>222.5</course>
  <speed>26.76477722679567</speed>
  <fix>3d</fix>
</trkpt>
<trkpt lat="-27.2725363" lon="151.3379813">
  <ele>526.56</ele>
  <time>2026-09-01T20:01:31Z</time>
  <course>224.02</course>
  <speed>26.81</speed>
  <fix>3d</fix>
</trkpt>
<trkpt lat="-27.2725881" lon="151.337923">
  <ele>525.97</ele>
  <time>2026-09-01T20:01:31Z</time>
  <course>223.03</course>
  <speed>26.739418467872483</speed>
  <fix>3d</fix>
</trkpt>
<trkpt lat="-27.2725705" lon="151.3379431">
  <ele>526.18</ele>
  <time>2026-09-01T20:01:31Z</time>
  <course>225.37</course>
  <speed>26.77</speed>
  <fix>3d</fix>
</trkpt>
<trkpt lat="-27.2726047" lon="151.3379036">
  <ele>525.76</ele>
  <time>2026-09-01T20:01:31Z</time>
  <course>223.56</course>
  <speed>26.715517962412783</speed>
  <fix>3d</fix>
</trkpt>
<trkpt lat="-27.2725705" lon="151.3379431">
  <ele>526.18</ele>
  <time>2026-09-01T20:01:31Z</time>
  <course>225.37</course>
  <speed>26.77</speed>
  <fix>3d</fix>
</trkpt>
<trkpt lat="-27.2726212" lon="151.337884">
  <ele>525.54</ele>
  <time>2026-09-01T20:01:31Z</time>
  <course>224.11</course>
  <speed>26.698812707684215</speed>
  <fix>3d</fix>
</trkpt>
<trkpt lat="-27.272604" lon="151.3379043">
  <ele>525.77</ele>
  <time>2026-09-01T20:01:31Z</time>
  <course>226.34</course>
  <speed>26.72</speed>
  <fix>3d</fix>
</trkpt>
<trkpt lat="-27.2726376" lon="151.3378643">
  <ele>525.34</ele>
  <time>2026-09-01T20:01:31Z</time>
  <course>224.64</course>
  <speed>26.674759605289793</speed>
  <fix>3d</fix>
</trkpt>
<trkpt lat="-27.272604" lon="151.3379043">
  <ele>525.77</ele>
  <time>2026-09-01T20:01:31Z</time>
  <course>226.34</course>
  <speed>26.72</speed>
  <fix>3d</fix>
</trkpt>
<trkpt lat="-27.2726539" lon="151.3378445">
  <ele>525.12</ele>
  <time>2026-09-01T20:01:31Z</time>
  <course>225.08</course>
  <speed>26.658103833543752</speed>
  <fix>3d</fix>
</trkpt>
<trkpt lat="-27.2726369" lon="151.3378649">
  <ele>525.34</ele>
  <time>2026-09-01T20:01:31Z</time>
  <course>227.01</course>
  <speed>26.68</speed>
  <fix>3d</fix>
</trkpt>
<trkpt lat="-27.2726701" lon="151.3378248">
  <ele>524.9</ele>
  <time>2026-09-01T20:01:31Z</time>
  <course>225.51</course>
  <speed>26.647508326295725</speed>
  <fix>3d</fix>
</trkpt>
<trkpt lat="-27.2726369" lon="151.3378649">
  <ele>525.34</ele>
  <time>2026-09-01T20:01:31Z</time>
  <course>227.01</course>
  <speed>26.68</speed>
  <fix>3d</fix>
</trkpt>
<trkpt lat="-27.2726862" lon="151.3378048">
  <ele>524.66</ele>
  <time>2026-09-01T20:01:31Z</time>
  <course>225.86</course>
  <speed>26.62914568663441</speed>
  <fix>3d</fix>
</trkpt>
<trkpt lat="-27.2726695" lon="151.3378253">
  <ele>524.9</ele>
  <time>2026-09-01T20:01:31Z</time>
  <course>227.45</course>
  <speed>26.65</speed>
  <fix>3d</fix>
</trkpt>
<trkpt lat="-27.2727023" lon="151.337785">
  <ele>524.45</ele>
  <time>2026-09-01T20:01:31Z</time>
  <course>226.19</course>
  <speed>26.625065258135987</speed>
  <fix>3d</fix>
</trkpt>
<trkpt lat="-27.2726695" lon="151.3378253">
  <ele>524.9</ele>
  <time>2026-09-01T20:01:31Z</time>
  <course>227.45</course>
  <speed>26.65</speed>
  <fix>3d</fix>
</trkpt>
<trkpt lat="-27.2727184" lon="151.337765">
  <ele>524.23</ele>
  <time>2026-09-01T20:01:31Z</time>
  <course>226.45</course>
  <speed>26.61301373388591</speed>
  <fix>3d</fix>
</trkpt>
<trkpt lat="-27.2727017" lon="151.3377856">
  <ele>524.45</ele>
  <time>2026-09-01T20:01:31Z</time>
  <course>227.73</course>
  <speed>26.62</speed>
  <fix>3d</fix>
</trkpt>
<trkpt lat="-27.2727344" lon="151.3377451">
  <ele>524.02</ele>
  <time>2026-09-01T20:01:31Z</time>
  <course>226.69</course>
  <speed>26.607731958962603</speed>
  <fix>3d</fix>
</trkpt>
<trkpt lat="-27.2727017" lon="151.3377856">
  <ele>524.45</ele>
  <time>2026-09-01T20:01:31Z</time>
  <course>227.73</course>
  <speed>26.62</speed>
  <fix>3d</fix>
</trkpt>
<trkpt lat="-27.2727504" lon="151.3377252">
  <ele>523.83</ele>
  <time>2026-09-01T20:01:31Z</time>
  <course>226.89</course>
  <speed>26.60176121988918</speed>
  <fix>3d</fix>
</trkpt>
<trkpt lat="-27.2727338" lon="151.3377457">
  <ele>524.04</ele>
  <time>2026-09-01T20:01:31Z</time>
  <course>227.9</course>
  <speed>26.61</speed>
  <fix>3d</fix>
</trkpt>
<trkpt lat="-27.2727664" lon="151.3377051">
  <ele>523.66</ele>
  <time>2026-09-01T20:01:31Z</time>
  <course>227.07</course>
  <speed>26.595067211797005</speed>
  <fix>3d</fix>
</trkpt>
<trkpt lat="-27.2727338" lon="151.3377457">
  <ele>524.04</ele>
  <time>2026-09-01T20:01:31Z</time>
  <course>227.9</course>
  <speed>26.61</speed>
  <fix>3d</fix>
</trkpt>
<trkpt lat="-27.2727824" lon="151.3376851">
  <ele>523.52</ele>
  <time>2026-09-01T20:01:31Z</time>
  <course>227.21</course>
  <speed>26.566821413183774</speed>
  <fix>3d</fix>
</trkpt>
<trkpt lat="-27.2727658" lon="151.3377058">
  <ele>523.68</ele>
  <time>2026-09-01T20:01:31Z</time>
  <course>227.97</course>
  <speed>26.59</speed>
  <fix>3d</fix>
</trkpt>
<trkpt lat="-27.2727983" lon="151.3376653">
  <ele>523.41</ele>
  <time>2026-09-01T20:01:31Z</time>
  <course>227.25</course>
  <speed>26.54453804457708</speed>
  <fix>3d</fix>
</trkpt>
<trkpt lat="-27.2727658" lon="151.3377058">
  <ele>523.68</ele>
  <time>2026-09-01T20:01:31Z</time>
  <course>227.97</course>
  <speed>26.59</speed>
  <fix>3d</fix>
</trkpt>
<trkpt lat="-27.2728143" lon="151.3376453">
  <ele>523.34</ele>
  <time>2026-09-01T20:01:31Z</time>
  <course>227.24</course>
  <speed>26.49330858915134</speed>
  <fix>3d</fix>
</trkpt>
<trkpt lat="-27.2727978" lon="151.337666">
  <ele>523.43</ele>
  <time>2026-09-01T20:01:31Z</time>
  <course>227.93</course>
  <speed>26.53</speed>
  <fix>3d</fix>
</trkpt>
<trkpt lat="-27.2728303" lon="151.3376256">
  <ele>523.31</ele>
  <time>2026-09-01T20:01:31Z</time>
  <course>227.21</course>
  <speed>26.420586670246365</speed>
  <fix>3d</fix>
</trkpt>
<trkpt lat="-27.2727978" lon="151.337666">
  <ele>523.43</ele>
  <time>2026-09-01T20:01:31Z</time>
  <course>227.93</course>
  <speed>26.53</speed>
  <fix>3d</fix>
</trkpt>
<trkpt lat="-27.2728462" lon="151.3376059">
  <ele>523.32</ele>
  <time>2026-09-01T20:01:31Z</time>
  <course>227.11</course>
  <speed>26.33247424759018</speed>
  <fix>3d</fix>
</trkpt>
<trkpt lat="-27.2728297" lon="151.3376263">
  <ele>523.33</ele>
  <time>2026-09-01T20:01:31Z</time>
  <course>227.76</course>
  <speed>26.41</speed>
  <fix>3d</fix>
</trkpt>
<trkpt lat="-27.2728621" lon="151.3375863">
  <ele>523.36</ele>
  <time>2026-09-01T20:01:31Z</time>
  <course>227.06</course>
  <speed>26.179428947171477</speed>
  <fix>3d</fix>
</trkpt>
<trkpt lat="-27.2728297" lon="151.3376263">
  <ele>523.33</ele>
  <time>2026-09-01T20:01:31Z</time>
  <course>227.76</course>
  <speed>26.41</speed>
  <fix>3d</fix>
</trkpt>
<trkpt lat="-27.272878" lon="151.3375668">
  <ele>523.43</ele>
  <time>2026-09-01T20:01:31Z</time>
  <course>226.98</course>
  <speed>25.96863107674334</speed>
  <fix>3d</fix>
</trkpt>
<trkpt lat="-27.2728616" lon="151.337587">
  <ele>523.37</ele>
  <time>2026-09-01T20:01:31Z</time>
  <course>227.39</course>
  <speed>26.16</speed>
  <fix>3d</fix>
</trkpt>
<trkpt lat="-27.272894" lon="151.3375476">
  <ele>523.53</ele>
  <time>2026-09-01T20:01:31Z</time>
  <course>226.85</course>
  <speed>25.679758565843255</speed>
  <fix>3d</fix>
</trkpt>
<trkpt lat="-27.2728616" lon="151.337587">
  <ele>523.37</ele>
  <time>2026-09-01T20:01:31Z</time>
  <course>227.39</course>
  <speed>26.16</speed>
  <fix>3d</fix>
</trkpt>
<trkpt lat="-27.2729098" lon="151.337529">
  <ele>523.66</ele>
  <time>2026-09-01T20:01:31Z</time>
  <course>226.73</course>
  <speed>25.335200808361478</speed>
  <fix>3d</fix>
</trkpt>
<trkpt lat="-27.2728933" lon="151.3375487">
  <ele>523.54</ele>
  <time>2026-09-01T20:01:31Z</time>
  <course>226.73</course>
  <speed>25.66</speed>
  <fix>3d</fix>
</trkpt>
<trkpt lat="-27.2729254" lon="151.3375107">
  <ele>523.82</ele>
  <time>2026-09-01T20:01:31Z</time>
  <course>226.59</course>
  <speed>24.928772532958778</speed>
  <fix>3d</fix>
</trkpt>
<trkpt lat="-27.2728933" lon="151.3375487">
  <ele>523.54</ele>
  <time>2026-09-01T20:01:31Z</time>
  <course>226.73</course>
  <speed>25.66</speed>
  <fix>3d</fix>
</trkpt>
<trkpt lat="-27.2729409" lon="151.3374928">
  <ele>523.99</ele>
  <time>2026-09-01T20:01:31Z</time>
  <course>226.4</course>
  <speed>24.495501627849958</speed>
  <fix>3d</fix>
</trkpt>
<trkpt lat="-27.2729247" lon="151.3375116">
  <ele>523.81</ele>
  <time>2026-09-01T20:01:31Z</time>
  <course>225.97</course>
  <speed>24.93</speed>
  <fix>3d</fix>
</trkpt>
<trkpt lat="-27.2729562" lon="151.3374753">
  <ele>524.16</ele>
  <time>2026-09-01T20:01:31Z</time>
  <course>226.17</course>
  <speed>24.091502651349916</speed>
  <fix>3d</fix>
</trkpt>
<trkpt lat="-27.2729247" lon="151.3375116">
  <ele>523.81</ele>
  <time>2026-09-01T20:01:31Z</time>
  <course>225.97</course>
  <speed>24.93</speed>
  <fix>3d</fix>
</trkpt>
<trkpt lat="-27.2729713" lon="151.3374581">
  <ele>524.33</ele>
  <time>2026-09-01T20:01:31Z</time>
  <course>225.92</course>
  <speed>23.688115163516073</speed>
  <fix>3d</fix>
</trkpt>
<trkpt lat="-27.2729556" lon="151.337476">
  <ele>524.15</ele>
  <time>2026-09-01T20:01:31Z</time>
  <course>225.35</course>
  <speed>24.11</speed>
  <fix>3d</fix>
</trkpt>
<trkpt lat="-27.2729862" lon="151.3374414">
  <ele>524.5</ele>
  <time>2026-09-01T20:01:31Z</time>
  <course>225.67</course>
  <speed>23.313337384424393</speed>
  <fix>3d</fix>
</trkpt>
<trkpt lat="-27.2729556" lon="151.337476">
  <ele>524.15</ele>
  <time>2026-09-01T20:01:31Z</time>
  <course>225.35</course>
  <speed>24.11</speed>
  <fix>3d</fix>
</trkpt>
<trkpt lat="-27.273001" lon="151.3374249">
  <ele>524.64</ele>
  <time>2026-09-01T20:01:31Z</time>
  <course>225.46</course>
  <speed>22.959941202015308</speed>
  <fix>3d</fix>
</trkpt>
<trkpt lat="-27.2729856" lon="151.337442">
  <ele>524.48</ele>
  <time>2026-09-01T20:01:31Z</time>
  <course>224.94</course>
  <speed>23.34</speed>
  <fix>3d</fix>
</trkpt>
<trkpt lat="-27.2730155" lon="151.3374087">
  <ele>524.76</ele>
  <time>2026-09-01T20:01:31Z</time>
  <course>225.27</course>
  <speed>22.62785893539201</speed>
  <fix>3d</fix>
</trkpt>
<trkpt lat="-27.2729856" lon="151.337442">
  <ele>524.48</ele>
  <time>2026-09-01T20:01:31Z</time>
  <course>224.94</course>
  <speed>23.34</speed>
  <fix>3d</fix>
</trkpt>
<trkpt lat="-27.2730299" lon="151.3373928">
  <ele>524.85</ele>
  <time>2026-09-01T20:01:31Z</time>
  <course>225.12</course>
  <speed>22.30991931854528</speed>
  <fix>3d</fix>
</trkpt>
<trkpt lat="-27.2730149" lon="151.3374093">
  <ele>524.74</ele>
  <time>2026-09-01T20:01:31Z</time>
  <course>224.66</course>
  <speed>22.65</speed>
  <fix>3d</fix>
</trkpt>
<trkpt lat="-27.2730441" lon="151.3373771">
  <ele>524.9</ele>
  <time>2026-09-01T20:01:31Z</time>
  <course>224.98</course>
  <speed>22.01318922827858</speed>
  <fix>3d</fix>
</trkpt>
<trkpt lat="-27.2730149" lon="151.3374093">
  <ele>524.74</ele>
  <time>2026-09-01T20:01:31Z</time>
  <course>224.66</course>
  <speed>22.65</speed>
  <fix>3d</fix>
</trkpt>
<trkpt lat="-27.2730581" lon="151.3373615">
  <ele>524.93</ele>
  <time>2026-09-01T20:01:31Z</time>
  <course>224.85</course>
  <speed>21.7376401663106</speed>
  <fix>3d</fix>
</trkpt>
<trkpt lat="-27.2730435" lon="151.3373777">
  <ele>524.88</ele>
  <time>2026-09-01T20:01:31Z</time>
  <course>224.47</course>
  <speed>22.04</speed>
  <fix>3d</fix>
</trkpt>
<trkpt lat="-27.273072" lon="151.3373463">
  <ele>524.91</ele>
  <time>2026-09-01T20:01:31Z</time>
  <course>224.72</course>
  <speed>21.469271063545683</speed>
  <fix>3d</fix>
</trkpt>
<trkpt lat="-27.2730435" lon="151.3373777">
  <ele>524.88</ele>
  <time>2026-09-01T20:01:31Z</time>
  <course>224.47</course>
  <speed>22.04</speed>
  <fix>3d</fix>
</trkpt>
<trkpt lat="-27.2730857" lon="151.3373312">
  <ele>524.89</ele>
  <time>2026-09-01T20:01:31Z</time>
  <course>224.6</course>
  <speed>21.222066346140753</speed>
  <fix>3d</fix>
</trkpt>
<trkpt lat="-27.2730715" lon="151.3373469">
  <ele>524.91</ele>
  <time>2026-09-01T20:01:31Z</time>
  <course>224.33</course>
  <speed>21.49</speed>
  <fix>3d</fix>
</trkpt>
<trkpt lat="-27.2730993" lon="151.3373164">
  <ele>524.83</ele>
  <time>2026-09-01T20:01:31Z</time>
  <course>224.48</course>
  <speed>20.981861213915224</speed>
  <fix>3d</fix>
</trkpt>
<trkpt lat="-27.2730715" lon="151.3373469">
  <ele>524.91</ele>
  <time>2026-09-01T20:01:31Z</time>
  <course>224.33</course>
  <speed>21.49</speed>
  <fix>3d</fix>
</trkpt>
<trkpt lat="-27.2731127" lon="151.3373016">
  <ele>524.76</ele>
  <time>2026-09-01T20:01:31Z</time>
  <course>224.38</course>
  <speed>20.762986297736653</speed>
  <fix>3d</fix>
</trkpt>
<trkpt lat="-27.2730988" lon="151.3373169">
  <ele>524.82</ele>
  <time>2026-09-01T20:01:31Z</time>
  <course>224.21</course>
  <speed>21.0</speed>
  <fix>3d</fix>
</trkpt>
<trkpt lat="-27.2731261" lon="151.3372871">
  <ele>524.66</ele>
  <time>2026-09-01T20:01:31Z</time>
  <course>224.28</course>
  <speed>20.551097294305237</speed>
  <fix>3d</fix>
</trkpt>
<trkpt lat="-27.2730988" lon="151.3373169">
  <ele>524.82</ele>
  <time>2026-09-01T20:01:31Z</time>
  <course>224.21</course>
  <speed>21.0</speed>
  <fix>3d</fix>
</trkpt>
<trkpt lat="-27.2731393" lon="151.3372728">
  <ele>524.54</ele>
  <time>2026-09-01T20:01:31Z</time>
  <course>224.2</course>
  <speed>20.3533633584231</speed>
  <fix>3d</fix>
</trkpt>
<trkpt lat="-27.2731255" lon="151.3372877">
  <ele>524.65</ele>
  <time>2026-09-01T20:01:31Z</time>
  <course>224.09</course>
  <speed>20.56</speed>
  <fix>3d</fix>
</trkpt>
<trkpt lat="-27.2731523" lon="151.3372585">
  <ele>524.43</ele>
  <time>2026-09-01T20:01:31Z</time>
  <course>224.13</course>
  <speed>20.155644370746373</speed>
  <fix>3d</fix>
</trkpt>
<trkpt lat="-27.2731255" lon="151.3372877">
  <ele>524.65</ele>
  <time>2026-09-01T20:01:31Z</time>
  <course>224.09</course>
  <speed>20.56</speed>
  <fix>3d</fix>
</trkpt>
<trkpt lat="-27.2731653" lon="151.3372445">
  <ele>524.29</ele>
  <time>2026-09-01T20:01:31Z</time>
  <course>224.07</course>
  <speed>19.979281768872475</speed>
  <fix>3d</fix>
</trkpt>
<trkpt lat="-27.2731518" lon="151.337259">
  <ele>524.42</ele>
  <time>2026-09-01T20:01:31Z</time>
  <course>223.99</course>
  <speed>20.17</speed>
  <fix>3d</fix>
</trkpt>
<trkpt lat="-27.2731782" lon="151.3372305">
  <ele>524.15</ele>
  <time>2026-09-01T20:01:31Z</time>
  <course>224.01</course>
  <speed>19.802671536941673</speed>
  <fix>3d</fix>
</trkpt>
<trkpt lat="-27.2731518" lon="151.337259">
  <ele>524.42</ele>
  <time>2026-09-01T20:01:31Z</time>
  <course>223.99</course>
  <speed>20.17</speed>
  <fix>3d</fix>
</trkpt>
<trkpt lat="-27.273191" lon="151.3372167">
  <ele>523.99</ele>
  <time>2026-09-01T20:01:31Z</time>
  <course>223.95</course>
  <speed>19.640491338049564</speed>
  <fix>3d</fix>
</trkpt>
<trkpt lat="-27.2731777" lon="151.337231">
  <ele>524.15</ele>
  <time>2026-09-01T20:01:31Z</time>
  <course>223.89</course>
  <speed>19.82</speed>
  <fix>3d</fix>
</trkpt>
<trkpt lat="-27.2732036" lon="151.337203">
  <ele>523.84</ele>
  <time>2026-09-01T20:01:31Z</time>
  <course>223.9</course>
  <speed>19.47803891566089</speed>
  <fix>3d</fix>
</trkpt>
<trkpt lat="-27.2731777" lon="151.337231">
  <ele>524.15</ele>
  <time>2026-09-01T20:01:31Z</time>
  <course>223.89</course>
  <speed>19.82</speed>
  <fix>3d</fix>
</trkpt>
<trkpt lat="-27.2732162" lon="151.3371895">
  <ele>523.66</ele>
  <time>2026-09-01T20:01:31Z</time>
  <course>223.85</course>
  <speed>19.336954258620977</speed>
  <fix>3d</fix>
</trkpt>
<trkpt lat="-27.2732031" lon="151.3372035">
  <ele>523.83</ele>
  <time>2026-09-01T20:01:31Z</time>
  <course>223.79</course>
  <speed>19.49</speed>
  <fix>3d</fix>
</trkpt>
<trkpt lat="-27.2732287" lon="151.337176">
  <ele>523.5</ele>
  <time>2026-09-01T20:01:31Z</time>
  <course>223.8</course>
  <speed>19.18865550266615</speed>
  <fix>3d</fix>
</trkpt>
<trkpt lat="-27.2732031" lon="151.3372035">
  <ele>523.83</ele>
  <time>2026-09-01T20:01:31Z</time>
  <course>223.79</course>
  <speed>19.49</speed>
  <fix>3d</fix>
</trkpt>
<trkpt lat="-27.2732411" lon="151.3371627">
  <ele>523.33</ele>
  <time>2026-09-01T20:01:31Z</time>
  <course>223.75</course>
  <speed>19.047595648795152</speed>
  <fix>3d</fix>
</trkpt>
<trkpt lat="-27.2732031" lon="151.3372035">
  <ele>523.83</ele>
  <time>2026-09-01T20:01:31Z</time>
  <course>223.79</course>
  <speed>19.49</speed>
  <fix>3d</fix>
</trkpt>
<trkpt lat="-27.2732535" lon="151.3371493">
  <ele>523.15</ele>
  <time>2026-09-01T20:01:31Z</time>
  <course>223.71</course>
  <speed>18.920689733727997</speed>
  <fix>3d</fix>
</trkpt>
<trkpt lat="-27.2732283" lon="151.3371764">
  <ele>523.5</ele>
  <time>2026-09-01T20:01:31Z</time>
  <course>223.7</course>
  <speed>19.2</speed>
  <fix>3d</fix>
</trkpt>
<trkpt lat="-27.2732659" lon="151.3371362">
  <ele>522.97</ele>
  <time>2026-09-01T20:01:31Z</time>
  <course>223.66</course>
  <speed>18.786553702049773</speed>
  <fix>3d</fix>
</trkpt>
<trkpt lat="-27.2732531" lon="151.3371498">
  <ele>523.15</ele>
  <time>2026-09-01T20:01:31Z</time>
  <course>223.62</course>
  <speed>18.93</speed>
  <fix>3d</fix>
</trkpt>
<trkpt lat="-27.273278" lon="151.337123">
  <ele>522.79</ele>
  <time>2026-09-01T20:01:31Z</time>
  <course>223.62</course>
  <speed>18.666561011605754</speed>
  <fix>3d</fix>
</trkpt>
<trkpt lat="-27.2732531" lon="151.3371498">
  <ele>523.15</ele>
  <time>2026-09-01T20:01:31Z</time>
  <course>223.62</course>
  <speed>18.93</speed>
  <fix>3d</fix>
</trkpt>
<trkpt lat="-27.2732902" lon="151.3371101">
  <ele>522.6</ele>
  <time>2026-09-01T20:01:31Z</time>
  <course>223.58</course>
  <speed>18.546573807579662</speed>
  <fix>3d</fix>
</trkpt>
<trkpt lat="-27.2732776" lon="151.3371235">
  <ele>522.79</ele>
  <time>2026-09-01T20:01:31Z</time>
  <course>223.53</course>
  <speed>18.67</speed>
  <fix>3d</fix>
</trkpt>
<trkpt lat="-27.2733022" lon="151.3370972">
  <ele>522.41</ele>
  <time>2026-09-01T20:01:31Z</time>
  <course>223.54</course>
  <speed>18.433849299590143</speed>
  <fix>3d</fix>
</trkpt>
<trkpt lat="-27.2732776" lon="151.3371235">
  <ele>522.79</ele>
  <time>2026-09-01T20:01:31Z</time>
  <course>223.53</course>
  <speed>18.67</speed>
  <fix>3d</fix>
</trkpt>
<trkpt lat="-27.2733142" lon="151.3370846">
  <ele>522.22</ele>
  <time>2026-09-01T20:01:31Z</time>
  <course>223.5</course>
  <speed>18.313877251963877</speed>
  <fix>3d</fix>
</trkpt>
<trkpt lat="-27.2733018" lon="151.3370977">
  <ele>522.41</ele>
  <time>2026-09-01T20:01:31Z</time>
  <course>223.46</course>
  <speed>18.44</speed>
  <fix>3d</fix>
</trkpt>
<trkpt lat="-27.2733261" lon="151.3370718">
  <ele>522.03</ele>
  <time>2026-09-01T20:01:31Z</time>
  <course>223.46</course>
  <speed>18.208047671290846</speed>
  <fix>3d</fix>
</trkpt>
<trkpt lat="-27.2733018" lon="151.3370977">
  <ele>522.41</ele>
  <time>2026-09-01T20:01:31Z</time>
  <course>223.46</course>
  <speed>18.44</speed>
  <fix>3d</fix>
</trkpt>
<trkpt lat="-27.273338" lon="151.3370593">
  <ele>521.84</ele>
  <time>2026-09-01T20:01:31Z</time>
  <course>223.42</course>
  <speed>18.10222362031803</speed>
  <fix>3d</fix>
</trkpt>
<trkpt lat="-27.2733257" lon="151.3370723">
  <ele>522.03</ele>
  <time>2026-09-01T20:01:31Z</time>
  <course>223.39</course>
  <speed>18.22</speed>
  <fix>3d</fix>
</trkpt>
<trkpt lat="-27.2733498" lon="151.3370468">
  <ele>521.65</ele>
  <time>2026-09-01T20:01:31Z</time>
  <course>223.39</course>
  <speed>18.00368017934111</speed>
  <fix>3d</fix>
</trkpt>
<trkpt lat="-27.2733257" lon="151.3370723">
  <ele>522.03</ele>
  <time>2026-09-01T20:01:31Z</time>
  <course>223.39</course>
  <speed>18.22</speed>
  <fix>3d</fix>
</trkpt>
<trkpt lat="-27.2733615" lon="151.3370343">
  <ele>521.45</ele>
  <time>2026-09-01T20:01:31Z</time>
  <course>223.35</course>
  <speed>17.89787138181521</speed>
  <fix>3d</fix>
</trkpt>
<trkpt lat="-27.2733493" lon="151.3370472">
  <ele>521.65</ele>
  <time>2026-09-01T20:01:31Z</time>
  <course>223.32</course>
  <speed>18.01</speed>
  <fix>3d</fix>
</trkpt>
<trkpt lat="-27.2733732" lon="151.3370219">
  <ele>521.25</ele>
  <time>2026-09-01T20:01:31Z</time>
  <course>223.32</course>
  <speed>17.806203975019493</speed>
  <fix>3d</fix>
</trkpt>
<trkpt lat="-27.2733493" lon="151.3370472">
  <ele>521.65</ele>
  <time>2026-09-01T20:01:31Z</time>
  <course>223.32</course>
  <speed>18.01</speed>
  <fix>3d</fix>
</trkpt>
<trkpt lat="-27.2733848" lon="151.3370095">
  <ele>521.06</ele>
  <time>2026-09-01T20:01:31Z</time>
  <course>223.29</course>
  <speed>17.7145420488366</speed>
  <fix>3d</fix>
</trkpt>
<trkpt lat="-27.2733727" lon="151.3370224">
  <ele>521.26</ele>
  <time>2026-09-01T20:01:31Z</time>
  <course>223.25</course>
  <speed>17.81</speed>
  <fix>3d</fix>
</trkpt>
<trkpt lat="-27.2733964" lon="151.3369974">
  <ele>520.86</ele>
  <time>2026-09-01T20:01:31Z</time>
  <course>223.25</course>
  <speed>17.622885688785477</speed>
  <fix>3d</fix>
</trkpt>
<trkpt lat="-27.2733727" lon="151.3370224">
  <ele>521.26</ele>
  <time>2026-09-01T20:01:31Z</time>
  <course>223.25</course>
  <speed>17.81</speed>
  <fix>3d</fix>
</trkpt>
<trkpt lat="-27.2734079" lon="151.3369852">
  <ele>520.66</ele>
  <time>2026-09-01T20:01:31Z</time>
  <course>223.22</course>
  <speed>17.531234982168254</speed>
  <fix>3d</fix>
</trkpt>
<trkpt lat="-27.2733959" lon="151.3369978">
  <ele>520.86</ele>
  <time>2026-09-01T20:01:31Z</time>
  <course>223.19</course>
  <speed>17.63</speed>
  <fix>3d</fix>
</trkpt>
<trkpt lat="-27.2734193" lon="151.3369732">
  <ele>520.46</ele>
  <time>2026-09-01T20:01:31Z</time>
  <course>223.19</course>
  <speed>17.44642656821161</speed>
  <fix>3d</fix>
</trkpt>
<trkpt lat="-27.2733959" lon="151.3369978">
  <ele>520.86</ele>
  <time>2026-09-01T20:01:31Z</time>
  <course>223.19</course>
  <speed>17.63</speed>
  <fix>3d</fix>
</trkpt>
<trkpt lat="-27.2734307" lon="151.3369612">
  <ele>520.26</ele>
  <time>2026-09-01T20:01:31Z</time>
  <course>223.16</course>
  <speed>17.368917640428837</speed>
  <fix>3d</fix>
</trkpt>
<trkpt lat="-27.2734189" lon="151.3369736">
  <ele>520.46</ele>
  <time>2026-09-01T20:01:31Z</time>
  <course>223.13</course>
  <speed>17.45</speed>
  <fix>3d</fix>
</trkpt>
<trkpt lat="-27.2734421" lon="151.3369492">
  <ele>520.06</ele>
  <time>2026-09-01T20:01:31Z</time>
  <course>223.13</course>
  <speed>17.277279878499392</speed>
  <fix>3d</fix>
</trkpt>
<trkpt lat="-27.2734189" lon="151.3369736">
  <ele>520.46</ele>
  <time>2026-09-01T20:01:31Z</time>
  <course>223.13</course>
  <speed>17.45</speed>
  <fix>3d</fix>
</trkpt>
<trkpt lat="-27.2734534" lon="151.3369373">
  <ele>519.86</ele>
  <time>2026-09-01T20:01:31Z</time>
  <course>223.1</course>
  <speed>17.199781975362363</speed>
  <fix>3d</fix>
</trkpt>
<trkpt lat="-27.2734417" lon="151.3369496">
  <ele>520.06</ele>
  <time>2026-09-01T20:01:31Z</time>
  <course>223.07</course>
  <speed>17.29</speed>
  <fix>3d</fix>
</trkpt>
<trkpt lat="-27.2734647" lon="151.3369255">
  <ele>519.66</ele>
  <time>2026-09-01T20:01:31Z</time>
  <course>223.07</course>
  <speed>17.122289566527016</speed>
  <fix>3d</fix>
</trkpt>
<trkpt lat="-27.2734417" lon="151.3369496">
  <ele>520.06</ele>
  <time>2026-09-01T20:01:31Z</time>
  <course>223.07</course>
  <speed>17.29</speed>
  <fix>3d</fix>
</trkpt>
<trkpt lat="-27.2734759" lon="151.3369137">
  <ele>519.45</ele>
  <time>2026-09-01T20:01:31Z</time>
  <course>223.05</course>
  <speed>17.05162162376353</speed>
  <fix>3d</fix>
</trkpt>
<trkpt lat="-27.2734417" lon="151.3369496">
  <ele>520.06</ele>
  <time>2026-09-01T20:01:31Z</time>
  <course>223.07</course>
  <speed>17.29</speed>
  <fix>3d</fix>
</trkpt>
<trkpt lat="-27.2716566" lon="151.340974">
  <ele>540.24</ele>
  <time>2026-09-01T20:01:31Z</time>
  <course>251.08</course>
  <speed>11.762316948628786</speed>
  <fix>3d</fix>
</trkpt>
<trkpt lat="-27.2734643" lon="151.3369258">
  <ele>519.66</ele>
  <time>2026-09-01T20:01:31Z</time>
  <course>223.02</course>
  <speed>17.13</speed>
  <fix>3d</fix>
</trkpt>
<trkpt lat="-27.2716592" lon="151.3409628">
  <ele>536.38</ele>
  <time>2026-09-01T20:01:31Z</time>
  <course>249.29</course>
  <speed>11.598814594604052</speed>
  <fix>3d</fix>
</trkpt>
<trkpt lat="-27.2734643" lon="151.3369258">
  <ele>519.66</ele>
  <time>2026-09-01T20:01:31Z</time>
  <course>223.02</course>
  <speed>17.13</speed>
  <fix>3d</fix>
</trkpt>
<trkpt lat="-27.2716632" lon="151.3409513">
  <ele>532.54</ele>
  <time>2026-09-01T20:01:31Z</time>
  <course>234.27</course>
  <speed>12.996249458978541</speed>
  <fix>3d</fix>
</trkpt>
<trkpt lat="-27.2725673" lon="151.3389385">
  <ele>527.97</ele>
  <time>2026-09-01T20:01:31Z</time>
  <course>235.45</course>
  <speed>13.82</speed>
  <fix>3d</fix>
</trkpt>
<trkpt lat="-27.2716705" lon="151.3409397">
  <ele>528.65</ele>
  <time>2026-09-01T20:01:31Z</time>
  <course>213.58</course>
  <speed>14.21594879000343</speed>
  <fix>3d</fix>
</trkpt>
<trkpt lat="-27.2725673" lon="151.3389385">
  <ele>527.97</ele>
  <time>2026-09-01T20:01:31Z</time>
  <course>235.45</course>
  <speed>13.82</speed>
  <fix>3d</fix>
</trkpt>
<trkpt lat="-27.2716804" lon="151.3409303">
  <ele>524.9</ele>
  <time>2026-09-01T20:01:31Z</time>
  <course>200.76</course>
  <speed>14.562503218883764</speed>
  <fix>3d</fix>
</trkpt>
<trkpt lat="-27.2716645" lon="151.3409517">
  <ele>532.67</ele>
  <time>2026-09-01T20:01:31Z</time>
  <course>239.15</course>
  <speed>12.53</speed>
  <fix>3d</fix>
</trkpt>
<trkpt lat="-27.2716912" lon="151.3409212">
  <ele>521.18</ele>
  <time>2026-09-01T20:01:31Z</time>
  <course>211.14</course>
  <speed>16.141474529918263</speed>
  <fix>3d</fix>
</trkpt>
<trkpt lat="-27.2716645" lon="151.3409517">
  <ele>532.67</ele>
  <time>2026-09-01T20:01:31Z</time>
  <course>239.15</course>
  <speed>12.53</speed>
  <fix>3d</fix>
</trkpt>
<trkpt lat="-27.2717021" lon="151.3409058">
  <ele>517.69</ele>
  <time>2026-09-01T20:01:31Z</time>
  <course>226.9</course>
  <speed>23.36797808968504</speed>
  <fix>3d</fix>
</trkpt>
<trkpt lat="-27.2716803" lon="151.340931">
  <ele>525.13</ele>
  <time>2026-09-01T20:01:31Z</time>
  <course>223.91</course>
  <speed>15.01</speed>
  <fix>3d</fix>
</trkpt>
<trkpt lat="-27.2717142" lon="151.340882">
  <ele>514.87</ele>
  <time>2026-09-01T20:01:31Z</time>
  <course>234.22</course>
  <speed>30.884238698727867</speed>
  <fix>3d</fix>
</trkpt>
<trkpt lat="-27.2716803" lon="151.340931">
  <ele>525.13</ele>
  <time>2026-09-01T20:01:31Z</time>
  <course>223.91</course>
  <speed>15.01</speed>
  <fix>3d</fix>
</trkpt>
<trkpt lat="-27.2717284" lon="151.3408521">
  <ele>512.96</ele>
  <time>2026-09-01T20:01:31Z</time>
  <course>235.55</course>
  <speed>35.51615125544996</speed>
  <fix>3d</fix>
</trkpt>
<trkpt lat="-27.271702" lon="151.3409026">
  <ele>518.2</ele>
  <time>2026-09-01T20:01:31Z</time>
  <course>234.65</course>
  <speed>22.87</speed>
  <fix>3d</fix>
</trkpt>
<trkpt lat="-27.2717447" lon="151.3408212">
  <ele>512.0</ele>
  <time>2026-09-01T20:01:31Z</time>
  <course>231.5</course>
  <speed>37.109525731272825</speed>
  <fix>3d</fix>
</trkpt>
<trkpt lat="-27.2717287" lon="151.3408529">
  <ele>513.51</ele>
  <time>2026-09-01T20:01:31Z</time>
  <course>239.22</course>
  <speed>33.78</speed>
  <fix>3d</fix>
</trkpt>
<trkpt lat="-27.2717643" lon="151.340791">
  <ele>511.82</ele>
  <time>2026-09-01T20:01:31Z</time>
  <course>224.78</course>
  <speed>36.70755371854681</speed>
  <fix>3d</fix>
</trkpt>
<trkpt lat="-27.2717287" lon="151.3408529">
  <ele>513.51</ele>
  <time>2026-09-01T20:01:31Z</time>
  <course>239.22</course>
  <speed>33.78</speed>
  <fix>3d</fix>
</trkpt>
<trkpt lat="-27.2717865" lon="151.3407645">
  <ele>512.24</ele>
  <time>2026-09-01T20:01:31Z</time>
  <course>217.8</course>
  <speed>35.35205793161128</speed>
  <fix>3d</fix>
</trkpt>
<trkpt lat="-27.2717649" lon="151.3407937">
  <ele>512.12</ele>
  <time>2026-09-01T20:01:31Z</time>
  <course>230.31</course>
  <speed>35.98</speed>
  <fix>3d</fix>
</trkpt>
<trkpt lat="-27.2718106" lon="151.3407425">
  <ele>513.04</ele>
  <time>2026-09-01T20:01:31Z</time>
  <course>211.69</course>
  <speed>33.85083307689783</speed>
  <fix>3d</fix>
</trkpt>
<trkpt lat="-27.2717649" lon="151.3407937">
  <ele>512.12</ele>
  <time>2026-09-01T20:01:31Z</time>
  <course>230.31</course>
  <speed>35.98</speed>
  <fix>3d</fix>
</trkpt>
<trkpt lat="-27.271836" lon="151.3407249">
  <ele>514.1</ele>
  <time>2026-09-01T20:01:31Z</time>
  <course>206.87</course>
  <speed>32.509298669765236</speed>
  <fix>3d</fix>
</trkpt>
<trkpt lat="-27.2718104" lon="151.3407454">
  <ele>513.14</ele>
  <time>2026-09-01T20:01:31Z</time>
  <course>216.22</course>
  <speed>33.71</speed>
  <fix>3d</fix>
</trkpt>
<trkpt lat="-27.2718617" lon="151.3407109">
  <ele>515.28</ele>
  <time>2026-09-01T20:01:31Z</time>
  <course>203.69</course>
  <speed>31.386527364460058</speed>
  <fix>3d</fix>
</trkpt>
<trkpt lat="-27.2718104" lon="151.3407454">
  <ele>513.14</ele>
  <time>2026-09-01T20:01:31Z</time>
  <course>216.22</course>
  <speed>33.71</speed>
  <fix>3d</fix>
</trkpt>
<trkpt lat="-27.2718876" lon="151.3406994">
  <ele>516.53</ele>
  <time>2026-09-01T20:01:31Z</time>
  <course>202.02</course>
  <speed>30.47752286521987</speed>
  <fix>3d</fix>
</trkpt>
<trkpt lat="-27.2718609" lon="151.3407126">
  <ele>515.28</ele>
  <time>2026-09-01T20:01:31Z</time>
  <course>204.58</course>
  <speed>31.44</speed>
  <fix>3d</fix>
</trkpt>
<trkpt lat="-27.2719131" lon="151.3406895">
  <ele>517.79</ele>
  <time>2026-09-01T20:01:31Z</time>
  <course>201.49</course>
  <speed>29.7733521794238</speed>
  <fix>3d</fix>
</trkpt>
<trkpt lat="-27.2718609" lon="151.3407126">
  <ele>515.28</ele>
  <time>2026-09-01T20:01:31Z</time>
  <course>204.58</course>
  <speed>31.44</speed>
  <fix>3d</fix>
</trkpt>
<trkpt lat="-27.2719384" lon="151.3406804">
  <ele>519.04</ele>
  <time>2026-09-01T20:01:31Z</time>
  <course>201.56</course>
  <speed>29.247688797578522</speed>
  <fix>3d</fix>
</trkpt>
<trkpt lat="-27.2719121" lon="151.3406901">
  <ele>517.74</ele>
  <time>2026-09-01T20:01:31Z</time>
  <course>198.74</course>
  <speed>29.87</speed>
  <fix>3d</fix>
</trkpt>
<trkpt lat="-27.2719633" lon="151.3406718">
  <ele>520.24</ele>
  <time>2026-09-01T20:01:31Z</time>
  <course>201.69</course>
  <speed>28.894679441032043</speed>
  <fix>3d</fix>
</trkpt>
<trkpt lat="-27.2719121" lon="151.3406901">
  <ele>517.74</ele>
  <time>2026-09-01T20:01:31Z</time>
  <course>198.74</course>
  <speed>29.87</speed>
  <fix>3d</fix>
</trkpt>
<trkpt lat="-27.271988" lon="151.3406632">
  <ele>521.36</ele>
  <time>2026-09-01T20:01:31Z</time>
  <course>201.55</course>
  <speed>28.68033821278961</speed>
  <fix>3d</fix>
</trkpt>
<trkpt lat="-27.2719623" lon="151.340672">
  <ele>520.16</ele>
  <time>2026-09-01T20:01:31Z</time>
  <course>197.34</course>
  <speed>28.97</speed>
  <fix>3d</fix>
</trkpt>
<trkpt lat="-27.2720125" lon="151.3406544">
  <ele>522.38</ele>
  <time>2026-09-01T20:01:31Z</time>
  <course>201.05</course>
  <speed>28.55444098559802</speed>
  <fix>3d</fix>
</trkpt>
<trkpt lat="-27.2719623" lon="151.340672">
  <ele>520.16</ele>
  <time>2026-09-01T20:01:31Z</time>
  <course>197.34</course>
  <speed>28.97</speed>
  <fix>3d</fix>
</trkpt>
<trkpt lat="-27.2720369" lon="151.3406455">
  <ele>523.28</ele>
  <time>2026-09-01T20:01:31Z</time>
  <course>200.35</course>
  <speed>28.48038272214754</speed>
  <fix>3d</fix>
</trkpt>
<trkpt lat="-27.2719623" lon="151.340672">
  <ele>520.16</ele>
  <time>2026-09-01T20:01:31Z</time>
  <course>197.34</course>
  <speed>28.97</speed>
  <fix>3d</fix>
</trkpt>
<trkpt lat="-27.2720611" lon="151.3406367">
  <ele>524.06</ele>
  <time>2026-09-01T20:01:31Z</time>
  <course>199.49</course>
  <speed>28.40391874372267</speed>
  <fix>3d</fix>
</trkpt>
<trkpt lat="-27.2720117" lon="151.3406546">
  <ele>522.29</ele>
  <time>2026-09-01T20:01:31Z</time>
  <course>197.68</course>
  <speed>28.58</speed>
  <fix>3d</fix>
</trkpt>
<trkpt lat="-27.2720853" lon="151.3406277">
  <ele>524.73</ele>
  <time>2026-09-01T20:01:31Z</time>
  <course>198.61</course>
  <speed>28.31517261116379</speed>
  <fix>3d</fix>
</trkpt>
<trkpt lat="-27.2720117" lon="151.3406546">
  <ele>522.29</ele>
  <time>2026-09-01T20:01:31Z</time>
  <course>197.68</course>
  <speed>28.58</speed>
  <fix>3d</fix>
</trkpt>
<trkpt lat="-27.2721102" lon="151.3406183">
  <ele>525.29</ele>
  <time>2026-09-01T20:01:31Z</time>
  <course>197.81</course>
  <speed>28.213876018725255</speed>
  <fix>3d</fix>
</trkpt>
<trkpt lat="-27.2720605" lon="151.3406368">
  <ele>523.98</ele>
  <time>2026-09-01T20:01:31Z</time>
  <course>198.12</course>
  <speed>28.4</speed>
  <fix>3d</fix>
</trkpt>
<trkpt lat="-27.2721342" lon="151.3406095">
  <ele>525.76</ele>
  <time>2026-09-01T20:01:31Z</time>
  <course>197.29</course>
  <speed>28.093675444839892</speed>
  <fix>3d</fix>
</trkpt>
<trkpt lat="-27.2720605" lon="151.3406368">
  <ele>523.98</ele>
  <time>2026-09-01T20:01:31Z</time>
  <course>198.12</course>
  <speed>28.4</speed>
  <fix>3d</fix>
</trkpt>
<trkpt lat="-27.2721581" lon="151.3406004">
  <ele>526.12</ele>
  <time>2026-09-01T20:01:31Z</time>
  <course>196.96</course>
  <speed>27.973648314083025</speed>
  <fix>3d</fix>
</trkpt>
<trkpt lat="-27.2721087" lon="151.3406189">
  <ele>525.22</ele>
  <time>2026-09-01T20:01:31Z</time>
  <course>198.35</course>
  <speed>28.21</speed>
  <fix>3d</fix>
</trkpt>
<trkpt lat="-27.2721819" lon="151.3405914">
  <ele>526.41</ele>
  <time>2026-09-01T20:01:31Z</time>
  <course>196.87</course>
  <speed>27.860545579726182</speed>
  <fix>3d</fix>
</trkpt>
<trkpt lat="-27.2721087" lon="151.3406189">
  <ele>525.22</ele>
  <time>2026-09-01T20:01:31Z</time>
  <course>198.35</course>
  <speed>28.21</speed>
  <fix>3d</fix>
</trkpt>
<trkpt lat="-27.2722055" lon="151.3405822">
  <ele>526.62</ele>
  <time>2026-09-01T20:01:31Z</time>
  <course>197.02</course>
  <speed>27.748963944623227</speed>
  <fix>3d</fix>
</trkpt>
<trkpt lat="-27.2721566" lon="151.3406009">
  <ele>526.06</ele>
  <time>2026-09-01T20:01:31Z</time>
  <course>198.66</course>
  <speed>27.99</speed>
  <fix>3d</fix>
</trkpt>
<trkpt lat="-27.2722289" lon="151.3405728">
  <ele>526.78</ele>
  <time>2026-09-01T20:01:31Z</time>
  <course>197.34</course>
  <speed>27.636875727911068</speed>
  <fix>3d</fix>
</trkpt>
<trkpt lat="-27.2721566" lon="151.3406009">
  <ele>526.06</ele>
  <time>2026-09-01T20:01:31Z</time>
  <course>198.66</course>
  <speed>27.99</speed>
  <fix>3d</fix>
</trkpt>
<trkpt lat="-27.2722522" lon="151.3405632">
  <ele>526.88</ele>
  <time>2026-09-01T20:01:31Z</time>
  <course>197.85</course>
  <speed>27.542142255097005</speed>
  <fix>3d</fix>
</trkpt>
<trkpt lat="-27.272204" lon="151.3405826">
  <ele>526.58</ele>
  <time>2026-09-01T20:01:31Z</time>
  <course>199.33</course>
  <speed>27.75</speed>
  <fix>3d</fix>
</trkpt>
<trkpt lat="-27.2722752" lon="151.3405532">
  <ele>526.94</ele>
  <time>2026-09-01T20:01:31Z</time>
  <course>198.54</course>
  <speed>27.459965404202535</speed>
  <fix>3d</fix>
</trkpt>
<trkpt lat="-27.272204" lon="151.3405826">
  <ele>526.58</ele>
  <time>2026-09-01T20:01:31Z</time>
  <course>199.33</course>
  <speed>27.75</speed>
  <fix>3d</fix>
</trkpt>
<trkpt lat="-27.2722981" lon="151.3405431">
  <ele>526.95</ele>
  <time>2026-09-01T20:01:31Z</time>
  <course>199.4</course>
  <speed>27.383179143408462</speed>
  <fix>3d</fix>
</trkpt>
<trkpt lat="-27.2722507" lon="151.3405636">
  <ele>526.85</ele>
  <time>2026-09-01T20:01:31Z</time>
  <course>200.5</course>
  <speed>27.55</speed>
  <fix>3d</fix>
</trkpt>
<trkpt lat="-27.2723208" lon="151.3405324">
  <ele>526.94</ele>
  <time>2026-09-01T20:01:31Z</time>
  <course>200.42</course>
  <speed>27.31436618338416</speed>
  <fix>3d</fix>
</trkpt>
<trkpt lat="-27.2722507" lon="151.3405636">
  <ele>526.85</ele>
  <time>2026-09-01T20:01:31Z</time>
  <course>200.5</course>
  <speed>27.55</speed>
  <fix>3d</fix>
</trkpt>
<trkpt lat="-27.2723432" lon="151.3405213">
  <ele>526.89</ele>
  <time>2026-09-01T20:01:31Z</time>
  <course>201.55</course>
  <speed>27.269679132692414</speed>
  <fix>3d</fix>
</trkpt>
<trkpt lat="-27.2722967" lon="151.3405435">
  <ele>526.94</ele>
  <time>2026-09-01T20:01:31Z</time>
  <course>202.16</course>
  <speed>27.39</speed>
  <fix>3d</fix>
</trkpt>
<trkpt lat="-27.2723654" lon="151.3405096">
  <ele>526.81</ele>
  <time>2026-09-01T20:01:31Z</time>
  <course>202.77</course>
  <speed>27.22170457557719</speed>
  <fix>3d</fix>
</trkpt>
<trkpt lat="-27.2722967" lon="151.3405435">
  <ele>526.94</ele>
  <time>2026-09-01T20:01:31Z</time>
  <course>202.16</course>
  <speed>27.39</speed>
  <fix>3d</fix>
</trkpt>
<trkpt lat="-27.2723873" lon="151.3404976">
  <ele>526.71</ele>
  <time>2026-09-01T20:01:31Z</time>
  <course>204.09</course>
  <speed>27.181995879625912</speed>
  <fix>3d</fix>
</trkpt>
<trkpt lat="-27.2723418" lon="151.3405217">
  <ele>526.88</ele>
  <time>2026-09-01T20:01:31Z</time>
  <course>204.29</course>
  <speed>27.27</speed>
  <fix>3d</fix>
</trkpt>
<trkpt lat="-27.2724084" lon="151.3404852">
  <ele>526.6</ele>
  <time>2026-09-01T20:01:31Z</time>
  <course>205.39</course>
  <speed>27.152417940212985</speed>
  <fix>3d</fix>
</trkpt>
<trkpt lat="-27.2723858" lon="151.340498">
  <ele>526.71</ele>
  <time>2026-09-01T20:01:31Z</time>
  <course>206.81</course>
  <speed>27.18</speed>
  <fix>3d</fix>
</trkpt>
<trkpt lat="-27.2724297" lon="151.340472">
  <ele>526.47</ele>
  <time>2026-09-01T20:01:31Z</time>
  <course>206.74</course>
  <speed>27.1165724235199</speed>
  <fix>3d</fix>
</trkpt>
<trkpt lat="-27.2723858" lon="151.340498">
  <ele>526.71</ele>
  <time>2026-09-01T20:01:31Z</time>
  <course>206.81</course>
  <speed>27.18</speed>
  <fix>3d</fix>
</trkpt>
<trkpt lat="-27.2724508" lon="151.3404581">
  <ele>526.32</ele>
  <time>2026-09-01T20:01:31Z</time>
  <course>207.93</course>
  <speed>27.09163154924413</speed>
  <fix>3d</fix>
</trkpt>
<trkpt lat="-27.2724289" lon="151.3404721">
  <ele>526.47</ele>
  <time>2026-09-01T20:01:31Z</time>
  <course>209.53</course>
  <speed>27.12</speed>
  <fix>3d</fix>
</trkpt>
<trkpt lat="-27.2724715" lon="151.3404438">
  <ele>526.16</ele>
  <time>2026-09-01T20:01:31Z</time>
  <course>208.9</course>
  <speed>27.064103532169693</speed>
  <fix>3d</fix>
</trkpt>
<trkpt lat="-27.2724289" lon="151.3404721">
  <ele>526.47</ele>
  <time>2026-09-01T20:01:31Z</time>
  <course>209.53</course>
  <speed>27.12</speed>
  <fix>3d</fix>
</trkpt>
<trkpt lat="-27.2724919" lon="151.340429">
  <ele>526.01</ele>
  <time>2026-09-01T20:01:31Z</time>
  <course>209.73</course>
  <speed>27.03101921866802</speed>
  <fix>3d</fix>
</trkpt>
<trkpt lat="-27.2724289" lon="151.3404721">
  <ele>526.47</ele>
  <time>2026-09-01T20:01:31Z</time>
  <course>209.53</course>
  <speed>27.12</speed>
  <fix>3d</fix>
</trkpt>
<trkpt lat="-27.2725121" lon="151.3404138">
  <ele>525.84</ele>
  <time>2026-09-01T20:01:31Z</time>
  <course>210.48</course>
  <speed>26.995853385288637</speed>
  <fix>3d</fix>
</trkpt>
<trkpt lat="-27.2724707" lon="151.340444">
  <ele>526.17</ele>
  <time>2026-09-01T20:01:31Z</time>
  <course>212.12</course>
  <speed>27.06</speed>
  <fix>3d</fix>
</trkpt>
<trkpt lat="-27.272532" lon="151.3403983">
  <ele>525.66</ele>
  <time>2026-09-01T20:01:31Z</time>
  <course>211.23</course>
  <speed>26.95191644391916</speed>
  <fix>3d</fix>
</trkpt>
<trkpt lat="-27.2724707" lon="151.340444">
  <ele>526.17</ele>
  <time>2026-09-01T20:01:31Z</time>
  <course>212.12</course>
  <speed>27.06</speed>
  <fix>3d</fix>
</trkpt>
<trkpt lat="-27.2725517" lon="151.3403825">
  <ele>525.49</ele>
  <time>2026-09-01T20:01:31Z</time>
  <course>211.92</course>
  <speed>26.910208100273024</speed>
  <fix>3d</fix>
</trkpt>
<trkpt lat="-27.2725114" lon="151.340414">
  <ele>525.83</ele>
  <time>2026-09-01T20:01:31Z</time>
  <course>214.16</course>
  <speed>26.99</speed>
  <fix>3d</fix>
</trkpt>
<trkpt lat="-27.2725719" lon="151.340366">
  <ele>525.29</ele>
  <time>2026-09-01T20:01:31Z</time>
  <course>212.64</course>
  <speed>26.86625392569645</speed>
  <fix>3d</fix>
</trkpt>
<trkpt lat="-27.2725114" lon="151.340414">
  <ele>525.83</ele>
  <time>2026-09-01T20:01:31Z</time>
  <course>214.16</course>
  <speed>26.99</speed>
  <fix>3d</fix>
</trkpt>
<trkpt lat="-27.2725914" lon="151.34035">
  <ele>525.1</ele>
  <time>2026-09-01T20:01:31Z</time>
  <course>213.37</course>
  <speed>26.81648933026096</speed>
  <fix>3d</fix>
</trkpt>
<trkpt lat="-27.2725511" lon="151.3403828">
  <ele>525.49</ele>
  <time>2026-09-01T20:01:31Z</time>
  <course>215.55</course>
  <speed>26.91</speed>
  <fix>3d</fix>
</trkpt>
<trkpt lat="-27.2726107" lon="151.3403338">
  <ele>524.9</ele>
  <time>2026-09-01T20:01:31Z</time>
  <course>214.01</course>
  <speed>26.77400605064547</speed>
  <fix>3d</fix>
</trkpt>
<trkpt lat="-27.2725511" lon="151.3403828">
  <ele>525.49</ele>
  <time>2026-09-01T20:01:31Z</time>
  <course>215.55</course>
  <speed>26.91</speed>
  <fix>3d</fix>
</trkpt>
<trkpt lat="-27.2726299" lon="151.3403176">
  <ele>524.69</ele>
  <time>2026-09-01T20:01:31Z</time>
  <course>214.52</course>
  <speed>26.728202333864505</speed>
  <fix>3d</fix>
</trkpt>
<trkpt lat="-27.2725901" lon="151.3403508">
  <ele>525.11</ele>
  <time>2026-09-01T20:01:31Z</time>
  <course>216.46</course>
  <speed>26.82</speed>
  <fix>3d</fix>
</trkpt>
<trkpt lat="-27.272649" lon="151.3403012">
  <ele>524.47</ele>
  <time>2026-09-01T20:01:31Z</time>
  <course>214.99</course>
  <speed>26.694690483315217</speed>
  <fix>3d</fix>
</trkpt>
<trkpt lat="-27.2725901" lon="151.3403508">
  <ele>525.11</ele>
  <time>2026-09-01T20:01:31Z</time>
  <course>216.46</course>
  <speed>26.82</speed>
  <fix>3d</fix>
</trkpt>
<trkpt lat="-27.272668" lon="151.3402849">
  <ele>524.25</ele>
  <time>2026-09-01T20:01:31Z</time>
  <course>215.46</course>
  <speed>26.655387823102483</speed>
  <fix>3d</fix>
</trkpt>
<trkpt lat="-27.2726287" lon="151.3403185">
  <ele>524.69</ele>
  <time>2026-09-01T20:01:31Z</time>
  <course>217.05</course>
  <speed>26.74</speed>
  <fix>3d</fix>
</trkpt>
<trkpt lat="-27.272687" lon="151.3402684">
  <ele>524.02</ele>
  <time>2026-09-01T20:01:31Z</time>
  <course>215.76</course>
  <speed>26.633995194112355</speed>
  <fix>3d</fix>
</trkpt>
<trkpt lat="-27.2726287" lon="151.3403185">
  <ele>524.69</ele>
  <time>2026-09-01T20:01:31Z</time>
  <course>217.05</course>
  <speed>26.74</speed>
  <fix>3d</fix>
</trkpt>
<trkpt lat="-27.2727059" lon="151.340252">
  <ele>523.79</ele>
  <time>2026-09-01T20:01:31Z</time>
  <course>216.03</course>
  <speed>26.600490596979597</speed>
  <fix>3d</fix>
</trkpt>
<trkpt lat="-27.2726669" lon="151.3402858">
  <ele>524.26</ele>
  <time>2026-09-01T20:01:31Z</time>
  <course>217.42</course>
  <speed>26.67</speed>
  <fix>3d</fix>
</trkpt>
<trkpt lat="-27.2727248" lon="151.3402357">
  <ele>523.59</ele>
  <time>2026-09-01T20:01:31Z</time>
  <course>216.3</course>
  <speed>26.576745474192286</speed>
  <fix>3d</fix>
</trkpt>
<trkpt lat="-27.2726669" lon="151.3402858">
  <ele>524.26</ele>
  <time>2026-09-01T20:01:31Z</time>
  <course>217.42</course>
  <speed>26.67</speed>
  <fix>3d</fix>
</trkpt>
<trkpt lat="-27.2727437" lon="151.3402192">
  <ele>523.4</ele>
  <time>2026-09-01T20:01:31Z</time>
  <course>216.5</course>
  <speed>26.55480559145557</speed>
  <fix>3d</fix>
</trkpt>
<trkpt lat="-27.2727048" lon="151.340253">
  <ele>523.82</ele>
  <time>2026-09-01T20:01:31Z</time>
  <course>217.62</course>
  <speed>26.61</speed>
  <fix>3d</fix>
</trkpt>
<trkpt lat="-27.2727626" lon="151.3402027">
  <ele>523.22</ele>
  <time>2026-09-01T20:01:31Z</time>
  <course>216.58</course>
  <speed>26.520637247245777</speed>
  <fix>3d</fix>
</trkpt>
<trkpt lat="-27.2727048" lon="151.340253">
  <ele>523.82</ele>
  <time>2026-09-01T20:01:31Z</time>
  <course>217.62</course>
  <speed>26.61</speed>
  <fix>3d</fix>
</trkpt>
<trkpt lat="-27.2727814" lon="151.3401864">
  <ele>523.07</ele>
  <time>2026-09-01T20:01:31Z</time>
  <course>216.62</course>
  <speed>26.49010570005337</speed>
  <fix>3d</fix>
</trkpt>
<trkpt lat="-27.2727426" lon="151.3402201">
  <ele>523.41</ele>
  <time>2026-09-01T20:01:31Z</time>
  <course>217.67</course>
  <speed>26.55</speed>
  <fix>3d</fix>
</trkpt>
<trkpt lat="-27.2728003" lon="151.3401702">
  <ele>522.95</ele>
  <time>2026-09-01T20:01:31Z</time>
  <course>216.62</course>
  <speed>26.439525336132643</speed>
  <fix>3d</fix>
</trkpt>
<trkpt lat="-27.2727426" lon="151.3402201">
  <ele>523.41</ele>
  <time>2026-09-01T20:01:31Z</time>
  <course>217.67</course>
  <speed>26.55</speed>
  <fix>3d</fix>
</trkpt>
<trkpt lat="-27.2728191" lon="151.3401539">
  <ele>522.87</ele>
  <time>2026-09-01T20:01:31Z</time>
  <course>216.55</course>
  <speed>26.376900879367916</speed>
  <fix>3d</fix>
</trkpt>
<trkpt lat="-27.2727803" lon="151.3401874">
  <ele>523.09</ele>
  <time>2026-09-01T20:01:31Z</time>
  <course>217.58</course>
  <speed>26.48</speed>
  <fix>3d</fix>
</trkpt>
<trkpt lat="-27.2728379" lon="151.3401379">
  <ele>522.83</ele>
  <time>2026-09-01T20:01:31Z</time>
  <course>216.5</course>
  <speed>26.296311528425427</speed>
  <fix>3d</fix>
</trkpt>
<trkpt lat="-27.2727803" lon="151.3401874">
  <ele>523.09</ele>
  <time>2026-09-01T20:01:31Z</time>
  <course>217.58</course>
  <speed>26.48</speed>
  <fix>3d</fix>
</trkpt>
<trkpt lat="-27.2728567" lon="151.3401218">
  <ele>522.82</ele>
  <time>2026-09-01T20:01:31Z</time>
  <course>216.5</course>
  <speed>26.158000688125995</speed>
  <fix>3d</fix>
</trkpt>
<trkpt lat="-27.272818" lon="151.3401549">
  <ele>522.89</ele>
  <time>2026-09-01T20:01:31Z</time>
  <course>217.32</course>
  <speed>26.37</speed>
  <fix>3d</fix>
</trkpt>
<trkpt lat="-27.2728755" lon="151.3401061">
  <ele>522.84</ele>
  <time>2026-09-01T20:01:31Z</time>
  <course>216.39</course>
  <speed>25.94657010088231</speed>
  <fix>3d</fix>
</trkpt>
<trkpt lat="-27.272818" lon="151.3401549">
  <ele>522.89</ele>
  <time>2026-09-01T20:01:31Z</time>
  <course>217.32</course>
  <speed>26.37</speed>
  <fix>3d</fix>
</trkpt>
<trkpt lat="-27.2728942" lon="151.3400907">
  <ele>522.88</ele>
  <time>2026-09-01T20:01:31Z</time>
  <course>216.23</course>
  <speed>25.678841484771077</speed>
  <fix>3d</fix>
</trkpt>
<trkpt lat="-27.2728557" lon="151.3401228">
  <ele>522.83</ele>
  <time>2026-09-01T20:01:31Z</time>
  <course>216.83</course>
  <speed>26.13</speed>
  <fix>3d</fix>
</trkpt>
<trkpt lat="-27.2729128" lon="151.3400757">
  <ele>522.96</ele>
  <time>2026-09-01T20:01:31Z</time>
  <course>216.02</course>
  <speed>25.323396296705543</speed>
  <fix>3d</fix>
</trkpt>
<trkpt lat="-27.2728557" lon="151.3401228">
  <ele>522.83</ele>
  <time>2026-09-01T20:01:31Z</time>
  <course>216.83</course>
  <speed>26.13</speed>
  <fix>3d</fix>
</trkpt>
<trkpt lat="-27.2729312" lon="151.340061">
  <ele>523.07</ele>
  <time>2026-09-01T20:01:31Z</time>
  <course>215.75</course>
  <speed>24.92349293337513</speed>
  <fix>3d</fix>
</trkpt>
<trkpt lat="-27.2728932" lon="151.3400916">
  <ele>522.89</ele>
  <time>2026-09-01T20:01:31Z</time>
  <course>216.02</course>
  <speed>25.66</speed>
  <fix>3d</fix>
</trkpt>
<trkpt lat="-27.2729489" lon="151.3400471">
  <ele>523.2</ele>
  <time>2026-09-01T20:01:31Z</time>
  <course>215.46</course>
  <speed>24.520399670478454</speed>
  <fix>3d</fix>
</trkpt>
<trkpt lat="-27.2728932" lon="151.3400916">
  <ele>522.89</ele>
  <time>2026-09-01T20:01:31Z</time>
  <course>216.02</course>
  <speed>25.66</speed>
  <fix>3d</fix>
</trkpt>
<trkpt lat="-27.2729677" lon="151.3400328">
  <ele>523.35</ele>
  <time>2026-09-01T20:01:31Z</time>
  <course>215.14</course>
  <speed>24.09136774863561</speed>
  <fix>3d</fix>
</trkpt>
<trkpt lat="-27.2729302" lon="151.3400619">
  <ele>523.07</ele>
  <time>2026-09-01T20:01:31Z</time>
  <course>215.04</course>
  <speed>24.94</speed>
  <fix>3d</fix>
</trkpt>
<trkpt lat="-27.2729855" lon="151.3400193">
  <ele>523.51</ele>
  <time>2026-09-01T20:01:31Z</time>
  <course>214.81</course>
  <speed>23.69688587135449</speed>
  <fix>3d</fix>
</trkpt>
<trkpt lat="-27.2729302" lon="151.3400619">
  <ele>523.07</ele>
  <time>2026-09-01T20:01:31Z</time>
  <course>215.04</course>
  <speed>24.94</speed>
  <fix>3d</fix>
</trkpt>
<trkpt lat="-27.273003" lon="151.3400062">
  <ele>523.66</ele>
  <time>2026-09-01T20:01:31Z</time>
  <course>214.49</course>
  <speed>23.31408158173939</speed>
  <fix>3d</fix>
</trkpt>
<trkpt lat="-27.2729665" lon="151.3400338">
  <ele>523.34</ele>
  <time>2026-09-01T20:01:31Z</time>
  <course>214.21</course>
  <speed>24.12</speed>
  <fix>3d</fix>
</trkpt>
<trkpt lat="-27.2730203" lon="151.3399933">
  <ele>523.79</ele>
  <time>2026-09-01T20:01:31Z</time>
  <course>214.2</course>
  <speed>22.95660689213456</speed>
  <fix>3d</fix>
</trkpt>
<trkpt lat="-27.2729665" lon="151.3400338">
  <ele>523.34</ele>
  <time>2026-09-01T20:01:31Z</time>
  <course>214.21</course>
  <speed>24.12</speed>
  <fix>3d</fix>
</trkpt>
<trkpt lat="-27.2730374" lon="151.3399806">
  <ele>523.91</ele>
  <time>2026-09-01T20:01:31Z</time>
  <course>213.96</course>
  <speed>22.624256893873884</speed>
  <fix>3d</fix>
</trkpt>
<trkpt lat="-27.2730018" lon="151.340007">
  <ele>523.64</ele>
  <time>2026-09-01T20:01:31Z</time>
  <course>213.63</course>
  <speed>23.35</speed>
  <fix>3d</fix>
</trkpt>
<trkpt lat="-27.2730543" lon="151.3399681">
  <ele>524.01</ele>
  <time>2026-09-01T20:01:31Z</time>
  <course>213.76</course>
  <speed>22.303026700427903</speed>
  <fix>3d</fix>
</trkpt>
<trkpt lat="-27.2730018" lon="151.340007">
  <ele>523.64</ele>
  <time>2026-09-01T20:01:31Z</time>
  <course>213.63</course>
  <speed>23.35</speed>
  <fix>3d</fix>
</trkpt>
<trkpt lat="-27.273071" lon="151.339956">
  <ele>524.07</ele>
  <time>2026-09-01T20:01:31Z</time>
  <course>213.6</course>
  <speed>22.00414733635457</speed>
  <fix>3d</fix>
</trkpt>
<trkpt lat="-27.2730363" lon="151.3399814">
  <ele>523.89</ele>
  <time>2026-09-01T20:01:31Z</time>
  <course>213.24</course>
  <speed>22.65</speed>
  <fix>3d</fix>
</trkpt>
<trkpt lat="-27.2730875" lon="151.339944">
  <ele>524.1</ele>
  <time>2026-09-01T20:01:31Z</time>
  <course>213.45</course>
  <speed>21.716247373798264</speed>
  <fix>3d</fix>
</trkpt>
<trkpt lat="-27.2730363" lon="151.3399814">
  <ele>523.89</ele>
  <time>2026-09-01T20:01:31Z</time>
  <course>213.24</course>
  <speed>22.65</speed>
  <fix>3d</fix>
</trkpt>
<trkpt lat="-27.2731038" lon="151.3399322">
  <ele>524.11</ele>
  <time>2026-09-01T20:01:31Z</time>
  <course>213.3</course>
  <speed>21.456059750103233</speed>
  <fix>3d</fix>
</trkpt>
<trkpt lat="-27.27307" lon="151.3399567">
  <ele>524.05</ele>
  <time>2026-09-01T20:01:31Z</time>
  <course>212.95</course>
  <speed>22.03</speed>
  <fix>3d</fix>
</trkpt>
<trkpt lat="-27.2731199" lon="151.3399206">
  <ele>524.08</ele>
  <time>2026-09-01T20:01:31Z</time>
  <course>213.16</course>
  <speed>21.195928854381446</speed>
  <fix>3d</fix>
</trkpt>
<trkpt lat="-27.27307" lon="151.3399567">
  <ele>524.05</ele>
  <time>2026-09-01T20:01:31Z</time>
  <course>212.95</course>
  <speed>22.03</speed>
  <fix>3d</fix>
</trkpt>
<trkpt lat="-27.2731359" lon="151.3399091">
  <ele>524.03</ele>
  <time>2026-09-01T20:01:31Z</time>
  <course>213.01</course>
  <speed>20.963475379812383</speed>
  <fix>3d</fix>
</trkpt>
<trkpt lat="-27.2731027" lon="151.3399329">
  <ele>524.09</ele>
  <time>2026-09-01T20:01:31Z</time>
  <course>212.74</course>
  <speed>21.48</speed>
  <fix>3d</fix>
</trkpt>
<trkpt lat="-27.2731517" lon="151.3398978">
  <ele>523.96</ele>
  <time>2026-09-01T20:01:31Z</time>
  <course>212.86</course>
  <speed>20.736434119684127</speed>
  <fix>3d</fix>
</trkpt>
<trkpt lat="-27.2731027" lon="151.3399329">
  <ele>524.09</ele>
  <time>2026-09-01T20:01:31Z</time>
  <course>212.74</course>
  <speed>21.48</speed>
  <fix>3d</fix>
</trkpt>
<trkpt lat="-27.2731673" lon="151.3398866">
  <ele>523.87</ele>
  <time>2026-09-01T20:01:31Z</time>
  <course>212.73</course>
  <speed>20.523218558501004</speed>
  <fix>3d</fix>
</trkpt>
<trkpt lat="-27.2731349" lon="151.3399098">
  <ele>524.03</ele>
  <time>2026-09-01T20:01:31Z</time>
  <course>212.57</course>
  <speed>20.98</speed>
  <fix>3d</fix>
</trkpt>
<trkpt lat="-27.2731828" lon="151.3398755">
  <ele>523.77</ele>
  <time>2026-09-01T20:01:32Z</time>
  <course>212.6</course>
  <speed>20.318464508914055</speed>
  <fix>3d</fix>
</trkpt>
<trkpt lat="-27.2731349" lon="151.3399098">
  <ele>524.03</ele>
  <time>2026-09-01T20:01:32Z</time>
  <course>212.57</course>
  <speed>20.98</speed>
  <fix>3d</fix>
</trkpt>
<trkpt lat="-27.2731981" lon="151.3398646">
  <ele>523.65</ele>
  <time>2026-09-01T20:01:32Z</time>
  <course>212.5</course>
  <speed>20.12753586507797</speed>
  <fix>3d</fix>
</trkpt>
<trkpt lat="-27.2731663" lon="151.3398872">
  <ele>523.87</ele>
  <time>2026-09-01T20:01:32Z</time>
  <course>212.44</course>
  <speed>20.54</speed>
  <fix>3d</fix>
</trkpt>
<trkpt lat="-27.2732134" lon="151.3398537">
  <ele>523.51</ele>
  <time>2026-09-01T20:01:32Z</time>
  <course>212.41</course>
  <speed>19.950423554401045</speed>
  <fix>3d</fix>
</trkpt>
<trkpt lat="-27.2731663" lon="151.3398872">
  <ele>523.87</ele>
  <time>2026-09-01T20:01:32Z</time>
  <course>212.44</course>
  <speed>20.54</speed>
  <fix>3d</fix>
</trkpt>
<trkpt lat="-27.2732285" lon="151.3398431">
  <ele>523.37</ele>
  <time>2026-09-01T20:01:32Z</time>
  <course>212.34</course>
  <speed>19.77332799505435</speed>
  <fix>3d</fix>
</trkpt>
<trkpt lat="-27.2731972" lon="151.3398652">
  <ele>523.64</ele>
  <time>2026-09-01T20:01:32Z</time>
  <course>212.32</course>
  <speed>20.15</speed>
  <fix>3d</fix>
</trkpt>
<trkpt lat="-27.2732434" lon="151.3398325">
  <ele>523.22</ele>
  <time>2026-09-01T20:01:32Z</time>
  <course>212.28</course>
  <speed>19.610038245755668</speed>
  <fix>3d</fix>
</trkpt>
<trkpt lat="-27.2731972" lon="151.3398652">
  <ele>523.64</ele>
  <time>2026-09-01T20:01:32Z</time>
  <course>212.32</course>
  <speed>20.15</speed>
  <fix>3d</fix>
</trkpt>
<trkpt lat="-27.2732583" lon="151.339822">
  <ele>523.06</ele>
  <time>2026-09-01T20:01:32Z</time>
  <course>212.22</course>
  <speed>19.455230659131235</speed>
  <fix>3d</fix>
</trkpt>
<trkpt lat="-27.2732276" lon="151.3398437">
  <ele>523.37</ele>
  <time>2026-09-01T20:01:32Z</time>
  <course>212.21</course>
  <speed>19.79</speed>
  <fix>3d</fix>
</trkpt>
<trkpt lat="-27.273273" lon="151.3398116">
  <ele>522.9</ele>
  <time>2026-09-01T20:01:32Z</time>
  <course>212.17</course>
  <speed>19.300445590711114</speed>
  <fix>3d</fix>
</trkpt>
<trkpt lat="-27.2732276" lon="151.3398437">
  <ele>523.37</ele>
  <time>2026-09-01T20:01:32Z</time>
  <course>212.21</course>
  <speed>19.79</speed>
  <fix>3d</fix>
</trkpt>
<trkpt lat="-27.2732877" lon="151.3398011">
  <ele>522.73</ele>
  <time>2026-09-01T20:01:32Z</time>
  <course>212.11</course>
  <speed>19.159462414170186</speed>
  <fix>3d</fix>
</trkpt>
<trkpt lat="-27.2732575" lon="151.3398225">
  <ele>523.06</ele>
  <time>2026-09-01T20:01:32Z</time>
  <course>212.1</course>
  <speed>19.47</speed>
  <fix>3d</fix>
</trkpt>
<trkpt lat="-27.2733022" lon="151.339791">
  <ele>522.56</ele>
  <time>2026-09-01T20:01:32Z</time>
  <course>212.06</course>
  <speed>19.023787740615695</speed>
  <fix>3d</fix>
</trkpt>
<trkpt lat="-27.2732575" lon="151.3398225">
  <ele>523.06</ele>
  <time>2026-09-01T20:01:32Z</time>
  <course>212.1</course>
  <speed>19.47</speed>
  <fix>3d</fix>
</trkpt>
<trkpt lat="-27.2733167" lon="151.3397809">
  <ele>522.38</ele>
  <time>2026-09-01T20:01:32Z</time>
  <course>212.01</course>
  <speed>18.891320758485893</speed>
  <fix>3d</fix>
</trkpt>
<trkpt lat="-27.2732869" lon="151.3398017">
  <ele>522.73</ele>
  <time>2026-09-01T20:01:32Z</time>
  <course>212.0</course>
  <speed>19.17</speed>
  <fix>3d</fix>
</trkpt>
<trkpt lat="-27.273331" lon="151.3397708">
  <ele>522.2</ele>
  <time>2026-09-01T20:01:32Z</time>
  <course>211.96</course>
  <speed>18.764157321872997</speed>
  <fix>3d</fix>
</trkpt>
<trkpt lat="-27.2732869" lon="151.3398017">
  <ele>522.73</ele>
  <time>2026-09-01T20:01:32Z</time>
  <course>212.0</course>
  <speed>19.17</speed>
  <fix>3d</fix>
</trkpt>
<trkpt lat="-27.2733453" lon="151.3397608">
  <ele>522.01</ele>
  <time>2026-09-01T20:01:32Z</time>
  <course>211.91</course>
  <speed>18.642277221412623</speed>
  <fix>3d</fix>
</trkpt>
<trkpt lat="-27.2733159" lon="151.3397814">
  <ele>522.38</ele>
  <time>2026-09-01T20:01:32Z</time>
  <course>211.91</course>
  <speed>18.9</speed>
  <fix>3d</fix>
</trkpt>
<trkpt lat="-27.2733595" lon="151.339751">
  <ele>521.83</ele>
  <time>2026-09-01T20:01:32Z</time>
  <course>211.87</course>
  <speed>18.51513164954546</speed>
  <fix>3d</fix>
</trkpt>
<trkpt lat="-27.2733159" lon="151.3397814">
  <ele>522.38</ele>
  <time>2026-09-01T20:01:32Z</time>
  <course>211.91</course>
  <speed>18.9</speed>
  <fix>3d</fix>
</trkpt>
<trkpt lat="-27.2733737" lon="151.3397411">
  <ele>521.64</ele>
  <time>2026-09-01T20:01:32Z</time>
  <course>211.82</course>
  <speed>18.40176350244726</speed>
  <fix>3d</fix>
</trkpt>
<trkpt lat="-27.2733445" lon="151.3397613">
  <ele>522.02</ele>
  <time>2026-09-01T20:01:32Z</time>
  <course>211.82</course>
  <speed>18.65</speed>
  <fix>3d</fix>
</trkpt>
<trkpt lat="-27.2733877" lon="151.3397312">
  <ele>521.45</ele>
  <time>2026-09-01T20:01:32Z</time>
  <course>211.78</course>
  <speed>18.288403429495972</speed>
  <fix>3d</fix>
</trkpt>
<trkpt lat="-27.2733445" lon="151.3397613">
  <ele>522.02</ele>
  <time>2026-09-01T20:01:32Z</time>
  <course>211.82</course>
  <speed>18.65</speed>
  <fix>3d</fix>
</trkpt>
<trkpt lat="-27.2734017" lon="151.3397216">
  <ele>521.26</ele>
  <time>2026-09-01T20:01:32Z</time>
  <course>211.75</course>
  <speed>18.188812495597396</speed>
  <fix>3d</fix>
</trkpt>
<trkpt lat="-27.2733728" lon="151.3397417">
  <ele>521.65</ele>
  <time>2026-09-01T20:01:32Z</time>
  <course>211.75</course>
  <speed>18.42</speed>
  <fix>3d</fix>
</trkpt>
<trkpt lat="-27.2734155" lon="151.339712">
  <ele>521.06</ele>
  <time>2026-09-01T20:01:32Z</time>
  <course>211.71</course>
  <speed>18.083981862410724</speed>
  <fix>3d</fix>
</trkpt>
<trkpt lat="-27.2733728" lon="151.3397417">
  <ele>521.65</ele>
  <time>2026-09-01T20:01:32Z</time>
  <course>211.75</course>
  <speed>18.42</speed>
  <fix>3d</fix>
</trkpt>
<trkpt lat="-27.2734293" lon="151.3397024">
  <ele>520.87</ele>
  <time>2026-09-01T20:01:32Z</time>
  <course>211.67</course>
  <speed>17.97588662625574</speed>
  <fix>3d</fix>
</trkpt>
<trkpt lat="-27.2734008" lon="151.3397222">
  <ele>521.26</ele>
  <time>2026-09-01T20:01:32Z</time>
  <course>211.67</course>
  <speed>18.2</speed>
  <fix>3d</fix>
</trkpt>
<trkpt lat="-27.2734431" lon="151.3396929">
  <ele>520.66</ele>
  <time>2026-09-01T20:01:32Z</time>
  <course>211.64</course>
  <speed>17.88483156196893</speed>
  <fix>3d</fix>
</trkpt>
<trkpt lat="-27.2734008" lon="151.3397222">
  <ele>521.26</ele>
  <time>2026-09-01T20:01:32Z</time>
  <course>211.67</course>
  <speed>18.2</speed>
  <fix>3d</fix>
</trkpt>
<trkpt lat="-27.2734566" lon="151.3396835">
  <ele>520.48</ele>
  <time>2026-09-01T20:01:32Z</time>
  <course>211.6</course>
  <speed>17.78526356284888</speed>
  <fix>3d</fix>
</trkpt>
<trkpt lat="-27.2734285" lon="151.339703">
  <ele>520.87</ele>
  <time>2026-09-01T20:01:32Z</time>
  <course>211.6</course>
  <speed>17.99</speed>
  <fix>3d</fix>
</trkpt>
<trkpt lat="-27.2734703" lon="151.3396742">
  <ele>520.28</ele>
  <time>2026-09-01T20:01:32Z</time>
  <course>211.57</course>
  <speed>17.694227872388215</speed>
  <fix>3d</fix>
</trkpt>
<trkpt lat="-27.2734285" lon="151.339703">
  <ele>520.87</ele>
  <time>2026-09-01T20:01:32Z</time>
  <course>211.6</course>
  <speed>17.99</speed>
  <fix>3d</fix>
</trkpt>
<trkpt lat="-27.2734838" lon="151.3396647">
  <ele>520.08</ele>
  <time>2026-09-01T20:01:32Z</time>
  <course>211.53</course>
  <speed>17.608421280739506</speed>
  <fix>3d</fix>
</trkpt>
<trkpt lat="-27.2734559" lon="151.3396841">
  <ele>520.48</ele>
  <time>2026-09-01T20:01:32Z</time>
  <course>211.53</course>
  <speed>17.8</speed>
  <fix>3d</fix>
</trkpt>
<trkpt lat="-27.2734973" lon="151.3396555">
  <ele>519.88</ele>
  <time>2026-09-01T20:01:32Z</time>
  <course>211.5</course>
  <speed>17.522616813706794</speed>
  <fix>3d</fix>
</trkpt>
<trkpt lat="-27.2734559" lon="151.3396841">
  <ele>520.48</ele>
  <time>2026-09-01T20:01:32Z</time>
  <course>211.53</course>
  <speed>17.8</speed>
  <fix>3d</fix>
</trkpt>
<trkpt lat="-27.2716448" lon="151.3437313">
  <ele>540.88</ele>
  <time>2026-09-01T20:01:32Z</time>
  <course>250.39</course>
  <speed>12.038293068371445</speed>
  <fix>3d</fix>
</trkpt>
<trkpt lat="-27.273483" lon="151.3396654">
  <ele>520.08</ele>
  <time>2026-09-01T20:01:32Z</time>
  <course>211.47</course>
  <speed>17.61</speed>
  <fix>3d</fix>
</trkpt>
<trkpt lat="-27.2716475" lon="151.34372">
  <ele>537.04</ele>
  <time>2026-09-01T20:01:32Z</time>
  <course>249.76</course>
  <speed>11.584990289162956</speed>
  <fix>3d</fix>
</trkpt>
<trkpt lat="-27.273483" lon="151.3396654">
  <ele>520.08</ele>
  <time>2026-09-01T20:01:32Z</time>
  <course>211.47</course>
  <speed>17.61</speed>
  <fix>3d</fix>
</trkpt>
<trkpt lat="-27.2716513" lon="151.3437084">
  <ele>533.23</ele>
  <time>2026-09-01T20:01:32Z</time>
  <course>237.05</course>
  <speed>12.998188335302732</speed>
  <fix>3d</fix>
</trkpt>
<trkpt lat="-27.2725719" lon="151.3416882">
  <ele>528.56</ele>
  <time>2026-09-01T20:01:32Z</time>
  <course>228.26</course>
  <speed>13.57</speed>
  <fix>3d</fix>
</trkpt>
<trkpt lat="-27.2716581" lon="151.3436968">
  <ele>529.46</ele>
  <time>2026-09-01T20:01:32Z</time>
  <course>217.28</course>
  <speed>14.468351668382962</speed>
  <fix>3d</fix>
</trkpt>
<trkpt lat="-27.2725719" lon="151.3416882">
  <ele>528.56</ele>
  <time>2026-09-01T20:01:32Z</time>
  <course>228.26</course>
  <speed>13.57</speed>
  <fix>3d</fix>
</trkpt>
<trkpt lat="-27.271668" lon="151.3436868">
  <ele>525.72</ele>
  <time>2026-09-01T20:01:32Z</time>
  <course>202.94</course>
  <speed>14.98201922305535</speed>
  <fix>3d</fix>
</trkpt>
<trkpt lat="-27.2716525" lon="151.3437089">
  <ele>533.44</ele>
  <time>2026-09-01T20:01:32Z</time>
  <course>240.46</course>
  <speed>12.69</speed>
  <fix>3d</fix>
</trkpt>
<trkpt lat="-27.271679" lon="151.3436779">
  <ele>522.0</ele>
  <time>2026-09-01T20:01:32Z</time>
  <course>205.7</course>
  <speed>15.797702364584541</speed>
  <fix>3d</fix>
</trkpt>
<trkpt lat="-27.2716525" lon="151.3437089">
  <ele>533.44</ele>
  <time>2026-09-01T20:01:32Z</time>
  <course>240.46</course>
  <speed>12.69</speed>
  <fix>3d</fix>
</trkpt>
<trkpt lat="-27.2716902" lon="151.3436642">
  <ele>518.45</ele>
  <time>2026-09-01T20:01:32Z</time>
  <course>224.46</course>
  <speed>21.981731051034174</speed>
  <fix>3d</fix>
</trkpt>
<trkpt lat="-27.271668" lon="151.3436878">
  <ele>525.91</ele>
  <time>2026-09-01T20:01:32Z</time>
  <course>223.17</course>
  <speed>14.97</speed>
  <fix>3d</fix>
</trkpt>
<trkpt lat="-27.2717022" lon="151.3436417">
  <ele>515.48</ele>
  <time>2026-09-01T20:01:32Z</time>
  <course>233.32</course>
  <speed>29.74490208422277</speed>
  <fix>3d</fix>
</trkpt>
<trkpt lat="-27.271668" lon="151.3436878">
  <ele>525.91</ele>
  <time>2026-09-01T20:01:32Z</time>
  <course>223.17</course>
  <speed>14.97</speed>
  <fix>3d</fix>
</trkpt>
<trkpt lat="-27.2717161" lon="151.3436127">
  <ele>513.4</ele>
  <time>2026-09-01T20:01:32Z</time>
  <course>235.86</course>
  <speed>34.933921909799935</speed>
  <fix>3d</fix>
</trkpt>
<trkpt lat="-27.27169" lon="151.3436606">
  <ele>518.9</ele>
  <time>2026-09-01T20:01:32Z</time>
  <course>232.87</course>
  <speed>22.11</speed>
  <fix>3d</fix>
</trkpt>
<trkpt lat="-27.2717324" lon="151.343581">
  <ele>512.26</ele>
  <time>2026-09-01T20:01:32Z</time>
  <course>232.7</course>
  <speed>37.02680785593055</speed>
  <fix>3d</fix>
</trkpt>
<trkpt lat="-27.27169" lon="151.3436606">
  <ele>518.9</ele>
  <time>2026-09-01T20:01:32Z</time>
  <course>232.87</course>
  <speed>22.11</speed>
  <fix>3d</fix>
</trkpt>
<trkpt lat="-27.2717514" lon="151.3435501">
  <ele>511.97</ele>
  <time>2026-09-01T20:01:32Z</time>
  <course>226.42</course>
  <speed>36.847839828136465</speed>
  <fix>3d</fix>
</trkpt>
<trkpt lat="-27.2717165" lon="151.3436128">
  <ele>513.95</ele>
  <time>2026-09-01T20:01:32Z</time>
  <course>239.5</course>
  <speed>33.19</speed>
  <fix>3d</fix>
</trkpt>
<trkpt lat="-27.2717729" lon="151.3435228">
  <ele>512.31</ele>
  <time>2026-09-01T20:01:32Z</time>
  <course>219.68</course>
  <speed>35.5818408742437</speed>
  <fix>3d</fix>
</trkpt>
<trkpt lat="-27.2717165" lon="151.3436128">
  <ele>513.95</ele>
  <time>2026-09-01T20:01:32Z</time>
  <course>239.5</course>
  <speed>33.19</speed>
  <fix>3d</fix>
</trkpt>
<trkpt lat="-27.2717965" lon="151.3434997">
  <ele>513.08</ele>
  <time>2026-09-01T20:01:32Z</time>
  <course>213.6</course>
  <speed>34.035008447185675</speed>
  <fix>3d</fix>
</trkpt>
<trkpt lat="-27.2717516" lon="151.3435533">
  <ele>512.29</ele>
  <time>2026-09-01T20:01:32Z</time>
  <course>231.85</course>
  <speed>36.08</speed>
  <fix>3d</fix>
</trkpt>
<trkpt lat="-27.2718213" lon="151.343481">
  <ele>514.11</ele>
  <time>2026-09-01T20:01:32Z</time>
  <course>208.82</course>
  <speed>32.633099760825665</speed>
  <fix>3d</fix>
</trkpt>
<trkpt lat="-27.2717516" lon="151.3435533">
  <ele>512.29</ele>
  <time>2026-09-01T20:01:32Z</time>
  <course>231.85</course>
  <speed>36.08</speed>
  <fix>3d</fix>
</trkpt>
<trkpt lat="-27.2718467" lon="151.3434658">
  <ele>515.28</ele>
  <time>2026-09-01T20:01:32Z</time>
  <course>205.52</course>
  <speed>31.470756266731183</speed>
  <fix>3d</fix>
</trkpt>
<trkpt lat="-27.2717959" lon="151.3435029">
  <ele>513.16</ele>
  <time>2026-09-01T20:01:32Z</time>
  <course>218.4</course>
  <speed>33.92</speed>
  <fix>3d</fix>
</trkpt>
<trkpt lat="-27.2718722" lon="151.3434532">
  <ele>516.52</ele>
  <time>2026-09-01T20:01:32Z</time>
  <course>203.71</course>
  <speed>30.537822450201</speed>
  <fix>3d</fix>
</trkpt>
<trkpt lat="-27.2717959" lon="151.3435029">
  <ele>513.16</ele>
  <time>2026-09-01T20:01:32Z</time>
  <course>218.4</course>
  <speed>33.92</speed>
  <fix>3d</fix>
</trkpt>
<trkpt lat="-27.2718975" lon="151.3434423">
  <ele>517.79</ele>
  <time>2026-09-01T20:01:32Z</time>
  <course>203.05</course>
  <speed>29.81794426180316</speed>
  <fix>3d</fix>
</trkpt>
<trkpt lat="-27.2718454" lon="151.3434677">
  <ele>515.25</ele>
  <time>2026-09-01T20:01:32Z</time>
  <course>206.73</course>
  <speed>31.55</speed>
  <fix>3d</fix>
</trkpt>
<trkpt lat="-27.2719225" lon="151.3434325">
  <ele>519.03</ele>
  <time>2026-09-01T20:01:32Z</time>
  <course>203.14</course>
  <speed>29.293530002374247</speed>
  <fix>3d</fix>
</trkpt>
<trkpt lat="-27.2718454" lon="151.3434677">
  <ele>515.25</ele>
  <time>2026-09-01T20:01:32Z</time>
  <course>206.73</course>
  <speed>31.55</speed>
  <fix>3d</fix>
</trkpt>
<trkpt lat="-27.2719474" lon="151.3434229">
  <ele>520.25</ele>
  <time>2026-09-01T20:01:32Z</time>
  <course>203.28</course>
  <speed>28.941706929619755</speed>
  <fix>3d</fix>
</trkpt>
<trkpt lat="-27.2718961" lon="151.3434433">
  <ele>517.71</ele>
  <time>2026-09-01T20:01:32Z</time>
  <course>200.63</course>
  <speed>29.94</speed>
  <fix>3d</fix>
</trkpt>
<trkpt lat="-27.2719719" lon="151.3434135">
  <ele>521.37</ele>
  <time>2026-09-01T20:01:32Z</time>
  <course>203.21</course>
  <speed>28.721093293953835</speed>
  <fix>3d</fix>
</trkpt>
<trkpt lat="-27.2718961" lon="151.3434433">
  <ele>517.71</ele>
  <time>2026-09-01T20:01:32Z</time>
  <course>200.63</course>
  <speed>29.94</speed>
  <fix>3d</fix>
</trkpt>
<trkpt lat="-27.2719962" lon="151.343404">
  <ele>522.4</ele>
  <time>2026-09-01T20:01:32Z</time>
  <course>202.84</course>
  <speed>28.59985489473679</speed>
  <fix>3d</fix>
</trkpt>
<trkpt lat="-27.2719459" lon="151.3434234">
  <ele>520.14</ele>
  <time>2026-09-01T20:01:32Z</time>
  <course>198.99</course>
  <speed>29.03</speed>
  <fix>3d</fix>
</trkpt>
<trkpt lat="-27.2720204" lon="151.3433943">
  <ele>523.31</ele>
  <time>2026-09-01T20:01:32Z</time>
  <course>202.19</course>
  <speed>28.53277589019337</speed>
  <fix>3d</fix>
</trkpt>
<trkpt lat="-27.2719459" lon="151.3434234">
  <ele>520.14</ele>
  <time>2026-09-01T20:01:32Z</time>
  <course>198.99</course>
  <speed>29.03</speed>
  <fix>3d</fix>
</trkpt>
<trkpt lat="-27.2720445" lon="151.3433845">
  <ele>524.1</ele>
  <time>2026-09-01T20:01:32Z</time>
  <course>201.44</course>
  <speed>28.462220573946794</speed>
  <fix>3d</fix>
</trkpt>
<trkpt lat="-27.2719947" lon="151.3434044">
  <ele>522.28</ele>
  <time>2026-09-01T20:01:32Z</time>
  <course>199.27</course>
  <speed>28.63</speed>
  <fix>3d</fix>
</trkpt>
<trkpt lat="-27.2720685" lon="151.3433748">
  <ele>524.78</ele>
  <time>2026-09-01T20:01:32Z</time>
  <course>200.64</course>
  <speed>28.400570416806772</speed>
  <fix>3d</fix>
</trkpt>
<trkpt lat="-27.2719947" lon="151.3434044">
  <ele>522.28</ele>
  <time>2026-09-01T20:01:32Z</time>
  <course>199.27</course>
  <speed>28.63</speed>
  <fix>3d</fix>
</trkpt>
<trkpt lat="-27.2720925" lon="151.3433651">
  <ele>525.34</ele>
  <time>2026-09-01T20:01:32Z</time>
  <course>199.9</course>
  <speed>28.31</speed>
  <fix>3d</fix>
</trkpt>
<trkpt lat="-27.2720431" lon="151.3433851">
  <ele>524.0</ele>
  <time>2026-09-01T20:01:32Z</time>
  <course>199.75</course>
  <speed>28.47</speed>
  <fix>3d</fix>
</trkpt>
<trkpt lat="-27.2721163" lon="151.3433552">
  <ele>525.79</ele>
  <time>2026-09-01T20:01:32Z</time>
  <course>199.28</course>
  <speed>28.2007163029594</speed>
  <fix>3d</fix>
</trkpt>
<trkpt lat="-27.2720431" lon="151.3433851">
  <ele>524.0</ele>
  <time>2026-09-01T20:01:32Z</time>
  <course>199.75</course>
  <speed>28.47</speed>
  <fix>3d</fix>
</trkpt>
<trkpt lat="-27.27214" lon="151.3433454">
  <ele>526.16</ele>
  <time>2026-09-01T20:01:32Z</time>
  <course>198.91</course>
  <speed>28.092527476181274</speed>
  <fix>3d</fix>
</trkpt>
<trkpt lat="-27.2720912" lon="151.3433655">
  <ele>525.26</ele>
  <time>2026-09-01T20:01:32Z</time>
  <course>200.02</course>
  <speed>28.31</speed>
  <fix>3d</fix>
</trkpt>
<trkpt lat="-27.2721637" lon="151.3433356">
  <ele>526.46</ele>
  <time>2026-09-01T20:01:32Z</time>
  <course>198.75</course>
  <speed>27.982210420193756</speed>
  <fix>3d</fix>
</trkpt>
<trkpt lat="-27.2720912" lon="151.3433655">
  <ele>525.26</ele>
  <time>2026-09-01T20:01:32Z</time>
  <course>200.02</course>
  <speed>28.31</speed>
  <fix>3d</fix>
</trkpt>
<trkpt lat="-27.2721871" lon="151.3433255">
  <ele>526.66</ele>
  <time>2026-09-01T20:01:32Z</time>
  <course>198.78</course>
  <speed>27.874879371936302</speed>
  <fix>3d</fix>
</trkpt>
<trkpt lat="-27.2721388" lon="151.3433459">
  <ele>526.11</ele>
  <time>2026-09-01T20:01:32Z</time>
  <course>200.31</course>
  <speed>28.1</speed>
  <fix>3d</fix>
</trkpt>
<trkpt lat="-27.2722104" lon="151.3433155">
  <ele>526.83</ele>
  <time>2026-09-01T20:01:32Z</time>
  <course>199.0</course>
  <speed>27.777373885952574</speed>
  <fix>3d</fix>
</trkpt>
<trkpt lat="-27.2721388" lon="151.3433459">
  <ele>526.11</ele>
  <time>2026-09-01T20:01:32Z</time>
  <course>200.31</course>
  <speed>28.1</speed>
  <fix>3d</fix>
</trkpt>
<trkpt lat="-27.2722336" lon="151.3433052">
  <ele>526.93</ele>
  <time>2026-09-01T20:01:32Z</time>
  <course>199.41</course>
  <speed>27.68534811050784</speed>
  <fix>3d</fix>
</trkpt>
<trkpt lat="-27.2721859" lon="151.343326">
  <ele>526.63</ele>
  <time>2026-09-01T20:01:32Z</time>
  <course>200.89</course>
  <speed>27.88</speed>
  <fix>3d</fix>
</trkpt>
<trkpt lat="-27.2722566" lon="151.3432946">
  <ele>526.98</ele>
  <time>2026-09-01T20:01:32Z</time>
  <course>200.01</course>
  <speed>27.606160544342274</speed>
  <fix>3d</fix>
</trkpt>
<trkpt lat="-27.2721859" lon="151.343326">
  <ele>526.63</ele>
  <time>2026-09-01T20:01:32Z</time>
  <course>200.89</course>
  <speed>27.88</speed>
  <fix>3d</fix>
</trkpt>
<trkpt lat="-27.2722794" lon="151.3432837">
  <ele>527.0</ele>
  <time>2026-09-01T20:01:32Z</time>
  <course>200.74</course>
  <speed>27.532486266227394</speed>
  <fix>3d</fix>
</trkpt>
<trkpt lat="-27.2722323" lon="151.3433056">
  <ele>526.9</ele>
  <time>2026-09-01T20:01:32Z</time>
  <course>201.91</course>
  <speed>27.69</speed>
  <fix>3d</fix>
</trkpt>
<trkpt lat="-27.272302" lon="151.3432724">
  <ele>526.97</ele>
  <time>2026-09-01T20:01:32Z</time>
  <course>201.63</course>
  <speed>27.47165084227739</speed>
  <fix>3d</fix>
</trkpt>
<trkpt lat="-27.2722323" lon="151.3433056">
  <ele>526.9</ele>
  <time>2026-09-01T20:01:32Z</time>
  <course>201.91</course>
  <speed>27.69</speed>
  <fix>3d</fix>
</trkpt>
<trkpt lat="-27.2723244" lon="151.3432609">
  <ele>526.91</ele>
  <time>2026-09-01T20:01:32Z</time>
  <course>202.58</course>
  <speed>27.42084061439401</speed>
  <fix>3d</fix>
</trkpt>
<trkpt lat="-27.2722781" lon="151.3432841">
  <ele>526.98</ele>
  <time>2026-09-01T20:01:32Z</time>
  <course>203.39</course>
  <speed>27.54</speed>
  <fix>3d</fix>
</trkpt>
<trkpt lat="-27.2723465" lon="151.3432488">
  <ele>526.84</ele>
  <time>2026-09-01T20:01:32Z</time>
  <course>203.64</course>
  <speed>27.38302028630151</speed>
  <fix>3d</fix>
</trkpt>
<trkpt lat="-27.2722781" lon="151.3432841">
  <ele>526.98</ele>
  <time>2026-09-01T20:01:32Z</time>
  <course>203.39</course>
  <speed>27.54</speed>
  <fix>3d</fix>
</trkpt>
<trkpt lat="-27.2723684" lon="151.3432363">
  <ele>526.74</ele>
  <time>2026-09-01T20:01:32Z</time>
  <course>204.82</course>
  <speed>27.34227678888501</speed>
  <fix>3d</fix>
</trkpt>
<trkpt lat="-27.2723231" lon="151.3432612">
  <ele>526.91</ele>
  <time>2026-09-01T20:01:32Z</time>
  <course>205.29</course>
  <speed>27.43</speed>
  <fix>3d</fix>
</trkpt>
<trkpt lat="-27.27239" lon="151.3432231">
  <ele>526.62</ele>
  <time>2026-09-01T20:01:32Z</time>
  <course>206.01</course>
  <speed>27.313844474917843</speed>
  <fix>3d</fix>
</trkpt>
<trkpt lat="-27.2723231" lon="151.3432612">
  <ele>526.91</ele>
  <time>2026-09-01T20:01:32Z</time>
  <course>205.29</course>
  <speed>27.43</speed>
  <fix>3d</fix>
</trkpt>
<trkpt lat="-27.2724114" lon="151.3432097">
  <ele>526.49</ele>
  <time>2026-09-01T20:01:32Z</time>
  <course>207.18</course>
  <speed>27.280522355702796</speed>
  <fix>3d</fix>
</trkpt>
<trkpt lat="-27.2723672" lon="151.3432366">
  <ele>526.74</ele>
  <time>2026-09-01T20:01:32Z</time>
  <course>207.53</course>
  <speed>27.34</speed>
  <fix>3d</fix>
</trkpt>
<trkpt lat="-27.2724325" lon="151.3431956">
  <ele>526.34</ele>
  <time>2026-09-01T20:01:32Z</time>
  <course>208.26</course>
  <speed>27.254900476794997</speed>
  <fix>3d</fix>
</trkpt>
<trkpt lat="-27.2723672" lon="151.3432366">
  <ele>526.74</ele>
  <time>2026-09-01T20:01:32Z</time>
  <course>207.53</course>
  <speed>27.34</speed>
  <fix>3d</fix>
</trkpt>
<trkpt lat="-27.2724532" lon="151.343181">
  <ele>526.18</ele>
  <time>2026-09-01T20:01:32Z</time>
  <course>209.17</course>
  <speed>27.22881194617202</speed>
  <fix>3d</fix>
</trkpt>
<trkpt lat="-27.2724102" lon="151.3432101">
  <ele>526.48</ele>
  <time>2026-09-01T20:01:32Z</time>
  <course>209.95</course>
  <speed>27.28</speed>
  <fix>3d</fix>
</trkpt>
<trkpt lat="-27.2724738" lon="151.3431661">
  <ele>526.01</ele>
  <time>2026-09-01T20:01:32Z</time>
  <course>209.89</course>
  <speed>27.205596850648213</speed>
  <fix>3d</fix>
</trkpt>
<trkpt lat="-27.2724102" lon="151.3432101">
  <ele>526.48</ele>
  <time>2026-09-01T20:01:32Z</time>
  <course>209.95</course>
  <speed>27.28</speed>
  <fix>3d</fix>
</trkpt>
<trkpt lat="-27.272494" lon="151.3431508">
  <ele>525.83</ele>
  <time>2026-09-01T20:01:32Z</time>
  <course>210.63</course>
  <speed>27.170493186543375</speed>
  <fix>3d</fix>
</trkpt>
<trkpt lat="-27.272452" lon="151.3431815">
  <ele>526.18</ele>
  <time>2026-09-01T20:01:32Z</time>
  <course>212.28</course>
  <speed>27.23</speed>
  <fix>3d</fix>
</trkpt>
<trkpt lat="-27.2725141" lon="151.3431353">
  <ele>525.65</ele>
  <time>2026-09-01T20:01:32Z</time>
  <course>211.35</course>
  <speed>27.14525741266787</speed>
  <fix>3d</fix>
</trkpt>
<trkpt lat="-27.272452" lon="151.3431815">
  <ele>526.18</ele>
  <time>2026-09-01T20:01:32Z</time>
  <course>212.28</course>
  <speed>27.23</speed>
  <fix>3d</fix>
</trkpt>
<trkpt lat="-27.272534" lon="151.3431194">
  <ele>525.47</ele>
  <time>2026-09-01T20:01:32Z</time>
  <course>212.04</course>
  <speed>27.105462549087775</speed>
  <fix>3d</fix>
</trkpt>
<trkpt lat="-27.272493" lon="151.3431514">
  <ele>525.83</ele>
  <time>2026-09-01T20:01:32Z</time>
  <course>214.13</course>
  <speed>27.17</speed>
  <fix>3d</fix>
</trkpt>
<trkpt lat="-27.2725538" lon="151.3431034">
  <ele>525.27</ele>
  <time>2026-09-01T20:01:32Z</time>
  <course>212.69</course>
  <speed>27.07135201647675</speed>
  <fix>3d</fix>
</trkpt>
<trkpt lat="-27.272493" lon="151.3431514">
  <ele>525.83</ele>
  <time>2026-09-01T20:01:32Z</time>
  <course>214.13</course>
  <speed>27.17</speed>
  <fix>3d</fix>
</trkpt>
<trkpt lat="-27.2725735" lon="151.3430871">
  <ele>525.07</ele>
  <time>2026-09-01T20:01:32Z</time>
  <course>213.29</course>
  <speed>27.023193741673094</speed>
  <fix>3d</fix>
</trkpt>
<trkpt lat="-27.272533" lon="151.34312">
  <ele>525.47</ele>
  <time>2026-09-01T20:01:32Z</time>
  <course>215.43</course>
  <speed>27.11</speed>
  <fix>3d</fix>
</trkpt>
<trkpt lat="-27.2725931" lon="151.3430709">
  <ele>524.86</ele>
  <time>2026-09-01T20:01:32Z</time>
  <course>213.87</course>
  <speed>26.988249294832002</speed>
  <fix>3d</fix>
</trkpt>
<trkpt lat="-27.272533" lon="151.34312">
  <ele>525.47</ele>
  <time>2026-09-01T20:01:32Z</time>
  <course>215.43</course>
  <speed>27.11</speed>
  <fix>3d</fix>
</trkpt>
<trkpt lat="-27.2726125" lon="151.3430545">
  <ele>524.65</ele>
  <time>2026-09-01T20:01:32Z</time>
  <course>214.42</course>
  <speed>26.95800066770531</speed>
  <fix>3d</fix>
</trkpt>
<trkpt lat="-27.2725724" lon="151.3430879">
  <ele>525.07</ele>
  <time>2026-09-01T20:01:32Z</time>
  <course>216.28</course>
  <speed>27.03</speed>
  <fix>3d</fix>
</trkpt>
<trkpt lat="-27.2726318" lon="151.3430383">
  <ele>524.43</ele>
  <time>2026-09-01T20:01:32Z</time>
  <course>214.89</course>
  <speed>26.930150389479817</speed>
  <fix>3d</fix>
</trkpt>
<trkpt lat="-27.2725724" lon="151.3430879">
  <ele>525.07</ele>
  <time>2026-09-01T20:01:32Z</time>
  <course>216.28</course>
  <speed>27.03</speed>
  <fix>3d</fix>
</trkpt>
<trkpt lat="-27.2726511" lon="151.3430219">
  <ele>524.21</ele>
  <time>2026-09-01T20:01:32Z</time>
  <course>215.3</course>
  <speed>26.900418212362425</speed>
  <fix>3d</fix>
</trkpt>
<trkpt lat="-27.2726114" lon="151.3430554">
  <ele>524.65</ele>
  <time>2026-09-01T20:01:32Z</time>
  <course>216.83</course>
  <speed>26.96</speed>
  <fix>3d</fix>
</trkpt>
<trkpt lat="-27.2726703" lon="151.3430053">
  <ele>523.98</ele>
  <time>2026-09-01T20:01:32Z</time>
  <course>215.63</course>
  <speed>26.87877415359562</speed>
  <fix>3d</fix>
</trkpt>
<trkpt lat="-27.2726114" lon="151.3430554">
  <ele>524.65</ele>
  <time>2026-09-01T20:01:32Z</time>
  <course>216.83</course>
  <speed>26.96</speed>
  <fix>3d</fix>
</trkpt>
<trkpt lat="-27.2726895" lon="151.3429889">
  <ele>523.76</ele>
  <time>2026-09-01T20:01:32Z</time>
  <course>215.92</course>
  <speed>26.859108324737814</speed>
  <fix>3d</fix>
</trkpt>
<trkpt lat="-27.27265" lon="151.3430226">
  <ele>524.21</ele>
  <time>2026-09-01T20:01:32Z</time>
  <course>217.17</course>
  <speed>26.91</speed>
  <fix>3d</fix>
</trkpt>
<trkpt lat="-27.2727086" lon="151.3429723">
  <ele>523.54</ele>
  <time>2026-09-01T20:01:32Z</time>
  <course>216.11</course>
  <speed>26.835279018486094</speed>
  <fix>3d</fix>
</trkpt>
<trkpt lat="-27.27265" lon="151.3430226">
  <ele>524.21</ele>
  <time>2026-09-01T20:01:32Z</time>
  <course>217.17</course>
  <speed>26.91</speed>
  <fix>3d</fix>
</trkpt>
<trkpt lat="-27.2727278" lon="151.3429559">
  <ele>523.35</ele>
  <time>2026-09-01T20:01:32Z</time>
  <course>216.25</course>
  <speed>26.821260223934296</speed>
  <fix>3d</fix>
</trkpt>
<trkpt lat="-27.2726885" lon="151.3429897">
  <ele>523.77</ele>
  <time>2026-09-01T20:01:32Z</time>
  <course>217.37</course>
  <speed>26.86</speed>
  <fix>3d</fix>
</trkpt>
<trkpt lat="-27.2727469" lon="151.3429395">
  <ele>523.16</ele>
  <time>2026-09-01T20:01:32Z</time>
  <course>216.42</course>
  <speed>26.801166019410424</speed>
  <fix>3d</fix>
</trkpt>
<trkpt lat="-27.2726885" lon="151.3429897">
  <ele>523.77</ele>
  <time>2026-09-01T20:01:32Z</time>
  <course>217.37</course>
  <speed>26.86</speed>
  <fix>3d</fix>
</trkpt>
<trkpt lat="-27.272766" lon="151.3429231">
  <ele>523.01</ele>
  <time>2026-09-01T20:01:32Z</time>
  <course>216.46</course>
  <speed>26.768937222086347</speed>
  <fix>3d</fix>
</trkpt>
<trkpt lat="-27.2727268" lon="151.3429567">
  <ele>523.36</ele>
  <time>2026-09-01T20:01:32Z</time>
  <course>217.42</course>
  <speed>26.82</speed>
  <fix>3d</fix>
</trkpt>
<trkpt lat="-27.2727851" lon="151.3429066">
  <ele>522.89</ele>
  <time>2026-09-01T20:01:32Z</time>
  <course>216.46</course>
  <speed>26.73257937423922</speed>
  <fix>3d</fix>
</trkpt>
<trkpt lat="-27.2727268" lon="151.3429567">
  <ele>523.36</ele>
  <time>2026-09-01T20:01:32Z</time>
  <course>217.42</course>
  <speed>26.82</speed>
  <fix>3d</fix>
</trkpt>
<trkpt lat="-27.2728042" lon="151.3428903">
  <ele>522.79</ele>
  <time>2026-09-01T20:01:32Z</time>
  <course>216.41</course>
  <speed>26.676260982379073</speed>
  <fix>3d</fix>
</trkpt>
<trkpt lat="-27.272765" lon="151.3429239">
  <ele>523.03</ele>
  <time>2026-09-01T20:01:32Z</time>
  <course>217.33</course>
  <speed>26.77</speed>
  <fix>3d</fix>
</trkpt>
<trkpt lat="-27.2728233" lon="151.3428741">
  <ele>522.76</ele>
  <time>2026-09-01T20:01:32Z</time>
  <course>216.35</course>
  <speed>26.608036380011207</speed>
  <fix>3d</fix>
</trkpt>
<trkpt lat="-27.272765" lon="151.3429239">
  <ele>523.03</ele>
  <time>2026-09-01T20:01:32Z</time>
  <course>217.33</course>
  <speed>26.77</speed>
  <fix>3d</fix>
</trkpt>
<trkpt lat="-27.2728424" lon="151.342858">
  <ele>522.75</ele>
  <time>2026-09-01T20:01:32Z</time>
  <course>216.29</course>
  <speed>26.514043448708456</speed>
  <fix>3d</fix>
</trkpt>
<trkpt lat="-27.2728033" lon="151.3428912">
  <ele>522.83</ele>
  <time>2026-09-01T20:01:32Z</time>
  <course>217.11</course>
  <speed>26.67</speed>
  <fix>3d</fix>
</trkpt>
<trkpt lat="-27.2728615" lon="151.342842">
  <ele>522.79</ele>
  <time>2026-09-01T20:01:32Z</time>
  <course>216.16</course>
  <speed>26.40638180440478</speed>
  <fix>3d</fix>
</trkpt>
<trkpt lat="-27.2728033" lon="151.3428912">
  <ele>522.83</ele>
  <time>2026-09-01T20:01:32Z</time>
  <course>217.11</course>
  <speed>26.67</speed>
  <fix>3d</fix>
</trkpt>
<trkpt lat="-27.2728805" lon="151.3428262">
  <ele>522.88</ele>
  <time>2026-09-01T20:01:32Z</time>
  <course>215.93</course>
  <speed>26.27322781844667</speed>
  <fix>3d</fix>
</trkpt>
<trkpt lat="-27.2728414" lon="151.3428589">
  <ele>522.77</ele>
  <time>2026-09-01T20:01:32Z</time>
  <course>216.77</course>
  <speed>26.51</speed>
  <fix>3d</fix>
</trkpt>
<trkpt lat="-27.2728995" lon="151.3428106">
  <ele>523.01</ele>
  <time>2026-09-01T20:01:32Z</time>
  <course>215.76</course>
  <speed>26.118508762944334</speed>
  <fix>3d</fix>
</trkpt>
<trkpt lat="-27.2728414" lon="151.3428589">
  <ele>522.77</ele>
  <time>2026-09-01T20:01:32Z</time>
  <course>216.77</course>
  <speed>26.51</speed>
  <fix>3d</fix>
</trkpt>
<trkpt lat="-27.2729184" lon="151.3427951">
  <ele>523.16</ele>
  <time>2026-09-01T20:01:32Z</time>
  <course>215.61</course>
  <speed>25.9187846937313</speed>
  <fix>3d</fix>
</trkpt>
<trkpt lat="-27.2728795" lon="151.3428271">
  <ele>522.9</ele>
  <time>2026-09-01T20:01:32Z</time>
  <course>216.33</course>
  <speed>26.27</speed>
  <fix>3d</fix>
</trkpt>
<trkpt lat="-27.2729373" lon="151.34278">
  <ele>523.35</ele>
  <time>2026-09-01T20:01:32Z</time>
  <course>215.46</course>
  <speed>25.660592354815194</speed>
  <fix>3d</fix>
</trkpt>
<trkpt lat="-27.2728795" lon="151.3428271">
  <ele>522.9</ele>
  <time>2026-09-01T20:01:32Z</time>
  <course>216.33</course>
  <speed>26.27</speed>
  <fix>3d</fix>
</trkpt>
<trkpt lat="-27.272956" lon="151.3427652">
  <ele>523.54</ele>
  <time>2026-09-01T20:01:32Z</time>
  <course>215.34</course>
  <speed>25.33639674460439</speed>
  <fix>3d</fix>
</trkpt>
<trkpt lat="-27.2729175" lon="151.342796">
  <ele>523.17</ele>
  <time>2026-09-01T20:01:32Z</time>
  <course>215.74</course>
  <speed>25.9</speed>
  <fix>3d</fix>
</trkpt>
<trkpt lat="-27.2729746" lon="151.3427506">
  <ele>523.75</ele>
  <time>2026-09-01T20:01:32Z</time>
  <course>215.2</course>
  <speed>24.966926122372374</speed>
  <fix>3d</fix>
</trkpt>
<trkpt lat="-27.2729175" lon="151.342796">
  <ele>523.17</ele>
  <time>2026-09-01T20:01:32Z</time>
  <course>215.74</course>
  <speed>25.9</speed>
  <fix>3d</fix>
</trkpt>
<trkpt lat="-27.2729929" lon="151.3427366">
  <ele>523.97</ele>
  <time>2026-09-01T20:01:32Z</time>
  <course>215.02</course>
  <speed>24.554465988899047</speed>
  <fix>3d</fix>
</trkpt>
<trkpt lat="-27.2729551" lon="151.3427659">
  <ele>523.54</ele>
  <time>2026-09-01T20:01:32Z</time>
  <course>214.96</course>
  <speed>25.33</speed>
  <fix>3d</fix>
</trkpt>
<trkpt lat="-27.2730111" lon="151.3427228">
  <ele>524.19</ele>
  <time>2026-09-01T20:01:32Z</time>
  <course>214.79</course>
  <speed>24.135036772294338</speed>
  <fix>3d</fix>
</trkpt>
<trkpt lat="-27.2729551" lon="151.3427659">
  <ele>523.54</ele>
  <time>2026-09-01T20:01:32Z</time>
  <course>214.96</course>
  <speed>25.33</speed>
  <fix>3d</fix>
</trkpt>
<trkpt lat="-27.2730289" lon="151.3427094">
  <ele>524.4</ele>
  <time>2026-09-01T20:01:32Z</time>
  <course>214.54</course>
  <speed>23.72463698352411</speed>
  <fix>3d</fix>
</trkpt>
<trkpt lat="-27.272992" lon="151.3427373">
  <ele>523.95</ele>
  <time>2026-09-01T20:01:32Z</time>
  <course>214.17</course>
  <speed>24.57</speed>
  <fix>3d</fix>
</trkpt>
<trkpt lat="-27.2730466" lon="151.3426964">
  <ele>524.6</ele>
  <time>2026-09-01T20:01:32Z</time>
  <course>214.29</course>
  <speed>23.339584400755726</speed>
  <fix>3d</fix>
</trkpt>
<trkpt lat="-27.272992" lon="151.3427373">
  <ele>523.95</ele>
  <time>2026-09-01T20:01:32Z</time>
  <course>214.17</course>
  <speed>24.57</speed>
  <fix>3d</fix>
</trkpt>
<trkpt lat="-27.273064" lon="151.3426835">
  <ele>524.77</ele>
  <time>2026-09-01T20:01:32Z</time>
  <course>214.05</course>
  <speed>22.979664923579715</speed>
  <fix>3d</fix>
</trkpt>
<trkpt lat="-27.2730281" lon="151.3427101">
  <ele>524.38</ele>
  <time>2026-09-01T20:01:32Z</time>
  <course>213.55</course>
  <speed>23.75</speed>
  <fix>3d</fix>
</trkpt>
<trkpt lat="-27.2730812" lon="151.342671">
  <ele>524.91</ele>
  <time>2026-09-01T20:01:32Z</time>
  <course>213.84</course>
  <speed>22.64175346566604</speed>
  <fix>3d</fix>
</trkpt>
<trkpt lat="-27.2730281" lon="151.3427101">
  <ele>524.38</ele>
  <time>2026-09-01T20:01:32Z</time>
  <course>213.55</course>
  <speed>23.75</speed>
  <fix>3d</fix>
</trkpt>
<trkpt lat="-27.2730983" lon="151.3426586">
  <ele>525.01</ele>
  <time>2026-09-01T20:01:32Z</time>
  <course>213.63</course>
  <speed>22.326148346725642</speed>
  <fix>3d</fix>
</trkpt>
<trkpt lat="-27.2730632" lon="151.3426842">
  <ele>524.74</ele>
  <time>2026-09-01T20:01:32Z</time>
  <course>213.14</course>
  <speed>23.01</speed>
  <fix>3d</fix>
</trkpt>
<trkpt lat="-27.273115" lon="151.3426464">
  <ele>525.08</ele>
  <time>2026-09-01T20:01:32Z</time>
  <course>213.45</course>
  <speed>22.02987290022346</speed>
  <fix>3d</fix>
</trkpt>
<trkpt lat="-27.2730632" lon="151.3426842">
  <ele>524.74</ele>
  <time>2026-09-01T20:01:32Z</time>
  <course>213.14</course>
  <speed>23.01</speed>
  <fix>3d</fix>
</trkpt>
<trkpt lat="-27.2731315" lon="151.3426343">
  <ele>525.11</ele>
  <time>2026-09-01T20:01:32Z</time>
  <course>213.27</course>
  <speed>21.74747111735063</speed>
  <fix>3d</fix>
</trkpt>
<trkpt lat="-27.2730973" lon="151.3426592">
  <ele>524.98</ele>
  <time>2026-09-01T20:01:32Z</time>
  <course>212.89</course>
  <speed>22.35</speed>
  <fix>3d</fix>
</trkpt>
<trkpt lat="-27.2731479" lon="151.3426227">
  <ele>525.1</ele>
  <time>2026-09-01T20:01:32Z</time>
  <course>213.11</course>
  <speed>21.487354420681946</speed>
  <fix>3d</fix>
</trkpt>
<trkpt lat="-27.2730973" lon="151.3426592">
  <ele>524.98</ele>
  <time>2026-09-01T20:01:32Z</time>
  <course>212.89</course>
  <speed>22.35</speed>
  <fix>3d</fix>
</trkpt>
<trkpt lat="-27.273164" lon="151.342611">
  <ele>525.07</ele>
  <time>2026-09-01T20:01:32Z</time>
  <course>212.96</course>
  <speed>21.2326729358317</speed>
  <fix>3d</fix>
</trkpt>
<trkpt lat="-27.2731306" lon="151.3426351">
  <ele>525.08</ele>
  <time>2026-09-01T20:01:32Z</time>
  <course>212.7</course>
  <speed>21.77</speed>
  <fix>3d</fix>
</trkpt>
<trkpt lat="-27.27318" lon="151.3425996">
  <ele>525.01</ele>
  <time>2026-09-01T20:01:32Z</time>
  <course>212.82</course>
  <speed>20.99490414362495</speed>
  <fix>3d</fix>
</trkpt>
<trkpt lat="-27.2731306" lon="151.3426351">
  <ele>525.08</ele>
  <time>2026-09-01T20:01:32Z</time>
  <course>212.7</course>
  <speed>21.77</speed>
  <fix>3d</fix>
</trkpt>
<trkpt lat="-27.2731959" lon="151.3425883">
  <ele>524.93</ele>
  <time>2026-09-01T20:01:32Z</time>
  <course>212.69</course>
  <speed>20.767907935080995</speed>
  <fix>3d</fix>
</trkpt>
<trkpt lat="-27.2731631" lon="151.3426116">
  <ele>525.06</ele>
  <time>2026-09-01T20:01:32Z</time>
  <course>212.53</course>
  <speed>21.25</speed>
  <fix>3d</fix>
</trkpt>
<trkpt lat="-27.2732115" lon="151.3425771">
  <ele>524.84</ele>
  <time>2026-09-01T20:01:32Z</time>
  <course>212.58</course>
  <speed>20.563183119351926</speed>
  <fix>3d</fix>
</trkpt>
<trkpt lat="-27.2731631" lon="151.3426116">
  <ele>525.06</ele>
  <time>2026-09-01T20:01:32Z</time>
  <course>212.53</course>
  <speed>21.25</speed>
  <fix>3d</fix>
</trkpt>
<trkpt lat="-27.2732271" lon="151.3425661">
  <ele>524.72</ele>
  <time>2026-09-01T20:01:32Z</time>
  <course>212.47</course>
  <speed>20.358487173658066</speed>
  <fix>3d</fix>
</trkpt>
<trkpt lat="-27.273195" lon="151.3425889">
  <ele>524.93</ele>
  <time>2026-09-01T20:01:32Z</time>
  <course>212.38</course>
  <speed>20.79</speed>
  <fix>3d</fix>
</trkpt>
<trkpt lat="-27.2732425" lon="151.3425551">
  <ele>524.6</ele>
  <time>2026-09-01T20:01:32Z</time>
  <course>212.37</course>
  <speed>20.16761017076639</speed>
  <fix>3d</fix>
</trkpt>
<trkpt lat="-27.273195" lon="151.3425889">
  <ele>524.93</ele>
  <time>2026-09-01T20:01:32Z</time>
  <course>212.38</course>
  <speed>20.79</speed>
  <fix>3d</fix>
</trkpt>
<trkpt lat="-27.2732578" lon="151.3425442">
  <ele>524.46</ele>
  <time>2026-09-01T20:01:32Z</time>
  <course>212.29</course>
  <speed>19.99054276401719</speed>
  <fix>3d</fix>
</trkpt>
<trkpt lat="-27.2732262" lon="151.3425667">
  <ele>524.72</ele>
  <time>2026-09-01T20:01:32Z</time>
  <course>212.25</course>
  <speed>20.38</speed>
  <fix>3d</fix>
</trkpt>
<trkpt lat="-27.2732729" lon="151.3425337">
  <ele>524.32</ele>
  <time>2026-09-01T20:01:32Z</time>
  <course>212.21</course>
  <speed>19.821967611718065</speed>
  <fix>3d</fix>
</trkpt>
<trkpt lat="-27.2732262" lon="151.3425667">
  <ele>524.72</ele>
  <time>2026-09-01T20:01:32Z</time>
  <course>212.25</course>
  <speed>20.38</speed>
  <fix>3d</fix>
</trkpt>
<trkpt lat="-27.2732879" lon="151.3425231">
  <ele>524.16</ele>
  <time>2026-09-01T20:01:32Z</time>
  <course>212.14</course>
  <speed>19.658720711175487</speed>
  <fix>3d</fix>
</trkpt>
<trkpt lat="-27.273257" lon="151.3425449">
  <ele>524.46</ele>
  <time>2026-09-01T20:01:32Z</time>
  <course>212.12</course>
  <speed>20.0</speed>
  <fix>3d</fix>
</trkpt>
<trkpt lat="-27.2733028" lon="151.3425126">
  <ele>524.0</ele>
  <time>2026-09-01T20:01:32Z</time>
  <course>212.08</course>
  <speed>19.49548665717273</speed>
  <fix>3d</fix>
</trkpt>
<trkpt lat="-27.273257" lon="151.3425449">
  <ele>524.46</ele>
  <time>2026-09-01T20:01:32Z</time>
  <course>212.12</course>
  <speed>20.0</speed>
  <fix>3d</fix>
</trkpt>
<trkpt lat="-27.2733177" lon="151.3425021">
  <ele>523.84</ele>
  <time>2026-09-01T20:01:32Z</time>
  <course>212.02</course>
  <speed>19.34924546332492</speed>
  <fix>3d</fix>
</trkpt>
<trkpt lat="-27.2732872" lon="151.3425235">
  <ele>524.16</ele>
  <time>2026-09-01T20:01:32Z</time>
  <course>212.01</course>
  <speed>19.67</speed>
  <fix>3d</fix>
</trkpt>
<trkpt lat="-27.2733324" lon="151.3424919">
  <ele>523.66</ele>
  <time>2026-09-01T20:01:32Z</time>
  <course>211.96</course>
  <speed>19.199817707467954</speed>
  <fix>3d</fix>
</trkpt>
<trkpt lat="-27.2732872" lon="151.3425235">
  <ele>524.16</ele>
  <time>2026-09-01T20:01:32Z</time>
  <course>212.01</course>
  <speed>19.67</speed>
  <fix>3d</fix>
</trkpt>
<trkpt lat="-27.273347" lon="151.3424816">
  <ele>523.49</ele>
  <time>2026-09-01T20:01:32Z</time>
  <course>211.9</course>
  <speed>19.064167959814036</speed>
  <fix>3d</fix>
</trkpt>
<trkpt lat="-27.2733169" lon="151.3425027">
  <ele>523.84</ele>
  <time>2026-09-01T20:01:32Z</time>
  <course>211.9</course>
  <speed>19.36</speed>
  <fix>3d</fix>
</trkpt>
<trkpt lat="-27.2733615" lon="151.3424715">
  <ele>523.32</ele>
  <time>2026-09-01T20:01:32Z</time>
  <course>211.85</course>
  <speed>18.931761671857164</speed>
  <fix>3d</fix>
</trkpt>
<trkpt lat="-27.2733169" lon="151.3425027">
  <ele>523.84</ele>
  <time>2026-09-01T20:01:32Z</time>
  <course>211.9</course>
  <speed>19.36</speed>
  <fix>3d</fix>
</trkpt>
<trkpt lat="-27.2733759" lon="151.3424616">
  <ele>523.14</ele>
  <time>2026-09-01T20:01:32Z</time>
  <course>211.8</course>
  <speed>18.80463772583774</speed>
  <fix>3d</fix>
</trkpt>
<trkpt lat="-27.2733463" lon="151.3424822">
  <ele>523.5</ele>
  <time>2026-09-01T20:01:32Z</time>
  <course>211.8</course>
  <speed>19.08</speed>
  <fix>3d</fix>
</trkpt>
<trkpt lat="-27.2733902" lon="151.3424516">
  <ele>522.95</ele>
  <time>2026-09-01T20:01:32Z</time>
  <course>211.75</course>
  <speed>18.677526602845465</speed>
  <fix>3d</fix>
</trkpt>
<trkpt lat="-27.2733463" lon="151.3424822">
  <ele>523.5</ele>
  <time>2026-09-01T20:01:32Z</time>
  <course>211.8</course>
  <speed>19.08</speed>
  <fix>3d</fix>
</trkpt>
<trkpt lat="-27.2734044" lon="151.3424418">
  <ele>522.77</ele>
  <time>2026-09-01T20:01:32Z</time>
  <course>211.7</course>
  <speed>18.56418595037229</speed>
  <fix>3d</fix>
</trkpt>
<trkpt lat="-27.2733752" lon="151.342462">
  <ele>523.14</ele>
  <time>2026-09-01T20:01:32Z</time>
  <course>211.7</course>
  <speed>18.81</speed>
  <fix>3d</fix>
</trkpt>
<trkpt lat="-27.2734186" lon="151.342432">
  <ele>522.58</ele>
  <time>2026-09-01T20:01:32Z</time>
  <course>211.66</course>
  <speed>18.442334450931096</speed>
  <fix>3d</fix>
</trkpt>
<trkpt lat="-27.2733752" lon="151.342462">
  <ele>523.14</ele>
  <time>2026-09-01T20:01:32Z</time>
  <course>211.7</course>
  <speed>18.81</speed>
  <fix>3d</fix>
</trkpt>
<trkpt lat="-27.2734327" lon="151.3424222">
  <ele>522.39</ele>
  <time>2026-09-01T20:01:32Z</time>
  <course>211.61</course>
  <speed>18.337529822743303</speed>
  <fix>3d</fix>
</trkpt>
<trkpt lat="-27.2734037" lon="151.3424422">
  <ele>522.77</ele>
  <time>2026-09-01T20:01:32Z</time>
  <course>211.61</course>
  <speed>18.57</speed>
  <fix>3d</fix>
</trkpt>
<trkpt lat="-27.2734467" lon="151.3424126">
  <ele>522.2</ele>
  <time>2026-09-01T20:01:32Z</time>
  <course>211.57</course>
  <speed>18.22421466071995</speed>
  <fix>3d</fix>
</trkpt>
<trkpt lat="-27.2734037" lon="151.3424422">
  <ele>522.77</ele>
  <time>2026-09-01T20:01:32Z</time>
  <course>211.61</course>
  <speed>18.57</speed>
  <fix>3d</fix>
</trkpt>
<trkpt lat="-27.2734606" lon="151.342403">
  <ele>522.0</ele>
  <time>2026-09-01T20:01:32Z</time>
  <course>211.53</course>
  <speed>18.11943983681615</speed>
  <fix>3d</fix>
</trkpt>
<trkpt lat="-27.273432" lon="151.3424226">
  <ele>522.4</ele>
  <time>2026-09-01T20:01:32Z</time>
  <course>211.53</course>
  <speed>18.34</speed>
  <fix>3d</fix>
</trkpt>
<trkpt lat="-27.2734744" lon="151.3423934">
  <ele>521.81</ele>
  <time>2026-09-01T20:01:32Z</time>
  <course>211.49</course>
  <speed>18.01989178657852</speed>
  <fix>3d</fix>
</trkpt>
<trkpt lat="-27.273432" lon="151.3424226">
  <ele>522.4</ele>
  <time>2026-09-01T20:01:32Z</time>
  <course>211.53</course>
  <speed>18.34</speed>
  <fix>3d</fix>
</trkpt>
<trkpt lat="-27.2734882" lon="151.3423839">
  <ele>521.62</ele>
  <time>2026-09-01T20:01:32Z</time>
  <course>211.45</course>
  <speed>17.920348768927465</speed>
  <fix>3d</fix>
</trkpt>
<trkpt lat="-27.27346" lon="151.3424034">
  <ele>522.01</ele>
  <time>2026-09-01T20:01:32Z</time>
  <course>211.45</course>
  <speed>18.12</speed>
  <fix>3d</fix>
</trkpt>
<trkpt lat="-27.273502" lon="151.3423746">
  <ele>521.41</ele>
  <time>2026-09-01T20:01:32Z</time>
  <course>211.41</course>
  <speed>17.820810868195643</speed>
  <fix>3d</fix>
</trkpt>
<trkpt lat="-27.27346" lon="151.3424034">
  <ele>522.01</ele>
  <time>2026-09-01T20:01:32Z</time>
  <course>211.45</course>
  <speed>18.12</speed>
  <fix>3d</fix>
</trkpt>
<trkpt lat="-27.2735157" lon="151.3423652">
  <ele>521.22</ele>
  <time>2026-09-01T20:01:32Z</time>
  <course>211.37</course>
  <speed>17.72127817060609</speed>
  <fix>3d</fix>
</trkpt>
<trkpt lat="-27.2734876" lon="151.3423844">
  <ele>521.62</ele>
  <time>2026-09-01T20:01:32Z</time>
  <course>211.37</course>
  <speed>17.92</speed>
  <fix>3d</fix>
</trkpt>
<trkpt lat="-27.2735292" lon="151.342356">
  <ele>521.02</ele>
  <time>2026-09-01T20:01:32Z</time>
  <course>211.33</course>
  <speed>17.63029778534668</speed>
  <fix>3d</fix>
</trkpt>
<trkpt lat="-27.2734876" lon="151.3423844">
  <ele>521.62</ele>
  <time>2026-09-01T20:01:32Z</time>
  <course>211.37</course>
  <speed>17.92</speed>
  <fix>3d</fix>
</trkpt>
<trkpt lat="-27.2735428" lon="151.3423467">
  <ele>520.82</ele>
  <time>2026-09-01T20:01:32Z</time>
  <course>211.3</course>
  <speed>17.5445148123281</speed>
  <fix>3d</fix>
</trkpt>
<trkpt lat="-27.2735149" lon="151.3423657">
  <ele>521.22</ele>
  <time>2026-09-01T20:01:32Z</time>
  <course>211.3</course>
  <speed>17.73</speed>
  <fix>3d</fix>
</trkpt>
<trkpt lat="-27.2735562" lon="151.3423375">
  <ele>520.62</ele>
  <time>2026-09-01T20:01:32Z</time>
  <course>211.26</course>
  <speed>17.453552646954144</speed>
  <fix>3d</fix>
</trkpt>
<trkpt lat="-27.2735149" lon="151.3423657">
  <ele>521.22</ele>
  <time>2026-09-01T20:01:32Z</time>
  <course>211.3</course>
  <speed>17.73</speed>
  <fix>3d</fix>
</trkpt>
<trkpt lat="-27.2735696" lon="151.3423283">
  <ele>520.41</ele>
  <time>2026-09-01T20:01:32Z</time>
  <course>211.23</course>
  <speed>17.37633448112691</speed>
  <fix>3d</fix>
</trkpt>
<trkpt lat="-27.2735421" lon="151.3423471">
  <ele>520.83</ele>
  <time>2026-09-01T20:01:32Z</time>
  <course>211.23</course>
  <speed>17.55</speed>
  <fix>3d</fix>
</trkpt>
<trkpt lat="-27.2735829" lon="151.3423193">
  <ele>520.22</ele>
  <time>2026-09-01T20:01:32Z</time>
  <course>211.2</course>
  <speed>17.290563900578835</speed>
  <fix>3d</fix>
</trkpt>
<trkpt lat="-27.2735421" lon="151.3423471">
  <ele>520.83</ele>
  <time>2026-09-01T20:01:32Z</time>
  <course>211.23</course>
  <speed>17.55</speed>
  <fix>3d</fix>
</trkpt>
<trkpt lat="-27.2735962" lon="151.3423104">
  <ele>520.02</ele>
  <time>2026-09-01T20:01:32Z</time>
  <course>211.16</course>
  <speed>17.21335818485167</speed>
  <fix>3d</fix>
</trkpt>
<trkpt lat="-27.273569" lon="151.3423288">
  <ele>520.43</ele>
  <time>2026-09-01T20:01:32Z</time>
  <course>211.16</course>
  <speed>17.38</speed>
  <fix>3d</fix>
</trkpt>
<trkpt lat="-27.2717563" lon="151.3463823">
  <ele>542.96</ele>
  <time>2026-09-01T20:01:32Z</time>
  <course>250.01</course>
  <speed>0.0</speed>
  <fix>3d</fix>
</trkpt>
<trkpt lat="-27.273569" lon="151.3423288">
  <ele>520.43</ele>
  <time>2026-09-01T20:01:32Z</time>
  <course>211.16</course>
  <speed>17.38</speed>
  <fix>3d</fix>
</trkpt>
<trkpt lat="-27.2717563" lon="151.3463823">
  <ele>542.83</ele>
  <time>2026-09-01T20:01:32Z</time>
  <course>250.0</course>
  <speed>0.0632455532033676</speed>
  <fix>3d</fix>
</trkpt>
<trkpt lat="-27.2726693" lon="151.344351">
  <ele>531.59</ele>
  <time>2026-09-01T20:01:32Z</time>
  <course>211.15</course>
  <speed>8.65</speed>
  <fix>3d</fix>
</trkpt>
<trkpt lat="-27.2717563" lon="151.3463822">
  <ele>542.61</ele>
  <time>2026-09-01T20:01:32Z</time>
  <course>249.98</course>
  <speed>0.21189620100417092</speed>
  <fix>3d</fix>
</trkpt>
<trkpt lat="-27.2726693" lon="151.344351">
  <ele>531.59</ele>
  <time>2026-09-01T20:01:32Z</time>
  <course>211.15</course>
  <speed>8.65</speed>
  <fix>3d</fix>
</trkpt>
<trkpt lat="-27.2717564" lon="151.3463818">
  <ele>542.29</ele>
  <time>2026-09-01T20:01:32Z</time>
  <course>250.42</course>
  <speed>0.4522167621838005</speed>
  <fix>3d</fix>
</trkpt>
<trkpt lat="-27.2717563" lon="151.3463823">
  <ele>542.79</ele>
  <time>2026-09-01T20:01:32Z</time>
  <course>249.8</course>
  <speed>0.1</speed>
  <fix>3d</fix>
</trkpt>
<trkpt lat="-27.2717565" lon="151.3463813">
  <ele>541.91</ele>
  <time>2026-09-01T20:01:32Z</time>
  <course>253.36</course>
  <speed>0.7679192665899195</speed>
  <fix>3d</fix>
</trkpt>
<trkpt lat="-27.2717563" lon="151.3463823">
  <ele>542.79</ele>
  <time>2026-09-01T20:01:32Z</time>
  <course>249.8</course>
  <speed>0.1</speed>
  <fix>3d</fix>
</trkpt>
<trkpt lat="-27.2717566" lon="151.3463803">
  <ele>541.45</ele>
  <time>2026-09-01T20:01:32Z</time>
  <course>262.68</course>
  <speed>1.1307077429645558</speed>
  <fix>3d</fix>
</trkpt>
<trkpt lat="-27.2717564" lon="151.3463818">
  <ele>542.27</ele>
  <time>2026-09-01T20:01:32Z</time>
  <course>258.72</course>
  <speed>0.48</speed>
  <fix>3d</fix>
</trkpt>
<trkpt lat="-27.2717567" lon="151.3463792">
  <ele>540.91</ele>
  <time>2026-09-01T20:01:32Z</time>
  <course>264.38</course>
  <speed>1.54042202009709</speed>
  <fix>3d</fix>
</trkpt>
<trkpt lat="-27.2717564" lon="151.3463818">
  <ele>542.27</ele>
  <time>2026-09-01T20:01:32Z</time>
  <course>258.72</course>
  <speed>0.48</speed>
  <fix>3d</fix>
</trkpt>
<trkpt lat="-27.2717579" lon="151.3463775">
  <ele>540.33</ele>
  <time>2026-09-01T20:01:32Z</time>
  <course>252.63</course>
  <speed>2.862446506050375</speed>
  <fix>3d</fix>
</trkpt>
<trkpt lat="-27.2717565" lon="151.3463803">
  <ele>541.43</ele>
  <time>2026-09-01T20:01:32Z</time>
  <course>254.98</course>
  <speed>1.13</speed>
  <fix>3d</fix>
</trkpt>
<trkpt lat="-27.2717609" lon="151.346376">
  <ele>539.76</ele>
  <time>2026-09-01T20:01:32Z</time>
  <course>244.04</course>
  <speed>4.3993294943661585</speed>
  <fix>3d</fix>
</trkpt>
<trkpt lat="-27.2717565" lon="151.3463803">
  <ele>541.43</ele>
  <time>2026-09-01T20:01:32Z</time>
  <course>254.98</course>
  <speed>1.13</speed>
  <fix>3d</fix>
</trkpt>
<trkpt lat="-27.2717653" lon="151.3463746">
  <ele>539.25</ele>
  <time>2026-09-01T20:01:32Z</time>
  <course>237.84</course>
  <speed>5.736009065543743</speed>
  <fix>3d</fix>
</trkpt>
<trkpt lat="-27.2717587" lon="151.3463776">
  <ele>540.36</ele>
  <time>2026-09-01T20:01:32Z</time>
  <course>212.54</course>
  <speed>2.7</speed>
  <fix>3d</fix>
</trkpt>
<trkpt lat="-27.2717708" lon="151.3463732">
  <ele>538.82</ele>
  <time>2026-09-01T20:01:32Z</time>
  <course>232.97</course>
  <speed>6.7957707436316594</speed>
  <fix>3d</fix>
</trkpt>
<trkpt lat="-27.2717587" lon="151.3463776">
  <ele>540.36</ele>
  <time>2026-09-01T20:01:32Z</time>
  <course>212.54</course>
  <speed>2.7</speed>
  <fix>3d</fix>
</trkpt>
<trkpt lat="-27.2717772" lon="151.3463717">
  <ele>538.49</ele>
  <time>2026-09-01T20:01:32Z</time>
  <course>229.31</course>
  <speed>7.592081401038849</speed>
  <fix>3d</fix>
</trkpt>
<trkpt lat="-27.2717657" lon="151.3463746">
  <ele>539.3</ele>
  <time>2026-09-01T20:01:32Z</time>
  <course>195.01</course>
  <speed>5.54</speed>
  <fix>3d</fix>
</trkpt>
<trkpt lat="-27.271784" lon="151.3463696">
  <ele>538.29</ele>
  <time>2026-09-01T20:01:32Z</time>
  <course>226.9</course>
  <speed>8.089907292423073</speed>
  <fix>3d</fix>
</trkpt>
<trkpt lat="-27.2717657" lon="151.3463746">
  <ele>539.3</ele>
  <time>2026-09-01T20:01:32Z</time>
  <course>195.01</course>
  <speed>5.54</speed>
  <fix>3d</fix>
</trkpt>
<trkpt lat="-27.271791" lon="151.3463667">
  <ele>538.19</ele>
  <time>2026-09-01T20:01:32Z</time>
  <course>225.65</course>
  <speed>8.428671306914275</speed>
  <fix>3d</fix>
</trkpt>
<trkpt lat="-27.2717771" lon="151.3463714">
  <ele>538.56</ele>
  <time>2026-09-01T20:01:32Z</time>
  <course>194.91</course>
  <speed>7.41</speed>
  <fix>3d</fix>
</trkpt>
<trkpt lat="-27.2717979" lon="151.3463627">
  <ele>538.14</ele>
  <time>2026-09-01T20:01:32Z</time>
  <course>225.33</course>
  <speed>8.764319711192648</speed>
  <fix>3d</fix>
</trkpt>
<trkpt lat="-27.2717771" lon="151.3463714">
  <ele>538.56</ele>
  <time>2026-09-01T20:01:32Z</time>
  <course>194.91</course>
  <speed>7.41</speed>
  <fix>3d</fix>
</trkpt>
<trkpt lat="-27.2718046" lon="151.3463578">
  <ele>538.11</ele>
  <time>2026-09-01T20:01:32Z</time>
  <course>226.01</course>
  <speed>9.145255600583289</speed>
  <fix>3d</fix>
</trkpt>
<trkpt lat="-27.2717906" lon="151.3463663">
  <ele>538.22</ele>
  <time>2026-09-01T20:01:32Z</time>
  <course>203.63</course>
  <speed>8.37</speed>
  <fix>3d</fix>
</trkpt>
<trkpt lat="-27.2718113" lon="151.3463521">
  <ele>538.08</ele>
  <time>2026-09-01T20:01:32Z</time>
  <course>227.63</course>
  <speed>9.589421254695196</speed>
  <fix>3d</fix>
</trkpt>
<trkpt lat="-27.2717906" lon="151.3463663">
  <ele>538.22</ele>
  <time>2026-09-01T20:01:32Z</time>
  <course>203.63</course>
  <speed>8.37</speed>
  <fix>3d</fix>
</trkpt>
<trkpt lat="-27.2718177" lon="151.3463453">
  <ele>538.04</ele>
  <time>2026-09-01T20:01:32Z</time>
  <course>230.01</course>
  <speed>10.069210495366555</speed>
  <fix>3d</fix>
</trkpt>
<trkpt lat="-27.2718043" lon="151.3463576">
  <ele>538.11</ele>
  <time>2026-09-01T20:01:32Z</time>
  <course>215.08</course>
  <speed>9.12</speed>
  <fix>3d</fix>
</trkpt>
<trkpt lat="-27.271824" lon="151.3463376">
  <ele>537.98</ele>
  <time>2026-09-01T20:01:32Z</time>
  <course>232.8</course>
  <speed>10.59381895257796</speed>
  <fix>3d</fix>
</trkpt>
<trkpt lat="-27.2718043" lon="151.3463576">
  <ele>538.11</ele>
  <time>2026-09-01T20:01:32Z</time>
  <course>215.08</course>
  <speed>9.12</speed>
  <fix>3d</fix>
</trkpt>
<trkpt lat="-27.2718301" lon="151.3463291">
  <ele>537.9</ele>
  <time>2026-09-01T20:01:32Z</time>
  <course>235.71</course>
  <speed>11.130004492362078</speed>
  <fix>3d</fix>
</trkpt>
<trkpt lat="-27.2718174" lon="151.3463451">
  <ele>538.03</ele>
  <time>2026-09-01T20:01:32Z</time>
  <course>224.95</course>
  <speed>10.04</speed>
  <fix>3d</fix>
</trkpt>
<trkpt lat="-27.2718361" lon="151.3463195">
  <ele>537.79</ele>
  <time>2026-09-01T20:01:32Z</time>
  <course>238.54</course>
  <speed>11.679593314837637</speed>
  <fix>3d</fix>
</trkpt>
<trkpt lat="-27.2718174" lon="151.3463451">
  <ele>538.03</ele>
  <time>2026-09-01T20:01:32Z</time>
  <course>224.95</course>
  <speed>10.04</speed>
  <fix>3d</fix>
</trkpt>
<trkpt lat="-27.2718417" lon="151.3463091">
  <ele>537.68</ele>
  <time>2026-09-01T20:01:32Z</time>
  <course>241.16</course>
  <speed>12.236032853829709</speed>
  <fix>3d</fix>
</trkpt>
<trkpt lat="-27.2718298" lon="151.3463289">
  <ele>537.89</ele>
  <time>2026-09-01T20:01:32Z</time>
  <course>233.08</course>
  <speed>11.09</speed>
  <fix>3d</fix>
</trkpt>
<trkpt lat="-27.2718469" lon="151.346298">
  <ele>537.56</ele>
  <time>2026-09-01T20:01:32Z</time>
  <course>243.62</course>
  <speed>12.781517906727668</speed>
  <fix>3d</fix>
</trkpt>
<trkpt lat="-27.2718298" lon="151.3463289">
  <ele>537.89</ele>
  <time>2026-09-01T20:01:32Z</time>
  <course>233.08</course>
  <speed>11.09</speed>
  <fix>3d</fix>
</trkpt>
<trkpt lat="-27.2718518" lon="151.346286">
  <ele>537.43</ele>
  <time>2026-09-01T20:01:32Z</time>
  <course>245.82</course>
  <speed>13.323666912678357</speed>
  <fix>3d</fix>
</trkpt>
<trkpt lat="-27.2718412" lon="151.3463092">
  <ele>537.68</ele>
  <time>2026-09-01T20:01:32Z</time>
  <course>240.25</course>
  <speed>12.19</speed>
  <fix>3d</fix>
</trkpt>
<trkpt lat="-27.2718563" lon="151.3462733">
  <ele>537.31</ele>
  <time>2026-09-01T20:01:32Z</time>
  <course>247.93</course>
  <speed>13.861316676275742</speed>
  <fix>3d</fix>
</trkpt>
<trkpt lat="-27.2718412" lon="151.3463092">
  <ele>537.68</ele>
  <time>2026-09-01T20:01:32Z</time>
  <course>240.25</course>
  <speed>12.19</speed>
  <fix>3d</fix>
</trkpt>
<trkpt lat="-27.2718605" lon="151.3462597">
  <ele>537.2</ele>
  <time>2026-09-01T20:01:32Z</time>
  <course>249.95</course>
  <speed>14.3926543764519</speed>
  <fix>3d</fix>
</trkpt>
<trkpt lat="-27.2718514" lon="151.3462862">
  <ele>537.44</ele>
  <time>2026-09-01T20:01:32Z</time>
  <course>246.69</course>
  <speed>13.28</speed>
  <fix>3d</fix>
</trkpt>
<trkpt lat="-27.2718642" lon="151.3462456">
  <ele>537.1</ele>
  <time>2026-09-01T20:01:32Z</time>
  <course>251.94</course>
  <speed>14.908313117183981</speed>
  <fix>3d</fix>
</trkpt>
<trkpt lat="-27.2718514" lon="151.3462862">
  <ele>537.44</ele>
  <time>2026-09-01T20:01:32Z</time>
  <course>246.69</course>
  <speed>13.28</speed>
  <fix>3d</fix>
</trkpt>
<trkpt lat="-27.2718676" lon="151.3462308">
  <ele>537.0</ele>
  <time>2026-09-01T20:01:32Z</time>
  <course>253.86</course>
  <speed>15.409250468468608</speed>
  <fix>3d</fix>
</trkpt>
<trkpt lat="-27.2718601" lon="151.34626">
  <ele>537.2</ele>
  <time>2026-09-01T20:01:32Z</time>
  <course>252.11</course>
  <speed>14.35</speed>
  <fix>3d</fix>
</trkpt>
<trkpt lat="-27.2718706" lon="151.3462152">
  <ele>536.91</ele>
  <time>2026-09-01T20:01:32Z</time>
  <course>255.72</course>
  <speed>15.89922325146735</speed>
  <fix>3d</fix>
</trkpt>
<trkpt lat="-27.2718601" lon="151.34626">
  <ele>537.2</ele>
  <time>2026-09-01T20:01:32Z</time>
  <course>252.11</course>
  <speed>14.35</speed>
  <fix>3d</fix>
</trkpt>
<trkpt lat="-27.2718733" lon="151.3461993">
  <ele>536.85</ele>
  <time>2026-09-01T20:01:32Z</time>
  <course>257.43</course>
  <speed>16.367812926594684</speed>
  <fix>3d</fix>
</trkpt>
<trkpt lat="-27.2718672" lon="151.3462311">
  <ele>537.01</ele>
  <time>2026-09-01T20:01:32Z</time>
  <course>256.48</course>
  <speed>15.38</speed>
  <fix>3d</fix>
</trkpt>
<trkpt lat="-27.2718756" lon="151.3461826">
  <ele>536.79</ele>
  <time>2026-09-01T20:01:32Z</time>
  <course>259.04</course>
  <speed>16.823513307273245</speed>
  <fix>3d</fix>
</trkpt>
<trkpt lat="-27.2718672" lon="151.3462311">
  <ele>537.01</ele>
  <time>2026-09-01T20:01:32Z</time>
  <course>256.48</course>
  <speed>15.38</speed>
  <fix>3d</fix>
</trkpt>
<trkpt lat="-27.2718777" lon="151.3461656">
  <ele>536.76</ele>
  <time>2026-09-01T20:01:32Z</time>
  <course>260.52</course>
  <speed>17.264544592893262</speed>
  <fix>3d</fix>
</trkpt>
<trkpt lat="-27.271873" lon="151.3461997">
  <ele>536.86</ele>
  <time>2026-09-01T20:01:32Z</time>
  <course>260.08</course>
  <speed>16.34</speed>
  <fix>3d</fix>
</trkpt>
<trkpt lat="-27.2718794" lon="151.3461481">
  <ele>536.74</ele>
  <time>2026-09-01T20:01:32Z</time>
  <course>261.8</course>
  <speed>17.686788854961772</speed>
  <fix>3d</fix>
</trkpt>
<trkpt lat="-27.271873" lon="151.3461997">
  <ele>536.86</ele>
  <time>2026-09-01T20:01:32Z</time>
  <course>260.08</course>
  <speed>16.34</speed>
  <fix>3d</fix>
</trkpt>
<trkpt lat="-27.2718808" lon="151.34613">
  <ele>536.73</ele>
  <time>2026-09-01T20:01:32Z</time>
  <course>262.78</course>
  <speed>18.09898339686514</speed>
  <fix>3d</fix>
</trkpt>
<trkpt lat="-27.2718774" lon="151.3461661">
  <ele>536.77</ele>
  <time>2026-09-01T20:01:32Z</time>
  <course>263.0</course>
  <speed>17.24</speed>
  <fix>3d</fix>
</trkpt>
<trkpt lat="-27.271882" lon="151.3461116">
  <ele>536.74</ele>
  <time>2026-09-01T20:01:32Z</time>
  <course>263.69</course>
  <speed>18.49896213304952</speed>
  <fix>3d</fix>
</trkpt>
<trkpt lat="-27.2718774" lon="151.3461661">
  <ele>536.77</ele>
  <time>2026-09-01T20:01:32Z</time>
  <course>263.0</course>
  <speed>17.24</speed>
  <fix>3d</fix>
</trkpt>
<trkpt lat="-27.271883" lon="151.3460927">
  <ele>536.76</ele>
  <time>2026-09-01T20:01:32Z</time>
  <course>264.62</course>
  <speed>18.87442979271162</speed>
  <fix>3d</fix>
</trkpt>
<trkpt lat="-27.2718806" lon="151.3461305">
  <ele>536.74</ele>
  <time>2026-09-01T20:01:32Z</time>
  <course>265.27</course>
  <speed>18.07</speed>
  <fix>3d</fix>
</trkpt>
<trkpt lat="-27.2718837" lon="151.3460735">
  <ele>536.79</ele>
  <time>2026-09-01T20:01:32Z</time>
  <course>265.37</course>
  <speed>19.244620027425846</speed>
  <fix>3d</fix>
</trkpt>
<trkpt lat="-27.2718806" lon="151.3461305">
  <ele>536.74</ele>
  <time>2026-09-01T20:01:32Z</time>
  <course>265.27</course>
  <speed>18.07</speed>
  <fix>3d</fix>
</trkpt>
<trkpt lat="-27.2718843" lon="151.3460538">
  <ele>536.85</ele>
  <time>2026-09-01T20:01:32Z</time>
  <course>266.11</course>
  <speed>19.59800244922936</speed>
  <fix>3d</fix>
</trkpt>
<trkpt lat="-27.2718828" lon="151.3460933">
  <ele>536.77</ele>
  <time>2026-09-01T20:01:32Z</time>
  <course>266.99</course>
  <speed>18.85</speed>
  <fix>3d</fix>
</trkpt>
<trkpt lat="-27.2718848" lon="151.3460338">
  <ele>536.91</ele>
  <time>2026-09-01T20:01:32Z</time>
  <course>266.85</course>
  <speed>19.943813577147175</speed>
  <fix>3d</fix>
</trkpt>
<trkpt lat="-27.2718828" lon="151.3460933">
  <ele>536.77</ele>
  <time>2026-09-01T20:01:32Z</time>
  <course>266.99</course>
  <speed>18.85</speed>
  <fix>3d</fix>
</trkpt>
<trkpt lat="-27.2718851" lon="151.3460136">
  <ele>536.99</ele>
  <time>2026-09-01T20:01:32Z</time>
  <course>267.58</course>
  <speed>20.271420769151824</speed>
  <fix>3d</fix>
</trkpt>
<trkpt lat="-27.2718842" lon="151.3460544">
  <ele>536.85</ele>
  <time>2026-09-01T20:01:32Z</time>
  <course>268.29</course>
  <speed>19.58</speed>
  <fix>3d</fix>
</trkpt>
<trkpt lat="-27.2718852" lon="151.345993">
  <ele>537.07</ele>
  <time>2026-09-01T20:01:32Z</time>
  <course>268.2</course>
  <speed>20.59024283489634</speed>
  <fix>3d</fix>
</trkpt>
<trkpt lat="-27.2718842" lon="151.3460544">
  <ele>536.85</ele>
  <time>2026-09-01T20:01:32Z</time>
  <course>268.29</course>
  <speed>19.58</speed>
  <fix>3d</fix>
</trkpt>
<trkpt lat="-27.2718852" lon="151.345972">
  <ele>537.16</ele>
  <time>2026-09-01T20:01:32Z</time>
  <course>268.63</course>
  <speed>20.870002395783285</speed>
  <fix>3d</fix>
</trkpt>
<trkpt lat="-27.271885" lon="151.3460141">
  <ele>536.99</ele>
  <time>2026-09-01T20:01:32Z</time>
  <course>269.27</course>
  <speed>20.25</speed>
  <fix>3d</fix>
</trkpt>
<trkpt lat="-27.2718852" lon="151.3459508">
  <ele>537.24</ele>
  <time>2026-09-01T20:01:32Z</time>
  <course>269.0</course>
  <speed>21.12028645639069</speed>
  <fix>3d</fix>
</trkpt>
<trkpt lat="-27.271885" lon="151.3460141">
  <ele>536.99</ele>
  <time>2026-09-01T20:01:32Z</time>
  <course>269.27</course>
  <speed>20.25</speed>
  <fix>3d</fix>
</trkpt>
<trkpt lat="-27.271885" lon="151.3459293">
  <ele>537.32</ele>
  <time>2026-09-01T20:01:32Z</time>
  <course>269.17</course>
  <speed>21.350936747599626</speed>
  <fix>3d</fix>
</trkpt>
<trkpt lat="-27.2718852" lon="151.3459725">
  <ele>537.15</ele>
  <time>2026-09-01T20:01:32Z</time>
  <course>270.0</course>
  <speed>20.85</speed>
  <fix>3d</fix>
</trkpt>
<trkpt lat="-27.2718848" lon="151.3459077">
  <ele>537.38</ele>
  <time>2026-09-01T20:01:32Z</time>
  <course>269.39</course>
  <speed>21.54156911647803</speed>
  <fix>3d</fix>
</trkpt>
<trkpt lat="-27.2718852" lon="151.3459725">
  <ele>537.15</ele>
  <time>2026-09-01T20:01:32Z</time>
  <course>270.0</course>
  <speed>20.85</speed>
  <fix>3d</fix>
</trkpt>
<trkpt lat="-27.2718846" lon="151.3458858">
  <ele>537.41</ele>
  <time>2026-09-01T20:01:32Z</time>
  <course>269.65</course>
  <speed>21.712358232122092</speed>
  <fix>3d</fix>
</trkpt>
<trkpt lat="-27.271885" lon="151.3459299">
  <ele>537.31</ele>
  <time>2026-09-01T20:01:32Z</time>
  <course>270.51</course>
  <speed>21.33</speed>
  <fix>3d</fix>
</trkpt>
<trkpt lat="-27.2718843" lon="151.3458638">
  <ele>537.45</ele>
  <time>2026-09-01T20:01:32Z</time>
  <course>269.9</course>
  <speed>21.85296547382071</speed>
  <fix>3d</fix>
</trkpt>
<trkpt lat="-27.271885" lon="151.3459299">
  <ele>537.31</ele>
  <time>2026-09-01T20:01:32Z</time>
  <course>270.51</course>
  <speed>21.33</speed>
  <fix>3d</fix>
</trkpt>
<trkpt lat="-27.271884" lon="151.3458417">
  <ele>537.46</ele>
  <time>2026-09-01T20:01:32Z</time>
  <course>270.07</course>
  <speed>21.96364268512853</speed>
  <fix>3d</fix>
</trkpt>
<trkpt lat="-27.2718845" lon="151.3458864">
  <ele>537.41</ele>
  <time>2026-09-01T20:01:32Z</time>
  <course>270.82</course>
  <speed>21.69</speed>
  <fix>3d</fix>
</trkpt>
<trkpt lat="-27.2718836" lon="151.3458192">
  <ele>537.45</ele>
  <time>2026-09-01T20:01:32Z</time>
  <course>270.23</course>
  <speed>22.04419424701207</speed>
  <fix>3d</fix>
</trkpt>
<trkpt lat="-27.2718845" lon="151.3458864">
  <ele>537.41</ele>
  <time>2026-09-01T20:01:32Z</time>
  <course>270.82</course>
  <speed>21.69</speed>
  <fix>3d</fix>
</trkpt>
<trkpt lat="-27.2718832" lon="151.345797">
  <ele>537.43</ele>
  <time>2026-09-01T20:01:32Z</time>
  <course>270.42</course>
  <speed>22.10458097318291</speed>
  <fix>3d</fix>
</trkpt>
<trkpt lat="-27.2718839" lon="151.3458423">
  <ele>537.45</ele>
  <time>2026-09-01T20:01:32Z</time>
  <course>271.03</course>
  <speed>21.94</speed>
  <fix>3d</fix>
</trkpt>
<trkpt lat="-27.2718828" lon="151.3457746">
  <ele>537.39</ele>
  <time>2026-09-01T20:01:32Z</time>
  <course>270.62</course>
  <speed>22.14498814630525</speed>
  <fix>3d</fix>
</trkpt>
<trkpt lat="-27.2718839" lon="151.3458423">
  <ele>537.45</ele>
  <time>2026-09-01T20:01:32Z</time>
  <course>271.03</course>
  <speed>21.94</speed>
  <fix>3d</fix>
</trkpt>
<trkpt lat="-27.2718824" lon="151.3457522">
  <ele>537.34</ele>
  <time>2026-09-01T20:01:32Z</time>
  <course>270.76</course>
  <speed>22.175414314055107</speed>
  <fix>3d</fix>
</trkpt>
<trkpt lat="-27.2718832" lon="151.3457978">
  <ele>537.42</ele>
  <time>2026-09-01T20:01:32Z</time>
  <course>271.17</course>
  <speed>22.09</speed>
  <fix>3d</fix>
</trkpt>
<trkpt lat="-27.2718819" lon="151.3457297">
  <ele>537.28</ele>
  <time>2026-09-01T20:01:32Z</time>
  <course>270.81</course>
  <speed>22.195859974328545</speed>
  <fix>3d</fix>
</trkpt>
<trkpt lat="-27.2718832" lon="151.3457978">
  <ele>537.42</ele>
  <time>2026-09-01T20:01:32Z</time>
  <course>271.17</course>
  <speed>22.09</speed>
  <fix>3d</fix>
</trkpt>
<trkpt lat="-27.2718815" lon="151.3457073">
  <ele>537.21</ele>
  <time>2026-09-01T20:01:32Z</time>
  <course>270.86</course>
  <speed>22.225852064656596</speed>
  <fix>3d</fix>
</trkpt>
<trkpt lat="-27.2718823" lon="151.3457531">
  <ele>537.33</ele>
  <time>2026-09-01T20:01:32Z</time>
  <course>271.27</course>
  <speed>22.17</speed>
  <fix>3d</fix>
</trkpt>
<trkpt lat="-27.271881" lon="151.3456848">
  <ele>537.14</ele>
  <time>2026-09-01T20:01:32Z</time>
  <course>270.95</course>
  <speed>22.245846803392315</speed>
  <fix>3d</fix>
</trkpt>
<trkpt lat="-27.2718823" lon="151.3457531">
  <ele>537.33</ele>
  <time>2026-09-01T20:01:32Z</time>
  <course>271.27</course>
  <speed>22.17</speed>
  <fix>3d</fix>
</trkpt>
<trkpt lat="-27.2718805" lon="151.3456623">
  <ele>537.06</ele>
  <time>2026-09-01T20:01:32Z</time>
  <course>271.01</course>
  <speed>22.265841551578504</speed>
  <fix>3d</fix>
</trkpt>
<trkpt lat="-27.2718814" lon="151.3457082">
  <ele>537.21</ele>
  <time>2026-09-01T20:01:32Z</time>
  <course>271.32</course>
  <speed>22.22</speed>
  <fix>3d</fix>
</trkpt>
<trkpt lat="-27.2718801" lon="151.3456398">
  <ele>536.99</ele>
  <time>2026-09-01T20:01:32Z</time>
  <course>271.03</course>
  <speed>22.29583369152183</speed>
  <fix>3d</fix>
</trkpt>
<trkpt lat="-27.2718814" lon="151.3457082">
  <ele>537.21</ele>
  <time>2026-09-01T20:01:32Z</time>
  <course>271.32</course>
  <speed>22.22</speed>
  <fix>3d</fix>
</trkpt>
<trkpt lat="-27.2718796" lon="151.3456173">
  <ele>536.91</ele>
  <time>2026-09-01T20:01:32Z</time>
  <course>271.01</course>
  <speed>22.315602165301296</speed>
  <fix>3d</fix>
</trkpt>
<trkpt lat="-27.2718805" lon="151.3456633">
  <ele>537.06</ele>
  <time>2026-09-01T20:01:32Z</time>
  <course>271.32</course>
  <speed>22.27</speed>
  <fix>3d</fix>
</trkpt>
<trkpt lat="-27.2718792" lon="151.3455947">
  <ele>536.84</ele>
  <time>2026-09-01T20:01:32Z</time>
  <course>271.01</course>
  <speed>22.335375528519776</speed>
  <fix>3d</fix>
</trkpt>
<trkpt lat="-27.2718805" lon="151.3456633">
  <ele>537.06</ele>
  <time>2026-09-01T20:01:32Z</time>
  <course>271.32</course>
  <speed>22.27</speed>
  <fix>3d</fix>
</trkpt>
<trkpt lat="-27.2718787" lon="151.3455722">
  <ele>536.78</ele>
  <time>2026-09-01T20:01:32Z</time>
  <course>270.99</course>
  <speed>22.344943499592922</speed>
  <fix>3d</fix>
</trkpt>
<trkpt lat="-27.2718796" lon="151.3456183">
  <ele>536.92</ele>
  <time>2026-09-01T20:01:32Z</time>
  <course>271.29</course>
  <speed>22.31</speed>
  <fix>3d</fix>
</trkpt>
<trkpt lat="-27.2718783" lon="151.3455497">
  <ele>536.73</ele>
  <time>2026-09-01T20:01:32Z</time>
  <course>270.96</course>
  <speed>22.35452974231397</speed>
  <fix>3d</fix>
</trkpt>
<trkpt lat="-27.2718796" lon="151.3456183">
  <ele>536.92</ele>
  <time>2026-09-01T20:01:32Z</time>
  <course>271.29</course>
  <speed>22.31</speed>
  <fix>3d</fix>
</trkpt>
<trkpt lat="-27.2718779" lon="151.3455271">
  <ele>536.68</ele>
  <time>2026-09-01T20:01:32Z</time>
  <course>270.92</course>
  <speed>22.36394419595971</speed>
  <fix>3d</fix>
</trkpt>
<trkpt lat="-27.2718787" lon="151.345573">
  <ele>536.79</ele>
  <time>2026-09-01T20:01:32Z</time>
  <course>271.2</course>
  <speed>22.34</speed>
  <fix>3d</fix>
</trkpt>
<trkpt lat="-27.2718775" lon="151.3455045">
  <ele>536.65</ele>
  <time>2026-09-01T20:01:32Z</time>
  <course>270.88</course>
  <speed>22.363400904155878</speed>
  <fix>3d</fix>
</trkpt>
<trkpt lat="-27.2718787" lon="151.345573">
  <ele>536.79</ele>
  <time>2026-09-01T20:01:32Z</time>
  <course>271.2</course>
  <speed>22.34</speed>
  <fix>3d</fix>
</trkpt>
<trkpt lat="-27.2718772" lon="151.3454818">
  <ele>536.63</ele>
  <time>2026-09-01T20:01:32Z</time>
  <course>270.87</course>
  <speed>22.36289784442079</speed>
  <fix>3d</fix>
</trkpt>
<trkpt lat="-27.2718779" lon="151.3455277">
  <ele>536.69</ele>
  <time>2026-09-01T20:01:32Z</time>
  <course>271.08</course>
  <speed>22.36</speed>
  <fix>3d</fix>
</trkpt>
<trkpt lat="-27.2718769" lon="151.3454592">
  <ele>536.61</ele>
  <time>2026-09-01T20:01:32Z</time>
  <course>270.88</course>
  <speed>22.35258598015004</speed>
  <fix>3d</fix>
</trkpt>
<trkpt lat="-27.2718779" lon="151.3455277">
  <ele>536.69</ele>
  <time>2026-09-01T20:01:32Z</time>
  <course>271.08</course>
  <speed>22.36</speed>
  <fix>3d</fix>
</trkpt>
<trkpt lat="-27.2718766" lon="151.3454367">
  <ele>536.6</ele>
  <time>2026-09-01T20:01:32Z</time>
  <course>270.84</course>
  <speed>22.35214978475225</speed>
  <fix>3d</fix>
</trkpt>
<trkpt lat="-27.2718772" lon="151.3454826">
  <ele>536.63</ele>
  <time>2026-09-01T20:01:32Z</time>
  <course>270.95</course>
  <speed>22.36</speed>
  <fix>3d</fix>
</trkpt>
<trkpt lat="-27.2718763" lon="151.3454142">
  <ele>536.59</ele>
  <time>2026-09-01T20:01:33Z</time>
  <course>270.75</course>
  <speed>22.34175463118329</speed>
  <fix>3d</fix>
</trkpt>
<trkpt lat="-27.2718772" lon="151.3454826">
  <ele>536.63</ele>
  <time>2026-09-01T20:01:33Z</time>
  <course>270.95</course>
  <speed>22.36</speed>
  <fix>3d</fix>
</trkpt>
<trkpt lat="-27.2718761" lon="151.3453916">
  <ele>536.59</ele>
  <time>2026-09-01T20:01:33Z</time>
  <course>270.68</course>
  <speed>22.331399418755645</speed>
  <fix>3d</fix>
</trkpt>
<trkpt lat="-27.2718766" lon="151.3454375">
  <ele>536.6</ele>
  <time>2026-09-01T20:01:33Z</time>
  <course>270.81</course>
  <speed>22.35</speed>
  <fix>3d</fix>
</trkpt>
<trkpt lat="-27.2718759" lon="151.345369">
  <ele>536.59</ele>
  <time>2026-09-01T20:01:33Z</time>
  <course>270.6</course>
  <speed>22.32108420305788</speed>
  <fix>3d</fix>
</trkpt>
<trkpt lat="-27.2718766" lon="151.3454375">
  <ele>536.6</ele>
  <time>2026-09-01T20:01:33Z</time>
  <course>270.81</course>
  <speed>22.35</speed>
  <fix>3d</fix>
</trkpt>
<trkpt lat="-27.2718757" lon="151.3453465">
  <ele>536.58</ele>
  <time>2026-09-01T20:01:33Z</time>
  <course>270.52</course>
  <speed>22.310809039566447</speed>
  <fix>3d</fix>
</trkpt>
<trkpt lat="-27.2718761" lon="151.3453923">
  <ele>536.59</ele>
  <time>2026-09-01T20:01:33Z</time>
  <course>270.66</course>
  <speed>22.33</speed>
  <fix>3d</fix>
</trkpt>
<trkpt lat="-27.2718755" lon="151.3453238">
  <ele>536.58</ele>
  <time>2026-09-01T20:01:33Z</time>
  <course>270.44</course>
  <speed>22.30057398364446</speed>
  <fix>3d</fix>
</trkpt>
<trkpt lat="-27.2718761" lon="151.3453923">
  <ele>536.59</ele>
  <time>2026-09-01T20:01:33Z</time>
  <course>270.66</course>
  <speed>22.33</speed>
  <fix>3d</fix>
</trkpt>
<trkpt lat="-27.2718754" lon="151.3453013">
  <ele>536.58</ele>
  <time>2026-09-01T20:01:33Z</time>
  <course>270.4</course>
  <speed>22.300378920547516</speed>
  <fix>3d</fix>
</trkpt>
<trkpt lat="-27.2718757" lon="151.3453472">
  <ele>536.58</ele>
  <time>2026-09-01T20:01:33Z</time>
  <course>270.5</course>
  <speed>22.31</speed>
  <fix>3d</fix>
</trkpt>
<trkpt lat="-27.2718753" lon="151.3452788">
  <ele>536.57</ele>
  <time>2026-09-01T20:01:33Z</time>
  <course>270.34</course>
  <speed>22.300224214119464</speed>
  <fix>3d</fix>
</trkpt>
<trkpt lat="-27.2718757" lon="151.3453472">
  <ele>536.58</ele>
  <time>2026-09-01T20:01:33Z</time>
  <course>270.5</course>
  <speed>22.31</speed>
  <fix>3d</fix>
</trkpt>
<trkpt lat="-27.2718752" lon="151.3452563">
  <ele>536.56</ele>
  <time>2026-09-01T20:01:33Z</time>
  <course>270.27</course>
  <speed>22.310109815955634</speed>
  <fix>3d</fix>
</trkpt>
<trkpt lat="-27.2718754" lon="151.3453021">
  <ele>536.57</ele>
  <time>2026-09-01T20:01:33Z</time>
  <course>270.34</course>
  <speed>22.3</speed>
  <fix>3d</fix>
</trkpt>
<trkpt lat="-27.2718751" lon="151.3452338">
  <ele>536.54</ele>
  <time>2026-09-01T20:01:33Z</time>
  <course>270.21</course>
  <speed>22.320035842265128</speed>
  <fix>3d</fix>
</trkpt>
<trkpt lat="-27.2718754" lon="151.3453021">
  <ele>536.57</ele>
  <time>2026-09-01T20:01:33Z</time>
  <course>270.34</course>
  <speed>22.3</speed>
  <fix>3d</fix>
</trkpt>
<trkpt lat="-27.2718751" lon="151.3452112">
  <ele>536.53</ele>
  <time>2026-09-01T20:01:33Z</time>
  <course>270.16</course>
  <speed>22.330002239140057</speed>
  <fix>3d</fix>
</trkpt>
<trkpt lat="-27.2718751" lon="151.345257">
  <ele>536.56</ele>
  <time>2026-09-01T20:01:33Z</time>
  <course>270.19</course>
  <speed>22.31</speed>
  <fix>3d</fix>
</trkpt>
<trkpt lat="-27.2718751" lon="151.3451885">
  <ele>536.5</ele>
  <time>2026-09-01T20:01:33Z</time>
  <course>270.11</course>
  <speed>22.35</speed>
  <fix>3d</fix>
</trkpt>
<trkpt lat="-27.2718751" lon="151.345257">
  <ele>536.56</ele>
  <time>2026-09-01T20:01:33Z</time>
  <course>270.19</course>
  <speed>22.31</speed>
  <fix>3d</fix>
</trkpt>
<trkpt lat="-27.2718751" lon="151.3451658">
  <ele>536.48</ele>
  <time>2026-09-01T20:01:33Z</time>
  <course>270.07</course>
  <speed>22.370020116218043</speed>
  <fix>3d</fix>
</trkpt>
<trkpt lat="-27.2718751" lon="151.3452119">
  <ele>536.53</ele>
  <time>2026-09-01T20:01:33Z</time>
  <course>270.05</course>
  <speed>22.33</speed>
  <fix>3d</fix>
</trkpt>
<trkpt lat="-27.2718751" lon="151.3451433">
  <ele>536.44</ele>
  <time>2026-09-01T20:01:33Z</time>
  <course>269.99</course>
  <speed>22.39005582842526</speed>
  <fix>3d</fix>
</trkpt>
<trkpt lat="-27.2718751" lon="151.3452119">
  <ele>536.53</ele>
  <time>2026-09-01T20:01:33Z</time>
  <course>270.05</course>
  <speed>22.33</speed>
  <fix>3d</fix>
</trkpt>
<trkpt lat="-27.2718751" lon="151.3451206">
  <ele>536.41</ele>
  <time>2026-09-01T20:01:33Z</time>
  <course>269.93</course>
  <speed>22.430142665618515</speed>
  <fix>3d</fix>
</trkpt>
<trkpt lat="-27.2718751" lon="151.3451667">
  <ele>536.47</ele>
  <time>2026-09-01T20:01:33Z</time>
  <course>269.91</course>
  <speed>22.37</speed>
  <fix>3d</fix>
</trkpt>
<trkpt lat="-27.2718752" lon="151.3450978">
  <ele>536.37</ele>
  <time>2026-09-01T20:01:33Z</time>
  <course>269.82</course>
  <speed>22.460222616884277</speed>
  <fix>3d</fix>
</trkpt>
<trkpt lat="-27.2718751" lon="151.3451667">
  <ele>536.47</ele>
  <time>2026-09-01T20:01:33Z</time>
  <course>269.91</course>
  <speed>22.37</speed>
  <fix>3d</fix>
</trkpt>
<trkpt lat="-27.2718753" lon="151.3450752">
  <ele>536.33</ele>
  <time>2026-09-01T20:01:33Z</time>
  <course>269.75</course>
  <speed>22.490375719404955</speed>
  <fix>3d</fix>
</trkpt>
<trkpt lat="-27.2718751" lon="151.3451214">
  <ele>536.4</ele>
  <time>2026-09-01T20:01:33Z</time>
  <course>269.78</course>
  <speed>22.43</speed>
  <fix>3d</fix>
</trkpt>
<trkpt lat="-27.2718754" lon="151.3450524">
  <ele>536.28</ele>
  <time>2026-09-01T20:01:33Z</time>
  <course>269.75</course>
  <speed>22.53049932868777</speed>
  <fix>3d</fix>
</trkpt>
<trkpt lat="-27.2718751" lon="151.3451214">
  <ele>536.4</ele>
  <time>2026-09-01T20:01:33Z</time>
  <course>269.78</course>
  <speed>22.43</speed>
  <fix>3d</fix>
</trkpt>
<trkpt lat="-27.2718756" lon="151.3450297">
  <ele>536.24</ele>
  <time>2026-09-01T20:01:33Z</time>
  <course>269.72</course>
  <speed>22.57064022131406</speed>
  <fix>3d</fix>
</trkpt>
<trkpt lat="-27.2718753" lon="151.3450759">
  <ele>536.32</ele>
  <time>2026-09-01T20:01:33Z</time>
  <course>269.66</course>
  <speed>22.49</speed>
  <fix>3d</fix>
</trkpt>
<trkpt lat="-27.2718758" lon="151.3450068">
  <ele>536.2</ele>
  <time>2026-09-01T20:01:33Z</time>
  <course>269.64</course>
  <speed>22.610798305234603</speed>
  <fix>3d</fix>
</trkpt>
<trkpt lat="-27.2718753" lon="151.3450759">
  <ele>536.32</ele>
  <time>2026-09-01T20:01:33Z</time>
  <course>269.66</course>
  <speed>22.49</speed>
  <fix>3d</fix>
</trkpt>
<trkpt lat="-27.2718759" lon="151.3449839">
  <ele>536.15</ele>
  <time>2026-09-01T20:01:33Z</time>
  <course>269.57</course>
  <speed>22.65097348901367</speed>
  <fix>3d</fix>
</trkpt>
<trkpt lat="-27.2718756" lon="151.3450303">
  <ele>536.24</ele>
  <time>2026-09-01T20:01:33Z</time>
  <course>269.55</course>
  <speed>22.57</speed>
  <fix>3d</fix>
</trkpt>
<trkpt lat="-27.2718761" lon="151.3449611">
  <ele>536.11</ele>
  <time>2026-09-01T20:01:33Z</time>
  <course>269.5</course>
  <speed>22.69106652407506</speed>
  <fix>3d</fix>
</trkpt>
<trkpt lat="-27.2718756" lon="151.3450303">
  <ele>536.24</ele>
  <time>2026-09-01T20:01:33Z</time>
  <course>269.55</course>
  <speed>22.57</speed>
  <fix>3d</fix>
</trkpt>
<trkpt lat="-27.2718764" lon="151.3449381">
  <ele>536.06</ele>
  <time>2026-09-01T20:01:33Z</time>
  <course>269.45</course>
  <speed>22.741266455498913</speed>
  <fix>3d</fix>
</trkpt>
<trkpt lat="-27.2718759" lon="151.3449847">
  <ele>536.15</ele>
  <time>2026-09-01T20:01:33Z</time>
  <course>269.46</course>
  <speed>22.65</speed>
  <fix>3d</fix>
</trkpt>
<trkpt lat="-27.2718766" lon="151.344915">
  <ele>536.01</ele>
  <time>2026-09-01T20:01:33Z</time>
  <course>269.46</course>
  <speed>22.791371174196605</speed>
  <fix>3d</fix>
</trkpt>
<trkpt lat="-27.2718759" lon="151.3449847">
  <ele>536.15</ele>
  <time>2026-09-01T20:01:33Z</time>
  <course>269.46</course>
  <speed>22.65</speed>
  <fix>3d</fix>
</trkpt>
<trkpt lat="-27.2718768" lon="151.344892">
  <ele>535.94</ele>
  <time>2026-09-01T20:01:33Z</time>
  <course>269.5</course>
  <speed>22.85147916437796</speed>
  <fix>3d</fix>
</trkpt>
<trkpt lat="-27.2718763" lon="151.3449389">
  <ele>536.06</ele>
  <time>2026-09-01T20:01:33Z</time>
  <course>269.38</course>
  <speed>22.74</speed>
  <fix>3d</fix>
</trkpt>
<trkpt lat="-27.2718771" lon="151.344869">
  <ele>535.83</ele>
  <time>2026-09-01T20:01:33Z</time>
  <course>269.43</course>
  <speed>22.911475290779507</speed>
  <fix>3d</fix>
</trkpt>
<trkpt lat="-27.2718763" lon="151.3449389">
  <ele>536.06</ele>
  <time>2026-09-01T20:01:33Z</time>
  <course>269.38</course>
  <speed>22.74</speed>
  <fix>3d</fix>
</trkpt>
<trkpt lat="-27.2718773" lon="151.3448458">
  <ele>535.7</ele>
  <time>2026-09-01T20:01:33Z</time>
  <course>269.36</course>
  <speed>22.991585417278213</speed>
  <fix>3d</fix>
</trkpt>
<trkpt lat="-27.2718768" lon="151.3448928">
  <ele>535.92</ele>
  <time>2026-09-01T20:01:33Z</time>
  <course>269.34</course>
  <speed>22.85</speed>
  <fix>3d</fix>
</trkpt>
<trkpt lat="-27.2718776" lon="151.3448225">
  <ele>535.56</ele>
  <time>2026-09-01T20:01:33Z</time>
  <course>269.33</course>
  <speed>23.0818218518383</speed>
  <fix>3d</fix>
</trkpt>
<trkpt lat="-27.2718768" lon="151.3448928">
  <ele>535.92</ele>
  <time>2026-09-01T20:01:33Z</time>
  <course>269.34</course>
  <speed>22.85</speed>
  <fix>3d</fix>
</trkpt>
<trkpt lat="-27.2718778" lon="151.3447991">
  <ele>535.41</ele>
  <time>2026-09-01T20:01:33Z</time>
  <course>269.32</course>
  <speed>23.171942085202957</speed>
  <fix>3d</fix>
</trkpt>
<trkpt lat="-27.2718772" lon="151.3448465">
  <ele>535.69</ele>
  <time>2026-09-01T20:01:33Z</time>
  <course>269.3</course>
  <speed>23.0</speed>
  <fix>3d</fix>
</trkpt>
<trkpt lat="-27.2718781" lon="151.3447756">
  <ele>535.28</ele>
  <time>2026-09-01T20:01:33Z</time>
  <course>269.34</course>
  <speed>23.262201099638013</speed>
  <fix>3d</fix>
</trkpt>
<trkpt lat="-27.2718772" lon="151.3448465">
  <ele>535.69</ele>
  <time>2026-09-01T20:01:33Z</time>
  <course>269.3</course>
  <speed>23.0</speed>
  <fix>3d</fix>
</trkpt>
<trkpt lat="-27.2718784" lon="151.3447521">
  <ele>535.16</ele>
  <time>2026-09-01T20:01:33Z</time>
  <course>269.3</course>
  <speed>23.35233178935243</speed>
  <fix>3d</fix>
</trkpt>
<trkpt lat="-27.2718778" lon="151.3447998">
  <ele>535.42</ele>
  <time>2026-09-01T20:01:33Z</time>
  <course>269.23</course>
  <speed>23.17</speed>
  <fix>3d</fix>
</trkpt>
<trkpt lat="-27.2718787" lon="151.3447285">
  <ele>535.04</ele>
  <time>2026-09-01T20:01:33Z</time>
  <course>269.22</course>
  <speed>23.432466792892292</speed>
  <fix>3d</fix>
</trkpt>
<trkpt lat="-27.2718778" lon="151.3447998">
  <ele>535.42</ele>
  <time>2026-09-01T20:01:33Z</time>
  <course>269.23</course>
  <speed>23.17</speed>
  <fix>3d</fix>
</trkpt>
<trkpt lat="-27.271879" lon="151.3447048">
  <ele>534.93</ele>
  <time>2026-09-01T20:01:33Z</time>
  <course>269.14</course>
  <speed>23.512605130014837</speed>
  <fix>3d</fix>
</trkpt>
<trkpt lat="-27.2718784" lon="151.3447528">
  <ele>535.16</ele>
  <time>2026-09-01T20:01:33Z</time>
  <course>269.18</course>
  <speed>23.34</speed>
  <fix>3d</fix>
</trkpt>
<trkpt lat="-27.2718793" lon="151.3446809">
  <ele>534.84</ele>
  <time>2026-09-01T20:01:33Z</time>
  <course>269.14</course>
  <speed>23.592746766750157</speed>
  <fix>3d</fix>
</trkpt>
<trkpt lat="-27.2718784" lon="151.3447528">
  <ele>535.16</ele>
  <time>2026-09-01T20:01:33Z</time>
  <course>269.18</course>
  <speed>23.34</speed>
  <fix>3d</fix>
</trkpt>
<trkpt lat="-27.2718797" lon="151.3446571">
  <ele>534.76</ele>
  <time>2026-09-01T20:01:33Z</time>
  <course>269.14</course>
  <speed>23.6727374842877</speed>
  <fix>3d</fix>
</trkpt>
<trkpt lat="-27.271879" lon="151.3447055">
  <ele>534.94</ele>
  <time>2026-09-01T20:01:33Z</time>
  <course>269.14</course>
  <speed>23.51</speed>
  <fix>3d</fix>
</trkpt>
<trkpt lat="-27.27188" lon="151.344633">
  <ele>534.69</ele>
  <time>2026-09-01T20:01:33Z</time>
  <course>269.1</course>
  <speed>23.742883144218187</speed>
  <fix>3d</fix>
</trkpt>
<trkpt lat="-27.271879" lon="151.3447055">
  <ele>534.94</ele>
  <time>2026-09-01T20:01:33Z</time>
  <course>269.14</course>
  <speed>23.51</speed>
  <fix>3d</fix>
</trkpt>
<trkpt lat="-27.2718803" lon="151.344609">
  <ele>534.62</ele>
  <time>2026-09-01T20:01:33Z</time>
  <course>269.03</course>
  <speed>23.81303214628494</speed>
  <fix>3d</fix>
</trkpt>
<trkpt lat="-27.2718796" lon="151.3446577">
  <ele>534.76</ele>
  <time>2026-09-01T20:01:33Z</time>
  <course>269.1</course>
  <speed>23.67</speed>
  <fix>3d</fix>
</trkpt>
<trkpt lat="-27.2718807" lon="151.344585">
  <ele>534.57</ele>
  <time>2026-09-01T20:01:33Z</time>
  <course>268.98</course>
  <speed>23.88318446103869</speed>
  <fix>3d</fix>
</trkpt>
<trkpt lat="-27.2718796" lon="151.3446577">
  <ele>534.76</ele>
  <time>2026-09-01T20:01:33Z</time>
  <course>269.1</course>
  <speed>23.67</speed>
  <fix>3d</fix>
</trkpt>
<trkpt lat="-27.2718811" lon="151.3445606">
  <ele>534.52</ele>
  <time>2026-09-01T20:01:33Z</time>
  <course>268.95</course>
  <speed>23.943341454358457</speed>
  <fix>3d</fix>
</trkpt>
<trkpt lat="-27.2718803" lon="151.3446096">
  <ele>534.63</ele>
  <time>2026-09-01T20:01:33Z</time>
  <course>269.06</course>
  <speed>23.81</speed>
  <fix>3d</fix>
</trkpt>
<trkpt lat="-27.2718814" lon="151.3445363">
  <ele>534.49</ele>
  <time>2026-09-01T20:01:33Z</time>
  <course>268.97</course>
  <speed>24.01350036958377</speed>
  <fix>3d</fix>
</trkpt>
<trkpt lat="-27.2718803" lon="151.3446096">
  <ele>534.63</ele>
  <time>2026-09-01T20:01:33Z</time>
  <course>269.06</course>
  <speed>23.81</speed>
  <fix>3d</fix>
</trkpt>
<trkpt lat="-27.2718818" lon="151.3445121">
  <ele>534.45</ele>
  <time>2026-09-01T20:01:33Z</time>
  <course>269.03</course>
  <speed>24.073664033545036</speed>
  <fix>3d</fix>
</trkpt>
<trkpt lat="-27.271881" lon="151.3445613">
  <ele>534.53</ele>
  <time>2026-09-01T20:01:33Z</time>
  <course>269.02</course>
  <speed>23.94</speed>
  <fix>3d</fix>
</trkpt>
<trkpt lat="-27.2718822" lon="151.3444878">
  <ele>534.43</ele>
  <time>2026-09-01T20:01:33Z</time>
  <course>269.07</course>
  <speed>24.12365643927139</speed>
  <fix>3d</fix>
</trkpt>
<trkpt lat="-27.271881" lon="151.3445613">
  <ele>534.53</ele>
  <time>2026-09-01T20:01:33Z</time>
  <course>269.02</course>
  <speed>23.94</speed>
  <fix>3d</fix>
</trkpt>
<trkpt lat="-27.2718826" lon="151.3444634">
  <ele>534.41</ele>
  <time>2026-09-01T20:01:33Z</time>
  <course>269.08</course>
  <speed>24.1834757634216</speed>
  <fix>3d</fix>
</trkpt>
<trkpt lat="-27.2718818" lon="151.3445128">
  <ele>534.45</ele>
  <time>2026-09-01T20:01:33Z</time>
  <course>269.0</course>
  <speed>24.07</speed>
  <fix>3d</fix>
</trkpt>
<trkpt lat="-27.2718829" lon="151.3444389">
  <ele>534.39</ele>
  <time>2026-09-01T20:01:33Z</time>
  <course>269.03</course>
  <speed>24.23330146719592</speed>
  <fix>3d</fix>
</trkpt>
<trkpt lat="-27.2718818" lon="151.3445128">
  <ele>534.45</ele>
  <time>2026-09-01T20:01:33Z</time>
  <course>269.0</course>
  <speed>24.07</speed>
  <fix>3d</fix>
</trkpt>
<trkpt lat="-27.2718833" lon="151.3444144">
  <ele>534.38</ele>
  <time>2026-09-01T20:01:33Z</time>
  <course>269.0</course>
  <speed>24.293293313175965</speed>
  <fix>3d</fix>
</trkpt>
<trkpt lat="-27.2718825" lon="151.3444641">
  <ele>534.41</ele>
  <time>2026-09-01T20:01:33Z</time>
  <course>269.01</course>
  <speed>24.18</speed>
  <fix>3d</fix>
</trkpt>
<trkpt lat="-27.2718837" lon="151.3443897">
  <ele>534.37</ele>
  <time>2026-09-01T20:01:33Z</time>
  <course>269.05</course>
  <speed>24.33312556988929</speed>
  <fix>3d</fix>
</trkpt>
<trkpt lat="-27.2718825" lon="151.3444641">
  <ele>534.41</ele>
  <time>2026-09-01T20:01:33Z</time>
  <course>269.01</course>
  <speed>24.18</speed>
  <fix>3d</fix>
</trkpt>
<trkpt lat="-27.271884" lon="151.3443652">
  <ele>534.37</ele>
  <time>2026-09-01T20:01:33Z</time>
  <course>269.06</course>
  <speed>24.38296126396464</speed>
  <fix>3d</fix>
</trkpt>
<trkpt lat="-27.2718832" lon="151.3444151">
  <ele>534.38</ele>
  <time>2026-09-01T20:01:33Z</time>
  <course>269.05</course>
  <speed>24.28</speed>
  <fix>3d</fix>
</trkpt>
<trkpt lat="-27.2718843" lon="151.3443405">
  <ele>534.38</ele>
  <time>2026-09-01T20:01:33Z</time>
  <course>269.04</course>
  <speed>24.422802869449686</speed>
  <fix>3d</fix>
</trkpt>
<trkpt lat="-27.2718832" lon="151.3444151">
  <ele>534.38</ele>
  <time>2026-09-01T20:01:33Z</time>
  <course>269.05</course>
  <speed>24.28</speed>
  <fix>3d</fix>
</trkpt>
<trkpt lat="-27.2718847" lon="151.3443159">
  <ele>534.38</ele>
  <time>2026-09-01T20:01:33Z</time>
  <course>269.07</course>
  <speed>24.45265016312138</speed>
  <fix>3d</fix>
</trkpt>
<trkpt lat="-27.2718839" lon="151.344366">
  <ele>534.37</ele>
  <time>2026-09-01T20:01:33Z</time>
  <course>269.1</course>
  <speed>24.38</speed>
  <fix>3d</fix>
</trkpt>
<trkpt lat="-27.271885" lon="151.3442911">
  <ele>534.4</ele>
  <time>2026-09-01T20:01:33Z</time>
  <course>269.11</course>
  <speed>24.492500893130533</speed>
  <fix>3d</fix>
</trkpt>
<trkpt lat="-27.2718839" lon="151.344366">
  <ele>534.37</ele>
  <time>2026-09-01T20:01:33Z</time>
  <course>269.1</course>
  <speed>24.38</speed>
  <fix>3d</fix>
</trkpt>
<trkpt lat="-27.2718853" lon="151.3442663">
  <ele>534.41</ele>
  <time>2026-09-01T20:01:33Z</time>
  <course>269.17</course>
  <speed>24.522357146082022</speed>
  <fix>3d</fix>
</trkpt>
<trkpt lat="-27.2718846" lon="151.3443166">
  <ele>534.39</ele>
  <time>2026-09-01T20:01:33Z</time>
  <course>269.14</course>
  <speed>24.45</speed>
  <fix>3d</fix>
</trkpt>
<trkpt lat="-27.2718856" lon="151.3442416">
  <ele>534.43</ele>
  <time>2026-09-01T20:01:33Z</time>
  <course>269.24</course>
  <speed>24.562216919488357</speed>
  <fix>3d</fix>
</trkpt>
<trkpt lat="-27.2718846" lon="151.3443166">
  <ele>534.39</ele>
  <time>2026-09-01T20:01:33Z</time>
  <course>269.14</course>
  <speed>24.45</speed>
  <fix>3d</fix>
</trkpt>
<trkpt lat="-27.2718859" lon="151.3442168">
  <ele>534.45</ele>
  <time>2026-09-01T20:01:33Z</time>
  <course>269.26</course>
  <speed>24.58195476360658</speed>
  <fix>3d</fix>
</trkpt>
<trkpt lat="-27.2718853" lon="151.3442672">
  <ele>534.41</ele>
  <time>2026-09-01T20:01:33Z</time>
  <course>269.18</course>
  <speed>24.52</speed>
  <fix>3d</fix>
</trkpt>
<trkpt lat="-27.2718862" lon="151.3441919">
  <ele>534.48</ele>
  <time>2026-09-01T20:01:33Z</time>
  <course>269.24</course>
  <speed>24.611828457065112</speed>
  <fix>3d</fix>
</trkpt>
<trkpt lat="-27.2718853" lon="151.3442672">
  <ele>534.41</ele>
  <time>2026-09-01T20:01:33Z</time>
  <course>269.18</course>
  <speed>24.52</speed>
  <fix>3d</fix>
</trkpt>
<trkpt lat="-27.2718865" lon="151.344167">
  <ele>534.51</ele>
  <time>2026-09-01T20:01:33Z</time>
  <course>269.24</course>
  <speed>24.63159150359554</speed>
  <fix>3d</fix>
</trkpt>
<trkpt lat="-27.2718859" lon="151.3442175">
  <ele>534.45</ele>
  <time>2026-09-01T20:01:33Z</time>
  <course>269.25</course>
  <speed>24.58</speed>
  <fix>3d</fix>
</trkpt>
<trkpt lat="-27.2718867" lon="151.3441421">
  <ele>534.54</ele>
  <time>2026-09-01T20:01:33Z</time>
  <course>269.26</course>
  <speed>24.651590212398062</speed>
  <fix>3d</fix>
</trkpt>
<trkpt lat="-27.2718859" lon="151.3442175">
  <ele>534.45</ele>
  <time>2026-09-01T20:01:33Z</time>
  <course>269.25</course>
  <speed>24.58</speed>
  <fix>3d</fix>
</trkpt>
<trkpt lat="-27.271887" lon="151.3441172">
  <ele>534.58</ele>
  <time>2026-09-01T20:01:33Z</time>
  <course>269.26</course>
  <speed>24.67147745879845</speed>
  <fix>3d</fix>
</trkpt>
<trkpt lat="-27.2718864" lon="151.3441678">
  <ele>534.51</ele>
  <time>2026-09-01T20:01:33Z</time>
  <course>269.32</course>
  <speed>24.63</speed>
  <fix>3d</fix>
</trkpt>
<trkpt lat="-27.2718872" lon="151.3440923">
  <ele>534.62</ele>
  <time>2026-09-01T20:01:33Z</time>
  <course>269.33</course>
  <speed>24.691265662172928</speed>
  <fix>3d</fix>
</trkpt>
<trkpt lat="-27.2718864" lon="151.3441678">
  <ele>534.51</ele>
  <time>2026-09-01T20:01:33Z</time>
  <course>269.32</course>
  <speed>24.63</speed>
  <fix>3d</fix>
</trkpt>
<trkpt lat="-27.2718874" lon="151.3440673">
  <ele>534.65</ele>
  <time>2026-09-01T20:01:33Z</time>
  <course>269.4</course>
  <speed>24.701070826990478</speed>
  <fix>3d</fix>
</trkpt>
<trkpt lat="-27.2718869" lon="151.3441179">
  <ele>534.57</ele>
  <time>2026-09-01T20:01:33Z</time>
  <course>269.37</course>
  <speed>24.67</speed>
  <fix>3d</fix>
</trkpt>
<trkpt lat="-27.2718876" lon="151.3440424">
  <ele>534.7</ele>
  <time>2026-09-01T20:01:33Z</time>
  <course>269.44</course>
  <speed>24.700979737654134</speed>
  <fix>3d</fix>
</trkpt>
<trkpt lat="-27.2718869" lon="151.3441179">
  <ele>534.57</ele>
  <time>2026-09-01T20:01:33Z</time>
  <course>269.37</course>
  <speed>24.67</speed>
  <fix>3d</fix>
</trkpt>
<trkpt lat="-27.2718878" lon="151.3440166">
  <ele>534.74</ele>
  <time>2026-09-01T20:01:33Z</time>
  <course>269.52</course>
  <speed>24.660811016671772</speed>
  <fix>3d</fix>
</trkpt>
<trkpt lat="-27.2718874" lon="151.3440679">
  <ele>534.65</ele>
  <time>2026-09-01T20:01:33Z</time>
  <course>269.44</course>
  <speed>24.69</speed>
  <fix>3d</fix>
</trkpt>
<trkpt lat="-27.271888" lon="151.3439917">
  <ele>534.78</ele>
  <time>2026-09-01T20:01:33Z</time>
  <course>269.54</course>
  <speed>24.560659600263183</speed>
  <fix>3d</fix>
</trkpt>
<trkpt lat="-27.2718874" lon="151.3440679">
  <ele>534.65</ele>
  <time>2026-09-01T20:01:33Z</time>
  <course>269.44</course>
  <speed>24.69</speed>
  <fix>3d</fix>
</trkpt>
<trkpt lat="-27.2718882" lon="151.343967">
  <ele>534.83</ele>
  <time>2026-09-01T20:01:33Z</time>
  <course>269.55</course>
  <speed>24.40052458452482</speed>
  <fix>3d</fix>
</trkpt>
<trkpt lat="-27.2718878" lon="151.3440181">
  <ele>534.73</ele>
  <time>2026-09-01T20:01:33Z</time>
  <course>269.53</course>
  <speed>24.64</speed>
  <fix>3d</fix>
</trkpt>
<trkpt lat="-27.2718883" lon="151.3439424">
  <ele>534.87</ele>
  <time>2026-09-01T20:01:33Z</time>
  <course>269.55</course>
  <speed>24.17040545791485</speed>
  <fix>3d</fix>
</trkpt>
<trkpt lat="-27.2718878" lon="151.3440181">
  <ele>534.73</ele>
  <time>2026-09-01T20:01:33Z</time>
  <course>269.53</course>
  <speed>24.64</speed>
  <fix>3d</fix>
</trkpt>
<trkpt lat="-27.2718884" lon="151.3439182">
  <ele>534.9</ele>
  <time>2026-09-01T20:01:33Z</time>
  <course>269.58</course>
  <speed>23.860301758360055</speed>
  <fix>3d</fix>
</trkpt>
<trkpt lat="-27.2718881" lon="151.3439685">
  <ele>534.82</ele>
  <time>2026-09-01T20:01:33Z</time>
  <course>269.61</course>
  <speed>24.38</speed>
  <fix>3d</fix>
</trkpt>
<trkpt lat="-27.2718885" lon="151.3438942">
  <ele>534.93</ele>
  <time>2026-09-01T20:01:33Z</time>
  <course>269.62</course>
  <speed>23.540257007942795</speed>
  <fix>3d</fix>
</trkpt>
<trkpt lat="-27.2718881" lon="151.3439685">
  <ele>534.82</ele>
  <time>2026-09-01T20:01:33Z</time>
  <course>269.61</course>
  <speed>24.38</speed>
  <fix>3d</fix>
</trkpt>
<trkpt lat="-27.2718886" lon="151.3438712">
  <ele>534.95</ele>
  <time>2026-09-01T20:01:33Z</time>
  <course>269.65</course>
  <speed>23.23021523791805</speed>
  <fix>3d</fix>
</trkpt>
<trkpt lat="-27.2718884" lon="151.3439197">
  <ele>534.9</ele>
  <time>2026-09-01T20:01:33Z</time>
  <course>269.68</course>
  <speed>23.87</speed>
  <fix>3d</fix>
</trkpt>
<trkpt lat="-27.2718887" lon="151.3438478">
  <ele>534.95</ele>
  <time>2026-09-01T20:01:33Z</time>
  <course>269.67</course>
  <speed>22.920176700889545</speed>
  <fix>3d</fix>
</trkpt>
<trkpt lat="-27.2718884" lon="151.3439197">
  <ele>534.9</ele>
  <time>2026-09-01T20:01:33Z</time>
  <course>269.68</course>
  <speed>23.87</speed>
  <fix>3d</fix>
</trkpt>
<trkpt lat="-27.2718888" lon="151.3438248">
  <ele>534.94</ele>
  <time>2026-09-01T20:01:33Z</time>
  <course>269.7</course>
  <speed>22.63014140477253</speed>
  <fix>3d</fix>
</trkpt>
<trkpt lat="-27.2718885" lon="151.3438721">
  <ele>534.94</ele>
  <time>2026-09-01T20:01:33Z</time>
  <course>269.74</course>
  <speed>23.24</speed>
  <fix>3d</fix>
</trkpt>
<trkpt lat="-27.2718889" lon="151.3438021">
  <ele>534.91</ele>
  <time>2026-09-01T20:01:33Z</time>
  <course>269.72</course>
  <speed>22.350109619417978</speed>
  <fix>3d</fix>
</trkpt>
<trkpt lat="-27.2718885" lon="151.3438721">
  <ele>534.94</ele>
  <time>2026-09-01T20:01:33Z</time>
  <course>269.74</course>
  <speed>23.24</speed>
  <fix>3d</fix>
</trkpt>
<trkpt lat="-27.2718889" lon="151.3437797">
  <ele>534.86</ele>
  <time>2026-09-01T20:01:33Z</time>
  <course>269.75</course>
  <speed>22.08011095986612</speed>
  <fix>3d</fix>
</trkpt>
<trkpt lat="-27.2718888" lon="151.3438257">
  <ele>534.93</ele>
  <time>2026-09-01T20:01:33Z</time>
  <course>269.78</course>
  <speed>22.65</speed>
  <fix>3d</fix>
</trkpt>
<trkpt lat="-27.271889" lon="151.3437574">
  <ele>534.79</ele>
  <time>2026-09-01T20:01:33Z</time>
  <course>269.77</course>
  <speed>21.830112230586447</speed>
  <fix>3d</fix>
</trkpt>
<trkpt lat="-27.2718888" lon="151.3438257">
  <ele>534.93</ele>
  <time>2026-09-01T20:01:33Z</time>
  <course>269.78</course>
  <speed>22.65</speed>
  <fix>3d</fix>
</trkpt>
<trkpt lat="-27.2718891" lon="151.3437356">
  <ele>534.73</ele>
  <time>2026-09-01T20:01:33Z</time>
  <course>269.8</course>
  <speed>21.580113530748626</speed>
  <fix>3d</fix>
</trkpt>
<trkpt lat="-27.2718889" lon="151.3437805">
  <ele>534.85</ele>
  <time>2026-09-01T20:01:33Z</time>
  <course>269.8</course>
  <speed>22.1</speed>
  <fix>3d</fix>
</trkpt>
<trkpt lat="-27.2718891" lon="151.3437138">
  <ele>534.65</ele>
  <time>2026-09-01T20:01:33Z</time>
  <course>269.81</course>
  <speed>21.350114753789967</speed>
  <fix>3d</fix>
</trkpt>
<trkpt lat="-27.2718889" lon="151.3437805">
  <ele>534.85</ele>
  <time>2026-09-01T20:01:33Z</time>
  <course>269.8</course>
  <speed>22.1</speed>
  <fix>3d</fix>
</trkpt>
<trkpt lat="-27.2718892" lon="151.3436923">
  <ele>534.54</ele>
  <time>2026-09-01T20:01:33Z</time>
  <course>269.82</course>
  <speed>21.120085227100766</speed>
  <fix>3d</fix>
</trkpt>
<trkpt lat="-27.271889" lon="151.3437364">
  <ele>534.72</ele>
  <time>2026-09-01T20:01:33Z</time>
  <course>269.8</course>
  <speed>21.6</speed>
  <fix>3d</fix>
</trkpt>
<trkpt lat="-27.2718893" lon="151.3436712">
  <ele>534.45</ele>
  <time>2026-09-01T20:01:33Z</time>
  <course>269.82</course>
  <speed>20.910086083036575</speed>
  <fix>3d</fix>
</trkpt>
<trkpt lat="-27.271889" lon="151.3437364">
  <ele>534.72</ele>
  <time>2026-09-01T20:01:33Z</time>
  <course>269.8</course>
  <speed>21.6</speed>
  <fix>3d</fix>
</trkpt>
<trkpt lat="-27.2718893" lon="151.3436501">
  <ele>534.34</ele>
  <time>2026-09-01T20:01:33Z</time>
  <course>269.82</course>
  <speed>20.700086956339096</speed>
  <fix>3d</fix>
</trkpt>
<trkpt lat="-27.2718891" lon="151.3436932">
  <ele>534.55</ele>
  <time>2026-09-01T20:01:33Z</time>
  <course>269.81</course>
  <speed>21.14</speed>
  <fix>3d</fix>
</trkpt>
<trkpt lat="-27.2718894" lon="151.3436293">
  <ele>534.22</ele>
  <time>2026-09-01T20:01:33Z</time>
  <course>269.82</course>
  <speed>20.500087804690008</speed>
  <fix>3d</fix>
</trkpt>
<trkpt lat="-27.2718891" lon="151.3436932">
  <ele>534.55</ele>
  <time>2026-09-01T20:01:33Z</time>
  <course>269.81</course>
  <speed>21.14</speed>
  <fix>3d</fix>
</trkpt>
<trkpt lat="-27.2718894" lon="151.3436087">
  <ele>534.1</ele>
  <time>2026-09-01T20:01:33Z</time>
  <course>269.82</course>
  <speed>20.310088626099102</speed>
  <fix>3d</fix>
</trkpt>
<trkpt lat="-27.2718893" lon="151.3436509">
  <ele>534.33</ele>
  <time>2026-09-01T20:01:33Z</time>
  <course>269.8</course>
  <speed>20.71</speed>
  <fix>3d</fix>
</trkpt>
<trkpt lat="-27.2718895" lon="151.3435883">
  <ele>533.96</ele>
  <time>2026-09-01T20:01:33Z</time>
  <course>269.81</course>
  <speed>20.13008941857934</speed>
  <fix>3d</fix>
</trkpt>
<trkpt lat="-27.2718893" lon="151.3436509">
  <ele>534.33</ele>
  <time>2026-09-01T20:01:33Z</time>
  <course>269.8</course>
  <speed>20.71</speed>
  <fix>3d</fix>
</trkpt>
<trkpt lat="-27.2718896" lon="151.343568">
  <ele>533.83</ele>
  <time>2026-09-01T20:01:33Z</time>
  <course>269.81</course>
  <speed>19.950090225359883</speed>
  <fix>3d</fix>
</trkpt>
<trkpt lat="-27.2718894" lon="151.3436093">
  <ele>534.09</ele>
  <time>2026-09-01T20:01:33Z</time>
  <course>269.8</course>
  <speed>20.32</speed>
  <fix>3d</fix>
</trkpt>
<trkpt lat="-27.2718896" lon="151.3435472">
  <ele>533.68</ele>
  <time>2026-09-01T20:01:33Z</time>
  <course>269.81</course>
  <speed>19.770091046831322</speed>
  <fix>3d</fix>
</trkpt>
<trkpt lat="-27.2718894" lon="151.3436093">
  <ele>534.09</ele>
  <time>2026-09-01T20:01:33Z</time>
  <course>269.8</course>
  <speed>20.32</speed>
  <fix>3d</fix>
</trkpt>
<trkpt lat="-27.2718897" lon="151.3435274">
  <ele>533.54</ele>
  <time>2026-09-01T20:01:33Z</time>
  <course>269.81</course>
  <speed>19.610091789688287</speed>
  <fix>3d</fix>
</trkpt>
<trkpt lat="-27.2718895" lon="151.3435686">
  <ele>533.82</ele>
  <time>2026-09-01T20:01:33Z</time>
  <course>269.8</course>
  <speed>19.96</speed>
  <fix>3d</fix>
</trkpt>
<trkpt lat="-27.2718897" lon="151.3435077">
  <ele>533.39</ele>
  <time>2026-09-01T20:01:33Z</time>
  <course>269.81</course>
  <speed>19.450092544766978</speed>
  <fix>3d</fix>
</trkpt>
<trkpt lat="-27.2718895" lon="151.3435686">
  <ele>533.82</ele>
  <time>2026-09-01T20:01:33Z</time>
  <course>269.8</course>
  <speed>19.96</speed>
  <fix>3d</fix>
</trkpt>
<trkpt lat="-27.2718898" lon="151.3434881">
  <ele>533.23</ele>
  <time>2026-09-01T20:01:33Z</time>
  <course>269.81</course>
  <speed>19.300093264023364</speed>
  <fix>3d</fix>
</trkpt>
<trkpt lat="-27.2718896" lon="151.3435286">
  <ele>533.54</ele>
  <time>2026-09-01T20:01:33Z</time>
  <course>269.8</course>
  <speed>19.62</speed>
  <fix>3d</fix>
</trkpt>
<trkpt lat="-27.2718899" lon="151.3434687">
  <ele>533.08</ele>
  <time>2026-09-01T20:01:33Z</time>
  <course>269.81</course>
  <speed>19.15009399454739</speed>
  <fix>3d</fix>
</trkpt>
<trkpt lat="-27.2718896" lon="151.3435286">
  <ele>533.54</ele>
  <time>2026-09-01T20:01:33Z</time>
  <course>269.8</course>
  <speed>19.62</speed>
  <fix>3d</fix>
</trkpt>
<trkpt lat="-27.2718899" lon="151.3434494">
  <ele>532.91</ele>
  <time>2026-09-01T20:01:33Z</time>
  <course>269.81</course>
  <speed>19.010094686771026</speed>
  <fix>3d</fix>
</trkpt>
<trkpt lat="-27.2718897" lon="151.3434892">
  <ele>533.24</ele>
  <time>2026-09-01T20:01:33Z</time>
  <course>269.8</course>
  <speed>19.31</speed>
  <fix>3d</fix>
</trkpt>
<trkpt lat="-27.27189" lon="151.3434303">
  <ele>532.76</ele>
  <time>2026-09-01T20:01:33Z</time>
  <course>269.8</course>
  <speed>18.870095389266055</speed>
  <fix>3d</fix>
</trkpt>
<trkpt lat="-27.2718897" lon="151.3434892">
  <ele>533.24</ele>
  <time>2026-09-01T20:01:33Z</time>
  <course>269.8</course>
  <speed>19.31</speed>
  <fix>3d</fix>
</trkpt>
<trkpt lat="-27.27189" lon="151.3434112">
  <ele>532.59</ele>
  <time>2026-09-01T20:01:33Z</time>
  <course>269.8</course>
  <speed>18.730096102262795</speed>
  <fix>3d</fix>
</trkpt>
<trkpt lat="-27.2718899" lon="151.3434505">
  <ele>532.93</ele>
  <time>2026-09-01T20:01:33Z</time>
  <course>269.79</course>
  <speed>19.02</speed>
  <fix>3d</fix>
</trkpt>
<trkpt lat="-27.2718901" lon="151.3433924">
  <ele>532.41</ele>
  <time>2026-09-01T20:01:33Z</time>
  <course>269.8</course>
  <speed>18.600096773941797</speed>
  <fix>3d</fix>
</trkpt>
<trkpt lat="-27.2718899" lon="151.3434505">
  <ele>532.93</ele>
  <time>2026-09-01T20:01:33Z</time>
  <course>269.79</course>
  <speed>19.02</speed>
  <fix>3d</fix>
</trkpt>
<trkpt lat="-27.2718902" lon="151.3433737">
  <ele>532.26</ele>
  <time>2026-09-01T20:01:33Z</time>
  <course>269.8</course>
  <speed>18.480097402340714</speed>
  <fix>3d</fix>
</trkpt>
<trkpt lat="-27.27189" lon="151.3434124">
  <ele>532.6</ele>
  <time>2026-09-01T20:01:33Z</time>
  <course>269.79</course>
  <speed>18.74</speed>
  <fix>3d</fix>
</trkpt>
<trkpt lat="-27.2718902" lon="151.343355">
  <ele>532.08</ele>
  <time>2026-09-01T20:01:33Z</time>
  <course>269.8</course>
  <speed>18.360098038953932</speed>
  <fix>3d</fix>
</trkpt>
<trkpt lat="-27.27189" lon="151.3434124">
  <ele>532.6</ele>
  <time>2026-09-01T20:01:33Z</time>
  <course>269.79</course>
  <speed>18.74</speed>
  <fix>3d</fix>
</trkpt>
<trkpt lat="-27.2718903" lon="151.3433365">
  <ele>531.91</ele>
  <time>2026-09-01T20:01:33Z</time>
  <course>269.8</course>
  <speed>18.24009868394357</speed>
  <fix>3d</fix>
</trkpt>
<trkpt lat="-27.2718901" lon="151.3433748">
  <ele>532.26</ele>
  <time>2026-09-01T20:01:33Z</time>
  <course>269.79</course>
  <speed>18.49</speed>
  <fix>3d</fix>
</trkpt>
<trkpt lat="-27.2718903" lon="151.3433182">
  <ele>531.73</ele>
  <time>2026-09-01T20:01:33Z</time>
  <course>269.79</course>
  <speed>18.120099337476052</speed>
  <fix>3d</fix>
</trkpt>
<trkpt lat="-27.2718901" lon="151.3433748">
  <ele>532.26</ele>
  <time>2026-09-01T20:01:33Z</time>
  <course>269.79</course>
  <speed>18.49</speed>
  <fix>3d</fix>
</trkpt>
<trkpt lat="-27.2718904" lon="151.3433004">
  <ele>531.56</ele>
  <time>2026-09-01T20:01:33Z</time>
  <course>269.79</course>
  <speed>18.020099888735356</speed>
  <fix>3d</fix>
</trkpt>
<trkpt lat="-27.2718902" lon="151.3433377">
  <ele>531.91</ele>
  <time>2026-09-01T20:01:33Z</time>
  <course>269.78</course>
  <speed>18.25</speed>
  <fix>3d</fix>
</trkpt>
<trkpt lat="-27.2718905" lon="151.3432822">
  <ele>531.38</ele>
  <time>2026-09-01T20:01:33Z</time>
  <course>269.79</course>
  <speed>17.910100502230577</speed>
  <fix>3d</fix>
</trkpt>
<trkpt lat="-27.2718902" lon="151.3433377">
  <ele>531.91</ele>
  <time>2026-09-01T20:01:33Z</time>
  <course>269.78</course>
  <speed>18.25</speed>
  <fix>3d</fix>
</trkpt>
<trkpt lat="-27.2718905" lon="151.3432642">
  <ele>531.2</ele>
  <time>2026-09-01T20:01:33Z</time>
  <course>269.79</course>
  <speed>17.800101123308263</speed>
  <fix>3d</fix>
</trkpt>
<trkpt lat="-27.2718903" lon="151.343301">
  <ele>531.56</ele>
  <time>2026-09-01T20:01:33Z</time>
  <course>269.78</course>
  <speed>18.02</speed>
  <fix>3d</fix>
</trkpt>
<trkpt lat="-27.2718906" lon="151.3432461">
  <ele>531.02</ele>
  <time>2026-09-01T20:01:33Z</time>
  <course>269.78</course>
  <speed>17.700101694623115</speed>
  <fix>3d</fix>
</trkpt>
<trkpt lat="-27.2718903" lon="151.343301">
  <ele>531.56</ele>
  <time>2026-09-01T20:01:33Z</time>
  <course>269.78</course>
  <speed>18.02</speed>
  <fix>3d</fix>
</trkpt>
<trkpt lat="-27.2718907" lon="151.3432283">
  <ele>530.83</ele>
  <time>2026-09-01T20:01:33Z</time>
  <course>269.78</course>
  <speed>17.60013920399495</speed>
  <fix>3d</fix>
</trkpt>
<trkpt lat="-27.2718905" lon="151.3432647">
  <ele>531.2</ele>
  <time>2026-09-01T20:01:33Z</time>
  <course>269.77</course>
  <speed>17.81</speed>
  <fix>3d</fix>
</trkpt>
<trkpt lat="-27.2718907" lon="151.3432106">
  <ele>530.65</ele>
  <time>2026-09-01T20:01:33Z</time>
  <course>269.78</course>
  <speed>17.51013991948665</speed>
  <fix>3d</fix>
</trkpt>
<trkpt lat="-27.2718905" lon="151.3432647">
  <ele>531.2</ele>
  <time>2026-09-01T20:01:33Z</time>
  <course>269.77</course>
  <speed>17.81</speed>
  <fix>3d</fix>
</trkpt>
<trkpt lat="-27.2718908" lon="151.3431929">
  <ele>530.46</ele>
  <time>2026-09-01T20:01:33Z</time>
  <course>269.78</course>
  <speed>17.420140642371404</speed>
  <fix>3d</fix>
</trkpt>
<trkpt lat="-27.2718906" lon="151.3432289">
  <ele>530.83</ele>
  <time>2026-09-01T20:01:33Z</time>
  <course>269.77</course>
  <speed>17.61</speed>
  <fix>3d</fix>
</trkpt>
<trkpt lat="-27.2718908" lon="151.3431755">
  <ele>530.28</ele>
  <time>2026-09-01T20:01:33Z</time>
  <course>269.77</course>
  <speed>17.33014137276439</speed>
  <fix>3d</fix>
</trkpt>
<trkpt lat="-27.2718906" lon="151.3432289">
  <ele>530.83</ele>
  <time>2026-09-01T20:01:33Z</time>
  <course>269.77</course>
  <speed>17.61</speed>
  <fix>3d</fix>
</trkpt>
<trkpt lat="-27.2718909" lon="151.3431574">
  <ele>530.08</ele>
  <time>2026-09-01T20:01:33Z</time>
  <course>269.77</course>
  <speed>17.240142110783196</speed>
  <fix>3d</fix>
</trkpt>
<trkpt lat="-27.2718907" lon="151.3431934">
  <ele>530.46</ele>
  <time>2026-09-01T20:01:33Z</time>
  <course>269.76</course>
  <speed>17.42</speed>
  <fix>3d</fix>
</trkpt>
<trkpt lat="-27.271891" lon="151.34314">
  <ele>529.89</ele>
  <time>2026-09-01T20:01:33Z</time>
  <course>269.77</course>
  <speed>17.150142856547873</speed>
  <fix>3d</fix>
</trkpt>
<trkpt lat="-27.2718907" lon="151.3431934">
  <ele>530.46</ele>
  <time>2026-09-01T20:01:33Z</time>
  <course>269.76</course>
  <speed>17.42</speed>
  <fix>3d</fix>
</trkpt>
<trkpt lat="-27.2700943" lon="151.3472222">
  <ele>542.95</ele>
  <time>2026-09-01T20:01:33Z</time>
  <course>250.0</course>
  <speed>0.0</speed>
  <fix>3d</fix>
</trkpt>
<trkpt lat="-27.2718909" lon="151.3431585">
  <ele>530.09</ele>
  <time>2026-09-01T20:01:33Z</time>
  <course>269.76</course>
  <speed>17.24</speed>
  <fix>3d</fix>
</trkpt>
<trkpt lat="-27.2700943" lon="151.347222">
  <ele>542.81</ele>
  <time>2026-09-01T20:01:33Z</time>
  <course>250.0</course>
  <speed>0.07280109889280519</speed>
  <fix>3d</fix>
</trkpt>
<trkpt lat="-27.2718909" lon="151.3431585">
  <ele>530.09</ele>
  <time>2026-09-01T20:01:33Z</time>
  <course>269.76</course>
  <speed>17.24</speed>
  <fix>3d</fix>
</trkpt>
<trkpt lat="-27.2700943" lon="151.3472219">
  <ele>542.58</ele>
  <time>2026-09-01T20:01:33Z</time>
  <course>249.97</course>
  <speed>0.22472205054244232</speed>
  <fix>3d</fix>
</trkpt>
<trkpt lat="-27.2709926" lon="151.3451816">
  <ele>536.36</ele>
  <time>2026-09-01T20:01:33Z</time>
  <course>269.67</course>
  <speed>8.61</speed>
  <fix>3d</fix>
</trkpt>
<trkpt lat="-27.2700944" lon="151.3472215">
  <ele>542.26</ele>
  <time>2026-09-01T20:01:33Z</time>
  <course>250.43</course>
  <speed>0.4617358552246078</speed>
  <fix>3d</fix>
</trkpt>
<trkpt lat="-27.2709926" lon="151.3451816">
  <ele>536.36</ele>
  <time>2026-09-01T20:01:33Z</time>
  <course>269.67</course>
  <speed>8.61</speed>
  <fix>3d</fix>
</trkpt>
<trkpt lat="-27.2700945" lon="151.347221">
  <ele>541.86</ele>
  <time>2026-09-01T20:01:33Z</time>
  <course>253.5</course>
  <speed>0.7863841300535</speed>
  <fix>3d</fix>
</trkpt>
<trkpt lat="-27.2700943" lon="151.3472219">
  <ele>542.55</ele>
  <time>2026-09-01T20:01:33Z</time>
  <course>251.16</course>
  <speed>0.26</speed>
  <fix>3d</fix>
</trkpt>
<trkpt lat="-27.2700946" lon="151.34722">
  <ele>541.4</ele>
  <time>2026-09-01T20:01:33Z</time>
  <course>262.96</course>
  <speed>1.1503912377969505</speed>
  <fix>3d</fix>
</trkpt>
<trkpt lat="-27.2700943" lon="151.3472219">
  <ele>542.55</ele>
  <time>2026-09-01T20:01:33Z</time>
  <course>251.16</course>
  <speed>0.26</speed>
  <fix>3d</fix>
</trkpt>
<trkpt lat="-27.2700948" lon="151.3472186">
  <ele>540.85</ele>
  <time>2026-09-01T20:01:33Z</time>
  <course>264.16</course>
  <speed>1.5730543537970962</speed>
  <fix>3d</fix>
</trkpt>
<trkpt lat="-27.2700945" lon="151.3472209">
  <ele>541.85</ele>
  <time>2026-09-01T20:01:33Z</time>
  <course>263.24</course>
  <speed>0.78</speed>
  <fix>3d</fix>
</trkpt>
<trkpt lat="-27.270096" lon="151.3472172">
  <ele>540.27</ele>
  <time>2026-09-01T20:01:33Z</time>
  <course>252.44</course>
  <speed>2.923696290656743</speed>
  <fix>3d</fix>
</trkpt>
<trkpt lat="-27.2700945" lon="151.3472209">
  <ele>541.85</ele>
  <time>2026-09-01T20:01:33Z</time>
  <course>263.24</course>
  <speed>0.78</speed>
  <fix>3d</fix>
</trkpt>
<trkpt lat="-27.270099" lon="151.3472157">
  <ele>539.69</ele>
  <time>2026-09-01T20:01:33Z</time>
  <course>244.01</course>
  <speed>4.462566526114765</speed>
  <fix>3d</fix>
</trkpt>
<trkpt lat="-27.2700952" lon="151.3472186">
  <ele>540.86</ele>
  <time>2026-09-01T20:01:33Z</time>
  <course>228.58</course>
  <speed>1.8</speed>
  <fix>3d</fix>
</trkpt>
<trkpt lat="-27.2701035" lon="151.3472143">
  <ele>539.18</ele>
  <time>2026-09-01T20:01:33Z</time>
  <course>237.92</course>
  <speed>5.799051646605676</speed>
  <fix>3d</fix>
</trkpt>
<trkpt lat="-27.2700952" lon="151.3472186">
  <ele>540.86</ele>
  <time>2026-09-01T20:01:33Z</time>
  <course>228.58</course>
  <speed>1.8</speed>
  <fix>3d</fix>
</trkpt>
<trkpt lat="-27.2701091" lon="151.3472128">
  <ele>538.75</ele>
  <time>2026-09-01T20:01:33Z</time>
  <course>233.12</course>
  <speed>6.850905049699638</speed>
  <fix>3d</fix>
</trkpt>
<trkpt lat="-27.2700995" lon="151.3472157">
  <ele>539.75</ele>
  <time>2026-09-01T20:01:33Z</time>
  <course>200.62</course>
  <speed>4.22</speed>
  <fix>3d</fix>
</trkpt>
<trkpt lat="-27.2701154" lon="151.3472112">
  <ele>538.43</ele>
  <time>2026-09-01T20:01:33Z</time>
  <course>229.55</course>
  <speed>7.632856608112064</speed>
  <fix>3d</fix>
</trkpt>
<trkpt lat="-27.2700995" lon="151.3472157">
  <ele>539.75</ele>
  <time>2026-09-01T20:01:33Z</time>
  <course>200.62</course>
  <speed>4.22</speed>
  <fix>3d</fix>
</trkpt>
<trkpt lat="-27.2701223" lon="151.347209">
  <ele>538.24</ele>
  <time>2026-09-01T20:01:33Z</time>
  <course>227.16</course>
  <speed>8.10827971890462</speed>
  <fix>3d</fix>
</trkpt>
<trkpt lat="-27.2701091" lon="151.3472128">
  <ele>538.83</ele>
  <time>2026-09-01T20:01:33Z</time>
  <course>193.68</course>
  <speed>6.66</speed>
  <fix>3d</fix>
</trkpt>
<trkpt lat="-27.2701292" lon="151.3472061">
  <ele>538.14</ele>
  <time>2026-09-01T20:01:33Z</time>
  <course>225.86</course>
  <speed>8.446691660052473</speed>
  <fix>3d</fix>
</trkpt>
<trkpt lat="-27.2701091" lon="151.3472128">
  <ele>538.83</ele>
  <time>2026-09-01T20:01:33Z</time>
  <course>193.68</course>
  <speed>6.66</speed>
  <fix>3d</fix>
</trkpt>
<trkpt lat="-27.2701361" lon="151.3472021">
  <ele>538.09</ele>
  <time>2026-09-01T20:01:33Z</time>
  <course>225.57</course>
  <speed>8.77601845941541</speed>
  <fix>3d</fix>
</trkpt>
<trkpt lat="-27.2701219" lon="151.3472088">
  <ele>538.29</ele>
  <time>2026-09-01T20:01:33Z</time>
  <course>198.83</course>
  <speed>7.98</speed>
  <fix>3d</fix>
</trkpt>
<trkpt lat="-27.2701428" lon="151.3471971">
  <ele>538.07</ele>
  <time>2026-09-01T20:01:33Z</time>
  <course>226.31</course>
  <speed>9.1564621989063</speed>
  <fix>3d</fix>
</trkpt>
<trkpt lat="-27.2701219" lon="151.3472088">
  <ele>538.29</ele>
  <time>2026-09-01T20:01:33Z</time>
  <course>198.83</course>
  <speed>7.98</speed>
  <fix>3d</fix>
</trkpt>
<trkpt lat="-27.2701493" lon="151.3471911">
  <ele>538.04</ele>
  <time>2026-09-01T20:01:33Z</time>
  <course>228.01</course>
  <speed>9.60504034348633</speed>
  <fix>3d</fix>
</trkpt>
<trkpt lat="-27.2701356" lon="151.3472018">
  <ele>538.1</ele>
  <time>2026-09-01T20:01:33Z</time>
  <course>210.14</course>
  <speed>8.73</speed>
  <fix>3d</fix>
</trkpt>
<trkpt lat="-27.2701557" lon="151.3471841">
  <ele>538.02</ele>
  <time>2026-09-01T20:01:33Z</time>
  <course>230.43</course>
  <speed>10.093448370106223</speed>
  <fix>3d</fix>
</trkpt>
<trkpt lat="-27.2701356" lon="151.3472018">
  <ele>538.1</ele>
  <time>2026-09-01T20:01:33Z</time>
  <course>210.14</course>
  <speed>8.73</speed>
  <fix>3d</fix>
</trkpt>
<trkpt lat="-27.2701617" lon="151.3471765">
  <ele>537.97</ele>
  <time>2026-09-01T20:01:33Z</time>
  <course>233.21</course>
  <speed>10.587738190945222</speed>
  <fix>3d</fix>
</trkpt>
<trkpt lat="-27.2701489" lon="151.347191">
  <ele>538.04</ele>
  <time>2026-09-01T20:01:33Z</time>
  <course>221.34</course>
  <speed>9.57</speed>
  <fix>3d</fix>
</trkpt>
<trkpt lat="-27.2701678" lon="151.3471674">
  <ele>537.91</ele>
  <time>2026-09-01T20:01:33Z</time>
  <course>236.37</course>
  <speed>11.13912922988148</speed>
  <fix>3d</fix>
</trkpt>
<trkpt lat="-27.2701489" lon="151.347191">
  <ele>538.04</ele>
  <time>2026-09-01T20:01:33Z</time>
  <course>221.34</course>
  <speed>9.57</speed>
  <fix>3d</fix>
</trkpt>
<trkpt lat="-27.2701734" lon="151.3471578">
  <ele>537.83</ele>
  <time>2026-09-01T20:01:33Z</time>
  <course>239.44</course>
  <speed>11.67764102890648</speed>
  <fix>3d</fix>
</trkpt>
<trkpt lat="-27.2701614" lon="151.3471763">
  <ele>537.96</ele>
  <time>2026-09-01T20:01:33Z</time>
  <course>230.61</course>
  <speed>10.56</speed>
  <fix>3d</fix>
</trkpt>
<trkpt lat="-27.2701787" lon="151.3471473">
  <ele>537.74</ele>
  <time>2026-09-01T20:01:33Z</time>
  <course>242.27</course>
  <speed>12.211879462228572</speed>
  <fix>3d</fix>
</trkpt>
<trkpt lat="-27.2701614" lon="151.3471763">
  <ele>537.96</ele>
  <time>2026-09-01T20:01:33Z</time>
  <course>230.61</course>
  <speed>10.56</speed>
  <fix>3d</fix>
</trkpt>
<trkpt lat="-27.2701836" lon="151.347136">
  <ele>537.63</ele>
  <time>2026-09-01T20:01:33Z</time>
  <course>244.84</course>
  <speed>12.7534309109353</speed>
  <fix>3d</fix>
</trkpt>
<trkpt lat="-27.2701729" lon="151.3471579">
  <ele>537.82</ele>
  <time>2026-09-01T20:01:33Z</time>
  <course>238.47</course>
  <speed>11.62</speed>
  <fix>3d</fix>
</trkpt>
<trkpt lat="-27.2701882" lon="151.3471238">
  <ele>537.53</ele>
  <time>2026-09-01T20:01:33Z</time>
  <course>247.2</course>
  <speed>13.282868666067582</speed>
  <fix>3d</fix>
</trkpt>
<trkpt lat="-27.2701729" lon="151.3471579">
  <ele>537.82</ele>
  <time>2026-09-01T20:01:33Z</time>
  <course>238.47</course>
  <speed>11.62</speed>
  <fix>3d</fix>
</trkpt>
<trkpt lat="-27.2701924" lon="151.3471111">
  <ele>537.41</ele>
  <time>2026-09-01T20:01:33Z</time>
  <course>249.31</course>
  <speed>13.822709575188217</speed>
  <fix>3d</fix>
</trkpt>
<trkpt lat="-27.2701832" lon="151.3471363">
  <ele>537.63</ele>
  <time>2026-09-01T20:01:33Z</time>
  <course>245.21</course>
  <speed>12.7</speed>
  <fix>3d</fix>
</trkpt>
<trkpt lat="-27.2701962" lon="151.3470975">
  <ele>537.29</ele>
  <time>2026-09-01T20:01:33Z</time>
  <course>251.29</course>
  <speed>14.35041811237568</speed>
  <fix>3d</fix>
</trkpt>
<trkpt lat="-27.2701832" lon="151.3471363">
  <ele>537.63</ele>
  <time>2026-09-01T20:01:33Z</time>
  <course>245.21</course>
  <speed>12.7</speed>
  <fix>3d</fix>
</trkpt>
<trkpt lat="-27.2701997" lon="151.3470831">
  <ele>537.2</ele>
  <time>2026-09-01T20:01:33Z</time>
  <course>253.26</course>
  <speed>14.867440936489372</speed>
  <fix>3d</fix>
</trkpt>
<trkpt lat="-27.270192" lon="151.3471114">
  <ele>537.42</ele>
  <time>2026-09-01T20:01:33Z</time>
  <course>250.95</course>
  <speed>13.77</speed>
  <fix>3d</fix>
</trkpt>
<trkpt lat="-27.2702028" lon="151.3470683">
  <ele>537.1</ele>
  <time>2026-09-01T20:01:33Z</time>
  <course>255.21</course>
  <speed>15.371053965164522</speed>
  <fix>3d</fix>
</trkpt>
<trkpt lat="-27.270192" lon="151.3471114">
  <ele>537.42</ele>
  <time>2026-09-01T20:01:33Z</time>
  <course>250.95</course>
  <speed>13.77</speed>
  <fix>3d</fix>
</trkpt>
<trkpt lat="-27.2702055" lon="151.3470529">
  <ele>537.0</ele>
  <time>2026-09-01T20:01:33Z</time>
  <course>257.16</course>
  <speed>15.872517128672438</speed>
  <fix>3d</fix>
</trkpt>
<trkpt lat="-27.2701993" lon="151.3470837">
  <ele>537.2</ele>
  <time>2026-09-01T20:01:33Z</time>
  <course>255.71</course>
  <speed>14.82</speed>
  <fix>3d</fix>
</trkpt>
<trkpt lat="-27.2702078" lon="151.3470367">
  <ele>536.91</ele>
  <time>2026-09-01T20:01:33Z</time>
  <course>258.93</course>
  <speed>16.35997555010398</speed>
  <fix>3d</fix>
</trkpt>
<trkpt lat="-27.2701993" lon="151.3470837">
  <ele>537.2</ele>
  <time>2026-09-01T20:01:33Z</time>
  <course>255.71</course>
  <speed>14.82</speed>
  <fix>3d</fix>
</trkpt>
<trkpt lat="-27.2702098" lon="151.3470202">
  <ele>536.83</ele>
  <time>2026-09-01T20:01:33Z</time>
  <course>260.55</course>
  <speed>16.832854778676136</speed>
  <fix>3d</fix>
</trkpt>
<trkpt lat="-27.2702051" lon="151.3470534">
  <ele>537.0</ele>
  <time>2026-09-01T20:01:33Z</time>
  <course>259.63</course>
  <speed>15.83</speed>
  <fix>3d</fix>
</trkpt>
<trkpt lat="-27.2702115" lon="151.347003">
  <ele>536.76</ele>
  <time>2026-09-01T20:01:33Z</time>
  <course>262.06</course>
  <speed>17.297918949977767</speed>
  <fix>3d</fix>
</trkpt>
<trkpt lat="-27.2702051" lon="151.3470534">
  <ele>537.0</ele>
  <time>2026-09-01T20:01:33Z</time>
  <course>259.63</course>
  <speed>15.83</speed>
  <fix>3d</fix>
</trkpt>
<trkpt lat="-27.2702128" lon="151.3469854">
  <ele>536.7</ele>
  <time>2026-09-01T20:01:33Z</time>
  <course>263.4</course>
  <speed>17.745503655856037</speed>
  <fix>3d</fix>
</trkpt>
<trkpt lat="-27.2702095" lon="151.3470208">
  <ele>536.83</ele>
  <time>2026-09-01T20:01:33Z</time>
  <course>262.95</course>
  <speed>16.8</speed>
  <fix>3d</fix>
</trkpt>
<trkpt lat="-27.2702138" lon="151.3469672">
  <ele>536.65</ele>
  <time>2026-09-01T20:01:33Z</time>
  <course>264.63</course>
  <speed>18.172300349708067</speed>
  <fix>3d</fix>
</trkpt>
<trkpt lat="-27.2702095" lon="151.3470208">
  <ele>536.83</ele>
  <time>2026-09-01T20:01:33Z</time>
  <course>262.95</course>
  <speed>16.8</speed>
  <fix>3d</fix>
</trkpt>
<trkpt lat="-27.2702144" lon="151.3469486">
  <ele>536.63</ele>
  <time>2026-09-01T20:01:33Z</time>
  <course>265.68</course>
  <speed>18.598432729668378</speed>
  <fix>3d</fix>
</trkpt>
<trkpt lat="-27.2702125" lon="151.3469861">
  <ele>536.7</ele>
  <time>2026-09-01T20:01:33Z</time>
  <course>265.79</course>
  <speed>17.71</speed>
  <fix>3d</fix>
</trkpt>
<trkpt lat="-27.2702148" lon="151.3469297">
  <ele>536.61</ele>
  <time>2026-09-01T20:01:33Z</time>
  <course>266.82</course>
  <speed>19.001644665659864</speed>
  <fix>3d</fix>
</trkpt>
<trkpt lat="-27.2702125" lon="151.3469861">
  <ele>536.7</ele>
  <time>2026-09-01T20:01:33Z</time>
  <course>265.79</course>
  <speed>17.71</speed>
  <fix>3d</fix>
</trkpt>
<trkpt lat="-27.2702149" lon="151.3469103">
  <ele>536.62</ele>
  <time>2026-09-01T20:01:33Z</time>
  <course>267.99</course>
  <speed>19.380064499376672</speed>
  <fix>3d</fix>
</trkpt>
<trkpt lat="-27.2702142" lon="151.3469494">
  <ele>536.63</ele>
  <time>2026-09-01T20:01:33Z</time>
  <course>268.15</course>
  <speed>18.56</speed>
  <fix>3d</fix>
</trkpt>
<trkpt lat="-27.2702148" lon="151.3468905">
  <ele>536.64</ele>
  <time>2026-09-01T20:01:33Z</time>
  <course>269.06</course>
  <speed>19.752926365478103</speed>
  <fix>3d</fix>
</trkpt>
<trkpt lat="-27.2702142" lon="151.3469494">
  <ele>536.63</ele>
  <time>2026-09-01T20:01:33Z</time>
  <course>268.15</course>
  <speed>18.56</speed>
  <fix>3d</fix>
</trkpt>
<trkpt lat="-27.2702144" lon="151.3468704">
  <ele>536.68</ele>
  <time>2026-09-01T20:01:33Z</time>
  <course>269.86</course>
  <speed>20.109254088603087</speed>
  <fix>3d</fix>
</trkpt>
<trkpt lat="-27.2702148" lon="151.346911">
  <ele>536.62</ele>
  <time>2026-09-01T20:01:33Z</time>
  <course>270.09</course>
  <speed>19.35</speed>
  <fix>3d</fix>
</trkpt>
<trkpt lat="-27.2702137" lon="151.3468499">
  <ele>536.73</ele>
  <time>2026-09-01T20:01:33Z</time>
  <course>270.59</course>
  <speed>20.448092820603097</speed>
  <fix>3d</fix>
</trkpt>
<trkpt lat="-27.2702148" lon="151.346911">
  <ele>536.62</ele>
  <time>2026-09-01T20:01:33Z</time>
  <course>270.09</course>
  <speed>19.35</speed>
  <fix>3d</fix>
</trkpt>
<trkpt lat="-27.2702128" lon="151.346829">
  <ele>536.79</ele>
  <time>2026-09-01T20:01:33Z</time>
  <course>271.28</course>
  <speed>20.77860919311011</speed>
  <fix>3d</fix>
</trkpt>
<trkpt lat="-27.2702142" lon="151.3468712">
  <ele>536.68</ele>
  <time>2026-09-01T20:01:33Z</time>
  <course>271.68</course>
  <speed>20.08</speed>
  <fix>3d</fix>
</trkpt>
<trkpt lat="-27.2702117" lon="151.3468079">
  <ele>536.88</ele>
  <time>2026-09-01T20:01:33Z</time>
  <course>271.82</course>
  <speed>21.080123339297614</speed>
  <fix>3d</fix>
</trkpt>
<trkpt lat="-27.2702142" lon="151.3468712">
  <ele>536.68</ele>
  <time>2026-09-01T20:01:33Z</time>
  <course>271.68</course>
  <speed>20.08</speed>
  <fix>3d</fix>
</trkpt>
<trkpt lat="-27.2702105" lon="151.3467864">
  <ele>536.96</ele>
  <time>2026-09-01T20:01:33Z</time>
  <course>272.29</course>
  <speed>21.371307868261127</speed>
  <fix>3d</fix>
</trkpt>
<trkpt lat="-27.2702127" lon="151.3468299">
  <ele>536.8</ele>
  <time>2026-09-01T20:01:33Z</time>
  <course>272.96</course>
  <speed>20.75</speed>
  <fix>3d</fix>
</trkpt>
<trkpt lat="-27.2702091" lon="151.3467648">
  <ele>537.04</ele>
  <time>2026-09-01T20:01:33Z</time>
  <course>272.69</course>
  <speed>21.611557093370205</speed>
  <fix>3d</fix>
</trkpt>
<trkpt lat="-27.2702127" lon="151.3468299">
  <ele>536.8</ele>
  <time>2026-09-01T20:01:33Z</time>
  <course>272.96</course>
  <speed>20.75</speed>
  <fix>3d</fix>
</trkpt>
<trkpt lat="-27.2702075" lon="151.346743">
  <ele>537.12</ele>
  <time>2026-09-01T20:01:33Z</time>
  <course>273.09</course>
  <speed>21.821093006538423</speed>
  <fix>3d</fix>
</trkpt>
<trkpt lat="-27.2702104" lon="151.3467875">
  <ele>536.95</ele>
  <time>2026-09-01T20:01:33Z</time>
  <course>273.93</course>
  <speed>21.34</speed>
  <fix>3d</fix>
</trkpt>
<trkpt lat="-27.2702058" lon="151.3467207">
  <ele>537.19</ele>
  <time>2026-09-01T20:01:33Z</time>
  <course>273.39</course>
  <speed>22.009584275946693</speed>
  <fix>3d</fix>
</trkpt>
<trkpt lat="-27.2702104" lon="151.3467875">
  <ele>536.95</ele>
  <time>2026-09-01T20:01:33Z</time>
  <course>273.93</course>
  <speed>21.34</speed>
  <fix>3d</fix>
</trkpt>
<trkpt lat="-27.2702042" lon="151.3466985">
  <ele>537.25</ele>
  <time>2026-09-01T20:01:33Z</time>
  <course>273.59</course>
  <speed>22.16682205459321</speed>
  <fix>3d</fix>
</trkpt>
<trkpt lat="-27.2702075" lon="151.346744">
  <ele>537.11</ele>
  <time>2026-09-01T20:01:33Z</time>
  <course>274.6</course>
  <speed>21.8</speed>
  <fix>3d</fix>
</trkpt>
<trkpt lat="-27.2702024" lon="151.3466761">
  <ele>537.29</ele>
  <time>2026-09-01T20:01:33Z</time>
  <course>273.83</course>
  <speed>22.28266142093444</speed>
  <fix>3d</fix>
</trkpt>
<trkpt lat="-27.2702075" lon="151.346744">
  <ele>537.11</ele>
  <time>2026-09-01T20:01:33Z</time>
  <course>274.6</course>
  <speed>21.8</speed>
  <fix>3d</fix>
</trkpt>
<trkpt lat="-27.2702005" lon="151.3466537">
  <ele>537.33</ele>
  <time>2026-09-01T20:01:33Z</time>
  <course>274.07</course>
  <speed>22.37688092652772</speed>
  <fix>3d</fix>
</trkpt>
<trkpt lat="-27.2702042" lon="151.3466996">
  <ele>537.24</ele>
  <time>2026-09-01T20:01:33Z</time>
  <course>275.05</course>
  <speed>22.14</speed>
  <fix>3d</fix>
</trkpt>
<trkpt lat="-27.2701986" lon="151.3466311">
  <ele>537.35</ele>
  <time>2026-09-01T20:01:33Z</time>
  <course>274.36</course>
  <speed>22.441312350216954</speed>
  <fix>3d</fix>
</trkpt>
<trkpt lat="-27.2702042" lon="151.3466996">
  <ele>537.24</ele>
  <time>2026-09-01T20:01:33Z</time>
  <course>275.05</course>
  <speed>22.14</speed>
  <fix>3d</fix>
</trkpt>
<trkpt lat="-27.2701967" lon="151.3466085">
  <ele>537.35</ele>
  <time>2026-09-01T20:01:33Z</time>
  <course>274.61</course>
  <speed>22.4939480749823</speed>
  <fix>3d</fix>
</trkpt>
<trkpt lat="-27.2702006" lon="151.3466549">
  <ele>537.32</ele>
  <time>2026-09-01T20:01:33Z</time>
  <course>275.33</course>
  <speed>22.36</speed>
  <fix>3d</fix>
</trkpt>
<trkpt lat="-27.2701947" lon="151.3465858">
  <ele>537.34</ele>
  <time>2026-09-01T20:01:33Z</time>
  <course>274.79</course>
  <speed>22.536659024797796</speed>
  <fix>3d</fix>
</trkpt>
<trkpt lat="-27.2702006" lon="151.3466549">
  <ele>537.32</ele>
  <time>2026-09-01T20:01:33Z</time>
  <course>275.33</course>
  <speed>22.36</speed>
  <fix>3d</fix>
</trkpt>
<trkpt lat="-27.2701928" lon="151.3465632">
  <ele>537.32</ele>
  <time>2026-09-01T20:01:33Z</time>
  <course>274.9</course>
  <speed>22.56846693951541</speed>
  <fix>3d</fix>
</trkpt>
<trkpt lat="-27.2701968" lon="151.3466098">
  <ele>537.34</ele>
  <time>2026-09-01T20:01:33Z</time>
  <course>275.51</course>
  <speed>22.49</speed>
  <fix>3d</fix>
</trkpt>
<trkpt lat="-27.2701908" lon="151.3465405">
  <ele>537.28</ele>
  <time>2026-09-01T20:01:33Z</time>
  <course>275.06</course>
  <speed>22.580385293435537</speed>
  <fix>3d</fix>
</trkpt>
<trkpt lat="-27.2701968" lon="151.3466098">
  <ele>537.34</ele>
  <time>2026-09-01T20:01:33Z</time>
  <course>275.51</course>
  <speed>22.49</speed>
  <fix>3d</fix>
</trkpt>
<trkpt lat="-27.2701887" lon="151.3465177">
  <ele>537.24</ele>
  <time>2026-09-01T20:01:33Z</time>
  <course>275.19</course>
  <speed>22.590336429544383</speed>
  <fix>3d</fix>
</trkpt>
<trkpt lat="-27.2701929" lon="151.3465645">
  <ele>537.31</ele>
  <time>2026-09-01T20:01:33Z</time>
  <course>275.62</course>
  <speed>22.56</speed>
  <fix>3d</fix>
</trkpt>
<trkpt lat="-27.2701867" lon="151.3464951">
  <ele>537.19</ele>
  <time>2026-09-01T20:01:33Z</time>
  <course>275.25</course>
  <speed>22.600287608789408</speed>
  <fix>3d</fix>
</trkpt>
<trkpt lat="-27.2701929" lon="151.3465645">
  <ele>537.31</ele>
  <time>2026-09-01T20:01:33Z</time>
  <course>275.62</course>
  <speed>22.56</speed>
  <fix>3d</fix>
</trkpt>
<trkpt lat="-27.2701847" lon="151.3464722">
  <ele>537.13</ele>
  <time>2026-09-01T20:01:33Z</time>
  <course>275.29</course>
  <speed>22.610238831113662</speed>
  <fix>3d</fix>
</trkpt>
<trkpt lat="-27.2701889" lon="151.3465191">
  <ele>537.23</ele>
  <time>2026-09-01T20:01:33Z</time>
  <course>275.67</course>
  <speed>22.59</speed>
  <fix>3d</fix>
</trkpt>
<trkpt lat="-27.2701827" lon="151.3464496">
  <ele>537.08</ele>
  <time>2026-09-01T20:01:33Z</time>
  <course>275.29</course>
  <speed>22.619206440545167</speed>
  <fix>3d</fix>
</trkpt>
<trkpt lat="-27.2701889" lon="151.3465191">
  <ele>537.23</ele>
  <time>2026-09-01T20:01:33Z</time>
  <course>275.67</course>
  <speed>22.59</speed>
  <fix>3d</fix>
</trkpt>
<trkpt lat="-27.2701807" lon="151.3464268">
  <ele>537.01</ele>
  <time>2026-09-01T20:01:33Z</time>
  <course>275.33</course>
  <speed>22.627204864940786</speed>
  <fix>3d</fix>
</trkpt>
<trkpt lat="-27.2701848" lon="151.3464735">
  <ele>537.13</ele>
  <time>2026-09-01T20:01:33Z</time>
  <course>275.66</course>
  <speed>22.61</speed>
  <fix>3d</fix>
</trkpt>
<trkpt lat="-27.2701788" lon="151.3464041">
  <ele>536.95</ele>
  <time>2026-09-01T20:01:33Z</time>
  <course>275.34</course>
  <speed>22.635222552473394</speed>
  <fix>3d</fix>
</trkpt>
<trkpt lat="-27.2701848" lon="151.3464735">
  <ele>537.13</ele>
  <time>2026-09-01T20:01:33Z</time>
  <course>275.66</course>
  <speed>22.61</speed>
  <fix>3d</fix>
</trkpt>
<trkpt lat="-27.2701768" lon="151.3463813">
  <ele>536.88</ele>
  <time>2026-09-01T20:01:33Z</time>
  <course>275.34</course>
  <speed>22.64325948268049</speed>
  <fix>3d</fix>
</trkpt>
<trkpt lat="-27.2701808" lon="151.3464279">
  <ele>537.01</ele>
  <time>2026-09-01T20:01:33Z</time>
  <course>275.59</course>
  <speed>22.62</speed>
  <fix>3d</fix>
</trkpt>
<trkpt lat="-27.2701749" lon="151.3463584">
  <ele>536.81</ele>
  <time>2026-09-01T20:01:33Z</time>
  <course>275.3</course>
  <speed>22.65131563507957</speed>
  <fix>3d</fix>
</trkpt>
<trkpt lat="-27.2701808" lon="151.3464279">
  <ele>537.01</ele>
  <time>2026-09-01T20:01:33Z</time>
  <course>275.59</course>
  <speed>22.62</speed>
  <fix>3d</fix>
</trkpt>
<trkpt lat="-27.270173" lon="151.3463357">
  <ele>536.74</ele>
  <time>2026-09-01T20:01:33Z</time>
  <course>275.3</course>
  <speed>22.65845758210386</speed>
  <fix>3d</fix>
</trkpt>
<trkpt lat="-27.2701769" lon="151.3463824">
  <ele>536.88</ele>
  <time>2026-09-01T20:01:33Z</time>
  <course>275.48</course>
  <speed>22.64</speed>
  <fix>3d</fix>
</trkpt>
<trkpt lat="-27.2701711" lon="151.3463128">
  <ele>536.66</ele>
  <time>2026-09-01T20:01:33Z</time>
  <course>275.24</course>
  <speed>22.675599220307276</speed>
  <fix>3d</fix>
</trkpt>
<trkpt lat="-27.2701769" lon="151.3463824">
  <ele>536.88</ele>
  <time>2026-09-01T20:01:33Z</time>
  <course>275.48</course>
  <speed>22.64</speed>
  <fix>3d</fix>
</trkpt>
<trkpt lat="-27.2701692" lon="151.3462901">
  <ele>536.6</ele>
  <time>2026-09-01T20:01:33Z</time>
  <course>275.14</course>
  <speed>22.692785197062086</speed>
  <fix>3d</fix>
</trkpt>
<trkpt lat="-27.2701731" lon="151.3463368">
  <ele>536.74</ele>
  <time>2026-09-01T20:01:33Z</time>
  <course>275.35</course>
  <speed>22.66</speed>
  <fix>3d</fix>
</trkpt>
<trkpt lat="-27.2701674" lon="151.3462673">
  <ele>536.52</ele>
  <time>2026-09-01T20:01:33Z</time>
  <course>275.09</course>
  <speed>22.699167385611304</speed>
  <fix>3d</fix>
</trkpt>
<trkpt lat="-27.2701731" lon="151.3463368">
  <ele>536.74</ele>
  <time>2026-09-01T20:01:33Z</time>
  <course>275.35</course>
  <speed>22.66</speed>
  <fix>3d</fix>
</trkpt>
<trkpt lat="-27.2701656" lon="151.3462444">
  <ele>536.44</ele>
  <time>2026-09-01T20:01:33Z</time>
  <course>275.08</course>
  <speed>22.716454388834542</speed>
  <fix>3d</fix>
</trkpt>
<trkpt lat="-27.2701693" lon="151.3462912">
  <ele>536.59</ele>
  <time>2026-09-01T20:01:33Z</time>
  <course>275.18</course>
  <speed>22.69</speed>
  <fix>3d</fix>
</trkpt>
<trkpt lat="-27.2701638" lon="151.3462214">
  <ele>536.36</ele>
  <time>2026-09-01T20:01:33Z</time>
  <course>275.04</course>
  <speed>22.732929859567157</speed>
  <fix>3d</fix>
</trkpt>
<trkpt lat="-27.2701693" lon="151.3462912">
  <ele>536.59</ele>
  <time>2026-09-01T20:01:33Z</time>
  <course>275.18</course>
  <speed>22.69</speed>
  <fix>3d</fix>
</trkpt>
<trkpt lat="-27.2701621" lon="151.3461985">
  <ele>536.28</ele>
  <time>2026-09-01T20:01:33Z</time>
  <course>274.95</course>
  <speed>22.75031867908667</speed>
  <fix>3d</fix>
</trkpt>
<trkpt lat="-27.2701657" lon="151.3462455">
  <ele>536.44</ele>
  <time>2026-09-01T20:01:33Z</time>
  <course>275.01</course>
  <speed>22.72</speed>
  <fix>3d</fix>
</trkpt>
<trkpt lat="-27.2701604" lon="151.3461757">
  <ele>536.19</ele>
  <time>2026-09-01T20:01:33Z</time>
  <course>274.88</course>
  <speed>22.7669277681465</speed>
  <fix>3d</fix>
</trkpt>
<trkpt lat="-27.2701657" lon="151.3462455">
  <ele>536.44</ele>
  <time>2026-09-01T20:01:33Z</time>
  <course>275.01</course>
  <speed>22.72</speed>
  <fix>3d</fix>
</trkpt>
<trkpt lat="-27.2701587" lon="151.3461528">
  <ele>536.1</ele>
  <time>2026-09-01T20:01:33Z</time>
  <course>274.8</course>
  <speed>22.784417921026645</speed>
  <fix>3d</fix>
</trkpt>
<trkpt lat="-27.2701622" lon="151.3461998">
  <ele>536.28</ele>
  <time>2026-09-01T20:01:33Z</time>
  <course>274.82</course>
  <speed>22.75</speed>
  <fix>3d</fix>
</trkpt>
<trkpt lat="-27.2701571" lon="151.3461298">
  <ele>536.01</ele>
  <time>2026-09-01T20:01:33Z</time>
  <course>274.72</course>
  <speed>22.801160058207564</speed>
  <fix>3d</fix>
</trkpt>
<trkpt lat="-27.2701622" lon="151.3461998">
  <ele>536.28</ele>
  <time>2026-09-01T20:01:33Z</time>
  <course>274.82</course>
  <speed>22.75</speed>
  <fix>3d</fix>
</trkpt>
<trkpt lat="-27.2701555" lon="151.3461068">
  <ele>535.91</ele>
  <time>2026-09-01T20:01:33Z</time>
  <course>274.61</course>
  <speed>22.81797756156316</speed>
  <fix>3d</fix>
</trkpt>
<trkpt lat="-27.2701588" lon="151.3461539">
  <ele>536.11</ele>
  <time>2026-09-01T20:01:33Z</time>
  <course>274.63</course>
  <speed>22.78</speed>
  <fix>3d</fix>
</trkpt>
<trkpt lat="-27.2701539" lon="151.3460835">
  <ele>535.82</ele>
  <time>2026-09-01T20:01:33Z</time>
  <course>274.46</course>
  <speed>22.844841868570683</speed>
  <fix>3d</fix>
</trkpt>
<trkpt lat="-27.2701588" lon="151.3461539">
  <ele>536.11</ele>
  <time>2026-09-01T20:01:33Z</time>
  <course>274.63</course>
  <speed>22.78</speed>
  <fix>3d</fix>
</trkpt>
<trkpt lat="-27.2701524" lon="151.3460605">
  <ele>535.72</ele>
  <time>2026-09-01T20:01:33Z</time>
  <course>274.35</course>
  <speed>22.88249330820398</speed>
  <fix>3d</fix>
</trkpt>
<trkpt lat="-27.2701556" lon="151.3461079">
  <ele>535.92</ele>
  <time>2026-09-01T20:01:33Z</time>
  <course>274.44</course>
  <speed>22.82</speed>
  <fix>3d</fix>
</trkpt>
<trkpt lat="-27.2701509" lon="151.3460375">
  <ele>535.62</ele>
  <time>2026-09-01T20:01:33Z</time>
  <course>274.26</course>
  <speed>22.909495847792023</speed>
  <fix>3d</fix>
</trkpt>
<trkpt lat="-27.2701556" lon="151.3461079">
  <ele>535.92</ele>
  <time>2026-09-01T20:01:33Z</time>
  <course>274.44</course>
  <speed>22.82</speed>
  <fix>3d</fix>
</trkpt>
<trkpt lat="-27.2701494" lon="151.3460144">
  <ele>535.52</ele>
  <time>2026-09-01T20:01:33Z</time>
  <course>274.18</course>
  <speed>22.946550939084503</speed>
  <fix>3d</fix>
</trkpt>
<trkpt lat="-27.2701524" lon="151.3460619">
  <ele>535.73</ele>
  <time>2026-09-01T20:01:33Z</time>
  <course>274.24</course>
  <speed>22.88</speed>
  <fix>3d</fix>
</trkpt>
<trkpt lat="-27.270148" lon="151.3459912">
  <ele>535.41</ele>
  <time>2026-09-01T20:01:33Z</time>
  <course>274.09</course>
  <speed>22.983685518210518</speed>
  <fix>3d</fix>
</trkpt>
<trkpt lat="-27.2701524" lon="151.3460619">
  <ele>535.73</ele>
  <time>2026-09-01T20:01:33Z</time>
  <course>274.24</course>
  <speed>22.88</speed>
  <fix>3d</fix>
</trkpt>
<trkpt lat="-27.2701466" lon="151.3459681">
  <ele>535.31</ele>
  <time>2026-09-01T20:01:33Z</time>
  <course>274.03</course>
  <speed>23.031543587002588</speed>
  <fix>3d</fix>
</trkpt>
<trkpt lat="-27.2701494" lon="151.3460156">
  <ele>535.52</ele>
  <time>2026-09-01T20:01:33Z</time>
  <course>274.04</course>
  <speed>22.95</speed>
  <fix>3d</fix>
</trkpt>
<trkpt lat="-27.2701452" lon="151.3459447">
  <ele>535.21</ele>
  <time>2026-09-01T20:01:33Z</time>
  <course>273.97</course>
  <speed>23.068818782070313</speed>
  <fix>3d</fix>
</trkpt>
<trkpt lat="-27.2701494" lon="151.3460156">
  <ele>535.52</ele>
  <time>2026-09-01T20:01:33Z</time>
  <course>274.04</course>
  <speed>22.95</speed>
  <fix>3d</fix>
</trkpt>
<trkpt lat="-27.2701439" lon="151.3459215">
  <ele>535.11</ele>
  <time>2026-09-01T20:01:33Z</time>
  <course>273.86</course>
  <speed>23.11678610879981</speed>
  <fix>3d</fix>
</trkpt>
<trkpt lat="-27.2701466" lon="151.3459692">
  <ele>535.31</ele>
  <time>2026-09-01T20:01:33Z</time>
  <course>273.84</course>
  <speed>23.03</speed>
  <fix>3d</fix>
</trkpt>
<trkpt lat="-27.2701425" lon="151.3458982">
  <ele>535.0</ele>
  <time>2026-09-01T20:01:33Z</time>
  <course>273.74</course>
  <speed>23.174781552368515</speed>
  <fix>3d</fix>
</trkpt>
<trkpt lat="-27.2701466" lon="151.3459692">
  <ele>535.31</ele>
  <time>2026-09-01T20:01:33Z</time>
  <course>273.84</course>
  <speed>23.03</speed>
  <fix>3d</fix>
</trkpt>
<trkpt lat="-27.2701413" lon="151.3458748">
  <ele>534.9</ele>
  <time>2026-09-01T20:01:33Z</time>
  <course>273.65</course>
  <speed>23.222844356365997</speed>
  <fix>3d</fix>
</trkpt>
<trkpt lat="-27.2701439" lon="151.3459227">
  <ele>535.11</ele>
  <time>2026-09-01T20:01:33Z</time>
  <course>273.66</course>
  <speed>23.12</speed>
  <fix>3d</fix>
</trkpt>
<trkpt lat="-27.27014" lon="151.3458513">
  <ele>534.79</ele>
  <time>2026-09-01T20:01:33Z</time>
  <course>273.59</course>
  <speed>23.270953998493486</speed>
  <fix>3d</fix>
</trkpt>
<trkpt lat="-27.2701439" lon="151.3459227">
  <ele>535.11</ele>
  <time>2026-09-01T20:01:33Z</time>
  <course>273.66</course>
  <speed>23.12</speed>
  <fix>3d</fix>
</trkpt>
<trkpt lat="-27.2701388" lon="151.3458279">
  <ele>534.7</ele>
  <time>2026-09-01T20:01:33Z</time>
  <course>273.54</course>
  <speed>23.329093424306055</speed>
  <fix>3d</fix>
</trkpt>
<trkpt lat="-27.2701413" lon="151.3458759">
  <ele>534.9</ele>
  <time>2026-09-01T20:01:33Z</time>
  <course>273.49</course>
  <speed>23.22</speed>
  <fix>3d</fix>
</trkpt>
<trkpt lat="-27.2701376" lon="151.3458043">
  <ele>534.6</ele>
  <time>2026-09-01T20:01:33Z</time>
  <course>273.46</course>
  <speed>23.377863460975213</speed>
  <fix>3d</fix>
</trkpt>
<trkpt lat="-27.2701413" lon="151.3458759">
  <ele>534.9</ele>
  <time>2026-09-01T20:01:33Z</time>
  <course>273.49</course>
  <speed>23.22</speed>
  <fix>3d</fix>
</trkpt>
<trkpt lat="-27.2701364" lon="151.3457807">
  <ele>534.51</ele>
  <time>2026-09-01T20:01:33Z</time>
  <course>273.39</course>
  <speed>23.426655757918155</speed>
  <fix>3d</fix>
</trkpt>
<trkpt lat="-27.2701388" lon="151.3458289">
  <ele>534.7</ele>
  <time>2026-09-01T20:01:33Z</time>
  <course>273.34</course>
  <speed>23.32</speed>
  <fix>3d</fix>
</trkpt>
<trkpt lat="-27.2701352" lon="151.345757">
  <ele>534.41</ele>
  <time>2026-09-01T20:01:33Z</time>
  <course>273.33</course>
  <speed>23.485455073300155</speed>
  <fix>3d</fix>
</trkpt>
<trkpt lat="-27.2701388" lon="151.3458289">
  <ele>534.7</ele>
  <time>2026-09-01T20:01:33Z</time>
  <course>273.34</course>
  <speed>23.32</speed>
  <fix>3d</fix>
</trkpt>
<trkpt lat="-27.2701341" lon="151.3457333">
  <ele>534.33</ele>
  <time>2026-09-01T20:01:33Z</time>
  <course>273.28</course>
  <speed>23.53429200124788</speed>
  <fix>3d</fix>
</trkpt>
<trkpt lat="-27.2701364" lon="151.3457818">
  <ele>534.52</ele>
  <time>2026-09-01T20:01:33Z</time>
  <course>273.21</course>
  <speed>23.43</speed>
  <fix>3d</fix>
</trkpt>
<trkpt lat="-27.2701329" lon="151.3457095">
  <ele>534.22</ele>
  <time>2026-09-01T20:01:33Z</time>
  <course>273.24</course>
  <speed>23.593668642243834</speed>
  <fix>3d</fix>
</trkpt>
<trkpt lat="-27.2701364" lon="151.3457818">
  <ele>534.52</ele>
  <time>2026-09-01T20:01:33Z</time>
  <course>273.21</course>
  <speed>23.43</speed>
  <fix>3d</fix>
</trkpt>
<trkpt lat="-27.2701318" lon="151.3456857">
  <ele>534.08</ele>
  <time>2026-09-01T20:01:33Z</time>
  <course>273.16</course>
  <speed>23.66303868906105</speed>
  <fix>3d</fix>
</trkpt>
<trkpt lat="-27.2701341" lon="151.3457344">
  <ele>534.32</ele>
  <time>2026-09-01T20:01:33Z</time>
  <course>273.11</course>
  <speed>23.54</speed>
  <fix>3d</fix>
</trkpt>
<trkpt lat="-27.2701307" lon="151.3456617">
  <ele>533.91</ele>
  <time>2026-09-01T20:01:33Z</time>
  <course>273.06</course>
  <speed>23.741882823398825</speed>
  <fix>3d</fix>
</trkpt>
<trkpt lat="-27.2701341" lon="151.3457344">
  <ele>534.32</ele>
  <time>2026-09-01T20:01:33Z</time>
  <course>273.11</course>
  <speed>23.54</speed>
  <fix>3d</fix>
</trkpt>
<trkpt lat="-27.2701296" lon="151.3456378">
  <ele>533.76</ele>
  <time>2026-09-01T20:01:33Z</time>
  <course>273.01</course>
  <speed>23.830738553389402</speed>
  <fix>3d</fix>
</trkpt>
<trkpt lat="-27.2701318" lon="151.3456868">
  <ele>534.07</ele>
  <time>2026-09-01T20:01:33Z</time>
  <course>273.03</course>
  <speed>23.66</speed>
  <fix>3d</fix>
</trkpt>
<trkpt lat="-27.2701285" lon="151.3456137">
  <ele>533.6</ele>
  <time>2026-09-01T20:01:34Z</time>
  <course>272.97</course>
  <speed>23.92011914686045</speed>
  <fix>3d</fix>
</trkpt>
<trkpt lat="-27.2701318" lon="151.3456868">
  <ele>534.07</ele>
  <time>2026-09-01T20:01:34Z</time>
  <course>273.03</course>
  <speed>23.66</speed>
  <fix>3d</fix>
</trkpt>
<trkpt lat="-27.2701274" lon="151.3455895">
  <ele>533.44</ele>
  <time>2026-09-01T20:01:34Z</time>
  <course>272.99</course>
  <speed>24.009014973546915</speed>
  <fix>3d</fix>
</trkpt>
<trkpt lat="-27.2701296" lon="151.3456389">
  <ele>533.77</ele>
  <time>2026-09-01T20:01:34Z</time>
  <course>272.93</course>
  <speed>23.82</speed>
  <fix>3d</fix>
</trkpt>
<trkpt lat="-27.2701263" lon="151.3455651">
  <ele>533.29</ele>
  <time>2026-09-01T20:01:34Z</time>
  <course>272.94</course>
  <speed>24.0989066142014</speed>
  <fix>3d</fix>
</trkpt>
<trkpt lat="-27.2701296" lon="151.3456389">
  <ele>533.77</ele>
  <time>2026-09-01T20:01:34Z</time>
  <course>272.93</course>
  <speed>23.82</speed>
  <fix>3d</fix>
</trkpt>
<trkpt lat="-27.2701253" lon="151.3455409">
  <ele>533.16</ele>
  <time>2026-09-01T20:01:34Z</time>
  <course>272.88</course>
  <speed>24.18831329382022</speed>
  <fix>3d</fix>
</trkpt>
<trkpt lat="-27.2701274" lon="151.3455906">
  <ele>533.45</ele>
  <time>2026-09-01T20:01:34Z</time>
  <course>272.84</course>
  <speed>24.0</speed>
  <fix>3d</fix>
</trkpt>
<trkpt lat="-27.2701242" lon="151.3455163">
  <ele>533.04</ele>
  <time>2026-09-01T20:01:34Z</time>
  <course>272.84</course>
  <speed>24.278208335871906</speed>
  <fix>3d</fix>
</trkpt>
<trkpt lat="-27.2701274" lon="151.3455906">
  <ele>533.45</ele>
  <time>2026-09-01T20:01:34Z</time>
  <course>272.84</course>
  <speed>24.0</speed>
  <fix>3d</fix>
</trkpt>
<trkpt lat="-27.2701232" lon="151.3454918">
  <ele>532.94</ele>
  <time>2026-09-01T20:01:34Z</time>
  <course>272.8</course>
  <speed>24.357637405955447</speed>
  <fix>3d</fix>
</trkpt>
<trkpt lat="-27.2701253" lon="151.345542">
  <ele>533.18</ele>
  <time>2026-09-01T20:01:34Z</time>
  <course>272.78</course>
  <speed>24.18</speed>
  <fix>3d</fix>
</trkpt>
<trkpt lat="-27.2701221" lon="151.3454672">
  <ele>532.85</ele>
  <time>2026-09-01T20:01:34Z</time>
  <course>272.76</course>
  <speed>24.437546930901227</speed>
  <fix>3d</fix>
</trkpt>
<trkpt lat="-27.2701253" lon="151.345542">
  <ele>533.18</ele>
  <time>2026-09-01T20:01:34Z</time>
  <course>272.78</course>
  <speed>24.18</speed>
  <fix>3d</fix>
</trkpt>
<trkpt lat="-27.2701211" lon="151.3454425">
  <ele>532.78</ele>
  <time>2026-09-01T20:01:34Z</time>
  <course>272.75</course>
  <speed>24.507468249494888</speed>
  <fix>3d</fix>
</trkpt>
<trkpt lat="-27.2701232" lon="151.3454929">
  <ele>532.95</ele>
  <time>2026-09-01T20:01:34Z</time>
  <course>272.74</course>
  <speed>24.35</speed>
  <fix>3d</fix>
</trkpt>
<trkpt lat="-27.27012" lon="151.3454176">
  <ele>532.72</ele>
  <time>2026-09-01T20:01:34Z</time>
  <course>272.73</course>
  <speed>24.577390016028957</speed>
  <fix>3d</fix>
</trkpt>
<trkpt lat="-27.2701232" lon="151.3454929">
  <ele>532.95</ele>
  <time>2026-09-01T20:01:34Z</time>
  <course>272.74</course>
  <speed>24.35</speed>
  <fix>3d</fix>
</trkpt>
<trkpt lat="-27.270119" lon="151.3453927">
  <ele>532.66</ele>
  <time>2026-09-01T20:01:34Z</time>
  <course>272.74</course>
  <speed>24.64731222669117</speed>
  <fix>3d</fix>
</trkpt>
<trkpt lat="-27.2701211" lon="151.3454435">
  <ele>532.79</ele>
  <time>2026-09-01T20:01:34Z</time>
  <course>272.72</course>
  <speed>24.5</speed>
  <fix>3d</fix>
</trkpt>
<trkpt lat="-27.2701179" lon="151.3453678">
  <ele>532.62</ele>
  <time>2026-09-01T20:01:34Z</time>
  <course>272.73</course>
  <speed>24.717706204257706</speed>
  <fix>3d</fix>
</trkpt>
<trkpt lat="-27.2701211" lon="151.3454435">
  <ele>532.79</ele>
  <time>2026-09-01T20:01:34Z</time>
  <course>272.72</course>
  <speed>24.5</speed>
  <fix>3d</fix>
</trkpt>
<trkpt lat="-27.2701169" lon="151.3453428">
  <ele>532.59</ele>
  <time>2026-09-01T20:01:34Z</time>
  <course>272.71</course>
  <speed>24.77763911271613</speed>
  <fix>3d</fix>
</trkpt>
<trkpt lat="-27.270119" lon="151.3453939">
  <ele>532.67</ele>
  <time>2026-09-01T20:01:34Z</time>
  <course>272.71</course>
  <speed>24.64</speed>
  <fix>3d</fix>
</trkpt>
<trkpt lat="-27.2701158" lon="151.3453178">
  <ele>532.57</ele>
  <time>2026-09-01T20:01:34Z</time>
  <course>272.69</course>
  <speed>24.828056710101176</speed>
  <fix>3d</fix>
</trkpt>
<trkpt lat="-27.270119" lon="151.3453939">
  <ele>532.67</ele>
  <time>2026-09-01T20:01:34Z</time>
  <course>272.71</course>
  <speed>24.64</speed>
  <fix>3d</fix>
</trkpt>
<trkpt lat="-27.2701148" lon="151.3452926">
  <ele>532.56</ele>
  <time>2026-09-01T20:01:34Z</time>
  <course>272.74</course>
  <speed>24.868488092362995</speed>
  <fix>3d</fix>
</trkpt>
<trkpt lat="-27.2701169" lon="151.345344">
  <ele>532.59</ele>
  <time>2026-09-01T20:01:34Z</time>
  <course>272.72</course>
  <speed>24.77</speed>
  <fix>3d</fix>
</trkpt>
<trkpt lat="-27.2701137" lon="151.3452676">
  <ele>532.56</ele>
  <time>2026-09-01T20:01:34Z</time>
  <course>272.72</course>
  <speed>24.868488092362995</speed>
  <fix>3d</fix>
</trkpt>
<trkpt lat="-27.2701169" lon="151.345344">
  <ele>532.59</ele>
  <time>2026-09-01T20:01:34Z</time>
  <course>272.72</course>
  <speed>24.77</speed>
  <fix>3d</fix>
</trkpt>
<trkpt lat="-27.2701126" lon="151.3452424">
  <ele>532.57</ele>
  <time>2026-09-01T20:01:34Z</time>
  <course>272.69</course>
  <speed>24.798568507073146</speed>
  <fix>3d</fix>
</trkpt>
<trkpt lat="-27.2701148" lon="151.3452939">
  <ele>532.56</ele>
  <time>2026-09-01T20:01:34Z</time>
  <course>272.74</course>
  <speed>24.85</speed>
  <fix>3d</fix>
</trkpt>
<trkpt lat="-27.2701115" lon="151.3452175">
  <ele>532.58</ele>
  <time>2026-09-01T20:01:34Z</time>
  <course>272.74</course>
  <speed>24.598800783778056</speed>
  <fix>3d</fix>
</trkpt>
<trkpt lat="-27.2701148" lon="151.3452939">
  <ele>532.56</ele>
  <time>2026-09-01T20:01:34Z</time>
  <course>272.74</course>
  <speed>24.85</speed>
  <fix>3d</fix>
</trkpt>
<trkpt lat="-27.2701105" lon="151.3451929">
  <ele>532.6</ele>
  <time>2026-09-01T20:01:34Z</time>
  <course>272.78</course>
  <speed>24.278692304158394</speed>
  <fix>3d</fix>
</trkpt>
<trkpt lat="-27.2701126" lon="151.3452438">
  <ele>532.57</ele>
  <time>2026-09-01T20:01:34Z</time>
  <course>272.76</course>
  <speed>24.74</speed>
  <fix>3d</fix>
</trkpt>
<trkpt lat="-27.2701094" lon="151.3451686">
  <ele>532.61</ele>
  <time>2026-09-01T20:01:34Z</time>
  <course>272.8</course>
  <speed>23.94908766529531</speed>
  <fix>3d</fix>
</trkpt>
<trkpt lat="-27.2701126" lon="151.3452438">
  <ele>532.57</ele>
  <time>2026-09-01T20:01:34Z</time>
  <course>272.76</course>
  <speed>24.74</speed>
  <fix>3d</fix>
</trkpt>
<trkpt lat="-27.2701083" lon="151.3451446">
  <ele>532.62</ele>
  <time>2026-09-01T20:01:34Z</time>
  <course>272.81</course>
  <speed>23.619494067401188</speed>
  <fix>3d</fix>
</trkpt>
<trkpt lat="-27.2701105" lon="151.3451943">
  <ele>532.59</ele>
  <time>2026-09-01T20:01:34Z</time>
  <course>272.8</course>
  <speed>24.29</speed>
  <fix>3d</fix>
</trkpt>
<trkpt lat="-27.2701073" lon="151.3451208">
  <ele>532.63</ele>
  <time>2026-09-01T20:01:34Z</time>
  <course>272.82</course>
  <speed>23.309382231196093</speed>
  <fix>3d</fix>
</trkpt>
<trkpt lat="-27.2701105" lon="151.3451943">
  <ele>532.59</ele>
  <time>2026-09-01T20:01:34Z</time>
  <course>272.8</course>
  <speed>24.29</speed>
  <fix>3d</fix>
</trkpt>
<trkpt lat="-27.2701062" lon="151.3450974">
  <ele>532.62</ele>
  <time>2026-09-01T20:01:34Z</time>
  <course>272.82</course>
  <speed>23.009259005887174</speed>
  <fix>3d</fix>
</trkpt>
<trkpt lat="-27.2701083" lon="151.3451459">
  <ele>532.62</ele>
  <time>2026-09-01T20:01:34Z</time>
  <course>272.85</course>
  <speed>23.64</speed>
  <fix>3d</fix>
</trkpt>
<trkpt lat="-27.2701052" lon="151.3450744">
  <ele>532.59</ele>
  <time>2026-09-01T20:01:34Z</time>
  <course>272.84</course>
  <speed>22.7191241028346</speed>
  <fix>3d</fix>
</trkpt>
<trkpt lat="-27.2701083" lon="151.3451459">
  <ele>532.62</ele>
  <time>2026-09-01T20:01:34Z</time>
  <course>272.85</course>
  <speed>23.64</speed>
  <fix>3d</fix>
</trkpt>
<trkpt lat="-27.2701041" lon="151.3450517">
  <ele>532.54</ele>
  <time>2026-09-01T20:01:34Z</time>
  <course>272.86</course>
  <speed>22.438977249420258</speed>
  <fix>3d</fix>
</trkpt>
<trkpt lat="-27.2701062" lon="151.3450988">
  <ele>532.61</ele>
  <time>2026-09-01T20:01:34Z</time>
  <course>272.9</course>
  <speed>23.03</speed>
  <fix>3d</fix>
</trkpt>
<trkpt lat="-27.2701031" lon="151.3450292">
  <ele>532.49</ele>
  <time>2026-09-01T20:01:34Z</time>
  <course>272.88</course>
  <speed>22.168818191324497</speed>
  <fix>3d</fix>
</trkpt>
<trkpt lat="-27.2701062" lon="151.3450988">
  <ele>532.61</ele>
  <time>2026-09-01T20:01:34Z</time>
  <course>272.9</course>
  <speed>23.03</speed>
  <fix>3d</fix>
</trkpt>
<trkpt lat="-27.2701021" lon="151.3450068">
  <ele>532.41</ele>
  <time>2026-09-01T20:01:34Z</time>
  <course>272.9</course>
  <speed>21.918633625296994</speed>
  <fix>3d</fix>
</trkpt>
<trkpt lat="-27.2701042" lon="151.3450529">
  <ele>532.54</ele>
  <time>2026-09-01T20:01:34Z</time>
  <course>272.92</course>
  <speed>22.46</speed>
  <fix>3d</fix>
</trkpt>
<trkpt lat="-27.2701011" lon="151.3449849">
  <ele>532.34</ele>
  <time>2026-09-01T20:01:34Z</time>
  <course>272.92</course>
  <speed>21.677926561366515</speed>
  <fix>3d</fix>
</trkpt>
<trkpt lat="-27.2701042" lon="151.3450529">
  <ele>532.54</ele>
  <time>2026-09-01T20:01:34Z</time>
  <course>272.92</course>
  <speed>22.46</speed>
  <fix>3d</fix>
</trkpt>
<trkpt lat="-27.2701001" lon="151.3449632">
  <ele>532.25</ele>
  <time>2026-09-01T20:01:34Z</time>
  <course>272.94</course>
  <speed>21.437728424439005</speed>
  <fix>3d</fix>
</trkpt>
<trkpt lat="-27.2701021" lon="151.345008">
  <ele>532.42</ele>
  <time>2026-09-01T20:01:34Z</time>
  <course>272.93</course>
  <speed>21.93</speed>
  <fix>3d</fix>
</trkpt>
<trkpt lat="-27.2700991" lon="151.3449417">
  <ele>532.15</ele>
  <time>2026-09-01T20:01:34Z</time>
  <course>272.94</course>
  <speed>21.217504565806035</speed>
  <fix>3d</fix>
</trkpt>
<trkpt lat="-27.2701021" lon="151.345008">
  <ele>532.42</ele>
  <time>2026-09-01T20:01:34Z</time>
  <course>272.93</course>
  <speed>21.93</speed>
  <fix>3d</fix>
</trkpt>
<trkpt lat="-27.2700982" lon="151.3449204">
  <ele>532.04</ele>
  <time>2026-09-01T20:01:34Z</time>
  <course>272.94</course>
  <speed>21.006760816460968</speed>
  <fix>3d</fix>
</trkpt>
<trkpt lat="-27.2701001" lon="151.3449642">
  <ele>532.25</ele>
  <time>2026-09-01T20:01:34Z</time>
  <course>272.92</course>
  <speed>21.45</speed>
  <fix>3d</fix>
</trkpt>
<trkpt lat="-27.2700972" lon="151.3448992">
  <ele>531.91</ele>
  <time>2026-09-01T20:01:34Z</time>
  <course>272.93</course>
  <speed>20.796523747972884</speed>
  <fix>3d</fix>
</trkpt>
<trkpt lat="-27.2701001" lon="151.3449642">
  <ele>532.25</ele>
  <time>2026-09-01T20:01:34Z</time>
  <course>272.92</course>
  <speed>21.45</speed>
  <fix>3d</fix>
</trkpt>
<trkpt lat="-27.2700963" lon="151.3448784">
  <ele>531.79</ele>
  <time>2026-09-01T20:01:34Z</time>
  <course>272.93</course>
  <speed>20.596273934865017</speed>
  <fix>3d</fix>
</trkpt>
<trkpt lat="-27.2700982" lon="151.3449213">
  <ele>532.03</ele>
  <time>2026-09-01T20:01:34Z</time>
  <course>272.91</course>
  <speed>21.02</speed>
  <fix>3d</fix>
</trkpt>
<trkpt lat="-27.2700953" lon="151.3448577">
  <ele>531.66</ele>
  <time>2026-09-01T20:01:34Z</time>
  <course>272.92</course>
  <speed>20.40601136920197</speed>
  <fix>3d</fix>
</trkpt>
<trkpt lat="-27.2700982" lon="151.3449213">
  <ele>532.03</ele>
  <time>2026-09-01T20:01:34Z</time>
  <course>272.91</course>
  <speed>21.02</speed>
  <fix>3d</fix>
</trkpt>
<trkpt lat="-27.2700944" lon="151.3448372">
  <ele>531.52</ele>
  <time>2026-09-01T20:01:34Z</time>
  <course>272.92</course>
  <speed>20.225736080548465</speed>
  <fix>3d</fix>
</trkpt>
<trkpt lat="-27.2700963" lon="151.3448793">
  <ele>531.79</ele>
  <time>2026-09-01T20:01:34Z</time>
  <course>272.91</course>
  <speed>20.61</speed>
  <fix>3d</fix>
</trkpt>
<trkpt lat="-27.2700935" lon="151.3448168">
  <ele>531.37</ele>
  <time>2026-09-01T20:01:34Z</time>
  <course>272.91</course>
  <speed>20.04546083281699</speed>
  <fix>3d</fix>
</trkpt>
<trkpt lat="-27.2700963" lon="151.3448793">
  <ele>531.79</ele>
  <time>2026-09-01T20:01:34Z</time>
  <course>272.91</course>
  <speed>20.61</speed>
  <fix>3d</fix>
</trkpt>
<trkpt lat="-27.2700926" lon="151.3447967">
  <ele>531.23</ele>
  <time>2026-09-01T20:01:34Z</time>
  <course>272.91</course>
  <speed>19.885160296059972</speed>
  <fix>3d</fix>
</trkpt>
<trkpt lat="-27.2700944" lon="151.3448381">
  <ele>531.52</ele>
  <time>2026-09-01T20:01:34Z</time>
  <course>272.9</course>
  <speed>20.24</speed>
  <fix>3d</fix>
</trkpt>
<trkpt lat="-27.2700917" lon="151.3447766">
  <ele>531.07</ele>
  <time>2026-09-01T20:01:34Z</time>
  <course>272.9</course>
  <speed>19.714872558553353</speed>
  <fix>3d</fix>
</trkpt>
<trkpt lat="-27.2700944" lon="151.3448381">
  <ele>531.52</ele>
  <time>2026-09-01T20:01:34Z</time>
  <course>272.9</course>
  <speed>20.24</speed>
  <fix>3d</fix>
</trkpt>
<trkpt lat="-27.2700908" lon="151.3447568">
  <ele>530.91</ele>
  <time>2026-09-01T20:01:34Z</time>
  <course>272.9</course>
  <speed>19.554572355334187</speed>
  <fix>3d</fix>
</trkpt>
<trkpt lat="-27.2700926" lon="151.3447976">
  <ele>531.23</ele>
  <time>2026-09-01T20:01:34Z</time>
  <course>272.89</course>
  <speed>19.89</speed>
  <fix>3d</fix>
</trkpt>
<trkpt lat="-27.2700899" lon="151.3447371">
  <ele>530.76</ele>
  <time>2026-09-01T20:01:34Z</time>
  <course>272.89</course>
  <speed>19.404259841591486</speed>
  <fix>3d</fix>
</trkpt>
<trkpt lat="-27.2700926" lon="151.3447976">
  <ele>531.23</ele>
  <time>2026-09-01T20:01:34Z</time>
  <course>272.89</course>
  <speed>19.89</speed>
  <fix>3d</fix>
</trkpt>
<trkpt lat="-27.2700891" lon="151.3447176">
  <ele>530.59</ele>
  <time>2026-09-01T20:01:34Z</time>
  <course>272.88</course>
  <speed>19.253947647170957</speed>
  <fix>3d</fix>
</trkpt>
<trkpt lat="-27.2700908" lon="151.3447578">
  <ele>530.92</ele>
  <time>2026-09-01T20:01:34Z</time>
  <course>272.88</course>
  <speed>19.57</speed>
  <fix>3d</fix>
</trkpt>
<trkpt lat="-27.2700882" lon="151.3446981">
  <ele>530.43</ele>
  <time>2026-09-01T20:01:34Z</time>
  <course>272.88</course>
  <speed>19.11362341368062</speed>
  <fix>3d</fix>
</trkpt>
<trkpt lat="-27.2700908" lon="151.3447578">
  <ele>530.92</ele>
  <time>2026-09-01T20:01:34Z</time>
  <course>272.88</course>
  <speed>19.57</speed>
  <fix>3d</fix>
</trkpt>
<trkpt lat="-27.2700873" lon="151.3446789">
  <ele>530.26</ele>
  <time>2026-09-01T20:01:34Z</time>
  <course>272.87</course>
  <speed>18.973299660312122</speed>
  <fix>3d</fix>
</trkpt>
<trkpt lat="-27.2700891" lon="151.3447186">
  <ele>530.6</ele>
  <time>2026-09-01T20:01:34Z</time>
  <course>272.87</course>
  <speed>19.27</speed>
  <fix>3d</fix>
</trkpt>
<trkpt lat="-27.2700865" lon="151.3446598">
  <ele>530.09</ele>
  <time>2026-09-01T20:01:34Z</time>
  <course>272.87</course>
  <speed>18.842964204179765</speed>
  <fix>3d</fix>
</trkpt>
<trkpt lat="-27.2700891" lon="151.3447186">
  <ele>530.6</ele>
  <time>2026-09-01T20:01:34Z</time>
  <course>272.87</course>
  <speed>19.27</speed>
  <fix>3d</fix>
</trkpt>
<trkpt lat="-27.2700857" lon="151.344641">
  <ele>529.91</ele>
  <time>2026-09-01T20:01:34Z</time>
  <course>272.86</course>
  <speed>18.713123737099586</speed>
  <fix>3d</fix>
</trkpt>
<trkpt lat="-27.2700873" lon="151.34468">
  <ele>530.27</ele>
  <time>2026-09-01T20:01:34Z</time>
  <course>272.86</course>
  <speed>18.98</speed>
  <fix>3d</fix>
</trkpt>
<trkpt lat="-27.2700848" lon="151.3446222">
  <ele>529.74</ele>
  <time>2026-09-01T20:01:34Z</time>
  <course>272.86</course>
  <speed>18.582787734890587</speed>
  <fix>3d</fix>
</trkpt>
<trkpt lat="-27.2700873" lon="151.34468">
  <ele>530.27</ele>
  <time>2026-09-01T20:01:34Z</time>
  <course>272.86</course>
  <speed>18.98</speed>
  <fix>3d</fix>
</trkpt>
<trkpt lat="-27.270084" lon="151.3446035">
  <ele>529.57</ele>
  <time>2026-09-01T20:01:34Z</time>
  <course>272.86</course>
  <speed>18.462440250411102</speed>
  <fix>3d</fix>
</trkpt>
<trkpt lat="-27.2700857" lon="151.344642">
  <ele>529.92</ele>
  <time>2026-09-01T20:01:34Z</time>
  <course>272.85</course>
  <speed>18.72</speed>
  <fix>3d</fix>
</trkpt>
<trkpt lat="-27.2700832" lon="151.3445849">
  <ele>529.39</ele>
  <time>2026-09-01T20:01:34Z</time>
  <course>272.85</course>
  <speed>18.342093664573845</speed>
  <fix>3d</fix>
</trkpt>
<trkpt lat="-27.2700857" lon="151.344642">
  <ele>529.92</ele>
  <time>2026-09-01T20:01:34Z</time>
  <course>272.85</course>
  <speed>18.72</speed>
  <fix>3d</fix>
</trkpt>
<trkpt lat="-27.2700824" lon="151.3445664">
  <ele>529.21</ele>
  <time>2026-09-01T20:01:34Z</time>
  <course>272.85</course>
  <speed>18.232226962167843</speed>
  <fix>3d</fix>
</trkpt>
<trkpt lat="-27.270084" lon="151.3446044">
  <ele>529.57</ele>
  <time>2026-09-01T20:01:34Z</time>
  <course>272.84</course>
  <speed>18.47</speed>
  <fix>3d</fix>
</trkpt>
<trkpt lat="-27.2700816" lon="151.3445481">
  <ele>529.02</ele>
  <time>2026-09-01T20:01:34Z</time>
  <course>272.84</course>
  <speed>18.12186800525818</speed>
  <fix>3d</fix>
</trkpt>
<trkpt lat="-27.270084" lon="151.3446044">
  <ele>529.57</ele>
  <time>2026-09-01T20:01:34Z</time>
  <course>272.84</course>
  <speed>18.47</speed>
  <fix>3d</fix>
</trkpt>
<trkpt lat="-27.2682885" lon="151.3486695">
  <ele>542.98</ele>
  <time>2026-09-01T20:01:34Z</time>
  <course>250.0</course>
  <speed>0.0824621125123532</speed>
  <fix>3d</fix>
</trkpt>
<trkpt lat="-27.2700824" lon="151.3445673">
  <ele>529.21</ele>
  <time>2026-09-01T20:01:34Z</time>
  <course>272.83</course>
  <speed>18.24</speed>
  <fix>3d</fix>
</trkpt>
<trkpt lat="-27.2682885" lon="151.3486692">
  <ele>542.89</ele>
  <time>2026-09-01T20:01:34Z</time>
  <course>249.99</course>
  <speed>0.35114099732158877</speed>
  <fix>3d</fix>
</trkpt>
<trkpt lat="-27.2700824" lon="151.3445673">
  <ele>529.21</ele>
  <time>2026-09-01T20:01:34Z</time>
  <course>272.83</course>
  <speed>18.24</speed>
  <fix>3d</fix>
</trkpt>
<trkpt lat="-27.2682887" lon="151.3486687">
  <ele>542.7</ele>
  <time>2026-09-01T20:01:34Z</time>
  <course>249.96</course>
  <speed>0.6706713054842887</speed>
  <fix>3d</fix>
</trkpt>
<trkpt lat="-27.269185" lon="151.3466091">
  <ele>535.96</ele>
  <time>2026-09-01T20:01:34Z</time>
  <course>272.41</course>
  <speed>9.22</speed>
  <fix>3d</fix>
</trkpt>
<trkpt lat="-27.2682889" lon="151.348668">
  <ele>542.41</ele>
  <time>2026-09-01T20:01:34Z</time>
  <course>249.93</course>
  <speed>1.0406248123122954</speed>
  <fix>3d</fix>
</trkpt>
<trkpt lat="-27.269185" lon="151.3466091">
  <ele>535.96</ele>
  <time>2026-09-01T20:01:34Z</time>
  <course>272.41</course>
  <speed>9.22</speed>
  <fix>3d</fix>
</trkpt>
<trkpt lat="-27.2682893" lon="151.3486668">
  <ele>542.06</ele>
  <time>2026-09-01T20:01:34Z</time>
  <course>250.69</course>
  <speed>1.4579780519610026</speed>
  <fix>3d</fix>
</trkpt>
<trkpt lat="-27.2682887" lon="151.3486686">
  <ele>542.66</ele>
  <time>2026-09-01T20:01:34Z</time>
  <course>250.06</course>
  <speed>0.68</speed>
  <fix>3d</fix>
</trkpt>
<trkpt lat="-27.2682896" lon="151.3486652">
  <ele>541.62</ele>
  <time>2026-09-01T20:01:34Z</time>
  <course>255.16</course>
  <speed>1.9233824372703419</speed>
  <fix>3d</fix>
</trkpt>
<trkpt lat="-27.2682887" lon="151.3486686">
  <ele>542.66</ele>
  <time>2026-09-01T20:01:34Z</time>
  <course>250.06</course>
  <speed>0.68</speed>
  <fix>3d</fix>
</trkpt>
<trkpt lat="-27.26829" lon="151.348663">
  <ele>541.11</ele>
  <time>2026-09-01T20:01:34Z</time>
  <course>265.09</course>
  <speed>2.4035182545593448</speed>
  <fix>3d</fix>
</trkpt>
<trkpt lat="-27.2682892" lon="151.3486666">
  <ele>542.03</ele>
  <time>2026-09-01T20:01:34Z</time>
  <course>254.13</course>
  <speed>1.46</speed>
  <fix>3d</fix>
</trkpt>
<trkpt lat="-27.2682906" lon="151.3486605">
  <ele>540.52</ele>
  <time>2026-09-01T20:01:34Z</time>
  <course>259.75</course>
  <speed>3.0411346566701054</speed>
  <fix>3d</fix>
</trkpt>
<trkpt lat="-27.2682892" lon="151.3486666">
  <ele>542.03</ele>
  <time>2026-09-01T20:01:34Z</time>
  <course>254.13</course>
  <speed>1.46</speed>
  <fix>3d</fix>
</trkpt>
<trkpt lat="-27.2682928" lon="151.3486577">
  <ele>539.91</ele>
  <time>2026-09-01T20:01:34Z</time>
  <course>248.77</course>
  <speed>4.301127759088306</speed>
  <fix>3d</fix>
</trkpt>
<trkpt lat="-27.2682901" lon="151.3486629">
  <ele>541.09</ele>
  <time>2026-09-01T20:01:34Z</time>
  <course>248.93</course>
  <speed>2.44</speed>
  <fix>3d</fix>
</trkpt>
<trkpt lat="-27.2682966" lon="151.3486549">
  <ele>539.34</ele>
  <time>2026-09-01T20:01:34Z</time>
  <course>241.37</course>
  <speed>5.67525329831189</speed>
  <fix>3d</fix>
</trkpt>
<trkpt lat="-27.2682901" lon="151.3486629">
  <ele>541.09</ele>
  <time>2026-09-01T20:01:34Z</time>
  <course>248.93</course>
  <speed>2.44</speed>
  <fix>3d</fix>
</trkpt>
<trkpt lat="-27.2683018" lon="151.3486524">
  <ele>538.84</ele>
  <time>2026-09-01T20:01:34Z</time>
  <course>235.92</course>
  <speed>6.891683393772525</speed>
  <fix>3d</fix>
</trkpt>
<trkpt lat="-27.2682935" lon="151.3486578">
  <ele>539.95</ele>
  <time>2026-09-01T20:01:34Z</time>
  <course>220.01</course>
  <speed>4.11</speed>
  <fix>3d</fix>
</trkpt>
<trkpt lat="-27.2683081" lon="151.3486499">
  <ele>538.43</ele>
  <time>2026-09-01T20:01:34Z</time>
  <course>231.67</course>
  <speed>7.890278829040201</speed>
  <fix>3d</fix>
</trkpt>
<trkpt lat="-27.2682935" lon="151.3486578">
  <ele>539.95</ele>
  <time>2026-09-01T20:01:34Z</time>
  <course>220.01</course>
  <speed>4.11</speed>
  <fix>3d</fix>
</trkpt>
<trkpt lat="-27.2683151" lon="151.3486471">
  <ele>538.14</ele>
  <time>2026-09-01T20:01:34Z</time>
  <course>228.74</course>
  <speed>8.632960094892134</speed>
  <fix>3d</fix>
</trkpt>
<trkpt lat="-27.2683021" lon="151.3486525">
  <ele>538.9</ele>
  <time>2026-09-01T20:01:34Z</time>
  <course>202.51</course>
  <speed>6.72</speed>
  <fix>3d</fix>
</trkpt>
<trkpt lat="-27.2683225" lon="151.3486437">
  <ele>537.98</ele>
  <time>2026-09-01T20:01:34Z</time>
  <course>226.97</course>
  <speed>9.118031585819386</speed>
  <fix>3d</fix>
</trkpt>
<trkpt lat="-27.2683021" lon="151.3486525">
  <ele>538.9</ele>
  <time>2026-09-01T20:01:34Z</time>
  <course>202.51</course>
  <speed>6.72</speed>
  <fix>3d</fix>
</trkpt>
<trkpt lat="-27.2683299" lon="151.3486393">
  <ele>537.89</ele>
  <time>2026-09-01T20:01:34Z</time>
  <course>226.26</course>
  <speed>9.528945377112832</speed>
  <fix>3d</fix>
</trkpt>
<trkpt lat="-27.2683149" lon="151.3486469">
  <ele>538.2</ele>
  <time>2026-09-01T20:01:34Z</time>
  <course>202.1</course>
  <speed>8.47</speed>
  <fix>3d</fix>
</trkpt>
<trkpt lat="-27.2683373" lon="151.3486338">
  <ele>537.86</ele>
  <time>2026-09-01T20:01:34Z</time>
  <course>226.63</course>
  <speed>9.94525515007031</speed>
  <fix>3d</fix>
</trkpt>
<trkpt lat="-27.2683149" lon="151.3486469">
  <ele>538.2</ele>
  <time>2026-09-01T20:01:34Z</time>
  <course>202.1</course>
  <speed>8.47</speed>
  <fix>3d</fix>
</trkpt>
<trkpt lat="-27.2683444" lon="151.3486274">
  <ele>537.83</ele>
  <time>2026-09-01T20:01:34Z</time>
  <course>228.03</course>
  <speed>10.405354390889336</speed>
  <fix>3d</fix>
</trkpt>
<trkpt lat="-27.2683295" lon="151.348639">
  <ele>537.92</ele>
  <time>2026-09-01T20:01:34Z</time>
  <course>210.42</course>
  <speed>9.47</speed>
  <fix>3d</fix>
</trkpt>
<trkpt lat="-27.2683513" lon="151.3486199">
  <ele>537.81</ele>
  <time>2026-09-01T20:01:34Z</time>
  <course>230.33</course>
  <speed>10.897343713033925</speed>
  <fix>3d</fix>
</trkpt>
<trkpt lat="-27.2683295" lon="151.348639">
  <ele>537.92</ele>
  <time>2026-09-01T20:01:34Z</time>
  <course>210.42</course>
  <speed>9.47</speed>
  <fix>3d</fix>
</trkpt>
<trkpt lat="-27.2683581" lon="151.3486117">
  <ele>537.77</ele>
  <time>2026-09-01T20:01:34Z</time>
  <course>233.38</course>
  <speed>11.400438588054408</speed>
  <fix>3d</fix>
</trkpt>
<trkpt lat="-27.2683439" lon="151.3486272">
  <ele>537.83</ele>
  <time>2026-09-01T20:01:34Z</time>
  <course>220.8</course>
  <speed>10.36</speed>
  <fix>3d</fix>
</trkpt>
<trkpt lat="-27.2683644" lon="151.3486024">
  <ele>537.72</ele>
  <time>2026-09-01T20:01:34Z</time>
  <course>236.71</course>
  <speed>11.912031732664248</speed>
  <fix>3d</fix>
</trkpt>
<trkpt lat="-27.2683439" lon="151.3486272">
  <ele>537.83</ele>
  <time>2026-09-01T20:01:34Z</time>
  <course>220.8</course>
  <speed>10.36</speed>
  <fix>3d</fix>
</trkpt>
<trkpt lat="-27.2683706" lon="151.3485921">
  <ele>537.66</ele>
  <time>2026-09-01T20:01:34Z</time>
  <course>239.94</course>
  <speed>12.42849146115489</speed>
  <fix>3d</fix>
</trkpt>
<trkpt lat="-27.2683576" lon="151.3486115">
  <ele>537.76</ele>
  <time>2026-09-01T20:01:34Z</time>
  <course>229.95</course>
  <speed>11.35</speed>
  <fix>3d</fix>
</trkpt>
<trkpt lat="-27.2683763" lon="151.348581">
  <ele>537.58</ele>
  <time>2026-09-01T20:01:34Z</time>
  <course>242.87</course>
  <speed>12.947683190439902</speed>
  <fix>3d</fix>
</trkpt>
<trkpt lat="-27.2683576" lon="151.3486115">
  <ele>537.76</ele>
  <time>2026-09-01T20:01:34Z</time>
  <course>229.95</course>
  <speed>11.35</speed>
  <fix>3d</fix>
</trkpt>
<trkpt lat="-27.2683816" lon="151.3485691">
  <ele>537.49</ele>
  <time>2026-09-01T20:01:34Z</time>
  <course>245.41</course>
  <speed>13.462945442955638</speed>
  <fix>3d</fix>
</trkpt>
<trkpt lat="-27.2683701" lon="151.3485921">
  <ele>537.65</ele>
  <time>2026-09-01T20:01:34Z</time>
  <course>237.98</course>
  <speed>12.38</speed>
  <fix>3d</fix>
</trkpt>
<trkpt lat="-27.2683864" lon="151.3485564">
  <ele>537.39</ele>
  <time>2026-09-01T20:01:34Z</time>
  <course>247.58</course>
  <speed>13.968034936955162</speed>
  <fix>3d</fix>
</trkpt>
<trkpt lat="-27.2683701" lon="151.3485921">
  <ele>537.65</ele>
  <time>2026-09-01T20:01:34Z</time>
  <course>237.98</course>
  <speed>12.38</speed>
  <fix>3d</fix>
</trkpt>
<trkpt lat="-27.2683908" lon="151.3485428">
  <ele>537.29</ele>
  <time>2026-09-01T20:01:34Z</time>
  <course>249.5</course>
  <speed>14.474076827210776</speed>
  <fix>3d</fix>
</trkpt>
<trkpt lat="-27.2683811" lon="151.3485691">
  <ele>537.49</ele>
  <time>2026-09-01T20:01:34Z</time>
  <course>245.03</course>
  <speed>13.42</speed>
  <fix>3d</fix>
</trkpt>
<trkpt lat="-27.2683948" lon="151.3485287">
  <ele>537.22</ele>
  <time>2026-09-01T20:01:34Z</time>
  <course>251.2</course>
  <speed>14.974010818748596</speed>
  <fix>3d</fix>
</trkpt>
<trkpt lat="-27.2683811" lon="151.3485691">
  <ele>537.49</ele>
  <time>2026-09-01T20:01:34Z</time>
  <course>245.03</course>
  <speed>13.42</speed>
  <fix>3d</fix>
</trkpt>
<trkpt lat="-27.2683984" lon="151.3485138">
  <ele>537.14</ele>
  <time>2026-09-01T20:01:34Z</time>
  <course>252.67</course>
  <speed>15.464155327724823</speed>
  <fix>3d</fix>
</trkpt>
<trkpt lat="-27.2683904" lon="151.3485431">
  <ele>537.31</ele>
  <time>2026-09-01T20:01:34Z</time>
  <course>250.96</course>
  <speed>14.44</speed>
  <fix>3d</fix>
</trkpt>
<trkpt lat="-27.2684017" lon="151.3484983">
  <ele>537.07</ele>
  <time>2026-09-01T20:01:34Z</time>
  <course>253.93</course>
  <speed>15.947645594256226</speed>
  <fix>3d</fix>
</trkpt>
<trkpt lat="-27.2683904" lon="151.3485431">
  <ele>537.31</ele>
  <time>2026-09-01T20:01:34Z</time>
  <course>250.96</course>
  <speed>14.44</speed>
  <fix>3d</fix>
</trkpt>
<trkpt lat="-27.2684046" lon="151.3484824">
  <ele>537.0</ele>
  <time>2026-09-01T20:01:34Z</time>
  <course>255.27</course>
  <speed>16.42488660539244</speed>
  <fix>3d</fix>
</trkpt>
<trkpt lat="-27.2683981" lon="151.3485142">
  <ele>537.14</ele>
  <time>2026-09-01T20:01:34Z</time>
  <course>255.54</course>
  <speed>15.43</speed>
  <fix>3d</fix>
</trkpt>
<trkpt lat="-27.2684073" lon="151.3484657">
  <ele>536.93</ele>
  <time>2026-09-01T20:01:34Z</time>
  <course>256.6</course>
  <speed>16.89554379118944</speed>
  <fix>3d</fix>
</trkpt>
<trkpt lat="-27.2683981" lon="151.3485142">
  <ele>537.14</ele>
  <time>2026-09-01T20:01:34Z</time>
  <course>255.54</course>
  <speed>15.43</speed>
  <fix>3d</fix>
</trkpt>
<trkpt lat="-27.2684098" lon="151.3484487">
  <ele>536.87</ele>
  <time>2026-09-01T20:01:34Z</time>
  <course>257.84</course>
  <speed>17.350487024864748</speed>
  <fix>3d</fix>
</trkpt>
<trkpt lat="-27.2684043" lon="151.3484828">
  <ele>537.0</ele>
  <time>2026-09-01T20:01:34Z</time>
  <course>258.82</course>
  <speed>16.4</speed>
  <fix>3d</fix>
</trkpt>
<trkpt lat="-27.2684121" lon="151.3484312">
  <ele>536.82</ele>
  <time>2026-09-01T20:01:34Z</time>
  <course>259.05</course>
  <speed>17.79260801569011</speed>
  <fix>3d</fix>
</trkpt>
<trkpt lat="-27.2684043" lon="151.3484828">
  <ele>537.0</ele>
  <time>2026-09-01T20:01:34Z</time>
  <course>258.82</course>
  <speed>16.4</speed>
  <fix>3d</fix>
</trkpt>
<trkpt lat="-27.2684141" lon="151.348413">
  <ele>536.78</ele>
  <time>2026-09-01T20:01:34Z</time>
  <course>260.15</course>
  <speed>18.22208001299522</speed>
  <fix>3d</fix>
</trkpt>
<trkpt lat="-27.2684096" lon="151.3484492">
  <ele>536.87</ele>
  <time>2026-09-01T20:01:34Z</time>
  <course>261.19</course>
  <speed>17.32</speed>
  <fix>3d</fix>
</trkpt>
<trkpt lat="-27.268416" lon="151.3483946">
  <ele>536.75</ele>
  <time>2026-09-01T20:01:34Z</time>
  <course>261.13</course>
  <speed>18.64863801997347</speed>
  <fix>3d</fix>
</trkpt>
<trkpt lat="-27.2684096" lon="151.3484492">
  <ele>536.87</ele>
  <time>2026-09-01T20:01:34Z</time>
  <course>261.19</course>
  <speed>17.32</speed>
  <fix>3d</fix>
</trkpt>
<trkpt lat="-27.2684178" lon="151.3483757">
  <ele>536.73</ele>
  <time>2026-09-01T20:01:34Z</time>
  <course>261.97</course>
  <speed>19.06096797122329</speed>
  <fix>3d</fix>
</trkpt>
<trkpt lat="-27.2684139" lon="151.3484136">
  <ele>536.78</ele>
  <time>2026-09-01T20:01:34Z</time>
  <course>262.99</course>
  <speed>18.2</speed>
  <fix>3d</fix>
</trkpt>
<trkpt lat="-27.2684194" lon="151.3483563">
  <ele>536.73</ele>
  <time>2026-09-01T20:01:34Z</time>
  <course>262.56</course>
  <speed>19.44710261195739</speed>
  <fix>3d</fix>
</trkpt>
<trkpt lat="-27.2684139" lon="151.3484136">
  <ele>536.78</ele>
  <time>2026-09-01T20:01:34Z</time>
  <course>262.99</course>
  <speed>18.2</speed>
  <fix>3d</fix>
</trkpt>
<trkpt lat="-27.2684209" lon="151.3483364">
  <ele>536.74</ele>
  <time>2026-09-01T20:01:34Z</time>
  <course>263.13</course>
  <speed>19.817974164883754</speed>
  <fix>3d</fix>
</trkpt>
<trkpt lat="-27.2684176" lon="151.3483762">
  <ele>536.74</ele>
  <time>2026-09-01T20:01:34Z</time>
  <course>264.32</course>
  <speed>19.03</speed>
  <fix>3d</fix>
</trkpt>
<trkpt lat="-27.2684223" lon="151.3483163">
  <ele>536.77</ele>
  <time>2026-09-01T20:01:34Z</time>
  <course>263.57</course>
  <speed>20.171192329656666</speed>
  <fix>3d</fix>
</trkpt>
<trkpt lat="-27.2684176" lon="151.3483762">
  <ele>536.74</ele>
  <time>2026-09-01T20:01:34Z</time>
  <course>264.32</course>
  <speed>19.03</speed>
  <fix>3d</fix>
</trkpt>
<trkpt lat="-27.2684237" lon="151.3482958">
  <ele>536.82</ele>
  <time>2026-09-01T20:01:34Z</time>
  <course>264.08</course>
  <speed>20.517126991857317</speed>
  <fix>3d</fix>
</trkpt>
<trkpt lat="-27.2684208" lon="151.3483371">
  <ele>536.75</ele>
  <time>2026-09-01T20:01:34Z</time>
  <course>265.18</course>
  <speed>19.79</speed>
  <fix>3d</fix>
</trkpt>
<trkpt lat="-27.2684251" lon="151.348275">
  <ele>536.88</ele>
  <time>2026-09-01T20:01:34Z</time>
  <course>264.61</course>
  <speed>20.85329949912004</speed>
  <fix>3d</fix>
</trkpt>
<trkpt lat="-27.2684208" lon="151.3483371">
  <ele>536.75</ele>
  <time>2026-09-01T20:01:34Z</time>
  <course>265.18</course>
  <speed>19.79</speed>
  <fix>3d</fix>
</trkpt>
<trkpt lat="-27.2684264" lon="151.3482537">
  <ele>536.94</ele>
  <time>2026-09-01T20:01:34Z</time>
  <course>264.98</course>
  <speed>21.159740074017922</speed>
  <fix>3d</fix>
</trkpt>
<trkpt lat="-27.2684236" lon="151.3482964">
  <ele>536.82</ele>
  <time>2026-09-01T20:01:34Z</time>
  <course>265.7</course>
  <speed>20.5</speed>
  <fix>3d</fix>
</trkpt>
<trkpt lat="-27.2684277" lon="151.3482324">
  <ele>537.02</ele>
  <time>2026-09-01T20:01:34Z</time>
  <course>265.21</course>
  <speed>21.437082357447807</speed>
  <fix>3d</fix>
</trkpt>
<trkpt lat="-27.2684236" lon="151.3482964">
  <ele>536.82</ele>
  <time>2026-09-01T20:01:34Z</time>
  <course>265.7</course>
  <speed>20.5</speed>
  <fix>3d</fix>
</trkpt>
<trkpt lat="-27.268429" lon="151.3482104">
  <ele>537.1</ele>
  <time>2026-09-01T20:01:34Z</time>
  <course>265.33</course>
  <speed>21.695218367188655</speed>
  <fix>3d</fix>
</trkpt>
<trkpt lat="-27.2684263" lon="151.3482543">
  <ele>536.94</ele>
  <time>2026-09-01T20:01:34Z</time>
  <course>266.04</course>
  <speed>21.14</speed>
  <fix>3d</fix>
</trkpt>
<trkpt lat="-27.2684302" lon="151.3481884">
  <ele>537.16</ele>
  <time>2026-09-01T20:01:34Z</time>
  <course>265.51</course>
  <speed>21.913495841604096</speed>
  <fix>3d</fix>
</trkpt>
<trkpt lat="-27.2684263" lon="151.3482543">
  <ele>536.94</ele>
  <time>2026-09-01T20:01:34Z</time>
  <course>266.04</course>
  <speed>21.14</speed>
  <fix>3d</fix>
</trkpt>
<trkpt lat="-27.2684315" lon="151.3481663">
  <ele>537.23</ele>
  <time>2026-09-01T20:01:34Z</time>
  <course>265.75</course>
  <speed>22.102499858613278</speed>
  <fix>3d</fix>
</trkpt>
<trkpt lat="-27.2684289" lon="151.3482112">
  <ele>537.09</ele>
  <time>2026-09-01T20:01:34Z</time>
  <course>266.27</course>
  <speed>21.67</speed>
  <fix>3d</fix>
</trkpt>
<trkpt lat="-27.2684327" lon="151.3481439">
  <ele>537.27</ele>
  <time>2026-09-01T20:01:34Z</time>
  <course>265.96</course>
  <speed>22.251599942476044</speed>
  <fix>3d</fix>
</trkpt>
<trkpt lat="-27.2684289" lon="151.3482112">
  <ele>537.09</ele>
  <time>2026-09-01T20:01:34Z</time>
  <course>266.27</course>
  <speed>21.67</speed>
  <fix>3d</fix>
</trkpt>
<trkpt lat="-27.2684339" lon="151.3481214">
  <ele>537.29</ele>
  <time>2026-09-01T20:01:34Z</time>
  <course>266.1</course>
  <speed>22.390133987986765</speed>
  <fix>3d</fix>
</trkpt>
<trkpt lat="-27.2684314" lon="151.3481671">
  <ele>537.22</ele>
  <time>2026-09-01T20:01:34Z</time>
  <course>266.43</course>
  <speed>22.07</speed>
  <fix>3d</fix>
</trkpt>
<trkpt lat="-27.2684351" lon="151.3480986">
  <ele>537.31</ele>
  <time>2026-09-01T20:01:34Z</time>
  <course>266.12</course>
  <speed>22.488772754421262</speed>
  <fix>3d</fix>
</trkpt>
<trkpt lat="-27.2684314" lon="151.3481671">
  <ele>537.22</ele>
  <time>2026-09-01T20:01:34Z</time>
  <course>266.43</course>
  <speed>22.07</speed>
  <fix>3d</fix>
</trkpt>
<trkpt lat="-27.2684363" lon="151.348076">
  <ele>537.29</ele>
  <time>2026-09-01T20:01:34Z</time>
  <course>266.15</course>
  <speed>22.558069509601214</speed>
  <fix>3d</fix>
</trkpt>
<trkpt lat="-27.2684338" lon="151.3481222">
  <ele>537.29</ele>
  <time>2026-09-01T20:01:34Z</time>
  <course>266.55</course>
  <speed>22.37</speed>
  <fix>3d</fix>
</trkpt>
<trkpt lat="-27.2684375" lon="151.3480531">
  <ele>537.27</ele>
  <time>2026-09-01T20:01:34Z</time>
  <course>266.21</course>
  <speed>22.627951741154124</speed>
  <fix>3d</fix>
</trkpt>
<trkpt lat="-27.2684338" lon="151.3481222">
  <ele>537.29</ele>
  <time>2026-09-01T20:01:34Z</time>
  <course>266.55</course>
  <speed>22.37</speed>
  <fix>3d</fix>
</trkpt>
<trkpt lat="-27.2684386" lon="151.3480304">
  <ele>537.22</ele>
  <time>2026-09-01T20:01:34Z</time>
  <course>266.31</course>
  <speed>22.697259746498034</speed>
  <fix>3d</fix>
</trkpt>
<trkpt lat="-27.2684362" lon="151.3480769">
  <ele>537.29</ele>
  <time>2026-09-01T20:01:34Z</time>
  <course>266.64</course>
  <speed>22.56</speed>
  <fix>3d</fix>
</trkpt>
<trkpt lat="-27.2684398" lon="151.3480074">
  <ele>537.16</ele>
  <time>2026-09-01T20:01:34Z</time>
  <course>266.43</course>
  <speed>22.757161510170814</speed>
  <fix>3d</fix>
</trkpt>
<trkpt lat="-27.2684362" lon="151.3480769">
  <ele>537.29</ele>
  <time>2026-09-01T20:01:34Z</time>
  <course>266.64</course>
  <speed>22.56</speed>
  <fix>3d</fix>
</trkpt>
<trkpt lat="-27.268441" lon="151.3479845">
  <ele>537.07</ele>
  <time>2026-09-01T20:01:34Z</time>
  <course>266.47</course>
  <speed>22.786544275076025</speed>
  <fix>3d</fix>
</trkpt>
<trkpt lat="-27.2684386" lon="151.3480313">
  <ele>537.21</ele>
  <time>2026-09-01T20:01:34Z</time>
  <course>266.69</course>
  <speed>22.69</speed>
  <fix>3d</fix>
</trkpt>
<trkpt lat="-27.2684422" lon="151.3479615">
  <ele>536.98</ele>
  <time>2026-09-01T20:01:34Z</time>
  <course>266.49</course>
  <speed>22.806512227870353</speed>
  <fix>3d</fix>
</trkpt>
<trkpt lat="-27.2684386" lon="151.3480313">
  <ele>537.21</ele>
  <time>2026-09-01T20:01:34Z</time>
  <course>266.69</course>
  <speed>22.69</speed>
  <fix>3d</fix>
</trkpt>
<trkpt lat="-27.2684433" lon="151.3479384">
  <ele>536.88</ele>
  <time>2026-09-01T20:01:34Z</time>
  <course>266.51</course>
  <speed>22.825917287154095</speed>
  <fix>3d</fix>
</trkpt>
<trkpt lat="-27.2684409" lon="151.3479854">
  <ele>537.07</ele>
  <time>2026-09-01T20:01:34Z</time>
  <course>266.73</course>
  <speed>22.78</speed>
  <fix>3d</fix>
</trkpt>
<trkpt lat="-27.2684445" lon="151.3479154">
  <ele>536.77</ele>
  <time>2026-09-01T20:01:34Z</time>
  <course>266.54</course>
  <speed>22.855870143138283</speed>
  <fix>3d</fix>
</trkpt>
<trkpt lat="-27.2684409" lon="151.3479854">
  <ele>537.07</ele>
  <time>2026-09-01T20:01:34Z</time>
  <course>266.73</course>
  <speed>22.78</speed>
  <fix>3d</fix>
</trkpt>
<trkpt lat="-27.2684456" lon="151.3478922">
  <ele>536.65</ele>
  <time>2026-09-01T20:01:34Z</time>
  <course>266.6</course>
  <speed>22.875838782435935</speed>
  <fix>3d</fix>
</trkpt>
<trkpt lat="-27.2684432" lon="151.3479394">
  <ele>536.88</ele>
  <time>2026-09-01T20:01:34Z</time>
  <course>266.76</course>
  <speed>22.83</speed>
  <fix>3d</fix>
</trkpt>
<trkpt lat="-27.2684468" lon="151.3478692">
  <ele>536.53</ele>
  <time>2026-09-01T20:01:34Z</time>
  <course>266.62</course>
  <speed>22.90579184398566</speed>
  <fix>3d</fix>
</trkpt>
<trkpt lat="-27.2684432" lon="151.3479394">
  <ele>536.88</ele>
  <time>2026-09-01T20:01:34Z</time>
  <course>266.76</course>
  <speed>22.83</speed>
  <fix>3d</fix>
</trkpt>
<trkpt lat="-27.2684479" lon="151.3478461">
  <ele>536.41</ele>
  <time>2026-09-01T20:01:34Z</time>
  <course>266.62</course>
  <speed>22.925760619879114</speed>
  <fix>3d</fix>
</trkpt>
<trkpt lat="-27.2684455" lon="151.3478933">
  <ele>536.65</ele>
  <time>2026-09-01T20:01:34Z</time>
  <course>266.77</course>
  <speed>22.88</speed>
  <fix>3d</fix>
</trkpt>
<trkpt lat="-27.2684491" lon="151.347823">
  <ele>536.29</ele>
  <time>2026-09-01T20:01:34Z</time>
  <course>266.61</course>
  <speed>22.956273652315613</speed>
  <fix>3d</fix>
</trkpt>
<trkpt lat="-27.2684455" lon="151.3478933">
  <ele>536.65</ele>
  <time>2026-09-01T20:01:34Z</time>
  <course>266.77</course>
  <speed>22.88</speed>
  <fix>3d</fix>
</trkpt>
<trkpt lat="-27.2684503" lon="151.3477998">
  <ele>536.18</ele>
  <time>2026-09-01T20:01:34Z</time>
  <course>266.59</course>
  <speed>22.97624207741553</speed>
  <fix>3d</fix>
</trkpt>
<trkpt lat="-27.2684478" lon="151.347847">
  <ele>536.42</ele>
  <time>2026-09-01T20:01:34Z</time>
  <course>266.77</course>
  <speed>22.93</speed>
  <fix>3d</fix>
</trkpt>
<trkpt lat="-27.2684514" lon="151.3477766">
  <ele>536.06</ele>
  <time>2026-09-01T20:01:34Z</time>
  <course>266.64</course>
  <speed>22.996773686758758</speed>
  <fix>3d</fix>
</trkpt>
<trkpt lat="-27.2684478" lon="151.347847">
  <ele>536.42</ele>
  <time>2026-09-01T20:01:34Z</time>
  <course>266.77</course>
  <speed>22.93</speed>
  <fix>3d</fix>
</trkpt>
<trkpt lat="-27.2684526" lon="151.3477533">
  <ele>535.95</ele>
  <time>2026-09-01T20:01:34Z</time>
  <course>266.65</course>
  <speed>23.01730870453798</speed>
  <fix>3d</fix>
</trkpt>
<trkpt lat="-27.2684502" lon="151.3478006">
  <ele>536.18</ele>
  <time>2026-09-01T20:01:34Z</time>
  <course>266.75</course>
  <speed>22.98</speed>
  <fix>3d</fix>
</trkpt>
<trkpt lat="-27.2684538" lon="151.3477302">
  <ele>535.84</ele>
  <time>2026-09-01T20:01:34Z</time>
  <course>266.66</course>
  <speed>23.037847121638773</speed>
  <fix>3d</fix>
</trkpt>
<trkpt lat="-27.2684502" lon="151.3478006">
  <ele>536.18</ele>
  <time>2026-09-01T20:01:34Z</time>
  <course>266.75</course>
  <speed>22.98</speed>
  <fix>3d</fix>
</trkpt>
<trkpt lat="-27.268455" lon="151.3477069">
  <ele>535.74</ele>
  <time>2026-09-01T20:01:34Z</time>
  <course>266.64</course>
  <speed>23.05838892897767</speed>
  <fix>3d</fix>
</trkpt>
<trkpt lat="-27.2684525" lon="151.3477542">
  <ele>535.95</ele>
  <time>2026-09-01T20:01:34Z</time>
  <course>266.72</course>
  <speed>23.02</speed>
  <fix>3d</fix>
</trkpt>
<trkpt lat="-27.2684562" lon="151.3476837">
  <ele>535.63</ele>
  <time>2026-09-01T20:01:34Z</time>
  <course>266.62</course>
  <speed>23.078355660661785</speed>
  <fix>3d</fix>
</trkpt>
<trkpt lat="-27.2684525" lon="151.3477542">
  <ele>535.95</ele>
  <time>2026-09-01T20:01:34Z</time>
  <course>266.72</course>
  <speed>23.02</speed>
  <fix>3d</fix>
</trkpt>
<trkpt lat="-27.2684574" lon="151.3476604">
  <ele>535.53</ele>
  <time>2026-09-01T20:01:34Z</time>
  <course>266.58</course>
  <speed>23.089499778037634</speed>
  <fix>3d</fix>
</trkpt>
<trkpt lat="-27.2684549" lon="151.3477077">
  <ele>535.74</ele>
  <time>2026-09-01T20:01:34Z</time>
  <course>266.69</course>
  <speed>23.05</speed>
  <fix>3d</fix>
</trkpt>
<trkpt lat="-27.2684586" lon="151.347637">
  <ele>535.43</ele>
  <time>2026-09-01T20:01:34Z</time>
  <course>266.56</course>
  <speed>23.11005192551501</speed>
  <fix>3d</fix>
</trkpt>
<trkpt lat="-27.2684549" lon="151.3477077">
  <ele>535.74</ele>
  <time>2026-09-01T20:01:34Z</time>
  <course>266.69</course>
  <speed>23.05</speed>
  <fix>3d</fix>
</trkpt>
<trkpt lat="-27.2684598" lon="151.3476138">
  <ele>535.32</ele>
  <time>2026-09-01T20:01:34Z</time>
  <course>266.57</course>
  <speed>23.13060742825402</speed>
  <fix>3d</fix>
</trkpt>
<trkpt lat="-27.2684573" lon="151.3476611">
  <ele>535.53</ele>
  <time>2026-09-01T20:01:34Z</time>
  <course>266.64</course>
  <speed>23.09</speed>
  <fix>3d</fix>
</trkpt>
<trkpt lat="-27.2684611" lon="151.3475904">
  <ele>535.22</ele>
  <time>2026-09-01T20:01:34Z</time>
  <course>266.58</course>
  <speed>23.151764511587448</speed>
  <fix>3d</fix>
</trkpt>
<trkpt lat="-27.2684573" lon="151.3476611">
  <ele>535.53</ele>
  <time>2026-09-01T20:01:34Z</time>
  <course>266.64</course>
  <speed>23.09</speed>
  <fix>3d</fix>
</trkpt>
<trkpt lat="-27.2684623" lon="151.3475669">
  <ele>535.12</ele>
  <time>2026-09-01T20:01:34Z</time>
  <course>266.53</course>
  <speed>23.172330482711487</speed>
  <fix>3d</fix>
</trkpt>
<trkpt lat="-27.2684598" lon="151.3476145">
  <ele>535.32</ele>
  <time>2026-09-01T20:01:34Z</time>
  <course>266.58</course>
  <speed>23.13</speed>
  <fix>3d</fix>
</trkpt>
<trkpt lat="-27.2684636" lon="151.3475435">
  <ele>535.01</ele>
  <time>2026-09-01T20:01:34Z</time>
  <course>266.47</course>
  <speed>23.202881286598867</speed>
  <fix>3d</fix>
</trkpt>
<trkpt lat="-27.2684598" lon="151.3476145">
  <ele>535.32</ele>
  <time>2026-09-01T20:01:34Z</time>
  <course>266.58</course>
  <speed>23.13</speed>
  <fix>3d</fix>
</trkpt>
<trkpt lat="-27.2684649" lon="151.3475201">
  <ele>534.91</ele>
  <time>2026-09-01T20:01:34Z</time>
  <course>266.38</course>
  <speed>23.23404829124705</speed>
  <fix>3d</fix>
</trkpt>
<trkpt lat="-27.2684623" lon="151.3475678">
  <ele>535.12</ele>
  <time>2026-09-01T20:01:34Z</time>
  <course>266.53</course>
  <speed>23.17</speed>
  <fix>3d</fix>
</trkpt>
<trkpt lat="-27.2684662" lon="151.3474966">
  <ele>534.79</ele>
  <time>2026-09-01T20:01:34Z</time>
  <course>266.36</course>
  <speed>23.26522942074718</speed>
  <fix>3d</fix>
</trkpt>
<trkpt lat="-27.2684623" lon="151.3475678">
  <ele>535.12</ele>
  <time>2026-09-01T20:01:34Z</time>
  <course>266.53</course>
  <speed>23.17</speed>
  <fix>3d</fix>
</trkpt>
<trkpt lat="-27.2684675" lon="151.3474731">
  <ele>534.69</ele>
  <time>2026-09-01T20:01:34Z</time>
  <course>266.39</course>
  <speed>23.30577610808102</speed>
  <fix>3d</fix>
</trkpt>
<trkpt lat="-27.2684648" lon="151.347521">
  <ele>534.91</ele>
  <time>2026-09-01T20:01:34Z</time>
  <course>266.46</course>
  <speed>23.23</speed>
  <fix>3d</fix>
</trkpt>
<trkpt lat="-27.2684688" lon="151.3474496">
  <ele>534.58</ele>
  <time>2026-09-01T20:01:34Z</time>
  <course>266.4</course>
  <speed>23.346956975160598</speed>
  <fix>3d</fix>
</trkpt>
<trkpt lat="-27.2684648" lon="151.347521">
  <ele>534.91</ele>
  <time>2026-09-01T20:01:34Z</time>
  <course>266.46</course>
  <speed>23.23</speed>
  <fix>3d</fix>
</trkpt>
<trkpt lat="-27.2684702" lon="151.3474259">
  <ele>534.47</ele>
  <time>2026-09-01T20:01:34Z</time>
  <course>266.44</course>
  <speed>23.397491318515325</speed>
  <fix>3d</fix>
</trkpt>
<trkpt lat="-27.2684674" lon="151.3474741">
  <ele>534.7</ele>
  <time>2026-09-01T20:01:34Z</time>
  <course>266.38</course>
  <speed>23.31</speed>
  <fix>3d</fix>
</trkpt>
<trkpt lat="-27.2684715" lon="151.3474024">
  <ele>534.36</ele>
  <time>2026-09-01T20:01:34Z</time>
  <course>266.4</course>
  <speed>23.438690236444526</speed>
  <fix>3d</fix>
</trkpt>
<trkpt lat="-27.2684674" lon="151.3474741">
  <ele>534.7</ele>
  <time>2026-09-01T20:01:34Z</time>
  <course>266.38</course>
  <speed>23.31</speed>
  <fix>3d</fix>
</trkpt>
<trkpt lat="-27.2684729" lon="151.3473788">
  <ele>534.25</ele>
  <time>2026-09-01T20:01:34Z</time>
  <course>266.32</course>
  <speed>23.489231575341073</speed>
  <fix>3d</fix>
</trkpt>
<trkpt lat="-27.2684701" lon="151.3474269">
  <ele>534.48</ele>
  <time>2026-09-01T20:01:34Z</time>
  <course>266.33</course>
  <speed>23.39</speed>
  <fix>3d</fix>
</trkpt>
<trkpt lat="-27.2684743" lon="151.347355">
  <ele>534.14</ele>
  <time>2026-09-01T20:01:34Z</time>
  <course>266.24</course>
  <speed>23.53977485024018</speed>
  <fix>3d</fix>
</trkpt>
<trkpt lat="-27.2684701" lon="151.3474269">
  <ele>534.48</ele>
  <time>2026-09-01T20:01:34Z</time>
  <course>266.33</course>
  <speed>23.39</speed>
  <fix>3d</fix>
</trkpt>
<trkpt lat="-27.2684756" lon="151.3473312">
  <ele>534.04</ele>
  <time>2026-09-01T20:01:34Z</time>
  <course>266.21</course>
  <speed>23.590974969254663</speed>
  <fix>3d</fix>
</trkpt>
<trkpt lat="-27.2684728" lon="151.3473796">
  <ele>534.26</ele>
  <time>2026-09-01T20:01:34Z</time>
  <course>266.27</course>
  <speed>23.49</speed>
  <fix>3d</fix>
</trkpt>
<trkpt lat="-27.268477" lon="151.3473075">
  <ele>533.93</ele>
  <time>2026-09-01T20:01:34Z</time>
  <course>266.16</course>
  <speed>23.642186870084586</speed>
  <fix>3d</fix>
</trkpt>
<trkpt lat="-27.2684728" lon="151.3473796">
  <ele>534.26</ele>
  <time>2026-09-01T20:01:34Z</time>
  <course>266.27</course>
  <speed>23.49</speed>
  <fix>3d</fix>
</trkpt>
<trkpt lat="-27.2684785" lon="151.3472836">
  <ele>533.83</ele>
  <time>2026-09-01T20:01:34Z</time>
  <course>266.15</course>
  <speed>23.702719253284</speed>
  <fix>3d</fix>
</trkpt>
<trkpt lat="-27.2684756" lon="151.3473321">
  <ele>534.04</ele>
  <time>2026-09-01T20:01:34Z</time>
  <course>266.22</course>
  <speed>23.59</speed>
  <fix>3d</fix>
</trkpt>
<trkpt lat="-27.2684799" lon="151.3472597">
  <ele>533.72</ele>
  <time>2026-09-01T20:01:34Z</time>
  <course>266.15</course>
  <speed>23.753947040439407</speed>
  <fix>3d</fix>
</trkpt>
<trkpt lat="-27.2684756" lon="151.3473321">
  <ele>534.04</ele>
  <time>2026-09-01T20:01:34Z</time>
  <course>266.22</course>
  <speed>23.59</speed>
  <fix>3d</fix>
</trkpt>
<trkpt lat="-27.2684813" lon="151.3472357">
  <ele>533.62</ele>
  <time>2026-09-01T20:01:34Z</time>
  <course>266.15</course>
  <speed>23.80450797643169</speed>
  <fix>3d</fix>
</trkpt>
<trkpt lat="-27.2684784" lon="151.3472843">
  <ele>533.82</ele>
  <time>2026-09-01T20:01:34Z</time>
  <course>266.16</course>
  <speed>23.7</speed>
  <fix>3d</fix>
</trkpt>
<trkpt lat="-27.2684828" lon="151.3472117">
  <ele>533.53</ele>
  <time>2026-09-01T20:01:34Z</time>
  <course>266.17</course>
  <speed>23.86572856629355</speed>
  <fix>3d</fix>
</trkpt>
<trkpt lat="-27.2684784" lon="151.3472843">
  <ele>533.82</ele>
  <time>2026-09-01T20:01:34Z</time>
  <course>266.16</course>
  <speed>23.7</speed>
  <fix>3d</fix>
</trkpt>
<trkpt lat="-27.2684843" lon="151.3471875">
  <ele>533.43</ele>
  <time>2026-09-01T20:01:34Z</time>
  <course>266.19</course>
  <speed>23.916295699794315</speed>
  <fix>3d</fix>
</trkpt>
<trkpt lat="-27.2684813" lon="151.3472365">
  <ele>533.63</ele>
  <time>2026-09-01T20:01:34Z</time>
  <course>266.1</course>
  <speed>23.81</speed>
  <fix>3d</fix>
</trkpt>
<trkpt lat="-27.2684857" lon="151.3471635">
  <ele>533.34</ele>
  <time>2026-09-01T20:01:34Z</time>
  <course>266.19</course>
  <speed>23.976840909510994</speed>
  <fix>3d</fix>
</trkpt>
<trkpt lat="-27.2684813" lon="151.3472365">
  <ele>533.63</ele>
  <time>2026-09-01T20:01:34Z</time>
  <course>266.1</course>
  <speed>23.81</speed>
  <fix>3d</fix>
</trkpt>
<trkpt lat="-27.2684872" lon="151.3471392">
  <ele>533.22</ele>
  <time>2026-09-01T20:01:34Z</time>
  <course>266.14</course>
  <speed>24.02672262294631</speed>
  <fix>3d</fix>
</trkpt>
<trkpt lat="-27.2684842" lon="151.3471884">
  <ele>533.43</ele>
  <time>2026-09-01T20:01:34Z</time>
  <course>266.06</course>
  <speed>23.92</speed>
  <fix>3d</fix>
</trkpt>
<trkpt lat="-27.2684887" lon="151.347115">
  <ele>533.08</ele>
  <time>2026-09-01T20:01:34Z</time>
  <course>266.06</course>
  <speed>24.097935596228986</speed>
  <fix>3d</fix>
</trkpt>
<trkpt lat="-27.2684842" lon="151.3471884">
  <ele>533.43</ele>
  <time>2026-09-01T20:01:34Z</time>
  <course>266.06</course>
  <speed>23.92</speed>
  <fix>3d</fix>
</trkpt>
<trkpt lat="-27.2684902" lon="151.3470907">
  <ele>532.91</ele>
  <time>2026-09-01T20:01:34Z</time>
  <course>266.02</course>
  <speed>24.178436674028365</speed>
  <fix>3d</fix>
</trkpt>
<trkpt lat="-27.2684872" lon="151.34714">
  <ele>533.21</ele>
  <time>2026-09-01T20:01:34Z</time>
  <course>266.03</course>
  <speed>24.03</speed>
  <fix>3d</fix>
</trkpt>
<trkpt lat="-27.2684918" lon="151.3470663">
  <ele>532.76</ele>
  <time>2026-09-01T20:01:34Z</time>
  <course>266.04</course>
  <speed>24.269612687474023</speed>
  <fix>3d</fix>
</trkpt>
<trkpt lat="-27.2684872" lon="151.34714">
  <ele>533.21</ele>
  <time>2026-09-01T20:01:34Z</time>
  <course>266.03</course>
  <speed>24.03</speed>
  <fix>3d</fix>
</trkpt>
<trkpt lat="-27.2684933" lon="151.3470418">
  <ele>532.6</ele>
  <time>2026-09-01T20:01:34Z</time>
  <course>266.1</course>
  <speed>24.36079637450303</speed>
  <fix>3d</fix>
</trkpt>
<trkpt lat="-27.2684902" lon="151.3470914">
  <ele>532.92</ele>
  <time>2026-09-01T20:01:34Z</time>
  <course>265.99</course>
  <speed>24.18</speed>
  <fix>3d</fix>
</trkpt>
<trkpt lat="-27.2684949" lon="151.3470171">
  <ele>532.45</ele>
  <time>2026-09-01T20:01:34Z</time>
  <course>266.08</course>
  <speed>24.451278085204464</speed>
  <fix>3d</fix>
</trkpt>
<trkpt lat="-27.2684902" lon="151.3470914">
  <ele>532.92</ele>
  <time>2026-09-01T20:01:34Z</time>
  <course>265.99</course>
  <speed>24.18</speed>
  <fix>3d</fix>
</trkpt>
<trkpt lat="-27.2684964" lon="151.3469925">
  <ele>532.29</ele>
  <time>2026-09-01T20:01:34Z</time>
  <course>266.01</course>
  <speed>24.541760328061226</speed>
  <fix>3d</fix>
</trkpt>
<trkpt lat="-27.2684932" lon="151.3470425">
  <ele>532.6</ele>
  <time>2026-09-01T20:01:34Z</time>
  <course>265.95</course>
  <speed>24.36</speed>
  <fix>3d</fix>
</trkpt>
<trkpt lat="-27.268498" lon="151.3469677">
  <ele>532.16</ele>
  <time>2026-09-01T20:01:34Z</time>
  <course>265.98</course>
  <speed>24.632243097208992</speed>
  <fix>3d</fix>
</trkpt>
<trkpt lat="-27.2684932" lon="151.3470425">
  <ele>532.6</ele>
  <time>2026-09-01T20:01:34Z</time>
  <course>265.95</course>
  <speed>24.36</speed>
  <fix>3d</fix>
</trkpt>
<trkpt lat="-27.2684996" lon="151.3469428">
  <ele>532.06</ele>
  <time>2026-09-01T20:01:34Z</time>
  <course>265.94</course>
  <speed>24.723440294586837</speed>
  <fix>3d</fix>
</trkpt>
<trkpt lat="-27.2684963" lon="151.3469932">
  <ele>532.31</ele>
  <time>2026-09-01T20:01:34Z</time>
  <course>265.92</course>
  <speed>24.54</speed>
  <fix>3d</fix>
</trkpt>
<trkpt lat="-27.2685012" lon="151.3469179">
  <ele>531.96</ele>
  <time>2026-09-01T20:01:34Z</time>
  <course>265.9</course>
  <speed>24.8039512981299</speed>
  <fix>3d</fix>
</trkpt>
<trkpt lat="-27.2684963" lon="151.3469932">
  <ele>532.31</ele>
  <time>2026-09-01T20:01:34Z</time>
  <course>265.92</course>
  <speed>24.54</speed>
  <fix>3d</fix>
</trkpt>
<trkpt lat="-27.2685028" lon="151.3468926">
  <ele>531.87</ele>
  <time>2026-09-01T20:01:34Z</time>
  <course>265.87</course>
  <speed>24.884463024144203</speed>
  <fix>3d</fix>
</trkpt>
<trkpt lat="-27.2684995" lon="151.3469436">
  <ele>532.07</ele>
  <time>2026-09-01T20:01:34Z</time>
  <course>265.89</course>
  <speed>24.72</speed>
  <fix>3d</fix>
</trkpt>
<trkpt lat="-27.2685044" lon="151.3468675">
  <ele>531.79</ele>
  <time>2026-09-01T20:01:34Z</time>
  <course>265.88</course>
  <speed>24.965698468098186</speed>
  <fix>3d</fix>
</trkpt>
<trkpt lat="-27.2684995" lon="151.3469436">
  <ele>532.07</ele>
  <time>2026-09-01T20:01:34Z</time>
  <course>265.89</course>
  <speed>24.72</speed>
  <fix>3d</fix>
</trkpt>
<trkpt lat="-27.2685061" lon="151.3468423">
  <ele>531.74</ele>
  <time>2026-09-01T20:01:34Z</time>
  <course>265.86</course>
  <speed>25.026266201732927</speed>
  <fix>3d</fix>
</trkpt>
<trkpt lat="-27.2685027" lon="151.3468935">
  <ele>531.88</ele>
  <time>2026-09-01T20:01:34Z</time>
  <course>265.85</course>
  <speed>24.89</speed>
  <fix>3d</fix>
</trkpt>
<trkpt lat="-27.2685077" lon="151.346817">
  <ele>531.7</ele>
  <time>2026-09-01T20:01:34Z</time>
  <course>265.8</course>
  <speed>25.047674542759456</speed>
  <fix>3d</fix>
</trkpt>
<trkpt lat="-27.2685027" lon="151.3468935">
  <ele>531.88</ele>
  <time>2026-09-01T20:01:34Z</time>
  <course>265.85</course>
  <speed>24.89</speed>
  <fix>3d</fix>
</trkpt>
<trkpt lat="-27.2685094" lon="151.3467918">
  <ele>531.66</ele>
  <time>2026-09-01T20:01:34Z</time>
  <course>265.82</course>
  <speed>24.997809904069594</speed>
  <fix>3d</fix>
</trkpt>
<trkpt lat="-27.268506" lon="151.3468433">
  <ele>531.75</ele>
  <time>2026-09-01T20:01:34Z</time>
  <course>265.8</course>
  <speed>25.0</speed>
  <fix>3d</fix>
</trkpt>
<trkpt lat="-27.268511" lon="151.3467667">
  <ele>531.65</ele>
  <time>2026-09-01T20:01:34Z</time>
  <course>265.82</course>
  <speed>24.887372300023962</speed>
  <fix>3d</fix>
</trkpt>
<trkpt lat="-27.268506" lon="151.3468433">
  <ele>531.75</ele>
  <time>2026-09-01T20:01:34Z</time>
  <course>265.8</course>
  <speed>25.0</speed>
  <fix>3d</fix>
</trkpt>
<trkpt lat="-27.2685127" lon="151.3467417">
  <ele>531.64</ele>
  <time>2026-09-01T20:01:34Z</time>
  <course>265.8</course>
  <speed>24.707124478579047</speed>
  <fix>3d</fix>
</trkpt>
<trkpt lat="-27.2685093" lon="151.3467928">
  <ele>531.67</ele>
  <time>2026-09-01T20:01:34Z</time>
  <course>265.77</course>
  <speed>24.97</speed>
  <fix>3d</fix>
</trkpt>
<trkpt lat="-27.2685143" lon="151.3467169">
  <ele>531.63</ele>
  <time>2026-09-01T20:01:34Z</time>
  <course>265.8</course>
  <speed>24.47627626907328</speed>
  <fix>3d</fix>
</trkpt>
<trkpt lat="-27.2685093" lon="151.3467928">
  <ele>531.67</ele>
  <time>2026-09-01T20:01:34Z</time>
  <course>265.77</course>
  <speed>24.97</speed>
  <fix>3d</fix>
</trkpt>
<trkpt lat="-27.2685159" lon="151.3466924">
  <ele>531.63</ele>
  <time>2026-09-01T20:01:34Z</time>
  <course>265.79</course>
  <speed>24.195563642949093</speed>
  <fix>3d</fix>
</trkpt>
<trkpt lat="-27.2685126" lon="151.3467426">
  <ele>531.64</ele>
  <time>2026-09-01T20:01:34Z</time>
  <course>265.77</course>
  <speed>24.69</speed>
  <fix>3d</fix>
</trkpt>
<trkpt lat="-27.2685175" lon="151.3466681">
  <ele>531.62</ele>
  <time>2026-09-01T20:01:34Z</time>
  <course>265.79</course>
  <speed>23.874224594738152</speed>
  <fix>3d</fix>
</trkpt>
<trkpt lat="-27.2685126" lon="151.3467426">
  <ele>531.64</ele>
  <time>2026-09-01T20:01:34Z</time>
  <course>265.77</course>
  <speed>24.69</speed>
  <fix>3d</fix>
</trkpt>
<trkpt lat="-27.268519" lon="151.3466442">
  <ele>531.6</ele>
  <time>2026-09-01T20:01:34Z</time>
  <course>265.78</course>
  <speed>23.573565703982926</speed>
  <fix>3d</fix>
</trkpt>
<trkpt lat="-27.2685158" lon="151.3466934">
  <ele>531.62</ele>
  <time>2026-09-01T20:01:34Z</time>
  <course>265.77</course>
  <speed>24.19</speed>
  <fix>3d</fix>
</trkpt>
<trkpt lat="-27.2685206" lon="151.3466207">
  <ele>531.56</ele>
  <time>2026-09-01T20:01:34Z</time>
  <course>265.78</course>
  <speed>23.27217437198338</speed>
  <fix>3d</fix>
</trkpt>
<trkpt lat="-27.2685158" lon="151.3466934">
  <ele>531.62</ele>
  <time>2026-09-01T20:01:34Z</time>
  <course>265.77</course>
  <speed>24.19</speed>
  <fix>3d</fix>
</trkpt>
<trkpt lat="-27.2685221" lon="151.3465973">
  <ele>531.51</ele>
  <time>2026-09-01T20:01:34Z</time>
  <course>265.79</course>
  <speed>22.981488202464174</speed>
  <fix>3d</fix>
</trkpt>
<trkpt lat="-27.2685189" lon="151.3466452">
  <ele>531.59</ele>
  <time>2026-09-01T20:01:34Z</time>
  <course>265.78</course>
  <speed>23.58</speed>
  <fix>3d</fix>
</trkpt>
<trkpt lat="-27.2685236" lon="151.3465743">
  <ele>531.43</ele>
  <time>2026-09-01T20:01:34Z</time>
  <course>265.79</course>
  <speed>22.710748556575584</speed>
  <fix>3d</fix>
</trkpt>
<trkpt lat="-27.2685189" lon="151.3466452">
  <ele>531.59</ele>
  <time>2026-09-01T20:01:34Z</time>
  <course>265.78</course>
  <speed>23.58</speed>
  <fix>3d</fix>
</trkpt>
<trkpt lat="-27.2685251" lon="151.3465516">
  <ele>531.35</ele>
  <time>2026-09-01T20:01:34Z</time>
  <course>265.8</course>
  <speed>22.449982182620992</speed>
  <fix>3d</fix>
</trkpt>
<trkpt lat="-27.268522" lon="151.3465982">
  <ele>531.5</ele>
  <time>2026-09-01T20:01:34Z</time>
  <course>265.79</course>
  <speed>23.0</speed>
  <fix>3d</fix>
</trkpt>
<trkpt lat="-27.2685266" lon="151.3465291">
  <ele>531.25</ele>
  <time>2026-09-01T20:01:34Z</time>
  <course>265.81</course>
  <speed>22.199189174382024</speed>
  <fix>3d</fix>
</trkpt>
<trkpt lat="-27.268522" lon="151.3465982">
  <ele>531.5</ele>
  <time>2026-09-01T20:01:34Z</time>
  <course>265.79</course>
  <speed>23.0</speed>
  <fix>3d</fix>
</trkpt>
<trkpt lat="-27.268528" lon="151.3465068">
  <ele>531.14</ele>
  <time>2026-09-01T20:01:34Z</time>
  <course>265.81</course>
  <speed>21.95836970268968</speed>
  <fix>3d</fix>
</trkpt>
<trkpt lat="-27.268525" lon="151.3465524">
  <ele>531.34</ele>
  <time>2026-09-01T20:01:34Z</time>
  <course>265.8</course>
  <speed>22.46</speed>
  <fix>3d</fix>
</trkpt>
<trkpt lat="-27.2685294" lon="151.3464847">
  <ele>531.02</ele>
  <time>2026-09-01T20:01:34Z</time>
  <course>265.81</course>
  <speed>21.727524019086943</speed>
  <fix>3d</fix>
</trkpt>
<trkpt lat="-27.268525" lon="151.3465524">
  <ele>531.34</ele>
  <time>2026-09-01T20:01:34Z</time>
  <course>265.8</course>
  <speed>22.46</speed>
  <fix>3d</fix>
</trkpt>
<trkpt lat="-27.2685309" lon="151.3464631">
  <ele>530.9</ele>
  <time>2026-09-01T20:01:34Z</time>
  <course>265.82</course>
  <speed>21.507380128690713</speed>
  <fix>3d</fix>
</trkpt>
<trkpt lat="-27.2685279" lon="151.3465077">
  <ele>531.14</ele>
  <time>2026-09-01T20:01:34Z</time>
  <course>265.8</course>
  <speed>21.97</speed>
  <fix>3d</fix>
</trkpt>
<trkpt lat="-27.2685323" lon="151.3464415">
  <ele>530.77</ele>
  <time>2026-09-01T20:01:34Z</time>
  <course>265.81</course>
  <speed>21.296480929956477</speed>
  <fix>3d</fix>
</trkpt>
<trkpt lat="-27.2685279" lon="151.3465077">
  <ele>531.14</ele>
  <time>2026-09-01T20:01:34Z</time>
  <course>265.8</course>
  <speed>21.97</speed>
  <fix>3d</fix>
</trkpt>
<trkpt lat="-27.2685337" lon="151.3464201">
  <ele>530.64</ele>
  <time>2026-09-01T20:01:34Z</time>
  <course>265.81</course>
  <speed>21.086310725207483</speed>
  <fix>3d</fix>
</trkpt>
<trkpt lat="-27.2685308" lon="151.3464639">
  <ele>530.9</ele>
  <time>2026-09-01T20:01:34Z</time>
  <course>265.8</course>
  <speed>21.52</speed>
  <fix>3d</fix>
</trkpt>
<trkpt lat="-27.268535" lon="151.346399">
  <ele>530.5</ele>
  <time>2026-09-01T20:01:34Z</time>
  <course>265.81</course>
  <speed>20.88611500495006</speed>
  <fix>3d</fix>
</trkpt>
<trkpt lat="-27.2685308" lon="151.3464639">
  <ele>530.9</ele>
  <time>2026-09-01T20:01:34Z</time>
  <course>265.8</course>
  <speed>21.52</speed>
  <fix>3d</fix>
</trkpt>
<trkpt lat="-27.2685364" lon="151.3463779">
  <ele>530.36</ele>
  <time>2026-09-01T20:01:34Z</time>
  <course>265.8</course>
  <speed>20.695893312442443</speed>
  <fix>3d</fix>
</trkpt>
<trkpt lat="-27.2685336" lon="151.3464209">
  <ele>530.64</ele>
  <time>2026-09-01T20:01:34Z</time>
  <course>265.79</course>
  <speed>21.1</speed>
  <fix>3d</fix>
</trkpt>
<trkpt lat="-27.2685378" lon="151.3463573">
  <ele>530.22</ele>
  <time>2026-09-01T20:01:34Z</time>
  <course>265.8</course>
  <speed>20.504938429558866</speed>
  <fix>3d</fix>
</trkpt>
<trkpt lat="-27.2685336" lon="151.3464209">
  <ele>530.64</ele>
  <time>2026-09-01T20:01:34Z</time>
  <course>265.79</course>
  <speed>21.1</speed>
  <fix>3d</fix>
</trkpt>
<trkpt lat="-27.2685391" lon="151.3463367">
  <ele>530.07</ele>
  <time>2026-09-01T20:01:34Z</time>
  <course>265.79</course>
  <speed>20.324689419521274</speed>
  <fix>3d</fix>
</trkpt>
<trkpt lat="-27.2685363" lon="151.3463788">
  <ele>530.36</ele>
  <time>2026-09-01T20:01:34Z</time>
  <course>265.78</course>
  <speed>20.71</speed>
  <fix>3d</fix>
</trkpt>
<trkpt lat="-27.2685405" lon="151.3463162">
  <ele>529.91</ele>
  <time>2026-09-01T20:01:34Z</time>
  <course>265.79</course>
  <speed>20.15441390862061</speed>
  <fix>3d</fix>
</trkpt>
<trkpt lat="-27.2685363" lon="151.3463788">
  <ele>530.36</ele>
  <time>2026-09-01T20:01:34Z</time>
  <course>265.78</course>
  <speed>20.71</speed>
  <fix>3d</fix>
</trkpt>
<trkpt lat="-27.2685418" lon="151.3462961">
  <ele>529.76</ele>
  <time>2026-09-01T20:01:34Z</time>
  <course>265.78</course>
  <speed>19.984138710487375</speed>
  <fix>3d</fix>
</trkpt>
<trkpt lat="-27.268539" lon="151.3463373">
  <ele>530.06</ele>
  <time>2026-09-01T20:01:34Z</time>
  <course>265.77</course>
  <speed>20.34</speed>
  <fix>3d</fix>
</trkpt>
<trkpt lat="-27.2685431" lon="151.346276">
  <ele>529.6</ele>
  <time>2026-09-01T20:01:34Z</time>
  <course>265.77</course>
  <speed>19.82383666195825</speed>
  <fix>3d</fix>
</trkpt>
<trkpt lat="-27.268539" lon="151.3463373">
  <ele>530.06</ele>
  <time>2026-09-01T20:01:34Z</time>
  <course>265.77</course>
  <speed>20.34</speed>
  <fix>3d</fix>
</trkpt>
<trkpt lat="-27.2685444" lon="151.3462559">
  <ele>529.44</ele>
  <time>2026-09-01T20:01:34Z</time>
  <course>265.77</course>
  <speed>19.66353477887432</speed>
  <fix>3d</fix>
</trkpt>
<trkpt lat="-27.2685417" lon="151.3462966">
  <ele>529.76</ele>
  <time>2026-09-01T20:01:34Z</time>
  <course>265.76</course>
  <speed>19.99</speed>
  <fix>3d</fix>
</trkpt>
<trkpt lat="-27.2685457" lon="151.3462362">
  <ele>529.28</ele>
  <time>2026-09-01T20:01:34Z</time>
  <course>265.76</course>
  <speed>19.503233065315094</speed>
  <fix>3d</fix>
</trkpt>
<trkpt lat="-27.2685417" lon="151.3462966">
  <ele>529.76</ele>
  <time>2026-09-01T20:01:34Z</time>
  <course>265.76</course>
  <speed>19.99</speed>
  <fix>3d</fix>
</trkpt>
<trkpt lat="-27.268547" lon="151.3462166">
  <ele>529.11</ele>
  <time>2026-09-01T20:01:34Z</time>
  <course>265.76</course>
  <speed>19.362876852368814</speed>
  <fix>3d</fix>
</trkpt>
<trkpt lat="-27.2685443" lon="151.3462566">
  <ele>529.44</ele>
  <time>2026-09-01T20:01:34Z</time>
  <course>265.75</course>
  <speed>19.67</speed>
  <fix>3d</fix>
</trkpt>
<trkpt lat="-27.2685483" lon="151.3461972">
  <ele>528.95</ele>
  <time>2026-09-01T20:01:34Z</time>
  <course>265.75</course>
  <speed>19.21254798302401</speed>
  <fix>3d</fix>
</trkpt>
<trkpt lat="-27.2685443" lon="151.3462566">
  <ele>529.44</ele>
  <time>2026-09-01T20:01:34Z</time>
  <course>265.75</course>
  <speed>19.67</speed>
  <fix>3d</fix>
</trkpt>
<trkpt lat="-27.2685496" lon="151.3461778">
  <ele>528.78</ele>
  <time>2026-09-01T20:01:34Z</time>
  <course>265.75</course>
  <speed>19.072191798532227</speed>
  <fix>3d</fix>
</trkpt>
<trkpt lat="-27.268547" lon="151.3462173">
  <ele>529.11</ele>
  <time>2026-09-01T20:01:34Z</time>
  <course>265.74</course>
  <speed>19.37</speed>
  <fix>3d</fix>
</trkpt>
<trkpt lat="-27.2685509" lon="151.3461587">
  <ele>528.6</ele>
  <time>2026-09-01T20:01:34Z</time>
  <course>265.74</course>
  <speed>18.94254998673621</speed>
  <fix>3d</fix>
</trkpt>
<trkpt lat="-27.268547" lon="151.3462173">
  <ele>529.11</ele>
  <time>2026-09-01T20:01:34Z</time>
  <course>265.74</course>
  <speed>19.37</speed>
  <fix>3d</fix>
</trkpt>
<trkpt lat="-27.2685521" lon="151.3461396">
  <ele>528.43</ele>
  <time>2026-09-01T20:01:34Z</time>
  <course>265.74</course>
  <speed>18.812166276109725</speed>
  <fix>3d</fix>
</trkpt>
<trkpt lat="-27.2685495" lon="151.3461786">
  <ele>528.78</ele>
  <time>2026-09-01T20:01:34Z</time>
  <course>265.73</course>
  <speed>19.08</speed>
  <fix>3d</fix>
</trkpt>
<trkpt lat="-27.2685534" lon="151.3461208">
  <ele>528.25</ele>
  <time>2026-09-01T20:01:34Z</time>
  <course>265.73</course>
  <speed>18.681782570193885</speed>
  <fix>3d</fix>
</trkpt>
<trkpt lat="-27.2685495" lon="151.3461786">
  <ele>528.78</ele>
  <time>2026-09-01T20:01:34Z</time>
  <course>265.73</course>
  <speed>19.08</speed>
  <fix>3d</fix>
</trkpt>
<trkpt lat="-27.2685546" lon="151.3461021">
  <ele>528.08</ele>
  <time>2026-09-01T20:01:34Z</time>
  <course>265.73</course>
  <speed>18.56137117779826</speed>
  <fix>3d</fix>
</trkpt>
<trkpt lat="-27.2685521" lon="151.3461404">
  <ele>528.43</ele>
  <time>2026-09-01T20:01:34Z</time>
  <course>265.72</course>
  <speed>18.82</speed>
  <fix>3d</fix>
</trkpt>
<trkpt lat="-27.2685559" lon="151.3460834">
  <ele>527.9</ele>
  <time>2026-09-01T20:01:34Z</time>
  <course>265.72</course>
  <speed>18.44170545258762</speed>
  <fix>3d</fix>
</trkpt>
<trkpt lat="-27.2685521" lon="151.3461404">
  <ele>528.43</ele>
  <time>2026-09-01T20:01:34Z</time>
  <course>265.72</course>
  <speed>18.82</speed>
  <fix>3d</fix>
</trkpt>
<trkpt lat="-27.2685571" lon="151.3460648">
  <ele>527.72</ele>
  <time>2026-09-01T20:01:34Z</time>
  <course>265.72</course>
  <speed>18.32129362244926</speed>
  <fix>3d</fix>
</trkpt>
<trkpt lat="-27.2685546" lon="151.3461027">
  <ele>528.08</ele>
  <time>2026-09-01T20:01:34Z</time>
  <course>265.71</course>
  <speed>18.56</speed>
  <fix>3d</fix>
</trkpt>
<trkpt lat="-27.2685584" lon="151.3460465">
  <ele>527.53</ele>
  <time>2026-09-01T20:01:34Z</time>
  <course>265.71</course>
  <speed>18.210853906393297</speed>
  <fix>3d</fix>
</trkpt>
<trkpt lat="-27.2685546" lon="151.3461027">
  <ele>528.08</ele>
  <time>2026-09-01T20:01:34Z</time>
  <course>265.71</course>
  <speed>18.56</speed>
  <fix>3d</fix>
</trkpt>
<trkpt lat="-27.2685596" lon="151.3460282">
  <ele>527.35</ele>
  <time>2026-09-01T20:01:34Z</time>
  <course>265.71</course>
  <speed>18.100414359897954</speed>
  <fix>3d</fix>
</trkpt>
<trkpt lat="-27.2685571" lon="151.3460655">
  <ele>527.72</ele>
  <time>2026-09-01T20:01:34Z</time>
  <course>265.7</course>
  <speed>18.33</speed>
  <fix>3d</fix>
</trkpt>
<trkpt lat="-27.2685608" lon="151.34601">
  <ele>527.16</ele>
  <time>2026-09-01T20:01:34Z</time>
  <course>265.7</course>
  <speed>17.990722609167204</speed>
  <fix>3d</fix>
</trkpt>
<trkpt lat="-27.2685571" lon="151.3460655">
  <ele>527.72</ele>
  <time>2026-09-01T20:01:34Z</time>
  <course>265.7</course>
  <speed>18.33</speed>
  <fix>3d</fix>
</trkpt>
<trkpt lat="-27.268562" lon="151.345992">
  <ele>526.98</ele>
  <time>2026-09-01T20:01:34Z</time>
  <course>265.7</course>
  <speed>17.890254330221243</speed>
  <fix>3d</fix>
</trkpt>
<trkpt lat="-27.2685595" lon="151.3460288">
  <ele>527.35</ele>
  <time>2026-09-01T20:01:34Z</time>
  <course>265.69</course>
  <speed>18.11</speed>
  <fix>3d</fix>
</trkpt>
<trkpt lat="-27.2685632" lon="151.3459739">
  <ele>526.79</ele>
  <time>2026-09-01T20:01:34Z</time>
  <course>265.69</course>
  <speed>17.790536810338242</speed>
  <fix>3d</fix>
</trkpt>
<trkpt lat="-27.2685595" lon="151.3460288">
  <ele>527.35</ele>
  <time>2026-09-01T20:01:34Z</time>
  <course>265.69</course>
  <speed>18.11</speed>
  <fix>3d</fix>
</trkpt>
<trkpt lat="-27.2685644" lon="151.3459561">
  <ele>526.6</ele>
  <time>2026-09-01T20:01:34Z</time>
  <course>265.69</course>
  <speed>17.690067834804932</speed>
  <fix>3d</fix>
</trkpt>
<trkpt lat="-27.268562" lon="151.3459926">
  <ele>526.98</ele>
  <time>2026-09-01T20:01:34Z</time>
  <course>265.68</course>
  <speed>17.9</speed>
  <fix>3d</fix>
</trkpt>
<trkpt lat="-27.2685656" lon="151.3459383">
  <ele>526.41</ele>
  <time>2026-09-01T20:01:34Z</time>
  <course>265.68</course>
  <speed>17.59957101749926</speed>
  <fix>3d</fix>
</trkpt>
<trkpt lat="-27.268562" lon="151.3459926">
  <ele>526.98</ele>
  <time>2026-09-01T20:01:34Z</time>
  <course>265.68</course>
  <speed>17.9</speed>
  <fix>3d</fix>
</trkpt>
<trkpt lat="-27.2685668" lon="151.3459206">
  <ele>526.22</ele>
  <time>2026-09-01T20:01:34Z</time>
  <course>265.68</course>
  <speed>17.50982581295428</speed>
  <fix>3d</fix>
</trkpt>
<trkpt lat="-27.2685644" lon="151.3459566">
  <ele>526.6</ele>
  <time>2026-09-01T20:01:34Z</time>
  <course>265.67</course>
  <speed>17.7</speed>
  <fix>3d</fix>
</trkpt>
<trkpt lat="-27.268568" lon="151.345903">
  <ele>526.03</ele>
  <time>2026-09-01T20:01:34Z</time>
  <course>265.67</course>
  <speed>17.419328345260617</speed>
  <fix>3d</fix>
</trkpt>
<trkpt lat="-27.2685644" lon="151.3459566">
  <ele>526.6</ele>
  <time>2026-09-01T20:01:34Z</time>
  <course>265.67</course>
  <speed>17.7</speed>
  <fix>3d</fix>
</trkpt>
<trkpt lat="-27.2685692" lon="151.3458854">
  <ele>525.83</ele>
  <time>2026-09-01T20:01:34Z</time>
  <course>265.67</course>
  <speed>17.329584530507358</speed>
  <fix>3d</fix>
</trkpt>
<trkpt lat="-27.2685668" lon="151.3459211">
  <ele>526.22</ele>
  <time>2026-09-01T20:01:34Z</time>
  <course>265.66</course>
  <speed>17.51</speed>
  <fix>3d</fix>
</trkpt>
<trkpt lat="-27.2685704" lon="151.3458681">
  <ele>525.64</ele>
  <time>2026-09-01T20:01:35Z</time>
  <course>265.66</course>
  <speed>17.24905794529081</speed>
  <fix>3d</fix>
</trkpt>
<trkpt lat="-27.2685668" lon="151.3459211">
  <ele>526.22</ele>
  <time>2026-09-01T20:01:35Z</time>
  <course>265.66</course>
  <speed>17.51</speed>
  <fix>3d</fix>
</trkpt>
<trkpt lat="-27.2667712" lon="151.3499494">
  <ele>542.95</ele>
  <time>2026-09-01T20:01:35Z</time>
  <course>250.01</course>
  <speed>0.01</speed>
  <fix>3d</fix>
</trkpt>
<trkpt lat="-27.2685691" lon="151.345886">
  <ele>525.83</ele>
  <time>2026-09-01T20:01:35Z</time>
  <course>265.65</course>
  <speed>17.34</speed>
  <fix>3d</fix>
</trkpt>
<trkpt lat="-27.2667712" lon="151.3499494">
  <ele>542.82</ele>
  <time>2026-09-01T20:01:35Z</time>
  <course>249.99</course>
  <speed>0.07280109889280519</speed>
  <fix>3d</fix>
</trkpt>
<trkpt lat="-27.2685691" lon="151.345886">
  <ele>525.83</ele>
  <time>2026-09-01T20:01:35Z</time>
  <course>265.65</course>
  <speed>17.34</speed>
  <fix>3d</fix>
</trkpt>
<trkpt lat="-27.2667712" lon="151.3499493">
  <ele>542.59</ele>
  <time>2026-09-01T20:01:35Z</time>
  <course>249.95</course>
  <speed>0.22472205054244232</speed>
  <fix>3d</fix>
</trkpt>
<trkpt lat="-27.2676707" lon="151.3479089">
  <ele>534.23</ele>
  <time>2026-09-01T20:01:35Z</time>
  <course>265.58</course>
  <speed>8.66</speed>
  <fix>3d</fix>
</trkpt>
<trkpt lat="-27.2667713" lon="151.3499489">
  <ele>542.27</ele>
  <time>2026-09-01T20:01:35Z</time>
  <course>250.39</course>
  <speed>0.4712748667179272</speed>
  <fix>3d</fix>
</trkpt>
<trkpt lat="-27.2676707" lon="151.3479089">
  <ele>534.23</ele>
  <time>2026-09-01T20:01:35Z</time>
  <course>265.58</course>
  <speed>8.66</speed>
  <fix>3d</fix>
</trkpt>
<trkpt lat="-27.2667714" lon="151.3499484">
  <ele>541.88</ele>
  <time>2026-09-01T20:01:35Z</time>
  <course>253.51</course>
  <speed>0.7863841300535</speed>
  <fix>3d</fix>
</trkpt>
<trkpt lat="-27.2667712" lon="151.3499492">
  <ele>542.56</ele>
  <time>2026-09-01T20:01:35Z</time>
  <course>251.39</course>
  <speed>0.26</speed>
  <fix>3d</fix>
</trkpt>
<trkpt lat="-27.2667715" lon="151.3499474">
  <ele>541.43</ele>
  <time>2026-09-01T20:01:35Z</time>
  <course>262.86</course>
  <speed>1.1403946685248927</speed>
  <fix>3d</fix>
</trkpt>
<trkpt lat="-27.2667712" lon="151.3499492">
  <ele>542.56</ele>
  <time>2026-09-01T20:01:35Z</time>
  <course>251.39</course>
  <speed>0.26</speed>
  <fix>3d</fix>
</trkpt>
<trkpt lat="-27.2667717" lon="151.349946">
  <ele>540.89</ele>
  <time>2026-09-01T20:01:35Z</time>
  <course>263.59</course>
  <speed>1.5747063218263906</speed>
  <fix>3d</fix>
</trkpt>
<trkpt lat="-27.2667713" lon="151.3499482">
  <ele>541.87</ele>
  <time>2026-09-01T20:01:35Z</time>
  <course>263.52</course>
  <speed>0.79</speed>
  <fix>3d</fix>
</trkpt>
<trkpt lat="-27.2667729" lon="151.3499446">
  <ele>540.31</ele>
  <time>2026-09-01T20:01:35Z</time>
  <course>251.96</course>
  <speed>2.9362561196189954</speed>
  <fix>3d</fix>
</trkpt>
<trkpt lat="-27.2667713" lon="151.3499482">
  <ele>541.87</ele>
  <time>2026-09-01T20:01:35Z</time>
  <course>263.52</course>
  <speed>0.79</speed>
  <fix>3d</fix>
</trkpt>
<trkpt lat="-27.266776" lon="151.3499431">
  <ele>539.75</ele>
  <time>2026-09-01T20:01:35Z</time>
  <course>243.66</course>
  <speed>4.465176368297225</speed>
  <fix>3d</fix>
</trkpt>
<trkpt lat="-27.2667722" lon="151.349946">
  <ele>540.89</ele>
  <time>2026-09-01T20:01:35Z</time>
  <course>227.4</course>
  <speed>1.82</speed>
  <fix>3d</fix>
</trkpt>
<trkpt lat="-27.2667804" lon="151.3499417">
  <ele>539.24</ele>
  <time>2026-09-01T20:01:35Z</time>
  <course>237.65</course>
  <speed>5.7752315970876875</speed>
  <fix>3d</fix>
</trkpt>
<trkpt lat="-27.2667722" lon="151.349946">
  <ele>540.89</ele>
  <time>2026-09-01T20:01:35Z</time>
  <course>227.4</course>
  <speed>1.82</speed>
  <fix>3d</fix>
</trkpt>
<trkpt lat="-27.266786" lon="151.3499403">
  <ele>538.82</ele>
  <time>2026-09-01T20:01:35Z</time>
  <course>232.89</course>
  <speed>6.828835918368518</speed>
  <fix>3d</fix>
</trkpt>
<trkpt lat="-27.2667766" lon="151.3499432">
  <ele>539.79</ele>
  <time>2026-09-01T20:01:35Z</time>
  <course>199.79</course>
  <speed>4.26</speed>
  <fix>3d</fix>
</trkpt>
<trkpt lat="-27.2667924" lon="151.3499388">
  <ele>538.5</ele>
  <time>2026-09-01T20:01:35Z</time>
  <course>229.34</course>
  <speed>7.5972626649339965</speed>
  <fix>3d</fix>
</trkpt>
<trkpt lat="-27.2667766" lon="151.3499432">
  <ele>539.79</ele>
  <time>2026-09-01T20:01:35Z</time>
  <course>199.79</course>
  <speed>4.26</speed>
  <fix>3d</fix>
</trkpt>
<trkpt lat="-27.2667992" lon="151.3499368">
  <ele>538.31</ele>
  <time>2026-09-01T20:01:35Z</time>
  <course>226.85</course>
  <speed>8.070848778164537</speed>
  <fix>3d</fix>
</trkpt>
<trkpt lat="-27.2667862" lon="151.3499403">
  <ele>538.88</ele>
  <time>2026-09-01T20:01:35Z</time>
  <course>193.21</course>
  <speed>6.66</speed>
  <fix>3d</fix>
</trkpt>
<trkpt lat="-27.2668061" lon="151.3499338">
  <ele>538.21</ele>
  <time>2026-09-01T20:01:35Z</time>
  <course>225.38</course>
  <speed>8.400029761852037</speed>
  <fix>3d</fix>
</trkpt>
<trkpt lat="-27.2667862" lon="151.3499403">
  <ele>538.88</ele>
  <time>2026-09-01T20:01:35Z</time>
  <course>193.21</course>
  <speed>6.66</speed>
  <fix>3d</fix>
</trkpt>
<trkpt lat="-27.266813" lon="151.3499299">
  <ele>538.16</ele>
  <time>2026-09-01T20:01:35Z</time>
  <course>224.99</course>
  <speed>8.735817076839464</speed>
  <fix>3d</fix>
</trkpt>
<trkpt lat="-27.266799" lon="151.3499364">
  <ele>538.36</ele>
  <time>2026-09-01T20:01:35Z</time>
  <course>198.54</course>
  <speed>7.95</speed>
  <fix>3d</fix>
</trkpt>
<trkpt lat="-27.2668197" lon="151.3499249">
  <ele>538.14</ele>
  <time>2026-09-01T20:01:35Z</time>
  <course>225.79</course>
  <speed>9.11969845992728</speed>
  <fix>3d</fix>
</trkpt>
<trkpt lat="-27.266799" lon="151.3499364">
  <ele>538.36</ele>
  <time>2026-09-01T20:01:35Z</time>
  <course>198.54</course>
  <speed>7.95</speed>
  <fix>3d</fix>
</trkpt>
<trkpt lat="-27.2668263" lon="151.3499191">
  <ele>538.11</ele>
  <time>2026-09-01T20:01:35Z</time>
  <course>227.58</course>
  <speed>9.56249444444283</speed>
  <fix>3d</fix>
</trkpt>
<trkpt lat="-27.2668127" lon="151.3499296">
  <ele>538.17</ele>
  <time>2026-09-01T20:01:35Z</time>
  <course>209.81</course>
  <speed>8.7</speed>
  <fix>3d</fix>
</trkpt>
<trkpt lat="-27.2668327" lon="151.3499123">
  <ele>538.07</ele>
  <time>2026-09-01T20:01:35Z</time>
  <course>230.05</course>
  <speed>10.055694903884067</speed>
  <fix>3d</fix>
</trkpt>
<trkpt lat="-27.2668127" lon="151.3499296">
  <ele>538.17</ele>
  <time>2026-09-01T20:01:35Z</time>
  <course>209.81</course>
  <speed>8.7</speed>
  <fix>3d</fix>
</trkpt>
<trkpt lat="-27.2668389" lon="151.3499046">
  <ele>538.02</ele>
  <time>2026-09-01T20:01:35Z</time>
  <course>232.92</course>
  <speed>10.568259080851492</speed>
  <fix>3d</fix>
</trkpt>
<trkpt lat="-27.266826" lon="151.3499188">
  <ele>538.11</ele>
  <time>2026-09-01T20:01:35Z</time>
  <course>220.81</course>
  <speed>9.54</speed>
  <fix>3d</fix>
</trkpt>
<trkpt lat="-27.2668449" lon="151.349896">
  <ele>537.94</ele>
  <time>2026-09-01T20:01:35Z</time>
  <course>235.97</course>
  <speed>11.109095372711497</speed>
  <fix>3d</fix>
</trkpt>
<trkpt lat="-27.266826" lon="151.3499188">
  <ele>538.11</ele>
  <time>2026-09-01T20:01:35Z</time>
  <course>220.81</course>
  <speed>9.54</speed>
  <fix>3d</fix>
</trkpt>
<trkpt lat="-27.2668508" lon="151.3498861">
  <ele>537.84</ele>
  <time>2026-09-01T20:01:35Z</time>
  <course>239.02</course>
  <speed>11.671752224923214</speed>
  <fix>3d</fix>
</trkpt>
<trkpt lat="-27.2668386" lon="151.3499043">
  <ele>538.01</ele>
  <time>2026-09-01T20:01:35Z</time>
  <course>229.87</course>
  <speed>10.54</speed>
  <fix>3d</fix>
</trkpt>
<trkpt lat="-27.2668563" lon="151.3498756">
  <ele>537.73</ele>
  <time>2026-09-01T20:01:35Z</time>
  <course>241.62</course>
  <speed>12.21401244472921</speed>
  <fix>3d</fix>
</trkpt>
<trkpt lat="-27.2668386" lon="151.3499043">
  <ele>538.01</ele>
  <time>2026-09-01T20:01:35Z</time>
  <course>229.87</course>
  <speed>10.54</speed>
  <fix>3d</fix>
</trkpt>
<trkpt lat="-27.2668614" lon="151.3498645">
  <ele>537.61</ele>
  <time>2026-09-01T20:01:35Z</time>
  <course>244.02</course>
  <speed>12.765594384908209</speed>
  <fix>3d</fix>
</trkpt>
<trkpt lat="-27.2668503" lon="151.3498862">
  <ele>537.83</ele>
  <time>2026-09-01T20:01:35Z</time>
  <course>237.55</course>
  <speed>11.62</speed>
  <fix>3d</fix>
</trkpt>
<trkpt lat="-27.2668661" lon="151.3498524">
  <ele>537.49</ele>
  <time>2026-09-01T20:01:35Z</time>
  <course>246.34</course>
  <speed>13.307757136347206</speed>
  <fix>3d</fix>
</trkpt>
<trkpt lat="-27.2668503" lon="151.3498862">
  <ele>537.83</ele>
  <time>2026-09-01T20:01:35Z</time>
  <course>237.55</course>
  <speed>11.62</speed>
  <fix>3d</fix>
</trkpt>
<trkpt lat="-27.2668705" lon="151.3498396">
  <ele>537.37</ele>
  <time>2026-09-01T20:01:35Z</time>
  <course>248.43</course>
  <speed>13.840924824591744</speed>
  <fix>3d</fix>
</trkpt>
<trkpt lat="-27.2668609" lon="151.3498647">
  <ele>537.62</ele>
  <time>2026-09-01T20:01:35Z</time>
  <course>244.32</course>
  <speed>12.71</speed>
  <fix>3d</fix>
</trkpt>
<trkpt lat="-27.2668745" lon="151.3498261">
  <ele>537.26</ele>
  <time>2026-09-01T20:01:35Z</time>
  <course>250.48</course>
  <speed>14.370514952499093</speed>
  <fix>3d</fix>
</trkpt>
<trkpt lat="-27.2668609" lon="151.3498647">
  <ele>537.62</ele>
  <time>2026-09-01T20:01:35Z</time>
  <course>244.32</course>
  <speed>12.71</speed>
  <fix>3d</fix>
</trkpt>
<trkpt lat="-27.2668781" lon="151.3498119">
  <ele>537.15</ele>
  <time>2026-09-01T20:01:35Z</time>
  <course>252.52</course>
  <speed>14.87818873384795</speed>
  <fix>3d</fix>
</trkpt>
<trkpt lat="-27.2668701" lon="151.34984">
  <ele>537.38</ele>
  <time>2026-09-01T20:01:35Z</time>
  <course>250.2</course>
  <speed>13.79</speed>
  <fix>3d</fix>
</trkpt>
<trkpt lat="-27.2668813" lon="151.349797">
  <ele>537.04</ele>
  <time>2026-09-01T20:01:35Z</time>
  <course>254.52</course>
  <speed>15.381472621306452</speed>
  <fix>3d</fix>
</trkpt>
<trkpt lat="-27.2668701" lon="151.34984">
  <ele>537.38</ele>
  <time>2026-09-01T20:01:35Z</time>
  <course>250.2</course>
  <speed>13.79</speed>
  <fix>3d</fix>
</trkpt>
<trkpt lat="-27.2668841" lon="151.3497816">
  <ele>536.96</ele>
  <time>2026-09-01T20:01:35Z</time>
  <course>256.53</course>
  <speed>15.876476309307428</speed>
  <fix>3d</fix>
</trkpt>
<trkpt lat="-27.2668777" lon="151.3498124">
  <ele>537.15</ele>
  <time>2026-09-01T20:01:35Z</time>
  <course>255.09</course>
  <speed>14.84</speed>
  <fix>3d</fix>
</trkpt>
<trkpt lat="-27.2668866" lon="151.3497655">
  <ele>536.88</ele>
  <time>2026-09-01T20:01:35Z</time>
  <course>258.36</course>
  <speed>16.356848718503205</speed>
  <fix>3d</fix>
</trkpt>
<trkpt lat="-27.2668777" lon="151.3498124">
  <ele>537.15</ele>
  <time>2026-09-01T20:01:35Z</time>
  <course>255.09</course>
  <speed>14.84</speed>
  <fix>3d</fix>
</trkpt>
<trkpt lat="-27.2668887" lon="151.3497488">
  <ele>536.81</ele>
  <time>2026-09-01T20:01:35Z</time>
  <course>260.03</course>
  <speed>16.824104731010205</speed>
  <fix>3d</fix>
</trkpt>
<trkpt lat="-27.2668838" lon="151.3497822">
  <ele>536.96</ele>
  <time>2026-09-01T20:01:35Z</time>
  <course>259.16</course>
  <speed>15.83</speed>
  <fix>3d</fix>
</trkpt>
<trkpt lat="-27.2668904" lon="151.3497318">
  <ele>536.75</ele>
  <time>2026-09-01T20:01:35Z</time>
  <course>261.68</course>
  <speed>17.275835725081436</speed>
  <fix>3d</fix>
</trkpt>
<trkpt lat="-27.2668838" lon="151.3497822">
  <ele>536.96</ele>
  <time>2026-09-01T20:01:35Z</time>
  <course>259.16</course>
  <speed>15.83</speed>
  <fix>3d</fix>
</trkpt>
<trkpt lat="-27.2668918" lon="151.3497142">
  <ele>536.71</ele>
  <time>2026-09-01T20:01:35Z</time>
  <course>263.17</course>
  <speed>17.71001129305117</speed>
  <fix>3d</fix>
</trkpt>
<trkpt lat="-27.2668884" lon="151.3497496">
  <ele>536.81</ele>
  <time>2026-09-01T20:01:35Z</time>
  <course>262.62</course>
  <speed>16.78</speed>
  <fix>3d</fix>
</trkpt>
<trkpt lat="-27.2668928" lon="151.3496965">
  <ele>536.69</ele>
  <time>2026-09-01T20:01:35Z</time>
  <course>264.46</course>
  <speed>18.115987414435903</speed>
  <fix>3d</fix>
</trkpt>
<trkpt lat="-27.2668884" lon="151.3497496">
  <ele>536.81</ele>
  <time>2026-09-01T20:01:35Z</time>
  <course>262.62</course>
  <speed>16.78</speed>
  <fix>3d</fix>
</trkpt>
<trkpt lat="-27.2668935" lon="151.3496779">
  <ele>536.68</ele>
  <time>2026-09-01T20:01:35Z</time>
  <course>265.68</course>
  <speed>18.530375063662365</speed>
  <fix>3d</fix>
</trkpt>
<trkpt lat="-27.2668915" lon="151.349715">
  <ele>536.72</ele>
  <time>2026-09-01T20:01:35Z</time>
  <course>265.55</course>
  <speed>17.67</speed>
  <fix>3d</fix>
</trkpt>
<trkpt lat="-27.2668939" lon="151.3496591">
  <ele>536.68</ele>
  <time>2026-09-01T20:01:35Z</time>
  <course>266.78</course>
  <speed>18.922071768175915</speed>
  <fix>3d</fix>
</trkpt>
<trkpt lat="-27.2668915" lon="151.349715">
  <ele>536.72</ele>
  <time>2026-09-01T20:01:35Z</time>
  <course>265.55</course>
  <speed>17.67</speed>
  <fix>3d</fix>
</trkpt>
<trkpt lat="-27.266894" lon="151.3496398">
  <ele>536.7</ele>
  <time>2026-09-01T20:01:35Z</time>
  <course>267.87</course>
  <speed>19.290023328135195</speed>
  <fix>3d</fix>
</trkpt>
<trkpt lat="-27.2668933" lon="151.3496784">
  <ele>536.68</ele>
  <time>2026-09-01T20:01:35Z</time>
  <course>268.01</course>
  <speed>18.5</speed>
  <fix>3d</fix>
</trkpt>
<trkpt lat="-27.2668939" lon="151.34962">
  <ele>536.74</ele>
  <time>2026-09-01T20:01:35Z</time>
  <course>268.82</course>
  <speed>19.652605425235606</speed>
  <fix>3d</fix>
</trkpt>
<trkpt lat="-27.2668933" lon="151.3496784">
  <ele>536.68</ele>
  <time>2026-09-01T20:01:35Z</time>
  <course>268.01</course>
  <speed>18.5</speed>
  <fix>3d</fix>
</trkpt>
<trkpt lat="-27.2668935" lon="151.3496001">
  <ele>536.79</ele>
  <time>2026-09-01T20:01:35Z</time>
  <course>269.71</course>
  <speed>20.008997975910738</speed>
  <fix>3d</fix>
</trkpt>
<trkpt lat="-27.2668939" lon="151.3496401">
  <ele>536.7</ele>
  <time>2026-09-01T20:01:35Z</time>
  <course>270.04</course>
  <speed>19.28</speed>
  <fix>3d</fix>
</trkpt>
<trkpt lat="-27.2668929" lon="151.3495797">
  <ele>536.85</ele>
  <time>2026-09-01T20:01:35Z</time>
  <course>270.56</course>
  <speed>20.347761547649412</speed>
  <fix>3d</fix>
</trkpt>
<trkpt lat="-27.2668939" lon="151.3496401">
  <ele>536.7</ele>
  <time>2026-09-01T20:01:35Z</time>
  <course>270.04</course>
  <speed>19.28</speed>
  <fix>3d</fix>
</trkpt>
<trkpt lat="-27.266892" lon="151.349559">
  <ele>536.91</ele>
  <time>2026-09-01T20:01:35Z</time>
  <course>271.23</course>
  <speed>20.658250167911124</speed>
  <fix>3d</fix>
</trkpt>
<trkpt lat="-27.2668934" lon="151.3496003">
  <ele>536.79</ele>
  <time>2026-09-01T20:01:35Z</time>
  <course>271.68</course>
  <speed>19.99</speed>
  <fix>3d</fix>
</trkpt>
<trkpt lat="-27.2668909" lon="151.3495372">
  <ele>537.0</ele>
  <time>2026-09-01T20:01:35Z</time>
  <course>271.81</course>
  <speed>20.95037231172754</speed>
  <fix>3d</fix>
</trkpt>
<trkpt lat="-27.2668934" lon="151.3496003">
  <ele>536.79</ele>
  <time>2026-09-01T20:01:35Z</time>
  <course>271.68</course>
  <speed>19.99</speed>
  <fix>3d</fix>
</trkpt>
<trkpt lat="-27.2668896" lon="151.3495161">
  <ele>537.08</ele>
  <time>2026-09-01T20:01:35Z</time>
  <course>272.26</course>
  <speed>21.19174367530902</speed>
  <fix>3d</fix>
</trkpt>
<trkpt lat="-27.2668919" lon="151.3495593">
  <ele>536.92</ele>
  <time>2026-09-01T20:01:35Z</time>
  <course>272.98</course>
  <speed>20.64</speed>
  <fix>3d</fix>
</trkpt>
<trkpt lat="-27.2668882" lon="151.3494945">
  <ele>537.15</ele>
  <time>2026-09-01T20:01:35Z</time>
  <course>272.65</course>
  <speed>21.41213207506436</speed>
  <fix>3d</fix>
</trkpt>
<trkpt lat="-27.2668919" lon="151.3495593">
  <ele>536.92</ele>
  <time>2026-09-01T20:01:35Z</time>
  <course>272.98</course>
  <speed>20.64</speed>
  <fix>3d</fix>
</trkpt>
<trkpt lat="-27.2668867" lon="151.3494729">
  <ele>537.21</ele>
  <time>2026-09-01T20:01:35Z</time>
  <course>272.97</course>
  <speed>21.6018170532018</speed>
  <fix>3d</fix>
</trkpt>
<trkpt lat="-27.2668896" lon="151.3495172">
  <ele>537.07</ele>
  <time>2026-09-01T20:01:35Z</time>
  <course>273.96</course>
  <speed>21.17</speed>
  <fix>3d</fix>
</trkpt>
<trkpt lat="-27.2668851" lon="151.349451">
  <ele>537.25</ele>
  <time>2026-09-01T20:01:35Z</time>
  <course>273.27</course>
  <speed>21.75964154116515</speed>
  <fix>3d</fix>
</trkpt>
<trkpt lat="-27.2668896" lon="151.3495172">
  <ele>537.07</ele>
  <time>2026-09-01T20:01:35Z</time>
  <course>273.96</course>
  <speed>21.17</speed>
  <fix>3d</fix>
</trkpt>
<trkpt lat="-27.2668833" lon="151.349429">
  <ele>537.28</ele>
  <time>2026-09-01T20:01:35Z</time>
  <course>273.59</course>
  <speed>21.896111526935552</speed>
  <fix>3d</fix>
</trkpt>
<trkpt lat="-27.2668867" lon="151.3494741">
  <ele>537.2</ele>
  <time>2026-09-01T20:01:35Z</time>
  <course>274.63</course>
  <speed>21.58</speed>
  <fix>3d</fix>
</trkpt>
<trkpt lat="-27.2668816" lon="151.3494069">
  <ele>537.29</ele>
  <time>2026-09-01T20:01:35Z</time>
  <course>273.86</course>
  <speed>22.00200445414008</speed>
  <fix>3d</fix>
</trkpt>
<trkpt lat="-27.2668867" lon="151.3494741">
  <ele>537.2</ele>
  <time>2026-09-01T20:01:35Z</time>
  <course>274.63</course>
  <speed>21.58</speed>
  <fix>3d</fix>
</trkpt>
<trkpt lat="-27.2668797" lon="151.3493849">
  <ele>537.28</ele>
  <time>2026-09-01T20:01:35Z</time>
  <course>274.13</course>
  <speed>22.06730160214429</speed>
  <fix>3d</fix>
</trkpt>
<trkpt lat="-27.2668834" lon="151.3494303">
  <ele>537.27</ele>
  <time>2026-09-01T20:01:35Z</time>
  <course>275.07</course>
  <speed>21.87</speed>
  <fix>3d</fix>
</trkpt>
<trkpt lat="-27.2668778" lon="151.3493626">
  <ele>537.25</ele>
  <time>2026-09-01T20:01:35Z</time>
  <course>274.32</course>
  <speed>22.13177128022066</speed>
  <fix>3d</fix>
</trkpt>
<trkpt lat="-27.2668834" lon="151.3494303">
  <ele>537.27</ele>
  <time>2026-09-01T20:01:35Z</time>
  <course>275.07</course>
  <speed>21.87</speed>
  <fix>3d</fix>
</trkpt>
<trkpt lat="-27.2668759" lon="151.3493404">
  <ele>537.21</ele>
  <time>2026-09-01T20:01:35Z</time>
  <course>274.56</course>
  <speed>22.17544813526888</speed>
  <fix>3d</fix>
</trkpt>
<trkpt lat="-27.2668798" lon="151.3493861">
  <ele>537.27</ele>
  <time>2026-09-01T20:01:35Z</time>
  <course>275.38</course>
  <speed>22.06</speed>
  <fix>3d</fix>
</trkpt>
<trkpt lat="-27.2668739" lon="151.3493181">
  <ele>537.16</ele>
  <time>2026-09-01T20:01:35Z</time>
  <course>274.78</course>
  <speed>22.19829272714458</speed>
  <fix>3d</fix>
</trkpt>
<trkpt lat="-27.2668798" lon="151.3493861">
  <ele>537.27</ele>
  <time>2026-09-01T20:01:35Z</time>
  <course>275.38</course>
  <speed>22.06</speed>
  <fix>3d</fix>
</trkpt>
<trkpt lat="-27.266872" lon="151.3492957">
  <ele>537.09</ele>
  <time>2026-09-01T20:01:35Z</time>
  <course>274.98</course>
  <speed>22.22017551685855</speed>
  <fix>3d</fix>
</trkpt>
<trkpt lat="-27.2668759" lon="151.3493416">
  <ele>537.2</ele>
  <time>2026-09-01T20:01:35Z</time>
  <course>275.58</course>
  <speed>22.16</speed>
  <fix>3d</fix>
</trkpt>
<trkpt lat="-27.26687" lon="151.3492733">
  <ele>537.01</ele>
  <time>2026-09-01T20:01:35Z</time>
  <course>275.14</course>
  <speed>22.25202237999953</speed>
  <fix>3d</fix>
</trkpt>
<trkpt lat="-27.2668759" lon="151.3493416">
  <ele>537.2</ele>
  <time>2026-09-01T20:01:35Z</time>
  <course>275.58</course>
  <speed>22.16</speed>
  <fix>3d</fix>
</trkpt>
<trkpt lat="-27.266868" lon="151.3492509">
  <ele>536.93</ele>
  <time>2026-09-01T20:01:35Z</time>
  <course>275.22</course>
  <speed>22.27292526813665</speed>
  <fix>3d</fix>
</trkpt>
<trkpt lat="-27.2668721" lon="151.349297">
  <ele>537.08</ele>
  <time>2026-09-01T20:01:35Z</time>
  <course>275.71</course>
  <speed>22.22</speed>
  <fix>3d</fix>
</trkpt>
<trkpt lat="-27.2668659" lon="151.3492286">
  <ele>536.84</ele>
  <time>2026-09-01T20:01:35Z</time>
  <course>275.31</course>
  <speed>22.30377994869928</speed>
  <fix>3d</fix>
</trkpt>
<trkpt lat="-27.2668721" lon="151.349297">
  <ele>537.08</ele>
  <time>2026-09-01T20:01:35Z</time>
  <course>275.71</course>
  <speed>22.22</speed>
  <fix>3d</fix>
</trkpt>
<trkpt lat="-27.2668639" lon="151.3492062">
  <ele>536.75</ele>
  <time>2026-09-01T20:01:35Z</time>
  <course>275.4</course>
  <speed>22.333627112495634</speed>
  <fix>3d</fix>
</trkpt>
<trkpt lat="-27.266868" lon="151.3492523">
  <ele>536.93</ele>
  <time>2026-09-01T20:01:35Z</time>
  <course>275.78</course>
  <speed>22.27</speed>
  <fix>3d</fix>
</trkpt>
<trkpt lat="-27.2668619" lon="151.3491837">
  <ele>536.66</ele>
  <time>2026-09-01T20:01:35Z</time>
  <course>275.46</course>
  <speed>22.362470793720444</speed>
  <fix>3d</fix>
</trkpt>
<trkpt lat="-27.266868" lon="151.3492523">
  <ele>536.93</ele>
  <time>2026-09-01T20:01:35Z</time>
  <course>275.78</course>
  <speed>22.27</speed>
  <fix>3d</fix>
</trkpt>
<trkpt lat="-27.2668599" lon="151.3491612">
  <ele>536.57</ele>
  <time>2026-09-01T20:01:35Z</time>
  <course>275.46</course>
  <speed>22.39132197973134</speed>
  <fix>3d</fix>
</trkpt>
<trkpt lat="-27.266864" lon="151.3492074">
  <ele>536.75</ele>
  <time>2026-09-01T20:01:35Z</time>
  <course>275.78</course>
  <speed>22.33</speed>
  <fix>3d</fix>
</trkpt>
<trkpt lat="-27.2668579" lon="151.3491387">
  <ele>536.48</ele>
  <time>2026-09-01T20:01:35Z</time>
  <course>275.45</course>
  <speed>22.41022980694308</speed>
  <fix>3d</fix>
</trkpt>
<trkpt lat="-27.266864" lon="151.3492074">
  <ele>536.75</ele>
  <time>2026-09-01T20:01:35Z</time>
  <course>275.78</course>
  <speed>22.33</speed>
  <fix>3d</fix>
</trkpt>
<trkpt lat="-27.2668559" lon="151.3491161">
  <ele>536.41</ele>
  <time>2026-09-01T20:01:35Z</time>
  <course>275.43</course>
  <speed>22.427182168074527</speed>
  <fix>3d</fix>
</trkpt>
<trkpt lat="-27.26686" lon="151.3491624">
  <ele>536.57</ele>
  <time>2026-09-01T20:01:35Z</time>
  <course>275.73</course>
  <speed>22.38</speed>
  <fix>3d</fix>
</trkpt>
<trkpt lat="-27.266854" lon="151.3490941">
  <ele>536.34</ele>
  <time>2026-09-01T20:01:35Z</time>
  <course>275.38</course>
  <speed>22.444179646402763</speed>
  <fix>3d</fix>
</trkpt>
<trkpt lat="-27.26686" lon="151.3491624">
  <ele>536.57</ele>
  <time>2026-09-01T20:01:35Z</time>
  <course>275.73</course>
  <speed>22.38</speed>
  <fix>3d</fix>
</trkpt>
<trkpt lat="-27.266852" lon="151.3490708">
  <ele>536.28</ele>
  <time>2026-09-01T20:01:35Z</time>
  <course>275.33</course>
  <speed>22.461222139500777</speed>
  <fix>3d</fix>
</trkpt>
<trkpt lat="-27.266856" lon="151.3491172">
  <ele>536.41</ele>
  <time>2026-09-01T20:01:35Z</time>
  <course>275.61</course>
  <speed>22.43</speed>
  <fix>3d</fix>
</trkpt>
<trkpt lat="-27.2668501" lon="151.3490482">
  <ele>536.22</ele>
  <time>2026-09-01T20:01:35Z</time>
  <course>275.28</course>
  <speed>22.467420857766474</speed>
  <fix>3d</fix>
</trkpt>
<trkpt lat="-27.266856" lon="151.3491172">
  <ele>536.41</ele>
  <time>2026-09-01T20:01:35Z</time>
  <course>275.61</course>
  <speed>22.43</speed>
  <fix>3d</fix>
</trkpt>
<trkpt lat="-27.2668482" lon="151.3490256">
  <ele>536.16</ele>
  <time>2026-09-01T20:01:35Z</time>
  <course>275.22</course>
  <speed>22.473693510413458</speed>
  <fix>3d</fix>
</trkpt>
<trkpt lat="-27.2668521" lon="151.3490721">
  <ele>536.28</ele>
  <time>2026-09-01T20:01:35Z</time>
  <course>275.45</course>
  <speed>22.46</speed>
  <fix>3d</fix>
</trkpt>
<trkpt lat="-27.2668464" lon="151.3490029">
  <ele>536.13</ele>
  <time>2026-09-01T20:01:35Z</time>
  <course>275.13</course>
  <speed>22.48004003555154</speed>
  <fix>3d</fix>
</trkpt>
<trkpt lat="-27.2668521" lon="151.3490721">
  <ele>536.28</ele>
  <time>2026-09-01T20:01:35Z</time>
  <course>275.45</course>
  <speed>22.46</speed>
  <fix>3d</fix>
</trkpt>
<trkpt lat="-27.2668446" lon="151.3489803">
  <ele>536.09</ele>
  <time>2026-09-01T20:01:35Z</time>
  <course>275.09</course>
  <speed>22.476498837674875</speed>
  <fix>3d</fix>
</trkpt>
<trkpt lat="-27.2668483" lon="151.3490269">
  <ele>536.18</ele>
  <time>2026-09-01T20:01:35Z</time>
  <course>275.25</course>
  <speed>22.47</speed>
  <fix>3d</fix>
</trkpt>
<trkpt lat="-27.2668428" lon="151.3489577">
  <ele>536.06</ele>
  <time>2026-09-01T20:01:35Z</time>
  <course>274.99</course>
  <speed>22.482991349017592</speed>
  <fix>3d</fix>
</trkpt>
<trkpt lat="-27.2668483" lon="151.3490269">
  <ele>536.18</ele>
  <time>2026-09-01T20:01:35Z</time>
  <course>275.25</course>
  <speed>22.47</speed>
  <fix>3d</fix>
</trkpt>
<trkpt lat="-27.2668411" lon="151.3489351">
  <ele>536.02</ele>
  <time>2026-09-01T20:01:35Z</time>
  <course>274.89</course>
  <speed>22.479592967845303</speed>
  <fix>3d</fix>
</trkpt>
<trkpt lat="-27.2668447" lon="151.3489816">
  <ele>536.09</ele>
  <time>2026-09-01T20:01:35Z</time>
  <course>275.05</course>
  <speed>22.48</speed>
  <fix>3d</fix>
</trkpt>
<trkpt lat="-27.2668394" lon="151.3489124">
  <ele>535.99</ele>
  <time>2026-09-01T20:01:35Z</time>
  <course>274.86</course>
  <speed>22.486231342757282</speed>
  <fix>3d</fix>
</trkpt>
<trkpt lat="-27.2668447" lon="151.3489816">
  <ele>536.09</ele>
  <time>2026-09-01T20:01:35Z</time>
  <course>275.05</course>
  <speed>22.48</speed>
  <fix>3d</fix>
</trkpt>
<trkpt lat="-27.2668378" lon="151.3488898">
  <ele>535.95</ele>
  <time>2026-09-01T20:01:35Z</time>
  <course>274.82</course>
  <speed>22.492943337855987</speed>
  <fix>3d</fix>
</trkpt>
<trkpt lat="-27.2668412" lon="151.3489363">
  <ele>536.02</ele>
  <time>2026-09-01T20:01:35Z</time>
  <course>274.84</course>
  <speed>22.48</speed>
  <fix>3d</fix>
</trkpt>
<trkpt lat="-27.2668362" lon="151.3488671">
  <ele>535.91</ele>
  <time>2026-09-01T20:01:35Z</time>
  <course>274.68</course>
  <speed>22.509697910012033</speed>
  <fix>3d</fix>
</trkpt>
<trkpt lat="-27.2668412" lon="151.3489363">
  <ele>536.02</ele>
  <time>2026-09-01T20:01:35Z</time>
  <course>274.84</course>
  <speed>22.48</speed>
  <fix>3d</fix>
</trkpt>
<trkpt lat="-27.2668346" lon="151.3488444">
  <ele>535.88</ele>
  <time>2026-09-01T20:01:35Z</time>
  <course>274.54</course>
  <speed>22.52652880494463</speed>
  <fix>3d</fix>
</trkpt>
<trkpt lat="-27.2668379" lon="151.3488911">
  <ele>535.95</ele>
  <time>2026-09-01T20:01:35Z</time>
  <course>274.63</course>
  <speed>22.5</speed>
  <fix>3d</fix>
</trkpt>
<trkpt lat="-27.266833" lon="151.3488217">
  <ele>535.84</ele>
  <time>2026-09-01T20:01:35Z</time>
  <course>274.49</course>
  <speed>22.553407724776317</speed>
  <fix>3d</fix>
</trkpt>
<trkpt lat="-27.2668379" lon="151.3488911">
  <ele>535.95</ele>
  <time>2026-09-01T20:01:35Z</time>
  <course>274.63</course>
  <speed>22.5</speed>
  <fix>3d</fix>
</trkpt>
<trkpt lat="-27.2668315" lon="151.3487989">
  <ele>535.79</ele>
  <time>2026-09-01T20:01:35Z</time>
  <course>274.4</course>
  <speed>22.570392110018826</speed>
  <fix>3d</fix>
</trkpt>
<trkpt lat="-27.2668346" lon="151.3488456">
  <ele>535.88</ele>
  <time>2026-09-01T20:01:35Z</time>
  <course>274.42</course>
  <speed>22.53</speed>
  <fix>3d</fix>
</trkpt>
<trkpt lat="-27.2668301" lon="151.3487762">
  <ele>535.75</ele>
  <time>2026-09-01T20:01:35Z</time>
  <course>274.34</course>
  <speed>22.59814151650529</speed>
  <fix>3d</fix>
</trkpt>
<trkpt lat="-27.2668346" lon="151.3488456">
  <ele>535.88</ele>
  <time>2026-09-01T20:01:35Z</time>
  <course>274.42</course>
  <speed>22.53</speed>
  <fix>3d</fix>
</trkpt>
<trkpt lat="-27.2668286" lon="151.3487534">
  <ele>535.7</ele>
  <time>2026-09-01T20:01:35Z</time>
  <course>274.22</course>
  <speed>22.63591173334973</speed>
  <fix>3d</fix>
</trkpt>
<trkpt lat="-27.2668316" lon="151.3488003">
  <ele>535.79</ele>
  <time>2026-09-01T20:01:35Z</time>
  <course>274.22</course>
  <speed>22.57</speed>
  <fix>3d</fix>
</trkpt>
<trkpt lat="-27.2668272" lon="151.3487305">
  <ele>535.65</ele>
  <time>2026-09-01T20:01:35Z</time>
  <course>274.09</course>
  <speed>22.66306687101285</speed>
  <fix>3d</fix>
</trkpt>
<trkpt lat="-27.2668316" lon="151.3488003">
  <ele>535.79</ele>
  <time>2026-09-01T20:01:35Z</time>
  <course>274.22</course>
  <speed>22.57</speed>
  <fix>3d</fix>
</trkpt>
<trkpt lat="-27.2668258" lon="151.3487077">
  <ele>535.59</ele>
  <time>2026-09-01T20:01:35Z</time>
  <course>274.01</course>
  <speed>22.70027753134309</speed>
  <fix>3d</fix>
</trkpt>
<trkpt lat="-27.2668287" lon="151.3487547">
  <ele>535.7</ele>
  <time>2026-09-01T20:01:35Z</time>
  <course>274.02</course>
  <speed>22.63</speed>
  <fix>3d</fix>
</trkpt>
<trkpt lat="-27.2668245" lon="151.3486848">
  <ele>535.54</ele>
  <time>2026-09-01T20:01:35Z</time>
  <course>273.94</course>
  <speed>22.7382167286707</speed>
  <fix>3d</fix>
</trkpt>
<trkpt lat="-27.2668287" lon="151.3487547">
  <ele>535.7</ele>
  <time>2026-09-01T20:01:35Z</time>
  <course>274.02</course>
  <speed>22.63</speed>
  <fix>3d</fix>
</trkpt>
<trkpt lat="-27.2668232" lon="151.3486619">
  <ele>535.48</ele>
  <time>2026-09-01T20:01:35Z</time>
  <course>273.79</course>
  <speed>22.786182216422304</speed>
  <fix>3d</fix>
</trkpt>
<trkpt lat="-27.2668259" lon="151.3487089">
  <ele>535.59</ele>
  <time>2026-09-01T20:01:35Z</time>
  <course>273.84</course>
  <speed>22.7</speed>
  <fix>3d</fix>
</trkpt>
<trkpt lat="-27.2668219" lon="151.3486389">
  <ele>535.41</ele>
  <time>2026-09-01T20:01:35Z</time>
  <course>273.71</course>
  <speed>22.823595247024514</speed>
  <fix>3d</fix>
</trkpt>
<trkpt lat="-27.2668259" lon="151.3487089">
  <ele>535.59</ele>
  <time>2026-09-01T20:01:35Z</time>
  <course>273.84</course>
  <speed>22.7</speed>
  <fix>3d</fix>
</trkpt>
<trkpt lat="-27.2668206" lon="151.3486158">
  <ele>535.36</ele>
  <time>2026-09-01T20:01:35Z</time>
  <course>273.69</course>
  <speed>22.871670249459267</speed>
  <fix>3d</fix>
</trkpt>
<trkpt lat="-27.2668232" lon="151.3486629">
  <ele>535.48</ele>
  <time>2026-09-01T20:01:35Z</time>
  <course>273.65</course>
  <speed>22.78</speed>
  <fix>3d</fix>
</trkpt>
<trkpt lat="-27.2668194" lon="151.3485926">
  <ele>535.31</ele>
  <time>2026-09-01T20:01:35Z</time>
  <course>273.64</course>
  <speed>22.920383940937814</speed>
  <fix>3d</fix>
</trkpt>
<trkpt lat="-27.2668232" lon="151.3486629">
  <ele>535.48</ele>
  <time>2026-09-01T20:01:35Z</time>
  <course>273.65</course>
  <speed>22.78</speed>
  <fix>3d</fix>
</trkpt>
<trkpt lat="-27.2668182" lon="151.3485696">
  <ele>535.25</ele>
  <time>2026-09-01T20:01:35Z</time>
  <course>273.57</course>
  <speed>22.96853935277557</speed>
  <fix>3d</fix>
</trkpt>
<trkpt lat="-27.2668206" lon="151.3486169">
  <ele>535.37</ele>
  <time>2026-09-01T20:01:35Z</time>
  <course>273.49</course>
  <speed>22.87</speed>
  <fix>3d</fix>
</trkpt>
<trkpt lat="-27.266817" lon="151.3485464">
  <ele>535.19</ele>
  <time>2026-09-01T20:01:35Z</time>
  <course>273.42</course>
  <speed>23.01730870453798</speed>
  <fix>3d</fix>
</trkpt>
<trkpt lat="-27.2668206" lon="151.3486169">
  <ele>535.37</ele>
  <time>2026-09-01T20:01:35Z</time>
  <course>273.49</course>
  <speed>22.87</speed>
  <fix>3d</fix>
</trkpt>
<trkpt lat="-27.2668158" lon="151.3485232">
  <ele>535.14</ele>
  <time>2026-09-01T20:01:35Z</time>
  <course>273.31</course>
  <speed>23.065543566107436</speed>
  <fix>3d</fix>
</trkpt>
<trkpt lat="-27.2668182" lon="151.3485707">
  <ele>535.25</ele>
  <time>2026-09-01T20:01:35Z</time>
  <course>273.34</course>
  <speed>22.97</speed>
  <fix>3d</fix>
</trkpt>
<trkpt lat="-27.2668147" lon="151.3484999">
  <ele>535.08</ele>
  <time>2026-09-01T20:01:35Z</time>
  <course>273.2</course>
  <speed>23.114367826094664</speed>
  <fix>3d</fix>
</trkpt>
<trkpt lat="-27.2668182" lon="151.3485707">
  <ele>535.25</ele>
  <time>2026-09-01T20:01:35Z</time>
  <course>273.34</course>
  <speed>22.97</speed>
  <fix>3d</fix>
</trkpt>
<trkpt lat="-27.2668135" lon="151.3484765">
  <ele>535.03</ele>
  <time>2026-09-01T20:01:35Z</time>
  <course>273.19</course>
  <speed>23.163214371066896</speed>
  <fix>3d</fix>
</trkpt>
<trkpt lat="-27.2668158" lon="151.3485243">
  <ele>535.14</ele>
  <time>2026-09-01T20:01:35Z</time>
  <course>273.2</course>
  <speed>23.07</speed>
  <fix>3d</fix>
</trkpt>
<trkpt lat="-27.2668124" lon="151.3484528">
  <ele>534.95</ele>
  <time>2026-09-01T20:01:35Z</time>
  <course>273.19</course>
  <speed>23.222596754023872</speed>
  <fix>3d</fix>
</trkpt>
<trkpt lat="-27.2668158" lon="151.3485243">
  <ele>535.14</ele>
  <time>2026-09-01T20:01:35Z</time>
  <course>273.2</course>
  <speed>23.07</speed>
  <fix>3d</fix>
</trkpt>
<trkpt lat="-27.2668113" lon="151.3484294">
  <ele>534.84</ele>
  <time>2026-09-01T20:01:35Z</time>
  <course>273.12</course>
  <speed>23.281464730553356</speed>
  <fix>3d</fix>
</trkpt>
<trkpt lat="-27.2668136" lon="151.3484776">
  <ele>535.02</ele>
  <time>2026-09-01T20:01:35Z</time>
  <course>273.08</course>
  <speed>23.16</speed>
  <fix>3d</fix>
</trkpt>
<trkpt lat="-27.2668102" lon="151.3484059">
  <ele>534.7</ele>
  <time>2026-09-01T20:01:35Z</time>
  <course>273.11</course>
  <speed>23.36084116636214</speed>
  <fix>3d</fix>
</trkpt>
<trkpt lat="-27.2668136" lon="151.3484776">
  <ele>535.02</ele>
  <time>2026-09-01T20:01:35Z</time>
  <course>273.08</course>
  <speed>23.16</speed>
  <fix>3d</fix>
</trkpt>
<trkpt lat="-27.2668092" lon="151.3483823">
  <ele>534.56</ele>
  <time>2026-09-01T20:01:35Z</time>
  <course>273.1</course>
  <speed>23.45072280335939</speed>
  <fix>3d</fix>
</trkpt>
<trkpt lat="-27.2668114" lon="151.3484308">
  <ele>534.83</ele>
  <time>2026-09-01T20:01:35Z</time>
  <course>273.0</course>
  <speed>23.29</speed>
  <fix>3d</fix>
</trkpt>
<trkpt lat="-27.2668081" lon="151.3483585">
  <ele>534.41</ele>
  <time>2026-09-01T20:01:35Z</time>
  <course>273.04</course>
  <speed>23.540097705829517</speed>
  <fix>3d</fix>
</trkpt>
<trkpt lat="-27.2668114" lon="151.3484308">
  <ele>534.83</ele>
  <time>2026-09-01T20:01:35Z</time>
  <course>273.0</course>
  <speed>23.29</speed>
  <fix>3d</fix>
</trkpt>
<trkpt lat="-27.266807" lon="151.3483348">
  <ele>534.29</ele>
  <time>2026-09-01T20:01:35Z</time>
  <course>272.99</course>
  <speed>23.629481585510927</speed>
  <fix>3d</fix>
</trkpt>
<trkpt lat="-27.2668092" lon="151.3483836">
  <ele>534.57</ele>
  <time>2026-09-01T20:01:35Z</time>
  <course>272.93</course>
  <speed>23.45</speed>
  <fix>3d</fix>
</trkpt>
<trkpt lat="-27.2668059" lon="151.3483109">
  <ele>534.16</ele>
  <time>2026-09-01T20:01:35Z</time>
  <course>272.91</course>
  <speed>23.71936972181175</speed>
  <fix>3d</fix>
</trkpt>
<trkpt lat="-27.2668092" lon="151.3483836">
  <ele>534.57</ele>
  <time>2026-09-01T20:01:35Z</time>
  <course>272.93</course>
  <speed>23.45</speed>
  <fix>3d</fix>
</trkpt>
<trkpt lat="-27.2668049" lon="151.3482869">
  <ele>534.04</ele>
  <time>2026-09-01T20:01:35Z</time>
  <course>272.81</course>
  <speed>23.798777279515853</speed>
  <fix>3d</fix>
</trkpt>
<trkpt lat="-27.266807" lon="151.3483361">
  <ele>534.3</ele>
  <time>2026-09-01T20:01:35Z</time>
  <course>272.88</course>
  <speed>23.62</speed>
  <fix>3d</fix>
</trkpt>
<trkpt lat="-27.2668038" lon="151.3482628">
  <ele>533.94</ele>
  <time>2026-09-01T20:01:35Z</time>
  <course>272.77</course>
  <speed>23.888181178147487</speed>
  <fix>3d</fix>
</trkpt>
<trkpt lat="-27.266807" lon="151.3483361">
  <ele>534.3</ele>
  <time>2026-09-01T20:01:35Z</time>
  <course>272.88</course>
  <speed>23.62</speed>
  <fix>3d</fix>
</trkpt>
<trkpt lat="-27.2668028" lon="151.3482387">
  <ele>533.85</ele>
  <time>2026-09-01T20:01:35Z</time>
  <course>272.75</course>
  <speed>23.97759370745947</speed>
  <fix>3d</fix>
</trkpt>
<trkpt lat="-27.2668049" lon="151.3482882">
  <ele>534.06</ele>
  <time>2026-09-01T20:01:35Z</time>
  <course>272.82</course>
  <speed>23.8</speed>
  <fix>3d</fix>
</trkpt>
<trkpt lat="-27.2668018" lon="151.3482144">
  <ele>533.77</ele>
  <time>2026-09-01T20:01:35Z</time>
  <course>272.73</course>
  <speed>24.057501948456743</speed>
  <fix>3d</fix>
</trkpt>
<trkpt lat="-27.2668049" lon="151.3482882">
  <ele>534.06</ele>
  <time>2026-09-01T20:01:35Z</time>
  <course>272.82</course>
  <speed>23.8</speed>
  <fix>3d</fix>
</trkpt>
<trkpt lat="-27.2668007" lon="151.34819">
  <ele>533.7</ele>
  <time>2026-09-01T20:01:35Z</time>
  <course>272.71</course>
  <speed>24.12742215819999</speed>
  <fix>3d</fix>
</trkpt>
<trkpt lat="-27.2668028" lon="151.3482401">
  <ele>533.86</ele>
  <time>2026-09-01T20:01:35Z</time>
  <course>272.77</course>
  <speed>23.97</speed>
  <fix>3d</fix>
</trkpt>
<trkpt lat="-27.2667997" lon="151.3481656">
  <ele>533.64</ele>
  <time>2026-09-01T20:01:35Z</time>
  <course>272.75</course>
  <speed>24.207331534062156</speed>
  <fix>3d</fix>
</trkpt>
<trkpt lat="-27.2668028" lon="151.3482401">
  <ele>533.86</ele>
  <time>2026-09-01T20:01:35Z</time>
  <course>272.77</course>
  <speed>23.97</speed>
  <fix>3d</fix>
</trkpt>
<trkpt lat="-27.2667986" lon="151.3481412">
  <ele>533.59</ele>
  <time>2026-09-01T20:01:35Z</time>
  <course>272.74</course>
  <speed>24.26726395785071</speed>
  <fix>3d</fix>
</trkpt>
<trkpt lat="-27.2668007" lon="151.3481914">
  <ele>533.7</ele>
  <time>2026-09-01T20:01:35Z</time>
  <course>272.74</course>
  <speed>24.13</speed>
  <fix>3d</fix>
</trkpt>
<trkpt lat="-27.2667976" lon="151.3481167">
  <ele>533.54</ele>
  <time>2026-09-01T20:01:35Z</time>
  <course>272.79</course>
  <speed>24.337185539827733</speed>
  <fix>3d</fix>
</trkpt>
<trkpt lat="-27.2668007" lon="151.3481914">
  <ele>533.7</ele>
  <time>2026-09-01T20:01:35Z</time>
  <course>272.74</course>
  <speed>24.13</speed>
  <fix>3d</fix>
</trkpt>
<trkpt lat="-27.2667966" lon="151.3480921">
  <ele>533.52</ele>
  <time>2026-09-01T20:01:35Z</time>
  <course>272.78</course>
  <speed>24.407580789582568</speed>
  <fix>3d</fix>
</trkpt>
<trkpt lat="-27.2667987" lon="151.3481425">
  <ele>533.59</ele>
  <time>2026-09-01T20:01:35Z</time>
  <course>272.72</course>
  <speed>24.27</speed>
  <fix>3d</fix>
</trkpt>
<trkpt lat="-27.2667955" lon="151.3480674">
  <ele>533.5</ele>
  <time>2026-09-01T20:01:35Z</time>
  <course>272.74</course>
  <speed>24.45800073595551</speed>
  <fix>3d</fix>
</trkpt>
<trkpt lat="-27.2667987" lon="151.3481425">
  <ele>533.59</ele>
  <time>2026-09-01T20:01:35Z</time>
  <course>272.72</course>
  <speed>24.27</speed>
  <fix>3d</fix>
</trkpt>
<trkpt lat="-27.2667945" lon="151.3480428">
  <ele>533.48</ele>
  <time>2026-09-01T20:01:35Z</time>
  <course>272.76</course>
  <speed>24.51841144935781</speed>
  <fix>3d</fix>
</trkpt>
<trkpt lat="-27.2667966" lon="151.3480933">
  <ele>533.52</ele>
  <time>2026-09-01T20:01:35Z</time>
  <course>272.74</course>
  <speed>24.4</speed>
  <fix>3d</fix>
</trkpt>
<trkpt lat="-27.2667934" lon="151.348018">
  <ele>533.48</ele>
  <time>2026-09-01T20:01:35Z</time>
  <course>272.77</course>
  <speed>24.57882421923392</speed>
  <fix>3d</fix>
</trkpt>
<trkpt lat="-27.2667966" lon="151.3480933">
  <ele>533.52</ele>
  <time>2026-09-01T20:01:35Z</time>
  <course>272.74</course>
  <speed>24.4</speed>
  <fix>3d</fix>
</trkpt>
<trkpt lat="-27.2667923" lon="151.3479932">
  <ele>533.48</ele>
  <time>2026-09-01T20:01:35Z</time>
  <course>272.75</course>
  <speed>24.62876570191856</speed>
  <fix>3d</fix>
</trkpt>
<trkpt lat="-27.2667944" lon="151.3480439">
  <ele>533.49</ele>
  <time>2026-09-01T20:01:35Z</time>
  <course>272.76</course>
  <speed>24.52</speed>
  <fix>3d</fix>
</trkpt>
<trkpt lat="-27.2667912" lon="151.3479683">
  <ele>533.48</ele>
  <time>2026-09-01T20:01:35Z</time>
  <course>272.76</course>
  <speed>24.67919163992208</speed>
  <fix>3d</fix>
</trkpt>
<trkpt lat="-27.2667944" lon="151.3480439">
  <ele>533.49</ele>
  <time>2026-09-01T20:01:35Z</time>
  <course>272.76</course>
  <speed>24.52</speed>
  <fix>3d</fix>
</trkpt>
<trkpt lat="-27.2667901" lon="151.3479434">
  <ele>533.5</ele>
  <time>2026-09-01T20:01:35Z</time>
  <course>272.79</course>
  <speed>24.71963187428162</speed>
  <fix>3d</fix>
</trkpt>
<trkpt lat="-27.2667923" lon="151.3479943">
  <ele>533.48</ele>
  <time>2026-09-01T20:01:35Z</time>
  <course>272.78</course>
  <speed>24.62</speed>
  <fix>3d</fix>
</trkpt>
<trkpt lat="-27.266789" lon="151.3479184">
  <ele>533.51</ele>
  <time>2026-09-01T20:01:35Z</time>
  <course>272.86</course>
  <speed>24.7605694603335</speed>
  <fix>3d</fix>
</trkpt>
<trkpt lat="-27.2667923" lon="151.3479943">
  <ele>533.48</ele>
  <time>2026-09-01T20:01:35Z</time>
  <course>272.78</course>
  <speed>24.62</speed>
  <fix>3d</fix>
</trkpt>
<trkpt lat="-27.2667879" lon="151.3478934">
  <ele>533.54</ele>
  <time>2026-09-01T20:01:35Z</time>
  <course>272.92</course>
  <speed>24.81150741087691</speed>
  <fix>3d</fix>
</trkpt>
<trkpt lat="-27.2667902" lon="151.3479445">
  <ele>533.49</ele>
  <time>2026-09-01T20:01:35Z</time>
  <course>272.82</course>
  <speed>24.72</speed>
  <fix>3d</fix>
</trkpt>
<trkpt lat="-27.2667868" lon="151.3478682">
  <ele>533.56</ele>
  <time>2026-09-01T20:01:35Z</time>
  <course>272.94</course>
  <speed>24.832496853921075</speed>
  <fix>3d</fix>
</trkpt>
<trkpt lat="-27.2667902" lon="151.3479445">
  <ele>533.49</ele>
  <time>2026-09-01T20:01:35Z</time>
  <course>272.82</course>
  <speed>24.72</speed>
  <fix>3d</fix>
</trkpt>
<trkpt lat="-27.2667856" lon="151.3478433">
  <ele>533.59</ele>
  <time>2026-09-01T20:01:35Z</time>
  <course>272.97</course>
  <speed>24.813554763475544</speed>
  <fix>3d</fix>
</trkpt>
<trkpt lat="-27.266788" lon="151.3478946">
  <ele>533.53</ele>
  <time>2026-09-01T20:01:35Z</time>
  <course>272.88</course>
  <speed>24.8</speed>
  <fix>3d</fix>
</trkpt>
<trkpt lat="-27.2667845" lon="151.3478183">
  <ele>533.63</ele>
  <time>2026-09-01T20:01:35Z</time>
  <course>273.02</course>
  <speed>24.734186867572586</speed>
  <fix>3d</fix>
</trkpt>
<trkpt lat="-27.266788" lon="151.3478946">
  <ele>533.53</ele>
  <time>2026-09-01T20:01:35Z</time>
  <course>272.88</course>
  <speed>24.8</speed>
  <fix>3d</fix>
</trkpt>
<trkpt lat="-27.2667833" lon="151.3477931">
  <ele>533.66</ele>
  <time>2026-09-01T20:01:35Z</time>
  <course>273.04</course>
  <speed>24.595446733084557</speed>
  <fix>3d</fix>
</trkpt>
<trkpt lat="-27.2667857" lon="151.3478445">
  <ele>533.59</ele>
  <time>2026-09-01T20:01:35Z</time>
  <course>272.97</course>
  <speed>24.79</speed>
  <fix>3d</fix>
</trkpt>
<trkpt lat="-27.2667821" lon="151.3477684">
  <ele>533.71</ele>
  <time>2026-09-01T20:01:35Z</time>
  <course>273.05</course>
  <speed>24.40572268956607</speed>
  <fix>3d</fix>
</trkpt>
<trkpt lat="-27.2667857" lon="151.3478445">
  <ele>533.59</ele>
  <time>2026-09-01T20:01:35Z</time>
  <course>272.97</course>
  <speed>24.79</speed>
  <fix>3d</fix>
</trkpt>
<trkpt lat="-27.2667808" lon="151.3477438">
  <ele>533.75</ele>
  <time>2026-09-01T20:01:35Z</time>
  <course>273.07</course>
  <speed>24.156640908868102</speed>
  <fix>3d</fix>
</trkpt>
<trkpt lat="-27.2667833" lon="151.3477947">
  <ele>533.67</ele>
  <time>2026-09-01T20:01:35Z</time>
  <course>273.07</course>
  <speed>24.58</speed>
  <fix>3d</fix>
</trkpt>
<trkpt lat="-27.2667797" lon="151.3477197">
  <ele>533.78</ele>
  <time>2026-09-01T20:01:35Z</time>
  <course>273.11</course>
  <speed>23.85710166805683</speed>
  <fix>3d</fix>
</trkpt>
<trkpt lat="-27.2667833" lon="151.3477947">
  <ele>533.67</ele>
  <time>2026-09-01T20:01:35Z</time>
  <course>273.07</course>
  <speed>24.58</speed>
  <fix>3d</fix>
</trkpt>
<trkpt lat="-27.2667785" lon="151.3476958">
  <ele>533.79</ele>
  <time>2026-09-01T20:01:35Z</time>
  <course>273.15</course>
  <speed>23.537606080483204</speed>
  <fix>3d</fix>
</trkpt>
<trkpt lat="-27.266781" lon="151.3477455">
  <ele>533.74</ele>
  <time>2026-09-01T20:01:35Z</time>
  <course>273.15</course>
  <speed>24.15</speed>
  <fix>3d</fix>
</trkpt>
<trkpt lat="-27.2667773" lon="151.3476722">
  <ele>533.81</ele>
  <time>2026-09-01T20:01:35Z</time>
  <course>273.17</course>
  <speed>23.227537536295145</speed>
  <fix>3d</fix>
</trkpt>
<trkpt lat="-27.266781" lon="151.3477455">
  <ele>533.74</ele>
  <time>2026-09-01T20:01:35Z</time>
  <course>273.15</course>
  <speed>24.15</speed>
  <fix>3d</fix>
</trkpt>
<trkpt lat="-27.2667761" lon="151.3476489">
  <ele>533.79</ele>
  <time>2026-09-01T20:01:35Z</time>
  <course>273.19</course>
  <speed>22.92802869851658</speed>
  <fix>3d</fix>
</trkpt>
<trkpt lat="-27.2667786" lon="151.3476972">
  <ele>533.79</ele>
  <time>2026-09-01T20:01:35Z</time>
  <course>273.23</course>
  <speed>23.56</speed>
  <fix>3d</fix>
</trkpt>
<trkpt lat="-27.2667749" lon="151.347626">
  <ele>533.76</ele>
  <time>2026-09-01T20:01:35Z</time>
  <course>273.21</course>
  <speed>22.647918226627368</speed>
  <fix>3d</fix>
</trkpt>
<trkpt lat="-27.2667786" lon="151.3476972">
  <ele>533.79</ele>
  <time>2026-09-01T20:01:35Z</time>
  <course>273.23</course>
  <speed>23.56</speed>
  <fix>3d</fix>
</trkpt>
<trkpt lat="-27.2667738" lon="151.3476033">
  <ele>533.71</ele>
  <time>2026-09-01T20:01:35Z</time>
  <course>273.24</course>
  <speed>22.367809459131216</speed>
  <fix>3d</fix>
</trkpt>
<trkpt lat="-27.2667762" lon="151.3476502">
  <ele>533.79</ele>
  <time>2026-09-01T20:01:35Z</time>
  <course>273.3</course>
  <speed>22.95</speed>
  <fix>3d</fix>
</trkpt>
<trkpt lat="-27.2667726" lon="151.3475808">
  <ele>533.65</ele>
  <time>2026-09-01T20:01:35Z</time>
  <course>273.27</course>
  <speed>22.107668352858923</speed>
  <fix>3d</fix>
</trkpt>
<trkpt lat="-27.2667762" lon="151.3476502">
  <ele>533.79</ele>
  <time>2026-09-01T20:01:35Z</time>
  <course>273.3</course>
  <speed>22.95</speed>
  <fix>3d</fix>
</trkpt>
<trkpt lat="-27.2667714" lon="151.3475586">
  <ele>533.57</ele>
  <time>2026-09-01T20:01:35Z</time>
  <course>273.3</course>
  <speed>21.85751129474717</speed>
  <fix>3d</fix>
</trkpt>
<trkpt lat="-27.2667738" lon="151.3476045">
  <ele>533.71</ele>
  <time>2026-09-01T20:01:35Z</time>
  <course>273.34</course>
  <speed>22.39</speed>
  <fix>3d</fix>
</trkpt>
<trkpt lat="-27.2667703" lon="151.3475367">
  <ele>533.49</ele>
  <time>2026-09-01T20:01:35Z</time>
  <course>273.33</course>
  <speed>21.617337948970498</speed>
  <fix>3d</fix>
</trkpt>
<trkpt lat="-27.2667738" lon="151.3476045">
  <ele>533.71</ele>
  <time>2026-09-01T20:01:35Z</time>
  <course>273.34</course>
  <speed>22.39</speed>
  <fix>3d</fix>
</trkpt>
<trkpt lat="-27.2667692" lon="151.3475149">
  <ele>533.39</ele>
  <time>2026-09-01T20:01:35Z</time>
  <course>273.36</course>
  <speed>21.38656120090371</speed>
  <fix>3d</fix>
</trkpt>
<trkpt lat="-27.2667715" lon="151.3475598">
  <ele>533.57</ele>
  <time>2026-09-01T20:01:35Z</time>
  <course>273.36</course>
  <speed>21.88</speed>
  <fix>3d</fix>
</trkpt>
<trkpt lat="-27.266768" lon="151.3474936">
  <ele>533.28</ele>
  <time>2026-09-01T20:01:35Z</time>
  <course>273.37</course>
  <speed>21.16635301604884</speed>
  <fix>3d</fix>
</trkpt>
<trkpt lat="-27.2667715" lon="151.3475598">
  <ele>533.57</ele>
  <time>2026-09-01T20:01:35Z</time>
  <course>273.36</course>
  <speed>21.88</speed>
  <fix>3d</fix>
</trkpt>
<trkpt lat="-27.2667669" lon="151.3474723">
  <ele>533.16</ele>
  <time>2026-09-01T20:01:35Z</time>
  <course>273.38</course>
  <speed>20.956127982048592</speed>
  <fix>3d</fix>
</trkpt>
<trkpt lat="-27.2667692" lon="151.3475162">
  <ele>533.39</ele>
  <time>2026-09-01T20:01:35Z</time>
  <course>273.37</course>
  <speed>21.41</speed>
  <fix>3d</fix>
</trkpt>
<trkpt lat="-27.2667658" lon="151.3474513">
  <ele>533.04</ele>
  <time>2026-09-01T20:01:35Z</time>
  <course>273.38</course>
  <speed>20.75588591219368</speed>
  <fix>3d</fix>
</trkpt>
<trkpt lat="-27.2667692" lon="151.3475162">
  <ele>533.39</ele>
  <time>2026-09-01T20:01:35Z</time>
  <course>273.37</course>
  <speed>21.41</speed>
  <fix>3d</fix>
</trkpt>
<trkpt lat="-27.2667647" lon="151.3474305">
  <ele>532.91</ele>
  <time>2026-09-01T20:01:35Z</time>
  <course>273.38</course>
  <speed>20.555057771750484</speed>
  <fix>3d</fix>
</trkpt>
<trkpt lat="-27.266767" lon="151.3474734">
  <ele>533.17</ele>
  <time>2026-09-01T20:01:35Z</time>
  <course>273.37</course>
  <speed>20.97</speed>
  <fix>3d</fix>
</trkpt>
<trkpt lat="-27.2667636" lon="151.3474097">
  <ele>532.78</ele>
  <time>2026-09-01T20:01:35Z</time>
  <course>273.38</course>
  <speed>20.374780980417924</speed>
  <fix>3d</fix>
</trkpt>
<trkpt lat="-27.266767" lon="151.3474734">
  <ele>533.17</ele>
  <time>2026-09-01T20:01:35Z</time>
  <course>273.37</course>
  <speed>20.97</speed>
  <fix>3d</fix>
</trkpt>
<trkpt lat="-27.2667626" lon="151.3473894">
  <ele>532.65</ele>
  <time>2026-09-01T20:01:35Z</time>
  <course>273.37</course>
  <speed>20.18452129727133</speed>
  <fix>3d</fix>
</trkpt>
<trkpt lat="-27.2667648" lon="151.3474315">
  <ele>532.92</ele>
  <time>2026-09-01T20:01:35Z</time>
  <course>273.36</course>
  <speed>20.57</speed>
  <fix>3d</fix>
</trkpt>
<trkpt lat="-27.2667615" lon="151.347369">
  <ele>532.5</ele>
  <time>2026-09-01T20:01:35Z</time>
  <course>273.37</course>
  <speed>20.01422743949913</speed>
  <fix>3d</fix>
</trkpt>
<trkpt lat="-27.2667648" lon="151.3474315">
  <ele>532.92</ele>
  <time>2026-09-01T20:01:35Z</time>
  <course>273.36</course>
  <speed>20.57</speed>
  <fix>3d</fix>
</trkpt>
<trkpt lat="-27.2667605" lon="151.3473489">
  <ele>532.36</ele>
  <time>2026-09-01T20:01:35Z</time>
  <course>273.37</course>
  <speed>19.843933581827972</speed>
  <fix>3d</fix>
</trkpt>
<trkpt lat="-27.2667626" lon="151.3473904">
  <ele>532.65</ele>
  <time>2026-09-01T20:01:35Z</time>
  <course>273.36</course>
  <speed>20.2</speed>
  <fix>3d</fix>
</trkpt>
<trkpt lat="-27.2667594" lon="151.347329">
  <ele>532.21</ele>
  <time>2026-09-01T20:01:35Z</time>
  <course>273.36</course>
  <speed>19.68362263405799</speed>
  <fix>3d</fix>
</trkpt>
<trkpt lat="-27.2667626" lon="151.3473904">
  <ele>532.65</ele>
  <time>2026-09-01T20:01:35Z</time>
  <course>273.36</course>
  <speed>20.2</speed>
  <fix>3d</fix>
</trkpt>
<trkpt lat="-27.2667584" lon="151.3473093">
  <ele>532.04</ele>
  <time>2026-09-01T20:01:35Z</time>
  <course>273.36</course>
  <speed>19.52331170677762</speed>
  <fix>3d</fix>
</trkpt>
<trkpt lat="-27.2667605" lon="151.34735">
  <ele>532.36</ele>
  <time>2026-09-01T20:01:35Z</time>
  <course>273.35</course>
  <speed>19.85</speed>
  <fix>3d</fix>
</trkpt>
<trkpt lat="-27.2667574" lon="151.3472897">
  <ele>531.89</ele>
  <time>2026-09-01T20:01:35Z</time>
  <course>273.36</course>
  <speed>19.372983766059374</speed>
  <fix>3d</fix>
</trkpt>
<trkpt lat="-27.2667605" lon="151.34735">
  <ele>532.36</ele>
  <time>2026-09-01T20:01:35Z</time>
  <course>273.35</course>
  <speed>19.85</speed>
  <fix>3d</fix>
</trkpt>
<trkpt lat="-27.2667564" lon="151.3472702">
  <ele>531.73</ele>
  <time>2026-09-01T20:01:35Z</time>
  <course>273.35</course>
  <speed>19.222655903906723</speed>
  <fix>3d</fix>
</trkpt>
<trkpt lat="-27.2667584" lon="151.3473103">
  <ele>532.05</ele>
  <time>2026-09-01T20:01:35Z</time>
  <course>273.34</course>
  <speed>19.53</speed>
  <fix>3d</fix>
</trkpt>
<trkpt lat="-27.2667554" lon="151.3472509">
  <ele>531.57</ele>
  <time>2026-09-01T20:01:35Z</time>
  <course>273.35</course>
  <speed>19.08231118077682</speed>
  <fix>3d</fix>
</trkpt>
<trkpt lat="-27.2667584" lon="151.3473103">
  <ele>532.05</ele>
  <time>2026-09-01T20:01:35Z</time>
  <course>273.34</course>
  <speed>19.53</speed>
  <fix>3d</fix>
</trkpt>
<trkpt lat="-27.2667544" lon="151.3472316">
  <ele>531.41</ele>
  <time>2026-09-01T20:01:35Z</time>
  <course>273.35</course>
  <speed>18.94196663496164</speed>
  <fix>3d</fix>
</trkpt>
<trkpt lat="-27.2667564" lon="151.3472711">
  <ele>531.74</ele>
  <time>2026-09-01T20:01:35Z</time>
  <course>273.34</course>
  <speed>19.23</speed>
  <fix>3d</fix>
</trkpt>
<trkpt lat="-27.2667534" lon="151.3472127">
  <ele>531.24</ele>
  <time>2026-09-01T20:01:35Z</time>
  <course>273.34</course>
  <speed>18.801622270431878</speed>
  <fix>3d</fix>
</trkpt>
<trkpt lat="-27.2667564" lon="151.3472711">
  <ele>531.74</ele>
  <time>2026-09-01T20:01:35Z</time>
  <course>273.34</course>
  <speed>19.23</speed>
  <fix>3d</fix>
</trkpt>
<trkpt lat="-27.2667524" lon="151.3471936">
  <ele>531.07</ele>
  <time>2026-09-01T20:01:35Z</time>
  <course>273.34</course>
  <speed>18.67126133928825</speed>
  <fix>3d</fix>
</trkpt>
<trkpt lat="-27.2667543" lon="151.3472325">
  <ele>531.41</ele>
  <time>2026-09-01T20:01:35Z</time>
  <course>273.33</course>
  <speed>18.95</speed>
  <fix>3d</fix>
</trkpt>
<trkpt lat="-27.2667514" lon="151.3471748">
  <ele>530.89</ele>
  <time>2026-09-01T20:01:35Z</time>
  <course>273.34</course>
  <speed>18.550884075967915</speed>
  <fix>3d</fix>
</trkpt>
<trkpt lat="-27.2667543" lon="151.3472325">
  <ele>531.41</ele>
  <time>2026-09-01T20:01:35Z</time>
  <course>273.33</course>
  <speed>18.95</speed>
  <fix>3d</fix>
</trkpt>
<trkpt lat="-27.2667504" lon="151.3471562">
  <ele>530.72</ele>
  <time>2026-09-01T20:01:35Z</time>
  <course>273.33</course>
  <speed>18.430507318031157</speed>
  <fix>3d</fix>
</trkpt>
<trkpt lat="-27.2667524" lon="151.3471946">
  <ele>531.07</ele>
  <time>2026-09-01T20:01:35Z</time>
  <course>273.33</course>
  <speed>18.68</speed>
  <fix>3d</fix>
</trkpt>
<trkpt lat="-27.2667495" lon="151.3471377">
  <ele>530.54</ele>
  <time>2026-09-01T20:01:35Z</time>
  <course>273.33</course>
  <speed>18.310707250131003</speed>
  <fix>3d</fix>
</trkpt>
<trkpt lat="-27.2667524" lon="151.3471946">
  <ele>531.07</ele>
  <time>2026-09-01T20:01:35Z</time>
  <course>273.33</course>
  <speed>18.68</speed>
  <fix>3d</fix>
</trkpt>
<trkpt lat="-27.2667486" lon="151.3471193">
  <ele>530.36</ele>
  <time>2026-09-01T20:01:35Z</time>
  <course>273.33</course>
  <speed>18.190329848576138</speed>
  <fix>3d</fix>
</trkpt>
<trkpt lat="-27.2667505" lon="151.3471572">
  <ele>530.72</ele>
  <time>2026-09-01T20:01:35Z</time>
  <course>273.32</course>
  <speed>18.43</speed>
  <fix>3d</fix>
</trkpt>
<trkpt lat="-27.2667476" lon="151.3471009">
  <ele>530.18</ele>
  <time>2026-09-01T20:01:35Z</time>
  <course>273.33</course>
  <speed>18.079936393693423</speed>
  <fix>3d</fix>
</trkpt>
<trkpt lat="-27.2667505" lon="151.3471572">
  <ele>530.72</ele>
  <time>2026-09-01T20:01:35Z</time>
  <course>273.32</course>
  <speed>18.43</speed>
  <fix>3d</fix>
</trkpt>
<trkpt lat="-27.2667467" lon="151.3470827">
  <ele>530.0</ele>
  <time>2026-09-01T20:01:35Z</time>
  <course>273.32</course>
  <speed>17.969543678123827</speed>
  <fix>3d</fix>
</trkpt>
<trkpt lat="-27.2667486" lon="151.3471202">
  <ele>530.37</ele>
  <time>2026-09-01T20:01:35Z</time>
  <course>273.31</course>
  <speed>18.2</speed>
  <fix>3d</fix>
</trkpt>
<trkpt lat="-27.2667458" lon="151.3470647">
  <ele>529.82</ele>
  <time>2026-09-01T20:01:35Z</time>
  <course>273.32</course>
  <speed>17.869709007143904</speed>
  <fix>3d</fix>
</trkpt>
<trkpt lat="-27.2667486" lon="151.3471202">
  <ele>530.37</ele>
  <time>2026-09-01T20:01:35Z</time>
  <course>273.31</course>
  <speed>18.2</speed>
  <fix>3d</fix>
</trkpt>
<trkpt lat="-27.2667448" lon="151.3470467">
  <ele>529.63</ele>
  <time>2026-09-01T20:01:35Z</time>
  <course>273.32</course>
  <speed>17.76929936716696</speed>
  <fix>3d</fix>
</trkpt>
<trkpt lat="-27.2667467" lon="151.3470837">
  <ele>530.01</ele>
  <time>2026-09-01T20:01:35Z</time>
  <course>273.31</course>
  <speed>17.98</speed>
  <fix>3d</fix>
</trkpt>
<trkpt lat="-27.2667439" lon="151.3470288">
  <ele>529.45</ele>
  <time>2026-09-01T20:01:35Z</time>
  <course>273.31</course>
  <speed>17.668890740507734</speed>
  <fix>3d</fix>
</trkpt>
<trkpt lat="-27.2667467" lon="151.3470837">
  <ele>530.01</ele>
  <time>2026-09-01T20:01:35Z</time>
  <course>273.31</course>
  <speed>17.98</speed>
  <fix>3d</fix>
</trkpt>
<trkpt lat="-27.266743" lon="151.3470111">
  <ele>529.26</ele>
  <time>2026-09-01T20:01:35Z</time>
  <course>273.31</course>
  <speed>17.57903865403339</speed>
  <fix>3d</fix>
</trkpt>
<trkpt lat="-27.2667449" lon="151.3470476">
  <ele>529.64</ele>
  <time>2026-09-01T20:01:35Z</time>
  <course>273.3</course>
  <speed>17.77</speed>
  <fix>3d</fix>
</trkpt>
<trkpt lat="-27.2667421" lon="151.3469934">
  <ele>529.07</ele>
  <time>2026-09-01T20:01:35Z</time>
  <course>273.3</course>
  <speed>17.478629808998186</speed>
  <fix>3d</fix>
</trkpt>
<trkpt lat="-27.2667449" lon="151.3470476">
  <ele>529.64</ele>
  <time>2026-09-01T20:01:35Z</time>
  <course>273.3</course>
  <speed>17.77</speed>
  <fix>3d</fix>
</trkpt>
<trkpt lat="-27.2667412" lon="151.3469758">
  <ele>528.88</ele>
  <time>2026-09-01T20:01:35Z</time>
  <course>273.3</course>
  <speed>17.388205772879502</speed>
  <fix>3d</fix>
</trkpt>
<trkpt lat="-27.266743" lon="151.347012">
  <ele>529.27</ele>
  <time>2026-09-01T20:01:35Z</time>
  <course>273.29</course>
  <speed>17.58</speed>
  <fix>3d</fix>
</trkpt>
<trkpt lat="-27.2667403" lon="151.3469582">
  <ele>528.69</ele>
  <time>2026-09-01T20:01:35Z</time>
  <course>273.3</course>
  <speed>17.308336141871063</speed>
  <fix>3d</fix>
</trkpt>
<trkpt lat="-27.266743" lon="151.347012">
  <ele>529.27</ele>
  <time>2026-09-01T20:01:35Z</time>
  <course>273.29</course>
  <speed>17.58</speed>
  <fix>3d</fix>
</trkpt>
<trkpt lat="-27.2667394" lon="151.3469409">
  <ele>528.5</ele>
  <time>2026-09-01T20:01:35Z</time>
  <course>273.29</course>
  <speed>17.217912184698818</speed>
  <fix>3d</fix>
</trkpt>
<trkpt lat="-27.2667412" lon="151.3469767">
  <ele>528.89</ele>
  <time>2026-09-01T20:01:35Z</time>
  <course>273.28</course>
  <speed>17.4</speed>
  <fix>3d</fix>
</trkpt>
<trkpt lat="-27.2667385" lon="151.3469235">
  <ele>528.31</ele>
  <time>2026-09-01T20:01:35Z</time>
  <course>273.29</course>
  <speed>17.138042478649655</speed>
  <fix>3d</fix>
</trkpt>
<trkpt lat="-27.2667412" lon="151.3469767">
  <ele>528.89</ele>
  <time>2026-09-01T20:01:35Z</time>
  <course>273.28</course>
  <speed>17.4</speed>
  <fix>3d</fix>
</trkpt>
<trkpt lat="-27.2667377" lon="151.3469063">
  <ele>528.12</ele>
  <time>2026-09-01T20:01:35Z</time>
  <course>273.29</course>
  <speed>17.05760241065549</speed>
  <fix>3d</fix>
</trkpt>
<trkpt lat="-27.2667394" lon="151.3469418">
  <ele>528.51</ele>
  <time>2026-09-01T20:01:35Z</time>
  <course>273.28</course>
  <speed>17.22</speed>
  <fix>3d</fix>
</trkpt>
<trkpt lat="-27.264944" lon="151.3510052">
  <ele>542.98</ele>
  <time>2026-09-01T20:01:35Z</time>
  <course>250.0</course>
  <speed>0.0</speed>
  <fix>3d</fix>
</trkpt>
<trkpt lat="-27.2667394" lon="151.3469418">
  <ele>528.51</ele>
  <time>2026-09-01T20:01:35Z</time>
  <course>273.28</course>
  <speed>17.22</speed>
  <fix>3d</fix>
</trkpt>
<trkpt lat="-27.264944" lon="151.351005">
  <ele>542.87</ele>
  <time>2026-09-01T20:01:35Z</time>
  <course>250.01</course>
  <speed>0.0632455532033676</speed>
  <fix>3d</fix>
</trkpt>
<trkpt lat="-27.2658413" lon="151.3489648">
  <ele>535.65</ele>
  <time>2026-09-01T20:01:35Z</time>
  <course>273.27</course>
  <speed>8.57</speed>
  <fix>3d</fix>
</trkpt>
<trkpt lat="-27.264944" lon="151.3510049">
  <ele>542.66</ele>
  <time>2026-09-01T20:01:35Z</time>
  <course>249.99</course>
  <speed>0.20248456731316586</speed>
  <fix>3d</fix>
</trkpt>
<trkpt lat="-27.2658413" lon="151.3489648">
  <ele>535.65</ele>
  <time>2026-09-01T20:01:35Z</time>
  <course>273.27</course>
  <speed>8.57</speed>
  <fix>3d</fix>
</trkpt>
<trkpt lat="-27.2649441" lon="151.3510047">
  <ele>542.37</ele>
  <time>2026-09-01T20:01:35Z</time>
  <course>250.37</course>
  <speed>0.43965895873961214</speed>
  <fix>3d</fix>
</trkpt>
<trkpt lat="-27.264944" lon="151.3510051">
  <ele>542.82</ele>
  <time>2026-09-01T20:01:35Z</time>
  <course>249.55</course>
  <speed>0.1</speed>
  <fix>3d</fix>
</trkpt>
<trkpt lat="-27.2649442" lon="151.351004">
  <ele>542.0</ele>
  <time>2026-09-01T20:01:35Z</time>
  <course>253.3</course>
  <speed>0.7481310045707236</speed>
  <fix>3d</fix>
</trkpt>
<trkpt lat="-27.264944" lon="151.3510051">
  <ele>542.82</ele>
  <time>2026-09-01T20:01:35Z</time>
  <course>249.55</course>
  <speed>0.1</speed>
  <fix>3d</fix>
</trkpt>
<trkpt lat="-27.2649443" lon="151.3510031">
  <ele>541.56</ele>
  <time>2026-09-01T20:01:35Z</time>
  <course>262.67</course>
  <speed>1.100727032465361</speed>
  <fix>3d</fix>
</trkpt>
<trkpt lat="-27.2649441" lon="151.3510046">
  <ele>542.35</ele>
  <time>2026-09-01T20:01:35Z</time>
  <course>258.5</course>
  <speed>0.47</speed>
  <fix>3d</fix>
</trkpt>
<trkpt lat="-27.2649444" lon="151.351002">
  <ele>541.04</ele>
  <time>2026-09-01T20:01:35Z</time>
  <course>263.49</course>
  <speed>1.5284632805533798</speed>
  <fix>3d</fix>
</trkpt>
<trkpt lat="-27.2649441" lon="151.3510046">
  <ele>542.35</ele>
  <time>2026-09-01T20:01:35Z</time>
  <course>258.5</course>
  <speed>0.47</speed>
  <fix>3d</fix>
</trkpt>
<trkpt lat="-27.2649457" lon="151.3510005">
  <ele>540.47</ele>
  <time>2026-09-01T20:01:35Z</time>
  <course>252.04</course>
  <speed>2.8760563276820568</speed>
  <fix>3d</fix>
</trkpt>
<trkpt lat="-27.2649442" lon="151.3510031">
  <ele>541.54</ele>
  <time>2026-09-01T20:01:35Z</time>
  <course>253.16</course>
  <speed>1.11</speed>
  <fix>3d</fix>
</trkpt>
<trkpt lat="-27.2649487" lon="151.3509991">
  <ele>539.91</ele>
  <time>2026-09-01T20:01:35Z</time>
  <course>243.94</course>
  <speed>4.38308110807911</speed>
  <fix>3d</fix>
</trkpt>
<trkpt lat="-27.2649442" lon="151.3510031">
  <ele>541.54</ele>
  <time>2026-09-01T20:01:35Z</time>
  <course>253.16</course>
  <speed>1.11</speed>
  <fix>3d</fix>
</trkpt>
<trkpt lat="-27.2649531" lon="151.3509977">
  <ele>539.41</ele>
  <time>2026-09-01T20:01:35Z</time>
  <course>238.04</course>
  <speed>5.6846635784362824</speed>
  <fix>3d</fix>
</trkpt>
<trkpt lat="-27.2649465" lon="151.3510006">
  <ele>540.5</ele>
  <time>2026-09-01T20:01:35Z</time>
  <course>210.81</course>
  <speed>2.7</speed>
  <fix>3d</fix>
</trkpt>
<trkpt lat="-27.2649586" lon="151.3509964">
  <ele>539.0</ele>
  <time>2026-09-01T20:01:35Z</time>
  <course>233.35</course>
  <speed>6.72715393015501</speed>
  <fix>3d</fix>
</trkpt>
<trkpt lat="-27.2649465" lon="151.3510006">
  <ele>540.5</ele>
  <time>2026-09-01T20:01:35Z</time>
  <course>210.81</course>
  <speed>2.7</speed>
  <fix>3d</fix>
</trkpt>
<trkpt lat="-27.264965" lon="151.3509951">
  <ele>538.69</ele>
  <time>2026-09-01T20:01:35Z</time>
  <course>229.72</course>
  <speed>7.496252397031466</speed>
  <fix>3d</fix>
</trkpt>
<trkpt lat="-27.2649535" lon="151.3509978">
  <ele>539.48</ele>
  <time>2026-09-01T20:01:35Z</time>
  <course>193.73</course>
  <speed>5.5</speed>
  <fix>3d</fix>
</trkpt>
<trkpt lat="-27.2649717" lon="151.3509932">
  <ele>538.5</ele>
  <time>2026-09-01T20:01:35Z</time>
  <course>227.29</course>
  <speed>7.957669256761052</speed>
  <fix>3d</fix>
</trkpt>
<trkpt lat="-27.2649535" lon="151.3509978">
  <ele>539.48</ele>
  <time>2026-09-01T20:01:35Z</time>
  <course>193.73</course>
  <speed>5.5</speed>
  <fix>3d</fix>
</trkpt>
<trkpt lat="-27.2649786" lon="151.3509904">
  <ele>538.4</ele>
  <time>2026-09-01T20:01:35Z</time>
  <course>225.73</course>
  <speed>8.280784986944173</speed>
  <fix>3d</fix>
</trkpt>
<trkpt lat="-27.2649649" lon="151.3509949">
  <ele>538.76</ele>
  <time>2026-09-01T20:01:35Z</time>
  <course>193.75</course>
  <speed>7.31</speed>
  <fix>3d</fix>
</trkpt>
<trkpt lat="-27.2649854" lon="151.3509867">
  <ele>538.36</ele>
  <time>2026-09-01T20:01:35Z</time>
  <course>225.13</course>
  <speed>8.597005292542281</speed>
  <fix>3d</fix>
</trkpt>
<trkpt lat="-27.2649649" lon="151.3509949">
  <ele>538.76</ele>
  <time>2026-09-01T20:01:35Z</time>
  <course>193.75</course>
  <speed>7.31</speed>
  <fix>3d</fix>
</trkpt>
<trkpt lat="-27.2649922" lon="151.350982">
  <ele>538.34</ele>
  <time>2026-09-01T20:01:35Z</time>
  <course>225.53</course>
  <speed>8.965071109589706</speed>
  <fix>3d</fix>
</trkpt>
<trkpt lat="-27.2649782" lon="151.3509901">
  <ele>538.43</ele>
  <time>2026-09-01T20:01:35Z</time>
  <course>202.58</course>
  <speed>8.22</speed>
  <fix>3d</fix>
</trkpt>
<trkpt lat="-27.2649987" lon="151.3509765">
  <ele>538.33</ele>
  <time>2026-09-01T20:01:35Z</time>
  <course>226.85</course>
  <speed>9.400468073452513</speed>
  <fix>3d</fix>
</trkpt>
<trkpt lat="-27.2649782" lon="151.3509901">
  <ele>538.43</ele>
  <time>2026-09-01T20:01:35Z</time>
  <course>202.58</course>
  <speed>8.22</speed>
  <fix>3d</fix>
</trkpt>
<trkpt lat="-27.2650051" lon="151.3509699">
  <ele>538.29</ele>
  <time>2026-09-01T20:01:35Z</time>
  <course>228.91</course>
  <speed>9.871575355534697</speed>
  <fix>3d</fix>
</trkpt>
<trkpt lat="-27.2649917" lon="151.3509819">
  <ele>538.34</ele>
  <time>2026-09-01T20:01:35Z</time>
  <course>214.25</course>
  <speed>8.94</speed>
  <fix>3d</fix>
</trkpt>
<trkpt lat="-27.2650114" lon="151.3509624">
  <ele>538.25</ele>
  <time>2026-09-01T20:01:35Z</time>
  <course>231.47</course>
  <speed>10.388387747865401</speed>
  <fix>3d</fix>
</trkpt>
<trkpt lat="-27.2649917" lon="151.3509819">
  <ele>538.34</ele>
  <time>2026-09-01T20:01:35Z</time>
  <course>214.25</course>
  <speed>8.94</speed>
  <fix>3d</fix>
</trkpt>
<trkpt lat="-27.2650174" lon="151.3509541">
  <ele>538.19</ele>
  <time>2026-09-01T20:01:35Z</time>
  <course>234.22</course>
  <speed>10.916354702921668</speed>
  <fix>3d</fix>
</trkpt>
<trkpt lat="-27.2650047" lon="151.3509698">
  <ele>538.29</ele>
  <time>2026-09-01T20:01:35Z</time>
  <course>224.27</course>
  <speed>9.84</speed>
  <fix>3d</fix>
</trkpt>
<trkpt lat="-27.2650232" lon="151.3509449">
  <ele>538.1</ele>
  <time>2026-09-01T20:01:35Z</time>
  <course>237.07</course>
  <speed>11.451785886926109</speed>
  <fix>3d</fix>
</trkpt>
<trkpt lat="-27.2650047" lon="151.3509698">
  <ele>538.29</ele>
  <time>2026-09-01T20:01:35Z</time>
  <course>224.27</course>
  <speed>9.84</speed>
  <fix>3d</fix>
</trkpt>
<trkpt lat="-27.2650288" lon="151.3509349">
  <ele>538.01</ele>
  <time>2026-09-01T20:01:35Z</time>
  <course>239.87</course>
  <speed>11.988536190878351</speed>
  <fix>3d</fix>
</trkpt>
<trkpt lat="-27.265017" lon="151.3509541">
  <ele>538.18</ele>
  <time>2026-09-01T20:01:35Z</time>
  <course>232.5</course>
  <speed>10.87</speed>
  <fix>3d</fix>
</trkpt>
<trkpt lat="-27.2650341" lon="151.350924">
  <ele>537.89</ele>
  <time>2026-09-01T20:01:35Z</time>
  <course>242.45</course>
  <speed>12.536163687508234</speed>
  <fix>3d</fix>
</trkpt>
<trkpt lat="-27.265017" lon="151.3509541">
  <ele>538.18</ele>
  <time>2026-09-01T20:01:35Z</time>
  <course>232.5</course>
  <speed>10.87</speed>
  <fix>3d</fix>
</trkpt>
<trkpt lat="-27.2650391" lon="151.3509123">
  <ele>537.77</ele>
  <time>2026-09-01T20:01:35Z</time>
  <course>244.77</course>
  <speed>13.078780524192615</speed>
  <fix>3d</fix>
</trkpt>
<trkpt lat="-27.2650284" lon="151.3509349">
  <ele>538.0</ele>
  <time>2026-09-01T20:01:35Z</time>
  <course>239.55</course>
  <speed>11.95</speed>
  <fix>3d</fix>
</trkpt>
<trkpt lat="-27.2650437" lon="151.3508999">
  <ele>537.65</ele>
  <time>2026-09-01T20:01:35Z</time>
  <course>246.81</course>
  <speed>13.632186178306103</speed>
  <fix>3d</fix>
</trkpt>
<trkpt lat="-27.2650284" lon="151.3509349">
  <ele>538.0</ele>
  <time>2026-09-01T20:01:35Z</time>
  <course>239.55</course>
  <speed>11.95</speed>
  <fix>3d</fix>
</trkpt>
<trkpt lat="-27.265048" lon="151.3508867">
  <ele>537.53</ele>
  <time>2026-09-01T20:01:35Z</time>
  <course>248.74</course>
  <speed>14.158110749672783</speed>
  <fix>3d</fix>
</trkpt>
<trkpt lat="-27.2650387" lon="151.3509124">
  <ele>537.78</ele>
  <time>2026-09-01T20:01:35Z</time>
  <course>245.68</course>
  <speed>13.05</speed>
  <fix>3d</fix>
</trkpt>
<trkpt lat="-27.265052" lon="151.3508728">
  <ele>537.41</ele>
  <time>2026-09-01T20:01:35Z</time>
  <course>250.57</course>
  <speed>14.682523625044844</speed>
  <fix>3d</fix>
</trkpt>
<trkpt lat="-27.2650387" lon="151.3509124">
  <ele>537.78</ele>
  <time>2026-09-01T20:01:35Z</time>
  <course>245.68</course>
  <speed>13.05</speed>
  <fix>3d</fix>
</trkpt>
<trkpt lat="-27.2650556" lon="151.3508583">
  <ele>537.31</ele>
  <time>2026-09-01T20:01:35Z</time>
  <course>252.39</course>
  <speed>15.198342014838328</speed>
  <fix>3d</fix>
</trkpt>
<trkpt lat="-27.2650477" lon="151.3508868">
  <ele>537.54</ele>
  <time>2026-09-01T20:01:35Z</time>
  <course>250.89</course>
  <speed>14.12</speed>
  <fix>3d</fix>
</trkpt>
<trkpt lat="-27.265059" lon="151.3508431">
  <ele>537.21</ele>
  <time>2026-09-01T20:01:35Z</time>
  <course>254.15</course>
  <speed>15.707202169705463</speed>
  <fix>3d</fix>
</trkpt>
<trkpt lat="-27.2650477" lon="151.3508868">
  <ele>537.54</ele>
  <time>2026-09-01T20:01:35Z</time>
  <course>250.89</course>
  <speed>14.12</speed>
  <fix>3d</fix>
</trkpt>
<trkpt lat="-27.265062" lon="151.3508273">
  <ele>537.12</ele>
  <time>2026-09-01T20:01:35Z</time>
  <course>255.96</course>
  <speed>16.210971593337643</speed>
  <fix>3d</fix>
</trkpt>
<trkpt lat="-27.2650553" lon="151.3508585">
  <ele>537.31</ele>
  <time>2026-09-01T20:01:35Z</time>
  <course>255.14</course>
  <speed>15.17</speed>
  <fix>3d</fix>
</trkpt>
<trkpt lat="-27.2650647" lon="151.350811">
  <ele>537.04</ele>
  <time>2026-09-01T20:01:35Z</time>
  <course>257.64</course>
  <speed>16.689964050290822</speed>
  <fix>3d</fix>
</trkpt>
<trkpt lat="-27.2650553" lon="151.3508585">
  <ele>537.31</ele>
  <time>2026-09-01T20:01:35Z</time>
  <course>255.14</course>
  <speed>15.17</speed>
  <fix>3d</fix>
</trkpt>
<trkpt lat="-27.265067" lon="151.3507941">
  <ele>536.98</ele>
  <time>2026-09-01T20:01:35Z</time>
  <course>259.23</course>
  <speed>17.15170545456049</speed>
  <fix>3d</fix>
</trkpt>
<trkpt lat="-27.2650616" lon="151.3508277">
  <ele>537.13</ele>
  <time>2026-09-01T20:01:35Z</time>
  <course>258.63</course>
  <speed>16.17</speed>
  <fix>3d</fix>
</trkpt>
<trkpt lat="-27.2650691" lon="151.3507766">
  <ele>536.93</ele>
  <time>2026-09-01T20:01:35Z</time>
  <course>260.65</course>
  <speed>17.59310092053132</speed>
  <fix>3d</fix>
</trkpt>
<trkpt lat="-27.2650616" lon="151.3508277">
  <ele>537.13</ele>
  <time>2026-09-01T20:01:35Z</time>
  <course>258.63</course>
  <speed>16.17</speed>
  <fix>3d</fix>
</trkpt>
<trkpt lat="-27.2650709" lon="151.3507588">
  <ele>536.89</ele>
  <time>2026-09-01T20:01:35Z</time>
  <course>261.85</course>
  <speed>18.026217018553837</speed>
  <fix>3d</fix>
</trkpt>
<trkpt lat="-27.2650668" lon="151.3507945">
  <ele>536.99</ele>
  <time>2026-09-01T20:01:35Z</time>
  <course>261.56</course>
  <speed>17.12</speed>
  <fix>3d</fix>
</trkpt>
<trkpt lat="-27.2650725" lon="151.3507405">
  <ele>536.87</ele>
  <time>2026-09-01T20:01:35Z</time>
  <course>262.78</course>
  <speed>18.436968297418098</speed>
  <fix>3d</fix>
</trkpt>
<trkpt lat="-27.2650668" lon="151.3507945">
  <ele>536.99</ele>
  <time>2026-09-01T20:01:35Z</time>
  <course>261.56</course>
  <speed>17.12</speed>
  <fix>3d</fix>
</trkpt>
<trkpt lat="-27.2650738" lon="151.3507216">
  <ele>536.87</ele>
  <time>2026-09-01T20:01:35Z</time>
  <course>263.62</course>
  <speed>18.826332622154535</speed>
  <fix>3d</fix>
</trkpt>
<trkpt lat="-27.2650707" lon="151.3507593">
  <ele>536.9</ele>
  <time>2026-09-01T20:01:35Z</time>
  <course>263.98</course>
  <speed>17.99</speed>
  <fix>3d</fix>
</trkpt>
<trkpt lat="-27.2650749" lon="151.3507024">
  <ele>536.89</ele>
  <time>2026-09-01T20:01:35Z</time>
  <course>264.52</course>
  <speed>19.210947399855115</speed>
  <fix>3d</fix>
</trkpt>
<trkpt lat="-27.2650707" lon="151.3507593">
  <ele>536.9</ele>
  <time>2026-09-01T20:01:35Z</time>
  <course>263.98</course>
  <speed>17.99</speed>
  <fix>3d</fix>
</trkpt>
<trkpt lat="-27.2650757" lon="151.3506828">
  <ele>536.91</ele>
  <time>2026-09-01T20:01:35Z</time>
  <course>265.34</course>
  <speed>19.579785494228478</speed>
  <fix>3d</fix>
</trkpt>
<trkpt lat="-27.2650736" lon="151.3507222">
  <ele>536.88</ele>
  <time>2026-09-01T20:01:35Z</time>
  <course>265.89</course>
  <speed>18.8</speed>
  <fix>3d</fix>
</trkpt>
<trkpt lat="-27.2650765" lon="151.350663">
  <ele>536.96</ele>
  <time>2026-09-01T20:01:35Z</time>
  <course>266.05</course>
  <speed>19.93160304641852</speed>
  <fix>3d</fix>
</trkpt>
<trkpt lat="-27.2650736" lon="151.3507222">
  <ele>536.88</ele>
  <time>2026-09-01T20:01:35Z</time>
  <course>265.89</course>
  <speed>18.8</speed>
  <fix>3d</fix>
</trkpt>
<trkpt lat="-27.265077" lon="151.3506425">
  <ele>537.02</ele>
  <time>2026-09-01T20:01:35Z</time>
  <course>266.8</course>
  <speed>20.276414870484377</speed>
  <fix>3d</fix>
</trkpt>
<trkpt lat="-27.2650755" lon="151.3506835">
  <ele>536.92</ele>
  <time>2026-09-01T20:01:35Z</time>
  <course>267.36</course>
  <speed>19.56</speed>
  <fix>3d</fix>
</trkpt>
<trkpt lat="-27.2650774" lon="151.3506219">
  <ele>537.09</ele>
  <time>2026-09-01T20:01:35Z</time>
  <course>267.53</course>
  <speed>20.59280699661899</speed>
  <fix>3d</fix>
</trkpt>
<trkpt lat="-27.2650755" lon="151.3506835">
  <ele>536.92</ele>
  <time>2026-09-01T20:01:35Z</time>
  <course>267.36</course>
  <speed>19.56</speed>
  <fix>3d</fix>
</trkpt>
<trkpt lat="-27.2650776" lon="151.3506009">
  <ele>537.16</ele>
  <time>2026-09-01T20:01:35Z</time>
  <course>268.08</course>
  <speed>20.870864859895</speed>
  <fix>3d</fix>
</trkpt>
<trkpt lat="-27.2650768" lon="151.3506433">
  <ele>537.02</ele>
  <time>2026-09-01T20:01:35Z</time>
  <course>268.51</course>
  <speed>20.25</speed>
  <fix>3d</fix>
</trkpt>
<trkpt lat="-27.2650777" lon="151.3505797">
  <ele>537.24</ele>
  <time>2026-09-01T20:01:36Z</time>
  <course>268.38</course>
  <speed>21.1201160034693</speed>
  <fix>3d</fix>
</trkpt>
<trkpt lat="-27.2650768" lon="151.3506433">
  <ele>537.02</ele>
  <time>2026-09-01T20:01:36Z</time>
  <course>268.51</course>
  <speed>20.25</speed>
  <fix>3d</fix>
</trkpt>
<trkpt lat="-27.2650778" lon="151.3505582">
  <ele>537.31</ele>
  <time>2026-09-01T20:01:36Z</time>
  <course>268.68</course>
  <speed>21.330021097035978</speed>
  <fix>3d</fix>
</trkpt>
<trkpt lat="-27.2650775" lon="151.3506018">
  <ele>537.16</ele>
  <time>2026-09-01T20:01:36Z</time>
  <course>269.4</course>
  <speed>20.84</speed>
  <fix>3d</fix>
</trkpt>
<trkpt lat="-27.2650777" lon="151.3505366">
  <ele>537.37</ele>
  <time>2026-09-01T20:01:36Z</time>
  <course>268.92</course>
  <speed>21.510281262689247</speed>
  <fix>3d</fix>
</trkpt>
<trkpt lat="-27.2650775" lon="151.3506018">
  <ele>537.16</ele>
  <time>2026-09-01T20:01:36Z</time>
  <course>269.4</course>
  <speed>20.84</speed>
  <fix>3d</fix>
</trkpt>
<trkpt lat="-27.2650776" lon="151.3505147">
  <ele>537.43</ele>
  <time>2026-09-01T20:01:36Z</time>
  <course>269.17</course>
  <speed>21.660747909525195</speed>
  <fix>3d</fix>
</trkpt>
<trkpt lat="-27.2650777" lon="151.3505591">
  <ele>537.3</ele>
  <time>2026-09-01T20:01:36Z</time>
  <course>270.04</course>
  <speed>21.31</speed>
  <fix>3d</fix>
</trkpt>
<trkpt lat="-27.2650774" lon="151.3504927">
  <ele>537.46</ele>
  <time>2026-09-01T20:01:36Z</time>
  <course>269.42</course>
  <speed>21.791213825760142</speed>
  <fix>3d</fix>
</trkpt>
<trkpt lat="-27.2650777" lon="151.3505591">
  <ele>537.3</ele>
  <time>2026-09-01T20:01:36Z</time>
  <course>270.04</course>
  <speed>21.31</speed>
  <fix>3d</fix>
</trkpt>
<trkpt lat="-27.2650772" lon="151.3504707">
  <ele>537.48</ele>
  <time>2026-09-01T20:01:36Z</time>
  <course>269.64</course>
  <speed>21.881791517149594</speed>
  <fix>3d</fix>
</trkpt>
<trkpt lat="-27.2650775" lon="151.3505156">
  <ele>537.41</ele>
  <time>2026-09-01T20:01:36Z</time>
  <course>270.46</course>
  <speed>21.65</speed>
  <fix>3d</fix>
</trkpt>
<trkpt lat="-27.265077" lon="151.3504486">
  <ele>537.49</ele>
  <time>2026-09-01T20:01:36Z</time>
  <course>269.83</course>
  <speed>21.94218995451457</speed>
  <fix>3d</fix>
</trkpt>
<trkpt lat="-27.2650775" lon="151.3505156">
  <ele>537.41</ele>
  <time>2026-09-01T20:01:36Z</time>
  <course>270.46</course>
  <speed>21.65</speed>
  <fix>3d</fix>
</trkpt>
<trkpt lat="-27.2650767" lon="151.3504264">
  <ele>537.48</ele>
  <time>2026-09-01T20:01:36Z</time>
  <course>269.98</course>
  <speed>22.002627115869597</speed>
  <fix>3d</fix>
</trkpt>
<trkpt lat="-27.2650772" lon="151.3504716">
  <ele>537.47</ele>
  <time>2026-09-01T20:01:36Z</time>
  <course>270.72</course>
  <speed>21.86</speed>
  <fix>3d</fix>
</trkpt>
<trkpt lat="-27.2650763" lon="151.3504041">
  <ele>537.46</ele>
  <time>2026-09-01T20:01:36Z</time>
  <course>270.15</course>
  <speed>22.05293857969953</speed>
  <fix>3d</fix>
</trkpt>
<trkpt lat="-27.2650772" lon="151.3504716">
  <ele>537.47</ele>
  <time>2026-09-01T20:01:36Z</time>
  <course>270.72</course>
  <speed>21.86</speed>
  <fix>3d</fix>
</trkpt>
<trkpt lat="-27.265076" lon="151.3503819">
  <ele>537.43</ele>
  <time>2026-09-01T20:01:36Z</time>
  <course>270.28</course>
  <speed>22.083099872979787</speed>
  <fix>3d</fix>
</trkpt>
<trkpt lat="-27.2650767" lon="151.3504272">
  <ele>537.47</ele>
  <time>2026-09-01T20:01:36Z</time>
  <course>270.88</course>
  <speed>22.0</speed>
  <fix>3d</fix>
</trkpt>
<trkpt lat="-27.2650757" lon="151.3503595">
  <ele>537.38</ele>
  <time>2026-09-01T20:01:36Z</time>
  <course>270.41</course>
  <speed>22.093268205496443</speed>
  <fix>3d</fix>
</trkpt>
<trkpt lat="-27.2650767" lon="151.3504272">
  <ele>537.47</ele>
  <time>2026-09-01T20:01:36Z</time>
  <course>270.88</course>
  <speed>22.0</speed>
  <fix>3d</fix>
</trkpt>
<trkpt lat="-27.2650753" lon="151.3503371">
  <ele>537.33</ele>
  <time>2026-09-01T20:01:36Z</time>
  <course>270.53</course>
  <speed>22.113439352574716</speed>
  <fix>3d</fix>
</trkpt>
<trkpt lat="-27.265076" lon="151.3503827">
  <ele>537.42</ele>
  <time>2026-09-01T20:01:36Z</time>
  <course>270.96</course>
  <speed>22.07</speed>
  <fix>3d</fix>
</trkpt>
<trkpt lat="-27.265075" lon="151.3503149">
  <ele>537.27</ele>
  <time>2026-09-01T20:01:36Z</time>
  <course>270.61</course>
  <speed>22.143434692928736</speed>
  <fix>3d</fix>
</trkpt>
<trkpt lat="-27.265076" lon="151.3503827">
  <ele>537.42</ele>
  <time>2026-09-01T20:01:36Z</time>
  <course>270.96</course>
  <speed>22.07</speed>
  <fix>3d</fix>
</trkpt>
<trkpt lat="-27.2650746" lon="151.3502925">
  <ele>537.2</ele>
  <time>2026-09-01T20:01:36Z</time>
  <course>270.68</course>
  <speed>22.16325788326256</speed>
  <fix>3d</fix>
</trkpt>
<trkpt lat="-27.2650753" lon="151.3503381">
  <ele>537.33</ele>
  <time>2026-09-01T20:01:36Z</time>
  <course>271.0</course>
  <speed>22.12</speed>
  <fix>3d</fix>
</trkpt>
<trkpt lat="-27.2650743" lon="151.3502701">
  <ele>537.13</ele>
  <time>2026-09-01T20:01:36Z</time>
  <course>270.65</course>
  <speed>22.18325494601728</speed>
  <fix>3d</fix>
</trkpt>
<trkpt lat="-27.2650753" lon="151.3503381">
  <ele>537.33</ele>
  <time>2026-09-01T20:01:36Z</time>
  <course>271.0</course>
  <speed>22.12</speed>
  <fix>3d</fix>
</trkpt>
<trkpt lat="-27.2650739" lon="151.3502476">
  <ele>537.06</ele>
  <time>2026-09-01T20:01:36Z</time>
  <course>270.64</course>
  <speed>22.212917413072958</speed>
  <fix>3d</fix>
</trkpt>
<trkpt lat="-27.2650746" lon="151.3502934">
  <ele>537.2</ele>
  <time>2026-09-01T20:01:36Z</time>
  <course>270.99</course>
  <speed>22.16</speed>
  <fix>3d</fix>
</trkpt>
<trkpt lat="-27.2650736" lon="151.3502251">
  <ele>536.98</ele>
  <time>2026-09-01T20:01:36Z</time>
  <course>270.64</course>
  <speed>22.232599937928985</speed>
  <fix>3d</fix>
</trkpt>
<trkpt lat="-27.2650746" lon="151.3502934">
  <ele>537.2</ele>
  <time>2026-09-01T20:01:36Z</time>
  <course>270.99</course>
  <speed>22.16</speed>
  <fix>3d</fix>
</trkpt>
<trkpt lat="-27.2650733" lon="151.3502026">
  <ele>536.91</ele>
  <time>2026-09-01T20:01:36Z</time>
  <course>270.62</course>
  <speed>22.26229997102725</speed>
  <fix>3d</fix>
</trkpt>
<trkpt lat="-27.2650739" lon="151.3502485">
  <ele>537.06</ele>
  <time>2026-09-01T20:01:36Z</time>
  <course>270.93</course>
  <speed>22.21</speed>
  <fix>3d</fix>
</trkpt>
<trkpt lat="-27.265073" lon="151.3501801">
  <ele>536.84</ele>
  <time>2026-09-01T20:01:36Z</time>
  <course>270.59</course>
  <speed>22.281887262976625</speed>
  <fix>3d</fix>
</trkpt>
<trkpt lat="-27.2650739" lon="151.3502485">
  <ele>537.06</ele>
  <time>2026-09-01T20:01:36Z</time>
  <course>270.93</course>
  <speed>22.21</speed>
  <fix>3d</fix>
</trkpt>
<trkpt lat="-27.2650728" lon="151.3501576">
  <ele>536.77</ele>
  <time>2026-09-01T20:01:36Z</time>
  <course>270.61</course>
  <speed>22.30151564356109</speed>
  <fix>3d</fix>
</trkpt>
<trkpt lat="-27.2650733" lon="151.3502035">
  <ele>536.91</ele>
  <time>2026-09-01T20:01:36Z</time>
  <course>270.82</course>
  <speed>22.26</speed>
  <fix>3d</fix>
</trkpt>
<trkpt lat="-27.2650726" lon="151.3501351">
  <ele>536.71</ele>
  <time>2026-09-01T20:01:36Z</time>
  <course>270.61</course>
  <speed>22.321185004385406</speed>
  <fix>3d</fix>
</trkpt>
<trkpt lat="-27.2650733" lon="151.3502035">
  <ele>536.91</ele>
  <time>2026-09-01T20:01:36Z</time>
  <course>270.82</course>
  <speed>22.26</speed>
  <fix>3d</fix>
</trkpt>
<trkpt lat="-27.2650724" lon="151.3501126">
  <ele>536.64</ele>
  <time>2026-09-01T20:01:36Z</time>
  <course>270.55</course>
  <speed>22.34089523721017</speed>
  <fix>3d</fix>
</trkpt>
<trkpt lat="-27.2650728" lon="151.3501585">
  <ele>536.77</ele>
  <time>2026-09-01T20:01:36Z</time>
  <course>270.68</course>
  <speed>22.3</speed>
  <fix>3d</fix>
</trkpt>
<trkpt lat="-27.2650722" lon="151.35009">
  <ele>536.58</ele>
  <time>2026-09-01T20:01:36Z</time>
  <course>270.44</course>
  <speed>22.350646523087427</speed>
  <fix>3d</fix>
</trkpt>
<trkpt lat="-27.2650728" lon="151.3501585">
  <ele>536.77</ele>
  <time>2026-09-01T20:01:36Z</time>
  <course>270.68</course>
  <speed>22.3</speed>
  <fix>3d</fix>
</trkpt>
<trkpt lat="-27.2650721" lon="151.3500674">
  <ele>536.52</ele>
  <time>2026-09-01T20:01:36Z</time>
  <course>270.36</course>
  <speed>22.370377734852845</speed>
  <fix>3d</fix>
</trkpt>
<trkpt lat="-27.2650724" lon="151.3501134">
  <ele>536.64</ele>
  <time>2026-09-01T20:01:36Z</time>
  <course>270.53</course>
  <speed>22.34</speed>
  <fix>3d</fix>
</trkpt>
<trkpt lat="-27.2650719" lon="151.3500446">
  <ele>536.46</ele>
  <time>2026-09-01T20:01:36Z</time>
  <course>270.28</course>
  <speed>22.380223412647155</speed>
  <fix>3d</fix>
</trkpt>
<trkpt lat="-27.2650724" lon="151.3501134">
  <ele>536.64</ele>
  <time>2026-09-01T20:01:36Z</time>
  <course>270.53</course>
  <speed>22.34</speed>
  <fix>3d</fix>
</trkpt>
<trkpt lat="-27.2650719" lon="151.350022">
  <ele>536.4</ele>
  <time>2026-09-01T20:01:36Z</time>
  <course>270.23</course>
  <speed>22.400080356998725</speed>
  <fix>3d</fix>
</trkpt>
<trkpt lat="-27.265072" lon="151.3500682">
  <ele>536.52</ele>
  <time>2026-09-01T20:01:36Z</time>
  <course>270.35</course>
  <speed>22.37</speed>
  <fix>3d</fix>
</trkpt>
<trkpt lat="-27.2650718" lon="151.3499992">
  <ele>536.34</ele>
  <time>2026-09-01T20:01:36Z</time>
  <course>270.17</course>
  <speed>22.42000892060483</speed>
  <fix>3d</fix>
</trkpt>
<trkpt lat="-27.265072" lon="151.3500682">
  <ele>536.52</ele>
  <time>2026-09-01T20:01:36Z</time>
  <course>270.35</course>
  <speed>22.37</speed>
  <fix>3d</fix>
</trkpt>
<trkpt lat="-27.2650718" lon="151.3499766">
  <ele>536.28</ele>
  <time>2026-09-01T20:01:36Z</time>
  <course>270.11</course>
  <speed>22.43</speed>
  <fix>3d</fix>
</trkpt>
<trkpt lat="-27.2650718" lon="151.3500229">
  <ele>536.4</ele>
  <time>2026-09-01T20:01:36Z</time>
  <course>270.16</course>
  <speed>22.4</speed>
  <fix>3d</fix>
</trkpt>
<trkpt lat="-27.2650718" lon="151.349954">
  <ele>536.21</ele>
  <time>2026-09-01T20:01:36Z</time>
  <course>270.04</course>
  <speed>22.450035634715597</speed>
  <fix>3d</fix>
</trkpt>
<trkpt lat="-27.2650718" lon="151.3500229">
  <ele>536.4</ele>
  <time>2026-09-01T20:01:36Z</time>
  <course>270.16</course>
  <speed>22.4</speed>
  <fix>3d</fix>
</trkpt>
<trkpt lat="-27.2650719" lon="151.3499312">
  <ele>536.15</ele>
  <time>2026-09-01T20:01:36Z</time>
  <course>269.92</course>
  <speed>22.480108985500937</speed>
  <fix>3d</fix>
</trkpt>
<trkpt lat="-27.2650718" lon="151.3499776">
  <ele>536.28</ele>
  <time>2026-09-01T20:01:36Z</time>
  <course>269.98</course>
  <speed>22.43</speed>
  <fix>3d</fix>
</trkpt>
<trkpt lat="-27.265072" lon="151.3499086">
  <ele>536.08</ele>
  <time>2026-09-01T20:01:36Z</time>
  <course>269.83</course>
  <speed>22.500268887282214</speed>
  <fix>3d</fix>
</trkpt>
<trkpt lat="-27.2650718" lon="151.3499776">
  <ele>536.28</ele>
  <time>2026-09-01T20:01:36Z</time>
  <course>269.98</course>
  <speed>22.43</speed>
  <fix>3d</fix>
</trkpt>
<trkpt lat="-27.265072" lon="151.3498857">
  <ele>536.01</ele>
  <time>2026-09-01T20:01:36Z</time>
  <course>269.77</course>
  <speed>22.530434971389255</speed>
  <fix>3d</fix>
</trkpt>
<trkpt lat="-27.2650719" lon="151.3499322">
  <ele>536.15</ele>
  <time>2026-09-01T20:01:36Z</time>
  <course>269.8</course>
  <speed>22.48</speed>
  <fix>3d</fix>
</trkpt>
<trkpt lat="-27.2650722" lon="151.3498631">
  <ele>535.94</ele>
  <time>2026-09-01T20:01:36Z</time>
  <course>269.72</course>
  <speed>22.570717755534492</speed>
  <fix>3d</fix>
</trkpt>
<trkpt lat="-27.2650719" lon="151.3499322">
  <ele>536.15</ele>
  <time>2026-09-01T20:01:36Z</time>
  <course>269.8</course>
  <speed>22.48</speed>
  <fix>3d</fix>
</trkpt>
<trkpt lat="-27.2650723" lon="151.3498402">
  <ele>535.87</ele>
  <time>2026-09-01T20:01:36Z</time>
  <course>269.63</course>
  <speed>22.61097521116681</speed>
  <fix>3d</fix>
</trkpt>
<trkpt lat="-27.265072" lon="151.3498867">
  <ele>536.01</ele>
  <time>2026-09-01T20:01:36Z</time>
  <course>269.62</course>
  <speed>22.53</speed>
  <fix>3d</fix>
</trkpt>
<trkpt lat="-27.2650725" lon="151.3498174">
  <ele>535.79</ele>
  <time>2026-09-01T20:01:36Z</time>
  <course>269.55</course>
  <speed>22.651271487490497</speed>
  <fix>3d</fix>
</trkpt>
<trkpt lat="-27.265072" lon="151.3498867">
  <ele>536.01</ele>
  <time>2026-09-01T20:01:36Z</time>
  <course>269.62</course>
  <speed>22.53</speed>
  <fix>3d</fix>
</trkpt>
<trkpt lat="-27.2650728" lon="151.3497945">
  <ele>535.72</ele>
  <time>2026-09-01T20:01:36Z</time>
  <course>269.49</course>
  <speed>22.69172756755201</speed>
  <fix>3d</fix>
</trkpt>
<trkpt lat="-27.2650723" lon="151.3498411">
  <ele>535.87</ele>
  <time>2026-09-01T20:01:36Z</time>
  <course>269.45</course>
  <speed>22.61</speed>
  <fix>3d</fix>
</trkpt>
<trkpt lat="-27.2650731" lon="151.3497715">
  <ele>535.65</ele>
  <time>2026-09-01T20:01:36Z</time>
  <course>269.43</course>
  <speed>22.73211384803446</speed>
  <fix>3d</fix>
</trkpt>
<trkpt lat="-27.2650723" lon="151.3498411">
  <ele>535.87</ele>
  <time>2026-09-01T20:01:36Z</time>
  <course>269.45</course>
  <speed>22.61</speed>
  <fix>3d</fix>
</trkpt>
<trkpt lat="-27.2650733" lon="151.3497485">
  <ele>535.57</ele>
  <time>2026-09-01T20:01:36Z</time>
  <course>269.35</course>
  <speed>22.77253828627806</speed>
  <fix>3d</fix>
</trkpt>
<trkpt lat="-27.2650727" lon="151.3497954">
  <ele>535.72</ele>
  <time>2026-09-01T20:01:36Z</time>
  <course>269.29</course>
  <speed>22.69</speed>
  <fix>3d</fix>
</trkpt>
<trkpt lat="-27.2650737" lon="151.3497255">
  <ele>535.5</ele>
  <time>2026-09-01T20:01:36Z</time>
  <course>269.23</course>
  <speed>22.822999364675976</speed>
  <fix>3d</fix>
</trkpt>
<trkpt lat="-27.2650727" lon="151.3497954">
  <ele>535.72</ele>
  <time>2026-09-01T20:01:36Z</time>
  <course>269.29</course>
  <speed>22.69</speed>
  <fix>3d</fix>
</trkpt>
<trkpt lat="-27.265074" lon="151.3497023">
  <ele>535.43</ele>
  <time>2026-09-01T20:01:36Z</time>
  <course>269.2</course>
  <speed>22.87349776488065</speed>
  <fix>3d</fix>
</trkpt>
<trkpt lat="-27.2650733" lon="151.3497495">
  <ele>535.57</ele>
  <time>2026-09-01T20:01:36Z</time>
  <course>269.13</course>
  <speed>22.78</speed>
  <fix>3d</fix>
</trkpt>
<trkpt lat="-27.2650744" lon="151.3496793">
  <ele>535.35</ele>
  <time>2026-09-01T20:01:36Z</time>
  <course>269.12</course>
  <speed>22.923847844548263</speed>
  <fix>3d</fix>
</trkpt>
<trkpt lat="-27.2650733" lon="151.3497495">
  <ele>535.57</ele>
  <time>2026-09-01T20:01:36Z</time>
  <course>269.13</course>
  <speed>22.78</speed>
  <fix>3d</fix>
</trkpt>
<trkpt lat="-27.2650748" lon="151.3496561">
  <ele>535.28</ele>
  <time>2026-09-01T20:01:36Z</time>
  <course>269.03</course>
  <speed>22.98440558291643</speed>
  <fix>3d</fix>
</trkpt>
<trkpt lat="-27.265074" lon="151.3497033">
  <ele>535.43</ele>
  <time>2026-09-01T20:01:36Z</time>
  <course>269.0</course>
  <speed>22.88</speed>
  <fix>3d</fix>
</trkpt>
<trkpt lat="-27.2650752" lon="151.3496328">
  <ele>535.21</ele>
  <time>2026-09-01T20:01:36Z</time>
  <course>268.96</course>
  <speed>23.034795419104555</speed>
  <fix>3d</fix>
</trkpt>
<trkpt lat="-27.265074" lon="151.3497033">
  <ele>535.43</ele>
  <time>2026-09-01T20:01:36Z</time>
  <course>269.0</course>
  <speed>22.88</speed>
  <fix>3d</fix>
</trkpt>
<trkpt lat="-27.2650756" lon="151.3496094">
  <ele>535.15</ele>
  <time>2026-09-01T20:01:36Z</time>
  <course>268.92</course>
  <speed>23.085200887148456</speed>
  <fix>3d</fix>
</trkpt>
<trkpt lat="-27.2650748" lon="151.3496569">
  <ele>535.29</ele>
  <time>2026-09-01T20:01:36Z</time>
  <course>268.87</course>
  <speed>22.98</speed>
  <fix>3d</fix>
</trkpt>
<trkpt lat="-27.2650761" lon="151.3495862">
  <ele>535.08</ele>
  <time>2026-09-01T20:01:36Z</time>
  <course>268.84</course>
  <speed>23.145841959194314</speed>
  <fix>3d</fix>
</trkpt>
<trkpt lat="-27.2650748" lon="151.3496569">
  <ele>535.29</ele>
  <time>2026-09-01T20:01:36Z</time>
  <course>268.87</course>
  <speed>22.98</speed>
  <fix>3d</fix>
</trkpt>
<trkpt lat="-27.2650766" lon="151.3495628">
  <ele>535.02</ele>
  <time>2026-09-01T20:01:36Z</time>
  <course>268.7</course>
  <speed>23.196286340705488</speed>
  <fix>3d</fix>
</trkpt>
<trkpt lat="-27.2650756" lon="151.3496103">
  <ele>535.15</ele>
  <time>2026-09-01T20:01:36Z</time>
  <course>268.76</course>
  <speed>23.09</speed>
  <fix>3d</fix>
</trkpt>
<trkpt lat="-27.2650771" lon="151.3495393">
  <ele>534.95</ele>
  <time>2026-09-01T20:01:36Z</time>
  <course>268.65</course>
  <speed>23.246746008850355</speed>
  <fix>3d</fix>
</trkpt>
<trkpt lat="-27.2650756" lon="151.3496103">
  <ele>535.15</ele>
  <time>2026-09-01T20:01:36Z</time>
  <course>268.76</course>
  <speed>23.09</speed>
  <fix>3d</fix>
</trkpt>
<trkpt lat="-27.2650776" lon="151.3495158">
  <ele>534.86</ele>
  <time>2026-09-01T20:01:36Z</time>
  <course>268.69</course>
  <speed>23.307217766177068</speed>
  <fix>3d</fix>
</trkpt>
<trkpt lat="-27.2650766" lon="151.3495635">
  <ele>535.01</ele>
  <time>2026-09-01T20:01:36Z</time>
  <course>268.66</course>
  <speed>23.19</speed>
  <fix>3d</fix>
</trkpt>
<trkpt lat="-27.2650781" lon="151.3494921">
  <ele>534.74</ele>
  <time>2026-09-01T20:01:36Z</time>
  <course>268.7</course>
  <speed>23.37744639604591</speed>
  <fix>3d</fix>
</trkpt>
<trkpt lat="-27.2650766" lon="151.3495635">
  <ele>535.01</ele>
  <time>2026-09-01T20:01:36Z</time>
  <course>268.66</course>
  <speed>23.19</speed>
  <fix>3d</fix>
</trkpt>
<trkpt lat="-27.2650786" lon="151.3494686">
  <ele>534.6</ele>
  <time>2026-09-01T20:01:36Z</time>
  <course>268.67</course>
  <speed>23.45767465031434</speed>
  <fix>3d</fix>
</trkpt>
<trkpt lat="-27.2650776" lon="151.3495165">
  <ele>534.84</ele>
  <time>2026-09-01T20:01:36Z</time>
  <course>268.58</course>
  <speed>23.31</speed>
  <fix>3d</fix>
</trkpt>
<trkpt lat="-27.2650792" lon="151.3494447">
  <ele>534.45</ele>
  <time>2026-09-01T20:01:36Z</time>
  <course>268.62</course>
  <speed>23.548163410338393</speed>
  <fix>3d</fix>
</trkpt>
<trkpt lat="-27.2650776" lon="151.3495165">
  <ele>534.84</ele>
  <time>2026-09-01T20:01:36Z</time>
  <course>268.58</course>
  <speed>23.31</speed>
  <fix>3d</fix>
</trkpt>
<trkpt lat="-27.2650798" lon="151.349421">
  <ele>534.29</ele>
  <time>2026-09-01T20:01:36Z</time>
  <course>268.57</course>
  <speed>23.64839318008731</speed>
  <fix>3d</fix>
</trkpt>
<trkpt lat="-27.2650786" lon="151.3494693">
  <ele>534.59</ele>
  <time>2026-09-01T20:01:36Z</time>
  <course>268.51</course>
  <speed>23.46</speed>
  <fix>3d</fix>
</trkpt>
<trkpt lat="-27.2650804" lon="151.3493968">
  <ele>534.16</ele>
  <time>2026-09-01T20:01:36Z</time>
  <course>268.53</course>
  <speed>23.728904315201746</speed>
  <fix>3d</fix>
</trkpt>
<trkpt lat="-27.2650786" lon="151.3494693">
  <ele>534.59</ele>
  <time>2026-09-01T20:01:36Z</time>
  <course>268.51</course>
  <speed>23.46</speed>
  <fix>3d</fix>
</trkpt>
<trkpt lat="-27.2650809" lon="151.3493729">
  <ele>534.04</ele>
  <time>2026-09-01T20:01:36Z</time>
  <course>268.46</course>
  <speed>23.829141822566754</speed>
  <fix>3d</fix>
</trkpt>
<trkpt lat="-27.2650797" lon="151.3494217">
  <ele>534.31</ele>
  <time>2026-09-01T20:01:36Z</time>
  <course>268.45</course>
  <speed>23.64</speed>
  <fix>3d</fix>
</trkpt>
<trkpt lat="-27.2650816" lon="151.3493487">
  <ele>533.91</ele>
  <time>2026-09-01T20:01:36Z</time>
  <course>268.4</course>
  <speed>23.909671683233128</speed>
  <fix>3d</fix>
</trkpt>
<trkpt lat="-27.2650797" lon="151.3494217">
  <ele>534.31</ele>
  <time>2026-09-01T20:01:36Z</time>
  <course>268.45</course>
  <speed>23.64</speed>
  <fix>3d</fix>
</trkpt>
<trkpt lat="-27.2650822" lon="151.3493245">
  <ele>533.82</ele>
  <time>2026-09-01T20:01:36Z</time>
  <course>268.4</course>
  <speed>23.999635413897437</speed>
  <fix>3d</fix>
</trkpt>
<trkpt lat="-27.2650809" lon="151.3493738">
  <ele>534.05</ele>
  <time>2026-09-01T20:01:36Z</time>
  <course>268.39</course>
  <speed>23.82</speed>
  <fix>3d</fix>
</trkpt>
<trkpt lat="-27.2650828" lon="151.3493002">
  <ele>533.73</ele>
  <time>2026-09-01T20:01:36Z</time>
  <course>268.38</course>
  <speed>24.08988376891844</speed>
  <fix>3d</fix>
</trkpt>
<trkpt lat="-27.2650809" lon="151.3493738">
  <ele>534.05</ele>
  <time>2026-09-01T20:01:36Z</time>
  <course>268.39</course>
  <speed>23.82</speed>
  <fix>3d</fix>
</trkpt>
<trkpt lat="-27.2650834" lon="151.3492758">
  <ele>533.65</ele>
  <time>2026-09-01T20:01:36Z</time>
  <course>268.33</course>
  <speed>24.1701386011748</speed>
  <fix>3d</fix>
</trkpt>
<trkpt lat="-27.2650821" lon="151.3493255">
  <ele>533.82</ele>
  <time>2026-09-01T20:01:36Z</time>
  <course>268.35</course>
  <speed>24.0</speed>
  <fix>3d</fix>
</trkpt>
<trkpt lat="-27.2650841" lon="151.3492514">
  <ele>533.58</ele>
  <time>2026-09-01T20:01:36Z</time>
  <course>268.3</course>
  <speed>24.240109323185816</speed>
  <fix>3d</fix>
</trkpt>
<trkpt lat="-27.2650821" lon="151.3493255">
  <ele>533.82</ele>
  <time>2026-09-01T20:01:36Z</time>
  <course>268.35</course>
  <speed>24.0</speed>
  <fix>3d</fix>
</trkpt>
<trkpt lat="-27.2650847" lon="151.3492269">
  <ele>533.52</ele>
  <time>2026-09-01T20:01:36Z</time>
  <course>268.33</course>
  <speed>24.310370215198287</speed>
  <fix>3d</fix>
</trkpt>
<trkpt lat="-27.2650834" lon="151.3492769">
  <ele>533.65</ele>
  <time>2026-09-01T20:01:36Z</time>
  <course>268.33</course>
  <speed>24.16</speed>
  <fix>3d</fix>
</trkpt>
<trkpt lat="-27.2650853" lon="151.3492023">
  <ele>533.48</ele>
  <time>2026-09-01T20:01:36Z</time>
  <course>268.32</course>
  <speed>24.38034044060911</speed>
  <fix>3d</fix>
</trkpt>
<trkpt lat="-27.2650834" lon="151.3492769">
  <ele>533.65</ele>
  <time>2026-09-01T20:01:36Z</time>
  <course>268.33</course>
  <speed>24.16</speed>
  <fix>3d</fix>
</trkpt>
<trkpt lat="-27.265086" lon="151.3491776">
  <ele>533.44</ele>
  <time>2026-09-01T20:01:36Z</time>
  <course>268.31</course>
  <speed>24.450310836469953</speed>
  <fix>3d</fix>
</trkpt>
<trkpt lat="-27.2650846" lon="151.3492279">
  <ele>533.53</ele>
  <time>2026-09-01T20:01:36Z</time>
  <course>268.32</course>
  <speed>24.31</speed>
  <fix>3d</fix>
</trkpt>
<trkpt lat="-27.2650866" lon="151.349153">
  <ele>533.41</ele>
  <time>2026-09-01T20:01:36Z</time>
  <course>268.33</course>
  <speed>24.510285596051304</speed>
  <fix>3d</fix>
</trkpt>
<trkpt lat="-27.2650846" lon="151.3492279">
  <ele>533.53</ele>
  <time>2026-09-01T20:01:36Z</time>
  <course>268.32</course>
  <speed>24.31</speed>
  <fix>3d</fix>
</trkpt>
<trkpt lat="-27.2650873" lon="151.3491282">
  <ele>533.4</ele>
  <time>2026-09-01T20:01:36Z</time>
  <course>268.27</course>
  <speed>24.559977605852982</speed>
  <fix>3d</fix>
</trkpt>
<trkpt lat="-27.2650859" lon="151.3491786">
  <ele>533.44</ele>
  <time>2026-09-01T20:01:36Z</time>
  <course>268.32</course>
  <speed>24.44</speed>
  <fix>3d</fix>
</trkpt>
<trkpt lat="-27.2650879" lon="151.3491033">
  <ele>533.39</ele>
  <time>2026-09-01T20:01:36Z</time>
  <course>268.27</course>
  <speed>24.60995733437992</speed>
  <fix>3d</fix>
</trkpt>
<trkpt lat="-27.2650859" lon="151.3491786">
  <ele>533.44</ele>
  <time>2026-09-01T20:01:36Z</time>
  <course>268.32</course>
  <speed>24.44</speed>
  <fix>3d</fix>
</trkpt>
<trkpt lat="-27.2650885" lon="151.3490784">
  <ele>533.39</ele>
  <time>2026-09-01T20:01:36Z</time>
  <course>268.26</course>
  <speed>24.669933117055667</speed>
  <fix>3d</fix>
</trkpt>
<trkpt lat="-27.2650872" lon="151.3491291">
  <ele>533.4</ele>
  <time>2026-09-01T20:01:36Z</time>
  <course>268.34</course>
  <speed>24.56</speed>
  <fix>3d</fix>
</trkpt>
<trkpt lat="-27.2650892" lon="151.3490535">
  <ele>533.4</ele>
  <time>2026-09-01T20:01:36Z</time>
  <course>268.31</course>
  <speed>24.720198219270006</speed>
  <fix>3d</fix>
</trkpt>
<trkpt lat="-27.2650872" lon="151.3491291">
  <ele>533.4</ele>
  <time>2026-09-01T20:01:36Z</time>
  <course>268.34</course>
  <speed>24.56</speed>
  <fix>3d</fix>
</trkpt>
<trkpt lat="-27.2650898" lon="151.3490285">
  <ele>533.41</ele>
  <time>2026-09-01T20:01:36Z</time>
  <course>268.37</course>
  <speed>24.769893015513812</speed>
  <fix>3d</fix>
</trkpt>
<trkpt lat="-27.2650885" lon="151.3490792">
  <ele>533.39</ele>
  <time>2026-09-01T20:01:36Z</time>
  <course>268.35</course>
  <speed>24.66</speed>
  <fix>3d</fix>
</trkpt>
<trkpt lat="-27.2650904" lon="151.3490034">
  <ele>533.41</ele>
  <time>2026-09-01T20:01:36Z</time>
  <course>268.38</course>
  <speed>24.809596933444926</speed>
  <fix>3d</fix>
</trkpt>
<trkpt lat="-27.2650885" lon="151.3490792">
  <ele>533.39</ele>
  <time>2026-09-01T20:01:36Z</time>
  <course>268.35</course>
  <speed>24.66</speed>
  <fix>3d</fix>
</trkpt>
<trkpt lat="-27.2650911" lon="151.3489784">
  <ele>533.44</ele>
  <time>2026-09-01T20:01:36Z</time>
  <course>268.36</course>
  <speed>24.849305825314318</speed>
  <fix>3d</fix>
</trkpt>
<trkpt lat="-27.2650897" lon="151.3490292">
  <ele>533.41</ele>
  <time>2026-09-01T20:01:36Z</time>
  <course>268.37</course>
  <speed>24.76</speed>
  <fix>3d</fix>
</trkpt>
<trkpt lat="-27.2650917" lon="151.3489533">
  <ele>533.46</ele>
  <time>2026-09-01T20:01:36Z</time>
  <course>268.39</course>
  <speed>24.889019667315143</speed>
  <fix>3d</fix>
</trkpt>
<trkpt lat="-27.2650897" lon="151.3490292">
  <ele>533.41</ele>
  <time>2026-09-01T20:01:36Z</time>
  <course>268.37</course>
  <speed>24.76</speed>
  <fix>3d</fix>
</trkpt>
<trkpt lat="-27.2650923" lon="151.3489281">
  <ele>533.49</ele>
  <time>2026-09-01T20:01:36Z</time>
  <course>268.42</course>
  <speed>24.868759518721475</speed>
  <fix>3d</fix>
</trkpt>
<trkpt lat="-27.265091" lon="151.3489791">
  <ele>533.44</ele>
  <time>2026-09-01T20:01:36Z</time>
  <course>268.42</course>
  <speed>24.85</speed>
  <fix>3d</fix>
</trkpt>
<trkpt lat="-27.2650929" lon="151.3489031">
  <ele>533.52</ele>
  <time>2026-09-01T20:01:36Z</time>
  <course>268.47</course>
  <speed>24.798260019606214</speed>
  <fix>3d</fix>
</trkpt>
<trkpt lat="-27.265091" lon="151.3489791">
  <ele>533.44</ele>
  <time>2026-09-01T20:01:36Z</time>
  <course>268.42</course>
  <speed>24.85</speed>
  <fix>3d</fix>
</trkpt>
<trkpt lat="-27.2650934" lon="151.348878">
  <ele>533.56</ele>
  <time>2026-09-01T20:01:36Z</time>
  <course>268.51</course>
  <speed>24.657795927454668</speed>
  <fix>3d</fix>
</trkpt>
<trkpt lat="-27.2650922" lon="151.348929">
  <ele>533.49</ele>
  <time>2026-09-01T20:01:36Z</time>
  <course>268.47</course>
  <speed>24.84</speed>
  <fix>3d</fix>
</trkpt>
<trkpt lat="-27.265094" lon="151.3488533">
  <ele>533.6</ele>
  <time>2026-09-01T20:01:36Z</time>
  <course>268.52</course>
  <speed>24.467605113700852</speed>
  <fix>3d</fix>
</trkpt>
<trkpt lat="-27.2650922" lon="151.348929">
  <ele>533.49</ele>
  <time>2026-09-01T20:01:36Z</time>
  <course>268.47</course>
  <speed>24.84</speed>
  <fix>3d</fix>
</trkpt>
<trkpt lat="-27.2650945" lon="151.3488286">
  <ele>533.64</ele>
  <time>2026-09-01T20:01:36Z</time>
  <course>268.53</course>
  <speed>24.22718514396586</speed>
  <fix>3d</fix>
</trkpt>
<trkpt lat="-27.2650934" lon="151.3488789">
  <ele>533.55</ele>
  <time>2026-09-01T20:01:36Z</time>
  <course>268.53</course>
  <speed>24.64</speed>
  <fix>3d</fix>
</trkpt>
<trkpt lat="-27.265095" lon="151.3488042">
  <ele>533.66</ele>
  <time>2026-09-01T20:01:36Z</time>
  <course>268.56</course>
  <speed>23.926790424125006</speed>
  <fix>3d</fix>
</trkpt>
<trkpt lat="-27.2650934" lon="151.3488789">
  <ele>533.55</ele>
  <time>2026-09-01T20:01:36Z</time>
  <course>268.53</course>
  <speed>24.64</speed>
  <fix>3d</fix>
</trkpt>
<trkpt lat="-27.2650956" lon="151.3487802">
  <ele>533.69</ele>
  <time>2026-09-01T20:01:36Z</time>
  <course>268.59</course>
  <speed>23.606408028329934</speed>
  <fix>3d</fix>
</trkpt>
<trkpt lat="-27.2650944" lon="151.3488295">
  <ele>533.63</ele>
  <time>2026-09-01T20:01:36Z</time>
  <course>268.59</course>
  <speed>24.21</speed>
  <fix>3d</fix>
</trkpt>
<trkpt lat="-27.265096" lon="151.3487567">
  <ele>533.7</ele>
  <time>2026-09-01T20:01:36Z</time>
  <course>268.61</course>
  <speed>23.296029704651392</speed>
  <fix>3d</fix>
</trkpt>
<trkpt lat="-27.2650944" lon="151.3488295">
  <ele>533.63</ele>
  <time>2026-09-01T20:01:36Z</time>
  <course>268.59</course>
  <speed>24.21</speed>
  <fix>3d</fix>
</trkpt>
<trkpt lat="-27.2650965" lon="151.3487333">
  <ele>533.68</ele>
  <time>2026-09-01T20:01:36Z</time>
  <course>268.63</course>
  <speed>22.995880065785695</speed>
  <fix>3d</fix>
</trkpt>
<trkpt lat="-27.2650955" lon="151.3487812">
  <ele>533.68</ele>
  <time>2026-09-01T20:01:36Z</time>
  <course>268.65</course>
  <speed>23.62</speed>
  <fix>3d</fix>
</trkpt>
<trkpt lat="-27.265097" lon="151.3487099">
  <ele>533.65</ele>
  <time>2026-09-01T20:01:36Z</time>
  <course>268.65</course>
  <speed>22.705505940189923</speed>
  <fix>3d</fix>
</trkpt>
<trkpt lat="-27.2650955" lon="151.3487812">
  <ele>533.68</ele>
  <time>2026-09-01T20:01:36Z</time>
  <course>268.65</course>
  <speed>23.62</speed>
  <fix>3d</fix>
</trkpt>
<trkpt lat="-27.2650974" lon="151.3486872">
  <ele>533.6</ele>
  <time>2026-09-01T20:01:36Z</time>
  <course>268.66</course>
  <speed>22.425353954843168</speed>
  <fix>3d</fix>
</trkpt>
<trkpt lat="-27.2650965" lon="151.3487341">
  <ele>533.67</ele>
  <time>2026-09-01T20:01:36Z</time>
  <course>268.69</course>
  <speed>23.01</speed>
  <fix>3d</fix>
</trkpt>
<trkpt lat="-27.2650979" lon="151.3486647">
  <ele>533.54</ele>
  <time>2026-09-01T20:01:36Z</time>
  <course>268.67</course>
  <speed>22.165197946330192</speed>
  <fix>3d</fix>
</trkpt>
<trkpt lat="-27.2650965" lon="151.3487341">
  <ele>533.67</ele>
  <time>2026-09-01T20:01:36Z</time>
  <course>268.69</course>
  <speed>23.01</speed>
  <fix>3d</fix>
</trkpt>
<trkpt lat="-27.2650983" lon="151.3486424">
  <ele>533.46</ele>
  <time>2026-09-01T20:01:36Z</time>
  <course>268.69</course>
  <speed>21.915040497338808</speed>
  <fix>3d</fix>
</trkpt>
<trkpt lat="-27.2650974" lon="151.3486883">
  <ele>533.59</ele>
  <time>2026-09-01T20:01:36Z</time>
  <course>268.73</course>
  <speed>22.45</speed>
  <fix>3d</fix>
</trkpt>
<trkpt lat="-27.2650987" lon="151.3486203">
  <ele>533.38</ele>
  <time>2026-09-01T20:01:36Z</time>
  <course>268.72</course>
  <speed>21.674881775917488</speed>
  <fix>3d</fix>
</trkpt>
<trkpt lat="-27.2650974" lon="151.3486883">
  <ele>533.59</ele>
  <time>2026-09-01T20:01:36Z</time>
  <course>268.73</course>
  <speed>22.45</speed>
  <fix>3d</fix>
</trkpt>
<trkpt lat="-27.2650991" lon="151.3485986">
  <ele>533.28</ele>
  <time>2026-09-01T20:01:36Z</time>
  <course>268.74</course>
  <speed>21.44493413372958</speed>
  <fix>3d</fix>
</trkpt>
<trkpt lat="-27.2650983" lon="151.3486433">
  <ele>533.45</ele>
  <time>2026-09-01T20:01:36Z</time>
  <course>268.76</course>
  <speed>21.93</speed>
  <fix>3d</fix>
</trkpt>
<trkpt lat="-27.2650996" lon="151.3485771">
  <ele>533.16</ele>
  <time>2026-09-01T20:01:36Z</time>
  <course>268.76</course>
  <speed>21.224770905712976</speed>
  <fix>3d</fix>
</trkpt>
<trkpt lat="-27.2650983" lon="151.3486433">
  <ele>533.45</ele>
  <time>2026-09-01T20:01:36Z</time>
  <course>268.76</course>
  <speed>21.93</speed>
  <fix>3d</fix>
</trkpt>
<trkpt lat="-27.2651" lon="151.3485557">
  <ele>533.06</ele>
  <time>2026-09-01T20:01:36Z</time>
  <course>268.77</course>
  <speed>21.004820875218147</speed>
  <fix>3d</fix>
</trkpt>
<trkpt lat="-27.2650991" lon="151.3485994">
  <ele>533.27</ele>
  <time>2026-09-01T20:01:36Z</time>
  <course>268.76</course>
  <speed>21.45</speed>
  <fix>3d</fix>
</trkpt>
<trkpt lat="-27.2651004" lon="151.3485346">
  <ele>532.93</ele>
  <time>2026-09-01T20:01:36Z</time>
  <course>268.77</course>
  <speed>20.804867218994694</speed>
  <fix>3d</fix>
</trkpt>
<trkpt lat="-27.2650991" lon="151.3485994">
  <ele>533.27</ele>
  <time>2026-09-01T20:01:36Z</time>
  <course>268.76</course>
  <speed>21.45</speed>
  <fix>3d</fix>
</trkpt>
<trkpt lat="-27.2651008" lon="151.3485136">
  <ele>532.81</ele>
  <time>2026-09-01T20:01:36Z</time>
  <course>268.77</course>
  <speed>20.604698493304873</speed>
  <fix>3d</fix>
</trkpt>
<trkpt lat="-27.2650999" lon="151.3485565">
  <ele>533.05</ele>
  <time>2026-09-01T20:01:36Z</time>
  <course>268.76</course>
  <speed>21.02</speed>
  <fix>3d</fix>
</trkpt>
<trkpt lat="-27.2651012" lon="151.348493">
  <ele>532.66</ele>
  <time>2026-09-01T20:01:36Z</time>
  <course>268.77</course>
  <speed>20.414742222227545</speed>
  <fix>3d</fix>
</trkpt>
<trkpt lat="-27.2650999" lon="151.3485565">
  <ele>533.05</ele>
  <time>2026-09-01T20:01:36Z</time>
  <course>268.76</course>
  <speed>21.02</speed>
  <fix>3d</fix>
</trkpt>
<trkpt lat="-27.2651016" lon="151.3484724">
  <ele>532.54</ele>
  <time>2026-09-01T20:01:36Z</time>
  <course>268.76</course>
  <speed>20.234784407055095</speed>
  <fix>3d</fix>
</trkpt>
<trkpt lat="-27.2651008" lon="151.3485145">
  <ele>532.81</ele>
  <time>2026-09-01T20:01:36Z</time>
  <course>268.75</course>
  <speed>20.62</speed>
  <fix>3d</fix>
</trkpt>
<trkpt lat="-27.265102" lon="151.3484521">
  <ele>532.39</ele>
  <time>2026-09-01T20:01:36Z</time>
  <course>268.76</course>
  <speed>20.054610442489277</speed>
  <fix>3d</fix>
</trkpt>
<trkpt lat="-27.2651008" lon="151.3485145">
  <ele>532.81</ele>
  <time>2026-09-01T20:01:36Z</time>
  <course>268.75</course>
  <speed>20.62</speed>
  <fix>3d</fix>
</trkpt>
<trkpt lat="-27.2651024" lon="151.348432">
  <ele>532.25</ele>
  <time>2026-09-01T20:01:36Z</time>
  <course>268.75</course>
  <speed>19.8846498586221</speed>
  <fix>3d</fix>
</trkpt>
<trkpt lat="-27.2651015" lon="151.3484732">
  <ele>532.54</ele>
  <time>2026-09-01T20:01:36Z</time>
  <course>268.74</course>
  <speed>20.24</speed>
  <fix>3d</fix>
</trkpt>
<trkpt lat="-27.2651027" lon="151.3484119">
  <ele>532.1</ele>
  <time>2026-09-01T20:01:36Z</time>
  <course>268.75</course>
  <speed>19.724687576739967</speed>
  <fix>3d</fix>
</trkpt>
<trkpt lat="-27.2651015" lon="151.3484732">
  <ele>532.54</ele>
  <time>2026-09-01T20:01:36Z</time>
  <course>268.74</course>
  <speed>20.24</speed>
  <fix>3d</fix>
</trkpt>
<trkpt lat="-27.2651031" lon="151.348392">
  <ele>531.94</ele>
  <time>2026-09-01T20:01:36Z</time>
  <course>268.75</course>
  <speed>19.564725911701395</speed>
  <fix>3d</fix>
</trkpt>
<trkpt lat="-27.2651023" lon="151.3484327">
  <ele>532.25</ele>
  <time>2026-09-01T20:01:36Z</time>
  <course>268.74</course>
  <speed>19.89</speed>
  <fix>3d</fix>
</trkpt>
<trkpt lat="-27.2651035" lon="151.3483724">
  <ele>531.78</ele>
  <time>2026-09-01T20:01:36Z</time>
  <course>268.74</course>
  <speed>19.404764878761092</speed>
  <fix>3d</fix>
</trkpt>
<trkpt lat="-27.2651023" lon="151.3484327">
  <ele>532.25</ele>
  <time>2026-09-01T20:01:36Z</time>
  <course>268.74</course>
  <speed>19.89</speed>
  <fix>3d</fix>
</trkpt>
<trkpt lat="-27.2651039" lon="151.3483528">
  <ele>531.62</ele>
  <time>2026-09-01T20:01:36Z</time>
  <course>268.74</course>
  <speed>19.26457889495641</speed>
  <fix>3d</fix>
</trkpt>
<trkpt lat="-27.2651031" lon="151.3483928">
  <ele>531.94</ele>
  <time>2026-09-01T20:01:36Z</time>
  <course>268.73</course>
  <speed>19.57</speed>
  <fix>3d</fix>
</trkpt>
<trkpt lat="-27.2651043" lon="151.3483335">
  <ele>531.46</ele>
  <time>2026-09-01T20:01:36Z</time>
  <course>268.73</course>
  <speed>19.114614827403663</speed>
  <fix>3d</fix>
</trkpt>
<trkpt lat="-27.2651031" lon="151.3483928">
  <ele>531.94</ele>
  <time>2026-09-01T20:01:36Z</time>
  <course>268.73</course>
  <speed>19.57</speed>
  <fix>3d</fix>
</trkpt>
<trkpt lat="-27.2651047" lon="151.3483143">
  <ele>531.29</ele>
  <time>2026-09-01T20:01:36Z</time>
  <course>268.73</course>
  <speed>18.97464887685672</speed>
  <fix>3d</fix>
</trkpt>
<trkpt lat="-27.2651039" lon="151.3483536">
  <ele>531.63</ele>
  <time>2026-09-01T20:01:36Z</time>
  <course>268.72</course>
  <speed>19.27</speed>
  <fix>3d</fix>
</trkpt>
<trkpt lat="-27.2651051" lon="151.3482952">
  <ele>531.13</ele>
  <time>2026-09-01T20:01:36Z</time>
  <course>268.73</course>
  <speed>18.844680947153233</speed>
  <fix>3d</fix>
</trkpt>
<trkpt lat="-27.2651039" lon="151.3483536">
  <ele>531.63</ele>
  <time>2026-09-01T20:01:36Z</time>
  <course>268.72</course>
  <speed>19.27</speed>
  <fix>3d</fix>
</trkpt>
<trkpt lat="-27.2651054" lon="151.3482761">
  <ele>530.95</ele>
  <time>2026-09-01T20:01:36Z</time>
  <course>268.72</course>
  <speed>18.714713462941397</speed>
  <fix>3d</fix>
</trkpt>
<trkpt lat="-27.2651046" lon="151.3483149">
  <ele>531.3</ele>
  <time>2026-09-01T20:01:36Z</time>
  <course>268.71</course>
  <speed>18.98</speed>
  <fix>3d</fix>
</trkpt>
<trkpt lat="-27.2651058" lon="151.3482574">
  <ele>530.78</ele>
  <time>2026-09-01T20:01:36Z</time>
  <course>268.72</course>
  <speed>18.584746433567503</speed>
  <fix>3d</fix>
</trkpt>
<trkpt lat="-27.2651046" lon="151.3483149">
  <ele>531.3</ele>
  <time>2026-09-01T20:01:36Z</time>
  <course>268.71</course>
  <speed>18.98</speed>
  <fix>3d</fix>
</trkpt>
<trkpt lat="-27.2651062" lon="151.3482387">
  <ele>530.61</ele>
  <time>2026-09-01T20:01:36Z</time>
  <course>268.71</course>
  <speed>18.464552526395</speed>
  <fix>3d</fix>
</trkpt>
<trkpt lat="-27.2651053" lon="151.3482768">
  <ele>530.95</ele>
  <time>2026-09-01T20:01:36Z</time>
  <course>268.7</course>
  <speed>18.72</speed>
  <fix>3d</fix>
</trkpt>
<trkpt lat="-27.2651066" lon="151.3482201">
  <ele>530.43</ele>
  <time>2026-09-01T20:01:36Z</time>
  <course>268.71</course>
  <speed>18.344582306501287</speed>
  <fix>3d</fix>
</trkpt>
<trkpt lat="-27.2651053" lon="151.3482768">
  <ele>530.95</ele>
  <time>2026-09-01T20:01:36Z</time>
  <course>268.7</course>
  <speed>18.72</speed>
  <fix>3d</fix>
</trkpt>
<trkpt lat="-27.2651069" lon="151.3482015">
  <ele>530.25</ele>
  <time>2026-09-01T20:01:36Z</time>
  <course>268.71</course>
  <speed>18.22461247873326</speed>
  <fix>3d</fix>
</trkpt>
<trkpt lat="-27.2651062" lon="151.3482393">
  <ele>530.61</ele>
  <time>2026-09-01T20:01:36Z</time>
  <course>268.7</course>
  <speed>18.47</speed>
  <fix>3d</fix>
</trkpt>
<trkpt lat="-27.2651073" lon="151.3481832">
  <ele>530.07</ele>
  <time>2026-09-01T20:01:36Z</time>
  <course>268.7</course>
  <speed>18.11464048773809</speed>
  <fix>3d</fix>
</trkpt>
<trkpt lat="-27.2651062" lon="151.3482393">
  <ele>530.61</ele>
  <time>2026-09-01T20:01:36Z</time>
  <course>268.7</course>
  <speed>18.47</speed>
  <fix>3d</fix>
</trkpt>
<trkpt lat="-27.2651077" lon="151.348165">
  <ele>529.89</ele>
  <time>2026-09-01T20:01:36Z</time>
  <course>268.7</course>
  <speed>18.00466883894286</speed>
  <fix>3d</fix>
</trkpt>
<trkpt lat="-27.2651069" lon="151.3482022">
  <ele>530.26</ele>
  <time>2026-09-01T20:01:36Z</time>
  <course>268.69</course>
  <speed>18.23</speed>
  <fix>3d</fix>
</trkpt>
<trkpt lat="-27.2651081" lon="151.3481467">
  <ele>529.7</ele>
  <time>2026-09-01T20:01:36Z</time>
  <course>268.69</course>
  <speed>17.90469491502159</speed>
  <fix>3d</fix>
</trkpt>
<trkpt lat="-27.2651069" lon="151.3482022">
  <ele>530.26</ele>
  <time>2026-09-01T20:01:36Z</time>
  <course>268.69</course>
  <speed>18.23</speed>
  <fix>3d</fix>
</trkpt>
<trkpt lat="-27.2651084" lon="151.3481287">
  <ele>529.52</ele>
  <time>2026-09-01T20:01:36Z</time>
  <course>268.69</course>
  <speed>17.794723937167443</speed>
  <fix>3d</fix>
</trkpt>
<trkpt lat="-27.2651076" lon="151.3481655">
  <ele>529.89</ele>
  <time>2026-09-01T20:01:36Z</time>
  <course>268.68</course>
  <speed>18.01</speed>
  <fix>3d</fix>
</trkpt>
<trkpt lat="-27.2651088" lon="151.3481107">
  <ele>529.33</ele>
  <time>2026-09-01T20:01:36Z</time>
  <course>268.69</course>
  <speed>17.704519197086377</speed>
  <fix>3d</fix>
</trkpt>
<trkpt lat="-27.2651076" lon="151.3481655">
  <ele>529.89</ele>
  <time>2026-09-01T20:01:36Z</time>
  <course>268.68</course>
  <speed>18.01</speed>
  <fix>3d</fix>
</trkpt>
<trkpt lat="-27.2651092" lon="151.3480928">
  <ele>529.15</ele>
  <time>2026-09-01T20:01:36Z</time>
  <course>268.68</course>
  <speed>17.604544867732308</speed>
  <fix>3d</fix>
</trkpt>
<trkpt lat="-27.2651084" lon="151.3481292">
  <ele>529.52</ele>
  <time>2026-09-01T20:01:36Z</time>
  <course>268.67</course>
  <speed>17.8</speed>
  <fix>3d</fix>
</trkpt>
<trkpt lat="-27.2651095" lon="151.3480751">
  <ele>528.96</ele>
  <time>2026-09-01T20:01:36Z</time>
  <course>268.68</course>
  <speed>17.514568221911723</speed>
  <fix>3d</fix>
</trkpt>
<trkpt lat="-27.2651084" lon="151.3481292">
  <ele>529.52</ele>
  <time>2026-09-01T20:01:36Z</time>
  <course>268.67</course>
  <speed>17.8</speed>
  <fix>3d</fix>
</trkpt>
<trkpt lat="-27.2651099" lon="151.3480574">
  <ele>528.77</ele>
  <time>2026-09-01T20:01:36Z</time>
  <course>268.67</course>
  <speed>17.42459181731383</speed>
  <fix>3d</fix>
</trkpt>
<trkpt lat="-27.2651091" lon="151.3480935">
  <ele>529.15</ele>
  <time>2026-09-01T20:01:36Z</time>
  <course>268.67</course>
  <speed>17.61</speed>
  <fix>3d</fix>
</trkpt>
<trkpt lat="-27.2651103" lon="151.34804">
  <ele>528.58</ele>
  <time>2026-09-01T20:01:36Z</time>
  <course>268.67</course>
  <speed>17.334615657694865</speed>
  <fix>3d</fix>
</trkpt>
<trkpt lat="-27.2651091" lon="151.3480935">
  <ele>529.15</ele>
  <time>2026-09-01T20:01:36Z</time>
  <course>268.67</course>
  <speed>17.61</speed>
  <fix>3d</fix>
</trkpt>
<trkpt lat="-27.2651106" lon="151.3480224">
  <ele>528.39</ele>
  <time>2026-09-01T20:01:36Z</time>
  <course>268.67</course>
  <speed>17.244639746889465</speed>
  <fix>3d</fix>
</trkpt>
<trkpt lat="-27.2651098" lon="151.3480582">
  <ele>528.77</ele>
  <time>2026-09-01T20:01:36Z</time>
  <course>268.66</course>
  <speed>17.42</speed>
  <fix>3d</fix>
</trkpt>
<trkpt lat="-27.265111" lon="151.3480051">
  <ele>528.19</ele>
  <time>2026-09-01T20:01:36Z</time>
  <course>268.66</course>
  <speed>17.16466137155056</speed>
  <fix>3d</fix>
</trkpt>
<trkpt lat="-27.2651098" lon="151.3480582">
  <ele>528.77</ele>
  <time>2026-09-01T20:01:36Z</time>
  <course>268.66</course>
  <speed>17.42</speed>
  <fix>3d</fix>
</trkpt>
<trkpt lat="-27.2633137" lon="151.3520864">
  <ele>542.98</ele>
  <time>2026-09-01T20:01:36Z</time>
  <course>250.0</course>
  <speed>0.0</speed>
  <fix>3d</fix>
</trkpt>
<trkpt lat="-27.2651106" lon="151.3480231">
  <ele>528.39</ele>
  <time>2026-09-01T20:01:36Z</time>
  <course>268.65</course>
  <speed>17.25</speed>
  <fix>3d</fix>
</trkpt>
<trkpt lat="-27.2633137" lon="151.3520864">
  <ele>542.87</ele>
  <time>2026-09-01T20:01:36Z</time>
  <course>250.0</course>
  <speed>0.0632455532033676</speed>
  <fix>3d</fix>
</trkpt>
<trkpt lat="-27.2651106" lon="151.3480231">
  <ele>528.39</ele>
  <time>2026-09-01T20:01:36Z</time>
  <course>268.65</course>
  <speed>17.25</speed>
  <fix>3d</fix>
</trkpt>
<trkpt lat="-27.2633137" lon="151.3520863">
  <ele>542.66</ele>
  <time>2026-09-01T20:01:36Z</time>
  <course>249.97</course>
  <speed>0.20248456731316586</speed>
  <fix>3d</fix>
</trkpt>
<trkpt lat="-27.2642123" lon="151.350046">
  <ele>535.53</ele>
  <time>2026-09-01T20:01:36Z</time>
  <course>268.57</course>
  <speed>8.61</speed>
  <fix>3d</fix>
</trkpt>
<trkpt lat="-27.2633138" lon="151.3520859">
  <ele>542.37</ele>
  <time>2026-09-01T20:01:36Z</time>
  <course>250.37</course>
  <speed>0.4427188724235731</speed>
  <fix>3d</fix>
</trkpt>
<trkpt lat="-27.2642123" lon="151.350046">
  <ele>535.53</ele>
  <time>2026-09-01T20:01:36Z</time>
  <course>268.57</course>
  <speed>8.61</speed>
  <fix>3d</fix>
</trkpt>
<trkpt lat="-27.2633139" lon="151.3520854">
  <ele>542.0</ele>
  <time>2026-09-01T20:01:36Z</time>
  <course>253.27</course>
  <speed>0.7481310045707236</speed>
  <fix>3d</fix>
</trkpt>
<trkpt lat="-27.2633137" lon="151.3520863">
  <ele>542.62</ele>
  <time>2026-09-01T20:01:36Z</time>
  <course>251.0</course>
  <speed>0.25</speed>
  <fix>3d</fix>
</trkpt>
<trkpt lat="-27.263314" lon="151.3520845">
  <ele>541.54</ele>
  <time>2026-09-01T20:01:36Z</time>
  <course>262.63</course>
  <speed>1.100727032465361</speed>
  <fix>3d</fix>
</trkpt>
<trkpt lat="-27.2633137" lon="151.3520863">
  <ele>542.62</ele>
  <time>2026-09-01T20:01:36Z</time>
  <course>251.0</course>
  <speed>0.25</speed>
  <fix>3d</fix>
</trkpt>
<trkpt lat="-27.2633142" lon="151.3520831">
  <ele>541.03</ele>
  <time>2026-09-01T20:01:36Z</time>
  <course>263.45</course>
  <speed>1.5284632805533798</speed>
  <fix>3d</fix>
</trkpt>
<trkpt lat="-27.2633139" lon="151.3520853">
  <ele>541.97</ele>
  <time>2026-09-01T20:01:36Z</time>
  <course>262.75</course>
  <speed>0.75</speed>
  <fix>3d</fix>
</trkpt>
<trkpt lat="-27.2633154" lon="151.3520817">
  <ele>540.46</ele>
  <time>2026-09-01T20:01:36Z</time>
  <course>252.0</course>
  <speed>2.870888364252431</speed>
  <fix>3d</fix>
</trkpt>
<trkpt lat="-27.2633139" lon="151.3520853">
  <ele>541.97</ele>
  <time>2026-09-01T20:01:36Z</time>
  <course>262.75</course>
  <speed>0.75</speed>
  <fix>3d</fix>
</trkpt>
<trkpt lat="-27.2633184" lon="151.3520804">
  <ele>539.9</ele>
  <time>2026-09-01T20:01:36Z</time>
  <course>243.92</course>
  <speed>4.392596043343844</speed>
  <fix>3d</fix>
</trkpt>
<trkpt lat="-27.2633147" lon="151.3520832">
  <ele>541.02</ele>
  <time>2026-09-01T20:01:36Z</time>
  <course>226.48</course>
  <speed>1.78</speed>
  <fix>3d</fix>
</trkpt>
<trkpt lat="-27.2633228" lon="151.3520791">
  <ele>539.41</ele>
  <time>2026-09-01T20:01:36Z</time>
  <course>238.08</course>
  <speed>5.69659547449176</speed>
  <fix>3d</fix>
</trkpt>
<trkpt lat="-27.2633147" lon="151.3520832">
  <ele>541.02</ele>
  <time>2026-09-01T20:01:36Z</time>
  <course>226.48</course>
  <speed>1.78</speed>
  <fix>3d</fix>
</trkpt>
<trkpt lat="-27.2633283" lon="151.3520778">
  <ele>538.99</ele>
  <time>2026-09-01T20:01:36Z</time>
  <course>233.37</course>
  <speed>6.719196380520516</speed>
  <fix>3d</fix>
</trkpt>
<trkpt lat="-27.263319" lon="151.3520805">
  <ele>539.94</ele>
  <time>2026-09-01T20:01:36Z</time>
  <course>198.99</course>
  <speed>4.19</speed>
  <fix>3d</fix>
</trkpt>
<trkpt lat="-27.2633346" lon="151.3520763">
  <ele>538.68</ele>
  <time>2026-09-01T20:01:36Z</time>
  <course>229.69</course>
  <speed>7.490694226839058</speed>
  <fix>3d</fix>
</trkpt>
<trkpt lat="-27.263319" lon="151.3520805">
  <ele>539.94</ele>
  <time>2026-09-01T20:01:36Z</time>
  <course>198.99</course>
  <speed>4.19</speed>
  <fix>3d</fix>
</trkpt>
<trkpt lat="-27.2633414" lon="151.3520744">
  <ele>538.49</ele>
  <time>2026-09-01T20:01:36Z</time>
  <course>227.08</course>
  <speed>7.956663873760158</speed>
  <fix>3d</fix>
</trkpt>
<trkpt lat="-27.2633286" lon="151.3520778">
  <ele>539.05</ele>
  <time>2026-09-01T20:01:36Z</time>
  <course>192.4</course>
  <speed>6.57</speed>
  <fix>3d</fix>
</trkpt>
<trkpt lat="-27.2633485" lon="151.3520715">
  <ele>538.4</ele>
  <time>2026-09-01T20:01:36Z</time>
  <course>225.54</course>
  <speed>8.289420968921773</speed>
  <fix>3d</fix>
</trkpt>
<trkpt lat="-27.2633286" lon="151.3520778">
  <ele>539.05</ele>
  <time>2026-09-01T20:01:36Z</time>
  <course>192.4</course>
  <speed>6.57</speed>
  <fix>3d</fix>
</trkpt>
<trkpt lat="-27.2633553" lon="151.3520677">
  <ele>538.36</ele>
  <time>2026-09-01T20:01:36Z</time>
  <course>225.12</course>
  <speed>8.618265486743837</speed>
  <fix>3d</fix>
</trkpt>
<trkpt lat="-27.2633413" lon="151.3520741">
  <ele>538.54</ele>
  <time>2026-09-01T20:01:36Z</time>
  <course>197.68</course>
  <speed>7.84</speed>
  <fix>3d</fix>
</trkpt>
<trkpt lat="-27.263362" lon="151.352063">
  <ele>538.34</ele>
  <time>2026-09-01T20:01:36Z</time>
  <course>225.71</course>
  <speed>8.99193527556777</speed>
  <fix>3d</fix>
</trkpt>
<trkpt lat="-27.2633413" lon="151.3520741">
  <ele>538.54</ele>
  <time>2026-09-01T20:01:36Z</time>
  <course>197.68</course>
  <speed>7.84</speed>
  <fix>3d</fix>
</trkpt>
<trkpt lat="-27.2633685" lon="151.3520574">
  <ele>538.32</ele>
  <time>2026-09-01T20:01:36Z</time>
  <course>227.25</course>
  <speed>9.434341524452037</speed>
  <fix>3d</fix>
</trkpt>
<trkpt lat="-27.2633548" lon="151.3520676">
  <ele>538.37</ele>
  <time>2026-09-01T20:01:36Z</time>
  <course>208.99</course>
  <speed>8.58</speed>
  <fix>3d</fix>
</trkpt>
<trkpt lat="-27.2633749" lon="151.3520507">
  <ele>538.29</ele>
  <time>2026-09-01T20:01:36Z</time>
  <course>229.58</course>
  <speed>9.91367742061441</speed>
  <fix>3d</fix>
</trkpt>
<trkpt lat="-27.2633548" lon="151.3520676">
  <ele>538.37</ele>
  <time>2026-09-01T20:01:36Z</time>
  <course>208.99</course>
  <speed>8.58</speed>
  <fix>3d</fix>
</trkpt>
<trkpt lat="-27.263381" lon="151.3520432">
  <ele>538.25</ele>
  <time>2026-09-01T20:01:36Z</time>
  <course>232.32</course>
  <speed>10.433278487608773</speed>
  <fix>3d</fix>
</trkpt>
<trkpt lat="-27.263368" lon="151.3520572">
  <ele>538.32</ele>
  <time>2026-09-01T20:01:36Z</time>
  <course>220.13</course>
  <speed>9.39</speed>
  <fix>3d</fix>
</trkpt>
<trkpt lat="-27.2633869" lon="151.3520349">
  <ele>538.18</ele>
  <time>2026-09-01T20:01:36Z</time>
  <course>235.13</course>
  <speed>10.950114154656106</speed>
  <fix>3d</fix>
</trkpt>
<trkpt lat="-27.263368" lon="151.3520572">
  <ele>538.32</ele>
  <time>2026-09-01T20:01:36Z</time>
  <course>220.13</course>
  <speed>9.39</speed>
  <fix>3d</fix>
</trkpt>
<trkpt lat="-27.2633926" lon="151.3520256">
  <ele>538.1</ele>
  <time>2026-09-01T20:01:36Z</time>
  <course>237.99</course>
  <speed>11.491740512211368</speed>
  <fix>3d</fix>
</trkpt>
<trkpt lat="-27.2633806" lon="151.3520431">
  <ele>538.24</ele>
  <time>2026-09-01T20:01:36Z</time>
  <course>229.29</course>
  <speed>10.38</speed>
  <fix>3d</fix>
</trkpt>
<trkpt lat="-27.2633981" lon="151.3520154">
  <ele>538.0</ele>
  <time>2026-09-01T20:01:36Z</time>
  <course>240.75</course>
  <speed>12.0364778901471</speed>
  <fix>3d</fix>
</trkpt>
<trkpt lat="-27.2633806" lon="151.3520431">
  <ele>538.24</ele>
  <time>2026-09-01T20:01:36Z</time>
  <course>229.29</course>
  <speed>10.38</speed>
  <fix>3d</fix>
</trkpt>
<trkpt lat="-27.2634032" lon="151.3520044">
  <ele>537.89</ele>
  <time>2026-09-01T20:01:36Z</time>
  <course>243.26</course>
  <speed>12.580274241843856</speed>
  <fix>3d</fix>
</trkpt>
<trkpt lat="-27.2633923" lon="151.3520255">
  <ele>538.1</ele>
  <time>2026-09-01T20:01:36Z</time>
  <course>236.99</course>
  <speed>11.45</speed>
  <fix>3d</fix>
</trkpt>
<trkpt lat="-27.2634081" lon="151.3519926">
  <ele>537.77</ele>
  <time>2026-09-01T20:01:36Z</time>
  <course>245.56</course>
  <speed>13.120160059999268</speed>
  <fix>3d</fix>
</trkpt>
<trkpt lat="-27.2633923" lon="151.3520255">
  <ele>538.1</ele>
  <time>2026-09-01T20:01:36Z</time>
  <course>236.99</course>
  <speed>11.45</speed>
  <fix>3d</fix>
</trkpt>
<trkpt lat="-27.2634126" lon="151.3519801">
  <ele>537.65</ele>
  <time>2026-09-01T20:01:36Z</time>
  <course>247.66</course>
  <speed>13.66339635668965</speed>
  <fix>3d</fix>
</trkpt>
<trkpt lat="-27.2634028" lon="151.3520044">
  <ele>537.89</ele>
  <time>2026-09-01T20:01:36Z</time>
  <course>243.63</course>
  <speed>12.54</speed>
  <fix>3d</fix>
</trkpt>
<trkpt lat="-27.2634167" lon="151.3519667">
  <ele>537.54</ele>
  <time>2026-09-01T20:01:36Z</time>
  <course>249.61</course>
  <speed>14.192758717035952</speed>
  <fix>3d</fix>
</trkpt>
<trkpt lat="-27.2634028" lon="151.3520044">
  <ele>537.89</ele>
  <time>2026-09-01T20:01:36Z</time>
  <course>243.63</course>
  <speed>12.54</speed>
  <fix>3d</fix>
</trkpt>
<trkpt lat="-27.2634204" lon="151.3519528">
  <ele>537.41</ele>
  <time>2026-09-01T20:01:36Z</time>
  <course>251.5</course>
  <speed>14.715631145146306</speed>
  <fix>3d</fix>
</trkpt>
<trkpt lat="-27.2634122" lon="151.3519801">
  <ele>537.66</ele>
  <time>2026-09-01T20:01:36Z</time>
  <course>249.37</course>
  <speed>13.63</speed>
  <fix>3d</fix>
</trkpt>
<trkpt lat="-27.2634238" lon="151.351938">
  <ele>537.32</ele>
  <time>2026-09-01T20:01:36Z</time>
  <course>253.39</course>
  <speed>15.236551447095895</speed>
  <fix>3d</fix>
</trkpt>
<trkpt lat="-27.2634122" lon="151.3519801">
  <ele>537.66</ele>
  <time>2026-09-01T20:01:36Z</time>
  <course>249.37</course>
  <speed>13.63</speed>
  <fix>3d</fix>
</trkpt>
<trkpt lat="-27.2634269" lon="151.3519229">
  <ele>537.22</ele>
  <time>2026-09-01T20:01:36Z</time>
  <course>255.31</course>
  <speed>15.736715032051638</speed>
  <fix>3d</fix>
</trkpt>
<trkpt lat="-27.2634201" lon="151.3519528">
  <ele>537.43</ele>
  <time>2026-09-01T20:01:36Z</time>
  <course>254.21</course>
  <speed>14.69</speed>
  <fix>3d</fix>
</trkpt>
<trkpt lat="-27.2634296" lon="151.3519069">
  <ele>537.13</ele>
  <time>2026-09-01T20:01:36Z</time>
  <course>257.29</course>
  <speed>16.225181046755687</speed>
  <fix>3d</fix>
</trkpt>
<trkpt lat="-27.2634201" lon="151.3519528">
  <ele>537.43</ele>
  <time>2026-09-01T20:01:36Z</time>
  <course>254.21</course>
  <speed>14.69</speed>
  <fix>3d</fix>
</trkpt>
<trkpt lat="-27.2634319" lon="151.3518906">
  <ele>537.04</ele>
  <time>2026-09-01T20:01:36Z</time>
  <course>259.09</course>
  <speed>16.70620543390988</speed>
  <fix>3d</fix>
</trkpt>
<trkpt lat="-27.2634265" lon="151.351923">
  <ele>537.22</ele>
  <time>2026-09-01T20:01:36Z</time>
  <course>258.2</course>
  <speed>15.71</speed>
  <fix>3d</fix>
</trkpt>
<trkpt lat="-27.2634339" lon="151.3518736">
  <ele>536.98</ele>
  <time>2026-09-01T20:01:36Z</time>
  <course>260.65</course>
  <speed>17.170422242915286</speed>
  <fix>3d</fix>
</trkpt>
<trkpt lat="-27.2634265" lon="151.351923">
  <ele>537.22</ele>
  <time>2026-09-01T20:01:36Z</time>
  <course>258.2</course>
  <speed>15.71</speed>
  <fix>3d</fix>
</trkpt>
<trkpt lat="-27.2634356" lon="151.3518561">
  <ele>536.93</ele>
  <time>2026-09-01T20:01:36Z</time>
  <course>262.12</course>
  <speed>17.608421280739506</speed>
  <fix>3d</fix>
</trkpt>
<trkpt lat="-27.2634317" lon="151.3518906">
  <ele>537.05</ele>
  <time>2026-09-01T20:01:36Z</time>
  <course>261.61</course>
  <speed>16.68</speed>
  <fix>3d</fix>
</trkpt>
<trkpt lat="-27.2634369" lon="151.3518382">
  <ele>536.89</ele>
  <time>2026-09-01T20:01:36Z</time>
  <course>263.54</course>
  <speed>18.036191393972288</speed>
  <fix>3d</fix>
</trkpt>
<trkpt lat="-27.2634317" lon="151.3518906">
  <ele>537.05</ele>
  <time>2026-09-01T20:01:36Z</time>
  <course>261.61</course>
  <speed>16.68</speed>
  <fix>3d</fix>
</trkpt>
<trkpt lat="-27.2634379" lon="151.3518191">
  <ele>536.87</ele>
  <time>2026-09-01T20:01:36Z</time>
  <course>264.8</course>
  <speed>18.462935844550834</speed>
  <fix>3d</fix>
</trkpt>
<trkpt lat="-27.2634354" lon="151.3518562">
  <ele>536.93</ele>
  <time>2026-09-01T20:01:36Z</time>
  <course>264.53</course>
  <speed>17.59</speed>
  <fix>3d</fix>
</trkpt>
<trkpt lat="-27.2634386" lon="151.3518002">
  <ele>536.86</ele>
  <time>2026-09-01T20:01:36Z</time>
  <course>265.87</course>
  <speed>18.859546654148396</speed>
  <fix>3d</fix>
</trkpt>
<trkpt lat="-27.2634354" lon="151.3518562">
  <ele>536.93</ele>
  <time>2026-09-01T20:01:36Z</time>
  <course>264.53</course>
  <speed>17.59</speed>
  <fix>3d</fix>
</trkpt>
<trkpt lat="-27.263439" lon="151.351781">
  <ele>536.87</ele>
  <time>2026-09-01T20:01:36Z</time>
  <course>266.93</course>
  <speed>19.24203731417232</speed>
  <fix>3d</fix>
</trkpt>
<trkpt lat="-27.2634377" lon="151.3518199">
  <ele>536.87</ele>
  <time>2026-09-01T20:01:36Z</time>
  <course>267.0</course>
  <speed>18.43</speed>
  <fix>3d</fix>
</trkpt>
<trkpt lat="-27.2634391" lon="151.3517613">
  <ele>536.9</ele>
  <time>2026-09-01T20:01:36Z</time>
  <course>267.93</course>
  <speed>19.61</speed>
  <fix>3d</fix>
</trkpt>
<trkpt lat="-27.2634377" lon="151.3518199">
  <ele>536.87</ele>
  <time>2026-09-01T20:01:36Z</time>
  <course>267.0</course>
  <speed>18.43</speed>
  <fix>3d</fix>
</trkpt>
<trkpt lat="-27.2634391" lon="151.3517413">
  <ele>536.94</ele>
  <time>2026-09-01T20:01:36Z</time>
  <course>268.85</course>
  <speed>19.95210765808966</speed>
  <fix>3d</fix>
</trkpt>
<trkpt lat="-27.2634388" lon="151.351782">
  <ele>536.88</ele>
  <time>2026-09-01T20:01:36Z</time>
  <course>269.06</course>
  <speed>19.21</speed>
  <fix>3d</fix>
</trkpt>
<trkpt lat="-27.2634387" lon="151.3517211">
  <ele>537.0</ele>
  <time>2026-09-01T20:01:36Z</time>
  <course>269.65</course>
  <speed>20.28745671591193</speed>
  <fix>3d</fix>
</trkpt>
<trkpt lat="-27.2634388" lon="151.351782">
  <ele>536.88</ele>
  <time>2026-09-01T20:01:36Z</time>
  <course>269.06</course>
  <speed>19.21</speed>
  <fix>3d</fix>
</trkpt>
<trkpt lat="-27.2634381" lon="151.3517005">
  <ele>537.07</ele>
  <time>2026-09-01T20:01:36Z</time>
  <course>270.36</course>
  <speed>20.605149841726462</speed>
  <fix>3d</fix>
</trkpt>
<trkpt lat="-27.2634389" lon="151.3517424">
  <ele>536.94</ele>
  <time>2026-09-01T20:01:36Z</time>
  <course>270.77</course>
  <speed>19.93</speed>
  <fix>3d</fix>
</trkpt>
<trkpt lat="-27.2634373" lon="151.3516795">
  <ele>537.14</ele>
  <time>2026-09-01T20:01:36Z</time>
  <course>270.97</course>
  <speed>20.884436789149955</speed>
  <fix>3d</fix>
</trkpt>
<trkpt lat="-27.2634389" lon="151.3517424">
  <ele>536.94</ele>
  <time>2026-09-01T20:01:36Z</time>
  <course>270.77</course>
  <speed>19.93</speed>
  <fix>3d</fix>
</trkpt>
<trkpt lat="-27.2634363" lon="151.3516583">
  <ele>537.21</ele>
  <time>2026-09-01T20:01:36Z</time>
  <course>271.42</course>
  <speed>21.13409567499873</speed>
  <fix>3d</fix>
</trkpt>
<trkpt lat="-27.263438" lon="151.3517015">
  <ele>537.06</ele>
  <time>2026-09-01T20:01:36Z</time>
  <course>272.15</course>
  <speed>20.57</speed>
  <fix>3d</fix>
</trkpt>
<trkpt lat="-27.2634351" lon="151.3516369">
  <ele>537.28</ele>
  <time>2026-09-01T20:01:36Z</time>
  <course>271.84</course>
  <speed>21.3427388120644</speed>
  <fix>3d</fix>
</trkpt>
<trkpt lat="-27.263438" lon="151.3517015">
  <ele>537.06</ele>
  <time>2026-09-01T20:01:36Z</time>
  <course>272.15</course>
  <speed>20.57</speed>
  <fix>3d</fix>
</trkpt>
<trkpt lat="-27.2634338" lon="151.3516153">
  <ele>537.34</ele>
  <time>2026-09-01T20:01:36Z</time>
  <course>272.22</course>
  <speed>21.530926594087862</speed>
  <fix>3d</fix>
</trkpt>
<trkpt lat="-27.2634362" lon="151.3516594">
  <ele>537.2</ele>
  <time>2026-09-01T20:01:36Z</time>
  <course>273.19</course>
  <speed>21.1</speed>
  <fix>3d</fix>
</trkpt>
<trkpt lat="-27.2634325" lon="151.3515935">
  <ele>537.39</ele>
  <time>2026-09-01T20:01:36Z</time>
  <course>272.61</course>
  <speed>21.678387855188863</speed>
  <fix>3d</fix>
</trkpt>
<trkpt lat="-27.2634362" lon="151.3516594">
  <ele>537.2</ele>
  <time>2026-09-01T20:01:36Z</time>
  <course>273.19</course>
  <speed>21.1</speed>
  <fix>3d</fix>
</trkpt>
<trkpt lat="-27.263431" lon="151.3515721">
  <ele>537.43</ele>
  <time>2026-09-01T20:01:36Z</time>
  <course>272.85</course>
  <speed>21.804815981796313</speed>
  <fix>3d</fix>
</trkpt>
<trkpt lat="-27.2634338" lon="151.3516164">
  <ele>537.33</ele>
  <time>2026-09-01T20:01:36Z</time>
  <course>273.92</course>
  <speed>21.5</speed>
  <fix>3d</fix>
</trkpt>
<trkpt lat="-27.2634295" lon="151.3515501">
  <ele>537.45</ele>
  <time>2026-09-01T20:01:36Z</time>
  <course>273.08</course>
  <speed>21.900031963446995</speed>
  <fix>3d</fix>
</trkpt>
<trkpt lat="-27.2634338" lon="151.3516164">
  <ele>537.33</ele>
  <time>2026-09-01T20:01:36Z</time>
  <course>273.92</course>
  <speed>21.5</speed>
  <fix>3d</fix>
</trkpt>
<trkpt lat="-27.2634279" lon="151.351528">
  <ele>537.45</ele>
  <time>2026-09-01T20:01:36Z</time>
  <course>273.33</course>
  <speed>21.963881715216008</speed>
  <fix>3d</fix>
</trkpt>
<trkpt lat="-27.263431" lon="151.3515728">
  <ele>537.42</ele>
  <time>2026-09-01T20:01:36Z</time>
  <course>274.4</course>
  <speed>21.78</speed>
  <fix>3d</fix>
</trkpt>
<trkpt lat="-27.2634262" lon="151.3515059">
  <ele>537.45</ele>
  <time>2026-09-01T20:01:36Z</time>
  <course>273.6</course>
  <speed>22.026985722063742</speed>
  <fix>3d</fix>
</trkpt>
<trkpt lat="-27.263431" lon="151.3515728">
  <ele>537.42</ele>
  <time>2026-09-01T20:01:36Z</time>
  <course>274.4</course>
  <speed>21.78</speed>
  <fix>3d</fix>
</trkpt>
<trkpt lat="-27.2634246" lon="151.3514837">
  <ele>537.41</ele>
  <time>2026-09-01T20:01:36Z</time>
  <course>273.88</course>
  <speed>22.070217488733544</speed>
  <fix>3d</fix>
</trkpt>
<trkpt lat="-27.2634278" lon="151.3515287">
  <ele>537.45</ele>
  <time>2026-09-01T20:01:36Z</time>
  <course>274.69</course>
  <speed>21.96</speed>
  <fix>3d</fix>
</trkpt>
<trkpt lat="-27.2634228" lon="151.3514614">
  <ele>537.39</ele>
  <time>2026-09-01T20:01:36Z</time>
  <course>274.09</course>
  <speed>22.10268083287636</speed>
  <fix>3d</fix>
</trkpt>
<trkpt lat="-27.2634278" lon="151.3515287">
  <ele>537.45</ele>
  <time>2026-09-01T20:01:36Z</time>
  <course>274.69</course>
  <speed>21.96</speed>
  <fix>3d</fix>
</trkpt>
<trkpt lat="-27.2634211" lon="151.3514391">
  <ele>537.34</ele>
  <time>2026-09-01T20:01:36Z</time>
  <course>274.25</course>
  <speed>22.124341798119104</speed>
  <fix>3d</fix>
</trkpt>
<trkpt lat="-27.2634246" lon="151.3514842">
  <ele>537.42</ele>
  <time>2026-09-01T20:01:36Z</time>
  <course>274.88</course>
  <speed>22.06</speed>
  <fix>3d</fix>
</trkpt>
<trkpt lat="-27.2634194" lon="151.3514169">
  <ele>537.28</ele>
  <time>2026-09-01T20:01:36Z</time>
  <course>274.41</course>
  <speed>22.145139421552532</speed>
  <fix>3d</fix>
</trkpt>
<trkpt lat="-27.2634246" lon="151.3514842">
  <ele>537.42</ele>
  <time>2026-09-01T20:01:36Z</time>
  <course>274.88</course>
  <speed>22.06</speed>
  <fix>3d</fix>
</trkpt>
<trkpt lat="-27.2634176" lon="151.3513939">
  <ele>537.22</ele>
  <time>2026-09-01T20:01:36Z</time>
  <course>274.5</course>
  <speed>22.165940088342744</speed>
  <fix>3d</fix>
</trkpt>
<trkpt lat="-27.2634211" lon="151.3514397">
  <ele>537.33</ele>
  <time>2026-09-01T20:01:36Z</time>
  <course>274.99</course>
  <speed>22.12</speed>
  <fix>3d</fix>
</trkpt>
<trkpt lat="-27.2634158" lon="151.3513715">
  <ele>537.15</ele>
  <time>2026-09-01T20:01:36Z</time>
  <course>274.56</course>
  <speed>22.195823931541717</speed>
  <fix>3d</fix>
</trkpt>
<trkpt lat="-27.2634211" lon="151.3514397">
  <ele>537.33</ele>
  <time>2026-09-01T20:01:36Z</time>
  <course>274.99</course>
  <speed>22.12</speed>
  <fix>3d</fix>
</trkpt>
<trkpt lat="-27.2634141" lon="151.3513491">
  <ele>537.08</ele>
  <time>2026-09-01T20:01:36Z</time>
  <course>274.59</course>
  <speed>22.215746667622945</speed>
  <fix>3d</fix>
</trkpt>
<trkpt lat="-27.2634176" lon="151.3513951">
  <ele>537.21</ele>
  <time>2026-09-01T20:01:36Z</time>
  <course>275.04</course>
  <speed>22.17</speed>
  <fix>3d</fix>
</trkpt>
<trkpt lat="-27.2634123" lon="151.3513267">
  <ele>537.0</ele>
  <time>2026-09-01T20:01:36Z</time>
  <course>274.67</course>
  <speed>22.243886800647047</speed>
  <fix>3d</fix>
</trkpt>
<trkpt lat="-27.2634176" lon="151.3513951">
  <ele>537.21</ele>
  <time>2026-09-01T20:01:36Z</time>
  <course>275.04</course>
  <speed>22.17</speed>
  <fix>3d</fix>
</trkpt>
<trkpt lat="-27.2634106" lon="151.3513044">
  <ele>536.93</ele>
  <time>2026-09-01T20:01:36Z</time>
  <course>274.75</course>
  <speed>22.26294679506736</speed>
  <fix>3d</fix>
</trkpt>
<trkpt lat="-27.2634141" lon="151.3513504">
  <ele>537.08</ele>
  <time>2026-09-01T20:01:36Z</time>
  <course>275.03</course>
  <speed>22.21</speed>
  <fix>3d</fix>
</trkpt>
<trkpt lat="-27.2634089" lon="151.351282">
  <ele>536.86</ele>
  <time>2026-09-01T20:01:36Z</time>
  <course>274.79</course>
  <speed>22.282012925227377</speed>
  <fix>3d</fix>
</trkpt>
<trkpt lat="-27.2634141" lon="151.3513504">
  <ele>537.08</ele>
  <time>2026-09-01T20:01:36Z</time>
  <course>275.03</course>
  <speed>22.21</speed>
  <fix>3d</fix>
</trkpt>
<trkpt lat="-27.2634071" lon="151.3512596">
  <ele>536.79</ele>
  <time>2026-09-01T20:01:36Z</time>
  <course>274.74</course>
  <speed>22.30023542476626</speed>
  <fix>3d</fix>
</trkpt>
<trkpt lat="-27.2634107" lon="151.3513057">
  <ele>536.93</ele>
  <time>2026-09-01T20:01:36Z</time>
  <course>274.96</course>
  <speed>22.26</speed>
  <fix>3d</fix>
</trkpt>
<trkpt lat="-27.2634055" lon="151.3512371">
  <ele>536.72</ele>
  <time>2026-09-01T20:01:36Z</time>
  <course>274.69</course>
  <speed>22.327608470232544</speed>
  <fix>3d</fix>
</trkpt>
<trkpt lat="-27.2634107" lon="151.3513057">
  <ele>536.93</ele>
  <time>2026-09-01T20:01:36Z</time>
  <course>274.96</course>
  <speed>22.26</speed>
  <fix>3d</fix>
</trkpt>
<trkpt lat="-27.2634038" lon="151.3512146">
  <ele>536.66</ele>
  <time>2026-09-01T20:01:36Z</time>
  <course>274.65</course>
  <speed>22.345062094342005</speed>
  <fix>3d</fix>
</trkpt>
<trkpt lat="-27.2634073" lon="151.3512608">
  <ele>536.79</ele>
  <time>2026-09-01T20:01:36Z</time>
  <course>274.85</course>
  <speed>22.3</speed>
  <fix>3d</fix>
</trkpt>
<trkpt lat="-27.2634022" lon="151.3511921">
  <ele>536.6</ele>
  <time>2026-09-01T20:01:36Z</time>
  <course>274.61</course>
  <speed>22.35259269078198</speed>
  <fix>3d</fix>
</trkpt>
<trkpt lat="-27.2634073" lon="151.3512608">
  <ele>536.79</ele>
  <time>2026-09-01T20:01:36Z</time>
  <course>274.85</course>
  <speed>22.3</speed>
  <fix>3d</fix>
</trkpt>
<trkpt lat="-27.2634006" lon="151.3511696">
  <ele>536.54</ele>
  <time>2026-09-01T20:01:36Z</time>
  <course>274.55</course>
  <speed>22.369345095464908</speed>
  <fix>3d</fix>
</trkpt>
<trkpt lat="-27.2634039" lon="151.3512159">
  <ele>536.66</ele>
  <time>2026-09-01T20:01:36Z</time>
  <course>274.71</course>
  <speed>22.34</speed>
  <fix>3d</fix>
</trkpt>
<trkpt lat="-27.263399" lon="151.351147">
  <ele>536.48</ele>
  <time>2026-09-01T20:01:36Z</time>
  <course>274.47</course>
  <speed>22.37697477319041</speed>
  <fix>3d</fix>
</trkpt>
<trkpt lat="-27.2634039" lon="151.3512159">
  <ele>536.66</ele>
  <time>2026-09-01T20:01:36Z</time>
  <course>274.71</course>
  <speed>22.34</speed>
  <fix>3d</fix>
</trkpt>
<trkpt lat="-27.2633974" lon="151.3511245">
  <ele>536.41</ele>
  <time>2026-09-01T20:01:36Z</time>
  <course>274.41</course>
  <speed>22.393860765843836</speed>
  <fix>3d</fix>
</trkpt>
<trkpt lat="-27.2634007" lon="151.3511708">
  <ele>536.54</ele>
  <time>2026-09-01T20:01:36Z</time>
  <course>274.53</course>
  <speed>22.37</speed>
  <fix>3d</fix>
</trkpt>
<trkpt lat="-27.2633959" lon="151.3511019">
  <ele>536.37</ele>
  <time>2026-09-01T20:01:36Z</time>
  <course>274.33</course>
  <speed>22.410823278050273</speed>
  <fix>3d</fix>
</trkpt>
<trkpt lat="-27.2634007" lon="151.3511708">
  <ele>536.54</ele>
  <time>2026-09-01T20:01:36Z</time>
  <course>274.53</course>
  <speed>22.37</speed>
  <fix>3d</fix>
</trkpt>
<trkpt lat="-27.2633945" lon="151.3510792">
  <ele>536.31</ele>
  <time>2026-09-01T20:01:36Z</time>
  <course>274.24</course>
  <speed>22.417887946905257</speed>
  <fix>3d</fix>
</trkpt>
<trkpt lat="-27.2633975" lon="151.3511257">
  <ele>536.42</ele>
  <time>2026-09-01T20:01:36Z</time>
  <course>274.33</course>
  <speed>22.39</speed>
  <fix>3d</fix>
</trkpt>
<trkpt lat="-27.263393" lon="151.3510566">
  <ele>536.25</ele>
  <time>2026-09-01T20:01:36Z</time>
  <course>274.1</course>
  <speed>22.43500167149537</speed>
  <fix>3d</fix>
</trkpt>
<trkpt lat="-27.2633975" lon="151.3511257">
  <ele>536.42</ele>
  <time>2026-09-01T20:01:36Z</time>
  <course>274.33</course>
  <speed>22.39</speed>
  <fix>3d</fix>
</trkpt>
<trkpt lat="-27.2633917" lon="151.3510341">
  <ele>536.19</ele>
  <time>2026-09-01T20:01:36Z</time>
  <course>273.99</course>
  <speed>22.451512198513488</speed>
  <fix>3d</fix>
</trkpt>
<trkpt lat="-27.2633945" lon="151.3510806">
  <ele>536.31</ele>
  <time>2026-09-01T20:01:36Z</time>
  <course>274.13</course>
  <speed>22.42</speed>
  <fix>3d</fix>
</trkpt>
<trkpt lat="-27.2633903" lon="151.3510114">
  <ele>536.13</ele>
  <time>2026-09-01T20:01:36Z</time>
  <course>273.91</course>
  <speed>22.478774432784363</speed>
  <fix>3d</fix>
</trkpt>
<trkpt lat="-27.2633945" lon="151.3510806">
  <ele>536.31</ele>
  <time>2026-09-01T20:01:36Z</time>
  <course>274.13</course>
  <speed>22.42</speed>
  <fix>3d</fix>
</trkpt>
<trkpt lat="-27.263389" lon="151.3509887">
  <ele>536.06</ele>
  <time>2026-09-01T20:01:36Z</time>
  <course>273.82</course>
  <speed>22.50611472466983</speed>
  <fix>3d</fix>
</trkpt>
<trkpt lat="-27.2633917" lon="151.3510352">
  <ele>536.19</ele>
  <time>2026-09-01T20:01:36Z</time>
  <course>273.91</course>
  <speed>22.46</speed>
  <fix>3d</fix>
</trkpt>
<trkpt lat="-27.2633877" lon="151.3509661">
  <ele>535.99</ele>
  <time>2026-09-01T20:01:36Z</time>
  <course>273.76</course>
  <speed>22.533532790044266</speed>
  <fix>3d</fix>
</trkpt>
<trkpt lat="-27.2633917" lon="151.3510352">
  <ele>536.19</ele>
  <time>2026-09-01T20:01:36Z</time>
  <course>273.91</course>
  <speed>22.46</speed>
  <fix>3d</fix>
</trkpt>
<trkpt lat="-27.2633865" lon="151.3509439">
  <ele>535.93</ele>
  <time>2026-09-01T20:01:36Z</time>
  <course>273.64</course>
  <speed>22.57101016791229</speed>
  <fix>3d</fix>
</trkpt>
<trkpt lat="-27.2633891" lon="151.3509899">
  <ele>536.06</ele>
  <time>2026-09-01T20:01:36Z</time>
  <course>273.68</course>
  <speed>22.5</speed>
  <fix>3d</fix>
</trkpt>
<trkpt lat="-27.2633853" lon="151.3509202">
  <ele>535.85</ele>
  <time>2026-09-01T20:01:36Z</time>
  <course>273.55</course>
  <speed>22.608566960336073</speed>
  <fix>3d</fix>
</trkpt>
<trkpt lat="-27.2633891" lon="151.3509899">
  <ele>536.06</ele>
  <time>2026-09-01T20:01:36Z</time>
  <course>273.68</course>
  <speed>22.5</speed>
  <fix>3d</fix>
</trkpt>
<trkpt lat="-27.2633841" lon="151.3508975">
  <ele>535.78</ele>
  <time>2026-09-01T20:01:36Z</time>
  <course>273.43</course>
  <speed>22.646202772208852</speed>
  <fix>3d</fix>
</trkpt>
<trkpt lat="-27.2633865" lon="151.3509444">
  <ele>535.93</ele>
  <time>2026-09-01T20:01:36Z</time>
  <course>273.46</course>
  <speed>22.57</speed>
  <fix>3d</fix>
</trkpt>
<trkpt lat="-27.2633829" lon="151.3508747">
  <ele>535.7</ele>
  <time>2026-09-01T20:01:36Z</time>
  <course>273.29</course>
  <speed>22.683372765089413</speed>
  <fix>3d</fix>
</trkpt>
<trkpt lat="-27.2633865" lon="151.3509444">
  <ele>535.93</ele>
  <time>2026-09-01T20:01:36Z</time>
  <course>273.46</course>
  <speed>22.57</speed>
  <fix>3d</fix>
</trkpt>
<trkpt lat="-27.2633819" lon="151.3508517">
  <ele>535.63</ele>
  <time>2026-09-01T20:01:36Z</time>
  <course>273.21</course>
  <speed>22.731170229444853</speed>
  <fix>3d</fix>
</trkpt>
<trkpt lat="-27.2633841" lon="151.3508988">
  <ele>535.78</ele>
  <time>2026-09-01T20:01:36Z</time>
  <course>273.24</course>
  <speed>22.64</speed>
  <fix>3d</fix>
</trkpt>
<trkpt lat="-27.2633808" lon="151.3508287">
  <ele>535.54</ele>
  <time>2026-09-01T20:01:36Z</time>
  <course>273.13</course>
  <speed>22.779554429356164</speed>
  <fix>3d</fix>
</trkpt>
<trkpt lat="-27.2633841" lon="151.3508988">
  <ele>535.78</ele>
  <time>2026-09-01T20:01:36Z</time>
  <course>273.24</course>
  <speed>22.64</speed>
  <fix>3d</fix>
</trkpt>
<trkpt lat="-27.2633798" lon="151.3508058">
  <ele>535.48</ele>
  <time>2026-09-01T20:01:36Z</time>
  <course>273.06</course>
  <speed>22.82798501839354</speed>
  <fix>3d</fix>
</trkpt>
<trkpt lat="-27.2633819" lon="151.350853">
  <ele>535.63</ele>
  <time>2026-09-01T20:01:36Z</time>
  <course>273.03</course>
  <speed>22.73</speed>
  <fix>3d</fix>
</trkpt>
<trkpt lat="-27.2633788" lon="151.3507827">
  <ele>535.4</ele>
  <time>2026-09-01T20:01:36Z</time>
  <course>272.99</course>
  <speed>22.875983038986544</speed>
  <fix>3d</fix>
</trkpt>
<trkpt lat="-27.2633819" lon="151.350853">
  <ele>535.63</ele>
  <time>2026-09-01T20:01:36Z</time>
  <course>273.03</course>
  <speed>22.73</speed>
  <fix>3d</fix>
</trkpt>
<trkpt lat="-27.2633778" lon="151.3507596">
  <ele>535.33</ele>
  <time>2026-09-01T20:01:36Z</time>
  <course>272.94</course>
  <speed>22.924984187562703</speed>
  <fix>3d</fix>
</trkpt>
<trkpt lat="-27.2633798" lon="151.3508071">
  <ele>535.48</ele>
  <time>2026-09-01T20:01:36Z</time>
  <course>272.84</course>
  <speed>22.82</speed>
  <fix>3d</fix>
</trkpt>
<trkpt lat="-27.2633768" lon="151.3507364">
  <ele>535.26</ele>
  <time>2026-09-01T20:01:36Z</time>
  <course>272.82</course>
  <speed>22.983541937656174</speed>
  <fix>3d</fix>
</trkpt>
<trkpt lat="-27.2633798" lon="151.3508071">
  <ele>535.48</ele>
  <time>2026-09-01T20:01:36Z</time>
  <course>272.84</course>
  <speed>22.82</speed>
  <fix>3d</fix>
</trkpt>
<trkpt lat="-27.2633759" lon="151.3507132">
  <ele>535.19</ele>
  <time>2026-09-01T20:01:36Z</time>
  <course>272.7</course>
  <speed>23.032155782731238</speed>
  <fix>3d</fix>
</trkpt>
<trkpt lat="-27.2633778" lon="151.3507609">
  <ele>535.33</ele>
  <time>2026-09-01T20:01:36Z</time>
  <course>272.68</course>
  <speed>22.93</speed>
  <fix>3d</fix>
</trkpt>
<trkpt lat="-27.263375" lon="151.3506899">
  <ele>535.12</ele>
  <time>2026-09-01T20:01:36Z</time>
  <course>272.67</course>
  <speed>23.08124130110857</speed>
  <fix>3d</fix>
</trkpt>
<trkpt lat="-27.2633778" lon="151.3507609">
  <ele>535.33</ele>
  <time>2026-09-01T20:01:36Z</time>
  <course>272.68</course>
  <speed>22.93</speed>
  <fix>3d</fix>
</trkpt>
<trkpt lat="-27.2633741" lon="151.3506665">
  <ele>535.04</ele>
  <time>2026-09-01T20:01:36Z</time>
  <course>272.59</course>
  <speed>23.139922212488095</speed>
  <fix>3d</fix>
</trkpt>
<trkpt lat="-27.263376" lon="151.3507145">
  <ele>535.19</ele>
  <time>2026-09-01T20:01:36Z</time>
  <course>272.53</course>
  <speed>23.03</speed>
  <fix>3d</fix>
</trkpt>
<trkpt lat="-27.2633733" lon="151.3506431">
  <ele>534.99</ele>
  <time>2026-09-01T20:01:36Z</time>
  <course>272.53</course>
  <speed>23.189059920574614</speed>
  <fix>3d</fix>
</trkpt>
<trkpt lat="-27.263376" lon="151.3507145">
  <ele>535.19</ele>
  <time>2026-09-01T20:01:36Z</time>
  <course>272.53</course>
  <speed>23.03</speed>
  <fix>3d</fix>
</trkpt>
<trkpt lat="-27.2633724" lon="151.3506198">
  <ele>534.91</ele>
  <time>2026-09-01T20:01:36Z</time>
  <course>272.47</course>
  <speed>23.24821068383543</speed>
  <fix>3d</fix>
</trkpt>
<trkpt lat="-27.2633742" lon="151.3506679">
  <ele>535.05</ele>
  <time>2026-09-01T20:01:36Z</time>
  <course>272.4</course>
  <speed>23.13</speed>
  <fix>3d</fix>
</trkpt>
<trkpt lat="-27.2633716" lon="151.3505963">
  <ele>534.83</ele>
  <time>2026-09-01T20:01:36Z</time>
  <course>272.45</course>
  <speed>23.297778864089167</speed>
  <fix>3d</fix>
</trkpt>
<trkpt lat="-27.2633742" lon="151.3506679">
  <ele>535.05</ele>
  <time>2026-09-01T20:01:36Z</time>
  <course>272.4</course>
  <speed>23.13</speed>
  <fix>3d</fix>
</trkpt>
<trkpt lat="-27.2633707" lon="151.3505726">
  <ele>534.71</ele>
  <time>2026-09-01T20:01:36Z</time>
  <course>272.39</course>
  <speed>23.367338316547734</speed>
  <fix>3d</fix>
</trkpt>
<trkpt lat="-27.2633725" lon="151.3506211">
  <ele>534.91</ele>
  <time>2026-09-01T20:01:36Z</time>
  <course>272.29</course>
  <speed>23.24</speed>
  <fix>3d</fix>
</trkpt>
<trkpt lat="-27.26337" lon="151.3505491">
  <ele>534.56</ele>
  <time>2026-09-01T20:01:37Z</time>
  <course>272.31</course>
  <speed>23.45689024572524</speed>
  <fix>3d</fix>
</trkpt>
<trkpt lat="-27.2633725" lon="151.3506211">
  <ele>534.91</ele>
  <time>2026-09-01T20:01:37Z</time>
  <course>272.29</course>
  <speed>23.24</speed>
  <fix>3d</fix>
</trkpt>
<trkpt lat="-27.2633692" lon="151.3505253">
  <ele>534.41</ele>
  <time>2026-09-01T20:01:37Z</time>
  <course>272.21</course>
  <speed>23.546449838563777</speed>
  <fix>3d</fix>
</trkpt>
<trkpt lat="-27.2633708" lon="151.3505741">
  <ele>534.7</ele>
  <time>2026-09-01T20:01:37Z</time>
  <course>272.22</course>
  <speed>23.37</speed>
  <fix>3d</fix>
</trkpt>
<trkpt lat="-27.2633684" lon="151.3505015">
  <ele>534.27</ele>
  <time>2026-09-01T20:01:37Z</time>
  <course>272.15</course>
  <speed>23.63601700794785</speed>
  <fix>3d</fix>
</trkpt>
<trkpt lat="-27.2633708" lon="151.3505741">
  <ele>534.7</ele>
  <time>2026-09-01T20:01:37Z</time>
  <course>272.22</course>
  <speed>23.37</speed>
  <fix>3d</fix>
</trkpt>
<trkpt lat="-27.2633676" lon="151.3504776">
  <ele>534.14</ele>
  <time>2026-09-01T20:01:37Z</time>
  <course>272.11</course>
  <speed>23.735224877805564</speed>
  <fix>3d</fix>
</trkpt>
<trkpt lat="-27.2633692" lon="151.3505266">
  <ele>534.42</ele>
  <time>2026-09-01T20:01:37Z</time>
  <course>272.15</course>
  <speed>23.54</speed>
  <fix>3d</fix>
</trkpt>
<trkpt lat="-27.2633668" lon="151.3504535">
  <ele>534.01</ele>
  <time>2026-09-01T20:01:37Z</time>
  <course>272.05</course>
  <speed>23.824812696010852</speed>
  <fix>3d</fix>
</trkpt>
<trkpt lat="-27.2633692" lon="151.3505266">
  <ele>534.42</ele>
  <time>2026-09-01T20:01:37Z</time>
  <course>272.15</course>
  <speed>23.54</speed>
  <fix>3d</fix>
</trkpt>
<trkpt lat="-27.2633661" lon="151.3504295">
  <ele>533.89</ele>
  <time>2026-09-01T20:01:37Z</time>
  <course>272.07</course>
  <speed>23.914407791120396</speed>
  <fix>3d</fix>
</trkpt>
<trkpt lat="-27.2633676" lon="151.3504787">
  <ele>534.14</ele>
  <time>2026-09-01T20:01:37Z</time>
  <course>272.07</course>
  <speed>23.73</speed>
  <fix>3d</fix>
</trkpt>
<trkpt lat="-27.2633654" lon="151.3504053">
  <ele>533.78</ele>
  <time>2026-09-01T20:01:37Z</time>
  <course>272.09</course>
  <speed>23.994015920641544</speed>
  <fix>3d</fix>
</trkpt>
<trkpt lat="-27.2633676" lon="151.3504787">
  <ele>534.14</ele>
  <time>2026-09-01T20:01:37Z</time>
  <course>272.07</course>
  <speed>23.73</speed>
  <fix>3d</fix>
</trkpt>
<trkpt lat="-27.2633646" lon="151.350381">
  <ele>533.69</ele>
  <time>2026-09-01T20:01:37Z</time>
  <course>272.05</course>
  <speed>24.083963544234155</speed>
  <fix>3d</fix>
</trkpt>
<trkpt lat="-27.2633661" lon="151.3504306">
  <ele>533.9</ele>
  <time>2026-09-01T20:01:37Z</time>
  <course>271.99</course>
  <speed>23.91</speed>
  <fix>3d</fix>
</trkpt>
<trkpt lat="-27.2633639" lon="151.3503567">
  <ele>533.61</ele>
  <time>2026-09-01T20:01:37Z</time>
  <course>272.02</course>
  <speed>24.163917314872602</speed>
  <fix>3d</fix>
</trkpt>
<trkpt lat="-27.2633661" lon="151.3504306">
  <ele>533.9</ele>
  <time>2026-09-01T20:01:37Z</time>
  <course>271.99</course>
  <speed>23.91</speed>
  <fix>3d</fix>
</trkpt>
<trkpt lat="-27.2633631" lon="151.3503323">
  <ele>533.54</ele>
  <time>2026-09-01T20:01:37Z</time>
  <course>271.99</course>
  <speed>24.233877114485832</speed>
  <fix>3d</fix>
</trkpt>
<trkpt lat="-27.2633646" lon="151.3503822">
  <ele>533.69</ele>
  <time>2026-09-01T20:01:37Z</time>
  <course>271.96</course>
  <speed>24.08</speed>
  <fix>3d</fix>
</trkpt>
<trkpt lat="-27.2633624" lon="151.3503077">
  <ele>533.49</ele>
  <time>2026-09-01T20:01:37Z</time>
  <course>271.98</course>
  <speed>24.30383714560316</speed>
  <fix>3d</fix>
</trkpt>
<trkpt lat="-27.2633646" lon="151.3503822">
  <ele>533.69</ele>
  <time>2026-09-01T20:01:37Z</time>
  <course>271.96</course>
  <speed>24.08</speed>
  <fix>3d</fix>
</trkpt>
<trkpt lat="-27.2633616" lon="151.350283">
  <ele>533.44</ele>
  <time>2026-09-01T20:01:37Z</time>
  <course>272.04</course>
  <speed>24.37413588211898</speed>
  <fix>3d</fix>
</trkpt>
<trkpt lat="-27.2633631" lon="151.3503334">
  <ele>533.55</ele>
  <time>2026-09-01T20:01:37Z</time>
  <course>271.95</course>
  <speed>24.23</speed>
  <fix>3d</fix>
</trkpt>
<trkpt lat="-27.2633609" lon="151.3502583">
  <ele>533.4</ele>
  <time>2026-09-01T20:01:37Z</time>
  <course>272.03</course>
  <speed>24.434101170290674</speed>
  <fix>3d</fix>
</trkpt>
<trkpt lat="-27.2633631" lon="151.3503334">
  <ele>533.55</ele>
  <time>2026-09-01T20:01:37Z</time>
  <course>271.95</course>
  <speed>24.23</speed>
  <fix>3d</fix>
</trkpt>
<trkpt lat="-27.2633601" lon="151.3502336">
  <ele>533.38</ele>
  <time>2026-09-01T20:01:37Z</time>
  <course>272.01</course>
  <speed>24.504401645418724</speed>
  <fix>3d</fix>
</trkpt>
<trkpt lat="-27.2633616" lon="151.3502844">
  <ele>533.44</ele>
  <time>2026-09-01T20:01:37Z</time>
  <course>271.95</course>
  <speed>24.37</speed>
  <fix>3d</fix>
</trkpt>
<trkpt lat="-27.2633594" lon="151.3502088">
  <ele>533.36</ele>
  <time>2026-09-01T20:01:37Z</time>
  <course>272.04</course>
  <speed>24.554372319405765</speed>
  <fix>3d</fix>
</trkpt>
<trkpt lat="-27.2633616" lon="151.3502844">
  <ele>533.44</ele>
  <time>2026-09-01T20:01:37Z</time>
  <course>271.95</course>
  <speed>24.37</speed>
  <fix>3d</fix>
</trkpt>
<trkpt lat="-27.2633586" lon="151.3501839">
  <ele>533.35</ele>
  <time>2026-09-01T20:01:37Z</time>
  <course>272.05</course>
  <speed>24.61468057887406</speed>
  <fix>3d</fix>
</trkpt>
<trkpt lat="-27.2633601" lon="151.350235">
  <ele>533.38</ele>
  <time>2026-09-01T20:01:37Z</time>
  <course>271.97</course>
  <speed>24.5</speed>
  <fix>3d</fix>
</trkpt>
<trkpt lat="-27.2633578" lon="151.350159">
  <ele>533.35</ele>
  <time>2026-09-01T20:01:37Z</time>
  <course>271.99</course>
  <speed>24.665348162959308</speed>
  <fix>3d</fix>
</trkpt>
<trkpt lat="-27.2633601" lon="151.350235">
  <ele>533.38</ele>
  <time>2026-09-01T20:01:37Z</time>
  <course>271.97</course>
  <speed>24.5</speed>
  <fix>3d</fix>
</trkpt>
<trkpt lat="-27.263357" lon="151.3501341">
  <ele>533.36</ele>
  <time>2026-09-01T20:01:37Z</time>
  <course>271.94</course>
  <speed>24.715671142010287</speed>
  <fix>3d</fix>
</trkpt>
<trkpt lat="-27.2633586" lon="151.3501854">
  <ele>533.35</ele>
  <time>2026-09-01T20:01:37Z</time>
  <course>272.0</course>
  <speed>24.61</speed>
  <fix>3d</fix>
</trkpt>
<trkpt lat="-27.2633563" lon="151.3501092">
  <ele>533.37</ele>
  <time>2026-09-01T20:01:37Z</time>
  <course>271.95</course>
  <speed>24.76563950315033</speed>
  <fix>3d</fix>
</trkpt>
<trkpt lat="-27.2633586" lon="151.3501854">
  <ele>533.35</ele>
  <time>2026-09-01T20:01:37Z</time>
  <course>272.0</course>
  <speed>24.61</speed>
  <fix>3d</fix>
</trkpt>
<trkpt lat="-27.2633555" lon="151.3500842">
  <ele>533.39</ele>
  <time>2026-09-01T20:01:37Z</time>
  <course>271.97</course>
  <speed>24.80597105537294</speed>
  <fix>3d</fix>
</trkpt>
<trkpt lat="-27.2633571" lon="151.3501356">
  <ele>533.36</ele>
  <time>2026-09-01T20:01:37Z</time>
  <course>272.04</course>
  <speed>24.71</speed>
  <fix>3d</fix>
</trkpt>
<trkpt lat="-27.2633546" lon="151.350059">
  <ele>533.41</ele>
  <time>2026-09-01T20:01:37Z</time>
  <course>272.02</course>
  <speed>24.846305560384625</speed>
  <fix>3d</fix>
</trkpt>
<trkpt lat="-27.2633571" lon="151.3501356">
  <ele>533.36</ele>
  <time>2026-09-01T20:01:37Z</time>
  <course>272.04</course>
  <speed>24.71</speed>
  <fix>3d</fix>
</trkpt>
<trkpt lat="-27.2633538" lon="151.350034">
  <ele>533.44</ele>
  <time>2026-09-01T20:01:37Z</time>
  <course>272.05</course>
  <speed>24.826683225916426</speed>
  <fix>3d</fix>
</trkpt>
<trkpt lat="-27.2633554" lon="151.3500856">
  <ele>533.39</ele>
  <time>2026-09-01T20:01:37Z</time>
  <course>272.07</course>
  <speed>24.8</speed>
  <fix>3d</fix>
</trkpt>
<trkpt lat="-27.263353" lon="151.350009">
  <ele>533.47</ele>
  <time>2026-09-01T20:01:37Z</time>
  <course>272.09</course>
  <speed>24.757099991719546</speed>
  <fix>3d</fix>
</trkpt>
<trkpt lat="-27.2633554" lon="151.3500856">
  <ele>533.39</ele>
  <time>2026-09-01T20:01:37Z</time>
  <course>272.07</course>
  <speed>24.8</speed>
  <fix>3d</fix>
</trkpt>
<trkpt lat="-27.2633522" lon="151.349984">
  <ele>533.5</ele>
  <time>2026-09-01T20:01:37Z</time>
  <course>272.12</course>
  <speed>24.627565856170193</speed>
  <fix>3d</fix>
</trkpt>
<trkpt lat="-27.2633538" lon="151.3500354">
  <ele>533.43</ele>
  <time>2026-09-01T20:01:37Z</time>
  <course>272.11</course>
  <speed>24.8</speed>
  <fix>3d</fix>
</trkpt>
<trkpt lat="-27.2633513" lon="151.3499593">
  <ele>533.54</ele>
  <time>2026-09-01T20:01:37Z</time>
  <course>272.15</course>
  <speed>24.437702428829105</speed>
  <fix>3d</fix>
</trkpt>
<trkpt lat="-27.2633538" lon="151.3500354">
  <ele>533.43</ele>
  <time>2026-09-01T20:01:37Z</time>
  <course>272.11</course>
  <speed>24.8</speed>
  <fix>3d</fix>
</trkpt>
<trkpt lat="-27.2633505" lon="151.3499347">
  <ele>533.58</ele>
  <time>2026-09-01T20:01:37Z</time>
  <course>272.18</course>
  <speed>24.188271951505754</speed>
  <fix>3d</fix>
</trkpt>
<trkpt lat="-27.2633522" lon="151.3499853">
  <ele>533.5</ele>
  <time>2026-09-01T20:01:37Z</time>
  <course>272.16</course>
  <speed>24.61</speed>
  <fix>3d</fix>
</trkpt>
<trkpt lat="-27.2633496" lon="151.3499104">
  <ele>533.61</ele>
  <time>2026-09-01T20:01:37Z</time>
  <course>272.19</course>
  <speed>23.898493676380525</speed>
  <fix>3d</fix>
</trkpt>
<trkpt lat="-27.2633522" lon="151.3499853">
  <ele>533.5</ele>
  <time>2026-09-01T20:01:37Z</time>
  <course>272.16</course>
  <speed>24.61</speed>
  <fix>3d</fix>
</trkpt>
<trkpt lat="-27.2633488" lon="151.3498865">
  <ele>533.63</ele>
  <time>2026-09-01T20:01:37Z</time>
  <course>272.21</course>
  <speed>23.578744665482088</speed>
  <fix>3d</fix>
</trkpt>
<trkpt lat="-27.2633505" lon="151.349936">
  <ele>533.57</ele>
  <time>2026-09-01T20:01:37Z</time>
  <course>272.23</course>
  <speed>24.18</speed>
  <fix>3d</fix>
</trkpt>
<trkpt lat="-27.2633479" lon="151.3498627">
  <ele>533.63</ele>
  <time>2026-09-01T20:01:37Z</time>
  <course>272.23</course>
  <speed>23.268994391679243</speed>
  <fix>3d</fix>
</trkpt>
<trkpt lat="-27.2633505" lon="151.349936">
  <ele>533.57</ele>
  <time>2026-09-01T20:01:37Z</time>
  <course>272.23</course>
  <speed>24.18</speed>
  <fix>3d</fix>
</trkpt>
<trkpt lat="-27.2633471" lon="151.3498395">
  <ele>533.61</ele>
  <time>2026-09-01T20:01:37Z</time>
  <course>272.26</course>
  <speed>22.979234103859945</speed>
  <fix>3d</fix>
</trkpt>
<trkpt lat="-27.2633488" lon="151.3498878">
  <ele>533.62</ele>
  <time>2026-09-01T20:01:37Z</time>
  <course>272.29</course>
  <speed>23.6</speed>
  <fix>3d</fix>
</trkpt>
<trkpt lat="-27.2633462" lon="151.3498163">
  <ele>533.57</ele>
  <time>2026-09-01T20:01:37Z</time>
  <course>272.28</course>
  <speed>22.689479941153344</speed>
  <fix>3d</fix>
</trkpt>
<trkpt lat="-27.2633488" lon="151.3498878">
  <ele>533.62</ele>
  <time>2026-09-01T20:01:37Z</time>
  <course>272.29</course>
  <speed>23.6</speed>
  <fix>3d</fix>
</trkpt>
<trkpt lat="-27.2633454" lon="151.3497937">
  <ele>533.49</ele>
  <time>2026-09-01T20:01:37Z</time>
  <course>272.31</course>
  <speed>22.429705749295955</speed>
  <fix>3d</fix>
</trkpt>
<trkpt lat="-27.2633471" lon="151.3498407">
  <ele>533.6</ele>
  <time>2026-09-01T20:01:37Z</time>
  <course>272.34</course>
  <speed>23.0</speed>
  <fix>3d</fix>
</trkpt>
<trkpt lat="-27.2633446" lon="151.3497712">
  <ele>533.4</ele>
  <time>2026-09-01T20:01:37Z</time>
  <course>272.33</course>
  <speed>22.17992786282228</speed>
  <fix>3d</fix>
</trkpt>
<trkpt lat="-27.2633471" lon="151.3498407">
  <ele>533.6</ele>
  <time>2026-09-01T20:01:37Z</time>
  <course>272.34</course>
  <speed>23.0</speed>
  <fix>3d</fix>
</trkpt>
<trkpt lat="-27.2633437" lon="151.3497488">
  <ele>533.29</ele>
  <time>2026-09-01T20:01:37Z</time>
  <course>272.35</course>
  <speed>21.93971968827314</speed>
  <fix>3d</fix>
</trkpt>
<trkpt lat="-27.2633454" lon="151.3497949">
  <ele>533.48</ele>
  <time>2026-09-01T20:01:37Z</time>
  <course>272.4</course>
  <speed>22.45</speed>
  <fix>3d</fix>
</trkpt>
<trkpt lat="-27.2633429" lon="151.3497268">
  <ele>533.16</ele>
  <time>2026-09-01T20:01:37Z</time>
  <course>272.38</course>
  <speed>21.709928604212404</speed>
  <fix>3d</fix>
</trkpt>
<trkpt lat="-27.2633454" lon="151.3497949">
  <ele>533.48</ele>
  <time>2026-09-01T20:01:37Z</time>
  <course>272.4</course>
  <speed>22.45</speed>
  <fix>3d</fix>
</trkpt>
<trkpt lat="-27.263342" lon="151.3497051">
  <ele>533.04</ele>
  <time>2026-09-01T20:01:37Z</time>
  <course>272.41</course>
  <speed>21.490132619413963</speed>
  <fix>3d</fix>
</trkpt>
<trkpt lat="-27.2633437" lon="151.3497501">
  <ele>533.29</ele>
  <time>2026-09-01T20:01:37Z</time>
  <course>272.44</course>
  <speed>21.95</speed>
  <fix>3d</fix>
</trkpt>
<trkpt lat="-27.2633412" lon="151.3496835">
  <ele>532.91</ele>
  <time>2026-09-01T20:01:37Z</time>
  <course>272.43</course>
  <speed>21.27989661629022</speed>
  <fix>3d</fix>
</trkpt>
<trkpt lat="-27.2633437" lon="151.3497501">
  <ele>533.29</ele>
  <time>2026-09-01T20:01:37Z</time>
  <course>272.44</course>
  <speed>21.95</speed>
  <fix>3d</fix>
</trkpt>
<trkpt lat="-27.2633404" lon="151.3496621">
  <ele>532.77</ele>
  <time>2026-09-01T20:01:37Z</time>
  <course>272.46</course>
  <speed>21.069660652226936</speed>
  <fix>3d</fix>
</trkpt>
<trkpt lat="-27.263342" lon="151.3497062">
  <ele>533.05</ele>
  <time>2026-09-01T20:01:37Z</time>
  <course>272.47</course>
  <speed>21.5</speed>
  <fix>3d</fix>
</trkpt>
<trkpt lat="-27.2633396" lon="151.3496409">
  <ele>532.63</ele>
  <time>2026-09-01T20:01:37Z</time>
  <course>272.48</course>
  <speed>20.879406121822527</speed>
  <fix>3d</fix>
</trkpt>
<trkpt lat="-27.263342" lon="151.3497062">
  <ele>533.05</ele>
  <time>2026-09-01T20:01:37Z</time>
  <course>272.47</course>
  <speed>21.5</speed>
  <fix>3d</fix>
</trkpt>
<trkpt lat="-27.2633387" lon="151.3496198">
  <ele>532.49</ele>
  <time>2026-09-01T20:01:37Z</time>
  <course>272.49</course>
  <speed>20.67916100812603</speed>
  <fix>3d</fix>
</trkpt>
<trkpt lat="-27.2633404" lon="151.3496632">
  <ele>532.78</ele>
  <time>2026-09-01T20:01:37Z</time>
  <course>272.48</course>
  <speed>21.09</speed>
  <fix>3d</fix>
</trkpt>
<trkpt lat="-27.2633379" lon="151.3495989">
  <ele>532.34</ele>
  <time>2026-09-01T20:01:37Z</time>
  <course>272.5</course>
  <speed>20.498897531330798</speed>
  <fix>3d</fix>
</trkpt>
<trkpt lat="-27.2633404" lon="151.3496632">
  <ele>532.78</ele>
  <time>2026-09-01T20:01:37Z</time>
  <course>272.48</course>
  <speed>21.09</speed>
  <fix>3d</fix>
</trkpt>
<trkpt lat="-27.2633371" lon="151.3495783">
  <ele>532.19</ele>
  <time>2026-09-01T20:01:37Z</time>
  <course>272.5</course>
  <speed>20.319064939115677</speed>
  <fix>3d</fix>
</trkpt>
<trkpt lat="-27.2633388" lon="151.349621">
  <ele>532.49</ele>
  <time>2026-09-01T20:01:37Z</time>
  <course>272.48</course>
  <speed>20.7</speed>
  <fix>3d</fix>
</trkpt>
<trkpt lat="-27.2633363" lon="151.349558">
  <ele>532.04</ele>
  <time>2026-09-01T20:01:37Z</time>
  <course>272.49</course>
  <speed>20.148791527037048</speed>
  <fix>3d</fix>
</trkpt>
<trkpt lat="-27.2633388" lon="151.349621">
  <ele>532.49</ele>
  <time>2026-09-01T20:01:37Z</time>
  <course>272.48</course>
  <speed>20.7</speed>
  <fix>3d</fix>
</trkpt>
<trkpt lat="-27.2633356" lon="151.3495376">
  <ele>531.88</ele>
  <time>2026-09-01T20:01:37Z</time>
  <course>272.49</course>
  <speed>19.978518463589836</speed>
  <fix>3d</fix>
</trkpt>
<trkpt lat="-27.2633372" lon="151.3495797">
  <ele>532.19</ele>
  <time>2026-09-01T20:01:37Z</time>
  <course>272.48</course>
  <speed>20.33</speed>
  <fix>3d</fix>
</trkpt>
<trkpt lat="-27.2633348" lon="151.3495177">
  <ele>531.73</ele>
  <time>2026-09-01T20:01:37Z</time>
  <course>272.49</course>
  <speed>19.80824575776462</speed>
  <fix>3d</fix>
</trkpt>
<trkpt lat="-27.2633372" lon="151.3495797">
  <ele>532.19</ele>
  <time>2026-09-01T20:01:37Z</time>
  <course>272.48</course>
  <speed>20.33</speed>
  <fix>3d</fix>
</trkpt>
<trkpt lat="-27.263334" lon="151.3494977">
  <ele>531.57</ele>
  <time>2026-09-01T20:01:37Z</time>
  <course>272.48</course>
  <speed>19.65795513271917</speed>
  <fix>3d</fix>
</trkpt>
<trkpt lat="-27.2633356" lon="151.3495389">
  <ele>531.89</ele>
  <time>2026-09-01T20:01:37Z</time>
  <course>272.47</course>
  <speed>19.99</speed>
  <fix>3d</fix>
</trkpt>
<trkpt lat="-27.2633333" lon="151.349478">
  <ele>531.41</ele>
  <time>2026-09-01T20:01:37Z</time>
  <course>272.48</course>
  <speed>19.498102471779145</speed>
  <fix>3d</fix>
</trkpt>
<trkpt lat="-27.2633356" lon="151.3495389">
  <ele>531.89</ele>
  <time>2026-09-01T20:01:37Z</time>
  <course>272.47</course>
  <speed>19.99</speed>
  <fix>3d</fix>
</trkpt>
<trkpt lat="-27.2633325" lon="151.3494584">
  <ele>531.24</ele>
  <time>2026-09-01T20:01:37Z</time>
  <course>272.48</course>
  <speed>19.34781124571976</speed>
  <fix>3d</fix>
</trkpt>
<trkpt lat="-27.263334" lon="151.3494988">
  <ele>531.57</ele>
  <time>2026-09-01T20:01:37Z</time>
  <course>272.47</course>
  <speed>19.66</speed>
  <fix>3d</fix>
</trkpt>
<trkpt lat="-27.2633318" lon="151.3494389">
  <ele>531.08</ele>
  <time>2026-09-01T20:01:37Z</time>
  <course>272.47</course>
  <speed>19.207511551473814</speed>
  <fix>3d</fix>
</trkpt>
<trkpt lat="-27.263334" lon="151.3494988">
  <ele>531.57</ele>
  <time>2026-09-01T20:01:37Z</time>
  <course>272.47</course>
  <speed>19.66</speed>
  <fix>3d</fix>
</trkpt>
<trkpt lat="-27.263331" lon="151.3494196">
  <ele>530.91</ele>
  <time>2026-09-01T20:01:37Z</time>
  <course>272.47</course>
  <speed>19.067212696144132</speed>
  <fix>3d</fix>
</trkpt>
<trkpt lat="-27.2633325" lon="151.3494594">
  <ele>531.25</ele>
  <time>2026-09-01T20:01:37Z</time>
  <course>272.46</course>
  <speed>19.36</speed>
  <fix>3d</fix>
</trkpt>
<trkpt lat="-27.2633303" lon="151.3494003">
  <ele>530.74</ele>
  <time>2026-09-01T20:01:37Z</time>
  <course>272.47</course>
  <speed>18.927340013852977</speed>
  <fix>3d</fix>
</trkpt>
<trkpt lat="-27.2633325" lon="151.3494594">
  <ele>531.25</ele>
  <time>2026-09-01T20:01:37Z</time>
  <course>272.46</course>
  <speed>19.36</speed>
  <fix>3d</fix>
</trkpt>
<trkpt lat="-27.2633296" lon="151.3493814">
  <ele>530.57</ele>
  <time>2026-09-01T20:01:37Z</time>
  <course>272.47</course>
  <speed>18.797031680560632</speed>
  <fix>3d</fix>
</trkpt>
<trkpt lat="-27.263331" lon="151.3494206">
  <ele>530.92</ele>
  <time>2026-09-01T20:01:37Z</time>
  <course>272.46</course>
  <speed>19.07</speed>
  <fix>3d</fix>
</trkpt>
<trkpt lat="-27.2633289" lon="151.3493624">
  <ele>530.4</ele>
  <time>2026-09-01T20:01:37Z</time>
  <course>272.46</course>
  <speed>18.66672440467261</speed>
  <fix>3d</fix>
</trkpt>
<trkpt lat="-27.263331" lon="151.3494206">
  <ele>530.92</ele>
  <time>2026-09-01T20:01:37Z</time>
  <course>272.46</course>
  <speed>19.07</speed>
  <fix>3d</fix>
</trkpt>
<trkpt lat="-27.2633281" lon="151.3493437">
  <ele>530.22</ele>
  <time>2026-09-01T20:01:37Z</time>
  <course>272.46</course>
  <speed>18.546832613683662</speed>
  <fix>3d</fix>
</trkpt>
<trkpt lat="-27.2633296" lon="151.3493824">
  <ele>530.57</ele>
  <time>2026-09-01T20:01:37Z</time>
  <course>272.45</course>
  <speed>18.81</speed>
  <fix>3d</fix>
</trkpt>
<trkpt lat="-27.2633274" lon="151.349325">
  <ele>530.04</ele>
  <time>2026-09-01T20:01:37Z</time>
  <course>272.46</course>
  <speed>18.42651621983928</speed>
  <fix>3d</fix>
</trkpt>
<trkpt lat="-27.2633296" lon="151.3493824">
  <ele>530.57</ele>
  <time>2026-09-01T20:01:37Z</time>
  <course>272.45</course>
  <speed>18.81</speed>
  <fix>3d</fix>
</trkpt>
<trkpt lat="-27.2633267" lon="151.3493064">
  <ele>529.87</ele>
  <time>2026-09-01T20:01:37Z</time>
  <course>272.46</course>
  <speed>18.306624484049483</speed>
  <fix>3d</fix>
</trkpt>
<trkpt lat="-27.2633281" lon="151.3493446">
  <ele>530.22</ele>
  <time>2026-09-01T20:01:37Z</time>
  <course>272.45</course>
  <speed>18.55</speed>
  <fix>3d</fix>
</trkpt>
<trkpt lat="-27.263326" lon="151.3492881">
  <ele>529.69</ele>
  <time>2026-09-01T20:01:37Z</time>
  <course>272.45</course>
  <speed>18.196299074262328</speed>
  <fix>3d</fix>
</trkpt>
<trkpt lat="-27.2633281" lon="151.3493446">
  <ele>530.22</ele>
  <time>2026-09-01T20:01:37Z</time>
  <course>272.45</course>
  <speed>18.55</speed>
  <fix>3d</fix>
</trkpt>
<trkpt lat="-27.2633253" lon="151.3492696">
  <ele>529.51</ele>
  <time>2026-09-01T20:01:37Z</time>
  <course>272.45</course>
  <speed>18.086398204175424</speed>
  <fix>3d</fix>
</trkpt>
<trkpt lat="-27.2633268" lon="151.3493074">
  <ele>529.87</ele>
  <time>2026-09-01T20:01:37Z</time>
  <course>272.44</course>
  <speed>18.31</speed>
  <fix>3d</fix>
</trkpt>
<trkpt lat="-27.2633246" lon="151.3492514">
  <ele>529.32</ele>
  <time>2026-09-01T20:01:37Z</time>
  <course>272.45</course>
  <speed>17.97607298605566</speed>
  <fix>3d</fix>
</trkpt>
<trkpt lat="-27.2633268" lon="151.3493074">
  <ele>529.87</ele>
  <time>2026-09-01T20:01:37Z</time>
  <course>272.44</course>
  <speed>18.31</speed>
  <fix>3d</fix>
</trkpt>
<trkpt lat="-27.263324" lon="151.3492335">
  <ele>529.14</ele>
  <time>2026-09-01T20:01:37Z</time>
  <course>272.44</course>
  <speed>17.86574935456109</speed>
  <fix>3d</fix>
</trkpt>
<trkpt lat="-27.2633254" lon="151.3492707">
  <ele>529.51</ele>
  <time>2026-09-01T20:01:37Z</time>
  <course>272.44</course>
  <speed>18.09</speed>
  <fix>3d</fix>
</trkpt>
<trkpt lat="-27.2615297" lon="151.3533349">
  <ele>542.95</ele>
  <time>2026-09-01T20:01:37Z</time>
  <course>250.01</course>
  <speed>0.0</speed>
  <fix>3d</fix>
</trkpt>
<trkpt lat="-27.2633254" lon="151.3492707">
  <ele>529.51</ele>
  <time>2026-09-01T20:01:37Z</time>
  <course>272.44</course>
  <speed>18.09</speed>
  <fix>3d</fix>
</trkpt>
<trkpt lat="-27.2615297" lon="151.3533349">
  <ele>542.81</ele>
  <time>2026-09-01T20:01:37Z</time>
  <course>250.0</course>
  <speed>0.07280109889280519</speed>
  <fix>3d</fix>
</trkpt>
<trkpt lat="-27.2624272" lon="151.3512937">
  <ele>536.14</ele>
  <time>2026-09-01T20:01:37Z</time>
  <course>272.42</course>
  <speed>8.99</speed>
  <fix>3d</fix>
</trkpt>
<trkpt lat="-27.2615297" lon="151.3533349">
  <ele>542.58</ele>
  <time>2026-09-01T20:01:37Z</time>
  <course>249.99</course>
  <speed>0.22472205054244232</speed>
  <fix>3d</fix>
</trkpt>
<trkpt lat="-27.2624272" lon="151.3512937">
  <ele>536.14</ele>
  <time>2026-09-01T20:01:37Z</time>
  <course>272.42</course>
  <speed>8.99</speed>
  <fix>3d</fix>
</trkpt>
<trkpt lat="-27.2615298" lon="151.3533345">
  <ele>542.26</ele>
  <time>2026-09-01T20:01:37Z</time>
  <course>250.49</course>
  <speed>0.4617358552246078</speed>
  <fix>3d</fix>
</trkpt>
<trkpt lat="-27.2615297" lon="151.3533349">
  <ele>542.78</ele>
  <time>2026-09-01T20:01:37Z</time>
  <course>249.51</course>
  <speed>0.11</speed>
  <fix>3d</fix>
</trkpt>
<trkpt lat="-27.2615299" lon="151.3533339">
  <ele>541.87</ele>
  <time>2026-09-01T20:01:37Z</time>
  <course>253.59</course>
  <speed>0.7863841300535</speed>
  <fix>3d</fix>
</trkpt>
<trkpt lat="-27.2615297" lon="151.3533349">
  <ele>542.78</ele>
  <time>2026-09-01T20:01:37Z</time>
  <course>249.51</course>
  <speed>0.11</speed>
  <fix>3d</fix>
</trkpt>
<trkpt lat="-27.26153" lon="151.3533329">
  <ele>541.4</ele>
  <time>2026-09-01T20:01:37Z</time>
  <course>263.09</course>
  <speed>1.1503912377969505</speed>
  <fix>3d</fix>
</trkpt>
<trkpt lat="-27.2615298" lon="151.3533344">
  <ele>542.24</ele>
  <time>2026-09-01T20:01:37Z</time>
  <course>259.1</course>
  <speed>0.49</speed>
  <fix>3d</fix>
</trkpt>
<trkpt lat="-27.2615301" lon="151.3533316">
  <ele>540.85</ele>
  <time>2026-09-01T20:01:37Z</time>
  <course>264.0</course>
  <speed>1.5709869509324386</speed>
  <fix>3d</fix>
</trkpt>
<trkpt lat="-27.2615298" lon="151.3533344">
  <ele>542.24</ele>
  <time>2026-09-01T20:01:37Z</time>
  <course>259.1</course>
  <speed>0.49</speed>
  <fix>3d</fix>
</trkpt>
<trkpt lat="-27.2615314" lon="151.3533301">
  <ele>540.27</ele>
  <time>2026-09-01T20:01:37Z</time>
  <course>252.2</course>
  <speed>2.938315844152905</speed>
  <fix>3d</fix>
</trkpt>
<trkpt lat="-27.26153" lon="151.3533329">
  <ele>541.38</ele>
  <time>2026-09-01T20:01:37Z</time>
  <course>254.21</course>
  <speed>1.15</speed>
  <fix>3d</fix>
</trkpt>
<trkpt lat="-27.2615345" lon="151.3533286">
  <ele>539.7</ele>
  <time>2026-09-01T20:01:37Z</time>
  <course>243.72</course>
  <speed>4.474874299910557</speed>
  <fix>3d</fix>
</trkpt>
<trkpt lat="-27.26153" lon="151.3533329">
  <ele>541.38</ele>
  <time>2026-09-01T20:01:37Z</time>
  <course>254.21</course>
  <speed>1.15</speed>
  <fix>3d</fix>
</trkpt>
<trkpt lat="-27.2615389" lon="151.3533272">
  <ele>539.18</ele>
  <time>2026-09-01T20:01:37Z</time>
  <course>237.56</course>
  <speed>5.804007236384186</speed>
  <fix>3d</fix>
</trkpt>
<trkpt lat="-27.2615322" lon="151.3533302">
  <ele>540.3</ele>
  <time>2026-09-01T20:01:37Z</time>
  <course>212.06</course>
  <speed>2.75</speed>
  <fix>3d</fix>
</trkpt>
<trkpt lat="-27.2615445" lon="151.3533258">
  <ele>538.76</ele>
  <time>2026-09-01T20:01:37Z</time>
  <course>232.73</course>
  <speed>6.8683913691635246</speed>
  <fix>3d</fix>
</trkpt>
<trkpt lat="-27.2615322" lon="151.3533302">
  <ele>540.3</ele>
  <time>2026-09-01T20:01:37Z</time>
  <course>212.06</course>
  <speed>2.75</speed>
  <fix>3d</fix>
</trkpt>
<trkpt lat="-27.2615509" lon="151.3533242">
  <ele>538.44</ele>
  <time>2026-09-01T20:01:37Z</time>
  <course>229.22</course>
  <speed>7.647646696860415</speed>
  <fix>3d</fix>
</trkpt>
<trkpt lat="-27.2615392" lon="151.3533272">
  <ele>539.25</ele>
  <time>2026-09-01T20:01:37Z</time>
  <course>194.93</course>
  <speed>5.6</speed>
  <fix>3d</fix>
</trkpt>
<trkpt lat="-27.2615578" lon="151.353322">
  <ele>538.24</ele>
  <time>2026-09-01T20:01:37Z</time>
  <course>226.85</course>
  <speed>8.143248737451165</speed>
  <fix>3d</fix>
</trkpt>
<trkpt lat="-27.2615392" lon="151.3533272">
  <ele>539.25</ele>
  <time>2026-09-01T20:01:37Z</time>
  <course>194.93</course>
  <speed>5.6</speed>
  <fix>3d</fix>
</trkpt>
<trkpt lat="-27.2615648" lon="151.3533191">
  <ele>538.14</ele>
  <time>2026-09-01T20:01:37Z</time>
  <course>225.46</course>
  <speed>8.498517517779204</speed>
  <fix>3d</fix>
</trkpt>
<trkpt lat="-27.2615508" lon="151.3533239">
  <ele>538.51</ele>
  <time>2026-09-01T20:01:37Z</time>
  <course>195.02</course>
  <speed>7.46</speed>
  <fix>3d</fix>
</trkpt>
<trkpt lat="-27.2615717" lon="151.3533151">
  <ele>538.09</ele>
  <time>2026-09-01T20:01:37Z</time>
  <course>225.18</course>
  <speed>8.847429005083907</speed>
  <fix>3d</fix>
</trkpt>
<trkpt lat="-27.2615508" lon="151.3533239">
  <ele>538.51</ele>
  <time>2026-09-01T20:01:37Z</time>
  <course>195.02</course>
  <speed>7.46</speed>
  <fix>3d</fix>
</trkpt>
<trkpt lat="-27.2615786" lon="151.35331">
  <ele>538.07</ele>
  <time>2026-09-01T20:01:37Z</time>
  <course>225.95</course>
  <speed>9.257991142791184</speed>
  <fix>3d</fix>
</trkpt>
<trkpt lat="-27.2615644" lon="151.3533187">
  <ele>538.17</ele>
  <time>2026-09-01T20:01:37Z</time>
  <course>203.85</course>
  <speed>8.43</speed>
  <fix>3d</fix>
</trkpt>
<trkpt lat="-27.2615852" lon="151.3533042">
  <ele>538.04</ele>
  <time>2026-09-01T20:01:37Z</time>
  <course>227.55</course>
  <speed>9.719675920523276</speed>
  <fix>3d</fix>
</trkpt>
<trkpt lat="-27.2615644" lon="151.3533187">
  <ele>538.17</ele>
  <time>2026-09-01T20:01:37Z</time>
  <course>203.85</course>
  <speed>8.43</speed>
  <fix>3d</fix>
</trkpt>
<trkpt lat="-27.2615918" lon="151.3532972">
  <ele>538.02</ele>
  <time>2026-09-01T20:01:37Z</time>
  <course>229.86</course>
  <speed>10.21110180147079</speed>
  <fix>3d</fix>
</trkpt>
<trkpt lat="-27.2615781" lon="151.3533099">
  <ele>538.07</ele>
  <time>2026-09-01T20:01:37Z</time>
  <course>215.37</course>
  <speed>9.22</speed>
  <fix>3d</fix>
</trkpt>
<trkpt lat="-27.2615981" lon="151.3532894">
  <ele>537.98</ele>
  <time>2026-09-01T20:01:37Z</time>
  <course>232.57</course>
  <speed>10.736149216548734</speed>
  <fix>3d</fix>
</trkpt>
<trkpt lat="-27.2615781" lon="151.3533099">
  <ele>538.07</ele>
  <time>2026-09-01T20:01:37Z</time>
  <course>215.37</course>
  <speed>9.22</speed>
  <fix>3d</fix>
</trkpt>
<trkpt lat="-27.2616042" lon="151.3532807">
  <ele>537.91</ele>
  <time>2026-09-01T20:01:37Z</time>
  <course>235.45</course>
  <speed>11.266556705577795</speed>
  <fix>3d</fix>
</trkpt>
<trkpt lat="-27.2615913" lon="151.3532971">
  <ele>538.01</ele>
  <time>2026-09-01T20:01:37Z</time>
  <course>225.32</course>
  <speed>10.17</speed>
  <fix>3d</fix>
</trkpt>
<trkpt lat="-27.26161" lon="151.3532711">
  <ele>537.84</ele>
  <time>2026-09-01T20:01:37Z</time>
  <course>238.3</course>
  <speed>11.800559308778546</speed>
  <fix>3d</fix>
</trkpt>
<trkpt lat="-27.2615913" lon="151.3532971">
  <ele>538.01</ele>
  <time>2026-09-01T20:01:37Z</time>
  <course>225.32</course>
  <speed>10.17</speed>
  <fix>3d</fix>
</trkpt>
<trkpt lat="-27.2616156" lon="151.3532606">
  <ele>537.75</ele>
  <time>2026-09-01T20:01:37Z</time>
  <course>241.02</course>
  <speed>12.338285942544855</speed>
  <fix>3d</fix>
</trkpt>
<trkpt lat="-27.2616037" lon="151.3532807">
  <ele>537.91</ele>
  <time>2026-09-01T20:01:37Z</time>
  <course>233.56</course>
  <speed>11.22</speed>
  <fix>3d</fix>
</trkpt>
<trkpt lat="-27.2616209" lon="151.3532492">
  <ele>537.64</ele>
  <time>2026-09-01T20:01:37Z</time>
  <course>243.5</course>
  <speed>12.875655323128218</speed>
  <fix>3d</fix>
</trkpt>
<trkpt lat="-27.2616037" lon="151.3532807">
  <ele>537.91</ele>
  <time>2026-09-01T20:01:37Z</time>
  <course>233.56</course>
  <speed>11.22</speed>
  <fix>3d</fix>
</trkpt>
<trkpt lat="-27.2616258" lon="151.3532372">
  <ele>537.53</ele>
  <time>2026-09-01T20:01:37Z</time>
  <course>245.74</course>
  <speed>13.40901935265961</speed>
  <fix>3d</fix>
</trkpt>
<trkpt lat="-27.2616152" lon="151.3532607">
  <ele>537.74</ele>
  <time>2026-09-01T20:01:37Z</time>
  <course>240.6</course>
  <speed>12.29</speed>
  <fix>3d</fix>
</trkpt>
<trkpt lat="-27.2616303" lon="151.3532243">
  <ele>537.41</ele>
  <time>2026-09-01T20:01:37Z</time>
  <course>247.87</course>
  <speed>13.938454003224317</speed>
  <fix>3d</fix>
</trkpt>
<trkpt lat="-27.2616152" lon="151.3532607">
  <ele>537.74</ele>
  <time>2026-09-01T20:01:37Z</time>
  <course>240.6</course>
  <speed>12.29</speed>
  <fix>3d</fix>
</trkpt>
<trkpt lat="-27.2616345" lon="151.3532109">
  <ele>537.32</ele>
  <time>2026-09-01T20:01:37Z</time>
  <course>249.82</course>
  <speed>14.45524472293707</speed>
  <fix>3d</fix>
</trkpt>
<trkpt lat="-27.2616254" lon="151.3532374">
  <ele>537.54</ele>
  <time>2026-09-01T20:01:37Z</time>
  <course>246.69</course>
  <speed>13.37</speed>
  <fix>3d</fix>
</trkpt>
<trkpt lat="-27.2616384" lon="151.3531966">
  <ele>537.22</ele>
  <time>2026-09-01T20:01:37Z</time>
  <course>251.67</course>
  <speed>14.968319878997777</speed>
  <fix>3d</fix>
</trkpt>
<trkpt lat="-27.2616254" lon="151.3532374">
  <ele>537.54</ele>
  <time>2026-09-01T20:01:37Z</time>
  <course>246.69</course>
  <speed>13.37</speed>
  <fix>3d</fix>
</trkpt>
<trkpt lat="-27.2616418" lon="151.3531817">
  <ele>537.12</ele>
  <time>2026-09-01T20:01:37Z</time>
  <course>253.53</course>
  <speed>15.469211356756361</speed>
  <fix>3d</fix>
</trkpt>
<trkpt lat="-27.2616342" lon="151.353211">
  <ele>537.32</ele>
  <time>2026-09-01T20:01:37Z</time>
  <course>251.9</course>
  <speed>14.42</speed>
  <fix>3d</fix>
</trkpt>
<trkpt lat="-27.2616449" lon="151.3531663">
  <ele>537.04</ele>
  <time>2026-09-01T20:01:37Z</time>
  <course>255.29</course>
  <speed>15.96066414658237</speed>
  <fix>3d</fix>
</trkpt>
<trkpt lat="-27.2616342" lon="151.353211">
  <ele>537.32</ele>
  <time>2026-09-01T20:01:37Z</time>
  <course>251.9</course>
  <speed>14.42</speed>
  <fix>3d</fix>
</trkpt>
<trkpt lat="-27.2616477" lon="151.3531501">
  <ele>536.97</ele>
  <time>2026-09-01T20:01:37Z</time>
  <course>257.0</course>
  <speed>16.42975958436398</speed>
  <fix>3d</fix>
</trkpt>
<trkpt lat="-27.2616415" lon="151.353182">
  <ele>537.13</ele>
  <time>2026-09-01T20:01:37Z</time>
  <course>256.19</course>
  <speed>15.43</speed>
  <fix>3d</fix>
</trkpt>
<trkpt lat="-27.2616502" lon="151.3531336">
  <ele>536.91</ele>
  <time>2026-09-01T20:01:37Z</time>
  <course>258.59</course>
  <speed>16.8935638631995</speed>
  <fix>3d</fix>
</trkpt>
<trkpt lat="-27.2616415" lon="151.353182">
  <ele>537.13</ele>
  <time>2026-09-01T20:01:37Z</time>
  <course>256.19</course>
  <speed>15.43</speed>
  <fix>3d</fix>
</trkpt>
<trkpt lat="-27.2616523" lon="151.3531165">
  <ele>536.86</ele>
  <time>2026-09-01T20:01:37Z</time>
  <course>259.98</course>
  <speed>17.34139844418552</speed>
  <fix>3d</fix>
</trkpt>
<trkpt lat="-27.2616474" lon="151.3531506">
  <ele>536.97</ele>
  <time>2026-09-01T20:01:37Z</time>
  <course>259.69</course>
  <speed>16.4</speed>
  <fix>3d</fix>
</trkpt>
<trkpt lat="-27.2616542" lon="151.3530988">
  <ele>536.83</ele>
  <time>2026-09-01T20:01:37Z</time>
  <course>261.29</course>
  <speed>17.771856965438364</speed>
  <fix>3d</fix>
</trkpt>
<trkpt lat="-27.2616474" lon="151.3531506">
  <ele>536.97</ele>
  <time>2026-09-01T20:01:37Z</time>
  <course>259.69</course>
  <speed>16.4</speed>
  <fix>3d</fix>
</trkpt>
<trkpt lat="-27.2616557" lon="151.3530807">
  <ele>536.81</ele>
  <time>2026-09-01T20:01:37Z</time>
  <course>262.49</course>
  <speed>18.200464279792424</speed>
  <fix>3d</fix>
</trkpt>
<trkpt lat="-27.2616521" lon="151.3531169">
  <ele>536.87</ele>
  <time>2026-09-01T20:01:37Z</time>
  <course>262.55</course>
  <speed>17.31</speed>
  <fix>3d</fix>
</trkpt>
<trkpt lat="-27.261657" lon="151.3530621">
  <ele>536.81</ele>
  <time>2026-09-01T20:01:37Z</time>
  <course>263.55</course>
  <speed>18.596905656587065</speed>
  <fix>3d</fix>
</trkpt>
<trkpt lat="-27.2616521" lon="151.3531169">
  <ele>536.87</ele>
  <time>2026-09-01T20:01:37Z</time>
  <course>262.55</course>
  <speed>17.31</speed>
  <fix>3d</fix>
</trkpt>
<trkpt lat="-27.2616581" lon="151.353043">
  <ele>536.82</ele>
  <time>2026-09-01T20:01:37Z</time>
  <course>264.43</course>
  <speed>18.979623283932693</speed>
  <fix>3d</fix>
</trkpt>
<trkpt lat="-27.2616555" lon="151.3530812">
  <ele>536.82</ele>
  <time>2026-09-01T20:01:37Z</time>
  <course>264.86</course>
  <speed>18.17</speed>
  <fix>3d</fix>
</trkpt>
<trkpt lat="-27.261659" lon="151.3530238">
  <ele>536.85</ele>
  <time>2026-09-01T20:01:37Z</time>
  <course>265.21</course>
  <speed>19.357802044653727</speed>
  <fix>3d</fix>
</trkpt>
<trkpt lat="-27.2616555" lon="151.3530812">
  <ele>536.82</ele>
  <time>2026-09-01T20:01:37Z</time>
  <course>264.86</course>
  <speed>18.17</speed>
  <fix>3d</fix>
</trkpt>
<trkpt lat="-27.2616596" lon="151.353004">
  <ele>536.89</ele>
  <time>2026-09-01T20:01:37Z</time>
  <course>265.89</course>
  <speed>19.710071029806056</speed>
  <fix>3d</fix>
</trkpt>
<trkpt lat="-27.2616579" lon="151.3530438">
  <ele>536.82</ele>
  <time>2026-09-01T20:01:37Z</time>
  <course>266.69</course>
  <speed>18.96</speed>
  <fix>3d</fix>
</trkpt>
<trkpt lat="-27.2616601" lon="151.3529839">
  <ele>536.95</ele>
  <time>2026-09-01T20:01:37Z</time>
  <course>266.55</course>
  <speed>20.055049239530675</speed>
  <fix>3d</fix>
</trkpt>
<trkpt lat="-27.2616579" lon="151.3530438">
  <ele>536.82</ele>
  <time>2026-09-01T20:01:37Z</time>
  <course>266.69</course>
  <speed>18.96</speed>
  <fix>3d</fix>
</trkpt>
<trkpt lat="-27.2616605" lon="151.3529634">
  <ele>537.02</ele>
  <time>2026-09-01T20:01:37Z</time>
  <course>267.28</course>
  <speed>20.392062181152745</speed>
  <fix>3d</fix>
</trkpt>
<trkpt lat="-27.2616595" lon="151.3530048">
  <ele>536.9</ele>
  <time>2026-09-01T20:01:37Z</time>
  <course>268.08</course>
  <speed>19.69</speed>
  <fix>3d</fix>
</trkpt>
<trkpt lat="-27.2616606" lon="151.3529427">
  <ele>537.09</ele>
  <time>2026-09-01T20:01:37Z</time>
  <course>267.96</course>
  <speed>20.700408208535404</speed>
  <fix>3d</fix>
</trkpt>
<trkpt lat="-27.2616595" lon="151.3530048">
  <ele>536.9</ele>
  <time>2026-09-01T20:01:37Z</time>
  <course>268.08</course>
  <speed>19.69</speed>
  <fix>3d</fix>
</trkpt>
<trkpt lat="-27.2616607" lon="151.3529217">
  <ele>537.16</ele>
  <time>2026-09-01T20:01:37Z</time>
  <course>268.52</course>
  <speed>20.99</speed>
  <fix>3d</fix>
</trkpt>
<trkpt lat="-27.2616603" lon="151.3529644">
  <ele>537.02</ele>
  <time>2026-09-01T20:01:37Z</time>
  <course>269.14</course>
  <speed>20.36</speed>
  <fix>3d</fix>
</trkpt>
<trkpt lat="-27.2616606" lon="151.3529002">
  <ele>537.25</ele>
  <time>2026-09-01T20:01:37Z</time>
  <course>268.95</course>
  <speed>21.240338980345864</speed>
  <fix>3d</fix>
</trkpt>
<trkpt lat="-27.2616603" lon="151.3529644">
  <ele>537.02</ele>
  <time>2026-09-01T20:01:37Z</time>
  <course>269.14</course>
  <speed>20.36</speed>
  <fix>3d</fix>
</trkpt>
<trkpt lat="-27.2616605" lon="151.3528787">
  <ele>537.33</ele>
  <time>2026-09-01T20:01:37Z</time>
  <course>269.28</course>
  <speed>21.471127124582907</speed>
  <fix>3d</fix>
</trkpt>
<trkpt lat="-27.2616606" lon="151.3529226">
  <ele>537.17</ele>
  <time>2026-09-01T20:01:37Z</time>
  <course>269.97</course>
  <speed>20.96</speed>
  <fix>3d</fix>
</trkpt>
<trkpt lat="-27.2616602" lon="151.352857">
  <ele>537.39</ele>
  <time>2026-09-01T20:01:37Z</time>
  <course>269.51</course>
  <speed>21.6622182612954</speed>
  <fix>3d</fix>
</trkpt>
<trkpt lat="-27.2616606" lon="151.3529226">
  <ele>537.17</ele>
  <time>2026-09-01T20:01:37Z</time>
  <course>269.97</course>
  <speed>20.96</speed>
  <fix>3d</fix>
</trkpt>
<trkpt lat="-27.2616599" lon="151.352835">
  <ele>537.45</ele>
  <time>2026-09-01T20:01:37Z</time>
  <course>269.74</course>
  <speed>21.813310156874405</speed>
  <fix>3d</fix>
</trkpt>
<trkpt lat="-27.2616603" lon="151.3528797">
  <ele>537.32</ele>
  <time>2026-09-01T20:01:37Z</time>
  <course>270.57</course>
  <speed>21.44</speed>
  <fix>3d</fix>
</trkpt>
<trkpt lat="-27.2616596" lon="151.3528129">
  <ele>537.49</ele>
  <time>2026-09-01T20:01:37Z</time>
  <course>269.95</course>
  <speed>21.944411589286233</speed>
  <fix>3d</fix>
</trkpt>
<trkpt lat="-27.2616603" lon="151.3528797">
  <ele>537.32</ele>
  <time>2026-09-01T20:01:37Z</time>
  <course>270.57</course>
  <speed>21.44</speed>
  <fix>3d</fix>
</trkpt>
<trkpt lat="-27.2616592" lon="151.3527906">
  <ele>537.51</ele>
  <time>2026-09-01T20:01:37Z</time>
  <course>270.21</course>
  <speed>22.04522624061726</speed>
  <fix>3d</fix>
</trkpt>
<trkpt lat="-27.2616599" lon="151.3528359">
  <ele>537.43</ele>
  <time>2026-09-01T20:01:37Z</time>
  <course>270.98</course>
  <speed>21.79</speed>
  <fix>3d</fix>
</trkpt>
<trkpt lat="-27.2616588" lon="151.3527684">
  <ele>537.52</ele>
  <time>2026-09-01T20:01:37Z</time>
  <course>270.46</course>
  <speed>22.11611403479373</speed>
  <fix>3d</fix>
</trkpt>
<trkpt lat="-27.2616599" lon="151.3528359">
  <ele>537.43</ele>
  <time>2026-09-01T20:01:37Z</time>
  <course>270.98</course>
  <speed>21.79</speed>
  <fix>3d</fix>
</trkpt>
<trkpt lat="-27.2616582" lon="151.352746">
  <ele>537.52</ele>
  <time>2026-09-01T20:01:37Z</time>
  <course>270.61</course>
  <speed>22.176821232990086</speed>
  <fix>3d</fix>
</trkpt>
<trkpt lat="-27.2616591" lon="151.3527915">
  <ele>537.5</ele>
  <time>2026-09-01T20:01:37Z</time>
  <course>271.25</course>
  <speed>22.03</speed>
  <fix>3d</fix>
</trkpt>
<trkpt lat="-27.2616578" lon="151.3527236">
  <ele>537.51</ele>
  <time>2026-09-01T20:01:37Z</time>
  <course>270.73</course>
  <speed>22.23756506454787</speed>
  <fix>3d</fix>
</trkpt>
<trkpt lat="-27.2616591" lon="151.3527915">
  <ele>537.5</ele>
  <time>2026-09-01T20:01:37Z</time>
  <course>271.25</course>
  <speed>22.03</speed>
  <fix>3d</fix>
</trkpt>
<trkpt lat="-27.2616572" lon="151.3527011">
  <ele>537.49</ele>
  <time>2026-09-01T20:01:37Z</time>
  <course>270.85</course>
  <speed>22.27808115614987</speed>
  <fix>3d</fix>
</trkpt>
<trkpt lat="-27.2616583" lon="151.3527469">
  <ele>537.51</ele>
  <time>2026-09-01T20:01:37Z</time>
  <course>271.42</course>
  <speed>22.17</speed>
  <fix>3d</fix>
</trkpt>
<trkpt lat="-27.2616567" lon="151.3526786">
  <ele>537.45</ele>
  <time>2026-09-01T20:01:37Z</time>
  <course>270.96</course>
  <speed>22.29834523008378</speed>
  <fix>3d</fix>
</trkpt>
<trkpt lat="-27.2616583" lon="151.3527469">
  <ele>537.51</ele>
  <time>2026-09-01T20:01:37Z</time>
  <course>271.42</course>
  <speed>22.17</speed>
  <fix>3d</fix>
</trkpt>
<trkpt lat="-27.2616561" lon="151.352656">
  <ele>537.41</ele>
  <time>2026-09-01T20:01:37Z</time>
  <course>271.08</course>
  <speed>22.318337751723355</speed>
  <fix>3d</fix>
</trkpt>
<trkpt lat="-27.2616572" lon="151.352702">
  <ele>537.48</ele>
  <time>2026-09-01T20:01:37Z</time>
  <course>271.53</course>
  <speed>22.27</speed>
  <fix>3d</fix>
</trkpt>
<trkpt lat="-27.2616556" lon="151.3526335">
  <ele>537.36</ele>
  <time>2026-09-01T20:01:37Z</time>
  <course>271.2</course>
  <speed>22.328334017566114</speed>
  <fix>3d</fix>
</trkpt>
<trkpt lat="-27.2616572" lon="151.352702">
  <ele>537.48</ele>
  <time>2026-09-01T20:01:37Z</time>
  <course>271.53</course>
  <speed>22.27</speed>
  <fix>3d</fix>
</trkpt>
<trkpt lat="-27.261655" lon="151.3526109">
  <ele>537.31</ele>
  <time>2026-09-01T20:01:37Z</time>
  <course>271.28</course>
  <speed>22.338330286751514</speed>
  <fix>3d</fix>
</trkpt>
<trkpt lat="-27.2616561" lon="151.3526569">
  <ele>537.4</ele>
  <time>2026-09-01T20:01:37Z</time>
  <course>271.57</course>
  <speed>22.31</speed>
  <fix>3d</fix>
</trkpt>
<trkpt lat="-27.2616545" lon="151.3525884">
  <ele>537.26</ele>
  <time>2026-09-01T20:01:37Z</time>
  <course>271.28</course>
  <speed>22.358322835132334</speed>
  <fix>3d</fix>
</trkpt>
<trkpt lat="-27.2616561" lon="151.3526569">
  <ele>537.4</ele>
  <time>2026-09-01T20:01:37Z</time>
  <course>271.57</course>
  <speed>22.31</speed>
  <fix>3d</fix>
</trkpt>
<trkpt lat="-27.2616539" lon="151.3525657">
  <ele>537.21</ele>
  <time>2026-09-01T20:01:37Z</time>
  <course>271.26</course>
  <speed>22.367782634852297</speed>
  <fix>3d</fix>
</trkpt>
<trkpt lat="-27.261655" lon="151.3526118">
  <ele>537.31</ele>
  <time>2026-09-01T20:01:37Z</time>
  <course>271.57</course>
  <speed>22.34</speed>
  <fix>3d</fix>
</trkpt>
<trkpt lat="-27.2616534" lon="151.3525431">
  <ele>537.16</ele>
  <time>2026-09-01T20:01:37Z</time>
  <course>271.28</course>
  <speed>22.377517735441526</speed>
  <fix>3d</fix>
</trkpt>
<trkpt lat="-27.261655" lon="151.3526118">
  <ele>537.31</ele>
  <time>2026-09-01T20:01:37Z</time>
  <course>271.57</course>
  <speed>22.34</speed>
  <fix>3d</fix>
</trkpt>
<trkpt lat="-27.2616529" lon="151.3525206">
  <ele>537.11</ele>
  <time>2026-09-01T20:01:37Z</time>
  <course>271.25</course>
  <speed>22.387005159243607</speed>
  <fix>3d</fix>
</trkpt>
<trkpt lat="-27.2616539" lon="151.3525667">
  <ele>537.2</ele>
  <time>2026-09-01T20:01:37Z</time>
  <course>271.52</course>
  <speed>22.37</speed>
  <fix>3d</fix>
</trkpt>
<trkpt lat="-27.2616524" lon="151.352498">
  <ele>537.06</ele>
  <time>2026-09-01T20:01:37Z</time>
  <course>271.21</course>
  <speed>22.39627201120758</speed>
  <fix>3d</fix>
</trkpt>
<trkpt lat="-27.2616539" lon="151.3525667">
  <ele>537.2</ele>
  <time>2026-09-01T20:01:37Z</time>
  <course>271.52</course>
  <speed>22.37</speed>
  <fix>3d</fix>
</trkpt>
<trkpt lat="-27.2616519" lon="151.3524752">
  <ele>537.02</ele>
  <time>2026-09-01T20:01:37Z</time>
  <course>271.21</course>
  <speed>22.39558215363021</speed>
  <fix>3d</fix>
</trkpt>
<trkpt lat="-27.2616529" lon="151.3525215">
  <ele>537.11</ele>
  <time>2026-09-01T20:01:37Z</time>
  <course>271.43</course>
  <speed>22.39</speed>
  <fix>3d</fix>
</trkpt>
<trkpt lat="-27.2616515" lon="151.3524525">
  <ele>536.98</ele>
  <time>2026-09-01T20:01:37Z</time>
  <course>271.17</course>
  <speed>22.404930260993897</speed>
  <fix>3d</fix>
</trkpt>
<trkpt lat="-27.2616529" lon="151.3525215">
  <ele>537.11</ele>
  <time>2026-09-01T20:01:37Z</time>
  <course>271.43</course>
  <speed>22.39</speed>
  <fix>3d</fix>
</trkpt>
<trkpt lat="-27.2616511" lon="151.3524299">
  <ele>536.95</ele>
  <time>2026-09-01T20:01:37Z</time>
  <course>271.11</course>
  <speed>22.404321011804846</speed>
  <fix>3d</fix>
</trkpt>
<trkpt lat="-27.2616519" lon="151.3524762">
  <ele>537.02</ele>
  <time>2026-09-01T20:01:37Z</time>
  <course>271.29</course>
  <speed>22.4</speed>
  <fix>3d</fix>
</trkpt>
<trkpt lat="-27.2616506" lon="151.3524071">
  <ele>536.91</ele>
  <time>2026-09-01T20:01:37Z</time>
  <course>271.02</course>
  <speed>22.403571143904713</speed>
  <fix>3d</fix>
</trkpt>
<trkpt lat="-27.2616519" lon="151.3524762">
  <ele>537.02</ele>
  <time>2026-09-01T20:01:37Z</time>
  <course>271.29</course>
  <speed>22.4</speed>
  <fix>3d</fix>
</trkpt>
<trkpt lat="-27.2616503" lon="151.3523846">
  <ele>536.88</ele>
  <time>2026-09-01T20:01:37Z</time>
  <course>270.93</course>
  <speed>22.413054231853366</speed>
  <fix>3d</fix>
</trkpt>
<trkpt lat="-27.2616511" lon="151.352431">
  <ele>536.94</ele>
  <time>2026-09-01T20:01:37Z</time>
  <course>271.13</course>
  <speed>22.41</speed>
  <fix>3d</fix>
</trkpt>
<trkpt lat="-27.26165" lon="151.352362">
  <ele>536.84</ele>
  <time>2026-09-01T20:01:37Z</time>
  <course>270.86</course>
  <speed>22.412429587173275</speed>
  <fix>3d</fix>
</trkpt>
<trkpt lat="-27.2616511" lon="151.352431">
  <ele>536.94</ele>
  <time>2026-09-01T20:01:37Z</time>
  <course>271.13</course>
  <speed>22.41</speed>
  <fix>3d</fix>
</trkpt>
<trkpt lat="-27.2616497" lon="151.3523392">
  <ele>536.81</ele>
  <time>2026-09-01T20:01:37Z</time>
  <course>270.8</course>
  <speed>22.411876315917862</speed>
  <fix>3d</fix>
</trkpt>
<trkpt lat="-27.2616503" lon="151.3523856">
  <ele>536.87</ele>
  <time>2026-09-01T20:01:37Z</time>
  <course>270.95</course>
  <speed>22.41</speed>
  <fix>3d</fix>
</trkpt>
<trkpt lat="-27.2616495" lon="151.3523167">
  <ele>536.77</ele>
  <time>2026-09-01T20:01:37Z</time>
  <course>270.75</course>
  <speed>22.42150753183202</speed>
  <fix>3d</fix>
</trkpt>
<trkpt lat="-27.2616503" lon="151.3523856">
  <ele>536.87</ele>
  <time>2026-09-01T20:01:37Z</time>
  <course>270.95</course>
  <speed>22.41</speed>
  <fix>3d</fix>
</trkpt>
<trkpt lat="-27.2616493" lon="151.352294">
  <ele>536.73</ele>
  <time>2026-09-01T20:01:37Z</time>
  <course>270.69</course>
  <speed>22.431078886223908</speed>
  <fix>3d</fix>
</trkpt>
<trkpt lat="-27.2616497" lon="151.3523402">
  <ele>536.8</ele>
  <time>2026-09-01T20:01:37Z</time>
  <course>270.76</course>
  <speed>22.42</speed>
  <fix>3d</fix>
</trkpt>
<trkpt lat="-27.2616491" lon="151.3522714">
  <ele>536.69</ele>
  <time>2026-09-01T20:01:37Z</time>
  <course>270.62</course>
  <speed>22.43072223536282</speed>
  <fix>3d</fix>
</trkpt>
<trkpt lat="-27.2616497" lon="151.3523402">
  <ele>536.8</ele>
  <time>2026-09-01T20:01:37Z</time>
  <course>270.76</course>
  <speed>22.42</speed>
  <fix>3d</fix>
</trkpt>
<trkpt lat="-27.2616489" lon="151.3522487">
  <ele>536.64</ele>
  <time>2026-09-01T20:01:37Z</time>
  <course>270.49</course>
  <speed>22.44043671589303</speed>
  <fix>3d</fix>
</trkpt>
<trkpt lat="-27.2616493" lon="151.3522949">
  <ele>536.73</ele>
  <time>2026-09-01T20:01:37Z</time>
  <course>270.57</course>
  <speed>22.43</speed>
  <fix>3d</fix>
</trkpt>
<trkpt lat="-27.2616488" lon="151.352226">
  <ele>536.59</ele>
  <time>2026-09-01T20:01:37Z</time>
  <course>270.39</course>
  <speed>22.450269486133124</speed>
  <fix>3d</fix>
</trkpt>
<trkpt lat="-27.2616493" lon="151.3522949">
  <ele>536.73</ele>
  <time>2026-09-01T20:01:37Z</time>
  <course>270.57</course>
  <speed>22.43</speed>
  <fix>3d</fix>
</trkpt>
<trkpt lat="-27.2616487" lon="151.3522032">
  <ele>536.54</ele>
  <time>2026-09-01T20:01:37Z</time>
  <course>270.32</course>
  <speed>22.47010903400337</speed>
  <fix>3d</fix>
</trkpt>
<trkpt lat="-27.2616489" lon="151.3522496">
  <ele>536.64</ele>
  <time>2026-09-01T20:01:37Z</time>
  <course>270.38</course>
  <speed>22.44</speed>
  <fix>3d</fix>
</trkpt>
<trkpt lat="-27.2616487" lon="151.3521806">
  <ele>536.49</ele>
  <time>2026-09-01T20:01:37Z</time>
  <course>270.24</course>
  <speed>22.49003557133692</speed>
  <fix>3d</fix>
</trkpt>
<trkpt lat="-27.2616489" lon="151.3522496">
  <ele>536.64</ele>
  <time>2026-09-01T20:01:37Z</time>
  <course>270.38</course>
  <speed>22.44</speed>
  <fix>3d</fix>
</trkpt>
<trkpt lat="-27.2616487" lon="151.3521578">
  <ele>536.43</ele>
  <time>2026-09-01T20:01:37Z</time>
  <course>270.16</course>
  <speed>22.51</speed>
  <fix>3d</fix>
</trkpt>
<trkpt lat="-27.2616487" lon="151.3522042">
  <ele>536.54</ele>
  <time>2026-09-01T20:01:37Z</time>
  <course>270.2</course>
  <speed>22.47</speed>
  <fix>3d</fix>
</trkpt>
<trkpt lat="-27.2616487" lon="151.3521351">
  <ele>536.37</ele>
  <time>2026-09-01T20:01:37Z</time>
  <course>270.1</course>
  <speed>22.540008873112715</speed>
  <fix>3d</fix>
</trkpt>
<trkpt lat="-27.2616487" lon="151.3522042">
  <ele>536.54</ele>
  <time>2026-09-01T20:01:37Z</time>
  <course>270.2</course>
  <speed>22.47</speed>
  <fix>3d</fix>
</trkpt>
<trkpt lat="-27.2616487" lon="151.3521122">
  <ele>536.29</ele>
  <time>2026-09-01T20:01:37Z</time>
  <course>270.01</course>
  <speed>22.570055383184155</speed>
  <fix>3d</fix>
</trkpt>
<trkpt lat="-27.2616487" lon="151.3521587">
  <ele>536.43</ele>
  <time>2026-09-01T20:01:37Z</time>
  <course>270.02</course>
  <speed>22.51</speed>
  <fix>3d</fix>
</trkpt>
<trkpt lat="-27.2616487" lon="151.3520895">
  <ele>536.24</ele>
  <time>2026-09-01T20:01:37Z</time>
  <course>269.94</course>
  <speed>22.600179202829345</speed>
  <fix>3d</fix>
</trkpt>
<trkpt lat="-27.2616487" lon="151.3521587">
  <ele>536.43</ele>
  <time>2026-09-01T20:01:37Z</time>
  <course>270.02</course>
  <speed>22.51</speed>
  <fix>3d</fix>
</trkpt>
<trkpt lat="-27.2616488" lon="151.3520666">
  <ele>536.16</ele>
  <time>2026-09-01T20:01:37Z</time>
  <course>269.86</course>
  <speed>22.640318018967843</speed>
  <fix>3d</fix>
</trkpt>
<trkpt lat="-27.2616487" lon="151.3521132">
  <ele>536.3</ele>
  <time>2026-09-01T20:01:37Z</time>
  <course>269.85</course>
  <speed>22.57</speed>
  <fix>3d</fix>
</trkpt>
<trkpt lat="-27.2616489" lon="151.3520438">
  <ele>536.1</ele>
  <time>2026-09-01T20:01:37Z</time>
  <course>269.79</course>
  <speed>22.68049602632182</speed>
  <fix>3d</fix>
</trkpt>
<trkpt lat="-27.2616487" lon="151.3521132">
  <ele>536.3</ele>
  <time>2026-09-01T20:01:37Z</time>
  <course>269.85</course>
  <speed>22.57</speed>
  <fix>3d</fix>
</trkpt>
<trkpt lat="-27.261649" lon="151.3520208">
  <ele>536.02</ele>
  <time>2026-09-01T20:01:37Z</time>
  <course>269.77</course>
  <speed>22.720713016980785</speed>
  <fix>3d</fix>
</trkpt>
<trkpt lat="-27.2616487" lon="151.3520676">
  <ele>536.17</ele>
  <time>2026-09-01T20:01:37Z</time>
  <course>269.68</course>
  <speed>22.64</speed>
  <fix>3d</fix>
</trkpt>
<trkpt lat="-27.2616492" lon="151.3519978">
  <ele>535.95</ele>
  <time>2026-09-01T20:01:37Z</time>
  <course>269.67</course>
  <speed>22.770968358855534</speed>
  <fix>3d</fix>
</trkpt>
<trkpt lat="-27.2616487" lon="151.3520676">
  <ele>536.17</ele>
  <time>2026-09-01T20:01:37Z</time>
  <course>269.68</course>
  <speed>22.64</speed>
  <fix>3d</fix>
</trkpt>
<trkpt lat="-27.2616494" lon="151.3519748">
  <ele>535.88</ele>
  <time>2026-09-01T20:01:37Z</time>
  <course>269.59</course>
  <speed>22.811159549659024</speed>
  <fix>3d</fix>
</trkpt>
<trkpt lat="-27.261649" lon="151.3520217">
  <ele>536.03</ele>
  <time>2026-09-01T20:01:37Z</time>
  <course>269.53</course>
  <speed>22.72</speed>
  <fix>3d</fix>
</trkpt>
<trkpt lat="-27.2616497" lon="151.3519517">
  <ele>535.81</ele>
  <time>2026-09-01T20:01:37Z</time>
  <course>269.5</course>
  <speed>22.86147851736628</speed>
  <fix>3d</fix>
</trkpt>
<trkpt lat="-27.261649" lon="151.3520217">
  <ele>536.03</ele>
  <time>2026-09-01T20:01:37Z</time>
  <course>269.53</course>
  <speed>22.72</speed>
  <fix>3d</fix>
</trkpt>
<trkpt lat="-27.2616499" lon="151.3519285">
  <ele>535.74</ele>
  <time>2026-09-01T20:01:37Z</time>
  <course>269.46</course>
  <speed>22.90171172641905</speed>
  <fix>3d</fix>
</trkpt>
<trkpt lat="-27.2616493" lon="151.3519757">
  <ele>535.88</ele>
  <time>2026-09-01T20:01:37Z</time>
  <course>269.41</course>
  <speed>22.81</speed>
  <fix>3d</fix>
</trkpt>
<trkpt lat="-27.2616502" lon="151.3519054">
  <ele>535.66</ele>
  <time>2026-09-01T20:01:37Z</time>
  <course>269.39</course>
  <speed>22.9519607005589</speed>
  <fix>3d</fix>
</trkpt>
<trkpt lat="-27.2616493" lon="151.3519757">
  <ele>535.88</ele>
  <time>2026-09-01T20:01:37Z</time>
  <course>269.41</course>
  <speed>22.81</speed>
  <fix>3d</fix>
</trkpt>
<trkpt lat="-27.2616504" lon="151.3518822">
  <ele>535.61</ele>
  <time>2026-09-01T20:01:37Z</time>
  <course>269.32</course>
  <speed>23.002225979239487</speed>
  <fix>3d</fix>
</trkpt>
<trkpt lat="-27.2616499" lon="151.3519295">
  <ele>535.74</ele>
  <time>2026-09-01T20:01:37Z</time>
  <course>269.29</course>
  <speed>22.91</speed>
  <fix>3d</fix>
</trkpt>
<trkpt lat="-27.2616506" lon="151.351859">
  <ele>535.54</ele>
  <time>2026-09-01T20:01:37Z</time>
  <course>269.26</course>
  <speed>23.05250745580619</speed>
  <fix>3d</fix>
</trkpt>
<trkpt lat="-27.2616499" lon="151.3519295">
  <ele>535.74</ele>
  <time>2026-09-01T20:01:37Z</time>
  <course>269.29</course>
  <speed>22.91</speed>
  <fix>3d</fix>
</trkpt>
<trkpt lat="-27.2616511" lon="151.3518356">
  <ele>535.44</ele>
  <time>2026-09-01T20:01:37Z</time>
  <course>269.22</course>
  <speed>23.10265136299295</speed>
  <fix>3d</fix>
</trkpt>
<trkpt lat="-27.2616504" lon="151.351883">
  <ele>535.61</ele>
  <time>2026-09-01T20:01:37Z</time>
  <course>269.19</course>
  <speed>23.0</speed>
  <fix>3d</fix>
</trkpt>
<trkpt lat="-27.2616514" lon="151.3518121">
  <ele>535.32</ele>
  <time>2026-09-01T20:01:37Z</time>
  <course>269.18</course>
  <speed>23.172796551128656</speed>
  <fix>3d</fix>
</trkpt>
<trkpt lat="-27.2616504" lon="151.351883">
  <ele>535.61</ele>
  <time>2026-09-01T20:01:37Z</time>
  <course>269.19</course>
  <speed>23.0</speed>
  <fix>3d</fix>
</trkpt>
<trkpt lat="-27.2616517" lon="151.3517886">
  <ele>535.16</ele>
  <time>2026-09-01T20:01:37Z</time>
  <course>269.19</course>
  <speed>23.253105168987645</speed>
  <fix>3d</fix>
</trkpt>
<trkpt lat="-27.261651" lon="151.3518364">
  <ele>535.43</ele>
  <time>2026-09-01T20:01:37Z</time>
  <course>269.12</course>
  <speed>23.11</speed>
  <fix>3d</fix>
</trkpt>
<trkpt lat="-27.2616521" lon="151.3517651">
  <ele>535.02</ele>
  <time>2026-09-01T20:01:37Z</time>
  <course>269.16</course>
  <speed>23.33325952369278</speed>
  <fix>3d</fix>
</trkpt>
<trkpt lat="-27.261651" lon="151.3518364">
  <ele>535.43</ele>
  <time>2026-09-01T20:01:37Z</time>
  <course>269.12</course>
  <speed>23.11</speed>
  <fix>3d</fix>
</trkpt>
<trkpt lat="-27.2616524" lon="151.3517415">
  <ele>534.87</ele>
  <time>2026-09-01T20:01:37Z</time>
  <course>269.14</course>
  <speed>23.42341563478734</speed>
  <fix>3d</fix>
</trkpt>
<trkpt lat="-27.2616517" lon="151.3517896">
  <ele>535.17</ele>
  <time>2026-09-01T20:01:37Z</time>
  <course>269.05</course>
  <speed>23.25</speed>
  <fix>3d</fix>
</trkpt>
<trkpt lat="-27.2616528" lon="151.3517178">
  <ele>534.72</ele>
  <time>2026-09-01T20:01:37Z</time>
  <course>269.06</course>
  <speed>23.513574802653892</speed>
  <fix>3d</fix>
</trkpt>
<trkpt lat="-27.2616517" lon="151.3517896">
  <ele>535.17</ele>
  <time>2026-09-01T20:01:37Z</time>
  <course>269.05</course>
  <speed>23.25</speed>
  <fix>3d</fix>
</trkpt>
<trkpt lat="-27.2616532" lon="151.3516939">
  <ele>534.59</ele>
  <time>2026-09-01T20:01:37Z</time>
  <course>268.99</course>
  <speed>23.603736992264594</speed>
  <fix>3d</fix>
</trkpt>
<trkpt lat="-27.2616524" lon="151.3517424">
  <ele>534.87</ele>
  <time>2026-09-01T20:01:37Z</time>
  <course>269.0</course>
  <speed>23.42</speed>
  <fix>3d</fix>
</trkpt>
<trkpt lat="-27.2616536" lon="151.3516701">
  <ele>534.47</ele>
  <time>2026-09-01T20:01:37Z</time>
  <course>268.97</course>
  <speed>23.684087485060513</speed>
  <fix>3d</fix>
</trkpt>
<trkpt lat="-27.2616524" lon="151.3517424">
  <ele>534.87</ele>
  <time>2026-09-01T20:01:37Z</time>
  <course>269.0</course>
  <speed>23.42</speed>
  <fix>3d</fix>
</trkpt>
<trkpt lat="-27.261654" lon="151.351646">
  <ele>534.36</ele>
  <time>2026-09-01T20:01:37Z</time>
  <course>268.93</course>
  <speed>23.764260981566416</speed>
  <fix>3d</fix>
</trkpt>
<trkpt lat="-27.2616532" lon="151.3516949">
  <ele>534.6</ele>
  <time>2026-09-01T20:01:37Z</time>
  <course>268.95</course>
  <speed>23.59</speed>
  <fix>3d</fix>
</trkpt>
<trkpt lat="-27.2616544" lon="151.351622">
  <ele>534.26</ele>
  <time>2026-09-01T20:01:37Z</time>
  <course>268.89</course>
  <speed>23.84443750647098</speed>
  <fix>3d</fix>
</trkpt>
<trkpt lat="-27.2616532" lon="151.3516949">
  <ele>534.6</ele>
  <time>2026-09-01T20:01:37Z</time>
  <course>268.95</course>
  <speed>23.59</speed>
  <fix>3d</fix>
</trkpt>
<trkpt lat="-27.2616548" lon="151.3515979">
  <ele>534.16</ele>
  <time>2026-09-01T20:01:37Z</time>
  <course>268.87</course>
  <speed>23.924422668060352</speed>
  <fix>3d</fix>
</trkpt>
<trkpt lat="-27.261654" lon="151.351647">
  <ele>534.36</ele>
  <time>2026-09-01T20:01:37Z</time>
  <course>268.91</course>
  <speed>23.76</speed>
  <fix>3d</fix>
</trkpt>
<trkpt lat="-27.2616552" lon="151.3515737">
  <ele>534.1</ele>
  <time>2026-09-01T20:01:37Z</time>
  <course>268.87</course>
  <speed>23.994603559967395</speed>
  <fix>3d</fix>
</trkpt>
<trkpt lat="-27.261654" lon="151.351647">
  <ele>534.36</ele>
  <time>2026-09-01T20:01:37Z</time>
  <course>268.91</course>
  <speed>23.76</speed>
  <fix>3d</fix>
</trkpt>
<trkpt lat="-27.2616557" lon="151.3515495">
  <ele>534.04</ele>
  <time>2026-09-01T20:01:37Z</time>
  <course>268.86</course>
  <speed>24.06459016895987</speed>
  <fix>3d</fix>
</trkpt>
<trkpt lat="-27.2616548" lon="151.3515989">
  <ele>534.18</ele>
  <time>2026-09-01T20:01:37Z</time>
  <course>268.87</course>
  <speed>23.92</speed>
  <fix>3d</fix>
</trkpt>
<trkpt lat="-27.2616561" lon="151.3515251">
  <ele>533.99</ele>
  <time>2026-09-01T20:01:37Z</time>
  <course>268.9</course>
  <speed>24.12457875279898</speed>
  <fix>3d</fix>
</trkpt>
<trkpt lat="-27.2616548" lon="151.3515989">
  <ele>534.18</ele>
  <time>2026-09-01T20:01:37Z</time>
  <course>268.87</course>
  <speed>23.92</speed>
  <fix>3d</fix>
</trkpt>
<trkpt lat="-27.2616565" lon="151.3515007">
  <ele>533.95</ele>
  <time>2026-09-01T20:01:37Z</time>
  <course>268.91</course>
  <speed>24.184567393277888</speed>
  <fix>3d</fix>
</trkpt>
<trkpt lat="-27.2616556" lon="151.3515504">
  <ele>534.04</ele>
  <time>2026-09-01T20:01:37Z</time>
  <course>268.86</course>
  <speed>24.06</speed>
  <fix>3d</fix>
</trkpt>
<trkpt lat="-27.2616569" lon="151.3514763">
  <ele>533.91</ele>
  <time>2026-09-01T20:01:37Z</time>
  <course>268.95</course>
  <speed>24.254362494198855</speed>
  <fix>3d</fix>
</trkpt>
<trkpt lat="-27.2616556" lon="151.3515504">
  <ele>534.04</ele>
  <time>2026-09-01T20:01:37Z</time>
  <course>268.86</course>
  <speed>24.06</speed>
  <fix>3d</fix>
</trkpt>
<trkpt lat="-27.2616574" lon="151.3514516">
  <ele>533.88</ele>
  <time>2026-09-01T20:01:37Z</time>
  <course>268.95</course>
  <speed>24.304166309503398</speed>
  <fix>3d</fix>
</trkpt>
<trkpt lat="-27.2616565" lon="151.3515017">
  <ele>533.94</ele>
  <time>2026-09-01T20:01:37Z</time>
  <course>268.87</course>
  <speed>24.19</speed>
  <fix>3d</fix>
</trkpt>
<trkpt lat="-27.2616578" lon="151.3514272">
  <ele>533.86</ele>
  <time>2026-09-01T20:01:37Z</time>
  <course>268.92</course>
  <speed>24.364156049409964</speed>
  <fix>3d</fix>
</trkpt>
<trkpt lat="-27.2616565" lon="151.3515017">
  <ele>533.94</ele>
  <time>2026-09-01T20:01:37Z</time>
  <course>268.87</course>
  <speed>24.19</speed>
  <fix>3d</fix>
</trkpt>
<trkpt lat="-27.2616582" lon="151.3514025">
  <ele>533.85</ele>
  <time>2026-09-01T20:01:37Z</time>
  <course>268.93</course>
  <speed>24.41396526580637</speed>
  <fix>3d</fix>
</trkpt>
<trkpt lat="-27.2616572" lon="151.3514527">
  <ele>533.88</ele>
  <time>2026-09-01T20:01:37Z</time>
  <course>268.91</course>
  <speed>24.3</speed>
  <fix>3d</fix>
</trkpt>
<trkpt lat="-27.2616586" lon="151.3513778">
  <ele>533.84</ele>
  <time>2026-09-01T20:01:37Z</time>
  <course>268.93</course>
  <speed>24.463779348252796</speed>
  <fix>3d</fix>
</trkpt>
<trkpt lat="-27.2616572" lon="151.3514527">
  <ele>533.88</ele>
  <time>2026-09-01T20:01:37Z</time>
  <course>268.91</course>
  <speed>24.3</speed>
  <fix>3d</fix>
</trkpt>
<trkpt lat="-27.2616589" lon="151.351353">
  <ele>533.84</ele>
  <time>2026-09-01T20:01:37Z</time>
  <course>268.93</course>
  <speed>24.513771639631468</speed>
  <fix>3d</fix>
</trkpt>
<trkpt lat="-27.2616581" lon="151.3514033">
  <ele>533.85</ele>
  <time>2026-09-01T20:01:37Z</time>
  <course>268.95</course>
  <speed>24.41</speed>
  <fix>3d</fix>
</trkpt>
<trkpt lat="-27.2616593" lon="151.3513283">
  <ele>533.84</ele>
  <time>2026-09-01T20:01:37Z</time>
  <course>268.96</course>
  <speed>24.563590942694027</speed>
  <fix>3d</fix>
</trkpt>
<trkpt lat="-27.2616581" lon="151.3514033">
  <ele>533.85</ele>
  <time>2026-09-01T20:01:37Z</time>
  <course>268.95</course>
  <speed>24.41</speed>
  <fix>3d</fix>
</trkpt>
<trkpt lat="-27.2616597" lon="151.3513034">
  <ele>533.85</ele>
  <time>2026-09-01T20:01:37Z</time>
  <course>269.0</course>
  <speed>24.613415041395616</speed>
  <fix>3d</fix>
</trkpt>
<trkpt lat="-27.2616589" lon="151.3513538">
  <ele>533.84</ele>
  <time>2026-09-01T20:01:37Z</time>
  <course>268.99</course>
  <speed>24.51</speed>
  <fix>3d</fix>
</trkpt>
<trkpt lat="-27.2616601" lon="151.3512786">
  <ele>533.86</ele>
  <time>2026-09-01T20:01:37Z</time>
  <course>269.0</course>
  <speed>24.653245222485417</speed>
  <fix>3d</fix>
</trkpt>
<trkpt lat="-27.2616589" lon="151.3513538">
  <ele>533.84</ele>
  <time>2026-09-01T20:01:37Z</time>
  <course>268.99</course>
  <speed>24.51</speed>
  <fix>3d</fix>
</trkpt>
<trkpt lat="-27.2616604" lon="151.3512536">
  <ele>533.88</ele>
  <time>2026-09-01T20:01:37Z</time>
  <course>269.0</course>
  <speed>24.683081250119486</speed>
  <fix>3d</fix>
</trkpt>
<trkpt lat="-27.2616597" lon="151.3513042">
  <ele>533.85</ele>
  <time>2026-09-01T20:01:37Z</time>
  <course>269.03</course>
  <speed>24.61</speed>
  <fix>3d</fix>
</trkpt>
<trkpt lat="-27.2616608" lon="151.3512287">
  <ele>533.9</ele>
  <time>2026-09-01T20:01:37Z</time>
  <course>269.03</course>
  <speed>24.722920539450833</speed>
  <fix>3d</fix>
</trkpt>
<trkpt lat="-27.2616597" lon="151.3513042">
  <ele>533.85</ele>
  <time>2026-09-01T20:01:37Z</time>
  <course>269.03</course>
  <speed>24.61</speed>
  <fix>3d</fix>
</trkpt>
<trkpt lat="-27.2616611" lon="151.3512036">
  <ele>533.93</ele>
  <time>2026-09-01T20:01:37Z</time>
  <course>269.07</course>
  <speed>24.752765502060573</speed>
  <fix>3d</fix>
</trkpt>
<trkpt lat="-27.2616604" lon="151.3512544">
  <ele>533.88</ele>
  <time>2026-09-01T20:01:37Z</time>
  <course>269.08</course>
  <speed>24.68</speed>
  <fix>3d</fix>
</trkpt>
<trkpt lat="-27.2616615" lon="151.3511787">
  <ele>533.96</ele>
  <time>2026-09-01T20:01:37Z</time>
  <course>269.15</course>
  <speed>24.76261698609418</speed>
  <fix>3d</fix>
</trkpt>
<trkpt lat="-27.2616604" lon="151.3512544">
  <ele>533.88</ele>
  <time>2026-09-01T20:01:37Z</time>
  <course>269.08</course>
  <speed>24.68</speed>
  <fix>3d</fix>
</trkpt>
<trkpt lat="-27.2616618" lon="151.3511534">
  <ele>533.99</ele>
  <time>2026-09-01T20:01:37Z</time>
  <course>269.16</course>
  <speed>24.742336187191377</speed>
  <fix>3d</fix>
</trkpt>
<trkpt lat="-27.2616611" lon="151.3512045">
  <ele>533.93</ele>
  <time>2026-09-01T20:01:37Z</time>
  <course>269.13</course>
  <speed>24.74</speed>
  <fix>3d</fix>
</trkpt>
<trkpt lat="-27.2616621" lon="151.3511284">
  <ele>534.03</ele>
  <time>2026-09-01T20:01:37Z</time>
  <course>269.16</course>
  <speed>24.652208825985554</speed>
  <fix>3d</fix>
</trkpt>
<trkpt lat="-27.2616611" lon="151.3512045">
  <ele>533.93</ele>
  <time>2026-09-01T20:01:37Z</time>
  <course>269.13</course>
  <speed>24.74</speed>
  <fix>3d</fix>
</trkpt>
<trkpt lat="-27.2616624" lon="151.3511036">
  <ele>534.07</ele>
  <time>2026-09-01T20:01:37Z</time>
  <course>269.17</course>
  <speed>24.50208970679848</speed>
  <fix>3d</fix>
</trkpt>
<trkpt lat="-27.2616617" lon="151.3511545">
  <ele>533.99</ele>
  <time>2026-09-01T20:01:37Z</time>
  <course>269.19</course>
  <speed>24.71</speed>
  <fix>3d</fix>
</trkpt>
<trkpt lat="-27.2616627" lon="151.351079">
  <ele>534.11</ele>
  <time>2026-09-01T20:01:37Z</time>
  <course>269.2</course>
  <speed>24.301851781294364</speed>
  <fix>3d</fix>
</trkpt>
<trkpt lat="-27.2616617" lon="151.3511545">
  <ele>533.99</ele>
  <time>2026-09-01T20:01:37Z</time>
  <course>269.19</course>
  <speed>24.71</speed>
  <fix>3d</fix>
</trkpt>
<trkpt lat="-27.2616629" lon="151.3510546">
  <ele>534.15</ele>
  <time>2026-09-01T20:01:37Z</time>
  <course>269.24</course>
  <speed>24.051748377197033</speed>
  <fix>3d</fix>
</trkpt>
<trkpt lat="-27.2616624" lon="151.3511048">
  <ele>534.07</ele>
  <time>2026-09-01T20:01:37Z</time>
  <course>269.25</course>
  <speed>24.49</speed>
  <fix>3d</fix>
</trkpt>
<trkpt lat="-27.2616632" lon="151.3510303">
  <ele>534.18</ele>
  <time>2026-09-01T20:01:37Z</time>
  <course>269.28</course>
  <speed>23.751534687257582</speed>
  <fix>3d</fix>
</trkpt>
<trkpt lat="-27.2616624" lon="151.3511048">
  <ele>534.07</ele>
  <time>2026-09-01T20:01:37Z</time>
  <course>269.25</course>
  <speed>24.49</speed>
  <fix>3d</fix>
</trkpt>
<trkpt lat="-27.2616634" lon="151.3510066">
  <ele>534.2</ele>
  <time>2026-09-01T20:01:37Z</time>
  <course>269.3</course>
  <speed>23.431333722176376</speed>
  <fix>3d</fix>
</trkpt>
<trkpt lat="-27.2616629" lon="151.3510557">
  <ele>534.14</ele>
  <time>2026-09-01T20:01:37Z</time>
  <course>269.3</course>
  <speed>24.04</speed>
  <fix>3d</fix>
</trkpt>
<trkpt lat="-27.2616636" lon="151.350983">
  <ele>534.19</ele>
  <time>2026-09-01T20:01:37Z</time>
  <course>269.31</course>
  <speed>23.131245102674434</speed>
  <fix>3d</fix>
</trkpt>
<trkpt lat="-27.2616629" lon="151.3510557">
  <ele>534.14</ele>
  <time>2026-09-01T20:01:37Z</time>
  <course>269.3</course>
  <speed>24.04</speed>
  <fix>3d</fix>
</trkpt>
<trkpt lat="-27.2616639" lon="151.3509599">
  <ele>534.16</ele>
  <time>2026-09-01T20:01:37Z</time>
  <course>269.33</course>
  <speed>22.841158026685076</speed>
  <fix>3d</fix>
</trkpt>
<trkpt lat="-27.2616633" lon="151.3510077">
  <ele>534.18</ele>
  <time>2026-09-01T20:01:37Z</time>
  <course>269.36</course>
  <speed>23.45</speed>
  <fix>3d</fix>
</trkpt>
<trkpt lat="-27.2616641" lon="151.3509369">
  <ele>534.11</ele>
  <time>2026-09-01T20:01:37Z</time>
  <course>269.35</course>
  <speed>22.561072669534134</speed>
  <fix>3d</fix>
</trkpt>
<trkpt lat="-27.2616633" lon="151.3510077">
  <ele>534.18</ele>
  <time>2026-09-01T20:01:37Z</time>
  <course>269.36</course>
  <speed>23.45</speed>
  <fix>3d</fix>
</trkpt>
<trkpt lat="-27.2616643" lon="151.3509143">
  <ele>534.02</ele>
  <time>2026-09-01T20:01:37Z</time>
  <course>269.37</course>
  <speed>22.300988767317023</speed>
  <fix>3d</fix>
</trkpt>
<trkpt lat="-27.2616638" lon="151.3509609">
  <ele>534.15</ele>
  <time>2026-09-01T20:01:37Z</time>
  <course>269.41</course>
  <speed>22.86</speed>
  <fix>3d</fix>
</trkpt>
<trkpt lat="-27.2616645" lon="151.3508919">
  <ele>533.89</ele>
  <time>2026-09-01T20:01:37Z</time>
  <course>269.39</course>
  <speed>22.06090659968443</speed>
  <fix>3d</fix>
</trkpt>
<trkpt lat="-27.2616638" lon="151.3509609">
  <ele>534.15</ele>
  <time>2026-09-01T20:01:37Z</time>
  <course>269.41</course>
  <speed>22.86</speed>
  <fix>3d</fix>
</trkpt>
<trkpt lat="-27.2616646" lon="151.3508697">
  <ele>533.73</ele>
  <time>2026-09-01T20:01:37Z</time>
  <course>269.41</course>
  <speed>21.83082682813457</speed>
  <fix>3d</fix>
</trkpt>
<trkpt lat="-27.2616642" lon="151.3509152">
  <ele>534.0</ele>
  <time>2026-09-01T20:01:37Z</time>
  <course>269.45</course>
  <speed>22.32</speed>
  <fix>3d</fix>
</trkpt>
<trkpt lat="-27.2616648" lon="151.3508477">
  <ele>533.54</ele>
  <time>2026-09-01T20:01:38Z</time>
  <course>269.44</course>
  <speed>21.620749293213684</speed>
  <fix>3d</fix>
</trkpt>
<trkpt lat="-27.2616642" lon="151.3509152">
  <ele>534.0</ele>
  <time>2026-09-01T20:01:38Z</time>
  <course>269.45</course>
  <speed>22.32</speed>
  <fix>3d</fix>
</trkpt>
<trkpt lat="-27.261665" lon="151.3508259">
  <ele>533.32</ele>
  <time>2026-09-01T20:01:38Z</time>
  <course>269.46</course>
  <speed>21.43067427777297</speed>
  <fix>3d</fix>
</trkpt>
<trkpt lat="-27.2616645" lon="151.3508705">
  <ele>533.72</ele>
  <time>2026-09-01T20:01:38Z</time>
  <course>269.49</course>
  <speed>21.85</speed>
  <fix>3d</fix>
</trkpt>
<trkpt lat="-27.2616651" lon="151.3508043">
  <ele>533.09</ele>
  <time>2026-09-01T20:01:38Z</time>
  <course>269.49</course>
  <speed>21.260602061089426</speed>
  <fix>3d</fix>
</trkpt>
<trkpt lat="-27.2616645" lon="151.3508705">
  <ele>533.72</ele>
  <time>2026-09-01T20:01:38Z</time>
  <course>269.49</course>
  <speed>21.85</speed>
  <fix>3d</fix>
</trkpt>
<trkpt lat="-27.2616652" lon="151.350783">
  <ele>532.85</ele>
  <time>2026-09-01T20:01:38Z</time>
  <course>269.51</course>
  <speed>21.090533421419195</speed>
  <fix>3d</fix>
</trkpt>
<trkpt lat="-27.2616649" lon="151.3508268">
  <ele>533.32</ele>
  <time>2026-09-01T20:01:38Z</time>
  <course>269.53</course>
  <speed>21.45</speed>
  <fix>3d</fix>
</trkpt>
<trkpt lat="-27.2616654" lon="151.3507617">
  <ele>532.61</ele>
  <time>2026-09-01T20:01:38Z</time>
  <course>269.53</course>
  <speed>20.94046799859067</speed>
  <fix>3d</fix>
</trkpt>
<trkpt lat="-27.2616649" lon="151.3508268">
  <ele>533.32</ele>
  <time>2026-09-01T20:01:38Z</time>
  <course>269.53</course>
  <speed>21.45</speed>
  <fix>3d</fix>
</trkpt>
<trkpt lat="-27.2616655" lon="151.3507407">
  <ele>532.37</ele>
  <time>2026-09-01T20:01:38Z</time>
  <course>269.55</course>
  <speed>20.800406246032793</speed>
  <fix>3d</fix>
</trkpt>
<trkpt lat="-27.2616652" lon="151.3507837">
  <ele>532.86</ele>
  <time>2026-09-01T20:01:38Z</time>
  <course>269.58</course>
  <speed>21.11</speed>
  <fix>3d</fix>
</trkpt>
<trkpt lat="-27.2616656" lon="151.3507198">
  <ele>532.14</ele>
  <time>2026-09-01T20:01:38Z</time>
  <course>269.58</course>
  <speed>20.650409196914232</speed>
  <fix>3d</fix>
</trkpt>
<trkpt lat="-27.2616652" lon="151.3507837">
  <ele>532.86</ele>
  <time>2026-09-01T20:01:38Z</time>
  <course>269.58</course>
  <speed>21.11</speed>
  <fix>3d</fix>
</trkpt>
<trkpt lat="-27.2616658" lon="151.350699">
  <ele>531.91</ele>
  <time>2026-09-01T20:01:38Z</time>
  <course>269.6</course>
  <speed>20.510411990011317</speed>
  <fix>3d</fix>
</trkpt>
<trkpt lat="-27.2616655" lon="151.3507415">
  <ele>532.38</ele>
  <time>2026-09-01T20:01:38Z</time>
  <course>269.61</course>
  <speed>20.8</speed>
  <fix>3d</fix>
</trkpt>
<trkpt lat="-27.2616658" lon="151.3506783">
  <ele>531.71</ele>
  <time>2026-09-01T20:01:38Z</time>
  <course>269.62</course>
  <speed>20.36041502523954</speed>
  <fix>3d</fix>
</trkpt>
<trkpt lat="-27.2616655" lon="151.3507415">
  <ele>532.38</ele>
  <time>2026-09-01T20:01:38Z</time>
  <course>269.61</course>
  <speed>20.8</speed>
  <fix>3d</fix>
</trkpt>
<trkpt lat="-27.261666" lon="151.3506578">
  <ele>531.51</ele>
  <time>2026-09-01T20:01:38Z</time>
  <course>269.63</course>
  <speed>20.22041789874779</speed>
  <fix>3d</fix>
</trkpt>
<trkpt lat="-27.2616657" lon="151.3506997">
  <ele>531.93</ele>
  <time>2026-09-01T20:01:38Z</time>
  <course>269.62</course>
  <speed>20.51</speed>
  <fix>3d</fix>
</trkpt>
<trkpt lat="-27.2616661" lon="151.3506375">
  <ele>531.31</ele>
  <time>2026-09-01T20:01:38Z</time>
  <course>269.63</course>
  <speed>20.070421021991542</speed>
  <fix>3d</fix>
</trkpt>
<trkpt lat="-27.2616657" lon="151.3506997">
  <ele>531.93</ele>
  <time>2026-09-01T20:01:38Z</time>
  <course>269.62</course>
  <speed>20.51</speed>
  <fix>3d</fix>
</trkpt>
<trkpt lat="-27.2616662" lon="151.3506172">
  <ele>531.12</ele>
  <time>2026-09-01T20:01:38Z</time>
  <course>269.63</course>
  <speed>19.920424192270605</speed>
  <fix>3d</fix>
</trkpt>
<trkpt lat="-27.261666" lon="151.3506585">
  <ele>531.52</ele>
  <time>2026-09-01T20:01:38Z</time>
  <course>269.62</course>
  <speed>20.22</speed>
  <fix>3d</fix>
</trkpt>
<trkpt lat="-27.2616663" lon="151.3505971">
  <ele>530.94</ele>
  <time>2026-09-01T20:01:38Z</time>
  <course>269.63</course>
  <speed>19.780427194577978</speed>
  <fix>3d</fix>
</trkpt>
<trkpt lat="-27.261666" lon="151.3506585">
  <ele>531.52</ele>
  <time>2026-09-01T20:01:38Z</time>
  <course>269.62</course>
  <speed>20.22</speed>
  <fix>3d</fix>
</trkpt>
<trkpt lat="-27.2616665" lon="151.3505773">
  <ele>530.75</ele>
  <time>2026-09-01T20:01:38Z</time>
  <course>269.63</course>
  <speed>19.630430458856473</speed>
  <fix>3d</fix>
</trkpt>
<trkpt lat="-27.2616662" lon="151.350618">
  <ele>531.13</ele>
  <time>2026-09-01T20:01:38Z</time>
  <course>269.62</course>
  <speed>19.93</speed>
  <fix>3d</fix>
</trkpt>
<trkpt lat="-27.2616666" lon="151.3505574">
  <ele>530.58</ele>
  <time>2026-09-01T20:01:38Z</time>
  <course>269.63</course>
  <speed>19.490433550847452</speed>
  <fix>3d</fix>
</trkpt>
<trkpt lat="-27.2616662" lon="151.350618">
  <ele>531.13</ele>
  <time>2026-09-01T20:01:38Z</time>
  <course>269.62</course>
  <speed>19.93</speed>
  <fix>3d</fix>
</trkpt>
<trkpt lat="-27.2616667" lon="151.3505377">
  <ele>530.4</ele>
  <time>2026-09-01T20:01:38Z</time>
  <course>269.62</course>
  <speed>19.350436687578913</speed>
  <fix>3d</fix>
</trkpt>
<trkpt lat="-27.2616664" lon="151.350578">
  <ele>530.76</ele>
  <time>2026-09-01T20:01:38Z</time>
  <course>269.61</course>
  <speed>19.64</speed>
  <fix>3d</fix>
</trkpt>
<trkpt lat="-27.2616668" lon="151.3505183">
  <ele>530.22</ele>
  <time>2026-09-01T20:01:38Z</time>
  <course>269.62</course>
  <speed>19.210439870029003</speed>
  <fix>3d</fix>
</trkpt>
<trkpt lat="-27.2616664" lon="151.350578">
  <ele>530.76</ele>
  <time>2026-09-01T20:01:38Z</time>
  <course>269.61</course>
  <speed>19.64</speed>
  <fix>3d</fix>
</trkpt>
<trkpt lat="-27.2616669" lon="151.3504989">
  <ele>530.04</ele>
  <time>2026-09-01T20:01:38Z</time>
  <course>269.62</course>
  <speed>19.07044309920459</speed>
  <fix>3d</fix>
</trkpt>
<trkpt lat="-27.2616667" lon="151.3505386">
  <ele>530.4</ele>
  <time>2026-09-01T20:01:38Z</time>
  <course>269.61</course>
  <speed>19.35</speed>
  <fix>3d</fix>
</trkpt>
<trkpt lat="-27.2616671" lon="151.3504797">
  <ele>529.87</ele>
  <time>2026-09-01T20:01:38Z</time>
  <course>269.62</course>
  <speed>18.94038014402034</speed>
  <fix>3d</fix>
</trkpt>
<trkpt lat="-27.2616667" lon="151.3505386">
  <ele>530.4</ele>
  <time>2026-09-01T20:01:38Z</time>
  <course>269.61</course>
  <speed>19.35</speed>
  <fix>3d</fix>
</trkpt>
<trkpt lat="-27.2616672" lon="151.3504606">
  <ele>529.7</ele>
  <time>2026-09-01T20:01:38Z</time>
  <course>269.61</course>
  <speed>18.810382771225044</speed>
  <fix>3d</fix>
</trkpt>
<trkpt lat="-27.2616669" lon="151.3504998">
  <ele>530.05</ele>
  <time>2026-09-01T20:01:38Z</time>
  <course>269.6</course>
  <speed>19.08</speed>
  <fix>3d</fix>
</trkpt>
<trkpt lat="-27.2616673" lon="151.3504417">
  <ele>529.52</ele>
  <time>2026-09-01T20:01:38Z</time>
  <course>269.61</course>
  <speed>18.680385434995713</speed>
  <fix>3d</fix>
</trkpt>
<trkpt lat="-27.2616669" lon="151.3504998">
  <ele>530.05</ele>
  <time>2026-09-01T20:01:38Z</time>
  <course>269.6</course>
  <speed>19.08</speed>
  <fix>3d</fix>
</trkpt>
<trkpt lat="-27.2616674" lon="151.3504228">
  <ele>529.35</ele>
  <time>2026-09-01T20:01:38Z</time>
  <course>269.61</course>
  <speed>18.560387926980408</speed>
  <fix>3d</fix>
</trkpt>
<trkpt lat="-27.2616671" lon="151.3504614">
  <ele>529.7</ele>
  <time>2026-09-01T20:01:38Z</time>
  <course>269.6</course>
  <speed>18.82</speed>
  <fix>3d</fix>
</trkpt>
<trkpt lat="-27.2616675" lon="151.3504041">
  <ele>529.16</ele>
  <time>2026-09-01T20:01:38Z</time>
  <course>269.61</course>
  <speed>18.440390451397715</speed>
  <fix>3d</fix>
</trkpt>
<trkpt lat="-27.2616671" lon="151.3504614">
  <ele>529.7</ele>
  <time>2026-09-01T20:01:38Z</time>
  <course>269.6</course>
  <speed>18.82</speed>
  <fix>3d</fix>
</trkpt>
<trkpt lat="-27.2616676" lon="151.3503857">
  <ele>528.99</ele>
  <time>2026-09-01T20:01:38Z</time>
  <course>269.61</course>
  <speed>18.320393008884935</speed>
  <fix>3d</fix>
</trkpt>
<trkpt lat="-27.2616674" lon="151.3504236">
  <ele>529.35</ele>
  <time>2026-09-01T20:01:38Z</time>
  <course>269.6</course>
  <speed>18.56</speed>
  <fix>3d</fix>
</trkpt>
<trkpt lat="-27.2616677" lon="151.3503672">
  <ele>528.81</ele>
  <time>2026-09-01T20:01:38Z</time>
  <course>269.6</course>
  <speed>18.20039560009617</speed>
  <fix>3d</fix>
</trkpt>
<trkpt lat="-27.2616674" lon="151.3504236">
  <ele>529.35</ele>
  <time>2026-09-01T20:01:38Z</time>
  <course>269.6</course>
  <speed>18.56</speed>
  <fix>3d</fix>
</trkpt>
<trkpt lat="-27.2616679" lon="151.3503489">
  <ele>528.64</ele>
  <time>2026-09-01T20:01:38Z</time>
  <course>269.6</course>
  <speed>18.090398005571906</speed>
  <fix>3d</fix>
</trkpt>
<trkpt lat="-27.2616676" lon="151.3503863">
  <ele>529.0</ele>
  <time>2026-09-01T20:01:38Z</time>
  <course>269.59</course>
  <speed>18.33</speed>
  <fix>3d</fix>
</trkpt>
<trkpt lat="-27.261668" lon="151.3503306">
  <ele>528.45</ele>
  <time>2026-09-01T20:01:38Z</time>
  <course>269.6</course>
  <speed>17.99040021789399</speed>
  <fix>3d</fix>
</trkpt>
<trkpt lat="-27.2616676" lon="151.3503863">
  <ele>529.0</ele>
  <time>2026-09-01T20:01:38Z</time>
  <course>269.59</course>
  <speed>18.33</speed>
  <fix>3d</fix>
</trkpt>
<trkpt lat="-27.2616681" lon="151.3503125">
  <ele>528.27</ele>
  <time>2026-09-01T20:01:38Z</time>
  <course>269.6</course>
  <speed>17.880402680029327</speed>
  <fix>3d</fix>
</trkpt>
<trkpt lat="-27.2616678" lon="151.3503495">
  <ele>528.64</ele>
  <time>2026-09-01T20:01:38Z</time>
  <course>269.59</course>
  <speed>18.1</speed>
  <fix>3d</fix>
</trkpt>
<trkpt lat="-27.2616682" lon="151.3502945">
  <ele>528.09</ele>
  <time>2026-09-01T20:01:38Z</time>
  <course>269.6</course>
  <speed>17.78040494476996</speed>
  <fix>3d</fix>
</trkpt>
<trkpt lat="-27.2616678" lon="151.3503495">
  <ele>528.64</ele>
  <time>2026-09-01T20:01:38Z</time>
  <course>269.59</course>
  <speed>18.1</speed>
  <fix>3d</fix>
</trkpt>
<trkpt lat="-27.2616683" lon="151.3502766">
  <ele>527.91</ele>
  <time>2026-09-01T20:01:38Z</time>
  <course>269.59</course>
  <speed>17.680407235128946</speed>
  <fix>3d</fix>
</trkpt>
<trkpt lat="-27.2616681" lon="151.3503131">
  <ele>528.28</ele>
  <time>2026-09-01T20:01:38Z</time>
  <course>269.58</course>
  <speed>17.89</speed>
  <fix>3d</fix>
</trkpt>
<trkpt lat="-27.2616684" lon="151.3502588">
  <ele>527.72</ele>
  <time>2026-09-01T20:01:38Z</time>
  <course>269.59</course>
  <speed>17.580409551543447</speed>
  <fix>3d</fix>
</trkpt>
<trkpt lat="-27.2616681" lon="151.3503131">
  <ele>528.28</ele>
  <time>2026-09-01T20:01:38Z</time>
  <course>269.58</course>
  <speed>17.89</speed>
  <fix>3d</fix>
</trkpt>
<trkpt lat="-27.2616686" lon="151.3502411">
  <ele>527.53</ele>
  <time>2026-09-01T20:01:38Z</time>
  <course>269.59</course>
  <speed>17.490411658963318</speed>
  <fix>3d</fix>
</trkpt>
<trkpt lat="-27.2616682" lon="151.3502772">
  <ele>527.91</ele>
  <time>2026-09-01T20:01:38Z</time>
  <course>269.58</course>
  <speed>17.68</speed>
  <fix>3d</fix>
</trkpt>
<trkpt lat="-27.2616687" lon="151.3502234">
  <ele>527.35</ele>
  <time>2026-09-01T20:01:38Z</time>
  <course>269.59</course>
  <speed>17.400413788183315</speed>
  <fix>3d</fix>
</trkpt>
<trkpt lat="-27.2616682" lon="151.3502772">
  <ele>527.91</ele>
  <time>2026-09-01T20:01:38Z</time>
  <course>269.58</course>
  <speed>17.68</speed>
  <fix>3d</fix>
</trkpt>
<trkpt lat="-27.2616688" lon="151.3502059">
  <ele>527.16</ele>
  <time>2026-09-01T20:01:38Z</time>
  <course>269.58</course>
  <speed>17.310415939543454</speed>
  <fix>3d</fix>
</trkpt>
<trkpt lat="-27.2616685" lon="151.3502417">
  <ele>527.54</ele>
  <time>2026-09-01T20:01:38Z</time>
  <course>269.57</course>
  <speed>17.49</speed>
  <fix>3d</fix>
</trkpt>
<trkpt lat="-27.2616689" lon="151.3501885">
  <ele>526.97</ele>
  <time>2026-09-01T20:01:38Z</time>
  <course>269.58</course>
  <speed>17.22041811339086</speed>
  <fix>3d</fix>
</trkpt>
<trkpt lat="-27.2616685" lon="151.3502417">
  <ele>527.54</ele>
  <time>2026-09-01T20:01:38Z</time>
  <course>269.57</course>
  <speed>17.49</speed>
  <fix>3d</fix>
</trkpt>
<trkpt lat="-27.261669" lon="151.350171">
  <ele>526.78</ele>
  <time>2026-09-01T20:01:38Z</time>
  <course>269.58</course>
  <speed>17.140420064864223</speed>
  <fix>3d</fix>
</trkpt>
<trkpt lat="-27.2616688" lon="151.3502065">
  <ele>527.16</ele>
  <time>2026-09-01T20:01:38Z</time>
  <course>269.57</course>
  <speed>17.31</speed>
  <fix>3d</fix>
</trkpt>
<trkpt lat="-27.2616691" lon="151.3501537">
  <ele>526.59</ele>
  <time>2026-09-01T20:01:38Z</time>
  <course>269.58</course>
  <speed>17.05042228216064</speed>
  <fix>3d</fix>
</trkpt>
<trkpt lat="-27.2616688" lon="151.3502065">
  <ele>527.16</ele>
  <time>2026-09-01T20:01:38Z</time>
  <course>269.57</course>
  <speed>17.31</speed>
  <fix>3d</fix>
</trkpt>
<trkpt lat="-27.2616692" lon="151.3501365">
  <ele>526.4</ele>
  <time>2026-09-01T20:01:38Z</time>
  <course>269.57</course>
  <speed>16.98042402297422</speed>
  <fix>3d</fix>
</trkpt>
<trkpt lat="-27.261669" lon="151.3501717">
  <ele>526.79</ele>
  <time>2026-09-01T20:01:38Z</time>
  <course>269.56</course>
  <speed>17.14</speed>
  <fix>3d</fix>
</trkpt>
<trkpt lat="-27.2616694" lon="151.3501195">
  <ele>526.21</ele>
  <time>2026-09-01T20:01:38Z</time>
  <course>269.57</course>
  <speed>16.90049999260377</speed>
  <fix>3d</fix>
</trkpt>
<trkpt lat="-27.261669" lon="151.3501717">
  <ele>526.79</ele>
  <time>2026-09-01T20:01:38Z</time>
  <course>269.56</course>
  <speed>17.14</speed>
  <fix>3d</fix>
</trkpt>
<trkpt lat="-27.2598726" lon="151.3542001">
  <ele>542.97</ele>
  <time>2026-09-01T20:01:38Z</time>
  <course>250.01</course>
  <speed>0.0</speed>
  <fix>3d</fix>
</trkpt>
<trkpt lat="-27.2616692" lon="151.3501372">
  <ele>526.4</ele>
  <time>2026-09-01T20:01:38Z</time>
  <course>269.56</course>
  <speed>16.98</speed>
  <fix>3d</fix>
</trkpt>
<trkpt lat="-27.2598726" lon="151.3542001">
  <ele>542.86</ele>
  <time>2026-09-01T20:01:38Z</time>
  <course>250.0</course>
  <speed>0.0632455532033676</speed>
  <fix>3d</fix>
</trkpt>
<trkpt lat="-27.2616692" lon="151.3501372">
  <ele>526.4</ele>
  <time>2026-09-01T20:01:38Z</time>
  <course>269.56</course>
  <speed>16.98</speed>
  <fix>3d</fix>
</trkpt>
<trkpt lat="-27.2598726" lon="151.3542">
  <ele>542.65</ele>
  <time>2026-09-01T20:01:38Z</time>
  <course>250.01</course>
  <speed>0.21189620100417092</speed>
  <fix>3d</fix>
</trkpt>
<trkpt lat="-27.260771" lon="151.3521601">
  <ele>534.53</ele>
  <time>2026-09-01T20:01:38Z</time>
  <course>269.47</course>
  <speed>8.48</speed>
  <fix>3d</fix>
</trkpt>
<trkpt lat="-27.2598727" lon="151.3541996">
  <ele>542.35</ele>
  <time>2026-09-01T20:01:38Z</time>
  <course>250.41</course>
  <speed>0.43965895873961214</speed>
  <fix>3d</fix>
</trkpt>
<trkpt lat="-27.260771" lon="151.3521601">
  <ele>534.53</ele>
  <time>2026-09-01T20:01:38Z</time>
  <course>269.47</course>
  <speed>8.48</speed>
  <fix>3d</fix>
</trkpt>
<trkpt lat="-27.2598728" lon="151.3541991">
  <ele>541.97</ele>
  <time>2026-09-01T20:01:38Z</time>
  <course>253.4</course>
  <speed>0.7566372975210779</speed>
  <fix>3d</fix>
</trkpt>
<trkpt lat="-27.2598726" lon="151.3541999">
  <ele>542.61</ele>
  <time>2026-09-01T20:01:38Z</time>
  <course>251.41</course>
  <speed>0.25</speed>
  <fix>3d</fix>
</trkpt>
<trkpt lat="-27.2598729" lon="151.3541981">
  <ele>541.52</ele>
  <time>2026-09-01T20:01:38Z</time>
  <course>262.86</course>
  <speed>1.120714058089752</speed>
  <fix>3d</fix>
</trkpt>
<trkpt lat="-27.2598726" lon="151.3541999">
  <ele>542.61</ele>
  <time>2026-09-01T20:01:38Z</time>
  <course>251.41</course>
  <speed>0.25</speed>
  <fix>3d</fix>
</trkpt>
<trkpt lat="-27.2598731" lon="151.3541969">
  <ele>540.99</ele>
  <time>2026-09-01T20:01:38Z</time>
  <course>263.66</course>
  <speed>1.533883959105121</speed>
  <fix>3d</fix>
</trkpt>
<trkpt lat="-27.2598727" lon="151.3541989">
  <ele>541.94</ele>
  <time>2026-09-01T20:01:38Z</time>
  <course>263.11</course>
  <speed>0.76</speed>
  <fix>3d</fix>
</trkpt>
<trkpt lat="-27.2598743" lon="151.3541955">
  <ele>540.41</ele>
  <time>2026-09-01T20:01:38Z</time>
  <course>252.06</course>
  <speed>2.8812497288503125</speed>
  <fix>3d</fix>
</trkpt>
<trkpt lat="-27.2598727" lon="151.3541989">
  <ele>541.94</ele>
  <time>2026-09-01T20:01:38Z</time>
  <course>263.11</course>
  <speed>0.76</speed>
  <fix>3d</fix>
</trkpt>
<trkpt lat="-27.2598773" lon="151.354194">
  <ele>539.85</ele>
  <time>2026-09-01T20:01:38Z</time>
  <course>243.72</course>
  <speed>4.401908676926408</speed>
  <fix>3d</fix>
</trkpt>
<trkpt lat="-27.2598735" lon="151.3541968">
  <ele>540.98</ele>
  <time>2026-09-01T20:01:38Z</time>
  <course>226.97</course>
  <speed>1.79</speed>
  <fix>3d</fix>
</trkpt>
<trkpt lat="-27.2598817" lon="151.3541927">
  <ele>539.35</ele>
  <time>2026-09-01T20:01:38Z</time>
  <course>237.65</course>
  <speed>5.710735504293646</speed>
  <fix>3d</fix>
</trkpt>
<trkpt lat="-27.2598735" lon="151.3541968">
  <ele>540.98</ele>
  <time>2026-09-01T20:01:38Z</time>
  <course>226.97</course>
  <speed>1.79</speed>
  <fix>3d</fix>
</trkpt>
<trkpt lat="-27.2598873" lon="151.3541914">
  <ele>538.93</ele>
  <time>2026-09-01T20:01:38Z</time>
  <course>232.81</course>
  <speed>6.760362416320593</speed>
  <fix>3d</fix>
</trkpt>
<trkpt lat="-27.2598779" lon="151.3541941">
  <ele>539.9</ele>
  <time>2026-09-01T20:01:38Z</time>
  <course>199.28</course>
  <speed>4.2</speed>
  <fix>3d</fix>
</trkpt>
<trkpt lat="-27.2598936" lon="151.35419">
  <ele>538.61</ele>
  <time>2026-09-01T20:01:38Z</time>
  <course>229.02</course>
  <speed>7.549337719296972</speed>
  <fix>3d</fix>
</trkpt>
<trkpt lat="-27.2598779" lon="151.3541941">
  <ele>539.9</ele>
  <time>2026-09-01T20:01:38Z</time>
  <course>199.28</course>
  <speed>4.2</speed>
  <fix>3d</fix>
</trkpt>
<trkpt lat="-27.2599004" lon="151.354188">
  <ele>538.41</ele>
  <time>2026-09-01T20:01:38Z</time>
  <course>226.48</course>
  <speed>8.029458263170685</speed>
  <fix>3d</fix>
</trkpt>
<trkpt lat="-27.2598875" lon="151.3541913">
  <ele>538.99</ele>
  <time>2026-09-01T20:01:38Z</time>
  <course>192.41</course>
  <speed>6.6</speed>
  <fix>3d</fix>
</trkpt>
<trkpt lat="-27.2599073" lon="151.3541852">
  <ele>538.31</ele>
  <time>2026-09-01T20:01:38Z</time>
  <course>225.08</course>
  <speed>8.34326075344646</speed>
  <fix>3d</fix>
</trkpt>
<trkpt lat="-27.2598875" lon="151.3541913">
  <ele>538.99</ele>
  <time>2026-09-01T20:01:38Z</time>
  <course>192.41</course>
  <speed>6.6</speed>
  <fix>3d</fix>
</trkpt>
<trkpt lat="-27.2599142" lon="151.3541813">
  <ele>538.27</ele>
  <time>2026-09-01T20:01:38Z</time>
  <course>224.75</course>
  <speed>8.66136825218741</speed>
  <fix>3d</fix>
</trkpt>
<trkpt lat="-27.2599002" lon="151.3541876">
  <ele>538.46</ele>
  <time>2026-09-01T20:01:38Z</time>
  <course>197.72</course>
  <speed>7.9</speed>
  <fix>3d</fix>
</trkpt>
<trkpt lat="-27.2599208" lon="151.3541766">
  <ele>538.24</ele>
  <time>2026-09-01T20:01:38Z</time>
  <course>225.54</course>
  <speed>9.03952432376837</speed>
  <fix>3d</fix>
</trkpt>
<trkpt lat="-27.2599002" lon="151.3541876">
  <ele>538.46</ele>
  <time>2026-09-01T20:01:38Z</time>
  <course>197.72</course>
  <speed>7.9</speed>
  <fix>3d</fix>
</trkpt>
<trkpt lat="-27.2599273" lon="151.3541707">
  <ele>538.22</ele>
  <time>2026-09-01T20:01:38Z</time>
  <course>227.4</course>
  <speed>9.480611794604819</speed>
  <fix>3d</fix>
</trkpt>
<trkpt lat="-27.2599138" lon="151.3541809">
  <ele>538.27</ele>
  <time>2026-09-01T20:01:38Z</time>
  <course>209.47</course>
  <speed>8.63</speed>
  <fix>3d</fix>
</trkpt>
<trkpt lat="-27.2599336" lon="151.3541639">
  <ele>538.18</ele>
  <time>2026-09-01T20:01:38Z</time>
  <course>230.22</course>
  <speed>9.958634444541078</speed>
  <fix>3d</fix>
</trkpt>
<trkpt lat="-27.2599138" lon="151.3541809">
  <ele>538.27</ele>
  <time>2026-09-01T20:01:38Z</time>
  <course>209.47</course>
  <speed>8.63</speed>
  <fix>3d</fix>
</trkpt>
<trkpt lat="-27.2599397" lon="151.3541562">
  <ele>538.13</ele>
  <time>2026-09-01T20:01:38Z</time>
  <course>233.41</course>
  <speed>10.476583412544379</speed>
  <fix>3d</fix>
</trkpt>
<trkpt lat="-27.259927" lon="151.3541703">
  <ele>538.2</ele>
  <time>2026-09-01T20:01:38Z</time>
  <course>221.11</course>
  <speed>9.45</speed>
  <fix>3d</fix>
</trkpt>
<trkpt lat="-27.2599455" lon="151.3541474">
  <ele>538.04</ele>
  <time>2026-09-01T20:01:38Z</time>
  <course>236.7</course>
  <speed>11.008019803761256</speed>
  <fix>3d</fix>
</trkpt>
<trkpt lat="-27.259927" lon="151.3541703">
  <ele>538.2</ele>
  <time>2026-09-01T20:01:38Z</time>
  <course>221.11</course>
  <speed>9.45</speed>
  <fix>3d</fix>
</trkpt>
<trkpt lat="-27.259951" lon="151.3541378">
  <ele>537.96</ele>
  <time>2026-09-01T20:01:38Z</time>
  <course>239.86</course>
  <speed>11.547021260914002</speed>
  <fix>3d</fix>
</trkpt>
<trkpt lat="-27.2599393" lon="151.3541559">
  <ele>538.11</ele>
  <time>2026-09-01T20:01:38Z</time>
  <course>230.71</course>
  <speed>10.44</speed>
  <fix>3d</fix>
</trkpt>
<trkpt lat="-27.2599562" lon="151.3541275">
  <ele>537.85</ele>
  <time>2026-09-01T20:01:38Z</time>
  <course>242.74</course>
  <speed>12.089574020617931</speed>
  <fix>3d</fix>
</trkpt>
<trkpt lat="-27.2599393" lon="151.3541559">
  <ele>538.11</ele>
  <time>2026-09-01T20:01:38Z</time>
  <course>230.71</course>
  <speed>10.44</speed>
  <fix>3d</fix>
</trkpt>
<trkpt lat="-27.2599609" lon="151.3541162">
  <ele>537.73</ele>
  <time>2026-09-01T20:01:38Z</time>
  <course>245.21</course>
  <speed>12.636051598501803</speed>
  <fix>3d</fix>
</trkpt>
<trkpt lat="-27.2599506" lon="151.3541378">
  <ele>537.94</ele>
  <time>2026-09-01T20:01:38Z</time>
  <course>238.83</course>
  <speed>11.5</speed>
  <fix>3d</fix>
</trkpt>
<trkpt lat="-27.2599655" lon="151.3541042">
  <ele>537.61</ele>
  <time>2026-09-01T20:01:38Z</time>
  <course>247.3</course>
  <speed>13.175985731625547</speed>
  <fix>3d</fix>
</trkpt>
<trkpt lat="-27.2599506" lon="151.3541378">
  <ele>537.94</ele>
  <time>2026-09-01T20:01:38Z</time>
  <course>238.83</course>
  <speed>11.5</speed>
  <fix>3d</fix>
</trkpt>
<trkpt lat="-27.2599696" lon="151.3540913">
  <ele>537.49</ele>
  <time>2026-09-01T20:01:38Z</time>
  <course>249.07</course>
  <speed>13.711637393105173</speed>
  <fix>3d</fix>
</trkpt>
<trkpt lat="-27.2599607" lon="151.3541162">
  <ele>537.73</ele>
  <time>2026-09-01T20:01:38Z</time>
  <course>245.74</course>
  <speed>12.6</speed>
  <fix>3d</fix>
</trkpt>
<trkpt lat="-27.2599733" lon="151.3540779">
  <ele>537.38</ele>
  <time>2026-09-01T20:01:38Z</time>
  <course>250.65</course>
  <speed>14.238851779550203</speed>
  <fix>3d</fix>
</trkpt>
<trkpt lat="-27.2599607" lon="151.3541162">
  <ele>537.73</ele>
  <time>2026-09-01T20:01:38Z</time>
  <course>245.74</course>
  <speed>12.6</speed>
  <fix>3d</fix>
</trkpt>
<trkpt lat="-27.2599768" lon="151.3540633">
  <ele>537.27</ele>
  <time>2026-09-01T20:01:38Z</time>
  <course>252.22</course>
  <speed>14.775280031187226</speed>
  <fix>3d</fix>
</trkpt>
<trkpt lat="-27.2599693" lon="151.3540914">
  <ele>537.49</ele>
  <time>2026-09-01T20:01:38Z</time>
  <course>251.39</course>
  <speed>13.69</speed>
  <fix>3d</fix>
</trkpt>
<trkpt lat="-27.2599799" lon="151.3540485">
  <ele>537.16</ele>
  <time>2026-09-01T20:01:38Z</time>
  <course>253.71</course>
  <speed>15.290353167929117</speed>
  <fix>3d</fix>
</trkpt>
<trkpt lat="-27.2599764" lon="151.3540638">
  <ele>537.28</ele>
  <time>2026-09-01T20:01:38Z</time>
  <course>255.69</course>
  <speed>14.74</speed>
  <fix>3d</fix>
</trkpt>
<trkpt lat="-27.2599827" lon="151.354033">
  <ele>537.08</ele>
  <time>2026-09-01T20:01:38Z</time>
  <course>255.07</course>
  <speed>15.793381525183262</speed>
  <fix>3d</fix>
</trkpt>
<trkpt lat="-27.2599764" lon="151.3540638">
  <ele>537.28</ele>
  <time>2026-09-01T20:01:38Z</time>
  <course>255.69</course>
  <speed>14.74</speed>
  <fix>3d</fix>
</trkpt>
<trkpt lat="-27.2599854" lon="151.3540171">
  <ele>537.01</ele>
  <time>2026-09-01T20:01:38Z</time>
  <course>256.32</course>
  <speed>16.27270413914049</speed>
  <fix>3d</fix>
</trkpt>
<trkpt lat="-27.2599824" lon="151.3540337">
  <ele>537.09</ele>
  <time>2026-09-01T20:01:38Z</time>
  <course>258.77</course>
  <speed>15.75</speed>
  <fix>3d</fix>
</trkpt>
<trkpt lat="-27.2599878" lon="151.3540007">
  <ele>536.94</ele>
  <time>2026-09-01T20:01:38Z</time>
  <course>257.48</course>
  <speed>16.74155608060374</speed>
  <fix>3d</fix>
</trkpt>
<trkpt lat="-27.2599824" lon="151.3540337">
  <ele>537.09</ele>
  <time>2026-09-01T20:01:38Z</time>
  <course>258.77</course>
  <speed>15.75</speed>
  <fix>3d</fix>
</trkpt>
<trkpt lat="-27.25999" lon="151.3539837">
  <ele>536.89</ele>
  <time>2026-09-01T20:01:38Z</time>
  <course>258.54</course>
  <speed>17.201084268150076</speed>
  <fix>3d</fix>
</trkpt>
<trkpt lat="-27.2599875" lon="151.3540014">
  <ele>536.95</ele>
  <time>2026-09-01T20:01:38Z</time>
  <course>260.96</course>
  <speed>16.71</speed>
  <fix>3d</fix>
</trkpt>
<trkpt lat="-27.2599921" lon="151.3539668">
  <ele>536.85</ele>
  <time>2026-09-01T20:01:38Z</time>
  <course>259.44</course>
  <speed>17.629364707782297</speed>
  <fix>3d</fix>
</trkpt>
<trkpt lat="-27.2599875" lon="151.3540014">
  <ele>536.95</ele>
  <time>2026-09-01T20:01:38Z</time>
  <course>260.96</course>
  <speed>16.71</speed>
  <fix>3d</fix>
</trkpt>
<trkpt lat="-27.2599941" lon="151.3539489">
  <ele>536.83</ele>
  <time>2026-09-01T20:01:38Z</time>
  <course>260.25</course>
  <speed>18.05090856439088</speed>
  <fix>3d</fix>
</trkpt>
<trkpt lat="-27.2599875" lon="151.3540014">
  <ele>536.95</ele>
  <time>2026-09-01T20:01:38Z</time>
  <course>260.96</course>
  <speed>16.71</speed>
  <fix>3d</fix>
</trkpt>
<trkpt lat="-27.259996" lon="151.3539305">
  <ele>536.82</ele>
  <time>2026-09-01T20:01:38Z</time>
  <course>260.98</course>
  <speed>18.458702554621762</speed>
  <fix>3d</fix>
</trkpt>
<trkpt lat="-27.2599919" lon="151.3539671">
  <ele>536.86</ele>
  <time>2026-09-01T20:01:38Z</time>
  <course>262.46</course>
  <speed>17.61</speed>
  <fix>3d</fix>
</trkpt>
<trkpt lat="-27.2599979" lon="151.3539118">
  <ele>536.83</ele>
  <time>2026-09-01T20:01:38Z</time>
  <course>261.45</course>
  <speed>18.86064951161545</speed>
  <fix>3d</fix>
</trkpt>
<trkpt lat="-27.2599919" lon="151.3539671">
  <ele>536.86</ele>
  <time>2026-09-01T20:01:38Z</time>
  <course>262.46</course>
  <speed>17.61</speed>
  <fix>3d</fix>
</trkpt>
<trkpt lat="-27.2599997" lon="151.3538927">
  <ele>536.85</ele>
  <time>2026-09-01T20:01:38Z</time>
  <course>261.85</course>
  <speed>19.236353604568617</speed>
  <fix>3d</fix>
</trkpt>
<trkpt lat="-27.2599959" lon="151.3539309">
  <ele>536.83</ele>
  <time>2026-09-01T20:01:38Z</time>
  <course>263.41</course>
  <speed>18.44</speed>
  <fix>3d</fix>
</trkpt>
<trkpt lat="-27.2600015" lon="151.353873">
  <ele>536.89</ele>
  <time>2026-09-01T20:01:38Z</time>
  <course>262.17</course>
  <speed>19.594399710121255</speed>
  <fix>3d</fix>
</trkpt>
<trkpt lat="-27.2599959" lon="151.3539309">
  <ele>536.83</ele>
  <time>2026-09-01T20:01:38Z</time>
  <course>263.41</course>
  <speed>18.44</speed>
  <fix>3d</fix>
</trkpt>
<trkpt lat="-27.2600033" lon="151.3538533">
  <ele>536.95</ele>
  <time>2026-09-01T20:01:38Z</time>
  <course>262.38</course>
  <speed>19.94460328008557</speed>
  <fix>3d</fix>
</trkpt>
<trkpt lat="-27.2599996" lon="151.3538931">
  <ele>536.86</ele>
  <time>2026-09-01T20:01:38Z</time>
  <course>263.92</course>
  <speed>19.22</speed>
  <fix>3d</fix>
</trkpt>
<trkpt lat="-27.2600052" lon="151.3538329">
  <ele>537.01</ele>
  <time>2026-09-01T20:01:38Z</time>
  <course>262.73</course>
  <speed>20.285889184356698</speed>
  <fix>3d</fix>
</trkpt>
<trkpt lat="-27.2599996" lon="151.3538931">
  <ele>536.86</ele>
  <time>2026-09-01T20:01:38Z</time>
  <course>263.92</course>
  <speed>19.22</speed>
  <fix>3d</fix>
</trkpt>
<trkpt lat="-27.2600071" lon="151.3538125">
  <ele>537.09</ele>
  <time>2026-09-01T20:01:38Z</time>
  <course>263.11</course>
  <speed>20.606263610853862</speed>
  <fix>3d</fix>
</trkpt>
<trkpt lat="-27.2600033" lon="151.3538537">
  <ele>536.95</ele>
  <time>2026-09-01T20:01:38Z</time>
  <course>264.1</course>
  <speed>19.93</speed>
  <fix>3d</fix>
</trkpt>
<trkpt lat="-27.2600089" lon="151.3537916">
  <ele>537.16</ele>
  <time>2026-09-01T20:01:38Z</time>
  <course>263.42</course>
  <speed>20.886849930039716</speed>
  <fix>3d</fix>
</trkpt>
<trkpt lat="-27.2600033" lon="151.3538537">
  <ele>536.95</ele>
  <time>2026-09-01T20:01:38Z</time>
  <course>264.1</course>
  <speed>19.93</speed>
  <fix>3d</fix>
</trkpt>
<trkpt lat="-27.2600108" lon="151.3537705">
  <ele>537.24</ele>
  <time>2026-09-01T20:01:38Z</time>
  <course>263.72</course>
  <speed>21.145536171967834</speed>
  <fix>3d</fix>
</trkpt>
<trkpt lat="-27.260007" lon="151.353813">
  <ele>537.08</ele>
  <time>2026-09-01T20:01:38Z</time>
  <course>264.16</course>
  <speed>20.58</speed>
  <fix>3d</fix>
</trkpt>
<trkpt lat="-27.2600127" lon="151.353749">
  <ele>537.32</ele>
  <time>2026-09-01T20:01:38Z</time>
  <course>263.89</course>
  <speed>21.36444944294142</speed>
  <fix>3d</fix>
</trkpt>
<trkpt lat="-27.260007" lon="151.353813">
  <ele>537.08</ele>
  <time>2026-09-01T20:01:38Z</time>
  <course>264.16</course>
  <speed>20.58</speed>
  <fix>3d</fix>
</trkpt>
<trkpt lat="-27.2600146" lon="151.3537275">
  <ele>537.38</ele>
  <time>2026-09-01T20:01:38Z</time>
  <course>264.01</course>
  <speed>21.562504492753156</speed>
  <fix>3d</fix>
</trkpt>
<trkpt lat="-27.2600107" lon="151.353771">
  <ele>537.23</ele>
  <time>2026-09-01T20:01:38Z</time>
  <course>264.26</course>
  <speed>21.12</speed>
  <fix>3d</fix>
</trkpt>
<trkpt lat="-27.2600165" lon="151.3537058">
  <ele>537.41</ele>
  <time>2026-09-01T20:01:38Z</time>
  <course>264.13</course>
  <speed>21.731702648435075</speed>
  <fix>3d</fix>
</trkpt>
<trkpt lat="-27.2600107" lon="151.353771">
  <ele>537.23</ele>
  <time>2026-09-01T20:01:38Z</time>
  <course>264.26</course>
  <speed>21.12</speed>
  <fix>3d</fix>
</trkpt>
<trkpt lat="-27.2600184" lon="151.3536838">
  <ele>537.46</ele>
  <time>2026-09-01T20:01:38Z</time>
  <course>264.17</course>
  <speed>21.870093735510146</speed>
  <fix>3d</fix>
</trkpt>
<trkpt lat="-27.2600146" lon="151.353728">
  <ele>537.36</ele>
  <time>2026-09-01T20:01:38Z</time>
  <course>264.38</course>
  <speed>21.55</speed>
  <fix>3d</fix>
</trkpt>
<trkpt lat="-27.2600204" lon="151.353661">
  <ele>537.47</ele>
  <time>2026-09-01T20:01:38Z</time>
  <course>264.2</course>
  <speed>21.978644180203656</speed>
  <fix>3d</fix>
</trkpt>
<trkpt lat="-27.2600183" lon="151.3536843">
  <ele>537.44</ele>
  <time>2026-09-01T20:01:38Z</time>
  <course>264.5</course>
  <speed>21.85</speed>
  <fix>3d</fix>
</trkpt>
<trkpt lat="-27.2600222" lon="151.3536389">
  <ele>537.47</ele>
  <time>2026-09-01T20:01:38Z</time>
  <course>264.24</course>
  <speed>22.05734571520336</speed>
  <fix>3d</fix>
</trkpt>
<trkpt lat="-27.2600183" lon="151.3536843">
  <ele>537.44</ele>
  <time>2026-09-01T20:01:38Z</time>
  <course>264.5</course>
  <speed>21.85</speed>
  <fix>3d</fix>
</trkpt>
<trkpt lat="-27.2600241" lon="151.3536167">
  <ele>537.45</ele>
  <time>2026-09-01T20:01:38Z</time>
  <course>264.23</course>
  <speed>22.11708163388651</speed>
  <fix>3d</fix>
</trkpt>
<trkpt lat="-27.2600221" lon="151.3536401">
  <ele>537.46</ele>
  <time>2026-09-01T20:01:38Z</time>
  <course>264.59</course>
  <speed>22.05</speed>
  <fix>3d</fix>
</trkpt>
<trkpt lat="-27.2600259" lon="151.3535944">
  <ele>537.41</ele>
  <time>2026-09-01T20:01:38Z</time>
  <course>264.22</course>
  <speed>22.18677534027872</speed>
  <fix>3d</fix>
</trkpt>
<trkpt lat="-27.2600221" lon="151.3536401">
  <ele>537.46</ele>
  <time>2026-09-01T20:01:38Z</time>
  <course>264.59</course>
  <speed>22.05</speed>
  <fix>3d</fix>
</trkpt>
<trkpt lat="-27.2600278" lon="151.3535719">
  <ele>537.38</ele>
  <time>2026-09-01T20:01:38Z</time>
  <course>264.25</course>
  <speed>22.23655773720384</speed>
  <fix>3d</fix>
</trkpt>
<trkpt lat="-27.2600258" lon="151.3535956">
  <ele>537.42</ele>
  <time>2026-09-01T20:01:38Z</time>
  <course>264.63</course>
  <speed>22.17</speed>
  <fix>3d</fix>
</trkpt>
<trkpt lat="-27.2600297" lon="151.3535497">
  <ele>537.32</ele>
  <time>2026-09-01T20:01:38Z</time>
  <course>264.37</course>
  <speed>22.266427643427672</speed>
  <fix>3d</fix>
</trkpt>
<trkpt lat="-27.2600258" lon="151.3535956">
  <ele>537.42</ele>
  <time>2026-09-01T20:01:38Z</time>
  <course>264.63</course>
  <speed>22.17</speed>
  <fix>3d</fix>
</trkpt>
<trkpt lat="-27.2600315" lon="151.3535273">
  <ele>537.25</ele>
  <time>2026-09-01T20:01:38Z</time>
  <course>264.47</course>
  <speed>22.28541451263584</speed>
  <fix>3d</fix>
</trkpt>
<trkpt lat="-27.2600295" lon="151.3535509">
  <ele>537.32</ele>
  <time>2026-09-01T20:01:38Z</time>
  <course>264.66</course>
  <speed>22.26</speed>
  <fix>3d</fix>
</trkpt>
<trkpt lat="-27.2600334" lon="151.3535048">
  <ele>537.18</ele>
  <time>2026-09-01T20:01:38Z</time>
  <course>264.52</course>
  <speed>22.315286240601978</speed>
  <fix>3d</fix>
</trkpt>
<trkpt lat="-27.2600295" lon="151.3535509">
  <ele>537.32</ele>
  <time>2026-09-01T20:01:38Z</time>
  <course>264.66</course>
  <speed>22.26</speed>
  <fix>3d</fix>
</trkpt>
<trkpt lat="-27.2600352" lon="151.3534824">
  <ele>537.1</ele>
  <time>2026-09-01T20:01:38Z</time>
  <course>264.53</course>
  <speed>22.335200916938266</speed>
  <fix>3d</fix>
</trkpt>
<trkpt lat="-27.2600332" lon="151.3535061">
  <ele>537.18</ele>
  <time>2026-09-01T20:01:38Z</time>
  <course>264.69</course>
  <speed>22.31</speed>
  <fix>3d</fix>
</trkpt>
<trkpt lat="-27.2600371" lon="151.3534599">
  <ele>537.02</ele>
  <time>2026-09-01T20:01:38Z</time>
  <course>264.55</course>
  <speed>22.365073216960415</speed>
  <fix>3d</fix>
</trkpt>
<trkpt lat="-27.2600332" lon="151.3535061">
  <ele>537.18</ele>
  <time>2026-09-01T20:01:38Z</time>
  <course>264.69</course>
  <speed>22.31</speed>
  <fix>3d</fix>
</trkpt>
<trkpt lat="-27.2600389" lon="151.3534373">
  <ele>536.93</ele>
  <time>2026-09-01T20:01:38Z</time>
  <course>264.6</course>
  <speed>22.39402822182735</speed>
  <fix>3d</fix>
</trkpt>
<trkpt lat="-27.2600369" lon="151.3534612">
  <ele>537.02</ele>
  <time>2026-09-01T20:01:38Z</time>
  <course>264.71</course>
  <speed>22.36</speed>
  <fix>3d</fix>
</trkpt>
<trkpt lat="-27.2600408" lon="151.3534148">
  <ele>536.85</ele>
  <time>2026-09-01T20:01:38Z</time>
  <course>264.61</course>
  <speed>22.413944320444806</speed>
  <fix>3d</fix>
</trkpt>
<trkpt lat="-27.2600369" lon="151.3534612">
  <ele>537.02</ele>
  <time>2026-09-01T20:01:38Z</time>
  <course>264.71</course>
  <speed>22.36</speed>
  <fix>3d</fix>
</trkpt>
<trkpt lat="-27.2600426" lon="151.3533928">
  <ele>536.77</ele>
  <time>2026-09-01T20:01:38Z</time>
  <course>264.58</course>
  <speed>22.434776575664845</speed>
  <fix>3d</fix>
</trkpt>
<trkpt lat="-27.2600369" lon="151.3534612">
  <ele>537.02</ele>
  <time>2026-09-01T20:01:38Z</time>
  <course>264.71</course>
  <speed>22.36</speed>
  <fix>3d</fix>
</trkpt>
<trkpt lat="-27.2600444" lon="151.3533702">
  <ele>536.69</ele>
  <time>2026-09-01T20:01:38Z</time>
  <course>264.57</course>
  <speed>22.454692159991865</speed>
  <fix>3d</fix>
</trkpt>
<trkpt lat="-27.2600406" lon="151.3534161">
  <ele>536.85</ele>
  <time>2026-09-01T20:01:38Z</time>
  <course>264.72</course>
  <speed>22.41</speed>
  <fix>3d</fix>
</trkpt>
<trkpt lat="-27.2600463" lon="151.3533476">
  <ele>536.62</ele>
  <time>2026-09-01T20:01:38Z</time>
  <course>264.59</course>
  <speed>22.4755266901579</speed>
  <fix>3d</fix>
</trkpt>
<trkpt lat="-27.2600406" lon="151.3534161">
  <ele>536.85</ele>
  <time>2026-09-01T20:01:38Z</time>
  <course>264.72</course>
  <speed>22.41</speed>
  <fix>3d</fix>
</trkpt>
<trkpt lat="-27.2600482" lon="151.3533249">
  <ele>536.54</ele>
  <time>2026-09-01T20:01:38Z</time>
  <course>264.57</course>
  <speed>22.486407005122004</speed>
  <fix>3d</fix>
</trkpt>
<trkpt lat="-27.2600443" lon="151.3533709">
  <ele>536.69</ele>
  <time>2026-09-01T20:01:38Z</time>
  <course>264.71</course>
  <speed>22.46</speed>
  <fix>3d</fix>
</trkpt>
<trkpt lat="-27.26005" lon="151.3533024">
  <ele>536.49</ele>
  <time>2026-09-01T20:01:38Z</time>
  <course>264.54</course>
  <speed>22.49636415067999</speed>
  <fix>3d</fix>
</trkpt>
<trkpt lat="-27.2600443" lon="151.3533709">
  <ele>536.69</ele>
  <time>2026-09-01T20:01:38Z</time>
  <course>264.71</course>
  <speed>22.46</speed>
  <fix>3d</fix>
</trkpt>
<trkpt lat="-27.2600518" lon="151.3532797">
  <ele>536.43</ele>
  <time>2026-09-01T20:01:38Z</time>
  <course>264.55</course>
  <speed>22.507247721567378</speed>
  <fix>3d</fix>
</trkpt>
<trkpt lat="-27.2600481" lon="151.3533256">
  <ele>536.55</ele>
  <time>2026-09-01T20:01:38Z</time>
  <course>264.69</course>
  <speed>22.49</speed>
  <fix>3d</fix>
</trkpt>
<trkpt lat="-27.2600538" lon="151.353257">
  <ele>536.37</ele>
  <time>2026-09-01T20:01:38Z</time>
  <course>264.55</course>
  <speed>22.51813491388663</speed>
  <fix>3d</fix>
</trkpt>
<trkpt lat="-27.2600481" lon="151.3533256">
  <ele>536.55</ele>
  <time>2026-09-01T20:01:38Z</time>
  <course>264.69</course>
  <speed>22.49</speed>
  <fix>3d</fix>
</trkpt>
<trkpt lat="-27.2600557" lon="151.3532344">
  <ele>536.32</ele>
  <time>2026-09-01T20:01:38Z</time>
  <course>264.51</course>
  <speed>22.529025722387555</speed>
  <fix>3d</fix>
</trkpt>
<trkpt lat="-27.2600519" lon="151.3532802">
  <ele>536.43</ele>
  <time>2026-09-01T20:01:38Z</time>
  <course>264.65</course>
  <speed>22.51</speed>
  <fix>3d</fix>
</trkpt>
<trkpt lat="-27.2600576" lon="151.3532118">
  <ele>536.26</ele>
  <time>2026-09-01T20:01:38Z</time>
  <course>264.49</course>
  <speed>22.539920141828365</speed>
  <fix>3d</fix>
</trkpt>
<trkpt lat="-27.2600519" lon="151.3532802">
  <ele>536.43</ele>
  <time>2026-09-01T20:01:38Z</time>
  <course>264.65</course>
  <speed>22.51</speed>
  <fix>3d</fix>
</trkpt>
<trkpt lat="-27.2600596" lon="151.3531883">
  <ele>536.21</ele>
  <time>2026-09-01T20:01:38Z</time>
  <course>264.48</course>
  <speed>22.540862893864556</speed>
  <fix>3d</fix>
</trkpt>
<trkpt lat="-27.2600557" lon="151.3532349">
  <ele>536.32</ele>
  <time>2026-09-01T20:01:38Z</time>
  <course>264.61</course>
  <speed>22.53</speed>
  <fix>3d</fix>
</trkpt>
<trkpt lat="-27.2600615" lon="151.3531657">
  <ele>536.16</ele>
  <time>2026-09-01T20:01:38Z</time>
  <course>264.47</course>
  <speed>22.55176489767486</speed>
  <fix>3d</fix>
</trkpt>
<trkpt lat="-27.2600594" lon="151.3531896">
  <ele>536.21</ele>
  <time>2026-09-01T20:01:38Z</time>
  <course>264.56</course>
  <speed>22.54</speed>
  <fix>3d</fix>
</trkpt>
<trkpt lat="-27.2600634" lon="151.353143">
  <ele>536.1</ele>
  <time>2026-09-01T20:01:38Z</time>
  <course>264.54</course>
  <speed>22.562670497970757</speed>
  <fix>3d</fix>
</trkpt>
<trkpt lat="-27.2600594" lon="151.3531896">
  <ele>536.21</ele>
  <time>2026-09-01T20:01:38Z</time>
  <course>264.56</course>
  <speed>22.54</speed>
  <fix>3d</fix>
</trkpt>
<trkpt lat="-27.2600654" lon="151.3531203">
  <ele>536.04</ele>
  <time>2026-09-01T20:01:38Z</time>
  <course>264.56</course>
  <speed>22.583533824448292</speed>
  <fix>3d</fix>
</trkpt>
<trkpt lat="-27.2600633" lon="151.3531443">
  <ele>536.1</ele>
  <time>2026-09-01T20:01:38Z</time>
  <course>264.52</course>
  <speed>22.57</speed>
  <fix>3d</fix>
</trkpt>
<trkpt lat="-27.2600673" lon="151.3530975">
  <ele>535.98</ele>
  <time>2026-09-01T20:01:38Z</time>
  <course>264.5</course>
  <speed>22.5944462202551</speed>
  <fix>3d</fix>
</trkpt>
<trkpt lat="-27.2600633" lon="151.3531443">
  <ele>536.1</ele>
  <time>2026-09-01T20:01:38Z</time>
  <course>264.52</course>
  <speed>22.57</speed>
  <fix>3d</fix>
</trkpt>
<trkpt lat="-27.2600693" lon="151.3530748">
  <ele>535.91</ele>
  <time>2026-09-01T20:01:38Z</time>
  <course>264.44</course>
  <speed>22.61531560690675</speed>
  <fix>3d</fix>
</trkpt>
<trkpt lat="-27.2600672" lon="151.3530988">
  <ele>535.98</ele>
  <time>2026-09-01T20:01:38Z</time>
  <course>264.48</course>
  <speed>22.6</speed>
  <fix>3d</fix>
</trkpt>
<trkpt lat="-27.2600712" lon="151.353052">
  <ele>535.85</ele>
  <time>2026-09-01T20:01:38Z</time>
  <course>264.39</course>
  <speed>22.64614095160586</speed>
  <fix>3d</fix>
</trkpt>
<trkpt lat="-27.2600672" lon="151.3530988">
  <ele>535.98</ele>
  <time>2026-09-01T20:01:38Z</time>
  <course>264.48</course>
  <speed>22.6</speed>
  <fix>3d</fix>
</trkpt>
<trkpt lat="-27.2600732" lon="151.3530293">
  <ele>535.78</ele>
  <time>2026-09-01T20:01:38Z</time>
  <course>264.36</course>
  <speed>22.67794082362859</speed>
  <fix>3d</fix>
</trkpt>
<trkpt lat="-27.2600711" lon="151.3530533">
  <ele>535.85</ele>
  <time>2026-09-01T20:01:38Z</time>
  <course>264.43</course>
  <speed>22.65</speed>
  <fix>3d</fix>
</trkpt>
<trkpt lat="-27.2600752" lon="151.3530064">
  <ele>535.71</ele>
  <time>2026-09-01T20:01:38Z</time>
  <course>264.34</course>
  <speed>22.708773634875133</speed>
  <fix>3d</fix>
</trkpt>
<trkpt lat="-27.2600711" lon="151.3530533">
  <ele>535.85</ele>
  <time>2026-09-01T20:01:38Z</time>
  <course>264.43</course>
  <speed>22.65</speed>
  <fix>3d</fix>
</trkpt>
<trkpt lat="-27.2600772" lon="151.3529835">
  <ele>535.63</ele>
  <time>2026-09-01T20:01:38Z</time>
  <course>264.34</course>
  <speed>22.750542850666225</speed>
  <fix>3d</fix>
</trkpt>
<trkpt lat="-27.2600751" lon="151.3530077">
  <ele>535.71</ele>
  <time>2026-09-01T20:01:38Z</time>
  <course>264.37</course>
  <speed>22.71</speed>
  <fix>3d</fix>
</trkpt>
<trkpt lat="-27.2600792" lon="151.3529606">
  <ele>535.56</ele>
  <time>2026-09-01T20:01:38Z</time>
  <course>264.33</course>
  <speed>22.791333879349846</speed>
  <fix>3d</fix>
</trkpt>
<trkpt lat="-27.2600751" lon="151.3530077">
  <ele>535.71</ele>
  <time>2026-09-01T20:01:38Z</time>
  <course>264.37</course>
  <speed>22.71</speed>
  <fix>3d</fix>
</trkpt>
<trkpt lat="-27.2600813" lon="151.3529376">
  <ele>535.48</ele>
  <time>2026-09-01T20:01:38Z</time>
  <course>264.32</course>
  <speed>22.83311849047344</speed>
  <fix>3d</fix>
</trkpt>
<trkpt lat="-27.2600791" lon="151.352962">
  <ele>535.56</ele>
  <time>2026-09-01T20:01:38Z</time>
  <course>264.32</course>
  <speed>22.79</speed>
  <fix>3d</fix>
</trkpt>
<trkpt lat="-27.2600833" lon="151.3529147">
  <ele>535.4</ele>
  <time>2026-09-01T20:01:38Z</time>
  <course>264.29</course>
  <speed>22.883865495147447</speed>
  <fix>3d</fix>
</trkpt>
<trkpt lat="-27.2600791" lon="151.352962">
  <ele>535.56</ele>
  <time>2026-09-01T20:01:38Z</time>
  <course>264.32</course>
  <speed>22.79</speed>
  <fix>3d</fix>
</trkpt>
<trkpt lat="-27.2600854" lon="151.3528916">
  <ele>535.32</ele>
  <time>2026-09-01T20:01:38Z</time>
  <course>264.25</course>
  <speed>22.93561422765913</speed>
  <fix>3d</fix>
</trkpt>
<trkpt lat="-27.2600832" lon="151.352916">
  <ele>535.4</ele>
  <time>2026-09-01T20:01:38Z</time>
  <course>264.26</course>
  <speed>22.88</speed>
  <fix>3d</fix>
</trkpt>
<trkpt lat="-27.2600875" lon="151.3528686">
  <ele>535.24</ele>
  <time>2026-09-01T20:01:38Z</time>
  <course>264.27</course>
  <speed>22.976416169629243</speed>
  <fix>3d</fix>
</trkpt>
<trkpt lat="-27.2600832" lon="151.352916">
  <ele>535.4</ele>
  <time>2026-09-01T20:01:38Z</time>
  <course>264.26</course>
  <speed>22.88</speed>
  <fix>3d</fix>
</trkpt>
<trkpt lat="-27.2600895" lon="151.3528455">
  <ele>535.16</ele>
  <time>2026-09-01T20:01:38Z</time>
  <course>264.29</course>
  <speed>23.027168736082167</speed>
  <fix>3d</fix>
</trkpt>
<trkpt lat="-27.2600873" lon="151.35287">
  <ele>535.24</ele>
  <time>2026-09-01T20:01:38Z</time>
  <course>264.22</course>
  <speed>22.98</speed>
  <fix>3d</fix>
</trkpt>
<trkpt lat="-27.2600916" lon="151.3528222">
  <ele>535.08</ele>
  <time>2026-09-01T20:01:38Z</time>
  <course>264.33</course>
  <speed>23.087871274762428</speed>
  <fix>3d</fix>
</trkpt>
<trkpt lat="-27.2600873" lon="151.35287">
  <ele>535.24</ele>
  <time>2026-09-01T20:01:38Z</time>
  <course>264.22</course>
  <speed>22.98</speed>
  <fix>3d</fix>
</trkpt>
<trkpt lat="-27.2600937" lon="151.3527991">
  <ele>535.01</ele>
  <time>2026-09-01T20:01:38Z</time>
  <course>264.3</course>
  <speed>23.13862571545683</speed>
  <fix>3d</fix>
</trkpt>
<trkpt lat="-27.2600915" lon="151.3528236">
  <ele>535.08</ele>
  <time>2026-09-01T20:01:38Z</time>
  <course>264.19</course>
  <speed>23.08</speed>
  <fix>3d</fix>
</trkpt>
<trkpt lat="-27.2600958" lon="151.3527758">
  <ele>534.94</ele>
  <time>2026-09-01T20:01:38Z</time>
  <course>264.24</course>
  <speed>23.189381190536327</speed>
  <fix>3d</fix>
</trkpt>
<trkpt lat="-27.2600915" lon="151.3528236">
  <ele>535.08</ele>
  <time>2026-09-01T20:01:38Z</time>
  <course>264.19</course>
  <speed>23.08</speed>
  <fix>3d</fix>
</trkpt>
<trkpt lat="-27.2600979" lon="151.3527531">
  <ele>534.87</ele>
  <time>2026-09-01T20:01:38Z</time>
  <course>264.2</course>
  <speed>23.25008602134624</speed>
  <fix>3d</fix>
</trkpt>
<trkpt lat="-27.2600915" lon="151.3528236">
  <ele>535.08</ele>
  <time>2026-09-01T20:01:38Z</time>
  <course>264.19</course>
  <speed>23.08</speed>
  <fix>3d</fix>
</trkpt>
<trkpt lat="-27.2601001" lon="151.3527289">
  <ele>534.79</ele>
  <time>2026-09-01T20:01:38Z</time>
  <course>264.16</course>
  <speed>23.300843332377482</speed>
  <fix>3d</fix>
</trkpt>
<trkpt lat="-27.2600957" lon="151.352777">
  <ele>534.94</ele>
  <time>2026-09-01T20:01:38Z</time>
  <course>264.17</course>
  <speed>23.19</speed>
  <fix>3d</fix>
</trkpt>
<trkpt lat="-27.2601022" lon="151.3527054">
  <ele>534.69</ele>
  <time>2026-09-01T20:01:38Z</time>
  <course>264.14</course>
  <speed>23.361549606137004</speed>
  <fix>3d</fix>
</trkpt>
<trkpt lat="-27.2601" lon="151.3527302">
  <ele>534.78</ele>
  <time>2026-09-01T20:01:38Z</time>
  <course>264.14</course>
  <speed>23.3</speed>
  <fix>3d</fix>
</trkpt>
<trkpt lat="-27.2601044" lon="151.3526819">
  <ele>534.56</ele>
  <time>2026-09-01T20:01:38Z</time>
  <course>264.16</course>
  <speed>23.43322641037721</speed>
  <fix>3d</fix>
</trkpt>
<trkpt lat="-27.2601" lon="151.3527302">
  <ele>534.78</ele>
  <time>2026-09-01T20:01:38Z</time>
  <course>264.14</course>
  <speed>23.3</speed>
  <fix>3d</fix>
</trkpt>
<trkpt lat="-27.2601066" lon="151.3526583">
  <ele>534.41</ele>
  <time>2026-09-01T20:01:38Z</time>
  <course>264.15</course>
  <speed>23.52583473545625</speed>
  <fix>3d</fix>
</trkpt>
<trkpt lat="-27.2601042" lon="151.3526832">
  <ele>534.55</ele>
  <time>2026-09-01T20:01:38Z</time>
  <course>264.1</course>
  <speed>23.44</speed>
  <fix>3d</fix>
</trkpt>
<trkpt lat="-27.2601088" lon="151.3526345">
  <ele>534.25</ele>
  <time>2026-09-01T20:01:38Z</time>
  <course>264.15</course>
  <speed>23.607475510947797</speed>
  <fix>3d</fix>
</trkpt>
<trkpt lat="-27.2601042" lon="151.3526832">
  <ele>534.55</ele>
  <time>2026-09-01T20:01:38Z</time>
  <course>264.1</course>
  <speed>23.44</speed>
  <fix>3d</fix>
</trkpt>
<trkpt lat="-27.260111" lon="151.3526109">
  <ele>534.1</ele>
  <time>2026-09-01T20:01:38Z</time>
  <course>264.14</course>
  <speed>23.70901305411088</speed>
  <fix>3d</fix>
</trkpt>
<trkpt lat="-27.2601086" lon="151.352636">
  <ele>534.26</ele>
  <time>2026-09-01T20:01:38Z</time>
  <course>264.03</course>
  <speed>23.61</speed>
  <fix>3d</fix>
</trkpt>
<trkpt lat="-27.2601132" lon="151.352587">
  <ele>533.96</ele>
  <time>2026-09-01T20:01:38Z</time>
  <course>264.1</course>
  <speed>23.800609235899824</speed>
  <fix>3d</fix>
</trkpt>
<trkpt lat="-27.2601086" lon="151.352636">
  <ele>534.26</ele>
  <time>2026-09-01T20:01:38Z</time>
  <course>264.03</course>
  <speed>23.61</speed>
  <fix>3d</fix>
</trkpt>
<trkpt lat="-27.2601155" lon="151.352563">
  <ele>533.82</ele>
  <time>2026-09-01T20:01:38Z</time>
  <course>264.05</course>
  <speed>23.90215471458588</speed>
  <fix>3d</fix>
</trkpt>
<trkpt lat="-27.2601131" lon="151.3525883">
  <ele>533.97</ele>
  <time>2026-09-01T20:01:38Z</time>
  <course>263.97</course>
  <speed>23.8</speed>
  <fix>3d</fix>
</trkpt>
<trkpt lat="-27.2601177" lon="151.352539">
  <ele>533.7</ele>
  <time>2026-09-01T20:01:38Z</time>
  <course>264.0</course>
  <speed>23.99375960536406</speed>
  <fix>3d</fix>
</trkpt>
<trkpt lat="-27.2601131" lon="151.3525883">
  <ele>533.97</ele>
  <time>2026-09-01T20:01:38Z</time>
  <course>263.97</course>
  <speed>23.8</speed>
  <fix>3d</fix>
</trkpt>
<trkpt lat="-27.26012" lon="151.3525148">
  <ele>533.58</ele>
  <time>2026-09-01T20:01:38Z</time>
  <course>263.98</course>
  <speed>24.0754252298895</speed>
  <fix>3d</fix>
</trkpt>
<trkpt lat="-27.2601176" lon="151.3525402">
  <ele>533.71</ele>
  <time>2026-09-01T20:01:38Z</time>
  <course>263.93</course>
  <speed>23.98</speed>
  <fix>3d</fix>
</trkpt>
<trkpt lat="-27.2601223" lon="151.3524905">
  <ele>533.49</ele>
  <time>2026-09-01T20:01:38Z</time>
  <course>263.95</course>
  <speed>24.167039537353347</speed>
  <fix>3d</fix>
</trkpt>
<trkpt lat="-27.2601176" lon="151.3525402">
  <ele>533.71</ele>
  <time>2026-09-01T20:01:38Z</time>
  <course>263.93</course>
  <speed>23.98</speed>
  <fix>3d</fix>
</trkpt>
<trkpt lat="-27.2601246" lon="151.3524663">
  <ele>533.41</ele>
  <time>2026-09-01T20:01:38Z</time>
  <course>263.94</course>
  <speed>24.23877265869706</speed>
  <fix>3d</fix>
</trkpt>
<trkpt lat="-27.2601222" lon="151.3524919">
  <ele>533.5</ele>
  <time>2026-09-01T20:01:38Z</time>
  <course>263.88</course>
  <speed>24.16</speed>
  <fix>3d</fix>
</trkpt>
<trkpt lat="-27.260127" lon="151.3524419">
  <ele>533.34</ele>
  <time>2026-09-01T20:01:38Z</time>
  <course>263.95</course>
  <speed>24.319383215863024</speed>
  <fix>3d</fix>
</trkpt>
<trkpt lat="-27.2601222" lon="151.3524919">
  <ele>533.5</ele>
  <time>2026-09-01T20:01:38Z</time>
  <course>263.88</course>
  <speed>24.16</speed>
  <fix>3d</fix>
</trkpt>
<trkpt lat="-27.2601293" lon="151.3524174">
  <ele>533.28</ele>
  <time>2026-09-01T20:01:38Z</time>
  <course>263.98</course>
  <speed>24.390051250458658</speed>
  <fix>3d</fix>
</trkpt>
<trkpt lat="-27.2601268" lon="151.3524433">
  <ele>533.35</ele>
  <time>2026-09-01T20:01:38Z</time>
  <course>263.85</course>
  <speed>24.31</speed>
  <fix>3d</fix>
</trkpt>
<trkpt lat="-27.2601317" lon="151.3523928">
  <ele>533.24</ele>
  <time>2026-09-01T20:01:38Z</time>
  <course>263.89</course>
  <speed>24.45077708376566</speed>
  <fix>3d</fix>
</trkpt>
<trkpt lat="-27.2601268" lon="151.3524433">
  <ele>533.35</ele>
  <time>2026-09-01T20:01:38Z</time>
  <course>263.85</course>
  <speed>24.31</speed>
  <fix>3d</fix>
</trkpt>
<trkpt lat="-27.260134" lon="151.3523683">
  <ele>533.21</ele>
  <time>2026-09-01T20:01:38Z</time>
  <course>263.85</course>
  <speed>24.52144571594424</speed>
  <fix>3d</fix>
</trkpt>
<trkpt lat="-27.2601315" lon="151.3523943">
  <ele>533.25</ele>
  <time>2026-09-01T20:01:38Z</time>
  <course>263.83</course>
  <speed>24.45</speed>
  <fix>3d</fix>
</trkpt>
<trkpt lat="-27.2601364" lon="151.3523435">
  <ele>533.18</ele>
  <time>2026-09-01T20:01:38Z</time>
  <course>263.81</course>
  <speed>24.573306655800316</speed>
  <fix>3d</fix>
</trkpt>
<trkpt lat="-27.2601315" lon="151.3523943">
  <ele>533.25</ele>
  <time>2026-09-01T20:01:38Z</time>
  <course>263.83</course>
  <speed>24.45</speed>
  <fix>3d</fix>
</trkpt>
<trkpt lat="-27.2601388" lon="151.3523189">
  <ele>533.16</ele>
  <time>2026-09-01T20:01:38Z</time>
  <course>263.84</course>
  <speed>24.63295759749527</speed>
  <fix>3d</fix>
</trkpt>
<trkpt lat="-27.2601363" lon="151.3523449">
  <ele>533.19</ele>
  <time>2026-09-01T20:01:38Z</time>
  <course>263.81</course>
  <speed>24.57</speed>
  <fix>3d</fix>
</trkpt>
<trkpt lat="-27.2601412" lon="151.3522941">
  <ele>533.16</ele>
  <time>2026-09-01T20:01:38Z</time>
  <course>263.9</course>
  <speed>24.68374363827335</speed>
  <fix>3d</fix>
</trkpt>
<trkpt lat="-27.2601363" lon="151.3523449">
  <ele>533.19</ele>
  <time>2026-09-01T20:01:38Z</time>
  <course>263.81</course>
  <speed>24.57</speed>
  <fix>3d</fix>
</trkpt>
<trkpt lat="-27.2601436" lon="151.3522693">
  <ele>533.16</ele>
  <time>2026-09-01T20:01:38Z</time>
  <course>263.91</course>
  <speed>24.733453054517078</speed>
  <fix>3d</fix>
</trkpt>
<trkpt lat="-27.2601411" lon="151.3522954">
  <ele>533.16</ele>
  <time>2026-09-01T20:01:38Z</time>
  <course>263.8</course>
  <speed>24.68</speed>
  <fix>3d</fix>
</trkpt>
<trkpt lat="-27.260146" lon="151.3522444">
  <ele>533.16</ele>
  <time>2026-09-01T20:01:38Z</time>
  <course>263.83</course>
  <speed>24.78316363985841</speed>
  <fix>3d</fix>
</trkpt>
<trkpt lat="-27.2601411" lon="151.3522954">
  <ele>533.16</ele>
  <time>2026-09-01T20:01:38Z</time>
  <course>263.8</course>
  <speed>24.68</speed>
  <fix>3d</fix>
</trkpt>
<trkpt lat="-27.2601484" lon="151.3522195">
  <ele>533.19</ele>
  <time>2026-09-01T20:01:38Z</time>
  <course>263.8</course>
  <speed>24.824006525941776</speed>
  <fix>3d</fix>
</trkpt>
<trkpt lat="-27.2601459" lon="151.3522457">
  <ele>533.17</ele>
  <time>2026-09-01T20:01:38Z</time>
  <course>263.81</course>
  <speed>24.78</speed>
  <fix>3d</fix>
</trkpt>
<trkpt lat="-27.2601508" lon="151.3521946">
  <ele>533.2</ele>
  <time>2026-09-01T20:01:38Z</time>
  <course>263.85</course>
  <speed>24.853832702422377</speed>
  <fix>3d</fix>
</trkpt>
<trkpt lat="-27.2601459" lon="151.3522457">
  <ele>533.17</ele>
  <time>2026-09-01T20:01:38Z</time>
  <course>263.81</course>
  <speed>24.78</speed>
  <fix>3d</fix>
</trkpt>
<trkpt lat="-27.2601532" lon="151.3521696">
  <ele>533.23</ele>
  <time>2026-09-01T20:01:38Z</time>
  <course>263.83</course>
  <speed>24.84389059708644</speed>
  <fix>3d</fix>
</trkpt>
<trkpt lat="-27.2601506" lon="151.3521958">
  <ele>533.19</ele>
  <time>2026-09-01T20:01:38Z</time>
  <course>263.82</course>
  <speed>24.84</speed>
  <fix>3d</fix>
</trkpt>
<trkpt lat="-27.2601556" lon="151.3521447">
  <ele>533.25</ele>
  <time>2026-09-01T20:01:38Z</time>
  <course>263.83</course>
  <speed>24.77322142960015</speed>
  <fix>3d</fix>
</trkpt>
<trkpt lat="-27.2601506" lon="151.3521958">
  <ele>533.19</ele>
  <time>2026-09-01T20:01:38Z</time>
  <course>263.82</course>
  <speed>24.84</speed>
  <fix>3d</fix>
</trkpt>
<trkpt lat="-27.2601579" lon="151.3521199">
  <ele>533.29</ele>
  <time>2026-09-01T20:01:38Z</time>
  <course>263.84</course>
  <speed>24.642899585884773</speed>
  <fix>3d</fix>
</trkpt>
<trkpt lat="-27.2601555" lon="151.352146">
  <ele>533.25</ele>
  <time>2026-09-01T20:01:38Z</time>
  <course>263.81</course>
  <speed>24.75</speed>
  <fix>3d</fix>
</trkpt>
<trkpt lat="-27.2601603" lon="151.3520951">
  <ele>533.32</ele>
  <time>2026-09-01T20:01:38Z</time>
  <course>263.84</course>
  <speed>24.451850645707783</speed>
  <fix>3d</fix>
</trkpt>
<trkpt lat="-27.2601555" lon="151.352146">
  <ele>533.25</ele>
  <time>2026-09-01T20:01:38Z</time>
  <course>263.81</course>
  <speed>24.75</speed>
  <fix>3d</fix>
</trkpt>
<trkpt lat="-27.2601627" lon="151.3520706">
  <ele>533.36</ele>
  <time>2026-09-01T20:01:38Z</time>
  <course>263.83</course>
  <speed>24.21001652209267</speed>
  <fix>3d</fix>
</trkpt>
<trkpt lat="-27.2601602" lon="151.3520965">
  <ele>533.32</ele>
  <time>2026-09-01T20:01:38Z</time>
  <course>263.82</course>
  <speed>24.44</speed>
  <fix>3d</fix>
</trkpt>
<trkpt lat="-27.260165" lon="151.3520464">
  <ele>533.39</ele>
  <time>2026-09-01T20:01:38Z</time>
  <course>263.83</course>
  <speed>23.917399524195773</speed>
  <fix>3d</fix>
</trkpt>
<trkpt lat="-27.2601602" lon="151.3520965">
  <ele>533.32</ele>
  <time>2026-09-01T20:01:38Z</time>
  <course>263.82</course>
  <speed>24.44</speed>
  <fix>3d</fix>
</trkpt>
<trkpt lat="-27.2601673" lon="151.3520225">
  <ele>533.4</ele>
  <time>2026-09-01T20:01:38Z</time>
  <course>263.83</course>
  <speed>23.59602720798567</speed>
  <fix>3d</fix>
</trkpt>
<trkpt lat="-27.2601649" lon="151.3520479">
  <ele>533.38</ele>
  <time>2026-09-01T20:01:38Z</time>
  <course>263.83</course>
  <speed>23.92</speed>
  <fix>3d</fix>
</trkpt>
<trkpt lat="-27.2601696" lon="151.351999">
  <ele>533.4</ele>
  <time>2026-09-01T20:01:38Z</time>
  <course>263.83</course>
  <speed>23.2934690417722</speed>
  <fix>3d</fix>
</trkpt>
<trkpt lat="-27.2601649" lon="151.3520479">
  <ele>533.38</ele>
  <time>2026-09-01T20:01:38Z</time>
  <course>263.83</course>
  <speed>23.92</speed>
  <fix>3d</fix>
</trkpt>
<trkpt lat="-27.2601718" lon="151.3519757">
  <ele>533.38</ele>
  <time>2026-09-01T20:01:38Z</time>
  <course>263.83</course>
  <speed>22.99198121084827</speed>
  <fix>3d</fix>
</trkpt>
<trkpt lat="-27.2601694" lon="151.3520005">
  <ele>533.39</ele>
  <time>2026-09-01T20:01:38Z</time>
  <course>263.84</course>
  <speed>23.31</speed>
  <fix>3d</fix>
</trkpt>
<trkpt lat="-27.260174" lon="151.3519528">
  <ele>533.33</ele>
  <time>2026-09-01T20:01:38Z</time>
  <course>263.84</course>
  <speed>22.710378684645484</speed>
  <fix>3d</fix>
</trkpt>
<trkpt lat="-27.2601694" lon="151.3520005">
  <ele>533.39</ele>
  <time>2026-09-01T20:01:38Z</time>
  <course>263.84</course>
  <speed>23.31</speed>
  <fix>3d</fix>
</trkpt>
<trkpt lat="-27.2601762" lon="151.3519301">
  <ele>533.24</ele>
  <time>2026-09-01T20:01:38Z</time>
  <course>263.84</course>
  <speed>22.448661430027403</speed>
  <fix>3d</fix>
</trkpt>
<trkpt lat="-27.2601739" lon="151.3519542">
  <ele>533.31</ele>
  <time>2026-09-01T20:01:38Z</time>
  <course>263.85</course>
  <speed>22.74</speed>
  <fix>3d</fix>
</trkpt>
<trkpt lat="-27.2601783" lon="151.3519077">
  <ele>533.13</ele>
  <time>2026-09-01T20:01:38Z</time>
  <course>263.85</course>
  <speed>22.206830030420818</speed>
  <fix>3d</fix>
</trkpt>
<trkpt lat="-27.2601739" lon="151.3519542">
  <ele>533.31</ele>
  <time>2026-09-01T20:01:38Z</time>
  <course>263.85</course>
  <speed>22.74</speed>
  <fix>3d</fix>
</trkpt>
<trkpt lat="-27.2601805" lon="151.3518854">
  <ele>533.0</ele>
  <time>2026-09-01T20:01:38Z</time>
  <course>263.86</course>
  <speed>21.96499943091281</speed>
  <fix>3d</fix>
</trkpt>
<trkpt lat="-27.2601782" lon="151.3519091">
  <ele>533.13</ele>
  <time>2026-09-01T20:01:38Z</time>
  <course>263.86</course>
  <speed>22.22</speed>
  <fix>3d</fix>
</trkpt>
<trkpt lat="-27.2601825" lon="151.3518634">
  <ele>532.86</ele>
  <time>2026-09-01T20:01:38Z</time>
  <course>263.86</course>
  <speed>21.74305636289434</speed>
  <fix>3d</fix>
</trkpt>
<trkpt lat="-27.2601782" lon="151.3519091">
  <ele>533.13</ele>
  <time>2026-09-01T20:01:38Z</time>
  <course>263.86</course>
  <speed>22.22</speed>
  <fix>3d</fix>
</trkpt>
<trkpt lat="-27.2601846" lon="151.3518418">
  <ele>532.7</ele>
  <time>2026-09-01T20:01:38Z</time>
  <course>263.87</course>
  <speed>21.542063503759337</speed>
  <fix>3d</fix>
</trkpt>
<trkpt lat="-27.2601824" lon="151.3518649">
  <ele>532.86</ele>
  <time>2026-09-01T20:01:38Z</time>
  <course>263.87</course>
  <speed>21.77</speed>
  <fix>3d</fix>
</trkpt>
<trkpt lat="-27.2601867" lon="151.3518202">
  <ele>532.54</ele>
  <time>2026-09-01T20:01:38Z</time>
  <course>263.88</course>
  <speed>21.331127490125787</speed>
  <fix>3d</fix>
</trkpt>
<trkpt lat="-27.2601824" lon="151.3518649">
  <ele>532.86</ele>
  <time>2026-09-01T20:01:38Z</time>
  <course>263.87</course>
  <speed>21.77</speed>
  <fix>3d</fix>
</trkpt>
<trkpt lat="-27.2601887" lon="151.3517989">
  <ele>532.38</ele>
  <time>2026-09-01T20:01:38Z</time>
  <course>263.89</course>
  <speed>21.1400780509439</speed>
  <fix>3d</fix>
</trkpt>
<trkpt lat="-27.2601865" lon="151.3518215">
  <ele>532.55</ele>
  <time>2026-09-01T20:01:38Z</time>
  <course>263.88</course>
  <speed>21.35</speed>
  <fix>3d</fix>
</trkpt>
<trkpt lat="-27.2601907" lon="151.3517777">
  <ele>532.21</ele>
  <time>2026-09-01T20:01:38Z</time>
  <course>263.89</course>
  <speed>20.958971825926955</speed>
  <fix>3d</fix>
</trkpt>
<trkpt lat="-27.2601865" lon="151.3518215">
  <ele>532.55</ele>
  <time>2026-09-01T20:01:38Z</time>
  <course>263.88</course>
  <speed>21.35</speed>
  <fix>3d</fix>
</trkpt>
<trkpt lat="-27.2601927" lon="151.3517568">
  <ele>532.04</ele>
  <time>2026-09-01T20:01:38Z</time>
  <course>263.89</course>
  <speed>20.767922380440467</speed>
  <fix>3d</fix>
</trkpt>
<trkpt lat="-27.2601906" lon="151.3517789">
  <ele>532.22</ele>
  <time>2026-09-01T20:01:38Z</time>
  <course>263.88</course>
  <speed>20.97</speed>
  <fix>3d</fix>
</trkpt>
<trkpt lat="-27.2601947" lon="151.351736">
  <ele>531.88</ele>
  <time>2026-09-01T20:01:38Z</time>
  <course>263.89</course>
  <speed>20.596759453855842</speed>
  <fix>3d</fix>
</trkpt>
<trkpt lat="-27.2601906" lon="151.3517789">
  <ele>532.22</ele>
  <time>2026-09-01T20:01:38Z</time>
  <course>263.88</course>
  <speed>20.97</speed>
  <fix>3d</fix>
</trkpt>
<trkpt lat="-27.2601967" lon="151.3517154">
  <ele>531.71</ele>
  <time>2026-09-01T20:01:38Z</time>
  <course>263.89</course>
  <speed>20.426661499129025</speed>
  <fix>3d</fix>
</trkpt>
<trkpt lat="-27.2601946" lon="151.351737">
  <ele>531.88</ele>
  <time>2026-09-01T20:01:38Z</time>
  <course>263.87</course>
  <speed>20.61</speed>
  <fix>3d</fix>
</trkpt>
<trkpt lat="-27.2601986" lon="151.351695">
  <ele>531.54</ele>
  <time>2026-09-01T20:01:38Z</time>
  <course>263.88</course>
  <speed>20.255498019056457</speed>
  <fix>3d</fix>
</trkpt>
<trkpt lat="-27.2601946" lon="151.351737">
  <ele>531.88</ele>
  <time>2026-09-01T20:01:38Z</time>
  <course>263.87</course>
  <speed>20.61</speed>
  <fix>3d</fix>
</trkpt>
<trkpt lat="-27.2602006" lon="151.3516747">
  <ele>531.37</ele>
  <time>2026-09-01T20:01:38Z</time>
  <course>263.87</course>
  <speed>20.09534523216757</speed>
  <fix>3d</fix>
</trkpt>
<trkpt lat="-27.2601985" lon="151.351696">
  <ele>531.55</ele>
  <time>2026-09-01T20:01:38Z</time>
  <course>263.86</course>
  <speed>20.27</speed>
  <fix>3d</fix>
</trkpt>
<trkpt lat="-27.2602025" lon="151.3516546">
  <ele>531.2</ele>
  <time>2026-09-01T20:01:38Z</time>
  <course>263.87</course>
  <speed>19.934124008844734</speed>
  <fix>3d</fix>
</trkpt>
<trkpt lat="-27.2601985" lon="151.351696">
  <ele>531.55</ele>
  <time>2026-09-01T20:01:38Z</time>
  <course>263.86</course>
  <speed>20.27</speed>
  <fix>3d</fix>
</trkpt>
<trkpt lat="-27.2602044" lon="151.3516347">
  <ele>531.04</ele>
  <time>2026-09-01T20:01:38Z</time>
  <course>263.86</course>
  <speed>19.773972792537162</speed>
  <fix>3d</fix>
</trkpt>
<trkpt lat="-27.2602024" lon="151.3516556">
  <ele>531.21</ele>
  <time>2026-09-01T20:01:38Z</time>
  <course>263.84</course>
  <speed>19.94</speed>
  <fix>3d</fix>
</trkpt>
<trkpt lat="-27.2602063" lon="151.3516148">
  <ele>530.87</ele>
  <time>2026-09-01T20:01:38Z</time>
  <course>263.85</course>
  <speed>19.622693495032735</speed>
  <fix>3d</fix>
</trkpt>
<trkpt lat="-27.2602024" lon="151.3516556">
  <ele>531.21</ele>
  <time>2026-09-01T20:01:38Z</time>
  <course>263.84</course>
  <speed>19.94</speed>
  <fix>3d</fix>
</trkpt>
<trkpt lat="-27.2602082" lon="151.3515952">
  <ele>530.7</ele>
  <time>2026-09-01T20:01:38Z</time>
  <course>263.85</course>
  <speed>19.47248571703161</speed>
  <fix>3d</fix>
</trkpt>
<trkpt lat="-27.2602062" lon="151.3516159">
  <ele>530.88</ele>
  <time>2026-09-01T20:01:38Z</time>
  <course>263.83</course>
  <speed>19.63</speed>
  <fix>3d</fix>
</trkpt>
<trkpt lat="-27.26021" lon="151.3515758">
  <ele>530.53</ele>
  <time>2026-09-01T20:01:38Z</time>
  <course>263.84</course>
  <speed>19.332221807128118</speed>
  <fix>3d</fix>
</trkpt>
<trkpt lat="-27.2602062" lon="151.3516159">
  <ele>530.88</ele>
  <time>2026-09-01T20:01:38Z</time>
  <course>263.83</course>
  <speed>19.63</speed>
  <fix>3d</fix>
</trkpt>
<trkpt lat="-27.2602119" lon="151.3515564">
  <ele>530.36</ele>
  <time>2026-09-01T20:01:38Z</time>
  <course>263.83</course>
  <speed>19.180941061376526</speed>
  <fix>3d</fix>
</trkpt>
<trkpt lat="-27.2602099" lon="151.3515767">
  <ele>530.54</ele>
  <time>2026-09-01T20:01:38Z</time>
  <course>263.82</course>
  <speed>19.34</speed>
  <fix>3d</fix>
</trkpt>
<trkpt lat="-27.2602138" lon="151.3515372">
  <ele>530.19</ele>
  <time>2026-09-01T20:01:38Z</time>
  <course>263.83</course>
  <speed>19.05061941250205</speed>
  <fix>3d</fix>
</trkpt>
<trkpt lat="-27.2602099" lon="151.3515767">
  <ele>530.54</ele>
  <time>2026-09-01T20:01:38Z</time>
  <course>263.82</course>
  <speed>19.34</speed>
  <fix>3d</fix>
</trkpt>
<trkpt lat="-27.2602156" lon="151.3515181">
  <ele>530.02</ele>
  <time>2026-09-01T20:01:38Z</time>
  <course>263.82</course>
  <speed>18.910356950623644</speed>
  <fix>3d</fix>
</trkpt>
<trkpt lat="-27.2602136" lon="151.3515382">
  <ele>530.2</ele>
  <time>2026-09-01T20:01:38Z</time>
  <course>263.81</course>
  <speed>19.06</speed>
  <fix>3d</fix>
</trkpt>
<trkpt lat="-27.2602174" lon="151.3514992">
  <ele>529.84</ele>
  <time>2026-09-01T20:01:38Z</time>
  <course>263.81</course>
  <speed>18.778958970081383</speed>
  <fix>3d</fix>
</trkpt>
<trkpt lat="-27.2602136" lon="151.3515382">
  <ele>530.2</ele>
  <time>2026-09-01T20:01:38Z</time>
  <course>263.81</course>
  <speed>19.06</speed>
  <fix>3d</fix>
</trkpt>
<trkpt lat="-27.2602193" lon="151.3514803">
  <ele>529.66</ele>
  <time>2026-09-01T20:01:38Z</time>
  <course>263.81</course>
  <speed>18.658579795900867</speed>
  <fix>3d</fix>
</trkpt>
<trkpt lat="-27.2602173" lon="151.3515002">
  <ele>529.85</ele>
  <time>2026-09-01T20:01:38Z</time>
  <course>263.79</course>
  <speed>18.79</speed>
  <fix>3d</fix>
</trkpt>
<trkpt lat="-27.2602211" lon="151.3514616">
  <ele>529.49</ele>
  <time>2026-09-01T20:01:38Z</time>
  <course>263.8</course>
  <speed>18.528259497319223</speed>
  <fix>3d</fix>
</trkpt>
<trkpt lat="-27.2602173" lon="151.3515002">
  <ele>529.85</ele>
  <time>2026-09-01T20:01:38Z</time>
  <course>263.79</course>
  <speed>18.79</speed>
  <fix>3d</fix>
</trkpt>
<trkpt lat="-27.2602229" lon="151.351443">
  <ele>529.31</ele>
  <time>2026-09-01T20:01:38Z</time>
  <course>263.8</course>
  <speed>18.40788146419897</speed>
  <fix>3d</fix>
</trkpt>
<trkpt lat="-27.260221" lon="151.3514627">
  <ele>529.5</ele>
  <time>2026-09-01T20:01:38Z</time>
  <course>263.78</course>
  <speed>18.54</speed>
  <fix>3d</fix>
</trkpt>
<trkpt lat="-27.2602246" lon="151.3514246">
  <ele>529.13</ele>
  <time>2026-09-01T20:01:38Z</time>
  <course>263.79</course>
  <speed>18.29744517685461</speed>
  <fix>3d</fix>
</trkpt>
<trkpt lat="-27.260221" lon="151.3514627">
  <ele>529.5</ele>
  <time>2026-09-01T20:01:38Z</time>
  <course>263.78</course>
  <speed>18.54</speed>
  <fix>3d</fix>
</trkpt>
<trkpt lat="-27.2602264" lon="151.3514062">
  <ele>528.95</ele>
  <time>2026-09-01T20:01:38Z</time>
  <course>263.78</course>
  <speed>18.18700909990425</speed>
  <fix>3d</fix>
</trkpt>
<trkpt lat="-27.2602245" lon="151.3514256">
  <ele>529.14</ele>
  <time>2026-09-01T20:01:38Z</time>
  <course>263.77</course>
  <speed>18.3</speed>
  <fix>3d</fix>
</trkpt>
<trkpt lat="-27.2602282" lon="151.351388">
  <ele>528.77</ele>
  <time>2026-09-01T20:01:38Z</time>
  <course>263.78</course>
  <speed>18.076573237204002</speed>
  <fix>3d</fix>
</trkpt>
<trkpt lat="-27.2602245" lon="151.3514256">
  <ele>529.14</ele>
  <time>2026-09-01T20:01:38Z</time>
  <course>263.77</course>
  <speed>18.3</speed>
  <fix>3d</fix>
</trkpt>
<trkpt lat="-27.26023" lon="151.35137">
  <ele>528.59</ele>
  <time>2026-09-01T20:01:38Z</time>
  <course>263.77</course>
  <speed>17.966137592704783</speed>
  <fix>3d</fix>
</trkpt>
<trkpt lat="-27.2602281" lon="151.351389">
  <ele>528.78</ele>
  <time>2026-09-01T20:01:38Z</time>
  <course>263.76</course>
  <speed>18.08</speed>
  <fix>3d</fix>
</trkpt>
<trkpt lat="-27.2602317" lon="151.351352">
  <ele>528.4</ele>
  <time>2026-09-01T20:01:38Z</time>
  <course>263.77</course>
  <speed>17.86564300550081</speed>
  <fix>3d</fix>
</trkpt>
<trkpt lat="-27.2602281" lon="151.351389">
  <ele>528.78</ele>
  <time>2026-09-01T20:01:38Z</time>
  <course>263.76</course>
  <speed>18.08</speed>
  <fix>3d</fix>
</trkpt>
<trkpt lat="-27.2602334" lon="151.3513341">
  <ele>528.22</ele>
  <time>2026-09-01T20:01:38Z</time>
  <course>263.76</course>
  <speed>17.765148465464623</speed>
  <fix>3d</fix>
</trkpt>
<trkpt lat="-27.2602316" lon="151.3513529">
  <ele>528.41</ele>
  <time>2026-09-01T20:01:38Z</time>
  <course>263.75</course>
  <speed>17.87</speed>
  <fix>3d</fix>
</trkpt>
<trkpt lat="-27.2602352" lon="151.3513162">
  <ele>528.03</ele>
  <time>2026-09-01T20:01:38Z</time>
  <course>263.75</course>
  <speed>17.664653973401233</speed>
  <fix>3d</fix>
</trkpt>
<trkpt lat="-27.2602316" lon="151.3513529">
  <ele>528.41</ele>
  <time>2026-09-01T20:01:38Z</time>
  <course>263.75</course>
  <speed>17.87</speed>
  <fix>3d</fix>
</trkpt>
<trkpt lat="-27.2602369" lon="151.3512986">
  <ele>527.84</ele>
  <time>2026-09-01T20:01:38Z</time>
  <course>263.75</course>
  <speed>17.564159530134084</speed>
  <fix>3d</fix>
</trkpt>
<trkpt lat="-27.260235" lon="151.3513172">
  <ele>528.04</ele>
  <time>2026-09-01T20:01:38Z</time>
  <course>263.74</course>
  <speed>17.67</speed>
  <fix>3d</fix>
</trkpt>
<trkpt lat="-27.2602386" lon="151.351281">
  <ele>527.65</ele>
  <time>2026-09-01T20:01:38Z</time>
  <course>263.74</course>
  <speed>17.47360580990655</speed>
  <fix>3d</fix>
</trkpt>
<trkpt lat="-27.260235" lon="151.3513172">
  <ele>528.04</ele>
  <time>2026-09-01T20:01:38Z</time>
  <course>263.74</course>
  <speed>17.67</speed>
  <fix>3d</fix>
</trkpt>
<trkpt lat="-27.2602403" lon="151.3512634">
  <ele>527.46</ele>
  <time>2026-09-01T20:01:38Z</time>
  <course>263.74</course>
  <speed>17.384142199142296</speed>
  <fix>3d</fix>
</trkpt>
<trkpt lat="-27.2602385" lon="151.3512819">
  <ele>527.66</ele>
  <time>2026-09-01T20:01:38Z</time>
  <course>263.72</course>
  <speed>17.48</speed>
  <fix>3d</fix>
</trkpt>
<trkpt lat="-27.260242" lon="151.3512461">
  <ele>527.27</ele>
  <time>2026-09-01T20:01:38Z</time>
  <course>263.73</course>
  <speed>17.303528541889946</speed>
  <fix>3d</fix>
</trkpt>
<trkpt lat="-27.2602385" lon="151.3512819">
  <ele>527.66</ele>
  <time>2026-09-01T20:01:38Z</time>
  <course>263.72</course>
  <speed>17.48</speed>
  <fix>3d</fix>
</trkpt>
<trkpt lat="-27.2602437" lon="151.3512287">
  <ele>527.08</ele>
  <time>2026-09-01T20:01:38Z</time>
  <course>263.73</course>
  <speed>17.212974757432256</speed>
  <fix>3d</fix>
</trkpt>
<trkpt lat="-27.260242" lon="151.351247">
  <ele>527.28</ele>
  <time>2026-09-01T20:01:38Z</time>
  <course>263.71</course>
  <speed>17.31</speed>
  <fix>3d</fix>
</trkpt>
<trkpt lat="-27.2602454" lon="151.3512115">
  <ele>526.89</ele>
  <time>2026-09-01T20:01:38Z</time>
  <course>263.72</course>
  <speed>17.13236119161629</speed>
  <fix>3d</fix>
</trkpt>
<trkpt lat="-27.260242" lon="151.351247">
  <ele>527.28</ele>
  <time>2026-09-01T20:01:38Z</time>
  <course>263.71</course>
  <speed>17.31</speed>
  <fix>3d</fix>
</trkpt>
<trkpt lat="-27.2602471" lon="151.3511943">
  <ele>526.7</ele>
  <time>2026-09-01T20:01:38Z</time>
  <course>263.72</course>
  <speed>17.052841405466715</speed>
  <fix>3d</fix>
</trkpt>
<trkpt lat="-27.2602453" lon="151.3512124">
  <ele>526.9</ele>
  <time>2026-09-01T20:01:38Z</time>
  <course>263.7</course>
  <speed>17.14</speed>
  <fix>3d</fix>
</trkpt>
<trkpt lat="-27.2584468" lon="151.3552753">
  <ele>542.97</ele>
  <time>2026-09-01T20:01:38Z</time>
  <course>250.0</course>
  <speed>0.0</speed>
  <fix>3d</fix>
</trkpt>
<trkpt lat="-27.2602453" lon="151.3512124">
  <ele>526.9</ele>
  <time>2026-09-01T20:01:38Z</time>
  <course>263.7</course>
  <speed>17.14</speed>
  <fix>3d</fix>
</trkpt>
<trkpt lat="-27.2584468" lon="151.3552753">
  <ele>542.85</ele>
  <time>2026-09-01T20:01:38Z</time>
  <course>249.99</course>
  <speed>0.07280109889280519</speed>
  <fix>3d</fix>
</trkpt>
<trkpt lat="-27.2593469" lon="151.3532352">
  <ele>534.78</ele>
  <time>2026-09-01T20:01:38Z</time>
  <course>263.65</course>
  <speed>8.56</speed>
  <fix>3d</fix>
</trkpt>
<trkpt lat="-27.2584468" lon="151.3552752">
  <ele>542.64</ele>
  <time>2026-09-01T20:01:38Z</time>
  <course>249.96</course>
  <speed>0.21189620100417092</speed>
  <fix>3d</fix>
</trkpt>
<trkpt lat="-27.2593469" lon="151.3532352">
  <ele>534.78</ele>
  <time>2026-09-01T20:01:38Z</time>
  <course>263.65</course>
  <speed>8.56</speed>
  <fix>3d</fix>
</trkpt>
<trkpt lat="-27.2584469" lon="151.3552748">
  <ele>542.33</ele>
  <time>2026-09-01T20:01:38Z</time>
  <course>250.37</course>
  <speed>0.4522167621838005</speed>
  <fix>3d</fix>
</trkpt>
<trkpt lat="-27.2584468" lon="151.355275">
  <ele>542.6</ele>
  <time>2026-09-01T20:01:38Z</time>
  <course>251.05</course>
  <speed>0.25</speed>
  <fix>3d</fix>
</trkpt>
<trkpt lat="-27.258447" lon="151.3552743">
  <ele>541.95</ele>
  <time>2026-09-01T20:01:38Z</time>
  <course>253.32</course>
  <speed>0.758023746329889</speed>
  <fix>3d</fix>
</trkpt>
<trkpt lat="-27.2584468" lon="151.355275">
  <ele>542.6</ele>
  <time>2026-09-01T20:01:38Z</time>
  <course>251.05</course>
  <speed>0.25</speed>
  <fix>3d</fix>
</trkpt>
<trkpt lat="-27.2584471" lon="151.3552733">
  <ele>541.5</ele>
  <time>2026-09-01T20:01:38Z</time>
  <course>262.74</course>
  <speed>1.120714058089752</speed>
  <fix>3d</fix>
</trkpt>
<trkpt lat="-27.2584469" lon="151.3552741">
  <ele>541.93</ele>
  <time>2026-09-01T20:01:38Z</time>
  <course>262.81</course>
  <speed>0.76</speed>
  <fix>3d</fix>
</trkpt>
<trkpt lat="-27.2584473" lon="151.3552719">
  <ele>540.97</ele>
  <time>2026-09-01T20:01:38Z</time>
  <course>263.83</course>
  <speed>1.539415473483361</speed>
  <fix>3d</fix>
</trkpt>
<trkpt lat="-27.2584469" lon="151.3552741">
  <ele>541.93</ele>
  <time>2026-09-01T20:01:38Z</time>
  <course>262.81</course>
  <speed>0.76</speed>
  <fix>3d</fix>
</trkpt>
<trkpt lat="-27.2584485" lon="151.3552705">
  <ele>540.39</ele>
  <time>2026-09-01T20:01:38Z</time>
  <course>252.18</course>
  <speed>2.8832100166307693</speed>
  <fix>3d</fix>
</trkpt>
<trkpt lat="-27.2584477" lon="151.355272">
  <ele>540.97</ele>
  <time>2026-09-01T20:01:38Z</time>
  <course>227.51</course>
  <speed>1.78</speed>
  <fix>3d</fix>
</trkpt>
<trkpt lat="-27.2584515" lon="151.355269">
  <ele>539.83</ele>
  <time>2026-09-01T20:01:38Z</time>
  <course>243.86</course>
  <speed>4.408219595256116</speed>
  <fix>3d</fix>
</trkpt>
<trkpt lat="-27.2584477" lon="151.355272">
  <ele>540.97</ele>
  <time>2026-09-01T20:01:38Z</time>
  <course>227.51</course>
  <speed>1.78</speed>
  <fix>3d</fix>
</trkpt>
<trkpt lat="-27.2584559" lon="151.3552676">
  <ele>539.32</ele>
  <time>2026-09-01T20:01:38Z</time>
  <course>237.82</course>
  <speed>5.729432781698376</speed>
  <fix>3d</fix>
</trkpt>
<trkpt lat="-27.258452" lon="151.3552692">
  <ele>539.88</ele>
  <time>2026-09-01T20:01:38Z</time>
  <course>199.75</course>
  <speed>4.19</speed>
  <fix>3d</fix>
</trkpt>
<trkpt lat="-27.2584614" lon="151.3552664">
  <ele>538.9</ele>
  <time>2026-09-01T20:01:38Z</time>
  <course>233.02</course>
  <speed>6.771890430300833</speed>
  <fix>3d</fix>
</trkpt>
<trkpt lat="-27.258452" lon="151.3552692">
  <ele>539.88</ele>
  <time>2026-09-01T20:01:38Z</time>
  <course>199.75</course>
  <speed>4.19</speed>
  <fix>3d</fix>
</trkpt>
<trkpt lat="-27.2584678" lon="151.3552648">
  <ele>538.58</ele>
  <time>2026-09-01T20:01:38Z</time>
  <course>229.31</course>
  <speed>7.5560373212418686</speed>
  <fix>3d</fix>
</trkpt>
<trkpt lat="-27.2584615" lon="151.3552664">
  <ele>538.97</ele>
  <time>2026-09-01T20:01:38Z</time>
  <course>193.08</course>
  <speed>6.6</speed>
  <fix>3d</fix>
</trkpt>
<trkpt lat="-27.2584746" lon="151.3552628">
  <ele>538.39</ele>
  <time>2026-09-01T20:01:39Z</time>
  <course>226.8</course>
  <speed>8.007009429243855</speed>
  <fix>3d</fix>
</trkpt>
<trkpt lat="-27.2584615" lon="151.3552664">
  <ele>538.97</ele>
  <time>2026-09-01T20:01:39Z</time>
  <course>193.08</course>
  <speed>6.6</speed>
  <fix>3d</fix>
</trkpt>
<trkpt lat="-27.2584814" lon="151.3552598">
  <ele>538.29</ele>
  <time>2026-09-01T20:01:39Z</time>
  <course>225.6</course>
  <speed>8.322499624511858</speed>
  <fix>3d</fix>
</trkpt>
<trkpt lat="-27.2584742" lon="151.3552624">
  <ele>538.44</ele>
  <time>2026-09-01T20:01:39Z</time>
  <course>198.92</course>
  <speed>7.88</speed>
  <fix>3d</fix>
</trkpt>
<trkpt lat="-27.2584881" lon="151.3552556">
  <ele>538.25</ele>
  <time>2026-09-01T20:01:39Z</time>
  <course>225.61</course>
  <speed>8.64565208645363</speed>
  <fix>3d</fix>
</trkpt>
<trkpt lat="-27.2584742" lon="151.3552624">
  <ele>538.44</ele>
  <time>2026-09-01T20:01:39Z</time>
  <course>198.92</course>
  <speed>7.88</speed>
  <fix>3d</fix>
</trkpt>
<trkpt lat="-27.2584947" lon="151.3552506">
  <ele>538.23</ele>
  <time>2026-09-01T20:01:39Z</time>
  <course>226.78</course>
  <speed>9.035452395978854</speed>
  <fix>3d</fix>
</trkpt>
<trkpt lat="-27.2584876" lon="151.3552554">
  <ele>538.26</ele>
  <time>2026-09-01T20:01:39Z</time>
  <course>211.26</course>
  <speed>8.61</speed>
  <fix>3d</fix>
</trkpt>
<trkpt lat="-27.2585009" lon="151.3552445">
  <ele>538.2</ele>
  <time>2026-09-01T20:01:39Z</time>
  <course>229.14</course>
  <speed>9.477932263948714</speed>
  <fix>3d</fix>
</trkpt>
<trkpt lat="-27.2584876" lon="151.3552554">
  <ele>538.26</ele>
  <time>2026-09-01T20:01:39Z</time>
  <course>211.26</course>
  <speed>8.61</speed>
  <fix>3d</fix>
</trkpt>
<trkpt lat="-27.258507" lon="151.3552374">
  <ele>538.15</ele>
  <time>2026-09-01T20:01:39Z</time>
  <course>232.36</course>
  <speed>9.978226295289158</speed>
  <fix>3d</fix>
</trkpt>
<trkpt lat="-27.2585004" lon="151.3552443">
  <ele>538.19</ele>
  <time>2026-09-01T20:01:39Z</time>
  <course>223.36</course>
  <speed>9.44</speed>
  <fix>3d</fix>
</trkpt>
<trkpt lat="-27.2585127" lon="151.3552293">
  <ele>538.09</ele>
  <time>2026-09-01T20:01:39Z</time>
  <course>236.11</course>
  <speed>10.506402809715608</speed>
  <fix>3d</fix>
</trkpt>
<trkpt lat="-27.2585004" lon="151.3552443">
  <ele>538.19</ele>
  <time>2026-09-01T20:01:39Z</time>
  <course>223.36</course>
  <speed>9.44</speed>
  <fix>3d</fix>
</trkpt>
<trkpt lat="-27.2585182" lon="151.3552202">
  <ele>538.01</ele>
  <time>2026-09-01T20:01:39Z</time>
  <course>240.0</course>
  <speed>11.030380773119303</speed>
  <fix>3d</fix>
</trkpt>
<trkpt lat="-27.2585123" lon="151.3552293">
  <ele>538.08</ele>
  <time>2026-09-01T20:01:39Z</time>
  <course>233.48</course>
  <speed>10.45</speed>
  <fix>3d</fix>
</trkpt>
<trkpt lat="-27.2585232" lon="151.3552104">
  <ele>537.91</ele>
  <time>2026-09-01T20:01:39Z</time>
  <course>243.67</course>
  <speed>11.571088972089015</speed>
  <fix>3d</fix>
</trkpt>
<trkpt lat="-27.2585123" lon="151.3552293">
  <ele>538.08</ele>
  <time>2026-09-01T20:01:39Z</time>
  <course>233.48</course>
  <speed>10.45</speed>
  <fix>3d</fix>
</trkpt>
<trkpt lat="-27.2585278" lon="151.3551996">
  <ele>537.79</ele>
  <time>2026-09-01T20:01:39Z</time>
  <course>246.96</course>
  <speed>12.109318725675694</speed>
  <fix>3d</fix>
</trkpt>
<trkpt lat="-27.2585227" lon="151.3552104">
  <ele>537.91</ele>
  <time>2026-09-01T20:01:39Z</time>
  <course>242.27</course>
  <speed>11.52</speed>
  <fix>3d</fix>
</trkpt>
<trkpt lat="-27.2585319" lon="151.355188">
  <ele>537.68</ele>
  <time>2026-09-01T20:01:39Z</time>
  <course>249.85</course>
  <speed>12.659873617062692</speed>
  <fix>3d</fix>
</trkpt>
<trkpt lat="-27.2585227" lon="151.3552104">
  <ele>537.91</ele>
  <time>2026-09-01T20:01:39Z</time>
  <course>242.27</course>
  <speed>11.52</speed>
  <fix>3d</fix>
</trkpt>
<trkpt lat="-27.2585355" lon="151.3551756">
  <ele>537.56</ele>
  <time>2026-09-01T20:01:39Z</time>
  <course>252.39</course>
  <speed>13.202685332916179</speed>
  <fix>3d</fix>
</trkpt>
<trkpt lat="-27.2585314" lon="151.3551881">
  <ele>537.68</ele>
  <time>2026-09-01T20:01:39Z</time>
  <course>249.86</course>
  <speed>12.61</speed>
  <fix>3d</fix>
</trkpt>
<trkpt lat="-27.2585387" lon="151.3551623">
  <ele>537.43</ele>
  <time>2026-09-01T20:01:39Z</time>
  <course>254.54</course>
  <speed>13.742561624384297</speed>
  <fix>3d</fix>
</trkpt>
<trkpt lat="-27.2585314" lon="151.3551881">
  <ele>537.68</ele>
  <time>2026-09-01T20:01:39Z</time>
  <course>249.86</course>
  <speed>12.61</speed>
  <fix>3d</fix>
</trkpt>
<trkpt lat="-27.2585413" lon="151.3551486">
  <ele>537.31</ele>
  <time>2026-09-01T20:01:39Z</time>
  <course>256.52</course>
  <speed>14.264028182810073</speed>
  <fix>3d</fix>
</trkpt>
<trkpt lat="-27.2585382" lon="151.3551627">
  <ele>537.44</ele>
  <time>2026-09-01T20:01:39Z</time>
  <course>256.22</course>
  <speed>13.69</speed>
  <fix>3d</fix>
</trkpt>
<trkpt lat="-27.2585435" lon="151.355134">
  <ele>537.2</ele>
  <time>2026-09-01T20:01:39Z</time>
  <course>258.54</course>
  <speed>14.788593577483967</speed>
  <fix>3d</fix>
</trkpt>
<trkpt lat="-27.2585382" lon="151.3551627">
  <ele>537.44</ele>
  <time>2026-09-01T20:01:39Z</time>
  <course>256.22</course>
  <speed>13.69</speed>
  <fix>3d</fix>
</trkpt>
<trkpt lat="-27.2585452" lon="151.355119">
  <ele>537.1</ele>
  <time>2026-09-01T20:01:39Z</time>
  <course>260.52</course>
  <speed>15.291464939632174</speed>
  <fix>3d</fix>
</trkpt>
<trkpt lat="-27.2585431" lon="151.3551345">
  <ele>537.21</ele>
  <time>2026-09-01T20:01:39Z</time>
  <course>261.39</course>
  <speed>14.74</speed>
  <fix>3d</fix>
</trkpt>
<trkpt lat="-27.2585465" lon="151.3551034">
  <ele>537.02</ele>
  <time>2026-09-01T20:01:39Z</time>
  <course>262.37</course>
  <speed>15.786440384076457</speed>
  <fix>3d</fix>
</trkpt>
<trkpt lat="-27.2585431" lon="151.3551345">
  <ele>537.21</ele>
  <time>2026-09-01T20:01:39Z</time>
  <course>261.39</course>
  <speed>14.74</speed>
  <fix>3d</fix>
</trkpt>
<trkpt lat="-27.2585474" lon="151.3550871">
  <ele>536.95</ele>
  <time>2026-09-01T20:01:39Z</time>
  <course>264.04</course>
  <speed>16.25824406262866</speed>
  <fix>3d</fix>
</trkpt>
<trkpt lat="-27.2585462" lon="151.3551038">
  <ele>537.03</ele>
  <time>2026-09-01T20:01:39Z</time>
  <course>265.45</course>
  <speed>15.75</speed>
  <fix>3d</fix>
</trkpt>
<trkpt lat="-27.2585479" lon="151.3550706">
  <ele>536.89</ele>
  <time>2026-09-01T20:01:39Z</time>
  <course>265.51</course>
  <speed>16.724093398447643</speed>
  <fix>3d</fix>
</trkpt>
<trkpt lat="-27.2585462" lon="151.3551038">
  <ele>537.03</ele>
  <time>2026-09-01T20:01:39Z</time>
  <course>265.45</course>
  <speed>15.75</speed>
  <fix>3d</fix>
</trkpt>
<trkpt lat="-27.2585481" lon="151.3550534">
  <ele>536.85</ele>
  <time>2026-09-01T20:01:39Z</time>
  <course>266.86</course>
  <speed>17.17</speed>
  <fix>3d</fix>
</trkpt>
<trkpt lat="-27.2585477" lon="151.355071">
  <ele>536.9</ele>
  <time>2026-09-01T20:01:39Z</time>
  <course>268.6</course>
  <speed>16.69</speed>
  <fix>3d</fix>
</trkpt>
<trkpt lat="-27.2585479" lon="151.3550359">
  <ele>536.82</ele>
  <time>2026-09-01T20:01:39Z</time>
  <course>268.0</course>
  <speed>17.603093478136167</speed>
  <fix>3d</fix>
</trkpt>
<trkpt lat="-27.2585477" lon="151.355071">
  <ele>536.9</ele>
  <time>2026-09-01T20:01:39Z</time>
  <course>268.6</course>
  <speed>16.69</speed>
  <fix>3d</fix>
</trkpt>
<trkpt lat="-27.2585475" lon="151.3550179">
  <ele>536.79</ele>
  <time>2026-09-01T20:01:39Z</time>
  <course>269.09</course>
  <speed>18.021015509676474</speed>
  <fix>3d</fix>
</trkpt>
<trkpt lat="-27.2585478" lon="151.3550364">
  <ele>536.82</ele>
  <time>2026-09-01T20:01:39Z</time>
  <course>270.98</course>
  <speed>17.57</speed>
  <fix>3d</fix>
</trkpt>
<trkpt lat="-27.2585468" lon="151.3549995">
  <ele>536.79</ele>
  <time>2026-09-01T20:01:39Z</time>
  <course>270.1</course>
  <speed>18.422488974077307</speed>
  <fix>3d</fix>
</trkpt>
<trkpt lat="-27.2585478" lon="151.3550364">
  <ele>536.82</ele>
  <time>2026-09-01T20:01:39Z</time>
  <course>270.98</course>
  <speed>17.57</speed>
  <fix>3d</fix>
</trkpt>
<trkpt lat="-27.2585458" lon="151.3549807">
  <ele>536.82</ele>
  <time>2026-09-01T20:01:39Z</time>
  <course>270.98</course>
  <speed>18.814568823122148</speed>
  <fix>3d</fix>
</trkpt>
<trkpt lat="-27.2585466" lon="151.355">
  <ele>536.81</ele>
  <time>2026-09-01T20:01:39Z</time>
  <course>272.74</course>
  <speed>18.4</speed>
  <fix>3d</fix>
</trkpt>
<trkpt lat="-27.2585448" lon="151.3549615">
  <ele>536.85</ele>
  <time>2026-09-01T20:01:39Z</time>
  <course>271.68</course>
  <speed>19.187550651398944</speed>
  <fix>3d</fix>
</trkpt>
<trkpt lat="-27.2585466" lon="151.355">
  <ele>536.81</ele>
  <time>2026-09-01T20:01:39Z</time>
  <course>272.74</course>
  <speed>18.4</speed>
  <fix>3d</fix>
</trkpt>
<trkpt lat="-27.2585435" lon="151.354942">
  <ele>536.89</ele>
  <time>2026-09-01T20:01:39Z</time>
  <course>272.26</course>
  <speed>19.549961636791004</speed>
  <fix>3d</fix>
</trkpt>
<trkpt lat="-27.2585447" lon="151.3549622">
  <ele>536.85</ele>
  <time>2026-09-01T20:01:39Z</time>
  <course>273.99</course>
  <speed>19.16</speed>
  <fix>3d</fix>
</trkpt>
<trkpt lat="-27.258542" lon="151.3549219">
  <ele>536.95</ele>
  <time>2026-09-01T20:01:39Z</time>
  <course>272.72</course>
  <speed>19.901037661388415</speed>
  <fix>3d</fix>
</trkpt>
<trkpt lat="-27.2585447" lon="151.3549622">
  <ele>536.85</ele>
  <time>2026-09-01T20:01:39Z</time>
  <course>273.99</course>
  <speed>19.16</speed>
  <fix>3d</fix>
</trkpt>
<trkpt lat="-27.2585405" lon="151.3549018">
  <ele>537.02</ele>
  <time>2026-09-01T20:01:39Z</time>
  <course>273.14</course>
  <speed>20.22934996484069</speed>
  <fix>3d</fix>
</trkpt>
<trkpt lat="-27.2585421" lon="151.3549228">
  <ele>536.95</ele>
  <time>2026-09-01T20:01:39Z</time>
  <course>274.79</course>
  <speed>19.87</speed>
  <fix>3d</fix>
</trkpt>
<trkpt lat="-27.2585388" lon="151.3548813">
  <ele>537.09</ele>
  <time>2026-09-01T20:01:39Z</time>
  <course>273.65</course>
  <speed>20.51723665604118</speed>
  <fix>3d</fix>
</trkpt>
<trkpt lat="-27.2585421" lon="151.3549228">
  <ele>536.95</ele>
  <time>2026-09-01T20:01:39Z</time>
  <course>274.79</course>
  <speed>19.87</speed>
  <fix>3d</fix>
</trkpt>
<trkpt lat="-27.2585371" lon="151.3548605">
  <ele>537.16</ele>
  <time>2026-09-01T20:01:39Z</time>
  <course>274.1</course>
  <speed>20.774570994367128</speed>
  <fix>3d</fix>
</trkpt>
<trkpt lat="-27.2585389" lon="151.3548822">
  <ele>537.08</ele>
  <time>2026-09-01T20:01:39Z</time>
  <course>275.27</course>
  <speed>20.49</speed>
  <fix>3d</fix>
</trkpt>
<trkpt lat="-27.2585353" lon="151.3548395">
  <ele>537.22</ele>
  <time>2026-09-01T20:01:39Z</time>
  <course>274.44</course>
  <speed>21.011227950788598</speed>
  <fix>3d</fix>
</trkpt>
<trkpt lat="-27.2585389" lon="151.3548822">
  <ele>537.08</ele>
  <time>2026-09-01T20:01:39Z</time>
  <course>275.27</course>
  <speed>20.49</speed>
  <fix>3d</fix>
</trkpt>
<trkpt lat="-27.2585334" lon="151.3548183">
  <ele>537.28</ele>
  <time>2026-09-01T20:01:39Z</time>
  <course>274.77</course>
  <speed>21.20824368022963</speed>
  <fix>3d</fix>
</trkpt>
<trkpt lat="-27.2585353" lon="151.3548404">
  <ele>537.21</ele>
  <time>2026-09-01T20:01:39Z</time>
  <course>275.62</course>
  <speed>20.98</speed>
  <fix>3d</fix>
</trkpt>
<trkpt lat="-27.2585314" lon="151.3547969">
  <ele>537.32</ele>
  <time>2026-09-01T20:01:39Z</time>
  <course>274.96</course>
  <speed>21.373525680149264</speed>
  <fix>3d</fix>
</trkpt>
<trkpt lat="-27.2585353" lon="151.3548404">
  <ele>537.21</ele>
  <time>2026-09-01T20:01:39Z</time>
  <course>275.62</course>
  <speed>20.98</speed>
  <fix>3d</fix>
</trkpt>
<trkpt lat="-27.2585294" lon="151.3547753">
  <ele>537.35</ele>
  <time>2026-09-01T20:01:39Z</time>
  <course>275.13</course>
  <speed>21.51900555323131</speed>
  <fix>3d</fix>
</trkpt>
<trkpt lat="-27.2585314" lon="151.3547978">
  <ele>537.3</ele>
  <time>2026-09-01T20:01:39Z</time>
  <course>275.91</course>
  <speed>21.36</speed>
  <fix>3d</fix>
</trkpt>
<trkpt lat="-27.2585274" lon="151.3547535">
  <ele>537.36</ele>
  <time>2026-09-01T20:01:39Z</time>
  <course>275.34</course>
  <speed>21.622673285234647</speed>
  <fix>3d</fix>
</trkpt>
<trkpt lat="-27.2585314" lon="151.3547978">
  <ele>537.3</ele>
  <time>2026-09-01T20:01:39Z</time>
  <course>275.91</course>
  <speed>21.36</speed>
  <fix>3d</fix>
</trkpt>
<trkpt lat="-27.2585253" lon="151.3547319">
  <ele>537.35</ele>
  <time>2026-09-01T20:01:39Z</time>
  <course>275.46</course>
  <speed>21.706496723331476</speed>
  <fix>3d</fix>
</trkpt>
<trkpt lat="-27.2585274" lon="151.3547547">
  <ele>537.34</ele>
  <time>2026-09-01T20:01:39Z</time>
  <course>276.11</course>
  <speed>21.61</speed>
  <fix>3d</fix>
</trkpt>
<trkpt lat="-27.2585231" lon="151.3547099">
  <ele>537.33</ele>
  <time>2026-09-01T20:01:39Z</time>
  <course>275.58</course>
  <speed>21.77048460645743</speed>
  <fix>3d</fix>
</trkpt>
<trkpt lat="-27.2585274" lon="151.3547547">
  <ele>537.34</ele>
  <time>2026-09-01T20:01:39Z</time>
  <course>276.11</course>
  <speed>21.61</speed>
  <fix>3d</fix>
</trkpt>
<trkpt lat="-27.258521" lon="151.3546881">
  <ele>537.29</ele>
  <time>2026-09-01T20:01:39Z</time>
  <course>275.7</course>
  <speed>21.80249756335269</speed>
  <fix>3d</fix>
</trkpt>
<trkpt lat="-27.2585232" lon="151.354711">
  <ele>537.32</ele>
  <time>2026-09-01T20:01:39Z</time>
  <course>276.27</course>
  <speed>21.76</speed>
  <fix>3d</fix>
</trkpt>
<trkpt lat="-27.2585188" lon="151.3546662">
  <ele>537.25</ele>
  <time>2026-09-01T20:01:39Z</time>
  <course>275.82</course>
  <speed>21.8356337210533</speed>
  <fix>3d</fix>
</trkpt>
<trkpt lat="-27.2585232" lon="151.354711">
  <ele>537.32</ele>
  <time>2026-09-01T20:01:39Z</time>
  <course>276.27</course>
  <speed>21.76</speed>
  <fix>3d</fix>
</trkpt>
<trkpt lat="-27.2585166" lon="151.3546443">
  <ele>537.19</ele>
  <time>2026-09-01T20:01:39Z</time>
  <course>275.94</course>
  <speed>21.866561229420594</speed>
  <fix>3d</fix>
</trkpt>
<trkpt lat="-27.2585189" lon="151.3546671">
  <ele>537.24</ele>
  <time>2026-09-01T20:01:39Z</time>
  <course>276.38</course>
  <speed>21.83</speed>
  <fix>3d</fix>
</trkpt>
<trkpt lat="-27.2585144" lon="151.3546223">
  <ele>537.12</ele>
  <time>2026-09-01T20:01:39Z</time>
  <course>276.04</course>
  <speed>21.888675154060834</speed>
  <fix>3d</fix>
</trkpt>
<trkpt lat="-27.2585189" lon="151.3546671">
  <ele>537.24</ele>
  <time>2026-09-01T20:01:39Z</time>
  <course>276.38</course>
  <speed>21.83</speed>
  <fix>3d</fix>
</trkpt>
<trkpt lat="-27.2585122" lon="151.3546002">
  <ele>537.04</ele>
  <time>2026-09-01T20:01:39Z</time>
  <course>276.12</course>
  <speed>21.920739038636448</speed>
  <fix>3d</fix>
</trkpt>
<trkpt lat="-27.2585144" lon="151.3546232">
  <ele>537.12</ele>
  <time>2026-09-01T20:01:39Z</time>
  <course>276.46</course>
  <speed>21.89</speed>
  <fix>3d</fix>
</trkpt>
<trkpt lat="-27.25851" lon="151.3545782">
  <ele>536.96</ele>
  <time>2026-09-01T20:01:39Z</time>
  <course>276.17</course>
  <speed>21.96161423939506</speed>
  <fix>3d</fix>
</trkpt>
<trkpt lat="-27.2585144" lon="151.3546232">
  <ele>537.12</ele>
  <time>2026-09-01T20:01:39Z</time>
  <course>276.46</course>
  <speed>21.89</speed>
  <fix>3d</fix>
</trkpt>
<trkpt lat="-27.2585077" lon="151.3545562">
  <ele>536.88</ele>
  <time>2026-09-01T20:01:39Z</time>
  <course>276.19</course>
  <speed>21.99255555864302</speed>
  <fix>3d</fix>
</trkpt>
<trkpt lat="-27.25851" lon="151.3545792">
  <ele>536.96</ele>
  <time>2026-09-01T20:01:39Z</time>
  <course>276.51</course>
  <speed>21.96</speed>
  <fix>3d</fix>
</trkpt>
<trkpt lat="-27.2585055" lon="151.3545342">
  <ele>536.79</ele>
  <time>2026-09-01T20:01:39Z</time>
  <course>276.22</course>
  <speed>22.02236136294199</speed>
  <fix>3d</fix>
</trkpt>
<trkpt lat="-27.25851" lon="151.3545792">
  <ele>536.96</ele>
  <time>2026-09-01T20:01:39Z</time>
  <course>276.51</course>
  <speed>21.96</speed>
  <fix>3d</fix>
</trkpt>
<trkpt lat="-27.2585032" lon="151.354512">
  <ele>536.72</ele>
  <time>2026-09-01T20:01:39Z</time>
  <course>276.26</course>
  <speed>22.052167693902565</speed>
  <fix>3d</fix>
</trkpt>
<trkpt lat="-27.2585055" lon="151.3545351">
  <ele>536.8</ele>
  <time>2026-09-01T20:01:39Z</time>
  <course>276.53</course>
  <speed>22.02</speed>
  <fix>3d</fix>
</trkpt>
<trkpt lat="-27.258501" lon="151.3544899">
  <ele>536.64</ele>
  <time>2026-09-01T20:01:39Z</time>
  <course>276.25</course>
  <speed>22.08197454939209</speed>
  <fix>3d</fix>
</trkpt>
<trkpt lat="-27.2585055" lon="151.3545351">
  <ele>536.8</ele>
  <time>2026-09-01T20:01:39Z</time>
  <course>276.53</course>
  <speed>22.02</speed>
  <fix>3d</fix>
</trkpt>
<trkpt lat="-27.2584987" lon="151.3544676">
  <ele>536.58</ele>
  <time>2026-09-01T20:01:39Z</time>
  <course>276.27</course>
  <speed>22.111781927289353</speed>
  <fix>3d</fix>
</trkpt>
<trkpt lat="-27.258501" lon="151.3544908">
  <ele>536.65</ele>
  <time>2026-09-01T20:01:39Z</time>
  <course>276.51</course>
  <speed>22.08</speed>
  <fix>3d</fix>
</trkpt>
<trkpt lat="-27.2584965" lon="151.3544455">
  <ele>536.52</ele>
  <time>2026-09-01T20:01:39Z</time>
  <course>276.28</course>
  <speed>22.130526428442682</speed>
  <fix>3d</fix>
</trkpt>
<trkpt lat="-27.258501" lon="151.3544908">
  <ele>536.65</ele>
  <time>2026-09-01T20:01:39Z</time>
  <course>276.51</course>
  <speed>22.08</speed>
  <fix>3d</fix>
</trkpt>
<trkpt lat="-27.2584942" lon="151.3544232">
  <ele>536.46</ele>
  <time>2026-09-01T20:01:39Z</time>
  <course>276.26</course>
  <speed>22.149277640591354</speed>
  <fix>3d</fix>
</trkpt>
<trkpt lat="-27.2584965" lon="151.3544463">
  <ele>536.52</ele>
  <time>2026-09-01T20:01:39Z</time>
  <course>276.46</course>
  <speed>22.13</speed>
  <fix>3d</fix>
</trkpt>
<trkpt lat="-27.258492" lon="151.354401">
  <ele>536.41</ele>
  <time>2026-09-01T20:01:39Z</time>
  <course>276.3</course>
  <speed>22.158097842549573</speed>
  <fix>3d</fix>
</trkpt>
<trkpt lat="-27.2584965" lon="151.3544463">
  <ele>536.52</ele>
  <time>2026-09-01T20:01:39Z</time>
  <course>276.46</course>
  <speed>22.13</speed>
  <fix>3d</fix>
</trkpt>
<trkpt lat="-27.2584898" lon="151.3543788">
  <ele>536.37</ele>
  <time>2026-09-01T20:01:39Z</time>
  <course>276.34</course>
  <speed>22.16692355740868</speed>
  <fix>3d</fix>
</trkpt>
<trkpt lat="-27.2584921" lon="151.3544019">
  <ele>536.42</ele>
  <time>2026-09-01T20:01:39Z</time>
  <course>276.4</course>
  <speed>22.16</speed>
  <fix>3d</fix>
</trkpt>
<trkpt lat="-27.2584876" lon="151.3543565">
  <ele>536.34</ele>
  <time>2026-09-01T20:01:39Z</time>
  <course>276.3</course>
  <speed>22.174652195694076</speed>
  <fix>3d</fix>
</trkpt>
<trkpt lat="-27.2584921" lon="151.3544019">
  <ele>536.42</ele>
  <time>2026-09-01T20:01:39Z</time>
  <course>276.4</course>
  <speed>22.16</speed>
  <fix>3d</fix>
</trkpt>
<trkpt lat="-27.2584854" lon="151.3543341">
  <ele>536.29</ele>
  <time>2026-09-01T20:01:39Z</time>
  <course>276.21</course>
  <speed>22.18349386368162</speed>
  <fix>3d</fix>
</trkpt>
<trkpt lat="-27.2584876" lon="151.3543574">
  <ele>536.33</ele>
  <time>2026-09-01T20:01:39Z</time>
  <course>276.33</course>
  <speed>22.18</speed>
  <fix>3d</fix>
</trkpt>
<trkpt lat="-27.2584832" lon="151.3543118">
  <ele>536.27</ele>
  <time>2026-09-01T20:01:39Z</time>
  <course>276.18</course>
  <speed>22.1912527812199</speed>
  <fix>3d</fix>
</trkpt>
<trkpt lat="-27.2584876" lon="151.3543574">
  <ele>536.33</ele>
  <time>2026-09-01T20:01:39Z</time>
  <course>276.33</course>
  <speed>22.18</speed>
  <fix>3d</fix>
</trkpt>
<trkpt lat="-27.258481" lon="151.3542895">
  <ele>536.24</ele>
  <time>2026-09-01T20:01:39Z</time>
  <course>276.09</course>
  <speed>22.199031510406034</speed>
  <fix>3d</fix>
</trkpt>
<trkpt lat="-27.2584833" lon="151.3543128">
  <ele>536.27</ele>
  <time>2026-09-01T20:01:39Z</time>
  <course>276.25</course>
  <speed>22.19</speed>
  <fix>3d</fix>
</trkpt>
<trkpt lat="-27.2584789" lon="151.3542671">
  <ele>536.21</ele>
  <time>2026-09-01T20:01:39Z</time>
  <course>276.07</course>
  <speed>22.216772942981617</speed>
  <fix>3d</fix>
</trkpt>
<trkpt lat="-27.2584833" lon="151.3543128">
  <ele>536.27</ele>
  <time>2026-09-01T20:01:39Z</time>
  <course>276.25</course>
  <speed>22.19</speed>
  <fix>3d</fix>
</trkpt>
<trkpt lat="-27.2584768" lon="151.3542448">
  <ele>536.18</ele>
  <time>2026-09-01T20:01:39Z</time>
  <course>276.05</course>
  <speed>22.224592234729524</speed>
  <fix>3d</fix>
</trkpt>
<trkpt lat="-27.258479" lon="151.3542683">
  <ele>536.2</ele>
  <time>2026-09-01T20:01:39Z</time>
  <course>276.14</course>
  <speed>22.21</speed>
  <fix>3d</fix>
</trkpt>
<trkpt lat="-27.2584747" lon="151.3542225">
  <ele>536.15</ele>
  <time>2026-09-01T20:01:39Z</time>
  <course>276.06</course>
  <speed>22.25337053122515</speed>
  <fix>3d</fix>
</trkpt>
<trkpt lat="-27.258479" lon="151.3542683">
  <ele>536.2</ele>
  <time>2026-09-01T20:01:39Z</time>
  <course>276.14</course>
  <speed>22.21</speed>
  <fix>3d</fix>
</trkpt>
<trkpt lat="-27.2584726" lon="151.3542">
  <ele>536.11</ele>
  <time>2026-09-01T20:01:39Z</time>
  <course>276.01</course>
  <speed>22.27116745929589</speed>
  <fix>3d</fix>
</trkpt>
<trkpt lat="-27.2584748" lon="151.3542235">
  <ele>536.14</ele>
  <time>2026-09-01T20:01:39Z</time>
  <course>276.04</course>
  <speed>22.25</speed>
  <fix>3d</fix>
</trkpt>
<trkpt lat="-27.2584705" lon="151.3541776">
  <ele>536.07</ele>
  <time>2026-09-01T20:01:39Z</time>
  <course>275.94</course>
  <speed>22.298932709885467</speed>
  <fix>3d</fix>
</trkpt>
<trkpt lat="-27.2584748" lon="151.3542235">
  <ele>536.14</ele>
  <time>2026-09-01T20:01:39Z</time>
  <course>276.04</course>
  <speed>22.25</speed>
  <fix>3d</fix>
</trkpt>
<trkpt lat="-27.2584684" lon="151.3541553">
  <ele>536.03</ele>
  <time>2026-09-01T20:01:39Z</time>
  <course>275.88</course>
  <speed>22.32672165813871</speed>
  <fix>3d</fix>
</trkpt>
<trkpt lat="-27.2584706" lon="151.3541786">
  <ele>536.07</ele>
  <time>2026-09-01T20:01:39Z</time>
  <course>275.93</course>
  <speed>22.3</speed>
  <fix>3d</fix>
</trkpt>
<trkpt lat="-27.2584664" lon="151.3541329">
  <ele>535.99</ele>
  <time>2026-09-01T20:01:39Z</time>
  <course>275.82</course>
  <speed>22.36549574679712</speed>
  <fix>3d</fix>
</trkpt>
<trkpt lat="-27.2584706" lon="151.3541786">
  <ele>536.07</ele>
  <time>2026-09-01T20:01:39Z</time>
  <course>275.93</course>
  <speed>22.3</speed>
  <fix>3d</fix>
</trkpt>
<trkpt lat="-27.2584643" lon="151.3541104">
  <ele>535.95</ele>
  <time>2026-09-01T20:01:39Z</time>
  <course>275.78</course>
  <speed>22.393322665473296</speed>
  <fix>3d</fix>
</trkpt>
<trkpt lat="-27.2584664" lon="151.3541338">
  <ele>535.99</ele>
  <time>2026-09-01T20:01:39Z</time>
  <course>275.83</course>
  <speed>22.36</speed>
  <fix>3d</fix>
</trkpt>
<trkpt lat="-27.2584623" lon="151.3540878">
  <ele>535.9</ele>
  <time>2026-09-01T20:01:39Z</time>
  <course>275.72</course>
  <speed>22.44107394934565</speed>
  <fix>3d</fix>
</trkpt>
<trkpt lat="-27.2584664" lon="151.3541338">
  <ele>535.99</ele>
  <time>2026-09-01T20:01:39Z</time>
  <course>275.83</course>
  <speed>22.36</speed>
  <fix>3d</fix>
</trkpt>
<trkpt lat="-27.2584603" lon="151.3540651">
  <ele>535.85</ele>
  <time>2026-09-01T20:01:39Z</time>
  <course>275.66</course>
  <speed>22.478901218698393</speed>
  <fix>3d</fix>
</trkpt>
<trkpt lat="-27.2584624" lon="151.3540887">
  <ele>535.9</ele>
  <time>2026-09-01T20:01:39Z</time>
  <course>275.71</course>
  <speed>22.44</speed>
  <fix>3d</fix>
</trkpt>
<trkpt lat="-27.2584583" lon="151.3540425">
  <ele>535.79</ele>
  <time>2026-09-01T20:01:39Z</time>
  <course>275.59</course>
  <speed>22.526706372659095</speed>
  <fix>3d</fix>
</trkpt>
<trkpt lat="-27.2584624" lon="151.3540887">
  <ele>535.9</ele>
  <time>2026-09-01T20:01:39Z</time>
  <course>275.71</course>
  <speed>22.44</speed>
  <fix>3d</fix>
</trkpt>
<trkpt lat="-27.2584564" lon="151.3540199">
  <ele>535.74</ele>
  <time>2026-09-01T20:01:39Z</time>
  <course>275.56</course>
  <speed>22.56458508371027</speed>
  <fix>3d</fix>
</trkpt>
<trkpt lat="-27.2584584" lon="151.3540435">
  <ele>535.8</ele>
  <time>2026-09-01T20:01:39Z</time>
  <course>275.59</course>
  <speed>22.52</speed>
  <fix>3d</fix>
</trkpt>
<trkpt lat="-27.2584544" lon="151.3539971">
  <ele>535.69</ele>
  <time>2026-09-01T20:01:39Z</time>
  <course>275.55</course>
  <speed>22.61339647200305</speed>
  <fix>3d</fix>
</trkpt>
<trkpt lat="-27.2584584" lon="151.3540435">
  <ele>535.8</ele>
  <time>2026-09-01T20:01:39Z</time>
  <course>275.59</course>
  <speed>22.52</speed>
  <fix>3d</fix>
</trkpt>
<trkpt lat="-27.2584525" lon="151.3539745">
  <ele>535.64</ele>
  <time>2026-09-01T20:01:39Z</time>
  <course>275.49</course>
  <speed>22.661270926406576</speed>
  <fix>3d</fix>
</trkpt>
<trkpt lat="-27.2584545" lon="151.3539981">
  <ele>535.69</ele>
  <time>2026-09-01T20:01:39Z</time>
  <course>275.48</course>
  <speed>22.62</speed>
  <fix>3d</fix>
</trkpt>
<trkpt lat="-27.2584506" lon="151.3539515">
  <ele>535.58</ele>
  <time>2026-09-01T20:01:39Z</time>
  <course>275.49</course>
  <speed>22.71010788173407</speed>
  <fix>3d</fix>
</trkpt>
<trkpt lat="-27.2584545" lon="151.3539981">
  <ele>535.69</ele>
  <time>2026-09-01T20:01:39Z</time>
  <course>275.48</course>
  <speed>22.62</speed>
  <fix>3d</fix>
</trkpt>
<trkpt lat="-27.2584487" lon="151.3539288">
  <ele>535.53</ele>
  <time>2026-09-01T20:01:39Z</time>
  <course>275.45</course>
  <speed>22.76891082155666</speed>
  <fix>3d</fix>
</trkpt>
<trkpt lat="-27.2584507" lon="151.3539525">
  <ele>535.58</ele>
  <time>2026-09-01T20:01:39Z</time>
  <course>275.39</course>
  <speed>22.71</speed>
  <fix>3d</fix>
</trkpt>
<trkpt lat="-27.2584468" lon="151.3539058">
  <ele>535.48</ele>
  <time>2026-09-01T20:01:39Z</time>
  <course>275.42</course>
  <speed>22.81776720014472</speed>
  <fix>3d</fix>
</trkpt>
<trkpt lat="-27.2584507" lon="151.3539525">
  <ele>535.58</ele>
  <time>2026-09-01T20:01:39Z</time>
  <course>275.39</course>
  <speed>22.71</speed>
  <fix>3d</fix>
</trkpt>
<trkpt lat="-27.2584449" lon="151.3538829">
  <ele>535.43</ele>
  <time>2026-09-01T20:01:39Z</time>
  <course>275.39</course>
  <speed>22.86663289599061</speed>
  <fix>3d</fix>
</trkpt>
<trkpt lat="-27.2584468" lon="151.3539067">
  <ele>535.48</ele>
  <time>2026-09-01T20:01:39Z</time>
  <course>275.32</course>
  <speed>22.81</speed>
  <fix>3d</fix>
</trkpt>
<trkpt lat="-27.258443" lon="151.3538597">
  <ele>535.39</ele>
  <time>2026-09-01T20:01:39Z</time>
  <course>275.36</course>
  <speed>22.916422059300615</speed>
  <fix>3d</fix>
</trkpt>
<trkpt lat="-27.2584468" lon="151.3539067">
  <ele>535.48</ele>
  <time>2026-09-01T20:01:39Z</time>
  <course>275.32</course>
  <speed>22.81</speed>
  <fix>3d</fix>
</trkpt>
<trkpt lat="-27.2584411" lon="151.3538366">
  <ele>535.34</ele>
  <time>2026-09-01T20:01:39Z</time>
  <course>275.32</course>
  <speed>22.965299910952613</speed>
  <fix>3d</fix>
</trkpt>
<trkpt lat="-27.258443" lon="151.3538607">
  <ele>535.38</ele>
  <time>2026-09-01T20:01:39Z</time>
  <course>275.26</course>
  <speed>22.91</speed>
  <fix>3d</fix>
</trkpt>
<trkpt lat="-27.2584392" lon="151.3538136">
  <ele>535.29</ele>
  <time>2026-09-01T20:01:39Z</time>
  <course>275.3</course>
  <speed>23.015092874025083</speed>
  <fix>3d</fix>
</trkpt>
<trkpt lat="-27.258443" lon="151.3538607">
  <ele>535.38</ele>
  <time>2026-09-01T20:01:39Z</time>
  <course>275.26</course>
  <speed>22.91</speed>
  <fix>3d</fix>
</trkpt>
<trkpt lat="-27.2584373" lon="151.3537903">
  <ele>535.25</ele>
  <time>2026-09-01T20:01:39Z</time>
  <course>275.3</course>
  <speed>23.07394201258207</speed>
  <fix>3d</fix>
</trkpt>
<trkpt lat="-27.2584393" lon="151.3538145">
  <ele>535.29</ele>
  <time>2026-09-01T20:01:39Z</time>
  <course>275.22</course>
  <speed>23.01</speed>
  <fix>3d</fix>
</trkpt>
<trkpt lat="-27.2584355" lon="151.3537672">
  <ele>535.16</ele>
  <time>2026-09-01T20:01:39Z</time>
  <course>275.28</course>
  <speed>23.133698364074863</speed>
  <fix>3d</fix>
</trkpt>
<trkpt lat="-27.2584393" lon="151.3538145">
  <ele>535.29</ele>
  <time>2026-09-01T20:01:39Z</time>
  <course>275.22</course>
  <speed>23.01</speed>
  <fix>3d</fix>
</trkpt>
<trkpt lat="-27.2584336" lon="151.3537438">
  <ele>535.07</ele>
  <time>2026-09-01T20:01:39Z</time>
  <course>275.29</course>
  <speed>23.20341569683222</speed>
  <fix>3d</fix>
</trkpt>
<trkpt lat="-27.2584355" lon="151.353768">
  <ele>535.16</ele>
  <time>2026-09-01T20:01:39Z</time>
  <course>275.17</course>
  <speed>23.14</speed>
  <fix>3d</fix>
</trkpt>
<trkpt lat="-27.2584317" lon="151.3537204">
  <ele>534.94</ele>
  <time>2026-09-01T20:01:39Z</time>
  <course>275.26</course>
  <speed>23.29305475887609</speed>
  <fix>3d</fix>
</trkpt>
<trkpt lat="-27.2584355" lon="151.353768">
  <ele>535.16</ele>
  <time>2026-09-01T20:01:39Z</time>
  <course>275.17</course>
  <speed>23.14</speed>
  <fix>3d</fix>
</trkpt>
<trkpt lat="-27.2584298" lon="151.3536969">
  <ele>534.79</ele>
  <time>2026-09-01T20:01:39Z</time>
  <course>275.21</course>
  <speed>23.38180916866785</speed>
  <fix>3d</fix>
</trkpt>
<trkpt lat="-27.2584317" lon="151.3537212">
  <ele>534.94</ele>
  <time>2026-09-01T20:01:39Z</time>
  <course>275.12</course>
  <speed>23.29</speed>
  <fix>3d</fix>
</trkpt>
<trkpt lat="-27.258428" lon="151.3536732">
  <ele>534.66</ele>
  <time>2026-09-01T20:01:39Z</time>
  <course>275.16</course>
  <speed>23.471457134144867</speed>
  <fix>3d</fix>
</trkpt>
<trkpt lat="-27.2584317" lon="151.3537212">
  <ele>534.94</ele>
  <time>2026-09-01T20:01:39Z</time>
  <course>275.12</course>
  <speed>23.29</speed>
  <fix>3d</fix>
</trkpt>
<trkpt lat="-27.2584261" lon="151.3536495">
  <ele>534.54</ele>
  <time>2026-09-01T20:01:39Z</time>
  <course>275.1</course>
  <speed>23.56023132314282</speed>
  <fix>3d</fix>
</trkpt>
<trkpt lat="-27.258428" lon="151.3536741">
  <ele>534.68</ele>
  <time>2026-09-01T20:01:39Z</time>
  <course>275.06</course>
  <speed>23.47</speed>
  <fix>3d</fix>
</trkpt>
<trkpt lat="-27.2584243" lon="151.3536258">
  <ele>534.41</ele>
  <time>2026-09-01T20:01:39Z</time>
  <course>275.06</course>
  <speed>23.659849957258817</speed>
  <fix>3d</fix>
</trkpt>
<trkpt lat="-27.258428" lon="151.3536741">
  <ele>534.68</ele>
  <time>2026-09-01T20:01:39Z</time>
  <course>275.06</course>
  <speed>23.47</speed>
  <fix>3d</fix>
</trkpt>
<trkpt lat="-27.2584224" lon="151.3536019">
  <ele>534.31</ele>
  <time>2026-09-01T20:01:39Z</time>
  <course>275.06</course>
  <speed>23.749509468618502</speed>
  <fix>3d</fix>
</trkpt>
<trkpt lat="-27.2584243" lon="151.3536267">
  <ele>534.43</ele>
  <time>2026-09-01T20:01:39Z</time>
  <course>275.0</course>
  <speed>23.65</speed>
  <fix>3d</fix>
</trkpt>
<trkpt lat="-27.2584205" lon="151.353578">
  <ele>534.22</ele>
  <time>2026-09-01T20:01:39Z</time>
  <course>275.04</course>
  <speed>23.82920896714786</speed>
  <fix>3d</fix>
</trkpt>
<trkpt lat="-27.2584243" lon="151.3536267">
  <ele>534.43</ele>
  <time>2026-09-01T20:01:39Z</time>
  <course>275.0</course>
  <speed>23.65</speed>
  <fix>3d</fix>
</trkpt>
<trkpt lat="-27.2584187" lon="151.353554">
  <ele>534.13</ele>
  <time>2026-09-01T20:01:39Z</time>
  <course>274.97</course>
  <speed>23.918873301223865</speed>
  <fix>3d</fix>
</trkpt>
<trkpt lat="-27.2584206" lon="151.3535789">
  <ele>534.23</ele>
  <time>2026-09-01T20:01:39Z</time>
  <course>274.96</course>
  <speed>23.83</speed>
  <fix>3d</fix>
</trkpt>
<trkpt lat="-27.2584168" lon="151.3535298">
  <ele>534.06</ele>
  <time>2026-09-01T20:01:39Z</time>
  <course>274.97</course>
  <speed>23.99857704114975</speed>
  <fix>3d</fix>
</trkpt>
<trkpt lat="-27.2584206" lon="151.3535789">
  <ele>534.23</ele>
  <time>2026-09-01T20:01:39Z</time>
  <course>274.96</course>
  <speed>23.83</speed>
  <fix>3d</fix>
</trkpt>
<trkpt lat="-27.258415" lon="151.3535056">
  <ele>534.0</ele>
  <time>2026-09-01T20:01:39Z</time>
  <course>274.96</course>
  <speed>24.06831942616684</speed>
  <fix>3d</fix>
</trkpt>
<trkpt lat="-27.2584169" lon="151.3535308">
  <ele>534.07</ele>
  <time>2026-09-01T20:01:39Z</time>
  <course>274.93</course>
  <speed>23.99</speed>
  <fix>3d</fix>
</trkpt>
<trkpt lat="-27.2584131" lon="151.3534814">
  <ele>533.95</ele>
  <time>2026-09-01T20:01:39Z</time>
  <course>274.94</course>
  <speed>24.138063302593274</speed>
  <fix>3d</fix>
</trkpt>
<trkpt lat="-27.2584169" lon="151.3535308">
  <ele>534.07</ele>
  <time>2026-09-01T20:01:39Z</time>
  <course>274.93</course>
  <speed>23.99</speed>
  <fix>3d</fix>
</trkpt>
<trkpt lat="-27.2584113" lon="151.353457">
  <ele>533.91</ele>
  <time>2026-09-01T20:01:39Z</time>
  <course>274.89</course>
  <speed>24.207808657538585</speed>
  <fix>3d</fix>
</trkpt>
<trkpt lat="-27.2584132" lon="151.3534824">
  <ele>533.95</ele>
  <time>2026-09-01T20:01:39Z</time>
  <course>274.9</course>
  <speed>24.14</speed>
  <fix>3d</fix>
</trkpt>
<trkpt lat="-27.2584094" lon="151.3534326">
  <ele>533.88</ele>
  <time>2026-09-01T20:01:39Z</time>
  <course>274.88</course>
  <speed>24.278406043231094</speed>
  <fix>3d</fix>
</trkpt>
<trkpt lat="-27.2584132" lon="151.3534824">
  <ele>533.95</ele>
  <time>2026-09-01T20:01:39Z</time>
  <course>274.9</course>
  <speed>24.14</speed>
  <fix>3d</fix>
</trkpt>
<trkpt lat="-27.2584076" lon="151.3534082">
  <ele>533.85</ele>
  <time>2026-09-01T20:01:39Z</time>
  <course>274.86</course>
  <speed>24.33818810018527</speed>
  <fix>3d</fix>
</trkpt>
<trkpt lat="-27.2584095" lon="151.3534336">
  <ele>533.88</ele>
  <time>2026-09-01T20:01:39Z</time>
  <course>274.89</course>
  <speed>24.27</speed>
  <fix>3d</fix>
</trkpt>
<trkpt lat="-27.2584057" lon="151.3533836">
  <ele>533.84</ele>
  <time>2026-09-01T20:01:39Z</time>
  <course>274.84</course>
  <speed>24.3979712271328</speed>
  <fix>3d</fix>
</trkpt>
<trkpt lat="-27.2584095" lon="151.3534336">
  <ele>533.88</ele>
  <time>2026-09-01T20:01:39Z</time>
  <course>274.89</course>
  <speed>24.27</speed>
  <fix>3d</fix>
</trkpt>
<trkpt lat="-27.2584038" lon="151.3533589">
  <ele>533.83</ele>
  <time>2026-09-01T20:01:39Z</time>
  <course>274.9</course>
  <speed>24.448640043977907</speed>
  <fix>3d</fix>
</trkpt>
<trkpt lat="-27.2584057" lon="151.3533846">
  <ele>533.83</ele>
  <time>2026-09-01T20:01:39Z</time>
  <course>274.88</course>
  <speed>24.39</speed>
  <fix>3d</fix>
</trkpt>
<trkpt lat="-27.258402" lon="151.3533344">
  <ele>533.83</ele>
  <time>2026-09-01T20:01:39Z</time>
  <course>274.95</course>
  <speed>24.498459135219097</speed>
  <fix>3d</fix>
</trkpt>
<trkpt lat="-27.2584057" lon="151.3533846">
  <ele>533.83</ele>
  <time>2026-09-01T20:01:39Z</time>
  <course>274.88</course>
  <speed>24.39</speed>
  <fix>3d</fix>
</trkpt>
<trkpt lat="-27.2584001" lon="151.3533096">
  <ele>533.83</ele>
  <time>2026-09-01T20:01:39Z</time>
  <course>274.99</course>
  <speed>24.54912829409631</speed>
  <fix>3d</fix>
</trkpt>
<trkpt lat="-27.258402" lon="151.3533354">
  <ele>533.83</ele>
  <time>2026-09-01T20:01:39Z</time>
  <course>274.89</course>
  <speed>24.5</speed>
  <fix>3d</fix>
</trkpt>
<trkpt lat="-27.2583982" lon="151.353285">
  <ele>533.84</ele>
  <time>2026-09-01T20:01:39Z</time>
  <course>274.98</course>
  <speed>24.599798779664845</speed>
  <fix>3d</fix>
</trkpt>
<trkpt lat="-27.258402" lon="151.3533354">
  <ele>533.83</ele>
  <time>2026-09-01T20:01:39Z</time>
  <course>274.89</course>
  <speed>24.5</speed>
  <fix>3d</fix>
</trkpt>
<trkpt lat="-27.2583963" lon="151.3532602">
  <ele>533.85</ele>
  <time>2026-09-01T20:01:39Z</time>
  <course>274.98</course>
  <speed>24.650470583743427</speed>
  <fix>3d</fix>
</trkpt>
<trkpt lat="-27.2583983" lon="151.3532859">
  <ele>533.83</ele>
  <time>2026-09-01T20:01:39Z</time>
  <course>274.91</course>
  <speed>24.6</speed>
  <fix>3d</fix>
</trkpt>
<trkpt lat="-27.2583944" lon="151.3532353">
  <ele>533.87</ele>
  <time>2026-09-01T20:01:39Z</time>
  <course>274.95</course>
  <speed>24.6911806117083</speed>
  <fix>3d</fix>
</trkpt>
<trkpt lat="-27.2583983" lon="151.3532859">
  <ele>533.83</ele>
  <time>2026-09-01T20:01:39Z</time>
  <course>274.91</course>
  <speed>24.6</speed>
  <fix>3d</fix>
</trkpt>
<trkpt lat="-27.2583925" lon="151.3532105">
  <ele>533.89</ele>
  <time>2026-09-01T20:01:39Z</time>
  <course>274.92</course>
  <speed>24.721929536344852</speed>
  <fix>3d</fix>
</trkpt>
<trkpt lat="-27.2583944" lon="151.3532362">
  <ele>533.87</ele>
  <time>2026-09-01T20:01:39Z</time>
  <course>274.94</course>
  <speed>24.69</speed>
  <fix>3d</fix>
</trkpt>
<trkpt lat="-27.2583905" lon="151.3531856">
  <ele>533.91</ele>
  <time>2026-09-01T20:01:39Z</time>
  <course>274.97</course>
  <speed>24.762643235325264</speed>
  <fix>3d</fix>
</trkpt>
<trkpt lat="-27.2583944" lon="151.3532362">
  <ele>533.87</ele>
  <time>2026-09-01T20:01:39Z</time>
  <course>274.94</course>
  <speed>24.69</speed>
  <fix>3d</fix>
</trkpt>
<trkpt lat="-27.2583886" lon="151.3531606">
  <ele>533.95</ele>
  <time>2026-09-01T20:01:39Z</time>
  <course>274.93</course>
  <speed>24.79339629820812</speed>
  <fix>3d</fix>
</trkpt>
<trkpt lat="-27.2583906" lon="151.3531864">
  <ele>533.92</ele>
  <time>2026-09-01T20:01:39Z</time>
  <course>274.97</course>
  <speed>24.76</speed>
  <fix>3d</fix>
</trkpt>
<trkpt lat="-27.2583867" lon="151.3531357">
  <ele>533.98</ele>
  <time>2026-09-01T20:01:39Z</time>
  <course>274.96</course>
  <speed>24.814189489080636</speed>
  <fix>3d</fix>
</trkpt>
<trkpt lat="-27.2583906" lon="151.3531864">
  <ele>533.92</ele>
  <time>2026-09-01T20:01:39Z</time>
  <course>274.97</course>
  <speed>24.76</speed>
  <fix>3d</fix>
</trkpt>
<trkpt lat="-27.2583847" lon="151.3531107">
  <ele>534.02</ele>
  <time>2026-09-01T20:01:39Z</time>
  <course>275.01</course>
  <speed>24.784303500401215</speed>
  <fix>3d</fix>
</trkpt>
<trkpt lat="-27.2583867" lon="151.3531365">
  <ele>533.98</ele>
  <time>2026-09-01T20:01:39Z</time>
  <course>275.0</course>
  <speed>24.79</speed>
  <fix>3d</fix>
</trkpt>
<trkpt lat="-27.2583828" lon="151.3530858">
  <ele>534.06</ele>
  <time>2026-09-01T20:01:39Z</time>
  <course>275.03</course>
  <speed>24.695523885919084</speed>
  <fix>3d</fix>
</trkpt>
<trkpt lat="-27.2583867" lon="151.3531365">
  <ele>533.98</ele>
  <time>2026-09-01T20:01:39Z</time>
  <course>275.0</course>
  <speed>24.79</speed>
  <fix>3d</fix>
</trkpt>
<trkpt lat="-27.2583808" lon="151.353061">
  <ele>534.11</ele>
  <time>2026-09-01T20:01:39Z</time>
  <course>275.05</course>
  <speed>24.485458950160606</speed>
  <fix>3d</fix>
</trkpt>
<trkpt lat="-27.2583828" lon="151.3530866">
  <ele>534.06</ele>
  <time>2026-09-01T20:01:39Z</time>
  <course>275.04</course>
  <speed>24.64</speed>
  <fix>3d</fix>
</trkpt>
<trkpt lat="-27.2583789" lon="151.3530365">
  <ele>534.15</ele>
  <time>2026-09-01T20:01:39Z</time>
  <course>275.06</course>
  <speed>24.164943616735382</speed>
  <fix>3d</fix>
</trkpt>
<trkpt lat="-27.2583828" lon="151.3530866">
  <ele>534.06</ele>
  <time>2026-09-01T20:01:39Z</time>
  <course>275.04</course>
  <speed>24.64</speed>
  <fix>3d</fix>
</trkpt>
<trkpt lat="-27.258377" lon="151.3530123">
  <ele>534.19</ele>
  <time>2026-09-01T20:01:39Z</time>
  <course>275.07</course>
  <speed>23.824510488150644</speed>
  <fix>3d</fix>
</trkpt>
<trkpt lat="-27.258379" lon="151.3530375">
  <ele>534.14</ele>
  <time>2026-09-01T20:01:39Z</time>
  <course>275.08</course>
  <speed>24.16</speed>
  <fix>3d</fix>
</trkpt>
<trkpt lat="-27.2583751" lon="151.3529883">
  <ele>534.22</ele>
  <time>2026-09-01T20:01:39Z</time>
  <course>275.08</course>
  <speed>23.493150065497815</speed>
  <fix>3d</fix>
</trkpt>
<trkpt lat="-27.258379" lon="151.3530375">
  <ele>534.14</ele>
  <time>2026-09-01T20:01:39Z</time>
  <course>275.08</course>
  <speed>24.16</speed>
  <fix>3d</fix>
</trkpt>
<trkpt lat="-27.2583732" lon="151.3529649">
  <ele>534.24</ele>
  <time>2026-09-01T20:01:39Z</time>
  <course>275.09</course>
  <speed>23.17264119603115</speed>
  <fix>3d</fix>
</trkpt>
<trkpt lat="-27.2583751" lon="151.3529895">
  <ele>534.21</ele>
  <time>2026-09-01T20:01:39Z</time>
  <course>275.12</course>
  <speed>23.51</speed>
  <fix>3d</fix>
</trkpt>
<trkpt lat="-27.2583714" lon="151.3529418">
  <ele>534.24</ele>
  <time>2026-09-01T20:01:39Z</time>
  <course>275.1</course>
  <speed>22.872055001682728</speed>
  <fix>3d</fix>
</trkpt>
<trkpt lat="-27.2583751" lon="151.3529895">
  <ele>534.21</ele>
  <time>2026-09-01T20:01:39Z</time>
  <course>275.12</course>
  <speed>23.51</speed>
  <fix>3d</fix>
</trkpt>
<trkpt lat="-27.2583695" lon="151.3529189">
  <ele>534.23</ele>
  <time>2026-09-01T20:01:39Z</time>
  <course>275.1</course>
  <speed>22.581430424133895</speed>
  <fix>3d</fix>
</trkpt>
<trkpt lat="-27.2583714" lon="151.3529428">
  <ele>534.23</ele>
  <time>2026-09-01T20:01:39Z</time>
  <course>275.14</course>
  <speed>22.89</speed>
  <fix>3d</fix>
</trkpt>
<trkpt lat="-27.2583677" lon="151.3528963">
  <ele>534.19</ele>
  <time>2026-09-01T20:01:39Z</time>
  <course>275.12</course>
  <speed>22.29986771261211</speed>
  <fix>3d</fix>
</trkpt>
<trkpt lat="-27.2583714" lon="151.3529428">
  <ele>534.23</ele>
  <time>2026-09-01T20:01:39Z</time>
  <course>275.14</course>
  <speed>22.89</speed>
  <fix>3d</fix>
</trkpt>
<trkpt lat="-27.2583659" lon="151.3528739">
  <ele>534.15</ele>
  <time>2026-09-01T20:01:39Z</time>
  <course>275.14</course>
  <speed>22.039122033329733</speed>
  <fix>3d</fix>
</trkpt>
<trkpt lat="-27.2583678" lon="151.3528973">
  <ele>534.19</ele>
  <time>2026-09-01T20:01:39Z</time>
  <course>275.15</course>
  <speed>22.32</speed>
  <fix>3d</fix>
</trkpt>
<trkpt lat="-27.2583641" lon="151.3528519">
  <ele>534.08</ele>
  <time>2026-09-01T20:01:39Z</time>
  <course>275.15</course>
  <speed>21.78743904179654</speed>
  <fix>3d</fix>
</trkpt>
<trkpt lat="-27.2583678" lon="151.3528973">
  <ele>534.19</ele>
  <time>2026-09-01T20:01:39Z</time>
  <course>275.15</course>
  <speed>22.32</speed>
  <fix>3d</fix>
</trkpt>
<trkpt lat="-27.2583624" lon="151.3528302">
  <ele>534.01</ele>
  <time>2026-09-01T20:01:39Z</time>
  <course>275.16</course>
  <speed>21.546612262720096</speed>
  <fix>3d</fix>
</trkpt>
<trkpt lat="-27.2583642" lon="151.3528529">
  <ele>534.08</ele>
  <time>2026-09-01T20:01:39Z</time>
  <course>275.15</course>
  <speed>21.8</speed>
  <fix>3d</fix>
</trkpt>
<trkpt lat="-27.2583607" lon="151.3528086">
  <ele>533.91</ele>
  <time>2026-09-01T20:01:39Z</time>
  <course>275.17</course>
  <speed>21.315745354080395</speed>
  <fix>3d</fix>
</trkpt>
<trkpt lat="-27.2583642" lon="151.3528529">
  <ele>534.08</ele>
  <time>2026-09-01T20:01:39Z</time>
  <course>275.15</course>
  <speed>21.8</speed>
  <fix>3d</fix>
</trkpt>
<trkpt lat="-27.258359" lon="151.3527873">
  <ele>533.82</ele>
  <time>2026-09-01T20:01:39Z</time>
  <course>275.16</course>
  <speed>21.08487846775504</speed>
  <fix>3d</fix>
</trkpt>
<trkpt lat="-27.2583607" lon="151.3528096">
  <ele>533.92</ele>
  <time>2026-09-01T20:01:39Z</time>
  <course>275.15</course>
  <speed>21.33</speed>
  <fix>3d</fix>
</trkpt>
<trkpt lat="-27.2583573" lon="151.3527661">
  <ele>533.71</ele>
  <time>2026-09-01T20:01:39Z</time>
  <course>275.16</course>
  <speed>20.87393111035868</speed>
  <fix>3d</fix>
</trkpt>
<trkpt lat="-27.2583607" lon="151.3528096">
  <ele>533.92</ele>
  <time>2026-09-01T20:01:39Z</time>
  <course>275.15</course>
  <speed>21.33</speed>
  <fix>3d</fix>
</trkpt>
<trkpt lat="-27.2583556" lon="151.3527451">
  <ele>533.6</ele>
  <time>2026-09-01T20:01:39Z</time>
  <course>275.16</course>
  <speed>20.672943670411332</speed>
  <fix>3d</fix>
</trkpt>
<trkpt lat="-27.2583573" lon="151.352767">
  <ele>533.71</ele>
  <time>2026-09-01T20:01:39Z</time>
  <course>275.14</course>
  <speed>20.89</speed>
  <fix>3d</fix>
</trkpt>
<trkpt lat="-27.2583539" lon="151.3527245">
  <ele>533.48</ele>
  <time>2026-09-01T20:01:39Z</time>
  <course>275.15</course>
  <speed>20.47195642824593</speed>
  <fix>3d</fix>
</trkpt>
<trkpt lat="-27.2583573" lon="151.352767">
  <ele>533.71</ele>
  <time>2026-09-01T20:01:39Z</time>
  <course>275.14</course>
  <speed>20.89</speed>
  <fix>3d</fix>
</trkpt>
<trkpt lat="-27.2583523" lon="151.352704">
  <ele>533.35</ele>
  <time>2026-09-01T20:01:39Z</time>
  <course>275.14</course>
  <speed>20.29088958128746</speed>
  <fix>3d</fix>
</trkpt>
<trkpt lat="-27.258354" lon="151.3527253">
  <ele>533.47</ele>
  <time>2026-09-01T20:01:39Z</time>
  <course>275.13</course>
  <speed>20.49</speed>
  <fix>3d</fix>
</trkpt>
<trkpt lat="-27.2583507" lon="151.3526837">
  <ele>533.21</ele>
  <time>2026-09-01T20:01:39Z</time>
  <course>275.14</course>
  <speed>20.109823470135186</speed>
  <fix>3d</fix>
</trkpt>
<trkpt lat="-27.258354" lon="151.3527253">
  <ele>533.47</ele>
  <time>2026-09-01T20:01:39Z</time>
  <course>275.13</course>
  <speed>20.49</speed>
  <fix>3d</fix>
</trkpt>
<trkpt lat="-27.2583491" lon="151.3526636">
  <ele>533.07</ele>
  <time>2026-09-01T20:01:39Z</time>
  <course>275.13</course>
  <speed>19.92875811484499</speed>
  <fix>3d</fix>
</trkpt>
<trkpt lat="-27.2583507" lon="151.3526844">
  <ele>533.2</ele>
  <time>2026-09-01T20:01:39Z</time>
  <course>275.12</course>
  <speed>20.12</speed>
  <fix>3d</fix>
</trkpt>
<trkpt lat="-27.2583475" lon="151.3526436">
  <ele>532.91</ele>
  <time>2026-09-01T20:01:39Z</time>
  <course>275.13</course>
  <speed>19.75854245636555</speed>
  <fix>3d</fix>
</trkpt>
<trkpt lat="-27.2583507" lon="151.3526844">
  <ele>533.2</ele>
  <time>2026-09-01T20:01:39Z</time>
  <course>275.12</course>
  <speed>20.12</speed>
  <fix>3d</fix>
</trkpt>
<trkpt lat="-27.2583459" lon="151.3526238">
  <ele>532.77</ele>
  <time>2026-09-01T20:01:39Z</time>
  <course>275.12</course>
  <speed>19.597397786440933</speed>
  <fix>3d</fix>
</trkpt>
<trkpt lat="-27.2583475" lon="151.3526443">
  <ele>532.92</ele>
  <time>2026-09-01T20:01:39Z</time>
  <course>275.11</course>
  <speed>19.77</speed>
  <fix>3d</fix>
</trkpt>
<trkpt lat="-27.2583444" lon="151.352604">
  <ele>532.62</ele>
  <time>2026-09-01T20:01:39Z</time>
  <course>275.12</course>
  <speed>19.44621557013086</speed>
  <fix>3d</fix>
</trkpt>
<trkpt lat="-27.2583475" lon="151.3526443">
  <ele>532.92</ele>
  <time>2026-09-01T20:01:39Z</time>
  <course>275.11</course>
  <speed>19.77</speed>
  <fix>3d</fix>
</trkpt>
<trkpt lat="-27.2583428" lon="151.3525846">
  <ele>532.46</ele>
  <time>2026-09-01T20:01:39Z</time>
  <course>275.11</course>
  <speed>19.295919257708352</speed>
  <fix>3d</fix>
</trkpt>
<trkpt lat="-27.2583444" lon="151.3526048">
  <ele>532.62</ele>
  <time>2026-09-01T20:01:39Z</time>
  <course>275.1</course>
  <speed>19.45</speed>
  <fix>3d</fix>
</trkpt>
<trkpt lat="-27.2583413" lon="151.3525652">
  <ele>532.29</ele>
  <time>2026-09-01T20:01:39Z</time>
  <course>275.11</course>
  <speed>19.144738180502756</speed>
  <fix>3d</fix>
</trkpt>
<trkpt lat="-27.2583444" lon="151.3526048">
  <ele>532.62</ele>
  <time>2026-09-01T20:01:39Z</time>
  <course>275.1</course>
  <speed>19.45</speed>
  <fix>3d</fix>
</trkpt>
<trkpt lat="-27.2583398" lon="151.352546">
  <ele>532.14</ele>
  <time>2026-09-01T20:01:39Z</time>
  <course>275.1</course>
  <speed>19.004402121613822</speed>
  <fix>3d</fix>
</trkpt>
<trkpt lat="-27.2583413" lon="151.352566">
  <ele>532.31</ele>
  <time>2026-09-01T20:01:39Z</time>
  <course>275.09</course>
  <speed>19.15</speed>
  <fix>3d</fix>
</trkpt>
<trkpt lat="-27.2583383" lon="151.3525269">
  <ele>531.97</ele>
  <time>2026-09-01T20:01:39Z</time>
  <course>275.1</course>
  <speed>18.864066369688164</speed>
  <fix>3d</fix>
</trkpt>
<trkpt lat="-27.2583413" lon="151.352566">
  <ele>532.31</ele>
  <time>2026-09-01T20:01:39Z</time>
  <course>275.09</course>
  <speed>19.15</speed>
  <fix>3d</fix>
</trkpt>
<trkpt lat="-27.2583368" lon="151.3525081">
  <ele>531.81</ele>
  <time>2026-09-01T20:01:39Z</time>
  <course>275.09</course>
  <speed>18.732808118378834</speed>
  <fix>3d</fix>
</trkpt>
<trkpt lat="-27.2583383" lon="151.3525277">
  <ele>531.98</ele>
  <time>2026-09-01T20:01:39Z</time>
  <course>275.08</course>
  <speed>18.87</speed>
  <fix>3d</fix>
</trkpt>
<trkpt lat="-27.2583353" lon="151.3524893">
  <ele>531.63</ele>
  <time>2026-09-01T20:01:39Z</time>
  <course>275.09</course>
  <speed>18.602432636620406</speed>
  <fix>3d</fix>
</trkpt>
<trkpt lat="-27.2583383" lon="151.3525277">
  <ele>531.98</ele>
  <time>2026-09-01T20:01:39Z</time>
  <course>275.08</course>
  <speed>18.87</speed>
  <fix>3d</fix>
</trkpt>
<trkpt lat="-27.2583338" lon="151.3524707">
  <ele>531.46</ele>
  <time>2026-09-01T20:01:39Z</time>
  <course>275.08</course>
  <speed>18.482018288055016</speed>
  <fix>3d</fix>
</trkpt>
<trkpt lat="-27.2583353" lon="151.35249">
  <ele>531.64</ele>
  <time>2026-09-01T20:01:39Z</time>
  <course>275.07</course>
  <speed>18.61</speed>
  <fix>3d</fix>
</trkpt>
<trkpt lat="-27.2583323" lon="151.3524521">
  <ele>531.29</ele>
  <time>2026-09-01T20:01:39Z</time>
  <course>275.08</course>
  <speed>18.36160396043875</speed>
  <fix>3d</fix>
</trkpt>
<trkpt lat="-27.2583353" lon="151.35249">
  <ele>531.64</ele>
  <time>2026-09-01T20:01:39Z</time>
  <course>275.07</course>
  <speed>18.61</speed>
  <fix>3d</fix>
</trkpt>
<trkpt lat="-27.2583309" lon="151.3524335">
  <ele>531.11</ele>
  <time>2026-09-01T20:01:39Z</time>
  <course>275.07</course>
  <speed>18.24030975614175</speed>
  <fix>3d</fix>
</trkpt>
<trkpt lat="-27.2583324" lon="151.3524527">
  <ele>531.29</ele>
  <time>2026-09-01T20:01:39Z</time>
  <course>275.06</course>
  <speed>18.37</speed>
  <fix>3d</fix>
</trkpt>
<trkpt lat="-27.2583294" lon="151.3524152">
  <ele>530.93</ele>
  <time>2026-09-01T20:01:39Z</time>
  <course>275.07</course>
  <speed>18.129856590717974</speed>
  <fix>3d</fix>
</trkpt>
<trkpt lat="-27.2583324" lon="151.3524527">
  <ele>531.29</ele>
  <time>2026-09-01T20:01:39Z</time>
  <course>275.06</course>
  <speed>18.37</speed>
  <fix>3d</fix>
</trkpt>
<trkpt lat="-27.258328" lon="151.3523971">
  <ele>530.75</ele>
  <time>2026-09-01T20:01:39Z</time>
  <course>275.06</course>
  <speed>18.019403430746536</speed>
  <fix>3d</fix>
</trkpt>
<trkpt lat="-27.2583295" lon="151.352416">
  <ele>530.94</ele>
  <time>2026-09-01T20:01:39Z</time>
  <course>275.05</course>
  <speed>18.14</speed>
  <fix>3d</fix>
</trkpt>
<trkpt lat="-27.2583266" lon="151.3523789">
  <ele>530.57</ele>
  <time>2026-09-01T20:01:39Z</time>
  <course>275.06</course>
  <speed>17.918911797316262</speed>
  <fix>3d</fix>
</trkpt>
<trkpt lat="-27.2583295" lon="151.352416">
  <ele>530.94</ele>
  <time>2026-09-01T20:01:39Z</time>
  <course>275.05</course>
  <speed>18.14</speed>
  <fix>3d</fix>
</trkpt>
<trkpt lat="-27.2583252" lon="151.352361">
  <ele>530.38</ele>
  <time>2026-09-01T20:01:39Z</time>
  <course>275.05</course>
  <speed>17.80845866435386</speed>
  <fix>3d</fix>
</trkpt>
<trkpt lat="-27.2583266" lon="151.3523797">
  <ele>530.57</ele>
  <time>2026-09-01T20:01:39Z</time>
  <course>275.04</course>
  <speed>17.92</speed>
  <fix>3d</fix>
</trkpt>
<trkpt lat="-27.2583238" lon="151.352343">
  <ele>530.2</ele>
  <time>2026-09-01T20:01:39Z</time>
  <course>275.05</course>
  <speed>17.71792877285604</speed>
  <fix>3d</fix>
</trkpt>
<trkpt lat="-27.2583266" lon="151.3523797">
  <ele>530.57</ele>
  <time>2026-09-01T20:01:39Z</time>
  <course>275.04</course>
  <speed>17.92</speed>
  <fix>3d</fix>
</trkpt>
<trkpt lat="-27.2583224" lon="151.3523253">
  <ele>530.01</ele>
  <time>2026-09-01T20:01:39Z</time>
  <course>275.04</course>
  <speed>17.617437384591437</speed>
  <fix>3d</fix>
</trkpt>
<trkpt lat="-27.2583238" lon="151.3523437">
  <ele>530.2</ele>
  <time>2026-09-01T20:01:39Z</time>
  <course>275.03</course>
  <speed>17.72</speed>
  <fix>3d</fix>
</trkpt>
<trkpt lat="-27.258321" lon="151.3523076">
  <ele>529.83</ele>
  <time>2026-09-01T20:01:39Z</time>
  <course>275.04</course>
  <speed>17.5269078847354</speed>
  <fix>3d</fix>
</trkpt>
<trkpt lat="-27.2583238" lon="151.3523437">
  <ele>530.2</ele>
  <time>2026-09-01T20:01:39Z</time>
  <course>275.03</course>
  <speed>17.72</speed>
  <fix>3d</fix>
</trkpt>
<trkpt lat="-27.2583196" lon="151.3522901">
  <ele>529.64</ele>
  <time>2026-09-01T20:01:39Z</time>
  <course>275.04</course>
  <speed>17.426416728633573</speed>
  <fix>3d</fix>
</trkpt>
<trkpt lat="-27.258321" lon="151.3523082">
  <ele>529.83</ele>
  <time>2026-09-01T20:01:39Z</time>
  <course>275.02</course>
  <speed>17.53</speed>
  <fix>3d</fix>
</trkpt>
<trkpt lat="-27.2583183" lon="151.3522726">
  <ele>529.45</ele>
  <time>2026-09-01T20:01:39Z</time>
  <course>275.03</course>
  <speed>17.345849647682297</speed>
  <fix>3d</fix>
</trkpt>
<trkpt lat="-27.258321" lon="151.3523082">
  <ele>529.83</ele>
  <time>2026-09-01T20:01:39Z</time>
  <course>275.02</course>
  <speed>17.53</speed>
  <fix>3d</fix>
</trkpt>
<trkpt lat="-27.2583169" lon="151.352255">
  <ele>529.26</ele>
  <time>2026-09-01T20:01:39Z</time>
  <course>275.03</course>
  <speed>17.255320918487723</speed>
  <fix>3d</fix>
</trkpt>
<trkpt lat="-27.2583183" lon="151.3522731">
  <ele>529.45</ele>
  <time>2026-09-01T20:01:39Z</time>
  <course>275.01</course>
  <speed>17.35</speed>
  <fix>3d</fix>
</trkpt>
<trkpt lat="-27.2583156" lon="151.3522377">
  <ele>529.07</ele>
  <time>2026-09-01T20:01:39Z</time>
  <course>275.02</course>
  <speed>17.175625170572395</speed>
  <fix>3d</fix>
</trkpt>
<trkpt lat="-27.2583183" lon="151.3522731">
  <ele>529.45</ele>
  <time>2026-09-01T20:01:39Z</time>
  <course>275.01</course>
  <speed>17.35</speed>
  <fix>3d</fix>
</trkpt>
<trkpt lat="-27.2565235" lon="151.3563364">
  <ele>542.96</ele>
  <time>2026-09-01T20:01:39Z</time>
  <course>250.0</course>
  <speed>0.0</speed>
  <fix>3d</fix>
</trkpt>
<trkpt lat="-27.2574202" lon="151.354296">
  <ele>536.11</ele>
  <time>2026-09-01T20:01:39Z</time>
  <course>275.0</course>
  <speed>8.63</speed>
  <fix>3d</fix>
</trkpt>
<trkpt lat="-27.2565235" lon="151.3563362">
  <ele>542.84</ele>
  <time>2026-09-01T20:01:39Z</time>
  <course>250.0</course>
  <speed>0.07280109889280519</speed>
  <fix>3d</fix>
</trkpt>
<trkpt lat="-27.2574202" lon="151.354296">
  <ele>536.11</ele>
  <time>2026-09-01T20:01:39Z</time>
  <course>275.0</course>
  <speed>8.63</speed>
  <fix>3d</fix>
</trkpt>
<trkpt lat="-27.2565235" lon="151.3563361">
  <ele>542.62</ele>
  <time>2026-09-01T20:01:39Z</time>
  <course>249.98</course>
  <speed>0.21189620100417092</speed>
  <fix>3d</fix>
</trkpt>
<trkpt lat="-27.2565235" lon="151.3563363">
  <ele>542.8</ele>
  <time>2026-09-01T20:01:39Z</time>
  <course>249.42</course>
  <speed>0.11</speed>
  <fix>3d</fix>
</trkpt>
<trkpt lat="-27.2565236" lon="151.3563359">
  <ele>542.31</ele>
  <time>2026-09-01T20:01:39Z</time>
  <course>250.42</course>
  <speed>0.4522167621838005</speed>
  <fix>3d</fix>
</trkpt>
<trkpt lat="-27.2565235" lon="151.3563363">
  <ele>542.8</ele>
  <time>2026-09-01T20:01:39Z</time>
  <course>249.42</course>
  <speed>0.11</speed>
  <fix>3d</fix>
</trkpt>
<trkpt lat="-27.2565237" lon="151.3563352">
  <ele>541.91</ele>
  <time>2026-09-01T20:01:39Z</time>
  <course>253.44</course>
  <speed>0.7679192665899195</speed>
  <fix>3d</fix>
</trkpt>
<trkpt lat="-27.2565236" lon="151.3563357">
  <ele>542.28</ele>
  <time>2026-09-01T20:01:39Z</time>
  <course>258.82</course>
  <speed>0.48</speed>
  <fix>3d</fix>
</trkpt>
<trkpt lat="-27.2565238" lon="151.3563342">
  <ele>541.46</ele>
  <time>2026-09-01T20:01:39Z</time>
  <course>262.91</course>
  <speed>1.1303981599418853</speed>
  <fix>3d</fix>
</trkpt>
<trkpt lat="-27.2565236" lon="151.3563357">
  <ele>542.28</ele>
  <time>2026-09-01T20:01:39Z</time>
  <course>258.82</course>
  <speed>0.48</speed>
  <fix>3d</fix>
</trkpt>
<trkpt lat="-27.2565239" lon="151.3563331">
  <ele>540.93</ele>
  <time>2026-09-01T20:01:39Z</time>
  <course>263.82</course>
  <speed>1.539415473483361</speed>
  <fix>3d</fix>
</trkpt>
<trkpt lat="-27.2565237" lon="151.3563342">
  <ele>541.44</ele>
  <time>2026-09-01T20:01:39Z</time>
  <course>253.57</course>
  <speed>1.13</speed>
  <fix>3d</fix>
</trkpt>
<trkpt lat="-27.2565252" lon="151.3563316">
  <ele>540.35</ele>
  <time>2026-09-01T20:01:39Z</time>
  <course>252.18</course>
  <speed>2.9054775855270334</speed>
  <fix>3d</fix>
</trkpt>
<trkpt lat="-27.2565237" lon="151.3563342">
  <ele>541.44</ele>
  <time>2026-09-01T20:01:39Z</time>
  <course>253.57</course>
  <speed>1.13</speed>
  <fix>3d</fix>
</trkpt>
<trkpt lat="-27.2565282" lon="151.35633">
  <ele>539.79</ele>
  <time>2026-09-01T20:01:39Z</time>
  <course>243.85</course>
  <speed>4.430361159093015</speed>
  <fix>3d</fix>
</trkpt>
<trkpt lat="-27.256526" lon="151.3563316">
  <ele>540.37</ele>
  <time>2026-09-01T20:01:39Z</time>
  <course>211.34</course>
  <speed>2.74</speed>
  <fix>3d</fix>
</trkpt>
<trkpt lat="-27.2565327" lon="151.3563287">
  <ele>539.28</ele>
  <time>2026-09-01T20:01:39Z</time>
  <course>237.8</course>
  <speed>5.7511824871064565</speed>
  <fix>3d</fix>
</trkpt>
<trkpt lat="-27.256526" lon="151.3563316">
  <ele>540.37</ele>
  <time>2026-09-01T20:01:39Z</time>
  <course>211.34</course>
  <speed>2.74</speed>
  <fix>3d</fix>
</trkpt>
<trkpt lat="-27.2565382" lon="151.3563274">
  <ele>538.86</ele>
  <time>2026-09-01T20:01:39Z</time>
  <course>232.97</course>
  <speed>6.803271271969096</speed>
  <fix>3d</fix>
</trkpt>
<trkpt lat="-27.256533" lon="151.3563287">
  <ele>539.33</ele>
  <time>2026-09-01T20:01:39Z</time>
  <course>194.36</course>
  <speed>5.57</speed>
  <fix>3d</fix>
</trkpt>
<trkpt lat="-27.2565446" lon="151.3563259">
  <ele>538.54</ele>
  <time>2026-09-01T20:01:39Z</time>
  <course>229.37</course>
  <speed>7.575519784146828</speed>
  <fix>3d</fix>
</trkpt>
<trkpt lat="-27.256533" lon="151.3563287">
  <ele>539.33</ele>
  <time>2026-09-01T20:01:39Z</time>
  <course>194.36</course>
  <speed>5.57</speed>
  <fix>3d</fix>
</trkpt>
<trkpt lat="-27.2565513" lon="151.3563237">
  <ele>538.35</ele>
  <time>2026-09-01T20:01:39Z</time>
  <course>226.92</course>
  <speed>8.035527362905313</speed>
  <fix>3d</fix>
</trkpt>
<trkpt lat="-27.2565445" lon="151.3563256">
  <ele>538.61</ele>
  <time>2026-09-01T20:01:39Z</time>
  <course>194.91</course>
  <speed>7.38</speed>
  <fix>3d</fix>
</trkpt>
<trkpt lat="-27.2565582" lon="151.3563208">
  <ele>538.25</ele>
  <time>2026-09-01T20:01:39Z</time>
  <course>225.58</course>
  <speed>8.349760475606471</speed>
  <fix>3d</fix>
</trkpt>
<trkpt lat="-27.2565445" lon="151.3563256">
  <ele>538.61</ele>
  <time>2026-09-01T20:01:39Z</time>
  <course>194.91</course>
  <speed>7.38</speed>
  <fix>3d</fix>
</trkpt>
<trkpt lat="-27.2565649" lon="151.3563166">
  <ele>538.21</ele>
  <time>2026-09-01T20:01:39Z</time>
  <course>225.55</course>
  <speed>8.684987046622465</speed>
  <fix>3d</fix>
</trkpt>
<trkpt lat="-27.2565579" lon="151.3563203">
  <ele>538.28</ele>
  <time>2026-09-01T20:01:39Z</time>
  <course>204.84</course>
  <speed>8.29</speed>
  <fix>3d</fix>
</trkpt>
<trkpt lat="-27.2565715" lon="151.3563116">
  <ele>538.18</ele>
  <time>2026-09-01T20:01:39Z</time>
  <course>226.81</course>
  <speed>9.0731747475732</speed>
  <fix>3d</fix>
</trkpt>
<trkpt lat="-27.2565579" lon="151.3563203">
  <ele>538.28</ele>
  <time>2026-09-01T20:01:39Z</time>
  <course>204.84</course>
  <speed>8.29</speed>
  <fix>3d</fix>
</trkpt>
<trkpt lat="-27.2565779" lon="151.3563054">
  <ele>538.16</ele>
  <time>2026-09-01T20:01:39Z</time>
  <course>229.09</course>
  <speed>9.534830884708967</speed>
  <fix>3d</fix>
</trkpt>
<trkpt lat="-27.2565712" lon="151.3563112">
  <ele>538.18</ele>
  <time>2026-09-01T20:01:39Z</time>
  <course>217.62</course>
  <speed>9.05</speed>
  <fix>3d</fix>
</trkpt>
<trkpt lat="-27.256584" lon="151.3562983">
  <ele>538.12</ele>
  <time>2026-09-01T20:01:39Z</time>
  <course>232.18</course>
  <speed>10.03466989990204</speed>
  <fix>3d</fix>
</trkpt>
<trkpt lat="-27.2565712" lon="151.3563112">
  <ele>538.18</ele>
  <time>2026-09-01T20:01:39Z</time>
  <course>217.62</course>
  <speed>9.05</speed>
  <fix>3d</fix>
</trkpt>
<trkpt lat="-27.2565897" lon="151.3562901">
  <ele>538.07</ele>
  <time>2026-09-01T20:01:39Z</time>
  <course>235.81</course>
  <speed>10.54835058196304</speed>
  <fix>3d</fix>
</trkpt>
<trkpt lat="-27.2565836" lon="151.3562979">
  <ele>538.11</ele>
  <time>2026-09-01T20:01:39Z</time>
  <course>228.65</course>
  <speed>9.99</speed>
  <fix>3d</fix>
</trkpt>
<trkpt lat="-27.2565952" lon="151.3562811">
  <ele>538.0</ele>
  <time>2026-09-01T20:01:39Z</time>
  <course>239.5</course>
  <speed>11.080189529064926</speed>
  <fix>3d</fix>
</trkpt>
<trkpt lat="-27.2565836" lon="151.3562979">
  <ele>538.11</ele>
  <time>2026-09-01T20:01:39Z</time>
  <course>228.65</course>
  <speed>9.99</speed>
  <fix>3d</fix>
</trkpt>
<trkpt lat="-27.2566003" lon="151.356271">
  <ele>537.91</ele>
  <time>2026-09-01T20:01:39Z</time>
  <course>243.05</course>
  <speed>11.616204199307104</speed>
  <fix>3d</fix>
</trkpt>
<trkpt lat="-27.2565948" lon="151.3562809">
  <ele>537.99</ele>
  <time>2026-09-01T20:01:39Z</time>
  <course>238.01</course>
  <speed>11.04</speed>
  <fix>3d</fix>
</trkpt>
<trkpt lat="-27.2566049" lon="151.3562603">
  <ele>537.81</ele>
  <time>2026-09-01T20:01:39Z</time>
  <course>246.21</course>
  <speed>12.147695254656332</speed>
  <fix>3d</fix>
</trkpt>
<trkpt lat="-27.2565948" lon="151.3562809">
  <ele>537.99</ele>
  <time>2026-09-01T20:01:39Z</time>
  <course>238.01</course>
  <speed>11.04</speed>
  <fix>3d</fix>
</trkpt>
<trkpt lat="-27.256609" lon="151.3562486">
  <ele>537.7</ele>
  <time>2026-09-01T20:01:39Z</time>
  <course>249.04</course>
  <speed>12.689858155235619</speed>
  <fix>3d</fix>
</trkpt>
<trkpt lat="-27.2566045" lon="151.3562602">
  <ele>537.8</ele>
  <time>2026-09-01T20:01:39Z</time>
  <course>246.11</course>
  <speed>12.11</speed>
  <fix>3d</fix>
</trkpt>
<trkpt lat="-27.2566127" lon="151.3562361">
  <ele>537.59</ele>
  <time>2026-09-01T20:01:39Z</time>
  <course>251.48</course>
  <speed>13.228733877435134</speed>
  <fix>3d</fix>
</trkpt>
<trkpt lat="-27.2566045" lon="151.3562602">
  <ele>537.8</ele>
  <time>2026-09-01T20:01:39Z</time>
  <course>246.11</course>
  <speed>12.11</speed>
  <fix>3d</fix>
</trkpt>
<trkpt lat="-27.256616" lon="151.3562231">
  <ele>537.47</ele>
  <time>2026-09-01T20:01:39Z</time>
  <course>253.57</course>
  <speed>13.759087905817013</speed>
  <fix>3d</fix>
</trkpt>
<trkpt lat="-27.2566124" lon="151.3562363">
  <ele>537.58</ele>
  <time>2026-09-01T20:01:39Z</time>
  <course>252.83</course>
  <speed>13.19</speed>
  <fix>3d</fix>
</trkpt>
<trkpt lat="-27.2566188" lon="151.3562093">
  <ele>537.36</ele>
  <time>2026-09-01T20:01:39Z</time>
  <course>255.49</course>
  <speed>14.283364449596599</speed>
  <fix>3d</fix>
</trkpt>
<trkpt lat="-27.2566124" lon="151.3562363">
  <ele>537.58</ele>
  <time>2026-09-01T20:01:39Z</time>
  <course>252.83</course>
  <speed>13.19</speed>
  <fix>3d</fix>
</trkpt>
<trkpt lat="-27.2566212" lon="151.3561948">
  <ele>537.26</ele>
  <time>2026-09-01T20:01:39Z</time>
  <course>257.22</course>
  <speed>14.800841192310658</speed>
  <fix>3d</fix>
</trkpt>
<trkpt lat="-27.2566185" lon="151.3562094">
  <ele>537.36</ele>
  <time>2026-09-01T20:01:39Z</time>
  <course>258.18</course>
  <speed>14.25</speed>
  <fix>3d</fix>
</trkpt>
<trkpt lat="-27.2566232" lon="151.3561798">
  <ele>537.16</ele>
  <time>2026-09-01T20:01:39Z</time>
  <course>258.81</course>
  <speed>15.312494897958334</speed>
  <fix>3d</fix>
</trkpt>
<trkpt lat="-27.2566185" lon="151.3562094">
  <ele>537.36</ele>
  <time>2026-09-01T20:01:39Z</time>
  <course>258.18</course>
  <speed>14.25</speed>
  <fix>3d</fix>
</trkpt>
<trkpt lat="-27.2566248" lon="151.3561642">
  <ele>537.07</ele>
  <time>2026-09-01T20:01:39Z</time>
  <course>260.28</course>
  <speed>15.805315561544475</speed>
  <fix>3d</fix>
</trkpt>
<trkpt lat="-27.2566229" lon="151.35618">
  <ele>537.16</ele>
  <time>2026-09-01T20:01:39Z</time>
  <course>262.28</course>
  <speed>15.28</speed>
  <fix>3d</fix>
</trkpt>
<trkpt lat="-27.2566261" lon="151.356148">
  <ele>536.99</ele>
  <time>2026-09-01T20:01:39Z</time>
  <course>261.71</course>
  <speed>16.281980837723644</speed>
  <fix>3d</fix>
</trkpt>
<trkpt lat="-27.2566229" lon="151.35618">
  <ele>537.16</ele>
  <time>2026-09-01T20:01:39Z</time>
  <course>262.28</course>
  <speed>15.28</speed>
  <fix>3d</fix>
</trkpt>
<trkpt lat="-27.2566272" lon="151.3561313">
  <ele>536.91</ele>
  <time>2026-09-01T20:01:39Z</time>
  <course>263.07</course>
  <speed>16.759266093716633</speed>
  <fix>3d</fix>
</trkpt>
<trkpt lat="-27.2566259" lon="151.3561482">
  <ele>536.99</ele>
  <time>2026-09-01T20:01:39Z</time>
  <course>265.3</course>
  <speed>16.26</speed>
  <fix>3d</fix>
</trkpt>
<trkpt lat="-27.2566279" lon="151.3561141">
  <ele>536.86</ele>
  <time>2026-09-01T20:01:39Z</time>
  <course>264.23</course>
  <speed>17.21464783258722</speed>
  <fix>3d</fix>
</trkpt>
<trkpt lat="-27.2566259" lon="151.3561482">
  <ele>536.99</ele>
  <time>2026-09-01T20:01:39Z</time>
  <course>265.3</course>
  <speed>16.26</speed>
  <fix>3d</fix>
</trkpt>
<trkpt lat="-27.2566285" lon="151.3560966">
  <ele>536.82</ele>
  <time>2026-09-01T20:01:39Z</time>
  <course>265.27</course>
  <speed>17.655993316718263</speed>
  <fix>3d</fix>
</trkpt>
<trkpt lat="-27.2566277" lon="151.3561145">
  <ele>536.87</ele>
  <time>2026-09-01T20:01:39Z</time>
  <course>267.54</course>
  <speed>17.19</speed>
  <fix>3d</fix>
</trkpt>
<trkpt lat="-27.2566288" lon="151.3560786">
  <ele>536.78</ele>
  <time>2026-09-01T20:01:39Z</time>
  <course>266.26</course>
  <speed>18.0814628832957</speed>
  <fix>3d</fix>
</trkpt>
<trkpt lat="-27.2566277" lon="151.3561145">
  <ele>536.87</ele>
  <time>2026-09-01T20:01:39Z</time>
  <course>267.54</course>
  <speed>17.19</speed>
  <fix>3d</fix>
</trkpt>
<trkpt lat="-27.2566289" lon="151.35606">
  <ele>536.77</ele>
  <time>2026-09-01T20:01:39Z</time>
  <course>267.17</course>
  <speed>18.500043243192703</speed>
  <fix>3d</fix>
</trkpt>
<trkpt lat="-27.2566286" lon="151.3560789">
  <ele>536.79</ele>
  <time>2026-09-01T20:01:39Z</time>
  <course>269.17</course>
  <speed>18.06</speed>
  <fix>3d</fix>
</trkpt>
<trkpt lat="-27.2566289" lon="151.3560412">
  <ele>536.76</ele>
  <time>2026-09-01T20:01:39Z</time>
  <course>267.95</course>
  <speed>18.900320103109365</speed>
  <fix>3d</fix>
</trkpt>
<trkpt lat="-27.2566286" lon="151.3560789">
  <ele>536.79</ele>
  <time>2026-09-01T20:01:39Z</time>
  <course>269.17</course>
  <speed>18.06</speed>
  <fix>3d</fix>
</trkpt>
<trkpt lat="-27.2566287" lon="151.3560219">
  <ele>536.78</ele>
  <time>2026-09-01T20:01:39Z</time>
  <course>268.55</course>
  <speed>19.281620782496475</speed>
  <fix>3d</fix>
</trkpt>
<trkpt lat="-27.2566288" lon="151.3560415">
  <ele>536.77</ele>
  <time>2026-09-01T20:01:39Z</time>
  <course>270.3</course>
  <speed>18.88</speed>
  <fix>3d</fix>
</trkpt>
<trkpt lat="-27.2566285" lon="151.3560022">
  <ele>536.81</ele>
  <time>2026-09-01T20:01:39Z</time>
  <course>268.98</course>
  <speed>19.653116801159047</speed>
  <fix>3d</fix>
</trkpt>
<trkpt lat="-27.2566288" lon="151.3560415">
  <ele>536.77</ele>
  <time>2026-09-01T20:01:39Z</time>
  <course>270.3</course>
  <speed>18.88</speed>
  <fix>3d</fix>
</trkpt>
<trkpt lat="-27.2566281" lon="151.3559814">
  <ele>536.85</ele>
  <time>2026-09-01T20:01:39Z</time>
  <course>269.5</course>
  <speed>20.024834581089554</speed>
  <fix>3d</fix>
</trkpt>
<trkpt lat="-27.2566284" lon="151.3560025">
  <ele>536.81</ele>
  <time>2026-09-01T20:01:39Z</time>
  <course>271.0</course>
  <speed>19.64</speed>
  <fix>3d</fix>
</trkpt>
<trkpt lat="-27.2566277" lon="151.3559611">
  <ele>536.91</ele>
  <time>2026-09-01T20:01:39Z</time>
  <course>270.03</course>
  <speed>20.36663938896155</speed>
  <fix>3d</fix>
</trkpt>
<trkpt lat="-27.2566284" lon="151.3560025">
  <ele>536.81</ele>
  <time>2026-09-01T20:01:39Z</time>
  <course>271.0</course>
  <speed>19.64</speed>
  <fix>3d</fix>
</trkpt>
<trkpt lat="-27.2566272" lon="151.3559403">
  <ele>536.98</ele>
  <time>2026-09-01T20:01:39Z</time>
  <course>270.45</course>
  <speed>20.68841463234919</speed>
  <fix>3d</fix>
</trkpt>
<trkpt lat="-27.2566277" lon="151.3559621">
  <ele>536.91</ele>
  <time>2026-09-01T20:01:39Z</time>
  <course>271.46</course>
  <speed>20.34</speed>
  <fix>3d</fix>
</trkpt>
<trkpt lat="-27.2566266" lon="151.3559192">
  <ele>537.06</ele>
  <time>2026-09-01T20:01:39Z</time>
  <course>270.79</course>
  <speed>21.00037380619688</speed>
  <fix>3d</fix>
</trkpt>
<trkpt lat="-27.2566277" lon="151.3559621">
  <ele>536.91</ele>
  <time>2026-09-01T20:01:39Z</time>
  <course>271.46</course>
  <speed>20.34</speed>
  <fix>3d</fix>
</trkpt>
<trkpt lat="-27.256626" lon="151.355898">
  <ele>537.14</ele>
  <time>2026-09-01T20:01:39Z</time>
  <course>271.1</course>
  <speed>21.28184672437991</speed>
  <fix>3d</fix>
</trkpt>
<trkpt lat="-27.2566266" lon="151.3559204">
  <ele>537.05</ele>
  <time>2026-09-01T20:01:39Z</time>
  <course>271.79</course>
  <speed>20.97</speed>
  <fix>3d</fix>
</trkpt>
<trkpt lat="-27.2566253" lon="151.3558763">
  <ele>537.22</ele>
  <time>2026-09-01T20:01:39Z</time>
  <course>271.23</course>
  <speed>21.53341589251459</speed>
  <fix>3d</fix>
</trkpt>
<trkpt lat="-27.2566266" lon="151.3559204">
  <ele>537.05</ele>
  <time>2026-09-01T20:01:39Z</time>
  <course>271.79</course>
  <speed>20.97</speed>
  <fix>3d</fix>
</trkpt>
<trkpt lat="-27.2566247" lon="151.355855">
  <ele>537.29</ele>
  <time>2026-09-01T20:01:39Z</time>
  <course>271.4</course>
  <speed>21.754714431589306</speed>
  <fix>3d</fix>
</trkpt>
<trkpt lat="-27.2566253" lon="151.3558775">
  <ele>537.2</ele>
  <time>2026-09-01T20:01:39Z</time>
  <course>272.02</course>
  <speed>21.51</speed>
  <fix>3d</fix>
</trkpt>
<trkpt lat="-27.2566239" lon="151.355833">
  <ele>537.36</ele>
  <time>2026-09-01T20:01:39Z</time>
  <course>271.53</course>
  <speed>21.946081654819388</speed>
  <fix>3d</fix>
</trkpt>
<trkpt lat="-27.2566253" lon="151.3558775">
  <ele>537.2</ele>
  <time>2026-09-01T20:01:39Z</time>
  <course>272.02</course>
  <speed>21.51</speed>
  <fix>3d</fix>
</trkpt>
<trkpt lat="-27.2566231" lon="151.3558107">
  <ele>537.41</ele>
  <time>2026-09-01T20:01:39Z</time>
  <course>271.61</course>
  <speed>22.107125548112307</speed>
  <fix>3d</fix>
</trkpt>
<trkpt lat="-27.2566239" lon="151.3558336">
  <ele>537.35</ele>
  <time>2026-09-01T20:01:39Z</time>
  <course>272.19</course>
  <speed>21.92</speed>
  <fix>3d</fix>
</trkpt>
<trkpt lat="-27.2566223" lon="151.3557884">
  <ele>537.44</ele>
  <time>2026-09-01T20:01:39Z</time>
  <course>271.71</course>
  <speed>22.22782490483493</speed>
  <fix>3d</fix>
</trkpt>
<trkpt lat="-27.2566239" lon="151.3558336">
  <ele>537.35</ele>
  <time>2026-09-01T20:01:39Z</time>
  <course>272.19</course>
  <speed>21.92</speed>
  <fix>3d</fix>
</trkpt>
<trkpt lat="-27.2566215" lon="151.3557659">
  <ele>537.46</ele>
  <time>2026-09-01T20:01:39Z</time>
  <course>271.78</course>
  <speed>22.338952526920323</speed>
  <fix>3d</fix>
</trkpt>
<trkpt lat="-27.2566223" lon="151.355789">
  <ele>537.43</ele>
  <time>2026-09-01T20:01:39Z</time>
  <course>272.31</course>
  <speed>22.21</speed>
  <fix>3d</fix>
</trkpt>
<trkpt lat="-27.2566207" lon="151.3557433">
  <ele>537.47</ele>
  <time>2026-09-01T20:01:39Z</time>
  <course>271.88</course>
  <speed>22.40930610259943</speed>
  <fix>3d</fix>
</trkpt>
<trkpt lat="-27.2566223" lon="151.355789">
  <ele>537.43</ele>
  <time>2026-09-01T20:01:39Z</time>
  <course>272.31</course>
  <speed>22.21</speed>
  <fix>3d</fix>
</trkpt>
<trkpt lat="-27.2566198" lon="151.3557205">
  <ele>537.45</ele>
  <time>2026-09-01T20:01:39Z</time>
  <course>271.88</course>
  <speed>22.459679427810183</speed>
  <fix>3d</fix>
</trkpt>
<trkpt lat="-27.2566207" lon="151.3557439">
  <ele>537.45</ele>
  <time>2026-09-01T20:01:39Z</time>
  <course>272.38</course>
  <speed>22.39</speed>
  <fix>3d</fix>
</trkpt>
<trkpt lat="-27.256619" lon="151.3556979">
  <ele>537.41</ele>
  <time>2026-09-01T20:01:39Z</time>
  <course>271.88</course>
  <speed>22.51005553080667</speed>
  <fix>3d</fix>
</trkpt>
<trkpt lat="-27.2566207" lon="151.3557439">
  <ele>537.45</ele>
  <time>2026-09-01T20:01:39Z</time>
  <course>272.38</course>
  <speed>22.39</speed>
  <fix>3d</fix>
</trkpt>
<trkpt lat="-27.2566181" lon="151.3556751">
  <ele>537.38</ele>
  <time>2026-09-01T20:01:39Z</time>
  <course>271.96</course>
  <speed>22.570002215329975</speed>
  <fix>3d</fix>
</trkpt>
<trkpt lat="-27.256619" lon="151.3556986">
  <ele>537.41</ele>
  <time>2026-09-01T20:01:39Z</time>
  <course>272.41</course>
  <speed>22.51</speed>
  <fix>3d</fix>
</trkpt>
<trkpt lat="-27.2566173" lon="151.3556524">
  <ele>537.33</ele>
  <time>2026-09-01T20:01:39Z</time>
  <course>272.08</course>
  <speed>22.629949182444047</speed>
  <fix>3d</fix>
</trkpt>
<trkpt lat="-27.256619" lon="151.3556986">
  <ele>537.41</ele>
  <time>2026-09-01T20:01:39Z</time>
  <course>272.41</course>
  <speed>22.51</speed>
  <fix>3d</fix>
</trkpt>
<trkpt lat="-27.2566164" lon="151.3556295">
  <ele>537.26</ele>
  <time>2026-09-01T20:01:39Z</time>
  <course>272.19</course>
  <speed>22.700308367949543</speed>
  <fix>3d</fix>
</trkpt>
<trkpt lat="-27.2566173" lon="151.355653">
  <ele>537.32</ele>
  <time>2026-09-01T20:01:39Z</time>
  <course>272.42</course>
  <speed>22.63</speed>
  <fix>3d</fix>
</trkpt>
<trkpt lat="-27.2566155" lon="151.3556065">
  <ele>537.18</ele>
  <time>2026-09-01T20:01:39Z</time>
  <course>272.33</course>
  <speed>22.75068790168772</speed>
  <fix>3d</fix>
</trkpt>
<trkpt lat="-27.2566173" lon="151.355653">
  <ele>537.32</ele>
  <time>2026-09-01T20:01:39Z</time>
  <course>272.42</course>
  <speed>22.63</speed>
  <fix>3d</fix>
</trkpt>
<trkpt lat="-27.2566147" lon="151.3555836">
  <ele>537.1</ele>
  <time>2026-09-01T20:01:39Z</time>
  <course>272.35</course>
  <speed>22.78108864826262</speed>
  <fix>3d</fix>
</trkpt>
<trkpt lat="-27.2566155" lon="151.3556071">
  <ele>537.18</ele>
  <time>2026-09-01T20:01:39Z</time>
  <course>272.45</course>
  <speed>22.74</speed>
  <fix>3d</fix>
</trkpt>
<trkpt lat="-27.2566138" lon="151.3555606">
  <ele>537.01</ele>
  <time>2026-09-01T20:01:39Z</time>
  <course>272.26</course>
  <speed>22.791079395237077</speed>
  <fix>3d</fix>
</trkpt>
<trkpt lat="-27.2566155" lon="151.3556071">
  <ele>537.18</ele>
  <time>2026-09-01T20:01:39Z</time>
  <course>272.45</course>
  <speed>22.74</speed>
  <fix>3d</fix>
</trkpt>
<trkpt lat="-27.2566129" lon="151.3555375">
  <ele>536.91</ele>
  <time>2026-09-01T20:01:39Z</time>
  <course>272.17</course>
  <speed>22.81106091351299</speed>
  <fix>3d</fix>
</trkpt>
<trkpt lat="-27.2566138" lon="151.3555611">
  <ele>537.01</ele>
  <time>2026-09-01T20:01:39Z</time>
  <course>272.46</course>
  <speed>22.79</speed>
  <fix>3d</fix>
</trkpt>
<trkpt lat="-27.256612" lon="151.3555137">
  <ele>536.83</ele>
  <time>2026-09-01T20:01:39Z</time>
  <course>272.19</course>
  <speed>22.830615410014683</speed>
  <fix>3d</fix>
</trkpt>
<trkpt lat="-27.2566138" lon="151.3555611">
  <ele>537.01</ele>
  <time>2026-09-01T20:01:39Z</time>
  <course>272.46</course>
  <speed>22.79</speed>
  <fix>3d</fix>
</trkpt>
<trkpt lat="-27.2566111" lon="151.3554907">
  <ele>536.74</ele>
  <time>2026-09-01T20:01:39Z</time>
  <course>272.22</course>
  <speed>22.84018388717569</speed>
  <fix>3d</fix>
</trkpt>
<trkpt lat="-27.256612" lon="151.355515">
  <ele>536.83</ele>
  <time>2026-09-01T20:01:39Z</time>
  <course>272.43</course>
  <speed>22.83</speed>
  <fix>3d</fix>
</trkpt>
<trkpt lat="-27.2566103" lon="151.3554676">
  <ele>536.64</ele>
  <time>2026-09-01T20:01:40Z</time>
  <course>272.24</course>
  <speed>22.859748467557555</speed>
  <fix>3d</fix>
</trkpt>
<trkpt lat="-27.256612" lon="151.355515">
  <ele>536.83</ele>
  <time>2026-09-01T20:01:40Z</time>
  <course>272.43</course>
  <speed>22.83</speed>
  <fix>3d</fix>
</trkpt>
<trkpt lat="-27.2566094" lon="151.3554445">
  <ele>536.54</ele>
  <time>2026-09-01T20:01:40Z</time>
  <course>272.26</course>
  <speed>22.879318171658873</speed>
  <fix>3d</fix>
</trkpt>
<trkpt lat="-27.2566103" lon="151.3554689">
  <ele>536.65</ele>
  <time>2026-09-01T20:01:40Z</time>
  <course>272.38</course>
  <speed>22.86</speed>
  <fix>3d</fix>
</trkpt>
<trkpt lat="-27.2566086" lon="151.3554213">
  <ele>536.46</ele>
  <time>2026-09-01T20:01:40Z</time>
  <course>272.26</course>
  <speed>22.89889298634325</speed>
  <fix>3d</fix>
</trkpt>
<trkpt lat="-27.2566103" lon="151.3554689">
  <ele>536.65</ele>
  <time>2026-09-01T20:01:40Z</time>
  <course>272.38</course>
  <speed>22.86</speed>
  <fix>3d</fix>
</trkpt>
<trkpt lat="-27.2566077" lon="151.3553983">
  <ele>536.37</ele>
  <time>2026-09-01T20:01:40Z</time>
  <course>272.25</course>
  <speed>22.908480962298658</speed>
  <fix>3d</fix>
</trkpt>
<trkpt lat="-27.2566086" lon="151.3554227">
  <ele>536.46</ele>
  <time>2026-09-01T20:01:40Z</time>
  <course>272.33</course>
  <speed>22.89</speed>
  <fix>3d</fix>
</trkpt>
<trkpt lat="-27.2566069" lon="151.3553752">
  <ele>536.27</ele>
  <time>2026-09-01T20:01:40Z</time>
  <course>272.23</course>
  <speed>22.928065771015227</speed>
  <fix>3d</fix>
</trkpt>
<trkpt lat="-27.2566086" lon="151.3554227">
  <ele>536.46</ele>
  <time>2026-09-01T20:01:40Z</time>
  <course>272.33</course>
  <speed>22.89</speed>
  <fix>3d</fix>
</trkpt>
<trkpt lat="-27.2566061" lon="151.3553519">
  <ele>536.18</ele>
  <time>2026-09-01T20:01:40Z</time>
  <course>272.19</course>
  <speed>22.937273159641272</speed>
  <fix>3d</fix>
</trkpt>
<trkpt lat="-27.2566069" lon="151.3553765">
  <ele>536.27</ele>
  <time>2026-09-01T20:01:40Z</time>
  <course>272.27</course>
  <speed>22.92</speed>
  <fix>3d</fix>
</trkpt>
<trkpt lat="-27.2566053" lon="151.3553289">
  <ele>536.08</ele>
  <time>2026-09-01T20:01:40Z</time>
  <course>272.17</course>
  <speed>22.95687260930809</speed>
  <fix>3d</fix>
</trkpt>
<trkpt lat="-27.2566069" lon="151.3553765">
  <ele>536.27</ele>
  <time>2026-09-01T20:01:40Z</time>
  <course>272.27</course>
  <speed>22.92</speed>
  <fix>3d</fix>
</trkpt>
<trkpt lat="-27.2566045" lon="151.3553057">
  <ele>535.99</ele>
  <time>2026-09-01T20:01:40Z</time>
  <course>272.15</course>
  <speed>22.976477101592405</speed>
  <fix>3d</fix>
</trkpt>
<trkpt lat="-27.2566053" lon="151.3553301">
  <ele>536.08</ele>
  <time>2026-09-01T20:01:40Z</time>
  <course>272.2</course>
  <speed>22.96</speed>
  <fix>3d</fix>
</trkpt>
<trkpt lat="-27.2566037" lon="151.3552824">
  <ele>535.89</ele>
  <time>2026-09-01T20:01:40Z</time>
  <course>272.1</course>
  <speed>22.98572165497529</speed>
  <fix>3d</fix>
</trkpt>
<trkpt lat="-27.2566053" lon="151.3553301">
  <ele>536.08</ele>
  <time>2026-09-01T20:01:40Z</time>
  <course>272.2</course>
  <speed>22.96</speed>
  <fix>3d</fix>
</trkpt>
<trkpt lat="-27.256603" lon="151.3552593">
  <ele>535.79</ele>
  <time>2026-09-01T20:01:40Z</time>
  <course>272.12</course>
  <speed>23.005340684284597</speed>
  <fix>3d</fix>
</trkpt>
<trkpt lat="-27.2566038" lon="151.3552838">
  <ele>535.89</ele>
  <time>2026-09-01T20:01:40Z</time>
  <course>272.13</course>
  <speed>22.99</speed>
  <fix>3d</fix>
</trkpt>
<trkpt lat="-27.2566022" lon="151.355236">
  <ele>535.68</ele>
  <time>2026-09-01T20:01:40Z</time>
  <course>272.09</course>
  <speed>23.014612749294738</speed>
  <fix>3d</fix>
</trkpt>
<trkpt lat="-27.2566038" lon="151.3552838">
  <ele>535.89</ele>
  <time>2026-09-01T20:01:40Z</time>
  <course>272.13</course>
  <speed>22.99</speed>
  <fix>3d</fix>
</trkpt>
<trkpt lat="-27.2566015" lon="151.3552134">
  <ele>535.58</ele>
  <time>2026-09-01T20:01:40Z</time>
  <course>272.06</course>
  <speed>23.03424624336555</speed>
  <fix>3d</fix>
</trkpt>
<trkpt lat="-27.2566022" lon="151.3552373">
  <ele>535.68</ele>
  <time>2026-09-01T20:01:40Z</time>
  <course>272.06</course>
  <speed>23.02</speed>
  <fix>3d</fix>
</trkpt>
<trkpt lat="-27.2566008" lon="151.35519">
  <ele>535.47</ele>
  <time>2026-09-01T20:01:40Z</time>
  <course>271.99</course>
  <speed>23.053539858338457</speed>
  <fix>3d</fix>
</trkpt>
<trkpt lat="-27.2566022" lon="151.3552373">
  <ele>535.68</ele>
  <time>2026-09-01T20:01:40Z</time>
  <course>272.06</course>
  <speed>23.02</speed>
  <fix>3d</fix>
</trkpt>
<trkpt lat="-27.2566001" lon="151.3551668">
  <ele>535.37</ele>
  <time>2026-09-01T20:01:40Z</time>
  <course>271.93</course>
  <speed>23.083182189637547</speed>
  <fix>3d</fix>
</trkpt>
<trkpt lat="-27.2566008" lon="151.3551908">
  <ele>535.47</ele>
  <time>2026-09-01T20:01:40Z</time>
  <course>271.98</course>
  <speed>23.06</speed>
  <fix>3d</fix>
</trkpt>
<trkpt lat="-27.2565994" lon="151.3551435">
  <ele>535.25</ele>
  <time>2026-09-01T20:01:40Z</time>
  <course>271.93</course>
  <speed>23.122493377661502</speed>
  <fix>3d</fix>
</trkpt>
<trkpt lat="-27.2566008" lon="151.3551908">
  <ele>535.47</ele>
  <time>2026-09-01T20:01:40Z</time>
  <course>271.98</course>
  <speed>23.06</speed>
  <fix>3d</fix>
</trkpt>
<trkpt lat="-27.2565987" lon="151.3551201">
  <ele>535.14</ele>
  <time>2026-09-01T20:01:40Z</time>
  <course>271.89</course>
  <speed>23.152151087965887</speed>
  <fix>3d</fix>
</trkpt>
<trkpt lat="-27.2565994" lon="151.3551441">
  <ele>535.25</ele>
  <time>2026-09-01T20:01:40Z</time>
  <course>271.9</course>
  <speed>23.12</speed>
  <fix>3d</fix>
</trkpt>
<trkpt lat="-27.256598" lon="151.3550967">
  <ele>535.03</ele>
  <time>2026-09-01T20:01:40Z</time>
  <course>271.83</course>
  <speed>23.1914919744289</speed>
  <fix>3d</fix>
</trkpt>
<trkpt lat="-27.2565994" lon="151.3551441">
  <ele>535.25</ele>
  <time>2026-09-01T20:01:40Z</time>
  <course>271.9</course>
  <speed>23.12</speed>
  <fix>3d</fix>
</trkpt>
<trkpt lat="-27.2565974" lon="151.3550732">
  <ele>534.91</ele>
  <time>2026-09-01T20:01:40Z</time>
  <course>271.76</course>
  <speed>23.231160108784923</speed>
  <fix>3d</fix>
</trkpt>
<trkpt lat="-27.256598" lon="151.3550972">
  <ele>535.03</ele>
  <time>2026-09-01T20:01:40Z</time>
  <course>271.82</course>
  <speed>23.2</speed>
  <fix>3d</fix>
</trkpt>
<trkpt lat="-27.2565967" lon="151.3550498">
  <ele>534.79</ele>
  <time>2026-09-01T20:01:40Z</time>
  <course>271.74</course>
  <speed>23.280526196802338</speed>
  <fix>3d</fix>
</trkpt>
<trkpt lat="-27.256598" lon="151.3550972">
  <ele>535.03</ele>
  <time>2026-09-01T20:01:40Z</time>
  <course>271.82</course>
  <speed>23.2</speed>
  <fix>3d</fix>
</trkpt>
<trkpt lat="-27.2565961" lon="151.3550254">
  <ele>534.68</ele>
  <time>2026-09-01T20:01:40Z</time>
  <course>271.72</course>
  <speed>23.330205742770463</speed>
  <fix>3d</fix>
</trkpt>
<trkpt lat="-27.2565967" lon="151.3550502">
  <ele>534.8</ele>
  <time>2026-09-01T20:01:40Z</time>
  <course>271.74</course>
  <speed>23.28</speed>
  <fix>3d</fix>
</trkpt>
<trkpt lat="-27.2565955" lon="151.3550018">
  <ele>534.56</ele>
  <time>2026-09-01T20:01:40Z</time>
  <course>271.69</course>
  <speed>23.379602220739343</speed>
  <fix>3d</fix>
</trkpt>
<trkpt lat="-27.2565967" lon="151.3550502">
  <ele>534.8</ele>
  <time>2026-09-01T20:01:40Z</time>
  <course>271.74</course>
  <speed>23.28</speed>
  <fix>3d</fix>
</trkpt>
<trkpt lat="-27.2565949" lon="151.3549782">
  <ele>534.45</ele>
  <time>2026-09-01T20:01:40Z</time>
  <course>271.66</course>
  <speed>23.429297898144537</speed>
  <fix>3d</fix>
</trkpt>
<trkpt lat="-27.2565955" lon="151.3550032">
  <ele>534.57</ele>
  <time>2026-09-01T20:01:40Z</time>
  <course>271.66</course>
  <speed>23.38</speed>
  <fix>3d</fix>
</trkpt>
<trkpt lat="-27.2565943" lon="151.3549545">
  <ele>534.34</ele>
  <time>2026-09-01T20:01:40Z</time>
  <course>271.61</course>
  <speed>23.48899529566984</speed>
  <fix>3d</fix>
</trkpt>
<trkpt lat="-27.2565955" lon="151.3550032">
  <ele>534.57</ele>
  <time>2026-09-01T20:01:40Z</time>
  <course>271.66</course>
  <speed>23.38</speed>
  <fix>3d</fix>
</trkpt>
<trkpt lat="-27.2565937" lon="151.3549308">
  <ele>534.23</ele>
  <time>2026-09-01T20:01:40Z</time>
  <course>271.55</course>
  <speed>23.538702173229517</speed>
  <fix>3d</fix>
</trkpt>
<trkpt lat="-27.2565943" lon="151.3549559">
  <ele>534.34</ele>
  <time>2026-09-01T20:01:40Z</time>
  <course>271.59</course>
  <speed>23.48</speed>
  <fix>3d</fix>
</trkpt>
<trkpt lat="-27.2565931" lon="151.354907">
  <ele>534.12</ele>
  <time>2026-09-01T20:01:40Z</time>
  <course>271.52</course>
  <speed>23.598146113625113</speed>
  <fix>3d</fix>
</trkpt>
<trkpt lat="-27.2565943" lon="151.3549559">
  <ele>534.34</ele>
  <time>2026-09-01T20:01:40Z</time>
  <course>271.59</course>
  <speed>23.48</speed>
  <fix>3d</fix>
</trkpt>
<trkpt lat="-27.2565926" lon="151.3548831">
  <ele>534.02</ele>
  <time>2026-09-01T20:01:40Z</time>
  <course>271.54</course>
  <speed>23.647868825752568</speed>
  <fix>3d</fix>
</trkpt>
<trkpt lat="-27.2565931" lon="151.3549083">
  <ele>534.12</ele>
  <time>2026-09-01T20:01:40Z</time>
  <course>271.52</course>
  <speed>23.59</speed>
  <fix>3d</fix>
</trkpt>
<trkpt lat="-27.256592" lon="151.3548592">
  <ele>533.91</ele>
  <time>2026-09-01T20:01:40Z</time>
  <course>271.55</course>
  <speed>23.70759372015642</speed>
  <fix>3d</fix>
</trkpt>
<trkpt lat="-27.2565931" lon="151.3549083">
  <ele>534.12</ele>
  <time>2026-09-01T20:01:40Z</time>
  <course>271.52</course>
  <speed>23.59</speed>
  <fix>3d</fix>
</trkpt>
<trkpt lat="-27.2565915" lon="151.3548352">
  <ele>533.81</ele>
  <time>2026-09-01T20:01:40Z</time>
  <course>271.52</course>
  <speed>23.75757773848167</speed>
  <fix>3d</fix>
</trkpt>
<trkpt lat="-27.256592" lon="151.3548605">
  <ele>533.92</ele>
  <time>2026-09-01T20:01:40Z</time>
  <course>271.47</course>
  <speed>23.7</speed>
  <fix>3d</fix>
</trkpt>
<trkpt lat="-27.2565909" lon="151.3548112">
  <ele>533.69</ele>
  <time>2026-09-01T20:01:40Z</time>
  <course>271.49</course>
  <speed>23.817308832023823</speed>
  <fix>3d</fix>
</trkpt>
<trkpt lat="-27.256592" lon="151.3548605">
  <ele>533.92</ele>
  <time>2026-09-01T20:01:40Z</time>
  <course>271.47</course>
  <speed>23.7</speed>
  <fix>3d</fix>
</trkpt>
<trkpt lat="-27.2565904" lon="151.354787">
  <ele>533.53</ele>
  <time>2026-09-01T20:01:40Z</time>
  <course>271.45</course>
  <speed>23.887287414020033</speed>
  <fix>3d</fix>
</trkpt>
<trkpt lat="-27.2565909" lon="151.3548125">
  <ele>533.68</ele>
  <time>2026-09-01T20:01:40Z</time>
  <course>271.43</course>
  <speed>23.82</speed>
  <fix>3d</fix>
</trkpt>
<trkpt lat="-27.2565899" lon="151.3547629">
  <ele>533.36</ele>
  <time>2026-09-01T20:01:40Z</time>
  <course>271.44</course>
  <speed>23.976776263709848</speed>
  <fix>3d</fix>
</trkpt>
<trkpt lat="-27.2565909" lon="151.3548125">
  <ele>533.68</ele>
  <time>2026-09-01T20:01:40Z</time>
  <course>271.43</course>
  <speed>23.82</speed>
  <fix>3d</fix>
</trkpt>
<trkpt lat="-27.2565894" lon="151.3547386">
  <ele>533.18</ele>
  <time>2026-09-01T20:01:40Z</time>
  <course>271.45</course>
  <speed>24.066516158347472</speed>
  <fix>3d</fix>
</trkpt>
<trkpt lat="-27.2565899" lon="151.3547643">
  <ele>533.36</ele>
  <time>2026-09-01T20:01:40Z</time>
  <course>271.38</course>
  <speed>23.97</speed>
  <fix>3d</fix>
</trkpt>
<trkpt lat="-27.2565888" lon="151.3547142">
  <ele>533.01</ele>
  <time>2026-09-01T20:01:40Z</time>
  <course>271.43</course>
  <speed>24.166489194750653</speed>
  <fix>3d</fix>
</trkpt>
<trkpt lat="-27.2565899" lon="151.3547643">
  <ele>533.36</ele>
  <time>2026-09-01T20:01:40Z</time>
  <course>271.38</course>
  <speed>23.97</speed>
  <fix>3d</fix>
</trkpt>
<trkpt lat="-27.2565884" lon="151.3546898">
  <ele>532.85</ele>
  <time>2026-09-01T20:01:40Z</time>
  <course>271.38</course>
  <speed>24.25623631151379</speed>
  <fix>3d</fix>
</trkpt>
<trkpt lat="-27.2565888" lon="151.3547156">
  <ele>533.02</ele>
  <time>2026-09-01T20:01:40Z</time>
  <course>271.32</course>
  <speed>24.16</speed>
  <fix>3d</fix>
</trkpt>
<trkpt lat="-27.2565879" lon="151.3546653">
  <ele>532.7</ele>
  <time>2026-09-01T20:01:40Z</time>
  <course>271.37</course>
  <speed>24.35598694366541</speed>
  <fix>3d</fix>
</trkpt>
<trkpt lat="-27.2565888" lon="151.3547156">
  <ele>533.02</ele>
  <time>2026-09-01T20:01:40Z</time>
  <course>271.32</course>
  <speed>24.16</speed>
  <fix>3d</fix>
</trkpt>
<trkpt lat="-27.2565874" lon="151.3546407">
  <ele>532.56</ele>
  <time>2026-09-01T20:01:40Z</time>
  <course>271.33</course>
  <speed>24.4457460512049</speed>
  <fix>3d</fix>
</trkpt>
<trkpt lat="-27.2565879" lon="151.3546665">
  <ele>532.71</ele>
  <time>2026-09-01T20:01:40Z</time>
  <course>271.27</course>
  <speed>24.35</speed>
  <fix>3d</fix>
</trkpt>
<trkpt lat="-27.2565869" lon="151.3546159">
  <ele>532.44</ele>
  <time>2026-09-01T20:01:40Z</time>
  <course>271.31</course>
  <speed>24.535510999365798</speed>
  <fix>3d</fix>
</trkpt>
<trkpt lat="-27.2565879" lon="151.3546665">
  <ele>532.71</ele>
  <time>2026-09-01T20:01:40Z</time>
  <course>271.27</course>
  <speed>24.35</speed>
  <fix>3d</fix>
</trkpt>
<trkpt lat="-27.2565864" lon="151.3545911">
  <ele>532.33</ele>
  <time>2026-09-01T20:01:40Z</time>
  <course>271.28</course>
  <speed>24.615493088703303</speed>
  <fix>3d</fix>
</trkpt>
<trkpt lat="-27.2565869" lon="151.3546171">
  <ele>532.45</ele>
  <time>2026-09-01T20:01:40Z</time>
  <course>271.23</course>
  <speed>24.53</speed>
  <fix>3d</fix>
</trkpt>
<trkpt lat="-27.256586" lon="151.3545667">
  <ele>532.25</ele>
  <time>2026-09-01T20:01:40Z</time>
  <course>271.23</course>
  <speed>24.695266752963008</speed>
  <fix>3d</fix>
</trkpt>
<trkpt lat="-27.2565869" lon="151.3546171">
  <ele>532.45</ele>
  <time>2026-09-01T20:01:40Z</time>
  <course>271.23</course>
  <speed>24.53</speed>
  <fix>3d</fix>
</trkpt>
<trkpt lat="-27.2565855" lon="151.3545418">
  <ele>532.16</ele>
  <time>2026-09-01T20:01:40Z</time>
  <course>271.2</course>
  <speed>24.765047950690505</speed>
  <fix>3d</fix>
</trkpt>
<trkpt lat="-27.256586" lon="151.3545674">
  <ele>532.25</ele>
  <time>2026-09-01T20:01:40Z</time>
  <course>271.19</course>
  <speed>24.69</speed>
  <fix>3d</fix>
</trkpt>
<trkpt lat="-27.2565851" lon="151.354516">
  <ele>532.1</ele>
  <time>2026-09-01T20:01:40Z</time>
  <course>271.19</course>
  <speed>24.845031696498197</speed>
  <fix>3d</fix>
</trkpt>
<trkpt lat="-27.256586" lon="151.3545674">
  <ele>532.25</ele>
  <time>2026-09-01T20:01:40Z</time>
  <course>271.19</course>
  <speed>24.69</speed>
  <fix>3d</fix>
</trkpt>
<trkpt lat="-27.2565846" lon="151.3544907">
  <ele>532.04</ele>
  <time>2026-09-01T20:01:40Z</time>
  <course>271.19</course>
  <speed>24.914818883548</speed>
  <fix>3d</fix>
</trkpt>
<trkpt lat="-27.256585" lon="151.3545174">
  <ele>532.11</ele>
  <time>2026-09-01T20:01:40Z</time>
  <course>271.15</course>
  <speed>24.84</speed>
  <fix>3d</fix>
</trkpt>
<trkpt lat="-27.2565842" lon="151.3544656">
  <ele>532.02</ele>
  <time>2026-09-01T20:01:40Z</time>
  <course>271.24</course>
  <speed>24.96480923219723</speed>
  <fix>3d</fix>
</trkpt>
<trkpt lat="-27.256585" lon="151.3545174">
  <ele>532.11</ele>
  <time>2026-09-01T20:01:40Z</time>
  <course>271.15</course>
  <speed>24.84</speed>
  <fix>3d</fix>
</trkpt>
<trkpt lat="-27.2565837" lon="151.3544403">
  <ele>531.99</ele>
  <time>2026-09-01T20:01:40Z</time>
  <course>271.23</course>
  <speed>24.9750055055049</speed>
  <fix>3d</fix>
</trkpt>
<trkpt lat="-27.2565841" lon="151.3544671">
  <ele>532.02</ele>
  <time>2026-09-01T20:01:40Z</time>
  <course>271.14</course>
  <speed>24.94</speed>
  <fix>3d</fix>
</trkpt>
<trkpt lat="-27.2565833" lon="151.3544152">
  <ele>531.98</ele>
  <time>2026-09-01T20:01:40Z</time>
  <course>271.18</course>
  <speed>24.925015546635073</speed>
  <fix>3d</fix>
</trkpt>
<trkpt lat="-27.2565841" lon="151.3544671">
  <ele>532.02</ele>
  <time>2026-09-01T20:01:40Z</time>
  <course>271.14</course>
  <speed>24.94</speed>
  <fix>3d</fix>
</trkpt>
<trkpt lat="-27.2565828" lon="151.3543901">
  <ele>531.97</ele>
  <time>2026-09-01T20:01:40Z</time>
  <course>271.14</course>
  <speed>24.805039810490126</speed>
  <fix>3d</fix>
</trkpt>
<trkpt lat="-27.2565832" lon="151.3544167">
  <ele>531.98</ele>
  <time>2026-09-01T20:01:40Z</time>
  <course>271.16</course>
  <speed>24.89</speed>
  <fix>3d</fix>
</trkpt>
<trkpt lat="-27.2565824" lon="151.3543651">
  <ele>531.97</ele>
  <time>2026-09-01T20:01:40Z</time>
  <course>271.17</course>
  <speed>24.625076649626898</speed>
  <fix>3d</fix>
</trkpt>
<trkpt lat="-27.2565832" lon="151.3544167">
  <ele>531.98</ele>
  <time>2026-09-01T20:01:40Z</time>
  <course>271.16</course>
  <speed>24.89</speed>
  <fix>3d</fix>
</trkpt>
<trkpt lat="-27.2565819" lon="151.3543403">
  <ele>531.98</ele>
  <time>2026-09-01T20:01:40Z</time>
  <course>271.17</course>
  <speed>24.384923620958915</speed>
  <fix>3d</fix>
</trkpt>
<trkpt lat="-27.2565823" lon="151.3543666">
  <ele>531.97</ele>
  <time>2026-09-01T20:01:40Z</time>
  <course>271.16</course>
  <speed>24.61</speed>
  <fix>3d</fix>
</trkpt>
<trkpt lat="-27.2565815" lon="151.3543159">
  <ele>531.99</ele>
  <time>2026-09-01T20:01:40Z</time>
  <course>271.18</course>
  <speed>24.07498701972651</speed>
  <fix>3d</fix>
</trkpt>
<trkpt lat="-27.2565823" lon="151.3543666">
  <ele>531.97</ele>
  <time>2026-09-01T20:01:40Z</time>
  <course>271.16</course>
  <speed>24.61</speed>
  <fix>3d</fix>
</trkpt>
<trkpt lat="-27.256581" lon="151.3542917">
  <ele>531.99</ele>
  <time>2026-09-01T20:01:40Z</time>
  <course>271.18</course>
  <speed>23.745056327581114</speed>
  <fix>3d</fix>
</trkpt>
<trkpt lat="-27.2565814" lon="151.3543174">
  <ele>531.98</ele>
  <time>2026-09-01T20:01:40Z</time>
  <course>271.17</course>
  <speed>24.08</speed>
  <fix>3d</fix>
</trkpt>
<trkpt lat="-27.2565806" lon="151.3542679">
  <ele>531.98</ele>
  <time>2026-09-01T20:01:40Z</time>
  <course>271.18</course>
  <speed>23.434916257584536</speed>
  <fix>3d</fix>
</trkpt>
<trkpt lat="-27.2565814" lon="151.3543174">
  <ele>531.98</ele>
  <time>2026-09-01T20:01:40Z</time>
  <course>271.17</course>
  <speed>24.08</speed>
  <fix>3d</fix>
</trkpt>
<trkpt lat="-27.2565801" lon="151.3542444">
  <ele>531.96</ele>
  <time>2026-09-01T20:01:40Z</time>
  <course>271.19</course>
  <speed>23.134980008636273</speed>
  <fix>3d</fix>
</trkpt>
<trkpt lat="-27.2565806" lon="151.3542694">
  <ele>531.97</ele>
  <time>2026-09-01T20:01:40Z</time>
  <course>271.19</course>
  <speed>23.46</speed>
  <fix>3d</fix>
</trkpt>
<trkpt lat="-27.2565797" lon="151.3542211">
  <ele>531.91</ele>
  <time>2026-09-01T20:01:40Z</time>
  <course>271.19</course>
  <speed>22.845043226047963</speed>
  <fix>3d</fix>
</trkpt>
<trkpt lat="-27.2565806" lon="151.3542694">
  <ele>531.97</ele>
  <time>2026-09-01T20:01:40Z</time>
  <course>271.19</course>
  <speed>23.46</speed>
  <fix>3d</fix>
</trkpt>
<trkpt lat="-27.2565793" lon="151.3541981">
  <ele>531.87</ele>
  <time>2026-09-01T20:01:40Z</time>
  <course>271.2</course>
  <speed>22.564895302216673</speed>
  <fix>3d</fix>
</trkpt>
<trkpt lat="-27.2565797" lon="151.3542226">
  <ele>531.91</ele>
  <time>2026-09-01T20:01:40Z</time>
  <course>271.2</course>
  <speed>22.87</speed>
  <fix>3d</fix>
</trkpt>
<trkpt lat="-27.2565789" lon="151.3541756">
  <ele>531.79</ele>
  <time>2026-09-01T20:01:40Z</time>
  <course>271.21</course>
  <speed>22.304952364889733</speed>
  <fix>3d</fix>
</trkpt>
<trkpt lat="-27.2565797" lon="151.3542226">
  <ele>531.91</ele>
  <time>2026-09-01T20:01:40Z</time>
  <course>271.2</course>
  <speed>22.87</speed>
  <fix>3d</fix>
</trkpt>
<trkpt lat="-27.2565784" lon="151.3541531">
  <ele>531.73</ele>
  <time>2026-09-01T20:01:40Z</time>
  <course>271.21</course>
  <speed>22.044799840325155</speed>
  <fix>3d</fix>
</trkpt>
<trkpt lat="-27.2565789" lon="151.354177">
  <ele>531.8</ele>
  <time>2026-09-01T20:01:40Z</time>
  <course>271.21</course>
  <speed>22.32</speed>
  <fix>3d</fix>
</trkpt>
<trkpt lat="-27.256578" lon="151.354131">
  <ele>531.64</ele>
  <time>2026-09-01T20:01:40Z</time>
  <course>271.22</course>
  <speed>21.804852670907913</speed>
  <fix>3d</fix>
</trkpt>
<trkpt lat="-27.2565789" lon="151.354177">
  <ele>531.8</ele>
  <time>2026-09-01T20:01:40Z</time>
  <course>271.21</course>
  <speed>22.32</speed>
  <fix>3d</fix>
</trkpt>
<trkpt lat="-27.2565776" lon="151.354109">
  <ele>531.54</ele>
  <time>2026-09-01T20:01:40Z</time>
  <course>271.22</course>
  <speed>21.57469350883113</speed>
  <fix>3d</fix>
</trkpt>
<trkpt lat="-27.256578" lon="151.3541323">
  <ele>531.63</ele>
  <time>2026-09-01T20:01:40Z</time>
  <course>271.21</course>
  <speed>21.82</speed>
  <fix>3d</fix>
</trkpt>
<trkpt lat="-27.2565772" lon="151.3540874">
  <ele>531.43</ele>
  <time>2026-09-01T20:01:40Z</time>
  <course>271.22</course>
  <speed>21.3445356004763</speed>
  <fix>3d</fix>
</trkpt>
<trkpt lat="-27.256578" lon="151.3541323">
  <ele>531.63</ele>
  <time>2026-09-01T20:01:40Z</time>
  <course>271.21</course>
  <speed>21.82</speed>
  <fix>3d</fix>
</trkpt>
<trkpt lat="-27.2565768" lon="151.354066">
  <ele>531.31</ele>
  <time>2026-09-01T20:01:40Z</time>
  <course>271.22</course>
  <speed>21.13458066771139</speed>
  <fix>3d</fix>
</trkpt>
<trkpt lat="-27.2565772" lon="151.3540886">
  <ele>531.43</ele>
  <time>2026-09-01T20:01:40Z</time>
  <course>271.2</course>
  <speed>21.36</speed>
  <fix>3d</fix>
</trkpt>
<trkpt lat="-27.2565764" lon="151.3540447">
  <ele>531.19</ele>
  <time>2026-09-01T20:01:40Z</time>
  <course>271.21</course>
  <speed>20.924418749394214</speed>
  <fix>3d</fix>
</trkpt>
<trkpt lat="-27.2565772" lon="151.3540886">
  <ele>531.43</ele>
  <time>2026-09-01T20:01:40Z</time>
  <course>271.2</course>
  <speed>21.36</speed>
  <fix>3d</fix>
</trkpt>
<trkpt lat="-27.256576" lon="151.3540237">
  <ele>531.06</ele>
  <time>2026-09-01T20:01:40Z</time>
  <course>271.21</course>
  <speed>20.724256319588406</speed>
  <fix>3d</fix>
</trkpt>
<trkpt lat="-27.2565764" lon="151.3540459">
  <ele>531.19</ele>
  <time>2026-09-01T20:01:40Z</time>
  <course>271.19</course>
  <speed>20.94</speed>
  <fix>3d</fix>
</trkpt>
<trkpt lat="-27.2565756" lon="151.3540028">
  <ele>530.93</ele>
  <time>2026-09-01T20:01:40Z</time>
  <course>271.2</course>
  <speed>20.53429570255576</speed>
  <fix>3d</fix>
</trkpt>
<trkpt lat="-27.2565764" lon="151.3540459">
  <ele>531.19</ele>
  <time>2026-09-01T20:01:40Z</time>
  <course>271.19</course>
  <speed>20.94</speed>
  <fix>3d</fix>
</trkpt>
<trkpt lat="-27.2565753" lon="151.3539822">
  <ele>530.79</ele>
  <time>2026-09-01T20:01:40Z</time>
  <course>271.19</course>
  <speed>20.344131832054178</speed>
  <fix>3d</fix>
</trkpt>
<trkpt lat="-27.2565756" lon="151.354004">
  <ele>530.93</ele>
  <time>2026-09-01T20:01:40Z</time>
  <course>271.17</course>
  <speed>20.55</speed>
  <fix>3d</fix>
</trkpt>
<trkpt lat="-27.2565749" lon="151.3539617">
  <ele>530.64</ele>
  <time>2026-09-01T20:01:40Z</time>
  <course>271.18</course>
  <speed>20.173965896669895</speed>
  <fix>3d</fix>
</trkpt>
<trkpt lat="-27.2565756" lon="151.354004">
  <ele>530.93</ele>
  <time>2026-09-01T20:01:40Z</time>
  <course>271.17</course>
  <speed>20.55</speed>
  <fix>3d</fix>
</trkpt>
<trkpt lat="-27.2565745" lon="151.3539415">
  <ele>530.49</ele>
  <time>2026-09-01T20:01:40Z</time>
  <course>271.18</course>
  <speed>19.99400160048008</speed>
  <fix>3d</fix>
</trkpt>
<trkpt lat="-27.2565748" lon="151.3539629">
  <ele>530.64</ele>
  <time>2026-09-01T20:01:40Z</time>
  <course>271.16</course>
  <speed>20.18</speed>
  <fix>3d</fix>
</trkpt>
<trkpt lat="-27.2565742" lon="151.3539212">
  <ele>530.34</ele>
  <time>2026-09-01T20:01:40Z</time>
  <course>271.17</course>
  <speed>19.83383472755584</speed>
  <fix>3d</fix>
</trkpt>
<trkpt lat="-27.2565748" lon="151.3539629">
  <ele>530.64</ele>
  <time>2026-09-01T20:01:40Z</time>
  <course>271.16</course>
  <speed>20.18</speed>
  <fix>3d</fix>
</trkpt>
<trkpt lat="-27.2565738" lon="151.3539012">
  <ele>530.18</ele>
  <time>2026-09-01T20:01:40Z</time>
  <course>271.16</course>
  <speed>19.663867879946714</speed>
  <fix>3d</fix>
</trkpt>
<trkpt lat="-27.2565741" lon="151.3539224">
  <ele>530.34</ele>
  <time>2026-09-01T20:01:40Z</time>
  <course>271.14</course>
  <speed>19.84</speed>
  <fix>3d</fix>
</trkpt>
<trkpt lat="-27.2565735" lon="151.3538815">
  <ele>530.02</ele>
  <time>2026-09-01T20:01:40Z</time>
  <course>271.15</course>
  <speed>19.51370031541942</speed>
  <fix>3d</fix>
</trkpt>
<trkpt lat="-27.2565741" lon="151.3539224">
  <ele>530.34</ele>
  <time>2026-09-01T20:01:40Z</time>
  <course>271.14</course>
  <speed>19.84</speed>
  <fix>3d</fix>
</trkpt>
<trkpt lat="-27.2565731" lon="151.3538618">
  <ele>529.86</ele>
  <time>2026-09-01T20:01:40Z</time>
  <course>271.14</course>
  <speed>19.363728979718758</speed>
  <fix>3d</fix>
</trkpt>
<trkpt lat="-27.2565734" lon="151.3538826">
  <ele>530.03</ele>
  <time>2026-09-01T20:01:40Z</time>
  <course>271.13</course>
  <speed>19.52</speed>
  <fix>3d</fix>
</trkpt>
<trkpt lat="-27.2565728" lon="151.3538423">
  <ele>529.69</ele>
  <time>2026-09-01T20:01:40Z</time>
  <course>271.14</course>
  <speed>19.21356291789735</speed>
  <fix>3d</fix>
</trkpt>
<trkpt lat="-27.2565734" lon="151.3538826">
  <ele>530.03</ele>
  <time>2026-09-01T20:01:40Z</time>
  <course>271.13</course>
  <speed>19.52</speed>
  <fix>3d</fix>
</trkpt>
<trkpt lat="-27.2565724" lon="151.353823">
  <ele>529.53</ele>
  <time>2026-09-01T20:01:40Z</time>
  <course>271.13</course>
  <speed>19.07339770465661</speed>
  <fix>3d</fix>
</trkpt>
<trkpt lat="-27.2565728" lon="151.3538435">
  <ele>529.7</ele>
  <time>2026-09-01T20:01:40Z</time>
  <course>271.11</course>
  <speed>19.23</speed>
  <fix>3d</fix>
</trkpt>
<trkpt lat="-27.2565721" lon="151.3538037">
  <ele>529.36</ele>
  <time>2026-09-01T20:01:40Z</time>
  <course>271.12</course>
  <speed>18.943421021557853</speed>
  <fix>3d</fix>
</trkpt>
<trkpt lat="-27.2565728" lon="151.3538435">
  <ele>529.7</ele>
  <time>2026-09-01T20:01:40Z</time>
  <course>271.11</course>
  <speed>19.23</speed>
  <fix>3d</fix>
</trkpt>
<trkpt lat="-27.2565718" lon="151.3537847">
  <ele>529.18</ele>
  <time>2026-09-01T20:01:40Z</time>
  <course>271.11</course>
  <speed>18.803257696473768</speed>
  <fix>3d</fix>
</trkpt>
<trkpt lat="-27.2565721" lon="151.3538049">
  <ele>529.36</ele>
  <time>2026-09-01T20:01:40Z</time>
  <course>271.1</course>
  <speed>18.95</speed>
  <fix>3d</fix>
</trkpt>
<trkpt lat="-27.2565715" lon="151.3537658">
  <ele>529.01</ele>
  <time>2026-09-01T20:01:40Z</time>
  <course>271.11</course>
  <speed>18.683278620199403</speed>
  <fix>3d</fix>
</trkpt>
<trkpt lat="-27.2565721" lon="151.3538049">
  <ele>529.36</ele>
  <time>2026-09-01T20:01:40Z</time>
  <course>271.1</course>
  <speed>18.95</speed>
  <fix>3d</fix>
</trkpt>
<trkpt lat="-27.2565711" lon="151.353747">
  <ele>528.83</ele>
  <time>2026-09-01T20:01:40Z</time>
  <course>271.1</course>
  <speed>18.553301592978002</speed>
  <fix>3d</fix>
</trkpt>
<trkpt lat="-27.2565715" lon="151.3537669">
  <ele>529.01</ele>
  <time>2026-09-01T20:01:40Z</time>
  <course>271.08</course>
  <speed>18.69</speed>
  <fix>3d</fix>
</trkpt>
<trkpt lat="-27.2565708" lon="151.3537283">
  <ele>528.65</ele>
  <time>2026-09-01T20:01:40Z</time>
  <course>271.09</course>
  <speed>18.433135924199117</speed>
  <fix>3d</fix>
</trkpt>
<trkpt lat="-27.2565715" lon="151.3537669">
  <ele>529.01</ele>
  <time>2026-09-01T20:01:40Z</time>
  <course>271.08</course>
  <speed>18.69</speed>
  <fix>3d</fix>
</trkpt>
<trkpt lat="-27.2565705" lon="151.3537097">
  <ele>528.47</ele>
  <time>2026-09-01T20:01:40Z</time>
  <course>271.09</course>
  <speed>18.32315475020609</speed>
  <fix>3d</fix>
</trkpt>
<trkpt lat="-27.2565708" lon="151.3537294">
  <ele>528.66</ele>
  <time>2026-09-01T20:01:40Z</time>
  <course>271.07</course>
  <speed>18.44</speed>
  <fix>3d</fix>
</trkpt>
<trkpt lat="-27.2565702" lon="151.3536912">
  <ele>528.29</ele>
  <time>2026-09-01T20:01:40Z</time>
  <course>271.08</course>
  <speed>18.202991512386088</speed>
  <fix>3d</fix>
</trkpt>
<trkpt lat="-27.2565708" lon="151.3537294">
  <ele>528.66</ele>
  <time>2026-09-01T20:01:40Z</time>
  <course>271.07</course>
  <speed>18.44</speed>
  <fix>3d</fix>
</trkpt>
<trkpt lat="-27.2565699" lon="151.3536729">
  <ele>528.11</ele>
  <time>2026-09-01T20:01:40Z</time>
  <course>271.07</course>
  <speed>18.093009699881335</speed>
  <fix>3d</fix>
</trkpt>
<trkpt lat="-27.2565702" lon="151.3536922">
  <ele>528.3</ele>
  <time>2026-09-01T20:01:40Z</time>
  <course>271.06</course>
  <speed>18.21</speed>
  <fix>3d</fix>
</trkpt>
<trkpt lat="-27.2565696" lon="151.3536547">
  <ele>527.91</ele>
  <time>2026-09-01T20:01:40Z</time>
  <course>271.06</course>
  <speed>17.992845800484147</speed>
  <fix>3d</fix>
</trkpt>
<trkpt lat="-27.2565702" lon="151.3536922">
  <ele>528.3</ele>
  <time>2026-09-01T20:01:40Z</time>
  <course>271.06</course>
  <speed>18.21</speed>
  <fix>3d</fix>
</trkpt>
<trkpt lat="-27.2565693" lon="151.3536365">
  <ele>527.74</ele>
  <time>2026-09-01T20:01:40Z</time>
  <course>271.06</course>
  <speed>17.882863305410574</speed>
  <fix>3d</fix>
</trkpt>
<trkpt lat="-27.2565696" lon="151.3536557">
  <ele>527.93</ele>
  <time>2026-09-01T20:01:40Z</time>
  <course>271.04</course>
  <speed>18.0</speed>
  <fix>3d</fix>
</trkpt>
<trkpt lat="-27.256569" lon="151.3536186">
  <ele>527.54</ele>
  <time>2026-09-01T20:01:40Z</time>
  <course>271.05</course>
  <speed>17.782879406890213</speed>
  <fix>3d</fix>
</trkpt>
<trkpt lat="-27.2565696" lon="151.3536557">
  <ele>527.93</ele>
  <time>2026-09-01T20:01:40Z</time>
  <course>271.04</course>
  <speed>18.0</speed>
  <fix>3d</fix>
</trkpt>
<trkpt lat="-27.2565688" lon="151.3536006">
  <ele>527.36</ele>
  <time>2026-09-01T20:01:40Z</time>
  <course>271.04</course>
  <speed>17.69271601535502</speed>
  <fix>3d</fix>
</trkpt>
<trkpt lat="-27.256569" lon="151.3536195">
  <ele>527.56</ele>
  <time>2026-09-01T20:01:40Z</time>
  <course>271.03</course>
  <speed>17.79</speed>
  <fix>3d</fix>
</trkpt>
<trkpt lat="-27.2565685" lon="151.3535828">
  <ele>527.16</ele>
  <time>2026-09-01T20:01:40Z</time>
  <course>271.04</course>
  <speed>17.592731453643008</speed>
  <fix>3d</fix>
</trkpt>
<trkpt lat="-27.256569" lon="151.3536195">
  <ele>527.56</ele>
  <time>2026-09-01T20:01:40Z</time>
  <course>271.03</course>
  <speed>17.79</speed>
  <fix>3d</fix>
</trkpt>
<trkpt lat="-27.2565682" lon="151.3535651">
  <ele>526.98</ele>
  <time>2026-09-01T20:01:40Z</time>
  <course>271.03</course>
  <speed>17.50274549892102</speed>
  <fix>3d</fix>
</trkpt>
<trkpt lat="-27.2565685" lon="151.3535838">
  <ele>527.18</ele>
  <time>2026-09-01T20:01:40Z</time>
  <course>271.02</course>
  <speed>17.6</speed>
  <fix>3d</fix>
</trkpt>
<trkpt lat="-27.2565679" lon="151.3535475">
  <ele>526.79</ele>
  <time>2026-09-01T20:01:40Z</time>
  <course>271.02</course>
  <speed>17.412584529586642</speed>
  <fix>3d</fix>
</trkpt>
<trkpt lat="-27.2565685" lon="151.3535838">
  <ele>527.18</ele>
  <time>2026-09-01T20:01:40Z</time>
  <course>271.02</course>
  <speed>17.6</speed>
  <fix>3d</fix>
</trkpt>
<trkpt lat="-27.2565676" lon="151.3535298">
  <ele>526.6</ele>
  <time>2026-09-01T20:01:40Z</time>
  <course>271.02</course>
  <speed>17.322597957581305</speed>
  <fix>3d</fix>
</trkpt>
<trkpt lat="-27.2565679" lon="151.3535484">
  <ele>526.8</ele>
  <time>2026-09-01T20:01:40Z</time>
  <course>271.0</course>
  <speed>17.42</speed>
  <fix>3d</fix>
</trkpt>
<trkpt lat="-27.2547718" lon="151.3576117">
  <ele>542.97</ele>
  <time>2026-09-01T20:01:40Z</time>
  <course>250.01</course>
  <speed>0.0</speed>
  <fix>3d</fix>
</trkpt>
<trkpt lat="-27.2565679" lon="151.3535484">
  <ele>526.8</ele>
  <time>2026-09-01T20:01:40Z</time>
  <course>271.0</course>
  <speed>17.42</speed>
  <fix>3d</fix>
</trkpt>
<trkpt lat="-27.2547718" lon="151.3576117">
  <ele>542.85</ele>
  <time>2026-09-01T20:01:40Z</time>
  <course>250.0</course>
  <speed>0.0632455532033676</speed>
  <fix>3d</fix>
</trkpt>
<trkpt lat="-27.2556697" lon="151.3555712">
  <ele>534.73</ele>
  <time>2026-09-01T20:01:40Z</time>
  <course>270.92</course>
  <speed>8.69</speed>
  <fix>3d</fix>
</trkpt>
<trkpt lat="-27.2547718" lon="151.3576115">
  <ele>542.65</ele>
  <time>2026-09-01T20:01:40Z</time>
  <course>249.97</course>
  <speed>0.20248456731316586</speed>
  <fix>3d</fix>
</trkpt>
<trkpt lat="-27.2556697" lon="151.3555712">
  <ele>534.73</ele>
  <time>2026-09-01T20:01:40Z</time>
  <course>270.92</course>
  <speed>8.69</speed>
  <fix>3d</fix>
</trkpt>
<trkpt lat="-27.2547719" lon="151.3576111">
  <ele>542.34</ele>
  <time>2026-09-01T20:01:40Z</time>
  <course>250.31</course>
  <speed>0.4427188724235731</speed>
  <fix>3d</fix>
</trkpt>
<trkpt lat="-27.2547718" lon="151.3576115">
  <ele>542.61</ele>
  <time>2026-09-01T20:01:40Z</time>
  <course>250.72</course>
  <speed>0.24</speed>
  <fix>3d</fix>
</trkpt>
<trkpt lat="-27.254772" lon="151.3576106">
  <ele>541.97</ele>
  <time>2026-09-01T20:01:40Z</time>
  <course>253.12</course>
  <speed>0.7481310045707236</speed>
  <fix>3d</fix>
</trkpt>
<trkpt lat="-27.2547718" lon="151.3576115">
  <ele>542.61</ele>
  <time>2026-09-01T20:01:40Z</time>
  <course>250.72</course>
  <speed>0.24</speed>
  <fix>3d</fix>
</trkpt>
<trkpt lat="-27.2547721" lon="151.3576096">
  <ele>541.52</ele>
  <time>2026-09-01T20:01:40Z</time>
  <course>262.31</course>
  <speed>1.100727032465361</speed>
  <fix>3d</fix>
</trkpt>
<trkpt lat="-27.254772" lon="151.3576105">
  <ele>541.94</ele>
  <time>2026-09-01T20:01:40Z</time>
  <course>262.63</course>
  <speed>0.75</speed>
  <fix>3d</fix>
</trkpt>
<trkpt lat="-27.2547723" lon="151.3576084">
  <ele>540.99</ele>
  <time>2026-09-01T20:01:40Z</time>
  <course>263.79</course>
  <speed>1.5134728276384746</speed>
  <fix>3d</fix>
</trkpt>
<trkpt lat="-27.254772" lon="151.3576105">
  <ele>541.94</ele>
  <time>2026-09-01T20:01:40Z</time>
  <course>262.63</course>
  <speed>0.75</speed>
  <fix>3d</fix>
</trkpt>
<trkpt lat="-27.2547735" lon="151.357607">
  <ele>540.41</ele>
  <time>2026-09-01T20:01:40Z</time>
  <course>252.27</course>
  <speed>2.8556785533389433</speed>
  <fix>3d</fix>
</trkpt>
<trkpt lat="-27.2547727" lon="151.3576084">
  <ele>540.99</ele>
  <time>2026-09-01T20:01:40Z</time>
  <course>227.62</course>
  <speed>1.75</speed>
  <fix>3d</fix>
</trkpt>
<trkpt lat="-27.2547765" lon="151.3576056">
  <ele>539.85</ele>
  <time>2026-09-01T20:01:40Z</time>
  <course>244.01</course>
  <speed>4.382921400162225</speed>
  <fix>3d</fix>
</trkpt>
<trkpt lat="-27.2547727" lon="151.3576084">
  <ele>540.99</ele>
  <time>2026-09-01T20:01:40Z</time>
  <course>227.62</course>
  <speed>1.75</speed>
  <fix>3d</fix>
</trkpt>
<trkpt lat="-27.2547809" lon="151.3576042">
  <ele>539.35</ele>
  <time>2026-09-01T20:01:40Z</time>
  <course>238.05</course>
  <speed>5.705436004373373</speed>
  <fix>3d</fix>
</trkpt>
<trkpt lat="-27.2547769" lon="151.3576057">
  <ele>539.9</ele>
  <time>2026-09-01T20:01:40Z</time>
  <course>199.68</course>
  <speed>4.14</speed>
  <fix>3d</fix>
</trkpt>
<trkpt lat="-27.2547864" lon="151.3576029">
  <ele>538.93</ele>
  <time>2026-09-01T20:01:40Z</time>
  <course>233.41</course>
  <speed>6.746436096191826</speed>
  <fix>3d</fix>
</trkpt>
<trkpt lat="-27.2547769" lon="151.3576057">
  <ele>539.9</ele>
  <time>2026-09-01T20:01:40Z</time>
  <course>199.68</course>
  <speed>4.14</speed>
  <fix>3d</fix>
</trkpt>
<trkpt lat="-27.2547927" lon="151.3576014">
  <ele>538.61</ele>
  <time>2026-09-01T20:01:40Z</time>
  <course>229.85</course>
  <speed>7.517832134332343</speed>
  <fix>3d</fix>
</trkpt>
<trkpt lat="-27.2547864" lon="151.3576029">
  <ele>538.99</ele>
  <time>2026-09-01T20:01:40Z</time>
  <course>192.88</course>
  <speed>6.56</speed>
  <fix>3d</fix>
</trkpt>
<trkpt lat="-27.2547994" lon="151.3575994">
  <ele>538.41</ele>
  <time>2026-09-01T20:01:40Z</time>
  <course>227.33</course>
  <speed>7.966109464475114</speed>
  <fix>3d</fix>
</trkpt>
<trkpt lat="-27.2547864" lon="151.3576029">
  <ele>538.99</ele>
  <time>2026-09-01T20:01:40Z</time>
  <course>192.88</course>
  <speed>6.56</speed>
  <fix>3d</fix>
</trkpt>
<trkpt lat="-27.2548062" lon="151.3575964">
  <ele>538.33</ele>
  <time>2026-09-01T20:01:40Z</time>
  <course>226.0</course>
  <speed>8.278556637482165</speed>
  <fix>3d</fix>
</trkpt>
<trkpt lat="-27.2547991" lon="151.357599">
  <ele>538.47</ele>
  <time>2026-09-01T20:01:40Z</time>
  <course>198.73</course>
  <speed>7.84</speed>
  <fix>3d</fix>
</trkpt>
<trkpt lat="-27.2548129" lon="151.3575923">
  <ele>538.28</ele>
  <time>2026-09-01T20:01:40Z</time>
  <course>225.89</course>
  <speed>8.612932137199271</speed>
  <fix>3d</fix>
</trkpt>
<trkpt lat="-27.2547991" lon="151.357599">
  <ele>538.47</ele>
  <time>2026-09-01T20:01:40Z</time>
  <course>198.73</course>
  <speed>7.84</speed>
  <fix>3d</fix>
</trkpt>
<trkpt lat="-27.2548194" lon="151.3575873">
  <ele>538.26</ele>
  <time>2026-09-01T20:01:40Z</time>
  <course>227.01</course>
  <speed>9.001249913206498</speed>
  <fix>3d</fix>
</trkpt>
<trkpt lat="-27.2548125" lon="151.357592">
  <ele>538.29</ele>
  <time>2026-09-01T20:01:40Z</time>
  <course>211.16</course>
  <speed>8.57</speed>
  <fix>3d</fix>
</trkpt>
<trkpt lat="-27.2548257" lon="151.3575812">
  <ele>538.23</ele>
  <time>2026-09-01T20:01:40Z</time>
  <course>229.23</course>
  <speed>9.464142856064674</speed>
  <fix>3d</fix>
</trkpt>
<trkpt lat="-27.2548125" lon="151.357592">
  <ele>538.29</ele>
  <time>2026-09-01T20:01:40Z</time>
  <course>211.16</course>
  <speed>8.57</speed>
  <fix>3d</fix>
</trkpt>
<trkpt lat="-27.2548317" lon="151.3575741">
  <ele>538.19</ele>
  <time>2026-09-01T20:01:40Z</time>
  <course>232.38</course>
  <speed>9.963182222563232</speed>
  <fix>3d</fix>
</trkpt>
<trkpt lat="-27.2548252" lon="151.357581">
  <ele>538.22</ele>
  <time>2026-09-01T20:01:40Z</time>
  <course>223.28</course>
  <speed>9.42</speed>
  <fix>3d</fix>
</trkpt>
<trkpt lat="-27.2548375" lon="151.357566">
  <ele>538.13</ele>
  <time>2026-09-01T20:01:40Z</time>
  <course>236.1</course>
  <speed>10.474220734737262</speed>
  <fix>3d</fix>
</trkpt>
<trkpt lat="-27.2548252" lon="151.357581">
  <ele>538.22</ele>
  <time>2026-09-01T20:01:40Z</time>
  <course>223.28</course>
  <speed>9.42</speed>
  <fix>3d</fix>
</trkpt>
<trkpt lat="-27.2548429" lon="151.357557">
  <ele>538.04</ele>
  <time>2026-09-01T20:01:40Z</time>
  <course>239.92</course>
  <speed>11.015498173028762</speed>
  <fix>3d</fix>
</trkpt>
<trkpt lat="-27.254837" lon="151.357566">
  <ele>538.12</ele>
  <time>2026-09-01T20:01:40Z</time>
  <course>233.36</course>
  <speed>10.43</speed>
  <fix>3d</fix>
</trkpt>
<trkpt lat="-27.2548479" lon="151.3575472">
  <ele>537.95</ele>
  <time>2026-09-01T20:01:40Z</time>
  <course>243.55</course>
  <speed>11.553778602690985</speed>
  <fix>3d</fix>
</trkpt>
<trkpt lat="-27.254837" lon="151.357566">
  <ele>538.12</ele>
  <time>2026-09-01T20:01:40Z</time>
  <course>233.36</course>
  <speed>10.43</speed>
  <fix>3d</fix>
</trkpt>
<trkpt lat="-27.2548525" lon="151.3575364">
  <ele>537.84</ele>
  <time>2026-09-01T20:01:40Z</time>
  <course>246.77</course>
  <speed>12.093874482563477</speed>
  <fix>3d</fix>
</trkpt>
<trkpt lat="-27.2548474" lon="151.3575473">
  <ele>537.94</ele>
  <time>2026-09-01T20:01:40Z</time>
  <course>242.1</course>
  <speed>11.5</speed>
  <fix>3d</fix>
</trkpt>
<trkpt lat="-27.2548567" lon="151.3575248">
  <ele>537.71</ele>
  <time>2026-09-01T20:01:40Z</time>
  <course>249.53</course>
  <speed>12.63602785688604</speed>
  <fix>3d</fix>
</trkpt>
<trkpt lat="-27.2548474" lon="151.3575473">
  <ele>537.94</ele>
  <time>2026-09-01T20:01:40Z</time>
  <course>242.1</course>
  <speed>11.5</speed>
  <fix>3d</fix>
</trkpt>
<trkpt lat="-27.2548603" lon="151.3575124">
  <ele>537.59</ele>
  <time>2026-09-01T20:01:40Z</time>
  <course>251.99</course>
  <speed>13.182583206640494</speed>
  <fix>3d</fix>
</trkpt>
<trkpt lat="-27.2548562" lon="151.357525">
  <ele>537.71</ele>
  <time>2026-09-01T20:01:40Z</time>
  <course>249.69</course>
  <speed>12.59</speed>
  <fix>3d</fix>
</trkpt>
<trkpt lat="-27.2548635" lon="151.3574994">
  <ele>537.46</ele>
  <time>2026-09-01T20:01:40Z</time>
  <course>254.19</course>
  <speed>13.713132391981054</speed>
  <fix>3d</fix>
</trkpt>
<trkpt lat="-27.2548562" lon="151.357525">
  <ele>537.71</ele>
  <time>2026-09-01T20:01:40Z</time>
  <course>249.69</course>
  <speed>12.59</speed>
  <fix>3d</fix>
</trkpt>
<trkpt lat="-27.2548662" lon="151.3574856">
  <ele>537.34</ele>
  <time>2026-09-01T20:01:40Z</time>
  <course>256.27</course>
  <speed>14.232332907854566</speed>
  <fix>3d</fix>
</trkpt>
<trkpt lat="-27.2548631" lon="151.3574997">
  <ele>537.47</ele>
  <time>2026-09-01T20:01:40Z</time>
  <course>256.03</course>
  <speed>13.66</speed>
  <fix>3d</fix>
</trkpt>
<trkpt lat="-27.2548684" lon="151.3574711">
  <ele>537.23</ele>
  <time>2026-09-01T20:01:40Z</time>
  <course>258.19</course>
  <speed>14.757930071659779</speed>
  <fix>3d</fix>
</trkpt>
<trkpt lat="-27.2548631" lon="151.3574997">
  <ele>537.47</ele>
  <time>2026-09-01T20:01:40Z</time>
  <course>256.03</course>
  <speed>13.66</speed>
  <fix>3d</fix>
</trkpt>
<trkpt lat="-27.2548702" lon="151.357456">
  <ele>537.13</ele>
  <time>2026-09-01T20:01:40Z</time>
  <course>260.12</course>
  <speed>15.260671675912565</speed>
  <fix>3d</fix>
</trkpt>
<trkpt lat="-27.254868" lon="151.3574716">
  <ele>537.24</ele>
  <time>2026-09-01T20:01:40Z</time>
  <course>261.14</course>
  <speed>14.71</speed>
  <fix>3d</fix>
</trkpt>
<trkpt lat="-27.2548716" lon="151.3574405">
  <ele>537.04</ele>
  <time>2026-09-01T20:01:40Z</time>
  <course>261.98</course>
  <speed>15.753729717117785</speed>
  <fix>3d</fix>
</trkpt>
<trkpt lat="-27.254868" lon="151.3574716">
  <ele>537.24</ele>
  <time>2026-09-01T20:01:40Z</time>
  <course>261.14</course>
  <speed>14.71</speed>
  <fix>3d</fix>
</trkpt>
<trkpt lat="-27.2548726" lon="151.3574243">
  <ele>536.96</ele>
  <time>2026-09-01T20:01:40Z</time>
  <course>263.76</course>
  <speed>16.243854222443638</speed>
  <fix>3d</fix>
</trkpt>
<trkpt lat="-27.2548713" lon="151.357441">
  <ele>537.04</ele>
  <time>2026-09-01T20:01:40Z</time>
  <course>265.1</course>
  <speed>15.72</speed>
  <fix>3d</fix>
</trkpt>
<trkpt lat="-27.2548732" lon="151.3574076">
  <ele>536.89</ele>
  <time>2026-09-01T20:01:40Z</time>
  <course>265.23</course>
  <speed>16.717182777011203</speed>
  <fix>3d</fix>
</trkpt>
<trkpt lat="-27.2548713" lon="151.357441">
  <ele>537.04</ele>
  <time>2026-09-01T20:01:40Z</time>
  <course>265.1</course>
  <speed>15.72</speed>
  <fix>3d</fix>
</trkpt>
<trkpt lat="-27.2548735" lon="151.3573906">
  <ele>536.83</ele>
  <time>2026-09-01T20:01:40Z</time>
  <course>266.57</course>
  <speed>17.170419330930738</speed>
  <fix>3d</fix>
</trkpt>
<trkpt lat="-27.2548729" lon="151.3574082">
  <ele>536.9</ele>
  <time>2026-09-01T20:01:40Z</time>
  <course>268.2</course>
  <speed>16.68</speed>
  <fix>3d</fix>
</trkpt>
<trkpt lat="-27.2548734" lon="151.357373">
  <ele>536.79</ele>
  <time>2026-09-01T20:01:40Z</time>
  <course>267.83</course>
  <speed>17.611252084959773</speed>
  <fix>3d</fix>
</trkpt>
<trkpt lat="-27.2548729" lon="151.3574082">
  <ele>536.9</ele>
  <time>2026-09-01T20:01:40Z</time>
  <course>268.2</course>
  <speed>16.68</speed>
  <fix>3d</fix>
</trkpt>
<trkpt lat="-27.2548731" lon="151.3573549">
  <ele>536.77</ele>
  <time>2026-09-01T20:01:40Z</time>
  <course>268.99</course>
  <speed>18.037497054746815</speed>
  <fix>3d</fix>
</trkpt>
<trkpt lat="-27.2548732" lon="151.3573735">
  <ele>536.8</ele>
  <time>2026-09-01T20:01:40Z</time>
  <course>270.6</course>
  <speed>17.59</speed>
  <fix>3d</fix>
</trkpt>
<trkpt lat="-27.2548725" lon="151.3573363">
  <ele>536.75</ele>
  <time>2026-09-01T20:01:40Z</time>
  <course>269.92</course>
  <speed>18.457781556839382</speed>
  <fix>3d</fix>
</trkpt>
<trkpt lat="-27.2548732" lon="151.3573735">
  <ele>536.8</ele>
  <time>2026-09-01T20:01:40Z</time>
  <course>270.6</course>
  <speed>17.59</speed>
  <fix>3d</fix>
</trkpt>
<trkpt lat="-27.2548716" lon="151.3573175">
  <ele>536.76</ele>
  <time>2026-09-01T20:01:40Z</time>
  <course>270.68</course>
  <speed>18.849267890292186</speed>
  <fix>3d</fix>
</trkpt>
<trkpt lat="-27.2548723" lon="151.3573372">
  <ele>536.76</ele>
  <time>2026-09-01T20:01:40Z</time>
  <course>272.41</course>
  <speed>18.42</speed>
  <fix>3d</fix>
</trkpt>
<trkpt lat="-27.2548706" lon="151.3572984">
  <ele>536.78</ele>
  <time>2026-09-01T20:01:40Z</time>
  <course>271.37</course>
  <speed>19.221342304844374</speed>
  <fix>3d</fix>
</trkpt>
<trkpt lat="-27.2548723" lon="151.3573372">
  <ele>536.76</ele>
  <time>2026-09-01T20:01:40Z</time>
  <course>272.41</course>
  <speed>18.42</speed>
  <fix>3d</fix>
</trkpt>
<trkpt lat="-27.2548695" lon="151.3572788">
  <ele>536.81</ele>
  <time>2026-09-01T20:01:40Z</time>
  <course>271.92</course>
  <speed>19.583015600259323</speed>
  <fix>3d</fix>
</trkpt>
<trkpt lat="-27.2548705" lon="151.3572992">
  <ele>536.78</ele>
  <time>2026-09-01T20:01:40Z</time>
  <course>273.7</course>
  <speed>19.2</speed>
  <fix>3d</fix>
</trkpt>
<trkpt lat="-27.2548681" lon="151.3572589">
  <ele>536.86</ele>
  <time>2026-09-01T20:01:40Z</time>
  <course>272.46</course>
  <speed>19.942687883031216</speed>
  <fix>3d</fix>
</trkpt>
<trkpt lat="-27.2548705" lon="151.3572992">
  <ele>536.78</ele>
  <time>2026-09-01T20:01:40Z</time>
  <course>273.7</course>
  <speed>19.2</speed>
  <fix>3d</fix>
</trkpt>
<trkpt lat="-27.2548666" lon="151.3572386">
  <ele>536.93</ele>
  <time>2026-09-01T20:01:40Z</time>
  <course>272.89</course>
  <speed>20.282213883104575</speed>
  <fix>3d</fix>
</trkpt>
<trkpt lat="-27.254868" lon="151.3572597">
  <ele>536.86</ele>
  <time>2026-09-01T20:01:40Z</time>
  <course>274.52</course>
  <speed>19.92</speed>
  <fix>3d</fix>
</trkpt>
<trkpt lat="-27.254865" lon="151.357218">
  <ele>537.0</ele>
  <time>2026-09-01T20:01:40Z</time>
  <course>273.33</course>
  <speed>20.58971102274143</speed>
  <fix>3d</fix>
</trkpt>
<trkpt lat="-27.254868" lon="151.3572597">
  <ele>536.86</ele>
  <time>2026-09-01T20:01:40Z</time>
  <course>274.52</course>
  <speed>19.92</speed>
  <fix>3d</fix>
</trkpt>
<trkpt lat="-27.2548633" lon="151.3571972">
  <ele>537.08</ele>
  <time>2026-09-01T20:01:40Z</time>
  <course>273.68</course>
  <speed>20.876640055334573</speed>
  <fix>3d</fix>
</trkpt>
<trkpt lat="-27.254865" lon="151.3572189">
  <ele>537.0</ele>
  <time>2026-09-01T20:01:40Z</time>
  <course>275.03</course>
  <speed>20.56</speed>
  <fix>3d</fix>
</trkpt>
<trkpt lat="-27.2548616" lon="151.3571761">
  <ele>537.16</ele>
  <time>2026-09-01T20:01:40Z</time>
  <course>274.06</course>
  <speed>21.13296003876409</speed>
  <fix>3d</fix>
</trkpt>
<trkpt lat="-27.254865" lon="151.3572189">
  <ele>537.0</ele>
  <time>2026-09-01T20:01:40Z</time>
  <course>275.03</course>
  <speed>20.56</speed>
  <fix>3d</fix>
</trkpt>
<trkpt lat="-27.2548598" lon="151.3571547">
  <ele>537.23</ele>
  <time>2026-09-01T20:01:40Z</time>
  <course>274.46</course>
  <speed>21.359569284046906</speed>
  <fix>3d</fix>
</trkpt>
<trkpt lat="-27.2548616" lon="151.357177">
  <ele>537.15</ele>
  <time>2026-09-01T20:01:40Z</time>
  <course>275.38</course>
  <speed>21.11</speed>
  <fix>3d</fix>
</trkpt>
<trkpt lat="-27.2548579" lon="151.3571332">
  <ele>537.28</ele>
  <time>2026-09-01T20:01:40Z</time>
  <course>274.79</course>
  <speed>21.545544783086825</speed>
  <fix>3d</fix>
</trkpt>
<trkpt lat="-27.2548616" lon="151.357177">
  <ele>537.15</ele>
  <time>2026-09-01T20:01:40Z</time>
  <course>275.38</course>
  <speed>21.11</speed>
  <fix>3d</fix>
</trkpt>
<trkpt lat="-27.2548559" lon="151.3571113">
  <ele>537.33</ele>
  <time>2026-09-01T20:01:40Z</time>
  <course>274.91</course>
  <speed>21.710736975054534</speed>
  <fix>3d</fix>
</trkpt>
<trkpt lat="-27.2548579" lon="151.3571341">
  <ele>537.27</ele>
  <time>2026-09-01T20:01:40Z</time>
  <course>275.66</course>
  <speed>21.52</speed>
  <fix>3d</fix>
</trkpt>
<trkpt lat="-27.254854" lon="151.3570895">
  <ele>537.36</ele>
  <time>2026-09-01T20:01:40Z</time>
  <course>275.06</course>
  <speed>21.835200937935056</speed>
  <fix>3d</fix>
</trkpt>
<trkpt lat="-27.2548579" lon="151.3571341">
  <ele>537.27</ele>
  <time>2026-09-01T20:01:40Z</time>
  <course>275.66</course>
  <speed>21.52</speed>
  <fix>3d</fix>
</trkpt>
<trkpt lat="-27.2548519" lon="151.3570675">
  <ele>537.37</ele>
  <time>2026-09-01T20:01:40Z</time>
  <course>275.19</course>
  <speed>21.94874256079377</speed>
  <fix>3d</fix>
</trkpt>
<trkpt lat="-27.254854" lon="151.3570905">
  <ele>537.35</ele>
  <time>2026-09-01T20:01:40Z</time>
  <course>275.88</course>
  <speed>21.82</speed>
  <fix>3d</fix>
</trkpt>
<trkpt lat="-27.2548499" lon="151.3570454">
  <ele>537.36</ele>
  <time>2026-09-01T20:01:40Z</time>
  <course>275.32</course>
  <speed>22.02254299575778</speed>
  <fix>3d</fix>
</trkpt>
<trkpt lat="-27.254854" lon="151.3570905">
  <ele>537.35</ele>
  <time>2026-09-01T20:01:40Z</time>
  <course>275.88</course>
  <speed>21.82</speed>
  <fix>3d</fix>
</trkpt>
<trkpt lat="-27.2548478" lon="151.3570232">
  <ele>537.34</ele>
  <time>2026-09-01T20:01:40Z</time>
  <course>275.48</course>
  <speed>22.08538204333355</speed>
  <fix>3d</fix>
</trkpt>
<trkpt lat="-27.2548499" lon="151.3570465">
  <ele>537.36</ele>
  <time>2026-09-01T20:01:40Z</time>
  <course>276.04</course>
  <speed>22.01</speed>
  <fix>3d</fix>
</trkpt>
<trkpt lat="-27.2548456" lon="151.3570011">
  <ele>537.31</ele>
  <time>2026-09-01T20:01:40Z</time>
  <course>275.64</course>
  <speed>22.14824598021252</speed>
  <fix>3d</fix>
</trkpt>
<trkpt lat="-27.2548499" lon="151.3570465">
  <ele>537.36</ele>
  <time>2026-09-01T20:01:40Z</time>
  <course>276.04</course>
  <speed>22.01</speed>
  <fix>3d</fix>
</trkpt>
<trkpt lat="-27.2548435" lon="151.3569787">
  <ele>537.26</ele>
  <time>2026-09-01T20:01:40Z</time>
  <course>275.73</course>
  <speed>22.20011036008605</speed>
  <fix>3d</fix>
</trkpt>
<trkpt lat="-27.2548457" lon="151.3570021">
  <ele>537.3</ele>
  <time>2026-09-01T20:01:40Z</time>
  <course>276.16</course>
  <speed>22.14</speed>
  <fix>3d</fix>
</trkpt>
<trkpt lat="-27.2548413" lon="151.3569565">
  <ele>537.2</ele>
  <time>2026-09-01T20:01:40Z</time>
  <course>275.81</course>
  <speed>22.231016620928518</speed>
  <fix>3d</fix>
</trkpt>
<trkpt lat="-27.2548457" lon="151.3570021">
  <ele>537.3</ele>
  <time>2026-09-01T20:01:40Z</time>
  <course>276.16</course>
  <speed>22.14</speed>
  <fix>3d</fix>
</trkpt>
<trkpt lat="-27.2548391" lon="151.3569341">
  <ele>537.13</ele>
  <time>2026-09-01T20:01:40Z</time>
  <course>275.85</course>
  <speed>22.263014171490795</speed>
  <fix>3d</fix>
</trkpt>
<trkpt lat="-27.2548413" lon="151.3569575">
  <ele>537.19</ele>
  <time>2026-09-01T20:01:40Z</time>
  <course>276.23</course>
  <speed>22.23</speed>
  <fix>3d</fix>
</trkpt>
<trkpt lat="-27.2548369" lon="151.3569118">
  <ele>537.04</ele>
  <time>2026-09-01T20:01:40Z</time>
  <course>275.93</course>
  <speed>22.28289478501391</speed>
  <fix>3d</fix>
</trkpt>
<trkpt lat="-27.2548413" lon="151.3569575">
  <ele>537.19</ele>
  <time>2026-09-01T20:01:40Z</time>
  <course>276.23</course>
  <speed>22.23</speed>
  <fix>3d</fix>
</trkpt>
<trkpt lat="-27.2548348" lon="151.3568894">
  <ele>536.96</ele>
  <time>2026-09-01T20:01:40Z</time>
  <course>275.97</course>
  <speed>22.31380738466656</speed>
  <fix>3d</fix>
</trkpt>
<trkpt lat="-27.254837" lon="151.3569127">
  <ele>537.04</ele>
  <time>2026-09-01T20:01:40Z</time>
  <course>276.27</course>
  <speed>22.29</speed>
  <fix>3d</fix>
</trkpt>
<trkpt lat="-27.2548326" lon="151.356867">
  <ele>536.87</ele>
  <time>2026-09-01T20:01:40Z</time>
  <course>276.02</course>
  <speed>22.333687559379886</speed>
  <fix>3d</fix>
</trkpt>
<trkpt lat="-27.254837" lon="151.3569127">
  <ele>537.04</ele>
  <time>2026-09-01T20:01:40Z</time>
  <course>276.27</course>
  <speed>22.29</speed>
  <fix>3d</fix>
</trkpt>
<trkpt lat="-27.2548304" lon="151.3568445">
  <ele>536.77</ele>
  <time>2026-09-01T20:01:40Z</time>
  <course>276.06</course>
  <speed>22.364601494325804</speed>
  <fix>3d</fix>
</trkpt>
<trkpt lat="-27.2548326" lon="151.3568678">
  <ele>536.87</ele>
  <time>2026-09-01T20:01:40Z</time>
  <course>276.29</course>
  <speed>22.34</speed>
  <fix>3d</fix>
</trkpt>
<trkpt lat="-27.2548281" lon="151.356822">
  <ele>536.68</ele>
  <time>2026-09-01T20:01:40Z</time>
  <course>276.04</course>
  <speed>22.394421180285057</speed>
  <fix>3d</fix>
</trkpt>
<trkpt lat="-27.2548326" lon="151.3568678">
  <ele>536.87</ele>
  <time>2026-09-01T20:01:40Z</time>
  <course>276.29</course>
  <speed>22.34</speed>
  <fix>3d</fix>
</trkpt>
<trkpt lat="-27.2548259" lon="151.3567995">
  <ele>536.59</ele>
  <time>2026-09-01T20:01:40Z</time>
  <course>276.02</course>
  <speed>22.42424134725632</speed>
  <fix>3d</fix>
</trkpt>
<trkpt lat="-27.2548282" lon="151.3568229">
  <ele>536.68</ele>
  <time>2026-09-01T20:01:40Z</time>
  <course>276.28</course>
  <speed>22.39</speed>
  <fix>3d</fix>
</trkpt>
<trkpt lat="-27.2548237" lon="151.356777">
  <ele>536.5</ele>
  <time>2026-09-01T20:01:40Z</time>
  <course>275.99</course>
  <speed>22.44303232631455</speed>
  <fix>3d</fix>
</trkpt>
<trkpt lat="-27.2548282" lon="151.3568229">
  <ele>536.68</ele>
  <time>2026-09-01T20:01:40Z</time>
  <course>276.28</course>
  <speed>22.39</speed>
  <fix>3d</fix>
</trkpt>
<trkpt lat="-27.2548215" lon="151.3567541">
  <ele>536.41</ele>
  <time>2026-09-01T20:01:40Z</time>
  <course>276.02</course>
  <speed>22.471771180750306</speed>
  <fix>3d</fix>
</trkpt>
<trkpt lat="-27.2548238" lon="151.3567779">
  <ele>536.5</ele>
  <time>2026-09-01T20:01:40Z</time>
  <course>276.24</course>
  <speed>22.44</speed>
  <fix>3d</fix>
</trkpt>
<trkpt lat="-27.2548194" lon="151.3567316">
  <ele>536.34</ele>
  <time>2026-09-01T20:01:40Z</time>
  <course>276.04</course>
  <speed>22.48950199537553</speed>
  <fix>3d</fix>
</trkpt>
<trkpt lat="-27.2548238" lon="151.3567779">
  <ele>536.5</ele>
  <time>2026-09-01T20:01:40Z</time>
  <course>276.24</course>
  <speed>22.44</speed>
  <fix>3d</fix>
</trkpt>
<trkpt lat="-27.2548172" lon="151.3567091">
  <ele>536.26</ele>
  <time>2026-09-01T20:01:40Z</time>
  <course>276.06</course>
  <speed>22.508318462293</speed>
  <fix>3d</fix>
</trkpt>
<trkpt lat="-27.2548194" lon="151.3567327">
  <ele>536.34</ele>
  <time>2026-09-01T20:01:40Z</time>
  <course>276.17</course>
  <speed>22.49</speed>
  <fix>3d</fix>
</trkpt>
<trkpt lat="-27.254815" lon="151.3566864">
  <ele>536.19</ele>
  <time>2026-09-01T20:01:40Z</time>
  <course>276.05</course>
  <speed>22.527141407644244</speed>
  <fix>3d</fix>
</trkpt>
<trkpt lat="-27.2548194" lon="151.3567327">
  <ele>536.34</ele>
  <time>2026-09-01T20:01:40Z</time>
  <course>276.17</course>
  <speed>22.49</speed>
  <fix>3d</fix>
</trkpt>
<trkpt lat="-27.2548129" lon="151.3566638">
  <ele>536.12</ele>
  <time>2026-09-01T20:01:40Z</time>
  <course>275.99</course>
  <speed>22.534972820041297</speed>
  <fix>3d</fix>
</trkpt>
<trkpt lat="-27.2548151" lon="151.3566875">
  <ele>536.2</ele>
  <time>2026-09-01T20:01:40Z</time>
  <course>276.09</course>
  <speed>22.52</speed>
  <fix>3d</fix>
</trkpt>
<trkpt lat="-27.2548108" lon="151.3566411">
  <ele>536.04</ele>
  <time>2026-09-01T20:01:40Z</time>
  <course>275.92</course>
  <speed>22.55381342478473</speed>
  <fix>3d</fix>
</trkpt>
<trkpt lat="-27.2548151" lon="151.3566875">
  <ele>536.2</ele>
  <time>2026-09-01T20:01:40Z</time>
  <course>276.09</course>
  <speed>22.52</speed>
  <fix>3d</fix>
</trkpt>
<trkpt lat="-27.2548087" lon="151.3566185">
  <ele>535.99</ele>
  <time>2026-09-01T20:01:40Z</time>
  <course>275.86</course>
  <speed>22.570587054837542</speed>
  <fix>3d</fix>
</trkpt>
<trkpt lat="-27.2548109" lon="151.3566422">
  <ele>536.06</ele>
  <time>2026-09-01T20:01:40Z</time>
  <course>276.0</course>
  <speed>22.55</speed>
  <fix>3d</fix>
</trkpt>
<trkpt lat="-27.2548066" lon="151.3565957">
  <ele>535.91</ele>
  <time>2026-09-01T20:01:40Z</time>
  <course>275.81</course>
  <speed>22.579503980380082</speed>
  <fix>3d</fix>
</trkpt>
<trkpt lat="-27.2548109" lon="151.3566422">
  <ele>536.06</ele>
  <time>2026-09-01T20:01:40Z</time>
  <course>276.0</course>
  <speed>22.55</speed>
  <fix>3d</fix>
</trkpt>
<trkpt lat="-27.2548045" lon="151.3565731">
  <ele>535.85</ele>
  <time>2026-09-01T20:01:40Z</time>
  <course>275.81</course>
  <speed>22.596338198920638</speed>
  <fix>3d</fix>
</trkpt>
<trkpt lat="-27.2548067" lon="151.3565969">
  <ele>535.92</ele>
  <time>2026-09-01T20:01:40Z</time>
  <course>275.89</course>
  <speed>22.58</speed>
  <fix>3d</fix>
</trkpt>
<trkpt lat="-27.2548024" lon="151.3565504">
  <ele>535.79</ele>
  <time>2026-09-01T20:01:40Z</time>
  <course>275.77</course>
  <speed>22.614218978333078</speed>
  <fix>3d</fix>
</trkpt>
<trkpt lat="-27.2548067" lon="151.3565969">
  <ele>535.92</ele>
  <time>2026-09-01T20:01:40Z</time>
  <course>275.89</course>
  <speed>22.58</speed>
  <fix>3d</fix>
</trkpt>
<trkpt lat="-27.2548004" lon="151.3565276">
  <ele>535.72</ele>
  <time>2026-09-01T20:01:40Z</time>
  <course>275.72</course>
  <speed>22.64306737171446</speed>
  <fix>3d</fix>
</trkpt>
<trkpt lat="-27.2548025" lon="151.3565515">
  <ele>535.79</ele>
  <time>2026-09-01T20:01:40Z</time>
  <course>275.78</course>
  <speed>22.62</speed>
  <fix>3d</fix>
</trkpt>
<trkpt lat="-27.2547984" lon="151.3565047">
  <ele>535.65</ele>
  <time>2026-09-01T20:01:40Z</time>
  <course>275.67</course>
  <speed>22.66994706654605</speed>
  <fix>3d</fix>
</trkpt>
<trkpt lat="-27.2548025" lon="151.3565515">
  <ele>535.79</ele>
  <time>2026-09-01T20:01:40Z</time>
  <course>275.78</course>
  <speed>22.62</speed>
  <fix>3d</fix>
</trkpt>
<trkpt lat="-27.2547964" lon="151.356482">
  <ele>535.58</ele>
  <time>2026-09-01T20:01:40Z</time>
  <course>275.58</course>
  <speed>22.698821555314275</speed>
  <fix>3d</fix>
</trkpt>
<trkpt lat="-27.2547985" lon="151.3565059">
  <ele>535.65</ele>
  <time>2026-09-01T20:01:40Z</time>
  <course>275.67</course>
  <speed>22.67</speed>
  <fix>3d</fix>
</trkpt>
<trkpt lat="-27.2547944" lon="151.3564592">
  <ele>535.5</ele>
  <time>2026-09-01T20:01:40Z</time>
  <course>275.55</course>
  <speed>22.72576731377843</speed>
  <fix>3d</fix>
</trkpt>
<trkpt lat="-27.2547985" lon="151.3565059">
  <ele>535.65</ele>
  <time>2026-09-01T20:01:40Z</time>
  <course>275.67</course>
  <speed>22.67</speed>
  <fix>3d</fix>
</trkpt>
<trkpt lat="-27.2547924" lon="151.3564362">
  <ele>535.43</ele>
  <time>2026-09-01T20:01:40Z</time>
  <course>275.57</course>
  <speed>22.763666224929583</speed>
  <fix>3d</fix>
</trkpt>
<trkpt lat="-27.2547944" lon="151.3564601">
  <ele>535.5</ele>
  <time>2026-09-01T20:01:40Z</time>
  <course>275.55</course>
  <speed>22.73</speed>
  <fix>3d</fix>
</trkpt>
<trkpt lat="-27.2547905" lon="151.3564133">
  <ele>535.35</ele>
  <time>2026-09-01T20:01:40Z</time>
  <course>275.53</course>
  <speed>22.802534946799227</speed>
  <fix>3d</fix>
</trkpt>
<trkpt lat="-27.2547944" lon="151.3564601">
  <ele>535.5</ele>
  <time>2026-09-01T20:01:40Z</time>
  <course>275.55</course>
  <speed>22.73</speed>
  <fix>3d</fix>
</trkpt>
<trkpt lat="-27.2547885" lon="151.3563903">
  <ele>535.27</ele>
  <time>2026-09-01T20:01:40Z</time>
  <course>275.47</course>
  <speed>22.841411952854404</speed>
  <fix>3d</fix>
</trkpt>
<trkpt lat="-27.2547905" lon="151.3564143">
  <ele>535.35</ele>
  <time>2026-09-01T20:01:40Z</time>
  <course>275.44</course>
  <speed>22.8</speed>
  <fix>3d</fix>
</trkpt>
<trkpt lat="-27.2547866" lon="151.3563675">
  <ele>535.19</ele>
  <time>2026-09-01T20:01:40Z</time>
  <course>275.4</course>
  <speed>22.889320653964372</speed>
  <fix>3d</fix>
</trkpt>
<trkpt lat="-27.2547905" lon="151.3564143">
  <ele>535.35</ele>
  <time>2026-09-01T20:01:40Z</time>
  <course>275.44</course>
  <speed>22.8</speed>
  <fix>3d</fix>
</trkpt>
<trkpt lat="-27.2547847" lon="151.3563443">
  <ele>535.11</ele>
  <time>2026-09-01T20:01:40Z</time>
  <course>275.32</course>
  <speed>22.927298139990242</speed>
  <fix>3d</fix>
</trkpt>
<trkpt lat="-27.2547866" lon="151.3563684">
  <ele>535.19</ele>
  <time>2026-09-01T20:01:40Z</time>
  <course>275.35</course>
  <speed>22.88</speed>
  <fix>3d</fix>
</trkpt>
<trkpt lat="-27.2547828" lon="151.3563213">
  <ele>535.03</ele>
  <time>2026-09-01T20:01:40Z</time>
  <course>275.23</course>
  <speed>22.976170263993087</speed>
  <fix>3d</fix>
</trkpt>
<trkpt lat="-27.2547866" lon="151.3563684">
  <ele>535.19</ele>
  <time>2026-09-01T20:01:40Z</time>
  <course>275.35</course>
  <speed>22.88</speed>
  <fix>3d</fix>
</trkpt>
<trkpt lat="-27.2547809" lon="151.3562982">
  <ele>534.95</ele>
  <time>2026-09-01T20:01:40Z</time>
  <course>275.15</course>
  <speed>23.03410514867031</speed>
  <fix>3d</fix>
</trkpt>
<trkpt lat="-27.2547829" lon="151.3563222">
  <ele>535.03</ele>
  <time>2026-09-01T20:01:40Z</time>
  <course>275.24</course>
  <speed>22.98</speed>
  <fix>3d</fix>
</trkpt>
<trkpt lat="-27.2547791" lon="151.3562749">
  <ele>534.87</ele>
  <time>2026-09-01T20:01:40Z</time>
  <course>275.06</course>
  <speed>23.08210778936794</speed>
  <fix>3d</fix>
</trkpt>
<trkpt lat="-27.2547829" lon="151.3563222">
  <ele>535.03</ele>
  <time>2026-09-01T20:01:40Z</time>
  <course>275.24</course>
  <speed>22.98</speed>
  <fix>3d</fix>
</trkpt>
<trkpt lat="-27.2547772" lon="151.3562517">
  <ele>534.79</ele>
  <time>2026-09-01T20:01:40Z</time>
  <course>275.05</course>
  <speed>23.130136186369505</speed>
  <fix>3d</fix>
</trkpt>
<trkpt lat="-27.2547791" lon="151.3562759">
  <ele>534.87</ele>
  <time>2026-09-01T20:01:40Z</time>
  <course>275.13</course>
  <speed>23.08</speed>
  <fix>3d</fix>
</trkpt>
<trkpt lat="-27.2547754" lon="151.3562284">
  <ele>534.72</ele>
  <time>2026-09-01T20:01:40Z</time>
  <course>275.08</course>
  <speed>23.18902542152214</speed>
  <fix>3d</fix>
</trkpt>
<trkpt lat="-27.2547791" lon="151.3562759">
  <ele>534.87</ele>
  <time>2026-09-01T20:01:40Z</time>
  <course>275.13</course>
  <speed>23.08</speed>
  <fix>3d</fix>
</trkpt>
<trkpt lat="-27.2547736" lon="151.356205">
  <ele>534.64</ele>
  <time>2026-09-01T20:01:40Z</time>
  <course>275.09</course>
  <speed>23.2370953434374</speed>
  <fix>3d</fix>
</trkpt>
<trkpt lat="-27.2547755" lon="151.3562293">
  <ele>534.72</ele>
  <time>2026-09-01T20:01:40Z</time>
  <course>275.02</course>
  <speed>23.18</speed>
  <fix>3d</fix>
</trkpt>
<trkpt lat="-27.2547718" lon="151.3561815">
  <ele>534.57</ele>
  <time>2026-09-01T20:01:40Z</time>
  <course>275.04</course>
  <speed>23.286908339236447</speed>
  <fix>3d</fix>
</trkpt>
<trkpt lat="-27.2547755" lon="151.3562293">
  <ele>534.72</ele>
  <time>2026-09-01T20:01:40Z</time>
  <course>275.02</course>
  <speed>23.18</speed>
  <fix>3d</fix>
</trkpt>
<trkpt lat="-27.25477" lon="151.3561581">
  <ele>534.51</ele>
  <time>2026-09-01T20:01:40Z</time>
  <course>275.03</course>
  <speed>23.34582617942659</speed>
  <fix>3d</fix>
</trkpt>
<trkpt lat="-27.2547718" lon="151.3561825">
  <ele>534.58</ele>
  <time>2026-09-01T20:01:40Z</time>
  <course>274.95</course>
  <speed>23.29</speed>
  <fix>3d</fix>
</trkpt>
<trkpt lat="-27.2547682" lon="151.3561346">
  <ele>534.44</ele>
  <time>2026-09-01T20:01:40Z</time>
  <course>274.99</course>
  <speed>23.395642756718612</speed>
  <fix>3d</fix>
</trkpt>
<trkpt lat="-27.2547718" lon="151.3561825">
  <ele>534.58</ele>
  <time>2026-09-01T20:01:40Z</time>
  <course>274.95</course>
  <speed>23.29</speed>
  <fix>3d</fix>
</trkpt>
<trkpt lat="-27.2547664" lon="151.3561109">
  <ele>534.37</ele>
  <time>2026-09-01T20:01:40Z</time>
  <course>274.98</course>
  <speed>23.4454601149135</speed>
  <fix>3d</fix>
</trkpt>
<trkpt lat="-27.2547682" lon="151.3561355">
  <ele>534.44</ele>
  <time>2026-09-01T20:01:40Z</time>
  <course>274.91</course>
  <speed>23.39</speed>
  <fix>3d</fix>
</trkpt>
<trkpt lat="-27.2547646" lon="151.3560872">
  <ele>534.28</ele>
  <time>2026-09-01T20:01:40Z</time>
  <course>274.94</course>
  <speed>23.5043932063774</speed>
  <fix>3d</fix>
</trkpt>
<trkpt lat="-27.2547682" lon="151.3561355">
  <ele>534.44</ele>
  <time>2026-09-01T20:01:40Z</time>
  <course>274.91</course>
  <speed>23.39</speed>
  <fix>3d</fix>
</trkpt>
<trkpt lat="-27.2547628" lon="151.3560635">
  <ele>534.16</ele>
  <time>2026-09-01T20:01:40Z</time>
  <course>274.94</course>
  <speed>23.58410693666394</speed>
  <fix>3d</fix>
</trkpt>
<trkpt lat="-27.2547646" lon="151.3560883">
  <ele>534.27</ele>
  <time>2026-09-01T20:01:40Z</time>
  <course>274.87</course>
  <speed>23.51</speed>
  <fix>3d</fix>
</trkpt>
<trkpt lat="-27.254761" lon="151.3560398">
  <ele>534.02</ele>
  <time>2026-09-01T20:01:40Z</time>
  <course>274.94</course>
  <speed>23.662983750998094</speed>
  <fix>3d</fix>
</trkpt>
<trkpt lat="-27.2547646" lon="151.3560883">
  <ele>534.27</ele>
  <time>2026-09-01T20:01:40Z</time>
  <course>274.87</course>
  <speed>23.51</speed>
  <fix>3d</fix>
</trkpt>
<trkpt lat="-27.2547592" lon="151.3560159">
  <ele>533.87</ele>
  <time>2026-09-01T20:01:40Z</time>
  <course>274.93</course>
  <speed>23.752669323678127</speed>
  <fix>3d</fix>
</trkpt>
<trkpt lat="-27.2547611" lon="151.3560408">
  <ele>534.02</ele>
  <time>2026-09-01T20:01:40Z</time>
  <course>274.81</course>
  <speed>23.66</speed>
  <fix>3d</fix>
</trkpt>
<trkpt lat="-27.2547574" lon="151.3559919">
  <ele>533.73</ele>
  <time>2026-09-01T20:01:40Z</time>
  <course>274.87</course>
  <speed>23.842357266008744</speed>
  <fix>3d</fix>
</trkpt>
<trkpt lat="-27.2547611" lon="151.3560408">
  <ele>534.02</ele>
  <time>2026-09-01T20:01:40Z</time>
  <course>274.81</course>
  <speed>23.66</speed>
  <fix>3d</fix>
</trkpt>
<trkpt lat="-27.2547556" lon="151.3559679">
  <ele>533.59</ele>
  <time>2026-09-01T20:01:40Z</time>
  <course>274.83</course>
  <speed>23.931222283870085</speed>
  <fix>3d</fix>
</trkpt>
<trkpt lat="-27.2547575" lon="151.3559929">
  <ele>533.74</ele>
  <time>2026-09-01T20:01:40Z</time>
  <course>274.76</course>
  <speed>23.84</speed>
  <fix>3d</fix>
</trkpt>
<trkpt lat="-27.2547539" lon="151.3559436">
  <ele>533.46</ele>
  <time>2026-09-01T20:01:40Z</time>
  <course>274.85</course>
  <speed>24.021740153452665</speed>
  <fix>3d</fix>
</trkpt>
<trkpt lat="-27.2547575" lon="151.3559929">
  <ele>533.74</ele>
  <time>2026-09-01T20:01:40Z</time>
  <course>274.76</course>
  <speed>23.84</speed>
  <fix>3d</fix>
</trkpt>
<trkpt lat="-27.2547521" lon="151.3559195">
  <ele>533.34</ele>
  <time>2026-09-01T20:01:40Z</time>
  <course>274.81</course>
  <speed>24.121401285994974</speed>
  <fix>3d</fix>
</trkpt>
<trkpt lat="-27.2547539" lon="151.3559447">
  <ele>533.47</ele>
  <time>2026-09-01T20:01:40Z</time>
  <course>274.73</course>
  <speed>24.02</speed>
  <fix>3d</fix>
</trkpt>
<trkpt lat="-27.2547503" lon="151.3558952">
  <ele>533.24</ele>
  <time>2026-09-01T20:01:40Z</time>
  <course>274.8</course>
  <speed>24.201132204919666</speed>
  <fix>3d</fix>
</trkpt>
<trkpt lat="-27.2547539" lon="151.3559447">
  <ele>533.47</ele>
  <time>2026-09-01T20:01:40Z</time>
  <course>274.73</course>
  <speed>24.02</speed>
  <fix>3d</fix>
</trkpt>
<trkpt lat="-27.2547485" lon="151.3558708">
  <ele>533.15</ele>
  <time>2026-09-01T20:01:40Z</time>
  <course>274.77</course>
  <speed>24.29164877071954</speed>
  <fix>3d</fix>
</trkpt>
<trkpt lat="-27.2547504" lon="151.3558961">
  <ele>533.25</ele>
  <time>2026-09-01T20:01:40Z</time>
  <course>274.71</course>
  <speed>24.2</speed>
  <fix>3d</fix>
</trkpt>
<trkpt lat="-27.2547467" lon="151.3558463">
  <ele>533.07</ele>
  <time>2026-09-01T20:01:40Z</time>
  <course>274.73</course>
  <speed>24.37138075694522</speed>
  <fix>3d</fix>
</trkpt>
<trkpt lat="-27.2547504" lon="151.3558961">
  <ele>533.25</ele>
  <time>2026-09-01T20:01:40Z</time>
  <course>274.71</course>
  <speed>24.2</speed>
  <fix>3d</fix>
</trkpt>
<trkpt lat="-27.2547449" lon="151.3558217">
  <ele>533.0</ele>
  <time>2026-09-01T20:01:40Z</time>
  <course>274.66</course>
  <speed>24.440335513245312</speed>
  <fix>3d</fix>
</trkpt>
<trkpt lat="-27.2547468" lon="151.3558472">
  <ele>533.08</ele>
  <time>2026-09-01T20:01:40Z</time>
  <course>274.68</course>
  <speed>24.36</speed>
  <fix>3d</fix>
</trkpt>
<trkpt lat="-27.2547431" lon="151.355797">
  <ele>532.95</ele>
  <time>2026-09-01T20:01:40Z</time>
  <course>274.66</course>
  <speed>24.51010607892181</speed>
  <fix>3d</fix>
</trkpt>
<trkpt lat="-27.2547468" lon="151.3558472">
  <ele>533.08</ele>
  <time>2026-09-01T20:01:40Z</time>
  <course>274.68</course>
  <speed>24.36</speed>
  <fix>3d</fix>
</trkpt>
<trkpt lat="-27.2547414" lon="151.3557722">
  <ele>532.91</ele>
  <time>2026-09-01T20:01:40Z</time>
  <course>274.74</course>
  <speed>24.57987794924946</speed>
  <fix>3d</fix>
</trkpt>
<trkpt lat="-27.2547432" lon="151.355798">
  <ele>532.95</ele>
  <time>2026-09-01T20:01:40Z</time>
  <course>274.64</course>
  <speed>24.5</speed>
  <fix>3d</fix>
</trkpt>
<trkpt lat="-27.2547396" lon="151.3557475">
  <ele>532.88</ele>
  <time>2026-09-01T20:01:40Z</time>
  <course>274.79</course>
  <speed>24.640489037354758</speed>
  <fix>3d</fix>
</trkpt>
<trkpt lat="-27.2547432" lon="151.355798">
  <ele>532.95</ele>
  <time>2026-09-01T20:01:40Z</time>
  <course>274.64</course>
  <speed>24.5</speed>
  <fix>3d</fix>
</trkpt>
<trkpt lat="-27.2547378" lon="151.3557227">
  <ele>532.86</ele>
  <time>2026-09-01T20:01:40Z</time>
  <course>274.72</course>
  <speed>24.701101190027945</speed>
  <fix>3d</fix>
</trkpt>
<trkpt lat="-27.2547396" lon="151.3557485">
  <ele>532.88</ele>
  <time>2026-09-01T20:01:40Z</time>
  <course>274.63</course>
  <speed>24.64</speed>
  <fix>3d</fix>
</trkpt>
<trkpt lat="-27.254736" lon="151.3556978">
  <ele>532.85</ele>
  <time>2026-09-01T20:01:40Z</time>
  <course>274.72</course>
  <speed>24.760904668448607</speed>
  <fix>3d</fix>
</trkpt>
<trkpt lat="-27.2547396" lon="151.3557485">
  <ele>532.88</ele>
  <time>2026-09-01T20:01:40Z</time>
  <course>274.63</course>
  <speed>24.64</speed>
  <fix>3d</fix>
</trkpt>
<trkpt lat="-27.2547342" lon="151.3556727">
  <ele>532.86</ele>
  <time>2026-09-01T20:01:40Z</time>
  <course>274.65</course>
  <speed>24.81154972991409</speed>
  <fix>3d</fix>
</trkpt>
<trkpt lat="-27.2547361" lon="151.3556988">
  <ele>532.86</ele>
  <time>2026-09-01T20:01:40Z</time>
  <course>274.65</course>
  <speed>24.75</speed>
  <fix>3d</fix>
</trkpt>
<trkpt lat="-27.2547324" lon="151.3556477">
  <ele>532.87</ele>
  <time>2026-09-01T20:01:40Z</time>
  <course>274.7</course>
  <speed>24.852229276264133</speed>
  <fix>3d</fix>
</trkpt>
<trkpt lat="-27.2547361" lon="151.3556988">
  <ele>532.86</ele>
  <time>2026-09-01T20:01:40Z</time>
  <course>274.65</course>
  <speed>24.75</speed>
  <fix>3d</fix>
</trkpt>
<trkpt lat="-27.2547305" lon="151.3556228">
  <ele>532.89</ele>
  <time>2026-09-01T20:01:40Z</time>
  <course>274.74</course>
  <speed>24.89291063736822</speed>
  <fix>3d</fix>
</trkpt>
<trkpt lat="-27.2547324" lon="151.3556488">
  <ele>532.87</ele>
  <time>2026-09-01T20:01:40Z</time>
  <course>274.67</course>
  <speed>24.85</speed>
  <fix>3d</fix>
</trkpt>
<trkpt lat="-27.2547287" lon="151.3555977">
  <ele>532.91</ele>
  <time>2026-09-01T20:01:40Z</time>
  <course>274.75</course>
  <speed>24.88294395765903</speed>
  <fix>3d</fix>
</trkpt>
<trkpt lat="-27.2547324" lon="151.3556488">
  <ele>532.87</ele>
  <time>2026-09-01T20:01:40Z</time>
  <course>274.67</course>
  <speed>24.85</speed>
  <fix>3d</fix>
</trkpt>
<trkpt lat="-27.2547269" lon="151.3555726">
  <ele>532.94</ele>
  <time>2026-09-01T20:01:40Z</time>
  <course>274.73</course>
  <speed>24.813998065608047</speed>
  <fix>3d</fix>
</trkpt>
<trkpt lat="-27.2547288" lon="151.3555987">
  <ele>532.91</ele>
  <time>2026-09-01T20:01:40Z</time>
  <course>274.7</course>
  <speed>24.85</speed>
  <fix>3d</fix>
</trkpt>
<trkpt lat="-27.254725" lon="151.3555477">
  <ele>532.97</ele>
  <time>2026-09-01T20:01:40Z</time>
  <course>274.71</course>
  <speed>24.674474665127118</speed>
  <fix>3d</fix>
</trkpt>
<trkpt lat="-27.2547288" lon="151.3555987">
  <ele>532.91</ele>
  <time>2026-09-01T20:01:40Z</time>
  <course>274.7</course>
  <speed>24.85</speed>
  <fix>3d</fix>
</trkpt>
<trkpt lat="-27.2547232" lon="151.355523">
  <ele>533.01</ele>
  <time>2026-09-01T20:01:40Z</time>
  <course>274.73</course>
  <speed>24.494264634807877</speed>
  <fix>3d</fix>
</trkpt>
<trkpt lat="-27.2547251" lon="151.3555488">
  <ele>532.97</ele>
  <time>2026-09-01T20:01:40Z</time>
  <course>274.74</course>
  <speed>24.66</speed>
  <fix>3d</fix>
</trkpt>
<trkpt lat="-27.2547214" lon="151.3554984">
  <ele>533.04</ele>
  <time>2026-09-01T20:01:40Z</time>
  <course>274.74</course>
  <speed>24.244298298775323</speed>
  <fix>3d</fix>
</trkpt>
<trkpt lat="-27.2547251" lon="151.3555488">
  <ele>532.97</ele>
  <time>2026-09-01T20:01:40Z</time>
  <course>274.74</course>
  <speed>24.66</speed>
  <fix>3d</fix>
</trkpt>
<trkpt lat="-27.2547196" lon="151.3554742">
  <ele>533.08</ele>
  <time>2026-09-01T20:01:41Z</time>
  <course>274.75</course>
  <speed>23.953640641873207</speed>
  <fix>3d</fix>
</trkpt>
<trkpt lat="-27.2547215" lon="151.3554995">
  <ele>533.04</ele>
  <time>2026-09-01T20:01:41Z</time>
  <course>274.78</course>
  <speed>24.23</speed>
  <fix>3d</fix>
</trkpt>
<trkpt lat="-27.2547178" lon="151.3554503">
  <ele>533.1</ele>
  <time>2026-09-01T20:01:41Z</time>
  <course>274.76</course>
  <speed>23.643053948252962</speed>
  <fix>3d</fix>
</trkpt>
<trkpt lat="-27.2547215" lon="151.3554995">
  <ele>533.04</ele>
  <time>2026-09-01T20:01:41Z</time>
  <course>274.78</course>
  <speed>24.23</speed>
  <fix>3d</fix>
</trkpt>
<trkpt lat="-27.254716" lon="151.3554264">
  <ele>533.1</ele>
  <time>2026-09-01T20:01:41Z</time>
  <course>274.78</course>
  <speed>23.322504153713854</speed>
  <fix>3d</fix>
</trkpt>
<trkpt lat="-27.2547179" lon="151.3554512">
  <ele>533.08</ele>
  <time>2026-09-01T20:01:41Z</time>
  <course>274.81</course>
  <speed>23.65</speed>
  <fix>3d</fix>
</trkpt>
<trkpt lat="-27.2547143" lon="151.3554031">
  <ele>533.07</ele>
  <time>2026-09-01T20:01:41Z</time>
  <course>274.8</course>
  <speed>23.031849686900966</speed>
  <fix>3d</fix>
</trkpt>
<trkpt lat="-27.2547179" lon="151.3554512">
  <ele>533.08</ele>
  <time>2026-09-01T20:01:41Z</time>
  <course>274.81</course>
  <speed>23.65</speed>
  <fix>3d</fix>
</trkpt>
<trkpt lat="-27.2547125" lon="151.35538">
  <ele>533.02</ele>
  <time>2026-09-01T20:01:41Z</time>
  <course>274.81</course>
  <speed>22.751160409965905</speed>
  <fix>3d</fix>
</trkpt>
<trkpt lat="-27.2547143" lon="151.3554042">
  <ele>533.06</ele>
  <time>2026-09-01T20:01:41Z</time>
  <course>274.84</course>
  <speed>23.05</speed>
  <fix>3d</fix>
</trkpt>
<trkpt lat="-27.2547108" lon="151.3553572">
  <ele>532.94</ele>
  <time>2026-09-01T20:01:41Z</time>
  <course>274.82</course>
  <speed>22.48043593883357</speed>
  <fix>3d</fix>
</trkpt>
<trkpt lat="-27.2547143" lon="151.3554042">
  <ele>533.06</ele>
  <time>2026-09-01T20:01:41Z</time>
  <course>274.84</course>
  <speed>23.05</speed>
  <fix>3d</fix>
</trkpt>
<trkpt lat="-27.2547091" lon="151.3553347">
  <ele>532.82</ele>
  <time>2026-09-01T20:01:41Z</time>
  <course>274.84</course>
  <speed>22.230488073814303</speed>
  <fix>3d</fix>
</trkpt>
<trkpt lat="-27.2547109" lon="151.3553583">
  <ele>532.92</ele>
  <time>2026-09-01T20:01:41Z</time>
  <course>274.87</course>
  <speed>22.5</speed>
  <fix>3d</fix>
</trkpt>
<trkpt lat="-27.2547074" lon="151.3553125">
  <ele>532.66</ele>
  <time>2026-09-01T20:01:41Z</time>
  <course>274.85</course>
  <speed>21.999620451271426</speed>
  <fix>3d</fix>
</trkpt>
<trkpt lat="-27.2547109" lon="151.3553583">
  <ele>532.92</ele>
  <time>2026-09-01T20:01:41Z</time>
  <course>274.87</course>
  <speed>22.5</speed>
  <fix>3d</fix>
</trkpt>
<trkpt lat="-27.2547057" lon="151.3552905">
  <ele>532.5</ele>
  <time>2026-09-01T20:01:41Z</time>
  <course>274.87</course>
  <speed>21.779568407110368</speed>
  <fix>3d</fix>
</trkpt>
<trkpt lat="-27.2547075" lon="151.3553135">
  <ele>532.66</ele>
  <time>2026-09-01T20:01:41Z</time>
  <course>274.89</course>
  <speed>22.02</speed>
  <fix>3d</fix>
</trkpt>
<trkpt lat="-27.254704" lon="151.3552686">
  <ele>532.32</ele>
  <time>2026-09-01T20:01:41Z</time>
  <course>274.88</course>
  <speed>21.579446239419585</speed>
  <fix>3d</fix>
</trkpt>
<trkpt lat="-27.2547075" lon="151.3553135">
  <ele>532.66</ele>
  <time>2026-09-01T20:01:41Z</time>
  <course>274.89</course>
  <speed>22.02</speed>
  <fix>3d</fix>
</trkpt>
<trkpt lat="-27.2547024" lon="151.355247">
  <ele>532.13</ele>
  <time>2026-09-01T20:01:41Z</time>
  <course>274.89</course>
  <speed>21.389289375760008</speed>
  <fix>3d</fix>
</trkpt>
<trkpt lat="-27.2547041" lon="151.3552696">
  <ele>532.32</ele>
  <time>2026-09-01T20:01:41Z</time>
  <course>274.92</course>
  <speed>21.6</speed>
  <fix>3d</fix>
</trkpt>
<trkpt lat="-27.2547007" lon="151.3552255">
  <ele>531.93</ele>
  <time>2026-09-01T20:01:41Z</time>
  <course>274.9</course>
  <speed>21.208236607507</speed>
  <fix>3d</fix>
</trkpt>
<trkpt lat="-27.2547041" lon="151.3552696">
  <ele>532.32</ele>
  <time>2026-09-01T20:01:41Z</time>
  <course>274.92</course>
  <speed>21.6</speed>
  <fix>3d</fix>
</trkpt>
<trkpt lat="-27.2546991" lon="151.3552043">
  <ele>531.74</ele>
  <time>2026-09-01T20:01:41Z</time>
  <course>274.92</course>
  <speed>21.03800608422766</speed>
  <fix>3d</fix>
</trkpt>
<trkpt lat="-27.2547008" lon="151.3552265">
  <ele>531.94</ele>
  <time>2026-09-01T20:01:41Z</time>
  <course>274.93</course>
  <speed>21.22</speed>
  <fix>3d</fix>
</trkpt>
<trkpt lat="-27.2546975" lon="151.3551832">
  <ele>531.54</ele>
  <time>2026-09-01T20:01:41Z</time>
  <course>274.93</course>
  <speed>20.86691639893159</speed>
  <fix>3d</fix>
</trkpt>
<trkpt lat="-27.2547008" lon="151.3552265">
  <ele>531.94</ele>
  <time>2026-09-01T20:01:41Z</time>
  <course>274.93</course>
  <speed>21.22</speed>
  <fix>3d</fix>
</trkpt>
<trkpt lat="-27.2546959" lon="151.3551623">
  <ele>531.35</ele>
  <time>2026-09-01T20:01:41Z</time>
  <course>274.94</course>
  <speed>20.69668572501404</speed>
  <fix>3d</fix>
</trkpt>
<trkpt lat="-27.2546975" lon="151.3551842">
  <ele>531.55</ele>
  <time>2026-09-01T20:01:41Z</time>
  <course>274.94</course>
  <speed>20.87</speed>
  <fix>3d</fix>
</trkpt>
<trkpt lat="-27.2546943" lon="151.3551416">
  <ele>531.16</ele>
  <time>2026-09-01T20:01:41Z</time>
  <course>274.95</course>
  <speed>20.53555940314264</speed>
  <fix>3d</fix>
</trkpt>
<trkpt lat="-27.2546975" lon="151.3551842">
  <ele>531.55</ele>
  <time>2026-09-01T20:01:41Z</time>
  <course>274.94</course>
  <speed>20.87</speed>
  <fix>3d</fix>
</trkpt>
<trkpt lat="-27.2546927" lon="151.355121">
  <ele>530.98</ele>
  <time>2026-09-01T20:01:41Z</time>
  <course>274.94</course>
  <speed>20.375291408959036</speed>
  <fix>3d</fix>
</trkpt>
<trkpt lat="-27.2546943" lon="151.3551425">
  <ele>531.17</ele>
  <time>2026-09-01T20:01:41Z</time>
  <course>274.93</course>
  <speed>20.54</speed>
  <fix>3d</fix>
</trkpt>
<trkpt lat="-27.2546911" lon="151.3551005">
  <ele>530.79</ele>
  <time>2026-09-01T20:01:41Z</time>
  <course>274.94</course>
  <speed>20.21416582498521</speed>
  <fix>3d</fix>
</trkpt>
<trkpt lat="-27.2546943" lon="151.3551425">
  <ele>531.17</ele>
  <time>2026-09-01T20:01:41Z</time>
  <course>274.93</course>
  <speed>20.54</speed>
  <fix>3d</fix>
</trkpt>
<trkpt lat="-27.2546896" lon="151.3550803">
  <ele>530.62</ele>
  <time>2026-09-01T20:01:41Z</time>
  <course>274.94</course>
  <speed>20.0538973768193</speed>
  <fix>3d</fix>
</trkpt>
<trkpt lat="-27.2546911" lon="151.3551014">
  <ele>530.8</ele>
  <time>2026-09-01T20:01:41Z</time>
  <course>274.92</course>
  <speed>20.22</speed>
  <fix>3d</fix>
</trkpt>
<trkpt lat="-27.254688" lon="151.3550602">
  <ele>530.44</ele>
  <time>2026-09-01T20:01:41Z</time>
  <course>274.93</course>
  <speed>19.902735992822695</speed>
  <fix>3d</fix>
</trkpt>
<trkpt lat="-27.2546911" lon="151.3551014">
  <ele>530.8</ele>
  <time>2026-09-01T20:01:41Z</time>
  <course>274.92</course>
  <speed>20.22</speed>
  <fix>3d</fix>
</trkpt>
<trkpt lat="-27.2546865" lon="151.3550402">
  <ele>530.27</ele>
  <time>2026-09-01T20:01:41Z</time>
  <course>274.93</course>
  <speed>19.752430230227368</speed>
  <fix>3d</fix>
</trkpt>
<trkpt lat="-27.2546881" lon="151.355061">
  <ele>530.45</ele>
  <time>2026-09-01T20:01:41Z</time>
  <course>274.91</course>
  <speed>19.91</speed>
  <fix>3d</fix>
</trkpt>
<trkpt lat="-27.254685" lon="151.3550204">
  <ele>530.09</ele>
  <time>2026-09-01T20:01:41Z</time>
  <course>274.92</course>
  <speed>19.601270366994076</speed>
  <fix>3d</fix>
</trkpt>
<trkpt lat="-27.2546881" lon="151.355061">
  <ele>530.45</ele>
  <time>2026-09-01T20:01:41Z</time>
  <course>274.91</course>
  <speed>19.91</speed>
  <fix>3d</fix>
</trkpt>
<trkpt lat="-27.2546835" lon="151.3550008">
  <ele>529.91</ele>
  <time>2026-09-01T20:01:41Z</time>
  <course>274.92</course>
  <speed>19.450963986394093</speed>
  <fix>3d</fix>
</trkpt>
<trkpt lat="-27.2546851" lon="151.3550211">
  <ele>530.1</ele>
  <time>2026-09-01T20:01:41Z</time>
  <course>274.9</course>
  <speed>19.61</speed>
  <fix>3d</fix>
</trkpt>
<trkpt lat="-27.254682" lon="151.3549813">
  <ele>529.75</ele>
  <time>2026-09-01T20:01:41Z</time>
  <course>274.91</course>
  <speed>19.309769548081096</speed>
  <fix>3d</fix>
</trkpt>
<trkpt lat="-27.2546851" lon="151.3550211">
  <ele>530.1</ele>
  <time>2026-09-01T20:01:41Z</time>
  <course>274.9</course>
  <speed>19.61</speed>
  <fix>3d</fix>
</trkpt>
<trkpt lat="-27.2546805" lon="151.3549619">
  <ele>529.58</ele>
  <time>2026-09-01T20:01:41Z</time>
  <course>274.91</course>
  <speed>19.16942617816193</speed>
  <fix>3d</fix>
</trkpt>
<trkpt lat="-27.2546821" lon="151.3549819">
  <ele>529.75</ele>
  <time>2026-09-01T20:01:41Z</time>
  <course>274.89</course>
  <speed>19.32</speed>
  <fix>3d</fix>
</trkpt>
<trkpt lat="-27.2546791" lon="151.3549426">
  <ele>529.4</ele>
  <time>2026-09-01T20:01:41Z</time>
  <course>274.9</course>
  <speed>19.039046719833426</speed>
  <fix>3d</fix>
</trkpt>
<trkpt lat="-27.2546821" lon="151.3549819">
  <ele>529.75</ele>
  <time>2026-09-01T20:01:41Z</time>
  <course>274.89</course>
  <speed>19.32</speed>
  <fix>3d</fix>
</trkpt>
<trkpt lat="-27.2546776" lon="151.3549236">
  <ele>529.23</ele>
  <time>2026-09-01T20:01:41Z</time>
  <course>274.9</course>
  <speed>18.89870365924605</speed>
  <fix>3d</fix>
</trkpt>
<trkpt lat="-27.2546791" lon="151.3549433">
  <ele>529.4</ele>
  <time>2026-09-01T20:01:41Z</time>
  <course>274.89</course>
  <speed>19.04</speed>
  <fix>3d</fix>
</trkpt>
<trkpt lat="-27.2546762" lon="151.3549046">
  <ele>529.04</ele>
  <time>2026-09-01T20:01:41Z</time>
  <course>274.89</course>
  <speed>18.767474523760516</speed>
  <fix>3d</fix>
</trkpt>
<trkpt lat="-27.2546791" lon="151.3549433">
  <ele>529.4</ele>
  <time>2026-09-01T20:01:41Z</time>
  <course>274.89</course>
  <speed>19.04</speed>
  <fix>3d</fix>
</trkpt>
<trkpt lat="-27.2546748" lon="151.3548858">
  <ele>528.88</ele>
  <time>2026-09-01T20:01:41Z</time>
  <course>274.89</course>
  <speed>18.647058749304136</speed>
  <fix>3d</fix>
</trkpt>
<trkpt lat="-27.2546762" lon="151.3549052">
  <ele>529.05</ele>
  <time>2026-09-01T20:01:41Z</time>
  <course>274.88</course>
  <speed>18.78</speed>
  <fix>3d</fix>
</trkpt>
<trkpt lat="-27.2546733" lon="151.3548671">
  <ele>528.7</ele>
  <time>2026-09-01T20:01:41Z</time>
  <course>274.89</course>
  <speed>18.526642977074935</speed>
  <fix>3d</fix>
</trkpt>
<trkpt lat="-27.2546762" lon="151.3549052">
  <ele>529.05</ele>
  <time>2026-09-01T20:01:41Z</time>
  <course>274.88</course>
  <speed>18.78</speed>
  <fix>3d</fix>
</trkpt>
<trkpt lat="-27.2546719" lon="151.3548482">
  <ele>528.52</ele>
  <time>2026-09-01T20:01:41Z</time>
  <course>274.88</course>
  <speed>18.40622720711662</speed>
  <fix>3d</fix>
</trkpt>
<trkpt lat="-27.2546734" lon="151.3548677">
  <ele>528.7</ele>
  <time>2026-09-01T20:01:41Z</time>
  <course>274.87</course>
  <speed>18.53</speed>
  <fix>3d</fix>
</trkpt>
<trkpt lat="-27.2546705" lon="151.3548298">
  <ele>528.34</ele>
  <time>2026-09-01T20:01:41Z</time>
  <course>274.88</course>
  <speed>18.28581143947405</speed>
  <fix>3d</fix>
</trkpt>
<trkpt lat="-27.2546734" lon="151.3548677">
  <ele>528.7</ele>
  <time>2026-09-01T20:01:41Z</time>
  <course>274.87</course>
  <speed>18.53</speed>
  <fix>3d</fix>
</trkpt>
<trkpt lat="-27.2546691" lon="151.3548114">
  <ele>528.16</ele>
  <time>2026-09-01T20:01:41Z</time>
  <course>274.87</course>
  <speed>18.175359693827247</speed>
  <fix>3d</fix>
</trkpt>
<trkpt lat="-27.2546706" lon="151.3548306">
  <ele>528.35</ele>
  <time>2026-09-01T20:01:41Z</time>
  <course>274.86</course>
  <speed>18.29</speed>
  <fix>3d</fix>
</trkpt>
<trkpt lat="-27.2546678" lon="151.3547932">
  <ele>527.98</ele>
  <time>2026-09-01T20:01:41Z</time>
  <course>274.87</course>
  <speed>18.064907970980645</speed>
  <fix>3d</fix>
</trkpt>
<trkpt lat="-27.2546706" lon="151.3548306">
  <ele>528.35</ele>
  <time>2026-09-01T20:01:41Z</time>
  <course>274.86</course>
  <speed>18.29</speed>
  <fix>3d</fix>
</trkpt>
<trkpt lat="-27.2546664" lon="151.354775">
  <ele>527.79</ele>
  <time>2026-09-01T20:01:41Z</time>
  <course>274.86</course>
  <speed>17.963577037995524</speed>
  <fix>3d</fix>
</trkpt>
<trkpt lat="-27.2546678" lon="151.3547941">
  <ele>527.98</ele>
  <time>2026-09-01T20:01:41Z</time>
  <course>274.85</course>
  <speed>18.07</speed>
  <fix>3d</fix>
</trkpt>
<trkpt lat="-27.254665" lon="151.3547571">
  <ele>527.61</ele>
  <time>2026-09-01T20:01:41Z</time>
  <course>274.86</course>
  <speed>17.85312577673725</speed>
  <fix>3d</fix>
</trkpt>
<trkpt lat="-27.2546678" lon="151.3547941">
  <ele>527.98</ele>
  <time>2026-09-01T20:01:41Z</time>
  <course>274.85</course>
  <speed>18.07</speed>
  <fix>3d</fix>
</trkpt>
<trkpt lat="-27.2546637" lon="151.3547391">
  <ele>527.41</ele>
  <time>2026-09-01T20:01:41Z</time>
  <course>274.86</course>
  <speed>17.753481348738337</speed>
  <fix>3d</fix>
</trkpt>
<trkpt lat="-27.254665" lon="151.3547578">
  <ele>527.61</ele>
  <time>2026-09-01T20:01:41Z</time>
  <course>274.84</course>
  <speed>17.86</speed>
  <fix>3d</fix>
</trkpt>
<trkpt lat="-27.2546623" lon="151.3547213">
  <ele>527.24</ele>
  <time>2026-09-01T20:01:41Z</time>
  <course>274.85</course>
  <speed>17.66295841584869</speed>
  <fix>3d</fix>
</trkpt>
<trkpt lat="-27.254665" lon="151.3547578">
  <ele>527.61</ele>
  <time>2026-09-01T20:01:41Z</time>
  <course>274.84</course>
  <speed>17.86</speed>
  <fix>3d</fix>
</trkpt>
<trkpt lat="-27.254661" lon="151.3547036">
  <ele>527.04</ele>
  <time>2026-09-01T20:01:41Z</time>
  <course>274.85</course>
  <speed>17.5624713522898</speed>
  <fix>3d</fix>
</trkpt>
<trkpt lat="-27.2546624" lon="151.3547221">
  <ele>527.24</ele>
  <time>2026-09-01T20:01:41Z</time>
  <course>274.84</course>
  <speed>17.66</speed>
  <fix>3d</fix>
</trkpt>
<trkpt lat="-27.2546597" lon="151.3546859">
  <ele>526.86</ele>
  <time>2026-09-01T20:01:41Z</time>
  <course>274.85</course>
  <speed>17.471948946811857</speed>
  <fix>3d</fix>
</trkpt>
<trkpt lat="-27.2546624" lon="151.3547221">
  <ele>527.24</ele>
  <time>2026-09-01T20:01:41Z</time>
  <course>274.84</course>
  <speed>17.66</speed>
  <fix>3d</fix>
</trkpt>
<trkpt lat="-27.2546584" lon="151.3546683">
  <ele>526.66</ele>
  <time>2026-09-01T20:01:41Z</time>
  <course>274.84</course>
  <speed>17.3814268689311</speed>
  <fix>3d</fix>
</trkpt>
<trkpt lat="-27.2546597" lon="151.3546867">
  <ele>526.87</ele>
  <time>2026-09-01T20:01:41Z</time>
  <course>274.83</course>
  <speed>17.48</speed>
  <fix>3d</fix>
</trkpt>
<trkpt lat="-27.254657" lon="151.354651">
  <ele>526.48</ele>
  <time>2026-09-01T20:01:41Z</time>
  <course>274.84</course>
  <speed>17.290905123792683</speed>
  <fix>3d</fix>
</trkpt>
<trkpt lat="-27.2546597" lon="151.3546867">
  <ele>526.87</ele>
  <time>2026-09-01T20:01:41Z</time>
  <course>274.83</course>
  <speed>17.48</speed>
  <fix>3d</fix>
</trkpt>
<trkpt lat="-27.2546557" lon="151.3546336">
  <ele>526.29</ele>
  <time>2026-09-01T20:01:41Z</time>
  <course>274.83</course>
  <speed>17.210348630983628</speed>
  <fix>3d</fix>
</trkpt>
<trkpt lat="-27.2546571" lon="151.3546516">
  <ele>526.48</ele>
  <time>2026-09-01T20:01:41Z</time>
  <course>274.82</course>
  <speed>17.3</speed>
  <fix>3d</fix>
</trkpt>
<trkpt lat="-27.2546544" lon="151.3546163">
  <ele>526.1</ele>
  <time>2026-09-01T20:01:41Z</time>
  <course>274.83</course>
  <speed>17.129792759983992</speed>
  <fix>3d</fix>
</trkpt>
<trkpt lat="-27.2546571" lon="151.3546516">
  <ele>526.48</ele>
  <time>2026-09-01T20:01:41Z</time>
  <course>274.82</course>
  <speed>17.3</speed>
  <fix>3d</fix>
</trkpt>
<trkpt lat="-27.2546532" lon="151.3545991">
  <ele>525.9</ele>
  <time>2026-09-01T20:01:41Z</time>
  <course>274.83</course>
  <speed>17.05007331362537</speed>
  <fix>3d</fix>
</trkpt>
<trkpt lat="-27.2546545" lon="151.3546169">
  <ele>526.1</ele>
  <time>2026-09-01T20:01:41Z</time>
  <course>274.82</course>
  <speed>17.13</speed>
  <fix>3d</fix>
</trkpt>
<trkpt lat="-27.2546519" lon="151.354582">
  <ele>525.71</ele>
  <time>2026-09-01T20:01:41Z</time>
  <course>274.82</course>
  <speed>16.969516787463338</speed>
  <fix>3d</fix>
</trkpt>
<trkpt lat="-27.2546545" lon="151.3546169">
  <ele>526.1</ele>
  <time>2026-09-01T20:01:41Z</time>
  <course>274.82</course>
  <speed>17.13</speed>
  <fix>3d</fix>
</trkpt>
<trkpt lat="-27.2528596" lon="151.3586796">
  <ele>542.96</ele>
  <time>2026-09-01T20:01:41Z</time>
  <course>250.01</course>
  <speed>0.0</speed>
  <fix>3d</fix>
</trkpt>
<trkpt lat="-27.2537564" lon="151.3566397">
  <ele>534.43</ele>
  <time>2026-09-01T20:01:41Z</time>
  <course>274.8</course>
  <speed>8.53</speed>
  <fix>3d</fix>
</trkpt>
<trkpt lat="-27.2528596" lon="151.3586796">
  <ele>542.84</ele>
  <time>2026-09-01T20:01:41Z</time>
  <course>250.01</course>
  <speed>0.07280109889280519</speed>
  <fix>3d</fix>
</trkpt>
<trkpt lat="-27.2537564" lon="151.3566397">
  <ele>534.43</ele>
  <time>2026-09-01T20:01:41Z</time>
  <course>274.8</course>
  <speed>8.53</speed>
  <fix>3d</fix>
</trkpt>
<trkpt lat="-27.2528596" lon="151.3586795">
  <ele>542.62</ele>
  <time>2026-09-01T20:01:41Z</time>
  <course>249.99</course>
  <speed>0.21189620100417092</speed>
  <fix>3d</fix>
</trkpt>
<trkpt lat="-27.2528596" lon="151.3586796">
  <ele>542.8</ele>
  <time>2026-09-01T20:01:41Z</time>
  <course>249.43</course>
  <speed>0.11</speed>
  <fix>3d</fix>
</trkpt>
<trkpt lat="-27.2528597" lon="151.3586791">
  <ele>542.31</ele>
  <time>2026-09-01T20:01:41Z</time>
  <course>250.39</course>
  <speed>0.4522167621838005</speed>
  <fix>3d</fix>
</trkpt>
<trkpt lat="-27.2528596" lon="151.3586796">
  <ele>542.8</ele>
  <time>2026-09-01T20:01:41Z</time>
  <course>249.43</course>
  <speed>0.11</speed>
  <fix>3d</fix>
</trkpt>
<trkpt lat="-27.2528598" lon="151.3586786">
  <ele>541.91</ele>
  <time>2026-09-01T20:01:41Z</time>
  <course>253.37</course>
  <speed>0.766550715869472</speed>
  <fix>3d</fix>
</trkpt>
<trkpt lat="-27.2528597" lon="151.3586791">
  <ele>542.28</ele>
  <time>2026-09-01T20:01:41Z</time>
  <course>258.87</course>
  <speed>0.48</speed>
  <fix>3d</fix>
</trkpt>
<trkpt lat="-27.2528599" lon="151.3586776">
  <ele>541.46</ele>
  <time>2026-09-01T20:01:41Z</time>
  <course>262.81</course>
  <speed>1.1303981599418853</speed>
  <fix>3d</fix>
</trkpt>
<trkpt lat="-27.2528597" lon="151.3586791">
  <ele>542.28</ele>
  <time>2026-09-01T20:01:41Z</time>
  <course>258.87</course>
  <speed>0.48</speed>
  <fix>3d</fix>
</trkpt>
<trkpt lat="-27.25286" lon="151.3586765">
  <ele>540.93</ele>
  <time>2026-09-01T20:01:41Z</time>
  <course>263.74</course>
  <speed>1.5431461369552786</speed>
  <fix>3d</fix>
</trkpt>
<trkpt lat="-27.2528599" lon="151.3586776">
  <ele>541.44</ele>
  <time>2026-09-01T20:01:41Z</time>
  <course>253.56</course>
  <speed>1.13</speed>
  <fix>3d</fix>
</trkpt>
<trkpt lat="-27.2528613" lon="151.3586748">
  <ele>540.35</ele>
  <time>2026-09-01T20:01:41Z</time>
  <course>252.11</course>
  <speed>2.900224129270012</speed>
  <fix>3d</fix>
</trkpt>
<trkpt lat="-27.2528599" lon="151.3586776">
  <ele>541.44</ele>
  <time>2026-09-01T20:01:41Z</time>
  <course>253.56</course>
  <speed>1.13</speed>
  <fix>3d</fix>
</trkpt>
<trkpt lat="-27.2528643" lon="151.3586734">
  <ele>539.78</ele>
  <time>2026-09-01T20:01:41Z</time>
  <course>243.78</course>
  <speed>4.427188724235731</speed>
  <fix>3d</fix>
</trkpt>
<trkpt lat="-27.2528621" lon="151.358675">
  <ele>540.37</ele>
  <time>2026-09-01T20:01:41Z</time>
  <course>211.22</course>
  <speed>2.74</speed>
  <fix>3d</fix>
</trkpt>
<trkpt lat="-27.2528688" lon="151.3586721">
  <ele>539.28</ele>
  <time>2026-09-01T20:01:41Z</time>
  <course>237.67</course>
  <speed>5.748912940721924</speed>
  <fix>3d</fix>
</trkpt>
<trkpt lat="-27.2528621" lon="151.358675">
  <ele>540.37</ele>
  <time>2026-09-01T20:01:41Z</time>
  <course>211.22</course>
  <speed>2.74</speed>
  <fix>3d</fix>
</trkpt>
<trkpt lat="-27.2528743" lon="151.3586708">
  <ele>538.86</ele>
  <time>2026-09-01T20:01:41Z</time>
  <course>232.84</course>
  <speed>6.801308697596368</speed>
  <fix>3d</fix>
</trkpt>
<trkpt lat="-27.2528691" lon="151.3586721">
  <ele>539.33</ele>
  <time>2026-09-01T20:01:41Z</time>
  <course>194.23</course>
  <speed>5.57</speed>
  <fix>3d</fix>
</trkpt>
<trkpt lat="-27.2528807" lon="151.3586693">
  <ele>538.54</ele>
  <time>2026-09-01T20:01:41Z</time>
  <course>229.23</course>
  <speed>7.571030312975903</speed>
  <fix>3d</fix>
</trkpt>
<trkpt lat="-27.2528691" lon="151.3586721">
  <ele>539.33</ele>
  <time>2026-09-01T20:01:41Z</time>
  <course>194.23</course>
  <speed>5.57</speed>
  <fix>3d</fix>
</trkpt>
<trkpt lat="-27.2528875" lon="151.3586671">
  <ele>538.35</ele>
  <time>2026-09-01T20:01:41Z</time>
  <course>226.82</course>
  <speed>8.03886807952463</speed>
  <fix>3d</fix>
</trkpt>
<trkpt lat="-27.2528806" lon="151.358669">
  <ele>538.61</ele>
  <time>2026-09-01T20:01:41Z</time>
  <course>194.75</course>
  <speed>7.39</speed>
  <fix>3d</fix>
</trkpt>
<trkpt lat="-27.2528944" lon="151.3586642">
  <ele>538.25</ele>
  <time>2026-09-01T20:01:41Z</time>
  <course>225.59</course>
  <speed>8.34640641234298</speed>
  <fix>3d</fix>
</trkpt>
<trkpt lat="-27.2528806" lon="151.358669">
  <ele>538.61</ele>
  <time>2026-09-01T20:01:41Z</time>
  <course>194.75</course>
  <speed>7.39</speed>
  <fix>3d</fix>
</trkpt>
<trkpt lat="-27.2529011" lon="151.3586602">
  <ele>538.2</ele>
  <time>2026-09-01T20:01:41Z</time>
  <course>225.66</course>
  <speed>8.672744663599868</speed>
  <fix>3d</fix>
</trkpt>
<trkpt lat="-27.252894" lon="151.3586638">
  <ele>538.27</ele>
  <time>2026-09-01T20:01:41Z</time>
  <course>204.54</course>
  <speed>8.29</speed>
  <fix>3d</fix>
</trkpt>
<trkpt lat="-27.2529077" lon="151.3586551">
  <ele>538.18</ele>
  <time>2026-09-01T20:01:41Z</time>
  <course>226.75</course>
  <speed>9.058487732508114</speed>
  <fix>3d</fix>
</trkpt>
<trkpt lat="-27.252894" lon="151.3586638">
  <ele>538.27</ele>
  <time>2026-09-01T20:01:41Z</time>
  <course>204.54</course>
  <speed>8.29</speed>
  <fix>3d</fix>
</trkpt>
<trkpt lat="-27.252914" lon="151.3586489">
  <ele>538.15</ele>
  <time>2026-09-01T20:01:41Z</time>
  <course>228.91</course>
  <speed>9.501310435934615</speed>
  <fix>3d</fix>
</trkpt>
<trkpt lat="-27.2529073" lon="151.3586548">
  <ele>538.17</ele>
  <time>2026-09-01T20:01:41Z</time>
  <course>217.21</course>
  <speed>9.02</speed>
  <fix>3d</fix>
</trkpt>
<trkpt lat="-27.2529202" lon="151.358642">
  <ele>538.1</ele>
  <time>2026-09-01T20:01:41Z</time>
  <course>231.91</course>
  <speed>9.98624053385457</speed>
  <fix>3d</fix>
</trkpt>
<trkpt lat="-27.2529073" lon="151.3586548">
  <ele>538.17</ele>
  <time>2026-09-01T20:01:41Z</time>
  <course>217.21</course>
  <speed>9.02</speed>
  <fix>3d</fix>
</trkpt>
<trkpt lat="-27.252926" lon="151.358634">
  <ele>538.04</ele>
  <time>2026-09-01T20:01:41Z</time>
  <course>235.47</course>
  <speed>10.516068657060014</speed>
  <fix>3d</fix>
</trkpt>
<trkpt lat="-27.2529198" lon="151.3586417">
  <ele>538.09</ele>
  <time>2026-09-01T20:01:41Z</time>
  <course>228.11</course>
  <speed>9.96</speed>
  <fix>3d</fix>
</trkpt>
<trkpt lat="-27.2529315" lon="151.358625">
  <ele>537.96</ele>
  <time>2026-09-01T20:01:41Z</time>
  <course>239.25</course>
  <speed>11.045886112032843</speed>
  <fix>3d</fix>
</trkpt>
<trkpt lat="-27.2529198" lon="151.3586417">
  <ele>538.09</ele>
  <time>2026-09-01T20:01:41Z</time>
  <course>228.11</course>
  <speed>9.96</speed>
  <fix>3d</fix>
</trkpt>
<trkpt lat="-27.2529367" lon="151.3586152">
  <ele>537.86</ele>
  <time>2026-09-01T20:01:41Z</time>
  <course>242.85</course>
  <speed>11.589823122032534</speed>
  <fix>3d</fix>
</trkpt>
<trkpt lat="-27.2529311" lon="151.3586248">
  <ele>537.94</ele>
  <time>2026-09-01T20:01:41Z</time>
  <course>237.24</course>
  <speed>11.0</speed>
  <fix>3d</fix>
</trkpt>
<trkpt lat="-27.2529415" lon="151.3586044">
  <ele>537.74</ele>
  <time>2026-09-01T20:01:41Z</time>
  <course>246.05</course>
  <speed>12.139431617666455</speed>
  <fix>3d</fix>
</trkpt>
<trkpt lat="-27.2529311" lon="151.3586248">
  <ele>537.94</ele>
  <time>2026-09-01T20:01:41Z</time>
  <course>237.24</course>
  <speed>11.0</speed>
  <fix>3d</fix>
</trkpt>
<trkpt lat="-27.2529458" lon="151.3585929">
  <ele>537.62</ele>
  <time>2026-09-01T20:01:41Z</time>
  <course>248.85</course>
  <speed>12.67269900218576</speed>
  <fix>3d</fix>
</trkpt>
<trkpt lat="-27.2529411" lon="151.3586044">
  <ele>537.74</ele>
  <time>2026-09-01T20:01:41Z</time>
  <course>245.18</course>
  <speed>12.09</speed>
  <fix>3d</fix>
</trkpt>
<trkpt lat="-27.2529497" lon="151.3585805">
  <ele>537.49</ele>
  <time>2026-09-01T20:01:41Z</time>
  <course>251.26</course>
  <speed>13.222318253619521</speed>
  <fix>3d</fix>
</trkpt>
<trkpt lat="-27.2529411" lon="151.3586044">
  <ele>537.74</ele>
  <time>2026-09-01T20:01:41Z</time>
  <course>245.18</course>
  <speed>12.09</speed>
  <fix>3d</fix>
</trkpt>
<trkpt lat="-27.2529531" lon="151.3585675">
  <ele>537.36</ele>
  <time>2026-09-01T20:01:41Z</time>
  <course>253.32</course>
  <speed>13.75536622558629</speed>
  <fix>3d</fix>
</trkpt>
<trkpt lat="-27.2529493" lon="151.3585805">
  <ele>537.49</ele>
  <time>2026-09-01T20:01:41Z</time>
  <course>252.05</course>
  <speed>13.18</speed>
  <fix>3d</fix>
</trkpt>
<trkpt lat="-27.252956" lon="151.3585536">
  <ele>537.25</ele>
  <time>2026-09-01T20:01:41Z</time>
  <course>255.24</course>
  <speed>14.288488373512434</speed>
  <fix>3d</fix>
</trkpt>
<trkpt lat="-27.2529493" lon="151.3585805">
  <ele>537.49</ele>
  <time>2026-09-01T20:01:41Z</time>
  <course>252.05</course>
  <speed>13.18</speed>
  <fix>3d</fix>
</trkpt>
<trkpt lat="-27.2529585" lon="151.3585393">
  <ele>537.14</ele>
  <time>2026-09-01T20:01:41Z</time>
  <course>257.07</course>
  <speed>14.796175181444696</speed>
  <fix>3d</fix>
</trkpt>
<trkpt lat="-27.2529556" lon="151.3585538">
  <ele>537.25</ele>
  <time>2026-09-01T20:01:41Z</time>
  <course>257.71</course>
  <speed>14.25</speed>
  <fix>3d</fix>
</trkpt>
<trkpt lat="-27.2529605" lon="151.3585242">
  <ele>537.04</ele>
  <time>2026-09-01T20:01:41Z</time>
  <course>258.79</course>
  <speed>15.300669919974093</speed>
  <fix>3d</fix>
</trkpt>
<trkpt lat="-27.2529556" lon="151.3585538">
  <ele>537.25</ele>
  <time>2026-09-01T20:01:41Z</time>
  <course>257.71</course>
  <speed>14.25</speed>
  <fix>3d</fix>
</trkpt>
<trkpt lat="-27.2529622" lon="151.3585086">
  <ele>536.95</ele>
  <time>2026-09-01T20:01:41Z</time>
  <course>260.41</course>
  <speed>15.798512588215385</speed>
  <fix>3d</fix>
</trkpt>
<trkpt lat="-27.2529602" lon="151.3585244">
  <ele>537.04</ele>
  <time>2026-09-01T20:01:41Z</time>
  <course>262.06</course>
  <speed>15.27</speed>
  <fix>3d</fix>
</trkpt>
<trkpt lat="-27.2529635" lon="151.3584924">
  <ele>536.88</ele>
  <time>2026-09-01T20:01:41Z</time>
  <course>261.92</course>
  <speed>16.272012782689178</speed>
  <fix>3d</fix>
</trkpt>
<trkpt lat="-27.2529602" lon="151.3585244">
  <ele>537.04</ele>
  <time>2026-09-01T20:01:41Z</time>
  <course>262.06</course>
  <speed>15.27</speed>
  <fix>3d</fix>
</trkpt>
<trkpt lat="-27.2529645" lon="151.3584759">
  <ele>536.82</ele>
  <time>2026-09-01T20:01:41Z</time>
  <course>263.36</course>
  <speed>16.736983001724056</speed>
  <fix>3d</fix>
</trkpt>
<trkpt lat="-27.2529633" lon="151.3584928">
  <ele>536.88</ele>
  <time>2026-09-01T20:01:41Z</time>
  <course>265.31</course>
  <speed>16.25</speed>
  <fix>3d</fix>
</trkpt>
<trkpt lat="-27.2529653" lon="151.3584587">
  <ele>536.77</ele>
  <time>2026-09-01T20:01:41Z</time>
  <course>264.62</course>
  <speed>17.19229187746648</speed>
  <fix>3d</fix>
</trkpt>
<trkpt lat="-27.2529633" lon="151.3584928">
  <ele>536.88</ele>
  <time>2026-09-01T20:01:41Z</time>
  <course>265.31</course>
  <speed>16.25</speed>
  <fix>3d</fix>
</trkpt>
<trkpt lat="-27.2529657" lon="151.3584411">
  <ele>536.74</ele>
  <time>2026-09-01T20:01:41Z</time>
  <course>265.62</course>
  <speed>17.62409713999557</speed>
  <fix>3d</fix>
</trkpt>
<trkpt lat="-27.2529651" lon="151.358459">
  <ele>536.78</ele>
  <time>2026-09-01T20:01:41Z</time>
  <course>267.72</course>
  <speed>17.16</speed>
  <fix>3d</fix>
</trkpt>
<trkpt lat="-27.252966" lon="151.358423">
  <ele>536.72</ele>
  <time>2026-09-01T20:01:41Z</time>
  <course>266.46</course>
  <speed>18.040543229071567</speed>
  <fix>3d</fix>
</trkpt>
<trkpt lat="-27.2529651" lon="151.358459">
  <ele>536.78</ele>
  <time>2026-09-01T20:01:41Z</time>
  <course>267.72</course>
  <speed>17.16</speed>
  <fix>3d</fix>
</trkpt>
<trkpt lat="-27.252966" lon="151.3584047">
  <ele>536.72</ele>
  <time>2026-09-01T20:01:41Z</time>
  <course>267.23</course>
  <speed>18.450067750553114</speed>
  <fix>3d</fix>
</trkpt>
<trkpt lat="-27.2529658" lon="151.3584234">
  <ele>536.73</ele>
  <time>2026-09-01T20:01:41Z</time>
  <course>269.44</course>
  <speed>18.02</speed>
  <fix>3d</fix>
</trkpt>
<trkpt lat="-27.2529659" lon="151.3583859">
  <ele>536.73</ele>
  <time>2026-09-01T20:01:41Z</time>
  <course>268.01</course>
  <speed>18.841170345814508</speed>
  <fix>3d</fix>
</trkpt>
<trkpt lat="-27.2529658" lon="151.3584234">
  <ele>536.73</ele>
  <time>2026-09-01T20:01:41Z</time>
  <course>269.44</course>
  <speed>18.02</speed>
  <fix>3d</fix>
</trkpt>
<trkpt lat="-27.2529657" lon="151.3583665">
  <ele>536.76</ele>
  <time>2026-09-01T20:01:41Z</time>
  <course>268.68</course>
  <speed>19.213008613957367</speed>
  <fix>3d</fix>
</trkpt>
<trkpt lat="-27.2529658" lon="151.3584234">
  <ele>536.73</ele>
  <time>2026-09-01T20:01:41Z</time>
  <course>269.44</course>
  <speed>18.02</speed>
  <fix>3d</fix>
</trkpt>
<trkpt lat="-27.2529654" lon="151.3583469">
  <ele>536.79</ele>
  <time>2026-09-01T20:01:41Z</time>
  <course>269.28</course>
  <speed>19.57517305159778</speed>
  <fix>3d</fix>
</trkpt>
<trkpt lat="-27.2529658" lon="151.3583861">
  <ele>536.74</ele>
  <time>2026-09-01T20:01:41Z</time>
  <course>270.58</course>
  <speed>18.82</speed>
  <fix>3d</fix>
</trkpt>
<trkpt lat="-27.2529649" lon="151.3583271">
  <ele>536.86</ele>
  <time>2026-09-01T20:01:41Z</time>
  <course>269.83</course>
  <speed>19.91759523637329</speed>
  <fix>3d</fix>
</trkpt>
<trkpt lat="-27.2529658" lon="151.3583861">
  <ele>536.74</ele>
  <time>2026-09-01T20:01:41Z</time>
  <course>270.58</course>
  <speed>18.82</speed>
  <fix>3d</fix>
</trkpt>
<trkpt lat="-27.2529644" lon="151.3583066">
  <ele>536.93</ele>
  <time>2026-09-01T20:01:41Z</time>
  <course>270.3</course>
  <speed>20.259797629788903</speed>
  <fix>3d</fix>
</trkpt>
<trkpt lat="-27.2529653" lon="151.3583473">
  <ele>536.81</ele>
  <time>2026-09-01T20:01:41Z</time>
  <course>271.31</course>
  <speed>19.56</speed>
  <fix>3d</fix>
</trkpt>
<trkpt lat="-27.2529637" lon="151.358286">
  <ele>537.0</ele>
  <time>2026-09-01T20:01:41Z</time>
  <course>270.73</course>
  <speed>20.581907103084497</speed>
  <fix>3d</fix>
</trkpt>
<trkpt lat="-27.2529643" lon="151.3583071">
  <ele>536.93</ele>
  <time>2026-09-01T20:01:41Z</time>
  <course>271.78</course>
  <speed>20.24</speed>
  <fix>3d</fix>
</trkpt>
<trkpt lat="-27.2529631" lon="151.358265">
  <ele>537.08</ele>
  <time>2026-09-01T20:01:41Z</time>
  <course>271.23</course>
  <speed>20.864213380810693</speed>
  <fix>3d</fix>
</trkpt>
<trkpt lat="-27.2529643" lon="151.3583071">
  <ele>536.93</ele>
  <time>2026-09-01T20:01:41Z</time>
  <course>271.78</course>
  <speed>20.24</speed>
  <fix>3d</fix>
</trkpt>
<trkpt lat="-27.2529624" lon="151.3582439">
  <ele>537.16</ele>
  <time>2026-09-01T20:01:41Z</time>
  <course>271.59</course>
  <speed>21.126705848285955</speed>
  <fix>3d</fix>
</trkpt>
<trkpt lat="-27.2529631" lon="151.3582656">
  <ele>537.07</ele>
  <time>2026-09-01T20:01:41Z</time>
  <course>272.13</course>
  <speed>20.84</speed>
  <fix>3d</fix>
</trkpt>
<trkpt lat="-27.2529616" lon="151.3582224">
  <ele>537.23</ele>
  <time>2026-09-01T20:01:41Z</time>
  <course>271.71</course>
  <speed>21.358970012619988</speed>
  <fix>3d</fix>
</trkpt>
<trkpt lat="-27.2529631" lon="151.3582656">
  <ele>537.07</ele>
  <time>2026-09-01T20:01:41Z</time>
  <course>272.13</course>
  <speed>20.84</speed>
  <fix>3d</fix>
</trkpt>
<trkpt lat="-27.2529607" lon="151.3582008">
  <ele>537.29</ele>
  <time>2026-09-01T20:01:41Z</time>
  <course>271.8</course>
  <speed>21.550948935023722</speed>
  <fix>3d</fix>
</trkpt>
<trkpt lat="-27.2529616" lon="151.358223">
  <ele>537.22</ele>
  <time>2026-09-01T20:01:41Z</time>
  <course>272.41</course>
  <speed>21.34</speed>
  <fix>3d</fix>
</trkpt>
<trkpt lat="-27.2529599" lon="151.3581788">
  <ele>537.33</ele>
  <time>2026-09-01T20:01:41Z</time>
  <course>271.93</course>
  <speed>21.732560824716447</speed>
  <fix>3d</fix>
</trkpt>
<trkpt lat="-27.2529616" lon="151.358223">
  <ele>537.22</ele>
  <time>2026-09-01T20:01:41Z</time>
  <course>272.41</course>
  <speed>21.34</speed>
  <fix>3d</fix>
</trkpt>
<trkpt lat="-27.2529589" lon="151.3581568">
  <ele>537.36</ele>
  <time>2026-09-01T20:01:41Z</time>
  <course>272.03</course>
  <speed>21.874263416170155</speed>
  <fix>3d</fix>
</trkpt>
<trkpt lat="-27.2529599" lon="151.3581796">
  <ele>537.32</ele>
  <time>2026-09-01T20:01:41Z</time>
  <course>272.61</course>
  <speed>21.71</speed>
  <fix>3d</fix>
</trkpt>
<trkpt lat="-27.252958" lon="151.3581347">
  <ele>537.38</ele>
  <time>2026-09-01T20:01:41Z</time>
  <course>272.11</course>
  <speed>21.98508812809264</speed>
  <fix>3d</fix>
</trkpt>
<trkpt lat="-27.2529599" lon="151.3581796">
  <ele>537.32</ele>
  <time>2026-09-01T20:01:41Z</time>
  <course>272.61</course>
  <speed>21.71</speed>
  <fix>3d</fix>
</trkpt>
<trkpt lat="-27.252957" lon="151.3581126">
  <ele>537.37</ele>
  <time>2026-09-01T20:01:41Z</time>
  <course>272.21</course>
  <speed>22.05596971343586</speed>
  <fix>3d</fix>
</trkpt>
<trkpt lat="-27.252958" lon="151.3581355">
  <ele>537.36</ele>
  <time>2026-09-01T20:01:41Z</time>
  <course>272.75</course>
  <speed>21.96</speed>
  <fix>3d</fix>
</trkpt>
<trkpt lat="-27.2529561" lon="151.3580902">
  <ele>537.36</ele>
  <time>2026-09-01T20:01:41Z</time>
  <course>272.31</course>
  <speed>22.116875909585424</speed>
  <fix>3d</fix>
</trkpt>
<trkpt lat="-27.252958" lon="151.3581355">
  <ele>537.36</ele>
  <time>2026-09-01T20:01:41Z</time>
  <course>272.75</course>
  <speed>21.96</speed>
  <fix>3d</fix>
</trkpt>
<trkpt lat="-27.2529551" lon="151.3580678">
  <ele>537.32</ele>
  <time>2026-09-01T20:01:41Z</time>
  <course>272.37</course>
  <speed>22.167807740054045</speed>
  <fix>3d</fix>
</trkpt>
<trkpt lat="-27.2529561" lon="151.358091">
  <ele>537.35</ele>
  <time>2026-09-01T20:01:41Z</time>
  <course>272.83</course>
  <speed>22.11</speed>
  <fix>3d</fix>
</trkpt>
<trkpt lat="-27.2529541" lon="151.3580455">
  <ele>537.28</ele>
  <time>2026-09-01T20:01:41Z</time>
  <course>272.44</course>
  <speed>22.198272455306064</speed>
  <fix>3d</fix>
</trkpt>
<trkpt lat="-27.2529561" lon="151.358091">
  <ele>537.35</ele>
  <time>2026-09-01T20:01:41Z</time>
  <course>272.83</course>
  <speed>22.11</speed>
  <fix>3d</fix>
</trkpt>
<trkpt lat="-27.2529531" lon="151.3580231">
  <ele>537.22</ele>
  <time>2026-09-01T20:01:41Z</time>
  <course>272.55</course>
  <speed>22.218753340365428</speed>
  <fix>3d</fix>
</trkpt>
<trkpt lat="-27.252954" lon="151.3580463">
  <ele>537.28</ele>
  <time>2026-09-01T20:01:41Z</time>
  <course>272.89</course>
  <speed>22.19</speed>
  <fix>3d</fix>
</trkpt>
<trkpt lat="-27.252952" lon="151.3580007">
  <ele>537.16</ele>
  <time>2026-09-01T20:01:41Z</time>
  <course>272.64</course>
  <speed>22.238727481580412</speed>
  <fix>3d</fix>
</trkpt>
<trkpt lat="-27.252954" lon="151.3580463">
  <ele>537.28</ele>
  <time>2026-09-01T20:01:41Z</time>
  <course>272.89</course>
  <speed>22.19</speed>
  <fix>3d</fix>
</trkpt>
<trkpt lat="-27.252951" lon="151.3579782">
  <ele>537.09</ele>
  <time>2026-09-01T20:01:41Z</time>
  <course>272.7</course>
  <speed>22.259211576333964</speed>
  <fix>3d</fix>
</trkpt>
<trkpt lat="-27.252952" lon="151.3580014">
  <ele>537.16</ele>
  <time>2026-09-01T20:01:41Z</time>
  <course>272.93</course>
  <speed>22.24</speed>
  <fix>3d</fix>
</trkpt>
<trkpt lat="-27.25295" lon="151.3579557">
  <ele>537.01</ele>
  <time>2026-09-01T20:01:41Z</time>
  <course>272.72</course>
  <speed>22.289172259193474</speed>
  <fix>3d</fix>
</trkpt>
<trkpt lat="-27.252952" lon="151.3580014">
  <ele>537.16</ele>
  <time>2026-09-01T20:01:41Z</time>
  <course>272.93</course>
  <speed>22.24</speed>
  <fix>3d</fix>
</trkpt>
<trkpt lat="-27.2529489" lon="151.3579332">
  <ele>536.93</ele>
  <time>2026-09-01T20:01:41Z</time>
  <course>272.74</course>
  <speed>22.30965934298415</speed>
  <fix>3d</fix>
</trkpt>
<trkpt lat="-27.25295" lon="151.3579565">
  <ele>537.01</ele>
  <time>2026-09-01T20:01:41Z</time>
  <course>272.95</course>
  <speed>22.29</speed>
  <fix>3d</fix>
</trkpt>
<trkpt lat="-27.2529479" lon="151.3579107">
  <ele>536.85</ele>
  <time>2026-09-01T20:01:41Z</time>
  <course>272.78</course>
  <speed>22.339619513322063</speed>
  <fix>3d</fix>
</trkpt>
<trkpt lat="-27.25295" lon="151.3579565">
  <ele>537.01</ele>
  <time>2026-09-01T20:01:41Z</time>
  <course>272.95</course>
  <speed>22.29</speed>
  <fix>3d</fix>
</trkpt>
<trkpt lat="-27.2529469" lon="151.3578882">
  <ele>536.77</ele>
  <time>2026-09-01T20:01:41Z</time>
  <course>272.8</course>
  <speed>22.359080929233205</speed>
  <fix>3d</fix>
</trkpt>
<trkpt lat="-27.25295" lon="151.3579565">
  <ele>537.01</ele>
  <time>2026-09-01T20:01:41Z</time>
  <course>272.95</course>
  <speed>22.29</speed>
  <fix>3d</fix>
</trkpt>
<trkpt lat="-27.2529458" lon="151.3578656">
  <ele>536.69</ele>
  <time>2026-09-01T20:01:41Z</time>
  <course>272.77</course>
  <speed>22.389041962531582</speed>
  <fix>3d</fix>
</trkpt>
<trkpt lat="-27.2529479" lon="151.3579113">
  <ele>536.85</ele>
  <time>2026-09-01T20:01:41Z</time>
  <course>272.95</course>
  <speed>22.34</speed>
  <fix>3d</fix>
</trkpt>
<trkpt lat="-27.2529448" lon="151.357843">
  <ele>536.62</ele>
  <time>2026-09-01T20:01:41Z</time>
  <course>272.77</course>
  <speed>22.408509544367295</speed>
  <fix>3d</fix>
</trkpt>
<trkpt lat="-27.2529479" lon="151.3579113">
  <ele>536.85</ele>
  <time>2026-09-01T20:01:41Z</time>
  <course>272.95</course>
  <speed>22.34</speed>
  <fix>3d</fix>
</trkpt>
<trkpt lat="-27.2529438" lon="151.3578197">
  <ele>536.54</ele>
  <time>2026-09-01T20:01:41Z</time>
  <course>272.75</course>
  <speed>22.42798252184088</speed>
  <fix>3d</fix>
</trkpt>
<trkpt lat="-27.2529458" lon="151.3578662">
  <ele>536.69</ele>
  <time>2026-09-01T20:01:41Z</time>
  <course>272.92</course>
  <speed>22.38</speed>
  <fix>3d</fix>
</trkpt>
<trkpt lat="-27.2529428" lon="151.357797">
  <ele>536.49</ele>
  <time>2026-09-01T20:01:41Z</time>
  <course>272.71</course>
  <speed>22.436980634657598</speed>
  <fix>3d</fix>
</trkpt>
<trkpt lat="-27.2529458" lon="151.3578662">
  <ele>536.69</ele>
  <time>2026-09-01T20:01:41Z</time>
  <course>272.92</course>
  <speed>22.38</speed>
  <fix>3d</fix>
</trkpt>
<trkpt lat="-27.2529418" lon="151.3577743">
  <ele>536.44</ele>
  <time>2026-09-01T20:01:41Z</time>
  <course>272.67</course>
  <speed>22.44648079321122</speed>
  <fix>3d</fix>
</trkpt>
<trkpt lat="-27.2529438" lon="151.357821">
  <ele>536.55</ele>
  <time>2026-09-01T20:01:41Z</time>
  <course>272.86</course>
  <speed>22.42</speed>
  <fix>3d</fix>
</trkpt>
<trkpt lat="-27.2529408" lon="151.3577517">
  <ele>536.39</ele>
  <time>2026-09-01T20:01:41Z</time>
  <course>272.68</course>
  <speed>22.455507119635485</speed>
  <fix>3d</fix>
</trkpt>
<trkpt lat="-27.2529438" lon="151.357821">
  <ele>536.55</ele>
  <time>2026-09-01T20:01:41Z</time>
  <course>272.86</course>
  <speed>22.42</speed>
  <fix>3d</fix>
</trkpt>
<trkpt lat="-27.2529399" lon="151.3577291">
  <ele>536.34</ele>
  <time>2026-09-01T20:01:41Z</time>
  <course>272.68</course>
  <speed>22.45503284344069</speed>
  <fix>3d</fix>
</trkpt>
<trkpt lat="-27.2529418" lon="151.3577757">
  <ele>536.44</ele>
  <time>2026-09-01T20:01:41Z</time>
  <course>272.78</course>
  <speed>22.44</speed>
  <fix>3d</fix>
</trkpt>
<trkpt lat="-27.2529389" lon="151.3577063">
  <ele>536.29</ele>
  <time>2026-09-01T20:01:41Z</time>
  <course>272.6</course>
  <speed>22.464086894418834</speed>
  <fix>3d</fix>
</trkpt>
<trkpt lat="-27.2529418" lon="151.3577757">
  <ele>536.44</ele>
  <time>2026-09-01T20:01:41Z</time>
  <course>272.78</course>
  <speed>22.44</speed>
  <fix>3d</fix>
</trkpt>
<trkpt lat="-27.252938" lon="151.3576843">
  <ele>536.26</ele>
  <time>2026-09-01T20:01:41Z</time>
  <course>272.52</course>
  <speed>22.463169856456147</speed>
  <fix>3d</fix>
</trkpt>
<trkpt lat="-27.2529399" lon="151.3577303">
  <ele>536.34</ele>
  <time>2026-09-01T20:01:41Z</time>
  <course>272.7</course>
  <speed>22.46</speed>
  <fix>3d</fix>
</trkpt>
<trkpt lat="-27.2529371" lon="151.3576616">
  <ele>536.22</ele>
  <time>2026-09-01T20:01:41Z</time>
  <course>272.49</course>
  <speed>22.472260678445327</speed>
  <fix>3d</fix>
</trkpt>
<trkpt lat="-27.252938" lon="151.357685">
  <ele>536.26</ele>
  <time>2026-09-01T20:01:41Z</time>
  <course>272.6</course>
  <speed>22.47</speed>
  <fix>3d</fix>
</trkpt>
<trkpt lat="-27.2529362" lon="151.357639">
  <ele>536.18</ele>
  <time>2026-09-01T20:01:41Z</time>
  <course>272.45</course>
  <speed>22.47137957491707</speed>
  <fix>3d</fix>
</trkpt>
<trkpt lat="-27.252938" lon="151.357685">
  <ele>536.26</ele>
  <time>2026-09-01T20:01:41Z</time>
  <course>272.6</course>
  <speed>22.47</speed>
  <fix>3d</fix>
</trkpt>
<trkpt lat="-27.2529353" lon="151.3576163">
  <ele>536.14</ele>
  <time>2026-09-01T20:01:41Z</time>
  <course>272.43</course>
  <speed>22.48008229522303</speed>
  <fix>3d</fix>
</trkpt>
<trkpt lat="-27.2529362" lon="151.3576397">
  <ele>536.18</ele>
  <time>2026-09-01T20:01:41Z</time>
  <course>272.49</course>
  <speed>22.47</speed>
  <fix>3d</fix>
</trkpt>
<trkpt lat="-27.2529345" lon="151.3575936">
  <ele>536.1</ele>
  <time>2026-09-01T20:01:41Z</time>
  <course>272.41</course>
  <speed>22.48923742593332</speed>
  <fix>3d</fix>
</trkpt>
<trkpt lat="-27.2529362" lon="151.3576397">
  <ele>536.18</ele>
  <time>2026-09-01T20:01:41Z</time>
  <course>272.49</course>
  <speed>22.47</speed>
  <fix>3d</fix>
</trkpt>
<trkpt lat="-27.2529337" lon="151.3575708">
  <ele>536.04</ele>
  <time>2026-09-01T20:01:41Z</time>
  <course>272.36</course>
  <speed>22.508402875370788</speed>
  <fix>3d</fix>
</trkpt>
<trkpt lat="-27.2529345" lon="151.3575943">
  <ele>536.09</ele>
  <time>2026-09-01T20:01:41Z</time>
  <course>272.39</course>
  <speed>22.49</speed>
  <fix>3d</fix>
</trkpt>
<trkpt lat="-27.2529328" lon="151.3575481">
  <ele>536.0</ele>
  <time>2026-09-01T20:01:41Z</time>
  <course>272.29</course>
  <speed>22.537976839104257</speed>
  <fix>3d</fix>
</trkpt>
<trkpt lat="-27.2529345" lon="151.3575943">
  <ele>536.09</ele>
  <time>2026-09-01T20:01:41Z</time>
  <course>272.39</course>
  <speed>22.49</speed>
  <fix>3d</fix>
</trkpt>
<trkpt lat="-27.252932" lon="151.3575253">
  <ele>535.95</ele>
  <time>2026-09-01T20:01:41Z</time>
  <course>272.3</course>
  <speed>22.557171808540183</speed>
  <fix>3d</fix>
</trkpt>
<trkpt lat="-27.2529329" lon="151.3575488">
  <ele>536.0</ele>
  <time>2026-09-01T20:01:41Z</time>
  <course>272.29</course>
  <speed>22.53</speed>
  <fix>3d</fix>
</trkpt>
<trkpt lat="-27.2529312" lon="151.3575026">
  <ele>535.9</ele>
  <time>2026-09-01T20:01:41Z</time>
  <course>272.32</course>
  <speed>22.586378638462605</speed>
  <fix>3d</fix>
</trkpt>
<trkpt lat="-27.2529329" lon="151.3575488">
  <ele>536.0</ele>
  <time>2026-09-01T20:01:41Z</time>
  <course>272.29</course>
  <speed>22.53</speed>
  <fix>3d</fix>
</trkpt>
<trkpt lat="-27.2529305" lon="151.3574798">
  <ele>535.84</ele>
  <time>2026-09-01T20:01:41Z</time>
  <course>272.26</course>
  <speed>22.615978864510815</speed>
  <fix>3d</fix>
</trkpt>
<trkpt lat="-27.2529313" lon="151.3575033">
  <ele>535.89</ele>
  <time>2026-09-01T20:01:41Z</time>
  <course>272.2</course>
  <speed>22.58</speed>
  <fix>3d</fix>
</trkpt>
<trkpt lat="-27.2529297" lon="151.3574569">
  <ele>535.78</ele>
  <time>2026-09-01T20:01:41Z</time>
  <course>272.18</course>
  <speed>22.645215830280794</speed>
  <fix>3d</fix>
</trkpt>
<trkpt lat="-27.2529313" lon="151.3575033">
  <ele>535.89</ele>
  <time>2026-09-01T20:01:41Z</time>
  <course>272.2</course>
  <speed>22.58</speed>
  <fix>3d</fix>
</trkpt>
<trkpt lat="-27.252929" lon="151.3574339">
  <ele>535.72</ele>
  <time>2026-09-01T20:01:41Z</time>
  <course>272.15</course>
  <speed>22.67483186266218</speed>
  <fix>3d</fix>
</trkpt>
<trkpt lat="-27.2529313" lon="151.3575033">
  <ele>535.89</ele>
  <time>2026-09-01T20:01:41Z</time>
  <course>272.2</course>
  <speed>22.58</speed>
  <fix>3d</fix>
</trkpt>
<trkpt lat="-27.2529282" lon="151.3574111">
  <ele>535.66</ele>
  <time>2026-09-01T20:01:41Z</time>
  <course>272.09</course>
  <speed>22.714092541856033</speed>
  <fix>3d</fix>
</trkpt>
<trkpt lat="-27.2529297" lon="151.3574575">
  <ele>535.78</ele>
  <time>2026-09-01T20:01:41Z</time>
  <course>272.12</course>
  <speed>22.64</speed>
  <fix>3d</fix>
</trkpt>
<trkpt lat="-27.2529275" lon="151.3573882">
  <ele>535.6</ele>
  <time>2026-09-01T20:01:41Z</time>
  <course>272.07</course>
  <speed>22.763712351020427</speed>
  <fix>3d</fix>
</trkpt>
<trkpt lat="-27.2529297" lon="151.3574575">
  <ele>535.78</ele>
  <time>2026-09-01T20:01:41Z</time>
  <course>272.12</course>
  <speed>22.64</speed>
  <fix>3d</fix>
</trkpt>
<trkpt lat="-27.2529268" lon="151.3573652">
  <ele>535.53</ele>
  <time>2026-09-01T20:01:41Z</time>
  <course>272.04</course>
  <speed>22.803344053011173</speed>
  <fix>3d</fix>
</trkpt>
<trkpt lat="-27.2529282" lon="151.3574116">
  <ele>535.66</ele>
  <time>2026-09-01T20:01:41Z</time>
  <course>272.04</course>
  <speed>22.72</speed>
  <fix>3d</fix>
</trkpt>
<trkpt lat="-27.2529261" lon="151.3573413">
  <ele>535.47</ele>
  <time>2026-09-01T20:01:41Z</time>
  <course>272.03</course>
  <speed>22.85264098523407</speed>
  <fix>3d</fix>
</trkpt>
<trkpt lat="-27.2529282" lon="151.3574116">
  <ele>535.66</ele>
  <time>2026-09-01T20:01:41Z</time>
  <course>272.04</course>
  <speed>22.72</speed>
  <fix>3d</fix>
</trkpt>
<trkpt lat="-27.2529254" lon="151.3573181">
  <ele>535.4</ele>
  <time>2026-09-01T20:01:41Z</time>
  <course>271.94</course>
  <speed>22.89261889780197</speed>
  <fix>3d</fix>
</trkpt>
<trkpt lat="-27.2529268" lon="151.3573657">
  <ele>535.53</ele>
  <time>2026-09-01T20:01:41Z</time>
  <course>271.96</course>
  <speed>22.8</speed>
  <fix>3d</fix>
</trkpt>
<trkpt lat="-27.2529247" lon="151.357295">
  <ele>535.34</ele>
  <time>2026-09-01T20:01:41Z</time>
  <course>271.89</course>
  <speed>22.941937581642925</speed>
  <fix>3d</fix>
</trkpt>
<trkpt lat="-27.2529268" lon="151.3573657">
  <ele>535.53</ele>
  <time>2026-09-01T20:01:41Z</time>
  <course>271.96</course>
  <speed>22.8</speed>
  <fix>3d</fix>
</trkpt>
<trkpt lat="-27.2529241" lon="151.3572719">
  <ele>535.28</ele>
  <time>2026-09-01T20:01:41Z</time>
  <course>271.89</course>
  <speed>22.991591941403275</speed>
  <fix>3d</fix>
</trkpt>
<trkpt lat="-27.2529254" lon="151.3573195">
  <ele>535.4</ele>
  <time>2026-09-01T20:01:41Z</time>
  <course>271.89</course>
  <speed>22.89</speed>
  <fix>3d</fix>
</trkpt>
<trkpt lat="-27.2529234" lon="151.3572486">
  <ele>535.22</ele>
  <time>2026-09-01T20:01:41Z</time>
  <course>271.87</course>
  <speed>23.041252136114476</speed>
  <fix>3d</fix>
</trkpt>
<trkpt lat="-27.2529254" lon="151.3573195">
  <ele>535.4</ele>
  <time>2026-09-01T20:01:41Z</time>
  <course>271.89</course>
  <speed>22.89</speed>
  <fix>3d</fix>
</trkpt>
<trkpt lat="-27.2529228" lon="151.3572254">
  <ele>535.16</ele>
  <time>2026-09-01T20:01:41Z</time>
  <course>271.8</course>
  <speed>23.090918128129942</speed>
  <fix>3d</fix>
</trkpt>
<trkpt lat="-27.2529241" lon="151.3572732">
  <ele>535.28</ele>
  <time>2026-09-01T20:01:41Z</time>
  <course>271.83</course>
  <speed>22.99</speed>
  <fix>3d</fix>
</trkpt>
<trkpt lat="-27.2529221" lon="151.357202">
  <ele>535.1</ele>
  <time>2026-09-01T20:01:41Z</time>
  <course>271.77</course>
  <speed>23.15058530577575</speed>
  <fix>3d</fix>
</trkpt>
<trkpt lat="-27.2529241" lon="151.3572732">
  <ele>535.28</ele>
  <time>2026-09-01T20:01:41Z</time>
  <course>271.83</course>
  <speed>22.99</speed>
  <fix>3d</fix>
</trkpt>
<trkpt lat="-27.2529215" lon="151.3571786">
  <ele>535.0</ele>
  <time>2026-09-01T20:01:41Z</time>
  <course>271.79</course>
  <speed>23.200262929544568</speed>
  <fix>3d</fix>
</trkpt>
<trkpt lat="-27.2529228" lon="151.3572267">
  <ele>535.16</ele>
  <time>2026-09-01T20:01:41Z</time>
  <course>271.77</course>
  <speed>23.09</speed>
  <fix>3d</fix>
</trkpt>
<trkpt lat="-27.2529209" lon="151.3571551">
  <ele>534.88</ele>
  <time>2026-09-01T20:01:41Z</time>
  <course>271.79</course>
  <speed>23.279933419148776</speed>
  <fix>3d</fix>
</trkpt>
<trkpt lat="-27.2529228" lon="151.3572267">
  <ele>535.16</ele>
  <time>2026-09-01T20:01:41Z</time>
  <course>271.77</course>
  <speed>23.09</speed>
  <fix>3d</fix>
</trkpt>
<trkpt lat="-27.2529203" lon="151.3571316">
  <ele>534.73</ele>
  <time>2026-09-01T20:01:41Z</time>
  <course>271.72</course>
  <speed>23.359899400468315</speed>
  <fix>3d</fix>
</trkpt>
<trkpt lat="-27.2529215" lon="151.3571799">
  <ele>534.99</ele>
  <time>2026-09-01T20:01:41Z</time>
  <course>271.72</course>
  <speed>23.21</speed>
  <fix>3d</fix>
</trkpt>
<trkpt lat="-27.2529197" lon="151.3571079">
  <ele>534.59</ele>
  <time>2026-09-01T20:01:41Z</time>
  <course>271.7</course>
  <speed>23.449289967928667</speed>
  <fix>3d</fix>
</trkpt>
<trkpt lat="-27.2529215" lon="151.3571799">
  <ele>534.99</ele>
  <time>2026-09-01T20:01:41Z</time>
  <course>271.72</course>
  <speed>23.21</speed>
  <fix>3d</fix>
</trkpt>
<trkpt lat="-27.2529191" lon="151.3570842">
  <ele>534.44</ele>
  <time>2026-09-01T20:01:41Z</time>
  <course>271.7</course>
  <speed>23.53897618844116</speed>
  <fix>3d</fix>
</trkpt>
<trkpt lat="-27.2529203" lon="151.3571329">
  <ele>534.74</ele>
  <time>2026-09-01T20:01:41Z</time>
  <course>271.66</course>
  <speed>23.36</speed>
  <fix>3d</fix>
</trkpt>
<trkpt lat="-27.2529185" lon="151.3570604">
  <ele>534.29</ele>
  <time>2026-09-01T20:01:41Z</time>
  <course>271.7</course>
  <speed>23.638665359956345</speed>
  <fix>3d</fix>
</trkpt>
<trkpt lat="-27.2529203" lon="151.3571329">
  <ele>534.74</ele>
  <time>2026-09-01T20:01:41Z</time>
  <course>271.66</course>
  <speed>23.36</speed>
  <fix>3d</fix>
</trkpt>
<trkpt lat="-27.2529179" lon="151.357037">
  <ele>534.16</ele>
  <time>2026-09-01T20:01:41Z</time>
  <course>271.65</course>
  <speed>23.718636132796505</speed>
  <fix>3d</fix>
</trkpt>
<trkpt lat="-27.2529191" lon="151.3570855">
  <ele>534.45</ele>
  <time>2026-09-01T20:01:41Z</time>
  <course>271.6</course>
  <speed>23.54</speed>
  <fix>3d</fix>
</trkpt>
<trkpt lat="-27.2529173" lon="151.3570131">
  <ele>534.04</ele>
  <time>2026-09-01T20:01:41Z</time>
  <course>271.58</course>
  <speed>23.808336775171842</speed>
  <fix>3d</fix>
</trkpt>
<trkpt lat="-27.2529179" lon="151.3570378">
  <ele>534.18</ele>
  <time>2026-09-01T20:01:41Z</time>
  <course>271.55</course>
  <speed>23.72</speed>
  <fix>3d</fix>
</trkpt>
<trkpt lat="-27.2529168" lon="151.356989">
  <ele>533.95</ele>
  <time>2026-09-01T20:01:41Z</time>
  <course>271.62</course>
  <speed>23.89830537925231</speed>
  <fix>3d</fix>
</trkpt>
<trkpt lat="-27.2529179" lon="151.3570378">
  <ele>534.18</ele>
  <time>2026-09-01T20:01:41Z</time>
  <course>271.55</course>
  <speed>23.72</speed>
  <fix>3d</fix>
</trkpt>
<trkpt lat="-27.2529162" lon="151.3569647">
  <ele>533.85</ele>
  <time>2026-09-01T20:01:41Z</time>
  <course>271.67</course>
  <speed>23.978277669590867</speed>
  <fix>3d</fix>
</trkpt>
<trkpt lat="-27.2529167" lon="151.3569897">
  <ele>533.95</ele>
  <time>2026-09-01T20:01:41Z</time>
  <course>271.52</course>
  <speed>23.89</speed>
  <fix>3d</fix>
</trkpt>
<trkpt lat="-27.2529156" lon="151.3569406">
  <ele>533.78</ele>
  <time>2026-09-01T20:01:41Z</time>
  <course>271.62</course>
  <speed>24.05825014418131</speed>
  <fix>3d</fix>
</trkpt>
<trkpt lat="-27.2529167" lon="151.3569897">
  <ele>533.95</ele>
  <time>2026-09-01T20:01:41Z</time>
  <course>271.52</course>
  <speed>23.89</speed>
  <fix>3d</fix>
</trkpt>
<trkpt lat="-27.2529151" lon="151.3569162">
  <ele>533.71</ele>
  <time>2026-09-01T20:01:41Z</time>
  <course>271.52</course>
  <speed>24.127967175043988</speed>
  <fix>3d</fix>
</trkpt>
<trkpt lat="-27.2529167" lon="151.3569897">
  <ele>533.95</ele>
  <time>2026-09-01T20:01:41Z</time>
  <course>271.52</course>
  <speed>23.89</speed>
  <fix>3d</fix>
</trkpt>
<trkpt lat="-27.2529145" lon="151.3568918">
  <ele>533.65</ele>
  <time>2026-09-01T20:01:41Z</time>
  <course>271.44</course>
  <speed>24.19794412754935</speed>
  <fix>3d</fix>
</trkpt>
<trkpt lat="-27.2529156" lon="151.3569412">
  <ele>533.78</ele>
  <time>2026-09-01T20:01:41Z</time>
  <course>271.5</course>
  <speed>24.05</speed>
  <fix>3d</fix>
</trkpt>
<trkpt lat="-27.2529139" lon="151.3568673">
  <ele>533.6</ele>
  <time>2026-09-01T20:01:41Z</time>
  <course>271.48</course>
  <speed>24.267667790704568</speed>
  <fix>3d</fix>
</trkpt>
<trkpt lat="-27.2529156" lon="151.3569412">
  <ele>533.78</ele>
  <time>2026-09-01T20:01:41Z</time>
  <course>271.5</course>
  <speed>24.05</speed>
  <fix>3d</fix>
</trkpt>
<trkpt lat="-27.2529134" lon="151.356842">
  <ele>533.57</ele>
  <time>2026-09-01T20:01:41Z</time>
  <course>271.49</course>
  <speed>24.327648879412905</speed>
  <fix>3d</fix>
</trkpt>
<trkpt lat="-27.2529145" lon="151.3568923">
  <ele>533.65</ele>
  <time>2026-09-01T20:01:41Z</time>
  <course>271.47</course>
  <speed>24.2</speed>
  <fix>3d</fix>
</trkpt>
<trkpt lat="-27.2529128" lon="151.3568173">
  <ele>533.54</ele>
  <time>2026-09-01T20:01:41Z</time>
  <course>271.52</course>
  <speed>24.397879006175927</speed>
  <fix>3d</fix>
</trkpt>
<trkpt lat="-27.2529145" lon="151.3568923">
  <ele>533.65</ele>
  <time>2026-09-01T20:01:41Z</time>
  <course>271.47</course>
  <speed>24.2</speed>
  <fix>3d</fix>
</trkpt>
<trkpt lat="-27.2529122" lon="151.3567927">
  <ele>533.52</ele>
  <time>2026-09-01T20:01:41Z</time>
  <course>271.48</course>
  <speed>24.457859677412493</speed>
  <fix>3d</fix>
</trkpt>
<trkpt lat="-27.2529133" lon="151.3568433">
  <ele>533.56</ele>
  <time>2026-09-01T20:01:41Z</time>
  <course>271.45</course>
  <speed>24.33</speed>
  <fix>3d</fix>
</trkpt>
<trkpt lat="-27.2529117" lon="151.356768">
  <ele>533.5</ele>
  <time>2026-09-01T20:01:41Z</time>
  <course>271.42</course>
  <speed>24.507843642393347</speed>
  <fix>3d</fix>
</trkpt>
<trkpt lat="-27.2529133" lon="151.3568433">
  <ele>533.56</ele>
  <time>2026-09-01T20:01:41Z</time>
  <course>271.45</course>
  <speed>24.33</speed>
  <fix>3d</fix>
</trkpt>
<trkpt lat="-27.2529111" lon="151.3567431">
  <ele>533.5</ele>
  <time>2026-09-01T20:01:41Z</time>
  <course>271.41</course>
  <speed>24.56782448651081</speed>
  <fix>3d</fix>
</trkpt>
<trkpt lat="-27.2529122" lon="151.3567941">
  <ele>533.52</ele>
  <time>2026-09-01T20:01:41Z</time>
  <course>271.45</course>
  <speed>24.45</speed>
  <fix>3d</fix>
</trkpt>
<trkpt lat="-27.2529106" lon="151.3567184">
  <ele>533.5</ele>
  <time>2026-09-01T20:01:41Z</time>
  <course>271.43</course>
  <speed>24.607811767810645</speed>
  <fix>3d</fix>
</trkpt>
<trkpt lat="-27.2529122" lon="151.3567941">
  <ele>533.52</ele>
  <time>2026-09-01T20:01:41Z</time>
  <course>271.45</course>
  <speed>24.45</speed>
  <fix>3d</fix>
</trkpt>
<trkpt lat="-27.25291" lon="151.3566935">
  <ele>533.5</ele>
  <time>2026-09-01T20:01:41Z</time>
  <course>271.41</course>
  <speed>24.65804939568416</speed>
  <fix>3d</fix>
</trkpt>
<trkpt lat="-27.2529111" lon="151.3567445">
  <ele>533.5</ele>
  <time>2026-09-01T20:01:41Z</time>
  <course>271.45</course>
  <speed>24.56</speed>
  <fix>3d</fix>
</trkpt>
<trkpt lat="-27.2529094" lon="151.3566684">
  <ele>533.51</ele>
  <time>2026-09-01T20:01:41Z</time>
  <course>271.44</course>
  <speed>24.708033106663915</speed>
  <fix>3d</fix>
</trkpt>
<trkpt lat="-27.2529111" lon="151.3567445">
  <ele>533.5</ele>
  <time>2026-09-01T20:01:41Z</time>
  <course>271.45</course>
  <speed>24.56</speed>
  <fix>3d</fix>
</trkpt>
<trkpt lat="-27.2529088" lon="151.3566435">
  <ele>533.53</ele>
  <time>2026-09-01T20:01:41Z</time>
  <course>271.46</course>
  <speed>24.748276707682095</speed>
  <fix>3d</fix>
</trkpt>
<trkpt lat="-27.25291" lon="151.3566948">
  <ele>533.5</ele>
  <time>2026-09-01T20:01:41Z</time>
  <course>271.46</course>
  <speed>24.66</speed>
  <fix>3d</fix>
</trkpt>
<trkpt lat="-27.2529083" lon="151.3566186">
  <ele>533.54</ele>
  <time>2026-09-01T20:01:41Z</time>
  <course>271.46</course>
  <speed>24.778266686755956</speed>
  <fix>3d</fix>
</trkpt>
<trkpt lat="-27.25291" lon="151.3566948">
  <ele>533.5</ele>
  <time>2026-09-01T20:01:41Z</time>
  <course>271.46</course>
  <speed>24.66</speed>
  <fix>3d</fix>
</trkpt>
<trkpt lat="-27.2529077" lon="151.3565935">
  <ele>533.58</ele>
  <time>2026-09-01T20:01:41Z</time>
  <course>271.46</course>
  <speed>24.81825336320024</speed>
  <fix>3d</fix>
</trkpt>
<trkpt lat="-27.2529089" lon="151.3566449">
  <ele>533.53</ele>
  <time>2026-09-01T20:01:41Z</time>
  <course>271.48</course>
  <speed>24.74</speed>
  <fix>3d</fix>
</trkpt>
<trkpt lat="-27.2529071" lon="151.3565683">
  <ele>533.61</ele>
  <time>2026-09-01T20:01:41Z</time>
  <course>271.44</course>
  <speed>24.83824671751209</speed>
  <fix>3d</fix>
</trkpt>
<trkpt lat="-27.2529089" lon="151.3566449">
  <ele>533.53</ele>
  <time>2026-09-01T20:01:41Z</time>
  <course>271.48</course>
  <speed>24.74</speed>
  <fix>3d</fix>
</trkpt>
<trkpt lat="-27.2529065" lon="151.3565434">
  <ele>533.64</ele>
  <time>2026-09-01T20:01:41Z</time>
  <course>271.46</course>
  <speed>24.8185132512002</speed>
  <fix>3d</fix>
</trkpt>
<trkpt lat="-27.2529077" lon="151.3565949">
  <ele>533.57</ele>
  <time>2026-09-01T20:01:41Z</time>
  <course>271.49</course>
  <speed>24.81</speed>
  <fix>3d</fix>
</trkpt>
<trkpt lat="-27.2529059" lon="151.3565183">
  <ele>533.68</ele>
  <time>2026-09-01T20:01:41Z</time>
  <course>271.52</course>
  <speed>24.72854423535684</speed>
  <fix>3d</fix>
</trkpt>
<trkpt lat="-27.2529077" lon="151.3565949">
  <ele>533.57</ele>
  <time>2026-09-01T20:01:41Z</time>
  <course>271.49</course>
  <speed>24.81</speed>
  <fix>3d</fix>
</trkpt>
<trkpt lat="-27.2529053" lon="151.3564934">
  <ele>533.72</ele>
  <time>2026-09-01T20:01:41Z</time>
  <course>271.54</course>
  <speed>24.58859288369304</speed>
  <fix>3d</fix>
</trkpt>
<trkpt lat="-27.2529065" lon="151.3565448">
  <ele>533.64</ele>
  <time>2026-09-01T20:01:41Z</time>
  <course>271.5</course>
  <speed>24.79</speed>
  <fix>3d</fix>
</trkpt>
<trkpt lat="-27.2529048" lon="151.3564687">
  <ele>533.76</ele>
  <time>2026-09-01T20:01:41Z</time>
  <course>271.54</course>
  <speed>24.33868114750674</speed>
  <fix>3d</fix>
</trkpt>
<trkpt lat="-27.2529065" lon="151.3565448">
  <ele>533.64</ele>
  <time>2026-09-01T20:01:41Z</time>
  <course>271.5</course>
  <speed>24.79</speed>
  <fix>3d</fix>
</trkpt>
<trkpt lat="-27.2529042" lon="151.3564443">
  <ele>533.79</ele>
  <time>2026-09-01T20:01:41Z</time>
  <course>271.53</course>
  <speed>24.01879680583522</speed>
  <fix>3d</fix>
</trkpt>
<trkpt lat="-27.2529054" lon="151.3564949">
  <ele>533.72</ele>
  <time>2026-09-01T20:01:41Z</time>
  <course>271.53</course>
  <speed>24.55</speed>
  <fix>3d</fix>
</trkpt>
<trkpt lat="-27.2529036" lon="151.3564202">
  <ele>533.83</ele>
  <time>2026-09-01T20:01:41Z</time>
  <course>271.54</course>
  <speed>23.688919350616228</speed>
  <fix>3d</fix>
</trkpt>
<trkpt lat="-27.2529054" lon="151.3564949">
  <ele>533.72</ele>
  <time>2026-09-01T20:01:41Z</time>
  <course>271.53</course>
  <speed>24.55</speed>
  <fix>3d</fix>
</trkpt>
<trkpt lat="-27.252903" lon="151.3563964">
  <ele>533.86</ele>
  <time>2026-09-01T20:01:41Z</time>
  <course>271.55</course>
  <speed>23.359045357205847</speed>
  <fix>3d</fix>
</trkpt>
<trkpt lat="-27.2529042" lon="151.3564457">
  <ele>533.79</ele>
  <time>2026-09-01T20:01:41Z</time>
  <course>271.56</course>
  <speed>24.03</speed>
  <fix>3d</fix>
</trkpt>
<trkpt lat="-27.2529024" lon="151.356373">
  <ele>533.87</ele>
  <time>2026-09-01T20:01:41Z</time>
  <course>271.56</course>
  <speed>23.049167013148217</speed>
  <fix>3d</fix>
</trkpt>
<trkpt lat="-27.2529042" lon="151.3564457">
  <ele>533.79</ele>
  <time>2026-09-01T20:01:41Z</time>
  <course>271.56</course>
  <speed>24.03</speed>
  <fix>3d</fix>
</trkpt>
<trkpt lat="-27.2529018" lon="151.3563505">
  <ele>533.86</ele>
  <time>2026-09-01T20:01:41Z</time>
  <course>271.57</course>
  <speed>22.759000417417283</speed>
  <fix>3d</fix>
</trkpt>
<trkpt lat="-27.252903" lon="151.3563978">
  <ele>533.85</ele>
  <time>2026-09-01T20:01:41Z</time>
  <course>271.6</course>
  <speed>23.38</speed>
  <fix>3d</fix>
</trkpt>
<trkpt lat="-27.2529012" lon="151.3563269">
  <ele>533.83</ele>
  <time>2026-09-01T20:01:41Z</time>
  <course>271.58</course>
  <speed>22.46911658254503</speed>
  <fix>3d</fix>
</trkpt>
<trkpt lat="-27.252903" lon="151.3563978">
  <ele>533.85</ele>
  <time>2026-09-01T20:01:41Z</time>
  <course>271.6</course>
  <speed>23.38</speed>
  <fix>3d</fix>
</trkpt>
<trkpt lat="-27.2529007" lon="151.3563043">
  <ele>533.79</ele>
  <time>2026-09-01T20:01:41Z</time>
  <course>271.59</course>
  <speed>22.19894141620271</speed>
  <fix>3d</fix>
</trkpt>
<trkpt lat="-27.2529018" lon="151.3563512">
  <ele>533.85</ele>
  <time>2026-09-01T20:01:41Z</time>
  <course>271.62</course>
  <speed>22.78</speed>
  <fix>3d</fix>
</trkpt>
<trkpt lat="-27.2529001" lon="151.356282">
  <ele>533.73</ele>
  <time>2026-09-01T20:01:41Z</time>
  <course>271.61</course>
  <speed>21.93876249928423</speed>
  <fix>3d</fix>
</trkpt>
<trkpt lat="-27.2529018" lon="151.3563512">
  <ele>533.85</ele>
  <time>2026-09-01T20:01:41Z</time>
  <course>271.62</course>
  <speed>22.78</speed>
  <fix>3d</fix>
</trkpt>
<trkpt lat="-27.2528995" lon="151.35626">
  <ele>533.66</ele>
  <time>2026-09-01T20:01:41Z</time>
  <course>271.63</course>
  <speed>21.688863501806637</speed>
  <fix>3d</fix>
</trkpt>
<trkpt lat="-27.2529007" lon="151.3563057">
  <ele>533.78</ele>
  <time>2026-09-01T20:01:41Z</time>
  <course>271.64</course>
  <speed>22.22</speed>
  <fix>3d</fix>
</trkpt>
<trkpt lat="-27.252899" lon="151.3562382">
  <ele>533.58</ele>
  <time>2026-09-01T20:01:41Z</time>
  <course>271.64</course>
  <speed>21.44867594981098</speed>
  <fix>3d</fix>
</trkpt>
<trkpt lat="-27.2529007" lon="151.3563057">
  <ele>533.78</ele>
  <time>2026-09-01T20:01:41Z</time>
  <course>271.64</course>
  <speed>22.22</speed>
  <fix>3d</fix>
</trkpt>
<trkpt lat="-27.2528984" lon="151.3562167">
  <ele>533.49</ele>
  <time>2026-09-01T20:01:41Z</time>
  <course>271.65</course>
  <speed>21.228480868870477</speed>
  <fix>3d</fix>
</trkpt>
<trkpt lat="-27.2528995" lon="151.3562614">
  <ele>533.66</ele>
  <time>2026-09-01T20:01:41Z</time>
  <course>271.63</course>
  <speed>21.71</speed>
  <fix>3d</fix>
</trkpt>
<trkpt lat="-27.2528979" lon="151.3561953">
  <ele>533.38</ele>
  <time>2026-09-01T20:01:41Z</time>
  <course>271.64</course>
  <speed>21.008286460347023</speed>
  <fix>3d</fix>
</trkpt>
<trkpt lat="-27.2528995" lon="151.3562614">
  <ele>533.66</ele>
  <time>2026-09-01T20:01:41Z</time>
  <course>271.63</course>
  <speed>21.71</speed>
  <fix>3d</fix>
</trkpt>
<trkpt lat="-27.2528974" lon="151.3561742">
  <ele>533.27</ele>
  <time>2026-09-01T20:01:41Z</time>
  <course>271.64</course>
  <speed>20.798088854507764</speed>
  <fix>3d</fix>
</trkpt>
<trkpt lat="-27.2528984" lon="151.356218">
  <ele>533.49</ele>
  <time>2026-09-01T20:01:41Z</time>
  <course>271.63</course>
  <speed>21.24</speed>
  <fix>3d</fix>
</trkpt>
<trkpt lat="-27.2528968" lon="151.3561533">
  <ele>533.15</ele>
  <time>2026-09-01T20:01:41Z</time>
  <course>271.63</course>
  <speed>20.598167394212524</speed>
  <fix>3d</fix>
</trkpt>
<trkpt lat="-27.2528984" lon="151.356218">
  <ele>533.49</ele>
  <time>2026-09-01T20:01:41Z</time>
  <course>271.63</course>
  <speed>21.24</speed>
  <fix>3d</fix>
</trkpt>
<trkpt lat="-27.2528963" lon="151.3561326">
  <ele>533.03</ele>
  <time>2026-09-01T20:01:41Z</time>
  <course>271.63</course>
  <speed>20.40796168165748</speed>
  <fix>3d</fix>
</trkpt>
<trkpt lat="-27.2528974" lon="151.3561756">
  <ele>533.27</ele>
  <time>2026-09-01T20:01:41Z</time>
  <course>271.62</course>
  <speed>20.81</speed>
  <fix>3d</fix>
</trkpt>
<trkpt lat="-27.2528958" lon="151.3561121">
  <ele>532.89</ele>
  <time>2026-09-01T20:01:41Z</time>
  <course>271.62</course>
  <speed>20.217757046715146</speed>
  <fix>3d</fix>
</trkpt>
<trkpt lat="-27.2528974" lon="151.3561756">
  <ele>533.27</ele>
  <time>2026-09-01T20:01:41Z</time>
  <course>271.62</course>
  <speed>20.81</speed>
  <fix>3d</fix>
</trkpt>
<trkpt lat="-27.2528953" lon="151.3560918">
  <ele>532.75</ele>
  <time>2026-09-01T20:01:41Z</time>
  <course>271.61</course>
  <speed>20.03754975040611</speed>
  <fix>3d</fix>
</trkpt>
<trkpt lat="-27.2528963" lon="151.3561339">
  <ele>533.03</ele>
  <time>2026-09-01T20:01:41Z</time>
  <course>271.6</course>
  <speed>20.42</speed>
  <fix>3d</fix>
</trkpt>
<trkpt lat="-27.2528948" lon="151.3560716">
  <ele>532.61</ele>
  <time>2026-09-01T20:01:41Z</time>
  <course>271.61</course>
  <speed>19.867614350998462</speed>
  <fix>3d</fix>
</trkpt>
<trkpt lat="-27.2528963" lon="151.3561339">
  <ele>533.03</ele>
  <time>2026-09-01T20:01:41Z</time>
  <course>271.6</course>
  <speed>20.42</speed>
  <fix>3d</fix>
</trkpt>
<trkpt lat="-27.2528943" lon="151.3560517">
  <ele>532.46</ele>
  <time>2026-09-01T20:01:41Z</time>
  <course>271.6</course>
  <speed>19.697403382171977</speed>
  <fix>3d</fix>
</trkpt>
<trkpt lat="-27.2528953" lon="151.356093">
  <ele>532.76</ele>
  <time>2026-09-01T20:01:41Z</time>
  <course>271.59</course>
  <speed>20.05</speed>
  <fix>3d</fix>
</trkpt>
<trkpt lat="-27.2528938" lon="151.3560319">
  <ele>532.31</ele>
  <time>2026-09-01T20:01:41Z</time>
  <course>271.6</course>
  <speed>19.537190176686103</speed>
  <fix>3d</fix>
</trkpt>
<trkpt lat="-27.2528953" lon="151.356093">
  <ele>532.76</ele>
  <time>2026-09-01T20:01:41Z</time>
  <course>271.59</course>
  <speed>20.05</speed>
  <fix>3d</fix>
</trkpt>
<trkpt lat="-27.2528933" lon="151.3560121">
  <ele>532.16</ele>
  <time>2026-09-01T20:01:41Z</time>
  <course>271.59</course>
  <speed>19.387245807489006</speed>
  <fix>3d</fix>
</trkpt>
<trkpt lat="-27.2528943" lon="151.3560529">
  <ele>532.47</ele>
  <time>2026-09-01T20:01:41Z</time>
  <course>271.58</course>
  <speed>19.71</speed>
  <fix>3d</fix>
</trkpt>
<trkpt lat="-27.2528929" lon="151.3559927">
  <ele>532.0</ele>
  <time>2026-09-01T20:01:41Z</time>
  <course>271.58</course>
  <speed>19.23702939645308</speed>
  <fix>3d</fix>
</trkpt>
<trkpt lat="-27.2528943" lon="151.3560529">
  <ele>532.47</ele>
  <time>2026-09-01T20:01:41Z</time>
  <course>271.58</course>
  <speed>19.71</speed>
  <fix>3d</fix>
</trkpt>
<trkpt lat="-27.2528924" lon="151.3559732">
  <ele>531.84</ele>
  <time>2026-09-01T20:01:41Z</time>
  <course>271.58</course>
  <speed>19.09681125214364</speed>
  <fix>3d</fix>
</trkpt>
<trkpt lat="-27.2528934" lon="151.3560133">
  <ele>532.16</ele>
  <time>2026-09-01T20:01:41Z</time>
  <course>271.57</course>
  <speed>19.4</speed>
  <fix>3d</fix>
</trkpt>
<trkpt lat="-27.2528919" lon="151.3559541">
  <ele>531.66</ele>
  <time>2026-09-01T20:01:41Z</time>
  <course>271.57</course>
  <speed>18.956861554592837</speed>
  <fix>3d</fix>
</trkpt>
<trkpt lat="-27.2528934" lon="151.3560133">
  <ele>532.16</ele>
  <time>2026-09-01T20:01:41Z</time>
  <course>271.57</course>
  <speed>19.4</speed>
  <fix>3d</fix>
</trkpt>
<trkpt lat="-27.2528915" lon="151.355935">
  <ele>531.5</ele>
  <time>2026-09-01T20:01:41Z</time>
  <course>271.56</course>
  <speed>18.816644227916942</speed>
  <fix>3d</fix>
</trkpt>
<trkpt lat="-27.2528924" lon="151.3559743">
  <ele>531.84</ele>
  <time>2026-09-01T20:01:41Z</time>
  <course>271.55</course>
  <speed>19.1</speed>
  <fix>3d</fix>
</trkpt>
<trkpt lat="-27.252891" lon="151.3559161">
  <ele>531.33</ele>
  <time>2026-09-01T20:01:41Z</time>
  <course>271.56</course>
  <speed>18.68669045069244</speed>
  <fix>3d</fix>
</trkpt>
<trkpt lat="-27.2528924" lon="151.3559743">
  <ele>531.84</ele>
  <time>2026-09-01T20:01:41Z</time>
  <course>271.55</course>
  <speed>19.1</speed>
  <fix>3d</fix>
</trkpt>
<trkpt lat="-27.2528906" lon="151.3558972">
  <ele>531.16</ele>
  <time>2026-09-01T20:01:41Z</time>
  <course>271.55</course>
  <speed>18.566467084504794</speed>
  <fix>3d</fix>
</trkpt>
<trkpt lat="-27.2528914" lon="151.355936">
  <ele>531.51</ele>
  <time>2026-09-01T20:01:41Z</time>
  <course>271.54</course>
  <speed>18.83</speed>
  <fix>3d</fix>
</trkpt>
<trkpt lat="-27.2528901" lon="151.3558785">
  <ele>530.99</ele>
  <time>2026-09-01T20:01:41Z</time>
  <course>271.55</course>
  <speed>18.436512685429424</speed>
  <fix>3d</fix>
</trkpt>
<trkpt lat="-27.2528914" lon="151.355936">
  <ele>531.51</ele>
  <time>2026-09-01T20:01:41Z</time>
  <course>271.54</course>
  <speed>18.83</speed>
  <fix>3d</fix>
</trkpt>
<trkpt lat="-27.2528897" lon="151.35586">
  <ele>530.81</ele>
  <time>2026-09-01T20:01:41Z</time>
  <course>271.54</course>
  <speed>18.316290563320948</speed>
  <fix>3d</fix>
</trkpt>
<trkpt lat="-27.2528906" lon="151.3558982">
  <ele>531.17</ele>
  <time>2026-09-01T20:01:41Z</time>
  <course>271.53</course>
  <speed>18.57</speed>
  <fix>3d</fix>
</trkpt>
<trkpt lat="-27.2528893" lon="151.3558416">
  <ele>530.63</ele>
  <time>2026-09-01T20:01:41Z</time>
  <course>271.53</course>
  <speed>18.206328570033005</speed>
  <fix>3d</fix>
</trkpt>
<trkpt lat="-27.2528906" lon="151.3558982">
  <ele>531.17</ele>
  <time>2026-09-01T20:01:41Z</time>
  <course>271.53</course>
  <speed>18.57</speed>
  <fix>3d</fix>
</trkpt>
<trkpt lat="-27.2528888" lon="151.3558233">
  <ele>530.46</ele>
  <time>2026-09-01T20:01:41Z</time>
  <course>271.53</course>
  <speed>18.096104553190447</speed>
  <fix>3d</fix>
</trkpt>
<trkpt lat="-27.2528897" lon="151.355861">
  <ele>530.82</ele>
  <time>2026-09-01T20:01:41Z</time>
  <course>271.52</course>
  <speed>18.33</speed>
  <fix>3d</fix>
</trkpt>
<trkpt lat="-27.2528884" lon="151.3558048">
  <ele>530.27</ele>
  <time>2026-09-01T20:01:41Z</time>
  <course>271.52</course>
  <speed>17.986141887575556</speed>
  <fix>3d</fix>
</trkpt>
<trkpt lat="-27.2528897" lon="151.355861">
  <ele>530.82</ele>
  <time>2026-09-01T20:01:41Z</time>
  <course>271.52</course>
  <speed>18.33</speed>
  <fix>3d</fix>
</trkpt>
<trkpt lat="-27.252888" lon="151.3557868">
  <ele>530.09</ele>
  <time>2026-09-01T20:01:41Z</time>
  <course>271.52</course>
  <speed>17.875919556766863</speed>
  <fix>3d</fix>
</trkpt>
<trkpt lat="-27.2528888" lon="151.3558242">
  <ele>530.46</ele>
  <time>2026-09-01T20:01:41Z</time>
  <course>271.51</course>
  <speed>18.1</speed>
  <fix>3d</fix>
</trkpt>
<trkpt lat="-27.2528875" lon="151.3557688">
  <ele>529.91</ele>
  <time>2026-09-01T20:01:41Z</time>
  <course>271.51</course>
  <speed>17.77595285772327</speed>
  <fix>3d</fix>
</trkpt>
<trkpt lat="-27.2528888" lon="151.3558242">
  <ele>530.46</ele>
  <time>2026-09-01T20:01:41Z</time>
  <course>271.51</course>
  <speed>18.1</speed>
  <fix>3d</fix>
</trkpt>
<trkpt lat="-27.2528871" lon="151.3557509">
  <ele>529.72</ele>
  <time>2026-09-01T20:01:41Z</time>
  <course>271.51</course>
  <speed>17.675986535410125</speed>
  <fix>3d</fix>
</trkpt>
<trkpt lat="-27.252888" lon="151.3557879">
  <ele>530.1</ele>
  <time>2026-09-01T20:01:41Z</time>
  <course>271.5</course>
  <speed>17.89</speed>
  <fix>3d</fix>
</trkpt>
<trkpt lat="-27.2528867" lon="151.355733">
  <ele>529.53</ele>
  <time>2026-09-01T20:01:41Z</time>
  <course>271.5</course>
  <speed>17.585758442558003</speed>
  <fix>3d</fix>
</trkpt>
<trkpt lat="-27.252888" lon="151.3557879">
  <ele>530.1</ele>
  <time>2026-09-01T20:01:41Z</time>
  <course>271.5</course>
  <speed>17.89</speed>
  <fix>3d</fix>
</trkpt>
<trkpt lat="-27.2528863" lon="151.3557153">
  <ele>529.35</ele>
  <time>2026-09-01T20:01:41Z</time>
  <course>271.5</course>
  <speed>17.485791374713354</speed>
  <fix>3d</fix>
</trkpt>
<trkpt lat="-27.2528871" lon="151.3557519">
  <ele>529.73</ele>
  <time>2026-09-01T20:01:41Z</time>
  <course>271.49</course>
  <speed>17.69</speed>
  <fix>3d</fix>
</trkpt>
<trkpt lat="-27.2528859" lon="151.3556976">
  <ele>529.16</ele>
  <time>2026-09-01T20:01:41Z</time>
  <course>271.49</course>
  <speed>17.395565526880695</speed>
  <fix>3d</fix>
</trkpt>
<trkpt lat="-27.2528871" lon="151.3557519">
  <ele>529.73</ele>
  <time>2026-09-01T20:01:41Z</time>
  <course>271.49</course>
  <speed>17.69</speed>
  <fix>3d</fix>
</trkpt>
<trkpt lat="-27.2528855" lon="151.3556802">
  <ele>528.97</ele>
  <time>2026-09-01T20:01:41Z</time>
  <course>271.49</course>
  <speed>17.315591240266674</speed>
  <fix>3d</fix>
</trkpt>
<trkpt lat="-27.2528863" lon="151.3557164">
  <ele>529.35</ele>
  <time>2026-09-01T20:01:41Z</time>
  <course>271.48</course>
  <speed>17.5</speed>
  <fix>3d</fix>
</trkpt>
<trkpt lat="-27.2528851" lon="151.3556628">
  <ele>528.78</ele>
  <time>2026-09-01T20:01:41Z</time>
  <course>271.48</course>
  <speed>17.225620453266696</speed>
  <fix>3d</fix>
</trkpt>
<trkpt lat="-27.2528863" lon="151.3557164">
  <ele>529.35</ele>
  <time>2026-09-01T20:01:41Z</time>
  <course>271.48</course>
  <speed>17.5</speed>
  <fix>3d</fix>
</trkpt>
<trkpt lat="-27.2528847" lon="151.3556453">
  <ele>528.58</ele>
  <time>2026-09-01T20:01:41Z</time>
  <course>271.48</course>
  <speed>17.145392967208423</speed>
  <fix>3d</fix>
</trkpt>
<trkpt lat="-27.2528855" lon="151.3556813">
  <ele>528.98</ele>
  <time>2026-09-01T20:01:41Z</time>
  <course>271.47</course>
  <speed>17.32</speed>
  <fix>3d</fix>
</trkpt>
<trkpt lat="-27.2510895" lon="151.3597443">
  <ele>542.98</ele>
  <time>2026-09-01T20:01:41Z</time>
  <course>250.0</course>
  <speed>0.0</speed>
  <fix>3d</fix>
</trkpt>
<trkpt lat="-27.2528855" lon="151.3556813">
  <ele>528.98</ele>
  <time>2026-09-01T20:01:42Z</time>
  <course>271.47</course>
  <speed>17.32</speed>
  <fix>3d</fix>
</trkpt>
<trkpt lat="-27.2510895" lon="151.3597442">
  <ele>542.88</ele>
  <time>2026-09-01T20:01:42Z</time>
  <course>250.0</course>
  <speed>0.0632455532033676</speed>
  <fix>3d</fix>
</trkpt>
<trkpt lat="-27.2519873" lon="151.357704">
  <ele>535.89</ele>
  <time>2026-09-01T20:01:42Z</time>
  <course>271.46</course>
  <speed>8.62</speed>
  <fix>3d</fix>
</trkpt>
<trkpt lat="-27.2510895" lon="151.3597441">
  <ele>542.69</ele>
  <time>2026-09-01T20:01:42Z</time>
  <course>249.96</course>
  <speed>0.20248456731316586</speed>
  <fix>3d</fix>
</trkpt>
<trkpt lat="-27.2519873" lon="151.357704">
  <ele>535.89</ele>
  <time>2026-09-01T20:01:42Z</time>
  <course>271.46</course>
  <speed>8.62</speed>
  <fix>3d</fix>
</trkpt>
<trkpt lat="-27.2510896" lon="151.3597438">
  <ele>542.41</ele>
  <time>2026-09-01T20:01:42Z</time>
  <course>250.31</course>
  <speed>0.4205948168962618</speed>
  <fix>3d</fix>
</trkpt>
<trkpt lat="-27.2510895" lon="151.3597442">
  <ele>542.84</ele>
  <time>2026-09-01T20:01:42Z</time>
  <course>249.6</course>
  <speed>0.1</speed>
  <fix>3d</fix>
</trkpt>
<trkpt lat="-27.2510897" lon="151.3597432">
  <ele>542.04</ele>
  <time>2026-09-01T20:01:42Z</time>
  <course>253.17</course>
  <speed>0.7283543093852057</speed>
  <fix>3d</fix>
</trkpt>
<trkpt lat="-27.2510895" lon="151.3597442">
  <ele>542.84</ele>
  <time>2026-09-01T20:01:42Z</time>
  <course>249.6</course>
  <speed>0.1</speed>
  <fix>3d</fix>
</trkpt>
<trkpt lat="-27.2510898" lon="151.3597423">
  <ele>541.6</ele>
  <time>2026-09-01T20:01:42Z</time>
  <course>262.49</course>
  <speed>1.091146186356347</speed>
  <fix>3d</fix>
</trkpt>
<trkpt lat="-27.2510896" lon="151.3597437">
  <ele>542.38</ele>
  <time>2026-09-01T20:01:42Z</time>
  <course>258.28</course>
  <speed>0.45</speed>
  <fix>3d</fix>
</trkpt>
<trkpt lat="-27.2510899" lon="151.3597412">
  <ele>541.09</ele>
  <time>2026-09-01T20:01:42Z</time>
  <course>263.22</course>
  <speed>1.5008331019803633</speed>
  <fix>3d</fix>
</trkpt>
<trkpt lat="-27.2510896" lon="151.3597437">
  <ele>542.38</ele>
  <time>2026-09-01T20:01:42Z</time>
  <course>258.28</course>
  <speed>0.45</speed>
  <fix>3d</fix>
</trkpt>
<trkpt lat="-27.2510912" lon="151.3597397">
  <ele>540.52</ele>
  <time>2026-09-01T20:01:42Z</time>
  <course>251.91</course>
  <speed>2.8504736448527286</speed>
  <fix>3d</fix>
</trkpt>
<trkpt lat="-27.2510898" lon="151.3597422">
  <ele>541.58</ele>
  <time>2026-09-01T20:01:42Z</time>
  <course>252.91</course>
  <speed>1.08</speed>
  <fix>3d</fix>
</trkpt>
<trkpt lat="-27.2510942" lon="151.3597383">
  <ele>539.97</ele>
  <time>2026-09-01T20:01:42Z</time>
  <course>243.93</course>
  <speed>4.367940017903177</speed>
  <fix>3d</fix>
</trkpt>
<trkpt lat="-27.2510898" lon="151.3597422">
  <ele>541.58</ele>
  <time>2026-09-01T20:01:42Z</time>
  <course>252.91</course>
  <speed>1.08</speed>
  <fix>3d</fix>
</trkpt>
<trkpt lat="-27.2510986" lon="151.3597371">
  <ele>539.48</ele>
  <time>2026-09-01T20:01:42Z</time>
  <course>238.13</course>
  <speed>5.664274004671737</speed>
  <fix>3d</fix>
</trkpt>
<trkpt lat="-27.251092" lon="151.3597398">
  <ele>540.55</ele>
  <time>2026-09-01T20:01:42Z</time>
  <course>210.16</course>
  <speed>2.67</speed>
  <fix>3d</fix>
</trkpt>
<trkpt lat="-27.2511041" lon="151.3597359">
  <ele>539.07</ele>
  <time>2026-09-01T20:01:42Z</time>
  <course>233.53</course>
  <speed>6.696581217307829</speed>
  <fix>3d</fix>
</trkpt>
<trkpt lat="-27.251092" lon="151.3597398">
  <ele>540.55</ele>
  <time>2026-09-01T20:01:42Z</time>
  <course>210.16</course>
  <speed>2.67</speed>
  <fix>3d</fix>
</trkpt>
<trkpt lat="-27.2511104" lon="151.3597345">
  <ele>538.76</ele>
  <time>2026-09-01T20:01:42Z</time>
  <course>229.92</course>
  <speed>7.456567574963698</speed>
  <fix>3d</fix>
</trkpt>
<trkpt lat="-27.2510989" lon="151.3597371">
  <ele>539.54</ele>
  <time>2026-09-01T20:01:42Z</time>
  <course>193.21</course>
  <speed>5.46</speed>
  <fix>3d</fix>
</trkpt>
<trkpt lat="-27.2511171" lon="151.3597326">
  <ele>538.58</ele>
  <time>2026-09-01T20:01:42Z</time>
  <course>227.3</course>
  <speed>7.893446648961404</speed>
  <fix>3d</fix>
</trkpt>
<trkpt lat="-27.2510989" lon="151.3597371">
  <ele>539.54</ele>
  <time>2026-09-01T20:01:42Z</time>
  <course>193.21</course>
  <speed>5.46</speed>
  <fix>3d</fix>
</trkpt>
<trkpt lat="-27.2511239" lon="151.3597299">
  <ele>538.49</ele>
  <time>2026-09-01T20:01:42Z</time>
  <course>225.83</course>
  <speed>8.18828431357876</speed>
  <fix>3d</fix>
</trkpt>
<trkpt lat="-27.2511103" lon="151.3597343">
  <ele>538.83</ele>
  <time>2026-09-01T20:01:42Z</time>
  <course>193.61</course>
  <speed>7.26</speed>
  <fix>3d</fix>
</trkpt>
<trkpt lat="-27.2511306" lon="151.3597261">
  <ele>538.45</ele>
  <time>2026-09-01T20:01:42Z</time>
  <course>225.51</course>
  <speed>8.508965859609498</speed>
  <fix>3d</fix>
</trkpt>
<trkpt lat="-27.2511103" lon="151.3597343">
  <ele>538.83</ele>
  <time>2026-09-01T20:01:42Z</time>
  <course>193.61</course>
  <speed>7.26</speed>
  <fix>3d</fix>
</trkpt>
<trkpt lat="-27.2511371" lon="151.3597212">
  <ele>538.43</ele>
  <time>2026-09-01T20:01:42Z</time>
  <course>226.41</course>
  <speed>8.886152148146012</speed>
  <fix>3d</fix>
</trkpt>
<trkpt lat="-27.2511235" lon="151.3597295">
  <ele>538.51</ele>
  <time>2026-09-01T20:01:42Z</time>
  <course>203.36</course>
  <speed>8.13</speed>
  <fix>3d</fix>
</trkpt>
<trkpt lat="-27.2511434" lon="151.3597154">
  <ele>538.41</ele>
  <time>2026-09-01T20:01:42Z</time>
  <course>228.43</course>
  <speed>9.329973204677492</speed>
  <fix>3d</fix>
</trkpt>
<trkpt lat="-27.2511235" lon="151.3597295">
  <ele>538.51</ele>
  <time>2026-09-01T20:01:42Z</time>
  <course>203.36</course>
  <speed>8.13</speed>
  <fix>3d</fix>
</trkpt>
<trkpt lat="-27.2511495" lon="151.3597084">
  <ele>538.38</ele>
  <time>2026-09-01T20:01:42Z</time>
  <course>231.39</course>
  <speed>9.830569668132158</speed>
  <fix>3d</fix>
</trkpt>
<trkpt lat="-27.2511366" lon="151.3597209">
  <ele>538.43</ele>
  <time>2026-09-01T20:01:42Z</time>
  <course>216.19</course>
  <speed>8.85</speed>
  <fix>3d</fix>
</trkpt>
<trkpt lat="-27.2511554" lon="151.3597007">
  <ele>538.33</ele>
  <time>2026-09-01T20:01:42Z</time>
  <course>234.77</course>
  <speed>10.349299493202427</speed>
  <fix>3d</fix>
</trkpt>
<trkpt lat="-27.2511366" lon="151.3597209">
  <ele>538.43</ele>
  <time>2026-09-01T20:01:42Z</time>
  <course>216.19</course>
  <speed>8.85</speed>
  <fix>3d</fix>
</trkpt>
<trkpt lat="-27.2511609" lon="151.3596919">
  <ele>538.27</ele>
  <time>2026-09-01T20:01:42Z</time>
  <course>238.21</course>
  <speed>10.88064795864658</speed>
  <fix>3d</fix>
</trkpt>
<trkpt lat="-27.2511491" lon="151.3597084">
  <ele>538.38</ele>
  <time>2026-09-01T20:01:42Z</time>
  <course>227.24</course>
  <speed>9.78</speed>
  <fix>3d</fix>
</trkpt>
<trkpt lat="-27.2511661" lon="151.3596823">
  <ele>538.18</ele>
  <time>2026-09-01T20:01:42Z</time>
  <course>241.6</course>
  <speed>11.42529211880379</speed>
  <fix>3d</fix>
</trkpt>
<trkpt lat="-27.2511491" lon="151.3597084">
  <ele>538.38</ele>
  <time>2026-09-01T20:01:42Z</time>
  <course>227.24</course>
  <speed>9.78</speed>
  <fix>3d</fix>
</trkpt>
<trkpt lat="-27.2511709" lon="151.3596718">
  <ele>538.08</ele>
  <time>2026-09-01T20:01:42Z</time>
  <course>244.72</course>
  <speed>11.965492050057948</speed>
  <fix>3d</fix>
</trkpt>
<trkpt lat="-27.2511604" lon="151.359692">
  <ele>538.26</ele>
  <time>2026-09-01T20:01:42Z</time>
  <course>236.45</course>
  <speed>10.83</speed>
  <fix>3d</fix>
</trkpt>
<trkpt lat="-27.2511753" lon="151.3596604">
  <ele>537.97</ele>
  <time>2026-09-01T20:01:42Z</time>
  <course>247.5</course>
  <speed>12.510303753306712</speed>
  <fix>3d</fix>
</trkpt>
<trkpt lat="-27.2511604" lon="151.359692">
  <ele>538.26</ele>
  <time>2026-09-01T20:01:42Z</time>
  <course>236.45</course>
  <speed>10.83</speed>
  <fix>3d</fix>
</trkpt>
<trkpt lat="-27.2511793" lon="151.3596483">
  <ele>537.85</ele>
  <time>2026-09-01T20:01:42Z</time>
  <course>249.89</course>
  <speed>13.047681786432408</speed>
  <fix>3d</fix>
</trkpt>
<trkpt lat="-27.2511704" lon="151.3596719">
  <ele>538.07</ele>
  <time>2026-09-01T20:01:42Z</time>
  <course>244.41</course>
  <speed>11.92</speed>
  <fix>3d</fix>
</trkpt>
<trkpt lat="-27.2511829" lon="151.3596355">
  <ele>537.73</ele>
  <time>2026-09-01T20:01:42Z</time>
  <course>252.03</course>
  <speed>13.586353447485457</speed>
  <fix>3d</fix>
</trkpt>
<trkpt lat="-27.2511704" lon="151.3596719">
  <ele>538.07</ele>
  <time>2026-09-01T20:01:42Z</time>
  <course>244.41</course>
  <speed>11.92</speed>
  <fix>3d</fix>
</trkpt>
<trkpt lat="-27.251186" lon="151.3596218">
  <ele>537.61</ele>
  <time>2026-09-01T20:01:42Z</time>
  <course>253.81</course>
  <speed>14.107108137389464</speed>
  <fix>3d</fix>
</trkpt>
<trkpt lat="-27.2511789" lon="151.3596485">
  <ele>537.85</ele>
  <time>2026-09-01T20:01:42Z</time>
  <course>251.1</course>
  <speed>13.0</speed>
  <fix>3d</fix>
</trkpt>
<trkpt lat="-27.2511887" lon="151.3596077">
  <ele>537.5</ele>
  <time>2026-09-01T20:01:42Z</time>
  <course>255.48</course>
  <speed>14.632351143954958</speed>
  <fix>3d</fix>
</trkpt>
<trkpt lat="-27.2511789" lon="151.3596485">
  <ele>537.85</ele>
  <time>2026-09-01T20:01:42Z</time>
  <course>251.1</course>
  <speed>13.0</speed>
  <fix>3d</fix>
</trkpt>
<trkpt lat="-27.251191" lon="151.3595929">
  <ele>537.4</ele>
  <time>2026-09-01T20:01:42Z</time>
  <course>257.17</course>
  <speed>15.144599697581974</speed>
  <fix>3d</fix>
</trkpt>
<trkpt lat="-27.2511856" lon="151.3596222">
  <ele>537.62</ele>
  <time>2026-09-01T20:01:42Z</time>
  <course>256.48</course>
  <speed>14.07</speed>
  <fix>3d</fix>
</trkpt>
<trkpt lat="-27.2511931" lon="151.3595775">
  <ele>537.31</ele>
  <time>2026-09-01T20:01:42Z</time>
  <course>258.69</course>
  <speed>15.646204012475357</speed>
  <fix>3d</fix>
</trkpt>
<trkpt lat="-27.2511856" lon="151.3596222">
  <ele>537.62</ele>
  <time>2026-09-01T20:01:42Z</time>
  <course>256.48</course>
  <speed>14.07</speed>
  <fix>3d</fix>
</trkpt>
<trkpt lat="-27.2511948" lon="151.3595616">
  <ele>537.22</ele>
  <time>2026-09-01T20:01:42Z</time>
  <course>260.17</course>
  <speed>16.14296750910439</speed>
  <fix>3d</fix>
</trkpt>
<trkpt lat="-27.2511907" lon="151.3595933">
  <ele>537.41</ele>
  <time>2026-09-01T20:01:42Z</time>
  <course>260.62</course>
  <speed>15.11</speed>
  <fix>3d</fix>
</trkpt>
<trkpt lat="-27.2511962" lon="151.3595451">
  <ele>537.14</ele>
  <time>2026-09-01T20:01:42Z</time>
  <course>261.59</course>
  <speed>16.62077013859466</speed>
  <fix>3d</fix>
</trkpt>
<trkpt lat="-27.2511907" lon="151.3595933">
  <ele>537.41</ele>
  <time>2026-09-01T20:01:42Z</time>
  <course>260.62</course>
  <speed>15.11</speed>
  <fix>3d</fix>
</trkpt>
<trkpt lat="-27.2511973" lon="151.3595281">
  <ele>537.07</ele>
  <time>2026-09-01T20:01:42Z</time>
  <course>262.83</course>
  <speed>17.088068937126863</speed>
  <fix>3d</fix>
</trkpt>
<trkpt lat="-27.2511945" lon="151.3595621">
  <ele>537.22</ele>
  <time>2026-09-01T20:01:42Z</time>
  <course>263.71</course>
  <speed>16.1</speed>
  <fix>3d</fix>
</trkpt>
<trkpt lat="-27.2511982" lon="151.3595106">
  <ele>537.02</ele>
  <time>2026-09-01T20:01:42Z</time>
  <course>263.92</course>
  <speed>17.54208653495929</speed>
  <fix>3d</fix>
</trkpt>
<trkpt lat="-27.2511945" lon="151.3595621">
  <ele>537.22</ele>
  <time>2026-09-01T20:01:42Z</time>
  <course>263.71</course>
  <speed>16.1</speed>
  <fix>3d</fix>
</trkpt>
<trkpt lat="-27.2511989" lon="151.3594927">
  <ele>536.98</ele>
  <time>2026-09-01T20:01:42Z</time>
  <course>264.94</course>
  <speed>17.982116115741217</speed>
  <fix>3d</fix>
</trkpt>
<trkpt lat="-27.2511971" lon="151.3595287">
  <ele>537.08</ele>
  <time>2026-09-01T20:01:42Z</time>
  <course>266.05</course>
  <speed>17.05</speed>
  <fix>3d</fix>
</trkpt>
<trkpt lat="-27.2511994" lon="151.3594743">
  <ele>536.96</ele>
  <time>2026-09-01T20:01:42Z</time>
  <course>265.89</course>
  <speed>18.39575222707677</speed>
  <fix>3d</fix>
</trkpt>
<trkpt lat="-27.2511971" lon="151.3595287">
  <ele>537.08</ele>
  <time>2026-09-01T20:01:42Z</time>
  <course>266.05</course>
  <speed>17.05</speed>
  <fix>3d</fix>
</trkpt>
<trkpt lat="-27.2511998" lon="151.3594556">
  <ele>536.95</ele>
  <time>2026-09-01T20:01:42Z</time>
  <course>266.71</course>
  <speed>18.79208610027104</speed>
  <fix>3d</fix>
</trkpt>
<trkpt lat="-27.2511988" lon="151.3594934">
  <ele>536.99</ele>
  <time>2026-09-01T20:01:42Z</time>
  <course>267.8</course>
  <speed>17.95</speed>
  <fix>3d</fix>
</trkpt>
<trkpt lat="-27.2512" lon="151.3594364">
  <ele>536.96</ele>
  <time>2026-09-01T20:01:42Z</time>
  <course>267.35</course>
  <speed>19.190510675852273</speed>
  <fix>3d</fix>
</trkpt>
<trkpt lat="-27.2511988" lon="151.3594934">
  <ele>536.99</ele>
  <time>2026-09-01T20:01:42Z</time>
  <course>267.8</course>
  <speed>17.95</speed>
  <fix>3d</fix>
</trkpt>
<trkpt lat="-27.2512" lon="151.3594168">
  <ele>536.98</ele>
  <time>2026-09-01T20:01:42Z</time>
  <course>267.85</course>
  <speed>19.5600102249462</speed>
  <fix>3d</fix>
</trkpt>
<trkpt lat="-27.2511997" lon="151.3594562">
  <ele>536.96</ele>
  <time>2026-09-01T20:01:42Z</time>
  <course>269.05</course>
  <speed>18.77</speed>
  <fix>3d</fix>
</trkpt>
<trkpt lat="-27.2512" lon="151.3593967">
  <ele>537.02</ele>
  <time>2026-09-01T20:01:42Z</time>
  <course>268.39</course>
  <speed>19.920160641922543</speed>
  <fix>3d</fix>
</trkpt>
<trkpt lat="-27.2511997" lon="151.3594562">
  <ele>536.96</ele>
  <time>2026-09-01T20:01:42Z</time>
  <course>269.05</course>
  <speed>18.77</speed>
  <fix>3d</fix>
</trkpt>
<trkpt lat="-27.2511999" lon="151.3593765">
  <ele>537.07</ele>
  <time>2026-09-01T20:01:42Z</time>
  <course>268.92</course>
  <speed>20.270712863636543</speed>
  <fix>3d</fix>
</trkpt>
<trkpt lat="-27.2512" lon="151.3594176">
  <ele>536.99</ele>
  <time>2026-09-01T20:01:42Z</time>
  <course>269.89</course>
  <speed>19.54</speed>
  <fix>3d</fix>
</trkpt>
<trkpt lat="-27.2511998" lon="151.3593559">
  <ele>537.14</ele>
  <time>2026-09-01T20:01:42Z</time>
  <course>269.39</course>
  <speed>20.60151693443956</speed>
  <fix>3d</fix>
</trkpt>
<trkpt lat="-27.2512" lon="151.3594176">
  <ele>536.99</ele>
  <time>2026-09-01T20:01:42Z</time>
  <course>269.89</course>
  <speed>19.54</speed>
  <fix>3d</fix>
</trkpt>
<trkpt lat="-27.2511995" lon="151.3593349">
  <ele>537.22</ele>
  <time>2026-09-01T20:01:42Z</time>
  <course>269.77</course>
  <speed>20.90244961720994</speed>
  <fix>3d</fix>
</trkpt>
<trkpt lat="-27.2511998" lon="151.3593774">
  <ele>537.08</ele>
  <time>2026-09-01T20:01:42Z</time>
  <course>270.46</course>
  <speed>20.24</speed>
  <fix>3d</fix>
</trkpt>
<trkpt lat="-27.2511992" lon="151.3593137">
  <ele>537.29</ele>
  <time>2026-09-01T20:01:42Z</time>
  <course>270.08</course>
  <speed>21.18359034724756</speed>
  <fix>3d</fix>
</trkpt>
<trkpt lat="-27.2511998" lon="151.3593774">
  <ele>537.08</ele>
  <time>2026-09-01T20:01:42Z</time>
  <course>270.46</course>
  <speed>20.24</speed>
  <fix>3d</fix>
</trkpt>
<trkpt lat="-27.2511988" lon="151.3592921">
  <ele>537.38</ele>
  <time>2026-09-01T20:01:42Z</time>
  <course>270.39</course>
  <speed>21.43472416430872</speed>
  <fix>3d</fix>
</trkpt>
<trkpt lat="-27.2511995" lon="151.3593358">
  <ele>537.21</ele>
  <time>2026-09-01T20:01:42Z</time>
  <course>270.88</course>
  <speed>20.88</speed>
  <fix>3d</fix>
</trkpt>
<trkpt lat="-27.2511984" lon="151.3592703">
  <ele>537.45</ele>
  <time>2026-09-01T20:01:42Z</time>
  <course>270.53</course>
  <speed>21.64577556938074</speed>
  <fix>3d</fix>
</trkpt>
<trkpt lat="-27.2511995" lon="151.3593358">
  <ele>537.21</ele>
  <time>2026-09-01T20:01:42Z</time>
  <course>270.88</course>
  <speed>20.88</speed>
  <fix>3d</fix>
</trkpt>
<trkpt lat="-27.2511979" lon="151.3592483">
  <ele>537.52</ele>
  <time>2026-09-01T20:01:42Z</time>
  <course>270.62</course>
  <speed>21.836927439546066</speed>
  <fix>3d</fix>
</trkpt>
<trkpt lat="-27.2511988" lon="151.3592929">
  <ele>537.37</ele>
  <time>2026-09-01T20:01:42Z</time>
  <course>271.2</course>
  <speed>21.41</speed>
  <fix>3d</fix>
</trkpt>
<trkpt lat="-27.2511974" lon="151.3592261">
  <ele>537.57</ele>
  <time>2026-09-01T20:01:42Z</time>
  <course>270.7</course>
  <speed>21.997647601505033</speed>
  <fix>3d</fix>
</trkpt>
<trkpt lat="-27.2511988" lon="151.3592929">
  <ele>537.37</ele>
  <time>2026-09-01T20:01:42Z</time>
  <course>271.2</course>
  <speed>21.41</speed>
  <fix>3d</fix>
</trkpt>
<trkpt lat="-27.2511969" lon="151.3592038">
  <ele>537.61</ele>
  <time>2026-09-01T20:01:42Z</time>
  <course>270.86</course>
  <speed>22.11813961435274</speed>
  <fix>3d</fix>
</trkpt>
<trkpt lat="-27.2511979" lon="151.3592492">
  <ele>537.51</ele>
  <time>2026-09-01T20:01:42Z</time>
  <course>271.43</course>
  <speed>21.81</speed>
  <fix>3d</fix>
</trkpt>
<trkpt lat="-27.2511963" lon="151.3591813">
  <ele>537.63</ele>
  <time>2026-09-01T20:01:42Z</time>
  <course>271.02</course>
  <speed>22.208937390158944</speed>
  <fix>3d</fix>
</trkpt>
<trkpt lat="-27.2511979" lon="151.3592492">
  <ele>537.51</ele>
  <time>2026-09-01T20:01:42Z</time>
  <course>271.43</course>
  <speed>21.81</speed>
  <fix>3d</fix>
</trkpt>
<trkpt lat="-27.2511957" lon="151.359159">
  <ele>537.63</ele>
  <time>2026-09-01T20:01:42Z</time>
  <course>271.11</course>
  <speed>22.27948383603175</speed>
  <fix>3d</fix>
</trkpt>
<trkpt lat="-27.2511968" lon="151.3592049">
  <ele>537.6</ele>
  <time>2026-09-01T20:01:42Z</time>
  <course>271.57</course>
  <speed>22.1</speed>
  <fix>3d</fix>
</trkpt>
<trkpt lat="-27.2511951" lon="151.3591363">
  <ele>537.62</ele>
  <time>2026-09-01T20:01:42Z</time>
  <course>271.21</course>
  <speed>22.33005373929942</speed>
  <fix>3d</fix>
</trkpt>
<trkpt lat="-27.2511968" lon="151.3592049">
  <ele>537.6</ele>
  <time>2026-09-01T20:01:42Z</time>
  <course>271.57</course>
  <speed>22.1</speed>
  <fix>3d</fix>
</trkpt>
<trkpt lat="-27.2511945" lon="151.3591138">
  <ele>537.6</ele>
  <time>2026-09-01T20:01:42Z</time>
  <course>271.3</course>
  <speed>22.40032365837601</speed>
  <fix>3d</fix>
</trkpt>
<trkpt lat="-27.2511957" lon="151.3591601">
  <ele>537.62</ele>
  <time>2026-09-01T20:01:42Z</time>
  <course>271.67</course>
  <speed>22.27</speed>
  <fix>3d</fix>
</trkpt>
<trkpt lat="-27.2511939" lon="151.3590912">
  <ele>537.54</ele>
  <time>2026-09-01T20:01:42Z</time>
  <course>271.33</course>
  <speed>22.460601060523736</speed>
  <fix>3d</fix>
</trkpt>
<trkpt lat="-27.2511957" lon="151.3591601">
  <ele>537.62</ele>
  <time>2026-09-01T20:01:42Z</time>
  <course>271.67</course>
  <speed>22.27</speed>
  <fix>3d</fix>
</trkpt>
<trkpt lat="-27.2511933" lon="151.3590685">
  <ele>537.5</ele>
  <time>2026-09-01T20:01:42Z</time>
  <course>271.34</course>
  <speed>22.500582214689466</speed>
  <fix>3d</fix>
</trkpt>
<trkpt lat="-27.2511945" lon="151.3591149">
  <ele>537.58</ele>
  <time>2026-09-01T20:01:42Z</time>
  <course>271.74</course>
  <speed>22.39</speed>
  <fix>3d</fix>
</trkpt>
<trkpt lat="-27.2511927" lon="151.3590458">
  <ele>537.44</ele>
  <time>2026-09-01T20:01:42Z</time>
  <course>271.41</course>
  <speed>22.530568124217375</speed>
  <fix>3d</fix>
</trkpt>
<trkpt lat="-27.2511945" lon="151.3591149">
  <ele>537.58</ele>
  <time>2026-09-01T20:01:42Z</time>
  <course>271.74</course>
  <speed>22.39</speed>
  <fix>3d</fix>
</trkpt>
<trkpt lat="-27.251192" lon="151.3590229">
  <ele>537.36</ele>
  <time>2026-09-01T20:01:42Z</time>
  <course>271.48</course>
  <speed>22.55055875139239</speed>
  <fix>3d</fix>
</trkpt>
<trkpt lat="-27.2511933" lon="151.3590696">
  <ele>537.5</ele>
  <time>2026-09-01T20:01:42Z</time>
  <course>271.76</course>
  <speed>22.49</speed>
  <fix>3d</fix>
</trkpt>
<trkpt lat="-27.2511914" lon="151.3590002">
  <ele>537.28</ele>
  <time>2026-09-01T20:01:42Z</time>
  <course>271.53</course>
  <speed>22.570549395174236</speed>
  <fix>3d</fix>
</trkpt>
<trkpt lat="-27.2511933" lon="151.3590696">
  <ele>537.5</ele>
  <time>2026-09-01T20:01:42Z</time>
  <course>271.76</course>
  <speed>22.49</speed>
  <fix>3d</fix>
</trkpt>
<trkpt lat="-27.2511908" lon="151.3589773">
  <ele>537.19</ele>
  <time>2026-09-01T20:01:42Z</time>
  <course>271.54</course>
  <speed>22.590540055518815</speed>
  <fix>3d</fix>
</trkpt>
<trkpt lat="-27.251192" lon="151.3590241">
  <ele>537.36</ele>
  <time>2026-09-01T20:01:42Z</time>
  <course>271.76</course>
  <speed>22.55</speed>
  <fix>3d</fix>
</trkpt>
<trkpt lat="-27.2511902" lon="151.3589546">
  <ele>537.11</ele>
  <time>2026-09-01T20:01:42Z</time>
  <course>271.54</course>
  <speed>22.61022777417335</speed>
  <fix>3d</fix>
</trkpt>
<trkpt lat="-27.251192" lon="151.3590241">
  <ele>537.36</ele>
  <time>2026-09-01T20:01:42Z</time>
  <course>271.76</course>
  <speed>22.55</speed>
  <fix>3d</fix>
</trkpt>
<trkpt lat="-27.2511896" lon="151.3589318">
  <ele>537.01</ele>
  <time>2026-09-01T20:01:42Z</time>
  <course>271.52</course>
  <speed>22.62992045942716</speed>
  <fix>3d</fix>
</trkpt>
<trkpt lat="-27.2511908" lon="151.3589786">
  <ele>537.19</ele>
  <time>2026-09-01T20:01:42Z</time>
  <course>271.75</course>
  <speed>22.59</speed>
  <fix>3d</fix>
</trkpt>
<trkpt lat="-27.2511889" lon="151.3589089">
  <ele>536.91</ele>
  <time>2026-09-01T20:01:42Z</time>
  <course>271.48</course>
  <speed>22.649618098325632</speed>
  <fix>3d</fix>
</trkpt>
<trkpt lat="-27.2511908" lon="151.3589786">
  <ele>537.19</ele>
  <time>2026-09-01T20:01:42Z</time>
  <course>271.75</course>
  <speed>22.59</speed>
  <fix>3d</fix>
</trkpt>
<trkpt lat="-27.2511884" lon="151.3588859">
  <ele>536.83</ele>
  <time>2026-09-01T20:01:42Z</time>
  <course>271.45</course>
  <speed>22.669036150661544</speed>
  <fix>3d</fix>
</trkpt>
<trkpt lat="-27.2511896" lon="151.3589329">
  <ele>537.02</ele>
  <time>2026-09-01T20:01:42Z</time>
  <course>271.71</course>
  <speed>22.63</speed>
  <fix>3d</fix>
</trkpt>
<trkpt lat="-27.2511878" lon="151.358863">
  <ele>536.74</ele>
  <time>2026-09-01T20:01:42Z</time>
  <course>271.42</course>
  <speed>22.688748312765075</speed>
  <fix>3d</fix>
</trkpt>
<trkpt lat="-27.2511896" lon="151.3589329">
  <ele>537.02</ele>
  <time>2026-09-01T20:01:42Z</time>
  <course>271.71</course>
  <speed>22.63</speed>
  <fix>3d</fix>
</trkpt>
<trkpt lat="-27.2511872" lon="151.3588402">
  <ele>536.65</ele>
  <time>2026-09-01T20:01:42Z</time>
  <course>271.41</course>
  <speed>22.708194556150872</speed>
  <fix>3d</fix>
</trkpt>
<trkpt lat="-27.2511884" lon="151.3588872">
  <ele>536.83</ele>
  <time>2026-09-01T20:01:42Z</time>
  <course>271.64</course>
  <speed>22.67</speed>
  <fix>3d</fix>
</trkpt>
<trkpt lat="-27.2511867" lon="151.3588173">
  <ele>536.56</ele>
  <time>2026-09-01T20:01:42Z</time>
  <course>271.41</course>
  <speed>22.727659360347687</speed>
  <fix>3d</fix>
</trkpt>
<trkpt lat="-27.2511884" lon="151.3588872">
  <ele>536.83</ele>
  <time>2026-09-01T20:01:42Z</time>
  <course>271.64</course>
  <speed>22.67</speed>
  <fix>3d</fix>
</trkpt>
<trkpt lat="-27.2511862" lon="151.3587943">
  <ele>536.47</ele>
  <time>2026-09-01T20:01:42Z</time>
  <course>271.38</course>
  <speed>22.7471426777079</speed>
  <fix>3d</fix>
</trkpt>
<trkpt lat="-27.2511872" lon="151.3588412">
  <ele>536.65</ele>
  <time>2026-09-01T20:01:42Z</time>
  <course>271.55</course>
  <speed>22.71</speed>
  <fix>3d</fix>
</trkpt>
<trkpt lat="-27.2511856" lon="151.3587713">
  <ele>536.38</ele>
  <time>2026-09-01T20:01:42Z</time>
  <course>271.33</course>
  <speed>22.766644460701713</speed>
  <fix>3d</fix>
</trkpt>
<trkpt lat="-27.2511872" lon="151.3588412">
  <ele>536.65</ele>
  <time>2026-09-01T20:01:42Z</time>
  <course>271.55</course>
  <speed>22.71</speed>
  <fix>3d</fix>
</trkpt>
<trkpt lat="-27.2511852" lon="151.3587483">
  <ele>536.29</ele>
  <time>2026-09-01T20:01:42Z</time>
  <course>271.32</course>
  <speed>22.78616466191711</speed>
  <fix>3d</fix>
</trkpt>
<trkpt lat="-27.2511862" lon="151.3587952">
  <ele>536.47</ele>
  <time>2026-09-01T20:01:42Z</time>
  <course>271.45</course>
  <speed>22.75</speed>
  <fix>3d</fix>
</trkpt>
<trkpt lat="-27.2511847" lon="151.3587253">
  <ele>536.2</ele>
  <time>2026-09-01T20:01:42Z</time>
  <course>271.3</course>
  <speed>22.805703234059678</speed>
  <fix>3d</fix>
</trkpt>
<trkpt lat="-27.2511862" lon="151.3587952">
  <ele>536.47</ele>
  <time>2026-09-01T20:01:42Z</time>
  <course>271.45</course>
  <speed>22.75</speed>
  <fix>3d</fix>
</trkpt>
<trkpt lat="-27.2511842" lon="151.3587021">
  <ele>536.11</ele>
  <time>2026-09-01T20:01:42Z</time>
  <course>271.23</course>
  <speed>22.81526243548384</speed>
  <fix>3d</fix>
</trkpt>
<trkpt lat="-27.2511852" lon="151.3587492">
  <ele>536.29</ele>
  <time>2026-09-01T20:01:42Z</time>
  <course>271.34</course>
  <speed>22.78</speed>
  <fix>3d</fix>
</trkpt>
<trkpt lat="-27.2511838" lon="151.3586791">
  <ele>536.02</ele>
  <time>2026-09-01T20:01:42Z</time>
  <course>271.17</course>
  <speed>22.834837420047464</speed>
  <fix>3d</fix>
</trkpt>
<trkpt lat="-27.2511852" lon="151.3587492">
  <ele>536.29</ele>
  <time>2026-09-01T20:01:42Z</time>
  <course>271.34</course>
  <speed>22.78</speed>
  <fix>3d</fix>
</trkpt>
<trkpt lat="-27.2511834" lon="151.3586561">
  <ele>535.93</ele>
  <time>2026-09-01T20:01:42Z</time>
  <course>271.11</course>
  <speed>22.85443064265658</speed>
  <fix>3d</fix>
</trkpt>
<trkpt lat="-27.2511842" lon="151.3587031">
  <ele>536.11</ele>
  <time>2026-09-01T20:01:42Z</time>
  <course>271.24</course>
  <speed>22.82</speed>
  <fix>3d</fix>
</trkpt>
<trkpt lat="-27.251183" lon="151.358633">
  <ele>535.83</ele>
  <time>2026-09-01T20:01:42Z</time>
  <course>271.05</course>
  <speed>22.88385457041711</speed>
  <fix>3d</fix>
</trkpt>
<trkpt lat="-27.2511842" lon="151.3587031">
  <ele>536.11</ele>
  <time>2026-09-01T20:01:42Z</time>
  <course>271.24</course>
  <speed>22.82</speed>
  <fix>3d</fix>
</trkpt>
<trkpt lat="-27.2511826" lon="151.3586099">
  <ele>535.74</ele>
  <time>2026-09-01T20:01:42Z</time>
  <course>271.03</course>
  <speed>22.91349165884589</speed>
  <fix>3d</fix>
</trkpt>
<trkpt lat="-27.2511834" lon="151.358657">
  <ele>535.93</ele>
  <time>2026-09-01T20:01:42Z</time>
  <course>271.12</course>
  <speed>22.86</speed>
  <fix>3d</fix>
</trkpt>
<trkpt lat="-27.2511823" lon="151.3585865">
  <ele>535.64</ele>
  <time>2026-09-01T20:01:42Z</time>
  <course>271.02</course>
  <speed>22.94314712501317</speed>
  <fix>3d</fix>
</trkpt>
<trkpt lat="-27.2511834" lon="151.358657">
  <ele>535.93</ele>
  <time>2026-09-01T20:01:42Z</time>
  <course>271.12</course>
  <speed>22.86</speed>
  <fix>3d</fix>
</trkpt>
<trkpt lat="-27.2511819" lon="151.3585632">
  <ele>535.54</ele>
  <time>2026-09-01T20:01:42Z</time>
  <course>270.95</course>
  <speed>22.982819670353766</speed>
  <fix>3d</fix>
</trkpt>
<trkpt lat="-27.2511826" lon="151.3586108">
  <ele>535.74</ele>
  <time>2026-09-01T20:01:42Z</time>
  <course>271.01</course>
  <speed>22.91</speed>
  <fix>3d</fix>
</trkpt>
<trkpt lat="-27.2511816" lon="151.3585401">
  <ele>535.44</ele>
  <time>2026-09-01T20:01:42Z</time>
  <course>270.9</course>
  <speed>23.012511814228365</speed>
  <fix>3d</fix>
</trkpt>
<trkpt lat="-27.2511826" lon="151.3586108">
  <ele>535.74</ele>
  <time>2026-09-01T20:01:42Z</time>
  <course>271.01</course>
  <speed>22.91</speed>
  <fix>3d</fix>
</trkpt>
<trkpt lat="-27.2511813" lon="151.3585168">
  <ele>535.34</ele>
  <time>2026-09-01T20:01:42Z</time>
  <course>270.82</course>
  <speed>23.06222018800445</speed>
  <fix>3d</fix>
</trkpt>
<trkpt lat="-27.2511819" lon="151.3585645">
  <ele>535.54</ele>
  <time>2026-09-01T20:01:42Z</time>
  <course>270.91</course>
  <speed>22.98</speed>
  <fix>3d</fix>
</trkpt>
<trkpt lat="-27.251181" lon="151.3584934">
  <ele>535.24</ele>
  <time>2026-09-01T20:01:42Z</time>
  <course>270.78</course>
  <speed>23.101947969814145</speed>
  <fix>3d</fix>
</trkpt>
<trkpt lat="-27.2511819" lon="151.3585645">
  <ele>535.54</ele>
  <time>2026-09-01T20:01:42Z</time>
  <course>270.91</course>
  <speed>22.98</speed>
  <fix>3d</fix>
</trkpt>
<trkpt lat="-27.2511808" lon="151.3584702">
  <ele>535.14</ele>
  <time>2026-09-01T20:01:42Z</time>
  <course>270.76</course>
  <speed>23.15169324261187</speed>
  <fix>3d</fix>
</trkpt>
<trkpt lat="-27.2511813" lon="151.358518">
  <ele>535.34</ele>
  <time>2026-09-01T20:01:42Z</time>
  <course>270.8</course>
  <speed>23.06</speed>
  <fix>3d</fix>
</trkpt>
<trkpt lat="-27.2511805" lon="151.3584467">
  <ele>535.04</ele>
  <time>2026-09-01T20:01:42Z</time>
  <course>270.8</course>
  <speed>23.201571067494548</speed>
  <fix>3d</fix>
</trkpt>
<trkpt lat="-27.2511813" lon="151.358518">
  <ele>535.34</ele>
  <time>2026-09-01T20:01:42Z</time>
  <course>270.8</course>
  <speed>23.06</speed>
  <fix>3d</fix>
</trkpt>
<trkpt lat="-27.2511803" lon="151.3584233">
  <ele>534.94</ele>
  <time>2026-09-01T20:01:42Z</time>
  <course>270.78</course>
  <speed>23.251453717993638</speed>
  <fix>3d</fix>
</trkpt>
<trkpt lat="-27.2511807" lon="151.3584713">
  <ele>535.14</ele>
  <time>2026-09-01T20:01:42Z</time>
  <course>270.71</course>
  <speed>23.15</speed>
  <fix>3d</fix>
</trkpt>
<trkpt lat="-27.25118" lon="151.3583998">
  <ele>534.84</ele>
  <time>2026-09-01T20:01:42Z</time>
  <course>270.71</course>
  <speed>23.301236018717976</speed>
  <fix>3d</fix>
</trkpt>
<trkpt lat="-27.2511807" lon="151.3584713">
  <ele>535.14</ele>
  <time>2026-09-01T20:01:42Z</time>
  <course>270.71</course>
  <speed>23.15</speed>
  <fix>3d</fix>
</trkpt>
<trkpt lat="-27.2511798" lon="151.3583761">
  <ele>534.74</ele>
  <time>2026-09-01T20:01:42Z</time>
  <course>270.68</course>
  <speed>23.361132249957404</speed>
  <fix>3d</fix>
</trkpt>
<trkpt lat="-27.2511802" lon="151.3584244">
  <ele>534.94</ele>
  <time>2026-09-01T20:01:42Z</time>
  <course>270.64</course>
  <speed>23.25</speed>
  <fix>3d</fix>
</trkpt>
<trkpt lat="-27.2511796" lon="151.3583526">
  <ele>534.64</ele>
  <time>2026-09-01T20:01:42Z</time>
  <course>270.64</course>
  <speed>23.41103372343904</speed>
  <fix>3d</fix>
</trkpt>
<trkpt lat="-27.2511802" lon="151.3584244">
  <ele>534.94</ele>
  <time>2026-09-01T20:01:42Z</time>
  <course>270.64</course>
  <speed>23.25</speed>
  <fix>3d</fix>
</trkpt>
<trkpt lat="-27.2511794" lon="151.3583289">
  <ele>534.54</ele>
  <time>2026-09-01T20:01:42Z</time>
  <course>270.58</course>
  <speed>23.470939478427358</speed>
  <fix>3d</fix>
</trkpt>
<trkpt lat="-27.2511798" lon="151.3583772">
  <ele>534.74</ele>
  <time>2026-09-01T20:01:42Z</time>
  <course>270.58</course>
  <speed>23.36</speed>
  <fix>3d</fix>
</trkpt>
<trkpt lat="-27.2511792" lon="151.3583051">
  <ele>534.46</ele>
  <time>2026-09-01T20:01:42Z</time>
  <course>270.51</course>
  <speed>23.520767419452962</speed>
  <fix>3d</fix>
</trkpt>
<trkpt lat="-27.2511798" lon="151.3583772">
  <ele>534.74</ele>
  <time>2026-09-01T20:01:42Z</time>
  <course>270.58</course>
  <speed>23.36</speed>
  <fix>3d</fix>
</trkpt>
<trkpt lat="-27.251179" lon="151.3582813">
  <ele>534.37</ele>
  <time>2026-09-01T20:01:42Z</time>
  <course>270.48</course>
  <speed>23.570687304361744</speed>
  <fix>3d</fix>
</trkpt>
<trkpt lat="-27.2511794" lon="151.3583299">
  <ele>534.55</ele>
  <time>2026-09-01T20:01:42Z</time>
  <course>270.51</course>
  <speed>23.46</speed>
  <fix>3d</fix>
</trkpt>
<trkpt lat="-27.2511789" lon="151.3582574">
  <ele>534.29</ele>
  <time>2026-09-01T20:01:42Z</time>
  <course>270.41</course>
  <speed>23.630611502879056</speed>
  <fix>3d</fix>
</trkpt>
<trkpt lat="-27.2511794" lon="151.3583299">
  <ele>534.55</ele>
  <time>2026-09-01T20:01:42Z</time>
  <course>270.51</course>
  <speed>23.46</speed>
  <fix>3d</fix>
</trkpt>
<trkpt lat="-27.2511787" lon="151.3582336">
  <ele>534.21</ele>
  <time>2026-09-01T20:01:42Z</time>
  <course>270.34</course>
  <speed>23.680540534371254</speed>
  <fix>3d</fix>
</trkpt>
<trkpt lat="-27.251179" lon="151.3582822">
  <ele>534.38</ele>
  <time>2026-09-01T20:01:42Z</time>
  <course>270.46</course>
  <speed>23.57</speed>
  <fix>3d</fix>
</trkpt>
<trkpt lat="-27.2511786" lon="151.3582097">
  <ele>534.1</ele>
  <time>2026-09-01T20:01:42Z</time>
  <course>270.34</course>
  <speed>23.740473879010924</speed>
  <fix>3d</fix>
</trkpt>
<trkpt lat="-27.251179" lon="151.3582822">
  <ele>534.38</ele>
  <time>2026-09-01T20:01:42Z</time>
  <course>270.46</course>
  <speed>23.57</speed>
  <fix>3d</fix>
</trkpt>
<trkpt lat="-27.2511784" lon="151.3581855">
  <ele>533.95</ele>
  <time>2026-09-01T20:01:42Z</time>
  <course>270.46</course>
  <speed>23.81041158821073</speed>
  <fix>3d</fix>
</trkpt>
<trkpt lat="-27.2511787" lon="151.3582346">
  <ele>534.19</ele>
  <time>2026-09-01T20:01:42Z</time>
  <course>270.4</course>
  <speed>23.68</speed>
  <fix>3d</fix>
</trkpt>
<trkpt lat="-27.2511783" lon="151.3581615">
  <ele>533.79</ele>
  <time>2026-09-01T20:01:42Z</time>
  <course>270.5</course>
  <speed>23.89041020995663</speed>
  <fix>3d</fix>
</trkpt>
<trkpt lat="-27.2511787" lon="151.3582346">
  <ele>534.19</ele>
  <time>2026-09-01T20:01:42Z</time>
  <course>270.4</course>
  <speed>23.68</speed>
  <fix>3d</fix>
</trkpt>
<trkpt lat="-27.2511782" lon="151.3581374">
  <ele>533.63</ele>
  <time>2026-09-01T20:01:42Z</time>
  <course>270.44</course>
  <speed>23.990352227510126</speed>
  <fix>3d</fix>
</trkpt>
<trkpt lat="-27.2511784" lon="151.3581866">
  <ele>533.94</ele>
  <time>2026-09-01T20:01:42Z</time>
  <course>270.35</course>
  <speed>23.81</speed>
  <fix>3d</fix>
</trkpt>
<trkpt lat="-27.2511781" lon="151.3581131">
  <ele>533.48</ele>
  <time>2026-09-01T20:01:42Z</time>
  <course>270.45</course>
  <speed>24.080350911064397</speed>
  <fix>3d</fix>
</trkpt>
<trkpt lat="-27.2511784" lon="151.3581866">
  <ele>533.94</ele>
  <time>2026-09-01T20:01:42Z</time>
  <course>270.35</course>
  <speed>23.81</speed>
  <fix>3d</fix>
</trkpt>
<trkpt lat="-27.251178" lon="151.3580887">
  <ele>533.33</ele>
  <time>2026-09-01T20:01:42Z</time>
  <course>270.42</course>
  <speed>24.17029788811052</speed>
  <fix>3d</fix>
</trkpt>
<trkpt lat="-27.2511782" lon="151.3581383">
  <ele>533.64</ele>
  <time>2026-09-01T20:01:42Z</time>
  <course>270.32</course>
  <speed>23.98</speed>
  <fix>3d</fix>
</trkpt>
<trkpt lat="-27.2511778" lon="151.3580642">
  <ele>533.19</ele>
  <time>2026-09-01T20:01:42Z</time>
  <course>270.32</course>
  <speed>24.26029678301566</speed>
  <fix>3d</fix>
</trkpt>
<trkpt lat="-27.2511782" lon="151.3581383">
  <ele>533.64</ele>
  <time>2026-09-01T20:01:42Z</time>
  <course>270.32</course>
  <speed>23.98</speed>
  <fix>3d</fix>
</trkpt>
<trkpt lat="-27.2511777" lon="151.3580397">
  <ele>533.07</ele>
  <time>2026-09-01T20:01:42Z</time>
  <course>270.23</course>
  <speed>24.35024845869134</speed>
  <fix>3d</fix>
</trkpt>
<trkpt lat="-27.2511779" lon="151.3580897">
  <ele>533.34</ele>
  <time>2026-09-01T20:01:42Z</time>
  <course>270.3</course>
  <speed>24.17</speed>
  <fix>3d</fix>
</trkpt>
<trkpt lat="-27.2511776" lon="151.358015">
  <ele>532.96</ele>
  <time>2026-09-01T20:01:42Z</time>
  <course>270.19</course>
  <speed>24.440165711385838</speed>
  <fix>3d</fix>
</trkpt>
<trkpt lat="-27.2511779" lon="151.3580897">
  <ele>533.34</ele>
  <time>2026-09-01T20:01:42Z</time>
  <course>270.3</course>
  <speed>24.17</speed>
  <fix>3d</fix>
</trkpt>
<trkpt lat="-27.2511776" lon="151.3579902">
  <ele>532.86</ele>
  <time>2026-09-01T20:01:42Z</time>
  <course>270.25</course>
  <speed>24.52013050536232</speed>
  <fix>3d</fix>
</trkpt>
<trkpt lat="-27.2511778" lon="151.3580407">
  <ele>533.08</ele>
  <time>2026-09-01T20:01:42Z</time>
  <course>270.26</course>
  <speed>24.35</speed>
  <fix>3d</fix>
</trkpt>
<trkpt lat="-27.2511775" lon="151.3579655">
  <ele>532.78</ele>
  <time>2026-09-01T20:01:42Z</time>
  <course>270.2</course>
  <speed>24.59013013385655</speed>
  <fix>3d</fix>
</trkpt>
<trkpt lat="-27.2511778" lon="151.3580407">
  <ele>533.08</ele>
  <time>2026-09-01T20:01:42Z</time>
  <course>270.26</course>
  <speed>24.35</speed>
  <fix>3d</fix>
</trkpt>
<trkpt lat="-27.2511774" lon="151.3579404">
  <ele>532.71</ele>
  <time>2026-09-01T20:01:42Z</time>
  <course>270.16</course>
  <speed>24.67009931070404</speed>
  <fix>3d</fix>
</trkpt>
<trkpt lat="-27.2511776" lon="151.3579912">
  <ele>532.87</ele>
  <time>2026-09-01T20:01:42Z</time>
  <course>270.21</course>
  <speed>24.51</speed>
  <fix>3d</fix>
</trkpt>
<trkpt lat="-27.2511774" lon="151.3579155">
  <ele>532.66</ele>
  <time>2026-09-01T20:01:42Z</time>
  <course>270.12</course>
  <speed>24.730072785982657</speed>
  <fix>3d</fix>
</trkpt>
<trkpt lat="-27.2511776" lon="151.3579912">
  <ele>532.87</ele>
  <time>2026-09-01T20:01:42Z</time>
  <course>270.21</course>
  <speed>24.51</speed>
  <fix>3d</fix>
</trkpt>
<trkpt lat="-27.2511773" lon="151.3578904">
  <ele>532.62</ele>
  <time>2026-09-01T20:01:42Z</time>
  <course>270.14</course>
  <speed>24.800050403174588</speed>
  <fix>3d</fix>
</trkpt>
<trkpt lat="-27.2511774" lon="151.3579416">
  <ele>532.72</ele>
  <time>2026-09-01T20:01:42Z</time>
  <course>270.17</course>
  <speed>24.66</speed>
  <fix>3d</fix>
</trkpt>
<trkpt lat="-27.2511773" lon="151.3578653">
  <ele>532.58</ele>
  <time>2026-09-01T20:01:42Z</time>
  <course>270.17</course>
  <speed>24.860050281525982</speed>
  <fix>3d</fix>
</trkpt>
<trkpt lat="-27.2511774" lon="151.3579416">
  <ele>532.72</ele>
  <time>2026-09-01T20:01:42Z</time>
  <course>270.17</course>
  <speed>24.66</speed>
  <fix>3d</fix>
</trkpt>
<trkpt lat="-27.2511772" lon="151.3578402">
  <ele>532.56</ele>
  <time>2026-09-01T20:01:42Z</time>
  <course>270.23</course>
  <speed>24.920050160463163</speed>
  <fix>3d</fix>
</trkpt>
<trkpt lat="-27.2511773" lon="151.3578916">
  <ele>532.62</ele>
  <time>2026-09-01T20:01:42Z</time>
  <course>270.13</course>
  <speed>24.79</speed>
  <fix>3d</fix>
</trkpt>
<trkpt lat="-27.2511772" lon="151.3578149">
  <ele>532.54</ele>
  <time>2026-09-01T20:01:42Z</time>
  <course>270.24</course>
  <speed>24.960072115280436</speed>
  <fix>3d</fix>
</trkpt>
<trkpt lat="-27.2511773" lon="151.3578916">
  <ele>532.62</ele>
  <time>2026-09-01T20:01:42Z</time>
  <course>270.13</course>
  <speed>24.79</speed>
  <fix>3d</fix>
</trkpt>
<trkpt lat="-27.2511771" lon="151.3577898">
  <ele>532.54</ele>
  <time>2026-09-01T20:01:42Z</time>
  <course>270.2</course>
  <speed>24.960072115280436</speed>
  <fix>3d</fix>
</trkpt>
<trkpt lat="-27.2511772" lon="151.3578413">
  <ele>532.57</ele>
  <time>2026-09-01T20:01:42Z</time>
  <course>270.13</course>
  <speed>24.91</speed>
  <fix>3d</fix>
</trkpt>
<trkpt lat="-27.251177" lon="151.3577646">
  <ele>532.56</ele>
  <time>2026-09-01T20:01:42Z</time>
  <course>270.19</course>
  <speed>24.890098432911028</speed>
  <fix>3d</fix>
</trkpt>
<trkpt lat="-27.2511772" lon="151.3578413">
  <ele>532.57</ele>
  <time>2026-09-01T20:01:42Z</time>
  <course>270.13</course>
  <speed>24.91</speed>
  <fix>3d</fix>
</trkpt>
<trkpt lat="-27.251177" lon="151.3577394">
  <ele>532.58</ele>
  <time>2026-09-01T20:01:42Z</time>
  <course>270.2</course>
  <speed>24.770129188197625</speed>
  <fix>3d</fix>
</trkpt>
<trkpt lat="-27.2511771" lon="151.3577909">
  <ele>532.55</ele>
  <time>2026-09-01T20:01:42Z</time>
  <course>270.15</course>
  <speed>24.93</speed>
  <fix>3d</fix>
</trkpt>
<trkpt lat="-27.2511769" lon="151.3577145">
  <ele>532.6</ele>
  <time>2026-09-01T20:01:42Z</time>
  <course>270.19</course>
  <speed>24.59016470054644</speed>
  <fix>3d</fix>
</trkpt>
<trkpt lat="-27.2511771" lon="151.3577909">
  <ele>532.55</ele>
  <time>2026-09-01T20:01:42Z</time>
  <course>270.15</course>
  <speed>24.93</speed>
  <fix>3d</fix>
</trkpt>
<trkpt lat="-27.2511768" lon="151.3576899">
  <ele>532.62</ele>
  <time>2026-09-01T20:01:42Z</time>
  <course>270.2</course>
  <speed>24.350166323867274</speed>
  <fix>3d</fix>
</trkpt>
<trkpt lat="-27.2511769" lon="151.3577406">
  <ele>532.57</ele>
  <time>2026-09-01T20:01:42Z</time>
  <course>270.19</course>
  <speed>24.75</speed>
  <fix>3d</fix>
</trkpt>
<trkpt lat="-27.2511767" lon="151.3576654">
  <ele>532.64</ele>
  <time>2026-09-01T20:01:42Z</time>
  <course>270.21</course>
  <speed>24.060207812901368</speed>
  <fix>3d</fix>
</trkpt>
<trkpt lat="-27.2511769" lon="151.3577406">
  <ele>532.57</ele>
  <time>2026-09-01T20:01:42Z</time>
  <course>270.19</course>
  <speed>24.75</speed>
  <fix>3d</fix>
</trkpt>
<trkpt lat="-27.2511766" lon="151.3576412">
  <ele>532.66</ele>
  <time>2026-09-01T20:01:42Z</time>
  <course>270.23</course>
  <speed>23.740254842777066</speed>
  <fix>3d</fix>
</trkpt>
<trkpt lat="-27.2511767" lon="151.357691">
  <ele>532.62</ele>
  <time>2026-09-01T20:01:42Z</time>
  <course>270.23</course>
  <speed>24.33</speed>
  <fix>3d</fix>
</trkpt>
<trkpt lat="-27.2511765" lon="151.3576173">
  <ele>532.65</ele>
  <time>2026-09-01T20:01:42Z</time>
  <course>270.24</course>
  <speed>23.43025821453959</speed>
  <fix>3d</fix>
</trkpt>
<trkpt lat="-27.2511767" lon="151.357691">
  <ele>532.62</ele>
  <time>2026-09-01T20:01:42Z</time>
  <course>270.23</course>
  <speed>24.33</speed>
  <fix>3d</fix>
</trkpt>
<trkpt lat="-27.2511764" lon="151.3575938">
  <ele>532.63</ele>
  <time>2026-09-01T20:01:42Z</time>
  <course>270.25</course>
  <speed>23.13026156358808</speed>
  <fix>3d</fix>
</trkpt>
<trkpt lat="-27.2511766" lon="151.3576424">
  <ele>532.64</ele>
  <time>2026-09-01T20:01:42Z</time>
  <course>270.26</course>
  <speed>23.76</speed>
  <fix>3d</fix>
</trkpt>
<trkpt lat="-27.2511763" lon="151.3575707">
  <ele>532.57</ele>
  <time>2026-09-01T20:01:42Z</time>
  <course>270.26</course>
  <speed>22.850315096295716</speed>
  <fix>3d</fix>
</trkpt>
<trkpt lat="-27.2511766" lon="151.3576424">
  <ele>532.64</ele>
  <time>2026-09-01T20:01:42Z</time>
  <course>270.26</course>
  <speed>23.76</speed>
  <fix>3d</fix>
</trkpt>
<trkpt lat="-27.2511762" lon="151.3575477">
  <ele>532.48</ele>
  <time>2026-09-01T20:01:42Z</time>
  <course>270.27</course>
  <speed>22.580318864001896</speed>
  <fix>3d</fix>
</trkpt>
<trkpt lat="-27.2511764" lon="151.357595">
  <ele>532.61</ele>
  <time>2026-09-01T20:01:42Z</time>
  <course>270.29</course>
  <speed>23.15</speed>
  <fix>3d</fix>
</trkpt>
<trkpt lat="-27.2511761" lon="151.3575251">
  <ele>532.36</ele>
  <time>2026-09-01T20:01:42Z</time>
  <course>270.28</course>
  <speed>22.33032243385661</speed>
  <fix>3d</fix>
</trkpt>
<trkpt lat="-27.2511764" lon="151.357595">
  <ele>532.61</ele>
  <time>2026-09-01T20:01:42Z</time>
  <course>270.29</course>
  <speed>23.15</speed>
  <fix>3d</fix>
</trkpt>
<trkpt lat="-27.251176" lon="151.3575026">
  <ele>532.2</ele>
  <time>2026-09-01T20:01:42Z</time>
  <course>270.29</course>
  <speed>22.090382522717892</speed>
  <fix>3d</fix>
</trkpt>
<trkpt lat="-27.2511761" lon="151.3575488">
  <ele>532.47</ele>
  <time>2026-09-01T20:01:42Z</time>
  <course>270.31</course>
  <speed>22.6</speed>
  <fix>3d</fix>
</trkpt>
<trkpt lat="-27.2511758" lon="151.3574803">
  <ele>532.01</ele>
  <time>2026-09-01T20:01:42Z</time>
  <course>270.31</course>
  <speed>21.880386194032315</speed>
  <fix>3d</fix>
</trkpt>
<trkpt lat="-27.2511761" lon="151.3575488">
  <ele>532.47</ele>
  <time>2026-09-01T20:01:42Z</time>
  <course>270.31</course>
  <speed>22.6</speed>
  <fix>3d</fix>
</trkpt>
<trkpt lat="-27.2511757" lon="151.3574583">
  <ele>531.79</ele>
  <time>2026-09-01T20:01:42Z</time>
  <course>270.32</course>
  <speed>21.680389756644136</speed>
  <fix>3d</fix>
</trkpt>
<trkpt lat="-27.2511759" lon="151.3575036">
  <ele>532.19</ele>
  <time>2026-09-01T20:01:42Z</time>
  <course>270.33</course>
  <speed>22.11</speed>
  <fix>3d</fix>
</trkpt>
<trkpt lat="-27.2511756" lon="151.3574366">
  <ele>531.57</ele>
  <time>2026-09-01T20:01:42Z</time>
  <course>270.34</course>
  <speed>21.49045602122021</speed>
  <fix>3d</fix>
</trkpt>
<trkpt lat="-27.2511759" lon="151.3575036">
  <ele>532.19</ele>
  <time>2026-09-01T20:01:42Z</time>
  <course>270.33</course>
  <speed>22.11</speed>
  <fix>3d</fix>
</trkpt>
<trkpt lat="-27.2511755" lon="151.357415">
  <ele>531.33</ele>
  <time>2026-09-01T20:01:42Z</time>
  <course>270.35</course>
  <speed>21.33045944184044</speed>
  <fix>3d</fix>
</trkpt>
<trkpt lat="-27.2511757" lon="151.3574593">
  <ele>531.8</ele>
  <time>2026-09-01T20:01:42Z</time>
  <course>270.36</course>
  <speed>21.69</speed>
  <fix>3d</fix>
</trkpt>
<trkpt lat="-27.2511753" lon="151.3573935">
  <ele>531.09</ele>
  <time>2026-09-01T20:01:42Z</time>
  <course>270.36</course>
  <speed>21.170531405706374</speed>
  <fix>3d</fix>
</trkpt>
<trkpt lat="-27.2511757" lon="151.3574593">
  <ele>531.8</ele>
  <time>2026-09-01T20:01:42Z</time>
  <course>270.36</course>
  <speed>21.69</speed>
  <fix>3d</fix>
</trkpt>
<trkpt lat="-27.2511752" lon="151.3573721">
  <ele>530.85</ele>
  <time>2026-09-01T20:01:42Z</time>
  <course>270.37</course>
  <speed>21.01053545248193</speed>
  <fix>3d</fix>
</trkpt>
<trkpt lat="-27.2511754" lon="151.3574159">
  <ele>531.33</ele>
  <time>2026-09-01T20:01:42Z</time>
  <course>270.39</course>
  <speed>21.34</speed>
  <fix>3d</fix>
</trkpt>
<trkpt lat="-27.251175" lon="151.3573511">
  <ele>530.62</ele>
  <time>2026-09-01T20:01:42Z</time>
  <course>270.39</course>
  <speed>20.86053930271219</speed>
  <fix>3d</fix>
</trkpt>
<trkpt lat="-27.2511754" lon="151.3574159">
  <ele>531.33</ele>
  <time>2026-09-01T20:01:42Z</time>
  <course>270.39</course>
  <speed>21.34</speed>
  <fix>3d</fix>
</trkpt>
<trkpt lat="-27.2511749" lon="151.35733">
  <ele>530.4</ele>
  <time>2026-09-01T20:01:42Z</time>
  <course>270.4</course>
  <speed>20.710473195946054</speed>
  <fix>3d</fix>
</trkpt>
<trkpt lat="-27.2511752" lon="151.3573731">
  <ele>530.86</ele>
  <time>2026-09-01T20:01:42Z</time>
  <course>270.41</course>
  <speed>21.02</speed>
  <fix>3d</fix>
</trkpt>
<trkpt lat="-27.2511748" lon="151.3573092">
  <ele>530.19</ele>
  <time>2026-09-01T20:01:42Z</time>
  <course>270.41</course>
  <speed>20.560476648171367</speed>
  <fix>3d</fix>
</trkpt>
<trkpt lat="-27.2511752" lon="151.3573731">
  <ele>530.86</ele>
  <time>2026-09-01T20:01:42Z</time>
  <course>270.41</course>
  <speed>21.02</speed>
  <fix>3d</fix>
</trkpt>
<trkpt lat="-27.2511746" lon="151.3572883">
  <ele>529.98</ele>
  <time>2026-09-01T20:01:42Z</time>
  <course>270.42</course>
  <speed>20.410480151138042</speed>
  <fix>3d</fix>
</trkpt>
<trkpt lat="-27.2511749" lon="151.3573308">
  <ele>530.41</ele>
  <time>2026-09-01T20:01:42Z</time>
  <course>270.41</course>
  <speed>20.72</speed>
  <fix>3d</fix>
</trkpt>
<trkpt lat="-27.2511745" lon="151.3572678">
  <ele>529.78</ele>
  <time>2026-09-01T20:01:42Z</time>
  <course>270.42</course>
  <speed>20.260483705973062</speed>
  <fix>3d</fix>
</trkpt>
<trkpt lat="-27.2511749" lon="151.3573308">
  <ele>530.41</ele>
  <time>2026-09-01T20:01:42Z</time>
  <course>270.41</course>
  <speed>20.72</speed>
  <fix>3d</fix>
</trkpt>
<trkpt lat="-27.2511744" lon="151.3572474">
  <ele>529.59</ele>
  <time>2026-09-01T20:01:42Z</time>
  <course>270.41</course>
  <speed>20.110420184570984</speed>
  <fix>3d</fix>
</trkpt>
<trkpt lat="-27.2511746" lon="151.3572892">
  <ele>529.99</ele>
  <time>2026-09-01T20:01:42Z</time>
  <course>270.4</course>
  <speed>20.42</speed>
  <fix>3d</fix>
</trkpt>
<trkpt lat="-27.2511743" lon="151.3572271">
  <ele>529.4</ele>
  <time>2026-09-01T20:01:42Z</time>
  <course>270.41</course>
  <speed>19.960423342203942</speed>
  <fix>3d</fix>
</trkpt>
<trkpt lat="-27.2511746" lon="151.3572892">
  <ele>529.99</ele>
  <time>2026-09-01T20:01:42Z</time>
  <course>270.4</course>
  <speed>20.42</speed>
  <fix>3d</fix>
</trkpt>
<trkpt lat="-27.2511741" lon="151.357207">
  <ele>529.22</ele>
  <time>2026-09-01T20:01:42Z</time>
  <course>270.4</course>
  <speed>19.810426547654142</speed>
  <fix>3d</fix>
</trkpt>
<trkpt lat="-27.2511743" lon="151.3572482">
  <ele>529.6</ele>
  <time>2026-09-01T20:01:42Z</time>
  <course>270.39</course>
  <speed>20.12</speed>
  <fix>3d</fix>
</trkpt>
<trkpt lat="-27.251174" lon="151.3571871">
  <ele>529.04</ele>
  <time>2026-09-01T20:01:42Z</time>
  <course>270.39</course>
  <speed>19.670429583514437</speed>
  <fix>3d</fix>
</trkpt>
<trkpt lat="-27.2511743" lon="151.3572482">
  <ele>529.6</ele>
  <time>2026-09-01T20:01:42Z</time>
  <course>270.39</course>
  <speed>20.12</speed>
  <fix>3d</fix>
</trkpt>
<trkpt lat="-27.2511739" lon="151.3571672">
  <ele>528.86</ele>
  <time>2026-09-01T20:01:42Z</time>
  <course>270.39</course>
  <speed>19.52036884897414</speed>
  <fix>3d</fix>
</trkpt>
<trkpt lat="-27.2511741" lon="151.3572079">
  <ele>529.22</ele>
  <time>2026-09-01T20:01:42Z</time>
  <course>270.38</course>
  <speed>19.82</speed>
  <fix>3d</fix>
</trkpt>
<trkpt lat="-27.2511738" lon="151.3571476">
  <ele>528.68</ele>
  <time>2026-09-01T20:01:42Z</time>
  <course>270.38</course>
  <speed>19.38037151346692</speed>
  <fix>3d</fix>
</trkpt>
<trkpt lat="-27.2511741" lon="151.3572079">
  <ele>529.22</ele>
  <time>2026-09-01T20:01:42Z</time>
  <course>270.38</course>
  <speed>19.82</speed>
  <fix>3d</fix>
</trkpt>
<trkpt lat="-27.2511737" lon="151.357128">
  <ele>528.5</ele>
  <time>2026-09-01T20:01:42Z</time>
  <course>270.38</course>
  <speed>19.240374216734974</speed>
  <fix>3d</fix>
</trkpt>
<trkpt lat="-27.2511739" lon="151.3571682">
  <ele>528.86</ele>
  <time>2026-09-01T20:01:42Z</time>
  <course>270.37</course>
  <speed>19.53</speed>
  <fix>3d</fix>
</trkpt>
<trkpt lat="-27.2511736" lon="151.3571088">
  <ele>528.33</ele>
  <time>2026-09-01T20:01:42Z</time>
  <course>270.37</course>
  <speed>19.110316585551374</speed>
  <fix>3d</fix>
</trkpt>
<trkpt lat="-27.2511739" lon="151.3571682">
  <ele>528.86</ele>
  <time>2026-09-01T20:01:42Z</time>
  <course>270.37</course>
  <speed>19.53</speed>
  <fix>3d</fix>
</trkpt>
<trkpt lat="-27.2511735" lon="151.3570895">
  <ele>528.15</ele>
  <time>2026-09-01T20:01:42Z</time>
  <course>270.37</course>
  <speed>18.970318921936972</speed>
  <fix>3d</fix>
</trkpt>
<trkpt lat="-27.2511737" lon="151.357129">
  <ele>528.51</ele>
  <time>2026-09-01T20:01:42Z</time>
  <course>270.36</course>
  <speed>19.25</speed>
  <fix>3d</fix>
</trkpt>
<trkpt lat="-27.2511734" lon="151.3570704">
  <ele>527.97</ele>
  <time>2026-09-01T20:01:42Z</time>
  <course>270.36</course>
  <speed>18.84032112252867</speed>
  <fix>3d</fix>
</trkpt>
<trkpt lat="-27.2511737" lon="151.357129">
  <ele>528.51</ele>
  <time>2026-09-01T20:01:42Z</time>
  <course>270.36</course>
  <speed>19.25</speed>
  <fix>3d</fix>
</trkpt>
<trkpt lat="-27.2511733" lon="151.3570514">
  <ele>527.79</ele>
  <time>2026-09-01T20:01:42Z</time>
  <course>270.36</course>
  <speed>18.720323180970993</speed>
  <fix>3d</fix>
</trkpt>
<trkpt lat="-27.2511735" lon="151.3570904">
  <ele>528.15</ele>
  <time>2026-09-01T20:01:42Z</time>
  <course>270.35</course>
  <speed>18.98</speed>
  <fix>3d</fix>
</trkpt>
<trkpt lat="-27.2511732" lon="151.3570326">
  <ele>527.62</ele>
  <time>2026-09-01T20:01:42Z</time>
  <course>270.35</course>
  <speed>18.59026895986177</speed>
  <fix>3d</fix>
</trkpt>
<trkpt lat="-27.2511735" lon="151.3570904">
  <ele>528.15</ele>
  <time>2026-09-01T20:01:42Z</time>
  <course>270.35</course>
  <speed>18.98</speed>
  <fix>3d</fix>
</trkpt>
<trkpt lat="-27.2511731" lon="151.3570139">
  <ele>527.44</ele>
  <time>2026-09-01T20:01:42Z</time>
  <course>270.35</course>
  <speed>18.470270707274434</speed>
  <fix>3d</fix>
</trkpt>
<trkpt lat="-27.2511733" lon="151.3570523">
  <ele>527.8</ele>
  <time>2026-09-01T20:01:42Z</time>
  <course>270.34</course>
  <speed>18.72</speed>
  <fix>3d</fix>
</trkpt>
<trkpt lat="-27.251173" lon="151.3569953">
  <ele>527.26</ele>
  <time>2026-09-01T20:01:42Z</time>
  <course>270.34</course>
  <speed>18.350272477541033</speed>
  <fix>3d</fix>
</trkpt>
<trkpt lat="-27.2511733" lon="151.3570523">
  <ele>527.8</ele>
  <time>2026-09-01T20:01:42Z</time>
  <course>270.34</course>
  <speed>18.72</speed>
  <fix>3d</fix>
</trkpt>
<trkpt lat="-27.2511729" lon="151.3569767">
  <ele>527.08</ele>
  <time>2026-09-01T20:01:42Z</time>
  <course>270.34</course>
  <speed>18.2402741207472</speed>
  <fix>3d</fix>
</trkpt>
<trkpt lat="-27.2511731" lon="151.3570147">
  <ele>527.45</ele>
  <time>2026-09-01T20:01:42Z</time>
  <course>270.33</course>
  <speed>18.48</speed>
  <fix>3d</fix>
</trkpt>
<trkpt lat="-27.2511728" lon="151.3569584">
  <ele>526.9</ele>
  <time>2026-09-01T20:01:42Z</time>
  <course>270.33</course>
  <speed>18.130275783892532</speed>
  <fix>3d</fix>
</trkpt>
<trkpt lat="-27.2511731" lon="151.3570147">
  <ele>527.45</ele>
  <time>2026-09-01T20:01:42Z</time>
  <course>270.33</course>
  <speed>18.48</speed>
  <fix>3d</fix>
</trkpt>
<trkpt lat="-27.2511727" lon="151.3569402">
  <ele>526.71</ele>
  <time>2026-09-01T20:01:42Z</time>
  <course>270.33</course>
  <speed>18.020224748875915</speed>
  <fix>3d</fix>
</trkpt>
<trkpt lat="-27.2511729" lon="151.3569776">
  <ele>527.08</ele>
  <time>2026-09-01T20:01:42Z</time>
  <course>270.32</course>
  <speed>18.25</speed>
  <fix>3d</fix>
</trkpt>
<trkpt lat="-27.2511726" lon="151.356922">
  <ele>526.53</ele>
  <time>2026-09-01T20:01:42Z</time>
  <course>270.32</course>
  <speed>17.920226003039136</speed>
  <fix>3d</fix>
</trkpt>
<trkpt lat="-27.2511729" lon="151.3569776">
  <ele>527.08</ele>
  <time>2026-09-01T20:01:42Z</time>
  <course>270.32</course>
  <speed>18.25</speed>
  <fix>3d</fix>
</trkpt>
<trkpt lat="-27.2511725" lon="151.3569039">
  <ele>526.34</ele>
  <time>2026-09-01T20:01:42Z</time>
  <course>270.32</course>
  <speed>17.81022739888517</speed>
  <fix>3d</fix>
</trkpt>
<trkpt lat="-27.2511727" lon="151.3569408">
  <ele>526.72</ele>
  <time>2026-09-01T20:01:42Z</time>
  <course>270.31</course>
  <speed>18.03</speed>
  <fix>3d</fix>
</trkpt>
<trkpt lat="-27.2511724" lon="151.356886">
  <ele>526.16</ele>
  <time>2026-09-01T20:01:42Z</time>
  <course>270.31</course>
  <speed>17.72022855383079</speed>
  <fix>3d</fix>
</trkpt>
<trkpt lat="-27.2511727" lon="151.3569408">
  <ele>526.72</ele>
  <time>2026-09-01T20:01:42Z</time>
  <course>270.31</course>
  <speed>18.03</speed>
  <fix>3d</fix>
</trkpt>
<trkpt lat="-27.2511724" lon="151.3568681">
  <ele>525.97</ele>
  <time>2026-09-01T20:01:42Z</time>
  <course>270.31</course>
  <speed>17.620229850941218</speed>
  <fix>3d</fix>
</trkpt>
<trkpt lat="-27.2511725" lon="151.3569046">
  <ele>526.35</ele>
  <time>2026-09-01T20:01:42Z</time>
  <course>270.3</course>
  <speed>17.82</speed>
  <fix>3d</fix>
</trkpt>
<trkpt lat="-27.2511723" lon="151.3568503">
  <ele>525.78</ele>
  <time>2026-09-01T20:01:42Z</time>
  <course>270.3</course>
  <speed>17.5301825432595</speed>
  <fix>3d</fix>
</trkpt>
<trkpt lat="-27.2511725" lon="151.3569046">
  <ele>526.35</ele>
  <time>2026-09-01T20:01:42Z</time>
  <course>270.3</course>
  <speed>17.82</speed>
  <fix>3d</fix>
</trkpt>
<trkpt lat="-27.2511722" lon="151.3568328">
  <ele>525.59</ele>
  <time>2026-09-01T20:01:42Z</time>
  <course>270.3</course>
  <speed>17.43018359054201</speed>
  <fix>3d</fix>
</trkpt>
<trkpt lat="-27.2511723" lon="151.3568688">
  <ele>525.97</ele>
  <time>2026-09-01T20:01:42Z</time>
  <course>270.29</course>
  <speed>17.62</speed>
  <fix>3d</fix>
</trkpt>
<trkpt lat="-27.2511721" lon="151.3568152">
  <ele>525.4</ele>
  <time>2026-09-01T20:01:42Z</time>
  <course>270.3</course>
  <speed>17.350184437060026</speed>
  <fix>3d</fix>
</trkpt>
<trkpt lat="-27.2511723" lon="151.3568688">
  <ele>525.97</ele>
  <time>2026-09-01T20:01:42Z</time>
  <course>270.29</course>
  <speed>17.62</speed>
  <fix>3d</fix>
</trkpt>
<trkpt lat="-27.251172" lon="151.3567976">
  <ele>525.21</ele>
  <time>2026-09-01T20:01:42Z</time>
  <course>270.29</course>
  <speed>17.260185398772517</speed>
  <fix>3d</fix>
</trkpt>
<trkpt lat="-27.2511722" lon="151.3568334">
  <ele>525.6</ele>
  <time>2026-09-01T20:01:42Z</time>
  <course>270.28</course>
  <speed>17.44</speed>
  <fix>3d</fix>
</trkpt>
<trkpt lat="-27.251172" lon="151.3567803">
  <ele>525.02</ele>
  <time>2026-09-01T20:01:42Z</time>
  <course>270.29</course>
  <speed>17.180186262086917</speed>
  <fix>3d</fix>
</trkpt>
<trkpt lat="-27.2511722" lon="151.3568334">
  <ele>525.6</ele>
  <time>2026-09-01T20:01:42Z</time>
  <course>270.28</course>
  <speed>17.44</speed>
  <fix>3d</fix>
</trkpt>
<trkpt lat="-27.2511719" lon="151.3567629">
  <ele>524.82</ele>
  <time>2026-09-01T20:01:42Z</time>
  <course>270.28</course>
  <speed>17.10018713347898</speed>
  <fix>3d</fix>
</trkpt>
<trkpt lat="-27.251172" lon="151.3567983">
  <ele>525.21</ele>
  <time>2026-09-01T20:01:42Z</time>
  <course>270.28</course>
  <speed>17.26</speed>
  <fix>3d</fix>
</trkpt>
<trkpt lat="-27.2511718" lon="151.3567455">
  <ele>524.63</ele>
  <time>2026-09-01T20:01:42Z</time>
  <course>270.28</course>
  <speed>17.0201439476874</speed>
  <fix>3d</fix>
</trkpt>
<trkpt lat="-27.251172" lon="151.3567983">
  <ele>525.21</ele>
  <time>2026-09-01T20:01:42Z</time>
  <course>270.28</course>
  <speed>17.26</speed>
  <fix>3d</fix>
</trkpt>
<trkpt lat="-27.2493755" lon="151.3608262">
  <ele>542.98</ele>
  <time>2026-09-01T20:01:42Z</time>
  <course>250.01</course>
  <speed>0.0</speed>
  <fix>3d</fix>
</trkpt>
<trkpt lat="-27.2511719" lon="151.3567636">
  <ele>524.83</ele>
  <time>2026-09-01T20:01:42Z</time>
  <course>270.27</course>
  <speed>17.1</speed>
  <fix>3d</fix>
</trkpt>
<trkpt lat="-27.2493755" lon="151.3608262">
  <ele>542.87</ele>
  <time>2026-09-01T20:01:42Z</time>
  <course>250.0</course>
  <speed>0.0632455532033676</speed>
  <fix>3d</fix>
</trkpt>
<trkpt lat="-27.2511719" lon="151.3567636">
  <ele>524.83</ele>
  <time>2026-09-01T20:01:42Z</time>
  <course>270.27</course>
  <speed>17.1</speed>
  <fix>3d</fix>
</trkpt>
<trkpt lat="-27.2493755" lon="151.3608261">
  <ele>542.66</ele>
  <time>2026-09-01T20:01:42Z</time>
  <course>249.97</course>
  <speed>0.20248456731316586</speed>
  <fix>3d</fix>
</trkpt>
<trkpt lat="-27.2502736" lon="151.3587863">
  <ele>533.76</ele>
  <time>2026-09-01T20:01:42Z</time>
  <course>270.19</course>
  <speed>8.54</speed>
  <fix>3d</fix>
</trkpt>
<trkpt lat="-27.2493756" lon="151.3608257">
  <ele>542.38</ele>
  <time>2026-09-01T20:01:42Z</time>
  <course>250.36</course>
  <speed>0.4427188724235731</speed>
  <fix>3d</fix>
</trkpt>
<trkpt lat="-27.2502736" lon="151.3587863">
  <ele>533.76</ele>
  <time>2026-09-01T20:01:42Z</time>
  <course>270.19</course>
  <speed>8.54</speed>
  <fix>3d</fix>
</trkpt>
<trkpt lat="-27.2493757" lon="151.3608252">
  <ele>542.01</ele>
  <time>2026-09-01T20:01:42Z</time>
  <course>253.25</course>
  <speed>0.7481310045707236</speed>
  <fix>3d</fix>
</trkpt>
<trkpt lat="-27.2493755" lon="151.3608261">
  <ele>542.64</ele>
  <time>2026-09-01T20:01:42Z</time>
  <course>251.02</course>
  <speed>0.24</speed>
  <fix>3d</fix>
</trkpt>
<trkpt lat="-27.2493758" lon="151.3608243">
  <ele>541.57</ele>
  <time>2026-09-01T20:01:42Z</time>
  <course>262.64</course>
  <speed>1.101135777277262</speed>
  <fix>3d</fix>
</trkpt>
<trkpt lat="-27.2493755" lon="151.3608261">
  <ele>542.64</ele>
  <time>2026-09-01T20:01:42Z</time>
  <course>251.02</course>
  <speed>0.24</speed>
  <fix>3d</fix>
</trkpt>
<trkpt lat="-27.249376" lon="151.3608231">
  <ele>541.04</ele>
  <time>2026-09-01T20:01:42Z</time>
  <course>263.6</course>
  <speed>1.5115885683611134</speed>
  <fix>3d</fix>
</trkpt>
<trkpt lat="-27.2493757" lon="151.3608251">
  <ele>541.99</ele>
  <time>2026-09-01T20:01:42Z</time>
  <course>262.54</course>
  <speed>0.75</speed>
  <fix>3d</fix>
</trkpt>
<trkpt lat="-27.2493772" lon="151.3608217">
  <ele>540.48</ele>
  <time>2026-09-01T20:01:42Z</time>
  <course>252.16</course>
  <speed>2.8623242304113625</speed>
  <fix>3d</fix>
</trkpt>
<trkpt lat="-27.2493757" lon="151.3608251">
  <ele>541.99</ele>
  <time>2026-09-01T20:01:42Z</time>
  <course>262.54</course>
  <speed>0.75</speed>
  <fix>3d</fix>
</trkpt>
<trkpt lat="-27.2493802" lon="151.3608202">
  <ele>539.93</ele>
  <time>2026-09-01T20:01:42Z</time>
  <course>244.06</course>
  <speed>4.370491963154721</speed>
  <fix>3d</fix>
</trkpt>
<trkpt lat="-27.2493764" lon="151.360823">
  <ele>541.04</ele>
  <time>2026-09-01T20:01:42Z</time>
  <course>226.58</course>
  <speed>1.76</speed>
  <fix>3d</fix>
</trkpt>
<trkpt lat="-27.2493846" lon="151.3608189">
  <ele>539.43</ele>
  <time>2026-09-01T20:01:42Z</time>
  <course>238.24</course>
  <speed>5.6846635784362824</speed>
  <fix>3d</fix>
</trkpt>
<trkpt lat="-27.2493764" lon="151.360823">
  <ele>541.04</ele>
  <time>2026-09-01T20:01:42Z</time>
  <course>226.58</course>
  <speed>1.76</speed>
  <fix>3d</fix>
</trkpt>
<trkpt lat="-27.2493901" lon="151.3608176">
  <ele>539.02</ele>
  <time>2026-09-01T20:01:42Z</time>
  <course>233.64</course>
  <speed>6.717328337962943</speed>
  <fix>3d</fix>
</trkpt>
<trkpt lat="-27.2493807" lon="151.3608203">
  <ele>539.97</ele>
  <time>2026-09-01T20:01:42Z</time>
  <course>199.03</course>
  <speed>4.17</speed>
  <fix>3d</fix>
</trkpt>
<trkpt lat="-27.2493964" lon="151.3608162">
  <ele>538.71</ele>
  <time>2026-09-01T20:01:42Z</time>
  <course>230.09</course>
  <speed>7.475433097821155</speed>
  <fix>3d</fix>
</trkpt>
<trkpt lat="-27.2493807" lon="151.3608203">
  <ele>539.97</ele>
  <time>2026-09-01T20:01:42Z</time>
  <course>199.03</course>
  <speed>4.17</speed>
  <fix>3d</fix>
</trkpt>
<trkpt lat="-27.2494031" lon="151.3608142">
  <ele>538.52</ele>
  <time>2026-09-01T20:01:42Z</time>
  <course>227.64</course>
  <speed>7.903701664410164</speed>
  <fix>3d</fix>
</trkpt>
<trkpt lat="-27.2493903" lon="151.3608176">
  <ele>539.07</ele>
  <time>2026-09-01T20:01:42Z</time>
  <course>192.49</course>
  <speed>6.55</speed>
  <fix>3d</fix>
</trkpt>
<trkpt lat="-27.2494099" lon="151.3608114">
  <ele>538.43</ele>
  <time>2026-09-01T20:01:42Z</time>
  <course>226.26</course>
  <speed>8.205035039535176</speed>
  <fix>3d</fix>
</trkpt>
<trkpt lat="-27.2493903" lon="151.3608176">
  <ele>539.07</ele>
  <time>2026-09-01T20:01:42Z</time>
  <course>192.49</course>
  <speed>6.55</speed>
  <fix>3d</fix>
</trkpt>
<trkpt lat="-27.2494165" lon="151.3608075">
  <ele>538.39</ele>
  <time>2026-09-01T20:01:42Z</time>
  <course>226.22</course>
  <speed>8.513189766474138</speed>
  <fix>3d</fix>
</trkpt>
<trkpt lat="-27.2494029" lon="151.3608138">
  <ele>538.57</ele>
  <time>2026-09-01T20:01:42Z</time>
  <course>198.4</course>
  <speed>7.79</speed>
  <fix>3d</fix>
</trkpt>
<trkpt lat="-27.249423" lon="151.3608025">
  <ele>538.36</ele>
  <time>2026-09-01T20:01:42Z</time>
  <course>227.37</course>
  <speed>8.902415402574741</speed>
  <fix>3d</fix>
</trkpt>
<trkpt lat="-27.2494029" lon="151.3608138">
  <ele>538.57</ele>
  <time>2026-09-01T20:01:42Z</time>
  <course>198.4</course>
  <speed>7.79</speed>
  <fix>3d</fix>
</trkpt>
<trkpt lat="-27.2494292" lon="151.3607965">
  <ele>538.34</ele>
  <time>2026-09-01T20:01:42Z</time>
  <course>229.51</course>
  <speed>9.34582794620145</speed>
  <fix>3d</fix>
</trkpt>
<trkpt lat="-27.2494161" lon="151.3608071">
  <ele>538.39</ele>
  <time>2026-09-01T20:01:42Z</time>
  <course>210.82</course>
  <speed>8.48</speed>
  <fix>3d</fix>
</trkpt>
<trkpt lat="-27.2494352" lon="151.3607896">
  <ele>538.29</ele>
  <time>2026-09-01T20:01:42Z</time>
  <course>232.48</course>
  <speed>9.837586086027406</speed>
  <fix>3d</fix>
</trkpt>
<trkpt lat="-27.2494161" lon="151.3608071">
  <ele>538.39</ele>
  <time>2026-09-01T20:01:42Z</time>
  <course>210.82</course>
  <speed>8.48</speed>
  <fix>3d</fix>
</trkpt>
<trkpt lat="-27.2494409" lon="151.3607817">
  <ele>538.23</ele>
  <time>2026-09-01T20:01:42Z</time>
  <course>236.08</course>
  <speed>10.368027777740567</speed>
  <fix>3d</fix>
</trkpt>
<trkpt lat="-27.2494288" lon="151.3607963">
  <ele>538.32</ele>
  <time>2026-09-01T20:01:42Z</time>
  <course>222.94</course>
  <speed>9.31</speed>
  <fix>3d</fix>
</trkpt>
<trkpt lat="-27.2494464" lon="151.3607729">
  <ele>538.15</ele>
  <time>2026-09-01T20:01:42Z</time>
  <course>239.82</course>
  <speed>10.899344016958084</speed>
  <fix>3d</fix>
</trkpt>
<trkpt lat="-27.2494288" lon="151.3607963">
  <ele>538.32</ele>
  <time>2026-09-01T20:01:42Z</time>
  <course>222.94</course>
  <speed>9.31</speed>
  <fix>3d</fix>
</trkpt>
<trkpt lat="-27.2494515" lon="151.360763">
  <ele>538.04</ele>
  <time>2026-09-01T20:01:42Z</time>
  <course>243.46</course>
  <speed>11.44070802004841</speed>
  <fix>3d</fix>
</trkpt>
<trkpt lat="-27.2494406" lon="151.3607815">
  <ele>538.22</ele>
  <time>2026-09-01T20:01:42Z</time>
  <course>232.95</course>
  <speed>10.32</speed>
  <fix>3d</fix>
</trkpt>
<trkpt lat="-27.2494561" lon="151.3607525">
  <ele>537.91</ele>
  <time>2026-09-01T20:01:42Z</time>
  <course>246.77</course>
  <speed>11.989532935022948</speed>
  <fix>3d</fix>
</trkpt>
<trkpt lat="-27.2494406" lon="151.3607815">
  <ele>538.22</ele>
  <time>2026-09-01T20:01:42Z</time>
  <course>232.95</course>
  <speed>10.32</speed>
  <fix>3d</fix>
</trkpt>
<trkpt lat="-27.2494603" lon="151.360741">
  <ele>537.79</ele>
  <time>2026-09-01T20:01:42Z</time>
  <course>249.74</course>
  <speed>12.548007810007132</speed>
  <fix>3d</fix>
</trkpt>
<trkpt lat="-27.2494511" lon="151.360763">
  <ele>538.04</ele>
  <time>2026-09-01T20:01:42Z</time>
  <course>241.59</course>
  <speed>11.4</speed>
  <fix>3d</fix>
</trkpt>
<trkpt lat="-27.2494641" lon="151.3607288">
  <ele>537.66</ele>
  <time>2026-09-01T20:01:42Z</time>
  <course>252.32</course>
  <speed>13.104476334443891</speed>
  <fix>3d</fix>
</trkpt>
<trkpt lat="-27.2494511" lon="151.360763">
  <ele>538.04</ele>
  <time>2026-09-01T20:01:42Z</time>
  <course>241.59</course>
  <speed>11.4</speed>
  <fix>3d</fix>
</trkpt>
<trkpt lat="-27.2494673" lon="151.3607157">
  <ele>537.52</ele>
  <time>2026-09-01T20:01:42Z</time>
  <course>254.6</course>
  <speed>13.645057713326096</speed>
  <fix>3d</fix>
</trkpt>
<trkpt lat="-27.24946" lon="151.360741">
  <ele>537.79</ele>
  <time>2026-09-01T20:01:42Z</time>
  <course>249.25</course>
  <speed>12.51</speed>
  <fix>3d</fix>
</trkpt>
<trkpt lat="-27.24947" lon="151.3607021">
  <ele>537.4</ele>
  <time>2026-09-01T20:01:42Z</time>
  <course>256.53</course>
  <speed>14.177295228639348</speed>
  <fix>3d</fix>
</trkpt>
<trkpt lat="-27.24946" lon="151.360741">
  <ele>537.79</ele>
  <time>2026-09-01T20:01:42Z</time>
  <course>249.25</course>
  <speed>12.51</speed>
  <fix>3d</fix>
</trkpt>
<trkpt lat="-27.2494722" lon="151.3606876">
  <ele>537.28</ele>
  <time>2026-09-01T20:01:42Z</time>
  <course>258.36</course>
  <speed>14.706994934384115</speed>
  <fix>3d</fix>
</trkpt>
<trkpt lat="-27.2494669" lon="151.3607158">
  <ele>537.53</ele>
  <time>2026-09-01T20:01:42Z</time>
  <course>255.84</course>
  <speed>13.6</speed>
  <fix>3d</fix>
</trkpt>
<trkpt lat="-27.249474" lon="151.3606725">
  <ele>537.18</ele>
  <time>2026-09-01T20:01:42Z</time>
  <course>260.29</course>
  <speed>15.218649742996256</speed>
  <fix>3d</fix>
</trkpt>
<trkpt lat="-27.2494669" lon="151.3607158">
  <ele>537.53</ele>
  <time>2026-09-01T20:01:42Z</time>
  <course>255.84</course>
  <speed>13.6</speed>
  <fix>3d</fix>
</trkpt>
<trkpt lat="-27.2494754" lon="151.360657">
  <ele>537.09</ele>
  <time>2026-09-01T20:01:42Z</time>
  <course>262.16</course>
  <speed>15.711413049118148</speed>
  <fix>3d</fix>
</trkpt>
<trkpt lat="-27.2494718" lon="151.3606878">
  <ele>537.29</ele>
  <time>2026-09-01T20:01:42Z</time>
  <course>261.14</course>
  <speed>14.67</speed>
  <fix>3d</fix>
</trkpt>
<trkpt lat="-27.2494763" lon="151.3606409">
  <ele>537.01</ele>
  <time>2026-09-01T20:01:42Z</time>
  <course>263.8</course>
  <speed>16.19180348200904</speed>
  <fix>3d</fix>
</trkpt>
<trkpt lat="-27.2494718" lon="151.3606878">
  <ele>537.29</ele>
  <time>2026-09-01T20:01:42Z</time>
  <course>261.14</course>
  <speed>14.67</speed>
  <fix>3d</fix>
</trkpt>
<trkpt lat="-27.2494769" lon="151.3606244">
  <ele>536.95</ele>
  <time>2026-09-01T20:01:42Z</time>
  <course>265.25</course>
  <speed>16.655812799140122</speed>
  <fix>3d</fix>
</trkpt>
<trkpt lat="-27.2494751" lon="151.3606573">
  <ele>537.09</ele>
  <time>2026-09-01T20:01:42Z</time>
  <course>265.21</course>
  <speed>15.68</speed>
  <fix>3d</fix>
</trkpt>
<trkpt lat="-27.2494771" lon="151.3606073">
  <ele>536.89</ele>
  <time>2026-09-01T20:01:42Z</time>
  <course>266.63</course>
  <speed>17.11018702410935</speed>
  <fix>3d</fix>
</trkpt>
<trkpt lat="-27.2494751" lon="151.3606573">
  <ele>537.09</ele>
  <time>2026-09-01T20:01:42Z</time>
  <course>265.21</course>
  <speed>15.68</speed>
  <fix>3d</fix>
</trkpt>
<trkpt lat="-27.249477" lon="151.3605897">
  <ele>536.86</ele>
  <time>2026-09-01T20:01:42Z</time>
  <course>267.9</course>
  <speed>17.541781551484444</speed>
  <fix>3d</fix>
</trkpt>
<trkpt lat="-27.2494767" lon="151.3606247">
  <ele>536.95</ele>
  <time>2026-09-01T20:01:42Z</time>
  <course>268.34</course>
  <speed>16.63</speed>
  <fix>3d</fix>
</trkpt>
<trkpt lat="-27.2494767" lon="151.3605719">
  <ele>536.84</ele>
  <time>2026-09-01T20:01:42Z</time>
  <course>269.01</course>
  <speed>17.968728391291354</speed>
  <fix>3d</fix>
</trkpt>
<trkpt lat="-27.2494767" lon="151.3606247">
  <ele>536.95</ele>
  <time>2026-09-01T20:01:42Z</time>
  <course>268.34</course>
  <speed>16.63</speed>
  <fix>3d</fix>
</trkpt>
<trkpt lat="-27.249476" lon="151.3605534">
  <ele>536.83</ele>
  <time>2026-09-01T20:01:42Z</time>
  <course>269.95</course>
  <speed>18.379205641158705</speed>
  <fix>3d</fix>
</trkpt>
<trkpt lat="-27.2494769" lon="151.3605902">
  <ele>536.87</ele>
  <time>2026-09-01T20:01:42Z</time>
  <course>270.75</course>
  <speed>17.52</speed>
  <fix>3d</fix>
</trkpt>
<trkpt lat="-27.2494752" lon="151.3605347">
  <ele>536.84</ele>
  <time>2026-09-01T20:01:42Z</time>
  <course>270.72</course>
  <speed>18.77109480025073</speed>
  <fix>3d</fix>
</trkpt>
<trkpt lat="-27.2494769" lon="151.3605902">
  <ele>536.87</ele>
  <time>2026-09-01T20:01:42Z</time>
  <course>270.75</course>
  <speed>17.52</speed>
  <fix>3d</fix>
</trkpt>
<trkpt lat="-27.2494741" lon="151.3605155">
  <ele>536.87</ele>
  <time>2026-09-01T20:01:42Z</time>
  <course>271.42</course>
  <speed>19.153490543501462</speed>
  <fix>3d</fix>
</trkpt>
<trkpt lat="-27.2494759" lon="151.3605539">
  <ele>536.84</ele>
  <time>2026-09-01T20:01:42Z</time>
  <course>272.54</course>
  <speed>18.35</speed>
  <fix>3d</fix>
</trkpt>
<trkpt lat="-27.249473" lon="151.3604962">
  <ele>536.91</ele>
  <time>2026-09-01T20:01:42Z</time>
  <course>272.0</course>
  <speed>19.51469190123175</speed>
  <fix>3d</fix>
</trkpt>
<trkpt lat="-27.2494759" lon="151.3605539">
  <ele>536.84</ele>
  <time>2026-09-01T20:01:42Z</time>
  <course>272.54</course>
  <speed>18.35</speed>
  <fix>3d</fix>
</trkpt>
<trkpt lat="-27.2494716" lon="151.3604762">
  <ele>536.96</ele>
  <time>2026-09-01T20:01:42Z</time>
  <course>272.55</course>
  <speed>19.865349229248398</speed>
  <fix>3d</fix>
</trkpt>
<trkpt lat="-27.2494741" lon="151.360516">
  <ele>536.87</ele>
  <time>2026-09-01T20:01:42Z</time>
  <course>273.8</course>
  <speed>19.13</speed>
  <fix>3d</fix>
</trkpt>
<trkpt lat="-27.2494701" lon="151.3604561">
  <ele>537.03</ele>
  <time>2026-09-01T20:01:42Z</time>
  <course>273.13</course>
  <speed>20.195098415209568</speed>
  <fix>3d</fix>
</trkpt>
<trkpt lat="-27.2494741" lon="151.360516">
  <ele>536.87</ele>
  <time>2026-09-01T20:01:42Z</time>
  <course>273.8</course>
  <speed>19.13</speed>
  <fix>3d</fix>
</trkpt>
<trkpt lat="-27.2494684" lon="151.3604356">
  <ele>537.11</ele>
  <time>2026-09-01T20:01:42Z</time>
  <course>273.63</course>
  <speed>20.523549887872715</speed>
  <fix>3d</fix>
</trkpt>
<trkpt lat="-27.2494715" lon="151.3604767">
  <ele>536.97</ele>
  <time>2026-09-01T20:01:42Z</time>
  <course>274.62</course>
  <speed>19.85</speed>
  <fix>3d</fix>
</trkpt>
<trkpt lat="-27.2494667" lon="151.3604148">
  <ele>537.19</ele>
  <time>2026-09-01T20:01:42Z</time>
  <course>274.02</course>
  <speed>20.841425095228015</speed>
  <fix>3d</fix>
</trkpt>
<trkpt lat="-27.2494715" lon="151.3604767">
  <ele>536.97</ele>
  <time>2026-09-01T20:01:42Z</time>
  <course>274.62</course>
  <speed>19.85</speed>
  <fix>3d</fix>
</trkpt>
<trkpt lat="-27.2494649" lon="151.3603937">
  <ele>537.28</ele>
  <time>2026-09-01T20:01:42Z</time>
  <course>274.36</course>
  <speed>21.12871269150111</speed>
  <fix>3d</fix>
</trkpt>
<trkpt lat="-27.2494684" lon="151.3604361">
  <ele>537.11</ele>
  <time>2026-09-01T20:01:42Z</time>
  <course>275.16</course>
  <speed>20.51</speed>
  <fix>3d</fix>
</trkpt>
<trkpt lat="-27.2494631" lon="151.3603724">
  <ele>537.37</ele>
  <time>2026-09-01T20:01:42Z</time>
  <course>274.68</course>
  <speed>21.385340773529887</speed>
  <fix>3d</fix>
</trkpt>
<trkpt lat="-27.2494684" lon="151.3604361">
  <ele>537.11</ele>
  <time>2026-09-01T20:01:42Z</time>
  <course>275.16</course>
  <speed>20.51</speed>
  <fix>3d</fix>
</trkpt>
<trkpt lat="-27.2494611" lon="151.3603507">
  <ele>537.44</ele>
  <time>2026-09-01T20:01:42Z</time>
  <course>274.85</course>
  <speed>21.622213115220188</speed>
  <fix>3d</fix>
</trkpt>
<trkpt lat="-27.2494649" lon="151.3603943">
  <ele>537.27</ele>
  <time>2026-09-01T20:01:43Z</time>
  <course>275.54</course>
  <speed>21.11</speed>
  <fix>3d</fix>
</trkpt>
<trkpt lat="-27.2494591" lon="151.3603288">
  <ele>537.51</ele>
  <time>2026-09-01T20:01:43Z</time>
  <course>274.98</course>
  <speed>21.81736922729228</speed>
  <fix>3d</fix>
</trkpt>
<trkpt lat="-27.2494649" lon="151.3603943">
  <ele>537.27</ele>
  <time>2026-09-01T20:01:43Z</time>
  <course>275.54</course>
  <speed>21.11</speed>
  <fix>3d</fix>
</trkpt>
<trkpt lat="-27.2494571" lon="151.3603068">
  <ele>537.56</ele>
  <time>2026-09-01T20:01:43Z</time>
  <course>275.16</course>
  <speed>21.98171285409761</speed>
  <fix>3d</fix>
</trkpt>
<trkpt lat="-27.2494611" lon="151.3603513">
  <ele>537.43</ele>
  <time>2026-09-01T20:01:43Z</time>
  <course>275.82</course>
  <speed>21.6</speed>
  <fix>3d</fix>
</trkpt>
<trkpt lat="-27.249455" lon="151.3602847">
  <ele>537.6</ele>
  <time>2026-09-01T20:01:43Z</time>
  <course>275.32</course>
  <speed>22.125155366686126</speed>
  <fix>3d</fix>
</trkpt>
<trkpt lat="-27.2494611" lon="151.3603513">
  <ele>537.43</ele>
  <time>2026-09-01T20:01:43Z</time>
  <course>275.82</course>
  <speed>21.6</speed>
  <fix>3d</fix>
</trkpt>
<trkpt lat="-27.2494528" lon="151.3602625">
  <ele>537.63</ele>
  <time>2026-09-01T20:01:43Z</time>
  <course>275.47</course>
  <speed>22.228857370544265</speed>
  <fix>3d</fix>
</trkpt>
<trkpt lat="-27.2494571" lon="151.3603075">
  <ele>537.55</ele>
  <time>2026-09-01T20:01:43Z</time>
  <course>276.03</course>
  <speed>21.97</speed>
  <fix>3d</fix>
</trkpt>
<trkpt lat="-27.2494507" lon="151.3602401">
  <ele>537.64</ele>
  <time>2026-09-01T20:01:43Z</time>
  <course>275.63</course>
  <speed>22.301688276899576</speed>
  <fix>3d</fix>
</trkpt>
<trkpt lat="-27.2494571" lon="151.3603075">
  <ele>537.55</ele>
  <time>2026-09-01T20:01:43Z</time>
  <course>276.03</course>
  <speed>21.97</speed>
  <fix>3d</fix>
</trkpt>
<trkpt lat="-27.2494485" lon="151.3602177">
  <ele>537.63</ele>
  <time>2026-09-01T20:01:43Z</time>
  <course>275.74</course>
  <speed>22.35356794786908</speed>
  <fix>3d</fix>
</trkpt>
<trkpt lat="-27.2494528" lon="151.3602631">
  <ele>537.62</ele>
  <time>2026-09-01T20:01:43Z</time>
  <course>276.17</course>
  <speed>22.21</speed>
  <fix>3d</fix>
</trkpt>
<trkpt lat="-27.2494463" lon="151.3601952">
  <ele>537.61</ele>
  <time>2026-09-01T20:01:43Z</time>
  <course>275.86</course>
  <speed>22.405456924597633</speed>
  <fix>3d</fix>
</trkpt>
<trkpt lat="-27.2494528" lon="151.3602631">
  <ele>537.62</ele>
  <time>2026-09-01T20:01:43Z</time>
  <course>276.17</course>
  <speed>22.21</speed>
  <fix>3d</fix>
</trkpt>
<trkpt lat="-27.249444" lon="151.3601727">
  <ele>537.58</ele>
  <time>2026-09-01T20:01:43Z</time>
  <course>276.0</course>
  <speed>22.427538875231047</speed>
  <fix>3d</fix>
</trkpt>
<trkpt lat="-27.2494485" lon="151.3602182">
  <ele>537.62</ele>
  <time>2026-09-01T20:01:43Z</time>
  <course>276.27</course>
  <speed>22.35</speed>
  <fix>3d</fix>
</trkpt>
<trkpt lat="-27.2494418" lon="151.36015">
  <ele>537.53</ele>
  <time>2026-09-01T20:01:43Z</time>
  <course>276.05</course>
  <speed>22.438585071256167</speed>
  <fix>3d</fix>
</trkpt>
<trkpt lat="-27.2494485" lon="151.3602182">
  <ele>537.62</ele>
  <time>2026-09-01T20:01:43Z</time>
  <course>276.27</course>
  <speed>22.35</speed>
  <fix>3d</fix>
</trkpt>
<trkpt lat="-27.2494395" lon="151.3601273">
  <ele>537.48</ele>
  <time>2026-09-01T20:01:43Z</time>
  <course>276.11</course>
  <speed>22.449634740903917</speed>
  <fix>3d</fix>
</trkpt>
<trkpt lat="-27.2494441" lon="151.3601732">
  <ele>537.57</ele>
  <time>2026-09-01T20:01:43Z</time>
  <course>276.35</course>
  <speed>22.42</speed>
  <fix>3d</fix>
</trkpt>
<trkpt lat="-27.2494373" lon="151.3601048">
  <ele>537.41</ele>
  <time>2026-09-01T20:01:43Z</time>
  <course>276.1</course>
  <speed>22.470625269449002</speed>
  <fix>3d</fix>
</trkpt>
<trkpt lat="-27.2494441" lon="151.3601732">
  <ele>537.57</ele>
  <time>2026-09-01T20:01:43Z</time>
  <course>276.35</course>
  <speed>22.42</speed>
  <fix>3d</fix>
</trkpt>
<trkpt lat="-27.249435" lon="151.3600822">
  <ele>537.35</ele>
  <time>2026-09-01T20:01:43Z</time>
  <course>276.11</course>
  <speed>22.481681431779077</speed>
  <fix>3d</fix>
</trkpt>
<trkpt lat="-27.2494396" lon="151.3601281">
  <ele>537.48</ele>
  <time>2026-09-01T20:01:43Z</time>
  <course>276.41</course>
  <speed>22.46</speed>
  <fix>3d</fix>
</trkpt>
<trkpt lat="-27.2494327" lon="151.3600597">
  <ele>537.27</ele>
  <time>2026-09-01T20:01:43Z</time>
  <course>276.15</course>
  <speed>22.501555501786985</speed>
  <fix>3d</fix>
</trkpt>
<trkpt lat="-27.2494396" lon="151.3601281">
  <ele>537.48</ele>
  <time>2026-09-01T20:01:43Z</time>
  <course>276.41</course>
  <speed>22.46</speed>
  <fix>3d</fix>
</trkpt>
<trkpt lat="-27.2494305" lon="151.3600371">
  <ele>537.2</ele>
  <time>2026-09-01T20:01:43Z</time>
  <course>276.16</course>
  <speed>22.520313052886276</speed>
  <fix>3d</fix>
</trkpt>
<trkpt lat="-27.249435" lon="151.360083">
  <ele>537.35</ele>
  <time>2026-09-01T20:01:43Z</time>
  <course>276.43</course>
  <speed>22.49</speed>
  <fix>3d</fix>
</trkpt>
<trkpt lat="-27.2494281" lon="151.3600145">
  <ele>537.12</ele>
  <time>2026-09-01T20:01:43Z</time>
  <course>276.18</course>
  <speed>22.540188552893696</speed>
  <fix>3d</fix>
</trkpt>
<trkpt lat="-27.249435" lon="151.360083">
  <ele>537.35</ele>
  <time>2026-09-01T20:01:43Z</time>
  <course>276.43</course>
  <speed>22.49</speed>
  <fix>3d</fix>
</trkpt>
<trkpt lat="-27.249426" lon="151.3599918">
  <ele>537.04</ele>
  <time>2026-09-01T20:01:43Z</time>
  <course>276.23</course>
  <speed>22.558953876454467</speed>
  <fix>3d</fix>
</trkpt>
<trkpt lat="-27.2494305" lon="151.3600379">
  <ele>537.2</ele>
  <time>2026-09-01T20:01:43Z</time>
  <course>276.41</course>
  <speed>22.52</speed>
  <fix>3d</fix>
</trkpt>
<trkpt lat="-27.2494237" lon="151.3599692">
  <ele>536.96</ele>
  <time>2026-09-01T20:01:43Z</time>
  <course>276.24</course>
  <speed>22.568892307776206</speed>
  <fix>3d</fix>
</trkpt>
<trkpt lat="-27.2494305" lon="151.3600379">
  <ele>537.2</ele>
  <time>2026-09-01T20:01:43Z</time>
  <course>276.41</course>
  <speed>22.52</speed>
  <fix>3d</fix>
</trkpt>
<trkpt lat="-27.2494215" lon="151.3599465">
  <ele>536.89</ele>
  <time>2026-09-01T20:01:43Z</time>
  <course>276.25</course>
  <speed>22.587664775270596</speed>
  <fix>3d</fix>
</trkpt>
<trkpt lat="-27.249426" lon="151.3599926">
  <ele>537.04</ele>
  <time>2026-09-01T20:01:43Z</time>
  <course>276.38</course>
  <speed>22.55</speed>
  <fix>3d</fix>
</trkpt>
<trkpt lat="-27.2494192" lon="151.3599238">
  <ele>536.82</ele>
  <time>2026-09-01T20:01:43Z</time>
  <course>276.22</course>
  <speed>22.59650415440406</speed>
  <fix>3d</fix>
</trkpt>
<trkpt lat="-27.249426" lon="151.3599926">
  <ele>537.04</ele>
  <time>2026-09-01T20:01:43Z</time>
  <course>276.38</course>
  <speed>22.55</speed>
  <fix>3d</fix>
</trkpt>
<trkpt lat="-27.249417" lon="151.3599012">
  <ele>536.76</ele>
  <time>2026-09-01T20:01:43Z</time>
  <course>276.13</course>
  <speed>22.61419907933951</speed>
  <fix>3d</fix>
</trkpt>
<trkpt lat="-27.2494215" lon="151.3599472">
  <ele>536.89</ele>
  <time>2026-09-01T20:01:43Z</time>
  <course>276.32</course>
  <speed>22.59</speed>
  <fix>3d</fix>
</trkpt>
<trkpt lat="-27.2494148" lon="151.3598783">
  <ele>536.69</ele>
  <time>2026-09-01T20:01:43Z</time>
  <course>276.08</course>
  <speed>22.621973830769058</speed>
  <fix>3d</fix>
</trkpt>
<trkpt lat="-27.2494215" lon="151.3599472">
  <ele>536.89</ele>
  <time>2026-09-01T20:01:43Z</time>
  <course>276.32</course>
  <speed>22.59</speed>
  <fix>3d</fix>
</trkpt>
<trkpt lat="-27.2494126" lon="151.3598557">
  <ele>536.63</ele>
  <time>2026-09-01T20:01:43Z</time>
  <course>276.1</course>
  <speed>22.630839577885748</speed>
  <fix>3d</fix>
</trkpt>
<trkpt lat="-27.2494171" lon="151.3599019">
  <ele>536.75</ele>
  <time>2026-09-01T20:01:43Z</time>
  <course>276.25</course>
  <speed>22.61</speed>
  <fix>3d</fix>
</trkpt>
<trkpt lat="-27.2494105" lon="151.3598329">
  <ele>536.57</ele>
  <time>2026-09-01T20:01:43Z</time>
  <course>276.12</course>
  <speed>22.638643952321882</speed>
  <fix>3d</fix>
</trkpt>
<trkpt lat="-27.2494171" lon="151.3599019">
  <ele>536.75</ele>
  <time>2026-09-01T20:01:43Z</time>
  <course>276.25</course>
  <speed>22.61</speed>
  <fix>3d</fix>
</trkpt>
<trkpt lat="-27.2494083" lon="151.3598102">
  <ele>536.51</ele>
  <time>2026-09-01T20:01:43Z</time>
  <course>276.09</course>
  <speed>22.646467715738805</speed>
  <fix>3d</fix>
</trkpt>
<trkpt lat="-27.2494127" lon="151.3598564">
  <ele>536.63</ele>
  <time>2026-09-01T20:01:43Z</time>
  <course>276.17</course>
  <speed>22.63</speed>
  <fix>3d</fix>
</trkpt>
<trkpt lat="-27.2494061" lon="151.3597874">
  <ele>536.46</ele>
  <time>2026-09-01T20:01:43Z</time>
  <course>276.06</course>
  <speed>22.655359189383866</speed>
  <fix>3d</fix>
</trkpt>
<trkpt lat="-27.2494127" lon="151.3598564">
  <ele>536.63</ele>
  <time>2026-09-01T20:01:43Z</time>
  <course>276.17</course>
  <speed>22.63</speed>
  <fix>3d</fix>
</trkpt>
<trkpt lat="-27.249404" lon="151.3597647">
  <ele>536.4</ele>
  <time>2026-09-01T20:01:43Z</time>
  <course>276.03</course>
  <speed>22.66321248190556</speed>
  <fix>3d</fix>
</trkpt>
<trkpt lat="-27.2494083" lon="151.3598109">
  <ele>536.51</ele>
  <time>2026-09-01T20:01:43Z</time>
  <course>276.07</course>
  <speed>22.65</speed>
  <fix>3d</fix>
</trkpt>
<trkpt lat="-27.2494019" lon="151.3597419">
  <ele>536.34</ele>
  <time>2026-09-01T20:01:43Z</time>
  <course>275.96</course>
  <speed>22.67108510856946</speed>
  <fix>3d</fix>
</trkpt>
<trkpt lat="-27.2494083" lon="151.3598109">
  <ele>536.51</ele>
  <time>2026-09-01T20:01:43Z</time>
  <course>276.07</course>
  <speed>22.65</speed>
  <fix>3d</fix>
</trkpt>
<trkpt lat="-27.2493998" lon="151.3597191">
  <ele>536.28</ele>
  <time>2026-09-01T20:01:43Z</time>
  <course>275.9</course>
  <speed>22.688924610919752</speed>
  <fix>3d</fix>
</trkpt>
<trkpt lat="-27.2494041" lon="151.3597653">
  <ele>536.4</ele>
  <time>2026-09-01T20:01:43Z</time>
  <course>275.98</course>
  <speed>22.66</speed>
  <fix>3d</fix>
</trkpt>
<trkpt lat="-27.2493977" lon="151.3596963">
  <ele>536.21</ele>
  <time>2026-09-01T20:01:43Z</time>
  <course>275.82</course>
  <speed>22.70678532950008</speed>
  <fix>3d</fix>
</trkpt>
<trkpt lat="-27.2494041" lon="151.3597653">
  <ele>536.4</ele>
  <time>2026-09-01T20:01:43Z</time>
  <course>275.98</course>
  <speed>22.66</speed>
  <fix>3d</fix>
</trkpt>
<trkpt lat="-27.2493957" lon="151.3596734">
  <ele>536.15</ele>
  <time>2026-09-01T20:01:43Z</time>
  <course>275.75</course>
  <speed>22.72466721428501</speed>
  <fix>3d</fix>
</trkpt>
<trkpt lat="-27.2493999" lon="151.3597196">
  <ele>536.27</ele>
  <time>2026-09-01T20:01:43Z</time>
  <course>275.88</course>
  <speed>22.69</speed>
  <fix>3d</fix>
</trkpt>
<trkpt lat="-27.2493936" lon="151.3596505">
  <ele>536.08</ele>
  <time>2026-09-01T20:01:43Z</time>
  <course>275.76</course>
  <speed>22.752520739469723</speed>
  <fix>3d</fix>
</trkpt>
<trkpt lat="-27.2493999" lon="151.3597196">
  <ele>536.27</ele>
  <time>2026-09-01T20:01:43Z</time>
  <course>275.88</course>
  <speed>22.69</speed>
  <fix>3d</fix>
</trkpt>
<trkpt lat="-27.2493915" lon="151.359627">
  <ele>536.0</ele>
  <time>2026-09-01T20:01:43Z</time>
  <course>275.78</course>
  <speed>22.781382749956155</speed>
  <fix>3d</fix>
</trkpt>
<trkpt lat="-27.2493957" lon="151.359674">
  <ele>536.14</ele>
  <time>2026-09-01T20:01:43Z</time>
  <course>275.77</course>
  <speed>22.73</speed>
  <fix>3d</fix>
</trkpt>
<trkpt lat="-27.2493895" lon="151.359604">
  <ele>535.93</ele>
  <time>2026-09-01T20:01:43Z</time>
  <course>275.69</course>
  <speed>22.81922435141037</speed>
  <fix>3d</fix>
</trkpt>
<trkpt lat="-27.2493957" lon="151.359674">
  <ele>536.14</ele>
  <time>2026-09-01T20:01:43Z</time>
  <course>275.77</course>
  <speed>22.73</speed>
  <fix>3d</fix>
</trkpt>
<trkpt lat="-27.2493875" lon="151.359581">
  <ele>535.85</ele>
  <time>2026-09-01T20:01:43Z</time>
  <course>275.59</course>
  <speed>22.848107142605926</speed>
  <fix>3d</fix>
</trkpt>
<trkpt lat="-27.2493916" lon="151.3596283">
  <ele>536.0</ele>
  <time>2026-09-01T20:01:43Z</time>
  <course>275.67</course>
  <speed>22.78</speed>
  <fix>3d</fix>
</trkpt>
<trkpt lat="-27.2493855" lon="151.359558">
  <ele>535.77</ele>
  <time>2026-09-01T20:01:43Z</time>
  <course>275.55</course>
  <speed>22.895940688253017</speed>
  <fix>3d</fix>
</trkpt>
<trkpt lat="-27.2493916" lon="151.3596283">
  <ele>536.0</ele>
  <time>2026-09-01T20:01:43Z</time>
  <course>275.67</course>
  <speed>22.78</speed>
  <fix>3d</fix>
</trkpt>
<trkpt lat="-27.2493835" lon="151.359535">
  <ele>535.69</ele>
  <time>2026-09-01T20:01:43Z</time>
  <course>275.54</course>
  <speed>22.933846166746648</speed>
  <fix>3d</fix>
</trkpt>
<trkpt lat="-27.2493876" lon="151.3595824">
  <ele>535.85</ele>
  <time>2026-09-01T20:01:43Z</time>
  <course>275.58</course>
  <speed>22.85</speed>
  <fix>3d</fix>
</trkpt>
<trkpt lat="-27.2493816" lon="151.3595125">
  <ele>535.62</ele>
  <time>2026-09-01T20:01:43Z</time>
  <course>275.53</course>
  <speed>22.972718602725276</speed>
  <fix>3d</fix>
</trkpt>
<trkpt lat="-27.2493876" lon="151.3595824">
  <ele>535.85</ele>
  <time>2026-09-01T20:01:43Z</time>
  <course>275.58</course>
  <speed>22.85</speed>
  <fix>3d</fix>
</trkpt>
<trkpt lat="-27.2493797" lon="151.3594894">
  <ele>535.54</ele>
  <time>2026-09-01T20:01:43Z</time>
  <course>275.48</course>
  <speed>23.021555116889907</speed>
  <fix>3d</fix>
</trkpt>
<trkpt lat="-27.2493836" lon="151.3595363">
  <ele>535.7</ele>
  <time>2026-09-01T20:01:43Z</time>
  <course>275.48</course>
  <speed>22.93</speed>
  <fix>3d</fix>
</trkpt>
<trkpt lat="-27.2493777" lon="151.3594661">
  <ele>535.46</ele>
  <time>2026-09-01T20:01:43Z</time>
  <course>275.41</course>
  <speed>23.069471168624563</speed>
  <fix>3d</fix>
</trkpt>
<trkpt lat="-27.2493836" lon="151.3595363">
  <ele>535.7</ele>
  <time>2026-09-01T20:01:43Z</time>
  <course>275.48</course>
  <speed>22.93</speed>
  <fix>3d</fix>
</trkpt>
<trkpt lat="-27.2493758" lon="151.359443">
  <ele>535.38</ele>
  <time>2026-09-01T20:01:43Z</time>
  <course>275.34</course>
  <speed>23.118332552327384</speed>
  <fix>3d</fix>
</trkpt>
<trkpt lat="-27.2493797" lon="151.3594901">
  <ele>535.54</ele>
  <time>2026-09-01T20:01:43Z</time>
  <course>275.38</course>
  <speed>23.02</speed>
  <fix>3d</fix>
</trkpt>
<trkpt lat="-27.2493739" lon="151.3594197">
  <ele>535.29</ele>
  <time>2026-09-01T20:01:43Z</time>
  <course>275.29</course>
  <speed>23.16720311129507</speed>
  <fix>3d</fix>
</trkpt>
<trkpt lat="-27.2493797" lon="151.3594901">
  <ele>535.54</ele>
  <time>2026-09-01T20:01:43Z</time>
  <course>275.38</course>
  <speed>23.02</speed>
  <fix>3d</fix>
</trkpt>
<trkpt lat="-27.249372" lon="151.3593963">
  <ele>535.23</ele>
  <time>2026-09-01T20:01:43Z</time>
  <course>275.28</course>
  <speed>23.215176070837803</speed>
  <fix>3d</fix>
</trkpt>
<trkpt lat="-27.2493758" lon="151.3594437">
  <ele>535.38</ele>
  <time>2026-09-01T20:01:43Z</time>
  <course>275.29</course>
  <speed>23.11</speed>
  <fix>3d</fix>
</trkpt>
<trkpt lat="-27.2493701" lon="151.359373">
  <ele>535.15</ele>
  <time>2026-09-01T20:01:43Z</time>
  <course>275.24</course>
  <speed>23.26407101089575</speed>
  <fix>3d</fix>
</trkpt>
<trkpt lat="-27.2493758" lon="151.3594437">
  <ele>535.38</ele>
  <time>2026-09-01T20:01:43Z</time>
  <course>275.29</course>
  <speed>23.11</speed>
  <fix>3d</fix>
</trkpt>
<trkpt lat="-27.2493682" lon="151.3593496">
  <ele>535.08</ele>
  <time>2026-09-01T20:01:43Z</time>
  <course>275.18</course>
  <speed>23.312974928138193</speed>
  <fix>3d</fix>
</trkpt>
<trkpt lat="-27.2493721" lon="151.3593971">
  <ele>535.22</ele>
  <time>2026-09-01T20:01:43Z</time>
  <course>275.21</course>
  <speed>23.21</speed>
  <fix>3d</fix>
</trkpt>
<trkpt lat="-27.2493664" lon="151.3593261">
  <ele>535.0</ele>
  <time>2026-09-01T20:01:43Z</time>
  <course>275.19</course>
  <speed>23.36277594807603</speed>
  <fix>3d</fix>
</trkpt>
<trkpt lat="-27.2493721" lon="151.3593971">
  <ele>535.22</ele>
  <time>2026-09-01T20:01:43Z</time>
  <course>275.21</course>
  <speed>23.21</speed>
  <fix>3d</fix>
</trkpt>
<trkpt lat="-27.2493645" lon="151.3593026">
  <ele>534.9</ele>
  <time>2026-09-01T20:01:43Z</time>
  <course>275.15</course>
  <speed>23.42253829114172</speed>
  <fix>3d</fix>
</trkpt>
<trkpt lat="-27.2493683" lon="151.3593503">
  <ele>535.08</ele>
  <time>2026-09-01T20:01:43Z</time>
  <course>275.14</course>
  <speed>23.31</speed>
  <fix>3d</fix>
</trkpt>
<trkpt lat="-27.2493626" lon="151.3592789">
  <ele>534.77</ele>
  <time>2026-09-01T20:01:43Z</time>
  <course>275.08</course>
  <speed>23.491379269851315</speed>
  <fix>3d</fix>
</trkpt>
<trkpt lat="-27.2493683" lon="151.3593503">
  <ele>535.08</ele>
  <time>2026-09-01T20:01:43Z</time>
  <course>275.14</course>
  <speed>23.31</speed>
  <fix>3d</fix>
</trkpt>
<trkpt lat="-27.2493608" lon="151.3592553">
  <ele>534.62</ele>
  <time>2026-09-01T20:01:43Z</time>
  <course>275.05</course>
  <speed>23.57019304121203</speed>
  <fix>3d</fix>
</trkpt>
<trkpt lat="-27.2493645" lon="151.3593033">
  <ele>534.89</ele>
  <time>2026-09-01T20:01:43Z</time>
  <course>275.08</course>
  <speed>23.42</speed>
  <fix>3d</fix>
</trkpt>
<trkpt lat="-27.2493589" lon="151.3592315">
  <ele>534.47</ele>
  <time>2026-09-01T20:01:43Z</time>
  <course>275.01</course>
  <speed>23.65898138128521</speed>
  <fix>3d</fix>
</trkpt>
<trkpt lat="-27.2493645" lon="151.3593033">
  <ele>534.89</ele>
  <time>2026-09-01T20:01:43Z</time>
  <course>275.08</course>
  <speed>23.42</speed>
  <fix>3d</fix>
</trkpt>
<trkpt lat="-27.2493571" lon="151.3592076">
  <ele>534.32</ele>
  <time>2026-09-01T20:01:43Z</time>
  <course>275.05</course>
  <speed>23.75774610521798</speed>
  <fix>3d</fix>
</trkpt>
<trkpt lat="-27.2493608" lon="151.3592559">
  <ele>534.62</ele>
  <time>2026-09-01T20:01:43Z</time>
  <course>275.01</course>
  <speed>23.57</speed>
  <fix>3d</fix>
</trkpt>
<trkpt lat="-27.2493553" lon="151.3591837">
  <ele>534.16</ele>
  <time>2026-09-01T20:01:43Z</time>
  <course>275.01</course>
  <speed>23.846561597010165</speed>
  <fix>3d</fix>
</trkpt>
<trkpt lat="-27.2493608" lon="151.3592559">
  <ele>534.62</ele>
  <time>2026-09-01T20:01:43Z</time>
  <course>275.01</course>
  <speed>23.57</speed>
  <fix>3d</fix>
</trkpt>
<trkpt lat="-27.2493534" lon="151.3591588">
  <ele>534.03</ele>
  <time>2026-09-01T20:01:43Z</time>
  <course>274.97</course>
  <speed>23.93623612851444</speed>
  <fix>3d</fix>
</trkpt>
<trkpt lat="-27.2493571" lon="151.3592081">
  <ele>534.32</ele>
  <time>2026-09-01T20:01:43Z</time>
  <course>274.93</course>
  <speed>23.75</speed>
  <fix>3d</fix>
</trkpt>
<trkpt lat="-27.2493515" lon="151.3591347">
  <ele>533.91</ele>
  <time>2026-09-01T20:01:43Z</time>
  <course>274.98</course>
  <speed>24.02507023923135</speed>
  <fix>3d</fix>
</trkpt>
<trkpt lat="-27.2493571" lon="151.3592081">
  <ele>534.32</ele>
  <time>2026-09-01T20:01:43Z</time>
  <course>274.93</course>
  <speed>23.75</speed>
  <fix>3d</fix>
</trkpt>
<trkpt lat="-27.2493497" lon="151.3591104">
  <ele>533.79</ele>
  <time>2026-09-01T20:01:43Z</time>
  <course>274.91</course>
  <speed>24.104787906140142</speed>
  <fix>3d</fix>
</trkpt>
<trkpt lat="-27.2493535" lon="151.3591602">
  <ele>534.04</ele>
  <time>2026-09-01T20:01:43Z</time>
  <course>274.87</course>
  <speed>23.93</speed>
  <fix>3d</fix>
</trkpt>
<trkpt lat="-27.2493479" lon="151.3590862">
  <ele>533.7</ele>
  <time>2026-09-01T20:01:43Z</time>
  <course>274.84</course>
  <speed>24.19447250923235</speed>
  <fix>3d</fix>
</trkpt>
<trkpt lat="-27.2493535" lon="151.3591602">
  <ele>534.04</ele>
  <time>2026-09-01T20:01:43Z</time>
  <course>274.87</course>
  <speed>23.93</speed>
  <fix>3d</fix>
</trkpt>
<trkpt lat="-27.2493461" lon="151.3590618">
  <ele>533.61</ele>
  <time>2026-09-01T20:01:43Z</time>
  <course>274.78</course>
  <speed>24.264228815274556</speed>
  <fix>3d</fix>
</trkpt>
<trkpt lat="-27.2493498" lon="151.3591118">
  <ele>533.8</ele>
  <time>2026-09-01T20:01:43Z</time>
  <course>274.82</course>
  <speed>24.1</speed>
  <fix>3d</fix>
</trkpt>
<trkpt lat="-27.2493443" lon="151.3590372">
  <ele>533.53</ele>
  <time>2026-09-01T20:01:43Z</time>
  <course>274.7</course>
  <speed>24.3439520209846</speed>
  <fix>3d</fix>
</trkpt>
<trkpt lat="-27.2493498" lon="151.3591118">
  <ele>533.8</ele>
  <time>2026-09-01T20:01:43Z</time>
  <course>274.82</course>
  <speed>24.1</speed>
  <fix>3d</fix>
</trkpt>
<trkpt lat="-27.2493424" lon="151.3590127">
  <ele>533.47</ele>
  <time>2026-09-01T20:01:43Z</time>
  <course>274.7</course>
  <speed>24.41288594164975</speed>
  <fix>3d</fix>
</trkpt>
<trkpt lat="-27.2493462" lon="151.3590631">
  <ele>533.62</ele>
  <time>2026-09-01T20:01:43Z</time>
  <course>274.78</course>
  <speed>24.26</speed>
  <fix>3d</fix>
</trkpt>
<trkpt lat="-27.2493406" lon="151.3589882">
  <ele>533.41</ele>
  <time>2026-09-01T20:01:43Z</time>
  <course>274.7</course>
  <speed>24.472682729933798</speed>
  <fix>3d</fix>
</trkpt>
<trkpt lat="-27.2493462" lon="151.3590631">
  <ele>533.62</ele>
  <time>2026-09-01T20:01:43Z</time>
  <course>274.78</course>
  <speed>24.26</speed>
  <fix>3d</fix>
</trkpt>
<trkpt lat="-27.2493388" lon="151.3589634">
  <ele>533.37</ele>
  <time>2026-09-01T20:01:43Z</time>
  <course>274.72</course>
  <speed>24.54244690327352</speed>
  <fix>3d</fix>
</trkpt>
<trkpt lat="-27.2493425" lon="151.3590141">
  <ele>533.48</ele>
  <time>2026-09-01T20:01:43Z</time>
  <course>274.74</course>
  <speed>24.4</speed>
  <fix>3d</fix>
</trkpt>
<trkpt lat="-27.249337" lon="151.3589388">
  <ele>533.34</ele>
  <time>2026-09-01T20:01:43Z</time>
  <course>274.74</course>
  <speed>24.592279276228137</speed>
  <fix>3d</fix>
</trkpt>
<trkpt lat="-27.2493425" lon="151.3590141">
  <ele>533.48</ele>
  <time>2026-09-01T20:01:43Z</time>
  <course>274.74</course>
  <speed>24.4</speed>
  <fix>3d</fix>
</trkpt>
<trkpt lat="-27.2493352" lon="151.358914">
  <ele>533.32</ele>
  <time>2026-09-01T20:01:43Z</time>
  <course>274.75</course>
  <speed>24.652896381561337</speed>
  <fix>3d</fix>
</trkpt>
<trkpt lat="-27.2493389" lon="151.3589649">
  <ele>533.38</ele>
  <time>2026-09-01T20:01:43Z</time>
  <course>274.7</course>
  <speed>24.53</speed>
  <fix>3d</fix>
</trkpt>
<trkpt lat="-27.2493334" lon="151.3588891">
  <ele>533.31</ele>
  <time>2026-09-01T20:01:43Z</time>
  <course>274.72</course>
  <speed>24.70354832812485</speed>
  <fix>3d</fix>
</trkpt>
<trkpt lat="-27.2493389" lon="151.3589649">
  <ele>533.38</ele>
  <time>2026-09-01T20:01:43Z</time>
  <course>274.7</course>
  <speed>24.53</speed>
  <fix>3d</fix>
</trkpt>
<trkpt lat="-27.2493316" lon="151.3588642">
  <ele>533.29</ele>
  <time>2026-09-01T20:01:43Z</time>
  <course>274.72</course>
  <speed>24.75337956724293</speed>
  <fix>3d</fix>
</trkpt>
<trkpt lat="-27.2493353" lon="151.3589154">
  <ele>533.32</ele>
  <time>2026-09-01T20:01:43Z</time>
  <course>274.7</course>
  <speed>24.65</speed>
  <fix>3d</fix>
</trkpt>
<trkpt lat="-27.2493298" lon="151.3588399">
  <ele>533.31</ele>
  <time>2026-09-01T20:01:43Z</time>
  <course>274.73</course>
  <speed>24.794065822289006</speed>
  <fix>3d</fix>
</trkpt>
<trkpt lat="-27.2493353" lon="151.3589154">
  <ele>533.32</ele>
  <time>2026-09-01T20:01:43Z</time>
  <course>274.7</course>
  <speed>24.65</speed>
  <fix>3d</fix>
</trkpt>
<trkpt lat="-27.2493279" lon="151.3588149">
  <ele>533.32</ele>
  <time>2026-09-01T20:01:43Z</time>
  <course>274.76</course>
  <speed>24.824788015207705</speed>
  <fix>3d</fix>
</trkpt>
<trkpt lat="-27.2493316" lon="151.3588656">
  <ele>533.31</ele>
  <time>2026-09-01T20:01:43Z</time>
  <course>274.72</course>
  <speed>24.75</speed>
  <fix>3d</fix>
</trkpt>
<trkpt lat="-27.2493261" lon="151.3587899">
  <ele>533.33</ele>
  <time>2026-09-01T20:01:43Z</time>
  <course>274.77</course>
  <speed>24.81565030379015</speed>
  <fix>3d</fix>
</trkpt>
<trkpt lat="-27.2493316" lon="151.3588656">
  <ele>533.31</ele>
  <time>2026-09-01T20:01:43Z</time>
  <course>274.72</course>
  <speed>24.75</speed>
  <fix>3d</fix>
</trkpt>
<trkpt lat="-27.2493242" lon="151.358765">
  <ele>533.35</ele>
  <time>2026-09-01T20:01:43Z</time>
  <course>274.76</course>
  <speed>24.74589258846809</speed>
  <fix>3d</fix>
</trkpt>
<trkpt lat="-27.249328" lon="151.3588156">
  <ele>533.32</ele>
  <time>2026-09-01T20:01:43Z</time>
  <course>274.74</course>
  <speed>24.8</speed>
  <fix>3d</fix>
</trkpt>
<trkpt lat="-27.2493224" lon="151.3587401">
  <ele>533.38</ele>
  <time>2026-09-01T20:01:43Z</time>
  <course>274.78</course>
  <speed>24.616346195160645</speed>
  <fix>3d</fix>
</trkpt>
<trkpt lat="-27.249328" lon="151.3588156">
  <ele>533.32</ele>
  <time>2026-09-01T20:01:43Z</time>
  <course>274.74</course>
  <speed>24.8</speed>
  <fix>3d</fix>
</trkpt>
<trkpt lat="-27.2493205" lon="151.3587154">
  <ele>533.41</ele>
  <time>2026-09-01T20:01:43Z</time>
  <course>274.79</course>
  <speed>24.426176532564405</speed>
  <fix>3d</fix>
</trkpt>
<trkpt lat="-27.2493243" lon="151.3587657">
  <ele>533.35</ele>
  <time>2026-09-01T20:01:43Z</time>
  <course>274.79</course>
  <speed>24.72</speed>
  <fix>3d</fix>
</trkpt>
<trkpt lat="-27.2493187" lon="151.358691">
  <ele>533.44</ele>
  <time>2026-09-01T20:01:43Z</time>
  <course>274.83</course>
  <speed>24.17622178918782</speed>
  <fix>3d</fix>
</trkpt>
<trkpt lat="-27.2493243" lon="151.3587657">
  <ele>533.35</ele>
  <time>2026-09-01T20:01:43Z</time>
  <course>274.79</course>
  <speed>24.72</speed>
  <fix>3d</fix>
</trkpt>
<trkpt lat="-27.2493169" lon="151.3586667">
  <ele>533.47</ele>
  <time>2026-09-01T20:01:43Z</time>
  <course>274.84</course>
  <speed>23.886416642100173</speed>
  <fix>3d</fix>
</trkpt>
<trkpt lat="-27.2493205" lon="151.3587161">
  <ele>533.41</ele>
  <time>2026-09-01T20:01:43Z</time>
  <course>274.83</course>
  <speed>24.4</speed>
  <fix>3d</fix>
</trkpt>
<trkpt lat="-27.249315" lon="151.3586421">
  <ele>533.48</ele>
  <time>2026-09-01T20:01:43Z</time>
  <course>274.85</course>
  <speed>23.555912209040006</speed>
  <fix>3d</fix>
</trkpt>
<trkpt lat="-27.2493205" lon="151.3587161">
  <ele>533.41</ele>
  <time>2026-09-01T20:01:43Z</time>
  <course>274.83</course>
  <speed>24.4</speed>
  <fix>3d</fix>
</trkpt>
<trkpt lat="-27.2493132" lon="151.3586185">
  <ele>533.47</ele>
  <time>2026-09-01T20:01:43Z</time>
  <course>274.86</course>
  <speed>23.245337166838425</speed>
  <fix>3d</fix>
</trkpt>
<trkpt lat="-27.2493169" lon="151.3586675">
  <ele>533.45</ele>
  <time>2026-09-01T20:01:43Z</time>
  <course>274.87</course>
  <speed>23.88</speed>
  <fix>3d</fix>
</trkpt>
<trkpt lat="-27.2493114" lon="151.3585953">
  <ele>533.45</ele>
  <time>2026-09-01T20:01:43Z</time>
  <course>274.87</course>
  <speed>22.954690152559238</speed>
  <fix>3d</fix>
</trkpt>
<trkpt lat="-27.2493169" lon="151.3586675">
  <ele>533.45</ele>
  <time>2026-09-01T20:01:43Z</time>
  <course>274.87</course>
  <speed>23.88</speed>
  <fix>3d</fix>
</trkpt>
<trkpt lat="-27.2493096" lon="151.3585723">
  <ele>533.39</ele>
  <time>2026-09-01T20:01:43Z</time>
  <course>274.89</course>
  <speed>22.674869349127462</speed>
  <fix>3d</fix>
</trkpt>
<trkpt lat="-27.2493133" lon="151.35862">
  <ele>533.46</ele>
  <time>2026-09-01T20:01:43Z</time>
  <course>274.91</course>
  <speed>23.28</speed>
  <fix>3d</fix>
</trkpt>
<trkpt lat="-27.2493079" lon="151.3585496">
  <ele>533.29</ele>
  <time>2026-09-01T20:01:43Z</time>
  <course>274.91</course>
  <speed>22.414113857121365</speed>
  <fix>3d</fix>
</trkpt>
<trkpt lat="-27.2493133" lon="151.35862">
  <ele>533.46</ele>
  <time>2026-09-01T20:01:43Z</time>
  <course>274.91</course>
  <speed>23.28</speed>
  <fix>3d</fix>
</trkpt>
<trkpt lat="-27.2493061" lon="151.3585272">
  <ele>533.19</ele>
  <time>2026-09-01T20:01:43Z</time>
  <course>274.93</course>
  <speed>22.174151618494903</speed>
  <fix>3d</fix>
</trkpt>
<trkpt lat="-27.2493097" lon="151.3585737">
  <ele>533.38</ele>
  <time>2026-09-01T20:01:43Z</time>
  <course>274.95</course>
  <speed>22.7</speed>
  <fix>3d</fix>
</trkpt>
<trkpt lat="-27.2493044" lon="151.3585049">
  <ele>533.04</ele>
  <time>2026-09-01T20:01:43Z</time>
  <course>274.95</course>
  <speed>21.943283710511515</speed>
  <fix>3d</fix>
</trkpt>
<trkpt lat="-27.2493097" lon="151.3585737">
  <ele>533.38</ele>
  <time>2026-09-01T20:01:43Z</time>
  <course>274.95</course>
  <speed>22.7</speed>
  <fix>3d</fix>
</trkpt>
<trkpt lat="-27.2493027" lon="151.358483">
  <ele>532.9</ele>
  <time>2026-09-01T20:01:43Z</time>
  <course>274.96</course>
  <speed>21.723250217221178</speed>
  <fix>3d</fix>
</trkpt>
<trkpt lat="-27.2493062" lon="151.3585286">
  <ele>533.18</ele>
  <time>2026-09-01T20:01:43Z</time>
  <course>274.99</course>
  <speed>22.19</speed>
  <fix>3d</fix>
</trkpt>
<trkpt lat="-27.249301" lon="151.3584612">
  <ele>532.75</ele>
  <time>2026-09-01T20:01:43Z</time>
  <course>274.97</course>
  <speed>21.513182005458884</speed>
  <fix>3d</fix>
</trkpt>
<trkpt lat="-27.2493062" lon="151.3585286">
  <ele>533.18</ele>
  <time>2026-09-01T20:01:43Z</time>
  <course>274.99</course>
  <speed>22.19</speed>
  <fix>3d</fix>
</trkpt>
<trkpt lat="-27.2492992" lon="151.3584397">
  <ele>532.58</ele>
  <time>2026-09-01T20:01:43Z</time>
  <course>274.99</course>
  <speed>21.312198384962542</speed>
  <fix>3d</fix>
</trkpt>
<trkpt lat="-27.2493028" lon="151.3584844">
  <ele>532.91</ele>
  <time>2026-09-01T20:01:43Z</time>
  <course>275.02</course>
  <speed>21.74</speed>
  <fix>3d</fix>
</trkpt>
<trkpt lat="-27.2492976" lon="151.3584184">
  <ele>532.41</ele>
  <time>2026-09-01T20:01:43Z</time>
  <course>275.01</course>
  <speed>21.122054824282603</speed>
  <fix>3d</fix>
</trkpt>
<trkpt lat="-27.2493028" lon="151.3584844">
  <ele>532.91</ele>
  <time>2026-09-01T20:01:43Z</time>
  <course>275.02</course>
  <speed>21.74</speed>
  <fix>3d</fix>
</trkpt>
<trkpt lat="-27.249296" lon="151.3583971">
  <ele>532.25</ele>
  <time>2026-09-01T20:01:43Z</time>
  <course>275.03</course>
  <speed>20.93103198602496</speed>
  <fix>3d</fix>
</trkpt>
<trkpt lat="-27.2492994" lon="151.3584411">
  <ele>532.59</ele>
  <time>2026-09-01T20:01:43Z</time>
  <course>275.04</course>
  <speed>21.33</speed>
  <fix>3d</fix>
</trkpt>
<trkpt lat="-27.2492943" lon="151.3583761">
  <ele>532.08</ele>
  <time>2026-09-01T20:01:43Z</time>
  <course>275.05</course>
  <speed>20.75993256251089</speed>
  <fix>3d</fix>
</trkpt>
<trkpt lat="-27.2492994" lon="151.3584411">
  <ele>532.59</ele>
  <time>2026-09-01T20:01:43Z</time>
  <course>275.04</course>
  <speed>21.33</speed>
  <fix>3d</fix>
</trkpt>
<trkpt lat="-27.2492927" lon="151.3583554">
  <ele>531.9</ele>
  <time>2026-09-01T20:01:43Z</time>
  <course>275.06</course>
  <speed>20.57974975552424</speed>
  <fix>3d</fix>
</trkpt>
<trkpt lat="-27.249296" lon="151.3583985">
  <ele>532.26</ele>
  <time>2026-09-01T20:01:43Z</time>
  <course>275.05</course>
  <speed>20.95</speed>
  <fix>3d</fix>
</trkpt>
<trkpt lat="-27.249291" lon="151.3583348">
  <ele>531.73</ele>
  <time>2026-09-01T20:01:43Z</time>
  <course>275.06</course>
  <speed>20.408650126845725</speed>
  <fix>3d</fix>
</trkpt>
<trkpt lat="-27.249296" lon="151.3583985">
  <ele>532.26</ele>
  <time>2026-09-01T20:01:43Z</time>
  <course>275.05</course>
  <speed>20.95</speed>
  <fix>3d</fix>
</trkpt>
<trkpt lat="-27.2492894" lon="151.3583143">
  <ele>531.57</ele>
  <time>2026-09-01T20:01:43Z</time>
  <course>275.06</course>
  <speed>20.23842879276946</speed>
  <fix>3d</fix>
</trkpt>
<trkpt lat="-27.2492927" lon="151.3583567">
  <ele>531.91</ele>
  <time>2026-09-01T20:01:43Z</time>
  <course>275.05</course>
  <speed>20.59</speed>
  <fix>3d</fix>
</trkpt>
<trkpt lat="-27.2492879" lon="151.3582941">
  <ele>531.4</ele>
  <time>2026-09-01T20:01:43Z</time>
  <course>275.05</course>
  <speed>20.077290653870605</speed>
  <fix>3d</fix>
</trkpt>
<trkpt lat="-27.2492927" lon="151.3583567">
  <ele>531.91</ele>
  <time>2026-09-01T20:01:43Z</time>
  <course>275.05</course>
  <speed>20.59</speed>
  <fix>3d</fix>
</trkpt>
<trkpt lat="-27.2492863" lon="151.358274">
  <ele>531.23</ele>
  <time>2026-09-01T20:01:43Z</time>
  <course>275.05</course>
  <speed>19.916154247243618</speed>
  <fix>3d</fix>
</trkpt>
<trkpt lat="-27.2492894" lon="151.3583156">
  <ele>531.57</ele>
  <time>2026-09-01T20:01:43Z</time>
  <course>275.04</course>
  <speed>20.25</speed>
  <fix>3d</fix>
</trkpt>
<trkpt lat="-27.2492847" lon="151.358254">
  <ele>531.06</ele>
  <time>2026-09-01T20:01:43Z</time>
  <course>275.04</course>
  <speed>19.76585439590204</speed>
  <fix>3d</fix>
</trkpt>
<trkpt lat="-27.2492894" lon="151.3583156">
  <ele>531.57</ele>
  <time>2026-09-01T20:01:43Z</time>
  <course>275.04</course>
  <speed>20.25</speed>
  <fix>3d</fix>
</trkpt>
<trkpt lat="-27.2492832" lon="151.3582342">
  <ele>530.89</ele>
  <time>2026-09-01T20:01:43Z</time>
  <course>275.04</course>
  <speed>19.61468072643549</speed>
  <fix>3d</fix>
</trkpt>
<trkpt lat="-27.2492863" lon="151.3582751">
  <ele>531.24</ele>
  <time>2026-09-01T20:01:43Z</time>
  <course>275.03</course>
  <speed>19.93</speed>
  <fix>3d</fix>
</trkpt>
<trkpt lat="-27.2492817" lon="151.358215">
  <ele>530.73</ele>
  <time>2026-09-01T20:01:43Z</time>
  <course>275.04</course>
  <speed>19.464380288105758</speed>
  <fix>3d</fix>
</trkpt>
<trkpt lat="-27.2492863" lon="151.3582751">
  <ele>531.24</ele>
  <time>2026-09-01T20:01:43Z</time>
  <course>275.03</course>
  <speed>19.93</speed>
  <fix>3d</fix>
</trkpt>
<trkpt lat="-27.2492801" lon="151.3581948">
  <ele>530.54</ele>
  <time>2026-09-01T20:01:43Z</time>
  <course>275.03</course>
  <speed>19.313207915827967</speed>
  <fix>3d</fix>
</trkpt>
<trkpt lat="-27.2492832" lon="151.3582352">
  <ele>530.9</ele>
  <time>2026-09-01T20:01:43Z</time>
  <course>275.02</course>
  <speed>19.62</speed>
  <fix>3d</fix>
</trkpt>
<trkpt lat="-27.2492786" lon="151.3581754">
  <ele>530.38</ele>
  <time>2026-09-01T20:01:43Z</time>
  <course>275.03</course>
  <speed>19.172868851582958</speed>
  <fix>3d</fix>
</trkpt>
<trkpt lat="-27.2492832" lon="151.3582352">
  <ele>530.9</ele>
  <time>2026-09-01T20:01:43Z</time>
  <course>275.02</course>
  <speed>19.62</speed>
  <fix>3d</fix>
</trkpt>
<trkpt lat="-27.2492771" lon="151.3581562">
  <ele>530.21</ele>
  <time>2026-09-01T20:01:43Z</time>
  <course>275.02</course>
  <speed>19.032530047263815</speed>
  <fix>3d</fix>
</trkpt>
<trkpt lat="-27.2492802" lon="151.358196">
  <ele>530.56</ele>
  <time>2026-09-01T20:01:43Z</time>
  <course>275.01</course>
  <speed>19.33</speed>
  <fix>3d</fix>
</trkpt>
<trkpt lat="-27.2492756" lon="151.3581371">
  <ele>530.04</ele>
  <time>2026-09-01T20:01:43Z</time>
  <course>275.02</course>
  <speed>18.901283025234026</speed>
  <fix>3d</fix>
</trkpt>
<trkpt lat="-27.2492802" lon="151.358196">
  <ele>530.56</ele>
  <time>2026-09-01T20:01:43Z</time>
  <course>275.01</course>
  <speed>19.33</speed>
  <fix>3d</fix>
</trkpt>
<trkpt lat="-27.2492741" lon="151.3581182">
  <ele>529.87</ele>
  <time>2026-09-01T20:01:43Z</time>
  <course>275.01</course>
  <speed>18.77090567873591</speed>
  <fix>3d</fix>
</trkpt>
<trkpt lat="-27.2492772" lon="151.3581574">
  <ele>530.22</ele>
  <time>2026-09-01T20:01:43Z</time>
  <course>275.0</course>
  <speed>19.05</speed>
  <fix>3d</fix>
</trkpt>
<trkpt lat="-27.2492727" lon="151.3580993">
  <ele>529.69</ele>
  <time>2026-09-01T20:01:43Z</time>
  <course>275.01</course>
  <speed>18.650490610168944</speed>
  <fix>3d</fix>
</trkpt>
<trkpt lat="-27.2492772" lon="151.3581574">
  <ele>530.22</ele>
  <time>2026-09-01T20:01:43Z</time>
  <course>275.0</course>
  <speed>19.05</speed>
  <fix>3d</fix>
</trkpt>
<trkpt lat="-27.2492712" lon="151.3580806">
  <ele>529.51</ele>
  <time>2026-09-01T20:01:43Z</time>
  <course>275.01</course>
  <speed>18.520113390581603</speed>
  <fix>3d</fix>
</trkpt>
<trkpt lat="-27.2492742" lon="151.3581193">
  <ele>529.87</ele>
  <time>2026-09-01T20:01:43Z</time>
  <course>275.0</course>
  <speed>18.78</speed>
  <fix>3d</fix>
</trkpt>
<trkpt lat="-27.2492698" lon="151.358062">
  <ele>529.34</ele>
  <time>2026-09-01T20:01:43Z</time>
  <course>275.0</course>
  <speed>18.39969836709287</speed>
  <fix>3d</fix>
</trkpt>
<trkpt lat="-27.2492742" lon="151.3581193">
  <ele>529.87</ele>
  <time>2026-09-01T20:01:43Z</time>
  <course>275.0</course>
  <speed>18.78</speed>
  <fix>3d</fix>
</trkpt>
<trkpt lat="-27.2492683" lon="151.3580436">
  <ele>529.16</ele>
  <time>2026-09-01T20:01:43Z</time>
  <course>275.0</course>
  <speed>18.288378823723004</speed>
  <fix>3d</fix>
</trkpt>
<trkpt lat="-27.2492712" lon="151.3580817">
  <ele>529.52</ele>
  <time>2026-09-01T20:01:43Z</time>
  <course>274.99</course>
  <speed>18.53</speed>
  <fix>3d</fix>
</trkpt>
<trkpt lat="-27.2492669" lon="151.3580251">
  <ele>528.98</ele>
  <time>2026-09-01T20:01:43Z</time>
  <course>274.99</course>
  <speed>18.17792617434673</speed>
  <fix>3d</fix>
</trkpt>
<trkpt lat="-27.2492712" lon="151.3580817">
  <ele>529.52</ele>
  <time>2026-09-01T20:01:43Z</time>
  <course>274.99</course>
  <speed>18.53</speed>
  <fix>3d</fix>
</trkpt>
<trkpt lat="-27.2492655" lon="151.3580069">
  <ele>528.79</ele>
  <time>2026-09-01T20:01:43Z</time>
  <course>274.99</course>
  <speed>18.067473536717856</speed>
  <fix>3d</fix>
</trkpt>
<trkpt lat="-27.2492684" lon="151.3580447">
  <ele>529.17</ele>
  <time>2026-09-01T20:01:43Z</time>
  <course>274.98</course>
  <speed>18.3</speed>
  <fix>3d</fix>
</trkpt>
<trkpt lat="-27.2492641" lon="151.3579888">
  <ele>528.61</ele>
  <time>2026-09-01T20:01:43Z</time>
  <course>274.99</course>
  <speed>17.95702091105315</speed>
  <fix>3d</fix>
</trkpt>
<trkpt lat="-27.2492684" lon="151.3580447">
  <ele>529.17</ele>
  <time>2026-09-01T20:01:43Z</time>
  <course>274.98</course>
  <speed>18.3</speed>
  <fix>3d</fix>
</trkpt>
<trkpt lat="-27.2492627" lon="151.3579709">
  <ele>528.43</ele>
  <time>2026-09-01T20:01:43Z</time>
  <course>274.98</course>
  <speed>17.85653101808971</speed>
  <fix>3d</fix>
</trkpt>
<trkpt lat="-27.2492656" lon="151.3580081">
  <ele>528.8</ele>
  <time>2026-09-01T20:01:43Z</time>
  <course>274.97</course>
  <speed>18.07</speed>
  <fix>3d</fix>
</trkpt>
<trkpt lat="-27.2492613" lon="151.3579528">
  <ele>528.24</ele>
  <time>2026-09-01T20:01:43Z</time>
  <course>274.98</course>
  <speed>17.75604122545338</speed>
  <fix>3d</fix>
</trkpt>
<trkpt lat="-27.2492656" lon="151.3580081">
  <ele>528.8</ele>
  <time>2026-09-01T20:01:43Z</time>
  <course>274.97</course>
  <speed>18.07</speed>
  <fix>3d</fix>
</trkpt>
<trkpt lat="-27.2492599" lon="151.3579351">
  <ele>528.06</ele>
  <time>2026-09-01T20:01:43Z</time>
  <course>274.97</course>
  <speed>17.655551534857246</speed>
  <fix>3d</fix>
</trkpt>
<trkpt lat="-27.2492627" lon="151.3579719">
  <ele>528.43</ele>
  <time>2026-09-01T20:01:43Z</time>
  <course>274.97</course>
  <speed>17.86</speed>
  <fix>3d</fix>
</trkpt>
<trkpt lat="-27.2492586" lon="151.3579174">
  <ele>527.87</ele>
  <time>2026-09-01T20:01:43Z</time>
  <course>274.97</course>
  <speed>17.565024907468818</speed>
  <fix>3d</fix>
</trkpt>
<trkpt lat="-27.2492627" lon="151.3579719">
  <ele>528.43</ele>
  <time>2026-09-01T20:01:43Z</time>
  <course>274.97</course>
  <speed>17.86</speed>
  <fix>3d</fix>
</trkpt>
<trkpt lat="-27.2492572" lon="151.3578997">
  <ele>527.68</ele>
  <time>2026-09-01T20:01:43Z</time>
  <course>274.97</course>
  <speed>17.464535493393463</speed>
  <fix>3d</fix>
</trkpt>
<trkpt lat="-27.24926" lon="151.3579361">
  <ele>528.06</ele>
  <time>2026-09-01T20:01:43Z</time>
  <course>274.96</course>
  <speed>17.66</speed>
  <fix>3d</fix>
</trkpt>
<trkpt lat="-27.2492559" lon="151.3578822">
  <ele>527.49</ele>
  <time>2026-09-01T20:01:43Z</time>
  <course>274.96</course>
  <speed>17.37486978368471</speed>
  <fix>3d</fix>
</trkpt>
<trkpt lat="-27.24926" lon="151.3579361">
  <ele>528.06</ele>
  <time>2026-09-01T20:01:43Z</time>
  <course>274.96</course>
  <speed>17.66</speed>
  <fix>3d</fix>
</trkpt>
<trkpt lat="-27.2492545" lon="151.3578647">
  <ele>527.29</ele>
  <time>2026-09-01T20:01:43Z</time>
  <course>274.96</course>
  <speed>17.294305421149474</speed>
  <fix>3d</fix>
</trkpt>
<trkpt lat="-27.2492572" lon="151.3579007">
  <ele>527.69</ele>
  <time>2026-09-01T20:01:43Z</time>
  <course>274.95</course>
  <speed>17.48</speed>
  <fix>3d</fix>
</trkpt>
<trkpt lat="-27.2492532" lon="151.3578474">
  <ele>527.11</ele>
  <time>2026-09-01T20:01:43Z</time>
  <course>274.96</course>
  <speed>17.203778654702575</speed>
  <fix>3d</fix>
</trkpt>
<trkpt lat="-27.2492572" lon="151.3579007">
  <ele>527.69</ele>
  <time>2026-09-01T20:01:43Z</time>
  <course>274.95</course>
  <speed>17.48</speed>
  <fix>3d</fix>
</trkpt>
<trkpt lat="-27.2492518" lon="151.3578301">
  <ele>526.91</ele>
  <time>2026-09-01T20:01:43Z</time>
  <course>274.95</course>
  <speed>17.123215235463228</speed>
  <fix>3d</fix>
</trkpt>
<trkpt lat="-27.2492545" lon="151.3578657">
  <ele>527.31</ele>
  <time>2026-09-01T20:01:43Z</time>
  <course>274.94</course>
  <speed>17.3</speed>
  <fix>3d</fix>
</trkpt>
<trkpt lat="-27.2492505" lon="151.3578129">
  <ele>526.72</ele>
  <time>2026-09-01T20:01:43Z</time>
  <course>274.95</course>
  <speed>17.04265237573072</speed>
  <fix>3d</fix>
</trkpt>
<trkpt lat="-27.2492545" lon="151.3578657">
  <ele>527.31</ele>
  <time>2026-09-01T20:01:43Z</time>
  <course>274.94</course>
  <speed>17.3</speed>
  <fix>3d</fix>
</trkpt>
<trkpt lat="-27.247457" lon="151.3618936">
  <ele>542.98</ele>
  <time>2026-09-01T20:01:43Z</time>
  <course>250.01</course>
  <speed>0.0</speed>
  <fix>3d</fix>
</trkpt>
<trkpt lat="-27.2492519" lon="151.357831">
  <ele>526.92</ele>
  <time>2026-09-01T20:01:43Z</time>
  <course>274.94</course>
  <speed>17.13</speed>
  <fix>3d</fix>
</trkpt>
<trkpt lat="-27.247457" lon="151.3618936">
  <ele>542.88</ele>
  <time>2026-09-01T20:01:43Z</time>
  <course>250.01</course>
  <speed>0.0632455532033676</speed>
  <fix>3d</fix>
</trkpt>
<trkpt lat="-27.2492519" lon="151.357831">
  <ele>526.92</ele>
  <time>2026-09-01T20:01:43Z</time>
  <course>274.94</course>
  <speed>17.13</speed>
  <fix>3d</fix>
</trkpt>
<trkpt lat="-27.247457" lon="151.3618934">
  <ele>542.68</ele>
  <time>2026-09-01T20:01:43Z</time>
  <course>249.99</course>
  <speed>0.20248456731316586</speed>
  <fix>3d</fix>
</trkpt>
<trkpt lat="-27.2483537" lon="151.3598537">
  <ele>534.8</ele>
  <time>2026-09-01T20:01:43Z</time>
  <course>274.84</course>
  <speed>8.55</speed>
  <fix>3d</fix>
</trkpt>
<trkpt lat="-27.2474571" lon="151.3618932">
  <ele>542.39</ele>
  <time>2026-09-01T20:01:43Z</time>
  <course>250.37</course>
  <speed>0.4301162633521314</speed>
  <fix>3d</fix>
</trkpt>
<trkpt lat="-27.2483537" lon="151.3598537">
  <ele>534.8</ele>
  <time>2026-09-01T20:01:43Z</time>
  <course>274.84</course>
  <speed>8.55</speed>
  <fix>3d</fix>
</trkpt>
<trkpt lat="-27.2474572" lon="151.3618926">
  <ele>542.02</ele>
  <time>2026-09-01T20:01:43Z</time>
  <course>253.32</course>
  <speed>0.7382411530116699</speed>
  <fix>3d</fix>
</trkpt>
<trkpt lat="-27.247457" lon="151.3618933">
  <ele>542.64</ele>
  <time>2026-09-01T20:01:43Z</time>
  <course>250.96</course>
  <speed>0.24</speed>
  <fix>3d</fix>
</trkpt>
<trkpt lat="-27.2474573" lon="151.3618917">
  <ele>541.57</ele>
  <time>2026-09-01T20:01:43Z</time>
  <course>262.74</course>
  <speed>1.091146186356347</speed>
  <fix>3d</fix>
</trkpt>
<trkpt lat="-27.247457" lon="151.3618933">
  <ele>542.64</ele>
  <time>2026-09-01T20:01:43Z</time>
  <course>250.96</course>
  <speed>0.24</speed>
  <fix>3d</fix>
</trkpt>
<trkpt lat="-27.2474575" lon="151.3618904">
  <ele>541.04</ele>
  <time>2026-09-01T20:01:43Z</time>
  <course>263.5</course>
  <speed>1.5100331122197286</speed>
  <fix>3d</fix>
</trkpt>
<trkpt lat="-27.2474572" lon="151.3618924">
  <ele>542.0</ele>
  <time>2026-09-01T20:01:43Z</time>
  <course>262.53</course>
  <speed>0.74</speed>
  <fix>3d</fix>
</trkpt>
<trkpt lat="-27.2474587" lon="151.361889">
  <ele>540.48</ele>
  <time>2026-09-01T20:01:43Z</time>
  <course>252.01</course>
  <speed>2.860629301395062</speed>
  <fix>3d</fix>
</trkpt>
<trkpt lat="-27.2474572" lon="151.3618924">
  <ele>542.0</ele>
  <time>2026-09-01T20:01:43Z</time>
  <course>262.53</course>
  <speed>0.74</speed>
  <fix>3d</fix>
</trkpt>
<trkpt lat="-27.2474617" lon="151.3618876">
  <ele>539.93</ele>
  <time>2026-09-01T20:01:43Z</time>
  <course>243.81</course>
  <speed>4.373934155883008</speed>
  <fix>3d</fix>
</trkpt>
<trkpt lat="-27.2474579" lon="151.3618904">
  <ele>541.06</ele>
  <time>2026-09-01T20:01:43Z</time>
  <course>226.52</course>
  <speed>1.75</speed>
  <fix>3d</fix>
</trkpt>
<trkpt lat="-27.2474661" lon="151.3618862">
  <ele>539.43</ele>
  <time>2026-09-01T20:01:43Z</time>
  <course>237.82</course>
  <speed>5.67824796922431</speed>
  <fix>3d</fix>
</trkpt>
<trkpt lat="-27.2474579" lon="151.3618904">
  <ele>541.06</ele>
  <time>2026-09-01T20:01:43Z</time>
  <course>226.52</course>
  <speed>1.75</speed>
  <fix>3d</fix>
</trkpt>
<trkpt lat="-27.2474716" lon="151.3618851">
  <ele>539.02</ele>
  <time>2026-09-01T20:01:43Z</time>
  <course>232.96</course>
  <speed>6.7180428697649734</speed>
  <fix>3d</fix>
</trkpt>
<trkpt lat="-27.2474622" lon="151.3618877">
  <ele>539.99</ele>
  <time>2026-09-01T20:01:43Z</time>
  <course>198.85</course>
  <speed>4.14</speed>
  <fix>3d</fix>
</trkpt>
<trkpt lat="-27.2474779" lon="151.3618837">
  <ele>538.7</ele>
  <time>2026-09-01T20:01:43Z</time>
  <course>229.12</course>
  <speed>7.503505847268994</speed>
  <fix>3d</fix>
</trkpt>
<trkpt lat="-27.2474622" lon="151.3618877">
  <ele>539.99</ele>
  <time>2026-09-01T20:01:43Z</time>
  <course>198.85</course>
  <speed>4.14</speed>
  <fix>3d</fix>
</trkpt>
<trkpt lat="-27.2474847" lon="151.3618818">
  <ele>538.5</ele>
  <time>2026-09-01T20:01:43Z</time>
  <course>226.5</course>
  <speed>7.97800100275752</speed>
  <fix>3d</fix>
</trkpt>
<trkpt lat="-27.2474717" lon="151.3618851">
  <ele>539.08</ele>
  <time>2026-09-01T20:01:43Z</time>
  <course>191.89</course>
  <speed>6.54</speed>
  <fix>3d</fix>
</trkpt>
<trkpt lat="-27.2474916" lon="151.3618792">
  <ele>538.41</ele>
  <time>2026-09-01T20:01:43Z</time>
  <course>225.06</course>
  <speed>8.299265027699741</speed>
  <fix>3d</fix>
</trkpt>
<trkpt lat="-27.2474717" lon="151.3618851">
  <ele>539.08</ele>
  <time>2026-09-01T20:01:43Z</time>
  <course>191.89</course>
  <speed>6.54</speed>
  <fix>3d</fix>
</trkpt>
<trkpt lat="-27.2474984" lon="151.3618755">
  <ele>538.36</ele>
  <time>2026-09-01T20:01:43Z</time>
  <course>224.79</course>
  <speed>8.61725014143143</speed>
  <fix>3d</fix>
</trkpt>
<trkpt lat="-27.2474844" lon="151.3618816">
  <ele>538.56</ele>
  <time>2026-09-01T20:01:43Z</time>
  <course>197.07</course>
  <speed>7.84</speed>
  <fix>3d</fix>
</trkpt>
<trkpt lat="-27.2475051" lon="151.3618707">
  <ele>538.34</ele>
  <time>2026-09-01T20:01:43Z</time>
  <course>225.55</course>
  <speed>8.997699706035982</speed>
  <fix>3d</fix>
</trkpt>
<trkpt lat="-27.2474844" lon="151.3618816">
  <ele>538.56</ele>
  <time>2026-09-01T20:01:43Z</time>
  <course>197.07</course>
  <speed>7.84</speed>
  <fix>3d</fix>
</trkpt>
<trkpt lat="-27.2475117" lon="151.361865">
  <ele>538.32</ele>
  <time>2026-09-01T20:01:43Z</time>
  <course>227.4</course>
  <speed>9.444119863703552</speed>
  <fix>3d</fix>
</trkpt>
<trkpt lat="-27.2474979" lon="151.3618751">
  <ele>538.37</ele>
  <time>2026-09-01T20:01:43Z</time>
  <course>208.77</course>
  <speed>8.58</speed>
  <fix>3d</fix>
</trkpt>
<trkpt lat="-27.247518" lon="151.3618583">
  <ele>538.29</ele>
  <time>2026-09-01T20:01:43Z</time>
  <course>230.07</course>
  <speed>9.93557748699088</speed>
  <fix>3d</fix>
</trkpt>
<trkpt lat="-27.2474979" lon="151.3618751">
  <ele>538.37</ele>
  <time>2026-09-01T20:01:43Z</time>
  <course>208.77</course>
  <speed>8.58</speed>
  <fix>3d</fix>
</trkpt>
<trkpt lat="-27.2475241" lon="151.3618506">
  <ele>538.24</ele>
  <time>2026-09-01T20:01:43Z</time>
  <course>233.27</course>
  <speed>10.45933554294918</speed>
  <fix>3d</fix>
</trkpt>
<trkpt lat="-27.2475112" lon="151.3618647">
  <ele>538.31</ele>
  <time>2026-09-01T20:01:43Z</time>
  <course>220.44</course>
  <speed>9.41</speed>
  <fix>3d</fix>
</trkpt>
<trkpt lat="-27.24753" lon="151.361842">
  <ele>538.16</ele>
  <time>2026-09-01T20:01:43Z</time>
  <course>236.44</course>
  <speed>10.98075589383536</speed>
  <fix>3d</fix>
</trkpt>
<trkpt lat="-27.2475112" lon="151.3618647">
  <ele>538.31</ele>
  <time>2026-09-01T20:01:43Z</time>
  <course>220.44</course>
  <speed>9.41</speed>
  <fix>3d</fix>
</trkpt>
<trkpt lat="-27.2475356" lon="151.3618325">
  <ele>538.08</ele>
  <time>2026-09-01T20:01:43Z</time>
  <course>239.46</course>
  <speed>11.525562892978373</speed>
  <fix>3d</fix>
</trkpt>
<trkpt lat="-27.2475237" lon="151.3618505">
  <ele>538.23</ele>
  <time>2026-09-01T20:01:43Z</time>
  <course>230.04</course>
  <speed>10.41</speed>
  <fix>3d</fix>
</trkpt>
<trkpt lat="-27.2475409" lon="151.3618222">
  <ele>537.98</ele>
  <time>2026-09-01T20:01:43Z</time>
  <course>242.04</course>
  <speed>12.065889938168674</speed>
  <fix>3d</fix>
</trkpt>
<trkpt lat="-27.2475237" lon="151.3618505">
  <ele>538.23</ele>
  <time>2026-09-01T20:01:43Z</time>
  <course>230.04</course>
  <speed>10.41</speed>
  <fix>3d</fix>
</trkpt>
<trkpt lat="-27.2475458" lon="151.361811">
  <ele>537.86</ele>
  <time>2026-09-01T20:01:43Z</time>
  <course>244.34</course>
  <speed>12.61228369487461</speed>
  <fix>3d</fix>
</trkpt>
<trkpt lat="-27.2475351" lon="151.3618326">
  <ele>538.07</ele>
  <time>2026-09-01T20:01:43Z</time>
  <course>238.11</course>
  <speed>11.48</speed>
  <fix>3d</fix>
</trkpt>
<trkpt lat="-27.2475504" lon="151.361799">
  <ele>537.74</ele>
  <time>2026-09-01T20:01:43Z</time>
  <course>246.3</course>
  <speed>13.16398495897044</speed>
  <fix>3d</fix>
</trkpt>
<trkpt lat="-27.2475351" lon="151.3618326">
  <ele>538.07</ele>
  <time>2026-09-01T20:01:43Z</time>
  <course>238.11</course>
  <speed>11.48</speed>
  <fix>3d</fix>
</trkpt>
<trkpt lat="-27.2475547" lon="151.3617864">
  <ele>537.62</ele>
  <time>2026-09-01T20:01:43Z</time>
  <course>248.04</course>
  <speed>13.700576630200642</speed>
  <fix>3d</fix>
</trkpt>
<trkpt lat="-27.2475454" lon="151.3618112">
  <ele>537.86</ele>
  <time>2026-09-01T20:01:43Z</time>
  <course>244.92</course>
  <speed>12.57</speed>
  <fix>3d</fix>
</trkpt>
<trkpt lat="-27.2475586" lon="151.361773">
  <ele>537.51</ele>
  <time>2026-09-01T20:01:43Z</time>
  <course>249.79</course>
  <speed>14.222011109544248</speed>
  <fix>3d</fix>
</trkpt>
<trkpt lat="-27.2475454" lon="151.3618112">
  <ele>537.86</ele>
  <time>2026-09-01T20:01:43Z</time>
  <course>244.92</course>
  <speed>12.57</speed>
  <fix>3d</fix>
</trkpt>
<trkpt lat="-27.2475621" lon="151.3617588">
  <ele>537.41</ele>
  <time>2026-09-01T20:01:43Z</time>
  <course>251.59</course>
  <speed>14.743473132203281</speed>
  <fix>3d</fix>
</trkpt>
<trkpt lat="-27.2475543" lon="151.3617866">
  <ele>537.63</ele>
  <time>2026-09-01T20:01:43Z</time>
  <course>250.47</course>
  <speed>13.65</speed>
  <fix>3d</fix>
</trkpt>
<trkpt lat="-27.2475654" lon="151.3617442">
  <ele>537.31</ele>
  <time>2026-09-01T20:01:43Z</time>
  <course>253.19</course>
  <speed>15.249449170379892</speed>
  <fix>3d</fix>
</trkpt>
<trkpt lat="-27.2475543" lon="151.3617866">
  <ele>537.63</ele>
  <time>2026-09-01T20:01:43Z</time>
  <course>250.47</course>
  <speed>13.65</speed>
  <fix>3d</fix>
</trkpt>
<trkpt lat="-27.2475685" lon="151.3617289">
  <ele>537.23</ele>
  <time>2026-09-01T20:01:43Z</time>
  <course>254.56</course>
  <speed>15.744872181126146</speed>
  <fix>3d</fix>
</trkpt>
<trkpt lat="-27.2475618" lon="151.3617593">
  <ele>537.42</ele>
  <time>2026-09-01T20:01:43Z</time>
  <course>254.79</course>
  <speed>14.7</speed>
  <fix>3d</fix>
</trkpt>
<trkpt lat="-27.2475713" lon="151.3617131">
  <ele>537.16</ele>
  <time>2026-09-01T20:01:43Z</time>
  <course>255.8</course>
  <speed>16.227834113029378</speed>
  <fix>3d</fix>
</trkpt>
<trkpt lat="-27.2475618" lon="151.3617593">
  <ele>537.42</ele>
  <time>2026-09-01T20:01:43Z</time>
  <course>254.79</course>
  <speed>14.7</speed>
  <fix>3d</fix>
</trkpt>
<trkpt lat="-27.2475739" lon="151.3616966">
  <ele>537.1</ele>
  <time>2026-09-01T20:01:43Z</time>
  <course>256.97</course>
  <speed>16.693112352104983</speed>
  <fix>3d</fix>
</trkpt>
<trkpt lat="-27.2475681" lon="151.3617294">
  <ele>537.24</ele>
  <time>2026-09-01T20:01:43Z</time>
  <course>257.99</course>
  <speed>15.71</speed>
  <fix>3d</fix>
</trkpt>
<trkpt lat="-27.2475763" lon="151.3616798">
  <ele>537.04</ele>
  <time>2026-09-01T20:01:43Z</time>
  <course>258.1</course>
  <speed>17.148250639642516</speed>
  <fix>3d</fix>
</trkpt>
<trkpt lat="-27.2475681" lon="151.3617294">
  <ele>537.24</ele>
  <time>2026-09-01T20:01:43Z</time>
  <course>257.99</course>
  <speed>15.71</speed>
  <fix>3d</fix>
</trkpt>
<trkpt lat="-27.2475786" lon="151.3616623">
  <ele>537.02</ele>
  <time>2026-09-01T20:01:43Z</time>
  <course>259.11</course>
  <speed>17.5914439430082</speed>
  <fix>3d</fix>
</trkpt>
<trkpt lat="-27.2475736" lon="151.3616973">
  <ele>537.1</ele>
  <time>2026-09-01T20:01:43Z</time>
  <course>260.29</course>
  <speed>16.66</speed>
  <fix>3d</fix>
</trkpt>
<trkpt lat="-27.2475807" lon="151.3616444">
  <ele>537.0</ele>
  <time>2026-09-01T20:01:43Z</time>
  <course>259.93</course>
  <speed>18.02125966740394</speed>
  <fix>3d</fix>
</trkpt>
<trkpt lat="-27.2475736" lon="151.3616973">
  <ele>537.1</ele>
  <time>2026-09-01T20:01:43Z</time>
  <course>260.29</course>
  <speed>16.66</speed>
  <fix>3d</fix>
</trkpt>
<trkpt lat="-27.2475828" lon="151.3616262">
  <ele>537.0</ele>
  <time>2026-09-01T20:01:43Z</time>
  <course>260.53</course>
  <speed>18.42665732030636</speed>
  <fix>3d</fix>
</trkpt>
<trkpt lat="-27.2475784" lon="151.361663">
  <ele>537.02</ele>
  <time>2026-09-01T20:01:43Z</time>
  <course>261.89</course>
  <speed>17.56</speed>
  <fix>3d</fix>
</trkpt>
<trkpt lat="-27.2475848" lon="151.3616075">
  <ele>537.02</ele>
  <time>2026-09-01T20:01:43Z</time>
  <course>261.02</course>
  <speed>18.816708001135588</speed>
  <fix>3d</fix>
</trkpt>
<trkpt lat="-27.2475784" lon="151.361663">
  <ele>537.02</ele>
  <time>2026-09-01T20:01:43Z</time>
  <course>261.89</course>
  <speed>17.56</speed>
  <fix>3d</fix>
</trkpt>
<trkpt lat="-27.2475867" lon="151.3615884">
  <ele>537.04</ele>
  <time>2026-09-01T20:01:43Z</time>
  <course>261.31</course>
  <speed>19.191938411739446</speed>
  <fix>3d</fix>
</trkpt>
<trkpt lat="-27.2475826" lon="151.361627">
  <ele>537.0</ele>
  <time>2026-09-01T20:01:43Z</time>
  <course>262.92</course>
  <speed>18.39</speed>
  <fix>3d</fix>
</trkpt>
<trkpt lat="-27.2475886" lon="151.361569">
  <ele>537.09</ele>
  <time>2026-09-01T20:01:43Z</time>
  <course>261.55</course>
  <speed>19.5508004951204</speed>
  <fix>3d</fix>
</trkpt>
<trkpt lat="-27.2475826" lon="151.361627">
  <ele>537.0</ele>
  <time>2026-09-01T20:01:43Z</time>
  <course>262.92</course>
  <speed>18.39</speed>
  <fix>3d</fix>
</trkpt>
<trkpt lat="-27.2475906" lon="151.3615491">
  <ele>537.15</ele>
  <time>2026-09-01T20:01:43Z</time>
  <course>261.86</course>
  <speed>19.900866815292243</speed>
  <fix>3d</fix>
</trkpt>
<trkpt lat="-27.2475866" lon="151.3615893">
  <ele>537.05</ele>
  <time>2026-09-01T20:01:43Z</time>
  <course>263.45</course>
  <speed>19.16</speed>
  <fix>3d</fix>
</trkpt>
<trkpt lat="-27.2475926" lon="151.361529">
  <ele>537.22</ele>
  <time>2026-09-01T20:01:43Z</time>
  <course>262.26</course>
  <speed>20.22222539682515</speed>
  <fix>3d</fix>
</trkpt>
<trkpt lat="-27.2475866" lon="151.3615893">
  <ele>537.05</ele>
  <time>2026-09-01T20:01:43Z</time>
  <course>263.45</course>
  <speed>19.16</speed>
  <fix>3d</fix>
</trkpt>
<trkpt lat="-27.2475946" lon="151.3615085">
  <ele>537.29</ele>
  <time>2026-09-01T20:01:43Z</time>
  <course>262.72</course>
  <speed>20.50273152533584</speed>
  <fix>3d</fix>
</trkpt>
<trkpt lat="-27.2475905" lon="151.36155">
  <ele>537.15</ele>
  <time>2026-09-01T20:01:43Z</time>
  <course>263.64</course>
  <speed>19.87</speed>
  <fix>3d</fix>
</trkpt>
<trkpt lat="-27.2475966" lon="151.3614878">
  <ele>537.36</ele>
  <time>2026-09-01T20:01:43Z</time>
  <course>263.19</course>
  <speed>20.76119457064068</speed>
  <fix>3d</fix>
</trkpt>
<trkpt lat="-27.2475905" lon="151.36155">
  <ele>537.15</ele>
  <time>2026-09-01T20:01:43Z</time>
  <course>263.64</course>
  <speed>19.87</speed>
  <fix>3d</fix>
</trkpt>
<trkpt lat="-27.2475986" lon="151.3614668">
  <ele>537.43</ele>
  <time>2026-09-01T20:01:43Z</time>
  <course>263.48</course>
  <speed>20.98986660272047</speed>
  <fix>3d</fix>
</trkpt>
<trkpt lat="-27.2475945" lon="151.3615094">
  <ele>537.28</ele>
  <time>2026-09-01T20:01:43Z</time>
  <course>263.72</course>
  <speed>20.48</speed>
  <fix>3d</fix>
</trkpt>
<trkpt lat="-27.2476006" lon="151.3614457">
  <ele>537.49</ele>
  <time>2026-09-01T20:01:43Z</time>
  <course>263.61</course>
  <speed>21.17668529302922</speed>
  <fix>3d</fix>
</trkpt>
<trkpt lat="-27.2475945" lon="151.3615094">
  <ele>537.28</ele>
  <time>2026-09-01T20:01:43Z</time>
  <course>263.72</course>
  <speed>20.48</speed>
  <fix>3d</fix>
</trkpt>
<trkpt lat="-27.2476026" lon="151.3614242">
  <ele>537.54</ele>
  <time>2026-09-01T20:01:43Z</time>
  <course>263.68</course>
  <speed>21.343685248803684</speed>
  <fix>3d</fix>
</trkpt>
<trkpt lat="-27.2475985" lon="151.3614678">
  <ele>537.42</ele>
  <time>2026-09-01T20:01:43Z</time>
  <course>263.87</course>
  <speed>20.96</speed>
  <fix>3d</fix>
</trkpt>
<trkpt lat="-27.2476046" lon="151.3614027">
  <ele>537.57</ele>
  <time>2026-09-01T20:01:43Z</time>
  <course>263.72</course>
  <speed>21.471974757809306</speed>
  <fix>3d</fix>
</trkpt>
<trkpt lat="-27.2475985" lon="151.3614678">
  <ele>537.42</ele>
  <time>2026-09-01T20:01:43Z</time>
  <course>263.87</course>
  <speed>20.96</speed>
  <fix>3d</fix>
</trkpt>
<trkpt lat="-27.2476066" lon="151.3613811">
  <ele>537.6</ele>
  <time>2026-09-01T20:01:43Z</time>
  <course>263.75</course>
  <speed>21.57044274000884</speed>
  <fix>3d</fix>
</trkpt>
<trkpt lat="-27.2476025" lon="151.3614253">
  <ele>537.52</ele>
  <time>2026-09-01T20:01:43Z</time>
  <course>264.05</course>
  <speed>21.32</speed>
  <fix>3d</fix>
</trkpt>
<trkpt lat="-27.2476085" lon="151.3613595">
  <ele>537.61</ele>
  <time>2026-09-01T20:01:43Z</time>
  <course>263.8</course>
  <speed>21.64903000136496</speed>
  <fix>3d</fix>
</trkpt>
<trkpt lat="-27.2476025" lon="151.3614253">
  <ele>537.52</ele>
  <time>2026-09-01T20:01:43Z</time>
  <course>264.05</course>
  <speed>21.32</speed>
  <fix>3d</fix>
</trkpt>
<trkpt lat="-27.2476105" lon="151.3613377">
  <ele>537.62</ele>
  <time>2026-09-01T20:01:43Z</time>
  <course>263.84</course>
  <speed>21.686837021566795</speed>
  <fix>3d</fix>
</trkpt>
<trkpt lat="-27.2476064" lon="151.3613822">
  <ele>537.58</ele>
  <time>2026-09-01T20:01:43Z</time>
  <course>264.18</course>
  <speed>21.55</speed>
  <fix>3d</fix>
</trkpt>
<trkpt lat="-27.2476124" lon="151.3613159">
  <ele>537.61</ele>
  <time>2026-09-01T20:01:43Z</time>
  <course>263.93</course>
  <speed>21.71570169255417</speed>
  <fix>3d</fix>
</trkpt>
<trkpt lat="-27.2476064" lon="151.3613822">
  <ele>537.58</ele>
  <time>2026-09-01T20:01:43Z</time>
  <course>264.18</course>
  <speed>21.55</speed>
  <fix>3d</fix>
</trkpt>
<trkpt lat="-27.2476143" lon="151.3612939">
  <ele>537.59</ele>
  <time>2026-09-01T20:01:43Z</time>
  <course>264.03</course>
  <speed>21.73462214992476</speed>
  <fix>3d</fix>
</trkpt>
<trkpt lat="-27.2476103" lon="151.3613388">
  <ele>537.61</ele>
  <time>2026-09-01T20:01:43Z</time>
  <course>264.28</course>
  <speed>21.68</speed>
  <fix>3d</fix>
</trkpt>
<trkpt lat="-27.2476162" lon="151.3612722">
  <ele>537.56</ele>
  <time>2026-09-01T20:01:43Z</time>
  <course>264.12</course>
  <speed>21.75354913571576</speed>
  <fix>3d</fix>
</trkpt>
<trkpt lat="-27.2476103" lon="151.3613388">
  <ele>537.61</ele>
  <time>2026-09-01T20:01:43Z</time>
  <course>264.28</course>
  <speed>21.68</speed>
  <fix>3d</fix>
</trkpt>
<trkpt lat="-27.2476181" lon="151.3612503">
  <ele>537.53</ele>
  <time>2026-09-01T20:01:43Z</time>
  <course>264.16</course>
  <speed>21.77248263290156</speed>
  <fix>3d</fix>
</trkpt>
<trkpt lat="-27.2476142" lon="151.3612951">
  <ele>537.58</ele>
  <time>2026-09-01T20:01:43Z</time>
  <course>264.36</course>
  <speed>21.73</speed>
  <fix>3d</fix>
</trkpt>
<trkpt lat="-27.24762" lon="151.3612283">
  <ele>537.49</ele>
  <time>2026-09-01T20:01:43Z</time>
  <course>264.19</course>
  <speed>21.791422624509856</speed>
  <fix>3d</fix>
</trkpt>
<trkpt lat="-27.2476142" lon="151.3612951">
  <ele>537.58</ele>
  <time>2026-09-01T20:01:43Z</time>
  <course>264.36</course>
  <speed>21.73</speed>
  <fix>3d</fix>
</trkpt>
<trkpt lat="-27.2476219" lon="151.3612064">
  <ele>537.45</ele>
  <time>2026-09-01T20:01:43Z</time>
  <course>264.21</course>
  <speed>21.811329624761534</speed>
  <fix>3d</fix>
</trkpt>
<trkpt lat="-27.247618" lon="151.3612513">
  <ele>537.52</ele>
  <time>2026-09-01T20:01:43Z</time>
  <course>264.42</course>
  <speed>21.77</speed>
  <fix>3d</fix>
</trkpt>
<trkpt lat="-27.2476238" lon="151.3611845">
  <ele>537.41</ele>
  <time>2026-09-01T20:01:43Z</time>
  <course>264.27</course>
  <speed>21.830277139789132</speed>
  <fix>3d</fix>
</trkpt>
<trkpt lat="-27.247618" lon="151.3612513">
  <ele>537.52</ele>
  <time>2026-09-01T20:01:43Z</time>
  <course>264.42</course>
  <speed>21.77</speed>
  <fix>3d</fix>
</trkpt>
<trkpt lat="-27.2476257" lon="151.3611625">
  <ele>537.36</ele>
  <time>2026-09-01T20:01:43Z</time>
  <course>264.26</course>
  <speed>21.850185353904894</speed>
  <fix>3d</fix>
</trkpt>
<trkpt lat="-27.2476218" lon="151.3612075">
  <ele>537.44</ele>
  <time>2026-09-01T20:01:43Z</time>
  <course>264.46</course>
  <speed>21.81</speed>
  <fix>3d</fix>
</trkpt>
<trkpt lat="-27.2476276" lon="151.3611406">
  <ele>537.32</ele>
  <time>2026-09-01T20:01:43Z</time>
  <course>264.29</course>
  <speed>21.871051643668167</speed>
  <fix>3d</fix>
</trkpt>
<trkpt lat="-27.2476218" lon="151.3612075">
  <ele>537.44</ele>
  <time>2026-09-01T20:01:43Z</time>
  <course>264.46</course>
  <speed>21.81</speed>
  <fix>3d</fix>
</trkpt>
<trkpt lat="-27.2476295" lon="151.3611186">
  <ele>537.28</ele>
  <time>2026-09-01T20:01:43Z</time>
  <course>264.28</course>
  <speed>21.890959321144422</speed>
  <fix>3d</fix>
</trkpt>
<trkpt lat="-27.2476256" lon="151.3611635">
  <ele>537.36</ele>
  <time>2026-09-01T20:01:43Z</time>
  <course>264.48</course>
  <speed>21.85</speed>
  <fix>3d</fix>
</trkpt>
<trkpt lat="-27.2476314" lon="151.3610965">
  <ele>537.24</ele>
  <time>2026-09-01T20:01:43Z</time>
  <course>264.29</course>
  <speed>21.90187434901406</speed>
  <fix>3d</fix>
</trkpt>
<trkpt lat="-27.2476256" lon="151.3611635">
  <ele>537.36</ele>
  <time>2026-09-01T20:01:43Z</time>
  <course>264.48</course>
  <speed>21.85</speed>
  <fix>3d</fix>
</trkpt>
<trkpt lat="-27.2476333" lon="151.3610742">
  <ele>537.2</ele>
  <time>2026-09-01T20:01:43Z</time>
  <course>264.28</course>
  <speed>21.9227461783418</speed>
  <fix>3d</fix>
</trkpt>
<trkpt lat="-27.2476294" lon="151.3611195">
  <ele>537.28</ele>
  <time>2026-09-01T20:01:43Z</time>
  <course>264.47</course>
  <speed>21.89</speed>
  <fix>3d</fix>
</trkpt>
<trkpt lat="-27.2476352" lon="151.3610522">
  <ele>537.16</ele>
  <time>2026-09-01T20:01:43Z</time>
  <course>264.3</course>
  <speed>21.933668183867468</speed>
  <fix>3d</fix>
</trkpt>
<trkpt lat="-27.2476294" lon="151.3611195">
  <ele>537.28</ele>
  <time>2026-09-01T20:01:43Z</time>
  <course>264.47</course>
  <speed>21.89</speed>
  <fix>3d</fix>
</trkpt>
<trkpt lat="-27.2476371" lon="151.3610301">
  <ele>537.12</ele>
  <time>2026-09-01T20:01:43Z</time>
  <course>264.29</course>
  <speed>21.954546226237518</speed>
  <fix>3d</fix>
</trkpt>
<trkpt lat="-27.2476332" lon="151.3610754">
  <ele>537.19</ele>
  <time>2026-09-01T20:01:43Z</time>
  <course>264.44</course>
  <speed>21.92</speed>
  <fix>3d</fix>
</trkpt>
<trkpt lat="-27.2476391" lon="151.3610081">
  <ele>537.09</ele>
  <time>2026-09-01T20:01:43Z</time>
  <course>264.26</course>
  <speed>21.964498628468622</speed>
  <fix>3d</fix>
</trkpt>
<trkpt lat="-27.2476332" lon="151.3610754">
  <ele>537.19</ele>
  <time>2026-09-01T20:01:43Z</time>
  <course>264.44</course>
  <speed>21.92</speed>
  <fix>3d</fix>
</trkpt>
<trkpt lat="-27.247641" lon="151.360986">
  <ele>537.04</ele>
  <time>2026-09-01T20:01:43Z</time>
  <course>264.21</course>
  <speed>21.976407804734603</speed>
  <fix>3d</fix>
</trkpt>
<trkpt lat="-27.247637" lon="151.3610312">
  <ele>537.12</ele>
  <time>2026-09-01T20:01:43Z</time>
  <course>264.4</course>
  <speed>21.95</speed>
  <fix>3d</fix>
</trkpt>
<trkpt lat="-27.2476429" lon="151.3609639">
  <ele>537.01</ele>
  <time>2026-09-01T20:01:43Z</time>
  <course>264.18</course>
  <speed>21.997295288284878</speed>
  <fix>3d</fix>
</trkpt>
<trkpt lat="-27.247637" lon="151.3610312">
  <ele>537.12</ele>
  <time>2026-09-01T20:01:43Z</time>
  <course>264.4</course>
  <speed>21.95</speed>
  <fix>3d</fix>
</trkpt>
<trkpt lat="-27.2476449" lon="151.3609418">
  <ele>536.98</ele>
  <time>2026-09-01T20:01:43Z</time>
  <course>264.18</course>
  <speed>22.009227610254747</speed>
  <fix>3d</fix>
</trkpt>
<trkpt lat="-27.2476409" lon="151.3609871">
  <ele>537.05</ele>
  <time>2026-09-01T20:01:43Z</time>
  <course>264.35</course>
  <speed>21.98</speed>
  <fix>3d</fix>
</trkpt>
<trkpt lat="-27.2476469" lon="151.3609196">
  <ele>536.94</ele>
  <time>2026-09-01T20:01:43Z</time>
  <course>264.2</course>
  <speed>22.020174840359463</speed>
  <fix>3d</fix>
</trkpt>
<trkpt lat="-27.2476409" lon="151.3609871">
  <ele>537.05</ele>
  <time>2026-09-01T20:01:43Z</time>
  <course>264.35</course>
  <speed>21.98</speed>
  <fix>3d</fix>
</trkpt>
<trkpt lat="-27.2476489" lon="151.3608975">
  <ele>536.89</ele>
  <time>2026-09-01T20:01:43Z</time>
  <course>264.2</course>
  <speed>22.041075291373605</speed>
  <fix>3d</fix>
</trkpt>
<trkpt lat="-27.2476447" lon="151.3609429">
  <ele>536.98</ele>
  <time>2026-09-01T20:01:43Z</time>
  <course>264.28</course>
  <speed>22.01</speed>
  <fix>3d</fix>
</trkpt>
<trkpt lat="-27.2476509" lon="151.3608754">
  <ele>536.85</ele>
  <time>2026-09-01T20:01:43Z</time>
  <course>264.16</course>
  <speed>22.061978605737067</speed>
  <fix>3d</fix>
</trkpt>
<trkpt lat="-27.2476447" lon="151.3609429">
  <ele>536.98</ele>
  <time>2026-09-01T20:01:43Z</time>
  <course>264.28</course>
  <speed>22.01</speed>
  <fix>3d</fix>
</trkpt>
<trkpt lat="-27.2476529" lon="151.3608531">
  <ele>536.79</ele>
  <time>2026-09-01T20:01:43Z</time>
  <course>264.09</course>
  <speed>22.083896848156122</speed>
  <fix>3d</fix>
</trkpt>
<trkpt lat="-27.2476488" lon="151.3608986">
  <ele>536.89</ele>
  <time>2026-09-01T20:01:43Z</time>
  <course>264.23</course>
  <speed>22.04</speed>
  <fix>3d</fix>
</trkpt>
<trkpt lat="-27.2476548" lon="151.360831">
  <ele>536.75</ele>
  <time>2026-09-01T20:01:43Z</time>
  <course>264.07</course>
  <speed>22.115777173773477</speed>
  <fix>3d</fix>
</trkpt>
<trkpt lat="-27.2476488" lon="151.3608986">
  <ele>536.89</ele>
  <time>2026-09-01T20:01:43Z</time>
  <course>264.23</course>
  <speed>22.04</speed>
  <fix>3d</fix>
</trkpt>
<trkpt lat="-27.2476569" lon="151.3608087">
  <ele>536.7</ele>
  <time>2026-09-01T20:01:43Z</time>
  <course>264.06</course>
  <speed>22.146643086481525</speed>
  <fix>3d</fix>
</trkpt>
<trkpt lat="-27.2476528" lon="151.3608542">
  <ele>536.8</ele>
  <time>2026-09-01T20:01:43Z</time>
  <course>264.16</course>
  <speed>22.08</speed>
  <fix>3d</fix>
</trkpt>
<trkpt lat="-27.247659" lon="151.3607865">
  <ele>536.64</ele>
  <time>2026-09-01T20:01:43Z</time>
  <course>264.05</course>
  <speed>22.178541430851578</speed>
  <fix>3d</fix>
</trkpt>
<trkpt lat="-27.2476528" lon="151.3608542">
  <ele>536.8</ele>
  <time>2026-09-01T20:01:43Z</time>
  <course>264.16</course>
  <speed>22.08</speed>
  <fix>3d</fix>
</trkpt>
<trkpt lat="-27.247661" lon="151.3607642">
  <ele>536.58</ele>
  <time>2026-09-01T20:01:43Z</time>
  <course>264.01</course>
  <speed>22.220398286259407</speed>
  <fix>3d</fix>
</trkpt>
<trkpt lat="-27.2476568" lon="151.3608098">
  <ele>536.69</ele>
  <time>2026-09-01T20:01:43Z</time>
  <course>264.1</course>
  <speed>22.14</speed>
  <fix>3d</fix>
</trkpt>
<trkpt lat="-27.2476631" lon="151.3607418">
  <ele>536.52</ele>
  <time>2026-09-01T20:01:43Z</time>
  <course>263.95</course>
  <speed>22.26122188919557</speed>
  <fix>3d</fix>
</trkpt>
<trkpt lat="-27.2476568" lon="151.3608098">
  <ele>536.69</ele>
  <time>2026-09-01T20:01:43Z</time>
  <course>264.1</course>
  <speed>22.14</speed>
  <fix>3d</fix>
</trkpt>
<trkpt lat="-27.2476652" lon="151.3607194">
  <ele>536.45</ele>
  <time>2026-09-01T20:01:43Z</time>
  <course>263.96</course>
  <speed>22.303093955772148</speed>
  <fix>3d</fix>
</trkpt>
<trkpt lat="-27.2476609" lon="151.3607652">
  <ele>536.58</ele>
  <time>2026-09-01T20:01:43Z</time>
  <course>264.03</course>
  <speed>22.22</speed>
  <fix>3d</fix>
</trkpt>
<trkpt lat="-27.2476673" lon="151.3606969">
  <ele>536.39</ele>
  <time>2026-09-01T20:01:43Z</time>
  <course>263.93</course>
  <speed>22.35492115843847</speed>
  <fix>3d</fix>
</trkpt>
<trkpt lat="-27.2476609" lon="151.3607652">
  <ele>536.58</ele>
  <time>2026-09-01T20:01:43Z</time>
  <course>264.03</course>
  <speed>22.22</speed>
  <fix>3d</fix>
</trkpt>
<trkpt lat="-27.2476695" lon="151.3606744">
  <ele>536.32</ele>
  <time>2026-09-01T20:01:43Z</time>
  <course>263.92</course>
  <speed>22.4067579091666</speed>
  <fix>3d</fix>
</trkpt>
<trkpt lat="-27.2476651" lon="151.3607204">
  <ele>536.45</ele>
  <time>2026-09-01T20:01:43Z</time>
  <course>263.96</course>
  <speed>22.31</speed>
  <fix>3d</fix>
</trkpt>
<trkpt lat="-27.2476716" lon="151.3606519">
  <ele>536.26</ele>
  <time>2026-09-01T20:01:43Z</time>
  <course>263.94</course>
  <speed>22.457537710087454</speed>
  <fix>3d</fix>
</trkpt>
<trkpt lat="-27.2476651" lon="151.3607204">
  <ele>536.45</ele>
  <time>2026-09-01T20:01:43Z</time>
  <course>263.96</course>
  <speed>22.31</speed>
  <fix>3d</fix>
</trkpt>
<trkpt lat="-27.2476738" lon="151.3606294">
  <ele>536.19</ele>
  <time>2026-09-01T20:01:43Z</time>
  <course>263.87</course>
  <speed>22.509386930789564</speed>
  <fix>3d</fix>
</trkpt>
<trkpt lat="-27.2476693" lon="151.3606754">
  <ele>536.32</ele>
  <time>2026-09-01T20:01:43Z</time>
  <course>263.9</course>
  <speed>22.4</speed>
  <fix>3d</fix>
</trkpt>
<trkpt lat="-27.247676" lon="151.3606068">
  <ele>536.12</ele>
  <time>2026-09-01T20:01:43Z</time>
  <course>263.74</course>
  <speed>22.561245532993077</speed>
  <fix>3d</fix>
</trkpt>
<trkpt lat="-27.2476693" lon="151.3606754">
  <ele>536.32</ele>
  <time>2026-09-01T20:01:43Z</time>
  <course>263.9</course>
  <speed>22.4</speed>
  <fix>3d</fix>
</trkpt>
<trkpt lat="-27.2476782" lon="151.360584">
  <ele>536.06</ele>
  <time>2026-09-01T20:01:43Z</time>
  <course>263.69</course>
  <speed>22.613113452154263</speed>
  <fix>3d</fix>
</trkpt>
<trkpt lat="-27.2476737" lon="151.3606303">
  <ele>536.19</ele>
  <time>2026-09-01T20:01:43Z</time>
  <course>263.83</course>
  <speed>22.51</speed>
  <fix>3d</fix>
</trkpt>
<trkpt lat="-27.2476804" lon="151.3605613">
  <ele>536.0</ele>
  <time>2026-09-01T20:01:43Z</time>
  <course>263.71</course>
  <speed>22.67493109140577</speed>
  <fix>3d</fix>
</trkpt>
<trkpt lat="-27.2476737" lon="151.3606303">
  <ele>536.19</ele>
  <time>2026-09-01T20:01:43Z</time>
  <course>263.83</course>
  <speed>22.51</speed>
  <fix>3d</fix>
</trkpt>
<trkpt lat="-27.2476826" lon="151.3605385">
  <ele>535.94</ele>
  <time>2026-09-01T20:01:43Z</time>
  <course>263.68</course>
  <speed>22.72681675906241</speed>
  <fix>3d</fix>
</trkpt>
<trkpt lat="-27.2476781" lon="151.360585">
  <ele>536.06</ele>
  <time>2026-09-01T20:01:43Z</time>
  <course>263.76</course>
  <speed>22.61</speed>
  <fix>3d</fix>
</trkpt>
<trkpt lat="-27.2476849" lon="151.3605156">
  <ele>535.88</ele>
  <time>2026-09-01T20:01:43Z</time>
  <course>263.7</course>
  <speed>22.788650684057625</speed>
  <fix>3d</fix>
</trkpt>
<trkpt lat="-27.2476781" lon="151.360585">
  <ele>536.06</ele>
  <time>2026-09-01T20:01:43Z</time>
  <course>263.76</course>
  <speed>22.61</speed>
  <fix>3d</fix>
</trkpt>
<trkpt lat="-27.2476871" lon="151.3604928">
  <ele>535.82</ele>
  <time>2026-09-01T20:01:43Z</time>
  <course>263.72</course>
  <speed>22.83944832958975</speed>
  <fix>3d</fix>
</trkpt>
<trkpt lat="-27.2476825" lon="151.3605395">
  <ele>535.94</ele>
  <time>2026-09-01T20:01:43Z</time>
  <course>263.69</course>
  <speed>22.73</speed>
  <fix>3d</fix>
</trkpt>
<trkpt lat="-27.2476894" lon="151.3604698">
  <ele>535.77</ele>
  <time>2026-09-01T20:01:43Z</time>
  <course>263.71</course>
  <speed>22.89024683134719</speed>
  <fix>3d</fix>
</trkpt>
<trkpt lat="-27.2476825" lon="151.3605395">
  <ele>535.94</ele>
  <time>2026-09-01T20:01:43Z</time>
  <course>263.69</course>
  <speed>22.73</speed>
  <fix>3d</fix>
</trkpt>
<trkpt lat="-27.2476917" lon="151.3604466">
  <ele>535.71</ele>
  <time>2026-09-01T20:01:43Z</time>
  <course>263.67</course>
  <speed>22.950984728329196</speed>
  <fix>3d</fix>
</trkpt>
<trkpt lat="-27.247687" lon="151.3604937">
  <ele>535.82</ele>
  <time>2026-09-01T20:01:43Z</time>
  <course>263.64</course>
  <speed>22.84</speed>
  <fix>3d</fix>
</trkpt>
<trkpt lat="-27.247694" lon="151.3604236">
  <ele>535.62</ele>
  <time>2026-09-01T20:01:43Z</time>
  <course>263.62</course>
  <speed>23.01283337618382</speed>
  <fix>3d</fix>
</trkpt>
<trkpt lat="-27.247687" lon="151.3604937">
  <ele>535.82</ele>
  <time>2026-09-01T20:01:43Z</time>
  <course>263.64</course>
  <speed>22.84</speed>
  <fix>3d</fix>
</trkpt>
<trkpt lat="-27.2476963" lon="151.3604004">
  <ele>535.5</ele>
  <time>2026-09-01T20:01:43Z</time>
  <course>263.61</course>
  <speed>23.09456429552201</speed>
  <fix>3d</fix>
</trkpt>
<trkpt lat="-27.2476915" lon="151.3604477">
  <ele>535.7</ele>
  <time>2026-09-01T20:01:43Z</time>
  <course>263.62</course>
  <speed>22.95</speed>
  <fix>3d</fix>
</trkpt>
<trkpt lat="-27.2476986" lon="151.3603771">
  <ele>535.37</ele>
  <time>2026-09-01T20:01:43Z</time>
  <course>263.63</course>
  <speed>23.176300395015595</speed>
  <fix>3d</fix>
</trkpt>
<trkpt lat="-27.2476915" lon="151.3604477">
  <ele>535.7</ele>
  <time>2026-09-01T20:01:43Z</time>
  <course>263.62</course>
  <speed>22.95</speed>
  <fix>3d</fix>
</trkpt>
<trkpt lat="-27.247701" lon="151.3603539">
  <ele>535.22</ele>
  <time>2026-09-01T20:01:43Z</time>
  <course>263.63</course>
  <speed>23.267977995519935</speed>
  <fix>3d</fix>
</trkpt>
<trkpt lat="-27.2476962" lon="151.3604015">
  <ele>535.5</ele>
  <time>2026-09-01T20:01:43Z</time>
  <course>263.57</course>
  <speed>23.09</speed>
  <fix>3d</fix>
</trkpt>
<trkpt lat="-27.2477034" lon="151.3603305">
  <ele>535.08</ele>
  <time>2026-09-01T20:01:43Z</time>
  <course>263.66</course>
  <speed>23.360791938630847</speed>
  <fix>3d</fix>
</trkpt>
<trkpt lat="-27.2476962" lon="151.3604015">
  <ele>535.5</ele>
  <time>2026-09-01T20:01:43Z</time>
  <course>263.57</course>
  <speed>23.09</speed>
  <fix>3d</fix>
</trkpt>
<trkpt lat="-27.2477057" lon="151.360307">
  <ele>534.95</ele>
  <time>2026-09-01T20:01:44Z</time>
  <course>263.64</course>
  <speed>23.462416755313164</speed>
  <fix>3d</fix>
</trkpt>
<trkpt lat="-27.2477008" lon="151.360355">
  <ele>535.23</ele>
  <time>2026-09-01T20:01:44Z</time>
  <course>263.51</course>
  <speed>23.26</speed>
  <fix>3d</fix>
</trkpt>
<trkpt lat="-27.2477082" lon="151.3602833">
  <ele>534.82</ele>
  <time>2026-09-01T20:01:44Z</time>
  <course>263.61</course>
  <speed>23.552970088717046</speed>
  <fix>3d</fix>
</trkpt>
<trkpt lat="-27.2477008" lon="151.360355">
  <ele>535.23</ele>
  <time>2026-09-01T20:01:44Z</time>
  <course>263.51</course>
  <speed>23.26</speed>
  <fix>3d</fix>
</trkpt>
<trkpt lat="-27.2477106" lon="151.3602597">
  <ele>534.7</ele>
  <time>2026-09-01T20:01:44Z</time>
  <course>263.58</course>
  <speed>23.644663245645937</speed>
  <fix>3d</fix>
</trkpt>
<trkpt lat="-27.2477056" lon="151.3603081">
  <ele>534.96</ele>
  <time>2026-09-01T20:01:44Z</time>
  <course>263.46</course>
  <speed>23.45</speed>
  <fix>3d</fix>
</trkpt>
<trkpt lat="-27.247713" lon="151.3602359">
  <ele>534.6</ele>
  <time>2026-09-01T20:01:44Z</time>
  <course>263.53</course>
  <speed>23.73521645150935</speed>
  <fix>3d</fix>
</trkpt>
<trkpt lat="-27.2477056" lon="151.3603081">
  <ele>534.96</ele>
  <time>2026-09-01T20:01:44Z</time>
  <course>263.46</course>
  <speed>23.45</speed>
  <fix>3d</fix>
</trkpt>
<trkpt lat="-27.2477154" lon="151.360212">
  <ele>534.51</ele>
  <time>2026-09-01T20:01:44Z</time>
  <course>263.46</course>
  <speed>23.81583506829017</speed>
  <fix>3d</fix>
</trkpt>
<trkpt lat="-27.2477104" lon="151.3602608">
  <ele>534.71</ele>
  <time>2026-09-01T20:01:44Z</time>
  <course>263.44</course>
  <speed>23.64</speed>
  <fix>3d</fix>
</trkpt>
<trkpt lat="-27.2477179" lon="151.360188">
  <ele>534.43</ele>
  <time>2026-09-01T20:01:44Z</time>
  <course>263.42</course>
  <speed>23.89759820567749</speed>
  <fix>3d</fix>
</trkpt>
<trkpt lat="-27.2477104" lon="151.3602608">
  <ele>534.71</ele>
  <time>2026-09-01T20:01:44Z</time>
  <course>263.44</course>
  <speed>23.64</speed>
  <fix>3d</fix>
</trkpt>
<trkpt lat="-27.2477204" lon="151.3601641">
  <ele>534.36</ele>
  <time>2026-09-01T20:01:44Z</time>
  <course>263.35</course>
  <speed>23.96943261739835</speed>
  <fix>3d</fix>
</trkpt>
<trkpt lat="-27.2477153" lon="151.3602131">
  <ele>534.51</ele>
  <time>2026-09-01T20:01:44Z</time>
  <course>263.41</course>
  <speed>23.81</speed>
  <fix>3d</fix>
</trkpt>
<trkpt lat="-27.2477229" lon="151.36014">
  <ele>534.29</ele>
  <time>2026-09-01T20:01:44Z</time>
  <course>263.3</course>
  <speed>24.041272844839146</speed>
  <fix>3d</fix>
</trkpt>
<trkpt lat="-27.2477153" lon="151.3602131">
  <ele>534.51</ele>
  <time>2026-09-01T20:01:44Z</time>
  <course>263.41</course>
  <speed>23.81</speed>
  <fix>3d</fix>
</trkpt>
<trkpt lat="-27.2477254" lon="151.3601158">
  <ele>534.26</ele>
  <time>2026-09-01T20:01:44Z</time>
  <course>263.33</course>
  <speed>24.1119596880884</speed>
  <fix>3d</fix>
</trkpt>
<trkpt lat="-27.2477203" lon="151.360165">
  <ele>534.37</ele>
  <time>2026-09-01T20:01:44Z</time>
  <course>263.38</course>
  <speed>23.97</speed>
  <fix>3d</fix>
</trkpt>
<trkpt lat="-27.2477279" lon="151.3600916">
  <ele>534.22</ele>
  <time>2026-09-01T20:01:44Z</time>
  <course>263.3</course>
  <speed>24.183806565551254</speed>
  <fix>3d</fix>
</trkpt>
<trkpt lat="-27.2477203" lon="151.360165">
  <ele>534.37</ele>
  <time>2026-09-01T20:01:44Z</time>
  <course>263.38</course>
  <speed>23.97</speed>
  <fix>3d</fix>
</trkpt>
<trkpt lat="-27.2477304" lon="151.3600673">
  <ele>534.18</ele>
  <time>2026-09-01T20:01:44Z</time>
  <course>263.35</course>
  <speed>24.244562276931298</speed>
  <fix>3d</fix>
</trkpt>
<trkpt lat="-27.2477253" lon="151.3601168">
  <ele>534.26</ele>
  <time>2026-09-01T20:01:44Z</time>
  <course>263.34</course>
  <speed>24.11</speed>
  <fix>3d</fix>
</trkpt>
<trkpt lat="-27.247733" lon="151.3600429">
  <ele>534.16</ele>
  <time>2026-09-01T20:01:44Z</time>
  <course>263.35</course>
  <speed>24.30531834804885</speed>
  <fix>3d</fix>
</trkpt>
<trkpt lat="-27.2477253" lon="151.3601168">
  <ele>534.26</ele>
  <time>2026-09-01T20:01:44Z</time>
  <course>263.34</course>
  <speed>24.11</speed>
  <fix>3d</fix>
</trkpt>
<trkpt lat="-27.2477355" lon="151.3600185">
  <ele>534.15</ele>
  <time>2026-09-01T20:01:44Z</time>
  <course>263.29</course>
  <speed>24.36607477621293</speed>
  <fix>3d</fix>
</trkpt>
<trkpt lat="-27.2477303" lon="151.3600683">
  <ele>534.18</ele>
  <time>2026-09-01T20:01:44Z</time>
  <course>263.3</course>
  <speed>24.24</speed>
  <fix>3d</fix>
</trkpt>
<trkpt lat="-27.2477381" lon="151.3599941">
  <ele>534.14</ele>
  <time>2026-09-01T20:01:44Z</time>
  <course>263.31</course>
  <speed>24.41573468073406</speed>
  <fix>3d</fix>
</trkpt>
<trkpt lat="-27.2477303" lon="151.3600683">
  <ele>534.18</ele>
  <time>2026-09-01T20:01:44Z</time>
  <course>263.3</course>
  <speed>24.24</speed>
  <fix>3d</fix>
</trkpt>
<trkpt lat="-27.2477406" lon="151.3599695">
  <ele>534.14</ele>
  <time>2026-09-01T20:01:44Z</time>
  <course>263.32</course>
  <speed>24.466558809934835</speed>
  <fix>3d</fix>
</trkpt>
<trkpt lat="-27.2477354" lon="151.3600195">
  <ele>534.15</ele>
  <time>2026-09-01T20:01:44Z</time>
  <course>263.29</course>
  <speed>24.36</speed>
  <fix>3d</fix>
</trkpt>
<trkpt lat="-27.2477432" lon="151.3599449">
  <ele>534.14</ele>
  <time>2026-09-01T20:01:44Z</time>
  <course>263.39</course>
  <speed>24.526151349121207</speed>
  <fix>3d</fix>
</trkpt>
<trkpt lat="-27.2477354" lon="151.3600195">
  <ele>534.15</ele>
  <time>2026-09-01T20:01:44Z</time>
  <course>263.29</course>
  <speed>24.36</speed>
  <fix>3d</fix>
</trkpt>
<trkpt lat="-27.2477457" lon="151.3599203">
  <ele>534.14</ele>
  <time>2026-09-01T20:01:44Z</time>
  <course>263.41</course>
  <speed>24.56588081058768</speed>
  <fix>3d</fix>
</trkpt>
<trkpt lat="-27.2477405" lon="151.3599705">
  <ele>534.14</ele>
  <time>2026-09-01T20:01:44Z</time>
  <course>263.3</course>
  <speed>24.47</speed>
  <fix>3d</fix>
</trkpt>
<trkpt lat="-27.2477483" lon="151.3598955">
  <ele>534.16</ele>
  <time>2026-09-01T20:01:44Z</time>
  <course>263.44</course>
  <speed>24.61438806876986</speed>
  <fix>3d</fix>
</trkpt>
<trkpt lat="-27.2477405" lon="151.3599705">
  <ele>534.14</ele>
  <time>2026-09-01T20:01:44Z</time>
  <course>263.3</course>
  <speed>24.47</speed>
  <fix>3d</fix>
</trkpt>
<trkpt lat="-27.2477509" lon="151.3598709">
  <ele>534.16</ele>
  <time>2026-09-01T20:01:44Z</time>
  <course>263.39</course>
  <speed>24.654121359318406</speed>
  <fix>3d</fix>
</trkpt>
<trkpt lat="-27.2477456" lon="151.3599213">
  <ele>534.15</ele>
  <time>2026-09-01T20:01:44Z</time>
  <course>263.33</course>
  <speed>24.57</speed>
  <fix>3d</fix>
</trkpt>
<trkpt lat="-27.2477533" lon="151.3598462">
  <ele>534.19</ele>
  <time>2026-09-01T20:01:44Z</time>
  <course>263.42</course>
  <speed>24.693855511037558</speed>
  <fix>3d</fix>
</trkpt>
<trkpt lat="-27.2477456" lon="151.3599213">
  <ele>534.15</ele>
  <time>2026-09-01T20:01:44Z</time>
  <course>263.33</course>
  <speed>24.57</speed>
  <fix>3d</fix>
</trkpt>
<trkpt lat="-27.247756" lon="151.3598213">
  <ele>534.21</ele>
  <time>2026-09-01T20:01:44Z</time>
  <course>263.4</course>
  <speed>24.733590519776943</speed>
  <fix>3d</fix>
</trkpt>
<trkpt lat="-27.2477507" lon="151.3598719">
  <ele>534.17</ele>
  <time>2026-09-01T20:01:44Z</time>
  <course>263.36</course>
  <speed>24.65</speed>
  <fix>3d</fix>
</trkpt>
<trkpt lat="-27.2477585" lon="151.3597964">
  <ele>534.23</ele>
  <time>2026-09-01T20:01:44Z</time>
  <course>263.42</course>
  <speed>24.763392336269277</speed>
  <fix>3d</fix>
</trkpt>
<trkpt lat="-27.2477507" lon="151.3598719">
  <ele>534.17</ele>
  <time>2026-09-01T20:01:44Z</time>
  <course>263.36</course>
  <speed>24.65</speed>
  <fix>3d</fix>
</trkpt>
<trkpt lat="-27.2477611" lon="151.3597714">
  <ele>534.26</ele>
  <time>2026-09-01T20:01:44Z</time>
  <course>263.43</course>
  <speed>24.79319463078528</speed>
  <fix>3d</fix>
</trkpt>
<trkpt lat="-27.2477558" lon="151.3598223">
  <ele>534.2</ele>
  <time>2026-09-01T20:01:44Z</time>
  <course>263.39</course>
  <speed>24.73</speed>
  <fix>3d</fix>
</trkpt>
<trkpt lat="-27.2477637" lon="151.3597465">
  <ele>534.29</ele>
  <time>2026-09-01T20:01:44Z</time>
  <course>263.45</course>
  <speed>24.831790108649034</speed>
  <fix>3d</fix>
</trkpt>
<trkpt lat="-27.2477558" lon="151.3598223">
  <ele>534.2</ele>
  <time>2026-09-01T20:01:44Z</time>
  <course>263.39</course>
  <speed>24.73</speed>
  <fix>3d</fix>
</trkpt>
<trkpt lat="-27.2477662" lon="151.3597216">
  <ele>534.33</ele>
  <time>2026-09-01T20:01:44Z</time>
  <course>263.46</course>
  <speed>24.84172498036318</speed>
  <fix>3d</fix>
</trkpt>
<trkpt lat="-27.2477609" lon="151.3597726">
  <ele>534.26</ele>
  <time>2026-09-01T20:01:44Z</time>
  <course>263.42</course>
  <speed>24.8</speed>
  <fix>3d</fix>
</trkpt>
<trkpt lat="-27.2477687" lon="151.3596967">
  <ele>534.37</ele>
  <time>2026-09-01T20:01:44Z</time>
  <course>263.49</course>
  <speed>24.809647317122426</speed>
  <fix>3d</fix>
</trkpt>
<trkpt lat="-27.2477609" lon="151.3597726">
  <ele>534.26</ele>
  <time>2026-09-01T20:01:44Z</time>
  <course>263.42</course>
  <speed>24.8</speed>
  <fix>3d</fix>
</trkpt>
<trkpt lat="-27.2477713" lon="151.3596718">
  <ele>534.41</ele>
  <time>2026-09-01T20:01:44Z</time>
  <course>263.51</course>
  <speed>24.71796310378345</speed>
  <fix>3d</fix>
</trkpt>
<trkpt lat="-27.247766" lon="151.3597228">
  <ele>534.32</ele>
  <time>2026-09-01T20:01:44Z</time>
  <course>263.45</course>
  <speed>24.82</speed>
  <fix>3d</fix>
</trkpt>
<trkpt lat="-27.2477738" lon="151.3596471">
  <ele>534.46</ele>
  <time>2026-09-01T20:01:44Z</time>
  <course>263.53</course>
  <speed>24.576600659977366</speed>
  <fix>3d</fix>
</trkpt>
<trkpt lat="-27.247766" lon="151.3597228">
  <ele>534.32</ele>
  <time>2026-09-01T20:01:44Z</time>
  <course>263.45</course>
  <speed>24.82</speed>
  <fix>3d</fix>
</trkpt>
<trkpt lat="-27.2477761" lon="151.3596225">
  <ele>534.5</ele>
  <time>2026-09-01T20:01:44Z</time>
  <course>263.54</course>
  <speed>24.374494866560827</speed>
  <fix>3d</fix>
</trkpt>
<trkpt lat="-27.2477711" lon="151.3596729">
  <ele>534.41</ele>
  <time>2026-09-01T20:01:44Z</time>
  <course>263.49</course>
  <speed>24.7</speed>
  <fix>3d</fix>
</trkpt>
<trkpt lat="-27.2477787" lon="151.3595982">
  <ele>534.54</ele>
  <time>2026-09-01T20:01:44Z</time>
  <course>263.53</course>
  <speed>24.12158576876736</speed>
  <fix>3d</fix>
</trkpt>
<trkpt lat="-27.2477711" lon="151.3596729">
  <ele>534.41</ele>
  <time>2026-09-01T20:01:44Z</time>
  <course>263.49</course>
  <speed>24.7</speed>
  <fix>3d</fix>
</trkpt>
<trkpt lat="-27.2477811" lon="151.3595741">
  <ele>534.57</ele>
  <time>2026-09-01T20:01:44Z</time>
  <course>263.54</course>
  <speed>23.81899452117994</speed>
  <fix>3d</fix>
</trkpt>
<trkpt lat="-27.2477761" lon="151.3596236">
  <ele>534.49</ele>
  <time>2026-09-01T20:01:44Z</time>
  <course>263.54</course>
  <speed>24.36</speed>
  <fix>3d</fix>
</trkpt>
<trkpt lat="-27.2477835" lon="151.3595504">
  <ele>534.59</ele>
  <time>2026-09-01T20:01:44Z</time>
  <course>263.55</course>
  <speed>23.49541657430232</speed>
  <fix>3d</fix>
</trkpt>
<trkpt lat="-27.2477761" lon="151.3596236">
  <ele>534.49</ele>
  <time>2026-09-01T20:01:44Z</time>
  <course>263.54</course>
  <speed>24.36</speed>
  <fix>3d</fix>
</trkpt>
<trkpt lat="-27.2477858" lon="151.3595269">
  <ele>534.59</ele>
  <time>2026-09-01T20:01:44Z</time>
  <course>263.56</course>
  <speed>23.19283078884507</speed>
  <fix>3d</fix>
</trkpt>
<trkpt lat="-27.247781" lon="151.3595752">
  <ele>534.56</ele>
  <time>2026-09-01T20:01:44Z</time>
  <course>263.58</course>
  <speed>23.82</speed>
  <fix>3d</fix>
</trkpt>
<trkpt lat="-27.2477881" lon="151.3595038">
  <ele>534.57</ele>
  <time>2026-09-01T20:01:44Z</time>
  <course>263.58</course>
  <speed>22.901292539941934</speed>
  <fix>3d</fix>
</trkpt>
<trkpt lat="-27.247781" lon="151.3595752">
  <ele>534.56</ele>
  <time>2026-09-01T20:01:44Z</time>
  <course>263.58</course>
  <speed>23.82</speed>
  <fix>3d</fix>
</trkpt>
<trkpt lat="-27.2477904" lon="151.3594809">
  <ele>534.51</ele>
  <time>2026-09-01T20:01:44Z</time>
  <course>263.59</course>
  <speed>22.618585278482826</speed>
  <fix>3d</fix>
</trkpt>
<trkpt lat="-27.2477857" lon="151.359528">
  <ele>534.58</ele>
  <time>2026-09-01T20:01:44Z</time>
  <course>263.61</course>
  <speed>23.21</speed>
  <fix>3d</fix>
</trkpt>
<trkpt lat="-27.2477926" lon="151.3594584">
  <ele>534.43</ele>
  <time>2026-09-01T20:01:44Z</time>
  <course>263.61</course>
  <speed>22.35686248112646</speed>
  <fix>3d</fix>
</trkpt>
<trkpt lat="-27.2477857" lon="151.359528">
  <ele>534.58</ele>
  <time>2026-09-01T20:01:44Z</time>
  <course>263.61</course>
  <speed>23.21</speed>
  <fix>3d</fix>
</trkpt>
<trkpt lat="-27.2477948" lon="151.359436">
  <ele>534.29</ele>
  <time>2026-09-01T20:01:44Z</time>
  <course>263.62</course>
  <speed>22.113916432870955</speed>
  <fix>3d</fix>
</trkpt>
<trkpt lat="-27.2477902" lon="151.359482">
  <ele>534.5</ele>
  <time>2026-09-01T20:01:44Z</time>
  <course>263.64</course>
  <speed>22.64</speed>
  <fix>3d</fix>
</trkpt>
<trkpt lat="-27.247797" lon="151.3594139">
  <ele>534.14</ele>
  <time>2026-09-01T20:01:44Z</time>
  <course>263.63</course>
  <speed>21.882013161498648</speed>
  <fix>3d</fix>
</trkpt>
<trkpt lat="-27.2477902" lon="151.359482">
  <ele>534.5</ele>
  <time>2026-09-01T20:01:44Z</time>
  <course>263.64</course>
  <speed>22.64</speed>
  <fix>3d</fix>
</trkpt>
<trkpt lat="-27.2477991" lon="151.359392">
  <ele>533.96</ele>
  <time>2026-09-01T20:01:44Z</time>
  <course>263.65</course>
  <speed>21.671086728634535</speed>
  <fix>3d</fix>
</trkpt>
<trkpt lat="-27.2477947" lon="151.359437">
  <ele>534.29</ele>
  <time>2026-09-01T20:01:44Z</time>
  <course>263.66</course>
  <speed>22.13</speed>
  <fix>3d</fix>
</trkpt>
<trkpt lat="-27.2478013" lon="151.3593704">
  <ele>533.75</ele>
  <time>2026-09-01T20:01:44Z</time>
  <course>263.66</course>
  <speed>21.4789431769815</speed>
  <fix>3d</fix>
</trkpt>
<trkpt lat="-27.2477947" lon="151.359437">
  <ele>534.29</ele>
  <time>2026-09-01T20:01:44Z</time>
  <course>263.66</course>
  <speed>22.13</speed>
  <fix>3d</fix>
</trkpt>
<trkpt lat="-27.2478034" lon="151.3593488">
  <ele>533.54</ele>
  <time>2026-09-01T20:01:44Z</time>
  <course>263.67</course>
  <speed>21.297835570780425</speed>
  <fix>3d</fix>
</trkpt>
<trkpt lat="-27.247799" lon="151.359393">
  <ele>533.95</ele>
  <time>2026-09-01T20:01:44Z</time>
  <course>263.69</course>
  <speed>21.69</speed>
  <fix>3d</fix>
</trkpt>
<trkpt lat="-27.2478055" lon="151.3593276">
  <ele>533.32</ele>
  <time>2026-09-01T20:01:44Z</time>
  <course>263.69</course>
  <speed>21.136608053327762</speed>
  <fix>3d</fix>
</trkpt>
<trkpt lat="-27.247799" lon="151.359393">
  <ele>533.95</ele>
  <time>2026-09-01T20:01:44Z</time>
  <course>263.69</course>
  <speed>21.69</speed>
  <fix>3d</fix>
</trkpt>
<trkpt lat="-27.2478075" lon="151.3593065">
  <ele>533.09</ele>
  <time>2026-09-01T20:01:44Z</time>
  <course>263.7</course>
  <speed>20.975380807031847</speed>
  <fix>3d</fix>
</trkpt>
<trkpt lat="-27.2478033" lon="151.3593498">
  <ele>533.54</ele>
  <time>2026-09-01T20:01:44Z</time>
  <course>263.71</course>
  <speed>21.31</speed>
  <fix>3d</fix>
</trkpt>
<trkpt lat="-27.2478096" lon="151.3592855">
  <ele>532.88</ele>
  <time>2026-09-01T20:01:44Z</time>
  <course>263.72</course>
  <speed>20.814153838193857</speed>
  <fix>3d</fix>
</trkpt>
<trkpt lat="-27.2478033" lon="151.3593498">
  <ele>533.54</ele>
  <time>2026-09-01T20:01:44Z</time>
  <course>263.71</course>
  <speed>21.31</speed>
  <fix>3d</fix>
</trkpt>
<trkpt lat="-27.2478116" lon="151.3592646">
  <ele>532.66</ele>
  <time>2026-09-01T20:01:44Z</time>
  <course>263.73</course>
  <speed>20.662867661580762</speed>
  <fix>3d</fix>
</trkpt>
<trkpt lat="-27.2478074" lon="151.3593074">
  <ele>533.11</ele>
  <time>2026-09-01T20:01:44Z</time>
  <course>263.72</course>
  <speed>20.98</speed>
  <fix>3d</fix>
</trkpt>
<trkpt lat="-27.2478136" lon="151.359244">
  <ele>532.46</ele>
  <time>2026-09-01T20:01:44Z</time>
  <course>263.73</course>
  <speed>20.50273152533584</speed>
  <fix>3d</fix>
</trkpt>
<trkpt lat="-27.2478074" lon="151.3593074">
  <ele>533.11</ele>
  <time>2026-09-01T20:01:44Z</time>
  <course>263.72</course>
  <speed>20.98</speed>
  <fix>3d</fix>
</trkpt>
<trkpt lat="-27.2478156" lon="151.3592234">
  <ele>532.26</ele>
  <time>2026-09-01T20:01:44Z</time>
  <course>263.73</course>
  <speed>20.351444666165595</speed>
  <fix>3d</fix>
</trkpt>
<trkpt lat="-27.2478115" lon="151.3592656">
  <ele>532.68</ele>
  <time>2026-09-01T20:01:44Z</time>
  <course>263.72</course>
  <speed>20.67</speed>
  <fix>3d</fix>
</trkpt>
<trkpt lat="-27.2478176" lon="151.3592031">
  <ele>532.07</ele>
  <time>2026-09-01T20:01:44Z</time>
  <course>263.73</course>
  <speed>20.20124996132665</speed>
  <fix>3d</fix>
</trkpt>
<trkpt lat="-27.2478115" lon="151.3592656">
  <ele>532.68</ele>
  <time>2026-09-01T20:01:44Z</time>
  <course>263.72</course>
  <speed>20.67</speed>
  <fix>3d</fix>
</trkpt>
<trkpt lat="-27.2478196" lon="151.3591828">
  <ele>531.89</ele>
  <time>2026-09-01T20:01:44Z</time>
  <course>263.72</course>
  <speed>20.049962593481315</speed>
  <fix>3d</fix>
</trkpt>
<trkpt lat="-27.2478155" lon="151.3592243">
  <ele>532.27</ele>
  <time>2026-09-01T20:01:44Z</time>
  <course>263.71</course>
  <speed>20.36</speed>
  <fix>3d</fix>
</trkpt>
<trkpt lat="-27.2478216" lon="151.3591626">
  <ele>531.7</ele>
  <time>2026-09-01T20:01:44Z</time>
  <course>263.72</course>
  <speed>19.89976884287855</speed>
  <fix>3d</fix>
</trkpt>
<trkpt lat="-27.2478155" lon="151.3592243">
  <ele>532.27</ele>
  <time>2026-09-01T20:01:44Z</time>
  <course>263.71</course>
  <speed>20.36</speed>
  <fix>3d</fix>
</trkpt>
<trkpt lat="-27.2478235" lon="151.3591428">
  <ele>531.53</ele>
  <time>2026-09-01T20:01:44Z</time>
  <course>263.72</course>
  <speed>19.748480954240506</speed>
  <fix>3d</fix>
</trkpt>
<trkpt lat="-27.2478195" lon="151.3591836">
  <ele>531.89</ele>
  <time>2026-09-01T20:01:44Z</time>
  <course>263.71</course>
  <speed>20.05</speed>
  <fix>3d</fix>
</trkpt>
<trkpt lat="-27.2478255" lon="151.3591231">
  <ele>531.35</ele>
  <time>2026-09-01T20:01:44Z</time>
  <course>263.72</course>
  <speed>19.597193676646665</speed>
  <fix>3d</fix>
</trkpt>
<trkpt lat="-27.2478195" lon="151.3591836">
  <ele>531.89</ele>
  <time>2026-09-01T20:01:44Z</time>
  <course>263.71</course>
  <speed>20.05</speed>
  <fix>3d</fix>
</trkpt>
<trkpt lat="-27.2478274" lon="151.3591033">
  <ele>531.18</ele>
  <time>2026-09-01T20:01:44Z</time>
  <course>263.71</course>
  <speed>19.456939636027037</speed>
  <fix>3d</fix>
</trkpt>
<trkpt lat="-27.2478234" lon="151.3591437">
  <ele>531.53</ele>
  <time>2026-09-01T20:01:44Z</time>
  <course>263.7</course>
  <speed>19.75</speed>
  <fix>3d</fix>
</trkpt>
<trkpt lat="-27.2478293" lon="151.359084">
  <ele>531.0</ele>
  <time>2026-09-01T20:01:44Z</time>
  <course>263.71</course>
  <speed>19.30674752515296</speed>
  <fix>3d</fix>
</trkpt>
<trkpt lat="-27.2478234" lon="151.3591437">
  <ele>531.53</ele>
  <time>2026-09-01T20:01:44Z</time>
  <course>263.7</course>
  <speed>19.75</speed>
  <fix>3d</fix>
</trkpt>
<trkpt lat="-27.2478312" lon="151.3590647">
  <ele>530.83</ele>
  <time>2026-09-01T20:01:44Z</time>
  <course>263.71</course>
  <speed>19.175338328175595</speed>
  <fix>3d</fix>
</trkpt>
<trkpt lat="-27.2478273" lon="151.3591043">
  <ele>531.18</ele>
  <time>2026-09-01T20:01:44Z</time>
  <course>263.7</course>
  <speed>19.46</speed>
  <fix>3d</fix>
</trkpt>
<trkpt lat="-27.2478331" lon="151.3590454">
  <ele>530.66</ele>
  <time>2026-09-01T20:01:44Z</time>
  <course>263.7</course>
  <speed>19.035086025547663</speed>
  <fix>3d</fix>
</trkpt>
<trkpt lat="-27.2478273" lon="151.3591043">
  <ele>531.18</ele>
  <time>2026-09-01T20:01:44Z</time>
  <course>263.7</course>
  <speed>19.46</speed>
  <fix>3d</fix>
</trkpt>
<trkpt lat="-27.247835" lon="151.3590264">
  <ele>530.49</ele>
  <time>2026-09-01T20:01:44Z</time>
  <course>263.7</course>
  <speed>18.90367689101779</speed>
  <fix>3d</fix>
</trkpt>
<trkpt lat="-27.2478311" lon="151.3590655">
  <ele>530.83</ele>
  <time>2026-09-01T20:01:44Z</time>
  <course>263.69</course>
  <speed>19.18</speed>
  <fix>3d</fix>
</trkpt>
<trkpt lat="-27.2478368" lon="151.3590075">
  <ele>530.32</ele>
  <time>2026-09-01T20:01:44Z</time>
  <course>263.7</course>
  <speed>18.77336410982326</speed>
  <fix>3d</fix>
</trkpt>
<trkpt lat="-27.2478311" lon="151.3590655">
  <ele>530.83</ele>
  <time>2026-09-01T20:01:44Z</time>
  <course>263.69</course>
  <speed>19.18</speed>
  <fix>3d</fix>
</trkpt>
<trkpt lat="-27.2478387" lon="151.3589887">
  <ele>530.14</ele>
  <time>2026-09-01T20:01:44Z</time>
  <course>263.69</course>
  <speed>18.64305232519611</speed>
  <fix>3d</fix>
</trkpt>
<trkpt lat="-27.2478348" lon="151.3590272">
  <ele>530.49</ele>
  <time>2026-09-01T20:01:44Z</time>
  <course>263.69</course>
  <speed>18.91</speed>
  <fix>3d</fix>
</trkpt>
<trkpt lat="-27.2478405" lon="151.3589701">
  <ele>529.97</ele>
  <time>2026-09-01T20:01:44Z</time>
  <course>263.69</course>
  <speed>18.521582005865483</speed>
  <fix>3d</fix>
</trkpt>
<trkpt lat="-27.2478348" lon="151.3590272">
  <ele>530.49</ele>
  <time>2026-09-01T20:01:44Z</time>
  <course>263.69</course>
  <speed>18.91</speed>
  <fix>3d</fix>
</trkpt>
<trkpt lat="-27.2478423" lon="151.3589515">
  <ele>529.79</ele>
  <time>2026-09-01T20:01:44Z</time>
  <course>263.69</course>
  <speed>18.40120919939774</speed>
  <fix>3d</fix>
</trkpt>
<trkpt lat="-27.2478385" lon="151.3589895">
  <ele>530.14</ele>
  <time>2026-09-01T20:01:44Z</time>
  <course>263.68</course>
  <speed>18.65</speed>
  <fix>3d</fix>
</trkpt>
<trkpt lat="-27.2478441" lon="151.3589331">
  <ele>529.62</ele>
  <time>2026-09-01T20:01:44Z</time>
  <course>263.69</course>
  <speed>18.280836961145955</speed>
  <fix>3d</fix>
</trkpt>
<trkpt lat="-27.2478385" lon="151.3589895">
  <ele>530.14</ele>
  <time>2026-09-01T20:01:44Z</time>
  <course>263.68</course>
  <speed>18.65</speed>
  <fix>3d</fix>
</trkpt>
<trkpt lat="-27.247846" lon="151.3589147">
  <ele>529.44</ele>
  <time>2026-09-01T20:01:44Z</time>
  <course>263.68</course>
  <speed>18.170404508430735</speed>
  <fix>3d</fix>
</trkpt>
<trkpt lat="-27.2478422" lon="151.3589523">
  <ele>529.79</ele>
  <time>2026-09-01T20:01:44Z</time>
  <course>263.67</course>
  <speed>18.41</speed>
  <fix>3d</fix>
</trkpt>
<trkpt lat="-27.2478477" lon="151.3588965">
  <ele>529.26</ele>
  <time>2026-09-01T20:01:44Z</time>
  <course>263.68</course>
  <speed>18.05997231448598</speed>
  <fix>3d</fix>
</trkpt>
<trkpt lat="-27.2478422" lon="151.3589523">
  <ele>529.79</ele>
  <time>2026-09-01T20:01:44Z</time>
  <course>263.67</course>
  <speed>18.41</speed>
  <fix>3d</fix>
</trkpt>
<trkpt lat="-27.2478495" lon="151.3588786">
  <ele>529.08</ele>
  <time>2026-09-01T20:01:44Z</time>
  <course>263.68</course>
  <speed>17.949540384087832</speed>
  <fix>3d</fix>
</trkpt>
<trkpt lat="-27.2478459" lon="151.3589156">
  <ele>529.44</ele>
  <time>2026-09-01T20:01:44Z</time>
  <course>263.67</course>
  <speed>18.17</speed>
  <fix>3d</fix>
</trkpt>
<trkpt lat="-27.2478513" lon="151.3588605">
  <ele>528.9</ele>
  <time>2026-09-01T20:01:44Z</time>
  <course>263.68</course>
  <speed>17.84794666061057</speed>
  <fix>3d</fix>
</trkpt>
<trkpt lat="-27.2478459" lon="151.3589156">
  <ele>529.44</ele>
  <time>2026-09-01T20:01:44Z</time>
  <course>263.67</course>
  <speed>18.17</speed>
  <fix>3d</fix>
</trkpt>
<trkpt lat="-27.2478531" lon="151.3588427">
  <ele>528.71</ele>
  <time>2026-09-01T20:01:44Z</time>
  <course>263.67</course>
  <speed>17.74745333843704</speed>
  <fix>3d</fix>
</trkpt>
<trkpt lat="-27.2478494" lon="151.3588793">
  <ele>529.08</ele>
  <time>2026-09-01T20:01:44Z</time>
  <course>263.66</course>
  <speed>17.96</speed>
  <fix>3d</fix>
</trkpt>
<trkpt lat="-27.2478548" lon="151.3588249">
  <ele>528.53</ele>
  <time>2026-09-01T20:01:44Z</time>
  <course>263.67</course>
  <speed>17.646960078155104</speed>
  <fix>3d</fix>
</trkpt>
<trkpt lat="-27.2478494" lon="151.3588793">
  <ele>529.08</ele>
  <time>2026-09-01T20:01:44Z</time>
  <course>263.66</course>
  <speed>17.96</speed>
  <fix>3d</fix>
</trkpt>
<trkpt lat="-27.2478566" lon="151.3588073">
  <ele>528.35</ele>
  <time>2026-09-01T20:01:44Z</time>
  <course>263.67</course>
  <speed>17.546466880828174</speed>
  <fix>3d</fix>
</trkpt>
<trkpt lat="-27.247853" lon="151.3588434">
  <ele>528.72</ele>
  <time>2026-09-01T20:01:44Z</time>
  <course>263.66</course>
  <speed>17.75</speed>
  <fix>3d</fix>
</trkpt>
<trkpt lat="-27.2478583" lon="151.3587897">
  <ele>528.16</ele>
  <time>2026-09-01T20:01:44Z</time>
  <course>263.67</course>
  <speed>17.45591303828018</speed>
  <fix>3d</fix>
</trkpt>
<trkpt lat="-27.247853" lon="151.3588434">
  <ele>528.72</ele>
  <time>2026-09-01T20:01:44Z</time>
  <course>263.66</course>
  <speed>17.75</speed>
  <fix>3d</fix>
</trkpt>
<trkpt lat="-27.24786" lon="151.3587722">
  <ele>527.97</ele>
  <time>2026-09-01T20:01:44Z</time>
  <course>263.66</course>
  <speed>17.36535919582431</speed>
  <fix>3d</fix>
</trkpt>
<trkpt lat="-27.2478565" lon="151.3588078">
  <ele>528.35</ele>
  <time>2026-09-01T20:01:44Z</time>
  <course>263.65</course>
  <speed>17.55</speed>
  <fix>3d</fix>
</trkpt>
<trkpt lat="-27.2478617" lon="151.3587547">
  <ele>527.78</ele>
  <time>2026-09-01T20:01:44Z</time>
  <course>263.66</course>
  <speed>17.27590808032967</speed>
  <fix>3d</fix>
</trkpt>
<trkpt lat="-27.2478565" lon="151.3588078">
  <ele>528.35</ele>
  <time>2026-09-01T20:01:44Z</time>
  <course>263.65</course>
  <speed>17.55</speed>
  <fix>3d</fix>
</trkpt>
<trkpt lat="-27.2478635" lon="151.3587375">
  <ele>527.6</ele>
  <time>2026-09-01T20:01:44Z</time>
  <course>263.66</course>
  <speed>17.195292960574996</speed>
  <fix>3d</fix>
</trkpt>
<trkpt lat="-27.2478599" lon="151.3587728">
  <ele>527.98</ele>
  <time>2026-09-01T20:01:44Z</time>
  <course>263.65</course>
  <speed>17.37</speed>
  <fix>3d</fix>
</trkpt>
<trkpt lat="-27.2478652" lon="151.3587202">
  <ele>527.41</ele>
  <time>2026-09-01T20:01:44Z</time>
  <course>263.66</course>
  <speed>17.104739109381352</speed>
  <fix>3d</fix>
</trkpt>
<trkpt lat="-27.2478599" lon="151.3587728">
  <ele>527.98</ele>
  <time>2026-09-01T20:01:44Z</time>
  <course>263.65</course>
  <speed>17.37</speed>
  <fix>3d</fix>
</trkpt>
<trkpt lat="-27.2478669" lon="151.3587031">
  <ele>527.22</ele>
  <time>2026-09-01T20:01:44Z</time>
  <course>263.65</course>
  <speed>17.02412405969834</speed>
  <fix>3d</fix>
</trkpt>
<trkpt lat="-27.2478634" lon="151.3587381">
  <ele>527.6</ele>
  <time>2026-09-01T20:01:44Z</time>
  <course>263.64</course>
  <speed>17.19</speed>
  <fix>3d</fix>
</trkpt>
<trkpt lat="-27.2478685" lon="151.3586861">
  <ele>527.02</ele>
  <time>2026-09-01T20:01:44Z</time>
  <course>263.65</course>
  <speed>16.9435090816513</speed>
  <fix>3d</fix>
</trkpt>
<trkpt lat="-27.2478634" lon="151.3587381">
  <ele>527.6</ele>
  <time>2026-09-01T20:01:44Z</time>
  <course>263.64</course>
  <speed>17.19</speed>
  <fix>3d</fix>
</trkpt>
<trkpt lat="-27.2478702" lon="151.358669">
  <ele>526.83</ele>
  <time>2026-09-01T20:01:44Z</time>
  <course>263.65</course>
  <speed>16.87283319422082</speed>
  <fix>3d</fix>
</trkpt>
<trkpt lat="-27.2478668" lon="151.3587038">
  <ele>527.22</ele>
  <time>2026-09-01T20:01:44Z</time>
  <course>263.64</course>
  <speed>17.03</speed>
  <fix>3d</fix>
</trkpt>
<trkpt lat="-27.2460683" lon="151.3627661">
  <ele>542.98</ele>
  <time>2026-09-01T20:01:44Z</time>
  <course>250.0</course>
  <speed>0.0</speed>
  <fix>3d</fix>
</trkpt>
<trkpt lat="-27.2478668" lon="151.3587038">
  <ele>527.22</ele>
  <time>2026-09-01T20:01:44Z</time>
  <course>263.64</course>
  <speed>17.03</speed>
  <fix>3d</fix>
</trkpt>
<trkpt lat="-27.2460683" lon="151.3627661">
  <ele>542.87</ele>
  <time>2026-09-01T20:01:44Z</time>
  <course>250.0</course>
  <speed>0.0632455532033676</speed>
  <fix>3d</fix>
</trkpt>
<trkpt lat="-27.2469684" lon="151.3607264">
  <ele>535.0</ele>
  <time>2026-09-01T20:01:44Z</time>
  <course>263.63</course>
  <speed>8.48</speed>
  <fix>3d</fix>
</trkpt>
<trkpt lat="-27.2460683" lon="151.362766">
  <ele>542.66</ele>
  <time>2026-09-01T20:01:44Z</time>
  <course>249.99</course>
  <speed>0.20248456731316586</speed>
  <fix>3d</fix>
</trkpt>
<trkpt lat="-27.2469684" lon="151.3607264">
  <ele>535.0</ele>
  <time>2026-09-01T20:01:44Z</time>
  <course>263.63</course>
  <speed>8.48</speed>
  <fix>3d</fix>
</trkpt>
<trkpt lat="-27.2460684" lon="151.3627656">
  <ele>542.37</ele>
  <time>2026-09-01T20:01:44Z</time>
  <course>250.37</course>
  <speed>0.4301162633521314</speed>
  <fix>3d</fix>
</trkpt>
<trkpt lat="-27.2460683" lon="151.362766">
  <ele>542.82</ele>
  <time>2026-09-01T20:01:44Z</time>
  <course>249.47</course>
  <speed>0.1</speed>
  <fix>3d</fix>
</trkpt>
<trkpt lat="-27.2460685" lon="151.3627651">
  <ele>541.99</ele>
  <time>2026-09-01T20:01:44Z</time>
  <course>253.26</course>
  <speed>0.7382411530116699</speed>
  <fix>3d</fix>
</trkpt>
<trkpt lat="-27.2460683" lon="151.362766">
  <ele>542.82</ele>
  <time>2026-09-01T20:01:44Z</time>
  <course>249.47</course>
  <speed>0.1</speed>
  <fix>3d</fix>
</trkpt>
<trkpt lat="-27.2460686" lon="151.3627641">
  <ele>541.54</ele>
  <time>2026-09-01T20:01:44Z</time>
  <course>262.6</course>
  <speed>1.0907336980216573</speed>
  <fix>3d</fix>
</trkpt>
<trkpt lat="-27.2460684" lon="151.3627656">
  <ele>542.33</ele>
  <time>2026-09-01T20:01:44Z</time>
  <course>258.56</course>
  <speed>0.46</speed>
  <fix>3d</fix>
</trkpt>
<trkpt lat="-27.2460687" lon="151.3627631">
  <ele>541.02</ele>
  <time>2026-09-01T20:01:44Z</time>
  <course>263.45</course>
  <speed>1.5061540425866142</speed>
  <fix>3d</fix>
</trkpt>
<trkpt lat="-27.2460684" lon="151.3627656">
  <ele>542.33</ele>
  <time>2026-09-01T20:01:44Z</time>
  <course>258.56</course>
  <speed>0.46</speed>
  <fix>3d</fix>
</trkpt>
<trkpt lat="-27.24607" lon="151.3627616">
  <ele>540.45</ele>
  <time>2026-09-01T20:01:44Z</time>
  <course>252.03</course>
  <speed>2.860629301395062</speed>
  <fix>3d</fix>
</trkpt>
<trkpt lat="-27.2460686" lon="151.3627641">
  <ele>541.53</ele>
  <time>2026-09-01T20:01:44Z</time>
  <course>253.09</course>
  <speed>1.09</speed>
  <fix>3d</fix>
</trkpt>
<trkpt lat="-27.246073" lon="151.3627602">
  <ele>539.9</ele>
  <time>2026-09-01T20:01:44Z</time>
  <course>243.9</course>
  <speed>4.386490624633774</speed>
  <fix>3d</fix>
</trkpt>
<trkpt lat="-27.2460686" lon="151.3627641">
  <ele>541.53</ele>
  <time>2026-09-01T20:01:44Z</time>
  <course>253.09</course>
  <speed>1.09</speed>
  <fix>3d</fix>
</trkpt>
<trkpt lat="-27.2460774" lon="151.3627589">
  <ele>539.4</ele>
  <time>2026-09-01T20:01:44Z</time>
  <course>238.02</course>
  <speed>5.690140595802533</speed>
  <fix>3d</fix>
</trkpt>
<trkpt lat="-27.2460708" lon="151.3627616">
  <ele>540.48</ele>
  <time>2026-09-01T20:01:44Z</time>
  <course>210.37</course>
  <speed>2.69</speed>
  <fix>3d</fix>
</trkpt>
<trkpt lat="-27.2460829" lon="151.3627577">
  <ele>538.98</ele>
  <time>2026-09-01T20:01:44Z</time>
  <course>233.4</course>
  <speed>6.733297854692008</speed>
  <fix>3d</fix>
</trkpt>
<trkpt lat="-27.2460708" lon="151.3627616">
  <ele>540.48</ele>
  <time>2026-09-01T20:01:44Z</time>
  <course>210.37</course>
  <speed>2.69</speed>
  <fix>3d</fix>
</trkpt>
<trkpt lat="-27.2460892" lon="151.3627563">
  <ele>538.66</ele>
  <time>2026-09-01T20:01:44Z</time>
  <course>229.82</course>
  <speed>7.498353152526226</speed>
  <fix>3d</fix>
</trkpt>
<trkpt lat="-27.2460778" lon="151.3627589">
  <ele>539.45</ele>
  <time>2026-09-01T20:01:44Z</time>
  <course>193.5</course>
  <speed>5.5</speed>
  <fix>3d</fix>
</trkpt>
<trkpt lat="-27.246096" lon="151.3627543">
  <ele>538.48</ele>
  <time>2026-09-01T20:01:44Z</time>
  <course>227.2</course>
  <speed>7.949144608069474</speed>
  <fix>3d</fix>
</trkpt>
<trkpt lat="-27.2460778" lon="151.3627589">
  <ele>539.45</ele>
  <time>2026-09-01T20:01:44Z</time>
  <course>193.5</course>
  <speed>5.5</speed>
  <fix>3d</fix>
</trkpt>
<trkpt lat="-27.2461028" lon="151.3627515">
  <ele>538.39</ele>
  <time>2026-09-01T20:01:44Z</time>
  <course>225.8</course>
  <speed>8.248854465924344</speed>
  <fix>3d</fix>
</trkpt>
<trkpt lat="-27.2460892" lon="151.362756">
  <ele>538.74</ele>
  <time>2026-09-01T20:01:44Z</time>
  <course>193.97</course>
  <speed>7.31</speed>
  <fix>3d</fix>
</trkpt>
<trkpt lat="-27.2461095" lon="151.3627476">
  <ele>538.35</ele>
  <time>2026-09-01T20:01:44Z</time>
  <course>225.6</course>
  <speed>8.551420934558186</speed>
  <fix>3d</fix>
</trkpt>
<trkpt lat="-27.2460892" lon="151.362756">
  <ele>538.74</ele>
  <time>2026-09-01T20:01:44Z</time>
  <course>193.97</course>
  <speed>7.31</speed>
  <fix>3d</fix>
</trkpt>
<trkpt lat="-27.2461161" lon="151.3627426">
  <ele>538.33</ele>
  <time>2026-09-01T20:01:44Z</time>
  <course>226.53</course>
  <speed>8.932032243560252</speed>
  <fix>3d</fix>
</trkpt>
<trkpt lat="-27.2461025" lon="151.3627511">
  <ele>538.42</ele>
  <time>2026-09-01T20:01:44Z</time>
  <course>203.74</course>
  <speed>8.19</speed>
  <fix>3d</fix>
</trkpt>
<trkpt lat="-27.2461224" lon="151.3627368">
  <ele>538.29</ele>
  <time>2026-09-01T20:01:44Z</time>
  <course>228.62</course>
  <speed>9.37908844184764</speed>
  <fix>3d</fix>
</trkpt>
<trkpt lat="-27.2461025" lon="151.3627511">
  <ele>538.42</ele>
  <time>2026-09-01T20:01:44Z</time>
  <course>203.74</course>
  <speed>8.19</speed>
  <fix>3d</fix>
</trkpt>
<trkpt lat="-27.2461285" lon="151.36273">
  <ele>538.26</ele>
  <time>2026-09-01T20:01:44Z</time>
  <course>231.61</course>
  <speed>9.866194808536877</speed>
  <fix>3d</fix>
</trkpt>
<trkpt lat="-27.2461157" lon="151.3627424">
  <ele>538.32</ele>
  <time>2026-09-01T20:01:44Z</time>
  <course>216.43</course>
  <speed>8.9</speed>
  <fix>3d</fix>
</trkpt>
<trkpt lat="-27.2461344" lon="151.3627221">
  <ele>538.21</ele>
  <time>2026-09-01T20:01:44Z</time>
  <course>235.07</course>
  <speed>10.383491705587288</speed>
  <fix>3d</fix>
</trkpt>
<trkpt lat="-27.2461157" lon="151.3627424">
  <ele>538.32</ele>
  <time>2026-09-01T20:01:44Z</time>
  <course>216.43</course>
  <speed>8.9</speed>
  <fix>3d</fix>
</trkpt>
<trkpt lat="-27.2461399" lon="151.3627134">
  <ele>538.13</ele>
  <time>2026-09-01T20:01:44Z</time>
  <course>238.62</course>
  <speed>10.913853581572369</speed>
  <fix>3d</fix>
</trkpt>
<trkpt lat="-27.2461282" lon="151.3627297">
  <ele>538.25</ele>
  <time>2026-09-01T20:01:44Z</time>
  <course>227.34</course>
  <speed>9.83</speed>
  <fix>3d</fix>
</trkpt>
<trkpt lat="-27.2461451" lon="151.3627037">
  <ele>538.04</ele>
  <time>2026-09-01T20:01:44Z</time>
  <course>242.01</course>
  <speed>11.45251500763042</speed>
  <fix>3d</fix>
</trkpt>
<trkpt lat="-27.2461282" lon="151.3627297">
  <ele>538.25</ele>
  <time>2026-09-01T20:01:44Z</time>
  <course>227.34</course>
  <speed>9.83</speed>
  <fix>3d</fix>
</trkpt>
<trkpt lat="-27.24615" lon="151.3626932">
  <ele>537.93</ele>
  <time>2026-09-01T20:01:44Z</time>
  <course>245.02</course>
  <speed>12.001170776220127</speed>
  <fix>3d</fix>
</trkpt>
<trkpt lat="-27.2461396" lon="151.3627132">
  <ele>538.12</ele>
  <time>2026-09-01T20:01:44Z</time>
  <course>236.5</course>
  <speed>10.87</speed>
  <fix>3d</fix>
</trkpt>
<trkpt lat="-27.2461544" lon="151.3626818">
  <ele>537.81</ele>
  <time>2026-09-01T20:01:44Z</time>
  <course>247.78</course>
  <speed>12.54559683713772</speed>
  <fix>3d</fix>
</trkpt>
<trkpt lat="-27.2461396" lon="151.3627132">
  <ele>538.12</ele>
  <time>2026-09-01T20:01:44Z</time>
  <course>236.5</course>
  <speed>10.87</speed>
  <fix>3d</fix>
</trkpt>
<trkpt lat="-27.2461584" lon="151.3626697">
  <ele>537.68</ele>
  <time>2026-09-01T20:01:44Z</time>
  <course>250.18</course>
  <speed>13.098251791746867</speed>
  <fix>3d</fix>
</trkpt>
<trkpt lat="-27.2461496" lon="151.3626931">
  <ele>537.92</ele>
  <time>2026-09-01T20:01:44Z</time>
  <course>244.44</course>
  <speed>11.96</speed>
  <fix>3d</fix>
</trkpt>
<trkpt lat="-27.2461619" lon="151.3626568">
  <ele>537.56</ele>
  <time>2026-09-01T20:01:44Z</time>
  <course>252.23</course>
  <speed>13.638658291782225</speed>
  <fix>3d</fix>
</trkpt>
<trkpt lat="-27.2461496" lon="151.3626931">
  <ele>537.92</ele>
  <time>2026-09-01T20:01:44Z</time>
  <course>244.44</course>
  <speed>11.96</speed>
  <fix>3d</fix>
</trkpt>
<trkpt lat="-27.246165" lon="151.3626431">
  <ele>537.44</ele>
  <time>2026-09-01T20:01:44Z</time>
  <course>254.16</course>
  <speed>14.16841910729634</speed>
  <fix>3d</fix>
</trkpt>
<trkpt lat="-27.246158" lon="151.3626697">
  <ele>537.68</ele>
  <time>2026-09-01T20:01:44Z</time>
  <course>251.2</course>
  <speed>13.06</speed>
  <fix>3d</fix>
</trkpt>
<trkpt lat="-27.2461677" lon="151.3626289">
  <ele>537.32</ele>
  <time>2026-09-01T20:01:44Z</time>
  <course>256.03</course>
  <speed>14.689703877205966</speed>
  <fix>3d</fix>
</trkpt>
<trkpt lat="-27.246158" lon="151.3626697">
  <ele>537.68</ele>
  <time>2026-09-01T20:01:44Z</time>
  <course>251.2</course>
  <speed>13.06</speed>
  <fix>3d</fix>
</trkpt>
<trkpt lat="-27.24617" lon="151.3626139">
  <ele>537.22</ele>
  <time>2026-09-01T20:01:44Z</time>
  <course>257.81</course>
  <speed>15.199648022240515</speed>
  <fix>3d</fix>
</trkpt>
<trkpt lat="-27.2461647" lon="151.3626433">
  <ele>537.44</ele>
  <time>2026-09-01T20:01:44Z</time>
  <course>256.74</course>
  <speed>14.13</speed>
  <fix>3d</fix>
</trkpt>
<trkpt lat="-27.2461719" lon="151.3625984">
  <ele>537.13</ele>
  <time>2026-09-01T20:01:44Z</time>
  <course>259.54</course>
  <speed>15.70901015341196</speed>
  <fix>3d</fix>
</trkpt>
<trkpt lat="-27.2461647" lon="151.3626433">
  <ele>537.44</ele>
  <time>2026-09-01T20:01:44Z</time>
  <course>256.74</course>
  <speed>14.13</speed>
  <fix>3d</fix>
</trkpt>
<trkpt lat="-27.2461735" lon="151.3625823">
  <ele>537.04</ele>
  <time>2026-09-01T20:01:44Z</time>
  <course>261.14</course>
  <speed>16.18535449102058</speed>
  <fix>3d</fix>
</trkpt>
<trkpt lat="-27.2461697" lon="151.3626142">
  <ele>537.23</ele>
  <time>2026-09-01T20:01:44Z</time>
  <course>261.04</course>
  <speed>15.17</speed>
  <fix>3d</fix>
</trkpt>
<trkpt lat="-27.2461747" lon="151.3625659">
  <ele>536.99</ele>
  <time>2026-09-01T20:01:44Z</time>
  <course>262.45</course>
  <speed>16.654744068883197</speed>
  <fix>3d</fix>
</trkpt>
<trkpt lat="-27.2461697" lon="151.3626142">
  <ele>537.23</ele>
  <time>2026-09-01T20:01:44Z</time>
  <course>261.04</course>
  <speed>15.17</speed>
  <fix>3d</fix>
</trkpt>
<trkpt lat="-27.2461757" lon="151.3625487">
  <ele>536.94</ele>
  <time>2026-09-01T20:01:44Z</time>
  <course>263.71</course>
  <speed>17.10475957153447</speed>
  <fix>3d</fix>
</trkpt>
<trkpt lat="-27.2461732" lon="151.3625828">
  <ele>537.06</ele>
  <time>2026-09-01T20:01:44Z</time>
  <course>264.32</course>
  <speed>16.16</speed>
  <fix>3d</fix>
</trkpt>
<trkpt lat="-27.2461764" lon="151.3625314">
  <ele>536.9</ele>
  <time>2026-09-01T20:01:44Z</time>
  <course>264.74</course>
  <speed>17.552039767502805</speed>
  <fix>3d</fix>
</trkpt>
<trkpt lat="-27.2461732" lon="151.3625828">
  <ele>537.06</ele>
  <time>2026-09-01T20:01:44Z</time>
  <course>264.32</course>
  <speed>16.16</speed>
  <fix>3d</fix>
</trkpt>
<trkpt lat="-27.2461769" lon="151.3625133">
  <ele>536.88</ele>
  <time>2026-09-01T20:01:44Z</time>
  <course>265.66</course>
  <speed>17.9746766313055</speed>
  <fix>3d</fix>
</trkpt>
<trkpt lat="-27.2461755" lon="151.3625492">
  <ele>536.94</ele>
  <time>2026-09-01T20:01:44Z</time>
  <course>266.8</course>
  <speed>17.08</speed>
  <fix>3d</fix>
</trkpt>
<trkpt lat="-27.2461772" lon="151.362495">
  <ele>536.88</ele>
  <time>2026-09-01T20:01:44Z</time>
  <course>266.59</course>
  <speed>18.381199634409068</speed>
  <fix>3d</fix>
</trkpt>
<trkpt lat="-27.2461755" lon="151.3625492">
  <ele>536.94</ele>
  <time>2026-09-01T20:01:44Z</time>
  <course>266.8</course>
  <speed>17.08</speed>
  <fix>3d</fix>
</trkpt>
<trkpt lat="-27.2461773" lon="151.3624763">
  <ele>536.89</ele>
  <time>2026-09-01T20:01:44Z</time>
  <course>267.37</course>
  <speed>18.780023961646055</speed>
  <fix>3d</fix>
</trkpt>
<trkpt lat="-27.2461768" lon="151.3625137">
  <ele>536.89</ele>
  <time>2026-09-01T20:01:44Z</time>
  <course>268.59</course>
  <speed>17.95</speed>
  <fix>3d</fix>
</trkpt>
<trkpt lat="-27.2461773" lon="151.3624571">
  <ele>536.91</ele>
  <time>2026-09-01T20:01:44Z</time>
  <course>268.07</course>
  <speed>19.160315759402298</speed>
  <fix>3d</fix>
</trkpt>
<trkpt lat="-27.2461768" lon="151.3625137">
  <ele>536.89</ele>
  <time>2026-09-01T20:01:44Z</time>
  <course>268.59</course>
  <speed>17.95</speed>
  <fix>3d</fix>
</trkpt>
<trkpt lat="-27.2461772" lon="151.3624376">
  <ele>536.95</ele>
  <time>2026-09-01T20:01:44Z</time>
  <course>268.59</course>
  <speed>19.521354973464316</speed>
  <fix>3d</fix>
</trkpt>
<trkpt lat="-27.2461772" lon="151.3624767">
  <ele>536.89</ele>
  <time>2026-09-01T20:01:44Z</time>
  <course>269.83</course>
  <speed>18.76</speed>
  <fix>3d</fix>
</trkpt>
<trkpt lat="-27.2461769" lon="151.3624176">
  <ele>537.01</ele>
  <time>2026-09-01T20:01:44Z</time>
  <course>269.02</course>
  <speed>19.87274012309324</speed>
  <fix>3d</fix>
</trkpt>
<trkpt lat="-27.2461772" lon="151.3624767">
  <ele>536.89</ele>
  <time>2026-09-01T20:01:44Z</time>
  <course>269.83</course>
  <speed>18.76</speed>
  <fix>3d</fix>
</trkpt>
<trkpt lat="-27.2461766" lon="151.3623974">
  <ele>537.08</ele>
  <time>2026-09-01T20:01:44Z</time>
  <course>269.56</course>
  <speed>20.204160462637393</speed>
  <fix>3d</fix>
</trkpt>
<trkpt lat="-27.2461771" lon="151.362438">
  <ele>536.95</ele>
  <time>2026-09-01T20:01:44Z</time>
  <course>270.65</course>
  <speed>19.5</speed>
  <fix>3d</fix>
</trkpt>
<trkpt lat="-27.2461762" lon="151.3623768">
  <ele>537.15</ele>
  <time>2026-09-01T20:01:44Z</time>
  <course>270.08</course>
  <speed>20.52584955610851</speed>
  <fix>3d</fix>
</trkpt>
<trkpt lat="-27.2461771" lon="151.362438">
  <ele>536.95</ele>
  <time>2026-09-01T20:01:44Z</time>
  <course>270.65</course>
  <speed>19.5</speed>
  <fix>3d</fix>
</trkpt>
<trkpt lat="-27.2461757" lon="151.362356">
  <ele>537.23</ele>
  <time>2026-09-01T20:01:44Z</time>
  <course>270.46</course>
  <speed>20.807537095965973</speed>
  <fix>3d</fix>
</trkpt>
<trkpt lat="-27.2461765" lon="151.3623979">
  <ele>537.08</ele>
  <time>2026-09-01T20:01:44Z</time>
  <course>271.17</course>
  <speed>20.19</speed>
  <fix>3d</fix>
</trkpt>
<trkpt lat="-27.2461751" lon="151.3623347">
  <ele>537.29</ele>
  <time>2026-09-01T20:01:44Z</time>
  <course>270.78</course>
  <speed>21.05912866193661</speed>
  <fix>3d</fix>
</trkpt>
<trkpt lat="-27.2461765" lon="151.3623979">
  <ele>537.08</ele>
  <time>2026-09-01T20:01:44Z</time>
  <course>271.17</course>
  <speed>20.19</speed>
  <fix>3d</fix>
</trkpt>
<trkpt lat="-27.2461746" lon="151.3623135">
  <ele>537.38</ele>
  <time>2026-09-01T20:01:44Z</time>
  <course>271.1</course>
  <speed>21.28086699361659</speed>
  <fix>3d</fix>
</trkpt>
<trkpt lat="-27.2461757" lon="151.3623564">
  <ele>537.22</ele>
  <time>2026-09-01T20:01:44Z</time>
  <course>271.54</course>
  <speed>20.78</speed>
  <fix>3d</fix>
</trkpt>
<trkpt lat="-27.2461739" lon="151.3622919">
  <ele>537.44</ele>
  <time>2026-09-01T20:01:44Z</time>
  <course>271.31</course>
  <speed>21.4724125332949</speed>
  <fix>3d</fix>
</trkpt>
<trkpt lat="-27.2461757" lon="151.3623564">
  <ele>537.22</ele>
  <time>2026-09-01T20:01:44Z</time>
  <course>271.54</course>
  <speed>20.78</speed>
  <fix>3d</fix>
</trkpt>
<trkpt lat="-27.2461732" lon="151.3622701">
  <ele>537.48</ele>
  <time>2026-09-01T20:01:44Z</time>
  <course>271.43</course>
  <speed>21.634065729769794</speed>
  <fix>3d</fix>
</trkpt>
<trkpt lat="-27.2461745" lon="151.362314">
  <ele>537.36</ele>
  <time>2026-09-01T20:01:44Z</time>
  <course>271.82</course>
  <speed>21.26</speed>
  <fix>3d</fix>
</trkpt>
<trkpt lat="-27.2461725" lon="151.3622481">
  <ele>537.52</ele>
  <time>2026-09-01T20:01:44Z</time>
  <course>271.48</course>
  <speed>21.76545198244227</speed>
  <fix>3d</fix>
</trkpt>
<trkpt lat="-27.2461745" lon="151.362314">
  <ele>537.36</ele>
  <time>2026-09-01T20:01:44Z</time>
  <course>271.82</course>
  <speed>21.26</speed>
  <fix>3d</fix>
</trkpt>
<trkpt lat="-27.2461718" lon="151.3622261">
  <ele>537.53</ele>
  <time>2026-09-01T20:01:44Z</time>
  <course>271.58</course>
  <speed>21.8761331135098</speed>
  <fix>3d</fix>
</trkpt>
<trkpt lat="-27.2461732" lon="151.3622707">
  <ele>537.47</ele>
  <time>2026-09-01T20:01:44Z</time>
  <course>272.06</course>
  <speed>21.62</speed>
  <fix>3d</fix>
</trkpt>
<trkpt lat="-27.246171" lon="151.362204">
  <ele>537.54</ele>
  <time>2026-09-01T20:01:44Z</time>
  <course>271.68</course>
  <speed>21.947250397259335</speed>
  <fix>3d</fix>
</trkpt>
<trkpt lat="-27.2461732" lon="151.3622707">
  <ele>537.47</ele>
  <time>2026-09-01T20:01:44Z</time>
  <course>272.06</course>
  <speed>21.62</speed>
  <fix>3d</fix>
</trkpt>
<trkpt lat="-27.2461702" lon="151.3621818">
  <ele>537.52</ele>
  <time>2026-09-01T20:01:44Z</time>
  <course>271.71</course>
  <speed>22.008003089785316</speed>
  <fix>3d</fix>
</trkpt>
<trkpt lat="-27.2461717" lon="151.3622268">
  <ele>537.52</ele>
  <time>2026-09-01T20:01:44Z</time>
  <course>272.21</course>
  <speed>21.86</speed>
  <fix>3d</fix>
</trkpt>
<trkpt lat="-27.2461694" lon="151.3621595">
  <ele>537.5</ele>
  <time>2026-09-01T20:01:44Z</time>
  <course>271.82</course>
  <speed>22.04837635745544</speed>
  <fix>3d</fix>
</trkpt>
<trkpt lat="-27.2461717" lon="151.3622268">
  <ele>537.52</ele>
  <time>2026-09-01T20:01:44Z</time>
  <course>272.21</course>
  <speed>21.86</speed>
  <fix>3d</fix>
</trkpt>
<trkpt lat="-27.2461686" lon="151.3621373">
  <ele>537.46</ele>
  <time>2026-09-01T20:01:44Z</time>
  <course>271.91</course>
  <speed>22.06876978900274</speed>
  <fix>3d</fix>
</trkpt>
<trkpt lat="-27.2461702" lon="151.3621825">
  <ele>537.52</ele>
  <time>2026-09-01T20:01:44Z</time>
  <course>272.3</course>
  <speed>22.0</speed>
  <fix>3d</fix>
</trkpt>
<trkpt lat="-27.2461678" lon="151.362115">
  <ele>537.41</ele>
  <time>2026-09-01T20:01:44Z</time>
  <course>271.98</course>
  <speed>22.089167028206383</speed>
  <fix>3d</fix>
</trkpt>
<trkpt lat="-27.2461702" lon="151.3621825">
  <ele>537.52</ele>
  <time>2026-09-01T20:01:44Z</time>
  <course>272.3</course>
  <speed>22.0</speed>
  <fix>3d</fix>
</trkpt>
<trkpt lat="-27.2461669" lon="151.3620927">
  <ele>537.35</ele>
  <time>2026-09-01T20:01:44Z</time>
  <course>272.08</course>
  <speed>22.10956806452808</speed>
  <fix>3d</fix>
</trkpt>
<trkpt lat="-27.2461686" lon="151.362138">
  <ele>537.45</ele>
  <time>2026-09-01T20:01:44Z</time>
  <course>272.36</course>
  <speed>22.07</speed>
  <fix>3d</fix>
</trkpt>
<trkpt lat="-27.2461661" lon="151.3620704">
  <ele>537.29</ele>
  <time>2026-09-01T20:01:44Z</time>
  <course>272.16</course>
  <speed>22.129550379526467</speed>
  <fix>3d</fix>
</trkpt>
<trkpt lat="-27.2461686" lon="151.362138">
  <ele>537.45</ele>
  <time>2026-09-01T20:01:44Z</time>
  <course>272.36</course>
  <speed>22.07</speed>
  <fix>3d</fix>
</trkpt>
<trkpt lat="-27.2461652" lon="151.362048">
  <ele>537.22</ele>
  <time>2026-09-01T20:01:44Z</time>
  <course>272.14</course>
  <speed>22.159945848309285</speed>
  <fix>3d</fix>
</trkpt>
<trkpt lat="-27.2461669" lon="151.3620934">
  <ele>537.35</ele>
  <time>2026-09-01T20:01:44Z</time>
  <course>272.41</course>
  <speed>22.11</speed>
  <fix>3d</fix>
</trkpt>
<trkpt lat="-27.2461644" lon="151.3620254">
  <ele>537.15</ele>
  <time>2026-09-01T20:01:44Z</time>
  <course>272.2</course>
  <speed>22.17992786282228</speed>
  <fix>3d</fix>
</trkpt>
<trkpt lat="-27.2461669" lon="151.3620934">
  <ele>537.35</ele>
  <time>2026-09-01T20:01:44Z</time>
  <course>272.41</course>
  <speed>22.11</speed>
  <fix>3d</fix>
</trkpt>
<trkpt lat="-27.2461635" lon="151.362003">
  <ele>537.08</ele>
  <time>2026-09-01T20:01:44Z</time>
  <course>272.26</course>
  <speed>22.209479957891855</speed>
  <fix>3d</fix>
</trkpt>
<trkpt lat="-27.2461652" lon="151.3620486">
  <ele>537.22</ele>
  <time>2026-09-01T20:01:44Z</time>
  <course>272.42</course>
  <speed>22.16</speed>
  <fix>3d</fix>
</trkpt>
<trkpt lat="-27.2461627" lon="151.3619807">
  <ele>537.01</ele>
  <time>2026-09-01T20:01:44Z</time>
  <course>272.25</course>
  <speed>22.22946243164688</speed>
  <fix>3d</fix>
</trkpt>
<trkpt lat="-27.2461652" lon="151.3620486">
  <ele>537.22</ele>
  <time>2026-09-01T20:01:44Z</time>
  <course>272.42</course>
  <speed>22.16</speed>
  <fix>3d</fix>
</trkpt>
<trkpt lat="-27.2461619" lon="151.3619582">
  <ele>536.94</ele>
  <time>2026-09-01T20:01:44Z</time>
  <course>272.2</course>
  <speed>22.2490291923041</speed>
  <fix>3d</fix>
</trkpt>
<trkpt lat="-27.2461635" lon="151.3620038">
  <ele>537.08</ele>
  <time>2026-09-01T20:01:44Z</time>
  <course>272.42</course>
  <speed>22.2</speed>
  <fix>3d</fix>
</trkpt>
<trkpt lat="-27.246161" lon="151.3619358">
  <ele>536.87</ele>
  <time>2026-09-01T20:01:44Z</time>
  <course>272.16</course>
  <speed>22.26860121336767</speed>
  <fix>3d</fix>
</trkpt>
<trkpt lat="-27.2461635" lon="151.3620038">
  <ele>537.08</ele>
  <time>2026-09-01T20:01:44Z</time>
  <course>272.42</course>
  <speed>22.2</speed>
  <fix>3d</fix>
</trkpt>
<trkpt lat="-27.2461602" lon="151.3619133">
  <ele>536.81</ele>
  <time>2026-09-01T20:01:44Z</time>
  <course>272.17</course>
  <speed>22.288178480979553</speed>
  <fix>3d</fix>
</trkpt>
<trkpt lat="-27.2461619" lon="151.3619589">
  <ele>536.94</ele>
  <time>2026-09-01T20:01:44Z</time>
  <course>272.38</course>
  <speed>22.25</speed>
  <fix>3d</fix>
</trkpt>
<trkpt lat="-27.2461594" lon="151.3618908">
  <ele>536.75</ele>
  <time>2026-09-01T20:01:44Z</time>
  <course>272.17</course>
  <speed>22.29737204246276</speed>
  <fix>3d</fix>
</trkpt>
<trkpt lat="-27.2461619" lon="151.3619589">
  <ele>536.94</ele>
  <time>2026-09-01T20:01:44Z</time>
  <course>272.38</course>
  <speed>22.25</speed>
  <fix>3d</fix>
</trkpt>
<trkpt lat="-27.2461586" lon="151.3618683">
  <ele>536.7</ele>
  <time>2026-09-01T20:01:44Z</time>
  <course>272.15</course>
  <speed>22.306972004286013</speed>
  <fix>3d</fix>
</trkpt>
<trkpt lat="-27.2461602" lon="151.3619139">
  <ele>536.81</ele>
  <time>2026-09-01T20:01:44Z</time>
  <course>272.31</course>
  <speed>22.28</speed>
  <fix>3d</fix>
</trkpt>
<trkpt lat="-27.2461578" lon="151.3618457">
  <ele>536.65</ele>
  <time>2026-09-01T20:01:44Z</time>
  <course>272.17</course>
  <speed>22.32618641864302</speed>
  <fix>3d</fix>
</trkpt>
<trkpt lat="-27.2461602" lon="151.3619139">
  <ele>536.81</ele>
  <time>2026-09-01T20:01:44Z</time>
  <course>272.31</course>
  <speed>22.28</speed>
  <fix>3d</fix>
</trkpt>
<trkpt lat="-27.2461571" lon="151.3618232">
  <ele>536.6</ele>
  <time>2026-09-01T20:01:44Z</time>
  <course>272.17</course>
  <speed>22.33580085871111</speed>
  <fix>3d</fix>
</trkpt>
<trkpt lat="-27.2461586" lon="151.3618689">
  <ele>536.7</ele>
  <time>2026-09-01T20:01:44Z</time>
  <course>272.24</course>
  <speed>22.31</speed>
  <fix>3d</fix>
</trkpt>
<trkpt lat="-27.2461563" lon="151.3618005">
  <ele>536.54</ele>
  <time>2026-09-01T20:01:44Z</time>
  <course>272.13</course>
  <speed>22.345420112407822</speed>
  <fix>3d</fix>
</trkpt>
<trkpt lat="-27.2461586" lon="151.3618689">
  <ele>536.7</ele>
  <time>2026-09-01T20:01:44Z</time>
  <course>272.24</course>
  <speed>22.31</speed>
  <fix>3d</fix>
</trkpt>
<trkpt lat="-27.2461556" lon="151.361778">
  <ele>536.5</ele>
  <time>2026-09-01T20:01:44Z</time>
  <course>272.07</course>
  <speed>22.354679599582724</speed>
  <fix>3d</fix>
</trkpt>
<trkpt lat="-27.2461571" lon="151.3618239">
  <ele>536.6</ele>
  <time>2026-09-01T20:01:44Z</time>
  <course>272.16</course>
  <speed>22.34</speed>
  <fix>3d</fix>
</trkpt>
<trkpt lat="-27.2461549" lon="151.3617554">
  <ele>536.45</ele>
  <time>2026-09-01T20:01:44Z</time>
  <course>271.99</course>
  <speed>22.363957610405187</speed>
  <fix>3d</fix>
</trkpt>
<trkpt lat="-27.2461571" lon="151.3618239">
  <ele>536.6</ele>
  <time>2026-09-01T20:01:44Z</time>
  <course>272.16</course>
  <speed>22.34</speed>
  <fix>3d</fix>
</trkpt>
<trkpt lat="-27.2461542" lon="151.3617329">
  <ele>536.4</ele>
  <time>2026-09-01T20:01:44Z</time>
  <course>271.92</course>
  <speed>22.38324820038414</speed>
  <fix>3d</fix>
</trkpt>
<trkpt lat="-27.2461556" lon="151.3617788">
  <ele>536.5</ele>
  <time>2026-09-01T20:01:44Z</time>
  <course>272.08</course>
  <speed>22.36</speed>
  <fix>3d</fix>
</trkpt>
<trkpt lat="-27.2461535" lon="151.3617103">
  <ele>536.35</ele>
  <time>2026-09-01T20:01:44Z</time>
  <course>271.9</course>
  <speed>22.40255788966965</speed>
  <fix>3d</fix>
</trkpt>
<trkpt lat="-27.2461556" lon="151.3617788">
  <ele>536.5</ele>
  <time>2026-09-01T20:01:44Z</time>
  <course>272.08</course>
  <speed>22.36</speed>
  <fix>3d</fix>
</trkpt>
<trkpt lat="-27.2461528" lon="151.3616877">
  <ele>536.29</ele>
  <time>2026-09-01T20:01:44Z</time>
  <course>271.9</course>
  <speed>22.421886628916845</speed>
  <fix>3d</fix>
</trkpt>
<trkpt lat="-27.2461542" lon="151.3617335">
  <ele>536.4</ele>
  <time>2026-09-01T20:01:44Z</time>
  <course>271.98</course>
  <speed>22.38</speed>
  <fix>3d</fix>
</trkpt>
<trkpt lat="-27.2461522" lon="151.3616649">
  <ele>536.24</ele>
  <time>2026-09-01T20:01:44Z</time>
  <course>271.89</course>
  <speed>22.451229365003602</speed>
  <fix>3d</fix>
</trkpt>
<trkpt lat="-27.2461542" lon="151.3617335">
  <ele>536.4</ele>
  <time>2026-09-01T20:01:44Z</time>
  <course>271.98</course>
  <speed>22.38</speed>
  <fix>3d</fix>
</trkpt>
<trkpt lat="-27.2461515" lon="151.3616423">
  <ele>536.18</ele>
  <time>2026-09-01T20:01:44Z</time>
  <course>271.78</course>
  <speed>22.48059162922542</speed>
  <fix>3d</fix>
</trkpt>
<trkpt lat="-27.2461528" lon="151.3616884">
  <ele>536.29</ele>
  <time>2026-09-01T20:01:44Z</time>
  <course>271.87</course>
  <speed>22.42</speed>
  <fix>3d</fix>
</trkpt>
<trkpt lat="-27.2461509" lon="151.3616195">
  <ele>536.12</ele>
  <time>2026-09-01T20:01:44Z</time>
  <course>271.72</course>
  <speed>22.4999777777668</speed>
  <fix>3d</fix>
</trkpt>
<trkpt lat="-27.2461528" lon="151.3616884">
  <ele>536.29</ele>
  <time>2026-09-01T20:01:44Z</time>
  <course>271.87</course>
  <speed>22.42</speed>
  <fix>3d</fix>
</trkpt>
<trkpt lat="-27.2461503" lon="151.3615969">
  <ele>536.06</ele>
  <time>2026-09-01T20:01:44Z</time>
  <course>271.66</course>
  <speed>22.539374436749572</speed>
  <fix>3d</fix>
</trkpt>
<trkpt lat="-27.2461515" lon="151.361643">
  <ele>536.18</ele>
  <time>2026-09-01T20:01:44Z</time>
  <course>271.77</course>
  <speed>22.48</speed>
  <fix>3d</fix>
</trkpt>
<trkpt lat="-27.2461497" lon="151.361574">
  <ele>535.99</ele>
  <time>2026-09-01T20:01:44Z</time>
  <course>271.61</course>
  <speed>22.57851412294441</speed>
  <fix>3d</fix>
</trkpt>
<trkpt lat="-27.2461515" lon="151.361643">
  <ele>536.18</ele>
  <time>2026-09-01T20:01:44Z</time>
  <course>271.77</course>
  <speed>22.48</speed>
  <fix>3d</fix>
</trkpt>
<trkpt lat="-27.2461492" lon="151.3615513">
  <ele>535.93</ele>
  <time>2026-09-01T20:01:44Z</time>
  <course>271.61</course>
  <speed>22.61822716306475</speed>
  <fix>3d</fix>
</trkpt>
<trkpt lat="-27.2461503" lon="151.3615974">
  <ele>536.06</ele>
  <time>2026-09-01T20:01:44Z</time>
  <course>271.65</course>
  <speed>22.54</speed>
  <fix>3d</fix>
</trkpt>
<trkpt lat="-27.2461486" lon="151.3615275">
  <ele>535.86</ele>
  <time>2026-09-01T20:01:44Z</time>
  <course>271.63</course>
  <speed>22.667679634228115</speed>
  <fix>3d</fix>
</trkpt>
<trkpt lat="-27.2461503" lon="151.3615974">
  <ele>536.06</ele>
  <time>2026-09-01T20:01:44Z</time>
  <course>271.65</course>
  <speed>22.54</speed>
  <fix>3d</fix>
</trkpt>
<trkpt lat="-27.2461481" lon="151.3615046">
  <ele>535.79</ele>
  <time>2026-09-01T20:01:44Z</time>
  <course>271.59</course>
  <speed>22.707408482695687</speed>
  <fix>3d</fix>
</trkpt>
<trkpt lat="-27.2461492" lon="151.3615518">
  <ele>535.93</ele>
  <time>2026-09-01T20:01:44Z</time>
  <course>271.55</course>
  <speed>22.62</speed>
  <fix>3d</fix>
</trkpt>
<trkpt lat="-27.2461476" lon="151.3614818">
  <ele>535.72</ele>
  <time>2026-09-01T20:01:44Z</time>
  <course>271.56</course>
  <speed>22.75689126396661</speed>
  <fix>3d</fix>
</trkpt>
<trkpt lat="-27.2461492" lon="151.3615518">
  <ele>535.93</ele>
  <time>2026-09-01T20:01:44Z</time>
  <course>271.55</course>
  <speed>22.62</speed>
  <fix>3d</fix>
</trkpt>
<trkpt lat="-27.2461471" lon="151.3614586">
  <ele>535.65</ele>
  <time>2026-09-01T20:01:44Z</time>
  <course>271.52</course>
  <speed>22.806632807146258</speed>
  <fix>3d</fix>
</trkpt>
<trkpt lat="-27.2461481" lon="151.361506">
  <ele>535.79</ele>
  <time>2026-09-01T20:01:44Z</time>
  <course>271.46</course>
  <speed>22.71</speed>
  <fix>3d</fix>
</trkpt>
<trkpt lat="-27.2461466" lon="151.3614356">
  <ele>535.58</ele>
  <time>2026-09-01T20:01:44Z</time>
  <course>271.43</course>
  <speed>22.856379853336353</speed>
  <fix>3d</fix>
</trkpt>
<trkpt lat="-27.2461481" lon="151.361506">
  <ele>535.79</ele>
  <time>2026-09-01T20:01:44Z</time>
  <course>271.46</course>
  <speed>22.71</speed>
  <fix>3d</fix>
</trkpt>
<trkpt lat="-27.2461461" lon="151.3614131">
  <ele>535.51</ele>
  <time>2026-09-01T20:01:44Z</time>
  <course>271.36</course>
  <speed>22.9159005932562</speed>
  <fix>3d</fix>
</trkpt>
<trkpt lat="-27.2461471" lon="151.36146">
  <ele>535.65</ele>
  <time>2026-09-01T20:01:44Z</time>
  <course>271.4</course>
  <speed>22.81</speed>
  <fix>3d</fix>
</trkpt>
<trkpt lat="-27.2461457" lon="151.36139">
  <ele>535.44</ele>
  <time>2026-09-01T20:01:44Z</time>
  <course>271.34</course>
  <speed>22.9656635001038</speed>
  <fix>3d</fix>
</trkpt>
<trkpt lat="-27.2461471" lon="151.36146">
  <ele>535.65</ele>
  <time>2026-09-01T20:01:44Z</time>
  <course>271.4</course>
  <speed>22.81</speed>
  <fix>3d</fix>
</trkpt>
<trkpt lat="-27.2461452" lon="151.3613667">
  <ele>535.38</ele>
  <time>2026-09-01T20:01:44Z</time>
  <course>271.37</course>
  <speed>23.015431779569116</speed>
  <fix>3d</fix>
</trkpt>
<trkpt lat="-27.2461461" lon="151.3614139">
  <ele>535.51</ele>
  <time>2026-09-01T20:01:44Z</time>
  <course>271.32</course>
  <speed>22.91</speed>
  <fix>3d</fix>
</trkpt>
<trkpt lat="-27.2461447" lon="151.3613435">
  <ele>535.31</ele>
  <time>2026-09-01T20:01:44Z</time>
  <course>271.29</course>
  <speed>23.065205396874315</speed>
  <fix>3d</fix>
</trkpt>
<trkpt lat="-27.2461461" lon="151.3614139">
  <ele>535.51</ele>
  <time>2026-09-01T20:01:44Z</time>
  <course>271.32</course>
  <speed>22.91</speed>
  <fix>3d</fix>
</trkpt>
<trkpt lat="-27.2461443" lon="151.3613202">
  <ele>535.25</ele>
  <time>2026-09-01T20:01:44Z</time>
  <course>271.25</course>
  <speed>23.124982162155284</speed>
  <fix>3d</fix>
</trkpt>
<trkpt lat="-27.2461452" lon="151.3613675">
  <ele>535.38</ele>
  <time>2026-09-01T20:01:44Z</time>
  <course>271.26</course>
  <speed>23.02</speed>
  <fix>3d</fix>
</trkpt>
<trkpt lat="-27.2461439" lon="151.3612968">
  <ele>535.19</ele>
  <time>2026-09-01T20:01:44Z</time>
  <course>271.21</course>
  <speed>23.184764393885914</speed>
  <fix>3d</fix>
</trkpt>
<trkpt lat="-27.2461452" lon="151.3613675">
  <ele>535.38</ele>
  <time>2026-09-01T20:01:44Z</time>
  <course>271.26</course>
  <speed>23.02</speed>
  <fix>3d</fix>
</trkpt>
<trkpt lat="-27.2461435" lon="151.3612733">
  <ele>535.13</ele>
  <time>2026-09-01T20:01:44Z</time>
  <course>271.21</course>
  <speed>23.244552049889027</speed>
  <fix>3d</fix>
</trkpt>
<trkpt lat="-27.2461443" lon="151.3613209">
  <ele>535.26</ele>
  <time>2026-09-01T20:01:44Z</time>
  <course>271.2</course>
  <speed>23.13</speed>
  <fix>3d</fix>
</trkpt>
<trkpt lat="-27.246143" lon="151.3612498">
  <ele>535.04</ele>
  <time>2026-09-01T20:01:44Z</time>
  <course>271.19</course>
  <speed>23.304345088416454</speed>
  <fix>3d</fix>
</trkpt>
<trkpt lat="-27.2461443" lon="151.3613209">
  <ele>535.26</ele>
  <time>2026-09-01T20:01:44Z</time>
  <course>271.2</course>
  <speed>23.13</speed>
  <fix>3d</fix>
</trkpt>
<trkpt lat="-27.2461426" lon="151.3612262">
  <ele>534.91</ele>
  <time>2026-09-01T20:01:44Z</time>
  <course>271.18</course>
  <speed>23.374332076018774</speed>
  <fix>3d</fix>
</trkpt>
<trkpt lat="-27.2461434" lon="151.361274">
  <ele>535.12</ele>
  <time>2026-09-01T20:01:44Z</time>
  <course>271.14</course>
  <speed>23.24</speed>
  <fix>3d</fix>
</trkpt>
<trkpt lat="-27.2461422" lon="151.3612025">
  <ele>534.77</ele>
  <time>2026-09-01T20:01:44Z</time>
  <course>271.13</course>
  <speed>23.463940419290193</speed>
  <fix>3d</fix>
</trkpt>
<trkpt lat="-27.2461434" lon="151.361274">
  <ele>535.12</ele>
  <time>2026-09-01T20:01:44Z</time>
  <course>271.14</course>
  <speed>23.24</speed>
  <fix>3d</fix>
</trkpt>
<trkpt lat="-27.2461418" lon="151.3611788">
  <ele>534.62</ele>
  <time>2026-09-01T20:01:44Z</time>
  <course>271.1</course>
  <speed>23.553744925170605</speed>
  <fix>3d</fix>
</trkpt>
<trkpt lat="-27.2461426" lon="151.3612269">
  <ele>534.9</ele>
  <time>2026-09-01T20:01:44Z</time>
  <course>271.09</course>
  <speed>23.38</speed>
  <fix>3d</fix>
</trkpt>
<trkpt lat="-27.2461415" lon="151.361155">
  <ele>534.48</ele>
  <time>2026-09-01T20:01:44Z</time>
  <course>271.04</course>
  <speed>23.643383852570683</speed>
  <fix>3d</fix>
</trkpt>
<trkpt lat="-27.2461426" lon="151.3612269">
  <ele>534.9</ele>
  <time>2026-09-01T20:01:44Z</time>
  <course>271.09</course>
  <speed>23.38</speed>
  <fix>3d</fix>
</trkpt>
<trkpt lat="-27.2461411" lon="151.3611311">
  <ele>534.34</ele>
  <time>2026-09-01T20:01:44Z</time>
  <course>270.96</course>
  <speed>23.733204587665778</speed>
  <fix>3d</fix>
</trkpt>
<trkpt lat="-27.2461418" lon="151.3611795">
  <ele>534.62</ele>
  <time>2026-09-01T20:01:44Z</time>
  <course>271.03</course>
  <speed>23.55</speed>
  <fix>3d</fix>
</trkpt>
<trkpt lat="-27.2461408" lon="151.3611071">
  <ele>534.22</ele>
  <time>2026-09-01T20:01:44Z</time>
  <course>270.89</course>
  <speed>23.8228734622841</speed>
  <fix>3d</fix>
</trkpt>
<trkpt lat="-27.2461418" lon="151.3611795">
  <ele>534.62</ele>
  <time>2026-09-01T20:01:44Z</time>
  <course>271.03</course>
  <speed>23.55</speed>
  <fix>3d</fix>
</trkpt>
<trkpt lat="-27.2461404" lon="151.3610828">
  <ele>534.1</ele>
  <time>2026-09-01T20:01:44Z</time>
  <course>270.84</course>
  <speed>23.91271000953259</speed>
  <fix>3d</fix>
</trkpt>
<trkpt lat="-27.2461411" lon="151.3611316">
  <ele>534.35</ele>
  <time>2026-09-01T20:01:44Z</time>
  <course>270.94</course>
  <speed>23.73</speed>
  <fix>3d</fix>
</trkpt>
<trkpt lat="-27.2461401" lon="151.3610587">
  <ele>534.0</ele>
  <time>2026-09-01T20:01:44Z</time>
  <course>270.78</course>
  <speed>24.002408212510677</speed>
  <fix>3d</fix>
</trkpt>
<trkpt lat="-27.2461411" lon="151.3611316">
  <ele>534.35</ele>
  <time>2026-09-01T20:01:44Z</time>
  <course>270.94</course>
  <speed>23.73</speed>
  <fix>3d</fix>
</trkpt>
<trkpt lat="-27.2461398" lon="151.3610335">
  <ele>533.91</ele>
  <time>2026-09-01T20:01:44Z</time>
  <course>270.78</course>
  <speed>24.082261106465893</speed>
  <fix>3d</fix>
</trkpt>
<trkpt lat="-27.2461404" lon="151.3610835">
  <ele>534.11</ele>
  <time>2026-09-01T20:01:44Z</time>
  <course>270.86</course>
  <speed>23.91</speed>
  <fix>3d</fix>
</trkpt>
<trkpt lat="-27.2461395" lon="151.3610093">
  <ele>533.83</ele>
  <time>2026-09-01T20:01:44Z</time>
  <course>270.81</course>
  <speed>24.16211911236264</speed>
  <fix>3d</fix>
</trkpt>
<trkpt lat="-27.2461404" lon="151.3610835">
  <ele>534.11</ele>
  <time>2026-09-01T20:01:44Z</time>
  <course>270.86</course>
  <speed>23.91</speed>
  <fix>3d</fix>
</trkpt>
<trkpt lat="-27.2461392" lon="151.3609847">
  <ele>533.77</ele>
  <time>2026-09-01T20:01:44Z</time>
  <course>270.8</course>
  <speed>24.232112990822735</speed>
  <fix>3d</fix>
</trkpt>
<trkpt lat="-27.2461398" lon="151.3610349">
  <ele>533.91</ele>
  <time>2026-09-01T20:01:44Z</time>
  <course>270.8</course>
  <speed>24.08</speed>
  <fix>3d</fix>
</trkpt>
<trkpt lat="-27.2461389" lon="151.3609602">
  <ele>533.72</ele>
  <time>2026-09-01T20:01:44Z</time>
  <course>270.79</course>
  <speed>24.302106904546363</speed>
  <fix>3d</fix>
</trkpt>
<trkpt lat="-27.2461398" lon="151.3610349">
  <ele>533.91</ele>
  <time>2026-09-01T20:01:44Z</time>
  <course>270.8</course>
  <speed>24.08</speed>
  <fix>3d</fix>
</trkpt>
<trkpt lat="-27.2461386" lon="151.3609357">
  <ele>533.66</ele>
  <time>2026-09-01T20:01:44Z</time>
  <course>270.75</course>
  <speed>24.37197160674532</speed>
  <fix>3d</fix>
</trkpt>
<trkpt lat="-27.2461392" lon="151.3609862">
  <ele>533.77</ele>
  <time>2026-09-01T20:01:44Z</time>
  <course>270.76</course>
  <speed>24.23</speed>
  <fix>3d</fix>
</trkpt>
<trkpt lat="-27.2461383" lon="151.360911">
  <ele>533.64</ele>
  <time>2026-09-01T20:01:44Z</time>
  <course>270.73</course>
  <speed>24.431966764875888</speed>
  <fix>3d</fix>
</trkpt>
<trkpt lat="-27.2461392" lon="151.3609862">
  <ele>533.77</ele>
  <time>2026-09-01T20:01:44Z</time>
  <course>270.76</course>
  <speed>24.23</speed>
  <fix>3d</fix>
</trkpt>
<trkpt lat="-27.2461381" lon="151.3608864">
  <ele>533.62</ele>
  <time>2026-09-01T20:01:44Z</time>
  <course>270.81</course>
  <speed>24.491961946728566</speed>
  <fix>3d</fix>
</trkpt>
<trkpt lat="-27.2461386" lon="151.3609371">
  <ele>533.68</ele>
  <time>2026-09-01T20:01:44Z</time>
  <course>270.74</course>
  <speed>24.36</speed>
  <fix>3d</fix>
</trkpt>
<trkpt lat="-27.2461378" lon="151.3608616">
  <ele>533.6</ele>
  <time>2026-09-01T20:01:44Z</time>
  <course>270.84</course>
  <speed>24.55195715212944</speed>
  <fix>3d</fix>
</trkpt>
<trkpt lat="-27.2461386" lon="151.3609371">
  <ele>533.68</ele>
  <time>2026-09-01T20:01:44Z</time>
  <course>270.74</course>
  <speed>24.36</speed>
  <fix>3d</fix>
</trkpt>
<trkpt lat="-27.2461375" lon="151.3608367">
  <ele>533.59</ele>
  <time>2026-09-01T20:01:44Z</time>
  <course>270.87</course>
  <speed>24.61208036716929</speed>
  <fix>3d</fix>
</trkpt>
<trkpt lat="-27.2461381" lon="151.3608878">
  <ele>533.62</ele>
  <time>2026-09-01T20:01:44Z</time>
  <course>270.74</course>
  <speed>24.49</speed>
  <fix>3d</fix>
</trkpt>
<trkpt lat="-27.2461372" lon="151.3608118">
  <ele>533.58</ele>
  <time>2026-09-01T20:01:44Z</time>
  <course>270.82</course>
  <speed>24.66220793035368</speed>
  <fix>3d</fix>
</trkpt>
<trkpt lat="-27.2461381" lon="151.3608878">
  <ele>533.62</ele>
  <time>2026-09-01T20:01:44Z</time>
  <course>270.74</course>
  <speed>24.49</speed>
  <fix>3d</fix>
</trkpt>
<trkpt lat="-27.2461369" lon="151.3607869">
  <ele>533.58</ele>
  <time>2026-09-01T20:01:44Z</time>
  <course>270.76</course>
  <speed>24.712203463066587</speed>
  <fix>3d</fix>
</trkpt>
<trkpt lat="-27.2461375" lon="151.3608382">
  <ele>533.58</ele>
  <time>2026-09-01T20:01:44Z</time>
  <course>270.75</course>
  <speed>24.6</speed>
  <fix>3d</fix>
</trkpt>
<trkpt lat="-27.2461366" lon="151.360762">
  <ele>533.59</ele>
  <time>2026-09-01T20:01:44Z</time>
  <course>270.77</course>
  <speed>24.76233430030376</speed>
  <fix>3d</fix>
</trkpt>
<trkpt lat="-27.2461375" lon="151.3608382">
  <ele>533.58</ele>
  <time>2026-09-01T20:01:44Z</time>
  <course>270.75</course>
  <speed>24.6</speed>
  <fix>3d</fix>
</trkpt>
<trkpt lat="-27.2461363" lon="151.3607376">
  <ele>533.6</ele>
  <time>2026-09-01T20:01:44Z</time>
  <course>270.8</course>
  <speed>24.80233053565733</speed>
  <fix>3d</fix>
</trkpt>
<trkpt lat="-27.2461369" lon="151.3607883">
  <ele>533.58</ele>
  <time>2026-09-01T20:01:44Z</time>
  <course>270.78</course>
  <speed>24.71</speed>
  <fix>3d</fix>
</trkpt>
<trkpt lat="-27.246136" lon="151.3607125">
  <ele>533.62</ele>
  <time>2026-09-01T20:01:44Z</time>
  <course>270.83</course>
  <speed>24.842465658625756</speed>
  <fix>3d</fix>
</trkpt>
<trkpt lat="-27.2461369" lon="151.3607883">
  <ele>533.58</ele>
  <time>2026-09-01T20:01:44Z</time>
  <course>270.78</course>
  <speed>24.71</speed>
  <fix>3d</fix>
</trkpt>
<trkpt lat="-27.2461357" lon="151.3606874">
  <ele>533.65</ele>
  <time>2026-09-01T20:01:44Z</time>
  <course>270.9</course>
  <speed>24.862606460305003</speed>
  <fix>3d</fix>
</trkpt>
<trkpt lat="-27.2461363" lon="151.3607383">
  <ele>533.6</ele>
  <time>2026-09-01T20:01:44Z</time>
  <course>270.8</course>
  <speed>24.8</speed>
  <fix>3d</fix>
</trkpt>
<trkpt lat="-27.2461353" lon="151.3606623">
  <ele>533.68</ele>
  <time>2026-09-01T20:01:44Z</time>
  <course>270.9</course>
  <speed>24.842906432219237</speed>
  <fix>3d</fix>
</trkpt>
<trkpt lat="-27.2461363" lon="151.3607383">
  <ele>533.6</ele>
  <time>2026-09-01T20:01:44Z</time>
  <course>270.8</course>
  <speed>24.8</speed>
  <fix>3d</fix>
</trkpt>
<trkpt lat="-27.246135" lon="151.3606371">
  <ele>533.72</ele>
  <time>2026-09-01T20:01:44Z</time>
  <course>270.88</course>
  <speed>24.77307005601042</speed>
  <fix>3d</fix>
</trkpt>
<trkpt lat="-27.2461356" lon="151.3606881">
  <ele>533.65</ele>
  <time>2026-09-01T20:01:44Z</time>
  <course>270.84</course>
  <speed>24.84</speed>
  <fix>3d</fix>
</trkpt>
<trkpt lat="-27.2461346" lon="151.3606122">
  <ele>533.76</ele>
  <time>2026-09-01T20:01:44Z</time>
  <course>270.85</course>
  <speed>24.633087504411623</speed>
  <fix>3d</fix>
</trkpt>
<trkpt lat="-27.2461356" lon="151.3606881">
  <ele>533.65</ele>
  <time>2026-09-01T20:01:44Z</time>
  <course>270.84</course>
  <speed>24.84</speed>
  <fix>3d</fix>
</trkpt>
<trkpt lat="-27.2461343" lon="151.3605874">
  <ele>533.79</ele>
  <time>2026-09-01T20:01:44Z</time>
  <course>270.88</course>
  <speed>24.44327310324867</speed>
  <fix>3d</fix>
</trkpt>
<trkpt lat="-27.2461349" lon="151.360638">
  <ele>533.72</ele>
  <time>2026-09-01T20:01:44Z</time>
  <course>270.9</course>
  <speed>24.74</speed>
  <fix>3d</fix>
</trkpt>
<trkpt lat="-27.2461339" lon="151.3605629">
  <ele>533.84</ele>
  <time>2026-09-01T20:01:44Z</time>
  <course>270.92</course>
  <speed>24.163311031396336</speed>
  <fix>3d</fix>
</trkpt>
<trkpt lat="-27.2461349" lon="151.360638">
  <ele>533.72</ele>
  <time>2026-09-01T20:01:44Z</time>
  <course>270.9</course>
  <speed>24.74</speed>
  <fix>3d</fix>
</trkpt>
<trkpt lat="-27.2461335" lon="151.3605378">
  <ele>533.87</ele>
  <time>2026-09-01T20:01:44Z</time>
  <course>270.94</course>
  <speed>23.83335687644525</speed>
  <fix>3d</fix>
</trkpt>
<trkpt lat="-27.2461342" lon="151.3605882">
  <ele>533.8</ele>
  <time>2026-09-01T20:01:44Z</time>
  <course>270.94</course>
  <speed>24.41</speed>
  <fix>3d</fix>
</trkpt>
<trkpt lat="-27.2461331" lon="151.3605139">
  <ele>533.89</ele>
  <time>2026-09-01T20:01:44Z</time>
  <course>270.96</course>
  <speed>23.513574802653892</speed>
  <fix>3d</fix>
</trkpt>
<trkpt lat="-27.2461342" lon="151.3605882">
  <ele>533.8</ele>
  <time>2026-09-01T20:01:44Z</time>
  <course>270.94</course>
  <speed>24.41</speed>
  <fix>3d</fix>
</trkpt>
<trkpt lat="-27.2461328" lon="151.3604904">
  <ele>533.9</ele>
  <time>2026-09-01T20:01:44Z</time>
  <course>270.97</course>
  <speed>23.1936241238837</speed>
  <fix>3d</fix>
</trkpt>
<trkpt lat="-27.2461335" lon="151.3605394">
  <ele>533.86</ele>
  <time>2026-09-01T20:01:44Z</time>
  <course>270.98</course>
  <speed>23.85</speed>
  <fix>3d</fix>
</trkpt>
<trkpt lat="-27.2461324" lon="151.3604671">
  <ele>533.89</ele>
  <time>2026-09-01T20:01:44Z</time>
  <course>270.98</course>
  <speed>22.893671614662427</speed>
  <fix>3d</fix>
</trkpt>
<trkpt lat="-27.2461335" lon="151.3605394">
  <ele>533.86</ele>
  <time>2026-09-01T20:01:44Z</time>
  <course>270.98</course>
  <speed>23.85</speed>
  <fix>3d</fix>
</trkpt>
<trkpt lat="-27.246132" lon="151.3604441">
  <ele>533.87</ele>
  <time>2026-09-01T20:01:44Z</time>
  <course>270.99</course>
  <speed>22.613717076146504</speed>
  <fix>3d</fix>
</trkpt>
<trkpt lat="-27.2461328" lon="151.3604918">
  <ele>533.89</ele>
  <time>2026-09-01T20:01:44Z</time>
  <course>271.01</course>
  <speed>23.22</speed>
  <fix>3d</fix>
</trkpt>
<trkpt lat="-27.2461317" lon="151.3604214">
  <ele>533.82</ele>
  <time>2026-09-01T20:01:44Z</time>
  <course>271.0</course>
  <speed>22.33376367744586</speed>
  <fix>3d</fix>
</trkpt>
<trkpt lat="-27.2461328" lon="151.3604918">
  <ele>533.89</ele>
  <time>2026-09-01T20:01:44Z</time>
  <course>271.01</course>
  <speed>23.22</speed>
  <fix>3d</fix>
</trkpt>
<trkpt lat="-27.2461313" lon="151.360399">
  <ele>533.77</ele>
  <time>2026-09-01T20:01:44Z</time>
  <course>271.01</course>
  <speed>22.073624532459547</speed>
  <fix>3d</fix>
</trkpt>
<trkpt lat="-27.246132" lon="151.3604455">
  <ele>533.86</ele>
  <time>2026-09-01T20:01:44Z</time>
  <course>271.04</course>
  <speed>22.63</speed>
  <fix>3d</fix>
</trkpt>
<trkpt lat="-27.2461309" lon="151.3603767">
  <ele>533.7</ele>
  <time>2026-09-01T20:01:44Z</time>
  <course>271.03</course>
  <speed>21.82366605316348</speed>
  <fix>3d</fix>
</trkpt>
<trkpt lat="-27.246132" lon="151.3604455">
  <ele>533.86</ele>
  <time>2026-09-01T20:01:44Z</time>
  <course>271.04</course>
  <speed>22.63</speed>
  <fix>3d</fix>
</trkpt>
<trkpt lat="-27.2461306" lon="151.3603549">
  <ele>533.61</ele>
  <time>2026-09-01T20:01:44Z</time>
  <course>271.05</course>
  <speed>21.583523808683324</speed>
  <fix>3d</fix>
</trkpt>
<trkpt lat="-27.2461313" lon="151.3604004">
  <ele>533.76</ele>
  <time>2026-09-01T20:01:44Z</time>
  <course>271.06</course>
  <speed>22.09</speed>
  <fix>3d</fix>
</trkpt>
<trkpt lat="-27.2461302" lon="151.3603331">
  <ele>533.52</ele>
  <time>2026-09-01T20:01:44Z</time>
  <course>271.06</course>
  <speed>21.353561763790136</speed>
  <fix>3d</fix>
</trkpt>
<trkpt lat="-27.2461313" lon="151.3604004">
  <ele>533.76</ele>
  <time>2026-09-01T20:01:44Z</time>
  <course>271.06</course>
  <speed>22.09</speed>
  <fix>3d</fix>
</trkpt>
<trkpt lat="-27.2461299" lon="151.3603118">
  <ele>533.41</ele>
  <time>2026-09-01T20:01:44Z</time>
  <course>271.07</course>
  <speed>21.133416666502367</speed>
  <fix>3d</fix>
</trkpt>
<trkpt lat="-27.2461305" lon="151.3603562">
  <ele>533.61</ele>
  <time>2026-09-01T20:01:44Z</time>
  <course>271.06</course>
  <speed>21.6</speed>
  <fix>3d</fix>
</trkpt>
<trkpt lat="-27.2461295" lon="151.3602905">
  <ele>533.31</ele>
  <time>2026-09-01T20:01:44Z</time>
  <course>271.07</course>
  <speed>20.91345260830932</speed>
  <fix>3d</fix>
</trkpt>
<trkpt lat="-27.2461305" lon="151.3603562">
  <ele>533.61</ele>
  <time>2026-09-01T20:01:44Z</time>
  <course>271.06</course>
  <speed>21.6</speed>
  <fix>3d</fix>
</trkpt>
<trkpt lat="-27.2461292" lon="151.3602694">
  <ele>533.19</ele>
  <time>2026-09-01T20:01:44Z</time>
  <course>271.06</course>
  <speed>20.713304902887902</speed>
  <fix>3d</fix>
</trkpt>
<trkpt lat="-27.2461298" lon="151.3603131">
  <ele>533.42</ele>
  <time>2026-09-01T20:01:44Z</time>
  <course>271.05</course>
  <speed>21.15</speed>
  <fix>3d</fix>
</trkpt>
<trkpt lat="-27.2461288" lon="151.3602487">
  <ele>533.06</ele>
  <time>2026-09-01T20:01:44Z</time>
  <course>271.06</course>
  <speed>20.51333712490486</speed>
  <fix>3d</fix>
</trkpt>
<trkpt lat="-27.2461298" lon="151.3603131">
  <ele>533.42</ele>
  <time>2026-09-01T20:01:44Z</time>
  <course>271.05</course>
  <speed>21.15</speed>
  <fix>3d</fix>
</trkpt>
<trkpt lat="-27.2461285" lon="151.3602281">
  <ele>532.93</ele>
  <time>2026-09-01T20:01:44Z</time>
  <course>271.05</course>
  <speed>20.333187157944522</speed>
  <fix>3d</fix>
</trkpt>
<trkpt lat="-27.2461291" lon="151.3602708">
  <ele>533.19</ele>
  <time>2026-09-01T20:01:44Z</time>
  <course>271.04</course>
  <speed>20.73</speed>
  <fix>3d</fix>
</trkpt>
<trkpt lat="-27.2461282" lon="151.3602076">
  <ele>532.79</ele>
  <time>2026-09-01T20:01:44Z</time>
  <course>271.05</course>
  <speed>20.143217220692428</speed>
  <fix>3d</fix>
</trkpt>
<trkpt lat="-27.2461291" lon="151.3602708">
  <ele>533.19</ele>
  <time>2026-09-01T20:01:44Z</time>
  <course>271.04</course>
  <speed>20.73</speed>
  <fix>3d</fix>
</trkpt>
<trkpt lat="-27.2461278" lon="151.3601873">
  <ele>532.65</ele>
  <time>2026-09-01T20:01:44Z</time>
  <course>271.04</course>
  <speed>19.973066865156188</speed>
  <fix>3d</fix>
</trkpt>
<trkpt lat="-27.2461285" lon="151.3602293">
  <ele>532.93</ele>
  <time>2026-09-01T20:01:44Z</time>
  <course>271.03</course>
  <speed>20.34</speed>
  <fix>3d</fix>
</trkpt>
<trkpt lat="-27.2461275" lon="151.3601673">
  <ele>532.5</ele>
  <time>2026-09-01T20:01:44Z</time>
  <course>271.04</course>
  <speed>19.803093192731282</speed>
  <fix>3d</fix>
</trkpt>
<trkpt lat="-27.2461285" lon="151.3602293">
  <ele>532.93</ele>
  <time>2026-09-01T20:01:44Z</time>
  <course>271.03</course>
  <speed>20.34</speed>
  <fix>3d</fix>
</trkpt>
<trkpt lat="-27.2461272" lon="151.3601473">
  <ele>532.35</ele>
  <time>2026-09-01T20:01:45Z</time>
  <course>271.03</course>
  <speed>19.642942753060193</speed>
  <fix>3d</fix>
</trkpt>
<trkpt lat="-27.2461278" lon="151.3601885">
  <ele>532.65</ele>
  <time>2026-09-01T20:01:45Z</time>
  <course>271.02</course>
  <speed>19.98</speed>
  <fix>3d</fix>
</trkpt>
<trkpt lat="-27.2461269" lon="151.3601276">
  <ele>532.2</ele>
  <time>2026-09-01T20:01:45Z</time>
  <course>271.03</course>
  <speed>19.482966919850785</speed>
  <fix>3d</fix>
</trkpt>
<trkpt lat="-27.2461278" lon="151.3601885">
  <ele>532.65</ele>
  <time>2026-09-01T20:01:45Z</time>
  <course>271.02</course>
  <speed>19.98</speed>
  <fix>3d</fix>
</trkpt>
<trkpt lat="-27.2461266" lon="151.3601085">
  <ele>532.04</ele>
  <time>2026-09-01T20:01:45Z</time>
  <course>271.02</course>
  <speed>19.3329899394791</speed>
  <fix>3d</fix>
</trkpt>
<trkpt lat="-27.2461272" lon="151.3601484">
  <ele>532.36</ele>
  <time>2026-09-01T20:01:45Z</time>
  <course>271.01</course>
  <speed>19.65</speed>
  <fix>3d</fix>
</trkpt>
<trkpt lat="-27.2461263" lon="151.3600884">
  <ele>531.88</ele>
  <time>2026-09-01T20:01:45Z</time>
  <course>271.02</course>
  <speed>19.182838684615998</speed>
  <fix>3d</fix>
</trkpt>
<trkpt lat="-27.2461272" lon="151.3601484">
  <ele>532.36</ele>
  <time>2026-09-01T20:01:45Z</time>
  <course>271.01</course>
  <speed>19.65</speed>
  <fix>3d</fix>
</trkpt>
<trkpt lat="-27.246126" lon="151.3600691">
  <ele>531.72</ele>
  <time>2026-09-01T20:01:45Z</time>
  <course>271.01</course>
  <speed>19.042859554174107</speed>
  <fix>3d</fix>
</trkpt>
<trkpt lat="-27.2461266" lon="151.360109">
  <ele>532.05</ele>
  <time>2026-09-01T20:01:45Z</time>
  <course>271.0</course>
  <speed>19.34</speed>
  <fix>3d</fix>
</trkpt>
<trkpt lat="-27.2461257" lon="151.3600499">
  <ele>531.54</ele>
  <time>2026-09-01T20:01:45Z</time>
  <course>271.01</course>
  <speed>18.902708800592574</speed>
  <fix>3d</fix>
</trkpt>
<trkpt lat="-27.2461266" lon="151.360109">
  <ele>532.05</ele>
  <time>2026-09-01T20:01:45Z</time>
  <course>271.0</course>
  <speed>19.34</speed>
  <fix>3d</fix>
</trkpt>
<trkpt lat="-27.2461254" lon="151.3600309">
  <ele>531.38</ele>
  <time>2026-09-01T20:01:45Z</time>
  <course>271.0</course>
  <speed>18.772727558881794</speed>
  <fix>3d</fix>
</trkpt>
<trkpt lat="-27.246126" lon="151.3600702">
  <ele>531.72</ele>
  <time>2026-09-01T20:01:45Z</time>
  <course>270.99</course>
  <speed>19.05</speed>
  <fix>3d</fix>
</trkpt>
<trkpt lat="-27.2461251" lon="151.3600119">
  <ele>531.21</ele>
  <time>2026-09-01T20:01:45Z</time>
  <course>271.0</course>
  <speed>18.64274657876355</speed>
  <fix>3d</fix>
</trkpt>
<trkpt lat="-27.246126" lon="151.3600702">
  <ele>531.72</ele>
  <time>2026-09-01T20:01:45Z</time>
  <course>270.99</course>
  <speed>19.05</speed>
  <fix>3d</fix>
</trkpt>
<trkpt lat="-27.2461248" lon="151.3599932">
  <ele>531.04</ele>
  <time>2026-09-01T20:01:45Z</time>
  <course>270.99</course>
  <speed>18.512595712109093</speed>
  <fix>3d</fix>
</trkpt>
<trkpt lat="-27.2461254" lon="151.360032">
  <ele>531.39</ele>
  <time>2026-09-01T20:01:45Z</time>
  <course>270.99</course>
  <speed>18.78</speed>
  <fix>3d</fix>
</trkpt>
<trkpt lat="-27.2461245" lon="151.3599745">
  <ele>530.86</ele>
  <time>2026-09-01T20:01:45Z</time>
  <course>270.99</course>
  <speed>18.39261264747344</speed>
  <fix>3d</fix>
</trkpt>
<trkpt lat="-27.2461254" lon="151.360032">
  <ele>531.39</ele>
  <time>2026-09-01T20:01:45Z</time>
  <course>270.99</course>
  <speed>18.78</speed>
  <fix>3d</fix>
</trkpt>
<trkpt lat="-27.2461243" lon="151.3599559">
  <ele>530.69</ele>
  <time>2026-09-01T20:01:45Z</time>
  <course>270.99</course>
  <speed>18.282628366840473</speed>
  <fix>3d</fix>
</trkpt>
<trkpt lat="-27.2461248" lon="151.3599943">
  <ele>531.04</ele>
  <time>2026-09-01T20:01:45Z</time>
  <course>270.98</course>
  <speed>18.53</speed>
  <fix>3d</fix>
</trkpt>
<trkpt lat="-27.246124" lon="151.3599376">
  <ele>530.51</ele>
  <time>2026-09-01T20:01:45Z</time>
  <course>270.98</course>
  <speed>18.162477804528763</speed>
  <fix>3d</fix>
</trkpt>
<trkpt lat="-27.2461248" lon="151.3599943">
  <ele>531.04</ele>
  <time>2026-09-01T20:01:45Z</time>
  <course>270.98</course>
  <speed>18.53</speed>
  <fix>3d</fix>
</trkpt>
<trkpt lat="-27.2461237" lon="151.3599193">
  <ele>530.33</ele>
  <time>2026-09-01T20:01:45Z</time>
  <course>270.98</course>
  <speed>18.052492902643667</speed>
  <fix>3d</fix>
</trkpt>
<trkpt lat="-27.2461242" lon="151.3599571">
  <ele>530.69</ele>
  <time>2026-09-01T20:01:45Z</time>
  <course>270.97</course>
  <speed>18.29</speed>
  <fix>3d</fix>
</trkpt>
<trkpt lat="-27.2443281" lon="151.3640211">
  <ele>542.98</ele>
  <time>2026-09-01T20:01:45Z</time>
  <course>250.0</course>
  <speed>0.0</speed>
  <fix>3d</fix>
</trkpt>
<trkpt lat="-27.2461242" lon="151.3599571">
  <ele>530.69</ele>
  <time>2026-09-01T20:01:45Z</time>
  <course>270.97</course>
  <speed>18.29</speed>
  <fix>3d</fix>
</trkpt>
<trkpt lat="-27.2443281" lon="151.3640211">
  <ele>542.87</ele>
  <time>2026-09-01T20:01:45Z</time>
  <course>250.01</course>
  <speed>0.0632455532033676</speed>
  <fix>3d</fix>
</trkpt>
<trkpt lat="-27.245226" lon="151.3619799">
  <ele>536.75</ele>
  <time>2026-09-01T20:01:45Z</time>
  <course>270.96</course>
  <speed>9.09</speed>
  <fix>3d</fix>
</trkpt>
<trkpt lat="-27.2443281" lon="151.3640209">
  <ele>542.68</ele>
  <time>2026-09-01T20:01:45Z</time>
  <course>249.98</course>
  <speed>0.20248456731316586</speed>
  <fix>3d</fix>
</trkpt>
<trkpt lat="-27.245226" lon="151.3619799">
  <ele>536.75</ele>
  <time>2026-09-01T20:01:45Z</time>
  <course>270.96</course>
  <speed>9.09</speed>
  <fix>3d</fix>
</trkpt>
<trkpt lat="-27.2443282" lon="151.3640207">
  <ele>542.38</ele>
  <time>2026-09-01T20:01:45Z</time>
  <course>250.34</course>
  <speed>0.4332435804486894</speed>
  <fix>3d</fix>
</trkpt>
<trkpt lat="-27.2443281" lon="151.364021">
  <ele>542.83</ele>
  <time>2026-09-01T20:01:45Z</time>
  <course>249.58</course>
  <speed>0.1</speed>
  <fix>3d</fix>
</trkpt>
<trkpt lat="-27.2443283" lon="151.3640201">
  <ele>542.02</ele>
  <time>2026-09-01T20:01:45Z</time>
  <course>253.21</course>
  <speed>0.7382411530116699</speed>
  <fix>3d</fix>
</trkpt>
<trkpt lat="-27.2443281" lon="151.364021">
  <ele>542.83</ele>
  <time>2026-09-01T20:01:45Z</time>
  <course>249.58</course>
  <speed>0.1</speed>
  <fix>3d</fix>
</trkpt>
<trkpt lat="-27.2443283" lon="151.3640192">
  <ele>541.57</ele>
  <time>2026-09-01T20:01:45Z</time>
  <course>262.56</course>
  <speed>1.101135777277262</speed>
  <fix>3d</fix>
</trkpt>
<trkpt lat="-27.2443282" lon="151.3640205">
  <ele>542.36</ele>
  <time>2026-09-01T20:01:45Z</time>
  <course>258.33</course>
  <speed>0.46</speed>
  <fix>3d</fix>
</trkpt>
<trkpt lat="-27.2443285" lon="151.3640179">
  <ele>541.04</ele>
  <time>2026-09-01T20:01:45Z</time>
  <course>263.34</course>
  <speed>1.5100331122197286</speed>
  <fix>3d</fix>
</trkpt>
<trkpt lat="-27.2443282" lon="151.3640205">
  <ele>542.36</ele>
  <time>2026-09-01T20:01:45Z</time>
  <course>258.33</course>
  <speed>0.46</speed>
  <fix>3d</fix>
</trkpt>
<trkpt lat="-27.2443298" lon="151.3640165">
  <ele>540.48</ele>
  <time>2026-09-01T20:01:45Z</time>
  <course>251.88</course>
  <speed>2.8692333470807148</speed>
  <fix>3d</fix>
</trkpt>
<trkpt lat="-27.2443284" lon="151.3640191">
  <ele>541.56</ele>
  <time>2026-09-01T20:01:45Z</time>
  <course>253.3</course>
  <speed>1.09</speed>
  <fix>3d</fix>
</trkpt>
<trkpt lat="-27.2443329" lon="151.3640151">
  <ele>539.93</ele>
  <time>2026-09-01T20:01:45Z</time>
  <course>243.8</course>
  <speed>4.383468945937681</speed>
  <fix>3d</fix>
</trkpt>
<trkpt lat="-27.2443284" lon="151.3640191">
  <ele>541.56</ele>
  <time>2026-09-01T20:01:45Z</time>
  <course>253.3</course>
  <speed>1.09</speed>
  <fix>3d</fix>
</trkpt>
<trkpt lat="-27.2443373" lon="151.3640137">
  <ele>539.44</ele>
  <time>2026-09-01T20:01:45Z</time>
  <course>237.99</course>
  <speed>5.67824796922431</speed>
  <fix>3d</fix>
</trkpt>
<trkpt lat="-27.2443306" lon="151.3640166">
  <ele>540.52</ele>
  <time>2026-09-01T20:01:45Z</time>
  <course>210.41</course>
  <speed>2.67</speed>
  <fix>3d</fix>
</trkpt>
<trkpt lat="-27.2443427" lon="151.3640126">
  <ele>539.02</ele>
  <time>2026-09-01T20:01:45Z</time>
  <course>233.34</course>
  <speed>6.72164414410641</speed>
  <fix>3d</fix>
</trkpt>
<trkpt lat="-27.2443306" lon="151.3640166">
  <ele>540.52</ele>
  <time>2026-09-01T20:01:45Z</time>
  <course>210.41</course>
  <speed>2.67</speed>
  <fix>3d</fix>
</trkpt>
<trkpt lat="-27.244349" lon="151.3640112">
  <ele>538.71</ele>
  <time>2026-09-01T20:01:45Z</time>
  <course>229.73</course>
  <speed>7.486474470670423</speed>
  <fix>3d</fix>
</trkpt>
<trkpt lat="-27.2443376" lon="151.3640139">
  <ele>539.5</ele>
  <time>2026-09-01T20:01:45Z</time>
  <course>193.43</course>
  <speed>5.48</speed>
  <fix>3d</fix>
</trkpt>
<trkpt lat="-27.2443558" lon="151.3640093">
  <ele>538.53</ele>
  <time>2026-09-01T20:01:45Z</time>
  <course>227.26</course>
  <speed>7.930025220640853</speed>
  <fix>3d</fix>
</trkpt>
<trkpt lat="-27.2443376" lon="151.3640139">
  <ele>539.5</ele>
  <time>2026-09-01T20:01:45Z</time>
  <course>193.43</course>
  <speed>5.48</speed>
  <fix>3d</fix>
</trkpt>
<trkpt lat="-27.2443626" lon="151.3640064">
  <ele>538.44</ele>
  <time>2026-09-01T20:01:45Z</time>
  <course>226.02</course>
  <speed>8.247720897314602</speed>
  <fix>3d</fix>
</trkpt>
<trkpt lat="-27.2443489" lon="151.364011">
  <ele>538.78</ele>
  <time>2026-09-01T20:01:45Z</time>
  <course>193.92</course>
  <speed>7.29</speed>
  <fix>3d</fix>
</trkpt>
<trkpt lat="-27.2443693" lon="151.3640025">
  <ele>538.4</ele>
  <time>2026-09-01T20:01:45Z</time>
  <course>225.93</course>
  <speed>8.5853945745085</speed>
  <fix>3d</fix>
</trkpt>
<trkpt lat="-27.2443489" lon="151.364011">
  <ele>538.78</ele>
  <time>2026-09-01T20:01:45Z</time>
  <course>193.92</course>
  <speed>7.29</speed>
  <fix>3d</fix>
</trkpt>
<trkpt lat="-27.2443758" lon="151.3639976">
  <ele>538.38</ele>
  <time>2026-09-01T20:01:45Z</time>
  <course>226.83</course>
  <speed>8.98806430773612</speed>
  <fix>3d</fix>
</trkpt>
<trkpt lat="-27.2443622" lon="151.364006">
  <ele>538.46</ele>
  <time>2026-09-01T20:01:45Z</time>
  <course>203.82</course>
  <speed>8.19</speed>
  <fix>3d</fix>
</trkpt>
<trkpt lat="-27.2443822" lon="151.3639916">
  <ele>538.36</ele>
  <time>2026-09-01T20:01:45Z</time>
  <course>228.79</course>
  <speed>9.446761349796025</speed>
  <fix>3d</fix>
</trkpt>
<trkpt lat="-27.2443622" lon="151.364006">
  <ele>538.46</ele>
  <time>2026-09-01T20:01:45Z</time>
  <course>203.82</course>
  <speed>8.19</speed>
  <fix>3d</fix>
</trkpt>
<trkpt lat="-27.2443883" lon="151.3639844">
  <ele>538.33</ele>
  <time>2026-09-01T20:01:45Z</time>
  <course>231.68</course>
  <speed>9.963116982149714</speed>
  <fix>3d</fix>
</trkpt>
<trkpt lat="-27.2443754" lon="151.3639973">
  <ele>538.38</ele>
  <time>2026-09-01T20:01:45Z</time>
  <course>216.72</course>
  <speed>8.95</speed>
  <fix>3d</fix>
</trkpt>
<trkpt lat="-27.2443942" lon="151.3639766">
  <ele>538.29</ele>
  <time>2026-09-01T20:01:45Z</time>
  <course>235.05</course>
  <speed>10.478139147768559</speed>
  <fix>3d</fix>
</trkpt>
<trkpt lat="-27.2443754" lon="151.3639973">
  <ele>538.38</ele>
  <time>2026-09-01T20:01:45Z</time>
  <course>216.72</course>
  <speed>8.95</speed>
  <fix>3d</fix>
</trkpt>
<trkpt lat="-27.2443997" lon="151.3639677">
  <ele>538.22</ele>
  <time>2026-09-01T20:01:45Z</time>
  <course>238.59</course>
  <speed>11.006820612692842</speed>
  <fix>3d</fix>
</trkpt>
<trkpt lat="-27.2443878" lon="151.3639845">
  <ele>538.32</ele>
  <time>2026-09-01T20:01:45Z</time>
  <course>227.81</course>
  <speed>9.9</speed>
  <fix>3d</fix>
</trkpt>
<trkpt lat="-27.2444049" lon="151.3639579">
  <ele>538.14</ele>
  <time>2026-09-01T20:01:45Z</time>
  <course>242.04</course>
  <speed>11.536346908792227</speed>
  <fix>3d</fix>
</trkpt>
<trkpt lat="-27.2443878" lon="151.3639845">
  <ele>538.32</ele>
  <time>2026-09-01T20:01:45Z</time>
  <course>227.81</course>
  <speed>9.9</speed>
  <fix>3d</fix>
</trkpt>
<trkpt lat="-27.2444096" lon="151.3639471">
  <ele>538.04</ele>
  <time>2026-09-01T20:01:45Z</time>
  <course>245.23</course>
  <speed>12.07656408089652</speed>
  <fix>3d</fix>
</trkpt>
<trkpt lat="-27.2443991" lon="151.3639678">
  <ele>538.22</ele>
  <time>2026-09-01T20:01:45Z</time>
  <course>237.06</course>
  <speed>10.95</speed>
  <fix>3d</fix>
</trkpt>
<trkpt lat="-27.2444139" lon="151.3639356">
  <ele>537.95</ele>
  <time>2026-09-01T20:01:45Z</time>
  <course>248.05</course>
  <speed>12.603812915145957</speed>
  <fix>3d</fix>
</trkpt>
<trkpt lat="-27.2443991" lon="151.3639678">
  <ele>538.22</ele>
  <time>2026-09-01T20:01:45Z</time>
  <course>237.06</course>
  <speed>10.95</speed>
  <fix>3d</fix>
</trkpt>
<trkpt lat="-27.2444178" lon="151.3639235">
  <ele>537.84</ele>
  <time>2026-09-01T20:01:45Z</time>
  <course>250.44</course>
  <speed>13.14590810860931</speed>
  <fix>3d</fix>
</trkpt>
<trkpt lat="-27.2444091" lon="151.3639474">
  <ele>538.05</ele>
  <time>2026-09-01T20:01:45Z</time>
  <course>245.04</course>
  <speed>12.01</speed>
  <fix>3d</fix>
</trkpt>
<trkpt lat="-27.2444212" lon="151.3639105">
  <ele>537.73</ele>
  <time>2026-09-01T20:01:45Z</time>
  <course>252.49</course>
  <speed>13.682105101189656</speed>
  <fix>3d</fix>
</trkpt>
<trkpt lat="-27.2444091" lon="151.3639474">
  <ele>538.05</ele>
  <time>2026-09-01T20:01:45Z</time>
  <course>245.04</course>
  <speed>12.01</speed>
  <fix>3d</fix>
</trkpt>
<trkpt lat="-27.2444243" lon="151.3638968">
  <ele>537.62</ele>
  <time>2026-09-01T20:01:45Z</time>
  <course>254.33</course>
  <speed>14.211234992075813</speed>
  <fix>3d</fix>
</trkpt>
<trkpt lat="-27.2444173" lon="151.3639238">
  <ele>537.84</ele>
  <time>2026-09-01T20:01:45Z</time>
  <course>251.7</course>
  <speed>13.09</speed>
  <fix>3d</fix>
</trkpt>
<trkpt lat="-27.2444268" lon="151.3638825">
  <ele>537.52</ele>
  <time>2026-09-01T20:01:45Z</time>
  <course>256.07</course>
  <speed>14.721582795338279</speed>
  <fix>3d</fix>
</trkpt>
<trkpt lat="-27.2444173" lon="151.3639238">
  <ele>537.84</ele>
  <time>2026-09-01T20:01:45Z</time>
  <course>251.7</course>
  <speed>13.09</speed>
  <fix>3d</fix>
</trkpt>
<trkpt lat="-27.2444291" lon="151.3638676">
  <ele>537.41</ele>
  <time>2026-09-01T20:01:45Z</time>
  <course>257.74</course>
  <speed>15.2361313987508</speed>
  <fix>3d</fix>
</trkpt>
<trkpt lat="-27.2444238" lon="151.3638972">
  <ele>537.63</ele>
  <time>2026-09-01T20:01:45Z</time>
  <course>257.0</course>
  <speed>14.16</speed>
  <fix>3d</fix>
</trkpt>
<trkpt lat="-27.2444311" lon="151.3638521">
  <ele>537.33</ele>
  <time>2026-09-01T20:01:45Z</time>
  <course>259.25</course>
  <speed>15.730089001655394</speed>
  <fix>3d</fix>
</trkpt>
<trkpt lat="-27.2444238" lon="151.3638972">
  <ele>537.63</ele>
  <time>2026-09-01T20:01:45Z</time>
  <course>257.0</course>
  <speed>14.16</speed>
  <fix>3d</fix>
</trkpt>
<trkpt lat="-27.2444326" lon="151.363836">
  <ele>537.25</ele>
  <time>2026-09-01T20:01:45Z</time>
  <course>260.78</course>
  <speed>16.22010172594488</speed>
  <fix>3d</fix>
</trkpt>
<trkpt lat="-27.2444288" lon="151.363868">
  <ele>537.42</ele>
  <time>2026-09-01T20:01:45Z</time>
  <course>261.1</course>
  <speed>15.19</speed>
  <fix>3d</fix>
</trkpt>
<trkpt lat="-27.244434" lon="151.3638195">
  <ele>537.18</ele>
  <time>2026-09-01T20:01:45Z</time>
  <course>262.23</course>
  <speed>16.689928100504208</speed>
  <fix>3d</fix>
</trkpt>
<trkpt lat="-27.2444288" lon="151.363868">
  <ele>537.42</ele>
  <time>2026-09-01T20:01:45Z</time>
  <course>261.1</course>
  <speed>15.19</speed>
  <fix>3d</fix>
</trkpt>
<trkpt lat="-27.244435" lon="151.3638024">
  <ele>537.12</ele>
  <time>2026-09-01T20:01:45Z</time>
  <course>263.54</course>
  <speed>17.149766762262395</speed>
  <fix>3d</fix>
</trkpt>
<trkpt lat="-27.2444324" lon="151.3638365">
  <ele>537.25</ele>
  <time>2026-09-01T20:01:45Z</time>
  <course>264.18</course>
  <speed>16.18</speed>
  <fix>3d</fix>
</trkpt>
<trkpt lat="-27.2444358" lon="151.3637848">
  <ele>537.08</ele>
  <time>2026-09-01T20:01:45Z</time>
  <course>264.72</course>
  <speed>17.595567623694325</speed>
  <fix>3d</fix>
</trkpt>
<trkpt lat="-27.2444324" lon="151.3638365">
  <ele>537.25</ele>
  <time>2026-09-01T20:01:45Z</time>
  <course>264.18</course>
  <speed>16.18</speed>
  <fix>3d</fix>
</trkpt>
<trkpt lat="-27.2444363" lon="151.3637669">
  <ele>537.04</ele>
  <time>2026-09-01T20:01:45Z</time>
  <course>265.73</course>
  <speed>18.027215536515893</speed>
  <fix>3d</fix>
</trkpt>
<trkpt lat="-27.2444348" lon="151.363803">
  <ele>537.13</ele>
  <time>2026-09-01T20:01:45Z</time>
  <course>266.52</course>
  <speed>17.12</speed>
  <fix>3d</fix>
</trkpt>
<trkpt lat="-27.2444367" lon="151.3637484">
  <ele>537.03</ele>
  <time>2026-09-01T20:01:45Z</time>
  <course>266.52</course>
  <speed>18.44244018561535</speed>
  <fix>3d</fix>
</trkpt>
<trkpt lat="-27.2444348" lon="151.363803">
  <ele>537.13</ele>
  <time>2026-09-01T20:01:45Z</time>
  <course>266.52</course>
  <speed>17.12</speed>
  <fix>3d</fix>
</trkpt>
<trkpt lat="-27.2444369" lon="151.3637296">
  <ele>537.03</ele>
  <time>2026-09-01T20:01:45Z</time>
  <course>267.13</course>
  <speed>18.850448270531924</speed>
  <fix>3d</fix>
</trkpt>
<trkpt lat="-27.2444362" lon="151.3637676">
  <ele>537.05</ele>
  <time>2026-09-01T20:01:45Z</time>
  <course>268.29</course>
  <speed>18.0</speed>
  <fix>3d</fix>
</trkpt>
<trkpt lat="-27.2444369" lon="151.3637104">
  <ele>537.04</ele>
  <time>2026-09-01T20:01:45Z</time>
  <course>267.72</course>
  <speed>19.23</speed>
  <fix>3d</fix>
</trkpt>
<trkpt lat="-27.2444362" lon="151.3637676">
  <ele>537.05</ele>
  <time>2026-09-01T20:01:45Z</time>
  <course>268.29</course>
  <speed>18.0</speed>
  <fix>3d</fix>
</trkpt>
<trkpt lat="-27.2444369" lon="151.3636908">
  <ele>537.08</ele>
  <time>2026-09-01T20:01:45Z</time>
  <course>268.19</course>
  <speed>19.590308828601962</speed>
  <fix>3d</fix>
</trkpt>
<trkpt lat="-27.2444368" lon="151.3637304">
  <ele>537.04</ele>
  <time>2026-09-01T20:01:45Z</time>
  <course>269.52</course>
  <speed>18.81</speed>
  <fix>3d</fix>
</trkpt>
<trkpt lat="-27.2444368" lon="151.3636708">
  <ele>537.13</ele>
  <time>2026-09-01T20:01:45Z</time>
  <course>268.7</course>
  <speed>19.940905195100846</speed>
  <fix>3d</fix>
</trkpt>
<trkpt lat="-27.2444368" lon="151.3637304">
  <ele>537.04</ele>
  <time>2026-09-01T20:01:45Z</time>
  <course>269.52</course>
  <speed>18.81</speed>
  <fix>3d</fix>
</trkpt>
<trkpt lat="-27.2444366" lon="151.3636505">
  <ele>537.18</ele>
  <time>2026-09-01T20:01:45Z</time>
  <course>269.14</course>
  <speed>20.291796371933167</speed>
  <fix>3d</fix>
</trkpt>
<trkpt lat="-27.2444368" lon="151.3636915">
  <ele>537.08</ele>
  <time>2026-09-01T20:01:45Z</time>
  <course>270.28</course>
  <speed>19.57</speed>
  <fix>3d</fix>
</trkpt>
<trkpt lat="-27.2444363" lon="151.3636297">
  <ele>537.25</ele>
  <time>2026-09-01T20:01:45Z</time>
  <course>269.62</course>
  <speed>20.602973086426147</speed>
  <fix>3d</fix>
</trkpt>
<trkpt lat="-27.2444368" lon="151.3636915">
  <ele>537.08</ele>
  <time>2026-09-01T20:01:45Z</time>
  <course>270.28</course>
  <speed>19.57</speed>
  <fix>3d</fix>
</trkpt>
<trkpt lat="-27.244436" lon="151.3636089">
  <ele>537.32</ele>
  <time>2026-09-01T20:01:45Z</time>
  <course>270.03</course>
  <speed>20.884024995196686</speed>
  <fix>3d</fix>
</trkpt>
<trkpt lat="-27.2444366" lon="151.3636513">
  <ele>537.18</ele>
  <time>2026-09-01T20:01:45Z</time>
  <course>270.76</course>
  <speed>20.26</speed>
  <fix>3d</fix>
</trkpt>
<trkpt lat="-27.2444356" lon="151.3635876">
  <ele>537.4</ele>
  <time>2026-09-01T20:01:45Z</time>
  <course>270.26</course>
  <speed>21.13522651877666</speed>
  <fix>3d</fix>
</trkpt>
<trkpt lat="-27.2444366" lon="151.3636513">
  <ele>537.18</ele>
  <time>2026-09-01T20:01:45Z</time>
  <course>270.76</course>
  <speed>20.26</speed>
  <fix>3d</fix>
</trkpt>
<trkpt lat="-27.2444351" lon="151.3635661">
  <ele>537.46</ele>
  <time>2026-09-01T20:01:45Z</time>
  <course>270.48</course>
  <speed>21.356331613832936</speed>
  <fix>3d</fix>
</trkpt>
<trkpt lat="-27.244436" lon="151.3636098">
  <ele>537.32</ele>
  <time>2026-09-01T20:01:45Z</time>
  <course>271.12</course>
  <speed>20.85</speed>
  <fix>3d</fix>
</trkpt>
<trkpt lat="-27.2444347" lon="151.3635443">
  <ele>537.53</ele>
  <time>2026-09-01T20:01:45Z</time>
  <course>270.63</course>
  <speed>21.53728162976934</speed>
  <fix>3d</fix>
</trkpt>
<trkpt lat="-27.244436" lon="151.3636098">
  <ele>537.32</ele>
  <time>2026-09-01T20:01:45Z</time>
  <course>271.12</course>
  <speed>20.85</speed>
  <fix>3d</fix>
</trkpt>
<trkpt lat="-27.2444341" lon="151.3635224">
  <ele>537.58</ele>
  <time>2026-09-01T20:01:45Z</time>
  <course>270.73</course>
  <speed>21.698297168211152</speed>
  <fix>3d</fix>
</trkpt>
<trkpt lat="-27.2444351" lon="151.3635671">
  <ele>537.45</ele>
  <time>2026-09-01T20:01:45Z</time>
  <course>271.38</course>
  <speed>21.33</speed>
  <fix>3d</fix>
</trkpt>
<trkpt lat="-27.2444336" lon="151.3635004">
  <ele>537.62</ele>
  <time>2026-09-01T20:01:45Z</time>
  <course>270.77</course>
  <speed>21.808814731662974</speed>
  <fix>3d</fix>
</trkpt>
<trkpt lat="-27.2444351" lon="151.3635671">
  <ele>537.45</ele>
  <time>2026-09-01T20:01:45Z</time>
  <course>271.38</course>
  <speed>21.33</speed>
  <fix>3d</fix>
</trkpt>
<trkpt lat="-27.244433" lon="151.3634784">
  <ele>537.65</ele>
  <time>2026-09-01T20:01:45Z</time>
  <course>270.94</course>
  <speed>21.90934960239578</speed>
  <fix>3d</fix>
</trkpt>
<trkpt lat="-27.2444341" lon="151.3635236">
  <ele>537.57</ele>
  <time>2026-09-01T20:01:45Z</time>
  <course>271.57</course>
  <speed>21.67</speed>
  <fix>3d</fix>
</trkpt>
<trkpt lat="-27.2444324" lon="151.3634563">
  <ele>537.66</ele>
  <time>2026-09-01T20:01:45Z</time>
  <course>271.13</course>
  <speed>21.97991128280549</speed>
  <fix>3d</fix>
</trkpt>
<trkpt lat="-27.2444341" lon="151.3635236">
  <ele>537.57</ele>
  <time>2026-09-01T20:01:45Z</time>
  <course>271.57</course>
  <speed>21.67</speed>
  <fix>3d</fix>
</trkpt>
<trkpt lat="-27.2444318" lon="151.3634341">
  <ele>537.66</ele>
  <time>2026-09-01T20:01:45Z</time>
  <course>271.28</course>
  <speed>22.05048752295513</speed>
  <fix>3d</fix>
</trkpt>
<trkpt lat="-27.244433" lon="151.3634797">
  <ele>537.64</ele>
  <time>2026-09-01T20:01:45Z</time>
  <course>271.69</course>
  <speed>21.89</speed>
  <fix>3d</fix>
</trkpt>
<trkpt lat="-27.2444312" lon="151.3634118">
  <ele>537.66</ele>
  <time>2026-09-01T20:01:45Z</time>
  <course>271.39</course>
  <speed>22.12107818348825</speed>
  <fix>3d</fix>
</trkpt>
<trkpt lat="-27.244433" lon="151.3634797">
  <ele>537.64</ele>
  <time>2026-09-01T20:01:45Z</time>
  <course>271.69</course>
  <speed>21.89</speed>
  <fix>3d</fix>
</trkpt>
<trkpt lat="-27.2444305" lon="151.3633894">
  <ele>537.64</ele>
  <time>2026-09-01T20:01:45Z</time>
  <course>271.41</course>
  <speed>22.18136605351438</speed>
  <fix>3d</fix>
</trkpt>
<trkpt lat="-27.2444318" lon="151.3634352">
  <ele>537.66</ele>
  <time>2026-09-01T20:01:45Z</time>
  <course>271.78</course>
  <speed>22.05</speed>
  <fix>3d</fix>
</trkpt>
<trkpt lat="-27.2444299" lon="151.3633669">
  <ele>537.62</ele>
  <time>2026-09-01T20:01:45Z</time>
  <course>271.44</course>
  <speed>22.202004414016315</speed>
  <fix>3d</fix>
</trkpt>
<trkpt lat="-27.2444318" lon="151.3634352">
  <ele>537.66</ele>
  <time>2026-09-01T20:01:45Z</time>
  <course>271.78</course>
  <speed>22.05</speed>
  <fix>3d</fix>
</trkpt>
<trkpt lat="-27.2444292" lon="151.3633446">
  <ele>537.58</ele>
  <time>2026-09-01T20:01:45Z</time>
  <course>271.52</course>
  <speed>22.22199360993518</speed>
  <fix>3d</fix>
</trkpt>
<trkpt lat="-27.2444305" lon="151.3633904">
  <ele>537.64</ele>
  <time>2026-09-01T20:01:45Z</time>
  <course>271.85</course>
  <speed>22.16</speed>
  <fix>3d</fix>
</trkpt>
<trkpt lat="-27.2444286" lon="151.3633221">
  <ele>537.54</ele>
  <time>2026-09-01T20:01:45Z</time>
  <course>271.58</course>
  <speed>22.232318817433327</speed>
  <fix>3d</fix>
</trkpt>
<trkpt lat="-27.2444305" lon="151.3633904">
  <ele>537.64</ele>
  <time>2026-09-01T20:01:45Z</time>
  <course>271.85</course>
  <speed>22.16</speed>
  <fix>3d</fix>
</trkpt>
<trkpt lat="-27.2444279" lon="151.3632997">
  <ele>537.49</ele>
  <time>2026-09-01T20:01:45Z</time>
  <course>271.66</course>
  <speed>22.24231327897348</speed>
  <fix>3d</fix>
</trkpt>
<trkpt lat="-27.2444292" lon="151.3633456">
  <ele>537.57</ele>
  <time>2026-09-01T20:01:45Z</time>
  <course>271.89</course>
  <speed>22.22</speed>
  <fix>3d</fix>
</trkpt>
<trkpt lat="-27.2444272" lon="151.3632772">
  <ele>537.44</ele>
  <time>2026-09-01T20:01:45Z</time>
  <course>271.71</course>
  <speed>22.262302216976572</speed>
  <fix>3d</fix>
</trkpt>
<trkpt lat="-27.2444292" lon="151.3633456">
  <ele>537.57</ele>
  <time>2026-09-01T20:01:45Z</time>
  <course>271.89</course>
  <speed>22.22</speed>
  <fix>3d</fix>
</trkpt>
<trkpt lat="-27.2444266" lon="151.3632547">
  <ele>537.38</ele>
  <time>2026-09-01T20:01:45Z</time>
  <course>271.71</course>
  <speed>22.27229669342612</speed>
  <fix>3d</fix>
</trkpt>
<trkpt lat="-27.2444279" lon="151.3633007">
  <ele>537.49</ele>
  <time>2026-09-01T20:01:45Z</time>
  <course>271.91</course>
  <speed>22.24</speed>
  <fix>3d</fix>
</trkpt>
<trkpt lat="-27.2444259" lon="151.3632322">
  <ele>537.33</ele>
  <time>2026-09-01T20:01:45Z</time>
  <course>271.71</course>
  <speed>22.292285661187815</speed>
  <fix>3d</fix>
</trkpt>
<trkpt lat="-27.2444279" lon="151.3633007">
  <ele>537.49</ele>
  <time>2026-09-01T20:01:45Z</time>
  <course>271.91</course>
  <speed>22.24</speed>
  <fix>3d</fix>
</trkpt>
<trkpt lat="-27.2444252" lon="151.3632097">
  <ele>537.27</ele>
  <time>2026-09-01T20:01:45Z</time>
  <course>271.71</course>
  <speed>22.311945231198465</speed>
  <fix>3d</fix>
</trkpt>
<trkpt lat="-27.2444266" lon="151.3632558">
  <ele>537.38</ele>
  <time>2026-09-01T20:01:45Z</time>
  <course>271.91</course>
  <speed>22.28</speed>
  <fix>3d</fix>
</trkpt>
<trkpt lat="-27.2444246" lon="151.3631872">
  <ele>537.21</ele>
  <time>2026-09-01T20:01:45Z</time>
  <course>271.68</course>
  <speed>22.331609883749984</speed>
  <fix>3d</fix>
</trkpt>
<trkpt lat="-27.2444266" lon="151.3632558">
  <ele>537.38</ele>
  <time>2026-09-01T20:01:45Z</time>
  <course>271.91</course>
  <speed>22.28</speed>
  <fix>3d</fix>
</trkpt>
<trkpt lat="-27.2444239" lon="151.3631646">
  <ele>537.15</ele>
  <time>2026-09-01T20:01:45Z</time>
  <course>271.67</course>
  <speed>22.34160468721976</speed>
  <fix>3d</fix>
</trkpt>
<trkpt lat="-27.2444252" lon="151.3632108">
  <ele>537.27</ele>
  <time>2026-09-01T20:01:45Z</time>
  <course>271.88</course>
  <speed>22.31</speed>
  <fix>3d</fix>
</trkpt>
<trkpt lat="-27.2444233" lon="151.3631419">
  <ele>537.08</ele>
  <time>2026-09-01T20:01:45Z</time>
  <course>271.66</course>
  <speed>22.36095928174818</speed>
  <fix>3d</fix>
</trkpt>
<trkpt lat="-27.2444252" lon="151.3632108">
  <ele>537.27</ele>
  <time>2026-09-01T20:01:45Z</time>
  <course>271.88</course>
  <speed>22.31</speed>
  <fix>3d</fix>
</trkpt>
<trkpt lat="-27.2444226" lon="151.3631194">
  <ele>537.02</ele>
  <time>2026-09-01T20:01:45Z</time>
  <course>271.67</course>
  <speed>22.380638954238997</speed>
  <fix>3d</fix>
</trkpt>
<trkpt lat="-27.2444239" lon="151.3631657">
  <ele>537.15</ele>
  <time>2026-09-01T20:01:45Z</time>
  <course>271.84</course>
  <speed>22.34</speed>
  <fix>3d</fix>
</trkpt>
<trkpt lat="-27.244422" lon="151.3630968">
  <ele>536.95</ele>
  <time>2026-09-01T20:01:45Z</time>
  <course>271.67</course>
  <speed>22.40032365837601</speed>
  <fix>3d</fix>
</trkpt>
<trkpt lat="-27.2444239" lon="151.3631657">
  <ele>537.15</ele>
  <time>2026-09-01T20:01:45Z</time>
  <course>271.84</course>
  <speed>22.34</speed>
  <fix>3d</fix>
</trkpt>
<trkpt lat="-27.2444214" lon="151.3630742">
  <ele>536.88</ele>
  <time>2026-09-01T20:01:45Z</time>
  <course>271.65</course>
  <speed>22.419716768951385</speed>
  <fix>3d</fix>
</trkpt>
<trkpt lat="-27.2444227" lon="151.3631206">
  <ele>537.02</ele>
  <time>2026-09-01T20:01:45Z</time>
  <course>271.78</course>
  <speed>22.38</speed>
  <fix>3d</fix>
</trkpt>
<trkpt lat="-27.2444208" lon="151.3630516">
  <ele>536.79</ele>
  <time>2026-09-01T20:01:45Z</time>
  <course>271.65</course>
  <speed>22.439416213440136</speed>
  <fix>3d</fix>
</trkpt>
<trkpt lat="-27.2444227" lon="151.3631206">
  <ele>537.02</ele>
  <time>2026-09-01T20:01:45Z</time>
  <course>271.78</course>
  <speed>22.38</speed>
  <fix>3d</fix>
</trkpt>
<trkpt lat="-27.2444202" lon="151.3630289">
  <ele>536.72</ele>
  <time>2026-09-01T20:01:45Z</time>
  <course>271.62</course>
  <speed>22.459120641734838</speed>
  <fix>3d</fix>
</trkpt>
<trkpt lat="-27.2444215" lon="151.3630753">
  <ele>536.88</ele>
  <time>2026-09-01T20:01:45Z</time>
  <course>271.71</course>
  <speed>22.42</speed>
  <fix>3d</fix>
</trkpt>
<trkpt lat="-27.2444197" lon="151.3630062">
  <ele>536.64</ele>
  <time>2026-09-01T20:01:45Z</time>
  <course>271.55</course>
  <speed>22.478551999628444</speed>
  <fix>3d</fix>
</trkpt>
<trkpt lat="-27.2444215" lon="151.3630753">
  <ele>536.88</ele>
  <time>2026-09-01T20:01:45Z</time>
  <course>271.71</course>
  <speed>22.42</speed>
  <fix>3d</fix>
</trkpt>
<trkpt lat="-27.2444191" lon="151.3629834">
  <ele>536.56</ele>
  <time>2026-09-01T20:01:45Z</time>
  <course>271.51</course>
  <speed>22.50799857828323</speed>
  <fix>3d</fix>
</trkpt>
<trkpt lat="-27.2444203" lon="151.36303">
  <ele>536.73</ele>
  <time>2026-09-01T20:01:45Z</time>
  <course>271.63</course>
  <speed>22.46</speed>
  <fix>3d</fix>
</trkpt>
<trkpt lat="-27.2444186" lon="151.3629608">
  <ele>536.48</ele>
  <time>2026-09-01T20:01:45Z</time>
  <course>271.48</course>
  <speed>22.537723931222512</speed>
  <fix>3d</fix>
</trkpt>
<trkpt lat="-27.2444203" lon="151.36303">
  <ele>536.73</ele>
  <time>2026-09-01T20:01:45Z</time>
  <course>271.63</course>
  <speed>22.46</speed>
  <fix>3d</fix>
</trkpt>
<trkpt lat="-27.2444181" lon="151.3629379">
  <ele>536.39</ele>
  <time>2026-09-01T20:01:45Z</time>
  <course>271.46</course>
  <speed>22.577196460145355</speed>
  <fix>3d</fix>
</trkpt>
<trkpt lat="-27.2444191" lon="151.3629845">
  <ele>536.56</ele>
  <time>2026-09-01T20:01:45Z</time>
  <course>271.55</course>
  <speed>22.51</speed>
  <fix>3d</fix>
</trkpt>
<trkpt lat="-27.2444175" lon="151.3629149">
  <ele>536.29</ele>
  <time>2026-09-01T20:01:45Z</time>
  <course>271.4</course>
  <speed>22.61668852860648</speed>
  <fix>3d</fix>
</trkpt>
<trkpt lat="-27.2444191" lon="151.3629845">
  <ele>536.56</ele>
  <time>2026-09-01T20:01:45Z</time>
  <course>271.55</course>
  <speed>22.51</speed>
  <fix>3d</fix>
</trkpt>
<trkpt lat="-27.2444171" lon="151.362892">
  <ele>536.2</ele>
  <time>2026-09-01T20:01:45Z</time>
  <course>271.36</course>
  <speed>22.656436171648885</speed>
  <fix>3d</fix>
</trkpt>
<trkpt lat="-27.2444181" lon="151.3629389">
  <ele>536.39</ele>
  <time>2026-09-01T20:01:45Z</time>
  <course>271.45</course>
  <speed>22.57</speed>
  <fix>3d</fix>
</trkpt>
<trkpt lat="-27.2444166" lon="151.3628692">
  <ele>536.11</ele>
  <time>2026-09-01T20:01:45Z</time>
  <course>271.28</course>
  <speed>22.705955165991146</speed>
  <fix>3d</fix>
</trkpt>
<trkpt lat="-27.2444181" lon="151.3629389">
  <ele>536.39</ele>
  <time>2026-09-01T20:01:45Z</time>
  <course>271.45</course>
  <speed>22.57</speed>
  <fix>3d</fix>
</trkpt>
<trkpt lat="-27.2444161" lon="151.3628463">
  <ele>536.01</ele>
  <time>2026-09-01T20:01:45Z</time>
  <course>271.23</course>
  <speed>22.745496257501177</speed>
  <fix>3d</fix>
</trkpt>
<trkpt lat="-27.2444171" lon="151.3628932">
  <ele>536.2</ele>
  <time>2026-09-01T20:01:45Z</time>
  <course>271.36</course>
  <speed>22.65</speed>
  <fix>3d</fix>
</trkpt>
<trkpt lat="-27.2444157" lon="151.3628233">
  <ele>535.91</ele>
  <time>2026-09-01T20:01:45Z</time>
  <course>271.22</course>
  <speed>22.795054288156457</speed>
  <fix>3d</fix>
</trkpt>
<trkpt lat="-27.2444171" lon="151.3628932">
  <ele>536.2</ele>
  <time>2026-09-01T20:01:45Z</time>
  <course>271.36</course>
  <speed>22.65</speed>
  <fix>3d</fix>
</trkpt>
<trkpt lat="-27.2444152" lon="151.3628001">
  <ele>535.82</ele>
  <time>2026-09-01T20:01:45Z</time>
  <course>271.18</course>
  <speed>22.84463175452824</speed>
  <fix>3d</fix>
</trkpt>
<trkpt lat="-27.2444161" lon="151.3628474">
  <ele>536.01</ele>
  <time>2026-09-01T20:01:45Z</time>
  <course>271.26</course>
  <speed>22.75</speed>
  <fix>3d</fix>
</trkpt>
<trkpt lat="-27.2444148" lon="151.3627771">
  <ele>535.72</ele>
  <time>2026-09-01T20:01:45Z</time>
  <course>271.14</course>
  <speed>22.89422853035236</speed>
  <fix>3d</fix>
</trkpt>
<trkpt lat="-27.2444161" lon="151.3628474">
  <ele>536.01</ele>
  <time>2026-09-01T20:01:45Z</time>
  <course>271.26</course>
  <speed>22.75</speed>
  <fix>3d</fix>
</trkpt>
<trkpt lat="-27.2444145" lon="151.3627539">
  <ele>535.63</ele>
  <time>2026-09-01T20:01:45Z</time>
  <course>271.13</course>
  <speed>22.953842815528734</speed>
  <fix>3d</fix>
</trkpt>
<trkpt lat="-27.2444153" lon="151.3628013">
  <ele>535.82</ele>
  <time>2026-09-01T20:01:45Z</time>
  <course>271.16</course>
  <speed>22.85</speed>
  <fix>3d</fix>
</trkpt>
<trkpt lat="-27.2444141" lon="151.3627306">
  <ele>535.53</ele>
  <time>2026-09-01T20:01:45Z</time>
  <course>271.09</course>
  <speed>23.013652469784105</speed>
  <fix>3d</fix>
</trkpt>
<trkpt lat="-27.2444153" lon="151.3628013">
  <ele>535.82</ele>
  <time>2026-09-01T20:01:45Z</time>
  <course>271.16</course>
  <speed>22.85</speed>
  <fix>3d</fix>
</trkpt>
<trkpt lat="-27.2444137" lon="151.3627075">
  <ele>535.44</ele>
  <time>2026-09-01T20:01:45Z</time>
  <course>271.02</course>
  <speed>23.063297682681892</speed>
  <fix>3d</fix>
</trkpt>
<trkpt lat="-27.2444145" lon="151.3627551">
  <ele>535.63</ele>
  <time>2026-09-01T20:01:45Z</time>
  <course>271.06</course>
  <speed>22.95</speed>
  <fix>3d</fix>
</trkpt>
<trkpt lat="-27.2444134" lon="151.3626841">
  <ele>535.35</ele>
  <time>2026-09-01T20:01:45Z</time>
  <course>270.98</course>
  <speed>23.12312262649662</speed>
  <fix>3d</fix>
</trkpt>
<trkpt lat="-27.2444145" lon="151.3627551">
  <ele>535.63</ele>
  <time>2026-09-01T20:01:45Z</time>
  <course>271.06</course>
  <speed>22.95</speed>
  <fix>3d</fix>
</trkpt>
<trkpt lat="-27.244413" lon="151.3626607">
  <ele>535.27</ele>
  <time>2026-09-01T20:01:45Z</time>
  <course>270.89</course>
  <speed>23.172796551128656</speed>
  <fix>3d</fix>
</trkpt>
<trkpt lat="-27.2444137" lon="151.3627086">
  <ele>535.44</ele>
  <time>2026-09-01T20:01:45Z</time>
  <course>270.98</course>
  <speed>23.06</speed>
  <fix>3d</fix>
</trkpt>
<trkpt lat="-27.2444127" lon="151.3626373">
  <ele>535.18</ele>
  <time>2026-09-01T20:01:45Z</time>
  <course>270.86</course>
  <speed>23.232488028620608</speed>
  <fix>3d</fix>
</trkpt>
<trkpt lat="-27.2444137" lon="151.3627086">
  <ele>535.44</ele>
  <time>2026-09-01T20:01:45Z</time>
  <course>270.98</course>
  <speed>23.06</speed>
  <fix>3d</fix>
</trkpt>
<trkpt lat="-27.2444124" lon="151.3626138">
  <ele>535.1</ele>
  <time>2026-09-01T20:01:45Z</time>
  <course>270.88</course>
  <speed>23.282338800043263</speed>
  <fix>3d</fix>
</trkpt>
<trkpt lat="-27.244413" lon="151.3626618">
  <ele>535.27</ele>
  <time>2026-09-01T20:01:45Z</time>
  <course>270.9</course>
  <speed>23.17</speed>
  <fix>3d</fix>
</trkpt>
<trkpt lat="-27.2444121" lon="151.3625903">
  <ele>535.03</ele>
  <time>2026-09-01T20:01:45Z</time>
  <course>270.86</course>
  <speed>23.34219355587645</speed>
  <fix>3d</fix>
</trkpt>
<trkpt lat="-27.244413" lon="151.3626618">
  <ele>535.27</ele>
  <time>2026-09-01T20:01:45Z</time>
  <course>270.9</course>
  <speed>23.17</speed>
  <fix>3d</fix>
</trkpt>
<trkpt lat="-27.2444118" lon="151.3625667">
  <ele>534.95</ele>
  <time>2026-09-01T20:01:45Z</time>
  <course>270.86</course>
  <speed>23.402053328714555</speed>
  <fix>3d</fix>
</trkpt>
<trkpt lat="-27.2444124" lon="151.362615">
  <ele>535.11</ele>
  <time>2026-09-01T20:01:45Z</time>
  <course>270.82</course>
  <speed>23.28</speed>
  <fix>3d</fix>
</trkpt>
<trkpt lat="-27.2444115" lon="151.3625429">
  <ele>534.88</ele>
  <time>2026-09-01T20:01:45Z</time>
  <course>270.83</course>
  <speed>23.45191889803476</speed>
  <fix>3d</fix>
</trkpt>
<trkpt lat="-27.2444124" lon="151.362615">
  <ele>535.11</ele>
  <time>2026-09-01T20:01:45Z</time>
  <course>270.82</course>
  <speed>23.28</speed>
  <fix>3d</fix>
</trkpt>
<trkpt lat="-27.2444113" lon="151.3625193">
  <ele>534.81</ele>
  <time>2026-09-01T20:01:45Z</time>
  <course>270.81</course>
  <speed>23.51191400120373</speed>
  <fix>3d</fix>
</trkpt>
<trkpt lat="-27.2444118" lon="151.3625678">
  <ele>534.96</ele>
  <time>2026-09-01T20:01:45Z</time>
  <course>270.77</course>
  <speed>23.39</speed>
  <fix>3d</fix>
</trkpt>
<trkpt lat="-27.244411" lon="151.3624955">
  <ele>534.71</ele>
  <time>2026-09-01T20:01:45Z</time>
  <course>270.8</course>
  <speed>23.57178398000457</speed>
  <fix>3d</fix>
</trkpt>
<trkpt lat="-27.2444118" lon="151.3625678">
  <ele>534.96</ele>
  <time>2026-09-01T20:01:45Z</time>
  <course>270.77</course>
  <speed>23.39</speed>
  <fix>3d</fix>
</trkpt>
<trkpt lat="-27.2444107" lon="151.3624716">
  <ele>534.58</ele>
  <time>2026-09-01T20:01:45Z</time>
  <course>270.75</course>
  <speed>23.641658148277166</speed>
  <fix>3d</fix>
</trkpt>
<trkpt lat="-27.2444113" lon="151.3625203">
  <ele>534.8</ele>
  <time>2026-09-01T20:01:45Z</time>
  <course>270.73</course>
  <speed>23.51</speed>
  <fix>3d</fix>
</trkpt>
<trkpt lat="-27.2444105" lon="151.3624477">
  <ele>534.43</ele>
  <time>2026-09-01T20:01:45Z</time>
  <course>270.72</course>
  <speed>23.731535980631342</speed>
  <fix>3d</fix>
</trkpt>
<trkpt lat="-27.2444113" lon="151.3625203">
  <ele>534.8</ele>
  <time>2026-09-01T20:01:45Z</time>
  <course>270.73</course>
  <speed>23.51</speed>
  <fix>3d</fix>
</trkpt>
<trkpt lat="-27.2444102" lon="151.3624237">
  <ele>534.27</ele>
  <time>2026-09-01T20:01:45Z</time>
  <course>270.72</course>
  <speed>23.8214189333885</speed>
  <fix>3d</fix>
</trkpt>
<trkpt lat="-27.2444107" lon="151.3624726">
  <ele>534.57</ele>
  <time>2026-09-01T20:01:45Z</time>
  <course>270.69</course>
  <speed>23.64</speed>
  <fix>3d</fix>
</trkpt>
<trkpt lat="-27.24441" lon="151.3623996">
  <ele>534.13</ele>
  <time>2026-09-01T20:01:45Z</time>
  <course>270.67</course>
  <speed>23.911306948805624</speed>
  <fix>3d</fix>
</trkpt>
<trkpt lat="-27.2444107" lon="151.3624726">
  <ele>534.57</ele>
  <time>2026-09-01T20:01:45Z</time>
  <course>270.69</course>
  <speed>23.64</speed>
  <fix>3d</fix>
</trkpt>
<trkpt lat="-27.2444098" lon="151.3623754">
  <ele>533.99</ele>
  <time>2026-09-01T20:01:45Z</time>
  <course>270.59</course>
  <speed>24.001102058030586</speed>
  <fix>3d</fix>
</trkpt>
<trkpt lat="-27.2444102" lon="151.3624247">
  <ele>534.28</ele>
  <time>2026-09-01T20:01:45Z</time>
  <course>270.63</course>
  <speed>23.82</speed>
  <fix>3d</fix>
</trkpt>
<trkpt lat="-27.2444096" lon="151.362351">
  <ele>533.86</ele>
  <time>2026-09-01T20:01:45Z</time>
  <course>270.56</course>
  <speed>24.091004545265438</speed>
  <fix>3d</fix>
</trkpt>
<trkpt lat="-27.2444102" lon="151.3624247">
  <ele>534.28</ele>
  <time>2026-09-01T20:01:45Z</time>
  <course>270.63</course>
  <speed>23.82</speed>
  <fix>3d</fix>
</trkpt>
<trkpt lat="-27.2444094" lon="151.3623266">
  <ele>533.74</ele>
  <time>2026-09-01T20:01:45Z</time>
  <course>270.53</course>
  <speed>24.180911893474985</speed>
  <fix>3d</fix>
</trkpt>
<trkpt lat="-27.2444098" lon="151.3623763">
  <ele>533.99</ele>
  <time>2026-09-01T20:01:45Z</time>
  <course>270.56</course>
  <speed>24.0</speed>
  <fix>3d</fix>
</trkpt>
<trkpt lat="-27.2444092" lon="151.3623022">
  <ele>533.63</ele>
  <time>2026-09-01T20:01:45Z</time>
  <course>270.53</course>
  <speed>24.260824388301398</speed>
  <fix>3d</fix>
</trkpt>
<trkpt lat="-27.2444098" lon="151.3623763">
  <ele>533.99</ele>
  <time>2026-09-01T20:01:45Z</time>
  <course>270.56</course>
  <speed>24.0</speed>
  <fix>3d</fix>
</trkpt>
<trkpt lat="-27.244409" lon="151.3622777">
  <ele>533.54</ele>
  <time>2026-09-01T20:01:45Z</time>
  <course>270.54</course>
  <speed>24.350741261817884</speed>
  <fix>3d</fix>
</trkpt>
<trkpt lat="-27.2444094" lon="151.3623276">
  <ele>533.75</ele>
  <time>2026-09-01T20:01:45Z</time>
  <course>270.51</course>
  <speed>24.17</speed>
  <fix>3d</fix>
</trkpt>
<trkpt lat="-27.2444088" lon="151.3622528">
  <ele>533.46</ele>
  <time>2026-09-01T20:01:45Z</time>
  <course>270.52</course>
  <speed>24.42073913705316</speed>
  <fix>3d</fix>
</trkpt>
<trkpt lat="-27.2444094" lon="151.3623276">
  <ele>533.75</ele>
  <time>2026-09-01T20:01:45Z</time>
  <course>270.51</course>
  <speed>24.17</speed>
  <fix>3d</fix>
</trkpt>
<trkpt lat="-27.2444087" lon="151.3622282">
  <ele>533.4</ele>
  <time>2026-09-01T20:01:45Z</time>
  <course>270.47</course>
  <speed>24.500661215567224</speed>
  <fix>3d</fix>
</trkpt>
<trkpt lat="-27.244409" lon="151.3622787">
  <ele>533.55</ele>
  <time>2026-09-01T20:01:45Z</time>
  <course>270.46</course>
  <speed>24.34</speed>
  <fix>3d</fix>
</trkpt>
<trkpt lat="-27.2444085" lon="151.3622034">
  <ele>533.35</ele>
  <time>2026-09-01T20:01:45Z</time>
  <course>270.5</course>
  <speed>24.570659331812813</speed>
  <fix>3d</fix>
</trkpt>
<trkpt lat="-27.244409" lon="151.3622787">
  <ele>533.55</ele>
  <time>2026-09-01T20:01:45Z</time>
  <course>270.46</course>
  <speed>24.34</speed>
  <fix>3d</fix>
</trkpt>
<trkpt lat="-27.2444083" lon="151.3621785">
  <ele>533.29</ele>
  <time>2026-09-01T20:01:45Z</time>
  <course>270.46</course>
  <speed>24.630657725688124</speed>
  <fix>3d</fix>
</trkpt>
<trkpt lat="-27.2444087" lon="151.3622293">
  <ele>533.41</ele>
  <time>2026-09-01T20:01:45Z</time>
  <course>270.43</course>
  <speed>24.49</speed>
  <fix>3d</fix>
</trkpt>
<trkpt lat="-27.2444082" lon="151.3621536">
  <ele>533.27</ele>
  <time>2026-09-01T20:01:45Z</time>
  <course>270.37</course>
  <speed>24.700585013314967</speed>
  <fix>3d</fix>
</trkpt>
<trkpt lat="-27.2444087" lon="151.3622293">
  <ele>533.41</ele>
  <time>2026-09-01T20:01:45Z</time>
  <course>270.43</course>
  <speed>24.49</speed>
  <fix>3d</fix>
</trkpt>
<trkpt lat="-27.244408" lon="151.3621286">
  <ele>533.25</ele>
  <time>2026-09-01T20:01:45Z</time>
  <course>270.38</course>
  <speed>24.760583595707107</speed>
  <fix>3d</fix>
</trkpt>
<trkpt lat="-27.2444083" lon="151.3621797">
  <ele>533.31</ele>
  <time>2026-09-01T20:01:45Z</time>
  <course>270.41</course>
  <speed>24.63</speed>
  <fix>3d</fix>
</trkpt>
<trkpt lat="-27.2444079" lon="151.3621035">
  <ele>533.24</ele>
  <time>2026-09-01T20:01:45Z</time>
  <course>270.41</course>
  <speed>24.810515915635452</speed>
  <fix>3d</fix>
</trkpt>
<trkpt lat="-27.2444083" lon="151.3621797">
  <ele>533.31</ele>
  <time>2026-09-01T20:01:45Z</time>
  <course>270.41</course>
  <speed>24.63</speed>
  <fix>3d</fix>
</trkpt>
<trkpt lat="-27.2444077" lon="151.3620785">
  <ele>533.25</ele>
  <time>2026-09-01T20:01:45Z</time>
  <course>270.43</course>
  <speed>24.860514878014897</speed>
  <fix>3d</fix>
</trkpt>
<trkpt lat="-27.244408" lon="151.3621299">
  <ele>533.25</ele>
  <time>2026-09-01T20:01:45Z</time>
  <course>270.39</course>
  <speed>24.75</speed>
  <fix>3d</fix>
</trkpt>
<trkpt lat="-27.2444076" lon="151.3620533">
  <ele>533.25</ele>
  <time>2026-09-01T20:01:45Z</time>
  <course>270.42</course>
  <speed>24.890580547669032</speed>
  <fix>3d</fix>
</trkpt>
<trkpt lat="-27.244408" lon="151.3621299">
  <ele>533.25</ele>
  <time>2026-09-01T20:01:45Z</time>
  <course>270.39</course>
  <speed>24.75</speed>
  <fix>3d</fix>
</trkpt>
<trkpt lat="-27.2444074" lon="151.3620282">
  <ele>533.27</ele>
  <time>2026-09-01T20:01:45Z</time>
  <course>270.42</course>
  <speed>24.890580547669032</speed>
  <fix>3d</fix>
</trkpt>
<trkpt lat="-27.2444077" lon="151.3620797">
  <ele>533.24</ele>
  <time>2026-09-01T20:01:45Z</time>
  <course>270.39</course>
  <speed>24.85</speed>
  <fix>3d</fix>
</trkpt>
<trkpt lat="-27.2444073" lon="151.362003">
  <ele>533.29</ele>
  <time>2026-09-01T20:01:45Z</time>
  <course>270.38</course>
  <speed>24.82065269085404</speed>
  <fix>3d</fix>
</trkpt>
<trkpt lat="-27.2444077" lon="151.3620797">
  <ele>533.24</ele>
  <time>2026-09-01T20:01:45Z</time>
  <course>270.39</course>
  <speed>24.85</speed>
  <fix>3d</fix>
</trkpt>
<trkpt lat="-27.2444071" lon="151.361978">
  <ele>533.31</ele>
  <time>2026-09-01T20:01:45Z</time>
  <course>270.4</course>
  <speed>24.690656127369316</speed>
  <fix>3d</fix>
</trkpt>
<trkpt lat="-27.2444074" lon="151.3620295">
  <ele>533.26</ele>
  <time>2026-09-01T20:01:45Z</time>
  <course>270.4</course>
  <speed>24.86</speed>
  <fix>3d</fix>
</trkpt>
<trkpt lat="-27.2444069" lon="151.3619532">
  <ele>533.34</ele>
  <time>2026-09-01T20:01:45Z</time>
  <course>270.4</course>
  <speed>24.510660945800705</speed>
  <fix>3d</fix>
</trkpt>
<trkpt lat="-27.2444074" lon="151.3620295">
  <ele>533.26</ele>
  <time>2026-09-01T20:01:45Z</time>
  <course>270.4</course>
  <speed>24.86</speed>
  <fix>3d</fix>
</trkpt>
<trkpt lat="-27.2444068" lon="151.3619286">
  <ele>533.36</ele>
  <time>2026-09-01T20:01:45Z</time>
  <course>270.41</course>
  <speed>24.270743705127785</speed>
  <fix>3d</fix>
</trkpt>
<trkpt lat="-27.244407" lon="151.3619793">
  <ele>533.3</ele>
  <time>2026-09-01T20:01:45Z</time>
  <course>270.42</course>
  <speed>24.67</speed>
  <fix>3d</fix>
</trkpt>
<trkpt lat="-27.2444066" lon="151.3619043">
  <ele>533.38</ele>
  <time>2026-09-01T20:01:45Z</time>
  <course>270.42</course>
  <speed>23.970753012786226</speed>
  <fix>3d</fix>
</trkpt>
<trkpt lat="-27.244407" lon="151.3619793">
  <ele>533.3</ele>
  <time>2026-09-01T20:01:45Z</time>
  <course>270.42</course>
  <speed>24.67</speed>
  <fix>3d</fix>
</trkpt>
<trkpt lat="-27.2444064" lon="151.3618802">
  <ele>533.39</ele>
  <time>2026-09-01T20:01:45Z</time>
  <course>270.44</course>
  <speed>23.6607628786563</speed>
  <fix>3d</fix>
</trkpt>
<trkpt lat="-27.2444067" lon="151.3619297">
  <ele>533.35</ele>
  <time>2026-09-01T20:01:45Z</time>
  <course>270.45</course>
  <speed>24.25</speed>
  <fix>3d</fix>
</trkpt>
<trkpt lat="-27.2444062" lon="151.3618564">
  <ele>533.39</ele>
  <time>2026-09-01T20:01:45Z</time>
  <course>270.45</course>
  <speed>23.350856515340073</speed>
  <fix>3d</fix>
</trkpt>
<trkpt lat="-27.2444067" lon="151.3619297">
  <ele>533.35</ele>
  <time>2026-09-01T20:01:45Z</time>
  <course>270.45</course>
  <speed>24.25</speed>
  <fix>3d</fix>
</trkpt>
<trkpt lat="-27.244406" lon="151.361833">
  <ele>533.36</ele>
  <time>2026-09-01T20:01:45Z</time>
  <course>270.46</course>
  <speed>23.050867662628235</speed>
  <fix>3d</fix>
</trkpt>
<trkpt lat="-27.2444064" lon="151.3618813">
  <ele>533.38</ele>
  <time>2026-09-01T20:01:45Z</time>
  <course>270.47</course>
  <speed>23.68</speed>
  <fix>3d</fix>
</trkpt>
<trkpt lat="-27.2444059" lon="151.3618099">
  <ele>533.31</ele>
  <time>2026-09-01T20:01:45Z</time>
  <course>270.47</course>
  <speed>22.770878331764017</speed>
  <fix>3d</fix>
</trkpt>
<trkpt lat="-27.2444064" lon="151.3618813">
  <ele>533.38</ele>
  <time>2026-09-01T20:01:45Z</time>
  <course>270.47</course>
  <speed>23.68</speed>
  <fix>3d</fix>
</trkpt>
<trkpt lat="-27.2444057" lon="151.361787">
  <ele>533.22</ele>
  <time>2026-09-01T20:01:45Z</time>
  <course>270.49</course>
  <speed>22.510979543325075</speed>
  <fix>3d</fix>
</trkpt>
<trkpt lat="-27.244406" lon="151.3618341">
  <ele>533.35</ele>
  <time>2026-09-01T20:01:45Z</time>
  <course>270.5</course>
  <speed>23.07</speed>
  <fix>3d</fix>
</trkpt>
<trkpt lat="-27.2444055" lon="151.3617644">
  <ele>533.1</ele>
  <time>2026-09-01T20:01:45Z</time>
  <course>270.5</course>
  <speed>22.26099054399871</speed>
  <fix>3d</fix>
</trkpt>
<trkpt lat="-27.244406" lon="151.3618341">
  <ele>533.35</ele>
  <time>2026-09-01T20:01:45Z</time>
  <course>270.5</course>
  <speed>23.07</speed>
  <fix>3d</fix>
</trkpt>
<trkpt lat="-27.2444053" lon="151.361742">
  <ele>532.95</ele>
  <time>2026-09-01T20:01:45Z</time>
  <course>270.52</course>
  <speed>22.02100133963031</speed>
  <fix>3d</fix>
</trkpt>
<trkpt lat="-27.2444057" lon="151.361788">
  <ele>533.2</ele>
  <time>2026-09-01T20:01:45Z</time>
  <course>270.53</course>
  <speed>22.53</speed>
  <fix>3d</fix>
</trkpt>
<trkpt lat="-27.2444051" lon="151.3617199">
  <ele>532.78</ele>
  <time>2026-09-01T20:01:45Z</time>
  <course>270.53</course>
  <speed>21.811109554536653</speed>
  <fix>3d</fix>
</trkpt>
<trkpt lat="-27.2444057" lon="151.361788">
  <ele>533.2</ele>
  <time>2026-09-01T20:01:45Z</time>
  <course>270.53</course>
  <speed>22.53</speed>
  <fix>3d</fix>
</trkpt>
<trkpt lat="-27.2444049" lon="151.361698">
  <ele>532.6</ele>
  <time>2026-09-01T20:01:45Z</time>
  <course>270.54</course>
  <speed>21.611119822905984</speed>
  <fix>3d</fix>
</trkpt>
<trkpt lat="-27.2444052" lon="151.361743">
  <ele>532.94</ele>
  <time>2026-09-01T20:01:45Z</time>
  <course>270.56</course>
  <speed>22.04</speed>
  <fix>3d</fix>
</trkpt>
<trkpt lat="-27.2444047" lon="151.3616762">
  <ele>532.41</ele>
  <time>2026-09-01T20:01:45Z</time>
  <course>270.55</course>
  <speed>21.411130283102757</speed>
  <fix>3d</fix>
</trkpt>
<trkpt lat="-27.2444052" lon="151.361743">
  <ele>532.94</ele>
  <time>2026-09-01T20:01:45Z</time>
  <course>270.56</course>
  <speed>22.04</speed>
  <fix>3d</fix>
</trkpt>
<trkpt lat="-27.2444045" lon="151.3616547">
  <ele>532.21</ele>
  <time>2026-09-01T20:01:45Z</time>
  <course>270.56</course>
  <speed>21.231139865772633</speed>
  <fix>3d</fix>
</trkpt>
<trkpt lat="-27.2444049" lon="151.3616989">
  <ele>532.6</ele>
  <time>2026-09-01T20:01:45Z</time>
  <course>270.59</course>
  <speed>21.62</speed>
  <fix>3d</fix>
</trkpt>
<trkpt lat="-27.2444043" lon="151.3616333">
  <ele>532.01</ele>
  <time>2026-09-01T20:01:45Z</time>
  <course>270.58</course>
  <speed>21.06114906646833</speed>
  <fix>3d</fix>
</trkpt>
<trkpt lat="-27.2444049" lon="151.3616989">
  <ele>532.6</ele>
  <time>2026-09-01T20:01:45Z</time>
  <course>270.59</course>
  <speed>21.62</speed>
  <fix>3d</fix>
</trkpt>
<trkpt lat="-27.244404" lon="151.3616122">
  <ele>531.82</ele>
  <time>2026-09-01T20:01:45Z</time>
  <course>270.6</course>
  <speed>20.89115841689972</speed>
  <fix>3d</fix>
</trkpt>
<trkpt lat="-27.2444045" lon="151.3616556">
  <ele>532.22</ele>
  <time>2026-09-01T20:01:45Z</time>
  <course>270.6</course>
  <speed>21.25</speed>
  <fix>3d</fix>
</trkpt>
<trkpt lat="-27.2444039" lon="151.361591">
  <ele>531.62</ele>
  <time>2026-09-01T20:01:45Z</time>
  <course>270.61</course>
  <speed>20.72116792075196</speed>
  <fix>3d</fix>
</trkpt>
<trkpt lat="-27.2444045" lon="151.3616556">
  <ele>532.22</ele>
  <time>2026-09-01T20:01:45Z</time>
  <course>270.6</course>
  <speed>21.25</speed>
  <fix>3d</fix>
</trkpt>
<trkpt lat="-27.2444037" lon="151.3615701">
  <ele>531.43</ele>
  <time>2026-09-01T20:01:45Z</time>
  <course>270.62</course>
  <speed>20.551072964689702</speed>
  <fix>3d</fix>
</trkpt>
<trkpt lat="-27.244404" lon="151.3616131">
  <ele>531.82</ele>
  <time>2026-09-01T20:01:45Z</time>
  <course>270.61</course>
  <speed>20.9</speed>
  <fix>3d</fix>
</trkpt>
<trkpt lat="-27.2444035" lon="151.3615494">
  <ele>531.25</ele>
  <time>2026-09-01T20:01:45Z</time>
  <course>270.62</course>
  <speed>20.39108138378149</speed>
  <fix>3d</fix>
</trkpt>
<trkpt lat="-27.244404" lon="151.3616131">
  <ele>531.82</ele>
  <time>2026-09-01T20:01:45Z</time>
  <course>270.61</course>
  <speed>20.9</speed>
  <fix>3d</fix>
</trkpt>
<trkpt lat="-27.2444033" lon="151.3615289">
  <ele>531.07</ele>
  <time>2026-09-01T20:01:45Z</time>
  <course>270.61</course>
  <speed>20.231089936036565</speed>
  <fix>3d</fix>
</trkpt>
<trkpt lat="-27.2444037" lon="151.3615712">
  <ele>531.44</ele>
  <time>2026-09-01T20:01:45Z</time>
  <course>270.6</course>
  <speed>20.57</speed>
  <fix>3d</fix>
</trkpt>
<trkpt lat="-27.2444031" lon="151.3615085">
  <ele>530.89</ele>
  <time>2026-09-01T20:01:45Z</time>
  <course>270.61</course>
  <speed>20.080995991235095</speed>
  <fix>3d</fix>
</trkpt>
<trkpt lat="-27.2444037" lon="151.3615712">
  <ele>531.44</ele>
  <time>2026-09-01T20:01:45Z</time>
  <course>270.6</course>
  <speed>20.57</speed>
  <fix>3d</fix>
</trkpt>
<trkpt lat="-27.2444029" lon="151.3614883">
  <ele>530.71</ele>
  <time>2026-09-01T20:01:45Z</time>
  <course>270.61</course>
  <speed>19.921003990763115</speed>
  <fix>3d</fix>
</trkpt>
<trkpt lat="-27.2444033" lon="151.3615299">
  <ele>531.08</ele>
  <time>2026-09-01T20:01:45Z</time>
  <course>270.6</course>
  <speed>20.24</speed>
  <fix>3d</fix>
</trkpt>
<trkpt lat="-27.2444027" lon="151.3614682">
  <ele>530.54</ele>
  <time>2026-09-01T20:01:45Z</time>
  <course>270.6</course>
  <speed>19.77101160790717</speed>
  <fix>3d</fix>
</trkpt>
<trkpt lat="-27.2444033" lon="151.3615299">
  <ele>531.08</ele>
  <time>2026-09-01T20:01:45Z</time>
  <course>270.6</course>
  <speed>20.24</speed>
  <fix>3d</fix>
</trkpt>
<trkpt lat="-27.2444026" lon="151.3614484">
  <ele>530.37</ele>
  <time>2026-09-01T20:01:45Z</time>
  <course>270.6</course>
  <speed>19.62091995804478</speed>
  <fix>3d</fix>
</trkpt>
<trkpt lat="-27.2444029" lon="151.3614892">
  <ele>530.72</ele>
  <time>2026-09-01T20:01:45Z</time>
  <course>270.59</course>
  <speed>19.93</speed>
  <fix>3d</fix>
</trkpt>
<trkpt lat="-27.2444024" lon="151.3614287">
  <ele>530.19</ele>
  <time>2026-09-01T20:01:45Z</time>
  <course>270.59</course>
  <speed>19.470927045212818</speed>
  <fix>3d</fix>
</trkpt>
<trkpt lat="-27.2444029" lon="151.3614892">
  <ele>530.72</ele>
  <time>2026-09-01T20:01:45Z</time>
  <course>270.59</course>
  <speed>19.93</speed>
  <fix>3d</fix>
</trkpt>
<trkpt lat="-27.2444022" lon="151.3614091">
  <ele>530.02</ele>
  <time>2026-09-01T20:01:45Z</time>
  <course>270.59</course>
  <speed>19.330933759133313</speed>
  <fix>3d</fix>
</trkpt>
<trkpt lat="-27.2444026" lon="151.3614493">
  <ele>530.37</ele>
  <time>2026-09-01T20:01:45Z</time>
  <course>270.58</course>
  <speed>19.63</speed>
  <fix>3d</fix>
</trkpt>
<trkpt lat="-27.244402" lon="151.3613896">
  <ele>529.85</ele>
  <time>2026-09-01T20:01:45Z</time>
  <course>270.58</course>
  <speed>19.19094057100902</speed>
  <fix>3d</fix>
</trkpt>
<trkpt lat="-27.2444026" lon="151.3614493">
  <ele>530.37</ele>
  <time>2026-09-01T20:01:45Z</time>
  <course>270.58</course>
  <speed>19.63</speed>
  <fix>3d</fix>
</trkpt>
<trkpt lat="-27.2444019" lon="151.3613703">
  <ele>529.68</ele>
  <time>2026-09-01T20:01:45Z</time>
  <course>270.58</course>
  <speed>19.05085037472081</speed>
  <fix>3d</fix>
</trkpt>
<trkpt lat="-27.2444021" lon="151.3614099">
  <ele>530.03</ele>
  <time>2026-09-01T20:01:45Z</time>
  <course>270.57</course>
  <speed>19.34</speed>
  <fix>3d</fix>
</trkpt>
<trkpt lat="-27.2444017" lon="151.361351">
  <ele>529.5</ele>
  <time>2026-09-01T20:01:45Z</time>
  <course>270.58</course>
  <speed>18.920856217412574</speed>
  <fix>3d</fix>
</trkpt>
<trkpt lat="-27.2444021" lon="151.3614099">
  <ele>530.03</ele>
  <time>2026-09-01T20:01:45Z</time>
  <course>270.57</course>
  <speed>19.34</speed>
  <fix>3d</fix>
</trkpt>
<trkpt lat="-27.2444015" lon="151.3613321">
  <ele>529.33</ele>
  <time>2026-09-01T20:01:45Z</time>
  <course>270.57</course>
  <speed>18.790862140944995</speed>
  <fix>3d</fix>
</trkpt>
<trkpt lat="-27.2444018" lon="151.3613711">
  <ele>529.68</ele>
  <time>2026-09-01T20:01:45Z</time>
  <course>270.56</course>
  <speed>19.06</speed>
  <fix>3d</fix>
</trkpt>
<trkpt lat="-27.2444014" lon="151.3613131">
  <ele>529.15</ele>
  <time>2026-09-01T20:01:45Z</time>
  <course>270.57</course>
  <speed>18.660868147007523</speed>
  <fix>3d</fix>
</trkpt>
<trkpt lat="-27.2444018" lon="151.3613711">
  <ele>529.68</ele>
  <time>2026-09-01T20:01:45Z</time>
  <course>270.56</course>
  <speed>19.06</speed>
  <fix>3d</fix>
</trkpt>
<trkpt lat="-27.2444012" lon="151.3612944">
  <ele>528.97</ele>
  <time>2026-09-01T20:01:45Z</time>
  <course>270.56</course>
  <speed>18.540779379519083</speed>
  <fix>3d</fix>
</trkpt>
<trkpt lat="-27.2444015" lon="151.3613328">
  <ele>529.33</ele>
  <time>2026-09-01T20:01:45Z</time>
  <course>270.55</course>
  <speed>18.8</speed>
  <fix>3d</fix>
</trkpt>
<trkpt lat="-27.244401" lon="151.3612757">
  <ele>528.79</ele>
  <time>2026-09-01T20:01:45Z</time>
  <course>270.56</course>
  <speed>18.420784456694562</speed>
  <fix>3d</fix>
</trkpt>
<trkpt lat="-27.2444015" lon="151.3613328">
  <ele>529.33</ele>
  <time>2026-09-01T20:01:45Z</time>
  <course>270.55</course>
  <speed>18.8</speed>
  <fix>3d</fix>
</trkpt>
<trkpt lat="-27.2444009" lon="151.3612571">
  <ele>528.62</ele>
  <time>2026-09-01T20:01:45Z</time>
  <course>270.56</course>
  <speed>18.30078960045167</speed>
  <fix>3d</fix>
</trkpt>
<trkpt lat="-27.2444012" lon="151.3612952">
  <ele>528.98</ele>
  <time>2026-09-01T20:01:45Z</time>
  <course>270.55</course>
  <speed>18.55</speed>
  <fix>3d</fix>
</trkpt>
<trkpt lat="-27.2444007" lon="151.3612387">
  <ele>528.44</ele>
  <time>2026-09-01T20:01:45Z</time>
  <course>270.55</course>
  <speed>18.19079437517779</speed>
  <fix>3d</fix>
</trkpt>
<trkpt lat="-27.2444012" lon="151.3612952">
  <ele>528.98</ele>
  <time>2026-09-01T20:01:45Z</time>
  <course>270.55</course>
  <speed>18.55</speed>
  <fix>3d</fix>
</trkpt>
<trkpt lat="-27.2444006" lon="151.3612203">
  <ele>528.26</ele>
  <time>2026-09-01T20:01:45Z</time>
  <course>270.55</course>
  <speed>18.08070795074131</speed>
  <fix>3d</fix>
</trkpt>
<trkpt lat="-27.2444009" lon="151.361258">
  <ele>528.62</ele>
  <time>2026-09-01T20:01:45Z</time>
  <course>270.54</course>
  <speed>18.31</speed>
  <fix>3d</fix>
</trkpt>
<trkpt lat="-27.2444004" lon="151.3612021">
  <ele>528.07</ele>
  <time>2026-09-01T20:01:45Z</time>
  <course>270.54</course>
  <speed>17.970712284158356</speed>
  <fix>3d</fix>
</trkpt>
<trkpt lat="-27.2444009" lon="151.361258">
  <ele>528.62</ele>
  <time>2026-09-01T20:01:45Z</time>
  <course>270.54</course>
  <speed>18.31</speed>
  <fix>3d</fix>
</trkpt>
<trkpt lat="-27.2444003" lon="151.3611841">
  <ele>527.89</ele>
  <time>2026-09-01T20:01:45Z</time>
  <course>270.54</course>
  <speed>17.870716269920464</speed>
  <fix>3d</fix>
</trkpt>
<trkpt lat="-27.2444005" lon="151.3612212">
  <ele>528.26</ele>
  <time>2026-09-01T20:01:45Z</time>
  <course>270.53</course>
  <speed>18.09</speed>
  <fix>3d</fix>
</trkpt>
<trkpt lat="-27.2444001" lon="151.3611661">
  <ele>527.7</ele>
  <time>2026-09-01T20:01:45Z</time>
  <course>270.54</course>
  <speed>17.770720300539313</speed>
  <fix>3d</fix>
</trkpt>
<trkpt lat="-27.2444005" lon="151.3612212">
  <ele>528.26</ele>
  <time>2026-09-01T20:01:45Z</time>
  <course>270.53</course>
  <speed>18.09</speed>
  <fix>3d</fix>
</trkpt>
<trkpt lat="-27.2444" lon="151.3611482">
  <ele>527.52</ele>
  <time>2026-09-01T20:01:45Z</time>
  <course>270.53</course>
  <speed>17.67072437677641</speed>
  <fix>3d</fix>
</trkpt>
<trkpt lat="-27.2444002" lon="151.3611848">
  <ele>527.89</ele>
  <time>2026-09-01T20:01:45Z</time>
  <course>270.52</course>
  <speed>17.87</speed>
  <fix>3d</fix>
</trkpt>
<trkpt lat="-27.2443998" lon="151.3611303">
  <ele>527.33</ele>
  <time>2026-09-01T20:01:45Z</time>
  <course>270.53</course>
  <speed>17.57064028429243</speed>
  <fix>3d</fix>
</trkpt>
<trkpt lat="-27.2444002" lon="151.3611848">
  <ele>527.89</ele>
  <time>2026-09-01T20:01:45Z</time>
  <course>270.52</course>
  <speed>17.87</speed>
  <fix>3d</fix>
</trkpt>
<trkpt lat="-27.2443997" lon="151.3611127">
  <ele>527.14</ele>
  <time>2026-09-01T20:01:45Z</time>
  <course>270.53</course>
  <speed>17.480643580829625</speed>
  <fix>3d</fix>
</trkpt>
<trkpt lat="-27.2444" lon="151.3611489">
  <ele>527.52</ele>
  <time>2026-09-01T20:01:45Z</time>
  <course>270.52</course>
  <speed>17.67</speed>
  <fix>3d</fix>
</trkpt>
<trkpt lat="-27.2443996" lon="151.3610951">
  <ele>526.95</ele>
  <time>2026-09-01T20:01:45Z</time>
  <course>270.52</course>
  <speed>17.390646911486645</speed>
  <fix>3d</fix>
</trkpt>
<trkpt lat="-27.2444" lon="151.3611489">
  <ele>527.52</ele>
  <time>2026-09-01T20:01:45Z</time>
  <course>270.52</course>
  <speed>17.67</speed>
  <fix>3d</fix>
</trkpt>
<trkpt lat="-27.2443994" lon="151.3610774">
  <ele>526.76</ele>
  <time>2026-09-01T20:01:45Z</time>
  <course>270.52</course>
  <speed>17.300650276795956</speed>
  <fix>3d</fix>
</trkpt>
<trkpt lat="-27.2443997" lon="151.3611134">
  <ele>527.15</ele>
  <time>2026-09-01T20:01:45Z</time>
  <course>270.51</course>
  <speed>17.49</speed>
  <fix>3d</fix>
</trkpt>
<trkpt lat="-27.2443993" lon="151.3610599">
  <ele>526.57</ele>
  <time>2026-09-01T20:01:45Z</time>
  <course>270.52</course>
  <speed>17.220653297712023</speed>
  <fix>3d</fix>
</trkpt>
<trkpt lat="-27.2443997" lon="151.3611134">
  <ele>527.15</ele>
  <time>2026-09-01T20:01:45Z</time>
  <course>270.51</course>
  <speed>17.49</speed>
  <fix>3d</fix>
</trkpt>
<trkpt lat="-27.2443992" lon="151.3610426">
  <ele>526.38</ele>
  <time>2026-09-01T20:01:45Z</time>
  <course>270.51</course>
  <speed>17.130656729968063</speed>
  <fix>3d</fix>
</trkpt>
<trkpt lat="-27.2443994" lon="151.3610782">
  <ele>526.77</ele>
  <time>2026-09-01T20:01:45Z</time>
  <course>270.5</course>
  <speed>17.31</speed>
  <fix>3d</fix>
</trkpt>
<trkpt lat="-27.244399" lon="151.3610253">
  <ele>526.19</ele>
  <time>2026-09-01T20:01:45Z</time>
  <course>270.51</course>
  <speed>17.050574770370645</speed>
  <fix>3d</fix>
</trkpt>
<trkpt lat="-27.2443994" lon="151.3610782">
  <ele>526.77</ele>
  <time>2026-09-01T20:01:45Z</time>
  <course>270.5</course>
  <speed>17.31</speed>
  <fix>3d</fix>
</trkpt>
<trkpt lat="-27.2426028" lon="151.3651059">
  <ele>542.97</ele>
  <time>2026-09-01T20:01:45Z</time>
  <course>250.01</course>
  <speed>0.0</speed>
  <fix>3d</fix>
</trkpt>
<trkpt lat="-27.2443991" lon="151.3610434">
  <ele>526.38</ele>
  <time>2026-09-01T20:01:45Z</time>
  <course>270.5</course>
  <speed>17.14</speed>
  <fix>3d</fix>
</trkpt>
<trkpt lat="-27.2426028" lon="151.3651057">
  <ele>542.85</ele>
  <time>2026-09-01T20:01:45Z</time>
  <course>250.0</course>
  <speed>0.0632455532033676</speed>
  <fix>3d</fix>
</trkpt>
<trkpt lat="-27.2443991" lon="151.3610434">
  <ele>526.38</ele>
  <time>2026-09-01T20:01:45Z</time>
  <course>270.5</course>
  <speed>17.14</speed>
  <fix>3d</fix>
</trkpt>
<trkpt lat="-27.2426028" lon="151.3651056">
  <ele>542.64</ele>
  <time>2026-09-01T20:01:45Z</time>
  <course>249.96</course>
  <speed>0.21189620100417092</speed>
  <fix>3d</fix>
</trkpt>
<trkpt lat="-27.2435009" lon="151.3630659">
  <ele>534.52</ele>
  <time>2026-09-01T20:01:45Z</time>
  <course>270.41</course>
  <speed>8.56</speed>
  <fix>3d</fix>
</trkpt>
<trkpt lat="-27.2426029" lon="151.3651054">
  <ele>542.34</ele>
  <time>2026-09-01T20:01:45Z</time>
  <course>250.33</course>
  <speed>0.4427188724235731</speed>
  <fix>3d</fix>
</trkpt>
<trkpt lat="-27.2435009" lon="151.3630659">
  <ele>534.52</ele>
  <time>2026-09-01T20:01:45Z</time>
  <course>270.41</course>
  <speed>8.56</speed>
  <fix>3d</fix>
</trkpt>
<trkpt lat="-27.242603" lon="151.3651047">
  <ele>541.96</ele>
  <time>2026-09-01T20:01:45Z</time>
  <course>253.24</course>
  <speed>0.7566372975210779</speed>
  <fix>3d</fix>
</trkpt>
<trkpt lat="-27.2426028" lon="151.3651056">
  <ele>542.6</ele>
  <time>2026-09-01T20:01:45Z</time>
  <course>251.22</course>
  <speed>0.25</speed>
  <fix>3d</fix>
</trkpt>
<trkpt lat="-27.2426031" lon="151.3651037">
  <ele>541.51</ele>
  <time>2026-09-01T20:01:45Z</time>
  <course>262.65</course>
  <speed>1.110720486891279</speed>
  <fix>3d</fix>
</trkpt>
<trkpt lat="-27.2426028" lon="151.3651056">
  <ele>542.6</ele>
  <time>2026-09-01T20:01:45Z</time>
  <course>251.22</course>
  <speed>0.25</speed>
  <fix>3d</fix>
</trkpt>
<trkpt lat="-27.2426033" lon="151.3651026">
  <ele>540.98</ele>
  <time>2026-09-01T20:01:45Z</time>
  <course>263.47</course>
  <speed>1.5246311029229331</speed>
  <fix>3d</fix>
</trkpt>
<trkpt lat="-27.242603" lon="151.3651046">
  <ele>541.94</ele>
  <time>2026-09-01T20:01:45Z</time>
  <course>262.99</course>
  <speed>0.76</speed>
  <fix>3d</fix>
</trkpt>
<trkpt lat="-27.2426045" lon="151.3651012">
  <ele>540.41</ele>
  <time>2026-09-01T20:01:45Z</time>
  <course>251.97</course>
  <speed>2.8931816396486414</speed>
  <fix>3d</fix>
</trkpt>
<trkpt lat="-27.242603" lon="151.3651046">
  <ele>541.94</ele>
  <time>2026-09-01T20:01:45Z</time>
  <course>262.99</course>
  <speed>0.76</speed>
  <fix>3d</fix>
</trkpt>
<trkpt lat="-27.2426076" lon="151.3650997">
  <ele>539.85</ele>
  <time>2026-09-01T20:01:45Z</time>
  <course>243.81</course>
  <speed>4.417793566929085</speed>
  <fix>3d</fix>
</trkpt>
<trkpt lat="-27.2426037" lon="151.3651025">
  <ele>540.98</ele>
  <time>2026-09-01T20:01:45Z</time>
  <course>226.71</course>
  <speed>1.78</speed>
  <fix>3d</fix>
</trkpt>
<trkpt lat="-27.242612" lon="151.3650984">
  <ele>539.35</ele>
  <time>2026-09-01T20:01:45Z</time>
  <course>237.92</course>
  <speed>5.7302443228888595</speed>
  <fix>3d</fix>
</trkpt>
<trkpt lat="-27.2426037" lon="151.3651025">
  <ele>540.98</ele>
  <time>2026-09-01T20:01:45Z</time>
  <course>226.71</course>
  <speed>1.78</speed>
  <fix>3d</fix>
</trkpt>
<trkpt lat="-27.2426175" lon="151.365097">
  <ele>538.93</ele>
  <time>2026-09-01T20:01:45Z</time>
  <course>233.31</course>
  <speed>6.766062370389442</speed>
  <fix>3d</fix>
</trkpt>
<trkpt lat="-27.2426081" lon="151.3650998">
  <ele>539.9</ele>
  <time>2026-09-01T20:01:45Z</time>
  <course>199.19</course>
  <speed>4.2</speed>
  <fix>3d</fix>
</trkpt>
<trkpt lat="-27.2426238" lon="151.3650956">
  <ele>538.62</ele>
  <time>2026-09-01T20:01:45Z</time>
  <course>229.87</course>
  <speed>7.529807434456741</speed>
  <fix>3d</fix>
</trkpt>
<trkpt lat="-27.2426081" lon="151.3650998">
  <ele>539.9</ele>
  <time>2026-09-01T20:01:45Z</time>
  <course>199.19</course>
  <speed>4.2</speed>
  <fix>3d</fix>
</trkpt>
<trkpt lat="-27.2426306" lon="151.3650935">
  <ele>538.44</ele>
  <time>2026-09-01T20:01:45Z</time>
  <course>227.52</course>
  <speed>7.972283236313171</speed>
  <fix>3d</fix>
</trkpt>
<trkpt lat="-27.2426176" lon="151.365097">
  <ele>539.0</ele>
  <time>2026-09-01T20:01:45Z</time>
  <course>192.84</course>
  <speed>6.59</speed>
  <fix>3d</fix>
</trkpt>
<trkpt lat="-27.2426374" lon="151.3650906">
  <ele>538.34</ele>
  <time>2026-09-01T20:01:45Z</time>
  <course>226.28</course>
  <speed>8.268718159424713</speed>
  <fix>3d</fix>
</trkpt>
<trkpt lat="-27.2426176" lon="151.365097">
  <ele>539.0</ele>
  <time>2026-09-01T20:01:45Z</time>
  <course>192.84</course>
  <speed>6.59</speed>
  <fix>3d</fix>
</trkpt>
<trkpt lat="-27.242644" lon="151.3650865">
  <ele>538.29</ele>
  <time>2026-09-01T20:01:45Z</time>
  <course>226.21</course>
  <speed>8.584060810595414</speed>
  <fix>3d</fix>
</trkpt>
<trkpt lat="-27.2426303" lon="151.3650932">
  <ele>538.49</ele>
  <time>2026-09-01T20:01:45Z</time>
  <course>198.9</course>
  <speed>7.84</speed>
  <fix>3d</fix>
</trkpt>
<trkpt lat="-27.2426505" lon="151.3650813">
  <ele>538.28</ele>
  <time>2026-09-01T20:01:45Z</time>
  <course>227.29</course>
  <speed>8.975845364086883</speed>
  <fix>3d</fix>
</trkpt>
<trkpt lat="-27.2426303" lon="151.3650932">
  <ele>538.49</ele>
  <time>2026-09-01T20:01:45Z</time>
  <course>198.9</course>
  <speed>7.84</speed>
  <fix>3d</fix>
</trkpt>
<trkpt lat="-27.2426567" lon="151.3650753">
  <ele>538.25</ele>
  <time>2026-09-01T20:01:45Z</time>
  <course>229.56</course>
  <speed>9.427963725004462</speed>
  <fix>3d</fix>
</trkpt>
<trkpt lat="-27.2426437" lon="151.3650861">
  <ele>538.31</ele>
  <time>2026-09-01T20:01:45Z</time>
  <course>211.42</course>
  <speed>8.55</speed>
  <fix>3d</fix>
</trkpt>
<trkpt lat="-27.2426627" lon="151.3650683">
  <ele>538.21</ele>
  <time>2026-09-01T20:01:45Z</time>
  <course>232.68</course>
  <speed>9.92931518283109</speed>
  <fix>3d</fix>
</trkpt>
<trkpt lat="-27.2426437" lon="151.3650861">
  <ele>538.31</ele>
  <time>2026-09-01T20:01:45Z</time>
  <course>211.42</course>
  <speed>8.55</speed>
  <fix>3d</fix>
</trkpt>
<trkpt lat="-27.2426684" lon="151.3650601">
  <ele>538.14</ele>
  <time>2026-09-01T20:01:45Z</time>
  <course>236.28</course>
  <speed>10.45640473585448</speed>
  <fix>3d</fix>
</trkpt>
<trkpt lat="-27.2426564" lon="151.365075">
  <ele>538.24</ele>
  <time>2026-09-01T20:01:45Z</time>
  <course>223.55</course>
  <speed>9.4</speed>
  <fix>3d</fix>
</trkpt>
<trkpt lat="-27.2426738" lon="151.3650513">
  <ele>538.06</ele>
  <time>2026-09-01T20:01:45Z</time>
  <course>239.89</course>
  <speed>10.985849989873337</speed>
  <fix>3d</fix>
</trkpt>
<trkpt lat="-27.2426564" lon="151.365075">
  <ele>538.24</ele>
  <time>2026-09-01T20:01:45Z</time>
  <course>223.55</course>
  <speed>9.4</speed>
  <fix>3d</fix>
</trkpt>
<trkpt lat="-27.2426789" lon="151.3650414">
  <ele>537.96</ele>
  <time>2026-09-01T20:01:45Z</time>
  <course>243.47</course>
  <speed>11.522569157961257</speed>
  <fix>3d</fix>
</trkpt>
<trkpt lat="-27.242668" lon="151.36506">
  <ele>538.14</ele>
  <time>2026-09-01T20:01:45Z</time>
  <course>233.56</course>
  <speed>10.41</speed>
  <fix>3d</fix>
</trkpt>
<trkpt lat="-27.2426835" lon="151.3650305">
  <ele>537.85</ele>
  <time>2026-09-01T20:01:45Z</time>
  <course>246.73</course>
  <speed>12.066420347393837</speed>
  <fix>3d</fix>
</trkpt>
<trkpt lat="-27.242668" lon="151.36506">
  <ele>538.14</ele>
  <time>2026-09-01T20:01:45Z</time>
  <course>233.56</course>
  <speed>10.41</speed>
  <fix>3d</fix>
</trkpt>
<trkpt lat="-27.2426876" lon="151.365019">
  <ele>537.73</ele>
  <time>2026-09-01T20:01:45Z</time>
  <course>249.52</course>
  <speed>12.617258022248732</speed>
  <fix>3d</fix>
</trkpt>
<trkpt lat="-27.2426784" lon="151.3650412">
  <ele>537.95</ele>
  <time>2026-09-01T20:01:45Z</time>
  <course>242.2</course>
  <speed>11.48</speed>
  <fix>3d</fix>
</trkpt>
<trkpt lat="-27.2426913" lon="151.3650066">
  <ele>537.6</ele>
  <time>2026-09-01T20:01:45Z</time>
  <course>251.98</course>
  <speed>13.166335860823237</speed>
  <fix>3d</fix>
</trkpt>
<trkpt lat="-27.2426784" lon="151.3650412">
  <ele>537.95</ele>
  <time>2026-09-01T20:01:45Z</time>
  <course>242.2</course>
  <speed>11.48</speed>
  <fix>3d</fix>
</trkpt>
<trkpt lat="-27.2426945" lon="151.3649935">
  <ele>537.47</ele>
  <time>2026-09-01T20:01:45Z</time>
  <course>254.35</course>
  <speed>13.713132391981054</speed>
  <fix>3d</fix>
</trkpt>
<trkpt lat="-27.2426872" lon="151.365019">
  <ele>537.72</ele>
  <time>2026-09-01T20:01:45Z</time>
  <course>249.69</course>
  <speed>12.58</speed>
  <fix>3d</fix>
</trkpt>
<trkpt lat="-27.2426972" lon="151.3649797">
  <ele>537.35</ele>
  <time>2026-09-01T20:01:45Z</time>
  <course>256.6</course>
  <speed>14.242148714291675</speed>
  <fix>3d</fix>
</trkpt>
<trkpt lat="-27.2426872" lon="151.365019">
  <ele>537.72</ele>
  <time>2026-09-01T20:01:45Z</time>
  <course>249.69</course>
  <speed>12.58</speed>
  <fix>3d</fix>
</trkpt>
<trkpt lat="-27.2426994" lon="151.3649653">
  <ele>537.24</ele>
  <time>2026-09-01T20:01:45Z</time>
  <course>258.73</course>
  <speed>14.753447054841114</speed>
  <fix>3d</fix>
</trkpt>
<trkpt lat="-27.2426941" lon="151.3649936">
  <ele>537.48</ele>
  <time>2026-09-01T20:01:45Z</time>
  <course>256.05</course>
  <speed>13.67</speed>
  <fix>3d</fix>
</trkpt>
<trkpt lat="-27.2427011" lon="151.3649501">
  <ele>537.14</ele>
  <time>2026-09-01T20:01:45Z</time>
  <course>260.77</course>
  <speed>15.263846173229078</speed>
  <fix>3d</fix>
</trkpt>
<trkpt lat="-27.2426941" lon="151.3649936">
  <ele>537.48</ele>
  <time>2026-09-01T20:01:45Z</time>
  <course>256.05</course>
  <speed>13.67</speed>
  <fix>3d</fix>
</trkpt>
<trkpt lat="-27.2427024" lon="151.3649346">
  <ele>537.06</ele>
  <time>2026-09-01T20:01:45Z</time>
  <course>262.65</course>
  <speed>15.745793088949188</speed>
  <fix>3d</fix>
</trkpt>
<trkpt lat="-27.242699" lon="151.3649656">
  <ele>537.25</ele>
  <time>2026-09-01T20:01:45Z</time>
  <course>261.28</course>
  <speed>14.72</speed>
  <fix>3d</fix>
</trkpt>
<trkpt lat="-27.2427033" lon="151.3649184">
  <ele>536.99</ele>
  <time>2026-09-01T20:01:45Z</time>
  <course>264.37</course>
  <speed>16.227341125396975</speed>
  <fix>3d</fix>
</trkpt>
<trkpt lat="-27.242699" lon="151.3649656">
  <ele>537.25</ele>
  <time>2026-09-01T20:01:45Z</time>
  <course>261.28</course>
  <speed>14.72</speed>
  <fix>3d</fix>
</trkpt>
<trkpt lat="-27.2427038" lon="151.3649019">
  <ele>536.94</ele>
  <time>2026-09-01T20:01:45Z</time>
  <course>265.86</course>
  <speed>16.683264069120288</speed>
  <fix>3d</fix>
</trkpt>
<trkpt lat="-27.2427021" lon="151.364935">
  <ele>537.07</ele>
  <time>2026-09-01T20:01:45Z</time>
  <course>265.46</course>
  <speed>15.71</speed>
  <fix>3d</fix>
</trkpt>
<trkpt lat="-27.2427039" lon="151.3648848">
  <ele>536.9</ele>
  <time>2026-09-01T20:01:45Z</time>
  <course>267.16</course>
  <speed>17.13007297123979</speed>
  <fix>3d</fix>
</trkpt>
<trkpt lat="-27.2427021" lon="151.364935">
  <ele>537.07</ele>
  <time>2026-09-01T20:01:45Z</time>
  <course>265.46</course>
  <speed>15.71</speed>
  <fix>3d</fix>
</trkpt>
<trkpt lat="-27.2427037" lon="151.3648672">
  <ele>536.88</ele>
  <time>2026-09-01T20:01:45Z</time>
  <course>268.34</course>
  <speed>17.554557812716332</speed>
  <fix>3d</fix>
</trkpt>
<trkpt lat="-27.2427036" lon="151.3649023">
  <ele>536.95</ele>
  <time>2026-09-01T20:01:45Z</time>
  <course>268.73</course>
  <speed>16.65</speed>
  <fix>3d</fix>
</trkpt>
<trkpt lat="-27.2427032" lon="151.3648493">
  <ele>536.87</ele>
  <time>2026-09-01T20:01:45Z</time>
  <course>269.44</course>
  <speed>17.974426277353054</speed>
  <fix>3d</fix>
</trkpt>
<trkpt lat="-27.2427036" lon="151.3649023">
  <ele>536.95</ele>
  <time>2026-09-01T20:01:45Z</time>
  <course>268.73</course>
  <speed>16.65</speed>
  <fix>3d</fix>
</trkpt>
<trkpt lat="-27.2427024" lon="151.3648309">
  <ele>536.88</ele>
  <time>2026-09-01T20:01:45Z</time>
  <course>270.42</course>
  <speed>18.377227756111637</speed>
  <fix>3d</fix>
</trkpt>
<trkpt lat="-27.2427035" lon="151.3648677">
  <ele>536.88</ele>
  <time>2026-09-01T20:01:45Z</time>
  <course>271.22</course>
  <speed>17.53</speed>
  <fix>3d</fix>
</trkpt>
<trkpt lat="-27.2427014" lon="151.3648122">
  <ele>536.9</ele>
  <time>2026-09-01T20:01:45Z</time>
  <course>271.24</course>
  <speed>18.77166481695217</speed>
  <fix>3d</fix>
</trkpt>
<trkpt lat="-27.2427035" lon="151.3648677">
  <ele>536.88</ele>
  <time>2026-09-01T20:01:45Z</time>
  <course>271.22</course>
  <speed>17.53</speed>
  <fix>3d</fix>
</trkpt>
<trkpt lat="-27.2427003" lon="151.3647931">
  <ele>536.94</ele>
  <time>2026-09-01T20:01:45Z</time>
  <course>271.87</course>
  <speed>19.145748875403125</speed>
  <fix>3d</fix>
</trkpt>
<trkpt lat="-27.2427023" lon="151.3648314">
  <ele>536.88</ele>
  <time>2026-09-01T20:01:45Z</time>
  <course>273.05</course>
  <speed>18.36</speed>
  <fix>3d</fix>
</trkpt>
<trkpt lat="-27.2426989" lon="151.3647737">
  <ele>536.99</ele>
  <time>2026-09-01T20:01:45Z</time>
  <course>272.48</course>
  <speed>19.50905430819239</speed>
  <fix>3d</fix>
</trkpt>
<trkpt lat="-27.2427023" lon="151.3648314">
  <ele>536.88</ele>
  <time>2026-09-01T20:01:45Z</time>
  <course>273.05</course>
  <speed>18.36</speed>
  <fix>3d</fix>
</trkpt>
<trkpt lat="-27.2426973" lon="151.3647538">
  <ele>537.04</ele>
  <time>2026-09-01T20:01:45Z</time>
  <course>273.19</course>
  <speed>19.85177322054632</speed>
  <fix>3d</fix>
</trkpt>
<trkpt lat="-27.2427001" lon="151.3647936">
  <ele>536.94</ele>
  <time>2026-09-01T20:01:45Z</time>
  <course>274.32</course>
  <speed>19.13</speed>
  <fix>3d</fix>
</trkpt>
<trkpt lat="-27.2426956" lon="151.3647337">
  <ele>537.12</ele>
  <time>2026-09-01T20:01:45Z</time>
  <course>273.74</course>
  <speed>20.16258415977476</speed>
  <fix>3d</fix>
</trkpt>
<trkpt lat="-27.2427001" lon="151.3647936">
  <ele>536.94</ele>
  <time>2026-09-01T20:01:45Z</time>
  <course>274.32</course>
  <speed>19.13</speed>
  <fix>3d</fix>
</trkpt>
<trkpt lat="-27.2426938" lon="151.3647133">
  <ele>537.19</ele>
  <time>2026-09-01T20:01:45Z</time>
  <course>274.14</course>
  <speed>20.443045272170192</speed>
  <fix>3d</fix>
</trkpt>
<trkpt lat="-27.2426972" lon="151.3647543">
  <ele>537.05</ele>
  <time>2026-09-01T20:01:46Z</time>
  <course>275.17</course>
  <speed>19.83</speed>
  <fix>3d</fix>
</trkpt>
<trkpt lat="-27.2426919" lon="151.3646927">
  <ele>537.26</ele>
  <time>2026-09-01T20:01:46Z</time>
  <course>274.41</course>
  <speed>20.692000869901396</speed>
  <fix>3d</fix>
</trkpt>
<trkpt lat="-27.2426972" lon="151.3647543">
  <ele>537.05</ele>
  <time>2026-09-01T20:01:46Z</time>
  <course>275.17</course>
  <speed>19.83</speed>
  <fix>3d</fix>
</trkpt>
<trkpt lat="-27.24269" lon="151.3646718">
  <ele>537.32</ele>
  <time>2026-09-01T20:01:46Z</time>
  <course>274.77</course>
  <speed>20.909256323456365</speed>
  <fix>3d</fix>
</trkpt>
<trkpt lat="-27.2426938" lon="151.3647139">
  <ele>537.19</ele>
  <time>2026-09-01T20:01:46Z</time>
  <course>275.74</course>
  <speed>20.42</speed>
  <fix>3d</fix>
</trkpt>
<trkpt lat="-27.2426879" lon="151.3646507">
  <ele>537.38</ele>
  <time>2026-09-01T20:01:46Z</time>
  <course>275.05</course>
  <speed>21.106788007652895</speed>
  <fix>3d</fix>
</trkpt>
<trkpt lat="-27.2426938" lon="151.3647139">
  <ele>537.19</ele>
  <time>2026-09-01T20:01:46Z</time>
  <course>275.74</course>
  <speed>20.42</speed>
  <fix>3d</fix>
</trkpt>
<trkpt lat="-27.2426858" lon="151.3646293">
  <ele>537.41</ele>
  <time>2026-09-01T20:01:46Z</time>
  <course>275.29</course>
  <speed>21.262497501469575</speed>
  <fix>3d</fix>
</trkpt>
<trkpt lat="-27.2426899" lon="151.3646724">
  <ele>537.32</ele>
  <time>2026-09-01T20:01:46Z</time>
  <course>276.13</course>
  <speed>20.89</speed>
  <fix>3d</fix>
</trkpt>
<trkpt lat="-27.2426836" lon="151.364608">
  <ele>537.46</ele>
  <time>2026-09-01T20:01:46Z</time>
  <course>275.58</course>
  <speed>21.38848755756236</speed>
  <fix>3d</fix>
</trkpt>
<trkpt lat="-27.2426899" lon="151.3646724">
  <ele>537.32</ele>
  <time>2026-09-01T20:01:46Z</time>
  <course>276.13</course>
  <speed>20.89</speed>
  <fix>3d</fix>
</trkpt>
<trkpt lat="-27.2426814" lon="151.3645865">
  <ele>537.47</ele>
  <time>2026-09-01T20:01:46Z</time>
  <course>275.85</course>
  <speed>21.493554847907312</speed>
  <fix>3d</fix>
</trkpt>
<trkpt lat="-27.2426858" lon="151.36463">
  <ele>537.41</ele>
  <time>2026-09-01T20:01:46Z</time>
  <course>276.4</course>
  <speed>21.24</speed>
  <fix>3d</fix>
</trkpt>
<trkpt lat="-27.2426792" lon="151.3645647">
  <ele>537.48</ele>
  <time>2026-09-01T20:01:46Z</time>
  <course>276.0</course>
  <speed>21.567725888465848</speed>
  <fix>3d</fix>
</trkpt>
<trkpt lat="-27.2426858" lon="151.36463">
  <ele>537.41</ele>
  <time>2026-09-01T20:01:46Z</time>
  <course>276.4</course>
  <speed>21.24</speed>
  <fix>3d</fix>
</trkpt>
<trkpt lat="-27.2426769" lon="151.3645431">
  <ele>537.47</ele>
  <time>2026-09-01T20:01:46Z</time>
  <course>276.13</course>
  <speed>21.641943073578215</speed>
  <fix>3d</fix>
</trkpt>
<trkpt lat="-27.2426814" lon="151.3645871">
  <ele>537.46</ele>
  <time>2026-09-01T20:01:46Z</time>
  <course>276.62</course>
  <speed>21.48</speed>
  <fix>3d</fix>
</trkpt>
<trkpt lat="-27.2426746" lon="151.3645214">
  <ele>537.45</ele>
  <time>2026-09-01T20:01:46Z</time>
  <course>276.23</course>
  <speed>21.71501093713747</speed>
  <fix>3d</fix>
</trkpt>
<trkpt lat="-27.2426814" lon="151.3645871">
  <ele>537.46</ele>
  <time>2026-09-01T20:01:46Z</time>
  <course>276.62</course>
  <speed>21.48</speed>
  <fix>3d</fix>
</trkpt>
<trkpt lat="-27.2426722" lon="151.3644995">
  <ele>537.41</ele>
  <time>2026-09-01T20:01:46Z</time>
  <course>276.34</course>
  <speed>21.788099963053227</speed>
  <fix>3d</fix>
</trkpt>
<trkpt lat="-27.242677" lon="151.3645439">
  <ele>537.46</ele>
  <time>2026-09-01T20:01:46Z</time>
  <course>276.79</course>
  <speed>21.64</speed>
  <fix>3d</fix>
</trkpt>
<trkpt lat="-27.2426699" lon="151.3644776">
  <ele>537.37</ele>
  <time>2026-09-01T20:01:46Z</time>
  <course>276.41</course>
  <speed>21.851283715150466</speed>
  <fix>3d</fix>
</trkpt>
<trkpt lat="-27.242677" lon="151.3645439">
  <ele>537.46</ele>
  <time>2026-09-01T20:01:46Z</time>
  <course>276.79</course>
  <speed>21.64</speed>
  <fix>3d</fix>
</trkpt>
<trkpt lat="-27.2426675" lon="151.3644555">
  <ele>537.32</ele>
  <time>2026-09-01T20:01:46Z</time>
  <course>276.45</course>
  <speed>21.882275932818324</speed>
  <fix>3d</fix>
</trkpt>
<trkpt lat="-27.2426723" lon="151.3645003">
  <ele>537.41</ele>
  <time>2026-09-01T20:01:46Z</time>
  <course>276.91</course>
  <speed>21.78</speed>
  <fix>3d</fix>
</trkpt>
<trkpt lat="-27.2426651" lon="151.3644337">
  <ele>537.26</ele>
  <time>2026-09-01T20:01:46Z</time>
  <course>276.54</course>
  <speed>21.913269952245834</speed>
  <fix>3d</fix>
</trkpt>
<trkpt lat="-27.2426723" lon="151.3645003">
  <ele>537.41</ele>
  <time>2026-09-01T20:01:46Z</time>
  <course>276.91</course>
  <speed>21.78</speed>
  <fix>3d</fix>
</trkpt>
<trkpt lat="-27.2426627" lon="151.3644117">
  <ele>537.2</ele>
  <time>2026-09-01T20:01:46Z</time>
  <course>276.63</course>
  <speed>21.9343406556933</speed>
  <fix>3d</fix>
</trkpt>
<trkpt lat="-27.2426675" lon="151.3644565">
  <ele>537.32</ele>
  <time>2026-09-01T20:01:46Z</time>
  <course>276.98</course>
  <speed>21.88</speed>
  <fix>3d</fix>
</trkpt>
<trkpt lat="-27.2426602" lon="151.3643897">
  <ele>537.14</ele>
  <time>2026-09-01T20:01:46Z</time>
  <course>276.72</course>
  <speed>21.96411618982198</speed>
  <fix>3d</fix>
</trkpt>
<trkpt lat="-27.2426675" lon="151.3644565">
  <ele>537.32</ele>
  <time>2026-09-01T20:01:46Z</time>
  <course>276.98</course>
  <speed>21.88</speed>
  <fix>3d</fix>
</trkpt>
<trkpt lat="-27.2426578" lon="151.3643677">
  <ele>537.08</ele>
  <time>2026-09-01T20:01:46Z</time>
  <course>276.74</course>
  <speed>21.985188195692118</speed>
  <fix>3d</fix>
</trkpt>
<trkpt lat="-27.2426627" lon="151.3644125">
  <ele>537.2</ele>
  <time>2026-09-01T20:01:46Z</time>
  <course>277.02</course>
  <speed>21.94</speed>
  <fix>3d</fix>
</trkpt>
<trkpt lat="-27.2426554" lon="151.3643456">
  <ele>537.02</ele>
  <time>2026-09-01T20:01:46Z</time>
  <course>276.79</course>
  <speed>22.00503805949901</speed>
  <fix>3d</fix>
</trkpt>
<trkpt lat="-27.2426627" lon="151.3644125">
  <ele>537.2</ele>
  <time>2026-09-01T20:01:46Z</time>
  <course>277.02</course>
  <speed>21.94</speed>
  <fix>3d</fix>
</trkpt>
<trkpt lat="-27.242653" lon="151.3643234">
  <ele>536.96</ele>
  <time>2026-09-01T20:01:46Z</time>
  <course>276.82</course>
  <speed>22.034813364310576</speed>
  <fix>3d</fix>
</trkpt>
<trkpt lat="-27.2426579" lon="151.3643684">
  <ele>537.08</ele>
  <time>2026-09-01T20:01:46Z</time>
  <course>277.03</course>
  <speed>21.99</speed>
  <fix>3d</fix>
</trkpt>
<trkpt lat="-27.2426506" lon="151.3643013">
  <ele>536.9</ele>
  <time>2026-09-01T20:01:46Z</time>
  <course>276.81</course>
  <speed>22.05466390584994</speed>
  <fix>3d</fix>
</trkpt>
<trkpt lat="-27.2426579" lon="151.3643684">
  <ele>537.08</ele>
  <time>2026-09-01T20:01:46Z</time>
  <course>277.03</course>
  <speed>21.99</speed>
  <fix>3d</fix>
</trkpt>
<trkpt lat="-27.2426481" lon="151.3642793">
  <ele>536.85</ele>
  <time>2026-09-01T20:01:46Z</time>
  <course>276.81</course>
  <speed>22.07451471720273</speed>
  <fix>3d</fix>
</trkpt>
<trkpt lat="-27.242653" lon="151.3643242">
  <ele>536.96</ele>
  <time>2026-09-01T20:01:46Z</time>
  <course>277.03</course>
  <speed>22.03</speed>
  <fix>3d</fix>
</trkpt>
<trkpt lat="-27.2426457" lon="151.3642572">
  <ele>536.79</ele>
  <time>2026-09-01T20:01:46Z</time>
  <course>276.83</course>
  <speed>22.09315052227726</speed>
  <fix>3d</fix>
</trkpt>
<trkpt lat="-27.242653" lon="151.3643242">
  <ele>536.96</ele>
  <time>2026-09-01T20:01:46Z</time>
  <course>277.03</course>
  <speed>22.03</speed>
  <fix>3d</fix>
</trkpt>
<trkpt lat="-27.2426433" lon="151.3642349">
  <ele>536.75</ele>
  <time>2026-09-01T20:01:46Z</time>
  <course>276.88</course>
  <speed>22.101866437022913</speed>
  <fix>3d</fix>
</trkpt>
<trkpt lat="-27.2426482" lon="151.36428">
  <ele>536.85</ele>
  <time>2026-09-01T20:01:46Z</time>
  <course>276.99</course>
  <speed>22.07</speed>
  <fix>3d</fix>
</trkpt>
<trkpt lat="-27.2426409" lon="151.3642128">
  <ele>536.7</ele>
  <time>2026-09-01T20:01:46Z</time>
  <course>276.86</course>
  <speed>22.12051536470161</speed>
  <fix>3d</fix>
</trkpt>
<trkpt lat="-27.2426482" lon="151.36428">
  <ele>536.85</ele>
  <time>2026-09-01T20:01:46Z</time>
  <course>276.99</course>
  <speed>22.07</speed>
  <fix>3d</fix>
</trkpt>
<trkpt lat="-27.2426385" lon="151.3641906">
  <ele>536.65</ele>
  <time>2026-09-01T20:01:46Z</time>
  <course>276.84</course>
  <speed>22.139171167864436</speed>
  <fix>3d</fix>
</trkpt>
<trkpt lat="-27.2426434" lon="151.3642357">
  <ele>536.75</ele>
  <time>2026-09-01T20:01:46Z</time>
  <course>276.95</course>
  <speed>22.11</speed>
  <fix>3d</fix>
</trkpt>
<trkpt lat="-27.2426362" lon="151.3641683">
  <ele>536.61</ele>
  <time>2026-09-01T20:01:46Z</time>
  <course>276.81</course>
  <speed>22.14790509280731</speed>
  <fix>3d</fix>
</trkpt>
<trkpt lat="-27.2426434" lon="151.3642357">
  <ele>536.75</ele>
  <time>2026-09-01T20:01:46Z</time>
  <course>276.95</course>
  <speed>22.11</speed>
  <fix>3d</fix>
</trkpt>
<trkpt lat="-27.2426338" lon="151.3641462">
  <ele>536.56</ele>
  <time>2026-09-01T20:01:46Z</time>
  <course>276.78</course>
  <speed>22.166573934643125</speed>
  <fix>3d</fix>
</trkpt>
<trkpt lat="-27.2426386" lon="151.3641913">
  <ele>536.65</ele>
  <time>2026-09-01T20:01:46Z</time>
  <course>276.89</course>
  <speed>22.14</speed>
  <fix>3d</fix>
</trkpt>
<trkpt lat="-27.2426314" lon="151.3641238">
  <ele>536.51</ele>
  <time>2026-09-01T20:01:46Z</time>
  <course>276.73</course>
  <speed>22.18407086176926</speed>
  <fix>3d</fix>
</trkpt>
<trkpt lat="-27.2426386" lon="151.3641913">
  <ele>536.65</ele>
  <time>2026-09-01T20:01:46Z</time>
  <course>276.89</course>
  <speed>22.14</speed>
  <fix>3d</fix>
</trkpt>
<trkpt lat="-27.2426291" lon="151.3641017">
  <ele>536.46</ele>
  <time>2026-09-01T20:01:46Z</time>
  <course>276.68</course>
  <speed>22.19165834271968</speed>
  <fix>3d</fix>
</trkpt>
<trkpt lat="-27.2426338" lon="151.3641469">
  <ele>536.56</ele>
  <time>2026-09-01T20:01:46Z</time>
  <course>276.81</course>
  <speed>22.17</speed>
  <fix>3d</fix>
</trkpt>
<trkpt lat="-27.2426268" lon="151.3640793">
  <ele>536.41</ele>
  <time>2026-09-01T20:01:46Z</time>
  <course>276.67</course>
  <speed>22.210357943986406</speed>
  <fix>3d</fix>
</trkpt>
<trkpt lat="-27.2426338" lon="151.3641469">
  <ele>536.56</ele>
  <time>2026-09-01T20:01:46Z</time>
  <course>276.81</course>
  <speed>22.17</speed>
  <fix>3d</fix>
</trkpt>
<trkpt lat="-27.2426244" lon="151.3640571">
  <ele>536.36</ele>
  <time>2026-09-01T20:01:46Z</time>
  <course>276.6</course>
  <speed>22.237843870303614</speed>
  <fix>3d</fix>
</trkpt>
<trkpt lat="-27.2426291" lon="151.3641023">
  <ele>536.45</ele>
  <time>2026-09-01T20:01:46Z</time>
  <course>276.72</course>
  <speed>22.2</speed>
  <fix>3d</fix>
</trkpt>
<trkpt lat="-27.2426222" lon="151.3640347">
  <ele>536.29</ele>
  <time>2026-09-01T20:01:46Z</time>
  <course>276.53</course>
  <speed>22.25541956468132</speed>
  <fix>3d</fix>
</trkpt>
<trkpt lat="-27.2426291" lon="151.3641023">
  <ele>536.45</ele>
  <time>2026-09-01T20:01:46Z</time>
  <course>276.72</course>
  <speed>22.2</speed>
  <fix>3d</fix>
</trkpt>
<trkpt lat="-27.2426199" lon="151.3640124">
  <ele>536.24</ele>
  <time>2026-09-01T20:01:46Z</time>
  <course>276.52</course>
  <speed>22.282953125651908</speed>
  <fix>3d</fix>
</trkpt>
<trkpt lat="-27.2426245" lon="151.3640578">
  <ele>536.35</ele>
  <time>2026-09-01T20:01:46Z</time>
  <course>276.61</course>
  <speed>22.24</speed>
  <fix>3d</fix>
</trkpt>
<trkpt lat="-27.2426176" lon="151.36399">
  <ele>536.18</ele>
  <time>2026-09-01T20:01:46Z</time>
  <course>276.43</course>
  <speed>22.320448024177296</speed>
  <fix>3d</fix>
</trkpt>
<trkpt lat="-27.2426245" lon="151.3640578">
  <ele>536.35</ele>
  <time>2026-09-01T20:01:46Z</time>
  <course>276.61</course>
  <speed>22.24</speed>
  <fix>3d</fix>
</trkpt>
<trkpt lat="-27.2426154" lon="151.3639676">
  <ele>536.12</ele>
  <time>2026-09-01T20:01:46Z</time>
  <course>276.34</course>
  <speed>22.357969496356326</speed>
  <fix>3d</fix>
</trkpt>
<trkpt lat="-27.2426199" lon="151.3640131">
  <ele>536.24</ele>
  <time>2026-09-01T20:01:46Z</time>
  <course>276.5</course>
  <speed>22.29</speed>
  <fix>3d</fix>
</trkpt>
<trkpt lat="-27.2426131" lon="151.3639451">
  <ele>536.04</ele>
  <time>2026-09-01T20:01:46Z</time>
  <course>276.34</course>
  <speed>22.395517408624432</speed>
  <fix>3d</fix>
</trkpt>
<trkpt lat="-27.2426199" lon="151.3640131">
  <ele>536.24</ele>
  <time>2026-09-01T20:01:46Z</time>
  <course>276.5</course>
  <speed>22.29</speed>
  <fix>3d</fix>
</trkpt>
<trkpt lat="-27.2426109" lon="151.3639226">
  <ele>535.98</ele>
  <time>2026-09-01T20:01:46Z</time>
  <course>276.3</course>
  <speed>22.433091628217454</speed>
  <fix>3d</fix>
</trkpt>
<trkpt lat="-27.2426154" lon="151.3639683">
  <ele>536.11</ele>
  <time>2026-09-01T20:01:46Z</time>
  <course>276.38</course>
  <speed>22.36</speed>
  <fix>3d</fix>
</trkpt>
<trkpt lat="-27.2426087" lon="151.3639001">
  <ele>535.91</ele>
  <time>2026-09-01T20:01:46Z</time>
  <course>276.24</course>
  <speed>22.48171256821864</speed>
  <fix>3d</fix>
</trkpt>
<trkpt lat="-27.2426154" lon="151.3639683">
  <ele>536.11</ele>
  <time>2026-09-01T20:01:46Z</time>
  <course>276.38</course>
  <speed>22.36</speed>
  <fix>3d</fix>
</trkpt>
<trkpt lat="-27.2426066" lon="151.3638775">
  <ele>535.84</ele>
  <time>2026-09-01T20:01:46Z</time>
  <course>276.21</course>
  <speed>22.519329474919985</speed>
  <fix>3d</fix>
</trkpt>
<trkpt lat="-27.2426109" lon="151.3639233">
  <ele>535.98</ele>
  <time>2026-09-01T20:01:46Z</time>
  <course>276.27</course>
  <speed>22.44</speed>
  <fix>3d</fix>
</trkpt>
<trkpt lat="-27.2426044" lon="151.3638547">
  <ele>535.77</ele>
  <time>2026-09-01T20:01:46Z</time>
  <course>276.13</course>
  <speed>22.57792063056295</speed>
  <fix>3d</fix>
</trkpt>
<trkpt lat="-27.2426109" lon="151.3639233">
  <ele>535.98</ele>
  <time>2026-09-01T20:01:46Z</time>
  <course>276.27</course>
  <speed>22.44</speed>
  <fix>3d</fix>
</trkpt>
<trkpt lat="-27.2426022" lon="151.3638318">
  <ele>535.7</ele>
  <time>2026-09-01T20:01:46Z</time>
  <course>276.11</course>
  <speed>22.625525408264004</speed>
  <fix>3d</fix>
</trkpt>
<trkpt lat="-27.2426066" lon="151.363878">
  <ele>535.84</ele>
  <time>2026-09-01T20:01:46Z</time>
  <course>276.16</course>
  <speed>22.53</speed>
  <fix>3d</fix>
</trkpt>
<trkpt lat="-27.2426001" lon="151.3638092">
  <ele>535.63</ele>
  <time>2026-09-01T20:01:46Z</time>
  <course>276.06</course>
  <speed>22.674201198719217</speed>
  <fix>3d</fix>
</trkpt>
<trkpt lat="-27.2426066" lon="151.363878">
  <ele>535.84</ele>
  <time>2026-09-01T20:01:46Z</time>
  <course>276.16</course>
  <speed>22.53</speed>
  <fix>3d</fix>
</trkpt>
<trkpt lat="-27.242598" lon="151.3637863">
  <ele>535.56</ele>
  <time>2026-09-01T20:01:46Z</time>
  <course>276.02</course>
  <speed>22.731797113294846</speed>
  <fix>3d</fix>
</trkpt>
<trkpt lat="-27.2426023" lon="151.3638327">
  <ele>535.7</ele>
  <time>2026-09-01T20:01:46Z</time>
  <course>276.05</course>
  <speed>22.62</speed>
  <fix>3d</fix>
</trkpt>
<trkpt lat="-27.2425959" lon="151.3637635">
  <ele>535.49</ele>
  <time>2026-09-01T20:01:46Z</time>
  <course>276.01</course>
  <speed>22.780500433484775</speed>
  <fix>3d</fix>
</trkpt>
<trkpt lat="-27.2426023" lon="151.3638327">
  <ele>535.7</ele>
  <time>2026-09-01T20:01:46Z</time>
  <course>276.05</course>
  <speed>22.62</speed>
  <fix>3d</fix>
</trkpt>
<trkpt lat="-27.2425938" lon="151.3637406">
  <ele>535.43</ele>
  <time>2026-09-01T20:01:46Z</time>
  <course>275.97</course>
  <speed>22.839161543279126</speed>
  <fix>3d</fix>
</trkpt>
<trkpt lat="-27.242598" lon="151.3637871">
  <ele>535.56</ele>
  <time>2026-09-01T20:01:46Z</time>
  <course>275.95</course>
  <speed>22.73</speed>
  <fix>3d</fix>
</trkpt>
<trkpt lat="-27.2425917" lon="151.3637176">
  <ele>535.36</ele>
  <time>2026-09-01T20:01:46Z</time>
  <course>275.92</course>
  <speed>22.887885441866402</speed>
  <fix>3d</fix>
</trkpt>
<trkpt lat="-27.242598" lon="151.3637871">
  <ele>535.56</ele>
  <time>2026-09-01T20:01:46Z</time>
  <course>275.95</course>
  <speed>22.73</speed>
  <fix>3d</fix>
</trkpt>
<trkpt lat="-27.2425896" lon="151.3636946">
  <ele>535.29</ele>
  <time>2026-09-01T20:01:46Z</time>
  <course>275.88</course>
  <speed>22.947577214163587</speed>
  <fix>3d</fix>
</trkpt>
<trkpt lat="-27.2425938" lon="151.3637413">
  <ele>535.43</ele>
  <time>2026-09-01T20:01:46Z</time>
  <course>275.87</course>
  <speed>22.84</speed>
  <fix>3d</fix>
</trkpt>
<trkpt lat="-27.2425875" lon="151.3636714">
  <ele>535.25</ele>
  <time>2026-09-01T20:01:46Z</time>
  <course>275.79</course>
  <speed>22.995312565825234</speed>
  <fix>3d</fix>
</trkpt>
<trkpt lat="-27.2425938" lon="151.3637413">
  <ele>535.43</ele>
  <time>2026-09-01T20:01:46Z</time>
  <course>275.87</course>
  <speed>22.84</speed>
  <fix>3d</fix>
</trkpt>
<trkpt lat="-27.2425854" lon="151.3636484">
  <ele>535.19</ele>
  <time>2026-09-01T20:01:46Z</time>
  <course>275.73</course>
  <speed>23.054017003550598</speed>
  <fix>3d</fix>
</trkpt>
<trkpt lat="-27.2425896" lon="151.3636953">
  <ele>535.31</ele>
  <time>2026-09-01T20:01:46Z</time>
  <course>275.8</course>
  <speed>22.94</speed>
  <fix>3d</fix>
</trkpt>
<trkpt lat="-27.2425834" lon="151.3636251">
  <ele>535.13</ele>
  <time>2026-09-01T20:01:46Z</time>
  <course>275.74</course>
  <speed>23.113721033187193</speed>
  <fix>3d</fix>
</trkpt>
<trkpt lat="-27.2425896" lon="151.3636953">
  <ele>535.31</ele>
  <time>2026-09-01T20:01:46Z</time>
  <course>275.8</course>
  <speed>22.94</speed>
  <fix>3d</fix>
</trkpt>
<trkpt lat="-27.2425813" lon="151.3636019">
  <ele>535.04</ele>
  <time>2026-09-01T20:01:46Z</time>
  <course>275.69</course>
  <speed>23.172440527488686</speed>
  <fix>3d</fix>
</trkpt>
<trkpt lat="-27.2425854" lon="151.363649">
  <ele>535.19</ele>
  <time>2026-09-01T20:01:46Z</time>
  <course>275.73</course>
  <speed>23.05</speed>
  <fix>3d</fix>
</trkpt>
<trkpt lat="-27.2425793" lon="151.3635785">
  <ele>534.91</ele>
  <time>2026-09-01T20:01:46Z</time>
  <course>275.67</course>
  <speed>23.241123036548814</speed>
  <fix>3d</fix>
</trkpt>
<trkpt lat="-27.2425854" lon="151.363649">
  <ele>535.19</ele>
  <time>2026-09-01T20:01:46Z</time>
  <course>275.73</course>
  <speed>23.05</speed>
  <fix>3d</fix>
</trkpt>
<trkpt lat="-27.2425772" lon="151.363555">
  <ele>534.79</ele>
  <time>2026-09-01T20:01:46Z</time>
  <course>275.64</course>
  <speed>23.330694374578737</speed>
  <fix>3d</fix>
</trkpt>
<trkpt lat="-27.2425813" lon="151.3636025">
  <ele>535.03</ele>
  <time>2026-09-01T20:01:46Z</time>
  <course>275.66</course>
  <speed>23.18</speed>
  <fix>3d</fix>
</trkpt>
<trkpt lat="-27.2425752" lon="151.3635315">
  <ele>534.65</ele>
  <time>2026-09-01T20:01:46Z</time>
  <course>275.65</course>
  <speed>23.4292552165023</speed>
  <fix>3d</fix>
</trkpt>
<trkpt lat="-27.2425813" lon="151.3636025">
  <ele>535.03</ele>
  <time>2026-09-01T20:01:46Z</time>
  <course>275.66</course>
  <speed>23.18</speed>
  <fix>3d</fix>
</trkpt>
<trkpt lat="-27.2425732" lon="151.363508">
  <ele>534.51</ele>
  <time>2026-09-01T20:01:46Z</time>
  <course>275.63</course>
  <speed>23.517878305663544</speed>
  <fix>3d</fix>
</trkpt>
<trkpt lat="-27.2425773" lon="151.3635558">
  <ele>534.79</ele>
  <time>2026-09-01T20:01:46Z</time>
  <course>275.58</course>
  <speed>23.33</speed>
  <fix>3d</fix>
</trkpt>
<trkpt lat="-27.2425711" lon="151.3634842">
  <ele>534.38</ele>
  <time>2026-09-01T20:01:46Z</time>
  <course>275.6</course>
  <speed>23.617421535806994</speed>
  <fix>3d</fix>
</trkpt>
<trkpt lat="-27.2425773" lon="151.3635558">
  <ele>534.79</ele>
  <time>2026-09-01T20:01:46Z</time>
  <course>275.58</course>
  <speed>23.33</speed>
  <fix>3d</fix>
</trkpt>
<trkpt lat="-27.2425691" lon="151.3634605">
  <ele>534.25</ele>
  <time>2026-09-01T20:01:46Z</time>
  <course>275.56</course>
  <speed>23.706066734066198</speed>
  <fix>3d</fix>
</trkpt>
<trkpt lat="-27.2425732" lon="151.3635087">
  <ele>534.51</ele>
  <time>2026-09-01T20:01:46Z</time>
  <course>275.5</course>
  <speed>23.52</speed>
  <fix>3d</fix>
</trkpt>
<trkpt lat="-27.2425671" lon="151.3634367">
  <ele>534.14</ele>
  <time>2026-09-01T20:01:46Z</time>
  <course>275.56</course>
  <speed>23.795665571696034</speed>
  <fix>3d</fix>
</trkpt>
<trkpt lat="-27.2425732" lon="151.3635087">
  <ele>534.51</ele>
  <time>2026-09-01T20:01:46Z</time>
  <course>275.5</course>
  <speed>23.52</speed>
  <fix>3d</fix>
</trkpt>
<trkpt lat="-27.2425651" lon="151.3634127">
  <ele>534.04</ele>
  <time>2026-09-01T20:01:46Z</time>
  <course>275.57</course>
  <speed>23.88620731719458</speed>
  <fix>3d</fix>
</trkpt>
<trkpt lat="-27.2425692" lon="151.3634612">
  <ele>534.26</ele>
  <time>2026-09-01T20:01:46Z</time>
  <course>275.44</course>
  <speed>23.7</speed>
  <fix>3d</fix>
</trkpt>
<trkpt lat="-27.2425631" lon="151.3633885">
  <ele>533.95</ele>
  <time>2026-09-01T20:01:46Z</time>
  <course>275.5</course>
  <speed>23.965852791002455</speed>
  <fix>3d</fix>
</trkpt>
<trkpt lat="-27.2425692" lon="151.3634612">
  <ele>534.26</ele>
  <time>2026-09-01T20:01:46Z</time>
  <course>275.44</course>
  <speed>23.7</speed>
  <fix>3d</fix>
</trkpt>
<trkpt lat="-27.242561" lon="151.3633645">
  <ele>533.88</ele>
  <time>2026-09-01T20:01:46Z</time>
  <course>275.51</course>
  <speed>24.046438405718217</speed>
  <fix>3d</fix>
</trkpt>
<trkpt lat="-27.2425651" lon="151.3634133">
  <ele>534.04</ele>
  <time>2026-09-01T20:01:46Z</time>
  <course>275.4</course>
  <speed>23.88</speed>
  <fix>3d</fix>
</trkpt>
<trkpt lat="-27.242559" lon="151.3633401">
  <ele>533.82</ele>
  <time>2026-09-01T20:01:46Z</time>
  <course>275.48</course>
  <speed>24.11706864442692</speed>
  <fix>3d</fix>
</trkpt>
<trkpt lat="-27.2425651" lon="151.3634133">
  <ele>534.04</ele>
  <time>2026-09-01T20:01:46Z</time>
  <course>275.4</course>
  <speed>23.88</speed>
  <fix>3d</fix>
</trkpt>
<trkpt lat="-27.2425569" lon="151.3633151">
  <ele>533.77</ele>
  <time>2026-09-01T20:01:46Z</time>
  <course>275.48</course>
  <speed>24.187699353183636</speed>
  <fix>3d</fix>
</trkpt>
<trkpt lat="-27.242561" lon="151.3633649">
  <ele>533.88</ele>
  <time>2026-09-01T20:01:46Z</time>
  <course>275.4</course>
  <speed>24.04</speed>
  <fix>3d</fix>
</trkpt>
<trkpt lat="-27.2425548" lon="151.3632907">
  <ele>533.73</ele>
  <time>2026-09-01T20:01:46Z</time>
  <course>275.49</course>
  <speed>24.25833052788258</speed>
  <fix>3d</fix>
</trkpt>
<trkpt lat="-27.242561" lon="151.3633649">
  <ele>533.88</ele>
  <time>2026-09-01T20:01:46Z</time>
  <course>275.4</course>
  <speed>24.04</speed>
  <fix>3d</fix>
</trkpt>
<trkpt lat="-27.2425528" lon="151.3632663">
  <ele>533.7</ele>
  <time>2026-09-01T20:01:46Z</time>
  <course>275.46</course>
  <speed>24.31900696985796</speed>
  <fix>3d</fix>
</trkpt>
<trkpt lat="-27.2425569" lon="151.3633165">
  <ele>533.78</ele>
  <time>2026-09-01T20:01:46Z</time>
  <course>275.42</course>
  <speed>24.19</speed>
  <fix>3d</fix>
</trkpt>
<trkpt lat="-27.2425507" lon="151.3632418">
  <ele>533.68</ele>
  <time>2026-09-01T20:01:46Z</time>
  <course>275.47</course>
  <speed>24.389639193723223</speed>
  <fix>3d</fix>
</trkpt>
<trkpt lat="-27.2425569" lon="151.3633165">
  <ele>533.78</ele>
  <time>2026-09-01T20:01:46Z</time>
  <course>275.42</course>
  <speed>24.19</speed>
  <fix>3d</fix>
</trkpt>
<trkpt lat="-27.2425486" lon="151.3632173">
  <ele>533.66</ele>
  <time>2026-09-01T20:01:46Z</time>
  <course>275.48</course>
  <speed>24.450316971360518</speed>
  <fix>3d</fix>
</trkpt>
<trkpt lat="-27.2425528" lon="151.3632677">
  <ele>533.7</ele>
  <time>2026-09-01T20:01:46Z</time>
  <course>275.44</course>
  <speed>24.32</speed>
  <fix>3d</fix>
</trkpt>
<trkpt lat="-27.2425465" lon="151.3631926">
  <ele>533.65</ele>
  <time>2026-09-01T20:01:46Z</time>
  <course>275.47</course>
  <speed>24.501040794219335</speed>
  <fix>3d</fix>
</trkpt>
<trkpt lat="-27.2425528" lon="151.3632677">
  <ele>533.7</ele>
  <time>2026-09-01T20:01:46Z</time>
  <course>275.44</course>
  <speed>24.32</speed>
  <fix>3d</fix>
</trkpt>
<trkpt lat="-27.2425445" lon="151.3631686">
  <ele>533.64</ele>
  <time>2026-09-01T20:01:46Z</time>
  <course>275.42</course>
  <speed>24.551765720615695</speed>
  <fix>3d</fix>
</trkpt>
<trkpt lat="-27.2425487" lon="151.3632187">
  <ele>533.66</ele>
  <time>2026-09-01T20:01:46Z</time>
  <course>275.45</course>
  <speed>24.44</speed>
  <fix>3d</fix>
</trkpt>
<trkpt lat="-27.2425423" lon="151.3631438">
  <ele>533.65</ele>
  <time>2026-09-01T20:01:46Z</time>
  <course>275.44</course>
  <speed>24.60153856977242</speed>
  <fix>3d</fix>
</trkpt>
<trkpt lat="-27.2425487" lon="151.3632187">
  <ele>533.66</ele>
  <time>2026-09-01T20:01:46Z</time>
  <course>275.45</course>
  <speed>24.44</speed>
  <fix>3d</fix>
</trkpt>
<trkpt lat="-27.2425402" lon="151.3631192">
  <ele>533.66</ele>
  <time>2026-09-01T20:01:46Z</time>
  <course>275.49</course>
  <speed>24.652263587751936</speed>
  <fix>3d</fix>
</trkpt>
<trkpt lat="-27.2425445" lon="151.3631694">
  <ele>533.65</ele>
  <time>2026-09-01T20:01:46Z</time>
  <course>275.46</course>
  <speed>24.55</speed>
  <fix>3d</fix>
</trkpt>
<trkpt lat="-27.2425381" lon="151.3630943">
  <ele>533.66</ele>
  <time>2026-09-01T20:01:46Z</time>
  <course>275.55</course>
  <speed>24.69303545536676</speed>
  <fix>3d</fix>
</trkpt>
<trkpt lat="-27.2425445" lon="151.3631694">
  <ele>533.65</ele>
  <time>2026-09-01T20:01:46Z</time>
  <course>275.46</course>
  <speed>24.55</speed>
  <fix>3d</fix>
</trkpt>
<trkpt lat="-27.242536" lon="151.3630695">
  <ele>533.69</ele>
  <time>2026-09-01T20:01:46Z</time>
  <course>275.53</course>
  <speed>24.733808845384083</speed>
  <fix>3d</fix>
</trkpt>
<trkpt lat="-27.2425403" lon="151.3631199">
  <ele>533.66</ele>
  <time>2026-09-01T20:01:46Z</time>
  <course>275.48</course>
  <speed>24.65</speed>
  <fix>3d</fix>
</trkpt>
<trkpt lat="-27.2425339" lon="151.3630446">
  <ele>533.72</ele>
  <time>2026-09-01T20:01:46Z</time>
  <course>275.57</course>
  <speed>24.763670971808683</speed>
  <fix>3d</fix>
</trkpt>
<trkpt lat="-27.2425403" lon="151.3631199">
  <ele>533.66</ele>
  <time>2026-09-01T20:01:46Z</time>
  <course>275.48</course>
  <speed>24.65</speed>
  <fix>3d</fix>
</trkpt>
<trkpt lat="-27.2425317" lon="151.3630197">
  <ele>533.75</ele>
  <time>2026-09-01T20:01:46Z</time>
  <course>275.58</course>
  <speed>24.794491323679136</speed>
  <fix>3d</fix>
</trkpt>
<trkpt lat="-27.242536" lon="151.3630703">
  <ele>533.69</ele>
  <time>2026-09-01T20:01:46Z</time>
  <course>275.5</course>
  <speed>24.73</speed>
  <fix>3d</fix>
</trkpt>
<trkpt lat="-27.2425296" lon="151.3629947">
  <ele>533.79</ele>
  <time>2026-09-01T20:01:46Z</time>
  <course>275.55</course>
  <speed>24.815360162608965</speed>
  <fix>3d</fix>
</trkpt>
<trkpt lat="-27.242536" lon="151.3630703">
  <ele>533.69</ele>
  <time>2026-09-01T20:01:46Z</time>
  <course>275.5</course>
  <speed>24.73</speed>
  <fix>3d</fix>
</trkpt>
<trkpt lat="-27.2425274" lon="151.3629698">
  <ele>533.83</ele>
  <time>2026-09-01T20:01:46Z</time>
  <course>275.5</course>
  <speed>24.795453212232278</speed>
  <fix>3d</fix>
</trkpt>
<trkpt lat="-27.2425317" lon="151.3630205">
  <ele>533.75</ele>
  <time>2026-09-01T20:01:46Z</time>
  <course>275.52</course>
  <speed>24.79</speed>
  <fix>3d</fix>
</trkpt>
<trkpt lat="-27.2425253" lon="151.3629449">
  <ele>533.87</ele>
  <time>2026-09-01T20:01:46Z</time>
  <course>275.51</course>
  <speed>24.71582691313402</speed>
  <fix>3d</fix>
</trkpt>
<trkpt lat="-27.2425317" lon="151.3630205">
  <ele>533.75</ele>
  <time>2026-09-01T20:01:46Z</time>
  <course>275.52</course>
  <speed>24.79</speed>
  <fix>3d</fix>
</trkpt>
<trkpt lat="-27.2425231" lon="151.3629201">
  <ele>533.91</ele>
  <time>2026-09-01T20:01:46Z</time>
  <course>275.53</course>
  <speed>24.575516271281057</speed>
  <fix>3d</fix>
</trkpt>
<trkpt lat="-27.2425274" lon="151.3629706">
  <ele>533.82</ele>
  <time>2026-09-01T20:01:46Z</time>
  <course>275.55</course>
  <speed>24.77</speed>
  <fix>3d</fix>
</trkpt>
<trkpt lat="-27.242521" lon="151.3628954">
  <ele>533.96</ele>
  <time>2026-09-01T20:01:46Z</time>
  <course>275.56</course>
  <speed>24.325727121712106</speed>
  <fix>3d</fix>
</trkpt>
<trkpt lat="-27.2425274" lon="151.3629706">
  <ele>533.82</ele>
  <time>2026-09-01T20:01:46Z</time>
  <course>275.55</course>
  <speed>24.77</speed>
  <fix>3d</fix>
</trkpt>
<trkpt lat="-27.2425189" lon="151.3628712">
  <ele>534.01</ele>
  <time>2026-09-01T20:01:46Z</time>
  <course>275.58</course>
  <speed>24.004326693327602</speed>
  <fix>3d</fix>
</trkpt>
<trkpt lat="-27.2425231" lon="151.3629209">
  <ele>533.91</ele>
  <time>2026-09-01T20:01:46Z</time>
  <course>275.57</course>
  <speed>24.53</speed>
  <fix>3d</fix>
</trkpt>
<trkpt lat="-27.2425168" lon="151.3628472">
  <ele>534.04</ele>
  <time>2026-09-01T20:01:46Z</time>
  <course>275.59</course>
  <speed>23.673951930338966</speed>
  <fix>3d</fix>
</trkpt>
<trkpt lat="-27.2425231" lon="151.3629209">
  <ele>533.91</ele>
  <time>2026-09-01T20:01:46Z</time>
  <course>275.57</course>
  <speed>24.53</speed>
  <fix>3d</fix>
</trkpt>
<trkpt lat="-27.2425147" lon="151.3628235">
  <ele>534.06</ele>
  <time>2026-09-01T20:01:46Z</time>
  <course>275.6</course>
  <speed>23.352552323033127</speed>
  <fix>3d</fix>
</trkpt>
<trkpt lat="-27.2425189" lon="151.3628719">
  <ele>534.0</ele>
  <time>2026-09-01T20:01:46Z</time>
  <course>275.6</course>
  <speed>24.01</speed>
  <fix>3d</fix>
</trkpt>
<trkpt lat="-27.2425126" lon="151.3627995">
  <ele>534.07</ele>
  <time>2026-09-01T20:01:46Z</time>
  <course>275.61</course>
  <speed>23.031152815263066</speed>
  <fix>3d</fix>
</trkpt>
<trkpt lat="-27.2425189" lon="151.3628719">
  <ele>534.0</ele>
  <time>2026-09-01T20:01:46Z</time>
  <course>275.6</course>
  <speed>24.01</speed>
  <fix>3d</fix>
</trkpt>
<trkpt lat="-27.2425105" lon="151.3627765">
  <ele>534.06</ele>
  <time>2026-09-01T20:01:46Z</time>
  <course>275.62</course>
  <speed>22.730640114171884</speed>
  <fix>3d</fix>
</trkpt>
<trkpt lat="-27.2425147" lon="151.3628243">
  <ele>534.05</ele>
  <time>2026-09-01T20:01:46Z</time>
  <course>275.63</course>
  <speed>23.37</speed>
  <fix>3d</fix>
</trkpt>
<trkpt lat="-27.2425085" lon="151.3627538">
  <ele>534.04</ele>
  <time>2026-09-01T20:01:46Z</time>
  <course>275.63</course>
  <speed>22.44904675036337</speed>
  <fix>3d</fix>
</trkpt>
<trkpt lat="-27.2425147" lon="151.3628243">
  <ele>534.05</ele>
  <time>2026-09-01T20:01:46Z</time>
  <course>275.63</course>
  <speed>23.37</speed>
  <fix>3d</fix>
</trkpt>
<trkpt lat="-27.2425066" lon="151.3627314">
  <ele>533.99</ele>
  <time>2026-09-01T20:01:46Z</time>
  <course>275.64</course>
  <speed>22.178390383434053</speed>
  <fix>3d</fix>
</trkpt>
<trkpt lat="-27.2425106" lon="151.362778">
  <ele>534.05</ele>
  <time>2026-09-01T20:01:46Z</time>
  <course>275.66</course>
  <speed>22.76</speed>
  <fix>3d</fix>
</trkpt>
<trkpt lat="-27.2425046" lon="151.3627091">
  <ele>533.94</ele>
  <time>2026-09-01T20:01:46Z</time>
  <course>275.66</course>
  <speed>21.92665045099228</speed>
  <fix>3d</fix>
</trkpt>
<trkpt lat="-27.2425106" lon="151.362778">
  <ele>534.05</ele>
  <time>2026-09-01T20:01:46Z</time>
  <course>275.66</course>
  <speed>22.76</speed>
  <fix>3d</fix>
</trkpt>
<trkpt lat="-27.2425027" lon="151.3626873">
  <ele>533.87</ele>
  <time>2026-09-01T20:01:46Z</time>
  <course>275.67</course>
  <speed>21.6758967519224</speed>
  <fix>3d</fix>
</trkpt>
<trkpt lat="-27.2425067" lon="151.3627328">
  <ele>533.99</ele>
  <time>2026-09-01T20:01:46Z</time>
  <course>275.66</course>
  <speed>22.2</speed>
  <fix>3d</fix>
</trkpt>
<trkpt lat="-27.2425008" lon="151.3626655">
  <ele>533.78</ele>
  <time>2026-09-01T20:01:46Z</time>
  <course>275.68</course>
  <speed>21.434108332281983</speed>
  <fix>3d</fix>
</trkpt>
<trkpt lat="-27.2425067" lon="151.3627328">
  <ele>533.99</ele>
  <time>2026-09-01T20:01:46Z</time>
  <course>275.66</course>
  <speed>22.2</speed>
  <fix>3d</fix>
</trkpt>
<trkpt lat="-27.2424989" lon="151.3626442">
  <ele>533.69</ele>
  <time>2026-09-01T20:01:46Z</time>
  <course>275.68</course>
  <speed>21.21320814964111</speed>
  <fix>3d</fix>
</trkpt>
<trkpt lat="-27.2425027" lon="151.3626886">
  <ele>533.86</ele>
  <time>2026-09-01T20:01:46Z</time>
  <course>275.66</course>
  <speed>21.69</speed>
  <fix>3d</fix>
</trkpt>
<trkpt lat="-27.242497" lon="151.3626229">
  <ele>533.59</ele>
  <time>2026-09-01T20:01:46Z</time>
  <course>275.67</course>
  <speed>20.99230811511683</speed>
  <fix>3d</fix>
</trkpt>
<trkpt lat="-27.2425027" lon="151.3626886">
  <ele>533.86</ele>
  <time>2026-09-01T20:01:46Z</time>
  <course>275.66</course>
  <speed>21.69</speed>
  <fix>3d</fix>
</trkpt>
<trkpt lat="-27.2424951" lon="151.3626019">
  <ele>533.48</ele>
  <time>2026-09-01T20:01:46Z</time>
  <course>275.67</course>
  <speed>20.78037535753385</speed>
  <fix>3d</fix>
</trkpt>
<trkpt lat="-27.242499" lon="151.3626455">
  <ele>533.69</ele>
  <time>2026-09-01T20:01:46Z</time>
  <course>275.66</course>
  <speed>21.23</speed>
  <fix>3d</fix>
</trkpt>
<trkpt lat="-27.2424933" lon="151.3625812">
  <ele>533.36</ele>
  <time>2026-09-01T20:01:46Z</time>
  <course>275.67</course>
  <speed>20.579378027530375</speed>
  <fix>3d</fix>
</trkpt>
<trkpt lat="-27.242499" lon="151.3626455">
  <ele>533.69</ele>
  <time>2026-09-01T20:01:46Z</time>
  <course>275.66</course>
  <speed>21.23</speed>
  <fix>3d</fix>
</trkpt>
<trkpt lat="-27.2424915" lon="151.3625606">
  <ele>533.23</ele>
  <time>2026-09-01T20:01:46Z</time>
  <course>275.66</course>
  <speed>20.388332447750603</speed>
  <fix>3d</fix>
</trkpt>
<trkpt lat="-27.2424952" lon="151.3626033">
  <ele>533.47</ele>
  <time>2026-09-01T20:01:46Z</time>
  <course>275.65</course>
  <speed>20.8</speed>
  <fix>3d</fix>
</trkpt>
<trkpt lat="-27.2424898" lon="151.3625406">
  <ele>533.1</ele>
  <time>2026-09-01T20:01:46Z</time>
  <course>275.66</course>
  <speed>20.20723880197391</speed>
  <fix>3d</fix>
</trkpt>
<trkpt lat="-27.2424952" lon="151.3626033">
  <ele>533.47</ele>
  <time>2026-09-01T20:01:46Z</time>
  <course>275.65</course>
  <speed>20.8</speed>
  <fix>3d</fix>
</trkpt>
<trkpt lat="-27.242488" lon="151.3625204">
  <ele>532.96</ele>
  <time>2026-09-01T20:01:46Z</time>
  <course>275.65</course>
  <speed>20.036097424398793</speed>
  <fix>3d</fix>
</trkpt>
<trkpt lat="-27.2424916" lon="151.3625619">
  <ele>533.23</ele>
  <time>2026-09-01T20:01:46Z</time>
  <course>275.64</course>
  <speed>20.41</speed>
  <fix>3d</fix>
</trkpt>
<trkpt lat="-27.2424862" lon="151.3625003">
  <ele>532.82</ele>
  <time>2026-09-01T20:01:46Z</time>
  <course>275.65</course>
  <speed>19.855004406949902</speed>
  <fix>3d</fix>
</trkpt>
<trkpt lat="-27.2424916" lon="151.3625619">
  <ele>533.23</ele>
  <time>2026-09-01T20:01:46Z</time>
  <course>275.64</course>
  <speed>20.41</speed>
  <fix>3d</fix>
</trkpt>
<trkpt lat="-27.2424845" lon="151.3624805">
  <ele>532.66</ele>
  <time>2026-09-01T20:01:46Z</time>
  <course>275.64</course>
  <speed>19.694793728292765</speed>
  <fix>3d</fix>
</trkpt>
<trkpt lat="-27.242488" lon="151.3625212">
  <ele>532.95</ele>
  <time>2026-09-01T20:01:46Z</time>
  <course>275.63</course>
  <speed>20.04</speed>
  <fix>3d</fix>
</trkpt>
<trkpt lat="-27.2424828" lon="151.3624607">
  <ele>532.52</ele>
  <time>2026-09-01T20:01:46Z</time>
  <course>275.64</course>
  <speed>19.533604378096737</speed>
  <fix>3d</fix>
</trkpt>
<trkpt lat="-27.242488" lon="151.3625212">
  <ele>532.95</ele>
  <time>2026-09-01T20:01:46Z</time>
  <course>275.63</course>
  <speed>20.04</speed>
  <fix>3d</fix>
</trkpt>
<trkpt lat="-27.242481" lon="151.3624412">
  <ele>532.37</ele>
  <time>2026-09-01T20:01:46Z</time>
  <course>275.63</course>
  <speed>19.382368276348483</speed>
  <fix>3d</fix>
</trkpt>
<trkpt lat="-27.2424845" lon="151.3624812">
  <ele>532.67</ele>
  <time>2026-09-01T20:01:46Z</time>
  <course>275.62</course>
  <speed>19.7</speed>
  <fix>3d</fix>
</trkpt>
<trkpt lat="-27.2424793" lon="151.3624218">
  <ele>532.21</ele>
  <time>2026-09-01T20:01:46Z</time>
  <course>275.63</course>
  <speed>19.232108568745133</speed>
  <fix>3d</fix>
</trkpt>
<trkpt lat="-27.2424845" lon="151.3624812">
  <ele>532.67</ele>
  <time>2026-09-01T20:01:46Z</time>
  <course>275.62</course>
  <speed>19.7</speed>
  <fix>3d</fix>
</trkpt>
<trkpt lat="-27.2424777" lon="151.3624026">
  <ele>532.04</ele>
  <time>2026-09-01T20:01:46Z</time>
  <course>275.62</course>
  <speed>19.08087262155481</speed>
  <fix>3d</fix>
</trkpt>
<trkpt lat="-27.2424811" lon="151.3624418">
  <ele>532.37</ele>
  <time>2026-09-01T20:01:46Z</time>
  <course>275.61</course>
  <speed>19.39</speed>
  <fix>3d</fix>
</trkpt>
<trkpt lat="-27.242476" lon="151.3623835">
  <ele>531.88</ele>
  <time>2026-09-01T20:01:46Z</time>
  <course>275.62</course>
  <speed>18.950517143339386</speed>
  <fix>3d</fix>
</trkpt>
<trkpt lat="-27.2424811" lon="151.3624418">
  <ele>532.37</ele>
  <time>2026-09-01T20:01:46Z</time>
  <course>275.61</course>
  <speed>19.39</speed>
  <fix>3d</fix>
</trkpt>
<trkpt lat="-27.2424743" lon="151.3623638">
  <ele>531.71</ele>
  <time>2026-09-01T20:01:46Z</time>
  <course>275.62</course>
  <speed>18.809234434181526</speed>
  <fix>3d</fix>
</trkpt>
<trkpt lat="-27.2424777" lon="151.3624031">
  <ele>532.05</ele>
  <time>2026-09-01T20:01:46Z</time>
  <course>275.61</course>
  <speed>19.09</speed>
  <fix>3d</fix>
</trkpt>
<trkpt lat="-27.2424726" lon="151.362345">
  <ele>531.54</ele>
  <time>2026-09-01T20:01:46Z</time>
  <course>275.61</course>
  <speed>18.678878445988133</speed>
  <fix>3d</fix>
</trkpt>
<trkpt lat="-27.2424777" lon="151.3624031">
  <ele>532.05</ele>
  <time>2026-09-01T20:01:46Z</time>
  <course>275.61</course>
  <speed>19.09</speed>
  <fix>3d</fix>
</trkpt>
<trkpt lat="-27.242471" lon="151.3623263">
  <ele>531.37</ele>
  <time>2026-09-01T20:01:46Z</time>
  <course>275.61</course>
  <speed>18.54754970339748</speed>
  <fix>3d</fix>
</trkpt>
<trkpt lat="-27.2424743" lon="151.362365">
  <ele>531.72</ele>
  <time>2026-09-01T20:01:46Z</time>
  <course>275.6</course>
  <speed>18.82</speed>
  <fix>3d</fix>
</trkpt>
<trkpt lat="-27.2424694" lon="151.3623077">
  <ele>531.2</ele>
  <time>2026-09-01T20:01:46Z</time>
  <course>275.6</course>
  <speed>18.4271457366571</speed>
  <fix>3d</fix>
</trkpt>
<trkpt lat="-27.2424743" lon="151.362365">
  <ele>531.72</ele>
  <time>2026-09-01T20:01:46Z</time>
  <course>275.6</course>
  <speed>18.82</speed>
  <fix>3d</fix>
</trkpt>
<trkpt lat="-27.2424678" lon="151.3622892">
  <ele>531.02</ele>
  <time>2026-09-01T20:01:46Z</time>
  <course>275.6</course>
  <speed>18.30674192749764</speed>
  <fix>3d</fix>
</trkpt>
<trkpt lat="-27.2424711" lon="151.3623274">
  <ele>531.38</ele>
  <time>2026-09-01T20:01:46Z</time>
  <course>275.59</course>
  <speed>18.56</speed>
  <fix>3d</fix>
</trkpt>
<trkpt lat="-27.2424662" lon="151.3622709">
  <ele>530.84</ele>
  <time>2026-09-01T20:01:46Z</time>
  <course>275.59</course>
  <speed>18.196290830825934</speed>
  <fix>3d</fix>
</trkpt>
<trkpt lat="-27.2424711" lon="151.3623274">
  <ele>531.38</ele>
  <time>2026-09-01T20:01:46Z</time>
  <course>275.59</course>
  <speed>18.56</speed>
  <fix>3d</fix>
</trkpt>
<trkpt lat="-27.2424646" lon="151.3622527">
  <ele>530.66</ele>
  <time>2026-09-01T20:01:46Z</time>
  <course>275.59</course>
  <speed>18.084869366406824</speed>
  <fix>3d</fix>
</trkpt>
<trkpt lat="-27.2424679" lon="151.3622904">
  <ele>531.03</ele>
  <time>2026-09-01T20:01:46Z</time>
  <course>275.58</course>
  <speed>18.32</speed>
  <fix>3d</fix>
</trkpt>
<trkpt lat="-27.242463" lon="151.3622345">
  <ele>530.49</ele>
  <time>2026-09-01T20:01:46Z</time>
  <course>275.59</course>
  <speed>17.974417932161252</speed>
  <fix>3d</fix>
</trkpt>
<trkpt lat="-27.2424679" lon="151.3622904">
  <ele>531.03</ele>
  <time>2026-09-01T20:01:46Z</time>
  <course>275.58</course>
  <speed>18.32</speed>
  <fix>3d</fix>
</trkpt>
<trkpt lat="-27.2424615" lon="151.3622165">
  <ele>530.29</ele>
  <time>2026-09-01T20:01:46Z</time>
  <course>275.58</course>
  <speed>17.86396652482309</speed>
  <fix>3d</fix>
</trkpt>
<trkpt lat="-27.2424647" lon="151.3622538">
  <ele>530.68</ele>
  <time>2026-09-01T20:01:46Z</time>
  <course>275.57</course>
  <speed>18.09</speed>
  <fix>3d</fix>
</trkpt>
<trkpt lat="-27.2424599" lon="151.3621986">
  <ele>530.12</ele>
  <time>2026-09-01T20:01:46Z</time>
  <course>275.58</course>
  <speed>17.763468129844465</speed>
  <fix>3d</fix>
</trkpt>
<trkpt lat="-27.2424647" lon="151.3622538">
  <ele>530.68</ele>
  <time>2026-09-01T20:01:46Z</time>
  <course>275.57</course>
  <speed>18.09</speed>
  <fix>3d</fix>
</trkpt>
<trkpt lat="-27.2424584" lon="151.3621808">
  <ele>529.93</ele>
  <time>2026-09-01T20:01:46Z</time>
  <course>275.57</course>
  <speed>17.662969738976514</speed>
  <fix>3d</fix>
</trkpt>
<trkpt lat="-27.2424615" lon="151.3622176">
  <ele>530.31</ele>
  <time>2026-09-01T20:01:46Z</time>
  <course>275.57</course>
  <speed>17.88</speed>
  <fix>3d</fix>
</trkpt>
<trkpt lat="-27.2424568" lon="151.3621631">
  <ele>529.75</ele>
  <time>2026-09-01T20:01:46Z</time>
  <course>275.57</course>
  <speed>17.57242442009639</speed>
  <fix>3d</fix>
</trkpt>
<trkpt lat="-27.2424615" lon="151.3622176">
  <ele>530.31</ele>
  <time>2026-09-01T20:01:46Z</time>
  <course>275.57</course>
  <speed>17.88</speed>
  <fix>3d</fix>
</trkpt>
<trkpt lat="-27.2424553" lon="151.3621454">
  <ele>529.56</ele>
  <time>2026-09-01T20:01:46Z</time>
  <course>275.57</course>
  <speed>17.48187918960659</speed>
  <fix>3d</fix>
</trkpt>
<trkpt lat="-27.2424584" lon="151.3621818">
  <ele>529.94</ele>
  <time>2026-09-01T20:01:46Z</time>
  <course>275.56</course>
  <speed>17.67</speed>
  <fix>3d</fix>
</trkpt>
<trkpt lat="-27.2424538" lon="151.3621279">
  <ele>529.37</ele>
  <time>2026-09-01T20:01:46Z</time>
  <course>275.56</course>
  <speed>17.391334048887682</speed>
  <fix>3d</fix>
</trkpt>
<trkpt lat="-27.2424584" lon="151.3621818">
  <ele>529.94</ele>
  <time>2026-09-01T20:01:46Z</time>
  <course>275.56</course>
  <speed>17.67</speed>
  <fix>3d</fix>
</trkpt>
<trkpt lat="-27.2424523" lon="151.3621105">
  <ele>529.18</ele>
  <time>2026-09-01T20:01:46Z</time>
  <course>275.56</course>
  <speed>17.300788999349134</speed>
  <fix>3d</fix>
</trkpt>
<trkpt lat="-27.2424554" lon="151.3621465">
  <ele>529.57</ele>
  <time>2026-09-01T20:01:46Z</time>
  <course>275.55</course>
  <speed>17.49</speed>
  <fix>3d</fix>
</trkpt>
<trkpt lat="-27.2424508" lon="151.362093">
  <ele>528.99</ele>
  <time>2026-09-01T20:01:46Z</time>
  <course>275.56</course>
  <speed>17.21024404243008</speed>
  <fix>3d</fix>
</trkpt>
<trkpt lat="-27.2424554" lon="151.3621465">
  <ele>529.57</ele>
  <time>2026-09-01T20:01:46Z</time>
  <course>275.55</course>
  <speed>17.49</speed>
  <fix>3d</fix>
</trkpt>
<trkpt lat="-27.2424493" lon="151.3620757">
  <ele>528.79</ele>
  <time>2026-09-01T20:01:46Z</time>
  <course>275.55</course>
  <speed>17.12965265263718</speed>
  <fix>3d</fix>
</trkpt>
<trkpt lat="-27.2424524" lon="151.3621115">
  <ele>529.19</ele>
  <time>2026-09-01T20:01:46Z</time>
  <course>275.54</course>
  <speed>17.31</speed>
  <fix>3d</fix>
</trkpt>
<trkpt lat="-27.2406577" lon="151.3661741">
  <ele>542.97</ele>
  <time>2026-09-01T20:01:46Z</time>
  <course>250.01</course>
  <speed>0.0</speed>
  <fix>3d</fix>
</trkpt>
<trkpt lat="-27.2424524" lon="151.3621115">
  <ele>529.19</ele>
  <time>2026-09-01T20:01:46Z</time>
  <course>275.54</course>
  <speed>17.31</speed>
  <fix>3d</fix>
</trkpt>
<trkpt lat="-27.2406577" lon="151.3661741">
  <ele>542.86</ele>
  <time>2026-09-01T20:01:46Z</time>
  <course>250.0</course>
  <speed>0.0632455532033676</speed>
  <fix>3d</fix>
</trkpt>
<trkpt lat="-27.2415543" lon="151.3641341">
  <ele>535.99</ele>
  <time>2026-09-01T20:01:46Z</time>
  <course>275.53</course>
  <speed>8.61</speed>
  <fix>3d</fix>
</trkpt>
<trkpt lat="-27.2406577" lon="151.3661739">
  <ele>542.66</ele>
  <time>2026-09-01T20:01:46Z</time>
  <course>249.97</course>
  <speed>0.20248456731316586</speed>
  <fix>3d</fix>
</trkpt>
<trkpt lat="-27.2415543" lon="151.3641341">
  <ele>535.99</ele>
  <time>2026-09-01T20:01:46Z</time>
  <course>275.53</course>
  <speed>8.61</speed>
  <fix>3d</fix>
</trkpt>
<trkpt lat="-27.2406578" lon="151.3661736">
  <ele>542.35</ele>
  <time>2026-09-01T20:01:46Z</time>
  <course>250.41</course>
  <speed>0.43965895873961214</speed>
  <fix>3d</fix>
</trkpt>
<trkpt lat="-27.2406577" lon="151.366174">
  <ele>542.81</ele>
  <time>2026-09-01T20:01:46Z</time>
  <course>249.52</course>
  <speed>0.1</speed>
  <fix>3d</fix>
</trkpt>
<trkpt lat="-27.2406579" lon="151.366173">
  <ele>541.97</ele>
  <time>2026-09-01T20:01:46Z</time>
  <course>253.49</course>
  <speed>0.7566372975210779</speed>
  <fix>3d</fix>
</trkpt>
<trkpt lat="-27.2406577" lon="151.366174">
  <ele>542.81</ele>
  <time>2026-09-01T20:01:46Z</time>
  <course>249.52</course>
  <speed>0.1</speed>
  <fix>3d</fix>
</trkpt>
<trkpt lat="-27.240658" lon="151.3661721">
  <ele>541.52</ele>
  <time>2026-09-01T20:01:46Z</time>
  <course>263.1</course>
  <speed>1.110720486891279</speed>
  <fix>3d</fix>
</trkpt>
<trkpt lat="-27.2406578" lon="151.3661735">
  <ele>542.32</ele>
  <time>2026-09-01T20:01:46Z</time>
  <course>258.79</course>
  <speed>0.47</speed>
  <fix>3d</fix>
</trkpt>
<trkpt lat="-27.2406581" lon="151.3661708">
  <ele>541.0</ele>
  <time>2026-09-01T20:01:46Z</time>
  <course>263.25</course>
  <speed>1.5352198539622917</speed>
  <fix>3d</fix>
</trkpt>
<trkpt lat="-27.2406578" lon="151.3661735">
  <ele>542.32</ele>
  <time>2026-09-01T20:01:46Z</time>
  <course>258.79</course>
  <speed>0.47</speed>
  <fix>3d</fix>
</trkpt>
<trkpt lat="-27.2406595" lon="151.3661694">
  <ele>540.41</ele>
  <time>2026-09-01T20:01:46Z</time>
  <course>251.7</course>
  <speed>2.917413237784459</speed>
  <fix>3d</fix>
</trkpt>
<trkpt lat="-27.2406579" lon="151.366172">
  <ele>541.51</ele>
  <time>2026-09-01T20:01:46Z</time>
  <course>252.75</course>
  <speed>1.1</speed>
  <fix>3d</fix>
</trkpt>
<trkpt lat="-27.2406625" lon="151.3661679">
  <ele>539.87</ele>
  <time>2026-09-01T20:01:46Z</time>
  <course>243.62</course>
  <speed>4.437172523127764</speed>
  <fix>3d</fix>
</trkpt>
<trkpt lat="-27.2406579" lon="151.366172">
  <ele>541.51</ele>
  <time>2026-09-01T20:01:46Z</time>
  <course>252.75</course>
  <speed>1.1</speed>
  <fix>3d</fix>
</trkpt>
<trkpt lat="-27.240667" lon="151.3661666">
  <ele>539.37</ele>
  <time>2026-09-01T20:01:46Z</time>
  <course>237.84</course>
  <speed>5.74540686113699</speed>
  <fix>3d</fix>
</trkpt>
<trkpt lat="-27.2406602" lon="151.3661695">
  <ele>540.46</ele>
  <time>2026-09-01T20:01:46Z</time>
  <course>210.32</course>
  <speed>2.71</speed>
  <fix>3d</fix>
</trkpt>
<trkpt lat="-27.2406725" lon="151.3661654">
  <ele>538.96</ele>
  <time>2026-09-01T20:01:46Z</time>
  <course>233.35</course>
  <speed>6.7800073746272576</speed>
  <fix>3d</fix>
</trkpt>
<trkpt lat="-27.2406602" lon="151.3661695">
  <ele>540.46</ele>
  <time>2026-09-01T20:01:46Z</time>
  <course>210.32</course>
  <speed>2.71</speed>
  <fix>3d</fix>
</trkpt>
<trkpt lat="-27.2406789" lon="151.366164">
  <ele>538.65</ele>
  <time>2026-09-01T20:01:46Z</time>
  <course>229.89</course>
  <speed>7.532927717693832</speed>
  <fix>3d</fix>
</trkpt>
<trkpt lat="-27.2406672" lon="151.3661667">
  <ele>539.44</ele>
  <time>2026-09-01T20:01:46Z</time>
  <course>193.73</course>
  <speed>5.53</speed>
  <fix>3d</fix>
</trkpt>
<trkpt lat="-27.2406856" lon="151.3661618">
  <ele>538.47</ele>
  <time>2026-09-01T20:01:46Z</time>
  <course>227.44</course>
  <speed>7.97902876295104</speed>
  <fix>3d</fix>
</trkpt>
<trkpt lat="-27.2406672" lon="151.3661667">
  <ele>539.44</ele>
  <time>2026-09-01T20:01:46Z</time>
  <course>193.73</course>
  <speed>5.53</speed>
  <fix>3d</fix>
</trkpt>
<trkpt lat="-27.2406924" lon="151.3661589">
  <ele>538.38</ele>
  <time>2026-09-01T20:01:46Z</time>
  <course>226.06</course>
  <speed>8.284358756113837</speed>
  <fix>3d</fix>
</trkpt>
<trkpt lat="-27.2406786" lon="151.3661637">
  <ele>538.73</ele>
  <time>2026-09-01T20:01:46Z</time>
  <course>194.41</course>
  <speed>7.33</speed>
  <fix>3d</fix>
</trkpt>
<trkpt lat="-27.2406991" lon="151.366155">
  <ele>538.34</ele>
  <time>2026-09-01T20:01:46Z</time>
  <course>225.9</course>
  <speed>8.609262453892319</speed>
  <fix>3d</fix>
</trkpt>
<trkpt lat="-27.2406786" lon="151.3661637">
  <ele>538.73</ele>
  <time>2026-09-01T20:01:46Z</time>
  <course>194.41</course>
  <speed>7.33</speed>
  <fix>3d</fix>
</trkpt>
<trkpt lat="-27.2407057" lon="151.36615">
  <ele>538.32</ele>
  <time>2026-09-01T20:01:46Z</time>
  <course>226.93</course>
  <speed>9.002410788227785</speed>
  <fix>3d</fix>
</trkpt>
<trkpt lat="-27.2406919" lon="151.3661587">
  <ele>538.41</ele>
  <time>2026-09-01T20:01:46Z</time>
  <course>204.33</course>
  <speed>8.22</speed>
  <fix>3d</fix>
</trkpt>
<trkpt lat="-27.240712" lon="151.366144">
  <ele>538.29</ele>
  <time>2026-09-01T20:01:46Z</time>
  <course>229.07</course>
  <speed>9.452068556670545</speed>
  <fix>3d</fix>
</trkpt>
<trkpt lat="-27.2406919" lon="151.3661587">
  <ele>538.41</ele>
  <time>2026-09-01T20:01:46Z</time>
  <course>204.33</course>
  <speed>8.22</speed>
  <fix>3d</fix>
</trkpt>
<trkpt lat="-27.2407181" lon="151.3661368">
  <ele>538.26</ele>
  <time>2026-09-01T20:01:46Z</time>
  <course>232.03</course>
  <speed>9.950542698767741</speed>
  <fix>3d</fix>
</trkpt>
<trkpt lat="-27.2407052" lon="151.3661498">
  <ele>538.32</ele>
  <time>2026-09-01T20:01:46Z</time>
  <course>217.04</course>
  <speed>8.96</speed>
  <fix>3d</fix>
</trkpt>
<trkpt lat="-27.2407239" lon="151.366129">
  <ele>538.21</ele>
  <time>2026-09-01T20:01:46Z</time>
  <course>235.47</course>
  <speed>10.468027512382646</speed>
  <fix>3d</fix>
</trkpt>
<trkpt lat="-27.2407052" lon="151.3661498">
  <ele>538.32</ele>
  <time>2026-09-01T20:01:46Z</time>
  <course>217.04</course>
  <speed>8.96</speed>
  <fix>3d</fix>
</trkpt>
<trkpt lat="-27.2407294" lon="151.3661201">
  <ele>538.14</ele>
  <time>2026-09-01T20:01:46Z</time>
  <course>238.92</course>
  <speed>10.99905905066429</speed>
  <fix>3d</fix>
</trkpt>
<trkpt lat="-27.2407175" lon="151.3661369">
  <ele>538.26</ele>
  <time>2026-09-01T20:01:46Z</time>
  <course>227.99</course>
  <speed>9.9</speed>
  <fix>3d</fix>
</trkpt>
<trkpt lat="-27.2407345" lon="151.3661101">
  <ele>538.04</ele>
  <time>2026-09-01T20:01:46Z</time>
  <course>242.24</course>
  <speed>11.53557974269174</speed>
  <fix>3d</fix>
</trkpt>
<trkpt lat="-27.2407175" lon="151.3661369">
  <ele>538.26</ele>
  <time>2026-09-01T20:01:46Z</time>
  <course>227.99</course>
  <speed>9.9</speed>
  <fix>3d</fix>
</trkpt>
<trkpt lat="-27.2407392" lon="151.3660995">
  <ele>537.95</ele>
  <time>2026-09-01T20:01:46Z</time>
  <course>245.25</course>
  <speed>12.077305162990625</speed>
  <fix>3d</fix>
</trkpt>
<trkpt lat="-27.2407289" lon="151.3661201">
  <ele>538.14</ele>
  <time>2026-09-01T20:01:46Z</time>
  <course>237.21</course>
  <speed>10.94</speed>
  <fix>3d</fix>
</trkpt>
<trkpt lat="-27.2407435" lon="151.366088">
  <ele>537.84</ele>
  <time>2026-09-01T20:01:46Z</time>
  <course>247.95</course>
  <speed>12.613136009732077</speed>
  <fix>3d</fix>
</trkpt>
<trkpt lat="-27.2407289" lon="151.3661201">
  <ele>538.14</ele>
  <time>2026-09-01T20:01:46Z</time>
  <course>237.21</course>
  <speed>10.94</speed>
  <fix>3d</fix>
</trkpt>
<trkpt lat="-27.2407474" lon="151.3660758">
  <ele>537.73</ele>
  <time>2026-09-01T20:01:46Z</time>
  <course>250.3</course>
  <speed>13.149007567113193</speed>
  <fix>3d</fix>
</trkpt>
<trkpt lat="-27.2407388" lon="151.3660997">
  <ele>537.95</ele>
  <time>2026-09-01T20:01:46Z</time>
  <course>245.14</course>
  <speed>12.02</speed>
  <fix>3d</fix>
</trkpt>
<trkpt lat="-27.2407509" lon="151.3660627">
  <ele>537.61</ele>
  <time>2026-09-01T20:01:46Z</time>
  <course>252.34</course>
  <speed>13.682105101189656</speed>
  <fix>3d</fix>
</trkpt>
<trkpt lat="-27.2407388" lon="151.3660997">
  <ele>537.95</ele>
  <time>2026-09-01T20:01:46Z</time>
  <course>245.14</course>
  <speed>12.02</speed>
  <fix>3d</fix>
</trkpt>
<trkpt lat="-27.2407539" lon="151.3660491">
  <ele>537.5</ele>
  <time>2026-09-01T20:01:46Z</time>
  <course>254.32</course>
  <speed>14.211234992075813</speed>
  <fix>3d</fix>
</trkpt>
<trkpt lat="-27.240747" lon="151.366076">
  <ele>537.73</ele>
  <time>2026-09-01T20:01:46Z</time>
  <course>251.75</course>
  <speed>13.11</speed>
  <fix>3d</fix>
</trkpt>
<trkpt lat="-27.2407565" lon="151.3660348">
  <ele>537.39</ele>
  <time>2026-09-01T20:01:46Z</time>
  <course>256.14</course>
  <speed>14.719745242360684</speed>
  <fix>3d</fix>
</trkpt>
<trkpt lat="-27.240747" lon="151.366076">
  <ele>537.73</ele>
  <time>2026-09-01T20:01:46Z</time>
  <course>251.75</course>
  <speed>13.11</speed>
  <fix>3d</fix>
</trkpt>
<trkpt lat="-27.2407588" lon="151.3660199">
  <ele>537.29</ele>
  <time>2026-09-01T20:01:46Z</time>
  <course>257.84</course>
  <speed>15.234618472413413</speed>
  <fix>3d</fix>
</trkpt>
<trkpt lat="-27.2407535" lon="151.3660494">
  <ele>537.5</ele>
  <time>2026-09-01T20:01:46Z</time>
  <course>257.05</course>
  <speed>14.17</speed>
  <fix>3d</fix>
</trkpt>
<trkpt lat="-27.2407607" lon="151.3660043">
  <ele>537.2</ele>
  <time>2026-09-01T20:01:46Z</time>
  <course>259.42</course>
  <speed>15.738783307486</speed>
  <fix>3d</fix>
</trkpt>
<trkpt lat="-27.2407535" lon="151.3660494">
  <ele>537.5</ele>
  <time>2026-09-01T20:01:46Z</time>
  <course>257.05</course>
  <speed>14.17</speed>
  <fix>3d</fix>
</trkpt>
<trkpt lat="-27.2407622" lon="151.3659883">
  <ele>537.12</ele>
  <time>2026-09-01T20:01:46Z</time>
  <course>260.89</course>
  <speed>16.21715141447474</speed>
  <fix>3d</fix>
</trkpt>
<trkpt lat="-27.2407585" lon="151.3660203">
  <ele>537.29</ele>
  <time>2026-09-01T20:01:46Z</time>
  <course>261.15</course>
  <speed>15.2</speed>
  <fix>3d</fix>
</trkpt>
<trkpt lat="-27.2407635" lon="151.3659716">
  <ele>537.04</ele>
  <time>2026-09-01T20:01:46Z</time>
  <course>262.19</course>
  <speed>16.697607613068406</speed>
  <fix>3d</fix>
</trkpt>
<trkpt lat="-27.2407585" lon="151.3660203">
  <ele>537.29</ele>
  <time>2026-09-01T20:01:46Z</time>
  <course>261.15</course>
  <speed>15.2</speed>
  <fix>3d</fix>
</trkpt>
<trkpt lat="-27.2407645" lon="151.3659545">
  <ele>536.98</ele>
  <time>2026-09-01T20:01:46Z</time>
  <course>263.49</course>
  <speed>17.158009791348178</speed>
  <fix>3d</fix>
</trkpt>
<trkpt lat="-27.240762" lon="151.3659889">
  <ele>537.12</ele>
  <time>2026-09-01T20:01:46Z</time>
  <course>264.26</course>
  <speed>16.19</speed>
  <fix>3d</fix>
</trkpt>
<trkpt lat="-27.2407653" lon="151.365937">
  <ele>536.94</ele>
  <time>2026-09-01T20:01:46Z</time>
  <course>264.67</course>
  <speed>17.60432333263622</speed>
  <fix>3d</fix>
</trkpt>
<trkpt lat="-27.240762" lon="151.3659889">
  <ele>537.12</ele>
  <time>2026-09-01T20:01:46Z</time>
  <course>264.26</course>
  <speed>16.19</speed>
  <fix>3d</fix>
</trkpt>
<trkpt lat="-27.2407658" lon="151.365919">
  <ele>536.9</ele>
  <time>2026-09-01T20:01:46Z</time>
  <course>265.73</course>
  <speed>18.036124860956136</speed>
  <fix>3d</fix>
</trkpt>
<trkpt lat="-27.2407644" lon="151.3659553">
  <ele>536.99</ele>
  <time>2026-09-01T20:01:46Z</time>
  <course>266.62</course>
  <speed>17.13</speed>
  <fix>3d</fix>
</trkpt>
<trkpt lat="-27.2407662" lon="151.3659006">
  <ele>536.89</ele>
  <time>2026-09-01T20:01:46Z</time>
  <course>266.62</course>
  <speed>18.451831887376386</speed>
  <fix>3d</fix>
</trkpt>
<trkpt lat="-27.2407644" lon="151.3659553">
  <ele>536.99</ele>
  <time>2026-09-01T20:01:46Z</time>
  <course>266.62</course>
  <speed>17.13</speed>
  <fix>3d</fix>
</trkpt>
<trkpt lat="-27.2407663" lon="151.3658817">
  <ele>536.89</ele>
  <time>2026-09-01T20:01:46Z</time>
  <course>267.34</course>
  <speed>18.85016976050879</speed>
  <fix>3d</fix>
</trkpt>
<trkpt lat="-27.2407657" lon="151.3659199">
  <ele>536.91</ele>
  <time>2026-09-01T20:01:46Z</time>
  <course>268.39</course>
  <speed>18.0</speed>
  <fix>3d</fix>
</trkpt>
<trkpt lat="-27.2407663" lon="151.3658625">
  <ele>536.9</ele>
  <time>2026-09-01T20:01:46Z</time>
  <course>267.94</course>
  <speed>19.230065002490242</speed>
  <fix>3d</fix>
</trkpt>
<trkpt lat="-27.2407657" lon="151.3659199">
  <ele>536.91</ele>
  <time>2026-09-01T20:01:46Z</time>
  <course>268.39</course>
  <speed>18.0</speed>
  <fix>3d</fix>
</trkpt>
<trkpt lat="-27.2407663" lon="151.3658429">
  <ele>536.93</ele>
  <time>2026-09-01T20:01:46Z</time>
  <course>268.46</course>
  <speed>19.600737231032916</speed>
  <fix>3d</fix>
</trkpt>
<trkpt lat="-27.2407662" lon="151.3658826">
  <ele>536.89</ele>
  <time>2026-09-01T20:01:46Z</time>
  <course>269.65</course>
  <speed>18.82</speed>
  <fix>3d</fix>
</trkpt>
<trkpt lat="-27.2407661" lon="151.3658228">
  <ele>536.98</ele>
  <time>2026-09-01T20:01:46Z</time>
  <course>268.97</course>
  <speed>19.951964815526313</speed>
  <fix>3d</fix>
</trkpt>
<trkpt lat="-27.2407662" lon="151.3658826">
  <ele>536.89</ele>
  <time>2026-09-01T20:01:46Z</time>
  <course>269.65</course>
  <speed>18.82</speed>
  <fix>3d</fix>
</trkpt>
<trkpt lat="-27.2407658" lon="151.3658026">
  <ele>537.04</ele>
  <time>2026-09-01T20:01:46Z</time>
  <course>269.47</course>
  <speed>20.293373302632563</speed>
  <fix>3d</fix>
</trkpt>
<trkpt lat="-27.2407661" lon="151.3658438">
  <ele>536.94</ele>
  <time>2026-09-01T20:01:46Z</time>
  <course>270.47</course>
  <speed>19.57</speed>
  <fix>3d</fix>
</trkpt>
<trkpt lat="-27.2407654" lon="151.3657819">
  <ele>537.11</ele>
  <time>2026-09-01T20:01:46Z</time>
  <course>269.95</course>
  <speed>20.614912078396063</speed>
  <fix>3d</fix>
</trkpt>
<trkpt lat="-27.2407661" lon="151.3658438">
  <ele>536.94</ele>
  <time>2026-09-01T20:01:46Z</time>
  <course>270.47</course>
  <speed>19.57</speed>
  <fix>3d</fix>
</trkpt>
<trkpt lat="-27.240765" lon="151.3657609">
  <ele>537.19</ele>
  <time>2026-09-01T20:01:46Z</time>
  <course>270.39</course>
  <speed>20.916464806462873</speed>
  <fix>3d</fix>
</trkpt>
<trkpt lat="-27.2407658" lon="151.3658036">
  <ele>537.04</ele>
  <time>2026-09-01T20:01:46Z</time>
  <course>271.02</course>
  <speed>20.27</speed>
  <fix>3d</fix>
</trkpt>
<trkpt lat="-27.2407645" lon="151.3657397">
  <ele>537.27</ele>
  <time>2026-09-01T20:01:46Z</time>
  <course>270.68</course>
  <speed>21.188216064595903</speed>
  <fix>3d</fix>
</trkpt>
<trkpt lat="-27.2407658" lon="151.3658036">
  <ele>537.04</ele>
  <time>2026-09-01T20:01:46Z</time>
  <course>271.02</course>
  <speed>20.27</speed>
  <fix>3d</fix>
</trkpt>
<trkpt lat="-27.2407639" lon="151.365718">
  <ele>537.36</ele>
  <time>2026-09-01T20:01:46Z</time>
  <course>270.87</course>
  <speed>21.43985540996021</speed>
  <fix>3d</fix>
</trkpt>
<trkpt lat="-27.2407649" lon="151.3657619">
  <ele>537.19</ele>
  <time>2026-09-01T20:01:46Z</time>
  <course>271.42</course>
  <speed>20.89</speed>
  <fix>3d</fix>
</trkpt>
<trkpt lat="-27.2407633" lon="151.3656964">
  <ele>537.43</ele>
  <time>2026-09-01T20:01:46Z</time>
  <course>271.0</course>
  <speed>21.651318666538536</speed>
  <fix>3d</fix>
</trkpt>
<trkpt lat="-27.2407649" lon="151.3657619">
  <ele>537.19</ele>
  <time>2026-09-01T20:01:46Z</time>
  <course>271.42</course>
  <speed>20.89</speed>
  <fix>3d</fix>
</trkpt>
<trkpt lat="-27.2407627" lon="151.3656744">
  <ele>537.49</ele>
  <time>2026-09-01T20:01:46Z</time>
  <course>271.08</course>
  <speed>21.832544515012447</speed>
  <fix>3d</fix>
</trkpt>
<trkpt lat="-27.2407639" lon="151.365719">
  <ele>537.35</ele>
  <time>2026-09-01T20:01:46Z</time>
  <course>271.73</course>
  <speed>21.41</speed>
  <fix>3d</fix>
</trkpt>
<trkpt lat="-27.240762" lon="151.3656523">
  <ele>537.54</ele>
  <time>2026-09-01T20:01:46Z</time>
  <course>271.23</course>
  <speed>21.983489258987074</speed>
  <fix>3d</fix>
</trkpt>
<trkpt lat="-27.2407639" lon="151.365719">
  <ele>537.35</ele>
  <time>2026-09-01T20:01:46Z</time>
  <course>271.73</course>
  <speed>21.41</speed>
  <fix>3d</fix>
</trkpt>
<trkpt lat="-27.2407613" lon="151.3656299">
  <ele>537.57</ele>
  <time>2026-09-01T20:01:46Z</time>
  <course>271.37</course>
  <speed>22.104481446077852</speed>
  <fix>3d</fix>
</trkpt>
<trkpt lat="-27.2407627" lon="151.3656754">
  <ele>537.48</ele>
  <time>2026-09-01T20:01:46Z</time>
  <course>271.94</course>
  <speed>21.81</speed>
  <fix>3d</fix>
</trkpt>
<trkpt lat="-27.2407606" lon="151.3656077">
  <ele>537.59</ele>
  <time>2026-09-01T20:01:46Z</time>
  <course>271.47</course>
  <speed>22.205145800016716</speed>
  <fix>3d</fix>
</trkpt>
<trkpt lat="-27.2407627" lon="151.3656754">
  <ele>537.48</ele>
  <time>2026-09-01T20:01:46Z</time>
  <course>271.94</course>
  <speed>21.81</speed>
  <fix>3d</fix>
</trkpt>
<trkpt lat="-27.2407598" lon="151.3655852">
  <ele>537.59</ele>
  <time>2026-09-01T20:01:46Z</time>
  <course>271.57</course>
  <speed>22.26585053394548</speed>
  <fix>3d</fix>
</trkpt>
<trkpt lat="-27.2407613" lon="151.365631">
  <ele>537.56</ele>
  <time>2026-09-01T20:01:46Z</time>
  <course>272.07</course>
  <speed>22.09</speed>
  <fix>3d</fix>
</trkpt>
<trkpt lat="-27.240759" lon="151.3655627">
  <ele>537.57</ele>
  <time>2026-09-01T20:01:46Z</time>
  <course>271.69</course>
  <speed>22.32618641864302</speed>
  <fix>3d</fix>
</trkpt>
<trkpt lat="-27.2407613" lon="151.365631">
  <ele>537.56</ele>
  <time>2026-09-01T20:01:46Z</time>
  <course>272.07</course>
  <speed>22.09</speed>
  <fix>3d</fix>
</trkpt>
<trkpt lat="-27.2407583" lon="151.3655402">
  <ele>537.54</ele>
  <time>2026-09-01T20:01:46Z</time>
  <course>271.81</course>
  <speed>22.38652496480863</speed>
  <fix>3d</fix>
</trkpt>
<trkpt lat="-27.2407598" lon="151.3655863">
  <ele>537.58</ele>
  <time>2026-09-01T20:01:46Z</time>
  <course>272.15</course>
  <speed>22.26</speed>
  <fix>3d</fix>
</trkpt>
<trkpt lat="-27.2407575" lon="151.3655174">
  <ele>537.5</ele>
  <time>2026-09-01T20:01:46Z</time>
  <course>271.86</course>
  <speed>22.45685864051337</speed>
  <fix>3d</fix>
</trkpt>
<trkpt lat="-27.2407598" lon="151.3655863">
  <ele>537.58</ele>
  <time>2026-09-01T20:01:46Z</time>
  <course>272.15</course>
  <speed>22.26</speed>
  <fix>3d</fix>
</trkpt>
<trkpt lat="-27.2407567" lon="151.3654948">
  <ele>537.44</ele>
  <time>2026-09-01T20:01:46Z</time>
  <course>271.86</course>
  <speed>22.497217605739603</speed>
  <fix>3d</fix>
</trkpt>
<trkpt lat="-27.2407582" lon="151.3655412">
  <ele>537.53</ele>
  <time>2026-09-01T20:01:46Z</time>
  <course>272.21</course>
  <speed>22.39</speed>
  <fix>3d</fix>
</trkpt>
<trkpt lat="-27.2407559" lon="151.3654721">
  <ele>537.37</ele>
  <time>2026-09-01T20:01:46Z</time>
  <course>271.9</course>
  <speed>22.527194676656922</speed>
  <fix>3d</fix>
</trkpt>
<trkpt lat="-27.2407582" lon="151.3655412">
  <ele>537.53</ele>
  <time>2026-09-01T20:01:46Z</time>
  <course>272.21</course>
  <speed>22.39</speed>
  <fix>3d</fix>
</trkpt>
<trkpt lat="-27.2407551" lon="151.3654493">
  <ele>537.29</ele>
  <time>2026-09-01T20:01:46Z</time>
  <course>271.95</course>
  <speed>22.54717942448678</speed>
  <fix>3d</fix>
</trkpt>
<trkpt lat="-27.2407567" lon="151.3654958">
  <ele>537.44</ele>
  <time>2026-09-01T20:01:46Z</time>
  <course>272.25</course>
  <speed>22.49</speed>
  <fix>3d</fix>
</trkpt>
<trkpt lat="-27.2407543" lon="151.3654266">
  <ele>537.21</ele>
  <time>2026-09-01T20:01:46Z</time>
  <course>271.98</course>
  <speed>22.5671641993406</speed>
  <fix>3d</fix>
</trkpt>
<trkpt lat="-27.2407567" lon="151.3654958">
  <ele>537.44</ele>
  <time>2026-09-01T20:01:46Z</time>
  <course>272.25</course>
  <speed>22.49</speed>
  <fix>3d</fix>
</trkpt>
<trkpt lat="-27.2407535" lon="151.3654038">
  <ele>537.13</ele>
  <time>2026-09-01T20:01:46Z</time>
  <course>272.02</course>
  <speed>22.59714141213441</speed>
  <fix>3d</fix>
</trkpt>
<trkpt lat="-27.2407551" lon="151.3654504">
  <ele>537.3</ele>
  <time>2026-09-01T20:01:46Z</time>
  <course>272.25</course>
  <speed>22.55</speed>
  <fix>3d</fix>
</trkpt>
<trkpt lat="-27.2407527" lon="151.3653808">
  <ele>537.04</ele>
  <time>2026-09-01T20:01:46Z</time>
  <course>272.06</course>
  <speed>22.6167393759578</speed>
  <fix>3d</fix>
</trkpt>
<trkpt lat="-27.2407551" lon="151.3654504">
  <ele>537.3</ele>
  <time>2026-09-01T20:01:46Z</time>
  <course>272.25</course>
  <speed>22.55</speed>
  <fix>3d</fix>
</trkpt>
<trkpt lat="-27.2407519" lon="151.3653579">
  <ele>536.95</ele>
  <time>2026-09-01T20:01:46Z</time>
  <course>272.07</course>
  <speed>22.63672458638838</speed>
  <fix>3d</fix>
</trkpt>
<trkpt lat="-27.2407535" lon="151.3654048">
  <ele>537.13</ele>
  <time>2026-09-01T20:01:46Z</time>
  <course>272.23</course>
  <speed>22.59</speed>
  <fix>3d</fix>
</trkpt>
<trkpt lat="-27.2407511" lon="151.365335">
  <ele>536.85</ele>
  <time>2026-09-01T20:01:46Z</time>
  <course>272.06</course>
  <speed>22.65632803434837</speed>
  <fix>3d</fix>
</trkpt>
<trkpt lat="-27.2407535" lon="151.3654048">
  <ele>537.13</ele>
  <time>2026-09-01T20:01:46Z</time>
  <course>272.23</course>
  <speed>22.59</speed>
  <fix>3d</fix>
</trkpt>
<trkpt lat="-27.2407504" lon="151.3653122">
  <ele>536.76</ele>
  <time>2026-09-01T20:01:46Z</time>
  <course>272.04</course>
  <speed>22.67593658484694</speed>
  <fix>3d</fix>
</trkpt>
<trkpt lat="-27.240752" lon="151.3653592">
  <ele>536.94</ele>
  <time>2026-09-01T20:01:46Z</time>
  <course>272.2</course>
  <speed>22.64</speed>
  <fix>3d</fix>
</trkpt>
<trkpt lat="-27.2407496" lon="151.3652893">
  <ele>536.66</ele>
  <time>2026-09-01T20:01:46Z</time>
  <course>272.02</course>
  <speed>22.69555022465858</speed>
  <fix>3d</fix>
</trkpt>
<trkpt lat="-27.240752" lon="151.3653592">
  <ele>536.94</ele>
  <time>2026-09-01T20:01:46Z</time>
  <course>272.2</course>
  <speed>22.64</speed>
  <fix>3d</fix>
</trkpt>
<trkpt lat="-27.2407489" lon="151.3652664">
  <ele>536.58</ele>
  <time>2026-09-01T20:01:46Z</time>
  <course>272.02</course>
  <speed>22.71480574427173</speed>
  <fix>3d</fix>
</trkpt>
<trkpt lat="-27.2407503" lon="151.3653134">
  <ele>536.77</ele>
  <time>2026-09-01T20:01:46Z</time>
  <course>272.15</course>
  <speed>22.68</speed>
  <fix>3d</fix>
</trkpt>
<trkpt lat="-27.2407481" lon="151.3652434">
  <ele>536.5</ele>
  <time>2026-09-01T20:01:46Z</time>
  <course>272.0</course>
  <speed>22.734434235318016</speed>
  <fix>3d</fix>
</trkpt>
<trkpt lat="-27.2407503" lon="151.3653134">
  <ele>536.77</ele>
  <time>2026-09-01T20:01:46Z</time>
  <course>272.15</course>
  <speed>22.68</speed>
  <fix>3d</fix>
</trkpt>
<trkpt lat="-27.2407474" lon="151.3652204">
  <ele>536.41</ele>
  <time>2026-09-01T20:01:46Z</time>
  <course>271.97</course>
  <speed>22.75406776820356</speed>
  <fix>3d</fix>
</trkpt>
<trkpt lat="-27.2407489" lon="151.3652674">
  <ele>536.58</ele>
  <time>2026-09-01T20:01:46Z</time>
  <course>272.09</course>
  <speed>22.72</speed>
  <fix>3d</fix>
</trkpt>
<trkpt lat="-27.2407467" lon="151.3651975">
  <ele>536.32</ele>
  <time>2026-09-01T20:01:46Z</time>
  <course>271.9</course>
  <speed>22.773361631520277</speed>
  <fix>3d</fix>
</trkpt>
<trkpt lat="-27.2407489" lon="151.3652674">
  <ele>536.58</ele>
  <time>2026-09-01T20:01:46Z</time>
  <course>272.09</course>
  <speed>22.72</speed>
  <fix>3d</fix>
</trkpt>
<trkpt lat="-27.240746" lon="151.3651745">
  <ele>536.24</ele>
  <time>2026-09-01T20:01:46Z</time>
  <course>271.9</course>
  <speed>22.79267426170084</speed>
  <fix>3d</fix>
</trkpt>
<trkpt lat="-27.2407474" lon="151.3652215">
  <ele>536.41</ele>
  <time>2026-09-01T20:01:46Z</time>
  <course>272.01</course>
  <speed>22.75</speed>
  <fix>3d</fix>
</trkpt>
<trkpt lat="-27.2407453" lon="151.3651514">
  <ele>536.15</ele>
  <time>2026-09-01T20:01:46Z</time>
  <course>271.92</course>
  <speed>22.80233759946554</speed>
  <fix>3d</fix>
</trkpt>
<trkpt lat="-27.2407474" lon="151.3652215">
  <ele>536.41</ele>
  <time>2026-09-01T20:01:46Z</time>
  <course>272.01</course>
  <speed>22.75</speed>
  <fix>3d</fix>
</trkpt>
<trkpt lat="-27.2407446" lon="151.3651284">
  <ele>536.07</ele>
  <time>2026-09-01T20:01:46Z</time>
  <course>271.88</course>
  <speed>22.821678290607814</speed>
  <fix>3d</fix>
</trkpt>
<trkpt lat="-27.240746" lon="151.3651755">
  <ele>536.24</ele>
  <time>2026-09-01T20:01:46Z</time>
  <course>271.93</course>
  <speed>22.79</speed>
  <fix>3d</fix>
</trkpt>
<trkpt lat="-27.240744" lon="151.3651054">
  <ele>535.98</ele>
  <time>2026-09-01T20:01:46Z</time>
  <course>271.84</course>
  <speed>22.831042464153928</speed>
  <fix>3d</fix>
</trkpt>
<trkpt lat="-27.240746" lon="151.3651755">
  <ele>536.24</ele>
  <time>2026-09-01T20:01:46Z</time>
  <course>271.93</course>
  <speed>22.79</speed>
  <fix>3d</fix>
</trkpt>
<trkpt lat="-27.2407433" lon="151.3650822">
  <ele>535.89</ele>
  <time>2026-09-01T20:01:46Z</time>
  <course>271.82</course>
  <speed>22.85042012742873</speed>
  <fix>3d</fix>
</trkpt>
<trkpt lat="-27.2407446" lon="151.3651295">
  <ele>536.06</ele>
  <time>2026-09-01T20:01:46Z</time>
  <course>271.84</course>
  <speed>22.82</speed>
  <fix>3d</fix>
</trkpt>
<trkpt lat="-27.2407427" lon="151.3650592">
  <ele>535.79</ele>
  <time>2026-09-01T20:01:46Z</time>
  <course>271.71</course>
  <speed>22.870111499509573</speed>
  <fix>3d</fix>
</trkpt>
<trkpt lat="-27.2407446" lon="151.3651295">
  <ele>536.06</ele>
  <time>2026-09-01T20:01:46Z</time>
  <course>271.84</course>
  <speed>22.82</speed>
  <fix>3d</fix>
</trkpt>
<trkpt lat="-27.2407421" lon="151.3650361">
  <ele>535.71</ele>
  <time>2026-09-01T20:01:46Z</time>
  <course>271.64</course>
  <speed>22.899227061191386</speed>
  <fix>3d</fix>
</trkpt>
<trkpt lat="-27.2407434" lon="151.3650834">
  <ele>535.89</ele>
  <time>2026-09-01T20:01:46Z</time>
  <course>271.75</course>
  <speed>22.85</speed>
  <fix>3d</fix>
</trkpt>
<trkpt lat="-27.2407415" lon="151.365013">
  <ele>535.61</ele>
  <time>2026-09-01T20:01:46Z</time>
  <course>271.6</course>
  <speed>22.92865674216438</speed>
  <fix>3d</fix>
</trkpt>
<trkpt lat="-27.2407434" lon="151.3650834">
  <ele>535.89</ele>
  <time>2026-09-01T20:01:46Z</time>
  <course>271.75</course>
  <speed>22.85</speed>
  <fix>3d</fix>
</trkpt>
<trkpt lat="-27.240741" lon="151.3649898">
  <ele>535.52</ele>
  <time>2026-09-01T20:01:46Z</time>
  <course>271.53</course>
  <speed>22.968101793574498</speed>
  <fix>3d</fix>
</trkpt>
<trkpt lat="-27.2407422" lon="151.3650372">
  <ele>535.7</ele>
  <time>2026-09-01T20:01:46Z</time>
  <course>271.65</course>
  <speed>22.9</speed>
  <fix>3d</fix>
</trkpt>
<trkpt lat="-27.2407404" lon="151.3649666">
  <ele>535.41</ele>
  <time>2026-09-01T20:01:46Z</time>
  <course>271.46</course>
  <speed>22.997569436790492</speed>
  <fix>3d</fix>
</trkpt>
<trkpt lat="-27.2407422" lon="151.3650372">
  <ele>535.7</ele>
  <time>2026-09-01T20:01:46Z</time>
  <course>271.65</course>
  <speed>22.9</speed>
  <fix>3d</fix>
</trkpt>
<trkpt lat="-27.2407399" lon="151.3649433">
  <ele>535.32</ele>
  <time>2026-09-01T20:01:46Z</time>
  <course>271.43</course>
  <speed>23.03705276288614</speed>
  <fix>3d</fix>
</trkpt>
<trkpt lat="-27.240741" lon="151.3649909">
  <ele>535.52</ele>
  <time>2026-09-01T20:01:46Z</time>
  <course>271.54</course>
  <speed>22.96</speed>
  <fix>3d</fix>
</trkpt>
<trkpt lat="-27.2407394" lon="151.3649199">
  <ele>535.22</ele>
  <time>2026-09-01T20:01:46Z</time>
  <course>271.42</course>
  <speed>23.076555202196015</speed>
  <fix>3d</fix>
</trkpt>
<trkpt lat="-27.240741" lon="151.3649909">
  <ele>535.52</ele>
  <time>2026-09-01T20:01:46Z</time>
  <course>271.54</course>
  <speed>22.96</speed>
  <fix>3d</fix>
</trkpt>
<trkpt lat="-27.2407389" lon="151.3648967">
  <ele>535.12</ele>
  <time>2026-09-01T20:01:46Z</time>
  <course>271.42</course>
  <speed>23.126305368562445</speed>
  <fix>3d</fix>
</trkpt>
<trkpt lat="-27.2407399" lon="151.3649444">
  <ele>535.31</ele>
  <time>2026-09-01T20:01:46Z</time>
  <course>271.44</course>
  <speed>23.04</speed>
  <fix>3d</fix>
</trkpt>
<trkpt lat="-27.2407384" lon="151.3648733">
  <ele>535.02</ele>
  <time>2026-09-01T20:01:46Z</time>
  <course>271.42</course>
  <speed>23.175834397061088</speed>
  <fix>3d</fix>
</trkpt>
<trkpt lat="-27.2407399" lon="151.3649444">
  <ele>535.31</ele>
  <time>2026-09-01T20:01:46Z</time>
  <course>271.44</course>
  <speed>23.04</speed>
  <fix>3d</fix>
</trkpt>
<trkpt lat="-27.240738" lon="151.3648499">
  <ele>534.91</ele>
  <time>2026-09-01T20:01:46Z</time>
  <course>271.38</course>
  <speed>23.215602512103796</speed>
  <fix>3d</fix>
</trkpt>
<trkpt lat="-27.2407388" lon="151.3648978">
  <ele>535.12</ele>
  <time>2026-09-01T20:01:46Z</time>
  <course>271.34</course>
  <speed>23.12</speed>
  <fix>3d</fix>
</trkpt>
<trkpt lat="-27.2407375" lon="151.3648264">
  <ele>534.82</ele>
  <time>2026-09-01T20:01:46Z</time>
  <course>271.28</course>
  <speed>23.265373412004372</speed>
  <fix>3d</fix>
</trkpt>
<trkpt lat="-27.2407388" lon="151.3648978">
  <ele>535.12</ele>
  <time>2026-09-01T20:01:46Z</time>
  <course>271.34</course>
  <speed>23.12</speed>
  <fix>3d</fix>
</trkpt>
<trkpt lat="-27.2407371" lon="151.3648029">
  <ele>534.72</ele>
  <time>2026-09-01T20:01:46Z</time>
  <course>271.21</course>
  <speed>23.314941561153443</speed>
  <fix>3d</fix>
</trkpt>
<trkpt lat="-27.2407379" lon="151.364851">
  <ele>534.92</ele>
  <time>2026-09-01T20:01:46Z</time>
  <course>271.27</course>
  <speed>23.22</speed>
  <fix>3d</fix>
</trkpt>
<trkpt lat="-27.2407366" lon="151.3647792">
  <ele>534.63</ele>
  <time>2026-09-01T20:01:46Z</time>
  <course>271.19</course>
  <speed>23.374725666839385</speed>
  <fix>3d</fix>
</trkpt>
<trkpt lat="-27.2407379" lon="151.364851">
  <ele>534.92</ele>
  <time>2026-09-01T20:01:46Z</time>
  <course>271.27</course>
  <speed>23.22</speed>
  <fix>3d</fix>
</trkpt>
<trkpt lat="-27.2407362" lon="151.3647555">
  <ele>534.53</ele>
  <time>2026-09-01T20:01:46Z</time>
  <course>271.14</course>
  <speed>23.42451707079572</speed>
  <fix>3d</fix>
</trkpt>
<trkpt lat="-27.240737" lon="151.3648039">
  <ele>534.72</ele>
  <time>2026-09-01T20:01:46Z</time>
  <course>271.2</course>
  <speed>23.32</speed>
  <fix>3d</fix>
</trkpt>
<trkpt lat="-27.2407358" lon="151.3647317">
  <ele>534.44</ele>
  <time>2026-09-01T20:01:46Z</time>
  <course>271.1</course>
  <speed>23.484122295712904</speed>
  <fix>3d</fix>
</trkpt>
<trkpt lat="-27.240737" lon="151.3648039">
  <ele>534.72</ele>
  <time>2026-09-01T20:01:46Z</time>
  <course>271.2</course>
  <speed>23.32</speed>
  <fix>3d</fix>
</trkpt>
<trkpt lat="-27.2407354" lon="151.3647081">
  <ele>534.36</ele>
  <time>2026-09-01T20:01:46Z</time>
  <course>271.1</course>
  <speed>23.5339286987957</speed>
  <fix>3d</fix>
</trkpt>
<trkpt lat="-27.2407362" lon="151.3647566">
  <ele>534.54</ele>
  <time>2026-09-01T20:01:46Z</time>
  <course>271.12</course>
  <speed>23.42</speed>
  <fix>3d</fix>
</trkpt>
<trkpt lat="-27.240735" lon="151.3646843">
  <ele>534.27</ele>
  <time>2026-09-01T20:01:46Z</time>
  <course>271.09</course>
  <speed>23.583740161390857</speed>
  <fix>3d</fix>
</trkpt>
<trkpt lat="-27.2407362" lon="151.3647566">
  <ele>534.54</ele>
  <time>2026-09-01T20:01:46Z</time>
  <course>271.12</course>
  <speed>23.42</speed>
  <fix>3d</fix>
</trkpt>
<trkpt lat="-27.2407346" lon="151.3646604">
  <ele>534.18</ele>
  <time>2026-09-01T20:01:46Z</time>
  <course>271.02</course>
  <speed>23.643555147227755</speed>
  <fix>3d</fix>
</trkpt>
<trkpt lat="-27.2407354" lon="151.3647092">
  <ele>534.36</ele>
  <time>2026-09-01T20:01:46Z</time>
  <course>271.06</course>
  <speed>23.53</speed>
  <fix>3d</fix>
</trkpt>
<trkpt lat="-27.2407343" lon="151.3646365">
  <ele>534.07</ele>
  <time>2026-09-01T20:01:46Z</time>
  <course>270.97</course>
  <speed>23.70337528707673</speed>
  <fix>3d</fix>
</trkpt>
<trkpt lat="-27.2407354" lon="151.3647092">
  <ele>534.36</ele>
  <time>2026-09-01T20:01:46Z</time>
  <course>271.06</course>
  <speed>23.53</speed>
  <fix>3d</fix>
</trkpt>
<trkpt lat="-27.2407339" lon="151.3646125">
  <ele>533.91</ele>
  <time>2026-09-01T20:01:46Z</time>
  <course>270.96</course>
  <speed>23.773199195732996</speed>
  <fix>3d</fix>
</trkpt>
<trkpt lat="-27.2407346" lon="151.3646616">
  <ele>534.17</ele>
  <time>2026-09-01T20:01:46Z</time>
  <course>271.01</course>
  <speed>23.64</speed>
  <fix>3d</fix>
</trkpt>
<trkpt lat="-27.2407336" lon="151.3645885">
  <ele>533.76</ele>
  <time>2026-09-01T20:01:46Z</time>
  <course>270.97</course>
  <speed>23.862868645659514</speed>
  <fix>3d</fix>
</trkpt>
<trkpt lat="-27.2407346" lon="151.3646616">
  <ele>534.17</ele>
  <time>2026-09-01T20:01:46Z</time>
  <course>271.01</course>
  <speed>23.64</speed>
  <fix>3d</fix>
</trkpt>
<trkpt lat="-27.2407332" lon="151.3645642">
  <ele>533.6</ele>
  <time>2026-09-01T20:01:47Z</time>
  <course>270.98</course>
  <speed>23.95270548393229</speed>
  <fix>3d</fix>
</trkpt>
<trkpt lat="-27.2407339" lon="151.3646137">
  <ele>533.92</ele>
  <time>2026-09-01T20:01:47Z</time>
  <course>270.94</course>
  <speed>23.78</speed>
  <fix>3d</fix>
</trkpt>
<trkpt lat="-27.2407329" lon="151.3645401">
  <ele>533.44</ele>
  <time>2026-09-01T20:01:47Z</time>
  <course>271.0</course>
  <speed>24.042547701938744</speed>
  <fix>3d</fix>
</trkpt>
<trkpt lat="-27.2407339" lon="151.3646137">
  <ele>533.92</ele>
  <time>2026-09-01T20:01:47Z</time>
  <course>270.94</course>
  <speed>23.78</speed>
  <fix>3d</fix>
</trkpt>
<trkpt lat="-27.2407326" lon="151.3645158">
  <ele>533.29</ele>
  <time>2026-09-01T20:01:47Z</time>
  <course>270.95</course>
  <speed>24.13239523959443</speed>
  <fix>3d</fix>
</trkpt>
<trkpt lat="-27.2407332" lon="151.3645654">
  <ele>533.61</ele>
  <time>2026-09-01T20:01:47Z</time>
  <course>270.87</course>
  <speed>23.95</speed>
  <fix>3d</fix>
</trkpt>
<trkpt lat="-27.2407323" lon="151.3644913">
  <ele>533.15</ele>
  <time>2026-09-01T20:01:47Z</time>
  <course>270.88</course>
  <speed>24.232247109997864</speed>
  <fix>3d</fix>
</trkpt>
<trkpt lat="-27.2407332" lon="151.3645654">
  <ele>533.61</ele>
  <time>2026-09-01T20:01:47Z</time>
  <course>270.87</course>
  <speed>23.95</speed>
  <fix>3d</fix>
</trkpt>
<trkpt lat="-27.240732" lon="151.3644668">
  <ele>533.03</ele>
  <time>2026-09-01T20:01:47Z</time>
  <course>270.81</course>
  <speed>24.322105172044626</speed>
  <fix>3d</fix>
</trkpt>
<trkpt lat="-27.2407326" lon="151.3645169">
  <ele>533.3</ele>
  <time>2026-09-01T20:01:47Z</time>
  <course>270.81</course>
  <speed>24.13</speed>
  <fix>3d</fix>
</trkpt>
<trkpt lat="-27.2407317" lon="151.3644421">
  <ele>532.91</ele>
  <time>2026-09-01T20:01:47Z</time>
  <course>270.78</course>
  <speed>24.41196837618794</speed>
  <fix>3d</fix>
</trkpt>
<trkpt lat="-27.2407326" lon="151.3645169">
  <ele>533.3</ele>
  <time>2026-09-01T20:01:47Z</time>
  <course>270.81</course>
  <speed>24.13</speed>
  <fix>3d</fix>
</trkpt>
<trkpt lat="-27.2407314" lon="151.3644175">
  <ele>532.82</ele>
  <time>2026-09-01T20:01:47Z</time>
  <course>270.82</course>
  <speed>24.49183741575956</speed>
  <fix>3d</fix>
</trkpt>
<trkpt lat="-27.240732" lon="151.3644679">
  <ele>533.04</ele>
  <time>2026-09-01T20:01:47Z</time>
  <course>270.76</course>
  <speed>24.31</speed>
  <fix>3d</fix>
</trkpt>
<trkpt lat="-27.2407312" lon="151.3643927">
  <ele>532.74</ele>
  <time>2026-09-01T20:01:47Z</time>
  <course>270.83</course>
  <speed>24.561832179216598</speed>
  <fix>3d</fix>
</trkpt>
<trkpt lat="-27.240732" lon="151.3644679">
  <ele>533.04</ele>
  <time>2026-09-01T20:01:47Z</time>
  <course>270.76</course>
  <speed>24.31</speed>
  <fix>3d</fix>
</trkpt>
<trkpt lat="-27.2407309" lon="151.3643679">
  <ele>532.66</ele>
  <time>2026-09-01T20:01:47Z</time>
  <course>270.78</course>
  <speed>24.641826231024357</speed>
  <fix>3d</fix>
</trkpt>
<trkpt lat="-27.2407314" lon="151.3644186">
  <ele>532.82</ele>
  <time>2026-09-01T20:01:47Z</time>
  <course>270.72</course>
  <speed>24.48</speed>
  <fix>3d</fix>
</trkpt>
<trkpt lat="-27.2407306" lon="151.364343">
  <ele>532.61</ele>
  <time>2026-09-01T20:01:47Z</time>
  <course>270.75</course>
  <speed>24.711821057947144</speed>
  <fix>3d</fix>
</trkpt>
<trkpt lat="-27.2407314" lon="151.3644186">
  <ele>532.82</ele>
  <time>2026-09-01T20:01:47Z</time>
  <course>270.72</course>
  <speed>24.48</speed>
  <fix>3d</fix>
</trkpt>
<trkpt lat="-27.2407303" lon="151.364318">
  <ele>532.57</ele>
  <time>2026-09-01T20:01:47Z</time>
  <course>270.76</course>
  <speed>24.78181591409314</speed>
  <fix>3d</fix>
</trkpt>
<trkpt lat="-27.2407309" lon="151.3643691">
  <ele>532.68</ele>
  <time>2026-09-01T20:01:47Z</time>
  <course>270.7</course>
  <speed>24.63</speed>
  <fix>3d</fix>
</trkpt>
<trkpt lat="-27.2407301" lon="151.3642928">
  <ele>532.53</ele>
  <time>2026-09-01T20:01:47Z</time>
  <course>270.77</course>
  <speed>24.84181152814746</speed>
  <fix>3d</fix>
</trkpt>
<trkpt lat="-27.2407309" lon="151.3643691">
  <ele>532.68</ele>
  <time>2026-09-01T20:01:47Z</time>
  <course>270.7</course>
  <speed>24.63</speed>
  <fix>3d</fix>
</trkpt>
<trkpt lat="-27.2407298" lon="151.3642678">
  <ele>532.51</ele>
  <time>2026-09-01T20:01:47Z</time>
  <course>270.73</course>
  <speed>24.901929644105895</speed>
  <fix>3d</fix>
</trkpt>
<trkpt lat="-27.2407303" lon="151.364319">
  <ele>532.57</ele>
  <time>2026-09-01T20:01:47Z</time>
  <course>270.71</course>
  <speed>24.77</speed>
  <fix>3d</fix>
</trkpt>
<trkpt lat="-27.2407295" lon="151.3642425">
  <ele>532.5</ele>
  <time>2026-09-01T20:01:47Z</time>
  <course>270.75</course>
  <speed>24.94192654948691</speed>
  <fix>3d</fix>
</trkpt>
<trkpt lat="-27.2407303" lon="151.364319">
  <ele>532.57</ele>
  <time>2026-09-01T20:01:47Z</time>
  <course>270.71</course>
  <speed>24.77</speed>
  <fix>3d</fix>
</trkpt>
<trkpt lat="-27.2407292" lon="151.3642174">
  <ele>532.49</ele>
  <time>2026-09-01T20:01:47Z</time>
  <course>270.68</course>
  <speed>24.942052842538843</speed>
  <fix>3d</fix>
</trkpt>
<trkpt lat="-27.2407298" lon="151.3642688">
  <ele>532.52</ele>
  <time>2026-09-01T20:01:47Z</time>
  <course>270.72</course>
  <speed>24.89</speed>
  <fix>3d</fix>
</trkpt>
<trkpt lat="-27.2407289" lon="151.3641922">
  <ele>532.5</ele>
  <time>2026-09-01T20:01:47Z</time>
  <course>270.72</course>
  <speed>24.882057792714814</speed>
  <fix>3d</fix>
</trkpt>
<trkpt lat="-27.2407298" lon="151.3642688">
  <ele>532.52</ele>
  <time>2026-09-01T20:01:47Z</time>
  <course>270.72</course>
  <speed>24.89</speed>
  <fix>3d</fix>
</trkpt>
<trkpt lat="-27.2407286" lon="151.3641672">
  <ele>532.52</ele>
  <time>2026-09-01T20:01:47Z</time>
  <course>270.78</course>
  <speed>24.752068600422067</speed>
  <fix>3d</fix>
</trkpt>
<trkpt lat="-27.2407291" lon="151.3642185">
  <ele>532.5</ele>
  <time>2026-09-01T20:01:47Z</time>
  <course>270.73</course>
  <speed>24.91</speed>
  <fix>3d</fix>
</trkpt>
<trkpt lat="-27.2407283" lon="151.3641422">
  <ele>532.53</ele>
  <time>2026-09-01T20:01:47Z</time>
  <course>270.76</course>
  <speed>24.57208375372345</speed>
  <fix>3d</fix>
</trkpt>
<trkpt lat="-27.2407291" lon="151.3642185">
  <ele>532.5</ele>
  <time>2026-09-01T20:01:47Z</time>
  <course>270.73</course>
  <speed>24.91</speed>
  <fix>3d</fix>
</trkpt>
<trkpt lat="-27.240728" lon="151.3641175">
  <ele>532.56</ele>
  <time>2026-09-01T20:01:47Z</time>
  <course>270.75</course>
  <speed>24.332104306861748</speed>
  <fix>3d</fix>
</trkpt>
<trkpt lat="-27.2407286" lon="151.3641683">
  <ele>532.51</ele>
  <time>2026-09-01T20:01:47Z</time>
  <course>270.74</course>
  <speed>24.73</speed>
  <fix>3d</fix>
</trkpt>
<trkpt lat="-27.2407278" lon="151.3640931">
  <ele>532.57</ele>
  <time>2026-09-01T20:01:47Z</time>
  <course>270.75</course>
  <speed>24.042129689359886</speed>
  <fix>3d</fix>
</trkpt>
<trkpt lat="-27.2407286" lon="151.3641683">
  <ele>532.51</ele>
  <time>2026-09-01T20:01:47Z</time>
  <course>270.74</course>
  <speed>24.73</speed>
  <fix>3d</fix>
</trkpt>
<trkpt lat="-27.2407275" lon="151.3640687">
  <ele>532.59</ele>
  <time>2026-09-01T20:01:47Z</time>
  <course>270.76</course>
  <speed>23.72215841781687</speed>
  <fix>3d</fix>
</trkpt>
<trkpt lat="-27.2407281" lon="151.3641187">
  <ele>532.55</ele>
  <time>2026-09-01T20:01:47Z</time>
  <course>270.76</course>
  <speed>24.32</speed>
  <fix>3d</fix>
</trkpt>
<trkpt lat="-27.2407272" lon="151.364045">
  <ele>532.58</ele>
  <time>2026-09-01T20:01:47Z</time>
  <course>270.76</course>
  <speed>23.412186997373823</speed>
  <fix>3d</fix>
</trkpt>
<trkpt lat="-27.2407281" lon="151.3641187">
  <ele>532.55</ele>
  <time>2026-09-01T20:01:47Z</time>
  <course>270.76</course>
  <speed>24.32</speed>
  <fix>3d</fix>
</trkpt>
<trkpt lat="-27.2407269" lon="151.3640215">
  <ele>532.54</ele>
  <time>2026-09-01T20:01:47Z</time>
  <course>270.77</course>
  <speed>23.112215384943088</speed>
  <fix>3d</fix>
</trkpt>
<trkpt lat="-27.2407275" lon="151.3640701">
  <ele>532.57</ele>
  <time>2026-09-01T20:01:47Z</time>
  <course>270.78</course>
  <speed>23.74</speed>
  <fix>3d</fix>
</trkpt>
<trkpt lat="-27.2407266" lon="151.3639983">
  <ele>532.5</ele>
  <time>2026-09-01T20:01:47Z</time>
  <course>270.78</course>
  <speed>22.832242553021374</speed>
  <fix>3d</fix>
</trkpt>
<trkpt lat="-27.2407275" lon="151.3640701">
  <ele>532.57</ele>
  <time>2026-09-01T20:01:47Z</time>
  <course>270.78</course>
  <speed>23.74</speed>
  <fix>3d</fix>
</trkpt>
<trkpt lat="-27.2407263" lon="151.3639753">
  <ele>532.41</ele>
  <time>2026-09-01T20:01:47Z</time>
  <course>270.79</course>
  <speed>22.57226838401493</speed>
  <fix>3d</fix>
</trkpt>
<trkpt lat="-27.2407269" lon="151.3640227">
  <ele>532.54</ele>
  <time>2026-09-01T20:01:47Z</time>
  <course>270.8</course>
  <speed>23.14</speed>
  <fix>3d</fix>
</trkpt>
<trkpt lat="-27.240726" lon="151.3639527">
  <ele>532.29</ele>
  <time>2026-09-01T20:01:47Z</time>
  <course>270.8</course>
  <speed>22.312294816983755</speed>
  <fix>3d</fix>
</trkpt>
<trkpt lat="-27.2407269" lon="151.3640227">
  <ele>532.54</ele>
  <time>2026-09-01T20:01:47Z</time>
  <course>270.8</course>
  <speed>23.14</speed>
  <fix>3d</fix>
</trkpt>
<trkpt lat="-27.2407257" lon="151.3639302">
  <ele>532.13</ele>
  <time>2026-09-01T20:01:47Z</time>
  <course>270.81</course>
  <speed>22.08231871883023</speed>
  <fix>3d</fix>
</trkpt>
<trkpt lat="-27.2407263" lon="151.3639766">
  <ele>532.39</ele>
  <time>2026-09-01T20:01:47Z</time>
  <course>270.82</course>
  <speed>22.59</speed>
  <fix>3d</fix>
</trkpt>
<trkpt lat="-27.2407254" lon="151.3639081">
  <ele>531.94</ele>
  <time>2026-09-01T20:01:47Z</time>
  <course>270.82</course>
  <speed>21.862342052030932</speed>
  <fix>3d</fix>
</trkpt>
<trkpt lat="-27.2407263" lon="151.3639766">
  <ele>532.39</ele>
  <time>2026-09-01T20:01:47Z</time>
  <course>270.82</course>
  <speed>22.59</speed>
  <fix>3d</fix>
</trkpt>
<trkpt lat="-27.2407251" lon="151.3638861">
  <ele>531.72</ele>
  <time>2026-09-01T20:01:47Z</time>
  <course>270.84</course>
  <speed>21.662513704554236</speed>
  <fix>3d</fix>
</trkpt>
<trkpt lat="-27.2407257" lon="151.3639314">
  <ele>532.12</ele>
  <time>2026-09-01T20:01:47Z</time>
  <course>270.85</course>
  <speed>22.1</speed>
  <fix>3d</fix>
</trkpt>
<trkpt lat="-27.2407248" lon="151.3638643">
  <ele>531.49</ele>
  <time>2026-09-01T20:01:47Z</time>
  <course>270.86</course>
  <speed>21.482534766642413</speed>
  <fix>3d</fix>
</trkpt>
<trkpt lat="-27.2407257" lon="151.3639314">
  <ele>532.12</ele>
  <time>2026-09-01T20:01:47Z</time>
  <course>270.85</course>
  <speed>22.1</speed>
  <fix>3d</fix>
</trkpt>
<trkpt lat="-27.2407245" lon="151.3638427">
  <ele>531.25</ele>
  <time>2026-09-01T20:01:47Z</time>
  <course>270.87</course>
  <speed>21.312554985266317</speed>
  <fix>3d</fix>
</trkpt>
<trkpt lat="-27.2407251" lon="151.3638872">
  <ele>531.72</ele>
  <time>2026-09-01T20:01:47Z</time>
  <course>270.87</course>
  <speed>21.68</speed>
  <fix>3d</fix>
</trkpt>
<trkpt lat="-27.2407242" lon="151.3638212">
  <ele>531.01</ele>
  <time>2026-09-01T20:01:47Z</time>
  <course>270.88</course>
  <speed>21.152574311416565</speed>
  <fix>3d</fix>
</trkpt>
<trkpt lat="-27.2407251" lon="151.3638872">
  <ele>531.72</ele>
  <time>2026-09-01T20:01:47Z</time>
  <course>270.87</course>
  <speed>21.68</speed>
  <fix>3d</fix>
</trkpt>
<trkpt lat="-27.2407239" lon="151.3637999">
  <ele>530.78</ele>
  <time>2026-09-01T20:01:47Z</time>
  <course>270.9</course>
  <speed>21.002592697093377</speed>
  <fix>3d</fix>
</trkpt>
<trkpt lat="-27.2407245" lon="151.3638437">
  <ele>531.26</ele>
  <time>2026-09-01T20:01:47Z</time>
  <course>270.9</course>
  <speed>21.33</speed>
  <fix>3d</fix>
</trkpt>
<trkpt lat="-27.2407236" lon="151.3637788">
  <ele>530.54</ele>
  <time>2026-09-01T20:01:47Z</time>
  <course>270.91</course>
  <speed>20.85261134726296</speed>
  <fix>3d</fix>
</trkpt>
<trkpt lat="-27.2407245" lon="151.3638437">
  <ele>531.26</ele>
  <time>2026-09-01T20:01:47Z</time>
  <course>270.9</course>
  <speed>21.33</speed>
  <fix>3d</fix>
</trkpt>
<trkpt lat="-27.2407233" lon="151.3637578">
  <ele>530.32</ele>
  <time>2026-09-01T20:01:47Z</time>
  <course>270.93</course>
  <speed>20.702630267673715</speed>
  <fix>3d</fix>
</trkpt>
<trkpt lat="-27.2407239" lon="151.3638009">
  <ele>530.79</ele>
  <time>2026-09-01T20:01:47Z</time>
  <course>270.92</course>
  <speed>21.01</speed>
  <fix>3d</fix>
</trkpt>
<trkpt lat="-27.240723" lon="151.3637369">
  <ele>530.11</ele>
  <time>2026-09-01T20:01:47Z</time>
  <course>270.93</course>
  <speed>20.55264946424183</speed>
  <fix>3d</fix>
</trkpt>
<trkpt lat="-27.2407239" lon="151.3638009">
  <ele>530.79</ele>
  <time>2026-09-01T20:01:47Z</time>
  <course>270.92</course>
  <speed>21.01</speed>
  <fix>3d</fix>
</trkpt>
<trkpt lat="-27.2407227" lon="151.3637163">
  <ele>529.91</ele>
  <time>2026-09-01T20:01:47Z</time>
  <course>270.94</course>
  <speed>20.402668943057428</speed>
  <fix>3d</fix>
</trkpt>
<trkpt lat="-27.2407233" lon="151.3637587">
  <ele>530.33</ele>
  <time>2026-09-01T20:01:47Z</time>
  <course>270.92</course>
  <speed>20.71</speed>
  <fix>3d</fix>
</trkpt>
<trkpt lat="-27.2407224" lon="151.3636957">
  <ele>529.71</ele>
  <time>2026-09-01T20:01:47Z</time>
  <course>270.94</course>
  <speed>20.252528237234973</speed>
  <fix>3d</fix>
</trkpt>
<trkpt lat="-27.2407233" lon="151.3637587">
  <ele>530.33</ele>
  <time>2026-09-01T20:01:47Z</time>
  <course>270.92</course>
  <speed>20.71</speed>
  <fix>3d</fix>
</trkpt>
<trkpt lat="-27.2407221" lon="151.3636754">
  <ele>529.52</ele>
  <time>2026-09-01T20:01:47Z</time>
  <course>270.93</course>
  <speed>20.102547102295272</speed>
  <fix>3d</fix>
</trkpt>
<trkpt lat="-27.2407227" lon="151.3637172">
  <ele>529.92</ele>
  <time>2026-09-01T20:01:47Z</time>
  <course>270.92</course>
  <speed>20.41</speed>
  <fix>3d</fix>
</trkpt>
<trkpt lat="-27.2407218" lon="151.3636551">
  <ele>529.33</ele>
  <time>2026-09-01T20:01:47Z</time>
  <course>270.93</course>
  <speed>19.952408375932965</speed>
  <fix>3d</fix>
</trkpt>
<trkpt lat="-27.2407227" lon="151.3637172">
  <ele>529.92</ele>
  <time>2026-09-01T20:01:47Z</time>
  <course>270.92</course>
  <speed>20.41</speed>
  <fix>3d</fix>
</trkpt>
<trkpt lat="-27.2407215" lon="151.363635">
  <ele>529.15</ele>
  <time>2026-09-01T20:01:47Z</time>
  <course>270.93</course>
  <speed>19.802426618977787</speed>
  <fix>3d</fix>
</trkpt>
<trkpt lat="-27.2407221" lon="151.3636763">
  <ele>529.53</ele>
  <time>2026-09-01T20:01:47Z</time>
  <course>270.92</course>
  <speed>20.11</speed>
  <fix>3d</fix>
</trkpt>
<trkpt lat="-27.2407213" lon="151.3636151">
  <ele>528.97</ele>
  <time>2026-09-01T20:01:47Z</time>
  <course>270.92</course>
  <speed>19.66244389693204</speed>
  <fix>3d</fix>
</trkpt>
<trkpt lat="-27.2407221" lon="151.3636763">
  <ele>529.53</ele>
  <time>2026-09-01T20:01:47Z</time>
  <course>270.92</course>
  <speed>20.11</speed>
  <fix>3d</fix>
</trkpt>
<trkpt lat="-27.240721" lon="151.3635952">
  <ele>528.79</ele>
  <time>2026-09-01T20:01:47Z</time>
  <course>270.92</course>
  <speed>19.512306373158452</speed>
  <fix>3d</fix>
</trkpt>
<trkpt lat="-27.2407215" lon="151.3636359">
  <ele>529.15</ele>
  <time>2026-09-01T20:01:47Z</time>
  <course>270.91</course>
  <speed>19.81</speed>
  <fix>3d</fix>
</trkpt>
<trkpt lat="-27.2407207" lon="151.3635756">
  <ele>528.61</ele>
  <time>2026-09-01T20:01:47Z</time>
  <course>270.92</course>
  <speed>19.372323040874576</speed>
  <fix>3d</fix>
</trkpt>
<trkpt lat="-27.2407215" lon="151.3636359">
  <ele>529.15</ele>
  <time>2026-09-01T20:01:47Z</time>
  <course>270.91</course>
  <speed>19.81</speed>
  <fix>3d</fix>
</trkpt>
<trkpt lat="-27.2407204" lon="151.3635562">
  <ele>528.44</ele>
  <time>2026-09-01T20:01:47Z</time>
  <course>270.91</course>
  <speed>19.232339951238384</speed>
  <fix>3d</fix>
</trkpt>
<trkpt lat="-27.240721" lon="151.3635962">
  <ele>528.79</ele>
  <time>2026-09-01T20:01:47Z</time>
  <course>270.9</course>
  <speed>19.52</speed>
  <fix>3d</fix>
</trkpt>
<trkpt lat="-27.2407202" lon="151.3635368">
  <ele>528.26</ele>
  <time>2026-09-01T20:01:47Z</time>
  <course>270.91</course>
  <speed>19.092202596871843</speed>
  <fix>3d</fix>
</trkpt>
<trkpt lat="-27.240721" lon="151.3635962">
  <ele>528.79</ele>
  <time>2026-09-01T20:01:47Z</time>
  <course>270.9</course>
  <speed>19.52</speed>
  <fix>3d</fix>
</trkpt>
<trkpt lat="-27.2407199" lon="151.3635176">
  <ele>528.09</ele>
  <time>2026-09-01T20:01:47Z</time>
  <course>270.91</course>
  <speed>18.962217697305345</speed>
  <fix>3d</fix>
</trkpt>
<trkpt lat="-27.2407204" lon="151.363557">
  <ele>528.44</ele>
  <time>2026-09-01T20:01:47Z</time>
  <course>270.9</course>
  <speed>19.24</speed>
  <fix>3d</fix>
</trkpt>
<trkpt lat="-27.2407196" lon="151.3634985">
  <ele>527.91</ele>
  <time>2026-09-01T20:01:47Z</time>
  <course>270.9</course>
  <speed>18.83223300620508</speed>
  <fix>3d</fix>
</trkpt>
<trkpt lat="-27.2407204" lon="151.363557">
  <ele>528.44</ele>
  <time>2026-09-01T20:01:47Z</time>
  <course>270.9</course>
  <speed>19.24</speed>
  <fix>3d</fix>
</trkpt>
<trkpt lat="-27.2407194" lon="151.3634794">
  <ele>527.73</ele>
  <time>2026-09-01T20:01:47Z</time>
  <course>270.9</course>
  <speed>18.70209613920322</speed>
  <fix>3d</fix>
</trkpt>
<trkpt lat="-27.2407199" lon="151.3635185">
  <ele>528.09</ele>
  <time>2026-09-01T20:01:47Z</time>
  <course>270.89</course>
  <speed>18.97</speed>
  <fix>3d</fix>
</trkpt>
<trkpt lat="-27.2407191" lon="151.3634606">
  <ele>527.54</ele>
  <time>2026-09-01T20:01:47Z</time>
  <course>270.9</course>
  <speed>18.5821096757069</speed>
  <fix>3d</fix>
</trkpt>
<trkpt lat="-27.2407199" lon="151.3635185">
  <ele>528.09</ele>
  <time>2026-09-01T20:01:47Z</time>
  <course>270.89</course>
  <speed>18.97</speed>
  <fix>3d</fix>
</trkpt>
<trkpt lat="-27.2407188" lon="151.3634419">
  <ele>527.37</ele>
  <time>2026-09-01T20:01:47Z</time>
  <course>270.89</course>
  <speed>18.462123388169626</speed>
  <fix>3d</fix>
</trkpt>
<trkpt lat="-27.2407193" lon="151.3634804">
  <ele>527.74</ele>
  <time>2026-09-01T20:01:47Z</time>
  <course>270.88</course>
  <speed>18.71</speed>
  <fix>3d</fix>
</trkpt>
<trkpt lat="-27.2407186" lon="151.3634233">
  <ele>527.19</ele>
  <time>2026-09-01T20:01:47Z</time>
  <course>270.89</course>
  <speed>18.34213728004455</speed>
  <fix>3d</fix>
</trkpt>
<trkpt lat="-27.2407193" lon="151.3634804">
  <ele>527.74</ele>
  <time>2026-09-01T20:01:47Z</time>
  <course>270.88</course>
  <speed>18.71</speed>
  <fix>3d</fix>
</trkpt>
<trkpt lat="-27.2407183" lon="151.3634047">
  <ele>527.01</ele>
  <time>2026-09-01T20:01:47Z</time>
  <course>270.89</course>
  <speed>18.231999341816575</speed>
  <fix>3d</fix>
</trkpt>
<trkpt lat="-27.2407188" lon="151.3634428">
  <ele>527.38</ele>
  <time>2026-09-01T20:01:47Z</time>
  <course>270.88</course>
  <speed>18.47</speed>
  <fix>3d</fix>
</trkpt>
<trkpt lat="-27.2407181" lon="151.3633865">
  <ele>526.83</ele>
  <time>2026-09-01T20:01:47Z</time>
  <course>270.88</course>
  <speed>18.1220114777582</speed>
  <fix>3d</fix>
</trkpt>
<trkpt lat="-27.2407188" lon="151.3634428">
  <ele>527.38</ele>
  <time>2026-09-01T20:01:47Z</time>
  <course>270.88</course>
  <speed>18.47</speed>
  <fix>3d</fix>
</trkpt>
<trkpt lat="-27.2407178" lon="151.3633682">
  <ele>526.65</ele>
  <time>2026-09-01T20:01:47Z</time>
  <course>270.88</course>
  <speed>18.012023761920815</speed>
  <fix>3d</fix>
</trkpt>
<trkpt lat="-27.2407183" lon="151.3634056">
  <ele>527.02</ele>
  <time>2026-09-01T20:01:47Z</time>
  <course>270.87</course>
  <speed>18.24</speed>
  <fix>3d</fix>
</trkpt>
<trkpt lat="-27.2407176" lon="151.3633501">
  <ele>526.47</ele>
  <time>2026-09-01T20:01:47Z</time>
  <course>270.88</course>
  <speed>17.90203619703636</speed>
  <fix>3d</fix>
</trkpt>
<trkpt lat="-27.2407183" lon="151.3634056">
  <ele>527.02</ele>
  <time>2026-09-01T20:01:47Z</time>
  <course>270.87</course>
  <speed>18.24</speed>
  <fix>3d</fix>
</trkpt>
<trkpt lat="-27.2407174" lon="151.3633319">
  <ele>526.28</ele>
  <time>2026-09-01T20:01:47Z</time>
  <course>270.87</course>
  <speed>17.801898775130702</speed>
  <fix>3d</fix>
</trkpt>
<trkpt lat="-27.2407178" lon="151.363369">
  <ele>526.65</ele>
  <time>2026-09-01T20:01:47Z</time>
  <course>270.87</course>
  <speed>18.02</speed>
  <fix>3d</fix>
</trkpt>
<trkpt lat="-27.2407171" lon="151.3633141">
  <ele>526.1</ele>
  <time>2026-09-01T20:01:47Z</time>
  <course>270.87</course>
  <speed>17.701909501519886</speed>
  <fix>3d</fix>
</trkpt>
<trkpt lat="-27.2407178" lon="151.363369">
  <ele>526.65</ele>
  <time>2026-09-01T20:01:47Z</time>
  <course>270.87</course>
  <speed>18.02</speed>
  <fix>3d</fix>
</trkpt>
<trkpt lat="-27.2407169" lon="151.3632963">
  <ele>525.91</ele>
  <time>2026-09-01T20:01:47Z</time>
  <course>270.87</course>
  <speed>17.611919259410655</speed>
  <fix>3d</fix>
</trkpt>
<trkpt lat="-27.2407173" lon="151.3633328">
  <ele>526.28</ele>
  <time>2026-09-01T20:01:47Z</time>
  <course>270.86</course>
  <speed>17.81</speed>
  <fix>3d</fix>
</trkpt>
<trkpt lat="-27.2407166" lon="151.3632785">
  <ele>525.72</ele>
  <time>2026-09-01T20:01:47Z</time>
  <course>270.87</course>
  <speed>17.51193021913918</speed>
  <fix>3d</fix>
</trkpt>
<trkpt lat="-27.2407173" lon="151.3633328">
  <ele>526.28</ele>
  <time>2026-09-01T20:01:47Z</time>
  <course>270.86</course>
  <speed>17.81</speed>
  <fix>3d</fix>
</trkpt>
<trkpt lat="-27.2407164" lon="151.3632609">
  <ele>525.53</ele>
  <time>2026-09-01T20:01:47Z</time>
  <course>270.86</course>
  <speed>17.421793822680833</speed>
  <fix>3d</fix>
</trkpt>
<trkpt lat="-27.2407169" lon="151.3632971">
  <ele>525.91</ele>
  <time>2026-09-01T20:01:47Z</time>
  <course>270.85</course>
  <speed>17.61</speed>
  <fix>3d</fix>
</trkpt>
<trkpt lat="-27.2407162" lon="151.3632433">
  <ele>525.34</ele>
  <time>2026-09-01T20:01:47Z</time>
  <course>270.86</course>
  <speed>17.331803137584963</speed>
  <fix>3d</fix>
</trkpt>
<trkpt lat="-27.2407169" lon="151.3632971">
  <ele>525.91</ele>
  <time>2026-09-01T20:01:47Z</time>
  <course>270.85</course>
  <speed>17.61</speed>
  <fix>3d</fix>
</trkpt>
<trkpt lat="-27.2407159" lon="151.3632259">
  <ele>525.15</ele>
  <time>2026-09-01T20:01:47Z</time>
  <course>270.86</course>
  <speed>17.251811499086116</speed>
  <fix>3d</fix>
</trkpt>
<trkpt lat="-27.2407164" lon="151.3632617">
  <ele>525.54</ele>
  <time>2026-09-01T20:01:47Z</time>
  <course>270.85</course>
  <speed>17.43</speed>
  <fix>3d</fix>
</trkpt>
<trkpt lat="-27.2407157" lon="151.3632084">
  <ele>524.96</ele>
  <time>2026-09-01T20:01:47Z</time>
  <course>270.85</course>
  <speed>17.161820998949967</speed>
  <fix>3d</fix>
</trkpt>
<trkpt lat="-27.2407164" lon="151.3632617">
  <ele>525.54</ele>
  <time>2026-09-01T20:01:47Z</time>
  <course>270.85</course>
  <speed>17.43</speed>
  <fix>3d</fix>
</trkpt>
<trkpt lat="-27.2407155" lon="151.3631912">
  <ele>524.77</ele>
  <time>2026-09-01T20:01:47Z</time>
  <course>270.85</course>
  <speed>17.081829527307665</speed>
  <fix>3d</fix>
</trkpt>
<trkpt lat="-27.2407159" lon="151.3632266">
  <ele>525.16</ele>
  <time>2026-09-01T20:01:47Z</time>
  <course>270.84</course>
  <speed>17.25</speed>
  <fix>3d</fix>
</trkpt>
<trkpt lat="-27.2407153" lon="151.3631739">
  <ele>524.57</ele>
  <time>2026-09-01T20:01:47Z</time>
  <course>270.85</course>
  <speed>17.00169403324269</speed>
  <fix>3d</fix>
</trkpt>
<trkpt lat="-27.2407159" lon="151.3632266">
  <ele>525.16</ele>
  <time>2026-09-01T20:01:47Z</time>
  <course>270.84</course>
  <speed>17.25</speed>
  <fix>3d</fix>
</trkpt>
<trkpt lat="-27.2389193" lon="151.3672542">
  <ele>542.96</ele>
  <time>2026-09-01T20:01:47Z</time>
  <course>250.0</course>
  <speed>0.0</speed>
  <fix>3d</fix>
</trkpt>
<trkpt lat="-27.2407155" lon="151.3631919">
  <ele>524.77</ele>
  <time>2026-09-01T20:01:47Z</time>
  <course>270.84</course>
  <speed>17.09</speed>
  <fix>3d</fix>
</trkpt>
<trkpt lat="-27.2389193" lon="151.3672542">
  <ele>542.82</ele>
  <time>2026-09-01T20:01:47Z</time>
  <course>249.99</course>
  <speed>0.07280109889280519</speed>
  <fix>3d</fix>
</trkpt>
<trkpt lat="-27.2407155" lon="151.3631919">
  <ele>524.77</ele>
  <time>2026-09-01T20:01:47Z</time>
  <course>270.84</course>
  <speed>17.09</speed>
  <fix>3d</fix>
</trkpt>
<trkpt lat="-27.2389193" lon="151.367254">
  <ele>542.6</ele>
  <time>2026-09-01T20:01:47Z</time>
  <course>249.96</course>
  <speed>0.22472205054244232</speed>
  <fix>3d</fix>
</trkpt>
<trkpt lat="-27.2398173" lon="151.3652144">
  <ele>533.7</ele>
  <time>2026-09-01T20:01:47Z</time>
  <course>270.75</course>
  <speed>8.54</speed>
  <fix>3d</fix>
</trkpt>
<trkpt lat="-27.2389194" lon="151.3672537">
  <ele>542.28</ele>
  <time>2026-09-01T20:01:47Z</time>
  <course>250.37</course>
  <speed>0.4617358552246078</speed>
  <fix>3d</fix>
</trkpt>
<trkpt lat="-27.2398173" lon="151.3652144">
  <ele>533.7</ele>
  <time>2026-09-01T20:01:47Z</time>
  <course>270.75</course>
  <speed>8.54</speed>
  <fix>3d</fix>
</trkpt>
<trkpt lat="-27.2389195" lon="151.3672531">
  <ele>541.9</ele>
  <time>2026-09-01T20:01:47Z</time>
  <course>253.36</course>
  <speed>0.7764663547121665</speed>
  <fix>3d</fix>
</trkpt>
<trkpt lat="-27.2389193" lon="151.3672539">
  <ele>542.56</ele>
  <time>2026-09-01T20:01:47Z</time>
  <course>251.1</course>
  <speed>0.26</speed>
  <fix>3d</fix>
</trkpt>
<trkpt lat="-27.2389196" lon="151.3672521">
  <ele>541.43</ele>
  <time>2026-09-01T20:01:47Z</time>
  <course>262.77</course>
  <speed>1.1403946685248927</speed>
  <fix>3d</fix>
</trkpt>
<trkpt lat="-27.2389193" lon="151.3672539">
  <ele>542.56</ele>
  <time>2026-09-01T20:01:47Z</time>
  <course>251.1</course>
  <speed>0.26</speed>
  <fix>3d</fix>
</trkpt>
<trkpt lat="-27.2389198" lon="151.3672508">
  <ele>540.89</ele>
  <time>2026-09-01T20:01:47Z</time>
  <course>263.87</course>
  <speed>1.539415473483361</speed>
  <fix>3d</fix>
</trkpt>
<trkpt lat="-27.2389195" lon="151.3672529">
  <ele>541.87</ele>
  <time>2026-09-01T20:01:47Z</time>
  <course>263.1</course>
  <speed>0.78</speed>
  <fix>3d</fix>
</trkpt>
<trkpt lat="-27.238921" lon="151.3672494">
  <ele>540.31</ele>
  <time>2026-09-01T20:01:47Z</time>
  <course>252.22</course>
  <speed>2.9054775855270334</speed>
  <fix>3d</fix>
</trkpt>
<trkpt lat="-27.2389195" lon="151.3672529">
  <ele>541.87</ele>
  <time>2026-09-01T20:01:47Z</time>
  <course>263.1</course>
  <speed>0.78</speed>
  <fix>3d</fix>
</trkpt>
<trkpt lat="-27.238924" lon="151.3672479">
  <ele>539.74</ele>
  <time>2026-09-01T20:01:47Z</time>
  <course>243.86</course>
  <speed>4.443028246590382</speed>
  <fix>3d</fix>
</trkpt>
<trkpt lat="-27.2389202" lon="151.3672508">
  <ele>540.89</ele>
  <time>2026-09-01T20:01:47Z</time>
  <course>227.3</course>
  <speed>1.81</speed>
  <fix>3d</fix>
</trkpt>
<trkpt lat="-27.2389285" lon="151.3672465">
  <ele>539.23</ele>
  <time>2026-09-01T20:01:47Z</time>
  <course>237.8</course>
  <speed>5.7752315970876875</speed>
  <fix>3d</fix>
</trkpt>
<trkpt lat="-27.2389202" lon="151.3672508">
  <ele>540.89</ele>
  <time>2026-09-01T20:01:47Z</time>
  <course>227.3</course>
  <speed>1.81</speed>
  <fix>3d</fix>
</trkpt>
<trkpt lat="-27.2389341" lon="151.3672451">
  <ele>538.81</ele>
  <time>2026-09-01T20:01:47Z</time>
  <course>232.96</course>
  <speed>6.8386329043164755</speed>
  <fix>3d</fix>
</trkpt>
<trkpt lat="-27.2389246" lon="151.367248">
  <ele>539.79</ele>
  <time>2026-09-01T20:01:47Z</time>
  <course>199.76</course>
  <speed>4.24</speed>
  <fix>3d</fix>
</trkpt>
<trkpt lat="-27.2389405" lon="151.3672436">
  <ele>538.49</ele>
  <time>2026-09-01T20:01:47Z</time>
  <course>229.37</course>
  <speed>7.61614732000373</speed>
  <fix>3d</fix>
</trkpt>
<trkpt lat="-27.2389246" lon="151.367248">
  <ele>539.79</ele>
  <time>2026-09-01T20:01:47Z</time>
  <course>199.76</course>
  <speed>4.24</speed>
  <fix>3d</fix>
</trkpt>
<trkpt lat="-27.2389473" lon="151.3672413">
  <ele>538.29</ele>
  <time>2026-09-01T20:01:47Z</time>
  <course>227.01</course>
  <speed>8.073295485735674</speed>
  <fix>3d</fix>
</trkpt>
<trkpt lat="-27.2389342" lon="151.3672451">
  <ele>538.87</ele>
  <time>2026-09-01T20:01:47Z</time>
  <course>193.34</course>
  <speed>6.66</speed>
  <fix>3d</fix>
</trkpt>
<trkpt lat="-27.2389542" lon="151.3672384">
  <ele>538.2</ele>
  <time>2026-09-01T20:01:47Z</time>
  <course>225.91</course>
  <speed>8.397297184213501</speed>
  <fix>3d</fix>
</trkpt>
<trkpt lat="-27.2389342" lon="151.3672451">
  <ele>538.87</ele>
  <time>2026-09-01T20:01:47Z</time>
  <course>193.34</course>
  <speed>6.66</speed>
  <fix>3d</fix>
</trkpt>
<trkpt lat="-27.2389609" lon="151.3672341">
  <ele>538.16</ele>
  <time>2026-09-01T20:01:47Z</time>
  <course>226.03</course>
  <speed>8.724935529847771</speed>
  <fix>3d</fix>
</trkpt>
<trkpt lat="-27.238947" lon="151.3672411">
  <ele>538.35</ele>
  <time>2026-09-01T20:01:47Z</time>
  <course>199.27</course>
  <speed>7.95</speed>
  <fix>3d</fix>
</trkpt>
<trkpt lat="-27.2389675" lon="151.3672291">
  <ele>538.13</ele>
  <time>2026-09-01T20:01:47Z</time>
  <course>227.25</course>
  <speed>9.125815032094394</speed>
  <fix>3d</fix>
</trkpt>
<trkpt lat="-27.238947" lon="151.3672411">
  <ele>538.35</ele>
  <time>2026-09-01T20:01:47Z</time>
  <course>199.27</course>
  <speed>7.95</speed>
  <fix>3d</fix>
</trkpt>
<trkpt lat="-27.2389738" lon="151.3672229">
  <ele>538.1</ele>
  <time>2026-09-01T20:01:47Z</time>
  <course>229.6</course>
  <speed>9.57</speed>
  <fix>3d</fix>
</trkpt>
<trkpt lat="-27.2389605" lon="151.3672338">
  <ele>538.17</ele>
  <time>2026-09-01T20:01:47Z</time>
  <course>211.51</course>
  <speed>8.69</speed>
  <fix>3d</fix>
</trkpt>
<trkpt lat="-27.2389799" lon="151.3672157">
  <ele>538.04</ele>
  <time>2026-09-01T20:01:47Z</time>
  <course>232.68</course>
  <speed>10.068569908383216</speed>
  <fix>3d</fix>
</trkpt>
<trkpt lat="-27.2389605" lon="151.3672338">
  <ele>538.17</ele>
  <time>2026-09-01T20:01:47Z</time>
  <course>211.51</course>
  <speed>8.69</speed>
  <fix>3d</fix>
</trkpt>
<trkpt lat="-27.2389858" lon="151.3672076">
  <ele>537.98</ele>
  <time>2026-09-01T20:01:47Z</time>
  <course>236.21</course>
  <speed>10.592091389333836</speed>
  <fix>3d</fix>
</trkpt>
<trkpt lat="-27.2389734" lon="151.3672226">
  <ele>538.08</ele>
  <time>2026-09-01T20:01:47Z</time>
  <course>223.37</course>
  <speed>9.54</speed>
  <fix>3d</fix>
</trkpt>
<trkpt lat="-27.2389913" lon="151.3671986">
  <ele>537.9</ele>
  <time>2026-09-01T20:01:47Z</time>
  <course>239.84</course>
  <speed>11.122634579990478</speed>
  <fix>3d</fix>
</trkpt>
<trkpt lat="-27.2389734" lon="151.3672226">
  <ele>538.08</ele>
  <time>2026-09-01T20:01:47Z</time>
  <course>223.37</course>
  <speed>9.54</speed>
  <fix>3d</fix>
</trkpt>
<trkpt lat="-27.2389964" lon="151.3671886">
  <ele>537.79</ele>
  <time>2026-09-01T20:01:47Z</time>
  <course>243.27</course>
  <speed>11.654119443355642</speed>
  <fix>3d</fix>
</trkpt>
<trkpt lat="-27.2389854" lon="151.3672075">
  <ele>537.97</ele>
  <time>2026-09-01T20:01:47Z</time>
  <course>233.25</course>
  <speed>10.54</speed>
  <fix>3d</fix>
</trkpt>
<trkpt lat="-27.2390011" lon="151.3671777">
  <ele>537.66</ele>
  <time>2026-09-01T20:01:47Z</time>
  <course>246.32</course>
  <speed>12.196495398269128</speed>
  <fix>3d</fix>
</trkpt>
<trkpt lat="-27.2389854" lon="151.3672075">
  <ele>537.97</ele>
  <time>2026-09-01T20:01:47Z</time>
  <course>233.25</course>
  <speed>10.54</speed>
  <fix>3d</fix>
</trkpt>
<trkpt lat="-27.2390054" lon="151.3671661">
  <ele>537.54</ele>
  <time>2026-09-01T20:01:47Z</time>
  <course>249.11</course>
  <speed>12.737601815098476</speed>
  <fix>3d</fix>
</trkpt>
<trkpt lat="-27.238996" lon="151.3671886">
  <ele>537.79</ele>
  <time>2026-09-01T20:01:47Z</time>
  <course>241.76</course>
  <speed>11.61</speed>
  <fix>3d</fix>
</trkpt>
<trkpt lat="-27.2390092" lon="151.3671537">
  <ele>537.41</ele>
  <time>2026-09-01T20:01:47Z</time>
  <course>251.72</course>
  <speed>13.278026961864477</speed>
  <fix>3d</fix>
</trkpt>
<trkpt lat="-27.238996" lon="151.3671886">
  <ele>537.79</ele>
  <time>2026-09-01T20:01:47Z</time>
  <course>241.76</course>
  <speed>11.61</speed>
  <fix>3d</fix>
</trkpt>
<trkpt lat="-27.2390125" lon="151.3671405">
  <ele>537.29</ele>
  <time>2026-09-01T20:01:47Z</time>
  <course>254.11</course>
  <speed>13.819710561368497</speed>
  <fix>3d</fix>
</trkpt>
<trkpt lat="-27.2390049" lon="151.3671662">
  <ele>537.55</ele>
  <time>2026-09-01T20:01:47Z</time>
  <course>249.22</course>
  <speed>12.69</speed>
  <fix>3d</fix>
</trkpt>
<trkpt lat="-27.2390153" lon="151.3671266">
  <ele>537.16</ele>
  <time>2026-09-01T20:01:47Z</time>
  <course>256.24</course>
  <speed>14.343960401506969</speed>
  <fix>3d</fix>
</trkpt>
<trkpt lat="-27.2390049" lon="151.3671662">
  <ele>537.55</ele>
  <time>2026-09-01T20:01:47Z</time>
  <course>249.22</course>
  <speed>12.69</speed>
  <fix>3d</fix>
</trkpt>
<trkpt lat="-27.2390176" lon="151.367112">
  <ele>537.07</ele>
  <time>2026-09-01T20:01:47Z</time>
  <course>258.18</course>
  <speed>14.862193646968809</speed>
  <fix>3d</fix>
</trkpt>
<trkpt lat="-27.239012" lon="151.3671407">
  <ele>537.3</ele>
  <time>2026-09-01T20:01:47Z</time>
  <course>255.63</course>
  <speed>13.77</speed>
  <fix>3d</fix>
</trkpt>
<trkpt lat="-27.2390195" lon="151.367097">
  <ele>536.97</ele>
  <time>2026-09-01T20:01:47Z</time>
  <course>260.02</course>
  <speed>15.360602201736754</speed>
  <fix>3d</fix>
</trkpt>
<trkpt lat="-27.239012" lon="151.3671407">
  <ele>537.3</ele>
  <time>2026-09-01T20:01:47Z</time>
  <course>255.63</course>
  <speed>13.77</speed>
  <fix>3d</fix>
</trkpt>
<trkpt lat="-27.2390209" lon="151.3670813">
  <ele>536.88</ele>
  <time>2026-09-01T20:01:47Z</time>
  <course>261.77</course>
  <speed>15.851063055833194</speed>
  <fix>3d</fix>
</trkpt>
<trkpt lat="-27.2390173" lon="151.3671124">
  <ele>537.07</ele>
  <time>2026-09-01T20:01:47Z</time>
  <course>260.8</course>
  <speed>14.82</speed>
  <fix>3d</fix>
</trkpt>
<trkpt lat="-27.239022" lon="151.3670651">
  <ele>536.79</ele>
  <time>2026-09-01T20:01:47Z</time>
  <course>263.5</course>
  <speed>16.337643648947665</speed>
  <fix>3d</fix>
</trkpt>
<trkpt lat="-27.2390173" lon="151.3671124">
  <ele>537.07</ele>
  <time>2026-09-01T20:01:47Z</time>
  <course>260.8</course>
  <speed>14.82</speed>
  <fix>3d</fix>
</trkpt>
<trkpt lat="-27.2390226" lon="151.3670483">
  <ele>536.73</ele>
  <time>2026-09-01T20:01:47Z</time>
  <course>265.09</course>
  <speed>16.79868149587937</speed>
  <fix>3d</fix>
</trkpt>
<trkpt lat="-27.2390206" lon="151.3670816">
  <ele>536.88</ele>
  <time>2026-09-01T20:01:47Z</time>
  <course>264.85</course>
  <speed>15.82</speed>
  <fix>3d</fix>
</trkpt>
<trkpt lat="-27.239023" lon="151.3670311">
  <ele>536.68</ele>
  <time>2026-09-01T20:01:47Z</time>
  <course>266.38</course>
  <speed>17.25074201302657</speed>
  <fix>3d</fix>
</trkpt>
<trkpt lat="-27.2390206" lon="151.3670816">
  <ele>536.88</ele>
  <time>2026-09-01T20:01:47Z</time>
  <course>264.85</course>
  <speed>15.82</speed>
  <fix>3d</fix>
</trkpt>
<trkpt lat="-27.239023" lon="151.3670134">
  <ele>536.64</ele>
  <time>2026-09-01T20:01:47Z</time>
  <course>267.47</course>
  <speed>17.69081682681724</speed>
  <fix>3d</fix>
</trkpt>
<trkpt lat="-27.2390224" lon="151.3670487">
  <ele>536.74</ele>
  <time>2026-09-01T20:01:47Z</time>
  <course>268.03</course>
  <speed>16.77</speed>
  <fix>3d</fix>
</trkpt>
<trkpt lat="-27.2390227" lon="151.3669953">
  <ele>536.61</ele>
  <time>2026-09-01T20:01:47Z</time>
  <course>268.56</course>
  <speed>18.106631381899838</speed>
  <fix>3d</fix>
</trkpt>
<trkpt lat="-27.2390224" lon="151.3670487">
  <ele>536.74</ele>
  <time>2026-09-01T20:01:47Z</time>
  <course>268.03</course>
  <speed>16.77</speed>
  <fix>3d</fix>
</trkpt>
<trkpt lat="-27.2390221" lon="151.3669769">
  <ele>536.6</ele>
  <time>2026-09-01T20:01:47Z</time>
  <course>269.63</course>
  <speed>18.516435942156903</speed>
  <fix>3d</fix>
</trkpt>
<trkpt lat="-27.2390228" lon="151.3670139">
  <ele>536.64</ele>
  <time>2026-09-01T20:01:47Z</time>
  <course>270.49</course>
  <speed>17.66</speed>
  <fix>3d</fix>
</trkpt>
<trkpt lat="-27.2390212" lon="151.3669581">
  <ele>536.61</ele>
  <time>2026-09-01T20:01:47Z</time>
  <course>270.59</course>
  <speed>18.90862237181757</speed>
  <fix>3d</fix>
</trkpt>
<trkpt lat="-27.2390228" lon="151.3670139">
  <ele>536.64</ele>
  <time>2026-09-01T20:01:47Z</time>
  <course>270.49</course>
  <speed>17.66</speed>
  <fix>3d</fix>
</trkpt>
<trkpt lat="-27.2390202" lon="151.3669387">
  <ele>536.63</ele>
  <time>2026-09-01T20:01:47Z</time>
  <course>271.39</course>
  <speed>19.291848019305977</speed>
  <fix>3d</fix>
</trkpt>
<trkpt lat="-27.239022" lon="151.3669773">
  <ele>536.61</ele>
  <time>2026-09-01T20:01:47Z</time>
  <course>272.35</course>
  <speed>18.49</speed>
  <fix>3d</fix>
</trkpt>
<trkpt lat="-27.2390191" lon="151.366919">
  <ele>536.66</ele>
  <time>2026-09-01T20:01:47Z</time>
  <course>272.12</course>
  <speed>19.65504769772895</speed>
  <fix>3d</fix>
</trkpt>
<trkpt lat="-27.239022" lon="151.3669773">
  <ele>536.61</ele>
  <time>2026-09-01T20:01:47Z</time>
  <course>272.35</course>
  <speed>18.49</speed>
  <fix>3d</fix>
</trkpt>
<trkpt lat="-27.2390177" lon="151.366899">
  <ele>536.72</ele>
  <time>2026-09-01T20:01:47Z</time>
  <course>272.68</course>
  <speed>19.997362326066906</speed>
  <fix>3d</fix>
</trkpt>
<trkpt lat="-27.2390202" lon="151.3669392">
  <ele>536.64</ele>
  <time>2026-09-01T20:01:47Z</time>
  <course>273.71</course>
  <speed>19.27</speed>
  <fix>3d</fix>
</trkpt>
<trkpt lat="-27.2390161" lon="151.3668787">
  <ele>536.79</ele>
  <time>2026-09-01T20:01:47Z</time>
  <course>273.2</course>
  <speed>20.338920816995184</speed>
  <fix>3d</fix>
</trkpt>
<trkpt lat="-27.2390202" lon="151.3669392">
  <ele>536.64</ele>
  <time>2026-09-01T20:01:47Z</time>
  <course>273.71</course>
  <speed>19.27</speed>
  <fix>3d</fix>
</trkpt>
<trkpt lat="-27.2390144" lon="151.3668581">
  <ele>536.87</ele>
  <time>2026-09-01T20:01:47Z</time>
  <course>273.69</course>
  <speed>20.67029994944437</speed>
  <fix>3d</fix>
</trkpt>
<trkpt lat="-27.2390176" lon="151.3668997">
  <ele>536.73</ele>
  <time>2026-09-01T20:01:47Z</time>
  <course>274.67</course>
  <speed>19.98</speed>
  <fix>3d</fix>
</trkpt>
<trkpt lat="-27.2390126" lon="151.3668372">
  <ele>536.95</ele>
  <time>2026-09-01T20:01:47Z</time>
  <course>274.13</course>
  <speed>20.979418485744546</speed>
  <fix>3d</fix>
</trkpt>
<trkpt lat="-27.2390176" lon="151.3668997">
  <ele>536.73</ele>
  <time>2026-09-01T20:01:47Z</time>
  <course>274.67</course>
  <speed>19.98</speed>
  <fix>3d</fix>
</trkpt>
<trkpt lat="-27.2390108" lon="151.3668159">
  <ele>537.04</ele>
  <time>2026-09-01T20:01:47Z</time>
  <course>274.43</course>
  <speed>21.248039909601076</speed>
  <fix>3d</fix>
</trkpt>
<trkpt lat="-27.2390144" lon="151.3668588">
  <ele>536.87</ele>
  <time>2026-09-01T20:01:47Z</time>
  <course>275.32</course>
  <speed>20.64</speed>
  <fix>3d</fix>
</trkpt>
<trkpt lat="-27.2390088" lon="151.3667945">
  <ele>537.13</ele>
  <time>2026-09-01T20:01:47Z</time>
  <course>274.76</course>
  <speed>21.504894791651505</speed>
  <fix>3d</fix>
</trkpt>
<trkpt lat="-27.2390144" lon="151.3668588">
  <ele>536.87</ele>
  <time>2026-09-01T20:01:47Z</time>
  <course>275.32</course>
  <speed>20.64</speed>
  <fix>3d</fix>
</trkpt>
<trkpt lat="-27.2390068" lon="151.3667726">
  <ele>537.2</ele>
  <time>2026-09-01T20:01:47Z</time>
  <course>275.05</course>
  <speed>21.72210855326895</speed>
  <fix>3d</fix>
</trkpt>
<trkpt lat="-27.2390108" lon="151.3668167">
  <ele>537.03</ele>
  <time>2026-09-01T20:01:47Z</time>
  <course>275.76</course>
  <speed>21.23</speed>
  <fix>3d</fix>
</trkpt>
<trkpt lat="-27.2390047" lon="151.3667508">
  <ele>537.27</ele>
  <time>2026-09-01T20:01:47Z</time>
  <course>275.23</course>
  <speed>21.908566817571614</speed>
  <fix>3d</fix>
</trkpt>
<trkpt lat="-27.2390108" lon="151.3668167">
  <ele>537.03</ele>
  <time>2026-09-01T20:01:47Z</time>
  <course>275.76</course>
  <speed>21.23</speed>
  <fix>3d</fix>
</trkpt>
<trkpt lat="-27.2390025" lon="151.3667286">
  <ele>537.32</ele>
  <time>2026-09-01T20:01:47Z</time>
  <course>275.43</course>
  <speed>22.07306050369998</speed>
  <fix>3d</fix>
</trkpt>
<trkpt lat="-27.2390068" lon="151.3667735">
  <ele>537.19</ele>
  <time>2026-09-01T20:01:47Z</time>
  <course>276.07</course>
  <speed>21.7</speed>
  <fix>3d</fix>
</trkpt>
<trkpt lat="-27.2390003" lon="151.3667065">
  <ele>537.35</ele>
  <time>2026-09-01T20:01:47Z</time>
  <course>275.57</course>
  <speed>22.197848994891373</speed>
  <fix>3d</fix>
</trkpt>
<trkpt lat="-27.2390068" lon="151.3667735">
  <ele>537.19</ele>
  <time>2026-09-01T20:01:47Z</time>
  <course>276.07</course>
  <speed>21.7</speed>
  <fix>3d</fix>
</trkpt>
<trkpt lat="-27.2389981" lon="151.3666841">
  <ele>537.37</ele>
  <time>2026-09-01T20:01:47Z</time>
  <course>275.76</course>
  <speed>22.301697244828702</speed>
  <fix>3d</fix>
</trkpt>
<trkpt lat="-27.2390025" lon="151.3667295">
  <ele>537.3</ele>
  <time>2026-09-01T20:01:47Z</time>
  <course>276.3</course>
  <speed>22.05</speed>
  <fix>3d</fix>
</trkpt>
<trkpt lat="-27.2389958" lon="151.3666616">
  <ele>537.37</ele>
  <time>2026-09-01T20:01:47Z</time>
  <course>275.91</course>
  <speed>22.37463966190294</speed>
  <fix>3d</fix>
</trkpt>
<trkpt lat="-27.2390025" lon="151.3667295">
  <ele>537.3</ele>
  <time>2026-09-01T20:01:47Z</time>
  <course>276.3</course>
  <speed>22.05</speed>
  <fix>3d</fix>
</trkpt>
<trkpt lat="-27.2389935" lon="151.3666393">
  <ele>537.35</ele>
  <time>2026-09-01T20:01:47Z</time>
  <course>276.08</course>
  <speed>22.42773506174888</speed>
  <fix>3d</fix>
</trkpt>
<trkpt lat="-27.2389981" lon="151.3666849">
  <ele>537.36</ele>
  <time>2026-09-01T20:01:47Z</time>
  <course>276.46</course>
  <speed>22.28</speed>
  <fix>3d</fix>
</trkpt>
<trkpt lat="-27.2389912" lon="151.3666166">
  <ele>537.32</ele>
  <time>2026-09-01T20:01:47Z</time>
  <course>276.18</course>
  <speed>22.46976857913761</speed>
  <fix>3d</fix>
</trkpt>
<trkpt lat="-27.2389981" lon="151.3666849">
  <ele>537.36</ele>
  <time>2026-09-01T20:01:47Z</time>
  <course>276.46</course>
  <speed>22.28</speed>
  <fix>3d</fix>
</trkpt>
<trkpt lat="-27.2389888" lon="151.3665941">
  <ele>537.27</ele>
  <time>2026-09-01T20:01:47Z</time>
  <course>276.2</course>
  <speed>22.501879921464337</speed>
  <fix>3d</fix>
</trkpt>
<trkpt lat="-27.2389935" lon="151.36664">
  <ele>537.34</ele>
  <time>2026-09-01T20:01:47Z</time>
  <course>276.58</course>
  <speed>22.42</speed>
  <fix>3d</fix>
</trkpt>
<trkpt lat="-27.2389865" lon="151.3665715">
  <ele>537.22</ele>
  <time>2026-09-01T20:01:47Z</time>
  <course>276.23</course>
  <speed>22.512974037207968</speed>
  <fix>3d</fix>
</trkpt>
<trkpt lat="-27.2389935" lon="151.36664">
  <ele>537.34</ele>
  <time>2026-09-01T20:01:47Z</time>
  <course>276.58</course>
  <speed>22.42</speed>
  <fix>3d</fix>
</trkpt>
<trkpt lat="-27.2389841" lon="151.366549">
  <ele>537.15</ele>
  <time>2026-09-01T20:01:47Z</time>
  <course>276.29</course>
  <speed>22.52407156799143</speed>
  <fix>3d</fix>
</trkpt>
<trkpt lat="-27.2389888" lon="151.3665949">
  <ele>537.27</ele>
  <time>2026-09-01T20:01:47Z</time>
  <course>276.66</course>
  <speed>22.49</speed>
  <fix>3d</fix>
</trkpt>
<trkpt lat="-27.2389817" lon="151.3665264">
  <ele>537.08</ele>
  <time>2026-09-01T20:01:47Z</time>
  <course>276.38</course>
  <speed>22.543934882801626</speed>
  <fix>3d</fix>
</trkpt>
<trkpt lat="-27.2389888" lon="151.3665949">
  <ele>537.27</ele>
  <time>2026-09-01T20:01:47Z</time>
  <course>276.66</course>
  <speed>22.49</speed>
  <fix>3d</fix>
</trkpt>
<trkpt lat="-27.2389794" lon="151.3665038">
  <ele>537.0</ele>
  <time>2026-09-01T20:01:47Z</time>
  <course>276.43</course>
  <speed>22.55503491462605</speed>
  <fix>3d</fix>
</trkpt>
<trkpt lat="-27.2389841" lon="151.3665497">
  <ele>537.15</ele>
  <time>2026-09-01T20:01:47Z</time>
  <course>276.7</course>
  <speed>22.53</speed>
  <fix>3d</fix>
</trkpt>
<trkpt lat="-27.238977" lon="151.366481">
  <ele>536.91</ele>
  <time>2026-09-01T20:01:47Z</time>
  <course>276.47</course>
  <speed>22.5848289787636</speed>
  <fix>3d</fix>
</trkpt>
<trkpt lat="-27.2389841" lon="151.3665497">
  <ele>537.15</ele>
  <time>2026-09-01T20:01:47Z</time>
  <course>276.7</course>
  <speed>22.53</speed>
  <fix>3d</fix>
</trkpt>
<trkpt lat="-27.2389746" lon="151.3664585">
  <ele>536.84</ele>
  <time>2026-09-01T20:01:47Z</time>
  <course>276.5</course>
  <speed>22.59476045458327</speed>
  <fix>3d</fix>
</trkpt>
<trkpt lat="-27.2389794" lon="151.3665045">
  <ele>537.0</ele>
  <time>2026-09-01T20:01:47Z</time>
  <course>276.71</course>
  <speed>22.56</speed>
  <fix>3d</fix>
</trkpt>
<trkpt lat="-27.2389722" lon="151.3664358">
  <ele>536.76</ele>
  <time>2026-09-01T20:01:47Z</time>
  <course>276.49</course>
  <speed>22.613458382122804</speed>
  <fix>3d</fix>
</trkpt>
<trkpt lat="-27.2389794" lon="151.3665045">
  <ele>537.0</ele>
  <time>2026-09-01T20:01:47Z</time>
  <course>276.71</course>
  <speed>22.56</speed>
  <fix>3d</fix>
</trkpt>
<trkpt lat="-27.2389699" lon="151.3664131">
  <ele>536.68</ele>
  <time>2026-09-01T20:01:47Z</time>
  <course>276.52</course>
  <speed>22.633322778593516</speed>
  <fix>3d</fix>
</trkpt>
<trkpt lat="-27.2389747" lon="151.3664592">
  <ele>536.83</ele>
  <time>2026-09-01T20:01:47Z</time>
  <course>276.7</course>
  <speed>22.6</speed>
  <fix>3d</fix>
</trkpt>
<trkpt lat="-27.2389675" lon="151.3663904">
  <ele>536.6</ele>
  <time>2026-09-01T20:01:47Z</time>
  <course>276.46</course>
  <speed>22.652028606727477</speed>
  <fix>3d</fix>
</trkpt>
<trkpt lat="-27.2389747" lon="151.3664592">
  <ele>536.83</ele>
  <time>2026-09-01T20:01:47Z</time>
  <course>276.7</course>
  <speed>22.6</speed>
  <fix>3d</fix>
</trkpt>
<trkpt lat="-27.2389652" lon="151.3663676">
  <ele>536.53</ele>
  <time>2026-09-01T20:01:47Z</time>
  <course>276.4</course>
  <speed>22.659657985062353</speed>
  <fix>3d</fix>
</trkpt>
<trkpt lat="-27.2389699" lon="151.3664137">
  <ele>536.68</ele>
  <time>2026-09-01T20:01:47Z</time>
  <course>276.67</course>
  <speed>22.63</speed>
  <fix>3d</fix>
</trkpt>
<trkpt lat="-27.2389628" lon="151.3663449">
  <ele>536.47</ele>
  <time>2026-09-01T20:01:47Z</time>
  <course>276.37</course>
  <speed>22.677241895786178</speed>
  <fix>3d</fix>
</trkpt>
<trkpt lat="-27.2389699" lon="151.3664137">
  <ele>536.68</ele>
  <time>2026-09-01T20:01:47Z</time>
  <course>276.67</course>
  <speed>22.63</speed>
  <fix>3d</fix>
</trkpt>
<trkpt lat="-27.2389605" lon="151.3663221">
  <ele>536.41</ele>
  <time>2026-09-01T20:01:47Z</time>
  <course>276.4</course>
  <speed>22.68491128481661</speed>
  <fix>3d</fix>
</trkpt>
<trkpt lat="-27.2389652" lon="151.3663683">
  <ele>536.54</ele>
  <time>2026-09-01T20:01:47Z</time>
  <course>276.6</course>
  <speed>22.66</speed>
  <fix>3d</fix>
</trkpt>
<trkpt lat="-27.2389582" lon="151.3662991">
  <ele>536.35</ele>
  <time>2026-09-01T20:01:47Z</time>
  <course>276.38</course>
  <speed>22.683784957541807</speed>
  <fix>3d</fix>
</trkpt>
<trkpt lat="-27.2389652" lon="151.3663683">
  <ele>536.54</ele>
  <time>2026-09-01T20:01:47Z</time>
  <course>276.6</course>
  <speed>22.66</speed>
  <fix>3d</fix>
</trkpt>
<trkpt lat="-27.2389558" lon="151.3662764">
  <ele>536.29</ele>
  <time>2026-09-01T20:01:47Z</time>
  <course>276.34</course>
  <speed>22.69148298370999</speed>
  <fix>3d</fix>
</trkpt>
<trkpt lat="-27.2389606" lon="151.3663228">
  <ele>536.41</ele>
  <time>2026-09-01T20:01:47Z</time>
  <course>276.5</course>
  <speed>22.68</speed>
  <fix>3d</fix>
</trkpt>
<trkpt lat="-27.2389537" lon="151.3662536">
  <ele>536.24</ele>
  <time>2026-09-01T20:01:47Z</time>
  <course>276.28</course>
  <speed>22.69920042644674</speed>
  <fix>3d</fix>
</trkpt>
<trkpt lat="-27.2389606" lon="151.3663228">
  <ele>536.41</ele>
  <time>2026-09-01T20:01:47Z</time>
  <course>276.5</course>
  <speed>22.68</speed>
  <fix>3d</fix>
</trkpt>
<trkpt lat="-27.2389514" lon="151.3662307">
  <ele>536.19</ele>
  <time>2026-09-01T20:01:47Z</time>
  <course>276.24</course>
  <speed>22.695902713926145</speed>
  <fix>3d</fix>
</trkpt>
<trkpt lat="-27.238956" lon="151.3662772">
  <ele>536.29</ele>
  <time>2026-09-01T20:01:47Z</time>
  <course>276.4</course>
  <speed>22.69</speed>
  <fix>3d</fix>
</trkpt>
<trkpt lat="-27.2389492" lon="151.366208">
  <ele>536.13</ele>
  <time>2026-09-01T20:01:47Z</time>
  <course>276.18</course>
  <speed>22.693726005220032</speed>
  <fix>3d</fix>
</trkpt>
<trkpt lat="-27.238956" lon="151.3662772">
  <ele>536.29</ele>
  <time>2026-09-01T20:01:47Z</time>
  <course>276.4</course>
  <speed>22.69</speed>
  <fix>3d</fix>
</trkpt>
<trkpt lat="-27.238947" lon="151.3661852">
  <ele>536.08</ele>
  <time>2026-09-01T20:01:47Z</time>
  <course>276.14</course>
  <speed>22.701508760432645</speed>
  <fix>3d</fix>
</trkpt>
<trkpt lat="-27.2389515" lon="151.3662316">
  <ele>536.19</ele>
  <time>2026-09-01T20:01:47Z</time>
  <course>276.29</course>
  <speed>22.7</speed>
  <fix>3d</fix>
</trkpt>
<trkpt lat="-27.2389448" lon="151.3661623">
  <ele>536.02</ele>
  <time>2026-09-01T20:01:47Z</time>
  <course>276.12</course>
  <speed>22.708247400449025</speed>
  <fix>3d</fix>
</trkpt>
<trkpt lat="-27.2389515" lon="151.3662316">
  <ele>536.19</ele>
  <time>2026-09-01T20:01:47Z</time>
  <course>276.29</course>
  <speed>22.7</speed>
  <fix>3d</fix>
</trkpt>
<trkpt lat="-27.2389426" lon="151.3661396">
  <ele>535.97</ele>
  <time>2026-09-01T20:01:47Z</time>
  <course>276.09</course>
  <speed>22.72602252925047</speed>
  <fix>3d</fix>
</trkpt>
<trkpt lat="-27.2389471" lon="151.3661859">
  <ele>536.08</ele>
  <time>2026-09-01T20:01:47Z</time>
  <course>276.17</course>
  <speed>22.71</speed>
  <fix>3d</fix>
</trkpt>
<trkpt lat="-27.2389405" lon="151.3661167">
  <ele>535.91</ele>
  <time>2026-09-01T20:01:47Z</time>
  <course>276.07</course>
  <speed>22.74486315632609</speed>
  <fix>3d</fix>
</trkpt>
<trkpt lat="-27.2389471" lon="151.3661859">
  <ele>536.08</ele>
  <time>2026-09-01T20:01:47Z</time>
  <course>276.17</course>
  <speed>22.71</speed>
  <fix>3d</fix>
</trkpt>
<trkpt lat="-27.2389384" lon="151.3660938">
  <ele>535.84</ele>
  <time>2026-09-01T20:01:47Z</time>
  <course>276.07</course>
  <speed>22.76267119650064</speed>
  <fix>3d</fix>
</trkpt>
<trkpt lat="-27.2389427" lon="151.3661403">
  <ele>535.97</ele>
  <time>2026-09-01T20:01:47Z</time>
  <course>276.06</course>
  <speed>22.73</speed>
  <fix>3d</fix>
</trkpt>
<trkpt lat="-27.2389363" lon="151.366071">
  <ele>535.78</ele>
  <time>2026-09-01T20:01:47Z</time>
  <course>276.01</course>
  <speed>22.780500433484775</speed>
  <fix>3d</fix>
</trkpt>
<trkpt lat="-27.2389427" lon="151.3661403">
  <ele>535.97</ele>
  <time>2026-09-01T20:01:47Z</time>
  <course>276.06</course>
  <speed>22.73</speed>
  <fix>3d</fix>
</trkpt>
<trkpt lat="-27.2389342" lon="151.3660481">
  <ele>535.71</ele>
  <time>2026-09-01T20:01:47Z</time>
  <course>275.9</course>
  <speed>22.809318271267994</speed>
  <fix>3d</fix>
</trkpt>
<trkpt lat="-27.2389384" lon="151.3660946">
  <ele>535.84</ele>
  <time>2026-09-01T20:01:47Z</time>
  <course>275.96</course>
  <speed>22.76</speed>
  <fix>3d</fix>
</trkpt>
<trkpt lat="-27.2389321" lon="151.3660252">
  <ele>535.63</ele>
  <time>2026-09-01T20:01:47Z</time>
  <course>275.85</course>
  <speed>22.837129854690584</speed>
  <fix>3d</fix>
</trkpt>
<trkpt lat="-27.2389384" lon="151.3660946">
  <ele>535.84</ele>
  <time>2026-09-01T20:01:47Z</time>
  <course>275.96</course>
  <speed>22.76</speed>
  <fix>3d</fix>
</trkpt>
<trkpt lat="-27.23893" lon="151.3660022">
  <ele>535.56</ele>
  <time>2026-09-01T20:01:47Z</time>
  <course>275.77</course>
  <speed>22.874914207489393</speed>
  <fix>3d</fix>
</trkpt>
<trkpt lat="-27.2389342" lon="151.3660488">
  <ele>535.71</ele>
  <time>2026-09-01T20:01:47Z</time>
  <course>275.86</course>
  <speed>22.81</speed>
  <fix>3d</fix>
</trkpt>
<trkpt lat="-27.2389279" lon="151.3659792">
  <ele>535.49</ele>
  <time>2026-09-01T20:01:47Z</time>
  <course>275.75</course>
  <speed>22.912723539553305</speed>
  <fix>3d</fix>
</trkpt>
<trkpt lat="-27.2389342" lon="151.3660488">
  <ele>535.71</ele>
  <time>2026-09-01T20:01:47Z</time>
  <course>275.86</course>
  <speed>22.81</speed>
  <fix>3d</fix>
</trkpt>
<trkpt lat="-27.2389259" lon="151.3659561">
  <ele>535.41</ele>
  <time>2026-09-01T20:01:47Z</time>
  <course>275.74</course>
  <speed>22.94158887261299</speed>
  <fix>3d</fix>
</trkpt>
<trkpt lat="-27.23893" lon="151.3660028">
  <ele>535.56</ele>
  <time>2026-09-01T20:01:47Z</time>
  <course>275.76</course>
  <speed>22.87</speed>
  <fix>3d</fix>
</trkpt>
<trkpt lat="-27.2389239" lon="151.3659329">
  <ele>535.33</ele>
  <time>2026-09-01T20:01:47Z</time>
  <course>275.68</course>
  <speed>22.989388856600776</speed>
  <fix>3d</fix>
</trkpt>
<trkpt lat="-27.23893" lon="151.3660028">
  <ele>535.56</ele>
  <time>2026-09-01T20:01:47Z</time>
  <course>275.76</course>
  <speed>22.87</speed>
  <fix>3d</fix>
</trkpt>
<trkpt lat="-27.2389219" lon="151.3659099">
  <ele>535.25</ele>
  <time>2026-09-01T20:01:47Z</time>
  <course>275.64</course>
  <speed>23.02822832959583</speed>
  <fix>3d</fix>
</trkpt>
<trkpt lat="-27.2389259" lon="151.3659568">
  <ele>535.41</ele>
  <time>2026-09-01T20:01:47Z</time>
  <course>275.65</course>
  <speed>22.95</speed>
  <fix>3d</fix>
</trkpt>
<trkpt lat="-27.2389199" lon="151.3658867">
  <ele>535.16</ele>
  <time>2026-09-01T20:01:47Z</time>
  <course>275.57</course>
  <speed>23.077029704881866</speed>
  <fix>3d</fix>
</trkpt>
<trkpt lat="-27.2389259" lon="151.3659568">
  <ele>535.41</ele>
  <time>2026-09-01T20:01:47Z</time>
  <course>275.65</course>
  <speed>22.95</speed>
  <fix>3d</fix>
</trkpt>
<trkpt lat="-27.2389178" lon="151.3658635">
  <ele>535.1</ele>
  <time>2026-09-01T20:01:47Z</time>
  <course>275.5</course>
  <speed>23.12584052526524</speed>
  <fix>3d</fix>
</trkpt>
<trkpt lat="-27.2389219" lon="151.3659106">
  <ele>535.25</ele>
  <time>2026-09-01T20:01:47Z</time>
  <course>275.57</course>
  <speed>23.03</speed>
  <fix>3d</fix>
</trkpt>
<trkpt lat="-27.2389159" lon="151.3658401">
  <ele>535.02</ele>
  <time>2026-09-01T20:01:47Z</time>
  <course>275.43</course>
  <speed>23.17371355652779</speed>
  <fix>3d</fix>
</trkpt>
<trkpt lat="-27.2389219" lon="151.3659106">
  <ele>535.25</ele>
  <time>2026-09-01T20:01:47Z</time>
  <course>275.57</course>
  <speed>23.03</speed>
  <fix>3d</fix>
</trkpt>
<trkpt lat="-27.2389139" lon="151.3658169">
  <ele>534.95</ele>
  <time>2026-09-01T20:01:47Z</time>
  <course>275.42</course>
  <speed>23.222549386318466</speed>
  <fix>3d</fix>
</trkpt>
<trkpt lat="-27.2389179" lon="151.3658642">
  <ele>535.1</ele>
  <time>2026-09-01T20:01:47Z</time>
  <course>275.48</course>
  <speed>23.13</speed>
  <fix>3d</fix>
</trkpt>
<trkpt lat="-27.238912" lon="151.3657935">
  <ele>534.87</ele>
  <time>2026-09-01T20:01:47Z</time>
  <course>275.4</course>
  <speed>23.271394457573873</speed>
  <fix>3d</fix>
</trkpt>
<trkpt lat="-27.2389179" lon="151.3658642">
  <ele>535.1</ele>
  <time>2026-09-01T20:01:47Z</time>
  <course>275.48</course>
  <speed>23.13</speed>
  <fix>3d</fix>
</trkpt>
<trkpt lat="-27.23891" lon="151.3657701">
  <ele>534.79</ele>
  <time>2026-09-01T20:01:47Z</time>
  <course>275.41</course>
  <speed>23.331133705844646</speed>
  <fix>3d</fix>
</trkpt>
<trkpt lat="-27.238914" lon="151.3658176">
  <ele>534.94</ele>
  <time>2026-09-01T20:01:47Z</time>
  <course>275.4</course>
  <speed>23.22</speed>
  <fix>3d</fix>
</trkpt>
<trkpt lat="-27.2389081" lon="151.3657466">
  <ele>534.68</ele>
  <time>2026-09-01T20:01:47Z</time>
  <course>275.38</course>
  <speed>23.38994869596768</speed>
  <fix>3d</fix>
</trkpt>
<trkpt lat="-27.238914" lon="151.3658176">
  <ele>534.94</ele>
  <time>2026-09-01T20:01:47Z</time>
  <course>275.4</course>
  <speed>23.22</speed>
  <fix>3d</fix>
</trkpt>
<trkpt lat="-27.2389061" lon="151.365723">
  <ele>534.54</ele>
  <time>2026-09-01T20:01:47Z</time>
  <course>275.39</course>
  <speed>23.44969296174259</speed>
  <fix>3d</fix>
</trkpt>
<trkpt lat="-27.23891" lon="151.3657708">
  <ele>534.78</ele>
  <time>2026-09-01T20:01:47Z</time>
  <course>275.33</course>
  <speed>23.33</speed>
  <fix>3d</fix>
</trkpt>
<trkpt lat="-27.2389042" lon="151.3656993">
  <ele>534.38</ele>
  <time>2026-09-01T20:01:47Z</time>
  <course>275.35</course>
  <speed>23.53839629201616</speed>
  <fix>3d</fix>
</trkpt>
<trkpt lat="-27.23891" lon="151.3657708">
  <ele>534.78</ele>
  <time>2026-09-01T20:01:47Z</time>
  <course>275.33</course>
  <speed>23.33</speed>
  <fix>3d</fix>
</trkpt>
<trkpt lat="-27.2389023" lon="151.3656757">
  <ele>534.22</ele>
  <time>2026-09-01T20:01:47Z</time>
  <course>275.32</course>
  <speed>23.627113662062065</speed>
  <fix>3d</fix>
</trkpt>
<trkpt lat="-27.2389061" lon="151.3657237">
  <ele>534.54</ele>
  <time>2026-09-01T20:01:47Z</time>
  <course>275.28</course>
  <speed>23.46</speed>
  <fix>3d</fix>
</trkpt>
<trkpt lat="-27.2389003" lon="151.3656516">
  <ele>534.06</ele>
  <time>2026-09-01T20:01:47Z</time>
  <course>275.27</course>
  <speed>23.71584491431836</speed>
  <fix>3d</fix>
</trkpt>
<trkpt lat="-27.2389061" lon="151.3657237">
  <ele>534.54</ele>
  <time>2026-09-01T20:01:47Z</time>
  <course>275.28</course>
  <speed>23.46</speed>
  <fix>3d</fix>
</trkpt>
<trkpt lat="-27.2388984" lon="151.3656277">
  <ele>533.91</ele>
  <time>2026-09-01T20:01:47Z</time>
  <course>275.21</course>
  <speed>23.815442469120743</speed>
  <fix>3d</fix>
</trkpt>
<trkpt lat="-27.2389023" lon="151.3656762">
  <ele>534.23</ele>
  <time>2026-09-01T20:01:47Z</time>
  <course>275.21</course>
  <speed>23.62</speed>
  <fix>3d</fix>
</trkpt>
<trkpt lat="-27.2388965" lon="151.3656036">
  <ele>533.77</ele>
  <time>2026-09-01T20:01:47Z</time>
  <course>275.25</course>
  <speed>23.905083141457595</speed>
  <fix>3d</fix>
</trkpt>
<trkpt lat="-27.2389023" lon="151.3656762">
  <ele>534.23</ele>
  <time>2026-09-01T20:01:47Z</time>
  <course>275.21</course>
  <speed>23.62</speed>
  <fix>3d</fix>
</trkpt>
<trkpt lat="-27.2388946" lon="151.3655796">
  <ele>533.64</ele>
  <time>2026-09-01T20:01:47Z</time>
  <course>275.23</course>
  <speed>23.994726503963324</speed>
  <fix>3d</fix>
</trkpt>
<trkpt lat="-27.2388984" lon="151.3656284">
  <ele>533.92</ele>
  <time>2026-09-01T20:01:47Z</time>
  <course>275.14</course>
  <speed>23.81</speed>
  <fix>3d</fix>
</trkpt>
<trkpt lat="-27.2388927" lon="151.3655554">
  <ele>533.53</ele>
  <time>2026-09-01T20:01:47Z</time>
  <course>275.19</course>
  <speed>24.08437252659907</speed>
  <fix>3d</fix>
</trkpt>
<trkpt lat="-27.2388984" lon="151.3656284">
  <ele>533.92</ele>
  <time>2026-09-01T20:01:47Z</time>
  <course>275.14</course>
  <speed>23.81</speed>
  <fix>3d</fix>
</trkpt>
<trkpt lat="-27.2388907" lon="151.3655312">
  <ele>533.43</ele>
  <time>2026-09-01T20:01:47Z</time>
  <course>275.15</course>
  <speed>24.164943616735382</speed>
  <fix>3d</fix>
</trkpt>
<trkpt lat="-27.2388946" lon="151.3655804">
  <ele>533.65</ele>
  <time>2026-09-01T20:01:47Z</time>
  <course>275.1</course>
  <speed>23.99</speed>
  <fix>3d</fix>
</trkpt>
<trkpt lat="-27.2388888" lon="151.3655068">
  <ele>533.34</ele>
  <time>2026-09-01T20:01:47Z</time>
  <course>275.08</course>
  <speed>24.244630333333607</speed>
  <fix>3d</fix>
</trkpt>
<trkpt lat="-27.2388946" lon="151.3655804">
  <ele>533.65</ele>
  <time>2026-09-01T20:01:47Z</time>
  <course>275.1</course>
  <speed>23.99</speed>
  <fix>3d</fix>
</trkpt>
<trkpt lat="-27.2388869" lon="151.3654824">
  <ele>533.26</ele>
  <time>2026-09-01T20:01:47Z</time>
  <course>275.03</course>
  <speed>24.314357898163795</speed>
  <fix>3d</fix>
</trkpt>
<trkpt lat="-27.2388908" lon="151.3655319">
  <ele>533.43</ele>
  <time>2026-09-01T20:01:47Z</time>
  <course>275.08</course>
  <speed>24.16</speed>
  <fix>3d</fix>
</trkpt>
<trkpt lat="-27.238885" lon="151.3654579">
  <ele>533.2</ele>
  <time>2026-09-01T20:01:47Z</time>
  <course>275.05</course>
  <speed>24.38321143738043</speed>
  <fix>3d</fix>
</trkpt>
<trkpt lat="-27.2388908" lon="151.3655319">
  <ele>533.43</ele>
  <time>2026-09-01T20:01:47Z</time>
  <course>275.08</course>
  <speed>24.16</speed>
  <fix>3d</fix>
</trkpt>
<trkpt lat="-27.238883" lon="151.3654333">
  <ele>533.15</ele>
  <time>2026-09-01T20:01:47Z</time>
  <course>275.03</course>
  <speed>24.453817697856504</speed>
  <fix>3d</fix>
</trkpt>
<trkpt lat="-27.2388869" lon="151.3654831">
  <ele>533.27</ele>
  <time>2026-09-01T20:01:47Z</time>
  <course>275.05</course>
  <speed>24.31</speed>
  <fix>3d</fix>
</trkpt>
<trkpt lat="-27.2388811" lon="151.3654087">
  <ele>533.11</ele>
  <time>2026-09-01T20:01:47Z</time>
  <course>274.98</course>
  <speed>24.52354990616163</speed>
  <fix>3d</fix>
</trkpt>
<trkpt lat="-27.2388869" lon="151.3654831">
  <ele>533.27</ele>
  <time>2026-09-01T20:01:47Z</time>
  <course>275.05</course>
  <speed>24.31</speed>
  <fix>3d</fix>
</trkpt>
<trkpt lat="-27.2388792" lon="151.365384">
  <ele>533.08</ele>
  <time>2026-09-01T20:01:47Z</time>
  <course>275.01</course>
  <speed>24.583321581918096</speed>
  <fix>3d</fix>
</trkpt>
<trkpt lat="-27.2388831" lon="151.3654341">
  <ele>533.16</ele>
  <time>2026-09-01T20:01:47Z</time>
  <course>275.02</course>
  <speed>24.45</speed>
  <fix>3d</fix>
</trkpt>
<trkpt lat="-27.2388773" lon="151.3653592">
  <ele>533.06</ele>
  <time>2026-09-01T20:01:47Z</time>
  <course>275.03</course>
  <speed>24.634002922789467</speed>
  <fix>3d</fix>
</trkpt>
<trkpt lat="-27.2388831" lon="151.3654341">
  <ele>533.16</ele>
  <time>2026-09-01T20:01:47Z</time>
  <course>275.02</course>
  <speed>24.45</speed>
  <fix>3d</fix>
</trkpt>
<trkpt lat="-27.2388753" lon="151.3653344">
  <ele>533.04</ele>
  <time>2026-09-01T20:01:47Z</time>
  <course>275.05</course>
  <speed>24.68381250941596</speed>
  <fix>3d</fix>
</trkpt>
<trkpt lat="-27.2388792" lon="151.3653847">
  <ele>533.08</ele>
  <time>2026-09-01T20:01:47Z</time>
  <course>275.0</course>
  <speed>24.58</speed>
  <fix>3d</fix>
</trkpt>
<trkpt lat="-27.2388734" lon="151.3653095">
  <ele>533.04</ele>
  <time>2026-09-01T20:01:47Z</time>
  <course>275.02</course>
  <speed>24.734494132688464</speed>
  <fix>3d</fix>
</trkpt>
<trkpt lat="-27.2388792" lon="151.3653847">
  <ele>533.08</ele>
  <time>2026-09-01T20:01:47Z</time>
  <course>275.0</course>
  <speed>24.58</speed>
  <fix>3d</fix>
</trkpt>
<trkpt lat="-27.2388714" lon="151.3652846">
  <ele>533.04</ele>
  <time>2026-09-01T20:01:47Z</time>
  <course>275.01</course>
  <speed>24.785177021760404</speed>
  <fix>3d</fix>
</trkpt>
<trkpt lat="-27.2388754" lon="151.3653351">
  <ele>533.05</ele>
  <time>2026-09-01T20:01:47Z</time>
  <course>275.01</course>
  <speed>24.69</speed>
  <fix>3d</fix>
</trkpt>
<trkpt lat="-27.2388695" lon="151.3652596">
  <ele>533.04</ele>
  <time>2026-09-01T20:01:47Z</time>
  <course>275.0</course>
  <speed>24.834985403659893</speed>
  <fix>3d</fix>
</trkpt>
<trkpt lat="-27.2388754" lon="151.3653351">
  <ele>533.05</ele>
  <time>2026-09-01T20:01:47Z</time>
  <course>275.01</course>
  <speed>24.69</speed>
  <fix>3d</fix>
</trkpt>
<trkpt lat="-27.2388675" lon="151.3652345">
  <ele>533.06</ele>
  <time>2026-09-01T20:01:47Z</time>
  <course>274.99</course>
  <speed>24.86574551466334</speed>
  <fix>3d</fix>
</trkpt>
<trkpt lat="-27.2388715" lon="151.3652854">
  <ele>533.04</ele>
  <time>2026-09-01T20:01:47Z</time>
  <course>275.02</course>
  <speed>24.78</speed>
  <fix>3d</fix>
</trkpt>
<trkpt lat="-27.2388656" lon="151.3652095">
  <ele>533.09</ele>
  <time>2026-09-01T20:01:47Z</time>
  <course>274.94</course>
  <speed>24.84582258650335</speed>
  <fix>3d</fix>
</trkpt>
<trkpt lat="-27.2388715" lon="151.3652854">
  <ele>533.04</ele>
  <time>2026-09-01T20:01:47Z</time>
  <course>275.02</course>
  <speed>24.78</speed>
  <fix>3d</fix>
</trkpt>
<trkpt lat="-27.2388636" lon="151.3651846">
  <ele>533.11</ele>
  <time>2026-09-01T20:01:47Z</time>
  <course>274.95</course>
  <speed>24.765253885232028</speed>
  <fix>3d</fix>
</trkpt>
<trkpt lat="-27.2388676" lon="151.3652353">
  <ele>533.06</ele>
  <time>2026-09-01T20:01:47Z</time>
  <course>275.03</course>
  <speed>24.84</speed>
  <fix>3d</fix>
</trkpt>
<trkpt lat="-27.2388617" lon="151.3651597">
  <ele>533.14</ele>
  <time>2026-09-01T20:01:47Z</time>
  <course>274.96</course>
  <speed>24.634877714330145</speed>
  <fix>3d</fix>
</trkpt>
<trkpt lat="-27.2388676" lon="151.3652353">
  <ele>533.06</ele>
  <time>2026-09-01T20:01:47Z</time>
  <course>275.03</course>
  <speed>24.84</speed>
  <fix>3d</fix>
</trkpt>
<trkpt lat="-27.2388597" lon="151.3651351">
  <ele>533.18</ele>
  <time>2026-09-01T20:01:47Z</time>
  <course>275.01</course>
  <speed>24.444733584148548</speed>
  <fix>3d</fix>
</trkpt>
<trkpt lat="-27.2388636" lon="151.3651853">
  <ele>533.11</ele>
  <time>2026-09-01T20:01:47Z</time>
  <course>275.04</course>
  <speed>24.74</speed>
  <fix>3d</fix>
</trkpt>
<trkpt lat="-27.2388577" lon="151.3651098">
  <ele>533.21</ele>
  <time>2026-09-01T20:01:47Z</time>
  <course>275.05</course>
  <speed>24.193943456989395</speed>
  <fix>3d</fix>
</trkpt>
<trkpt lat="-27.2388597" lon="151.3651358">
  <ele>533.17</ele>
  <time>2026-09-01T20:01:47Z</time>
  <course>275.05</course>
  <speed>24.42</speed>
  <fix>3d</fix>
</trkpt>
<trkpt lat="-27.2388558" lon="151.3650855">
  <ele>533.24</ele>
  <time>2026-09-01T20:01:47Z</time>
  <course>275.06</course>
  <speed>23.893348446795816</speed>
  <fix>3d</fix>
</trkpt>
<trkpt lat="-27.2388597" lon="151.3651358">
  <ele>533.17</ele>
  <time>2026-09-01T20:01:47Z</time>
  <course>275.05</course>
  <speed>24.42</speed>
  <fix>3d</fix>
</trkpt>
<trkpt lat="-27.2388539" lon="151.3650616">
  <ele>533.25</ele>
  <time>2026-09-01T20:01:47Z</time>
  <course>275.06</course>
  <speed>23.582794575707094</speed>
  <fix>3d</fix>
</trkpt>
<trkpt lat="-27.2388559" lon="151.3650871">
  <ele>533.23</ele>
  <time>2026-09-01T20:01:47Z</time>
  <course>275.08</course>
  <speed>23.9</speed>
  <fix>3d</fix>
</trkpt>
<trkpt lat="-27.2388521" lon="151.3650381">
  <ele>533.25</ele>
  <time>2026-09-01T20:01:47Z</time>
  <course>275.07</course>
  <speed>23.272243123515192</speed>
  <fix>3d</fix>
</trkpt>
<trkpt lat="-27.2388559" lon="151.3650871">
  <ele>533.23</ele>
  <time>2026-09-01T20:01:47Z</time>
  <course>275.08</course>
  <speed>23.9</speed>
  <fix>3d</fix>
</trkpt>
<trkpt lat="-27.2388502" lon="151.3650149">
  <ele>533.22</ele>
  <time>2026-09-01T20:01:47Z</time>
  <course>275.08</course>
  <speed>22.97165427216769</speed>
  <fix>3d</fix>
</trkpt>
<trkpt lat="-27.2388521" lon="151.3650396">
  <ele>533.23</ele>
  <time>2026-09-01T20:01:47Z</time>
  <course>275.11</course>
  <speed>23.3</speed>
  <fix>3d</fix>
</trkpt>
<trkpt lat="-27.2388484" lon="151.3649919">
  <ele>533.16</ele>
  <time>2026-09-01T20:01:47Z</time>
  <course>275.09</course>
  <speed>22.7009471168055</speed>
  <fix>3d</fix>
</trkpt>
<trkpt lat="-27.2388521" lon="151.3650396">
  <ele>533.23</ele>
  <time>2026-09-01T20:01:47Z</time>
  <course>275.11</course>
  <speed>23.3</speed>
  <fix>3d</fix>
</trkpt>
<trkpt lat="-27.2388466" lon="151.3649697">
  <ele>533.08</ele>
  <time>2026-09-01T20:01:47Z</time>
  <course>275.1</course>
  <speed>22.451057881534226</speed>
  <fix>3d</fix>
</trkpt>
<trkpt lat="-27.2388521" lon="151.3650396">
  <ele>533.23</ele>
  <time>2026-09-01T20:01:47Z</time>
  <course>275.11</course>
  <speed>23.3</speed>
  <fix>3d</fix>
</trkpt>
<trkpt lat="-27.2388448" lon="151.3649472">
  <ele>532.95</ele>
  <time>2026-09-01T20:01:47Z</time>
  <course>275.12</course>
  <speed>22.250069662812294</speed>
  <fix>3d</fix>
</trkpt>
<trkpt lat="-27.2388484" lon="151.3649933">
  <ele>533.15</ele>
  <time>2026-09-01T20:01:47Z</time>
  <course>275.14</course>
  <speed>22.73</speed>
  <fix>3d</fix>
</trkpt>
<trkpt lat="-27.238843" lon="151.364925">
  <ele>532.79</ele>
  <time>2026-09-01T20:01:47Z</time>
  <course>275.14</course>
  <speed>22.120598997314698</speed>
  <fix>3d</fix>
</trkpt>
<trkpt lat="-27.2388484" lon="151.3649933">
  <ele>533.15</ele>
  <time>2026-09-01T20:01:47Z</time>
  <course>275.14</course>
  <speed>22.73</speed>
  <fix>3d</fix>
</trkpt>
<trkpt lat="-27.2388412" lon="151.3649026">
  <ele>532.6</ele>
  <time>2026-09-01T20:01:47Z</time>
  <course>275.18</course>
  <speed>22.070804244521764</speed>
  <fix>3d</fix>
</trkpt>
<trkpt lat="-27.2388448" lon="151.3649481">
  <ele>532.94</ele>
  <time>2026-09-01T20:01:47Z</time>
  <course>275.18</course>
  <speed>22.29</speed>
  <fix>3d</fix>
</trkpt>
<trkpt lat="-27.2388394" lon="151.3648805">
  <ele>532.38</ele>
  <time>2026-09-01T20:01:47Z</time>
  <course>275.2</course>
  <speed>22.09162963658408</speed>
  <fix>3d</fix>
</trkpt>
<trkpt lat="-27.2388448" lon="151.3649481">
  <ele>532.94</ele>
  <time>2026-09-01T20:01:47Z</time>
  <course>275.18</course>
  <speed>22.29</speed>
  <fix>3d</fix>
</trkpt>
<trkpt lat="-27.2388375" lon="151.3648582">
  <ele>532.13</ele>
  <time>2026-09-01T20:01:47Z</time>
  <course>275.22</course>
  <speed>22.19303719638211</speed>
  <fix>3d</fix>
</trkpt>
<trkpt lat="-27.2388412" lon="151.3649034">
  <ele>532.59</ele>
  <time>2026-09-01T20:01:47Z</time>
  <course>275.21</course>
  <speed>22.11</speed>
  <fix>3d</fix>
</trkpt>
<trkpt lat="-27.2388357" lon="151.3648359">
  <ele>531.86</ele>
  <time>2026-09-01T20:01:47Z</time>
  <course>275.25</course>
  <speed>22.354196474040396</speed>
  <fix>3d</fix>
</trkpt>
<trkpt lat="-27.2388412" lon="151.3649034">
  <ele>532.59</ele>
  <time>2026-09-01T20:01:47Z</time>
  <course>275.21</course>
  <speed>22.11</speed>
  <fix>3d</fix>
</trkpt>
<trkpt lat="-27.2388338" lon="151.3648132">
  <ele>531.59</ele>
  <time>2026-09-01T20:01:47Z</time>
  <course>275.24</course>
  <speed>22.586903284868423</speed>
  <fix>3d</fix>
</trkpt>
<trkpt lat="-27.2388376" lon="151.3648589">
  <ele>532.13</ele>
  <time>2026-09-01T20:01:47Z</time>
  <course>275.26</course>
  <speed>22.22</speed>
  <fix>3d</fix>
</trkpt>
<trkpt lat="-27.238832" lon="151.3647904">
  <ele>531.31</ele>
  <time>2026-09-01T20:01:47Z</time>
  <course>275.17</course>
  <speed>22.86847830530051</speed>
  <fix>3d</fix>
</trkpt>
<trkpt lat="-27.2388376" lon="151.3648589">
  <ele>532.13</ele>
  <time>2026-09-01T20:01:47Z</time>
  <course>275.26</course>
  <speed>22.22</speed>
  <fix>3d</fix>
</trkpt>
<trkpt lat="-27.23883" lon="151.3647672">
  <ele>531.03</ele>
  <time>2026-09-01T20:01:47Z</time>
  <course>275.25</course>
  <speed>23.110227173266818</speed>
  <fix>3d</fix>
</trkpt>
<trkpt lat="-27.2388339" lon="151.3648139">
  <ele>531.59</ele>
  <time>2026-09-01T20:01:47Z</time>
  <course>275.3</course>
  <speed>22.6</speed>
  <fix>3d</fix>
</trkpt>
<trkpt lat="-27.2388281" lon="151.3647438">
  <ele>530.76</ele>
  <time>2026-09-01T20:01:47Z</time>
  <course>275.39</course>
  <speed>23.302197321282815</speed>
  <fix>3d</fix>
</trkpt>
<trkpt lat="-27.2388339" lon="151.3648139">
  <ele>531.59</ele>
  <time>2026-09-01T20:01:47Z</time>
  <course>275.3</course>
  <speed>22.6</speed>
  <fix>3d</fix>
</trkpt>
<trkpt lat="-27.2388261" lon="151.3647203">
  <ele>530.52</ele>
  <time>2026-09-01T20:01:47Z</time>
  <course>275.43</course>
  <speed>23.44534068850355</speed>
  <fix>3d</fix>
</trkpt>
<trkpt lat="-27.23883" lon="151.3647679">
  <ele>531.04</ele>
  <time>2026-09-01T20:01:47Z</time>
  <course>275.36</course>
  <speed>23.08</speed>
  <fix>3d</fix>
</trkpt>
<trkpt lat="-27.2388241" lon="151.3646968">
  <ele>530.38</ele>
  <time>2026-09-01T20:01:47Z</time>
  <course>275.46</course>
  <speed>23.456244371169056</speed>
  <fix>3d</fix>
</trkpt>
<trkpt lat="-27.23883" lon="151.3647679">
  <ele>531.04</ele>
  <time>2026-09-01T20:01:47Z</time>
  <course>275.36</course>
  <speed>23.08</speed>
  <fix>3d</fix>
</trkpt>
<trkpt lat="-27.2388221" lon="151.3646733">
  <ele>530.36</ele>
  <time>2026-09-01T20:01:47Z</time>
  <course>275.49</course>
  <speed>23.31592803214146</speed>
  <fix>3d</fix>
</trkpt>
<trkpt lat="-27.2388261" lon="151.364721">
  <ele>530.58</ele>
  <time>2026-09-01T20:01:47Z</time>
  <course>275.42</course>
  <speed>23.38</speed>
  <fix>3d</fix>
</trkpt>
<trkpt lat="-27.2388201" lon="151.3646499">
  <ele>530.43</ele>
  <time>2026-09-01T20:01:47Z</time>
  <course>275.49</course>
  <speed>23.044298644133217</speed>
  <fix>3d</fix>
</trkpt>
<trkpt lat="-27.2388261" lon="151.364721">
  <ele>530.58</ele>
  <time>2026-09-01T20:01:47Z</time>
  <course>275.42</course>
  <speed>23.38</speed>
  <fix>3d</fix>
</trkpt>
<trkpt lat="-27.2388181" lon="151.3646262">
  <ele>530.59</ele>
  <time>2026-09-01T20:01:47Z</time>
  <course>275.49</course>
  <speed>22.642307744574097</speed>
  <fix>3d</fix>
</trkpt>
<trkpt lat="-27.2388221" lon="151.3646739">
  <ele>530.41</ele>
  <time>2026-09-01T20:01:47Z</time>
  <course>275.46</course>
  <speed>23.26</speed>
  <fix>3d</fix>
</trkpt>
<trkpt lat="-27.2388162" lon="151.3646037">
  <ele>530.82</ele>
  <time>2026-09-01T20:01:47Z</time>
  <course>275.49</course>
  <speed>22.170633730229724</speed>
  <fix>3d</fix>
</trkpt>
<trkpt lat="-27.2388182" lon="151.3646277">
  <ele>530.62</ele>
  <time>2026-09-01T20:01:47Z</time>
  <course>275.46</course>
  <speed>22.63</speed>
  <fix>3d</fix>
</trkpt>
<trkpt lat="-27.2388143" lon="151.3645815">
  <ele>531.11</ele>
  <time>2026-09-01T20:01:48Z</time>
  <course>275.47</course>
  <speed>21.678099547700207</speed>
  <fix>3d</fix>
</trkpt>
<trkpt lat="-27.2388182" lon="151.3646277">
  <ele>530.62</ele>
  <time>2026-09-01T20:01:48Z</time>
  <course>275.46</course>
  <speed>22.63</speed>
  <fix>3d</fix>
</trkpt>
<trkpt lat="-27.2388125" lon="151.3645601">
  <ele>531.44</ele>
  <time>2026-09-01T20:01:48Z</time>
  <course>275.46</course>
  <speed>21.17561097111486</speed>
  <fix>3d</fix>
</trkpt>
<trkpt lat="-27.2388144" lon="151.3645831">
  <ele>531.11</ele>
  <time>2026-09-01T20:01:48Z</time>
  <course>275.45</course>
  <speed>21.71</speed>
  <fix>3d</fix>
</trkpt>
<trkpt lat="-27.2388107" lon="151.3645389">
  <ele>531.79</ele>
  <time>2026-09-01T20:01:48Z</time>
  <course>275.45</course>
  <speed>20.673122647534406</speed>
  <fix>3d</fix>
</trkpt>
<trkpt lat="-27.2388144" lon="151.3645831">
  <ele>531.11</ele>
  <time>2026-09-01T20:01:48Z</time>
  <course>275.45</course>
  <speed>21.71</speed>
  <fix>3d</fix>
</trkpt>
<trkpt lat="-27.2388089" lon="151.3645185">
  <ele>532.18</ele>
  <time>2026-09-01T20:01:48Z</time>
  <course>275.45</course>
  <speed>20.18058968414947</speed>
  <fix>3d</fix>
</trkpt>
<trkpt lat="-27.2388108" lon="151.3645404">
  <ele>531.79</ele>
  <time>2026-09-01T20:01:48Z</time>
  <course>275.45</course>
  <speed>20.71</speed>
  <fix>3d</fix>
</trkpt>
<trkpt lat="-27.2388072" lon="151.3644985">
  <ele>532.59</ele>
  <time>2026-09-01T20:01:48Z</time>
  <course>275.46</course>
  <speed>19.679049773807677</speed>
  <fix>3d</fix>
</trkpt>
<trkpt lat="-27.2388108" lon="151.3645404">
  <ele>531.79</ele>
  <time>2026-09-01T20:01:48Z</time>
  <course>275.45</course>
  <speed>20.71</speed>
  <fix>3d</fix>
</trkpt>
<trkpt lat="-27.2388056" lon="151.3644789">
  <ele>533.01</ele>
  <time>2026-09-01T20:01:48Z</time>
  <course>275.46</course>
  <speed>19.18651609855213</speed>
  <fix>3d</fix>
</trkpt>
<trkpt lat="-27.2388073" lon="151.3644998">
  <ele>532.56</ele>
  <time>2026-09-01T20:01:48Z</time>
  <course>275.45</course>
  <speed>19.71</speed>
  <fix>3d</fix>
</trkpt>
<trkpt lat="-27.238804" lon="151.3644598">
  <ele>533.44</ele>
  <time>2026-09-01T20:01:48Z</time>
  <course>275.47</course>
  <speed>18.68497792345498</speed>
  <fix>3d</fix>
</trkpt>
<trkpt lat="-27.2388073" lon="151.3644998">
  <ele>532.56</ele>
  <time>2026-09-01T20:01:48Z</time>
  <course>275.45</course>
  <speed>19.71</speed>
  <fix>3d</fix>
</trkpt>
<trkpt lat="-27.2388024" lon="151.3644412">
  <ele>533.88</ele>
  <time>2026-09-01T20:01:48Z</time>
  <course>275.47</course>
  <speed>18.192443486239007</speed>
  <fix>3d</fix>
</trkpt>
<trkpt lat="-27.2388041" lon="151.3644612">
  <ele>533.42</ele>
  <time>2026-09-01T20:01:48Z</time>
  <course>275.47</course>
  <speed>18.72</speed>
  <fix>3d</fix>
</trkpt>
<trkpt lat="-27.2388008" lon="151.3644233">
  <ele>534.34</ele>
  <time>2026-09-01T20:01:48Z</time>
  <course>275.48</course>
  <speed>17.690907268989907</speed>
  <fix>3d</fix>
</trkpt>
<trkpt lat="-27.2388041" lon="151.3644612">
  <ele>533.42</ele>
  <time>2026-09-01T20:01:48Z</time>
  <course>275.47</course>
  <speed>18.72</speed>
  <fix>3d</fix>
</trkpt>
<trkpt lat="-27.2387993" lon="151.3644057">
  <ele>534.79</ele>
  <time>2026-09-01T20:01:48Z</time>
  <course>275.49</course>
  <speed>17.188417611868758</speed>
  <fix>3d</fix>
</trkpt>
<trkpt lat="-27.2388009" lon="151.3644246">
  <ele>534.31</ele>
  <time>2026-09-01T20:01:48Z</time>
  <course>275.48</course>
  <speed>17.72</speed>
  <fix>3d</fix>
</trkpt>
<trkpt lat="-27.2387979" lon="151.3643892">
  <ele>535.26</ele>
  <time>2026-09-01T20:01:48Z</time>
  <course>275.5</course>
  <speed>16.686884071030157</speed>
  <fix>3d</fix>
</trkpt>
<trkpt lat="-27.2388009" lon="151.3644246">
  <ele>534.31</ele>
  <time>2026-09-01T20:01:48Z</time>
  <course>275.48</course>
  <speed>17.72</speed>
  <fix>3d</fix>
</trkpt>
<trkpt lat="-27.2387965" lon="151.3643726">
  <ele>535.74</ele>
  <time>2026-09-01T20:01:48Z</time>
  <course>275.5</course>
  <speed>16.184393717405666</speed>
  <fix>3d</fix>
</trkpt>
<trkpt lat="-27.2388009" lon="151.3644246">
  <ele>534.31</ele>
  <time>2026-09-01T20:01:48Z</time>
  <course>275.48</course>
  <speed>17.72</speed>
  <fix>3d</fix>
</trkpt>
<trkpt lat="-27.2387951" lon="151.3643565">
  <ele>536.22</ele>
  <time>2026-09-01T20:01:48Z</time>
  <course>275.51</course>
  <speed>15.67194946393077</speed>
  <fix>3d</fix>
</trkpt>
<trkpt lat="-27.2387979" lon="151.3643899">
  <ele>535.24</ele>
  <time>2026-09-01T20:01:48Z</time>
  <course>275.5</course>
  <speed>16.71</speed>
  <fix>3d</fix>
</trkpt>
<trkpt lat="-27.2387938" lon="151.3643411">
  <ele>536.71</ele>
  <time>2026-09-01T20:01:48Z</time>
  <course>275.52</course>
  <speed>15.150511542518952</speed>
  <fix>3d</fix>
</trkpt>
<trkpt lat="-27.2387979" lon="151.3643899">
  <ele>535.24</ele>
  <time>2026-09-01T20:01:48Z</time>
  <course>275.5</course>
  <speed>16.71</speed>
  <fix>3d</fix>
</trkpt>
<trkpt lat="-27.2387925" lon="151.3643261">
  <ele>537.2</ele>
  <time>2026-09-01T20:01:48Z</time>
  <course>275.53</course>
  <speed>14.63806681225359</speed>
  <fix>3d</fix>
</trkpt>
<trkpt lat="-27.2387951" lon="151.3643574">
  <ele>536.2</ele>
  <time>2026-09-01T20:01:48Z</time>
  <course>275.52</course>
  <speed>15.68</speed>
  <fix>3d</fix>
</trkpt>
<trkpt lat="-27.2387912" lon="151.3643117">
  <ele>537.69</ele>
  <time>2026-09-01T20:01:48Z</time>
  <course>275.54</course>
  <speed>14.125622110193945</speed>
  <fix>3d</fix>
</trkpt>
<trkpt lat="-27.2387951" lon="151.3643574">
  <ele>536.2</ele>
  <time>2026-09-01T20:01:48Z</time>
  <course>275.52</course>
  <speed>15.68</speed>
  <fix>3d</fix>
</trkpt>
<trkpt lat="-27.23879" lon="151.3642976">
  <ele>538.19</ele>
  <time>2026-09-01T20:01:48Z</time>
  <course>275.55</course>
  <speed>13.604190530862173</speed>
  <fix>3d</fix>
</trkpt>
<trkpt lat="-27.2387925" lon="151.3643267">
  <ele>537.19</ele>
  <time>2026-09-01T20:01:48Z</time>
  <course>275.54</course>
  <speed>14.65</speed>
  <fix>3d</fix>
</trkpt>
<trkpt lat="-27.2387889" lon="151.3642842">
  <ele>538.68</ele>
  <time>2026-09-01T20:01:48Z</time>
  <course>275.57</course>
  <speed>13.091745490957269</speed>
  <fix>3d</fix>
</trkpt>
<trkpt lat="-27.2387925" lon="151.3643267">
  <ele>537.19</ele>
  <time>2026-09-01T20:01:48Z</time>
  <course>275.54</course>
  <speed>14.65</speed>
  <fix>3d</fix>
</trkpt>
<trkpt lat="-27.2387877" lon="151.3642714">
  <ele>539.16</ele>
  <time>2026-09-01T20:01:48Z</time>
  <course>275.58</course>
  <speed>12.579300457497627</speed>
  <fix>3d</fix>
</trkpt>
<trkpt lat="-27.2387901" lon="151.3642983">
  <ele>538.17</ele>
  <time>2026-09-01T20:01:48Z</time>
  <course>275.57</course>
  <speed>13.62</speed>
  <fix>3d</fix>
</trkpt>
<trkpt lat="-27.2387866" lon="151.3642586">
  <ele>539.65</ele>
  <time>2026-09-01T20:01:48Z</time>
  <course>275.59</course>
  <speed>12.057877093419057</speed>
  <fix>3d</fix>
</trkpt>
<trkpt lat="-27.2387878" lon="151.3642719">
  <ele>539.14</ele>
  <time>2026-09-01T20:01:48Z</time>
  <course>275.59</course>
  <speed>12.6</speed>
  <fix>3d</fix>
</trkpt>
<trkpt lat="-27.2387856" lon="151.3642467">
  <ele>540.12</ele>
  <time>2026-09-01T20:01:48Z</time>
  <course>275.61</course>
  <speed>11.5553840265047</speed>
  <fix>3d</fix>
</trkpt>
<trkpt lat="-27.2387878" lon="151.3642719">
  <ele>539.14</ele>
  <time>2026-09-01T20:01:48Z</time>
  <course>275.59</course>
  <speed>12.6</speed>
  <fix>3d</fix>
</trkpt>
<trkpt lat="-27.2387846" lon="151.3642353">
  <ele>540.58</ele>
  <time>2026-09-01T20:01:48Z</time>
  <course>275.62</course>
  <speed>11.062843215014846</speed>
  <fix>3d</fix>
</trkpt>
<trkpt lat="-27.2387856" lon="151.3642476">
  <ele>540.08</ele>
  <time>2026-09-01T20:01:48Z</time>
  <course>275.63</course>
  <speed>11.59</speed>
  <fix>3d</fix>
</trkpt>
<trkpt lat="-27.2387836" lon="151.3642245">
  <ele>541.03</ele>
  <time>2026-09-01T20:01:48Z</time>
  <course>275.64</course>
  <speed>10.571281852263708</speed>
  <fix>3d</fix>
</trkpt>
<trkpt lat="-27.2387856" lon="151.3642476">
  <ele>540.08</ele>
  <time>2026-09-01T20:01:48Z</time>
  <course>275.63</course>
  <speed>11.59</speed>
  <fix>3d</fix>
</trkpt>
<trkpt lat="-27.2387827" lon="151.3642141">
  <ele>541.46</ele>
  <time>2026-09-01T20:01:48Z</time>
  <course>275.66</course>
  <speed>10.1095796153945</speed>
  <fix>3d</fix>
</trkpt>
<trkpt lat="-27.2387837" lon="151.3642253">
  <ele>540.99</ele>
  <time>2026-09-01T20:01:48Z</time>
  <course>275.67</course>
  <speed>10.61</speed>
  <fix>3d</fix>
</trkpt>
<trkpt lat="-27.2387818" lon="151.3642042">
  <ele>541.87</ele>
  <time>2026-09-01T20:01:48Z</time>
  <course>275.67</course>
  <speed>9.667781544904704</speed>
  <fix>3d</fix>
</trkpt>
<trkpt lat="-27.2387837" lon="151.3642253">
  <ele>540.99</ele>
  <time>2026-09-01T20:01:48Z</time>
  <course>275.67</course>
  <speed>10.61</speed>
  <fix>3d</fix>
</trkpt>
<trkpt lat="-27.238781" lon="151.3641946">
  <ele>542.25</ele>
  <time>2026-09-01T20:01:48Z</time>
  <course>275.69</course>
  <speed>9.235935253129485</speed>
  <fix>3d</fix>
</trkpt>
<trkpt lat="-27.2387819" lon="151.3642049">
  <ele>541.82</ele>
  <time>2026-09-01T20:01:48Z</time>
  <course>275.71</course>
  <speed>9.7</speed>
  <fix>3d</fix>
</trkpt>
<trkpt lat="-27.2387802" lon="151.3641855">
  <ele>542.61</ele>
  <time>2026-09-01T20:01:48Z</time>
  <course>275.71</course>
  <speed>8.843890546586383</speed>
  <fix>3d</fix>
</trkpt>
<trkpt lat="-27.2387819" lon="151.3642049">
  <ele>541.82</ele>
  <time>2026-09-01T20:01:48Z</time>
  <course>275.71</course>
  <speed>9.7</speed>
  <fix>3d</fix>
</trkpt>
<trkpt lat="-27.2387794" lon="151.3641769">
  <ele>542.95</ele>
  <time>2026-09-01T20:01:48Z</time>
  <course>275.73</course>
  <speed>8.462795046555245</speed>
  <fix>3d</fix>
</trkpt>
<trkpt lat="-27.2387802" lon="151.3641862">
  <ele>542.57</ele>
  <time>2026-09-01T20:01:48Z</time>
  <course>275.75</course>
  <speed>8.87</speed>
  <fix>3d</fix>
</trkpt>
<trkpt lat="-27.2387786" lon="151.3641686">
  <ele>543.25</ele>
  <time>2026-09-01T20:01:48Z</time>
  <course>275.74</course>
  <speed>8.101604779301445</speed>
  <fix>3d</fix>
</trkpt>
<trkpt lat="-27.2387802" lon="151.3641862">
  <ele>542.57</ele>
  <time>2026-09-01T20:01:48Z</time>
  <course>275.75</course>
  <speed>8.87</speed>
  <fix>3d</fix>
</trkpt>
<trkpt lat="-27.2387779" lon="151.3641606">
  <ele>543.52</ele>
  <time>2026-09-01T20:01:48Z</time>
  <course>275.76</course>
  <speed>7.760315715227055</speed>
  <fix>3d</fix>
</trkpt>
<trkpt lat="-27.2387787" lon="151.3641692">
  <ele>543.22</ele>
  <time>2026-09-01T20:01:48Z</time>
  <course>275.8</course>
  <speed>8.13</speed>
  <fix>3d</fix>
</trkpt>
<trkpt lat="-27.2387772" lon="151.3641529">
  <ele>543.76</ele>
  <time>2026-09-01T20:01:48Z</time>
  <course>275.78</course>
  <speed>7.448872397886811</speed>
  <fix>3d</fix>
</trkpt>
<trkpt lat="-27.2387787" lon="151.3641692">
  <ele>543.22</ele>
  <time>2026-09-01T20:01:48Z</time>
  <course>275.8</course>
  <speed>8.13</speed>
  <fix>3d</fix>
</trkpt>
<trkpt lat="-27.2387765" lon="151.3641456">
  <ele>543.97</ele>
  <time>2026-09-01T20:01:48Z</time>
  <course>275.8</course>
  <speed>7.157324919269769</speed>
  <fix>3d</fix>
</trkpt>
<trkpt lat="-27.2387773" lon="151.3641534">
  <ele>543.73</ele>
  <time>2026-09-01T20:01:48Z</time>
  <course>275.86</course>
  <speed>7.48</speed>
  <fix>3d</fix>
</trkpt>
<trkpt lat="-27.2387759" lon="151.3641386">
  <ele>544.15</ele>
  <time>2026-09-01T20:01:48Z</time>
  <course>275.82</course>
  <speed>6.886697321648455</speed>
  <fix>3d</fix>
</trkpt>
<trkpt lat="-27.2387773" lon="151.3641534">
  <ele>543.73</ele>
  <time>2026-09-01T20:01:48Z</time>
  <course>275.86</course>
  <speed>7.48</speed>
  <fix>3d</fix>
</trkpt>
<trkpt lat="-27.2387753" lon="151.3641318">
  <ele>544.29</ele>
  <time>2026-09-01T20:01:48Z</time>
  <course>275.83</course>
  <speed>6.634937829399759</speed>
  <fix>3d</fix>
</trkpt>
<trkpt lat="-27.2387759" lon="151.364139">
  <ele>544.12</ele>
  <time>2026-09-01T20:01:48Z</time>
  <course>275.91</course>
  <speed>6.91</speed>
  <fix>3d</fix>
</trkpt>
<trkpt lat="-27.2387747" lon="151.3641252">
  <ele>544.4</ele>
  <time>2026-09-01T20:01:48Z</time>
  <course>275.85</course>
  <speed>6.41404708432983</speed>
  <fix>3d</fix>
</trkpt>
<trkpt lat="-27.2387759" lon="151.364139">
  <ele>544.12</ele>
  <time>2026-09-01T20:01:48Z</time>
  <course>275.91</course>
  <speed>6.91</speed>
  <fix>3d</fix>
</trkpt>
<trkpt lat="-27.238774" lon="151.3641188">
  <ele>544.47</ele>
  <time>2026-09-01T20:01:48Z</time>
  <course>275.87</course>
  <speed>6.224034061603455</speed>
  <fix>3d</fix>
</trkpt>
<trkpt lat="-27.2387747" lon="151.3641256">
  <ele>544.37</ele>
  <time>2026-09-01T20:01:48Z</time>
  <course>275.97</course>
  <speed>6.44</speed>
  <fix>3d</fix>
</trkpt>
<trkpt lat="-27.2387735" lon="151.3641127">
  <ele>544.52</ele>
  <time>2026-09-01T20:01:48Z</time>
  <course>275.88</course>
  <speed>6.042929753025431</speed>
  <fix>3d</fix>
</trkpt>
<trkpt lat="-27.2387747" lon="151.3641256">
  <ele>544.37</ele>
  <time>2026-09-01T20:01:48Z</time>
  <course>275.97</course>
  <speed>6.44</speed>
  <fix>3d</fix>
</trkpt>
<trkpt lat="-27.2387729" lon="151.3641066">
  <ele>544.53</ele>
  <time>2026-09-01T20:01:48Z</time>
  <course>275.9</course>
  <speed>5.892707357403725</speed>
  <fix>3d</fix>
</trkpt>
<trkpt lat="-27.2387735" lon="151.3641131">
  <ele>544.5</ele>
  <time>2026-09-01T20:01:48Z</time>
  <course>276.02</course>
  <speed>6.07</speed>
  <fix>3d</fix>
</trkpt>
<trkpt lat="-27.2387724" lon="151.364101">
  <ele>544.5</ele>
  <time>2026-09-01T20:01:48Z</time>
  <course>275.92</course>
  <speed>5.75138244250893</speed>
  <fix>3d</fix>
</trkpt>
<trkpt lat="-27.2387735" lon="151.3641131">
  <ele>544.5</ele>
  <time>2026-09-01T20:01:48Z</time>
  <course>276.02</course>
  <speed>6.07</speed>
  <fix>3d</fix>
</trkpt>
<trkpt lat="-27.2387718" lon="151.3640953">
  <ele>544.39</ele>
  <time>2026-09-01T20:01:48Z</time>
  <course>275.94</course>
  <speed>5.560332723857449</speed>
  <fix>3d</fix>
</trkpt>
<trkpt lat="-27.2387735" lon="151.3641131">
  <ele>544.5</ele>
  <time>2026-09-01T20:01:48Z</time>
  <course>276.02</course>
  <speed>6.07</speed>
  <fix>3d</fix>
</trkpt>
<trkpt lat="-27.2387713" lon="151.3640896">
  <ele>544.2</ele>
  <time>2026-09-01T20:01:48Z</time>
  <course>275.97</course>
  <speed>5.309613921934438</speed>
  <fix>3d</fix>
</trkpt>
<trkpt lat="-27.2387724" lon="151.3641012">
  <ele>544.46</ele>
  <time>2026-09-01T20:01:48Z</time>
  <course>276.06</course>
  <speed>5.74</speed>
  <fix>3d</fix>
</trkpt>
<trkpt lat="-27.2387708" lon="151.3640844">
  <ele>543.94</ele>
  <time>2026-09-01T20:01:48Z</time>
  <course>276.0</course>
  <speed>5.028011535388518</speed>
  <fix>3d</fix>
</trkpt>
<trkpt lat="-27.2387713" lon="151.36409">
  <ele>544.18</ele>
  <time>2026-09-01T20:01:48Z</time>
  <course>276.08</course>
  <speed>5.31</speed>
  <fix>3d</fix>
</trkpt>
<trkpt lat="-27.2387704" lon="151.3640795">
  <ele>543.62</ele>
  <time>2026-09-01T20:01:48Z</time>
  <course>276.04</course>
  <speed>4.706633616503414</speed>
  <fix>3d</fix>
</trkpt>
<trkpt lat="-27.2387713" lon="151.36409">
  <ele>544.18</ele>
  <time>2026-09-01T20:01:48Z</time>
  <course>276.08</course>
  <speed>5.31</speed>
  <fix>3d</fix>
</trkpt>
<trkpt lat="-27.2387699" lon="151.3640749">
  <ele>543.25</ele>
  <time>2026-09-01T20:01:48Z</time>
  <course>276.06</course>
  <speed>4.31459152180134</speed>
  <fix>3d</fix>
</trkpt>
<trkpt lat="-27.2387703" lon="151.36408">
  <ele>543.62</ele>
  <time>2026-09-01T20:01:48Z</time>
  <course>276.11</course>
  <speed>4.69</speed>
  <fix>3d</fix>
</trkpt>
<trkpt lat="-27.2387695" lon="151.3640709">
  <ele>542.86</ele>
  <time>2026-09-01T20:01:48Z</time>
  <course>276.03</course>
  <speed>3.88171353914737</speed>
  <fix>3d</fix>
</trkpt>
<trkpt lat="-27.2387703" lon="151.36408">
  <ele>543.62</ele>
  <time>2026-09-01T20:01:48Z</time>
  <course>276.11</course>
  <speed>4.69</speed>
  <fix>3d</fix>
</trkpt>
<trkpt lat="-27.2387692" lon="151.3640672">
  <ele>542.44</ele>
  <time>2026-09-01T20:01:48Z</time>
  <course>275.96</course>
  <speed>3.4001911710961195</speed>
  <fix>3d</fix>
</trkpt>
<trkpt lat="-27.2387695" lon="151.3640713">
  <ele>542.87</ele>
  <time>2026-09-01T20:01:48Z</time>
  <course>276.17</course>
  <speed>3.89</speed>
  <fix>3d</fix>
</trkpt>
<trkpt lat="-27.2387689" lon="151.3640639">
  <ele>542.03</ele>
  <time>2026-09-01T20:01:48Z</time>
  <course>275.84</course>
  <speed>2.917601754866486</speed>
  <fix>3d</fix>
</trkpt>
<trkpt lat="-27.2387695" lon="151.3640713">
  <ele>542.87</ele>
  <time>2026-09-01T20:01:48Z</time>
  <course>276.17</course>
  <speed>3.89</speed>
  <fix>3d</fix>
</trkpt>
<trkpt lat="-27.2387686" lon="151.3640613">
  <ele>541.63</ele>
  <time>2026-09-01T20:01:48Z</time>
  <course>275.7</course>
  <speed>2.4449539872971027</speed>
  <fix>3d</fix>
</trkpt>
<trkpt lat="-27.2387689" lon="151.3640644">
  <ele>542.06</ele>
  <time>2026-09-01T20:01:48Z</time>
  <course>276.29</course>
  <speed>2.95</speed>
  <fix>3d</fix>
</trkpt>
<trkpt lat="-27.2387684" lon="151.3640591">
  <ele>541.25</ele>
  <time>2026-09-01T20:01:48Z</time>
  <course>275.56</course>
  <speed>2.002123872291622</speed>
  <fix>3d</fix>
</trkpt>
<trkpt lat="-27.2387689" lon="151.3640644">
  <ele>542.06</ele>
  <time>2026-09-01T20:01:48Z</time>
  <course>276.29</course>
  <speed>2.95</speed>
  <fix>3d</fix>
</trkpt>
<trkpt lat="-27.2387682" lon="151.3640572">
  <ele>540.89</ele>
  <time>2026-09-01T20:01:48Z</time>
  <course>275.41</course>
  <speed>1.6001562423713507</speed>
  <fix>3d</fix>
</trkpt>
<trkpt lat="-27.2387684" lon="151.3640594">
  <ele>541.28</ele>
  <time>2026-09-01T20:01:48Z</time>
  <course>276.46</course>
  <speed>2.05</speed>
  <fix>3d</fix>
</trkpt>
<trkpt lat="-27.238768" lon="151.3640558">
  <ele>540.56</ele>
  <time>2026-09-01T20:01:48Z</time>
  <course>275.28</course>
  <speed>1.2280065146407002</speed>
  <fix>3d</fix>
</trkpt>
<trkpt lat="-27.2387684" lon="151.3640594">
  <ele>541.28</ele>
  <time>2026-09-01T20:01:48Z</time>
  <course>276.46</course>
  <speed>2.05</speed>
  <fix>3d</fix>
</trkpt>
<trkpt lat="-27.2387679" lon="151.3640548">
  <ele>540.25</ele>
  <time>2026-09-01T20:01:48Z</time>
  <course>275.18</course>
  <speed>0.8856635930193812</speed>
  <fix>3d</fix>
</trkpt>
<trkpt lat="-27.238768" lon="151.3640561">
  <ele>540.58</ele>
  <time>2026-09-01T20:01:48Z</time>
  <course>276.59</course>
  <speed>1.27</speed>
  <fix>3d</fix>
</trkpt>
<trkpt lat="-27.2387679" lon="151.3640541">
  <ele>539.98</ele>
  <time>2026-09-01T20:01:48Z</time>
  <course>275.17</course>
  <speed>0.58309518948453</speed>
  <fix>3d</fix>
</trkpt>
<trkpt lat="-27.238768" lon="151.3640561">
  <ele>540.58</ele>
  <time>2026-09-01T20:01:48Z</time>
  <course>276.59</course>
  <speed>1.27</speed>
  <fix>3d</fix>
</trkpt>
<trkpt lat="-27.2387678" lon="151.3640536">
  <ele>539.73</ele>
  <time>2026-09-01T20:01:48Z</time>
  <course>275.12</course>
  <speed>0.3014962686336267</speed>
  <fix>3d</fix>
</trkpt>
<trkpt lat="-27.2387678" lon="151.3640543">
  <ele>540.0</ele>
  <time>2026-09-01T20:01:48Z</time>
  <course>276.65</course>
  <speed>0.61</speed>
  <fix>3d</fix>
</trkpt>
<trkpt lat="-27.2387678" lon="151.3640534">
  <ele>539.5</ele>
  <time>2026-09-01T20:01:48Z</time>
  <course>274.95</course>
  <speed>0.05099019513592785</speed>
  <fix>3d</fix>
</trkpt>
<trkpt lat="-27.2387678" lon="151.3640543">
  <ele>540.0</ele>
  <time>2026-09-01T20:01:48Z</time>
  <course>276.65</course>
  <speed>0.61</speed>
  <fix>3d</fix>
</trkpt>
<trkpt lat="-27.2387678" lon="151.3640534">
  <ele>539.29</ele>
  <time>2026-09-01T20:01:48Z</time>
  <course>274.7</course>
  <speed>0.16</speed>
  <fix>3d</fix>
</trkpt>
<trkpt lat="-27.2387678" lon="151.3640535">
  <ele>539.53</ele>
  <time>2026-09-01T20:01:48Z</time>
  <course>281.77</course>
  <speed>0.08</speed>
  <fix>3d</fix>
</trkpt>
<trkpt lat="-27.2387678" lon="151.3640538">
  <ele>539.13</ele>
  <time>2026-09-01T20:01:48Z</time>
  <course>274.37</course>
  <speed>0.35014282800023194</speed>
  <fix>3d</fix>
</trkpt>
<trkpt lat="-27.2387678" lon="151.3640535">
  <ele>539.53</ele>
  <time>2026-09-01T20:01:48Z</time>
  <course>281.77</course>
  <speed>0.08</speed>
  <fix>3d</fix>
</trkpt>
<trkpt lat="-27.2387678" lon="151.3640542">
  <ele>538.97</ele>
  <time>2026-09-01T20:01:48Z</time>
  <course>274.0</course>
  <speed>0.5203844732503076</speed>
  <fix>3d</fix>
</trkpt>
<trkpt lat="-27.2387678" lon="151.3640538">
  <ele>539.15</ele>
  <time>2026-09-01T20:01:48Z</time>
  <course>92.23</course>
  <speed>0.33</speed>
  <fix>3d</fix>
</trkpt>
<trkpt lat="-27.2387678" lon="151.3640548">
  <ele>538.83</ele>
  <time>2026-09-01T20:01:48Z</time>
  <course>273.59</course>
  <speed>0.6503076195155643</speed>
  <fix>3d</fix>
</trkpt>
<trkpt lat="-27.2387678" lon="151.3640538">
  <ele>539.15</ele>
  <time>2026-09-01T20:01:48Z</time>
  <course>92.23</course>
  <speed>0.33</speed>
  <fix>3d</fix>
</trkpt>
<trkpt lat="-27.2387679" lon="151.3640553">
  <ele>538.69</ele>
  <time>2026-09-01T20:01:48Z</time>
  <course>273.15</course>
  <speed>0.7602631123499285</speed>
  <fix>3d</fix>
</trkpt>
<trkpt lat="-27.2387678" lon="151.3640548">
  <ele>538.83</ele>
  <time>2026-09-01T20:01:48Z</time>
  <course>92.2</course>
  <speed>0.63</speed>
  <fix>3d</fix>
</trkpt>
<trkpt lat="-27.2387679" lon="151.3640562">
  <ele>538.57</ele>
  <time>2026-09-01T20:01:48Z</time>
  <course>272.72</course>
  <speed>0.8402380615040002</speed>
  <fix>3d</fix>
</trkpt>
<trkpt lat="-27.2387678" lon="151.3640548">
  <ele>538.83</ele>
  <time>2026-09-01T20:01:48Z</time>
  <course>92.2</course>
  <speed>0.63</speed>
  <fix>3d</fix>
</trkpt>
<trkpt lat="-27.2387679" lon="151.3640572">
  <ele>538.46</ele>
  <time>2026-09-01T20:01:48Z</time>
  <course>272.29</course>
  <speed>0.9000555538409837</speed>
  <fix>3d</fix>
</trkpt>
<trkpt lat="-27.2387679" lon="151.3640562">
  <ele>538.58</ele>
  <time>2026-09-01T20:01:48Z</time>
  <course>91.46</course>
  <speed>0.83</speed>
  <fix>3d</fix>
</trkpt>
<trkpt lat="-27.2387679" lon="151.3640581">
  <ele>538.34</ele>
  <time>2026-09-01T20:01:48Z</time>
  <course>271.88</course>
  <speed>0.94</speed>
  <fix>3d</fix>
</trkpt>
<trkpt lat="-27.2387679" lon="151.3640562">
  <ele>538.58</ele>
  <time>2026-09-01T20:01:48Z</time>
  <course>91.46</course>
  <speed>0.83</speed>
  <fix>3d</fix>
</trkpt>
<trkpt lat="-27.2387679" lon="151.3640591">
  <ele>538.23</ele>
  <time>2026-09-01T20:01:48Z</time>
  <course>271.48</course>
  <speed>0.96</speed>
  <fix>3d</fix>
</trkpt>
<trkpt lat="-27.2387679" lon="151.364058">
  <ele>538.34</ele>
  <time>2026-09-01T20:01:48Z</time>
  <course>90.47</course>
  <speed>0.93</speed>
  <fix>3d</fix>
</trkpt>
<trkpt lat="-27.2387679" lon="151.36406">
  <ele>538.11</ele>
  <time>2026-09-01T20:01:48Z</time>
  <course>271.1</course>
  <speed>0.970051545022222</speed>
  <fix>3d</fix>
</trkpt>
<trkpt lat="-27.2387679" lon="151.364058">
  <ele>538.34</ele>
  <time>2026-09-01T20:01:48Z</time>
  <course>90.47</course>
  <speed>0.93</speed>
  <fix>3d</fix>
</trkpt>
<trkpt lat="-27.2387679" lon="151.364061">
  <ele>537.99</ele>
  <time>2026-09-01T20:01:48Z</time>
  <course>270.72</course>
  <speed>0.9802040603874276</speed>
  <fix>3d</fix>
</trkpt>
<trkpt lat="-27.2387679" lon="151.36406">
  <ele>538.11</ele>
  <time>2026-09-01T20:01:48Z</time>
  <course>89.34</course>
  <speed>0.97</speed>
  <fix>3d</fix>
</trkpt>
<trkpt lat="-27.2387679" lon="151.364062">
  <ele>537.87</ele>
  <time>2026-09-01T20:01:48Z</time>
  <course>270.33</course>
  <speed>0.9704638066409278</speed>
  <fix>3d</fix>
</trkpt>
<trkpt lat="-27.2387679" lon="151.36406">
  <ele>538.11</ele>
  <time>2026-09-01T20:01:48Z</time>
  <course>89.34</course>
  <speed>0.97</speed>
  <fix>3d</fix>
</trkpt>
<trkpt lat="-27.2387678" lon="151.3640629">
  <ele>537.74</ele>
  <time>2026-09-01T20:01:48Z</time>
  <course>269.94</course>
  <speed>0.9608329719571451</speed>
  <fix>3d</fix>
</trkpt>
<trkpt lat="-27.2387678" lon="151.364062">
  <ele>537.87</ele>
  <time>2026-09-01T20:01:48Z</time>
  <course>88.1</course>
  <speed>0.97</speed>
  <fix>3d</fix>
</trkpt>
<trkpt lat="-27.2387678" lon="151.3640639">
  <ele>537.6</ele>
  <time>2026-09-01T20:01:48Z</time>
  <course>269.56</course>
  <speed>0.9513148795220223</speed>
  <fix>3d</fix>
</trkpt>
<trkpt lat="-27.2387678" lon="151.364062">
  <ele>537.87</ele>
  <time>2026-09-01T20:01:48Z</time>
  <course>88.1</course>
  <speed>0.97</speed>
  <fix>3d</fix>
</trkpt>
<trkpt lat="-27.2387677" lon="151.3640649">
  <ele>537.46</ele>
  <time>2026-09-01T20:01:48Z</time>
  <course>269.18</course>
  <speed>0.931933474020544</speed>
  <fix>3d</fix>
</trkpt>
<trkpt lat="-27.2387677" lon="151.3640639">
  <ele>537.61</ele>
  <time>2026-09-01T20:01:48Z</time>
  <course>86.86</course>
  <speed>0.95</speed>
  <fix>3d</fix>
</trkpt>
<trkpt lat="-27.2387677" lon="151.3640658">
  <ele>537.32</ele>
  <time>2026-09-01T20:01:48Z</time>
  <course>268.81</course>
  <speed>0.9226592003551474</speed>
  <fix>3d</fix>
</trkpt>
<trkpt lat="-27.2387677" lon="151.3640639">
  <ele>537.61</ele>
  <time>2026-09-01T20:01:48Z</time>
  <course>86.86</course>
  <speed>0.95</speed>
  <fix>3d</fix>
</trkpt>
<trkpt lat="-27.2387676" lon="151.3640668">
  <ele>537.16</ele>
  <time>2026-09-01T20:01:48Z</time>
  <course>268.45</course>
  <speed>0.9027181176868004</speed>
  <fix>3d</fix>
</trkpt>
<trkpt lat="-27.2387676" lon="151.3640658">
  <ele>537.32</ele>
  <time>2026-09-01T20:01:48Z</time>
  <course>85.72</course>
  <speed>0.92</speed>
  <fix>3d</fix>
</trkpt>
<trkpt lat="-27.2387675" lon="151.3640677">
  <ele>537.02</ele>
  <time>2026-09-01T20:01:48Z</time>
  <course>268.12</course>
  <speed>0.8836288813749809</speed>
  <fix>3d</fix>
</trkpt>
<trkpt lat="-27.2387676" lon="151.3640658">
  <ele>537.32</ele>
  <time>2026-09-01T20:01:48Z</time>
  <course>85.72</course>
  <speed>0.92</speed>
  <fix>3d</fix>
</trkpt>
<trkpt lat="-27.2387675" lon="151.3640686">
  <ele>536.86</ele>
  <time>2026-09-01T20:01:48Z</time>
  <course>267.83</course>
  <speed>0.8637129152675673</speed>
  <fix>3d</fix>
</trkpt>
<trkpt lat="-27.2387675" lon="151.3640676">
  <ele>537.02</ele>
  <time>2026-09-01T20:01:48Z</time>
  <course>84.8</course>
  <speed>0.89</speed>
  <fix>3d</fix>
</trkpt>
<trkpt lat="-27.2387674" lon="151.3640695">
  <ele>536.71</ele>
  <time>2026-09-01T20:01:48Z</time>
  <course>267.57</course>
  <speed>0.8438009243891595</speed>
  <fix>3d</fix>
</trkpt>
<trkpt lat="-27.2387675" lon="151.3640676">
  <ele>537.02</ele>
  <time>2026-09-01T20:01:48Z</time>
  <course>84.8</course>
  <speed>0.89</speed>
  <fix>3d</fix>
</trkpt>
<trkpt lat="-27.2387673" lon="151.3640702">
  <ele>536.54</ele>
  <time>2026-09-01T20:01:48Z</time>
  <course>267.36</course>
  <speed>0.8238931969618392</speed>
  <fix>3d</fix>
</trkpt>
<trkpt lat="-27.2387674" lon="151.3640694">
  <ele>536.71</ele>
  <time>2026-09-01T20:01:48Z</time>
  <course>84.22</course>
  <speed>0.85</speed>
  <fix>3d</fix>
</trkpt>
<trkpt lat="-27.2387672" lon="151.3640711">
  <ele>536.39</ele>
  <time>2026-09-01T20:01:48Z</time>
  <course>267.21</course>
  <speed>0.8139410298049853</speed>
  <fix>3d</fix>
</trkpt>
<trkpt lat="-27.2387674" lon="151.3640694">
  <ele>536.71</ele>
  <time>2026-09-01T20:01:48Z</time>
  <course>84.22</course>
  <speed>0.85</speed>
  <fix>3d</fix>
</trkpt>
<trkpt lat="-27.2387672" lon="151.3640719">
  <ele>536.23</ele>
  <time>2026-09-01T20:01:48Z</time>
  <course>267.13</course>
  <speed>0.7940403012442127</speed>
  <fix>3d</fix>
</trkpt>
<trkpt lat="-27.2387672" lon="151.3640711">
  <ele>536.39</ele>
  <time>2026-09-01T20:01:48Z</time>
  <course>84.09</course>
  <speed>0.81</speed>
  <fix>3d</fix>
</trkpt>
<trkpt lat="-27.2387671" lon="151.3640726">
  <ele>536.07</ele>
  <time>2026-09-01T20:01:48Z</time>
  <course>267.12</course>
  <speed>0.7731752712031082</speed>
  <fix>3d</fix>
</trkpt>
<trkpt lat="-27.2387672" lon="151.3640711">
  <ele>536.39</ele>
  <time>2026-09-01T20:01:48Z</time>
  <course>84.09</course>
  <speed>0.81</speed>
  <fix>3d</fix>
</trkpt>
<trkpt lat="-27.238767" lon="151.3640735">
  <ele>535.91</ele>
  <time>2026-09-01T20:01:48Z</time>
  <course>267.17</course>
  <speed>0.7523961722390672</speed>
  <fix>3d</fix>
</trkpt>
<trkpt lat="-27.238767" lon="151.3640727">
  <ele>536.06</ele>
  <time>2026-09-01T20:01:48Z</time>
  <course>84.45</course>
  <speed>0.77</speed>
  <fix>3d</fix>
</trkpt>
<trkpt lat="-27.238767" lon="151.3640743">
  <ele>535.75</ele>
  <time>2026-09-01T20:01:48Z</time>
  <course>267.3</course>
  <speed>0.7424284477308234</speed>
  <fix>3d</fix>
</trkpt>
<trkpt lat="-27.238767" lon="151.3640727">
  <ele>536.06</ele>
  <time>2026-09-01T20:01:48Z</time>
  <course>84.45</course>
  <speed>0.77</speed>
  <fix>3d</fix>
</trkpt>
<trkpt lat="-27.2387669" lon="151.3640749">
  <ele>535.59</ele>
  <time>2026-09-01T20:01:48Z</time>
  <course>267.49</course>
  <speed>0.7217340230306452</speed>
  <fix>3d</fix>
</trkpt>
<trkpt lat="-27.2387669" lon="151.3640742">
  <ele>535.75</ele>
  <time>2026-09-01T20:01:48Z</time>
  <course>85.26</course>
  <speed>0.74</speed>
  <fix>3d</fix>
</trkpt>
<trkpt lat="-27.2387669" lon="151.3640757">
  <ele>535.43</ele>
  <time>2026-09-01T20:01:48Z</time>
  <course>267.74</course>
  <speed>0.7011419257183242</speed>
  <fix>3d</fix>
</trkpt>
<trkpt lat="-27.2387669" lon="151.3640742">
  <ele>535.75</ele>
  <time>2026-09-01T20:01:48Z</time>
  <course>85.26</course>
  <speed>0.74</speed>
  <fix>3d</fix>
</trkpt>
<trkpt lat="-27.2387668" lon="151.3640763">
  <ele>535.27</ele>
  <time>2026-09-01T20:01:48Z</time>
  <course>268.03</course>
  <speed>0.6906518659932803</speed>
  <fix>3d</fix>
</trkpt>
<trkpt lat="-27.2387668" lon="151.3640757">
  <ele>535.44</ele>
  <time>2026-09-01T20:01:48Z</time>
  <course>86.42</course>
  <speed>0.71</speed>
  <fix>3d</fix>
</trkpt>
<trkpt lat="-27.2387668" lon="151.3640771">
  <ele>535.12</ele>
  <time>2026-09-01T20:01:48Z</time>
  <course>268.36</course>
  <speed>0.6702984409947557</speed>
  <fix>3d</fix>
</trkpt>
<trkpt lat="-27.2387668" lon="151.3640757">
  <ele>535.44</ele>
  <time>2026-09-01T20:01:48Z</time>
  <course>86.42</course>
  <speed>0.71</speed>
  <fix>3d</fix>
</trkpt>
<trkpt lat="-27.2387668" lon="151.3640778">
  <ele>534.97</ele>
  <time>2026-09-01T20:01:48Z</time>
  <course>268.72</course>
  <speed>0.66007575322837</speed>
  <fix>3d</fix>
</trkpt>
<trkpt lat="-27.2387668" lon="151.364077">
  <ele>535.12</ele>
  <time>2026-09-01T20:01:48Z</time>
  <course>87.8</course>
  <speed>0.67</speed>
  <fix>3d</fix>
</trkpt>
<trkpt lat="-27.2387668" lon="151.3640785">
  <ele>534.81</ele>
  <time>2026-09-01T20:01:48Z</time>
  <course>269.09</course>
  <speed>0.64</speed>
  <fix>3d</fix>
</trkpt>
<trkpt lat="-27.2387668" lon="151.364077">
  <ele>535.12</ele>
  <time>2026-09-01T20:01:48Z</time>
  <course>87.8</course>
  <speed>0.67</speed>
  <fix>3d</fix>
</trkpt>
<trkpt lat="-27.2387668" lon="151.3640791">
  <ele>534.66</ele>
  <time>2026-09-01T20:01:48Z</time>
  <course>269.47</course>
  <speed>0.62</speed>
  <fix>3d</fix>
</trkpt>
<trkpt lat="-27.2387668" lon="151.3640784">
  <ele>534.81</ele>
  <time>2026-09-01T20:01:48Z</time>
  <course>89.29</course>
  <speed>0.64</speed>
  <fix>3d</fix>
</trkpt>
<trkpt lat="-27.2387668" lon="151.3640797">
  <ele>534.51</ele>
  <time>2026-09-01T20:01:48Z</time>
  <course>269.85</course>
  <speed>0.61</speed>
  <fix>3d</fix>
</trkpt>
<trkpt lat="-27.2387668" lon="151.3640784">
  <ele>534.81</ele>
  <time>2026-09-01T20:01:48Z</time>
  <course>89.29</course>
  <speed>0.64</speed>
  <fix>3d</fix>
</trkpt>
<trkpt lat="-27.2387668" lon="151.3640802">
  <ele>534.36</ele>
  <time>2026-09-01T20:01:48Z</time>
  <course>270.21</course>
  <speed>0.5900847396772771</speed>
  <fix>3d</fix>
</trkpt>
<trkpt lat="-27.2387668" lon="151.3640797">
  <ele>534.52</ele>
  <time>2026-09-01T20:01:48Z</time>
  <course>90.87</course>
  <speed>0.61</speed>
  <fix>3d</fix>
</trkpt>
<trkpt lat="-27.2387668" lon="151.3640809">
  <ele>534.21</ele>
  <time>2026-09-01T20:01:48Z</time>
  <course>270.56</course>
  <speed>0.570350769263968</speed>
  <fix>3d</fix>
</trkpt>
<trkpt lat="-27.2387668" lon="151.3640797">
  <ele>534.52</ele>
  <time>2026-09-01T20:01:48Z</time>
  <course>90.87</course>
  <speed>0.61</speed>
  <fix>3d</fix>
</trkpt>
<trkpt lat="-27.2387668" lon="151.3640815">
  <ele>534.06</ele>
  <time>2026-09-01T20:01:48Z</time>
  <course>270.88</course>
  <speed>0.5508175741568164</speed>
  <fix>3d</fix>
</trkpt>
<trkpt lat="-27.2387668" lon="151.3640808">
  <ele>534.22</ele>
  <time>2026-09-01T20:01:48Z</time>
  <course>92.52</course>
  <speed>0.57</speed>
  <fix>3d</fix>
</trkpt>
<trkpt lat="-27.2387668" lon="151.364082">
  <ele>533.91</ele>
  <time>2026-09-01T20:01:48Z</time>
  <course>271.17</course>
  <speed>0.5315072906367324</speed>
  <fix>3d</fix>
</trkpt>
<trkpt lat="-27.2387668" lon="151.3640808">
  <ele>534.22</ele>
  <time>2026-09-01T20:01:48Z</time>
  <course>92.52</course>
  <speed>0.57</speed>
  <fix>3d</fix>
</trkpt>
<trkpt lat="-27.2387668" lon="151.3640826">
  <ele>533.76</ele>
  <time>2026-09-01T20:01:48Z</time>
  <course>271.43</course>
  <speed>0.5115662224971466</speed>
  <fix>3d</fix>
</trkpt>
<trkpt lat="-27.2387668" lon="151.364082">
  <ele>533.92</ele>
  <time>2026-09-01T20:01:48Z</time>
  <course>94.28</course>
  <speed>0.53</speed>
  <fix>3d</fix>
</trkpt>
<trkpt lat="-27.2387669" lon="151.364083">
  <ele>533.61</ele>
  <time>2026-09-01T20:01:48Z</time>
  <course>271.66</course>
  <speed>0.49254441424099005</speed>
  <fix>3d</fix>
</trkpt>
<trkpt lat="-27.2387668" lon="151.364082">
  <ele>533.92</ele>
  <time>2026-09-01T20:01:48Z</time>
  <course>94.28</course>
  <speed>0.53</speed>
  <fix>3d</fix>
</trkpt>
<trkpt lat="-27.2387669" lon="151.3640835">
  <ele>533.46</ele>
  <time>2026-09-01T20:01:48Z</time>
  <course>271.85</course>
  <speed>0.4738143096192854</speed>
  <fix>3d</fix>
</trkpt>
<trkpt lat="-27.2387668" lon="151.364083">
  <ele>533.62</ele>
  <time>2026-09-01T20:01:48Z</time>
  <course>96.24</course>
  <speed>0.49</speed>
  <fix>3d</fix>
</trkpt>
<trkpt lat="-27.238767" lon="151.364084">
  <ele>533.31</ele>
  <time>2026-09-01T20:01:48Z</time>
  <course>272.02</course>
  <speed>0.45398237851264667</speed>
  <fix>3d</fix>
</trkpt>
<trkpt lat="-27.2387668" lon="151.364083">
  <ele>533.62</ele>
  <time>2026-09-01T20:01:48Z</time>
  <course>96.24</course>
  <speed>0.49</speed>
  <fix>3d</fix>
</trkpt>
<trkpt lat="-27.238767" lon="151.3640845">
  <ele>533.16</ele>
  <time>2026-09-01T20:01:48Z</time>
  <course>272.16</course>
  <speed>0.4356604182158393</speed>
  <fix>3d</fix>
</trkpt>
<trkpt lat="-27.2387669" lon="151.364084">
  <ele>533.31</ele>
  <time>2026-09-01T20:01:48Z</time>
  <course>98.54</course>
  <speed>0.45</speed>
  <fix>3d</fix>
</trkpt>
<trkpt lat="-27.2387671" lon="151.3640849">
  <ele>533.01</ele>
  <time>2026-09-01T20:01:48Z</time>
  <course>272.28</course>
  <speed>0.4079215610874228</speed>
  <fix>3d</fix>
</trkpt>
<trkpt lat="-27.2387669" lon="151.364084">
  <ele>533.31</ele>
  <time>2026-09-01T20:01:48Z</time>
  <course>98.54</course>
  <speed>0.45</speed>
  <fix>3d</fix>
</trkpt>
<trkpt lat="-27.2387672" lon="151.3640853">
  <ele>532.87</ele>
  <time>2026-09-01T20:01:48Z</time>
  <course>272.38</course>
  <speed>0.388329756778952</speed>
  <fix>3d</fix>
</trkpt>
<trkpt lat="-27.238767" lon="151.3640849">
  <ele>533.02</ele>
  <time>2026-09-01T20:01:48Z</time>
  <course>101.33</course>
  <speed>0.41</speed>
  <fix>3d</fix>
</trkpt>
<trkpt lat="-27.2387673" lon="151.3640857">
  <ele>532.72</ele>
  <time>2026-09-01T20:01:48Z</time>
  <course>272.47</course>
  <speed>0.36138621999185305</speed>
  <fix>3d</fix>
</trkpt>
<trkpt lat="-27.238767" lon="151.3640849">
  <ele>533.02</ele>
  <time>2026-09-01T20:01:48Z</time>
  <course>101.33</course>
  <speed>0.41</speed>
  <fix>3d</fix>
</trkpt>
<trkpt lat="-27.2387674" lon="151.3640859">
  <ele>532.57</ele>
  <time>2026-09-01T20:01:48Z</time>
  <course>272.56</course>
  <speed>0.34481879299133333</speed>
  <fix>3d</fix>
</trkpt>
<trkpt lat="-27.2387673" lon="151.3640856">
  <ele>532.72</ele>
  <time>2026-09-01T20:01:48Z</time>
  <course>104.89</course>
  <speed>0.37</speed>
  <fix>3d</fix>
</trkpt>
<trkpt lat="-27.2387675" lon="151.3640864">
  <ele>532.41</ele>
  <time>2026-09-01T20:01:48Z</time>
  <course>272.65</course>
  <speed>0.3195309061734092</speed>
  <fix>3d</fix>
</trkpt>
<trkpt lat="-27.2387673" lon="151.3640856">
  <ele>532.72</ele>
  <time>2026-09-01T20:01:48Z</time>
  <course>104.89</course>
  <speed>0.37</speed>
  <fix>3d</fix>
</trkpt>
<trkpt lat="-27.2387676" lon="151.3640867">
  <ele>532.27</ele>
  <time>2026-09-01T20:01:48Z</time>
  <course>272.75</course>
  <speed>0.30083217912982646</speed>
  <fix>3d</fix>
</trkpt>
<trkpt lat="-27.2387674" lon="151.3640863">
  <ele>532.42</ele>
  <time>2026-09-01T20:01:48Z</time>
  <course>109.51</course>
  <speed>0.32</speed>
  <fix>3d</fix>
</trkpt>
<trkpt lat="-27.2387677" lon="151.3640869">
  <ele>532.12</ele>
  <time>2026-09-01T20:01:48Z</time>
  <course>272.85</course>
  <speed>0.27730849247724093</speed>
  <fix>3d</fix>
</trkpt>
<trkpt lat="-27.2387674" lon="151.3640863">
  <ele>532.42</ele>
  <time>2026-09-01T20:01:48Z</time>
  <course>109.51</course>
  <speed>0.32</speed>
  <fix>3d</fix>
</trkpt>
<trkpt lat="-27.2387678" lon="151.3640872">
  <ele>531.97</ele>
  <time>2026-09-01T20:01:48Z</time>
  <course>272.96</course>
  <speed>0.2641968962724581</speed>
  <fix>3d</fix>
</trkpt>
<trkpt lat="-27.2387676" lon="151.3640869">
  <ele>532.12</ele>
  <time>2026-09-01T20:01:48Z</time>
  <course>115.7</course>
  <speed>0.28</speed>
  <fix>3d</fix>
</trkpt>
<trkpt lat="-27.2387679" lon="151.3640874">
  <ele>531.82</ele>
  <time>2026-09-01T20:01:48Z</time>
  <course>273.08</course>
  <speed>0.24413111231467405</speed>
  <fix>3d</fix>
</trkpt>
<trkpt lat="-27.2387676" lon="151.3640869">
  <ele>532.12</ele>
  <time>2026-09-01T20:01:48Z</time>
  <course>115.7</course>
  <speed>0.28</speed>
  <fix>3d</fix>
</trkpt>
<trkpt lat="-27.238768" lon="151.3640876">
  <ele>531.66</ele>
  <time>2026-09-01T20:01:48Z</time>
  <course>273.22</course>
  <speed>0.22671568097509268</speed>
  <fix>3d</fix>
</trkpt>
<trkpt lat="-27.2387679" lon="151.3640874">
  <ele>531.81</ele>
  <time>2026-09-01T20:01:48Z</time>
  <course>124.29</course>
  <speed>0.25</speed>
  <fix>3d</fix>
</trkpt>
<trkpt lat="-27.2387682" lon="151.3640878">
  <ele>531.52</ele>
  <time>2026-09-01T20:01:48Z</time>
  <course>273.37</course>
  <speed>0.21213203435596426</speed>
  <fix>3d</fix>
</trkpt>
<trkpt lat="-27.2387679" lon="151.3640874">
  <ele>531.81</ele>
  <time>2026-09-01T20:01:48Z</time>
  <course>124.29</course>
  <speed>0.25</speed>
  <fix>3d</fix>
</trkpt>
<trkpt lat="-27.2387683" lon="151.3640878">
  <ele>531.37</ele>
  <time>2026-09-01T20:01:48Z</time>
  <course>273.53</course>
  <speed>0.2</speed>
  <fix>3d</fix>
</trkpt>
<trkpt lat="-27.2387681" lon="151.3640877">
  <ele>531.52</ele>
  <time>2026-09-01T20:01:48Z</time>
  <course>135.92</course>
  <speed>0.22</speed>
  <fix>3d</fix>
</trkpt>
<trkpt lat="-27.2387685" lon="151.3640879">
  <ele>531.22</ele>
  <time>2026-09-01T20:01:48Z</time>
  <course>273.71</course>
  <speed>0.19235384061671343</speed>
  <fix>3d</fix>
</trkpt>
<trkpt lat="-27.2387681" lon="151.3640877">
  <ele>531.52</ele>
  <time>2026-09-01T20:01:48Z</time>
  <course>135.92</course>
  <speed>0.22</speed>
  <fix>3d</fix>
</trkpt>
<trkpt lat="-27.2387686" lon="151.3640881">
  <ele>531.07</ele>
  <time>2026-09-01T20:01:48Z</time>
  <course>273.89</course>
  <speed>0.19313207915827968</speed>
  <fix>3d</fix>
</trkpt>
<trkpt lat="-27.2387684" lon="151.3640879">
  <ele>531.22</ele>
  <time>2026-09-01T20:01:48Z</time>
  <course>150.53</course>
  <speed>0.2</speed>
  <fix>3d</fix>
</trkpt>
<trkpt lat="-27.2387688" lon="151.3640882">
  <ele>530.91</ele>
  <time>2026-09-01T20:01:48Z</time>
  <course>274.07</course>
  <speed>0.194164878389476</speed>
  <fix>3d</fix>
</trkpt>
<trkpt lat="-27.2387684" lon="151.3640879">
  <ele>531.22</ele>
  <time>2026-09-01T20:01:48Z</time>
  <course>150.53</course>
  <speed>0.2</speed>
  <fix>3d</fix>
</trkpt>
<trkpt lat="-27.238769" lon="151.3640882">
  <ele>530.77</ele>
  <time>2026-09-01T20:01:48Z</time>
  <course>274.26</course>
  <speed>0.2002498439450079</speed>
  <fix>3d</fix>
</trkpt>
<trkpt lat="-27.2387688" lon="151.3640881">
  <ele>530.92</ele>
  <time>2026-09-01T20:01:48Z</time>
  <course>166.63</course>
  <speed>0.2</speed>
  <fix>3d</fix>
</trkpt>
<trkpt lat="-27.2387692" lon="151.3640882">
  <ele>530.62</ele>
  <time>2026-09-01T20:01:48Z</time>
  <course>274.44</course>
  <speed>0.21</speed>
  <fix>3d</fix>
</trkpt>
<trkpt lat="-27.2387688" lon="151.3640881">
  <ele>530.92</ele>
  <time>2026-09-01T20:01:48Z</time>
  <course>166.63</course>
  <speed>0.2</speed>
  <fix>3d</fix>
</trkpt>
<trkpt lat="-27.2387694" lon="151.3640882">
  <ele>530.47</ele>
  <time>2026-09-01T20:01:48Z</time>
  <course>274.62</course>
  <speed>0.2220360331117452</speed>
  <fix>3d</fix>
</trkpt>
<trkpt lat="-27.2387692" lon="151.3640882">
  <ele>530.62</ele>
  <time>2026-09-01T20:01:48Z</time>
  <course>181.8</course>
  <speed>0.21</speed>
  <fix>3d</fix>
</trkpt>
<trkpt lat="-27.2387696" lon="151.3640881">
  <ele>530.32</ele>
  <time>2026-09-01T20:01:48Z</time>
  <course>274.78</course>
  <speed>0.23769728648009425</speed>
  <fix>3d</fix>
</trkpt>
<trkpt lat="-27.2387692" lon="151.3640882">
  <ele>530.62</ele>
  <time>2026-09-01T20:01:48Z</time>
  <course>181.8</course>
  <speed>0.21</speed>
  <fix>3d</fix>
</trkpt>
<trkpt lat="-27.2387698" lon="151.3640881">
  <ele>530.16</ele>
  <time>2026-09-01T20:01:48Z</time>
  <course>274.92</course>
  <speed>0.24351591323771843</speed>
  <fix>3d</fix>
</trkpt>
<trkpt lat="-27.2387696" lon="151.3640881">
  <ele>530.32</ele>
  <time>2026-09-01T20:01:48Z</time>
  <course>194.31</course>
  <speed>0.23</speed>
  <fix>3d</fix>
</trkpt>
<trkpt lat="-27.23877" lon="151.3640879">
  <ele>530.02</ele>
  <time>2026-09-01T20:01:48Z</time>
  <course>275.04</course>
  <speed>0.2640075756488817</speed>
  <fix>3d</fix>
</trkpt>
<trkpt lat="-27.2387696" lon="151.3640881">
  <ele>530.32</ele>
  <time>2026-09-01T20:01:48Z</time>
  <course>194.31</course>
  <speed>0.23</speed>
  <fix>3d</fix>
</trkpt>
<trkpt lat="-27.2387702" lon="151.3640878">
  <ele>529.87</ele>
  <time>2026-09-01T20:01:48Z</time>
  <course>275.14</course>
  <speed>0.28178005607210743</speed>
  <fix>3d</fix>
</trkpt>
<trkpt lat="-27.23877" lon="151.3640879">
  <ele>530.03</ele>
  <time>2026-09-01T20:01:48Z</time>
  <course>204.11</course>
  <speed>0.26</speed>
  <fix>3d</fix>
</trkpt>
<trkpt lat="-27.2387705" lon="151.3640878">
  <ele>529.72</ele>
  <time>2026-09-01T20:01:48Z</time>
  <course>275.22</course>
  <speed>0.291547594742265</speed>
  <fix>3d</fix>
</trkpt>
<trkpt lat="-27.23877" lon="151.3640879">
  <ele>530.03</ele>
  <time>2026-09-01T20:01:48Z</time>
  <course>204.11</course>
  <speed>0.26</speed>
  <fix>3d</fix>
</trkpt>
<trkpt lat="-27.2387707" lon="151.3640876">
  <ele>529.57</ele>
  <time>2026-09-01T20:01:48Z</time>
  <course>275.29</course>
  <speed>0.3080584360149873</speed>
  <fix>3d</fix>
</trkpt>
<trkpt lat="-27.2387704" lon="151.3640877">
  <ele>529.73</ele>
  <time>2026-09-01T20:01:48Z</time>
  <course>211.86</course>
  <speed>0.29</speed>
  <fix>3d</fix>
</trkpt>
<trkpt lat="-27.2387709" lon="151.3640874">
  <ele>529.41</ele>
  <time>2026-09-01T20:01:48Z</time>
  <course>275.35</course>
  <speed>0.32015621187164245</speed>
  <fix>3d</fix>
</trkpt>
<trkpt lat="-27.2387704" lon="151.3640877">
  <ele>529.73</ele>
  <time>2026-09-01T20:01:48Z</time>
  <course>211.86</course>
  <speed>0.29</speed>
  <fix>3d</fix>
</trkpt>
<trkpt lat="-27.2387712" lon="151.3640872">
  <ele>529.27</ele>
  <time>2026-09-01T20:01:48Z</time>
  <course>275.4</course>
  <speed>0.3330165161069343</speed>
  <fix>3d</fix>
</trkpt>
<trkpt lat="-27.2387709" lon="151.3640874">
  <ele>529.43</ele>
  <time>2026-09-01T20:01:48Z</time>
  <course>218.25</course>
  <speed>0.32</speed>
  <fix>3d</fix>
</trkpt>
<trkpt lat="-27.2387714" lon="151.3640869">
  <ele>529.12</ele>
  <time>2026-09-01T20:01:48Z</time>
  <course>275.44</course>
  <speed>0.34655446902326914</speed>
  <fix>3d</fix>
</trkpt>
<trkpt lat="-27.2387709" lon="151.3640874">
  <ele>529.43</ele>
  <time>2026-09-01T20:01:48Z</time>
  <course>218.25</course>
  <speed>0.32</speed>
  <fix>3d</fix>
</trkpt>
<trkpt lat="-27.2387716" lon="151.3640867">
  <ele>528.97</ele>
  <time>2026-09-01T20:01:48Z</time>
  <course>275.48</course>
  <speed>0.36069377593742863</speed>
  <fix>3d</fix>
</trkpt>
<trkpt lat="-27.2387713" lon="151.3640869">
  <ele>529.13</ele>
  <time>2026-09-01T20:01:48Z</time>
  <course>223.74</course>
  <speed>0.35</speed>
  <fix>3d</fix>
</trkpt>
<trkpt lat="-27.2387718" lon="151.3640864">
  <ele>528.82</ele>
  <time>2026-09-01T20:01:48Z</time>
  <course>275.52</course>
  <speed>0.3687817782917155</speed>
  <fix>3d</fix>
</trkpt>
<trkpt lat="-27.2387713" lon="151.3640869">
  <ele>529.13</ele>
  <time>2026-09-01T20:01:48Z</time>
  <course>223.74</course>
  <speed>0.35</speed>
  <fix>3d</fix>
</trkpt>
<trkpt lat="-27.2387721" lon="151.364086">
  <ele>528.66</ele>
  <time>2026-09-01T20:01:48Z</time>
  <course>275.57</course>
  <speed>0.3841874542459709</speed>
  <fix>3d</fix>
</trkpt>
<trkpt lat="-27.2387718" lon="151.3640864">
  <ele>528.82</ele>
  <time>2026-09-01T20:01:48Z</time>
  <course>228.61</course>
  <speed>0.37</speed>
  <fix>3d</fix>
</trkpt>
<trkpt lat="-27.2387723" lon="151.3640858">
  <ele>528.53</ele>
  <time>2026-09-01T20:01:48Z</time>
  <course>275.62</course>
  <speed>0.38600518131237566</speed>
  <fix>3d</fix>
</trkpt>
<trkpt lat="-27.2387718" lon="151.3640864">
  <ele>528.82</ele>
  <time>2026-09-01T20:01:48Z</time>
  <course>228.61</course>
  <speed>0.37</speed>
  <fix>3d</fix>
</trkpt>
<trkpt lat="-27.2387725" lon="151.3640854">
  <ele>528.38</ele>
  <time>2026-09-01T20:01:48Z</time>
  <course>275.66</course>
  <speed>0.3966106403010388</speed>
  <fix>3d</fix>
</trkpt>
<trkpt lat="-27.2387722" lon="151.3640858">
  <ele>528.53</ele>
  <time>2026-09-01T20:01:48Z</time>
  <course>233.08</course>
  <speed>0.39</speed>
  <fix>3d</fix>
</trkpt>
<trkpt lat="-27.2387727" lon="151.3640852">
  <ele>528.23</ele>
  <time>2026-09-01T20:01:48Z</time>
  <course>275.71</course>
  <speed>0.4049691346263317</speed>
  <fix>3d</fix>
</trkpt>
<trkpt lat="-27.2387722" lon="151.3640858">
  <ele>528.53</ele>
  <time>2026-09-01T20:01:48Z</time>
  <course>233.08</course>
  <speed>0.39</speed>
  <fix>3d</fix>
</trkpt>
<trkpt lat="-27.2387729" lon="151.3640848">
  <ele>528.08</ele>
  <time>2026-09-01T20:01:48Z</time>
  <course>275.75</course>
  <speed>0.408166632639171</speed>
  <fix>3d</fix>
</trkpt>
<trkpt lat="-27.2387727" lon="151.3640851">
  <ele>528.23</ele>
  <time>2026-09-01T20:01:48Z</time>
  <course>237.28</course>
  <speed>0.4</speed>
  <fix>3d</fix>
</trkpt>
<trkpt lat="-27.2387731" lon="151.3640844">
  <ele>527.93</ele>
  <time>2026-09-01T20:01:48Z</time>
  <course>275.79</course>
  <speed>0.41182520563948005</speed>
  <fix>3d</fix>
</trkpt>
<trkpt lat="-27.2387727" lon="151.3640851">
  <ele>528.23</ele>
  <time>2026-09-01T20:01:48Z</time>
  <course>237.28</course>
  <speed>0.4</speed>
  <fix>3d</fix>
</trkpt>
<trkpt lat="-27.2387732" lon="151.364084">
  <ele>527.78</ele>
  <time>2026-09-01T20:01:48Z</time>
  <course>275.83</course>
  <speed>0.4159326868617084</speed>
  <fix>3d</fix>
</trkpt>
<trkpt lat="-27.238773" lon="151.3640844">
  <ele>527.93</ele>
  <time>2026-09-01T20:01:48Z</time>
  <course>241.28</course>
  <speed>0.41</speed>
  <fix>3d</fix>
</trkpt>
<trkpt lat="-27.2387734" lon="151.3640836">
  <ele>527.63</ele>
  <time>2026-09-01T20:01:48Z</time>
  <course>275.86</course>
  <speed>0.416293165929973</speed>
  <fix>3d</fix>
</trkpt>
<trkpt lat="-27.238773" lon="151.3640844">
  <ele>527.93</ele>
  <time>2026-09-01T20:01:48Z</time>
  <course>241.28</course>
  <speed>0.41</speed>
  <fix>3d</fix>
</trkpt>
<trkpt lat="-27.2387736" lon="151.3640833">
  <ele>527.48</ele>
  <time>2026-09-01T20:01:48Z</time>
  <course>275.9</course>
  <speed>0.4215447781671598</speed>
  <fix>3d</fix>
</trkpt>
<trkpt lat="-27.2387734" lon="151.3640836">
  <ele>527.64</ele>
  <time>2026-09-01T20:01:48Z</time>
  <course>245.19</course>
  <speed>0.42</speed>
  <fix>3d</fix>
</trkpt>
<trkpt lat="-27.2387737" lon="151.3640829">
  <ele>527.33</ele>
  <time>2026-09-01T20:01:48Z</time>
  <course>275.94</course>
  <speed>0.42720018726587655</speed>
  <fix>3d</fix>
</trkpt>
<trkpt lat="-27.2387734" lon="151.3640836">
  <ele>527.64</ele>
  <time>2026-09-01T20:01:48Z</time>
  <course>245.19</course>
  <speed>0.42</speed>
  <fix>3d</fix>
</trkpt>
<trkpt lat="-27.2387738" lon="151.3640825">
  <ele>527.18</ele>
  <time>2026-09-01T20:01:48Z</time>
  <course>275.98</course>
  <speed>0.4205948168962618</speed>
  <fix>3d</fix>
</trkpt>
<trkpt lat="-27.2387736" lon="151.3640829">
  <ele>527.33</ele>
  <time>2026-09-01T20:01:48Z</time>
  <course>249.1</course>
  <speed>0.42</speed>
  <fix>3d</fix>
</trkpt>
<trkpt lat="-27.238774" lon="151.3640821">
  <ele>527.03</ele>
  <time>2026-09-01T20:01:48Z</time>
  <course>276.02</course>
  <speed>0.42720018726587655</speed>
  <fix>3d</fix>
</trkpt>
<trkpt lat="-27.2387736" lon="151.3640829">
  <ele>527.33</ele>
  <time>2026-09-01T20:01:48Z</time>
  <course>249.1</course>
  <speed>0.42</speed>
  <fix>3d</fix>
</trkpt>
<trkpt lat="-27.238774" lon="151.3640816">
  <ele>526.88</ele>
  <time>2026-09-01T20:01:48Z</time>
  <course>276.05</course>
  <speed>0.4220189569201838</speed>
  <fix>3d</fix>
</trkpt>
<trkpt lat="-27.2387739" lon="151.3640821">
  <ele>527.04</ele>
  <time>2026-09-01T20:01:48Z</time>
  <course>253.11</course>
  <speed>0.42</speed>
  <fix>3d</fix>
</trkpt>
<trkpt lat="-27.238774" lon="151.3640811">
  <ele>526.73</ele>
  <time>2026-09-01T20:01:48Z</time>
  <course>276.09</course>
  <speed>0.4197618372363071</speed>
  <fix>3d</fix>
</trkpt>
<trkpt lat="-27.2387739" lon="151.3640821">
  <ele>527.04</ele>
  <time>2026-09-01T20:01:48Z</time>
  <course>253.11</course>
  <speed>0.42</speed>
  <fix>3d</fix>
</trkpt>
<trkpt lat="-27.2387742" lon="151.3640807">
  <ele>526.58</ele>
  <time>2026-09-01T20:01:48Z</time>
  <course>276.13</course>
  <speed>0.4159326868617084</speed>
  <fix>3d</fix>
</trkpt>
<trkpt lat="-27.2387741" lon="151.3640812">
  <ele>526.74</ele>
  <time>2026-09-01T20:01:48Z</time>
  <course>257.16</course>
  <speed>0.42</speed>
  <fix>3d</fix>
</trkpt>
<trkpt lat="-27.2387743" lon="151.3640804">
  <ele>526.43</ele>
  <time>2026-09-01T20:01:48Z</time>
  <course>276.17</course>
  <speed>0.4143669871020132</speed>
  <fix>3d</fix>
</trkpt>
<trkpt lat="-27.2387741" lon="151.3640812">
  <ele>526.74</ele>
  <time>2026-09-01T20:01:48Z</time>
  <course>257.16</course>
  <speed>0.42</speed>
  <fix>3d</fix>
</trkpt>
<trkpt lat="-27.2387743" lon="151.36408">
  <ele>526.28</ele>
  <time>2026-09-01T20:01:48Z</time>
  <course>276.21</course>
  <speed>0.4119465984809196</speed>
  <fix>3d</fix>
</trkpt>
<trkpt lat="-27.2387742" lon="151.3640803">
  <ele>526.44</ele>
  <time>2026-09-01T20:01:48Z</time>
  <course>261.23</course>
  <speed>0.41</speed>
  <fix>3d</fix>
</trkpt>
<trkpt lat="-27.2387744" lon="151.3640796">
  <ele>526.14</ele>
  <time>2026-09-01T20:01:48Z</time>
  <course>276.24</course>
  <speed>0.4011234224026316</speed>
  <fix>3d</fix>
</trkpt>
<trkpt lat="-27.2387742" lon="151.3640803">
  <ele>526.44</ele>
  <time>2026-09-01T20:01:48Z</time>
  <course>261.23</course>
  <speed>0.41</speed>
  <fix>3d</fix>
</trkpt>
<trkpt lat="-27.2387744" lon="151.3640791">
  <ele>525.99</ele>
  <time>2026-09-01T20:01:48Z</time>
  <course>276.28</course>
  <speed>0.4001249804748511</speed>
  <fix>3d</fix>
</trkpt>
<trkpt lat="-27.2387743" lon="151.3640796">
  <ele>526.14</ele>
  <time>2026-09-01T20:01:48Z</time>
  <course>265.38</course>
  <speed>0.4</speed>
  <fix>3d</fix>
</trkpt>
<trkpt lat="-27.2387744" lon="151.3640787">
  <ele>525.84</ele>
  <time>2026-09-01T20:01:48Z</time>
  <course>276.31</course>
  <speed>0.39</speed>
  <fix>3d</fix>
</trkpt>
<trkpt lat="-27.2387743" lon="151.3640796">
  <ele>526.14</ele>
  <time>2026-09-01T20:01:48Z</time>
  <course>265.38</course>
  <speed>0.4</speed>
  <fix>3d</fix>
</trkpt>
<trkpt lat="-27.2387744" lon="151.3640783">
  <ele>525.69</ele>
  <time>2026-09-01T20:01:48Z</time>
  <course>276.35</course>
  <speed>0.38013155617496425</speed>
  <fix>3d</fix>
</trkpt>
<trkpt lat="-27.2387744" lon="151.3640787">
  <ele>525.83</ele>
  <time>2026-09-01T20:01:48Z</time>
  <course>269.58</course>
  <speed>0.39</speed>
  <fix>3d</fix>
</trkpt>
<trkpt lat="-27.2387744" lon="151.364078">
  <ele>525.54</ele>
  <time>2026-09-01T20:01:48Z</time>
  <course>276.39</course>
  <speed>0.38052595180880894</speed>
  <fix>3d</fix>
</trkpt>
<trkpt lat="-27.2387744" lon="151.3640787">
  <ele>525.83</ele>
  <time>2026-09-01T20:01:48Z</time>
  <course>269.58</course>
  <speed>0.39</speed>
  <fix>3d</fix>
</trkpt>
<trkpt lat="-27.2387744" lon="151.3640776">
  <ele>525.39</ele>
  <time>2026-09-01T20:01:48Z</time>
  <course>276.43</course>
  <speed>0.3721558813185679</speed>
  <fix>3d</fix>
</trkpt>
<trkpt lat="-27.2387744" lon="151.364078">
  <ele>525.54</ele>
  <time>2026-09-01T20:01:48Z</time>
  <course>273.84</course>
  <speed>0.38</speed>
  <fix>3d</fix>
</trkpt>
<trkpt lat="-27.2387744" lon="151.3640772">
  <ele>525.24</ele>
  <time>2026-09-01T20:01:48Z</time>
  <course>276.47</course>
  <speed>0.3634556369077249</speed>
  <fix>3d</fix>
</trkpt>
<trkpt lat="-27.2387744" lon="151.364078">
  <ele>525.54</ele>
  <time>2026-09-01T20:01:48Z</time>
  <course>273.84</course>
  <speed>0.38</speed>
  <fix>3d</fix>
</trkpt>
<trkpt lat="-27.2387744" lon="151.3640768">
  <ele>525.09</ele>
  <time>2026-09-01T20:01:48Z</time>
  <course>276.51</course>
  <speed>0.35510561809129404</speed>
  <fix>3d</fix>
</trkpt>
<trkpt lat="-27.2387744" lon="151.3640772">
  <ele>525.24</ele>
  <time>2026-09-01T20:01:48Z</time>
  <course>278.15</course>
  <speed>0.36</speed>
  <fix>3d</fix>
</trkpt>
<trkpt lat="-27.2387743" lon="151.3640764">
  <ele>524.94</ele>
  <time>2026-09-01T20:01:48Z</time>
  <course>276.54</course>
  <speed>0.34713109915419565</speed>
  <fix>3d</fix>
</trkpt>
<trkpt lat="-27.2387744" lon="151.3640772">
  <ele>525.24</ele>
  <time>2026-09-01T20:01:48Z</time>
  <course>278.15</course>
  <speed>0.36</speed>
  <fix>3d</fix>
</trkpt>
<trkpt lat="-27.2387742" lon="151.3640761">
  <ele>524.79</ele>
  <time>2026-09-01T20:01:48Z</time>
  <course>276.58</course>
  <speed>0.33955853692699295</speed>
  <fix>3d</fix>
</trkpt>
<trkpt lat="-27.2387743" lon="151.3640765">
  <ele>524.94</ele>
  <time>2026-09-01T20:01:48Z</time>
  <course>282.55</course>
  <speed>0.35</speed>
  <fix>3d</fix>
</trkpt>
<trkpt lat="-27.238774" lon="151.3640758">
  <ele>524.64</ele>
  <time>2026-09-01T20:01:48Z</time>
  <course>276.62</course>
  <speed>0.32280024783137945</speed>
  <fix>3d</fix>
</trkpt>
<trkpt lat="-27.2387743" lon="151.3640765">
  <ele>524.94</ele>
  <time>2026-09-01T20:01:48Z</time>
  <course>282.55</course>
  <speed>0.35</speed>
  <fix>3d</fix>
</trkpt>
<trkpt lat="-27.238774" lon="151.3640754">
  <ele>524.49</ele>
  <time>2026-09-01T20:01:48Z</time>
  <course>276.66</course>
  <speed>0.31622776601683794</speed>
  <fix>3d</fix>
</trkpt>
<trkpt lat="-27.2387741" lon="151.3640758">
  <ele>524.65</ele>
  <time>2026-09-01T20:01:48Z</time>
  <course>287.08</course>
  <speed>0.33</speed>
  <fix>3d</fix>
</trkpt>
<trkpt lat="-27.2387739" lon="151.3640752">
  <ele>524.34</ele>
  <time>2026-09-01T20:01:48Z</time>
  <course>276.7</course>
  <speed>0.3101612483854165</speed>
  <fix>3d</fix>
</trkpt>
<trkpt lat="-27.2387741" lon="151.3640758">
  <ele>524.65</ele>
  <time>2026-09-01T20:01:48Z</time>
  <course>287.08</course>
  <speed>0.33</speed>
  <fix>3d</fix>
</trkpt>
<trkpt lat="-27.2387738" lon="151.3640749">
  <ele>524.19</ele>
  <time>2026-09-01T20:01:48Z</time>
  <course>276.74</course>
  <speed>0.29546573405388316</speed>
  <fix>3d</fix>
</trkpt>
<trkpt lat="-27.2387739" lon="151.3640752">
  <ele>524.35</ele>
  <time>2026-09-01T20:01:48Z</time>
  <course>291.63</course>
  <speed>0.31</speed>
  <fix>3d</fix>
</trkpt>
<trkpt lat="-27.2387737" lon="151.3640745">
  <ele>524.04</ele>
  <time>2026-09-01T20:01:48Z</time>
  <course>276.78</course>
  <speed>0.2906888370749727</speed>
  <fix>3d</fix>
</trkpt>
<trkpt lat="-27.2387739" lon="151.3640752">
  <ele>524.35</ele>
  <time>2026-09-01T20:01:48Z</time>
  <course>291.63</course>
  <speed>0.31</speed>
  <fix>3d</fix>
</trkpt>
<trkpt lat="-27.2387736" lon="151.3640744">
  <ele>523.89</ele>
  <time>2026-09-01T20:01:48Z</time>
  <course>276.82</course>
  <speed>0.28178005607210743</speed>
  <fix>3d</fix>
</trkpt>
<trkpt lat="-27.2387736" lon="151.3640746">
  <ele>524.05</ele>
  <time>2026-09-01T20:01:48Z</time>
  <course>296.17</course>
  <speed>0.29</speed>
  <fix>3d</fix>
</trkpt>
<trkpt lat="-27.2387735" lon="151.364074">
  <ele>523.74</ele>
  <time>2026-09-01T20:01:48Z</time>
  <course>276.86</course>
  <speed>0.2692582403567252</speed>
  <fix>3d</fix>
</trkpt>
<trkpt lat="-27.2387736" lon="151.3640746">
  <ele>524.05</ele>
  <time>2026-09-01T20:01:48Z</time>
  <course>296.17</course>
  <speed>0.29</speed>
  <fix>3d</fix>
</trkpt>
<trkpt lat="-27.2387733" lon="151.3640739">
  <ele>523.59</ele>
  <time>2026-09-01T20:01:48Z</time>
  <course>276.9</course>
  <speed>0.260768096208106</speed>
  <fix>3d</fix>
</trkpt>
<trkpt lat="-27.2387734" lon="151.3640741">
  <ele>523.75</ele>
  <time>2026-09-01T20:01:48Z</time>
  <course>300.69</course>
  <speed>0.27</speed>
  <fix>3d</fix>
</trkpt>
<trkpt lat="-27.2387732" lon="151.3640737">
  <ele>523.44</ele>
  <time>2026-09-01T20:01:48Z</time>
  <course>276.94</course>
  <speed>0.25238858928247926</speed>
  <fix>3d</fix>
</trkpt>
<trkpt lat="-27.2387734" lon="151.3640741">
  <ele>523.75</ele>
  <time>2026-09-01T20:01:48Z</time>
  <course>300.69</course>
  <speed>0.27</speed>
  <fix>3d</fix>
</trkpt>
<trkpt lat="-27.2387731" lon="151.3640735">
  <ele>523.29</ele>
  <time>2026-09-01T20:01:48Z</time>
  <course>276.97</course>
  <speed>0.2420743687382041</speed>
  <fix>3d</fix>
</trkpt>
<trkpt lat="-27.2387732" lon="151.3640737">
  <ele>523.44</ele>
  <time>2026-09-01T20:01:48Z</time>
  <course>305.13</course>
  <speed>0.25</speed>
  <fix>3d</fix>
</trkpt>
<trkpt lat="-27.2387729" lon="151.3640733">
  <ele>523.15</ele>
  <time>2026-09-01T20:01:48Z</time>
  <course>277.0</course>
  <speed>0.23430749027719963</speed>
  <fix>3d</fix>
</trkpt>
<trkpt lat="-27.2387732" lon="151.3640737">
  <ele>523.44</ele>
  <time>2026-09-01T20:01:48Z</time>
  <course>305.13</course>
  <speed>0.25</speed>
  <fix>3d</fix>
</trkpt>
<trkpt lat="-27.2387728" lon="151.364073">
  <ele>523.0</ele>
  <time>2026-09-01T20:01:48Z</time>
  <course>277.03</course>
  <speed>0.22671568097509268</speed>
  <fix>3d</fix>
</trkpt>
<trkpt lat="-27.2387729" lon="151.3640732">
  <ele>523.15</ele>
  <time>2026-09-01T20:01:48Z</time>
  <course>309.53</course>
  <speed>0.24</speed>
  <fix>3d</fix>
</trkpt>
<trkpt lat="-27.2387727" lon="151.3640729">
  <ele>522.85</ele>
  <time>2026-09-01T20:01:48Z</time>
  <course>277.06</course>
  <speed>0.21213203435596426</speed>
  <fix>3d</fix>
</trkpt>
<trkpt lat="-27.2387729" lon="151.3640732">
  <ele>523.15</ele>
  <time>2026-09-01T20:01:48Z</time>
  <course>309.53</course>
  <speed>0.24</speed>
  <fix>3d</fix>
</trkpt>
<trkpt lat="-27.2387725" lon="151.3640728">
  <ele>522.7</ele>
  <time>2026-09-01T20:01:48Z</time>
  <course>277.09</course>
  <speed>0.20518284528683192</speed>
  <fix>3d</fix>
</trkpt>
<trkpt lat="-27.2387726" lon="151.3640729">
  <ele>522.84</ele>
  <time>2026-09-01T20:01:48Z</time>
  <course>313.9</course>
  <speed>0.22</speed>
  <fix>3d</fix>
</trkpt>
<trkpt lat="-27.2387724" lon="151.3640725">
  <ele>522.54</ele>
  <time>2026-09-01T20:01:48Z</time>
  <course>277.13</course>
  <speed>0.191049731745428</speed>
  <fix>3d</fix>
</trkpt>
<trkpt lat="-27.2387726" lon="151.3640729">
  <ele>522.84</ele>
  <time>2026-09-01T20:01:48Z</time>
  <course>313.9</course>
  <speed>0.22</speed>
  <fix>3d</fix>
</trkpt>
<trkpt lat="-27.2387722" lon="151.3640725">
  <ele>522.4</ele>
  <time>2026-09-01T20:01:48Z</time>
  <course>277.17</course>
  <speed>0.18439088914585774</speed>
  <fix>3d</fix>
</trkpt>
<trkpt lat="-27.2387724" lon="151.3640726">
  <ele>522.55</ele>
  <time>2026-09-01T20:01:48Z</time>
  <course>318.26</course>
  <speed>0.2</speed>
  <fix>3d</fix>
</trkpt>
<trkpt lat="-27.2387721" lon="151.3640724">
  <ele>522.25</ele>
  <time>2026-09-01T20:01:48Z</time>
  <course>277.2</course>
  <speed>0.17204650534085253</speed>
  <fix>3d</fix>
</trkpt>
<trkpt lat="-27.2387724" lon="151.3640726">
  <ele>522.55</ele>
  <time>2026-09-01T20:01:48Z</time>
  <course>318.26</course>
  <speed>0.2</speed>
  <fix>3d</fix>
</trkpt>
<trkpt lat="-27.238772" lon="151.3640723">
  <ele>522.1</ele>
  <time>2026-09-01T20:01:48Z</time>
  <course>277.24</course>
  <speed>0.15811388300841897</speed>
  <fix>3d</fix>
</trkpt>
<trkpt lat="-27.2387721" lon="151.3640724">
  <ele>522.25</ele>
  <time>2026-09-01T20:01:48Z</time>
  <course>322.63</course>
  <speed>0.18</speed>
  <fix>3d</fix>
</trkpt>
<trkpt lat="-27.2387719" lon="151.3640721">
  <ele>521.95</ele>
  <time>2026-09-01T20:01:48Z</time>
  <course>277.27</course>
  <speed>0.15264337522473748</speed>
  <fix>3d</fix>
</trkpt>
<trkpt lat="-27.2387721" lon="151.3640724">
  <ele>522.25</ele>
  <time>2026-09-01T20:01:48Z</time>
  <course>322.63</course>
  <speed>0.18</speed>
  <fix>3d</fix>
</trkpt>
<trkpt lat="-27.2387718" lon="151.364072">
  <ele>521.79</ele>
  <time>2026-09-01T20:01:48Z</time>
  <course>277.31</course>
  <speed>0.13892443989449804</speed>
  <fix>3d</fix>
</trkpt>
<trkpt lat="-27.2387718" lon="151.3640722">
  <ele>521.94</ele>
  <time>2026-09-01T20:01:48Z</time>
  <course>326.98</course>
  <speed>0.15</speed>
  <fix>3d</fix>
</trkpt>
<trkpt lat="-27.2387716" lon="151.364072">
  <ele>521.65</ele>
  <time>2026-09-01T20:01:48Z</time>
  <course>277.34</course>
  <speed>0.1341640786499874</speed>
  <fix>3d</fix>
</trkpt>
<trkpt lat="-27.2387718" lon="151.3640722">
  <ele>521.94</ele>
  <time>2026-09-01T20:01:48Z</time>
  <course>326.98</course>
  <speed>0.15</speed>
  <fix>3d</fix>
</trkpt>
<trkpt lat="-27.2387715" lon="151.364072">
  <ele>521.5</ele>
  <time>2026-09-01T20:01:48Z</time>
  <course>277.38</course>
  <speed>0.12083045973594572</speed>
  <fix>3d</fix>
</trkpt>
<trkpt lat="-27.2387716" lon="151.364072">
  <ele>521.65</ele>
  <time>2026-09-01T20:01:48Z</time>
  <course>331.27</course>
  <speed>0.13</speed>
  <fix>3d</fix>
</trkpt>
<trkpt lat="-27.2387714" lon="151.3640719">
  <ele>521.35</ele>
  <time>2026-09-01T20:01:48Z</time>
  <course>277.42</course>
  <speed>0.10770329614269007</speed>
  <fix>3d</fix>
</trkpt>
<trkpt lat="-27.2387716" lon="151.364072">
  <ele>521.65</ele>
  <time>2026-09-01T20:01:48Z</time>
  <course>331.27</course>
  <speed>0.13</speed>
  <fix>3d</fix>
</trkpt>
<trkpt lat="-27.2387713" lon="151.3640719">
  <ele>521.2</ele>
  <time>2026-09-01T20:01:48Z</time>
  <course>277.47</course>
  <speed>0.09486832980505139</speed>
  <fix>3d</fix>
</trkpt>
<trkpt lat="-27.2387714" lon="151.3640719">
  <ele>521.34</ele>
  <time>2026-09-01T20:01:48Z</time>
  <course>335.66</course>
  <speed>0.11</speed>
  <fix>3d</fix>
</trkpt>
<trkpt lat="-27.2387713" lon="151.3640718">
  <ele>521.04</ele>
  <time>2026-09-01T20:01:48Z</time>
  <course>277.51</course>
  <speed>0.0854400374531753</speed>
  <fix>3d</fix>
</trkpt>
<trkpt lat="-27.2387714" lon="151.3640719">
  <ele>521.34</ele>
  <time>2026-09-01T20:01:48Z</time>
  <course>335.66</course>
  <speed>0.11</speed>
  <fix>3d</fix>
</trkpt>
<trkpt lat="-27.2387712" lon="151.3640718">
  <ele>520.9</ele>
  <time>2026-09-01T20:01:48Z</time>
  <course>277.56</course>
  <speed>0.0824621125123532</speed>
  <fix>3d</fix>
</trkpt>
<trkpt lat="-27.2387712" lon="151.3640718">
  <ele>521.05</ele>
  <time>2026-09-01T20:01:48Z</time>
  <course>340.41</course>
  <speed>0.09</speed>
  <fix>3d</fix>
</trkpt>
<trkpt lat="-27.2387711" lon="151.3640718">
  <ele>520.75</ele>
  <time>2026-09-01T20:01:48Z</time>
  <course>277.62</course>
  <speed>0.07071067811865475</speed>
  <fix>3d</fix>
</trkpt>
<trkpt lat="-27.2387712" lon="151.3640718">
  <ele>521.05</ele>
  <time>2026-09-01T20:01:48Z</time>
  <course>340.41</course>
  <speed>0.09</speed>
  <fix>3d</fix>
</trkpt>
<trkpt lat="-27.2387711" lon="151.3640718">
  <ele>520.6</ele>
  <time>2026-09-01T20:01:48Z</time>
  <course>277.68</course>
  <speed>0.06082762530298219</speed>
  <fix>3d</fix>
</trkpt>
<trkpt lat="-27.2387711" lon="151.3640718">
  <ele>520.75</ele>
  <time>2026-09-01T20:01:48Z</time>
  <course>345.76</course>
  <speed>0.07</speed>
  <fix>3d</fix>
</trkpt>
<trkpt lat="-27.238771" lon="151.3640718">
  <ele>520.45</ele>
  <time>2026-09-01T20:01:48Z</time>
  <course>277.74</course>
  <speed>0.05</speed>
  <fix>3d</fix>
</trkpt>
<trkpt lat="-27.2387711" lon="151.3640718">
  <ele>520.75</ele>
  <time>2026-09-01T20:01:48Z</time>
  <course>345.76</course>
  <speed>0.07</speed>
  <fix>3d</fix>
</trkpt>
<trkpt lat="-27.238771" lon="151.3640718">
  <ele>520.29</ele>
  <time>2026-09-01T20:01:48Z</time>
  <course>277.83</course>
  <speed>0.03</speed>
  <fix>3d</fix>
</trkpt>
<trkpt lat="-27.238771" lon="151.3640718">
  <ele>520.44</ele>
  <time>2026-09-01T20:01:48Z</time>
  <course>352.63</course>
  <speed>0.05</speed>
  <fix>3d</fix>
</trkpt>
<trkpt lat="-27.2387709" lon="151.3640718">
  <ele>520.14</ele>
  <time>2026-09-01T20:01:48Z</time>
  <course>277.93</course>
  <speed>0.02</speed>
  <fix>3d</fix>
</trkpt>
<trkpt lat="-27.238771" lon="151.3640718">
  <ele>520.44</ele>
  <time>2026-09-01T20:01:48Z</time>
  <course>352.63</course>
  <speed>0.05</speed>
  <fix>3d</fix>
</trkpt>
<trkpt lat="-27.2387709" lon="151.3640718">
  <ele>519.99</ele>
  <time>2026-09-01T20:01:48Z</time>
  <course>278.06</course>
  <speed>0.01</speed>
  <fix>3d</fix>
</trkpt>
<trkpt lat="-27.2387709" lon="151.3640718">
  <ele>520.15</ele>
  <time>2026-09-01T20:01:48Z</time>
  <course>5.91</course>
  <speed>0.02</speed>
  <fix>3d</fix>
</trkpt>
<trkpt lat="-27.2387709" lon="151.3640718">
  <ele>519.84</ele>
  <time>2026-09-01T20:01:48Z</time>
  <course>278.23</course>
  <speed>0.0</speed>
  <fix>3d</fix>
</trkpt>
<trkpt lat="-27.2387709" lon="151.3640718">
  <ele>520.15</ele>
  <time>2026-09-01T20:01:48Z</time>
  <course>5.91</course>
  <speed>0.02</speed>
  <fix>3d</fix>
</trkpt>
<trkpt lat="-27.2387709" lon="151.3640718">
  <ele>519.69</ele>
  <time>2026-09-01T20:01:48Z</time>
  <course>278.49</course>
  <speed>0.022360679774997897</speed>
  <fix>3d</fix>
</trkpt>
<trkpt lat="-27.2387709" lon="151.3640718">
  <ele>519.84</ele>
  <time>2026-09-01T20:01:48Z</time>
  <course>124.23</course>
  <speed>0.01</speed>
  <fix>3d</fix>
</trkpt>
<trkpt lat="-27.238771" lon="151.3640718">
  <ele>519.54</ele>
  <time>2026-09-01T20:01:48Z</time>
  <course>278.64</course>
  <speed>0.022360679774997897</speed>
  <fix>3d</fix>
</trkpt>
<trkpt lat="-27.2387709" lon="151.3640718">
  <ele>519.84</ele>
  <time>2026-09-01T20:01:48Z</time>
  <course>124.23</course>
  <speed>0.01</speed>
  <fix>3d</fix>
</trkpt>
<trkpt lat="-27.238771" lon="151.3640718">
  <ele>519.39</ele>
  <time>2026-09-01T20:01:48Z</time>
  <course>278.61</course>
  <speed>0.0316227766016838</speed>
  <fix>3d</fix>
</trkpt>
<trkpt lat="-27.2387709" lon="151.3640718">
  <ele>519.55</ele>
  <time>2026-09-01T20:01:48Z</time>
  <course>151.98</course>
  <speed>0.03</speed>
  <fix>3d</fix>
</trkpt>
<trkpt lat="-27.238771" lon="151.3640718">
  <ele>519.24</ele>
  <time>2026-09-01T20:01:48Z</time>
  <course>278.45</course>
  <speed>0.03605551275463989</speed>
  <fix>3d</fix>
</trkpt>
<trkpt lat="-27.2387709" lon="151.3640718">
  <ele>519.55</ele>
  <time>2026-09-01T20:01:48Z</time>
  <course>151.98</course>
  <speed>0.03</speed>
  <fix>3d</fix>
</trkpt>
<trkpt lat="-27.238771" lon="151.3640718">
  <ele>519.09</ele>
  <time>2026-09-01T20:01:48Z</time>
  <course>278.22</course>
  <speed>0.03605551275463989</speed>
  <fix>3d</fix>
</trkpt>
<trkpt lat="-27.238771" lon="151.3640718">
  <ele>519.25</ele>
  <time>2026-09-01T20:01:48Z</time>
  <course>146.4</course>
  <speed>0.03</speed>
  <fix>3d</fix>
</trkpt>
<trkpt lat="-27.238771" lon="151.3640718">
  <ele>518.94</ele>
  <time>2026-09-01T20:01:48Z</time>
  <course>277.97</course>
  <speed>0.03605551275463989</speed>
  <fix>3d</fix>
</trkpt>
<trkpt lat="-27.238771" lon="151.3640718">
  <ele>519.25</ele>
  <time>2026-09-01T20:01:48Z</time>
  <course>146.4</course>
  <speed>0.03</speed>
  <fix>3d</fix>
</trkpt>
<trkpt lat="-27.238771" lon="151.3640718">
  <ele>518.79</ele>
  <time>2026-09-01T20:01:48Z</time>
  <course>277.72</course>
  <speed>0.03605551275463989</speed>
  <fix>3d</fix>
</trkpt>
<trkpt lat="-27.238771" lon="151.3640718">
  <ele>518.94</ele>
  <time>2026-09-01T20:01:48Z</time>
  <course>141.4</course>
  <speed>0.04</speed>
  <fix>3d</fix>
</trkpt>
<trkpt lat="-27.238771" lon="151.3640719">
  <ele>518.65</ele>
  <time>2026-09-01T20:01:48Z</time>
  <course>277.52</course>
  <speed>0.04242640687119285</speed>
  <fix>3d</fix>
</trkpt>
<trkpt lat="-27.238771" lon="151.3640718">
  <ele>518.94</ele>
  <time>2026-09-01T20:01:48Z</time>
  <course>141.4</course>
  <speed>0.04</speed>
  <fix>3d</fix>
</trkpt>
<trkpt lat="-27.2387711" lon="151.3640719">
  <ele>518.5</ele>
  <time>2026-09-01T20:01:48Z</time>
  <course>277.37</course>
  <speed>0.04242640687119285</speed>
  <fix>3d</fix>
</trkpt>
<trkpt lat="-27.238771" lon="151.3640718">
  <ele>518.65</ele>
  <time>2026-09-01T20:01:48Z</time>
  <course>137.24</course>
  <speed>0.04</speed>
  <fix>3d</fix>
</trkpt>
<trkpt lat="-27.2387711" lon="151.3640719">
  <ele>518.35</ele>
  <time>2026-09-01T20:01:48Z</time>
  <course>277.28</course>
  <speed>0.04242640687119285</speed>
  <fix>3d</fix>
</trkpt>
<trkpt lat="-27.238771" lon="151.3640718">
  <ele>518.65</ele>
  <time>2026-09-01T20:01:48Z</time>
  <course>137.24</course>
  <speed>0.04</speed>
  <fix>3d</fix>
</trkpt>
<trkpt lat="-27.2387711" lon="151.364072">
  <ele>518.2</ele>
  <time>2026-09-01T20:01:48Z</time>
  <course>277.25</course>
  <speed>0.04242640687119285</speed>
  <fix>3d</fix>
</trkpt>
<trkpt lat="-27.2387711" lon="151.3640719">
  <ele>518.34</ele>
  <time>2026-09-01T20:01:48Z</time>
  <course>134.38</course>
  <speed>0.05</speed>
  <fix>3d</fix>
</trkpt>
<trkpt lat="-27.2387712" lon="151.364072">
  <ele>518.04</ele>
  <time>2026-09-01T20:01:48Z</time>
  <course>277.29</course>
  <speed>0.05</speed>
  <fix>3d</fix>
</trkpt>
<trkpt lat="-27.2387711" lon="151.3640719">
  <ele>518.34</ele>
  <time>2026-09-01T20:01:48Z</time>
  <course>134.38</course>
  <speed>0.05</speed>
  <fix>3d</fix>
</trkpt>
<trkpt lat="-27.2387712" lon="151.364072">
  <ele>517.89</ele>
  <time>2026-09-01T20:01:48Z</time>
  <course>277.36</course>
  <speed>0.05</speed>
  <fix>3d</fix>
</trkpt>
<trkpt lat="-27.2387711" lon="151.364072">
  <ele>518.05</ele>
  <time>2026-09-01T20:01:48Z</time>
  <course>133.22</course>
  <speed>0.05</speed>
  <fix>3d</fix>
</trkpt>
<trkpt lat="-27.2387712" lon="151.364072">
  <ele>517.74</ele>
  <time>2026-09-01T20:01:48Z</time>
  <course>277.46</course>
  <speed>0.05</speed>
  <fix>3d</fix>
</trkpt>
<trkpt lat="-27.2387711" lon="151.364072">
  <ele>518.05</ele>
  <time>2026-09-01T20:01:48Z</time>
  <course>133.22</course>
  <speed>0.05</speed>
  <fix>3d</fix>
</trkpt>
<trkpt lat="-27.2387713" lon="151.364072">
  <ele>517.59</ele>
  <time>2026-09-01T20:01:49Z</time>
  <course>277.56</course>
  <speed>0.0565685424949238</speed>
  <fix>3d</fix>
</trkpt>
<trkpt lat="-27.2387712" lon="151.364072">
  <ele>517.75</ele>
  <time>2026-09-01T20:01:49Z</time>
  <course>132.99</course>
  <speed>0.05</speed>
  <fix>3d</fix>
</trkpt>
<trkpt lat="-27.2387713" lon="151.3640721">
  <ele>517.44</ele>
  <time>2026-09-01T20:01:49Z</time>
  <course>277.66</course>
  <speed>0.0565685424949238</speed>
  <fix>3d</fix>
</trkpt>
<trkpt lat="-27.2387712" lon="151.364072">
  <ele>517.75</ele>
  <time>2026-09-01T20:01:49Z</time>
  <course>132.99</course>
  <speed>0.05</speed>
  <fix>3d</fix>
</trkpt>
<trkpt lat="-27.2387713" lon="151.3640721">
  <ele>517.29</ele>
  <time>2026-09-01T20:01:49Z</time>
  <course>277.75</course>
  <speed>0.0565685424949238</speed>
  <fix>3d</fix>
</trkpt>
<trkpt lat="-27.2387713" lon="151.3640721">
  <ele>517.44</ele>
  <time>2026-09-01T20:01:49Z</time>
  <course>133.55</course>
  <speed>0.06</speed>
  <fix>3d</fix>
</trkpt>
<trkpt lat="-27.2387714" lon="151.3640723">
  <ele>517.14</ele>
  <time>2026-09-01T20:01:49Z</time>
  <course>277.82</course>
  <speed>0.0565685424949238</speed>
  <fix>3d</fix>
</trkpt>
<trkpt lat="-27.2387713" lon="151.3640721">
  <ele>517.44</ele>
  <time>2026-09-01T20:01:49Z</time>
  <course>133.55</course>
  <speed>0.06</speed>
  <fix>3d</fix>
</trkpt>
<trkpt lat="-27.2387714" lon="151.3640723">
  <ele>516.99</ele>
  <time>2026-09-01T20:01:49Z</time>
  <course>277.88</course>
  <speed>0.0565685424949238</speed>
  <fix>3d</fix>
</trkpt>
<trkpt lat="-27.2387713" lon="151.3640722">
  <ele>517.15</ele>
  <time>2026-09-01T20:01:49Z</time>
  <course>134.82</course>
  <speed>0.06</speed>
  <fix>3d</fix>
</trkpt>
<trkpt lat="-27.2387715" lon="151.3640723">
  <ele>516.84</ele>
  <time>2026-09-01T20:01:49Z</time>
  <course>277.93</course>
  <speed>0.0565685424949238</speed>
  <fix>3d</fix>
</trkpt>
<trkpt lat="-27.2387713" lon="151.3640722">
  <ele>517.15</ele>
  <time>2026-09-01T20:01:49Z</time>
  <course>134.82</course>
  <speed>0.06</speed>
  <fix>3d</fix>
</trkpt>
<trkpt lat="-27.2387715" lon="151.3640724">
  <ele>516.69</ele>
  <time>2026-09-01T20:01:49Z</time>
  <course>277.96</course>
  <speed>0.0565685424949238</speed>
  <fix>3d</fix>
</trkpt>
<trkpt lat="-27.2387714" lon="151.3640723">
  <ele>516.84</ele>
  <time>2026-09-01T20:01:49Z</time>
  <course>136.64</course>
  <speed>0.06</speed>
  <fix>3d</fix>
</trkpt>
<trkpt lat="-27.2387715" lon="151.3640724">
  <ele>516.54</ele>
  <time>2026-09-01T20:01:49Z</time>
  <course>277.98</course>
  <speed>0.0565685424949238</speed>
  <fix>3d</fix>
</trkpt>
<trkpt lat="-27.2387714" lon="151.3640723">
  <ele>516.84</ele>
  <time>2026-09-01T20:01:49Z</time>
  <course>136.64</course>
  <speed>0.06</speed>
  <fix>3d</fix>
</trkpt>
<trkpt lat="-27.2387716" lon="151.3640725">
  <ele>516.39</ele>
  <time>2026-09-01T20:01:49Z</time>
  <course>278.02</course>
  <speed>0.05</speed>
  <fix>3d</fix>
</trkpt>
<trkpt lat="-27.2387715" lon="151.3640724">
  <ele>516.55</ele>
  <time>2026-09-01T20:01:49Z</time>
  <course>139.38</course>
  <speed>0.06</speed>
  <fix>3d</fix>
</trkpt>
<trkpt lat="-27.2387716" lon="151.3640725">
  <ele>516.24</ele>
  <time>2026-09-01T20:01:49Z</time>
  <course>278.06</course>
  <speed>0.05</speed>
  <fix>3d</fix>
</trkpt>
<trkpt lat="-27.2387715" lon="151.3640724">
  <ele>516.55</ele>
  <time>2026-09-01T20:01:49Z</time>
  <course>139.38</course>
  <speed>0.06</speed>
  <fix>3d</fix>
</trkpt>
<trkpt lat="-27.2387717" lon="151.3640725">
  <ele>516.09</ele>
  <time>2026-09-01T20:01:49Z</time>
  <course>278.11</course>
  <speed>0.05830951894845301</speed>
  <fix>3d</fix>
</trkpt>
<trkpt lat="-27.2387716" lon="151.3640725">
  <ele>516.25</ele>
  <time>2026-09-01T20:01:49Z</time>
  <course>142.46</course>
  <speed>0.06</speed>
  <fix>3d</fix>
</trkpt>
<trkpt lat="-27.2387717" lon="151.3640725">
  <ele>515.94</ele>
  <time>2026-09-01T20:01:49Z</time>
  <course>278.16</course>
  <speed>0.05830951894845301</speed>
  <fix>3d</fix>
</trkpt>
<trkpt lat="-27.2387716" lon="151.3640725">
  <ele>516.25</ele>
  <time>2026-09-01T20:01:49Z</time>
  <course>142.46</course>
  <speed>0.06</speed>
  <fix>3d</fix>
</trkpt>
<trkpt lat="-27.2387718" lon="151.3640725">
  <ele>515.79</ele>
  <time>2026-09-01T20:01:49Z</time>
  <course>278.22</course>
  <speed>0.05830951894845301</speed>
  <fix>3d</fix>
</trkpt>
<trkpt lat="-27.2387717" lon="151.3640725">
  <ele>515.94</ele>
  <time>2026-09-01T20:01:49Z</time>
  <course>145.76</course>
  <speed>0.06</speed>
  <fix>3d</fix>
</trkpt>
<trkpt lat="-27.2387718" lon="151.3640726">
  <ele>515.64</ele>
  <time>2026-09-01T20:01:49Z</time>
  <course>278.28</course>
  <speed>0.05830951894845301</speed>
  <fix>3d</fix>
</trkpt>
<trkpt lat="-27.2387717" lon="151.3640725">
  <ele>515.94</ele>
  <time>2026-09-01T20:01:49Z</time>
  <course>145.76</course>
  <speed>0.06</speed>
  <fix>3d</fix>
</trkpt>
<trkpt lat="-27.2387719" lon="151.3640726">
  <ele>515.49</ele>
  <time>2026-09-01T20:01:49Z</time>
  <course>278.35</course>
  <speed>0.053851648071345036</speed>
  <fix>3d</fix>
</trkpt>
<trkpt lat="-27.2387718" lon="151.3640726">
  <ele>515.65</ele>
  <time>2026-09-01T20:01:49Z</time>
  <course>149.35</course>
  <speed>0.06</speed>
  <fix>3d</fix>
</trkpt>
<trkpt lat="-27.2387719" lon="151.3640726">
  <ele>515.34</ele>
  <time>2026-09-01T20:01:49Z</time>
  <course>278.42</course>
  <speed>0.053851648071345036</speed>
  <fix>3d</fix>
</trkpt>
<trkpt lat="-27.2387718" lon="151.3640726">
  <ele>515.65</ele>
  <time>2026-09-01T20:01:49Z</time>
  <course>149.35</course>
  <speed>0.06</speed>
  <fix>3d</fix>
</trkpt>
<trkpt lat="-27.238772" lon="151.3640726">
  <ele>515.19</ele>
  <time>2026-09-01T20:01:49Z</time>
  <course>278.49</course>
  <speed>0.053851648071345036</speed>
  <fix>3d</fix>
</trkpt>
<trkpt lat="-27.2387719" lon="151.3640726">
  <ele>515.34</ele>
  <time>2026-09-01T20:01:49Z</time>
  <course>153.2</course>
  <speed>0.06</speed>
  <fix>3d</fix>
</trkpt>
<trkpt lat="-27.238772" lon="151.3640728">
  <ele>515.04</ele>
  <time>2026-09-01T20:01:49Z</time>
  <course>278.57</course>
  <speed>0.053851648071345036</speed>
  <fix>3d</fix>
</trkpt>
<trkpt lat="-27.2387719" lon="151.3640726">
  <ele>515.34</ele>
  <time>2026-09-01T20:01:49Z</time>
  <course>153.2</course>
  <speed>0.06</speed>
  <fix>3d</fix>
</trkpt>
<trkpt lat="-27.2387721" lon="151.3640728">
  <ele>514.89</ele>
  <time>2026-09-01T20:01:49Z</time>
  <course>278.65</course>
  <speed>0.053851648071345036</speed>
  <fix>3d</fix>
</trkpt>
<trkpt lat="-27.238772" lon="151.3640727">
  <ele>515.05</ele>
  <time>2026-09-01T20:01:49Z</time>
  <course>157.69</course>
  <speed>0.06</speed>
  <fix>3d</fix>
</trkpt>
<trkpt lat="-27.2387721" lon="151.3640728">
  <ele>514.74</ele>
  <time>2026-09-01T20:01:49Z</time>
  <course>278.72</course>
  <speed>0.05099019513592785</speed>
  <fix>3d</fix>
</trkpt>
<trkpt lat="-27.238772" lon="151.3640727">
  <ele>515.05</ele>
  <time>2026-09-01T20:01:49Z</time>
  <course>157.69</course>
  <speed>0.06</speed>
  <fix>3d</fix>
</trkpt>
<trkpt lat="-27.2387722" lon="151.3640728">
  <ele>514.59</ele>
  <time>2026-09-01T20:01:49Z</time>
  <course>278.8</course>
  <speed>0.05099019513592785</speed>
  <fix>3d</fix>
</trkpt>
<trkpt lat="-27.2387721" lon="151.3640728">
  <ele>514.75</ele>
  <time>2026-09-01T20:01:49Z</time>
  <course>162.59</course>
  <speed>0.06</speed>
  <fix>3d</fix>
</trkpt>
<trkpt lat="-27.2387722" lon="151.3640728">
  <ele>514.44</ele>
  <time>2026-09-01T20:01:49Z</time>
  <course>278.86</course>
  <speed>0.05099019513592785</speed>
  <fix>3d</fix>
</trkpt>
<trkpt lat="-27.2387721" lon="151.3640728">
  <ele>514.75</ele>
  <time>2026-09-01T20:01:49Z</time>
  <course>162.59</course>
  <speed>0.06</speed>
  <fix>3d</fix>
</trkpt>
<trkpt lat="-27.2387723" lon="151.3640729">
  <ele>514.29</ele>
  <time>2026-09-01T20:01:49Z</time>
  <course>278.89</course>
  <speed>0.05099019513592785</speed>
  <fix>3d</fix>
</trkpt>
<trkpt lat="-27.2387722" lon="151.3640728">
  <ele>514.44</ele>
  <time>2026-09-01T20:01:49Z</time>
  <course>166.98</course>
  <speed>0.05</speed>
  <fix>3d</fix>
</trkpt>
<trkpt lat="-27.2387723" lon="151.3640729">
  <ele>514.14</ele>
  <time>2026-09-01T20:01:49Z</time>
  <course>278.85</course>
  <speed>0.04</speed>
  <fix>3d</fix>
</trkpt>
<trkpt lat="-27.2387722" lon="151.3640728">
  <ele>514.44</ele>
  <time>2026-09-01T20:01:49Z</time>
  <course>166.98</course>
  <speed>0.05</speed>
  <fix>3d</fix>
</trkpt>
<trkpt lat="-27.2387724" lon="151.3640729">
  <ele>513.99</ele>
  <time>2026-09-01T20:01:49Z</time>
  <course>278.73</course>
  <speed>0.03</speed>
  <fix>3d</fix>
</trkpt>
<trkpt lat="-27.2387723" lon="151.3640728">
  <ele>514.14</ele>
  <time>2026-09-01T20:01:49Z</time>
  <course>168.5</course>
  <speed>0.04</speed>
  <fix>3d</fix>
</trkpt>
<trkpt lat="-27.2387724" lon="151.3640729">
  <ele>513.84</ele>
  <time>2026-09-01T20:01:49Z</time>
  <course>278.49</course>
  <speed>0.02</speed>
  <fix>3d</fix>
</trkpt>
<trkpt lat="-27.2387723" lon="151.3640728">
  <ele>514.14</ele>
  <time>2026-09-01T20:01:49Z</time>
  <course>168.5</course>
  <speed>0.04</speed>
  <fix>3d</fix>
</trkpt>
<trkpt lat="-27.2387724" lon="151.3640729">
  <ele>513.69</ele>
  <time>2026-09-01T20:01:49Z</time>
  <course>278.13</course>
  <speed>0.0</speed>
  <fix>3d</fix>
</trkpt>
<trkpt lat="-27.2387724" lon="151.3640729">
  <ele>513.83</ele>
  <time>2026-09-01T20:01:49Z</time>
  <course>159.81</course>
  <speed>0.02</speed>
  <fix>3d</fix>
</trkpt>
<trkpt lat="-27.2387724" lon="151.3640729">
  <ele>513.54</ele>
  <time>2026-09-01T20:01:49Z</time>
  <course>277.7</course>
  <speed>0.01414213562373095</speed>
  <fix>3d</fix>
</trkpt>
<trkpt lat="-27.2387724" lon="151.3640729">
  <ele>513.83</ele>
  <time>2026-09-01T20:01:49Z</time>
  <course>159.81</course>
  <speed>0.02</speed>
  <fix>3d</fix>
</trkpt>
<trkpt lat="-27.2387724" lon="151.3640729">
  <ele>513.39</ele>
  <time>2026-09-01T20:01:49Z</time>
  <course>277.26</course>
  <speed>0.022360679774997897</speed>
  <fix>3d</fix>
</trkpt>
<trkpt lat="-27.2387724" lon="151.3640729">
  <ele>513.54</ele>
  <time>2026-09-01T20:01:49Z</time>
  <course>44.41</course>
  <speed>0.01</speed>
  <fix>3d</fix>
</trkpt>
<trkpt lat="-27.2387724" lon="151.3640729">
  <ele>513.24</ele>
  <time>2026-09-01T20:01:49Z</time>
  <course>276.85</course>
  <speed>0.0412310562561766</speed>
  <fix>3d</fix>
</trkpt>
<trkpt lat="-27.2387724" lon="151.3640729">
  <ele>513.54</ele>
  <time>2026-09-01T20:01:49Z</time>
  <course>44.41</course>
  <speed>0.01</speed>
  <fix>3d</fix>
</trkpt>
<trkpt lat="-27.2387724" lon="151.3640729">
  <ele>513.09</ele>
  <time>2026-09-01T20:01:49Z</time>
  <course>276.53</course>
  <speed>0.06082762530298219</speed>
  <fix>3d</fix>
</trkpt>
<trkpt lat="-27.2387724" lon="151.3640729">
  <ele>513.24</ele>
  <time>2026-09-01T20:01:49Z</time>
  <course>16.6</course>
  <speed>0.04</speed>
  <fix>3d</fix>
</trkpt>
<trkpt lat="-27.2387723" lon="151.364073">
  <ele>512.94</ele>
  <time>2026-09-01T20:01:49Z</time>
  <course>276.31</course>
  <speed>0.07071067811865475</speed>
  <fix>3d</fix>
</trkpt>
<trkpt lat="-27.2387724" lon="151.3640729">
  <ele>513.24</ele>
  <time>2026-09-01T20:01:49Z</time>
  <course>16.6</course>
  <speed>0.04</speed>
  <fix>3d</fix>
</trkpt>
<trkpt lat="-27.2387723" lon="151.364073">
  <ele>512.79</ele>
  <time>2026-09-01T20:01:49Z</time>
  <course>276.2</course>
  <speed>0.09219544457292887</speed>
  <fix>3d</fix>
</trkpt>
<trkpt lat="-27.2387723" lon="151.3640729">
  <ele>512.94</ele>
  <time>2026-09-01T20:01:49Z</time>
  <course>13.0</course>
  <speed>0.08</speed>
  <fix>3d</fix>
</trkpt>
<trkpt lat="-27.2387722" lon="151.364073">
  <ele>512.64</ele>
  <time>2026-09-01T20:01:49Z</time>
  <course>276.18</course>
  <speed>0.1019803902718557</speed>
  <fix>3d</fix>
</trkpt>
<trkpt lat="-27.2387723" lon="151.3640729">
  <ele>512.94</ele>
  <time>2026-09-01T20:01:49Z</time>
  <course>13.0</course>
  <speed>0.08</speed>
  <fix>3d</fix>
</trkpt>
<trkpt lat="-27.2387721" lon="151.364073">
  <ele>512.49</ele>
  <time>2026-09-01T20:01:49Z</time>
  <course>276.22</course>
  <speed>0.12165525060596438</speed>
  <fix>3d</fix>
</trkpt>
<trkpt lat="-27.2387722" lon="151.364073">
  <ele>512.65</ele>
  <time>2026-09-01T20:01:49Z</time>
  <course>11.93</course>
  <speed>0.11</speed>
  <fix>3d</fix>
</trkpt>
<trkpt lat="-27.2387719" lon="151.364073">
  <ele>512.34</ele>
  <time>2026-09-01T20:01:49Z</time>
  <course>276.3</course>
  <speed>0.13152946437965907</speed>
  <fix>3d</fix>
</trkpt>
<trkpt lat="-27.2387722" lon="151.364073">
  <ele>512.65</ele>
  <time>2026-09-01T20:01:49Z</time>
  <course>11.93</course>
  <speed>0.11</speed>
  <fix>3d</fix>
</trkpt>
<trkpt lat="-27.2387718" lon="151.364073">
  <ele>512.19</ele>
  <time>2026-09-01T20:01:49Z</time>
  <course>276.38</course>
  <speed>0.1414213562373095</speed>
  <fix>3d</fix>
</trkpt>
<trkpt lat="-27.2387719" lon="151.364073">
  <ele>512.34</ele>
  <time>2026-09-01T20:01:49Z</time>
  <course>11.39</course>
  <speed>0.13</speed>
  <fix>3d</fix>
</trkpt>
<trkpt lat="-27.2387717" lon="151.364073">
  <ele>512.04</ele>
  <time>2026-09-01T20:01:49Z</time>
  <course>276.45</course>
  <speed>0.15297058540778355</speed>
  <fix>3d</fix>
</trkpt>
<trkpt lat="-27.2387719" lon="151.364073">
  <ele>512.34</ele>
  <time>2026-09-01T20:01:49Z</time>
  <course>11.39</course>
  <speed>0.13</speed>
  <fix>3d</fix>
</trkpt>
<trkpt lat="-27.2387715" lon="151.364073">
  <ele>511.89</ele>
  <time>2026-09-01T20:01:49Z</time>
  <course>276.51</course>
  <speed>0.16278820596099705</speed>
  <fix>3d</fix>
</trkpt>
<trkpt lat="-27.2387716" lon="151.364073">
  <ele>512.05</ele>
  <time>2026-09-01T20:01:49Z</time>
  <course>11.07</course>
  <speed>0.15</speed>
  <fix>3d</fix>
</trkpt>
<trkpt lat="-27.2387714" lon="151.3640732">
  <ele>511.74</ele>
  <time>2026-09-01T20:01:49Z</time>
  <course>276.54</course>
  <speed>0.16278820596099705</speed>
  <fix>3d</fix>
</trkpt>
<trkpt lat="-27.2387716" lon="151.364073">
  <ele>512.05</ele>
  <time>2026-09-01T20:01:49Z</time>
  <course>11.07</course>
  <speed>0.15</speed>
  <fix>3d</fix>
</trkpt>
<trkpt lat="-27.2387712" lon="151.3640732">
  <ele>511.59</ele>
  <time>2026-09-01T20:01:49Z</time>
  <course>276.54</course>
  <speed>0.17262676501632068</speed>
  <fix>3d</fix>
</trkpt>
<trkpt lat="-27.2387713" lon="151.3640731">
  <ele>511.75</ele>
  <time>2026-09-01T20:01:49Z</time>
  <course>10.98</course>
  <speed>0.17</speed>
  <fix>3d</fix>
</trkpt>
<trkpt lat="-27.2387711" lon="151.3640732">
  <ele>511.44</ele>
  <time>2026-09-01T20:01:49Z</time>
  <course>276.52</course>
  <speed>0.17262676501632068</speed>
  <fix>3d</fix>
</trkpt>
<trkpt lat="-27.2387713" lon="151.3640731">
  <ele>511.75</ele>
  <time>2026-09-01T20:01:49Z</time>
  <course>10.98</course>
  <speed>0.17</speed>
  <fix>3d</fix>
</trkpt>
<trkpt lat="-27.2387709" lon="151.3640733">
  <ele>511.29</ele>
  <time>2026-09-01T20:01:49Z</time>
  <course>276.49</course>
  <speed>0.1824828759089466</speed>
  <fix>3d</fix>
</trkpt>
<trkpt lat="-27.238771" lon="151.3640732">
  <ele>511.45</ele>
  <time>2026-09-01T20:01:49Z</time>
  <course>10.88</course>
  <speed>0.18</speed>
  <fix>3d</fix>
</trkpt>
<trkpt lat="-27.2387707" lon="151.3640733">
  <ele>511.14</ele>
  <time>2026-09-01T20:01:49Z</time>
  <course>276.46</course>
  <speed>0.1824828759089466</speed>
  <fix>3d</fix>
</trkpt>
<trkpt lat="-27.238771" lon="151.3640732">
  <ele>511.45</ele>
  <time>2026-09-01T20:01:49Z</time>
  <course>10.88</course>
  <speed>0.18</speed>
  <fix>3d</fix>
</trkpt>
<trkpt lat="-27.2387706" lon="151.3640733">
  <ele>510.99</ele>
  <time>2026-09-01T20:01:49Z</time>
  <course>276.42</course>
  <speed>0.1824828759089466</speed>
  <fix>3d</fix>
</trkpt>
<trkpt lat="-27.2387707" lon="151.3640733">
  <ele>511.15</ele>
  <time>2026-09-01T20:01:49Z</time>
  <course>10.51</course>
  <speed>0.18</speed>
  <fix>3d</fix>
</trkpt>
<trkpt lat="-27.2387704" lon="151.3640734">
  <ele>510.84</ele>
  <time>2026-09-01T20:01:49Z</time>
  <course>276.39</course>
  <speed>0.1824828759089466</speed>
  <fix>3d</fix>
</trkpt>
<trkpt lat="-27.2387707" lon="151.3640733">
  <ele>511.15</ele>
  <time>2026-09-01T20:01:49Z</time>
  <course>10.51</course>
  <speed>0.18</speed>
  <fix>3d</fix>
</trkpt>
<trkpt lat="-27.2387702" lon="151.3640734">
  <ele>510.69</ele>
  <time>2026-09-01T20:01:49Z</time>
  <course>276.36</course>
  <speed>0.1824828759089466</speed>
  <fix>3d</fix>
</trkpt>
<trkpt lat="-27.2387704" lon="151.3640733">
  <ele>510.85</ele>
  <time>2026-09-01T20:01:49Z</time>
  <course>10.05</course>
  <speed>0.18</speed>
  <fix>3d</fix>
</trkpt>
<trkpt lat="-27.2387701" lon="151.3640734">
  <ele>510.54</ele>
  <time>2026-09-01T20:01:49Z</time>
  <course>276.33</course>
  <speed>0.1824828759089466</speed>
  <fix>3d</fix>
</trkpt>
<trkpt lat="-27.2387704" lon="151.3640733">
  <ele>510.85</ele>
  <time>2026-09-01T20:01:49Z</time>
  <course>10.05</course>
  <speed>0.18</speed>
  <fix>3d</fix>
</trkpt>
<trkpt lat="-27.2387699" lon="151.3640735">
  <ele>510.39</ele>
  <time>2026-09-01T20:01:49Z</time>
  <course>276.31</course>
  <speed>0.1824828759089466</speed>
  <fix>3d</fix>
</trkpt>
<trkpt lat="-27.23877" lon="151.3640734">
  <ele>510.55</ele>
  <time>2026-09-01T20:01:49Z</time>
  <course>9.8</course>
  <speed>0.18</speed>
  <fix>3d</fix>
</trkpt>
<trkpt lat="-27.2387698" lon="151.3640735">
  <ele>510.24</ele>
  <time>2026-09-01T20:01:49Z</time>
  <course>276.29</course>
  <speed>0.17262676501632068</speed>
  <fix>3d</fix>
</trkpt>
<trkpt lat="-27.23877" lon="151.3640734">
  <ele>510.55</ele>
  <time>2026-09-01T20:01:49Z</time>
  <course>9.8</course>
  <speed>0.18</speed>
  <fix>3d</fix>
</trkpt>
<trkpt lat="-27.2387696" lon="151.3640735">
  <ele>510.09</ele>
  <time>2026-09-01T20:01:49Z</time>
  <course>276.28</course>
  <speed>0.1711724276862369</speed>
  <fix>3d</fix>
</trkpt>
<trkpt lat="-27.2387697" lon="151.3640735">
  <ele>510.25</ele>
  <time>2026-09-01T20:01:49Z</time>
  <course>9.76</course>
  <speed>0.17</speed>
  <fix>3d</fix>
</trkpt>
<trkpt lat="-27.2387694" lon="151.3640735">
  <ele>509.94</ele>
  <time>2026-09-01T20:01:49Z</time>
  <course>276.27</course>
  <speed>0.16124515496597097</speed>
  <fix>3d</fix>
</trkpt>
<trkpt lat="-27.2387697" lon="151.3640735">
  <ele>510.25</ele>
  <time>2026-09-01T20:01:49Z</time>
  <course>9.76</course>
  <speed>0.17</speed>
  <fix>3d</fix>
</trkpt>
<trkpt lat="-27.2387693" lon="151.3640735">
  <ele>509.79</ele>
  <time>2026-09-01T20:01:49Z</time>
  <course>276.26</course>
  <speed>0.15132745950421556</speed>
  <fix>3d</fix>
</trkpt>
<trkpt lat="-27.2387694" lon="151.3640735">
  <ele>509.95</ele>
  <time>2026-09-01T20:01:49Z</time>
  <course>9.75</course>
  <speed>0.16</speed>
  <fix>3d</fix>
</trkpt>
<trkpt lat="-27.2387692" lon="151.3640735">
  <ele>509.64</ele>
  <time>2026-09-01T20:01:49Z</time>
  <course>276.26</course>
  <speed>0.15132745950421556</speed>
  <fix>3d</fix>
</trkpt>
<trkpt lat="-27.2387694" lon="151.3640735">
  <ele>509.95</ele>
  <time>2026-09-01T20:01:49Z</time>
  <course>9.75</course>
  <speed>0.16</speed>
  <fix>3d</fix>
</trkpt>
<trkpt lat="-27.238769" lon="151.3640735">
  <ele>509.49</ele>
  <time>2026-09-01T20:01:49Z</time>
  <course>276.25</course>
  <speed>0.1414213562373095</speed>
  <fix>3d</fix>
</trkpt>
<trkpt lat="-27.2387691" lon="151.3640735">
  <ele>509.65</ele>
  <time>2026-09-01T20:01:49Z</time>
  <course>9.7</course>
  <speed>0.15</speed>
  <fix>3d</fix>
</trkpt>
<trkpt lat="-27.2387689" lon="151.3640737">
  <ele>509.34</ele>
  <time>2026-09-01T20:01:49Z</time>
  <course>276.25</course>
  <speed>0.13152946437965907</speed>
  <fix>3d</fix>
</trkpt>
<trkpt lat="-27.2387691" lon="151.3640735">
  <ele>509.65</ele>
  <time>2026-09-01T20:01:49Z</time>
  <course>9.7</course>
  <speed>0.15</speed>
  <fix>3d</fix>
</trkpt>
<trkpt lat="-27.2387688" lon="151.3640737">
  <ele>509.19</ele>
  <time>2026-09-01T20:01:49Z</time>
  <course>276.24</course>
  <speed>0.12165525060596438</speed>
  <fix>3d</fix>
</trkpt>
<trkpt lat="-27.2387688" lon="151.3640736">
  <ele>509.35</ele>
  <time>2026-09-01T20:01:49Z</time>
  <course>9.59</course>
  <speed>0.13</speed>
  <fix>3d</fix>
</trkpt>
<trkpt lat="-27.2387687" lon="151.3640737">
  <ele>509.04</ele>
  <time>2026-09-01T20:01:49Z</time>
  <course>276.22</course>
  <speed>0.11045361017187261</speed>
  <fix>3d</fix>
</trkpt>
<trkpt lat="-27.2387688" lon="151.3640736">
  <ele>509.35</ele>
  <time>2026-09-01T20:01:49Z</time>
  <course>9.59</course>
  <speed>0.13</speed>
  <fix>3d</fix>
</trkpt>
<trkpt lat="-27.2387686" lon="151.3640737">
  <ele>508.89</ele>
  <time>2026-09-01T20:01:49Z</time>
  <course>276.21</course>
  <speed>0.1004987562112089</speed>
  <fix>3d</fix>
</trkpt>
<trkpt lat="-27.2387687" lon="151.3640737">
  <ele>509.04</ele>
  <time>2026-09-01T20:01:49Z</time>
  <course>9.33</course>
  <speed>0.11</speed>
  <fix>3d</fix>
</trkpt>
<trkpt lat="-27.2387685" lon="151.3640737">
  <ele>508.74</ele>
  <time>2026-09-01T20:01:49Z</time>
  <course>276.2</course>
  <speed>0.09055385138137417</speed>
  <fix>3d</fix>
</trkpt>
<trkpt lat="-27.2387687" lon="151.3640737">
  <ele>509.04</ele>
  <time>2026-09-01T20:01:49Z</time>
  <course>9.33</course>
  <speed>0.11</speed>
  <fix>3d</fix>
</trkpt>
<trkpt lat="-27.2387684" lon="151.3640738">
  <ele>508.59</ele>
  <time>2026-09-01T20:01:49Z</time>
  <course>276.18</course>
  <speed>0.08062257748298549</speed>
  <fix>3d</fix>
</trkpt>
<trkpt lat="-27.2387685" lon="151.3640737">
  <ele>508.74</ele>
  <time>2026-09-01T20:01:49Z</time>
  <course>8.86</course>
  <speed>0.09</speed>
  <fix>3d</fix>
</trkpt>
<trkpt lat="-27.2387684" lon="151.3640738">
  <ele>508.44</ele>
  <time>2026-09-01T20:01:49Z</time>
  <course>276.17</course>
  <speed>0.07071067811865475</speed>
  <fix>3d</fix>
</trkpt>
<trkpt lat="-27.2387685" lon="151.3640737">
  <ele>508.74</ele>
  <time>2026-09-01T20:01:49Z</time>
  <course>8.86</course>
  <speed>0.09</speed>
  <fix>3d</fix>
</trkpt>
<trkpt lat="-27.2387683" lon="151.3640738">
  <ele>508.29</ele>
  <time>2026-09-01T20:01:49Z</time>
  <course>276.16</course>
  <speed>0.06</speed>
  <fix>3d</fix>
</trkpt>
<trkpt lat="-27.2387683" lon="151.3640738">
  <ele>508.44</ele>
  <time>2026-09-01T20:01:49Z</time>
  <course>8.33</course>
  <speed>0.07</speed>
  <fix>3d</fix>
</trkpt>
<trkpt lat="-27.2387682" lon="151.3640738">
  <ele>508.14</ele>
  <time>2026-09-01T20:01:49Z</time>
  <course>276.15</course>
  <speed>0.05</speed>
  <fix>3d</fix>
</trkpt>
<trkpt lat="-27.2387683" lon="151.3640738">
  <ele>508.44</ele>
  <time>2026-09-01T20:01:49Z</time>
  <course>8.33</course>
  <speed>0.07</speed>
  <fix>3d</fix>
</trkpt>
<trkpt lat="-27.2387682" lon="151.3640738">
  <ele>507.99</ele>
  <time>2026-09-01T20:01:49Z</time>
  <course>276.14</course>
  <speed>0.04</speed>
  <fix>3d</fix>
</trkpt>
<trkpt lat="-27.2387682" lon="151.3640738">
  <ele>508.14</ele>
  <time>2026-09-01T20:01:49Z</time>
  <course>7.51</course>
  <speed>0.05</speed>
  <fix>3d</fix>
</trkpt>
<trkpt lat="-27.2387682" lon="151.3640738">
  <ele>507.84</ele>
  <time>2026-09-01T20:01:49Z</time>
  <course>276.14</course>
  <speed>0.02</speed>
  <fix>3d</fix>
</trkpt>
<trkpt lat="-27.2387682" lon="151.3640738">
  <ele>508.14</ele>
  <time>2026-09-01T20:01:49Z</time>
  <course>7.51</course>
  <speed>0.05</speed>
  <fix>3d</fix>
</trkpt>
<trkpt lat="-27.2387681" lon="151.3640738">
  <ele>507.69</ele>
  <time>2026-09-01T20:01:49Z</time>
  <course>276.14</course>
  <speed>0.01</speed>
  <fix>3d</fix>
</trkpt>
<trkpt lat="-27.2387681" lon="151.3640738">
  <ele>507.84</ele>
  <time>2026-09-01T20:01:49Z</time>
  <course>5.35</course>
  <speed>0.03</speed>
  <fix>3d</fix>
</trkpt>
<trkpt lat="-27.2387681" lon="151.3640738">
  <ele>507.54</ele>
  <time>2026-09-01T20:01:49Z</time>
  <course>276.16</course>
  <speed>0.0</speed>
  <fix>3d</fix>
</trkpt>
<trkpt lat="-27.2387681" lon="151.3640738">
  <ele>507.84</ele>
  <time>2026-09-01T20:01:49Z</time>
  <course>5.35</course>
  <speed>0.03</speed>
  <fix>3d</fix>
</trkpt>
<trkpt lat="-27.2387681" lon="151.3640738">
  <ele>507.39</ele>
  <time>2026-09-01T20:01:49Z</time>
  <course>276.2</course>
  <speed>0.0</speed>
  <fix>3d</fix>
</trkpt>
<trkpt lat="-27.2387681" lon="151.3640738">
  <ele>507.55</ele>
  <time>2026-09-01T20:01:49Z</time>
  <course>343.51</course>
  <speed>0.0</speed>
  <fix>3d</fix>
</trkpt>
<trkpt lat="-27.2387681" lon="151.3640738">
  <ele>507.24</ele>
  <time>2026-09-01T20:01:49Z</time>
  <course>276.25</course>
  <speed>0.01</speed>
  <fix>3d</fix>
</trkpt>
<trkpt lat="-27.2387681" lon="151.3640738">
  <ele>507.55</ele>
  <time>2026-09-01T20:01:49Z</time>
  <course>343.51</course>
  <speed>0.0</speed>
  <fix>3d</fix>
</trkpt>
<trkpt lat="-27.2387681" lon="151.3640738">
  <ele>507.09</ele>
  <time>2026-09-01T20:01:49Z</time>
  <course>276.15</course>
  <speed>0.01</speed>
  <fix>3d</fix>
</trkpt>
<trkpt lat="-27.2387681" lon="151.3640738">
  <ele>507.25</ele>
  <time>2026-09-01T20:01:49Z</time>
  <course>202.83</course>
  <speed>0.01</speed>
  <fix>3d</fix>
</trkpt>
<trkpt lat="-27.2387681" lon="151.3640738">
  <ele>506.94</ele>
  <time>2026-09-01T20:01:49Z</time>
  <course>275.92</course>
  <speed>0.01</speed>
  <fix>3d</fix>
</trkpt>
<trkpt lat="-27.2387681" lon="151.3640738">
  <ele>507.25</ele>
  <time>2026-09-01T20:01:49Z</time>
  <course>202.83</course>
  <speed>0.01</speed>
  <fix>3d</fix>
</trkpt>
<trkpt lat="-27.2387681" lon="151.3640738">
  <ele>506.79</ele>
  <time>2026-09-01T20:01:49Z</time>
  <course>275.62</course>
  <speed>0.01</speed>
  <fix>3d</fix>
</trkpt>
<trkpt lat="-27.2387681" lon="151.3640738">
  <ele>506.95</ele>
  <time>2026-09-01T20:01:49Z</time>
  <course>202.66</course>
  <speed>0.01</speed>
  <fix>3d</fix>
</trkpt>
<trkpt lat="-27.2387681" lon="151.3640738">
  <ele>506.64</ele>
  <time>2026-09-01T20:01:49Z</time>
  <course>275.3</course>
  <speed>0.01</speed>
  <fix>3d</fix>
</trkpt>
<trkpt lat="-27.2387681" lon="151.3640738">
  <ele>506.95</ele>
  <time>2026-09-01T20:01:49Z</time>
  <course>202.66</course>
  <speed>0.01</speed>
  <fix>3d</fix>
</trkpt>
<trkpt lat="-27.2387681" lon="151.3640738">
  <ele>506.49</ele>
  <time>2026-09-01T20:01:49Z</time>
  <course>275.02</course>
  <speed>0.01</speed>
  <fix>3d</fix>
</trkpt>
<trkpt lat="-27.2387681" lon="151.3640738">
  <ele>506.65</ele>
  <time>2026-09-01T20:01:49Z</time>
  <course>206.27</course>
  <speed>0.01</speed>
  <fix>3d</fix>
</trkpt>
<trkpt lat="-27.2387681" lon="151.3640738">
  <ele>506.34</ele>
  <time>2026-09-01T20:01:49Z</time>
  <course>274.79</course>
  <speed>0.01</speed>
  <fix>3d</fix>
</trkpt>
<trkpt lat="-27.2387681" lon="151.3640738">
  <ele>506.65</ele>
  <time>2026-09-01T20:01:49Z</time>
  <course>206.27</course>
  <speed>0.01</speed>
  <fix>3d</fix>
</trkpt>
<trkpt lat="-27.2387681" lon="151.3640738">
  <ele>506.19</ele>
  <time>2026-09-01T20:01:49Z</time>
  <course>274.64</course>
  <speed>0.01</speed>
  <fix>3d</fix>
</trkpt>
<trkpt lat="-27.2387681" lon="151.3640738">
  <ele>506.35</ele>
  <time>2026-09-01T20:01:49Z</time>
  <course>210.1</course>
  <speed>0.01</speed>
  <fix>3d</fix>
</trkpt>
<trkpt lat="-27.2387682" lon="151.3640738">
  <ele>506.04</ele>
  <time>2026-09-01T20:01:49Z</time>
  <course>274.55</course>
  <speed>0.01</speed>
  <fix>3d</fix>
</trkpt>
<trkpt lat="-27.2387681" lon="151.3640738">
  <ele>506.35</ele>
  <time>2026-09-01T20:01:49Z</time>
  <course>210.1</course>
  <speed>0.01</speed>
  <fix>3d</fix>
</trkpt>
<trkpt lat="-27.2387682" lon="151.3640738">
  <ele>505.89</ele>
  <time>2026-09-01T20:01:49Z</time>
  <course>274.52</course>
  <speed>0.01</speed>
  <fix>3d</fix>
</trkpt>
<trkpt lat="-27.2387681" lon="151.3640738">
  <ele>506.05</ele>
  <time>2026-09-01T20:01:49Z</time>
  <course>214.23</course>
  <speed>0.01</speed>
  <fix>3d</fix>
</trkpt>
<trkpt lat="-27.2387682" lon="151.3640738">
  <ele>505.74</ele>
  <time>2026-09-01T20:01:49Z</time>
  <course>274.53</course>
  <speed>0.01</speed>
  <fix>3d</fix>
</trkpt>
<trkpt lat="-27.2387681" lon="151.3640738">
  <ele>506.05</ele>
  <time>2026-09-01T20:01:49Z</time>
  <course>214.23</course>
  <speed>0.01</speed>
  <fix>3d</fix>
</trkpt>
<trkpt lat="-27.2387682" lon="151.3640738">
  <ele>505.59</ele>
  <time>2026-09-01T20:01:49Z</time>
  <course>274.56</course>
  <speed>0.01414213562373095</speed>
  <fix>3d</fix>
</trkpt>
<trkpt lat="-27.2387682" lon="151.3640738">
  <ele>505.75</ele>
  <time>2026-09-01T20:01:49Z</time>
  <course>218.22</course>
  <speed>0.01</speed>
  <fix>3d</fix>
</trkpt>
<trkpt lat="-27.2387682" lon="151.3640738">
  <ele>505.44</ele>
  <time>2026-09-01T20:01:49Z</time>
  <course>274.61</course>
  <speed>0.01414213562373095</speed>
  <fix>3d</fix>
</trkpt>
<trkpt lat="-27.2387682" lon="151.3640738">
  <ele>505.75</ele>
  <time>2026-09-01T20:01:49Z</time>
  <course>218.22</course>
  <speed>0.01</speed>
  <fix>3d</fix>
</trkpt>
<trkpt lat="-27.2387682" lon="151.3640738">
  <ele>505.29</ele>
  <time>2026-09-01T20:01:49Z</time>
  <course>274.65</course>
  <speed>0.01414213562373095</speed>
  <fix>3d</fix>
</trkpt>
<trkpt lat="-27.2387682" lon="151.3640738">
  <ele>505.45</ele>
  <time>2026-09-01T20:01:49Z</time>
  <course>222.08</course>
  <speed>0.01</speed>
  <fix>3d</fix>
</trkpt>
<trkpt lat="-27.2387682" lon="151.3640738">
  <ele>505.14</ele>
  <time>2026-09-01T20:01:49Z</time>
  <course>274.67</course>
  <speed>0.01414213562373095</speed>
  <fix>3d</fix>
</trkpt>
<trkpt lat="-27.2387682" lon="151.3640738">
  <ele>505.45</ele>
  <time>2026-09-01T20:01:49Z</time>
  <course>222.08</course>
  <speed>0.01</speed>
  <fix>3d</fix>
</trkpt>
<trkpt lat="-27.2387682" lon="151.3640738">
  <ele>504.99</ele>
  <time>2026-09-01T20:01:49Z</time>
  <course>274.67</course>
  <speed>0.01414213562373095</speed>
  <fix>3d</fix>
</trkpt>
<trkpt lat="-27.2387682" lon="151.3640738">
  <ele>505.14</ele>
  <time>2026-09-01T20:01:49Z</time>
  <course>225.68</course>
  <speed>0.01</speed>
  <fix>3d</fix>
</trkpt>
<trkpt lat="-27.2387682" lon="151.3640737">
  <ele>504.84</ele>
  <time>2026-09-01T20:01:49Z</time>
  <course>274.66</course>
  <speed>0.01</speed>
  <fix>3d</fix>
</trkpt>
<trkpt lat="-27.2387682" lon="151.3640738">
  <ele>505.14</ele>
  <time>2026-09-01T20:01:49Z</time>
  <course>225.68</course>
  <speed>0.01</speed>
  <fix>3d</fix>
</trkpt>
<trkpt lat="-27.2387683" lon="151.3640737">
  <ele>504.69</ele>
  <time>2026-09-01T20:01:49Z</time>
  <course>274.64</course>
  <speed>0.01</speed>
  <fix>3d</fix>
</trkpt>
<trkpt lat="-27.2387682" lon="151.3640737">
  <ele>504.84</ele>
  <time>2026-09-01T20:01:49Z</time>
  <course>229.06</course>
  <speed>0.01</speed>
  <fix>3d</fix>
</trkpt>
<trkpt lat="-27.2387683" lon="151.3640737">
  <ele>504.54</ele>
  <time>2026-09-01T20:01:49Z</time>
  <course>274.61</course>
  <speed>0.01</speed>
  <fix>3d</fix>
</trkpt>
<trkpt lat="-27.2387682" lon="151.3640737">
  <ele>504.84</ele>
  <time>2026-09-01T20:01:49Z</time>
  <course>229.06</course>
  <speed>0.01</speed>
  <fix>3d</fix>
</trkpt>
<trkpt lat="-27.2387683" lon="151.3640737">
  <ele>504.39</ele>
  <time>2026-09-01T20:01:49Z</time>
  <course>274.57</course>
  <speed>0.01</speed>
  <fix>3d</fix>
</trkpt>
<trkpt lat="-27.2387682" lon="151.3640737">
  <ele>504.54</ele>
  <time>2026-09-01T20:01:49Z</time>
  <course>231.93</course>
  <speed>0.01</speed>
  <fix>3d</fix>
</trkpt>
<trkpt lat="-27.2387683" lon="151.3640737">
  <ele>504.24</ele>
  <time>2026-09-01T20:01:49Z</time>
  <course>274.53</course>
  <speed>0.01</speed>
  <fix>3d</fix>
</trkpt>
<trkpt lat="-27.2387682" lon="151.3640737">
  <ele>504.54</ele>
  <time>2026-09-01T20:01:49Z</time>
  <course>231.93</course>
  <speed>0.01</speed>
  <fix>3d</fix>
</trkpt>
<trkpt lat="-27.2387683" lon="151.3640737">
  <ele>504.09</ele>
  <time>2026-09-01T20:01:49Z</time>
  <course>274.5</course>
  <speed>0.01</speed>
  <fix>3d</fix>
</trkpt>
<trkpt lat="-27.2387683" lon="151.3640737">
  <ele>504.24</ele>
  <time>2026-09-01T20:01:49Z</time>
  <course>233.56</course>
  <speed>0.01</speed>
  <fix>3d</fix>
</trkpt>
<trkpt lat="-27.2387683" lon="151.3640737">
  <ele>503.94</ele>
  <time>2026-09-01T20:01:49Z</time>
  <course>274.46</course>
  <speed>0.01</speed>
  <fix>3d</fix>
</trkpt>
<trkpt lat="-27.2387683" lon="151.3640737">
  <ele>504.24</ele>
  <time>2026-09-01T20:01:49Z</time>
  <course>233.56</course>
  <speed>0.01</speed>
  <fix>3d</fix>
</trkpt>
<trkpt lat="-27.2387683" lon="151.3640737">
  <ele>503.79</ele>
  <time>2026-09-01T20:01:49Z</time>
  <course>274.42</course>
  <speed>0.01</speed>
  <fix>3d</fix>
</trkpt>
<trkpt lat="-27.2387683" lon="151.3640737">
  <ele>503.95</ele>
  <time>2026-09-01T20:01:49Z</time>
  <course>236.09</course>
  <speed>0.01</speed>
  <fix>3d</fix>
</trkpt>
<trkpt lat="-27.2387683" lon="151.3640737">
  <ele>503.64</ele>
  <time>2026-09-01T20:01:49Z</time>
  <course>274.38</course>
  <speed>0.01</speed>
  <fix>3d</fix>
</trkpt>
<trkpt lat="-27.2387683" lon="151.3640737">
  <ele>503.95</ele>
  <time>2026-09-01T20:01:49Z</time>
  <course>236.09</course>
  <speed>0.01</speed>
  <fix>3d</fix>
</trkpt>
<trkpt lat="-27.2387683" lon="151.3640735">
  <ele>503.49</ele>
  <time>2026-09-01T20:01:49Z</time>
  <course>274.34</course>
  <speed>0.01</speed>
  <fix>3d</fix>
</trkpt>
<trkpt lat="-27.2387683" lon="151.3640736">
  <ele>503.65</ele>
  <time>2026-09-01T20:01:49Z</time>
  <course>239.61</course>
  <speed>0.01</speed>
  <fix>3d</fix>
</trkpt>
<trkpt lat="-27.2387683" lon="151.3640735">
  <ele>503.34</ele>
  <time>2026-09-01T20:01:49Z</time>
  <course>274.32</course>
  <speed>0.01</speed>
  <fix>3d</fix>
</trkpt>
<trkpt lat="-27.2387683" lon="151.3640736">
  <ele>503.65</ele>
  <time>2026-09-01T20:01:49Z</time>
  <course>239.61</course>
  <speed>0.01</speed>
  <fix>3d</fix>
</trkpt>
<trkpt lat="-27.2387683" lon="151.3640735">
  <ele>503.19</ele>
  <time>2026-09-01T20:01:49Z</time>
  <course>274.31</course>
  <speed>0.01</speed>
  <fix>3d</fix>
</trkpt>
<trkpt lat="-27.2387683" lon="151.3640735">
  <ele>503.35</ele>
  <time>2026-09-01T20:01:49Z</time>
  <course>240.62</course>
  <speed>0.01</speed>
  <fix>3d</fix>
</trkpt>
<trkpt lat="-27.2387683" lon="151.3640735">
  <ele>503.04</ele>
  <time>2026-09-01T20:01:49Z</time>
  <course>274.31</course>
  <speed>0.01</speed>
  <fix>3d</fix>
</trkpt>
<trkpt lat="-27.2387683" lon="151.3640735">
  <ele>503.35</ele>
  <time>2026-09-01T20:01:49Z</time>
  <course>240.62</course>
  <speed>0.01</speed>
  <fix>3d</fix>
</trkpt>
<trkpt lat="-27.2387683" lon="151.3640735">
  <ele>502.89</ele>
  <time>2026-09-01T20:01:49Z</time>
  <course>274.31</course>
  <speed>0.01</speed>
  <fix>3d</fix>
</trkpt>
<trkpt lat="-27.2387683" lon="151.3640735">
  <ele>503.05</ele>
  <time>2026-09-01T20:01:49Z</time>
  <course>242.02</course>
  <speed>0.01</speed>
  <fix>3d</fix>
</trkpt>
<trkpt lat="-27.2387683" lon="151.3640735">
  <ele>502.74</ele>
  <time>2026-09-01T20:01:49Z</time>
  <course>274.31</course>
  <speed>0.0</speed>
  <fix>3d</fix>
</trkpt>
<trkpt lat="-27.2387683" lon="151.3640735">
  <ele>503.05</ele>
  <time>2026-09-01T20:01:49Z</time>
  <course>242.02</course>
  <speed>0.01</speed>
  <fix>3d</fix>
</trkpt>
<trkpt lat="-27.2387683" lon="151.3640735">
  <ele>502.59</ele>
  <time>2026-09-01T20:01:49Z</time>
  <course>274.3</course>
  <speed>0.0</speed>
  <fix>3d</fix>
</trkpt>
<trkpt lat="-27.2387683" lon="151.3640735">
  <ele>502.75</ele>
  <time>2026-09-01T20:01:49Z</time>
  <course>245.4</course>
  <speed>0.01</speed>
  <fix>3d</fix>
</trkpt>
<trkpt lat="-27.2387683" lon="151.3640735">
  <ele>502.44</ele>
  <time>2026-09-01T20:01:49Z</time>
  <course>274.29</course>
  <speed>0.0</speed>
  <fix>3d</fix>
</trkpt>
<trkpt lat="-27.2387683" lon="151.3640735">
  <ele>502.75</ele>
  <time>2026-09-01T20:01:49Z</time>
  <course>245.4</course>
  <speed>0.01</speed>
  <fix>3d</fix>
</trkpt>
<trkpt lat="-27.2387683" lon="151.3640735">
  <ele>502.29</ele>
  <time>2026-09-01T20:01:49Z</time>
  <course>274.27</course>
  <speed>0.0</speed>
  <fix>3d</fix>
</trkpt>
<trkpt lat="-27.2387683" lon="151.3640735">
  <ele>502.45</ele>
  <time>2026-09-01T20:01:49Z</time>
  <course>248.48</course>
  <speed>0.0</speed>
  <fix>3d</fix>
</trkpt>
<trkpt lat="-27.2387683" lon="151.3640735">
  <ele>502.14</ele>
  <time>2026-09-01T20:01:49Z</time>
  <course>274.24</course>
  <speed>0.0</speed>
  <fix>3d</fix>
</trkpt>
<trkpt lat="-27.2387683" lon="151.3640735">
  <ele>502.45</ele>
  <time>2026-09-01T20:01:49Z</time>
  <course>248.48</course>
  <speed>0.0</speed>
  <fix>3d</fix>
</trkpt>
<trkpt lat="-27.2387683" lon="151.3640735">
  <ele>501.99</ele>
  <time>2026-09-01T20:01:49Z</time>
  <course>274.19</course>
  <speed>0.0</speed>
  <fix>3d</fix>
</trkpt>
<trkpt lat="-27.2387683" lon="151.3640735">
  <ele>502.15</ele>
  <time>2026-09-01T20:01:49Z</time>
  <course>253.6</course>
  <speed>0.0</speed>
  <fix>3d</fix>
</trkpt>
<trkpt lat="-27.2387683" lon="151.3640735">
  <ele>501.84</ele>
  <time>2026-09-01T20:01:49Z</time>
  <course>274.16</course>
  <speed>0.0</speed>
  <fix>3d</fix>
</trkpt>
<trkpt lat="-27.2387683" lon="151.3640735">
  <ele>502.15</ele>
  <time>2026-09-01T20:01:49Z</time>
  <course>253.6</course>
  <speed>0.0</speed>
  <fix>3d</fix>
</trkpt>
<trkpt lat="-27.2387683" lon="151.3640735">
  <ele>501.69</ele>
  <time>2026-09-01T20:01:49Z</time>
  <course>274.14</course>
  <speed>0.0</speed>
  <fix>3d</fix>
</trkpt>
<trkpt lat="-27.2387683" lon="151.3640735">
  <ele>501.85</ele>
  <time>2026-09-01T20:01:49Z</time>
  <course>256.96</course>
  <speed>0.0</speed>
  <fix>3d</fix>
</trkpt>
<trkpt lat="-27.2387683" lon="151.3640735">
  <ele>501.54</ele>
  <time>2026-09-01T20:01:49Z</time>
  <course>274.13</course>
  <speed>0.0</speed>
  <fix>3d</fix>
</trkpt>
<trkpt lat="-27.2387683" lon="151.3640735">
  <ele>501.85</ele>
  <time>2026-09-01T20:01:49Z</time>
  <course>256.96</course>
  <speed>0.0</speed>
  <fix>3d</fix>
</trkpt>
<trkpt lat="-27.2387684" lon="151.3640735">
  <ele>501.39</ele>
  <time>2026-09-01T20:01:49Z</time>
  <course>274.12</course>
  <speed>0.01</speed>
  <fix>3d</fix>
</trkpt>
<trkpt lat="-27.2387683" lon="151.3640735">
  <ele>501.55</ele>
  <time>2026-09-01T20:01:49Z</time>
  <course>260.42</course>
  <speed>0.0</speed>
  <fix>3d</fix>
</trkpt>
<trkpt lat="-27.2387684" lon="151.3640735">
  <ele>501.24</ele>
  <time>2026-09-01T20:01:49Z</time>
  <course>274.11</course>
  <speed>0.0</speed>
  <fix>3d</fix>
</trkpt>
<trkpt lat="-27.2387683" lon="151.3640735">
  <ele>501.55</ele>
  <time>2026-09-01T20:01:49Z</time>
  <course>260.42</course>
  <speed>0.0</speed>
  <fix>3d</fix>
</trkpt>
<trkpt lat="-27.2387684" lon="151.3640735">
  <ele>501.09</ele>
  <time>2026-09-01T20:01:49Z</time>
  <course>274.09</course>
  <speed>0.0</speed>
  <fix>3d</fix>
</trkpt>
<trkpt lat="-27.2387684" lon="151.3640735">
  <ele>501.24</ele>
  <time>2026-09-01T20:01:49Z</time>
  <course>268.53</course>
  <speed>0.0</speed>
  <fix>3d</fix>
</trkpt>
<trkpt lat="-27.2387684" lon="151.3640735">
  <ele>500.94</ele>
  <time>2026-09-01T20:01:49Z</time>
  <course>274.06</course>
  <speed>0.0</speed>
  <fix>3d</fix>
</trkpt>
<trkpt lat="-27.2387684" lon="151.3640735">
  <ele>501.24</ele>
  <time>2026-09-01T20:01:49Z</time>
  <course>268.53</course>
  <speed>0.0</speed>
  <fix>3d</fix>
</trkpt>
<trkpt lat="-27.2387684" lon="151.3640735">
  <ele>500.79</ele>
  <time>2026-09-01T20:01:49Z</time>
  <course>274.03</course>
  <speed>0.0</speed>
  <fix>3d</fix>
</trkpt>
<trkpt lat="-27.2387684" lon="151.3640735">
  <ele>500.94</ele>
  <time>2026-09-01T20:01:49Z</time>
  <course>273.97</course>
  <speed>0.0</speed>
  <fix>3d</fix>
</trkpt>
<trkpt lat="-27.2387684" lon="151.3640735">
  <ele>500.64</ele>
  <time>2026-09-01T20:01:49Z</time>
  <course>274.01</course>
  <speed>0.0</speed>
  <fix>3d</fix>
</trkpt>
<trkpt lat="-27.2387684" lon="151.3640735">
  <ele>500.94</ele>
  <time>2026-09-01T20:01:49Z</time>
  <course>273.97</course>
  <speed>0.0</speed>
  <fix>3d</fix>
</trkpt>
<trkpt lat="-27.2387684" lon="151.3640734">
  <ele>500.49</ele>
  <time>2026-09-01T20:01:49Z</time>
  <course>273.99</course>
  <speed>0.0</speed>
  <fix>3d</fix>
</trkpt>
<trkpt lat="-27.2387684" lon="151.3640734">
  <ele>500.65</ele>
  <time>2026-09-01T20:01:49Z</time>
  <course>278.13</course>
  <speed>0.0</speed>
  <fix>3d</fix>
</trkpt>
<trkpt lat="-27.2387684" lon="151.3640734">
  <ele>500.34</ele>
  <time>2026-09-01T20:01:49Z</time>
  <course>273.98</course>
  <speed>0.0</speed>
  <fix>3d</fix>
</trkpt>
<trkpt lat="-27.2387684" lon="151.3640734">
  <ele>500.65</ele>
  <time>2026-09-01T20:01:49Z</time>
  <course>278.13</course>
  <speed>0.0</speed>
  <fix>3d</fix>
</trkpt>
<trkpt lat="-27.2387684" lon="151.3640734">
  <ele>500.19</ele>
  <time>2026-09-01T20:01:49Z</time>
  <course>273.95</course>
  <speed>0.0</speed>
  <fix>3d</fix>
</trkpt>
<trkpt lat="-27.2387684" lon="151.3640734">
  <ele>500.35</ele>
  <time>2026-09-01T20:01:49Z</time>
  <course>285.3</course>
  <speed>0.0</speed>
  <fix>3d</fix>
</trkpt>
<trkpt lat="-27.2387684" lon="151.3640734">
  <ele>500.04</ele>
  <time>2026-09-01T20:01:49Z</time>
  <course>273.92</course>
  <speed>0.0</speed>
  <fix>3d</fix>
</trkpt>
<trkpt lat="-27.2387684" lon="151.3640734">
  <ele>500.35</ele>
  <time>2026-09-01T20:01:49Z</time>
  <course>285.3</course>
  <speed>0.0</speed>
  <fix>3d</fix>
</trkpt>
<trkpt lat="-27.2387684" lon="151.3640734">
  <ele>499.89</ele>
  <time>2026-09-01T20:01:49Z</time>
  <course>273.91</course>
  <speed>0.0</speed>
  <fix>3d</fix>
</trkpt>
<trkpt lat="-27.2387684" lon="151.3640734">
  <ele>500.05</ele>
  <time>2026-09-01T20:01:49Z</time>
  <course>289.17</course>
  <speed>0.0</speed>
  <fix>3d</fix>
</trkpt>
<trkpt lat="-27.2387684" lon="151.3640734">
  <ele>499.74</ele>
  <time>2026-09-01T20:01:49Z</time>
  <course>273.9</course>
  <speed>0.0</speed>
  <fix>3d</fix>
</trkpt>
<trkpt lat="-27.2387684" lon="151.3640734">
  <ele>500.05</ele>
  <time>2026-09-01T20:01:49Z</time>
  <course>289.17</course>
  <speed>0.0</speed>
  <fix>3d</fix>
</trkpt>
<trkpt lat="-27.2387684" lon="151.3640734">
  <ele>499.59</ele>
  <time>2026-09-01T20:01:49Z</time>
  <course>273.91</course>
  <speed>0.0</speed>
  <fix>3d</fix>
</trkpt>
<trkpt lat="-27.2387684" lon="151.3640734">
  <ele>499.75</ele>
  <time>2026-09-01T20:01:49Z</time>
  <course>290.7</course>
  <speed>0.0</speed>
  <fix>3d</fix>
</trkpt>
<trkpt lat="-27.2387684" lon="151.3640734">
  <ele>499.44</ele>
  <time>2026-09-01T20:01:49Z</time>
  <course>273.91</course>
  <speed>0.0</speed>
  <fix>3d</fix>
</trkpt>
<trkpt lat="-27.2387684" lon="151.3640734">
  <ele>499.75</ele>
  <time>2026-09-01T20:01:49Z</time>
  <course>290.7</course>
  <speed>0.0</speed>
  <fix>3d</fix>
</trkpt>
<trkpt lat="-27.2387684" lon="151.3640734">
  <ele>499.29</ele>
  <time>2026-09-01T20:01:49Z</time>
  <course>273.92</course>
  <speed>0.0</speed>
  <fix>3d</fix>
</trkpt>
<trkpt lat="-27.2387684" lon="151.3640734">
  <ele>499.45</ele>
  <time>2026-09-01T20:01:49Z</time>
  <course>295.49</course>
  <speed>0.0</speed>
  <fix>3d</fix>
</trkpt>
<trkpt lat="-27.2387684" lon="151.3640734">
  <ele>499.14</ele>
  <time>2026-09-01T20:01:49Z</time>
  <course>273.92</course>
  <speed>0.0</speed>
  <fix>3d</fix>
</trkpt>
<trkpt lat="-27.2387684" lon="151.3640734">
  <ele>499.45</ele>
  <time>2026-09-01T20:01:49Z</time>
  <course>295.49</course>
  <speed>0.0</speed>
  <fix>3d</fix>
</trkpt>
<trkpt lat="-27.2387684" lon="151.3640734">
  <ele>498.99</ele>
  <time>2026-09-01T20:01:49Z</time>
  <course>273.91</course>
  <speed>0.0</speed>
  <fix>3d</fix>
</trkpt>
<trkpt lat="-27.2387684" lon="151.3640734">
  <ele>499.15</ele>
  <time>2026-09-01T20:01:49Z</time>
  <course>300.01</course>
  <speed>0.0</speed>
  <fix>3d</fix>
</trkpt>
<trkpt lat="-27.2387684" lon="151.3640733">
  <ele>498.84</ele>
  <time>2026-09-01T20:01:49Z</time>
  <course>273.9</course>
  <speed>0.0</speed>
  <fix>3d</fix>
</trkpt>
<trkpt lat="-27.2387684" lon="151.3640734">
  <ele>499.15</ele>
  <time>2026-09-01T20:01:49Z</time>
  <course>300.01</course>
  <speed>0.0</speed>
  <fix>3d</fix>
</trkpt>
<trkpt lat="-27.2387684" lon="151.3640733">
  <ele>498.69</ele>
  <time>2026-09-01T20:01:49Z</time>
  <course>273.86</course>
  <speed>0.0</speed>
  <fix>3d</fix>
</trkpt>
<trkpt lat="-27.2387684" lon="151.3640733">
  <ele>498.84</ele>
  <time>2026-09-01T20:01:49Z</time>
  <course>307.67</course>
  <speed>0.0</speed>
  <fix>3d</fix>
</trkpt>
<trkpt lat="-27.2387684" lon="151.3640733">
  <ele>498.54</ele>
  <time>2026-09-01T20:01:49Z</time>
  <course>273.81</course>
  <speed>0.0</speed>
  <fix>3d</fix>
</trkpt>
<trkpt lat="-27.2387684" lon="151.3640733">
  <ele>498.84</ele>
  <time>2026-09-01T20:01:49Z</time>
  <course>307.67</course>
  <speed>0.0</speed>
  <fix>3d</fix>
</trkpt>
<trkpt lat="-27.2387684" lon="151.3640733">
  <ele>498.39</ele>
  <time>2026-09-01T20:01:49Z</time>
  <course>273.75</course>
  <speed>0.0</speed>
  <fix>3d</fix>
</trkpt>
<trkpt lat="-27.2387684" lon="151.3640733">
  <ele>498.54</ele>
  <time>2026-09-01T20:01:49Z</time>
  <course>320.09</course>
  <speed>0.0</speed>
  <fix>3d</fix>
</trkpt>
<trkpt lat="-27.2387684" lon="151.3640733">
  <ele>498.24</ele>
  <time>2026-09-01T20:01:49Z</time>
  <course>273.68</course>
  <speed>0.0</speed>
  <fix>3d</fix>
</trkpt>
<trkpt lat="-27.2387684" lon="151.3640733">
  <ele>498.54</ele>
  <time>2026-09-01T20:01:49Z</time>
  <course>320.09</course>
  <speed>0.0</speed>
  <fix>3d</fix>
</trkpt>
<trkpt lat="-27.2387684" lon="151.3640733">
  <ele>498.09</ele>
  <time>2026-09-01T20:01:49Z</time>
  <course>273.62</course>
  <speed>0.0</speed>
  <fix>3d</fix>
</trkpt>
<trkpt lat="-27.2387684" lon="151.3640733">
  <ele>498.24</ele>
  <time>2026-09-01T20:01:49Z</time>
  <course>329.45</course>
  <speed>0.0</speed>
  <fix>3d</fix>
</trkpt>
<trkpt lat="-27.2387684" lon="151.3640733">
  <ele>497.94</ele>
  <time>2026-09-01T20:01:49Z</time>
  <course>273.57</course>
  <speed>0.0</speed>
  <fix>3d</fix>
</trkpt>
<trkpt lat="-27.2387684" lon="151.3640733">
  <ele>498.24</ele>
  <time>2026-09-01T20:01:49Z</time>
  <course>329.45</course>
  <speed>0.0</speed>
  <fix>3d</fix>
</trkpt>
<trkpt lat="-27.2387684" lon="151.3640733">
  <ele>497.79</ele>
  <time>2026-09-01T20:01:49Z</time>
  <course>273.53</course>
  <speed>0.0</speed>
  <fix>3d</fix>
</trkpt>
<trkpt lat="-27.2387684" lon="151.3640733">
  <ele>497.94</ele>
  <time>2026-09-01T20:01:49Z</time>
  <course>335.09</course>
  <speed>0.01</speed>
  <fix>3d</fix>
</trkpt>
<trkpt lat="-27.2387683" lon="151.3640733">
  <ele>497.64</ele>
  <time>2026-09-01T20:01:49Z</time>
  <course>273.52</course>
  <speed>0.0</speed>
  <fix>3d</fix>
</trkpt>
<trkpt lat="-27.2387684" lon="151.3640733">
  <ele>497.94</ele>
  <time>2026-09-01T20:01:49Z</time>
  <course>335.09</course>
  <speed>0.01</speed>
  <fix>3d</fix>
</trkpt>
<trkpt lat="-27.2387683" lon="151.3640733">
  <ele>497.49</ele>
  <time>2026-09-01T20:01:49Z</time>
  <course>273.53</course>
  <speed>0.01</speed>
  <fix>3d</fix>
</trkpt>
<trkpt lat="-27.2387683" lon="151.3640733">
  <ele>497.65</ele>
  <time>2026-09-01T20:01:49Z</time>
  <course>340.27</course>
  <speed>0.01</speed>
  <fix>3d</fix>
</trkpt>
<trkpt lat="-27.2387683" lon="151.3640733">
  <ele>497.34</ele>
  <time>2026-09-01T20:01:49Z</time>
  <course>273.53</course>
  <speed>0.01</speed>
  <fix>3d</fix>
</trkpt>
<trkpt lat="-27.2387683" lon="151.3640733">
  <ele>497.65</ele>
  <time>2026-09-01T20:01:49Z</time>
  <course>340.27</course>
  <speed>0.01</speed>
  <fix>3d</fix>
</trkpt>
<trkpt lat="-27.2387683" lon="151.3640733">
  <ele>497.19</ele>
  <time>2026-09-01T20:01:49Z</time>
  <course>273.52</course>
  <speed>0.01</speed>
  <fix>3d</fix>
</trkpt>
<trkpt lat="-27.2387683" lon="151.3640733">
  <ele>497.35</ele>
  <time>2026-09-01T20:01:49Z</time>
  <course>346.47</course>
  <speed>0.01</speed>
  <fix>3d</fix>
</trkpt>
<trkpt lat="-27.2387683" lon="151.3640733">
  <ele>497.04</ele>
  <time>2026-09-01T20:01:49Z</time>
  <course>273.51</course>
  <speed>0.01</speed>
  <fix>3d</fix>
</trkpt>
<trkpt lat="-27.2387683" lon="151.3640733">
  <ele>497.35</ele>
  <time>2026-09-01T20:01:49Z</time>
  <course>346.47</course>
  <speed>0.01</speed>
  <fix>3d</fix>
</trkpt>
<trkpt lat="-27.2387683" lon="151.3640733">
  <ele>496.89</ele>
  <time>2026-09-01T20:01:49Z</time>
  <course>273.49</course>
  <speed>0.01</speed>
  <fix>3d</fix>
</trkpt>
<trkpt lat="-27.2387683" lon="151.3640733">
  <ele>497.05</ele>
  <time>2026-09-01T20:01:49Z</time>
  <course>350.77</course>
  <speed>0.01</speed>
  <fix>3d</fix>
</trkpt>
<trkpt lat="-27.2387683" lon="151.3640733">
  <ele>496.74</ele>
  <time>2026-09-01T20:01:49Z</time>
  <course>273.46</course>
  <speed>0.01</speed>
  <fix>3d</fix>
</trkpt>
<trkpt lat="-27.2387683" lon="151.3640733">
  <ele>497.05</ele>
  <time>2026-09-01T20:01:49Z</time>
  <course>350.77</course>
  <speed>0.01</speed>
  <fix>3d</fix>
</trkpt>
<trkpt lat="-27.2387683" lon="151.3640733">
  <ele>496.59</ele>
  <time>2026-09-01T20:01:49Z</time>
  <course>273.42</course>
  <speed>0.01</speed>
  <fix>3d</fix>
</trkpt>
<trkpt lat="-27.2387683" lon="151.3640733">
  <ele>496.75</ele>
  <time>2026-09-01T20:01:49Z</time>
  <course>351.09</course>
  <speed>0.01</speed>
  <fix>3d</fix>
</trkpt>
<trkpt lat="-27.2387683" lon="151.3640733">
  <ele>496.44</ele>
  <time>2026-09-01T20:01:49Z</time>
  <course>273.38</course>
  <speed>0.01</speed>
  <fix>3d</fix>
</trkpt>
<trkpt lat="-27.2387683" lon="151.3640733">
  <ele>496.75</ele>
  <time>2026-09-01T20:01:49Z</time>
  <course>351.09</course>
  <speed>0.01</speed>
  <fix>3d</fix>
</trkpt>
<trkpt lat="-27.2387682" lon="151.3640733">
  <ele>496.29</ele>
  <time>2026-09-01T20:01:49Z</time>
  <course>273.34</course>
  <speed>0.01</speed>
  <fix>3d</fix>
</trkpt>
<trkpt lat="-27.2387682" lon="151.3640733">
  <ele>496.45</ele>
  <time>2026-09-01T20:01:49Z</time>
  <course>350.02</course>
  <speed>0.01</speed>
  <fix>3d</fix>
</trkpt>
<trkpt lat="-27.2387682" lon="151.3640733">
  <ele>496.14</ele>
  <time>2026-09-01T20:01:49Z</time>
  <course>273.31</course>
  <speed>0.01</speed>
  <fix>3d</fix>
</trkpt>
<trkpt lat="-27.2387682" lon="151.3640733">
  <ele>496.45</ele>
  <time>2026-09-01T20:01:49Z</time>
  <course>350.02</course>
  <speed>0.01</speed>
  <fix>3d</fix>
</trkpt>
<trkpt lat="-27.2387682" lon="151.3640733">
  <ele>495.99</ele>
  <time>2026-09-01T20:01:49Z</time>
  <course>273.27</course>
  <speed>0.01</speed>
  <fix>3d</fix>
</trkpt>
<trkpt lat="-27.2387682" lon="151.3640733">
  <ele>496.15</ele>
  <time>2026-09-01T20:01:49Z</time>
  <course>349.96</course>
  <speed>0.01</speed>
  <fix>3d</fix>
</trkpt>
<trkpt lat="-27.2387682" lon="151.3640733">
  <ele>495.84</ele>
  <time>2026-09-01T20:01:49Z</time>
  <course>273.23</course>
  <speed>0.01</speed>
  <fix>3d</fix>
</trkpt>
<trkpt lat="-27.2387682" lon="151.3640733">
  <ele>496.15</ele>
  <time>2026-09-01T20:01:49Z</time>
  <course>349.96</course>
  <speed>0.01</speed>
  <fix>3d</fix>
</trkpt>
<trkpt lat="-27.2387682" lon="151.3640733">
  <ele>495.69</ele>
  <time>2026-09-01T20:01:49Z</time>
  <course>273.19</course>
  <speed>0.01</speed>
  <fix>3d</fix>
</trkpt>
<trkpt lat="-27.2387682" lon="151.3640733">
  <ele>495.85</ele>
  <time>2026-09-01T20:01:49Z</time>
  <course>350.29</course>
  <speed>0.01</speed>
  <fix>3d</fix>
</trkpt>
<trkpt lat="-27.2387682" lon="151.3640733">
  <ele>495.54</ele>
  <time>2026-09-01T20:01:49Z</time>
  <course>273.16</course>
  <speed>0.01</speed>
  <fix>3d</fix>
</trkpt>
<trkpt lat="-27.2387682" lon="151.3640733">
  <ele>495.85</ele>
  <time>2026-09-01T20:01:49Z</time>
  <course>350.29</course>
  <speed>0.01</speed>
  <fix>3d</fix>
</trkpt>
<trkpt lat="-27.2387681" lon="151.3640733">
  <ele>495.39</ele>
  <time>2026-09-01T20:01:49Z</time>
  <course>273.13</course>
  <speed>0.01</speed>
  <fix>3d</fix>
</trkpt>
<trkpt lat="-27.2387681" lon="151.3640733">
  <ele>495.55</ele>
  <time>2026-09-01T20:01:49Z</time>
  <course>350.61</course>
  <speed>0.01</speed>
  <fix>3d</fix>
</trkpt>
<trkpt lat="-27.2387681" lon="151.3640733">
  <ele>495.24</ele>
  <time>2026-09-01T20:01:49Z</time>
  <course>273.1</course>
  <speed>0.02</speed>
  <fix>3d</fix>
</trkpt>
<trkpt lat="-27.2387681" lon="151.3640733">
  <ele>495.55</ele>
  <time>2026-09-01T20:01:49Z</time>
  <course>350.61</course>
  <speed>0.01</speed>
  <fix>3d</fix>
</trkpt>
<trkpt lat="-27.2387681" lon="151.3640733">
  <ele>495.09</ele>
  <time>2026-09-01T20:01:49Z</time>
  <course>273.08</course>
  <speed>0.02</speed>
  <fix>3d</fix>
</trkpt>
<trkpt lat="-27.2387681" lon="151.3640733">
  <ele>495.25</ele>
  <time>2026-09-01T20:01:49Z</time>
  <course>351.15</course>
  <speed>0.02</speed>
  <fix>3d</fix>
</trkpt>
<trkpt lat="-27.2387681" lon="151.3640733">
  <ele>494.94</ele>
  <time>2026-09-01T20:01:49Z</time>
  <course>273.05</course>
  <speed>0.02</speed>
  <fix>3d</fix>
</trkpt>
<trkpt lat="-27.2387681" lon="151.3640733">
  <ele>495.25</ele>
  <time>2026-09-01T20:01:49Z</time>
  <course>351.15</course>
  <speed>0.02</speed>
  <fix>3d</fix>
</trkpt>
<trkpt lat="-27.2387681" lon="151.3640733">
  <ele>494.79</ele>
  <time>2026-09-01T20:01:49Z</time>
  <course>273.01</course>
  <speed>0.02</speed>
  <fix>3d</fix>
</trkpt>
<trkpt lat="-27.2387681" lon="151.3640733">
  <ele>494.95</ele>
  <time>2026-09-01T20:01:49Z</time>
  <course>351.87</course>
  <speed>0.02</speed>
  <fix>3d</fix>
</trkpt>
<trkpt lat="-27.238768" lon="151.3640732">
  <ele>494.64</ele>
  <time>2026-09-01T20:01:49Z</time>
  <course>272.98</course>
  <speed>0.02</speed>
  <fix>3d</fix>
</trkpt>
<trkpt lat="-27.2387681" lon="151.3640733">
  <ele>494.95</ele>
  <time>2026-09-01T20:01:49Z</time>
  <course>351.87</course>
  <speed>0.02</speed>
  <fix>3d</fix>
</trkpt>
<trkpt lat="-27.238768" lon="151.3640732">
  <ele>494.49</ele>
  <time>2026-09-01T20:01:49Z</time>
  <course>272.95</course>
  <speed>0.02</speed>
  <fix>3d</fix>
</trkpt>
<trkpt lat="-27.238768" lon="151.3640732">
  <ele>494.65</ele>
  <time>2026-09-01T20:01:49Z</time>
  <course>352.6</course>
  <speed>0.02</speed>
  <fix>3d</fix>
</trkpt>
<trkpt lat="-27.238768" lon="151.3640732">
  <ele>494.34</ele>
  <time>2026-09-01T20:01:49Z</time>
  <course>272.91</course>
  <speed>0.02</speed>
  <fix>3d</fix>
</trkpt>
<trkpt lat="-27.238768" lon="151.3640732">
  <ele>494.65</ele>
  <time>2026-09-01T20:01:49Z</time>
  <course>352.6</course>
  <speed>0.02</speed>
  <fix>3d</fix>
</trkpt>
<trkpt lat="-27.238768" lon="151.3640732">
  <ele>494.19</ele>
  <time>2026-09-01T20:01:49Z</time>
  <course>272.87</course>
  <speed>0.02</speed>
  <fix>3d</fix>
</trkpt>
<trkpt lat="-27.238768" lon="151.3640732">
  <ele>494.35</ele>
  <time>2026-09-01T20:01:49Z</time>
  <course>353.38</course>
  <speed>0.02</speed>
  <fix>3d</fix>
</trkpt>
<trkpt lat="-27.238768" lon="151.3640732">
  <ele>494.04</ele>
  <time>2026-09-01T20:01:49Z</time>
  <course>272.83</course>
  <speed>0.02</speed>
  <fix>3d</fix>
</trkpt>
<trkpt lat="-27.238768" lon="151.3640732">
  <ele>494.35</ele>
  <time>2026-09-01T20:01:49Z</time>
  <course>353.38</course>
  <speed>0.02</speed>
  <fix>3d</fix>
</trkpt>
<trkpt lat="-27.2387679" lon="151.3640732">
  <ele>493.89</ele>
  <time>2026-09-01T20:01:49Z</time>
  <course>272.79</course>
  <speed>0.02</speed>
  <fix>3d</fix>
</trkpt>
<trkpt lat="-27.2387679" lon="151.3640732">
  <ele>494.05</ele>
  <time>2026-09-01T20:01:49Z</time>
  <course>354.67</course>
  <speed>0.02</speed>
  <fix>3d</fix>
</trkpt>
<trkpt lat="-27.2387679" lon="151.3640732">
  <ele>493.74</ele>
  <time>2026-09-01T20:01:49Z</time>
  <course>272.75</course>
  <speed>0.02</speed>
  <fix>3d</fix>
</trkpt>
<trkpt lat="-27.2387679" lon="151.3640732">
  <ele>494.05</ele>
  <time>2026-09-01T20:01:49Z</time>
  <course>354.67</course>
  <speed>0.02</speed>
  <fix>3d</fix>
</trkpt>
<trkpt lat="-27.2387679" lon="151.3640732">
  <ele>493.59</ele>
  <time>2026-09-01T20:01:49Z</time>
  <course>272.7</course>
  <speed>0.03</speed>
  <fix>3d</fix>
</trkpt>
<trkpt lat="-27.2387679" lon="151.3640732">
  <ele>493.75</ele>
  <time>2026-09-01T20:01:49Z</time>
  <course>355.61</course>
  <speed>0.02</speed>
  <fix>3d</fix>
</trkpt>
<trkpt lat="-27.2387679" lon="151.3640732">
  <ele>493.44</ele>
  <time>2026-09-01T20:01:49Z</time>
  <course>272.66</course>
  <speed>0.03</speed>
  <fix>3d</fix>
</trkpt>
<trkpt lat="-27.2387679" lon="151.3640732">
  <ele>493.75</ele>
  <time>2026-09-01T20:01:49Z</time>
  <course>355.61</course>
  <speed>0.02</speed>
  <fix>3d</fix>
</trkpt>
<trkpt lat="-27.2387678" lon="151.3640732">
  <ele>493.29</ele>
  <time>2026-09-01T20:01:49Z</time>
  <course>272.62</course>
  <speed>0.03</speed>
  <fix>3d</fix>
</trkpt>
<trkpt lat="-27.2387678" lon="151.3640732">
  <ele>493.45</ele>
  <time>2026-09-01T20:01:49Z</time>
  <course>355.68</course>
  <speed>0.03</speed>
  <fix>3d</fix>
</trkpt>
<trkpt lat="-27.2387678" lon="151.3640732">
  <ele>493.14</ele>
  <time>2026-09-01T20:01:49Z</time>
  <course>272.57</course>
  <speed>0.03</speed>
  <fix>3d</fix>
</trkpt>
<trkpt lat="-27.2387678" lon="151.3640732">
  <ele>493.45</ele>
  <time>2026-09-01T20:01:49Z</time>
  <course>355.68</course>
  <speed>0.03</speed>
  <fix>3d</fix>
</trkpt>
<trkpt lat="-27.2387678" lon="151.3640732">
  <ele>492.99</ele>
  <time>2026-09-01T20:01:49Z</time>
  <course>272.52</course>
  <speed>0.03</speed>
  <fix>3d</fix>
</trkpt>
<trkpt lat="-27.2387678" lon="151.3640732">
  <ele>493.15</ele>
  <time>2026-09-01T20:01:49Z</time>
  <course>355.65</course>
  <speed>0.03</speed>
  <fix>3d</fix>
</trkpt>
<trkpt lat="-27.2387677" lon="151.3640732">
  <ele>492.84</ele>
  <time>2026-09-01T20:01:49Z</time>
  <course>272.48</course>
  <speed>0.03</speed>
  <fix>3d</fix>
</trkpt>
<trkpt lat="-27.2387678" lon="151.3640732">
  <ele>493.15</ele>
  <time>2026-09-01T20:01:49Z</time>
  <course>355.65</course>
  <speed>0.03</speed>
  <fix>3d</fix>
</trkpt>
<trkpt lat="-27.2387677" lon="151.3640732">
  <ele>492.69</ele>
  <time>2026-09-01T20:01:49Z</time>
  <course>272.43</course>
  <speed>0.03</speed>
  <fix>3d</fix>
</trkpt>
<trkpt lat="-27.2387677" lon="151.3640732">
  <ele>492.85</ele>
  <time>2026-09-01T20:01:49Z</time>
  <course>355.77</course>
  <speed>0.03</speed>
  <fix>3d</fix>
</trkpt>
<trkpt lat="-27.2387677" lon="151.3640732">
  <ele>492.54</ele>
  <time>2026-09-01T20:01:49Z</time>
  <course>272.39</course>
  <speed>0.03</speed>
  <fix>3d</fix>
</trkpt>
<trkpt lat="-27.2387677" lon="151.3640732">
  <ele>492.85</ele>
  <time>2026-09-01T20:01:49Z</time>
  <course>355.77</course>
  <speed>0.03</speed>
  <fix>3d</fix>
</trkpt>
<trkpt lat="-27.2387676" lon="151.3640732">
  <ele>492.39</ele>
  <time>2026-09-01T20:01:49Z</time>
  <course>272.34</course>
  <speed>0.03</speed>
  <fix>3d</fix>
</trkpt>
<trkpt lat="-27.2387676" lon="151.3640732">
  <ele>492.55</ele>
  <time>2026-09-01T20:01:49Z</time>
  <course>355.67</course>
  <speed>0.03</speed>
  <fix>3d</fix>
</trkpt>
<trkpt lat="-27.2387676" lon="151.3640732">
  <ele>492.24</ele>
  <time>2026-09-01T20:01:49Z</time>
  <course>272.28</course>
  <speed>0.03</speed>
  <fix>3d</fix>
</trkpt>
<trkpt lat="-27.2387676" lon="151.3640732">
  <ele>492.55</ele>
  <time>2026-09-01T20:01:49Z</time>
  <course>355.67</course>
  <speed>0.03</speed>
  <fix>3d</fix>
</trkpt>
<trkpt lat="-27.2387676" lon="151.3640732">
  <ele>492.09</ele>
  <time>2026-09-01T20:01:49Z</time>
  <course>272.23</course>
  <speed>0.04</speed>
  <fix>3d</fix>
</trkpt>
<trkpt lat="-27.2387676" lon="151.3640732">
  <ele>492.25</ele>
  <time>2026-09-01T20:01:49Z</time>
  <course>355.38</course>
  <speed>0.03</speed>
  <fix>3d</fix>
</trkpt>
<trkpt lat="-27.2387675" lon="151.3640732">
  <ele>491.94</ele>
  <time>2026-09-01T20:01:49Z</time>
  <course>272.17</course>
  <speed>0.04</speed>
  <fix>3d</fix>
</trkpt>
<trkpt lat="-27.2387676" lon="151.3640732">
  <ele>492.25</ele>
  <time>2026-09-01T20:01:49Z</time>
  <course>355.38</course>
  <speed>0.03</speed>
  <fix>3d</fix>
</trkpt>
<trkpt lat="-27.2387675" lon="151.3640732">
  <ele>491.79</ele>
  <time>2026-09-01T20:01:49Z</time>
  <course>272.12</course>
  <speed>0.04</speed>
  <fix>3d</fix>
</trkpt>
<trkpt lat="-27.2387675" lon="151.3640732">
  <ele>491.95</ele>
  <time>2026-09-01T20:01:49Z</time>
  <course>355.02</course>
  <speed>0.04</speed>
  <fix>3d</fix>
</trkpt>
<trkpt lat="-27.2387674" lon="151.3640732">
  <ele>491.64</ele>
  <time>2026-09-01T20:01:49Z</time>
  <course>272.06</course>
  <speed>0.04</speed>
  <fix>3d</fix>
</trkpt>
<trkpt lat="-27.2387675" lon="151.3640732">
  <ele>491.95</ele>
  <time>2026-09-01T20:01:49Z</time>
  <course>355.02</course>
  <speed>0.04</speed>
  <fix>3d</fix>
</trkpt>
<trkpt lat="-27.2387674" lon="151.3640732">
  <ele>491.49</ele>
  <time>2026-09-01T20:01:49Z</time>
  <course>272.0</course>
  <speed>0.04</speed>
  <fix>3d</fix>
</trkpt>
<trkpt lat="-27.2387674" lon="151.3640732">
  <ele>491.65</ele>
  <time>2026-09-01T20:01:49Z</time>
  <course>354.68</course>
  <speed>0.04</speed>
  <fix>3d</fix>
</trkpt>
<trkpt lat="-27.2387674" lon="151.3640732">
  <ele>491.34</ele>
  <time>2026-09-01T20:01:49Z</time>
  <course>271.93</course>
  <speed>0.04</speed>
  <fix>3d</fix>
</trkpt>
<trkpt lat="-27.2387674" lon="151.3640732">
  <ele>491.65</ele>
  <time>2026-09-01T20:01:49Z</time>
  <course>354.68</course>
  <speed>0.04</speed>
  <fix>3d</fix>
</trkpt>
<trkpt lat="-27.2387673" lon="151.3640732">
  <ele>491.19</ele>
  <time>2026-09-01T20:01:49Z</time>
  <course>271.86</course>
  <speed>0.04</speed>
  <fix>3d</fix>
</trkpt>
<trkpt lat="-27.2387673" lon="151.3640732">
  <ele>491.35</ele>
  <time>2026-09-01T20:01:49Z</time>
  <course>354.33</course>
  <speed>0.04</speed>
  <fix>3d</fix>
</trkpt>
<trkpt lat="-27.2387673" lon="151.3640732">
  <ele>491.04</ele>
  <time>2026-09-01T20:01:49Z</time>
  <course>271.79</course>
  <speed>0.04</speed>
  <fix>3d</fix>
</trkpt>
<trkpt lat="-27.2387673" lon="151.3640732">
  <ele>491.35</ele>
  <time>2026-09-01T20:01:49Z</time>
  <course>354.33</course>
  <speed>0.04</speed>
  <fix>3d</fix>
</trkpt>
<trkpt lat="-27.2387672" lon="151.3640732">
  <ele>490.89</ele>
  <time>2026-09-01T20:01:49Z</time>
  <course>271.72</course>
  <speed>0.05</speed>
  <fix>3d</fix>
</trkpt>
<trkpt lat="-27.2387672" lon="151.3640732">
  <ele>491.05</ele>
  <time>2026-09-01T20:01:49Z</time>
  <course>353.79</course>
  <speed>0.04</speed>
  <fix>3d</fix>
</trkpt>
<trkpt lat="-27.2387672" lon="151.3640732">
  <ele>490.74</ele>
  <time>2026-09-01T20:01:49Z</time>
  <course>271.65</course>
  <speed>0.04</speed>
  <fix>3d</fix>
</trkpt>
<trkpt lat="-27.2387672" lon="151.3640732">
  <ele>491.05</ele>
  <time>2026-09-01T20:01:49Z</time>
  <course>353.79</course>
  <speed>0.04</speed>
  <fix>3d</fix>
</trkpt>
<trkpt lat="-27.2387672" lon="151.3640732">
  <ele>490.59</ele>
  <time>2026-09-01T20:01:49Z</time>
  <course>271.7</course>
  <speed>0.03</speed>
  <fix>3d</fix>
</trkpt>
<trkpt lat="-27.2387672" lon="151.3640732">
  <ele>490.75</ele>
  <time>2026-09-01T20:01:49Z</time>
  <course>351.61</course>
  <speed>0.04</speed>
  <fix>3d</fix>
</trkpt>
<trkpt lat="-27.2387671" lon="151.364073">
  <ele>490.44</ele>
  <time>2026-09-01T20:01:49Z</time>
  <course>271.94</course>
  <speed>0.02</speed>
  <fix>3d</fix>
</trkpt>
<trkpt lat="-27.2387672" lon="151.3640732">
  <ele>490.75</ele>
  <time>2026-09-01T20:01:49Z</time>
  <course>351.61</course>
  <speed>0.04</speed>
  <fix>3d</fix>
</trkpt>
<trkpt lat="-27.2387671" lon="151.364073">
  <ele>490.29</ele>
  <time>2026-09-01T20:01:49Z</time>
  <course>272.3</course>
  <speed>0.0</speed>
  <fix>3d</fix>
</trkpt>
<trkpt lat="-27.2387671" lon="151.3640731">
  <ele>490.45</ele>
  <time>2026-09-01T20:01:49Z</time>
  <course>340.83</course>
  <speed>0.02</speed>
  <fix>3d</fix>
</trkpt>
<trkpt lat="-27.2387671" lon="151.364073">
  <ele>490.14</ele>
  <time>2026-09-01T20:01:49Z</time>
  <course>272.71</course>
  <speed>0.0</speed>
  <fix>3d</fix>
</trkpt>
<trkpt lat="-27.2387671" lon="151.3640731">
  <ele>490.45</ele>
  <time>2026-09-01T20:01:49Z</time>
  <course>340.83</course>
  <speed>0.02</speed>
  <fix>3d</fix>
</trkpt>
<trkpt lat="-27.2387671" lon="151.364073">
  <ele>489.99</ele>
  <time>2026-09-01T20:01:49Z</time>
  <course>273.09</course>
  <speed>0.02</speed>
  <fix>3d</fix>
</trkpt>
<trkpt lat="-27.2387671" lon="151.364073">
  <ele>490.15</ele>
  <time>2026-09-01T20:01:49Z</time>
  <course>226.57</course>
  <speed>0.01</speed>
  <fix>3d</fix>
</trkpt>
<trkpt lat="-27.2387672" lon="151.364073">
  <ele>489.84</ele>
  <time>2026-09-01T20:01:49Z</time>
  <course>273.39</course>
  <speed>0.03</speed>
  <fix>3d</fix>
</trkpt>
<trkpt lat="-27.2387671" lon="151.364073">
  <ele>490.15</ele>
  <time>2026-09-01T20:01:49Z</time>
  <course>226.57</course>
  <speed>0.01</speed>
  <fix>3d</fix>
</trkpt>
<trkpt lat="-27.2387672" lon="151.364073">
  <ele>489.69</ele>
  <time>2026-09-01T20:01:49Z</time>
  <course>273.59</course>
  <speed>0.04</speed>
  <fix>3d</fix>
</trkpt>
<trkpt lat="-27.2387671" lon="151.364073">
  <ele>489.85</ele>
  <time>2026-09-01T20:01:49Z</time>
  <course>191.3</course>
  <speed>0.03</speed>
  <fix>3d</fix>
</trkpt>
<trkpt lat="-27.2387672" lon="151.364073">
  <ele>489.54</ele>
  <time>2026-09-01T20:01:49Z</time>
  <course>273.68</course>
  <speed>0.06</speed>
  <fix>3d</fix>
</trkpt>
<trkpt lat="-27.2387671" lon="151.364073">
  <ele>489.85</ele>
  <time>2026-09-01T20:01:49Z</time>
  <course>191.3</course>
  <speed>0.03</speed>
  <fix>3d</fix>
</trkpt>
<trkpt lat="-27.2387672" lon="151.364073">
  <ele>489.39</ele>
  <time>2026-09-01T20:01:49Z</time>
  <course>273.69</course>
  <speed>0.07</speed>
  <fix>3d</fix>
</trkpt>
<trkpt lat="-27.2387672" lon="151.364073">
  <ele>489.55</ele>
  <time>2026-09-01T20:01:49Z</time>
  <course>185.15</course>
  <speed>0.05</speed>
  <fix>3d</fix>
</trkpt>
<trkpt lat="-27.2387673" lon="151.364073">
  <ele>489.24</ele>
  <time>2026-09-01T20:01:49Z</time>
  <course>273.63</course>
  <speed>0.08</speed>
  <fix>3d</fix>
</trkpt>
<trkpt lat="-27.2387672" lon="151.364073">
  <ele>489.55</ele>
  <time>2026-09-01T20:01:49Z</time>
  <course>185.15</course>
  <speed>0.05</speed>
  <fix>3d</fix>
</trkpt>
<trkpt lat="-27.2387673" lon="151.364073">
  <ele>489.09</ele>
  <time>2026-09-01T20:01:49Z</time>
  <course>273.54</course>
  <speed>0.09</speed>
  <fix>3d</fix>
</trkpt>
<trkpt lat="-27.2387672" lon="151.364073">
  <ele>489.25</ele>
  <time>2026-09-01T20:01:49Z</time>
  <course>182.44</course>
  <speed>0.08</speed>
  <fix>3d</fix>
</trkpt>
<trkpt lat="-27.2387674" lon="151.364073">
  <ele>488.94</ele>
  <time>2026-09-01T20:01:49Z</time>
  <course>273.44</course>
  <speed>0.1</speed>
  <fix>3d</fix>
</trkpt>
<trkpt lat="-27.2387672" lon="151.364073">
  <ele>489.25</ele>
  <time>2026-09-01T20:01:49Z</time>
  <course>182.44</course>
  <speed>0.08</speed>
  <fix>3d</fix>
</trkpt>
<trkpt lat="-27.2387675" lon="151.364073">
  <ele>488.79</ele>
  <time>2026-09-01T20:01:49Z</time>
  <course>273.36</course>
  <speed>0.1</speed>
  <fix>3d</fix>
</trkpt>
<trkpt lat="-27.2387674" lon="151.364073">
  <ele>488.95</ele>
  <time>2026-09-01T20:01:49Z</time>
  <course>181.0</course>
  <speed>0.09</speed>
  <fix>3d</fix>
</trkpt>
<trkpt lat="-27.2387676" lon="151.364073">
  <ele>488.64</ele>
  <time>2026-09-01T20:01:49Z</time>
  <course>273.3</course>
  <speed>0.11</speed>
  <fix>3d</fix>
</trkpt>
<trkpt lat="-27.2387674" lon="151.364073">
  <ele>488.95</ele>
  <time>2026-09-01T20:01:49Z</time>
  <course>181.0</course>
  <speed>0.09</speed>
  <fix>3d</fix>
</trkpt>
<trkpt lat="-27.2387677" lon="151.364073">
  <ele>488.49</ele>
  <time>2026-09-01T20:01:49Z</time>
  <course>273.26</course>
  <speed>0.12</speed>
  <fix>3d</fix>
</trkpt>
<trkpt lat="-27.2387676" lon="151.364073">
  <ele>488.65</ele>
  <time>2026-09-01T20:01:49Z</time>
  <course>180.09</course>
  <speed>0.11</speed>
  <fix>3d</fix>
</trkpt>
<trkpt lat="-27.2387678" lon="151.364073">
  <ele>488.34</ele>
  <time>2026-09-01T20:01:49Z</time>
  <course>273.26</course>
  <speed>0.12</speed>
  <fix>3d</fix>
</trkpt>
<trkpt lat="-27.2387676" lon="151.364073">
  <ele>488.65</ele>
  <time>2026-09-01T20:01:49Z</time>
  <course>180.09</course>
  <speed>0.11</speed>
  <fix>3d</fix>
</trkpt>
<trkpt lat="-27.238768" lon="151.364073">
  <ele>488.19</ele>
  <time>2026-09-01T20:01:49Z</time>
  <course>273.27</course>
  <speed>0.13</speed>
  <fix>3d</fix>
</trkpt>
<trkpt lat="-27.2387678" lon="151.364073">
  <ele>488.35</ele>
  <time>2026-09-01T20:01:49Z</time>
  <course>179.43</course>
  <speed>0.12</speed>
  <fix>3d</fix>
</trkpt>
<trkpt lat="-27.2387681" lon="151.364073">
  <ele>488.04</ele>
  <time>2026-09-01T20:01:49Z</time>
  <course>273.31</course>
  <speed>0.13</speed>
  <fix>3d</fix>
</trkpt>
<trkpt lat="-27.2387678" lon="151.364073">
  <ele>488.35</ele>
  <time>2026-09-01T20:01:49Z</time>
  <course>179.43</course>
  <speed>0.12</speed>
  <fix>3d</fix>
</trkpt>
<trkpt lat="-27.2387682" lon="151.364073">
  <ele>487.89</ele>
  <time>2026-09-01T20:01:49Z</time>
  <course>273.35</course>
  <speed>0.14</speed>
  <fix>3d</fix>
</trkpt>
<trkpt lat="-27.2387681" lon="151.364073">
  <ele>488.05</ele>
  <time>2026-09-01T20:01:49Z</time>
  <course>179.03</course>
  <speed>0.13</speed>
  <fix>3d</fix>
</trkpt>
<trkpt lat="-27.2387683" lon="151.364073">
  <ele>487.74</ele>
  <time>2026-09-01T20:01:50Z</time>
  <course>273.38</course>
  <speed>0.14</speed>
  <fix>3d</fix>
</trkpt>
<trkpt lat="-27.2387681" lon="151.364073">
  <ele>488.05</ele>
  <time>2026-09-01T20:01:50Z</time>
  <course>179.03</course>
  <speed>0.13</speed>
  <fix>3d</fix>
</trkpt>
<trkpt lat="-27.2387685" lon="151.364073">
  <ele>487.59</ele>
  <time>2026-09-01T20:01:50Z</time>
  <course>273.42</course>
  <speed>0.14</speed>
  <fix>3d</fix>
</trkpt>
<trkpt lat="-27.2387683" lon="151.364073">
  <ele>487.75</ele>
  <time>2026-09-01T20:01:50Z</time>
  <course>178.67</course>
  <speed>0.14</speed>
  <fix>3d</fix>
</trkpt>
<trkpt lat="-27.2387686" lon="151.364073">
  <ele>487.44</ele>
  <time>2026-09-01T20:01:50Z</time>
  <course>273.44</course>
  <speed>0.14</speed>
  <fix>3d</fix>
</trkpt>
<trkpt lat="-27.2387683" lon="151.364073">
  <ele>487.75</ele>
  <time>2026-09-01T20:01:50Z</time>
  <course>178.67</course>
  <speed>0.14</speed>
  <fix>3d</fix>
</trkpt>
<trkpt lat="-27.2387687" lon="151.364073">
  <ele>487.29</ele>
  <time>2026-09-01T20:01:50Z</time>
  <course>273.46</course>
  <speed>0.14</speed>
  <fix>3d</fix>
</trkpt>
<trkpt lat="-27.2387686" lon="151.364073">
  <ele>487.45</ele>
  <time>2026-09-01T20:01:50Z</time>
  <course>178.18</course>
  <speed>0.14</speed>
  <fix>3d</fix>
</trkpt>
<trkpt lat="-27.2387689" lon="151.364073">
  <ele>487.14</ele>
  <time>2026-09-01T20:01:50Z</time>
  <course>273.47</course>
  <speed>0.14</speed>
  <fix>3d</fix>
</trkpt>
<trkpt lat="-27.2387686" lon="151.364073">
  <ele>487.45</ele>
  <time>2026-09-01T20:01:50Z</time>
  <course>178.18</course>
  <speed>0.14</speed>
  <fix>3d</fix>
</trkpt>
<trkpt lat="-27.238769" lon="151.364073">
  <ele>486.99</ele>
  <time>2026-09-01T20:01:50Z</time>
  <course>273.48</course>
  <speed>0.14</speed>
  <fix>3d</fix>
</trkpt>
<trkpt lat="-27.2387688" lon="151.364073">
  <ele>487.15</ele>
  <time>2026-09-01T20:01:50Z</time>
  <course>177.58</course>
  <speed>0.14</speed>
  <fix>3d</fix>
</trkpt>
<trkpt lat="-27.2387691" lon="151.364073">
  <ele>486.84</ele>
  <time>2026-09-01T20:01:50Z</time>
  <course>273.48</course>
  <speed>0.13</speed>
  <fix>3d</fix>
</trkpt>
<trkpt lat="-27.2387688" lon="151.364073">
  <ele>487.15</ele>
  <time>2026-09-01T20:01:50Z</time>
  <course>177.58</course>
  <speed>0.14</speed>
  <fix>3d</fix>
</trkpt>
<trkpt lat="-27.2387692" lon="151.364073">
  <ele>486.69</ele>
  <time>2026-09-01T20:01:50Z</time>
  <course>273.48</course>
  <speed>0.13</speed>
  <fix>3d</fix>
</trkpt>
<trkpt lat="-27.2387691" lon="151.364073">
  <ele>486.85</ele>
  <time>2026-09-01T20:01:50Z</time>
  <course>176.9</course>
  <speed>0.13</speed>
  <fix>3d</fix>
</trkpt>
<trkpt lat="-27.2387694" lon="151.364073">
  <ele>486.54</ele>
  <time>2026-09-01T20:01:50Z</time>
  <course>273.49</course>
  <speed>0.13</speed>
  <fix>3d</fix>
</trkpt>
<trkpt lat="-27.2387691" lon="151.364073">
  <ele>486.85</ele>
  <time>2026-09-01T20:01:50Z</time>
  <course>176.9</course>
  <speed>0.13</speed>
  <fix>3d</fix>
</trkpt>
<trkpt lat="-27.2387695" lon="151.364073">
  <ele>486.39</ele>
  <time>2026-09-01T20:01:50Z</time>
  <course>273.49</course>
  <speed>0.12</speed>
  <fix>3d</fix>
</trkpt>
<trkpt lat="-27.2387693" lon="151.364073">
  <ele>486.55</ele>
  <time>2026-09-01T20:01:50Z</time>
  <course>176.25</course>
  <speed>0.13</speed>
  <fix>3d</fix>
</trkpt>
<trkpt lat="-27.2387696" lon="151.364073">
  <ele>486.24</ele>
  <time>2026-09-01T20:01:50Z</time>
  <course>273.5</course>
  <speed>0.12</speed>
  <fix>3d</fix>
</trkpt>
<trkpt lat="-27.2387693" lon="151.364073">
  <ele>486.55</ele>
  <time>2026-09-01T20:01:50Z</time>
  <course>176.25</course>
  <speed>0.13</speed>
  <fix>3d</fix>
</trkpt>
<trkpt lat="-27.2387697" lon="151.364073">
  <ele>486.09</ele>
  <time>2026-09-01T20:01:50Z</time>
  <course>273.5</course>
  <speed>0.11</speed>
  <fix>3d</fix>
</trkpt>
<trkpt lat="-27.2387696" lon="151.364073">
  <ele>486.25</ele>
  <time>2026-09-01T20:01:50Z</time>
  <course>175.65</course>
  <speed>0.12</speed>
  <fix>3d</fix>
</trkpt>
<trkpt lat="-27.2387698" lon="151.364073">
  <ele>485.94</ele>
  <time>2026-09-01T20:01:50Z</time>
  <course>273.51</course>
  <speed>0.11045361017187261</speed>
  <fix>3d</fix>
</trkpt>
<trkpt lat="-27.2387696" lon="151.364073">
  <ele>486.25</ele>
  <time>2026-09-01T20:01:50Z</time>
  <course>175.65</course>
  <speed>0.12</speed>
  <fix>3d</fix>
</trkpt>
<trkpt lat="-27.2387699" lon="151.364073">
  <ele>485.79</ele>
  <time>2026-09-01T20:01:50Z</time>
  <course>273.51</course>
  <speed>0.1004987562112089</speed>
  <fix>3d</fix>
</trkpt>
<trkpt lat="-27.2387698" lon="151.364073">
  <ele>485.95</ele>
  <time>2026-09-01T20:01:50Z</time>
  <course>174.83</course>
  <speed>0.11</speed>
  <fix>3d</fix>
</trkpt>
<trkpt lat="-27.23877" lon="151.364073">
  <ele>485.64</ele>
  <time>2026-09-01T20:01:50Z</time>
  <course>273.51</course>
  <speed>0.09055385138137417</speed>
  <fix>3d</fix>
</trkpt>
<trkpt lat="-27.2387698" lon="151.364073">
  <ele>485.95</ele>
  <time>2026-09-01T20:01:50Z</time>
  <course>174.83</course>
  <speed>0.11</speed>
  <fix>3d</fix>
</trkpt>
<trkpt lat="-27.2387701" lon="151.364073">
  <ele>485.49</ele>
  <time>2026-09-01T20:01:50Z</time>
  <course>273.52</course>
  <speed>0.08062257748298549</speed>
  <fix>3d</fix>
</trkpt>
<trkpt lat="-27.23877" lon="151.364073">
  <ele>485.65</ele>
  <time>2026-09-01T20:01:50Z</time>
  <course>173.63</course>
  <speed>0.09</speed>
  <fix>3d</fix>
</trkpt>
<trkpt lat="-27.2387702" lon="151.364073">
  <ele>485.34</ele>
  <time>2026-09-01T20:01:50Z</time>
  <course>273.52</course>
  <speed>0.08062257748298549</speed>
  <fix>3d</fix>
</trkpt>
<trkpt lat="-27.23877" lon="151.364073">
  <ele>485.65</ele>
  <time>2026-09-01T20:01:50Z</time>
  <course>173.63</course>
  <speed>0.09</speed>
  <fix>3d</fix>
</trkpt>
<trkpt lat="-27.2387702" lon="151.364073">
  <ele>485.19</ele>
  <time>2026-09-01T20:01:50Z</time>
  <course>273.52</course>
  <speed>0.07071067811865475</speed>
  <fix>3d</fix>
</trkpt>
<trkpt lat="-27.2387701" lon="151.364073">
  <ele>485.35</ele>
  <time>2026-09-01T20:01:50Z</time>
  <course>172.15</course>
  <speed>0.08</speed>
  <fix>3d</fix>
</trkpt>
<trkpt lat="-27.2387703" lon="151.364073">
  <ele>485.04</ele>
  <time>2026-09-01T20:01:50Z</time>
  <course>273.52</course>
  <speed>0.06082762530298219</speed>
  <fix>3d</fix>
</trkpt>
<trkpt lat="-27.2387701" lon="151.364073">
  <ele>485.35</ele>
  <time>2026-09-01T20:01:50Z</time>
  <course>172.15</course>
  <speed>0.08</speed>
  <fix>3d</fix>
</trkpt>
<trkpt lat="-27.2387703" lon="151.3640732">
  <ele>484.89</ele>
  <time>2026-09-01T20:01:50Z</time>
  <course>273.52</course>
  <speed>0.05099019513592785</speed>
  <fix>3d</fix>
</trkpt>
<trkpt lat="-27.2387702" lon="151.3640731">
  <ele>485.05</ele>
  <time>2026-09-01T20:01:50Z</time>
  <course>169.97</course>
  <speed>0.06</speed>
  <fix>3d</fix>
</trkpt>
<trkpt lat="-27.2387704" lon="151.3640732">
  <ele>484.74</ele>
  <time>2026-09-01T20:01:50Z</time>
  <course>273.52</course>
  <speed>0.0412310562561766</speed>
  <fix>3d</fix>
</trkpt>
<trkpt lat="-27.2387702" lon="151.3640731">
  <ele>485.05</ele>
  <time>2026-09-01T20:01:50Z</time>
  <course>169.97</course>
  <speed>0.06</speed>
  <fix>3d</fix>
</trkpt>
<trkpt lat="-27.2387704" lon="151.3640732">
  <ele>484.59</ele>
  <time>2026-09-01T20:01:50Z</time>
  <course>273.51</course>
  <speed>0.0316227766016838</speed>
  <fix>3d</fix>
</trkpt>
<trkpt lat="-27.2387703" lon="151.3640732">
  <ele>484.75</ele>
  <time>2026-09-01T20:01:50Z</time>
  <course>166.0</course>
  <speed>0.04</speed>
  <fix>3d</fix>
</trkpt>
<trkpt lat="-27.2387704" lon="151.3640732">
  <ele>484.44</ele>
  <time>2026-09-01T20:01:50Z</time>
  <course>273.49</course>
  <speed>0.022360679774997897</speed>
  <fix>3d</fix>
</trkpt>
<trkpt lat="-27.2387703" lon="151.3640732">
  <ele>484.75</ele>
  <time>2026-09-01T20:01:50Z</time>
  <course>166.0</course>
  <speed>0.04</speed>
  <fix>3d</fix>
</trkpt>
<trkpt lat="-27.2387705" lon="151.3640732">
  <ele>484.29</ele>
  <time>2026-09-01T20:01:50Z</time>
  <course>273.45</course>
  <speed>0.01414213562373095</speed>
  <fix>3d</fix>
</trkpt>
<trkpt lat="-27.2387704" lon="151.3640732">
  <ele>484.45</ele>
  <time>2026-09-01T20:01:50Z</time>
  <course>156.83</course>
  <speed>0.02</speed>
  <fix>3d</fix>
</trkpt>
<trkpt lat="-27.2387705" lon="151.3640732">
  <ele>484.14</ele>
  <time>2026-09-01T20:01:50Z</time>
  <course>273.4</course>
  <speed>0.01</speed>
  <fix>3d</fix>
</trkpt>
<trkpt lat="-27.2387704" lon="151.3640732">
  <ele>484.45</ele>
  <time>2026-09-01T20:01:50Z</time>
  <course>156.83</course>
  <speed>0.02</speed>
  <fix>3d</fix>
</trkpt>
<trkpt lat="-27.2387705" lon="151.3640732">
  <ele>483.99</ele>
  <time>2026-09-01T20:01:50Z</time>
  <course>273.32</course>
  <speed>0.01</speed>
  <fix>3d</fix>
</trkpt>
<trkpt lat="-27.2387705" lon="151.3640732">
  <ele>484.15</ele>
  <time>2026-09-01T20:01:50Z</time>
  <course>108.6</course>
  <speed>0.01</speed>
  <fix>3d</fix>
</trkpt>
<trkpt lat="-27.2387705" lon="151.3640732">
  <ele>483.84</ele>
  <time>2026-09-01T20:01:50Z</time>
  <course>273.18</course>
  <speed>0.022360679774997897</speed>
  <fix>3d</fix>
</trkpt>
<trkpt lat="-27.2387705" lon="151.3640732">
  <ele>484.15</ele>
  <time>2026-09-01T20:01:50Z</time>
  <course>108.6</course>
  <speed>0.01</speed>
  <fix>3d</fix>
</trkpt>
<trkpt lat="-27.2387704" lon="151.3640733">
  <ele>483.69</ele>
  <time>2026-09-01T20:01:50Z</time>
  <course>273.13</course>
  <speed>0.022360679774997897</speed>
  <fix>3d</fix>
</trkpt>
<trkpt lat="-27.2387704" lon="151.3640732">
  <ele>483.85</ele>
  <time>2026-09-01T20:01:50Z</time>
  <course>32.29</course>
  <speed>0.02</speed>
  <fix>3d</fix>
</trkpt>
<trkpt lat="-27.2387704" lon="151.3640733">
  <ele>483.54</ele>
  <time>2026-09-01T20:01:50Z</time>
  <course>273.24</course>
  <speed>0.02</speed>
  <fix>3d</fix>
</trkpt>
<trkpt lat="-27.2387704" lon="151.3640732">
  <ele>483.85</ele>
  <time>2026-09-01T20:01:50Z</time>
  <course>32.29</course>
  <speed>0.02</speed>
  <fix>3d</fix>
</trkpt>
<trkpt lat="-27.2387704" lon="151.3640733">
  <ele>483.39</ele>
  <time>2026-09-01T20:01:50Z</time>
  <course>273.45</course>
  <speed>0.02</speed>
  <fix>3d</fix>
</trkpt>
<trkpt lat="-27.2387704" lon="151.3640733">
  <ele>483.55</ele>
  <time>2026-09-01T20:01:50Z</time>
  <course>19.9</course>
  <speed>0.02</speed>
  <fix>3d</fix>
</trkpt>
<trkpt lat="-27.2387704" lon="151.3640733">
  <ele>483.24</ele>
  <time>2026-09-01T20:01:50Z</time>
  <course>273.71</course>
  <speed>0.02</speed>
  <fix>3d</fix>
</trkpt>
<trkpt lat="-27.2387704" lon="151.3640733">
  <ele>483.55</ele>
  <time>2026-09-01T20:01:50Z</time>
  <course>19.9</course>
  <speed>0.02</speed>
  <fix>3d</fix>
</trkpt>
<trkpt lat="-27.2387704" lon="151.3640733">
  <ele>483.09</ele>
  <time>2026-09-01T20:01:50Z</time>
  <course>273.97</course>
  <speed>0.02</speed>
  <fix>3d</fix>
</trkpt>
<trkpt lat="-27.2387704" lon="151.3640733">
  <ele>483.25</ele>
  <time>2026-09-01T20:01:50Z</time>
  <course>15.77</course>
  <speed>0.02</speed>
  <fix>3d</fix>
</trkpt>
<trkpt lat="-27.2387704" lon="151.3640733">
  <ele>482.94</ele>
  <time>2026-09-01T20:01:50Z</time>
  <course>274.2</course>
  <speed>0.02</speed>
  <fix>3d</fix>
</trkpt>
<trkpt lat="-27.2387704" lon="151.3640733">
  <ele>483.25</ele>
  <time>2026-09-01T20:01:50Z</time>
  <course>15.77</course>
  <speed>0.02</speed>
  <fix>3d</fix>
</trkpt>
<trkpt lat="-27.2387704" lon="151.3640733">
  <ele>482.79</ele>
  <time>2026-09-01T20:01:50Z</time>
  <course>274.37</course>
  <speed>0.02</speed>
  <fix>3d</fix>
</trkpt>
<trkpt lat="-27.2387704" lon="151.3640733">
  <ele>482.95</ele>
  <time>2026-09-01T20:01:50Z</time>
  <course>13.02</course>
  <speed>0.02</speed>
  <fix>3d</fix>
</trkpt>
<trkpt lat="-27.2387704" lon="151.3640733">
  <ele>482.64</ele>
  <time>2026-09-01T20:01:50Z</time>
  <course>274.48</course>
  <speed>0.02</speed>
  <fix>3d</fix>
</trkpt>
<trkpt lat="-27.2387704" lon="151.3640733">
  <ele>482.95</ele>
  <time>2026-09-01T20:01:50Z</time>
  <course>13.02</course>
  <speed>0.02</speed>
  <fix>3d</fix>
</trkpt>
<trkpt lat="-27.2387703" lon="151.3640733">
  <ele>482.49</ele>
  <time>2026-09-01T20:01:50Z</time>
  <course>274.54</course>
  <speed>0.02</speed>
  <fix>3d</fix>
</trkpt>
<trkpt lat="-27.2387703" lon="151.3640733">
  <ele>482.65</ele>
  <time>2026-09-01T20:01:50Z</time>
  <course>11.43</course>
  <speed>0.02</speed>
  <fix>3d</fix>
</trkpt>
<trkpt lat="-27.2387703" lon="151.3640733">
  <ele>482.34</ele>
  <time>2026-09-01T20:01:50Z</time>
  <course>274.54</course>
  <speed>0.02</speed>
  <fix>3d</fix>
</trkpt>
<trkpt lat="-27.2387703" lon="151.3640733">
  <ele>482.65</ele>
  <time>2026-09-01T20:01:50Z</time>
  <course>11.43</course>
  <speed>0.02</speed>
  <fix>3d</fix>
</trkpt>
<trkpt lat="-27.2387703" lon="151.3640733">
  <ele>482.19</ele>
  <time>2026-09-01T20:01:50Z</time>
  <course>274.51</course>
  <speed>0.02</speed>
  <fix>3d</fix>
</trkpt>
<trkpt lat="-27.2387703" lon="151.3640733">
  <ele>482.35</ele>
  <time>2026-09-01T20:01:50Z</time>
  <course>10.29</course>
  <speed>0.02</speed>
  <fix>3d</fix>
</trkpt>
<trkpt lat="-27.2387703" lon="151.3640733">
  <ele>482.04</ele>
  <time>2026-09-01T20:01:50Z</time>
  <course>274.45</course>
  <speed>0.02</speed>
  <fix>3d</fix>
</trkpt>
<trkpt lat="-27.2387703" lon="151.3640733">
  <ele>482.35</ele>
  <time>2026-09-01T20:01:50Z</time>
  <course>10.29</course>
  <speed>0.02</speed>
  <fix>3d</fix>
</trkpt>
<trkpt lat="-27.2387702" lon="151.3640733">
  <ele>481.89</ele>
  <time>2026-09-01T20:01:50Z</time>
  <course>274.39</course>
  <speed>0.02</speed>
  <fix>3d</fix>
</trkpt>
<trkpt lat="-27.2387702" lon="151.3640733">
  <ele>482.05</ele>
  <time>2026-09-01T20:01:50Z</time>
  <course>9.37</course>
  <speed>0.02</speed>
  <fix>3d</fix>
</trkpt>
<trkpt lat="-27.2387702" lon="151.3640733">
  <ele>481.74</ele>
  <time>2026-09-01T20:01:50Z</time>
  <course>274.34</course>
  <speed>0.02</speed>
  <fix>3d</fix>
</trkpt>
<trkpt lat="-27.2387702" lon="151.3640733">
  <ele>482.05</ele>
  <time>2026-09-01T20:01:50Z</time>
  <course>9.37</course>
  <speed>0.02</speed>
  <fix>3d</fix>
</trkpt>
<trkpt lat="-27.2387702" lon="151.3640733">
  <ele>481.59</ele>
  <time>2026-09-01T20:01:50Z</time>
  <course>274.29</course>
  <speed>0.02</speed>
  <fix>3d</fix>
</trkpt>
<trkpt lat="-27.2387702" lon="151.3640733">
  <ele>481.75</ele>
  <time>2026-09-01T20:01:50Z</time>
  <course>8.72</course>
  <speed>0.02</speed>
  <fix>3d</fix>
</trkpt>
<trkpt lat="-27.2387702" lon="151.3640733">
  <ele>481.44</ele>
  <time>2026-09-01T20:01:50Z</time>
  <course>274.25</course>
  <speed>0.02</speed>
  <fix>3d</fix>
</trkpt>
<trkpt lat="-27.2387702" lon="151.3640733">
  <ele>481.75</ele>
  <time>2026-09-01T20:01:50Z</time>
  <course>8.72</course>
  <speed>0.02</speed>
  <fix>3d</fix>
</trkpt>
<trkpt lat="-27.2387701" lon="151.3640733">
  <ele>481.29</ele>
  <time>2026-09-01T20:01:50Z</time>
  <course>274.22</course>
  <speed>0.02</speed>
  <fix>3d</fix>
</trkpt>
<trkpt lat="-27.2387701" lon="151.3640733">
  <ele>481.45</ele>
  <time>2026-09-01T20:01:50Z</time>
  <course>7.88</course>
  <speed>0.02</speed>
  <fix>3d</fix>
</trkpt>
<trkpt lat="-27.2387701" lon="151.3640733">
  <ele>481.14</ele>
  <time>2026-09-01T20:01:50Z</time>
  <course>274.21</course>
  <speed>0.02</speed>
  <fix>3d</fix>
</trkpt>
<trkpt lat="-27.2387701" lon="151.3640733">
  <ele>481.45</ele>
  <time>2026-09-01T20:01:50Z</time>
  <course>7.88</course>
  <speed>0.02</speed>
  <fix>3d</fix>
</trkpt>
<trkpt lat="-27.2387701" lon="151.3640734">
  <ele>480.99</ele>
  <time>2026-09-01T20:01:50Z</time>
  <course>274.21</course>
  <speed>0.02</speed>
  <fix>3d</fix>
</trkpt>
<trkpt lat="-27.2387701" lon="151.3640733">
  <ele>481.15</ele>
  <time>2026-09-01T20:01:50Z</time>
  <course>6.66</course>
  <speed>0.02</speed>
  <fix>3d</fix>
</trkpt>
<trkpt lat="-27.2387701" lon="151.3640734">
  <ele>480.84</ele>
  <time>2026-09-01T20:01:50Z</time>
  <course>274.21</course>
  <speed>0.02</speed>
  <fix>3d</fix>
</trkpt>
<trkpt lat="-27.2387701" lon="151.3640733">
  <ele>481.15</ele>
  <time>2026-09-01T20:01:50Z</time>
  <course>6.66</course>
  <speed>0.02</speed>
  <fix>3d</fix>
</trkpt>
<trkpt lat="-27.23877" lon="151.3640734">
  <ele>480.69</ele>
  <time>2026-09-01T20:01:50Z</time>
  <course>274.21</course>
  <speed>0.02</speed>
  <fix>3d</fix>
</trkpt>
<trkpt lat="-27.23877" lon="151.3640734">
  <ele>480.85</ele>
  <time>2026-09-01T20:01:50Z</time>
  <course>4.99</course>
  <speed>0.02</speed>
  <fix>3d</fix>
</trkpt>
<trkpt lat="-27.23877" lon="151.3640734">
  <ele>480.54</ele>
  <time>2026-09-01T20:01:50Z</time>
  <course>274.22</course>
  <speed>0.02</speed>
  <fix>3d</fix>
</trkpt>
<trkpt lat="-27.23877" lon="151.3640734">
  <ele>480.85</ele>
  <time>2026-09-01T20:01:50Z</time>
  <course>4.99</course>
  <speed>0.02</speed>
  <fix>3d</fix>
</trkpt>
<trkpt lat="-27.23877" lon="151.3640734">
  <ele>480.39</ele>
  <time>2026-09-01T20:01:50Z</time>
  <course>274.22</course>
  <speed>0.02</speed>
  <fix>3d</fix>
</trkpt>
<trkpt lat="-27.23877" lon="151.3640734">
  <ele>480.55</ele>
  <time>2026-09-01T20:01:50Z</time>
  <course>3.07</course>
  <speed>0.02</speed>
  <fix>3d</fix>
</trkpt>
<trkpt lat="-27.23877" lon="151.3640734">
  <ele>480.24</ele>
  <time>2026-09-01T20:01:50Z</time>
  <course>274.22</course>
  <speed>0.02</speed>
  <fix>3d</fix>
</trkpt>
<trkpt lat="-27.23877" lon="151.3640734">
  <ele>480.55</ele>
  <time>2026-09-01T20:01:50Z</time>
  <course>3.07</course>
  <speed>0.02</speed>
  <fix>3d</fix>
</trkpt>
<trkpt lat="-27.2387699" lon="151.3640734">
  <ele>480.09</ele>
  <time>2026-09-01T20:01:50Z</time>
  <course>274.22</course>
  <speed>0.02</speed>
  <fix>3d</fix>
</trkpt>
<trkpt lat="-27.2387699" lon="151.3640734">
  <ele>480.25</ele>
  <time>2026-09-01T20:01:50Z</time>
  <course>1.8</course>
  <speed>0.02</speed>
  <fix>3d</fix>
</trkpt>
<trkpt lat="-27.2387699" lon="151.3640734">
  <ele>479.94</ele>
  <time>2026-09-01T20:01:50Z</time>
  <course>274.22</course>
  <speed>0.02</speed>
  <fix>3d</fix>
</trkpt>
<trkpt lat="-27.2387699" lon="151.3640734">
  <ele>480.25</ele>
  <time>2026-09-01T20:01:50Z</time>
  <course>1.8</course>
  <speed>0.02</speed>
  <fix>3d</fix>
</trkpt>
<trkpt lat="-27.2387699" lon="151.3640734">
  <ele>479.79</ele>
  <time>2026-09-01T20:01:50Z</time>
  <course>274.22</course>
  <speed>0.03</speed>
  <fix>3d</fix>
</trkpt>
<trkpt lat="-27.2387699" lon="151.3640734">
  <ele>479.95</ele>
  <time>2026-09-01T20:01:50Z</time>
  <course>1.38</course>
  <speed>0.02</speed>
  <fix>3d</fix>
</trkpt>
<trkpt lat="-27.2387699" lon="151.3640734">
  <ele>479.64</ele>
  <time>2026-09-01T20:01:50Z</time>
  <course>274.22</course>
  <speed>0.02</speed>
  <fix>3d</fix>
</trkpt>
<trkpt lat="-27.2387699" lon="151.3640734">
  <ele>479.95</ele>
  <time>2026-09-01T20:01:50Z</time>
  <course>1.38</course>
  <speed>0.02</speed>
  <fix>3d</fix>
</trkpt>
<trkpt lat="-27.2387698" lon="151.3640734">
  <ele>479.49</ele>
  <time>2026-09-01T20:01:50Z</time>
  <course>274.22</course>
  <speed>0.02</speed>
  <fix>3d</fix>
</trkpt>
<trkpt lat="-27.2387698" lon="151.3640734">
  <ele>479.65</ele>
  <time>2026-09-01T20:01:50Z</time>
  <course>1.07</course>
  <speed>0.03</speed>
  <fix>3d</fix>
</trkpt>
<trkpt lat="-27.2387698" lon="151.3640734">
  <ele>479.34</ele>
  <time>2026-09-01T20:01:50Z</time>
  <course>274.22</course>
  <speed>0.03</speed>
  <fix>3d</fix>
</trkpt>
<trkpt lat="-27.2387698" lon="151.3640734">
  <ele>479.65</ele>
  <time>2026-09-01T20:01:50Z</time>
  <course>1.07</course>
  <speed>0.03</speed>
  <fix>3d</fix>
</trkpt>
<trkpt lat="-27.2387698" lon="151.3640734">
  <ele>479.19</ele>
  <time>2026-09-01T20:01:50Z</time>
  <course>274.22</course>
  <speed>0.03</speed>
  <fix>3d</fix>
</trkpt>
<trkpt lat="-27.2387698" lon="151.3640734">
  <ele>479.35</ele>
  <time>2026-09-01T20:01:50Z</time>
  <course>359.88</course>
  <speed>0.03</speed>
  <fix>3d</fix>
</trkpt>
<trkpt lat="-27.2387697" lon="151.3640734">
  <ele>479.04</ele>
  <time>2026-09-01T20:01:50Z</time>
  <course>274.21</course>
  <speed>0.03</speed>
  <fix>3d</fix>
</trkpt>
<trkpt lat="-27.2387698" lon="151.3640734">
  <ele>479.35</ele>
  <time>2026-09-01T20:01:50Z</time>
  <course>359.88</course>
  <speed>0.03</speed>
  <fix>3d</fix>
</trkpt>
<trkpt lat="-27.2387697" lon="151.3640734">
  <ele>478.89</ele>
  <time>2026-09-01T20:01:50Z</time>
  <course>274.21</course>
  <speed>0.03</speed>
  <fix>3d</fix>
</trkpt>
<trkpt lat="-27.2387697" lon="151.3640734">
  <ele>479.05</ele>
  <time>2026-09-01T20:01:50Z</time>
  <course>357.79</course>
  <speed>0.03</speed>
  <fix>3d</fix>
</trkpt>
<trkpt lat="-27.2387697" lon="151.3640734">
  <ele>478.74</ele>
  <time>2026-09-01T20:01:50Z</time>
  <course>274.19</course>
  <speed>0.03</speed>
  <fix>3d</fix>
</trkpt>
<trkpt lat="-27.2387697" lon="151.3640734">
  <ele>479.05</ele>
  <time>2026-09-01T20:01:50Z</time>
  <course>357.79</course>
  <speed>0.03</speed>
  <fix>3d</fix>
</trkpt>
<trkpt lat="-27.2387697" lon="151.3640734">
  <ele>478.59</ele>
  <time>2026-09-01T20:01:50Z</time>
  <course>274.16</course>
  <speed>0.03</speed>
  <fix>3d</fix>
</trkpt>
<trkpt lat="-27.2387697" lon="151.3640734">
  <ele>478.75</ele>
  <time>2026-09-01T20:01:50Z</time>
  <course>356.21</course>
  <speed>0.03</speed>
  <fix>3d</fix>
</trkpt>
<trkpt lat="-27.2387696" lon="151.3640734">
  <ele>478.44</ele>
  <time>2026-09-01T20:01:50Z</time>
  <course>274.12</course>
  <speed>0.03</speed>
  <fix>3d</fix>
</trkpt>
<trkpt lat="-27.2387697" lon="151.3640734">
  <ele>478.75</ele>
  <time>2026-09-01T20:01:50Z</time>
  <course>356.21</course>
  <speed>0.03</speed>
  <fix>3d</fix>
</trkpt>
<trkpt lat="-27.2387696" lon="151.3640734">
  <ele>478.29</ele>
  <time>2026-09-01T20:01:50Z</time>
  <course>274.09</course>
  <speed>0.03</speed>
  <fix>3d</fix>
</trkpt>
<trkpt lat="-27.2387696" lon="151.3640734">
  <ele>478.45</ele>
  <time>2026-09-01T20:01:50Z</time>
  <course>355.0</course>
  <speed>0.03</speed>
  <fix>3d</fix>
</trkpt>
<trkpt lat="-27.2387696" lon="151.3640734">
  <ele>478.14</ele>
  <time>2026-09-01T20:01:50Z</time>
  <course>274.06</course>
  <speed>0.03</speed>
  <fix>3d</fix>
</trkpt>
<trkpt lat="-27.2387696" lon="151.3640734">
  <ele>478.45</ele>
  <time>2026-09-01T20:01:50Z</time>
  <course>355.0</course>
  <speed>0.03</speed>
  <fix>3d</fix>
</trkpt>
<trkpt lat="-27.2387695" lon="151.3640734">
  <ele>477.99</ele>
  <time>2026-09-01T20:01:50Z</time>
  <course>274.03</course>
  <speed>0.03</speed>
  <fix>3d</fix>
</trkpt>
<trkpt lat="-27.2387695" lon="151.3640734">
  <ele>478.15</ele>
  <time>2026-09-01T20:01:50Z</time>
  <course>353.68</course>
  <speed>0.03</speed>
  <fix>3d</fix>
</trkpt>
<trkpt lat="-27.2387695" lon="151.3640734">
  <ele>477.84</ele>
  <time>2026-09-01T20:01:50Z</time>
  <course>274.0</course>
  <speed>0.03</speed>
  <fix>3d</fix>
</trkpt>
<trkpt lat="-27.2387695" lon="151.3640734">
  <ele>478.15</ele>
  <time>2026-09-01T20:01:50Z</time>
  <course>353.68</course>
  <speed>0.03</speed>
  <fix>3d</fix>
</trkpt>
<trkpt lat="-27.2387695" lon="151.3640734">
  <ele>477.69</ele>
  <time>2026-09-01T20:01:50Z</time>
  <course>273.98</course>
  <speed>0.03</speed>
  <fix>3d</fix>
</trkpt>
<trkpt lat="-27.2387695" lon="151.3640734">
  <ele>477.85</ele>
  <time>2026-09-01T20:01:50Z</time>
  <course>352.6</course>
  <speed>0.03</speed>
  <fix>3d</fix>
</trkpt>
<trkpt lat="-27.2387694" lon="151.3640734">
  <ele>477.54</ele>
  <time>2026-09-01T20:01:50Z</time>
  <course>273.96</course>
  <speed>0.03</speed>
  <fix>3d</fix>
</trkpt>
<trkpt lat="-27.2387695" lon="151.3640734">
  <ele>477.85</ele>
  <time>2026-09-01T20:01:50Z</time>
  <course>352.6</course>
  <speed>0.03</speed>
  <fix>3d</fix>
</trkpt>
<trkpt lat="-27.2387694" lon="151.3640734">
  <ele>477.39</ele>
  <time>2026-09-01T20:01:50Z</time>
  <course>273.96</course>
  <speed>0.03</speed>
  <fix>3d</fix>
</trkpt>
<trkpt lat="-27.2387694" lon="151.3640734">
  <ele>477.55</ele>
  <time>2026-09-01T20:01:50Z</time>
  <course>351.32</course>
  <speed>0.03</speed>
  <fix>3d</fix>
</trkpt>
<trkpt lat="-27.2387694" lon="151.3640734">
  <ele>477.24</ele>
  <time>2026-09-01T20:01:50Z</time>
  <course>273.96</course>
  <speed>0.03</speed>
  <fix>3d</fix>
</trkpt>
<trkpt lat="-27.2387694" lon="151.3640734">
  <ele>477.55</ele>
  <time>2026-09-01T20:01:50Z</time>
  <course>351.32</course>
  <speed>0.03</speed>
  <fix>3d</fix>
</trkpt>
<trkpt lat="-27.2387694" lon="151.3640734">
  <ele>477.09</ele>
  <time>2026-09-01T20:01:50Z</time>
  <course>273.94</course>
  <speed>0.03</speed>
  <fix>3d</fix>
</trkpt>
<trkpt lat="-27.2387694" lon="151.3640734">
  <ele>477.25</ele>
  <time>2026-09-01T20:01:50Z</time>
  <course>350.26</course>
  <speed>0.03</speed>
  <fix>3d</fix>
</trkpt>
<trkpt lat="-27.2387693" lon="151.3640734">
  <ele>476.94</ele>
  <time>2026-09-01T20:01:50Z</time>
  <course>273.93</course>
  <speed>0.03</speed>
  <fix>3d</fix>
</trkpt>
<trkpt lat="-27.2387694" lon="151.3640734">
  <ele>477.25</ele>
  <time>2026-09-01T20:01:50Z</time>
  <course>350.26</course>
  <speed>0.03</speed>
  <fix>3d</fix>
</trkpt>
<trkpt lat="-27.2387693" lon="151.3640734">
  <ele>476.79</ele>
  <time>2026-09-01T20:01:50Z</time>
  <course>273.99</course>
  <speed>0.02</speed>
  <fix>3d</fix>
</trkpt>
<trkpt lat="-27.2387693" lon="151.3640734">
  <ele>476.95</ele>
  <time>2026-09-01T20:01:50Z</time>
  <course>347.41</course>
  <speed>0.03</speed>
  <fix>3d</fix>
</trkpt>
<trkpt lat="-27.2387693" lon="151.3640734">
  <ele>476.64</ele>
  <time>2026-09-01T20:01:50Z</time>
  <course>274.11</course>
  <speed>0.02</speed>
  <fix>3d</fix>
</trkpt>
<trkpt lat="-27.2387693" lon="151.3640734">
  <ele>476.95</ele>
  <time>2026-09-01T20:01:50Z</time>
  <course>347.41</course>
  <speed>0.03</speed>
  <fix>3d</fix>
</trkpt>
<trkpt lat="-27.2387692" lon="151.3640734">
  <ele>476.49</ele>
  <time>2026-09-01T20:01:50Z</time>
  <course>274.25</course>
  <speed>0.01</speed>
  <fix>3d</fix>
</trkpt>
<trkpt lat="-27.2387692" lon="151.3640734">
  <ele>476.65</ele>
  <time>2026-09-01T20:01:50Z</time>
  <course>339.35</course>
  <speed>0.02</speed>
  <fix>3d</fix>
</trkpt>
<trkpt lat="-27.2387692" lon="151.3640734">
  <ele>476.34</ele>
  <time>2026-09-01T20:01:50Z</time>
  <course>274.38</course>
  <speed>0.01</speed>
  <fix>3d</fix>
</trkpt>
<trkpt lat="-27.2387692" lon="151.3640734">
  <ele>476.65</ele>
  <time>2026-09-01T20:01:50Z</time>
  <course>339.35</course>
  <speed>0.02</speed>
  <fix>3d</fix>
</trkpt>
<trkpt lat="-27.2387692" lon="151.3640734">
  <ele>476.19</ele>
  <time>2026-09-01T20:01:50Z</time>
  <course>274.48</course>
  <speed>0.0</speed>
  <fix>3d</fix>
</trkpt>
<trkpt lat="-27.2387692" lon="151.3640734">
  <ele>476.35</ele>
  <time>2026-09-01T20:01:50Z</time>
  <course>322.07</course>
  <speed>0.01</speed>
  <fix>3d</fix>
</trkpt>
<trkpt lat="-27.2387692" lon="151.3640733">
  <ele>476.04</ele>
  <time>2026-09-01T20:01:50Z</time>
  <course>274.55</course>
  <speed>0.0</speed>
  <fix>3d</fix>
</trkpt>
<trkpt lat="-27.2387692" lon="151.3640734">
  <ele>476.35</ele>
  <time>2026-09-01T20:01:50Z</time>
  <course>322.07</course>
  <speed>0.01</speed>
  <fix>3d</fix>
</trkpt>
<trkpt lat="-27.2387692" lon="151.3640733">
  <ele>475.89</ele>
  <time>2026-09-01T20:01:50Z</time>
  <course>274.58</course>
  <speed>0.01</speed>
  <fix>3d</fix>
</trkpt>
<trkpt lat="-27.2387692" lon="151.3640733">
  <ele>476.05</ele>
  <time>2026-09-01T20:01:50Z</time>
  <course>283.66</course>
  <speed>0.01</speed>
  <fix>3d</fix>
</trkpt>
<trkpt lat="-27.2387692" lon="151.3640733">
  <ele>475.74</ele>
  <time>2026-09-01T20:01:50Z</time>
  <course>274.58</course>
  <speed>0.01</speed>
  <fix>3d</fix>
</trkpt>
<trkpt lat="-27.2387692" lon="151.3640733">
  <ele>476.05</ele>
  <time>2026-09-01T20:01:50Z</time>
  <course>283.66</course>
  <speed>0.01</speed>
  <fix>3d</fix>
</trkpt>
<trkpt lat="-27.2387692" lon="151.3640733">
  <ele>475.59</ele>
  <time>2026-09-01T20:01:50Z</time>
  <course>274.55</course>
  <speed>0.01</speed>
  <fix>3d</fix>
</trkpt>
<trkpt lat="-27.2387692" lon="151.3640733">
  <ele>475.75</ele>
  <time>2026-09-01T20:01:50Z</time>
  <course>237.25</course>
  <speed>0.01</speed>
  <fix>3d</fix>
</trkpt>
<trkpt lat="-27.2387692" lon="151.3640733">
  <ele>475.44</ele>
  <time>2026-09-01T20:01:50Z</time>
  <course>274.52</course>
  <speed>0.01</speed>
  <fix>3d</fix>
</trkpt>
<trkpt lat="-27.2387692" lon="151.3640733">
  <ele>475.75</ele>
  <time>2026-09-01T20:01:50Z</time>
  <course>237.25</course>
  <speed>0.01</speed>
  <fix>3d</fix>
</trkpt>
<trkpt lat="-27.2387692" lon="151.3640733">
  <ele>475.29</ele>
  <time>2026-09-01T20:01:50Z</time>
  <course>274.48</course>
  <speed>0.01</speed>
  <fix>3d</fix>
</trkpt>
<trkpt lat="-27.2387692" lon="151.3640733">
  <ele>475.45</ele>
  <time>2026-09-01T20:01:50Z</time>
  <course>214.3</course>
  <speed>0.01</speed>
  <fix>3d</fix>
</trkpt>
<trkpt lat="-27.2387692" lon="151.3640733">
  <ele>475.14</ele>
  <time>2026-09-01T20:01:50Z</time>
  <course>274.44</course>
  <speed>0.02</speed>
  <fix>3d</fix>
</trkpt>
<trkpt lat="-27.2387692" lon="151.3640733">
  <ele>475.45</ele>
  <time>2026-09-01T20:01:50Z</time>
  <course>214.3</course>
  <speed>0.01</speed>
  <fix>3d</fix>
</trkpt>
<trkpt lat="-27.2387692" lon="151.3640733">
  <ele>474.99</ele>
  <time>2026-09-01T20:01:50Z</time>
  <course>274.41</course>
  <speed>0.02</speed>
  <fix>3d</fix>
</trkpt>
<trkpt lat="-27.2387692" lon="151.3640733">
  <ele>475.15</ele>
  <time>2026-09-01T20:01:50Z</time>
  <course>203.62</course>
  <speed>0.02</speed>
  <fix>3d</fix>
</trkpt>
<trkpt lat="-27.2387692" lon="151.3640733">
  <ele>474.84</ele>
  <time>2026-09-01T20:01:50Z</time>
  <course>274.39</course>
  <speed>0.02</speed>
  <fix>3d</fix>
</trkpt>
<trkpt lat="-27.2387692" lon="151.3640733">
  <ele>475.15</ele>
  <time>2026-09-01T20:01:50Z</time>
  <course>203.62</course>
  <speed>0.02</speed>
  <fix>3d</fix>
</trkpt>
<trkpt lat="-27.2387692" lon="151.3640733">
  <ele>474.69</ele>
  <time>2026-09-01T20:01:50Z</time>
  <course>274.37</course>
  <speed>0.02</speed>
  <fix>3d</fix>
</trkpt>
<trkpt lat="-27.2387692" lon="151.3640733">
  <ele>474.85</ele>
  <time>2026-09-01T20:01:50Z</time>
  <course>197.79</course>
  <speed>0.02</speed>
  <fix>3d</fix>
</trkpt>
<trkpt lat="-27.2387693" lon="151.3640733">
  <ele>474.54</ele>
  <time>2026-09-01T20:01:50Z</time>
  <course>274.37</course>
  <speed>0.03</speed>
  <fix>3d</fix>
</trkpt>
<trkpt lat="-27.2387692" lon="151.3640733">
  <ele>474.85</ele>
  <time>2026-09-01T20:01:50Z</time>
  <course>197.79</course>
  <speed>0.02</speed>
  <fix>3d</fix>
</trkpt>
<trkpt lat="-27.2387693" lon="151.3640732">
  <ele>474.39</ele>
  <time>2026-09-01T20:01:50Z</time>
  <course>274.38</course>
  <speed>0.03</speed>
  <fix>3d</fix>
</trkpt>
<trkpt lat="-27.2387692" lon="151.3640733">
  <ele>474.55</ele>
  <time>2026-09-01T20:01:50Z</time>
  <course>194.31</course>
  <speed>0.03</speed>
  <fix>3d</fix>
</trkpt>
<trkpt lat="-27.2387693" lon="151.3640732">
  <ele>474.24</ele>
  <time>2026-09-01T20:01:50Z</time>
  <course>274.39</course>
  <speed>0.03</speed>
  <fix>3d</fix>
</trkpt>
<trkpt lat="-27.2387692" lon="151.3640733">
  <ele>474.55</ele>
  <time>2026-09-01T20:01:50Z</time>
  <course>194.31</course>
  <speed>0.03</speed>
  <fix>3d</fix>
</trkpt>
<trkpt lat="-27.2387694" lon="151.3640732">
  <ele>474.09</ele>
  <time>2026-09-01T20:01:50Z</time>
  <course>274.4</course>
  <speed>0.03</speed>
  <fix>3d</fix>
</trkpt>
<trkpt lat="-27.2387693" lon="151.3640732">
  <ele>474.25</ele>
  <time>2026-09-01T20:01:50Z</time>
  <course>192.46</course>
  <speed>0.03</speed>
  <fix>3d</fix>
</trkpt>
<trkpt lat="-27.2387694" lon="151.3640732">
  <ele>473.94</ele>
  <time>2026-09-01T20:01:50Z</time>
  <course>274.41</course>
  <speed>0.03</speed>
  <fix>3d</fix>
</trkpt>
<trkpt lat="-27.2387693" lon="151.3640732">
  <ele>474.25</ele>
  <time>2026-09-01T20:01:50Z</time>
  <course>192.46</course>
  <speed>0.03</speed>
  <fix>3d</fix>
</trkpt>
<trkpt lat="-27.2387694" lon="151.3640732">
  <ele>473.79</ele>
  <time>2026-09-01T20:01:50Z</time>
  <course>274.42</course>
  <speed>0.03</speed>
  <fix>3d</fix>
</trkpt>
<trkpt lat="-27.2387694" lon="151.3640732">
  <ele>473.95</ele>
  <time>2026-09-01T20:01:50Z</time>
  <course>190.99</course>
  <speed>0.03</speed>
  <fix>3d</fix>
</trkpt>
<trkpt lat="-27.2387695" lon="151.3640732">
  <ele>473.64</ele>
  <time>2026-09-01T20:01:50Z</time>
  <course>274.43</course>
  <speed>0.03</speed>
  <fix>3d</fix>
</trkpt>
<trkpt lat="-27.2387694" lon="151.3640732">
  <ele>473.95</ele>
  <time>2026-09-01T20:01:50Z</time>
  <course>190.99</course>
  <speed>0.03</speed>
  <fix>3d</fix>
</trkpt>
<trkpt lat="-27.2387695" lon="151.3640732">
  <ele>473.49</ele>
  <time>2026-09-01T20:01:50Z</time>
  <course>274.43</course>
  <speed>0.03</speed>
  <fix>3d</fix>
</trkpt>
<trkpt lat="-27.2387694" lon="151.3640732">
  <ele>473.65</ele>
  <time>2026-09-01T20:01:50Z</time>
  <course>189.69</course>
  <speed>0.03</speed>
  <fix>3d</fix>
</trkpt>
<trkpt lat="-27.2387695" lon="151.3640732">
  <ele>473.34</ele>
  <time>2026-09-01T20:01:50Z</time>
  <course>274.43</course>
  <speed>0.03</speed>
  <fix>3d</fix>
</trkpt>
<trkpt lat="-27.2387694" lon="151.3640732">
  <ele>473.65</ele>
  <time>2026-09-01T20:01:50Z</time>
  <course>189.69</course>
  <speed>0.03</speed>
  <fix>3d</fix>
</trkpt>
<trkpt lat="-27.2387696" lon="151.3640732">
  <ele>473.19</ele>
  <time>2026-09-01T20:01:50Z</time>
  <course>274.43</course>
  <speed>0.03</speed>
  <fix>3d</fix>
</trkpt>
<trkpt lat="-27.2387695" lon="151.3640732">
  <ele>473.35</ele>
  <time>2026-09-01T20:01:50Z</time>
  <course>189.16</course>
  <speed>0.03</speed>
  <fix>3d</fix>
</trkpt>
<trkpt lat="-27.2387696" lon="151.3640732">
  <ele>473.04</ele>
  <time>2026-09-01T20:01:50Z</time>
  <course>274.42</course>
  <speed>0.03</speed>
  <fix>3d</fix>
</trkpt>
<trkpt lat="-27.2387695" lon="151.3640732">
  <ele>473.35</ele>
  <time>2026-09-01T20:01:50Z</time>
  <course>189.16</course>
  <speed>0.03</speed>
  <fix>3d</fix>
</trkpt>
<trkpt lat="-27.2387696" lon="151.3640732">
  <ele>472.89</ele>
  <time>2026-09-01T20:01:50Z</time>
  <course>274.42</course>
  <speed>0.03</speed>
  <fix>3d</fix>
</trkpt>
<trkpt lat="-27.2387696" lon="151.3640732">
  <ele>473.05</ele>
  <time>2026-09-01T20:01:50Z</time>
  <course>189.03</course>
  <speed>0.03</speed>
  <fix>3d</fix>
</trkpt>
<trkpt lat="-27.2387697" lon="151.3640732">
  <ele>472.74</ele>
  <time>2026-09-01T20:01:50Z</time>
  <course>274.42</course>
  <speed>0.03</speed>
  <fix>3d</fix>
</trkpt>
<trkpt lat="-27.2387696" lon="151.3640732">
  <ele>473.05</ele>
  <time>2026-09-01T20:01:50Z</time>
  <course>189.03</course>
  <speed>0.03</speed>
  <fix>3d</fix>
</trkpt>
<trkpt lat="-27.2387697" lon="151.3640732">
  <ele>472.59</ele>
  <time>2026-09-01T20:01:50Z</time>
  <course>274.42</course>
  <speed>0.03</speed>
  <fix>3d</fix>
</trkpt>
<trkpt lat="-27.2387696" lon="151.3640732">
  <ele>472.75</ele>
  <time>2026-09-01T20:01:50Z</time>
  <course>188.54</course>
  <speed>0.03</speed>
  <fix>3d</fix>
</trkpt>
<trkpt lat="-27.2387697" lon="151.3640732">
  <ele>472.44</ele>
  <time>2026-09-01T20:01:50Z</time>
  <course>274.42</course>
  <speed>0.03</speed>
  <fix>3d</fix>
</trkpt>
<trkpt lat="-27.2387696" lon="151.3640732">
  <ele>472.75</ele>
  <time>2026-09-01T20:01:50Z</time>
  <course>188.54</course>
  <speed>0.03</speed>
  <fix>3d</fix>
</trkpt>
<trkpt lat="-27.2387697" lon="151.3640732">
  <ele>472.29</ele>
  <time>2026-09-01T20:01:50Z</time>
  <course>274.42</course>
  <speed>0.03</speed>
  <fix>3d</fix>
</trkpt>
<trkpt lat="-27.2387697" lon="151.3640732">
  <ele>472.45</ele>
  <time>2026-09-01T20:01:50Z</time>
  <course>187.85</course>
  <speed>0.03</speed>
  <fix>3d</fix>
</trkpt>
<trkpt lat="-27.2387698" lon="151.3640732">
  <ele>472.14</ele>
  <time>2026-09-01T20:01:50Z</time>
  <course>274.43</course>
  <speed>0.02</speed>
  <fix>3d</fix>
</trkpt>
<trkpt lat="-27.2387697" lon="151.3640732">
  <ele>472.45</ele>
  <time>2026-09-01T20:01:50Z</time>
  <course>187.85</course>
  <speed>0.03</speed>
  <fix>3d</fix>
</trkpt>
<trkpt lat="-27.2387698" lon="151.3640732">
  <ele>471.99</ele>
  <time>2026-09-01T20:01:50Z</time>
  <course>274.43</course>
  <speed>0.02</speed>
  <fix>3d</fix>
</trkpt>
<trkpt lat="-27.2387697" lon="151.3640732">
  <ele>472.15</ele>
  <time>2026-09-01T20:01:50Z</time>
  <course>187.38</course>
  <speed>0.02</speed>
  <fix>3d</fix>
</trkpt>
<trkpt lat="-27.2387698" lon="151.3640732">
  <ele>471.84</ele>
  <time>2026-09-01T20:01:50Z</time>
  <course>274.43</course>
  <speed>0.02</speed>
  <fix>3d</fix>
</trkpt>
<trkpt lat="-27.2387697" lon="151.3640732">
  <ele>472.15</ele>
  <time>2026-09-01T20:01:50Z</time>
  <course>187.38</course>
  <speed>0.02</speed>
  <fix>3d</fix>
</trkpt>
<trkpt lat="-27.2387698" lon="151.3640732">
  <ele>471.69</ele>
  <time>2026-09-01T20:01:50Z</time>
  <course>274.43</course>
  <speed>0.02</speed>
  <fix>3d</fix>
</trkpt>
<trkpt lat="-27.2387698" lon="151.3640732">
  <ele>471.85</ele>
  <time>2026-09-01T20:01:50Z</time>
  <course>187.3</course>
  <speed>0.02</speed>
  <fix>3d</fix>
</trkpt>
<trkpt lat="-27.2387699" lon="151.364073">
  <ele>471.54</ele>
  <time>2026-09-01T20:01:50Z</time>
  <course>274.42</course>
  <speed>0.01</speed>
  <fix>3d</fix>
</trkpt>
<trkpt lat="-27.2387698" lon="151.3640732">
  <ele>471.85</ele>
  <time>2026-09-01T20:01:50Z</time>
  <course>187.3</course>
  <speed>0.02</speed>
  <fix>3d</fix>
</trkpt>
<trkpt lat="-27.2387699" lon="151.364073">
  <ele>471.39</ele>
  <time>2026-09-01T20:01:50Z</time>
  <course>274.41</course>
  <speed>0.01</speed>
  <fix>3d</fix>
</trkpt>
<trkpt lat="-27.2387698" lon="151.3640731">
  <ele>471.55</ele>
  <time>2026-09-01T20:01:50Z</time>
  <course>188.32</course>
  <speed>0.01</speed>
  <fix>3d</fix>
</trkpt>
<trkpt lat="-27.2387699" lon="151.364073">
  <ele>471.24</ele>
  <time>2026-09-01T20:01:50Z</time>
  <course>274.4</course>
  <speed>0.01</speed>
  <fix>3d</fix>
</trkpt>
<trkpt lat="-27.2387698" lon="151.3640731">
  <ele>471.55</ele>
  <time>2026-09-01T20:01:50Z</time>
  <course>188.32</course>
  <speed>0.01</speed>
  <fix>3d</fix>
</trkpt>
<trkpt lat="-27.2387699" lon="151.364073">
  <ele>471.09</ele>
  <time>2026-09-01T20:01:50Z</time>
  <course>274.38</course>
  <speed>0.0</speed>
  <fix>3d</fix>
</trkpt>
<trkpt lat="-27.2387699" lon="151.364073">
  <ele>471.25</ele>
  <time>2026-09-01T20:01:50Z</time>
  <course>188.96</course>
  <speed>0.01</speed>
  <fix>3d</fix>
</trkpt>
<trkpt lat="-27.2387699" lon="151.364073">
  <ele>470.94</ele>
  <time>2026-09-01T20:01:50Z</time>
  <course>274.36</course>
  <speed>0.0</speed>
  <fix>3d</fix>
</trkpt>
<trkpt lat="-27.2387699" lon="151.364073">
  <ele>471.25</ele>
  <time>2026-09-01T20:01:50Z</time>
  <course>188.96</course>
  <speed>0.01</speed>
  <fix>3d</fix>
</trkpt>
<trkpt lat="-27.2387699" lon="151.364073">
  <ele>470.79</ele>
  <time>2026-09-01T20:01:50Z</time>
  <course>274.33</course>
  <speed>0.0</speed>
  <fix>3d</fix>
</trkpt>
<trkpt lat="-27.2387699" lon="151.364073">
  <ele>470.95</ele>
  <time>2026-09-01T20:01:50Z</time>
  <course>185.72</course>
  <speed>0.0</speed>
  <fix>3d</fix>
</trkpt>
<trkpt lat="-27.2387699" lon="151.364073">
  <ele>470.64</ele>
  <time>2026-09-01T20:01:50Z</time>
  <course>274.28</course>
  <speed>0.0</speed>
  <fix>3d</fix>
</trkpt>
<trkpt lat="-27.2387699" lon="151.364073">
  <ele>470.95</ele>
  <time>2026-09-01T20:01:50Z</time>
  <course>185.72</course>
  <speed>0.0</speed>
  <fix>3d</fix>
</trkpt>
<trkpt lat="-27.2387699" lon="151.364073">
  <ele>470.49</ele>
  <time>2026-09-01T20:01:50Z</time>
  <course>274.22</course>
  <speed>0.0</speed>
  <fix>3d</fix>
</trkpt>
<trkpt lat="-27.2387699" lon="151.364073">
  <ele>470.65</ele>
  <time>2026-09-01T20:01:50Z</time>
  <course>21.15</course>
  <speed>0.0</speed>
  <fix>3d</fix>
</trkpt>
<trkpt lat="-27.2387699" lon="151.364073">
  <ele>470.34</ele>
  <time>2026-09-01T20:01:50Z</time>
  <course>274.13</course>
  <speed>0.01</speed>
  <fix>3d</fix>
</trkpt>
<trkpt lat="-27.2387699" lon="151.364073">
  <ele>470.65</ele>
  <time>2026-09-01T20:01:50Z</time>
  <course>21.15</course>
  <speed>0.0</speed>
  <fix>3d</fix>
</trkpt>
<trkpt lat="-27.2387699" lon="151.364073">
  <ele>470.19</ele>
  <time>2026-09-01T20:01:50Z</time>
  <course>274.0</course>
  <speed>0.02</speed>
  <fix>3d</fix>
</trkpt>
<trkpt lat="-27.2387699" lon="151.364073">
  <ele>470.35</ele>
  <time>2026-09-01T20:01:50Z</time>
  <course>11.14</course>
  <speed>0.01</speed>
  <fix>3d</fix>
</trkpt>
<trkpt lat="-27.2387699" lon="151.364073">
  <ele>470.04</ele>
  <time>2026-09-01T20:01:50Z</time>
  <course>273.84</course>
  <speed>0.03</speed>
  <fix>3d</fix>
</trkpt>
<trkpt lat="-27.2387699" lon="151.364073">
  <ele>470.35</ele>
  <time>2026-09-01T20:01:50Z</time>
  <course>11.14</course>
  <speed>0.01</speed>
  <fix>3d</fix>
</trkpt>
<trkpt lat="-27.2387699" lon="151.364073">
  <ele>469.89</ele>
  <time>2026-09-01T20:01:50Z</time>
  <course>273.79</course>
  <speed>0.03</speed>
  <fix>3d</fix>
</trkpt>
<trkpt lat="-27.2387699" lon="151.364073">
  <ele>470.05</ele>
  <time>2026-09-01T20:01:50Z</time>
  <course>9.45</course>
  <speed>0.03</speed>
  <fix>3d</fix>
</trkpt>
<trkpt lat="-27.2387699" lon="151.364073">
  <ele>469.74</ele>
  <time>2026-09-01T20:01:50Z</time>
  <course>273.84</course>
  <speed>0.03</speed>
  <fix>3d</fix>
</trkpt>
<trkpt lat="-27.2387699" lon="151.364073">
  <ele>470.05</ele>
  <time>2026-09-01T20:01:50Z</time>
  <course>9.45</course>
  <speed>0.03</speed>
  <fix>3d</fix>
</trkpt>
<trkpt lat="-27.2387698" lon="151.364073">
  <ele>469.59</ele>
  <time>2026-09-01T20:01:50Z</time>
  <course>273.96</course>
  <speed>0.03</speed>
  <fix>3d</fix>
</trkpt>
<trkpt lat="-27.2387698" lon="151.364073">
  <ele>469.75</ele>
  <time>2026-09-01T20:01:50Z</time>
  <course>9.13</course>
  <speed>0.03</speed>
  <fix>3d</fix>
</trkpt>
<trkpt lat="-27.2387698" lon="151.364073">
  <ele>469.44</ele>
  <time>2026-09-01T20:01:50Z</time>
  <course>274.11</course>
  <speed>0.03</speed>
  <fix>3d</fix>
</trkpt>
<trkpt lat="-27.2387698" lon="151.364073">
  <ele>469.75</ele>
  <time>2026-09-01T20:01:50Z</time>
  <course>9.13</course>
  <speed>0.03</speed>
  <fix>3d</fix>
</trkpt>
<trkpt lat="-27.2387698" lon="151.364073">
  <ele>469.29</ele>
  <time>2026-09-01T20:01:50Z</time>
  <course>274.26</course>
  <speed>0.03</speed>
  <fix>3d</fix>
</trkpt>
<trkpt lat="-27.2387698" lon="151.364073">
  <ele>469.45</ele>
  <time>2026-09-01T20:01:50Z</time>
  <course>9.05</course>
  <speed>0.03</speed>
  <fix>3d</fix>
</trkpt>
<trkpt lat="-27.2387698" lon="151.364073">
  <ele>469.14</ele>
  <time>2026-09-01T20:01:50Z</time>
  <course>274.38</course>
  <speed>0.03</speed>
  <fix>3d</fix>
</trkpt>
<trkpt lat="-27.2387698" lon="151.364073">
  <ele>469.45</ele>
  <time>2026-09-01T20:01:50Z</time>
  <course>9.05</course>
  <speed>0.03</speed>
  <fix>3d</fix>
</trkpt>
<trkpt lat="-27.2387697" lon="151.364073">
  <ele>468.99</ele>
  <time>2026-09-01T20:01:50Z</time>
  <course>274.46</course>
  <speed>0.03</speed>
  <fix>3d</fix>
</trkpt>
<trkpt lat="-27.2387697" lon="151.364073">
  <ele>469.15</ele>
  <time>2026-09-01T20:01:50Z</time>
  <course>9.33</course>
  <speed>0.03</speed>
  <fix>3d</fix>
</trkpt>
<trkpt lat="-27.2387697" lon="151.364073">
  <ele>468.84</ele>
  <time>2026-09-01T20:01:50Z</time>
  <course>274.49</course>
  <speed>0.03</speed>
  <fix>3d</fix>
</trkpt>
<trkpt lat="-27.2387697" lon="151.364073">
  <ele>469.15</ele>
  <time>2026-09-01T20:01:50Z</time>
  <course>9.33</course>
  <speed>0.03</speed>
  <fix>3d</fix>
</trkpt>
<trkpt lat="-27.2387697" lon="151.364073">
  <ele>468.69</ele>
  <time>2026-09-01T20:01:50Z</time>
  <course>274.49</course>
  <speed>0.03</speed>
  <fix>3d</fix>
</trkpt>
<trkpt lat="-27.2387697" lon="151.364073">
  <ele>468.85</ele>
  <time>2026-09-01T20:01:50Z</time>
  <course>9.61</course>
  <speed>0.03</speed>
  <fix>3d</fix>
</trkpt>
<trkpt lat="-27.2387696" lon="151.364073">
  <ele>468.54</ele>
  <time>2026-09-01T20:01:50Z</time>
  <course>274.46</course>
  <speed>0.03</speed>
  <fix>3d</fix>
</trkpt>
<trkpt lat="-27.2387697" lon="151.364073">
  <ele>468.85</ele>
  <time>2026-09-01T20:01:50Z</time>
  <course>9.61</course>
  <speed>0.03</speed>
  <fix>3d</fix>
</trkpt>
<trkpt lat="-27.2387696" lon="151.364073">
  <ele>468.39</ele>
  <time>2026-09-01T20:01:50Z</time>
  <course>274.41</course>
  <speed>0.03</speed>
  <fix>3d</fix>
</trkpt>
<trkpt lat="-27.2387696" lon="151.364073">
  <ele>468.55</ele>
  <time>2026-09-01T20:01:50Z</time>
  <course>10.32</course>
  <speed>0.03</speed>
  <fix>3d</fix>
</trkpt>
<trkpt lat="-27.2387696" lon="151.364073">
  <ele>468.24</ele>
  <time>2026-09-01T20:01:50Z</time>
  <course>274.35</course>
  <speed>0.03</speed>
  <fix>3d</fix>
</trkpt>
<trkpt lat="-27.2387696" lon="151.364073">
  <ele>468.55</ele>
  <time>2026-09-01T20:01:50Z</time>
  <course>10.32</course>
  <speed>0.03</speed>
  <fix>3d</fix>
</trkpt>
<trkpt lat="-27.2387695" lon="151.364073">
  <ele>468.09</ele>
  <time>2026-09-01T20:01:50Z</time>
  <course>274.29</course>
  <speed>0.03</speed>
  <fix>3d</fix>
</trkpt>
<trkpt lat="-27.2387695" lon="151.364073">
  <ele>468.25</ele>
  <time>2026-09-01T20:01:50Z</time>
  <course>11.67</course>
  <speed>0.03</speed>
  <fix>3d</fix>
</trkpt>
<trkpt lat="-27.2387695" lon="151.364073">
  <ele>467.94</ele>
  <time>2026-09-01T20:01:50Z</time>
  <course>274.23</course>
  <speed>0.03</speed>
  <fix>3d</fix>
</trkpt>
<trkpt lat="-27.2387695" lon="151.364073">
  <ele>468.25</ele>
  <time>2026-09-01T20:01:50Z</time>
  <course>11.67</course>
  <speed>0.03</speed>
  <fix>3d</fix>
</trkpt>
<trkpt lat="-27.2387695" lon="151.3640732">
  <ele>467.79</ele>
  <time>2026-09-01T20:01:50Z</time>
  <course>274.18</course>
  <speed>0.03</speed>
  <fix>3d</fix>
</trkpt>
<trkpt lat="-27.2387695" lon="151.3640731">
  <ele>467.95</ele>
  <time>2026-09-01T20:01:50Z</time>
  <course>12.89</course>
  <speed>0.03</speed>
  <fix>3d</fix>
</trkpt>
<trkpt lat="-27.2387694" lon="151.3640732">
  <ele>467.64</ele>
  <time>2026-09-01T20:01:50Z</time>
  <course>274.14</course>
  <speed>0.03</speed>
  <fix>3d</fix>
</trkpt>
<trkpt lat="-27.2387695" lon="151.3640731">
  <ele>467.95</ele>
  <time>2026-09-01T20:01:50Z</time>
  <course>12.89</course>
  <speed>0.03</speed>
  <fix>3d</fix>
</trkpt>
<trkpt lat="-27.2387694" lon="151.3640732">
  <ele>467.49</ele>
  <time>2026-09-01T20:01:50Z</time>
  <course>274.1</course>
  <speed>0.03</speed>
  <fix>3d</fix>
</trkpt>
<trkpt lat="-27.2387694" lon="151.3640732">
  <ele>467.65</ele>
  <time>2026-09-01T20:01:50Z</time>
  <course>12.97</course>
  <speed>0.03</speed>
  <fix>3d</fix>
</trkpt>
<trkpt lat="-27.2387694" lon="151.3640732">
  <ele>467.34</ele>
  <time>2026-09-01T20:01:50Z</time>
  <course>274.07</course>
  <speed>0.03</speed>
  <fix>3d</fix>
</trkpt>
<trkpt lat="-27.2387694" lon="151.3640732">
  <ele>467.65</ele>
  <time>2026-09-01T20:01:50Z</time>
  <course>12.97</course>
  <speed>0.03</speed>
  <fix>3d</fix>
</trkpt>
<trkpt lat="-27.2387693" lon="151.3640732">
  <ele>467.19</ele>
  <time>2026-09-01T20:01:50Z</time>
  <course>274.07</course>
  <speed>0.04</speed>
  <fix>3d</fix>
</trkpt>
<trkpt lat="-27.2387693" lon="151.3640732">
  <ele>467.35</ele>
  <time>2026-09-01T20:01:50Z</time>
  <course>11.58</course>
  <speed>0.04</speed>
  <fix>3d</fix>
</trkpt>
<trkpt lat="-27.2387693" lon="151.3640732">
  <ele>467.04</ele>
  <time>2026-09-01T20:01:50Z</time>
  <course>274.06</course>
  <speed>0.04</speed>
  <fix>3d</fix>
</trkpt>
<trkpt lat="-27.2387693" lon="151.3640732">
  <ele>467.35</ele>
  <time>2026-09-01T20:01:50Z</time>
  <course>11.58</course>
  <speed>0.04</speed>
  <fix>3d</fix>
</trkpt>
<trkpt lat="-27.2387692" lon="151.3640732">
  <ele>466.89</ele>
  <time>2026-09-01T20:01:50Z</time>
  <course>274.05</course>
  <speed>0.04</speed>
  <fix>3d</fix>
</trkpt>
<trkpt lat="-27.2387692" lon="151.3640732">
  <ele>467.05</ele>
  <time>2026-09-01T20:01:50Z</time>
  <course>9.86</course>
  <speed>0.04</speed>
  <fix>3d</fix>
</trkpt>
<trkpt lat="-27.2387692" lon="151.3640732">
  <ele>466.74</ele>
  <time>2026-09-01T20:01:50Z</time>
  <course>274.02</course>
  <speed>0.04</speed>
  <fix>3d</fix>
</trkpt>
<trkpt lat="-27.2387692" lon="151.3640732">
  <ele>467.05</ele>
  <time>2026-09-01T20:01:50Z</time>
  <course>9.86</course>
  <speed>0.04</speed>
  <fix>3d</fix>
</trkpt>
<trkpt lat="-27.2387692" lon="151.3640732">
  <ele>466.59</ele>
  <time>2026-09-01T20:01:50Z</time>
  <course>273.98</course>
  <speed>0.04</speed>
  <fix>3d</fix>
</trkpt>
<trkpt lat="-27.2387692" lon="151.3640732">
  <ele>466.75</ele>
  <time>2026-09-01T20:01:50Z</time>
  <course>8.73</course>
  <speed>0.04</speed>
  <fix>3d</fix>
</trkpt>
<trkpt lat="-27.2387691" lon="151.3640732">
  <ele>466.44</ele>
  <time>2026-09-01T20:01:50Z</time>
  <course>273.94</course>
  <speed>0.04</speed>
  <fix>3d</fix>
</trkpt>
<trkpt lat="-27.2387692" lon="151.3640732">
  <ele>466.75</ele>
  <time>2026-09-01T20:01:50Z</time>
  <course>8.73</course>
  <speed>0.04</speed>
  <fix>3d</fix>
</trkpt>
<trkpt lat="-27.2387691" lon="151.3640732">
  <ele>466.29</ele>
  <time>2026-09-01T20:01:50Z</time>
  <course>273.9</course>
  <speed>0.04</speed>
  <fix>3d</fix>
</trkpt>
<trkpt lat="-27.2387691" lon="151.3640732">
  <ele>466.45</ele>
  <time>2026-09-01T20:01:50Z</time>
  <course>7.72</course>
  <speed>0.04</speed>
  <fix>3d</fix>
</trkpt>
<trkpt lat="-27.238769" lon="151.3640732">
  <ele>466.14</ele>
  <time>2026-09-01T20:01:50Z</time>
  <course>273.85</course>
  <speed>0.04</speed>
  <fix>3d</fix>
</trkpt>
<trkpt lat="-27.2387691" lon="151.3640732">
  <ele>466.45</ele>
  <time>2026-09-01T20:01:50Z</time>
  <course>7.72</course>
  <speed>0.04</speed>
  <fix>3d</fix>
</trkpt>
<trkpt lat="-27.238769" lon="151.3640732">
  <ele>465.99</ele>
  <time>2026-09-01T20:01:50Z</time>
  <course>273.8</course>
  <speed>0.04</speed>
  <fix>3d</fix>
</trkpt>
<trkpt lat="-27.238769" lon="151.3640732">
  <ele>466.15</ele>
  <time>2026-09-01T20:01:50Z</time>
  <course>6.64</course>
  <speed>0.04</speed>
  <fix>3d</fix>
</trkpt>
<trkpt lat="-27.238769" lon="151.3640732">
  <ele>465.84</ele>
  <time>2026-09-01T20:01:50Z</time>
  <course>273.75</course>
  <speed>0.04</speed>
  <fix>3d</fix>
</trkpt>
<trkpt lat="-27.238769" lon="151.3640732">
  <ele>466.15</ele>
  <time>2026-09-01T20:01:50Z</time>
  <course>6.64</course>
  <speed>0.04</speed>
  <fix>3d</fix>
</trkpt>
<trkpt lat="-27.2387689" lon="151.3640732">
  <ele>465.69</ele>
  <time>2026-09-01T20:01:50Z</time>
  <course>273.7</course>
  <speed>0.04</speed>
  <fix>3d</fix>
</trkpt>
<trkpt lat="-27.2387689" lon="151.3640732">
  <ele>465.85</ele>
  <time>2026-09-01T20:01:50Z</time>
  <course>5.63</course>
  <speed>0.04</speed>
  <fix>3d</fix>
</trkpt>
<trkpt lat="-27.2387689" lon="151.3640733">
  <ele>465.54</ele>
  <time>2026-09-01T20:01:50Z</time>
  <course>273.65</course>
  <speed>0.04</speed>
  <fix>3d</fix>
</trkpt>
<trkpt lat="-27.2387689" lon="151.3640732">
  <ele>465.85</ele>
  <time>2026-09-01T20:01:50Z</time>
  <course>5.63</course>
  <speed>0.04</speed>
  <fix>3d</fix>
</trkpt>
<trkpt lat="-27.2387688" lon="151.3640733">
  <ele>465.39</ele>
  <time>2026-09-01T20:01:50Z</time>
  <course>273.61</course>
  <speed>0.04</speed>
  <fix>3d</fix>
</trkpt>
<trkpt lat="-27.2387688" lon="151.3640732">
  <ele>465.55</ele>
  <time>2026-09-01T20:01:50Z</time>
  <course>4.44</course>
  <speed>0.04</speed>
  <fix>3d</fix>
</trkpt>
<trkpt lat="-27.2387688" lon="151.3640733">
  <ele>465.24</ele>
  <time>2026-09-01T20:01:50Z</time>
  <course>273.57</course>
  <speed>0.05</speed>
  <fix>3d</fix>
</trkpt>
<trkpt lat="-27.2387688" lon="151.3640732">
  <ele>465.55</ele>
  <time>2026-09-01T20:01:50Z</time>
  <course>4.44</course>
  <speed>0.04</speed>
  <fix>3d</fix>
</trkpt>
<trkpt lat="-27.2387687" lon="151.3640733">
  <ele>465.09</ele>
  <time>2026-09-01T20:01:50Z</time>
  <course>273.52</course>
  <speed>0.05</speed>
  <fix>3d</fix>
</trkpt>
<trkpt lat="-27.2387687" lon="151.3640733">
  <ele>465.25</ele>
  <time>2026-09-01T20:01:50Z</time>
  <course>2.91</course>
  <speed>0.05</speed>
  <fix>3d</fix>
</trkpt>
<trkpt lat="-27.2387687" lon="151.3640733">
  <ele>464.94</ele>
  <time>2026-09-01T20:01:50Z</time>
  <course>273.47</course>
  <speed>0.05</speed>
  <fix>3d</fix>
</trkpt>
<trkpt lat="-27.2387687" lon="151.3640733">
  <ele>465.25</ele>
  <time>2026-09-01T20:01:50Z</time>
  <course>2.91</course>
  <speed>0.05</speed>
  <fix>3d</fix>
</trkpt>
<trkpt lat="-27.2387687" lon="151.3640733">
  <ele>464.79</ele>
  <time>2026-09-01T20:01:50Z</time>
  <course>273.43</course>
  <speed>0.05</speed>
  <fix>3d</fix>
</trkpt>
<trkpt lat="-27.2387687" lon="151.3640733">
  <ele>464.95</ele>
  <time>2026-09-01T20:01:50Z</time>
  <course>1.3</course>
  <speed>0.05</speed>
  <fix>3d</fix>
</trkpt>
<trkpt lat="-27.2387686" lon="151.3640733">
  <ele>464.64</ele>
  <time>2026-09-01T20:01:50Z</time>
  <course>273.39</course>
  <speed>0.05</speed>
  <fix>3d</fix>
</trkpt>
<trkpt lat="-27.2387687" lon="151.3640733">
  <ele>464.95</ele>
  <time>2026-09-01T20:01:50Z</time>
  <course>1.3</course>
  <speed>0.05</speed>
  <fix>3d</fix>
</trkpt>
<trkpt lat="-27.2387686" lon="151.3640733">
  <ele>464.49</ele>
  <time>2026-09-01T20:01:50Z</time>
  <course>273.34</course>
  <speed>0.05</speed>
  <fix>3d</fix>
</trkpt>
<trkpt lat="-27.2387686" lon="151.3640733">
  <ele>464.65</ele>
  <time>2026-09-01T20:01:50Z</time>
  <course>359.95</course>
  <speed>0.05</speed>
  <fix>3d</fix>
</trkpt>
<trkpt lat="-27.2387685" lon="151.3640733">
  <ele>464.34</ele>
  <time>2026-09-01T20:01:50Z</time>
  <course>273.29</course>
  <speed>0.05</speed>
  <fix>3d</fix>
</trkpt>
<trkpt lat="-27.2387686" lon="151.3640733">
  <ele>464.65</ele>
  <time>2026-09-01T20:01:50Z</time>
  <course>359.95</course>
  <speed>0.05</speed>
  <fix>3d</fix>
</trkpt>
<trkpt lat="-27.2387685" lon="151.3640733">
  <ele>464.19</ele>
  <time>2026-09-01T20:01:50Z</time>
  <course>273.24</course>
  <speed>0.05</speed>
  <fix>3d</fix>
</trkpt>
<trkpt lat="-27.2387685" lon="151.3640733">
  <ele>464.35</ele>
  <time>2026-09-01T20:01:50Z</time>
  <course>358.87</course>
  <speed>0.05</speed>
  <fix>3d</fix>
</trkpt>
<trkpt lat="-27.2387684" lon="151.3640733">
  <ele>464.04</ele>
  <time>2026-09-01T20:01:50Z</time>
  <course>273.25</course>
  <speed>0.04</speed>
  <fix>3d</fix>
</trkpt>
<trkpt lat="-27.2387685" lon="151.3640733">
  <ele>464.35</ele>
  <time>2026-09-01T20:01:50Z</time>
  <course>358.87</course>
  <speed>0.05</speed>
  <fix>3d</fix>
</trkpt>
<trkpt lat="-27.2387684" lon="151.3640733">
  <ele>463.89</ele>
  <time>2026-09-01T20:01:50Z</time>
  <course>273.44</course>
  <speed>0.03</speed>
  <fix>3d</fix>
</trkpt>
<trkpt lat="-27.2387684" lon="151.3640733">
  <ele>464.05</ele>
  <time>2026-09-01T20:01:50Z</time>
  <course>356.16</course>
  <speed>0.04</speed>
  <fix>3d</fix>
</trkpt>
<trkpt lat="-27.2387683" lon="151.3640733">
  <ele>463.74</ele>
  <time>2026-09-01T20:01:50Z</time>
  <course>273.82</course>
  <speed>0.01</speed>
  <fix>3d</fix>
</trkpt>
<trkpt lat="-27.2387684" lon="151.3640733">
  <ele>464.05</ele>
  <time>2026-09-01T20:01:50Z</time>
  <course>356.16</course>
  <speed>0.04</speed>
  <fix>3d</fix>
</trkpt>
<trkpt lat="-27.2387683" lon="151.3640733">
  <ele>463.59</ele>
  <time>2026-09-01T20:01:50Z</time>
  <course>274.28</course>
  <speed>0.0</speed>
  <fix>3d</fix>
</trkpt>
<trkpt lat="-27.2387683" lon="151.3640733">
  <ele>463.75</ele>
  <time>2026-09-01T20:01:50Z</time>
  <course>339.0</course>
  <speed>0.01</speed>
  <fix>3d</fix>
</trkpt>
<trkpt lat="-27.2387684" lon="151.3640733">
  <ele>463.44</ele>
  <time>2026-09-01T20:01:50Z</time>
  <course>274.74</course>
  <speed>0.01</speed>
  <fix>3d</fix>
</trkpt>
<trkpt lat="-27.2387683" lon="151.3640733">
  <ele>463.75</ele>
  <time>2026-09-01T20:01:50Z</time>
  <course>339.0</course>
  <speed>0.01</speed>
  <fix>3d</fix>
</trkpt>
<trkpt lat="-27.2387684" lon="151.3640733">
  <ele>463.29</ele>
  <time>2026-09-01T20:01:50Z</time>
  <course>275.12</course>
  <speed>0.03</speed>
  <fix>3d</fix>
</trkpt>
<trkpt lat="-27.2387683" lon="151.3640733">
  <ele>463.45</ele>
  <time>2026-09-01T20:01:50Z</time>
  <course>202.6</course>
  <speed>0.02</speed>
  <fix>3d</fix>
</trkpt>
<trkpt lat="-27.2387684" lon="151.3640733">
  <ele>463.14</ele>
  <time>2026-09-01T20:01:50Z</time>
  <course>275.38</course>
  <speed>0.04</speed>
  <fix>3d</fix>
</trkpt>
<trkpt lat="-27.2387683" lon="151.3640733">
  <ele>463.45</ele>
  <time>2026-09-01T20:01:50Z</time>
  <course>202.6</course>
  <speed>0.02</speed>
  <fix>3d</fix>
</trkpt>
<trkpt lat="-27.2387684" lon="151.3640733">
  <ele>462.99</ele>
  <time>2026-09-01T20:01:50Z</time>
  <course>275.51</course>
  <speed>0.06</speed>
  <fix>3d</fix>
</trkpt>
<trkpt lat="-27.2387684" lon="151.3640733">
  <ele>463.15</ele>
  <time>2026-09-01T20:01:50Z</time>
  <course>189.84</course>
  <speed>0.04</speed>
  <fix>3d</fix>
</trkpt>
<trkpt lat="-27.2387684" lon="151.3640733">
  <ele>462.84</ele>
  <time>2026-09-01T20:01:50Z</time>
  <course>275.53</course>
  <speed>0.07</speed>
  <fix>3d</fix>
</trkpt>
<trkpt lat="-27.2387684" lon="151.3640733">
  <ele>463.15</ele>
  <time>2026-09-01T20:01:50Z</time>
  <course>189.84</course>
  <speed>0.04</speed>
  <fix>3d</fix>
</trkpt>
<trkpt lat="-27.2387685" lon="151.3640733">
  <ele>462.69</ele>
  <time>2026-09-01T20:01:50Z</time>
  <course>275.47</course>
  <speed>0.08</speed>
  <fix>3d</fix>
</trkpt>
<trkpt lat="-27.2387684" lon="151.3640733">
  <ele>462.85</ele>
  <time>2026-09-01T20:01:50Z</time>
  <course>186.16</course>
  <speed>0.07</speed>
  <fix>3d</fix>
</trkpt>
<trkpt lat="-27.2387686" lon="151.3640733">
  <ele>462.54</ele>
  <time>2026-09-01T20:01:50Z</time>
  <course>275.36</course>
  <speed>0.09</speed>
  <fix>3d</fix>
</trkpt>
<trkpt lat="-27.2387684" lon="151.3640733">
  <ele>462.85</ele>
  <time>2026-09-01T20:01:50Z</time>
  <course>186.16</course>
  <speed>0.07</speed>
  <fix>3d</fix>
</trkpt>
<trkpt lat="-27.2387687" lon="151.3640733">
  <ele>462.39</ele>
  <time>2026-09-01T20:01:50Z</time>
  <course>275.23</course>
  <speed>0.1</speed>
  <fix>3d</fix>
</trkpt>
<trkpt lat="-27.2387686" lon="151.3640733">
  <ele>462.55</ele>
  <time>2026-09-01T20:01:50Z</time>
  <course>184.36</course>
  <speed>0.09</speed>
  <fix>3d</fix>
</trkpt>
<trkpt lat="-27.2387688" lon="151.3640733">
  <ele>462.24</ele>
  <time>2026-09-01T20:01:50Z</time>
  <course>275.11</course>
  <speed>0.11</speed>
  <fix>3d</fix>
</trkpt>
<trkpt lat="-27.2387686" lon="151.3640733">
  <ele>462.55</ele>
  <time>2026-09-01T20:01:50Z</time>
  <course>184.36</course>
  <speed>0.09</speed>
  <fix>3d</fix>
</trkpt>
<trkpt lat="-27.2387689" lon="151.3640733">
  <ele>462.09</ele>
  <time>2026-09-01T20:01:50Z</time>
  <course>275.01</course>
  <speed>0.12</speed>
  <fix>3d</fix>
</trkpt>
<trkpt lat="-27.2387688" lon="151.3640733">
  <ele>462.25</ele>
  <time>2026-09-01T20:01:50Z</time>
  <course>183.55</course>
  <speed>0.11</speed>
  <fix>3d</fix>
</trkpt>
<trkpt lat="-27.238769" lon="151.3640733">
  <ele>461.94</ele>
  <time>2026-09-01T20:01:50Z</time>
  <course>274.94</course>
  <speed>0.12</speed>
  <fix>3d</fix>
</trkpt>
<trkpt lat="-27.2387688" lon="151.3640733">
  <ele>462.25</ele>
  <time>2026-09-01T20:01:50Z</time>
  <course>183.55</course>
  <speed>0.11</speed>
  <fix>3d</fix>
</trkpt>
<trkpt lat="-27.2387691" lon="151.3640733">
  <ele>461.79</ele>
  <time>2026-09-01T20:01:50Z</time>
  <course>274.91</course>
  <speed>0.13</speed>
  <fix>3d</fix>
</trkpt>
<trkpt lat="-27.238769" lon="151.3640733">
  <ele>461.95</ele>
  <time>2026-09-01T20:01:50Z</time>
  <course>183.11</course>
  <speed>0.12</speed>
  <fix>3d</fix>
</trkpt>
<trkpt lat="-27.2387692" lon="151.3640732">
  <ele>461.64</ele>
  <time>2026-09-01T20:01:50Z</time>
  <course>274.91</course>
  <speed>0.13</speed>
  <fix>3d</fix>
</trkpt>
<trkpt lat="-27.238769" lon="151.3640733">
  <ele>461.95</ele>
  <time>2026-09-01T20:01:50Z</time>
  <course>183.11</course>
  <speed>0.12</speed>
  <fix>3d</fix>
</trkpt>
<trkpt lat="-27.2387694" lon="151.3640732">
  <ele>461.49</ele>
  <time>2026-09-01T20:01:50Z</time>
  <course>274.92</course>
  <speed>0.13</speed>
  <fix>3d</fix>
</trkpt>
<trkpt lat="-27.2387692" lon="151.3640732">
  <ele>461.65</ele>
  <time>2026-09-01T20:01:50Z</time>
  <course>182.88</course>
  <speed>0.13</speed>
  <fix>3d</fix>
</trkpt>
<trkpt lat="-27.2387695" lon="151.3640732">
  <ele>461.34</ele>
  <time>2026-09-01T20:01:50Z</time>
  <course>274.95</course>
  <speed>0.14</speed>
  <fix>3d</fix>
</trkpt>
<trkpt lat="-27.2387692" lon="151.3640732">
  <ele>461.65</ele>
  <time>2026-09-01T20:01:50Z</time>
  <course>182.88</course>
  <speed>0.13</speed>
  <fix>3d</fix>
</trkpt>
<trkpt lat="-27.2387696" lon="151.3640732">
  <ele>461.19</ele>
  <time>2026-09-01T20:01:50Z</time>
  <course>274.98</course>
  <speed>0.14</speed>
  <fix>3d</fix>
</trkpt>
<trkpt lat="-27.2387694" lon="151.3640732">
  <ele>461.35</ele>
  <time>2026-09-01T20:01:50Z</time>
  <course>182.74</course>
  <speed>0.14</speed>
  <fix>3d</fix>
</trkpt>
<trkpt lat="-27.2387697" lon="151.3640732">
  <ele>461.04</ele>
  <time>2026-09-01T20:01:50Z</time>
  <course>275.0</course>
  <speed>0.14</speed>
  <fix>3d</fix>
</trkpt>
<trkpt lat="-27.2387694" lon="151.3640732">
  <ele>461.35</ele>
  <time>2026-09-01T20:01:50Z</time>
  <course>182.74</course>
  <speed>0.14</speed>
  <fix>3d</fix>
</trkpt>
<trkpt lat="-27.2387699" lon="151.3640732">
  <ele>460.89</ele>
  <time>2026-09-01T20:01:50Z</time>
  <course>275.02</course>
  <speed>0.14</speed>
  <fix>3d</fix>
</trkpt>
<trkpt lat="-27.2387697" lon="151.3640732">
  <ele>461.05</ele>
  <time>2026-09-01T20:01:50Z</time>
  <course>182.62</course>
  <speed>0.14</speed>
  <fix>3d</fix>
</trkpt>
<trkpt lat="-27.23877" lon="151.3640732">
  <ele>460.74</ele>
  <time>2026-09-01T20:01:50Z</time>
  <course>275.03</course>
  <speed>0.13</speed>
  <fix>3d</fix>
</trkpt>
<trkpt lat="-27.2387697" lon="151.3640732">
  <ele>461.05</ele>
  <time>2026-09-01T20:01:50Z</time>
  <course>182.62</course>
  <speed>0.14</speed>
  <fix>3d</fix>
</trkpt>
<trkpt lat="-27.2387701" lon="151.3640732">
  <ele>460.59</ele>
  <time>2026-09-01T20:01:50Z</time>
  <course>275.04</course>
  <speed>0.13</speed>
  <fix>3d</fix>
</trkpt>
<trkpt lat="-27.23877" lon="151.3640732">
  <ele>460.75</ele>
  <time>2026-09-01T20:01:50Z</time>
  <course>182.73</course>
  <speed>0.13</speed>
  <fix>3d</fix>
</trkpt>
<trkpt lat="-27.2387702" lon="151.3640732">
  <ele>460.44</ele>
  <time>2026-09-01T20:01:50Z</time>
  <course>275.03</course>
  <speed>0.13</speed>
  <fix>3d</fix>
</trkpt>
<trkpt lat="-27.23877" lon="151.3640732">
  <ele>460.75</ele>
  <time>2026-09-01T20:01:50Z</time>
  <course>182.73</course>
  <speed>0.13</speed>
  <fix>3d</fix>
</trkpt>
<trkpt lat="-27.2387703" lon="151.3640732">
  <ele>460.29</ele>
  <time>2026-09-01T20:01:50Z</time>
  <course>275.03</course>
  <speed>0.12</speed>
  <fix>3d</fix>
</trkpt>
<trkpt lat="-27.2387702" lon="151.3640732">
  <ele>460.45</ele>
  <time>2026-09-01T20:01:50Z</time>
  <course>182.99</course>
  <speed>0.13</speed>
  <fix>3d</fix>
</trkpt>
<trkpt lat="-27.2387705" lon="151.3640732">
  <ele>460.14</ele>
  <time>2026-09-01T20:01:50Z</time>
  <course>275.03</course>
  <speed>0.12</speed>
  <fix>3d</fix>
</trkpt>
<trkpt lat="-27.2387702" lon="151.3640732">
  <ele>460.45</ele>
  <time>2026-09-01T20:01:50Z</time>
  <course>182.99</course>
  <speed>0.13</speed>
  <fix>3d</fix>
</trkpt>
<trkpt lat="-27.2387706" lon="151.3640732">
  <ele>459.99</ele>
  <time>2026-09-01T20:01:50Z</time>
  <course>275.03</course>
  <speed>0.11</speed>
  <fix>3d</fix>
</trkpt>
<trkpt lat="-27.2387704" lon="151.3640732">
  <ele>460.15</ele>
  <time>2026-09-01T20:01:50Z</time>
  <course>183.24</course>
  <speed>0.12</speed>
  <fix>3d</fix>
</trkpt>
<trkpt lat="-27.2387707" lon="151.3640732">
  <ele>459.84</ele>
  <time>2026-09-01T20:01:50Z</time>
  <course>275.03</course>
  <speed>0.11</speed>
  <fix>3d</fix>
</trkpt>
<trkpt lat="-27.2387704" lon="151.3640732">
  <ele>460.15</ele>
  <time>2026-09-01T20:01:50Z</time>
  <course>183.24</course>
  <speed>0.12</speed>
  <fix>3d</fix>
</trkpt>
<trkpt lat="-27.2387708" lon="151.3640732">
  <ele>459.69</ele>
  <time>2026-09-01T20:01:50Z</time>
  <course>275.03</course>
  <speed>0.1</speed>
  <fix>3d</fix>
</trkpt>
<trkpt lat="-27.2387706" lon="151.3640732">
  <ele>459.85</ele>
  <time>2026-09-01T20:01:50Z</time>
  <course>183.41</course>
  <speed>0.11</speed>
  <fix>3d</fix>
</trkpt>
<trkpt lat="-27.2387709" lon="151.364073">
  <ele>459.54</ele>
  <time>2026-09-01T20:01:50Z</time>
  <course>275.02</course>
  <speed>0.09</speed>
  <fix>3d</fix>
</trkpt>
<trkpt lat="-27.2387706" lon="151.3640732">
  <ele>459.85</ele>
  <time>2026-09-01T20:01:50Z</time>
  <course>183.41</course>
  <speed>0.11</speed>
  <fix>3d</fix>
</trkpt>
<trkpt lat="-27.2387709" lon="151.364073">
  <ele>459.39</ele>
  <time>2026-09-01T20:01:50Z</time>
  <course>275.01</course>
  <speed>0.08</speed>
  <fix>3d</fix>
</trkpt>
<trkpt lat="-27.2387708" lon="151.3640731">
  <ele>459.55</ele>
  <time>2026-09-01T20:01:50Z</time>
  <course>183.36</course>
  <speed>0.09</speed>
  <fix>3d</fix>
</trkpt>
<trkpt lat="-27.238771" lon="151.364073">
  <ele>459.24</ele>
  <time>2026-09-01T20:01:50Z</time>
  <course>275.0</course>
  <speed>0.08</speed>
  <fix>3d</fix>
</trkpt>
<trkpt lat="-27.2387708" lon="151.3640731">
  <ele>459.55</ele>
  <time>2026-09-01T20:01:51Z</time>
  <course>183.36</course>
  <speed>0.09</speed>
  <fix>3d</fix>
</trkpt>
<trkpt lat="-27.2387711" lon="151.364073">
  <ele>459.09</ele>
  <time>2026-09-01T20:01:51Z</time>
  <course>274.98</course>
  <speed>0.07</speed>
  <fix>3d</fix>
</trkpt>
<trkpt lat="-27.238771" lon="151.364073">
  <ele>459.25</ele>
  <time>2026-09-01T20:01:51Z</time>
  <course>182.7</course>
  <speed>0.08</speed>
  <fix>3d</fix>
</trkpt>
<trkpt lat="-27.2387711" lon="151.364073">
  <ele>458.94</ele>
  <time>2026-09-01T20:01:51Z</time>
  <course>274.97</course>
  <speed>0.06</speed>
  <fix>3d</fix>
</trkpt>
<trkpt lat="-27.238771" lon="151.364073">
  <ele>459.25</ele>
  <time>2026-09-01T20:01:51Z</time>
  <course>182.7</course>
  <speed>0.08</speed>
  <fix>3d</fix>
</trkpt>
<trkpt lat="-27.2387712" lon="151.364073">
  <ele>458.79</ele>
  <time>2026-09-01T20:01:51Z</time>
  <course>274.95</course>
  <speed>0.05</speed>
  <fix>3d</fix>
</trkpt>
<trkpt lat="-27.2387711" lon="151.364073">
  <ele>458.94</ele>
  <time>2026-09-01T20:01:51Z</time>
  <course>181.2</course>
  <speed>0.06</speed>
  <fix>3d</fix>
</trkpt>
<trkpt lat="-27.2387712" lon="151.364073">
  <ele>458.64</ele>
  <time>2026-09-01T20:01:51Z</time>
  <course>274.92</course>
  <speed>0.04</speed>
  <fix>3d</fix>
</trkpt>
<trkpt lat="-27.2387711" lon="151.364073">
  <ele>458.94</ele>
  <time>2026-09-01T20:01:51Z</time>
  <course>181.2</course>
  <speed>0.06</speed>
  <fix>3d</fix>
</trkpt>
<trkpt lat="-27.2387713" lon="151.364073">
  <ele>458.49</ele>
  <time>2026-09-01T20:01:51Z</time>
  <course>274.89</course>
  <speed>0.03</speed>
  <fix>3d</fix>
</trkpt>
<trkpt lat="-27.2387712" lon="151.364073">
  <ele>458.64</ele>
  <time>2026-09-01T20:01:51Z</time>
  <course>178.54</course>
  <speed>0.04</speed>
  <fix>3d</fix>
</trkpt>
<trkpt lat="-27.2387713" lon="151.364073">
  <ele>458.34</ele>
  <time>2026-09-01T20:01:51Z</time>
  <course>274.84</course>
  <speed>0.01</speed>
  <fix>3d</fix>
</trkpt>
<trkpt lat="-27.2387712" lon="151.364073">
  <ele>458.64</ele>
  <time>2026-09-01T20:01:51Z</time>
  <course>178.54</course>
  <speed>0.04</speed>
  <fix>3d</fix>
</trkpt>
<trkpt lat="-27.2387713" lon="151.364073">
  <ele>458.19</ele>
  <time>2026-09-01T20:01:51Z</time>
  <course>274.78</course>
  <speed>0.0</speed>
  <fix>3d</fix>
</trkpt>
<trkpt lat="-27.2387713" lon="151.364073">
  <ele>458.35</ele>
  <time>2026-09-01T20:01:51Z</time>
  <course>169.83</course>
  <speed>0.01</speed>
  <fix>3d</fix>
</trkpt>
<trkpt lat="-27.2387713" lon="151.364073">
  <ele>458.04</ele>
  <time>2026-09-01T20:01:51Z</time>
  <course>274.67</course>
  <speed>0.01</speed>
  <fix>3d</fix>
</trkpt>
<trkpt lat="-27.2387713" lon="151.364073">
  <ele>458.35</ele>
  <time>2026-09-01T20:01:51Z</time>
  <course>169.83</course>
  <speed>0.01</speed>
  <fix>3d</fix>
</trkpt>
<trkpt lat="-27.2387713" lon="151.364073">
  <ele>457.89</ele>
  <time>2026-09-01T20:01:51Z</time>
  <course>274.52</course>
  <speed>0.02</speed>
  <fix>3d</fix>
</trkpt>
<trkpt lat="-27.2387713" lon="151.364073">
  <ele>458.05</ele>
  <time>2026-09-01T20:01:51Z</time>
  <course>40.73</course>
  <speed>0.0</speed>
  <fix>3d</fix>
</trkpt>
<trkpt lat="-27.2387713" lon="151.364073">
  <ele>457.74</ele>
  <time>2026-09-01T20:01:51Z</time>
  <course>274.54</course>
  <speed>0.02</speed>
  <fix>3d</fix>
</trkpt>
<trkpt lat="-27.2387713" lon="151.364073">
  <ele>458.05</ele>
  <time>2026-09-01T20:01:51Z</time>
  <course>40.73</course>
  <speed>0.0</speed>
  <fix>3d</fix>
</trkpt>
<trkpt lat="-27.2387713" lon="151.364073">
  <ele>457.59</ele>
  <time>2026-09-01T20:01:51Z</time>
  <course>274.73</course>
  <speed>0.02</speed>
  <fix>3d</fix>
</trkpt>
<trkpt lat="-27.2387713" lon="151.364073">
  <ele>457.75</ele>
  <time>2026-09-01T20:01:51Z</time>
  <course>18.05</course>
  <speed>0.02</speed>
  <fix>3d</fix>
</trkpt>
<trkpt lat="-27.2387713" lon="151.364073">
  <ele>457.44</ele>
  <time>2026-09-01T20:01:51Z</time>
  <course>275.01</course>
  <speed>0.02</speed>
  <fix>3d</fix>
</trkpt>
<trkpt lat="-27.2387713" lon="151.364073">
  <ele>457.75</ele>
  <time>2026-09-01T20:01:51Z</time>
  <course>18.05</course>
  <speed>0.02</speed>
  <fix>3d</fix>
</trkpt>
<trkpt lat="-27.2387713" lon="151.364073">
  <ele>457.29</ele>
  <time>2026-09-01T20:01:51Z</time>
  <course>275.33</course>
  <speed>0.02</speed>
  <fix>3d</fix>
</trkpt>
<trkpt lat="-27.2387713" lon="151.364073">
  <ele>457.45</ele>
  <time>2026-09-01T20:01:51Z</time>
  <course>17.52</course>
  <speed>0.02</speed>
  <fix>3d</fix>
</trkpt>
<trkpt lat="-27.2387713" lon="151.364073">
  <ele>457.14</ele>
  <time>2026-09-01T20:01:51Z</time>
  <course>275.63</course>
  <speed>0.02</speed>
  <fix>3d</fix>
</trkpt>
<trkpt lat="-27.2387713" lon="151.364073">
  <ele>457.45</ele>
  <time>2026-09-01T20:01:51Z</time>
  <course>17.52</course>
  <speed>0.02</speed>
  <fix>3d</fix>
</trkpt>
<trkpt lat="-27.2387713" lon="151.364073">
  <ele>456.99</ele>
  <time>2026-09-01T20:01:51Z</time>
  <course>275.88</course>
  <speed>0.01</speed>
  <fix>3d</fix>
</trkpt>
<trkpt lat="-27.2387713" lon="151.364073">
  <ele>457.15</ele>
  <time>2026-09-01T20:01:51Z</time>
  <course>18.21</course>
  <speed>0.02</speed>
  <fix>3d</fix>
</trkpt>
<trkpt lat="-27.2387713" lon="151.364073">
  <ele>456.84</ele>
  <time>2026-09-01T20:01:51Z</time>
  <course>276.06</course>
  <speed>0.01</speed>
  <fix>3d</fix>
</trkpt>
<trkpt lat="-27.2387713" lon="151.364073">
  <ele>457.15</ele>
  <time>2026-09-01T20:01:51Z</time>
  <course>18.21</course>
  <speed>0.02</speed>
  <fix>3d</fix>
</trkpt>
<trkpt lat="-27.2387712" lon="151.364073">
  <ele>456.69</ele>
  <time>2026-09-01T20:01:51Z</time>
  <course>276.16</course>
  <speed>0.01</speed>
  <fix>3d</fix>
</trkpt>
<trkpt lat="-27.2387712" lon="151.364073">
  <ele>456.85</ele>
  <time>2026-09-01T20:01:51Z</time>
  <course>19.65</course>
  <speed>0.01</speed>
  <fix>3d</fix>
</trkpt>
<trkpt lat="-27.2387712" lon="151.364073">
  <ele>456.54</ele>
  <time>2026-09-01T20:01:51Z</time>
  <course>276.21</course>
  <speed>0.01</speed>
  <fix>3d</fix>
</trkpt>
<trkpt lat="-27.2387712" lon="151.364073">
  <ele>456.85</ele>
  <time>2026-09-01T20:01:51Z</time>
  <course>19.65</course>
  <speed>0.01</speed>
  <fix>3d</fix>
</trkpt>
<trkpt lat="-27.2387712" lon="151.364073">
  <ele>456.39</ele>
  <time>2026-09-01T20:01:51Z</time>
  <course>276.19</course>
  <speed>0.01</speed>
  <fix>3d</fix>
</trkpt>
<trkpt lat="-27.2387712" lon="151.364073">
  <ele>456.55</ele>
  <time>2026-09-01T20:01:51Z</time>
  <course>20.95</course>
  <speed>0.01</speed>
  <fix>3d</fix>
</trkpt>
<trkpt lat="-27.2387712" lon="151.364073">
  <ele>456.24</ele>
  <time>2026-09-01T20:01:51Z</time>
  <course>276.14</course>
  <speed>0.01</speed>
  <fix>3d</fix>
</trkpt>
<trkpt lat="-27.2387712" lon="151.364073">
  <ele>456.55</ele>
  <time>2026-09-01T20:01:51Z</time>
  <course>20.95</course>
  <speed>0.01</speed>
  <fix>3d</fix>
</trkpt>
<trkpt lat="-27.2387712" lon="151.364073">
  <ele>456.09</ele>
  <time>2026-09-01T20:01:51Z</time>
  <course>276.08</course>
  <speed>0.01</speed>
  <fix>3d</fix>
</trkpt>
<trkpt lat="-27.2387712" lon="151.364073">
  <ele>456.25</ele>
  <time>2026-09-01T20:01:51Z</time>
  <course>22.34</course>
  <speed>0.01</speed>
  <fix>3d</fix>
</trkpt>
<trkpt lat="-27.2387712" lon="151.364073">
  <ele>455.94</ele>
  <time>2026-09-01T20:01:51Z</time>
  <course>276.02</course>
  <speed>0.01</speed>
  <fix>3d</fix>
</trkpt>
<trkpt lat="-27.2387712" lon="151.364073">
  <ele>456.25</ele>
  <time>2026-09-01T20:01:51Z</time>
  <course>22.34</course>
  <speed>0.01</speed>
  <fix>3d</fix>
</trkpt>
<trkpt lat="-27.2387712" lon="151.3640732">
  <ele>455.79</ele>
  <time>2026-09-01T20:01:51Z</time>
  <course>275.99</course>
  <speed>0.01</speed>
  <fix>3d</fix>
</trkpt>
<trkpt lat="-27.2387712" lon="151.3640731">
  <ele>455.95</ele>
  <time>2026-09-01T20:01:51Z</time>
  <course>24.83</course>
  <speed>0.01</speed>
  <fix>3d</fix>
</trkpt>
<trkpt lat="-27.2387711" lon="151.3640732">
  <ele>455.64</ele>
  <time>2026-09-01T20:01:51Z</time>
  <course>275.99</course>
  <speed>0.01</speed>
  <fix>3d</fix>
</trkpt>
<trkpt lat="-27.2387712" lon="151.3640731">
  <ele>455.95</ele>
  <time>2026-09-01T20:01:51Z</time>
  <course>24.83</course>
  <speed>0.01</speed>
  <fix>3d</fix>
</trkpt>
<trkpt lat="-27.2387711" lon="151.3640732">
  <ele>455.49</ele>
  <time>2026-09-01T20:01:51Z</time>
  <course>275.99</course>
  <speed>0.01</speed>
  <fix>3d</fix>
</trkpt>
<trkpt lat="-27.2387711" lon="151.3640732">
  <ele>455.65</ele>
  <time>2026-09-01T20:01:51Z</time>
  <course>25.31</course>
  <speed>0.01</speed>
  <fix>3d</fix>
</trkpt>
<trkpt lat="-27.2387711" lon="151.3640732">
  <ele>455.34</ele>
  <time>2026-09-01T20:01:51Z</time>
  <course>275.99</course>
  <speed>0.01</speed>
  <fix>3d</fix>
</trkpt>
<trkpt lat="-27.2387711" lon="151.3640732">
  <ele>455.65</ele>
  <time>2026-09-01T20:01:51Z</time>
  <course>25.31</course>
  <speed>0.01</speed>
  <fix>3d</fix>
</trkpt>
<trkpt lat="-27.2387711" lon="151.3640732">
  <ele>455.19</ele>
  <time>2026-09-01T20:01:51Z</time>
  <course>275.99</course>
  <speed>0.01</speed>
  <fix>3d</fix>
</trkpt>
<trkpt lat="-27.2387711" lon="151.3640732">
  <ele>455.35</ele>
  <time>2026-09-01T20:01:51Z</time>
  <course>22.75</course>
  <speed>0.01</speed>
  <fix>3d</fix>
</trkpt>
<trkpt lat="-27.2387711" lon="151.3640732">
  <ele>455.04</ele>
  <time>2026-09-01T20:01:51Z</time>
  <course>275.98</course>
  <speed>0.01</speed>
  <fix>3d</fix>
</trkpt>
<trkpt lat="-27.2387711" lon="151.3640732">
  <ele>455.35</ele>
  <time>2026-09-01T20:01:51Z</time>
  <course>22.75</course>
  <speed>0.01</speed>
  <fix>3d</fix>
</trkpt>
<trkpt lat="-27.2387711" lon="151.3640732">
  <ele>454.89</ele>
  <time>2026-09-01T20:01:51Z</time>
  <course>275.99</course>
  <speed>0.01</speed>
  <fix>3d</fix>
</trkpt>
<trkpt lat="-27.2387711" lon="151.3640732">
  <ele>455.35</ele>
  <time>2026-09-01T20:01:51Z</time>
  <course>22.75</course>
  <speed>0.01</speed>
  <fix>3d</fix>
</trkpt>
<trkpt lat="-27.2387711" lon="151.3640732">
  <ele>454.74</ele>
  <time>2026-09-01T20:01:51Z</time>
  <course>275.99</course>
  <speed>0.01</speed>
  <fix>3d</fix>
</trkpt>
<trkpt lat="-27.2387711" lon="151.3640732">
  <ele>455.04</ele>
  <time>2026-09-01T20:01:51Z</time>
  <course>19.33</course>
  <speed>0.01</speed>
  <fix>3d</fix>
</trkpt>
<trkpt lat="-27.238771" lon="151.3640732">
  <ele>454.59</ele>
  <time>2026-09-01T20:01:51Z</time>
  <course>276.0</course>
  <speed>0.01</speed>
  <fix>3d</fix>
</trkpt>
<trkpt lat="-27.238771" lon="151.3640732">
  <ele>454.74</ele>
  <time>2026-09-01T20:01:51Z</time>
  <course>16.14</course>
  <speed>0.01</speed>
  <fix>3d</fix>
</trkpt>
<trkpt lat="-27.238771" lon="151.3640732">
  <ele>454.44</ele>
  <time>2026-09-01T20:01:51Z</time>
  <course>276.02</course>
  <speed>0.01</speed>
  <fix>3d</fix>
</trkpt>
<trkpt lat="-27.238771" lon="151.3640732">
  <ele>454.74</ele>
  <time>2026-09-01T20:01:51Z</time>
  <course>16.14</course>
  <speed>0.01</speed>
  <fix>3d</fix>
</trkpt>
<trkpt lat="-27.238771" lon="151.3640732">
  <ele>454.29</ele>
  <time>2026-09-01T20:01:51Z</time>
  <course>276.03</course>
  <speed>0.01</speed>
  <fix>3d</fix>
</trkpt>
<trkpt lat="-27.238771" lon="151.3640732">
  <ele>454.44</ele>
  <time>2026-09-01T20:01:51Z</time>
  <course>13.56</course>
  <speed>0.01</speed>
  <fix>3d</fix>
</trkpt>
<trkpt lat="-27.238771" lon="151.3640732">
  <ele>454.14</ele>
  <time>2026-09-01T20:01:51Z</time>
  <course>276.05</course>
  <speed>0.01</speed>
  <fix>3d</fix>
</trkpt>
<trkpt lat="-27.238771" lon="151.3640732">
  <ele>454.44</ele>
  <time>2026-09-01T20:01:51Z</time>
  <course>13.56</course>
  <speed>0.01</speed>
  <fix>3d</fix>
</trkpt>
<trkpt lat="-27.238771" lon="151.3640732">
  <ele>453.99</ele>
  <time>2026-09-01T20:01:51Z</time>
  <course>276.06</course>
  <speed>0.01</speed>
  <fix>3d</fix>
</trkpt>
<trkpt lat="-27.238771" lon="151.3640732">
  <ele>454.14</ele>
  <time>2026-09-01T20:01:51Z</time>
  <course>10.34</course>
  <speed>0.01</speed>
  <fix>3d</fix>
</trkpt>
<trkpt lat="-27.238771" lon="151.3640732">
  <ele>453.84</ele>
  <time>2026-09-01T20:01:51Z</time>
  <course>276.09</course>
  <speed>0.01</speed>
  <fix>3d</fix>
</trkpt>
<trkpt lat="-27.238771" lon="151.3640732">
  <ele>454.14</ele>
  <time>2026-09-01T20:01:51Z</time>
  <course>10.34</course>
  <speed>0.01</speed>
  <fix>3d</fix>
</trkpt>
<trkpt lat="-27.238771" lon="151.3640732">
  <ele>453.69</ele>
  <time>2026-09-01T20:01:51Z</time>
  <course>276.11</course>
  <speed>0.01</speed>
  <fix>3d</fix>
</trkpt>
<trkpt lat="-27.238771" lon="151.3640732">
  <ele>453.84</ele>
  <time>2026-09-01T20:01:51Z</time>
  <course>6.87</course>
  <speed>0.01</speed>
  <fix>3d</fix>
</trkpt>
<trkpt lat="-27.238771" lon="151.3640732">
  <ele>453.54</ele>
  <time>2026-09-01T20:01:51Z</time>
  <course>276.14</course>
  <speed>0.01</speed>
  <fix>3d</fix>
</trkpt>
<trkpt lat="-27.238771" lon="151.3640732">
  <ele>453.84</ele>
  <time>2026-09-01T20:01:51Z</time>
  <course>6.87</course>
  <speed>0.01</speed>
  <fix>3d</fix>
</trkpt>
<trkpt lat="-27.2387709" lon="151.3640732">
  <ele>453.39</ele>
  <time>2026-09-01T20:01:51Z</time>
  <course>276.17</course>
  <speed>0.01</speed>
  <fix>3d</fix>
</trkpt>
<trkpt lat="-27.2387709" lon="151.3640732">
  <ele>453.55</ele>
  <time>2026-09-01T20:01:51Z</time>
  <course>5.46</course>
  <speed>0.01</speed>
  <fix>3d</fix>
</trkpt>
<trkpt lat="-27.2387709" lon="151.3640732">
  <ele>453.24</ele>
  <time>2026-09-01T20:01:51Z</time>
  <course>276.18</course>
  <speed>0.01</speed>
  <fix>3d</fix>
</trkpt>
<trkpt lat="-27.2387709" lon="151.3640732">
  <ele>453.55</ele>
  <time>2026-09-01T20:01:51Z</time>
  <course>5.46</course>
  <speed>0.01</speed>
  <fix>3d</fix>
</trkpt>
<trkpt lat="-27.2387709" lon="151.3640732">
  <ele>453.09</ele>
  <time>2026-09-01T20:01:51Z</time>
  <course>276.18</course>
  <speed>0.01</speed>
  <fix>3d</fix>
</trkpt>
<trkpt lat="-27.2387709" lon="151.3640732">
  <ele>453.25</ele>
  <time>2026-09-01T20:01:51Z</time>
  <course>4.63</course>
  <speed>0.01</speed>
  <fix>3d</fix>
</trkpt>
<trkpt lat="-27.2387709" lon="151.3640732">
  <ele>452.94</ele>
  <time>2026-09-01T20:01:51Z</time>
  <course>276.17</course>
  <speed>0.01</speed>
  <fix>3d</fix>
</trkpt>
<trkpt lat="-27.2387709" lon="151.3640732">
  <ele>453.25</ele>
  <time>2026-09-01T20:01:51Z</time>
  <course>4.63</course>
  <speed>0.01</speed>
  <fix>3d</fix>
</trkpt>
<trkpt lat="-27.2387709" lon="151.3640732">
  <ele>452.79</ele>
  <time>2026-09-01T20:01:51Z</time>
  <course>276.15</course>
  <speed>0.01</speed>
  <fix>3d</fix>
</trkpt>
<trkpt lat="-27.2387709" lon="151.3640732">
  <ele>452.95</ele>
  <time>2026-09-01T20:01:51Z</time>
  <course>1.84</course>
  <speed>0.01</speed>
  <fix>3d</fix>
</trkpt>
<trkpt lat="-27.2387709" lon="151.3640732">
  <ele>452.64</ele>
  <time>2026-09-01T20:01:51Z</time>
  <course>276.15</course>
  <speed>0.01</speed>
  <fix>3d</fix>
</trkpt>
<trkpt lat="-27.2387709" lon="151.3640732">
  <ele>452.95</ele>
  <time>2026-09-01T20:01:51Z</time>
  <course>1.84</course>
  <speed>0.01</speed>
  <fix>3d</fix>
</trkpt>
<trkpt lat="-27.2387709" lon="151.3640732">
  <ele>452.49</ele>
  <time>2026-09-01T20:01:51Z</time>
  <course>276.15</course>
  <speed>0.01</speed>
  <fix>3d</fix>
</trkpt>
<trkpt lat="-27.2387709" lon="151.3640732">
  <ele>452.65</ele>
  <time>2026-09-01T20:01:51Z</time>
  <course>357.46</course>
  <speed>0.01</speed>
  <fix>3d</fix>
</trkpt>
<trkpt lat="-27.2387709" lon="151.3640732">
  <ele>452.34</ele>
  <time>2026-09-01T20:01:51Z</time>
  <course>276.16</course>
  <speed>0.01</speed>
  <fix>3d</fix>
</trkpt>
<trkpt lat="-27.2387709" lon="151.3640732">
  <ele>452.65</ele>
  <time>2026-09-01T20:01:51Z</time>
  <course>357.46</course>
  <speed>0.01</speed>
  <fix>3d</fix>
</trkpt>
<trkpt lat="-27.2387709" lon="151.3640732">
  <ele>452.19</ele>
  <time>2026-09-01T20:01:51Z</time>
  <course>276.16</course>
  <speed>0.01</speed>
  <fix>3d</fix>
</trkpt>
<trkpt lat="-27.2387709" lon="151.3640732">
  <ele>452.35</ele>
  <time>2026-09-01T20:01:51Z</time>
  <course>352.76</course>
  <speed>0.01</speed>
  <fix>3d</fix>
</trkpt>
<trkpt lat="-27.2387708" lon="151.3640732">
  <ele>452.04</ele>
  <time>2026-09-01T20:01:51Z</time>
  <course>276.15</course>
  <speed>0.01</speed>
  <fix>3d</fix>
</trkpt>
<trkpt lat="-27.2387709" lon="151.3640732">
  <ele>452.35</ele>
  <time>2026-09-01T20:01:51Z</time>
  <course>352.76</course>
  <speed>0.01</speed>
  <fix>3d</fix>
</trkpt>
<trkpt lat="-27.2387708" lon="151.3640732">
  <ele>451.89</ele>
  <time>2026-09-01T20:01:51Z</time>
  <course>276.15</course>
  <speed>0.01</speed>
  <fix>3d</fix>
</trkpt>
<trkpt lat="-27.2387709" lon="151.3640732">
  <ele>452.35</ele>
  <time>2026-09-01T20:01:51Z</time>
  <course>352.76</course>
  <speed>0.01</speed>
  <fix>3d</fix>
</trkpt>
<trkpt lat="-27.2387708" lon="151.3640732">
  <ele>451.74</ele>
  <time>2026-09-01T20:01:51Z</time>
  <course>276.14</course>
  <speed>0.01</speed>
  <fix>3d</fix>
</trkpt>
<trkpt lat="-27.2387708" lon="151.3640732">
  <ele>452.04</ele>
  <time>2026-09-01T20:01:51Z</time>
  <course>347.81</course>
  <speed>0.01</speed>
  <fix>3d</fix>
</trkpt>
<trkpt lat="-27.2387708" lon="151.3640732">
  <ele>451.59</ele>
  <time>2026-09-01T20:01:51Z</time>
  <course>276.13</course>
  <speed>0.01</speed>
  <fix>3d</fix>
</trkpt>
<trkpt lat="-27.2387708" lon="151.3640732">
  <ele>452.04</ele>
  <time>2026-09-01T20:01:51Z</time>
  <course>347.81</course>
  <speed>0.01</speed>
  <fix>3d</fix>
</trkpt>
<trkpt lat="-27.2387708" lon="151.3640732">
  <ele>451.44</ele>
  <time>2026-09-01T20:01:51Z</time>
  <course>276.12</course>
  <speed>0.01</speed>
  <fix>3d</fix>
</trkpt>
<trkpt lat="-27.2387708" lon="151.3640732">
  <ele>451.74</ele>
  <time>2026-09-01T20:01:51Z</time>
  <course>343.94</course>
  <speed>0.01</speed>
  <fix>3d</fix>
</trkpt>
<trkpt lat="-27.2387708" lon="151.3640732">
  <ele>451.29</ele>
  <time>2026-09-01T20:01:51Z</time>
  <course>276.12</course>
  <speed>0.01</speed>
  <fix>3d</fix>
</trkpt>
<trkpt lat="-27.2387708" lon="151.3640732">
  <ele>451.74</ele>
  <time>2026-09-01T20:01:51Z</time>
  <course>343.94</course>
  <speed>0.01</speed>
  <fix>3d</fix>
</trkpt>
<trkpt lat="-27.2387708" lon="151.3640732">
  <ele>451.14</ele>
  <time>2026-09-01T20:01:51Z</time>
  <course>276.13</course>
  <speed>0.01</speed>
  <fix>3d</fix>
</trkpt>
<trkpt lat="-27.2387708" lon="151.3640732">
  <ele>451.44</ele>
  <time>2026-09-01T20:01:51Z</time>
  <course>341.15</course>
  <speed>0.01</speed>
  <fix>3d</fix>
</trkpt>
<trkpt lat="-27.2387708" lon="151.3640732">
  <ele>450.99</ele>
  <time>2026-09-01T20:01:51Z</time>
  <course>276.14</course>
  <speed>0.0</speed>
  <fix>3d</fix>
</trkpt>
<trkpt lat="-27.2387708" lon="151.3640732">
  <ele>451.44</ele>
  <time>2026-09-01T20:01:51Z</time>
  <course>341.15</course>
  <speed>0.01</speed>
  <fix>3d</fix>
</trkpt>
<trkpt lat="-27.2387708" lon="151.3640732">
  <ele>450.84</ele>
  <time>2026-09-01T20:01:51Z</time>
  <course>276.17</course>
  <speed>0.0</speed>
  <fix>3d</fix>
</trkpt>
<trkpt lat="-27.2387708" lon="151.3640732">
  <ele>451.14</ele>
  <time>2026-09-01T20:01:51Z</time>
  <course>337.9</course>
  <speed>0.01</speed>
  <fix>3d</fix>
</trkpt>
<trkpt lat="-27.2387708" lon="151.3640732">
  <ele>450.69</ele>
  <time>2026-09-01T20:01:51Z</time>
  <course>276.2</course>
  <speed>0.0</speed>
  <fix>3d</fix>
</trkpt>
<trkpt lat="-27.2387708" lon="151.3640732">
  <ele>451.14</ele>
  <time>2026-09-01T20:01:51Z</time>
  <course>337.9</course>
  <speed>0.01</speed>
  <fix>3d</fix>
</trkpt>
<trkpt lat="-27.2387708" lon="151.3640732">
  <ele>450.54</ele>
  <time>2026-09-01T20:01:51Z</time>
  <course>276.23</course>
  <speed>0.0</speed>
  <fix>3d</fix>
</trkpt>
<trkpt lat="-27.2387708" lon="151.3640732">
  <ele>450.84</ele>
  <time>2026-09-01T20:01:51Z</time>
  <course>333.67</course>
  <speed>0.01</speed>
  <fix>3d</fix>
</trkpt>
<trkpt lat="-27.2387708" lon="151.3640732">
  <ele>450.39</ele>
  <time>2026-09-01T20:01:51Z</time>
  <course>276.24</course>
  <speed>0.0</speed>
  <fix>3d</fix>
</trkpt>
<trkpt lat="-27.2387708" lon="151.3640732">
  <ele>450.54</ele>
  <time>2026-09-01T20:01:51Z</time>
  <course>328.82</course>
  <speed>0.0</speed>
  <fix>3d</fix>
</trkpt>
<trkpt lat="-27.2387707" lon="151.3640732">
  <ele>450.24</ele>
  <time>2026-09-01T20:01:51Z</time>
  <course>276.25</course>
  <speed>0.0</speed>
  <fix>3d</fix>
</trkpt>
<trkpt lat="-27.2387708" lon="151.3640732">
  <ele>450.54</ele>
  <time>2026-09-01T20:01:51Z</time>
  <course>328.82</course>
  <speed>0.0</speed>
  <fix>3d</fix>
</trkpt>
<trkpt lat="-27.2387707" lon="151.3640732">
  <ele>450.09</ele>
  <time>2026-09-01T20:01:51Z</time>
  <course>276.25</course>
  <speed>0.0</speed>
  <fix>3d</fix>
</trkpt>
<trkpt lat="-27.2387707" lon="151.3640732">
  <ele>450.24</ele>
  <time>2026-09-01T20:01:51Z</time>
  <course>326.48</course>
  <speed>0.0</speed>
  <fix>3d</fix>
</trkpt>
<trkpt lat="-27.2387707" lon="151.3640732">
  <ele>449.94</ele>
  <time>2026-09-01T20:01:51Z</time>
  <course>276.24</course>
  <speed>0.0</speed>
  <fix>3d</fix>
</trkpt>
<trkpt lat="-27.2387707" lon="151.3640732">
  <ele>450.24</ele>
  <time>2026-09-01T20:01:51Z</time>
  <course>326.48</course>
  <speed>0.0</speed>
  <fix>3d</fix>
</trkpt>
<trkpt lat="-27.2387707" lon="151.3640732">
  <ele>449.79</ele>
  <time>2026-09-01T20:01:51Z</time>
  <course>276.23</course>
  <speed>0.0</speed>
  <fix>3d</fix>
</trkpt>
<trkpt lat="-27.2387707" lon="151.3640732">
  <ele>449.94</ele>
  <time>2026-09-01T20:01:51Z</time>
  <course>326.06</course>
  <speed>0.0</speed>
  <fix>3d</fix>
</trkpt>
<trkpt lat="-27.2387707" lon="151.3640732">
  <ele>449.64</ele>
  <time>2026-09-01T20:01:51Z</time>
  <course>276.22</course>
  <speed>0.0</speed>
  <fix>3d</fix>
</trkpt>
<trkpt lat="-27.2387707" lon="151.3640732">
  <ele>449.94</ele>
  <time>2026-09-01T20:01:51Z</time>
  <course>326.06</course>
  <speed>0.0</speed>
  <fix>3d</fix>
</trkpt>
<trkpt lat="-27.2387707" lon="151.3640732">
  <ele>449.49</ele>
  <time>2026-09-01T20:01:51Z</time>
  <course>276.22</course>
  <speed>0.0</speed>
  <fix>3d</fix>
</trkpt>
<trkpt lat="-27.2387707" lon="151.3640732">
  <ele>449.65</ele>
  <time>2026-09-01T20:01:51Z</time>
  <course>322.62</course>
  <speed>0.0</speed>
  <fix>3d</fix>
</trkpt>
<trkpt lat="-27.2387707" lon="151.3640732">
  <ele>449.34</ele>
  <time>2026-09-01T20:01:51Z</time>
  <course>276.24</course>
  <speed>0.0</speed>
  <fix>3d</fix>
</trkpt>
<trkpt lat="-27.2387707" lon="151.3640732">
  <ele>449.65</ele>
  <time>2026-09-01T20:01:51Z</time>
  <course>322.62</course>
  <speed>0.0</speed>
  <fix>3d</fix>
</trkpt>
<trkpt lat="-27.2387707" lon="151.3640732">
  <ele>449.19</ele>
  <time>2026-09-01T20:01:51Z</time>
  <course>276.26</course>
  <speed>0.0</speed>
  <fix>3d</fix>
</trkpt>
<trkpt lat="-27.2387707" lon="151.3640732">
  <ele>449.35</ele>
  <time>2026-09-01T20:01:51Z</time>
  <course>316.83</course>
  <speed>0.0</speed>
  <fix>3d</fix>
</trkpt>
<trkpt lat="-27.2387707" lon="151.3640732">
  <ele>449.04</ele>
  <time>2026-09-01T20:01:51Z</time>
  <course>276.27</course>
  <speed>0.0</speed>
  <fix>3d</fix>
</trkpt>
<trkpt lat="-27.2387707" lon="151.3640732">
  <ele>449.35</ele>
  <time>2026-09-01T20:01:51Z</time>
  <course>316.83</course>
  <speed>0.0</speed>
  <fix>3d</fix>
</trkpt>
<trkpt lat="-27.2387707" lon="151.3640732">
  <ele>448.89</ele>
  <time>2026-09-01T20:01:51Z</time>
  <course>276.28</course>
  <speed>0.0</speed>
  <fix>3d</fix>
</trkpt>
<trkpt lat="-27.2387707" lon="151.3640732">
  <ele>449.05</ele>
  <time>2026-09-01T20:01:51Z</time>
  <course>313.86</course>
  <speed>0.0</speed>
  <fix>3d</fix>
</trkpt>
<trkpt lat="-27.2387707" lon="151.3640732">
  <ele>448.74</ele>
  <time>2026-09-01T20:01:51Z</time>
  <course>276.28</course>
  <speed>0.0</speed>
  <fix>3d</fix>
</trkpt>
<trkpt lat="-27.2387707" lon="151.3640732">
  <ele>449.05</ele>
  <time>2026-09-01T20:01:51Z</time>
  <course>313.86</course>
  <speed>0.0</speed>
  <fix>3d</fix>
</trkpt>
<trkpt lat="-27.2387707" lon="151.3640732">
  <ele>448.59</ele>
  <time>2026-09-01T20:01:51Z</time>
  <course>276.26</course>
  <speed>0.0</speed>
  <fix>3d</fix>
</trkpt>
<trkpt lat="-27.2387707" lon="151.3640732">
  <ele>449.05</ele>
  <time>2026-09-01T20:01:51Z</time>
  <course>313.86</course>
  <speed>0.0</speed>
  <fix>3d</fix>
</trkpt>
<trkpt lat="-27.2387707" lon="151.3640732">
  <ele>448.44</ele>
  <time>2026-09-01T20:01:51Z</time>
  <course>276.25</course>
  <speed>0.0</speed>
  <fix>3d</fix>
</trkpt>
<trkpt lat="-27.2387707" lon="151.3640732">
  <ele>448.75</ele>
  <time>2026-09-01T20:01:51Z</time>
  <course>312.5</course>
  <speed>0.0</speed>
  <fix>3d</fix>
</trkpt>
<trkpt lat="-27.2387707" lon="151.3640732">
  <ele>448.29</ele>
  <time>2026-09-01T20:01:51Z</time>
  <course>276.25</course>
  <speed>0.0</speed>
  <fix>3d</fix>
</trkpt>
<trkpt lat="-27.2387707" lon="151.3640732">
  <ele>448.75</ele>
  <time>2026-09-01T20:01:51Z</time>
  <course>312.5</course>
  <speed>0.0</speed>
  <fix>3d</fix>
</trkpt>
<trkpt lat="-27.2387707" lon="151.3640732">
  <ele>448.14</ele>
  <time>2026-09-01T20:01:51Z</time>
  <course>276.25</course>
  <speed>0.0</speed>
  <fix>3d</fix>
</trkpt>
<trkpt lat="-27.2387707" lon="151.3640732">
  <ele>448.45</ele>
  <time>2026-09-01T20:01:51Z</time>
  <course>309.4</course>
  <speed>0.0</speed>
  <fix>3d</fix>
</trkpt>
<trkpt lat="-27.2387707" lon="151.3640732">
  <ele>447.99</ele>
  <time>2026-09-01T20:01:51Z</time>
  <course>276.25</course>
  <speed>0.0</speed>
  <fix>3d</fix>
</trkpt>
<trkpt lat="-27.2387707" lon="151.3640732">
  <ele>448.45</ele>
  <time>2026-09-01T20:01:51Z</time>
  <course>309.4</course>
  <speed>0.0</speed>
  <fix>3d</fix>
</trkpt>
<trkpt lat="-27.2387707" lon="151.3640732">
  <ele>447.84</ele>
  <time>2026-09-01T20:01:51Z</time>
  <course>276.25</course>
  <speed>0.0</speed>
  <fix>3d</fix>
</trkpt>
<trkpt lat="-27.2387707" lon="151.3640732">
  <ele>448.15</ele>
  <time>2026-09-01T20:01:51Z</time>
  <course>305.81</course>
  <speed>0.0</speed>
  <fix>3d</fix>
</trkpt>
<trkpt lat="-27.2387706" lon="151.3640732">
  <ele>447.69</ele>
  <time>2026-09-01T20:01:51Z</time>
  <course>276.27</course>
  <speed>0.0</speed>
  <fix>3d</fix>
</trkpt>
<trkpt lat="-27.2387707" lon="151.3640732">
  <ele>448.15</ele>
  <time>2026-09-01T20:01:51Z</time>
  <course>305.81</course>
  <speed>0.0</speed>
  <fix>3d</fix>
</trkpt>
<trkpt lat="-27.2387706" lon="151.364073">
  <ele>447.54</ele>
  <time>2026-09-01T20:01:51Z</time>
  <course>276.29</course>
  <speed>0.0</speed>
  <fix>3d</fix>
</trkpt>
<trkpt lat="-27.2387706" lon="151.3640732">
  <ele>447.85</ele>
  <time>2026-09-01T20:01:51Z</time>
  <course>301.25</course>
  <speed>0.0</speed>
  <fix>3d</fix>
</trkpt>
<trkpt lat="-27.2387706" lon="151.364073">
  <ele>447.39</ele>
  <time>2026-09-01T20:01:51Z</time>
  <course>276.31</course>
  <speed>0.0</speed>
  <fix>3d</fix>
</trkpt>
<trkpt lat="-27.2387706" lon="151.3640732">
  <ele>447.85</ele>
  <time>2026-09-01T20:01:51Z</time>
  <course>301.25</course>
  <speed>0.0</speed>
  <fix>3d</fix>
</trkpt>
<trkpt lat="-27.2387706" lon="151.364073">
  <ele>447.24</ele>
  <time>2026-09-01T20:01:51Z</time>
  <course>276.33</course>
  <speed>0.0</speed>
  <fix>3d</fix>
</trkpt>
<trkpt lat="-27.2387706" lon="151.3640731">
  <ele>447.55</ele>
  <time>2026-09-01T20:01:51Z</time>
  <course>296.56</course>
  <speed>0.0</speed>
  <fix>3d</fix>
</trkpt>
<trkpt lat="-27.2387706" lon="151.364073">
  <ele>447.09</ele>
  <time>2026-09-01T20:01:51Z</time>
  <course>276.33</course>
  <speed>0.0</speed>
  <fix>3d</fix>
</trkpt>
<trkpt lat="-27.2387706" lon="151.3640731">
  <ele>447.55</ele>
  <time>2026-09-01T20:01:51Z</time>
  <course>296.56</course>
  <speed>0.0</speed>
  <fix>3d</fix>
</trkpt>
<trkpt lat="-27.2387706" lon="151.364073">
  <ele>446.94</ele>
  <time>2026-09-01T20:01:51Z</time>
  <course>276.33</course>
  <speed>0.0</speed>
  <fix>3d</fix>
</trkpt>
<trkpt lat="-27.2387706" lon="151.364073">
  <ele>447.25</ele>
  <time>2026-09-01T20:01:51Z</time>
  <course>294.53</course>
  <speed>0.0</speed>
  <fix>3d</fix>
</trkpt>
<trkpt lat="-27.2387706" lon="151.364073">
  <ele>446.79</ele>
  <time>2026-09-01T20:01:51Z</time>
  <course>276.32</course>
  <speed>0.0</speed>
  <fix>3d</fix>
</trkpt>
<trkpt lat="-27.2387706" lon="151.364073">
  <ele>447.25</ele>
  <time>2026-09-01T20:01:51Z</time>
  <course>294.53</course>
  <speed>0.0</speed>
  <fix>3d</fix>
</trkpt>
<trkpt lat="-27.2387706" lon="151.364073">
  <ele>446.64</ele>
  <time>2026-09-01T20:01:51Z</time>
  <course>276.32</course>
  <speed>0.0</speed>
  <fix>3d</fix>
</trkpt>
<trkpt lat="-27.2387706" lon="151.364073">
  <ele>446.95</ele>
  <time>2026-09-01T20:01:51Z</time>
  <course>295.84</course>
  <speed>0.0</speed>
  <fix>3d</fix>
</trkpt>
<trkpt lat="-27.2387706" lon="151.364073">
  <ele>446.49</ele>
  <time>2026-09-01T20:01:51Z</time>
  <course>276.32</course>
  <speed>0.0</speed>
  <fix>3d</fix>
</trkpt>
<trkpt lat="-27.2387706" lon="151.364073">
  <ele>446.95</ele>
  <time>2026-09-01T20:01:51Z</time>
  <course>295.84</course>
  <speed>0.0</speed>
  <fix>3d</fix>
</trkpt>
<trkpt lat="-27.2387706" lon="151.364073">
  <ele>446.34</ele>
  <time>2026-09-01T20:01:51Z</time>
  <course>276.32</course>
  <speed>0.0</speed>
  <fix>3d</fix>
</trkpt>
<trkpt lat="-27.2387706" lon="151.364073">
  <ele>446.65</ele>
  <time>2026-09-01T20:01:51Z</time>
  <course>295.25</course>
  <speed>0.0</speed>
  <fix>3d</fix>
</trkpt>
<trkpt lat="-27.2387706" lon="151.364073">
  <ele>446.19</ele>
  <time>2026-09-01T20:01:51Z</time>
  <course>276.33</course>
  <speed>0.0</speed>
  <fix>3d</fix>
</trkpt>
<trkpt lat="-27.2387706" lon="151.364073">
  <ele>446.35</ele>
  <time>2026-09-01T20:01:51Z</time>
  <course>291.24</course>
  <speed>0.0</speed>
  <fix>3d</fix>
</trkpt>
<trkpt lat="-27.2387706" lon="151.364073">
  <ele>446.04</ele>
  <time>2026-09-01T20:01:51Z</time>
  <course>276.34</course>
  <speed>0.0</speed>
  <fix>3d</fix>
</trkpt>
<trkpt lat="-27.2387706" lon="151.364073">
  <ele>446.35</ele>
  <time>2026-09-01T20:01:51Z</time>
  <course>291.24</course>
  <speed>0.0</speed>
  <fix>3d</fix>
</trkpt>
<trkpt lat="-27.2387706" lon="151.364073">
  <ele>445.89</ele>
  <time>2026-09-01T20:01:51Z</time>
  <course>276.34</course>
  <speed>0.0</speed>
  <fix>3d</fix>
</trkpt>
<trkpt lat="-27.2387706" lon="151.364073">
  <ele>446.05</ele>
  <time>2026-09-01T20:01:51Z</time>
  <course>290.03</course>
  <speed>0.0</speed>
  <fix>3d</fix>
</trkpt>
<trkpt lat="-27.2387706" lon="151.364073">
  <ele>445.74</ele>
  <time>2026-09-01T20:01:51Z</time>
  <course>276.35</course>
  <speed>0.0</speed>
  <fix>3d</fix>
</trkpt>
<trkpt lat="-27.2387706" lon="151.364073">
  <ele>446.05</ele>
  <time>2026-09-01T20:01:51Z</time>
  <course>290.03</course>
  <speed>0.0</speed>
  <fix>3d</fix>
</trkpt>
<trkpt lat="-27.2387706" lon="151.364073">
  <ele>445.59</ele>
  <time>2026-09-01T20:01:51Z</time>
  <course>276.36</course>
  <speed>0.0</speed>
  <fix>3d</fix>
</trkpt>
<trkpt lat="-27.2387706" lon="151.364073">
  <ele>446.05</ele>
  <time>2026-09-01T20:01:51Z</time>
  <course>290.03</course>
  <speed>0.0</speed>
  <fix>3d</fix>
</trkpt>
<trkpt lat="-27.2387706" lon="151.364073">
  <ele>445.44</ele>
  <time>2026-09-01T20:01:51Z</time>
  <course>276.37</course>
  <speed>0.0</speed>
  <fix>3d</fix>
</trkpt>
<trkpt lat="-27.2387706" lon="151.364073">
  <ele>445.75</ele>
  <time>2026-09-01T20:01:51Z</time>
  <course>284.37</course>
  <speed>0.0</speed>
  <fix>3d</fix>
</trkpt>
<trkpt lat="-27.2387706" lon="151.364073">
  <ele>445.29</ele>
  <time>2026-09-01T20:01:51Z</time>
  <course>276.39</course>
  <speed>0.0</speed>
  <fix>3d</fix>
</trkpt>
<trkpt lat="-27.2387706" lon="151.364073">
  <ele>445.75</ele>
  <time>2026-09-01T20:01:51Z</time>
  <course>284.37</course>
  <speed>0.0</speed>
  <fix>3d</fix>
</trkpt>
<trkpt lat="-27.2387706" lon="151.364073">
  <ele>445.14</ele>
  <time>2026-09-01T20:01:51Z</time>
  <course>276.41</course>
  <speed>0.0</speed>
  <fix>3d</fix>
</trkpt>
<trkpt lat="-27.2387706" lon="151.364073">
  <ele>445.45</ele>
  <time>2026-09-01T20:01:51Z</time>
  <course>264.81</course>
  <speed>0.0</speed>
  <fix>3d</fix>
</trkpt>
<trkpt lat="-27.2387706" lon="151.364073">
  <ele>444.99</ele>
  <time>2026-09-01T20:01:51Z</time>
  <course>276.43</course>
  <speed>0.0</speed>
  <fix>3d</fix>
</trkpt>
<trkpt lat="-27.2387706" lon="151.364073">
  <ele>445.45</ele>
  <time>2026-09-01T20:01:51Z</time>
  <course>264.81</course>
  <speed>0.0</speed>
  <fix>3d</fix>
</trkpt>
<trkpt lat="-27.2387706" lon="151.364073">
  <ele>444.84</ele>
  <time>2026-09-01T20:01:51Z</time>
  <course>276.43</course>
  <speed>0.0</speed>
  <fix>3d</fix>
</trkpt>
<trkpt lat="-27.2387706" lon="151.364073">
  <ele>445.15</ele>
  <time>2026-09-01T20:01:51Z</time>
  <course>241.52</course>
  <speed>0.0</speed>
  <fix>3d</fix>
</trkpt>
<trkpt lat="-27.2387706" lon="151.364073">
  <ele>444.69</ele>
  <time>2026-09-01T20:01:51Z</time>
  <course>276.42</course>
  <speed>0.0</speed>
  <fix>3d</fix>
</trkpt>
<trkpt lat="-27.2387706" lon="151.364073">
  <ele>445.15</ele>
  <time>2026-09-01T20:01:51Z</time>
  <course>241.52</course>
  <speed>0.0</speed>
  <fix>3d</fix>
</trkpt>
<trkpt lat="-27.2387706" lon="151.364073">
  <ele>444.54</ele>
  <time>2026-09-01T20:01:51Z</time>
  <course>276.4</course>
  <speed>0.0</speed>
  <fix>3d</fix>
</trkpt>
<trkpt lat="-27.2387706" lon="151.364073">
  <ele>444.85</ele>
  <time>2026-09-01T20:01:51Z</time>
  <course>224.85</course>
  <speed>0.0</speed>
  <fix>3d</fix>
</trkpt>
<trkpt lat="-27.2387706" lon="151.364073">
  <ele>444.39</ele>
  <time>2026-09-01T20:01:51Z</time>
  <course>276.39</course>
  <speed>0.0</speed>
  <fix>3d</fix>
</trkpt>
<trkpt lat="-27.2387706" lon="151.364073">
  <ele>444.85</ele>
  <time>2026-09-01T20:01:51Z</time>
  <course>224.85</course>
  <speed>0.0</speed>
  <fix>3d</fix>
</trkpt>
<trkpt lat="-27.2387706" lon="151.364073">
  <ele>444.24</ele>
  <time>2026-09-01T20:01:51Z</time>
  <course>276.38</course>
  <speed>0.0</speed>
  <fix>3d</fix>
</trkpt>
<trkpt lat="-27.2387706" lon="151.364073">
  <ele>444.55</ele>
  <time>2026-09-01T20:01:51Z</time>
  <course>207.88</course>
  <speed>0.0</speed>
  <fix>3d</fix>
</trkpt>
<trkpt lat="-27.2387706" lon="151.364073">
  <ele>444.09</ele>
  <time>2026-09-01T20:01:51Z</time>
  <course>276.37</course>
  <speed>0.0</speed>
  <fix>3d</fix>
</trkpt>
<trkpt lat="-27.2387706" lon="151.364073">
  <ele>444.55</ele>
  <time>2026-09-01T20:01:51Z</time>
  <course>207.88</course>
  <speed>0.0</speed>
  <fix>3d</fix>
</trkpt>
<trkpt lat="-27.2387706" lon="151.364073">
  <ele>443.94</ele>
  <time>2026-09-01T20:01:51Z</time>
  <course>276.38</course>
  <speed>0.0</speed>
  <fix>3d</fix>
</trkpt>
<trkpt lat="-27.2387706" lon="151.364073">
  <ele>444.25</ele>
  <time>2026-09-01T20:01:51Z</time>
  <course>196.34</course>
  <speed>0.0</speed>
  <fix>3d</fix>
</trkpt>
<trkpt lat="-27.2387706" lon="151.364073">
  <ele>443.79</ele>
  <time>2026-09-01T20:01:51Z</time>
  <course>276.39</course>
  <speed>0.0</speed>
  <fix>3d</fix>
</trkpt>
<trkpt lat="-27.2387706" lon="151.364073">
  <ele>444.25</ele>
  <time>2026-09-01T20:01:51Z</time>
  <course>196.34</course>
  <speed>0.0</speed>
  <fix>3d</fix>
</trkpt>
<trkpt lat="-27.2387706" lon="151.364073">
  <ele>443.64</ele>
  <time>2026-09-01T20:01:51Z</time>
  <course>276.42</course>
  <speed>0.0</speed>
  <fix>3d</fix>
</trkpt>
<trkpt lat="-27.2387706" lon="151.364073">
  <ele>443.95</ele>
  <time>2026-09-01T20:01:51Z</time>
  <course>189.48</course>
  <speed>0.0</speed>
  <fix>3d</fix>
</trkpt>
<trkpt lat="-27.2387706" lon="151.364073">
  <ele>443.49</ele>
  <time>2026-09-01T20:01:51Z</time>
  <course>276.46</course>
  <speed>0.0</speed>
  <fix>3d</fix>
</trkpt>
<trkpt lat="-27.2387706" lon="151.364073">
  <ele>443.95</ele>
  <time>2026-09-01T20:01:51Z</time>
  <course>189.48</course>
  <speed>0.0</speed>
  <fix>3d</fix>
</trkpt>
<trkpt lat="-27.2387706" lon="151.364073">
  <ele>443.34</ele>
  <time>2026-09-01T20:01:51Z</time>
  <course>276.49</course>
  <speed>0.0</speed>
  <fix>3d</fix>
</trkpt>
<trkpt lat="-27.2387706" lon="151.364073">
  <ele>443.65</ele>
  <time>2026-09-01T20:01:51Z</time>
  <course>182.09</course>
  <speed>0.0</speed>
  <fix>3d</fix>
</trkpt>
<trkpt lat="-27.2387706" lon="151.364073">
  <ele>443.19</ele>
  <time>2026-09-01T20:01:51Z</time>
  <course>276.53</course>
  <speed>0.0</speed>
  <fix>3d</fix>
</trkpt>
<trkpt lat="-27.2387706" lon="151.364073">
  <ele>443.65</ele>
  <time>2026-09-01T20:01:51Z</time>
  <course>182.09</course>
  <speed>0.0</speed>
  <fix>3d</fix>
</trkpt>
<trkpt lat="-27.2387706" lon="151.364073">
  <ele>443.04</ele>
  <time>2026-09-01T20:01:51Z</time>
  <course>276.56</course>
  <speed>0.0</speed>
  <fix>3d</fix>
</trkpt>
<trkpt lat="-27.2387706" lon="151.364073">
  <ele>443.35</ele>
  <time>2026-09-01T20:01:51Z</time>
  <course>175.9</course>
  <speed>0.0</speed>
  <fix>3d</fix>
</trkpt>
<trkpt lat="-27.2387706" lon="151.364073">
  <ele>442.89</ele>
  <time>2026-09-01T20:01:51Z</time>
  <course>276.57</course>
  <speed>0.0</speed>
  <fix>3d</fix>
</trkpt>
<trkpt lat="-27.2387706" lon="151.364073">
  <ele>443.35</ele>
  <time>2026-09-01T20:01:51Z</time>
  <course>175.9</course>
  <speed>0.0</speed>
  <fix>3d</fix>
</trkpt>
<trkpt lat="-27.2387706" lon="151.364073">
  <ele>442.74</ele>
  <time>2026-09-01T20:01:51Z</time>
  <course>276.57</course>
  <speed>0.0</speed>
  <fix>3d</fix>
</trkpt>
<trkpt lat="-27.2387706" lon="151.364073">
  <ele>443.05</ele>
  <time>2026-09-01T20:01:51Z</time>
  <course>170.88</course>
  <speed>0.0</speed>
  <fix>3d</fix>
</trkpt>
<trkpt lat="-27.2387706" lon="151.364073">
  <ele>442.59</ele>
  <time>2026-09-01T20:01:51Z</time>
  <course>276.56</course>
  <speed>0.0</speed>
  <fix>3d</fix>
</trkpt>
<trkpt lat="-27.2387706" lon="151.364073">
  <ele>443.05</ele>
  <time>2026-09-01T20:01:51Z</time>
  <course>170.88</course>
  <speed>0.0</speed>
  <fix>3d</fix>
</trkpt>
<trkpt lat="-27.2387706" lon="151.364073">
  <ele>442.44</ele>
  <time>2026-09-01T20:01:51Z</time>
  <course>276.54</course>
  <speed>0.0</speed>
  <fix>3d</fix>
</trkpt>
<trkpt lat="-27.2387706" lon="151.364073">
  <ele>442.75</ele>
  <time>2026-09-01T20:01:51Z</time>
  <course>166.98</course>
  <speed>0.0</speed>
  <fix>3d</fix>
</trkpt>
<trkpt lat="-27.2387706" lon="151.364073">
  <ele>442.29</ele>
  <time>2026-09-01T20:01:51Z</time>
  <course>276.53</course>
  <speed>0.0</speed>
  <fix>3d</fix>
</trkpt>
<trkpt lat="-27.2387706" lon="151.364073">
  <ele>442.75</ele>
  <time>2026-09-01T20:01:51Z</time>
  <course>166.98</course>
  <speed>0.0</speed>
  <fix>3d</fix>
</trkpt>
<trkpt lat="-27.2387706" lon="151.364073">
  <ele>442.14</ele>
  <time>2026-09-01T20:01:51Z</time>
  <course>276.52</course>
  <speed>0.0</speed>
  <fix>3d</fix>
</trkpt>
<trkpt lat="-27.2387706" lon="151.364073">
  <ele>442.45</ele>
  <time>2026-09-01T20:01:51Z</time>
  <course>163.9</course>
  <speed>0.0</speed>
  <fix>3d</fix>
</trkpt>
<trkpt lat="-27.2387706" lon="151.364073">
  <ele>441.99</ele>
  <time>2026-09-01T20:01:51Z</time>
  <course>276.52</course>
  <speed>0.0</speed>
  <fix>3d</fix>
</trkpt>
<trkpt lat="-27.2387706" lon="151.364073">
  <ele>442.45</ele>
  <time>2026-09-01T20:01:51Z</time>
  <course>163.9</course>
  <speed>0.0</speed>
  <fix>3d</fix>
</trkpt>
<trkpt lat="-27.2387706" lon="151.364073">
  <ele>441.84</ele>
  <time>2026-09-01T20:01:51Z</time>
  <course>276.52</course>
  <speed>0.0</speed>
  <fix>3d</fix>
</trkpt>
<trkpt lat="-27.2387706" lon="151.364073">
  <ele>442.15</ele>
  <time>2026-09-01T20:01:51Z</time>
  <course>162.94</course>
  <speed>0.0</speed>
  <fix>3d</fix>
</trkpt>
<trkpt lat="-27.2387706" lon="151.364073">
  <ele>441.69</ele>
  <time>2026-09-01T20:01:51Z</time>
  <course>276.51</course>
  <speed>0.0</speed>
  <fix>3d</fix>
</trkpt>
<trkpt lat="-27.2387706" lon="151.364073">
  <ele>442.15</ele>
  <time>2026-09-01T20:01:51Z</time>
  <course>162.94</course>
  <speed>0.0</speed>
  <fix>3d</fix>
</trkpt>
<trkpt lat="-27.2387706" lon="151.364073">
  <ele>441.54</ele>
  <time>2026-09-01T20:01:51Z</time>
  <course>276.5</course>
  <speed>0.0</speed>
  <fix>3d</fix>
</trkpt>
<trkpt lat="-27.2387706" lon="151.364073">
  <ele>441.85</ele>
  <time>2026-09-01T20:01:51Z</time>
  <course>161.84</course>
  <speed>0.0</speed>
  <fix>3d</fix>
</trkpt>
<trkpt lat="-27.2387706" lon="151.364073">
  <ele>441.39</ele>
  <time>2026-09-01T20:01:51Z</time>
  <course>276.49</course>
  <speed>0.0</speed>
  <fix>3d</fix>
</trkpt>
<trkpt lat="-27.2387706" lon="151.364073">
  <ele>441.85</ele>
  <time>2026-09-01T20:01:51Z</time>
  <course>161.84</course>
  <speed>0.0</speed>
  <fix>3d</fix>
</trkpt>
<trkpt lat="-27.2387706" lon="151.364073">
  <ele>441.24</ele>
  <time>2026-09-01T20:01:51Z</time>
  <course>276.49</course>
  <speed>0.0</speed>
  <fix>3d</fix>
</trkpt>
<trkpt lat="-27.2387706" lon="151.364073">
  <ele>441.55</ele>
  <time>2026-09-01T20:01:51Z</time>
  <course>159.51</course>
  <speed>0.0</speed>
  <fix>3d</fix>
</trkpt>
<trkpt lat="-27.2387706" lon="151.364073">
  <ele>441.09</ele>
  <time>2026-09-01T20:01:51Z</time>
  <course>276.49</course>
  <speed>0.0</speed>
  <fix>3d</fix>
</trkpt>
<trkpt lat="-27.2387706" lon="151.364073">
  <ele>441.55</ele>
  <time>2026-09-01T20:01:51Z</time>
  <course>159.51</course>
  <speed>0.0</speed>
  <fix>3d</fix>
</trkpt>
<trkpt lat="-27.2387706" lon="151.364073">
  <ele>440.94</ele>
  <time>2026-09-01T20:01:51Z</time>
  <course>276.5</course>
  <speed>0.0</speed>
  <fix>3d</fix>
</trkpt>
<trkpt lat="-27.2387706" lon="151.364073">
  <ele>441.25</ele>
  <time>2026-09-01T20:01:51Z</time>
  <course>158.02</course>
  <speed>0.0</speed>
  <fix>3d</fix>
</trkpt>
<trkpt lat="-27.2387707" lon="151.364073">
  <ele>440.79</ele>
  <time>2026-09-01T20:01:51Z</time>
  <course>276.52</course>
  <speed>0.01</speed>
  <fix>3d</fix>
</trkpt>
<trkpt lat="-27.2387706" lon="151.364073">
  <ele>441.25</ele>
  <time>2026-09-01T20:01:51Z</time>
  <course>158.02</course>
  <speed>0.0</speed>
  <fix>3d</fix>
</trkpt>
<trkpt lat="-27.2387707" lon="151.364073">
  <ele>440.64</ele>
  <time>2026-09-01T20:01:51Z</time>
  <course>276.57</course>
  <speed>0.01</speed>
  <fix>3d</fix>
</trkpt>
<trkpt lat="-27.2387706" lon="151.364073">
  <ele>440.95</ele>
  <time>2026-09-01T20:01:51Z</time>
  <course>161.65</course>
  <speed>0.0</speed>
  <fix>3d</fix>
</trkpt>
<trkpt lat="-27.2387707" lon="151.364073">
  <ele>440.49</ele>
  <time>2026-09-01T20:01:51Z</time>
  <course>276.63</course>
  <speed>0.01</speed>
  <fix>3d</fix>
</trkpt>
<trkpt lat="-27.2387706" lon="151.364073">
  <ele>440.95</ele>
  <time>2026-09-01T20:01:51Z</time>
  <course>161.65</course>
  <speed>0.0</speed>
  <fix>3d</fix>
</trkpt>
<trkpt lat="-27.2387707" lon="151.364073">
  <ele>440.34</ele>
  <time>2026-09-01T20:01:51Z</time>
  <course>276.69</course>
  <speed>0.01</speed>
  <fix>3d</fix>
</trkpt>
<trkpt lat="-27.2387707" lon="151.364073">
  <ele>440.65</ele>
  <time>2026-09-01T20:01:51Z</time>
  <course>168.08</course>
  <speed>0.01</speed>
  <fix>3d</fix>
</trkpt>
<trkpt lat="-27.2387707" lon="151.364073">
  <ele>440.19</ele>
  <time>2026-09-01T20:01:51Z</time>
  <course>276.73</course>
  <speed>0.01</speed>
  <fix>3d</fix>
</trkpt>
<trkpt lat="-27.2387707" lon="151.364073">
  <ele>440.65</ele>
  <time>2026-09-01T20:01:51Z</time>
  <course>168.08</course>
  <speed>0.01</speed>
  <fix>3d</fix>
</trkpt>
<trkpt lat="-27.2387707" lon="151.364073">
  <ele>440.04</ele>
  <time>2026-09-01T20:01:51Z</time>
  <course>276.75</course>
  <speed>0.01</speed>
  <fix>3d</fix>
</trkpt>
<trkpt lat="-27.2387707" lon="151.364073">
  <ele>440.35</ele>
  <time>2026-09-01T20:01:51Z</time>
  <course>171.95</course>
  <speed>0.01</speed>
  <fix>3d</fix>
</trkpt>
<trkpt lat="-27.2387707" lon="151.364073">
  <ele>439.89</ele>
  <time>2026-09-01T20:01:51Z</time>
  <course>276.78</course>
  <speed>0.01</speed>
  <fix>3d</fix>
</trkpt>
<trkpt lat="-27.2387707" lon="151.364073">
  <ele>440.35</ele>
  <time>2026-09-01T20:01:51Z</time>
  <course>171.95</course>
  <speed>0.01</speed>
  <fix>3d</fix>
</trkpt>
<trkpt lat="-27.2387707" lon="151.364073">
  <ele>439.74</ele>
  <time>2026-09-01T20:01:51Z</time>
  <course>276.8</course>
  <speed>0.01</speed>
  <fix>3d</fix>
</trkpt>
<trkpt lat="-27.2387707" lon="151.364073">
  <ele>440.05</ele>
  <time>2026-09-01T20:01:51Z</time>
  <course>175.23</course>
  <speed>0.01</speed>
  <fix>3d</fix>
</trkpt>
<trkpt lat="-27.2387707" lon="151.364073">
  <ele>439.59</ele>
  <time>2026-09-01T20:01:51Z</time>
  <course>276.81</course>
  <speed>0.01</speed>
  <fix>3d</fix>
</trkpt>
<trkpt lat="-27.2387707" lon="151.364073">
  <ele>440.05</ele>
  <time>2026-09-01T20:01:51Z</time>
  <course>175.23</course>
  <speed>0.01</speed>
  <fix>3d</fix>
</trkpt>
<trkpt lat="-27.2387708" lon="151.364073">
  <ele>439.44</ele>
  <time>2026-09-01T20:01:51Z</time>
  <course>276.81</course>
  <speed>0.01</speed>
  <fix>3d</fix>
</trkpt>
<trkpt lat="-27.2387707" lon="151.364073">
  <ele>439.75</ele>
  <time>2026-09-01T20:01:51Z</time>
  <course>178.37</course>
  <speed>0.01</speed>
  <fix>3d</fix>
</trkpt>
<trkpt lat="-27.2387708" lon="151.364073">
  <ele>439.29</ele>
  <time>2026-09-01T20:01:51Z</time>
  <course>276.8</course>
  <speed>0.01</speed>
  <fix>3d</fix>
</trkpt>
<trkpt lat="-27.2387707" lon="151.364073">
  <ele>439.75</ele>
  <time>2026-09-01T20:01:51Z</time>
  <course>178.37</course>
  <speed>0.01</speed>
  <fix>3d</fix>
</trkpt>
<trkpt lat="-27.2387708" lon="151.364073">
  <ele>439.14</ele>
  <time>2026-09-01T20:01:51Z</time>
  <course>276.79</course>
  <speed>0.01</speed>
  <fix>3d</fix>
</trkpt>
<trkpt lat="-27.2387707" lon="151.364073">
  <ele>439.45</ele>
  <time>2026-09-01T20:01:51Z</time>
  <course>180.97</course>
  <speed>0.01</speed>
  <fix>3d</fix>
</trkpt>
<trkpt lat="-27.2387708" lon="151.364073">
  <ele>438.99</ele>
  <time>2026-09-01T20:01:51Z</time>
  <course>276.79</course>
  <speed>0.01</speed>
  <fix>3d</fix>
</trkpt>
<trkpt lat="-27.2387707" lon="151.364073">
  <ele>439.45</ele>
  <time>2026-09-01T20:01:51Z</time>
  <course>180.97</course>
  <speed>0.01</speed>
  <fix>3d</fix>
</trkpt>
<trkpt lat="-27.2387708" lon="151.364073">
  <ele>438.84</ele>
  <time>2026-09-01T20:01:51Z</time>
  <course>276.79</course>
  <speed>0.01</speed>
  <fix>3d</fix>
</trkpt>
<trkpt lat="-27.2387708" lon="151.364073">
  <ele>439.15</ele>
  <time>2026-09-01T20:01:51Z</time>
  <course>183.63</course>
  <speed>0.01</speed>
  <fix>3d</fix>
</trkpt>
<trkpt lat="-27.2387708" lon="151.364073">
  <ele>438.69</ele>
  <time>2026-09-01T20:01:51Z</time>
  <course>276.79</course>
  <speed>0.01</speed>
  <fix>3d</fix>
</trkpt>
<trkpt lat="-27.2387708" lon="151.364073">
  <ele>439.15</ele>
  <time>2026-09-01T20:01:51Z</time>
  <course>183.63</course>
  <speed>0.01</speed>
  <fix>3d</fix>
</trkpt>
<trkpt lat="-27.2387708" lon="151.364073">
  <ele>438.54</ele>
  <time>2026-09-01T20:01:51Z</time>
  <course>276.79</course>
  <speed>0.01</speed>
  <fix>3d</fix>
</trkpt>
<trkpt lat="-27.2387708" lon="151.364073">
  <ele>438.85</ele>
  <time>2026-09-01T20:01:51Z</time>
  <course>185.85</course>
  <speed>0.01</speed>
  <fix>3d</fix>
</trkpt>
<trkpt lat="-27.2387709" lon="151.364073">
  <ele>438.39</ele>
  <time>2026-09-01T20:01:51Z</time>
  <course>276.82</course>
  <speed>0.01</speed>
  <fix>3d</fix>
</trkpt>
<trkpt lat="-27.2387708" lon="151.364073">
  <ele>438.85</ele>
  <time>2026-09-01T20:01:51Z</time>
  <course>185.85</course>
  <speed>0.01</speed>
  <fix>3d</fix>
</trkpt>
<trkpt lat="-27.2387709" lon="151.364073">
  <ele>438.24</ele>
  <time>2026-09-01T20:01:51Z</time>
  <course>276.86</course>
  <speed>0.01</speed>
  <fix>3d</fix>
</trkpt>
<trkpt lat="-27.2387708" lon="151.364073">
  <ele>438.55</ele>
  <time>2026-09-01T20:01:51Z</time>
  <course>187.0</course>
  <speed>0.01</speed>
  <fix>3d</fix>
</trkpt>
<trkpt lat="-27.2387709" lon="151.364073">
  <ele>438.09</ele>
  <time>2026-09-01T20:01:51Z</time>
  <course>276.91</course>
  <speed>0.01</speed>
  <fix>3d</fix>
</trkpt>
<trkpt lat="-27.2387708" lon="151.364073">
  <ele>438.55</ele>
  <time>2026-09-01T20:01:51Z</time>
  <course>187.0</course>
  <speed>0.01</speed>
  <fix>3d</fix>
</trkpt>
<trkpt lat="-27.2387709" lon="151.364073">
  <ele>437.94</ele>
  <time>2026-09-01T20:01:51Z</time>
  <course>276.96</course>
  <speed>0.02</speed>
  <fix>3d</fix>
</trkpt>
<trkpt lat="-27.2387709" lon="151.364073">
  <ele>438.25</ele>
  <time>2026-09-01T20:01:51Z</time>
  <course>187.36</course>
  <speed>0.01</speed>
  <fix>3d</fix>
</trkpt>
<trkpt lat="-27.2387709" lon="151.364073">
  <ele>437.79</ele>
  <time>2026-09-01T20:01:51Z</time>
  <course>277.01</course>
  <speed>0.02</speed>
  <fix>3d</fix>
</trkpt>
<trkpt lat="-27.2387709" lon="151.364073">
  <ele>438.25</ele>
  <time>2026-09-01T20:01:51Z</time>
  <course>187.36</course>
  <speed>0.01</speed>
  <fix>3d</fix>
</trkpt>
<trkpt lat="-27.2387709" lon="151.364073">
  <ele>437.64</ele>
  <time>2026-09-01T20:01:51Z</time>
  <course>277.04</course>
  <speed>0.02</speed>
  <fix>3d</fix>
</trkpt>
<trkpt lat="-27.2387709" lon="151.364073">
  <ele>437.95</ele>
  <time>2026-09-01T20:01:51Z</time>
  <course>187.8</course>
  <speed>0.02</speed>
  <fix>3d</fix>
</trkpt>
<trkpt lat="-27.238771" lon="151.364073">
  <ele>437.49</ele>
  <time>2026-09-01T20:01:51Z</time>
  <course>277.08</course>
  <speed>0.02</speed>
  <fix>3d</fix>
</trkpt>
<trkpt lat="-27.2387709" lon="151.364073">
  <ele>437.95</ele>
  <time>2026-09-01T20:01:51Z</time>
  <course>187.8</course>
  <speed>0.02</speed>
  <fix>3d</fix>
</trkpt>
<trkpt lat="-27.238771" lon="151.364073">
  <ele>437.34</ele>
  <time>2026-09-01T20:01:51Z</time>
  <course>277.1</course>
  <speed>0.02</speed>
  <fix>3d</fix>
</trkpt>
<trkpt lat="-27.2387709" lon="151.364073">
  <ele>437.65</ele>
  <time>2026-09-01T20:01:51Z</time>
  <course>189.03</course>
  <speed>0.02</speed>
  <fix>3d</fix>
</trkpt>
<trkpt lat="-27.238771" lon="151.364073">
  <ele>437.19</ele>
  <time>2026-09-01T20:01:51Z</time>
  <course>277.12</course>
  <speed>0.02</speed>
  <fix>3d</fix>
</trkpt>
<trkpt lat="-27.2387709" lon="151.364073">
  <ele>437.65</ele>
  <time>2026-09-01T20:01:51Z</time>
  <course>189.03</course>
  <speed>0.02</speed>
  <fix>3d</fix>
</trkpt>
<trkpt lat="-27.238771" lon="151.364073">
  <ele>437.04</ele>
  <time>2026-09-01T20:01:51Z</time>
  <course>277.13</course>
  <speed>0.02</speed>
  <fix>3d</fix>
</trkpt>
<trkpt lat="-27.238771" lon="151.364073">
  <ele>437.35</ele>
  <time>2026-09-01T20:01:51Z</time>
  <course>190.46</course>
  <speed>0.02</speed>
  <fix>3d</fix>
</trkpt>
<trkpt lat="-27.238771" lon="151.364073">
  <ele>436.89</ele>
  <time>2026-09-01T20:01:51Z</time>
  <course>277.14</course>
  <speed>0.02</speed>
  <fix>3d</fix>
</trkpt>
<trkpt lat="-27.238771" lon="151.364073">
  <ele>437.35</ele>
  <time>2026-09-01T20:01:51Z</time>
  <course>190.46</course>
  <speed>0.02</speed>
  <fix>3d</fix>
</trkpt>
<trkpt lat="-27.2387711" lon="151.364073">
  <ele>436.74</ele>
  <time>2026-09-01T20:01:51Z</time>
  <course>277.16</course>
  <speed>0.02</speed>
  <fix>3d</fix>
</trkpt>
<trkpt lat="-27.238771" lon="151.364073">
  <ele>437.05</ele>
  <time>2026-09-01T20:01:51Z</time>
  <course>192.05</course>
  <speed>0.02</speed>
  <fix>3d</fix>
</trkpt>
<trkpt lat="-27.2387711" lon="151.364073">
  <ele>436.59</ele>
  <time>2026-09-01T20:01:51Z</time>
  <course>277.19</course>
  <speed>0.02</speed>
  <fix>3d</fix>
</trkpt>
<trkpt lat="-27.238771" lon="151.364073">
  <ele>437.05</ele>
  <time>2026-09-01T20:01:51Z</time>
  <course>192.05</course>
  <speed>0.02</speed>
  <fix>3d</fix>
</trkpt>
<trkpt lat="-27.2387711" lon="151.364073">
  <ele>436.44</ele>
  <time>2026-09-01T20:01:51Z</time>
  <course>277.21</course>
  <speed>0.02</speed>
  <fix>3d</fix>
</trkpt>
<trkpt lat="-27.238771" lon="151.364073">
  <ele>436.75</ele>
  <time>2026-09-01T20:01:51Z</time>
  <course>193.49</course>
  <speed>0.02</speed>
  <fix>3d</fix>
</trkpt>
<trkpt lat="-27.2387711" lon="151.364073">
  <ele>436.29</ele>
  <time>2026-09-01T20:01:51Z</time>
  <course>277.24</course>
  <speed>0.02</speed>
  <fix>3d</fix>
</trkpt>
<trkpt lat="-27.238771" lon="151.364073">
  <ele>436.75</ele>
  <time>2026-09-01T20:01:51Z</time>
  <course>193.49</course>
  <speed>0.02</speed>
  <fix>3d</fix>
</trkpt>
<trkpt lat="-27.2387712" lon="151.364073">
  <ele>436.14</ele>
  <time>2026-09-01T20:01:51Z</time>
  <course>277.27</course>
  <speed>0.02</speed>
  <fix>3d</fix>
</trkpt>
<trkpt lat="-27.2387711" lon="151.364073">
  <ele>436.45</ele>
  <time>2026-09-01T20:01:51Z</time>
  <course>194.25</course>
  <speed>0.02</speed>
  <fix>3d</fix>
</trkpt>
<trkpt lat="-27.2387712" lon="151.364073">
  <ele>435.99</ele>
  <time>2026-09-01T20:01:51Z</time>
  <course>277.3</course>
  <speed>0.02</speed>
  <fix>3d</fix>
</trkpt>
<trkpt lat="-27.2387711" lon="151.364073">
  <ele>436.45</ele>
  <time>2026-09-01T20:01:51Z</time>
  <course>194.25</course>
  <speed>0.02</speed>
  <fix>3d</fix>
</trkpt>
<trkpt lat="-27.2387712" lon="151.364073">
  <ele>435.84</ele>
  <time>2026-09-01T20:01:51Z</time>
  <course>277.34</course>
  <speed>0.02</speed>
  <fix>3d</fix>
</trkpt>
<trkpt lat="-27.2387711" lon="151.364073">
  <ele>436.15</ele>
  <time>2026-09-01T20:01:51Z</time>
  <course>194.92</course>
  <speed>0.02</speed>
  <fix>3d</fix>
</trkpt>
<trkpt lat="-27.2387712" lon="151.364073">
  <ele>435.69</ele>
  <time>2026-09-01T20:01:51Z</time>
  <course>277.36</course>
  <speed>0.02</speed>
  <fix>3d</fix>
</trkpt>
<trkpt lat="-27.2387711" lon="151.364073">
  <ele>436.15</ele>
  <time>2026-09-01T20:01:51Z</time>
  <course>194.92</course>
  <speed>0.02</speed>
  <fix>3d</fix>
</trkpt>
<trkpt lat="-27.2387713" lon="151.364073">
  <ele>435.54</ele>
  <time>2026-09-01T20:01:51Z</time>
  <course>277.39</course>
  <speed>0.03</speed>
  <fix>3d</fix>
</trkpt>
<trkpt lat="-27.2387712" lon="151.364073">
  <ele>435.85</ele>
  <time>2026-09-01T20:01:51Z</time>
  <course>195.62</course>
  <speed>0.02</speed>
  <fix>3d</fix>
</trkpt>
<trkpt lat="-27.2387713" lon="151.364073">
  <ele>435.39</ele>
  <time>2026-09-01T20:01:51Z</time>
  <course>277.43</course>
  <speed>0.03</speed>
  <fix>3d</fix>
</trkpt>
<trkpt lat="-27.2387712" lon="151.364073">
  <ele>435.85</ele>
  <time>2026-09-01T20:01:51Z</time>
  <course>195.62</course>
  <speed>0.02</speed>
  <fix>3d</fix>
</trkpt>
<trkpt lat="-27.2387713" lon="151.364073">
  <ele>435.24</ele>
  <time>2026-09-01T20:01:51Z</time>
  <course>277.48</course>
  <speed>0.0316227766016838</speed>
  <fix>3d</fix>
</trkpt>
<trkpt lat="-27.2387712" lon="151.364073">
  <ele>435.55</ele>
  <time>2026-09-01T20:01:51Z</time>
  <course>196.42</course>
  <speed>0.03</speed>
  <fix>3d</fix>
</trkpt>
<trkpt lat="-27.2387714" lon="151.364073">
  <ele>435.09</ele>
  <time>2026-09-01T20:01:51Z</time>
  <course>277.52</course>
  <speed>0.0316227766016838</speed>
  <fix>3d</fix>
</trkpt>
<trkpt lat="-27.2387712" lon="151.364073">
  <ele>435.55</ele>
  <time>2026-09-01T20:01:51Z</time>
  <course>196.42</course>
  <speed>0.03</speed>
  <fix>3d</fix>
</trkpt>
<trkpt lat="-27.2387714" lon="151.364073">
  <ele>434.94</ele>
  <time>2026-09-01T20:01:51Z</time>
  <course>277.55</course>
  <speed>0.0316227766016838</speed>
  <fix>3d</fix>
</trkpt>
<trkpt lat="-27.2387713" lon="151.364073">
  <ele>435.25</ele>
  <time>2026-09-01T20:01:51Z</time>
  <course>197.21</course>
  <speed>0.03</speed>
  <fix>3d</fix>
</trkpt>
<trkpt lat="-27.2387714" lon="151.3640729">
  <ele>434.79</ele>
  <time>2026-09-01T20:01:51Z</time>
  <course>277.59</course>
  <speed>0.0316227766016838</speed>
  <fix>3d</fix>
</trkpt>
<trkpt lat="-27.2387713" lon="151.364073">
  <ele>435.25</ele>
  <time>2026-09-01T20:01:51Z</time>
  <course>197.21</course>
  <speed>0.03</speed>
  <fix>3d</fix>
</trkpt>
<trkpt lat="-27.2387714" lon="151.3640729">
  <ele>434.64</ele>
  <time>2026-09-01T20:01:51Z</time>
  <course>277.64</course>
  <speed>0.0316227766016838</speed>
  <fix>3d</fix>
</trkpt>
<trkpt lat="-27.2387714" lon="151.3640729">
  <ele>434.95</ele>
  <time>2026-09-01T20:01:51Z</time>
  <course>197.9</course>
  <speed>0.03</speed>
  <fix>3d</fix>
</trkpt>
<trkpt lat="-27.2387715" lon="151.3640729">
  <ele>434.49</ele>
  <time>2026-09-01T20:01:51Z</time>
  <course>277.67</course>
  <speed>0.0316227766016838</speed>
  <fix>3d</fix>
</trkpt>
<trkpt lat="-27.2387714" lon="151.3640729">
  <ele>434.95</ele>
  <time>2026-09-01T20:01:51Z</time>
  <course>197.9</course>
  <speed>0.03</speed>
  <fix>3d</fix>
</trkpt>
<trkpt lat="-27.2387715" lon="151.3640729">
  <ele>434.34</ele>
  <time>2026-09-01T20:01:51Z</time>
  <course>277.72</course>
  <speed>0.0316227766016838</speed>
  <fix>3d</fix>
</trkpt>
<trkpt lat="-27.2387714" lon="151.3640729">
  <ele>434.65</ele>
  <time>2026-09-01T20:01:51Z</time>
  <course>198.33</course>
  <speed>0.03</speed>
  <fix>3d</fix>
</trkpt>
<trkpt lat="-27.2387715" lon="151.3640729">
  <ele>434.19</ele>
  <time>2026-09-01T20:01:51Z</time>
  <course>277.76</course>
  <speed>0.0316227766016838</speed>
  <fix>3d</fix>
</trkpt>
<trkpt lat="-27.2387714" lon="151.3640729">
  <ele>434.65</ele>
  <time>2026-09-01T20:01:51Z</time>
  <course>198.33</course>
  <speed>0.03</speed>
  <fix>3d</fix>
</trkpt>
<trkpt lat="-27.2387716" lon="151.3640729">
  <ele>434.04</ele>
  <time>2026-09-01T20:01:51Z</time>
  <course>277.81</course>
  <speed>0.0316227766016838</speed>
  <fix>3d</fix>
</trkpt>
<trkpt lat="-27.2387715" lon="151.3640729">
  <ele>434.35</ele>
  <time>2026-09-01T20:01:51Z</time>
  <course>198.36</course>
  <speed>0.03</speed>
  <fix>3d</fix>
</trkpt>
<trkpt lat="-27.2387716" lon="151.3640729">
  <ele>433.89</ele>
  <time>2026-09-01T20:01:51Z</time>
  <course>277.86</course>
  <speed>0.0412310562561766</speed>
  <fix>3d</fix>
</trkpt>
<trkpt lat="-27.2387715" lon="151.3640729">
  <ele>434.35</ele>
  <time>2026-09-01T20:01:51Z</time>
  <course>198.36</course>
  <speed>0.03</speed>
  <fix>3d</fix>
</trkpt>
<trkpt lat="-27.2387717" lon="151.3640728">
  <ele>433.74</ele>
  <time>2026-09-01T20:01:51Z</time>
  <course>277.91</course>
  <speed>0.0412310562561766</speed>
  <fix>3d</fix>
</trkpt>
<trkpt lat="-27.2387715" lon="151.3640729">
  <ele>434.05</ele>
  <time>2026-09-01T20:01:51Z</time>
  <course>198.27</course>
  <speed>0.04</speed>
  <fix>3d</fix>
</trkpt>
<trkpt lat="-27.2387717" lon="151.3640728">
  <ele>433.59</ele>
  <time>2026-09-01T20:01:51Z</time>
  <course>277.96</course>
  <speed>0.0412310562561766</speed>
  <fix>3d</fix>
</trkpt>
<trkpt lat="-27.2387715" lon="151.3640729">
  <ele>434.05</ele>
  <time>2026-09-01T20:01:51Z</time>
  <course>198.27</course>
  <speed>0.04</speed>
  <fix>3d</fix>
</trkpt>
<trkpt lat="-27.2387717" lon="151.3640728">
  <ele>433.44</ele>
  <time>2026-09-01T20:01:51Z</time>
  <course>278.02</course>
  <speed>0.0412310562561766</speed>
  <fix>3d</fix>
</trkpt>
<trkpt lat="-27.2387716" lon="151.3640728">
  <ele>433.75</ele>
  <time>2026-09-01T20:01:51Z</time>
  <course>198.37</course>
  <speed>0.04</speed>
  <fix>3d</fix>
</trkpt>
<trkpt lat="-27.2387718" lon="151.3640728">
  <ele>433.29</ele>
  <time>2026-09-01T20:01:51Z</time>
  <course>278.08</course>
  <speed>0.0412310562561766</speed>
  <fix>3d</fix>
</trkpt>
<trkpt lat="-27.2387716" lon="151.3640728">
  <ele>433.75</ele>
  <time>2026-09-01T20:01:51Z</time>
  <course>198.37</course>
  <speed>0.04</speed>
  <fix>3d</fix>
</trkpt>
<trkpt lat="-27.2387718" lon="151.3640728">
  <ele>433.14</ele>
  <time>2026-09-01T20:01:51Z</time>
  <course>278.14</course>
  <speed>0.0412310562561766</speed>
  <fix>3d</fix>
</trkpt>
<trkpt lat="-27.2387717" lon="151.3640728">
  <ele>433.45</ele>
  <time>2026-09-01T20:01:51Z</time>
  <course>198.45</course>
  <speed>0.04</speed>
  <fix>3d</fix>
</trkpt>
<trkpt lat="-27.2387719" lon="151.3640728">
  <ele>432.99</ele>
  <time>2026-09-01T20:01:51Z</time>
  <course>278.2</course>
  <speed>0.0412310562561766</speed>
  <fix>3d</fix>
</trkpt>
<trkpt lat="-27.2387717" lon="151.3640728">
  <ele>433.45</ele>
  <time>2026-09-01T20:01:51Z</time>
  <course>198.45</course>
  <speed>0.04</speed>
  <fix>3d</fix>
</trkpt>
<trkpt lat="-27.2387719" lon="151.3640728">
  <ele>432.84</ele>
  <time>2026-09-01T20:01:51Z</time>
  <course>278.26</course>
  <speed>0.0412310562561766</speed>
  <fix>3d</fix>
</trkpt>
<trkpt lat="-27.2387718" lon="151.3640728">
  <ele>433.15</ele>
  <time>2026-09-01T20:01:51Z</time>
  <course>198.39</course>
  <speed>0.04</speed>
  <fix>3d</fix>
</trkpt>
<trkpt lat="-27.2387719" lon="151.3640726">
  <ele>432.69</ele>
  <time>2026-09-01T20:01:51Z</time>
  <course>278.21</course>
  <speed>0.0316227766016838</speed>
  <fix>3d</fix>
</trkpt>
<trkpt lat="-27.2387718" lon="151.3640728">
  <ele>433.15</ele>
  <time>2026-09-01T20:01:51Z</time>
  <course>198.39</course>
  <speed>0.04</speed>
  <fix>3d</fix>
</trkpt>
<trkpt lat="-27.238772" lon="151.3640726">
  <ele>432.54</ele>
  <time>2026-09-01T20:01:51Z</time>
  <course>277.99</course>
  <speed>0.022360679774997897</speed>
  <fix>3d</fix>
</trkpt>
<trkpt lat="-27.2387719" lon="151.3640727">
  <ele>432.85</ele>
  <time>2026-09-01T20:01:51Z</time>
  <course>200.03</course>
  <speed>0.04</speed>
  <fix>3d</fix>
</trkpt>
<trkpt lat="-27.238772" lon="151.3640726">
  <ele>432.39</ele>
  <time>2026-09-01T20:01:51Z</time>
  <course>277.65</course>
  <speed>0.01</speed>
  <fix>3d</fix>
</trkpt>
<trkpt lat="-27.2387719" lon="151.3640727">
  <ele>432.85</ele>
  <time>2026-09-01T20:01:51Z</time>
  <course>200.03</course>
  <speed>0.04</speed>
  <fix>3d</fix>
</trkpt>
<trkpt lat="-27.238772" lon="151.3640726">
  <ele>432.24</ele>
  <time>2026-09-01T20:01:51Z</time>
  <course>277.27</course>
  <speed>0.0</speed>
  <fix>3d</fix>
</trkpt>
<trkpt lat="-27.2387719" lon="151.3640726">
  <ele>432.55</ele>
  <time>2026-09-01T20:01:51Z</time>
  <course>210.25</course>
  <speed>0.02</speed>
  <fix>3d</fix>
</trkpt>
<trkpt lat="-27.238772" lon="151.3640726">
  <ele>432.09</ele>
  <time>2026-09-01T20:01:51Z</time>
  <course>276.93</course>
  <speed>0.01</speed>
  <fix>3d</fix>
</trkpt>
<trkpt lat="-27.2387719" lon="151.3640726">
  <ele>432.55</ele>
  <time>2026-09-01T20:01:51Z</time>
  <course>210.25</course>
  <speed>0.02</speed>
  <fix>3d</fix>
</trkpt>
<trkpt lat="-27.238772" lon="151.3640726">
  <ele>431.94</ele>
  <time>2026-09-01T20:01:51Z</time>
  <course>276.65</course>
  <speed>0.03</speed>
  <fix>3d</fix>
</trkpt>
<trkpt lat="-27.238772" lon="151.3640726">
  <ele>432.25</ele>
  <time>2026-09-01T20:01:51Z</time>
  <course>306.87</course>
  <speed>0.0</speed>
  <fix>3d</fix>
</trkpt>
<trkpt lat="-27.238772" lon="151.3640726">
  <ele>431.79</ele>
  <time>2026-09-01T20:01:51Z</time>
  <course>276.48</course>
  <speed>0.04</speed>
  <fix>3d</fix>
</trkpt>
<trkpt lat="-27.238772" lon="151.3640726">
  <ele>432.25</ele>
  <time>2026-09-01T20:01:51Z</time>
  <course>306.87</course>
  <speed>0.0</speed>
  <fix>3d</fix>
</trkpt>
<trkpt lat="-27.238772" lon="151.3640726">
  <ele>431.64</ele>
  <time>2026-09-01T20:01:51Z</time>
  <course>276.4</course>
  <speed>0.05</speed>
  <fix>3d</fix>
</trkpt>
<trkpt lat="-27.238772" lon="151.3640726">
  <ele>431.95</ele>
  <time>2026-09-01T20:01:51Z</time>
  <course>354.76</course>
  <speed>0.03</speed>
  <fix>3d</fix>
</trkpt>
<trkpt lat="-27.2387719" lon="151.3640726">
  <ele>431.49</ele>
  <time>2026-09-01T20:01:51Z</time>
  <course>276.4</course>
  <speed>0.06</speed>
  <fix>3d</fix>
</trkpt>
<trkpt lat="-27.238772" lon="151.3640726">
  <ele>431.95</ele>
  <time>2026-09-01T20:01:51Z</time>
  <course>354.76</course>
  <speed>0.03</speed>
  <fix>3d</fix>
</trkpt>
<trkpt lat="-27.2387718" lon="151.3640726">
  <ele>431.34</ele>
  <time>2026-09-01T20:01:51Z</time>
  <course>276.45</course>
  <speed>0.07</speed>
  <fix>3d</fix>
</trkpt>
<trkpt lat="-27.2387719" lon="151.3640726">
  <ele>431.65</ele>
  <time>2026-09-01T20:01:51Z</time>
  <course>2.6</course>
  <speed>0.05</speed>
  <fix>3d</fix>
</trkpt>
<trkpt lat="-27.2387718" lon="151.3640726">
  <ele>431.19</ele>
  <time>2026-09-01T20:01:51Z</time>
  <course>276.54</course>
  <speed>0.08062257748298549</speed>
  <fix>3d</fix>
</trkpt>
<trkpt lat="-27.2387719" lon="151.3640726">
  <ele>431.65</ele>
  <time>2026-09-01T20:01:51Z</time>
  <course>2.6</course>
  <speed>0.05</speed>
  <fix>3d</fix>
</trkpt>
<trkpt lat="-27.2387717" lon="151.3640726">
  <ele>431.04</ele>
  <time>2026-09-01T20:01:51Z</time>
  <course>276.62</course>
  <speed>0.08062257748298549</speed>
  <fix>3d</fix>
</trkpt>
<trkpt lat="-27.2387718" lon="151.3640726">
  <ele>431.35</ele>
  <time>2026-09-01T20:01:51Z</time>
  <course>6.05</course>
  <speed>0.07</speed>
  <fix>3d</fix>
</trkpt>
<trkpt lat="-27.2387716" lon="151.3640726">
  <ele>430.89</ele>
  <time>2026-09-01T20:01:51Z</time>
  <course>276.7</course>
  <speed>0.09055385138137417</speed>
  <fix>3d</fix>
</trkpt>
<trkpt lat="-27.2387718" lon="151.3640726">
  <ele>431.35</ele>
  <time>2026-09-01T20:01:51Z</time>
  <course>6.05</course>
  <speed>0.07</speed>
  <fix>3d</fix>
</trkpt>
<trkpt lat="-27.2387715" lon="151.3640726">
  <ele>430.74</ele>
  <time>2026-09-01T20:01:51Z</time>
  <course>276.76</course>
  <speed>0.1004987562112089</speed>
  <fix>3d</fix>
</trkpt>
<trkpt lat="-27.2387717" lon="151.3640726">
  <ele>431.05</ele>
  <time>2026-09-01T20:01:51Z</time>
  <course>8.13</course>
  <speed>0.08</speed>
  <fix>3d</fix>
</trkpt>
<trkpt lat="-27.2387714" lon="151.3640726">
  <ele>430.59</ele>
  <time>2026-09-01T20:01:51Z</time>
  <course>276.78</course>
  <speed>0.1004987562112089</speed>
  <fix>3d</fix>
</trkpt>
<trkpt lat="-27.2387717" lon="151.3640726">
  <ele>431.05</ele>
  <time>2026-09-01T20:01:51Z</time>
  <course>8.13</course>
  <speed>0.08</speed>
  <fix>3d</fix>
</trkpt>
<trkpt lat="-27.2387713" lon="151.3640726">
  <ele>430.44</ele>
  <time>2026-09-01T20:01:51Z</time>
  <course>276.79</course>
  <speed>0.1118033988749895</speed>
  <fix>3d</fix>
</trkpt>
<trkpt lat="-27.2387715" lon="151.3640726">
  <ele>430.75</ele>
  <time>2026-09-01T20:01:51Z</time>
  <course>9.42</course>
  <speed>0.1</speed>
  <fix>3d</fix>
</trkpt>
<trkpt lat="-27.2387712" lon="151.3640726">
  <ele>430.29</ele>
  <time>2026-09-01T20:01:51Z</time>
  <course>276.78</course>
  <speed>0.1118033988749895</speed>
  <fix>3d</fix>
</trkpt>
<trkpt lat="-27.2387715" lon="151.3640726">
  <ele>430.75</ele>
  <time>2026-09-01T20:01:51Z</time>
  <course>9.42</course>
  <speed>0.1</speed>
  <fix>3d</fix>
</trkpt>
<trkpt lat="-27.2387711" lon="151.3640726">
  <ele>430.14</ele>
  <time>2026-09-01T20:01:51Z</time>
  <course>276.75</course>
  <speed>0.1118033988749895</speed>
  <fix>3d</fix>
</trkpt>
<trkpt lat="-27.2387712" lon="151.3640726">
  <ele>430.45</ele>
  <time>2026-09-01T20:01:51Z</time>
  <course>10.3</course>
  <speed>0.11</speed>
  <fix>3d</fix>
</trkpt>
<trkpt lat="-27.238771" lon="151.3640728">
  <ele>429.99</ele>
  <time>2026-09-01T20:01:51Z</time>
  <course>276.72</course>
  <speed>0.12165525060596438</speed>
  <fix>3d</fix>
</trkpt>
<trkpt lat="-27.2387712" lon="151.3640726">
  <ele>430.45</ele>
  <time>2026-09-01T20:01:51Z</time>
  <course>10.3</course>
  <speed>0.11</speed>
  <fix>3d</fix>
</trkpt>
<trkpt lat="-27.2387709" lon="151.3640728">
  <ele>429.84</ele>
  <time>2026-09-01T20:01:51Z</time>
  <course>276.69</course>
  <speed>0.12165525060596438</speed>
  <fix>3d</fix>
</trkpt>
<trkpt lat="-27.2387711" lon="151.3640727">
  <ele>430.15</ele>
  <time>2026-09-01T20:01:51Z</time>
  <course>11.17</course>
  <speed>0.11</speed>
  <fix>3d</fix>
</trkpt>
<trkpt lat="-27.2387708" lon="151.3640728">
  <ele>429.69</ele>
  <time>2026-09-01T20:01:51Z</time>
  <course>276.66</course>
  <speed>0.12165525060596438</speed>
  <fix>3d</fix>
</trkpt>
<trkpt lat="-27.2387711" lon="151.3640727">
  <ele>430.15</ele>
  <time>2026-09-01T20:01:51Z</time>
  <course>11.17</course>
  <speed>0.11</speed>
  <fix>3d</fix>
</trkpt>
<trkpt lat="-27.2387707" lon="151.3640728">
  <ele>429.54</ele>
  <time>2026-09-01T20:01:52Z</time>
  <course>276.63</course>
  <speed>0.12165525060596438</speed>
  <fix>3d</fix>
</trkpt>
<trkpt lat="-27.2387709" lon="151.3640728">
  <ele>429.85</ele>
  <time>2026-09-01T20:01:52Z</time>
  <course>11.84</course>
  <speed>0.12</speed>
  <fix>3d</fix>
</trkpt>
<trkpt lat="-27.2387706" lon="151.3640729">
  <ele>429.39</ele>
  <time>2026-09-01T20:01:52Z</time>
  <course>276.61</course>
  <speed>0.12165525060596438</speed>
  <fix>3d</fix>
</trkpt>
<trkpt lat="-27.2387709" lon="151.3640728">
  <ele>429.85</ele>
  <time>2026-09-01T20:01:52Z</time>
  <course>11.84</course>
  <speed>0.12</speed>
  <fix>3d</fix>
</trkpt>
<trkpt lat="-27.2387705" lon="151.3640729">
  <ele>429.24</ele>
  <time>2026-09-01T20:01:52Z</time>
  <course>276.59</course>
  <speed>0.12165525060596438</speed>
  <fix>3d</fix>
</trkpt>
<trkpt lat="-27.2387706" lon="151.3640728">
  <ele>429.55</ele>
  <time>2026-09-01T20:01:52Z</time>
  <course>12.05</course>
  <speed>0.12</speed>
  <fix>3d</fix>
</trkpt>
<trkpt lat="-27.2387704" lon="151.3640729">
  <ele>429.09</ele>
  <time>2026-09-01T20:01:52Z</time>
  <course>276.58</course>
  <speed>0.12165525060596438</speed>
  <fix>3d</fix>
</trkpt>
<trkpt lat="-27.2387706" lon="151.3640728">
  <ele>429.55</ele>
  <time>2026-09-01T20:01:52Z</time>
  <course>12.05</course>
  <speed>0.12</speed>
  <fix>3d</fix>
</trkpt>
<trkpt lat="-27.2387702" lon="151.364073">
  <ele>428.94</ele>
  <time>2026-09-01T20:01:52Z</time>
  <course>276.58</course>
  <speed>0.12165525060596438</speed>
  <fix>3d</fix>
</trkpt>
<trkpt lat="-27.2387705" lon="151.3640729">
  <ele>429.25</ele>
  <time>2026-09-01T20:01:52Z</time>
  <course>12.16</course>
  <speed>0.12</speed>
  <fix>3d</fix>
</trkpt>
<trkpt lat="-27.2387701" lon="151.364073">
  <ele>428.79</ele>
  <time>2026-09-01T20:01:52Z</time>
  <course>276.57</course>
  <speed>0.1118033988749895</speed>
  <fix>3d</fix>
</trkpt>
<trkpt lat="-27.2387705" lon="151.3640729">
  <ele>429.25</ele>
  <time>2026-09-01T20:01:52Z</time>
  <course>12.16</course>
  <speed>0.12</speed>
  <fix>3d</fix>
</trkpt>
<trkpt lat="-27.23877" lon="151.364073">
  <ele>428.64</ele>
  <time>2026-09-01T20:01:52Z</time>
  <course>276.56</course>
  <speed>0.1118033988749895</speed>
  <fix>3d</fix>
</trkpt>
<trkpt lat="-27.2387702" lon="151.3640729">
  <ele>428.95</ele>
  <time>2026-09-01T20:01:52Z</time>
  <course>12.55</course>
  <speed>0.12</speed>
  <fix>3d</fix>
</trkpt>
<trkpt lat="-27.2387699" lon="151.364073">
  <ele>428.49</ele>
  <time>2026-09-01T20:01:52Z</time>
  <course>276.55</course>
  <speed>0.1118033988749895</speed>
  <fix>3d</fix>
</trkpt>
<trkpt lat="-27.2387702" lon="151.3640729">
  <ele>428.95</ele>
  <time>2026-09-01T20:01:52Z</time>
  <course>12.55</course>
  <speed>0.12</speed>
  <fix>3d</fix>
</trkpt>
<trkpt lat="-27.2387698" lon="151.364073">
  <ele>428.34</ele>
  <time>2026-09-01T20:01:52Z</time>
  <course>276.54</course>
  <speed>0.1019803902718557</speed>
  <fix>3d</fix>
</trkpt>
<trkpt lat="-27.23877" lon="151.364073">
  <ele>428.65</ele>
  <time>2026-09-01T20:01:52Z</time>
  <course>13.08</course>
  <speed>0.11</speed>
  <fix>3d</fix>
</trkpt>
<trkpt lat="-27.2387697" lon="151.364073">
  <ele>428.19</ele>
  <time>2026-09-01T20:01:52Z</time>
  <course>276.53</course>
  <speed>0.1019803902718557</speed>
  <fix>3d</fix>
</trkpt>
<trkpt lat="-27.23877" lon="151.364073">
  <ele>428.65</ele>
  <time>2026-09-01T20:01:52Z</time>
  <course>13.08</course>
  <speed>0.11</speed>
  <fix>3d</fix>
</trkpt>
<trkpt lat="-27.2387697" lon="151.364073">
  <ele>428.04</ele>
  <time>2026-09-01T20:01:52Z</time>
  <course>276.52</course>
  <speed>0.09219544457292887</speed>
  <fix>3d</fix>
</trkpt>
<trkpt lat="-27.2387698" lon="151.364073">
  <ele>428.35</ele>
  <time>2026-09-01T20:01:52Z</time>
  <course>13.7</course>
  <speed>0.11</speed>
  <fix>3d</fix>
</trkpt>
<trkpt lat="-27.2387696" lon="151.364073">
  <ele>427.89</ele>
  <time>2026-09-01T20:01:52Z</time>
  <course>276.51</course>
  <speed>0.09219544457292887</speed>
  <fix>3d</fix>
</trkpt>
<trkpt lat="-27.2387698" lon="151.364073">
  <ele>428.35</ele>
  <time>2026-09-01T20:01:52Z</time>
  <course>13.7</course>
  <speed>0.11</speed>
  <fix>3d</fix>
</trkpt>
<trkpt lat="-27.2387695" lon="151.3640732">
  <ele>427.74</ele>
  <time>2026-09-01T20:01:52Z</time>
  <course>276.5</course>
  <speed>0.0824621125123532</speed>
  <fix>3d</fix>
</trkpt>
<trkpt lat="-27.2387696" lon="151.364073">
  <ele>428.05</ele>
  <time>2026-09-01T20:01:52Z</time>
  <course>14.57</course>
  <speed>0.1</speed>
  <fix>3d</fix>
</trkpt>
<trkpt lat="-27.2387694" lon="151.3640732">
  <ele>427.59</ele>
  <time>2026-09-01T20:01:52Z</time>
  <course>276.49</course>
  <speed>0.07280109889280519</speed>
  <fix>3d</fix>
</trkpt>
<trkpt lat="-27.2387696" lon="151.364073">
  <ele>428.05</ele>
  <time>2026-09-01T20:01:52Z</time>
  <course>14.57</course>
  <speed>0.1</speed>
  <fix>3d</fix>
</trkpt>
<trkpt lat="-27.2387693" lon="151.3640732">
  <ele>427.44</ele>
  <time>2026-09-01T20:01:52Z</time>
  <course>276.49</course>
  <speed>0.07280109889280519</speed>
  <fix>3d</fix>
</trkpt>
<trkpt lat="-27.2387694" lon="151.3640731">
  <ele>427.75</ele>
  <time>2026-09-01T20:01:52Z</time>
  <course>15.81</course>
  <speed>0.08</speed>
  <fix>3d</fix>
</trkpt>
<trkpt lat="-27.2387693" lon="151.3640732">
  <ele>427.29</ele>
  <time>2026-09-01T20:01:52Z</time>
  <course>276.5</course>
  <speed>0.0632455532033676</speed>
  <fix>3d</fix>
</trkpt>
<trkpt lat="-27.2387694" lon="151.3640731">
  <ele>427.75</ele>
  <time>2026-09-01T20:01:52Z</time>
  <course>15.81</course>
  <speed>0.08</speed>
  <fix>3d</fix>
</trkpt>
<trkpt lat="-27.2387692" lon="151.3640733">
  <ele>427.14</ele>
  <time>2026-09-01T20:01:52Z</time>
  <course>276.51</course>
  <speed>0.05099019513592785</speed>
  <fix>3d</fix>
</trkpt>
<trkpt lat="-27.2387693" lon="151.3640732">
  <ele>427.45</ele>
  <time>2026-09-01T20:01:52Z</time>
  <course>17.44</course>
  <speed>0.07</speed>
  <fix>3d</fix>
</trkpt>
<trkpt lat="-27.2387692" lon="151.3640733">
  <ele>426.99</ele>
  <time>2026-09-01T20:01:52Z</time>
  <course>276.53</course>
  <speed>0.0412310562561766</speed>
  <fix>3d</fix>
</trkpt>
<trkpt lat="-27.2387693" lon="151.3640732">
  <ele>427.45</ele>
  <time>2026-09-01T20:01:52Z</time>
  <course>17.44</course>
  <speed>0.07</speed>
  <fix>3d</fix>
</trkpt>
<trkpt lat="-27.2387691" lon="151.3640733">
  <ele>426.84</ele>
  <time>2026-09-01T20:01:52Z</time>
  <course>276.54</course>
  <speed>0.0316227766016838</speed>
  <fix>3d</fix>
</trkpt>
<trkpt lat="-27.2387692" lon="151.3640732">
  <ele>427.15</ele>
  <time>2026-09-01T20:01:52Z</time>
  <course>19.51</course>
  <speed>0.05</speed>
  <fix>3d</fix>
</trkpt>
<trkpt lat="-27.2387691" lon="151.3640733">
  <ele>426.69</ele>
  <time>2026-09-01T20:01:52Z</time>
  <course>276.56</course>
  <speed>0.022360679774997897</speed>
  <fix>3d</fix>
</trkpt>
<trkpt lat="-27.2387692" lon="151.3640732">
  <ele>427.15</ele>
  <time>2026-09-01T20:01:52Z</time>
  <course>19.51</course>
  <speed>0.05</speed>
  <fix>3d</fix>
</trkpt>
<trkpt lat="-27.2387691" lon="151.3640733">
  <ele>426.54</ele>
  <time>2026-09-01T20:01:52Z</time>
  <course>276.58</course>
  <speed>0.022360679774997897</speed>
  <fix>3d</fix>
</trkpt>
<trkpt lat="-27.2387691" lon="151.3640733">
  <ele>426.85</ele>
  <time>2026-09-01T20:01:52Z</time>
  <course>22.99</course>
  <speed>0.04</speed>
  <fix>3d</fix>
</trkpt>
<trkpt lat="-27.2387691" lon="151.3640733">
  <ele>426.39</ele>
  <time>2026-09-01T20:01:52Z</time>
  <course>276.62</course>
  <speed>0.01</speed>
  <fix>3d</fix>
</trkpt>
<trkpt lat="-27.2387691" lon="151.3640733">
  <ele>426.85</ele>
  <time>2026-09-01T20:01:52Z</time>
  <course>22.99</course>
  <speed>0.04</speed>
  <fix>3d</fix>
</trkpt>
<trkpt lat="-27.2387691" lon="151.3640733">
  <ele>426.24</ele>
  <time>2026-09-01T20:01:52Z</time>
  <course>276.67</course>
  <speed>0.0</speed>
  <fix>3d</fix>
</trkpt>
<trkpt lat="-27.2387691" lon="151.3640733">
  <ele>426.55</ele>
  <time>2026-09-01T20:01:52Z</time>
  <course>32.89</course>
  <speed>0.02</speed>
  <fix>3d</fix>
</trkpt>
<trkpt lat="-27.2387691" lon="151.3640734">
  <ele>426.09</ele>
  <time>2026-09-01T20:01:52Z</time>
  <course>276.76</course>
  <speed>0.01</speed>
  <fix>3d</fix>
</trkpt>
<trkpt lat="-27.2387691" lon="151.3640733">
  <ele>426.55</ele>
  <time>2026-09-01T20:01:52Z</time>
  <course>32.89</course>
  <speed>0.02</speed>
  <fix>3d</fix>
</trkpt>
<trkpt lat="-27.2387691" lon="151.3640734">
  <ele>425.94</ele>
  <time>2026-09-01T20:01:52Z</time>
  <course>276.9</course>
  <speed>0.02</speed>
  <fix>3d</fix>
</trkpt>
<trkpt lat="-27.2387691" lon="151.3640733">
  <ele>426.25</ele>
  <time>2026-09-01T20:01:52Z</time>
  <course>100.68</course>
  <speed>0.0</speed>
  <fix>3d</fix>
</trkpt>
<trkpt lat="-27.2387691" lon="151.3640734">
  <ele>425.79</ele>
  <time>2026-09-01T20:01:52Z</time>
  <course>276.94</course>
  <speed>0.02</speed>
  <fix>3d</fix>
</trkpt>
<trkpt lat="-27.2387691" lon="151.3640733">
  <ele>426.25</ele>
  <time>2026-09-01T20:01:52Z</time>
  <course>100.68</course>
  <speed>0.0</speed>
  <fix>3d</fix>
</trkpt>
<trkpt lat="-27.2387691" lon="151.3640734">
  <ele>425.64</ele>
  <time>2026-09-01T20:01:52Z</time>
  <course>276.82</course>
  <speed>0.02</speed>
  <fix>3d</fix>
</trkpt>
<trkpt lat="-27.2387691" lon="151.3640734">
  <ele>425.95</ele>
  <time>2026-09-01T20:01:52Z</time>
  <course>164.31</course>
  <speed>0.02</speed>
  <fix>3d</fix>
</trkpt>
<trkpt lat="-27.2387691" lon="151.3640734">
  <ele>425.49</ele>
  <time>2026-09-01T20:01:52Z</time>
  <course>276.6</course>
  <speed>0.02</speed>
  <fix>3d</fix>
</trkpt>
<trkpt lat="-27.2387691" lon="151.3640734">
  <ele>425.95</ele>
  <time>2026-09-01T20:01:52Z</time>
  <course>164.31</course>
  <speed>0.02</speed>
  <fix>3d</fix>
</trkpt>
<trkpt lat="-27.2387691" lon="151.3640734">
  <ele>425.34</ele>
  <time>2026-09-01T20:01:52Z</time>
  <course>276.34</course>
  <speed>0.02</speed>
  <fix>3d</fix>
</trkpt>
<trkpt lat="-27.2387691" lon="151.3640734">
  <ele>425.65</ele>
  <time>2026-09-01T20:01:52Z</time>
  <course>173.12</course>
  <speed>0.02</speed>
  <fix>3d</fix>
</trkpt>
<trkpt lat="-27.2387691" lon="151.3640734">
  <ele>425.19</ele>
  <time>2026-09-01T20:01:52Z</time>
  <course>276.08</course>
  <speed>0.02</speed>
  <fix>3d</fix>
</trkpt>
<trkpt lat="-27.2387691" lon="151.3640734">
  <ele>425.65</ele>
  <time>2026-09-01T20:01:52Z</time>
  <course>173.12</course>
  <speed>0.02</speed>
  <fix>3d</fix>
</trkpt>
<trkpt lat="-27.2387692" lon="151.3640734">
  <ele>425.04</ele>
  <time>2026-09-01T20:01:52Z</time>
  <course>275.86</course>
  <speed>0.02</speed>
  <fix>3d</fix>
</trkpt>
<trkpt lat="-27.2387691" lon="151.3640734">
  <ele>425.35</ele>
  <time>2026-09-01T20:01:52Z</time>
  <course>176.5</course>
  <speed>0.02</speed>
  <fix>3d</fix>
</trkpt>
<trkpt lat="-27.2387692" lon="151.3640734">
  <ele>424.89</ele>
  <time>2026-09-01T20:01:52Z</time>
  <course>275.7</course>
  <speed>0.02</speed>
  <fix>3d</fix>
</trkpt>
<trkpt lat="-27.2387691" lon="151.3640734">
  <ele>425.35</ele>
  <time>2026-09-01T20:01:52Z</time>
  <course>176.5</course>
  <speed>0.02</speed>
  <fix>3d</fix>
</trkpt>
<trkpt lat="-27.2387692" lon="151.3640734">
  <ele>424.74</ele>
  <time>2026-09-01T20:01:52Z</time>
  <course>275.61</course>
  <speed>0.02</speed>
  <fix>3d</fix>
</trkpt>
<trkpt lat="-27.2387691" lon="151.3640734">
  <ele>425.05</ele>
  <time>2026-09-01T20:01:52Z</time>
  <course>178.93</course>
  <speed>0.02</speed>
  <fix>3d</fix>
</trkpt>
<trkpt lat="-27.2387692" lon="151.3640734">
  <ele>424.59</ele>
  <time>2026-09-01T20:01:52Z</time>
  <course>275.58</course>
  <speed>0.02</speed>
  <fix>3d</fix>
</trkpt>
<trkpt lat="-27.2387691" lon="151.3640734">
  <ele>425.05</ele>
  <time>2026-09-01T20:01:52Z</time>
  <course>178.93</course>
  <speed>0.02</speed>
  <fix>3d</fix>
</trkpt>
<trkpt lat="-27.2387693" lon="151.3640734">
  <ele>424.44</ele>
  <time>2026-09-01T20:01:52Z</time>
  <course>275.59</course>
  <speed>0.02</speed>
  <fix>3d</fix>
</trkpt>
<trkpt lat="-27.2387692" lon="151.3640734">
  <ele>424.75</ele>
  <time>2026-09-01T20:01:52Z</time>
  <course>180.5</course>
  <speed>0.02</speed>
  <fix>3d</fix>
</trkpt>
<trkpt lat="-27.2387693" lon="151.3640734">
  <ele>424.29</ele>
  <time>2026-09-01T20:01:52Z</time>
  <course>275.64</course>
  <speed>0.02</speed>
  <fix>3d</fix>
</trkpt>
<trkpt lat="-27.2387692" lon="151.3640734">
  <ele>424.75</ele>
  <time>2026-09-01T20:01:52Z</time>
  <course>180.5</course>
  <speed>0.02</speed>
  <fix>3d</fix>
</trkpt>
<trkpt lat="-27.2387693" lon="151.3640734">
  <ele>424.14</ele>
  <time>2026-09-01T20:01:52Z</time>
  <course>275.7</course>
  <speed>0.02</speed>
  <fix>3d</fix>
</trkpt>
<trkpt lat="-27.2387692" lon="151.3640734">
  <ele>424.45</ele>
  <time>2026-09-01T20:01:52Z</time>
  <course>181.57</course>
  <speed>0.02</speed>
  <fix>3d</fix>
</trkpt>
<trkpt lat="-27.2387693" lon="151.3640734">
  <ele>423.99</ele>
  <time>2026-09-01T20:01:52Z</time>
  <course>275.76</course>
  <speed>0.02</speed>
  <fix>3d</fix>
</trkpt>
<trkpt lat="-27.2387692" lon="151.3640734">
  <ele>424.45</ele>
  <time>2026-09-01T20:01:52Z</time>
  <course>181.57</course>
  <speed>0.02</speed>
  <fix>3d</fix>
</trkpt>
<trkpt lat="-27.2387694" lon="151.3640734">
  <ele>423.84</ele>
  <time>2026-09-01T20:01:52Z</time>
  <course>275.81</course>
  <speed>0.02</speed>
  <fix>3d</fix>
</trkpt>
<trkpt lat="-27.2387693" lon="151.3640734">
  <ele>424.15</ele>
  <time>2026-09-01T20:01:52Z</time>
  <course>182.27</course>
  <speed>0.02</speed>
  <fix>3d</fix>
</trkpt>
<trkpt lat="-27.2387694" lon="151.3640734">
  <ele>423.69</ele>
  <time>2026-09-01T20:01:52Z</time>
  <course>275.85</course>
  <speed>0.02</speed>
  <fix>3d</fix>
</trkpt>
<trkpt lat="-27.2387693" lon="151.3640734">
  <ele>424.15</ele>
  <time>2026-09-01T20:01:52Z</time>
  <course>182.27</course>
  <speed>0.02</speed>
  <fix>3d</fix>
</trkpt>
<trkpt lat="-27.2387694" lon="151.3640734">
  <ele>423.54</ele>
  <time>2026-09-01T20:01:52Z</time>
  <course>275.88</course>
  <speed>0.02</speed>
  <fix>3d</fix>
</trkpt>
<trkpt lat="-27.2387693" lon="151.3640734">
  <ele>423.85</ele>
  <time>2026-09-01T20:01:52Z</time>
  <course>183.22</course>
  <speed>0.02</speed>
  <fix>3d</fix>
</trkpt>
<trkpt lat="-27.2387694" lon="151.3640734">
  <ele>423.39</ele>
  <time>2026-09-01T20:01:52Z</time>
  <course>275.9</course>
  <speed>0.02</speed>
  <fix>3d</fix>
</trkpt>
<trkpt lat="-27.2387693" lon="151.3640734">
  <ele>423.85</ele>
  <time>2026-09-01T20:01:52Z</time>
  <course>183.22</course>
  <speed>0.02</speed>
  <fix>3d</fix>
</trkpt>
<trkpt lat="-27.2387695" lon="151.3640734">
  <ele>423.24</ele>
  <time>2026-09-01T20:01:52Z</time>
  <course>275.91</course>
  <speed>0.02</speed>
  <fix>3d</fix>
</trkpt>
<trkpt lat="-27.2387694" lon="151.3640734">
  <ele>423.55</ele>
  <time>2026-09-01T20:01:52Z</time>
  <course>184.55</course>
  <speed>0.02</speed>
  <fix>3d</fix>
</trkpt>
<trkpt lat="-27.2387695" lon="151.3640734">
  <ele>423.09</ele>
  <time>2026-09-01T20:01:52Z</time>
  <course>275.91</course>
  <speed>0.02</speed>
  <fix>3d</fix>
</trkpt>
<trkpt lat="-27.2387694" lon="151.3640734">
  <ele>423.55</ele>
  <time>2026-09-01T20:01:52Z</time>
  <course>184.55</course>
  <speed>0.02</speed>
  <fix>3d</fix>
</trkpt>
<trkpt lat="-27.2387695" lon="151.3640734">
  <ele>422.94</ele>
  <time>2026-09-01T20:01:52Z</time>
  <course>275.89</course>
  <speed>0.02</speed>
  <fix>3d</fix>
</trkpt>
<trkpt lat="-27.2387694" lon="151.3640734">
  <ele>423.25</ele>
  <time>2026-09-01T20:01:52Z</time>
  <course>186.2</course>
  <speed>0.02</speed>
  <fix>3d</fix>
</trkpt>
<trkpt lat="-27.2387695" lon="151.3640734">
  <ele>422.79</ele>
  <time>2026-09-01T20:01:52Z</time>
  <course>275.87</course>
  <speed>0.02</speed>
  <fix>3d</fix>
</trkpt>
<trkpt lat="-27.2387694" lon="151.3640734">
  <ele>423.25</ele>
  <time>2026-09-01T20:01:52Z</time>
  <course>186.2</course>
  <speed>0.02</speed>
  <fix>3d</fix>
</trkpt>
<trkpt lat="-27.2387696" lon="151.3640734">
  <ele>422.64</ele>
  <time>2026-09-01T20:01:52Z</time>
  <course>275.85</course>
  <speed>0.02</speed>
  <fix>3d</fix>
</trkpt>
<trkpt lat="-27.2387695" lon="151.3640734">
  <ele>422.95</ele>
  <time>2026-09-01T20:01:52Z</time>
  <course>187.67</course>
  <speed>0.02</speed>
  <fix>3d</fix>
</trkpt>
<trkpt lat="-27.2387696" lon="151.3640734">
  <ele>422.49</ele>
  <time>2026-09-01T20:01:52Z</time>
  <course>275.84</course>
  <speed>0.03</speed>
  <fix>3d</fix>
</trkpt>
<trkpt lat="-27.2387695" lon="151.3640734">
  <ele>422.95</ele>
  <time>2026-09-01T20:01:52Z</time>
  <course>187.67</course>
  <speed>0.02</speed>
  <fix>3d</fix>
</trkpt>
<trkpt lat="-27.2387696" lon="151.3640734">
  <ele>422.34</ele>
  <time>2026-09-01T20:01:52Z</time>
  <course>275.85</course>
  <speed>0.03</speed>
  <fix>3d</fix>
</trkpt>
<trkpt lat="-27.2387695" lon="151.3640734">
  <ele>422.65</ele>
  <time>2026-09-01T20:01:52Z</time>
  <course>188.65</course>
  <speed>0.03</speed>
  <fix>3d</fix>
</trkpt>
<trkpt lat="-27.2387697" lon="151.3640734">
  <ele>422.19</ele>
  <time>2026-09-01T20:01:52Z</time>
  <course>275.85</course>
  <speed>0.03</speed>
  <fix>3d</fix>
</trkpt>
<trkpt lat="-27.2387695" lon="151.3640734">
  <ele>422.65</ele>
  <time>2026-09-01T20:01:52Z</time>
  <course>188.65</course>
  <speed>0.03</speed>
  <fix>3d</fix>
</trkpt>
<trkpt lat="-27.2387697" lon="151.3640734">
  <ele>422.04</ele>
  <time>2026-09-01T20:01:52Z</time>
  <course>275.87</course>
  <speed>0.03</speed>
  <fix>3d</fix>
</trkpt>
<trkpt lat="-27.2387696" lon="151.3640734">
  <ele>422.35</ele>
  <time>2026-09-01T20:01:52Z</time>
  <course>189.39</course>
  <speed>0.03</speed>
  <fix>3d</fix>
</trkpt>
<trkpt lat="-27.2387697" lon="151.3640734">
  <ele>421.89</ele>
  <time>2026-09-01T20:01:52Z</time>
  <course>275.9</course>
  <speed>0.03</speed>
  <fix>3d</fix>
</trkpt>
<trkpt lat="-27.2387696" lon="151.3640734">
  <ele>422.35</ele>
  <time>2026-09-01T20:01:52Z</time>
  <course>189.39</course>
  <speed>0.03</speed>
  <fix>3d</fix>
</trkpt>
<trkpt lat="-27.2387697" lon="151.3640734">
  <ele>421.74</ele>
  <time>2026-09-01T20:01:52Z</time>
  <course>275.92</course>
  <speed>0.03</speed>
  <fix>3d</fix>
</trkpt>
<trkpt lat="-27.2387697" lon="151.3640734">
  <ele>422.05</ele>
  <time>2026-09-01T20:01:52Z</time>
  <course>190.31</course>
  <speed>0.03</speed>
  <fix>3d</fix>
</trkpt>
<trkpt lat="-27.2387698" lon="151.3640734">
  <ele>421.59</ele>
  <time>2026-09-01T20:01:52Z</time>
  <course>275.93</course>
  <speed>0.03</speed>
  <fix>3d</fix>
</trkpt>
<trkpt lat="-27.2387697" lon="151.3640734">
  <ele>422.05</ele>
  <time>2026-09-01T20:01:52Z</time>
  <course>190.31</course>
  <speed>0.03</speed>
  <fix>3d</fix>
</trkpt>
<trkpt lat="-27.2387698" lon="151.3640734">
  <ele>421.44</ele>
  <time>2026-09-01T20:01:52Z</time>
  <course>275.96</course>
  <speed>0.03</speed>
  <fix>3d</fix>
</trkpt>
<trkpt lat="-27.2387697" lon="151.3640734">
  <ele>421.75</ele>
  <time>2026-09-01T20:01:52Z</time>
  <course>191.48</course>
  <speed>0.03</speed>
  <fix>3d</fix>
</trkpt>
<trkpt lat="-27.2387698" lon="151.3640734">
  <ele>421.29</ele>
  <time>2026-09-01T20:01:52Z</time>
  <course>276.0</course>
  <speed>0.03</speed>
  <fix>3d</fix>
</trkpt>
<trkpt lat="-27.2387697" lon="151.3640734">
  <ele>421.75</ele>
  <time>2026-09-01T20:01:52Z</time>
  <course>191.48</course>
  <speed>0.03</speed>
  <fix>3d</fix>
</trkpt>
<trkpt lat="-27.2387699" lon="151.3640734">
  <ele>421.14</ele>
  <time>2026-09-01T20:01:52Z</time>
  <course>276.03</course>
  <speed>0.03</speed>
  <fix>3d</fix>
</trkpt>
<trkpt lat="-27.2387698" lon="151.3640734">
  <ele>421.45</ele>
  <time>2026-09-01T20:01:52Z</time>
  <course>192.63</course>
  <speed>0.03</speed>
  <fix>3d</fix>
</trkpt>
<trkpt lat="-27.2387699" lon="151.3640734">
  <ele>420.99</ele>
  <time>2026-09-01T20:01:52Z</time>
  <course>276.04</course>
  <speed>0.03</speed>
  <fix>3d</fix>
</trkpt>
<trkpt lat="-27.2387698" lon="151.3640734">
  <ele>421.45</ele>
  <time>2026-09-01T20:01:52Z</time>
  <course>192.63</course>
  <speed>0.03</speed>
  <fix>3d</fix>
</trkpt>
<trkpt lat="-27.2387699" lon="151.3640734">
  <ele>420.84</ele>
  <time>2026-09-01T20:01:52Z</time>
  <course>276.06</course>
  <speed>0.03</speed>
  <fix>3d</fix>
</trkpt>
<trkpt lat="-27.2387698" lon="151.3640734">
  <ele>421.15</ele>
  <time>2026-09-01T20:01:52Z</time>
  <course>193.69</course>
  <speed>0.03</speed>
  <fix>3d</fix>
</trkpt>
<trkpt lat="-27.2387699" lon="151.3640734">
  <ele>420.69</ele>
  <time>2026-09-01T20:01:52Z</time>
  <course>276.08</course>
  <speed>0.03</speed>
  <fix>3d</fix>
</trkpt>
<trkpt lat="-27.2387698" lon="151.3640734">
  <ele>421.15</ele>
  <time>2026-09-01T20:01:52Z</time>
  <course>193.69</course>
  <speed>0.03</speed>
  <fix>3d</fix>
</trkpt>
<trkpt lat="-27.23877" lon="151.3640733">
  <ele>420.54</ele>
  <time>2026-09-01T20:01:52Z</time>
  <course>276.09</course>
  <speed>0.03</speed>
  <fix>3d</fix>
</trkpt>
<trkpt lat="-27.2387699" lon="151.3640734">
  <ele>420.85</ele>
  <time>2026-09-01T20:01:52Z</time>
  <course>194.49</course>
  <speed>0.03</speed>
  <fix>3d</fix>
</trkpt>
<trkpt lat="-27.23877" lon="151.3640733">
  <ele>420.39</ele>
  <time>2026-09-01T20:01:52Z</time>
  <course>276.1</course>
  <speed>0.03</speed>
  <fix>3d</fix>
</trkpt>
<trkpt lat="-27.2387699" lon="151.3640734">
  <ele>420.85</ele>
  <time>2026-09-01T20:01:52Z</time>
  <course>194.49</course>
  <speed>0.03</speed>
  <fix>3d</fix>
</trkpt>
<trkpt lat="-27.23877" lon="151.3640733">
  <ele>420.24</ele>
  <time>2026-09-01T20:01:52Z</time>
  <course>276.11</course>
  <speed>0.03</speed>
  <fix>3d</fix>
</trkpt>
<trkpt lat="-27.2387699" lon="151.3640733">
  <ele>420.55</ele>
  <time>2026-09-01T20:01:52Z</time>
  <course>195.08</course>
  <speed>0.03</speed>
  <fix>3d</fix>
</trkpt>
<trkpt lat="-27.2387701" lon="151.3640733">
  <ele>420.09</ele>
  <time>2026-09-01T20:01:52Z</time>
  <course>276.12</course>
  <speed>0.0316227766016838</speed>
  <fix>3d</fix>
</trkpt>
<trkpt lat="-27.2387699" lon="151.3640733">
  <ele>420.55</ele>
  <time>2026-09-01T20:01:52Z</time>
  <course>195.08</course>
  <speed>0.03</speed>
  <fix>3d</fix>
</trkpt>
<trkpt lat="-27.2387701" lon="151.3640733">
  <ele>419.94</ele>
  <time>2026-09-01T20:01:52Z</time>
  <course>276.14</course>
  <speed>0.0316227766016838</speed>
  <fix>3d</fix>
</trkpt>
<trkpt lat="-27.23877" lon="151.3640733">
  <ele>420.25</ele>
  <time>2026-09-01T20:01:52Z</time>
  <course>195.68</course>
  <speed>0.03</speed>
  <fix>3d</fix>
</trkpt>
<trkpt lat="-27.2387701" lon="151.3640733">
  <ele>419.79</ele>
  <time>2026-09-01T20:01:52Z</time>
  <course>276.17</course>
  <speed>0.0316227766016838</speed>
  <fix>3d</fix>
</trkpt>
<trkpt lat="-27.23877" lon="151.3640733">
  <ele>420.25</ele>
  <time>2026-09-01T20:01:52Z</time>
  <course>195.68</course>
  <speed>0.03</speed>
  <fix>3d</fix>
</trkpt>
<trkpt lat="-27.2387702" lon="151.3640733">
  <ele>419.64</ele>
  <time>2026-09-01T20:01:52Z</time>
  <course>276.21</course>
  <speed>0.0316227766016838</speed>
  <fix>3d</fix>
</trkpt>
<trkpt lat="-27.2387701" lon="151.3640733">
  <ele>419.95</ele>
  <time>2026-09-01T20:01:52Z</time>
  <course>196.4</course>
  <speed>0.03</speed>
  <fix>3d</fix>
</trkpt>
<trkpt lat="-27.2387702" lon="151.3640733">
  <ele>419.49</ele>
  <time>2026-09-01T20:01:52Z</time>
  <course>276.26</course>
  <speed>0.0316227766016838</speed>
  <fix>3d</fix>
</trkpt>
<trkpt lat="-27.2387701" lon="151.3640733">
  <ele>419.95</ele>
  <time>2026-09-01T20:01:52Z</time>
  <course>196.4</course>
  <speed>0.03</speed>
  <fix>3d</fix>
</trkpt>
<trkpt lat="-27.2387702" lon="151.3640733">
  <ele>419.34</ele>
  <time>2026-09-01T20:01:52Z</time>
  <course>276.3</course>
  <speed>0.0316227766016838</speed>
  <fix>3d</fix>
</trkpt>
<trkpt lat="-27.2387701" lon="151.3640733">
  <ele>419.65</ele>
  <time>2026-09-01T20:01:52Z</time>
  <course>196.89</course>
  <speed>0.03</speed>
  <fix>3d</fix>
</trkpt>
<trkpt lat="-27.2387703" lon="151.3640732">
  <ele>419.19</ele>
  <time>2026-09-01T20:01:52Z</time>
  <course>276.33</course>
  <speed>0.0316227766016838</speed>
  <fix>3d</fix>
</trkpt>
<trkpt lat="-27.2387701" lon="151.3640733">
  <ele>419.65</ele>
  <time>2026-09-01T20:01:52Z</time>
  <course>196.89</course>
  <speed>0.03</speed>
  <fix>3d</fix>
</trkpt>
<trkpt lat="-27.2387703" lon="151.3640732">
  <ele>419.04</ele>
  <time>2026-09-01T20:01:52Z</time>
  <course>276.36</course>
  <speed>0.0316227766016838</speed>
  <fix>3d</fix>
</trkpt>
<trkpt lat="-27.2387702" lon="151.3640732">
  <ele>419.35</ele>
  <time>2026-09-01T20:01:52Z</time>
  <course>197.34</course>
  <speed>0.04</speed>
  <fix>3d</fix>
</trkpt>
<trkpt lat="-27.2387703" lon="151.3640732">
  <ele>418.89</ele>
  <time>2026-09-01T20:01:52Z</time>
  <course>276.39</course>
  <speed>0.0412310562561766</speed>
  <fix>3d</fix>
</trkpt>
<trkpt lat="-27.2387702" lon="151.3640732">
  <ele>419.35</ele>
  <time>2026-09-01T20:01:52Z</time>
  <course>197.34</course>
  <speed>0.04</speed>
  <fix>3d</fix>
</trkpt>
<trkpt lat="-27.2387704" lon="151.3640732">
  <ele>418.74</ele>
  <time>2026-09-01T20:01:52Z</time>
  <course>276.41</course>
  <speed>0.0412310562561766</speed>
  <fix>3d</fix>
</trkpt>
<trkpt lat="-27.2387703" lon="151.3640732">
  <ele>419.05</ele>
  <time>2026-09-01T20:01:52Z</time>
  <course>197.97</course>
  <speed>0.04</speed>
  <fix>3d</fix>
</trkpt>
<trkpt lat="-27.2387704" lon="151.3640732">
  <ele>418.59</ele>
  <time>2026-09-01T20:01:52Z</time>
  <course>276.43</course>
  <speed>0.0412310562561766</speed>
  <fix>3d</fix>
</trkpt>
<trkpt lat="-27.2387703" lon="151.3640732">
  <ele>419.05</ele>
  <time>2026-09-01T20:01:52Z</time>
  <course>197.97</course>
  <speed>0.04</speed>
  <fix>3d</fix>
</trkpt>
<trkpt lat="-27.2387705" lon="151.3640732">
  <ele>418.44</ele>
  <time>2026-09-01T20:01:52Z</time>
  <course>276.45</course>
  <speed>0.0412310562561766</speed>
  <fix>3d</fix>
</trkpt>
<trkpt lat="-27.2387703" lon="151.3640732">
  <ele>418.75</ele>
  <time>2026-09-01T20:01:52Z</time>
  <course>198.01</course>
  <speed>0.04</speed>
  <fix>3d</fix>
</trkpt>
<trkpt lat="-27.2387705" lon="151.3640732">
  <ele>418.29</ele>
  <time>2026-09-01T20:01:52Z</time>
  <course>276.48</course>
  <speed>0.0412310562561766</speed>
  <fix>3d</fix>
</trkpt>
<trkpt lat="-27.2387703" lon="151.3640732">
  <ele>418.75</ele>
  <time>2026-09-01T20:01:52Z</time>
  <course>198.01</course>
  <speed>0.04</speed>
  <fix>3d</fix>
</trkpt>
<trkpt lat="-27.2387705" lon="151.3640732">
  <ele>418.14</ele>
  <time>2026-09-01T20:01:52Z</time>
  <course>276.52</course>
  <speed>0.0412310562561766</speed>
  <fix>3d</fix>
</trkpt>
<trkpt lat="-27.2387704" lon="151.3640732">
  <ele>418.45</ele>
  <time>2026-09-01T20:01:52Z</time>
  <course>198.04</course>
  <speed>0.04</speed>
  <fix>3d</fix>
</trkpt>
<trkpt lat="-27.2387706" lon="151.364073">
  <ele>417.99</ele>
  <time>2026-09-01T20:01:52Z</time>
  <course>276.56</course>
  <speed>0.0412310562561766</speed>
  <fix>3d</fix>
</trkpt>
<trkpt lat="-27.2387704" lon="151.3640732">
  <ele>418.45</ele>
  <time>2026-09-01T20:01:52Z</time>
  <course>198.04</course>
  <speed>0.04</speed>
  <fix>3d</fix>
</trkpt>
<trkpt lat="-27.2387706" lon="151.364073">
  <ele>417.84</ele>
  <time>2026-09-01T20:01:52Z</time>
  <course>276.6</course>
  <speed>0.0412310562561766</speed>
  <fix>3d</fix>
</trkpt>
<trkpt lat="-27.2387705" lon="151.3640731">
  <ele>418.15</ele>
  <time>2026-09-01T20:01:52Z</time>
  <course>198.36</course>
  <speed>0.04</speed>
  <fix>3d</fix>
</trkpt>
<trkpt lat="-27.2387707" lon="151.364073">
  <ele>417.69</ele>
  <time>2026-09-01T20:01:52Z</time>
  <course>276.64</course>
  <speed>0.0412310562561766</speed>
  <fix>3d</fix>
</trkpt>
<trkpt lat="-27.2387705" lon="151.3640731">
  <ele>418.15</ele>
  <time>2026-09-01T20:01:52Z</time>
  <course>198.36</course>
  <speed>0.04</speed>
  <fix>3d</fix>
</trkpt>
<trkpt lat="-27.2387707" lon="151.364073">
  <ele>417.54</ele>
  <time>2026-09-01T20:01:52Z</time>
  <course>276.69</course>
  <speed>0.0412310562561766</speed>
  <fix>3d</fix>
</trkpt>
<trkpt lat="-27.2387706" lon="151.364073">
  <ele>417.85</ele>
  <time>2026-09-01T20:01:52Z</time>
  <course>198.09</course>
  <speed>0.04</speed>
  <fix>3d</fix>
</trkpt>
<trkpt lat="-27.2387707" lon="151.364073">
  <ele>417.39</ele>
  <time>2026-09-01T20:01:52Z</time>
  <course>276.74</course>
  <speed>0.0412310562561766</speed>
  <fix>3d</fix>
</trkpt>
<trkpt lat="-27.2387706" lon="151.364073">
  <ele>417.85</ele>
  <time>2026-09-01T20:01:52Z</time>
  <course>198.09</course>
  <speed>0.04</speed>
  <fix>3d</fix>
</trkpt>
<trkpt lat="-27.2387708" lon="151.364073">
  <ele>417.24</ele>
  <time>2026-09-01T20:01:52Z</time>
  <course>276.78</course>
  <speed>0.0412310562561766</speed>
  <fix>3d</fix>
</trkpt>
<trkpt lat="-27.2387707" lon="151.364073">
  <ele>417.55</ele>
  <time>2026-09-01T20:01:52Z</time>
  <course>197.12</course>
  <speed>0.04</speed>
  <fix>3d</fix>
</trkpt>
<trkpt lat="-27.2387708" lon="151.364073">
  <ele>417.09</ele>
  <time>2026-09-01T20:01:52Z</time>
  <course>276.83</course>
  <speed>0.0412310562561766</speed>
  <fix>3d</fix>
</trkpt>
<trkpt lat="-27.2387707" lon="151.364073">
  <ele>417.55</ele>
  <time>2026-09-01T20:01:52Z</time>
  <course>197.12</course>
  <speed>0.04</speed>
  <fix>3d</fix>
</trkpt>
<trkpt lat="-27.2387709" lon="151.364073">
  <ele>416.94</ele>
  <time>2026-09-01T20:01:52Z</time>
  <course>276.88</course>
  <speed>0.05099019513592785</speed>
  <fix>3d</fix>
</trkpt>
<trkpt lat="-27.2387707" lon="151.364073">
  <ele>417.25</ele>
  <time>2026-09-01T20:01:52Z</time>
  <course>196.35</course>
  <speed>0.05</speed>
  <fix>3d</fix>
</trkpt>
<trkpt lat="-27.2387709" lon="151.364073">
  <ele>416.79</ele>
  <time>2026-09-01T20:01:52Z</time>
  <course>276.92</course>
  <speed>0.05099019513592785</speed>
  <fix>3d</fix>
</trkpt>
<trkpt lat="-27.2387707" lon="151.364073">
  <ele>417.25</ele>
  <time>2026-09-01T20:01:52Z</time>
  <course>196.35</course>
  <speed>0.05</speed>
  <fix>3d</fix>
</trkpt>
<trkpt lat="-27.238771" lon="151.364073">
  <ele>416.64</ele>
  <time>2026-09-01T20:01:52Z</time>
  <course>276.94</course>
  <speed>0.0412310562561766</speed>
  <fix>3d</fix>
</trkpt>
<trkpt lat="-27.2387708" lon="151.364073">
  <ele>416.95</ele>
  <time>2026-09-01T20:01:52Z</time>
  <course>196.13</course>
  <speed>0.05</speed>
  <fix>3d</fix>
</trkpt>
<trkpt lat="-27.238771" lon="151.364073">
  <ele>416.49</ele>
  <time>2026-09-01T20:01:52Z</time>
  <course>276.81</course>
  <speed>0.0316227766016838</speed>
  <fix>3d</fix>
</trkpt>
<trkpt lat="-27.2387708" lon="151.364073">
  <ele>416.95</ele>
  <time>2026-09-01T20:01:52Z</time>
  <course>196.13</course>
  <speed>0.05</speed>
  <fix>3d</fix>
</trkpt>
<trkpt lat="-27.238771" lon="151.364073">
  <ele>416.34</ele>
  <time>2026-09-01T20:01:52Z</time>
  <course>276.51</course>
  <speed>0.01414213562373095</speed>
  <fix>3d</fix>
</trkpt>
<trkpt lat="-27.2387709" lon="151.364073">
  <ele>416.65</ele>
  <time>2026-09-01T20:01:52Z</time>
  <course>198.13</course>
  <speed>0.04</speed>
  <fix>3d</fix>
</trkpt>
<trkpt lat="-27.238771" lon="151.364073">
  <ele>416.19</ele>
  <time>2026-09-01T20:01:52Z</time>
  <course>276.1</course>
  <speed>0.0</speed>
  <fix>3d</fix>
</trkpt>
<trkpt lat="-27.2387709" lon="151.364073">
  <ele>416.65</ele>
  <time>2026-09-01T20:01:52Z</time>
  <course>198.13</course>
  <speed>0.04</speed>
  <fix>3d</fix>
</trkpt>
<trkpt lat="-27.238771" lon="151.364073">
  <ele>416.04</ele>
  <time>2026-09-01T20:01:52Z</time>
  <course>275.7</course>
  <speed>0.01</speed>
  <fix>3d</fix>
</trkpt>
<trkpt lat="-27.238771" lon="151.364073">
  <ele>416.35</ele>
  <time>2026-09-01T20:01:52Z</time>
  <course>211.46</course>
  <speed>0.02</speed>
  <fix>3d</fix>
</trkpt>
<trkpt lat="-27.238771" lon="151.364073">
  <ele>415.89</ele>
  <time>2026-09-01T20:01:52Z</time>
  <course>275.35</course>
  <speed>0.02</speed>
  <fix>3d</fix>
</trkpt>
<trkpt lat="-27.238771" lon="151.364073">
  <ele>416.35</ele>
  <time>2026-09-01T20:01:52Z</time>
  <course>211.46</course>
  <speed>0.02</speed>
  <fix>3d</fix>
</trkpt>
<trkpt lat="-27.238771" lon="151.3640729">
  <ele>415.74</ele>
  <time>2026-09-01T20:01:52Z</time>
  <course>275.1</course>
  <speed>0.03</speed>
  <fix>3d</fix>
</trkpt>
<trkpt lat="-27.238771" lon="151.364073">
  <ele>416.05</ele>
  <time>2026-09-01T20:01:52Z</time>
  <course>326.18</course>
  <speed>0.01</speed>
  <fix>3d</fix>
</trkpt>
<trkpt lat="-27.238771" lon="151.3640729">
  <ele>415.59</ele>
  <time>2026-09-01T20:01:52Z</time>
  <course>274.97</course>
  <speed>0.04</speed>
  <fix>3d</fix>
</trkpt>
<trkpt lat="-27.238771" lon="151.364073">
  <ele>416.05</ele>
  <time>2026-09-01T20:01:52Z</time>
  <course>326.18</course>
  <speed>0.01</speed>
  <fix>3d</fix>
</trkpt>
<trkpt lat="-27.238771" lon="151.3640729">
  <ele>415.44</ele>
  <time>2026-09-01T20:01:52Z</time>
  <course>274.94</course>
  <speed>0.05</speed>
  <fix>3d</fix>
</trkpt>
<trkpt lat="-27.238771" lon="151.3640729">
  <ele>415.75</ele>
  <time>2026-09-01T20:01:52Z</time>
  <course>355.35</course>
  <speed>0.03</speed>
  <fix>3d</fix>
</trkpt>
<trkpt lat="-27.2387709" lon="151.364073">
  <ele>415.29</ele>
  <time>2026-09-01T20:01:52Z</time>
  <course>274.99</course>
  <speed>0.06</speed>
  <fix>3d</fix>
</trkpt>
<trkpt lat="-27.238771" lon="151.3640729">
  <ele>415.75</ele>
  <time>2026-09-01T20:01:52Z</time>
  <course>355.35</course>
  <speed>0.03</speed>
  <fix>3d</fix>
</trkpt>
<trkpt lat="-27.2387709" lon="151.364073">
  <ele>415.14</ele>
  <time>2026-09-01T20:01:52Z</time>
  <course>275.09</course>
  <speed>0.07</speed>
  <fix>3d</fix>
</trkpt>
<trkpt lat="-27.2387709" lon="151.3640729">
  <ele>415.45</ele>
  <time>2026-09-01T20:01:52Z</time>
  <course>1.72</course>
  <speed>0.05</speed>
  <fix>3d</fix>
</trkpt>
<trkpt lat="-27.2387708" lon="151.364073">
  <ele>414.99</ele>
  <time>2026-09-01T20:01:52Z</time>
  <course>275.2</course>
  <speed>0.08</speed>
  <fix>3d</fix>
</trkpt>
<trkpt lat="-27.2387709" lon="151.3640729">
  <ele>415.45</ele>
  <time>2026-09-01T20:01:52Z</time>
  <course>1.72</course>
  <speed>0.05</speed>
  <fix>3d</fix>
</trkpt>
<trkpt lat="-27.2387707" lon="151.364073">
  <ele>414.84</ele>
  <time>2026-09-01T20:01:52Z</time>
  <course>275.32</course>
  <speed>0.09055385138137417</speed>
  <fix>3d</fix>
</trkpt>
<trkpt lat="-27.2387708" lon="151.364073">
  <ele>415.15</ele>
  <time>2026-09-01T20:01:52Z</time>
  <course>4.74</course>
  <speed>0.07</speed>
  <fix>3d</fix>
</trkpt>
<trkpt lat="-27.2387706" lon="151.364073">
  <ele>414.69</ele>
  <time>2026-09-01T20:01:52Z</time>
  <course>275.41</course>
  <speed>0.09055385138137417</speed>
  <fix>3d</fix>
</trkpt>
<trkpt lat="-27.2387708" lon="151.364073">
  <ele>415.15</ele>
  <time>2026-09-01T20:01:52Z</time>
  <course>4.74</course>
  <speed>0.07</speed>
  <fix>3d</fix>
</trkpt>
<trkpt lat="-27.2387705" lon="151.364073">
  <ele>414.54</ele>
  <time>2026-09-01T20:01:52Z</time>
  <course>275.47</course>
  <speed>0.1004987562112089</speed>
  <fix>3d</fix>
</trkpt>
<trkpt lat="-27.2387706" lon="151.364073">
  <ele>414.85</ele>
  <time>2026-09-01T20:01:52Z</time>
  <course>6.27</course>
  <speed>0.09</speed>
  <fix>3d</fix>
</trkpt>
<trkpt lat="-27.2387704" lon="151.364073">
  <ele>414.39</ele>
  <time>2026-09-01T20:01:52Z</time>
  <course>275.5</course>
  <speed>0.1004987562112089</speed>
  <fix>3d</fix>
</trkpt>
<trkpt lat="-27.2387706" lon="151.364073">
  <ele>414.85</ele>
  <time>2026-09-01T20:01:52Z</time>
  <course>6.27</course>
  <speed>0.09</speed>
  <fix>3d</fix>
</trkpt>
<trkpt lat="-27.2387703" lon="151.364073">
  <ele>414.24</ele>
  <time>2026-09-01T20:01:52Z</time>
  <course>275.51</course>
  <speed>0.11045361017187261</speed>
  <fix>3d</fix>
</trkpt>
<trkpt lat="-27.2387705" lon="151.364073">
  <ele>414.55</ele>
  <time>2026-09-01T20:01:52Z</time>
  <course>7.15</course>
  <speed>0.1</speed>
  <fix>3d</fix>
</trkpt>
<trkpt lat="-27.2387702" lon="151.364073">
  <ele>414.09</ele>
  <time>2026-09-01T20:01:52Z</time>
  <course>275.5</course>
  <speed>0.11045361017187261</speed>
  <fix>3d</fix>
</trkpt>
<trkpt lat="-27.2387705" lon="151.364073">
  <ele>414.55</ele>
  <time>2026-09-01T20:01:52Z</time>
  <course>7.15</course>
  <speed>0.1</speed>
  <fix>3d</fix>
</trkpt>
<trkpt lat="-27.2387701" lon="151.364073">
  <ele>413.94</ele>
  <time>2026-09-01T20:01:52Z</time>
  <course>275.48</course>
  <speed>0.11045361017187261</speed>
  <fix>3d</fix>
</trkpt>
<trkpt lat="-27.2387703" lon="151.364073">
  <ele>414.25</ele>
  <time>2026-09-01T20:01:52Z</time>
  <course>7.73</course>
  <speed>0.11</speed>
  <fix>3d</fix>
</trkpt>
<trkpt lat="-27.23877" lon="151.364073">
  <ele>413.79</ele>
  <time>2026-09-01T20:01:52Z</time>
  <course>275.45</course>
  <speed>0.11045361017187261</speed>
  <fix>3d</fix>
</trkpt>
<trkpt lat="-27.2387703" lon="151.364073">
  <ele>414.25</ele>
  <time>2026-09-01T20:01:52Z</time>
  <course>7.73</course>
  <speed>0.11</speed>
  <fix>3d</fix>
</trkpt>
<trkpt lat="-27.2387699" lon="151.364073">
  <ele>413.64</ele>
  <time>2026-09-01T20:01:52Z</time>
  <course>275.42</course>
  <speed>0.11045361017187261</speed>
  <fix>3d</fix>
</trkpt>
<trkpt lat="-27.23877" lon="151.364073">
  <ele>413.95</ele>
  <time>2026-09-01T20:01:52Z</time>
  <course>8.08</course>
  <speed>0.11</speed>
  <fix>3d</fix>
</trkpt>
<trkpt lat="-27.2387698" lon="151.364073">
  <ele>413.49</ele>
  <time>2026-09-01T20:01:52Z</time>
  <course>275.4</course>
  <speed>0.11045361017187261</speed>
  <fix>3d</fix>
</trkpt>
<trkpt lat="-27.23877" lon="151.364073">
  <ele>413.95</ele>
  <time>2026-09-01T20:01:52Z</time>
  <course>8.08</course>
  <speed>0.11</speed>
  <fix>3d</fix>
</trkpt>
<trkpt lat="-27.2387697" lon="151.364073">
  <ele>413.34</ele>
  <time>2026-09-01T20:01:52Z</time>
  <course>275.38</course>
  <speed>0.11045361017187261</speed>
  <fix>3d</fix>
</trkpt>
<trkpt lat="-27.2387699" lon="151.364073">
  <ele>413.65</ele>
  <time>2026-09-01T20:01:52Z</time>
  <course>8.53</course>
  <speed>0.11</speed>
  <fix>3d</fix>
</trkpt>
<trkpt lat="-27.2387696" lon="151.364073">
  <ele>413.19</ele>
  <time>2026-09-01T20:01:52Z</time>
  <course>275.37</course>
  <speed>0.11045361017187261</speed>
  <fix>3d</fix>
</trkpt>
<trkpt lat="-27.2387699" lon="151.364073">
  <ele>413.65</ele>
  <time>2026-09-01T20:01:52Z</time>
  <course>8.53</course>
  <speed>0.11</speed>
  <fix>3d</fix>
</trkpt>
<trkpt lat="-27.2387695" lon="151.364073">
  <ele>413.04</ele>
  <time>2026-09-01T20:01:52Z</time>
  <course>275.37</course>
  <speed>0.11045361017187261</speed>
  <fix>3d</fix>
</trkpt>
<trkpt lat="-27.2387697" lon="151.364073">
  <ele>413.35</ele>
  <time>2026-09-01T20:01:52Z</time>
  <course>9.2</course>
  <speed>0.11</speed>
  <fix>3d</fix>
</trkpt>
<trkpt lat="-27.2387694" lon="151.364073">
  <ele>412.89</ele>
  <time>2026-09-01T20:01:52Z</time>
  <course>275.38</course>
  <speed>0.1004987562112089</speed>
  <fix>3d</fix>
</trkpt>
<trkpt lat="-27.2387697" lon="151.364073">
  <ele>413.35</ele>
  <time>2026-09-01T20:01:52Z</time>
  <course>9.2</course>
  <speed>0.11</speed>
  <fix>3d</fix>
</trkpt>
<trkpt lat="-27.2387693" lon="151.364073">
  <ele>412.74</ele>
  <time>2026-09-01T20:01:52Z</time>
  <course>275.38</course>
  <speed>0.1004987562112089</speed>
  <fix>3d</fix>
</trkpt>
<trkpt lat="-27.2387694" lon="151.364073">
  <ele>413.05</ele>
  <time>2026-09-01T20:01:52Z</time>
  <course>9.87</course>
  <speed>0.11</speed>
  <fix>3d</fix>
</trkpt>
<trkpt lat="-27.2387692" lon="151.364073">
  <ele>412.59</ele>
  <time>2026-09-01T20:01:52Z</time>
  <course>275.39</course>
  <speed>0.09055385138137417</speed>
  <fix>3d</fix>
</trkpt>
<trkpt lat="-27.2387694" lon="151.364073">
  <ele>413.05</ele>
  <time>2026-09-01T20:01:52Z</time>
  <course>9.87</course>
  <speed>0.11</speed>
  <fix>3d</fix>
</trkpt>
<trkpt lat="-27.2387691" lon="151.364073">
  <ele>412.44</ele>
  <time>2026-09-01T20:01:52Z</time>
  <course>275.4</course>
  <speed>0.09055385138137417</speed>
  <fix>3d</fix>
</trkpt>
<trkpt lat="-27.2387693" lon="151.364073">
  <ele>412.75</ele>
  <time>2026-09-01T20:01:52Z</time>
  <course>10.56</course>
  <speed>0.1</speed>
  <fix>3d</fix>
</trkpt>
<trkpt lat="-27.2387691" lon="151.3640732">
  <ele>412.29</ele>
  <time>2026-09-01T20:01:52Z</time>
  <course>275.41</course>
  <speed>0.08062257748298549</speed>
  <fix>3d</fix>
</trkpt>
<trkpt lat="-27.2387693" lon="151.364073">
  <ele>412.75</ele>
  <time>2026-09-01T20:01:52Z</time>
  <course>10.56</course>
  <speed>0.1</speed>
  <fix>3d</fix>
</trkpt>
<trkpt lat="-27.238769" lon="151.3640732">
  <ele>412.14</ele>
  <time>2026-09-01T20:01:52Z</time>
  <course>275.43</course>
  <speed>0.08062257748298549</speed>
  <fix>3d</fix>
</trkpt>
<trkpt lat="-27.2387691" lon="151.3640731">
  <ele>412.45</ele>
  <time>2026-09-01T20:01:52Z</time>
  <course>11.36</course>
  <speed>0.09</speed>
  <fix>3d</fix>
</trkpt>
<trkpt lat="-27.2387689" lon="151.3640732">
  <ele>411.99</ele>
  <time>2026-09-01T20:01:52Z</time>
  <course>275.44</course>
  <speed>0.07071067811865475</speed>
  <fix>3d</fix>
</trkpt>
<trkpt lat="-27.2387691" lon="151.3640731">
  <ele>412.45</ele>
  <time>2026-09-01T20:01:52Z</time>
  <course>11.36</course>
  <speed>0.09</speed>
  <fix>3d</fix>
</trkpt>
<trkpt lat="-27.2387688" lon="151.3640732">
  <ele>411.84</ele>
  <time>2026-09-01T20:01:52Z</time>
  <course>275.46</course>
  <speed>0.06082762530298219</speed>
  <fix>3d</fix>
</trkpt>
<trkpt lat="-27.238769" lon="151.3640732">
  <ele>412.15</ele>
  <time>2026-09-01T20:01:52Z</time>
  <course>12.43</course>
  <speed>0.08</speed>
  <fix>3d</fix>
</trkpt>
<trkpt lat="-27.2387688" lon="151.3640732">
  <ele>411.69</ele>
  <time>2026-09-01T20:01:52Z</time>
  <course>275.47</course>
  <speed>0.05099019513592785</speed>
  <fix>3d</fix>
</trkpt>
<trkpt lat="-27.238769" lon="151.3640732">
  <ele>412.15</ele>
  <time>2026-09-01T20:01:52Z</time>
  <course>12.43</course>
  <speed>0.08</speed>
  <fix>3d</fix>
</trkpt>
<trkpt lat="-27.2387687" lon="151.3640733">
  <ele>411.54</ele>
  <time>2026-09-01T20:01:52Z</time>
  <course>275.49</course>
  <speed>0.05099019513592785</speed>
  <fix>3d</fix>
</trkpt>
<trkpt lat="-27.2387688" lon="151.3640732">
  <ele>411.85</ele>
  <time>2026-09-01T20:01:52Z</time>
  <course>13.98</course>
  <speed>0.06</speed>
  <fix>3d</fix>
</trkpt>
<trkpt lat="-27.2387687" lon="151.3640733">
  <ele>411.39</ele>
  <time>2026-09-01T20:01:52Z</time>
  <course>275.51</course>
  <speed>0.0412310562561766</speed>
  <fix>3d</fix>
</trkpt>
<trkpt lat="-27.2387688" lon="151.3640732">
  <ele>411.85</ele>
  <time>2026-09-01T20:01:52Z</time>
  <course>13.98</course>
  <speed>0.06</speed>
  <fix>3d</fix>
</trkpt>
<trkpt lat="-27.2387687" lon="151.3640733">
  <ele>411.24</ele>
  <time>2026-09-01T20:01:52Z</time>
  <course>275.54</course>
  <speed>0.0316227766016838</speed>
  <fix>3d</fix>
</trkpt>
<trkpt lat="-27.2387687" lon="151.3640732">
  <ele>411.55</ele>
  <time>2026-09-01T20:01:52Z</time>
  <course>16.43</course>
  <speed>0.05</speed>
  <fix>3d</fix>
</trkpt>
<trkpt lat="-27.2387686" lon="151.3640733">
  <ele>411.09</ele>
  <time>2026-09-01T20:01:52Z</time>
  <course>275.57</course>
  <speed>0.022360679774997897</speed>
  <fix>3d</fix>
</trkpt>
<trkpt lat="-27.2387687" lon="151.3640732">
  <ele>411.55</ele>
  <time>2026-09-01T20:01:52Z</time>
  <course>16.43</course>
  <speed>0.05</speed>
  <fix>3d</fix>
</trkpt>
<trkpt lat="-27.2387686" lon="151.3640733">
  <ele>410.94</ele>
  <time>2026-09-01T20:01:52Z</time>
  <course>275.61</course>
  <speed>0.01</speed>
  <fix>3d</fix>
</trkpt>
<trkpt lat="-27.2387686" lon="151.3640733">
  <ele>411.25</ele>
  <time>2026-09-01T20:01:52Z</time>
  <course>21.23</course>
  <speed>0.03</speed>
  <fix>3d</fix>
</trkpt>
<trkpt lat="-27.2387686" lon="151.3640733">
  <ele>410.79</ele>
  <time>2026-09-01T20:01:52Z</time>
  <course>275.67</course>
  <speed>0.0</speed>
  <fix>3d</fix>
</trkpt>
<trkpt lat="-27.2387686" lon="151.3640733">
  <ele>411.25</ele>
  <time>2026-09-01T20:01:52Z</time>
  <course>21.23</course>
  <speed>0.03</speed>
  <fix>3d</fix>
</trkpt>
<trkpt lat="-27.2387686" lon="151.3640733">
  <ele>410.64</ele>
  <time>2026-09-01T20:01:52Z</time>
  <course>275.75</course>
  <speed>0.01</speed>
  <fix>3d</fix>
</trkpt>
<trkpt lat="-27.2387686" lon="151.3640733">
  <ele>410.95</ele>
  <time>2026-09-01T20:01:52Z</time>
  <course>36.89</course>
  <speed>0.01</speed>
  <fix>3d</fix>
</trkpt>
<trkpt lat="-27.2387686" lon="151.3640733">
  <ele>410.49</ele>
  <time>2026-09-01T20:01:52Z</time>
  <course>275.9</course>
  <speed>0.02</speed>
  <fix>3d</fix>
</trkpt>
<trkpt lat="-27.2387686" lon="151.3640733">
  <ele>410.95</ele>
  <time>2026-09-01T20:01:52Z</time>
  <course>36.89</course>
  <speed>0.01</speed>
  <fix>3d</fix>
</trkpt>
<trkpt lat="-27.2387687" lon="151.3640733">
  <ele>410.34</ele>
  <time>2026-09-01T20:01:52Z</time>
  <course>275.95</course>
  <speed>0.02</speed>
  <fix>3d</fix>
</trkpt>
<trkpt lat="-27.2387686" lon="151.3640733">
  <ele>410.65</ele>
  <time>2026-09-01T20:01:52Z</time>
  <course>150.38</course>
  <speed>0.01</speed>
  <fix>3d</fix>
</trkpt>
<trkpt lat="-27.2387687" lon="151.3640733">
  <ele>410.19</ele>
  <time>2026-09-01T20:01:52Z</time>
  <course>275.84</course>
  <speed>0.02</speed>
  <fix>3d</fix>
</trkpt>
<trkpt lat="-27.2387686" lon="151.3640733">
  <ele>410.65</ele>
  <time>2026-09-01T20:01:52Z</time>
  <course>150.38</course>
  <speed>0.01</speed>
  <fix>3d</fix>
</trkpt>
<trkpt lat="-27.2387687" lon="151.3640733">
  <ele>410.04</ele>
  <time>2026-09-01T20:01:52Z</time>
  <course>275.63</course>
  <speed>0.02</speed>
  <fix>3d</fix>
</trkpt>
<trkpt lat="-27.2387686" lon="151.3640733">
  <ele>410.34</ele>
  <time>2026-09-01T20:01:52Z</time>
  <course>172.08</course>
  <speed>0.02</speed>
  <fix>3d</fix>
</trkpt>
<trkpt lat="-27.2387687" lon="151.3640733">
  <ele>409.89</ele>
  <time>2026-09-01T20:01:52Z</time>
  <course>275.37</course>
  <speed>0.02</speed>
  <fix>3d</fix>
</trkpt>
<trkpt lat="-27.2387686" lon="151.3640733">
  <ele>410.34</ele>
  <time>2026-09-01T20:01:52Z</time>
  <course>172.08</course>
  <speed>0.02</speed>
  <fix>3d</fix>
</trkpt>
<trkpt lat="-27.2387687" lon="151.3640733">
  <ele>409.74</ele>
  <time>2026-09-01T20:01:52Z</time>
  <course>275.11</course>
  <speed>0.02</speed>
  <fix>3d</fix>
</trkpt>
<trkpt lat="-27.2387687" lon="151.3640733">
  <ele>410.04</ele>
  <time>2026-09-01T20:01:52Z</time>
  <course>175.02</course>
  <speed>0.02</speed>
  <fix>3d</fix>
</trkpt>
<trkpt lat="-27.2387687" lon="151.3640733">
  <ele>409.59</ele>
  <time>2026-09-01T20:01:52Z</time>
  <course>274.88</course>
  <speed>0.02</speed>
  <fix>3d</fix>
</trkpt>
<trkpt lat="-27.2387687" lon="151.3640733">
  <ele>410.04</ele>
  <time>2026-09-01T20:01:52Z</time>
  <course>175.02</course>
  <speed>0.02</speed>
  <fix>3d</fix>
</trkpt>
<trkpt lat="-27.2387687" lon="151.3640733">
  <ele>409.44</ele>
  <time>2026-09-01T20:01:52Z</time>
  <course>274.71</course>
  <speed>0.02</speed>
  <fix>3d</fix>
</trkpt>
<trkpt lat="-27.2387687" lon="151.3640733">
  <ele>409.74</ele>
  <time>2026-09-01T20:01:52Z</time>
  <course>176.26</course>
  <speed>0.02</speed>
  <fix>3d</fix>
</trkpt>
<trkpt lat="-27.2387687" lon="151.3640733">
  <ele>409.29</ele>
  <time>2026-09-01T20:01:52Z</time>
  <course>274.6</course>
  <speed>0.02</speed>
  <fix>3d</fix>
</trkpt>
<trkpt lat="-27.2387687" lon="151.3640733">
  <ele>409.74</ele>
  <time>2026-09-01T20:01:52Z</time>
  <course>176.26</course>
  <speed>0.02</speed>
  <fix>3d</fix>
</trkpt>
<trkpt lat="-27.2387687" lon="151.3640733">
  <ele>409.14</ele>
  <time>2026-09-01T20:01:52Z</time>
  <course>274.54</course>
  <speed>0.02</speed>
  <fix>3d</fix>
</trkpt>
<trkpt lat="-27.2387687" lon="151.3640733">
  <ele>409.44</ele>
  <time>2026-09-01T20:01:52Z</time>
  <course>176.01</course>
  <speed>0.02</speed>
  <fix>3d</fix>
</trkpt>
<trkpt lat="-27.2387688" lon="151.3640734">
  <ele>408.99</ele>
  <time>2026-09-01T20:01:52Z</time>
  <course>274.53</course>
  <speed>0.02</speed>
  <fix>3d</fix>
</trkpt>
<trkpt lat="-27.2387687" lon="151.3640733">
  <ele>409.44</ele>
  <time>2026-09-01T20:01:52Z</time>
  <course>176.01</course>
  <speed>0.02</speed>
  <fix>3d</fix>
</trkpt>
<trkpt lat="-27.2387688" lon="151.3640734">
  <ele>408.84</ele>
  <time>2026-09-01T20:01:52Z</time>
  <course>274.56</course>
  <speed>0.02</speed>
  <fix>3d</fix>
</trkpt>
<trkpt lat="-27.2387687" lon="151.3640733">
  <ele>409.15</ele>
  <time>2026-09-01T20:01:52Z</time>
  <course>174.65</course>
  <speed>0.02</speed>
  <fix>3d</fix>
</trkpt>
<trkpt lat="-27.2387688" lon="151.3640734">
  <ele>408.69</ele>
  <time>2026-09-01T20:01:52Z</time>
  <course>274.61</course>
  <speed>0.02</speed>
  <fix>3d</fix>
</trkpt>
<trkpt lat="-27.2387687" lon="151.3640733">
  <ele>409.15</ele>
  <time>2026-09-01T20:01:52Z</time>
  <course>174.65</course>
  <speed>0.02</speed>
  <fix>3d</fix>
</trkpt>
<trkpt lat="-27.2387688" lon="151.3640734">
  <ele>408.54</ele>
  <time>2026-09-01T20:01:52Z</time>
  <course>274.67</course>
  <speed>0.02</speed>
  <fix>3d</fix>
</trkpt>
<trkpt lat="-27.2387688" lon="151.3640734">
  <ele>408.85</ele>
  <time>2026-09-01T20:01:52Z</time>
  <course>173.74</course>
  <speed>0.02</speed>
  <fix>3d</fix>
</trkpt>
<trkpt lat="-27.2387689" lon="151.3640734">
  <ele>408.39</ele>
  <time>2026-09-01T20:01:52Z</time>
  <course>274.73</course>
  <speed>0.02</speed>
  <fix>3d</fix>
</trkpt>
<trkpt lat="-27.2387688" lon="151.3640734">
  <ele>408.85</ele>
  <time>2026-09-01T20:01:52Z</time>
  <course>173.74</course>
  <speed>0.02</speed>
  <fix>3d</fix>
</trkpt>
<trkpt lat="-27.2387689" lon="151.3640734">
  <ele>408.24</ele>
  <time>2026-09-01T20:01:52Z</time>
  <course>274.77</course>
  <speed>0.02</speed>
  <fix>3d</fix>
</trkpt>
<trkpt lat="-27.2387688" lon="151.3640734">
  <ele>408.55</ele>
  <time>2026-09-01T20:01:52Z</time>
  <course>174.33</course>
  <speed>0.02</speed>
  <fix>3d</fix>
</trkpt>
<trkpt lat="-27.2387689" lon="151.3640734">
  <ele>408.09</ele>
  <time>2026-09-01T20:01:52Z</time>
  <course>274.79</course>
  <speed>0.02</speed>
  <fix>3d</fix>
</trkpt>
<trkpt lat="-27.2387688" lon="151.3640734">
  <ele>408.55</ele>
  <time>2026-09-01T20:01:52Z</time>
  <course>174.33</course>
  <speed>0.02</speed>
  <fix>3d</fix>
</trkpt>
<trkpt lat="-27.2387689" lon="151.3640734">
  <ele>407.94</ele>
  <time>2026-09-01T20:01:52Z</time>
  <course>274.81</course>
  <speed>0.02</speed>
  <fix>3d</fix>
</trkpt>
<trkpt lat="-27.2387689" lon="151.3640734">
  <ele>408.25</ele>
  <time>2026-09-01T20:01:52Z</time>
  <course>175.99</course>
  <speed>0.02</speed>
  <fix>3d</fix>
</trkpt>
<trkpt lat="-27.2387689" lon="151.3640734">
  <ele>407.79</ele>
  <time>2026-09-01T20:01:52Z</time>
  <course>274.81</course>
  <speed>0.02</speed>
  <fix>3d</fix>
</trkpt>
<trkpt lat="-27.2387689" lon="151.3640734">
  <ele>408.25</ele>
  <time>2026-09-01T20:01:52Z</time>
  <course>175.99</course>
  <speed>0.02</speed>
  <fix>3d</fix>
</trkpt>
<trkpt lat="-27.238769" lon="151.3640734">
  <ele>407.64</ele>
  <time>2026-09-01T20:01:52Z</time>
  <course>274.81</course>
  <speed>0.02</speed>
  <fix>3d</fix>
</trkpt>
<trkpt lat="-27.2387689" lon="151.3640734">
  <ele>407.95</ele>
  <time>2026-09-01T20:01:52Z</time>
  <course>178.27</course>
  <speed>0.02</speed>
  <fix>3d</fix>
</trkpt>
<trkpt lat="-27.238769" lon="151.3640734">
  <ele>407.49</ele>
  <time>2026-09-01T20:01:52Z</time>
  <course>274.8</course>
  <speed>0.02</speed>
  <fix>3d</fix>
</trkpt>
<trkpt lat="-27.2387689" lon="151.3640734">
  <ele>407.95</ele>
  <time>2026-09-01T20:01:52Z</time>
  <course>178.27</course>
  <speed>0.02</speed>
  <fix>3d</fix>
</trkpt>
<trkpt lat="-27.238769" lon="151.3640734">
  <ele>407.34</ele>
  <time>2026-09-01T20:01:52Z</time>
  <course>274.78</course>
  <speed>0.02</speed>
  <fix>3d</fix>
</trkpt>
<trkpt lat="-27.2387689" lon="151.3640734">
  <ele>407.65</ele>
  <time>2026-09-01T20:01:52Z</time>
  <course>180.65</course>
  <speed>0.02</speed>
  <fix>3d</fix>
</trkpt>
<trkpt lat="-27.238769" lon="151.3640734">
  <ele>407.19</ele>
  <time>2026-09-01T20:01:52Z</time>
  <course>274.77</course>
  <speed>0.02</speed>
  <fix>3d</fix>
</trkpt>
<trkpt lat="-27.2387689" lon="151.3640734">
  <ele>407.65</ele>
  <time>2026-09-01T20:01:52Z</time>
  <course>180.65</course>
  <speed>0.02</speed>
  <fix>3d</fix>
</trkpt>
<trkpt lat="-27.2387691" lon="151.3640734">
  <ele>407.04</ele>
  <time>2026-09-01T20:01:52Z</time>
  <course>274.77</course>
  <speed>0.02</speed>
  <fix>3d</fix>
</trkpt>
<trkpt lat="-27.238769" lon="151.3640734">
  <ele>407.35</ele>
  <time>2026-09-01T20:01:52Z</time>
  <course>182.15</course>
  <speed>0.02</speed>
  <fix>3d</fix>
</trkpt>
<trkpt lat="-27.2387691" lon="151.3640734">
  <ele>406.89</ele>
  <time>2026-09-01T20:01:52Z</time>
  <course>274.77</course>
  <speed>0.02</speed>
  <fix>3d</fix>
</trkpt>
<trkpt lat="-27.238769" lon="151.3640734">
  <ele>407.35</ele>
  <time>2026-09-01T20:01:52Z</time>
  <course>182.15</course>
  <speed>0.02</speed>
  <fix>3d</fix>
</trkpt>
<trkpt lat="-27.2387691" lon="151.3640734">
  <ele>406.74</ele>
  <time>2026-09-01T20:01:52Z</time>
  <course>274.78</course>
  <speed>0.02</speed>
  <fix>3d</fix>
</trkpt>
<trkpt lat="-27.238769" lon="151.3640734">
  <ele>407.04</ele>
  <time>2026-09-01T20:01:52Z</time>
  <course>183.3</course>
  <speed>0.02</speed>
  <fix>3d</fix>
</trkpt>
<trkpt lat="-27.2387691" lon="151.3640734">
  <ele>406.59</ele>
  <time>2026-09-01T20:01:52Z</time>
  <course>274.8</course>
  <speed>0.02</speed>
  <fix>3d</fix>
</trkpt>
<trkpt lat="-27.238769" lon="151.3640734">
  <ele>407.04</ele>
  <time>2026-09-01T20:01:52Z</time>
  <course>183.3</course>
  <speed>0.02</speed>
  <fix>3d</fix>
</trkpt>
<trkpt lat="-27.2387692" lon="151.3640734">
  <ele>406.44</ele>
  <time>2026-09-01T20:01:52Z</time>
  <course>274.82</course>
  <speed>0.02</speed>
  <fix>3d</fix>
</trkpt>
<trkpt lat="-27.2387691" lon="151.3640734">
  <ele>406.74</ele>
  <time>2026-09-01T20:01:52Z</time>
  <course>184.96</course>
  <speed>0.02</speed>
  <fix>3d</fix>
</trkpt>
<trkpt lat="-27.2387692" lon="151.3640734">
  <ele>406.29</ele>
  <time>2026-09-01T20:01:52Z</time>
  <course>274.84</course>
  <speed>0.02</speed>
  <fix>3d</fix>
</trkpt>
<trkpt lat="-27.2387691" lon="151.3640734">
  <ele>406.74</ele>
  <time>2026-09-01T20:01:52Z</time>
  <course>184.96</course>
  <speed>0.02</speed>
  <fix>3d</fix>
</trkpt>
<trkpt lat="-27.2387692" lon="151.3640734">
  <ele>406.14</ele>
  <time>2026-09-01T20:01:52Z</time>
  <course>274.85</course>
  <speed>0.02</speed>
  <fix>3d</fix>
</trkpt>
<trkpt lat="-27.2387691" lon="151.3640734">
  <ele>406.44</ele>
  <time>2026-09-01T20:01:52Z</time>
  <course>186.37</course>
  <speed>0.02</speed>
  <fix>3d</fix>
</trkpt>
<trkpt lat="-27.2387692" lon="151.3640734">
  <ele>405.99</ele>
  <time>2026-09-01T20:01:52Z</time>
  <course>274.86</course>
  <speed>0.02</speed>
  <fix>3d</fix>
</trkpt>
<trkpt lat="-27.2387691" lon="151.3640734">
  <ele>406.44</ele>
  <time>2026-09-01T20:01:52Z</time>
  <course>186.37</course>
  <speed>0.02</speed>
  <fix>3d</fix>
</trkpt>
<trkpt lat="-27.2387692" lon="151.3640734">
  <ele>405.84</ele>
  <time>2026-09-01T20:01:52Z</time>
  <course>274.86</course>
  <speed>0.02</speed>
  <fix>3d</fix>
</trkpt>
<trkpt lat="-27.2387692" lon="151.3640734">
  <ele>406.15</ele>
  <time>2026-09-01T20:01:52Z</time>
  <course>186.8</course>
  <speed>0.02</speed>
  <fix>3d</fix>
</trkpt>
<trkpt lat="-27.2387693" lon="151.3640734">
  <ele>405.69</ele>
  <time>2026-09-01T20:01:52Z</time>
  <course>274.86</course>
  <speed>0.02</speed>
  <fix>3d</fix>
</trkpt>
<trkpt lat="-27.2387692" lon="151.3640734">
  <ele>406.15</ele>
  <time>2026-09-01T20:01:52Z</time>
  <course>186.8</course>
  <speed>0.02</speed>
  <fix>3d</fix>
</trkpt>
<trkpt lat="-27.2387693" lon="151.3640734">
  <ele>405.54</ele>
  <time>2026-09-01T20:01:52Z</time>
  <course>274.86</course>
  <speed>0.02</speed>
  <fix>3d</fix>
</trkpt>
<trkpt lat="-27.2387692" lon="151.3640734">
  <ele>405.85</ele>
  <time>2026-09-01T20:01:52Z</time>
  <course>186.67</course>
  <speed>0.02</speed>
  <fix>3d</fix>
</trkpt>
<trkpt lat="-27.2387693" lon="151.3640734">
  <ele>405.39</ele>
  <time>2026-09-01T20:01:52Z</time>
  <course>274.85</course>
  <speed>0.02</speed>
  <fix>3d</fix>
</trkpt>
<trkpt lat="-27.2387692" lon="151.3640734">
  <ele>405.85</ele>
  <time>2026-09-01T20:01:52Z</time>
  <course>186.67</course>
  <speed>0.02</speed>
  <fix>3d</fix>
</trkpt>
<trkpt lat="-27.2387693" lon="151.3640734">
  <ele>405.24</ele>
  <time>2026-09-01T20:01:52Z</time>
  <course>274.84</course>
  <speed>0.02</speed>
  <fix>3d</fix>
</trkpt>
<trkpt lat="-27.2387693" lon="151.3640734">
  <ele>405.55</ele>
  <time>2026-09-01T20:01:52Z</time>
  <course>187.32</course>
  <speed>0.02</speed>
  <fix>3d</fix>
</trkpt>
<trkpt lat="-27.2387694" lon="151.3640734">
  <ele>405.09</ele>
  <time>2026-09-01T20:01:52Z</time>
  <course>274.83</course>
  <speed>0.02</speed>
  <fix>3d</fix>
</trkpt>
<trkpt lat="-27.2387693" lon="151.3640734">
  <ele>405.55</ele>
  <time>2026-09-01T20:01:52Z</time>
  <course>187.32</course>
  <speed>0.02</speed>
  <fix>3d</fix>
</trkpt>
<trkpt lat="-27.2387694" lon="151.3640734">
  <ele>404.94</ele>
  <time>2026-09-01T20:01:52Z</time>
  <course>274.84</course>
  <speed>0.02</speed>
  <fix>3d</fix>
</trkpt>
<trkpt lat="-27.2387693" lon="151.3640734">
  <ele>405.25</ele>
  <time>2026-09-01T20:01:52Z</time>
  <course>189.06</course>
  <speed>0.02</speed>
  <fix>3d</fix>
</trkpt>
<trkpt lat="-27.2387694" lon="151.3640734">
  <ele>404.79</ele>
  <time>2026-09-01T20:01:52Z</time>
  <course>274.85</course>
  <speed>0.02</speed>
  <fix>3d</fix>
</trkpt>
<trkpt lat="-27.2387693" lon="151.3640734">
  <ele>405.25</ele>
  <time>2026-09-01T20:01:52Z</time>
  <course>189.06</course>
  <speed>0.02</speed>
  <fix>3d</fix>
</trkpt>
<trkpt lat="-27.2387694" lon="151.3640734">
  <ele>404.64</ele>
  <time>2026-09-01T20:01:52Z</time>
  <course>274.86</course>
  <speed>0.02</speed>
  <fix>3d</fix>
</trkpt>
<trkpt lat="-27.2387694" lon="151.3640734">
  <ele>404.94</ele>
  <time>2026-09-01T20:01:52Z</time>
  <course>190.99</course>
  <speed>0.02</speed>
  <fix>3d</fix>
</trkpt>
<trkpt lat="-27.2387694" lon="151.3640734">
  <ele>404.49</ele>
  <time>2026-09-01T20:01:52Z</time>
  <course>274.88</course>
  <speed>0.02</speed>
  <fix>3d</fix>
</trkpt>
<trkpt lat="-27.2387694" lon="151.3640734">
  <ele>404.94</ele>
  <time>2026-09-01T20:01:52Z</time>
  <course>190.99</course>
  <speed>0.02</speed>
  <fix>3d</fix>
</trkpt>
<trkpt lat="-27.2387695" lon="151.3640734">
  <ele>404.34</ele>
  <time>2026-09-01T20:01:52Z</time>
  <course>274.9</course>
  <speed>0.02</speed>
  <fix>3d</fix>
</trkpt>
<trkpt lat="-27.2387694" lon="151.3640734">
  <ele>404.64</ele>
  <time>2026-09-01T20:01:52Z</time>
  <course>192.51</course>
  <speed>0.02</speed>
  <fix>3d</fix>
</trkpt>
<trkpt lat="-27.2387695" lon="151.3640734">
  <ele>404.19</ele>
  <time>2026-09-01T20:01:52Z</time>
  <course>274.93</course>
  <speed>0.02</speed>
  <fix>3d</fix>
</trkpt>
<trkpt lat="-27.2387694" lon="151.3640734">
  <ele>404.64</ele>
  <time>2026-09-01T20:01:52Z</time>
  <course>192.51</course>
  <speed>0.02</speed>
  <fix>3d</fix>
</trkpt>
<trkpt lat="-27.2387695" lon="151.3640734">
  <ele>404.04</ele>
  <time>2026-09-01T20:01:52Z</time>
  <course>274.96</course>
  <speed>0.02</speed>
  <fix>3d</fix>
</trkpt>
<trkpt lat="-27.2387694" lon="151.3640734">
  <ele>404.34</ele>
  <time>2026-09-01T20:01:52Z</time>
  <course>193.35</course>
  <speed>0.02</speed>
  <fix>3d</fix>
</trkpt>
<trkpt lat="-27.2387695" lon="151.3640734">
  <ele>403.89</ele>
  <time>2026-09-01T20:01:52Z</time>
  <course>274.99</course>
  <speed>0.02</speed>
  <fix>3d</fix>
</trkpt>
<trkpt lat="-27.2387694" lon="151.3640734">
  <ele>404.34</ele>
  <time>2026-09-01T20:01:52Z</time>
  <course>193.35</course>
  <speed>0.02</speed>
  <fix>3d</fix>
</trkpt>
<trkpt lat="-27.2387696" lon="151.3640734">
  <ele>403.74</ele>
  <time>2026-09-01T20:01:52Z</time>
  <course>275.01</course>
  <speed>0.02</speed>
  <fix>3d</fix>
</trkpt>
<trkpt lat="-27.2387695" lon="151.3640734">
  <ele>404.05</ele>
  <time>2026-09-01T20:01:52Z</time>
  <course>194.73</course>
  <speed>0.02</speed>
  <fix>3d</fix>
</trkpt>
<trkpt lat="-27.2387696" lon="151.3640734">
  <ele>403.59</ele>
  <time>2026-09-01T20:01:52Z</time>
  <course>275.02</course>
  <speed>0.02</speed>
  <fix>3d</fix>
</trkpt>
<trkpt lat="-27.2387695" lon="151.3640734">
  <ele>404.05</ele>
  <time>2026-09-01T20:01:52Z</time>
  <course>194.73</course>
  <speed>0.02</speed>
  <fix>3d</fix>
</trkpt>
<trkpt lat="-27.2387696" lon="151.3640734">
  <ele>403.44</ele>
  <time>2026-09-01T20:01:52Z</time>
  <course>275.03</course>
  <speed>0.02</speed>
  <fix>3d</fix>
</trkpt>
<trkpt lat="-27.2387695" lon="151.3640734">
  <ele>403.75</ele>
  <time>2026-09-01T20:01:52Z</time>
  <course>196.73</course>
  <speed>0.02</speed>
  <fix>3d</fix>
</trkpt>
<trkpt lat="-27.2387696" lon="151.3640733">
  <ele>403.29</ele>
  <time>2026-09-01T20:01:52Z</time>
  <course>275.03</course>
  <speed>0.02</speed>
  <fix>3d</fix>
</trkpt>
<trkpt lat="-27.2387695" lon="151.3640734">
  <ele>403.75</ele>
  <time>2026-09-01T20:01:52Z</time>
  <course>196.73</course>
  <speed>0.02</speed>
  <fix>3d</fix>
</trkpt>
<trkpt lat="-27.2387697" lon="151.3640733">
  <ele>403.14</ele>
  <time>2026-09-01T20:01:52Z</time>
  <course>275.04</course>
  <speed>0.02</speed>
  <fix>3d</fix>
</trkpt>
<trkpt lat="-27.2387696" lon="151.3640733">
  <ele>403.45</ele>
  <time>2026-09-01T20:01:52Z</time>
  <course>198.11</course>
  <speed>0.02</speed>
  <fix>3d</fix>
</trkpt>
<trkpt lat="-27.2387697" lon="151.3640733">
  <ele>402.99</ele>
  <time>2026-09-01T20:01:52Z</time>
  <course>275.04</course>
  <speed>0.02</speed>
  <fix>3d</fix>
</trkpt>
<trkpt lat="-27.2387696" lon="151.3640733">
  <ele>403.45</ele>
  <time>2026-09-01T20:01:52Z</time>
  <course>198.11</course>
  <speed>0.02</speed>
  <fix>3d</fix>
</trkpt>
<trkpt lat="-27.2387697" lon="151.3640733">
  <ele>402.84</ele>
  <time>2026-09-01T20:01:52Z</time>
  <course>275.06</course>
  <speed>0.02</speed>
  <fix>3d</fix>
</trkpt>
<trkpt lat="-27.2387696" lon="151.3640733">
  <ele>403.15</ele>
  <time>2026-09-01T20:01:52Z</time>
  <course>198.57</course>
  <speed>0.02</speed>
  <fix>3d</fix>
</trkpt>
<trkpt lat="-27.2387697" lon="151.3640733">
  <ele>402.69</ele>
  <time>2026-09-01T20:01:52Z</time>
  <course>275.09</course>
  <speed>0.02</speed>
  <fix>3d</fix>
</trkpt>
<trkpt lat="-27.2387696" lon="151.3640733">
  <ele>403.15</ele>
  <time>2026-09-01T20:01:52Z</time>
  <course>198.57</course>
  <speed>0.02</speed>
  <fix>3d</fix>
</trkpt>
<trkpt lat="-27.2387698" lon="151.3640733">
  <ele>402.54</ele>
  <time>2026-09-01T20:01:52Z</time>
  <course>275.14</course>
  <speed>0.02</speed>
  <fix>3d</fix>
</trkpt>
<trkpt lat="-27.2387697" lon="151.3640733">
  <ele>402.85</ele>
  <time>2026-09-01T20:01:52Z</time>
  <course>198.35</course>
  <speed>0.03</speed>
  <fix>3d</fix>
</trkpt>
<trkpt lat="-27.2387698" lon="151.3640733">
  <ele>402.39</ele>
  <time>2026-09-01T20:01:52Z</time>
  <course>275.18</course>
  <speed>0.022360679774997897</speed>
  <fix>3d</fix>
</trkpt>
<trkpt lat="-27.2387697" lon="151.3640733">
  <ele>402.85</ele>
  <time>2026-09-01T20:01:52Z</time>
  <course>198.35</course>
  <speed>0.03</speed>
  <fix>3d</fix>
</trkpt>
<trkpt lat="-27.2387698" lon="151.3640733">
  <ele>402.24</ele>
  <time>2026-09-01T20:01:52Z</time>
  <course>275.23</course>
  <speed>0.022360679774997897</speed>
  <fix>3d</fix>
</trkpt>
<trkpt lat="-27.2387697" lon="151.3640733">
  <ele>402.55</ele>
  <time>2026-09-01T20:01:52Z</time>
  <course>198.32</course>
  <speed>0.03</speed>
  <fix>3d</fix>
</trkpt>
<trkpt lat="-27.2387698" lon="151.3640733">
  <ele>402.09</ele>
  <time>2026-09-01T20:01:52Z</time>
  <course>275.27</course>
  <speed>0.0316227766016838</speed>
  <fix>3d</fix>
</trkpt>
<trkpt lat="-27.2387697" lon="151.3640733">
  <ele>402.55</ele>
  <time>2026-09-01T20:01:52Z</time>
  <course>198.32</course>
  <speed>0.03</speed>
  <fix>3d</fix>
</trkpt>
<trkpt lat="-27.2387699" lon="151.3640733">
  <ele>401.94</ele>
  <time>2026-09-01T20:01:52Z</time>
  <course>275.31</course>
  <speed>0.0316227766016838</speed>
  <fix>3d</fix>
</trkpt>
<trkpt lat="-27.2387698" lon="151.3640733">
  <ele>402.25</ele>
  <time>2026-09-01T20:01:52Z</time>
  <course>198.75</course>
  <speed>0.03</speed>
  <fix>3d</fix>
</trkpt>
<trkpt lat="-27.2387699" lon="151.3640732">
  <ele>401.79</ele>
  <time>2026-09-01T20:01:52Z</time>
  <course>275.34</course>
  <speed>0.0316227766016838</speed>
  <fix>3d</fix>
</trkpt>
<trkpt lat="-27.2387698" lon="151.3640733">
  <ele>402.25</ele>
  <time>2026-09-01T20:01:52Z</time>
  <course>198.75</course>
  <speed>0.03</speed>
  <fix>3d</fix>
</trkpt>
<trkpt lat="-27.2387699" lon="151.3640732">
  <ele>401.64</ele>
  <time>2026-09-01T20:01:52Z</time>
  <course>275.36</course>
  <speed>0.0316227766016838</speed>
  <fix>3d</fix>
</trkpt>
<trkpt lat="-27.2387698" lon="151.3640732">
  <ele>401.94</ele>
  <time>2026-09-01T20:01:52Z</time>
  <course>199.45</course>
  <speed>0.03</speed>
  <fix>3d</fix>
</trkpt>
<trkpt lat="-27.23877" lon="151.3640732">
  <ele>401.49</ele>
  <time>2026-09-01T20:01:52Z</time>
  <course>275.36</course>
  <speed>0.0316227766016838</speed>
  <fix>3d</fix>
</trkpt>
<trkpt lat="-27.2387698" lon="151.3640732">
  <ele>401.94</ele>
  <time>2026-09-01T20:01:52Z</time>
  <course>199.45</course>
  <speed>0.03</speed>
  <fix>3d</fix>
</trkpt>
<trkpt lat="-27.23877" lon="151.3640732">
  <ele>401.34</ele>
  <time>2026-09-01T20:01:52Z</time>
  <course>275.37</course>
  <speed>0.0316227766016838</speed>
  <fix>3d</fix>
</trkpt>
<trkpt lat="-27.2387699" lon="151.3640732">
  <ele>401.64</ele>
  <time>2026-09-01T20:01:52Z</time>
  <course>199.71</course>
  <speed>0.03</speed>
  <fix>3d</fix>
</trkpt>
<trkpt lat="-27.23877" lon="151.3640732">
  <ele>401.19</ele>
  <time>2026-09-01T20:01:52Z</time>
  <course>275.38</course>
  <speed>0.0316227766016838</speed>
  <fix>3d</fix>
</trkpt>
<trkpt lat="-27.2387699" lon="151.3640732">
  <ele>401.64</ele>
  <time>2026-09-01T20:01:52Z</time>
  <course>199.71</course>
  <speed>0.03</speed>
  <fix>3d</fix>
</trkpt>
<trkpt lat="-27.23877" lon="151.3640732">
  <ele>401.04</ele>
  <time>2026-09-01T20:01:52Z</time>
  <course>275.39</course>
  <speed>0.0316227766016838</speed>
  <fix>3d</fix>
</trkpt>
<trkpt lat="-27.23877" lon="151.3640732">
  <ele>401.34</ele>
  <time>2026-09-01T20:01:52Z</time>
  <course>198.97</course>
  <speed>0.03</speed>
  <fix>3d</fix>
</trkpt>
<trkpt lat="-27.2387701" lon="151.3640732">
  <ele>400.89</ele>
  <time>2026-09-01T20:01:52Z</time>
  <course>275.41</course>
  <speed>0.0316227766016838</speed>
  <fix>3d</fix>
</trkpt>
<trkpt lat="-27.23877" lon="151.3640732">
  <ele>401.34</ele>
  <time>2026-09-01T20:01:52Z</time>
  <course>198.97</course>
  <speed>0.03</speed>
  <fix>3d</fix>
</trkpt>
<trkpt lat="-27.2387701" lon="151.3640732">
  <ele>400.74</ele>
  <time>2026-09-01T20:01:52Z</time>
  <course>275.45</course>
  <speed>0.0316227766016838</speed>
  <fix>3d</fix>
</trkpt>
<trkpt lat="-27.23877" lon="151.3640732">
  <ele>401.04</ele>
  <time>2026-09-01T20:01:52Z</time>
  <course>198.02</course>
  <speed>0.03</speed>
  <fix>3d</fix>
</trkpt>
<trkpt lat="-27.2387701" lon="151.3640732">
  <ele>400.59</ele>
  <time>2026-09-01T20:01:52Z</time>
  <course>275.5</course>
  <speed>0.0316227766016838</speed>
  <fix>3d</fix>
</trkpt>
<trkpt lat="-27.23877" lon="151.3640732">
  <ele>401.04</ele>
  <time>2026-09-01T20:01:52Z</time>
  <course>198.02</course>
  <speed>0.03</speed>
  <fix>3d</fix>
</trkpt>
<trkpt lat="-27.2387702" lon="151.364073">
  <ele>400.44</ele>
  <time>2026-09-01T20:01:52Z</time>
  <course>275.54</course>
  <speed>0.0316227766016838</speed>
  <fix>3d</fix>
</trkpt>
<trkpt lat="-27.2387701" lon="151.3640732">
  <ele>400.74</ele>
  <time>2026-09-01T20:01:52Z</time>
  <course>197.52</course>
  <speed>0.03</speed>
  <fix>3d</fix>
</trkpt>
<trkpt lat="-27.2387702" lon="151.364073">
  <ele>400.29</ele>
  <time>2026-09-01T20:01:53Z</time>
  <course>275.58</course>
  <speed>0.0316227766016838</speed>
  <fix>3d</fix>
</trkpt>
<trkpt lat="-27.2387701" lon="151.3640732">
  <ele>400.74</ele>
  <time>2026-09-01T20:01:53Z</time>
  <course>197.52</course>
  <speed>0.03</speed>
  <fix>3d</fix>
</trkpt>
<trkpt lat="-27.2387702" lon="151.364073">
  <ele>400.14</ele>
  <time>2026-09-01T20:01:53Z</time>
  <course>275.63</course>
  <speed>0.0316227766016838</speed>
  <fix>3d</fix>
</trkpt>
<trkpt lat="-27.2387701" lon="151.3640731">
  <ele>400.44</ele>
  <time>2026-09-01T20:01:53Z</time>
  <course>197.15</course>
  <speed>0.03</speed>
  <fix>3d</fix>
</trkpt>
<trkpt lat="-27.2387703" lon="151.364073">
  <ele>399.99</ele>
  <time>2026-09-01T20:01:53Z</time>
  <course>275.67</course>
  <speed>0.0316227766016838</speed>
  <fix>3d</fix>
</trkpt>
<trkpt lat="-27.2387701" lon="151.3640731">
  <ele>400.44</ele>
  <time>2026-09-01T20:01:53Z</time>
  <course>197.15</course>
  <speed>0.03</speed>
  <fix>3d</fix>
</trkpt>
<trkpt lat="-27.2387703" lon="151.364073">
  <ele>399.84</ele>
  <time>2026-09-01T20:01:53Z</time>
  <course>275.7</course>
  <speed>0.03</speed>
  <fix>3d</fix>
</trkpt>
<trkpt lat="-27.2387702" lon="151.364073">
  <ele>400.14</ele>
  <time>2026-09-01T20:01:53Z</time>
  <course>196.36</course>
  <speed>0.03</speed>
  <fix>3d</fix>
</trkpt>
<trkpt lat="-27.2387703" lon="151.364073">
  <ele>399.69</ele>
  <time>2026-09-01T20:01:53Z</time>
  <course>275.73</course>
  <speed>0.03</speed>
  <fix>3d</fix>
</trkpt>
<trkpt lat="-27.2387702" lon="151.364073">
  <ele>400.14</ele>
  <time>2026-09-01T20:01:53Z</time>
  <course>196.36</course>
  <speed>0.03</speed>
  <fix>3d</fix>
</trkpt>
<trkpt lat="-27.2387704" lon="151.364073">
  <ele>399.54</ele>
  <time>2026-09-01T20:01:53Z</time>
  <course>275.77</course>
  <speed>0.03</speed>
  <fix>3d</fix>
</trkpt>
<trkpt lat="-27.2387703" lon="151.364073">
  <ele>399.84</ele>
  <time>2026-09-01T20:01:53Z</time>
  <course>194.78</course>
  <speed>0.03</speed>
  <fix>3d</fix>
</trkpt>
<trkpt lat="-27.2387704" lon="151.364073">
  <ele>399.39</ele>
  <time>2026-09-01T20:01:53Z</time>
  <course>275.81</course>
  <speed>0.04</speed>
  <fix>3d</fix>
</trkpt>
<trkpt lat="-27.2387703" lon="151.364073">
  <ele>399.84</ele>
  <time>2026-09-01T20:01:53Z</time>
  <course>194.78</course>
  <speed>0.03</speed>
  <fix>3d</fix>
</trkpt>
<trkpt lat="-27.2387704" lon="151.364073">
  <ele>399.24</ele>
  <time>2026-09-01T20:01:53Z</time>
  <course>275.85</course>
  <speed>0.04</speed>
  <fix>3d</fix>
</trkpt>
<trkpt lat="-27.2387703" lon="151.364073">
  <ele>399.55</ele>
  <time>2026-09-01T20:01:53Z</time>
  <course>192.86</course>
  <speed>0.04</speed>
  <fix>3d</fix>
</trkpt>
<trkpt lat="-27.2387705" lon="151.364073">
  <ele>399.09</ele>
  <time>2026-09-01T20:01:53Z</time>
  <course>275.89</course>
  <speed>0.04</speed>
  <fix>3d</fix>
</trkpt>
<trkpt lat="-27.2387703" lon="151.364073">
  <ele>399.55</ele>
  <time>2026-09-01T20:01:53Z</time>
  <course>192.86</course>
  <speed>0.04</speed>
  <fix>3d</fix>
</trkpt>
<trkpt lat="-27.2387705" lon="151.364073">
  <ele>398.94</ele>
  <time>2026-09-01T20:01:53Z</time>
  <course>275.92</course>
  <speed>0.04</speed>
  <fix>3d</fix>
</trkpt>
<trkpt lat="-27.2387704" lon="151.364073">
  <ele>399.25</ele>
  <time>2026-09-01T20:01:53Z</time>
  <course>191.65</course>
  <speed>0.04</speed>
  <fix>3d</fix>
</trkpt>
<trkpt lat="-27.2387706" lon="151.364073">
  <ele>398.79</ele>
  <time>2026-09-01T20:01:53Z</time>
  <course>275.94</course>
  <speed>0.04</speed>
  <fix>3d</fix>
</trkpt>
<trkpt lat="-27.2387704" lon="151.364073">
  <ele>399.25</ele>
  <time>2026-09-01T20:01:53Z</time>
  <course>191.65</course>
  <speed>0.04</speed>
  <fix>3d</fix>
</trkpt>
<trkpt lat="-27.2387706" lon="151.364073">
  <ele>398.64</ele>
  <time>2026-09-01T20:01:53Z</time>
  <course>275.98</course>
  <speed>0.04</speed>
  <fix>3d</fix>
</trkpt>
<trkpt lat="-27.2387705" lon="151.364073">
  <ele>398.95</ele>
  <time>2026-09-01T20:01:53Z</time>
  <course>191.25</course>
  <speed>0.04</speed>
  <fix>3d</fix>
</trkpt>
<trkpt lat="-27.2387706" lon="151.364073">
  <ele>398.49</ele>
  <time>2026-09-01T20:01:53Z</time>
  <course>276.02</course>
  <speed>0.04</speed>
  <fix>3d</fix>
</trkpt>
<trkpt lat="-27.2387705" lon="151.364073">
  <ele>398.95</ele>
  <time>2026-09-01T20:01:53Z</time>
  <course>191.25</course>
  <speed>0.04</speed>
  <fix>3d</fix>
</trkpt>
<trkpt lat="-27.2387707" lon="151.364073">
  <ele>398.34</ele>
  <time>2026-09-01T20:01:53Z</time>
  <course>276.06</course>
  <speed>0.04</speed>
  <fix>3d</fix>
</trkpt>
<trkpt lat="-27.2387706" lon="151.364073">
  <ele>398.65</ele>
  <time>2026-09-01T20:01:53Z</time>
  <course>191.1</course>
  <speed>0.04</speed>
  <fix>3d</fix>
</trkpt>
<trkpt lat="-27.2387707" lon="151.364073">
  <ele>398.19</ele>
  <time>2026-09-01T20:01:53Z</time>
  <course>276.1</course>
  <speed>0.04</speed>
  <fix>3d</fix>
</trkpt>
<trkpt lat="-27.2387706" lon="151.364073">
  <ele>398.65</ele>
  <time>2026-09-01T20:01:53Z</time>
  <course>191.1</course>
  <speed>0.04</speed>
  <fix>3d</fix>
</trkpt>
<trkpt lat="-27.2387708" lon="151.364073">
  <ele>398.04</ele>
  <time>2026-09-01T20:01:53Z</time>
  <course>276.15</course>
  <speed>0.04</speed>
  <fix>3d</fix>
</trkpt>
<trkpt lat="-27.2387706" lon="151.364073">
  <ele>398.35</ele>
  <time>2026-09-01T20:01:53Z</time>
  <course>191.05</course>
  <speed>0.04</speed>
  <fix>3d</fix>
</trkpt>
<trkpt lat="-27.2387708" lon="151.364073">
  <ele>397.89</ele>
  <time>2026-09-01T20:01:53Z</time>
  <course>276.2</course>
  <speed>0.04</speed>
  <fix>3d</fix>
</trkpt>
<trkpt lat="-27.2387706" lon="151.364073">
  <ele>398.35</ele>
  <time>2026-09-01T20:01:53Z</time>
  <course>191.05</course>
  <speed>0.04</speed>
  <fix>3d</fix>
</trkpt>
<trkpt lat="-27.2387708" lon="151.364073">
  <ele>397.74</ele>
  <time>2026-09-01T20:01:53Z</time>
  <course>276.25</course>
  <speed>0.04</speed>
  <fix>3d</fix>
</trkpt>
<trkpt lat="-27.2387707" lon="151.364073">
  <ele>398.05</ele>
  <time>2026-09-01T20:01:53Z</time>
  <course>191.21</course>
  <speed>0.04</speed>
  <fix>3d</fix>
</trkpt>
<trkpt lat="-27.2387709" lon="151.364073">
  <ele>397.59</ele>
  <time>2026-09-01T20:01:53Z</time>
  <course>276.3</course>
  <speed>0.0412310562561766</speed>
  <fix>3d</fix>
</trkpt>
<trkpt lat="-27.2387707" lon="151.364073">
  <ele>398.05</ele>
  <time>2026-09-01T20:01:53Z</time>
  <course>191.21</course>
  <speed>0.04</speed>
  <fix>3d</fix>
</trkpt>
<trkpt lat="-27.2387709" lon="151.364073">
  <ele>397.44</ele>
  <time>2026-09-01T20:01:53Z</time>
  <course>276.35</course>
  <speed>0.0412310562561766</speed>
  <fix>3d</fix>
</trkpt>
<trkpt lat="-27.2387708" lon="151.364073">
  <ele>397.75</ele>
  <time>2026-09-01T20:01:53Z</time>
  <course>191.52</course>
  <speed>0.04</speed>
  <fix>3d</fix>
</trkpt>
<trkpt lat="-27.238771" lon="151.3640729">
  <ele>397.29</ele>
  <time>2026-09-01T20:01:53Z</time>
  <course>276.41</course>
  <speed>0.05099019513592785</speed>
  <fix>3d</fix>
</trkpt>
<trkpt lat="-27.2387708" lon="151.364073">
  <ele>397.75</ele>
  <time>2026-09-01T20:01:53Z</time>
  <course>191.52</course>
  <speed>0.04</speed>
  <fix>3d</fix>
</trkpt>
<trkpt lat="-27.238771" lon="151.3640729">
  <ele>397.14</ele>
  <time>2026-09-01T20:01:53Z</time>
  <course>276.47</course>
  <speed>0.05099019513592785</speed>
  <fix>3d</fix>
</trkpt>
<trkpt lat="-27.2387709" lon="151.3640729">
  <ele>397.45</ele>
  <time>2026-09-01T20:01:53Z</time>
  <course>192.0</course>
  <speed>0.05</speed>
  <fix>3d</fix>
</trkpt>
<trkpt lat="-27.2387711" lon="151.3640729">
  <ele>396.99</ele>
  <time>2026-09-01T20:01:53Z</time>
  <course>276.52</course>
  <speed>0.05099019513592785</speed>
  <fix>3d</fix>
</trkpt>
<trkpt lat="-27.2387709" lon="151.3640729">
  <ele>397.45</ele>
  <time>2026-09-01T20:01:53Z</time>
  <course>192.0</course>
  <speed>0.05</speed>
  <fix>3d</fix>
</trkpt>
<trkpt lat="-27.2387711" lon="151.3640729">
  <ele>396.84</ele>
  <time>2026-09-01T20:01:53Z</time>
  <course>276.58</course>
  <speed>0.05099019513592785</speed>
  <fix>3d</fix>
</trkpt>
<trkpt lat="-27.238771" lon="151.3640729">
  <ele>397.15</ele>
  <time>2026-09-01T20:01:53Z</time>
  <course>192.43</course>
  <speed>0.05</speed>
  <fix>3d</fix>
</trkpt>
<trkpt lat="-27.2387712" lon="151.3640729">
  <ele>396.69</ele>
  <time>2026-09-01T20:01:53Z</time>
  <course>276.64</course>
  <speed>0.05099019513592785</speed>
  <fix>3d</fix>
</trkpt>
<trkpt lat="-27.238771" lon="151.3640729">
  <ele>397.15</ele>
  <time>2026-09-01T20:01:53Z</time>
  <course>192.43</course>
  <speed>0.05</speed>
  <fix>3d</fix>
</trkpt>
<trkpt lat="-27.2387712" lon="151.3640729">
  <ele>396.54</ele>
  <time>2026-09-01T20:01:53Z</time>
  <course>276.69</course>
  <speed>0.05099019513592785</speed>
  <fix>3d</fix>
</trkpt>
<trkpt lat="-27.2387711" lon="151.3640729">
  <ele>396.85</ele>
  <time>2026-09-01T20:01:53Z</time>
  <course>192.61</course>
  <speed>0.05</speed>
  <fix>3d</fix>
</trkpt>
<trkpt lat="-27.2387713" lon="151.3640729">
  <ele>396.39</ele>
  <time>2026-09-01T20:01:53Z</time>
  <course>276.66</course>
  <speed>0.0412310562561766</speed>
  <fix>3d</fix>
</trkpt>
<trkpt lat="-27.2387711" lon="151.3640729">
  <ele>396.85</ele>
  <time>2026-09-01T20:01:53Z</time>
  <course>192.61</course>
  <speed>0.05</speed>
  <fix>3d</fix>
</trkpt>
<trkpt lat="-27.2387713" lon="151.3640729">
  <ele>396.24</ele>
  <time>2026-09-01T20:01:53Z</time>
  <course>276.45</course>
  <speed>0.02</speed>
  <fix>3d</fix>
</trkpt>
<trkpt lat="-27.2387712" lon="151.3640729">
  <ele>396.55</ele>
  <time>2026-09-01T20:01:53Z</time>
  <course>193.46</course>
  <speed>0.05</speed>
  <fix>3d</fix>
</trkpt>
<trkpt lat="-27.2387713" lon="151.3640729">
  <ele>396.09</ele>
  <time>2026-09-01T20:01:53Z</time>
  <course>276.07</course>
  <speed>0.01</speed>
  <fix>3d</fix>
</trkpt>
<trkpt lat="-27.2387712" lon="151.3640729">
  <ele>396.55</ele>
  <time>2026-09-01T20:01:53Z</time>
  <course>193.46</course>
  <speed>0.05</speed>
  <fix>3d</fix>
</trkpt>
<trkpt lat="-27.2387713" lon="151.3640728">
  <ele>395.94</ele>
  <time>2026-09-01T20:01:53Z</time>
  <course>275.63</course>
  <speed>0.0</speed>
  <fix>3d</fix>
</trkpt>
<trkpt lat="-27.2387712" lon="151.3640729">
  <ele>396.25</ele>
  <time>2026-09-01T20:01:53Z</time>
  <course>199.07</course>
  <speed>0.02</speed>
  <fix>3d</fix>
</trkpt>
<trkpt lat="-27.2387713" lon="151.3640728">
  <ele>395.79</ele>
  <time>2026-09-01T20:01:53Z</time>
  <course>275.2</course>
  <speed>0.02</speed>
  <fix>3d</fix>
</trkpt>
<trkpt lat="-27.2387712" lon="151.3640729">
  <ele>396.25</ele>
  <time>2026-09-01T20:01:53Z</time>
  <course>199.07</course>
  <speed>0.02</speed>
  <fix>3d</fix>
</trkpt>
<trkpt lat="-27.2387713" lon="151.3640728">
  <ele>395.64</ele>
  <time>2026-09-01T20:01:53Z</time>
  <course>274.85</course>
  <speed>0.03</speed>
  <fix>3d</fix>
</trkpt>
<trkpt lat="-27.2387713" lon="151.3640728">
  <ele>395.95</ele>
  <time>2026-09-01T20:01:53Z</time>
  <course>307.96</course>
  <speed>0.0</speed>
  <fix>3d</fix>
</trkpt>
<trkpt lat="-27.2387712" lon="151.3640728">
  <ele>395.49</ele>
  <time>2026-09-01T20:01:53Z</time>
  <course>274.63</course>
  <speed>0.04</speed>
  <fix>3d</fix>
</trkpt>
<trkpt lat="-27.2387713" lon="151.3640728">
  <ele>395.95</ele>
  <time>2026-09-01T20:01:53Z</time>
  <course>307.96</course>
  <speed>0.0</speed>
  <fix>3d</fix>
</trkpt>
<trkpt lat="-27.2387712" lon="151.3640728">
  <ele>395.34</ele>
  <time>2026-09-01T20:01:53Z</time>
  <course>274.52</course>
  <speed>0.06</speed>
  <fix>3d</fix>
</trkpt>
<trkpt lat="-27.2387712" lon="151.3640728">
  <ele>395.65</ele>
  <time>2026-09-01T20:01:53Z</time>
  <course>358.41</course>
  <speed>0.03</speed>
  <fix>3d</fix>
</trkpt>
<trkpt lat="-27.2387712" lon="151.3640728">
  <ele>395.19</ele>
  <time>2026-09-01T20:01:53Z</time>
  <course>274.51</course>
  <speed>0.07</speed>
  <fix>3d</fix>
</trkpt>
<trkpt lat="-27.2387712" lon="151.3640728">
  <ele>395.65</ele>
  <time>2026-09-01T20:01:53Z</time>
  <course>358.41</course>
  <speed>0.03</speed>
  <fix>3d</fix>
</trkpt>
<trkpt lat="-27.2387711" lon="151.3640729">
  <ele>395.04</ele>
  <time>2026-09-01T20:01:53Z</time>
  <course>274.58</course>
  <speed>0.08062257748298549</speed>
  <fix>3d</fix>
</trkpt>
<trkpt lat="-27.2387712" lon="151.3640728">
  <ele>395.35</ele>
  <time>2026-09-01T20:01:53Z</time>
  <course>4.29</course>
  <speed>0.06</speed>
  <fix>3d</fix>
</trkpt>
<trkpt lat="-27.2387711" lon="151.3640729">
  <ele>394.89</ele>
  <time>2026-09-01T20:01:53Z</time>
  <course>274.7</course>
  <speed>0.09055385138137417</speed>
  <fix>3d</fix>
</trkpt>
<trkpt lat="-27.2387712" lon="151.3640728">
  <ele>395.35</ele>
  <time>2026-09-01T20:01:53Z</time>
  <course>4.29</course>
  <speed>0.06</speed>
  <fix>3d</fix>
</trkpt>
<trkpt lat="-27.238771" lon="151.3640729">
  <ele>394.74</ele>
  <time>2026-09-01T20:01:53Z</time>
  <course>274.82</course>
  <speed>0.1004987562112089</speed>
  <fix>3d</fix>
</trkpt>
<trkpt lat="-27.2387711" lon="151.3640728">
  <ele>395.05</ele>
  <time>2026-09-01T20:01:53Z</time>
  <course>6.87</course>
  <speed>0.08</speed>
  <fix>3d</fix>
</trkpt>
<trkpt lat="-27.2387709" lon="151.3640729">
  <ele>394.59</ele>
  <time>2026-09-01T20:01:53Z</time>
  <course>274.94</course>
  <speed>0.1004987562112089</speed>
  <fix>3d</fix>
</trkpt>
<trkpt lat="-27.2387711" lon="151.3640728">
  <ele>395.05</ele>
  <time>2026-09-01T20:01:53Z</time>
  <course>6.87</course>
  <speed>0.08</speed>
  <fix>3d</fix>
</trkpt>
<trkpt lat="-27.2387708" lon="151.3640729">
  <ele>394.44</ele>
  <time>2026-09-01T20:01:53Z</time>
  <course>275.03</course>
  <speed>0.11045361017187261</speed>
  <fix>3d</fix>
</trkpt>
<trkpt lat="-27.238771" lon="151.3640729">
  <ele>394.75</ele>
  <time>2026-09-01T20:01:53Z</time>
  <course>7.99</course>
  <speed>0.1</speed>
  <fix>3d</fix>
</trkpt>
<trkpt lat="-27.2387707" lon="151.3640729">
  <ele>394.29</ele>
  <time>2026-09-01T20:01:53Z</time>
  <course>275.09</course>
  <speed>0.12041594578792296</speed>
  <fix>3d</fix>
</trkpt>
<trkpt lat="-27.238771" lon="151.3640729">
  <ele>394.75</ele>
  <time>2026-09-01T20:01:53Z</time>
  <course>7.99</course>
  <speed>0.1</speed>
  <fix>3d</fix>
</trkpt>
<trkpt lat="-27.2387706" lon="151.3640729">
  <ele>394.14</ele>
  <time>2026-09-01T20:01:53Z</time>
  <course>275.12</course>
  <speed>0.12041594578792296</speed>
  <fix>3d</fix>
</trkpt>
<trkpt lat="-27.2387708" lon="151.3640729">
  <ele>394.45</ele>
  <time>2026-09-01T20:01:53Z</time>
  <course>8.48</course>
  <speed>0.11</speed>
  <fix>3d</fix>
</trkpt>
<trkpt lat="-27.2387704" lon="151.3640729">
  <ele>393.99</ele>
  <time>2026-09-01T20:01:53Z</time>
  <course>275.12</course>
  <speed>0.130384048104053</speed>
  <fix>3d</fix>
</trkpt>
<trkpt lat="-27.2387708" lon="151.3640729">
  <ele>394.45</ele>
  <time>2026-09-01T20:01:53Z</time>
  <course>8.48</course>
  <speed>0.11</speed>
  <fix>3d</fix>
</trkpt>
<trkpt lat="-27.2387703" lon="151.3640729">
  <ele>393.84</ele>
  <time>2026-09-01T20:01:53Z</time>
  <course>275.1</course>
  <speed>0.13152946437965907</speed>
  <fix>3d</fix>
</trkpt>
<trkpt lat="-27.2387706" lon="151.3640729">
  <ele>394.15</ele>
  <time>2026-09-01T20:01:53Z</time>
  <course>8.65</course>
  <speed>0.12</speed>
  <fix>3d</fix>
</trkpt>
<trkpt lat="-27.2387702" lon="151.3640729">
  <ele>393.69</ele>
  <time>2026-09-01T20:01:53Z</time>
  <course>275.08</course>
  <speed>0.13152946437965907</speed>
  <fix>3d</fix>
</trkpt>
<trkpt lat="-27.2387706" lon="151.3640729">
  <ele>394.15</ele>
  <time>2026-09-01T20:01:53Z</time>
  <course>8.65</course>
  <speed>0.12</speed>
  <fix>3d</fix>
</trkpt>
<trkpt lat="-27.2387701" lon="151.3640729">
  <ele>393.54</ele>
  <time>2026-09-01T20:01:53Z</time>
  <course>275.05</course>
  <speed>0.13152946437965907</speed>
  <fix>3d</fix>
</trkpt>
<trkpt lat="-27.2387703" lon="151.3640729">
  <ele>393.85</ele>
  <time>2026-09-01T20:01:53Z</time>
  <course>8.78</course>
  <speed>0.13</speed>
  <fix>3d</fix>
</trkpt>
<trkpt lat="-27.23877" lon="151.364073">
  <ele>393.39</ele>
  <time>2026-09-01T20:01:53Z</time>
  <course>275.02</course>
  <speed>0.13152946437965907</speed>
  <fix>3d</fix>
</trkpt>
<trkpt lat="-27.2387703" lon="151.3640729">
  <ele>393.85</ele>
  <time>2026-09-01T20:01:53Z</time>
  <course>8.78</course>
  <speed>0.13</speed>
  <fix>3d</fix>
</trkpt>
<trkpt lat="-27.2387698" lon="151.364073">
  <ele>393.24</ele>
  <time>2026-09-01T20:01:53Z</time>
  <course>275.0</course>
  <speed>0.13152946437965907</speed>
  <fix>3d</fix>
</trkpt>
<trkpt lat="-27.23877" lon="151.3640729">
  <ele>393.55</ele>
  <time>2026-09-01T20:01:53Z</time>
  <course>9.13</course>
  <speed>0.13</speed>
  <fix>3d</fix>
</trkpt>
<trkpt lat="-27.2387697" lon="151.364073">
  <ele>393.09</ele>
  <time>2026-09-01T20:01:53Z</time>
  <course>274.99</course>
  <speed>0.13152946437965907</speed>
  <fix>3d</fix>
</trkpt>
<trkpt lat="-27.23877" lon="151.3640729">
  <ele>393.55</ele>
  <time>2026-09-01T20:01:53Z</time>
  <course>9.13</course>
  <speed>0.13</speed>
  <fix>3d</fix>
</trkpt>
<trkpt lat="-27.2387696" lon="151.364073">
  <ele>392.94</ele>
  <time>2026-09-01T20:01:53Z</time>
  <course>274.98</course>
  <speed>0.13152946437965907</speed>
  <fix>3d</fix>
</trkpt>
<trkpt lat="-27.2387698" lon="151.364073">
  <ele>393.25</ele>
  <time>2026-09-01T20:01:53Z</time>
  <course>9.52</course>
  <speed>0.13</speed>
  <fix>3d</fix>
</trkpt>
<trkpt lat="-27.2387695" lon="151.364073">
  <ele>392.79</ele>
  <time>2026-09-01T20:01:53Z</time>
  <course>274.98</course>
  <speed>0.13152946437965907</speed>
  <fix>3d</fix>
</trkpt>
<trkpt lat="-27.2387698" lon="151.364073">
  <ele>393.25</ele>
  <time>2026-09-01T20:01:53Z</time>
  <course>9.52</course>
  <speed>0.13</speed>
  <fix>3d</fix>
</trkpt>
<trkpt lat="-27.2387694" lon="151.364073">
  <ele>392.64</ele>
  <time>2026-09-01T20:01:53Z</time>
  <course>274.99</course>
  <speed>0.12165525060596438</speed>
  <fix>3d</fix>
</trkpt>
<trkpt lat="-27.2387696" lon="151.364073">
  <ele>392.95</ele>
  <time>2026-09-01T20:01:53Z</time>
  <course>9.91</course>
  <speed>0.13</speed>
  <fix>3d</fix>
</trkpt>
<trkpt lat="-27.2387692" lon="151.364073">
  <ele>392.49</ele>
  <time>2026-09-01T20:01:53Z</time>
  <course>275.0</course>
  <speed>0.12165525060596438</speed>
  <fix>3d</fix>
</trkpt>
<trkpt lat="-27.2387696" lon="151.364073">
  <ele>392.95</ele>
  <time>2026-09-01T20:01:53Z</time>
  <course>9.91</course>
  <speed>0.13</speed>
  <fix>3d</fix>
</trkpt>
<trkpt lat="-27.2387691" lon="151.364073">
  <ele>392.34</ele>
  <time>2026-09-01T20:01:53Z</time>
  <course>275.02</course>
  <speed>0.1118033988749895</speed>
  <fix>3d</fix>
</trkpt>
<trkpt lat="-27.2387694" lon="151.364073">
  <ele>392.65</ele>
  <time>2026-09-01T20:01:53Z</time>
  <course>10.42</course>
  <speed>0.12</speed>
  <fix>3d</fix>
</trkpt>
<trkpt lat="-27.238769" lon="151.364073">
  <ele>392.19</ele>
  <time>2026-09-01T20:01:53Z</time>
  <course>275.04</course>
  <speed>0.1019803902718557</speed>
  <fix>3d</fix>
</trkpt>
<trkpt lat="-27.2387694" lon="151.364073">
  <ele>392.65</ele>
  <time>2026-09-01T20:01:53Z</time>
  <course>10.42</course>
  <speed>0.12</speed>
  <fix>3d</fix>
</trkpt>
<trkpt lat="-27.2387689" lon="151.3640732">
  <ele>392.04</ele>
  <time>2026-09-01T20:01:53Z</time>
  <course>275.05</course>
  <speed>0.1019803902718557</speed>
  <fix>3d</fix>
</trkpt>
<trkpt lat="-27.2387691" lon="151.364073">
  <ele>392.35</ele>
  <time>2026-09-01T20:01:53Z</time>
  <course>11.1</course>
  <speed>0.11</speed>
  <fix>3d</fix>
</trkpt>
<trkpt lat="-27.2387689" lon="151.3640732">
  <ele>391.89</ele>
  <time>2026-09-01T20:01:53Z</time>
  <course>275.07</course>
  <speed>0.09219544457292887</speed>
  <fix>3d</fix>
</trkpt>
<trkpt lat="-27.2387691" lon="151.364073">
  <ele>392.35</ele>
  <time>2026-09-01T20:01:53Z</time>
  <course>11.1</course>
  <speed>0.11</speed>
  <fix>3d</fix>
</trkpt>
<trkpt lat="-27.2387688" lon="151.3640732">
  <ele>391.74</ele>
  <time>2026-09-01T20:01:53Z</time>
  <course>275.09</course>
  <speed>0.0824621125123532</speed>
  <fix>3d</fix>
</trkpt>
<trkpt lat="-27.2387689" lon="151.3640731">
  <ele>392.05</ele>
  <time>2026-09-01T20:01:53Z</time>
  <course>12.0</course>
  <speed>0.1</speed>
  <fix>3d</fix>
</trkpt>
<trkpt lat="-27.2387687" lon="151.3640732">
  <ele>391.59</ele>
  <time>2026-09-01T20:01:53Z</time>
  <course>275.11</course>
  <speed>0.07071067811865475</speed>
  <fix>3d</fix>
</trkpt>
<trkpt lat="-27.2387689" lon="151.3640731">
  <ele>392.05</ele>
  <time>2026-09-01T20:01:53Z</time>
  <course>12.0</course>
  <speed>0.1</speed>
  <fix>3d</fix>
</trkpt>
<trkpt lat="-27.2387686" lon="151.3640732">
  <ele>391.44</ele>
  <time>2026-09-01T20:01:53Z</time>
  <course>275.12</course>
  <speed>0.07071067811865475</speed>
  <fix>3d</fix>
</trkpt>
<trkpt lat="-27.2387688" lon="151.3640732">
  <ele>391.75</ele>
  <time>2026-09-01T20:01:53Z</time>
  <course>12.94</course>
  <speed>0.08</speed>
  <fix>3d</fix>
</trkpt>
<trkpt lat="-27.2387686" lon="151.3640733">
  <ele>391.29</ele>
  <time>2026-09-01T20:01:53Z</time>
  <course>275.14</course>
  <speed>0.06082762530298219</speed>
  <fix>3d</fix>
</trkpt>
<trkpt lat="-27.2387688" lon="151.3640732">
  <ele>391.75</ele>
  <time>2026-09-01T20:01:53Z</time>
  <course>12.94</course>
  <speed>0.08</speed>
  <fix>3d</fix>
</trkpt>
<trkpt lat="-27.2387685" lon="151.3640733">
  <ele>391.14</ele>
  <time>2026-09-01T20:01:53Z</time>
  <course>275.15</course>
  <speed>0.05099019513592785</speed>
  <fix>3d</fix>
</trkpt>
<trkpt lat="-27.2387686" lon="151.3640732">
  <ele>391.45</ele>
  <time>2026-09-01T20:01:53Z</time>
  <course>14.11</course>
  <speed>0.07</speed>
  <fix>3d</fix>
</trkpt>
<trkpt lat="-27.2387685" lon="151.3640733">
  <ele>390.99</ele>
  <time>2026-09-01T20:01:53Z</time>
  <course>275.16</course>
  <speed>0.0412310562561766</speed>
  <fix>3d</fix>
</trkpt>
<trkpt lat="-27.2387686" lon="151.3640732">
  <ele>391.45</ele>
  <time>2026-09-01T20:01:53Z</time>
  <course>14.11</course>
  <speed>0.07</speed>
  <fix>3d</fix>
</trkpt>
<trkpt lat="-27.2387684" lon="151.3640733">
  <ele>390.84</ele>
  <time>2026-09-01T20:01:53Z</time>
  <course>275.18</course>
  <speed>0.0316227766016838</speed>
  <fix>3d</fix>
</trkpt>
<trkpt lat="-27.2387685" lon="151.3640733">
  <ele>391.15</ele>
  <time>2026-09-01T20:01:53Z</time>
  <course>16.22</course>
  <speed>0.05</speed>
  <fix>3d</fix>
</trkpt>
<trkpt lat="-27.2387684" lon="151.3640733">
  <ele>390.69</ele>
  <time>2026-09-01T20:01:53Z</time>
  <course>275.21</course>
  <speed>0.022360679774997897</speed>
  <fix>3d</fix>
</trkpt>
<trkpt lat="-27.2387685" lon="151.3640733">
  <ele>391.15</ele>
  <time>2026-09-01T20:01:53Z</time>
  <course>16.22</course>
  <speed>0.05</speed>
  <fix>3d</fix>
</trkpt>
<trkpt lat="-27.2387684" lon="151.3640733">
  <ele>390.54</ele>
  <time>2026-09-01T20:01:53Z</time>
  <course>275.25</course>
  <speed>0.01</speed>
  <fix>3d</fix>
</trkpt>
<trkpt lat="-27.2387684" lon="151.3640733">
  <ele>390.85</ele>
  <time>2026-09-01T20:01:53Z</time>
  <course>20.55</course>
  <speed>0.03</speed>
  <fix>3d</fix>
</trkpt>
<trkpt lat="-27.2387684" lon="151.3640733">
  <ele>390.39</ele>
  <time>2026-09-01T20:01:53Z</time>
  <course>275.33</course>
  <speed>0.0</speed>
  <fix>3d</fix>
</trkpt>
<trkpt lat="-27.2387684" lon="151.3640733">
  <ele>390.85</ele>
  <time>2026-09-01T20:01:53Z</time>
  <course>20.55</course>
  <speed>0.03</speed>
  <fix>3d</fix>
</trkpt>
<trkpt lat="-27.2387684" lon="151.3640733">
  <ele>390.24</ele>
  <time>2026-09-01T20:01:53Z</time>
  <course>275.47</course>
  <speed>0.02</speed>
  <fix>3d</fix>
</trkpt>
<trkpt lat="-27.2387684" lon="151.3640733">
  <ele>390.55</ele>
  <time>2026-09-01T20:01:53Z</time>
  <course>42.82</course>
  <speed>0.01</speed>
  <fix>3d</fix>
</trkpt>
<trkpt lat="-27.2387684" lon="151.3640734">
  <ele>390.09</ele>
  <time>2026-09-01T20:01:53Z</time>
  <course>275.59</course>
  <speed>0.02</speed>
  <fix>3d</fix>
</trkpt>
<trkpt lat="-27.2387684" lon="151.3640733">
  <ele>390.55</ele>
  <time>2026-09-01T20:01:53Z</time>
  <course>42.82</course>
  <speed>0.01</speed>
  <fix>3d</fix>
</trkpt>
<trkpt lat="-27.2387684" lon="151.3640734">
  <ele>389.94</ele>
  <time>2026-09-01T20:01:53Z</time>
  <course>275.51</course>
  <speed>0.02</speed>
  <fix>3d</fix>
</trkpt>
<trkpt lat="-27.2387684" lon="151.3640733">
  <ele>390.25</ele>
  <time>2026-09-01T20:01:53Z</time>
  <course>154.47</course>
  <speed>0.01</speed>
  <fix>3d</fix>
</trkpt>
<trkpt lat="-27.2387684" lon="151.3640734">
  <ele>389.79</ele>
  <time>2026-09-01T20:01:53Z</time>
  <course>275.31</course>
  <speed>0.02</speed>
  <fix>3d</fix>
</trkpt>
<trkpt lat="-27.2387684" lon="151.3640733">
  <ele>390.25</ele>
  <time>2026-09-01T20:01:53Z</time>
  <course>154.47</course>
  <speed>0.01</speed>
  <fix>3d</fix>
</trkpt>
<trkpt lat="-27.2387684" lon="151.3640734">
  <ele>389.64</ele>
  <time>2026-09-01T20:01:53Z</time>
  <course>275.02</course>
  <speed>0.02</speed>
  <fix>3d</fix>
</trkpt>
<trkpt lat="-27.2387684" lon="151.3640734">
  <ele>389.95</ele>
  <time>2026-09-01T20:01:53Z</time>
  <course>169.54</course>
  <speed>0.02</speed>
  <fix>3d</fix>
</trkpt>
<trkpt lat="-27.2387684" lon="151.3640734">
  <ele>389.49</ele>
  <time>2026-09-01T20:01:53Z</time>
  <course>274.71</course>
  <speed>0.02</speed>
  <fix>3d</fix>
</trkpt>
<trkpt lat="-27.2387684" lon="151.3640734">
  <ele>389.95</ele>
  <time>2026-09-01T20:01:53Z</time>
  <course>169.54</course>
  <speed>0.02</speed>
  <fix>3d</fix>
</trkpt>
<trkpt lat="-27.2387684" lon="151.3640734">
  <ele>389.34</ele>
  <time>2026-09-01T20:01:53Z</time>
  <course>274.43</course>
  <speed>0.02</speed>
  <fix>3d</fix>
</trkpt>
<trkpt lat="-27.2387684" lon="151.3640734">
  <ele>389.65</ele>
  <time>2026-09-01T20:01:53Z</time>
  <course>171.85</course>
  <speed>0.02</speed>
  <fix>3d</fix>
</trkpt>
<trkpt lat="-27.2387685" lon="151.3640734">
  <ele>389.19</ele>
  <time>2026-09-01T20:01:53Z</time>
  <course>274.21</course>
  <speed>0.02</speed>
  <fix>3d</fix>
</trkpt>
<trkpt lat="-27.2387684" lon="151.3640734">
  <ele>389.65</ele>
  <time>2026-09-01T20:01:53Z</time>
  <course>171.85</course>
  <speed>0.02</speed>
  <fix>3d</fix>
</trkpt>
<trkpt lat="-27.2387685" lon="151.3640734">
  <ele>389.04</ele>
  <time>2026-09-01T20:01:53Z</time>
  <course>274.07</course>
  <speed>0.02</speed>
  <fix>3d</fix>
</trkpt>
<trkpt lat="-27.2387684" lon="151.3640734">
  <ele>389.34</ele>
  <time>2026-09-01T20:01:53Z</time>
  <course>173.36</course>
  <speed>0.02</speed>
  <fix>3d</fix>
</trkpt>
<trkpt lat="-27.2387685" lon="151.3640734">
  <ele>388.89</ele>
  <time>2026-09-01T20:01:53Z</time>
  <course>274.0</course>
  <speed>0.02</speed>
  <fix>3d</fix>
</trkpt>
<trkpt lat="-27.2387684" lon="151.3640734">
  <ele>389.34</ele>
  <time>2026-09-01T20:01:53Z</time>
  <course>173.36</course>
  <speed>0.02</speed>
  <fix>3d</fix>
</trkpt>
<trkpt lat="-27.2387685" lon="151.3640734">
  <ele>388.74</ele>
  <time>2026-09-01T20:01:53Z</time>
  <course>273.98</course>
  <speed>0.02</speed>
  <fix>3d</fix>
</trkpt>
<trkpt lat="-27.2387685" lon="151.3640734">
  <ele>389.04</ele>
  <time>2026-09-01T20:01:53Z</time>
  <course>173.85</course>
  <speed>0.02</speed>
  <fix>3d</fix>
</trkpt>
<trkpt lat="-27.2387685" lon="151.3640734">
  <ele>388.59</ele>
  <time>2026-09-01T20:01:53Z</time>
  <course>274.01</course>
  <speed>0.02</speed>
  <fix>3d</fix>
</trkpt>
<trkpt lat="-27.2387685" lon="151.3640734">
  <ele>389.04</ele>
  <time>2026-09-01T20:01:53Z</time>
  <course>173.85</course>
  <speed>0.02</speed>
  <fix>3d</fix>
</trkpt>
<trkpt lat="-27.2387686" lon="151.3640734">
  <ele>388.44</ele>
  <time>2026-09-01T20:01:53Z</time>
  <course>274.07</course>
  <speed>0.02</speed>
  <fix>3d</fix>
</trkpt>
<trkpt lat="-27.2387685" lon="151.3640734">
  <ele>388.75</ele>
  <time>2026-09-01T20:01:53Z</time>
  <course>173.85</course>
  <speed>0.02</speed>
  <fix>3d</fix>
</trkpt>
<trkpt lat="-27.2387686" lon="151.3640734">
  <ele>388.29</ele>
  <time>2026-09-01T20:01:53Z</time>
  <course>274.14</course>
  <speed>0.02</speed>
  <fix>3d</fix>
</trkpt>
<trkpt lat="-27.2387685" lon="151.3640734">
  <ele>388.75</ele>
  <time>2026-09-01T20:01:53Z</time>
  <course>173.85</course>
  <speed>0.02</speed>
  <fix>3d</fix>
</trkpt>
<trkpt lat="-27.2387686" lon="151.3640734">
  <ele>388.14</ele>
  <time>2026-09-01T20:01:53Z</time>
  <course>274.21</course>
  <speed>0.02</speed>
  <fix>3d</fix>
</trkpt>
<trkpt lat="-27.2387685" lon="151.3640734">
  <ele>388.45</ele>
  <time>2026-09-01T20:01:53Z</time>
  <course>173.88</course>
  <speed>0.02</speed>
  <fix>3d</fix>
</trkpt>
<trkpt lat="-27.2387686" lon="151.3640734">
  <ele>387.99</ele>
  <time>2026-09-01T20:01:53Z</time>
  <course>274.27</course>
  <speed>0.02</speed>
  <fix>3d</fix>
</trkpt>
<trkpt lat="-27.2387685" lon="151.3640734">
  <ele>388.45</ele>
  <time>2026-09-01T20:01:53Z</time>
  <course>173.88</course>
  <speed>0.02</speed>
  <fix>3d</fix>
</trkpt>
<trkpt lat="-27.2387686" lon="151.3640734">
  <ele>387.84</ele>
  <time>2026-09-01T20:01:53Z</time>
  <course>274.31</course>
  <speed>0.02</speed>
  <fix>3d</fix>
</trkpt>
<trkpt lat="-27.2387686" lon="151.3640734">
  <ele>388.15</ele>
  <time>2026-09-01T20:01:53Z</time>
  <course>174.4</course>
  <speed>0.02</speed>
  <fix>3d</fix>
</trkpt>
<trkpt lat="-27.2387687" lon="151.3640734">
  <ele>387.69</ele>
  <time>2026-09-01T20:01:53Z</time>
  <course>274.33</course>
  <speed>0.02</speed>
  <fix>3d</fix>
</trkpt>
<trkpt lat="-27.2387686" lon="151.3640734">
  <ele>388.15</ele>
  <time>2026-09-01T20:01:53Z</time>
  <course>174.4</course>
  <speed>0.02</speed>
  <fix>3d</fix>
</trkpt>
<trkpt lat="-27.2387687" lon="151.3640734">
  <ele>387.54</ele>
  <time>2026-09-01T20:01:53Z</time>
  <course>274.34</course>
  <speed>0.02</speed>
  <fix>3d</fix>
</trkpt>
<trkpt lat="-27.2387686" lon="151.3640734">
  <ele>387.85</ele>
  <time>2026-09-01T20:01:53Z</time>
  <course>175.38</course>
  <speed>0.02</speed>
  <fix>3d</fix>
</trkpt>
<trkpt lat="-27.2387687" lon="151.3640734">
  <ele>387.39</ele>
  <time>2026-09-01T20:01:53Z</time>
  <course>274.33</course>
  <speed>0.02</speed>
  <fix>3d</fix>
</trkpt>
<trkpt lat="-27.2387686" lon="151.3640734">
  <ele>387.85</ele>
  <time>2026-09-01T20:01:53Z</time>
  <course>175.38</course>
  <speed>0.02</speed>
  <fix>3d</fix>
</trkpt>
<trkpt lat="-27.2387687" lon="151.3640734">
  <ele>387.24</ele>
  <time>2026-09-01T20:01:53Z</time>
  <course>274.32</course>
  <speed>0.02</speed>
  <fix>3d</fix>
</trkpt>
<trkpt lat="-27.2387687" lon="151.3640734">
  <ele>387.55</ele>
  <time>2026-09-01T20:01:53Z</time>
  <course>176.68</course>
  <speed>0.02</speed>
  <fix>3d</fix>
</trkpt>
<trkpt lat="-27.2387687" lon="151.3640734">
  <ele>387.09</ele>
  <time>2026-09-01T20:01:53Z</time>
  <course>274.29</course>
  <speed>0.02</speed>
  <fix>3d</fix>
</trkpt>
<trkpt lat="-27.2387687" lon="151.3640734">
  <ele>387.55</ele>
  <time>2026-09-01T20:01:53Z</time>
  <course>176.68</course>
  <speed>0.02</speed>
  <fix>3d</fix>
</trkpt>
<trkpt lat="-27.2387688" lon="151.3640734">
  <ele>386.94</ele>
  <time>2026-09-01T20:01:53Z</time>
  <course>274.26</course>
  <speed>0.02</speed>
  <fix>3d</fix>
</trkpt>
<trkpt lat="-27.2387687" lon="151.3640734">
  <ele>387.25</ele>
  <time>2026-09-01T20:01:53Z</time>
  <course>178.47</course>
  <speed>0.02</speed>
  <fix>3d</fix>
</trkpt>
<trkpt lat="-27.2387688" lon="151.3640734">
  <ele>386.79</ele>
  <time>2026-09-01T20:01:53Z</time>
  <course>274.24</course>
  <speed>0.02</speed>
  <fix>3d</fix>
</trkpt>
<trkpt lat="-27.2387687" lon="151.3640734">
  <ele>387.25</ele>
  <time>2026-09-01T20:01:53Z</time>
  <course>178.47</course>
  <speed>0.02</speed>
  <fix>3d</fix>
</trkpt>
<trkpt lat="-27.2387688" lon="151.3640734">
  <ele>386.64</ele>
  <time>2026-09-01T20:01:53Z</time>
  <course>274.23</course>
  <speed>0.02</speed>
  <fix>3d</fix>
</trkpt>
<trkpt lat="-27.2387687" lon="151.3640734">
  <ele>386.95</ele>
  <time>2026-09-01T20:01:53Z</time>
  <course>179.95</course>
  <speed>0.02</speed>
  <fix>3d</fix>
</trkpt>
<trkpt lat="-27.2387688" lon="151.3640734">
  <ele>386.49</ele>
  <time>2026-09-01T20:01:53Z</time>
  <course>274.24</course>
  <speed>0.02</speed>
  <fix>3d</fix>
</trkpt>
<trkpt lat="-27.2387687" lon="151.3640734">
  <ele>386.95</ele>
  <time>2026-09-01T20:01:53Z</time>
  <course>179.95</course>
  <speed>0.02</speed>
  <fix>3d</fix>
</trkpt>
<trkpt lat="-27.2387688" lon="151.3640734">
  <ele>386.34</ele>
  <time>2026-09-01T20:01:53Z</time>
  <course>274.25</course>
  <speed>0.02</speed>
  <fix>3d</fix>
</trkpt>
<trkpt lat="-27.2387688" lon="151.3640734">
  <ele>386.65</ele>
  <time>2026-09-01T20:01:53Z</time>
  <course>181.12</course>
  <speed>0.02</speed>
  <fix>3d</fix>
</trkpt>
<trkpt lat="-27.2387688" lon="151.3640734">
  <ele>386.19</ele>
  <time>2026-09-01T20:01:53Z</time>
  <course>274.26</course>
  <speed>0.02</speed>
  <fix>3d</fix>
</trkpt>
<trkpt lat="-27.2387688" lon="151.3640734">
  <ele>386.65</ele>
  <time>2026-09-01T20:01:53Z</time>
  <course>181.12</course>
  <speed>0.02</speed>
  <fix>3d</fix>
</trkpt>
<trkpt lat="-27.2387689" lon="151.3640734">
  <ele>386.04</ele>
  <time>2026-09-01T20:01:53Z</time>
  <course>274.26</course>
  <speed>0.02</speed>
  <fix>3d</fix>
</trkpt>
<trkpt lat="-27.2387688" lon="151.3640734">
  <ele>386.35</ele>
  <time>2026-09-01T20:01:53Z</time>
  <course>182.76</course>
  <speed>0.02</speed>
  <fix>3d</fix>
</trkpt>
<trkpt lat="-27.2387689" lon="151.3640734">
  <ele>385.89</ele>
  <time>2026-09-01T20:01:53Z</time>
  <course>274.27</course>
  <speed>0.01</speed>
  <fix>3d</fix>
</trkpt>
<trkpt lat="-27.2387688" lon="151.3640734">
  <ele>386.35</ele>
  <time>2026-09-01T20:01:53Z</time>
  <course>182.76</course>
  <speed>0.02</speed>
  <fix>3d</fix>
</trkpt>
<trkpt lat="-27.2387689" lon="151.3640734">
  <ele>385.74</ele>
  <time>2026-09-01T20:01:53Z</time>
  <course>274.27</course>
  <speed>0.02</speed>
  <fix>3d</fix>
</trkpt>
<trkpt lat="-27.2387688" lon="151.3640734">
  <ele>386.05</ele>
  <time>2026-09-01T20:01:53Z</time>
  <course>184.74</course>
  <speed>0.02</speed>
  <fix>3d</fix>
</trkpt>
<trkpt lat="-27.2387689" lon="151.3640734">
  <ele>385.59</ele>
  <time>2026-09-01T20:01:53Z</time>
  <course>274.28</course>
  <speed>0.02</speed>
  <fix>3d</fix>
</trkpt>
<trkpt lat="-27.2387688" lon="151.3640734">
  <ele>386.05</ele>
  <time>2026-09-01T20:01:53Z</time>
  <course>184.74</course>
  <speed>0.02</speed>
  <fix>3d</fix>
</trkpt>
<trkpt lat="-27.2387689" lon="151.3640734">
  <ele>385.44</ele>
  <time>2026-09-01T20:01:53Z</time>
  <course>274.28</course>
  <speed>0.01</speed>
  <fix>3d</fix>
</trkpt>
<trkpt lat="-27.2387689" lon="151.3640734">
  <ele>385.75</ele>
  <time>2026-09-01T20:01:53Z</time>
  <course>186.84</course>
  <speed>0.02</speed>
  <fix>3d</fix>
</trkpt>
<trkpt lat="-27.238769" lon="151.3640734">
  <ele>385.29</ele>
  <time>2026-09-01T20:01:53Z</time>
  <course>274.28</course>
  <speed>0.01</speed>
  <fix>3d</fix>
</trkpt>
<trkpt lat="-27.2387689" lon="151.3640734">
  <ele>385.75</ele>
  <time>2026-09-01T20:01:53Z</time>
  <course>186.84</course>
  <speed>0.02</speed>
  <fix>3d</fix>
</trkpt>
<trkpt lat="-27.238769" lon="151.3640734">
  <ele>385.14</ele>
  <time>2026-09-01T20:01:53Z</time>
  <course>274.28</course>
  <speed>0.01</speed>
  <fix>3d</fix>
</trkpt>
<trkpt lat="-27.2387689" lon="151.3640734">
  <ele>385.45</ele>
  <time>2026-09-01T20:01:53Z</time>
  <course>188.73</course>
  <speed>0.01</speed>
  <fix>3d</fix>
</trkpt>
<trkpt lat="-27.238769" lon="151.3640734">
  <ele>384.99</ele>
  <time>2026-09-01T20:01:53Z</time>
  <course>274.29</course>
  <speed>0.01</speed>
  <fix>3d</fix>
</trkpt>
<trkpt lat="-27.2387689" lon="151.3640734">
  <ele>385.45</ele>
  <time>2026-09-01T20:01:53Z</time>
  <course>188.73</course>
  <speed>0.01</speed>
  <fix>3d</fix>
</trkpt>
<trkpt lat="-27.238769" lon="151.3640734">
  <ele>384.84</ele>
  <time>2026-09-01T20:01:53Z</time>
  <course>274.3</course>
  <speed>0.01</speed>
  <fix>3d</fix>
</trkpt>
<trkpt lat="-27.238769" lon="151.3640734">
  <ele>385.15</ele>
  <time>2026-09-01T20:01:53Z</time>
  <course>190.21</course>
  <speed>0.01</speed>
  <fix>3d</fix>
</trkpt>
<trkpt lat="-27.238769" lon="151.3640734">
  <ele>384.69</ele>
  <time>2026-09-01T20:01:53Z</time>
  <course>274.31</course>
  <speed>0.01</speed>
  <fix>3d</fix>
</trkpt>
<trkpt lat="-27.238769" lon="151.3640734">
  <ele>385.15</ele>
  <time>2026-09-01T20:01:53Z</time>
  <course>190.21</course>
  <speed>0.01</speed>
  <fix>3d</fix>
</trkpt>
<trkpt lat="-27.238769" lon="151.3640734">
  <ele>384.54</ele>
  <time>2026-09-01T20:01:53Z</time>
  <course>274.31</course>
  <speed>0.01</speed>
  <fix>3d</fix>
</trkpt>
<trkpt lat="-27.238769" lon="151.3640734">
  <ele>384.85</ele>
  <time>2026-09-01T20:01:53Z</time>
  <course>191.12</course>
  <speed>0.02</speed>
  <fix>3d</fix>
</trkpt>
<trkpt lat="-27.2387691" lon="151.3640734">
  <ele>384.39</ele>
  <time>2026-09-01T20:01:53Z</time>
  <course>274.31</course>
  <speed>0.01</speed>
  <fix>3d</fix>
</trkpt>
<trkpt lat="-27.238769" lon="151.3640734">
  <ele>384.85</ele>
  <time>2026-09-01T20:01:53Z</time>
  <course>191.12</course>
  <speed>0.02</speed>
  <fix>3d</fix>
</trkpt>
<trkpt lat="-27.2387691" lon="151.3640734">
  <ele>384.24</ele>
  <time>2026-09-01T20:01:53Z</time>
  <course>274.32</course>
  <speed>0.01</speed>
  <fix>3d</fix>
</trkpt>
<trkpt lat="-27.238769" lon="151.3640734">
  <ele>384.55</ele>
  <time>2026-09-01T20:01:53Z</time>
  <course>192.23</course>
  <speed>0.01</speed>
  <fix>3d</fix>
</trkpt>
<trkpt lat="-27.2387691" lon="151.3640734">
  <ele>384.09</ele>
  <time>2026-09-01T20:01:53Z</time>
  <course>274.33</course>
  <speed>0.01</speed>
  <fix>3d</fix>
</trkpt>
<trkpt lat="-27.238769" lon="151.3640734">
  <ele>384.55</ele>
  <time>2026-09-01T20:01:53Z</time>
  <course>192.23</course>
  <speed>0.01</speed>
  <fix>3d</fix>
</trkpt>
<trkpt lat="-27.2387691" lon="151.3640734">
  <ele>383.94</ele>
  <time>2026-09-01T20:01:53Z</time>
  <course>274.34</course>
  <speed>0.01</speed>
  <fix>3d</fix>
</trkpt>
<trkpt lat="-27.2387691" lon="151.3640734">
  <ele>384.25</ele>
  <time>2026-09-01T20:01:53Z</time>
  <course>193.83</course>
  <speed>0.01</speed>
  <fix>3d</fix>
</trkpt>
<trkpt lat="-27.2387691" lon="151.3640734">
  <ele>383.79</ele>
  <time>2026-09-01T20:01:53Z</time>
  <course>274.35</course>
  <speed>0.01</speed>
  <fix>3d</fix>
</trkpt>
<trkpt lat="-27.2387691" lon="151.3640734">
  <ele>384.25</ele>
  <time>2026-09-01T20:01:53Z</time>
  <course>193.83</course>
  <speed>0.01</speed>
  <fix>3d</fix>
</trkpt>
<trkpt lat="-27.2387691" lon="151.3640734">
  <ele>383.64</ele>
  <time>2026-09-01T20:01:53Z</time>
  <course>274.35</course>
  <speed>0.01</speed>
  <fix>3d</fix>
</trkpt>
<trkpt lat="-27.2387691" lon="151.3640734">
  <ele>383.95</ele>
  <time>2026-09-01T20:01:53Z</time>
  <course>195.72</course>
  <speed>0.01</speed>
  <fix>3d</fix>
</trkpt>
<trkpt lat="-27.2387692" lon="151.3640734">
  <ele>383.49</ele>
  <time>2026-09-01T20:01:53Z</time>
  <course>274.35</course>
  <speed>0.01</speed>
  <fix>3d</fix>
</trkpt>
<trkpt lat="-27.2387691" lon="151.3640734">
  <ele>383.95</ele>
  <time>2026-09-01T20:01:53Z</time>
  <course>195.72</course>
  <speed>0.01</speed>
  <fix>3d</fix>
</trkpt>
<trkpt lat="-27.2387692" lon="151.3640734">
  <ele>383.34</ele>
  <time>2026-09-01T20:01:53Z</time>
  <course>274.35</course>
  <speed>0.01</speed>
  <fix>3d</fix>
</trkpt>
<trkpt lat="-27.2387691" lon="151.3640734">
  <ele>383.65</ele>
  <time>2026-09-01T20:01:53Z</time>
  <course>197.8</course>
  <speed>0.01</speed>
  <fix>3d</fix>
</trkpt>
<trkpt lat="-27.2387692" lon="151.3640734">
  <ele>383.19</ele>
  <time>2026-09-01T20:01:53Z</time>
  <course>274.35</course>
  <speed>0.01</speed>
  <fix>3d</fix>
</trkpt>
<trkpt lat="-27.2387691" lon="151.3640734">
  <ele>383.65</ele>
  <time>2026-09-01T20:01:53Z</time>
  <course>197.8</course>
  <speed>0.01</speed>
  <fix>3d</fix>
</trkpt>
<trkpt lat="-27.2387692" lon="151.3640734">
  <ele>383.04</ele>
  <time>2026-09-01T20:01:53Z</time>
  <course>274.36</course>
  <speed>0.01</speed>
  <fix>3d</fix>
</trkpt>
<trkpt lat="-27.2387692" lon="151.3640734">
  <ele>383.35</ele>
  <time>2026-09-01T20:01:53Z</time>
  <course>199.89</course>
  <speed>0.01</speed>
  <fix>3d</fix>
</trkpt>
<trkpt lat="-27.2387692" lon="151.3640734">
  <ele>382.89</ele>
  <time>2026-09-01T20:01:53Z</time>
  <course>274.36</course>
  <speed>0.01</speed>
  <fix>3d</fix>
</trkpt>
<trkpt lat="-27.2387692" lon="151.3640734">
  <ele>383.35</ele>
  <time>2026-09-01T20:01:53Z</time>
  <course>199.89</course>
  <speed>0.01</speed>
  <fix>3d</fix>
</trkpt>
<trkpt lat="-27.2387692" lon="151.3640734">
  <ele>382.74</ele>
  <time>2026-09-01T20:01:53Z</time>
  <course>274.36</course>
  <speed>0.01</speed>
  <fix>3d</fix>
</trkpt>
<trkpt lat="-27.2387692" lon="151.3640734">
  <ele>383.05</ele>
  <time>2026-09-01T20:01:53Z</time>
  <course>201.87</course>
  <speed>0.02</speed>
  <fix>3d</fix>
</trkpt>
<trkpt lat="-27.2387693" lon="151.3640734">
  <ele>382.59</ele>
  <time>2026-09-01T20:01:53Z</time>
  <course>274.36</course>
  <speed>0.01</speed>
  <fix>3d</fix>
</trkpt>
<trkpt lat="-27.2387692" lon="151.3640734">
  <ele>383.05</ele>
  <time>2026-09-01T20:01:53Z</time>
  <course>201.87</course>
  <speed>0.02</speed>
  <fix>3d</fix>
</trkpt>
<trkpt lat="-27.2387693" lon="151.3640734">
  <ele>382.44</ele>
  <time>2026-09-01T20:01:53Z</time>
  <course>274.36</course>
  <speed>0.01</speed>
  <fix>3d</fix>
</trkpt>
<trkpt lat="-27.2387692" lon="151.3640734">
  <ele>382.75</ele>
  <time>2026-09-01T20:01:53Z</time>
  <course>204.05</course>
  <speed>0.02</speed>
  <fix>3d</fix>
</trkpt>
<trkpt lat="-27.2387693" lon="151.3640734">
  <ele>382.29</ele>
  <time>2026-09-01T20:01:53Z</time>
  <course>274.37</course>
  <speed>0.01</speed>
  <fix>3d</fix>
</trkpt>
<trkpt lat="-27.2387692" lon="151.3640734">
  <ele>382.75</ele>
  <time>2026-09-01T20:01:53Z</time>
  <course>204.05</course>
  <speed>0.02</speed>
  <fix>3d</fix>
</trkpt>
<trkpt lat="-27.2387693" lon="151.3640734">
  <ele>382.14</ele>
  <time>2026-09-01T20:01:53Z</time>
  <course>274.38</course>
  <speed>0.01</speed>
  <fix>3d</fix>
</trkpt>
<trkpt lat="-27.2387693" lon="151.3640734">
  <ele>382.45</ele>
  <time>2026-09-01T20:01:53Z</time>
  <course>205.86</course>
  <speed>0.02</speed>
  <fix>3d</fix>
</trkpt>
<trkpt lat="-27.2387693" lon="151.3640733">
  <ele>381.99</ele>
  <time>2026-09-01T20:01:53Z</time>
  <course>274.39</course>
  <speed>0.01414213562373095</speed>
  <fix>3d</fix>
</trkpt>
<trkpt lat="-27.2387693" lon="151.3640734">
  <ele>382.45</ele>
  <time>2026-09-01T20:01:53Z</time>
  <course>205.86</course>
  <speed>0.02</speed>
  <fix>3d</fix>
</trkpt>
<trkpt lat="-27.2387693" lon="151.3640733">
  <ele>381.84</ele>
  <time>2026-09-01T20:01:53Z</time>
  <course>274.4</course>
  <speed>0.01</speed>
  <fix>3d</fix>
</trkpt>
<trkpt lat="-27.2387693" lon="151.3640733">
  <ele>382.15</ele>
  <time>2026-09-01T20:01:53Z</time>
  <course>207.39</course>
  <speed>0.02</speed>
  <fix>3d</fix>
</trkpt>
<trkpt lat="-27.2387694" lon="151.3640733">
  <ele>381.69</ele>
  <time>2026-09-01T20:01:53Z</time>
  <course>274.4</course>
  <speed>0.01</speed>
  <fix>3d</fix>
</trkpt>
<trkpt lat="-27.2387693" lon="151.3640733">
  <ele>382.15</ele>
  <time>2026-09-01T20:01:53Z</time>
  <course>207.39</course>
  <speed>0.02</speed>
  <fix>3d</fix>
</trkpt>
<trkpt lat="-27.2387694" lon="151.3640733">
  <ele>381.54</ele>
  <time>2026-09-01T20:01:53Z</time>
  <course>274.42</course>
  <speed>0.01</speed>
  <fix>3d</fix>
</trkpt>
<trkpt lat="-27.2387693" lon="151.3640733">
  <ele>381.85</ele>
  <time>2026-09-01T20:01:53Z</time>
  <course>207.84</course>
  <speed>0.02</speed>
  <fix>3d</fix>
</trkpt>
<trkpt lat="-27.2387694" lon="151.3640733">
  <ele>381.39</ele>
  <time>2026-09-01T20:01:53Z</time>
  <course>274.44</course>
  <speed>0.01</speed>
  <fix>3d</fix>
</trkpt>
<trkpt lat="-27.2387693" lon="151.3640733">
  <ele>381.85</ele>
  <time>2026-09-01T20:01:53Z</time>
  <course>207.84</course>
  <speed>0.02</speed>
  <fix>3d</fix>
</trkpt>
<trkpt lat="-27.2387694" lon="151.3640733">
  <ele>381.24</ele>
  <time>2026-09-01T20:01:53Z</time>
  <course>274.47</course>
  <speed>0.02</speed>
  <fix>3d</fix>
</trkpt>
<trkpt lat="-27.2387694" lon="151.3640733">
  <ele>381.55</ele>
  <time>2026-09-01T20:01:53Z</time>
  <course>206.17</course>
  <speed>0.02</speed>
  <fix>3d</fix>
</trkpt>
<trkpt lat="-27.2387694" lon="151.3640733">
  <ele>381.09</ele>
  <time>2026-09-01T20:01:53Z</time>
  <course>274.5</course>
  <speed>0.01</speed>
  <fix>3d</fix>
</trkpt>
<trkpt lat="-27.2387694" lon="151.3640733">
  <ele>381.55</ele>
  <time>2026-09-01T20:01:53Z</time>
  <course>206.17</course>
  <speed>0.02</speed>
  <fix>3d</fix>
</trkpt>
<trkpt lat="-27.2387695" lon="151.3640733">
  <ele>380.94</ele>
  <time>2026-09-01T20:01:53Z</time>
  <course>274.52</course>
  <speed>0.01</speed>
  <fix>3d</fix>
</trkpt>
<trkpt lat="-27.2387694" lon="151.3640733">
  <ele>381.25</ele>
  <time>2026-09-01T20:01:53Z</time>
  <course>204.37</course>
  <speed>0.02</speed>
  <fix>3d</fix>
</trkpt>
<trkpt lat="-27.2387695" lon="151.3640733">
  <ele>380.79</ele>
  <time>2026-09-01T20:01:53Z</time>
  <course>274.53</course>
  <speed>0.01</speed>
  <fix>3d</fix>
</trkpt>
<trkpt lat="-27.2387694" lon="151.3640733">
  <ele>381.25</ele>
  <time>2026-09-01T20:01:53Z</time>
  <course>204.37</course>
  <speed>0.02</speed>
  <fix>3d</fix>
</trkpt>
<trkpt lat="-27.2387695" lon="151.3640733">
  <ele>380.64</ele>
  <time>2026-09-01T20:01:53Z</time>
  <course>274.53</course>
  <speed>0.02</speed>
  <fix>3d</fix>
</trkpt>
<trkpt lat="-27.2387694" lon="151.3640733">
  <ele>380.95</ele>
  <time>2026-09-01T20:01:53Z</time>
  <course>203.39</course>
  <speed>0.02</speed>
  <fix>3d</fix>
</trkpt>
<trkpt lat="-27.2387695" lon="151.3640733">
  <ele>380.49</ele>
  <time>2026-09-01T20:01:53Z</time>
  <course>274.54</course>
  <speed>0.02</speed>
  <fix>3d</fix>
</trkpt>
<trkpt lat="-27.2387694" lon="151.3640733">
  <ele>380.95</ele>
  <time>2026-09-01T20:01:53Z</time>
  <course>203.39</course>
  <speed>0.02</speed>
  <fix>3d</fix>
</trkpt>
<trkpt lat="-27.2387695" lon="151.3640732">
  <ele>380.34</ele>
  <time>2026-09-01T20:01:53Z</time>
  <course>274.55</course>
  <speed>0.02</speed>
  <fix>3d</fix>
</trkpt>
<trkpt lat="-27.2387695" lon="151.3640733">
  <ele>380.65</ele>
  <time>2026-09-01T20:01:53Z</time>
  <course>202.89</course>
  <speed>0.02</speed>
  <fix>3d</fix>
</trkpt>
<trkpt lat="-27.2387695" lon="151.3640732">
  <ele>380.19</ele>
  <time>2026-09-01T20:01:53Z</time>
  <course>274.56</course>
  <speed>0.02</speed>
  <fix>3d</fix>
</trkpt>
<trkpt lat="-27.2387695" lon="151.3640733">
  <ele>380.65</ele>
  <time>2026-09-01T20:01:53Z</time>
  <course>202.89</course>
  <speed>0.02</speed>
  <fix>3d</fix>
</trkpt>
<trkpt lat="-27.2387696" lon="151.3640732">
  <ele>380.04</ele>
  <time>2026-09-01T20:01:53Z</time>
  <course>274.56</course>
  <speed>0.02</speed>
  <fix>3d</fix>
</trkpt>
<trkpt lat="-27.2387695" lon="151.3640732">
  <ele>380.35</ele>
  <time>2026-09-01T20:01:53Z</time>
  <course>202.3</course>
  <speed>0.02</speed>
  <fix>3d</fix>
</trkpt>
<trkpt lat="-27.2387696" lon="151.3640732">
  <ele>379.89</ele>
  <time>2026-09-01T20:01:53Z</time>
  <course>274.58</course>
  <speed>0.02</speed>
  <fix>3d</fix>
</trkpt>
<trkpt lat="-27.2387695" lon="151.3640732">
  <ele>380.35</ele>
  <time>2026-09-01T20:01:53Z</time>
  <course>202.3</course>
  <speed>0.02</speed>
  <fix>3d</fix>
</trkpt>
<trkpt lat="-27.2387696" lon="151.3640732">
  <ele>379.74</ele>
  <time>2026-09-01T20:01:53Z</time>
  <course>274.61</course>
  <speed>0.02</speed>
  <fix>3d</fix>
</trkpt>
<trkpt lat="-27.2387695" lon="151.3640732">
  <ele>380.05</ele>
  <time>2026-09-01T20:01:53Z</time>
  <course>200.2</course>
  <speed>0.02</speed>
  <fix>3d</fix>
</trkpt>
<trkpt lat="-27.2387696" lon="151.3640732">
  <ele>379.59</ele>
  <time>2026-09-01T20:01:53Z</time>
  <course>274.65</course>
  <speed>0.02</speed>
  <fix>3d</fix>
</trkpt>
<trkpt lat="-27.2387695" lon="151.3640732">
  <ele>380.05</ele>
  <time>2026-09-01T20:01:53Z</time>
  <course>200.2</course>
  <speed>0.02</speed>
  <fix>3d</fix>
</trkpt>
<trkpt lat="-27.2387696" lon="151.3640732">
  <ele>379.44</ele>
  <time>2026-09-01T20:01:53Z</time>
  <course>274.67</course>
  <speed>0.02</speed>
  <fix>3d</fix>
</trkpt>
<trkpt lat="-27.2387696" lon="151.3640732">
  <ele>379.75</ele>
  <time>2026-09-01T20:01:53Z</time>
  <course>197.23</course>
  <speed>0.02</speed>
  <fix>3d</fix>
</trkpt>
<trkpt lat="-27.2387697" lon="151.3640732">
  <ele>379.29</ele>
  <time>2026-09-01T20:01:53Z</time>
  <course>274.68</course>
  <speed>0.02</speed>
  <fix>3d</fix>
</trkpt>
<trkpt lat="-27.2387696" lon="151.3640732">
  <ele>379.75</ele>
  <time>2026-09-01T20:01:53Z</time>
  <course>197.23</course>
  <speed>0.02</speed>
  <fix>3d</fix>
</trkpt>
<trkpt lat="-27.2387697" lon="151.3640732">
  <ele>379.14</ele>
  <time>2026-09-01T20:01:53Z</time>
  <course>274.69</course>
  <speed>0.02</speed>
  <fix>3d</fix>
</trkpt>
<trkpt lat="-27.2387696" lon="151.3640732">
  <ele>379.45</ele>
  <time>2026-09-01T20:01:53Z</time>
  <course>195.31</course>
  <speed>0.02</speed>
  <fix>3d</fix>
</trkpt>
<trkpt lat="-27.2387697" lon="151.3640732">
  <ele>378.99</ele>
  <time>2026-09-01T20:01:53Z</time>
  <course>274.7</course>
  <speed>0.02</speed>
  <fix>3d</fix>
</trkpt>
<trkpt lat="-27.2387696" lon="151.3640732">
  <ele>379.45</ele>
  <time>2026-09-01T20:01:53Z</time>
  <course>195.31</course>
  <speed>0.02</speed>
  <fix>3d</fix>
</trkpt>
<trkpt lat="-27.2387697" lon="151.3640732">
  <ele>378.84</ele>
  <time>2026-09-01T20:01:53Z</time>
  <course>274.72</course>
  <speed>0.02</speed>
  <fix>3d</fix>
</trkpt>
<trkpt lat="-27.2387697" lon="151.3640732">
  <ele>379.15</ele>
  <time>2026-09-01T20:01:53Z</time>
  <course>194.53</course>
  <speed>0.02</speed>
  <fix>3d</fix>
</trkpt>
<trkpt lat="-27.2387697" lon="151.3640732">
  <ele>378.69</ele>
  <time>2026-09-01T20:01:53Z</time>
  <course>274.75</course>
  <speed>0.02</speed>
  <fix>3d</fix>
</trkpt>
<trkpt lat="-27.2387697" lon="151.3640732">
  <ele>379.15</ele>
  <time>2026-09-01T20:01:53Z</time>
  <course>194.53</course>
  <speed>0.02</speed>
  <fix>3d</fix>
</trkpt>
<trkpt lat="-27.2387698" lon="151.3640732">
  <ele>378.54</ele>
  <time>2026-09-01T20:01:53Z</time>
  <course>274.78</course>
  <speed>0.02</speed>
  <fix>3d</fix>
</trkpt>
<trkpt lat="-27.2387697" lon="151.3640732">
  <ele>378.85</ele>
  <time>2026-09-01T20:01:53Z</time>
  <course>193.94</course>
  <speed>0.02</speed>
  <fix>3d</fix>
</trkpt>
<trkpt lat="-27.2387698" lon="151.3640732">
  <ele>378.39</ele>
  <time>2026-09-01T20:01:53Z</time>
  <course>274.81</course>
  <speed>0.02</speed>
  <fix>3d</fix>
</trkpt>
<trkpt lat="-27.2387697" lon="151.3640732">
  <ele>378.85</ele>
  <time>2026-09-01T20:01:53Z</time>
  <course>193.94</course>
  <speed>0.02</speed>
  <fix>3d</fix>
</trkpt>
<trkpt lat="-27.2387698" lon="151.3640732">
  <ele>378.24</ele>
  <time>2026-09-01T20:01:53Z</time>
  <course>274.84</course>
  <speed>0.02</speed>
  <fix>3d</fix>
</trkpt>
<trkpt lat="-27.2387697" lon="151.3640732">
  <ele>378.55</ele>
  <time>2026-09-01T20:01:53Z</time>
  <course>192.65</course>
  <speed>0.02</speed>
  <fix>3d</fix>
</trkpt>
<trkpt lat="-27.2387698" lon="151.3640732">
  <ele>378.09</ele>
  <time>2026-09-01T20:01:53Z</time>
  <course>274.87</course>
  <speed>0.02</speed>
  <fix>3d</fix>
</trkpt>
<trkpt lat="-27.2387697" lon="151.3640732">
  <ele>378.55</ele>
  <time>2026-09-01T20:01:53Z</time>
  <course>192.65</course>
  <speed>0.02</speed>
  <fix>3d</fix>
</trkpt>
<trkpt lat="-27.2387698" lon="151.364073">
  <ele>377.94</ele>
  <time>2026-09-01T20:01:53Z</time>
  <course>274.9</course>
  <speed>0.02</speed>
  <fix>3d</fix>
</trkpt>
<trkpt lat="-27.2387698" lon="151.3640732">
  <ele>378.25</ele>
  <time>2026-09-01T20:01:53Z</time>
  <course>191.78</course>
  <speed>0.02</speed>
  <fix>3d</fix>
</trkpt>
<trkpt lat="-27.2387699" lon="151.364073">
  <ele>377.79</ele>
  <time>2026-09-01T20:01:53Z</time>
  <course>274.93</course>
  <speed>0.02</speed>
  <fix>3d</fix>
</trkpt>
<trkpt lat="-27.2387698" lon="151.3640732">
  <ele>378.25</ele>
  <time>2026-09-01T20:01:53Z</time>
  <course>191.78</course>
  <speed>0.02</speed>
  <fix>3d</fix>
</trkpt>
<trkpt lat="-27.2387699" lon="151.364073">
  <ele>377.64</ele>
  <time>2026-09-01T20:01:53Z</time>
  <course>274.95</course>
  <speed>0.02</speed>
  <fix>3d</fix>
</trkpt>
<trkpt lat="-27.2387698" lon="151.3640731">
  <ele>377.95</ele>
  <time>2026-09-01T20:01:53Z</time>
  <course>191.77</course>
  <speed>0.02</speed>
  <fix>3d</fix>
</trkpt>
<trkpt lat="-27.2387699" lon="151.364073">
  <ele>377.49</ele>
  <time>2026-09-01T20:01:53Z</time>
  <course>274.97</course>
  <speed>0.02</speed>
  <fix>3d</fix>
</trkpt>
<trkpt lat="-27.2387698" lon="151.3640731">
  <ele>377.95</ele>
  <time>2026-09-01T20:01:53Z</time>
  <course>191.77</course>
  <speed>0.02</speed>
  <fix>3d</fix>
</trkpt>
<trkpt lat="-27.2387699" lon="151.364073">
  <ele>377.34</ele>
  <time>2026-09-01T20:01:53Z</time>
  <course>274.98</course>
  <speed>0.02</speed>
  <fix>3d</fix>
</trkpt>
<trkpt lat="-27.2387699" lon="151.364073">
  <ele>377.65</ele>
  <time>2026-09-01T20:01:53Z</time>
  <course>191.54</course>
  <speed>0.02</speed>
  <fix>3d</fix>
</trkpt>
<trkpt lat="-27.23877" lon="151.364073">
  <ele>377.19</ele>
  <time>2026-09-01T20:01:53Z</time>
  <course>275.01</course>
  <speed>0.02</speed>
  <fix>3d</fix>
</trkpt>
<trkpt lat="-27.2387699" lon="151.364073">
  <ele>377.65</ele>
  <time>2026-09-01T20:01:53Z</time>
  <course>191.54</course>
  <speed>0.02</speed>
  <fix>3d</fix>
</trkpt>
<trkpt lat="-27.23877" lon="151.364073">
  <ele>377.04</ele>
  <time>2026-09-01T20:01:53Z</time>
  <course>275.03</course>
  <speed>0.02</speed>
  <fix>3d</fix>
</trkpt>
<trkpt lat="-27.2387699" lon="151.364073">
  <ele>377.35</ele>
  <time>2026-09-01T20:01:53Z</time>
  <course>190.62</course>
  <speed>0.02</speed>
  <fix>3d</fix>
</trkpt>
<trkpt lat="-27.23877" lon="151.364073">
  <ele>376.89</ele>
  <time>2026-09-01T20:01:53Z</time>
  <course>275.06</course>
  <speed>0.02</speed>
  <fix>3d</fix>
</trkpt>
<trkpt lat="-27.2387699" lon="151.364073">
  <ele>377.35</ele>
  <time>2026-09-01T20:01:53Z</time>
  <course>190.62</course>
  <speed>0.02</speed>
  <fix>3d</fix>
</trkpt>
<trkpt lat="-27.23877" lon="151.364073">
  <ele>376.74</ele>
  <time>2026-09-01T20:01:53Z</time>
  <course>275.08</course>
  <speed>0.02</speed>
  <fix>3d</fix>
</trkpt>
<trkpt lat="-27.23877" lon="151.364073">
  <ele>377.05</ele>
  <time>2026-09-01T20:01:53Z</time>
  <course>189.53</course>
  <speed>0.02</speed>
  <fix>3d</fix>
</trkpt>
<trkpt lat="-27.2387701" lon="151.364073">
  <ele>376.59</ele>
  <time>2026-09-01T20:01:53Z</time>
  <course>275.1</course>
  <speed>0.02</speed>
  <fix>3d</fix>
</trkpt>
<trkpt lat="-27.23877" lon="151.364073">
  <ele>377.05</ele>
  <time>2026-09-01T20:01:53Z</time>
  <course>189.53</course>
  <speed>0.02</speed>
  <fix>3d</fix>
</trkpt>
<trkpt lat="-27.2387701" lon="151.364073">
  <ele>376.44</ele>
  <time>2026-09-01T20:01:53Z</time>
  <course>275.12</course>
  <speed>0.02</speed>
  <fix>3d</fix>
</trkpt>
<trkpt lat="-27.23877" lon="151.364073">
  <ele>376.75</ele>
  <time>2026-09-01T20:01:53Z</time>
  <course>188.39</course>
  <speed>0.02</speed>
  <fix>3d</fix>
</trkpt>
<trkpt lat="-27.2387701" lon="151.364073">
  <ele>376.29</ele>
  <time>2026-09-01T20:01:53Z</time>
  <course>275.14</course>
  <speed>0.02</speed>
  <fix>3d</fix>
</trkpt>
<trkpt lat="-27.23877" lon="151.364073">
  <ele>376.75</ele>
  <time>2026-09-01T20:01:53Z</time>
  <course>188.39</course>
  <speed>0.02</speed>
  <fix>3d</fix>
</trkpt>
<trkpt lat="-27.2387701" lon="151.364073">
  <ele>376.14</ele>
  <time>2026-09-01T20:01:53Z</time>
  <course>275.18</course>
  <speed>0.02</speed>
  <fix>3d</fix>
</trkpt>
<trkpt lat="-27.2387701" lon="151.364073">
  <ele>376.45</ele>
  <time>2026-09-01T20:01:53Z</time>
  <course>186.27</course>
  <speed>0.02</speed>
  <fix>3d</fix>
</trkpt>
<trkpt lat="-27.2387702" lon="151.364073">
  <ele>375.99</ele>
  <time>2026-09-01T20:01:53Z</time>
  <course>275.21</course>
  <speed>0.03</speed>
  <fix>3d</fix>
</trkpt>
<trkpt lat="-27.2387701" lon="151.364073">
  <ele>376.45</ele>
  <time>2026-09-01T20:01:53Z</time>
  <course>186.27</course>
  <speed>0.02</speed>
  <fix>3d</fix>
</trkpt>
<trkpt lat="-27.2387702" lon="151.364073">
  <ele>375.84</ele>
  <time>2026-09-01T20:01:53Z</time>
  <course>275.25</course>
  <speed>0.03</speed>
  <fix>3d</fix>
</trkpt>
<trkpt lat="-27.2387701" lon="151.364073">
  <ele>376.15</ele>
  <time>2026-09-01T20:01:53Z</time>
  <course>183.88</course>
  <speed>0.02</speed>
  <fix>3d</fix>
</trkpt>
<trkpt lat="-27.2387702" lon="151.364073">
  <ele>375.69</ele>
  <time>2026-09-01T20:01:53Z</time>
  <course>275.29</course>
  <speed>0.03</speed>
  <fix>3d</fix>
</trkpt>
<trkpt lat="-27.2387701" lon="151.364073">
  <ele>376.15</ele>
  <time>2026-09-01T20:01:53Z</time>
  <course>183.88</course>
  <speed>0.02</speed>
  <fix>3d</fix>
</trkpt>
<trkpt lat="-27.2387702" lon="151.364073">
  <ele>375.54</ele>
  <time>2026-09-01T20:01:53Z</time>
  <course>275.32</course>
  <speed>0.03</speed>
  <fix>3d</fix>
</trkpt>
<trkpt lat="-27.2387702" lon="151.364073">
  <ele>375.85</ele>
  <time>2026-09-01T20:01:53Z</time>
  <course>182.35</course>
  <speed>0.03</speed>
  <fix>3d</fix>
</trkpt>
<trkpt lat="-27.2387703" lon="151.364073">
  <ele>375.39</ele>
  <time>2026-09-01T20:01:53Z</time>
  <course>275.34</course>
  <speed>0.03</speed>
  <fix>3d</fix>
</trkpt>
<trkpt lat="-27.2387702" lon="151.364073">
  <ele>375.85</ele>
  <time>2026-09-01T20:01:53Z</time>
  <course>182.35</course>
  <speed>0.03</speed>
  <fix>3d</fix>
</trkpt>
<trkpt lat="-27.2387703" lon="151.364073">
  <ele>375.24</ele>
  <time>2026-09-01T20:01:53Z</time>
  <course>275.36</course>
  <speed>0.03</speed>
  <fix>3d</fix>
</trkpt>
<trkpt lat="-27.2387702" lon="151.364073">
  <ele>375.55</ele>
  <time>2026-09-01T20:01:53Z</time>
  <course>181.79</course>
  <speed>0.03</speed>
  <fix>3d</fix>
</trkpt>
<trkpt lat="-27.2387703" lon="151.364073">
  <ele>375.09</ele>
  <time>2026-09-01T20:01:53Z</time>
  <course>275.39</course>
  <speed>0.03</speed>
  <fix>3d</fix>
</trkpt>
<trkpt lat="-27.2387702" lon="151.364073">
  <ele>375.55</ele>
  <time>2026-09-01T20:01:53Z</time>
  <course>181.79</course>
  <speed>0.03</speed>
  <fix>3d</fix>
</trkpt>
<trkpt lat="-27.2387704" lon="151.364073">
  <ele>374.94</ele>
  <time>2026-09-01T20:01:53Z</time>
  <course>275.42</course>
  <speed>0.03</speed>
  <fix>3d</fix>
</trkpt>
<trkpt lat="-27.2387703" lon="151.364073">
  <ele>375.25</ele>
  <time>2026-09-01T20:01:53Z</time>
  <course>181.76</course>
  <speed>0.03</speed>
  <fix>3d</fix>
</trkpt>
<trkpt lat="-27.2387704" lon="151.364073">
  <ele>374.79</ele>
  <time>2026-09-01T20:01:53Z</time>
  <course>275.46</course>
  <speed>0.03</speed>
  <fix>3d</fix>
</trkpt>
<trkpt lat="-27.2387703" lon="151.364073">
  <ele>375.25</ele>
  <time>2026-09-01T20:01:53Z</time>
  <course>181.76</course>
  <speed>0.03</speed>
  <fix>3d</fix>
</trkpt>
<trkpt lat="-27.2387704" lon="151.364073">
  <ele>374.64</ele>
  <time>2026-09-01T20:01:53Z</time>
  <course>275.51</course>
  <speed>0.03</speed>
  <fix>3d</fix>
</trkpt>
<trkpt lat="-27.2387703" lon="151.364073">
  <ele>374.95</ele>
  <time>2026-09-01T20:01:53Z</time>
  <course>182.0</course>
  <speed>0.03</speed>
  <fix>3d</fix>
</trkpt>
<trkpt lat="-27.2387705" lon="151.364073">
  <ele>374.49</ele>
  <time>2026-09-01T20:01:53Z</time>
  <course>275.56</course>
  <speed>0.03</speed>
  <fix>3d</fix>
</trkpt>
<trkpt lat="-27.2387703" lon="151.364073">
  <ele>374.95</ele>
  <time>2026-09-01T20:01:53Z</time>
  <course>182.0</course>
  <speed>0.03</speed>
  <fix>3d</fix>
</trkpt>
<trkpt lat="-27.2387705" lon="151.364073">
  <ele>374.34</ele>
  <time>2026-09-01T20:01:53Z</time>
  <course>275.6</course>
  <speed>0.03</speed>
  <fix>3d</fix>
</trkpt>
<trkpt lat="-27.2387704" lon="151.364073">
  <ele>374.65</ele>
  <time>2026-09-01T20:01:53Z</time>
  <course>182.73</course>
  <speed>0.03</speed>
  <fix>3d</fix>
</trkpt>
<trkpt lat="-27.2387705" lon="151.364073">
  <ele>374.19</ele>
  <time>2026-09-01T20:01:53Z</time>
  <course>275.64</course>
  <speed>0.03</speed>
  <fix>3d</fix>
</trkpt>
<trkpt lat="-27.2387704" lon="151.364073">
  <ele>374.65</ele>
  <time>2026-09-01T20:01:53Z</time>
  <course>182.73</course>
  <speed>0.03</speed>
  <fix>3d</fix>
</trkpt>
<trkpt lat="-27.2387706" lon="151.364073">
  <ele>374.04</ele>
  <time>2026-09-01T20:01:53Z</time>
  <course>275.67</course>
  <speed>0.03</speed>
  <fix>3d</fix>
</trkpt>
<trkpt lat="-27.2387705" lon="151.364073">
  <ele>374.35</ele>
  <time>2026-09-01T20:01:53Z</time>
  <course>183.89</course>
  <speed>0.03</speed>
  <fix>3d</fix>
</trkpt>
<trkpt lat="-27.2387706" lon="151.364073">
  <ele>373.89</ele>
  <time>2026-09-01T20:01:53Z</time>
  <course>275.71</course>
  <speed>0.03</speed>
  <fix>3d</fix>
</trkpt>
<trkpt lat="-27.2387705" lon="151.364073">
  <ele>374.35</ele>
  <time>2026-09-01T20:01:53Z</time>
  <course>183.89</course>
  <speed>0.03</speed>
  <fix>3d</fix>
</trkpt>
<trkpt lat="-27.2387706" lon="151.364073">
  <ele>373.74</ele>
  <time>2026-09-01T20:01:53Z</time>
  <course>275.75</course>
  <speed>0.03</speed>
  <fix>3d</fix>
</trkpt>
<trkpt lat="-27.2387705" lon="151.364073">
  <ele>374.05</ele>
  <time>2026-09-01T20:01:53Z</time>
  <course>185.24</course>
  <speed>0.03</speed>
  <fix>3d</fix>
</trkpt>
<trkpt lat="-27.2387707" lon="151.364073">
  <ele>373.59</ele>
  <time>2026-09-01T20:01:53Z</time>
  <course>275.8</course>
  <speed>0.03</speed>
  <fix>3d</fix>
</trkpt>
<trkpt lat="-27.2387705" lon="151.364073">
  <ele>374.05</ele>
  <time>2026-09-01T20:01:53Z</time>
  <course>185.24</course>
  <speed>0.03</speed>
  <fix>3d</fix>
</trkpt>
<trkpt lat="-27.2387707" lon="151.364073">
  <ele>373.44</ele>
  <time>2026-09-01T20:01:53Z</time>
  <course>275.84</course>
  <speed>0.04</speed>
  <fix>3d</fix>
</trkpt>
<trkpt lat="-27.2387706" lon="151.364073">
  <ele>373.75</ele>
  <time>2026-09-01T20:01:53Z</time>
  <course>186.37</course>
  <speed>0.03</speed>
  <fix>3d</fix>
</trkpt>
<trkpt lat="-27.2387707" lon="151.364073">
  <ele>373.29</ele>
  <time>2026-09-01T20:01:53Z</time>
  <course>275.89</course>
  <speed>0.04</speed>
  <fix>3d</fix>
</trkpt>
<trkpt lat="-27.2387706" lon="151.364073">
  <ele>373.75</ele>
  <time>2026-09-01T20:01:53Z</time>
  <course>186.37</course>
  <speed>0.03</speed>
  <fix>3d</fix>
</trkpt>
<trkpt lat="-27.2387708" lon="151.364073">
  <ele>373.14</ele>
  <time>2026-09-01T20:01:53Z</time>
  <course>275.94</course>
  <speed>0.04</speed>
  <fix>3d</fix>
</trkpt>
<trkpt lat="-27.2387707" lon="151.364073">
  <ele>373.45</ele>
  <time>2026-09-01T20:01:53Z</time>
  <course>187.03</course>
  <speed>0.04</speed>
  <fix>3d</fix>
</trkpt>
<trkpt lat="-27.2387708" lon="151.364073">
  <ele>372.99</ele>
  <time>2026-09-01T20:01:53Z</time>
  <course>275.99</course>
  <speed>0.04</speed>
  <fix>3d</fix>
</trkpt>
<trkpt lat="-27.2387707" lon="151.364073">
  <ele>373.45</ele>
  <time>2026-09-01T20:01:53Z</time>
  <course>187.03</course>
  <speed>0.04</speed>
  <fix>3d</fix>
</trkpt>
<trkpt lat="-27.2387708" lon="151.364073">
  <ele>372.84</ele>
  <time>2026-09-01T20:01:53Z</time>
  <course>276.04</course>
  <speed>0.04</speed>
  <fix>3d</fix>
</trkpt>
<trkpt lat="-27.2387707" lon="151.364073">
  <ele>373.15</ele>
  <time>2026-09-01T20:01:53Z</time>
  <course>187.45</course>
  <speed>0.04</speed>
  <fix>3d</fix>
</trkpt>
<trkpt lat="-27.2387709" lon="151.364073">
  <ele>372.69</ele>
  <time>2026-09-01T20:01:53Z</time>
  <course>276.09</course>
  <speed>0.04</speed>
  <fix>3d</fix>
</trkpt>
<trkpt lat="-27.2387707" lon="151.364073">
  <ele>373.15</ele>
  <time>2026-09-01T20:01:53Z</time>
  <course>187.45</course>
  <speed>0.04</speed>
  <fix>3d</fix>
</trkpt>
<trkpt lat="-27.2387709" lon="151.364073">
  <ele>372.54</ele>
  <time>2026-09-01T20:01:53Z</time>
  <course>276.14</course>
  <speed>0.04</speed>
  <fix>3d</fix>
</trkpt>
<trkpt lat="-27.2387708" lon="151.364073">
  <ele>372.85</ele>
  <time>2026-09-01T20:01:53Z</time>
  <course>187.82</course>
  <speed>0.04</speed>
  <fix>3d</fix>
</trkpt>
<trkpt lat="-27.238771" lon="151.364073">
  <ele>372.39</ele>
  <time>2026-09-01T20:01:53Z</time>
  <course>276.19</course>
  <speed>0.04</speed>
  <fix>3d</fix>
</trkpt>
<trkpt lat="-27.2387708" lon="151.364073">
  <ele>372.85</ele>
  <time>2026-09-01T20:01:53Z</time>
  <course>187.82</course>
  <speed>0.04</speed>
  <fix>3d</fix>
</trkpt>
<trkpt lat="-27.238771" lon="151.364073">
  <ele>372.24</ele>
  <time>2026-09-01T20:01:53Z</time>
  <course>276.24</course>
  <speed>0.04</speed>
  <fix>3d</fix>
</trkpt>
<trkpt lat="-27.2387709" lon="151.364073">
  <ele>372.55</ele>
  <time>2026-09-01T20:01:53Z</time>
  <course>188.52</course>
  <speed>0.04</speed>
  <fix>3d</fix>
</trkpt>
<trkpt lat="-27.238771" lon="151.364073">
  <ele>372.09</ele>
  <time>2026-09-01T20:01:53Z</time>
  <course>276.29</course>
  <speed>0.04</speed>
  <fix>3d</fix>
</trkpt>
<trkpt lat="-27.2387709" lon="151.364073">
  <ele>372.55</ele>
  <time>2026-09-01T20:01:53Z</time>
  <course>188.52</course>
  <speed>0.04</speed>
  <fix>3d</fix>
</trkpt>
<trkpt lat="-27.2387711" lon="151.364073">
  <ele>371.94</ele>
  <time>2026-09-01T20:01:53Z</time>
  <course>276.34</course>
  <speed>0.04</speed>
  <fix>3d</fix>
</trkpt>
<trkpt lat="-27.238771" lon="151.364073">
  <ele>372.25</ele>
  <time>2026-09-01T20:01:54Z</time>
  <course>189.6</course>
  <speed>0.04</speed>
  <fix>3d</fix>
</trkpt>
<trkpt lat="-27.2387711" lon="151.364073">
  <ele>371.79</ele>
  <time>2026-09-01T20:01:54Z</time>
  <course>276.4</course>
  <speed>0.04</speed>
  <fix>3d</fix>
</trkpt>
<trkpt lat="-27.238771" lon="151.364073">
  <ele>372.25</ele>
  <time>2026-09-01T20:01:54Z</time>
  <course>189.6</course>
  <speed>0.04</speed>
  <fix>3d</fix>
</trkpt>
<trkpt lat="-27.2387712" lon="151.364073">
  <ele>371.64</ele>
  <time>2026-09-01T20:01:54Z</time>
  <course>276.46</course>
  <speed>0.05099019513592785</speed>
  <fix>3d</fix>
</trkpt>
<trkpt lat="-27.238771" lon="151.364073">
  <ele>371.95</ele>
  <time>2026-09-01T20:01:54Z</time>
  <course>190.56</course>
  <speed>0.04</speed>
  <fix>3d</fix>
</trkpt>
<trkpt lat="-27.2387712" lon="151.364073">
  <ele>371.49</ele>
  <time>2026-09-01T20:01:54Z</time>
  <course>276.51</course>
  <speed>0.05099019513592785</speed>
  <fix>3d</fix>
</trkpt>
<trkpt lat="-27.238771" lon="151.364073">
  <ele>371.95</ele>
  <time>2026-09-01T20:01:54Z</time>
  <course>190.56</course>
  <speed>0.04</speed>
  <fix>3d</fix>
</trkpt>
<trkpt lat="-27.2387713" lon="151.3640729">
  <ele>371.34</ele>
  <time>2026-09-01T20:01:54Z</time>
  <course>276.57</course>
  <speed>0.05099019513592785</speed>
  <fix>3d</fix>
</trkpt>
<trkpt lat="-27.2387711" lon="151.364073">
  <ele>371.65</ele>
  <time>2026-09-01T20:01:54Z</time>
  <course>191.45</course>
  <speed>0.05</speed>
  <fix>3d</fix>
</trkpt>
<trkpt lat="-27.2387713" lon="151.3640729">
  <ele>371.19</ele>
  <time>2026-09-01T20:01:54Z</time>
  <course>276.63</course>
  <speed>0.05099019513592785</speed>
  <fix>3d</fix>
</trkpt>
<trkpt lat="-27.2387711" lon="151.364073">
  <ele>371.65</ele>
  <time>2026-09-01T20:01:54Z</time>
  <course>191.45</course>
  <speed>0.05</speed>
  <fix>3d</fix>
</trkpt>
<trkpt lat="-27.2387714" lon="151.3640729">
  <ele>371.04</ele>
  <time>2026-09-01T20:01:54Z</time>
  <course>276.69</course>
  <speed>0.05099019513592785</speed>
  <fix>3d</fix>
</trkpt>
<trkpt lat="-27.2387712" lon="151.3640729">
  <ele>371.35</ele>
  <time>2026-09-01T20:01:54Z</time>
  <course>192.51</course>
  <speed>0.05</speed>
  <fix>3d</fix>
</trkpt>
<trkpt lat="-27.2387714" lon="151.3640729">
  <ele>370.89</ele>
  <time>2026-09-01T20:01:54Z</time>
  <course>276.75</course>
  <speed>0.05099019513592785</speed>
  <fix>3d</fix>
</trkpt>
<trkpt lat="-27.2387712" lon="151.3640729">
  <ele>371.35</ele>
  <time>2026-09-01T20:01:54Z</time>
  <course>192.51</course>
  <speed>0.05</speed>
  <fix>3d</fix>
</trkpt>
<trkpt lat="-27.2387715" lon="151.3640729">
  <ele>370.74</ele>
  <time>2026-09-01T20:01:54Z</time>
  <course>276.81</course>
  <speed>0.05099019513592785</speed>
  <fix>3d</fix>
</trkpt>
<trkpt lat="-27.2387713" lon="151.3640729">
  <ele>371.05</ele>
  <time>2026-09-01T20:01:54Z</time>
  <course>193.3</course>
  <speed>0.05</speed>
  <fix>3d</fix>
</trkpt>
<trkpt lat="-27.2387715" lon="151.3640729">
  <ele>370.59</ele>
  <time>2026-09-01T20:01:54Z</time>
  <course>276.78</course>
  <speed>0.0412310562561766</speed>
  <fix>3d</fix>
</trkpt>
<trkpt lat="-27.2387713" lon="151.3640729">
  <ele>371.05</ele>
  <time>2026-09-01T20:01:54Z</time>
  <course>193.3</course>
  <speed>0.05</speed>
  <fix>3d</fix>
</trkpt>
<trkpt lat="-27.2387715" lon="151.3640729">
  <ele>370.44</ele>
  <time>2026-09-01T20:01:54Z</time>
  <course>276.54</course>
  <speed>0.022360679774997897</speed>
  <fix>3d</fix>
</trkpt>
<trkpt lat="-27.2387714" lon="151.3640729">
  <ele>370.75</ele>
  <time>2026-09-01T20:01:54Z</time>
  <course>194.59</course>
  <speed>0.05</speed>
  <fix>3d</fix>
</trkpt>
<trkpt lat="-27.2387715" lon="151.3640729">
  <ele>370.29</ele>
  <time>2026-09-01T20:01:54Z</time>
  <course>276.13</course>
  <speed>0.0</speed>
  <fix>3d</fix>
</trkpt>
<trkpt lat="-27.2387714" lon="151.3640729">
  <ele>370.75</ele>
  <time>2026-09-01T20:01:54Z</time>
  <course>194.59</course>
  <speed>0.05</speed>
  <fix>3d</fix>
</trkpt>
<trkpt lat="-27.2387715" lon="151.3640729">
  <ele>370.14</ele>
  <time>2026-09-01T20:01:54Z</time>
  <course>275.66</course>
  <speed>0.0</speed>
  <fix>3d</fix>
</trkpt>
<trkpt lat="-27.2387715" lon="151.3640729">
  <ele>370.45</ele>
  <time>2026-09-01T20:01:54Z</time>
  <course>201.99</course>
  <speed>0.02</speed>
  <fix>3d</fix>
</trkpt>
<trkpt lat="-27.2387715" lon="151.3640728">
  <ele>369.99</ele>
  <time>2026-09-01T20:01:54Z</time>
  <course>275.21</course>
  <speed>0.02</speed>
  <fix>3d</fix>
</trkpt>
<trkpt lat="-27.2387715" lon="151.3640729">
  <ele>370.45</ele>
  <time>2026-09-01T20:01:54Z</time>
  <course>201.99</course>
  <speed>0.02</speed>
  <fix>3d</fix>
</trkpt>
<trkpt lat="-27.2387715" lon="151.3640728">
  <ele>369.84</ele>
  <time>2026-09-01T20:01:54Z</time>
  <course>274.85</course>
  <speed>0.04</speed>
  <fix>3d</fix>
</trkpt>
<trkpt lat="-27.2387715" lon="151.3640728">
  <ele>370.15</ele>
  <time>2026-09-01T20:01:54Z</time>
  <course>319.91</course>
  <speed>0.01</speed>
  <fix>3d</fix>
</trkpt>
<trkpt lat="-27.2387715" lon="151.3640728">
  <ele>369.69</ele>
  <time>2026-09-01T20:01:54Z</time>
  <course>274.62</course>
  <speed>0.05</speed>
  <fix>3d</fix>
</trkpt>
<trkpt lat="-27.2387715" lon="151.3640728">
  <ele>370.15</ele>
  <time>2026-09-01T20:01:54Z</time>
  <course>319.91</course>
  <speed>0.01</speed>
  <fix>3d</fix>
</trkpt>
<trkpt lat="-27.2387714" lon="151.3640728">
  <ele>369.54</ele>
  <time>2026-09-01T20:01:54Z</time>
  <course>274.52</course>
  <speed>0.06</speed>
  <fix>3d</fix>
</trkpt>
<trkpt lat="-27.2387715" lon="151.3640728">
  <ele>369.85</ele>
  <time>2026-09-01T20:01:54Z</time>
  <course>357.19</course>
  <speed>0.03</speed>
  <fix>3d</fix>
</trkpt>
<trkpt lat="-27.2387714" lon="151.3640729">
  <ele>369.39</ele>
  <time>2026-09-01T20:01:54Z</time>
  <course>274.52</course>
  <speed>0.07</speed>
  <fix>3d</fix>
</trkpt>
<trkpt lat="-27.2387715" lon="151.3640728">
  <ele>369.85</ele>
  <time>2026-09-01T20:01:54Z</time>
  <course>357.19</course>
  <speed>0.03</speed>
  <fix>3d</fix>
</trkpt>
<trkpt lat="-27.2387714" lon="151.3640729">
  <ele>369.24</ele>
  <time>2026-09-01T20:01:54Z</time>
  <course>274.61</course>
  <speed>0.09</speed>
  <fix>3d</fix>
</trkpt>
<trkpt lat="-27.2387714" lon="151.3640728">
  <ele>369.55</ele>
  <time>2026-09-01T20:01:54Z</time>
  <course>2.96</course>
  <speed>0.06</speed>
  <fix>3d</fix>
</trkpt>
<trkpt lat="-27.2387713" lon="151.3640729">
  <ele>369.09</ele>
  <time>2026-09-01T20:01:54Z</time>
  <course>274.73</course>
  <speed>0.1004987562112089</speed>
  <fix>3d</fix>
</trkpt>
<trkpt lat="-27.2387714" lon="151.3640728">
  <ele>369.55</ele>
  <time>2026-09-01T20:01:54Z</time>
  <course>2.96</course>
  <speed>0.06</speed>
  <fix>3d</fix>
</trkpt>
<trkpt lat="-27.2387712" lon="151.3640729">
  <ele>368.94</ele>
  <time>2026-09-01T20:01:54Z</time>
  <course>274.87</course>
  <speed>0.1004987562112089</speed>
  <fix>3d</fix>
</trkpt>
<trkpt lat="-27.2387713" lon="151.3640729">
  <ele>369.25</ele>
  <time>2026-09-01T20:01:54Z</time>
  <course>5.53</course>
  <speed>0.08</speed>
  <fix>3d</fix>
</trkpt>
<trkpt lat="-27.2387711" lon="151.3640729">
  <ele>368.79</ele>
  <time>2026-09-01T20:01:54Z</time>
  <course>274.99</course>
  <speed>0.11045361017187261</speed>
  <fix>3d</fix>
</trkpt>
<trkpt lat="-27.2387713" lon="151.3640729">
  <ele>369.25</ele>
  <time>2026-09-01T20:01:54Z</time>
  <course>5.53</course>
  <speed>0.08</speed>
  <fix>3d</fix>
</trkpt>
<trkpt lat="-27.238771" lon="151.3640729">
  <ele>368.64</ele>
  <time>2026-09-01T20:01:54Z</time>
  <course>275.09</course>
  <speed>0.12041594578792296</speed>
  <fix>3d</fix>
</trkpt>
<trkpt lat="-27.2387712" lon="151.3640729">
  <ele>368.95</ele>
  <time>2026-09-01T20:01:54Z</time>
  <course>6.72</course>
  <speed>0.1</speed>
  <fix>3d</fix>
</trkpt>
<trkpt lat="-27.2387709" lon="151.3640729">
  <ele>368.49</ele>
  <time>2026-09-01T20:01:54Z</time>
  <course>275.15</course>
  <speed>0.130384048104053</speed>
  <fix>3d</fix>
</trkpt>
<trkpt lat="-27.2387712" lon="151.3640729">
  <ele>368.95</ele>
  <time>2026-09-01T20:01:54Z</time>
  <course>6.72</course>
  <speed>0.1</speed>
  <fix>3d</fix>
</trkpt>
<trkpt lat="-27.2387707" lon="151.3640729">
  <ele>368.34</ele>
  <time>2026-09-01T20:01:54Z</time>
  <course>275.18</course>
  <speed>0.130384048104053</speed>
  <fix>3d</fix>
</trkpt>
<trkpt lat="-27.238771" lon="151.3640729">
  <ele>368.65</ele>
  <time>2026-09-01T20:01:54Z</time>
  <course>7.3</course>
  <speed>0.12</speed>
  <fix>3d</fix>
</trkpt>
<trkpt lat="-27.2387706" lon="151.3640729">
  <ele>368.19</ele>
  <time>2026-09-01T20:01:54Z</time>
  <course>275.18</course>
  <speed>0.140356688476182</speed>
  <fix>3d</fix>
</trkpt>
<trkpt lat="-27.238771" lon="151.3640729">
  <ele>368.65</ele>
  <time>2026-09-01T20:01:54Z</time>
  <course>7.3</course>
  <speed>0.12</speed>
  <fix>3d</fix>
</trkpt>
<trkpt lat="-27.2387705" lon="151.3640729">
  <ele>368.04</ele>
  <time>2026-09-01T20:01:54Z</time>
  <course>275.16</course>
  <speed>0.1414213562373095</speed>
  <fix>3d</fix>
</trkpt>
<trkpt lat="-27.2387707" lon="151.3640729">
  <ele>368.35</ele>
  <time>2026-09-01T20:01:54Z</time>
  <course>7.66</course>
  <speed>0.13</speed>
  <fix>3d</fix>
</trkpt>
<trkpt lat="-27.2387704" lon="151.3640729">
  <ele>367.89</ele>
  <time>2026-09-01T20:01:54Z</time>
  <course>275.13</course>
  <speed>0.1414213562373095</speed>
  <fix>3d</fix>
</trkpt>
<trkpt lat="-27.2387707" lon="151.3640729">
  <ele>368.35</ele>
  <time>2026-09-01T20:01:54Z</time>
  <course>7.66</course>
  <speed>0.13</speed>
  <fix>3d</fix>
</trkpt>
<trkpt lat="-27.2387702" lon="151.3640729">
  <ele>367.74</ele>
  <time>2026-09-01T20:01:54Z</time>
  <course>275.1</course>
  <speed>0.1414213562373095</speed>
  <fix>3d</fix>
</trkpt>
<trkpt lat="-27.2387705" lon="151.3640729">
  <ele>368.05</ele>
  <time>2026-09-01T20:01:54Z</time>
  <course>7.96</course>
  <speed>0.14</speed>
  <fix>3d</fix>
</trkpt>
<trkpt lat="-27.2387701" lon="151.3640729">
  <ele>367.59</ele>
  <time>2026-09-01T20:01:54Z</time>
  <course>275.08</course>
  <speed>0.1414213562373095</speed>
  <fix>3d</fix>
</trkpt>
<trkpt lat="-27.2387705" lon="151.3640729">
  <ele>368.05</ele>
  <time>2026-09-01T20:01:54Z</time>
  <course>7.96</course>
  <speed>0.14</speed>
  <fix>3d</fix>
</trkpt>
<trkpt lat="-27.23877" lon="151.364073">
  <ele>367.44</ele>
  <time>2026-09-01T20:01:54Z</time>
  <course>275.06</course>
  <speed>0.1414213562373095</speed>
  <fix>3d</fix>
</trkpt>
<trkpt lat="-27.2387702" lon="151.3640729">
  <ele>367.75</ele>
  <time>2026-09-01T20:01:54Z</time>
  <course>8.39</course>
  <speed>0.14</speed>
  <fix>3d</fix>
</trkpt>
<trkpt lat="-27.2387698" lon="151.364073">
  <ele>367.29</ele>
  <time>2026-09-01T20:01:54Z</time>
  <course>275.05</course>
  <speed>0.1414213562373095</speed>
  <fix>3d</fix>
</trkpt>
<trkpt lat="-27.2387702" lon="151.3640729">
  <ele>367.75</ele>
  <time>2026-09-01T20:01:54Z</time>
  <course>8.39</course>
  <speed>0.14</speed>
  <fix>3d</fix>
</trkpt>
<trkpt lat="-27.2387697" lon="151.364073">
  <ele>367.14</ele>
  <time>2026-09-01T20:01:54Z</time>
  <course>275.05</course>
  <speed>0.1414213562373095</speed>
  <fix>3d</fix>
</trkpt>
<trkpt lat="-27.2387699" lon="151.3640729">
  <ele>367.44</ele>
  <time>2026-09-01T20:01:54Z</time>
  <course>8.88</course>
  <speed>0.14</speed>
  <fix>3d</fix>
</trkpt>
<trkpt lat="-27.2387696" lon="151.364073">
  <ele>366.99</ele>
  <time>2026-09-01T20:01:54Z</time>
  <course>275.06</course>
  <speed>0.13152946437965907</speed>
  <fix>3d</fix>
</trkpt>
<trkpt lat="-27.2387699" lon="151.3640729">
  <ele>367.44</ele>
  <time>2026-09-01T20:01:54Z</time>
  <course>8.88</course>
  <speed>0.14</speed>
  <fix>3d</fix>
</trkpt>
<trkpt lat="-27.2387695" lon="151.364073">
  <ele>366.84</ele>
  <time>2026-09-01T20:01:54Z</time>
  <course>275.07</course>
  <speed>0.13152946437965907</speed>
  <fix>3d</fix>
</trkpt>
<trkpt lat="-27.2387697" lon="151.364073">
  <ele>367.14</ele>
  <time>2026-09-01T20:01:54Z</time>
  <course>9.2</course>
  <speed>0.14</speed>
  <fix>3d</fix>
</trkpt>
<trkpt lat="-27.2387693" lon="151.364073">
  <ele>366.69</ele>
  <time>2026-09-01T20:01:54Z</time>
  <course>275.07</course>
  <speed>0.12165525060596438</speed>
  <fix>3d</fix>
</trkpt>
<trkpt lat="-27.2387697" lon="151.364073">
  <ele>367.14</ele>
  <time>2026-09-01T20:01:54Z</time>
  <course>9.2</course>
  <speed>0.14</speed>
  <fix>3d</fix>
</trkpt>
<trkpt lat="-27.2387692" lon="151.364073">
  <ele>366.54</ele>
  <time>2026-09-01T20:01:54Z</time>
  <course>275.07</course>
  <speed>0.12165525060596438</speed>
  <fix>3d</fix>
</trkpt>
<trkpt lat="-27.2387694" lon="151.364073">
  <ele>366.85</ele>
  <time>2026-09-01T20:01:54Z</time>
  <course>9.41</course>
  <speed>0.13</speed>
  <fix>3d</fix>
</trkpt>
<trkpt lat="-27.2387691" lon="151.364073">
  <ele>366.39</ele>
  <time>2026-09-01T20:01:54Z</time>
  <course>275.08</course>
  <speed>0.1118033988749895</speed>
  <fix>3d</fix>
</trkpt>
<trkpt lat="-27.2387694" lon="151.364073">
  <ele>366.85</ele>
  <time>2026-09-01T20:01:54Z</time>
  <course>9.41</course>
  <speed>0.13</speed>
  <fix>3d</fix>
</trkpt>
<trkpt lat="-27.238769" lon="151.3640732">
  <ele>366.24</ele>
  <time>2026-09-01T20:01:54Z</time>
  <course>275.08</course>
  <speed>0.1118033988749895</speed>
  <fix>3d</fix>
</trkpt>
<trkpt lat="-27.2387692" lon="151.364073">
  <ele>366.55</ele>
  <time>2026-09-01T20:01:54Z</time>
  <course>9.84</course>
  <speed>0.12</speed>
  <fix>3d</fix>
</trkpt>
<trkpt lat="-27.2387689" lon="151.3640732">
  <ele>366.09</ele>
  <time>2026-09-01T20:01:54Z</time>
  <course>275.09</course>
  <speed>0.1019803902718557</speed>
  <fix>3d</fix>
</trkpt>
<trkpt lat="-27.2387692" lon="151.364073">
  <ele>366.55</ele>
  <time>2026-09-01T20:01:54Z</time>
  <course>9.84</course>
  <speed>0.12</speed>
  <fix>3d</fix>
</trkpt>
<trkpt lat="-27.2387688" lon="151.3640732">
  <ele>365.94</ele>
  <time>2026-09-01T20:01:54Z</time>
  <course>275.11</course>
  <speed>0.09055385138137417</speed>
  <fix>3d</fix>
</trkpt>
<trkpt lat="-27.238769" lon="151.3640731">
  <ele>366.25</ele>
  <time>2026-09-01T20:01:54Z</time>
  <course>10.68</course>
  <speed>0.11</speed>
  <fix>3d</fix>
</trkpt>
<trkpt lat="-27.2387687" lon="151.3640732">
  <ele>365.79</ele>
  <time>2026-09-01T20:01:54Z</time>
  <course>275.13</course>
  <speed>0.08062257748298549</speed>
  <fix>3d</fix>
</trkpt>
<trkpt lat="-27.238769" lon="151.3640731">
  <ele>366.25</ele>
  <time>2026-09-01T20:01:54Z</time>
  <course>10.68</course>
  <speed>0.11</speed>
  <fix>3d</fix>
</trkpt>
<trkpt lat="-27.2387687" lon="151.3640732">
  <ele>365.64</ele>
  <time>2026-09-01T20:01:54Z</time>
  <course>275.14</course>
  <speed>0.07071067811865475</speed>
  <fix>3d</fix>
</trkpt>
<trkpt lat="-27.2387688" lon="151.3640732">
  <ele>365.95</ele>
  <time>2026-09-01T20:01:54Z</time>
  <course>11.73</course>
  <speed>0.09</speed>
  <fix>3d</fix>
</trkpt>
<trkpt lat="-27.2387686" lon="151.3640732">
  <ele>365.49</ele>
  <time>2026-09-01T20:01:54Z</time>
  <course>275.16</course>
  <speed>0.06082762530298219</speed>
  <fix>3d</fix>
</trkpt>
<trkpt lat="-27.2387688" lon="151.3640732">
  <ele>365.95</ele>
  <time>2026-09-01T20:01:54Z</time>
  <course>11.73</course>
  <speed>0.09</speed>
  <fix>3d</fix>
</trkpt>
<trkpt lat="-27.2387686" lon="151.3640733">
  <ele>365.34</ele>
  <time>2026-09-01T20:01:54Z</time>
  <course>275.18</course>
  <speed>0.05099019513592785</speed>
  <fix>3d</fix>
</trkpt>
<trkpt lat="-27.2387686" lon="151.3640732">
  <ele>365.65</ele>
  <time>2026-09-01T20:01:54Z</time>
  <course>12.8</course>
  <speed>0.07</speed>
  <fix>3d</fix>
</trkpt>
<trkpt lat="-27.2387685" lon="151.3640733">
  <ele>365.19</ele>
  <time>2026-09-01T20:01:54Z</time>
  <course>275.2</course>
  <speed>0.0412310562561766</speed>
  <fix>3d</fix>
</trkpt>
<trkpt lat="-27.2387686" lon="151.3640732">
  <ele>365.65</ele>
  <time>2026-09-01T20:01:54Z</time>
  <course>12.8</course>
  <speed>0.07</speed>
  <fix>3d</fix>
</trkpt>
<trkpt lat="-27.2387685" lon="151.3640733">
  <ele>365.04</ele>
  <time>2026-09-01T20:01:54Z</time>
  <course>275.23</course>
  <speed>0.0316227766016838</speed>
  <fix>3d</fix>
</trkpt>
<trkpt lat="-27.2387685" lon="151.3640732">
  <ele>365.35</ele>
  <time>2026-09-01T20:01:54Z</time>
  <course>14.65</course>
  <speed>0.06</speed>
  <fix>3d</fix>
</trkpt>
<trkpt lat="-27.2387684" lon="151.3640733">
  <ele>364.89</ele>
  <time>2026-09-01T20:01:54Z</time>
  <course>275.27</course>
  <speed>0.022360679774997897</speed>
  <fix>3d</fix>
</trkpt>
<trkpt lat="-27.2387685" lon="151.3640732">
  <ele>365.35</ele>
  <time>2026-09-01T20:01:54Z</time>
  <course>14.65</course>
  <speed>0.06</speed>
  <fix>3d</fix>
</trkpt>
<trkpt lat="-27.2387684" lon="151.3640733">
  <ele>364.74</ele>
  <time>2026-09-01T20:01:54Z</time>
  <course>275.32</course>
  <speed>0.01414213562373095</speed>
  <fix>3d</fix>
</trkpt>
<trkpt lat="-27.2387684" lon="151.3640733">
  <ele>365.05</ele>
  <time>2026-09-01T20:01:54Z</time>
  <course>19.12</course>
  <speed>0.04</speed>
  <fix>3d</fix>
</trkpt>
<trkpt lat="-27.2387684" lon="151.3640733">
  <ele>364.59</ele>
  <time>2026-09-01T20:01:54Z</time>
  <course>275.4</course>
  <speed>0.0</speed>
  <fix>3d</fix>
</trkpt>
<trkpt lat="-27.2387684" lon="151.3640733">
  <ele>365.05</ele>
  <time>2026-09-01T20:01:54Z</time>
  <course>19.12</course>
  <speed>0.04</speed>
  <fix>3d</fix>
</trkpt>
<trkpt lat="-27.2387684" lon="151.3640733">
  <ele>364.44</ele>
  <time>2026-09-01T20:01:54Z</time>
  <course>275.52</course>
  <speed>0.01</speed>
  <fix>3d</fix>
</trkpt>
<trkpt lat="-27.2387684" lon="151.3640733">
  <ele>364.75</ele>
  <time>2026-09-01T20:01:54Z</time>
  <course>37.11</course>
  <speed>0.01</speed>
  <fix>3d</fix>
</trkpt>
<trkpt lat="-27.2387684" lon="151.3640733">
  <ele>364.29</ele>
  <time>2026-09-01T20:01:54Z</time>
  <course>275.67</course>
  <speed>0.02</speed>
  <fix>3d</fix>
</trkpt>
<trkpt lat="-27.2387684" lon="151.3640733">
  <ele>364.75</ele>
  <time>2026-09-01T20:01:54Z</time>
  <course>37.11</course>
  <speed>0.01</speed>
  <fix>3d</fix>
</trkpt>
<trkpt lat="-27.2387684" lon="151.3640733">
  <ele>364.14</ele>
  <time>2026-09-01T20:01:54Z</time>
  <course>275.62</course>
  <speed>0.02</speed>
  <fix>3d</fix>
</trkpt>
<trkpt lat="-27.2387684" lon="151.3640733">
  <ele>364.44</ele>
  <time>2026-09-01T20:01:54Z</time>
  <course>146.94</course>
  <speed>0.01</speed>
  <fix>3d</fix>
</trkpt>
<trkpt lat="-27.2387684" lon="151.3640734">
  <ele>363.99</ele>
  <time>2026-09-01T20:01:54Z</time>
  <course>275.42</course>
  <speed>0.02</speed>
  <fix>3d</fix>
</trkpt>
<trkpt lat="-27.2387684" lon="151.3640733">
  <ele>364.44</ele>
  <time>2026-09-01T20:01:54Z</time>
  <course>146.94</course>
  <speed>0.01</speed>
  <fix>3d</fix>
</trkpt>
<trkpt lat="-27.2387684" lon="151.3640734">
  <ele>363.84</ele>
  <time>2026-09-01T20:01:54Z</time>
  <course>275.13</course>
  <speed>0.02</speed>
  <fix>3d</fix>
</trkpt>
<trkpt lat="-27.2387684" lon="151.3640733">
  <ele>364.14</ele>
  <time>2026-09-01T20:01:54Z</time>
  <course>167.58</course>
  <speed>0.02</speed>
  <fix>3d</fix>
</trkpt>
<trkpt lat="-27.2387684" lon="151.3640734">
  <ele>363.69</ele>
  <time>2026-09-01T20:01:54Z</time>
  <course>274.81</course>
  <speed>0.02</speed>
  <fix>3d</fix>
</trkpt>
<trkpt lat="-27.2387684" lon="151.3640733">
  <ele>364.14</ele>
  <time>2026-09-01T20:01:54Z</time>
  <course>167.58</course>
  <speed>0.02</speed>
  <fix>3d</fix>
</trkpt>
<trkpt lat="-27.2387685" lon="151.3640734">
  <ele>363.54</ele>
  <time>2026-09-01T20:01:54Z</time>
  <course>274.51</course>
  <speed>0.02</speed>
  <fix>3d</fix>
</trkpt>
<trkpt lat="-27.2387684" lon="151.3640734">
  <ele>363.84</ele>
  <time>2026-09-01T20:01:54Z</time>
  <course>169.49</course>
  <speed>0.02</speed>
  <fix>3d</fix>
</trkpt>
<trkpt lat="-27.2387685" lon="151.3640734">
  <ele>363.39</ele>
  <time>2026-09-01T20:01:54Z</time>
  <course>274.28</course>
  <speed>0.02</speed>
  <fix>3d</fix>
</trkpt>
<trkpt lat="-27.2387684" lon="151.3640734">
  <ele>363.84</ele>
  <time>2026-09-01T20:01:54Z</time>
  <course>169.49</course>
  <speed>0.02</speed>
  <fix>3d</fix>
</trkpt>
<trkpt lat="-27.2387685" lon="151.3640734">
  <ele>363.24</ele>
  <time>2026-09-01T20:01:54Z</time>
  <course>274.12</course>
  <speed>0.02</speed>
  <fix>3d</fix>
</trkpt>
<trkpt lat="-27.2387684" lon="151.3640734">
  <ele>363.55</ele>
  <time>2026-09-01T20:01:54Z</time>
  <course>170.81</course>
  <speed>0.02</speed>
  <fix>3d</fix>
</trkpt>
<trkpt lat="-27.2387685" lon="151.3640734">
  <ele>363.09</ele>
  <time>2026-09-01T20:01:54Z</time>
  <course>274.04</course>
  <speed>0.02</speed>
  <fix>3d</fix>
</trkpt>
<trkpt lat="-27.2387684" lon="151.3640734">
  <ele>363.55</ele>
  <time>2026-09-01T20:01:54Z</time>
  <course>170.81</course>
  <speed>0.02</speed>
  <fix>3d</fix>
</trkpt>
<trkpt lat="-27.2387685" lon="151.3640734">
  <ele>362.94</ele>
  <time>2026-09-01T20:01:54Z</time>
  <course>274.03</course>
  <speed>0.02</speed>
  <fix>3d</fix>
</trkpt>
<trkpt lat="-27.2387685" lon="151.3640734">
  <ele>363.25</ele>
  <time>2026-09-01T20:01:54Z</time>
  <course>171.96</course>
  <speed>0.02</speed>
  <fix>3d</fix>
</trkpt>
<trkpt lat="-27.2387686" lon="151.3640734">
  <ele>362.79</ele>
  <time>2026-09-01T20:01:54Z</time>
  <course>274.05</course>
  <speed>0.02</speed>
  <fix>3d</fix>
</trkpt>
<trkpt lat="-27.2387685" lon="151.3640734">
  <ele>363.25</ele>
  <time>2026-09-01T20:01:54Z</time>
  <course>171.96</course>
  <speed>0.02</speed>
  <fix>3d</fix>
</trkpt>
<trkpt lat="-27.2387686" lon="151.3640734">
  <ele>362.64</ele>
  <time>2026-09-01T20:01:54Z</time>
  <course>274.1</course>
  <speed>0.02</speed>
  <fix>3d</fix>
</trkpt>
<trkpt lat="-27.2387685" lon="151.3640734">
  <ele>362.95</ele>
  <time>2026-09-01T20:01:54Z</time>
  <course>172.3</course>
  <speed>0.02</speed>
  <fix>3d</fix>
</trkpt>
<trkpt lat="-27.2387686" lon="151.3640734">
  <ele>362.49</ele>
  <time>2026-09-01T20:01:54Z</time>
  <course>274.16</course>
  <speed>0.02</speed>
  <fix>3d</fix>
</trkpt>
<trkpt lat="-27.2387685" lon="151.3640734">
  <ele>362.95</ele>
  <time>2026-09-01T20:01:54Z</time>
  <course>172.3</course>
  <speed>0.02</speed>
  <fix>3d</fix>
</trkpt>
<trkpt lat="-27.2387686" lon="151.3640734">
  <ele>362.34</ele>
  <time>2026-09-01T20:01:54Z</time>
  <course>274.22</course>
  <speed>0.02</speed>
  <fix>3d</fix>
</trkpt>
<trkpt lat="-27.2387686" lon="151.3640734">
  <ele>362.65</ele>
  <time>2026-09-01T20:01:54Z</time>
  <course>172.21</course>
  <speed>0.02</speed>
  <fix>3d</fix>
</trkpt>
<trkpt lat="-27.2387686" lon="151.3640734">
  <ele>362.19</ele>
  <time>2026-09-01T20:01:54Z</time>
  <course>274.27</course>
  <speed>0.02</speed>
  <fix>3d</fix>
</trkpt>
<trkpt lat="-27.2387686" lon="151.3640734">
  <ele>362.65</ele>
  <time>2026-09-01T20:01:54Z</time>
  <course>172.21</course>
  <speed>0.02</speed>
  <fix>3d</fix>
</trkpt>
<trkpt lat="-27.2387687" lon="151.3640734">
  <ele>362.04</ele>
  <time>2026-09-01T20:01:54Z</time>
  <course>274.29</course>
  <speed>0.02</speed>
  <fix>3d</fix>
</trkpt>
<trkpt lat="-27.2387686" lon="151.3640734">
  <ele>362.35</ele>
  <time>2026-09-01T20:01:54Z</time>
  <course>172.18</course>
  <speed>0.02</speed>
  <fix>3d</fix>
</trkpt>
<trkpt lat="-27.2387687" lon="151.3640734">
  <ele>361.89</ele>
  <time>2026-09-01T20:01:54Z</time>
  <course>274.3</course>
  <speed>0.02</speed>
  <fix>3d</fix>
</trkpt>
<trkpt lat="-27.2387686" lon="151.3640734">
  <ele>362.35</ele>
  <time>2026-09-01T20:01:54Z</time>
  <course>172.18</course>
  <speed>0.02</speed>
  <fix>3d</fix>
</trkpt>
<trkpt lat="-27.2387687" lon="151.3640734">
  <ele>361.74</ele>
  <time>2026-09-01T20:01:54Z</time>
  <course>274.29</course>
  <speed>0.02</speed>
  <fix>3d</fix>
</trkpt>
<trkpt lat="-27.2387686" lon="151.3640734">
  <ele>362.05</ele>
  <time>2026-09-01T20:01:54Z</time>
  <course>172.62</course>
  <speed>0.02</speed>
  <fix>3d</fix>
</trkpt>
<trkpt lat="-27.2387687" lon="151.3640734">
  <ele>361.59</ele>
  <time>2026-09-01T20:01:54Z</time>
  <course>274.3</course>
  <speed>0.02</speed>
  <fix>3d</fix>
</trkpt>
<trkpt lat="-27.2387686" lon="151.3640734">
  <ele>362.05</ele>
  <time>2026-09-01T20:01:54Z</time>
  <course>172.62</course>
  <speed>0.02</speed>
  <fix>3d</fix>
</trkpt>
<trkpt lat="-27.2387687" lon="151.3640734">
  <ele>361.44</ele>
  <time>2026-09-01T20:01:54Z</time>
  <course>274.31</course>
  <speed>0.02</speed>
  <fix>3d</fix>
</trkpt>
<trkpt lat="-27.2387687" lon="151.3640734">
  <ele>361.75</ele>
  <time>2026-09-01T20:01:54Z</time>
  <course>174.14</course>
  <speed>0.02</speed>
  <fix>3d</fix>
</trkpt>
<trkpt lat="-27.2387687" lon="151.3640734">
  <ele>361.29</ele>
  <time>2026-09-01T20:01:54Z</time>
  <course>274.31</course>
  <speed>0.02</speed>
  <fix>3d</fix>
</trkpt>
<trkpt lat="-27.2387687" lon="151.3640734">
  <ele>361.75</ele>
  <time>2026-09-01T20:01:54Z</time>
  <course>174.14</course>
  <speed>0.02</speed>
  <fix>3d</fix>
</trkpt>
<trkpt lat="-27.2387688" lon="151.3640734">
  <ele>361.14</ele>
  <time>2026-09-01T20:01:54Z</time>
  <course>274.31</course>
  <speed>0.02</speed>
  <fix>3d</fix>
</trkpt>
<trkpt lat="-27.2387687" lon="151.3640734">
  <ele>361.45</ele>
  <time>2026-09-01T20:01:54Z</time>
  <course>176.09</course>
  <speed>0.02</speed>
  <fix>3d</fix>
</trkpt>
<trkpt lat="-27.2387688" lon="151.3640734">
  <ele>360.99</ele>
  <time>2026-09-01T20:01:54Z</time>
  <course>274.31</course>
  <speed>0.02</speed>
  <fix>3d</fix>
</trkpt>
<trkpt lat="-27.2387687" lon="151.3640734">
  <ele>361.45</ele>
  <time>2026-09-01T20:01:54Z</time>
  <course>176.09</course>
  <speed>0.02</speed>
  <fix>3d</fix>
</trkpt>
<trkpt lat="-27.2387688" lon="151.3640734">
  <ele>360.84</ele>
  <time>2026-09-01T20:01:54Z</time>
  <course>274.31</course>
  <speed>0.02</speed>
  <fix>3d</fix>
</trkpt>
<trkpt lat="-27.2387687" lon="151.3640734">
  <ele>361.15</ele>
  <time>2026-09-01T20:01:54Z</time>
  <course>178.03</course>
  <speed>0.02</speed>
  <fix>3d</fix>
</trkpt>
<trkpt lat="-27.2387688" lon="151.3640734">
  <ele>360.69</ele>
  <time>2026-09-01T20:01:54Z</time>
  <course>274.31</course>
  <speed>0.01</speed>
  <fix>3d</fix>
</trkpt>
<trkpt lat="-27.2387687" lon="151.3640734">
  <ele>361.15</ele>
  <time>2026-09-01T20:01:54Z</time>
  <course>178.03</course>
  <speed>0.02</speed>
  <fix>3d</fix>
</trkpt>
<trkpt lat="-27.2387688" lon="151.3640734">
  <ele>360.54</ele>
  <time>2026-09-01T20:01:54Z</time>
  <course>274.29</course>
  <speed>0.01</speed>
  <fix>3d</fix>
</trkpt>
<trkpt lat="-27.2387688" lon="151.3640734">
  <ele>360.85</ele>
  <time>2026-09-01T20:01:54Z</time>
  <course>179.28</course>
  <speed>0.02</speed>
  <fix>3d</fix>
</trkpt>
<trkpt lat="-27.2387689" lon="151.3640734">
  <ele>360.39</ele>
  <time>2026-09-01T20:01:54Z</time>
  <course>274.27</course>
  <speed>0.01</speed>
  <fix>3d</fix>
</trkpt>
<trkpt lat="-27.2387688" lon="151.3640734">
  <ele>360.85</ele>
  <time>2026-09-01T20:01:54Z</time>
  <course>179.28</course>
  <speed>0.02</speed>
  <fix>3d</fix>
</trkpt>
<trkpt lat="-27.2387689" lon="151.3640734">
  <ele>360.24</ele>
  <time>2026-09-01T20:01:54Z</time>
  <course>274.26</course>
  <speed>0.01</speed>
  <fix>3d</fix>
</trkpt>
<trkpt lat="-27.2387688" lon="151.3640734">
  <ele>360.54</ele>
  <time>2026-09-01T20:01:54Z</time>
  <course>179.97</course>
  <speed>0.01</speed>
  <fix>3d</fix>
</trkpt>
<trkpt lat="-27.2387689" lon="151.3640734">
  <ele>360.09</ele>
  <time>2026-09-01T20:01:54Z</time>
  <course>274.25</course>
  <speed>0.01</speed>
  <fix>3d</fix>
</trkpt>
<trkpt lat="-27.2387688" lon="151.3640734">
  <ele>360.54</ele>
  <time>2026-09-01T20:01:54Z</time>
  <course>179.97</course>
  <speed>0.01</speed>
  <fix>3d</fix>
</trkpt>
<trkpt lat="-27.2387689" lon="151.3640734">
  <ele>359.94</ele>
  <time>2026-09-01T20:01:54Z</time>
  <course>274.25</course>
  <speed>0.01</speed>
  <fix>3d</fix>
</trkpt>
<trkpt lat="-27.2387689" lon="151.3640734">
  <ele>360.24</ele>
  <time>2026-09-01T20:01:54Z</time>
  <course>181.31</course>
  <speed>0.01</speed>
  <fix>3d</fix>
</trkpt>
<trkpt lat="-27.2387689" lon="151.3640734">
  <ele>359.79</ele>
  <time>2026-09-01T20:01:54Z</time>
  <course>274.26</course>
  <speed>0.01</speed>
  <fix>3d</fix>
</trkpt>
<trkpt lat="-27.2387689" lon="151.3640734">
  <ele>360.24</ele>
  <time>2026-09-01T20:01:54Z</time>
  <course>181.31</course>
  <speed>0.01</speed>
  <fix>3d</fix>
</trkpt>
<trkpt lat="-27.2387689" lon="151.3640734">
  <ele>359.64</ele>
  <time>2026-09-01T20:01:54Z</time>
  <course>274.26</course>
  <speed>0.01</speed>
  <fix>3d</fix>
</trkpt>
<trkpt lat="-27.2387689" lon="151.3640734">
  <ele>359.94</ele>
  <time>2026-09-01T20:01:54Z</time>
  <course>182.52</course>
  <speed>0.01</speed>
  <fix>3d</fix>
</trkpt>
<trkpt lat="-27.238769" lon="151.3640734">
  <ele>359.49</ele>
  <time>2026-09-01T20:01:54Z</time>
  <course>274.26</course>
  <speed>0.01</speed>
  <fix>3d</fix>
</trkpt>
<trkpt lat="-27.2387689" lon="151.3640734">
  <ele>359.94</ele>
  <time>2026-09-01T20:01:54Z</time>
  <course>182.52</course>
  <speed>0.01</speed>
  <fix>3d</fix>
</trkpt>
<trkpt lat="-27.238769" lon="151.3640734">
  <ele>359.34</ele>
  <time>2026-09-01T20:01:54Z</time>
  <course>274.26</course>
  <speed>0.01</speed>
  <fix>3d</fix>
</trkpt>
<trkpt lat="-27.2387689" lon="151.3640734">
  <ele>359.64</ele>
  <time>2026-09-01T20:01:54Z</time>
  <course>183.1</course>
  <speed>0.01</speed>
  <fix>3d</fix>
</trkpt>
<trkpt lat="-27.238769" lon="151.3640734">
  <ele>359.19</ele>
  <time>2026-09-01T20:01:54Z</time>
  <course>274.26</course>
  <speed>0.01</speed>
  <fix>3d</fix>
</trkpt>
<trkpt lat="-27.2387689" lon="151.3640734">
  <ele>359.64</ele>
  <time>2026-09-01T20:01:54Z</time>
  <course>183.1</course>
  <speed>0.01</speed>
  <fix>3d</fix>
</trkpt>
<trkpt lat="-27.238769" lon="151.3640734">
  <ele>359.04</ele>
  <time>2026-09-01T20:01:54Z</time>
  <course>274.28</course>
  <speed>0.01</speed>
  <fix>3d</fix>
</trkpt>
<trkpt lat="-27.238769" lon="151.3640734">
  <ele>359.35</ele>
  <time>2026-09-01T20:01:54Z</time>
  <course>185.29</course>
  <speed>0.01</speed>
  <fix>3d</fix>
</trkpt>
<trkpt lat="-27.238769" lon="151.3640734">
  <ele>358.89</ele>
  <time>2026-09-01T20:01:54Z</time>
  <course>274.3</course>
  <speed>0.01</speed>
  <fix>3d</fix>
</trkpt>
<trkpt lat="-27.238769" lon="151.3640734">
  <ele>359.35</ele>
  <time>2026-09-01T20:01:54Z</time>
  <course>185.29</course>
  <speed>0.01</speed>
  <fix>3d</fix>
</trkpt>
<trkpt lat="-27.238769" lon="151.3640734">
  <ele>358.74</ele>
  <time>2026-09-01T20:01:54Z</time>
  <course>274.31</course>
  <speed>0.01</speed>
  <fix>3d</fix>
</trkpt>
<trkpt lat="-27.238769" lon="151.3640734">
  <ele>359.05</ele>
  <time>2026-09-01T20:01:54Z</time>
  <course>189.48</course>
  <speed>0.01</speed>
  <fix>3d</fix>
</trkpt>
<trkpt lat="-27.2387691" lon="151.3640734">
  <ele>358.59</ele>
  <time>2026-09-01T20:01:54Z</time>
  <course>274.31</course>
  <speed>0.01</speed>
  <fix>3d</fix>
</trkpt>
<trkpt lat="-27.238769" lon="151.3640734">
  <ele>359.05</ele>
  <time>2026-09-01T20:01:54Z</time>
  <course>189.48</course>
  <speed>0.01</speed>
  <fix>3d</fix>
</trkpt>
<trkpt lat="-27.2387691" lon="151.3640734">
  <ele>358.44</ele>
  <time>2026-09-01T20:01:54Z</time>
  <course>274.32</course>
  <speed>0.01</speed>
  <fix>3d</fix>
</trkpt>
<trkpt lat="-27.238769" lon="151.3640734">
  <ele>358.75</ele>
  <time>2026-09-01T20:01:54Z</time>
  <course>194.36</course>
  <speed>0.01</speed>
  <fix>3d</fix>
</trkpt>
<trkpt lat="-27.2387691" lon="151.3640734">
  <ele>358.29</ele>
  <time>2026-09-01T20:01:54Z</time>
  <course>274.33</course>
  <speed>0.01</speed>
  <fix>3d</fix>
</trkpt>
<trkpt lat="-27.238769" lon="151.3640734">
  <ele>358.75</ele>
  <time>2026-09-01T20:01:54Z</time>
  <course>194.36</course>
  <speed>0.01</speed>
  <fix>3d</fix>
</trkpt>
<trkpt lat="-27.2387691" lon="151.3640734">
  <ele>358.14</ele>
  <time>2026-09-01T20:01:54Z</time>
  <course>274.33</course>
  <speed>0.01</speed>
  <fix>3d</fix>
</trkpt>
<trkpt lat="-27.2387691" lon="151.3640734">
  <ele>358.45</ele>
  <time>2026-09-01T20:01:54Z</time>
  <course>197.99</course>
  <speed>0.01</speed>
  <fix>3d</fix>
</trkpt>
<trkpt lat="-27.2387691" lon="151.3640734">
  <ele>357.99</ele>
  <time>2026-09-01T20:01:54Z</time>
  <course>274.34</course>
  <speed>0.01</speed>
  <fix>3d</fix>
</trkpt>
<trkpt lat="-27.2387691" lon="151.3640734">
  <ele>358.45</ele>
  <time>2026-09-01T20:01:54Z</time>
  <course>197.99</course>
  <speed>0.01</speed>
  <fix>3d</fix>
</trkpt>
<trkpt lat="-27.2387691" lon="151.3640734">
  <ele>357.84</ele>
  <time>2026-09-01T20:01:54Z</time>
  <course>274.34</course>
  <speed>0.01</speed>
  <fix>3d</fix>
</trkpt>
<trkpt lat="-27.2387691" lon="151.3640734">
  <ele>358.15</ele>
  <time>2026-09-01T20:01:54Z</time>
  <course>200.71</course>
  <speed>0.01</speed>
  <fix>3d</fix>
</trkpt>
<trkpt lat="-27.2387692" lon="151.3640734">
  <ele>357.69</ele>
  <time>2026-09-01T20:01:54Z</time>
  <course>274.34</course>
  <speed>0.01</speed>
  <fix>3d</fix>
</trkpt>
<trkpt lat="-27.2387691" lon="151.3640734">
  <ele>358.15</ele>
  <time>2026-09-01T20:01:54Z</time>
  <course>200.71</course>
  <speed>0.01</speed>
  <fix>3d</fix>
</trkpt>
<trkpt lat="-27.2387692" lon="151.3640734">
  <ele>357.54</ele>
  <time>2026-09-01T20:01:54Z</time>
  <course>274.35</course>
  <speed>0.01</speed>
  <fix>3d</fix>
</trkpt>
<trkpt lat="-27.2387691" lon="151.3640734">
  <ele>357.85</ele>
  <time>2026-09-01T20:01:54Z</time>
  <course>203.6</course>
  <speed>0.01</speed>
  <fix>3d</fix>
</trkpt>
<trkpt lat="-27.2387692" lon="151.3640734">
  <ele>357.39</ele>
  <time>2026-09-01T20:01:54Z</time>
  <course>274.36</course>
  <speed>0.01</speed>
  <fix>3d</fix>
</trkpt>
<trkpt lat="-27.2387691" lon="151.3640734">
  <ele>357.85</ele>
  <time>2026-09-01T20:01:54Z</time>
  <course>203.6</course>
  <speed>0.01</speed>
  <fix>3d</fix>
</trkpt>
<trkpt lat="-27.2387692" lon="151.3640734">
  <ele>357.24</ele>
  <time>2026-09-01T20:01:54Z</time>
  <course>274.37</course>
  <speed>0.01</speed>
  <fix>3d</fix>
</trkpt>
<trkpt lat="-27.2387692" lon="151.3640734">
  <ele>357.54</ele>
  <time>2026-09-01T20:01:54Z</time>
  <course>205.41</course>
  <speed>0.02</speed>
  <fix>3d</fix>
</trkpt>
<trkpt lat="-27.2387692" lon="151.3640734">
  <ele>357.09</ele>
  <time>2026-09-01T20:01:54Z</time>
  <course>274.38</course>
  <speed>0.01</speed>
  <fix>3d</fix>
</trkpt>
<trkpt lat="-27.2387692" lon="151.3640734">
  <ele>357.54</ele>
  <time>2026-09-01T20:01:54Z</time>
  <course>205.41</course>
  <speed>0.02</speed>
  <fix>3d</fix>
</trkpt>
<trkpt lat="-27.2387692" lon="151.3640734">
  <ele>356.94</ele>
  <time>2026-09-01T20:01:54Z</time>
  <course>274.38</course>
  <speed>0.01</speed>
  <fix>3d</fix>
</trkpt>
<trkpt lat="-27.2387692" lon="151.3640734">
  <ele>357.24</ele>
  <time>2026-09-01T20:01:54Z</time>
  <course>204.99</course>
  <speed>0.02</speed>
  <fix>3d</fix>
</trkpt>
<trkpt lat="-27.2387693" lon="151.3640734">
  <ele>356.79</ele>
  <time>2026-09-01T20:01:54Z</time>
  <course>274.39</course>
  <speed>0.01</speed>
  <fix>3d</fix>
</trkpt>
<trkpt lat="-27.2387692" lon="151.3640734">
  <ele>357.24</ele>
  <time>2026-09-01T20:01:54Z</time>
  <course>204.99</course>
  <speed>0.02</speed>
  <fix>3d</fix>
</trkpt>
<trkpt lat="-27.2387693" lon="151.3640734">
  <ele>356.64</ele>
  <time>2026-09-01T20:01:54Z</time>
  <course>274.39</course>
  <speed>0.01</speed>
  <fix>3d</fix>
</trkpt>
<trkpt lat="-27.2387692" lon="151.3640734">
  <ele>356.94</ele>
  <time>2026-09-01T20:01:54Z</time>
  <course>202.67</course>
  <speed>0.02</speed>
  <fix>3d</fix>
</trkpt>
<trkpt lat="-27.2387693" lon="151.3640734">
  <ele>356.49</ele>
  <time>2026-09-01T20:01:54Z</time>
  <course>274.4</course>
  <speed>0.01</speed>
  <fix>3d</fix>
</trkpt>
<trkpt lat="-27.2387692" lon="151.3640734">
  <ele>356.94</ele>
  <time>2026-09-01T20:01:54Z</time>
  <course>202.67</course>
  <speed>0.02</speed>
  <fix>3d</fix>
</trkpt>
<trkpt lat="-27.2387693" lon="151.3640734">
  <ele>356.34</ele>
  <time>2026-09-01T20:01:54Z</time>
  <course>274.42</course>
  <speed>0.01</speed>
  <fix>3d</fix>
</trkpt>
<trkpt lat="-27.2387693" lon="151.3640734">
  <ele>356.65</ele>
  <time>2026-09-01T20:01:54Z</time>
  <course>201.79</course>
  <speed>0.02</speed>
  <fix>3d</fix>
</trkpt>
<trkpt lat="-27.2387693" lon="151.3640734">
  <ele>356.19</ele>
  <time>2026-09-01T20:01:54Z</time>
  <course>274.43</course>
  <speed>0.01</speed>
  <fix>3d</fix>
</trkpt>
<trkpt lat="-27.2387693" lon="151.3640734">
  <ele>356.65</ele>
  <time>2026-09-01T20:01:54Z</time>
  <course>201.79</course>
  <speed>0.02</speed>
  <fix>3d</fix>
</trkpt>
<trkpt lat="-27.2387693" lon="151.3640733">
  <ele>356.04</ele>
  <time>2026-09-01T20:01:54Z</time>
  <course>274.44</course>
  <speed>0.01</speed>
  <fix>3d</fix>
</trkpt>
<trkpt lat="-27.2387693" lon="151.3640734">
  <ele>356.35</ele>
  <time>2026-09-01T20:01:54Z</time>
  <course>203.76</course>
  <speed>0.02</speed>
  <fix>3d</fix>
</trkpt>
<trkpt lat="-27.2387694" lon="151.3640733">
  <ele>355.89</ele>
  <time>2026-09-01T20:01:54Z</time>
  <course>274.44</course>
  <speed>0.01</speed>
  <fix>3d</fix>
</trkpt>
<trkpt lat="-27.2387693" lon="151.3640734">
  <ele>356.35</ele>
  <time>2026-09-01T20:01:54Z</time>
  <course>203.76</course>
  <speed>0.02</speed>
  <fix>3d</fix>
</trkpt>
<trkpt lat="-27.2387694" lon="151.3640733">
  <ele>355.74</ele>
  <time>2026-09-01T20:01:54Z</time>
  <course>274.45</course>
  <speed>0.01414213562373095</speed>
  <fix>3d</fix>
</trkpt>
<trkpt lat="-27.2387693" lon="151.3640733">
  <ele>356.05</ele>
  <time>2026-09-01T20:01:54Z</time>
  <course>206.24</course>
  <speed>0.02</speed>
  <fix>3d</fix>
</trkpt>
<trkpt lat="-27.2387694" lon="151.3640733">
  <ele>355.59</ele>
  <time>2026-09-01T20:01:54Z</time>
  <course>274.45</course>
  <speed>0.01414213562373095</speed>
  <fix>3d</fix>
</trkpt>
<trkpt lat="-27.2387693" lon="151.3640733">
  <ele>356.05</ele>
  <time>2026-09-01T20:01:54Z</time>
  <course>206.24</course>
  <speed>0.02</speed>
  <fix>3d</fix>
</trkpt>
<trkpt lat="-27.2387694" lon="151.3640733">
  <ele>355.44</ele>
  <time>2026-09-01T20:01:54Z</time>
  <course>274.47</course>
  <speed>0.01414213562373095</speed>
  <fix>3d</fix>
</trkpt>
<trkpt lat="-27.2387694" lon="151.3640733">
  <ele>355.75</ele>
  <time>2026-09-01T20:01:54Z</time>
  <course>207.61</course>
  <speed>0.02</speed>
  <fix>3d</fix>
</trkpt>
<trkpt lat="-27.2387694" lon="151.3640733">
  <ele>355.29</ele>
  <time>2026-09-01T20:01:54Z</time>
  <course>274.49</course>
  <speed>0.01</speed>
  <fix>3d</fix>
</trkpt>
<trkpt lat="-27.2387694" lon="151.3640733">
  <ele>355.75</ele>
  <time>2026-09-01T20:01:54Z</time>
  <course>207.61</course>
  <speed>0.02</speed>
  <fix>3d</fix>
</trkpt>
<trkpt lat="-27.2387694" lon="151.3640733">
  <ele>355.14</ele>
  <time>2026-09-01T20:01:54Z</time>
  <course>274.51</course>
  <speed>0.01</speed>
  <fix>3d</fix>
</trkpt>
<trkpt lat="-27.2387694" lon="151.3640733">
  <ele>355.45</ele>
  <time>2026-09-01T20:01:54Z</time>
  <course>207.45</course>
  <speed>0.02</speed>
  <fix>3d</fix>
</trkpt>
<trkpt lat="-27.2387695" lon="151.3640733">
  <ele>354.99</ele>
  <time>2026-09-01T20:01:54Z</time>
  <course>274.53</course>
  <speed>0.02</speed>
  <fix>3d</fix>
</trkpt>
<trkpt lat="-27.2387694" lon="151.3640733">
  <ele>355.45</ele>
  <time>2026-09-01T20:01:54Z</time>
  <course>207.45</course>
  <speed>0.02</speed>
  <fix>3d</fix>
</trkpt>
<trkpt lat="-27.2387695" lon="151.3640733">
  <ele>354.84</ele>
  <time>2026-09-01T20:01:54Z</time>
  <course>274.55</course>
  <speed>0.01</speed>
  <fix>3d</fix>
</trkpt>
<trkpt lat="-27.2387694" lon="151.3640733">
  <ele>355.14</ele>
  <time>2026-09-01T20:01:54Z</time>
  <course>205.59</course>
  <speed>0.02</speed>
  <fix>3d</fix>
</trkpt>
<trkpt lat="-27.2387695" lon="151.3640733">
  <ele>354.69</ele>
  <time>2026-09-01T20:01:54Z</time>
  <course>274.57</course>
  <speed>0.02</speed>
  <fix>3d</fix>
</trkpt>
<trkpt lat="-27.2387694" lon="151.3640733">
  <ele>355.14</ele>
  <time>2026-09-01T20:01:54Z</time>
  <course>205.59</course>
  <speed>0.02</speed>
  <fix>3d</fix>
</trkpt>
<trkpt lat="-27.2387695" lon="151.3640733">
  <ele>354.54</ele>
  <time>2026-09-01T20:01:54Z</time>
  <course>274.59</course>
  <speed>0.02</speed>
  <fix>3d</fix>
</trkpt>
<trkpt lat="-27.2387695" lon="151.3640733">
  <ele>354.84</ele>
  <time>2026-09-01T20:01:54Z</time>
  <course>203.13</course>
  <speed>0.02</speed>
  <fix>3d</fix>
</trkpt>
<trkpt lat="-27.2387695" lon="151.3640732">
  <ele>354.39</ele>
  <time>2026-09-01T20:01:54Z</time>
  <course>274.61</course>
  <speed>0.02</speed>
  <fix>3d</fix>
</trkpt>
<trkpt lat="-27.2387695" lon="151.3640733">
  <ele>354.84</ele>
  <time>2026-09-01T20:01:54Z</time>
  <course>203.13</course>
  <speed>0.02</speed>
  <fix>3d</fix>
</trkpt>
<trkpt lat="-27.2387696" lon="151.3640732">
  <ele>354.24</ele>
  <time>2026-09-01T20:01:54Z</time>
  <course>274.63</course>
  <speed>0.02</speed>
  <fix>3d</fix>
</trkpt>
<trkpt lat="-27.2387695" lon="151.3640732">
  <ele>354.54</ele>
  <time>2026-09-01T20:01:54Z</time>
  <course>201.96</course>
  <speed>0.02</speed>
  <fix>3d</fix>
</trkpt>
<trkpt lat="-27.2387696" lon="151.3640732">
  <ele>354.08</ele>
  <time>2026-09-01T20:01:54Z</time>
  <course>274.64</course>
  <speed>0.02</speed>
  <fix>3d</fix>
</trkpt>
<trkpt lat="-27.2387695" lon="151.3640732">
  <ele>354.54</ele>
  <time>2026-09-01T20:01:54Z</time>
  <course>201.96</course>
  <speed>0.02</speed>
  <fix>3d</fix>
</trkpt>
<trkpt lat="-27.2387696" lon="151.3640732">
  <ele>353.95</ele>
  <time>2026-09-01T20:01:54Z</time>
  <course>274.65</course>
  <speed>0.01</speed>
  <fix>3d</fix>
</trkpt>
<trkpt lat="-27.2387695" lon="151.3640732">
  <ele>354.24</ele>
  <time>2026-09-01T20:01:54Z</time>
  <course>201.8</course>
  <speed>0.02</speed>
  <fix>3d</fix>
</trkpt>
<trkpt lat="-27.2387696" lon="151.3640732">
  <ele>353.92</ele>
  <time>2026-09-01T20:01:54Z</time>
  <course>274.65</course>
  <speed>0.0</speed>
  <fix>3d</fix>
</trkpt>
<trkpt lat="-27.2387695" lon="151.3640732">
  <ele>354.24</ele>
  <time>2026-09-01T20:01:54Z</time>
  <course>201.8</course>
  <speed>0.02</speed>
  <fix>3d</fix>
</trkpt>
<trkpt lat="-27.2387696" lon="151.3640732">
  <ele>353.96</ele>
  <time>2026-09-01T20:01:54Z</time>
  <course>274.65</course>
  <speed>0.0</speed>
  <fix>3d</fix>
</trkpt>
<trkpt lat="-27.2387696" lon="151.3640732">
  <ele>354.0</ele>
  <time>2026-09-01T20:01:54Z</time>
  <course>201.68</course>
  <speed>0.0</speed>
  <fix>3d</fix>
</trkpt>
<trkpt lat="-27.2387696" lon="151.3640732">
  <ele>354.0</ele>
  <time>2026-09-01T20:01:54Z</time>
  <course>274.65</course>
  <speed>0.0</speed>
  <fix>3d</fix>
</trkpt>
<trkpt lat="-27.2387696" lon="151.3640732">
  <ele>354.0</ele>
  <time>2026-09-01T20:01:54Z</time>
  <course>201.68</course>
  <speed>0.0</speed>
  <fix>3d</fix>
</trkpt>
<trkpt lat="-27.2387696" lon="151.3640732">
  <ele>354.01</ele>
  <time>2026-09-01T20:01:54Z</time>
  <course>274.65</course>
  <speed>0.0</speed>
  <fix>3d</fix>
</trkpt>
<trkpt lat="-27.2387696" lon="151.3640732">
  <ele>353.95</ele>
  <time>2026-09-01T20:01:54Z</time>
  <course>21.45</course>
  <speed>0.0</speed>
  <fix>3d</fix>
</trkpt>
<trkpt lat="-27.2387696" lon="151.3640732">
  <ele>354.01</ele>
  <time>2026-09-01T20:01:54Z</time>
  <course>274.65</course>
  <speed>0.0</speed>
  <fix>3d</fix>
</trkpt>
<trkpt lat="-27.2387696" lon="151.3640732">
  <ele>353.95</ele>
  <time>2026-09-01T20:01:54Z</time>
  <course>21.45</course>
  <speed>0.0</speed>
  <fix>3d</fix>
</trkpt>
<trkpt lat="-27.2387696" lon="151.3640732">
  <ele>354.0</ele>
  <time>2026-09-01T20:01:54Z</time>
  <course>274.65</course>
  <speed>0.0</speed>
  <fix>3d</fix>
</trkpt>
<trkpt lat="-27.2387696" lon="151.3640732">
  <ele>354.0</ele>
  <time>2026-09-01T20:01:54Z</time>
  <course>21.45</course>
  <speed>0.0</speed>
  <fix>3d</fix>
</trkpt>
<trkpt lat="-27.2387696" lon="151.3640732">
  <ele>354.0</ele>
  <time>2026-09-01T20:01:54Z</time>
  <course>274.65</course>
  <speed>0.0</speed>
  <fix>3d</fix>
</trkpt>
<trkpt lat="-27.2387696" lon="151.3640732">
  <ele>354.0</ele>
  <time>2026-09-01T20:01:54Z</time>
  <course>21.45</course>
  <speed>0.0</speed>
  <fix>3d</fix>
</trkpt>
<trkpt lat="-27.2387696" lon="151.3640732">
  <ele>354.0</ele>
  <time>2026-09-01T20:01:54Z</time>
  <course>274.65</course>
  <speed>0.0</speed>
  <fix>3d</fix>
</trkpt>
<trkpt lat="-27.2387696" lon="151.3640732">
  <ele>354.0</ele>
  <time>2026-09-01T20:01:54Z</time>
  <course>201.46</course>
  <speed>0.0</speed>
  <fix>3d</fix>
</trkpt>
<trkpt lat="-27.2387696" lon="151.3640732">
  <ele>354.0</ele>
  <time>2026-09-01T20:01:54Z</time>
  <course>274.65</course>
  <speed>0.0</speed>
  <fix>3d</fix>
</trkpt>
<trkpt lat="-27.2387696" lon="151.3640732">
  <ele>354.0</ele>
  <time>2026-09-01T20:01:54Z</time>
  <course>201.46</course>
  <speed>0.0</speed>
  <fix>3d</fix>
</trkpt>
<trkpt lat="-27.2387696" lon="151.3640732">
  <ele>354.0</ele>
  <time>2026-09-01T20:01:54Z</time>
  <course>274.65</course>
  <speed>0.0</speed>
  <fix>3d</fix>
</trkpt>
<trkpt lat="-27.2387696" lon="151.3640732">
  <ele>354.0</ele>
  <time>2026-09-01T20:01:54Z</time>
  <course>201.47</course>
  <speed>0.0</speed>
  <fix>3d</fix>
</trkpt>
<trkpt lat="-27.2387696" lon="151.3640732">
  <ele>354.0</ele>
  <time>2026-09-01T20:01:54Z</time>
  <course>274.65</course>
  <speed>0.0</speed>
  <fix>3d</fix>
</trkpt>
<trkpt lat="-27.2387696" lon="151.3640732">
  <ele>354.0</ele>
  <time>2026-09-01T20:01:54Z</time>
  <course>201.47</course>
  <speed>0.0</speed>
  <fix>3d</fix>
</trkpt>
<trkpt lat="-27.2387696" lon="151.3640732">
  <ele>354.0</ele>
  <time>2026-09-01T20:01:54Z</time>
  <course>274.65</course>
  <speed>0.0</speed>
  <fix>3d</fix>
</trkpt>
<trkpt lat="-27.2387696" lon="151.3640732">
  <ele>354.0</ele>
  <time>2026-09-01T20:01:54Z</time>
  <course>21.42</course>
  <speed>0.0</speed>
  <fix>3d</fix>
</trkpt>
<trkpt lat="-27.2387696" lon="151.3640732">
  <ele>354.0</ele>
  <time>2026-09-01T20:01:54Z</time>
  <course>274.65</course>
  <speed>0.0</speed>
  <fix>3d</fix>
</trkpt>
<trkpt lat="-27.2387696" lon="151.3640732">
  <ele>354.0</ele>
  <time>2026-09-01T20:01:54Z</time>
  <course>21.42</course>
  <speed>0.0</speed>
  <fix>3d</fix>
</trkpt>
<trkpt lat="-27.2387696" lon="151.3640732">
  <ele>354.0</ele>
  <time>2026-09-01T20:01:54Z</time>
  <course>274.65</course>
  <speed>0.0</speed>
  <fix>3d</fix>
</trkpt>
<trkpt lat="-27.2387696" lon="151.3640732">
  <ele>354.0</ele>
  <time>2026-09-01T20:01:54Z</time>
  <course>21.15</course>
  <speed>0.0</speed>
  <fix>3d</fix>
</trkpt>
<trkpt lat="-27.2387696" lon="151.3640732">
  <ele>354.0</ele>
  <time>2026-09-01T20:01:54Z</time>
  <course>274.65</course>
  <speed>0.0</speed>
  <fix>3d</fix>
</trkpt>
<trkpt lat="-27.2387696" lon="151.3640732">
  <ele>354.0</ele>
  <time>2026-09-01T20:01:54Z</time>
  <course>21.15</course>
  <speed>0.0</speed>
  <fix>3d</fix>
</trkpt>
<trkpt lat="-27.2387696" lon="151.3640732">
  <ele>354.0</ele>
  <time>2026-09-01T20:01:54Z</time>
  <course>274.65</course>
  <speed>0.0</speed>
  <fix>3d</fix>
</trkpt>
<trkpt lat="-27.2387696" lon="151.3640732">
  <ele>354.0</ele>
  <time>2026-09-01T20:01:54Z</time>
  <course>201.61</course>
  <speed>0.0</speed>
  <fix>3d</fix>
</trkpt>
<trkpt lat="-27.2387696" lon="151.3640732">
  <ele>354.0</ele>
  <time>2026-09-01T20:01:54Z</time>
  <course>274.65</course>
  <speed>0.0</speed>
  <fix>3d</fix>
</trkpt>
<trkpt lat="-27.2387696" lon="151.3640732">
  <ele>354.0</ele>
  <time>2026-09-01T20:01:54Z</time>
  <course>201.61</course>
  <speed>0.0</speed>
  <fix>3d</fix>
</trkpt>
<trkpt lat="-27.2387696" lon="151.3640732">
  <ele>354.0</ele>
  <time>2026-09-01T20:01:54Z</time>
  <course>274.65</course>
  <speed>0.0</speed>
  <fix>3d</fix>
</trkpt>
<trkpt lat="-27.2387696" lon="151.3640732">
  <ele>354.0</ele>
  <time>2026-09-01T20:01:54Z</time>
  <course>14.56</course>
  <speed>0.0</speed>
  <fix>3d</fix>
</trkpt>
<trkpt lat="-27.2387696" lon="151.3640732">
  <ele>354.0</ele>
  <time>2026-09-01T20:01:54Z</time>
  <course>274.65</course>
  <speed>0.0</speed>
  <fix>3d</fix>
</trkpt>
<trkpt lat="-27.2387696" lon="151.3640732">
  <ele>354.0</ele>
  <time>2026-09-01T20:01:54Z</time>
  <course>14.56</course>
  <speed>0.0</speed>
  <fix>3d</fix>
</trkpt>
<trkpt lat="-27.2387696" lon="151.3640732">
  <ele>354.0</ele>
  <time>2026-09-01T20:01:54Z</time>
  <course>274.65</course>
  <speed>0.0</speed>
  <fix>3d</fix>
</trkpt>
<trkpt lat="-27.2387696" lon="151.3640732">
  <ele>354.0</ele>
  <time>2026-09-01T20:01:54Z</time>
  <course>19.82</course>
  <speed>0.0</speed>
  <fix>3d</fix>
</trkpt>
<trkpt lat="-27.2387696" lon="151.3640732">
  <ele>354.0</ele>
  <time>2026-09-01T20:01:54Z</time>
  <course>274.65</course>
  <speed>0.0</speed>
  <fix>3d</fix>
</trkpt>
<trkpt lat="-27.2387696" lon="151.3640732">
  <ele>354.0</ele>
  <time>2026-09-01T20:01:54Z</time>
  <course>19.82</course>
  <speed>0.0</speed>
  <fix>3d</fix>
</trkpt>
<trkpt lat="-27.2387696" lon="151.3640732">
  <ele>354.0</ele>
  <time>2026-09-01T20:01:54Z</time>
  <course>274.65</course>
  <speed>0.0</speed>
  <fix>3d</fix>
</trkpt>
<trkpt lat="-27.2387696" lon="151.3640732">
  <ele>354.0</ele>
  <time>2026-09-01T20:01:54Z</time>
  <course>206.27</course>
  <speed>0.0</speed>
  <fix>3d</fix>
</trkpt>
<trkpt lat="-27.2387696" lon="151.3640732">
  <ele>354.0</ele>
  <time>2026-09-01T20:01:54Z</time>
  <course>274.65</course>
  <speed>0.0</speed>
  <fix>3d</fix>
</trkpt>
<trkpt lat="-27.2387696" lon="151.3640732">
  <ele>354.0</ele>
  <time>2026-09-01T20:01:54Z</time>
  <course>206.27</course>
  <speed>0.0</speed>
  <fix>3d</fix>
</trkpt>
<trkpt lat="-27.2387696" lon="151.3640732">
  <ele>354.0</ele>
  <time>2026-09-01T20:01:54Z</time>
  <course>274.65</course>
  <speed>0.0</speed>
  <fix>3d</fix>
</trkpt>
<trkpt lat="-27.2387696" lon="151.3640732">
  <ele>354.0</ele>
  <time>2026-09-01T20:01:54Z</time>
  <course>207.38</course>
  <speed>0.0</speed>
  <fix>3d</fix>
</trkpt>
<trkpt lat="-27.2387696" lon="151.3640732">
  <ele>354.0</ele>
  <time>2026-09-01T20:01:54Z</time>
  <course>274.65</course>
  <speed>0.0</speed>
  <fix>3d</fix>
</trkpt>
<trkpt lat="-27.2387696" lon="151.3640732">
  <ele>354.0</ele>
  <time>2026-09-01T20:01:54Z</time>
  <course>207.38</course>
  <speed>0.0</speed>
  <fix>3d</fix>
</trkpt>
<trkpt lat="-27.2387696" lon="151.3640732">
  <ele>354.0</ele>
  <time>2026-09-01T20:01:54Z</time>
  <course>274.65</course>
  <speed>0.0</speed>
  <fix>3d</fix>
</trkpt>
<trkpt lat="-27.2387696" lon="151.3640732">
  <ele>354.0</ele>
  <time>2026-09-01T20:01:54Z</time>
  <course>215.59</course>
  <speed>0.0</speed>
  <fix>3d</fix>
</trkpt>
<trkpt lat="-27.2387696" lon="151.3640732">
  <ele>354.0</ele>
  <time>2026-09-01T20:01:54Z</time>
  <course>274.65</course>
  <speed>0.0</speed>
  <fix>3d</fix>
</trkpt>
<trkpt lat="-27.2387696" lon="151.3640732">
  <ele>354.0</ele>
  <time>2026-09-01T20:01:54Z</time>
  <course>215.59</course>
  <speed>0.0</speed>
  <fix>3d</fix>
</trkpt>
<trkpt lat="-27.2387696" lon="151.3640732">
  <ele>354.0</ele>
  <time>2026-09-01T20:01:54Z</time>
  <course>274.65</course>
  <speed>0.0</speed>
  <fix>3d</fix>
</trkpt>
<trkpt lat="-27.2387696" lon="151.3640732">
  <ele>354.0</ele>
  <time>2026-09-01T20:01:54Z</time>
  <course>212.5</course>
  <speed>0.0</speed>
  <fix>3d</fix>
</trkpt>
<trkpt lat="-27.2387696" lon="151.3640732">
  <ele>354.0</ele>
  <time>2026-09-01T20:01:54Z</time>
  <course>274.65</course>
  <speed>0.0</speed>
  <fix>3d</fix>
</trkpt>
<trkpt lat="-27.2387696" lon="151.3640732">
  <ele>354.0</ele>
  <time>2026-09-01T20:01:54Z</time>
  <course>212.5</course>
  <speed>0.0</speed>
  <fix>3d</fix>
</trkpt>
<trkpt lat="-27.2387696" lon="151.3640732">
  <ele>354.0</ele>
  <time>2026-09-01T20:01:54Z</time>
  <course>274.65</course>
  <speed>0.0</speed>
  <fix>3d</fix>
</trkpt>
<trkpt lat="-27.2387696" lon="151.3640732">
  <ele>354.0</ele>
  <time>2026-09-01T20:01:54Z</time>
  <course>212.0</course>
  <speed>0.0</speed>
  <fix>3d</fix>
</trkpt>
<trkpt lat="-27.2387696" lon="151.3640732">
  <ele>354.0</ele>
  <time>2026-09-01T20:01:54Z</time>
  <course>274.65</course>
  <speed>0.0</speed>
  <fix>3d</fix>
</trkpt>
<trkpt lat="-27.2387696" lon="151.3640732">
  <ele>354.0</ele>
  <time>2026-09-01T20:01:54Z</time>
  <course>212.0</course>
  <speed>0.0</speed>
  <fix>3d</fix>
</trkpt>
<trkpt lat="-27.2387696" lon="151.3640732">
  <ele>354.0</ele>
  <time>2026-09-01T20:01:54Z</time>
  <course>274.65</course>
  <speed>0.0</speed>
  <fix>3d</fix>
</trkpt>
<trkpt lat="-27.2387696" lon="151.3640732">
  <ele>354.0</ele>
  <time>2026-09-01T20:01:54Z</time>
  <course>212.13</course>
  <speed>0.0</speed>
  <fix>3d</fix>
</trkpt>
<trkpt lat="-27.2387696" lon="151.3640732">
  <ele>354.0</ele>
  <time>2026-09-01T20:01:54Z</time>
  <course>274.65</course>
  <speed>0.0</speed>
  <fix>3d</fix>
</trkpt>
<trkpt lat="-27.2387696" lon="151.3640732">
  <ele>354.0</ele>
  <time>2026-09-01T20:01:54Z</time>
  <course>212.13</course>
  <speed>0.0</speed>
  <fix>3d</fix>
</trkpt>
<trkpt lat="-27.2387696" lon="151.3640732">
  <ele>354.0</ele>
  <time>2026-09-01T20:01:54Z</time>
  <course>274.65</course>
  <speed>0.0</speed>
  <fix>3d</fix>
</trkpt>
<trkpt lat="-27.2387696" lon="151.3640732">
  <ele>354.0</ele>
  <time>2026-09-01T20:01:54Z</time>
  <course>211.76</course>
  <speed>0.0</speed>
  <fix>3d</fix>
</trkpt>
<trkpt lat="-27.2387696" lon="151.3640732">
  <ele>354.0</ele>
  <time>2026-09-01T20:01:54Z</time>
  <course>274.65</course>
  <speed>0.0</speed>
  <fix>3d</fix>
</trkpt>
<trkpt lat="-27.2387696" lon="151.3640732">
  <ele>354.0</ele>
  <time>2026-09-01T20:01:54Z</time>
  <course>211.76</course>
  <speed>0.0</speed>
  <fix>3d</fix>
</trkpt>
<trkpt lat="-27.2387696" lon="151.3640732">
  <ele>354.0</ele>
  <time>2026-09-01T20:01:54Z</time>
  <course>274.65</course>
  <speed>0.0</speed>
  <fix>3d</fix>
</trkpt>
<trkpt lat="-27.2387696" lon="151.3640732">
  <ele>354.0</ele>
  <time>2026-09-01T20:01:54Z</time>
  <course>208.62</course>
  <speed>0.0</speed>
  <fix>3d</fix>
</trkpt>
<trkpt lat="-27.2387696" lon="151.3640732">
  <ele>354.0</ele>
  <time>2026-09-01T20:01:54Z</time>
  <course>274.65</course>
  <speed>0.0</speed>
  <fix>3d</fix>
</trkpt>
<trkpt lat="-27.2387696" lon="151.3640732">
  <ele>354.0</ele>
  <time>2026-09-01T20:01:54Z</time>
  <course>208.62</course>
  <speed>0.0</speed>
  <fix>3d</fix>
</trkpt>
<trkpt lat="-27.2387696" lon="151.3640732">
  <ele>354.0</ele>
  <time>2026-09-01T20:01:54Z</time>
  <course>274.65</course>
  <speed>0.0</speed>
  <fix>3d</fix>
</trkpt>
<trkpt lat="-27.2387696" lon="151.3640732">
  <ele>354.0</ele>
  <time>2026-09-01T20:01:54Z</time>
  <course>209.14</course>
  <speed>0.0</speed>
  <fix>3d</fix>
</trkpt>
<trkpt lat="-27.2387696" lon="151.3640732">
  <ele>354.0</ele>
  <time>2026-09-01T20:01:54Z</time>
  <course>274.65</course>
  <speed>0.0</speed>
  <fix>3d</fix>
</trkpt>
<trkpt lat="-27.2387696" lon="151.3640732">
  <ele>354.0</ele>
  <time>2026-09-01T20:01:54Z</time>
  <course>209.14</course>
  <speed>0.0</speed>
  <fix>3d</fix>
</trkpt>
<trkpt lat="-27.2387696" lon="151.3640732">
  <ele>354.0</ele>
  <time>2026-09-01T20:01:54Z</time>
  <course>274.65</course>
  <speed>0.0</speed>
  <fix>3d</fix>
</trkpt>
<trkpt lat="-27.2387696" lon="151.3640732">
  <ele>354.0</ele>
  <time>2026-09-01T20:01:54Z</time>
  <course>213.05</course>
  <speed>0.0</speed>
  <fix>3d</fix>
</trkpt>
<trkpt lat="-27.2387696" lon="151.3640732">
  <ele>354.0</ele>
  <time>2026-09-01T20:01:54Z</time>
  <course>274.65</course>
  <speed>0.0</speed>
  <fix>3d</fix>
</trkpt>
<trkpt lat="-27.2387696" lon="151.3640732">
  <ele>354.0</ele>
  <time>2026-09-01T20:01:54Z</time>
  <course>213.05</course>
  <speed>0.0</speed>
  <fix>3d</fix>
</trkpt>
<trkpt lat="-27.2387696" lon="151.3640732">
  <ele>354.0</ele>
  <time>2026-09-01T20:01:54Z</time>
  <course>274.65</course>
  <speed>0.0</speed>
  <fix>3d</fix>
</trkpt>
<trkpt lat="-27.2387696" lon="151.3640732">
  <ele>354.0</ele>
  <time>2026-09-01T20:01:54Z</time>
  <course>212.35</course>
  <speed>0.0</speed>
  <fix>3d</fix>
</trkpt>
<trkpt lat="-27.2387696" lon="151.3640732">
  <ele>354.0</ele>
  <time>2026-09-01T20:01:54Z</time>
  <course>274.65</course>
  <speed>0.0</speed>
  <fix>3d</fix>
</trkpt>
<trkpt lat="-27.2387696" lon="151.3640732">
  <ele>354.0</ele>
  <time>2026-09-01T20:01:54Z</time>
  <course>212.35</course>
  <speed>0.0</speed>
  <fix>3d</fix>
</trkpt>
<trkpt lat="-27.2387696" lon="151.3640732">
  <ele>354.0</ele>
  <time>2026-09-01T20:01:54Z</time>
  <course>274.65</course>
  <speed>0.0</speed>
  <fix>3d</fix>
</trkpt>
<trkpt lat="-27.2387696" lon="151.3640732">
  <ele>354.0</ele>
  <time>2026-09-01T20:01:54Z</time>
  <course>211.58</course>
  <speed>0.0</speed>
  <fix>3d</fix>
</trkpt>
<trkpt lat="-27.2387696" lon="151.3640732">
  <ele>354.0</ele>
  <time>2026-09-01T20:01:54Z</time>
  <course>274.65</course>
  <speed>0.0</speed>
  <fix>3d</fix>
</trkpt>
<trkpt lat="-27.2387696" lon="151.3640732">
  <ele>354.0</ele>
  <time>2026-09-01T20:01:54Z</time>
  <course>211.58</course>
  <speed>0.0</speed>
  <fix>3d</fix>
</trkpt>
<trkpt lat="-27.2387696" lon="151.3640732">
  <ele>354.0</ele>
  <time>2026-09-01T20:01:54Z</time>
  <course>274.65</course>
  <speed>0.0</speed>
  <fix>3d</fix>
</trkpt>
<trkpt lat="-27.2387696" lon="151.3640732">
  <ele>354.0</ele>
  <time>2026-09-01T20:01:54Z</time>
  <course>212.11</course>
  <speed>0.0</speed>
  <fix>3d</fix>
</trkpt>
<trkpt lat="-27.2387696" lon="151.3640732">
  <ele>354.0</ele>
  <time>2026-09-01T20:01:54Z</time>
  <course>274.65</course>
  <speed>0.0</speed>
  <fix>3d</fix>
</trkpt>
<trkpt lat="-27.2387696" lon="151.3640732">
  <ele>354.0</ele>
  <time>2026-09-01T20:01:54Z</time>
  <course>212.11</course>
  <speed>0.0</speed>
  <fix>3d</fix>
</trkpt>
<trkpt lat="-27.2387696" lon="151.3640732">
  <ele>354.0</ele>
  <time>2026-09-01T20:01:54Z</time>
  <course>274.65</course>
  <speed>0.0</speed>
  <fix>3d</fix>
</trkpt>
<trkpt lat="-27.2387696" lon="151.3640732">
  <ele>354.0</ele>
  <time>2026-09-01T20:01:54Z</time>
  <course>212.58</course>
  <speed>0.0</speed>
  <fix>3d</fix>
</trkpt>
<trkpt lat="-27.2387696" lon="151.3640732">
  <ele>354.0</ele>
  <time>2026-09-01T20:01:54Z</time>
  <course>274.65</course>
  <speed>0.0</speed>
  <fix>3d</fix>
</trkpt>
<trkpt lat="-27.2387696" lon="151.3640732">
  <ele>354.0</ele>
  <time>2026-09-01T20:01:54Z</time>
  <course>212.58</course>
  <speed>0.0</speed>
  <fix>3d</fix>
</trkpt>
<trkpt lat="-27.2387696" lon="151.3640732">
  <ele>354.0</ele>
  <time>2026-09-01T20:01:54Z</time>
  <course>274.65</course>
  <speed>0.0</speed>
  <fix>3d</fix>
</trkpt>
<trkpt lat="-27.2387696" lon="151.3640732">
  <ele>354.0</ele>
  <time>2026-09-01T20:01:54Z</time>
  <course>212.33</course>
  <speed>0.0</speed>
  <fix>3d</fix>
</trkpt>
<trkpt lat="-27.2387696" lon="151.3640732">
  <ele>354.0</ele>
  <time>2026-09-01T20:01:54Z</time>
  <course>274.65</course>
  <speed>0.0</speed>
  <fix>3d</fix>
</trkpt>
<trkpt lat="-27.2387696" lon="151.3640732">
  <ele>354.0</ele>
  <time>2026-09-01T20:01:54Z</time>
  <course>212.33</course>
  <speed>0.0</speed>
  <fix>3d</fix>
</trkpt>
<trkpt lat="-27.2387696" lon="151.3640732">
  <ele>354.0</ele>
  <time>2026-09-01T20:01:54Z</time>
  <course>274.65</course>
  <speed>0.0</speed>
  <fix>3d</fix>
</trkpt>
<trkpt lat="-27.2387696" lon="151.3640732">
  <ele>354.0</ele>
  <time>2026-09-01T20:01:54Z</time>
  <course>211.91</course>
  <speed>0.0</speed>
  <fix>3d</fix>
</trkpt>
<trkpt lat="-27.2387696" lon="151.3640732">
  <ele>354.0</ele>
  <time>2026-09-01T20:01:54Z</time>
  <course>274.65</course>
  <speed>0.0</speed>
  <fix>3d</fix>
</trkpt>
<trkpt lat="-27.2387696" lon="151.3640732">
  <ele>354.0</ele>
  <time>2026-09-01T20:01:54Z</time>
  <course>211.91</course>
  <speed>0.0</speed>
  <fix>3d</fix>
</trkpt>
<trkpt lat="-27.2387696" lon="151.3640732">
  <ele>354.0</ele>
  <time>2026-09-01T20:01:54Z</time>
  <course>274.65</course>
  <speed>0.0</speed>
  <fix>3d</fix>
</trkpt>
<trkpt lat="-27.2387696" lon="151.3640732">
  <ele>354.0</ele>
  <time>2026-09-01T20:01:54Z</time>
  <course>211.45</course>
  <speed>0.0</speed>
  <fix>3d</fix>
</trkpt>
<trkpt lat="-27.2387696" lon="151.3640732">
  <ele>354.0</ele>
  <time>2026-09-01T20:01:54Z</time>
  <course>274.65</course>
  <speed>0.0</speed>
  <fix>3d</fix>
</trkpt>
<trkpt lat="-27.2387696" lon="151.3640732">
  <ele>354.0</ele>
  <time>2026-09-01T20:01:54Z</time>
  <course>211.45</course>
  <speed>0.0</speed>
  <fix>3d</fix>
</trkpt>
<trkpt lat="-27.2387696" lon="151.3640732">
  <ele>354.0</ele>
  <time>2026-09-01T20:01:54Z</time>
  <course>274.64</course>
  <speed>0.0</speed>
  <fix>3d</fix>
</trkpt>
<trkpt lat="-27.2387696" lon="151.3640732">
  <ele>354.0</ele>
  <time>2026-09-01T20:01:54Z</time>
  <course>211.58</course>
  <speed>0.0</speed>
  <fix>3d</fix>
</trkpt>
<trkpt lat="-27.2387696" lon="151.3640732">
  <ele>354.0</ele>
  <time>2026-09-01T20:01:54Z</time>
  <course>274.64</course>
  <speed>0.0</speed>
  <fix>3d</fix>
</trkpt>
<trkpt lat="-27.2387696" lon="151.3640732">
  <ele>354.0</ele>
  <time>2026-09-01T20:01:54Z</time>
  <course>211.58</course>
  <speed>0.0</speed>
  <fix>3d</fix>
</trkpt>
<trkpt lat="-27.2387696" lon="151.3640732">
  <ele>354.0</ele>
  <time>2026-09-01T20:01:54Z</time>
  <course>274.64</course>
  <speed>0.0</speed>
  <fix>3d</fix>
</trkpt>
<trkpt lat="-27.2387696" lon="151.3640732">
  <ele>354.0</ele>
  <time>2026-09-01T20:01:54Z</time>
  <course>212.07</course>
  <speed>0.0</speed>
  <fix>3d</fix>
</trkpt>
<trkpt lat="-27.2387696" lon="151.3640732">
  <ele>354.0</ele>
  <time>2026-09-01T20:01:54Z</time>
  <course>274.64</course>
  <speed>0.0</speed>
  <fix>3d</fix>
</trkpt>
<trkpt lat="-27.2387696" lon="151.3640732">
  <ele>354.0</ele>
  <time>2026-09-01T20:01:54Z</time>
  <course>212.07</course>
  <speed>0.0</speed>
  <fix>3d</fix>
</trkpt>
<trkpt lat="-27.2387696" lon="151.3640732">
  <ele>354.0</ele>
  <time>2026-09-01T20:01:54Z</time>
  <course>274.64</course>
  <speed>0.0</speed>
  <fix>3d</fix>
</trkpt>
<trkpt lat="-27.2387696" lon="151.3640732">
  <ele>354.0</ele>
  <time>2026-09-01T20:01:54Z</time>
  <course>212.9</course>
  <speed>0.0</speed>
  <fix>3d</fix>
</trkpt>
<trkpt lat="-27.2387696" lon="151.3640732">
  <ele>354.0</ele>
  <time>2026-09-01T20:01:54Z</time>
  <course>274.64</course>
  <speed>0.0</speed>
  <fix>3d</fix>
</trkpt>
<trkpt lat="-27.2387696" lon="151.3640732">
  <ele>354.0</ele>
  <time>2026-09-01T20:01:54Z</time>
  <course>212.9</course>
  <speed>0.0</speed>
  <fix>3d</fix>
</trkpt>
<trkpt lat="-27.2387696" lon="151.3640732">
  <ele>354.0</ele>
  <time>2026-09-01T20:01:54Z</time>
  <course>274.64</course>
  <speed>0.0</speed>
  <fix>3d</fix>
</trkpt>
<trkpt lat="-27.2387696" lon="151.3640732">
  <ele>354.0</ele>
  <time>2026-09-01T20:01:54Z</time>
  <course>213.11</course>
  <speed>0.0</speed>
  <fix>3d</fix>
</trkpt>
<trkpt lat="-27.2387696" lon="151.3640732">
  <ele>354.0</ele>
  <time>2026-09-01T20:01:54Z</time>
  <course>274.64</course>
  <speed>0.0</speed>
  <fix>3d</fix>
</trkpt>
<trkpt lat="-27.2387696" lon="151.3640732">
  <ele>354.0</ele>
  <time>2026-09-01T20:01:54Z</time>
  <course>213.11</course>
  <speed>0.0</speed>
  <fix>3d</fix>
</trkpt>
<trkpt lat="-27.2387696" lon="151.3640732">
  <ele>354.0</ele>
  <time>2026-09-01T20:01:54Z</time>
  <course>274.64</course>
  <speed>0.0</speed>
  <fix>3d</fix>
</trkpt>
<trkpt lat="-27.2387696" lon="151.3640732">
  <ele>354.0</ele>
  <time>2026-09-01T20:01:54Z</time>
  <course>211.83</course>
  <speed>0.0</speed>
  <fix>3d</fix>
</trkpt>
<trkpt lat="-27.2387696" lon="151.3640732">
  <ele>354.0</ele>
  <time>2026-09-01T20:01:54Z</time>
  <course>274.64</course>
  <speed>0.0</speed>
  <fix>3d</fix>
</trkpt>
<trkpt lat="-27.2387696" lon="151.3640732">
  <ele>354.0</ele>
  <time>2026-09-01T20:01:54Z</time>
  <course>211.83</course>
  <speed>0.0</speed>
  <fix>3d</fix>
</trkpt>
<trkpt lat="-27.2387696" lon="151.3640732">
  <ele>354.0</ele>
  <time>2026-09-01T20:01:54Z</time>
  <course>274.64</course>
  <speed>0.0</speed>
  <fix>3d</fix>
</trkpt>
<trkpt lat="-27.2387696" lon="151.3640732">
  <ele>354.0</ele>
  <time>2026-09-01T20:01:54Z</time>
  <course>210.54</course>
  <speed>0.0</speed>
  <fix>3d</fix>
</trkpt>
<trkpt lat="-27.2387696" lon="151.3640732">
  <ele>354.0</ele>
  <time>2026-09-01T20:01:54Z</time>
  <course>274.64</course>
  <speed>0.0</speed>
  <fix>3d</fix>
</trkpt>
<trkpt lat="-27.2387696" lon="151.3640732">
  <ele>354.0</ele>
  <time>2026-09-01T20:01:54Z</time>
  <course>210.54</course>
  <speed>0.0</speed>
  <fix>3d</fix>
</trkpt>
<trkpt lat="-27.2387696" lon="151.3640732">
  <ele>354.0</ele>
  <time>2026-09-01T20:01:54Z</time>
  <course>274.63</course>
  <speed>0.0</speed>
  <fix>3d</fix>
</trkpt>
<trkpt lat="-27.2387696" lon="151.3640732">
  <ele>354.0</ele>
  <time>2026-09-01T20:01:54Z</time>
  <course>211.96</course>
  <speed>0.0</speed>
  <fix>3d</fix>
</trkpt>
<trkpt lat="-27.2387696" lon="151.3640732">
  <ele>354.0</ele>
  <time>2026-09-01T20:01:54Z</time>
  <course>274.63</course>
  <speed>0.0</speed>
  <fix>3d</fix>
</trkpt>
<trkpt lat="-27.2387696" lon="151.3640732">
  <ele>354.0</ele>
  <time>2026-09-01T20:01:54Z</time>
  <course>211.96</course>
  <speed>0.0</speed>
  <fix>3d</fix>
</trkpt>
<trkpt lat="-27.2387696" lon="151.3640732">
  <ele>354.0</ele>
  <time>2026-09-01T20:01:54Z</time>
  <course>274.63</course>
  <speed>0.0</speed>
  <fix>3d</fix>
</trkpt>
<trkpt lat="-27.2387696" lon="151.3640732">
  <ele>354.0</ele>
  <time>2026-09-01T20:01:54Z</time>
  <course>214.57</course>
  <speed>0.0</speed>
  <fix>3d</fix>
</trkpt>
<trkpt lat="-27.2387696" lon="151.3640732">
  <ele>354.0</ele>
  <time>2026-09-01T20:01:54Z</time>
  <course>274.63</course>
  <speed>0.0</speed>
  <fix>3d</fix>
</trkpt>
<trkpt lat="-27.2387696" lon="151.3640732">
  <ele>354.0</ele>
  <time>2026-09-01T20:01:54Z</time>
  <course>214.57</course>
  <speed>0.0</speed>
  <fix>3d</fix>
</trkpt>
<trkpt lat="-27.2387696" lon="151.3640732">
  <ele>354.0</ele>
  <time>2026-09-01T20:01:55Z</time>
  <course>274.63</course>
  <speed>0.0</speed>
  <fix>3d</fix>
</trkpt>
<trkpt lat="-27.2387696" lon="151.3640732">
  <ele>354.0</ele>
  <time>2026-09-01T20:01:55Z</time>
  <course>20.7</course>
  <speed>0.0</speed>
  <fix>3d</fix>
</trkpt>
<trkpt lat="-27.2387696" lon="151.3640732">
  <ele>354.0</ele>
  <time>2026-09-01T20:01:55Z</time>
  <course>274.63</course>
  <speed>0.0</speed>
  <fix>3d</fix>
</trkpt>
<trkpt lat="-27.2387696" lon="151.3640732">
  <ele>354.0</ele>
  <time>2026-09-01T20:01:55Z</time>
  <course>20.7</course>
  <speed>0.0</speed>
  <fix>3d</fix>
</trkpt>
<trkpt lat="-27.2387696" lon="151.3640732">
  <ele>354.0</ele>
  <time>2026-09-01T20:01:55Z</time>
  <course>274.63</course>
  <speed>0.0</speed>
  <fix>3d</fix>
</trkpt>
<trkpt lat="-27.2387696" lon="151.3640732">
  <ele>354.0</ele>
  <time>2026-09-01T20:01:55Z</time>
  <course>19.43</course>
  <speed>0.0</speed>
  <fix>3d</fix>
</trkpt>
<trkpt lat="-27.2387696" lon="151.3640732">
  <ele>354.0</ele>
  <time>2026-09-01T20:01:55Z</time>
  <course>274.63</course>
  <speed>0.0</speed>
  <fix>3d</fix>
</trkpt>
<trkpt lat="-27.2387696" lon="151.3640732">
  <ele>354.0</ele>
  <time>2026-09-01T20:01:55Z</time>
  <course>19.43</course>
  <speed>0.0</speed>
  <fix>3d</fix>
</trkpt>
<trkpt lat="-27.2387696" lon="151.3640732">
  <ele>354.0</ele>
  <time>2026-09-01T20:01:55Z</time>
  <course>274.63</course>
  <speed>0.0</speed>
  <fix>3d</fix>
</trkpt>
<trkpt lat="-27.2387696" lon="151.3640732">
  <ele>354.0</ele>
  <time>2026-09-01T20:01:55Z</time>
  <course>122.95</course>
  <speed>0.0</speed>
  <fix>3d</fix>
</trkpt>
<trkpt lat="-27.2387696" lon="151.3640732">
  <ele>354.0</ele>
  <time>2026-09-01T20:01:55Z</time>
  <course>274.63</course>
  <speed>0.0</speed>
  <fix>3d</fix>
</trkpt>
<trkpt lat="-27.2387696" lon="151.3640732">
  <ele>354.0</ele>
  <time>2026-09-01T20:01:55Z</time>
  <course>122.95</course>
  <speed>0.0</speed>
  <fix>3d</fix>
</trkpt>
<trkpt lat="-27.2387696" lon="151.3640732">
  <ele>354.0</ele>
  <time>2026-09-01T20:01:55Z</time>
  <course>274.63</course>
  <speed>0.0</speed>
  <fix>3d</fix>
</trkpt>
<trkpt lat="-27.2387696" lon="151.3640732">
  <ele>354.0</ele>
  <time>2026-09-01T20:01:55Z</time>
  <course>118.29</course>
  <speed>0.0</speed>
  <fix>3d</fix>
</trkpt>
<trkpt lat="-27.2387696" lon="151.3640732">
  <ele>354.0</ele>
  <time>2026-09-01T20:01:55Z</time>
  <course>274.63</course>
  <speed>0.0</speed>
  <fix>3d</fix>
</trkpt>
<trkpt lat="-27.2387696" lon="151.3640732">
  <ele>354.0</ele>
  <time>2026-09-01T20:01:55Z</time>
  <course>118.29</course>
  <speed>0.0</speed>
  <fix>3d</fix>
</trkpt>
<trkpt lat="-27.2387696" lon="151.3640732">
  <ele>354.0</ele>
  <time>2026-09-01T20:01:55Z</time>
  <course>274.62</course>
  <speed>0.0</speed>
  <fix>3d</fix>
</trkpt>
<trkpt lat="-27.2387696" lon="151.3640732">
  <ele>354.0</ele>
  <time>2026-09-01T20:01:55Z</time>
  <course>32.04</course>
  <speed>0.0</speed>
  <fix>3d</fix>
</trkpt>
<trkpt lat="-27.2387696" lon="151.3640732">
  <ele>354.0</ele>
  <time>2026-09-01T20:01:55Z</time>
  <course>274.62</course>
  <speed>0.0</speed>
  <fix>3d</fix>
</trkpt>
<trkpt lat="-27.2387696" lon="151.3640732">
  <ele>354.0</ele>
  <time>2026-09-01T20:01:55Z</time>
  <course>32.04</course>
  <speed>0.0</speed>
  <fix>3d</fix>
</trkpt>
<trkpt lat="-27.2387696" lon="151.3640732">
  <ele>354.0</ele>
  <time>2026-09-01T20:01:55Z</time>
  <course>274.62</course>
  <speed>0.0</speed>
  <fix>3d</fix>
</trkpt>
<trkpt lat="-27.2387696" lon="151.3640732">
  <ele>354.0</ele>
  <time>2026-09-01T20:01:55Z</time>
  <course>23.56</course>
  <speed>0.0</speed>
  <fix>3d</fix>
</trkpt>
<trkpt lat="-27.2387696" lon="151.3640732">
  <ele>354.0</ele>
  <time>2026-09-01T20:01:55Z</time>
  <course>274.62</course>
  <speed>0.0</speed>
  <fix>3d</fix>
</trkpt>
<trkpt lat="-27.2387696" lon="151.3640732">
  <ele>354.0</ele>
  <time>2026-09-01T20:01:55Z</time>
  <course>23.56</course>
  <speed>0.0</speed>
  <fix>3d</fix>
</trkpt>
<trkpt lat="-27.2387696" lon="151.3640732">
  <ele>354.0</ele>
  <time>2026-09-01T20:01:55Z</time>
  <course>274.62</course>
  <speed>0.0</speed>
  <fix>3d</fix>
</trkpt>
<trkpt lat="-27.2387696" lon="151.3640732">
  <ele>354.0</ele>
  <time>2026-09-01T20:01:55Z</time>
  <course>9.66</course>
  <speed>0.0</speed>
  <fix>3d</fix>
</trkpt>
<trkpt lat="-27.2387696" lon="151.3640732">
  <ele>354.0</ele>
  <time>2026-09-01T20:01:55Z</time>
  <course>274.62</course>
  <speed>0.0</speed>
  <fix>3d</fix>
</trkpt>
<trkpt lat="-27.2387696" lon="151.3640732">
  <ele>354.0</ele>
  <time>2026-09-01T20:01:55Z</time>
  <course>9.66</course>
  <speed>0.0</speed>
  <fix>3d</fix>
</trkpt>
<trkpt lat="-27.2387696" lon="151.3640732">
  <ele>354.0</ele>
  <time>2026-09-01T20:01:55Z</time>
  <course>274.62</course>
  <speed>0.0</speed>
  <fix>3d</fix>
</trkpt>
<trkpt lat="-27.2387696" lon="151.3640732">
  <ele>354.0</ele>
  <time>2026-09-01T20:01:55Z</time>
  <course>64.23</course>
  <speed>0.0</speed>
  <fix>3d</fix>
</trkpt>
<trkpt lat="-27.2387696" lon="151.3640732">
  <ele>354.0</ele>
  <time>2026-09-01T20:01:55Z</time>
  <course>274.62</course>
  <speed>0.0</speed>
  <fix>3d</fix>
</trkpt>
<trkpt lat="-27.2387696" lon="151.3640732">
  <ele>354.0</ele>
  <time>2026-09-01T20:01:55Z</time>
  <course>64.23</course>
  <speed>0.0</speed>
  <fix>3d</fix>
</trkpt>
<trkpt lat="-27.2387696" lon="151.3640732">
  <ele>354.0</ele>
  <time>2026-09-01T20:01:55Z</time>
  <course>274.62</course>
  <speed>0.0</speed>
  <fix>3d</fix>
</trkpt>
<trkpt lat="-27.2387696" lon="151.3640732">
  <ele>354.0</ele>
  <time>2026-09-01T20:01:55Z</time>
  <course>39.27</course>
  <speed>0.0</speed>
  <fix>3d</fix>
</trkpt>
<trkpt lat="-27.2387696" lon="151.3640732">
  <ele>354.0</ele>
  <time>2026-09-01T20:01:55Z</time>
  <course>274.62</course>
  <speed>0.0</speed>
  <fix>3d</fix>
</trkpt>
<trkpt lat="-27.2387696" lon="151.3640732">
  <ele>354.0</ele>
  <time>2026-09-01T20:01:55Z</time>
  <course>39.27</course>
  <speed>0.0</speed>
  <fix>3d</fix>
</trkpt>
<trkpt lat="-27.2387696" lon="151.3640732">
  <ele>354.0</ele>
  <time>2026-09-01T20:01:55Z</time>
  <course>274.62</course>
  <speed>0.0</speed>
  <fix>3d</fix>
</trkpt>
<trkpt lat="-27.2387696" lon="151.3640732">
  <ele>354.0</ele>
  <time>2026-09-01T20:01:55Z</time>
  <course>16.67</course>
  <speed>0.0</speed>
  <fix>3d</fix>
</trkpt>
<trkpt lat="-27.2387696" lon="151.3640732">
  <ele>354.0</ele>
  <time>2026-09-01T20:01:55Z</time>
  <course>274.62</course>
  <speed>0.0</speed>
  <fix>3d</fix>
</trkpt>
<trkpt lat="-27.2387696" lon="151.3640732">
  <ele>354.0</ele>
  <time>2026-09-01T20:01:55Z</time>
  <course>16.67</course>
  <speed>0.0</speed>
  <fix>3d</fix>
</trkpt>
<trkpt lat="-27.2387696" lon="151.3640732">
  <ele>354.0</ele>
  <time>2026-09-01T20:01:55Z</time>
  <course>274.61</course>
  <speed>0.0</speed>
  <fix>3d</fix>
</trkpt>
<trkpt lat="-27.2387696" lon="151.3640732">
  <ele>354.0</ele>
  <time>2026-09-01T20:01:55Z</time>
  <course>12.52</course>
  <speed>0.0</speed>
  <fix>3d</fix>
</trkpt>
<trkpt lat="-27.2387696" lon="151.3640732">
  <ele>354.0</ele>
  <time>2026-09-01T20:01:55Z</time>
  <course>274.61</course>
  <speed>0.0</speed>
  <fix>3d</fix>
</trkpt>
<trkpt lat="-27.2387696" lon="151.3640732">
  <ele>354.0</ele>
  <time>2026-09-01T20:01:55Z</time>
  <course>12.52</course>
  <speed>0.0</speed>
  <fix>3d</fix>
</trkpt>
<trkpt lat="-27.2387696" lon="151.3640732">
  <ele>354.0</ele>
  <time>2026-09-01T20:01:55Z</time>
  <course>274.61</course>
  <speed>0.0</speed>
  <fix>3d</fix>
</trkpt>
<trkpt lat="-27.2387696" lon="151.3640732">
  <ele>354.0</ele>
  <time>2026-09-01T20:01:55Z</time>
  <course>26.73</course>
  <speed>0.0</speed>
  <fix>3d</fix>
</trkpt>
<trkpt lat="-27.2387696" lon="151.3640732">
  <ele>354.0</ele>
  <time>2026-09-01T20:01:55Z</time>
  <course>274.61</course>
  <speed>0.0</speed>
  <fix>3d</fix>
</trkpt>
<trkpt lat="-27.2387696" lon="151.3640732">
  <ele>354.0</ele>
  <time>2026-09-01T20:01:55Z</time>
  <course>26.73</course>
  <speed>0.0</speed>
  <fix>3d</fix>
</trkpt>
<trkpt lat="-27.2387696" lon="151.3640732">
  <ele>354.0</ele>
  <time>2026-09-01T20:01:55Z</time>
  <course>274.61</course>
  <speed>0.0</speed>
  <fix>3d</fix>
</trkpt>
<trkpt lat="-27.2387696" lon="151.3640732">
  <ele>354.0</ele>
  <time>2026-09-01T20:01:55Z</time>
  <course>118.21</course>
  <speed>0.0</speed>
  <fix>3d</fix>
</trkpt>
<trkpt lat="-27.2387696" lon="151.3640732">
  <ele>354.0</ele>
  <time>2026-09-01T20:01:55Z</time>
  <course>274.61</course>
  <speed>0.0</speed>
  <fix>3d</fix>
</trkpt>
<trkpt lat="-27.2387696" lon="151.3640732">
  <ele>354.0</ele>
  <time>2026-09-01T20:01:55Z</time>
  <course>118.21</course>
  <speed>0.0</speed>
  <fix>3d</fix>
</trkpt>
<trkpt lat="-27.2387696" lon="151.3640732">
  <ele>354.0</ele>
  <time>2026-09-01T20:01:55Z</time>
  <course>274.61</course>
  <speed>0.0</speed>
  <fix>3d</fix>
</trkpt>
<trkpt lat="-27.2387696" lon="151.3640732">
  <ele>354.0</ele>
  <time>2026-09-01T20:01:55Z</time>
  <course>60.61</course>
  <speed>0.0</speed>
  <fix>3d</fix>
</trkpt>
<trkpt lat="-27.2387696" lon="151.3640732">
  <ele>354.0</ele>
  <time>2026-09-01T20:01:55Z</time>
  <course>274.61</course>
  <speed>0.0</speed>
  <fix>3d</fix>
</trkpt>
<trkpt lat="-27.2387696" lon="151.3640732">
  <ele>354.0</ele>
  <time>2026-09-01T20:01:55Z</time>
  <course>60.61</course>
  <speed>0.0</speed>
  <fix>3d</fix>
</trkpt>
<trkpt lat="-27.2387696" lon="151.3640732">
  <ele>354.0</ele>
  <time>2026-09-01T20:01:55Z</time>
  <course>274.61</course>
  <speed>0.0</speed>
  <fix>3d</fix>
</trkpt>
<trkpt lat="-27.2387696" lon="151.3640732">
  <ele>354.0</ele>
  <time>2026-09-01T20:01:55Z</time>
  <course>18.11</course>
  <speed>0.0</speed>
  <fix>3d</fix>
</trkpt>
<trkpt lat="-27.2387696" lon="151.3640732">
  <ele>354.0</ele>
  <time>2026-09-01T20:01:55Z</time>
  <course>274.61</course>
  <speed>0.0</speed>
  <fix>3d</fix>
</trkpt>
<trkpt lat="-27.2387696" lon="151.3640732">
  <ele>354.0</ele>
  <time>2026-09-01T20:01:55Z</time>
  <course>18.11</course>
  <speed>0.0</speed>
  <fix>3d</fix>
</trkpt>
<trkpt lat="-27.2387696" lon="151.3640732">
  <ele>354.0</ele>
  <time>2026-09-01T20:01:55Z</time>
  <course>274.61</course>
  <speed>0.0</speed>
  <fix>3d</fix>
</trkpt>
<trkpt lat="-27.2387696" lon="151.3640732">
  <ele>354.0</ele>
  <time>2026-09-01T20:01:55Z</time>
  <course>2.09</course>
  <speed>0.0</speed>
  <fix>3d</fix>
</trkpt>
<trkpt lat="-27.2387696" lon="151.3640732">
  <ele>354.0</ele>
  <time>2026-09-01T20:01:55Z</time>
  <course>274.61</course>
  <speed>0.0</speed>
  <fix>3d</fix>
</trkpt>
<trkpt lat="-27.2387696" lon="151.3640732">
  <ele>354.0</ele>
  <time>2026-09-01T20:01:55Z</time>
  <course>2.09</course>
  <speed>0.0</speed>
  <fix>3d</fix>
</trkpt>
<trkpt lat="-27.2387696" lon="151.3640732">
  <ele>354.0</ele>
  <time>2026-09-01T20:01:55Z</time>
  <course>274.6</course>
  <speed>0.0</speed>
  <fix>3d</fix>
</trkpt>
<trkpt lat="-27.2387696" lon="151.3640732">
  <ele>354.0</ele>
  <time>2026-09-01T20:01:55Z</time>
  <course>70.71</course>
  <speed>0.0</speed>
  <fix>3d</fix>
</trkpt>
<trkpt lat="-27.2387696" lon="151.3640732">
  <ele>354.0</ele>
  <time>2026-09-01T20:01:55Z</time>
  <course>274.6</course>
  <speed>0.0</speed>
  <fix>3d</fix>
</trkpt>
<trkpt lat="-27.2387696" lon="151.3640732">
  <ele>354.0</ele>
  <time>2026-09-01T20:01:55Z</time>
  <course>70.71</course>
  <speed>0.0</speed>
  <fix>3d</fix>
</trkpt>
<trkpt lat="-27.2387696" lon="151.3640732">
  <ele>354.0</ele>
  <time>2026-09-01T20:01:55Z</time>
  <course>274.6</course>
  <speed>0.0</speed>
  <fix>3d</fix>
</trkpt>
<trkpt lat="-27.2387696" lon="151.3640732">
  <ele>354.0</ele>
  <time>2026-09-01T20:01:55Z</time>
  <course>43.86</course>
  <speed>0.0</speed>
  <fix>3d</fix>
</trkpt>
<trkpt lat="-27.2387696" lon="151.3640732">
  <ele>354.0</ele>
  <time>2026-09-01T20:01:55Z</time>
  <course>274.6</course>
  <speed>0.0</speed>
  <fix>3d</fix>
</trkpt>
<trkpt lat="-27.2387696" lon="151.3640732">
  <ele>354.0</ele>
  <time>2026-09-01T20:01:55Z</time>
  <course>43.86</course>
  <speed>0.0</speed>
  <fix>3d</fix>
</trkpt>
<trkpt lat="-27.2387696" lon="151.3640732">
  <ele>354.0</ele>
  <time>2026-09-01T20:01:55Z</time>
  <course>274.6</course>
  <speed>0.0</speed>
  <fix>3d</fix>
</trkpt>
<trkpt lat="-27.2387696" lon="151.3640732">
  <ele>354.0</ele>
  <time>2026-09-01T20:01:55Z</time>
  <course>18.73</course>
  <speed>0.0</speed>
  <fix>3d</fix>
</trkpt>
<trkpt lat="-27.2387696" lon="151.3640732">
  <ele>354.0</ele>
  <time>2026-09-01T20:01:55Z</time>
  <course>274.6</course>
  <speed>0.0</speed>
  <fix>3d</fix>
</trkpt>
<trkpt lat="-27.2387696" lon="151.3640732">
  <ele>354.0</ele>
  <time>2026-09-01T20:01:55Z</time>
  <course>18.73</course>
  <speed>0.0</speed>
  <fix>3d</fix>
</trkpt>
<trkpt lat="-27.2387696" lon="151.3640732">
  <ele>354.0</ele>
  <time>2026-09-01T20:01:55Z</time>
  <course>274.6</course>
  <speed>0.0</speed>
  <fix>3d</fix>
</trkpt>
<trkpt lat="-27.2387696" lon="151.3640732">
  <ele>354.0</ele>
  <time>2026-09-01T20:01:55Z</time>
  <course>7.82</course>
  <speed>0.0</speed>
  <fix>3d</fix>
</trkpt>
<trkpt lat="-27.2387696" lon="151.3640732">
  <ele>354.0</ele>
  <time>2026-09-01T20:01:55Z</time>
  <course>274.6</course>
  <speed>0.0</speed>
  <fix>3d</fix>
</trkpt>
<trkpt lat="-27.2387696" lon="151.3640732">
  <ele>354.0</ele>
  <time>2026-09-01T20:01:55Z</time>
  <course>7.82</course>
  <speed>0.0</speed>
  <fix>3d</fix>
</trkpt>
<trkpt lat="-27.2387696" lon="151.3640732">
  <ele>354.0</ele>
  <time>2026-09-01T20:01:55Z</time>
  <course>274.6</course>
  <speed>0.0</speed>
  <fix>3d</fix>
</trkpt>
<trkpt lat="-27.2387696" lon="151.3640732">
  <ele>354.0</ele>
  <time>2026-09-01T20:01:55Z</time>
  <course>28.6</course>
  <speed>0.0</speed>
  <fix>3d</fix>
</trkpt>
<trkpt lat="-27.2387696" lon="151.3640732">
  <ele>354.0</ele>
  <time>2026-09-01T20:01:55Z</time>
  <course>274.6</course>
  <speed>0.0</speed>
  <fix>3d</fix>
</trkpt>
<trkpt lat="-27.2387696" lon="151.3640732">
  <ele>354.0</ele>
  <time>2026-09-01T20:01:55Z</time>
  <course>28.6</course>
  <speed>0.0</speed>
  <fix>3d</fix>
</trkpt>
<trkpt lat="-27.2387696" lon="151.3640732">
  <ele>354.0</ele>
  <time>2026-09-01T20:01:55Z</time>
  <course>274.6</course>
  <speed>0.0</speed>
  <fix>3d</fix>
</trkpt>
<trkpt lat="-27.2387696" lon="151.3640732">
  <ele>354.0</ele>
  <time>2026-09-01T20:01:55Z</time>
  <course>50.09</course>
  <speed>0.0</speed>
  <fix>3d</fix>
</trkpt>
<trkpt lat="-27.2387696" lon="151.3640732">
  <ele>354.0</ele>
  <time>2026-09-01T20:01:55Z</time>
  <course>274.6</course>
  <speed>0.0</speed>
  <fix>3d</fix>
</trkpt>
<trkpt lat="-27.2387696" lon="151.3640732">
  <ele>354.0</ele>
  <time>2026-09-01T20:01:55Z</time>
  <course>50.09</course>
  <speed>0.0</speed>
  <fix>3d</fix>
</trkpt>
<trkpt lat="-27.2387696" lon="151.3640732">
  <ele>354.0</ele>
  <time>2026-09-01T20:01:55Z</time>
  <course>274.6</course>
  <speed>0.0</speed>
  <fix>3d</fix>
</trkpt>
<trkpt lat="-27.2387696" lon="151.3640732">
  <ele>354.0</ele>
  <time>2026-09-01T20:01:55Z</time>
  <course>60.64</course>
  <speed>0.0</speed>
  <fix>3d</fix>
</trkpt>
<trkpt lat="-27.2387696" lon="151.3640732">
  <ele>354.0</ele>
  <time>2026-09-01T20:01:55Z</time>
  <course>274.59</course>
  <speed>0.0</speed>
  <fix>3d</fix>
</trkpt>
<trkpt lat="-27.2387696" lon="151.3640732">
  <ele>354.0</ele>
  <time>2026-09-01T20:01:55Z</time>
  <course>60.64</course>
  <speed>0.0</speed>
  <fix>3d</fix>
</trkpt>
<trkpt lat="-27.2387696" lon="151.3640732">
  <ele>354.0</ele>
  <time>2026-09-01T20:01:55Z</time>
  <course>274.59</course>
  <speed>0.0</speed>
  <fix>3d</fix>
</trkpt>
<trkpt lat="-27.2387696" lon="151.3640732">
  <ele>354.0</ele>
  <time>2026-09-01T20:01:55Z</time>
  <course>43.76</course>
  <speed>0.0</speed>
  <fix>3d</fix>
</trkpt>
<trkpt lat="-27.2387696" lon="151.3640732">
  <ele>354.0</ele>
  <time>2026-09-01T20:01:55Z</time>
  <course>274.59</course>
  <speed>0.0</speed>
  <fix>3d</fix>
</trkpt>
<trkpt lat="-27.2387696" lon="151.3640732">
  <ele>354.0</ele>
  <time>2026-09-01T20:01:55Z</time>
  <course>43.76</course>
  <speed>0.0</speed>
  <fix>3d</fix>
</trkpt>
<trkpt lat="-27.2387696" lon="151.3640732">
  <ele>354.0</ele>
  <time>2026-09-01T20:01:55Z</time>
  <course>274.59</course>
  <speed>0.0</speed>
  <fix>3d</fix>
</trkpt>
<trkpt lat="-27.2387696" lon="151.3640732">
  <ele>354.0</ele>
  <time>2026-09-01T20:01:55Z</time>
  <course>348.77</course>
  <speed>0.0</speed>
  <fix>3d</fix>
</trkpt>
<trkpt lat="-27.2387696" lon="151.3640732">
  <ele>354.0</ele>
  <time>2026-09-01T20:01:55Z</time>
  <course>274.59</course>
  <speed>0.0</speed>
  <fix>3d</fix>
</trkpt>
<trkpt lat="-27.2387696" lon="151.3640732">
  <ele>354.0</ele>
  <time>2026-09-01T20:01:55Z</time>
  <course>348.77</course>
  <speed>0.0</speed>
  <fix>3d</fix>
</trkpt>
<trkpt lat="-27.2387696" lon="151.3640732">
  <ele>354.0</ele>
  <time>2026-09-01T20:01:55Z</time>
  <course>274.59</course>
  <speed>0.0</speed>
  <fix>3d</fix>
</trkpt>
<trkpt lat="-27.2387696" lon="151.3640732">
  <ele>354.0</ele>
  <time>2026-09-01T20:01:55Z</time>
  <course>39.56</course>
  <speed>0.0</speed>
  <fix>3d</fix>
</trkpt>
<trkpt lat="-27.2387696" lon="151.3640732">
  <ele>354.0</ele>
  <time>2026-09-01T20:01:55Z</time>
  <course>274.59</course>
  <speed>0.0</speed>
  <fix>3d</fix>
</trkpt>
<trkpt lat="-27.2387696" lon="151.3640732">
  <ele>354.0</ele>
  <time>2026-09-01T20:01:55Z</time>
  <course>39.56</course>
  <speed>0.0</speed>
  <fix>3d</fix>
</trkpt>
<trkpt lat="-27.2387696" lon="151.3640732">
  <ele>354.0</ele>
  <time>2026-09-01T20:01:55Z</time>
  <course>274.59</course>
  <speed>0.0</speed>
  <fix>3d</fix>
</trkpt>
<trkpt lat="-27.2387696" lon="151.3640732">
  <ele>354.0</ele>
  <time>2026-09-01T20:01:55Z</time>
  <course>33.09</course>
  <speed>0.0</speed>
  <fix>3d</fix>
</trkpt>
<trkpt lat="-27.2387696" lon="151.3640732">
  <ele>354.0</ele>
  <time>2026-09-01T20:01:55Z</time>
  <course>274.59</course>
  <speed>0.0</speed>
  <fix>3d</fix>
</trkpt>
<trkpt lat="-27.2387696" lon="151.3640732">
  <ele>354.0</ele>
  <time>2026-09-01T20:01:55Z</time>
  <course>33.09</course>
  <speed>0.0</speed>
  <fix>3d</fix>
</trkpt>
<trkpt lat="-27.2387696" lon="151.3640732">
  <ele>354.0</ele>
  <time>2026-09-01T20:01:55Z</time>
  <course>274.59</course>
  <speed>0.0</speed>
  <fix>3d</fix>
</trkpt>
<trkpt lat="-27.2387696" lon="151.3640732">
  <ele>354.0</ele>
  <time>2026-09-01T20:01:55Z</time>
  <course>33.08</course>
  <speed>0.0</speed>
  <fix>3d</fix>
</trkpt>
<trkpt lat="-27.2387696" lon="151.3640732">
  <ele>354.0</ele>
  <time>2026-09-01T20:01:55Z</time>
  <course>274.59</course>
  <speed>0.0</speed>
  <fix>3d</fix>
</trkpt>
<trkpt lat="-27.2387696" lon="151.3640732">
  <ele>354.0</ele>
  <time>2026-09-01T20:01:55Z</time>
  <course>33.08</course>
  <speed>0.0</speed>
  <fix>3d</fix>
</trkpt>
<trkpt lat="-27.2387696" lon="151.3640732">
  <ele>354.0</ele>
  <time>2026-09-01T20:01:55Z</time>
  <course>274.59</course>
  <speed>0.0</speed>
  <fix>3d</fix>
</trkpt>
<trkpt lat="-27.2387696" lon="151.3640732">
  <ele>354.0</ele>
  <time>2026-09-01T20:01:55Z</time>
  <course>213.0</course>
  <speed>0.0</speed>
  <fix>3d</fix>
</trkpt>
<trkpt lat="-27.2387696" lon="151.3640732">
  <ele>354.0</ele>
  <time>2026-09-01T20:01:55Z</time>
  <course>274.59</course>
  <speed>0.0</speed>
  <fix>3d</fix>
</trkpt>
<trkpt lat="-27.2387696" lon="151.3640732">
  <ele>354.0</ele>
  <time>2026-09-01T20:01:55Z</time>
  <course>213.0</course>
  <speed>0.0</speed>
  <fix>3d</fix>
</trkpt>
<trkpt lat="-27.2387696" lon="151.3640732">
  <ele>354.0</ele>
  <time>2026-09-01T20:01:55Z</time>
  <course>274.59</course>
  <speed>0.0</speed>
  <fix>3d</fix>
</trkpt>
<trkpt lat="-27.2387696" lon="151.3640732">
  <ele>354.0</ele>
  <time>2026-09-01T20:01:55Z</time>
  <course>213.09</course>
  <speed>0.0</speed>
  <fix>3d</fix>
</trkpt>
<trkpt lat="-27.2387696" lon="151.3640732">
  <ele>354.0</ele>
  <time>2026-09-01T20:01:55Z</time>
  <course>274.59</course>
  <speed>0.0</speed>
  <fix>3d</fix>
</trkpt>
<trkpt lat="-27.2387696" lon="151.3640732">
  <ele>354.0</ele>
  <time>2026-09-01T20:01:55Z</time>
  <course>213.09</course>
  <speed>0.0</speed>
  <fix>3d</fix>
</trkpt>
<trkpt lat="-27.2387696" lon="151.3640732">
  <ele>354.0</ele>
  <time>2026-09-01T20:01:55Z</time>
  <course>274.59</course>
  <speed>0.0</speed>
  <fix>3d</fix>
</trkpt>
<trkpt lat="-27.2387696" lon="151.3640732">
  <ele>354.0</ele>
  <time>2026-09-01T20:01:55Z</time>
  <course>33.03</course>
  <speed>0.0</speed>
  <fix>3d</fix>
</trkpt>
<trkpt lat="-27.2387696" lon="151.3640732">
  <ele>354.0</ele>
  <time>2026-09-01T20:01:55Z</time>
  <course>274.59</course>
  <speed>0.0</speed>
  <fix>3d</fix>
</trkpt>
<trkpt lat="-27.2387696" lon="151.3640732">
  <ele>354.0</ele>
  <time>2026-09-01T20:01:55Z</time>
  <course>33.03</course>
  <speed>0.0</speed>
  <fix>3d</fix>
</trkpt>
<trkpt lat="-27.2387696" lon="151.3640732">
  <ele>354.0</ele>
  <time>2026-09-01T20:01:55Z</time>
  <course>274.59</course>
  <speed>0.0</speed>
  <fix>3d</fix>
</trkpt>
<trkpt lat="-27.2387696" lon="151.3640732">
  <ele>354.0</ele>
  <time>2026-09-01T20:01:55Z</time>
  <course>33.11</course>
  <speed>0.0</speed>
  <fix>3d</fix>
</trkpt>
<trkpt lat="-27.2387696" lon="151.3640732">
  <ele>354.0</ele>
  <time>2026-09-01T20:01:55Z</time>
  <course>274.59</course>
  <speed>0.0</speed>
  <fix>3d</fix>
</trkpt>
<trkpt lat="-27.2387696" lon="151.3640732">
  <ele>354.0</ele>
  <time>2026-09-01T20:01:55Z</time>
  <course>33.11</course>
  <speed>0.0</speed>
  <fix>3d</fix>
</trkpt>
<trkpt lat="-27.2387696" lon="151.3640732">
  <ele>354.0</ele>
  <time>2026-09-01T20:01:55Z</time>
  <course>274.59</course>
  <speed>0.0</speed>
  <fix>3d</fix>
</trkpt>
<trkpt lat="-27.2387696" lon="151.3640732">
  <ele>354.0</ele>
  <time>2026-09-01T20:01:55Z</time>
  <course>213.05</course>
  <speed>0.0</speed>
  <fix>3d</fix>
</trkpt>
<trkpt lat="-27.2387696" lon="151.3640732">
  <ele>354.0</ele>
  <time>2026-09-01T20:01:55Z</time>
  <course>274.59</course>
  <speed>0.0</speed>
  <fix>3d</fix>
</trkpt>
<trkpt lat="-27.2387696" lon="151.3640732">
  <ele>354.0</ele>
  <time>2026-09-01T20:01:55Z</time>
  <course>213.05</course>
  <speed>0.0</speed>
  <fix>3d</fix>
</trkpt>
<trkpt lat="-27.2387696" lon="151.3640732">
  <ele>354.0</ele>
  <time>2026-09-01T20:01:55Z</time>
  <course>274.59</course>
  <speed>0.0</speed>
  <fix>3d</fix>
</trkpt>
<trkpt lat="-27.2387696" lon="151.3640732">
  <ele>354.0</ele>
  <time>2026-09-01T20:01:55Z</time>
  <course>213.16</course>
  <speed>0.0</speed>
  <fix>3d</fix>
</trkpt>
<trkpt lat="-27.2387696" lon="151.3640732">
  <ele>353.96</ele>
  <time>2026-09-01T20:01:55Z</time>
  <course>271.33</course>
  <speed>0.0</speed>
  <fix>3d</fix>
</trkpt>
<trkpt lat="-27.2387696" lon="151.3640732">
  <ele>354.0</ele>
  <time>2026-09-01T20:01:55Z</time>
  <course>213.16</course>
  <speed>0.0</speed>
  <fix>3d</fix>
</trkpt>
<trkpt lat="-27.2387696" lon="151.3640732">
  <ele>354.08</ele>
  <time>2026-09-01T20:01:55Z</time>
  <course>271.33</course>
  <speed>0.0</speed>
  <fix>3d</fix>
</trkpt>
<trkpt lat="-27.2387696" lon="151.3640732">
  <ele>354.0</ele>
  <time>2026-09-01T20:01:55Z</time>
  <course>33.06</course>
  <speed>0.0</speed>
  <fix>3d</fix>
</trkpt>
<trkpt lat="-27.2387696" lon="151.3640732">
  <ele>354.08</ele>
  <time>2026-09-01T20:01:55Z</time>
  <course>271.33</course>
  <speed>0.0</speed>
  <fix>3d</fix>
</trkpt>
<trkpt lat="-27.2387696" lon="151.3640732">
  <ele>354.0</ele>
  <time>2026-09-01T20:01:55Z</time>
  <course>33.06</course>
  <speed>0.0</speed>
  <fix>3d</fix>
</trkpt>
<trkpt lat="-27.2387696" lon="151.3640732">
  <ele>354.05</ele>
  <time>2026-09-01T20:01:55Z</time>
  <course>271.33</course>
  <speed>0.0</speed>
  <fix>3d</fix>
</trkpt>
<trkpt lat="-27.2387696" lon="151.3640732">
  <ele>354.0</ele>
  <time>2026-09-01T20:01:55Z</time>
  <course>38.26</course>
  <speed>0.0</speed>
  <fix>3d</fix>
</trkpt>
<trkpt lat="-27.2387696" lon="151.3640732">
  <ele>353.89</ele>
  <time>2026-09-01T20:01:55Z</time>
  <course>271.34</course>
  <speed>0.0</speed>
  <fix>3d</fix>
</trkpt>
<trkpt lat="-27.2387696" lon="151.3640732">
  <ele>354.0</ele>
  <time>2026-09-01T20:01:55Z</time>
  <course>38.26</course>
  <speed>0.0</speed>
  <fix>3d</fix>
</trkpt>
<trkpt lat="-27.2387696" lon="151.3640732">
  <ele>353.89</ele>
  <time>2026-09-01T20:01:55Z</time>
  <course>271.34</course>
  <speed>0.0</speed>
  <fix>3d</fix>
</trkpt>
<trkpt lat="-27.2387696" lon="151.3640732">
  <ele>354.0</ele>
  <time>2026-09-01T20:01:55Z</time>
  <course>213.07</course>
  <speed>0.0</speed>
  <fix>3d</fix>
</trkpt>
<trkpt lat="-27.2387696" lon="151.3640732">
  <ele>353.91</ele>
  <time>2026-09-01T20:01:55Z</time>
  <course>271.34</course>
  <speed>0.0</speed>
  <fix>3d</fix>
</trkpt>
<trkpt lat="-27.2387696" lon="151.3640732">
  <ele>354.0</ele>
  <time>2026-09-01T20:01:55Z</time>
  <course>213.07</course>
  <speed>0.0</speed>
  <fix>3d</fix>
</trkpt>
<trkpt lat="-27.2387696" lon="151.3640732">
  <ele>353.89</ele>
  <time>2026-09-01T20:01:55Z</time>
  <course>271.34</course>
  <speed>0.0</speed>
  <fix>3d</fix>
</trkpt>
<trkpt lat="-27.2387696" lon="151.3640732">
  <ele>354.0</ele>
  <time>2026-09-01T20:01:55Z</time>
  <course>32.97</course>
  <speed>0.0</speed>
  <fix>3d</fix>
</trkpt>
<trkpt lat="-27.2387696" lon="151.3640732">
  <ele>354.01</ele>
  <time>2026-09-01T20:01:55Z</time>
  <course>271.35</course>
  <speed>0.0</speed>
  <fix>3d</fix>
</trkpt>
<trkpt lat="-27.2387696" lon="151.3640732">
  <ele>354.0</ele>
  <time>2026-09-01T20:01:55Z</time>
  <course>32.97</course>
  <speed>0.0</speed>
  <fix>3d</fix>
</trkpt>
<trkpt lat="-27.2387696" lon="151.3640732">
  <ele>354.07</ele>
  <time>2026-09-01T20:01:55Z</time>
  <course>271.35</course>
  <speed>0.0</speed>
  <fix>3d</fix>
</trkpt>
<trkpt lat="-27.2387696" lon="151.3640732">
  <ele>354.0</ele>
  <time>2026-09-01T20:01:55Z</time>
  <course>33.08</course>
  <speed>0.0</speed>
  <fix>3d</fix>
</trkpt>
<trkpt lat="-27.2387696" lon="151.3640732">
  <ele>354.11</ele>
  <time>2026-09-01T20:01:55Z</time>
  <course>271.35</course>
  <speed>0.0</speed>
  <fix>3d</fix>
</trkpt>
<trkpt lat="-27.2387696" lon="151.3640732">
  <ele>354.0</ele>
  <time>2026-09-01T20:01:55Z</time>
  <course>33.08</course>
  <speed>0.0</speed>
  <fix>3d</fix>
</trkpt>
<trkpt lat="-27.2387696" lon="151.3640732">
  <ele>353.87</ele>
  <time>2026-09-01T20:01:55Z</time>
  <course>271.35</course>
  <speed>0.0</speed>
  <fix>3d</fix>
</trkpt>
<trkpt lat="-27.2387696" lon="151.3640732">
  <ele>354.0</ele>
  <time>2026-09-01T20:01:55Z</time>
  <course>213.03</course>
  <speed>0.0</speed>
  <fix>3d</fix>
</trkpt>
<trkpt lat="-26.9720619" lon="149.6127921">
  <ele>339.29</ele>
  <time>2026-09-01T20:01:55Z</time>
  <course>310.27</course>
  <speed>0.0</speed>
  <fix>3d</fix>
</trkpt>
<trkpt lat="-26.9720619" lon="149.6127921">
  <ele>339.29</ele>
  <time>2026-09-01T20:01:55Z</time>
  <course>310.27</course>
  <speed>0.0</speed>
  <fix>3d</fix>
</trkpt>
<trkpt lat="-27.274439" lon="151.290064">
  <ele>-0.01</ele>
  <time>2026-09-01T20:01:55Z</time>
  <course>0.22</course>
  <speed>0.0</speed>
  <fix>3d</fix>
</trkpt>
<trkpt lat="-27.274439" lon="151.290064">
  <ele>343.1</ele>
  <time>2026-09-01T20:01:55Z</time>
  <course>294.58</course>
  <speed>0.0</speed>
  <fix>3d</fix>
</trkpt>
<trkpt lat="-27.274439" lon="151.290064">
  <ele>0.02</ele>
  <time>2026-09-01T20:01:56Z</time>
  <course>1.2</course>
  <speed>0.0</speed>
  <fix>3d</fix>
</trkpt>
<trkpt lat="-27.274439" lon="151.290064">
  <ele>343.1</ele>
  <time>2026-09-01T20:01:56Z</time>
  <course>294.58</course>
  <speed>0.0</speed>
  <fix>3d</fix>
</trkpt>
<trkpt lat="-27.274439" lon="151.290064">
  <ele>-0.08</ele>
  <time>2026-09-01T20:01:56Z</time>
  <course>2.1</course>
  <speed>0.0</speed>
  <fix>3d</fix>
</trkpt>
<trkpt lat="-27.274439" lon="151.290064">
  <ele>343.1</ele>
  <time>2026-09-01T20:01:56Z</time>
  <course>273.33</course>
  <speed>0.0</speed>
  <fix>3d</fix>
</trkpt>
<trkpt lat="-27.274439" lon="151.290064">
  <ele>0.22</ele>
  <time>2026-09-01T20:01:56Z</time>
  <course>2.92</course>
  <speed>0.0</speed>
  <fix>3d</fix>
</trkpt>
<trkpt lat="-27.274439" lon="151.290064">
  <ele>343.1</ele>
  <time>2026-09-01T20:01:56Z</time>
  <course>273.33</course>
  <speed>0.0</speed>
  <fix>3d</fix>
</trkpt>
<trkpt lat="-27.274439" lon="151.290064">
  <ele>0.09</ele>
  <time>2026-09-01T20:01:56Z</time>
  <course>3.66</course>
  <speed>0.0</speed>
  <fix>3d</fix>
</trkpt>
<trkpt lat="-27.274439" lon="151.290064">
  <ele>343.1</ele>
  <time>2026-09-01T20:01:56Z</time>
  <course>270.44</course>
  <speed>0.0</speed>
  <fix>3d</fix>
</trkpt>
<trkpt lat="-27.274439" lon="151.290064">
  <ele>0.08</ele>
  <time>2026-09-01T20:01:56Z</time>
  <course>4.34</course>
  <speed>0.0</speed>
  <fix>3d</fix>
</trkpt>
<trkpt lat="-27.274439" lon="151.290064">
  <ele>343.1</ele>
  <time>2026-09-01T20:01:56Z</time>
  <course>270.44</course>
  <speed>0.0</speed>
  <fix>3d</fix>
</trkpt>
<trkpt lat="-27.274439" lon="151.290064">
  <ele>0.09</ele>
  <time>2026-09-01T20:01:56Z</time>
  <course>4.95</course>
  <speed>0.0</speed>
  <fix>3d</fix>
</trkpt>
<trkpt lat="-27.274439" lon="151.290064">
  <ele>343.1</ele>
  <time>2026-09-01T20:01:56Z</time>
  <course>270.05</course>
  <speed>0.0</speed>
  <fix>3d</fix>
</trkpt>
<trkpt lat="-27.274439" lon="151.290064">
  <ele>-0.05</ele>
  <time>2026-09-01T20:01:56Z</time>
  <course>5.5</course>
  <speed>0.0</speed>
  <fix>3d</fix>
</trkpt>
<trkpt lat="-27.274439" lon="151.290064">
  <ele>343.1</ele>
  <time>2026-09-01T20:01:56Z</time>
  <course>270.05</course>
  <speed>0.0</speed>
  <fix>3d</fix>
</trkpt>
<trkpt lat="-27.274439" lon="151.290064">
  <ele>343.06</ele>
  <time>2026-09-01T20:01:56Z</time>
  <course>5.98</course>
  <speed>0.0</speed>
  <fix>3d</fix>
</trkpt>
<trkpt lat="-27.274439" lon="151.290064">
  <ele>343.1</ele>
  <time>2026-09-01T20:01:56Z</time>
  <course>270.0</course>
  <speed>0.0</speed>
  <fix>3d</fix>
</trkpt>
<trkpt lat="-27.274439" lon="151.290064">
  <ele>343.18</ele>
  <time>2026-09-01T20:01:56Z</time>
  <course>6.44</course>
  <speed>0.0</speed>
  <fix>3d</fix>
</trkpt>
<trkpt lat="-27.274439" lon="151.290064">
  <ele>343.1</ele>
  <time>2026-09-01T20:01:56Z</time>
  <course>270.0</course>
  <speed>0.0</speed>
  <fix>3d</fix>
</trkpt>
<trkpt lat="-27.274439" lon="151.290064">
  <ele>342.91</ele>
  <time>2026-09-01T20:01:56Z</time>
  <course>6.85</course>
  <speed>0.0</speed>
  <fix>3d</fix>
</trkpt>
<trkpt lat="-27.274439" lon="151.290064">
  <ele>343.1</ele>
  <time>2026-09-01T20:01:56Z</time>
  <course>270.0</course>
  <speed>0.0</speed>
  <fix>3d</fix>
</trkpt>
<trkpt lat="-27.274439" lon="151.290064">
  <ele>343.06</ele>
  <time>2026-09-01T20:01:56Z</time>
  <course>7.22</course>
  <speed>0.0</speed>
  <fix>3d</fix>
</trkpt>
<trkpt lat="-27.274439" lon="151.290064">
  <ele>343.1</ele>
  <time>2026-09-01T20:01:56Z</time>
  <course>270.0</course>
  <speed>0.0</speed>
  <fix>3d</fix>
</trkpt>
<trkpt lat="-27.274439" lon="151.290064">
  <ele>343.13</ele>
  <time>2026-09-01T20:01:56Z</time>
  <course>7.56</course>
  <speed>0.0</speed>
  <fix>3d</fix>
</trkpt>
<trkpt lat="-27.274439" lon="151.290064">
  <ele>343.1</ele>
  <time>2026-09-01T20:01:56Z</time>
  <course>270.0</course>
  <speed>0.0</speed>
  <fix>3d</fix>
</trkpt>
<trkpt lat="-27.274439" lon="151.290064">
  <ele>343.04</ele>
  <time>2026-09-01T20:01:56Z</time>
  <course>7.87</course>
  <speed>0.0</speed>
  <fix>3d</fix>
</trkpt>
<trkpt lat="-27.274439" lon="151.290064">
  <ele>343.1</ele>
  <time>2026-09-01T20:01:56Z</time>
  <course>270.0</course>
  <speed>0.0</speed>
  <fix>3d</fix>
</trkpt>
<trkpt lat="-27.274439" lon="151.290064">
  <ele>342.88</ele>
  <time>2026-09-01T20:01:56Z</time>
  <course>8.14</course>
  <speed>0.0</speed>
  <fix>3d</fix>
</trkpt>
<trkpt lat="-27.274439" lon="151.290064">
  <ele>343.1</ele>
  <time>2026-09-01T20:01:56Z</time>
  <course>270.0</course>
  <speed>0.0</speed>
  <fix>3d</fix>
</trkpt>
<trkpt lat="-27.274439" lon="151.290064">
  <ele>343.02</ele>
  <time>2026-09-01T20:01:56Z</time>
  <course>8.39</course>
  <speed>0.0</speed>
  <fix>3d</fix>
</trkpt>
<trkpt lat="-27.274439" lon="151.290064">
  <ele>343.1</ele>
  <time>2026-09-01T20:01:56Z</time>
  <course>270.0</course>
  <speed>0.0</speed>
  <fix>3d</fix>
</trkpt>
<trkpt lat="-27.274439" lon="151.290064">
  <ele>343.23</ele>
  <time>2026-09-01T20:01:56Z</time>
  <course>8.63</course>
  <speed>0.0</speed>
  <fix>3d</fix>
</trkpt>
<trkpt lat="-27.274439" lon="151.290064">
  <ele>343.1</ele>
  <time>2026-09-01T20:01:56Z</time>
  <course>270.0</course>
  <speed>0.0</speed>
  <fix>3d</fix>
</trkpt>
<trkpt lat="-27.274439" lon="151.290064">
  <ele>343.17</ele>
  <time>2026-09-01T20:01:56Z</time>
  <course>8.83</course>
  <speed>0.0</speed>
  <fix>3d</fix>
</trkpt>
<trkpt lat="-27.274439" lon="151.290064">
  <ele>343.1</ele>
  <time>2026-09-01T20:01:56Z</time>
  <course>270.0</course>
  <speed>0.0</speed>
  <fix>3d</fix>
</trkpt>
<trkpt lat="-27.274439" lon="151.290064">
  <ele>343.04</ele>
  <time>2026-09-01T20:01:56Z</time>
  <course>9.01</course>
  <speed>0.0</speed>
  <fix>3d</fix>
</trkpt>
<trkpt lat="-27.274439" lon="151.290064">
  <ele>343.1</ele>
  <time>2026-09-01T20:01:56Z</time>
  <course>270.0</course>
  <speed>0.0</speed>
  <fix>3d</fix>
</trkpt>
<trkpt lat="-27.274439" lon="151.290064">
  <ele>342.89</ele>
  <time>2026-09-01T20:01:56Z</time>
  <course>9.18</course>
  <speed>0.0</speed>
  <fix>3d</fix>
</trkpt>
<trkpt lat="-27.274439" lon="151.290064">
  <ele>343.1</ele>
  <time>2026-09-01T20:01:56Z</time>
  <course>270.0</course>
  <speed>0.0</speed>
  <fix>3d</fix>
</trkpt>
<trkpt lat="-27.274439" lon="151.290064">
  <ele>343.08</ele>
  <time>2026-09-01T20:01:56Z</time>
  <course>9.33</course>
  <speed>0.0</speed>
  <fix>3d</fix>
</trkpt>
<trkpt lat="-27.274439" lon="151.290064">
  <ele>343.1</ele>
  <time>2026-09-01T20:01:56Z</time>
  <course>270.0</course>
  <speed>0.0</speed>
  <fix>3d</fix>
</trkpt>
<trkpt lat="-27.274439" lon="151.290064">
  <ele>343.19</ele>
  <time>2026-09-01T20:01:56Z</time>
  <course>9.47</course>
  <speed>0.0</speed>
  <fix>3d</fix>
</trkpt>
<trkpt lat="-27.274439" lon="151.290064">
  <ele>343.1</ele>
  <time>2026-09-01T20:01:56Z</time>
  <course>270.0</course>
  <speed>0.0</speed>
  <fix>3d</fix>
</trkpt>
<trkpt lat="-27.274439" lon="151.290064">
  <ele>342.88</ele>
  <time>2026-09-01T20:01:56Z</time>
  <course>9.59</course>
  <speed>0.0</speed>
  <fix>3d</fix>
</trkpt>
<trkpt lat="-27.274439" lon="151.290064">
  <ele>343.1</ele>
  <time>2026-09-01T20:01:56Z</time>
  <course>270.0</course>
  <speed>0.0</speed>
  <fix>3d</fix>
</trkpt>
<trkpt lat="-27.274439" lon="151.290064">
  <ele>343.17</ele>
  <time>2026-09-01T20:01:56Z</time>
  <course>9.7</course>
  <speed>0.0</speed>
  <fix>3d</fix>
</trkpt>
<trkpt lat="-27.274439" lon="151.290064">
  <ele>343.1</ele>
  <time>2026-09-01T20:01:56Z</time>
  <course>270.0</course>
  <speed>0.0</speed>
  <fix>3d</fix>
</trkpt>
<trkpt lat="-27.274439" lon="151.290064">
  <ele>342.89</ele>
  <time>2026-09-01T20:01:56Z</time>
  <course>9.8</course>
  <speed>0.0</speed>
  <fix>3d</fix>
</trkpt>
<trkpt lat="-27.274439" lon="151.290064">
  <ele>343.1</ele>
  <time>2026-09-01T20:01:56Z</time>
  <course>270.0</course>
  <speed>0.0</speed>
  <fix>3d</fix>
</trkpt>
<trkpt lat="-27.274439" lon="151.290064">
  <ele>342.99</ele>
  <time>2026-09-01T20:01:56Z</time>
  <course>9.9</course>
  <speed>0.0</speed>
  <fix>3d</fix>
</trkpt>
<trkpt lat="-27.274439" lon="151.290064">
  <ele>343.1</ele>
  <time>2026-09-01T20:01:56Z</time>
  <course>270.0</course>
  <speed>0.0</speed>
  <fix>3d</fix>
</trkpt>
<trkpt lat="-27.274439" lon="151.290064">
  <ele>342.87</ele>
  <time>2026-09-01T20:01:56Z</time>
  <course>9.98</course>
  <speed>0.0</speed>
  <fix>3d</fix>
</trkpt>
<trkpt lat="-27.274439" lon="151.290064">
  <ele>343.1</ele>
  <time>2026-09-01T20:01:56Z</time>
  <course>270.0</course>
  <speed>0.0</speed>
  <fix>3d</fix>
</trkpt>
<trkpt lat="-27.274439" lon="151.290064">
  <ele>343.09</ele>
  <time>2026-09-01T20:01:56Z</time>
  <course>10.06</course>
  <speed>0.0</speed>
  <fix>3d</fix>
</trkpt>
<trkpt lat="-27.274439" lon="151.290064">
  <ele>343.1</ele>
  <time>2026-09-01T20:01:56Z</time>
  <course>270.0</course>
  <speed>0.0</speed>
  <fix>3d</fix>
</trkpt>
<trkpt lat="-27.274439" lon="151.290064">
  <ele>343.18</ele>
  <time>2026-09-01T20:01:56Z</time>
  <course>10.13</course>
  <speed>0.0</speed>
  <fix>3d</fix>
</trkpt>
<trkpt lat="-27.274439" lon="151.290064">
  <ele>343.1</ele>
  <time>2026-09-01T20:01:56Z</time>
  <course>270.0</course>
  <speed>0.0</speed>
  <fix>3d</fix>
</trkpt>
<trkpt lat="-27.274439" lon="151.290064">
  <ele>343.05</ele>
  <time>2026-09-01T20:01:56Z</time>
  <course>10.2</course>
  <speed>0.0</speed>
  <fix>3d</fix>
</trkpt>
<trkpt lat="-27.274439" lon="151.290064">
  <ele>343.1</ele>
  <time>2026-09-01T20:01:56Z</time>
  <course>270.0</course>
  <speed>0.0</speed>
  <fix>3d</fix>
</trkpt>
<trkpt lat="-27.274439" lon="151.290064">
  <ele>342.96</ele>
  <time>2026-09-01T20:01:56Z</time>
  <course>10.25</course>
  <speed>0.0</speed>
  <fix>3d</fix>
</trkpt>
<trkpt lat="-27.274439" lon="151.290064">
  <ele>343.1</ele>
  <time>2026-09-01T20:01:56Z</time>
  <course>270.0</course>
  <speed>0.0</speed>
  <fix>3d</fix>
</trkpt>
<trkpt lat="-27.274439" lon="151.290064">
  <ele>343.1</ele>
  <time>2026-09-01T20:01:56Z</time>
  <course>10.31</course>
  <speed>0.0</speed>
  <fix>3d</fix>
</trkpt>
<trkpt lat="-27.274439" lon="151.290064">
  <ele>343.1</ele>
  <time>2026-09-01T20:01:56Z</time>
  <course>270.0</course>
  <speed>0.0</speed>
  <fix>3d</fix>
</trkpt>
<trkpt lat="-27.274439" lon="151.290064">
  <ele>343.22</ele>
  <time>2026-09-01T20:01:56Z</time>
  <course>10.35</course>
  <speed>0.0</speed>
  <fix>3d</fix>
</trkpt>
<trkpt lat="-27.274439" lon="151.290064">
  <ele>343.1</ele>
  <time>2026-09-01T20:01:56Z</time>
  <course>270.0</course>
  <speed>0.0</speed>
  <fix>3d</fix>
</trkpt>
<trkpt lat="-27.274439" lon="151.290064">
  <ele>343.17</ele>
  <time>2026-09-01T20:01:56Z</time>
  <course>10.4</course>
  <speed>0.0</speed>
  <fix>3d</fix>
</trkpt>
<trkpt lat="-27.274439" lon="151.290064">
  <ele>343.1</ele>
  <time>2026-09-01T20:01:56Z</time>
  <course>270.0</course>
  <speed>0.0</speed>
  <fix>3d</fix>
</trkpt>
<trkpt lat="-27.274439" lon="151.290064">
  <ele>343.08</ele>
  <time>2026-09-01T20:01:56Z</time>
  <course>10.44</course>
  <speed>0.0</speed>
  <fix>3d</fix>
</trkpt>
<trkpt lat="-27.274439" lon="151.290064">
  <ele>343.1</ele>
  <time>2026-09-01T20:01:56Z</time>
  <course>270.0</course>
  <speed>0.0</speed>
  <fix>3d</fix>
</trkpt>
<trkpt lat="-27.274439" lon="151.290064">
  <ele>343.04</ele>
  <time>2026-09-01T20:01:56Z</time>
  <course>10.47</course>
  <speed>0.0</speed>
  <fix>3d</fix>
</trkpt>
<trkpt lat="-27.274439" lon="151.290064">
  <ele>343.1</ele>
  <time>2026-09-01T20:01:56Z</time>
  <course>270.0</course>
  <speed>0.0</speed>
  <fix>3d</fix>
</trkpt>
<trkpt lat="-27.274439" lon="151.290064">
  <ele>343.18</ele>
  <time>2026-09-01T20:01:56Z</time>
  <course>10.5</course>
  <speed>0.0</speed>
  <fix>3d</fix>
</trkpt>
<trkpt lat="-27.274439" lon="151.290064">
  <ele>343.1</ele>
  <time>2026-09-01T20:01:56Z</time>
  <course>270.0</course>
  <speed>0.0</speed>
  <fix>3d</fix>
</trkpt>
<trkpt lat="-27.274439" lon="151.290064">
  <ele>343.12</ele>
  <time>2026-09-01T20:01:56Z</time>
  <course>10.53</course>
  <speed>0.0</speed>
  <fix>3d</fix>
</trkpt>
<trkpt lat="-27.274439" lon="151.290064">
  <ele>343.1</ele>
  <time>2026-09-01T20:01:56Z</time>
  <course>270.0</course>
  <speed>0.0</speed>
  <fix>3d</fix>
</trkpt>
<trkpt lat="-27.274439" lon="151.290064">
  <ele>343.04</ele>
  <time>2026-09-01T20:01:56Z</time>
  <course>10.56</course>
  <speed>0.0</speed>
  <fix>3d</fix>
</trkpt>
<trkpt lat="-27.274439" lon="151.290064">
  <ele>343.1</ele>
  <time>2026-09-01T20:01:56Z</time>
  <course>270.0</course>
  <speed>0.0</speed>
  <fix>3d</fix>
</trkpt>
<trkpt lat="-27.274439" lon="151.290064">
  <ele>343.07</ele>
  <time>2026-09-01T20:01:56Z</time>
  <course>10.58</course>
  <speed>0.0</speed>
  <fix>3d</fix>
</trkpt>
<trkpt lat="-27.274439" lon="151.290064">
  <ele>343.1</ele>
  <time>2026-09-01T20:01:56Z</time>
  <course>270.0</course>
  <speed>0.0</speed>
  <fix>3d</fix>
</trkpt>
<trkpt lat="-27.274439" lon="151.290064">
  <ele>343.04</ele>
  <time>2026-09-01T20:01:56Z</time>
  <course>10.6</course>
  <speed>0.0</speed>
  <fix>3d</fix>
</trkpt>
<trkpt lat="-27.274439" lon="151.290064">
  <ele>343.1</ele>
  <time>2026-09-01T20:01:56Z</time>
  <course>270.0</course>
  <speed>0.0</speed>
  <fix>3d</fix>
</trkpt>
<trkpt lat="-27.274439" lon="151.290064">
  <ele>343.01</ele>
  <time>2026-09-01T20:01:56Z</time>
  <course>10.62</course>
  <speed>0.0</speed>
  <fix>3d</fix>
</trkpt>
<trkpt lat="-27.274439" lon="151.290064">
  <ele>343.1</ele>
  <time>2026-09-01T20:01:56Z</time>
  <course>270.0</course>
  <speed>0.0</speed>
  <fix>3d</fix>
</trkpt>
<trkpt lat="-27.274439" lon="151.290064">
  <ele>343.2</ele>
  <time>2026-09-01T20:01:56Z</time>
  <course>10.64</course>
  <speed>0.0</speed>
  <fix>3d</fix>
</trkpt>
<trkpt lat="-27.274439" lon="151.290064">
  <ele>343.1</ele>
  <time>2026-09-01T20:01:56Z</time>
  <course>270.0</course>
  <speed>0.0</speed>
  <fix>3d</fix>
</trkpt>
<trkpt lat="-27.274439" lon="151.290064">
  <ele>343.24</ele>
  <time>2026-09-01T20:01:56Z</time>
  <course>10.65</course>
  <speed>0.0</speed>
  <fix>3d</fix>
</trkpt>
<trkpt lat="-27.274439" lon="151.290064">
  <ele>343.1</ele>
  <time>2026-09-01T20:01:56Z</time>
  <course>270.0</course>
  <speed>0.0</speed>
  <fix>3d</fix>
</trkpt>
<trkpt lat="-27.274439" lon="151.290064">
  <ele>342.88</ele>
  <time>2026-09-01T20:01:56Z</time>
  <course>10.67</course>
  <speed>0.0</speed>
  <fix>3d</fix>
</trkpt>
<trkpt lat="-27.274439" lon="151.290064">
  <ele>343.1</ele>
  <time>2026-09-01T20:01:56Z</time>
  <course>270.0</course>
  <speed>0.0</speed>
  <fix>3d</fix>
</trkpt>
<trkpt lat="-27.274439" lon="151.290064">
  <ele>343.21</ele>
  <time>2026-09-01T20:01:56Z</time>
  <course>10.68</course>
  <speed>0.0</speed>
  <fix>3d</fix>
</trkpt>
<trkpt lat="-27.274439" lon="151.290064">
  <ele>343.1</ele>
  <time>2026-09-01T20:01:56Z</time>
  <course>270.0</course>
  <speed>0.0</speed>
  <fix>3d</fix>
</trkpt>
<trkpt lat="-27.274439" lon="151.290064">
  <ele>343.02</ele>
  <time>2026-09-01T20:01:56Z</time>
  <course>10.69</course>
  <speed>0.0</speed>
  <fix>3d</fix>
</trkpt>
<trkpt lat="-27.274439" lon="151.290064">
  <ele>343.1</ele>
  <time>2026-09-01T20:01:56Z</time>
  <course>270.0</course>
  <speed>0.0</speed>
  <fix>3d</fix>
</trkpt>
<trkpt lat="-27.274439" lon="151.290064">
  <ele>342.93</ele>
  <time>2026-09-01T20:01:56Z</time>
  <course>10.7</course>
  <speed>0.0</speed>
  <fix>3d</fix>
</trkpt>
<trkpt lat="-27.274439" lon="151.290064">
  <ele>343.1</ele>
  <time>2026-09-01T20:01:56Z</time>
  <course>270.0</course>
  <speed>0.0</speed>
  <fix>3d</fix>
</trkpt>
<trkpt lat="-27.274439" lon="151.290064">
  <ele>343.07</ele>
  <time>2026-09-01T20:01:56Z</time>
  <course>10.71</course>
  <speed>0.0</speed>
  <fix>3d</fix>
</trkpt>
<trkpt lat="-27.274439" lon="151.290064">
  <ele>343.1</ele>
  <time>2026-09-01T20:01:56Z</time>
  <course>270.0</course>
  <speed>0.0</speed>
  <fix>3d</fix>
</trkpt>
<trkpt lat="-27.274439" lon="151.290064">
  <ele>342.94</ele>
  <time>2026-09-01T20:01:56Z</time>
  <course>10.72</course>
  <speed>0.0</speed>
  <fix>3d</fix>
</trkpt>
<trkpt lat="-27.274439" lon="151.290064">
  <ele>343.1</ele>
  <time>2026-09-01T20:01:56Z</time>
  <course>270.0</course>
  <speed>0.0</speed>
  <fix>3d</fix>
</trkpt>
<trkpt lat="-27.274439" lon="151.290064">
  <ele>343.11</ele>
  <time>2026-09-01T20:01:56Z</time>
  <course>10.73</course>
  <speed>0.0</speed>
  <fix>3d</fix>
</trkpt>
<trkpt lat="-27.274439" lon="151.290064">
  <ele>343.1</ele>
  <time>2026-09-01T20:01:56Z</time>
  <course>270.0</course>
  <speed>0.0</speed>
  <fix>3d</fix>
</trkpt>
<trkpt lat="-27.274439" lon="151.290064">
  <ele>343.24</ele>
  <time>2026-09-01T20:01:56Z</time>
  <course>10.73</course>
  <speed>0.0</speed>
  <fix>3d</fix>
</trkpt>
<trkpt lat="-27.274439" lon="151.290064">
  <ele>343.1</ele>
  <time>2026-09-01T20:01:56Z</time>
  <course>270.0</course>
  <speed>0.0</speed>
  <fix>3d</fix>
</trkpt>
<trkpt lat="-27.274439" lon="151.290064">
  <ele>343.18</ele>
  <time>2026-09-01T20:01:56Z</time>
  <course>10.74</course>
  <speed>0.0</speed>
  <fix>3d</fix>
</trkpt>
<trkpt lat="-27.274439" lon="151.290064">
  <ele>343.1</ele>
  <time>2026-09-01T20:01:56Z</time>
  <course>270.0</course>
  <speed>0.0</speed>
  <fix>3d</fix>
</trkpt>
<trkpt lat="-27.274439" lon="151.290064">
  <ele>342.89</ele>
  <time>2026-09-01T20:01:56Z</time>
  <course>10.75</course>
  <speed>0.0</speed>
  <fix>3d</fix>
</trkpt>
<trkpt lat="-27.274439" lon="151.290064">
  <ele>343.1</ele>
  <time>2026-09-01T20:01:56Z</time>
  <course>270.0</course>
  <speed>0.0</speed>
  <fix>3d</fix>
</trkpt>
<trkpt lat="-27.274439" lon="151.290064">
  <ele>343.23</ele>
  <time>2026-09-01T20:01:56Z</time>
  <course>10.75</course>
  <speed>0.0</speed>
  <fix>3d</fix>
</trkpt>
<trkpt lat="-27.274439" lon="151.290064">
  <ele>343.1</ele>
  <time>2026-09-01T20:01:56Z</time>
  <course>270.0</course>
  <speed>0.0</speed>
  <fix>3d</fix>
</trkpt>
<trkpt lat="-27.274439" lon="151.290064">
  <ele>343.23</ele>
  <time>2026-09-01T20:01:56Z</time>
  <course>10.76</course>
  <speed>0.0</speed>
  <fix>3d</fix>
</trkpt>
<trkpt lat="-27.274439" lon="151.290064">
  <ele>343.1</ele>
  <time>2026-09-01T20:01:56Z</time>
  <course>270.0</course>
  <speed>0.0</speed>
  <fix>3d</fix>
</trkpt>
<trkpt lat="-27.274439" lon="151.290064">
  <ele>342.99</ele>
  <time>2026-09-01T20:01:56Z</time>
  <course>10.76</course>
  <speed>0.0</speed>
  <fix>3d</fix>
</trkpt>
<trkpt lat="-27.274439" lon="151.290064">
  <ele>343.1</ele>
  <time>2026-09-01T20:01:56Z</time>
  <course>270.0</course>
  <speed>0.0</speed>
  <fix>3d</fix>
</trkpt>
<trkpt lat="-27.274439" lon="151.290064">
  <ele>343.13</ele>
  <time>2026-09-01T20:01:56Z</time>
  <course>10.76</course>
  <speed>0.0</speed>
  <fix>3d</fix>
</trkpt>
<trkpt lat="-27.274439" lon="151.290064">
  <ele>343.1</ele>
  <time>2026-09-01T20:01:56Z</time>
  <course>270.0</course>
  <speed>0.0</speed>
  <fix>3d</fix>
</trkpt>
<trkpt lat="-27.274439" lon="151.290064">
  <ele>343.07</ele>
  <time>2026-09-01T20:01:56Z</time>
  <course>10.77</course>
  <speed>0.0</speed>
  <fix>3d</fix>
</trkpt>
<trkpt lat="-27.274439" lon="151.290064">
  <ele>343.1</ele>
  <time>2026-09-01T20:01:56Z</time>
  <course>270.0</course>
  <speed>0.0</speed>
  <fix>3d</fix>
</trkpt>
<trkpt lat="-27.274439" lon="151.290064">
  <ele>343.19</ele>
  <time>2026-09-01T20:01:56Z</time>
  <course>10.77</course>
  <speed>0.0</speed>
  <fix>3d</fix>
</trkpt>
<trkpt lat="-27.274439" lon="151.290064">
  <ele>343.1</ele>
  <time>2026-09-01T20:01:56Z</time>
  <course>270.0</course>
  <speed>0.0</speed>
  <fix>3d</fix>
</trkpt>
<trkpt lat="-27.274439" lon="151.290064">
  <ele>342.93</ele>
  <time>2026-09-01T20:01:56Z</time>
  <course>10.77</course>
  <speed>0.0</speed>
  <fix>3d</fix>
</trkpt>
<trkpt lat="-27.274439" lon="151.290064">
  <ele>343.1</ele>
  <time>2026-09-01T20:01:56Z</time>
  <course>270.0</course>
  <speed>0.0</speed>
  <fix>3d</fix>
</trkpt>
<trkpt lat="-27.274439" lon="151.290064">
  <ele>343.19</ele>
  <time>2026-09-01T20:01:56Z</time>
  <course>10.78</course>
  <speed>0.0</speed>
  <fix>3d</fix>
</trkpt>
<trkpt lat="-27.274439" lon="151.290064">
  <ele>343.1</ele>
  <time>2026-09-01T20:01:56Z</time>
  <course>270.0</course>
  <speed>0.0</speed>
  <fix>3d</fix>
</trkpt>
<trkpt lat="-27.274439" lon="151.290064">
  <ele>343.1</ele>
  <time>2026-09-01T20:01:56Z</time>
  <course>10.78</course>
  <speed>0.0</speed>
  <fix>3d</fix>
</trkpt>
<trkpt lat="-27.274439" lon="151.290064">
  <ele>343.1</ele>
  <time>2026-09-01T20:01:56Z</time>
  <course>270.0</course>
  <speed>0.0</speed>
  <fix>3d</fix>
</trkpt>
<trkpt lat="-27.274439" lon="151.290064">
  <ele>343.01</ele>
  <time>2026-09-01T20:01:56Z</time>
  <course>10.78</course>
  <speed>0.0</speed>
  <fix>3d</fix>
</trkpt>
<trkpt lat="-27.274439" lon="151.290064">
  <ele>343.1</ele>
  <time>2026-09-01T20:01:56Z</time>
  <course>270.0</course>
  <speed>0.0</speed>
  <fix>3d</fix>
</trkpt>
<trkpt lat="-27.274439" lon="151.290064">
  <ele>343.11</ele>
  <time>2026-09-01T20:01:56Z</time>
  <course>10.78</course>
  <speed>0.0</speed>
  <fix>3d</fix>
</trkpt>
<trkpt lat="-27.274439" lon="151.290064">
  <ele>343.1</ele>
  <time>2026-09-01T20:01:56Z</time>
  <course>270.0</course>
  <speed>0.0</speed>
  <fix>3d</fix>
</trkpt>
<trkpt lat="-27.274439" lon="151.290064">
  <ele>342.96</ele>
  <time>2026-09-01T20:01:56Z</time>
  <course>10.78</course>
  <speed>0.0</speed>
  <fix>3d</fix>
</trkpt>
<trkpt lat="-27.274439" lon="151.290064">
  <ele>343.1</ele>
  <time>2026-09-01T20:01:56Z</time>
  <course>270.0</course>
  <speed>0.0</speed>
  <fix>3d</fix>
</trkpt>
<trkpt lat="-27.274439" lon="151.290064">
  <ele>343.19</ele>
  <time>2026-09-01T20:01:56Z</time>
  <course>10.79</course>
  <speed>0.0</speed>
  <fix>3d</fix>
</trkpt>
<trkpt lat="-27.274439" lon="151.290064">
  <ele>343.1</ele>
  <time>2026-09-01T20:01:56Z</time>
  <course>270.0</course>
  <speed>0.0</speed>
  <fix>3d</fix>
</trkpt>
<trkpt lat="-27.274439" lon="151.290064">
  <ele>343.0</ele>
  <time>2026-09-01T20:01:56Z</time>
  <course>10.79</course>
  <speed>0.0</speed>
  <fix>3d</fix>
</trkpt>
<trkpt lat="-27.274439" lon="151.290064">
  <ele>343.1</ele>
  <time>2026-09-01T20:01:56Z</time>
  <course>270.0</course>
  <speed>0.0</speed>
  <fix>3d</fix>
</trkpt>
<trkpt lat="-27.274439" lon="151.290064">
  <ele>343.2</ele>
  <time>2026-09-01T20:01:56Z</time>
  <course>10.79</course>
  <speed>0.0</speed>
  <fix>3d</fix>
</trkpt>
<trkpt lat="-27.274439" lon="151.290064">
  <ele>343.1</ele>
  <time>2026-09-01T20:01:56Z</time>
  <course>270.0</course>
  <speed>0.0</speed>
  <fix>3d</fix>
</trkpt>
<trkpt lat="-27.274439" lon="151.290064">
  <ele>343.2</ele>
  <time>2026-09-01T20:01:56Z</time>
  <course>10.79</course>
  <speed>0.0</speed>
  <fix>3d</fix>
</trkpt>
<trkpt lat="-27.274439" lon="151.290064">
  <ele>343.1</ele>
  <time>2026-09-01T20:01:56Z</time>
  <course>270.0</course>
  <speed>0.0</speed>
  <fix>3d</fix>
</trkpt>
<trkpt lat="-27.274439" lon="151.290064">
  <ele>343.13</ele>
  <time>2026-09-01T20:01:56Z</time>
  <course>10.79</course>
  <speed>0.0</speed>
  <fix>3d</fix>
</trkpt>
<trkpt lat="-27.274439" lon="151.290064">
  <ele>343.1</ele>
  <time>2026-09-01T20:01:56Z</time>
  <course>270.0</course>
  <speed>0.0</speed>
  <fix>3d</fix>
</trkpt>
<trkpt lat="-27.274439" lon="151.290064">
  <ele>343.1</ele>
  <time>2026-09-01T20:01:56Z</time>
  <course>10.79</course>
  <speed>0.0</speed>
  <fix>3d</fix>
</trkpt>
<trkpt lat="-27.274439" lon="151.290064">
  <ele>343.1</ele>
  <time>2026-09-01T20:01:56Z</time>
  <course>270.0</course>
  <speed>0.0</speed>
  <fix>3d</fix>
</trkpt>
<trkpt lat="-27.274439" lon="151.290064">
  <ele>343.12</ele>
  <time>2026-09-01T20:01:56Z</time>
  <course>10.79</course>
  <speed>0.0</speed>
  <fix>3d</fix>
</trkpt>
<trkpt lat="-27.274439" lon="151.290064">
  <ele>343.1</ele>
  <time>2026-09-01T20:01:56Z</time>
  <course>270.0</course>
  <speed>0.0</speed>
  <fix>3d</fix>
</trkpt>
<trkpt lat="-27.274439" lon="151.290064">
  <ele>342.94</ele>
  <time>2026-09-01T20:01:56Z</time>
  <course>10.79</course>
  <speed>0.0</speed>
  <fix>3d</fix>
</trkpt>
<trkpt lat="-27.274439" lon="151.290064">
  <ele>343.1</ele>
  <time>2026-09-01T20:01:56Z</time>
  <course>270.0</course>
  <speed>0.0</speed>
  <fix>3d</fix>
</trkpt>
<trkpt lat="-27.274439" lon="151.290064">
  <ele>343.25</ele>
  <time>2026-09-01T20:01:56Z</time>
  <course>10.79</course>
  <speed>0.0</speed>
  <fix>3d</fix>
</trkpt>
<trkpt lat="-27.274439" lon="151.290064">
  <ele>343.1</ele>
  <time>2026-09-01T20:01:56Z</time>
  <course>270.0</course>
  <speed>0.0</speed>
  <fix>3d</fix>
</trkpt>
<trkpt lat="-27.274439" lon="151.290064">
  <ele>342.93</ele>
  <time>2026-09-01T20:01:56Z</time>
  <course>10.79</course>
  <speed>0.0</speed>
  <fix>3d</fix>
</trkpt>
<trkpt lat="-27.274439" lon="151.290064">
  <ele>343.1</ele>
  <time>2026-09-01T20:01:56Z</time>
  <course>270.0</course>
  <speed>0.0</speed>
  <fix>3d</fix>
</trkpt>
<trkpt lat="-27.274439" lon="151.290064">
  <ele>343.08</ele>
  <time>2026-09-01T20:01:56Z</time>
  <course>10.79</course>
  <speed>0.0</speed>
  <fix>3d</fix>
</trkpt>
<trkpt lat="-27.274439" lon="151.290064">
  <ele>343.1</ele>
  <time>2026-09-01T20:01:56Z</time>
  <course>270.0</course>
  <speed>0.0</speed>
  <fix>3d</fix>
</trkpt>
<trkpt lat="-27.274439" lon="151.290064">
  <ele>343.23</ele>
  <time>2026-09-01T20:01:56Z</time>
  <course>10.8</course>
  <speed>0.0</speed>
  <fix>3d</fix>
</trkpt>
<trkpt lat="-27.274439" lon="151.290064">
  <ele>343.1</ele>
  <time>2026-09-01T20:01:56Z</time>
  <course>270.0</course>
  <speed>0.0</speed>
  <fix>3d</fix>
</trkpt>
<trkpt lat="-27.274439" lon="151.290064">
  <ele>343.01</ele>
  <time>2026-09-01T20:01:56Z</time>
  <course>10.8</course>
  <speed>0.0</speed>
  <fix>3d</fix>
</trkpt>
<trkpt lat="-27.274439" lon="151.290064">
  <ele>343.1</ele>
  <time>2026-09-01T20:01:56Z</time>
  <course>270.0</course>
  <speed>0.0</speed>
  <fix>3d</fix>
</trkpt>
<trkpt lat="-27.274439" lon="151.290064">
  <ele>343.1</ele>
  <time>2026-09-01T20:01:56Z</time>
  <course>10.8</course>
  <speed>0.0</speed>
  <fix>3d</fix>
</trkpt>
<trkpt lat="-27.274439" lon="151.290064">
  <ele>343.1</ele>
  <time>2026-09-01T20:01:56Z</time>
  <course>270.0</course>
  <speed>0.0</speed>
  <fix>3d</fix>
</trkpt>
<trkpt lat="-27.274439" lon="151.290064">
  <ele>342.99</ele>
  <time>2026-09-01T20:01:56Z</time>
  <course>10.8</course>
  <speed>0.0</speed>
  <fix>3d</fix>
</trkpt>
<trkpt lat="-27.274439" lon="151.290064">
  <ele>343.1</ele>
  <time>2026-09-01T20:01:56Z</time>
  <course>270.0</course>
  <speed>0.0</speed>
  <fix>3d</fix>
</trkpt>
<trkpt lat="-27.274439" lon="151.290064">
  <ele>342.87</ele>
  <time>2026-09-01T20:01:56Z</time>
  <course>10.8</course>
  <speed>0.0</speed>
  <fix>3d</fix>
</trkpt>
<trkpt lat="-27.274439" lon="151.290064">
  <ele>343.1</ele>
  <time>2026-09-01T20:01:56Z</time>
  <course>270.0</course>
  <speed>0.0</speed>
  <fix>3d</fix>
</trkpt>
<trkpt lat="-27.274439" lon="151.290064">
  <ele>343.1</ele>
  <time>2026-09-01T20:01:56Z</time>
  <course>10.8</course>
  <speed>0.0</speed>
  <fix>3d</fix>
</trkpt>
<trkpt lat="-27.274439" lon="151.290064">
  <ele>343.1</ele>
  <time>2026-09-01T20:01:56Z</time>
  <course>270.0</course>
  <speed>0.0</speed>
  <fix>3d</fix>
</trkpt>
<trkpt lat="-27.274439" lon="151.290064">
  <ele>342.99</ele>
  <time>2026-09-01T20:01:56Z</time>
  <course>10.8</course>
  <speed>0.0</speed>
  <fix>3d</fix>
</trkpt>
<trkpt lat="-27.274439" lon="151.290064">
  <ele>343.1</ele>
  <time>2026-09-01T20:01:56Z</time>
  <course>270.0</course>
  <speed>0.0</speed>
  <fix>3d</fix>
</trkpt>
<trkpt lat="-27.274439" lon="151.290064">
  <ele>342.91</ele>
  <time>2026-09-01T20:01:56Z</time>
  <course>10.8</course>
  <speed>0.0</speed>
  <fix>3d</fix>
</trkpt>
<trkpt lat="-27.274439" lon="151.290064">
  <ele>343.1</ele>
  <time>2026-09-01T20:01:56Z</time>
  <course>270.0</course>
  <speed>0.0</speed>
  <fix>3d</fix>
</trkpt>
<trkpt lat="-27.274439" lon="151.290064">
  <ele>342.9</ele>
  <time>2026-09-01T20:01:56Z</time>
  <course>10.8</course>
  <speed>0.0</speed>
  <fix>3d</fix>
</trkpt>
<trkpt lat="-27.274439" lon="151.290064">
  <ele>343.1</ele>
  <time>2026-09-01T20:01:56Z</time>
  <course>270.0</course>
  <speed>0.0</speed>
  <fix>3d</fix>
</trkpt>
<trkpt lat="-27.274439" lon="151.290064">
  <ele>342.87</ele>
  <time>2026-09-01T20:01:56Z</time>
  <course>10.8</course>
  <speed>0.0</speed>
  <fix>3d</fix>
</trkpt>
<trkpt lat="-27.274439" lon="151.290064">
  <ele>343.1</ele>
  <time>2026-09-01T20:01:56Z</time>
  <course>270.0</course>
  <speed>0.0</speed>
  <fix>3d</fix>
</trkpt>
<trkpt lat="-27.274439" lon="151.290064">
  <ele>343.12</ele>
  <time>2026-09-01T20:01:56Z</time>
  <course>10.8</course>
  <speed>0.0</speed>
  <fix>3d</fix>
</trkpt>
<trkpt lat="-27.274439" lon="151.290064">
  <ele>343.1</ele>
  <time>2026-09-01T20:01:56Z</time>
  <course>270.0</course>
  <speed>0.0</speed>
  <fix>3d</fix>
</trkpt>
<trkpt lat="-27.274439" lon="151.290064">
  <ele>342.99</ele>
  <time>2026-09-01T20:01:56Z</time>
  <course>10.8</course>
  <speed>0.0</speed>
  <fix>3d</fix>
</trkpt>
<trkpt lat="-27.274439" lon="151.290064">
  <ele>343.1</ele>
  <time>2026-09-01T20:01:56Z</time>
  <course>270.0</course>
  <speed>0.0</speed>
  <fix>3d</fix>
</trkpt>
<trkpt lat="-27.274439" lon="151.290064">
  <ele>343.13</ele>
  <time>2026-09-01T20:01:56Z</time>
  <course>10.8</course>
  <speed>0.0</speed>
  <fix>3d</fix>
</trkpt>
<trkpt lat="-27.274439" lon="151.290064">
  <ele>343.1</ele>
  <time>2026-09-01T20:01:56Z</time>
  <course>270.0</course>
  <speed>0.0</speed>
  <fix>3d</fix>
</trkpt>
<trkpt lat="-27.274439" lon="151.290064">
  <ele>343.0</ele>
  <time>2026-09-01T20:01:56Z</time>
  <course>10.8</course>
  <speed>0.0</speed>
  <fix>3d</fix>
</trkpt>
<trkpt lat="-27.274439" lon="151.290064">
  <ele>343.1</ele>
  <time>2026-09-01T20:01:56Z</time>
  <course>270.0</course>
  <speed>0.0</speed>
  <fix>3d</fix>
</trkpt>
<trkpt lat="-27.274439" lon="151.290064">
  <ele>343.17</ele>
  <time>2026-09-01T20:01:56Z</time>
  <course>10.8</course>
  <speed>0.0</speed>
  <fix>3d</fix>
</trkpt>
<trkpt lat="-27.274439" lon="151.290064">
  <ele>343.1</ele>
  <time>2026-09-01T20:01:56Z</time>
  <course>270.0</course>
  <speed>0.0</speed>
  <fix>3d</fix>
</trkpt>
<trkpt lat="-27.274439" lon="151.290064">
  <ele>343.0</ele>
  <time>2026-09-01T20:01:56Z</time>
  <course>10.8</course>
  <speed>0.0</speed>
  <fix>3d</fix>
</trkpt>
<trkpt lat="-27.274439" lon="151.290064">
  <ele>343.1</ele>
  <time>2026-09-01T20:01:56Z</time>
  <course>270.0</course>
  <speed>0.0</speed>
  <fix>3d</fix>
</trkpt>
<trkpt lat="-27.274439" lon="151.290064">
  <ele>342.99</ele>
  <time>2026-09-01T20:01:56Z</time>
  <course>10.8</course>
  <speed>0.0</speed>
  <fix>3d</fix>
</trkpt>
<trkpt lat="-27.274439" lon="151.290064">
  <ele>343.1</ele>
  <time>2026-09-01T20:01:56Z</time>
  <course>270.0</course>
  <speed>0.0</speed>
  <fix>3d</fix>
</trkpt>
<trkpt lat="-27.274439" lon="151.290064">
  <ele>343.17</ele>
  <time>2026-09-01T20:01:56Z</time>
  <course>10.8</course>
  <speed>0.0</speed>
  <fix>3d</fix>
</trkpt>
<trkpt lat="-27.274439" lon="151.290064">
  <ele>343.1</ele>
  <time>2026-09-01T20:01:56Z</time>
  <course>270.0</course>
  <speed>0.0</speed>
  <fix>3d</fix>
</trkpt>
<trkpt lat="-27.274439" lon="151.290064">
  <ele>343.16</ele>
  <time>2026-09-01T20:01:56Z</time>
  <course>10.8</course>
  <speed>0.0</speed>
  <fix>3d</fix>
</trkpt>
<trkpt lat="-27.274439" lon="151.290064">
  <ele>343.1</ele>
  <time>2026-09-01T20:01:56Z</time>
  <course>270.0</course>
  <speed>0.0</speed>
  <fix>3d</fix>
</trkpt>
<trkpt lat="-27.274439" lon="151.290064">
  <ele>342.87</ele>
  <time>2026-09-01T20:01:56Z</time>
  <course>10.8</course>
  <speed>0.0</speed>
  <fix>3d</fix>
</trkpt>
<trkpt lat="-27.274439" lon="151.290064">
  <ele>343.1</ele>
  <time>2026-09-01T20:01:56Z</time>
  <course>270.0</course>
  <speed>0.0</speed>
  <fix>3d</fix>
</trkpt>
<trkpt lat="-27.274439" lon="151.290064">
  <ele>343.19</ele>
  <time>2026-09-01T20:01:56Z</time>
  <course>10.8</course>
  <speed>0.0</speed>
  <fix>3d</fix>
</trkpt>
<trkpt lat="-27.274439" lon="151.290064">
  <ele>343.1</ele>
  <time>2026-09-01T20:01:56Z</time>
  <course>270.0</course>
  <speed>0.0</speed>
  <fix>3d</fix>
</trkpt>
<trkpt lat="-27.274439" lon="151.290064">
  <ele>343.16</ele>
  <time>2026-09-01T20:01:56Z</time>
  <course>10.8</course>
  <speed>0.0</speed>
  <fix>3d</fix>
</trkpt>
<trkpt lat="-27.274439" lon="151.290064">
  <ele>343.1</ele>
  <time>2026-09-01T20:01:56Z</time>
  <course>270.0</course>
  <speed>0.0</speed>
  <fix>3d</fix>
</trkpt>
<trkpt lat="-27.274439" lon="151.290064">
  <ele>343.21</ele>
  <time>2026-09-01T20:01:56Z</time>
  <course>10.8</course>
  <speed>0.0</speed>
  <fix>3d</fix>
</trkpt>
<trkpt lat="-27.274439" lon="151.290064">
  <ele>343.1</ele>
  <time>2026-09-01T20:01:56Z</time>
  <course>270.0</course>
  <speed>0.0</speed>
  <fix>3d</fix>
</trkpt>
<trkpt lat="-27.274439" lon="151.290064">
  <ele>343.22</ele>
  <time>2026-09-01T20:01:56Z</time>
  <course>10.8</course>
  <speed>0.0</speed>
  <fix>3d</fix>
</trkpt>
<trkpt lat="-27.274439" lon="151.290064">
  <ele>343.1</ele>
  <time>2026-09-01T20:01:56Z</time>
  <course>270.0</course>
  <speed>0.0</speed>
  <fix>3d</fix>
</trkpt>
<trkpt lat="-27.274439" lon="151.290064">
  <ele>343.24</ele>
  <time>2026-09-01T20:01:56Z</time>
  <course>10.8</course>
  <speed>0.0</speed>
  <fix>3d</fix>
</trkpt>
<trkpt lat="-27.274439" lon="151.290064">
  <ele>343.1</ele>
  <time>2026-09-01T20:01:56Z</time>
  <course>270.0</course>
  <speed>0.0</speed>
  <fix>3d</fix>
</trkpt>
<trkpt lat="-27.274439" lon="151.290064">
  <ele>343.0</ele>
  <time>2026-09-01T20:01:56Z</time>
  <course>10.8</course>
  <speed>0.0</speed>
  <fix>3d</fix>
</trkpt>
<trkpt lat="-27.274439" lon="151.290064">
  <ele>343.1</ele>
  <time>2026-09-01T20:01:56Z</time>
  <course>270.0</course>
  <speed>0.0</speed>
  <fix>3d</fix>
</trkpt>
<trkpt lat="-27.274439" lon="151.290064">
  <ele>343.1</ele>
  <time>2026-09-01T20:01:56Z</time>
  <course>10.8</course>
  <speed>0.0</speed>
  <fix>3d</fix>
</trkpt>
<trkpt lat="-27.274439" lon="151.290064">
  <ele>343.1</ele>
  <time>2026-09-01T20:01:56Z</time>
  <course>270.0</course>
  <speed>0.0</speed>
  <fix>3d</fix>
</trkpt>
<trkpt lat="-27.274439" lon="151.290064">
  <ele>343.05</ele>
  <time>2026-09-01T20:01:56Z</time>
  <course>10.8</course>
  <speed>0.0</speed>
  <fix>3d</fix>
</trkpt>
<trkpt lat="-27.274439" lon="151.290064">
  <ele>343.1</ele>
  <time>2026-09-01T20:01:56Z</time>
  <course>270.0</course>
  <speed>0.0</speed>
  <fix>3d</fix>
</trkpt>
<trkpt lat="-27.274439" lon="151.290064">
  <ele>342.87</ele>
  <time>2026-09-01T20:01:56Z</time>
  <course>10.8</course>
  <speed>0.0</speed>
  <fix>3d</fix>
</trkpt>
<trkpt lat="-27.274439" lon="151.290064">
  <ele>343.1</ele>
  <time>2026-09-01T20:01:56Z</time>
  <course>270.0</course>
  <speed>0.0</speed>
  <fix>3d</fix>
</trkpt>
<trkpt lat="-27.274439" lon="151.290064">
  <ele>342.92</ele>
  <time>2026-09-01T20:01:56Z</time>
  <course>10.8</course>
  <speed>0.0</speed>
  <fix>3d</fix>
</trkpt>
<trkpt lat="-27.274439" lon="151.290064">
  <ele>343.1</ele>
  <time>2026-09-01T20:01:56Z</time>
  <course>270.0</course>
  <speed>0.0</speed>
  <fix>3d</fix>
</trkpt>
<trkpt lat="-27.274439" lon="151.290064">
  <ele>342.96</ele>
  <time>2026-09-01T20:01:56Z</time>
  <course>10.8</course>
  <speed>0.0</speed>
  <fix>3d</fix>
</trkpt>
<trkpt lat="-27.274439" lon="151.290064">
  <ele>343.1</ele>
  <time>2026-09-01T20:01:56Z</time>
  <course>270.0</course>
  <speed>0.0</speed>
  <fix>3d</fix>
</trkpt>
<trkpt lat="-27.274439" lon="151.290064">
  <ele>343.15</ele>
  <time>2026-09-01T20:01:56Z</time>
  <course>10.8</course>
  <speed>0.0</speed>
  <fix>3d</fix>
</trkpt>
<trkpt lat="-27.274439" lon="151.290064">
  <ele>343.1</ele>
  <time>2026-09-01T20:01:56Z</time>
  <course>270.0</course>
  <speed>0.0</speed>
  <fix>3d</fix>
</trkpt>
<trkpt lat="-27.274439" lon="151.290064">
  <ele>343.16</ele>
  <time>2026-09-01T20:01:56Z</time>
  <course>10.8</course>
  <speed>0.0</speed>
  <fix>3d</fix>
</trkpt>
<trkpt lat="-27.274439" lon="151.290064">
  <ele>343.1</ele>
  <time>2026-09-01T20:01:56Z</time>
  <course>270.0</course>
  <speed>0.0</speed>
  <fix>3d</fix>
</trkpt>
<trkpt lat="-27.274439" lon="151.290064">
  <ele>343.2</ele>
  <time>2026-09-01T20:01:56Z</time>
  <course>10.81</course>
  <speed>0.0</speed>
  <fix>3d</fix>
</trkpt>
<trkpt lat="-27.274439" lon="151.290064">
  <ele>343.1</ele>
  <time>2026-09-01T20:01:56Z</time>
  <course>270.0</course>
  <speed>0.0</speed>
  <fix>3d</fix>
</trkpt>
<trkpt lat="-27.274439" lon="151.290064">
  <ele>343.13</ele>
  <time>2026-09-01T20:01:56Z</time>
  <course>10.82</course>
  <speed>0.0</speed>
  <fix>3d</fix>
</trkpt>
<trkpt lat="-27.274439" lon="151.290064">
  <ele>343.1</ele>
  <time>2026-09-01T20:01:56Z</time>
  <course>270.0</course>
  <speed>0.0</speed>
  <fix>3d</fix>
</trkpt>
<trkpt lat="-27.274439" lon="151.290064">
  <ele>343.0</ele>
  <time>2026-09-01T20:01:56Z</time>
  <course>10.83</course>
  <speed>0.0</speed>
  <fix>3d</fix>
</trkpt>
<trkpt lat="-27.274439" lon="151.290064">
  <ele>343.1</ele>
  <time>2026-09-01T20:01:56Z</time>
  <course>270.0</course>
  <speed>0.0</speed>
  <fix>3d</fix>
</trkpt>
<trkpt lat="-27.274439" lon="151.290064">
  <ele>343.34</ele>
  <time>2026-09-01T20:01:56Z</time>
  <course>10.84</course>
  <speed>0.0</speed>
  <fix>3d</fix>
</trkpt>
<trkpt lat="-27.274439" lon="151.290064">
  <ele>343.1</ele>
  <time>2026-09-01T20:01:56Z</time>
  <course>270.0</course>
  <speed>0.0</speed>
  <fix>3d</fix>
</trkpt>
<trkpt lat="-27.274439" lon="151.290064">
  <ele>343.09</ele>
  <time>2026-09-01T20:01:56Z</time>
  <course>10.85</course>
  <speed>0.0</speed>
  <fix>3d</fix>
</trkpt>
<trkpt lat="-27.274439" lon="151.290064">
  <ele>343.1</ele>
  <time>2026-09-01T20:01:56Z</time>
  <course>270.0</course>
  <speed>0.0</speed>
  <fix>3d</fix>
</trkpt>
<trkpt lat="-27.274439" lon="151.290064">
  <ele>343.23</ele>
  <time>2026-09-01T20:01:56Z</time>
  <course>10.85</course>
  <speed>0.0</speed>
  <fix>3d</fix>
</trkpt>
<trkpt lat="-27.274439" lon="151.290064">
  <ele>343.1</ele>
  <time>2026-09-01T20:01:56Z</time>
  <course>270.0</course>
  <speed>0.0</speed>
  <fix>3d</fix>
</trkpt>
<trkpt lat="-27.274439" lon="151.290064">
  <ele>343.05</ele>
  <time>2026-09-01T20:01:56Z</time>
  <course>10.86</course>
  <speed>0.0</speed>
  <fix>3d</fix>
</trkpt>
<trkpt lat="-27.274439" lon="151.290064">
  <ele>343.1</ele>
  <time>2026-09-01T20:01:56Z</time>
  <course>270.0</course>
  <speed>0.0</speed>
  <fix>3d</fix>
</trkpt>
<trkpt lat="-27.274439" lon="151.290064">
  <ele>343.12</ele>
  <time>2026-09-01T20:01:56Z</time>
  <course>10.87</course>
  <speed>0.0</speed>
  <fix>3d</fix>
</trkpt>
<trkpt lat="-27.274439" lon="151.290064">
  <ele>343.1</ele>
  <time>2026-09-01T20:01:56Z</time>
  <course>270.0</course>
  <speed>0.0</speed>
  <fix>3d</fix>
</trkpt>
<trkpt lat="-27.274439" lon="151.290064">
  <ele>343.25</ele>
  <time>2026-09-01T20:01:56Z</time>
  <course>10.88</course>
  <speed>0.0</speed>
  <fix>3d</fix>
</trkpt>
<trkpt lat="-27.274439" lon="151.290064">
  <ele>343.1</ele>
  <time>2026-09-01T20:01:56Z</time>
  <course>270.0</course>
  <speed>0.0</speed>
  <fix>3d</fix>
</trkpt>
<trkpt lat="-27.274439" lon="151.290064">
  <ele>343.31</ele>
  <time>2026-09-01T20:01:56Z</time>
  <course>10.89</course>
  <speed>0.0</speed>
  <fix>3d</fix>
</trkpt>
<trkpt lat="-27.274439" lon="151.290064">
  <ele>343.1</ele>
  <time>2026-09-01T20:01:56Z</time>
  <course>270.0</course>
  <speed>0.0</speed>
  <fix>3d</fix>
</trkpt>
<trkpt lat="-27.274439" lon="151.290064">
  <ele>342.97</ele>
  <time>2026-09-01T20:01:56Z</time>
  <course>10.89</course>
  <speed>0.0</speed>
  <fix>3d</fix>
</trkpt>
<trkpt lat="-27.274439" lon="151.290064">
  <ele>343.1</ele>
  <time>2026-09-01T20:01:56Z</time>
  <course>270.0</course>
  <speed>0.0</speed>
  <fix>3d</fix>
</trkpt>
<trkpt lat="-27.274439" lon="151.290064">
  <ele>343.16</ele>
  <time>2026-09-01T20:01:56Z</time>
  <course>10.9</course>
  <speed>0.0</speed>
  <fix>3d</fix>
</trkpt>
<trkpt lat="-27.274439" lon="151.290064">
  <ele>343.1</ele>
  <time>2026-09-01T20:01:56Z</time>
  <course>270.0</course>
  <speed>0.0</speed>
  <fix>3d</fix>
</trkpt>
<trkpt lat="-27.274439" lon="151.290064">
  <ele>343.05</ele>
  <time>2026-09-01T20:01:56Z</time>
  <course>10.91</course>
  <speed>0.0</speed>
  <fix>3d</fix>
</trkpt>
<trkpt lat="-27.274439" lon="151.290064">
  <ele>343.1</ele>
  <time>2026-09-01T20:01:56Z</time>
  <course>270.0</course>
  <speed>0.0</speed>
  <fix>3d</fix>
</trkpt>
<trkpt lat="-27.274439" lon="151.290064">
  <ele>343.27</ele>
  <time>2026-09-01T20:01:56Z</time>
  <course>10.92</course>
  <speed>0.0</speed>
  <fix>3d</fix>
</trkpt>
<trkpt lat="-27.274439" lon="151.290064">
  <ele>343.1</ele>
  <time>2026-09-01T20:01:56Z</time>
  <course>270.0</course>
  <speed>0.0</speed>
  <fix>3d</fix>
</trkpt>
<trkpt lat="-27.274439" lon="151.290064">
  <ele>343.09</ele>
  <time>2026-09-01T20:01:56Z</time>
  <course>10.92</course>
  <speed>0.0</speed>
  <fix>3d</fix>
</trkpt>
<trkpt lat="-27.274439" lon="151.290064">
  <ele>343.1</ele>
  <time>2026-09-01T20:01:56Z</time>
  <course>270.0</course>
  <speed>0.0</speed>
  <fix>3d</fix>
</trkpt>
<trkpt lat="-27.274439" lon="151.290064">
  <ele>343.12</ele>
  <time>2026-09-01T20:01:56Z</time>
  <course>10.93</course>
  <speed>0.0</speed>
  <fix>3d</fix>
</trkpt>
<trkpt lat="-27.274439" lon="151.290064">
  <ele>343.1</ele>
  <time>2026-09-01T20:01:56Z</time>
  <course>270.0</course>
  <speed>0.0</speed>
  <fix>3d</fix>
</trkpt>
<trkpt lat="-27.274439" lon="151.290064">
  <ele>342.95</ele>
  <time>2026-09-01T20:01:56Z</time>
  <course>10.94</course>
  <speed>0.0</speed>
  <fix>3d</fix>
</trkpt>
<trkpt lat="-27.274439" lon="151.290064">
  <ele>343.1</ele>
  <time>2026-09-01T20:01:56Z</time>
  <course>270.0</course>
  <speed>0.0</speed>
  <fix>3d</fix>
</trkpt>
<trkpt lat="-27.274439" lon="151.290064">
  <ele>343.19</ele>
  <time>2026-09-01T20:01:56Z</time>
  <course>10.95</course>
  <speed>0.0</speed>
  <fix>3d</fix>
</trkpt>
<trkpt lat="-27.274439" lon="151.290064">
  <ele>343.1</ele>
  <time>2026-09-01T20:01:56Z</time>
  <course>270.0</course>
  <speed>0.0</speed>
  <fix>3d</fix>
</trkpt>
<trkpt lat="-27.274439" lon="151.290064">
  <ele>343.02</ele>
  <time>2026-09-01T20:01:56Z</time>
  <course>10.95</course>
  <speed>0.0</speed>
  <fix>3d</fix>
</trkpt>
<trkpt lat="-27.274439" lon="151.290064">
  <ele>343.1</ele>
  <time>2026-09-01T20:01:56Z</time>
  <course>270.0</course>
  <speed>0.0</speed>
  <fix>3d</fix>
</trkpt>
<trkpt lat="-27.274439" lon="151.290064">
  <ele>343.25</ele>
  <time>2026-09-01T20:01:56Z</time>
  <course>10.96</course>
  <speed>0.0</speed>
  <fix>3d</fix>
</trkpt>
<trkpt lat="-27.274439" lon="151.290064">
  <ele>343.1</ele>
  <time>2026-09-01T20:01:56Z</time>
  <course>270.0</course>
  <speed>0.0</speed>
  <fix>3d</fix>
</trkpt>
<trkpt lat="-27.274439" lon="151.290064">
  <ele>342.94</ele>
  <time>2026-09-01T20:01:56Z</time>
  <course>10.97</course>
  <speed>0.0</speed>
  <fix>3d</fix>
</trkpt>
<trkpt lat="-27.274439" lon="151.290064">
  <ele>343.1</ele>
  <time>2026-09-01T20:01:56Z</time>
  <course>270.0</course>
  <speed>0.0</speed>
  <fix>3d</fix>
</trkpt>
<trkpt lat="-27.274439" lon="151.290064">
  <ele>343.12</ele>
  <time>2026-09-01T20:01:56Z</time>
  <course>10.97</course>
  <speed>0.0</speed>
  <fix>3d</fix>
</trkpt>
<trkpt lat="-27.274439" lon="151.290064">
  <ele>343.1</ele>
  <time>2026-09-01T20:01:56Z</time>
  <course>270.0</course>
  <speed>0.0</speed>
  <fix>3d</fix>
</trkpt>
<trkpt lat="-27.274439" lon="151.290064">
  <ele>343.01</ele>
  <time>2026-09-01T20:01:56Z</time>
  <course>10.98</course>
  <speed>0.0</speed>
  <fix>3d</fix>
</trkpt>
<trkpt lat="-27.274439" lon="151.290064">
  <ele>343.1</ele>
  <time>2026-09-01T20:01:56Z</time>
  <course>270.0</course>
  <speed>0.0</speed>
  <fix>3d</fix>
</trkpt>
<trkpt lat="-27.274439" lon="151.290064">
  <ele>343.13</ele>
  <time>2026-09-01T20:01:56Z</time>
  <course>10.98</course>
  <speed>0.0</speed>
  <fix>3d</fix>
</trkpt>
<trkpt lat="-27.274439" lon="151.290064">
  <ele>343.1</ele>
  <time>2026-09-01T20:01:56Z</time>
  <course>270.0</course>
  <speed>0.0</speed>
  <fix>3d</fix>
</trkpt>
<trkpt lat="-27.274439" lon="151.290064">
  <ele>343.18</ele>
  <time>2026-09-01T20:01:56Z</time>
  <course>10.99</course>
  <speed>0.0</speed>
  <fix>3d</fix>
</trkpt>
<trkpt lat="-27.274439" lon="151.290064">
  <ele>343.1</ele>
  <time>2026-09-01T20:01:56Z</time>
  <course>270.0</course>
  <speed>0.0</speed>
  <fix>3d</fix>
</trkpt>
<trkpt lat="-27.274439" lon="151.290064">
  <ele>342.97</ele>
  <time>2026-09-01T20:01:56Z</time>
  <course>11.0</course>
  <speed>0.0</speed>
  <fix>3d</fix>
</trkpt>
<trkpt lat="-27.274439" lon="151.290064">
  <ele>343.1</ele>
  <time>2026-09-01T20:01:56Z</time>
  <course>270.0</course>
  <speed>0.0</speed>
  <fix>3d</fix>
</trkpt>
<trkpt lat="-27.274439" lon="151.290064">
  <ele>343.14</ele>
  <time>2026-09-01T20:01:56Z</time>
  <course>11.0</course>
  <speed>0.0</speed>
  <fix>3d</fix>
</trkpt>
<trkpt lat="-27.274439" lon="151.290064">
  <ele>343.1</ele>
  <time>2026-09-01T20:01:56Z</time>
  <course>270.0</course>
  <speed>0.0</speed>
  <fix>3d</fix>
</trkpt>
<trkpt lat="-27.274439" lon="151.290064">
  <ele>342.96</ele>
  <time>2026-09-01T20:01:56Z</time>
  <course>11.01</course>
  <speed>0.0</speed>
  <fix>3d</fix>
</trkpt>
<trkpt lat="-27.274439" lon="151.290064">
  <ele>343.1</ele>
  <time>2026-09-01T20:01:56Z</time>
  <course>270.0</course>
  <speed>0.0</speed>
  <fix>3d</fix>
</trkpt>
<trkpt lat="-27.274439" lon="151.290064">
  <ele>343.3</ele>
  <time>2026-09-01T20:01:56Z</time>
  <course>11.01</course>
  <speed>0.0</speed>
  <fix>3d</fix>
</trkpt>
<trkpt lat="-27.274439" lon="151.290064">
  <ele>343.1</ele>
  <time>2026-09-01T20:01:56Z</time>
  <course>270.0</course>
  <speed>0.0</speed>
  <fix>3d</fix>
</trkpt>
<trkpt lat="-27.274439" lon="151.290064">
  <ele>343.22</ele>
  <time>2026-09-01T20:01:56Z</time>
  <course>11.02</course>
  <speed>0.0</speed>
  <fix>3d</fix>
</trkpt>
<trkpt lat="-27.274439" lon="151.290064">
  <ele>343.1</ele>
  <time>2026-09-01T20:01:56Z</time>
  <course>270.0</course>
  <speed>0.0</speed>
  <fix>3d</fix>
</trkpt>
<trkpt lat="-27.274439" lon="151.290064">
  <ele>343.08</ele>
  <time>2026-09-01T20:01:56Z</time>
  <course>11.02</course>
  <speed>0.0</speed>
  <fix>3d</fix>
</trkpt>
<trkpt lat="-27.274439" lon="151.290064">
  <ele>343.1</ele>
  <time>2026-09-01T20:01:56Z</time>
  <course>270.0</course>
  <speed>0.0</speed>
  <fix>3d</fix>
</trkpt>
<trkpt lat="-27.274439" lon="151.290064">
  <ele>343.23</ele>
  <time>2026-09-01T20:01:56Z</time>
  <course>11.03</course>
  <speed>0.0</speed>
  <fix>3d</fix>
</trkpt>
<trkpt lat="-27.274439" lon="151.290064">
  <ele>343.1</ele>
  <time>2026-09-01T20:01:56Z</time>
  <course>270.0</course>
  <speed>0.0</speed>
  <fix>3d</fix>
</trkpt>
<trkpt lat="-27.274439" lon="151.290064">
  <ele>343.33</ele>
  <time>2026-09-01T20:01:56Z</time>
  <course>11.04</course>
  <speed>0.0</speed>
  <fix>3d</fix>
</trkpt>
<trkpt lat="-27.274439" lon="151.290064">
  <ele>343.1</ele>
  <time>2026-09-01T20:01:56Z</time>
  <course>270.0</course>
  <speed>0.0</speed>
  <fix>3d</fix>
</trkpt>
<trkpt lat="-27.274439" lon="151.290064">
  <ele>343.05</ele>
  <time>2026-09-01T20:01:56Z</time>
  <course>11.04</course>
  <speed>0.0</speed>
  <fix>3d</fix>
</trkpt>
<trkpt lat="-27.274439" lon="151.290064">
  <ele>343.1</ele>
  <time>2026-09-01T20:01:56Z</time>
  <course>270.0</course>
  <speed>0.0</speed>
  <fix>3d</fix>
</trkpt>
<trkpt lat="-27.274439" lon="151.290064">
  <ele>343.16</ele>
  <time>2026-09-01T20:01:56Z</time>
  <course>11.05</course>
  <speed>0.0</speed>
  <fix>3d</fix>
</trkpt>
<trkpt lat="-27.274439" lon="151.290064">
  <ele>343.1</ele>
  <time>2026-09-01T20:01:56Z</time>
  <course>270.0</course>
  <speed>0.0</speed>
  <fix>3d</fix>
</trkpt>
<trkpt lat="-27.274439" lon="151.290064">
  <ele>343.16</ele>
  <time>2026-09-01T20:01:56Z</time>
  <course>11.05</course>
  <speed>0.0</speed>
  <fix>3d</fix>
</trkpt>
<trkpt lat="-27.274439" lon="151.290064">
  <ele>343.1</ele>
  <time>2026-09-01T20:01:56Z</time>
  <course>270.0</course>
  <speed>0.0</speed>
  <fix>3d</fix>
</trkpt>
<trkpt lat="-27.274439" lon="151.290064">
  <ele>343.08</ele>
  <time>2026-09-01T20:01:56Z</time>
  <course>11.06</course>
  <speed>0.0</speed>
  <fix>3d</fix>
</trkpt>
<trkpt lat="-27.274439" lon="151.290064">
  <ele>343.1</ele>
  <time>2026-09-01T20:01:56Z</time>
  <course>270.0</course>
  <speed>0.0</speed>
  <fix>3d</fix>
</trkpt>
<trkpt lat="-27.274439" lon="151.290064">
  <ele>343.17</ele>
  <time>2026-09-01T20:01:56Z</time>
  <course>11.06</course>
  <speed>0.0</speed>
  <fix>3d</fix>
</trkpt>
<trkpt lat="-27.274439" lon="151.290064">
  <ele>343.1</ele>
  <time>2026-09-01T20:01:56Z</time>
  <course>270.0</course>
  <speed>0.0</speed>
  <fix>3d</fix>
</trkpt>
<trkpt lat="-27.274439" lon="151.290064">
  <ele>343.22</ele>
  <time>2026-09-01T20:01:56Z</time>
  <course>11.07</course>
  <speed>0.0</speed>
  <fix>3d</fix>
</trkpt>
<trkpt lat="-27.274439" lon="151.290064">
  <ele>343.1</ele>
  <time>2026-09-01T20:01:56Z</time>
  <course>270.0</course>
  <speed>0.0</speed>
  <fix>3d</fix>
</trkpt>
<trkpt lat="-27.274439" lon="151.290064">
  <ele>343.01</ele>
  <time>2026-09-01T20:01:56Z</time>
  <course>11.07</course>
  <speed>0.0</speed>
  <fix>3d</fix>
</trkpt>
<trkpt lat="-27.274439" lon="151.290064">
  <ele>343.1</ele>
  <time>2026-09-01T20:01:56Z</time>
  <course>270.0</course>
  <speed>0.0</speed>
  <fix>3d</fix>
</trkpt>
<trkpt lat="-27.274439" lon="151.290064">
  <ele>343.26</ele>
  <time>2026-09-01T20:01:56Z</time>
  <course>11.08</course>
  <speed>0.0</speed>
  <fix>3d</fix>
</trkpt>
<trkpt lat="-27.274439" lon="151.290064">
  <ele>343.1</ele>
  <time>2026-09-01T20:01:56Z</time>
  <course>270.0</course>
  <speed>0.0</speed>
  <fix>3d</fix>
</trkpt>
<trkpt lat="-27.274439" lon="151.290064">
  <ele>343.28</ele>
  <time>2026-09-01T20:01:56Z</time>
  <course>11.08</course>
  <speed>0.0</speed>
  <fix>3d</fix>
</trkpt>
<trkpt lat="-27.274439" lon="151.290064">
  <ele>343.1</ele>
  <time>2026-09-01T20:01:56Z</time>
  <course>270.0</course>
  <speed>0.0</speed>
  <fix>3d</fix>
</trkpt>
<trkpt lat="-27.274439" lon="151.290064">
  <ele>343.34</ele>
  <time>2026-09-01T20:01:56Z</time>
  <course>11.09</course>
  <speed>0.0</speed>
  <fix>3d</fix>
</trkpt>
<trkpt lat="-27.274439" lon="151.290064">
  <ele>343.1</ele>
  <time>2026-09-01T20:01:56Z</time>
  <course>270.0</course>
  <speed>0.0</speed>
  <fix>3d</fix>
</trkpt>
<trkpt lat="-27.274439" lon="151.290064">
  <ele>343.1</ele>
  <time>2026-09-01T20:01:56Z</time>
  <course>11.09</course>
  <speed>0.0</speed>
  <fix>3d</fix>
</trkpt>
<trkpt lat="-27.274439" lon="151.290064">
  <ele>343.1</ele>
  <time>2026-09-01T20:01:56Z</time>
  <course>270.0</course>
  <speed>0.0</speed>
  <fix>3d</fix>
</trkpt>
<trkpt lat="-27.274439" lon="151.290064">
  <ele>342.96</ele>
  <time>2026-09-01T20:01:56Z</time>
  <course>11.09</course>
  <speed>0.0</speed>
  <fix>3d</fix>
</trkpt>
<trkpt lat="-27.274439" lon="151.290064">
  <ele>343.1</ele>
  <time>2026-09-01T20:01:56Z</time>
  <course>270.0</course>
  <speed>0.0</speed>
  <fix>3d</fix>
</trkpt>
<trkpt lat="-27.274439" lon="151.290064">
  <ele>343.03</ele>
  <time>2026-09-01T20:01:56Z</time>
  <course>11.1</course>
  <speed>0.0</speed>
  <fix>3d</fix>
</trkpt>
<trkpt lat="-27.274439" lon="151.290064">
  <ele>343.1</ele>
  <time>2026-09-01T20:01:56Z</time>
  <course>270.0</course>
  <speed>0.0</speed>
  <fix>3d</fix>
</trkpt>
<trkpt lat="-27.274439" lon="151.290064">
  <ele>343.23</ele>
  <time>2026-09-01T20:01:56Z</time>
  <course>11.1</course>
  <speed>0.0</speed>
  <fix>3d</fix>
</trkpt>
<trkpt lat="-27.274439" lon="151.290064">
  <ele>343.1</ele>
  <time>2026-09-01T20:01:56Z</time>
  <course>270.0</course>
  <speed>0.0</speed>
  <fix>3d</fix>
</trkpt>
<trkpt lat="-27.274439" lon="151.290064">
  <ele>343.14</ele>
  <time>2026-09-01T20:01:56Z</time>
  <course>11.11</course>
  <speed>0.0</speed>
  <fix>3d</fix>
</trkpt>
<trkpt lat="-27.274439" lon="151.290064">
  <ele>343.1</ele>
  <time>2026-09-01T20:01:56Z</time>
  <course>270.0</course>
  <speed>0.0</speed>
  <fix>3d</fix>
</trkpt>
<trkpt lat="-27.274439" lon="151.290064">
  <ele>343.13</ele>
  <time>2026-09-01T20:01:56Z</time>
  <course>11.11</course>
  <speed>0.0</speed>
  <fix>3d</fix>
</trkpt>
<trkpt lat="-27.274439" lon="151.290064">
  <ele>343.1</ele>
  <time>2026-09-01T20:01:56Z</time>
  <course>270.0</course>
  <speed>0.0</speed>
  <fix>3d</fix>
</trkpt>
<trkpt lat="-27.274439" lon="151.290064">
  <ele>343.03</ele>
  <time>2026-09-01T20:01:56Z</time>
  <course>11.12</course>
  <speed>0.0</speed>
  <fix>3d</fix>
</trkpt>
<trkpt lat="-27.274439" lon="151.290064">
  <ele>343.1</ele>
  <time>2026-09-01T20:01:56Z</time>
  <course>270.0</course>
  <speed>0.0</speed>
  <fix>3d</fix>
</trkpt>
<trkpt lat="-27.274439" lon="151.290064">
  <ele>343.15</ele>
  <time>2026-09-01T20:01:56Z</time>
  <course>11.12</course>
  <speed>0.0</speed>
  <fix>3d</fix>
</trkpt>
<trkpt lat="-27.274439" lon="151.290064">
  <ele>343.1</ele>
  <time>2026-09-01T20:01:56Z</time>
  <course>270.0</course>
  <speed>0.0</speed>
  <fix>3d</fix>
</trkpt>
<trkpt lat="-27.274439" lon="151.290064">
  <ele>343.14</ele>
  <time>2026-09-01T20:01:56Z</time>
  <course>11.13</course>
  <speed>0.0</speed>
  <fix>3d</fix>
</trkpt>
<trkpt lat="-27.274439" lon="151.290064">
  <ele>343.1</ele>
  <time>2026-09-01T20:01:56Z</time>
  <course>270.0</course>
  <speed>0.0</speed>
  <fix>3d</fix>
</trkpt>
<trkpt lat="-27.274439" lon="151.290064">
  <ele>343.17</ele>
  <time>2026-09-01T20:01:56Z</time>
  <course>11.13</course>
  <speed>0.0</speed>
  <fix>3d</fix>
</trkpt>
<trkpt lat="-27.274439" lon="151.290064">
  <ele>343.1</ele>
  <time>2026-09-01T20:01:56Z</time>
  <course>270.0</course>
  <speed>0.0</speed>
  <fix>3d</fix>
</trkpt>
<trkpt lat="-27.274439" lon="151.290064">
  <ele>342.95</ele>
  <time>2026-09-01T20:01:56Z</time>
  <course>11.13</course>
  <speed>0.0</speed>
  <fix>3d</fix>
</trkpt>
<trkpt lat="-27.274439" lon="151.290064">
  <ele>343.1</ele>
  <time>2026-09-01T20:01:56Z</time>
  <course>270.0</course>
  <speed>0.0</speed>
  <fix>3d</fix>
</trkpt>
<trkpt lat="-27.274439" lon="151.290064">
  <ele>343.06</ele>
  <time>2026-09-01T20:01:56Z</time>
  <course>11.14</course>
  <speed>0.0</speed>
  <fix>3d</fix>
</trkpt>
<trkpt lat="-27.274439" lon="151.290064">
  <ele>343.1</ele>
  <time>2026-09-01T20:01:56Z</time>
  <course>270.0</course>
  <speed>0.0</speed>
  <fix>3d</fix>
</trkpt>
<trkpt lat="-27.274439" lon="151.290064">
  <ele>343.11</ele>
  <time>2026-09-01T20:01:56Z</time>
  <course>11.14</course>
  <speed>0.0</speed>
  <fix>3d</fix>
</trkpt>
<trkpt lat="-27.274439" lon="151.290064">
  <ele>343.1</ele>
  <time>2026-09-01T20:01:56Z</time>
  <course>270.0</course>
  <speed>0.0</speed>
  <fix>3d</fix>
</trkpt>
<trkpt lat="-27.274439" lon="151.290064">
  <ele>343.3</ele>
  <time>2026-09-01T20:01:56Z</time>
  <course>11.15</course>
  <speed>0.0</speed>
  <fix>3d</fix>
</trkpt>
<trkpt lat="-27.274439" lon="151.290064">
  <ele>343.1</ele>
  <time>2026-09-01T20:01:56Z</time>
  <course>270.0</course>
  <speed>0.0</speed>
  <fix>3d</fix>
</trkpt>
<trkpt lat="-27.274439" lon="151.290064">
  <ele>343.03</ele>
  <time>2026-09-01T20:01:56Z</time>
  <course>11.15</course>
  <speed>0.0</speed>
  <fix>3d</fix>
</trkpt>
<trkpt lat="-27.274439" lon="151.290064">
  <ele>343.1</ele>
  <time>2026-09-01T20:01:56Z</time>
  <course>270.0</course>
  <speed>0.0</speed>
  <fix>3d</fix>
</trkpt>
<trkpt lat="-27.274439" lon="151.290064">
  <ele>343.13</ele>
  <time>2026-09-01T20:01:56Z</time>
  <course>11.15</course>
  <speed>0.0</speed>
  <fix>3d</fix>
</trkpt>
<trkpt lat="-27.274439" lon="151.290064">
  <ele>343.1</ele>
  <time>2026-09-01T20:01:56Z</time>
  <course>270.0</course>
  <speed>0.0</speed>
  <fix>3d</fix>
</trkpt>
<trkpt lat="-27.274439" lon="151.290064">
  <ele>343.02</ele>
  <time>2026-09-01T20:01:56Z</time>
  <course>11.16</course>
  <speed>0.0</speed>
  <fix>3d</fix>
</trkpt>
<trkpt lat="-27.274439" lon="151.290064">
  <ele>343.1</ele>
  <time>2026-09-01T20:01:56Z</time>
  <course>270.0</course>
  <speed>0.0</speed>
  <fix>3d</fix>
</trkpt>
<trkpt lat="-27.274439" lon="151.290064">
  <ele>343.17</ele>
  <time>2026-09-01T20:01:56Z</time>
  <course>11.16</course>
  <speed>0.0</speed>
  <fix>3d</fix>
</trkpt>
<trkpt lat="-27.274439" lon="151.290064">
  <ele>343.1</ele>
  <time>2026-09-01T20:01:56Z</time>
  <course>270.0</course>
  <speed>0.0</speed>
  <fix>3d</fix>
</trkpt>
<trkpt lat="-27.274439" lon="151.290064">
  <ele>343.26</ele>
  <time>2026-09-01T20:01:56Z</time>
  <course>11.17</course>
  <speed>0.0</speed>
  <fix>3d</fix>
</trkpt>
<trkpt lat="-27.274439" lon="151.290064">
  <ele>343.1</ele>
  <time>2026-09-01T20:01:56Z</time>
  <course>270.0</course>
  <speed>0.0</speed>
  <fix>3d</fix>
</trkpt>
<trkpt lat="-27.274439" lon="151.290064">
  <ele>343.29</ele>
  <time>2026-09-01T20:01:56Z</time>
  <course>11.17</course>
  <speed>0.0</speed>
  <fix>3d</fix>
</trkpt>
<trkpt lat="-27.274439" lon="151.290064">
  <ele>343.1</ele>
  <time>2026-09-01T20:01:56Z</time>
  <course>270.0</course>
  <speed>0.0</speed>
  <fix>3d</fix>
</trkpt>
<trkpt lat="-27.274439" lon="151.290064">
  <ele>343.13</ele>
  <time>2026-09-01T20:01:56Z</time>
  <course>11.17</course>
  <speed>0.0</speed>
  <fix>3d</fix>
</trkpt>
<trkpt lat="-27.274439" lon="151.290064">
  <ele>343.1</ele>
  <time>2026-09-01T20:01:56Z</time>
  <course>270.0</course>
  <speed>0.0</speed>
  <fix>3d</fix>
</trkpt>
<trkpt lat="-27.274439" lon="151.290064">
  <ele>343.1</ele>
  <time>2026-09-01T20:01:56Z</time>
  <course>11.18</course>
  <speed>0.0</speed>
  <fix>3d</fix>
</trkpt>
<trkpt lat="-27.274439" lon="151.290064">
  <ele>343.1</ele>
  <time>2026-09-01T20:01:56Z</time>
  <course>270.0</course>
  <speed>0.0</speed>
  <fix>3d</fix>
</trkpt>
<trkpt lat="-27.274439" lon="151.290064">
  <ele>343.2</ele>
  <time>2026-09-01T20:01:56Z</time>
  <course>11.18</course>
  <speed>0.0</speed>
  <fix>3d</fix>
</trkpt>
<trkpt lat="-27.274439" lon="151.290064">
  <ele>343.1</ele>
  <time>2026-09-01T20:01:56Z</time>
  <course>270.0</course>
  <speed>0.0</speed>
  <fix>3d</fix>
</trkpt>
<trkpt lat="-27.274439" lon="151.290064">
  <ele>343.09</ele>
  <time>2026-09-01T20:01:56Z</time>
  <course>11.18</course>
  <speed>0.0</speed>
  <fix>3d</fix>
</trkpt>
<trkpt lat="-27.274439" lon="151.290064">
  <ele>343.1</ele>
  <time>2026-09-01T20:01:56Z</time>
  <course>270.0</course>
  <speed>0.0</speed>
  <fix>3d</fix>
</trkpt>
<trkpt lat="-27.274439" lon="151.290064">
  <ele>343.11</ele>
  <time>2026-09-01T20:01:56Z</time>
  <course>11.19</course>
  <speed>0.0</speed>
  <fix>3d</fix>
</trkpt>
<trkpt lat="-27.274439" lon="151.290064">
  <ele>343.1</ele>
  <time>2026-09-01T20:01:56Z</time>
  <course>270.0</course>
  <speed>0.0</speed>
  <fix>3d</fix>
</trkpt>
<trkpt lat="-27.274439" lon="151.290064">
  <ele>343.21</ele>
  <time>2026-09-01T20:01:56Z</time>
  <course>11.19</course>
  <speed>0.0</speed>
  <fix>3d</fix>
</trkpt>
<trkpt lat="-27.274439" lon="151.290064">
  <ele>343.1</ele>
  <time>2026-09-01T20:01:56Z</time>
  <course>270.0</course>
  <speed>0.0</speed>
  <fix>3d</fix>
</trkpt>
<trkpt lat="-27.274439" lon="151.290064">
  <ele>343.22</ele>
  <time>2026-09-01T20:01:56Z</time>
  <course>11.19</course>
  <speed>0.0</speed>
  <fix>3d</fix>
</trkpt>
<trkpt lat="-27.274439" lon="151.290064">
  <ele>343.1</ele>
  <time>2026-09-01T20:01:56Z</time>
  <course>270.0</course>
  <speed>0.0</speed>
  <fix>3d</fix>
</trkpt>
<trkpt lat="-27.274439" lon="151.290064">
  <ele>342.98</ele>
  <time>2026-09-01T20:01:56Z</time>
  <course>11.2</course>
  <speed>0.0</speed>
  <fix>3d</fix>
</trkpt>
<trkpt lat="-27.274439" lon="151.290064">
  <ele>343.1</ele>
  <time>2026-09-01T20:01:56Z</time>
  <course>270.0</course>
  <speed>0.0</speed>
  <fix>3d</fix>
</trkpt>
<trkpt lat="-27.274439" lon="151.290064">
  <ele>343.15</ele>
  <time>2026-09-01T20:01:56Z</time>
  <course>11.2</course>
  <speed>0.0</speed>
  <fix>3d</fix>
</trkpt>
<trkpt lat="-27.274439" lon="151.290064">
  <ele>343.1</ele>
  <time>2026-09-01T20:01:56Z</time>
  <course>270.0</course>
  <speed>0.0</speed>
  <fix>3d</fix>
</trkpt>
<trkpt lat="-27.274439" lon="151.290064">
  <ele>343.28</ele>
  <time>2026-09-01T20:01:56Z</time>
  <course>11.2</course>
  <speed>0.0</speed>
  <fix>3d</fix>
</trkpt>
<trkpt lat="-27.274439" lon="151.290064">
  <ele>343.1</ele>
  <time>2026-09-01T20:01:56Z</time>
  <course>270.0</course>
  <speed>0.0</speed>
  <fix>3d</fix>
</trkpt>
<trkpt lat="-27.274439" lon="151.290064">
  <ele>343.3</ele>
  <time>2026-09-01T20:01:56Z</time>
  <course>11.2</course>
  <speed>0.0</speed>
  <fix>3d</fix>
</trkpt>
<trkpt lat="-27.274439" lon="151.290064">
  <ele>343.1</ele>
  <time>2026-09-01T20:01:56Z</time>
  <course>270.0</course>
  <speed>0.0</speed>
  <fix>3d</fix>
</trkpt>
<trkpt lat="-27.274439" lon="151.290064">
  <ele>343.33</ele>
  <time>2026-09-01T20:01:56Z</time>
  <course>11.2</course>
  <speed>0.0</speed>
  <fix>3d</fix>
</trkpt>
<trkpt lat="-27.274439" lon="151.290064">
  <ele>343.1</ele>
  <time>2026-09-01T20:01:56Z</time>
  <course>270.0</course>
  <speed>0.0</speed>
  <fix>3d</fix>
</trkpt>
<trkpt lat="-27.274439" lon="151.290064">
  <ele>342.96</ele>
  <time>2026-09-01T20:01:56Z</time>
  <course>11.21</course>
  <speed>0.0</speed>
  <fix>3d</fix>
</trkpt>
<trkpt lat="-27.274439" lon="151.290064">
  <ele>343.1</ele>
  <time>2026-09-01T20:01:56Z</time>
  <course>270.0</course>
  <speed>0.0</speed>
  <fix>3d</fix>
</trkpt>
<trkpt lat="-27.274439" lon="151.290064">
  <ele>342.97</ele>
  <time>2026-09-01T20:01:56Z</time>
  <course>11.21</course>
  <speed>0.0</speed>
  <fix>3d</fix>
</trkpt>
<trkpt lat="-27.274439" lon="151.290064">
  <ele>343.1</ele>
  <time>2026-09-01T20:01:56Z</time>
  <course>270.0</course>
  <speed>0.0</speed>
  <fix>3d</fix>
</trkpt>
<trkpt lat="-27.274439" lon="151.290064">
  <ele>342.83</ele>
  <time>2026-09-01T20:01:56Z</time>
  <course>11.21</course>
  <speed>0.0</speed>
  <fix>3d</fix>
</trkpt>
<trkpt lat="-27.274439" lon="151.290064">
  <ele>343.1</ele>
  <time>2026-09-01T20:01:56Z</time>
  <course>270.0</course>
  <speed>0.0</speed>
  <fix>3d</fix>
</trkpt>
<trkpt lat="-27.274439" lon="151.290064">
  <ele>342.84</ele>
  <time>2026-09-01T20:01:56Z</time>
  <course>11.21</course>
  <speed>0.0</speed>
  <fix>3d</fix>
</trkpt>
<trkpt lat="-27.274439" lon="151.290064">
  <ele>343.1</ele>
  <time>2026-09-01T20:01:56Z</time>
  <course>270.0</course>
  <speed>0.0</speed>
  <fix>3d</fix>
</trkpt>
<trkpt lat="-27.274439" lon="151.290064">
  <ele>342.75</ele>
  <time>2026-09-01T20:01:56Z</time>
  <course>11.21</course>
  <speed>0.0</speed>
  <fix>3d</fix>
</trkpt>
<trkpt lat="-27.274439" lon="151.290064">
  <ele>343.1</ele>
  <time>2026-09-01T20:01:56Z</time>
  <course>270.0</course>
  <speed>0.0</speed>
  <fix>3d</fix>
</trkpt>
<trkpt lat="-27.274439" lon="151.290064">
  <ele>343.03</ele>
  <time>2026-09-01T20:01:56Z</time>
  <course>11.21</course>
  <speed>0.0</speed>
  <fix>3d</fix>
</trkpt>
<trkpt lat="-27.274439" lon="151.290064">
  <ele>343.1</ele>
  <time>2026-09-01T20:01:56Z</time>
  <course>270.0</course>
  <speed>0.0</speed>
  <fix>3d</fix>
</trkpt>
<trkpt lat="-27.274439" lon="151.290064">
  <ele>342.8</ele>
  <time>2026-09-01T20:01:56Z</time>
  <course>11.21</course>
  <speed>0.0</speed>
  <fix>3d</fix>
</trkpt>
<trkpt lat="-27.274439" lon="151.290064">
  <ele>343.1</ele>
  <time>2026-09-01T20:01:56Z</time>
  <course>270.0</course>
  <speed>0.0</speed>
  <fix>3d</fix>
</trkpt>
<trkpt lat="-27.274439" lon="151.290064">
  <ele>343.05</ele>
  <time>2026-09-01T20:01:56Z</time>
  <course>11.21</course>
  <speed>0.0</speed>
  <fix>3d</fix>
</trkpt>
<trkpt lat="-27.274439" lon="151.290064">
  <ele>343.1</ele>
  <time>2026-09-01T20:01:56Z</time>
  <course>270.0</course>
  <speed>0.0</speed>
  <fix>3d</fix>
</trkpt>
<trkpt lat="-27.274439" lon="151.290064">
  <ele>343.03</ele>
  <time>2026-09-01T20:01:56Z</time>
  <course>11.21</course>
  <speed>0.0</speed>
  <fix>3d</fix>
</trkpt>
<trkpt lat="-27.274439" lon="151.290064">
  <ele>343.1</ele>
  <time>2026-09-01T20:01:56Z</time>
  <course>270.0</course>
  <speed>0.0</speed>
  <fix>3d</fix>
</trkpt>
<trkpt lat="-27.274439" lon="151.290064">
  <ele>342.88</ele>
  <time>2026-09-01T20:01:57Z</time>
  <course>11.21</course>
  <speed>0.0</speed>
  <fix>3d</fix>
</trkpt>
<trkpt lat="-27.274439" lon="151.290064">
  <ele>343.1</ele>
  <time>2026-09-01T20:01:57Z</time>
  <course>270.0</course>
  <speed>0.0</speed>
  <fix>3d</fix>
</trkpt>
<trkpt lat="-27.274439" lon="151.290064">
  <ele>342.83</ele>
  <time>2026-09-01T20:01:57Z</time>
  <course>11.22</course>
  <speed>0.0</speed>
  <fix>3d</fix>
</trkpt>
<trkpt lat="-27.274439" lon="151.290064">
  <ele>343.1</ele>
  <time>2026-09-01T20:01:57Z</time>
  <course>270.0</course>
  <speed>0.0</speed>
  <fix>3d</fix>
</trkpt>
<trkpt lat="-27.274439" lon="151.290064">
  <ele>342.87</ele>
  <time>2026-09-01T20:01:57Z</time>
  <course>11.22</course>
  <speed>0.0</speed>
  <fix>3d</fix>
</trkpt>
<trkpt lat="-27.274439" lon="151.290064">
  <ele>343.1</ele>
  <time>2026-09-01T20:01:57Z</time>
  <course>270.0</course>
  <speed>0.0</speed>
  <fix>3d</fix>
</trkpt>
<trkpt lat="-27.274439" lon="151.290064">
  <ele>342.78</ele>
  <time>2026-09-01T20:01:57Z</time>
  <course>11.22</course>
  <speed>0.0</speed>
  <fix>3d</fix>
</trkpt>
<trkpt lat="-27.274439" lon="151.290064">
  <ele>343.1</ele>
  <time>2026-09-01T20:01:57Z</time>
  <course>270.0</course>
  <speed>0.0</speed>
  <fix>3d</fix>
</trkpt>
<trkpt lat="-27.274439" lon="151.290064">
  <ele>342.8</ele>
  <time>2026-09-01T20:01:57Z</time>
  <course>11.22</course>
  <speed>0.0</speed>
  <fix>3d</fix>
</trkpt>
<trkpt lat="-27.274439" lon="151.290064">
  <ele>343.1</ele>
  <time>2026-09-01T20:01:57Z</time>
  <course>270.0</course>
  <speed>0.0</speed>
  <fix>3d</fix>
</trkpt>
<trkpt lat="-27.274439" lon="151.290064">
  <ele>342.9</ele>
  <time>2026-09-01T20:01:57Z</time>
  <course>11.22</course>
  <speed>0.0</speed>
  <fix>3d</fix>
</trkpt>
<trkpt lat="-27.274439" lon="151.290064">
  <ele>343.1</ele>
  <time>2026-09-01T20:01:57Z</time>
  <course>270.0</course>
  <speed>0.0</speed>
  <fix>3d</fix>
</trkpt>
<trkpt lat="-27.274439" lon="151.290064">
  <ele>342.82</ele>
  <time>2026-09-01T20:01:57Z</time>
  <course>11.22</course>
  <speed>0.0</speed>
  <fix>3d</fix>
</trkpt>
<trkpt lat="-27.274439" lon="151.290064">
  <ele>343.1</ele>
  <time>2026-09-01T20:01:57Z</time>
  <course>270.0</course>
  <speed>0.0</speed>
  <fix>3d</fix>
</trkpt>
<trkpt lat="-27.274439" lon="151.290064">
  <ele>342.8</ele>
  <time>2026-09-01T20:01:57Z</time>
  <course>11.22</course>
  <speed>0.0</speed>
  <fix>3d</fix>
</trkpt>
<trkpt lat="-27.274439" lon="151.290064">
  <ele>343.1</ele>
  <time>2026-09-01T20:01:57Z</time>
  <course>270.0</course>
  <speed>0.0</speed>
  <fix>3d</fix>
</trkpt>
<trkpt lat="-27.274439" lon="151.290064">
  <ele>342.8</ele>
  <time>2026-09-01T20:01:57Z</time>
  <course>11.22</course>
  <speed>0.0</speed>
  <fix>3d</fix>
</trkpt>
<trkpt lat="-27.274439" lon="151.290064">
  <ele>343.1</ele>
  <time>2026-09-01T20:01:57Z</time>
  <course>270.0</course>
  <speed>0.0</speed>
  <fix>3d</fix>
</trkpt>
<trkpt lat="-27.274439" lon="151.290064">
  <ele>342.83</ele>
  <time>2026-09-01T20:01:57Z</time>
  <course>11.22</course>
  <speed>0.0</speed>
  <fix>3d</fix>
</trkpt>
<trkpt lat="-27.274439" lon="151.290064">
  <ele>343.1</ele>
  <time>2026-09-01T20:01:57Z</time>
  <course>270.0</course>
  <speed>0.0</speed>
  <fix>3d</fix>
</trkpt>
<trkpt lat="-27.274439" lon="151.290064">
  <ele>343.04</ele>
  <time>2026-09-01T20:01:57Z</time>
  <course>11.22</course>
  <speed>0.0</speed>
  <fix>3d</fix>
</trkpt>
<trkpt lat="-27.274439" lon="151.290064">
  <ele>343.1</ele>
  <time>2026-09-01T20:01:57Z</time>
  <course>270.0</course>
  <speed>0.0</speed>
  <fix>3d</fix>
</trkpt>
<trkpt lat="-27.274439" lon="151.290064">
  <ele>342.99</ele>
  <time>2026-09-01T20:01:57Z</time>
  <course>11.22</course>
  <speed>0.0</speed>
  <fix>3d</fix>
</trkpt>
<trkpt lat="-27.274439" lon="151.290064">
  <ele>343.1</ele>
  <time>2026-09-01T20:01:57Z</time>
  <course>270.0</course>
  <speed>0.0</speed>
  <fix>3d</fix>
</trkpt>
<trkpt lat="-27.274439" lon="151.290064">
  <ele>342.99</ele>
  <time>2026-09-01T20:01:57Z</time>
  <course>11.22</course>
  <speed>0.0</speed>
  <fix>3d</fix>
</trkpt>
<trkpt lat="-27.274439" lon="151.290064">
  <ele>343.1</ele>
  <time>2026-09-01T20:01:57Z</time>
  <course>270.0</course>
  <speed>0.0</speed>
  <fix>3d</fix>
</trkpt>
<trkpt lat="-27.274439" lon="151.290064">
  <ele>342.95</ele>
  <time>2026-09-01T20:01:57Z</time>
  <course>11.23</course>
  <speed>0.0</speed>
  <fix>3d</fix>
</trkpt>
<trkpt lat="-27.274439" lon="151.290064">
  <ele>343.1</ele>
  <time>2026-09-01T20:01:57Z</time>
  <course>270.0</course>
  <speed>0.0</speed>
  <fix>3d</fix>
</trkpt>
<trkpt lat="-27.274439" lon="151.290064">
  <ele>343.0</ele>
  <time>2026-09-01T20:01:57Z</time>
  <course>11.23</course>
  <speed>0.0</speed>
  <fix>3d</fix>
</trkpt>
<trkpt lat="-27.274439" lon="151.290064">
  <ele>343.1</ele>
  <time>2026-09-01T20:01:57Z</time>
  <course>270.0</course>
  <speed>0.0</speed>
  <fix>3d</fix>
</trkpt>
<trkpt lat="-27.274439" lon="151.290064">
  <ele>343.01</ele>
  <time>2026-09-01T20:01:57Z</time>
  <course>11.23</course>
  <speed>0.0</speed>
  <fix>3d</fix>
</trkpt>
<trkpt lat="-27.274439" lon="151.290064">
  <ele>343.1</ele>
  <time>2026-09-01T20:01:57Z</time>
  <course>270.0</course>
  <speed>0.0</speed>
  <fix>3d</fix>
</trkpt>
<trkpt lat="-27.274439" lon="151.290064">
  <ele>342.8</ele>
  <time>2026-09-01T20:01:57Z</time>
  <course>11.23</course>
  <speed>0.0</speed>
  <fix>3d</fix>
</trkpt>
<trkpt lat="-27.274439" lon="151.290064">
  <ele>343.1</ele>
  <time>2026-09-01T20:01:57Z</time>
  <course>270.0</course>
  <speed>0.0</speed>
  <fix>3d</fix>
</trkpt>
<trkpt lat="-27.274439" lon="151.290064">
  <ele>342.93</ele>
  <time>2026-09-01T20:01:57Z</time>
  <course>11.23</course>
  <speed>0.0</speed>
  <fix>3d</fix>
</trkpt>
<trkpt lat="-27.274439" lon="151.290064">
  <ele>343.1</ele>
  <time>2026-09-01T20:01:57Z</time>
  <course>270.0</course>
  <speed>0.0</speed>
  <fix>3d</fix>
</trkpt>
<trkpt lat="-27.274439" lon="151.290064">
  <ele>342.7</ele>
  <time>2026-09-01T20:01:57Z</time>
  <course>11.23</course>
  <speed>0.0</speed>
  <fix>3d</fix>
</trkpt>
<trkpt lat="-27.274439" lon="151.290064">
  <ele>343.1</ele>
  <time>2026-09-01T20:01:57Z</time>
  <course>270.0</course>
  <speed>0.0</speed>
  <fix>3d</fix>
</trkpt>
<trkpt lat="-27.274439" lon="151.290064">
  <ele>342.98</ele>
  <time>2026-09-01T20:01:57Z</time>
  <course>11.23</course>
  <speed>0.0</speed>
  <fix>3d</fix>
</trkpt>
<trkpt lat="-27.274439" lon="151.290064">
  <ele>343.1</ele>
  <time>2026-09-01T20:01:57Z</time>
  <course>270.0</course>
  <speed>0.0</speed>
  <fix>3d</fix>
</trkpt>
<trkpt lat="-27.274439" lon="151.290064">
  <ele>342.89</ele>
  <time>2026-09-01T20:01:57Z</time>
  <course>11.23</course>
  <speed>0.0</speed>
  <fix>3d</fix>
</trkpt>
<trkpt lat="-27.274439" lon="151.290064">
  <ele>343.1</ele>
  <time>2026-09-01T20:01:57Z</time>
  <course>270.0</course>
  <speed>0.0</speed>
  <fix>3d</fix>
</trkpt>
<trkpt lat="-27.274439" lon="151.290064">
  <ele>342.96</ele>
  <time>2026-09-01T20:01:57Z</time>
  <course>11.23</course>
  <speed>0.0</speed>
  <fix>3d</fix>
</trkpt>
<trkpt lat="-27.274439" lon="151.290064">
  <ele>343.1</ele>
  <time>2026-09-01T20:01:57Z</time>
  <course>270.0</course>
  <speed>0.0</speed>
  <fix>3d</fix>
</trkpt>
<trkpt lat="-27.274439" lon="151.290064">
  <ele>342.7</ele>
  <time>2026-09-01T20:01:57Z</time>
  <course>11.23</course>
  <speed>0.0</speed>
  <fix>3d</fix>
</trkpt>
<trkpt lat="-27.274439" lon="151.290064">
  <ele>343.1</ele>
  <time>2026-09-01T20:01:57Z</time>
  <course>270.0</course>
  <speed>0.0</speed>
  <fix>3d</fix>
</trkpt>
<trkpt lat="-27.274439" lon="151.290064">
  <ele>342.96</ele>
  <time>2026-09-01T20:01:57Z</time>
  <course>11.23</course>
  <speed>0.0</speed>
  <fix>3d</fix>
</trkpt>
<trkpt lat="-27.274439" lon="151.290064">
  <ele>343.1</ele>
  <time>2026-09-01T20:01:57Z</time>
  <course>270.0</course>
  <speed>0.0</speed>
  <fix>3d</fix>
</trkpt>
<trkpt lat="-27.274439" lon="151.290064">
  <ele>343.0</ele>
  <time>2026-09-01T20:01:57Z</time>
  <course>11.24</course>
  <speed>0.0</speed>
  <fix>3d</fix>
</trkpt>
<trkpt lat="-27.274439" lon="151.290064">
  <ele>343.1</ele>
  <time>2026-09-01T20:01:57Z</time>
  <course>270.0</course>
  <speed>0.0</speed>
  <fix>3d</fix>
</trkpt>
<trkpt lat="-27.274439" lon="151.290064">
  <ele>342.98</ele>
  <time>2026-09-01T20:01:57Z</time>
  <course>11.24</course>
  <speed>0.0</speed>
  <fix>3d</fix>
</trkpt>
<trkpt lat="-27.274439" lon="151.290064">
  <ele>343.1</ele>
  <time>2026-09-01T20:01:57Z</time>
  <course>270.0</course>
  <speed>0.0</speed>
  <fix>3d</fix>
</trkpt>
<trkpt lat="-27.274439" lon="151.290064">
  <ele>343.08</ele>
  <time>2026-09-01T20:01:57Z</time>
  <course>11.24</course>
  <speed>0.0</speed>
  <fix>3d</fix>
</trkpt>
<trkpt lat="-27.274439" lon="151.290064">
  <ele>343.1</ele>
  <time>2026-09-01T20:01:57Z</time>
  <course>270.0</course>
  <speed>0.0</speed>
  <fix>3d</fix>
</trkpt>
<trkpt lat="-27.274439" lon="151.290064">
  <ele>342.82</ele>
  <time>2026-09-01T20:01:57Z</time>
  <course>11.24</course>
  <speed>0.0</speed>
  <fix>3d</fix>
</trkpt>
<trkpt lat="-27.274439" lon="151.290064">
  <ele>343.1</ele>
  <time>2026-09-01T20:01:57Z</time>
  <course>270.0</course>
  <speed>0.0</speed>
  <fix>3d</fix>
</trkpt>
<trkpt lat="-27.274439" lon="151.290064">
  <ele>342.78</ele>
  <time>2026-09-01T20:01:57Z</time>
  <course>11.24</course>
  <speed>0.0</speed>
  <fix>3d</fix>
</trkpt>
<trkpt lat="-27.274439" lon="151.290064">
  <ele>343.1</ele>
  <time>2026-09-01T20:01:57Z</time>
  <course>270.0</course>
  <speed>0.0</speed>
  <fix>3d</fix>
</trkpt>
<trkpt lat="-27.274439" lon="151.290064">
  <ele>342.98</ele>
  <time>2026-09-01T20:01:57Z</time>
  <course>11.24</course>
  <speed>0.0</speed>
  <fix>3d</fix>
</trkpt>
<trkpt lat="-27.274439" lon="151.290064">
  <ele>343.1</ele>
  <time>2026-09-01T20:01:57Z</time>
  <course>270.0</course>
  <speed>0.0</speed>
  <fix>3d</fix>
</trkpt>
<trkpt lat="-27.274439" lon="151.290064">
  <ele>342.9</ele>
  <time>2026-09-01T20:01:57Z</time>
  <course>11.24</course>
  <speed>0.0</speed>
  <fix>3d</fix>
</trkpt>
<trkpt lat="-27.274439" lon="151.290064">
  <ele>343.1</ele>
  <time>2026-09-01T20:01:57Z</time>
  <course>270.0</course>
  <speed>0.0</speed>
  <fix>3d</fix>
</trkpt>
<trkpt lat="-27.274439" lon="151.290064">
  <ele>343.0</ele>
  <time>2026-09-01T20:01:57Z</time>
  <course>11.24</course>
  <speed>0.0</speed>
  <fix>3d</fix>
</trkpt>
<trkpt lat="-27.274439" lon="151.290064">
  <ele>343.1</ele>
  <time>2026-09-01T20:01:57Z</time>
  <course>270.0</course>
  <speed>0.0</speed>
  <fix>3d</fix>
</trkpt>
<trkpt lat="-27.274439" lon="151.290064">
  <ele>342.9</ele>
  <time>2026-09-01T20:01:57Z</time>
  <course>11.24</course>
  <speed>0.0</speed>
  <fix>3d</fix>
</trkpt>
<trkpt lat="-27.274439" lon="151.290064">
  <ele>343.1</ele>
  <time>2026-09-01T20:01:57Z</time>
  <course>270.0</course>
  <speed>0.0</speed>
  <fix>3d</fix>
</trkpt>
<trkpt lat="-27.274439" lon="151.290064">
  <ele>342.91</ele>
  <time>2026-09-01T20:01:57Z</time>
  <course>11.24</course>
  <speed>0.0</speed>
  <fix>3d</fix>
</trkpt>
<trkpt lat="-27.274439" lon="151.290064">
  <ele>343.1</ele>
  <time>2026-09-01T20:01:57Z</time>
  <course>270.0</course>
  <speed>0.0</speed>
  <fix>3d</fix>
</trkpt>
<trkpt lat="-27.274439" lon="151.290064">
  <ele>342.83</ele>
  <time>2026-09-01T20:01:57Z</time>
  <course>11.24</course>
  <speed>0.0</speed>
  <fix>3d</fix>
</trkpt>
<trkpt lat="-27.274439" lon="151.290064">
  <ele>343.1</ele>
  <time>2026-09-01T20:01:57Z</time>
  <course>270.0</course>
  <speed>0.0</speed>
  <fix>3d</fix>
</trkpt>
<trkpt lat="-27.274439" lon="151.290064">
  <ele>342.74</ele>
  <time>2026-09-01T20:01:57Z</time>
  <course>11.24</course>
  <speed>0.0</speed>
  <fix>3d</fix>
</trkpt>
<trkpt lat="-27.274439" lon="151.290064">
  <ele>343.1</ele>
  <time>2026-09-01T20:01:57Z</time>
  <course>270.0</course>
  <speed>0.0</speed>
  <fix>3d</fix>
</trkpt>
<trkpt lat="-27.274439" lon="151.290064">
  <ele>342.89</ele>
  <time>2026-09-01T20:01:57Z</time>
  <course>11.24</course>
  <speed>0.0</speed>
  <fix>3d</fix>
</trkpt>
<trkpt lat="-27.274439" lon="151.290064">
  <ele>343.1</ele>
  <time>2026-09-01T20:01:57Z</time>
  <course>270.0</course>
  <speed>0.0</speed>
  <fix>3d</fix>
</trkpt>
<trkpt lat="-27.274439" lon="151.290064">
  <ele>342.87</ele>
  <time>2026-09-01T20:01:57Z</time>
  <course>11.24</course>
  <speed>0.0</speed>
  <fix>3d</fix>
</trkpt>
<trkpt lat="-27.274439" lon="151.290064">
  <ele>343.1</ele>
  <time>2026-09-01T20:01:57Z</time>
  <course>270.0</course>
  <speed>0.0</speed>
  <fix>3d</fix>
</trkpt>
<trkpt lat="-27.274439" lon="151.290064">
  <ele>342.92</ele>
  <time>2026-09-01T20:01:57Z</time>
  <course>11.25</course>
  <speed>0.0</speed>
  <fix>3d</fix>
</trkpt>
<trkpt lat="-27.274439" lon="151.290064">
  <ele>343.1</ele>
  <time>2026-09-01T20:01:57Z</time>
  <course>270.0</course>
  <speed>0.0</speed>
  <fix>3d</fix>
</trkpt>
<trkpt lat="-27.274439" lon="151.290064">
  <ele>343.01</ele>
  <time>2026-09-01T20:01:57Z</time>
  <course>11.25</course>
  <speed>0.0</speed>
  <fix>3d</fix>
</trkpt>
<trkpt lat="-27.274439" lon="151.290064">
  <ele>343.1</ele>
  <time>2026-09-01T20:01:57Z</time>
  <course>270.0</course>
  <speed>0.0</speed>
  <fix>3d</fix>
</trkpt>
<trkpt lat="-27.274439" lon="151.290064">
  <ele>342.9</ele>
  <time>2026-09-01T20:01:57Z</time>
  <course>11.24</course>
  <speed>0.0</speed>
  <fix>3d</fix>
</trkpt>
<trkpt lat="-27.274439" lon="151.290064">
  <ele>343.1</ele>
  <time>2026-09-01T20:01:57Z</time>
  <course>270.0</course>
  <speed>0.0</speed>
  <fix>3d</fix>
</trkpt>
<trkpt lat="-27.274439" lon="151.290064">
  <ele>342.71</ele>
  <time>2026-09-01T20:01:57Z</time>
  <course>11.24</course>
  <speed>0.0</speed>
  <fix>3d</fix>
</trkpt>
<trkpt lat="-27.274439" lon="151.290064">
  <ele>343.1</ele>
  <time>2026-09-01T20:01:57Z</time>
  <course>270.0</course>
  <speed>0.0</speed>
  <fix>3d</fix>
</trkpt>
<trkpt lat="-27.274439" lon="151.290064">
  <ele>343.05</ele>
  <time>2026-09-01T20:01:57Z</time>
  <course>11.24</course>
  <speed>0.0</speed>
  <fix>3d</fix>
</trkpt>
<trkpt lat="-27.274439" lon="151.290064">
  <ele>343.1</ele>
  <time>2026-09-01T20:01:57Z</time>
  <course>270.0</course>
  <speed>0.0</speed>
  <fix>3d</fix>
</trkpt>
<trkpt lat="-27.274439" lon="151.290064">
  <ele>343.0</ele>
  <time>2026-09-01T20:01:57Z</time>
  <course>11.24</course>
  <speed>0.0</speed>
  <fix>3d</fix>
</trkpt>
<trkpt lat="-27.274439" lon="151.290064">
  <ele>343.1</ele>
  <time>2026-09-01T20:01:57Z</time>
  <course>270.0</course>
  <speed>0.0</speed>
  <fix>3d</fix>
</trkpt>
<trkpt lat="-27.274439" lon="151.290064">
  <ele>342.8</ele>
  <time>2026-09-01T20:01:57Z</time>
  <course>11.23</course>
  <speed>0.0</speed>
  <fix>3d</fix>
</trkpt>
<trkpt lat="-27.274439" lon="151.290064">
  <ele>343.1</ele>
  <time>2026-09-01T20:01:57Z</time>
  <course>270.0</course>
  <speed>0.0</speed>
  <fix>3d</fix>
</trkpt>
<trkpt lat="-27.274439" lon="151.290064">
  <ele>342.85</ele>
  <time>2026-09-01T20:01:57Z</time>
  <course>11.23</course>
  <speed>0.0</speed>
  <fix>3d</fix>
</trkpt>
<trkpt lat="-27.274439" lon="151.290064">
  <ele>343.1</ele>
  <time>2026-09-01T20:01:57Z</time>
  <course>270.0</course>
  <speed>0.0</speed>
  <fix>3d</fix>
</trkpt>
<trkpt lat="-27.274439" lon="151.290064">
  <ele>342.96</ele>
  <time>2026-09-01T20:01:57Z</time>
  <course>11.23</course>
  <speed>0.0</speed>
  <fix>3d</fix>
</trkpt>
<trkpt lat="-27.274439" lon="151.290064">
  <ele>343.1</ele>
  <time>2026-09-01T20:01:57Z</time>
  <course>270.0</course>
  <speed>0.0</speed>
  <fix>3d</fix>
</trkpt>
<trkpt lat="-27.274439" lon="151.290064">
  <ele>342.82</ele>
  <time>2026-09-01T20:01:57Z</time>
  <course>11.23</course>
  <speed>0.0</speed>
  <fix>3d</fix>
</trkpt>
<trkpt lat="-27.274439" lon="151.290064">
  <ele>343.1</ele>
  <time>2026-09-01T20:01:57Z</time>
  <course>270.0</course>
  <speed>0.0</speed>
  <fix>3d</fix>
</trkpt>
<trkpt lat="-27.274439" lon="151.290064">
  <ele>342.75</ele>
  <time>2026-09-01T20:01:57Z</time>
  <course>11.23</course>
  <speed>0.0</speed>
  <fix>3d</fix>
</trkpt>
<trkpt lat="-27.274439" lon="151.290064">
  <ele>343.1</ele>
  <time>2026-09-01T20:01:57Z</time>
  <course>270.0</course>
  <speed>0.0</speed>
  <fix>3d</fix>
</trkpt>
<trkpt lat="-27.274439" lon="151.290064">
  <ele>343.08</ele>
  <time>2026-09-01T20:01:57Z</time>
  <course>11.22</course>
  <speed>0.0</speed>
  <fix>3d</fix>
</trkpt>
<trkpt lat="-27.274439" lon="151.290064">
  <ele>343.1</ele>
  <time>2026-09-01T20:01:57Z</time>
  <course>270.0</course>
  <speed>0.0</speed>
  <fix>3d</fix>
</trkpt>
<trkpt lat="-27.274439" lon="151.290064">
  <ele>343.03</ele>
  <time>2026-09-01T20:01:57Z</time>
  <course>11.22</course>
  <speed>0.0</speed>
  <fix>3d</fix>
</trkpt>
<trkpt lat="-27.274439" lon="151.290064">
  <ele>343.1</ele>
  <time>2026-09-01T20:01:57Z</time>
  <course>270.0</course>
  <speed>0.0</speed>
  <fix>3d</fix>
</trkpt>
<trkpt lat="-27.274439" lon="151.290064">
  <ele>342.94</ele>
  <time>2026-09-01T20:01:57Z</time>
  <course>11.22</course>
  <speed>0.0</speed>
  <fix>3d</fix>
</trkpt>
<trkpt lat="-27.274439" lon="151.290064">
  <ele>343.1</ele>
  <time>2026-09-01T20:01:57Z</time>
  <course>270.0</course>
  <speed>0.0</speed>
  <fix>3d</fix>
</trkpt>
<trkpt lat="-27.274439" lon="151.290064">
  <ele>342.93</ele>
  <time>2026-09-01T20:01:57Z</time>
  <course>11.22</course>
  <speed>0.0</speed>
  <fix>3d</fix>
</trkpt>
<trkpt lat="-27.274439" lon="151.290064">
  <ele>343.1</ele>
  <time>2026-09-01T20:01:57Z</time>
  <course>270.0</course>
  <speed>0.0</speed>
  <fix>3d</fix>
</trkpt>
<trkpt lat="-27.274439" lon="151.290064">
  <ele>343.08</ele>
  <time>2026-09-01T20:01:57Z</time>
  <course>11.22</course>
  <speed>0.0</speed>
  <fix>3d</fix>
</trkpt>
<trkpt lat="-27.274439" lon="151.290064">
  <ele>343.1</ele>
  <time>2026-09-01T20:01:57Z</time>
  <course>270.0</course>
  <speed>0.0</speed>
  <fix>3d</fix>
</trkpt>
<trkpt lat="-27.274439" lon="151.290064">
  <ele>342.85</ele>
  <time>2026-09-01T20:01:57Z</time>
  <course>11.21</course>
  <speed>0.0</speed>
  <fix>3d</fix>
</trkpt>
<trkpt lat="-27.274439" lon="151.290064">
  <ele>343.1</ele>
  <time>2026-09-01T20:01:57Z</time>
  <course>270.0</course>
  <speed>0.0</speed>
  <fix>3d</fix>
</trkpt>
<trkpt lat="-27.274439" lon="151.290064">
  <ele>342.86</ele>
  <time>2026-09-01T20:01:57Z</time>
  <course>11.21</course>
  <speed>0.0</speed>
  <fix>3d</fix>
</trkpt>
<trkpt lat="-27.274439" lon="151.290064">
  <ele>343.1</ele>
  <time>2026-09-01T20:01:57Z</time>
  <course>270.0</course>
  <speed>0.0</speed>
  <fix>3d</fix>
</trkpt>
<trkpt lat="-27.274439" lon="151.290064">
  <ele>342.83</ele>
  <time>2026-09-01T20:01:57Z</time>
  <course>11.21</course>
  <speed>0.0</speed>
  <fix>3d</fix>
</trkpt>
<trkpt lat="-27.274439" lon="151.290064">
  <ele>343.1</ele>
  <time>2026-09-01T20:01:57Z</time>
  <course>270.0</course>
  <speed>0.0</speed>
  <fix>3d</fix>
</trkpt>
<trkpt lat="-27.274439" lon="151.290064">
  <ele>343.14</ele>
  <time>2026-09-01T20:01:57Z</time>
  <course>11.21</course>
  <speed>0.0</speed>
  <fix>3d</fix>
</trkpt>
<trkpt lat="-27.274439" lon="151.290064">
  <ele>343.1</ele>
  <time>2026-09-01T20:01:57Z</time>
  <course>270.0</course>
  <speed>0.0</speed>
  <fix>3d</fix>
</trkpt>
<trkpt lat="-27.274439" lon="151.290064">
  <ele>343.03</ele>
  <time>2026-09-01T20:01:57Z</time>
  <course>11.21</course>
  <speed>0.0</speed>
  <fix>3d</fix>
</trkpt>
<trkpt lat="-27.274439" lon="151.290064">
  <ele>343.1</ele>
  <time>2026-09-01T20:01:57Z</time>
  <course>270.0</course>
  <speed>0.0</speed>
  <fix>3d</fix>
</trkpt>
<trkpt lat="-27.274439" lon="151.290064">
  <ele>342.82</ele>
  <time>2026-09-01T20:01:57Z</time>
  <course>11.2</course>
  <speed>0.0</speed>
  <fix>3d</fix>
</trkpt>
<trkpt lat="-27.274439" lon="151.290064">
  <ele>343.1</ele>
  <time>2026-09-01T20:01:57Z</time>
  <course>270.0</course>
  <speed>0.0</speed>
  <fix>3d</fix>
</trkpt>
<trkpt lat="-27.274439" lon="151.290064">
  <ele>342.93</ele>
  <time>2026-09-01T20:01:57Z</time>
  <course>11.2</course>
  <speed>0.0</speed>
  <fix>3d</fix>
</trkpt>
<trkpt lat="-27.274439" lon="151.290064">
  <ele>343.1</ele>
  <time>2026-09-01T20:01:57Z</time>
  <course>270.0</course>
  <speed>0.0</speed>
  <fix>3d</fix>
</trkpt>
<trkpt lat="-27.274439" lon="151.290064">
  <ele>342.82</ele>
  <time>2026-09-01T20:01:57Z</time>
  <course>11.2</course>
  <speed>0.0</speed>
  <fix>3d</fix>
</trkpt>
<trkpt lat="-27.274439" lon="151.290064">
  <ele>343.1</ele>
  <time>2026-09-01T20:01:57Z</time>
  <course>270.0</course>
  <speed>0.0</speed>
  <fix>3d</fix>
</trkpt>
<trkpt lat="-27.274439" lon="151.290064">
  <ele>342.83</ele>
  <time>2026-09-01T20:01:57Z</time>
  <course>11.2</course>
  <speed>0.0</speed>
  <fix>3d</fix>
</trkpt>
<trkpt lat="-27.274439" lon="151.290064">
  <ele>343.1</ele>
  <time>2026-09-01T20:01:57Z</time>
  <course>270.0</course>
  <speed>0.0</speed>
  <fix>3d</fix>
</trkpt>
<trkpt lat="-27.274439" lon="151.290064">
  <ele>342.9</ele>
  <time>2026-09-01T20:01:57Z</time>
  <course>11.2</course>
  <speed>0.0</speed>
  <fix>3d</fix>
</trkpt>
<trkpt lat="-27.274439" lon="151.290064">
  <ele>343.1</ele>
  <time>2026-09-01T20:01:57Z</time>
  <course>270.0</course>
  <speed>0.0</speed>
  <fix>3d</fix>
</trkpt>
<trkpt lat="-27.274439" lon="151.290064">
  <ele>342.83</ele>
  <time>2026-09-01T20:01:57Z</time>
  <course>11.2</course>
  <speed>0.0</speed>
  <fix>3d</fix>
</trkpt>
<trkpt lat="-27.274439" lon="151.290064">
  <ele>343.1</ele>
  <time>2026-09-01T20:01:57Z</time>
  <course>270.0</course>
  <speed>0.0</speed>
  <fix>3d</fix>
</trkpt>
<trkpt lat="-27.274439" lon="151.290064">
  <ele>343.04</ele>
  <time>2026-09-01T20:01:57Z</time>
  <course>11.19</course>
  <speed>0.0</speed>
  <fix>3d</fix>
</trkpt>
<trkpt lat="-27.274439" lon="151.290064">
  <ele>343.1</ele>
  <time>2026-09-01T20:01:57Z</time>
  <course>270.0</course>
  <speed>0.0</speed>
  <fix>3d</fix>
</trkpt>
<trkpt lat="-27.274439" lon="151.290064">
  <ele>342.98</ele>
  <time>2026-09-01T20:01:57Z</time>
  <course>11.19</course>
  <speed>0.0</speed>
  <fix>3d</fix>
</trkpt>
<trkpt lat="-27.274439" lon="151.290064">
  <ele>343.1</ele>
  <time>2026-09-01T20:01:57Z</time>
  <course>270.0</course>
  <speed>0.0</speed>
  <fix>3d</fix>
</trkpt>
<trkpt lat="-27.274439" lon="151.290064">
  <ele>342.99</ele>
  <time>2026-09-01T20:01:57Z</time>
  <course>11.19</course>
  <speed>0.0</speed>
  <fix>3d</fix>
</trkpt>
<trkpt lat="-27.274439" lon="151.290064">
  <ele>343.1</ele>
  <time>2026-09-01T20:01:57Z</time>
  <course>270.0</course>
  <speed>0.0</speed>
  <fix>3d</fix>
</trkpt>
<trkpt lat="-27.274439" lon="151.290064">
  <ele>342.98</ele>
  <time>2026-09-01T20:01:57Z</time>
  <course>11.19</course>
  <speed>0.0</speed>
  <fix>3d</fix>
</trkpt>
<trkpt lat="-27.274439" lon="151.290064">
  <ele>343.1</ele>
  <time>2026-09-01T20:01:57Z</time>
  <course>270.0</course>
  <speed>0.0</speed>
  <fix>3d</fix>
</trkpt>
<trkpt lat="-27.274439" lon="151.290064">
  <ele>342.9</ele>
  <time>2026-09-01T20:01:57Z</time>
  <course>11.19</course>
  <speed>0.0</speed>
  <fix>3d</fix>
</trkpt>
<trkpt lat="-27.274439" lon="151.290064">
  <ele>343.1</ele>
  <time>2026-09-01T20:01:57Z</time>
  <course>270.0</course>
  <speed>0.0</speed>
  <fix>3d</fix>
</trkpt>
<trkpt lat="-27.274439" lon="151.290064">
  <ele>343.03</ele>
  <time>2026-09-01T20:01:57Z</time>
  <course>11.19</course>
  <speed>0.0</speed>
  <fix>3d</fix>
</trkpt>
<trkpt lat="-27.274439" lon="151.290064">
  <ele>343.1</ele>
  <time>2026-09-01T20:01:57Z</time>
  <course>270.0</course>
  <speed>0.0</speed>
  <fix>3d</fix>
</trkpt>
<trkpt lat="-27.274439" lon="151.290064">
  <ele>343.11</ele>
  <time>2026-09-01T20:01:57Z</time>
  <course>11.18</course>
  <speed>0.0</speed>
  <fix>3d</fix>
</trkpt>
<trkpt lat="-27.274439" lon="151.290064">
  <ele>343.1</ele>
  <time>2026-09-01T20:01:57Z</time>
  <course>270.0</course>
  <speed>0.0</speed>
  <fix>3d</fix>
</trkpt>
<trkpt lat="-27.274439" lon="151.290064">
  <ele>342.98</ele>
  <time>2026-09-01T20:01:57Z</time>
  <course>11.18</course>
  <speed>0.0</speed>
  <fix>3d</fix>
</trkpt>
<trkpt lat="-27.274439" lon="151.290064">
  <ele>343.1</ele>
  <time>2026-09-01T20:01:57Z</time>
  <course>270.0</course>
  <speed>0.0</speed>
  <fix>3d</fix>
</trkpt>
<trkpt lat="-27.274439" lon="151.290064">
  <ele>343.06</ele>
  <time>2026-09-01T20:01:57Z</time>
  <course>11.18</course>
  <speed>0.0</speed>
  <fix>3d</fix>
</trkpt>
<trkpt lat="-27.274439" lon="151.290064">
  <ele>343.1</ele>
  <time>2026-09-01T20:01:57Z</time>
  <course>270.0</course>
  <speed>0.0</speed>
  <fix>3d</fix>
</trkpt>
<trkpt lat="-27.274439" lon="151.290064">
  <ele>342.9</ele>
  <time>2026-09-01T20:01:57Z</time>
  <course>11.18</course>
  <speed>0.0</speed>
  <fix>3d</fix>
</trkpt>
<trkpt lat="-27.274439" lon="151.290064">
  <ele>343.1</ele>
  <time>2026-09-01T20:01:57Z</time>
  <course>270.0</course>
  <speed>0.0</speed>
  <fix>3d</fix>
</trkpt>
<trkpt lat="-27.274439" lon="151.290064">
  <ele>342.79</ele>
  <time>2026-09-01T20:01:57Z</time>
  <course>11.18</course>
  <speed>0.0</speed>
  <fix>3d</fix>
</trkpt>
<trkpt lat="-27.274439" lon="151.290064">
  <ele>343.1</ele>
  <time>2026-09-01T20:01:57Z</time>
  <course>270.0</course>
  <speed>0.0</speed>
  <fix>3d</fix>
</trkpt>
<trkpt lat="-27.274439" lon="151.290064">
  <ele>343.08</ele>
  <time>2026-09-01T20:01:57Z</time>
  <course>11.18</course>
  <speed>0.0</speed>
  <fix>3d</fix>
</trkpt>
<trkpt lat="-27.274439" lon="151.290064">
  <ele>343.1</ele>
  <time>2026-09-01T20:01:57Z</time>
  <course>270.0</course>
  <speed>0.0</speed>
  <fix>3d</fix>
</trkpt>
<trkpt lat="-27.274439" lon="151.290064">
  <ele>342.99</ele>
  <time>2026-09-01T20:01:57Z</time>
  <course>11.17</course>
  <speed>0.0</speed>
  <fix>3d</fix>
</trkpt>
<trkpt lat="-27.274439" lon="151.290064">
  <ele>343.1</ele>
  <time>2026-09-01T20:01:57Z</time>
  <course>270.0</course>
  <speed>0.0</speed>
  <fix>3d</fix>
</trkpt>
<trkpt lat="-27.274439" lon="151.290064">
  <ele>342.95</ele>
  <time>2026-09-01T20:01:57Z</time>
  <course>11.17</course>
  <speed>0.0</speed>
  <fix>3d</fix>
</trkpt>
<trkpt lat="-27.274439" lon="151.290064">
  <ele>343.1</ele>
  <time>2026-09-01T20:01:57Z</time>
  <course>270.0</course>
  <speed>0.0</speed>
  <fix>3d</fix>
</trkpt>
<trkpt lat="-27.274439" lon="151.290064">
  <ele>342.8</ele>
  <time>2026-09-01T20:01:57Z</time>
  <course>11.17</course>
  <speed>0.0</speed>
  <fix>3d</fix>
</trkpt>
<trkpt lat="-27.274439" lon="151.290064">
  <ele>343.1</ele>
  <time>2026-09-01T20:01:57Z</time>
  <course>270.0</course>
  <speed>0.0</speed>
  <fix>3d</fix>
</trkpt>
<trkpt lat="-27.274439" lon="151.290064">
  <ele>343.01</ele>
  <time>2026-09-01T20:01:57Z</time>
  <course>11.17</course>
  <speed>0.0</speed>
  <fix>3d</fix>
</trkpt>
<trkpt lat="-27.274439" lon="151.290064">
  <ele>343.1</ele>
  <time>2026-09-01T20:01:57Z</time>
  <course>270.0</course>
  <speed>0.0</speed>
  <fix>3d</fix>
</trkpt>
<trkpt lat="-27.274439" lon="151.290064">
  <ele>342.78</ele>
  <time>2026-09-01T20:01:57Z</time>
  <course>11.17</course>
  <speed>0.0</speed>
  <fix>3d</fix>
</trkpt>
<trkpt lat="-27.274439" lon="151.290064">
  <ele>343.1</ele>
  <time>2026-09-01T20:01:57Z</time>
  <course>270.0</course>
  <speed>0.0</speed>
  <fix>3d</fix>
</trkpt>
<trkpt lat="-27.274439" lon="151.290064">
  <ele>342.81</ele>
  <time>2026-09-01T20:01:57Z</time>
  <course>11.17</course>
  <speed>0.0</speed>
  <fix>3d</fix>
</trkpt>
<trkpt lat="-27.274439" lon="151.290064">
  <ele>343.1</ele>
  <time>2026-09-01T20:01:57Z</time>
  <course>270.0</course>
  <speed>0.0</speed>
  <fix>3d</fix>
</trkpt>
<trkpt lat="-27.274439" lon="151.290064">
  <ele>342.85</ele>
  <time>2026-09-01T20:01:57Z</time>
  <course>11.17</course>
  <speed>0.0</speed>
  <fix>3d</fix>
</trkpt>
<trkpt lat="-27.274439" lon="151.290064">
  <ele>343.1</ele>
  <time>2026-09-01T20:01:57Z</time>
  <course>270.0</course>
  <speed>0.0</speed>
  <fix>3d</fix>
</trkpt>
<trkpt lat="-27.274439" lon="151.290064">
  <ele>342.78</ele>
  <time>2026-09-01T20:01:57Z</time>
  <course>11.17</course>
  <speed>0.0</speed>
  <fix>3d</fix>
</trkpt>
<trkpt lat="-27.274439" lon="151.290064">
  <ele>343.1</ele>
  <time>2026-09-01T20:01:57Z</time>
  <course>270.0</course>
  <speed>0.0</speed>
  <fix>3d</fix>
</trkpt>
<trkpt lat="-27.274439" lon="151.290064">
  <ele>342.79</ele>
  <time>2026-09-01T20:01:57Z</time>
  <course>11.16</course>
  <speed>0.0</speed>
  <fix>3d</fix>
</trkpt>
<trkpt lat="-27.274439" lon="151.290064">
  <ele>343.1</ele>
  <time>2026-09-01T20:01:57Z</time>
  <course>270.0</course>
  <speed>0.0</speed>
  <fix>3d</fix>
</trkpt>
<trkpt lat="-27.274439" lon="151.290064">
  <ele>342.9</ele>
  <time>2026-09-01T20:01:57Z</time>
  <course>11.16</course>
  <speed>0.0</speed>
  <fix>3d</fix>
</trkpt>
<trkpt lat="-27.274439" lon="151.290064">
  <ele>343.1</ele>
  <time>2026-09-01T20:01:57Z</time>
  <course>270.0</course>
  <speed>0.0</speed>
  <fix>3d</fix>
</trkpt>
<trkpt lat="-27.274439" lon="151.290064">
  <ele>342.98</ele>
  <time>2026-09-01T20:01:57Z</time>
  <course>11.16</course>
  <speed>0.0</speed>
  <fix>3d</fix>
</trkpt>
<trkpt lat="-27.274439" lon="151.290064">
  <ele>343.1</ele>
  <time>2026-09-01T20:01:57Z</time>
  <course>270.0</course>
  <speed>0.0</speed>
  <fix>3d</fix>
</trkpt>
<trkpt lat="-27.274439" lon="151.290064">
  <ele>342.77</ele>
  <time>2026-09-01T20:01:57Z</time>
  <course>11.16</course>
  <speed>0.0</speed>
  <fix>3d</fix>
</trkpt>
<trkpt lat="-27.274439" lon="151.290064">
  <ele>343.1</ele>
  <time>2026-09-01T20:01:57Z</time>
  <course>270.0</course>
  <speed>0.0</speed>
  <fix>3d</fix>
</trkpt>
<trkpt lat="-27.274439" lon="151.290064">
  <ele>342.95</ele>
  <time>2026-09-01T20:01:57Z</time>
  <course>11.16</course>
  <speed>0.0</speed>
  <fix>3d</fix>
</trkpt>
<trkpt lat="-27.274439" lon="151.290064">
  <ele>343.1</ele>
  <time>2026-09-01T20:01:57Z</time>
  <course>270.0</course>
  <speed>0.0</speed>
  <fix>3d</fix>
</trkpt>
<trkpt lat="-27.274439" lon="151.290064">
  <ele>343.04</ele>
  <time>2026-09-01T20:01:57Z</time>
  <course>11.16</course>
  <speed>0.0</speed>
  <fix>3d</fix>
</trkpt>
<trkpt lat="-27.274439" lon="151.290064">
  <ele>343.1</ele>
  <time>2026-09-01T20:01:57Z</time>
  <course>270.0</course>
  <speed>0.0</speed>
  <fix>3d</fix>
</trkpt>
<trkpt lat="-27.274439" lon="151.290064">
  <ele>342.83</ele>
  <time>2026-09-01T20:01:57Z</time>
  <course>11.16</course>
  <speed>0.0</speed>
  <fix>3d</fix>
</trkpt>
<trkpt lat="-27.274439" lon="151.290064">
  <ele>343.1</ele>
  <time>2026-09-01T20:01:57Z</time>
  <course>270.0</course>
  <speed>0.0</speed>
  <fix>3d</fix>
</trkpt>
<trkpt lat="-27.274439" lon="151.290064">
  <ele>342.87</ele>
  <time>2026-09-01T20:01:57Z</time>
  <course>11.15</course>
  <speed>0.0</speed>
  <fix>3d</fix>
</trkpt>
<trkpt lat="-27.274439" lon="151.290064">
  <ele>343.1</ele>
  <time>2026-09-01T20:01:57Z</time>
  <course>270.0</course>
  <speed>0.0</speed>
  <fix>3d</fix>
</trkpt>
<trkpt lat="-27.274439" lon="151.290064">
  <ele>342.76</ele>
  <time>2026-09-01T20:01:57Z</time>
  <course>11.15</course>
  <speed>0.0</speed>
  <fix>3d</fix>
</trkpt>
<trkpt lat="-27.274439" lon="151.290064">
  <ele>343.1</ele>
  <time>2026-09-01T20:01:57Z</time>
  <course>270.0</course>
  <speed>0.0</speed>
  <fix>3d</fix>
</trkpt>
<trkpt lat="-27.274439" lon="151.290064">
  <ele>343.01</ele>
  <time>2026-09-01T20:01:57Z</time>
  <course>11.14</course>
  <speed>0.0</speed>
  <fix>3d</fix>
</trkpt>
<trkpt lat="-27.274439" lon="151.290064">
  <ele>343.1</ele>
  <time>2026-09-01T20:01:57Z</time>
  <course>270.0</course>
  <speed>0.0</speed>
  <fix>3d</fix>
</trkpt>
<trkpt lat="-27.274439" lon="151.290064">
  <ele>343.08</ele>
  <time>2026-09-01T20:01:57Z</time>
  <course>11.14</course>
  <speed>0.0</speed>
  <fix>3d</fix>
</trkpt>
<trkpt lat="-27.274439" lon="151.290064">
  <ele>343.1</ele>
  <time>2026-09-01T20:01:57Z</time>
  <course>270.0</course>
  <speed>0.0</speed>
  <fix>3d</fix>
</trkpt>
<trkpt lat="-27.274439" lon="151.290064">
  <ele>342.82</ele>
  <time>2026-09-01T20:01:57Z</time>
  <course>11.14</course>
  <speed>0.0</speed>
  <fix>3d</fix>
</trkpt>
<trkpt lat="-27.274439" lon="151.290064">
  <ele>343.1</ele>
  <time>2026-09-01T20:01:57Z</time>
  <course>270.0</course>
  <speed>0.0</speed>
  <fix>3d</fix>
</trkpt>
<trkpt lat="-27.274439" lon="151.290064">
  <ele>343.12</ele>
  <time>2026-09-01T20:01:57Z</time>
  <course>11.13</course>
  <speed>0.0</speed>
  <fix>3d</fix>
</trkpt>
<trkpt lat="-27.274439" lon="151.290064">
  <ele>343.1</ele>
  <time>2026-09-01T20:01:57Z</time>
  <course>270.0</course>
  <speed>0.0</speed>
  <fix>3d</fix>
</trkpt>
<trkpt lat="-27.274439" lon="151.290064">
  <ele>342.85</ele>
  <time>2026-09-01T20:01:57Z</time>
  <course>11.13</course>
  <speed>0.0</speed>
  <fix>3d</fix>
</trkpt>
<trkpt lat="-27.274439" lon="151.290064">
  <ele>343.1</ele>
  <time>2026-09-01T20:01:57Z</time>
  <course>270.0</course>
  <speed>0.0</speed>
  <fix>3d</fix>
</trkpt>
<trkpt lat="-27.274439" lon="151.290064">
  <ele>343.01</ele>
  <time>2026-09-01T20:01:57Z</time>
  <course>11.12</course>
  <speed>0.0</speed>
  <fix>3d</fix>
</trkpt>
<trkpt lat="-27.274439" lon="151.290064">
  <ele>343.1</ele>
  <time>2026-09-01T20:01:57Z</time>
  <course>270.0</course>
  <speed>0.0</speed>
  <fix>3d</fix>
</trkpt>
<trkpt lat="-27.274439" lon="151.290064">
  <ele>343.01</ele>
  <time>2026-09-01T20:01:57Z</time>
  <course>11.12</course>
  <speed>0.0</speed>
  <fix>3d</fix>
</trkpt>
<trkpt lat="-27.274439" lon="151.290064">
  <ele>343.1</ele>
  <time>2026-09-01T20:01:57Z</time>
  <course>270.0</course>
  <speed>0.0</speed>
  <fix>3d</fix>
</trkpt>
<trkpt lat="-27.274439" lon="151.290064">
  <ele>342.82</ele>
  <time>2026-09-01T20:01:57Z</time>
  <course>11.12</course>
  <speed>0.0</speed>
  <fix>3d</fix>
</trkpt>
<trkpt lat="-27.274439" lon="151.290064">
  <ele>343.1</ele>
  <time>2026-09-01T20:01:57Z</time>
  <course>270.0</course>
  <speed>0.0</speed>
  <fix>3d</fix>
</trkpt>
<trkpt lat="-27.274439" lon="151.290064">
  <ele>343.05</ele>
  <time>2026-09-01T20:01:57Z</time>
  <course>11.11</course>
  <speed>0.0</speed>
  <fix>3d</fix>
</trkpt>
<trkpt lat="-27.274439" lon="151.290064">
  <ele>343.1</ele>
  <time>2026-09-01T20:01:57Z</time>
  <course>270.0</course>
  <speed>0.0</speed>
  <fix>3d</fix>
</trkpt>
<trkpt lat="-27.274439" lon="151.290064">
  <ele>342.9</ele>
  <time>2026-09-01T20:01:57Z</time>
  <course>11.11</course>
  <speed>0.0</speed>
  <fix>3d</fix>
</trkpt>
<trkpt lat="-27.274439" lon="151.290064">
  <ele>343.1</ele>
  <time>2026-09-01T20:01:57Z</time>
  <course>270.0</course>
  <speed>0.0</speed>
  <fix>3d</fix>
</trkpt>
<trkpt lat="-27.274439" lon="151.290064">
  <ele>342.98</ele>
  <time>2026-09-01T20:01:57Z</time>
  <course>11.11</course>
  <speed>0.0</speed>
  <fix>3d</fix>
</trkpt>
<trkpt lat="-27.274439" lon="151.290064">
  <ele>343.1</ele>
  <time>2026-09-01T20:01:57Z</time>
  <course>270.0</course>
  <speed>0.0</speed>
  <fix>3d</fix>
</trkpt>
<trkpt lat="-27.274439" lon="151.290064">
  <ele>342.84</ele>
  <time>2026-09-01T20:01:57Z</time>
  <course>11.1</course>
  <speed>0.0</speed>
  <fix>3d</fix>
</trkpt>
<trkpt lat="-27.274439" lon="151.290064">
  <ele>343.1</ele>
  <time>2026-09-01T20:01:57Z</time>
  <course>270.0</course>
  <speed>0.0</speed>
  <fix>3d</fix>
</trkpt>
<trkpt lat="-27.274439" lon="151.290064">
  <ele>343.0</ele>
  <time>2026-09-01T20:01:57Z</time>
  <course>11.1</course>
  <speed>0.0</speed>
  <fix>3d</fix>
</trkpt>
<trkpt lat="-27.274439" lon="151.290064">
  <ele>343.1</ele>
  <time>2026-09-01T20:01:57Z</time>
  <course>270.0</course>
  <speed>0.0</speed>
  <fix>3d</fix>
</trkpt>
<trkpt lat="-27.274439" lon="151.290064">
  <ele>343.0</ele>
  <time>2026-09-01T20:01:57Z</time>
  <course>11.1</course>
  <speed>0.0</speed>
  <fix>3d</fix>
</trkpt>
<trkpt lat="-27.274439" lon="151.290064">
  <ele>343.1</ele>
  <time>2026-09-01T20:01:57Z</time>
  <course>270.0</course>
  <speed>0.0</speed>
  <fix>3d</fix>
</trkpt>
<trkpt lat="-27.274439" lon="151.290064">
  <ele>342.78</ele>
  <time>2026-09-01T20:01:57Z</time>
  <course>11.09</course>
  <speed>0.0</speed>
  <fix>3d</fix>
</trkpt>
<trkpt lat="-27.274439" lon="151.290064">
  <ele>343.1</ele>
  <time>2026-09-01T20:01:57Z</time>
  <course>270.0</course>
  <speed>0.0</speed>
  <fix>3d</fix>
</trkpt>
<trkpt lat="-27.274439" lon="151.290064">
  <ele>343.06</ele>
  <time>2026-09-01T20:01:57Z</time>
  <course>11.09</course>
  <speed>0.0</speed>
  <fix>3d</fix>
</trkpt>
<trkpt lat="-27.274439" lon="151.290064">
  <ele>343.1</ele>
  <time>2026-09-01T20:01:57Z</time>
  <course>270.0</course>
  <speed>0.0</speed>
  <fix>3d</fix>
</trkpt>
<trkpt lat="-27.274439" lon="151.290064">
  <ele>343.03</ele>
  <time>2026-09-01T20:01:57Z</time>
  <course>11.09</course>
  <speed>0.0</speed>
  <fix>3d</fix>
</trkpt>
<trkpt lat="-27.274439" lon="151.290064">
  <ele>343.1</ele>
  <time>2026-09-01T20:01:57Z</time>
  <course>270.0</course>
  <speed>0.0</speed>
  <fix>3d</fix>
</trkpt>
<trkpt lat="-27.274439" lon="151.290064">
  <ele>343.15</ele>
  <time>2026-09-01T20:01:57Z</time>
  <course>11.08</course>
  <speed>0.0</speed>
  <fix>3d</fix>
</trkpt>
<trkpt lat="-27.274439" lon="151.290064">
  <ele>343.1</ele>
  <time>2026-09-01T20:01:57Z</time>
  <course>270.0</course>
  <speed>0.0</speed>
  <fix>3d</fix>
</trkpt>
<trkpt lat="-27.274439" lon="151.290064">
  <ele>342.95</ele>
  <time>2026-09-01T20:01:57Z</time>
  <course>11.08</course>
  <speed>0.0</speed>
  <fix>3d</fix>
</trkpt>
<trkpt lat="-27.274439" lon="151.290064">
  <ele>343.1</ele>
  <time>2026-09-01T20:01:57Z</time>
  <course>270.0</course>
  <speed>0.0</speed>
  <fix>3d</fix>
</trkpt>
<trkpt lat="-27.274439" lon="151.290064">
  <ele>343.03</ele>
  <time>2026-09-01T20:01:57Z</time>
  <course>11.08</course>
  <speed>0.0</speed>
  <fix>3d</fix>
</trkpt>
<trkpt lat="-27.274439" lon="151.290064">
  <ele>343.1</ele>
  <time>2026-09-01T20:01:57Z</time>
  <course>270.0</course>
  <speed>0.0</speed>
  <fix>3d</fix>
</trkpt>
<trkpt lat="-27.274439" lon="151.290064">
  <ele>343.12</ele>
  <time>2026-09-01T20:01:57Z</time>
  <course>11.07</course>
  <speed>0.0</speed>
  <fix>3d</fix>
</trkpt>
<trkpt lat="-27.274439" lon="151.290064">
  <ele>343.1</ele>
  <time>2026-09-01T20:01:57Z</time>
  <course>270.0</course>
  <speed>0.0</speed>
  <fix>3d</fix>
</trkpt>
<trkpt lat="-27.274439" lon="151.290064">
  <ele>343.16</ele>
  <time>2026-09-01T20:01:57Z</time>
  <course>11.07</course>
  <speed>0.0</speed>
  <fix>3d</fix>
</trkpt>
<trkpt lat="-27.274439" lon="151.290064">
  <ele>343.1</ele>
  <time>2026-09-01T20:01:57Z</time>
  <course>270.0</course>
  <speed>0.0</speed>
  <fix>3d</fix>
</trkpt>
<trkpt lat="-27.274439" lon="151.290064">
  <ele>342.97</ele>
  <time>2026-09-01T20:01:57Z</time>
  <course>11.07</course>
  <speed>0.0</speed>
  <fix>3d</fix>
</trkpt>
<trkpt lat="-27.274439" lon="151.290064">
  <ele>343.1</ele>
  <time>2026-09-01T20:01:57Z</time>
  <course>270.0</course>
  <speed>0.0</speed>
  <fix>3d</fix>
</trkpt>
<trkpt lat="-27.274439" lon="151.290064">
  <ele>343.14</ele>
  <time>2026-09-01T20:01:57Z</time>
  <course>11.06</course>
  <speed>0.0</speed>
  <fix>3d</fix>
</trkpt>
<trkpt lat="-27.274439" lon="151.290064">
  <ele>343.1</ele>
  <time>2026-09-01T20:01:57Z</time>
  <course>270.0</course>
  <speed>0.0</speed>
  <fix>3d</fix>
</trkpt>
<trkpt lat="-27.274439" lon="151.290064">
  <ele>342.86</ele>
  <time>2026-09-01T20:01:57Z</time>
  <course>11.06</course>
  <speed>0.0</speed>
  <fix>3d</fix>
</trkpt>
<trkpt lat="-27.274439" lon="151.290064">
  <ele>343.1</ele>
  <time>2026-09-01T20:01:57Z</time>
  <course>270.0</course>
  <speed>0.0</speed>
  <fix>3d</fix>
</trkpt>
<trkpt lat="-27.274439" lon="151.290064">
  <ele>342.92</ele>
  <time>2026-09-01T20:01:57Z</time>
  <course>11.06</course>
  <speed>0.0</speed>
  <fix>3d</fix>
</trkpt>
<trkpt lat="-27.274439" lon="151.290064">
  <ele>343.1</ele>
  <time>2026-09-01T20:01:57Z</time>
  <course>270.0</course>
  <speed>0.0</speed>
  <fix>3d</fix>
</trkpt>
<trkpt lat="-27.274439" lon="151.290064">
  <ele>343.12</ele>
  <time>2026-09-01T20:01:57Z</time>
  <course>11.05</course>
  <speed>0.0</speed>
  <fix>3d</fix>
</trkpt>
<trkpt lat="-27.274439" lon="151.290064">
  <ele>343.1</ele>
  <time>2026-09-01T20:01:57Z</time>
  <course>270.0</course>
  <speed>0.0</speed>
  <fix>3d</fix>
</trkpt>
<trkpt lat="-27.274439" lon="151.290064">
  <ele>343.03</ele>
  <time>2026-09-01T20:01:57Z</time>
  <course>11.05</course>
  <speed>0.0</speed>
  <fix>3d</fix>
</trkpt>
<trkpt lat="-27.274439" lon="151.290064">
  <ele>343.1</ele>
  <time>2026-09-01T20:01:57Z</time>
  <course>270.0</course>
  <speed>0.0</speed>
  <fix>3d</fix>
</trkpt>
<trkpt lat="-27.274439" lon="151.290064">
  <ele>343.07</ele>
  <time>2026-09-01T20:01:57Z</time>
  <course>11.05</course>
  <speed>0.0</speed>
  <fix>3d</fix>
</trkpt>
<trkpt lat="-27.274439" lon="151.290064">
  <ele>343.1</ele>
  <time>2026-09-01T20:01:57Z</time>
  <course>270.0</course>
  <speed>0.0</speed>
  <fix>3d</fix>
</trkpt>
<trkpt lat="-27.274439" lon="151.290064">
  <ele>343.03</ele>
  <time>2026-09-01T20:01:57Z</time>
  <course>11.05</course>
  <speed>0.0</speed>
  <fix>3d</fix>
</trkpt>
<trkpt lat="-27.274439" lon="151.290064">
  <ele>343.1</ele>
  <time>2026-09-01T20:01:57Z</time>
  <course>270.0</course>
  <speed>0.0</speed>
  <fix>3d</fix>
</trkpt>
<trkpt lat="-27.274439" lon="151.290064">
  <ele>342.88</ele>
  <time>2026-09-01T20:01:57Z</time>
  <course>11.04</course>
  <speed>0.0</speed>
  <fix>3d</fix>
</trkpt>
<trkpt lat="-27.274439" lon="151.290064">
  <ele>343.1</ele>
  <time>2026-09-01T20:01:57Z</time>
  <course>270.0</course>
  <speed>0.0</speed>
  <fix>3d</fix>
</trkpt>
<trkpt lat="-27.274439" lon="151.290064">
  <ele>343.0</ele>
  <time>2026-09-01T20:01:57Z</time>
  <course>11.04</course>
  <speed>0.0</speed>
  <fix>3d</fix>
</trkpt>
<trkpt lat="-27.274439" lon="151.290064">
  <ele>343.1</ele>
  <time>2026-09-01T20:01:57Z</time>
  <course>270.0</course>
  <speed>0.0</speed>
  <fix>3d</fix>
</trkpt>
<trkpt lat="-27.274439" lon="151.290064">
  <ele>343.1</ele>
  <time>2026-09-01T20:01:57Z</time>
  <course>11.04</course>
  <speed>0.0</speed>
  <fix>3d</fix>
</trkpt>
<trkpt lat="-27.274439" lon="151.290064">
  <ele>343.1</ele>
  <time>2026-09-01T20:01:57Z</time>
  <course>270.0</course>
  <speed>0.0</speed>
  <fix>3d</fix>
</trkpt>
<trkpt lat="-27.274439" lon="151.290064">
  <ele>343.04</ele>
  <time>2026-09-01T20:01:57Z</time>
  <course>11.04</course>
  <speed>0.0</speed>
  <fix>3d</fix>
</trkpt>
<trkpt lat="-27.274439" lon="151.290064">
  <ele>343.1</ele>
  <time>2026-09-01T20:01:57Z</time>
  <course>270.0</course>
  <speed>0.0</speed>
  <fix>3d</fix>
</trkpt>
<trkpt lat="-27.274439" lon="151.290064">
  <ele>343.22</ele>
  <time>2026-09-01T20:01:57Z</time>
  <course>11.03</course>
  <speed>0.0</speed>
  <fix>3d</fix>
</trkpt>
<trkpt lat="-27.274439" lon="151.290064">
  <ele>343.1</ele>
  <time>2026-09-01T20:01:57Z</time>
  <course>270.0</course>
  <speed>0.0</speed>
  <fix>3d</fix>
</trkpt>
<trkpt lat="-27.274439" lon="151.290064">
  <ele>343.05</ele>
  <time>2026-09-01T20:01:57Z</time>
  <course>11.03</course>
  <speed>0.0</speed>
  <fix>3d</fix>
</trkpt>
<trkpt lat="-27.274439" lon="151.290064">
  <ele>343.1</ele>
  <time>2026-09-01T20:01:57Z</time>
  <course>270.0</course>
  <speed>0.0</speed>
  <fix>3d</fix>
</trkpt>
<trkpt lat="-27.274439" lon="151.290064">
  <ele>343.07</ele>
  <time>2026-09-01T20:01:57Z</time>
  <course>11.03</course>
  <speed>0.0</speed>
  <fix>3d</fix>
</trkpt>
<trkpt lat="-27.274439" lon="151.290064">
  <ele>343.1</ele>
  <time>2026-09-01T20:01:57Z</time>
  <course>270.0</course>
  <speed>0.0</speed>
  <fix>3d</fix>
</trkpt>
<trkpt lat="-27.274439" lon="151.290064">
  <ele>343.08</ele>
  <time>2026-09-01T20:01:57Z</time>
  <course>11.03</course>
  <speed>0.0</speed>
  <fix>3d</fix>
</trkpt>
<trkpt lat="-27.274439" lon="151.290064">
  <ele>343.1</ele>
  <time>2026-09-01T20:01:57Z</time>
  <course>270.0</course>
  <speed>0.0</speed>
  <fix>3d</fix>
</trkpt>
<trkpt lat="-27.274439" lon="151.290064">
  <ele>342.89</ele>
  <time>2026-09-01T20:01:57Z</time>
  <course>11.02</course>
  <speed>0.0</speed>
  <fix>3d</fix>
</trkpt>
<trkpt lat="-27.274439" lon="151.290064">
  <ele>343.1</ele>
  <time>2026-09-01T20:01:57Z</time>
  <course>270.0</course>
  <speed>0.0</speed>
  <fix>3d</fix>
</trkpt>
<trkpt lat="-27.274439" lon="151.290064">
  <ele>342.99</ele>
  <time>2026-09-01T20:01:57Z</time>
  <course>11.02</course>
  <speed>0.0</speed>
  <fix>3d</fix>
</trkpt>
<trkpt lat="-27.274439" lon="151.290064">
  <ele>343.1</ele>
  <time>2026-09-01T20:01:57Z</time>
  <course>270.0</course>
  <speed>0.0</speed>
  <fix>3d</fix>
</trkpt>
<trkpt lat="-27.274439" lon="151.290064">
  <ele>342.89</ele>
  <time>2026-09-01T20:01:57Z</time>
  <course>11.02</course>
  <speed>0.0</speed>
  <fix>3d</fix>
</trkpt>
<trkpt lat="-27.274439" lon="151.290064">
  <ele>343.1</ele>
  <time>2026-09-01T20:01:57Z</time>
  <course>270.0</course>
  <speed>0.0</speed>
  <fix>3d</fix>
</trkpt>
<trkpt lat="-27.274439" lon="151.290064">
  <ele>343.19</ele>
  <time>2026-09-01T20:01:57Z</time>
  <course>11.02</course>
  <speed>0.0</speed>
  <fix>3d</fix>
</trkpt>
<trkpt lat="-27.274439" lon="151.290064">
  <ele>343.1</ele>
  <time>2026-09-01T20:01:57Z</time>
  <course>270.0</course>
  <speed>0.0</speed>
  <fix>3d</fix>
</trkpt>
<trkpt lat="-27.274439" lon="151.290064">
  <ele>343.02</ele>
  <time>2026-09-01T20:01:57Z</time>
  <course>11.01</course>
  <speed>0.0</speed>
  <fix>3d</fix>
</trkpt>
<trkpt lat="-27.274439" lon="151.290064">
  <ele>343.1</ele>
  <time>2026-09-01T20:01:57Z</time>
  <course>270.0</course>
  <speed>0.0</speed>
  <fix>3d</fix>
</trkpt>
<trkpt lat="-27.274439" lon="151.290064">
  <ele>343.2</ele>
  <time>2026-09-01T20:01:57Z</time>
  <course>11.01</course>
  <speed>0.0</speed>
  <fix>3d</fix>
</trkpt>
<trkpt lat="-27.274439" lon="151.290064">
  <ele>343.1</ele>
  <time>2026-09-01T20:01:57Z</time>
  <course>270.0</course>
  <speed>0.0</speed>
  <fix>3d</fix>
</trkpt>
<trkpt lat="-27.274439" lon="151.290064">
  <ele>343.22</ele>
  <time>2026-09-01T20:01:57Z</time>
  <course>11.01</course>
  <speed>0.0</speed>
  <fix>3d</fix>
</trkpt>
<trkpt lat="-27.274439" lon="151.290064">
  <ele>343.1</ele>
  <time>2026-09-01T20:01:57Z</time>
  <course>270.0</course>
  <speed>0.0</speed>
  <fix>3d</fix>
</trkpt>
<trkpt lat="-27.274439" lon="151.290064">
  <ele>343.04</ele>
  <time>2026-09-01T20:01:57Z</time>
  <course>11.01</course>
  <speed>0.0</speed>
  <fix>3d</fix>
</trkpt>
<trkpt lat="-27.274439" lon="151.290064">
  <ele>343.1</ele>
  <time>2026-09-01T20:01:57Z</time>
  <course>270.0</course>
  <speed>0.0</speed>
  <fix>3d</fix>
</trkpt>
<trkpt lat="-27.274439" lon="151.290064">
  <ele>343.14</ele>
  <time>2026-09-01T20:01:57Z</time>
  <course>11.0</course>
  <speed>0.0</speed>
  <fix>3d</fix>
</trkpt>
<trkpt lat="-27.274439" lon="151.290064">
  <ele>343.1</ele>
  <time>2026-09-01T20:01:57Z</time>
  <course>270.0</course>
  <speed>0.0</speed>
  <fix>3d</fix>
</trkpt>
<trkpt lat="-27.274439" lon="151.290064">
  <ele>342.98</ele>
  <time>2026-09-01T20:01:57Z</time>
  <course>11.0</course>
  <speed>0.0</speed>
  <fix>3d</fix>
</trkpt>
<trkpt lat="-27.274439" lon="151.290064">
  <ele>343.1</ele>
  <time>2026-09-01T20:01:57Z</time>
  <course>270.0</course>
  <speed>0.0</speed>
  <fix>3d</fix>
</trkpt>
<trkpt lat="-27.274439" lon="151.290064">
  <ele>342.95</ele>
  <time>2026-09-01T20:01:57Z</time>
  <course>11.0</course>
  <speed>0.0</speed>
  <fix>3d</fix>
</trkpt>
<trkpt lat="-27.274439" lon="151.290064">
  <ele>343.1</ele>
  <time>2026-09-01T20:01:57Z</time>
  <course>270.0</course>
  <speed>0.0</speed>
  <fix>3d</fix>
</trkpt>
<trkpt lat="-27.274439" lon="151.290064">
  <ele>343.13</ele>
  <time>2026-09-01T20:01:57Z</time>
  <course>11.0</course>
  <speed>0.0</speed>
  <fix>3d</fix>
</trkpt>
<trkpt lat="-27.274439" lon="151.290064">
  <ele>343.1</ele>
  <time>2026-09-01T20:01:57Z</time>
  <course>270.0</course>
  <speed>0.0</speed>
  <fix>3d</fix>
</trkpt>
<trkpt lat="-27.274439" lon="151.290064">
  <ele>342.97</ele>
  <time>2026-09-01T20:01:57Z</time>
  <course>10.99</course>
  <speed>0.0</speed>
  <fix>3d</fix>
</trkpt>
<trkpt lat="-27.274439" lon="151.290064">
  <ele>343.1</ele>
  <time>2026-09-01T20:01:57Z</time>
  <course>270.0</course>
  <speed>0.0</speed>
  <fix>3d</fix>
</trkpt>
<trkpt lat="-27.274439" lon="151.290064">
  <ele>342.98</ele>
  <time>2026-09-01T20:01:57Z</time>
  <course>10.99</course>
  <speed>0.0</speed>
  <fix>3d</fix>
</trkpt>
<trkpt lat="-27.274439" lon="151.290064">
  <ele>343.1</ele>
  <time>2026-09-01T20:01:57Z</time>
  <course>270.0</course>
  <speed>0.0</speed>
  <fix>3d</fix>
</trkpt>
<trkpt lat="-27.274439" lon="151.290064">
  <ele>343.1</ele>
  <time>2026-09-01T20:01:57Z</time>
  <course>10.99</course>
  <speed>0.0</speed>
  <fix>3d</fix>
</trkpt>
<trkpt lat="-27.274439" lon="151.290064">
  <ele>343.1</ele>
  <time>2026-09-01T20:01:57Z</time>
  <course>270.0</course>
  <speed>0.0</speed>
  <fix>3d</fix>
</trkpt>
<trkpt lat="-27.274439" lon="151.290064">
  <ele>342.83</ele>
  <time>2026-09-01T20:01:57Z</time>
  <course>10.98</course>
  <speed>0.0</speed>
  <fix>3d</fix>
</trkpt>
<trkpt lat="-27.274439" lon="151.290064">
  <ele>343.1</ele>
  <time>2026-09-01T20:01:57Z</time>
  <course>270.0</course>
  <speed>0.0</speed>
  <fix>3d</fix>
</trkpt>
<trkpt lat="-27.274439" lon="151.290064">
  <ele>342.9</ele>
  <time>2026-09-01T20:01:57Z</time>
  <course>10.98</course>
  <speed>0.0</speed>
  <fix>3d</fix>
</trkpt>
<trkpt lat="-27.274439" lon="151.290064">
  <ele>343.1</ele>
  <time>2026-09-01T20:01:57Z</time>
  <course>270.0</course>
  <speed>0.0</speed>
  <fix>3d</fix>
</trkpt>
<trkpt lat="-27.274439" lon="151.290064">
  <ele>342.92</ele>
  <time>2026-09-01T20:01:57Z</time>
  <course>10.97</course>
  <speed>0.0</speed>
  <fix>3d</fix>
</trkpt>
<trkpt lat="-27.274439" lon="151.290064">
  <ele>343.1</ele>
  <time>2026-09-01T20:01:57Z</time>
  <course>270.0</course>
  <speed>0.0</speed>
  <fix>3d</fix>
</trkpt>
<trkpt lat="-27.274439" lon="151.290064">
  <ele>342.88</ele>
  <time>2026-09-01T20:01:57Z</time>
  <course>10.97</course>
  <speed>0.0</speed>
  <fix>3d</fix>
</trkpt>
<trkpt lat="-27.274439" lon="151.290064">
  <ele>343.1</ele>
  <time>2026-09-01T20:01:57Z</time>
  <course>270.0</course>
  <speed>0.0</speed>
  <fix>3d</fix>
</trkpt>
<trkpt lat="-27.274439" lon="151.290064">
  <ele>342.89</ele>
  <time>2026-09-01T20:01:57Z</time>
  <course>10.96</course>
  <speed>0.0</speed>
  <fix>3d</fix>
</trkpt>
<trkpt lat="-27.274439" lon="151.290064">
  <ele>343.1</ele>
  <time>2026-09-01T20:01:57Z</time>
  <course>270.0</course>
  <speed>0.0</speed>
  <fix>3d</fix>
</trkpt>
<trkpt lat="-27.274439" lon="151.290064">
  <ele>343.05</ele>
  <time>2026-09-01T20:01:57Z</time>
  <course>10.96</course>
  <speed>0.0</speed>
  <fix>3d</fix>
</trkpt>
<trkpt lat="-27.274439" lon="151.290064">
  <ele>343.1</ele>
  <time>2026-09-01T20:01:57Z</time>
  <course>270.0</course>
  <speed>0.0</speed>
  <fix>3d</fix>
</trkpt>
<trkpt lat="-27.274439" lon="151.290064">
  <ele>343.06</ele>
  <time>2026-09-01T20:01:57Z</time>
  <course>10.96</course>
  <speed>0.0</speed>
  <fix>3d</fix>
</trkpt>
<trkpt lat="-27.274439" lon="151.290064">
  <ele>343.1</ele>
  <time>2026-09-01T20:01:57Z</time>
  <course>270.0</course>
  <speed>0.0</speed>
  <fix>3d</fix>
</trkpt>
<trkpt lat="-27.274439" lon="151.290064">
  <ele>343.18</ele>
  <time>2026-09-01T20:01:57Z</time>
  <course>10.95</course>
  <speed>0.0</speed>
  <fix>3d</fix>
</trkpt>
<trkpt lat="-27.274439" lon="151.290064">
  <ele>343.1</ele>
  <time>2026-09-01T20:01:57Z</time>
  <course>270.0</course>
  <speed>0.0</speed>
  <fix>3d</fix>
</trkpt>
<trkpt lat="-27.274439" lon="151.290064">
  <ele>342.98</ele>
  <time>2026-09-01T20:01:57Z</time>
  <course>10.95</course>
  <speed>0.0</speed>
  <fix>3d</fix>
</trkpt>
<trkpt lat="-27.274439" lon="151.290064">
  <ele>343.1</ele>
  <time>2026-09-01T20:01:57Z</time>
  <course>270.0</course>
  <speed>0.0</speed>
  <fix>3d</fix>
</trkpt>
<trkpt lat="-27.274439" lon="151.290064">
  <ele>343.05</ele>
  <time>2026-09-01T20:01:57Z</time>
  <course>10.94</course>
  <speed>0.0</speed>
  <fix>3d</fix>
</trkpt>
<trkpt lat="-27.274439" lon="151.290064">
  <ele>343.1</ele>
  <time>2026-09-01T20:01:57Z</time>
  <course>270.0</course>
  <speed>0.0</speed>
  <fix>3d</fix>
</trkpt>
<trkpt lat="-27.274439" lon="151.290064">
  <ele>343.02</ele>
  <time>2026-09-01T20:01:57Z</time>
  <course>10.94</course>
  <speed>0.0</speed>
  <fix>3d</fix>
</trkpt>
<trkpt lat="-27.274439" lon="151.290064">
  <ele>343.1</ele>
  <time>2026-09-01T20:01:57Z</time>
  <course>270.0</course>
  <speed>0.0</speed>
  <fix>3d</fix>
</trkpt>
<trkpt lat="-27.274439" lon="151.290064">
  <ele>343.12</ele>
  <time>2026-09-01T20:01:57Z</time>
  <course>10.94</course>
  <speed>0.0</speed>
  <fix>3d</fix>
</trkpt>
<trkpt lat="-27.274439" lon="151.290064">
  <ele>343.1</ele>
  <time>2026-09-01T20:01:57Z</time>
  <course>270.0</course>
  <speed>0.0</speed>
  <fix>3d</fix>
</trkpt>
<trkpt lat="-27.274439" lon="151.290064">
  <ele>343.0</ele>
  <time>2026-09-01T20:01:57Z</time>
  <course>10.93</course>
  <speed>0.0</speed>
  <fix>3d</fix>
</trkpt>
<trkpt lat="-27.274439" lon="151.290064">
  <ele>343.1</ele>
  <time>2026-09-01T20:01:57Z</time>
  <course>270.0</course>
  <speed>0.0</speed>
  <fix>3d</fix>
</trkpt>
<trkpt lat="-27.274439" lon="151.290064">
  <ele>342.9</ele>
  <time>2026-09-01T20:01:57Z</time>
  <course>10.93</course>
  <speed>0.0</speed>
  <fix>3d</fix>
</trkpt>
<trkpt lat="-27.274439" lon="151.290064">
  <ele>343.1</ele>
  <time>2026-09-01T20:01:57Z</time>
  <course>270.0</course>
  <speed>0.0</speed>
  <fix>3d</fix>
</trkpt>
<trkpt lat="-27.274439" lon="151.290064">
  <ele>342.85</ele>
  <time>2026-09-01T20:01:57Z</time>
  <course>10.93</course>
  <speed>0.0</speed>
  <fix>3d</fix>
</trkpt>
<trkpt lat="-27.274439" lon="151.290064">
  <ele>343.1</ele>
  <time>2026-09-01T20:01:57Z</time>
  <course>270.0</course>
  <speed>0.0</speed>
  <fix>3d</fix>
</trkpt>
<trkpt lat="-27.274439" lon="151.290064">
  <ele>343.1</ele>
  <time>2026-09-01T20:01:57Z</time>
  <course>10.92</course>
  <speed>0.0</speed>
  <fix>3d</fix>
</trkpt>
<trkpt lat="-27.274439" lon="151.290064">
  <ele>343.1</ele>
  <time>2026-09-01T20:01:57Z</time>
  <course>270.0</course>
  <speed>0.0</speed>
  <fix>3d</fix>
</trkpt>
<trkpt lat="-27.274439" lon="151.290064">
  <ele>342.96</ele>
  <time>2026-09-01T20:01:57Z</time>
  <course>10.92</course>
  <speed>0.0</speed>
  <fix>3d</fix>
</trkpt>
<trkpt lat="-27.274439" lon="151.290064">
  <ele>343.1</ele>
  <time>2026-09-01T20:01:57Z</time>
  <course>270.0</course>
  <speed>0.0</speed>
  <fix>3d</fix>
</trkpt>
<trkpt lat="-27.274439" lon="151.290064">
  <ele>343.02</ele>
  <time>2026-09-01T20:01:57Z</time>
  <course>10.92</course>
  <speed>0.0</speed>
  <fix>3d</fix>
</trkpt>
<trkpt lat="-27.274439" lon="151.290064">
  <ele>343.1</ele>
  <time>2026-09-01T20:01:57Z</time>
  <course>270.0</course>
  <speed>0.0</speed>
  <fix>3d</fix>
</trkpt>
<trkpt lat="-27.274439" lon="151.290064">
  <ele>342.99</ele>
  <time>2026-09-01T20:01:57Z</time>
  <course>10.91</course>
  <speed>0.0</speed>
  <fix>3d</fix>
</trkpt>
<trkpt lat="-27.274439" lon="151.290064">
  <ele>343.1</ele>
  <time>2026-09-01T20:01:57Z</time>
  <course>270.0</course>
  <speed>0.0</speed>
  <fix>3d</fix>
</trkpt>
<trkpt lat="-27.274439" lon="151.290064">
  <ele>343.2</ele>
  <time>2026-09-01T20:01:57Z</time>
  <course>10.91</course>
  <speed>0.0</speed>
  <fix>3d</fix>
</trkpt>
<trkpt lat="-27.274439" lon="151.290064">
  <ele>343.1</ele>
  <time>2026-09-01T20:01:57Z</time>
  <course>270.0</course>
  <speed>0.0</speed>
  <fix>3d</fix>
</trkpt>
<trkpt lat="-27.274439" lon="151.290064">
  <ele>343.09</ele>
  <time>2026-09-01T20:01:57Z</time>
  <course>10.91</course>
  <speed>0.0</speed>
  <fix>3d</fix>
</trkpt>
<trkpt lat="-27.274439" lon="151.290064">
  <ele>343.1</ele>
  <time>2026-09-01T20:01:57Z</time>
  <course>270.0</course>
  <speed>0.0</speed>
  <fix>3d</fix>
</trkpt>
<trkpt lat="-27.274439" lon="151.290064">
  <ele>343.12</ele>
  <time>2026-09-01T20:01:57Z</time>
  <course>10.9</course>
  <speed>0.0</speed>
  <fix>3d</fix>
</trkpt>
<trkpt lat="-27.274439" lon="151.290064">
  <ele>343.1</ele>
  <time>2026-09-01T20:01:57Z</time>
  <course>270.0</course>
  <speed>0.0</speed>
  <fix>3d</fix>
</trkpt>
<trkpt lat="-27.274439" lon="151.290064">
  <ele>343.19</ele>
  <time>2026-09-01T20:01:57Z</time>
  <course>10.9</course>
  <speed>0.0</speed>
  <fix>3d</fix>
</trkpt>
<trkpt lat="-27.274439" lon="151.290064">
  <ele>343.1</ele>
  <time>2026-09-01T20:01:57Z</time>
  <course>270.0</course>
  <speed>0.0</speed>
  <fix>3d</fix>
</trkpt>
<trkpt lat="-27.274439" lon="151.290064">
  <ele>343.14</ele>
  <time>2026-09-01T20:01:57Z</time>
  <course>10.9</course>
  <speed>0.0</speed>
  <fix>3d</fix>
</trkpt>
<trkpt lat="-27.274439" lon="151.290064">
  <ele>343.1</ele>
  <time>2026-09-01T20:01:57Z</time>
  <course>270.0</course>
  <speed>0.0</speed>
  <fix>3d</fix>
</trkpt>
<trkpt lat="-27.274439" lon="151.290064">
  <ele>342.91</ele>
  <time>2026-09-01T20:01:57Z</time>
  <course>10.89</course>
  <speed>0.0</speed>
  <fix>3d</fix>
</trkpt>
<trkpt lat="-27.274439" lon="151.290064">
  <ele>343.1</ele>
  <time>2026-09-01T20:01:57Z</time>
  <course>270.0</course>
  <speed>0.0</speed>
  <fix>3d</fix>
</trkpt>
<trkpt lat="-27.274439" lon="151.290064">
  <ele>342.99</ele>
  <time>2026-09-01T20:01:57Z</time>
  <course>10.89</course>
  <speed>0.0</speed>
  <fix>3d</fix>
</trkpt>
<trkpt lat="-27.274439" lon="151.290064">
  <ele>343.1</ele>
  <time>2026-09-01T20:01:57Z</time>
  <course>270.0</course>
  <speed>0.0</speed>
  <fix>3d</fix>
</trkpt>
<trkpt lat="-27.274439" lon="151.290064">
  <ele>342.97</ele>
  <time>2026-09-01T20:01:57Z</time>
  <course>10.89</course>
  <speed>0.0</speed>
  <fix>3d</fix>
</trkpt>
<trkpt lat="-27.274439" lon="151.290064">
  <ele>343.1</ele>
  <time>2026-09-01T20:01:57Z</time>
  <course>270.0</course>
  <speed>0.0</speed>
  <fix>3d</fix>
</trkpt>
<trkpt lat="-27.274439" lon="151.290064">
  <ele>342.85</ele>
  <time>2026-09-01T20:01:57Z</time>
  <course>10.88</course>
  <speed>0.0</speed>
  <fix>3d</fix>
</trkpt>
<trkpt lat="-27.274439" lon="151.290064">
  <ele>343.1</ele>
  <time>2026-09-01T20:01:57Z</time>
  <course>270.0</course>
  <speed>0.0</speed>
  <fix>3d</fix>
</trkpt>
<trkpt lat="-27.274439" lon="151.290064">
  <ele>342.87</ele>
  <time>2026-09-01T20:01:57Z</time>
  <course>10.88</course>
  <speed>0.0</speed>
  <fix>3d</fix>
</trkpt>
<trkpt lat="-27.274439" lon="151.290064">
  <ele>343.1</ele>
  <time>2026-09-01T20:01:57Z</time>
  <course>270.0</course>
  <speed>0.0</speed>
  <fix>3d</fix>
</trkpt>
<trkpt lat="-27.274439" lon="151.290064">
  <ele>343.13</ele>
  <time>2026-09-01T20:01:57Z</time>
  <course>10.88</course>
  <speed>0.0</speed>
  <fix>3d</fix>
</trkpt>
<trkpt lat="-27.274439" lon="151.290064">
  <ele>343.1</ele>
  <time>2026-09-01T20:01:57Z</time>
  <course>270.0</course>
  <speed>0.0</speed>
  <fix>3d</fix>
</trkpt>
<trkpt lat="-27.274439" lon="151.290064">
  <ele>343.08</ele>
  <time>2026-09-01T20:01:57Z</time>
  <course>10.88</course>
  <speed>0.0</speed>
  <fix>3d</fix>
</trkpt>
<trkpt lat="-27.274439" lon="151.290064">
  <ele>343.1</ele>
  <time>2026-09-01T20:01:57Z</time>
  <course>270.0</course>
  <speed>0.0</speed>
  <fix>3d</fix>
</trkpt>
<trkpt lat="-27.274439" lon="151.290064">
  <ele>342.88</ele>
  <time>2026-09-01T20:01:57Z</time>
  <course>10.87</course>
  <speed>0.0</speed>
  <fix>3d</fix>
</trkpt>
<trkpt lat="-27.274439" lon="151.290064">
  <ele>343.1</ele>
  <time>2026-09-01T20:01:57Z</time>
  <course>270.0</course>
  <speed>0.0</speed>
  <fix>3d</fix>
</trkpt>
<trkpt lat="-27.274439" lon="151.290064">
  <ele>342.83</ele>
  <time>2026-09-01T20:01:57Z</time>
  <course>10.87</course>
  <speed>0.0</speed>
  <fix>3d</fix>
</trkpt>
<trkpt lat="-27.274439" lon="151.290064">
  <ele>343.1</ele>
  <time>2026-09-01T20:01:57Z</time>
  <course>270.0</course>
  <speed>0.0</speed>
  <fix>3d</fix>
</trkpt>
<trkpt lat="-27.274439" lon="151.290064">
  <ele>343.0</ele>
  <time>2026-09-01T20:01:57Z</time>
  <course>10.87</course>
  <speed>0.0</speed>
  <fix>3d</fix>
</trkpt>
<trkpt lat="-27.274439" lon="151.290064">
  <ele>343.1</ele>
  <time>2026-09-01T20:01:57Z</time>
  <course>270.0</course>
  <speed>0.0</speed>
  <fix>3d</fix>
</trkpt>
<trkpt lat="-27.274439" lon="151.290064">
  <ele>342.82</ele>
  <time>2026-09-01T20:01:57Z</time>
  <course>10.86</course>
  <speed>0.0</speed>
  <fix>3d</fix>
</trkpt>
<trkpt lat="-27.274439" lon="151.290064">
  <ele>343.1</ele>
  <time>2026-09-01T20:01:57Z</time>
  <course>270.0</course>
  <speed>0.0</speed>
  <fix>3d</fix>
</trkpt>
<trkpt lat="-27.274439" lon="151.290064">
  <ele>342.88</ele>
  <time>2026-09-01T20:01:57Z</time>
  <course>10.86</course>
  <speed>0.0</speed>
  <fix>3d</fix>
</trkpt>
<trkpt lat="-27.274439" lon="151.290064">
  <ele>343.1</ele>
  <time>2026-09-01T20:01:57Z</time>
  <course>270.0</course>
  <speed>0.0</speed>
  <fix>3d</fix>
</trkpt>
<trkpt lat="-27.274439" lon="151.290064">
  <ele>342.86</ele>
  <time>2026-09-01T20:01:57Z</time>
  <course>10.86</course>
  <speed>0.0</speed>
  <fix>3d</fix>
</trkpt>
<trkpt lat="-27.274439" lon="151.290064">
  <ele>343.1</ele>
  <time>2026-09-01T20:01:57Z</time>
  <course>270.0</course>
  <speed>0.0</speed>
  <fix>3d</fix>
</trkpt>
<trkpt lat="-27.274439" lon="151.290064">
  <ele>343.15</ele>
  <time>2026-09-01T20:01:57Z</time>
  <course>10.86</course>
  <speed>0.0</speed>
  <fix>3d</fix>
</trkpt>
<trkpt lat="-27.274439" lon="151.290064">
  <ele>343.1</ele>
  <time>2026-09-01T20:01:57Z</time>
  <course>270.0</course>
  <speed>0.0</speed>
  <fix>3d</fix>
</trkpt>
<trkpt lat="-27.274439" lon="151.290064">
  <ele>342.9</ele>
  <time>2026-09-01T20:01:57Z</time>
  <course>10.85</course>
  <speed>0.0</speed>
  <fix>3d</fix>
</trkpt>
<trkpt lat="-27.274439" lon="151.290064">
  <ele>343.1</ele>
  <time>2026-09-01T20:01:57Z</time>
  <course>270.0</course>
  <speed>0.0</speed>
  <fix>3d</fix>
</trkpt>
<trkpt lat="-27.274439" lon="151.290064">
  <ele>342.84</ele>
  <time>2026-09-01T20:01:57Z</time>
  <course>10.85</course>
  <speed>0.0</speed>
  <fix>3d</fix>
</trkpt>
<trkpt lat="-27.274439" lon="151.290064">
  <ele>343.1</ele>
  <time>2026-09-01T20:01:57Z</time>
  <course>270.0</course>
  <speed>0.0</speed>
  <fix>3d</fix>
</trkpt>
<trkpt lat="-27.274439" lon="151.290064">
  <ele>342.85</ele>
  <time>2026-09-01T20:01:57Z</time>
  <course>10.85</course>
  <speed>0.0</speed>
  <fix>3d</fix>
</trkpt>
<trkpt lat="-27.274439" lon="151.290064">
  <ele>343.1</ele>
  <time>2026-09-01T20:01:57Z</time>
  <course>270.0</course>
  <speed>0.0</speed>
  <fix>3d</fix>
</trkpt>
<trkpt lat="-27.274439" lon="151.290064">
  <ele>342.89</ele>
  <time>2026-09-01T20:01:57Z</time>
  <course>10.85</course>
  <speed>0.0</speed>
  <fix>3d</fix>
</trkpt>
<trkpt lat="-27.274439" lon="151.290064">
  <ele>343.1</ele>
  <time>2026-09-01T20:01:57Z</time>
  <course>270.0</course>
  <speed>0.0</speed>
  <fix>3d</fix>
</trkpt>
<trkpt lat="-27.274439" lon="151.290064">
  <ele>343.01</ele>
  <time>2026-09-01T20:01:57Z</time>
  <course>10.84</course>
  <speed>0.0</speed>
  <fix>3d</fix>
</trkpt>
<trkpt lat="-27.274439" lon="151.290064">
  <ele>343.1</ele>
  <time>2026-09-01T20:01:57Z</time>
  <course>270.0</course>
  <speed>0.0</speed>
  <fix>3d</fix>
</trkpt>
<trkpt lat="-27.274439" lon="151.290064">
  <ele>342.97</ele>
  <time>2026-09-01T20:01:57Z</time>
  <course>10.84</course>
  <speed>0.0</speed>
  <fix>3d</fix>
</trkpt>
<trkpt lat="-27.274439" lon="151.290064">
  <ele>343.1</ele>
  <time>2026-09-01T20:01:57Z</time>
  <course>270.0</course>
  <speed>0.0</speed>
  <fix>3d</fix>
</trkpt>
<trkpt lat="-27.274439" lon="151.290064">
  <ele>343.12</ele>
  <time>2026-09-01T20:01:57Z</time>
  <course>10.84</course>
  <speed>0.0</speed>
  <fix>3d</fix>
</trkpt>
<trkpt lat="-27.274439" lon="151.290064">
  <ele>343.1</ele>
  <time>2026-09-01T20:01:57Z</time>
  <course>270.0</course>
  <speed>0.0</speed>
  <fix>3d</fix>
</trkpt>
<trkpt lat="-27.274439" lon="151.290064">
  <ele>343.0</ele>
  <time>2026-09-01T20:01:57Z</time>
  <course>10.69</course>
  <speed>0.0</speed>
  <fix>3d</fix>
</trkpt>
<trkpt lat="-27.274439" lon="151.290064">
  <ele>343.1</ele>
  <time>2026-09-01T20:01:57Z</time>
  <course>270.0</course>
  <speed>0.0</speed>
  <fix>3d</fix>
</trkpt>
<trkpt lat="-27.274439" lon="151.290064">
  <ele>343.0</ele>
  <time>2026-09-01T20:01:57Z</time>
  <course>10.69</course>
  <speed>0.0</speed>
  <fix>3d</fix>
</trkpt>
<trkpt lat="-27.274439" lon="151.290064">
  <ele>343.1</ele>
  <time>2026-09-01T20:01:57Z</time>
  <course>270.0</course>
  <speed>0.0</speed>
  <fix>3d</fix>
</trkpt>
<trkpt lat="-27.274439" lon="151.290064">
  <ele>343.0</ele>
  <time>2026-09-01T20:01:57Z</time>
  <course>10.69</course>
  <speed>0.0</speed>
  <fix>3d</fix>
</trkpt>
<trkpt lat="-27.274439" lon="151.290064">
  <ele>343.1</ele>
  <time>2026-09-01T20:01:57Z</time>
  <course>270.0</course>
  <speed>0.0</speed>
  <fix>3d</fix>
</trkpt>
<trkpt lat="-27.274439" lon="151.290064">
  <ele>342.99</ele>
  <time>2026-09-01T20:01:58Z</time>
  <course>10.69</course>
  <speed>0.0</speed>
  <fix>3d</fix>
</trkpt>
<trkpt lat="-27.274439" lon="151.290064">
  <ele>343.1</ele>
  <time>2026-09-01T20:01:58Z</time>
  <course>270.0</course>
  <speed>0.0</speed>
  <fix>3d</fix>
</trkpt>
<trkpt lat="-27.274439" lon="151.290064">
  <ele>342.99</ele>
  <time>2026-09-01T20:01:58Z</time>
  <course>10.69</course>
  <speed>0.0</speed>
  <fix>3d</fix>
</trkpt>
<trkpt lat="-27.274439" lon="151.290064">
  <ele>343.1</ele>
  <time>2026-09-01T20:01:58Z</time>
  <course>270.0</course>
  <speed>0.0</speed>
  <fix>3d</fix>
</trkpt>
<trkpt lat="-27.274439" lon="151.290064">
  <ele>342.99</ele>
  <time>2026-09-01T20:01:58Z</time>
  <course>10.69</course>
  <speed>0.0</speed>
  <fix>3d</fix>
</trkpt>
<trkpt lat="-27.274439" lon="151.290064">
  <ele>343.1</ele>
  <time>2026-09-01T20:01:58Z</time>
  <course>270.0</course>
  <speed>0.0</speed>
  <fix>3d</fix>
</trkpt>
<trkpt lat="-27.274439" lon="151.290064">
  <ele>342.98</ele>
  <time>2026-09-01T20:01:58Z</time>
  <course>10.69</course>
  <speed>0.0</speed>
  <fix>3d</fix>
</trkpt>
<trkpt lat="-27.274439" lon="151.290064">
  <ele>343.1</ele>
  <time>2026-09-01T20:01:58Z</time>
  <course>270.0</course>
  <speed>0.0</speed>
  <fix>3d</fix>
</trkpt>
<trkpt lat="-27.274439" lon="151.290064">
  <ele>342.98</ele>
  <time>2026-09-01T20:01:58Z</time>
  <course>10.69</course>
  <speed>0.0</speed>
  <fix>3d</fix>
</trkpt>
<trkpt lat="-27.274439" lon="151.290064">
  <ele>343.1</ele>
  <time>2026-09-01T20:01:58Z</time>
  <course>270.0</course>
  <speed>0.0</speed>
  <fix>3d</fix>
</trkpt>
<trkpt lat="-27.274439" lon="151.290064">
  <ele>342.97</ele>
  <time>2026-09-01T20:01:58Z</time>
  <course>10.69</course>
  <speed>0.0</speed>
  <fix>3d</fix>
</trkpt>
<trkpt lat="-27.274439" lon="151.290064">
  <ele>343.1</ele>
  <time>2026-09-01T20:01:58Z</time>
  <course>270.0</course>
  <speed>0.0</speed>
  <fix>3d</fix>
</trkpt>
<trkpt lat="-27.274439" lon="151.290064">
  <ele>342.97</ele>
  <time>2026-09-01T20:01:58Z</time>
  <course>10.69</course>
  <speed>0.0</speed>
  <fix>3d</fix>
</trkpt>
<trkpt lat="-27.274439" lon="151.290064">
  <ele>343.1</ele>
  <time>2026-09-01T20:01:58Z</time>
  <course>270.0</course>
  <speed>0.0</speed>
  <fix>3d</fix>
</trkpt>
<trkpt lat="-27.274439" lon="151.290064">
  <ele>342.97</ele>
  <time>2026-09-01T20:01:58Z</time>
  <course>10.69</course>
  <speed>0.01</speed>
  <fix>3d</fix>
</trkpt>
<trkpt lat="-27.274439" lon="151.290064">
  <ele>343.1</ele>
  <time>2026-09-01T20:01:58Z</time>
  <course>270.0</course>
  <speed>0.0</speed>
  <fix>3d</fix>
</trkpt>
<trkpt lat="-27.274439" lon="151.290064">
  <ele>342.97</ele>
  <time>2026-09-01T20:01:58Z</time>
  <course>10.69</course>
  <speed>0.01</speed>
  <fix>3d</fix>
</trkpt>
<trkpt lat="-27.274439" lon="151.290064">
  <ele>343.1</ele>
  <time>2026-09-01T20:01:58Z</time>
  <course>270.0</course>
  <speed>0.0</speed>
  <fix>3d</fix>
</trkpt>
<trkpt lat="-27.274439" lon="151.290064">
  <ele>342.97</ele>
  <time>2026-09-01T20:01:58Z</time>
  <course>10.69</course>
  <speed>0.01</speed>
  <fix>3d</fix>
</trkpt>
<trkpt lat="-27.274439" lon="151.290064">
  <ele>343.1</ele>
  <time>2026-09-01T20:01:58Z</time>
  <course>270.0</course>
  <speed>0.0</speed>
  <fix>3d</fix>
</trkpt>
<trkpt lat="-27.274439" lon="151.290064">
  <ele>342.96</ele>
  <time>2026-09-01T20:01:58Z</time>
  <course>10.69</course>
  <speed>0.01</speed>
  <fix>3d</fix>
</trkpt>
<trkpt lat="-27.274439" lon="151.290064">
  <ele>343.1</ele>
  <time>2026-09-01T20:01:58Z</time>
  <course>270.0</course>
  <speed>0.0</speed>
  <fix>3d</fix>
</trkpt>
<trkpt lat="-27.274439" lon="151.290064">
  <ele>342.96</ele>
  <time>2026-09-01T20:01:58Z</time>
  <course>10.69</course>
  <speed>0.01</speed>
  <fix>3d</fix>
</trkpt>
<trkpt lat="-27.274439" lon="151.290064">
  <ele>343.1</ele>
  <time>2026-09-01T20:01:58Z</time>
  <course>270.0</course>
  <speed>0.0</speed>
  <fix>3d</fix>
</trkpt>
<trkpt lat="-27.274439" lon="151.290064">
  <ele>342.96</ele>
  <time>2026-09-01T20:01:58Z</time>
  <course>10.69</course>
  <speed>0.01414213562373095</speed>
  <fix>3d</fix>
</trkpt>
<trkpt lat="-27.274439" lon="151.290064">
  <ele>343.1</ele>
  <time>2026-09-01T20:01:58Z</time>
  <course>270.0</course>
  <speed>0.0</speed>
  <fix>3d</fix>
</trkpt>
<trkpt lat="-27.274439" lon="151.290064">
  <ele>342.96</ele>
  <time>2026-09-01T20:01:58Z</time>
  <course>10.69</course>
  <speed>0.01414213562373095</speed>
  <fix>3d</fix>
</trkpt>
<trkpt lat="-27.274439" lon="151.290064">
  <ele>343.1</ele>
  <time>2026-09-01T20:01:58Z</time>
  <course>270.0</course>
  <speed>0.0</speed>
  <fix>3d</fix>
</trkpt>
<trkpt lat="-27.274439" lon="151.290064">
  <ele>342.96</ele>
  <time>2026-09-01T20:01:58Z</time>
  <course>10.69</course>
  <speed>0.01414213562373095</speed>
  <fix>3d</fix>
</trkpt>
<trkpt lat="-27.274439" lon="151.290064">
  <ele>343.1</ele>
  <time>2026-09-01T20:01:58Z</time>
  <course>270.0</course>
  <speed>0.0</speed>
  <fix>3d</fix>
</trkpt>
<trkpt lat="-27.274439" lon="151.290064">
  <ele>342.97</ele>
  <time>2026-09-01T20:01:58Z</time>
  <course>10.69</course>
  <speed>0.01414213562373095</speed>
  <fix>3d</fix>
</trkpt>
<trkpt lat="-27.274439" lon="151.290064">
  <ele>343.1</ele>
  <time>2026-09-01T20:01:58Z</time>
  <course>270.0</course>
  <speed>0.0</speed>
  <fix>3d</fix>
</trkpt>
<trkpt lat="-27.274439" lon="151.290064">
  <ele>342.97</ele>
  <time>2026-09-01T20:01:58Z</time>
  <course>10.69</course>
  <speed>0.01414213562373095</speed>
  <fix>3d</fix>
</trkpt>
<trkpt lat="-27.274439" lon="151.290064">
  <ele>343.1</ele>
  <time>2026-09-01T20:01:58Z</time>
  <course>270.0</course>
  <speed>0.0</speed>
  <fix>3d</fix>
</trkpt>
<trkpt lat="-27.274439" lon="151.290064">
  <ele>342.97</ele>
  <time>2026-09-01T20:01:58Z</time>
  <course>10.69</course>
  <speed>0.022360679774997897</speed>
  <fix>3d</fix>
</trkpt>
<trkpt lat="-27.274439" lon="151.290064">
  <ele>343.1</ele>
  <time>2026-09-01T20:01:58Z</time>
  <course>270.0</course>
  <speed>0.0</speed>
  <fix>3d</fix>
</trkpt>
<trkpt lat="-27.274439" lon="151.290064">
  <ele>342.97</ele>
  <time>2026-09-01T20:01:58Z</time>
  <course>10.69</course>
  <speed>0.022360679774997897</speed>
  <fix>3d</fix>
</trkpt>
<trkpt lat="-27.274439" lon="151.290064">
  <ele>343.1</ele>
  <time>2026-09-01T20:01:58Z</time>
  <course>270.0</course>
  <speed>0.0</speed>
  <fix>3d</fix>
</trkpt>
<trkpt lat="-27.274439" lon="151.290064">
  <ele>342.96</ele>
  <time>2026-09-01T20:01:58Z</time>
  <course>10.69</course>
  <speed>0.022360679774997897</speed>
  <fix>3d</fix>
</trkpt>
<trkpt lat="-27.274439" lon="151.290064">
  <ele>343.1</ele>
  <time>2026-09-01T20:01:58Z</time>
  <course>270.0</course>
  <speed>0.0</speed>
  <fix>3d</fix>
</trkpt>
<trkpt lat="-27.274439" lon="151.290064">
  <ele>342.96</ele>
  <time>2026-09-01T20:01:58Z</time>
  <course>10.69</course>
  <speed>0.022360679774997897</speed>
  <fix>3d</fix>
</trkpt>
<trkpt lat="-27.274439" lon="151.290064">
  <ele>343.1</ele>
  <time>2026-09-01T20:01:58Z</time>
  <course>270.0</course>
  <speed>0.0</speed>
  <fix>3d</fix>
</trkpt>
<trkpt lat="-27.274439" lon="151.290064">
  <ele>342.96</ele>
  <time>2026-09-01T20:01:58Z</time>
  <course>10.69</course>
  <speed>0.022360679774997897</speed>
  <fix>3d</fix>
</trkpt>
<trkpt lat="-27.274439" lon="151.290064">
  <ele>343.1</ele>
  <time>2026-09-01T20:01:58Z</time>
  <course>270.0</course>
  <speed>0.0</speed>
  <fix>3d</fix>
</trkpt>
<trkpt lat="-27.2744391" lon="151.290064">
  <ele>342.96</ele>
  <time>2026-09-01T20:01:58Z</time>
  <course>10.69</course>
  <speed>0.022360679774997897</speed>
  <fix>3d</fix>
</trkpt>
<trkpt lat="-27.274439" lon="151.290064">
  <ele>343.1</ele>
  <time>2026-09-01T20:01:58Z</time>
  <course>270.0</course>
  <speed>0.0</speed>
  <fix>3d</fix>
</trkpt>
<trkpt lat="-27.2744391" lon="151.290064">
  <ele>342.96</ele>
  <time>2026-09-01T20:01:58Z</time>
  <course>10.69</course>
  <speed>0.022360679774997897</speed>
  <fix>3d</fix>
</trkpt>
<trkpt lat="-27.274439" lon="151.290064">
  <ele>343.1</ele>
  <time>2026-09-01T20:01:58Z</time>
  <course>270.0</course>
  <speed>0.0</speed>
  <fix>3d</fix>
</trkpt>
<trkpt lat="-27.2744391" lon="151.290064">
  <ele>342.95</ele>
  <time>2026-09-01T20:01:58Z</time>
  <course>10.69</course>
  <speed>0.022360679774997897</speed>
  <fix>3d</fix>
</trkpt>
<trkpt lat="-27.274439" lon="151.290064">
  <ele>343.1</ele>
  <time>2026-09-01T20:01:58Z</time>
  <course>270.0</course>
  <speed>0.0</speed>
  <fix>3d</fix>
</trkpt>
<trkpt lat="-27.2744391" lon="151.290064">
  <ele>342.95</ele>
  <time>2026-09-01T20:01:58Z</time>
  <course>10.69</course>
  <speed>0.022360679774997897</speed>
  <fix>3d</fix>
</trkpt>
<trkpt lat="-27.274439" lon="151.290064">
  <ele>343.1</ele>
  <time>2026-09-01T20:01:58Z</time>
  <course>270.0</course>
  <speed>0.0</speed>
  <fix>3d</fix>
</trkpt>
<trkpt lat="-27.2744391" lon="151.2900641">
  <ele>342.95</ele>
  <time>2026-09-01T20:01:58Z</time>
  <course>10.69</course>
  <speed>0.022360679774997897</speed>
  <fix>3d</fix>
</trkpt>
<trkpt lat="-27.274439" lon="151.290064">
  <ele>343.1</ele>
  <time>2026-09-01T20:01:58Z</time>
  <course>270.0</course>
  <speed>0.0</speed>
  <fix>3d</fix>
</trkpt>
<trkpt lat="-27.2744391" lon="151.2900641">
  <ele>342.94</ele>
  <time>2026-09-01T20:01:58Z</time>
  <course>10.69</course>
  <speed>0.022360679774997897</speed>
  <fix>3d</fix>
</trkpt>
<trkpt lat="-27.274439" lon="151.290064">
  <ele>343.1</ele>
  <time>2026-09-01T20:01:58Z</time>
  <course>270.0</course>
  <speed>0.0</speed>
  <fix>3d</fix>
</trkpt>
<trkpt lat="-27.2744391" lon="151.2900641">
  <ele>342.94</ele>
  <time>2026-09-01T20:01:58Z</time>
  <course>10.69</course>
  <speed>0.022360679774997897</speed>
  <fix>3d</fix>
</trkpt>
<trkpt lat="-27.274439" lon="151.290064">
  <ele>343.1</ele>
  <time>2026-09-01T20:01:58Z</time>
  <course>270.0</course>
  <speed>0.0</speed>
  <fix>3d</fix>
</trkpt>
<trkpt lat="-27.2744391" lon="151.2900641">
  <ele>342.94</ele>
  <time>2026-09-01T20:01:58Z</time>
  <course>10.69</course>
  <speed>0.022360679774997897</speed>
  <fix>3d</fix>
</trkpt>
<trkpt lat="-27.274439" lon="151.290064">
  <ele>343.1</ele>
  <time>2026-09-01T20:01:58Z</time>
  <course>270.0</course>
  <speed>0.0</speed>
  <fix>3d</fix>
</trkpt>
<trkpt lat="-27.2744391" lon="151.2900641">
  <ele>342.94</ele>
  <time>2026-09-01T20:01:58Z</time>
  <course>10.69</course>
  <speed>0.03605551275463989</speed>
  <fix>3d</fix>
</trkpt>
<trkpt lat="-27.274439" lon="151.290064">
  <ele>343.1</ele>
  <time>2026-09-01T20:01:58Z</time>
  <course>270.0</course>
  <speed>0.0</speed>
  <fix>3d</fix>
</trkpt>
<trkpt lat="-27.2744391" lon="151.2900641">
  <ele>342.94</ele>
  <time>2026-09-01T20:01:58Z</time>
  <course>10.69</course>
  <speed>0.03605551275463989</speed>
  <fix>3d</fix>
</trkpt>
<trkpt lat="-27.274439" lon="151.290064">
  <ele>343.1</ele>
  <time>2026-09-01T20:01:58Z</time>
  <course>270.0</course>
  <speed>0.0</speed>
  <fix>3d</fix>
</trkpt>
<trkpt lat="-27.2744391" lon="151.2900641">
  <ele>342.94</ele>
  <time>2026-09-01T20:01:58Z</time>
  <course>10.69</course>
  <speed>0.03605551275463989</speed>
  <fix>3d</fix>
</trkpt>
<trkpt lat="-27.274439" lon="151.290064">
  <ele>343.1</ele>
  <time>2026-09-01T20:01:58Z</time>
  <course>270.0</course>
  <speed>0.0</speed>
  <fix>3d</fix>
</trkpt>
<trkpt lat="-27.2744391" lon="151.2900641">
  <ele>342.94</ele>
  <time>2026-09-01T20:01:58Z</time>
  <course>10.69</course>
  <speed>0.03605551275463989</speed>
  <fix>3d</fix>
</trkpt>
<trkpt lat="-27.274439" lon="151.290064">
  <ele>343.1</ele>
  <time>2026-09-01T20:01:58Z</time>
  <course>270.0</course>
  <speed>0.0</speed>
  <fix>3d</fix>
</trkpt>
<trkpt lat="-27.2744391" lon="151.2900641">
  <ele>342.94</ele>
  <time>2026-09-01T20:01:58Z</time>
  <course>10.69</course>
  <speed>0.03605551275463989</speed>
  <fix>3d</fix>
</trkpt>
<trkpt lat="-27.274439" lon="151.290064">
  <ele>343.1</ele>
  <time>2026-09-01T20:01:58Z</time>
  <course>270.0</course>
  <speed>0.0</speed>
  <fix>3d</fix>
</trkpt>
<trkpt lat="-27.2744391" lon="151.2900641">
  <ele>343.1</ele>
  <time>2026-09-01T20:01:58Z</time>
  <course>10.69</course>
  <speed>0.03605551275463989</speed>
  <fix>3d</fix>
</trkpt>
<trkpt lat="-27.274439" lon="151.290064">
  <ele>343.1</ele>
  <time>2026-09-01T20:01:58Z</time>
  <course>270.0</course>
  <speed>0.0</speed>
  <fix>3d</fix>
</trkpt>
<trkpt lat="-27.2744392" lon="151.2900641">
  <ele>343.09</ele>
  <time>2026-09-01T20:01:58Z</time>
  <course>10.69</course>
  <speed>0.03605551275463989</speed>
  <fix>3d</fix>
</trkpt>
<trkpt lat="-27.274439" lon="151.290064">
  <ele>343.1</ele>
  <time>2026-09-01T20:01:58Z</time>
  <course>270.0</course>
  <speed>0.0</speed>
  <fix>3d</fix>
</trkpt>
<trkpt lat="-27.2744391" lon="151.2900641">
  <ele>343.09</ele>
  <time>2026-09-01T20:01:58Z</time>
  <course>10.69</course>
  <speed>0.03605551275463989</speed>
  <fix>3d</fix>
</trkpt>
<trkpt lat="-27.274439" lon="151.290064">
  <ele>343.1</ele>
  <time>2026-09-01T20:01:58Z</time>
  <course>270.0</course>
  <speed>0.0</speed>
  <fix>3d</fix>
</trkpt>
<trkpt lat="-27.2744392" lon="151.2900641">
  <ele>343.09</ele>
  <time>2026-09-01T20:01:58Z</time>
  <course>10.69</course>
  <speed>0.03605551275463989</speed>
  <fix>3d</fix>
</trkpt>
<trkpt lat="-27.274439" lon="151.290064">
  <ele>343.1</ele>
  <time>2026-09-01T20:01:58Z</time>
  <course>270.0</course>
  <speed>0.0</speed>
  <fix>3d</fix>
</trkpt>
<trkpt lat="-27.2744392" lon="151.2900641">
  <ele>343.09</ele>
  <time>2026-09-01T20:01:58Z</time>
  <course>10.69</course>
  <speed>0.03605551275463989</speed>
  <fix>3d</fix>
</trkpt>
<trkpt lat="-27.274439" lon="151.290064">
  <ele>343.1</ele>
  <time>2026-09-01T20:01:58Z</time>
  <course>270.0</course>
  <speed>0.0</speed>
  <fix>3d</fix>
</trkpt>
<trkpt lat="-27.2744392" lon="151.2900641">
  <ele>343.09</ele>
  <time>2026-09-01T20:01:58Z</time>
  <course>10.69</course>
  <speed>0.03605551275463989</speed>
  <fix>3d</fix>
</trkpt>
<trkpt lat="-27.274439" lon="151.290064">
  <ele>343.1</ele>
  <time>2026-09-01T20:01:58Z</time>
  <course>270.0</course>
  <speed>0.0</speed>
  <fix>3d</fix>
</trkpt>
<trkpt lat="-27.2744392" lon="151.2900641">
  <ele>343.09</ele>
  <time>2026-09-01T20:01:58Z</time>
  <course>10.69</course>
  <speed>0.03605551275463989</speed>
  <fix>3d</fix>
</trkpt>
<trkpt lat="-27.2744392" lon="151.2900641">
  <ele>343.09</ele>
  <time>2026-09-01T20:01:58Z</time>
  <course>10.69</course>
  <speed>0.03605551275463989</speed>
  <fix>3d</fix>
</trkpt>
<trkpt lat="-27.274439" lon="151.290064">
  <ele>343.1</ele>
  <time>2026-09-01T20:01:58Z</time>
  <course>270.0</course>
  <speed>0.0</speed>
  <fix>3d</fix>
</trkpt>
<trkpt lat="-27.2744392" lon="151.2900641">
  <ele>343.09</ele>
  <time>2026-09-01T20:01:58Z</time>
  <course>10.69</course>
  <speed>0.03605551275463989</speed>
  <fix>3d</fix>
</trkpt>
<trkpt lat="-27.2744392" lon="151.2900641">
  <ele>343.09</ele>
  <time>2026-09-01T20:01:58Z</time>
  <course>10.69</course>
  <speed>0.0282842712474619</speed>
  <fix>3d</fix>
</trkpt>
<trkpt lat="-27.274439" lon="151.290064">
  <ele>343.1</ele>
  <time>2026-09-01T20:01:58Z</time>
  <course>270.0</course>
  <speed>0.0</speed>
  <fix>3d</fix>
</trkpt>
<trkpt lat="-27.2744392" lon="151.2900641">
  <ele>343.09</ele>
  <time>2026-09-01T20:01:58Z</time>
  <course>10.69</course>
  <speed>0.0282842712474619</speed>
  <fix>3d</fix>
</trkpt>
<trkpt lat="-27.2744392" lon="151.2900641">
  <ele>343.09</ele>
  <time>2026-09-01T20:01:58Z</time>
  <course>10.69</course>
  <speed>0.022360679774997897</speed>
  <fix>3d</fix>
</trkpt>
<trkpt lat="-27.274439" lon="151.290064">
  <ele>343.1</ele>
  <time>2026-09-01T20:01:58Z</time>
  <course>270.0</course>
  <speed>0.0</speed>
  <fix>3d</fix>
</trkpt>
<trkpt lat="-27.2744392" lon="151.2900641">
  <ele>343.09</ele>
  <time>2026-09-01T20:01:58Z</time>
  <course>10.69</course>
  <speed>0.022360679774997897</speed>
  <fix>3d</fix>
</trkpt>
<trkpt lat="-27.2744392" lon="151.2900641">
  <ele>343.09</ele>
  <time>2026-09-01T20:01:58Z</time>
  <course>10.69</course>
  <speed>0.022360679774997897</speed>
  <fix>3d</fix>
</trkpt>
<trkpt lat="-27.274439" lon="151.290064">
  <ele>343.1</ele>
  <time>2026-09-01T20:01:58Z</time>
  <course>270.0</course>
  <speed>0.0</speed>
  <fix>3d</fix>
</trkpt>
<trkpt lat="-27.2744392" lon="151.2900641">
  <ele>343.09</ele>
  <time>2026-09-01T20:01:58Z</time>
  <course>10.69</course>
  <speed>0.022360679774997897</speed>
  <fix>3d</fix>
</trkpt>
<trkpt lat="-27.2744392" lon="151.2900641">
  <ele>343.09</ele>
  <time>2026-09-01T20:01:58Z</time>
  <course>10.69</course>
  <speed>0.022360679774997897</speed>
  <fix>3d</fix>
</trkpt>
<trkpt lat="-27.274439" lon="151.290064">
  <ele>343.1</ele>
  <time>2026-09-01T20:01:58Z</time>
  <course>270.0</course>
  <speed>0.0</speed>
  <fix>3d</fix>
</trkpt>
<trkpt lat="-27.2744392" lon="151.2900641">
  <ele>343.09</ele>
  <time>2026-09-01T20:01:58Z</time>
  <course>10.69</course>
  <speed>0.022360679774997897</speed>
  <fix>3d</fix>
</trkpt>
<trkpt lat="-27.2744392" lon="151.2900641">
  <ele>343.09</ele>
  <time>2026-09-01T20:01:58Z</time>
  <course>10.69</course>
  <speed>0.022360679774997897</speed>
  <fix>3d</fix>
</trkpt>
<trkpt lat="-27.274439" lon="151.290064">
  <ele>343.1</ele>
  <time>2026-09-01T20:01:58Z</time>
  <course>270.0</course>
  <speed>0.0</speed>
  <fix>3d</fix>
</trkpt>
<trkpt lat="-27.2744392" lon="151.2900641">
  <ele>343.09</ele>
  <time>2026-09-01T20:01:58Z</time>
  <course>10.69</course>
  <speed>0.022360679774997897</speed>
  <fix>3d</fix>
</trkpt>
<trkpt lat="-27.2744391" lon="151.2900641">
  <ele>343.09</ele>
  <time>2026-09-01T20:01:58Z</time>
  <course>10.69</course>
  <speed>0.022360679774997897</speed>
  <fix>3d</fix>
</trkpt>
<trkpt lat="-27.274439" lon="151.290064">
  <ele>343.1</ele>
  <time>2026-09-01T20:01:58Z</time>
  <course>270.0</course>
  <speed>0.0</speed>
  <fix>3d</fix>
</trkpt>
<trkpt lat="-27.2744391" lon="151.2900641">
  <ele>343.09</ele>
  <time>2026-09-01T20:01:58Z</time>
  <course>10.69</course>
  <speed>0.022360679774997897</speed>
  <fix>3d</fix>
</trkpt>
<trkpt lat="-27.2744391" lon="151.2900641">
  <ele>343.09</ele>
  <time>2026-09-01T20:01:58Z</time>
  <course>10.69</course>
  <speed>0.022360679774997897</speed>
  <fix>3d</fix>
</trkpt>
<trkpt lat="-27.274439" lon="151.290064">
  <ele>343.1</ele>
  <time>2026-09-01T20:01:58Z</time>
  <course>270.0</course>
  <speed>0.0</speed>
  <fix>3d</fix>
</trkpt>
<trkpt lat="-27.2744391" lon="151.2900641">
  <ele>343.09</ele>
  <time>2026-09-01T20:01:58Z</time>
  <course>10.69</course>
  <speed>0.01414213562373095</speed>
  <fix>3d</fix>
</trkpt>
<trkpt lat="-27.2744391" lon="151.2900641">
  <ele>343.09</ele>
  <time>2026-09-01T20:01:58Z</time>
  <course>10.69</course>
  <speed>0.01414213562373095</speed>
  <fix>3d</fix>
</trkpt>
<trkpt lat="-27.274439" lon="151.290064">
  <ele>343.1</ele>
  <time>2026-09-01T20:01:58Z</time>
  <course>270.0</course>
  <speed>0.0</speed>
  <fix>3d</fix>
</trkpt>
<trkpt lat="-27.2744391" lon="151.2900641">
  <ele>343.09</ele>
  <time>2026-09-01T20:01:58Z</time>
  <course>10.69</course>
  <speed>0.01414213562373095</speed>
  <fix>3d</fix>
</trkpt>
<trkpt lat="-27.2744391" lon="151.2900641">
  <ele>343.09</ele>
  <time>2026-09-01T20:01:58Z</time>
  <course>10.69</course>
  <speed>0.01414213562373095</speed>
  <fix>3d</fix>
</trkpt>
<trkpt lat="-27.274439" lon="151.290064">
  <ele>343.1</ele>
  <time>2026-09-01T20:01:58Z</time>
  <course>270.0</course>
  <speed>0.0</speed>
  <fix>3d</fix>
</trkpt>
<trkpt lat="-27.2744391" lon="151.2900641">
  <ele>343.09</ele>
  <time>2026-09-01T20:01:58Z</time>
  <course>10.69</course>
  <speed>0.01414213562373095</speed>
  <fix>3d</fix>
</trkpt>
<trkpt lat="-27.2744391" lon="151.2900641">
  <ele>343.09</ele>
  <time>2026-09-01T20:01:58Z</time>
  <course>10.69</course>
  <speed>0.01</speed>
  <fix>3d</fix>
</trkpt>
<trkpt lat="-27.274439" lon="151.290064">
  <ele>343.1</ele>
  <time>2026-09-01T20:01:58Z</time>
  <course>270.0</course>
  <speed>0.0</speed>
  <fix>3d</fix>
</trkpt>
<trkpt lat="-27.2744391" lon="151.2900641">
  <ele>343.09</ele>
  <time>2026-09-01T20:01:58Z</time>
  <course>10.69</course>
  <speed>0.01</speed>
  <fix>3d</fix>
</trkpt>
<trkpt lat="-27.2744391" lon="151.2900641">
  <ele>343.09</ele>
  <time>2026-09-01T20:01:58Z</time>
  <course>10.69</course>
  <speed>0.01</speed>
  <fix>3d</fix>
</trkpt>
<trkpt lat="-27.274439" lon="151.290064">
  <ele>343.1</ele>
  <time>2026-09-01T20:01:58Z</time>
  <course>270.0</course>
  <speed>0.0</speed>
  <fix>3d</fix>
</trkpt>
<trkpt lat="-27.2744391" lon="151.2900641">
  <ele>343.09</ele>
  <time>2026-09-01T20:01:58Z</time>
  <course>10.69</course>
  <speed>0.01</speed>
  <fix>3d</fix>
</trkpt>
<trkpt lat="-27.2744391" lon="151.2900641">
  <ele>343.09</ele>
  <time>2026-09-01T20:01:58Z</time>
  <course>10.69</course>
  <speed>0.0</speed>
  <fix>3d</fix>
</trkpt>
<trkpt lat="-27.274439" lon="151.290064">
  <ele>343.1</ele>
  <time>2026-09-01T20:01:58Z</time>
  <course>270.0</course>
  <speed>0.0</speed>
  <fix>3d</fix>
</trkpt>
<trkpt lat="-27.2744391" lon="151.2900641">
  <ele>343.09</ele>
  <time>2026-09-01T20:01:58Z</time>
  <course>10.69</course>
  <speed>0.0</speed>
  <fix>3d</fix>
</trkpt>
<trkpt lat="-27.2744391" lon="151.2900641">
  <ele>343.09</ele>
  <time>2026-09-01T20:01:58Z</time>
  <course>10.69</course>
  <speed>0.0</speed>
  <fix>3d</fix>
</trkpt>
<trkpt lat="-27.274439" lon="151.290064">
  <ele>343.1</ele>
  <time>2026-09-01T20:01:58Z</time>
  <course>270.0</course>
  <speed>0.0</speed>
  <fix>3d</fix>
</trkpt>
<trkpt lat="-27.2744391" lon="151.2900641">
  <ele>343.09</ele>
  <time>2026-09-01T20:01:58Z</time>
  <course>10.69</course>
  <speed>0.0</speed>
  <fix>3d</fix>
</trkpt>
<trkpt lat="-27.2744391" lon="151.2900641">
  <ele>343.09</ele>
  <time>2026-09-01T20:01:58Z</time>
  <course>10.69</course>
  <speed>0.0</speed>
  <fix>3d</fix>
</trkpt>
<trkpt lat="-27.274439" lon="151.290064">
  <ele>343.1</ele>
  <time>2026-09-01T20:01:58Z</time>
  <course>270.0</course>
  <speed>0.0</speed>
  <fix>3d</fix>
</trkpt>
<trkpt lat="-27.2744391" lon="151.2900641">
  <ele>343.09</ele>
  <time>2026-09-01T20:01:58Z</time>
  <course>10.69</course>
  <speed>0.0</speed>
  <fix>3d</fix>
</trkpt>
<trkpt lat="-27.2744391" lon="151.2900641">
  <ele>343.09</ele>
  <time>2026-09-01T20:01:58Z</time>
  <course>10.69</course>
  <speed>0.0</speed>
  <fix>3d</fix>
</trkpt>
<trkpt lat="-27.274439" lon="151.290064">
  <ele>343.1</ele>
  <time>2026-09-01T20:01:58Z</time>
  <course>270.0</course>
  <speed>0.0</speed>
  <fix>3d</fix>
</trkpt>
<trkpt lat="-27.2744391" lon="151.2900641">
  <ele>343.09</ele>
  <time>2026-09-01T20:01:58Z</time>
  <course>10.69</course>
  <speed>0.0</speed>
  <fix>3d</fix>
</trkpt>
<trkpt lat="-27.2744391" lon="151.2900641">
  <ele>343.09</ele>
  <time>2026-09-01T20:01:58Z</time>
  <course>10.69</course>
  <speed>0.0</speed>
  <fix>3d</fix>
</trkpt>
<trkpt lat="-27.274439" lon="151.290064">
  <ele>343.1</ele>
  <time>2026-09-01T20:01:58Z</time>
  <course>270.0</course>
  <speed>0.0</speed>
  <fix>3d</fix>
</trkpt>
<trkpt lat="-27.2744391" lon="151.2900641">
  <ele>343.09</ele>
  <time>2026-09-01T20:01:58Z</time>
  <course>10.69</course>
  <speed>0.0</speed>
  <fix>3d</fix>
</trkpt>
<trkpt lat="-27.2744391" lon="151.2900641">
  <ele>343.09</ele>
  <time>2026-09-01T20:01:58Z</time>
  <course>10.69</course>
  <speed>0.0</speed>
  <fix>3d</fix>
</trkpt>
<trkpt lat="-27.274439" lon="151.290064">
  <ele>343.1</ele>
  <time>2026-09-01T20:01:58Z</time>
  <course>270.0</course>
  <speed>0.0</speed>
  <fix>3d</fix>
</trkpt>
<trkpt lat="-27.2744391" lon="151.2900641">
  <ele>343.09</ele>
  <time>2026-09-01T20:01:58Z</time>
  <course>10.69</course>
  <speed>0.0</speed>
  <fix>3d</fix>
</trkpt>
<trkpt lat="-27.2744391" lon="151.2900641">
  <ele>343.09</ele>
  <time>2026-09-01T20:01:58Z</time>
  <course>10.69</course>
  <speed>0.0</speed>
  <fix>3d</fix>
</trkpt>
<trkpt lat="-27.274439" lon="151.290064">
  <ele>343.1</ele>
  <time>2026-09-01T20:01:58Z</time>
  <course>270.0</course>
  <speed>0.0</speed>
  <fix>3d</fix>
</trkpt>
<trkpt lat="-27.2744391" lon="151.2900641">
  <ele>343.09</ele>
  <time>2026-09-01T20:01:58Z</time>
  <course>10.69</course>
  <speed>0.0</speed>
  <fix>3d</fix>
</trkpt>
<trkpt lat="-27.2744391" lon="151.2900641">
  <ele>343.09</ele>
  <time>2026-09-01T20:01:58Z</time>
  <course>10.69</course>
  <speed>0.0</speed>
  <fix>3d</fix>
</trkpt>
<trkpt lat="-27.274439" lon="151.290064">
  <ele>343.1</ele>
  <time>2026-09-01T20:01:58Z</time>
  <course>270.0</course>
  <speed>0.0</speed>
  <fix>3d</fix>
</trkpt>
<trkpt lat="-27.2744391" lon="151.2900641">
  <ele>343.09</ele>
  <time>2026-09-01T20:01:58Z</time>
  <course>10.69</course>
  <speed>0.0</speed>
  <fix>3d</fix>
</trkpt>
<trkpt lat="-27.2744391" lon="151.2900641">
  <ele>343.09</ele>
  <time>2026-09-01T20:01:58Z</time>
  <course>10.69</course>
  <speed>0.0</speed>
  <fix>3d</fix>
</trkpt>
<trkpt lat="-27.274439" lon="151.290064">
  <ele>343.1</ele>
  <time>2026-09-01T20:01:58Z</time>
  <course>270.0</course>
  <speed>0.0</speed>
  <fix>3d</fix>
</trkpt>
<trkpt lat="-27.2744391" lon="151.2900641">
  <ele>343.09</ele>
  <time>2026-09-01T20:01:58Z</time>
  <course>10.69</course>
  <speed>0.0</speed>
  <fix>3d</fix>
</trkpt>
<trkpt lat="-27.2744391" lon="151.2900641">
  <ele>343.09</ele>
  <time>2026-09-01T20:01:58Z</time>
  <course>10.69</course>
  <speed>0.0</speed>
  <fix>3d</fix>
</trkpt>
<trkpt lat="-27.274439" lon="151.290064">
  <ele>343.1</ele>
  <time>2026-09-01T20:01:58Z</time>
  <course>270.0</course>
  <speed>0.0</speed>
  <fix>3d</fix>
</trkpt>
<trkpt lat="-27.2744391" lon="151.2900641">
  <ele>343.09</ele>
  <time>2026-09-01T20:01:58Z</time>
  <course>10.69</course>
  <speed>0.0</speed>
  <fix>3d</fix>
</trkpt>
<trkpt lat="-27.2744391" lon="151.2900641">
  <ele>343.09</ele>
  <time>2026-09-01T20:01:58Z</time>
  <course>10.69</course>
  <speed>0.0</speed>
  <fix>3d</fix>
</trkpt>
<trkpt lat="-27.274439" lon="151.290064">
  <ele>343.1</ele>
  <time>2026-09-01T20:01:58Z</time>
  <course>270.0</course>
  <speed>0.0</speed>
  <fix>3d</fix>
</trkpt>
<trkpt lat="-27.2744391" lon="151.2900641">
  <ele>343.09</ele>
  <time>2026-09-01T20:01:58Z</time>
  <course>10.69</course>
  <speed>0.0</speed>
  <fix>3d</fix>
</trkpt>
<trkpt lat="-27.2744391" lon="151.2900641">
  <ele>343.08</ele>
  <time>2026-09-01T20:01:58Z</time>
  <course>10.69</course>
  <speed>0.0</speed>
  <fix>3d</fix>
</trkpt>
<trkpt lat="-27.274439" lon="151.290064">
  <ele>343.1</ele>
  <time>2026-09-01T20:01:58Z</time>
  <course>270.0</course>
  <speed>0.0</speed>
  <fix>3d</fix>
</trkpt>
<trkpt lat="-27.2744391" lon="151.2900641">
  <ele>343.08</ele>
  <time>2026-09-01T20:01:58Z</time>
  <course>10.69</course>
  <speed>0.0</speed>
  <fix>3d</fix>
</trkpt>
<trkpt lat="-27.2744391" lon="151.2900641">
  <ele>343.08</ele>
  <time>2026-09-01T20:01:58Z</time>
  <course>10.69</course>
  <speed>0.0</speed>
  <fix>3d</fix>
</trkpt>
<trkpt lat="-27.274439" lon="151.290064">
  <ele>343.1</ele>
  <time>2026-09-01T20:01:58Z</time>
  <course>270.0</course>
  <speed>0.0</speed>
  <fix>3d</fix>
</trkpt>
<trkpt lat="-27.2744391" lon="151.2900641">
  <ele>343.08</ele>
  <time>2026-09-01T20:01:58Z</time>
  <course>10.69</course>
  <speed>0.0</speed>
  <fix>3d</fix>
</trkpt>
<trkpt lat="-27.2744391" lon="151.290064">
  <ele>343.08</ele>
  <time>2026-09-01T20:01:58Z</time>
  <course>10.69</course>
  <speed>0.0</speed>
  <fix>3d</fix>
</trkpt>
<trkpt lat="-27.274439" lon="151.290064">
  <ele>343.1</ele>
  <time>2026-09-01T20:01:58Z</time>
  <course>270.0</course>
  <speed>0.0</speed>
  <fix>3d</fix>
</trkpt>
<trkpt lat="-27.2744391" lon="151.290064">
  <ele>343.08</ele>
  <time>2026-09-01T20:01:58Z</time>
  <course>10.69</course>
  <speed>0.0</speed>
  <fix>3d</fix>
</trkpt>
<trkpt lat="-27.274439" lon="151.290064">
  <ele>343.08</ele>
  <time>2026-09-01T20:01:58Z</time>
  <course>10.69</course>
  <speed>0.0</speed>
  <fix>3d</fix>
</trkpt>
<trkpt lat="-27.274439" lon="151.290064">
  <ele>343.1</ele>
  <time>2026-09-01T20:01:58Z</time>
  <course>270.0</course>
  <speed>0.0</speed>
  <fix>3d</fix>
</trkpt>
<trkpt lat="-27.274439" lon="151.290064">
  <ele>343.08</ele>
  <time>2026-09-01T20:01:58Z</time>
  <course>10.69</course>
  <speed>0.0</speed>
  <fix>3d</fix>
</trkpt>
<trkpt lat="-27.274439" lon="151.290064">
  <ele>343.08</ele>
  <time>2026-09-01T20:01:58Z</time>
  <course>10.69</course>
  <speed>0.0</speed>
  <fix>3d</fix>
</trkpt>
<trkpt lat="-27.274439" lon="151.290064">
  <ele>343.1</ele>
  <time>2026-09-01T20:01:58Z</time>
  <course>270.0</course>
  <speed>0.0</speed>
  <fix>3d</fix>
</trkpt>
<trkpt lat="-27.274439" lon="151.290064">
  <ele>343.08</ele>
  <time>2026-09-01T20:01:58Z</time>
  <course>10.69</course>
  <speed>0.0</speed>
  <fix>3d</fix>
</trkpt>
<trkpt lat="-27.274439" lon="151.290064">
  <ele>343.08</ele>
  <time>2026-09-01T20:01:58Z</time>
  <course>10.69</course>
  <speed>0.0</speed>
  <fix>3d</fix>
</trkpt>
<trkpt lat="-27.274439" lon="151.290064">
  <ele>343.1</ele>
  <time>2026-09-01T20:01:58Z</time>
  <course>270.0</course>
  <speed>0.0</speed>
  <fix>3d</fix>
</trkpt>
<trkpt lat="-27.274439" lon="151.290064">
  <ele>343.08</ele>
  <time>2026-09-01T20:01:58Z</time>
  <course>10.69</course>
  <speed>0.0</speed>
  <fix>3d</fix>
</trkpt>
<trkpt lat="-27.274439" lon="151.290064">
  <ele>343.08</ele>
  <time>2026-09-01T20:01:58Z</time>
  <course>10.69</course>
  <speed>0.0</speed>
  <fix>3d</fix>
</trkpt>
<trkpt lat="-27.274439" lon="151.290064">
  <ele>343.1</ele>
  <time>2026-09-01T20:01:58Z</time>
  <course>270.0</course>
  <speed>0.0</speed>
  <fix>3d</fix>
</trkpt>
<trkpt lat="-27.274439" lon="151.290064">
  <ele>343.08</ele>
  <time>2026-09-01T20:01:58Z</time>
  <course>10.7</course>
  <speed>0.0</speed>
  <fix>3d</fix>
</trkpt>
<trkpt lat="-27.274439" lon="151.290064">
  <ele>343.08</ele>
  <time>2026-09-01T20:01:58Z</time>
  <course>10.7</course>
  <speed>0.0</speed>
  <fix>3d</fix>
</trkpt>
<trkpt lat="-27.274439" lon="151.290064">
  <ele>343.1</ele>
  <time>2026-09-01T20:01:58Z</time>
  <course>270.0</course>
  <speed>0.0</speed>
  <fix>3d</fix>
</trkpt>
<trkpt lat="-27.274439" lon="151.290064">
  <ele>343.08</ele>
  <time>2026-09-01T20:01:58Z</time>
  <course>10.7</course>
  <speed>0.0</speed>
  <fix>3d</fix>
</trkpt>
<trkpt lat="-27.274439" lon="151.290064">
  <ele>343.08</ele>
  <time>2026-09-01T20:01:58Z</time>
  <course>10.69</course>
  <speed>0.0</speed>
  <fix>3d</fix>
</trkpt>
<trkpt lat="-27.274439" lon="151.290064">
  <ele>343.1</ele>
  <time>2026-09-01T20:01:58Z</time>
  <course>270.0</course>
  <speed>0.0</speed>
  <fix>3d</fix>
</trkpt>
<trkpt lat="-27.274439" lon="151.290064">
  <ele>343.08</ele>
  <time>2026-09-01T20:01:58Z</time>
  <course>10.7</course>
  <speed>0.0</speed>
  <fix>3d</fix>
</trkpt>
<trkpt lat="-27.274439" lon="151.290064">
  <ele>343.08</ele>
  <time>2026-09-01T20:01:58Z</time>
  <course>10.7</course>
  <speed>0.0</speed>
  <fix>3d</fix>
</trkpt>
<trkpt lat="-27.274439" lon="151.290064">
  <ele>343.1</ele>
  <time>2026-09-01T20:01:58Z</time>
  <course>270.0</course>
  <speed>0.0</speed>
  <fix>3d</fix>
</trkpt>
<trkpt lat="-27.274439" lon="151.290064">
  <ele>343.08</ele>
  <time>2026-09-01T20:01:58Z</time>
  <course>10.7</course>
  <speed>0.0</speed>
  <fix>3d</fix>
</trkpt>
<trkpt lat="-27.274439" lon="151.290064">
  <ele>343.08</ele>
  <time>2026-09-01T20:01:58Z</time>
  <course>10.7</course>
  <speed>0.0</speed>
  <fix>3d</fix>
</trkpt>
<trkpt lat="-27.274439" lon="151.290064">
  <ele>343.1</ele>
  <time>2026-09-01T20:01:58Z</time>
  <course>270.0</course>
  <speed>0.0</speed>
  <fix>3d</fix>
</trkpt>
<trkpt lat="-27.274439" lon="151.290064">
  <ele>343.08</ele>
  <time>2026-09-01T20:01:58Z</time>
  <course>10.7</course>
  <speed>0.0</speed>
  <fix>3d</fix>
</trkpt>
<trkpt lat="-27.274439" lon="151.290064">
  <ele>343.07</ele>
  <time>2026-09-01T20:01:58Z</time>
  <course>10.7</course>
  <speed>0.0</speed>
  <fix>3d</fix>
</trkpt>
<trkpt lat="-27.274439" lon="151.290064">
  <ele>343.1</ele>
  <time>2026-09-01T20:01:58Z</time>
  <course>270.0</course>
  <speed>0.0</speed>
  <fix>3d</fix>
</trkpt>
<trkpt lat="-27.274439" lon="151.290064">
  <ele>343.07</ele>
  <time>2026-09-01T20:01:58Z</time>
  <course>10.7</course>
  <speed>0.0</speed>
  <fix>3d</fix>
</trkpt>
<trkpt lat="-27.274439" lon="151.290064">
  <ele>343.07</ele>
  <time>2026-09-01T20:01:58Z</time>
  <course>10.7</course>
  <speed>0.0</speed>
  <fix>3d</fix>
</trkpt>
<trkpt lat="-27.274439" lon="151.290064">
  <ele>343.1</ele>
  <time>2026-09-01T20:01:58Z</time>
  <course>270.0</course>
  <speed>0.0</speed>
  <fix>3d</fix>
</trkpt>
<trkpt lat="-27.274439" lon="151.290064">
  <ele>343.07</ele>
  <time>2026-09-01T20:01:58Z</time>
  <course>10.7</course>
  <speed>0.0</speed>
  <fix>3d</fix>
</trkpt>
<trkpt lat="-27.274439" lon="151.290064">
  <ele>343.07</ele>
  <time>2026-09-01T20:01:58Z</time>
  <course>10.69</course>
  <speed>0.0</speed>
  <fix>3d</fix>
</trkpt>
<trkpt lat="-27.274439" lon="151.290064">
  <ele>343.1</ele>
  <time>2026-09-01T20:01:58Z</time>
  <course>270.0</course>
  <speed>0.0</speed>
  <fix>3d</fix>
</trkpt>
<trkpt lat="-27.274439" lon="151.290064">
  <ele>343.07</ele>
  <time>2026-09-01T20:01:58Z</time>
  <course>10.7</course>
  <speed>0.0</speed>
  <fix>3d</fix>
</trkpt>
<trkpt lat="-27.274439" lon="151.290064">
  <ele>343.07</ele>
  <time>2026-09-01T20:01:58Z</time>
  <course>10.69</course>
  <speed>0.0</speed>
  <fix>3d</fix>
</trkpt>
<trkpt lat="-27.274439" lon="151.290064">
  <ele>343.1</ele>
  <time>2026-09-01T20:01:58Z</time>
  <course>270.0</course>
  <speed>0.0</speed>
  <fix>3d</fix>
</trkpt>
<trkpt lat="-27.274439" lon="151.290064">
  <ele>343.07</ele>
  <time>2026-09-01T20:01:58Z</time>
  <course>10.69</course>
  <speed>0.0</speed>
  <fix>3d</fix>
</trkpt>
<trkpt lat="-27.274439" lon="151.290064">
  <ele>343.07</ele>
  <time>2026-09-01T20:01:58Z</time>
  <course>10.69</course>
  <speed>0.0</speed>
  <fix>3d</fix>
</trkpt>
<trkpt lat="-27.274439" lon="151.290064">
  <ele>343.1</ele>
  <time>2026-09-01T20:01:58Z</time>
  <course>270.0</course>
  <speed>0.0</speed>
  <fix>3d</fix>
</trkpt>
<trkpt lat="-27.274439" lon="151.290064">
  <ele>343.07</ele>
  <time>2026-09-01T20:01:58Z</time>
  <course>10.69</course>
  <speed>0.0</speed>
  <fix>3d</fix>
</trkpt>
<trkpt lat="-27.274439" lon="151.290064">
  <ele>343.07</ele>
  <time>2026-09-01T20:01:58Z</time>
  <course>10.69</course>
  <speed>0.0</speed>
  <fix>3d</fix>
</trkpt>
<trkpt lat="-27.274439" lon="151.290064">
  <ele>343.1</ele>
  <time>2026-09-01T20:01:58Z</time>
  <course>270.0</course>
  <speed>0.0</speed>
  <fix>3d</fix>
</trkpt>
<trkpt lat="-27.274439" lon="151.290064">
  <ele>343.07</ele>
  <time>2026-09-01T20:01:58Z</time>
  <course>10.69</course>
  <speed>0.0</speed>
  <fix>3d</fix>
</trkpt>
<trkpt lat="-27.274439" lon="151.290064">
  <ele>343.07</ele>
  <time>2026-09-01T20:01:58Z</time>
  <course>10.69</course>
  <speed>0.0</speed>
  <fix>3d</fix>
</trkpt>
<trkpt lat="-27.274439" lon="151.290064">
  <ele>343.1</ele>
  <time>2026-09-01T20:01:58Z</time>
  <course>270.0</course>
  <speed>0.0</speed>
  <fix>3d</fix>
</trkpt>
<trkpt lat="-27.274439" lon="151.290064">
  <ele>343.07</ele>
  <time>2026-09-01T20:01:58Z</time>
  <course>10.69</course>
  <speed>0.0</speed>
  <fix>3d</fix>
</trkpt>
<trkpt lat="-27.274439" lon="151.290064">
  <ele>343.07</ele>
  <time>2026-09-01T20:01:58Z</time>
  <course>10.69</course>
  <speed>0.0</speed>
  <fix>3d</fix>
</trkpt>
<trkpt lat="-27.274439" lon="151.290064">
  <ele>343.1</ele>
  <time>2026-09-01T20:01:58Z</time>
  <course>270.0</course>
  <speed>0.0</speed>
  <fix>3d</fix>
</trkpt>
<trkpt lat="-27.274439" lon="151.290064">
  <ele>343.07</ele>
  <time>2026-09-01T20:01:58Z</time>
  <course>10.69</course>
  <speed>0.0</speed>
  <fix>3d</fix>
</trkpt>
<trkpt lat="-27.274439" lon="151.290064">
  <ele>343.07</ele>
  <time>2026-09-01T20:01:58Z</time>
  <course>10.69</course>
  <speed>0.0</speed>
  <fix>3d</fix>
</trkpt>
<trkpt lat="-27.274439" lon="151.290064">
  <ele>343.1</ele>
  <time>2026-09-01T20:01:58Z</time>
  <course>270.0</course>
  <speed>0.0</speed>
  <fix>3d</fix>
</trkpt>
<trkpt lat="-27.274439" lon="151.290064">
  <ele>343.07</ele>
  <time>2026-09-01T20:01:58Z</time>
  <course>10.69</course>
  <speed>0.0</speed>
  <fix>3d</fix>
</trkpt>
<trkpt lat="-27.274439" lon="151.290064">
  <ele>343.07</ele>
  <time>2026-09-01T20:01:58Z</time>
  <course>10.69</course>
  <speed>0.0</speed>
  <fix>3d</fix>
</trkpt>
<trkpt lat="-27.274439" lon="151.290064">
  <ele>343.1</ele>
  <time>2026-09-01T20:01:58Z</time>
  <course>270.0</course>
  <speed>0.0</speed>
  <fix>3d</fix>
</trkpt>
<trkpt lat="-27.274439" lon="151.290064">
  <ele>343.07</ele>
  <time>2026-09-01T20:01:58Z</time>
  <course>10.69</course>
  <speed>0.0</speed>
  <fix>3d</fix>
</trkpt>
<trkpt lat="-27.274439" lon="151.290064">
  <ele>343.07</ele>
  <time>2026-09-01T20:01:58Z</time>
  <course>10.69</course>
  <speed>0.0</speed>
  <fix>3d</fix>
</trkpt>
<trkpt lat="-27.274439" lon="151.290064">
  <ele>343.1</ele>
  <time>2026-09-01T20:01:58Z</time>
  <course>270.0</course>
  <speed>0.0</speed>
  <fix>3d</fix>
</trkpt>
<trkpt lat="-27.274439" lon="151.290064">
  <ele>343.07</ele>
  <time>2026-09-01T20:01:58Z</time>
  <course>10.69</course>
  <speed>0.0</speed>
  <fix>3d</fix>
</trkpt>
<trkpt lat="-27.2744391" lon="151.2900641">
  <ele>343.07</ele>
  <time>2026-09-01T20:01:58Z</time>
  <course>10.69</course>
  <speed>0.0</speed>
  <fix>3d</fix>
</trkpt>
<trkpt lat="-27.274439" lon="151.290064">
  <ele>343.1</ele>
  <time>2026-09-01T20:01:58Z</time>
  <course>270.0</course>
  <speed>0.0</speed>
  <fix>3d</fix>
</trkpt>
<trkpt lat="-27.2744391" lon="151.2900641">
  <ele>343.07</ele>
  <time>2026-09-01T20:01:58Z</time>
  <course>10.69</course>
  <speed>0.0</speed>
  <fix>3d</fix>
</trkpt>
<trkpt lat="-27.2744391" lon="151.2900641">
  <ele>343.07</ele>
  <time>2026-09-01T20:01:58Z</time>
  <course>10.69</course>
  <speed>0.0</speed>
  <fix>3d</fix>
</trkpt>
<trkpt lat="-27.274439" lon="151.290064">
  <ele>343.1</ele>
  <time>2026-09-01T20:01:58Z</time>
  <course>270.0</course>
  <speed>0.0</speed>
  <fix>3d</fix>
</trkpt>
<trkpt lat="-27.2744391" lon="151.2900641">
  <ele>343.07</ele>
  <time>2026-09-01T20:01:58Z</time>
  <course>10.69</course>
  <speed>0.0</speed>
  <fix>3d</fix>
</trkpt>
<trkpt lat="-27.2744391" lon="151.2900641">
  <ele>343.07</ele>
  <time>2026-09-01T20:01:58Z</time>
  <course>10.5</course>
  <speed>0.0</speed>
  <fix>3d</fix>
</trkpt>
<trkpt lat="-27.274439" lon="151.290064">
  <ele>343.1</ele>
  <time>2026-09-01T20:01:58Z</time>
  <course>270.0</course>
  <speed>0.0</speed>
  <fix>3d</fix>
</trkpt>
<trkpt lat="-27.2744391" lon="151.2900641">
  <ele>343.07</ele>
  <time>2026-09-01T20:01:58Z</time>
  <course>10.5</course>
  <speed>0.0</speed>
  <fix>3d</fix>
</trkpt>
<trkpt lat="-27.2744391" lon="151.2900641">
  <ele>343.06</ele>
  <time>2026-09-01T20:01:58Z</time>
  <course>10.5</course>
  <speed>0.0</speed>
  <fix>3d</fix>
</trkpt>
<trkpt lat="-27.274439" lon="151.290064">
  <ele>343.1</ele>
  <time>2026-09-01T20:01:58Z</time>
  <course>270.0</course>
  <speed>0.0</speed>
  <fix>3d</fix>
</trkpt>
<trkpt lat="-27.2744391" lon="151.2900641">
  <ele>343.06</ele>
  <time>2026-09-01T20:01:58Z</time>
  <course>10.5</course>
  <speed>0.0</speed>
  <fix>3d</fix>
</trkpt>
<trkpt lat="-27.2744391" lon="151.2900641">
  <ele>343.06</ele>
  <time>2026-09-01T20:01:58Z</time>
  <course>10.5</course>
  <speed>0.0</speed>
  <fix>3d</fix>
</trkpt>
<trkpt lat="-27.274439" lon="151.290064">
  <ele>343.1</ele>
  <time>2026-09-01T20:01:58Z</time>
  <course>270.0</course>
  <speed>0.0</speed>
  <fix>3d</fix>
</trkpt>
<trkpt lat="-27.2744391" lon="151.2900641">
  <ele>343.06</ele>
  <time>2026-09-01T20:01:58Z</time>
  <course>10.5</course>
  <speed>0.0</speed>
  <fix>3d</fix>
</trkpt>
<trkpt lat="-27.2744391" lon="151.2900641">
  <ele>343.06</ele>
  <time>2026-09-01T20:01:58Z</time>
  <course>10.5</course>
  <speed>0.0</speed>
  <fix>3d</fix>
</trkpt>
<trkpt lat="-27.274439" lon="151.290064">
  <ele>343.1</ele>
  <time>2026-09-01T20:01:58Z</time>
  <course>270.0</course>
  <speed>0.0</speed>
  <fix>3d</fix>
</trkpt>
<trkpt lat="-27.2744391" lon="151.2900641">
  <ele>343.06</ele>
  <time>2026-09-01T20:01:58Z</time>
  <course>10.5</course>
  <speed>0.0</speed>
  <fix>3d</fix>
</trkpt>
<trkpt lat="-27.2744391" lon="151.2900641">
  <ele>343.06</ele>
  <time>2026-09-01T20:01:58Z</time>
  <course>10.5</course>
  <speed>0.0</speed>
  <fix>3d</fix>
</trkpt>
<trkpt lat="-27.274439" lon="151.290064">
  <ele>343.1</ele>
  <time>2026-09-01T20:01:58Z</time>
  <course>270.0</course>
  <speed>0.0</speed>
  <fix>3d</fix>
</trkpt>
<trkpt lat="-27.2744391" lon="151.2900641">
  <ele>343.06</ele>
  <time>2026-09-01T20:01:58Z</time>
  <course>10.5</course>
  <speed>0.0</speed>
  <fix>3d</fix>
</trkpt>
<trkpt lat="-27.2744391" lon="151.2900641">
  <ele>343.06</ele>
  <time>2026-09-01T20:01:58Z</time>
  <course>10.5</course>
  <speed>0.0</speed>
  <fix>3d</fix>
</trkpt>
<trkpt lat="-27.274439" lon="151.290064">
  <ele>343.1</ele>
  <time>2026-09-01T20:01:58Z</time>
  <course>270.0</course>
  <speed>0.0</speed>
  <fix>3d</fix>
</trkpt>
<trkpt lat="-27.2744391" lon="151.2900641">
  <ele>343.06</ele>
  <time>2026-09-01T20:01:58Z</time>
  <course>10.5</course>
  <speed>0.0</speed>
  <fix>3d</fix>
</trkpt>
<trkpt lat="-27.2744391" lon="151.2900641">
  <ele>343.06</ele>
  <time>2026-09-01T20:01:58Z</time>
  <course>10.5</course>
  <speed>0.0</speed>
  <fix>3d</fix>
</trkpt>
<trkpt lat="-27.274439" lon="151.290064">
  <ele>343.1</ele>
  <time>2026-09-01T20:01:58Z</time>
  <course>270.0</course>
  <speed>0.0</speed>
  <fix>3d</fix>
</trkpt>
<trkpt lat="-27.2744391" lon="151.2900641">
  <ele>343.06</ele>
  <time>2026-09-01T20:01:58Z</time>
  <course>10.5</course>
  <speed>0.0</speed>
  <fix>3d</fix>
</trkpt>
<trkpt lat="-27.2744391" lon="151.2900641">
  <ele>343.06</ele>
  <time>2026-09-01T20:01:58Z</time>
  <course>10.5</course>
  <speed>0.0</speed>
  <fix>3d</fix>
</trkpt>
<trkpt lat="-27.274439" lon="151.290064">
  <ele>343.1</ele>
  <time>2026-09-01T20:01:58Z</time>
  <course>270.0</course>
  <speed>0.0</speed>
  <fix>3d</fix>
</trkpt>
<trkpt lat="-27.2744391" lon="151.2900641">
  <ele>343.06</ele>
  <time>2026-09-01T20:01:58Z</time>
  <course>10.5</course>
  <speed>0.0</speed>
  <fix>3d</fix>
</trkpt>
<trkpt lat="-27.2744391" lon="151.2900641">
  <ele>343.05</ele>
  <time>2026-09-01T20:01:58Z</time>
  <course>10.5</course>
  <speed>0.01</speed>
  <fix>3d</fix>
</trkpt>
<trkpt lat="-27.274439" lon="151.290064">
  <ele>343.1</ele>
  <time>2026-09-01T20:01:58Z</time>
  <course>270.0</course>
  <speed>0.0</speed>
  <fix>3d</fix>
</trkpt>
<trkpt lat="-27.2744391" lon="151.2900641">
  <ele>343.05</ele>
  <time>2026-09-01T20:01:58Z</time>
  <course>10.5</course>
  <speed>0.01</speed>
  <fix>3d</fix>
</trkpt>
<trkpt lat="-27.2744391" lon="151.2900641">
  <ele>343.05</ele>
  <time>2026-09-01T20:01:58Z</time>
  <course>10.5</course>
  <speed>0.01</speed>
  <fix>3d</fix>
</trkpt>
<trkpt lat="-27.274439" lon="151.290064">
  <ele>343.1</ele>
  <time>2026-09-01T20:01:58Z</time>
  <course>270.0</course>
  <speed>0.0</speed>
  <fix>3d</fix>
</trkpt>
<trkpt lat="-27.2744391" lon="151.2900641">
  <ele>343.05</ele>
  <time>2026-09-01T20:01:58Z</time>
  <course>10.5</course>
  <speed>0.01</speed>
  <fix>3d</fix>
</trkpt>
<trkpt lat="-27.2744391" lon="151.2900641">
  <ele>343.05</ele>
  <time>2026-09-01T20:01:58Z</time>
  <course>10.5</course>
  <speed>0.01</speed>
  <fix>3d</fix>
</trkpt>
<trkpt lat="-27.274439" lon="151.290064">
  <ele>343.1</ele>
  <time>2026-09-01T20:01:58Z</time>
  <course>270.0</course>
  <speed>0.0</speed>
  <fix>3d</fix>
</trkpt>
<trkpt lat="-27.2744391" lon="151.2900641">
  <ele>343.05</ele>
  <time>2026-09-01T20:01:58Z</time>
  <course>10.5</course>
  <speed>0.01</speed>
  <fix>3d</fix>
</trkpt>
<trkpt lat="-27.2744391" lon="151.2900641">
  <ele>343.05</ele>
  <time>2026-09-01T20:01:58Z</time>
  <course>10.5</course>
  <speed>0.01</speed>
  <fix>3d</fix>
</trkpt>
<trkpt lat="-27.274439" lon="151.290064">
  <ele>343.1</ele>
  <time>2026-09-01T20:01:58Z</time>
  <course>270.0</course>
  <speed>0.0</speed>
  <fix>3d</fix>
</trkpt>
<trkpt lat="-27.2744391" lon="151.2900641">
  <ele>343.05</ele>
  <time>2026-09-01T20:01:58Z</time>
  <course>10.5</course>
  <speed>0.01</speed>
  <fix>3d</fix>
</trkpt>
<trkpt lat="-27.2744391" lon="151.2900641">
  <ele>343.05</ele>
  <time>2026-09-01T20:01:58Z</time>
  <course>10.5</course>
  <speed>0.01</speed>
  <fix>3d</fix>
</trkpt>
<trkpt lat="-27.274439" lon="151.290064">
  <ele>343.1</ele>
  <time>2026-09-01T20:01:58Z</time>
  <course>270.0</course>
  <speed>0.0</speed>
  <fix>3d</fix>
</trkpt>
<trkpt lat="-27.2744391" lon="151.2900641">
  <ele>343.05</ele>
  <time>2026-09-01T20:01:58Z</time>
  <course>10.5</course>
  <speed>0.01</speed>
  <fix>3d</fix>
</trkpt>
<trkpt lat="-27.2744391" lon="151.2900641">
  <ele>343.05</ele>
  <time>2026-09-01T20:01:58Z</time>
  <course>10.5</course>
  <speed>0.01</speed>
  <fix>3d</fix>
</trkpt>
<trkpt lat="-27.274439" lon="151.290064">
  <ele>343.1</ele>
  <time>2026-09-01T20:01:58Z</time>
  <course>270.0</course>
  <speed>0.0</speed>
  <fix>3d</fix>
</trkpt>
<trkpt lat="-27.2744391" lon="151.2900641">
  <ele>343.05</ele>
  <time>2026-09-01T20:01:58Z</time>
  <course>10.5</course>
  <speed>0.01</speed>
  <fix>3d</fix>
</trkpt>
<trkpt lat="-27.2744391" lon="151.2900641">
  <ele>343.05</ele>
  <time>2026-09-01T20:01:58Z</time>
  <course>10.5</course>
  <speed>0.01</speed>
  <fix>3d</fix>
</trkpt>
<trkpt lat="-27.274439" lon="151.290064">
  <ele>343.1</ele>
  <time>2026-09-01T20:01:58Z</time>
  <course>270.0</course>
  <speed>0.0</speed>
  <fix>3d</fix>
</trkpt>
<trkpt lat="-27.2744391" lon="151.2900641">
  <ele>343.05</ele>
  <time>2026-09-01T20:01:58Z</time>
  <course>10.5</course>
  <speed>0.01</speed>
  <fix>3d</fix>
</trkpt>
<trkpt lat="-27.2744391" lon="151.2900641">
  <ele>343.05</ele>
  <time>2026-09-01T20:01:58Z</time>
  <course>10.5</course>
  <speed>0.01</speed>
  <fix>3d</fix>
</trkpt>
<trkpt lat="-27.274439" lon="151.290064">
  <ele>343.1</ele>
  <time>2026-09-01T20:01:58Z</time>
  <course>270.0</course>
  <speed>0.0</speed>
  <fix>3d</fix>
</trkpt>
<trkpt lat="-27.2744391" lon="151.2900641">
  <ele>343.05</ele>
  <time>2026-09-01T20:01:58Z</time>
  <course>10.51</course>
  <speed>0.01</speed>
  <fix>3d</fix>
</trkpt>
<trkpt lat="-27.2744391" lon="151.2900641">
  <ele>343.05</ele>
  <time>2026-09-01T20:01:58Z</time>
  <course>10.51</course>
  <speed>0.01</speed>
  <fix>3d</fix>
</trkpt>
<trkpt lat="-27.274439" lon="151.290064">
  <ele>343.1</ele>
  <time>2026-09-01T20:01:58Z</time>
  <course>270.0</course>
  <speed>0.0</speed>
  <fix>3d</fix>
</trkpt>
<trkpt lat="-27.2744391" lon="151.2900641">
  <ele>343.05</ele>
  <time>2026-09-01T20:01:58Z</time>
  <course>10.51</course>
  <speed>0.01</speed>
  <fix>3d</fix>
</trkpt>
<trkpt lat="-27.2744391" lon="151.2900641">
  <ele>343.05</ele>
  <time>2026-09-01T20:01:58Z</time>
  <course>10.51</course>
  <speed>0.01</speed>
  <fix>3d</fix>
</trkpt>
<trkpt lat="-27.274439" lon="151.290064">
  <ele>343.1</ele>
  <time>2026-09-01T20:01:58Z</time>
  <course>270.0</course>
  <speed>0.0</speed>
  <fix>3d</fix>
</trkpt>
<trkpt lat="-27.2744391" lon="151.2900641">
  <ele>343.05</ele>
  <time>2026-09-01T20:01:58Z</time>
  <course>10.51</course>
  <speed>0.01</speed>
  <fix>3d</fix>
</trkpt>
<trkpt lat="-27.2744391" lon="151.2900641">
  <ele>343.05</ele>
  <time>2026-09-01T20:01:58Z</time>
  <course>10.51</course>
  <speed>0.01</speed>
  <fix>3d</fix>
</trkpt>
<trkpt lat="-27.274439" lon="151.290064">
  <ele>343.1</ele>
  <time>2026-09-01T20:01:58Z</time>
  <course>270.0</course>
  <speed>0.0</speed>
  <fix>3d</fix>
</trkpt>
<trkpt lat="-27.2744391" lon="151.2900641">
  <ele>343.05</ele>
  <time>2026-09-01T20:01:58Z</time>
  <course>10.51</course>
  <speed>0.01</speed>
  <fix>3d</fix>
</trkpt>
<trkpt lat="-27.2744391" lon="151.2900641">
  <ele>343.05</ele>
  <time>2026-09-01T20:01:58Z</time>
  <course>10.51</course>
  <speed>0.01</speed>
  <fix>3d</fix>
</trkpt>
<trkpt lat="-27.274439" lon="151.290064">
  <ele>343.1</ele>
  <time>2026-09-01T20:01:58Z</time>
  <course>270.0</course>
  <speed>0.0</speed>
  <fix>3d</fix>
</trkpt>
<trkpt lat="-27.2744391" lon="151.2900641">
  <ele>343.05</ele>
  <time>2026-09-01T20:01:58Z</time>
  <course>10.51</course>
  <speed>0.01</speed>
  <fix>3d</fix>
</trkpt>
<trkpt lat="-27.2744391" lon="151.2900641">
  <ele>343.05</ele>
  <time>2026-09-01T20:01:58Z</time>
  <course>10.51</course>
  <speed>0.01</speed>
  <fix>3d</fix>
</trkpt>
<trkpt lat="-27.274439" lon="151.290064">
  <ele>343.1</ele>
  <time>2026-09-01T20:01:58Z</time>
  <course>270.0</course>
  <speed>0.0</speed>
  <fix>3d</fix>
</trkpt>
<trkpt lat="-27.2744391" lon="151.2900641">
  <ele>343.05</ele>
  <time>2026-09-01T20:01:58Z</time>
  <course>10.51</course>
  <speed>0.01</speed>
  <fix>3d</fix>
</trkpt>
<trkpt lat="-27.2744391" lon="151.2900641">
  <ele>343.05</ele>
  <time>2026-09-01T20:01:58Z</time>
  <course>10.51</course>
  <speed>0.01</speed>
  <fix>3d</fix>
</trkpt>
<trkpt lat="-27.274439" lon="151.290064">
  <ele>343.1</ele>
  <time>2026-09-01T20:01:58Z</time>
  <course>270.0</course>
  <speed>0.0</speed>
  <fix>3d</fix>
</trkpt>
<trkpt lat="-27.2744391" lon="151.2900641">
  <ele>343.05</ele>
  <time>2026-09-01T20:01:58Z</time>
  <course>10.51</course>
  <speed>0.01</speed>
  <fix>3d</fix>
</trkpt>
<trkpt lat="-27.2744391" lon="151.2900641">
  <ele>343.04</ele>
  <time>2026-09-01T20:01:58Z</time>
  <course>10.51</course>
  <speed>0.01</speed>
  <fix>3d</fix>
</trkpt>
<trkpt lat="-27.274439" lon="151.290064">
  <ele>343.1</ele>
  <time>2026-09-01T20:01:58Z</time>
  <course>270.0</course>
  <speed>0.0</speed>
  <fix>3d</fix>
</trkpt>
<trkpt lat="-27.2744391" lon="151.2900641">
  <ele>343.04</ele>
  <time>2026-09-01T20:01:58Z</time>
  <course>10.51</course>
  <speed>0.01</speed>
  <fix>3d</fix>
</trkpt>
<trkpt lat="-27.2744391" lon="151.2900641">
  <ele>343.04</ele>
  <time>2026-09-01T20:01:58Z</time>
  <course>10.51</course>
  <speed>0.01</speed>
  <fix>3d</fix>
</trkpt>
<trkpt lat="-27.274439" lon="151.290064">
  <ele>343.1</ele>
  <time>2026-09-01T20:01:58Z</time>
  <course>270.0</course>
  <speed>0.0</speed>
  <fix>3d</fix>
</trkpt>
<trkpt lat="-27.2744391" lon="151.2900641">
  <ele>343.04</ele>
  <time>2026-09-01T20:01:58Z</time>
  <course>10.51</course>
  <speed>0.01</speed>
  <fix>3d</fix>
</trkpt>
<trkpt lat="-27.2744391" lon="151.2900641">
  <ele>343.04</ele>
  <time>2026-09-01T20:01:58Z</time>
  <course>10.51</course>
  <speed>0.01414213562373095</speed>
  <fix>3d</fix>
</trkpt>
<trkpt lat="-27.274439" lon="151.290064">
  <ele>343.1</ele>
  <time>2026-09-01T20:01:58Z</time>
  <course>270.0</course>
  <speed>0.0</speed>
  <fix>3d</fix>
</trkpt>
<trkpt lat="-27.2744391" lon="151.2900641">
  <ele>343.04</ele>
  <time>2026-09-01T20:01:58Z</time>
  <course>10.51</course>
  <speed>0.01414213562373095</speed>
  <fix>3d</fix>
</trkpt>
<trkpt lat="-27.2744391" lon="151.2900641">
  <ele>343.04</ele>
  <time>2026-09-01T20:01:58Z</time>
  <course>10.51</course>
  <speed>0.01</speed>
  <fix>3d</fix>
</trkpt>
<trkpt lat="-27.274439" lon="151.290064">
  <ele>343.1</ele>
  <time>2026-09-01T20:01:58Z</time>
  <course>270.0</course>
  <speed>0.0</speed>
  <fix>3d</fix>
</trkpt>
<trkpt lat="-27.2744391" lon="151.2900641">
  <ele>343.04</ele>
  <time>2026-09-01T20:01:58Z</time>
  <course>10.51</course>
  <speed>0.01414213562373095</speed>
  <fix>3d</fix>
</trkpt>
<trkpt lat="-27.2744391" lon="151.2900641">
  <ele>343.04</ele>
  <time>2026-09-01T20:01:58Z</time>
  <course>10.52</course>
  <speed>0.01414213562373095</speed>
  <fix>3d</fix>
</trkpt>
<trkpt lat="-27.274439" lon="151.290064">
  <ele>343.1</ele>
  <time>2026-09-01T20:01:58Z</time>
  <course>270.0</course>
  <speed>0.0</speed>
  <fix>3d</fix>
</trkpt>
<trkpt lat="-27.2744391" lon="151.2900641">
  <ele>343.04</ele>
  <time>2026-09-01T20:01:58Z</time>
  <course>10.52</course>
  <speed>0.01414213562373095</speed>
  <fix>3d</fix>
</trkpt>
<trkpt lat="-27.2744391" lon="151.2900641">
  <ele>343.04</ele>
  <time>2026-09-01T20:01:58Z</time>
  <course>10.52</course>
  <speed>0.01414213562373095</speed>
  <fix>3d</fix>
</trkpt>
<trkpt lat="-27.274439" lon="151.290064">
  <ele>343.1</ele>
  <time>2026-09-01T20:01:58Z</time>
  <course>270.0</course>
  <speed>0.0</speed>
  <fix>3d</fix>
</trkpt>
<trkpt lat="-27.2744391" lon="151.2900641">
  <ele>343.04</ele>
  <time>2026-09-01T20:01:58Z</time>
  <course>10.52</course>
  <speed>0.01414213562373095</speed>
  <fix>3d</fix>
</trkpt>
<trkpt lat="-27.2744391" lon="151.2900641">
  <ele>343.04</ele>
  <time>2026-09-01T20:01:58Z</time>
  <course>10.52</course>
  <speed>0.01414213562373095</speed>
  <fix>3d</fix>
</trkpt>
<trkpt lat="-27.274439" lon="151.290064">
  <ele>343.1</ele>
  <time>2026-09-01T20:01:58Z</time>
  <course>270.0</course>
  <speed>0.0</speed>
  <fix>3d</fix>
</trkpt>
<trkpt lat="-27.2744391" lon="151.2900641">
  <ele>343.04</ele>
  <time>2026-09-01T20:01:58Z</time>
  <course>10.52</course>
  <speed>0.01414213562373095</speed>
  <fix>3d</fix>
</trkpt>
<trkpt lat="-27.2744391" lon="151.2900641">
  <ele>343.04</ele>
  <time>2026-09-01T20:01:58Z</time>
  <course>10.52</course>
  <speed>0.01414213562373095</speed>
  <fix>3d</fix>
</trkpt>
<trkpt lat="-27.274439" lon="151.290064">
  <ele>343.1</ele>
  <time>2026-09-01T20:01:58Z</time>
  <course>270.0</course>
  <speed>0.0</speed>
  <fix>3d</fix>
</trkpt>
<trkpt lat="-27.2744391" lon="151.2900641">
  <ele>343.04</ele>
  <time>2026-09-01T20:01:58Z</time>
  <course>10.52</course>
  <speed>0.01414213562373095</speed>
  <fix>3d</fix>
</trkpt>
<trkpt lat="-27.2744391" lon="151.2900641">
  <ele>343.04</ele>
  <time>2026-09-01T20:01:58Z</time>
  <course>10.52</course>
  <speed>0.01414213562373095</speed>
  <fix>3d</fix>
</trkpt>
<trkpt lat="-27.274439" lon="151.290064">
  <ele>343.1</ele>
  <time>2026-09-01T20:01:58Z</time>
  <course>270.0</course>
  <speed>0.0</speed>
  <fix>3d</fix>
</trkpt>
<trkpt lat="-27.2744391" lon="151.2900641">
  <ele>343.04</ele>
  <time>2026-09-01T20:01:58Z</time>
  <course>10.52</course>
  <speed>0.01414213562373095</speed>
  <fix>3d</fix>
</trkpt>
<trkpt lat="-27.2744391" lon="151.2900641">
  <ele>343.05</ele>
  <time>2026-09-01T20:01:58Z</time>
  <course>10.52</course>
  <speed>0.01414213562373095</speed>
  <fix>3d</fix>
</trkpt>
<trkpt lat="-27.274439" lon="151.290064">
  <ele>343.1</ele>
  <time>2026-09-01T20:01:58Z</time>
  <course>270.0</course>
  <speed>0.0</speed>
  <fix>3d</fix>
</trkpt>
<trkpt lat="-27.2744391" lon="151.2900641">
  <ele>343.05</ele>
  <time>2026-09-01T20:01:58Z</time>
  <course>10.52</course>
  <speed>0.01414213562373095</speed>
  <fix>3d</fix>
</trkpt>
<trkpt lat="-27.2744391" lon="151.2900641">
  <ele>343.05</ele>
  <time>2026-09-01T20:01:58Z</time>
  <course>10.52</course>
  <speed>0.01414213562373095</speed>
  <fix>3d</fix>
</trkpt>
<trkpt lat="-27.274439" lon="151.290064">
  <ele>343.1</ele>
  <time>2026-09-01T20:01:58Z</time>
  <course>270.0</course>
  <speed>0.0</speed>
  <fix>3d</fix>
</trkpt>
<trkpt lat="-27.2744391" lon="151.2900641">
  <ele>343.05</ele>
  <time>2026-09-01T20:01:58Z</time>
  <course>10.52</course>
  <speed>0.01414213562373095</speed>
  <fix>3d</fix>
</trkpt>
<trkpt lat="-27.2744391" lon="151.2900641">
  <ele>343.05</ele>
  <time>2026-09-01T20:01:58Z</time>
  <course>10.52</course>
  <speed>0.01414213562373095</speed>
  <fix>3d</fix>
</trkpt>
<trkpt lat="-27.274439" lon="151.290064">
  <ele>343.1</ele>
  <time>2026-09-01T20:01:58Z</time>
  <course>270.0</course>
  <speed>0.0</speed>
  <fix>3d</fix>
</trkpt>
<trkpt lat="-27.2744391" lon="151.2900641">
  <ele>343.05</ele>
  <time>2026-09-01T20:01:58Z</time>
  <course>10.52</course>
  <speed>0.01414213562373095</speed>
  <fix>3d</fix>
</trkpt>
<trkpt lat="-27.2744391" lon="151.2900641">
  <ele>343.05</ele>
  <time>2026-09-01T20:01:58Z</time>
  <course>10.52</course>
  <speed>0.01414213562373095</speed>
  <fix>3d</fix>
</trkpt>
<trkpt lat="-27.274439" lon="151.290064">
  <ele>343.1</ele>
  <time>2026-09-01T20:01:58Z</time>
  <course>270.0</course>
  <speed>0.0</speed>
  <fix>3d</fix>
</trkpt>
<trkpt lat="-27.2744391" lon="151.2900641">
  <ele>343.05</ele>
  <time>2026-09-01T20:01:58Z</time>
  <course>10.52</course>
  <speed>0.01414213562373095</speed>
  <fix>3d</fix>
</trkpt>
<trkpt lat="-27.2744391" lon="151.2900641">
  <ele>343.04</ele>
  <time>2026-09-01T20:01:58Z</time>
  <course>10.53</course>
  <speed>0.01414213562373095</speed>
  <fix>3d</fix>
</trkpt>
<trkpt lat="-27.274439" lon="151.290064">
  <ele>343.1</ele>
  <time>2026-09-01T20:01:58Z</time>
  <course>270.0</course>
  <speed>0.0</speed>
  <fix>3d</fix>
</trkpt>
<trkpt lat="-27.2744391" lon="151.2900641">
  <ele>343.04</ele>
  <time>2026-09-01T20:01:58Z</time>
  <course>10.53</course>
  <speed>0.01414213562373095</speed>
  <fix>3d</fix>
</trkpt>
<trkpt lat="-27.2744391" lon="151.2900641">
  <ele>343.04</ele>
  <time>2026-09-01T20:01:58Z</time>
  <course>10.53</course>
  <speed>0.01414213562373095</speed>
  <fix>3d</fix>
</trkpt>
<trkpt lat="-27.274439" lon="151.290064">
  <ele>343.1</ele>
  <time>2026-09-01T20:01:58Z</time>
  <course>270.0</course>
  <speed>0.0</speed>
  <fix>3d</fix>
</trkpt>
<trkpt lat="-27.2744391" lon="151.2900641">
  <ele>343.04</ele>
  <time>2026-09-01T20:01:58Z</time>
  <course>10.53</course>
  <speed>0.01414213562373095</speed>
  <fix>3d</fix>
</trkpt>
<trkpt lat="-27.2744391" lon="151.2900641">
  <ele>343.04</ele>
  <time>2026-09-01T20:01:58Z</time>
  <course>10.53</course>
  <speed>0.01414213562373095</speed>
  <fix>3d</fix>
</trkpt>
<trkpt lat="-27.274439" lon="151.290064">
  <ele>343.1</ele>
  <time>2026-09-01T20:01:58Z</time>
  <course>270.0</course>
  <speed>0.0</speed>
  <fix>3d</fix>
</trkpt>
<trkpt lat="-27.2744391" lon="151.2900641">
  <ele>343.04</ele>
  <time>2026-09-01T20:01:58Z</time>
  <course>10.53</course>
  <speed>0.01414213562373095</speed>
  <fix>3d</fix>
</trkpt>
<trkpt lat="-27.2744391" lon="151.2900641">
  <ele>343.04</ele>
  <time>2026-09-01T20:01:58Z</time>
  <course>10.53</course>
  <speed>0.01414213562373095</speed>
  <fix>3d</fix>
</trkpt>
<trkpt lat="-27.274439" lon="151.290064">
  <ele>343.1</ele>
  <time>2026-09-01T20:01:58Z</time>
  <course>270.0</course>
  <speed>0.0</speed>
  <fix>3d</fix>
</trkpt>
<trkpt lat="-27.2744391" lon="151.2900641">
  <ele>343.04</ele>
  <time>2026-09-01T20:01:58Z</time>
  <course>10.53</course>
  <speed>0.01414213562373095</speed>
  <fix>3d</fix>
</trkpt>
<trkpt lat="-27.2744391" lon="151.2900641">
  <ele>343.04</ele>
  <time>2026-09-01T20:01:58Z</time>
  <course>10.53</course>
  <speed>0.01414213562373095</speed>
  <fix>3d</fix>
</trkpt>
<trkpt lat="-27.274439" lon="151.290064">
  <ele>343.1</ele>
  <time>2026-09-01T20:01:58Z</time>
  <course>270.0</course>
  <speed>0.0</speed>
  <fix>3d</fix>
</trkpt>
<trkpt lat="-27.2744391" lon="151.2900641">
  <ele>343.04</ele>
  <time>2026-09-01T20:01:58Z</time>
  <course>10.53</course>
  <speed>0.01414213562373095</speed>
  <fix>3d</fix>
</trkpt>
<trkpt lat="-27.2744391" lon="151.2900641">
  <ele>343.04</ele>
  <time>2026-09-01T20:01:58Z</time>
  <course>10.53</course>
  <speed>0.01414213562373095</speed>
  <fix>3d</fix>
</trkpt>
<trkpt lat="-27.274439" lon="151.290064">
  <ele>343.1</ele>
  <time>2026-09-01T20:01:58Z</time>
  <course>270.0</course>
  <speed>0.0</speed>
  <fix>3d</fix>
</trkpt>
<trkpt lat="-27.2744391" lon="151.2900641">
  <ele>343.04</ele>
  <time>2026-09-01T20:01:58Z</time>
  <course>10.53</course>
  <speed>0.01414213562373095</speed>
  <fix>3d</fix>
</trkpt>
<trkpt lat="-27.2744391" lon="151.2900641">
  <ele>343.04</ele>
  <time>2026-09-01T20:01:58Z</time>
  <course>10.53</course>
  <speed>0.01414213562373095</speed>
  <fix>3d</fix>
</trkpt>
<trkpt lat="-27.274439" lon="151.290064">
  <ele>343.1</ele>
  <time>2026-09-01T20:01:58Z</time>
  <course>270.0</course>
  <speed>0.0</speed>
  <fix>3d</fix>
</trkpt>
<trkpt lat="-27.2744391" lon="151.2900641">
  <ele>343.04</ele>
  <time>2026-09-01T20:01:58Z</time>
  <course>10.53</course>
  <speed>0.01414213562373095</speed>
  <fix>3d</fix>
</trkpt>
<trkpt lat="-27.2744391" lon="151.2900641">
  <ele>343.04</ele>
  <time>2026-09-01T20:01:58Z</time>
  <course>10.53</course>
  <speed>0.01414213562373095</speed>
  <fix>3d</fix>
</trkpt>
<trkpt lat="-27.274439" lon="151.290064">
  <ele>343.1</ele>
  <time>2026-09-01T20:01:58Z</time>
  <course>270.0</course>
  <speed>0.0</speed>
  <fix>3d</fix>
</trkpt>
<trkpt lat="-27.2744391" lon="151.2900641">
  <ele>343.04</ele>
  <time>2026-09-01T20:01:58Z</time>
  <course>10.53</course>
  <speed>0.01414213562373095</speed>
  <fix>3d</fix>
</trkpt>
<trkpt lat="-27.2744391" lon="151.2900641">
  <ele>343.04</ele>
  <time>2026-09-01T20:01:58Z</time>
  <course>10.53</course>
  <speed>0.01414213562373095</speed>
  <fix>3d</fix>
</trkpt>
<trkpt lat="-27.274439" lon="151.290064">
  <ele>343.1</ele>
  <time>2026-09-01T20:01:58Z</time>
  <course>270.0</course>
  <speed>0.0</speed>
  <fix>3d</fix>
</trkpt>
<trkpt lat="-27.2744391" lon="151.2900641">
  <ele>343.04</ele>
  <time>2026-09-01T20:01:58Z</time>
  <course>10.53</course>
  <speed>0.01414213562373095</speed>
  <fix>3d</fix>
</trkpt>
<trkpt lat="-27.2744391" lon="151.2900641">
  <ele>343.04</ele>
  <time>2026-09-01T20:01:58Z</time>
  <course>10.53</course>
  <speed>0.01414213562373095</speed>
  <fix>3d</fix>
</trkpt>
<trkpt lat="-27.274439" lon="151.290064">
  <ele>343.1</ele>
  <time>2026-09-01T20:01:58Z</time>
  <course>270.0</course>
  <speed>0.0</speed>
  <fix>3d</fix>
</trkpt>
<trkpt lat="-27.2744391" lon="151.2900641">
  <ele>343.04</ele>
  <time>2026-09-01T20:01:58Z</time>
  <course>10.53</course>
  <speed>0.01414213562373095</speed>
  <fix>3d</fix>
</trkpt>
<trkpt lat="-27.2744391" lon="151.2900641">
  <ele>343.03</ele>
  <time>2026-09-01T20:01:58Z</time>
  <course>10.53</course>
  <speed>0.01414213562373095</speed>
  <fix>3d</fix>
</trkpt>
<trkpt lat="-27.274439" lon="151.290064">
  <ele>343.1</ele>
  <time>2026-09-01T20:01:58Z</time>
  <course>270.0</course>
  <speed>0.0</speed>
  <fix>3d</fix>
</trkpt>
<trkpt lat="-27.2744391" lon="151.2900641">
  <ele>343.03</ele>
  <time>2026-09-01T20:01:58Z</time>
  <course>10.53</course>
  <speed>0.01414213562373095</speed>
  <fix>3d</fix>
</trkpt>
<trkpt lat="-27.2744391" lon="151.2900641">
  <ele>343.03</ele>
  <time>2026-09-01T20:01:58Z</time>
  <course>10.54</course>
  <speed>0.01414213562373095</speed>
  <fix>3d</fix>
</trkpt>
<trkpt lat="-27.274439" lon="151.290064">
  <ele>343.1</ele>
  <time>2026-09-01T20:01:58Z</time>
  <course>270.0</course>
  <speed>0.0</speed>
  <fix>3d</fix>
</trkpt>
<trkpt lat="-27.2744391" lon="151.2900641">
  <ele>343.03</ele>
  <time>2026-09-01T20:01:58Z</time>
  <course>10.54</course>
  <speed>0.01414213562373095</speed>
  <fix>3d</fix>
</trkpt>
<trkpt lat="-27.2744391" lon="151.2900641">
  <ele>343.03</ele>
  <time>2026-09-01T20:01:58Z</time>
  <course>10.54</course>
  <speed>0.01414213562373095</speed>
  <fix>3d</fix>
</trkpt>
<trkpt lat="-27.274439" lon="151.290064">
  <ele>343.1</ele>
  <time>2026-09-01T20:01:58Z</time>
  <course>270.0</course>
  <speed>0.0</speed>
  <fix>3d</fix>
</trkpt>
<trkpt lat="-27.2744391" lon="151.2900641">
  <ele>343.03</ele>
  <time>2026-09-01T20:01:58Z</time>
  <course>10.54</course>
  <speed>0.01414213562373095</speed>
  <fix>3d</fix>
</trkpt>
<trkpt lat="-27.2744391" lon="151.2900641">
  <ele>343.03</ele>
  <time>2026-09-01T20:01:58Z</time>
  <course>10.54</course>
  <speed>0.01414213562373095</speed>
  <fix>3d</fix>
</trkpt>
<trkpt lat="-27.274439" lon="151.290064">
  <ele>343.1</ele>
  <time>2026-09-01T20:01:58Z</time>
  <course>270.0</course>
  <speed>0.0</speed>
  <fix>3d</fix>
</trkpt>
<trkpt lat="-27.2744391" lon="151.2900641">
  <ele>343.03</ele>
  <time>2026-09-01T20:01:58Z</time>
  <course>10.54</course>
  <speed>0.01414213562373095</speed>
  <fix>3d</fix>
</trkpt>
<trkpt lat="-27.2744391" lon="151.2900641">
  <ele>343.03</ele>
  <time>2026-09-01T20:01:58Z</time>
  <course>10.54</course>
  <speed>0.01414213562373095</speed>
  <fix>3d</fix>
</trkpt>
<trkpt lat="-27.274439" lon="151.290064">
  <ele>343.1</ele>
  <time>2026-09-01T20:01:58Z</time>
  <course>270.0</course>
  <speed>0.0</speed>
  <fix>3d</fix>
</trkpt>
<trkpt lat="-27.2744391" lon="151.2900641">
  <ele>343.03</ele>
  <time>2026-09-01T20:01:58Z</time>
  <course>10.54</course>
  <speed>0.01414213562373095</speed>
  <fix>3d</fix>
</trkpt>
<trkpt lat="-27.2744391" lon="151.2900641">
  <ele>343.03</ele>
  <time>2026-09-01T20:01:58Z</time>
  <course>10.54</course>
  <speed>0.022360679774997897</speed>
  <fix>3d</fix>
</trkpt>
<trkpt lat="-27.274439" lon="151.290064">
  <ele>343.1</ele>
  <time>2026-09-01T20:01:58Z</time>
  <course>270.0</course>
  <speed>0.0</speed>
  <fix>3d</fix>
</trkpt>
<trkpt lat="-27.2744391" lon="151.2900641">
  <ele>343.03</ele>
  <time>2026-09-01T20:01:58Z</time>
  <course>10.54</course>
  <speed>0.022360679774997897</speed>
  <fix>3d</fix>
</trkpt>
<trkpt lat="-27.2744391" lon="151.2900641">
  <ele>343.03</ele>
  <time>2026-09-01T20:01:58Z</time>
  <course>10.54</course>
  <speed>0.022360679774997897</speed>
  <fix>3d</fix>
</trkpt>
<trkpt lat="-27.274439" lon="151.290064">
  <ele>343.1</ele>
  <time>2026-09-01T20:01:58Z</time>
  <course>270.0</course>
  <speed>0.0</speed>
  <fix>3d</fix>
</trkpt>
<trkpt lat="-27.2744391" lon="151.2900641">
  <ele>343.03</ele>
  <time>2026-09-01T20:01:58Z</time>
  <course>10.54</course>
  <speed>0.022360679774997897</speed>
  <fix>3d</fix>
</trkpt>
<trkpt lat="-27.2744391" lon="151.2900641">
  <ele>343.03</ele>
  <time>2026-09-01T20:01:58Z</time>
  <course>10.54</course>
  <speed>0.022360679774997897</speed>
  <fix>3d</fix>
</trkpt>
<trkpt lat="-27.274439" lon="151.290064">
  <ele>343.1</ele>
  <time>2026-09-01T20:01:58Z</time>
  <course>270.0</course>
  <speed>0.0</speed>
  <fix>3d</fix>
</trkpt>
<trkpt lat="-27.2744391" lon="151.2900641">
  <ele>343.03</ele>
  <time>2026-09-01T20:01:58Z</time>
  <course>10.54</course>
  <speed>0.022360679774997897</speed>
  <fix>3d</fix>
</trkpt>
<trkpt lat="-27.2744391" lon="151.2900641">
  <ele>343.03</ele>
  <time>2026-09-01T20:01:58Z</time>
  <course>10.54</course>
  <speed>0.022360679774997897</speed>
  <fix>3d</fix>
</trkpt>
<trkpt lat="-27.274439" lon="151.290064">
  <ele>343.1</ele>
  <time>2026-09-01T20:01:58Z</time>
  <course>270.0</course>
  <speed>0.0</speed>
  <fix>3d</fix>
</trkpt>
<trkpt lat="-27.2744391" lon="151.2900641">
  <ele>343.03</ele>
  <time>2026-09-01T20:01:58Z</time>
  <course>10.54</course>
  <speed>0.022360679774997897</speed>
  <fix>3d</fix>
</trkpt>
<trkpt lat="-27.2744391" lon="151.2900641">
  <ele>343.03</ele>
  <time>2026-09-01T20:01:58Z</time>
  <course>10.54</course>
  <speed>0.022360679774997897</speed>
  <fix>3d</fix>
</trkpt>
<trkpt lat="-27.274439" lon="151.290064">
  <ele>343.1</ele>
  <time>2026-09-01T20:01:58Z</time>
  <course>270.0</course>
  <speed>0.0</speed>
  <fix>3d</fix>
</trkpt>
<trkpt lat="-27.2744391" lon="151.2900641">
  <ele>343.02</ele>
  <time>2026-09-01T20:01:58Z</time>
  <course>10.54</course>
  <speed>0.022360679774997897</speed>
  <fix>3d</fix>
</trkpt>
<trkpt lat="-27.274439" lon="151.290064">
  <ele>343.1</ele>
  <time>2026-09-01T20:01:58Z</time>
  <course>270.0</course>
  <speed>0.0</speed>
  <fix>3d</fix>
</trkpt>
<trkpt lat="-27.2744391" lon="151.2900641">
  <ele>343.02</ele>
  <time>2026-09-01T20:01:58Z</time>
  <course>10.54</course>
  <speed>0.022360679774997897</speed>
  <fix>3d</fix>
</trkpt>
<trkpt lat="-27.274439" lon="151.290064">
  <ele>343.1</ele>
  <time>2026-09-01T20:01:58Z</time>
  <course>270.0</course>
  <speed>0.0</speed>
  <fix>3d</fix>
</trkpt>
<trkpt lat="-27.2744391" lon="151.2900641">
  <ele>343.02</ele>
  <time>2026-09-01T20:01:58Z</time>
  <course>10.55</course>
  <speed>0.022360679774997897</speed>
  <fix>3d</fix>
</trkpt>
<trkpt lat="-27.274439" lon="151.290064">
  <ele>343.1</ele>
  <time>2026-09-01T20:01:58Z</time>
  <course>142.24</course>
  <speed>0.0</speed>
  <fix>3d</fix>
</trkpt>
<trkpt lat="-27.2744391" lon="151.2900641">
  <ele>343.02</ele>
  <time>2026-09-01T20:01:58Z</time>
  <course>10.55</course>
  <speed>0.022360679774997897</speed>
  <fix>3d</fix>
</trkpt>
<trkpt lat="-27.2744391" lon="151.2900641">
  <ele>343.02</ele>
  <time>2026-09-01T20:01:58Z</time>
  <course>10.55</course>
  <speed>0.022360679774997897</speed>
  <fix>3d</fix>
</trkpt>
<trkpt lat="-27.274439" lon="151.290064">
  <ele>343.1</ele>
  <time>2026-09-01T20:01:58Z</time>
  <course>142.24</course>
  <speed>0.0</speed>
  <fix>3d</fix>
</trkpt>
<trkpt lat="-27.2744391" lon="151.2900641">
  <ele>343.02</ele>
  <time>2026-09-01T20:01:58Z</time>
  <course>10.55</course>
  <speed>0.022360679774997897</speed>
  <fix>3d</fix>
</trkpt>
<trkpt lat="-27.2744391" lon="151.2900641">
  <ele>343.02</ele>
  <time>2026-09-01T20:01:58Z</time>
  <course>10.55</course>
  <speed>0.022360679774997897</speed>
  <fix>3d</fix>
</trkpt>
<trkpt lat="-27.274439" lon="151.290064">
  <ele>343.1</ele>
  <time>2026-09-01T20:01:58Z</time>
  <course>141.95</course>
  <speed>0.0</speed>
  <fix>3d</fix>
</trkpt>
<trkpt lat="-27.2744391" lon="151.2900641">
  <ele>343.02</ele>
  <time>2026-09-01T20:01:58Z</time>
  <course>10.55</course>
  <speed>0.022360679774997897</speed>
  <fix>3d</fix>
</trkpt>
<trkpt lat="-27.2744391" lon="151.2900641">
  <ele>343.02</ele>
  <time>2026-09-01T20:01:58Z</time>
  <course>10.55</course>
  <speed>0.022360679774997897</speed>
  <fix>3d</fix>
</trkpt>
<trkpt lat="-27.274439" lon="151.290064">
  <ele>343.1</ele>
  <time>2026-09-01T20:01:58Z</time>
  <course>141.95</course>
  <speed>0.0</speed>
  <fix>3d</fix>
</trkpt>
<trkpt lat="-27.2744391" lon="151.2900641">
  <ele>343.02</ele>
  <time>2026-09-01T20:01:58Z</time>
  <course>10.55</course>
  <speed>0.022360679774997897</speed>
  <fix>3d</fix>
</trkpt>
<trkpt lat="-27.2744391" lon="151.2900641">
  <ele>343.02</ele>
  <time>2026-09-01T20:01:58Z</time>
  <course>10.55</course>
  <speed>0.022360679774997897</speed>
  <fix>3d</fix>
</trkpt>
<trkpt lat="-27.274439" lon="151.290064">
  <ele>343.1</ele>
  <time>2026-09-01T20:01:58Z</time>
  <course>328.95</course>
  <speed>0.0</speed>
  <fix>3d</fix>
</trkpt>
<trkpt lat="-27.2744391" lon="151.2900641">
  <ele>343.02</ele>
  <time>2026-09-01T20:01:58Z</time>
  <course>10.55</course>
  <speed>0.022360679774997897</speed>
  <fix>3d</fix>
</trkpt>
<trkpt lat="-27.2744391" lon="151.2900641">
  <ele>343.02</ele>
  <time>2026-09-01T20:01:58Z</time>
  <course>10.55</course>
  <speed>0.022360679774997897</speed>
  <fix>3d</fix>
</trkpt>
<trkpt lat="-27.274439" lon="151.290064">
  <ele>343.1</ele>
  <time>2026-09-01T20:01:58Z</time>
  <course>328.95</course>
  <speed>0.0</speed>
  <fix>3d</fix>
</trkpt>
<trkpt lat="-27.2744391" lon="151.2900641">
  <ele>343.01</ele>
  <time>2026-09-01T20:01:58Z</time>
  <course>10.55</course>
  <speed>0.022360679774997897</speed>
  <fix>3d</fix>
</trkpt>
<trkpt lat="-27.2744391" lon="151.2900641">
  <ele>343.01</ele>
  <time>2026-09-01T20:01:58Z</time>
  <course>10.55</course>
  <speed>0.022360679774997897</speed>
  <fix>3d</fix>
</trkpt>
<trkpt lat="-27.274439" lon="151.290064">
  <ele>343.1</ele>
  <time>2026-09-01T20:01:58Z</time>
  <course>322.4</course>
  <speed>0.0</speed>
  <fix>3d</fix>
</trkpt>
<trkpt lat="-27.2744391" lon="151.2900641">
  <ele>343.01</ele>
  <time>2026-09-01T20:01:58Z</time>
  <course>10.55</course>
  <speed>0.022360679774997897</speed>
  <fix>3d</fix>
</trkpt>
<trkpt lat="-27.2744391" lon="151.2900641">
  <ele>343.01</ele>
  <time>2026-09-01T20:01:58Z</time>
  <course>10.55</course>
  <speed>0.022360679774997897</speed>
  <fix>3d</fix>
</trkpt>
<trkpt lat="-27.274439" lon="151.290064">
  <ele>343.1</ele>
  <time>2026-09-01T20:01:58Z</time>
  <course>322.4</course>
  <speed>0.0</speed>
  <fix>3d</fix>
</trkpt>
<trkpt lat="-27.2744391" lon="151.2900641">
  <ele>343.02</ele>
  <time>2026-09-01T20:01:58Z</time>
  <course>10.55</course>
  <speed>0.022360679774997897</speed>
  <fix>3d</fix>
</trkpt>
<trkpt lat="-27.2744391" lon="151.2900641">
  <ele>343.03</ele>
  <time>2026-09-01T20:01:58Z</time>
  <course>10.55</course>
  <speed>0.022360679774997897</speed>
  <fix>3d</fix>
</trkpt>
<trkpt lat="-27.274439" lon="151.290064">
  <ele>343.1</ele>
  <time>2026-09-01T20:01:58Z</time>
  <course>0.51</course>
  <speed>0.0</speed>
  <fix>3d</fix>
</trkpt>
<trkpt lat="-27.2744391" lon="151.2900641">
  <ele>343.04</ele>
  <time>2026-09-01T20:01:58Z</time>
  <course>10.56</course>
  <speed>0.022360679774997897</speed>
  <fix>3d</fix>
</trkpt>
<trkpt lat="-27.2744391" lon="151.2900641">
  <ele>343.07</ele>
  <time>2026-09-01T20:01:58Z</time>
  <course>10.56</course>
  <speed>0.0282842712474619</speed>
  <fix>3d</fix>
</trkpt>
<trkpt lat="-27.274439" lon="151.290064">
  <ele>343.1</ele>
  <time>2026-09-01T20:01:58Z</time>
  <course>0.51</course>
  <speed>0.0</speed>
  <fix>3d</fix>
</trkpt>
<trkpt lat="-27.2744391" lon="151.2900641">
  <ele>343.07</ele>
  <time>2026-09-01T20:01:58Z</time>
  <course>10.56</course>
  <speed>0.0282842712474619</speed>
  <fix>3d</fix>
</trkpt>
<trkpt lat="-27.2744391" lon="151.2900641">
  <ele>343.13</ele>
  <time>2026-09-01T20:01:58Z</time>
  <course>10.56</course>
  <speed>0.0282842712474619</speed>
  <fix>3d</fix>
</trkpt>
<trkpt lat="-27.274439" lon="151.290064">
  <ele>343.12</ele>
  <time>2026-09-01T20:01:58Z</time>
  <course>7.4</course>
  <speed>0.0</speed>
  <fix>3d</fix>
</trkpt>
<trkpt lat="-27.2744391" lon="151.2900641">
  <ele>343.13</ele>
  <time>2026-09-01T20:01:58Z</time>
  <course>10.56</course>
  <speed>0.0282842712474619</speed>
  <fix>3d</fix>
</trkpt>
<trkpt lat="-27.2744391" lon="151.2900641">
  <ele>343.21</ele>
  <time>2026-09-01T20:01:58Z</time>
  <course>10.56</course>
  <speed>0.02</speed>
  <fix>3d</fix>
</trkpt>
<trkpt lat="-27.274439" lon="151.290064">
  <ele>343.12</ele>
  <time>2026-09-01T20:01:58Z</time>
  <course>7.4</course>
  <speed>0.0</speed>
  <fix>3d</fix>
</trkpt>
<trkpt lat="-27.2744391" lon="151.2900641">
  <ele>343.22</ele>
  <time>2026-09-01T20:01:58Z</time>
  <course>10.56</course>
  <speed>0.02</speed>
  <fix>3d</fix>
</trkpt>
<trkpt lat="-27.2744391" lon="151.2900641">
  <ele>343.37</ele>
  <time>2026-09-01T20:01:58Z</time>
  <course>10.57</course>
  <speed>0.0282842712474619</speed>
  <fix>3d</fix>
</trkpt>
<trkpt lat="-27.274439" lon="151.290064">
  <ele>343.22</ele>
  <time>2026-09-01T20:01:58Z</time>
  <course>356.72</course>
  <speed>0.01</speed>
  <fix>3d</fix>
</trkpt>
<trkpt lat="-27.2744391" lon="151.2900641">
  <ele>343.39</ele>
  <time>2026-09-01T20:01:58Z</time>
  <course>10.57</course>
  <speed>0.03605551275463989</speed>
  <fix>3d</fix>
</trkpt>
<trkpt lat="-27.2744391" lon="151.2900641">
  <ele>343.59</ele>
  <time>2026-09-01T20:01:58Z</time>
  <course>10.56</course>
  <speed>0.07280109889280519</speed>
  <fix>3d</fix>
</trkpt>
<trkpt lat="-27.274439" lon="151.290064">
  <ele>343.22</ele>
  <time>2026-09-01T20:01:58Z</time>
  <course>356.72</course>
  <speed>0.01</speed>
  <fix>3d</fix>
</trkpt>
<trkpt lat="-27.2744391" lon="151.2900641">
  <ele>343.67</ele>
  <time>2026-09-01T20:01:58Z</time>
  <course>10.55</course>
  <speed>0.0824621125123532</speed>
  <fix>3d</fix>
</trkpt>
<trkpt lat="-27.274439" lon="151.2900641">
  <ele>343.84</ele>
  <time>2026-09-01T20:01:58Z</time>
  <course>10.52</course>
  <speed>0.11401754250991379</speed>
  <fix>3d</fix>
</trkpt>
<trkpt lat="-27.274439" lon="151.290064">
  <ele>343.47</ele>
  <time>2026-09-01T20:01:58Z</time>
  <course>357.31</course>
  <speed>0.06</speed>
  <fix>3d</fix>
</trkpt>
<trkpt lat="-27.274439" lon="151.2900641">
  <ele>343.92</ele>
  <time>2026-09-01T20:01:58Z</time>
  <course>10.5</course>
  <speed>0.13341664064126335</speed>
  <fix>3d</fix>
</trkpt>
<trkpt lat="-27.2744389" lon="151.2900641">
  <ele>344.1</ele>
  <time>2026-09-01T20:01:58Z</time>
  <course>10.46</course>
  <speed>0.16278820596099705</speed>
  <fix>3d</fix>
</trkpt>
<trkpt lat="-27.274439" lon="151.290064">
  <ele>343.47</ele>
  <time>2026-09-01T20:01:58Z</time>
  <course>357.31</course>
  <speed>0.06</speed>
  <fix>3d</fix>
</trkpt>
<trkpt lat="-27.2744388" lon="151.2900641">
  <ele>344.18</ele>
  <time>2026-09-01T20:01:58Z</time>
  <course>10.43</course>
  <speed>0.17262676501632068</speed>
  <fix>3d</fix>
</trkpt>
<trkpt lat="-27.2744387" lon="151.2900641">
  <ele>344.37</ele>
  <time>2026-09-01T20:01:58Z</time>
  <course>10.37</course>
  <speed>0.20223748416156684</speed>
  <fix>3d</fix>
</trkpt>
<trkpt lat="-27.2744388" lon="151.290064">
  <ele>343.91</ele>
  <time>2026-09-01T20:01:58Z</time>
  <course>358.68</course>
  <speed>0.15</speed>
  <fix>3d</fix>
</trkpt>
<trkpt lat="-27.2744386" lon="151.2900642">
  <ele>344.45</ele>
  <time>2026-09-01T20:01:58Z</time>
  <course>10.34</course>
  <speed>0.21213203435596426</speed>
  <fix>3d</fix>
</trkpt>
<trkpt lat="-27.2744385" lon="151.2900642">
  <ele>344.65</ele>
  <time>2026-09-01T20:01:58Z</time>
  <course>10.28</course>
  <speed>0.24331050121192876</speed>
  <fix>3d</fix>
</trkpt>
<trkpt lat="-27.2744388" lon="151.290064">
  <ele>343.91</ele>
  <time>2026-09-01T20:01:58Z</time>
  <course>358.68</course>
  <speed>0.15</speed>
  <fix>3d</fix>
</trkpt>
<trkpt lat="-27.2744384" lon="151.2900642">
  <ele>344.73</ele>
  <time>2026-09-01T20:01:58Z</time>
  <course>10.26</course>
  <speed>0.25317977802344327</speed>
  <fix>3d</fix>
</trkpt>
<trkpt lat="-27.2744382" lon="151.2900642">
  <ele>344.95</ele>
  <time>2026-09-01T20:01:58Z</time>
  <course>10.2</course>
  <speed>0.282842712474619</speed>
  <fix>3d</fix>
</trkpt>
<trkpt lat="-27.2744385" lon="151.290064">
  <ele>344.44</ele>
  <time>2026-09-01T20:01:58Z</time>
  <course>359.98</course>
  <speed>0.24</speed>
  <fix>3d</fix>
</trkpt>
<trkpt lat="-27.2744381" lon="151.2900642">
  <ele>345.04</ele>
  <time>2026-09-01T20:01:58Z</time>
  <course>10.18</course>
  <speed>0.2942787793912432</speed>
  <fix>3d</fix>
</trkpt>
<trkpt lat="-27.2744379" lon="151.2900642">
  <ele>345.25</ele>
  <time>2026-09-01T20:01:58Z</time>
  <course>10.14</course>
  <speed>0.31400636936215165</speed>
  <fix>3d</fix>
</trkpt>
<trkpt lat="-27.2744385" lon="151.290064">
  <ele>344.44</ele>
  <time>2026-09-01T20:01:58Z</time>
  <course>359.98</course>
  <speed>0.24</speed>
  <fix>3d</fix>
</trkpt>
<trkpt lat="-27.2744378" lon="151.2900642">
  <ele>345.35</ele>
  <time>2026-09-01T20:01:58Z</time>
  <course>10.12</course>
  <speed>0.3238826948140329</speed>
  <fix>3d</fix>
</trkpt>
<trkpt lat="-27.2744376" lon="151.2900642">
  <ele>345.57</ele>
  <time>2026-09-01T20:01:58Z</time>
  <course>10.09</course>
  <speed>0.3535533905932738</speed>
  <fix>3d</fix>
</trkpt>
<trkpt lat="-27.274438" lon="151.290064">
  <ele>345.02</ele>
  <time>2026-09-01T20:01:58Z</time>
  <course>1.08</course>
  <speed>0.32</speed>
  <fix>3d</fix>
</trkpt>
<trkpt lat="-27.2744375" lon="151.2900642">
  <ele>345.66</ele>
  <time>2026-09-01T20:01:58Z</time>
  <course>10.08</course>
  <speed>0.3535533905932738</speed>
  <fix>3d</fix>
</trkpt>
<trkpt lat="-27.2744372" lon="151.2900643">
  <ele>345.88</ele>
  <time>2026-09-01T20:01:58Z</time>
  <course>10.06</course>
  <speed>0.37483329627982626</speed>
  <fix>3d</fix>
</trkpt>
<trkpt lat="-27.274438" lon="151.290064">
  <ele>345.02</ele>
  <time>2026-09-01T20:01:58Z</time>
  <course>1.08</course>
  <speed>0.32</speed>
  <fix>3d</fix>
</trkpt>
<trkpt lat="-27.2744371" lon="151.2900643">
  <ele>345.98</ele>
  <time>2026-09-01T20:01:58Z</time>
  <course>10.06</course>
  <speed>0.38470768123342686</speed>
  <fix>3d</fix>
</trkpt>
<trkpt lat="-27.2744369" lon="151.2900643">
  <ele>346.2</ele>
  <time>2026-09-01T20:01:58Z</time>
  <course>10.04</course>
  <speed>0.3945883931389772</speed>
  <fix>3d</fix>
</trkpt>
<trkpt lat="-27.2744373" lon="151.290064">
  <ele>345.63</ele>
  <time>2026-09-01T20:01:58Z</time>
  <course>1.97</course>
  <speed>0.39</speed>
  <fix>3d</fix>
</trkpt>
<trkpt lat="-27.2744369" lon="151.2900643">
  <ele>346.21</ele>
  <time>2026-09-01T20:01:58Z</time>
  <course>10.04</course>
  <speed>0.3945883931389772</speed>
  <fix>3d</fix>
</trkpt>
<trkpt lat="-27.2744365" lon="151.2900643">
  <ele>346.52</ele>
  <time>2026-09-01T20:01:58Z</time>
  <course>10.05</course>
  <speed>0.4143669871020132</speed>
  <fix>3d</fix>
</trkpt>
<trkpt lat="-27.2744373" lon="151.290064">
  <ele>345.63</ele>
  <time>2026-09-01T20:01:58Z</time>
  <course>1.97</course>
  <speed>0.39</speed>
  <fix>3d</fix>
</trkpt>
<trkpt lat="-27.2744364" lon="151.2900643">
  <ele>346.61</ele>
  <time>2026-09-01T20:01:58Z</time>
  <course>10.05</course>
  <speed>0.4143669871020132</speed>
  <fix>3d</fix>
</trkpt>
<trkpt lat="-27.2744361" lon="151.2900644">
  <ele>346.83</ele>
  <time>2026-09-01T20:01:58Z</time>
  <course>10.04</course>
  <speed>0.4242640687119285</speed>
  <fix>3d</fix>
</trkpt>
<trkpt lat="-27.2744366" lon="151.290064">
  <ele>346.26</ele>
  <time>2026-09-01T20:01:58Z</time>
  <course>2.61</course>
  <speed>0.44</speed>
  <fix>3d</fix>
</trkpt>
<trkpt lat="-27.274436" lon="151.2900644">
  <ele>346.92</ele>
  <time>2026-09-01T20:01:58Z</time>
  <course>10.04</course>
  <speed>0.4242640687119285</speed>
  <fix>3d</fix>
</trkpt>
<trkpt lat="-27.2744357" lon="151.2900644">
  <ele>347.14</ele>
  <time>2026-09-01T20:01:58Z</time>
  <course>10.06</course>
  <speed>0.4242640687119285</speed>
  <fix>3d</fix>
</trkpt>
<trkpt lat="-27.2744366" lon="151.290064">
  <ele>346.26</ele>
  <time>2026-09-01T20:01:58Z</time>
  <course>2.61</course>
  <speed>0.44</speed>
  <fix>3d</fix>
</trkpt>
<trkpt lat="-27.2744355" lon="151.2900644">
  <ele>347.23</ele>
  <time>2026-09-01T20:01:58Z</time>
  <course>10.06</course>
  <speed>0.4242640687119285</speed>
  <fix>3d</fix>
</trkpt>
<trkpt lat="-27.2744353" lon="151.2900644">
  <ele>347.44</ele>
  <time>2026-09-01T20:01:58Z</time>
  <course>10.06</course>
  <speed>0.4242640687119285</speed>
  <fix>3d</fix>
</trkpt>
<trkpt lat="-27.2744357" lon="151.290064">
  <ele>346.89</ele>
  <time>2026-09-01T20:01:58Z</time>
  <course>3.06</course>
  <speed>0.46</speed>
  <fix>3d</fix>
</trkpt>
<trkpt lat="-27.2744351" lon="151.2900644">
  <ele>347.53</ele>
  <time>2026-09-01T20:01:58Z</time>
  <course>10.06</course>
  <speed>0.4242640687119285</speed>
  <fix>3d</fix>
</trkpt>
<trkpt lat="-27.2744349" lon="151.2900644">
  <ele>347.73</ele>
  <time>2026-09-01T20:01:58Z</time>
  <course>10.08</course>
  <speed>0.4143669871020132</speed>
  <fix>3d</fix>
</trkpt>
<trkpt lat="-27.2744357" lon="151.290064">
  <ele>346.89</ele>
  <time>2026-09-01T20:01:58Z</time>
  <course>3.06</course>
  <speed>0.46</speed>
  <fix>3d</fix>
</trkpt>
<trkpt lat="-27.2744347" lon="151.2900644">
  <ele>347.82</ele>
  <time>2026-09-01T20:01:58Z</time>
  <course>10.09</course>
  <speed>0.4143669871020132</speed>
  <fix>3d</fix>
</trkpt>
<trkpt lat="-27.2744344" lon="151.2900645">
  <ele>348.02</ele>
  <time>2026-09-01T20:01:58Z</time>
  <course>10.1</course>
  <speed>0.4044749683231337</speed>
  <fix>3d</fix>
</trkpt>
<trkpt lat="-27.2744349" lon="151.2900641">
  <ele>347.49</ele>
  <time>2026-09-01T20:01:58Z</time>
  <course>3.42</course>
  <speed>0.46</speed>
  <fix>3d</fix>
</trkpt>
<trkpt lat="-27.2744343" lon="151.2900645">
  <ele>348.12</ele>
  <time>2026-09-01T20:01:58Z</time>
  <course>10.1</course>
  <speed>0.3945883931389772</speed>
  <fix>3d</fix>
</trkpt>
<trkpt lat="-27.2744341" lon="151.2900645">
  <ele>348.31</ele>
  <time>2026-09-01T20:01:58Z</time>
  <course>10.12</course>
  <speed>0.38470768123342686</speed>
  <fix>3d</fix>
</trkpt>
<trkpt lat="-27.2744349" lon="151.2900641">
  <ele>347.49</ele>
  <time>2026-09-01T20:01:58Z</time>
  <course>3.42</course>
  <speed>0.46</speed>
  <fix>3d</fix>
</trkpt>
<trkpt lat="-27.2744337" lon="151.2900645">
  <ele>348.58</ele>
  <time>2026-09-01T20:01:58Z</time>
  <course>10.15</course>
  <speed>0.3634556369077249</speed>
  <fix>3d</fix>
</trkpt>
<trkpt lat="-27.2744341" lon="151.2900641">
  <ele>348.07</ele>
  <time>2026-09-01T20:01:58Z</time>
  <course>3.72</course>
  <speed>0.44</speed>
  <fix>3d</fix>
</trkpt>
<trkpt lat="-27.2744333" lon="151.2900645">
  <ele>348.85</ele>
  <time>2026-09-01T20:01:58Z</time>
  <course>10.18</course>
  <speed>0.34365680554879163</speed>
  <fix>3d</fix>
</trkpt>
<trkpt lat="-27.2744341" lon="151.2900641">
  <ele>348.07</ele>
  <time>2026-09-01T20:01:58Z</time>
  <course>3.72</course>
  <speed>0.44</speed>
  <fix>3d</fix>
</trkpt>
<trkpt lat="-27.274433" lon="151.2900645">
  <ele>349.11</ele>
  <time>2026-09-01T20:01:58Z</time>
  <course>10.21</course>
  <speed>0.31400636936215165</speed>
  <fix>3d</fix>
</trkpt>
<trkpt lat="-27.2744333" lon="151.2900642">
  <ele>348.63</ele>
  <time>2026-09-01T20:01:58Z</time>
  <course>4.01</course>
  <speed>0.41</speed>
  <fix>3d</fix>
</trkpt>
<trkpt lat="-27.2744327" lon="151.2900645">
  <ele>349.37</ele>
  <time>2026-09-01T20:01:58Z</time>
  <course>10.24</course>
  <speed>0.282842712474619</speed>
  <fix>3d</fix>
</trkpt>
<trkpt lat="-27.2744333" lon="151.2900642">
  <ele>348.63</ele>
  <time>2026-09-01T20:01:58Z</time>
  <course>4.01</course>
  <speed>0.41</speed>
  <fix>3d</fix>
</trkpt>
<trkpt lat="-27.2744324" lon="151.2900645">
  <ele>349.62</ele>
  <time>2026-09-01T20:01:58Z</time>
  <course>10.27</course>
  <speed>0.24331050121192876</speed>
  <fix>3d</fix>
</trkpt>
<trkpt lat="-27.2744326" lon="151.2900642">
  <ele>349.15</ele>
  <time>2026-09-01T20:01:58Z</time>
  <course>4.34</course>
  <speed>0.35</speed>
  <fix>3d</fix>
</trkpt>
<trkpt lat="-27.2744322" lon="151.2900646">
  <ele>349.87</ele>
  <time>2026-09-01T20:01:58Z</time>
  <course>10.3</course>
  <speed>0.21377558326431947</speed>
  <fix>3d</fix>
</trkpt>
<trkpt lat="-27.2744326" lon="151.2900642">
  <ele>349.15</ele>
  <time>2026-09-01T20:01:58Z</time>
  <course>4.34</course>
  <speed>0.35</speed>
  <fix>3d</fix>
</trkpt>
<trkpt lat="-27.274432" lon="151.2900646">
  <ele>350.11</ele>
  <time>2026-09-01T20:01:58Z</time>
  <course>10.33</course>
  <speed>0.17262676501632068</speed>
  <fix>3d</fix>
</trkpt>
<trkpt lat="-27.274432" lon="151.2900642">
  <ele>349.66</ele>
  <time>2026-09-01T20:01:58Z</time>
  <course>4.81</course>
  <speed>0.29</speed>
  <fix>3d</fix>
</trkpt>
<trkpt lat="-27.2744318" lon="151.2900646">
  <ele>350.36</ele>
  <time>2026-09-01T20:01:58Z</time>
  <course>10.35</course>
  <speed>0.13341664064126335</speed>
  <fix>3d</fix>
</trkpt>
<trkpt lat="-27.274432" lon="151.2900642">
  <ele>349.66</ele>
  <time>2026-09-01T20:01:58Z</time>
  <course>4.81</course>
  <speed>0.29</speed>
  <fix>3d</fix>
</trkpt>
<trkpt lat="-27.2744317" lon="151.2900646">
  <ele>350.6</ele>
  <time>2026-09-01T20:01:58Z</time>
  <course>10.38</course>
  <speed>0.1044030650891055</speed>
  <fix>3d</fix>
</trkpt>
<trkpt lat="-27.2744316" lon="151.2900643">
  <ele>350.15</ele>
  <time>2026-09-01T20:01:58Z</time>
  <course>5.56</course>
  <speed>0.21</speed>
  <fix>3d</fix>
</trkpt>
<trkpt lat="-27.2744315" lon="151.2900646">
  <ele>350.85</ele>
  <time>2026-09-01T20:01:58Z</time>
  <course>10.41</course>
  <speed>0.0632455532033676</speed>
  <fix>3d</fix>
</trkpt>
<trkpt lat="-27.2744316" lon="151.2900643">
  <ele>350.15</ele>
  <time>2026-09-01T20:01:58Z</time>
  <course>5.56</course>
  <speed>0.21</speed>
  <fix>3d</fix>
</trkpt>
<trkpt lat="-27.2744315" lon="151.2900646">
  <ele>351.09</ele>
  <time>2026-09-01T20:01:58Z</time>
  <course>10.44</course>
  <speed>0.03605551275463989</speed>
  <fix>3d</fix>
</trkpt>
<trkpt lat="-27.2744312" lon="151.2900644">
  <ele>350.63</ele>
  <time>2026-09-01T20:01:58Z</time>
  <course>7.03</course>
  <speed>0.14</speed>
  <fix>3d</fix>
</trkpt>
<trkpt lat="-27.2744314" lon="151.2900646">
  <ele>351.33</ele>
  <time>2026-09-01T20:01:58Z</time>
  <course>10.47</course>
  <speed>0.02</speed>
  <fix>3d</fix>
</trkpt>
<trkpt lat="-27.2744312" lon="151.2900644">
  <ele>350.63</ele>
  <time>2026-09-01T20:01:58Z</time>
  <course>7.03</course>
  <speed>0.14</speed>
  <fix>3d</fix>
</trkpt>
<trkpt lat="-27.2744314" lon="151.2900646">
  <ele>351.57</ele>
  <time>2026-09-01T20:01:58Z</time>
  <course>10.51</course>
  <speed>0.0316227766016838</speed>
  <fix>3d</fix>
</trkpt>
<trkpt lat="-27.274431" lon="151.2900644">
  <ele>351.11</ele>
  <time>2026-09-01T20:01:58Z</time>
  <course>11.2</course>
  <speed>0.07</speed>
  <fix>3d</fix>
</trkpt>
<trkpt lat="-27.2744314" lon="151.2900646">
  <ele>351.81</ele>
  <time>2026-09-01T20:01:58Z</time>
  <course>10.55</course>
  <speed>0.06082762530298219</speed>
  <fix>3d</fix>
</trkpt>
<trkpt lat="-27.274431" lon="151.2900644">
  <ele>351.11</ele>
  <time>2026-09-01T20:01:58Z</time>
  <course>11.2</course>
  <speed>0.07</speed>
  <fix>3d</fix>
</trkpt>
<trkpt lat="-27.2744314" lon="151.2900646">
  <ele>352.05</ele>
  <time>2026-09-01T20:01:58Z</time>
  <course>10.59</course>
  <speed>0.08062257748298549</speed>
  <fix>3d</fix>
</trkpt>
<trkpt lat="-27.274431" lon="151.2900644">
  <ele>351.58</ele>
  <time>2026-09-01T20:01:58Z</time>
  <course>56.25</course>
  <speed>0.01</speed>
  <fix>3d</fix>
</trkpt>
<trkpt lat="-27.2744315" lon="151.2900645">
  <ele>352.3</ele>
  <time>2026-09-01T20:01:58Z</time>
  <course>10.65</course>
  <speed>0.11045361017187261</speed>
  <fix>3d</fix>
</trkpt>
<trkpt lat="-27.274431" lon="151.2900644">
  <ele>351.58</ele>
  <time>2026-09-01T20:01:58Z</time>
  <course>56.25</course>
  <speed>0.01</speed>
  <fix>3d</fix>
</trkpt>
<trkpt lat="-27.2744315" lon="151.2900645">
  <ele>352.55</ele>
  <time>2026-09-01T20:01:58Z</time>
  <course>10.71</course>
  <speed>0.13</speed>
  <fix>3d</fix>
</trkpt>
<trkpt lat="-27.274431" lon="151.2900645">
  <ele>352.06</ele>
  <time>2026-09-01T20:01:58Z</time>
  <course>172.14</course>
  <speed>0.05</speed>
  <fix>3d</fix>
</trkpt>
<trkpt lat="-27.2744315" lon="151.2900645">
  <ele>352.79</ele>
  <time>2026-09-01T20:01:58Z</time>
  <course>10.78</course>
  <speed>0.15</speed>
  <fix>3d</fix>
</trkpt>
<trkpt lat="-27.274431" lon="151.2900645">
  <ele>352.06</ele>
  <time>2026-09-01T20:01:58Z</time>
  <course>172.14</course>
  <speed>0.05</speed>
  <fix>3d</fix>
</trkpt>
<trkpt lat="-27.2744316" lon="151.2900645">
  <ele>353.04</ele>
  <time>2026-09-01T20:01:58Z</time>
  <course>10.86</course>
  <speed>0.17</speed>
  <fix>3d</fix>
</trkpt>
<trkpt lat="-27.2744311" lon="151.2900645">
  <ele>352.54</ele>
  <time>2026-09-01T20:01:58Z</time>
  <course>178.83</course>
  <speed>0.09</speed>
  <fix>3d</fix>
</trkpt>
<trkpt lat="-27.2744318" lon="151.2900645">
  <ele>353.29</ele>
  <time>2026-09-01T20:01:58Z</time>
  <course>10.95</course>
  <speed>0.18</speed>
  <fix>3d</fix>
</trkpt>
<trkpt lat="-27.2744311" lon="151.2900645">
  <ele>352.54</ele>
  <time>2026-09-01T20:01:58Z</time>
  <course>178.83</course>
  <speed>0.09</speed>
  <fix>3d</fix>
</trkpt>
<trkpt lat="-27.2744319" lon="151.2900645">
  <ele>353.53</ele>
  <time>2026-09-01T20:01:58Z</time>
  <course>11.07</course>
  <speed>0.19026297590440447</speed>
  <fix>3d</fix>
</trkpt>
<trkpt lat="-27.2744312" lon="151.2900645">
  <ele>353.03</ele>
  <time>2026-09-01T20:01:58Z</time>
  <course>182.15</course>
  <speed>0.13</speed>
  <fix>3d</fix>
</trkpt>
<trkpt lat="-27.274432" lon="151.2900645">
  <ele>353.78</ele>
  <time>2026-09-01T20:01:58Z</time>
  <course>11.23</course>
  <speed>0.2002498439450079</speed>
  <fix>3d</fix>
</trkpt>
<trkpt lat="-27.2744312" lon="151.2900645">
  <ele>353.03</ele>
  <time>2026-09-01T20:01:58Z</time>
  <course>182.15</course>
  <speed>0.13</speed>
  <fix>3d</fix>
</trkpt>
<trkpt lat="-27.2744322" lon="151.2900645">
  <ele>354.02</ele>
  <time>2026-09-01T20:01:58Z</time>
  <course>11.4</course>
  <speed>0.2002498439450079</speed>
  <fix>3d</fix>
</trkpt>
<trkpt lat="-27.2744315" lon="151.2900645">
  <ele>353.52</ele>
  <time>2026-09-01T20:01:58Z</time>
  <course>185.14</course>
  <speed>0.16</speed>
  <fix>3d</fix>
</trkpt>
<trkpt lat="-27.2744323" lon="151.2900645">
  <ele>354.25</ele>
  <time>2026-09-01T20:01:59Z</time>
  <course>11.55</course>
  <speed>0.18027756377319945</speed>
  <fix>3d</fix>
</trkpt>
<trkpt lat="-27.2744315" lon="151.2900645">
  <ele>353.52</ele>
  <time>2026-09-01T20:01:59Z</time>
  <course>185.14</course>
  <speed>0.16</speed>
  <fix>3d</fix>
</trkpt>
<trkpt lat="-27.2744324" lon="151.2900645">
  <ele>354.48</ele>
  <time>2026-09-01T20:01:59Z</time>
  <course>11.66</course>
  <speed>0.16031219541881397</speed>
  <fix>3d</fix>
</trkpt>
<trkpt lat="-27.2744318" lon="151.2900645">
  <ele>354.0</ele>
  <time>2026-09-01T20:01:59Z</time>
  <course>187.6</course>
  <speed>0.16</speed>
  <fix>3d</fix>
</trkpt>
<trkpt lat="-27.2744325" lon="151.2900645">
  <ele>354.69</ele>
  <time>2026-09-01T20:01:59Z</time>
  <course>11.66</course>
  <speed>0.1414213562373095</speed>
  <fix>3d</fix>
</trkpt>
<trkpt lat="-27.2744318" lon="151.2900645">
  <ele>354.0</ele>
  <time>2026-09-01T20:01:59Z</time>
  <course>187.6</course>
  <speed>0.16</speed>
  <fix>3d</fix>
</trkpt>
<trkpt lat="-27.2744326" lon="151.2900644">
  <ele>354.88</ele>
  <time>2026-09-01T20:01:59Z</time>
  <course>11.56</course>
  <speed>0.12165525060596438</speed>
  <fix>3d</fix>
</trkpt>
<trkpt lat="-27.2744321" lon="151.2900644">
  <ele>354.46</ele>
  <time>2026-09-01T20:01:59Z</time>
  <course>189.61</course>
  <speed>0.14</speed>
  <fix>3d</fix>
</trkpt>
<trkpt lat="-27.2744327" lon="151.2900644">
  <ele>355.05</ele>
  <time>2026-09-01T20:01:59Z</time>
  <course>11.37</course>
  <speed>0.1118033988749895</speed>
  <fix>3d</fix>
</trkpt>
<trkpt lat="-27.2744321" lon="151.2900644">
  <ele>354.46</ele>
  <time>2026-09-01T20:01:59Z</time>
  <course>189.61</course>
  <speed>0.14</speed>
  <fix>3d</fix>
</trkpt>
<trkpt lat="-27.2744327" lon="151.2900644">
  <ele>355.2</ele>
  <time>2026-09-01T20:01:59Z</time>
  <course>11.15</course>
  <speed>0.1118033988749895</speed>
  <fix>3d</fix>
</trkpt>
<trkpt lat="-27.2744324" lon="151.2900644">
  <ele>354.86</ele>
  <time>2026-09-01T20:01:59Z</time>
  <course>189.97</course>
  <speed>0.11</speed>
  <fix>3d</fix>
</trkpt>
<trkpt lat="-27.2744328" lon="151.2900644">
  <ele>355.32</ele>
  <time>2026-09-01T20:01:59Z</time>
  <course>10.95</course>
  <speed>0.12041594578792296</speed>
  <fix>3d</fix>
</trkpt>
<trkpt lat="-27.2744324" lon="151.2900644">
  <ele>354.86</ele>
  <time>2026-09-01T20:01:59Z</time>
  <course>189.97</course>
  <speed>0.11</speed>
  <fix>3d</fix>
</trkpt>
<trkpt lat="-27.2744329" lon="151.2900643">
  <ele>355.41</ele>
  <time>2026-09-01T20:01:59Z</time>
  <course>10.82</course>
  <speed>0.13152946437965907</speed>
  <fix>3d</fix>
</trkpt>
<trkpt lat="-27.2744326" lon="151.2900644">
  <ele>355.18</ele>
  <time>2026-09-01T20:01:59Z</time>
  <course>188.41</course>
  <speed>0.1</speed>
  <fix>3d</fix>
</trkpt>
<trkpt lat="-27.274433" lon="151.2900643">
  <ele>355.46</ele>
  <time>2026-09-01T20:01:59Z</time>
  <course>10.76</course>
  <speed>0.15132745950421556</speed>
  <fix>3d</fix>
</trkpt>
<trkpt lat="-27.2744326" lon="151.2900644">
  <ele>355.18</ele>
  <time>2026-09-01T20:01:59Z</time>
  <course>188.41</course>
  <speed>0.1</speed>
  <fix>3d</fix>
</trkpt>
<trkpt lat="-27.2744332" lon="151.2900643">
  <ele>355.49</ele>
  <time>2026-09-01T20:01:59Z</time>
  <course>10.78</course>
  <speed>0.18110770276274835</speed>
  <fix>3d</fix>
</trkpt>
<trkpt lat="-27.2744328" lon="151.2900643">
  <ele>355.38</ele>
  <time>2026-09-01T20:01:59Z</time>
  <course>188.1</course>
  <speed>0.12</speed>
  <fix>3d</fix>
</trkpt>
<trkpt lat="-27.2744333" lon="151.2900643">
  <ele>355.49</ele>
  <time>2026-09-01T20:01:59Z</time>
  <course>10.84</course>
  <speed>0.20223748416156684</speed>
  <fix>3d</fix>
</trkpt>
<trkpt lat="-27.2744328" lon="151.2900643">
  <ele>355.38</ele>
  <time>2026-09-01T20:01:59Z</time>
  <course>188.1</course>
  <speed>0.12</speed>
  <fix>3d</fix>
</trkpt>
<trkpt lat="-27.2744335" lon="151.2900642">
  <ele>355.46</ele>
  <time>2026-09-01T20:01:59Z</time>
  <course>10.93</course>
  <speed>0.23194827009486402</speed>
  <fix>3d</fix>
</trkpt>
<trkpt lat="-27.274433" lon="151.2900642">
  <ele>355.47</ele>
  <time>2026-09-01T20:01:59Z</time>
  <course>188.07</course>
  <speed>0.16</speed>
  <fix>3d</fix>
</trkpt>
<trkpt lat="-27.2744337" lon="151.2900642">
  <ele>355.41</ele>
  <time>2026-09-01T20:01:59Z</time>
  <course>11.08</course>
  <speed>0.25317977802344327</speed>
  <fix>3d</fix>
</trkpt>
<trkpt lat="-27.274433" lon="151.2900642">
  <ele>355.47</ele>
  <time>2026-09-01T20:01:59Z</time>
  <course>188.07</course>
  <speed>0.16</speed>
  <fix>3d</fix>
</trkpt>
<trkpt lat="-27.2744339" lon="151.2900642">
  <ele>355.35</ele>
  <time>2026-09-01T20:01:59Z</time>
  <course>11.29</course>
  <speed>0.26305892875931813</speed>
  <fix>3d</fix>
</trkpt>
<trkpt lat="-27.2744334" lon="151.2900642">
  <ele>355.44</ele>
  <time>2026-09-01T20:01:59Z</time>
  <course>188.28</course>
  <speed>0.21</speed>
  <fix>3d</fix>
</trkpt>
<trkpt lat="-27.2744341" lon="151.2900641">
  <ele>355.28</ele>
  <time>2026-09-01T20:01:59Z</time>
  <course>11.52</course>
  <speed>0.28442925306655786</speed>
  <fix>3d</fix>
</trkpt>
<trkpt lat="-27.2744334" lon="151.2900642">
  <ele>355.44</ele>
  <time>2026-09-01T20:01:59Z</time>
  <course>188.28</course>
  <speed>0.21</speed>
  <fix>3d</fix>
</trkpt>
<trkpt lat="-27.2744344" lon="151.2900641">
  <ele>355.19</ele>
  <time>2026-09-01T20:01:59Z</time>
  <course>11.71</course>
  <speed>0.2942787793912432</speed>
  <fix>3d</fix>
</trkpt>
<trkpt lat="-27.2744338" lon="151.2900641">
  <ele>355.33</ele>
  <time>2026-09-01T20:01:59Z</time>
  <course>189.45</course>
  <speed>0.25</speed>
  <fix>3d</fix>
</trkpt>
<trkpt lat="-27.2744346" lon="151.290064">
  <ele>355.1</ele>
  <time>2026-09-01T20:01:59Z</time>
  <course>11.83</course>
  <speed>0.304138126514911</speed>
  <fix>3d</fix>
</trkpt>
<trkpt lat="-27.2744338" lon="151.2900641">
  <ele>355.33</ele>
  <time>2026-09-01T20:01:59Z</time>
  <course>189.45</course>
  <speed>0.25</speed>
  <fix>3d</fix>
</trkpt>
<trkpt lat="-27.2744349" lon="151.2900639">
  <ele>355.02</ele>
  <time>2026-09-01T20:01:59Z</time>
  <course>11.86</course>
  <speed>0.31575306807693887</speed>
  <fix>3d</fix>
</trkpt>
<trkpt lat="-27.2744342" lon="151.290064">
  <ele>355.16</ele>
  <time>2026-09-01T20:01:59Z</time>
  <course>190.41</course>
  <speed>0.28</speed>
  <fix>3d</fix>
</trkpt>
<trkpt lat="-27.2744351" lon="151.2900639">
  <ele>354.93</ele>
  <time>2026-09-01T20:01:59Z</time>
  <course>11.83</course>
  <speed>0.3255764119219941</speed>
  <fix>3d</fix>
</trkpt>
<trkpt lat="-27.2744342" lon="151.290064">
  <ele>355.16</ele>
  <time>2026-09-01T20:01:59Z</time>
  <course>190.41</course>
  <speed>0.28</speed>
  <fix>3d</fix>
</trkpt>
<trkpt lat="-27.2744354" lon="151.2900638">
  <ele>354.85</ele>
  <time>2026-09-01T20:01:59Z</time>
  <course>11.73</course>
  <speed>0.3255764119219941</speed>
  <fix>3d</fix>
</trkpt>
<trkpt lat="-27.2744348" lon="151.2900639">
  <ele>354.99</ele>
  <time>2026-09-01T20:01:59Z</time>
  <course>190.58</course>
  <speed>0.3</speed>
  <fix>3d</fix>
</trkpt>
<trkpt lat="-27.2744357" lon="151.2900638">
  <ele>354.77</ele>
  <time>2026-09-01T20:01:59Z</time>
  <course>11.6</course>
  <speed>0.3238826948140329</speed>
  <fix>3d</fix>
</trkpt>
<trkpt lat="-27.2744348" lon="151.2900639">
  <ele>354.99</ele>
  <time>2026-09-01T20:01:59Z</time>
  <course>190.58</course>
  <speed>0.3</speed>
  <fix>3d</fix>
</trkpt>
<trkpt lat="-27.274436" lon="151.2900637">
  <ele>354.7</ele>
  <time>2026-09-01T20:01:59Z</time>
  <course>11.45</course>
  <speed>0.3238826948140329</speed>
  <fix>3d</fix>
</trkpt>
<trkpt lat="-27.2744353" lon="151.2900638">
  <ele>354.83</ele>
  <time>2026-09-01T20:01:59Z</time>
  <course>190.36</course>
  <speed>0.31</speed>
  <fix>3d</fix>
</trkpt>
<trkpt lat="-27.2744362" lon="151.2900637">
  <ele>354.64</ele>
  <time>2026-09-01T20:01:59Z</time>
  <course>11.3</course>
  <speed>0.32249030993194194</speed>
  <fix>3d</fix>
</trkpt>
<trkpt lat="-27.2744353" lon="151.2900638">
  <ele>354.83</ele>
  <time>2026-09-01T20:01:59Z</time>
  <course>190.36</course>
  <speed>0.31</speed>
  <fix>3d</fix>
</trkpt>
<trkpt lat="-27.2744365" lon="151.2900636">
  <ele>354.58</ele>
  <time>2026-09-01T20:01:59Z</time>
  <course>11.17</course>
  <speed>0.32249030993194194</speed>
  <fix>3d</fix>
</trkpt>
<trkpt lat="-27.2744359" lon="151.2900637">
  <ele>354.68</ele>
  <time>2026-09-01T20:01:59Z</time>
  <course>189.9</course>
  <speed>0.31</speed>
  <fix>3d</fix>
</trkpt>
<trkpt lat="-27.2744368" lon="151.2900636">
  <ele>354.53</ele>
  <time>2026-09-01T20:01:59Z</time>
  <course>11.07</course>
  <speed>0.3125699921617557</speed>
  <fix>3d</fix>
</trkpt>
<trkpt lat="-27.2744359" lon="151.2900637">
  <ele>354.68</ele>
  <time>2026-09-01T20:01:59Z</time>
  <course>189.9</course>
  <speed>0.31</speed>
  <fix>3d</fix>
</trkpt>
<trkpt lat="-27.274437" lon="151.2900635">
  <ele>354.48</ele>
  <time>2026-09-01T20:01:59Z</time>
  <course>11.01</course>
  <speed>0.31144823004794875</speed>
  <fix>3d</fix>
</trkpt>
<trkpt lat="-27.2744364" lon="151.2900636">
  <ele>354.56</ele>
  <time>2026-09-01T20:01:59Z</time>
  <course>189.44</course>
  <speed>0.3</speed>
  <fix>3d</fix>
</trkpt>
<trkpt lat="-27.2744373" lon="151.2900635">
  <ele>354.44</ele>
  <time>2026-09-01T20:01:59Z</time>
  <course>10.97</course>
  <speed>0.3014962686336267</speed>
  <fix>3d</fix>
</trkpt>
<trkpt lat="-27.2744364" lon="151.2900636">
  <ele>354.56</ele>
  <time>2026-09-01T20:01:59Z</time>
  <course>189.44</course>
  <speed>0.3</speed>
  <fix>3d</fix>
</trkpt>
<trkpt lat="-27.2744376" lon="151.2900635">
  <ele>354.4</ele>
  <time>2026-09-01T20:01:59Z</time>
  <course>10.96</course>
  <speed>0.2906888370749727</speed>
  <fix>3d</fix>
</trkpt>
<trkpt lat="-27.274437" lon="151.2900635">
  <ele>354.47</ele>
  <time>2026-09-01T20:01:59Z</time>
  <course>189.14</course>
  <speed>0.29</speed>
  <fix>3d</fix>
</trkpt>
<trkpt lat="-27.2744378" lon="151.2900634">
  <ele>354.37</ele>
  <time>2026-09-01T20:01:59Z</time>
  <course>10.97</course>
  <speed>0.280713376952364</speed>
  <fix>3d</fix>
</trkpt>
<trkpt lat="-27.274437" lon="151.2900635">
  <ele>354.47</ele>
  <time>2026-09-01T20:01:59Z</time>
  <course>189.14</course>
  <speed>0.29</speed>
  <fix>3d</fix>
</trkpt>
<trkpt lat="-27.274438" lon="151.2900634">
  <ele>354.33</ele>
  <time>2026-09-01T20:01:59Z</time>
  <course>10.98</course>
  <speed>0.27018512172212594</speed>
  <fix>3d</fix>
</trkpt>
<trkpt lat="-27.2744375" lon="151.2900634">
  <ele>354.39</ele>
  <time>2026-09-01T20:01:59Z</time>
  <course>188.99</course>
  <speed>0.27</speed>
  <fix>3d</fix>
</trkpt>
<trkpt lat="-27.2744383" lon="151.2900634">
  <ele>354.3</ele>
  <time>2026-09-01T20:01:59Z</time>
  <course>10.98</course>
  <speed>0.2501999200639361</speed>
  <fix>3d</fix>
</trkpt>
<trkpt lat="-27.2744375" lon="151.2900634">
  <ele>354.39</ele>
  <time>2026-09-01T20:01:59Z</time>
  <course>188.99</course>
  <speed>0.27</speed>
  <fix>3d</fix>
</trkpt>
<trkpt lat="-27.2744385" lon="151.2900634">
  <ele>354.26</ele>
  <time>2026-09-01T20:01:59Z</time>
  <course>10.97</course>
  <speed>0.24</speed>
  <fix>3d</fix>
</trkpt>
<trkpt lat="-27.2744379" lon="151.2900633">
  <ele>354.32</ele>
  <time>2026-09-01T20:01:59Z</time>
  <course>188.93</course>
  <speed>0.24</speed>
  <fix>3d</fix>
</trkpt>
<trkpt lat="-27.2744386" lon="151.2900634">
  <ele>354.23</ele>
  <time>2026-09-01T20:01:59Z</time>
  <course>10.95</course>
  <speed>0.22</speed>
  <fix>3d</fix>
</trkpt>
<trkpt lat="-27.2744379" lon="151.2900633">
  <ele>354.32</ele>
  <time>2026-09-01T20:01:59Z</time>
  <course>188.93</course>
  <speed>0.24</speed>
  <fix>3d</fix>
</trkpt>
<trkpt lat="-27.2744388" lon="151.2900633">
  <ele>354.19</ele>
  <time>2026-09-01T20:01:59Z</time>
  <course>10.91</course>
  <speed>0.2</speed>
  <fix>3d</fix>
</trkpt>
<trkpt lat="-27.2744384" lon="151.2900632">
  <ele>354.26</ele>
  <time>2026-09-01T20:01:59Z</time>
  <course>188.86</course>
  <speed>0.21</speed>
  <fix>3d</fix>
</trkpt>
<trkpt lat="-27.274439" lon="151.2900633">
  <ele>354.15</ele>
  <time>2026-09-01T20:01:59Z</time>
  <course>10.86</course>
  <speed>0.18</speed>
  <fix>3d</fix>
</trkpt>
<trkpt lat="-27.2744384" lon="151.2900632">
  <ele>354.26</ele>
  <time>2026-09-01T20:01:59Z</time>
  <course>188.86</course>
  <speed>0.21</speed>
  <fix>3d</fix>
</trkpt>
<trkpt lat="-27.2744391" lon="151.2900633">
  <ele>354.11</ele>
  <time>2026-09-01T20:01:59Z</time>
  <course>10.8</course>
  <speed>0.16</speed>
  <fix>3d</fix>
</trkpt>
<trkpt lat="-27.2744387" lon="151.2900632">
  <ele>354.19</ele>
  <time>2026-09-01T20:01:59Z</time>
  <course>188.72</course>
  <speed>0.18</speed>
  <fix>3d</fix>
</trkpt>
<trkpt lat="-27.2744392" lon="151.2900633">
  <ele>354.07</ele>
  <time>2026-09-01T20:01:59Z</time>
  <course>10.74</course>
  <speed>0.140356688476182</speed>
  <fix>3d</fix>
</trkpt>
<trkpt lat="-27.2744387" lon="151.2900632">
  <ele>354.19</ele>
  <time>2026-09-01T20:01:59Z</time>
  <course>188.72</course>
  <speed>0.18</speed>
  <fix>3d</fix>
</trkpt>
<trkpt lat="-27.2744393" lon="151.2900633">
  <ele>354.03</ele>
  <time>2026-09-01T20:01:59Z</time>
  <course>10.68</course>
  <speed>0.12041594578792296</speed>
  <fix>3d</fix>
</trkpt>
<trkpt lat="-27.274439" lon="151.2900632">
  <ele>354.12</ele>
  <time>2026-09-01T20:01:59Z</time>
  <course>188.47</course>
  <speed>0.14</speed>
  <fix>3d</fix>
</trkpt>
<trkpt lat="-27.2744394" lon="151.2900633">
  <ele>353.98</ele>
  <time>2026-09-01T20:01:59Z</time>
  <course>10.63</course>
  <speed>0.1019803902718557</speed>
  <fix>3d</fix>
</trkpt>
<trkpt lat="-27.274439" lon="151.2900632">
  <ele>354.12</ele>
  <time>2026-09-01T20:01:59Z</time>
  <course>188.47</course>
  <speed>0.14</speed>
  <fix>3d</fix>
</trkpt>
<trkpt lat="-27.2744395" lon="151.2900633">
  <ele>353.93</ele>
  <time>2026-09-01T20:01:59Z</time>
  <course>10.58</course>
  <speed>0.0824621125123532</speed>
  <fix>3d</fix>
</trkpt>
<trkpt lat="-27.2744392" lon="151.2900631">
  <ele>354.03</ele>
  <time>2026-09-01T20:01:59Z</time>
  <course>188.03</course>
  <speed>0.09</speed>
  <fix>3d</fix>
</trkpt>
<trkpt lat="-27.2744395" lon="151.2900633">
  <ele>353.88</ele>
  <time>2026-09-01T20:01:59Z</time>
  <course>10.54</course>
  <speed>0.05830951894845301</speed>
  <fix>3d</fix>
</trkpt>
<trkpt lat="-27.2744392" lon="151.2900631">
  <ele>354.03</ele>
  <time>2026-09-01T20:01:59Z</time>
  <course>188.03</course>
  <speed>0.09</speed>
  <fix>3d</fix>
</trkpt>
<trkpt lat="-27.2744395" lon="151.2900633">
  <ele>353.83</ele>
  <time>2026-09-01T20:01:59Z</time>
  <course>10.5</course>
  <speed>0.04242640687119285</speed>
  <fix>3d</fix>
</trkpt>
<trkpt lat="-27.2744393" lon="151.2900631">
  <ele>353.94</ele>
  <time>2026-09-01T20:01:59Z</time>
  <course>187.02</course>
  <speed>0.05</speed>
  <fix>3d</fix>
</trkpt>
<trkpt lat="-27.2744395" lon="151.2900633">
  <ele>353.78</ele>
  <time>2026-09-01T20:01:59Z</time>
  <course>10.51</course>
  <speed>0.0316227766016838</speed>
  <fix>3d</fix>
</trkpt>
<trkpt lat="-27.2744393" lon="151.2900631">
  <ele>353.94</ele>
  <time>2026-09-01T20:01:59Z</time>
  <course>187.02</course>
  <speed>0.05</speed>
  <fix>3d</fix>
</trkpt>
<trkpt lat="-27.2744395" lon="151.2900633">
  <ele>353.72</ele>
  <time>2026-09-01T20:01:59Z</time>
  <course>10.57</course>
  <speed>0.04</speed>
  <fix>3d</fix>
</trkpt>
<trkpt lat="-27.2744394" lon="151.2900631">
  <ele>353.84</ele>
  <time>2026-09-01T20:01:59Z</time>
  <course>191.5</course>
  <speed>0.0</speed>
  <fix>3d</fix>
</trkpt>
<trkpt lat="-27.2744395" lon="151.2900633">
  <ele>353.67</ele>
  <time>2026-09-01T20:01:59Z</time>
  <course>10.66</course>
  <speed>0.05</speed>
  <fix>3d</fix>
</trkpt>
<trkpt lat="-27.2744394" lon="151.2900631">
  <ele>353.84</ele>
  <time>2026-09-01T20:01:59Z</time>
  <course>191.5</course>
  <speed>0.0</speed>
  <fix>3d</fix>
</trkpt>
<trkpt lat="-27.2744394" lon="151.2900633">
  <ele>353.62</ele>
  <time>2026-09-01T20:01:59Z</time>
  <course>10.74</course>
  <speed>0.06403124237432849</speed>
  <fix>3d</fix>
</trkpt>
<trkpt lat="-27.2744394" lon="151.2900631">
  <ele>353.73</ele>
  <time>2026-09-01T20:01:59Z</time>
  <course>0.08</course>
  <speed>0.04</speed>
  <fix>3d</fix>
</trkpt>
<trkpt lat="-27.2744393" lon="151.2900633">
  <ele>353.56</ele>
  <time>2026-09-01T20:01:59Z</time>
  <course>10.83</course>
  <speed>0.08062257748298549</speed>
  <fix>3d</fix>
</trkpt>
<trkpt lat="-27.2744394" lon="151.2900631">
  <ele>353.73</ele>
  <time>2026-09-01T20:01:59Z</time>
  <course>0.08</course>
  <speed>0.04</speed>
  <fix>3d</fix>
</trkpt>
<trkpt lat="-27.2744393" lon="151.2900633">
  <ele>353.51</ele>
  <time>2026-09-01T20:01:59Z</time>
  <course>10.89</course>
  <speed>0.09848857801796104</speed>
  <fix>3d</fix>
</trkpt>
<trkpt lat="-27.2744393" lon="151.2900631">
  <ele>353.63</ele>
  <time>2026-09-01T20:01:59Z</time>
  <course>359.93</course>
  <speed>0.08</speed>
  <fix>3d</fix>
</trkpt>
<trkpt lat="-27.2744392" lon="151.2900634">
  <ele>353.46</ele>
  <time>2026-09-01T20:01:59Z</time>
  <course>10.92</course>
  <speed>0.1264911064067352</speed>
  <fix>3d</fix>
</trkpt>
<trkpt lat="-27.2744393" lon="151.2900631">
  <ele>353.63</ele>
  <time>2026-09-01T20:01:59Z</time>
  <course>359.93</course>
  <speed>0.08</speed>
  <fix>3d</fix>
</trkpt>
<trkpt lat="-27.2744391" lon="151.2900634">
  <ele>353.41</ele>
  <time>2026-09-01T20:01:59Z</time>
  <course>10.93</course>
  <speed>0.14560219778561037</speed>
  <fix>3d</fix>
</trkpt>
<trkpt lat="-27.2744391" lon="151.2900631">
  <ele>353.52</ele>
  <time>2026-09-01T20:01:59Z</time>
  <course>359.88</course>
  <speed>0.13</speed>
  <fix>3d</fix>
</trkpt>
<trkpt lat="-27.2744389" lon="151.2900634">
  <ele>353.35</ele>
  <time>2026-09-01T20:01:59Z</time>
  <course>10.92</course>
  <speed>0.15524174696260024</speed>
  <fix>3d</fix>
</trkpt>
<trkpt lat="-27.2744391" lon="151.2900631">
  <ele>353.52</ele>
  <time>2026-09-01T20:01:59Z</time>
  <course>359.88</course>
  <speed>0.13</speed>
  <fix>3d</fix>
</trkpt>
<trkpt lat="-27.2744388" lon="151.2900634">
  <ele>353.3</ele>
  <time>2026-09-01T20:01:59Z</time>
  <course>10.89</course>
  <speed>0.17464249196572978</speed>
  <fix>3d</fix>
</trkpt>
<trkpt lat="-27.2744389" lon="151.2900631">
  <ele>353.41</ele>
  <time>2026-09-01T20:01:59Z</time>
  <course>359.79</course>
  <speed>0.17</speed>
  <fix>3d</fix>
</trkpt>
<trkpt lat="-27.2744386" lon="151.2900634">
  <ele>353.25</ele>
  <time>2026-09-01T20:01:59Z</time>
  <course>10.86</course>
  <speed>0.194164878389476</speed>
  <fix>3d</fix>
</trkpt>
<trkpt lat="-27.2744389" lon="151.2900631">
  <ele>353.41</ele>
  <time>2026-09-01T20:01:59Z</time>
  <course>359.79</course>
  <speed>0.17</speed>
  <fix>3d</fix>
</trkpt>
<trkpt lat="-27.2744384" lon="151.2900634">
  <ele>353.2</ele>
  <time>2026-09-01T20:01:59Z</time>
  <course>10.82</course>
  <speed>0.21377558326431947</speed>
  <fix>3d</fix>
</trkpt>
<trkpt lat="-27.2744385" lon="151.2900631">
  <ele>353.32</ele>
  <time>2026-09-01T20:01:59Z</time>
  <course>359.72</course>
  <speed>0.21</speed>
  <fix>3d</fix>
</trkpt>
<trkpt lat="-27.2744381" lon="151.2900634">
  <ele>353.16</ele>
  <time>2026-09-01T20:01:59Z</time>
  <course>10.8</course>
  <speed>0.223606797749979</speed>
  <fix>3d</fix>
</trkpt>
<trkpt lat="-27.2744385" lon="151.2900631">
  <ele>353.32</ele>
  <time>2026-09-01T20:01:59Z</time>
  <course>359.72</course>
  <speed>0.21</speed>
  <fix>3d</fix>
</trkpt>
<trkpt lat="-27.2744379" lon="151.2900634">
  <ele>353.11</ele>
  <time>2026-09-01T20:01:59Z</time>
  <course>10.77</course>
  <speed>0.24331050121192876</speed>
  <fix>3d</fix>
</trkpt>
<trkpt lat="-27.2744381" lon="151.2900631">
  <ele>353.22</ele>
  <time>2026-09-01T20:01:59Z</time>
  <course>359.78</course>
  <speed>0.24</speed>
  <fix>3d</fix>
</trkpt>
<trkpt lat="-27.2744377" lon="151.2900634">
  <ele>353.06</ele>
  <time>2026-09-01T20:01:59Z</time>
  <course>10.77</course>
  <speed>0.25317977802344327</speed>
  <fix>3d</fix>
</trkpt>
<trkpt lat="-27.2744381" lon="151.2900631">
  <ele>353.22</ele>
  <time>2026-09-01T20:01:59Z</time>
  <course>359.78</course>
  <speed>0.24</speed>
  <fix>3d</fix>
</trkpt>
<trkpt lat="-27.2744374" lon="151.2900634">
  <ele>353.02</ele>
  <time>2026-09-01T20:01:59Z</time>
  <course>10.76</course>
  <speed>0.26305892875931813</speed>
  <fix>3d</fix>
</trkpt>
<trkpt lat="-27.2744376" lon="151.2900631">
  <ele>353.13</ele>
  <time>2026-09-01T20:01:59Z</time>
  <course>359.98</course>
  <speed>0.27</speed>
  <fix>3d</fix>
</trkpt>
<trkpt lat="-27.2744371" lon="151.2900634">
  <ele>352.97</ele>
  <time>2026-09-01T20:01:59Z</time>
  <course>10.77</course>
  <speed>0.27294688127912364</speed>
  <fix>3d</fix>
</trkpt>
<trkpt lat="-27.2744376" lon="151.2900631">
  <ele>353.13</ele>
  <time>2026-09-01T20:01:59Z</time>
  <course>359.98</course>
  <speed>0.27</speed>
  <fix>3d</fix>
</trkpt>
<trkpt lat="-27.2744369" lon="151.2900634">
  <ele>352.92</ele>
  <time>2026-09-01T20:01:59Z</time>
  <course>10.78</course>
  <speed>0.282842712474619</speed>
  <fix>3d</fix>
</trkpt>
<trkpt lat="-27.2744371" lon="151.2900631">
  <ele>353.03</ele>
  <time>2026-09-01T20:01:59Z</time>
  <course>0.23</course>
  <speed>0.3</speed>
  <fix>3d</fix>
</trkpt>
<trkpt lat="-27.2744366" lon="151.2900634">
  <ele>352.87</ele>
  <time>2026-09-01T20:01:59Z</time>
  <course>10.79</course>
  <speed>0.29274562336608895</speed>
  <fix>3d</fix>
</trkpt>
<trkpt lat="-27.2744371" lon="151.2900631">
  <ele>353.03</ele>
  <time>2026-09-01T20:01:59Z</time>
  <course>0.23</course>
  <speed>0.3</speed>
  <fix>3d</fix>
</trkpt>
<trkpt lat="-27.2744363" lon="151.2900634">
  <ele>352.82</ele>
  <time>2026-09-01T20:01:59Z</time>
  <course>10.8</course>
  <speed>0.29274562336608895</speed>
  <fix>3d</fix>
</trkpt>
<trkpt lat="-27.2744366" lon="151.2900631">
  <ele>352.94</ele>
  <time>2026-09-01T20:01:59Z</time>
  <course>0.54</course>
  <speed>0.32</speed>
  <fix>3d</fix>
</trkpt>
<trkpt lat="-27.274436" lon="151.2900634">
  <ele>352.77</ele>
  <time>2026-09-01T20:01:59Z</time>
  <course>10.81</course>
  <speed>0.3026549190084311</speed>
  <fix>3d</fix>
</trkpt>
<trkpt lat="-27.2744366" lon="151.2900631">
  <ele>352.94</ele>
  <time>2026-09-01T20:01:59Z</time>
  <course>0.54</course>
  <speed>0.32</speed>
  <fix>3d</fix>
</trkpt>
<trkpt lat="-27.2744357" lon="151.2900634">
  <ele>352.73</ele>
  <time>2026-09-01T20:01:59Z</time>
  <course>10.81</course>
  <speed>0.3026549190084311</speed>
  <fix>3d</fix>
</trkpt>
<trkpt lat="-27.274436" lon="151.2900631">
  <ele>352.85</ele>
  <time>2026-09-01T20:01:59Z</time>
  <course>0.94</course>
  <speed>0.33</speed>
  <fix>3d</fix>
</trkpt>
<trkpt lat="-27.2744354" lon="151.2900634">
  <ele>352.68</ele>
  <time>2026-09-01T20:01:59Z</time>
  <course>10.82</course>
  <speed>0.3026549190084311</speed>
  <fix>3d</fix>
</trkpt>
<trkpt lat="-27.274436" lon="151.2900631">
  <ele>352.85</ele>
  <time>2026-09-01T20:01:59Z</time>
  <course>0.94</course>
  <speed>0.33</speed>
  <fix>3d</fix>
</trkpt>
<trkpt lat="-27.2744351" lon="151.2900634">
  <ele>352.63</ele>
  <time>2026-09-01T20:01:59Z</time>
  <course>10.82</course>
  <speed>0.3026549190084311</speed>
  <fix>3d</fix>
</trkpt>
<trkpt lat="-27.2744354" lon="151.2900631">
  <ele>352.76</ele>
  <time>2026-09-01T20:01:59Z</time>
  <course>1.48</course>
  <speed>0.34</speed>
  <fix>3d</fix>
</trkpt>
<trkpt lat="-27.2744348" lon="151.2900634">
  <ele>352.58</ele>
  <time>2026-09-01T20:01:59Z</time>
  <course>10.83</course>
  <speed>0.3026549190084311</speed>
  <fix>3d</fix>
</trkpt>
<trkpt lat="-27.2744354" lon="151.2900631">
  <ele>352.76</ele>
  <time>2026-09-01T20:01:59Z</time>
  <course>1.48</course>
  <speed>0.34</speed>
  <fix>3d</fix>
</trkpt>
<trkpt lat="-27.2744345" lon="151.2900634">
  <ele>352.53</ele>
  <time>2026-09-01T20:01:59Z</time>
  <course>10.83</course>
  <speed>0.3026549190084311</speed>
  <fix>3d</fix>
</trkpt>
<trkpt lat="-27.2744348" lon="151.2900631">
  <ele>352.65</ele>
  <time>2026-09-01T20:01:59Z</time>
  <course>2.11</course>
  <speed>0.34</speed>
  <fix>3d</fix>
</trkpt>
<trkpt lat="-27.2744342" lon="151.2900634">
  <ele>352.48</ele>
  <time>2026-09-01T20:01:59Z</time>
  <course>10.83</course>
  <speed>0.29274562336608895</speed>
  <fix>3d</fix>
</trkpt>
<trkpt lat="-27.2744348" lon="151.2900631">
  <ele>352.65</ele>
  <time>2026-09-01T20:01:59Z</time>
  <course>2.11</course>
  <speed>0.34</speed>
  <fix>3d</fix>
</trkpt>
<trkpt lat="-27.2744339" lon="151.2900634">
  <ele>352.43</ele>
  <time>2026-09-01T20:01:59Z</time>
  <course>10.83</course>
  <speed>0.29274562336608895</speed>
  <fix>3d</fix>
</trkpt>
<trkpt lat="-27.2744342" lon="151.2900631">
  <ele>352.56</ele>
  <time>2026-09-01T20:01:59Z</time>
  <course>2.73</course>
  <speed>0.34</speed>
  <fix>3d</fix>
</trkpt>
<trkpt lat="-27.2744336" lon="151.2900635">
  <ele>352.38</ele>
  <time>2026-09-01T20:01:59Z</time>
  <course>10.84</course>
  <speed>0.282842712474619</speed>
  <fix>3d</fix>
</trkpt>
<trkpt lat="-27.2744342" lon="151.2900631">
  <ele>352.56</ele>
  <time>2026-09-01T20:01:59Z</time>
  <course>2.73</course>
  <speed>0.34</speed>
  <fix>3d</fix>
</trkpt>
<trkpt lat="-27.2744333" lon="151.2900635">
  <ele>352.33</ele>
  <time>2026-09-01T20:01:59Z</time>
  <course>10.85</course>
  <speed>0.27294688127912364</speed>
  <fix>3d</fix>
</trkpt>
<trkpt lat="-27.2744336" lon="151.2900631">
  <ele>352.46</ele>
  <time>2026-09-01T20:01:59Z</time>
  <course>3.19</course>
  <speed>0.33</speed>
  <fix>3d</fix>
</trkpt>
<trkpt lat="-27.2744331" lon="151.2900635">
  <ele>352.28</ele>
  <time>2026-09-01T20:01:59Z</time>
  <course>10.87</course>
  <speed>0.26305892875931813</speed>
  <fix>3d</fix>
</trkpt>
<trkpt lat="-27.2744336" lon="151.2900631">
  <ele>352.46</ele>
  <time>2026-09-01T20:01:59Z</time>
  <course>3.19</course>
  <speed>0.33</speed>
  <fix>3d</fix>
</trkpt>
<trkpt lat="-27.2744328" lon="151.2900635">
  <ele>352.23</ele>
  <time>2026-09-01T20:01:59Z</time>
  <course>10.89</course>
  <speed>0.25317977802344327</speed>
  <fix>3d</fix>
</trkpt>
<trkpt lat="-27.274433" lon="151.2900632">
  <ele>352.36</ele>
  <time>2026-09-01T20:01:59Z</time>
  <course>3.64</course>
  <speed>0.31</speed>
  <fix>3d</fix>
</trkpt>
<trkpt lat="-27.2744326" lon="151.2900635">
  <ele>352.17</ele>
  <time>2026-09-01T20:01:59Z</time>
  <course>10.91</course>
  <speed>0.24331050121192876</speed>
  <fix>3d</fix>
</trkpt>
<trkpt lat="-27.274433" lon="151.2900632">
  <ele>352.36</ele>
  <time>2026-09-01T20:01:59Z</time>
  <course>3.64</course>
  <speed>0.31</speed>
  <fix>3d</fix>
</trkpt>
<trkpt lat="-27.2744323" lon="151.2900635">
  <ele>352.12</ele>
  <time>2026-09-01T20:01:59Z</time>
  <course>10.92</course>
  <speed>0.23345235059857505</speed>
  <fix>3d</fix>
</trkpt>
<trkpt lat="-27.2744324" lon="151.2900632">
  <ele>352.26</ele>
  <time>2026-09-01T20:01:59Z</time>
  <course>4.3</course>
  <speed>0.29</speed>
  <fix>3d</fix>
</trkpt>
<trkpt lat="-27.2744321" lon="151.2900635">
  <ele>352.07</ele>
  <time>2026-09-01T20:01:59Z</time>
  <course>10.92</course>
  <speed>0.21377558326431947</speed>
  <fix>3d</fix>
</trkpt>
<trkpt lat="-27.2744324" lon="151.2900632">
  <ele>352.26</ele>
  <time>2026-09-01T20:01:59Z</time>
  <course>4.3</course>
  <speed>0.29</speed>
  <fix>3d</fix>
</trkpt>
<trkpt lat="-27.2744318" lon="151.2900635">
  <ele>352.02</ele>
  <time>2026-09-01T20:01:59Z</time>
  <course>10.92</course>
  <speed>0.2039607805437114</speed>
  <fix>3d</fix>
</trkpt>
<trkpt lat="-27.2744319" lon="151.2900632">
  <ele>352.16</ele>
  <time>2026-09-01T20:01:59Z</time>
  <course>5.15</course>
  <speed>0.27</speed>
  <fix>3d</fix>
</trkpt>
<trkpt lat="-27.2744316" lon="151.2900636">
  <ele>351.97</ele>
  <time>2026-09-01T20:01:59Z</time>
  <course>10.92</course>
  <speed>0.194164878389476</speed>
  <fix>3d</fix>
</trkpt>
<trkpt lat="-27.2744319" lon="151.2900632">
  <ele>352.16</ele>
  <time>2026-09-01T20:01:59Z</time>
  <course>5.15</course>
  <speed>0.27</speed>
  <fix>3d</fix>
</trkpt>
<trkpt lat="-27.2744314" lon="151.2900636">
  <ele>351.92</ele>
  <time>2026-09-01T20:01:59Z</time>
  <course>10.92</course>
  <speed>0.17464249196572978</speed>
  <fix>3d</fix>
</trkpt>
<trkpt lat="-27.2744315" lon="151.2900632">
  <ele>352.07</ele>
  <time>2026-09-01T20:01:59Z</time>
  <course>6.16</course>
  <speed>0.24</speed>
  <fix>3d</fix>
</trkpt>
<trkpt lat="-27.2744312" lon="151.2900636">
  <ele>351.87</ele>
  <time>2026-09-01T20:01:59Z</time>
  <course>10.93</course>
  <speed>0.1649242250247064</speed>
  <fix>3d</fix>
</trkpt>
<trkpt lat="-27.2744315" lon="151.2900632">
  <ele>352.07</ele>
  <time>2026-09-01T20:01:59Z</time>
  <course>6.16</course>
  <speed>0.24</speed>
  <fix>3d</fix>
</trkpt>
<trkpt lat="-27.2744311" lon="151.2900636">
  <ele>351.82</ele>
  <time>2026-09-01T20:01:59Z</time>
  <course>10.94</course>
  <speed>0.14560219778561037</speed>
  <fix>3d</fix>
</trkpt>
<trkpt lat="-27.2744311" lon="151.2900633">
  <ele>351.97</ele>
  <time>2026-09-01T20:01:59Z</time>
  <course>7.44</course>
  <speed>0.21</speed>
  <fix>3d</fix>
</trkpt>
<trkpt lat="-27.2744309" lon="151.2900636">
  <ele>351.77</ele>
  <time>2026-09-01T20:01:59Z</time>
  <course>10.95</course>
  <speed>0.1264911064067352</speed>
  <fix>3d</fix>
</trkpt>
<trkpt lat="-27.2744311" lon="151.2900633">
  <ele>351.97</ele>
  <time>2026-09-01T20:01:59Z</time>
  <course>7.44</course>
  <speed>0.21</speed>
  <fix>3d</fix>
</trkpt>
<trkpt lat="-27.2744308" lon="151.2900636">
  <ele>351.72</ele>
  <time>2026-09-01T20:01:59Z</time>
  <course>10.96</course>
  <speed>0.11704699910719625</speed>
  <fix>3d</fix>
</trkpt>
<trkpt lat="-27.2744306" lon="151.2900634">
  <ele>351.87</ele>
  <time>2026-09-01T20:01:59Z</time>
  <course>9.17</course>
  <speed>0.18</speed>
  <fix>3d</fix>
</trkpt>
<trkpt lat="-27.2744306" lon="151.2900637">
  <ele>351.68</ele>
  <time>2026-09-01T20:01:59Z</time>
  <course>10.97</course>
  <speed>0.09848857801796104</speed>
  <fix>3d</fix>
</trkpt>
<trkpt lat="-27.2744306" lon="151.2900634">
  <ele>351.87</ele>
  <time>2026-09-01T20:01:59Z</time>
  <course>9.17</course>
  <speed>0.18</speed>
  <fix>3d</fix>
</trkpt>
<trkpt lat="-27.2744305" lon="151.2900637">
  <ele>351.63</ele>
  <time>2026-09-01T20:01:59Z</time>
  <course>10.97</course>
  <speed>0.08944271909999159</speed>
  <fix>3d</fix>
</trkpt>
<trkpt lat="-27.2744304" lon="151.2900635">
  <ele>351.77</ele>
  <time>2026-09-01T20:01:59Z</time>
  <course>11.55</course>
  <speed>0.15</speed>
  <fix>3d</fix>
</trkpt>
<trkpt lat="-27.2744304" lon="151.2900637">
  <ele>351.58</ele>
  <time>2026-09-01T20:01:59Z</time>
  <course>10.98</course>
  <speed>0.07211102550927978</speed>
  <fix>3d</fix>
</trkpt>
<trkpt lat="-27.2744304" lon="151.2900635">
  <ele>351.77</ele>
  <time>2026-09-01T20:01:59Z</time>
  <course>11.55</course>
  <speed>0.15</speed>
  <fix>3d</fix>
</trkpt>
<trkpt lat="-27.2744303" lon="151.2900637">
  <ele>351.53</ele>
  <time>2026-09-01T20:01:59Z</time>
  <course>10.99</course>
  <speed>0.06403124237432849</speed>
  <fix>3d</fix>
</trkpt>
<trkpt lat="-27.2744302" lon="151.2900635">
  <ele>351.68</ele>
  <time>2026-09-01T20:01:59Z</time>
  <course>15.13</course>
  <speed>0.12</speed>
  <fix>3d</fix>
</trkpt>
<trkpt lat="-27.2744303" lon="151.2900638">
  <ele>351.48</ele>
  <time>2026-09-01T20:01:59Z</time>
  <course>11.0</course>
  <speed>0.05</speed>
  <fix>3d</fix>
</trkpt>
<trkpt lat="-27.2744302" lon="151.2900635">
  <ele>351.68</ele>
  <time>2026-09-01T20:01:59Z</time>
  <course>15.13</course>
  <speed>0.12</speed>
  <fix>3d</fix>
</trkpt>
<trkpt lat="-27.2744302" lon="151.2900638">
  <ele>351.43</ele>
  <time>2026-09-01T20:01:59Z</time>
  <course>11.02</course>
  <speed>0.044721359549995794</speed>
  <fix>3d</fix>
</trkpt>
<trkpt lat="-27.27443" lon="151.2900636">
  <ele>351.58</ele>
  <time>2026-09-01T20:01:59Z</time>
  <course>21.08</course>
  <speed>0.09</speed>
  <fix>3d</fix>
</trkpt>
<trkpt lat="-27.2744302" lon="151.2900638">
  <ele>351.38</ele>
  <time>2026-09-01T20:01:59Z</time>
  <course>11.04</course>
  <speed>0.04</speed>
  <fix>3d</fix>
</trkpt>
<trkpt lat="-27.27443" lon="151.2900636">
  <ele>351.58</ele>
  <time>2026-09-01T20:01:59Z</time>
  <course>21.08</course>
  <speed>0.09</speed>
  <fix>3d</fix>
</trkpt>
<trkpt lat="-27.2744301" lon="151.2900638">
  <ele>351.33</ele>
  <time>2026-09-01T20:01:59Z</time>
  <course>11.05</course>
  <speed>0.04</speed>
  <fix>3d</fix>
</trkpt>
<trkpt lat="-27.2744298" lon="151.2900637">
  <ele>351.48</ele>
  <time>2026-09-01T20:01:59Z</time>
  <course>31.12</course>
  <speed>0.06</speed>
  <fix>3d</fix>
</trkpt>
<trkpt lat="-27.2744301" lon="151.2900639">
  <ele>351.28</ele>
  <time>2026-09-01T20:01:59Z</time>
  <course>11.07</course>
  <speed>0.0412310562561766</speed>
  <fix>3d</fix>
</trkpt>
<trkpt lat="-27.2744298" lon="151.2900637">
  <ele>351.48</ele>
  <time>2026-09-01T20:01:59Z</time>
  <course>31.12</course>
  <speed>0.06</speed>
  <fix>3d</fix>
</trkpt>
<trkpt lat="-27.2744301" lon="151.2900639">
  <ele>351.23</ele>
  <time>2026-09-01T20:01:59Z</time>
  <course>11.1</course>
  <speed>0.05</speed>
  <fix>3d</fix>
</trkpt>
<trkpt lat="-27.2744298" lon="151.2900637">
  <ele>351.39</ele>
  <time>2026-09-01T20:01:59Z</time>
  <course>50.22</course>
  <speed>0.04</speed>
  <fix>3d</fix>
</trkpt>
<trkpt lat="-27.2744301" lon="151.2900639">
  <ele>351.18</ele>
  <time>2026-09-01T20:01:59Z</time>
  <course>11.14</course>
  <speed>0.0565685424949238</speed>
  <fix>3d</fix>
</trkpt>
<trkpt lat="-27.2744298" lon="151.2900637">
  <ele>351.39</ele>
  <time>2026-09-01T20:01:59Z</time>
  <course>50.22</course>
  <speed>0.04</speed>
  <fix>3d</fix>
</trkpt>
<trkpt lat="-27.2744301" lon="151.2900639">
  <ele>351.12</ele>
  <time>2026-09-01T20:01:59Z</time>
  <course>11.19</course>
  <speed>0.05830951894845301</speed>
  <fix>3d</fix>
</trkpt>
<trkpt lat="-27.2744298" lon="151.2900637">
  <ele>351.28</ele>
  <time>2026-09-01T20:01:59Z</time>
  <course>90.14</course>
  <speed>0.02</speed>
  <fix>3d</fix>
</trkpt>
<trkpt lat="-27.2744302" lon="151.290064">
  <ele>351.07</ele>
  <time>2026-09-01T20:01:59Z</time>
  <course>11.24</course>
  <speed>0.0670820393249937</speed>
  <fix>3d</fix>
</trkpt>
<trkpt lat="-27.2744298" lon="151.2900637">
  <ele>351.28</ele>
  <time>2026-09-01T20:01:59Z</time>
  <course>90.14</course>
  <speed>0.02</speed>
  <fix>3d</fix>
</trkpt>
<trkpt lat="-27.2744301" lon="151.290064">
  <ele>351.02</ele>
  <time>2026-09-01T20:01:59Z</time>
  <course>11.3</course>
  <speed>0.07615773105863909</speed>
  <fix>3d</fix>
</trkpt>
<trkpt lat="-27.2744298" lon="151.2900638">
  <ele>351.19</ele>
  <time>2026-09-01T20:01:59Z</time>
  <course>134.09</course>
  <speed>0.03</speed>
  <fix>3d</fix>
</trkpt>
<trkpt lat="-27.2744301" lon="151.290064">
  <ele>350.97</ele>
  <time>2026-09-01T20:01:59Z</time>
  <course>11.34</course>
  <speed>0.0824621125123532</speed>
  <fix>3d</fix>
</trkpt>
<trkpt lat="-27.2744298" lon="151.2900638">
  <ele>351.19</ele>
  <time>2026-09-01T20:01:59Z</time>
  <course>134.09</course>
  <speed>0.03</speed>
  <fix>3d</fix>
</trkpt>
<trkpt lat="-27.2744302" lon="151.290064">
  <ele>350.93</ele>
  <time>2026-09-01T20:01:59Z</time>
  <course>11.37</course>
  <speed>0.09219544457292887</speed>
  <fix>3d</fix>
</trkpt>
<trkpt lat="-27.2744298" lon="151.2900639">
  <ele>351.09</ele>
  <time>2026-09-01T20:01:59Z</time>
  <course>156.77</course>
  <speed>0.04</speed>
  <fix>3d</fix>
</trkpt>
<trkpt lat="-27.2744302" lon="151.290064">
  <ele>350.88</ele>
  <time>2026-09-01T20:01:59Z</time>
  <course>11.39</course>
  <speed>0.09219544457292887</speed>
  <fix>3d</fix>
</trkpt>
<trkpt lat="-27.2744298" lon="151.2900639">
  <ele>351.09</ele>
  <time>2026-09-01T20:01:59Z</time>
  <course>156.77</course>
  <speed>0.04</speed>
  <fix>3d</fix>
</trkpt>
<trkpt lat="-27.2744303" lon="151.290064">
  <ele>350.83</ele>
  <time>2026-09-01T20:01:59Z</time>
  <course>11.4</course>
  <speed>0.1019803902718557</speed>
  <fix>3d</fix>
</trkpt>
<trkpt lat="-27.2744298" lon="151.2900639">
  <ele>351.0</ele>
  <time>2026-09-01T20:01:59Z</time>
  <course>167.51</course>
  <speed>0.06</speed>
  <fix>3d</fix>
</trkpt>
<trkpt lat="-27.2744303" lon="151.290064">
  <ele>350.78</ele>
  <time>2026-09-01T20:01:59Z</time>
  <course>11.41</course>
  <speed>0.11045361017187261</speed>
  <fix>3d</fix>
</trkpt>
<trkpt lat="-27.2744298" lon="151.2900639">
  <ele>351.0</ele>
  <time>2026-09-01T20:01:59Z</time>
  <course>167.51</course>
  <speed>0.06</speed>
  <fix>3d</fix>
</trkpt>
<trkpt lat="-27.2744304" lon="151.290064">
  <ele>350.73</ele>
  <time>2026-09-01T20:01:59Z</time>
  <course>11.4</course>
  <speed>0.11045361017187261</speed>
  <fix>3d</fix>
</trkpt>
<trkpt lat="-27.2744299" lon="151.290064">
  <ele>350.9</ele>
  <time>2026-09-01T20:01:59Z</time>
  <course>173.47</course>
  <speed>0.07</speed>
  <fix>3d</fix>
</trkpt>
<trkpt lat="-27.2744305" lon="151.290064">
  <ele>350.68</ele>
  <time>2026-09-01T20:01:59Z</time>
  <course>11.39</course>
  <speed>0.11045361017187261</speed>
  <fix>3d</fix>
</trkpt>
<trkpt lat="-27.2744299" lon="151.290064">
  <ele>350.9</ele>
  <time>2026-09-01T20:01:59Z</time>
  <course>173.47</course>
  <speed>0.07</speed>
  <fix>3d</fix>
</trkpt>
<trkpt lat="-27.2744305" lon="151.290064">
  <ele>350.64</ele>
  <time>2026-09-01T20:01:59Z</time>
  <course>11.39</course>
  <speed>0.12041594578792296</speed>
  <fix>3d</fix>
</trkpt>
<trkpt lat="-27.27443" lon="151.290064">
  <ele>350.81</ele>
  <time>2026-09-01T20:01:59Z</time>
  <course>177.47</course>
  <speed>0.08</speed>
  <fix>3d</fix>
</trkpt>
<trkpt lat="-27.2744306" lon="151.290064">
  <ele>350.59</ele>
  <time>2026-09-01T20:01:59Z</time>
  <course>11.38</course>
  <speed>0.12</speed>
  <fix>3d</fix>
</trkpt>
<trkpt lat="-27.27443" lon="151.290064">
  <ele>350.81</ele>
  <time>2026-09-01T20:01:59Z</time>
  <course>177.47</course>
  <speed>0.08</speed>
  <fix>3d</fix>
</trkpt>
<trkpt lat="-27.2744307" lon="151.290064">
  <ele>350.54</ele>
  <time>2026-09-01T20:01:59Z</time>
  <course>11.39</course>
  <speed>0.12</speed>
  <fix>3d</fix>
</trkpt>
<trkpt lat="-27.2744303" lon="151.290064">
  <ele>350.71</ele>
  <time>2026-09-01T20:01:59Z</time>
  <course>180.33</course>
  <speed>0.09</speed>
  <fix>3d</fix>
</trkpt>
<trkpt lat="-27.2744308" lon="151.290064">
  <ele>350.49</ele>
  <time>2026-09-01T20:01:59Z</time>
  <course>11.39</course>
  <speed>0.12</speed>
  <fix>3d</fix>
</trkpt>
<trkpt lat="-27.2744303" lon="151.290064">
  <ele>350.71</ele>
  <time>2026-09-01T20:01:59Z</time>
  <course>180.33</course>
  <speed>0.09</speed>
  <fix>3d</fix>
</trkpt>
<trkpt lat="-27.2744309" lon="151.290064">
  <ele>350.44</ele>
  <time>2026-09-01T20:01:59Z</time>
  <course>11.4</course>
  <speed>0.12</speed>
  <fix>3d</fix>
</trkpt>
<trkpt lat="-27.2744305" lon="151.290064">
  <ele>350.61</ele>
  <time>2026-09-01T20:01:59Z</time>
  <course>182.61</course>
  <speed>0.1</speed>
  <fix>3d</fix>
</trkpt>
<trkpt lat="-27.274431" lon="151.290064">
  <ele>350.38</ele>
  <time>2026-09-01T20:01:59Z</time>
  <course>11.4</course>
  <speed>0.12</speed>
  <fix>3d</fix>
</trkpt>
<trkpt lat="-27.2744305" lon="151.290064">
  <ele>350.61</ele>
  <time>2026-09-01T20:01:59Z</time>
  <course>182.61</course>
  <speed>0.1</speed>
  <fix>3d</fix>
</trkpt>
<trkpt lat="-27.274431" lon="151.290064">
  <ele>350.33</ele>
  <time>2026-09-01T20:01:59Z</time>
  <course>11.41</course>
  <speed>0.12</speed>
  <fix>3d</fix>
</trkpt>
<trkpt lat="-27.2744306" lon="151.290064">
  <ele>350.51</ele>
  <time>2026-09-01T20:01:59Z</time>
  <course>184.68</course>
  <speed>0.1</speed>
  <fix>3d</fix>
</trkpt>
<trkpt lat="-27.2744311" lon="151.290064">
  <ele>350.28</ele>
  <time>2026-09-01T20:01:59Z</time>
  <course>11.41</course>
  <speed>0.12</speed>
  <fix>3d</fix>
</trkpt>
<trkpt lat="-27.2744306" lon="151.290064">
  <ele>350.51</ele>
  <time>2026-09-01T20:01:59Z</time>
  <course>184.68</course>
  <speed>0.1</speed>
  <fix>3d</fix>
</trkpt>
<trkpt lat="-27.2744312" lon="151.290064">
  <ele>350.23</ele>
  <time>2026-09-01T20:01:59Z</time>
  <course>11.41</course>
  <speed>0.12</speed>
  <fix>3d</fix>
</trkpt>
<trkpt lat="-27.2744308" lon="151.290064">
  <ele>350.4</ele>
  <time>2026-09-01T20:01:59Z</time>
  <course>186.29</course>
  <speed>0.1</speed>
  <fix>3d</fix>
</trkpt>
<trkpt lat="-27.2744313" lon="151.290064">
  <ele>350.18</ele>
  <time>2026-09-01T20:01:59Z</time>
  <course>11.4</course>
  <speed>0.12</speed>
  <fix>3d</fix>
</trkpt>
<trkpt lat="-27.2744308" lon="151.290064">
  <ele>350.4</ele>
  <time>2026-09-01T20:01:59Z</time>
  <course>186.29</course>
  <speed>0.1</speed>
  <fix>3d</fix>
</trkpt>
<trkpt lat="-27.2744314" lon="151.290064">
  <ele>350.13</ele>
  <time>2026-09-01T20:01:59Z</time>
  <course>11.4</course>
  <speed>0.12</speed>
  <fix>3d</fix>
</trkpt>
<trkpt lat="-27.274431" lon="151.290064">
  <ele>350.31</ele>
  <time>2026-09-01T20:01:59Z</time>
  <course>187.47</course>
  <speed>0.1</speed>
  <fix>3d</fix>
</trkpt>
<trkpt lat="-27.2744315" lon="151.290064">
  <ele>350.08</ele>
  <time>2026-09-01T20:01:59Z</time>
  <course>11.38</course>
  <speed>0.11</speed>
  <fix>3d</fix>
</trkpt>
<trkpt lat="-27.274431" lon="151.290064">
  <ele>350.31</ele>
  <time>2026-09-01T20:01:59Z</time>
  <course>187.47</course>
  <speed>0.1</speed>
  <fix>3d</fix>
</trkpt>
<trkpt lat="-27.2744315" lon="151.290064">
  <ele>350.03</ele>
  <time>2026-09-01T20:01:59Z</time>
  <course>11.37</course>
  <speed>0.11</speed>
  <fix>3d</fix>
</trkpt>
<trkpt lat="-27.2744312" lon="151.290064">
  <ele>350.21</ele>
  <time>2026-09-01T20:01:59Z</time>
  <course>188.57</course>
  <speed>0.1</speed>
  <fix>3d</fix>
</trkpt>
<trkpt lat="-27.2744316" lon="151.290064">
  <ele>349.98</ele>
  <time>2026-09-01T20:01:59Z</time>
  <course>11.36</course>
  <speed>0.11</speed>
  <fix>3d</fix>
</trkpt>
<trkpt lat="-27.2744312" lon="151.290064">
  <ele>350.21</ele>
  <time>2026-09-01T20:01:59Z</time>
  <course>188.57</course>
  <speed>0.1</speed>
  <fix>3d</fix>
</trkpt>
<trkpt lat="-27.2744317" lon="151.290064">
  <ele>349.93</ele>
  <time>2026-09-01T20:01:59Z</time>
  <course>11.36</course>
  <speed>0.1</speed>
  <fix>3d</fix>
</trkpt>
<trkpt lat="-27.2744314" lon="151.2900639">
  <ele>350.12</ele>
  <time>2026-09-01T20:01:59Z</time>
  <course>189.93</course>
  <speed>0.09</speed>
  <fix>3d</fix>
</trkpt>
<trkpt lat="-27.2744318" lon="151.290064">
  <ele>349.88</ele>
  <time>2026-09-01T20:01:59Z</time>
  <course>11.36</course>
  <speed>0.1</speed>
  <fix>3d</fix>
</trkpt>
<trkpt lat="-27.2744314" lon="151.2900639">
  <ele>350.12</ele>
  <time>2026-09-01T20:01:59Z</time>
  <course>189.93</course>
  <speed>0.09</speed>
  <fix>3d</fix>
</trkpt>
<trkpt lat="-27.2744318" lon="151.290064">
  <ele>349.83</ele>
  <time>2026-09-01T20:01:59Z</time>
  <course>11.33</course>
  <speed>0.1</speed>
  <fix>3d</fix>
</trkpt>
<trkpt lat="-27.2744315" lon="151.2900639">
  <ele>350.02</ele>
  <time>2026-09-01T20:01:59Z</time>
  <course>191.07</course>
  <speed>0.09</speed>
  <fix>3d</fix>
</trkpt>
<trkpt lat="-27.2744319" lon="151.290064">
  <ele>349.78</ele>
  <time>2026-09-01T20:01:59Z</time>
  <course>11.29</course>
  <speed>0.09</speed>
  <fix>3d</fix>
</trkpt>
<trkpt lat="-27.2744315" lon="151.2900639">
  <ele>350.02</ele>
  <time>2026-09-01T20:01:59Z</time>
  <course>191.07</course>
  <speed>0.09</speed>
  <fix>3d</fix>
</trkpt>
<trkpt lat="-27.274432" lon="151.290064">
  <ele>349.73</ele>
  <time>2026-09-01T20:01:59Z</time>
  <course>11.25</course>
  <speed>0.09</speed>
  <fix>3d</fix>
</trkpt>
<trkpt lat="-27.2744317" lon="151.2900639">
  <ele>349.91</ele>
  <time>2026-09-01T20:01:59Z</time>
  <course>191.43</course>
  <speed>0.08</speed>
  <fix>3d</fix>
</trkpt>
<trkpt lat="-27.274432" lon="151.290064">
  <ele>349.68</ele>
  <time>2026-09-01T20:01:59Z</time>
  <course>11.21</course>
  <speed>0.08</speed>
  <fix>3d</fix>
</trkpt>
<trkpt lat="-27.2744317" lon="151.2900639">
  <ele>349.91</ele>
  <time>2026-09-01T20:01:59Z</time>
  <course>191.43</course>
  <speed>0.08</speed>
  <fix>3d</fix>
</trkpt>
<trkpt lat="-27.2744321" lon="151.290064">
  <ele>349.63</ele>
  <time>2026-09-01T20:01:59Z</time>
  <course>11.19</course>
  <speed>0.08</speed>
  <fix>3d</fix>
</trkpt>
<trkpt lat="-27.2744318" lon="151.2900638">
  <ele>349.82</ele>
  <time>2026-09-01T20:01:59Z</time>
  <course>191.5</course>
  <speed>0.07</speed>
  <fix>3d</fix>
</trkpt>
<trkpt lat="-27.2744321" lon="151.290064">
  <ele>349.58</ele>
  <time>2026-09-01T20:01:59Z</time>
  <course>11.18</course>
  <speed>0.08</speed>
  <fix>3d</fix>
</trkpt>
<trkpt lat="-27.2744318" lon="151.2900638">
  <ele>349.82</ele>
  <time>2026-09-01T20:01:59Z</time>
  <course>191.5</course>
  <speed>0.07</speed>
  <fix>3d</fix>
</trkpt>
<trkpt lat="-27.2744322" lon="151.290064">
  <ele>349.53</ele>
  <time>2026-09-01T20:01:59Z</time>
  <course>11.19</course>
  <speed>0.07</speed>
  <fix>3d</fix>
</trkpt>
<trkpt lat="-27.2744319" lon="151.2900637">
  <ele>349.72</ele>
  <time>2026-09-01T20:01:59Z</time>
  <course>191.65</course>
  <speed>0.06</speed>
  <fix>3d</fix>
</trkpt>
<trkpt lat="-27.2744322" lon="151.2900639">
  <ele>349.48</ele>
  <time>2026-09-01T20:01:59Z</time>
  <course>11.19</course>
  <speed>0.07</speed>
  <fix>3d</fix>
</trkpt>
<trkpt lat="-27.2744319" lon="151.2900637">
  <ele>349.72</ele>
  <time>2026-09-01T20:01:59Z</time>
  <course>191.65</course>
  <speed>0.06</speed>
  <fix>3d</fix>
</trkpt>
<trkpt lat="-27.2744323" lon="151.2900639">
  <ele>349.43</ele>
  <time>2026-09-01T20:01:59Z</time>
  <course>11.2</course>
  <speed>0.06</speed>
  <fix>3d</fix>
</trkpt>
<trkpt lat="-27.2744321" lon="151.2900637">
  <ele>349.62</ele>
  <time>2026-09-01T20:01:59Z</time>
  <course>191.77</course>
  <speed>0.05</speed>
  <fix>3d</fix>
</trkpt>
<trkpt lat="-27.2744323" lon="151.2900639">
  <ele>349.38</ele>
  <time>2026-09-01T20:01:59Z</time>
  <course>11.19</course>
  <speed>0.06082762530298219</speed>
  <fix>3d</fix>
</trkpt>
<trkpt lat="-27.2744321" lon="151.2900637">
  <ele>349.62</ele>
  <time>2026-09-01T20:01:59Z</time>
  <course>191.77</course>
  <speed>0.05</speed>
  <fix>3d</fix>
</trkpt>
<trkpt lat="-27.2744324" lon="151.2900639">
  <ele>349.33</ele>
  <time>2026-09-01T20:01:59Z</time>
  <course>11.19</course>
  <speed>0.05099019513592785</speed>
  <fix>3d</fix>
</trkpt>
<trkpt lat="-27.2744322" lon="151.2900637">
  <ele>349.52</ele>
  <time>2026-09-01T20:01:59Z</time>
  <course>191.95</course>
  <speed>0.05</speed>
  <fix>3d</fix>
</trkpt>
<trkpt lat="-27.2744324" lon="151.2900639">
  <ele>349.28</ele>
  <time>2026-09-01T20:01:59Z</time>
  <course>11.18</course>
  <speed>0.05099019513592785</speed>
  <fix>3d</fix>
</trkpt>
<trkpt lat="-27.2744322" lon="151.2900637">
  <ele>349.52</ele>
  <time>2026-09-01T20:01:59Z</time>
  <course>191.95</course>
  <speed>0.05</speed>
  <fix>3d</fix>
</trkpt>
<trkpt lat="-27.2744324" lon="151.2900639">
  <ele>349.23</ele>
  <time>2026-09-01T20:01:59Z</time>
  <course>11.17</course>
  <speed>0.0412310562561766</speed>
  <fix>3d</fix>
</trkpt>
<trkpt lat="-27.2744322" lon="151.2900637">
  <ele>349.41</ele>
  <time>2026-09-01T20:01:59Z</time>
  <course>192.35</course>
  <speed>0.03</speed>
  <fix>3d</fix>
</trkpt>
<trkpt lat="-27.2744324" lon="151.2900639">
  <ele>349.19</ele>
  <time>2026-09-01T20:01:59Z</time>
  <course>11.17</course>
  <speed>0.0412310562561766</speed>
  <fix>3d</fix>
</trkpt>
<trkpt lat="-27.2744322" lon="151.2900637">
  <ele>349.41</ele>
  <time>2026-09-01T20:01:59Z</time>
  <course>192.35</course>
  <speed>0.03</speed>
  <fix>3d</fix>
</trkpt>
<trkpt lat="-27.2744325" lon="151.2900639">
  <ele>349.14</ele>
  <time>2026-09-01T20:01:59Z</time>
  <course>11.16</course>
  <speed>0.0316227766016838</speed>
  <fix>3d</fix>
</trkpt>
<trkpt lat="-27.2744323" lon="151.2900637">
  <ele>349.32</ele>
  <time>2026-09-01T20:01:59Z</time>
  <course>193.36</course>
  <speed>0.02</speed>
  <fix>3d</fix>
</trkpt>
<trkpt lat="-27.2744325" lon="151.2900639">
  <ele>349.09</ele>
  <time>2026-09-01T20:01:59Z</time>
  <course>11.17</course>
  <speed>0.0316227766016838</speed>
  <fix>3d</fix>
</trkpt>
<trkpt lat="-27.2744323" lon="151.2900637">
  <ele>349.32</ele>
  <time>2026-09-01T20:01:59Z</time>
  <course>193.36</course>
  <speed>0.02</speed>
  <fix>3d</fix>
</trkpt>
<trkpt lat="-27.2744325" lon="151.2900639">
  <ele>349.04</ele>
  <time>2026-09-01T20:01:59Z</time>
  <course>11.18</course>
  <speed>0.022360679774997897</speed>
  <fix>3d</fix>
</trkpt>
<trkpt lat="-27.2744324" lon="151.2900637">
  <ele>349.22</ele>
  <time>2026-09-01T20:01:59Z</time>
  <course>195.58</course>
  <speed>0.01</speed>
  <fix>3d</fix>
</trkpt>
<trkpt lat="-27.2744325" lon="151.2900639">
  <ele>348.99</ele>
  <time>2026-09-01T20:01:59Z</time>
  <course>11.19</course>
  <speed>0.022360679774997897</speed>
  <fix>3d</fix>
</trkpt>
<trkpt lat="-27.2744324" lon="151.2900637">
  <ele>349.22</ele>
  <time>2026-09-01T20:01:59Z</time>
  <course>195.58</course>
  <speed>0.01</speed>
  <fix>3d</fix>
</trkpt>
<trkpt lat="-27.2744325" lon="151.2900639">
  <ele>348.94</ele>
  <time>2026-09-01T20:01:59Z</time>
  <course>11.19</course>
  <speed>0.022360679774997897</speed>
  <fix>3d</fix>
</trkpt>
<trkpt lat="-27.2744324" lon="151.2900637">
  <ele>349.13</ele>
  <time>2026-09-01T20:01:59Z</time>
  <course>202.23</course>
  <speed>0.0</speed>
  <fix>3d</fix>
</trkpt>
<trkpt lat="-27.2744325" lon="151.2900639">
  <ele>348.89</ele>
  <time>2026-09-01T20:01:59Z</time>
  <course>11.14</course>
  <speed>0.022360679774997897</speed>
  <fix>3d</fix>
</trkpt>
<trkpt lat="-27.2744324" lon="151.2900637">
  <ele>349.13</ele>
  <time>2026-09-01T20:01:59Z</time>
  <course>202.23</course>
  <speed>0.0</speed>
  <fix>3d</fix>
</trkpt>
<trkpt lat="-27.2744325" lon="151.2900639">
  <ele>348.84</ele>
  <time>2026-09-01T20:01:59Z</time>
  <course>11.07</course>
  <speed>0.022360679774997897</speed>
  <fix>3d</fix>
</trkpt>
<trkpt lat="-27.2744324" lon="151.2900637">
  <ele>349.03</ele>
  <time>2026-09-01T20:01:59Z</time>
  <course>32.16</course>
  <speed>0.0</speed>
  <fix>3d</fix>
</trkpt>
<trkpt lat="-27.2744325" lon="151.2900639">
  <ele>348.79</ele>
  <time>2026-09-01T20:01:59Z</time>
  <course>10.98</course>
  <speed>0.03</speed>
  <fix>3d</fix>
</trkpt>
<trkpt lat="-27.2744324" lon="151.2900637">
  <ele>349.03</ele>
  <time>2026-09-01T20:01:59Z</time>
  <course>32.16</course>
  <speed>0.0</speed>
  <fix>3d</fix>
</trkpt>
<trkpt lat="-27.2744325" lon="151.2900639">
  <ele>348.74</ele>
  <time>2026-09-01T20:01:59Z</time>
  <course>10.9</course>
  <speed>0.03</speed>
  <fix>3d</fix>
</trkpt>
<trkpt lat="-27.2744324" lon="151.2900637">
  <ele>348.93</ele>
  <time>2026-09-01T20:01:59Z</time>
  <course>36.98</course>
  <speed>0.01</speed>
  <fix>3d</fix>
</trkpt>
<trkpt lat="-27.2744325" lon="151.2900639">
  <ele>348.69</ele>
  <time>2026-09-01T20:01:59Z</time>
  <course>10.84</course>
  <speed>0.03</speed>
  <fix>3d</fix>
</trkpt>
<trkpt lat="-27.2744324" lon="151.2900637">
  <ele>348.93</ele>
  <time>2026-09-01T20:01:59Z</time>
  <course>36.98</course>
  <speed>0.01</speed>
  <fix>3d</fix>
</trkpt>
<trkpt lat="-27.2744325" lon="151.2900639">
  <ele>348.64</ele>
  <time>2026-09-01T20:01:59Z</time>
  <course>10.81</course>
  <speed>0.03</speed>
  <fix>3d</fix>
</trkpt>
<trkpt lat="-27.2744324" lon="151.2900637">
  <ele>348.83</ele>
  <time>2026-09-01T20:01:59Z</time>
  <course>38.26</course>
  <speed>0.02</speed>
  <fix>3d</fix>
</trkpt>
<trkpt lat="-27.2744325" lon="151.2900639">
  <ele>348.59</ele>
  <time>2026-09-01T20:01:59Z</time>
  <course>10.8</course>
  <speed>0.04</speed>
  <fix>3d</fix>
</trkpt>
<trkpt lat="-27.2744324" lon="151.2900637">
  <ele>348.83</ele>
  <time>2026-09-01T20:01:59Z</time>
  <course>38.26</course>
  <speed>0.02</speed>
  <fix>3d</fix>
</trkpt>
<trkpt lat="-27.2744325" lon="151.2900639">
  <ele>348.54</ele>
  <time>2026-09-01T20:01:59Z</time>
  <course>10.81</course>
  <speed>0.04</speed>
  <fix>3d</fix>
</trkpt>
<trkpt lat="-27.2744324" lon="151.2900637">
  <ele>348.72</ele>
  <time>2026-09-01T20:01:59Z</time>
  <course>37.71</course>
  <speed>0.02</speed>
  <fix>3d</fix>
</trkpt>
<trkpt lat="-27.2744325" lon="151.2900639">
  <ele>348.49</ele>
  <time>2026-09-01T20:01:59Z</time>
  <course>10.83</course>
  <speed>0.04</speed>
  <fix>3d</fix>
</trkpt>
<trkpt lat="-27.2744324" lon="151.2900637">
  <ele>348.72</ele>
  <time>2026-09-01T20:01:59Z</time>
  <course>37.71</course>
  <speed>0.02</speed>
  <fix>3d</fix>
</trkpt>
<trkpt lat="-27.2744325" lon="151.290064">
  <ele>348.44</ele>
  <time>2026-09-01T20:01:59Z</time>
  <course>10.85</course>
  <speed>0.0412310562561766</speed>
  <fix>3d</fix>
</trkpt>
<trkpt lat="-27.2744324" lon="151.2900637">
  <ele>348.63</ele>
  <time>2026-09-01T20:01:59Z</time>
  <course>36.4</course>
  <speed>0.03</speed>
  <fix>3d</fix>
</trkpt>
<trkpt lat="-27.2744324" lon="151.290064">
  <ele>348.39</ele>
  <time>2026-09-01T20:01:59Z</time>
  <course>10.87</course>
  <speed>0.0412310562561766</speed>
  <fix>3d</fix>
</trkpt>
<trkpt lat="-27.2744324" lon="151.2900637">
  <ele>348.63</ele>
  <time>2026-09-01T20:01:59Z</time>
  <course>36.4</course>
  <speed>0.03</speed>
  <fix>3d</fix>
</trkpt>
<trkpt lat="-27.2744324" lon="151.290064">
  <ele>348.34</ele>
  <time>2026-09-01T20:01:59Z</time>
  <course>10.88</course>
  <speed>0.0412310562561766</speed>
  <fix>3d</fix>
</trkpt>
<trkpt lat="-27.2744323" lon="151.2900637">
  <ele>348.53</ele>
  <time>2026-09-01T20:01:59Z</time>
  <course>35.53</course>
  <speed>0.04</speed>
  <fix>3d</fix>
</trkpt>
<trkpt lat="-27.2744324" lon="151.290064">
  <ele>348.29</ele>
  <time>2026-09-01T20:01:59Z</time>
  <course>10.89</course>
  <speed>0.0412310562561766</speed>
  <fix>3d</fix>
</trkpt>
<trkpt lat="-27.2744323" lon="151.2900637">
  <ele>348.53</ele>
  <time>2026-09-01T20:01:59Z</time>
  <course>35.53</course>
  <speed>0.04</speed>
  <fix>3d</fix>
</trkpt>
<trkpt lat="-27.2744324" lon="151.290064">
  <ele>348.24</ele>
  <time>2026-09-01T20:01:59Z</time>
  <course>10.89</course>
  <speed>0.0412310562561766</speed>
  <fix>3d</fix>
</trkpt>
<trkpt lat="-27.2744322" lon="151.2900638">
  <ele>348.43</ele>
  <time>2026-09-01T20:01:59Z</time>
  <course>34.71</course>
  <speed>0.04</speed>
  <fix>3d</fix>
</trkpt>
<trkpt lat="-27.2744323" lon="151.2900641">
  <ele>348.19</ele>
  <time>2026-09-01T20:01:59Z</time>
  <course>10.89</course>
  <speed>0.044721359549995794</speed>
  <fix>3d</fix>
</trkpt>
<trkpt lat="-27.2744322" lon="151.2900638">
  <ele>348.43</ele>
  <time>2026-09-01T20:01:59Z</time>
  <course>34.71</course>
  <speed>0.04</speed>
  <fix>3d</fix>
</trkpt>
<trkpt lat="-27.2744323" lon="151.2900641">
  <ele>348.14</ele>
  <time>2026-09-01T20:01:59Z</time>
  <course>10.89</course>
  <speed>0.044721359549995794</speed>
  <fix>3d</fix>
</trkpt>
<trkpt lat="-27.2744321" lon="151.2900639">
  <ele>348.33</ele>
  <time>2026-09-01T20:01:59Z</time>
  <course>33.46</course>
  <speed>0.05</speed>
  <fix>3d</fix>
</trkpt>
<trkpt lat="-27.2744322" lon="151.2900641">
  <ele>348.09</ele>
  <time>2026-09-01T20:01:59Z</time>
  <course>10.89</course>
  <speed>0.044721359549995794</speed>
  <fix>3d</fix>
</trkpt>
<trkpt lat="-27.2744321" lon="151.2900639">
  <ele>348.33</ele>
  <time>2026-09-01T20:01:59Z</time>
  <course>33.46</course>
  <speed>0.05</speed>
  <fix>3d</fix>
</trkpt>
<trkpt lat="-27.2744322" lon="151.2900641">
  <ele>348.04</ele>
  <time>2026-09-01T20:01:59Z</time>
  <course>10.9</course>
  <speed>0.044721359549995794</speed>
  <fix>3d</fix>
</trkpt>
<trkpt lat="-27.2744321" lon="151.2900639">
  <ele>348.22</ele>
  <time>2026-09-01T20:01:59Z</time>
  <course>32.29</course>
  <speed>0.05</speed>
  <fix>3d</fix>
</trkpt>
<trkpt lat="-27.2744322" lon="151.2900642">
  <ele>347.98</ele>
  <time>2026-09-01T20:01:59Z</time>
  <course>10.9</course>
  <speed>0.044721359549995794</speed>
  <fix>3d</fix>
</trkpt>
<trkpt lat="-27.2744321" lon="151.2900639">
  <ele>348.22</ele>
  <time>2026-09-01T20:01:59Z</time>
  <course>32.29</course>
  <speed>0.05</speed>
  <fix>3d</fix>
</trkpt>
<trkpt lat="-27.2744321" lon="151.2900642">
  <ele>347.93</ele>
  <time>2026-09-01T20:01:59Z</time>
  <course>10.9</course>
  <speed>0.044721359549995794</speed>
  <fix>3d</fix>
</trkpt>
<trkpt lat="-27.274432" lon="151.290064">
  <ele>348.13</ele>
  <time>2026-09-01T20:01:59Z</time>
  <course>31.63</course>
  <speed>0.06</speed>
  <fix>3d</fix>
</trkpt>
<trkpt lat="-27.2744321" lon="151.2900642">
  <ele>347.88</ele>
  <time>2026-09-01T20:01:59Z</time>
  <course>10.9</course>
  <speed>0.044721359549995794</speed>
  <fix>3d</fix>
</trkpt>
<trkpt lat="-27.274432" lon="151.290064">
  <ele>348.13</ele>
  <time>2026-09-01T20:01:59Z</time>
  <course>31.63</course>
  <speed>0.06</speed>
  <fix>3d</fix>
</trkpt>
<trkpt lat="-27.274432" lon="151.2900642">
  <ele>347.83</ele>
  <time>2026-09-01T20:01:59Z</time>
  <course>10.9</course>
  <speed>0.044721359549995794</speed>
  <fix>3d</fix>
</trkpt>
<trkpt lat="-27.2744319" lon="151.290064">
  <ele>348.03</ele>
  <time>2026-09-01T20:01:59Z</time>
  <course>31.24</course>
  <speed>0.06</speed>
  <fix>3d</fix>
</trkpt>
<trkpt lat="-27.274432" lon="151.2900643">
  <ele>347.78</ele>
  <time>2026-09-01T20:01:59Z</time>
  <course>10.9</course>
  <speed>0.044721359549995794</speed>
  <fix>3d</fix>
</trkpt>
<trkpt lat="-27.2744319" lon="151.290064">
  <ele>348.03</ele>
  <time>2026-09-01T20:01:59Z</time>
  <course>31.24</course>
  <speed>0.06</speed>
  <fix>3d</fix>
</trkpt>
<trkpt lat="-27.274432" lon="151.2900643">
  <ele>347.73</ele>
  <time>2026-09-01T20:01:59Z</time>
  <course>10.9</course>
  <speed>0.044721359549995794</speed>
  <fix>3d</fix>
</trkpt>
<trkpt lat="-27.2744318" lon="151.2900641">
  <ele>347.93</ele>
  <time>2026-09-01T20:01:59Z</time>
  <course>30.76</course>
  <speed>0.06</speed>
  <fix>3d</fix>
</trkpt>
<trkpt lat="-27.2744319" lon="151.2900643">
  <ele>347.68</ele>
  <time>2026-09-01T20:01:59Z</time>
  <course>10.91</course>
  <speed>0.044721359549995794</speed>
  <fix>3d</fix>
</trkpt>
<trkpt lat="-27.2744318" lon="151.2900641">
  <ele>347.93</ele>
  <time>2026-09-01T20:01:59Z</time>
  <course>30.76</course>
  <speed>0.06</speed>
  <fix>3d</fix>
</trkpt>
<trkpt lat="-27.2744319" lon="151.2900643">
  <ele>347.63</ele>
  <time>2026-09-01T20:01:59Z</time>
  <course>10.91</course>
  <speed>0.044721359549995794</speed>
  <fix>3d</fix>
</trkpt>
<trkpt lat="-27.2744317" lon="151.2900642">
  <ele>347.83</ele>
  <time>2026-09-01T20:02:00Z</time>
  <course>30.18</course>
  <speed>0.05</speed>
  <fix>3d</fix>
</trkpt>
<trkpt lat="-27.2744318" lon="151.2900644">
  <ele>347.58</ele>
  <time>2026-09-01T20:02:00Z</time>
  <course>10.91</course>
  <speed>0.044721359549995794</speed>
  <fix>3d</fix>
</trkpt>
<trkpt lat="-27.2744317" lon="151.2900642">
  <ele>347.83</ele>
  <time>2026-09-01T20:02:00Z</time>
  <course>30.18</course>
  <speed>0.05</speed>
  <fix>3d</fix>
</trkpt>
<trkpt lat="-27.2744318" lon="151.2900644">
  <ele>347.53</ele>
  <time>2026-09-01T20:02:00Z</time>
  <course>10.91</course>
  <speed>0.0412310562561766</speed>
  <fix>3d</fix>
</trkpt>
<trkpt lat="-27.2744316" lon="151.2900642">
  <ele>347.72</ele>
  <time>2026-09-01T20:02:00Z</time>
  <course>29.56</course>
  <speed>0.05</speed>
  <fix>3d</fix>
</trkpt>
<trkpt lat="-27.2744318" lon="151.2900644">
  <ele>347.48</ele>
  <time>2026-09-01T20:02:00Z</time>
  <course>10.91</course>
  <speed>0.0316227766016838</speed>
  <fix>3d</fix>
</trkpt>
<trkpt lat="-27.2744316" lon="151.2900642">
  <ele>347.72</ele>
  <time>2026-09-01T20:02:00Z</time>
  <course>29.56</course>
  <speed>0.05</speed>
  <fix>3d</fix>
</trkpt>
<trkpt lat="-27.2744317" lon="151.2900644">
  <ele>347.43</ele>
  <time>2026-09-01T20:02:00Z</time>
  <course>10.9</course>
  <speed>0.0316227766016838</speed>
  <fix>3d</fix>
</trkpt>
<trkpt lat="-27.2744315" lon="151.2900642">
  <ele>347.63</ele>
  <time>2026-09-01T20:02:00Z</time>
  <course>28.84</course>
  <speed>0.05</speed>
  <fix>3d</fix>
</trkpt>
<trkpt lat="-27.2744317" lon="151.2900644">
  <ele>347.38</ele>
  <time>2026-09-01T20:02:00Z</time>
  <course>10.9</course>
  <speed>0.0316227766016838</speed>
  <fix>3d</fix>
</trkpt>
<trkpt lat="-27.2744315" lon="151.2900642">
  <ele>347.63</ele>
  <time>2026-09-01T20:02:00Z</time>
  <course>28.84</course>
  <speed>0.05</speed>
  <fix>3d</fix>
</trkpt>
<trkpt lat="-27.2744316" lon="151.2900645">
  <ele>347.33</ele>
  <time>2026-09-01T20:02:00Z</time>
  <course>10.89</course>
  <speed>0.0316227766016838</speed>
  <fix>3d</fix>
</trkpt>
<trkpt lat="-27.2744314" lon="151.2900643">
  <ele>347.53</ele>
  <time>2026-09-01T20:02:00Z</time>
  <course>27.64</course>
  <speed>0.05</speed>
  <fix>3d</fix>
</trkpt>
<trkpt lat="-27.2744316" lon="151.2900645">
  <ele>347.28</ele>
  <time>2026-09-01T20:02:00Z</time>
  <course>10.89</course>
  <speed>0.0316227766016838</speed>
  <fix>3d</fix>
</trkpt>
<trkpt lat="-27.2744314" lon="151.2900643">
  <ele>347.53</ele>
  <time>2026-09-01T20:02:00Z</time>
  <course>27.64</course>
  <speed>0.05</speed>
  <fix>3d</fix>
</trkpt>
<trkpt lat="-27.2744316" lon="151.2900645">
  <ele>347.23</ele>
  <time>2026-09-01T20:02:00Z</time>
  <course>10.88</course>
  <speed>0.022360679774997897</speed>
  <fix>3d</fix>
</trkpt>
<trkpt lat="-27.2744313" lon="151.2900644">
  <ele>347.43</ele>
  <time>2026-09-01T20:02:00Z</time>
  <course>25.45</course>
  <speed>0.04</speed>
  <fix>3d</fix>
</trkpt>
<trkpt lat="-27.2744315" lon="151.2900645">
  <ele>347.18</ele>
  <time>2026-09-01T20:02:00Z</time>
  <course>10.87</course>
  <speed>0.022360679774997897</speed>
  <fix>3d</fix>
</trkpt>
<trkpt lat="-27.2744313" lon="151.2900644">
  <ele>347.43</ele>
  <time>2026-09-01T20:02:00Z</time>
  <course>25.45</course>
  <speed>0.04</speed>
  <fix>3d</fix>
</trkpt>
<trkpt lat="-27.2744315" lon="151.2900645">
  <ele>347.13</ele>
  <time>2026-09-01T20:02:00Z</time>
  <course>10.87</course>
  <speed>0.022360679774997897</speed>
  <fix>3d</fix>
</trkpt>
<trkpt lat="-27.2744313" lon="151.2900644">
  <ele>347.34</ele>
  <time>2026-09-01T20:02:00Z</time>
  <course>22.52</course>
  <speed>0.04</speed>
  <fix>3d</fix>
</trkpt>
<trkpt lat="-27.2744314" lon="151.2900645">
  <ele>347.08</ele>
  <time>2026-09-01T20:02:00Z</time>
  <course>10.86</course>
  <speed>0.02</speed>
  <fix>3d</fix>
</trkpt>
<trkpt lat="-27.2744313" lon="151.2900644">
  <ele>347.34</ele>
  <time>2026-09-01T20:02:00Z</time>
  <course>22.52</course>
  <speed>0.04</speed>
  <fix>3d</fix>
</trkpt>
<trkpt lat="-27.2744314" lon="151.2900645">
  <ele>347.04</ele>
  <time>2026-09-01T20:02:00Z</time>
  <course>10.85</course>
  <speed>0.02</speed>
  <fix>3d</fix>
</trkpt>
<trkpt lat="-27.2744312" lon="151.2900645">
  <ele>347.24</ele>
  <time>2026-09-01T20:02:00Z</time>
  <course>19.75</course>
  <speed>0.04</speed>
  <fix>3d</fix>
</trkpt>
<trkpt lat="-27.2744314" lon="151.2900646">
  <ele>346.99</ele>
  <time>2026-09-01T20:02:00Z</time>
  <course>10.85</course>
  <speed>0.02</speed>
  <fix>3d</fix>
</trkpt>
<trkpt lat="-27.2744312" lon="151.2900645">
  <ele>347.24</ele>
  <time>2026-09-01T20:02:00Z</time>
  <course>19.75</course>
  <speed>0.04</speed>
  <fix>3d</fix>
</trkpt>
<trkpt lat="-27.2744314" lon="151.2900646">
  <ele>346.94</ele>
  <time>2026-09-01T20:02:00Z</time>
  <course>10.85</course>
  <speed>0.02</speed>
  <fix>3d</fix>
</trkpt>
<trkpt lat="-27.2744311" lon="151.2900645">
  <ele>347.14</ele>
  <time>2026-09-01T20:02:00Z</time>
  <course>17.73</course>
  <speed>0.03</speed>
  <fix>3d</fix>
</trkpt>
<trkpt lat="-27.2744313" lon="151.2900646">
  <ele>346.89</ele>
  <time>2026-09-01T20:02:00Z</time>
  <course>10.85</course>
  <speed>0.01</speed>
  <fix>3d</fix>
</trkpt>
<trkpt lat="-27.2744311" lon="151.2900645">
  <ele>347.14</ele>
  <time>2026-09-01T20:02:00Z</time>
  <course>17.73</course>
  <speed>0.03</speed>
  <fix>3d</fix>
</trkpt>
<trkpt lat="-27.2744313" lon="151.2900646">
  <ele>346.84</ele>
  <time>2026-09-01T20:02:00Z</time>
  <course>10.86</course>
  <speed>0.01</speed>
  <fix>3d</fix>
</trkpt>
<trkpt lat="-27.2744311" lon="151.2900645">
  <ele>347.03</ele>
  <time>2026-09-01T20:02:00Z</time>
  <course>15.98</course>
  <speed>0.02</speed>
  <fix>3d</fix>
</trkpt>
<trkpt lat="-27.2744313" lon="151.2900646">
  <ele>346.79</ele>
  <time>2026-09-01T20:02:00Z</time>
  <course>10.86</course>
  <speed>0.01</speed>
  <fix>3d</fix>
</trkpt>
<trkpt lat="-27.2744311" lon="151.2900645">
  <ele>347.03</ele>
  <time>2026-09-01T20:02:00Z</time>
  <course>15.98</course>
  <speed>0.02</speed>
  <fix>3d</fix>
</trkpt>
<trkpt lat="-27.2744313" lon="151.2900646">
  <ele>346.74</ele>
  <time>2026-09-01T20:02:00Z</time>
  <course>10.86</course>
  <speed>0.01</speed>
  <fix>3d</fix>
</trkpt>
<trkpt lat="-27.274431" lon="151.2900645">
  <ele>346.94</ele>
  <time>2026-09-01T20:02:00Z</time>
  <course>13.44</course>
  <speed>0.02</speed>
  <fix>3d</fix>
</trkpt>
<trkpt lat="-27.2744313" lon="151.2900646">
  <ele>346.69</ele>
  <time>2026-09-01T20:02:00Z</time>
  <course>10.87</course>
  <speed>0.01</speed>
  <fix>3d</fix>
</trkpt>
<trkpt lat="-27.274431" lon="151.2900645">
  <ele>346.94</ele>
  <time>2026-09-01T20:02:00Z</time>
  <course>13.44</course>
  <speed>0.02</speed>
  <fix>3d</fix>
</trkpt>
<trkpt lat="-27.2744312" lon="151.2900646">
  <ele>346.64</ele>
  <time>2026-09-01T20:02:00Z</time>
  <course>10.86</course>
  <speed>0.01414213562373095</speed>
  <fix>3d</fix>
</trkpt>
<trkpt lat="-27.274431" lon="151.2900645">
  <ele>346.84</ele>
  <time>2026-09-01T20:02:00Z</time>
  <course>9.9</course>
  <speed>0.02</speed>
  <fix>3d</fix>
</trkpt>
<trkpt lat="-27.2744312" lon="151.2900646">
  <ele>346.59</ele>
  <time>2026-09-01T20:02:00Z</time>
  <course>10.86</course>
  <speed>0.01414213562373095</speed>
  <fix>3d</fix>
</trkpt>
<trkpt lat="-27.274431" lon="151.2900645">
  <ele>346.84</ele>
  <time>2026-09-01T20:02:00Z</time>
  <course>9.9</course>
  <speed>0.02</speed>
  <fix>3d</fix>
</trkpt>
<trkpt lat="-27.2744312" lon="151.2900646">
  <ele>346.54</ele>
  <time>2026-09-01T20:02:00Z</time>
  <course>10.85</course>
  <speed>0.01414213562373095</speed>
  <fix>3d</fix>
</trkpt>
<trkpt lat="-27.274431" lon="151.2900646">
  <ele>346.74</ele>
  <time>2026-09-01T20:02:00Z</time>
  <course>5.13</course>
  <speed>0.01</speed>
  <fix>3d</fix>
</trkpt>
<trkpt lat="-27.2744312" lon="151.2900646">
  <ele>346.49</ele>
  <time>2026-09-01T20:02:00Z</time>
  <course>10.84</course>
  <speed>0.01414213562373095</speed>
  <fix>3d</fix>
</trkpt>
<trkpt lat="-27.274431" lon="151.2900646">
  <ele>346.74</ele>
  <time>2026-09-01T20:02:00Z</time>
  <course>5.13</course>
  <speed>0.01</speed>
  <fix>3d</fix>
</trkpt>
<trkpt lat="-27.2744312" lon="151.2900646">
  <ele>346.44</ele>
  <time>2026-09-01T20:02:00Z</time>
  <course>10.82</course>
  <speed>0.01414213562373095</speed>
  <fix>3d</fix>
</trkpt>
<trkpt lat="-27.274431" lon="151.2900646">
  <ele>346.64</ele>
  <time>2026-09-01T20:02:00Z</time>
  <course>357.06</course>
  <speed>0.01</speed>
  <fix>3d</fix>
</trkpt>
<trkpt lat="-27.2744312" lon="151.2900646">
  <ele>346.39</ele>
  <time>2026-09-01T20:02:00Z</time>
  <course>10.79</course>
  <speed>0.022360679774997897</speed>
  <fix>3d</fix>
</trkpt>
<trkpt lat="-27.274431" lon="151.2900646">
  <ele>346.64</ele>
  <time>2026-09-01T20:02:00Z</time>
  <course>357.06</course>
  <speed>0.01</speed>
  <fix>3d</fix>
</trkpt>
<trkpt lat="-27.2744312" lon="151.2900646">
  <ele>346.34</ele>
  <time>2026-09-01T20:02:00Z</time>
  <course>10.76</course>
  <speed>0.022360679774997897</speed>
  <fix>3d</fix>
</trkpt>
<trkpt lat="-27.2744309" lon="151.2900645">
  <ele>346.53</ele>
  <time>2026-09-01T20:02:00Z</time>
  <course>341.29</course>
  <speed>0.0</speed>
  <fix>3d</fix>
</trkpt>
<trkpt lat="-27.2744312" lon="151.2900646">
  <ele>346.29</ele>
  <time>2026-09-01T20:02:00Z</time>
  <course>10.71</course>
  <speed>0.022360679774997897</speed>
  <fix>3d</fix>
</trkpt>
<trkpt lat="-27.2744309" lon="151.2900645">
  <ele>346.53</ele>
  <time>2026-09-01T20:02:00Z</time>
  <course>341.29</course>
  <speed>0.0</speed>
  <fix>3d</fix>
</trkpt>
<trkpt lat="-27.2744312" lon="151.2900646">
  <ele>346.24</ele>
  <time>2026-09-01T20:02:00Z</time>
  <course>10.64</course>
  <speed>0.0316227766016838</speed>
  <fix>3d</fix>
</trkpt>
<trkpt lat="-27.2744309" lon="151.2900645">
  <ele>346.44</ele>
  <time>2026-09-01T20:02:00Z</time>
  <course>303.17</course>
  <speed>0.0</speed>
  <fix>3d</fix>
</trkpt>
<trkpt lat="-27.2744312" lon="151.2900646">
  <ele>346.19</ele>
  <time>2026-09-01T20:02:00Z</time>
  <course>10.61</course>
  <speed>0.0316227766016838</speed>
  <fix>3d</fix>
</trkpt>
<trkpt lat="-27.2744309" lon="151.2900645">
  <ele>346.44</ele>
  <time>2026-09-01T20:02:00Z</time>
  <course>303.17</course>
  <speed>0.0</speed>
  <fix>3d</fix>
</trkpt>
<trkpt lat="-27.2744312" lon="151.2900646">
  <ele>346.14</ele>
  <time>2026-09-01T20:02:00Z</time>
  <course>10.6</course>
  <speed>0.0316227766016838</speed>
  <fix>3d</fix>
</trkpt>
<trkpt lat="-27.2744309" lon="151.2900645">
  <ele>346.34</ele>
  <time>2026-09-01T20:02:00Z</time>
  <course>190.29</course>
  <speed>0.0</speed>
  <fix>3d</fix>
</trkpt>
<trkpt lat="-27.2744312" lon="151.2900646">
  <ele>346.08</ele>
  <time>2026-09-01T20:02:00Z</time>
  <course>10.61</course>
  <speed>0.0316227766016838</speed>
  <fix>3d</fix>
</trkpt>
<trkpt lat="-27.2744309" lon="151.2900645">
  <ele>346.34</ele>
  <time>2026-09-01T20:02:00Z</time>
  <course>190.29</course>
  <speed>0.0</speed>
  <fix>3d</fix>
</trkpt>
<trkpt lat="-27.2744312" lon="151.2900646">
  <ele>346.03</ele>
  <time>2026-09-01T20:02:00Z</time>
  <course>10.65</course>
  <speed>0.0316227766016838</speed>
  <fix>3d</fix>
</trkpt>
<trkpt lat="-27.2744309" lon="151.2900645">
  <ele>346.24</ele>
  <time>2026-09-01T20:02:00Z</time>
  <course>185.5</course>
  <speed>0.0</speed>
  <fix>3d</fix>
</trkpt>
<trkpt lat="-27.2744312" lon="151.2900646">
  <ele>345.98</ele>
  <time>2026-09-01T20:02:00Z</time>
  <course>10.69</course>
  <speed>0.0412310562561766</speed>
  <fix>3d</fix>
</trkpt>
<trkpt lat="-27.2744309" lon="151.2900645">
  <ele>346.24</ele>
  <time>2026-09-01T20:02:00Z</time>
  <course>185.5</course>
  <speed>0.0</speed>
  <fix>3d</fix>
</trkpt>
<trkpt lat="-27.2744312" lon="151.2900646">
  <ele>345.93</ele>
  <time>2026-09-01T20:02:00Z</time>
  <course>10.71</course>
  <speed>0.0412310562561766</speed>
  <fix>3d</fix>
</trkpt>
<trkpt lat="-27.2744309" lon="151.2900645">
  <ele>346.14</ele>
  <time>2026-09-01T20:02:00Z</time>
  <course>186.23</course>
  <speed>0.01</speed>
  <fix>3d</fix>
</trkpt>
<trkpt lat="-27.2744312" lon="151.2900646">
  <ele>345.89</ele>
  <time>2026-09-01T20:02:00Z</time>
  <course>10.72</course>
  <speed>0.0412310562561766</speed>
  <fix>3d</fix>
</trkpt>
<trkpt lat="-27.2744309" lon="151.2900645">
  <ele>346.14</ele>
  <time>2026-09-01T20:02:00Z</time>
  <course>186.23</course>
  <speed>0.01</speed>
  <fix>3d</fix>
</trkpt>
<trkpt lat="-27.2744312" lon="151.2900646">
  <ele>345.84</ele>
  <time>2026-09-01T20:02:00Z</time>
  <course>10.7</course>
  <speed>0.0412310562561766</speed>
  <fix>3d</fix>
</trkpt>
<trkpt lat="-27.2744309" lon="151.2900645">
  <ele>346.03</ele>
  <time>2026-09-01T20:02:00Z</time>
  <course>186.22</course>
  <speed>0.01</speed>
  <fix>3d</fix>
</trkpt>
<trkpt lat="-27.2744312" lon="151.2900646">
  <ele>345.79</ele>
  <time>2026-09-01T20:02:00Z</time>
  <course>10.69</course>
  <speed>0.0412310562561766</speed>
  <fix>3d</fix>
</trkpt>
<trkpt lat="-27.2744309" lon="151.2900645">
  <ele>346.03</ele>
  <time>2026-09-01T20:02:00Z</time>
  <course>186.22</course>
  <speed>0.01</speed>
  <fix>3d</fix>
</trkpt>
<trkpt lat="-27.2744312" lon="151.2900646">
  <ele>345.74</ele>
  <time>2026-09-01T20:02:00Z</time>
  <course>10.67</course>
  <speed>0.0412310562561766</speed>
  <fix>3d</fix>
</trkpt>
<trkpt lat="-27.2744309" lon="151.2900645">
  <ele>345.94</ele>
  <time>2026-09-01T20:02:00Z</time>
  <course>186.31</course>
  <speed>0.01</speed>
  <fix>3d</fix>
</trkpt>
<trkpt lat="-27.2744312" lon="151.2900646">
  <ele>345.69</ele>
  <time>2026-09-01T20:02:00Z</time>
  <course>10.65</course>
  <speed>0.0412310562561766</speed>
  <fix>3d</fix>
</trkpt>
<trkpt lat="-27.2744309" lon="151.2900645">
  <ele>345.94</ele>
  <time>2026-09-01T20:02:00Z</time>
  <course>186.31</course>
  <speed>0.01</speed>
  <fix>3d</fix>
</trkpt>
<trkpt lat="-27.2744312" lon="151.2900646">
  <ele>345.64</ele>
  <time>2026-09-01T20:02:00Z</time>
  <course>10.64</course>
  <speed>0.0412310562561766</speed>
  <fix>3d</fix>
</trkpt>
<trkpt lat="-27.274431" lon="151.2900645">
  <ele>345.84</ele>
  <time>2026-09-01T20:02:00Z</time>
  <course>186.46</course>
  <speed>0.02</speed>
  <fix>3d</fix>
</trkpt>
<trkpt lat="-27.2744312" lon="151.2900646">
  <ele>345.59</ele>
  <time>2026-09-01T20:02:00Z</time>
  <course>10.63</course>
  <speed>0.0412310562561766</speed>
  <fix>3d</fix>
</trkpt>
<trkpt lat="-27.274431" lon="151.2900645">
  <ele>345.84</ele>
  <time>2026-09-01T20:02:00Z</time>
  <course>186.46</course>
  <speed>0.02</speed>
  <fix>3d</fix>
</trkpt>
<trkpt lat="-27.2744313" lon="151.2900646">
  <ele>345.54</ele>
  <time>2026-09-01T20:02:00Z</time>
  <course>10.63</course>
  <speed>0.0412310562561766</speed>
  <fix>3d</fix>
</trkpt>
<trkpt lat="-27.274431" lon="151.2900645">
  <ele>345.74</ele>
  <time>2026-09-01T20:02:00Z</time>
  <course>186.69</course>
  <speed>0.02</speed>
  <fix>3d</fix>
</trkpt>
<trkpt lat="-27.2744313" lon="151.2900646">
  <ele>345.49</ele>
  <time>2026-09-01T20:02:00Z</time>
  <course>10.64</course>
  <speed>0.0412310562561766</speed>
  <fix>3d</fix>
</trkpt>
<trkpt lat="-27.274431" lon="151.2900645">
  <ele>345.74</ele>
  <time>2026-09-01T20:02:00Z</time>
  <course>186.69</course>
  <speed>0.02</speed>
  <fix>3d</fix>
</trkpt>
<trkpt lat="-27.2744313" lon="151.2900646">
  <ele>345.44</ele>
  <time>2026-09-01T20:02:00Z</time>
  <course>10.65</course>
  <speed>0.0412310562561766</speed>
  <fix>3d</fix>
</trkpt>
<trkpt lat="-27.274431" lon="151.2900645">
  <ele>345.64</ele>
  <time>2026-09-01T20:02:00Z</time>
  <course>186.88</course>
  <speed>0.02</speed>
  <fix>3d</fix>
</trkpt>
<trkpt lat="-27.2744313" lon="151.2900646">
  <ele>345.39</ele>
  <time>2026-09-01T20:02:00Z</time>
  <course>10.66</course>
  <speed>0.0412310562561766</speed>
  <fix>3d</fix>
</trkpt>
<trkpt lat="-27.274431" lon="151.2900645">
  <ele>345.64</ele>
  <time>2026-09-01T20:02:00Z</time>
  <course>186.88</course>
  <speed>0.02</speed>
  <fix>3d</fix>
</trkpt>
<trkpt lat="-27.2744313" lon="151.2900646">
  <ele>345.34</ele>
  <time>2026-09-01T20:02:00Z</time>
  <course>10.67</course>
  <speed>0.0412310562561766</speed>
  <fix>3d</fix>
</trkpt>
<trkpt lat="-27.2744311" lon="151.2900645">
  <ele>345.53</ele>
  <time>2026-09-01T20:02:00Z</time>
  <course>186.98</course>
  <speed>0.02</speed>
  <fix>3d</fix>
</trkpt>
<trkpt lat="-27.2744313" lon="151.2900646">
  <ele>345.29</ele>
  <time>2026-09-01T20:02:00Z</time>
  <course>10.67</course>
  <speed>0.0412310562561766</speed>
  <fix>3d</fix>
</trkpt>
<trkpt lat="-27.2744311" lon="151.2900645">
  <ele>345.53</ele>
  <time>2026-09-01T20:02:00Z</time>
  <course>186.98</course>
  <speed>0.02</speed>
  <fix>3d</fix>
</trkpt>
<trkpt lat="-27.2744314" lon="151.2900646">
  <ele>345.24</ele>
  <time>2026-09-01T20:02:00Z</time>
  <course>10.68</course>
  <speed>0.0412310562561766</speed>
  <fix>3d</fix>
</trkpt>
<trkpt lat="-27.2744311" lon="151.2900645">
  <ele>345.44</ele>
  <time>2026-09-01T20:02:00Z</time>
  <course>187.02</course>
  <speed>0.02</speed>
  <fix>3d</fix>
</trkpt>
<trkpt lat="-27.2744314" lon="151.2900646">
  <ele>345.19</ele>
  <time>2026-09-01T20:02:00Z</time>
  <course>10.67</course>
  <speed>0.0412310562561766</speed>
  <fix>3d</fix>
</trkpt>
<trkpt lat="-27.2744311" lon="151.2900645">
  <ele>345.44</ele>
  <time>2026-09-01T20:02:00Z</time>
  <course>187.02</course>
  <speed>0.02</speed>
  <fix>3d</fix>
</trkpt>
<trkpt lat="-27.2744314" lon="151.2900646">
  <ele>345.14</ele>
  <time>2026-09-01T20:02:00Z</time>
  <course>10.65</course>
  <speed>0.0412310562561766</speed>
  <fix>3d</fix>
</trkpt>
<trkpt lat="-27.2744312" lon="151.2900645">
  <ele>345.34</ele>
  <time>2026-09-01T20:02:00Z</time>
  <course>186.77</course>
  <speed>0.02</speed>
  <fix>3d</fix>
</trkpt>
<trkpt lat="-27.2744314" lon="151.2900646">
  <ele>345.09</ele>
  <time>2026-09-01T20:02:00Z</time>
  <course>10.64</course>
  <speed>0.0412310562561766</speed>
  <fix>3d</fix>
</trkpt>
<trkpt lat="-27.2744312" lon="151.2900645">
  <ele>345.34</ele>
  <time>2026-09-01T20:02:00Z</time>
  <course>186.77</course>
  <speed>0.02</speed>
  <fix>3d</fix>
</trkpt>
<trkpt lat="-27.2744314" lon="151.2900646">
  <ele>345.04</ele>
  <time>2026-09-01T20:02:00Z</time>
  <course>10.63</course>
  <speed>0.0412310562561766</speed>
  <fix>3d</fix>
</trkpt>
<trkpt lat="-27.2744312" lon="151.2900645">
  <ele>345.24</ele>
  <time>2026-09-01T20:02:00Z</time>
  <course>186.28</course>
  <speed>0.02</speed>
  <fix>3d</fix>
</trkpt>
<trkpt lat="-27.2744314" lon="151.2900646">
  <ele>344.99</ele>
  <time>2026-09-01T20:02:00Z</time>
  <course>10.62</course>
  <speed>0.0412310562561766</speed>
  <fix>3d</fix>
</trkpt>
<trkpt lat="-27.2744312" lon="151.2900645">
  <ele>345.24</ele>
  <time>2026-09-01T20:02:00Z</time>
  <course>186.28</course>
  <speed>0.02</speed>
  <fix>3d</fix>
</trkpt>
<trkpt lat="-27.2744315" lon="151.2900646">
  <ele>344.94</ele>
  <time>2026-09-01T20:02:00Z</time>
  <course>10.62</course>
  <speed>0.0412310562561766</speed>
  <fix>3d</fix>
</trkpt>
<trkpt lat="-27.2744313" lon="151.2900645">
  <ele>345.14</ele>
  <time>2026-09-01T20:02:00Z</time>
  <course>185.79</course>
  <speed>0.02</speed>
  <fix>3d</fix>
</trkpt>
<trkpt lat="-27.2744315" lon="151.2900646">
  <ele>344.89</ele>
  <time>2026-09-01T20:02:00Z</time>
  <course>10.62</course>
  <speed>0.0412310562561766</speed>
  <fix>3d</fix>
</trkpt>
<trkpt lat="-27.2744313" lon="151.2900645">
  <ele>345.14</ele>
  <time>2026-09-01T20:02:00Z</time>
  <course>185.79</course>
  <speed>0.02</speed>
  <fix>3d</fix>
</trkpt>
<trkpt lat="-27.2744315" lon="151.2900646">
  <ele>344.84</ele>
  <time>2026-09-01T20:02:00Z</time>
  <course>10.61</course>
  <speed>0.0412310562561766</speed>
  <fix>3d</fix>
</trkpt>
<trkpt lat="-27.2744313" lon="151.2900645">
  <ele>345.03</ele>
  <time>2026-09-01T20:02:00Z</time>
  <course>185.15</course>
  <speed>0.02</speed>
  <fix>3d</fix>
</trkpt>
<trkpt lat="-27.2744315" lon="151.2900646">
  <ele>344.79</ele>
  <time>2026-09-01T20:02:00Z</time>
  <course>10.59</course>
  <speed>0.0412310562561766</speed>
  <fix>3d</fix>
</trkpt>
<trkpt lat="-27.2744313" lon="151.2900645">
  <ele>345.03</ele>
  <time>2026-09-01T20:02:00Z</time>
  <course>185.15</course>
  <speed>0.02</speed>
  <fix>3d</fix>
</trkpt>
<trkpt lat="-27.2744315" lon="151.2900646">
  <ele>344.74</ele>
  <time>2026-09-01T20:02:00Z</time>
  <course>10.57</course>
  <speed>0.0412310562561766</speed>
  <fix>3d</fix>
</trkpt>
<trkpt lat="-27.2744314" lon="151.2900645">
  <ele>344.94</ele>
  <time>2026-09-01T20:02:00Z</time>
  <course>184.3</course>
  <speed>0.02</speed>
  <fix>3d</fix>
</trkpt>
<trkpt lat="-27.2744316" lon="151.2900646">
  <ele>344.69</ele>
  <time>2026-09-01T20:02:00Z</time>
  <course>10.55</course>
  <speed>0.0316227766016838</speed>
  <fix>3d</fix>
</trkpt>
<trkpt lat="-27.2744314" lon="151.2900645">
  <ele>344.94</ele>
  <time>2026-09-01T20:02:00Z</time>
  <course>184.3</course>
  <speed>0.02</speed>
  <fix>3d</fix>
</trkpt>
<trkpt lat="-27.2744316" lon="151.2900646">
  <ele>344.64</ele>
  <time>2026-09-01T20:02:00Z</time>
  <course>10.53</course>
  <speed>0.0316227766016838</speed>
  <fix>3d</fix>
</trkpt>
<trkpt lat="-27.2744314" lon="151.2900645">
  <ele>344.84</ele>
  <time>2026-09-01T20:02:00Z</time>
  <course>183.74</course>
  <speed>0.01</speed>
  <fix>3d</fix>
</trkpt>
<trkpt lat="-27.2744316" lon="151.2900646">
  <ele>344.59</ele>
  <time>2026-09-01T20:02:00Z</time>
  <course>10.52</course>
  <speed>0.0316227766016838</speed>
  <fix>3d</fix>
</trkpt>
<trkpt lat="-27.2744314" lon="151.2900645">
  <ele>344.84</ele>
  <time>2026-09-01T20:02:00Z</time>
  <course>183.74</course>
  <speed>0.01</speed>
  <fix>3d</fix>
</trkpt>
<trkpt lat="-27.2744316" lon="151.2900646">
  <ele>344.54</ele>
  <time>2026-09-01T20:02:00Z</time>
  <course>10.51</course>
  <speed>0.0316227766016838</speed>
  <fix>3d</fix>
</trkpt>
<trkpt lat="-27.2744314" lon="151.2900645">
  <ele>344.74</ele>
  <time>2026-09-01T20:02:00Z</time>
  <course>183.02</course>
  <speed>0.01</speed>
  <fix>3d</fix>
</trkpt>
<trkpt lat="-27.2744316" lon="151.2900646">
  <ele>344.49</ele>
  <time>2026-09-01T20:02:00Z</time>
  <course>10.5</course>
  <speed>0.0316227766016838</speed>
  <fix>3d</fix>
</trkpt>
<trkpt lat="-27.2744314" lon="151.2900645">
  <ele>344.74</ele>
  <time>2026-09-01T20:02:00Z</time>
  <course>183.02</course>
  <speed>0.01</speed>
  <fix>3d</fix>
</trkpt>
<trkpt lat="-27.2744316" lon="151.2900646">
  <ele>344.44</ele>
  <time>2026-09-01T20:02:00Z</time>
  <course>10.5</course>
  <speed>0.0316227766016838</speed>
  <fix>3d</fix>
</trkpt>
<trkpt lat="-27.2744315" lon="151.2900645">
  <ele>344.64</ele>
  <time>2026-09-01T20:02:00Z</time>
  <course>181.67</course>
  <speed>0.01</speed>
  <fix>3d</fix>
</trkpt>
<trkpt lat="-27.2744316" lon="151.2900646">
  <ele>344.39</ele>
  <time>2026-09-01T20:02:00Z</time>
  <course>10.51</course>
  <speed>0.0316227766016838</speed>
  <fix>3d</fix>
</trkpt>
<trkpt lat="-27.2744315" lon="151.2900645">
  <ele>344.64</ele>
  <time>2026-09-01T20:02:00Z</time>
  <course>181.67</course>
  <speed>0.01</speed>
  <fix>3d</fix>
</trkpt>
<trkpt lat="-27.2744316" lon="151.2900646">
  <ele>344.34</ele>
  <time>2026-09-01T20:02:00Z</time>
  <course>10.52</course>
  <speed>0.0316227766016838</speed>
  <fix>3d</fix>
</trkpt>
<trkpt lat="-27.2744315" lon="151.2900645">
  <ele>344.53</ele>
  <time>2026-09-01T20:02:00Z</time>
  <course>181.18</course>
  <speed>0.01</speed>
  <fix>3d</fix>
</trkpt>
<trkpt lat="-27.2744317" lon="151.2900646">
  <ele>344.29</ele>
  <time>2026-09-01T20:02:00Z</time>
  <course>10.53</course>
  <speed>0.0316227766016838</speed>
  <fix>3d</fix>
</trkpt>
<trkpt lat="-27.2744315" lon="151.2900645">
  <ele>344.53</ele>
  <time>2026-09-01T20:02:00Z</time>
  <course>181.18</course>
  <speed>0.01</speed>
  <fix>3d</fix>
</trkpt>
<trkpt lat="-27.2744317" lon="151.2900646">
  <ele>344.24</ele>
  <time>2026-09-01T20:02:00Z</time>
  <course>10.54</course>
  <speed>0.0316227766016838</speed>
  <fix>3d</fix>
</trkpt>
<trkpt lat="-27.2744315" lon="151.2900645">
  <ele>344.44</ele>
  <time>2026-09-01T20:02:00Z</time>
  <course>182.36</course>
  <speed>0.01</speed>
  <fix>3d</fix>
</trkpt>
<trkpt lat="-27.2744317" lon="151.2900646">
  <ele>344.19</ele>
  <time>2026-09-01T20:02:00Z</time>
  <course>10.54</course>
  <speed>0.0316227766016838</speed>
  <fix>3d</fix>
</trkpt>
<trkpt lat="-27.2744315" lon="151.2900645">
  <ele>344.44</ele>
  <time>2026-09-01T20:02:00Z</time>
  <course>182.36</course>
  <speed>0.01</speed>
  <fix>3d</fix>
</trkpt>
<trkpt lat="-27.2744317" lon="151.2900646">
  <ele>344.14</ele>
  <time>2026-09-01T20:02:00Z</time>
  <course>10.55</course>
  <speed>0.022360679774997897</speed>
  <fix>3d</fix>
</trkpt>
<trkpt lat="-27.2744315" lon="151.2900645">
  <ele>344.34</ele>
  <time>2026-09-01T20:02:00Z</time>
  <course>186.46</course>
  <speed>0.01</speed>
  <fix>3d</fix>
</trkpt>
<trkpt lat="-27.2744317" lon="151.2900646">
  <ele>344.08</ele>
  <time>2026-09-01T20:02:00Z</time>
  <course>10.57</course>
  <speed>0.022360679774997897</speed>
  <fix>3d</fix>
</trkpt>
<trkpt lat="-27.2744315" lon="151.2900645">
  <ele>344.34</ele>
  <time>2026-09-01T20:02:00Z</time>
  <course>186.46</course>
  <speed>0.01</speed>
  <fix>3d</fix>
</trkpt>
<trkpt lat="-27.2744317" lon="151.2900646">
  <ele>344.03</ele>
  <time>2026-09-01T20:02:00Z</time>
  <course>10.59</course>
  <speed>0.022360679774997897</speed>
  <fix>3d</fix>
</trkpt>
<trkpt lat="-27.2744315" lon="151.2900645">
  <ele>344.24</ele>
  <time>2026-09-01T20:02:00Z</time>
  <course>200.32</course>
  <speed>0.0</speed>
  <fix>3d</fix>
</trkpt>
<trkpt lat="-27.2744317" lon="151.2900646">
  <ele>343.98</ele>
  <time>2026-09-01T20:02:00Z</time>
  <course>10.63</course>
  <speed>0.02</speed>
  <fix>3d</fix>
</trkpt>
<trkpt lat="-27.2744315" lon="151.2900645">
  <ele>344.24</ele>
  <time>2026-09-01T20:02:00Z</time>
  <course>200.32</course>
  <speed>0.0</speed>
  <fix>3d</fix>
</trkpt>
<trkpt lat="-27.2744317" lon="151.2900646">
  <ele>343.93</ele>
  <time>2026-09-01T20:02:00Z</time>
  <course>10.68</course>
  <speed>0.02</speed>
  <fix>3d</fix>
</trkpt>
<trkpt lat="-27.2744316" lon="151.2900645">
  <ele>344.14</ele>
  <time>2026-09-01T20:02:00Z</time>
  <course>236.33</course>
  <speed>0.0</speed>
  <fix>3d</fix>
</trkpt>
<trkpt lat="-27.2744317" lon="151.2900646">
  <ele>343.88</ele>
  <time>2026-09-01T20:02:00Z</time>
  <course>10.73</course>
  <speed>0.02</speed>
  <fix>3d</fix>
</trkpt>
<trkpt lat="-27.2744316" lon="151.2900645">
  <ele>344.14</ele>
  <time>2026-09-01T20:02:00Z</time>
  <course>236.33</course>
  <speed>0.0</speed>
  <fix>3d</fix>
</trkpt>
<trkpt lat="-27.2744317" lon="151.2900646">
  <ele>343.83</ele>
  <time>2026-09-01T20:02:00Z</time>
  <course>10.78</course>
  <speed>0.01</speed>
  <fix>3d</fix>
</trkpt>
<trkpt lat="-27.2744316" lon="151.2900645">
  <ele>344.03</ele>
  <time>2026-09-01T20:02:00Z</time>
  <course>268.56</course>
  <speed>0.01</speed>
  <fix>3d</fix>
</trkpt>
<trkpt lat="-27.2744317" lon="151.2900646">
  <ele>343.78</ele>
  <time>2026-09-01T20:02:00Z</time>
  <course>10.83</course>
  <speed>0.01</speed>
  <fix>3d</fix>
</trkpt>
<trkpt lat="-27.2744316" lon="151.2900645">
  <ele>344.03</ele>
  <time>2026-09-01T20:02:00Z</time>
  <course>268.56</course>
  <speed>0.01</speed>
  <fix>3d</fix>
</trkpt>
<trkpt lat="-27.2744317" lon="151.2900646">
  <ele>343.73</ele>
  <time>2026-09-01T20:02:00Z</time>
  <course>10.86</course>
  <speed>0.01</speed>
  <fix>3d</fix>
</trkpt>
<trkpt lat="-27.2744316" lon="151.2900645">
  <ele>343.94</ele>
  <time>2026-09-01T20:02:00Z</time>
  <course>281.77</course>
  <speed>0.01</speed>
  <fix>3d</fix>
</trkpt>
<trkpt lat="-27.2744317" lon="151.2900646">
  <ele>343.69</ele>
  <time>2026-09-01T20:02:00Z</time>
  <course>10.88</course>
  <speed>0.01</speed>
  <fix>3d</fix>
</trkpt>
<trkpt lat="-27.2744316" lon="151.2900645">
  <ele>343.94</ele>
  <time>2026-09-01T20:02:00Z</time>
  <course>281.77</course>
  <speed>0.01</speed>
  <fix>3d</fix>
</trkpt>
<trkpt lat="-27.2744317" lon="151.2900646">
  <ele>343.64</ele>
  <time>2026-09-01T20:02:00Z</time>
  <course>10.88</course>
  <speed>0.01</speed>
  <fix>3d</fix>
</trkpt>
<trkpt lat="-27.2744316" lon="151.2900645">
  <ele>343.84</ele>
  <time>2026-09-01T20:02:00Z</time>
  <course>287.88</course>
  <speed>0.01</speed>
  <fix>3d</fix>
</trkpt>
<trkpt lat="-27.2744317" lon="151.2900646">
  <ele>343.59</ele>
  <time>2026-09-01T20:02:00Z</time>
  <course>10.88</course>
  <speed>0.01</speed>
  <fix>3d</fix>
</trkpt>
<trkpt lat="-27.2744316" lon="151.2900645">
  <ele>343.84</ele>
  <time>2026-09-01T20:02:00Z</time>
  <course>287.88</course>
  <speed>0.01</speed>
  <fix>3d</fix>
</trkpt>
<trkpt lat="-27.2744317" lon="151.2900646">
  <ele>343.54</ele>
  <time>2026-09-01T20:02:00Z</time>
  <course>10.88</course>
  <speed>0.01</speed>
  <fix>3d</fix>
</trkpt>
<trkpt lat="-27.2744316" lon="151.2900644">
  <ele>343.74</ele>
  <time>2026-09-01T20:02:00Z</time>
  <course>292.18</course>
  <speed>0.02</speed>
  <fix>3d</fix>
</trkpt>
<trkpt lat="-27.2744317" lon="151.2900645">
  <ele>343.49</ele>
  <time>2026-09-01T20:02:00Z</time>
  <course>10.88</course>
  <speed>0.01</speed>
  <fix>3d</fix>
</trkpt>
<trkpt lat="-27.2744316" lon="151.2900644">
  <ele>343.74</ele>
  <time>2026-09-01T20:02:00Z</time>
  <course>292.18</course>
  <speed>0.02</speed>
  <fix>3d</fix>
</trkpt>
<trkpt lat="-27.2744317" lon="151.2900645">
  <ele>343.44</ele>
  <time>2026-09-01T20:02:00Z</time>
  <course>10.88</course>
  <speed>0.0</speed>
  <fix>3d</fix>
</trkpt>
<trkpt lat="-27.2744316" lon="151.2900644">
  <ele>343.64</ele>
  <time>2026-09-01T20:02:00Z</time>
  <course>295.59</course>
  <speed>0.02</speed>
  <fix>3d</fix>
</trkpt>
<trkpt lat="-27.2744317" lon="151.2900645">
  <ele>343.39</ele>
  <time>2026-09-01T20:02:00Z</time>
  <course>10.88</course>
  <speed>0.0</speed>
  <fix>3d</fix>
</trkpt>
<trkpt lat="-27.2744316" lon="151.2900644">
  <ele>343.64</ele>
  <time>2026-09-01T20:02:00Z</time>
  <course>295.59</course>
  <speed>0.02</speed>
  <fix>3d</fix>
</trkpt>
<trkpt lat="-27.2744317" lon="151.2900645">
  <ele>343.34</ele>
  <time>2026-09-01T20:02:00Z</time>
  <course>10.88</course>
  <speed>0.01</speed>
  <fix>3d</fix>
</trkpt>
<trkpt lat="-27.2744316" lon="151.2900643">
  <ele>343.53</ele>
  <time>2026-09-01T20:02:00Z</time>
  <course>298.37</course>
  <speed>0.03</speed>
  <fix>3d</fix>
</trkpt>
<trkpt lat="-27.2744317" lon="151.2900644">
  <ele>343.29</ele>
  <time>2026-09-01T20:02:00Z</time>
  <course>10.88</course>
  <speed>0.01</speed>
  <fix>3d</fix>
</trkpt>
<trkpt lat="-27.2744316" lon="151.2900643">
  <ele>343.53</ele>
  <time>2026-09-01T20:02:00Z</time>
  <course>298.37</course>
  <speed>0.03</speed>
  <fix>3d</fix>
</trkpt>
<trkpt lat="-27.2744317" lon="151.2900644">
  <ele>343.24</ele>
  <time>2026-09-01T20:02:00Z</time>
  <course>10.88</course>
  <speed>0.01</speed>
  <fix>3d</fix>
</trkpt>
<trkpt lat="-27.2744316" lon="151.2900642">
  <ele>343.44</ele>
  <time>2026-09-01T20:02:00Z</time>
  <course>300.3</course>
  <speed>0.03</speed>
  <fix>3d</fix>
</trkpt>
<trkpt lat="-27.2744317" lon="151.2900644">
  <ele>343.19</ele>
  <time>2026-09-01T20:02:00Z</time>
  <course>10.89</course>
  <speed>0.01</speed>
  <fix>3d</fix>
</trkpt>
<trkpt lat="-27.2744316" lon="151.2900642">
  <ele>343.44</ele>
  <time>2026-09-01T20:02:00Z</time>
  <course>300.3</course>
  <speed>0.03</speed>
  <fix>3d</fix>
</trkpt>
<trkpt lat="-27.2744317" lon="151.2900643">
  <ele>343.14</ele>
  <time>2026-09-01T20:02:00Z</time>
  <course>10.89</course>
  <speed>0.01</speed>
  <fix>3d</fix>
</trkpt>
<trkpt lat="-27.2744315" lon="151.2900642">
  <ele>343.34</ele>
  <time>2026-09-01T20:02:00Z</time>
  <course>301.23</course>
  <speed>0.03</speed>
  <fix>3d</fix>
</trkpt>
<trkpt lat="-27.2744317" lon="151.2900643">
  <ele>343.09</ele>
  <time>2026-09-01T20:02:00Z</time>
  <course>10.9</course>
  <speed>0.01</speed>
  <fix>3d</fix>
</trkpt>
<trkpt lat="-27.2744315" lon="151.2900642">
  <ele>343.34</ele>
  <time>2026-09-01T20:02:00Z</time>
  <course>301.23</course>
  <speed>0.03</speed>
  <fix>3d</fix>
</trkpt>
<trkpt lat="-27.2744317" lon="151.2900643">
  <ele>343.04</ele>
  <time>2026-09-01T20:02:00Z</time>
  <course>10.9</course>
  <speed>0.01</speed>
  <fix>3d</fix>
</trkpt>
<trkpt lat="-27.2744315" lon="151.2900641">
  <ele>343.24</ele>
  <time>2026-09-01T20:02:00Z</time>
  <course>301.34</course>
  <speed>0.04</speed>
  <fix>3d</fix>
</trkpt>
<trkpt lat="-27.2744317" lon="151.2900642">
  <ele>342.99</ele>
  <time>2026-09-01T20:02:00Z</time>
  <course>10.9</course>
  <speed>0.01</speed>
  <fix>3d</fix>
</trkpt>
<trkpt lat="-27.2744315" lon="151.2900641">
  <ele>343.24</ele>
  <time>2026-09-01T20:02:00Z</time>
  <course>301.34</course>
  <speed>0.04</speed>
  <fix>3d</fix>
</trkpt>
<trkpt lat="-27.2744316" lon="151.2900642">
  <ele>342.97</ele>
  <time>2026-09-01T20:02:00Z</time>
  <course>10.9</course>
  <speed>0.022360679774997897</speed>
  <fix>3d</fix>
</trkpt>
<trkpt lat="-27.2744314" lon="151.290064">
  <ele>343.14</ele>
  <time>2026-09-01T20:02:00Z</time>
  <course>301.28</course>
  <speed>0.04</speed>
  <fix>3d</fix>
</trkpt>
<trkpt lat="-27.2744316" lon="151.2900642">
  <ele>342.98</ele>
  <time>2026-09-01T20:02:00Z</time>
  <course>10.9</course>
  <speed>0.03605551275463989</speed>
  <fix>3d</fix>
</trkpt>
<trkpt lat="-27.2744314" lon="151.290064">
  <ele>343.14</ele>
  <time>2026-09-01T20:02:00Z</time>
  <course>301.28</course>
  <speed>0.04</speed>
  <fix>3d</fix>
</trkpt>
<trkpt lat="-27.2744316" lon="151.2900642">
  <ele>342.99</ele>
  <time>2026-09-01T20:02:00Z</time>
  <course>10.9</course>
  <speed>0.03605551275463989</speed>
  <fix>3d</fix>
</trkpt>
<trkpt lat="-27.2744314" lon="151.290064">
  <ele>343.08</ele>
  <time>2026-09-01T20:02:00Z</time>
  <course>301.32</course>
  <speed>0.01</speed>
  <fix>3d</fix>
</trkpt>
<trkpt lat="-27.2744316" lon="151.2900642">
  <ele>342.99</ele>
  <time>2026-09-01T20:02:00Z</time>
  <course>10.9</course>
  <speed>0.03605551275463989</speed>
  <fix>3d</fix>
</trkpt>
<trkpt lat="-27.2744314" lon="151.290064">
  <ele>343.08</ele>
  <time>2026-09-01T20:02:00Z</time>
  <course>301.32</course>
  <speed>0.01</speed>
  <fix>3d</fix>
</trkpt>
<trkpt lat="-27.2744316" lon="151.2900642">
  <ele>342.99</ele>
  <time>2026-09-01T20:02:00Z</time>
  <course>10.9</course>
  <speed>0.022360679774997897</speed>
  <fix>3d</fix>
</trkpt>
<trkpt lat="-27.2744314" lon="151.290064">
  <ele>343.08</ele>
  <time>2026-09-01T20:02:00Z</time>
  <course>121.32</course>
  <speed>0.0</speed>
  <fix>3d</fix>
</trkpt>
<trkpt lat="-27.2744316" lon="151.2900642">
  <ele>342.99</ele>
  <time>2026-09-01T20:02:00Z</time>
  <course>10.89</course>
  <speed>0.022360679774997897</speed>
  <fix>3d</fix>
</trkpt>
<trkpt lat="-27.2744314" lon="151.290064">
  <ele>343.08</ele>
  <time>2026-09-01T20:02:00Z</time>
  <course>121.32</course>
  <speed>0.0</speed>
  <fix>3d</fix>
</trkpt>
<trkpt lat="-27.2744316" lon="151.2900642">
  <ele>342.99</ele>
  <time>2026-09-01T20:02:00Z</time>
  <course>10.89</course>
  <speed>0.022360679774997897</speed>
  <fix>3d</fix>
</trkpt>
<trkpt lat="-27.2744314" lon="151.2900641">
  <ele>343.1</ele>
  <time>2026-09-01T20:02:00Z</time>
  <course>121.32</course>
  <speed>0.0</speed>
  <fix>3d</fix>
</trkpt>
<trkpt lat="-27.2744316" lon="151.2900642">
  <ele>342.98</ele>
  <time>2026-09-01T20:02:00Z</time>
  <course>10.89</course>
  <speed>0.022360679774997897</speed>
  <fix>3d</fix>
</trkpt>
<trkpt lat="-27.2744314" lon="151.2900641">
  <ele>343.1</ele>
  <time>2026-09-01T20:02:00Z</time>
  <course>121.32</course>
  <speed>0.0</speed>
  <fix>3d</fix>
</trkpt>
<trkpt lat="-27.2744316" lon="151.2900642">
  <ele>342.98</ele>
  <time>2026-09-01T20:02:00Z</time>
  <course>10.89</course>
  <speed>0.022360679774997897</speed>
  <fix>3d</fix>
</trkpt>
<trkpt lat="-27.2744314" lon="151.2900641">
  <ele>343.09</ele>
  <time>2026-09-01T20:02:00Z</time>
  <course>301.32</course>
  <speed>0.0</speed>
  <fix>3d</fix>
</trkpt>
<trkpt lat="-27.2744316" lon="151.2900642">
  <ele>342.98</ele>
  <time>2026-09-01T20:02:00Z</time>
  <course>10.89</course>
  <speed>0.022360679774997897</speed>
  <fix>3d</fix>
</trkpt>
<trkpt lat="-27.2744314" lon="151.2900641">
  <ele>343.09</ele>
  <time>2026-09-01T20:02:00Z</time>
  <course>301.32</course>
  <speed>0.0</speed>
  <fix>3d</fix>
</trkpt>
<trkpt lat="-27.2744316" lon="151.2900642">
  <ele>342.98</ele>
  <time>2026-09-01T20:02:00Z</time>
  <course>10.89</course>
  <speed>0.022360679774997897</speed>
  <fix>3d</fix>
</trkpt>
<trkpt lat="-27.2744314" lon="151.2900641">
  <ele>343.09</ele>
  <time>2026-09-01T20:02:00Z</time>
  <course>121.2</course>
  <speed>0.0</speed>
  <fix>3d</fix>
</trkpt>
<trkpt lat="-27.2744316" lon="151.2900642">
  <ele>342.98</ele>
  <time>2026-09-01T20:02:00Z</time>
  <course>10.89</course>
  <speed>0.022360679774997897</speed>
  <fix>3d</fix>
</trkpt>
<trkpt lat="-27.2744314" lon="151.2900641">
  <ele>343.09</ele>
  <time>2026-09-01T20:02:00Z</time>
  <course>121.2</course>
  <speed>0.0</speed>
  <fix>3d</fix>
</trkpt>
<trkpt lat="-27.2744316" lon="151.2900642">
  <ele>342.98</ele>
  <time>2026-09-01T20:02:00Z</time>
  <course>10.89</course>
  <speed>0.022360679774997897</speed>
  <fix>3d</fix>
</trkpt>
<trkpt lat="-27.2744314" lon="151.2900641">
  <ele>343.09</ele>
  <time>2026-09-01T20:02:00Z</time>
  <course>121.3</course>
  <speed>0.0</speed>
  <fix>3d</fix>
</trkpt>
<trkpt lat="-27.2744316" lon="151.2900642">
  <ele>342.98</ele>
  <time>2026-09-01T20:02:00Z</time>
  <course>10.89</course>
  <speed>0.022360679774997897</speed>
  <fix>3d</fix>
</trkpt>
<trkpt lat="-27.2744314" lon="151.2900641">
  <ele>343.09</ele>
  <time>2026-09-01T20:02:00Z</time>
  <course>121.3</course>
  <speed>0.0</speed>
  <fix>3d</fix>
</trkpt>
<trkpt lat="-27.2744316" lon="151.2900642">
  <ele>342.98</ele>
  <time>2026-09-01T20:02:00Z</time>
  <course>10.89</course>
  <speed>0.022360679774997897</speed>
  <fix>3d</fix>
</trkpt>
<trkpt lat="-27.2744314" lon="151.2900641">
  <ele>343.09</ele>
  <time>2026-09-01T20:02:00Z</time>
  <course>301.37</course>
  <speed>0.0</speed>
  <fix>3d</fix>
</trkpt>
<trkpt lat="-27.2744316" lon="151.2900642">
  <ele>342.98</ele>
  <time>2026-09-01T20:02:00Z</time>
  <course>10.89</course>
  <speed>0.022360679774997897</speed>
  <fix>3d</fix>
</trkpt>
<trkpt lat="-27.2744314" lon="151.2900641">
  <ele>343.09</ele>
  <time>2026-09-01T20:02:00Z</time>
  <course>301.37</course>
  <speed>0.0</speed>
  <fix>3d</fix>
</trkpt>
<trkpt lat="-27.2744316" lon="151.2900642">
  <ele>342.98</ele>
  <time>2026-09-01T20:02:00Z</time>
  <course>10.88</course>
  <speed>0.022360679774997897</speed>
  <fix>3d</fix>
</trkpt>
<trkpt lat="-27.2744314" lon="151.2900641">
  <ele>343.09</ele>
  <time>2026-09-01T20:02:00Z</time>
  <course>301.31</course>
  <speed>0.0</speed>
  <fix>3d</fix>
</trkpt>
<trkpt lat="-27.2744316" lon="151.2900642">
  <ele>342.98</ele>
  <time>2026-09-01T20:02:00Z</time>
  <course>10.88</course>
  <speed>0.022360679774997897</speed>
  <fix>3d</fix>
</trkpt>
<trkpt lat="-27.2744314" lon="151.2900641">
  <ele>343.09</ele>
  <time>2026-09-01T20:02:00Z</time>
  <course>301.31</course>
  <speed>0.0</speed>
  <fix>3d</fix>
</trkpt>
<trkpt lat="-27.2744316" lon="151.2900642">
  <ele>342.98</ele>
  <time>2026-09-01T20:02:00Z</time>
  <course>10.88</course>
  <speed>0.022360679774997897</speed>
  <fix>3d</fix>
</trkpt>
<trkpt lat="-27.2744314" lon="151.2900641">
  <ele>343.09</ele>
  <time>2026-09-01T20:02:00Z</time>
  <course>121.35</course>
  <speed>0.0</speed>
  <fix>3d</fix>
</trkpt>
<trkpt lat="-27.2744316" lon="151.2900642">
  <ele>342.98</ele>
  <time>2026-09-01T20:02:00Z</time>
  <course>10.88</course>
  <speed>0.022360679774997897</speed>
  <fix>3d</fix>
</trkpt>
<trkpt lat="-27.2744314" lon="151.2900641">
  <ele>343.09</ele>
  <time>2026-09-01T20:02:00Z</time>
  <course>121.35</course>
  <speed>0.0</speed>
  <fix>3d</fix>
</trkpt>
<trkpt lat="-27.2744316" lon="151.2900642">
  <ele>342.98</ele>
  <time>2026-09-01T20:02:00Z</time>
  <course>10.88</course>
  <speed>0.022360679774997897</speed>
  <fix>3d</fix>
</trkpt>
<trkpt lat="-27.2744314" lon="151.2900641">
  <ele>343.09</ele>
  <time>2026-09-01T20:02:00Z</time>
  <course>121.14</course>
  <speed>0.0</speed>
  <fix>3d</fix>
</trkpt>
<trkpt lat="-27.2744316" lon="151.2900642">
  <ele>342.98</ele>
  <time>2026-09-01T20:02:00Z</time>
  <course>10.88</course>
  <speed>0.022360679774997897</speed>
  <fix>3d</fix>
</trkpt>
<trkpt lat="-27.2744314" lon="151.2900641">
  <ele>343.09</ele>
  <time>2026-09-01T20:02:00Z</time>
  <course>121.14</course>
  <speed>0.0</speed>
  <fix>3d</fix>
</trkpt>
<trkpt lat="-27.2744316" lon="151.2900642">
  <ele>342.98</ele>
  <time>2026-09-01T20:02:00Z</time>
  <course>10.88</course>
  <speed>0.022360679774997897</speed>
  <fix>3d</fix>
</trkpt>
<trkpt lat="-27.2744314" lon="151.2900641">
  <ele>343.09</ele>
  <time>2026-09-01T20:02:00Z</time>
  <course>301.11</course>
  <speed>0.0</speed>
  <fix>3d</fix>
</trkpt>
<trkpt lat="-27.2744316" lon="151.2900642">
  <ele>342.98</ele>
  <time>2026-09-01T20:02:00Z</time>
  <course>10.88</course>
  <speed>0.022360679774997897</speed>
  <fix>3d</fix>
</trkpt>
<trkpt lat="-27.2744314" lon="151.2900641">
  <ele>343.09</ele>
  <time>2026-09-01T20:02:00Z</time>
  <course>301.11</course>
  <speed>0.0</speed>
  <fix>3d</fix>
</trkpt>
<trkpt lat="-27.2744316" lon="151.2900642">
  <ele>342.98</ele>
  <time>2026-09-01T20:02:00Z</time>
  <course>10.88</course>
  <speed>0.022360679774997897</speed>
  <fix>3d</fix>
</trkpt>
<trkpt lat="-27.2744314" lon="151.2900641">
  <ele>343.09</ele>
  <time>2026-09-01T20:02:00Z</time>
  <course>278.85</course>
  <speed>0.0</speed>
  <fix>3d</fix>
</trkpt>
<trkpt lat="-27.2744316" lon="151.2900642">
  <ele>342.98</ele>
  <time>2026-09-01T20:02:00Z</time>
  <course>10.88</course>
  <speed>0.022360679774997897</speed>
  <fix>3d</fix>
</trkpt>
<trkpt lat="-27.2744314" lon="151.2900641">
  <ele>343.09</ele>
  <time>2026-09-01T20:02:00Z</time>
  <course>278.85</course>
  <speed>0.0</speed>
  <fix>3d</fix>
</trkpt>
<trkpt lat="-27.2744316" lon="151.2900642">
  <ele>342.98</ele>
  <time>2026-09-01T20:02:00Z</time>
  <course>10.88</course>
  <speed>0.022360679774997897</speed>
  <fix>3d</fix>
</trkpt>
<trkpt lat="-27.2744314" lon="151.2900641">
  <ele>343.09</ele>
  <time>2026-09-01T20:02:00Z</time>
  <course>144.93</course>
  <speed>0.0</speed>
  <fix>3d</fix>
</trkpt>
<trkpt lat="-27.2744316" lon="151.2900642">
  <ele>342.98</ele>
  <time>2026-09-01T20:02:00Z</time>
  <course>10.88</course>
  <speed>0.022360679774997897</speed>
  <fix>3d</fix>
</trkpt>
<trkpt lat="-27.2744314" lon="151.2900641">
  <ele>343.09</ele>
  <time>2026-09-01T20:02:00Z</time>
  <course>144.93</course>
  <speed>0.0</speed>
  <fix>3d</fix>
</trkpt>
<trkpt lat="-27.2744316" lon="151.2900642">
  <ele>342.98</ele>
  <time>2026-09-01T20:02:00Z</time>
  <course>10.88</course>
  <speed>0.022360679774997897</speed>
  <fix>3d</fix>
</trkpt>
<trkpt lat="-27.2744314" lon="151.2900641">
  <ele>343.09</ele>
  <time>2026-09-01T20:02:00Z</time>
  <course>201.07</course>
  <speed>0.0</speed>
  <fix>3d</fix>
</trkpt>
<trkpt lat="-27.2744316" lon="151.2900642">
  <ele>342.98</ele>
  <time>2026-09-01T20:02:00Z</time>
  <course>10.88</course>
  <speed>0.022360679774997897</speed>
  <fix>3d</fix>
</trkpt>
<trkpt lat="-27.2744314" lon="151.2900641">
  <ele>343.09</ele>
  <time>2026-09-01T20:02:00Z</time>
  <course>201.07</course>
  <speed>0.0</speed>
  <fix>3d</fix>
</trkpt>
<trkpt lat="-27.2744316" lon="151.2900642">
  <ele>342.99</ele>
  <time>2026-09-01T20:02:00Z</time>
  <course>10.88</course>
  <speed>0.022360679774997897</speed>
  <fix>3d</fix>
</trkpt>
<trkpt lat="-27.2744314" lon="151.2900641">
  <ele>343.09</ele>
  <time>2026-09-01T20:02:00Z</time>
  <course>162.21</course>
  <speed>0.0</speed>
  <fix>3d</fix>
</trkpt>
<trkpt lat="-27.2744316" lon="151.2900642">
  <ele>342.99</ele>
  <time>2026-09-01T20:02:00Z</time>
  <course>10.88</course>
  <speed>0.022360679774997897</speed>
  <fix>3d</fix>
</trkpt>
<trkpt lat="-27.2744314" lon="151.2900641">
  <ele>343.09</ele>
  <time>2026-09-01T20:02:00Z</time>
  <course>162.21</course>
  <speed>0.0</speed>
  <fix>3d</fix>
</trkpt>
<trkpt lat="-27.2744316" lon="151.2900642">
  <ele>342.99</ele>
  <time>2026-09-01T20:02:00Z</time>
  <course>10.88</course>
  <speed>0.022360679774997897</speed>
  <fix>3d</fix>
</trkpt>
<trkpt lat="-27.2744314" lon="151.2900641">
  <ele>343.09</ele>
  <time>2026-09-01T20:02:00Z</time>
  <course>146.98</course>
  <speed>0.0</speed>
  <fix>3d</fix>
</trkpt>
<trkpt lat="-27.2744316" lon="151.2900642">
  <ele>342.99</ele>
  <time>2026-09-01T20:02:00Z</time>
  <course>10.88</course>
  <speed>0.022360679774997897</speed>
  <fix>3d</fix>
</trkpt>
<trkpt lat="-27.2744314" lon="151.2900641">
  <ele>343.09</ele>
  <time>2026-09-01T20:02:00Z</time>
  <course>146.98</course>
  <speed>0.0</speed>
  <fix>3d</fix>
</trkpt>
<trkpt lat="-27.2744316" lon="151.2900642">
  <ele>342.99</ele>
  <time>2026-09-01T20:02:00Z</time>
  <course>10.88</course>
  <speed>0.022360679774997897</speed>
  <fix>3d</fix>
</trkpt>
<trkpt lat="-27.2744314" lon="151.2900641">
  <ele>343.09</ele>
  <time>2026-09-01T20:02:00Z</time>
  <course>142.67</course>
  <speed>0.0</speed>
  <fix>3d</fix>
</trkpt>
<trkpt lat="-27.2744316" lon="151.2900642">
  <ele>342.99</ele>
  <time>2026-09-01T20:02:00Z</time>
  <course>10.88</course>
  <speed>0.022360679774997897</speed>
  <fix>3d</fix>
</trkpt>
<trkpt lat="-27.2744314" lon="151.2900641">
  <ele>343.09</ele>
  <time>2026-09-01T20:02:00Z</time>
  <course>142.67</course>
  <speed>0.0</speed>
  <fix>3d</fix>
</trkpt>
<trkpt lat="-27.2744316" lon="151.2900642">
  <ele>342.99</ele>
  <time>2026-09-01T20:02:00Z</time>
  <course>10.88</course>
  <speed>0.022360679774997897</speed>
  <fix>3d</fix>
</trkpt>
<trkpt lat="-27.2744314" lon="151.2900641">
  <ele>343.09</ele>
  <time>2026-09-01T20:02:00Z</time>
  <course>146.46</course>
  <speed>0.0</speed>
  <fix>3d</fix>
</trkpt>
<trkpt lat="-27.2744316" lon="151.2900642">
  <ele>343.0</ele>
  <time>2026-09-01T20:02:00Z</time>
  <course>10.88</course>
  <speed>0.022360679774997897</speed>
  <fix>3d</fix>
</trkpt>
<trkpt lat="-27.2744314" lon="151.2900641">
  <ele>343.09</ele>
  <time>2026-09-01T20:02:00Z</time>
  <course>146.46</course>
  <speed>0.0</speed>
  <fix>3d</fix>
</trkpt>
<trkpt lat="-27.2744316" lon="151.2900642">
  <ele>343.0</ele>
  <time>2026-09-01T20:02:00Z</time>
  <course>10.88</course>
  <speed>0.022360679774997897</speed>
  <fix>3d</fix>
</trkpt>
<trkpt lat="-27.2744314" lon="151.2900641">
  <ele>343.09</ele>
  <time>2026-09-01T20:02:00Z</time>
  <course>147.96</course>
  <speed>0.0</speed>
  <fix>3d</fix>
</trkpt>
<trkpt lat="-27.2744316" lon="151.2900642">
  <ele>343.0</ele>
  <time>2026-09-01T20:02:00Z</time>
  <course>10.88</course>
  <speed>0.022360679774997897</speed>
  <fix>3d</fix>
</trkpt>
<trkpt lat="-27.2744314" lon="151.2900641">
  <ele>343.09</ele>
  <time>2026-09-01T20:02:00Z</time>
  <course>147.96</course>
  <speed>0.0</speed>
  <fix>3d</fix>
</trkpt>
<trkpt lat="-27.2744316" lon="151.2900642">
  <ele>343.0</ele>
  <time>2026-09-01T20:02:00Z</time>
  <course>10.88</course>
  <speed>0.022360679774997897</speed>
  <fix>3d</fix>
</trkpt>
<trkpt lat="-27.2744314" lon="151.2900641">
  <ele>343.09</ele>
  <time>2026-09-01T20:02:00Z</time>
  <course>135.5</course>
  <speed>0.0</speed>
  <fix>3d</fix>
</trkpt>
<trkpt lat="-27.2744316" lon="151.2900642">
  <ele>343.0</ele>
  <time>2026-09-01T20:02:00Z</time>
  <course>10.88</course>
  <speed>0.022360679774997897</speed>
  <fix>3d</fix>
</trkpt>
<trkpt lat="-27.2744314" lon="151.2900641">
  <ele>343.09</ele>
  <time>2026-09-01T20:02:00Z</time>
  <course>135.5</course>
  <speed>0.0</speed>
  <fix>3d</fix>
</trkpt>
<trkpt lat="-27.2744316" lon="151.2900642">
  <ele>343.0</ele>
  <time>2026-09-01T20:02:00Z</time>
  <course>10.88</course>
  <speed>0.022360679774997897</speed>
  <fix>3d</fix>
</trkpt>
<trkpt lat="-27.2744314" lon="151.2900641">
  <ele>343.09</ele>
  <time>2026-09-01T20:02:00Z</time>
  <course>138.88</course>
  <speed>0.0</speed>
  <fix>3d</fix>
</trkpt>
<trkpt lat="-27.2744316" lon="151.2900642">
  <ele>343.0</ele>
  <time>2026-09-01T20:02:00Z</time>
  <course>10.88</course>
  <speed>0.022360679774997897</speed>
  <fix>3d</fix>
</trkpt>
<trkpt lat="-27.2744314" lon="151.2900641">
  <ele>343.09</ele>
  <time>2026-09-01T20:02:00Z</time>
  <course>138.88</course>
  <speed>0.0</speed>
  <fix>3d</fix>
</trkpt>
<trkpt lat="-27.2744316" lon="151.2900642">
  <ele>343.0</ele>
  <time>2026-09-01T20:02:00Z</time>
  <course>10.88</course>
  <speed>0.022360679774997897</speed>
  <fix>3d</fix>
</trkpt>
<trkpt lat="-27.2744314" lon="151.2900641">
  <ele>343.09</ele>
  <time>2026-09-01T20:02:00Z</time>
  <course>128.95</course>
  <speed>0.0</speed>
  <fix>3d</fix>
</trkpt>
<trkpt lat="-27.2744316" lon="151.2900642">
  <ele>342.99</ele>
  <time>2026-09-01T20:02:00Z</time>
  <course>10.88</course>
  <speed>0.022360679774997897</speed>
  <fix>3d</fix>
</trkpt>
<trkpt lat="-27.2744314" lon="151.2900641">
  <ele>343.09</ele>
  <time>2026-09-01T20:02:00Z</time>
  <course>128.95</course>
  <speed>0.0</speed>
  <fix>3d</fix>
</trkpt>
<trkpt lat="-27.2744316" lon="151.2900642">
  <ele>342.99</ele>
  <time>2026-09-01T20:02:00Z</time>
  <course>10.88</course>
  <speed>0.022360679774997897</speed>
  <fix>3d</fix>
</trkpt>
<trkpt lat="-27.2744314" lon="151.2900641">
  <ele>343.09</ele>
  <time>2026-09-01T20:02:00Z</time>
  <course>150.48</course>
  <speed>0.0</speed>
  <fix>3d</fix>
</trkpt>
<trkpt lat="-27.2744316" lon="151.2900642">
  <ele>342.99</ele>
  <time>2026-09-01T20:02:00Z</time>
  <course>10.88</course>
  <speed>0.022360679774997897</speed>
  <fix>3d</fix>
</trkpt>
<trkpt lat="-27.2744314" lon="151.2900641">
  <ele>343.09</ele>
  <time>2026-09-01T20:02:00Z</time>
  <course>150.48</course>
  <speed>0.0</speed>
  <fix>3d</fix>
</trkpt>
<trkpt lat="-27.2744316" lon="151.2900642">
  <ele>342.99</ele>
  <time>2026-09-01T20:02:00Z</time>
  <course>10.88</course>
  <speed>0.022360679774997897</speed>
  <fix>3d</fix>
</trkpt>
<trkpt lat="-27.2744314" lon="151.2900641">
  <ele>343.09</ele>
  <time>2026-09-01T20:02:00Z</time>
  <course>149.11</course>
  <speed>0.0</speed>
  <fix>3d</fix>
</trkpt>
<trkpt lat="-27.2744316" lon="151.2900642">
  <ele>342.99</ele>
  <time>2026-09-01T20:02:00Z</time>
  <course>10.88</course>
  <speed>0.022360679774997897</speed>
  <fix>3d</fix>
</trkpt>
<trkpt lat="-27.2744314" lon="151.2900641">
  <ele>343.09</ele>
  <time>2026-09-01T20:02:00Z</time>
  <course>149.11</course>
  <speed>0.0</speed>
  <fix>3d</fix>
</trkpt>
<trkpt lat="-27.2744316" lon="151.2900642">
  <ele>342.99</ele>
  <time>2026-09-01T20:02:00Z</time>
  <course>10.88</course>
  <speed>0.022360679774997897</speed>
  <fix>3d</fix>
</trkpt>
<trkpt lat="-27.2744314" lon="151.2900641">
  <ele>343.09</ele>
  <time>2026-09-01T20:02:00Z</time>
  <course>152.15</course>
  <speed>0.0</speed>
  <fix>3d</fix>
</trkpt>
<trkpt lat="-27.2744316" lon="151.2900642">
  <ele>342.99</ele>
  <time>2026-09-01T20:02:00Z</time>
  <course>10.88</course>
  <speed>0.022360679774997897</speed>
  <fix>3d</fix>
</trkpt>
<trkpt lat="-27.2744314" lon="151.2900641">
  <ele>343.09</ele>
  <time>2026-09-01T20:02:00Z</time>
  <course>152.15</course>
  <speed>0.0</speed>
  <fix>3d</fix>
</trkpt>
<trkpt lat="-27.2744316" lon="151.2900642">
  <ele>342.99</ele>
  <time>2026-09-01T20:02:00Z</time>
  <course>10.88</course>
  <speed>0.022360679774997897</speed>
  <fix>3d</fix>
</trkpt>
<trkpt lat="-27.2744314" lon="151.2900641">
  <ele>343.09</ele>
  <time>2026-09-01T20:02:00Z</time>
  <course>151.56</course>
  <speed>0.0</speed>
  <fix>3d</fix>
</trkpt>
<trkpt lat="-27.2744316" lon="151.2900642">
  <ele>342.99</ele>
  <time>2026-09-01T20:02:00Z</time>
  <course>10.88</course>
  <speed>0.022360679774997897</speed>
  <fix>3d</fix>
</trkpt>
<trkpt lat="-27.2744314" lon="151.2900641">
  <ele>343.09</ele>
  <time>2026-09-01T20:02:00Z</time>
  <course>151.56</course>
  <speed>0.0</speed>
  <fix>3d</fix>
</trkpt>
<trkpt lat="-27.2744316" lon="151.2900642">
  <ele>342.99</ele>
  <time>2026-09-01T20:02:00Z</time>
  <course>10.89</course>
  <speed>0.022360679774997897</speed>
  <fix>3d</fix>
</trkpt>
<trkpt lat="-27.2744314" lon="151.2900641">
  <ele>343.09</ele>
  <time>2026-09-01T20:02:00Z</time>
  <course>141.73</course>
  <speed>0.0</speed>
  <fix>3d</fix>
</trkpt>
<trkpt lat="-27.2744316" lon="151.2900642">
  <ele>342.99</ele>
  <time>2026-09-01T20:02:00Z</time>
  <course>10.89</course>
  <speed>0.022360679774997897</speed>
  <fix>3d</fix>
</trkpt>
<trkpt lat="-27.2744314" lon="151.2900641">
  <ele>343.09</ele>
  <time>2026-09-01T20:02:00Z</time>
  <course>141.73</course>
  <speed>0.0</speed>
  <fix>3d</fix>
</trkpt>
<trkpt lat="-27.2744316" lon="151.2900642">
  <ele>342.99</ele>
  <time>2026-09-01T20:02:00Z</time>
  <course>10.89</course>
  <speed>0.022360679774997897</speed>
  <fix>3d</fix>
</trkpt>
<trkpt lat="-27.2744314" lon="151.2900641">
  <ele>343.09</ele>
  <time>2026-09-01T20:02:00Z</time>
  <course>144.27</course>
  <speed>0.0</speed>
  <fix>3d</fix>
</trkpt>
<trkpt lat="-27.2744316" lon="151.2900642">
  <ele>342.99</ele>
  <time>2026-09-01T20:02:00Z</time>
  <course>10.89</course>
  <speed>0.022360679774997897</speed>
  <fix>3d</fix>
</trkpt>
<trkpt lat="-27.2744314" lon="151.2900641">
  <ele>343.09</ele>
  <time>2026-09-01T20:02:00Z</time>
  <course>144.27</course>
  <speed>0.0</speed>
  <fix>3d</fix>
</trkpt>
<trkpt lat="-27.2744316" lon="151.2900642">
  <ele>342.99</ele>
  <time>2026-09-01T20:02:00Z</time>
  <course>10.89</course>
  <speed>0.022360679774997897</speed>
  <fix>3d</fix>
</trkpt>
<trkpt lat="-27.2744314" lon="151.2900641">
  <ele>343.09</ele>
  <time>2026-09-01T20:02:00Z</time>
  <course>138.65</course>
  <speed>0.0</speed>
  <fix>3d</fix>
</trkpt>
<trkpt lat="-27.2744316" lon="151.2900642">
  <ele>342.99</ele>
  <time>2026-09-01T20:02:00Z</time>
  <course>10.89</course>
  <speed>0.022360679774997897</speed>
  <fix>3d</fix>
</trkpt>
<trkpt lat="-27.2744314" lon="151.2900641">
  <ele>343.09</ele>
  <time>2026-09-01T20:02:00Z</time>
  <course>138.65</course>
  <speed>0.0</speed>
  <fix>3d</fix>
</trkpt>
<trkpt lat="-27.2744316" lon="151.2900642">
  <ele>342.99</ele>
  <time>2026-09-01T20:02:00Z</time>
  <course>10.89</course>
  <speed>0.022360679774997897</speed>
  <fix>3d</fix>
</trkpt>
<trkpt lat="-27.2744314" lon="151.2900641">
  <ele>343.09</ele>
  <time>2026-09-01T20:02:00Z</time>
  <course>139.97</course>
  <speed>0.0</speed>
  <fix>3d</fix>
</trkpt>
<trkpt lat="-27.2744316" lon="151.2900642">
  <ele>342.99</ele>
  <time>2026-09-01T20:02:00Z</time>
  <course>10.89</course>
  <speed>0.022360679774997897</speed>
  <fix>3d</fix>
</trkpt>
<trkpt lat="-27.2744314" lon="151.2900641">
  <ele>343.09</ele>
  <time>2026-09-01T20:02:00Z</time>
  <course>139.97</course>
  <speed>0.0</speed>
  <fix>3d</fix>
</trkpt>
<trkpt lat="-27.2744316" lon="151.2900642">
  <ele>342.99</ele>
  <time>2026-09-01T20:02:00Z</time>
  <course>10.92</course>
  <speed>0.022360679774997897</speed>
  <fix>3d</fix>
</trkpt>
<trkpt lat="-27.2744314" lon="151.2900641">
  <ele>343.09</ele>
  <time>2026-09-01T20:02:00Z</time>
  <course>305.17</course>
  <speed>0.0</speed>
  <fix>3d</fix>
</trkpt>
<trkpt lat="-27.2744316" lon="151.2900642">
  <ele>342.98</ele>
  <time>2026-09-01T20:02:00Z</time>
  <course>10.98</course>
  <speed>0.022360679774997897</speed>
  <fix>3d</fix>
</trkpt>
<trkpt lat="-27.2744314" lon="151.2900641">
  <ele>343.09</ele>
  <time>2026-09-01T20:02:00Z</time>
  <course>305.17</course>
  <speed>0.0</speed>
  <fix>3d</fix>
</trkpt>
<trkpt lat="-27.2744316" lon="151.2900642">
  <ele>342.99</ele>
  <time>2026-09-01T20:02:00Z</time>
  <course>11.05</course>
  <speed>0.022360679774997897</speed>
  <fix>3d</fix>
</trkpt>
<trkpt lat="-27.2744314" lon="151.2900641">
  <ele>343.09</ele>
  <time>2026-09-01T20:02:00Z</time>
  <course>309.1</course>
  <speed>0.0</speed>
  <fix>3d</fix>
</trkpt>
<trkpt lat="-27.2744316" lon="151.2900642">
  <ele>342.99</ele>
  <time>2026-09-01T20:02:00Z</time>
  <course>11.13</course>
  <speed>0.022360679774997897</speed>
  <fix>3d</fix>
</trkpt>
<trkpt lat="-27.2744314" lon="151.2900641">
  <ele>343.09</ele>
  <time>2026-09-01T20:02:00Z</time>
  <course>309.1</course>
  <speed>0.0</speed>
  <fix>3d</fix>
</trkpt>
<trkpt lat="-27.2744316" lon="151.2900642">
  <ele>342.99</ele>
  <time>2026-09-01T20:02:00Z</time>
  <course>11.2</course>
  <speed>0.022360679774997897</speed>
  <fix>3d</fix>
</trkpt>
<trkpt lat="-27.2744314" lon="151.2900641">
  <ele>343.09</ele>
  <time>2026-09-01T20:02:00Z</time>
  <course>309.52</course>
  <speed>0.0</speed>
  <fix>3d</fix>
</trkpt>
<trkpt lat="-27.2744316" lon="151.2900642">
  <ele>342.99</ele>
  <time>2026-09-01T20:02:00Z</time>
  <course>11.26</course>
  <speed>0.022360679774997897</speed>
  <fix>3d</fix>
</trkpt>
<trkpt lat="-27.2744314" lon="151.2900641">
  <ele>343.09</ele>
  <time>2026-09-01T20:02:00Z</time>
  <course>309.52</course>
  <speed>0.0</speed>
  <fix>3d</fix>
</trkpt>
<trkpt lat="-27.2744316" lon="151.2900642">
  <ele>343.09</ele>
  <time>2026-09-01T20:02:00Z</time>
  <course>11.32</course>
  <speed>0.022360679774997897</speed>
  <fix>3d</fix>
</trkpt>
<trkpt lat="-27.2744314" lon="151.2900641">
  <ele>343.09</ele>
  <time>2026-09-01T20:02:00Z</time>
  <course>129.27</course>
  <speed>0.0</speed>
  <fix>3d</fix>
</trkpt>
<trkpt lat="-27.2744316" lon="151.2900642">
  <ele>343.09</ele>
  <time>2026-09-01T20:02:00Z</time>
  <course>11.37</course>
  <speed>0.022360679774997897</speed>
  <fix>3d</fix>
</trkpt>
<trkpt lat="-27.2744314" lon="151.2900641">
  <ele>343.09</ele>
  <time>2026-09-01T20:02:00Z</time>
  <course>129.27</course>
  <speed>0.0</speed>
  <fix>3d</fix>
</trkpt>
<trkpt lat="-27.2744316" lon="151.2900642">
  <ele>343.08</ele>
  <time>2026-09-01T20:02:00Z</time>
  <course>11.41</course>
  <speed>0.022360679774997897</speed>
  <fix>3d</fix>
</trkpt>
<trkpt lat="-27.2744314" lon="151.2900641">
  <ele>343.09</ele>
  <time>2026-09-01T20:02:00Z</time>
  <course>129.6</course>
  <speed>0.0</speed>
  <fix>3d</fix>
</trkpt>
<trkpt lat="-27.2744316" lon="151.2900642">
  <ele>343.08</ele>
  <time>2026-09-01T20:02:00Z</time>
  <course>11.46</course>
  <speed>0.022360679774997897</speed>
  <fix>3d</fix>
</trkpt>
<trkpt lat="-27.2744314" lon="151.2900641">
  <ele>343.09</ele>
  <time>2026-09-01T20:02:00Z</time>
  <course>129.6</course>
  <speed>0.0</speed>
  <fix>3d</fix>
</trkpt>
<trkpt lat="-27.2744316" lon="151.2900642">
  <ele>343.08</ele>
  <time>2026-09-01T20:02:00Z</time>
  <course>11.5</course>
  <speed>0.022360679774997897</speed>
  <fix>3d</fix>
</trkpt>
<trkpt lat="-27.2744314" lon="151.2900641">
  <ele>343.09</ele>
  <time>2026-09-01T20:02:00Z</time>
  <course>309.35</course>
  <speed>0.0</speed>
  <fix>3d</fix>
</trkpt>
<trkpt lat="-27.2744316" lon="151.2900642">
  <ele>343.07</ele>
  <time>2026-09-01T20:02:00Z</time>
  <course>11.54</course>
  <speed>0.022360679774997897</speed>
  <fix>3d</fix>
</trkpt>
<trkpt lat="-27.2744314" lon="151.2900641">
  <ele>343.09</ele>
  <time>2026-09-01T20:02:00Z</time>
  <course>309.35</course>
  <speed>0.0</speed>
  <fix>3d</fix>
</trkpt>
<trkpt lat="-27.2744316" lon="151.2900642">
  <ele>343.06</ele>
  <time>2026-09-01T20:02:00Z</time>
  <course>11.57</course>
  <speed>0.022360679774997897</speed>
  <fix>3d</fix>
</trkpt>
<trkpt lat="-27.2744314" lon="151.2900641">
  <ele>343.09</ele>
  <time>2026-09-01T20:02:00Z</time>
  <course>309.82</course>
  <speed>0.0</speed>
  <fix>3d</fix>
</trkpt>
<trkpt lat="-27.2744316" lon="151.2900642">
  <ele>343.05</ele>
  <time>2026-09-01T20:02:00Z</time>
  <course>11.61</course>
  <speed>0.022360679774997897</speed>
  <fix>3d</fix>
</trkpt>
<trkpt lat="-27.2744314" lon="151.2900641">
  <ele>343.09</ele>
  <time>2026-09-01T20:02:00Z</time>
  <course>309.82</course>
  <speed>0.0</speed>
  <fix>3d</fix>
</trkpt>
<trkpt lat="-27.2744316" lon="151.2900642">
  <ele>343.04</ele>
  <time>2026-09-01T20:02:00Z</time>
  <course>11.64</course>
  <speed>0.022360679774997897</speed>
  <fix>3d</fix>
</trkpt>
<trkpt lat="-27.2744314" lon="151.2900641">
  <ele>343.09</ele>
  <time>2026-09-01T20:02:00Z</time>
  <course>129.4</course>
  <speed>0.0</speed>
  <fix>3d</fix>
</trkpt>
<trkpt lat="-27.2744316" lon="151.2900642">
  <ele>343.04</ele>
  <time>2026-09-01T20:02:00Z</time>
  <course>11.67</course>
  <speed>0.022360679774997897</speed>
  <fix>3d</fix>
</trkpt>
<trkpt lat="-27.2744314" lon="151.2900641">
  <ele>343.09</ele>
  <time>2026-09-01T20:02:00Z</time>
  <course>129.4</course>
  <speed>0.0</speed>
  <fix>3d</fix>
</trkpt>
<trkpt lat="-27.2744316" lon="151.2900642">
  <ele>343.03</ele>
  <time>2026-09-01T20:02:00Z</time>
  <course>11.7</course>
  <speed>0.022360679774997897</speed>
  <fix>3d</fix>
</trkpt>
<trkpt lat="-27.2744314" lon="151.2900641">
  <ele>343.09</ele>
  <time>2026-09-01T20:02:00Z</time>
  <course>138.67</course>
  <speed>0.0</speed>
  <fix>3d</fix>
</trkpt>
<trkpt lat="-27.2744316" lon="151.2900642">
  <ele>343.03</ele>
  <time>2026-09-01T20:02:00Z</time>
  <course>11.73</course>
  <speed>0.022360679774997897</speed>
  <fix>3d</fix>
</trkpt>
<trkpt lat="-27.2744314" lon="151.2900641">
  <ele>343.09</ele>
  <time>2026-09-01T20:02:00Z</time>
  <course>138.67</course>
  <speed>0.0</speed>
  <fix>3d</fix>
</trkpt>
<trkpt lat="-27.2744316" lon="151.2900642">
  <ele>343.02</ele>
  <time>2026-09-01T20:02:00Z</time>
  <course>11.76</course>
  <speed>0.022360679774997897</speed>
  <fix>3d</fix>
</trkpt>
<trkpt lat="-27.2744314" lon="151.2900641">
  <ele>343.09</ele>
  <time>2026-09-01T20:02:00Z</time>
  <course>309.45</course>
  <speed>0.0</speed>
  <fix>3d</fix>
</trkpt>
<trkpt lat="-27.2744316" lon="151.2900642">
  <ele>343.02</ele>
  <time>2026-09-01T20:02:00Z</time>
  <course>11.78</course>
  <speed>0.022360679774997897</speed>
  <fix>3d</fix>
</trkpt>
<trkpt lat="-27.2744314" lon="151.2900641">
  <ele>343.09</ele>
  <time>2026-09-01T20:02:00Z</time>
  <course>309.45</course>
  <speed>0.0</speed>
  <fix>3d</fix>
</trkpt>
<trkpt lat="-27.2744316" lon="151.2900642">
  <ele>343.0</ele>
  <time>2026-09-01T20:02:01Z</time>
  <course>11.87</course>
  <speed>0.01414213562373095</speed>
  <fix>3d</fix>
</trkpt>
<trkpt lat="-27.2744314" lon="151.2900641">
  <ele>343.09</ele>
  <time>2026-09-01T20:02:01Z</time>
  <course>129.5</course>
  <speed>0.0</speed>
  <fix>3d</fix>
</trkpt>
<trkpt lat="-27.2744316" lon="151.2900642">
  <ele>343.0</ele>
  <time>2026-09-01T20:02:01Z</time>
  <course>11.94</course>
  <speed>0.01414213562373095</speed>
  <fix>3d</fix>
</trkpt>
<trkpt lat="-27.2744314" lon="151.2900641">
  <ele>343.09</ele>
  <time>2026-09-01T20:02:01Z</time>
  <course>309.57</course>
  <speed>0.0</speed>
  <fix>3d</fix>
</trkpt>
<trkpt lat="-27.2744316" lon="151.2900642">
  <ele>343.0</ele>
  <time>2026-09-01T20:02:01Z</time>
  <course>11.96</course>
  <speed>0.01414213562373095</speed>
  <fix>3d</fix>
</trkpt>
<trkpt lat="-27.2744314" lon="151.2900641">
  <ele>343.09</ele>
  <time>2026-09-01T20:02:01Z</time>
  <course>129.33</course>
  <speed>0.0</speed>
  <fix>3d</fix>
</trkpt>
<trkpt lat="-27.2744316" lon="151.2900642">
  <ele>343.0</ele>
  <time>2026-09-01T20:02:01Z</time>
  <course>11.98</course>
  <speed>0.01414213562373095</speed>
  <fix>3d</fix>
</trkpt>
<trkpt lat="-27.2744314" lon="151.2900641">
  <ele>343.09</ele>
  <time>2026-09-01T20:02:01Z</time>
  <course>129.33</course>
  <speed>0.0</speed>
  <fix>3d</fix>
</trkpt>
<trkpt lat="-27.2744316" lon="151.2900642">
  <ele>342.99</ele>
  <time>2026-09-01T20:02:01Z</time>
  <course>11.99</course>
  <speed>0.01414213562373095</speed>
  <fix>3d</fix>
</trkpt>
<trkpt lat="-27.2744314" lon="151.2900641">
  <ele>343.09</ele>
  <time>2026-09-01T20:02:01Z</time>
  <course>129.73</course>
  <speed>0.0</speed>
  <fix>3d</fix>
</trkpt>
<trkpt lat="-27.2744316" lon="151.2900642">
  <ele>342.99</ele>
  <time>2026-09-01T20:02:01Z</time>
  <course>12.01</course>
  <speed>0.01414213562373095</speed>
  <fix>3d</fix>
</trkpt>
<trkpt lat="-27.2744314" lon="151.2900641">
  <ele>343.09</ele>
  <time>2026-09-01T20:02:01Z</time>
  <course>129.73</course>
  <speed>0.0</speed>
  <fix>3d</fix>
</trkpt>
<trkpt lat="-27.2744316" lon="151.2900642">
  <ele>342.99</ele>
  <time>2026-09-01T20:02:01Z</time>
  <course>12.02</course>
  <speed>0.01414213562373095</speed>
  <fix>3d</fix>
</trkpt>
<trkpt lat="-27.2744314" lon="151.2900641">
  <ele>343.09</ele>
  <time>2026-09-01T20:02:01Z</time>
  <course>309.39</course>
  <speed>0.0</speed>
  <fix>3d</fix>
</trkpt>
<trkpt lat="-27.2744316" lon="151.2900642">
  <ele>342.98</ele>
  <time>2026-09-01T20:02:01Z</time>
  <course>12.04</course>
  <speed>0.01414213562373095</speed>
  <fix>3d</fix>
</trkpt>
<trkpt lat="-27.2744314" lon="151.2900641">
  <ele>343.09</ele>
  <time>2026-09-01T20:02:01Z</time>
  <course>309.39</course>
  <speed>0.0</speed>
  <fix>3d</fix>
</trkpt>
<trkpt lat="-27.2744316" lon="151.2900642">
  <ele>342.98</ele>
  <time>2026-09-01T20:02:01Z</time>
  <course>12.05</course>
  <speed>0.01414213562373095</speed>
  <fix>3d</fix>
</trkpt>
<trkpt lat="-27.2744314" lon="151.2900641">
  <ele>343.09</ele>
  <time>2026-09-01T20:02:01Z</time>
  <course>310.69</course>
  <speed>0.0</speed>
  <fix>3d</fix>
</trkpt>
<trkpt lat="-27.2744316" lon="151.2900642">
  <ele>342.98</ele>
  <time>2026-09-01T20:02:01Z</time>
  <course>12.06</course>
  <speed>0.01414213562373095</speed>
  <fix>3d</fix>
</trkpt>
<trkpt lat="-27.2744314" lon="151.2900641">
  <ele>343.09</ele>
  <time>2026-09-01T20:02:01Z</time>
  <course>310.69</course>
  <speed>0.0</speed>
  <fix>3d</fix>
</trkpt>
<trkpt lat="-27.2744316" lon="151.2900642">
  <ele>342.98</ele>
  <time>2026-09-01T20:02:01Z</time>
  <course>12.07</course>
  <speed>0.01414213562373095</speed>
  <fix>3d</fix>
</trkpt>
<trkpt lat="-27.2744314" lon="151.2900641">
  <ele>343.09</ele>
  <time>2026-09-01T20:02:01Z</time>
  <course>129.44</course>
  <speed>0.0</speed>
  <fix>3d</fix>
</trkpt>
<trkpt lat="-27.2744316" lon="151.2900642">
  <ele>342.98</ele>
  <time>2026-09-01T20:02:01Z</time>
  <course>12.09</course>
  <speed>0.01414213562373095</speed>
  <fix>3d</fix>
</trkpt>
<trkpt lat="-27.2744314" lon="151.2900641">
  <ele>343.09</ele>
  <time>2026-09-01T20:02:01Z</time>
  <course>129.44</course>
  <speed>0.0</speed>
  <fix>3d</fix>
</trkpt>
<trkpt lat="-27.2744316" lon="151.2900642">
  <ele>342.98</ele>
  <time>2026-09-01T20:02:01Z</time>
  <course>12.1</course>
  <speed>0.01414213562373095</speed>
  <fix>3d</fix>
</trkpt>
<trkpt lat="-27.2744314" lon="151.2900641">
  <ele>343.09</ele>
  <time>2026-09-01T20:02:01Z</time>
  <course>308.87</course>
  <speed>0.0</speed>
  <fix>3d</fix>
</trkpt>
<trkpt lat="-27.2744316" lon="151.2900642">
  <ele>342.97</ele>
  <time>2026-09-01T20:02:01Z</time>
  <course>12.11</course>
  <speed>0.01414213562373095</speed>
  <fix>3d</fix>
</trkpt>
<trkpt lat="-27.2744314" lon="151.2900641">
  <ele>343.09</ele>
  <time>2026-09-01T20:02:01Z</time>
  <course>308.87</course>
  <speed>0.0</speed>
  <fix>3d</fix>
</trkpt>
<trkpt lat="-27.2744316" lon="151.2900642">
  <ele>342.97</ele>
  <time>2026-09-01T20:02:01Z</time>
  <course>12.12</course>
  <speed>0.01414213562373095</speed>
  <fix>3d</fix>
</trkpt>
<trkpt lat="-27.2744314" lon="151.2900641">
  <ele>343.09</ele>
  <time>2026-09-01T20:02:01Z</time>
  <course>309.65</course>
  <speed>0.0</speed>
  <fix>3d</fix>
</trkpt>
<trkpt lat="-27.2744316" lon="151.2900642">
  <ele>342.97</ele>
  <time>2026-09-01T20:02:01Z</time>
  <course>12.13</course>
  <speed>0.01414213562373095</speed>
  <fix>3d</fix>
</trkpt>
<trkpt lat="-27.2744314" lon="151.2900641">
  <ele>343.09</ele>
  <time>2026-09-01T20:02:01Z</time>
  <course>309.65</course>
  <speed>0.0</speed>
  <fix>3d</fix>
</trkpt>
<trkpt lat="-27.2744316" lon="151.2900642">
  <ele>342.97</ele>
  <time>2026-09-01T20:02:01Z</time>
  <course>12.14</course>
  <speed>0.01414213562373095</speed>
  <fix>3d</fix>
</trkpt>
<trkpt lat="-27.2744314" lon="151.2900641">
  <ele>343.09</ele>
  <time>2026-09-01T20:02:01Z</time>
  <course>129.71</course>
  <speed>0.0</speed>
  <fix>3d</fix>
</trkpt>
<trkpt lat="-27.2744316" lon="151.2900642">
  <ele>342.97</ele>
  <time>2026-09-01T20:02:01Z</time>
  <course>12.15</course>
  <speed>0.01414213562373095</speed>
  <fix>3d</fix>
</trkpt>
<trkpt lat="-27.2744314" lon="151.2900641">
  <ele>343.09</ele>
  <time>2026-09-01T20:02:01Z</time>
  <course>129.71</course>
  <speed>0.0</speed>
  <fix>3d</fix>
</trkpt>
<trkpt lat="-27.2744316" lon="151.2900642">
  <ele>342.97</ele>
  <time>2026-09-01T20:02:01Z</time>
  <course>12.16</course>
  <speed>0.01414213562373095</speed>
  <fix>3d</fix>
</trkpt>
<trkpt lat="-27.2744314" lon="151.2900641">
  <ele>343.09</ele>
  <time>2026-09-01T20:02:01Z</time>
  <course>130.36</course>
  <speed>0.0</speed>
  <fix>3d</fix>
</trkpt>
<trkpt lat="-27.2744316" lon="151.2900642">
  <ele>342.97</ele>
  <time>2026-09-01T20:02:01Z</time>
  <course>12.17</course>
  <speed>0.01414213562373095</speed>
  <fix>3d</fix>
</trkpt>
<trkpt lat="-27.2744314" lon="151.2900641">
  <ele>343.09</ele>
  <time>2026-09-01T20:02:01Z</time>
  <course>130.36</course>
  <speed>0.0</speed>
  <fix>3d</fix>
</trkpt>
<trkpt lat="-27.2744316" lon="151.2900642">
  <ele>342.97</ele>
  <time>2026-09-01T20:02:01Z</time>
  <course>12.18</course>
  <speed>0.01414213562373095</speed>
  <fix>3d</fix>
</trkpt>
<trkpt lat="-27.2744314" lon="151.2900641">
  <ele>343.09</ele>
  <time>2026-09-01T20:02:01Z</time>
  <course>295.89</course>
  <speed>0.0</speed>
  <fix>3d</fix>
</trkpt>
<trkpt lat="-27.2744316" lon="151.2900642">
  <ele>342.97</ele>
  <time>2026-09-01T20:02:01Z</time>
  <course>12.19</course>
  <speed>0.01414213562373095</speed>
  <fix>3d</fix>
</trkpt>
<trkpt lat="-27.2744314" lon="151.2900641">
  <ele>343.09</ele>
  <time>2026-09-01T20:02:01Z</time>
  <course>295.89</course>
  <speed>0.0</speed>
  <fix>3d</fix>
</trkpt>
<trkpt lat="-27.2744316" lon="151.2900642">
  <ele>342.97</ele>
  <time>2026-09-01T20:02:01Z</time>
  <course>12.2</course>
  <speed>0.01414213562373095</speed>
  <fix>3d</fix>
</trkpt>
<trkpt lat="-27.2744314" lon="151.2900641">
  <ele>343.09</ele>
  <time>2026-09-01T20:02:01Z</time>
  <course>274.85</course>
  <speed>0.0</speed>
  <fix>3d</fix>
</trkpt>
<trkpt lat="-27.2744316" lon="151.2900642">
  <ele>342.97</ele>
  <time>2026-09-01T20:02:01Z</time>
  <course>12.21</course>
  <speed>0.01414213562373095</speed>
  <fix>3d</fix>
</trkpt>
<trkpt lat="-27.2744314" lon="151.2900641">
  <ele>343.09</ele>
  <time>2026-09-01T20:02:01Z</time>
  <course>274.85</course>
  <speed>0.0</speed>
  <fix>3d</fix>
</trkpt>
<trkpt lat="-27.2744316" lon="151.2900642">
  <ele>342.96</ele>
  <time>2026-09-01T20:02:01Z</time>
  <course>12.22</course>
  <speed>0.01414213562373095</speed>
  <fix>3d</fix>
</trkpt>
<trkpt lat="-27.2744314" lon="151.2900641">
  <ele>343.09</ele>
  <time>2026-09-01T20:02:01Z</time>
  <course>266.84</course>
  <speed>0.0</speed>
  <fix>3d</fix>
</trkpt>
<trkpt lat="-27.2744316" lon="151.2900642">
  <ele>342.96</ele>
  <time>2026-09-01T20:02:01Z</time>
  <course>12.22</course>
  <speed>0.01414213562373095</speed>
  <fix>3d</fix>
</trkpt>
<trkpt lat="-27.2744314" lon="151.2900641">
  <ele>343.09</ele>
  <time>2026-09-01T20:02:01Z</time>
  <course>266.84</course>
  <speed>0.0</speed>
  <fix>3d</fix>
</trkpt>
<trkpt lat="-27.2744316" lon="151.2900642">
  <ele>342.96</ele>
  <time>2026-09-01T20:02:01Z</time>
  <course>12.23</course>
  <speed>0.01414213562373095</speed>
  <fix>3d</fix>
</trkpt>
<trkpt lat="-27.2744314" lon="151.2900641">
  <ele>343.09</ele>
  <time>2026-09-01T20:02:01Z</time>
  <course>269.8</course>
  <speed>0.0</speed>
  <fix>3d</fix>
</trkpt>
<trkpt lat="-27.2744316" lon="151.2900642">
  <ele>342.96</ele>
  <time>2026-09-01T20:02:01Z</time>
  <course>12.24</course>
  <speed>0.01414213562373095</speed>
  <fix>3d</fix>
</trkpt>
<trkpt lat="-27.2744314" lon="151.2900641">
  <ele>343.09</ele>
  <time>2026-09-01T20:02:01Z</time>
  <course>269.8</course>
  <speed>0.0</speed>
  <fix>3d</fix>
</trkpt>
<trkpt lat="-27.2744316" lon="151.2900642">
  <ele>342.96</ele>
  <time>2026-09-01T20:02:01Z</time>
  <course>12.25</course>
  <speed>0.01414213562373095</speed>
  <fix>3d</fix>
</trkpt>
<trkpt lat="-27.2744314" lon="151.2900641">
  <ele>343.09</ele>
  <time>2026-09-01T20:02:01Z</time>
  <course>270.99</course>
  <speed>0.0</speed>
  <fix>3d</fix>
</trkpt>
<trkpt lat="-27.2744316" lon="151.2900642">
  <ele>342.96</ele>
  <time>2026-09-01T20:02:01Z</time>
  <course>12.25</course>
  <speed>0.01414213562373095</speed>
  <fix>3d</fix>
</trkpt>
<trkpt lat="-27.2744314" lon="151.2900641">
  <ele>343.09</ele>
  <time>2026-09-01T20:02:01Z</time>
  <course>270.99</course>
  <speed>0.0</speed>
  <fix>3d</fix>
</trkpt>
<trkpt lat="-27.2744316" lon="151.2900642">
  <ele>342.96</ele>
  <time>2026-09-01T20:02:01Z</time>
  <course>12.26</course>
  <speed>0.01414213562373095</speed>
  <fix>3d</fix>
</trkpt>
<trkpt lat="-27.2744314" lon="151.2900641">
  <ele>343.09</ele>
  <time>2026-09-01T20:02:01Z</time>
  <course>270.96</course>
  <speed>0.0</speed>
  <fix>3d</fix>
</trkpt>
<trkpt lat="-27.2744316" lon="151.2900642">
  <ele>342.96</ele>
  <time>2026-09-01T20:02:01Z</time>
  <course>12.27</course>
  <speed>0.01414213562373095</speed>
  <fix>3d</fix>
</trkpt>
<trkpt lat="-27.2744314" lon="151.2900641">
  <ele>343.09</ele>
  <time>2026-09-01T20:02:01Z</time>
  <course>270.96</course>
  <speed>0.0</speed>
  <fix>3d</fix>
</trkpt>
<trkpt lat="-27.2744316" lon="151.2900642">
  <ele>342.95</ele>
  <time>2026-09-01T20:02:01Z</time>
  <course>12.27</course>
  <speed>0.01414213562373095</speed>
  <fix>3d</fix>
</trkpt>
<trkpt lat="-27.2744314" lon="151.2900641">
  <ele>343.09</ele>
  <time>2026-09-01T20:02:01Z</time>
  <course>270.93</course>
  <speed>0.0</speed>
  <fix>3d</fix>
</trkpt>
<trkpt lat="-27.2744316" lon="151.2900642">
  <ele>342.95</ele>
  <time>2026-09-01T20:02:01Z</time>
  <course>12.28</course>
  <speed>0.01414213562373095</speed>
  <fix>3d</fix>
</trkpt>
<trkpt lat="-27.2744314" lon="151.2900641">
  <ele>343.09</ele>
  <time>2026-09-01T20:02:01Z</time>
  <course>270.93</course>
  <speed>0.0</speed>
  <fix>3d</fix>
</trkpt>
<trkpt lat="-27.2744316" lon="151.2900642">
  <ele>342.95</ele>
  <time>2026-09-01T20:02:01Z</time>
  <course>12.29</course>
  <speed>0.01414213562373095</speed>
  <fix>3d</fix>
</trkpt>
<trkpt lat="-27.2744314" lon="151.2900641">
  <ele>343.09</ele>
  <time>2026-09-01T20:02:01Z</time>
  <course>270.93</course>
  <speed>0.0</speed>
  <fix>3d</fix>
</trkpt>
<trkpt lat="-27.2744316" lon="151.2900642">
  <ele>342.95</ele>
  <time>2026-09-01T20:02:01Z</time>
  <course>12.29</course>
  <speed>0.01414213562373095</speed>
  <fix>3d</fix>
</trkpt>
<trkpt lat="-27.2744314" lon="151.2900641">
  <ele>343.09</ele>
  <time>2026-09-01T20:02:01Z</time>
  <course>270.93</course>
  <speed>0.0</speed>
  <fix>3d</fix>
</trkpt>
<trkpt lat="-27.2744316" lon="151.2900642">
  <ele>342.95</ele>
  <time>2026-09-01T20:02:01Z</time>
  <course>12.3</course>
  <speed>0.01414213562373095</speed>
  <fix>3d</fix>
</trkpt>
<trkpt lat="-27.2744314" lon="151.2900641">
  <ele>343.09</ele>
  <time>2026-09-01T20:02:01Z</time>
  <course>270.93</course>
  <speed>0.0</speed>
  <fix>3d</fix>
</trkpt>
<trkpt lat="-27.2744316" lon="151.2900642">
  <ele>342.95</ele>
  <time>2026-09-01T20:02:01Z</time>
  <course>12.31</course>
  <speed>0.022360679774997897</speed>
  <fix>3d</fix>
</trkpt>
<trkpt lat="-27.2744314" lon="151.2900641">
  <ele>343.09</ele>
  <time>2026-09-01T20:02:01Z</time>
  <course>270.93</course>
  <speed>0.0</speed>
  <fix>3d</fix>
</trkpt>
<trkpt lat="-27.2744316" lon="151.2900642">
  <ele>342.95</ele>
  <time>2026-09-01T20:02:01Z</time>
  <course>12.31</course>
  <speed>0.022360679774997897</speed>
  <fix>3d</fix>
</trkpt>
<trkpt lat="-27.2744314" lon="151.2900641">
  <ele>343.09</ele>
  <time>2026-09-01T20:02:01Z</time>
  <course>270.93</course>
  <speed>0.0</speed>
  <fix>3d</fix>
</trkpt>
<trkpt lat="-27.2744316" lon="151.2900642">
  <ele>342.95</ele>
  <time>2026-09-01T20:02:01Z</time>
  <course>12.32</course>
  <speed>0.022360679774997897</speed>
  <fix>3d</fix>
</trkpt>
<trkpt lat="-27.2744314" lon="151.2900641">
  <ele>343.09</ele>
  <time>2026-09-01T20:02:01Z</time>
  <course>270.93</course>
  <speed>0.0</speed>
  <fix>3d</fix>
</trkpt>
<trkpt lat="-27.2744316" lon="151.2900642">
  <ele>343.08</ele>
  <time>2026-09-01T20:02:01Z</time>
  <course>12.33</course>
  <speed>0.022360679774997897</speed>
  <fix>3d</fix>
</trkpt>
<trkpt lat="-27.2744314" lon="151.2900641">
  <ele>343.09</ele>
  <time>2026-09-01T20:02:01Z</time>
  <course>270.93</course>
  <speed>0.0</speed>
  <fix>3d</fix>
</trkpt>
<trkpt lat="-27.2744316" lon="151.2900642">
  <ele>343.08</ele>
  <time>2026-09-01T20:02:01Z</time>
  <course>12.33</course>
  <speed>0.022360679774997897</speed>
  <fix>3d</fix>
</trkpt>
<trkpt lat="-27.2744314" lon="151.2900641">
  <ele>343.09</ele>
  <time>2026-09-01T20:02:01Z</time>
  <course>270.93</course>
  <speed>0.0</speed>
  <fix>3d</fix>
</trkpt>
<trkpt lat="-27.2744316" lon="151.2900642">
  <ele>343.08</ele>
  <time>2026-09-01T20:02:01Z</time>
  <course>12.34</course>
  <speed>0.022360679774997897</speed>
  <fix>3d</fix>
</trkpt>
<trkpt lat="-27.2744314" lon="151.2900641">
  <ele>343.09</ele>
  <time>2026-09-01T20:02:01Z</time>
  <course>270.93</course>
  <speed>0.0</speed>
  <fix>3d</fix>
</trkpt>
<trkpt lat="-27.2744316" lon="151.2900642">
  <ele>343.08</ele>
  <time>2026-09-01T20:02:01Z</time>
  <course>12.34</course>
  <speed>0.022360679774997897</speed>
  <fix>3d</fix>
</trkpt>
<trkpt lat="-27.2744314" lon="151.2900641">
  <ele>343.09</ele>
  <time>2026-09-01T20:02:01Z</time>
  <course>270.93</course>
  <speed>0.0</speed>
  <fix>3d</fix>
</trkpt>
<trkpt lat="-27.2744316" lon="151.2900642">
  <ele>343.08</ele>
  <time>2026-09-01T20:02:01Z</time>
  <course>12.35</course>
  <speed>0.022360679774997897</speed>
  <fix>3d</fix>
</trkpt>
<trkpt lat="-27.2744314" lon="151.2900641">
  <ele>343.09</ele>
  <time>2026-09-01T20:02:01Z</time>
  <course>270.93</course>
  <speed>0.0</speed>
  <fix>3d</fix>
</trkpt>
<trkpt lat="-27.2744316" lon="151.2900642">
  <ele>343.09</ele>
  <time>2026-09-01T20:02:01Z</time>
  <course>12.35</course>
  <speed>0.022360679774997897</speed>
  <fix>3d</fix>
</trkpt>
<trkpt lat="-27.2744314" lon="151.2900641">
  <ele>343.09</ele>
  <time>2026-09-01T20:02:01Z</time>
  <course>270.93</course>
  <speed>0.0</speed>
  <fix>3d</fix>
</trkpt>
<trkpt lat="-27.2744316" lon="151.2900642">
  <ele>343.09</ele>
  <time>2026-09-01T20:02:01Z</time>
  <course>12.36</course>
  <speed>0.022360679774997897</speed>
  <fix>3d</fix>
</trkpt>
<trkpt lat="-27.2744314" lon="151.2900641">
  <ele>343.09</ele>
  <time>2026-09-01T20:02:01Z</time>
  <course>270.93</course>
  <speed>0.0</speed>
  <fix>3d</fix>
</trkpt>
<trkpt lat="-27.2744316" lon="151.2900642">
  <ele>343.1</ele>
  <time>2026-09-01T20:02:01Z</time>
  <course>12.36</course>
  <speed>0.022360679774997897</speed>
  <fix>3d</fix>
</trkpt>
<trkpt lat="-27.2744314" lon="151.2900641">
  <ele>343.09</ele>
  <time>2026-09-01T20:02:01Z</time>
  <course>270.93</course>
  <speed>0.0</speed>
  <fix>3d</fix>
</trkpt>
<trkpt lat="-27.2744316" lon="151.2900642">
  <ele>343.1</ele>
  <time>2026-09-01T20:02:01Z</time>
  <course>12.37</course>
  <speed>0.022360679774997897</speed>
  <fix>3d</fix>
</trkpt>
<trkpt lat="-27.2744314" lon="151.2900641">
  <ele>343.09</ele>
  <time>2026-09-01T20:02:01Z</time>
  <course>270.93</course>
  <speed>0.0</speed>
  <fix>3d</fix>
</trkpt>
<trkpt lat="-27.2744316" lon="151.2900642">
  <ele>343.1</ele>
  <time>2026-09-01T20:02:01Z</time>
  <course>12.37</course>
  <speed>0.022360679774997897</speed>
  <fix>3d</fix>
</trkpt>
<trkpt lat="-27.2744314" lon="151.2900641">
  <ele>343.09</ele>
  <time>2026-09-01T20:02:01Z</time>
  <course>270.93</course>
  <speed>0.0</speed>
  <fix>3d</fix>
</trkpt>
<trkpt lat="-27.2744316" lon="151.2900642">
  <ele>343.11</ele>
  <time>2026-09-01T20:02:01Z</time>
  <course>12.38</course>
  <speed>0.022360679774997897</speed>
  <fix>3d</fix>
</trkpt>
<trkpt lat="-27.2744314" lon="151.2900641">
  <ele>343.09</ele>
  <time>2026-09-01T20:02:01Z</time>
  <course>270.93</course>
  <speed>0.0</speed>
  <fix>3d</fix>
</trkpt>
<trkpt lat="-27.2744316" lon="151.2900642">
  <ele>343.11</ele>
  <time>2026-09-01T20:02:01Z</time>
  <course>12.38</course>
  <speed>0.022360679774997897</speed>
  <fix>3d</fix>
</trkpt>
<trkpt lat="-27.2744314" lon="151.2900641">
  <ele>343.09</ele>
  <time>2026-09-01T20:02:01Z</time>
  <course>270.93</course>
  <speed>0.0</speed>
  <fix>3d</fix>
</trkpt>
<trkpt lat="-27.2744316" lon="151.2900642">
  <ele>343.12</ele>
  <time>2026-09-01T20:02:01Z</time>
  <course>12.39</course>
  <speed>0.022360679774997897</speed>
  <fix>3d</fix>
</trkpt>
<trkpt lat="-27.2744314" lon="151.2900641">
  <ele>343.09</ele>
  <time>2026-09-01T20:02:01Z</time>
  <course>270.93</course>
  <speed>0.0</speed>
  <fix>3d</fix>
</trkpt>
<trkpt lat="-27.2744316" lon="151.2900642">
  <ele>343.12</ele>
  <time>2026-09-01T20:02:01Z</time>
  <course>12.39</course>
  <speed>0.022360679774997897</speed>
  <fix>3d</fix>
</trkpt>
<trkpt lat="-27.2744314" lon="151.2900641">
  <ele>343.09</ele>
  <time>2026-09-01T20:02:01Z</time>
  <course>270.93</course>
  <speed>0.0</speed>
  <fix>3d</fix>
</trkpt>
<trkpt lat="-27.2744316" lon="151.2900642">
  <ele>343.13</ele>
  <time>2026-09-01T20:02:01Z</time>
  <course>12.4</course>
  <speed>0.022360679774997897</speed>
  <fix>3d</fix>
</trkpt>
<trkpt lat="-27.2744314" lon="151.2900641">
  <ele>343.09</ele>
  <time>2026-09-01T20:02:01Z</time>
  <course>270.93</course>
  <speed>0.0</speed>
  <fix>3d</fix>
</trkpt>
<trkpt lat="-27.2744316" lon="151.2900642">
  <ele>343.13</ele>
  <time>2026-09-01T20:02:01Z</time>
  <course>12.4</course>
  <speed>0.022360679774997897</speed>
  <fix>3d</fix>
</trkpt>
<trkpt lat="-27.2744314" lon="151.2900641">
  <ele>343.09</ele>
  <time>2026-09-01T20:02:01Z</time>
  <course>270.93</course>
  <speed>0.0</speed>
  <fix>3d</fix>
</trkpt>
<trkpt lat="-27.2744316" lon="151.2900642">
  <ele>343.14</ele>
  <time>2026-09-01T20:02:01Z</time>
  <course>12.41</course>
  <speed>0.022360679774997897</speed>
  <fix>3d</fix>
</trkpt>
<trkpt lat="-27.2744314" lon="151.2900641">
  <ele>343.09</ele>
  <time>2026-09-01T20:02:01Z</time>
  <course>270.93</course>
  <speed>0.0</speed>
  <fix>3d</fix>
</trkpt>
<trkpt lat="-27.2744316" lon="151.2900642">
  <ele>343.14</ele>
  <time>2026-09-01T20:02:01Z</time>
  <course>12.41</course>
  <speed>0.022360679774997897</speed>
  <fix>3d</fix>
</trkpt>
<trkpt lat="-27.2744314" lon="151.2900641">
  <ele>343.09</ele>
  <time>2026-09-01T20:02:01Z</time>
  <course>270.93</course>
  <speed>0.0</speed>
  <fix>3d</fix>
</trkpt>
<trkpt lat="-27.2744316" lon="151.2900642">
  <ele>343.15</ele>
  <time>2026-09-01T20:02:01Z</time>
  <course>12.42</course>
  <speed>0.022360679774997897</speed>
  <fix>3d</fix>
</trkpt>
<trkpt lat="-27.2744314" lon="151.2900641">
  <ele>343.09</ele>
  <time>2026-09-01T20:02:01Z</time>
  <course>270.93</course>
  <speed>0.0</speed>
  <fix>3d</fix>
</trkpt>
<trkpt lat="-27.2744316" lon="151.2900642">
  <ele>343.15</ele>
  <time>2026-09-01T20:02:01Z</time>
  <course>12.42</course>
  <speed>0.022360679774997897</speed>
  <fix>3d</fix>
</trkpt>
<trkpt lat="-27.2744314" lon="151.2900641">
  <ele>343.09</ele>
  <time>2026-09-01T20:02:01Z</time>
  <course>270.93</course>
  <speed>0.0</speed>
  <fix>3d</fix>
</trkpt>
<trkpt lat="-27.2744316" lon="151.2900642">
  <ele>343.16</ele>
  <time>2026-09-01T20:02:01Z</time>
  <course>12.42</course>
  <speed>0.022360679774997897</speed>
  <fix>3d</fix>
</trkpt>
<trkpt lat="-27.2744314" lon="151.2900641">
  <ele>343.09</ele>
  <time>2026-09-01T20:02:01Z</time>
  <course>270.93</course>
  <speed>0.0</speed>
  <fix>3d</fix>
</trkpt>
<trkpt lat="-27.2744316" lon="151.2900642">
  <ele>343.16</ele>
  <time>2026-09-01T20:02:01Z</time>
  <course>12.43</course>
  <speed>0.022360679774997897</speed>
  <fix>3d</fix>
</trkpt>
<trkpt lat="-27.2744314" lon="151.2900641">
  <ele>343.09</ele>
  <time>2026-09-01T20:02:01Z</time>
  <course>270.93</course>
  <speed>0.0</speed>
  <fix>3d</fix>
</trkpt>
<trkpt lat="-27.2744316" lon="151.2900642">
  <ele>343.16</ele>
  <time>2026-09-01T20:02:01Z</time>
  <course>12.43</course>
  <speed>0.022360679774997897</speed>
  <fix>3d</fix>
</trkpt>
<trkpt lat="-27.2744314" lon="151.2900641">
  <ele>343.09</ele>
  <time>2026-09-01T20:02:01Z</time>
  <course>270.93</course>
  <speed>0.0</speed>
  <fix>3d</fix>
</trkpt>
<trkpt lat="-27.2744316" lon="151.2900642">
  <ele>343.17</ele>
  <time>2026-09-01T20:02:01Z</time>
  <course>12.44</course>
  <speed>0.022360679774997897</speed>
  <fix>3d</fix>
</trkpt>
<trkpt lat="-27.2744314" lon="151.2900641">
  <ele>343.09</ele>
  <time>2026-09-01T20:02:01Z</time>
  <course>270.93</course>
  <speed>0.0</speed>
  <fix>3d</fix>
</trkpt>
<trkpt lat="-27.2744316" lon="151.2900642">
  <ele>343.17</ele>
  <time>2026-09-01T20:02:01Z</time>
  <course>12.44</course>
  <speed>0.022360679774997897</speed>
  <fix>3d</fix>
</trkpt>
<trkpt lat="-27.2744314" lon="151.2900641">
  <ele>343.09</ele>
  <time>2026-09-01T20:02:01Z</time>
  <course>270.93</course>
  <speed>0.0</speed>
  <fix>3d</fix>
</trkpt>
<trkpt lat="-27.2744316" lon="151.2900642">
  <ele>343.18</ele>
  <time>2026-09-01T20:02:01Z</time>
  <course>12.44</course>
  <speed>0.022360679774997897</speed>
  <fix>3d</fix>
</trkpt>
<trkpt lat="-27.2744314" lon="151.2900641">
  <ele>343.09</ele>
  <time>2026-09-01T20:02:01Z</time>
  <course>270.93</course>
  <speed>0.0</speed>
  <fix>3d</fix>
</trkpt>
<trkpt lat="-27.2744316" lon="151.2900642">
  <ele>343.18</ele>
  <time>2026-09-01T20:02:01Z</time>
  <course>12.45</course>
  <speed>0.022360679774997897</speed>
  <fix>3d</fix>
</trkpt>
<trkpt lat="-27.2744314" lon="151.2900641">
  <ele>343.09</ele>
  <time>2026-09-01T20:02:01Z</time>
  <course>270.93</course>
  <speed>0.0</speed>
  <fix>3d</fix>
</trkpt>
<trkpt lat="-27.2744316" lon="151.2900642">
  <ele>343.18</ele>
  <time>2026-09-01T20:02:01Z</time>
  <course>12.45</course>
  <speed>0.022360679774997897</speed>
  <fix>3d</fix>
</trkpt>
<trkpt lat="-27.2744314" lon="151.2900641">
  <ele>343.09</ele>
  <time>2026-09-01T20:02:01Z</time>
  <course>270.93</course>
  <speed>0.0</speed>
  <fix>3d</fix>
</trkpt>
<trkpt lat="-27.2744316" lon="151.2900642">
  <ele>343.19</ele>
  <time>2026-09-01T20:02:01Z</time>
  <course>12.46</course>
  <speed>0.022360679774997897</speed>
  <fix>3d</fix>
</trkpt>
<trkpt lat="-27.2744314" lon="151.2900641">
  <ele>343.09</ele>
  <time>2026-09-01T20:02:01Z</time>
  <course>270.93</course>
  <speed>0.0</speed>
  <fix>3d</fix>
</trkpt>
<trkpt lat="-27.2744316" lon="151.2900642">
  <ele>343.19</ele>
  <time>2026-09-01T20:02:01Z</time>
  <course>12.46</course>
  <speed>0.022360679774997897</speed>
  <fix>3d</fix>
</trkpt>
<trkpt lat="-27.2744314" lon="151.2900641">
  <ele>343.09</ele>
  <time>2026-09-01T20:02:01Z</time>
  <course>270.93</course>
  <speed>0.0</speed>
  <fix>3d</fix>
</trkpt>
<trkpt lat="-27.2744316" lon="151.2900642">
  <ele>343.2</ele>
  <time>2026-09-01T20:02:01Z</time>
  <course>12.47</course>
  <speed>0.022360679774997897</speed>
  <fix>3d</fix>
</trkpt>
<trkpt lat="-27.2744314" lon="151.2900641">
  <ele>343.09</ele>
  <time>2026-09-01T20:02:01Z</time>
  <course>270.93</course>
  <speed>0.0</speed>
  <fix>3d</fix>
</trkpt>
<trkpt lat="-27.2744316" lon="151.2900642">
  <ele>343.2</ele>
  <time>2026-09-01T20:02:01Z</time>
  <course>12.47</course>
  <speed>0.022360679774997897</speed>
  <fix>3d</fix>
</trkpt>
<trkpt lat="-27.2744314" lon="151.2900641">
  <ele>343.09</ele>
  <time>2026-09-01T20:02:01Z</time>
  <course>270.93</course>
  <speed>0.0</speed>
  <fix>3d</fix>
</trkpt>
<trkpt lat="-27.2744316" lon="151.2900642">
  <ele>343.21</ele>
  <time>2026-09-01T20:02:01Z</time>
  <course>12.47</course>
  <speed>0.022360679774997897</speed>
  <fix>3d</fix>
</trkpt>
<trkpt lat="-27.2744314" lon="151.2900641">
  <ele>343.09</ele>
  <time>2026-09-01T20:02:01Z</time>
  <course>270.93</course>
  <speed>0.0</speed>
  <fix>3d</fix>
</trkpt>
<trkpt lat="-27.2744316" lon="151.2900642">
  <ele>343.21</ele>
  <time>2026-09-01T20:02:01Z</time>
  <course>12.48</course>
  <speed>0.022360679774997897</speed>
  <fix>3d</fix>
</trkpt>
<trkpt lat="-27.2744314" lon="151.2900641">
  <ele>343.09</ele>
  <time>2026-09-01T20:02:01Z</time>
  <course>270.93</course>
  <speed>0.0</speed>
  <fix>3d</fix>
</trkpt>
<trkpt lat="-27.2744316" lon="151.2900642">
  <ele>343.21</ele>
  <time>2026-09-01T20:02:01Z</time>
  <course>12.48</course>
  <speed>0.022360679774997897</speed>
  <fix>3d</fix>
</trkpt>
<trkpt lat="-27.2744314" lon="151.2900641">
  <ele>343.09</ele>
  <time>2026-09-01T20:02:01Z</time>
  <course>270.93</course>
  <speed>0.0</speed>
  <fix>3d</fix>
</trkpt>
<trkpt lat="-27.2744316" lon="151.2900642">
  <ele>343.22</ele>
  <time>2026-09-01T20:02:01Z</time>
  <course>12.48</course>
  <speed>0.0316227766016838</speed>
  <fix>3d</fix>
</trkpt>
<trkpt lat="-27.2744314" lon="151.2900641">
  <ele>343.09</ele>
  <time>2026-09-01T20:02:01Z</time>
  <course>270.93</course>
  <speed>0.0</speed>
  <fix>3d</fix>
</trkpt>
<trkpt lat="-27.2744316" lon="151.2900642">
  <ele>343.22</ele>
  <time>2026-09-01T20:02:01Z</time>
  <course>12.49</course>
  <speed>0.022360679774997897</speed>
  <fix>3d</fix>
</trkpt>
<trkpt lat="-27.2744314" lon="151.2900641">
  <ele>343.09</ele>
  <time>2026-09-01T20:02:01Z</time>
  <course>270.93</course>
  <speed>0.0</speed>
  <fix>3d</fix>
</trkpt>
<trkpt lat="-27.2744316" lon="151.2900642">
  <ele>343.22</ele>
  <time>2026-09-01T20:02:01Z</time>
  <course>12.49</course>
  <speed>0.0316227766016838</speed>
  <fix>3d</fix>
</trkpt>
<trkpt lat="-27.2744314" lon="151.2900641">
  <ele>343.09</ele>
  <time>2026-09-01T20:02:01Z</time>
  <course>270.93</course>
  <speed>0.0</speed>
  <fix>3d</fix>
</trkpt>
<trkpt lat="-27.2744316" lon="151.2900642">
  <ele>343.22</ele>
  <time>2026-09-01T20:02:01Z</time>
  <course>12.49</course>
  <speed>0.0316227766016838</speed>
  <fix>3d</fix>
</trkpt>
<trkpt lat="-27.2744314" lon="151.2900641">
  <ele>343.09</ele>
  <time>2026-09-01T20:02:01Z</time>
  <course>270.93</course>
  <speed>0.0</speed>
  <fix>3d</fix>
</trkpt>
<trkpt lat="-27.2744316" lon="151.2900642">
  <ele>343.22</ele>
  <time>2026-09-01T20:02:01Z</time>
  <course>12.5</course>
  <speed>0.0316227766016838</speed>
  <fix>3d</fix>
</trkpt>
<trkpt lat="-27.2744314" lon="151.2900641">
  <ele>343.09</ele>
  <time>2026-09-01T20:02:01Z</time>
  <course>270.93</course>
  <speed>0.0</speed>
  <fix>3d</fix>
</trkpt>
<trkpt lat="-27.2744316" lon="151.2900642">
  <ele>343.22</ele>
  <time>2026-09-01T20:02:01Z</time>
  <course>12.5</course>
  <speed>0.0316227766016838</speed>
  <fix>3d</fix>
</trkpt>
<trkpt lat="-27.2744314" lon="151.2900641">
  <ele>343.09</ele>
  <time>2026-09-01T20:02:01Z</time>
  <course>270.93</course>
  <speed>0.0</speed>
  <fix>3d</fix>
</trkpt>
<trkpt lat="-27.2744316" lon="151.2900642">
  <ele>343.23</ele>
  <time>2026-09-01T20:02:01Z</time>
  <course>12.5</course>
  <speed>0.0316227766016838</speed>
  <fix>3d</fix>
</trkpt>
<trkpt lat="-27.2744314" lon="151.2900641">
  <ele>343.09</ele>
  <time>2026-09-01T20:02:01Z</time>
  <course>270.93</course>
  <speed>0.0</speed>
  <fix>3d</fix>
</trkpt>
<trkpt lat="-27.2744316" lon="151.2900642">
  <ele>343.23</ele>
  <time>2026-09-01T20:02:01Z</time>
  <course>12.51</course>
  <speed>0.0316227766016838</speed>
  <fix>3d</fix>
</trkpt>
<trkpt lat="-27.2744314" lon="151.2900641">
  <ele>343.09</ele>
  <time>2026-09-01T20:02:01Z</time>
  <course>270.93</course>
  <speed>0.0</speed>
  <fix>3d</fix>
</trkpt>
<trkpt lat="-27.2744316" lon="151.2900642">
  <ele>343.23</ele>
  <time>2026-09-01T20:02:01Z</time>
  <course>12.51</course>
  <speed>0.0316227766016838</speed>
  <fix>3d</fix>
</trkpt>
<trkpt lat="-27.2744314" lon="151.2900641">
  <ele>343.09</ele>
  <time>2026-09-01T20:02:01Z</time>
  <course>270.93</course>
  <speed>0.0</speed>
  <fix>3d</fix>
</trkpt>
<trkpt lat="-27.2744316" lon="151.2900642">
  <ele>343.23</ele>
  <time>2026-09-01T20:02:01Z</time>
  <course>12.52</course>
  <speed>0.0316227766016838</speed>
  <fix>3d</fix>
</trkpt>
<trkpt lat="-27.2744314" lon="151.2900641">
  <ele>343.09</ele>
  <time>2026-09-01T20:02:01Z</time>
  <course>270.93</course>
  <speed>0.0</speed>
  <fix>3d</fix>
</trkpt>
<trkpt lat="-27.2744316" lon="151.2900642">
  <ele>343.23</ele>
  <time>2026-09-01T20:02:01Z</time>
  <course>12.52</course>
  <speed>0.0316227766016838</speed>
  <fix>3d</fix>
</trkpt>
<trkpt lat="-27.2744314" lon="151.2900641">
  <ele>343.09</ele>
  <time>2026-09-01T20:02:01Z</time>
  <course>270.93</course>
  <speed>0.0</speed>
  <fix>3d</fix>
</trkpt>
<trkpt lat="-27.2744316" lon="151.2900642">
  <ele>343.23</ele>
  <time>2026-09-01T20:02:01Z</time>
  <course>12.52</course>
  <speed>0.0316227766016838</speed>
  <fix>3d</fix>
</trkpt>
<trkpt lat="-27.2744314" lon="151.2900641">
  <ele>343.09</ele>
  <time>2026-09-01T20:02:01Z</time>
  <course>270.93</course>
  <speed>0.0</speed>
  <fix>3d</fix>
</trkpt>
<trkpt lat="-27.2744316" lon="151.2900642">
  <ele>343.23</ele>
  <time>2026-09-01T20:02:01Z</time>
  <course>12.53</course>
  <speed>0.0316227766016838</speed>
  <fix>3d</fix>
</trkpt>
<trkpt lat="-27.2744314" lon="151.2900641">
  <ele>343.09</ele>
  <time>2026-09-01T20:02:01Z</time>
  <course>270.93</course>
  <speed>0.0</speed>
  <fix>3d</fix>
</trkpt>
<trkpt lat="-27.2744316" lon="151.2900642">
  <ele>343.23</ele>
  <time>2026-09-01T20:02:01Z</time>
  <course>12.53</course>
  <speed>0.0316227766016838</speed>
  <fix>3d</fix>
</trkpt>
<trkpt lat="-27.2744314" lon="151.2900641">
  <ele>343.09</ele>
  <time>2026-09-01T20:02:01Z</time>
  <course>270.93</course>
  <speed>0.0</speed>
  <fix>3d</fix>
</trkpt>
<trkpt lat="-27.2744316" lon="151.2900642">
  <ele>343.24</ele>
  <time>2026-09-01T20:02:01Z</time>
  <course>12.53</course>
  <speed>0.0316227766016838</speed>
  <fix>3d</fix>
</trkpt>
<trkpt lat="-27.2744314" lon="151.2900641">
  <ele>343.09</ele>
  <time>2026-09-01T20:02:01Z</time>
  <course>270.93</course>
  <speed>0.0</speed>
  <fix>3d</fix>
</trkpt>
<trkpt lat="-27.2744316" lon="151.2900642">
  <ele>343.24</ele>
  <time>2026-09-01T20:02:01Z</time>
  <course>12.54</course>
  <speed>0.0316227766016838</speed>
  <fix>3d</fix>
</trkpt>
<trkpt lat="-27.2744314" lon="151.2900641">
  <ele>343.09</ele>
  <time>2026-09-01T20:02:01Z</time>
  <course>270.93</course>
  <speed>0.0</speed>
  <fix>3d</fix>
</trkpt>
<trkpt lat="-27.2744316" lon="151.2900642">
  <ele>343.24</ele>
  <time>2026-09-01T20:02:01Z</time>
  <course>12.54</course>
  <speed>0.0316227766016838</speed>
  <fix>3d</fix>
</trkpt>
<trkpt lat="-27.2744314" lon="151.2900641">
  <ele>343.09</ele>
  <time>2026-09-01T20:02:01Z</time>
  <course>270.93</course>
  <speed>0.0</speed>
  <fix>3d</fix>
</trkpt>
<trkpt lat="-27.2744316" lon="151.2900642">
  <ele>343.24</ele>
  <time>2026-09-01T20:02:01Z</time>
  <course>12.54</course>
  <speed>0.0316227766016838</speed>
  <fix>3d</fix>
</trkpt>
<trkpt lat="-27.2744314" lon="151.2900641">
  <ele>343.09</ele>
  <time>2026-09-01T20:02:01Z</time>
  <course>270.93</course>
  <speed>0.0</speed>
  <fix>3d</fix>
</trkpt>
<trkpt lat="-27.2744316" lon="151.2900642">
  <ele>343.24</ele>
  <time>2026-09-01T20:02:01Z</time>
  <course>12.55</course>
  <speed>0.0316227766016838</speed>
  <fix>3d</fix>
</trkpt>
<trkpt lat="-27.2744314" lon="151.2900641">
  <ele>343.09</ele>
  <time>2026-09-01T20:02:01Z</time>
  <course>270.93</course>
  <speed>0.0</speed>
  <fix>3d</fix>
</trkpt>
<trkpt lat="-27.2744316" lon="151.2900642">
  <ele>343.24</ele>
  <time>2026-09-01T20:02:01Z</time>
  <course>12.55</course>
  <speed>0.0316227766016838</speed>
  <fix>3d</fix>
</trkpt>
<trkpt lat="-27.2744314" lon="151.2900641">
  <ele>343.09</ele>
  <time>2026-09-01T20:02:01Z</time>
  <course>270.93</course>
  <speed>0.0</speed>
  <fix>3d</fix>
</trkpt>
<trkpt lat="-27.2744316" lon="151.2900642">
  <ele>343.24</ele>
  <time>2026-09-01T20:02:01Z</time>
  <course>12.55</course>
  <speed>0.0316227766016838</speed>
  <fix>3d</fix>
</trkpt>
<trkpt lat="-27.2744314" lon="151.2900641">
  <ele>343.09</ele>
  <time>2026-09-01T20:02:01Z</time>
  <course>270.93</course>
  <speed>0.0</speed>
  <fix>3d</fix>
</trkpt>
<trkpt lat="-27.2744316" lon="151.2900642">
  <ele>343.24</ele>
  <time>2026-09-01T20:02:01Z</time>
  <course>12.56</course>
  <speed>0.0316227766016838</speed>
  <fix>3d</fix>
</trkpt>
<trkpt lat="-27.2744314" lon="151.2900641">
  <ele>343.09</ele>
  <time>2026-09-01T20:02:01Z</time>
  <course>270.93</course>
  <speed>0.0</speed>
  <fix>3d</fix>
</trkpt>
<trkpt lat="-27.2744316" lon="151.2900642">
  <ele>343.24</ele>
  <time>2026-09-01T20:02:01Z</time>
  <course>12.56</course>
  <speed>0.0316227766016838</speed>
  <fix>3d</fix>
</trkpt>
<trkpt lat="-27.2744314" lon="151.2900641">
  <ele>343.09</ele>
  <time>2026-09-01T20:02:01Z</time>
  <course>270.93</course>
  <speed>0.0</speed>
  <fix>3d</fix>
</trkpt>
<trkpt lat="-27.2744316" lon="151.2900642">
  <ele>343.24</ele>
  <time>2026-09-01T20:02:01Z</time>
  <course>12.56</course>
  <speed>0.0316227766016838</speed>
  <fix>3d</fix>
</trkpt>
<trkpt lat="-27.2744314" lon="151.2900641">
  <ele>343.09</ele>
  <time>2026-09-01T20:02:01Z</time>
  <course>270.93</course>
  <speed>0.0</speed>
  <fix>3d</fix>
</trkpt>
<trkpt lat="-27.2744316" lon="151.2900642">
  <ele>343.24</ele>
  <time>2026-09-01T20:02:01Z</time>
  <course>12.57</course>
  <speed>0.0316227766016838</speed>
  <fix>3d</fix>
</trkpt>
<trkpt lat="-27.2744314" lon="151.2900641">
  <ele>343.09</ele>
  <time>2026-09-01T20:02:01Z</time>
  <course>270.93</course>
  <speed>0.0</speed>
  <fix>3d</fix>
</trkpt>
<trkpt lat="-27.2744316" lon="151.2900642">
  <ele>343.09</ele>
  <time>2026-09-01T20:02:01Z</time>
  <course>12.57</course>
  <speed>0.0316227766016838</speed>
  <fix>3d</fix>
</trkpt>
<trkpt lat="-27.2744314" lon="151.2900641">
  <ele>343.09</ele>
  <time>2026-09-01T20:02:01Z</time>
  <course>270.93</course>
  <speed>0.0</speed>
  <fix>3d</fix>
</trkpt>
<trkpt lat="-27.2744316" lon="151.2900642">
  <ele>343.09</ele>
  <time>2026-09-01T20:02:01Z</time>
  <course>12.57</course>
  <speed>0.0316227766016838</speed>
  <fix>3d</fix>
</trkpt>
<trkpt lat="-27.2744314" lon="151.2900641">
  <ele>343.09</ele>
  <time>2026-09-01T20:02:01Z</time>
  <course>270.93</course>
  <speed>0.0</speed>
  <fix>3d</fix>
</trkpt>
<trkpt lat="-27.2744316" lon="151.2900642">
  <ele>343.09</ele>
  <time>2026-09-01T20:02:01Z</time>
  <course>12.58</course>
  <speed>0.0316227766016838</speed>
  <fix>3d</fix>
</trkpt>
<trkpt lat="-27.2744314" lon="151.2900641">
  <ele>343.09</ele>
  <time>2026-09-01T20:02:01Z</time>
  <course>270.93</course>
  <speed>0.0</speed>
  <fix>3d</fix>
</trkpt>
<trkpt lat="-27.2744316" lon="151.2900642">
  <ele>343.09</ele>
  <time>2026-09-01T20:02:01Z</time>
  <course>12.58</course>
  <speed>0.0316227766016838</speed>
  <fix>3d</fix>
</trkpt>
<trkpt lat="-27.2744314" lon="151.2900641">
  <ele>343.09</ele>
  <time>2026-09-01T20:02:01Z</time>
  <course>270.93</course>
  <speed>0.0</speed>
  <fix>3d</fix>
</trkpt>
<trkpt lat="-27.2744316" lon="151.2900642">
  <ele>343.09</ele>
  <time>2026-09-01T20:02:01Z</time>
  <course>12.58</course>
  <speed>0.022360679774997897</speed>
  <fix>3d</fix>
</trkpt>
<trkpt lat="-27.2744314" lon="151.2900641">
  <ele>343.09</ele>
  <time>2026-09-01T20:02:01Z</time>
  <course>270.93</course>
  <speed>0.0</speed>
  <fix>3d</fix>
</trkpt>
<trkpt lat="-27.2744316" lon="151.2900642">
  <ele>343.09</ele>
  <time>2026-09-01T20:02:01Z</time>
  <course>12.59</course>
  <speed>0.0316227766016838</speed>
  <fix>3d</fix>
</trkpt>
<trkpt lat="-27.2744314" lon="151.2900641">
  <ele>343.09</ele>
  <time>2026-09-01T20:02:01Z</time>
  <course>270.93</course>
  <speed>0.0</speed>
  <fix>3d</fix>
</trkpt>
<trkpt lat="-27.2744316" lon="151.2900642">
  <ele>343.09</ele>
  <time>2026-09-01T20:02:01Z</time>
  <course>12.59</course>
  <speed>0.022360679774997897</speed>
  <fix>3d</fix>
</trkpt>
<trkpt lat="-27.2744314" lon="151.2900641">
  <ele>343.09</ele>
  <time>2026-09-01T20:02:01Z</time>
  <course>270.93</course>
  <speed>0.0</speed>
  <fix>3d</fix>
</trkpt>
<trkpt lat="-27.2744316" lon="151.2900642">
  <ele>343.09</ele>
  <time>2026-09-01T20:02:01Z</time>
  <course>12.59</course>
  <speed>0.0316227766016838</speed>
  <fix>3d</fix>
</trkpt>
<trkpt lat="-27.2744314" lon="151.2900641">
  <ele>343.09</ele>
  <time>2026-09-01T20:02:01Z</time>
  <course>270.93</course>
  <speed>0.0</speed>
  <fix>3d</fix>
</trkpt>
<trkpt lat="-27.2744316" lon="151.2900642">
  <ele>343.09</ele>
  <time>2026-09-01T20:02:01Z</time>
  <course>12.6</course>
  <speed>0.022360679774997897</speed>
  <fix>3d</fix>
</trkpt>
<trkpt lat="-27.2744314" lon="151.2900641">
  <ele>343.09</ele>
  <time>2026-09-01T20:02:01Z</time>
  <course>270.93</course>
  <speed>0.0</speed>
  <fix>3d</fix>
</trkpt>
<trkpt lat="-27.2744316" lon="151.2900642">
  <ele>343.09</ele>
  <time>2026-09-01T20:02:01Z</time>
  <course>12.6</course>
  <speed>0.022360679774997897</speed>
  <fix>3d</fix>
</trkpt>
<trkpt lat="-27.2744314" lon="151.2900641">
  <ele>343.09</ele>
  <time>2026-09-01T20:02:01Z</time>
  <course>270.93</course>
  <speed>0.0</speed>
  <fix>3d</fix>
</trkpt>
<trkpt lat="-27.2744316" lon="151.2900642">
  <ele>343.09</ele>
  <time>2026-09-01T20:02:01Z</time>
  <course>12.6</course>
  <speed>0.022360679774997897</speed>
  <fix>3d</fix>
</trkpt>
<trkpt lat="-27.2744314" lon="151.2900641">
  <ele>343.09</ele>
  <time>2026-09-01T20:02:01Z</time>
  <course>270.93</course>
  <speed>0.0</speed>
  <fix>3d</fix>
</trkpt>
<trkpt lat="-27.2744316" lon="151.2900642">
  <ele>343.09</ele>
  <time>2026-09-01T20:02:01Z</time>
  <course>12.6</course>
  <speed>0.022360679774997897</speed>
  <fix>3d</fix>
</trkpt>
<trkpt lat="-27.2744314" lon="151.2900641">
  <ele>343.09</ele>
  <time>2026-09-01T20:02:01Z</time>
  <course>270.93</course>
  <speed>0.0</speed>
  <fix>3d</fix>
</trkpt>
<trkpt lat="-27.2744316" lon="151.2900642">
  <ele>343.09</ele>
  <time>2026-09-01T20:02:01Z</time>
  <course>12.61</course>
  <speed>0.022360679774997897</speed>
  <fix>3d</fix>
</trkpt>
<trkpt lat="-27.2744314" lon="151.2900641">
  <ele>343.09</ele>
  <time>2026-09-01T20:02:01Z</time>
  <course>270.93</course>
  <speed>0.0</speed>
  <fix>3d</fix>
</trkpt>
<trkpt lat="-27.2744316" lon="151.2900642">
  <ele>343.09</ele>
  <time>2026-09-01T20:02:01Z</time>
  <course>12.61</course>
  <speed>0.022360679774997897</speed>
  <fix>3d</fix>
</trkpt>
<trkpt lat="-27.2744314" lon="151.2900641">
  <ele>343.09</ele>
  <time>2026-09-01T20:02:01Z</time>
  <course>270.93</course>
  <speed>0.0</speed>
  <fix>3d</fix>
</trkpt>
<trkpt lat="-27.2744316" lon="151.2900642">
  <ele>343.08</ele>
  <time>2026-09-01T20:02:01Z</time>
  <course>12.61</course>
  <speed>0.022360679774997897</speed>
  <fix>3d</fix>
</trkpt>
<trkpt lat="-27.2744314" lon="151.2900641">
  <ele>343.09</ele>
  <time>2026-09-01T20:02:01Z</time>
  <course>270.93</course>
  <speed>0.0</speed>
  <fix>3d</fix>
</trkpt>
<trkpt lat="-27.2744316" lon="151.2900642">
  <ele>343.08</ele>
  <time>2026-09-01T20:02:01Z</time>
  <course>12.62</course>
  <speed>0.022360679774997897</speed>
  <fix>3d</fix>
</trkpt>
<trkpt lat="-27.2744314" lon="151.2900641">
  <ele>343.09</ele>
  <time>2026-09-01T20:02:01Z</time>
  <course>270.93</course>
  <speed>0.0</speed>
  <fix>3d</fix>
</trkpt>
<trkpt lat="-27.2744316" lon="151.2900642">
  <ele>343.08</ele>
  <time>2026-09-01T20:02:01Z</time>
  <course>12.62</course>
  <speed>0.022360679774997897</speed>
  <fix>3d</fix>
</trkpt>
<trkpt lat="-27.2744314" lon="151.2900641">
  <ele>343.09</ele>
  <time>2026-09-01T20:02:01Z</time>
  <course>270.93</course>
  <speed>0.0</speed>
  <fix>3d</fix>
</trkpt>
<trkpt lat="-27.2744316" lon="151.2900642">
  <ele>343.07</ele>
  <time>2026-09-01T20:02:01Z</time>
  <course>12.62</course>
  <speed>0.022360679774997897</speed>
  <fix>3d</fix>
</trkpt>
<trkpt lat="-27.2744314" lon="151.2900641">
  <ele>343.09</ele>
  <time>2026-09-01T20:02:01Z</time>
  <course>270.93</course>
  <speed>0.0</speed>
  <fix>3d</fix>
</trkpt>
<trkpt lat="-27.2744316" lon="151.2900642">
  <ele>343.07</ele>
  <time>2026-09-01T20:02:01Z</time>
  <course>12.63</course>
  <speed>0.022360679774997897</speed>
  <fix>3d</fix>
</trkpt>
<trkpt lat="-27.2744314" lon="151.2900641">
  <ele>343.09</ele>
  <time>2026-09-01T20:02:01Z</time>
  <course>270.93</course>
  <speed>0.0</speed>
  <fix>3d</fix>
</trkpt>
<trkpt lat="-27.2744316" lon="151.2900642">
  <ele>343.07</ele>
  <time>2026-09-01T20:02:01Z</time>
  <course>12.63</course>
  <speed>0.022360679774997897</speed>
  <fix>3d</fix>
</trkpt>
<trkpt lat="-27.2744314" lon="151.2900641">
  <ele>343.09</ele>
  <time>2026-09-01T20:02:01Z</time>
  <course>270.93</course>
  <speed>0.0</speed>
  <fix>3d</fix>
</trkpt>
<trkpt lat="-27.2744316" lon="151.2900642">
  <ele>343.06</ele>
  <time>2026-09-01T20:02:01Z</time>
  <course>12.63</course>
  <speed>0.022360679774997897</speed>
  <fix>3d</fix>
</trkpt>
<trkpt lat="-27.2744314" lon="151.2900641">
  <ele>343.09</ele>
  <time>2026-09-01T20:02:01Z</time>
  <course>270.93</course>
  <speed>0.0</speed>
  <fix>3d</fix>
</trkpt>
<trkpt lat="-27.2744316" lon="151.2900642">
  <ele>343.06</ele>
  <time>2026-09-01T20:02:01Z</time>
  <course>12.64</course>
  <speed>0.022360679774997897</speed>
  <fix>3d</fix>
</trkpt>
<trkpt lat="-27.2744314" lon="151.2900641">
  <ele>343.09</ele>
  <time>2026-09-01T20:02:01Z</time>
  <course>270.93</course>
  <speed>0.0</speed>
  <fix>3d</fix>
</trkpt>
<trkpt lat="-27.2744316" lon="151.2900642">
  <ele>343.06</ele>
  <time>2026-09-01T20:02:01Z</time>
  <course>12.64</course>
  <speed>0.022360679774997897</speed>
  <fix>3d</fix>
</trkpt>
<trkpt lat="-27.2744314" lon="151.2900641">
  <ele>343.09</ele>
  <time>2026-09-01T20:02:01Z</time>
  <course>270.93</course>
  <speed>0.0</speed>
  <fix>3d</fix>
</trkpt>
<trkpt lat="-27.2744316" lon="151.2900642">
  <ele>343.05</ele>
  <time>2026-09-01T20:02:01Z</time>
  <course>12.64</course>
  <speed>0.022360679774997897</speed>
  <fix>3d</fix>
</trkpt>
<trkpt lat="-27.2744314" lon="151.2900641">
  <ele>343.09</ele>
  <time>2026-09-01T20:02:01Z</time>
  <course>270.93</course>
  <speed>0.0</speed>
  <fix>3d</fix>
</trkpt>
<trkpt lat="-27.2744316" lon="151.2900642">
  <ele>343.05</ele>
  <time>2026-09-01T20:02:01Z</time>
  <course>12.64</course>
  <speed>0.022360679774997897</speed>
  <fix>3d</fix>
</trkpt>
<trkpt lat="-27.2744314" lon="151.2900641">
  <ele>343.09</ele>
  <time>2026-09-01T20:02:01Z</time>
  <course>270.93</course>
  <speed>0.0</speed>
  <fix>3d</fix>
</trkpt>
<trkpt lat="-27.2744316" lon="151.2900642">
  <ele>343.05</ele>
  <time>2026-09-01T20:02:01Z</time>
  <course>12.65</course>
  <speed>0.022360679774997897</speed>
  <fix>3d</fix>
</trkpt>
<trkpt lat="-27.2744314" lon="151.2900641">
  <ele>343.09</ele>
  <time>2026-09-01T20:02:01Z</time>
  <course>270.93</course>
  <speed>0.0</speed>
  <fix>3d</fix>
</trkpt>
<trkpt lat="-27.2744316" lon="151.2900642">
  <ele>343.04</ele>
  <time>2026-09-01T20:02:01Z</time>
  <course>12.65</course>
  <speed>0.022360679774997897</speed>
  <fix>3d</fix>
</trkpt>
<trkpt lat="-27.2744314" lon="151.2900641">
  <ele>343.09</ele>
  <time>2026-09-01T20:02:01Z</time>
  <course>270.93</course>
  <speed>0.0</speed>
  <fix>3d</fix>
</trkpt>
<trkpt lat="-27.2744316" lon="151.2900642">
  <ele>343.04</ele>
  <time>2026-09-01T20:02:01Z</time>
  <course>12.65</course>
  <speed>0.022360679774997897</speed>
  <fix>3d</fix>
</trkpt>
<trkpt lat="-27.2744314" lon="151.2900641">
  <ele>343.09</ele>
  <time>2026-09-01T20:02:01Z</time>
  <course>270.93</course>
  <speed>0.0</speed>
  <fix>3d</fix>
</trkpt>
<trkpt lat="-27.2744316" lon="151.2900642">
  <ele>343.04</ele>
  <time>2026-09-01T20:02:01Z</time>
  <course>12.66</course>
  <speed>0.022360679774997897</speed>
  <fix>3d</fix>
</trkpt>
<trkpt lat="-27.2744314" lon="151.2900641">
  <ele>343.09</ele>
  <time>2026-09-01T20:02:01Z</time>
  <course>270.93</course>
  <speed>0.0</speed>
  <fix>3d</fix>
</trkpt>
<trkpt lat="-27.2744316" lon="151.2900642">
  <ele>343.04</ele>
  <time>2026-09-01T20:02:01Z</time>
  <course>12.66</course>
  <speed>0.022360679774997897</speed>
  <fix>3d</fix>
</trkpt>
<trkpt lat="-27.2744314" lon="151.2900641">
  <ele>343.09</ele>
  <time>2026-09-01T20:02:01Z</time>
  <course>270.93</course>
  <speed>0.0</speed>
  <fix>3d</fix>
</trkpt>
<trkpt lat="-27.2744316" lon="151.2900642">
  <ele>343.04</ele>
  <time>2026-09-01T20:02:01Z</time>
  <course>12.66</course>
  <speed>0.022360679774997897</speed>
  <fix>3d</fix>
</trkpt>
<trkpt lat="-27.2744314" lon="151.2900641">
  <ele>343.09</ele>
  <time>2026-09-01T20:02:01Z</time>
  <course>270.93</course>
  <speed>0.0</speed>
  <fix>3d</fix>
</trkpt>
<trkpt lat="-27.2744316" lon="151.2900642">
  <ele>343.03</ele>
  <time>2026-09-01T20:02:01Z</time>
  <course>12.67</course>
  <speed>0.022360679774997897</speed>
  <fix>3d</fix>
</trkpt>
<trkpt lat="-27.2744314" lon="151.2900641">
  <ele>343.09</ele>
  <time>2026-09-01T20:02:01Z</time>
  <course>270.93</course>
  <speed>0.0</speed>
  <fix>3d</fix>
</trkpt>
<trkpt lat="-27.2744316" lon="151.2900642">
  <ele>343.03</ele>
  <time>2026-09-01T20:02:01Z</time>
  <course>12.67</course>
  <speed>0.022360679774997897</speed>
  <fix>3d</fix>
</trkpt>
<trkpt lat="-27.2744314" lon="151.2900641">
  <ele>343.09</ele>
  <time>2026-09-01T20:02:01Z</time>
  <course>270.93</course>
  <speed>0.0</speed>
  <fix>3d</fix>
</trkpt>
<trkpt lat="-27.2744316" lon="151.2900642">
  <ele>343.03</ele>
  <time>2026-09-01T20:02:01Z</time>
  <course>12.67</course>
  <speed>0.022360679774997897</speed>
  <fix>3d</fix>
</trkpt>
<trkpt lat="-27.2744314" lon="151.2900641">
  <ele>343.09</ele>
  <time>2026-09-01T20:02:01Z</time>
  <course>270.93</course>
  <speed>0.0</speed>
  <fix>3d</fix>
</trkpt>
<trkpt lat="-27.2744316" lon="151.2900642">
  <ele>343.03</ele>
  <time>2026-09-01T20:02:01Z</time>
  <course>12.67</course>
  <speed>0.022360679774997897</speed>
  <fix>3d</fix>
</trkpt>
<trkpt lat="-27.2744314" lon="151.2900641">
  <ele>343.09</ele>
  <time>2026-09-01T20:02:01Z</time>
  <course>270.93</course>
  <speed>0.0</speed>
  <fix>3d</fix>
</trkpt>
<trkpt lat="-27.2744316" lon="151.2900642">
  <ele>343.03</ele>
  <time>2026-09-01T20:02:01Z</time>
  <course>12.68</course>
  <speed>0.022360679774997897</speed>
  <fix>3d</fix>
</trkpt>
<trkpt lat="-27.2744314" lon="151.2900641">
  <ele>343.09</ele>
  <time>2026-09-01T20:02:01Z</time>
  <course>270.93</course>
  <speed>0.0</speed>
  <fix>3d</fix>
</trkpt>
<trkpt lat="-27.2744316" lon="151.2900642">
  <ele>343.03</ele>
  <time>2026-09-01T20:02:01Z</time>
  <course>12.68</course>
  <speed>0.022360679774997897</speed>
  <fix>3d</fix>
</trkpt>
<trkpt lat="-27.2744314" lon="151.2900641">
  <ele>343.09</ele>
  <time>2026-09-01T20:02:01Z</time>
  <course>270.93</course>
  <speed>0.0</speed>
  <fix>3d</fix>
</trkpt>
<trkpt lat="-27.2744316" lon="151.2900642">
  <ele>343.03</ele>
  <time>2026-09-01T20:02:01Z</time>
  <course>12.68</course>
  <speed>0.022360679774997897</speed>
  <fix>3d</fix>
</trkpt>
<trkpt lat="-27.2744314" lon="151.2900641">
  <ele>343.09</ele>
  <time>2026-09-01T20:02:01Z</time>
  <course>270.93</course>
  <speed>0.0</speed>
  <fix>3d</fix>
</trkpt>
<trkpt lat="-27.2744316" lon="151.2900642">
  <ele>343.02</ele>
  <time>2026-09-01T20:02:01Z</time>
  <course>12.69</course>
  <speed>0.022360679774997897</speed>
  <fix>3d</fix>
</trkpt>
<trkpt lat="-27.2744314" lon="151.2900641">
  <ele>343.09</ele>
  <time>2026-09-01T20:02:01Z</time>
  <course>270.93</course>
  <speed>0.0</speed>
  <fix>3d</fix>
</trkpt>
<trkpt lat="-27.2744316" lon="151.2900642">
  <ele>343.02</ele>
  <time>2026-09-01T20:02:01Z</time>
  <course>12.69</course>
  <speed>0.022360679774997897</speed>
  <fix>3d</fix>
</trkpt>
<trkpt lat="-27.2744314" lon="151.2900641">
  <ele>343.09</ele>
  <time>2026-09-01T20:02:01Z</time>
  <course>270.93</course>
  <speed>0.0</speed>
  <fix>3d</fix>
</trkpt>
<trkpt lat="-27.2744316" lon="151.2900642">
  <ele>343.02</ele>
  <time>2026-09-01T20:02:01Z</time>
  <course>12.69</course>
  <speed>0.022360679774997897</speed>
  <fix>3d</fix>
</trkpt>
<trkpt lat="-27.2744314" lon="151.2900641">
  <ele>343.09</ele>
  <time>2026-09-01T20:02:01Z</time>
  <course>270.93</course>
  <speed>0.0</speed>
  <fix>3d</fix>
</trkpt>
<trkpt lat="-27.2744316" lon="151.2900642">
  <ele>343.02</ele>
  <time>2026-09-01T20:02:01Z</time>
  <course>12.7</course>
  <speed>0.022360679774997897</speed>
  <fix>3d</fix>
</trkpt>
<trkpt lat="-27.2744314" lon="151.2900641">
  <ele>343.09</ele>
  <time>2026-09-01T20:02:01Z</time>
  <course>270.93</course>
  <speed>0.0</speed>
  <fix>3d</fix>
</trkpt>
<trkpt lat="-27.2744316" lon="151.2900642">
  <ele>343.02</ele>
  <time>2026-09-01T20:02:01Z</time>
  <course>12.7</course>
  <speed>0.022360679774997897</speed>
  <fix>3d</fix>
</trkpt>
<trkpt lat="-27.2744314" lon="151.2900641">
  <ele>343.09</ele>
  <time>2026-09-01T20:02:01Z</time>
  <course>270.93</course>
  <speed>0.0</speed>
  <fix>3d</fix>
</trkpt>
<trkpt lat="-27.2744316" lon="151.2900642">
  <ele>343.02</ele>
  <time>2026-09-01T20:02:01Z</time>
  <course>12.7</course>
  <speed>0.022360679774997897</speed>
  <fix>3d</fix>
</trkpt>
<trkpt lat="-27.2744314" lon="151.2900641">
  <ele>343.09</ele>
  <time>2026-09-01T20:02:01Z</time>
  <course>270.93</course>
  <speed>0.0</speed>
  <fix>3d</fix>
</trkpt>
<trkpt lat="-27.2744316" lon="151.2900642">
  <ele>343.02</ele>
  <time>2026-09-01T20:02:01Z</time>
  <course>12.7</course>
  <speed>0.022360679774997897</speed>
  <fix>3d</fix>
</trkpt>
<trkpt lat="-27.2744314" lon="151.2900641">
  <ele>343.09</ele>
  <time>2026-09-01T20:02:01Z</time>
  <course>270.93</course>
  <speed>0.0</speed>
  <fix>3d</fix>
</trkpt>
<trkpt lat="-27.2744316" lon="151.2900642">
  <ele>343.02</ele>
  <time>2026-09-01T20:02:01Z</time>
  <course>12.71</course>
  <speed>0.022360679774997897</speed>
  <fix>3d</fix>
</trkpt>
<trkpt lat="-27.2744314" lon="151.2900641">
  <ele>343.09</ele>
  <time>2026-09-01T20:02:01Z</time>
  <course>270.93</course>
  <speed>0.0</speed>
  <fix>3d</fix>
</trkpt>
<trkpt lat="-27.2744316" lon="151.2900642">
  <ele>343.01</ele>
  <time>2026-09-01T20:02:01Z</time>
  <course>12.71</course>
  <speed>0.022360679774997897</speed>
  <fix>3d</fix>
</trkpt>
<trkpt lat="-27.2744314" lon="151.2900641">
  <ele>343.09</ele>
  <time>2026-09-01T20:02:01Z</time>
  <course>270.93</course>
  <speed>0.0</speed>
  <fix>3d</fix>
</trkpt>
<trkpt lat="-27.2744316" lon="151.2900642">
  <ele>343.01</ele>
  <time>2026-09-01T20:02:01Z</time>
  <course>12.71</course>
  <speed>0.022360679774997897</speed>
  <fix>3d</fix>
</trkpt>
<trkpt lat="-27.2744314" lon="151.2900641">
  <ele>343.09</ele>
  <time>2026-09-01T20:02:01Z</time>
  <course>270.93</course>
  <speed>0.0</speed>
  <fix>3d</fix>
</trkpt>
<trkpt lat="-27.2744316" lon="151.2900642">
  <ele>343.01</ele>
  <time>2026-09-01T20:02:01Z</time>
  <course>12.72</course>
  <speed>0.022360679774997897</speed>
  <fix>3d</fix>
</trkpt>
<trkpt lat="-27.2744314" lon="151.2900641">
  <ele>343.09</ele>
  <time>2026-09-01T20:02:01Z</time>
  <course>270.93</course>
  <speed>0.0</speed>
  <fix>3d</fix>
</trkpt>
<trkpt lat="-27.2744316" lon="151.2900642">
  <ele>343.01</ele>
  <time>2026-09-01T20:02:01Z</time>
  <course>12.72</course>
  <speed>0.022360679774997897</speed>
  <fix>3d</fix>
</trkpt>
<trkpt lat="-27.2744314" lon="151.2900641">
  <ele>343.09</ele>
  <time>2026-09-01T20:02:01Z</time>
  <course>270.93</course>
  <speed>0.0</speed>
  <fix>3d</fix>
</trkpt>
<trkpt lat="-27.2744316" lon="151.2900642">
  <ele>343.01</ele>
  <time>2026-09-01T20:02:01Z</time>
  <course>12.72</course>
  <speed>0.022360679774997897</speed>
  <fix>3d</fix>
</trkpt>
<trkpt lat="-27.2744314" lon="151.2900641">
  <ele>343.09</ele>
  <time>2026-09-01T20:02:01Z</time>
  <course>270.93</course>
  <speed>0.0</speed>
  <fix>3d</fix>
</trkpt>
<trkpt lat="-27.2744316" lon="151.2900642">
  <ele>343.01</ele>
  <time>2026-09-01T20:02:01Z</time>
  <course>12.72</course>
  <speed>0.022360679774997897</speed>
  <fix>3d</fix>
</trkpt>
<trkpt lat="-27.2744314" lon="151.2900641">
  <ele>343.09</ele>
  <time>2026-09-01T20:02:01Z</time>
  <course>270.93</course>
  <speed>0.0</speed>
  <fix>3d</fix>
</trkpt>
<trkpt lat="-27.2744316" lon="151.2900642">
  <ele>343.01</ele>
  <time>2026-09-01T20:02:01Z</time>
  <course>12.73</course>
  <speed>0.022360679774997897</speed>
  <fix>3d</fix>
</trkpt>
<trkpt lat="-27.2744314" lon="151.2900641">
  <ele>343.09</ele>
  <time>2026-09-01T20:02:01Z</time>
  <course>270.93</course>
  <speed>0.0</speed>
  <fix>3d</fix>
</trkpt>
<trkpt lat="-27.2744316" lon="151.2900642">
  <ele>343.01</ele>
  <time>2026-09-01T20:02:01Z</time>
  <course>12.73</course>
  <speed>0.022360679774997897</speed>
  <fix>3d</fix>
</trkpt>
<trkpt lat="-27.2744314" lon="151.2900641">
  <ele>343.09</ele>
  <time>2026-09-01T20:02:01Z</time>
  <course>270.93</course>
  <speed>0.0</speed>
  <fix>3d</fix>
</trkpt>
<trkpt lat="-27.2744316" lon="151.2900642">
  <ele>343.01</ele>
  <time>2026-09-01T20:02:01Z</time>
  <course>12.73</course>
  <speed>0.022360679774997897</speed>
  <fix>3d</fix>
</trkpt>
<trkpt lat="-27.2744314" lon="151.2900641">
  <ele>343.09</ele>
  <time>2026-09-01T20:02:01Z</time>
  <course>270.93</course>
  <speed>0.0</speed>
  <fix>3d</fix>
</trkpt>
<trkpt lat="-27.2744316" lon="151.2900642">
  <ele>343.01</ele>
  <time>2026-09-01T20:02:01Z</time>
  <course>12.74</course>
  <speed>0.022360679774997897</speed>
  <fix>3d</fix>
</trkpt>
<trkpt lat="-27.2744314" lon="151.2900641">
  <ele>343.09</ele>
  <time>2026-09-01T20:02:01Z</time>
  <course>270.93</course>
  <speed>0.0</speed>
  <fix>3d</fix>
</trkpt>
<trkpt lat="-27.2744316" lon="151.2900642">
  <ele>343.01</ele>
  <time>2026-09-01T20:02:01Z</time>
  <course>12.74</course>
  <speed>0.022360679774997897</speed>
  <fix>3d</fix>
</trkpt>
<trkpt lat="-27.2744314" lon="151.2900641">
  <ele>343.09</ele>
  <time>2026-09-01T20:02:01Z</time>
  <course>270.93</course>
  <speed>0.0</speed>
  <fix>3d</fix>
</trkpt>
<trkpt lat="-27.2744316" lon="151.2900642">
  <ele>343.01</ele>
  <time>2026-09-01T20:02:01Z</time>
  <course>12.74</course>
  <speed>0.022360679774997897</speed>
  <fix>3d</fix>
</trkpt>
<trkpt lat="-27.2744314" lon="151.2900641">
  <ele>343.09</ele>
  <time>2026-09-01T20:02:01Z</time>
  <course>270.93</course>
  <speed>0.0</speed>
  <fix>3d</fix>
</trkpt>
<trkpt lat="-27.2744316" lon="151.2900642">
  <ele>343.01</ele>
  <time>2026-09-01T20:02:01Z</time>
  <course>12.74</course>
  <speed>0.022360679774997897</speed>
  <fix>3d</fix>
</trkpt>
<trkpt lat="-27.2744314" lon="151.2900641">
  <ele>343.09</ele>
  <time>2026-09-01T20:02:01Z</time>
  <course>270.93</course>
  <speed>0.0</speed>
  <fix>3d</fix>
</trkpt>
<trkpt lat="-27.2744316" lon="151.2900642">
  <ele>343.01</ele>
  <time>2026-09-01T20:02:01Z</time>
  <course>12.75</course>
  <speed>0.022360679774997897</speed>
  <fix>3d</fix>
</trkpt>
<trkpt lat="-27.2744314" lon="151.2900641">
  <ele>343.09</ele>
  <time>2026-09-01T20:02:01Z</time>
  <course>270.93</course>
  <speed>0.0</speed>
  <fix>3d</fix>
</trkpt>
<trkpt lat="-27.2744316" lon="151.2900642">
  <ele>343.08</ele>
  <time>2026-09-01T20:02:01Z</time>
  <course>12.75</course>
  <speed>0.022360679774997897</speed>
  <fix>3d</fix>
</trkpt>
<trkpt lat="-27.2744314" lon="151.2900641">
  <ele>343.09</ele>
  <time>2026-09-01T20:02:01Z</time>
  <course>270.93</course>
  <speed>0.0</speed>
  <fix>3d</fix>
</trkpt>
<trkpt lat="-27.2744316" lon="151.2900642">
  <ele>343.08</ele>
  <time>2026-09-01T20:02:01Z</time>
  <course>12.75</course>
  <speed>0.022360679774997897</speed>
  <fix>3d</fix>
</trkpt>
<trkpt lat="-27.2744314" lon="151.2900641">
  <ele>343.09</ele>
  <time>2026-09-01T20:02:01Z</time>
  <course>270.93</course>
  <speed>0.0</speed>
  <fix>3d</fix>
</trkpt>
<trkpt lat="-27.2744316" lon="151.2900642">
  <ele>343.08</ele>
  <time>2026-09-01T20:02:01Z</time>
  <course>12.76</course>
  <speed>0.022360679774997897</speed>
  <fix>3d</fix>
</trkpt>
<trkpt lat="-27.2744314" lon="151.2900641">
  <ele>343.09</ele>
  <time>2026-09-01T20:02:01Z</time>
  <course>270.93</course>
  <speed>0.0</speed>
  <fix>3d</fix>
</trkpt>
<trkpt lat="-27.2744316" lon="151.2900642">
  <ele>343.08</ele>
  <time>2026-09-01T20:02:01Z</time>
  <course>12.76</course>
  <speed>0.022360679774997897</speed>
  <fix>3d</fix>
</trkpt>
<trkpt lat="-27.2744314" lon="151.2900641">
  <ele>343.09</ele>
  <time>2026-09-01T20:02:01Z</time>
  <course>270.93</course>
  <speed>0.0</speed>
  <fix>3d</fix>
</trkpt>
<trkpt lat="-27.2744316" lon="151.2900642">
  <ele>343.09</ele>
  <time>2026-09-01T20:02:01Z</time>
  <course>12.76</course>
  <speed>0.022360679774997897</speed>
  <fix>3d</fix>
</trkpt>
<trkpt lat="-27.2744314" lon="151.2900641">
  <ele>343.09</ele>
  <time>2026-09-01T20:02:01Z</time>
  <course>270.93</course>
  <speed>0.0</speed>
  <fix>3d</fix>
</trkpt>
<trkpt lat="-27.2744316" lon="151.2900642">
  <ele>343.09</ele>
  <time>2026-09-01T20:02:01Z</time>
  <course>12.77</course>
  <speed>0.022360679774997897</speed>
  <fix>3d</fix>
</trkpt>
<trkpt lat="-27.2744314" lon="151.2900641">
  <ele>343.09</ele>
  <time>2026-09-01T20:02:01Z</time>
  <course>270.93</course>
  <speed>0.0</speed>
  <fix>3d</fix>
</trkpt>
<trkpt lat="-27.2744316" lon="151.2900642">
  <ele>343.09</ele>
  <time>2026-09-01T20:02:01Z</time>
  <course>12.77</course>
  <speed>0.022360679774997897</speed>
  <fix>3d</fix>
</trkpt>
<trkpt lat="-27.2744314" lon="151.2900641">
  <ele>343.09</ele>
  <time>2026-09-01T20:02:01Z</time>
  <course>270.93</course>
  <speed>0.0</speed>
  <fix>3d</fix>
</trkpt>
<trkpt lat="-27.2744316" lon="151.2900642">
  <ele>343.09</ele>
  <time>2026-09-01T20:02:01Z</time>
  <course>12.77</course>
  <speed>0.022360679774997897</speed>
  <fix>3d</fix>
</trkpt>
<trkpt lat="-27.2744314" lon="151.2900641">
  <ele>343.09</ele>
  <time>2026-09-01T20:02:01Z</time>
  <course>270.93</course>
  <speed>0.0</speed>
  <fix>3d</fix>
</trkpt>
<trkpt lat="-27.2744316" lon="151.2900642">
  <ele>343.1</ele>
  <time>2026-09-01T20:02:01Z</time>
  <course>12.77</course>
  <speed>0.022360679774997897</speed>
  <fix>3d</fix>
</trkpt>
<trkpt lat="-27.2744314" lon="151.2900641">
  <ele>343.09</ele>
  <time>2026-09-01T20:02:01Z</time>
  <course>270.93</course>
  <speed>0.0</speed>
  <fix>3d</fix>
</trkpt>
<trkpt lat="-27.2744316" lon="151.2900642">
  <ele>343.1</ele>
  <time>2026-09-01T20:02:01Z</time>
  <course>12.78</course>
  <speed>0.022360679774997897</speed>
  <fix>3d</fix>
</trkpt>
<trkpt lat="-27.2744314" lon="151.2900641">
  <ele>343.09</ele>
  <time>2026-09-01T20:02:01Z</time>
  <course>270.93</course>
  <speed>0.0</speed>
  <fix>3d</fix>
</trkpt>
<trkpt lat="-27.2744316" lon="151.2900642">
  <ele>343.11</ele>
  <time>2026-09-01T20:02:01Z</time>
  <course>12.78</course>
  <speed>0.022360679774997897</speed>
  <fix>3d</fix>
</trkpt>
<trkpt lat="-27.2744314" lon="151.2900641">
  <ele>343.09</ele>
  <time>2026-09-01T20:02:01Z</time>
  <course>270.93</course>
  <speed>0.0</speed>
  <fix>3d</fix>
</trkpt>
<trkpt lat="-27.2744316" lon="151.2900642">
  <ele>343.11</ele>
  <time>2026-09-01T20:02:01Z</time>
  <course>12.78</course>
  <speed>0.022360679774997897</speed>
  <fix>3d</fix>
</trkpt>
<trkpt lat="-27.2744314" lon="151.2900641">
  <ele>343.09</ele>
  <time>2026-09-01T20:02:01Z</time>
  <course>270.93</course>
  <speed>0.0</speed>
  <fix>3d</fix>
</trkpt>
<trkpt lat="-27.2744316" lon="151.2900642">
  <ele>343.11</ele>
  <time>2026-09-01T20:02:01Z</time>
  <course>12.78</course>
  <speed>0.022360679774997897</speed>
  <fix>3d</fix>
</trkpt>
<trkpt lat="-27.2744314" lon="151.2900641">
  <ele>343.09</ele>
  <time>2026-09-01T20:02:01Z</time>
  <course>270.93</course>
  <speed>0.0</speed>
  <fix>3d</fix>
</trkpt>
<trkpt lat="-27.2744316" lon="151.2900642">
  <ele>343.12</ele>
  <time>2026-09-01T20:02:01Z</time>
  <course>12.79</course>
  <speed>0.022360679774997897</speed>
  <fix>3d</fix>
</trkpt>
<trkpt lat="-27.2744314" lon="151.2900641">
  <ele>343.09</ele>
  <time>2026-09-01T20:02:01Z</time>
  <course>270.93</course>
  <speed>0.0</speed>
  <fix>3d</fix>
</trkpt>
<trkpt lat="-27.2744316" lon="151.2900642">
  <ele>343.12</ele>
  <time>2026-09-01T20:02:01Z</time>
  <course>12.79</course>
  <speed>0.022360679774997897</speed>
  <fix>3d</fix>
</trkpt>
<trkpt lat="-27.2744314" lon="151.2900641">
  <ele>343.09</ele>
  <time>2026-09-01T20:02:01Z</time>
  <course>270.93</course>
  <speed>0.0</speed>
  <fix>3d</fix>
</trkpt>
<trkpt lat="-27.2744316" lon="151.2900642">
  <ele>343.12</ele>
  <time>2026-09-01T20:02:01Z</time>
  <course>12.79</course>
  <speed>0.022360679774997897</speed>
  <fix>3d</fix>
</trkpt>
<trkpt lat="-27.2744314" lon="151.2900641">
  <ele>343.09</ele>
  <time>2026-09-01T20:02:01Z</time>
  <course>270.93</course>
  <speed>0.0</speed>
  <fix>3d</fix>
</trkpt>
<trkpt lat="-27.2744316" lon="151.2900642">
  <ele>343.13</ele>
  <time>2026-09-01T20:02:01Z</time>
  <course>12.8</course>
  <speed>0.022360679774997897</speed>
  <fix>3d</fix>
</trkpt>
<trkpt lat="-27.2744314" lon="151.2900641">
  <ele>343.09</ele>
  <time>2026-09-01T20:02:01Z</time>
  <course>270.93</course>
  <speed>0.0</speed>
  <fix>3d</fix>
</trkpt>
<trkpt lat="-27.2744316" lon="151.2900642">
  <ele>343.13</ele>
  <time>2026-09-01T20:02:01Z</time>
  <course>12.8</course>
  <speed>0.022360679774997897</speed>
  <fix>3d</fix>
</trkpt>
<trkpt lat="-27.2744314" lon="151.2900641">
  <ele>343.09</ele>
  <time>2026-09-01T20:02:01Z</time>
  <course>270.93</course>
  <speed>0.0</speed>
  <fix>3d</fix>
</trkpt>
<trkpt lat="-27.2744316" lon="151.2900642">
  <ele>343.14</ele>
  <time>2026-09-01T20:02:01Z</time>
  <course>12.8</course>
  <speed>0.022360679774997897</speed>
  <fix>3d</fix>
</trkpt>
<trkpt lat="-27.2744314" lon="151.2900641">
  <ele>343.09</ele>
  <time>2026-09-01T20:02:01Z</time>
  <course>270.93</course>
  <speed>0.0</speed>
  <fix>3d</fix>
</trkpt>
<trkpt lat="-27.2744316" lon="151.2900642">
  <ele>343.14</ele>
  <time>2026-09-01T20:02:01Z</time>
  <course>12.8</course>
  <speed>0.022360679774997897</speed>
  <fix>3d</fix>
</trkpt>
<trkpt lat="-27.2744314" lon="151.2900641">
  <ele>343.09</ele>
  <time>2026-09-01T20:02:01Z</time>
  <course>270.93</course>
  <speed>0.0</speed>
  <fix>3d</fix>
</trkpt>
<trkpt lat="-27.2744316" lon="151.2900642">
  <ele>343.09</ele>
  <time>2026-09-01T20:02:01Z</time>
  <course>12.81</course>
  <speed>0.04242640687119285</speed>
  <fix>3d</fix>
</trkpt>
<trkpt lat="-27.2744314" lon="151.2900641">
  <ele>343.09</ele>
  <time>2026-09-01T20:02:01Z</time>
  <course>270.93</course>
  <speed>0.0</speed>
  <fix>3d</fix>
</trkpt>
<trkpt lat="-27.2744316" lon="151.2900642">
  <ele>343.09</ele>
  <time>2026-09-01T20:02:01Z</time>
  <course>12.81</course>
  <speed>0.10770329614269007</speed>
  <fix>3d</fix>
</trkpt>
<trkpt lat="-27.2744314" lon="151.2900641">
  <ele>343.09</ele>
  <time>2026-09-01T20:02:01Z</time>
  <course>270.93</course>
  <speed>0.0</speed>
  <fix>3d</fix>
</trkpt>
<trkpt lat="-27.2744314" lon="151.2900643">
  <ele>343.09</ele>
  <time>2026-09-01T20:02:01Z</time>
  <course>12.81</course>
  <speed>0.08944271909999159</speed>
  <fix>3d</fix>
</trkpt>
<trkpt lat="-27.2744313" lon="151.2900641">
  <ele>343.09</ele>
  <time>2026-09-01T20:02:01Z</time>
  <course>10.27</course>
  <speed>0.06</speed>
  <fix>3d</fix>
</trkpt>
<trkpt lat="-27.2744314" lon="151.2900643">
  <ele>343.09</ele>
  <time>2026-09-01T20:02:01Z</time>
  <course>12.82</course>
  <speed>0.022360679774997897</speed>
  <fix>3d</fix>
</trkpt>
<trkpt lat="-27.2744313" lon="151.2900641">
  <ele>343.09</ele>
  <time>2026-09-01T20:02:01Z</time>
  <course>10.27</course>
  <speed>0.06</speed>
  <fix>3d</fix>
</trkpt>
<trkpt lat="-27.2744314" lon="151.2900643">
  <ele>343.09</ele>
  <time>2026-09-01T20:02:01Z</time>
  <course>12.82</course>
  <speed>0.0316227766016838</speed>
  <fix>3d</fix>
</trkpt>
<trkpt lat="-27.2744312" lon="151.2900641">
  <ele>343.09</ele>
  <time>2026-09-01T20:02:01Z</time>
  <course>10.42</course>
  <speed>0.09</speed>
  <fix>3d</fix>
</trkpt>
<trkpt lat="-27.2744314" lon="151.2900643">
  <ele>343.08</ele>
  <time>2026-09-01T20:02:01Z</time>
  <course>12.82</course>
  <speed>0.0412310562561766</speed>
  <fix>3d</fix>
</trkpt>
<trkpt lat="-27.2744312" lon="151.2900641">
  <ele>343.09</ele>
  <time>2026-09-01T20:02:01Z</time>
  <course>10.42</course>
  <speed>0.09</speed>
  <fix>3d</fix>
</trkpt>
<trkpt lat="-27.2744314" lon="151.2900643">
  <ele>343.08</ele>
  <time>2026-09-01T20:02:01Z</time>
  <course>12.82</course>
  <speed>0.0412310562561766</speed>
  <fix>3d</fix>
</trkpt>
<trkpt lat="-27.2744311" lon="151.2900641">
  <ele>343.09</ele>
  <time>2026-09-01T20:02:01Z</time>
  <course>10.72</course>
  <speed>0.01</speed>
  <fix>3d</fix>
</trkpt>
<trkpt lat="-27.2744314" lon="151.2900643">
  <ele>343.08</ele>
  <time>2026-09-01T20:02:01Z</time>
  <course>12.83</course>
  <speed>0.08</speed>
  <fix>3d</fix>
</trkpt>
<trkpt lat="-27.2744311" lon="151.2900641">
  <ele>343.09</ele>
  <time>2026-09-01T20:02:01Z</time>
  <course>10.72</course>
  <speed>0.01</speed>
  <fix>3d</fix>
</trkpt>
<trkpt lat="-27.2744315" lon="151.2900643">
  <ele>343.08</ele>
  <time>2026-09-01T20:02:01Z</time>
  <course>12.83</course>
  <speed>0.16031219541881397</speed>
  <fix>3d</fix>
</trkpt>
<trkpt lat="-27.2744311" lon="151.2900641">
  <ele>343.09</ele>
  <time>2026-09-01T20:02:01Z</time>
  <course>189.91</course>
  <speed>0.03</speed>
  <fix>3d</fix>
</trkpt>
<trkpt lat="-27.2744315" lon="151.2900643">
  <ele>343.08</ele>
  <time>2026-09-01T20:02:01Z</time>
  <course>12.83</course>
  <speed>0.13</speed>
  <fix>3d</fix>
</trkpt>
<trkpt lat="-27.2744311" lon="151.2900641">
  <ele>343.09</ele>
  <time>2026-09-01T20:02:01Z</time>
  <course>189.91</course>
  <speed>0.03</speed>
  <fix>3d</fix>
</trkpt>
<trkpt lat="-27.2744316" lon="151.2900643">
  <ele>343.08</ele>
  <time>2026-09-01T20:02:01Z</time>
  <course>12.83</course>
  <speed>0.07</speed>
  <fix>3d</fix>
</trkpt>
<trkpt lat="-27.2744312" lon="151.2900641">
  <ele>343.09</ele>
  <time>2026-09-01T20:02:01Z</time>
  <course>189.69</course>
  <speed>0.08</speed>
  <fix>3d</fix>
</trkpt>
<trkpt lat="-27.2744316" lon="151.2900643">
  <ele>343.08</ele>
  <time>2026-09-01T20:02:01Z</time>
  <course>12.84</course>
  <speed>0.022360679774997897</speed>
  <fix>3d</fix>
</trkpt>
<trkpt lat="-27.2744312" lon="151.2900641">
  <ele>343.09</ele>
  <time>2026-09-01T20:02:01Z</time>
  <course>189.69</course>
  <speed>0.08</speed>
  <fix>3d</fix>
</trkpt>
<trkpt lat="-27.2744316" lon="151.2900643">
  <ele>343.08</ele>
  <time>2026-09-01T20:02:01Z</time>
  <course>12.84</course>
  <speed>0.02</speed>
  <fix>3d</fix>
</trkpt>
<trkpt lat="-27.2744314" lon="151.290064">
  <ele>343.09</ele>
  <time>2026-09-01T20:02:01Z</time>
  <course>189.74</course>
  <speed>0.05</speed>
  <fix>3d</fix>
</trkpt>
<trkpt lat="-27.2744316" lon="151.2900643">
  <ele>343.08</ele>
  <time>2026-09-01T20:02:01Z</time>
  <course>12.84</course>
  <speed>0.022360679774997897</speed>
  <fix>3d</fix>
</trkpt>
<trkpt lat="-27.2744314" lon="151.290064">
  <ele>343.09</ele>
  <time>2026-09-01T20:02:01Z</time>
  <course>189.74</course>
  <speed>0.05</speed>
  <fix>3d</fix>
</trkpt>
<trkpt lat="-27.2744316" lon="151.2900643">
  <ele>343.08</ele>
  <time>2026-09-01T20:02:01Z</time>
  <course>12.85</course>
  <speed>0.022360679774997897</speed>
  <fix>3d</fix>
</trkpt>
<trkpt lat="-27.2744314" lon="151.290064">
  <ele>343.09</ele>
  <time>2026-09-01T20:02:01Z</time>
  <course>9.99</course>
  <speed>0.0</speed>
  <fix>3d</fix>
</trkpt>
<trkpt lat="-27.2744316" lon="151.2900643">
  <ele>343.08</ele>
  <time>2026-09-01T20:02:01Z</time>
  <course>12.85</course>
  <speed>0.0316227766016838</speed>
  <fix>3d</fix>
</trkpt>
<trkpt lat="-27.2744314" lon="151.290064">
  <ele>343.09</ele>
  <time>2026-09-01T20:02:01Z</time>
  <course>9.99</course>
  <speed>0.0</speed>
  <fix>3d</fix>
</trkpt>
<trkpt lat="-27.2744316" lon="151.2900643">
  <ele>343.08</ele>
  <time>2026-09-01T20:02:01Z</time>
  <course>12.85</course>
  <speed>0.0316227766016838</speed>
  <fix>3d</fix>
</trkpt>
<trkpt lat="-27.2744314" lon="151.2900641">
  <ele>343.09</ele>
  <time>2026-09-01T20:02:01Z</time>
  <course>9.71</course>
  <speed>0.0</speed>
  <fix>3d</fix>
</trkpt>
<trkpt lat="-27.2744316" lon="151.2900643">
  <ele>343.08</ele>
  <time>2026-09-01T20:02:01Z</time>
  <course>12.85</course>
  <speed>0.022360679774997897</speed>
  <fix>3d</fix>
</trkpt>
<trkpt lat="-27.2744314" lon="151.2900641">
  <ele>343.09</ele>
  <time>2026-09-01T20:02:01Z</time>
  <course>9.71</course>
  <speed>0.0</speed>
  <fix>3d</fix>
</trkpt>
<trkpt lat="-27.2744316" lon="151.2900643">
  <ele>343.08</ele>
  <time>2026-09-01T20:02:01Z</time>
  <course>12.86</course>
  <speed>0.022360679774997897</speed>
  <fix>3d</fix>
</trkpt>
<trkpt lat="-27.2744314" lon="151.2900641">
  <ele>343.09</ele>
  <time>2026-09-01T20:02:01Z</time>
  <course>189.88</course>
  <speed>0.0</speed>
  <fix>3d</fix>
</trkpt>
<trkpt lat="-27.2744316" lon="151.2900643">
  <ele>343.08</ele>
  <time>2026-09-01T20:02:01Z</time>
  <course>12.86</course>
  <speed>0.022360679774997897</speed>
  <fix>3d</fix>
</trkpt>
<trkpt lat="-27.2744314" lon="151.2900641">
  <ele>343.09</ele>
  <time>2026-09-01T20:02:01Z</time>
  <course>189.88</course>
  <speed>0.0</speed>
  <fix>3d</fix>
</trkpt>
<trkpt lat="-27.2744316" lon="151.2900643">
  <ele>343.08</ele>
  <time>2026-09-01T20:02:01Z</time>
  <course>12.86</course>
  <speed>0.022360679774997897</speed>
  <fix>3d</fix>
</trkpt>
<trkpt lat="-27.2744314" lon="151.2900641">
  <ele>343.09</ele>
  <time>2026-09-01T20:02:01Z</time>
  <course>189.64</course>
  <speed>0.0</speed>
  <fix>3d</fix>
</trkpt>
<trkpt lat="-27.2744316" lon="151.2900643">
  <ele>343.08</ele>
  <time>2026-09-01T20:02:01Z</time>
  <course>12.86</course>
  <speed>0.022360679774997897</speed>
  <fix>3d</fix>
</trkpt>
<trkpt lat="-27.2744314" lon="151.2900641">
  <ele>343.09</ele>
  <time>2026-09-01T20:02:01Z</time>
  <course>189.64</course>
  <speed>0.0</speed>
  <fix>3d</fix>
</trkpt>
<trkpt lat="-27.2744316" lon="151.2900643">
  <ele>343.08</ele>
  <time>2026-09-01T20:02:01Z</time>
  <course>12.87</course>
  <speed>0.022360679774997897</speed>
  <fix>3d</fix>
</trkpt>
<trkpt lat="-27.2744314" lon="151.2900641">
  <ele>343.09</ele>
  <time>2026-09-01T20:02:01Z</time>
  <course>9.83</course>
  <speed>0.0</speed>
  <fix>3d</fix>
</trkpt>
<trkpt lat="-27.2744316" lon="151.2900643">
  <ele>343.08</ele>
  <time>2026-09-01T20:02:01Z</time>
  <course>12.87</course>
  <speed>0.022360679774997897</speed>
  <fix>3d</fix>
</trkpt>
<trkpt lat="-27.2744314" lon="151.2900641">
  <ele>343.09</ele>
  <time>2026-09-01T20:02:01Z</time>
  <course>9.83</course>
  <speed>0.0</speed>
  <fix>3d</fix>
</trkpt>
<trkpt lat="-27.2744316" lon="151.2900643">
  <ele>343.07</ele>
  <time>2026-09-01T20:02:01Z</time>
  <course>12.87</course>
  <speed>0.022360679774997897</speed>
  <fix>3d</fix>
</trkpt>
<trkpt lat="-27.2744314" lon="151.2900641">
  <ele>343.09</ele>
  <time>2026-09-01T20:02:01Z</time>
  <course>9.43</course>
  <speed>0.0</speed>
  <fix>3d</fix>
</trkpt>
<trkpt lat="-27.2744316" lon="151.2900643">
  <ele>343.07</ele>
  <time>2026-09-01T20:02:01Z</time>
  <course>12.88</course>
  <speed>0.022360679774997897</speed>
  <fix>3d</fix>
</trkpt>
<trkpt lat="-27.2744314" lon="151.2900641">
  <ele>343.09</ele>
  <time>2026-09-01T20:02:01Z</time>
  <course>9.43</course>
  <speed>0.0</speed>
  <fix>3d</fix>
</trkpt>
<trkpt lat="-27.2744316" lon="151.2900643">
  <ele>343.07</ele>
  <time>2026-09-01T20:02:01Z</time>
  <course>12.88</course>
  <speed>0.022360679774997897</speed>
  <fix>3d</fix>
</trkpt>
<trkpt lat="-27.2744314" lon="151.2900641">
  <ele>343.09</ele>
  <time>2026-09-01T20:02:01Z</time>
  <course>189.79</course>
  <speed>0.0</speed>
  <fix>3d</fix>
</trkpt>
<trkpt lat="-27.2744316" lon="151.2900643">
  <ele>343.07</ele>
  <time>2026-09-01T20:02:01Z</time>
  <course>12.88</course>
  <speed>0.022360679774997897</speed>
  <fix>3d</fix>
</trkpt>
<trkpt lat="-27.2744314" lon="151.2900641">
  <ele>343.09</ele>
  <time>2026-09-01T20:02:01Z</time>
  <course>189.79</course>
  <speed>0.0</speed>
  <fix>3d</fix>
</trkpt>
<trkpt lat="-27.2744316" lon="151.2900643">
  <ele>343.07</ele>
  <time>2026-09-01T20:02:01Z</time>
  <course>12.88</course>
  <speed>0.022360679774997897</speed>
  <fix>3d</fix>
</trkpt>
<trkpt lat="-27.2744314" lon="151.2900641">
  <ele>343.09</ele>
  <time>2026-09-01T20:02:01Z</time>
  <course>11.93</course>
  <speed>0.0</speed>
  <fix>3d</fix>
</trkpt>
<trkpt lat="-27.2744316" lon="151.2900643">
  <ele>343.07</ele>
  <time>2026-09-01T20:02:01Z</time>
  <course>12.89</course>
  <speed>0.022360679774997897</speed>
  <fix>3d</fix>
</trkpt>
<trkpt lat="-27.2744314" lon="151.2900641">
  <ele>343.09</ele>
  <time>2026-09-01T20:02:01Z</time>
  <course>11.93</course>
  <speed>0.0</speed>
  <fix>3d</fix>
</trkpt>
<trkpt lat="-27.2744316" lon="151.2900643">
  <ele>343.07</ele>
  <time>2026-09-01T20:02:02Z</time>
  <course>12.89</course>
  <speed>0.022360679774997897</speed>
  <fix>3d</fix>
</trkpt>
<trkpt lat="-27.2744314" lon="151.2900641">
  <ele>343.09</ele>
  <time>2026-09-01T20:02:02Z</time>
  <course>9.76</course>
  <speed>0.0</speed>
  <fix>3d</fix>
</trkpt>
<trkpt lat="-27.2744316" lon="151.2900643">
  <ele>343.07</ele>
  <time>2026-09-01T20:02:02Z</time>
  <course>12.89</course>
  <speed>0.022360679774997897</speed>
  <fix>3d</fix>
</trkpt>
<trkpt lat="-27.2744314" lon="151.2900641">
  <ele>343.09</ele>
  <time>2026-09-01T20:02:02Z</time>
  <course>9.76</course>
  <speed>0.0</speed>
  <fix>3d</fix>
</trkpt>
<trkpt lat="-27.2744316" lon="151.2900643">
  <ele>343.07</ele>
  <time>2026-09-01T20:02:02Z</time>
  <course>12.89</course>
  <speed>0.022360679774997897</speed>
  <fix>3d</fix>
</trkpt>
<trkpt lat="-27.2744314" lon="151.2900641">
  <ele>343.09</ele>
  <time>2026-09-01T20:02:02Z</time>
  <course>190.04</course>
  <speed>0.0</speed>
  <fix>3d</fix>
</trkpt>
<trkpt lat="-27.2744316" lon="151.2900643">
  <ele>343.07</ele>
  <time>2026-09-01T20:02:02Z</time>
  <course>12.9</course>
  <speed>0.022360679774997897</speed>
  <fix>3d</fix>
</trkpt>
<trkpt lat="-27.2744314" lon="151.2900641">
  <ele>343.09</ele>
  <time>2026-09-01T20:02:02Z</time>
  <course>190.04</course>
  <speed>0.0</speed>
  <fix>3d</fix>
</trkpt>
<trkpt lat="-27.2744316" lon="151.2900643">
  <ele>343.06</ele>
  <time>2026-09-01T20:02:02Z</time>
  <course>12.91</course>
  <speed>0.022360679774997897</speed>
  <fix>3d</fix>
</trkpt>
<trkpt lat="-27.2744314" lon="151.2900641">
  <ele>343.09</ele>
  <time>2026-09-01T20:02:02Z</time>
  <course>9.9</course>
  <speed>0.0</speed>
  <fix>3d</fix>
</trkpt>
<trkpt lat="-27.2744316" lon="151.2900643">
  <ele>343.08</ele>
  <time>2026-09-01T20:02:02Z</time>
  <course>12.92</course>
  <speed>0.022360679774997897</speed>
  <fix>3d</fix>
</trkpt>
<trkpt lat="-27.2744314" lon="151.2900641">
  <ele>343.09</ele>
  <time>2026-09-01T20:02:02Z</time>
  <course>189.84</course>
  <speed>0.0</speed>
  <fix>3d</fix>
</trkpt>
<trkpt lat="-27.2744316" lon="151.2900643">
  <ele>343.08</ele>
  <time>2026-09-01T20:02:02Z</time>
  <course>12.92</course>
  <speed>0.022360679774997897</speed>
  <fix>3d</fix>
</trkpt>
<trkpt lat="-27.2744314" lon="151.2900641">
  <ele>343.09</ele>
  <time>2026-09-01T20:02:02Z</time>
  <course>189.53</course>
  <speed>0.0</speed>
  <fix>3d</fix>
</trkpt>
<trkpt lat="-27.2744316" lon="151.2900643">
  <ele>343.08</ele>
  <time>2026-09-01T20:02:02Z</time>
  <course>12.92</course>
  <speed>0.022360679774997897</speed>
  <fix>3d</fix>
</trkpt>
<trkpt lat="-27.2744314" lon="151.2900641">
  <ele>343.09</ele>
  <time>2026-09-01T20:02:02Z</time>
  <course>189.53</course>
  <speed>0.0</speed>
  <fix>3d</fix>
</trkpt>
<trkpt lat="-27.2744316" lon="151.2900643">
  <ele>343.08</ele>
  <time>2026-09-01T20:02:02Z</time>
  <course>12.93</course>
  <speed>0.022360679774997897</speed>
  <fix>3d</fix>
</trkpt>
<trkpt lat="-27.2744314" lon="151.2900641">
  <ele>343.09</ele>
  <time>2026-09-01T20:02:02Z</time>
  <course>9.81</course>
  <speed>0.0</speed>
  <fix>3d</fix>
</trkpt>
<trkpt lat="-27.2744316" lon="151.2900643">
  <ele>343.08</ele>
  <time>2026-09-01T20:02:02Z</time>
  <course>12.93</course>
  <speed>0.022360679774997897</speed>
  <fix>3d</fix>
</trkpt>
<trkpt lat="-27.2744314" lon="151.2900641">
  <ele>343.09</ele>
  <time>2026-09-01T20:02:02Z</time>
  <course>9.81</course>
  <speed>0.0</speed>
  <fix>3d</fix>
</trkpt>
<trkpt lat="-27.2744316" lon="151.2900643">
  <ele>343.08</ele>
  <time>2026-09-01T20:02:02Z</time>
  <course>12.93</course>
  <speed>0.022360679774997897</speed>
  <fix>3d</fix>
</trkpt>
<trkpt lat="-27.2744314" lon="151.2900641">
  <ele>343.09</ele>
  <time>2026-09-01T20:02:02Z</time>
  <course>7.68</course>
  <speed>0.0</speed>
  <fix>3d</fix>
</trkpt>
<trkpt lat="-27.2744316" lon="151.2900643">
  <ele>343.09</ele>
  <time>2026-09-01T20:02:02Z</time>
  <course>12.93</course>
  <speed>0.022360679774997897</speed>
  <fix>3d</fix>
</trkpt>
<trkpt lat="-27.2744314" lon="151.2900641">
  <ele>343.09</ele>
  <time>2026-09-01T20:02:02Z</time>
  <course>7.68</course>
  <speed>0.0</speed>
  <fix>3d</fix>
</trkpt>
<trkpt lat="-27.2744316" lon="151.2900643">
  <ele>343.09</ele>
  <time>2026-09-01T20:02:02Z</time>
  <course>12.94</course>
  <speed>0.022360679774997897</speed>
  <fix>3d</fix>
</trkpt>
<trkpt lat="-27.2744314" lon="151.2900641">
  <ele>343.09</ele>
  <time>2026-09-01T20:02:02Z</time>
  <course>189.77</course>
  <speed>0.0</speed>
  <fix>3d</fix>
</trkpt>
<trkpt lat="-27.2744316" lon="151.2900643">
  <ele>343.09</ele>
  <time>2026-09-01T20:02:02Z</time>
  <course>12.94</course>
  <speed>0.022360679774997897</speed>
  <fix>3d</fix>
</trkpt>
<trkpt lat="-27.2744314" lon="151.2900641">
  <ele>343.09</ele>
  <time>2026-09-01T20:02:02Z</time>
  <course>189.77</course>
  <speed>0.0</speed>
  <fix>3d</fix>
</trkpt>
<trkpt lat="-27.2744316" lon="151.2900643">
  <ele>343.09</ele>
  <time>2026-09-01T20:02:02Z</time>
  <course>12.94</course>
  <speed>0.022360679774997897</speed>
  <fix>3d</fix>
</trkpt>
<trkpt lat="-27.2744314" lon="151.2900641">
  <ele>343.09</ele>
  <time>2026-09-01T20:02:02Z</time>
  <course>10.14</course>
  <speed>0.0</speed>
  <fix>3d</fix>
</trkpt>
<trkpt lat="-27.2744316" lon="151.2900643">
  <ele>343.09</ele>
  <time>2026-09-01T20:02:02Z</time>
  <course>12.94</course>
  <speed>0.022360679774997897</speed>
  <fix>3d</fix>
</trkpt>
<trkpt lat="-27.2744314" lon="151.2900641">
  <ele>343.09</ele>
  <time>2026-09-01T20:02:02Z</time>
  <course>10.14</course>
  <speed>0.0</speed>
  <fix>3d</fix>
</trkpt>
<trkpt lat="-27.2744316" lon="151.2900643">
  <ele>343.08</ele>
  <time>2026-09-01T20:02:02Z</time>
  <course>12.95</course>
  <speed>0.022360679774997897</speed>
  <fix>3d</fix>
</trkpt>
<trkpt lat="-27.2744314" lon="151.2900641">
  <ele>343.09</ele>
  <time>2026-09-01T20:02:02Z</time>
  <course>9.73</course>
  <speed>0.0</speed>
  <fix>3d</fix>
</trkpt>
<trkpt lat="-27.2744316" lon="151.2900643">
  <ele>343.08</ele>
  <time>2026-09-01T20:02:02Z</time>
  <course>12.95</course>
  <speed>0.022360679774997897</speed>
  <fix>3d</fix>
</trkpt>
<trkpt lat="-27.2744314" lon="151.2900641">
  <ele>343.09</ele>
  <time>2026-09-01T20:02:02Z</time>
  <course>9.73</course>
  <speed>0.0</speed>
  <fix>3d</fix>
</trkpt>
<trkpt lat="-27.2744316" lon="151.2900643">
  <ele>343.08</ele>
  <time>2026-09-01T20:02:02Z</time>
  <course>12.95</course>
  <speed>0.022360679774997897</speed>
  <fix>3d</fix>
</trkpt>
<trkpt lat="-27.2744314" lon="151.2900641">
  <ele>343.09</ele>
  <time>2026-09-01T20:02:02Z</time>
  <course>189.93</course>
  <speed>0.0</speed>
  <fix>3d</fix>
</trkpt>
<trkpt lat="-27.2744316" lon="151.2900643">
  <ele>343.08</ele>
  <time>2026-09-01T20:02:02Z</time>
  <course>12.95</course>
  <speed>0.022360679774997897</speed>
  <fix>3d</fix>
</trkpt>
<trkpt lat="-27.2744314" lon="151.2900641">
  <ele>343.09</ele>
  <time>2026-09-01T20:02:02Z</time>
  <course>189.93</course>
  <speed>0.0</speed>
  <fix>3d</fix>
</trkpt>
<trkpt lat="-27.2744316" lon="151.2900643">
  <ele>343.09</ele>
  <time>2026-09-01T20:02:02Z</time>
  <course>12.96</course>
  <speed>0.022360679774997897</speed>
  <fix>3d</fix>
</trkpt>
<trkpt lat="-27.2744314" lon="151.2900641">
  <ele>343.09</ele>
  <time>2026-09-01T20:02:02Z</time>
  <course>189.68</course>
  <speed>0.0</speed>
  <fix>3d</fix>
</trkpt>
<trkpt lat="-27.2744316" lon="151.2900643">
  <ele>343.09</ele>
  <time>2026-09-01T20:02:02Z</time>
  <course>12.96</course>
  <speed>0.022360679774997897</speed>
  <fix>3d</fix>
</trkpt>
<trkpt lat="-27.2744314" lon="151.2900641">
  <ele>343.09</ele>
  <time>2026-09-01T20:02:02Z</time>
  <course>189.68</course>
  <speed>0.0</speed>
  <fix>3d</fix>
</trkpt>
<trkpt lat="-27.2744316" lon="151.2900643">
  <ele>343.09</ele>
  <time>2026-09-01T20:02:02Z</time>
  <course>12.96</course>
  <speed>0.022360679774997897</speed>
  <fix>3d</fix>
</trkpt>
<trkpt lat="-27.2744314" lon="151.2900641">
  <ele>343.09</ele>
  <time>2026-09-01T20:02:02Z</time>
  <course>9.86</course>
  <speed>0.0</speed>
  <fix>3d</fix>
</trkpt>
<trkpt lat="-27.2744316" lon="151.2900643">
  <ele>343.09</ele>
  <time>2026-09-01T20:02:02Z</time>
  <course>12.96</course>
  <speed>0.022360679774997897</speed>
  <fix>3d</fix>
</trkpt>
<trkpt lat="-27.2744314" lon="151.2900641">
  <ele>343.09</ele>
  <time>2026-09-01T20:02:02Z</time>
  <course>9.86</course>
  <speed>0.0</speed>
  <fix>3d</fix>
</trkpt>
<trkpt lat="-27.2744316" lon="151.2900643">
  <ele>343.09</ele>
  <time>2026-09-01T20:02:02Z</time>
  <course>12.97</course>
  <speed>0.022360679774997897</speed>
  <fix>3d</fix>
</trkpt>
<trkpt lat="-27.2744314" lon="151.2900641">
  <ele>343.09</ele>
  <time>2026-09-01T20:02:02Z</time>
  <course>9.58</course>
  <speed>0.0</speed>
  <fix>3d</fix>
</trkpt>
<trkpt lat="-27.2744316" lon="151.2900643">
  <ele>343.09</ele>
  <time>2026-09-01T20:02:02Z</time>
  <course>12.97</course>
  <speed>0.022360679774997897</speed>
  <fix>3d</fix>
</trkpt>
<trkpt lat="-27.2744314" lon="151.2900641">
  <ele>343.09</ele>
  <time>2026-09-01T20:02:02Z</time>
  <course>9.58</course>
  <speed>0.0</speed>
  <fix>3d</fix>
</trkpt>
<trkpt lat="-27.2744316" lon="151.2900643">
  <ele>343.1</ele>
  <time>2026-09-01T20:02:02Z</time>
  <course>12.97</course>
  <speed>0.022360679774997897</speed>
  <fix>3d</fix>
</trkpt>
<trkpt lat="-27.2744314" lon="151.2900641">
  <ele>343.09</ele>
  <time>2026-09-01T20:02:02Z</time>
  <course>189.82</course>
  <speed>0.0</speed>
  <fix>3d</fix>
</trkpt>
<trkpt lat="-27.2744316" lon="151.2900643">
  <ele>343.1</ele>
  <time>2026-09-01T20:02:02Z</time>
  <course>12.98</course>
  <speed>0.022360679774997897</speed>
  <fix>3d</fix>
</trkpt>
<trkpt lat="-27.2744314" lon="151.2900641">
  <ele>343.09</ele>
  <time>2026-09-01T20:02:02Z</time>
  <course>189.82</course>
  <speed>0.0</speed>
  <fix>3d</fix>
</trkpt>
<trkpt lat="-27.2744316" lon="151.2900643">
  <ele>343.1</ele>
  <time>2026-09-01T20:02:02Z</time>
  <course>12.98</course>
  <speed>0.022360679774997897</speed>
  <fix>3d</fix>
</trkpt>
<trkpt lat="-27.2744314" lon="151.2900641">
  <ele>343.09</ele>
  <time>2026-09-01T20:02:02Z</time>
  <course>189.1</course>
  <speed>0.0</speed>
  <fix>3d</fix>
</trkpt>
<trkpt lat="-27.2744316" lon="151.2900643">
  <ele>343.1</ele>
  <time>2026-09-01T20:02:02Z</time>
  <course>12.98</course>
  <speed>0.022360679774997897</speed>
  <fix>3d</fix>
</trkpt>
<trkpt lat="-27.2744314" lon="151.2900641">
  <ele>343.09</ele>
  <time>2026-09-01T20:02:02Z</time>
  <course>189.1</course>
  <speed>0.0</speed>
  <fix>3d</fix>
</trkpt>
<trkpt lat="-27.2744316" lon="151.2900643">
  <ele>343.1</ele>
  <time>2026-09-01T20:02:02Z</time>
  <course>12.98</course>
  <speed>0.022360679774997897</speed>
  <fix>3d</fix>
</trkpt>
<trkpt lat="-27.2744314" lon="151.2900641">
  <ele>343.09</ele>
  <time>2026-09-01T20:02:02Z</time>
  <course>9.77</course>
  <speed>0.0</speed>
  <fix>3d</fix>
</trkpt>
<trkpt lat="-26.9720619" lon="149.6127921">
  <ele>339.29</ele>
  <time>2026-09-01T20:02:02Z</time>
  <course>310.27</course>
  <speed>0.0</speed>
  <fix>3d</fix>
</trkpt>
<trkpt lat="-26.9720619" lon="149.6127921">
  <ele>339.29</ele>
  <time>2026-09-01T20:02:02Z</time>
  <course>310.27</course>
  <speed>0.0</speed>
  <fix>3d</fix>
</trkpt>
<trkpt lat="-27.274439" lon="151.290064">
  <ele>-0.01</ele>
  <time>2026-09-01T20:02:02Z</time>
  <course>0.22</course>
  <speed>0.0</speed>
  <fix>3d</fix>
</trkpt>
<trkpt lat="-27.274439" lon="151.290064">
  <ele>343.1</ele>
  <time>2026-09-01T20:02:02Z</time>
  <course>294.58</course>
  <speed>0.0</speed>
  <fix>3d</fix>
</trkpt>
<trkpt lat="-27.274439" lon="151.290064">
  <ele>0.02</ele>
  <time>2026-09-01T20:02:02Z</time>
  <course>1.2</course>
  <speed>0.0</speed>
  <fix>3d</fix>
</trkpt>
<trkpt lat="-27.274439" lon="151.290064">
  <ele>343.1</ele>
  <time>2026-09-01T20:02:02Z</time>
  <course>294.58</course>
  <speed>0.0</speed>
  <fix>3d</fix>
</trkpt>
<trkpt lat="-27.274439" lon="151.290064">
  <ele>-0.08</ele>
  <time>2026-09-01T20:02:02Z</time>
  <course>2.1</course>
  <speed>0.0</speed>
  <fix>3d</fix>
</trkpt>
<trkpt lat="-27.274439" lon="151.290064">
  <ele>343.1</ele>
  <time>2026-09-01T20:02:02Z</time>
  <course>273.33</course>
  <speed>0.0</speed>
  <fix>3d</fix>
</trkpt>
<trkpt lat="-27.274439" lon="151.290064">
  <ele>0.22</ele>
  <time>2026-09-01T20:02:02Z</time>
  <course>2.92</course>
  <speed>0.0</speed>
  <fix>3d</fix>
</trkpt>
<trkpt lat="-27.274439" lon="151.290064">
  <ele>343.1</ele>
  <time>2026-09-01T20:02:02Z</time>
  <course>273.33</course>
  <speed>0.0</speed>
  <fix>3d</fix>
</trkpt>
<trkpt lat="-27.274439" lon="151.290064">
  <ele>0.09</ele>
  <time>2026-09-01T20:02:02Z</time>
  <course>3.66</course>
  <speed>0.0</speed>
  <fix>3d</fix>
</trkpt>
<trkpt lat="-27.274439" lon="151.290064">
  <ele>343.1</ele>
  <time>2026-09-01T20:02:02Z</time>
  <course>270.44</course>
  <speed>0.0</speed>
  <fix>3d</fix>
</trkpt>
<trkpt lat="-27.274439" lon="151.290064">
  <ele>0.08</ele>
  <time>2026-09-01T20:02:02Z</time>
  <course>4.34</course>
  <speed>0.0</speed>
  <fix>3d</fix>
</trkpt>
<trkpt lat="-27.274439" lon="151.290064">
  <ele>343.1</ele>
  <time>2026-09-01T20:02:02Z</time>
  <course>270.44</course>
  <speed>0.0</speed>
  <fix>3d</fix>
</trkpt>
<trkpt lat="-27.274439" lon="151.290064">
  <ele>0.09</ele>
  <time>2026-09-01T20:02:02Z</time>
  <course>4.95</course>
  <speed>0.0</speed>
  <fix>3d</fix>
</trkpt>
<trkpt lat="-27.274439" lon="151.290064">
  <ele>343.1</ele>
  <time>2026-09-01T20:02:02Z</time>
  <course>270.05</course>
  <speed>0.0</speed>
  <fix>3d</fix>
</trkpt>
<trkpt lat="-27.274439" lon="151.290064">
  <ele>-0.05</ele>
  <time>2026-09-01T20:02:02Z</time>
  <course>5.5</course>
  <speed>0.0</speed>
  <fix>3d</fix>
</trkpt>
<trkpt lat="-27.274439" lon="151.290064">
  <ele>343.1</ele>
  <time>2026-09-01T20:02:02Z</time>
  <course>270.05</course>
  <speed>0.0</speed>
  <fix>3d</fix>
</trkpt>
<trkpt lat="-27.274439" lon="151.290064">
  <ele>343.06</ele>
  <time>2026-09-01T20:02:02Z</time>
  <course>5.98</course>
  <speed>0.0</speed>
  <fix>3d</fix>
</trkpt>
<trkpt lat="-27.274439" lon="151.290064">
  <ele>343.1</ele>
  <time>2026-09-01T20:02:02Z</time>
  <course>270.0</course>
  <speed>0.0</speed>
  <fix>3d</fix>
</trkpt>
<trkpt lat="-27.274439" lon="151.290064">
  <ele>343.18</ele>
  <time>2026-09-01T20:02:02Z</time>
  <course>6.44</course>
  <speed>0.0</speed>
  <fix>3d</fix>
</trkpt>
<trkpt lat="-27.274439" lon="151.290064">
  <ele>343.1</ele>
  <time>2026-09-01T20:02:02Z</time>
  <course>270.0</course>
  <speed>0.0</speed>
  <fix>3d</fix>
</trkpt>
<trkpt lat="-27.274439" lon="151.290064">
  <ele>342.91</ele>
  <time>2026-09-01T20:02:02Z</time>
  <course>6.85</course>
  <speed>0.0</speed>
  <fix>3d</fix>
</trkpt>
<trkpt lat="-27.274439" lon="151.290064">
  <ele>343.1</ele>
  <time>2026-09-01T20:02:02Z</time>
  <course>270.0</course>
  <speed>0.0</speed>
  <fix>3d</fix>
</trkpt>
<trkpt lat="-27.274439" lon="151.290064">
  <ele>343.06</ele>
  <time>2026-09-01T20:02:02Z</time>
  <course>7.22</course>
  <speed>0.0</speed>
  <fix>3d</fix>
</trkpt>
<trkpt lat="-27.274439" lon="151.290064">
  <ele>343.1</ele>
  <time>2026-09-01T20:02:02Z</time>
  <course>270.0</course>
  <speed>0.0</speed>
  <fix>3d</fix>
</trkpt>
<trkpt lat="-27.274439" lon="151.290064">
  <ele>343.13</ele>
  <time>2026-09-01T20:02:02Z</time>
  <course>7.56</course>
  <speed>0.0</speed>
  <fix>3d</fix>
</trkpt>
<trkpt lat="-27.274439" lon="151.290064">
  <ele>343.1</ele>
  <time>2026-09-01T20:02:02Z</time>
  <course>270.0</course>
  <speed>0.0</speed>
  <fix>3d</fix>
</trkpt>
<trkpt lat="-27.274439" lon="151.290064">
  <ele>343.04</ele>
  <time>2026-09-01T20:02:02Z</time>
  <course>7.87</course>
  <speed>0.0</speed>
  <fix>3d</fix>
</trkpt>
<trkpt lat="-27.274439" lon="151.290064">
  <ele>343.1</ele>
  <time>2026-09-01T20:02:02Z</time>
  <course>270.0</course>
  <speed>0.0</speed>
  <fix>3d</fix>
</trkpt>
<trkpt lat="-27.274439" lon="151.290064">
  <ele>342.88</ele>
  <time>2026-09-01T20:02:02Z</time>
  <course>8.14</course>
  <speed>0.0</speed>
  <fix>3d</fix>
</trkpt>
<trkpt lat="-27.274439" lon="151.290064">
  <ele>343.1</ele>
  <time>2026-09-01T20:02:02Z</time>
  <course>270.0</course>
  <speed>0.0</speed>
  <fix>3d</fix>
</trkpt>
<trkpt lat="-27.274439" lon="151.290064">
  <ele>343.02</ele>
  <time>2026-09-01T20:02:02Z</time>
  <course>8.39</course>
  <speed>0.0</speed>
  <fix>3d</fix>
</trkpt>
<trkpt lat="-27.274439" lon="151.290064">
  <ele>343.1</ele>
  <time>2026-09-01T20:02:02Z</time>
  <course>270.0</course>
  <speed>0.0</speed>
  <fix>3d</fix>
</trkpt>
<trkpt lat="-27.274439" lon="151.290064">
  <ele>343.23</ele>
  <time>2026-09-01T20:02:02Z</time>
  <course>8.63</course>
  <speed>0.0</speed>
  <fix>3d</fix>
</trkpt>
<trkpt lat="-27.274439" lon="151.290064">
  <ele>343.1</ele>
  <time>2026-09-01T20:02:02Z</time>
  <course>270.0</course>
  <speed>0.0</speed>
  <fix>3d</fix>
</trkpt>
<trkpt lat="-27.274439" lon="151.290064">
  <ele>343.17</ele>
  <time>2026-09-01T20:02:02Z</time>
  <course>8.83</course>
  <speed>0.0</speed>
  <fix>3d</fix>
</trkpt>
<trkpt lat="-27.274439" lon="151.290064">
  <ele>343.1</ele>
  <time>2026-09-01T20:02:02Z</time>
  <course>270.0</course>
  <speed>0.0</speed>
  <fix>3d</fix>
</trkpt>
<trkpt lat="-27.274439" lon="151.290064">
  <ele>343.04</ele>
  <time>2026-09-01T20:02:02Z</time>
  <course>9.01</course>
  <speed>0.0</speed>
  <fix>3d</fix>
</trkpt>
<trkpt lat="-27.274439" lon="151.290064">
  <ele>343.1</ele>
  <time>2026-09-01T20:02:02Z</time>
  <course>270.0</course>
  <speed>0.0</speed>
  <fix>3d</fix>
</trkpt>
<trkpt lat="-27.274439" lon="151.290064">
  <ele>342.89</ele>
  <time>2026-09-01T20:02:02Z</time>
  <course>9.18</course>
  <speed>0.0</speed>
  <fix>3d</fix>
</trkpt>
<trkpt lat="-27.274439" lon="151.290064">
  <ele>343.1</ele>
  <time>2026-09-01T20:02:02Z</time>
  <course>270.0</course>
  <speed>0.0</speed>
  <fix>3d</fix>
</trkpt>
<trkpt lat="-27.274439" lon="151.290064">
  <ele>343.08</ele>
  <time>2026-09-01T20:02:02Z</time>
  <course>9.33</course>
  <speed>0.0</speed>
  <fix>3d</fix>
</trkpt>
<trkpt lat="-27.274439" lon="151.290064">
  <ele>343.1</ele>
  <time>2026-09-01T20:02:02Z</time>
  <course>270.0</course>
  <speed>0.0</speed>
  <fix>3d</fix>
</trkpt>
<trkpt lat="-27.274439" lon="151.290064">
  <ele>343.19</ele>
  <time>2026-09-01T20:02:02Z</time>
  <course>9.47</course>
  <speed>0.0</speed>
  <fix>3d</fix>
</trkpt>
<trkpt lat="-27.274439" lon="151.290064">
  <ele>343.1</ele>
  <time>2026-09-01T20:02:02Z</time>
  <course>270.0</course>
  <speed>0.0</speed>
  <fix>3d</fix>
</trkpt>
<trkpt lat="-27.274439" lon="151.290064">
  <ele>342.88</ele>
  <time>2026-09-01T20:02:02Z</time>
  <course>9.59</course>
  <speed>0.0</speed>
  <fix>3d</fix>
</trkpt>
<trkpt lat="-27.274439" lon="151.290064">
  <ele>343.1</ele>
  <time>2026-09-01T20:02:02Z</time>
  <course>270.0</course>
  <speed>0.0</speed>
  <fix>3d</fix>
</trkpt>
<trkpt lat="-27.274439" lon="151.290064">
  <ele>343.17</ele>
  <time>2026-09-01T20:02:02Z</time>
  <course>9.7</course>
  <speed>0.0</speed>
  <fix>3d</fix>
</trkpt>
<trkpt lat="-27.274439" lon="151.290064">
  <ele>343.1</ele>
  <time>2026-09-01T20:02:02Z</time>
  <course>270.0</course>
  <speed>0.0</speed>
  <fix>3d</fix>
</trkpt>
<trkpt lat="-27.274439" lon="151.290064">
  <ele>342.89</ele>
  <time>2026-09-01T20:02:02Z</time>
  <course>9.8</course>
  <speed>0.0</speed>
  <fix>3d</fix>
</trkpt>
<trkpt lat="-27.274439" lon="151.290064">
  <ele>343.1</ele>
  <time>2026-09-01T20:02:02Z</time>
  <course>270.0</course>
  <speed>0.0</speed>
  <fix>3d</fix>
</trkpt>
<trkpt lat="-27.274439" lon="151.290064">
  <ele>342.99</ele>
  <time>2026-09-01T20:02:02Z</time>
  <course>9.9</course>
  <speed>0.0</speed>
  <fix>3d</fix>
</trkpt>
<trkpt lat="-27.274439" lon="151.290064">
  <ele>343.1</ele>
  <time>2026-09-01T20:02:02Z</time>
  <course>270.0</course>
  <speed>0.0</speed>
  <fix>3d</fix>
</trkpt>
<trkpt lat="-27.274439" lon="151.290064">
  <ele>342.87</ele>
  <time>2026-09-01T20:02:02Z</time>
  <course>9.98</course>
  <speed>0.0</speed>
  <fix>3d</fix>
</trkpt>
<trkpt lat="-27.274439" lon="151.290064">
  <ele>343.1</ele>
  <time>2026-09-01T20:02:02Z</time>
  <course>270.0</course>
  <speed>0.0</speed>
  <fix>3d</fix>
</trkpt>
<trkpt lat="-27.274439" lon="151.290064">
  <ele>343.09</ele>
  <time>2026-09-01T20:02:02Z</time>
  <course>10.06</course>
  <speed>0.0</speed>
  <fix>3d</fix>
</trkpt>
<trkpt lat="-27.274439" lon="151.290064">
  <ele>343.1</ele>
  <time>2026-09-01T20:02:02Z</time>
  <course>270.0</course>
  <speed>0.0</speed>
  <fix>3d</fix>
</trkpt>
<trkpt lat="-27.274439" lon="151.290064">
  <ele>343.18</ele>
  <time>2026-09-01T20:02:02Z</time>
  <course>10.13</course>
  <speed>0.0</speed>
  <fix>3d</fix>
</trkpt>
<trkpt lat="-27.274439" lon="151.290064">
  <ele>343.1</ele>
  <time>2026-09-01T20:02:02Z</time>
  <course>270.0</course>
  <speed>0.0</speed>
  <fix>3d</fix>
</trkpt>
<trkpt lat="-27.274439" lon="151.290064">
  <ele>343.05</ele>
  <time>2026-09-01T20:02:02Z</time>
  <course>10.2</course>
  <speed>0.0</speed>
  <fix>3d</fix>
</trkpt>
<trkpt lat="-27.274439" lon="151.290064">
  <ele>343.1</ele>
  <time>2026-09-01T20:02:02Z</time>
  <course>270.0</course>
  <speed>0.0</speed>
  <fix>3d</fix>
</trkpt>
<trkpt lat="-27.274439" lon="151.290064">
  <ele>342.96</ele>
  <time>2026-09-01T20:02:02Z</time>
  <course>10.25</course>
  <speed>0.0</speed>
  <fix>3d</fix>
</trkpt>
<trkpt lat="-27.274439" lon="151.290064">
  <ele>343.1</ele>
  <time>2026-09-01T20:02:02Z</time>
  <course>270.0</course>
  <speed>0.0</speed>
  <fix>3d</fix>
</trkpt>
<trkpt lat="-27.274439" lon="151.290064">
  <ele>343.1</ele>
  <time>2026-09-01T20:02:02Z</time>
  <course>10.31</course>
  <speed>0.0</speed>
  <fix>3d</fix>
</trkpt>
<trkpt lat="-27.274439" lon="151.290064">
  <ele>343.1</ele>
  <time>2026-09-01T20:02:02Z</time>
  <course>270.0</course>
  <speed>0.0</speed>
  <fix>3d</fix>
</trkpt>
<trkpt lat="-27.274439" lon="151.290064">
  <ele>343.22</ele>
  <time>2026-09-01T20:02:02Z</time>
  <course>10.35</course>
  <speed>0.0</speed>
  <fix>3d</fix>
</trkpt>
<trkpt lat="-27.274439" lon="151.290064">
  <ele>343.1</ele>
  <time>2026-09-01T20:02:02Z</time>
  <course>270.0</course>
  <speed>0.0</speed>
  <fix>3d</fix>
</trkpt>
<trkpt lat="-27.274439" lon="151.290064">
  <ele>343.17</ele>
  <time>2026-09-01T20:02:02Z</time>
  <course>10.4</course>
  <speed>0.0</speed>
  <fix>3d</fix>
</trkpt>
<trkpt lat="-27.274439" lon="151.290064">
  <ele>343.1</ele>
  <time>2026-09-01T20:02:02Z</time>
  <course>270.0</course>
  <speed>0.0</speed>
  <fix>3d</fix>
</trkpt>
<trkpt lat="-27.274439" lon="151.290064">
  <ele>343.08</ele>
  <time>2026-09-01T20:02:02Z</time>
  <course>10.44</course>
  <speed>0.0</speed>
  <fix>3d</fix>
</trkpt>
<trkpt lat="-27.274439" lon="151.290064">
  <ele>343.1</ele>
  <time>2026-09-01T20:02:02Z</time>
  <course>270.0</course>
  <speed>0.0</speed>
  <fix>3d</fix>
</trkpt>
<trkpt lat="-27.274439" lon="151.290064">
  <ele>343.04</ele>
  <time>2026-09-01T20:02:02Z</time>
  <course>10.47</course>
  <speed>0.0</speed>
  <fix>3d</fix>
</trkpt>
<trkpt lat="-27.274439" lon="151.290064">
  <ele>343.1</ele>
  <time>2026-09-01T20:02:02Z</time>
  <course>270.0</course>
  <speed>0.0</speed>
  <fix>3d</fix>
</trkpt>
<trkpt lat="-27.274439" lon="151.290064">
  <ele>343.18</ele>
  <time>2026-09-01T20:02:02Z</time>
  <course>10.5</course>
  <speed>0.0</speed>
  <fix>3d</fix>
</trkpt>
<trkpt lat="-27.274439" lon="151.290064">
  <ele>343.1</ele>
  <time>2026-09-01T20:02:02Z</time>
  <course>270.0</course>
  <speed>0.0</speed>
  <fix>3d</fix>
</trkpt>
<trkpt lat="-27.274439" lon="151.290064">
  <ele>343.12</ele>
  <time>2026-09-01T20:02:02Z</time>
  <course>10.53</course>
  <speed>0.0</speed>
  <fix>3d</fix>
</trkpt>
<trkpt lat="-27.274439" lon="151.290064">
  <ele>343.1</ele>
  <time>2026-09-01T20:02:02Z</time>
  <course>270.0</course>
  <speed>0.0</speed>
  <fix>3d</fix>
</trkpt>
<trkpt lat="-27.274439" lon="151.290064">
  <ele>343.04</ele>
  <time>2026-09-01T20:02:02Z</time>
  <course>10.56</course>
  <speed>0.0</speed>
  <fix>3d</fix>
</trkpt>
<trkpt lat="-27.274439" lon="151.290064">
  <ele>343.1</ele>
  <time>2026-09-01T20:02:02Z</time>
  <course>270.0</course>
  <speed>0.0</speed>
  <fix>3d</fix>
</trkpt>
<trkpt lat="-27.274439" lon="151.290064">
  <ele>343.07</ele>
  <time>2026-09-01T20:02:02Z</time>
  <course>10.58</course>
  <speed>0.0</speed>
  <fix>3d</fix>
</trkpt>
<trkpt lat="-27.274439" lon="151.290064">
  <ele>343.1</ele>
  <time>2026-09-01T20:02:02Z</time>
  <course>270.0</course>
  <speed>0.0</speed>
  <fix>3d</fix>
</trkpt>
<trkpt lat="-27.274439" lon="151.290064">
  <ele>343.04</ele>
  <time>2026-09-01T20:02:02Z</time>
  <course>10.6</course>
  <speed>0.0</speed>
  <fix>3d</fix>
</trkpt>
<trkpt lat="-27.274439" lon="151.290064">
  <ele>343.1</ele>
  <time>2026-09-01T20:02:02Z</time>
  <course>270.0</course>
  <speed>0.0</speed>
  <fix>3d</fix>
</trkpt>
<trkpt lat="-27.274439" lon="151.290064">
  <ele>343.01</ele>
  <time>2026-09-01T20:02:02Z</time>
  <course>10.62</course>
  <speed>0.0</speed>
  <fix>3d</fix>
</trkpt>
<trkpt lat="-27.274439" lon="151.290064">
  <ele>343.1</ele>
  <time>2026-09-01T20:02:02Z</time>
  <course>270.0</course>
  <speed>0.0</speed>
  <fix>3d</fix>
</trkpt>
<trkpt lat="-27.274439" lon="151.290064">
  <ele>343.2</ele>
  <time>2026-09-01T20:02:02Z</time>
  <course>10.64</course>
  <speed>0.0</speed>
  <fix>3d</fix>
</trkpt>
<trkpt lat="-27.274439" lon="151.290064">
  <ele>343.1</ele>
  <time>2026-09-01T20:02:02Z</time>
  <course>270.0</course>
  <speed>0.0</speed>
  <fix>3d</fix>
</trkpt>
<trkpt lat="-27.274439" lon="151.290064">
  <ele>343.24</ele>
  <time>2026-09-01T20:02:02Z</time>
  <course>10.65</course>
  <speed>0.0</speed>
  <fix>3d</fix>
</trkpt>
<trkpt lat="-27.274439" lon="151.290064">
  <ele>343.1</ele>
  <time>2026-09-01T20:02:02Z</time>
  <course>270.0</course>
  <speed>0.0</speed>
  <fix>3d</fix>
</trkpt>
<trkpt lat="-27.274439" lon="151.290064">
  <ele>342.88</ele>
  <time>2026-09-01T20:02:02Z</time>
  <course>10.67</course>
  <speed>0.0</speed>
  <fix>3d</fix>
</trkpt>
<trkpt lat="-27.274439" lon="151.290064">
  <ele>343.1</ele>
  <time>2026-09-01T20:02:02Z</time>
  <course>270.0</course>
  <speed>0.0</speed>
  <fix>3d</fix>
</trkpt>
<trkpt lat="-27.274439" lon="151.290064">
  <ele>343.21</ele>
  <time>2026-09-01T20:02:02Z</time>
  <course>10.68</course>
  <speed>0.0</speed>
  <fix>3d</fix>
</trkpt>
<trkpt lat="-27.274439" lon="151.290064">
  <ele>343.1</ele>
  <time>2026-09-01T20:02:02Z</time>
  <course>270.0</course>
  <speed>0.0</speed>
  <fix>3d</fix>
</trkpt>
<trkpt lat="-27.274439" lon="151.290064">
  <ele>343.02</ele>
  <time>2026-09-01T20:02:02Z</time>
  <course>10.69</course>
  <speed>0.0</speed>
  <fix>3d</fix>
</trkpt>
<trkpt lat="-27.274439" lon="151.290064">
  <ele>343.1</ele>
  <time>2026-09-01T20:02:02Z</time>
  <course>270.0</course>
  <speed>0.0</speed>
  <fix>3d</fix>
</trkpt>
<trkpt lat="-27.274439" lon="151.290064">
  <ele>342.93</ele>
  <time>2026-09-01T20:02:03Z</time>
  <course>10.7</course>
  <speed>0.0</speed>
  <fix>3d</fix>
</trkpt>
<trkpt lat="-27.274439" lon="151.290064">
  <ele>343.1</ele>
  <time>2026-09-01T20:02:03Z</time>
  <course>270.0</course>
  <speed>0.0</speed>
  <fix>3d</fix>
</trkpt>
<trkpt lat="-27.274439" lon="151.290064">
  <ele>343.07</ele>
  <time>2026-09-01T20:02:03Z</time>
  <course>10.71</course>
  <speed>0.0</speed>
  <fix>3d</fix>
</trkpt>
<trkpt lat="-27.274439" lon="151.290064">
  <ele>343.1</ele>
  <time>2026-09-01T20:02:03Z</time>
  <course>270.0</course>
  <speed>0.0</speed>
  <fix>3d</fix>
</trkpt>
<trkpt lat="-27.274439" lon="151.290064">
  <ele>342.94</ele>
  <time>2026-09-01T20:02:03Z</time>
  <course>10.72</course>
  <speed>0.0</speed>
  <fix>3d</fix>
</trkpt>
<trkpt lat="-27.274439" lon="151.290064">
  <ele>343.1</ele>
  <time>2026-09-01T20:02:03Z</time>
  <course>270.0</course>
  <speed>0.0</speed>
  <fix>3d</fix>
</trkpt>
<trkpt lat="-27.274439" lon="151.290064">
  <ele>343.11</ele>
  <time>2026-09-01T20:02:03Z</time>
  <course>10.73</course>
  <speed>0.0</speed>
  <fix>3d</fix>
</trkpt>
<trkpt lat="-27.274439" lon="151.290064">
  <ele>343.1</ele>
  <time>2026-09-01T20:02:03Z</time>
  <course>270.0</course>
  <speed>0.0</speed>
  <fix>3d</fix>
</trkpt>
<trkpt lat="-27.274439" lon="151.290064">
  <ele>343.24</ele>
  <time>2026-09-01T20:02:03Z</time>
  <course>10.73</course>
  <speed>0.0</speed>
  <fix>3d</fix>
</trkpt>
<trkpt lat="-27.274439" lon="151.290064">
  <ele>343.1</ele>
  <time>2026-09-01T20:02:03Z</time>
  <course>270.0</course>
  <speed>0.0</speed>
  <fix>3d</fix>
</trkpt>
<trkpt lat="-27.274439" lon="151.290064">
  <ele>343.18</ele>
  <time>2026-09-01T20:02:03Z</time>
  <course>10.74</course>
  <speed>0.0</speed>
  <fix>3d</fix>
</trkpt>
<trkpt lat="-27.274439" lon="151.290064">
  <ele>343.1</ele>
  <time>2026-09-01T20:02:03Z</time>
  <course>270.0</course>
  <speed>0.0</speed>
  <fix>3d</fix>
</trkpt>
<trkpt lat="-27.274439" lon="151.290064">
  <ele>342.89</ele>
  <time>2026-09-01T20:02:03Z</time>
  <course>10.75</course>
  <speed>0.0</speed>
  <fix>3d</fix>
</trkpt>
<trkpt lat="-27.274439" lon="151.290064">
  <ele>343.1</ele>
  <time>2026-09-01T20:02:03Z</time>
  <course>270.0</course>
  <speed>0.0</speed>
  <fix>3d</fix>
</trkpt>
<trkpt lat="-27.274439" lon="151.290064">
  <ele>343.23</ele>
  <time>2026-09-01T20:02:03Z</time>
  <course>10.75</course>
  <speed>0.0</speed>
  <fix>3d</fix>
</trkpt>
<trkpt lat="-27.274439" lon="151.290064">
  <ele>343.1</ele>
  <time>2026-09-01T20:02:03Z</time>
  <course>270.0</course>
  <speed>0.0</speed>
  <fix>3d</fix>
</trkpt>
<trkpt lat="-27.274439" lon="151.290064">
  <ele>343.23</ele>
  <time>2026-09-01T20:02:03Z</time>
  <course>10.76</course>
  <speed>0.0</speed>
  <fix>3d</fix>
</trkpt>
<trkpt lat="-27.274439" lon="151.290064">
  <ele>343.1</ele>
  <time>2026-09-01T20:02:03Z</time>
  <course>270.0</course>
  <speed>0.0</speed>
  <fix>3d</fix>
</trkpt>
<trkpt lat="-27.274439" lon="151.290064">
  <ele>342.99</ele>
  <time>2026-09-01T20:02:03Z</time>
  <course>10.76</course>
  <speed>0.0</speed>
  <fix>3d</fix>
</trkpt>
<trkpt lat="-27.274439" lon="151.290064">
  <ele>343.1</ele>
  <time>2026-09-01T20:02:03Z</time>
  <course>270.0</course>
  <speed>0.0</speed>
  <fix>3d</fix>
</trkpt>
<trkpt lat="-27.274439" lon="151.290064">
  <ele>343.13</ele>
  <time>2026-09-01T20:02:03Z</time>
  <course>10.76</course>
  <speed>0.0</speed>
  <fix>3d</fix>
</trkpt>
<trkpt lat="-27.274439" lon="151.290064">
  <ele>343.1</ele>
  <time>2026-09-01T20:02:03Z</time>
  <course>270.0</course>
  <speed>0.0</speed>
  <fix>3d</fix>
</trkpt>
<trkpt lat="-27.274439" lon="151.290064">
  <ele>343.07</ele>
  <time>2026-09-01T20:02:03Z</time>
  <course>10.77</course>
  <speed>0.0</speed>
  <fix>3d</fix>
</trkpt>
<trkpt lat="-27.274439" lon="151.290064">
  <ele>343.1</ele>
  <time>2026-09-01T20:02:03Z</time>
  <course>270.0</course>
  <speed>0.0</speed>
  <fix>3d</fix>
</trkpt>
<trkpt lat="-27.274439" lon="151.290064">
  <ele>343.19</ele>
  <time>2026-09-01T20:02:03Z</time>
  <course>10.77</course>
  <speed>0.0</speed>
  <fix>3d</fix>
</trkpt>
<trkpt lat="-27.274439" lon="151.290064">
  <ele>343.1</ele>
  <time>2026-09-01T20:02:03Z</time>
  <course>270.0</course>
  <speed>0.0</speed>
  <fix>3d</fix>
</trkpt>
<trkpt lat="-27.274439" lon="151.290064">
  <ele>342.93</ele>
  <time>2026-09-01T20:02:03Z</time>
  <course>10.77</course>
  <speed>0.0</speed>
  <fix>3d</fix>
</trkpt>
<trkpt lat="-27.274439" lon="151.290064">
  <ele>343.1</ele>
  <time>2026-09-01T20:02:03Z</time>
  <course>270.0</course>
  <speed>0.0</speed>
  <fix>3d</fix>
</trkpt>
<trkpt lat="-27.274439" lon="151.290064">
  <ele>343.19</ele>
  <time>2026-09-01T20:02:03Z</time>
  <course>10.78</course>
  <speed>0.0</speed>
  <fix>3d</fix>
</trkpt>
<trkpt lat="-27.274439" lon="151.290064">
  <ele>343.1</ele>
  <time>2026-09-01T20:02:03Z</time>
  <course>270.0</course>
  <speed>0.0</speed>
  <fix>3d</fix>
</trkpt>
<trkpt lat="-27.274439" lon="151.290064">
  <ele>343.1</ele>
  <time>2026-09-01T20:02:03Z</time>
  <course>10.78</course>
  <speed>0.0</speed>
  <fix>3d</fix>
</trkpt>
<trkpt lat="-27.274439" lon="151.290064">
  <ele>343.1</ele>
  <time>2026-09-01T20:02:03Z</time>
  <course>270.0</course>
  <speed>0.0</speed>
  <fix>3d</fix>
</trkpt>
<trkpt lat="-27.274439" lon="151.290064">
  <ele>343.01</ele>
  <time>2026-09-01T20:02:03Z</time>
  <course>10.78</course>
  <speed>0.0</speed>
  <fix>3d</fix>
</trkpt>
<trkpt lat="-27.274439" lon="151.290064">
  <ele>343.1</ele>
  <time>2026-09-01T20:02:03Z</time>
  <course>270.0</course>
  <speed>0.0</speed>
  <fix>3d</fix>
</trkpt>
<trkpt lat="-27.274439" lon="151.290064">
  <ele>343.11</ele>
  <time>2026-09-01T20:02:03Z</time>
  <course>10.78</course>
  <speed>0.0</speed>
  <fix>3d</fix>
</trkpt>
<trkpt lat="-27.274439" lon="151.290064">
  <ele>343.1</ele>
  <time>2026-09-01T20:02:03Z</time>
  <course>270.0</course>
  <speed>0.0</speed>
  <fix>3d</fix>
</trkpt>
<trkpt lat="-27.274439" lon="151.290064">
  <ele>342.96</ele>
  <time>2026-09-01T20:02:03Z</time>
  <course>10.78</course>
  <speed>0.0</speed>
  <fix>3d</fix>
</trkpt>
<trkpt lat="-27.274439" lon="151.290064">
  <ele>343.1</ele>
  <time>2026-09-01T20:02:03Z</time>
  <course>270.0</course>
  <speed>0.0</speed>
  <fix>3d</fix>
</trkpt>
<trkpt lat="-27.274439" lon="151.290064">
  <ele>343.19</ele>
  <time>2026-09-01T20:02:03Z</time>
  <course>10.79</course>
  <speed>0.0</speed>
  <fix>3d</fix>
</trkpt>
<trkpt lat="-27.274439" lon="151.290064">
  <ele>343.1</ele>
  <time>2026-09-01T20:02:03Z</time>
  <course>270.0</course>
  <speed>0.0</speed>
  <fix>3d</fix>
</trkpt>
<trkpt lat="-27.274439" lon="151.290064">
  <ele>343.0</ele>
  <time>2026-09-01T20:02:03Z</time>
  <course>10.79</course>
  <speed>0.0</speed>
  <fix>3d</fix>
</trkpt>
<trkpt lat="-27.274439" lon="151.290064">
  <ele>343.1</ele>
  <time>2026-09-01T20:02:03Z</time>
  <course>270.0</course>
  <speed>0.0</speed>
  <fix>3d</fix>
</trkpt>
<trkpt lat="-27.274439" lon="151.290064">
  <ele>343.2</ele>
  <time>2026-09-01T20:02:03Z</time>
  <course>10.79</course>
  <speed>0.0</speed>
  <fix>3d</fix>
</trkpt>
<trkpt lat="-27.274439" lon="151.290064">
  <ele>343.1</ele>
  <time>2026-09-01T20:02:03Z</time>
  <course>270.0</course>
  <speed>0.0</speed>
  <fix>3d</fix>
</trkpt>
<trkpt lat="-27.274439" lon="151.290064">
  <ele>343.2</ele>
  <time>2026-09-01T20:02:03Z</time>
  <course>10.79</course>
  <speed>0.0</speed>
  <fix>3d</fix>
</trkpt>
<trkpt lat="-27.274439" lon="151.290064">
  <ele>343.1</ele>
  <time>2026-09-01T20:02:03Z</time>
  <course>270.0</course>
  <speed>0.0</speed>
  <fix>3d</fix>
</trkpt>
<trkpt lat="-27.274439" lon="151.290064">
  <ele>343.13</ele>
  <time>2026-09-01T20:02:03Z</time>
  <course>10.79</course>
  <speed>0.0</speed>
  <fix>3d</fix>
</trkpt>
<trkpt lat="-27.274439" lon="151.290064">
  <ele>343.1</ele>
  <time>2026-09-01T20:02:03Z</time>
  <course>270.0</course>
  <speed>0.0</speed>
  <fix>3d</fix>
</trkpt>
<trkpt lat="-27.274439" lon="151.290064">
  <ele>343.1</ele>
  <time>2026-09-01T20:02:03Z</time>
  <course>10.79</course>
  <speed>0.0</speed>
  <fix>3d</fix>
</trkpt>
<trkpt lat="-27.274439" lon="151.290064">
  <ele>343.1</ele>
  <time>2026-09-01T20:02:03Z</time>
  <course>270.0</course>
  <speed>0.0</speed>
  <fix>3d</fix>
</trkpt>
<trkpt lat="-27.274439" lon="151.290064">
  <ele>343.12</ele>
  <time>2026-09-01T20:02:03Z</time>
  <course>10.79</course>
  <speed>0.0</speed>
  <fix>3d</fix>
</trkpt>
<trkpt lat="-27.274439" lon="151.290064">
  <ele>343.1</ele>
  <time>2026-09-01T20:02:03Z</time>
  <course>270.0</course>
  <speed>0.0</speed>
  <fix>3d</fix>
</trkpt>
<trkpt lat="-27.274439" lon="151.290064">
  <ele>342.94</ele>
  <time>2026-09-01T20:02:03Z</time>
  <course>10.79</course>
  <speed>0.0</speed>
  <fix>3d</fix>
</trkpt>
<trkpt lat="-27.274439" lon="151.290064">
  <ele>343.1</ele>
  <time>2026-09-01T20:02:03Z</time>
  <course>270.0</course>
  <speed>0.0</speed>
  <fix>3d</fix>
</trkpt>
<trkpt lat="-27.274439" lon="151.290064">
  <ele>343.25</ele>
  <time>2026-09-01T20:02:03Z</time>
  <course>10.79</course>
  <speed>0.0</speed>
  <fix>3d</fix>
</trkpt>
<trkpt lat="-27.274439" lon="151.290064">
  <ele>343.1</ele>
  <time>2026-09-01T20:02:03Z</time>
  <course>270.0</course>
  <speed>0.0</speed>
  <fix>3d</fix>
</trkpt>
<trkpt lat="-27.274439" lon="151.290064">
  <ele>342.93</ele>
  <time>2026-09-01T20:02:03Z</time>
  <course>10.79</course>
  <speed>0.0</speed>
  <fix>3d</fix>
</trkpt>
<trkpt lat="-27.274439" lon="151.290064">
  <ele>343.1</ele>
  <time>2026-09-01T20:02:03Z</time>
  <course>270.0</course>
  <speed>0.0</speed>
  <fix>3d</fix>
</trkpt>
<trkpt lat="-27.274439" lon="151.290064">
  <ele>343.08</ele>
  <time>2026-09-01T20:02:03Z</time>
  <course>10.79</course>
  <speed>0.0</speed>
  <fix>3d</fix>
</trkpt>
<trkpt lat="-27.274439" lon="151.290064">
  <ele>343.1</ele>
  <time>2026-09-01T20:02:03Z</time>
  <course>270.0</course>
  <speed>0.0</speed>
  <fix>3d</fix>
</trkpt>
<trkpt lat="-27.274439" lon="151.290064">
  <ele>343.23</ele>
  <time>2026-09-01T20:02:03Z</time>
  <course>10.8</course>
  <speed>0.0</speed>
  <fix>3d</fix>
</trkpt>
<trkpt lat="-27.274439" lon="151.290064">
  <ele>343.1</ele>
  <time>2026-09-01T20:02:03Z</time>
  <course>270.0</course>
  <speed>0.0</speed>
  <fix>3d</fix>
</trkpt>
<trkpt lat="-27.274439" lon="151.290064">
  <ele>343.01</ele>
  <time>2026-09-01T20:02:03Z</time>
  <course>10.8</course>
  <speed>0.0</speed>
  <fix>3d</fix>
</trkpt>
<trkpt lat="-27.274439" lon="151.290064">
  <ele>343.1</ele>
  <time>2026-09-01T20:02:03Z</time>
  <course>270.0</course>
  <speed>0.0</speed>
  <fix>3d</fix>
</trkpt>
<trkpt lat="-27.274439" lon="151.290064">
  <ele>343.1</ele>
  <time>2026-09-01T20:02:03Z</time>
  <course>10.8</course>
  <speed>0.0</speed>
  <fix>3d</fix>
</trkpt>
<trkpt lat="-27.274439" lon="151.290064">
  <ele>343.1</ele>
  <time>2026-09-01T20:02:03Z</time>
  <course>270.0</course>
  <speed>0.0</speed>
  <fix>3d</fix>
</trkpt>
<trkpt lat="-27.274439" lon="151.290064">
  <ele>342.99</ele>
  <time>2026-09-01T20:02:03Z</time>
  <course>10.8</course>
  <speed>0.0</speed>
  <fix>3d</fix>
</trkpt>
<trkpt lat="-27.274439" lon="151.290064">
  <ele>343.1</ele>
  <time>2026-09-01T20:02:03Z</time>
  <course>270.0</course>
  <speed>0.0</speed>
  <fix>3d</fix>
</trkpt>
<trkpt lat="-27.274439" lon="151.290064">
  <ele>342.87</ele>
  <time>2026-09-01T20:02:03Z</time>
  <course>10.8</course>
  <speed>0.0</speed>
  <fix>3d</fix>
</trkpt>
<trkpt lat="-27.274439" lon="151.290064">
  <ele>343.1</ele>
  <time>2026-09-01T20:02:03Z</time>
  <course>270.0</course>
  <speed>0.0</speed>
  <fix>3d</fix>
</trkpt>
<trkpt lat="-27.274439" lon="151.290064">
  <ele>343.1</ele>
  <time>2026-09-01T20:02:03Z</time>
  <course>10.8</course>
  <speed>0.0</speed>
  <fix>3d</fix>
</trkpt>
<trkpt lat="-27.274439" lon="151.290064">
  <ele>343.1</ele>
  <time>2026-09-01T20:02:03Z</time>
  <course>270.0</course>
  <speed>0.0</speed>
  <fix>3d</fix>
</trkpt>
<trkpt lat="-27.274439" lon="151.290064">
  <ele>342.99</ele>
  <time>2026-09-01T20:02:03Z</time>
  <course>10.8</course>
  <speed>0.0</speed>
  <fix>3d</fix>
</trkpt>
<trkpt lat="-27.274439" lon="151.290064">
  <ele>343.1</ele>
  <time>2026-09-01T20:02:03Z</time>
  <course>270.0</course>
  <speed>0.0</speed>
  <fix>3d</fix>
</trkpt>
<trkpt lat="-27.274439" lon="151.290064">
  <ele>342.91</ele>
  <time>2026-09-01T20:02:03Z</time>
  <course>10.8</course>
  <speed>0.0</speed>
  <fix>3d</fix>
</trkpt>
<trkpt lat="-27.274439" lon="151.290064">
  <ele>343.1</ele>
  <time>2026-09-01T20:02:03Z</time>
  <course>270.0</course>
  <speed>0.0</speed>
  <fix>3d</fix>
</trkpt>
<trkpt lat="-27.274439" lon="151.290064">
  <ele>342.9</ele>
  <time>2026-09-01T20:02:03Z</time>
  <course>10.8</course>
  <speed>0.0</speed>
  <fix>3d</fix>
</trkpt>
<trkpt lat="-27.274439" lon="151.290064">
  <ele>343.1</ele>
  <time>2026-09-01T20:02:03Z</time>
  <course>270.0</course>
  <speed>0.0</speed>
  <fix>3d</fix>
</trkpt>
<trkpt lat="-27.274439" lon="151.290064">
  <ele>342.87</ele>
  <time>2026-09-01T20:02:03Z</time>
  <course>10.8</course>
  <speed>0.0</speed>
  <fix>3d</fix>
</trkpt>
<trkpt lat="-27.274439" lon="151.290064">
  <ele>343.1</ele>
  <time>2026-09-01T20:02:03Z</time>
  <course>270.0</course>
  <speed>0.0</speed>
  <fix>3d</fix>
</trkpt>
<trkpt lat="-27.274439" lon="151.290064">
  <ele>343.12</ele>
  <time>2026-09-01T20:02:03Z</time>
  <course>10.8</course>
  <speed>0.0</speed>
  <fix>3d</fix>
</trkpt>
<trkpt lat="-27.274439" lon="151.290064">
  <ele>343.1</ele>
  <time>2026-09-01T20:02:03Z</time>
  <course>270.0</course>
  <speed>0.0</speed>
  <fix>3d</fix>
</trkpt>
<trkpt lat="-27.274439" lon="151.290064">
  <ele>342.99</ele>
  <time>2026-09-01T20:02:03Z</time>
  <course>10.8</course>
  <speed>0.0</speed>
  <fix>3d</fix>
</trkpt>
<trkpt lat="-27.274439" lon="151.290064">
  <ele>343.1</ele>
  <time>2026-09-01T20:02:03Z</time>
  <course>270.0</course>
  <speed>0.0</speed>
  <fix>3d</fix>
</trkpt>
<trkpt lat="-27.274439" lon="151.290064">
  <ele>343.13</ele>
  <time>2026-09-01T20:02:03Z</time>
  <course>10.8</course>
  <speed>0.0</speed>
  <fix>3d</fix>
</trkpt>
<trkpt lat="-27.274439" lon="151.290064">
  <ele>343.1</ele>
  <time>2026-09-01T20:02:03Z</time>
  <course>270.0</course>
  <speed>0.0</speed>
  <fix>3d</fix>
</trkpt>
<trkpt lat="-27.274439" lon="151.290064">
  <ele>343.0</ele>
  <time>2026-09-01T20:02:03Z</time>
  <course>10.8</course>
  <speed>0.0</speed>
  <fix>3d</fix>
</trkpt>
<trkpt lat="-27.274439" lon="151.290064">
  <ele>343.1</ele>
  <time>2026-09-01T20:02:03Z</time>
  <course>270.0</course>
  <speed>0.0</speed>
  <fix>3d</fix>
</trkpt>
<trkpt lat="-27.274439" lon="151.290064">
  <ele>343.17</ele>
  <time>2026-09-01T20:02:03Z</time>
  <course>10.8</course>
  <speed>0.0</speed>
  <fix>3d</fix>
</trkpt>
<trkpt lat="-27.274439" lon="151.290064">
  <ele>343.1</ele>
  <time>2026-09-01T20:02:03Z</time>
  <course>270.0</course>
  <speed>0.0</speed>
  <fix>3d</fix>
</trkpt>
<trkpt lat="-27.274439" lon="151.290064">
  <ele>343.0</ele>
  <time>2026-09-01T20:02:03Z</time>
  <course>10.8</course>
  <speed>0.0</speed>
  <fix>3d</fix>
</trkpt>
<trkpt lat="-27.274439" lon="151.290064">
  <ele>343.1</ele>
  <time>2026-09-01T20:02:03Z</time>
  <course>270.0</course>
  <speed>0.0</speed>
  <fix>3d</fix>
</trkpt>
<trkpt lat="-27.274439" lon="151.290064">
  <ele>342.99</ele>
  <time>2026-09-01T20:02:03Z</time>
  <course>10.8</course>
  <speed>0.0</speed>
  <fix>3d</fix>
</trkpt>
<trkpt lat="-27.274439" lon="151.290064">
  <ele>343.1</ele>
  <time>2026-09-01T20:02:03Z</time>
  <course>270.0</course>
  <speed>0.0</speed>
  <fix>3d</fix>
</trkpt>
<trkpt lat="-27.274439" lon="151.290064">
  <ele>343.17</ele>
  <time>2026-09-01T20:02:03Z</time>
  <course>10.8</course>
  <speed>0.0</speed>
  <fix>3d</fix>
</trkpt>
<trkpt lat="-27.274439" lon="151.290064">
  <ele>343.1</ele>
  <time>2026-09-01T20:02:03Z</time>
  <course>270.0</course>
  <speed>0.0</speed>
  <fix>3d</fix>
</trkpt>
<trkpt lat="-27.274439" lon="151.290064">
  <ele>343.16</ele>
  <time>2026-09-01T20:02:03Z</time>
  <course>10.8</course>
  <speed>0.0</speed>
  <fix>3d</fix>
</trkpt>
<trkpt lat="-27.274439" lon="151.290064">
  <ele>343.1</ele>
  <time>2026-09-01T20:02:03Z</time>
  <course>270.0</course>
  <speed>0.0</speed>
  <fix>3d</fix>
</trkpt>
<trkpt lat="-27.274439" lon="151.290064">
  <ele>342.87</ele>
  <time>2026-09-01T20:02:03Z</time>
  <course>10.8</course>
  <speed>0.0</speed>
  <fix>3d</fix>
</trkpt>
<trkpt lat="-27.274439" lon="151.290064">
  <ele>343.1</ele>
  <time>2026-09-01T20:02:03Z</time>
  <course>270.0</course>
  <speed>0.0</speed>
  <fix>3d</fix>
</trkpt>
<trkpt lat="-27.274439" lon="151.290064">
  <ele>343.19</ele>
  <time>2026-09-01T20:02:03Z</time>
  <course>10.8</course>
  <speed>0.0</speed>
  <fix>3d</fix>
</trkpt>
<trkpt lat="-27.274439" lon="151.290064">
  <ele>343.1</ele>
  <time>2026-09-01T20:02:03Z</time>
  <course>270.0</course>
  <speed>0.0</speed>
  <fix>3d</fix>
</trkpt>
<trkpt lat="-27.274439" lon="151.290064">
  <ele>343.16</ele>
  <time>2026-09-01T20:02:03Z</time>
  <course>10.8</course>
  <speed>0.0</speed>
  <fix>3d</fix>
</trkpt>
<trkpt lat="-27.274439" lon="151.290064">
  <ele>343.1</ele>
  <time>2026-09-01T20:02:03Z</time>
  <course>270.0</course>
  <speed>0.0</speed>
  <fix>3d</fix>
</trkpt>
<trkpt lat="-27.274439" lon="151.290064">
  <ele>343.21</ele>
  <time>2026-09-01T20:02:03Z</time>
  <course>10.8</course>
  <speed>0.0</speed>
  <fix>3d</fix>
</trkpt>
<trkpt lat="-27.274439" lon="151.290064">
  <ele>343.1</ele>
  <time>2026-09-01T20:02:03Z</time>
  <course>270.0</course>
  <speed>0.0</speed>
  <fix>3d</fix>
</trkpt>
<trkpt lat="-27.274439" lon="151.290064">
  <ele>343.22</ele>
  <time>2026-09-01T20:02:03Z</time>
  <course>10.8</course>
  <speed>0.0</speed>
  <fix>3d</fix>
</trkpt>
<trkpt lat="-27.274439" lon="151.290064">
  <ele>343.1</ele>
  <time>2026-09-01T20:02:03Z</time>
  <course>270.0</course>
  <speed>0.0</speed>
  <fix>3d</fix>
</trkpt>
<trkpt lat="-27.274439" lon="151.290064">
  <ele>343.24</ele>
  <time>2026-09-01T20:02:03Z</time>
  <course>10.8</course>
  <speed>0.0</speed>
  <fix>3d</fix>
</trkpt>
<trkpt lat="-27.274439" lon="151.290064">
  <ele>343.1</ele>
  <time>2026-09-01T20:02:03Z</time>
  <course>270.0</course>
  <speed>0.0</speed>
  <fix>3d</fix>
</trkpt>
<trkpt lat="-27.274439" lon="151.290064">
  <ele>343.0</ele>
  <time>2026-09-01T20:02:03Z</time>
  <course>10.8</course>
  <speed>0.0</speed>
  <fix>3d</fix>
</trkpt>
<trkpt lat="-27.274439" lon="151.290064">
  <ele>343.1</ele>
  <time>2026-09-01T20:02:03Z</time>
  <course>270.0</course>
  <speed>0.0</speed>
  <fix>3d</fix>
</trkpt>
<trkpt lat="-27.274439" lon="151.290064">
  <ele>343.1</ele>
  <time>2026-09-01T20:02:03Z</time>
  <course>10.8</course>
  <speed>0.0</speed>
  <fix>3d</fix>
</trkpt>
<trkpt lat="-27.274439" lon="151.290064">
  <ele>343.1</ele>
  <time>2026-09-01T20:02:03Z</time>
  <course>270.0</course>
  <speed>0.0</speed>
  <fix>3d</fix>
</trkpt>
<trkpt lat="-27.274439" lon="151.290064">
  <ele>343.05</ele>
  <time>2026-09-01T20:02:03Z</time>
  <course>10.8</course>
  <speed>0.0</speed>
  <fix>3d</fix>
</trkpt>
<trkpt lat="-27.274439" lon="151.290064">
  <ele>343.1</ele>
  <time>2026-09-01T20:02:03Z</time>
  <course>270.0</course>
  <speed>0.0</speed>
  <fix>3d</fix>
</trkpt>
<trkpt lat="-27.274439" lon="151.290064">
  <ele>342.87</ele>
  <time>2026-09-01T20:02:03Z</time>
  <course>10.8</course>
  <speed>0.0</speed>
  <fix>3d</fix>
</trkpt>
<trkpt lat="-27.274439" lon="151.290064">
  <ele>343.1</ele>
  <time>2026-09-01T20:02:03Z</time>
  <course>270.0</course>
  <speed>0.0</speed>
  <fix>3d</fix>
</trkpt>
<trkpt lat="-27.274439" lon="151.290064">
  <ele>342.92</ele>
  <time>2026-09-01T20:02:03Z</time>
  <course>10.8</course>
  <speed>0.0</speed>
  <fix>3d</fix>
</trkpt>
<trkpt lat="-27.274439" lon="151.290064">
  <ele>343.1</ele>
  <time>2026-09-01T20:02:03Z</time>
  <course>270.0</course>
  <speed>0.0</speed>
  <fix>3d</fix>
</trkpt>
<trkpt lat="-27.274439" lon="151.290064">
  <ele>342.96</ele>
  <time>2026-09-01T20:02:03Z</time>
  <course>10.8</course>
  <speed>0.0</speed>
  <fix>3d</fix>
</trkpt>
<trkpt lat="-27.274439" lon="151.290064">
  <ele>343.1</ele>
  <time>2026-09-01T20:02:03Z</time>
  <course>270.0</course>
  <speed>0.0</speed>
  <fix>3d</fix>
</trkpt>
<trkpt lat="-27.274439" lon="151.290064">
  <ele>343.15</ele>
  <time>2026-09-01T20:02:03Z</time>
  <course>10.8</course>
  <speed>0.0</speed>
  <fix>3d</fix>
</trkpt>
<trkpt lat="-27.274439" lon="151.290064">
  <ele>343.1</ele>
  <time>2026-09-01T20:02:03Z</time>
  <course>270.0</course>
  <speed>0.0</speed>
  <fix>3d</fix>
</trkpt>
<trkpt lat="-27.274439" lon="151.290064">
  <ele>343.16</ele>
  <time>2026-09-01T20:02:03Z</time>
  <course>10.8</course>
  <speed>0.0</speed>
  <fix>3d</fix>
</trkpt>
<trkpt lat="-27.274439" lon="151.290064">
  <ele>343.1</ele>
  <time>2026-09-01T20:02:03Z</time>
  <course>270.0</course>
  <speed>0.0</speed>
  <fix>3d</fix>
</trkpt>
<trkpt lat="-27.274439" lon="151.290064">
  <ele>343.2</ele>
  <time>2026-09-01T20:02:03Z</time>
  <course>10.81</course>
  <speed>0.0</speed>
  <fix>3d</fix>
</trkpt>
<trkpt lat="-27.274439" lon="151.290064">
  <ele>343.1</ele>
  <time>2026-09-01T20:02:03Z</time>
  <course>270.0</course>
  <speed>0.0</speed>
  <fix>3d</fix>
</trkpt>
<trkpt lat="-27.274439" lon="151.290064">
  <ele>343.13</ele>
  <time>2026-09-01T20:02:03Z</time>
  <course>10.82</course>
  <speed>0.0</speed>
  <fix>3d</fix>
</trkpt>
<trkpt lat="-27.274439" lon="151.290064">
  <ele>343.1</ele>
  <time>2026-09-01T20:02:03Z</time>
  <course>270.0</course>
  <speed>0.0</speed>
  <fix>3d</fix>
</trkpt>
<trkpt lat="-27.274439" lon="151.290064">
  <ele>343.09</ele>
  <time>2026-09-01T20:02:03Z</time>
  <course>10.71</course>
  <speed>0.0</speed>
  <fix>3d</fix>
</trkpt>
<trkpt lat="-27.274439" lon="151.290064">
  <ele>343.1</ele>
  <time>2026-09-01T20:02:03Z</time>
  <course>270.0</course>
  <speed>0.0</speed>
  <fix>3d</fix>
</trkpt>
<trkpt lat="-27.274439" lon="151.290064">
  <ele>343.09</ele>
  <time>2026-09-01T20:02:03Z</time>
  <course>10.71</course>
  <speed>0.0</speed>
  <fix>3d</fix>
</trkpt>
<trkpt lat="-27.274439" lon="151.290064">
  <ele>343.1</ele>
  <time>2026-09-01T20:02:03Z</time>
  <course>270.0</course>
  <speed>0.0</speed>
  <fix>3d</fix>
</trkpt>
<trkpt lat="-27.274439" lon="151.290064">
  <ele>343.1</ele>
  <time>2026-09-01T20:02:03Z</time>
  <course>10.71</course>
  <speed>0.0</speed>
  <fix>3d</fix>
</trkpt>
<trkpt lat="-27.274439" lon="151.290064">
  <ele>343.1</ele>
  <time>2026-09-01T20:02:03Z</time>
  <course>270.0</course>
  <speed>0.0</speed>
  <fix>3d</fix>
</trkpt>
<trkpt lat="-27.274439" lon="151.290064">
  <ele>343.1</ele>
  <time>2026-09-01T20:02:03Z</time>
  <course>10.71</course>
  <speed>0.0</speed>
  <fix>3d</fix>
</trkpt>
<trkpt lat="-27.274439" lon="151.290064">
  <ele>343.1</ele>
  <time>2026-09-01T20:02:03Z</time>
  <course>270.0</course>
  <speed>0.0</speed>
  <fix>3d</fix>
</trkpt>
<trkpt lat="-27.274439" lon="151.290064">
  <ele>343.1</ele>
  <time>2026-09-01T20:02:03Z</time>
  <course>10.71</course>
  <speed>0.0</speed>
  <fix>3d</fix>
</trkpt>
<trkpt lat="-27.274439" lon="151.290064">
  <ele>343.1</ele>
  <time>2026-09-01T20:02:03Z</time>
  <course>270.0</course>
  <speed>0.0</speed>
  <fix>3d</fix>
</trkpt>
<trkpt lat="-27.274439" lon="151.290064">
  <ele>343.1</ele>
  <time>2026-09-01T20:02:03Z</time>
  <course>10.71</course>
  <speed>0.0</speed>
  <fix>3d</fix>
</trkpt>
<trkpt lat="-27.274439" lon="151.290064">
  <ele>343.1</ele>
  <time>2026-09-01T20:02:03Z</time>
  <course>270.0</course>
  <speed>0.0</speed>
  <fix>3d</fix>
</trkpt>
<trkpt lat="-27.274439" lon="151.290064">
  <ele>343.1</ele>
  <time>2026-09-01T20:02:03Z</time>
  <course>10.71</course>
  <speed>0.0</speed>
  <fix>3d</fix>
</trkpt>
<trkpt lat="-27.274439" lon="151.290064">
  <ele>343.1</ele>
  <time>2026-09-01T20:02:03Z</time>
  <course>270.0</course>
  <speed>0.0</speed>
  <fix>3d</fix>
</trkpt>
<trkpt lat="-27.274439" lon="151.290064">
  <ele>343.11</ele>
  <time>2026-09-01T20:02:03Z</time>
  <course>10.71</course>
  <speed>0.0</speed>
  <fix>3d</fix>
</trkpt>
<trkpt lat="-27.274439" lon="151.290064">
  <ele>343.1</ele>
  <time>2026-09-01T20:02:03Z</time>
  <course>270.0</course>
  <speed>0.0</speed>
  <fix>3d</fix>
</trkpt>
<trkpt lat="-27.274439" lon="151.290064">
  <ele>343.11</ele>
  <time>2026-09-01T20:02:03Z</time>
  <course>10.71</course>
  <speed>0.0</speed>
  <fix>3d</fix>
</trkpt>
<trkpt lat="-27.274439" lon="151.290064">
  <ele>343.1</ele>
  <time>2026-09-01T20:02:03Z</time>
  <course>270.0</course>
  <speed>0.0</speed>
  <fix>3d</fix>
</trkpt>
<trkpt lat="-27.274439" lon="151.290064">
  <ele>343.11</ele>
  <time>2026-09-01T20:02:03Z</time>
  <course>10.71</course>
  <speed>0.0</speed>
  <fix>3d</fix>
</trkpt>
<trkpt lat="-27.274439" lon="151.290064">
  <ele>343.1</ele>
  <time>2026-09-01T20:02:03Z</time>
  <course>270.0</course>
  <speed>0.0</speed>
  <fix>3d</fix>
</trkpt>
<trkpt lat="-27.274439" lon="151.290064">
  <ele>343.12</ele>
  <time>2026-09-01T20:02:03Z</time>
  <course>10.71</course>
  <speed>0.0</speed>
  <fix>3d</fix>
</trkpt>
<trkpt lat="-27.274439" lon="151.290064">
  <ele>343.1</ele>
  <time>2026-09-01T20:02:03Z</time>
  <course>270.0</course>
  <speed>0.0</speed>
  <fix>3d</fix>
</trkpt>
<trkpt lat="-27.274439" lon="151.290064">
  <ele>343.12</ele>
  <time>2026-09-01T20:02:03Z</time>
  <course>10.71</course>
  <speed>0.0</speed>
  <fix>3d</fix>
</trkpt>
<trkpt lat="-27.274439" lon="151.290064">
  <ele>343.1</ele>
  <time>2026-09-01T20:02:03Z</time>
  <course>270.0</course>
  <speed>0.0</speed>
  <fix>3d</fix>
</trkpt>
<trkpt lat="-27.274439" lon="151.290064">
  <ele>343.1</ele>
  <time>2026-09-01T20:02:03Z</time>
  <course>10.71</course>
  <speed>0.0</speed>
  <fix>3d</fix>
</trkpt>
<trkpt lat="-27.274439" lon="151.290064">
  <ele>343.1</ele>
  <time>2026-09-01T20:02:03Z</time>
  <course>270.0</course>
  <speed>0.0</speed>
  <fix>3d</fix>
</trkpt>
<trkpt lat="-27.274439" lon="151.290064">
  <ele>343.1</ele>
  <time>2026-09-01T20:02:03Z</time>
  <course>10.71</course>
  <speed>0.0</speed>
  <fix>3d</fix>
</trkpt>
<trkpt lat="-27.274439" lon="151.290064">
  <ele>343.1</ele>
  <time>2026-09-01T20:02:03Z</time>
  <course>270.0</course>
  <speed>0.0</speed>
  <fix>3d</fix>
</trkpt>
<trkpt lat="-27.274439" lon="151.290064">
  <ele>343.1</ele>
  <time>2026-09-01T20:02:03Z</time>
  <course>10.71</course>
  <speed>0.0</speed>
  <fix>3d</fix>
</trkpt>
<trkpt lat="-27.274439" lon="151.290064">
  <ele>343.1</ele>
  <time>2026-09-01T20:02:03Z</time>
  <course>270.0</course>
  <speed>0.0</speed>
  <fix>3d</fix>
</trkpt>
<trkpt lat="-27.274439" lon="151.290064">
  <ele>343.09</ele>
  <time>2026-09-01T20:02:03Z</time>
  <course>10.71</course>
  <speed>0.0</speed>
  <fix>3d</fix>
</trkpt>
<trkpt lat="-27.274439" lon="151.290064">
  <ele>343.1</ele>
  <time>2026-09-01T20:02:03Z</time>
  <course>270.0</course>
  <speed>0.0</speed>
  <fix>3d</fix>
</trkpt>
<trkpt lat="-27.274439" lon="151.290064">
  <ele>343.09</ele>
  <time>2026-09-01T20:02:03Z</time>
  <course>10.71</course>
  <speed>0.0</speed>
  <fix>3d</fix>
</trkpt>
<trkpt lat="-27.274439" lon="151.290064">
  <ele>343.1</ele>
  <time>2026-09-01T20:02:03Z</time>
  <course>270.0</course>
  <speed>0.0</speed>
  <fix>3d</fix>
</trkpt>
<trkpt lat="-27.274439" lon="151.290064">
  <ele>343.09</ele>
  <time>2026-09-01T20:02:03Z</time>
  <course>10.71</course>
  <speed>0.0</speed>
  <fix>3d</fix>
</trkpt>
<trkpt lat="-27.274439" lon="151.290064">
  <ele>343.1</ele>
  <time>2026-09-01T20:02:03Z</time>
  <course>270.0</course>
  <speed>0.0</speed>
  <fix>3d</fix>
</trkpt>
<trkpt lat="-27.274439" lon="151.290064">
  <ele>343.1</ele>
  <time>2026-09-01T20:02:03Z</time>
  <course>10.71</course>
  <speed>0.0</speed>
  <fix>3d</fix>
</trkpt>
<trkpt lat="-27.274439" lon="151.290064">
  <ele>343.1</ele>
  <time>2026-09-01T20:02:03Z</time>
  <course>270.0</course>
  <speed>0.0</speed>
  <fix>3d</fix>
</trkpt>
<trkpt lat="-27.274439" lon="151.290064">
  <ele>343.1</ele>
  <time>2026-09-01T20:02:03Z</time>
  <course>10.71</course>
  <speed>0.0</speed>
  <fix>3d</fix>
</trkpt>
<trkpt lat="-27.274439" lon="151.290064">
  <ele>343.1</ele>
  <time>2026-09-01T20:02:03Z</time>
  <course>270.0</course>
  <speed>0.0</speed>
  <fix>3d</fix>
</trkpt>
<trkpt lat="-27.274439" lon="151.290064">
  <ele>343.09</ele>
  <time>2026-09-01T20:02:03Z</time>
  <course>10.71</course>
  <speed>0.0</speed>
  <fix>3d</fix>
</trkpt>
<trkpt lat="-27.274439" lon="151.290064">
  <ele>343.1</ele>
  <time>2026-09-01T20:02:03Z</time>
  <course>270.0</course>
  <speed>0.0</speed>
  <fix>3d</fix>
</trkpt>
<trkpt lat="-27.274439" lon="151.290064">
  <ele>343.09</ele>
  <time>2026-09-01T20:02:03Z</time>
  <course>10.71</course>
  <speed>0.0</speed>
  <fix>3d</fix>
</trkpt>
<trkpt lat="-27.274439" lon="151.290064">
  <ele>343.1</ele>
  <time>2026-09-01T20:02:03Z</time>
  <course>270.0</course>
  <speed>0.0</speed>
  <fix>3d</fix>
</trkpt>
<trkpt lat="-27.274439" lon="151.290064">
  <ele>343.09</ele>
  <time>2026-09-01T20:02:03Z</time>
  <course>10.71</course>
  <speed>0.0</speed>
  <fix>3d</fix>
</trkpt>
<trkpt lat="-27.274439" lon="151.290064">
  <ele>343.1</ele>
  <time>2026-09-01T20:02:03Z</time>
  <course>270.0</course>
  <speed>0.0</speed>
  <fix>3d</fix>
</trkpt>
<trkpt lat="-27.274439" lon="151.290064">
  <ele>343.09</ele>
  <time>2026-09-01T20:02:03Z</time>
  <course>10.71</course>
  <speed>0.0</speed>
  <fix>3d</fix>
</trkpt>
<trkpt lat="-27.274439" lon="151.290064">
  <ele>343.1</ele>
  <time>2026-09-01T20:02:03Z</time>
  <course>270.0</course>
  <speed>0.0</speed>
  <fix>3d</fix>
</trkpt>
<trkpt lat="-27.274439" lon="151.290064">
  <ele>343.09</ele>
  <time>2026-09-01T20:02:03Z</time>
  <course>10.71</course>
  <speed>0.0</speed>
  <fix>3d</fix>
</trkpt>
<trkpt lat="-27.274439" lon="151.290064">
  <ele>343.1</ele>
  <time>2026-09-01T20:02:03Z</time>
  <course>270.0</course>
  <speed>0.0</speed>
  <fix>3d</fix>
</trkpt>
<trkpt lat="-27.274439" lon="151.290064">
  <ele>343.09</ele>
  <time>2026-09-01T20:02:03Z</time>
  <course>10.71</course>
  <speed>0.0</speed>
  <fix>3d</fix>
</trkpt>
<trkpt lat="-27.274439" lon="151.290064">
  <ele>343.1</ele>
  <time>2026-09-01T20:02:03Z</time>
  <course>270.0</course>
  <speed>0.0</speed>
  <fix>3d</fix>
</trkpt>
<trkpt lat="-27.274439" lon="151.290064">
  <ele>343.09</ele>
  <time>2026-09-01T20:02:03Z</time>
  <course>10.71</course>
  <speed>0.0</speed>
  <fix>3d</fix>
</trkpt>
<trkpt lat="-27.274439" lon="151.290064">
  <ele>343.1</ele>
  <time>2026-09-01T20:02:03Z</time>
  <course>270.0</course>
  <speed>0.0</speed>
  <fix>3d</fix>
</trkpt>
<trkpt lat="-27.274439" lon="151.290064">
  <ele>343.09</ele>
  <time>2026-09-01T20:02:03Z</time>
  <course>10.71</course>
  <speed>0.0</speed>
  <fix>3d</fix>
</trkpt>
<trkpt lat="-27.274439" lon="151.290064">
  <ele>343.1</ele>
  <time>2026-09-01T20:02:03Z</time>
  <course>270.0</course>
  <speed>0.0</speed>
  <fix>3d</fix>
</trkpt>
<trkpt lat="-27.274439" lon="151.290064">
  <ele>343.1</ele>
  <time>2026-09-01T20:02:03Z</time>
  <course>10.71</course>
  <speed>0.0</speed>
  <fix>3d</fix>
</trkpt>
<trkpt lat="-27.274439" lon="151.290064">
  <ele>343.1</ele>
  <time>2026-09-01T20:02:03Z</time>
  <course>270.0</course>
  <speed>0.0</speed>
  <fix>3d</fix>
</trkpt>
<trkpt lat="-27.274439" lon="151.290064">
  <ele>343.1</ele>
  <time>2026-09-01T20:02:03Z</time>
  <course>10.71</course>
  <speed>0.0</speed>
  <fix>3d</fix>
</trkpt>
<trkpt lat="-27.274439" lon="151.290064">
  <ele>343.1</ele>
  <time>2026-09-01T20:02:03Z</time>
  <course>270.0</course>
  <speed>0.0</speed>
  <fix>3d</fix>
</trkpt>
<trkpt lat="-27.274439" lon="151.290064">
  <ele>343.1</ele>
  <time>2026-09-01T20:02:03Z</time>
  <course>10.71</course>
  <speed>0.0</speed>
  <fix>3d</fix>
</trkpt>
<trkpt lat="-27.274439" lon="151.290064">
  <ele>343.1</ele>
  <time>2026-09-01T20:02:03Z</time>
  <course>270.0</course>
  <speed>0.0</speed>
  <fix>3d</fix>
</trkpt>
<trkpt lat="-27.274439" lon="151.290064">
  <ele>343.1</ele>
  <time>2026-09-01T20:02:03Z</time>
  <course>10.71</course>
  <speed>0.0</speed>
  <fix>3d</fix>
</trkpt>
<trkpt lat="-27.274439" lon="151.290064">
  <ele>343.1</ele>
  <time>2026-09-01T20:02:03Z</time>
  <course>270.0</course>
  <speed>0.0</speed>
  <fix>3d</fix>
</trkpt>
<trkpt lat="-27.274439" lon="151.290064">
  <ele>343.11</ele>
  <time>2026-09-01T20:02:03Z</time>
  <course>10.71</course>
  <speed>0.0</speed>
  <fix>3d</fix>
</trkpt>
<trkpt lat="-27.274439" lon="151.290064">
  <ele>343.1</ele>
  <time>2026-09-01T20:02:03Z</time>
  <course>270.0</course>
  <speed>0.0</speed>
  <fix>3d</fix>
</trkpt>
<trkpt lat="-27.274439" lon="151.290064">
  <ele>343.11</ele>
  <time>2026-09-01T20:02:03Z</time>
  <course>10.71</course>
  <speed>0.0</speed>
  <fix>3d</fix>
</trkpt>
<trkpt lat="-27.274439" lon="151.290064">
  <ele>343.1</ele>
  <time>2026-09-01T20:02:03Z</time>
  <course>270.0</course>
  <speed>0.0</speed>
  <fix>3d</fix>
</trkpt>
<trkpt lat="-27.274439" lon="151.290064">
  <ele>343.11</ele>
  <time>2026-09-01T20:02:03Z</time>
  <course>10.71</course>
  <speed>0.0</speed>
  <fix>3d</fix>
</trkpt>
<trkpt lat="-27.274439" lon="151.290064">
  <ele>343.1</ele>
  <time>2026-09-01T20:02:03Z</time>
  <course>270.0</course>
  <speed>0.0</speed>
  <fix>3d</fix>
</trkpt>
<trkpt lat="-27.274439" lon="151.290064">
  <ele>343.11</ele>
  <time>2026-09-01T20:02:03Z</time>
  <course>10.71</course>
  <speed>0.0</speed>
  <fix>3d</fix>
</trkpt>
<trkpt lat="-27.274439" lon="151.290064">
  <ele>343.1</ele>
  <time>2026-09-01T20:02:03Z</time>
  <course>270.0</course>
  <speed>0.0</speed>
  <fix>3d</fix>
</trkpt>
<trkpt lat="-27.274439" lon="151.290064">
  <ele>343.12</ele>
  <time>2026-09-01T20:02:03Z</time>
  <course>10.71</course>
  <speed>0.0</speed>
  <fix>3d</fix>
</trkpt>
<trkpt lat="-27.274439" lon="151.290064">
  <ele>343.1</ele>
  <time>2026-09-01T20:02:03Z</time>
  <course>270.0</course>
  <speed>0.0</speed>
  <fix>3d</fix>
</trkpt>
<trkpt lat="-27.274439" lon="151.290064">
  <ele>343.12</ele>
  <time>2026-09-01T20:02:03Z</time>
  <course>10.71</course>
  <speed>0.0</speed>
  <fix>3d</fix>
</trkpt>
<trkpt lat="-27.274439" lon="151.290064">
  <ele>343.1</ele>
  <time>2026-09-01T20:02:03Z</time>
  <course>270.0</course>
  <speed>0.0</speed>
  <fix>3d</fix>
</trkpt>
<trkpt lat="-27.274439" lon="151.290064">
  <ele>343.12</ele>
  <time>2026-09-01T20:02:03Z</time>
  <course>10.71</course>
  <speed>0.0</speed>
  <fix>3d</fix>
</trkpt>
<trkpt lat="-27.274439" lon="151.290064">
  <ele>343.1</ele>
  <time>2026-09-01T20:02:03Z</time>
  <course>270.0</course>
  <speed>0.0</speed>
  <fix>3d</fix>
</trkpt>
<trkpt lat="-27.274439" lon="151.290064">
  <ele>343.12</ele>
  <time>2026-09-01T20:02:03Z</time>
  <course>10.71</course>
  <speed>0.0</speed>
  <fix>3d</fix>
</trkpt>
<trkpt lat="-27.274439" lon="151.290064">
  <ele>343.1</ele>
  <time>2026-09-01T20:02:03Z</time>
  <course>270.0</course>
  <speed>0.0</speed>
  <fix>3d</fix>
</trkpt>
<trkpt lat="-27.274439" lon="151.290064">
  <ele>343.12</ele>
  <time>2026-09-01T20:02:03Z</time>
  <course>10.71</course>
  <speed>0.0</speed>
  <fix>3d</fix>
</trkpt>
<trkpt lat="-27.274439" lon="151.290064">
  <ele>343.1</ele>
  <time>2026-09-01T20:02:03Z</time>
  <course>270.0</course>
  <speed>0.0</speed>
  <fix>3d</fix>
</trkpt>
<trkpt lat="-27.274439" lon="151.290064">
  <ele>343.13</ele>
  <time>2026-09-01T20:02:03Z</time>
  <course>10.71</course>
  <speed>0.0</speed>
  <fix>3d</fix>
</trkpt>
<trkpt lat="-27.274439" lon="151.290064">
  <ele>343.1</ele>
  <time>2026-09-01T20:02:03Z</time>
  <course>270.0</course>
  <speed>0.0</speed>
  <fix>3d</fix>
</trkpt>
<trkpt lat="-27.274439" lon="151.290064">
  <ele>343.13</ele>
  <time>2026-09-01T20:02:03Z</time>
  <course>10.71</course>
  <speed>0.0</speed>
  <fix>3d</fix>
</trkpt>
<trkpt lat="-27.274439" lon="151.290064">
  <ele>343.1</ele>
  <time>2026-09-01T20:02:03Z</time>
  <course>270.0</course>
  <speed>0.0</speed>
  <fix>3d</fix>
</trkpt>
<trkpt lat="-27.274439" lon="151.290064">
  <ele>343.13</ele>
  <time>2026-09-01T20:02:03Z</time>
  <course>10.71</course>
  <speed>0.0</speed>
  <fix>3d</fix>
</trkpt>
<trkpt lat="-27.274439" lon="151.290064">
  <ele>343.1</ele>
  <time>2026-09-01T20:02:03Z</time>
  <course>270.0</course>
  <speed>0.0</speed>
  <fix>3d</fix>
</trkpt>
<trkpt lat="-27.274439" lon="151.290064">
  <ele>343.13</ele>
  <time>2026-09-01T20:02:03Z</time>
  <course>10.71</course>
  <speed>0.0</speed>
  <fix>3d</fix>
</trkpt>
<trkpt lat="-27.274439" lon="151.290064">
  <ele>343.1</ele>
  <time>2026-09-01T20:02:03Z</time>
  <course>270.0</course>
  <speed>0.0</speed>
  <fix>3d</fix>
</trkpt>
<trkpt lat="-27.274439" lon="151.290064">
  <ele>343.14</ele>
  <time>2026-09-01T20:02:03Z</time>
  <course>10.71</course>
  <speed>0.0</speed>
  <fix>3d</fix>
</trkpt>
<trkpt lat="-27.274439" lon="151.290064">
  <ele>343.1</ele>
  <time>2026-09-01T20:02:03Z</time>
  <course>270.0</course>
  <speed>0.0</speed>
  <fix>3d</fix>
</trkpt>
<trkpt lat="-27.274439" lon="151.290064">
  <ele>343.14</ele>
  <time>2026-09-01T20:02:03Z</time>
  <course>10.71</course>
  <speed>0.0</speed>
  <fix>3d</fix>
</trkpt>
<trkpt lat="-27.274439" lon="151.290064">
  <ele>343.1</ele>
  <time>2026-09-01T20:02:03Z</time>
  <course>270.0</course>
  <speed>0.0</speed>
  <fix>3d</fix>
</trkpt>
<trkpt lat="-27.274439" lon="151.290064">
  <ele>343.14</ele>
  <time>2026-09-01T20:02:03Z</time>
  <course>10.71</course>
  <speed>0.0</speed>
  <fix>3d</fix>
</trkpt>
<trkpt lat="-27.274439" lon="151.290064">
  <ele>343.1</ele>
  <time>2026-09-01T20:02:03Z</time>
  <course>270.0</course>
  <speed>0.0</speed>
  <fix>3d</fix>
</trkpt>
<trkpt lat="-27.274439" lon="151.290064">
  <ele>343.14</ele>
  <time>2026-09-01T20:02:03Z</time>
  <course>10.71</course>
  <speed>0.0</speed>
  <fix>3d</fix>
</trkpt>
<trkpt lat="-27.274439" lon="151.290064">
  <ele>343.1</ele>
  <time>2026-09-01T20:02:03Z</time>
  <course>270.0</course>
  <speed>0.0</speed>
  <fix>3d</fix>
</trkpt>
<trkpt lat="-27.274439" lon="151.290064">
  <ele>343.14</ele>
  <time>2026-09-01T20:02:03Z</time>
  <course>10.71</course>
  <speed>0.0</speed>
  <fix>3d</fix>
</trkpt>
<trkpt lat="-27.274439" lon="151.290064">
  <ele>343.1</ele>
  <time>2026-09-01T20:02:03Z</time>
  <course>270.0</course>
  <speed>0.0</speed>
  <fix>3d</fix>
</trkpt>
<trkpt lat="-27.274439" lon="151.290064">
  <ele>343.14</ele>
  <time>2026-09-01T20:02:03Z</time>
  <course>10.71</course>
  <speed>0.0</speed>
  <fix>3d</fix>
</trkpt>
<trkpt lat="-27.274439" lon="151.290064">
  <ele>343.1</ele>
  <time>2026-09-01T20:02:03Z</time>
  <course>270.0</course>
  <speed>0.0</speed>
  <fix>3d</fix>
</trkpt>
<trkpt lat="-27.274439" lon="151.290064">
  <ele>343.14</ele>
  <time>2026-09-01T20:02:03Z</time>
  <course>10.71</course>
  <speed>0.0</speed>
  <fix>3d</fix>
</trkpt>
<trkpt lat="-27.274439" lon="151.290064">
  <ele>343.1</ele>
  <time>2026-09-01T20:02:03Z</time>
  <course>270.0</course>
  <speed>0.0</speed>
  <fix>3d</fix>
</trkpt>
<trkpt lat="-27.274439" lon="151.290064">
  <ele>343.14</ele>
  <time>2026-09-01T20:02:03Z</time>
  <course>10.71</course>
  <speed>0.0</speed>
  <fix>3d</fix>
</trkpt>
<trkpt lat="-27.274439" lon="151.290064">
  <ele>343.1</ele>
  <time>2026-09-01T20:02:03Z</time>
  <course>270.0</course>
  <speed>0.0</speed>
  <fix>3d</fix>
</trkpt>
<trkpt lat="-27.274439" lon="151.290064">
  <ele>343.13</ele>
  <time>2026-09-01T20:02:03Z</time>
  <course>10.71</course>
  <speed>0.0</speed>
  <fix>3d</fix>
</trkpt>
<trkpt lat="-27.274439" lon="151.290064">
  <ele>343.1</ele>
  <time>2026-09-01T20:02:03Z</time>
  <course>270.0</course>
  <speed>0.0</speed>
  <fix>3d</fix>
</trkpt>
<trkpt lat="-27.274439" lon="151.290064">
  <ele>343.13</ele>
  <time>2026-09-01T20:02:03Z</time>
  <course>10.71</course>
  <speed>0.0</speed>
  <fix>3d</fix>
</trkpt>
<trkpt lat="-27.274439" lon="151.290064">
  <ele>343.1</ele>
  <time>2026-09-01T20:02:03Z</time>
  <course>270.0</course>
  <speed>0.0</speed>
  <fix>3d</fix>
</trkpt>
<trkpt lat="-27.274439" lon="151.290064">
  <ele>343.13</ele>
  <time>2026-09-01T20:02:03Z</time>
  <course>10.71</course>
  <speed>0.0</speed>
  <fix>3d</fix>
</trkpt>
<trkpt lat="-27.274439" lon="151.290064">
  <ele>343.1</ele>
  <time>2026-09-01T20:02:03Z</time>
  <course>270.0</course>
  <speed>0.0</speed>
  <fix>3d</fix>
</trkpt>
<trkpt lat="-27.274439" lon="151.290064">
  <ele>343.13</ele>
  <time>2026-09-01T20:02:03Z</time>
  <course>10.71</course>
  <speed>0.0</speed>
  <fix>3d</fix>
</trkpt>
<trkpt lat="-27.274439" lon="151.290064">
  <ele>343.1</ele>
  <time>2026-09-01T20:02:03Z</time>
  <course>270.0</course>
  <speed>0.0</speed>
  <fix>3d</fix>
</trkpt>
<trkpt lat="-27.274439" lon="151.290064">
  <ele>343.13</ele>
  <time>2026-09-01T20:02:03Z</time>
  <course>10.71</course>
  <speed>0.0</speed>
  <fix>3d</fix>
</trkpt>
<trkpt lat="-27.274439" lon="151.290064">
  <ele>343.1</ele>
  <time>2026-09-01T20:02:03Z</time>
  <course>270.0</course>
  <speed>0.0</speed>
  <fix>3d</fix>
</trkpt>
<trkpt lat="-27.274439" lon="151.290064">
  <ele>343.13</ele>
  <time>2026-09-01T20:02:03Z</time>
  <course>10.71</course>
  <speed>0.0</speed>
  <fix>3d</fix>
</trkpt>
<trkpt lat="-27.274439" lon="151.290064">
  <ele>343.1</ele>
  <time>2026-09-01T20:02:03Z</time>
  <course>270.0</course>
  <speed>0.0</speed>
  <fix>3d</fix>
</trkpt>
<trkpt lat="63.4511428" lon="-138.2898909">
  <ele>1096.79</ele>
  <time>2026-09-01T20:02:05Z</time>
  <course>178.93</course>
  <speed>0.0</speed>
  <fix>3d</fix>
</trkpt>
<trkpt lat="63.4511428" lon="-138.2898909">
  <ele>1096.79</ele>
  <time>2026-09-01T20:02:05Z</time>
  <course>178.93</course>
  <speed>0.0</speed>
  <fix>3d</fix>
</trkpt>
<trkpt lat="64.1624777" lon="-139.8402246">
  <ele>-0.01</ele>
  <time>2026-09-01T20:02:05Z</time>
  <course>344.55</course>
  <speed>0.0</speed>
  <fix>3d</fix>
</trkpt>
<trkpt lat="64.1624777" lon="-139.8402246">
  <ele>1109.09</ele>
  <time>2026-09-01T20:02:05Z</time>
  <course>179.96</course>
  <speed>0.0</speed>
  <fix>3d</fix>
</trkpt>
<trkpt lat="64.1624777" lon="-139.8402246">
  <ele>0.02</ele>
  <time>2026-09-01T20:02:05Z</time>
  <course>346.23</course>
  <speed>0.0</speed>
  <fix>3d</fix>
</trkpt>
<trkpt lat="64.1624777" lon="-139.8402246">
  <ele>1109.09</ele>
  <time>2026-09-01T20:02:05Z</time>
  <course>179.96</course>
  <speed>0.0</speed>
  <fix>3d</fix>
</trkpt>
<trkpt lat="64.1624777" lon="-139.8402246">
  <ele>-0.08</ele>
  <time>2026-09-01T20:02:05Z</time>
  <course>347.82</course>
  <speed>0.0</speed>
  <fix>3d</fix>
</trkpt>
<trkpt lat="64.1624777" lon="-139.8402246">
  <ele>1109.09</ele>
  <time>2026-09-01T20:02:05Z</time>
  <course>180.69</course>
  <speed>0.0</speed>
  <fix>3d</fix>
</trkpt>
<trkpt lat="64.1624777" lon="-139.8402246">
  <ele>0.22</ele>
  <time>2026-09-01T20:02:05Z</time>
  <course>349.31</course>
  <speed>0.0</speed>
  <fix>3d</fix>
</trkpt>
<trkpt lat="64.1624777" lon="-139.8402246">
  <ele>1109.09</ele>
  <time>2026-09-01T20:02:05Z</time>
  <course>180.69</course>
  <speed>0.0</speed>
  <fix>3d</fix>
</trkpt>
<trkpt lat="64.1624777" lon="-139.8402246">
  <ele>0.1</ele>
  <time>2026-09-01T20:02:05Z</time>
  <course>350.72</course>
  <speed>0.0</speed>
  <fix>3d</fix>
</trkpt>
<trkpt lat="64.1624777" lon="-139.8402246">
  <ele>1109.09</ele>
  <time>2026-09-01T20:02:05Z</time>
  <course>180.77</course>
  <speed>0.0</speed>
  <fix>3d</fix>
</trkpt>
<trkpt lat="64.1624777" lon="-139.8402246">
  <ele>0.08</ele>
  <time>2026-09-01T20:02:05Z</time>
  <course>352.04</course>
  <speed>0.0</speed>
  <fix>3d</fix>
</trkpt>
<trkpt lat="64.1624777" lon="-139.8402246">
  <ele>1109.09</ele>
  <time>2026-09-01T20:02:05Z</time>
  <course>180.77</course>
  <speed>0.0</speed>
  <fix>3d</fix>
</trkpt>
<trkpt lat="64.1624777" lon="-139.8402246">
  <ele>0.09</ele>
  <time>2026-09-01T20:02:05Z</time>
  <course>353.28</course>
  <speed>0.0</speed>
  <fix>3d</fix>
</trkpt>
<trkpt lat="64.1624777" lon="-139.8402246">
  <ele>1109.09</ele>
  <time>2026-09-01T20:02:05Z</time>
  <course>180.78</course>
  <speed>0.0</speed>
  <fix>3d</fix>
</trkpt>
<trkpt lat="64.1624777" lon="-139.8402246">
  <ele>-0.05</ele>
  <time>2026-09-01T20:02:05Z</time>
  <course>354.44</course>
  <speed>0.0</speed>
  <fix>3d</fix>
</trkpt>
<trkpt lat="64.1624777" lon="-139.8402246">
  <ele>1109.09</ele>
  <time>2026-09-01T20:02:05Z</time>
  <course>180.78</course>
  <speed>0.0</speed>
  <fix>3d</fix>
</trkpt>
<trkpt lat="64.1624777" lon="-139.8402246">
  <ele>1109.04</ele>
  <time>2026-09-01T20:02:05Z</time>
  <course>355.47</course>
  <speed>0.0</speed>
  <fix>3d</fix>
</trkpt>
<trkpt lat="64.1624777" lon="-139.8402246">
  <ele>1109.09</ele>
  <time>2026-09-01T20:02:05Z</time>
  <course>180.78</course>
  <speed>0.0</speed>
  <fix>3d</fix>
</trkpt>
<trkpt lat="64.1624777" lon="-139.8402246">
  <ele>1109.17</ele>
  <time>2026-09-01T20:02:05Z</time>
  <course>356.47</course>
  <speed>0.0</speed>
  <fix>3d</fix>
</trkpt>
<trkpt lat="64.1624777" lon="-139.8402246">
  <ele>1109.09</ele>
  <time>2026-09-01T20:02:05Z</time>
  <course>180.78</course>
  <speed>0.0</speed>
  <fix>3d</fix>
</trkpt>
<trkpt lat="64.1624777" lon="-139.8402246">
  <ele>1108.9</ele>
  <time>2026-09-01T20:02:05Z</time>
  <course>357.39</course>
  <speed>0.0</speed>
  <fix>3d</fix>
</trkpt>
<trkpt lat="64.1624777" lon="-139.8402246">
  <ele>1109.09</ele>
  <time>2026-09-01T20:02:05Z</time>
  <course>180.78</course>
  <speed>0.0</speed>
  <fix>3d</fix>
</trkpt>
<trkpt lat="64.1624777" lon="-139.8402246">
  <ele>1109.05</ele>
  <time>2026-09-01T20:02:05Z</time>
  <course>358.22</course>
  <speed>0.0</speed>
  <fix>3d</fix>
</trkpt>
<trkpt lat="64.1624777" lon="-139.8402246">
  <ele>1109.09</ele>
  <time>2026-09-01T20:02:05Z</time>
  <course>180.78</course>
  <speed>0.0</speed>
  <fix>3d</fix>
</trkpt>
<trkpt lat="64.1624777" lon="-139.8402246">
  <ele>1109.12</ele>
  <time>2026-09-01T20:02:05Z</time>
  <course>358.97</course>
  <speed>0.0</speed>
  <fix>3d</fix>
</trkpt>
<trkpt lat="64.1624777" lon="-139.8402246">
  <ele>1109.09</ele>
  <time>2026-09-01T20:02:05Z</time>
  <course>180.78</course>
  <speed>0.0</speed>
  <fix>3d</fix>
</trkpt>
<trkpt lat="64.1624777" lon="-139.8402246">
  <ele>1109.03</ele>
  <time>2026-09-01T20:02:05Z</time>
  <course>359.66</course>
  <speed>0.0</speed>
  <fix>3d</fix>
</trkpt>
<trkpt lat="64.1624777" lon="-139.8402246">
  <ele>1109.09</ele>
  <time>2026-09-01T20:02:05Z</time>
  <course>180.78</course>
  <speed>0.0</speed>
  <fix>3d</fix>
</trkpt>
<trkpt lat="64.1624777" lon="-139.8402246">
  <ele>1108.87</ele>
  <time>2026-09-01T20:02:05Z</time>
  <course>0.26</course>
  <speed>0.0</speed>
  <fix>3d</fix>
</trkpt>
<trkpt lat="64.1624777" lon="-139.8402246">
  <ele>1109.09</ele>
  <time>2026-09-01T20:02:05Z</time>
  <course>180.78</course>
  <speed>0.0</speed>
  <fix>3d</fix>
</trkpt>
<trkpt lat="64.1624777" lon="-139.8402246">
  <ele>1109.01</ele>
  <time>2026-09-01T20:02:05Z</time>
  <course>0.8</course>
  <speed>0.0</speed>
  <fix>3d</fix>
</trkpt>
<trkpt lat="64.1624777" lon="-139.8402246">
  <ele>1109.09</ele>
  <time>2026-09-01T20:02:05Z</time>
  <course>180.78</course>
  <speed>0.0</speed>
  <fix>3d</fix>
</trkpt>
<trkpt lat="64.1624777" lon="-139.8402246">
  <ele>1109.22</ele>
  <time>2026-09-01T20:02:05Z</time>
  <course>1.3</course>
  <speed>0.0</speed>
  <fix>3d</fix>
</trkpt>
<trkpt lat="64.1624777" lon="-139.8402246">
  <ele>1109.09</ele>
  <time>2026-09-01T20:02:05Z</time>
  <course>180.78</course>
  <speed>0.0</speed>
  <fix>3d</fix>
</trkpt>
<trkpt lat="64.1624777" lon="-139.8402246">
  <ele>1109.16</ele>
  <time>2026-09-01T20:02:05Z</time>
  <course>1.73</course>
  <speed>0.0</speed>
  <fix>3d</fix>
</trkpt>
<trkpt lat="64.1624777" lon="-139.8402246">
  <ele>1109.09</ele>
  <time>2026-09-01T20:02:05Z</time>
  <course>180.78</course>
  <speed>0.0</speed>
  <fix>3d</fix>
</trkpt>
<trkpt lat="64.1624777" lon="-139.8402246">
  <ele>1109.03</ele>
  <time>2026-09-01T20:02:05Z</time>
  <course>2.11</course>
  <speed>0.0</speed>
  <fix>3d</fix>
</trkpt>
<trkpt lat="64.1624777" lon="-139.8402246">
  <ele>1109.09</ele>
  <time>2026-09-01T20:02:05Z</time>
  <course>180.78</course>
  <speed>0.0</speed>
  <fix>3d</fix>
</trkpt>
<trkpt lat="64.1624777" lon="-139.8402246">
  <ele>1108.87</ele>
  <time>2026-09-01T20:02:05Z</time>
  <course>2.45</course>
  <speed>0.0</speed>
  <fix>3d</fix>
</trkpt>
<trkpt lat="64.1624777" lon="-139.8402246">
  <ele>1109.09</ele>
  <time>2026-09-01T20:02:05Z</time>
  <course>180.78</course>
  <speed>0.0</speed>
  <fix>3d</fix>
</trkpt>
<trkpt lat="64.1624777" lon="-139.8402246">
  <ele>1109.06</ele>
  <time>2026-09-01T20:02:05Z</time>
  <course>2.75</course>
  <speed>0.0</speed>
  <fix>3d</fix>
</trkpt>
<trkpt lat="64.1624777" lon="-139.8402246">
  <ele>1109.09</ele>
  <time>2026-09-01T20:02:05Z</time>
  <course>180.78</course>
  <speed>0.0</speed>
  <fix>3d</fix>
</trkpt>
<trkpt lat="64.1624777" lon="-139.8402246">
  <ele>1109.17</ele>
  <time>2026-09-01T20:02:05Z</time>
  <course>3.02</course>
  <speed>0.0</speed>
  <fix>3d</fix>
</trkpt>
<trkpt lat="64.1624777" lon="-139.8402246">
  <ele>1109.09</ele>
  <time>2026-09-01T20:02:05Z</time>
  <course>180.78</course>
  <speed>0.0</speed>
  <fix>3d</fix>
</trkpt>
<trkpt lat="64.1624777" lon="-139.8402246">
  <ele>1108.87</ele>
  <time>2026-09-01T20:02:05Z</time>
  <course>3.27</course>
  <speed>0.0</speed>
  <fix>3d</fix>
</trkpt>
<trkpt lat="64.1624777" lon="-139.8402246">
  <ele>1109.09</ele>
  <time>2026-09-01T20:02:05Z</time>
  <course>180.78</course>
  <speed>0.0</speed>
  <fix>3d</fix>
</trkpt>
<trkpt lat="64.1624777" lon="-139.8402246">
  <ele>1109.16</ele>
  <time>2026-09-01T20:02:05Z</time>
  <course>3.48</course>
  <speed>0.0</speed>
  <fix>3d</fix>
</trkpt>
<trkpt lat="64.1624777" lon="-139.8402246">
  <ele>1109.09</ele>
  <time>2026-09-01T20:02:05Z</time>
  <course>180.78</course>
  <speed>0.0</speed>
  <fix>3d</fix>
</trkpt>
<trkpt lat="64.1624777" lon="-139.8402246">
  <ele>1108.88</ele>
  <time>2026-09-01T20:02:05Z</time>
  <course>3.68</course>
  <speed>0.0</speed>
  <fix>3d</fix>
</trkpt>
<trkpt lat="64.1624777" lon="-139.8402246">
  <ele>1109.09</ele>
  <time>2026-09-01T20:02:05Z</time>
  <course>180.78</course>
  <speed>0.0</speed>
  <fix>3d</fix>
</trkpt>
<trkpt lat="64.1624777" lon="-139.8402246">
  <ele>1108.97</ele>
  <time>2026-09-01T20:02:05Z</time>
  <course>3.86</course>
  <speed>0.0</speed>
  <fix>3d</fix>
</trkpt>
<trkpt lat="64.1624777" lon="-139.8402246">
  <ele>1109.09</ele>
  <time>2026-09-01T20:02:05Z</time>
  <course>180.78</course>
  <speed>0.0</speed>
  <fix>3d</fix>
</trkpt>
<trkpt lat="64.1624777" lon="-139.8402246">
  <ele>1108.86</ele>
  <time>2026-09-01T20:02:05Z</time>
  <course>4.03</course>
  <speed>0.0</speed>
  <fix>3d</fix>
</trkpt>
<trkpt lat="64.1624777" lon="-139.8402246">
  <ele>1109.09</ele>
  <time>2026-09-01T20:02:05Z</time>
  <course>180.78</course>
  <speed>0.0</speed>
  <fix>3d</fix>
</trkpt>
<trkpt lat="64.1624777" lon="-139.8402246">
  <ele>1109.07</ele>
  <time>2026-09-01T20:02:05Z</time>
  <course>4.18</course>
  <speed>0.0</speed>
  <fix>3d</fix>
</trkpt>
<trkpt lat="64.1624777" lon="-139.8402246">
  <ele>1109.09</ele>
  <time>2026-09-01T20:02:05Z</time>
  <course>180.78</course>
  <speed>0.0</speed>
  <fix>3d</fix>
</trkpt>
<trkpt lat="64.1624777" lon="-139.8402246">
  <ele>1109.17</ele>
  <time>2026-09-01T20:02:05Z</time>
  <course>4.32</course>
  <speed>0.0</speed>
  <fix>3d</fix>
</trkpt>
<trkpt lat="64.1624777" lon="-139.8402246">
  <ele>1109.09</ele>
  <time>2026-09-01T20:02:05Z</time>
  <course>180.78</course>
  <speed>0.0</speed>
  <fix>3d</fix>
</trkpt>
<trkpt lat="64.1624777" lon="-139.8402246">
  <ele>1109.04</ele>
  <time>2026-09-01T20:02:05Z</time>
  <course>4.45</course>
  <speed>0.0</speed>
  <fix>3d</fix>
</trkpt>
<trkpt lat="64.1624777" lon="-139.8402246">
  <ele>1109.09</ele>
  <time>2026-09-01T20:02:05Z</time>
  <course>180.78</course>
  <speed>0.0</speed>
  <fix>3d</fix>
</trkpt>
<trkpt lat="64.1624777" lon="-139.8402246">
  <ele>1108.94</ele>
  <time>2026-09-01T20:02:05Z</time>
  <course>4.56</course>
  <speed>0.0</speed>
  <fix>3d</fix>
</trkpt>
<trkpt lat="64.1624777" lon="-139.8402246">
  <ele>1109.09</ele>
  <time>2026-09-01T20:02:05Z</time>
  <course>180.78</course>
  <speed>0.0</speed>
  <fix>3d</fix>
</trkpt>
<trkpt lat="64.1624777" lon="-139.8402246">
  <ele>1109.09</ele>
  <time>2026-09-01T20:02:05Z</time>
  <course>4.67</course>
  <speed>0.0</speed>
  <fix>3d</fix>
</trkpt>
<trkpt lat="64.1624777" lon="-139.8402246">
  <ele>1109.09</ele>
  <time>2026-09-01T20:02:05Z</time>
  <course>180.78</course>
  <speed>0.0</speed>
  <fix>3d</fix>
</trkpt>
<trkpt lat="64.1624777" lon="-139.8402246">
  <ele>1109.2</ele>
  <time>2026-09-01T20:02:05Z</time>
  <course>4.76</course>
  <speed>0.0</speed>
  <fix>3d</fix>
</trkpt>
<trkpt lat="64.1624777" lon="-139.8402246">
  <ele>1109.09</ele>
  <time>2026-09-01T20:02:05Z</time>
  <course>180.78</course>
  <speed>0.0</speed>
  <fix>3d</fix>
</trkpt>
<trkpt lat="64.1624777" lon="-139.8402246">
  <ele>1109.16</ele>
  <time>2026-09-01T20:02:05Z</time>
  <course>4.85</course>
  <speed>0.0</speed>
  <fix>3d</fix>
</trkpt>
<trkpt lat="64.1624777" lon="-139.8402246">
  <ele>1109.09</ele>
  <time>2026-09-01T20:02:05Z</time>
  <course>180.78</course>
  <speed>0.0</speed>
  <fix>3d</fix>
</trkpt>
<trkpt lat="64.1624777" lon="-139.8402246">
  <ele>1109.06</ele>
  <time>2026-09-01T20:02:05Z</time>
  <course>4.93</course>
  <speed>0.0</speed>
  <fix>3d</fix>
</trkpt>
<trkpt lat="64.1624777" lon="-139.8402246">
  <ele>1109.09</ele>
  <time>2026-09-01T20:02:05Z</time>
  <course>180.78</course>
  <speed>0.0</speed>
  <fix>3d</fix>
</trkpt>
<trkpt lat="64.1624777" lon="-139.8402246">
  <ele>1109.03</ele>
  <time>2026-09-01T20:02:05Z</time>
  <course>5.0</course>
  <speed>0.0</speed>
  <fix>3d</fix>
</trkpt>
<trkpt lat="64.1624777" lon="-139.8402246">
  <ele>1109.09</ele>
  <time>2026-09-01T20:02:05Z</time>
  <course>180.78</course>
  <speed>0.0</speed>
  <fix>3d</fix>
</trkpt>
<trkpt lat="64.1624777" lon="-139.8402246">
  <ele>1109.17</ele>
  <time>2026-09-01T20:02:05Z</time>
  <course>5.07</course>
  <speed>0.0</speed>
  <fix>3d</fix>
</trkpt>
<trkpt lat="64.1624777" lon="-139.8402246">
  <ele>1109.09</ele>
  <time>2026-09-01T20:02:05Z</time>
  <course>180.78</course>
  <speed>0.0</speed>
  <fix>3d</fix>
</trkpt>
<trkpt lat="64.1624777" lon="-139.8402246">
  <ele>1109.1</ele>
  <time>2026-09-01T20:02:05Z</time>
  <course>5.13</course>
  <speed>0.0</speed>
  <fix>3d</fix>
</trkpt>
<trkpt lat="64.1624777" lon="-139.8402246">
  <ele>1109.09</ele>
  <time>2026-09-01T20:02:05Z</time>
  <course>180.78</course>
  <speed>0.0</speed>
  <fix>3d</fix>
</trkpt>
<trkpt lat="64.1624777" lon="-139.8402246">
  <ele>1109.03</ele>
  <time>2026-09-01T20:02:05Z</time>
  <course>5.18</course>
  <speed>0.0</speed>
  <fix>3d</fix>
</trkpt>
<trkpt lat="64.1624777" lon="-139.8402246">
  <ele>1109.09</ele>
  <time>2026-09-01T20:02:05Z</time>
  <course>180.78</course>
  <speed>0.0</speed>
  <fix>3d</fix>
</trkpt>
<trkpt lat="64.1624777" lon="-139.8402246">
  <ele>1109.06</ele>
  <time>2026-09-01T20:02:05Z</time>
  <course>5.23</course>
  <speed>0.0</speed>
  <fix>3d</fix>
</trkpt>
<trkpt lat="64.1624777" lon="-139.8402246">
  <ele>1109.09</ele>
  <time>2026-09-01T20:02:05Z</time>
  <course>180.78</course>
  <speed>0.0</speed>
  <fix>3d</fix>
</trkpt>
<trkpt lat="64.1624777" lon="-139.8402246">
  <ele>1109.03</ele>
  <time>2026-09-01T20:02:05Z</time>
  <course>5.27</course>
  <speed>0.0</speed>
  <fix>3d</fix>
</trkpt>
<trkpt lat="64.1624777" lon="-139.8402246">
  <ele>1109.09</ele>
  <time>2026-09-01T20:02:05Z</time>
  <course>180.78</course>
  <speed>0.0</speed>
  <fix>3d</fix>
</trkpt>
<trkpt lat="64.1624777" lon="-139.8402246">
  <ele>1109.0</ele>
  <time>2026-09-01T20:02:05Z</time>
  <course>5.31</course>
  <speed>0.0</speed>
  <fix>3d</fix>
</trkpt>
<trkpt lat="64.1624777" lon="-139.8402246">
  <ele>1109.09</ele>
  <time>2026-09-01T20:02:05Z</time>
  <course>180.78</course>
  <speed>0.0</speed>
  <fix>3d</fix>
</trkpt>
<trkpt lat="64.1624777" lon="-139.8402246">
  <ele>1109.18</ele>
  <time>2026-09-01T20:02:05Z</time>
  <course>5.35</course>
  <speed>0.0</speed>
  <fix>3d</fix>
</trkpt>
<trkpt lat="64.1624777" lon="-139.8402246">
  <ele>1109.09</ele>
  <time>2026-09-01T20:02:05Z</time>
  <course>180.78</course>
  <speed>0.0</speed>
  <fix>3d</fix>
</trkpt>
<trkpt lat="64.1624777" lon="-139.8402246">
  <ele>1109.24</ele>
  <time>2026-09-01T20:02:05Z</time>
  <course>5.38</course>
  <speed>0.0</speed>
  <fix>3d</fix>
</trkpt>
<trkpt lat="64.1624777" lon="-139.8402246">
  <ele>1109.09</ele>
  <time>2026-09-01T20:02:05Z</time>
  <course>180.78</course>
  <speed>0.0</speed>
  <fix>3d</fix>
</trkpt>
<trkpt lat="64.1624777" lon="-139.8402246">
  <ele>1108.87</ele>
  <time>2026-09-01T20:02:05Z</time>
  <course>5.41</course>
  <speed>0.0</speed>
  <fix>3d</fix>
</trkpt>
<trkpt lat="64.1624777" lon="-139.8402246">
  <ele>1109.09</ele>
  <time>2026-09-01T20:02:05Z</time>
  <course>180.78</course>
  <speed>0.0</speed>
  <fix>3d</fix>
</trkpt>
<trkpt lat="64.1624777" lon="-139.8402246">
  <ele>1109.2</ele>
  <time>2026-09-01T20:02:05Z</time>
  <course>5.43</course>
  <speed>0.0</speed>
  <fix>3d</fix>
</trkpt>
<trkpt lat="64.1624777" lon="-139.8402246">
  <ele>1109.09</ele>
  <time>2026-09-01T20:02:05Z</time>
  <course>180.78</course>
  <speed>0.0</speed>
  <fix>3d</fix>
</trkpt>
<trkpt lat="64.1624777" lon="-139.8402246">
  <ele>1109.0</ele>
  <time>2026-09-01T20:02:05Z</time>
  <course>5.46</course>
  <speed>0.0</speed>
  <fix>3d</fix>
</trkpt>
<trkpt lat="64.1624777" lon="-139.8402246">
  <ele>1109.09</ele>
  <time>2026-09-01T20:02:05Z</time>
  <course>180.78</course>
  <speed>0.0</speed>
  <fix>3d</fix>
</trkpt>
<trkpt lat="64.1624777" lon="-139.8402246">
  <ele>1108.92</ele>
  <time>2026-09-01T20:02:05Z</time>
  <course>5.48</course>
  <speed>0.0</speed>
  <fix>3d</fix>
</trkpt>
<trkpt lat="64.1624777" lon="-139.8402246">
  <ele>1109.09</ele>
  <time>2026-09-01T20:02:05Z</time>
  <course>180.78</course>
  <speed>0.0</speed>
  <fix>3d</fix>
</trkpt>
<trkpt lat="64.1624777" lon="-139.8402246">
  <ele>1109.06</ele>
  <time>2026-09-01T20:02:05Z</time>
  <course>5.5</course>
  <speed>0.0</speed>
  <fix>3d</fix>
</trkpt>
<trkpt lat="64.1624777" lon="-139.8402246">
  <ele>1109.09</ele>
  <time>2026-09-01T20:02:05Z</time>
  <course>180.78</course>
  <speed>0.0</speed>
  <fix>3d</fix>
</trkpt>
<trkpt lat="64.1624777" lon="-139.8402246">
  <ele>1108.92</ele>
  <time>2026-09-01T20:02:05Z</time>
  <course>5.52</course>
  <speed>0.0</speed>
  <fix>3d</fix>
</trkpt>
<trkpt lat="64.1624777" lon="-139.8402246">
  <ele>1109.09</ele>
  <time>2026-09-01T20:02:05Z</time>
  <course>180.78</course>
  <speed>0.0</speed>
  <fix>3d</fix>
</trkpt>
<trkpt lat="64.1624777" lon="-139.8402246">
  <ele>1109.09</ele>
  <time>2026-09-01T20:02:05Z</time>
  <course>5.53</course>
  <speed>0.0</speed>
  <fix>3d</fix>
</trkpt>
<trkpt lat="64.1624777" lon="-139.8402246">
  <ele>1109.09</ele>
  <time>2026-09-01T20:02:05Z</time>
  <course>180.78</course>
  <speed>0.0</speed>
  <fix>3d</fix>
</trkpt>
<trkpt lat="64.1624777" lon="-139.8402246">
  <ele>1109.24</ele>
  <time>2026-09-01T20:02:05Z</time>
  <course>5.55</course>
  <speed>0.0</speed>
  <fix>3d</fix>
</trkpt>
<trkpt lat="64.1624777" lon="-139.8402246">
  <ele>1109.09</ele>
  <time>2026-09-01T20:02:05Z</time>
  <course>180.78</course>
  <speed>0.0</speed>
  <fix>3d</fix>
</trkpt>
<trkpt lat="64.1624777" lon="-139.8402246">
  <ele>1109.16</ele>
  <time>2026-09-01T20:02:05Z</time>
  <course>5.56</course>
  <speed>0.0</speed>
  <fix>3d</fix>
</trkpt>
<trkpt lat="64.1624777" lon="-139.8402246">
  <ele>1109.09</ele>
  <time>2026-09-01T20:02:05Z</time>
  <course>180.78</course>
  <speed>0.0</speed>
  <fix>3d</fix>
</trkpt>
<trkpt lat="64.1624777" lon="-139.8402246">
  <ele>1108.88</ele>
  <time>2026-09-01T20:02:05Z</time>
  <course>5.57</course>
  <speed>0.0</speed>
  <fix>3d</fix>
</trkpt>
<trkpt lat="64.1624777" lon="-139.8402246">
  <ele>1109.09</ele>
  <time>2026-09-01T20:02:05Z</time>
  <course>180.78</course>
  <speed>0.0</speed>
  <fix>3d</fix>
</trkpt>
<trkpt lat="64.1624777" lon="-139.8402246">
  <ele>1109.21</ele>
  <time>2026-09-01T20:02:05Z</time>
  <course>5.58</course>
  <speed>0.0</speed>
  <fix>3d</fix>
</trkpt>
<trkpt lat="64.1624777" lon="-139.8402246">
  <ele>1109.09</ele>
  <time>2026-09-01T20:02:05Z</time>
  <course>180.78</course>
  <speed>0.0</speed>
  <fix>3d</fix>
</trkpt>
<trkpt lat="64.1624777" lon="-139.8402246">
  <ele>1109.21</ele>
  <time>2026-09-01T20:02:05Z</time>
  <course>5.59</course>
  <speed>0.0</speed>
  <fix>3d</fix>
</trkpt>
<trkpt lat="64.1624777" lon="-139.8402246">
  <ele>1109.09</ele>
  <time>2026-09-01T20:02:05Z</time>
  <course>180.78</course>
  <speed>0.0</speed>
  <fix>3d</fix>
</trkpt>
<trkpt lat="64.1624777" lon="-139.8402246">
  <ele>1108.97</ele>
  <time>2026-09-01T20:02:05Z</time>
  <course>5.6</course>
  <speed>0.0</speed>
  <fix>3d</fix>
</trkpt>
<trkpt lat="64.1624777" lon="-139.8402246">
  <ele>1109.09</ele>
  <time>2026-09-01T20:02:05Z</time>
  <course>180.78</course>
  <speed>0.0</speed>
  <fix>3d</fix>
</trkpt>
<trkpt lat="64.1624777" lon="-139.8402246">
  <ele>1109.12</ele>
  <time>2026-09-01T20:02:05Z</time>
  <course>5.61</course>
  <speed>0.0</speed>
  <fix>3d</fix>
</trkpt>
<trkpt lat="64.1624777" lon="-139.8402246">
  <ele>1109.09</ele>
  <time>2026-09-01T20:02:05Z</time>
  <course>180.78</course>
  <speed>0.0</speed>
  <fix>3d</fix>
</trkpt>
<trkpt lat="64.1624777" lon="-139.8402246">
  <ele>1109.06</ele>
  <time>2026-09-01T20:02:05Z</time>
  <course>5.62</course>
  <speed>0.0</speed>
  <fix>3d</fix>
</trkpt>
<trkpt lat="64.1624777" lon="-139.8402246">
  <ele>1109.09</ele>
  <time>2026-09-01T20:02:05Z</time>
  <course>180.78</course>
  <speed>0.0</speed>
  <fix>3d</fix>
</trkpt>
<trkpt lat="64.1624777" lon="-139.8402246">
  <ele>1109.18</ele>
  <time>2026-09-01T20:02:05Z</time>
  <course>5.62</course>
  <speed>0.0</speed>
  <fix>3d</fix>
</trkpt>
<trkpt lat="64.1624777" lon="-139.8402246">
  <ele>1109.09</ele>
  <time>2026-09-01T20:02:05Z</time>
  <course>180.78</course>
  <speed>0.0</speed>
  <fix>3d</fix>
</trkpt>
<trkpt lat="64.1624777" lon="-139.8402246">
  <ele>1108.92</ele>
  <time>2026-09-01T20:02:05Z</time>
  <course>5.63</course>
  <speed>0.0</speed>
  <fix>3d</fix>
</trkpt>
<trkpt lat="64.1624777" lon="-139.8402246">
  <ele>1109.09</ele>
  <time>2026-09-01T20:02:05Z</time>
  <course>180.78</course>
  <speed>0.0</speed>
  <fix>3d</fix>
</trkpt>
<trkpt lat="64.1624777" lon="-139.8402246">
  <ele>1109.18</ele>
  <time>2026-09-01T20:02:05Z</time>
  <course>5.63</course>
  <speed>0.0</speed>
  <fix>3d</fix>
</trkpt>
<trkpt lat="64.1624777" lon="-139.8402246">
  <ele>1109.09</ele>
  <time>2026-09-01T20:02:05Z</time>
  <course>180.78</course>
  <speed>0.0</speed>
  <fix>3d</fix>
</trkpt>
<trkpt lat="64.1624777" lon="-139.8402246">
  <ele>1109.09</ele>
  <time>2026-09-01T20:02:05Z</time>
  <course>5.64</course>
  <speed>0.0</speed>
  <fix>3d</fix>
</trkpt>
<trkpt lat="64.1624777" lon="-139.8402246">
  <ele>1109.09</ele>
  <time>2026-09-01T20:02:05Z</time>
  <course>180.78</course>
  <speed>0.0</speed>
  <fix>3d</fix>
</trkpt>
<trkpt lat="64.1624777" lon="-139.8402246">
  <ele>1108.99</ele>
  <time>2026-09-01T20:02:05Z</time>
  <course>5.64</course>
  <speed>0.0</speed>
  <fix>3d</fix>
</trkpt>
<trkpt lat="64.1624777" lon="-139.8402246">
  <ele>1109.09</ele>
  <time>2026-09-01T20:02:05Z</time>
  <course>180.78</course>
  <speed>0.0</speed>
  <fix>3d</fix>
</trkpt>
<trkpt lat="64.1624777" lon="-139.8402246">
  <ele>1109.1</ele>
  <time>2026-09-01T20:02:05Z</time>
  <course>5.65</course>
  <speed>0.0</speed>
  <fix>3d</fix>
</trkpt>
<trkpt lat="64.1624777" lon="-139.8402246">
  <ele>1109.09</ele>
  <time>2026-09-01T20:02:05Z</time>
  <course>180.78</course>
  <speed>0.0</speed>
  <fix>3d</fix>
</trkpt>
<trkpt lat="64.1624777" lon="-139.8402246">
  <ele>1108.95</ele>
  <time>2026-09-01T20:02:05Z</time>
  <course>5.65</course>
  <speed>0.0</speed>
  <fix>3d</fix>
</trkpt>
<trkpt lat="64.1624777" lon="-139.8402246">
  <ele>1109.09</ele>
  <time>2026-09-01T20:02:05Z</time>
  <course>180.78</course>
  <speed>0.0</speed>
  <fix>3d</fix>
</trkpt>
<trkpt lat="64.1624777" lon="-139.8402246">
  <ele>1109.17</ele>
  <time>2026-09-01T20:02:05Z</time>
  <course>5.65</course>
  <speed>0.0</speed>
  <fix>3d</fix>
</trkpt>
<trkpt lat="64.1624777" lon="-139.8402246">
  <ele>1109.09</ele>
  <time>2026-09-01T20:02:05Z</time>
  <course>180.78</course>
  <speed>0.0</speed>
  <fix>3d</fix>
</trkpt>
<trkpt lat="64.1624777" lon="-139.8402246">
  <ele>1108.98</ele>
  <time>2026-09-01T20:02:05Z</time>
  <course>5.66</course>
  <speed>0.0</speed>
  <fix>3d</fix>
</trkpt>
<trkpt lat="64.1624777" lon="-139.8402246">
  <ele>1109.09</ele>
  <time>2026-09-01T20:02:05Z</time>
  <course>180.78</course>
  <speed>0.0</speed>
  <fix>3d</fix>
</trkpt>
<trkpt lat="64.1624777" lon="-139.8402246">
  <ele>1109.19</ele>
  <time>2026-09-01T20:02:05Z</time>
  <course>5.66</course>
  <speed>0.0</speed>
  <fix>3d</fix>
</trkpt>
<trkpt lat="64.1624777" lon="-139.8402246">
  <ele>1109.09</ele>
  <time>2026-09-01T20:02:05Z</time>
  <course>180.78</course>
  <speed>0.0</speed>
  <fix>3d</fix>
</trkpt>
<trkpt lat="64.1624777" lon="-139.8402246">
  <ele>1109.19</ele>
  <time>2026-09-01T20:02:05Z</time>
  <course>5.66</course>
  <speed>0.0</speed>
  <fix>3d</fix>
</trkpt>
<trkpt lat="64.1624777" lon="-139.8402246">
  <ele>1109.09</ele>
  <time>2026-09-01T20:02:05Z</time>
  <course>180.78</course>
  <speed>0.0</speed>
  <fix>3d</fix>
</trkpt>
<trkpt lat="64.1624777" lon="-139.8402246">
  <ele>1109.12</ele>
  <time>2026-09-01T20:02:05Z</time>
  <course>5.67</course>
  <speed>0.0</speed>
  <fix>3d</fix>
</trkpt>
<trkpt lat="64.1624777" lon="-139.8402246">
  <ele>1109.09</ele>
  <time>2026-09-01T20:02:05Z</time>
  <course>180.78</course>
  <speed>0.0</speed>
  <fix>3d</fix>
</trkpt>
<trkpt lat="64.1624777" lon="-139.8402246">
  <ele>1109.09</ele>
  <time>2026-09-01T20:02:05Z</time>
  <course>5.67</course>
  <speed>0.0</speed>
  <fix>3d</fix>
</trkpt>
<trkpt lat="64.1624777" lon="-139.8402246">
  <ele>1109.09</ele>
  <time>2026-09-01T20:02:05Z</time>
  <course>180.78</course>
  <speed>0.0</speed>
  <fix>3d</fix>
</trkpt>
<trkpt lat="64.1624777" lon="-139.8402246">
  <ele>1109.11</ele>
  <time>2026-09-01T20:02:05Z</time>
  <course>5.67</course>
  <speed>0.0</speed>
  <fix>3d</fix>
</trkpt>
<trkpt lat="64.1624777" lon="-139.8402246">
  <ele>1109.09</ele>
  <time>2026-09-01T20:02:05Z</time>
  <course>180.78</course>
  <speed>0.0</speed>
  <fix>3d</fix>
</trkpt>
<trkpt lat="64.1624777" lon="-139.8402246">
  <ele>1108.93</ele>
  <time>2026-09-01T20:02:05Z</time>
  <course>5.67</course>
  <speed>0.0</speed>
  <fix>3d</fix>
</trkpt>
<trkpt lat="64.1624777" lon="-139.8402246">
  <ele>1109.09</ele>
  <time>2026-09-01T20:02:05Z</time>
  <course>180.78</course>
  <speed>0.0</speed>
  <fix>3d</fix>
</trkpt>
<trkpt lat="64.1624777" lon="-139.8402246">
  <ele>1109.23</ele>
  <time>2026-09-01T20:02:05Z</time>
  <course>5.67</course>
  <speed>0.0</speed>
  <fix>3d</fix>
</trkpt>
<trkpt lat="64.1624777" lon="-139.8402246">
  <ele>1109.09</ele>
  <time>2026-09-01T20:02:05Z</time>
  <course>180.78</course>
  <speed>0.0</speed>
  <fix>3d</fix>
</trkpt>
<trkpt lat="64.1624777" lon="-139.8402246">
  <ele>1108.91</ele>
  <time>2026-09-01T20:02:05Z</time>
  <course>5.68</course>
  <speed>0.0</speed>
  <fix>3d</fix>
</trkpt>
<trkpt lat="64.1624777" lon="-139.8402246">
  <ele>1109.09</ele>
  <time>2026-09-01T20:02:05Z</time>
  <course>180.78</course>
  <speed>0.0</speed>
  <fix>3d</fix>
</trkpt>
<trkpt lat="64.1624777" lon="-139.8402246">
  <ele>1109.06</ele>
  <time>2026-09-01T20:02:05Z</time>
  <course>5.68</course>
  <speed>0.0</speed>
  <fix>3d</fix>
</trkpt>
<trkpt lat="64.1624777" lon="-139.8402246">
  <ele>1109.09</ele>
  <time>2026-09-01T20:02:05Z</time>
  <course>180.78</course>
  <speed>0.0</speed>
  <fix>3d</fix>
</trkpt>
<trkpt lat="64.1624777" lon="-139.8402246">
  <ele>1109.22</ele>
  <time>2026-09-01T20:02:05Z</time>
  <course>5.68</course>
  <speed>0.0</speed>
  <fix>3d</fix>
</trkpt>
<trkpt lat="64.1624777" lon="-139.8402246">
  <ele>1109.09</ele>
  <time>2026-09-01T20:02:05Z</time>
  <course>180.78</course>
  <speed>0.0</speed>
  <fix>3d</fix>
</trkpt>
<trkpt lat="64.1624777" lon="-139.8402246">
  <ele>1109.0</ele>
  <time>2026-09-01T20:02:05Z</time>
  <course>5.68</course>
  <speed>0.0</speed>
  <fix>3d</fix>
</trkpt>
<trkpt lat="64.1624777" lon="-139.8402246">
  <ele>1109.09</ele>
  <time>2026-09-01T20:02:05Z</time>
  <course>180.78</course>
  <speed>0.0</speed>
  <fix>3d</fix>
</trkpt>
<trkpt lat="64.1624777" lon="-139.8402246">
  <ele>1109.09</ele>
  <time>2026-09-01T20:02:05Z</time>
  <course>5.68</course>
  <speed>0.0</speed>
  <fix>3d</fix>
</trkpt>
<trkpt lat="64.1624777" lon="-139.8402246">
  <ele>1109.09</ele>
  <time>2026-09-01T20:02:05Z</time>
  <course>180.78</course>
  <speed>0.0</speed>
  <fix>3d</fix>
</trkpt>
<trkpt lat="64.1624777" lon="-139.8402246">
  <ele>1108.98</ele>
  <time>2026-09-01T20:02:05Z</time>
  <course>5.69</course>
  <speed>0.0</speed>
  <fix>3d</fix>
</trkpt>
<trkpt lat="64.1624777" lon="-139.8402246">
  <ele>1109.09</ele>
  <time>2026-09-01T20:02:05Z</time>
  <course>180.78</course>
  <speed>0.0</speed>
  <fix>3d</fix>
</trkpt>
<trkpt lat="64.1624777" lon="-139.8402246">
  <ele>1108.86</ele>
  <time>2026-09-01T20:02:05Z</time>
  <course>5.69</course>
  <speed>0.0</speed>
  <fix>3d</fix>
</trkpt>
<trkpt lat="64.1624777" lon="-139.8402246">
  <ele>1109.09</ele>
  <time>2026-09-01T20:02:05Z</time>
  <course>180.78</course>
  <speed>0.0</speed>
  <fix>3d</fix>
</trkpt>
<trkpt lat="64.1624777" lon="-139.8402246">
  <ele>1109.09</ele>
  <time>2026-09-01T20:02:05Z</time>
  <course>5.69</course>
  <speed>0.0</speed>
  <fix>3d</fix>
</trkpt>
<trkpt lat="64.1624777" lon="-139.8402246">
  <ele>1109.09</ele>
  <time>2026-09-01T20:02:05Z</time>
  <course>180.78</course>
  <speed>0.0</speed>
  <fix>3d</fix>
</trkpt>
<trkpt lat="64.1624777" lon="-139.8402246">
  <ele>1108.98</ele>
  <time>2026-09-01T20:02:05Z</time>
  <course>5.69</course>
  <speed>0.0</speed>
  <fix>3d</fix>
</trkpt>
<trkpt lat="64.1624777" lon="-139.8402246">
  <ele>1109.09</ele>
  <time>2026-09-01T20:02:05Z</time>
  <course>180.78</course>
  <speed>0.0</speed>
  <fix>3d</fix>
</trkpt>
<trkpt lat="64.1624777" lon="-139.8402246">
  <ele>1108.9</ele>
  <time>2026-09-01T20:02:05Z</time>
  <course>5.69</course>
  <speed>0.0</speed>
  <fix>3d</fix>
</trkpt>
<trkpt lat="64.1624777" lon="-139.8402246">
  <ele>1109.09</ele>
  <time>2026-09-01T20:02:05Z</time>
  <course>180.78</course>
  <speed>0.0</speed>
  <fix>3d</fix>
</trkpt>
<trkpt lat="64.1624777" lon="-139.8402246">
  <ele>1108.88</ele>
  <time>2026-09-01T20:02:05Z</time>
  <course>5.7</course>
  <speed>0.0</speed>
  <fix>3d</fix>
</trkpt>
<trkpt lat="64.1624777" lon="-139.8402246">
  <ele>1109.09</ele>
  <time>2026-09-01T20:02:05Z</time>
  <course>180.78</course>
  <speed>0.0</speed>
  <fix>3d</fix>
</trkpt>
<trkpt lat="64.1624777" lon="-139.8402246">
  <ele>1108.86</ele>
  <time>2026-09-01T20:02:05Z</time>
  <course>5.7</course>
  <speed>0.0</speed>
  <fix>3d</fix>
</trkpt>
<trkpt lat="64.1624777" lon="-139.8402246">
  <ele>1109.09</ele>
  <time>2026-09-01T20:02:05Z</time>
  <course>180.78</course>
  <speed>0.0</speed>
  <fix>3d</fix>
</trkpt>
<trkpt lat="64.1624777" lon="-139.8402246">
  <ele>1109.11</ele>
  <time>2026-09-01T20:02:05Z</time>
  <course>5.7</course>
  <speed>0.0</speed>
  <fix>3d</fix>
</trkpt>
<trkpt lat="64.1624777" lon="-139.8402246">
  <ele>1109.09</ele>
  <time>2026-09-01T20:02:05Z</time>
  <course>180.78</course>
  <speed>0.0</speed>
  <fix>3d</fix>
</trkpt>
<trkpt lat="64.1624777" lon="-139.8402246">
  <ele>1108.98</ele>
  <time>2026-09-01T20:02:05Z</time>
  <course>5.7</course>
  <speed>0.0</speed>
  <fix>3d</fix>
</trkpt>
<trkpt lat="64.1624777" lon="-139.8402246">
  <ele>1109.09</ele>
  <time>2026-09-01T20:02:05Z</time>
  <course>180.78</course>
  <speed>0.0</speed>
  <fix>3d</fix>
</trkpt>
<trkpt lat="64.1624777" lon="-139.8402246">
  <ele>1109.12</ele>
  <time>2026-09-01T20:02:05Z</time>
  <course>5.7</course>
  <speed>0.0</speed>
  <fix>3d</fix>
</trkpt>
<trkpt lat="64.1624777" lon="-139.8402246">
  <ele>1109.09</ele>
  <time>2026-09-01T20:02:05Z</time>
  <course>180.78</course>
  <speed>0.0</speed>
  <fix>3d</fix>
</trkpt>
<trkpt lat="64.1624777" lon="-139.8402246">
  <ele>1108.98</ele>
  <time>2026-09-01T20:02:05Z</time>
  <course>5.71</course>
  <speed>0.0</speed>
  <fix>3d</fix>
</trkpt>
<trkpt lat="64.1624777" lon="-139.8402246">
  <ele>1109.09</ele>
  <time>2026-09-01T20:02:05Z</time>
  <course>180.78</course>
  <speed>0.0</speed>
  <fix>3d</fix>
</trkpt>
<trkpt lat="64.1624777" lon="-139.8402246">
  <ele>1109.15</ele>
  <time>2026-09-01T20:02:05Z</time>
  <course>5.71</course>
  <speed>0.0</speed>
  <fix>3d</fix>
</trkpt>
<trkpt lat="64.1624777" lon="-139.8402246">
  <ele>1109.09</ele>
  <time>2026-09-01T20:02:05Z</time>
  <course>180.78</course>
  <speed>0.0</speed>
  <fix>3d</fix>
</trkpt>
<trkpt lat="64.1624777" lon="-139.8402246">
  <ele>1108.98</ele>
  <time>2026-09-01T20:02:05Z</time>
  <course>5.71</course>
  <speed>0.0</speed>
  <fix>3d</fix>
</trkpt>
<trkpt lat="64.1624777" lon="-139.8402246">
  <ele>1109.09</ele>
  <time>2026-09-01T20:02:05Z</time>
  <course>180.78</course>
  <speed>0.0</speed>
  <fix>3d</fix>
</trkpt>
<trkpt lat="64.1624777" lon="-139.8402246">
  <ele>1108.98</ele>
  <time>2026-09-01T20:02:05Z</time>
  <course>5.71</course>
  <speed>0.0</speed>
  <fix>3d</fix>
</trkpt>
<trkpt lat="64.1624777" lon="-139.8402246">
  <ele>1109.09</ele>
  <time>2026-09-01T20:02:05Z</time>
  <course>180.78</course>
  <speed>0.0</speed>
  <fix>3d</fix>
</trkpt>
<trkpt lat="64.1624777" lon="-139.8402246">
  <ele>1109.15</ele>
  <time>2026-09-01T20:02:05Z</time>
  <course>5.71</course>
  <speed>0.0</speed>
  <fix>3d</fix>
</trkpt>
<trkpt lat="64.1624777" lon="-139.8402246">
  <ele>1109.09</ele>
  <time>2026-09-01T20:02:05Z</time>
  <course>180.78</course>
  <speed>0.0</speed>
  <fix>3d</fix>
</trkpt>
<trkpt lat="64.1624777" lon="-139.8402246">
  <ele>1109.14</ele>
  <time>2026-09-01T20:02:05Z</time>
  <course>5.71</course>
  <speed>0.0</speed>
  <fix>3d</fix>
</trkpt>
<trkpt lat="64.1624777" lon="-139.8402246">
  <ele>1109.09</ele>
  <time>2026-09-01T20:02:05Z</time>
  <course>180.78</course>
  <speed>0.0</speed>
  <fix>3d</fix>
</trkpt>
<trkpt lat="64.1624777" lon="-139.8402246">
  <ele>1108.86</ele>
  <time>2026-09-01T20:02:05Z</time>
  <course>5.72</course>
  <speed>0.0</speed>
  <fix>3d</fix>
</trkpt>
<trkpt lat="64.1624777" lon="-139.8402246">
  <ele>1109.09</ele>
  <time>2026-09-01T20:02:05Z</time>
  <course>180.78</course>
  <speed>0.0</speed>
  <fix>3d</fix>
</trkpt>
<trkpt lat="64.1624777" lon="-139.8402246">
  <ele>1109.17</ele>
  <time>2026-09-01T20:02:05Z</time>
  <course>5.72</course>
  <speed>0.0</speed>
  <fix>3d</fix>
</trkpt>
<trkpt lat="64.1624777" lon="-139.8402246">
  <ele>1109.09</ele>
  <time>2026-09-01T20:02:05Z</time>
  <course>180.78</course>
  <speed>0.0</speed>
  <fix>3d</fix>
</trkpt>
<trkpt lat="64.1624777" lon="-139.8402246">
  <ele>1109.15</ele>
  <time>2026-09-01T20:02:05Z</time>
  <course>5.72</course>
  <speed>0.0</speed>
  <fix>3d</fix>
</trkpt>
<trkpt lat="64.1624777" lon="-139.8402246">
  <ele>1109.09</ele>
  <time>2026-09-01T20:02:05Z</time>
  <course>180.78</course>
  <speed>0.0</speed>
  <fix>3d</fix>
</trkpt>
<trkpt lat="64.1624777" lon="-139.8402246">
  <ele>1109.2</ele>
  <time>2026-09-01T20:02:05Z</time>
  <course>5.72</course>
  <speed>0.0</speed>
  <fix>3d</fix>
</trkpt>
<trkpt lat="64.1624777" lon="-139.8402246">
  <ele>1109.09</ele>
  <time>2026-09-01T20:02:05Z</time>
  <course>180.78</course>
  <speed>0.0</speed>
  <fix>3d</fix>
</trkpt>
<trkpt lat="64.1624777" lon="-139.8402246">
  <ele>1109.2</ele>
  <time>2026-09-01T20:02:05Z</time>
  <course>5.72</course>
  <speed>0.0</speed>
  <fix>3d</fix>
</trkpt>
<trkpt lat="64.1624777" lon="-139.8402246">
  <ele>1109.09</ele>
  <time>2026-09-01T20:02:05Z</time>
  <course>180.78</course>
  <speed>0.0</speed>
  <fix>3d</fix>
</trkpt>
<trkpt lat="64.1624777" lon="-139.8402246">
  <ele>1109.23</ele>
  <time>2026-09-01T20:02:05Z</time>
  <course>5.72</course>
  <speed>0.0</speed>
  <fix>3d</fix>
</trkpt>
<trkpt lat="64.1624777" lon="-139.8402246">
  <ele>1109.09</ele>
  <time>2026-09-01T20:02:05Z</time>
  <course>180.78</course>
  <speed>0.0</speed>
  <fix>3d</fix>
</trkpt>
<trkpt lat="64.1624777" lon="-139.8402246">
  <ele>1108.99</ele>
  <time>2026-09-01T20:02:05Z</time>
  <course>5.72</course>
  <speed>0.0</speed>
  <fix>3d</fix>
</trkpt>
<trkpt lat="64.1624777" lon="-139.8402246">
  <ele>1109.09</ele>
  <time>2026-09-01T20:02:05Z</time>
  <course>180.78</course>
  <speed>0.0</speed>
  <fix>3d</fix>
</trkpt>
<trkpt lat="64.1624777" lon="-139.8402246">
  <ele>1109.09</ele>
  <time>2026-09-01T20:02:05Z</time>
  <course>5.72</course>
  <speed>0.0</speed>
  <fix>3d</fix>
</trkpt>
<trkpt lat="64.1624777" lon="-139.8402246">
  <ele>1109.09</ele>
  <time>2026-09-01T20:02:05Z</time>
  <course>180.78</course>
  <speed>0.0</speed>
  <fix>3d</fix>
</trkpt>
<trkpt lat="64.1624777" lon="-139.8402246">
  <ele>1109.03</ele>
  <time>2026-09-01T20:02:05Z</time>
  <course>5.72</course>
  <speed>0.0</speed>
  <fix>3d</fix>
</trkpt>
<trkpt lat="64.1624777" lon="-139.8402246">
  <ele>1109.09</ele>
  <time>2026-09-01T20:02:05Z</time>
  <course>180.78</course>
  <speed>0.0</speed>
  <fix>3d</fix>
</trkpt>
<trkpt lat="64.1624777" lon="-139.8402246">
  <ele>1108.86</ele>
  <time>2026-09-01T20:02:05Z</time>
  <course>5.72</course>
  <speed>0.0</speed>
  <fix>3d</fix>
</trkpt>
<trkpt lat="64.1624777" lon="-139.8402246">
  <ele>1109.09</ele>
  <time>2026-09-01T20:02:05Z</time>
  <course>180.78</course>
  <speed>0.0</speed>
  <fix>3d</fix>
</trkpt>
<trkpt lat="64.1624777" lon="-139.8402246">
  <ele>1108.91</ele>
  <time>2026-09-01T20:02:05Z</time>
  <course>5.72</course>
  <speed>0.0</speed>
  <fix>3d</fix>
</trkpt>
<trkpt lat="64.1624777" lon="-139.8402246">
  <ele>1109.09</ele>
  <time>2026-09-01T20:02:05Z</time>
  <course>180.78</course>
  <speed>0.0</speed>
  <fix>3d</fix>
</trkpt>
<trkpt lat="64.1624777" lon="-139.8402246">
  <ele>1108.95</ele>
  <time>2026-09-01T20:02:05Z</time>
  <course>5.72</course>
  <speed>0.0</speed>
  <fix>3d</fix>
</trkpt>
<trkpt lat="64.1624777" lon="-139.8402246">
  <ele>1109.09</ele>
  <time>2026-09-01T20:02:05Z</time>
  <course>180.78</course>
  <speed>0.0</speed>
  <fix>3d</fix>
</trkpt>
<trkpt lat="64.1624777" lon="-139.8402246">
  <ele>1109.14</ele>
  <time>2026-09-01T20:02:05Z</time>
  <course>5.73</course>
  <speed>0.0</speed>
  <fix>3d</fix>
</trkpt>
<trkpt lat="64.1624777" lon="-139.8402246">
  <ele>1109.09</ele>
  <time>2026-09-01T20:02:05Z</time>
  <course>180.78</course>
  <speed>0.0</speed>
  <fix>3d</fix>
</trkpt>
<trkpt lat="64.1624777" lon="-139.8402246">
  <ele>1109.15</ele>
  <time>2026-09-01T20:02:05Z</time>
  <course>5.73</course>
  <speed>0.0</speed>
  <fix>3d</fix>
</trkpt>
<trkpt lat="64.1624777" lon="-139.8402246">
  <ele>1109.09</ele>
  <time>2026-09-01T20:02:05Z</time>
  <course>180.78</course>
  <speed>0.0</speed>
  <fix>3d</fix>
</trkpt>
<trkpt lat="64.1624777" lon="-139.8402246">
  <ele>1109.18</ele>
  <time>2026-09-01T20:02:05Z</time>
  <course>5.73</course>
  <speed>0.0</speed>
  <fix>3d</fix>
</trkpt>
<trkpt lat="64.1624777" lon="-139.8402246">
  <ele>1109.09</ele>
  <time>2026-09-01T20:02:05Z</time>
  <course>180.78</course>
  <speed>0.0</speed>
  <fix>3d</fix>
</trkpt>
<trkpt lat="64.1624777" lon="-139.8402246">
  <ele>1109.12</ele>
  <time>2026-09-01T20:02:05Z</time>
  <course>5.73</course>
  <speed>0.0</speed>
  <fix>3d</fix>
</trkpt>
<trkpt lat="64.1624777" lon="-139.8402246">
  <ele>1109.09</ele>
  <time>2026-09-01T20:02:05Z</time>
  <course>180.78</course>
  <speed>0.0</speed>
  <fix>3d</fix>
</trkpt>
<trkpt lat="64.1624777" lon="-139.8402246">
  <ele>1109.08</ele>
  <time>2026-09-01T20:02:05Z</time>
  <course>5.74</course>
  <speed>0.0</speed>
  <fix>3d</fix>
</trkpt>
<trkpt lat="64.1624777" lon="-139.8402246">
  <ele>1109.09</ele>
  <time>2026-09-01T20:02:05Z</time>
  <course>180.78</course>
  <speed>0.0</speed>
  <fix>3d</fix>
</trkpt>
<trkpt lat="64.1624777" lon="-139.8402246">
  <ele>1109.08</ele>
  <time>2026-09-01T20:02:05Z</time>
  <course>5.74</course>
  <speed>0.0</speed>
  <fix>3d</fix>
</trkpt>
<trkpt lat="64.1624777" lon="-139.8402246">
  <ele>1109.09</ele>
  <time>2026-09-01T20:02:05Z</time>
  <course>180.78</course>
  <speed>0.0</speed>
  <fix>3d</fix>
</trkpt>
<trkpt lat="64.1624777" lon="-139.8402246">
  <ele>1109.09</ele>
  <time>2026-09-01T20:02:05Z</time>
  <course>5.74</course>
  <speed>0.0</speed>
  <fix>3d</fix>
</trkpt>
<trkpt lat="64.1624777" lon="-139.8402246">
  <ele>1109.09</ele>
  <time>2026-09-01T20:02:05Z</time>
  <course>180.78</course>
  <speed>0.0</speed>
  <fix>3d</fix>
</trkpt>
<trkpt lat="64.1624777" lon="-139.8402246">
  <ele>1109.09</ele>
  <time>2026-09-01T20:02:05Z</time>
  <course>5.74</course>
  <speed>0.0</speed>
  <fix>3d</fix>
</trkpt>
<trkpt lat="64.1624777" lon="-139.8402246">
  <ele>1109.09</ele>
  <time>2026-09-01T20:02:05Z</time>
  <course>180.78</course>
  <speed>0.0</speed>
  <fix>3d</fix>
</trkpt>
<trkpt lat="64.1624777" lon="-139.8402246">
  <ele>1109.09</ele>
  <time>2026-09-01T20:02:05Z</time>
  <course>5.74</course>
  <speed>0.0</speed>
  <fix>3d</fix>
</trkpt>
<trkpt lat="64.1624777" lon="-139.8402246">
  <ele>1109.09</ele>
  <time>2026-09-01T20:02:05Z</time>
  <course>180.78</course>
  <speed>0.0</speed>
  <fix>3d</fix>
</trkpt>
<trkpt lat="64.1624777" lon="-139.8402246">
  <ele>1109.09</ele>
  <time>2026-09-01T20:02:05Z</time>
  <course>5.74</course>
  <speed>0.0</speed>
  <fix>3d</fix>
</trkpt>
<trkpt lat="64.1624777" lon="-139.8402246">
  <ele>1109.09</ele>
  <time>2026-09-01T20:02:05Z</time>
  <course>180.78</course>
  <speed>0.0</speed>
  <fix>3d</fix>
</trkpt>
<trkpt lat="64.1624777" lon="-139.8402246">
  <ele>1109.09</ele>
  <time>2026-09-01T20:02:05Z</time>
  <course>5.74</course>
  <speed>0.0</speed>
  <fix>3d</fix>
</trkpt>
<trkpt lat="64.1624777" lon="-139.8402246">
  <ele>1109.09</ele>
  <time>2026-09-01T20:02:05Z</time>
  <course>180.78</course>
  <speed>0.0</speed>
  <fix>3d</fix>
</trkpt>
<trkpt lat="64.1624777" lon="-139.8402246">
  <ele>1109.1</ele>
  <time>2026-09-01T20:02:05Z</time>
  <course>5.74</course>
  <speed>0.0</speed>
  <fix>3d</fix>
</trkpt>
<trkpt lat="64.1624777" lon="-139.8402246">
  <ele>1109.09</ele>
  <time>2026-09-01T20:02:05Z</time>
  <course>180.78</course>
  <speed>0.0</speed>
  <fix>3d</fix>
</trkpt>
<trkpt lat="64.1624777" lon="-139.8402246">
  <ele>1109.1</ele>
  <time>2026-09-01T20:02:05Z</time>
  <course>5.75</course>
  <speed>0.0</speed>
  <fix>3d</fix>
</trkpt>
<trkpt lat="64.1624777" lon="-139.8402246">
  <ele>1109.09</ele>
  <time>2026-09-01T20:02:05Z</time>
  <course>180.78</course>
  <speed>0.0</speed>
  <fix>3d</fix>
</trkpt>
<trkpt lat="64.1624777" lon="-139.8402246">
  <ele>1109.1</ele>
  <time>2026-09-01T20:02:05Z</time>
  <course>5.75</course>
  <speed>0.0</speed>
  <fix>3d</fix>
</trkpt>
<trkpt lat="64.1624777" lon="-139.8402246">
  <ele>1109.09</ele>
  <time>2026-09-01T20:02:05Z</time>
  <course>180.78</course>
  <speed>0.0</speed>
  <fix>3d</fix>
</trkpt>
<trkpt lat="64.1624777" lon="-139.8402246">
  <ele>1109.11</ele>
  <time>2026-09-01T20:02:05Z</time>
  <course>5.75</course>
  <speed>0.0</speed>
  <fix>3d</fix>
</trkpt>
<trkpt lat="64.1624777" lon="-139.8402246">
  <ele>1109.09</ele>
  <time>2026-09-01T20:02:05Z</time>
  <course>180.78</course>
  <speed>0.0</speed>
  <fix>3d</fix>
</trkpt>
<trkpt lat="64.1624777" lon="-139.8402246">
  <ele>1109.11</ele>
  <time>2026-09-01T20:02:05Z</time>
  <course>5.75</course>
  <speed>0.0</speed>
  <fix>3d</fix>
</trkpt>
<trkpt lat="64.1624777" lon="-139.8402246">
  <ele>1109.09</ele>
  <time>2026-09-01T20:02:05Z</time>
  <course>180.78</course>
  <speed>0.0</speed>
  <fix>3d</fix>
</trkpt>
<trkpt lat="64.1624777" lon="-139.8402246">
  <ele>1109.09</ele>
  <time>2026-09-01T20:02:05Z</time>
  <course>5.75</course>
  <speed>0.0</speed>
  <fix>3d</fix>
</trkpt>
<trkpt lat="64.1624777" lon="-139.8402246">
  <ele>1109.09</ele>
  <time>2026-09-01T20:02:05Z</time>
  <course>180.78</course>
  <speed>0.0</speed>
  <fix>3d</fix>
</trkpt>
<trkpt lat="64.1624777" lon="-139.8402246">
  <ele>1109.09</ele>
  <time>2026-09-01T20:02:05Z</time>
  <course>5.75</course>
  <speed>0.0</speed>
  <fix>3d</fix>
</trkpt>
<trkpt lat="64.1624777" lon="-139.8402246">
  <ele>1109.09</ele>
  <time>2026-09-01T20:02:05Z</time>
  <course>180.78</course>
  <speed>0.0</speed>
  <fix>3d</fix>
</trkpt>
<trkpt lat="64.1624777" lon="-139.8402246">
  <ele>1109.09</ele>
  <time>2026-09-01T20:02:05Z</time>
  <course>5.75</course>
  <speed>0.0</speed>
  <fix>3d</fix>
</trkpt>
<trkpt lat="64.1624777" lon="-139.8402246">
  <ele>1109.09</ele>
  <time>2026-09-01T20:02:05Z</time>
  <course>180.78</course>
  <speed>0.0</speed>
  <fix>3d</fix>
</trkpt>
<trkpt lat="64.1624777" lon="-139.8402246">
  <ele>1109.09</ele>
  <time>2026-09-01T20:02:05Z</time>
  <course>5.75</course>
  <speed>0.0</speed>
  <fix>3d</fix>
</trkpt>
<trkpt lat="64.1624777" lon="-139.8402246">
  <ele>1109.09</ele>
  <time>2026-09-01T20:02:05Z</time>
  <course>180.78</course>
  <speed>0.0</speed>
  <fix>3d</fix>
</trkpt>
<trkpt lat="64.1624777" lon="-139.8402246">
  <ele>1109.08</ele>
  <time>2026-09-01T20:02:05Z</time>
  <course>5.75</course>
  <speed>0.0</speed>
  <fix>3d</fix>
</trkpt>
<trkpt lat="64.1624777" lon="-139.8402246">
  <ele>1109.09</ele>
  <time>2026-09-01T20:02:05Z</time>
  <course>180.78</course>
  <speed>0.0</speed>
  <fix>3d</fix>
</trkpt>
<trkpt lat="64.1624777" lon="-139.8402246">
  <ele>1109.08</ele>
  <time>2026-09-01T20:02:05Z</time>
  <course>5.75</course>
  <speed>0.0</speed>
  <fix>3d</fix>
</trkpt>
<trkpt lat="64.1624777" lon="-139.8402246">
  <ele>1109.09</ele>
  <time>2026-09-01T20:02:05Z</time>
  <course>180.78</course>
  <speed>0.0</speed>
  <fix>3d</fix>
</trkpt>
<trkpt lat="64.1624777" lon="-139.8402246">
  <ele>1109.09</ele>
  <time>2026-09-01T20:02:05Z</time>
  <course>5.75</course>
  <speed>0.0</speed>
  <fix>3d</fix>
</trkpt>
<trkpt lat="64.1624777" lon="-139.8402246">
  <ele>1109.09</ele>
  <time>2026-09-01T20:02:05Z</time>
  <course>180.78</course>
  <speed>0.0</speed>
  <fix>3d</fix>
</trkpt>
<trkpt lat="64.1624777" lon="-139.8402246">
  <ele>1109.09</ele>
  <time>2026-09-01T20:02:05Z</time>
  <course>5.75</course>
  <speed>0.0</speed>
  <fix>3d</fix>
</trkpt>
<trkpt lat="64.1624777" lon="-139.8402246">
  <ele>1109.09</ele>
  <time>2026-09-01T20:02:05Z</time>
  <course>180.78</course>
  <speed>0.0</speed>
  <fix>3d</fix>
</trkpt>
<trkpt lat="64.1624777" lon="-139.8402246">
  <ele>1109.08</ele>
  <time>2026-09-01T20:02:05Z</time>
  <course>5.75</course>
  <speed>0.0</speed>
  <fix>3d</fix>
</trkpt>
<trkpt lat="64.1624777" lon="-139.8402246">
  <ele>1109.09</ele>
  <time>2026-09-01T20:02:05Z</time>
  <course>180.78</course>
  <speed>0.0</speed>
  <fix>3d</fix>
</trkpt>
<trkpt lat="64.1624777" lon="-139.8402246">
  <ele>1109.08</ele>
  <time>2026-09-01T20:02:05Z</time>
  <course>5.76</course>
  <speed>0.0</speed>
  <fix>3d</fix>
</trkpt>
<trkpt lat="64.1624777" lon="-139.8402246">
  <ele>1109.09</ele>
  <time>2026-09-01T20:02:05Z</time>
  <course>180.78</course>
  <speed>0.0</speed>
  <fix>3d</fix>
</trkpt>
<trkpt lat="64.1624777" lon="-139.8402246">
  <ele>1109.08</ele>
  <time>2026-09-01T20:02:05Z</time>
  <course>5.76</course>
  <speed>0.0</speed>
  <fix>3d</fix>
</trkpt>
<trkpt lat="64.1624777" lon="-139.8402246">
  <ele>1109.09</ele>
  <time>2026-09-01T20:02:05Z</time>
  <course>180.78</course>
  <speed>0.0</speed>
  <fix>3d</fix>
</trkpt>
<trkpt lat="64.1624777" lon="-139.8402246">
  <ele>1109.08</ele>
  <time>2026-09-01T20:02:05Z</time>
  <course>5.76</course>
  <speed>0.0</speed>
  <fix>3d</fix>
</trkpt>
<trkpt lat="64.1624777" lon="-139.8402246">
  <ele>1109.09</ele>
  <time>2026-09-01T20:02:05Z</time>
  <course>180.78</course>
  <speed>0.0</speed>
  <fix>3d</fix>
</trkpt>
<trkpt lat="64.1624777" lon="-139.8402246">
  <ele>1109.08</ele>
  <time>2026-09-01T20:02:05Z</time>
  <course>5.76</course>
  <speed>0.0</speed>
  <fix>3d</fix>
</trkpt>
<trkpt lat="64.1624777" lon="-139.8402246">
  <ele>1109.09</ele>
  <time>2026-09-01T20:02:05Z</time>
  <course>180.78</course>
  <speed>0.0</speed>
  <fix>3d</fix>
</trkpt>
<trkpt lat="64.1624777" lon="-139.8402246">
  <ele>1109.08</ele>
  <time>2026-09-01T20:02:05Z</time>
  <course>5.76</course>
  <speed>0.0</speed>
  <fix>3d</fix>
</trkpt>
<trkpt lat="64.1624777" lon="-139.8402246">
  <ele>1109.09</ele>
  <time>2026-09-01T20:02:05Z</time>
  <course>180.78</course>
  <speed>0.0</speed>
  <fix>3d</fix>
</trkpt>
<trkpt lat="64.1624777" lon="-139.8402246">
  <ele>1109.08</ele>
  <time>2026-09-01T20:02:05Z</time>
  <course>5.76</course>
  <speed>0.0</speed>
  <fix>3d</fix>
</trkpt>
<trkpt lat="64.1624777" lon="-139.8402246">
  <ele>1109.09</ele>
  <time>2026-09-01T20:02:05Z</time>
  <course>180.78</course>
  <speed>0.0</speed>
  <fix>3d</fix>
</trkpt>
<trkpt lat="64.1624777" lon="-139.8402246">
  <ele>1109.08</ele>
  <time>2026-09-01T20:02:05Z</time>
  <course>5.76</course>
  <speed>0.0</speed>
  <fix>3d</fix>
</trkpt>
<trkpt lat="64.1624777" lon="-139.8402246">
  <ele>1109.09</ele>
  <time>2026-09-01T20:02:05Z</time>
  <course>180.78</course>
  <speed>0.0</speed>
  <fix>3d</fix>
</trkpt>
<trkpt lat="64.1624777" lon="-139.8402246">
  <ele>1109.09</ele>
  <time>2026-09-01T20:02:05Z</time>
  <course>5.76</course>
  <speed>0.0</speed>
  <fix>3d</fix>
</trkpt>
<trkpt lat="64.1624777" lon="-139.8402246">
  <ele>1109.09</ele>
  <time>2026-09-01T20:02:05Z</time>
  <course>180.78</course>
  <speed>0.0</speed>
  <fix>3d</fix>
</trkpt>
<trkpt lat="64.1624777" lon="-139.8402246">
  <ele>1109.09</ele>
  <time>2026-09-01T20:02:05Z</time>
  <course>5.76</course>
  <speed>0.0</speed>
  <fix>3d</fix>
</trkpt>
<trkpt lat="64.1624777" lon="-139.8402246">
  <ele>1109.09</ele>
  <time>2026-09-01T20:02:05Z</time>
  <course>180.78</course>
  <speed>0.0</speed>
  <fix>3d</fix>
</trkpt>
<trkpt lat="64.1624777" lon="-139.8402246">
  <ele>1109.09</ele>
  <time>2026-09-01T20:02:05Z</time>
  <course>5.76</course>
  <speed>0.0</speed>
  <fix>3d</fix>
</trkpt>
<trkpt lat="64.1624777" lon="-139.8402246">
  <ele>1109.09</ele>
  <time>2026-09-01T20:02:05Z</time>
  <course>180.78</course>
  <speed>0.0</speed>
  <fix>3d</fix>
</trkpt>
<trkpt lat="64.1624777" lon="-139.8402246">
  <ele>1109.09</ele>
  <time>2026-09-01T20:02:05Z</time>
  <course>5.76</course>
  <speed>0.0</speed>
  <fix>3d</fix>
</trkpt>
<trkpt lat="64.1624777" lon="-139.8402246">
  <ele>1109.09</ele>
  <time>2026-09-01T20:02:05Z</time>
  <course>180.78</course>
  <speed>0.0</speed>
  <fix>3d</fix>
</trkpt>
<trkpt lat="64.1624777" lon="-139.8402246">
  <ele>1109.1</ele>
  <time>2026-09-01T20:02:05Z</time>
  <course>5.76</course>
  <speed>0.0</speed>
  <fix>3d</fix>
</trkpt>
<trkpt lat="64.1624777" lon="-139.8402246">
  <ele>1109.09</ele>
  <time>2026-09-01T20:02:05Z</time>
  <course>180.78</course>
  <speed>0.0</speed>
  <fix>3d</fix>
</trkpt>
<trkpt lat="64.1624777" lon="-139.8402246">
  <ele>1109.1</ele>
  <time>2026-09-01T20:02:05Z</time>
  <course>5.76</course>
  <speed>0.0</speed>
  <fix>3d</fix>
</trkpt>
<trkpt lat="64.1624777" lon="-139.8402246">
  <ele>1109.09</ele>
  <time>2026-09-01T20:02:05Z</time>
  <course>180.78</course>
  <speed>0.0</speed>
  <fix>3d</fix>
</trkpt>
<trkpt lat="64.1624777" lon="-139.8402246">
  <ele>1109.1</ele>
  <time>2026-09-01T20:02:05Z</time>
  <course>5.76</course>
  <speed>0.0</speed>
  <fix>3d</fix>
</trkpt>
<trkpt lat="64.1624777" lon="-139.8402246">
  <ele>1109.09</ele>
  <time>2026-09-01T20:02:05Z</time>
  <course>180.78</course>
  <speed>0.0</speed>
  <fix>3d</fix>
</trkpt>
<trkpt lat="64.1624777" lon="-139.8402246">
  <ele>1109.1</ele>
  <time>2026-09-01T20:02:05Z</time>
  <course>5.76</course>
  <speed>0.0</speed>
  <fix>3d</fix>
</trkpt>
<trkpt lat="64.1624777" lon="-139.8402246">
  <ele>1109.09</ele>
  <time>2026-09-01T20:02:05Z</time>
  <course>180.78</course>
  <speed>0.0</speed>
  <fix>3d</fix>
</trkpt>
<trkpt lat="64.1624777" lon="-139.8402246">
  <ele>1109.11</ele>
  <time>2026-09-01T20:02:05Z</time>
  <course>5.76</course>
  <speed>0.0</speed>
  <fix>3d</fix>
</trkpt>
<trkpt lat="64.1624777" lon="-139.8402246">
  <ele>1109.09</ele>
  <time>2026-09-01T20:02:05Z</time>
  <course>180.78</course>
  <speed>0.0</speed>
  <fix>3d</fix>
</trkpt>
<trkpt lat="64.1624777" lon="-139.8402246">
  <ele>1109.11</ele>
  <time>2026-09-01T20:02:05Z</time>
  <course>5.76</course>
  <speed>0.0</speed>
  <fix>3d</fix>
</trkpt>
<trkpt lat="64.1624777" lon="-139.8402246">
  <ele>1109.09</ele>
  <time>2026-09-01T20:02:05Z</time>
  <course>180.78</course>
  <speed>0.0</speed>
  <fix>3d</fix>
</trkpt>
<trkpt lat="64.1624777" lon="-139.8402246">
  <ele>1109.11</ele>
  <time>2026-09-01T20:02:06Z</time>
  <course>5.76</course>
  <speed>0.0</speed>
  <fix>3d</fix>
</trkpt>
<trkpt lat="64.1624777" lon="-139.8402246">
  <ele>1109.09</ele>
  <time>2026-09-01T20:02:06Z</time>
  <course>180.78</course>
  <speed>0.0</speed>
  <fix>3d</fix>
</trkpt>
<trkpt lat="64.1624777" lon="-139.8402246">
  <ele>1109.11</ele>
  <time>2026-09-01T20:02:06Z</time>
  <course>5.76</course>
  <speed>0.0</speed>
  <fix>3d</fix>
</trkpt>
<trkpt lat="64.1624777" lon="-139.8402246">
  <ele>1109.09</ele>
  <time>2026-09-01T20:02:06Z</time>
  <course>180.78</course>
  <speed>0.0</speed>
  <fix>3d</fix>
</trkpt>
<trkpt lat="64.1624777" lon="-139.8402246">
  <ele>1109.11</ele>
  <time>2026-09-01T20:02:06Z</time>
  <course>5.76</course>
  <speed>0.0</speed>
  <fix>3d</fix>
</trkpt>
<trkpt lat="64.1624777" lon="-139.8402246">
  <ele>1109.09</ele>
  <time>2026-09-01T20:02:06Z</time>
  <course>180.78</course>
  <speed>0.0</speed>
  <fix>3d</fix>
</trkpt>
<trkpt lat="64.1624777" lon="-139.8402246">
  <ele>1109.12</ele>
  <time>2026-09-01T20:02:06Z</time>
  <course>5.76</course>
  <speed>0.0</speed>
  <fix>3d</fix>
</trkpt>
<trkpt lat="64.1624777" lon="-139.8402246">
  <ele>1109.09</ele>
  <time>2026-09-01T20:02:06Z</time>
  <course>180.78</course>
  <speed>0.0</speed>
  <fix>3d</fix>
</trkpt>
<trkpt lat="64.1624777" lon="-139.8402246">
  <ele>1109.12</ele>
  <time>2026-09-01T20:02:06Z</time>
  <course>5.76</course>
  <speed>0.0</speed>
  <fix>3d</fix>
</trkpt>
<trkpt lat="64.1624777" lon="-139.8402246">
  <ele>1109.09</ele>
  <time>2026-09-01T20:02:06Z</time>
  <course>180.78</course>
  <speed>0.0</speed>
  <fix>3d</fix>
</trkpt>
<trkpt lat="64.1624777" lon="-139.8402246">
  <ele>1109.12</ele>
  <time>2026-09-01T20:02:06Z</time>
  <course>5.76</course>
  <speed>0.0</speed>
  <fix>3d</fix>
</trkpt>
<trkpt lat="64.1624777" lon="-139.8402246">
  <ele>1109.09</ele>
  <time>2026-09-01T20:02:06Z</time>
  <course>180.78</course>
  <speed>0.0</speed>
  <fix>3d</fix>
</trkpt>
<trkpt lat="64.1624777" lon="-139.8402246">
  <ele>1109.12</ele>
  <time>2026-09-01T20:02:06Z</time>
  <course>5.76</course>
  <speed>0.0</speed>
  <fix>3d</fix>
</trkpt>
<trkpt lat="64.1624777" lon="-139.8402246">
  <ele>1109.09</ele>
  <time>2026-09-01T20:02:06Z</time>
  <course>180.78</course>
  <speed>0.0</speed>
  <fix>3d</fix>
</trkpt>
<trkpt lat="64.1624777" lon="-139.8402246">
  <ele>1109.13</ele>
  <time>2026-09-01T20:02:06Z</time>
  <course>5.76</course>
  <speed>0.0</speed>
  <fix>3d</fix>
</trkpt>
<trkpt lat="64.1624777" lon="-139.8402246">
  <ele>1109.09</ele>
  <time>2026-09-01T20:02:06Z</time>
  <course>180.78</course>
  <speed>0.0</speed>
  <fix>3d</fix>
</trkpt>
<trkpt lat="64.1624777" lon="-139.8402246">
  <ele>1109.13</ele>
  <time>2026-09-01T20:02:06Z</time>
  <course>5.76</course>
  <speed>0.0</speed>
  <fix>3d</fix>
</trkpt>
<trkpt lat="64.1624777" lon="-139.8402246">
  <ele>1109.09</ele>
  <time>2026-09-01T20:02:06Z</time>
  <course>180.78</course>
  <speed>0.0</speed>
  <fix>3d</fix>
</trkpt>
<trkpt lat="64.1624777" lon="-139.8402246">
  <ele>1109.13</ele>
  <time>2026-09-01T20:02:06Z</time>
  <course>5.76</course>
  <speed>0.0</speed>
  <fix>3d</fix>
</trkpt>
<trkpt lat="64.1624777" lon="-139.8402246">
  <ele>1109.09</ele>
  <time>2026-09-01T20:02:06Z</time>
  <course>180.78</course>
  <speed>0.0</speed>
  <fix>3d</fix>
</trkpt>
<trkpt lat="64.1624777" lon="-139.8402246">
  <ele>1109.13</ele>
  <time>2026-09-01T20:02:06Z</time>
  <course>5.76</course>
  <speed>0.0</speed>
  <fix>3d</fix>
</trkpt>
<trkpt lat="64.1624777" lon="-139.8402246">
  <ele>1109.09</ele>
  <time>2026-09-01T20:02:06Z</time>
  <course>180.78</course>
  <speed>0.0</speed>
  <fix>3d</fix>
</trkpt>
<trkpt lat="64.1624777" lon="-139.8402246">
  <ele>1109.13</ele>
  <time>2026-09-01T20:02:06Z</time>
  <course>5.76</course>
  <speed>0.0</speed>
  <fix>3d</fix>
</trkpt>
<trkpt lat="64.1624777" lon="-139.8402246">
  <ele>1109.09</ele>
  <time>2026-09-01T20:02:06Z</time>
  <course>180.78</course>
  <speed>0.0</speed>
  <fix>3d</fix>
</trkpt>
<trkpt lat="64.1624777" lon="-139.8402246">
  <ele>1109.13</ele>
  <time>2026-09-01T20:02:06Z</time>
  <course>5.76</course>
  <speed>0.0</speed>
  <fix>3d</fix>
</trkpt>
<trkpt lat="64.1624777" lon="-139.8402246">
  <ele>1109.09</ele>
  <time>2026-09-01T20:02:06Z</time>
  <course>180.78</course>
  <speed>0.0</speed>
  <fix>3d</fix>
</trkpt>
<trkpt lat="64.1624777" lon="-139.8402246">
  <ele>1109.13</ele>
  <time>2026-09-01T20:02:06Z</time>
  <course>5.76</course>
  <speed>0.0</speed>
  <fix>3d</fix>
</trkpt>
<trkpt lat="64.1624777" lon="-139.8402246">
  <ele>1109.09</ele>
  <time>2026-09-01T20:02:06Z</time>
  <course>180.78</course>
  <speed>0.0</speed>
  <fix>3d</fix>
</trkpt>
<trkpt lat="64.1624777" lon="-139.8402246">
  <ele>1109.13</ele>
  <time>2026-09-01T20:02:06Z</time>
  <course>5.76</course>
  <speed>0.0</speed>
  <fix>3d</fix>
</trkpt>
<trkpt lat="64.1624777" lon="-139.8402246">
  <ele>1109.09</ele>
  <time>2026-09-01T20:02:06Z</time>
  <course>180.78</course>
  <speed>0.0</speed>
  <fix>3d</fix>
</trkpt>
<trkpt lat="64.1624777" lon="-139.8402246">
  <ele>1109.12</ele>
  <time>2026-09-01T20:02:06Z</time>
  <course>5.76</course>
  <speed>0.0</speed>
  <fix>3d</fix>
</trkpt>
<trkpt lat="64.1624777" lon="-139.8402246">
  <ele>1109.09</ele>
  <time>2026-09-01T20:02:06Z</time>
  <course>180.78</course>
  <speed>0.0</speed>
  <fix>3d</fix>
</trkpt>
<trkpt lat="64.1624777" lon="-139.8402246">
  <ele>1109.12</ele>
  <time>2026-09-01T20:02:06Z</time>
  <course>5.76</course>
  <speed>0.0</speed>
  <fix>3d</fix>
</trkpt>
<trkpt lat="64.1624777" lon="-139.8402246">
  <ele>1109.09</ele>
  <time>2026-09-01T20:02:06Z</time>
  <course>180.78</course>
  <speed>0.0</speed>
  <fix>3d</fix>
</trkpt>
<trkpt lat="64.1624777" lon="-139.8402246">
  <ele>1109.12</ele>
  <time>2026-09-01T20:02:06Z</time>
  <course>5.77</course>
  <speed>0.0</speed>
  <fix>3d</fix>
</trkpt>
<trkpt lat="64.1624777" lon="-139.8402246">
  <ele>1109.09</ele>
  <time>2026-09-01T20:02:06Z</time>
  <course>180.78</course>
  <speed>0.0</speed>
  <fix>3d</fix>
</trkpt>
<trkpt lat="64.1624777" lon="-139.8402246">
  <ele>1109.12</ele>
  <time>2026-09-01T20:02:06Z</time>
  <course>5.77</course>
  <speed>0.0</speed>
  <fix>3d</fix>
</trkpt>
<trkpt lat="64.1624777" lon="-139.8402246">
  <ele>1109.09</ele>
  <time>2026-09-01T20:02:06Z</time>
  <course>180.78</course>
  <speed>0.0</speed>
  <fix>3d</fix>
</trkpt>
<trkpt lat="64.1624777" lon="-139.8402246">
  <ele>1109.12</ele>
  <time>2026-09-01T20:02:06Z</time>
  <course>5.77</course>
  <speed>0.0</speed>
  <fix>3d</fix>
</trkpt>
<trkpt lat="64.1624777" lon="-139.8402246">
  <ele>1109.09</ele>
  <time>2026-09-01T20:02:06Z</time>
  <course>180.78</course>
  <speed>0.0</speed>
  <fix>3d</fix>
</trkpt>
<trkpt lat="64.1624777" lon="-139.8402246">
  <ele>1109.12</ele>
  <time>2026-09-01T20:02:06Z</time>
  <course>5.77</course>
  <speed>0.0</speed>
  <fix>3d</fix>
</trkpt>
<trkpt lat="64.1624777" lon="-139.8402246">
  <ele>1109.09</ele>
  <time>2026-09-01T20:02:06Z</time>
  <course>180.78</course>
  <speed>0.0</speed>
  <fix>3d</fix>
</trkpt>
<trkpt lat="64.1624777" lon="-139.8402246">
  <ele>1109.12</ele>
  <time>2026-09-01T20:02:06Z</time>
  <course>5.77</course>
  <speed>0.0</speed>
  <fix>3d</fix>
</trkpt>
<trkpt lat="64.1624777" lon="-139.8402246">
  <ele>1109.09</ele>
  <time>2026-09-01T20:02:06Z</time>
  <course>180.78</course>
  <speed>0.0</speed>
  <fix>3d</fix>
</trkpt>
<trkpt lat="64.1624777" lon="-139.8402246">
  <ele>1109.12</ele>
  <time>2026-09-01T20:02:06Z</time>
  <course>5.77</course>
  <speed>0.0</speed>
  <fix>3d</fix>
</trkpt>
<trkpt lat="64.1624777" lon="-139.8402246">
  <ele>1109.09</ele>
  <time>2026-09-01T20:02:06Z</time>
  <course>180.78</course>
  <speed>0.0</speed>
  <fix>3d</fix>
</trkpt>
<trkpt lat="64.1624777" lon="-139.8402246">
  <ele>1109.13</ele>
  <time>2026-09-01T20:02:06Z</time>
  <course>5.77</course>
  <speed>0.0</speed>
  <fix>3d</fix>
</trkpt>
<trkpt lat="64.1624777" lon="-139.8402246">
  <ele>1109.09</ele>
  <time>2026-09-01T20:02:06Z</time>
  <course>180.78</course>
  <speed>0.0</speed>
  <fix>3d</fix>
</trkpt>
<trkpt lat="64.1624777" lon="-139.8402246">
  <ele>1109.13</ele>
  <time>2026-09-01T20:02:06Z</time>
  <course>5.77</course>
  <speed>0.0</speed>
  <fix>3d</fix>
</trkpt>
<trkpt lat="64.1624777" lon="-139.8402246">
  <ele>1109.09</ele>
  <time>2026-09-01T20:02:06Z</time>
  <course>180.78</course>
  <speed>0.0</speed>
  <fix>3d</fix>
</trkpt>
<trkpt lat="64.1624777" lon="-139.8402246">
  <ele>1109.13</ele>
  <time>2026-09-01T20:02:06Z</time>
  <course>5.77</course>
  <speed>0.0</speed>
  <fix>3d</fix>
</trkpt>
<trkpt lat="64.1624777" lon="-139.8402246">
  <ele>1109.09</ele>
  <time>2026-09-01T20:02:06Z</time>
  <course>180.78</course>
  <speed>0.0</speed>
  <fix>3d</fix>
</trkpt>
<trkpt lat="64.1624777" lon="-139.8402246">
  <ele>1109.13</ele>
  <time>2026-09-01T20:02:06Z</time>
  <course>5.77</course>
  <speed>0.0</speed>
  <fix>3d</fix>
</trkpt>
<trkpt lat="64.1624777" lon="-139.8402246">
  <ele>1109.09</ele>
  <time>2026-09-01T20:02:06Z</time>
  <course>180.78</course>
  <speed>0.0</speed>
  <fix>3d</fix>
</trkpt>
<trkpt lat="64.1624777" lon="-139.8402246">
  <ele>1109.13</ele>
  <time>2026-09-01T20:02:06Z</time>
  <course>5.77</course>
  <speed>0.0</speed>
  <fix>3d</fix>
</trkpt>
<trkpt lat="64.1624777" lon="-139.8402246">
  <ele>1109.09</ele>
  <time>2026-09-01T20:02:06Z</time>
  <course>180.78</course>
  <speed>0.0</speed>
  <fix>3d</fix>
</trkpt>
<trkpt lat="64.1624777" lon="-139.8402246">
  <ele>1109.13</ele>
  <time>2026-09-01T20:02:06Z</time>
  <course>5.78</course>
  <speed>0.0</speed>
  <fix>3d</fix>
</trkpt>
<trkpt lat="64.1624777" lon="-139.8402246">
  <ele>1109.09</ele>
  <time>2026-09-01T20:02:06Z</time>
  <course>180.78</course>
  <speed>0.0</speed>
  <fix>3d</fix>
</trkpt>
<trkpt lat="64.1624777" lon="-139.8402246">
  <ele>1109.14</ele>
  <time>2026-09-01T20:02:06Z</time>
  <course>5.78</course>
  <speed>0.0</speed>
  <fix>3d</fix>
</trkpt>
<trkpt lat="64.1624777" lon="-139.8402246">
  <ele>1109.09</ele>
  <time>2026-09-01T20:02:06Z</time>
  <course>180.78</course>
  <speed>0.0</speed>
  <fix>3d</fix>
</trkpt>
<trkpt lat="64.1624777" lon="-139.8402246">
  <ele>1109.14</ele>
  <time>2026-09-01T20:02:06Z</time>
  <course>5.78</course>
  <speed>0.0</speed>
  <fix>3d</fix>
</trkpt>
<trkpt lat="64.1624777" lon="-139.8402246">
  <ele>1109.09</ele>
  <time>2026-09-01T20:02:06Z</time>
  <course>180.78</course>
  <speed>0.0</speed>
  <fix>3d</fix>
</trkpt>
<trkpt lat="64.1624777" lon="-139.8402246">
  <ele>1109.14</ele>
  <time>2026-09-01T20:02:06Z</time>
  <course>5.78</course>
  <speed>0.0</speed>
  <fix>3d</fix>
</trkpt>
<trkpt lat="64.1624777" lon="-139.8402246">
  <ele>1109.09</ele>
  <time>2026-09-01T20:02:06Z</time>
  <course>180.78</course>
  <speed>0.0</speed>
  <fix>3d</fix>
</trkpt>
<trkpt lat="64.1624777" lon="-139.8402246">
  <ele>1109.14</ele>
  <time>2026-09-01T20:02:06Z</time>
  <course>5.78</course>
  <speed>0.0</speed>
  <fix>3d</fix>
</trkpt>
<trkpt lat="64.1624777" lon="-139.8402246">
  <ele>1109.09</ele>
  <time>2026-09-01T20:02:06Z</time>
  <course>180.78</course>
  <speed>0.0</speed>
  <fix>3d</fix>
</trkpt>
<trkpt lat="64.1624777" lon="-139.8402246">
  <ele>1109.14</ele>
  <time>2026-09-01T20:02:06Z</time>
  <course>5.78</course>
  <speed>0.0</speed>
  <fix>3d</fix>
</trkpt>
<trkpt lat="64.1624777" lon="-139.8402246">
  <ele>1109.09</ele>
  <time>2026-09-01T20:02:06Z</time>
  <course>180.78</course>
  <speed>0.0</speed>
  <fix>3d</fix>
</trkpt>
<trkpt lat="64.1624777" lon="-139.8402246">
  <ele>1109.09</ele>
  <time>2026-09-01T20:02:06Z</time>
  <course>5.78</course>
  <speed>0.0</speed>
  <fix>3d</fix>
</trkpt>
<trkpt lat="64.1624777" lon="-139.8402246">
  <ele>1109.09</ele>
  <time>2026-09-01T20:02:06Z</time>
  <course>180.78</course>
  <speed>0.0</speed>
  <fix>3d</fix>
</trkpt>
<trkpt lat="64.1624777" lon="-139.8402246">
  <ele>1109.09</ele>
  <time>2026-09-01T20:02:06Z</time>
  <course>5.78</course>
  <speed>0.0</speed>
  <fix>3d</fix>
</trkpt>
<trkpt lat="64.1624777" lon="-139.8402246">
  <ele>1109.09</ele>
  <time>2026-09-01T20:02:06Z</time>
  <course>180.78</course>
  <speed>0.0</speed>
  <fix>3d</fix>
</trkpt>
<trkpt lat="64.1624777" lon="-139.8402246">
  <ele>1109.09</ele>
  <time>2026-09-01T20:02:06Z</time>
  <course>5.78</course>
  <speed>0.0</speed>
  <fix>3d</fix>
</trkpt>
<trkpt lat="64.1624777" lon="-139.8402246">
  <ele>1109.09</ele>
  <time>2026-09-01T20:02:06Z</time>
  <course>180.78</course>
  <speed>0.0</speed>
  <fix>3d</fix>
</trkpt>
<trkpt lat="64.1624777" lon="-139.8402246">
  <ele>1109.09</ele>
  <time>2026-09-01T20:02:06Z</time>
  <course>5.79</course>
  <speed>0.0</speed>
  <fix>3d</fix>
</trkpt>
<trkpt lat="64.1624777" lon="-139.8402246">
  <ele>1109.09</ele>
  <time>2026-09-01T20:02:06Z</time>
  <course>180.78</course>
  <speed>0.0</speed>
  <fix>3d</fix>
</trkpt>
<trkpt lat="64.1624777" lon="-139.8402246">
  <ele>1109.08</ele>
  <time>2026-09-01T20:02:06Z</time>
  <course>5.79</course>
  <speed>0.0</speed>
  <fix>3d</fix>
</trkpt>
<trkpt lat="64.1624777" lon="-139.8402246">
  <ele>1109.09</ele>
  <time>2026-09-01T20:02:06Z</time>
  <course>180.78</course>
  <speed>0.0</speed>
  <fix>3d</fix>
</trkpt>
<trkpt lat="64.1624777" lon="-139.8402246">
  <ele>1109.08</ele>
  <time>2026-09-01T20:02:06Z</time>
  <course>5.79</course>
  <speed>0.0</speed>
  <fix>3d</fix>
</trkpt>
<trkpt lat="64.1624777" lon="-139.8402246">
  <ele>1109.09</ele>
  <time>2026-09-01T20:02:06Z</time>
  <course>180.78</course>
  <speed>0.0</speed>
  <fix>3d</fix>
</trkpt>
<trkpt lat="64.1624777" lon="-139.8402246">
  <ele>1109.07</ele>
  <time>2026-09-01T20:02:06Z</time>
  <course>5.79</course>
  <speed>0.0</speed>
  <fix>3d</fix>
</trkpt>
<trkpt lat="64.1624777" lon="-139.8402246">
  <ele>1109.09</ele>
  <time>2026-09-01T20:02:06Z</time>
  <course>180.78</course>
  <speed>0.0</speed>
  <fix>3d</fix>
</trkpt>
<trkpt lat="64.1624777" lon="-139.8402246">
  <ele>1109.07</ele>
  <time>2026-09-01T20:02:06Z</time>
  <course>5.79</course>
  <speed>0.0</speed>
  <fix>3d</fix>
</trkpt>
<trkpt lat="64.1624777" lon="-139.8402246">
  <ele>1109.09</ele>
  <time>2026-09-01T20:02:06Z</time>
  <course>180.78</course>
  <speed>0.0</speed>
  <fix>3d</fix>
</trkpt>
<trkpt lat="64.1624777" lon="-139.8402246">
  <ele>1109.06</ele>
  <time>2026-09-01T20:02:06Z</time>
  <course>5.79</course>
  <speed>0.0</speed>
  <fix>3d</fix>
</trkpt>
<trkpt lat="64.1624777" lon="-139.8402246">
  <ele>1109.09</ele>
  <time>2026-09-01T20:02:06Z</time>
  <course>180.78</course>
  <speed>0.0</speed>
  <fix>3d</fix>
</trkpt>
<trkpt lat="64.1624777" lon="-139.8402246">
  <ele>1109.06</ele>
  <time>2026-09-01T20:02:06Z</time>
  <course>5.79</course>
  <speed>0.0</speed>
  <fix>3d</fix>
</trkpt>
<trkpt lat="64.1624777" lon="-139.8402246">
  <ele>1109.09</ele>
  <time>2026-09-01T20:02:06Z</time>
  <course>180.78</course>
  <speed>0.0</speed>
  <fix>3d</fix>
</trkpt>
<trkpt lat="64.1624777" lon="-139.8402246">
  <ele>1109.05</ele>
  <time>2026-09-01T20:02:06Z</time>
  <course>5.79</course>
  <speed>0.0</speed>
  <fix>3d</fix>
</trkpt>
<trkpt lat="64.1624777" lon="-139.8402246">
  <ele>1109.09</ele>
  <time>2026-09-01T20:02:06Z</time>
  <course>180.78</course>
  <speed>0.0</speed>
  <fix>3d</fix>
</trkpt>
<trkpt lat="64.1624777" lon="-139.8402246">
  <ele>1109.05</ele>
  <time>2026-09-01T20:02:06Z</time>
  <course>5.8</course>
  <speed>0.0</speed>
  <fix>3d</fix>
</trkpt>
<trkpt lat="64.1624777" lon="-139.8402246">
  <ele>1109.09</ele>
  <time>2026-09-01T20:02:06Z</time>
  <course>180.78</course>
  <speed>0.0</speed>
  <fix>3d</fix>
</trkpt>
<trkpt lat="64.1624777" lon="-139.8402246">
  <ele>1109.04</ele>
  <time>2026-09-01T20:02:06Z</time>
  <course>5.8</course>
  <speed>0.0</speed>
  <fix>3d</fix>
</trkpt>
<trkpt lat="64.1624777" lon="-139.8402246">
  <ele>1109.09</ele>
  <time>2026-09-01T20:02:06Z</time>
  <course>180.78</course>
  <speed>0.0</speed>
  <fix>3d</fix>
</trkpt>
<trkpt lat="64.1624777" lon="-139.8402246">
  <ele>1109.04</ele>
  <time>2026-09-01T20:02:06Z</time>
  <course>5.8</course>
  <speed>0.0</speed>
  <fix>3d</fix>
</trkpt>
<trkpt lat="64.1624777" lon="-139.8402246">
  <ele>1109.09</ele>
  <time>2026-09-01T20:02:06Z</time>
  <course>180.78</course>
  <speed>0.0</speed>
  <fix>3d</fix>
</trkpt>
<trkpt lat="64.1624777" lon="-139.8402246">
  <ele>1109.03</ele>
  <time>2026-09-01T20:02:06Z</time>
  <course>5.8</course>
  <speed>0.0</speed>
  <fix>3d</fix>
</trkpt>
<trkpt lat="64.1624777" lon="-139.8402246">
  <ele>1109.09</ele>
  <time>2026-09-01T20:02:06Z</time>
  <course>180.78</course>
  <speed>0.0</speed>
  <fix>3d</fix>
</trkpt>
<trkpt lat="64.1624777" lon="-139.8402246">
  <ele>1109.02</ele>
  <time>2026-09-01T20:02:06Z</time>
  <course>5.8</course>
  <speed>0.0</speed>
  <fix>3d</fix>
</trkpt>
<trkpt lat="64.1624777" lon="-139.8402246">
  <ele>1109.09</ele>
  <time>2026-09-01T20:02:06Z</time>
  <course>180.78</course>
  <speed>0.0</speed>
  <fix>3d</fix>
</trkpt>
<trkpt lat="64.1624777" lon="-139.8402246">
  <ele>1109.02</ele>
  <time>2026-09-01T20:02:06Z</time>
  <course>5.8</course>
  <speed>0.0</speed>
  <fix>3d</fix>
</trkpt>
<trkpt lat="64.1624777" lon="-139.8402246">
  <ele>1109.09</ele>
  <time>2026-09-01T20:02:06Z</time>
  <course>180.78</course>
  <speed>0.0</speed>
  <fix>3d</fix>
</trkpt>
<trkpt lat="64.1624777" lon="-139.8402246">
  <ele>1109.01</ele>
  <time>2026-09-01T20:02:06Z</time>
  <course>5.81</course>
  <speed>0.0</speed>
  <fix>3d</fix>
</trkpt>
<trkpt lat="64.1624777" lon="-139.8402246">
  <ele>1109.09</ele>
  <time>2026-09-01T20:02:06Z</time>
  <course>180.78</course>
  <speed>0.0</speed>
  <fix>3d</fix>
</trkpt>
<trkpt lat="64.1624777" lon="-139.8402246">
  <ele>1109.01</ele>
  <time>2026-09-01T20:02:06Z</time>
  <course>5.81</course>
  <speed>0.0</speed>
  <fix>3d</fix>
</trkpt>
<trkpt lat="64.1624777" lon="-139.8402246">
  <ele>1109.09</ele>
  <time>2026-09-01T20:02:06Z</time>
  <course>180.78</course>
  <speed>0.0</speed>
  <fix>3d</fix>
</trkpt>
<trkpt lat="64.1624777" lon="-139.8402246">
  <ele>1109.0</ele>
  <time>2026-09-01T20:02:06Z</time>
  <course>5.81</course>
  <speed>0.0</speed>
  <fix>3d</fix>
</trkpt>
<trkpt lat="64.1624777" lon="-139.8402246">
  <ele>1109.09</ele>
  <time>2026-09-01T20:02:06Z</time>
  <course>180.78</course>
  <speed>0.0</speed>
  <fix>3d</fix>
</trkpt>
<trkpt lat="64.1624777" lon="-139.8402246">
  <ele>1108.99</ele>
  <time>2026-09-01T20:02:06Z</time>
  <course>5.81</course>
  <speed>0.0</speed>
  <fix>3d</fix>
</trkpt>
<trkpt lat="64.1624777" lon="-139.8402246">
  <ele>1109.09</ele>
  <time>2026-09-01T20:02:06Z</time>
  <course>180.78</course>
  <speed>0.0</speed>
  <fix>3d</fix>
</trkpt>
<trkpt lat="64.1624777" lon="-139.8402246">
  <ele>1108.99</ele>
  <time>2026-09-01T20:02:06Z</time>
  <course>5.81</course>
  <speed>0.0</speed>
  <fix>3d</fix>
</trkpt>
<trkpt lat="64.1624777" lon="-139.8402246">
  <ele>1109.09</ele>
  <time>2026-09-01T20:02:06Z</time>
  <course>180.78</course>
  <speed>0.0</speed>
  <fix>3d</fix>
</trkpt>
<trkpt lat="64.1624777" lon="-139.8402246">
  <ele>1108.98</ele>
  <time>2026-09-01T20:02:06Z</time>
  <course>5.81</course>
  <speed>0.0</speed>
  <fix>3d</fix>
</trkpt>
<trkpt lat="64.1624777" lon="-139.8402246">
  <ele>1109.09</ele>
  <time>2026-09-01T20:02:06Z</time>
  <course>180.78</course>
  <speed>0.0</speed>
  <fix>3d</fix>
</trkpt>
<trkpt lat="64.1624777" lon="-139.8402246">
  <ele>1108.98</ele>
  <time>2026-09-01T20:02:06Z</time>
  <course>5.82</course>
  <speed>0.0</speed>
  <fix>3d</fix>
</trkpt>
<trkpt lat="64.1624777" lon="-139.8402246">
  <ele>1109.09</ele>
  <time>2026-09-01T20:02:06Z</time>
  <course>180.78</course>
  <speed>0.0</speed>
  <fix>3d</fix>
</trkpt>
<trkpt lat="64.1624777" lon="-139.8402246">
  <ele>1108.98</ele>
  <time>2026-09-01T20:02:06Z</time>
  <course>5.82</course>
  <speed>0.0</speed>
  <fix>3d</fix>
</trkpt>
<trkpt lat="64.1624777" lon="-139.8402246">
  <ele>1109.09</ele>
  <time>2026-09-01T20:02:06Z</time>
  <course>180.78</course>
  <speed>0.0</speed>
  <fix>3d</fix>
</trkpt>
<trkpt lat="64.1624777" lon="-139.8402246">
  <ele>1108.98</ele>
  <time>2026-09-01T20:02:06Z</time>
  <course>5.82</course>
  <speed>0.0</speed>
  <fix>3d</fix>
</trkpt>
<trkpt lat="64.1624777" lon="-139.8402246">
  <ele>1109.09</ele>
  <time>2026-09-01T20:02:06Z</time>
  <course>180.78</course>
  <speed>0.0</speed>
  <fix>3d</fix>
</trkpt>
<trkpt lat="64.1624777" lon="-139.8402246">
  <ele>1108.98</ele>
  <time>2026-09-01T20:02:06Z</time>
  <course>5.82</course>
  <speed>0.0</speed>
  <fix>3d</fix>
</trkpt>
<trkpt lat="64.1624777" lon="-139.8402246">
  <ele>1109.09</ele>
  <time>2026-09-01T20:02:06Z</time>
  <course>180.78</course>
  <speed>0.0</speed>
  <fix>3d</fix>
</trkpt>
<trkpt lat="64.1624777" lon="-139.8402246">
  <ele>1108.97</ele>
  <time>2026-09-01T20:02:06Z</time>
  <course>5.82</course>
  <speed>0.0</speed>
  <fix>3d</fix>
</trkpt>
<trkpt lat="64.1624777" lon="-139.8402246">
  <ele>1109.09</ele>
  <time>2026-09-01T20:02:06Z</time>
  <course>180.78</course>
  <speed>0.0</speed>
  <fix>3d</fix>
</trkpt>
<trkpt lat="64.1624777" lon="-139.8402246">
  <ele>1108.97</ele>
  <time>2026-09-01T20:02:06Z</time>
  <course>5.82</course>
  <speed>0.0</speed>
  <fix>3d</fix>
</trkpt>
<trkpt lat="64.1624777" lon="-139.8402246">
  <ele>1109.09</ele>
  <time>2026-09-01T20:02:06Z</time>
  <course>180.78</course>
  <speed>0.0</speed>
  <fix>3d</fix>
</trkpt>
<trkpt lat="64.1624777" lon="-139.8402246">
  <ele>1108.97</ele>
  <time>2026-09-01T20:02:06Z</time>
  <course>5.83</course>
  <speed>0.0</speed>
  <fix>3d</fix>
</trkpt>
<trkpt lat="64.1624777" lon="-139.8402246">
  <ele>1109.09</ele>
  <time>2026-09-01T20:02:06Z</time>
  <course>180.78</course>
  <speed>0.0</speed>
  <fix>3d</fix>
</trkpt>
<trkpt lat="64.1624777" lon="-139.8402246">
  <ele>1108.96</ele>
  <time>2026-09-01T20:02:06Z</time>
  <course>5.83</course>
  <speed>0.0</speed>
  <fix>3d</fix>
</trkpt>
<trkpt lat="64.1624777" lon="-139.8402246">
  <ele>1109.09</ele>
  <time>2026-09-01T20:02:06Z</time>
  <course>180.78</course>
  <speed>0.0</speed>
  <fix>3d</fix>
</trkpt>
<trkpt lat="64.1624777" lon="-139.8402246">
  <ele>1108.96</ele>
  <time>2026-09-01T20:02:06Z</time>
  <course>5.83</course>
  <speed>0.0</speed>
  <fix>3d</fix>
</trkpt>
<trkpt lat="64.1624777" lon="-139.8402246">
  <ele>1109.09</ele>
  <time>2026-09-01T20:02:06Z</time>
  <course>180.78</course>
  <speed>0.0</speed>
  <fix>3d</fix>
</trkpt>
<trkpt lat="64.1624777" lon="-139.8402246">
  <ele>1108.96</ele>
  <time>2026-09-01T20:02:06Z</time>
  <course>5.83</course>
  <speed>0.0</speed>
  <fix>3d</fix>
</trkpt>
<trkpt lat="64.1624777" lon="-139.8402246">
  <ele>1109.09</ele>
  <time>2026-09-01T20:02:06Z</time>
  <course>180.78</course>
  <speed>0.0</speed>
  <fix>3d</fix>
</trkpt>
<trkpt lat="64.1624777" lon="-139.8402246">
  <ele>1108.96</ele>
  <time>2026-09-01T20:02:06Z</time>
  <course>5.83</course>
  <speed>0.0</speed>
  <fix>3d</fix>
</trkpt>
<trkpt lat="64.1624777" lon="-139.8402246">
  <ele>1109.09</ele>
  <time>2026-09-01T20:02:06Z</time>
  <course>180.78</course>
  <speed>0.0</speed>
  <fix>3d</fix>
</trkpt>
<trkpt lat="64.1624777" lon="-139.8402246">
  <ele>1108.95</ele>
  <time>2026-09-01T20:02:06Z</time>
  <course>5.83</course>
  <speed>0.0</speed>
  <fix>3d</fix>
</trkpt>
<trkpt lat="64.1624777" lon="-139.8402246">
  <ele>1109.09</ele>
  <time>2026-09-01T20:02:06Z</time>
  <course>180.78</course>
  <speed>0.0</speed>
  <fix>3d</fix>
</trkpt>
<trkpt lat="64.1624777" lon="-139.8402245">
  <ele>1108.95</ele>
  <time>2026-09-01T20:02:06Z</time>
  <course>5.84</course>
  <speed>0.0</speed>
  <fix>3d</fix>
</trkpt>
<trkpt lat="64.1624777" lon="-139.8402246">
  <ele>1109.09</ele>
  <time>2026-09-01T20:02:06Z</time>
  <course>180.78</course>
  <speed>0.0</speed>
  <fix>3d</fix>
</trkpt>
<trkpt lat="64.1624777" lon="-139.8402245">
  <ele>1108.95</ele>
  <time>2026-09-01T20:02:06Z</time>
  <course>5.84</course>
  <speed>0.0</speed>
  <fix>3d</fix>
</trkpt>
<trkpt lat="64.1624777" lon="-139.8402246">
  <ele>1109.09</ele>
  <time>2026-09-01T20:02:06Z</time>
  <course>180.78</course>
  <speed>0.0</speed>
  <fix>3d</fix>
</trkpt>
<trkpt lat="64.1624777" lon="-139.8402245">
  <ele>1108.95</ele>
  <time>2026-09-01T20:02:06Z</time>
  <course>5.84</course>
  <speed>0.0</speed>
  <fix>3d</fix>
</trkpt>
<trkpt lat="64.1624777" lon="-139.8402246">
  <ele>1109.09</ele>
  <time>2026-09-01T20:02:06Z</time>
  <course>180.78</course>
  <speed>0.0</speed>
  <fix>3d</fix>
</trkpt>
<trkpt lat="64.1624777" lon="-139.8402245">
  <ele>1108.95</ele>
  <time>2026-09-01T20:02:06Z</time>
  <course>5.84</course>
  <speed>0.0</speed>
  <fix>3d</fix>
</trkpt>
<trkpt lat="64.1624777" lon="-139.8402246">
  <ele>1109.09</ele>
  <time>2026-09-01T20:02:06Z</time>
  <course>180.78</course>
  <speed>0.0</speed>
  <fix>3d</fix>
</trkpt>
<trkpt lat="64.1624777" lon="-139.8402245">
  <ele>1108.95</ele>
  <time>2026-09-01T20:02:06Z</time>
  <course>5.84</course>
  <speed>0.0</speed>
  <fix>3d</fix>
</trkpt>
<trkpt lat="64.1624777" lon="-139.8402246">
  <ele>1109.09</ele>
  <time>2026-09-01T20:02:06Z</time>
  <course>180.78</course>
  <speed>0.0</speed>
  <fix>3d</fix>
</trkpt>
<trkpt lat="64.1624777" lon="-139.8402245">
  <ele>1108.94</ele>
  <time>2026-09-01T20:02:06Z</time>
  <course>5.85</course>
  <speed>0.0</speed>
  <fix>3d</fix>
</trkpt>
<trkpt lat="64.1624777" lon="-139.8402246">
  <ele>1109.09</ele>
  <time>2026-09-01T20:02:06Z</time>
  <course>180.78</course>
  <speed>0.0</speed>
  <fix>3d</fix>
</trkpt>
<trkpt lat="64.1624777" lon="-139.8402245">
  <ele>1108.94</ele>
  <time>2026-09-01T20:02:06Z</time>
  <course>5.85</course>
  <speed>0.0</speed>
  <fix>3d</fix>
</trkpt>
<trkpt lat="64.1624777" lon="-139.8402246">
  <ele>1109.09</ele>
  <time>2026-09-01T20:02:06Z</time>
  <course>180.78</course>
  <speed>0.0</speed>
  <fix>3d</fix>
</trkpt>
<trkpt lat="64.1624777" lon="-139.8402245">
  <ele>1108.94</ele>
  <time>2026-09-01T20:02:06Z</time>
  <course>5.85</course>
  <speed>0.0</speed>
  <fix>3d</fix>
</trkpt>
<trkpt lat="64.1624777" lon="-139.8402246">
  <ele>1109.09</ele>
  <time>2026-09-01T20:02:06Z</time>
  <course>180.78</course>
  <speed>0.0</speed>
  <fix>3d</fix>
</trkpt>
<trkpt lat="64.1624777" lon="-139.8402245">
  <ele>1108.94</ele>
  <time>2026-09-01T20:02:06Z</time>
  <course>5.85</course>
  <speed>0.0</speed>
  <fix>3d</fix>
</trkpt>
<trkpt lat="64.1624777" lon="-139.8402246">
  <ele>1109.09</ele>
  <time>2026-09-01T20:02:06Z</time>
  <course>180.78</course>
  <speed>0.0</speed>
  <fix>3d</fix>
</trkpt>
<trkpt lat="64.1624777" lon="-139.8402245">
  <ele>1108.94</ele>
  <time>2026-09-01T20:02:06Z</time>
  <course>5.85</course>
  <speed>0.0</speed>
  <fix>3d</fix>
</trkpt>
<trkpt lat="64.1624777" lon="-139.8402246">
  <ele>1109.09</ele>
  <time>2026-09-01T20:02:06Z</time>
  <course>180.78</course>
  <speed>0.0</speed>
  <fix>3d</fix>
</trkpt>
<trkpt lat="64.1624777" lon="-139.8402245">
  <ele>1108.94</ele>
  <time>2026-09-01T20:02:06Z</time>
  <course>5.85</course>
  <speed>0.0</speed>
  <fix>3d</fix>
</trkpt>
<trkpt lat="64.1624777" lon="-139.8402246">
  <ele>1109.09</ele>
  <time>2026-09-01T20:02:06Z</time>
  <course>180.78</course>
  <speed>0.0</speed>
  <fix>3d</fix>
</trkpt>
<trkpt lat="64.1624777" lon="-139.8402245">
  <ele>1108.93</ele>
  <time>2026-09-01T20:02:06Z</time>
  <course>5.86</course>
  <speed>0.0</speed>
  <fix>3d</fix>
</trkpt>
<trkpt lat="64.1624777" lon="-139.8402246">
  <ele>1109.09</ele>
  <time>2026-09-01T20:02:06Z</time>
  <course>180.78</course>
  <speed>0.0</speed>
  <fix>3d</fix>
</trkpt>
<trkpt lat="64.1624777" lon="-139.8402245">
  <ele>1108.93</ele>
  <time>2026-09-01T20:02:06Z</time>
  <course>5.86</course>
  <speed>0.0</speed>
  <fix>3d</fix>
</trkpt>
<trkpt lat="64.1624777" lon="-139.8402246">
  <ele>1109.09</ele>
  <time>2026-09-01T20:02:06Z</time>
  <course>180.78</course>
  <speed>0.0</speed>
  <fix>3d</fix>
</trkpt>
<trkpt lat="64.1624777" lon="-139.8402245">
  <ele>1108.93</ele>
  <time>2026-09-01T20:02:06Z</time>
  <course>5.86</course>
  <speed>0.0</speed>
  <fix>3d</fix>
</trkpt>
<trkpt lat="64.1624777" lon="-139.8402246">
  <ele>1109.09</ele>
  <time>2026-09-01T20:02:06Z</time>
  <course>180.78</course>
  <speed>0.0</speed>
  <fix>3d</fix>
</trkpt>
<trkpt lat="64.1624777" lon="-139.8402245">
  <ele>1108.93</ele>
  <time>2026-09-01T20:02:06Z</time>
  <course>5.86</course>
  <speed>0.0</speed>
  <fix>3d</fix>
</trkpt>
<trkpt lat="64.1624777" lon="-139.8402246">
  <ele>1109.09</ele>
  <time>2026-09-01T20:02:06Z</time>
  <course>180.78</course>
  <speed>0.0</speed>
  <fix>3d</fix>
</trkpt>
<trkpt lat="64.1624777" lon="-139.8402245">
  <ele>1108.93</ele>
  <time>2026-09-01T20:02:06Z</time>
  <course>5.86</course>
  <speed>0.0</speed>
  <fix>3d</fix>
</trkpt>
<trkpt lat="64.1624777" lon="-139.8402246">
  <ele>1109.09</ele>
  <time>2026-09-01T20:02:06Z</time>
  <course>180.78</course>
  <speed>0.0</speed>
  <fix>3d</fix>
</trkpt>
<trkpt lat="64.1624777" lon="-139.8402245">
  <ele>1108.92</ele>
  <time>2026-09-01T20:02:06Z</time>
  <course>5.87</course>
  <speed>0.0</speed>
  <fix>3d</fix>
</trkpt>
<trkpt lat="64.1624777" lon="-139.8402246">
  <ele>1109.09</ele>
  <time>2026-09-01T20:02:06Z</time>
  <course>180.78</course>
  <speed>0.0</speed>
  <fix>3d</fix>
</trkpt>
<trkpt lat="64.1624777" lon="-139.8402245">
  <ele>1108.92</ele>
  <time>2026-09-01T20:02:06Z</time>
  <course>5.87</course>
  <speed>0.0</speed>
  <fix>3d</fix>
</trkpt>
<trkpt lat="64.1624777" lon="-139.8402246">
  <ele>1109.09</ele>
  <time>2026-09-01T20:02:06Z</time>
  <course>180.78</course>
  <speed>0.0</speed>
  <fix>3d</fix>
</trkpt>
<trkpt lat="64.1624777" lon="-139.8402245">
  <ele>1108.92</ele>
  <time>2026-09-01T20:02:06Z</time>
  <course>5.87</course>
  <speed>0.0</speed>
  <fix>3d</fix>
</trkpt>
<trkpt lat="64.1624777" lon="-139.8402246">
  <ele>1109.09</ele>
  <time>2026-09-01T20:02:06Z</time>
  <course>180.78</course>
  <speed>0.0</speed>
  <fix>3d</fix>
</trkpt>
<trkpt lat="64.1624777" lon="-139.8402245">
  <ele>1108.92</ele>
  <time>2026-09-01T20:02:06Z</time>
  <course>5.87</course>
  <speed>0.0</speed>
  <fix>3d</fix>
</trkpt>
<trkpt lat="64.1624777" lon="-139.8402246">
  <ele>1109.09</ele>
  <time>2026-09-01T20:02:06Z</time>
  <course>180.78</course>
  <speed>0.0</speed>
  <fix>3d</fix>
</trkpt>
<trkpt lat="64.1624777" lon="-139.8402245">
  <ele>1108.92</ele>
  <time>2026-09-01T20:02:06Z</time>
  <course>5.87</course>
  <speed>0.0</speed>
  <fix>3d</fix>
</trkpt>
<trkpt lat="64.1624777" lon="-139.8402246">
  <ele>1109.09</ele>
  <time>2026-09-01T20:02:06Z</time>
  <course>180.78</course>
  <speed>0.0</speed>
  <fix>3d</fix>
</trkpt>
<trkpt lat="64.1624777" lon="-139.8402245">
  <ele>1108.92</ele>
  <time>2026-09-01T20:02:06Z</time>
  <course>5.87</course>
  <speed>0.0</speed>
  <fix>3d</fix>
</trkpt>
<trkpt lat="64.1624777" lon="-139.8402246">
  <ele>1109.09</ele>
  <time>2026-09-01T20:02:06Z</time>
  <course>180.78</course>
  <speed>0.0</speed>
  <fix>3d</fix>
</trkpt>
<trkpt lat="64.1624777" lon="-139.8402245">
  <ele>1108.92</ele>
  <time>2026-09-01T20:02:06Z</time>
  <course>5.88</course>
  <speed>0.0</speed>
  <fix>3d</fix>
</trkpt>
<trkpt lat="64.1624777" lon="-139.8402246">
  <ele>1109.09</ele>
  <time>2026-09-01T20:02:06Z</time>
  <course>180.78</course>
  <speed>0.0</speed>
  <fix>3d</fix>
</trkpt>
<trkpt lat="64.1624777" lon="-139.8402245">
  <ele>1108.92</ele>
  <time>2026-09-01T20:02:06Z</time>
  <course>5.88</course>
  <speed>0.0</speed>
  <fix>3d</fix>
</trkpt>
<trkpt lat="64.1624777" lon="-139.8402246">
  <ele>1109.09</ele>
  <time>2026-09-01T20:02:06Z</time>
  <course>180.78</course>
  <speed>0.0</speed>
  <fix>3d</fix>
</trkpt>
<trkpt lat="64.1624777" lon="-139.8402245">
  <ele>1108.91</ele>
  <time>2026-09-01T20:02:06Z</time>
  <course>5.88</course>
  <speed>0.0</speed>
  <fix>3d</fix>
</trkpt>
<trkpt lat="64.1624777" lon="-139.8402246">
  <ele>1109.09</ele>
  <time>2026-09-01T20:02:06Z</time>
  <course>180.78</course>
  <speed>0.0</speed>
  <fix>3d</fix>
</trkpt>
<trkpt lat="64.1624777" lon="-139.8402245">
  <ele>1109.08</ele>
  <time>2026-09-01T20:02:06Z</time>
  <course>5.88</course>
  <speed>0.0</speed>
  <fix>3d</fix>
</trkpt>
<trkpt lat="64.1624777" lon="-139.8402246">
  <ele>1109.09</ele>
  <time>2026-09-01T20:02:06Z</time>
  <course>180.78</course>
  <speed>0.0</speed>
  <fix>3d</fix>
</trkpt>
<trkpt lat="64.1624777" lon="-139.8402245">
  <ele>1109.08</ele>
  <time>2026-09-01T20:02:06Z</time>
  <course>5.88</course>
  <speed>0.0</speed>
  <fix>3d</fix>
</trkpt>
<trkpt lat="64.1624777" lon="-139.8402246">
  <ele>1109.09</ele>
  <time>2026-09-01T20:02:06Z</time>
  <course>180.78</course>
  <speed>0.0</speed>
  <fix>3d</fix>
</trkpt>
<trkpt lat="64.1624777" lon="-139.8402245">
  <ele>1109.08</ele>
  <time>2026-09-01T20:02:06Z</time>
  <course>5.88</course>
  <speed>0.0</speed>
  <fix>3d</fix>
</trkpt>
<trkpt lat="64.1624777" lon="-139.8402246">
  <ele>1109.09</ele>
  <time>2026-09-01T20:02:06Z</time>
  <course>180.78</course>
  <speed>0.0</speed>
  <fix>3d</fix>
</trkpt>
<trkpt lat="64.1624777" lon="-139.8402245">
  <ele>1109.08</ele>
  <time>2026-09-01T20:02:06Z</time>
  <course>5.89</course>
  <speed>0.0</speed>
  <fix>3d</fix>
</trkpt>
<trkpt lat="64.1624777" lon="-139.8402246">
  <ele>1109.09</ele>
  <time>2026-09-01T20:02:06Z</time>
  <course>180.78</course>
  <speed>0.0</speed>
  <fix>3d</fix>
</trkpt>
<trkpt lat="64.1624777" lon="-139.8402245">
  <ele>1109.08</ele>
  <time>2026-09-01T20:02:06Z</time>
  <course>5.89</course>
  <speed>0.0</speed>
  <fix>3d</fix>
</trkpt>
<trkpt lat="64.1624777" lon="-139.8402246">
  <ele>1109.09</ele>
  <time>2026-09-01T20:02:06Z</time>
  <course>180.78</course>
  <speed>0.0</speed>
  <fix>3d</fix>
</trkpt>
<trkpt lat="64.1624777" lon="-139.8402245">
  <ele>1109.07</ele>
  <time>2026-09-01T20:02:06Z</time>
  <course>5.89</course>
  <speed>0.01</speed>
  <fix>3d</fix>
</trkpt>
<trkpt lat="64.1624777" lon="-139.8402246">
  <ele>1109.09</ele>
  <time>2026-09-01T20:02:06Z</time>
  <course>180.78</course>
  <speed>0.0</speed>
  <fix>3d</fix>
</trkpt>
<trkpt lat="64.1624777" lon="-139.8402245">
  <ele>1109.07</ele>
  <time>2026-09-01T20:02:06Z</time>
  <course>5.89</course>
  <speed>0.01</speed>
  <fix>3d</fix>
</trkpt>
<trkpt lat="64.1624777" lon="-139.8402246">
  <ele>1109.09</ele>
  <time>2026-09-01T20:02:06Z</time>
  <course>180.78</course>
  <speed>0.0</speed>
  <fix>3d</fix>
</trkpt>
<trkpt lat="64.1624777" lon="-139.8402245">
  <ele>1109.06</ele>
  <time>2026-09-01T20:02:06Z</time>
  <course>5.89</course>
  <speed>0.01</speed>
  <fix>3d</fix>
</trkpt>
<trkpt lat="64.1624777" lon="-139.8402246">
  <ele>1109.09</ele>
  <time>2026-09-01T20:02:06Z</time>
  <course>180.78</course>
  <speed>0.0</speed>
  <fix>3d</fix>
</trkpt>
<trkpt lat="64.1624777" lon="-139.8402245">
  <ele>1109.06</ele>
  <time>2026-09-01T20:02:06Z</time>
  <course>5.89</course>
  <speed>0.01</speed>
  <fix>3d</fix>
</trkpt>
<trkpt lat="64.1624777" lon="-139.8402246">
  <ele>1109.09</ele>
  <time>2026-09-01T20:02:06Z</time>
  <course>180.78</course>
  <speed>0.0</speed>
  <fix>3d</fix>
</trkpt>
<trkpt lat="64.1624777" lon="-139.8402245">
  <ele>1109.06</ele>
  <time>2026-09-01T20:02:06Z</time>
  <course>5.9</course>
  <speed>0.01</speed>
  <fix>3d</fix>
</trkpt>
<trkpt lat="64.1624777" lon="-139.8402246">
  <ele>1109.09</ele>
  <time>2026-09-01T20:02:06Z</time>
  <course>180.78</course>
  <speed>0.0</speed>
  <fix>3d</fix>
</trkpt>
<trkpt lat="64.1624777" lon="-139.8402245">
  <ele>1109.05</ele>
  <time>2026-09-01T20:02:06Z</time>
  <course>5.9</course>
  <speed>0.01</speed>
  <fix>3d</fix>
</trkpt>
<trkpt lat="64.1624777" lon="-139.8402246">
  <ele>1109.09</ele>
  <time>2026-09-01T20:02:06Z</time>
  <course>180.78</course>
  <speed>0.0</speed>
  <fix>3d</fix>
</trkpt>
<trkpt lat="64.1624777" lon="-139.8402245">
  <ele>1109.05</ele>
  <time>2026-09-01T20:02:06Z</time>
  <course>5.9</course>
  <speed>0.01</speed>
  <fix>3d</fix>
</trkpt>
<trkpt lat="64.1624777" lon="-139.8402246">
  <ele>1109.09</ele>
  <time>2026-09-01T20:02:06Z</time>
  <course>180.78</course>
  <speed>0.0</speed>
  <fix>3d</fix>
</trkpt>
<trkpt lat="64.1624777" lon="-139.8402245">
  <ele>1109.04</ele>
  <time>2026-09-01T20:02:06Z</time>
  <course>5.9</course>
  <speed>0.01</speed>
  <fix>3d</fix>
</trkpt>
<trkpt lat="64.1624777" lon="-139.8402246">
  <ele>1109.09</ele>
  <time>2026-09-01T20:02:06Z</time>
  <course>180.78</course>
  <speed>0.0</speed>
  <fix>3d</fix>
</trkpt>
<trkpt lat="64.1624777" lon="-139.8402245">
  <ele>1109.04</ele>
  <time>2026-09-01T20:02:06Z</time>
  <course>5.9</course>
  <speed>0.01</speed>
  <fix>3d</fix>
</trkpt>
<trkpt lat="64.1624777" lon="-139.8402246">
  <ele>1109.09</ele>
  <time>2026-09-01T20:02:06Z</time>
  <course>180.78</course>
  <speed>0.0</speed>
  <fix>3d</fix>
</trkpt>
<trkpt lat="64.1624777" lon="-139.8402245">
  <ele>1109.03</ele>
  <time>2026-09-01T20:02:06Z</time>
  <course>5.9</course>
  <speed>0.01</speed>
  <fix>3d</fix>
</trkpt>
<trkpt lat="64.1624777" lon="-139.8402246">
  <ele>1109.09</ele>
  <time>2026-09-01T20:02:06Z</time>
  <course>180.78</course>
  <speed>0.0</speed>
  <fix>3d</fix>
</trkpt>
<trkpt lat="64.1624777" lon="-139.8402245">
  <ele>1109.03</ele>
  <time>2026-09-01T20:02:06Z</time>
  <course>5.91</course>
  <speed>0.01</speed>
  <fix>3d</fix>
</trkpt>
<trkpt lat="64.1624777" lon="-139.8402246">
  <ele>1109.09</ele>
  <time>2026-09-01T20:02:06Z</time>
  <course>180.78</course>
  <speed>0.0</speed>
  <fix>3d</fix>
</trkpt>
<trkpt lat="64.1624777" lon="-139.8402245">
  <ele>1109.02</ele>
  <time>2026-09-01T20:02:06Z</time>
  <course>5.91</course>
  <speed>0.01</speed>
  <fix>3d</fix>
</trkpt>
<trkpt lat="64.1624777" lon="-139.8402246">
  <ele>1109.09</ele>
  <time>2026-09-01T20:02:06Z</time>
  <course>180.78</course>
  <speed>0.0</speed>
  <fix>3d</fix>
</trkpt>
<trkpt lat="64.1624777" lon="-139.8402245">
  <ele>1109.02</ele>
  <time>2026-09-01T20:02:06Z</time>
  <course>5.91</course>
  <speed>0.01</speed>
  <fix>3d</fix>
</trkpt>
<trkpt lat="64.1624777" lon="-139.8402246">
  <ele>1109.09</ele>
  <time>2026-09-01T20:02:06Z</time>
  <course>180.78</course>
  <speed>0.0</speed>
  <fix>3d</fix>
</trkpt>
<trkpt lat="64.1624777" lon="-139.8402245">
  <ele>1109.01</ele>
  <time>2026-09-01T20:02:06Z</time>
  <course>5.91</course>
  <speed>0.01</speed>
  <fix>3d</fix>
</trkpt>
<trkpt lat="64.1624777" lon="-139.8402246">
  <ele>1109.09</ele>
  <time>2026-09-01T20:02:06Z</time>
  <course>180.78</course>
  <speed>0.0</speed>
  <fix>3d</fix>
</trkpt>
<trkpt lat="64.1624777" lon="-139.8402245">
  <ele>1109.01</ele>
  <time>2026-09-01T20:02:06Z</time>
  <course>5.91</course>
  <speed>0.01</speed>
  <fix>3d</fix>
</trkpt>
<trkpt lat="64.1624777" lon="-139.8402246">
  <ele>1109.09</ele>
  <time>2026-09-01T20:02:06Z</time>
  <course>180.78</course>
  <speed>0.0</speed>
  <fix>3d</fix>
</trkpt>
<trkpt lat="64.1624777" lon="-139.8402245">
  <ele>1109.01</ele>
  <time>2026-09-01T20:02:06Z</time>
  <course>5.91</course>
  <speed>0.01</speed>
  <fix>3d</fix>
</trkpt>
<trkpt lat="64.1624777" lon="-139.8402246">
  <ele>1109.09</ele>
  <time>2026-09-01T20:02:06Z</time>
  <course>180.78</course>
  <speed>0.0</speed>
  <fix>3d</fix>
</trkpt>
<trkpt lat="64.1624777" lon="-139.8402245">
  <ele>1109.01</ele>
  <time>2026-09-01T20:02:06Z</time>
  <course>5.91</course>
  <speed>0.01</speed>
  <fix>3d</fix>
</trkpt>
<trkpt lat="64.1624777" lon="-139.8402246">
  <ele>1109.09</ele>
  <time>2026-09-01T20:02:06Z</time>
  <course>180.78</course>
  <speed>0.0</speed>
  <fix>3d</fix>
</trkpt>
<trkpt lat="64.1624777" lon="-139.8402245">
  <ele>1109.01</ele>
  <time>2026-09-01T20:02:06Z</time>
  <course>5.92</course>
  <speed>0.01</speed>
  <fix>3d</fix>
</trkpt>
<trkpt lat="64.1624777" lon="-139.8402246">
  <ele>1109.09</ele>
  <time>2026-09-01T20:02:06Z</time>
  <course>180.78</course>
  <speed>0.0</speed>
  <fix>3d</fix>
</trkpt>
<trkpt lat="64.1624777" lon="-139.8402245">
  <ele>1109.01</ele>
  <time>2026-09-01T20:02:06Z</time>
  <course>5.92</course>
  <speed>0.01</speed>
  <fix>3d</fix>
</trkpt>
<trkpt lat="64.1624777" lon="-139.8402246">
  <ele>1109.09</ele>
  <time>2026-09-01T20:02:06Z</time>
  <course>180.78</course>
  <speed>0.0</speed>
  <fix>3d</fix>
</trkpt>
<trkpt lat="64.1624777" lon="-139.8402245">
  <ele>1109.0</ele>
  <time>2026-09-01T20:02:06Z</time>
  <course>5.92</course>
  <speed>0.01</speed>
  <fix>3d</fix>
</trkpt>
<trkpt lat="64.1624777" lon="-139.8402246">
  <ele>1109.09</ele>
  <time>2026-09-01T20:02:06Z</time>
  <course>180.78</course>
  <speed>0.0</speed>
  <fix>3d</fix>
</trkpt>
<trkpt lat="64.1624777" lon="-139.8402245">
  <ele>1109.0</ele>
  <time>2026-09-01T20:02:06Z</time>
  <course>5.92</course>
  <speed>0.01</speed>
  <fix>3d</fix>
</trkpt>
<trkpt lat="64.1624777" lon="-139.8402246">
  <ele>1109.09</ele>
  <time>2026-09-01T20:02:06Z</time>
  <course>180.78</course>
  <speed>0.0</speed>
  <fix>3d</fix>
</trkpt>
<trkpt lat="64.1624777" lon="-139.8402245">
  <ele>1109.0</ele>
  <time>2026-09-01T20:02:06Z</time>
  <course>5.92</course>
  <speed>0.01</speed>
  <fix>3d</fix>
</trkpt>
<trkpt lat="64.1624777" lon="-139.8402246">
  <ele>1109.09</ele>
  <time>2026-09-01T20:02:06Z</time>
  <course>180.78</course>
  <speed>0.0</speed>
  <fix>3d</fix>
</trkpt>
<trkpt lat="64.1624777" lon="-139.8402245">
  <ele>1109.0</ele>
  <time>2026-09-01T20:02:06Z</time>
  <course>5.92</course>
  <speed>0.01</speed>
  <fix>3d</fix>
</trkpt>
<trkpt lat="64.1624777" lon="-139.8402246">
  <ele>1109.09</ele>
  <time>2026-09-01T20:02:06Z</time>
  <course>180.78</course>
  <speed>0.0</speed>
  <fix>3d</fix>
</trkpt>
<trkpt lat="64.1624777" lon="-139.8402245">
  <ele>1109.0</ele>
  <time>2026-09-01T20:02:06Z</time>
  <course>5.93</course>
  <speed>0.01</speed>
  <fix>3d</fix>
</trkpt>
<trkpt lat="64.1624777" lon="-139.8402246">
  <ele>1109.09</ele>
  <time>2026-09-01T20:02:06Z</time>
  <course>180.78</course>
  <speed>0.0</speed>
  <fix>3d</fix>
</trkpt>
<trkpt lat="64.1624777" lon="-139.8402245">
  <ele>1109.0</ele>
  <time>2026-09-01T20:02:06Z</time>
  <course>5.93</course>
  <speed>0.01</speed>
  <fix>3d</fix>
</trkpt>
<trkpt lat="64.1624777" lon="-139.8402246">
  <ele>1109.09</ele>
  <time>2026-09-01T20:02:06Z</time>
  <course>180.78</course>
  <speed>0.0</speed>
  <fix>3d</fix>
</trkpt>
<trkpt lat="64.1624777" lon="-139.8402245">
  <ele>1108.99</ele>
  <time>2026-09-01T20:02:06Z</time>
  <course>5.93</course>
  <speed>0.01</speed>
  <fix>3d</fix>
</trkpt>
<trkpt lat="64.1624777" lon="-139.8402246">
  <ele>1109.09</ele>
  <time>2026-09-01T20:02:06Z</time>
  <course>180.78</course>
  <speed>0.0</speed>
  <fix>3d</fix>
</trkpt>
<trkpt lat="64.1624777" lon="-139.8402245">
  <ele>1108.99</ele>
  <time>2026-09-01T20:02:06Z</time>
  <course>5.93</course>
  <speed>0.01</speed>
  <fix>3d</fix>
</trkpt>
<trkpt lat="64.1624777" lon="-139.8402246">
  <ele>1109.09</ele>
  <time>2026-09-01T20:02:06Z</time>
  <course>180.78</course>
  <speed>0.0</speed>
  <fix>3d</fix>
</trkpt>
<trkpt lat="64.1624777" lon="-139.8402245">
  <ele>1108.99</ele>
  <time>2026-09-01T20:02:06Z</time>
  <course>5.93</course>
  <speed>0.01</speed>
  <fix>3d</fix>
</trkpt>
<trkpt lat="64.1624777" lon="-139.8402246">
  <ele>1109.09</ele>
  <time>2026-09-01T20:02:06Z</time>
  <course>180.78</course>
  <speed>0.0</speed>
  <fix>3d</fix>
</trkpt>
<trkpt lat="64.1624777" lon="-139.8402245">
  <ele>1108.98</ele>
  <time>2026-09-01T20:02:06Z</time>
  <course>5.93</course>
  <speed>0.01</speed>
  <fix>3d</fix>
</trkpt>
<trkpt lat="64.1624777" lon="-139.8402246">
  <ele>1109.09</ele>
  <time>2026-09-01T20:02:06Z</time>
  <course>180.78</course>
  <speed>0.0</speed>
  <fix>3d</fix>
</trkpt>
<trkpt lat="64.1624777" lon="-139.8402245">
  <ele>1108.98</ele>
  <time>2026-09-01T20:02:06Z</time>
  <course>5.93</course>
  <speed>0.01</speed>
  <fix>3d</fix>
</trkpt>
<trkpt lat="64.1624777" lon="-139.8402246">
  <ele>1109.09</ele>
  <time>2026-09-01T20:02:06Z</time>
  <course>180.78</course>
  <speed>0.0</speed>
  <fix>3d</fix>
</trkpt>
<trkpt lat="64.1624777" lon="-139.8402245">
  <ele>1108.97</ele>
  <time>2026-09-01T20:02:06Z</time>
  <course>5.94</course>
  <speed>0.01</speed>
  <fix>3d</fix>
</trkpt>
<trkpt lat="64.1624777" lon="-139.8402246">
  <ele>1109.09</ele>
  <time>2026-09-01T20:02:06Z</time>
  <course>180.78</course>
  <speed>0.0</speed>
  <fix>3d</fix>
</trkpt>
<trkpt lat="64.1624777" lon="-139.8402245">
  <ele>1108.97</ele>
  <time>2026-09-01T20:02:06Z</time>
  <course>5.94</course>
  <speed>0.01</speed>
  <fix>3d</fix>
</trkpt>
<trkpt lat="64.1624777" lon="-139.8402246">
  <ele>1109.09</ele>
  <time>2026-09-01T20:02:06Z</time>
  <course>180.78</course>
  <speed>0.0</speed>
  <fix>3d</fix>
</trkpt>
<trkpt lat="64.1624777" lon="-139.8402245">
  <ele>1108.96</ele>
  <time>2026-09-01T20:02:06Z</time>
  <course>5.94</course>
  <speed>0.01</speed>
  <fix>3d</fix>
</trkpt>
<trkpt lat="64.1624777" lon="-139.8402246">
  <ele>1109.09</ele>
  <time>2026-09-01T20:02:06Z</time>
  <course>180.78</course>
  <speed>0.0</speed>
  <fix>3d</fix>
</trkpt>
<trkpt lat="64.1624777" lon="-139.8402245">
  <ele>1108.96</ele>
  <time>2026-09-01T20:02:06Z</time>
  <course>5.94</course>
  <speed>0.01</speed>
  <fix>3d</fix>
</trkpt>
<trkpt lat="64.1624777" lon="-139.8402246">
  <ele>1109.09</ele>
  <time>2026-09-01T20:02:06Z</time>
  <course>180.78</course>
  <speed>0.0</speed>
  <fix>3d</fix>
</trkpt>
<trkpt lat="64.1624777" lon="-139.8402245">
  <ele>1108.96</ele>
  <time>2026-09-01T20:02:06Z</time>
  <course>5.94</course>
  <speed>0.01414213562373095</speed>
  <fix>3d</fix>
</trkpt>
<trkpt lat="64.1624777" lon="-139.8402246">
  <ele>1109.09</ele>
  <time>2026-09-01T20:02:06Z</time>
  <course>180.78</course>
  <speed>0.0</speed>
  <fix>3d</fix>
</trkpt>
<trkpt lat="64.1624777" lon="-139.8402245">
  <ele>1108.95</ele>
  <time>2026-09-01T20:02:06Z</time>
  <course>5.94</course>
  <speed>0.01414213562373095</speed>
  <fix>3d</fix>
</trkpt>
<trkpt lat="64.1624777" lon="-139.8402246">
  <ele>1109.09</ele>
  <time>2026-09-01T20:02:06Z</time>
  <course>180.78</course>
  <speed>0.0</speed>
  <fix>3d</fix>
</trkpt>
<trkpt lat="64.1624777" lon="-139.8402245">
  <ele>1108.95</ele>
  <time>2026-09-01T20:02:06Z</time>
  <course>5.94</course>
  <speed>0.01414213562373095</speed>
  <fix>3d</fix>
</trkpt>
<trkpt lat="64.1624777" lon="-139.8402246">
  <ele>1109.09</ele>
  <time>2026-09-01T20:02:06Z</time>
  <course>180.78</course>
  <speed>0.0</speed>
  <fix>3d</fix>
</trkpt>
<trkpt lat="64.1624777" lon="-139.8402245">
  <ele>1108.95</ele>
  <time>2026-09-01T20:02:06Z</time>
  <course>5.95</course>
  <speed>0.01414213562373095</speed>
  <fix>3d</fix>
</trkpt>
<trkpt lat="64.1624777" lon="-139.8402246">
  <ele>1109.09</ele>
  <time>2026-09-01T20:02:06Z</time>
  <course>180.78</course>
  <speed>0.0</speed>
  <fix>3d</fix>
</trkpt>
<trkpt lat="64.1624777" lon="-139.8402245">
  <ele>1108.95</ele>
  <time>2026-09-01T20:02:06Z</time>
  <course>5.95</course>
  <speed>0.01414213562373095</speed>
  <fix>3d</fix>
</trkpt>
<trkpt lat="64.1624777" lon="-139.8402246">
  <ele>1109.09</ele>
  <time>2026-09-01T20:02:06Z</time>
  <course>180.78</course>
  <speed>0.0</speed>
  <fix>3d</fix>
</trkpt>
<trkpt lat="64.1624777" lon="-139.8402245">
  <ele>1108.94</ele>
  <time>2026-09-01T20:02:06Z</time>
  <course>5.95</course>
  <speed>0.01414213562373095</speed>
  <fix>3d</fix>
</trkpt>
<trkpt lat="64.1624777" lon="-139.8402246">
  <ele>1109.09</ele>
  <time>2026-09-01T20:02:06Z</time>
  <course>180.78</course>
  <speed>0.0</speed>
  <fix>3d</fix>
</trkpt>
<trkpt lat="64.1624777" lon="-139.8402245">
  <ele>1108.94</ele>
  <time>2026-09-01T20:02:06Z</time>
  <course>5.95</course>
  <speed>0.01414213562373095</speed>
  <fix>3d</fix>
</trkpt>
<trkpt lat="64.1624777" lon="-139.8402246">
  <ele>1109.09</ele>
  <time>2026-09-01T20:02:06Z</time>
  <course>180.78</course>
  <speed>0.0</speed>
  <fix>3d</fix>
</trkpt>
<trkpt lat="64.1624777" lon="-139.8402245">
  <ele>1108.94</ele>
  <time>2026-09-01T20:02:06Z</time>
  <course>5.95</course>
  <speed>0.01414213562373095</speed>
  <fix>3d</fix>
</trkpt>
<trkpt lat="64.1624777" lon="-139.8402246">
  <ele>1109.09</ele>
  <time>2026-09-01T20:02:06Z</time>
  <course>180.78</course>
  <speed>0.0</speed>
  <fix>3d</fix>
</trkpt>
<trkpt lat="64.1624777" lon="-139.8402245">
  <ele>1108.94</ele>
  <time>2026-09-01T20:02:06Z</time>
  <course>5.95</course>
  <speed>0.01414213562373095</speed>
  <fix>3d</fix>
</trkpt>
<trkpt lat="64.1624777" lon="-139.8402246">
  <ele>1109.09</ele>
  <time>2026-09-01T20:02:06Z</time>
  <course>180.78</course>
  <speed>0.0</speed>
  <fix>3d</fix>
</trkpt>
<trkpt lat="64.1624777" lon="-139.8402245">
  <ele>1108.94</ele>
  <time>2026-09-01T20:02:06Z</time>
  <course>5.95</course>
  <speed>0.01414213562373095</speed>
  <fix>3d</fix>
</trkpt>
<trkpt lat="64.1624777" lon="-139.8402246">
  <ele>1109.09</ele>
  <time>2026-09-01T20:02:06Z</time>
  <course>180.78</course>
  <speed>0.0</speed>
  <fix>3d</fix>
</trkpt>
<trkpt lat="64.1624777" lon="-139.8402245">
  <ele>1108.94</ele>
  <time>2026-09-01T20:02:06Z</time>
  <course>5.96</course>
  <speed>0.01414213562373095</speed>
  <fix>3d</fix>
</trkpt>
<trkpt lat="64.1624777" lon="-139.8402246">
  <ele>1109.09</ele>
  <time>2026-09-01T20:02:06Z</time>
  <course>180.78</course>
  <speed>0.0</speed>
  <fix>3d</fix>
</trkpt>
<trkpt lat="64.1624777" lon="-139.8402245">
  <ele>1108.94</ele>
  <time>2026-09-01T20:02:06Z</time>
  <course>5.96</course>
  <speed>0.01414213562373095</speed>
  <fix>3d</fix>
</trkpt>
<trkpt lat="64.1624777" lon="-139.8402246">
  <ele>1109.09</ele>
  <time>2026-09-01T20:02:06Z</time>
  <course>180.78</course>
  <speed>0.0</speed>
  <fix>3d</fix>
</trkpt>
<trkpt lat="64.1624777" lon="-139.8402245">
  <ele>1108.94</ele>
  <time>2026-09-01T20:02:06Z</time>
  <course>5.96</course>
  <speed>0.01414213562373095</speed>
  <fix>3d</fix>
</trkpt>
<trkpt lat="64.1624777" lon="-139.8402246">
  <ele>1109.09</ele>
  <time>2026-09-01T20:02:06Z</time>
  <course>180.78</course>
  <speed>0.0</speed>
  <fix>3d</fix>
</trkpt>
<trkpt lat="64.1624777" lon="-139.8402245">
  <ele>1108.94</ele>
  <time>2026-09-01T20:02:06Z</time>
  <course>5.96</course>
  <speed>0.01414213562373095</speed>
  <fix>3d</fix>
</trkpt>
<trkpt lat="64.1624777" lon="-139.8402246">
  <ele>1109.09</ele>
  <time>2026-09-01T20:02:06Z</time>
  <course>180.78</course>
  <speed>0.0</speed>
  <fix>3d</fix>
</trkpt>
<trkpt lat="64.1624777" lon="-139.8402245">
  <ele>1108.94</ele>
  <time>2026-09-01T20:02:06Z</time>
  <course>5.96</course>
  <speed>0.01414213562373095</speed>
  <fix>3d</fix>
</trkpt>
<trkpt lat="64.1624777" lon="-139.8402246">
  <ele>1109.09</ele>
  <time>2026-09-01T20:02:06Z</time>
  <course>180.78</course>
  <speed>0.0</speed>
  <fix>3d</fix>
</trkpt>
<trkpt lat="64.1624777" lon="-139.8402245">
  <ele>1108.94</ele>
  <time>2026-09-01T20:02:06Z</time>
  <course>5.96</course>
  <speed>0.01414213562373095</speed>
  <fix>3d</fix>
</trkpt>
<trkpt lat="64.1624777" lon="-139.8402246">
  <ele>1109.09</ele>
  <time>2026-09-01T20:02:06Z</time>
  <course>180.78</course>
  <speed>0.0</speed>
  <fix>3d</fix>
</trkpt>
<trkpt lat="64.1624777" lon="-139.8402245">
  <ele>1108.94</ele>
  <time>2026-09-01T20:02:06Z</time>
  <course>5.96</course>
  <speed>0.01414213562373095</speed>
  <fix>3d</fix>
</trkpt>
<trkpt lat="64.1624777" lon="-139.8402246">
  <ele>1109.09</ele>
  <time>2026-09-01T20:02:06Z</time>
  <course>180.78</course>
  <speed>0.0</speed>
  <fix>3d</fix>
</trkpt>
<trkpt lat="64.1624777" lon="-139.8402245">
  <ele>1108.94</ele>
  <time>2026-09-01T20:02:06Z</time>
  <course>5.97</course>
  <speed>0.01414213562373095</speed>
  <fix>3d</fix>
</trkpt>
<trkpt lat="64.1624777" lon="-139.8402246">
  <ele>1109.09</ele>
  <time>2026-09-01T20:02:06Z</time>
  <course>180.78</course>
  <speed>0.0</speed>
  <fix>3d</fix>
</trkpt>
<trkpt lat="64.1624777" lon="-139.8402245">
  <ele>1108.94</ele>
  <time>2026-09-01T20:02:06Z</time>
  <course>5.97</course>
  <speed>0.01414213562373095</speed>
  <fix>3d</fix>
</trkpt>
<trkpt lat="64.1624777" lon="-139.8402246">
  <ele>1109.09</ele>
  <time>2026-09-01T20:02:06Z</time>
  <course>180.78</course>
  <speed>0.0</speed>
  <fix>3d</fix>
</trkpt>
<trkpt lat="64.1624777" lon="-139.8402245">
  <ele>1108.94</ele>
  <time>2026-09-01T20:02:06Z</time>
  <course>5.97</course>
  <speed>0.01414213562373095</speed>
  <fix>3d</fix>
</trkpt>
<trkpt lat="64.1624777" lon="-139.8402246">
  <ele>1109.09</ele>
  <time>2026-09-01T20:02:06Z</time>
  <course>180.78</course>
  <speed>0.0</speed>
  <fix>3d</fix>
</trkpt>
<trkpt lat="64.1624777" lon="-139.8402245">
  <ele>1108.93</ele>
  <time>2026-09-01T20:02:06Z</time>
  <course>5.97</course>
  <speed>0.01414213562373095</speed>
  <fix>3d</fix>
</trkpt>
<trkpt lat="64.1624777" lon="-139.8402246">
  <ele>1109.09</ele>
  <time>2026-09-01T20:02:06Z</time>
  <course>180.78</course>
  <speed>0.0</speed>
  <fix>3d</fix>
</trkpt>
<trkpt lat="64.1624777" lon="-139.8402245">
  <ele>1109.09</ele>
  <time>2026-09-01T20:02:06Z</time>
  <course>5.97</course>
  <speed>0.01414213562373095</speed>
  <fix>3d</fix>
</trkpt>
<trkpt lat="64.1624777" lon="-139.8402246">
  <ele>1109.09</ele>
  <time>2026-09-01T20:02:06Z</time>
  <course>180.78</course>
  <speed>0.0</speed>
  <fix>3d</fix>
</trkpt>
<trkpt lat="64.1624777" lon="-139.8402245">
  <ele>1109.08</ele>
  <time>2026-09-01T20:02:06Z</time>
  <course>5.97</course>
  <speed>0.01414213562373095</speed>
  <fix>3d</fix>
</trkpt>
<trkpt lat="64.1624777" lon="-139.8402246">
  <ele>1109.09</ele>
  <time>2026-09-01T20:02:06Z</time>
  <course>180.78</course>
  <speed>0.0</speed>
  <fix>3d</fix>
</trkpt>
<trkpt lat="64.1624777" lon="-139.8402245">
  <ele>1109.08</ele>
  <time>2026-09-01T20:02:06Z</time>
  <course>5.97</course>
  <speed>0.01414213562373095</speed>
  <fix>3d</fix>
</trkpt>
<trkpt lat="64.1624777" lon="-139.8402246">
  <ele>1109.09</ele>
  <time>2026-09-01T20:02:06Z</time>
  <course>180.78</course>
  <speed>0.0</speed>
  <fix>3d</fix>
</trkpt>
<trkpt lat="64.1624776" lon="-139.8402244">
  <ele>1109.08</ele>
  <time>2026-09-01T20:02:06Z</time>
  <course>5.98</course>
  <speed>0.01414213562373095</speed>
  <fix>3d</fix>
</trkpt>
<trkpt lat="64.1624777" lon="-139.8402246">
  <ele>1109.09</ele>
  <time>2026-09-01T20:02:06Z</time>
  <course>180.78</course>
  <speed>0.0</speed>
  <fix>3d</fix>
</trkpt>
<trkpt lat="64.1624777" lon="-139.8402245">
  <ele>1109.08</ele>
  <time>2026-09-01T20:02:06Z</time>
  <course>5.98</course>
  <speed>0.01414213562373095</speed>
  <fix>3d</fix>
</trkpt>
<trkpt lat="64.1624777" lon="-139.8402246">
  <ele>1109.09</ele>
  <time>2026-09-01T20:02:06Z</time>
  <course>180.78</course>
  <speed>0.0</speed>
  <fix>3d</fix>
</trkpt>
<trkpt lat="64.1624776" lon="-139.8402244">
  <ele>1109.08</ele>
  <time>2026-09-01T20:02:06Z</time>
  <course>5.98</course>
  <speed>0.01414213562373095</speed>
  <fix>3d</fix>
</trkpt>
<trkpt lat="64.1624777" lon="-139.8402246">
  <ele>1109.09</ele>
  <time>2026-09-01T20:02:06Z</time>
  <course>180.78</course>
  <speed>0.0</speed>
  <fix>3d</fix>
</trkpt>
<trkpt lat="64.1624776" lon="-139.8402245">
  <ele>1109.08</ele>
  <time>2026-09-01T20:02:06Z</time>
  <course>5.98</course>
  <speed>0.01414213562373095</speed>
  <fix>3d</fix>
</trkpt>
<trkpt lat="64.1624777" lon="-139.8402246">
  <ele>1109.09</ele>
  <time>2026-09-01T20:02:06Z</time>
  <course>180.78</course>
  <speed>0.0</speed>
  <fix>3d</fix>
</trkpt>
<trkpt lat="64.1624776" lon="-139.8402244">
  <ele>1109.08</ele>
  <time>2026-09-01T20:02:06Z</time>
  <course>5.98</course>
  <speed>0.01414213562373095</speed>
  <fix>3d</fix>
</trkpt>
<trkpt lat="64.1624777" lon="-139.8402246">
  <ele>1109.09</ele>
  <time>2026-09-01T20:02:06Z</time>
  <course>180.78</course>
  <speed>0.0</speed>
  <fix>3d</fix>
</trkpt>
<trkpt lat="64.1624776" lon="-139.8402244">
  <ele>1109.08</ele>
  <time>2026-09-01T20:02:06Z</time>
  <course>5.98</course>
  <speed>0.01414213562373095</speed>
  <fix>3d</fix>
</trkpt>
<trkpt lat="64.1624777" lon="-139.8402246">
  <ele>1109.09</ele>
  <time>2026-09-01T20:02:06Z</time>
  <course>180.78</course>
  <speed>0.0</speed>
  <fix>3d</fix>
</trkpt>
<trkpt lat="64.1624776" lon="-139.8402244">
  <ele>1109.08</ele>
  <time>2026-09-01T20:02:06Z</time>
  <course>5.99</course>
  <speed>0.01414213562373095</speed>
  <fix>3d</fix>
</trkpt>
<trkpt lat="64.1624777" lon="-139.8402246">
  <ele>1109.09</ele>
  <time>2026-09-01T20:02:06Z</time>
  <course>180.78</course>
  <speed>0.0</speed>
  <fix>3d</fix>
</trkpt>
<trkpt lat="64.1624776" lon="-139.8402244">
  <ele>1109.07</ele>
  <time>2026-09-01T20:02:06Z</time>
  <course>5.99</course>
  <speed>0.01414213562373095</speed>
  <fix>3d</fix>
</trkpt>
<trkpt lat="64.1624777" lon="-139.8402246">
  <ele>1109.09</ele>
  <time>2026-09-01T20:02:06Z</time>
  <course>180.78</course>
  <speed>0.0</speed>
  <fix>3d</fix>
</trkpt>
<trkpt lat="64.1624776" lon="-139.8402244">
  <ele>1109.07</ele>
  <time>2026-09-01T20:02:06Z</time>
  <course>5.99</course>
  <speed>0.01414213562373095</speed>
  <fix>3d</fix>
</trkpt>
<trkpt lat="64.1624777" lon="-139.8402246">
  <ele>1109.09</ele>
  <time>2026-09-01T20:02:06Z</time>
  <course>180.78</course>
  <speed>0.0</speed>
  <fix>3d</fix>
</trkpt>
<trkpt lat="64.1624776" lon="-139.8402244">
  <ele>1109.07</ele>
  <time>2026-09-01T20:02:06Z</time>
  <course>5.99</course>
  <speed>0.01414213562373095</speed>
  <fix>3d</fix>
</trkpt>
<trkpt lat="64.1624777" lon="-139.8402246">
  <ele>1109.09</ele>
  <time>2026-09-01T20:02:06Z</time>
  <course>180.78</course>
  <speed>0.0</speed>
  <fix>3d</fix>
</trkpt>
<trkpt lat="64.1624776" lon="-139.8402244">
  <ele>1109.07</ele>
  <time>2026-09-01T20:02:06Z</time>
  <course>5.99</course>
  <speed>0.01414213562373095</speed>
  <fix>3d</fix>
</trkpt>
<trkpt lat="64.1624777" lon="-139.8402246">
  <ele>1109.09</ele>
  <time>2026-09-01T20:02:06Z</time>
  <course>180.78</course>
  <speed>0.0</speed>
  <fix>3d</fix>
</trkpt>
<trkpt lat="64.1624776" lon="-139.8402244">
  <ele>1109.06</ele>
  <time>2026-09-01T20:02:06Z</time>
  <course>5.99</course>
  <speed>0.01414213562373095</speed>
  <fix>3d</fix>
</trkpt>
<trkpt lat="64.1624777" lon="-139.8402246">
  <ele>1109.09</ele>
  <time>2026-09-01T20:02:06Z</time>
  <course>180.78</course>
  <speed>0.0</speed>
  <fix>3d</fix>
</trkpt>
<trkpt lat="64.1624776" lon="-139.8402244">
  <ele>1109.06</ele>
  <time>2026-09-01T20:02:06Z</time>
  <course>5.99</course>
  <speed>0.01414213562373095</speed>
  <fix>3d</fix>
</trkpt>
<trkpt lat="64.1624777" lon="-139.8402246">
  <ele>1109.09</ele>
  <time>2026-09-01T20:02:06Z</time>
  <course>180.78</course>
  <speed>0.0</speed>
  <fix>3d</fix>
</trkpt>
<trkpt lat="64.1624776" lon="-139.8402244">
  <ele>1109.06</ele>
  <time>2026-09-01T20:02:06Z</time>
  <course>6.0</course>
  <speed>0.01414213562373095</speed>
  <fix>3d</fix>
</trkpt>
<trkpt lat="64.1624777" lon="-139.8402246">
  <ele>1109.09</ele>
  <time>2026-09-01T20:02:06Z</time>
  <course>180.78</course>
  <speed>0.0</speed>
  <fix>3d</fix>
</trkpt>
<trkpt lat="64.1624776" lon="-139.8402244">
  <ele>1109.06</ele>
  <time>2026-09-01T20:02:06Z</time>
  <course>6.0</course>
  <speed>0.01414213562373095</speed>
  <fix>3d</fix>
</trkpt>
<trkpt lat="64.1624777" lon="-139.8402246">
  <ele>1109.09</ele>
  <time>2026-09-01T20:02:06Z</time>
  <course>180.78</course>
  <speed>0.0</speed>
  <fix>3d</fix>
</trkpt>
<trkpt lat="64.1624776" lon="-139.8402244">
  <ele>1109.06</ele>
  <time>2026-09-01T20:02:06Z</time>
  <course>6.0</course>
  <speed>0.01414213562373095</speed>
  <fix>3d</fix>
</trkpt>
<trkpt lat="64.1624777" lon="-139.8402246">
  <ele>1109.09</ele>
  <time>2026-09-01T20:02:06Z</time>
  <course>180.78</course>
  <speed>0.0</speed>
  <fix>3d</fix>
</trkpt>
<trkpt lat="64.1624776" lon="-139.8402244">
  <ele>1109.06</ele>
  <time>2026-09-01T20:02:06Z</time>
  <course>6.0</course>
  <speed>0.01414213562373095</speed>
  <fix>3d</fix>
</trkpt>
<trkpt lat="64.1624777" lon="-139.8402246">
  <ele>1109.09</ele>
  <time>2026-09-01T20:02:06Z</time>
  <course>180.78</course>
  <speed>0.0</speed>
  <fix>3d</fix>
</trkpt>
<trkpt lat="64.1624776" lon="-139.8402244">
  <ele>1109.06</ele>
  <time>2026-09-01T20:02:06Z</time>
  <course>6.0</course>
  <speed>0.01414213562373095</speed>
  <fix>3d</fix>
</trkpt>
<trkpt lat="64.1624777" lon="-139.8402246">
  <ele>1109.09</ele>
  <time>2026-09-01T20:02:06Z</time>
  <course>180.78</course>
  <speed>0.0</speed>
  <fix>3d</fix>
</trkpt>
<trkpt lat="64.1624776" lon="-139.8402244">
  <ele>1109.06</ele>
  <time>2026-09-01T20:02:06Z</time>
  <course>6.0</course>
  <speed>0.01414213562373095</speed>
  <fix>3d</fix>
</trkpt>
<trkpt lat="64.1624777" lon="-139.8402246">
  <ele>1109.09</ele>
  <time>2026-09-01T20:02:06Z</time>
  <course>180.78</course>
  <speed>0.0</speed>
  <fix>3d</fix>
</trkpt>
<trkpt lat="64.1624776" lon="-139.8402244">
  <ele>1109.06</ele>
  <time>2026-09-01T20:02:06Z</time>
  <course>6.01</course>
  <speed>0.01414213562373095</speed>
  <fix>3d</fix>
</trkpt>
<trkpt lat="64.1624777" lon="-139.8402246">
  <ele>1109.09</ele>
  <time>2026-09-01T20:02:06Z</time>
  <course>180.78</course>
  <speed>0.0</speed>
  <fix>3d</fix>
</trkpt>
<trkpt lat="64.1624776" lon="-139.8402244">
  <ele>1109.06</ele>
  <time>2026-09-01T20:02:06Z</time>
  <course>6.01</course>
  <speed>0.01414213562373095</speed>
  <fix>3d</fix>
</trkpt>
<trkpt lat="64.1624777" lon="-139.8402246">
  <ele>1109.09</ele>
  <time>2026-09-01T20:02:06Z</time>
  <course>180.78</course>
  <speed>0.0</speed>
  <fix>3d</fix>
</trkpt>
<trkpt lat="64.1624776" lon="-139.8402244">
  <ele>1109.05</ele>
  <time>2026-09-01T20:02:06Z</time>
  <course>6.01</course>
  <speed>0.01414213562373095</speed>
  <fix>3d</fix>
</trkpt>
<trkpt lat="64.1624777" lon="-139.8402246">
  <ele>1109.09</ele>
  <time>2026-09-01T20:02:06Z</time>
  <course>180.78</course>
  <speed>0.0</speed>
  <fix>3d</fix>
</trkpt>
<trkpt lat="64.1624776" lon="-139.8402244">
  <ele>1109.05</ele>
  <time>2026-09-01T20:02:06Z</time>
  <course>6.01</course>
  <speed>0.01414213562373095</speed>
  <fix>3d</fix>
</trkpt>
<trkpt lat="64.1624777" lon="-139.8402246">
  <ele>1109.09</ele>
  <time>2026-09-01T20:02:06Z</time>
  <course>180.78</course>
  <speed>0.0</speed>
  <fix>3d</fix>
</trkpt>
<trkpt lat="64.1624776" lon="-139.8402244">
  <ele>1109.05</ele>
  <time>2026-09-01T20:02:06Z</time>
  <course>6.01</course>
  <speed>0.01414213562373095</speed>
  <fix>3d</fix>
</trkpt>
<trkpt lat="64.1624777" lon="-139.8402246">
  <ele>1109.09</ele>
  <time>2026-09-01T20:02:06Z</time>
  <course>180.78</course>
  <speed>0.0</speed>
  <fix>3d</fix>
</trkpt>
<trkpt lat="64.1624776" lon="-139.8402244">
  <ele>1109.05</ele>
  <time>2026-09-01T20:02:06Z</time>
  <course>6.01</course>
  <speed>0.01414213562373095</speed>
  <fix>3d</fix>
</trkpt>
<trkpt lat="64.1624777" lon="-139.8402246">
  <ele>1109.09</ele>
  <time>2026-09-01T20:02:06Z</time>
  <course>180.78</course>
  <speed>0.0</speed>
  <fix>3d</fix>
</trkpt>
<trkpt lat="64.1624776" lon="-139.8402244">
  <ele>1109.05</ele>
  <time>2026-09-01T20:02:06Z</time>
  <course>6.01</course>
  <speed>0.01414213562373095</speed>
  <fix>3d</fix>
</trkpt>
<trkpt lat="64.1624777" lon="-139.8402246">
  <ele>1109.09</ele>
  <time>2026-09-01T20:02:06Z</time>
  <course>180.78</course>
  <speed>0.0</speed>
  <fix>3d</fix>
</trkpt>
<trkpt lat="64.1624776" lon="-139.8402244">
  <ele>1109.05</ele>
  <time>2026-09-01T20:02:06Z</time>
  <course>6.02</course>
  <speed>0.01414213562373095</speed>
  <fix>3d</fix>
</trkpt>
<trkpt lat="64.1624777" lon="-139.8402246">
  <ele>1109.09</ele>
  <time>2026-09-01T20:02:06Z</time>
  <course>180.78</course>
  <speed>0.0</speed>
  <fix>3d</fix>
</trkpt>
<trkpt lat="64.1624776" lon="-139.8402244">
  <ele>1109.05</ele>
  <time>2026-09-01T20:02:06Z</time>
  <course>6.02</course>
  <speed>0.01414213562373095</speed>
  <fix>3d</fix>
</trkpt>
<trkpt lat="64.1624777" lon="-139.8402246">
  <ele>1109.09</ele>
  <time>2026-09-01T20:02:06Z</time>
  <course>180.78</course>
  <speed>0.0</speed>
  <fix>3d</fix>
</trkpt>
<trkpt lat="64.1624776" lon="-139.8402244">
  <ele>1109.05</ele>
  <time>2026-09-01T20:02:06Z</time>
  <course>6.02</course>
  <speed>0.01414213562373095</speed>
  <fix>3d</fix>
</trkpt>
<trkpt lat="64.1624777" lon="-139.8402246">
  <ele>1109.09</ele>
  <time>2026-09-01T20:02:06Z</time>
  <course>180.78</course>
  <speed>0.0</speed>
  <fix>3d</fix>
</trkpt>
<trkpt lat="64.1624776" lon="-139.8402244">
  <ele>1109.05</ele>
  <time>2026-09-01T20:02:06Z</time>
  <course>6.02</course>
  <speed>0.01414213562373095</speed>
  <fix>3d</fix>
</trkpt>
<trkpt lat="64.1624777" lon="-139.8402246">
  <ele>1109.09</ele>
  <time>2026-09-01T20:02:07Z</time>
  <course>180.78</course>
  <speed>0.0</speed>
  <fix>3d</fix>
</trkpt>
<trkpt lat="64.1624776" lon="-139.8402244">
  <ele>1109.05</ele>
  <time>2026-09-01T20:02:07Z</time>
  <course>6.02</course>
  <speed>0.01414213562373095</speed>
  <fix>3d</fix>
</trkpt>
<trkpt lat="64.1624777" lon="-139.8402246">
  <ele>1109.09</ele>
  <time>2026-09-01T20:02:07Z</time>
  <course>180.78</course>
  <speed>0.0</speed>
  <fix>3d</fix>
</trkpt>
<trkpt lat="64.1624776" lon="-139.8402244">
  <ele>1109.05</ele>
  <time>2026-09-01T20:02:07Z</time>
  <course>6.02</course>
  <speed>0.01414213562373095</speed>
  <fix>3d</fix>
</trkpt>
<trkpt lat="64.1624777" lon="-139.8402246">
  <ele>1109.09</ele>
  <time>2026-09-01T20:02:07Z</time>
  <course>180.78</course>
  <speed>0.0</speed>
  <fix>3d</fix>
</trkpt>
<trkpt lat="64.1624776" lon="-139.8402244">
  <ele>1109.05</ele>
  <time>2026-09-01T20:02:07Z</time>
  <course>6.02</course>
  <speed>0.01414213562373095</speed>
  <fix>3d</fix>
</trkpt>
<trkpt lat="64.1624777" lon="-139.8402246">
  <ele>1109.09</ele>
  <time>2026-09-01T20:02:07Z</time>
  <course>180.78</course>
  <speed>0.0</speed>
  <fix>3d</fix>
</trkpt>
<trkpt lat="64.1624776" lon="-139.8402244">
  <ele>1109.05</ele>
  <time>2026-09-01T20:02:07Z</time>
  <course>6.03</course>
  <speed>0.01414213562373095</speed>
  <fix>3d</fix>
</trkpt>
<trkpt lat="64.1624777" lon="-139.8402246">
  <ele>1109.09</ele>
  <time>2026-09-01T20:02:07Z</time>
  <course>180.78</course>
  <speed>0.0</speed>
  <fix>3d</fix>
</trkpt>
<trkpt lat="64.1624776" lon="-139.8402244">
  <ele>1109.05</ele>
  <time>2026-09-01T20:02:07Z</time>
  <course>6.03</course>
  <speed>0.01414213562373095</speed>
  <fix>3d</fix>
</trkpt>
<trkpt lat="64.1624777" lon="-139.8402246">
  <ele>1109.09</ele>
  <time>2026-09-01T20:02:07Z</time>
  <course>180.78</course>
  <speed>0.0</speed>
  <fix>3d</fix>
</trkpt>
<trkpt lat="64.1624776" lon="-139.8402244">
  <ele>1109.05</ele>
  <time>2026-09-01T20:02:07Z</time>
  <course>6.03</course>
  <speed>0.01414213562373095</speed>
  <fix>3d</fix>
</trkpt>
<trkpt lat="64.1624777" lon="-139.8402246">
  <ele>1109.09</ele>
  <time>2026-09-01T20:02:07Z</time>
  <course>180.78</course>
  <speed>0.0</speed>
  <fix>3d</fix>
</trkpt>
<trkpt lat="64.1624776" lon="-139.8402244">
  <ele>1109.04</ele>
  <time>2026-09-01T20:02:07Z</time>
  <course>6.03</course>
  <speed>0.01414213562373095</speed>
  <fix>3d</fix>
</trkpt>
<trkpt lat="64.1624777" lon="-139.8402246">
  <ele>1109.09</ele>
  <time>2026-09-01T20:02:07Z</time>
  <course>180.78</course>
  <speed>0.0</speed>
  <fix>3d</fix>
</trkpt>
<trkpt lat="64.1624776" lon="-139.8402244">
  <ele>1109.04</ele>
  <time>2026-09-01T20:02:07Z</time>
  <course>6.03</course>
  <speed>0.01414213562373095</speed>
  <fix>3d</fix>
</trkpt>
<trkpt lat="64.1624777" lon="-139.8402246">
  <ele>1109.09</ele>
  <time>2026-09-01T20:02:07Z</time>
  <course>180.78</course>
  <speed>0.0</speed>
  <fix>3d</fix>
</trkpt>
<trkpt lat="64.1624776" lon="-139.8402244">
  <ele>1109.04</ele>
  <time>2026-09-01T20:02:07Z</time>
  <course>6.03</course>
  <speed>0.01414213562373095</speed>
  <fix>3d</fix>
</trkpt>
<trkpt lat="64.1624777" lon="-139.8402246">
  <ele>1109.09</ele>
  <time>2026-09-01T20:02:07Z</time>
  <course>180.78</course>
  <speed>0.0</speed>
  <fix>3d</fix>
</trkpt>
<trkpt lat="64.1624776" lon="-139.8402244">
  <ele>1109.03</ele>
  <time>2026-09-01T20:02:07Z</time>
  <course>6.03</course>
  <speed>0.01414213562373095</speed>
  <fix>3d</fix>
</trkpt>
<trkpt lat="64.1624777" lon="-139.8402246">
  <ele>1109.09</ele>
  <time>2026-09-01T20:02:07Z</time>
  <course>180.78</course>
  <speed>0.0</speed>
  <fix>3d</fix>
</trkpt>
<trkpt lat="64.1624776" lon="-139.8402244">
  <ele>1109.03</ele>
  <time>2026-09-01T20:02:07Z</time>
  <course>6.04</course>
  <speed>0.01414213562373095</speed>
  <fix>3d</fix>
</trkpt>
<trkpt lat="64.1624777" lon="-139.8402246">
  <ele>1109.09</ele>
  <time>2026-09-01T20:02:07Z</time>
  <course>180.78</course>
  <speed>0.0</speed>
  <fix>3d</fix>
</trkpt>
<trkpt lat="64.1624776" lon="-139.8402244">
  <ele>1109.03</ele>
  <time>2026-09-01T20:02:07Z</time>
  <course>6.04</course>
  <speed>0.01414213562373095</speed>
  <fix>3d</fix>
</trkpt>
<trkpt lat="64.1624777" lon="-139.8402246">
  <ele>1109.09</ele>
  <time>2026-09-01T20:02:07Z</time>
  <course>180.78</course>
  <speed>0.0</speed>
  <fix>3d</fix>
</trkpt>
<trkpt lat="64.1624776" lon="-139.8402244">
  <ele>1109.03</ele>
  <time>2026-09-01T20:02:07Z</time>
  <course>6.04</course>
  <speed>0.01414213562373095</speed>
  <fix>3d</fix>
</trkpt>
<trkpt lat="64.1624777" lon="-139.8402246">
  <ele>1109.09</ele>
  <time>2026-09-01T20:02:07Z</time>
  <course>180.78</course>
  <speed>0.0</speed>
  <fix>3d</fix>
</trkpt>
<trkpt lat="64.1624776" lon="-139.8402244">
  <ele>1109.03</ele>
  <time>2026-09-01T20:02:07Z</time>
  <course>6.04</course>
  <speed>0.01414213562373095</speed>
  <fix>3d</fix>
</trkpt>
<trkpt lat="64.1624777" lon="-139.8402246">
  <ele>1109.09</ele>
  <time>2026-09-01T20:02:07Z</time>
  <course>180.78</course>
  <speed>0.0</speed>
  <fix>3d</fix>
</trkpt>
<trkpt lat="64.1624776" lon="-139.8402244">
  <ele>1109.03</ele>
  <time>2026-09-01T20:02:07Z</time>
  <course>6.04</course>
  <speed>0.01414213562373095</speed>
  <fix>3d</fix>
</trkpt>
<trkpt lat="64.1624777" lon="-139.8402246">
  <ele>1109.09</ele>
  <time>2026-09-01T20:02:07Z</time>
  <course>180.78</course>
  <speed>0.0</speed>
  <fix>3d</fix>
</trkpt>
<trkpt lat="64.1624776" lon="-139.8402244">
  <ele>1109.02</ele>
  <time>2026-09-01T20:02:07Z</time>
  <course>6.04</course>
  <speed>0.01414213562373095</speed>
  <fix>3d</fix>
</trkpt>
<trkpt lat="64.1624777" lon="-139.8402246">
  <ele>1109.09</ele>
  <time>2026-09-01T20:02:07Z</time>
  <course>180.78</course>
  <speed>0.0</speed>
  <fix>3d</fix>
</trkpt>
<trkpt lat="64.1624776" lon="-139.8402244">
  <ele>1109.02</ele>
  <time>2026-09-01T20:02:07Z</time>
  <course>6.04</course>
  <speed>0.01414213562373095</speed>
  <fix>3d</fix>
</trkpt>
<trkpt lat="64.1624777" lon="-139.8402246">
  <ele>1109.09</ele>
  <time>2026-09-01T20:02:07Z</time>
  <course>180.78</course>
  <speed>0.0</speed>
  <fix>3d</fix>
</trkpt>
<trkpt lat="64.1624776" lon="-139.8402244">
  <ele>1109.02</ele>
  <time>2026-09-01T20:02:07Z</time>
  <course>6.05</course>
  <speed>0.01414213562373095</speed>
  <fix>3d</fix>
</trkpt>
<trkpt lat="64.1624777" lon="-139.8402246">
  <ele>1109.09</ele>
  <time>2026-09-01T20:02:07Z</time>
  <course>180.78</course>
  <speed>0.0</speed>
  <fix>3d</fix>
</trkpt>
<trkpt lat="64.1624776" lon="-139.8402244">
  <ele>1109.02</ele>
  <time>2026-09-01T20:02:07Z</time>
  <course>6.05</course>
  <speed>0.01414213562373095</speed>
  <fix>3d</fix>
</trkpt>
<trkpt lat="64.1624777" lon="-139.8402246">
  <ele>1109.09</ele>
  <time>2026-09-01T20:02:07Z</time>
  <course>180.78</course>
  <speed>0.0</speed>
  <fix>3d</fix>
</trkpt>
<trkpt lat="64.1624776" lon="-139.8402244">
  <ele>1109.02</ele>
  <time>2026-09-01T20:02:07Z</time>
  <course>6.05</course>
  <speed>0.01414213562373095</speed>
  <fix>3d</fix>
</trkpt>
<trkpt lat="64.1624777" lon="-139.8402246">
  <ele>1109.09</ele>
  <time>2026-09-01T20:02:07Z</time>
  <course>180.78</course>
  <speed>0.0</speed>
  <fix>3d</fix>
</trkpt>
<trkpt lat="64.1624776" lon="-139.8402244">
  <ele>1109.02</ele>
  <time>2026-09-01T20:02:07Z</time>
  <course>6.05</course>
  <speed>0.01414213562373095</speed>
  <fix>3d</fix>
</trkpt>
<trkpt lat="64.1624777" lon="-139.8402246">
  <ele>1109.09</ele>
  <time>2026-09-01T20:02:07Z</time>
  <course>180.78</course>
  <speed>0.0</speed>
  <fix>3d</fix>
</trkpt>
<trkpt lat="64.1624776" lon="-139.8402244">
  <ele>1109.02</ele>
  <time>2026-09-01T20:02:07Z</time>
  <course>6.05</course>
  <speed>0.01414213562373095</speed>
  <fix>3d</fix>
</trkpt>
<trkpt lat="64.1624777" lon="-139.8402246">
  <ele>1109.09</ele>
  <time>2026-09-01T20:02:07Z</time>
  <course>180.78</course>
  <speed>0.0</speed>
  <fix>3d</fix>
</trkpt>
<trkpt lat="64.1624776" lon="-139.8402244">
  <ele>1109.02</ele>
  <time>2026-09-01T20:02:07Z</time>
  <course>6.05</course>
  <speed>0.01414213562373095</speed>
  <fix>3d</fix>
</trkpt>
<trkpt lat="64.1624777" lon="-139.8402246">
  <ele>1109.09</ele>
  <time>2026-09-01T20:02:07Z</time>
  <course>180.78</course>
  <speed>0.0</speed>
  <fix>3d</fix>
</trkpt>
<trkpt lat="64.1624776" lon="-139.8402244">
  <ele>1109.02</ele>
  <time>2026-09-01T20:02:07Z</time>
  <course>6.05</course>
  <speed>0.01414213562373095</speed>
  <fix>3d</fix>
</trkpt>
<trkpt lat="64.1624777" lon="-139.8402246">
  <ele>1109.09</ele>
  <time>2026-09-01T20:02:07Z</time>
  <course>180.78</course>
  <speed>0.0</speed>
  <fix>3d</fix>
</trkpt>
<trkpt lat="64.1624776" lon="-139.8402244">
  <ele>1109.02</ele>
  <time>2026-09-01T20:02:07Z</time>
  <course>6.05</course>
  <speed>0.01414213562373095</speed>
  <fix>3d</fix>
</trkpt>
<trkpt lat="64.1624777" lon="-139.8402246">
  <ele>1109.09</ele>
  <time>2026-09-01T20:02:07Z</time>
  <course>180.78</course>
  <speed>0.0</speed>
  <fix>3d</fix>
</trkpt>
<trkpt lat="64.1624776" lon="-139.8402244">
  <ele>1109.02</ele>
  <time>2026-09-01T20:02:07Z</time>
  <course>6.06</course>
  <speed>0.01414213562373095</speed>
  <fix>3d</fix>
</trkpt>
<trkpt lat="64.1624777" lon="-139.8402246">
  <ele>1109.09</ele>
  <time>2026-09-01T20:02:07Z</time>
  <course>180.78</course>
  <speed>0.0</speed>
  <fix>3d</fix>
</trkpt>
<trkpt lat="64.1624776" lon="-139.8402244">
  <ele>1109.02</ele>
  <time>2026-09-01T20:02:07Z</time>
  <course>6.06</course>
  <speed>0.01414213562373095</speed>
  <fix>3d</fix>
</trkpt>
<trkpt lat="64.1624777" lon="-139.8402246">
  <ele>1109.09</ele>
  <time>2026-09-01T20:02:07Z</time>
  <course>180.78</course>
  <speed>0.0</speed>
  <fix>3d</fix>
</trkpt>
<trkpt lat="64.1624776" lon="-139.8402244">
  <ele>1109.09</ele>
  <time>2026-09-01T20:02:07Z</time>
  <course>6.06</course>
  <speed>0.01414213562373095</speed>
  <fix>3d</fix>
</trkpt>
<trkpt lat="64.1624777" lon="-139.8402246">
  <ele>1109.09</ele>
  <time>2026-09-01T20:02:07Z</time>
  <course>180.78</course>
  <speed>0.0</speed>
  <fix>3d</fix>
</trkpt>
<trkpt lat="64.1624776" lon="-139.8402244">
  <ele>1109.08</ele>
  <time>2026-09-01T20:02:07Z</time>
  <course>6.06</course>
  <speed>0.01414213562373095</speed>
  <fix>3d</fix>
</trkpt>
<trkpt lat="64.1624777" lon="-139.8402246">
  <ele>1109.09</ele>
  <time>2026-09-01T20:02:07Z</time>
  <course>180.78</course>
  <speed>0.0</speed>
  <fix>3d</fix>
</trkpt>
<trkpt lat="64.1624776" lon="-139.8402244">
  <ele>1109.08</ele>
  <time>2026-09-01T20:02:07Z</time>
  <course>6.06</course>
  <speed>0.01414213562373095</speed>
  <fix>3d</fix>
</trkpt>
<trkpt lat="64.1624777" lon="-139.8402246">
  <ele>1109.09</ele>
  <time>2026-09-01T20:02:07Z</time>
  <course>180.78</course>
  <speed>0.0</speed>
  <fix>3d</fix>
</trkpt>
<trkpt lat="64.1624776" lon="-139.8402244">
  <ele>1109.08</ele>
  <time>2026-09-01T20:02:07Z</time>
  <course>6.06</course>
  <speed>0.01414213562373095</speed>
  <fix>3d</fix>
</trkpt>
<trkpt lat="64.1624777" lon="-139.8402246">
  <ele>1109.09</ele>
  <time>2026-09-01T20:02:07Z</time>
  <course>180.78</course>
  <speed>0.0</speed>
  <fix>3d</fix>
</trkpt>
<trkpt lat="64.1624776" lon="-139.8402244">
  <ele>1109.08</ele>
  <time>2026-09-01T20:02:07Z</time>
  <course>6.06</course>
  <speed>0.01414213562373095</speed>
  <fix>3d</fix>
</trkpt>
<trkpt lat="64.1624777" lon="-139.8402246">
  <ele>1109.09</ele>
  <time>2026-09-01T20:02:07Z</time>
  <course>180.78</course>
  <speed>0.0</speed>
  <fix>3d</fix>
</trkpt>
<trkpt lat="64.1624776" lon="-139.8402244">
  <ele>1109.07</ele>
  <time>2026-09-01T20:02:07Z</time>
  <course>6.07</course>
  <speed>0.01414213562373095</speed>
  <fix>3d</fix>
</trkpt>
<trkpt lat="64.1624777" lon="-139.8402246">
  <ele>1109.09</ele>
  <time>2026-09-01T20:02:07Z</time>
  <course>180.78</course>
  <speed>0.0</speed>
  <fix>3d</fix>
</trkpt>
<trkpt lat="64.1624776" lon="-139.8402244">
  <ele>1109.07</ele>
  <time>2026-09-01T20:02:07Z</time>
  <course>6.07</course>
  <speed>0.01414213562373095</speed>
  <fix>3d</fix>
</trkpt>
<trkpt lat="64.1624777" lon="-139.8402246">
  <ele>1109.09</ele>
  <time>2026-09-01T20:02:07Z</time>
  <course>180.78</course>
  <speed>0.0</speed>
  <fix>3d</fix>
</trkpt>
<trkpt lat="64.1624776" lon="-139.8402244">
  <ele>1109.07</ele>
  <time>2026-09-01T20:02:07Z</time>
  <course>6.07</course>
  <speed>0.01414213562373095</speed>
  <fix>3d</fix>
</trkpt>
<trkpt lat="64.1624777" lon="-139.8402246">
  <ele>1109.09</ele>
  <time>2026-09-01T20:02:07Z</time>
  <course>180.78</course>
  <speed>0.0</speed>
  <fix>3d</fix>
</trkpt>
<trkpt lat="64.1624776" lon="-139.8402244">
  <ele>1109.06</ele>
  <time>2026-09-01T20:02:07Z</time>
  <course>6.07</course>
  <speed>0.01414213562373095</speed>
  <fix>3d</fix>
</trkpt>
<trkpt lat="64.1624777" lon="-139.8402246">
  <ele>1109.09</ele>
  <time>2026-09-01T20:02:07Z</time>
  <course>180.78</course>
  <speed>0.0</speed>
  <fix>3d</fix>
</trkpt>
<trkpt lat="64.1624776" lon="-139.8402244">
  <ele>1109.06</ele>
  <time>2026-09-01T20:02:07Z</time>
  <course>6.07</course>
  <speed>0.01414213562373095</speed>
  <fix>3d</fix>
</trkpt>
<trkpt lat="64.1624777" lon="-139.8402246">
  <ele>1109.09</ele>
  <time>2026-09-01T20:02:07Z</time>
  <course>180.78</course>
  <speed>0.0</speed>
  <fix>3d</fix>
</trkpt>
<trkpt lat="64.1624776" lon="-139.8402244">
  <ele>1109.06</ele>
  <time>2026-09-01T20:02:07Z</time>
  <course>6.07</course>
  <speed>0.01414213562373095</speed>
  <fix>3d</fix>
</trkpt>
<trkpt lat="64.1624777" lon="-139.8402246">
  <ele>1109.09</ele>
  <time>2026-09-01T20:02:07Z</time>
  <course>180.78</course>
  <speed>0.0</speed>
  <fix>3d</fix>
</trkpt>
<trkpt lat="64.1624776" lon="-139.8402244">
  <ele>1109.05</ele>
  <time>2026-09-01T20:02:07Z</time>
  <course>6.07</course>
  <speed>0.01414213562373095</speed>
  <fix>3d</fix>
</trkpt>
<trkpt lat="64.1624777" lon="-139.8402246">
  <ele>1109.09</ele>
  <time>2026-09-01T20:02:07Z</time>
  <course>180.78</course>
  <speed>0.0</speed>
  <fix>3d</fix>
</trkpt>
<trkpt lat="64.1624776" lon="-139.8402244">
  <ele>1109.05</ele>
  <time>2026-09-01T20:02:07Z</time>
  <course>6.07</course>
  <speed>0.01414213562373095</speed>
  <fix>3d</fix>
</trkpt>
<trkpt lat="64.1624777" lon="-139.8402246">
  <ele>1109.09</ele>
  <time>2026-09-01T20:02:07Z</time>
  <course>180.78</course>
  <speed>0.0</speed>
  <fix>3d</fix>
</trkpt>
<trkpt lat="64.1624776" lon="-139.8402244">
  <ele>1109.04</ele>
  <time>2026-09-01T20:02:07Z</time>
  <course>6.08</course>
  <speed>0.01414213562373095</speed>
  <fix>3d</fix>
</trkpt>
<trkpt lat="64.1624777" lon="-139.8402246">
  <ele>1109.09</ele>
  <time>2026-09-01T20:02:07Z</time>
  <course>180.78</course>
  <speed>0.0</speed>
  <fix>3d</fix>
</trkpt>
<trkpt lat="64.1624776" lon="-139.8402244">
  <ele>1109.04</ele>
  <time>2026-09-01T20:02:07Z</time>
  <course>6.08</course>
  <speed>0.01414213562373095</speed>
  <fix>3d</fix>
</trkpt>
<trkpt lat="64.1624777" lon="-139.8402246">
  <ele>1109.09</ele>
  <time>2026-09-01T20:02:07Z</time>
  <course>180.78</course>
  <speed>0.0</speed>
  <fix>3d</fix>
</trkpt>
<trkpt lat="64.1624776" lon="-139.8402244">
  <ele>1109.04</ele>
  <time>2026-09-01T20:02:07Z</time>
  <course>6.08</course>
  <speed>0.01414213562373095</speed>
  <fix>3d</fix>
</trkpt>
<trkpt lat="64.1624777" lon="-139.8402246">
  <ele>1109.09</ele>
  <time>2026-09-01T20:02:07Z</time>
  <course>180.78</course>
  <speed>0.0</speed>
  <fix>3d</fix>
</trkpt>
<trkpt lat="64.1624776" lon="-139.8402244">
  <ele>1109.03</ele>
  <time>2026-09-01T20:02:07Z</time>
  <course>6.08</course>
  <speed>0.01414213562373095</speed>
  <fix>3d</fix>
</trkpt>
<trkpt lat="64.1624777" lon="-139.8402246">
  <ele>1109.09</ele>
  <time>2026-09-01T20:02:07Z</time>
  <course>180.78</course>
  <speed>0.0</speed>
  <fix>3d</fix>
</trkpt>
<trkpt lat="64.1624776" lon="-139.8402244">
  <ele>1109.03</ele>
  <time>2026-09-01T20:02:07Z</time>
  <course>6.08</course>
  <speed>0.01414213562373095</speed>
  <fix>3d</fix>
</trkpt>
<trkpt lat="64.1624777" lon="-139.8402246">
  <ele>1109.09</ele>
  <time>2026-09-01T20:02:07Z</time>
  <course>180.78</course>
  <speed>0.0</speed>
  <fix>3d</fix>
</trkpt>
<trkpt lat="64.1624776" lon="-139.8402244">
  <ele>1109.02</ele>
  <time>2026-09-01T20:02:07Z</time>
  <course>6.08</course>
  <speed>0.01414213562373095</speed>
  <fix>3d</fix>
</trkpt>
<trkpt lat="64.1624777" lon="-139.8402246">
  <ele>1109.09</ele>
  <time>2026-09-01T20:02:07Z</time>
  <course>180.78</course>
  <speed>0.0</speed>
  <fix>3d</fix>
</trkpt>
<trkpt lat="64.1624776" lon="-139.8402244">
  <ele>1109.02</ele>
  <time>2026-09-01T20:02:07Z</time>
  <course>6.08</course>
  <speed>0.01414213562373095</speed>
  <fix>3d</fix>
</trkpt>
<trkpt lat="64.1624777" lon="-139.8402246">
  <ele>1109.09</ele>
  <time>2026-09-01T20:02:07Z</time>
  <course>180.78</course>
  <speed>0.0</speed>
  <fix>3d</fix>
</trkpt>
<trkpt lat="64.1624776" lon="-139.8402244">
  <ele>1109.01</ele>
  <time>2026-09-01T20:02:07Z</time>
  <course>6.09</course>
  <speed>0.01414213562373095</speed>
  <fix>3d</fix>
</trkpt>
<trkpt lat="64.1624777" lon="-139.8402246">
  <ele>1109.09</ele>
  <time>2026-09-01T20:02:07Z</time>
  <course>180.78</course>
  <speed>0.0</speed>
  <fix>3d</fix>
</trkpt>
<trkpt lat="64.1624776" lon="-139.8402244">
  <ele>1109.01</ele>
  <time>2026-09-01T20:02:07Z</time>
  <course>6.09</course>
  <speed>0.01414213562373095</speed>
  <fix>3d</fix>
</trkpt>
<trkpt lat="64.1624777" lon="-139.8402246">
  <ele>1109.09</ele>
  <time>2026-09-01T20:02:07Z</time>
  <course>180.78</course>
  <speed>0.0</speed>
  <fix>3d</fix>
</trkpt>
<trkpt lat="64.1624776" lon="-139.8402244">
  <ele>1109.01</ele>
  <time>2026-09-01T20:02:07Z</time>
  <course>6.09</course>
  <speed>0.01414213562373095</speed>
  <fix>3d</fix>
</trkpt>
<trkpt lat="64.1624777" lon="-139.8402246">
  <ele>1109.09</ele>
  <time>2026-09-01T20:02:07Z</time>
  <course>180.78</course>
  <speed>0.0</speed>
  <fix>3d</fix>
</trkpt>
<trkpt lat="64.1624776" lon="-139.8402244">
  <ele>1109.01</ele>
  <time>2026-09-01T20:02:07Z</time>
  <course>6.09</course>
  <speed>0.01414213562373095</speed>
  <fix>3d</fix>
</trkpt>
<trkpt lat="64.1624777" lon="-139.8402246">
  <ele>1109.09</ele>
  <time>2026-09-01T20:02:07Z</time>
  <course>180.78</course>
  <speed>0.0</speed>
  <fix>3d</fix>
</trkpt>
<trkpt lat="64.1624776" lon="-139.8402244">
  <ele>1109.01</ele>
  <time>2026-09-01T20:02:07Z</time>
  <course>6.09</course>
  <speed>0.01414213562373095</speed>
  <fix>3d</fix>
</trkpt>
<trkpt lat="64.1624777" lon="-139.8402246">
  <ele>1109.09</ele>
  <time>2026-09-01T20:02:07Z</time>
  <course>180.78</course>
  <speed>0.0</speed>
  <fix>3d</fix>
</trkpt>
<trkpt lat="64.1624776" lon="-139.8402244">
  <ele>1109.01</ele>
  <time>2026-09-01T20:02:07Z</time>
  <course>6.09</course>
  <speed>0.01414213562373095</speed>
  <fix>3d</fix>
</trkpt>
<trkpt lat="64.1624777" lon="-139.8402246">
  <ele>1109.09</ele>
  <time>2026-09-01T20:02:07Z</time>
  <course>180.78</course>
  <speed>0.0</speed>
  <fix>3d</fix>
</trkpt>
<trkpt lat="64.1624776" lon="-139.8402244">
  <ele>1109.0</ele>
  <time>2026-09-01T20:02:07Z</time>
  <course>6.09</course>
  <speed>0.01414213562373095</speed>
  <fix>3d</fix>
</trkpt>
<trkpt lat="64.1624777" lon="-139.8402246">
  <ele>1109.09</ele>
  <time>2026-09-01T20:02:07Z</time>
  <course>180.78</course>
  <speed>0.0</speed>
  <fix>3d</fix>
</trkpt>
<trkpt lat="64.1624776" lon="-139.8402244">
  <ele>1109.0</ele>
  <time>2026-09-01T20:02:07Z</time>
  <course>6.09</course>
  <speed>0.01414213562373095</speed>
  <fix>3d</fix>
</trkpt>
<trkpt lat="64.1624777" lon="-139.8402246">
  <ele>1109.09</ele>
  <time>2026-09-01T20:02:07Z</time>
  <course>180.78</course>
  <speed>0.0</speed>
  <fix>3d</fix>
</trkpt>
<trkpt lat="64.1624776" lon="-139.8402244">
  <ele>1108.99</ele>
  <time>2026-09-01T20:02:07Z</time>
  <course>6.1</course>
  <speed>0.01414213562373095</speed>
  <fix>3d</fix>
</trkpt>
<trkpt lat="64.1624777" lon="-139.8402246">
  <ele>1109.09</ele>
  <time>2026-09-01T20:02:07Z</time>
  <course>180.78</course>
  <speed>0.0</speed>
  <fix>3d</fix>
</trkpt>
<trkpt lat="64.1624776" lon="-139.8402244">
  <ele>1108.99</ele>
  <time>2026-09-01T20:02:07Z</time>
  <course>6.1</course>
  <speed>0.01414213562373095</speed>
  <fix>3d</fix>
</trkpt>
<trkpt lat="64.1624777" lon="-139.8402246">
  <ele>1109.09</ele>
  <time>2026-09-01T20:02:07Z</time>
  <course>180.78</course>
  <speed>0.0</speed>
  <fix>3d</fix>
</trkpt>
<trkpt lat="64.1624776" lon="-139.8402244">
  <ele>1108.99</ele>
  <time>2026-09-01T20:02:07Z</time>
  <course>6.1</course>
  <speed>0.01414213562373095</speed>
  <fix>3d</fix>
</trkpt>
<trkpt lat="64.1624777" lon="-139.8402246">
  <ele>1109.09</ele>
  <time>2026-09-01T20:02:07Z</time>
  <course>180.78</course>
  <speed>0.0</speed>
  <fix>3d</fix>
</trkpt>
<trkpt lat="64.1624776" lon="-139.8402244">
  <ele>1108.98</ele>
  <time>2026-09-01T20:02:07Z</time>
  <course>6.1</course>
  <speed>0.01414213562373095</speed>
  <fix>3d</fix>
</trkpt>
<trkpt lat="64.1624777" lon="-139.8402246">
  <ele>1109.09</ele>
  <time>2026-09-01T20:02:07Z</time>
  <course>180.78</course>
  <speed>0.0</speed>
  <fix>3d</fix>
</trkpt>
<trkpt lat="64.1624776" lon="-139.8402244">
  <ele>1108.98</ele>
  <time>2026-09-01T20:02:07Z</time>
  <course>6.1</course>
  <speed>0.01414213562373095</speed>
  <fix>3d</fix>
</trkpt>
<trkpt lat="64.1624777" lon="-139.8402246">
  <ele>1109.09</ele>
  <time>2026-09-01T20:02:07Z</time>
  <course>180.78</course>
  <speed>0.0</speed>
  <fix>3d</fix>
</trkpt>
<trkpt lat="64.1624776" lon="-139.8402244">
  <ele>1108.98</ele>
  <time>2026-09-01T20:02:07Z</time>
  <course>6.1</course>
  <speed>0.01414213562373095</speed>
  <fix>3d</fix>
</trkpt>
<trkpt lat="64.1624777" lon="-139.8402246">
  <ele>1109.09</ele>
  <time>2026-09-01T20:02:07Z</time>
  <course>180.78</course>
  <speed>0.0</speed>
  <fix>3d</fix>
</trkpt>
<trkpt lat="64.1624776" lon="-139.8402244">
  <ele>1108.98</ele>
  <time>2026-09-01T20:02:07Z</time>
  <course>6.1</course>
  <speed>0.01414213562373095</speed>
  <fix>3d</fix>
</trkpt>
<trkpt lat="64.1624777" lon="-139.8402246">
  <ele>1109.09</ele>
  <time>2026-09-01T20:02:07Z</time>
  <course>180.78</course>
  <speed>0.0</speed>
  <fix>3d</fix>
</trkpt>
<trkpt lat="64.1624776" lon="-139.8402244">
  <ele>1108.98</ele>
  <time>2026-09-01T20:02:07Z</time>
  <course>6.1</course>
  <speed>0.01414213562373095</speed>
  <fix>3d</fix>
</trkpt>
<trkpt lat="64.1624777" lon="-139.8402246">
  <ele>1109.09</ele>
  <time>2026-09-01T20:02:07Z</time>
  <course>180.78</course>
  <speed>0.0</speed>
  <fix>3d</fix>
</trkpt>
<trkpt lat="64.1624776" lon="-139.8402244">
  <ele>1108.97</ele>
  <time>2026-09-01T20:02:07Z</time>
  <course>6.11</course>
  <speed>0.01414213562373095</speed>
  <fix>3d</fix>
</trkpt>
<trkpt lat="64.1624777" lon="-139.8402246">
  <ele>1109.09</ele>
  <time>2026-09-01T20:02:07Z</time>
  <course>180.78</course>
  <speed>0.0</speed>
  <fix>3d</fix>
</trkpt>
<trkpt lat="64.1624776" lon="-139.8402244">
  <ele>1108.97</ele>
  <time>2026-09-01T20:02:07Z</time>
  <course>6.11</course>
  <speed>0.01414213562373095</speed>
  <fix>3d</fix>
</trkpt>
<trkpt lat="64.1624777" lon="-139.8402246">
  <ele>1109.09</ele>
  <time>2026-09-01T20:02:07Z</time>
  <course>180.78</course>
  <speed>0.0</speed>
  <fix>3d</fix>
</trkpt>
<trkpt lat="64.1624776" lon="-139.8402244">
  <ele>1108.97</ele>
  <time>2026-09-01T20:02:07Z</time>
  <course>6.11</course>
  <speed>0.01414213562373095</speed>
  <fix>3d</fix>
</trkpt>
<trkpt lat="64.1624777" lon="-139.8402246">
  <ele>1109.09</ele>
  <time>2026-09-01T20:02:07Z</time>
  <course>180.78</course>
  <speed>0.0</speed>
  <fix>3d</fix>
</trkpt>
<trkpt lat="64.1624776" lon="-139.8402244">
  <ele>1108.97</ele>
  <time>2026-09-01T20:02:07Z</time>
  <course>6.11</course>
  <speed>0.01414213562373095</speed>
  <fix>3d</fix>
</trkpt>
<trkpt lat="64.1624777" lon="-139.8402246">
  <ele>1109.09</ele>
  <time>2026-09-01T20:02:07Z</time>
  <course>180.78</course>
  <speed>0.0</speed>
  <fix>3d</fix>
</trkpt>
<trkpt lat="64.1624776" lon="-139.8402244">
  <ele>1108.97</ele>
  <time>2026-09-01T20:02:07Z</time>
  <course>6.11</course>
  <speed>0.01414213562373095</speed>
  <fix>3d</fix>
</trkpt>
<trkpt lat="64.1624777" lon="-139.8402246">
  <ele>1109.09</ele>
  <time>2026-09-01T20:02:07Z</time>
  <course>180.78</course>
  <speed>0.0</speed>
  <fix>3d</fix>
</trkpt>
<trkpt lat="64.1624776" lon="-139.8402244">
  <ele>1108.97</ele>
  <time>2026-09-01T20:02:07Z</time>
  <course>6.11</course>
  <speed>0.01414213562373095</speed>
  <fix>3d</fix>
</trkpt>
<trkpt lat="64.1624777" lon="-139.8402246">
  <ele>1109.09</ele>
  <time>2026-09-01T20:02:07Z</time>
  <course>180.78</course>
  <speed>0.0</speed>
  <fix>3d</fix>
</trkpt>
<trkpt lat="64.1624776" lon="-139.8402244">
  <ele>1108.97</ele>
  <time>2026-09-01T20:02:07Z</time>
  <course>6.11</course>
  <speed>0.01414213562373095</speed>
  <fix>3d</fix>
</trkpt>
<trkpt lat="64.1624777" lon="-139.8402246">
  <ele>1109.09</ele>
  <time>2026-09-01T20:02:07Z</time>
  <course>180.78</course>
  <speed>0.0</speed>
  <fix>3d</fix>
</trkpt>
<trkpt lat="64.1624776" lon="-139.8402244">
  <ele>1108.97</ele>
  <time>2026-09-01T20:02:07Z</time>
  <course>6.11</course>
  <speed>0.01414213562373095</speed>
  <fix>3d</fix>
</trkpt>
<trkpt lat="64.1624777" lon="-139.8402246">
  <ele>1109.09</ele>
  <time>2026-09-01T20:02:07Z</time>
  <course>180.78</course>
  <speed>0.0</speed>
  <fix>3d</fix>
</trkpt>
<trkpt lat="64.1624776" lon="-139.8402244">
  <ele>1108.97</ele>
  <time>2026-09-01T20:02:07Z</time>
  <course>6.12</course>
  <speed>0.01414213562373095</speed>
  <fix>3d</fix>
</trkpt>
<trkpt lat="64.1624777" lon="-139.8402246">
  <ele>1109.09</ele>
  <time>2026-09-01T20:02:07Z</time>
  <course>180.78</course>
  <speed>0.0</speed>
  <fix>3d</fix>
</trkpt>
<trkpt lat="64.1624776" lon="-139.8402244">
  <ele>1108.97</ele>
  <time>2026-09-01T20:02:07Z</time>
  <course>6.12</course>
  <speed>0.01414213562373095</speed>
  <fix>3d</fix>
</trkpt>
<trkpt lat="64.1624777" lon="-139.8402246">
  <ele>1109.09</ele>
  <time>2026-09-01T20:02:07Z</time>
  <course>180.78</course>
  <speed>0.0</speed>
  <fix>3d</fix>
</trkpt>
<trkpt lat="64.1624776" lon="-139.8402244">
  <ele>1108.97</ele>
  <time>2026-09-01T20:02:07Z</time>
  <course>6.12</course>
  <speed>0.01414213562373095</speed>
  <fix>3d</fix>
</trkpt>
<trkpt lat="64.1624777" lon="-139.8402246">
  <ele>1109.09</ele>
  <time>2026-09-01T20:02:07Z</time>
  <course>180.78</course>
  <speed>0.0</speed>
  <fix>3d</fix>
</trkpt>
<trkpt lat="64.1624776" lon="-139.8402244">
  <ele>1108.96</ele>
  <time>2026-09-01T20:02:07Z</time>
  <course>6.12</course>
  <speed>0.01414213562373095</speed>
  <fix>3d</fix>
</trkpt>
<trkpt lat="64.1624777" lon="-139.8402246">
  <ele>1109.09</ele>
  <time>2026-09-01T20:02:07Z</time>
  <course>180.78</course>
  <speed>0.0</speed>
  <fix>3d</fix>
</trkpt>
<trkpt lat="64.1624776" lon="-139.8402244">
  <ele>1108.96</ele>
  <time>2026-09-01T20:02:07Z</time>
  <course>6.12</course>
  <speed>0.01414213562373095</speed>
  <fix>3d</fix>
</trkpt>
<trkpt lat="64.1624777" lon="-139.8402246">
  <ele>1109.09</ele>
  <time>2026-09-01T20:02:07Z</time>
  <course>180.78</course>
  <speed>0.0</speed>
  <fix>3d</fix>
</trkpt>
<trkpt lat="64.1624776" lon="-139.8402244">
  <ele>1108.96</ele>
  <time>2026-09-01T20:02:07Z</time>
  <course>6.12</course>
  <speed>0.01414213562373095</speed>
  <fix>3d</fix>
</trkpt>
<trkpt lat="64.1624777" lon="-139.8402246">
  <ele>1109.09</ele>
  <time>2026-09-01T20:02:07Z</time>
  <course>180.78</course>
  <speed>0.0</speed>
  <fix>3d</fix>
</trkpt>
<trkpt lat="64.1624776" lon="-139.8402244">
  <ele>1108.96</ele>
  <time>2026-09-01T20:02:07Z</time>
  <course>6.12</course>
  <speed>0.01414213562373095</speed>
  <fix>3d</fix>
</trkpt>
<trkpt lat="64.1624777" lon="-139.8402246">
  <ele>1109.09</ele>
  <time>2026-09-01T20:02:07Z</time>
  <course>180.78</course>
  <speed>0.0</speed>
  <fix>3d</fix>
</trkpt>
<trkpt lat="64.1624776" lon="-139.8402244">
  <ele>1108.95</ele>
  <time>2026-09-01T20:02:07Z</time>
  <course>6.12</course>
  <speed>0.01414213562373095</speed>
  <fix>3d</fix>
</trkpt>
<trkpt lat="64.1624777" lon="-139.8402246">
  <ele>1109.09</ele>
  <time>2026-09-01T20:02:07Z</time>
  <course>180.78</course>
  <speed>0.0</speed>
  <fix>3d</fix>
</trkpt>
<trkpt lat="64.1624776" lon="-139.8402244">
  <ele>1108.95</ele>
  <time>2026-09-01T20:02:07Z</time>
  <course>6.13</course>
  <speed>0.01414213562373095</speed>
  <fix>3d</fix>
</trkpt>
<trkpt lat="64.1624777" lon="-139.8402246">
  <ele>1109.09</ele>
  <time>2026-09-01T20:02:07Z</time>
  <course>180.78</course>
  <speed>0.0</speed>
  <fix>3d</fix>
</trkpt>
<trkpt lat="64.1624776" lon="-139.8402244">
  <ele>1108.95</ele>
  <time>2026-09-01T20:02:07Z</time>
  <course>6.13</course>
  <speed>0.01414213562373095</speed>
  <fix>3d</fix>
</trkpt>
<trkpt lat="64.1624777" lon="-139.8402246">
  <ele>1109.09</ele>
  <time>2026-09-01T20:02:07Z</time>
  <course>180.78</course>
  <speed>0.0</speed>
  <fix>3d</fix>
</trkpt>
<trkpt lat="64.1624776" lon="-139.8402244">
  <ele>1108.95</ele>
  <time>2026-09-01T20:02:07Z</time>
  <course>6.13</course>
  <speed>0.01414213562373095</speed>
  <fix>3d</fix>
</trkpt>
<trkpt lat="64.1624777" lon="-139.8402246">
  <ele>1109.09</ele>
  <time>2026-09-01T20:02:07Z</time>
  <course>180.78</course>
  <speed>0.0</speed>
  <fix>3d</fix>
</trkpt>
<trkpt lat="64.1624776" lon="-139.8402244">
  <ele>1108.94</ele>
  <time>2026-09-01T20:02:07Z</time>
  <course>6.13</course>
  <speed>0.01414213562373095</speed>
  <fix>3d</fix>
</trkpt>
<trkpt lat="64.1624777" lon="-139.8402246">
  <ele>1109.09</ele>
  <time>2026-09-01T20:02:07Z</time>
  <course>180.78</course>
  <speed>0.0</speed>
  <fix>3d</fix>
</trkpt>
<trkpt lat="64.1624776" lon="-139.8402244">
  <ele>1108.94</ele>
  <time>2026-09-01T20:02:07Z</time>
  <course>6.13</course>
  <speed>0.01414213562373095</speed>
  <fix>3d</fix>
</trkpt>
<trkpt lat="64.1624777" lon="-139.8402246">
  <ele>1109.09</ele>
  <time>2026-09-01T20:02:07Z</time>
  <course>180.78</course>
  <speed>0.0</speed>
  <fix>3d</fix>
</trkpt>
<trkpt lat="64.1624776" lon="-139.8402244">
  <ele>1108.94</ele>
  <time>2026-09-01T20:02:07Z</time>
  <course>6.13</course>
  <speed>0.01414213562373095</speed>
  <fix>3d</fix>
</trkpt>
<trkpt lat="64.1624777" lon="-139.8402246">
  <ele>1109.09</ele>
  <time>2026-09-01T20:02:07Z</time>
  <course>180.78</course>
  <speed>0.0</speed>
  <fix>3d</fix>
</trkpt>
<trkpt lat="64.1624776" lon="-139.8402244">
  <ele>1108.94</ele>
  <time>2026-09-01T20:02:07Z</time>
  <course>6.13</course>
  <speed>0.01414213562373095</speed>
  <fix>3d</fix>
</trkpt>
<trkpt lat="64.1624777" lon="-139.8402246">
  <ele>1109.09</ele>
  <time>2026-09-01T20:02:07Z</time>
  <course>180.78</course>
  <speed>0.0</speed>
  <fix>3d</fix>
</trkpt>
<trkpt lat="64.1624776" lon="-139.8402244">
  <ele>1108.94</ele>
  <time>2026-09-01T20:02:07Z</time>
  <course>6.13</course>
  <speed>0.01414213562373095</speed>
  <fix>3d</fix>
</trkpt>
<trkpt lat="64.1624777" lon="-139.8402246">
  <ele>1109.09</ele>
  <time>2026-09-01T20:02:07Z</time>
  <course>180.78</course>
  <speed>0.0</speed>
  <fix>3d</fix>
</trkpt>
<trkpt lat="64.1624776" lon="-139.8402244">
  <ele>1109.09</ele>
  <time>2026-09-01T20:02:07Z</time>
  <course>6.14</course>
  <speed>0.01414213562373095</speed>
  <fix>3d</fix>
</trkpt>
<trkpt lat="64.1624777" lon="-139.8402246">
  <ele>1109.09</ele>
  <time>2026-09-01T20:02:07Z</time>
  <course>180.78</course>
  <speed>0.0</speed>
  <fix>3d</fix>
</trkpt>
<trkpt lat="64.1624776" lon="-139.8402244">
  <ele>1109.08</ele>
  <time>2026-09-01T20:02:07Z</time>
  <course>6.14</course>
  <speed>0.01414213562373095</speed>
  <fix>3d</fix>
</trkpt>
<trkpt lat="64.1624777" lon="-139.8402246">
  <ele>1109.09</ele>
  <time>2026-09-01T20:02:07Z</time>
  <course>180.78</course>
  <speed>0.0</speed>
  <fix>3d</fix>
</trkpt>
<trkpt lat="64.1624776" lon="-139.8402244">
  <ele>1109.08</ele>
  <time>2026-09-01T20:02:07Z</time>
  <course>6.14</course>
  <speed>0.01414213562373095</speed>
  <fix>3d</fix>
</trkpt>
<trkpt lat="64.1624777" lon="-139.8402246">
  <ele>1109.09</ele>
  <time>2026-09-01T20:02:07Z</time>
  <course>180.78</course>
  <speed>0.0</speed>
  <fix>3d</fix>
</trkpt>
<trkpt lat="64.1624776" lon="-139.8402244">
  <ele>1109.08</ele>
  <time>2026-09-01T20:02:07Z</time>
  <course>6.14</course>
  <speed>0.01414213562373095</speed>
  <fix>3d</fix>
</trkpt>
<trkpt lat="64.1624777" lon="-139.8402246">
  <ele>1109.09</ele>
  <time>2026-09-01T20:02:07Z</time>
  <course>180.78</course>
  <speed>0.0</speed>
  <fix>3d</fix>
</trkpt>
<trkpt lat="64.1624776" lon="-139.8402244">
  <ele>1109.08</ele>
  <time>2026-09-01T20:02:07Z</time>
  <course>6.14</course>
  <speed>0.01414213562373095</speed>
  <fix>3d</fix>
</trkpt>
<trkpt lat="64.1624777" lon="-139.8402246">
  <ele>1109.09</ele>
  <time>2026-09-01T20:02:07Z</time>
  <course>180.78</course>
  <speed>0.0</speed>
  <fix>3d</fix>
</trkpt>
<trkpt lat="64.1624776" lon="-139.8402244">
  <ele>1109.08</ele>
  <time>2026-09-01T20:02:07Z</time>
  <course>6.14</course>
  <speed>0.01414213562373095</speed>
  <fix>3d</fix>
</trkpt>
<trkpt lat="64.1624777" lon="-139.8402246">
  <ele>1109.09</ele>
  <time>2026-09-01T20:02:07Z</time>
  <course>180.78</course>
  <speed>0.0</speed>
  <fix>3d</fix>
</trkpt>
<trkpt lat="64.1624776" lon="-139.8402244">
  <ele>1109.08</ele>
  <time>2026-09-01T20:02:07Z</time>
  <course>6.14</course>
  <speed>0.01414213562373095</speed>
  <fix>3d</fix>
</trkpt>
<trkpt lat="64.1624777" lon="-139.8402246">
  <ele>1109.09</ele>
  <time>2026-09-01T20:02:07Z</time>
  <course>180.78</course>
  <speed>0.0</speed>
  <fix>3d</fix>
</trkpt>
<trkpt lat="64.1624776" lon="-139.8402244">
  <ele>1109.07</ele>
  <time>2026-09-01T20:02:07Z</time>
  <course>6.14</course>
  <speed>0.01414213562373095</speed>
  <fix>3d</fix>
</trkpt>
<trkpt lat="64.1624777" lon="-139.8402246">
  <ele>1109.09</ele>
  <time>2026-09-01T20:02:07Z</time>
  <course>180.78</course>
  <speed>0.0</speed>
  <fix>3d</fix>
</trkpt>
<trkpt lat="64.1624776" lon="-139.8402244">
  <ele>1109.07</ele>
  <time>2026-09-01T20:02:07Z</time>
  <course>6.15</course>
  <speed>0.01414213562373095</speed>
  <fix>3d</fix>
</trkpt>
<trkpt lat="64.1624777" lon="-139.8402246">
  <ele>1109.09</ele>
  <time>2026-09-01T20:02:07Z</time>
  <course>180.78</course>
  <speed>0.0</speed>
  <fix>3d</fix>
</trkpt>
<trkpt lat="64.1624776" lon="-139.8402244">
  <ele>1109.07</ele>
  <time>2026-09-01T20:02:07Z</time>
  <course>6.15</course>
  <speed>0.01414213562373095</speed>
  <fix>3d</fix>
</trkpt>
<trkpt lat="64.1624777" lon="-139.8402246">
  <ele>1109.09</ele>
  <time>2026-09-01T20:02:07Z</time>
  <course>180.78</course>
  <speed>0.0</speed>
  <fix>3d</fix>
</trkpt>
<trkpt lat="64.1624776" lon="-139.8402244">
  <ele>1109.06</ele>
  <time>2026-09-01T20:02:07Z</time>
  <course>6.15</course>
  <speed>0.01414213562373095</speed>
  <fix>3d</fix>
</trkpt>
<trkpt lat="64.1624777" lon="-139.8402246">
  <ele>1109.09</ele>
  <time>2026-09-01T20:02:07Z</time>
  <course>180.78</course>
  <speed>0.0</speed>
  <fix>3d</fix>
</trkpt>
<trkpt lat="64.1624776" lon="-139.8402244">
  <ele>1109.06</ele>
  <time>2026-09-01T20:02:07Z</time>
  <course>6.15</course>
  <speed>0.01414213562373095</speed>
  <fix>3d</fix>
</trkpt>
<trkpt lat="64.1624777" lon="-139.8402246">
  <ele>1109.09</ele>
  <time>2026-09-01T20:02:07Z</time>
  <course>180.78</course>
  <speed>0.0</speed>
  <fix>3d</fix>
</trkpt>
<trkpt lat="64.1624776" lon="-139.8402244">
  <ele>1109.06</ele>
  <time>2026-09-01T20:02:07Z</time>
  <course>6.15</course>
  <speed>0.01414213562373095</speed>
  <fix>3d</fix>
</trkpt>
<trkpt lat="64.1624777" lon="-139.8402246">
  <ele>1109.09</ele>
  <time>2026-09-01T20:02:07Z</time>
  <course>180.78</course>
  <speed>0.0</speed>
  <fix>3d</fix>
</trkpt>
<trkpt lat="64.1624776" lon="-139.8402244">
  <ele>1109.06</ele>
  <time>2026-09-01T20:02:07Z</time>
  <course>6.15</course>
  <speed>0.01414213562373095</speed>
  <fix>3d</fix>
</trkpt>
<trkpt lat="64.1624777" lon="-139.8402246">
  <ele>1109.09</ele>
  <time>2026-09-01T20:02:07Z</time>
  <course>180.78</course>
  <speed>0.0</speed>
  <fix>3d</fix>
</trkpt>
<trkpt lat="64.1624776" lon="-139.8402244">
  <ele>1109.05</ele>
  <time>2026-09-01T20:02:07Z</time>
  <course>6.15</course>
  <speed>0.01414213562373095</speed>
  <fix>3d</fix>
</trkpt>
<trkpt lat="64.1624777" lon="-139.8402246">
  <ele>1109.09</ele>
  <time>2026-09-01T20:02:07Z</time>
  <course>180.78</course>
  <speed>0.0</speed>
  <fix>3d</fix>
</trkpt>
<trkpt lat="64.1624776" lon="-139.8402244">
  <ele>1109.05</ele>
  <time>2026-09-01T20:02:07Z</time>
  <course>6.15</course>
  <speed>0.01414213562373095</speed>
  <fix>3d</fix>
</trkpt>
<trkpt lat="64.1624777" lon="-139.8402246">
  <ele>1109.09</ele>
  <time>2026-09-01T20:02:07Z</time>
  <course>180.78</course>
  <speed>0.0</speed>
  <fix>3d</fix>
</trkpt>
<trkpt lat="64.1624776" lon="-139.8402244">
  <ele>1109.05</ele>
  <time>2026-09-01T20:02:07Z</time>
  <course>6.16</course>
  <speed>0.01414213562373095</speed>
  <fix>3d</fix>
</trkpt>
<trkpt lat="64.1624777" lon="-139.8402246">
  <ele>1109.09</ele>
  <time>2026-09-01T20:02:07Z</time>
  <course>180.78</course>
  <speed>0.0</speed>
  <fix>3d</fix>
</trkpt>
<trkpt lat="64.1624776" lon="-139.8402244">
  <ele>1109.05</ele>
  <time>2026-09-01T20:02:07Z</time>
  <course>6.16</course>
  <speed>0.01414213562373095</speed>
  <fix>3d</fix>
</trkpt>
<trkpt lat="64.1624777" lon="-139.8402246">
  <ele>1109.09</ele>
  <time>2026-09-01T20:02:07Z</time>
  <course>180.78</course>
  <speed>0.0</speed>
  <fix>3d</fix>
</trkpt>
<trkpt lat="64.1624776" lon="-139.8402244">
  <ele>1109.05</ele>
  <time>2026-09-01T20:02:07Z</time>
  <course>6.16</course>
  <speed>0.01414213562373095</speed>
  <fix>3d</fix>
</trkpt>
<trkpt lat="64.1624777" lon="-139.8402246">
  <ele>1109.09</ele>
  <time>2026-09-01T20:02:07Z</time>
  <course>180.78</course>
  <speed>0.0</speed>
  <fix>3d</fix>
</trkpt>
<trkpt lat="64.1624776" lon="-139.8402244">
  <ele>1109.05</ele>
  <time>2026-09-01T20:02:07Z</time>
  <course>6.16</course>
  <speed>0.01414213562373095</speed>
  <fix>3d</fix>
</trkpt>
<trkpt lat="64.1624777" lon="-139.8402246">
  <ele>1109.09</ele>
  <time>2026-09-01T20:02:07Z</time>
  <course>180.78</course>
  <speed>0.0</speed>
  <fix>3d</fix>
</trkpt>
<trkpt lat="64.1624776" lon="-139.8402244">
  <ele>1109.05</ele>
  <time>2026-09-01T20:02:07Z</time>
  <course>6.16</course>
  <speed>0.01414213562373095</speed>
  <fix>3d</fix>
</trkpt>
<trkpt lat="64.1624777" lon="-139.8402246">
  <ele>1109.09</ele>
  <time>2026-09-01T20:02:07Z</time>
  <course>180.78</course>
  <speed>0.0</speed>
  <fix>3d</fix>
</trkpt>
<trkpt lat="64.1624776" lon="-139.8402244">
  <ele>1109.05</ele>
  <time>2026-09-01T20:02:07Z</time>
  <course>6.16</course>
  <speed>0.01414213562373095</speed>
  <fix>3d</fix>
</trkpt>
<trkpt lat="64.1624777" lon="-139.8402246">
  <ele>1109.09</ele>
  <time>2026-09-01T20:02:07Z</time>
  <course>180.78</course>
  <speed>0.0</speed>
  <fix>3d</fix>
</trkpt>
<trkpt lat="64.1624776" lon="-139.8402244">
  <ele>1109.05</ele>
  <time>2026-09-01T20:02:07Z</time>
  <course>6.16</course>
  <speed>0.01414213562373095</speed>
  <fix>3d</fix>
</trkpt>
<trkpt lat="64.1624777" lon="-139.8402246">
  <ele>1109.09</ele>
  <time>2026-09-01T20:02:07Z</time>
  <course>180.78</course>
  <speed>0.0</speed>
  <fix>3d</fix>
</trkpt>
<trkpt lat="64.1624776" lon="-139.8402244">
  <ele>1109.05</ele>
  <time>2026-09-01T20:02:07Z</time>
  <course>6.16</course>
  <speed>0.01414213562373095</speed>
  <fix>3d</fix>
</trkpt>
<trkpt lat="64.1624777" lon="-139.8402246">
  <ele>1109.09</ele>
  <time>2026-09-01T20:02:07Z</time>
  <course>180.78</course>
  <speed>0.0</speed>
  <fix>3d</fix>
</trkpt>
<trkpt lat="64.1624776" lon="-139.8402244">
  <ele>1109.05</ele>
  <time>2026-09-01T20:02:07Z</time>
  <course>6.17</course>
  <speed>0.01414213562373095</speed>
  <fix>3d</fix>
</trkpt>
<trkpt lat="64.1624777" lon="-139.8402246">
  <ele>1109.09</ele>
  <time>2026-09-01T20:02:07Z</time>
  <course>180.78</course>
  <speed>0.0</speed>
  <fix>3d</fix>
</trkpt>
<trkpt lat="64.1624776" lon="-139.8402244">
  <ele>1109.05</ele>
  <time>2026-09-01T20:02:07Z</time>
  <course>6.17</course>
  <speed>0.01414213562373095</speed>
  <fix>3d</fix>
</trkpt>
<trkpt lat="64.1624777" lon="-139.8402246">
  <ele>1109.09</ele>
  <time>2026-09-01T20:02:07Z</time>
  <course>180.78</course>
  <speed>0.0</speed>
  <fix>3d</fix>
</trkpt>
<trkpt lat="64.1624776" lon="-139.8402244">
  <ele>1109.05</ele>
  <time>2026-09-01T20:02:07Z</time>
  <course>6.17</course>
  <speed>0.01414213562373095</speed>
  <fix>3d</fix>
</trkpt>
<trkpt lat="64.1624777" lon="-139.8402246">
  <ele>1109.09</ele>
  <time>2026-09-01T20:02:07Z</time>
  <course>180.78</course>
  <speed>0.0</speed>
  <fix>3d</fix>
</trkpt>
<trkpt lat="64.1624776" lon="-139.8402244">
  <ele>1109.05</ele>
  <time>2026-09-01T20:02:07Z</time>
  <course>6.17</course>
  <speed>0.01414213562373095</speed>
  <fix>3d</fix>
</trkpt>
<trkpt lat="64.1624777" lon="-139.8402246">
  <ele>1109.09</ele>
  <time>2026-09-01T20:02:07Z</time>
  <course>180.78</course>
  <speed>0.0</speed>
  <fix>3d</fix>
</trkpt>
<trkpt lat="64.1624776" lon="-139.8402244">
  <ele>1109.05</ele>
  <time>2026-09-01T20:02:07Z</time>
  <course>6.17</course>
  <speed>0.01414213562373095</speed>
  <fix>3d</fix>
</trkpt>
<trkpt lat="64.1624777" lon="-139.8402246">
  <ele>1109.09</ele>
  <time>2026-09-01T20:02:07Z</time>
  <course>180.78</course>
  <speed>0.0</speed>
  <fix>3d</fix>
</trkpt>
<trkpt lat="64.1624776" lon="-139.8402244">
  <ele>1109.04</ele>
  <time>2026-09-01T20:02:07Z</time>
  <course>6.17</course>
  <speed>0.01414213562373095</speed>
  <fix>3d</fix>
</trkpt>
<trkpt lat="64.1624777" lon="-139.8402246">
  <ele>1109.09</ele>
  <time>2026-09-01T20:02:07Z</time>
  <course>180.78</course>
  <speed>0.0</speed>
  <fix>3d</fix>
</trkpt>
<trkpt lat="64.1624776" lon="-139.8402244">
  <ele>1109.04</ele>
  <time>2026-09-01T20:02:07Z</time>
  <course>6.17</course>
  <speed>0.01414213562373095</speed>
  <fix>3d</fix>
</trkpt>
<trkpt lat="64.1624777" lon="-139.8402246">
  <ele>1109.09</ele>
  <time>2026-09-01T20:02:07Z</time>
  <course>180.78</course>
  <speed>0.0</speed>
  <fix>3d</fix>
</trkpt>
<trkpt lat="64.1624776" lon="-139.8402244">
  <ele>1109.04</ele>
  <time>2026-09-01T20:02:07Z</time>
  <course>6.17</course>
  <speed>0.01414213562373095</speed>
  <fix>3d</fix>
</trkpt>
<trkpt lat="64.1624777" lon="-139.8402246">
  <ele>1109.09</ele>
  <time>2026-09-01T20:02:07Z</time>
  <course>180.78</course>
  <speed>0.0</speed>
  <fix>3d</fix>
</trkpt>
<trkpt lat="64.1624776" lon="-139.8402244">
  <ele>1109.03</ele>
  <time>2026-09-01T20:02:07Z</time>
  <course>6.18</course>
  <speed>0.01414213562373095</speed>
  <fix>3d</fix>
</trkpt>
<trkpt lat="64.1624777" lon="-139.8402246">
  <ele>1109.09</ele>
  <time>2026-09-01T20:02:07Z</time>
  <course>180.78</course>
  <speed>0.0</speed>
  <fix>3d</fix>
</trkpt>
<trkpt lat="64.1624776" lon="-139.8402244">
  <ele>1109.03</ele>
  <time>2026-09-01T20:02:07Z</time>
  <course>6.18</course>
  <speed>0.01414213562373095</speed>
  <fix>3d</fix>
</trkpt>
<trkpt lat="64.1624777" lon="-139.8402246">
  <ele>1109.09</ele>
  <time>2026-09-01T20:02:07Z</time>
  <course>180.78</course>
  <speed>0.0</speed>
  <fix>3d</fix>
</trkpt>
<trkpt lat="64.1624776" lon="-139.8402244">
  <ele>1109.03</ele>
  <time>2026-09-01T20:02:07Z</time>
  <course>6.18</course>
  <speed>0.01414213562373095</speed>
  <fix>3d</fix>
</trkpt>
<trkpt lat="64.1624777" lon="-139.8402246">
  <ele>1109.09</ele>
  <time>2026-09-01T20:02:07Z</time>
  <course>180.78</course>
  <speed>0.0</speed>
  <fix>3d</fix>
</trkpt>
<trkpt lat="64.1624776" lon="-139.8402244">
  <ele>1109.03</ele>
  <time>2026-09-01T20:02:07Z</time>
  <course>6.18</course>
  <speed>0.01414213562373095</speed>
  <fix>3d</fix>
</trkpt>
<trkpt lat="64.1624777" lon="-139.8402246">
  <ele>1109.09</ele>
  <time>2026-09-01T20:02:07Z</time>
  <course>180.78</course>
  <speed>0.0</speed>
  <fix>3d</fix>
</trkpt>
<trkpt lat="64.1624776" lon="-139.8402244">
  <ele>1109.03</ele>
  <time>2026-09-01T20:02:07Z</time>
  <course>6.18</course>
  <speed>0.01414213562373095</speed>
  <fix>3d</fix>
</trkpt>
<trkpt lat="64.1624777" lon="-139.8402246">
  <ele>1109.09</ele>
  <time>2026-09-01T20:02:07Z</time>
  <course>180.78</course>
  <speed>0.0</speed>
  <fix>3d</fix>
</trkpt>
<trkpt lat="64.1624776" lon="-139.8402244">
  <ele>1109.03</ele>
  <time>2026-09-01T20:02:07Z</time>
  <course>6.18</course>
  <speed>0.01414213562373095</speed>
  <fix>3d</fix>
</trkpt>
<trkpt lat="64.1624777" lon="-139.8402246">
  <ele>1109.09</ele>
  <time>2026-09-01T20:02:07Z</time>
  <course>180.78</course>
  <speed>0.0</speed>
  <fix>3d</fix>
</trkpt>
<trkpt lat="64.1624776" lon="-139.8402244">
  <ele>1109.02</ele>
  <time>2026-09-01T20:02:07Z</time>
  <course>6.18</course>
  <speed>0.01414213562373095</speed>
  <fix>3d</fix>
</trkpt>
<trkpt lat="64.1624777" lon="-139.8402246">
  <ele>1109.09</ele>
  <time>2026-09-01T20:02:07Z</time>
  <course>180.78</course>
  <speed>0.0</speed>
  <fix>3d</fix>
</trkpt>
<trkpt lat="64.1624776" lon="-139.8402244">
  <ele>1109.02</ele>
  <time>2026-09-01T20:02:07Z</time>
  <course>6.19</course>
  <speed>0.01414213562373095</speed>
  <fix>3d</fix>
</trkpt>
<trkpt lat="64.1624777" lon="-139.8402246">
  <ele>1109.09</ele>
  <time>2026-09-01T20:02:07Z</time>
  <course>180.78</course>
  <speed>0.0</speed>
  <fix>3d</fix>
</trkpt>
<trkpt lat="64.1624776" lon="-139.8402244">
  <ele>1109.02</ele>
  <time>2026-09-01T20:02:07Z</time>
  <course>6.19</course>
  <speed>0.01414213562373095</speed>
  <fix>3d</fix>
</trkpt>
<trkpt lat="64.1624777" lon="-139.8402246">
  <ele>1109.09</ele>
  <time>2026-09-01T20:02:07Z</time>
  <course>180.78</course>
  <speed>0.0</speed>
  <fix>3d</fix>
</trkpt>
<trkpt lat="64.1624776" lon="-139.8402244">
  <ele>1109.02</ele>
  <time>2026-09-01T20:02:07Z</time>
  <course>6.19</course>
  <speed>0.01414213562373095</speed>
  <fix>3d</fix>
</trkpt>
<trkpt lat="64.1624777" lon="-139.8402246">
  <ele>1109.09</ele>
  <time>2026-09-01T20:02:07Z</time>
  <course>180.78</course>
  <speed>0.0</speed>
  <fix>3d</fix>
</trkpt>
<trkpt lat="64.1624776" lon="-139.8402244">
  <ele>1109.01</ele>
  <time>2026-09-01T20:02:07Z</time>
  <course>6.19</course>
  <speed>0.01414213562373095</speed>
  <fix>3d</fix>
</trkpt>
<trkpt lat="64.1624777" lon="-139.8402246">
  <ele>1109.09</ele>
  <time>2026-09-01T20:02:07Z</time>
  <course>180.78</course>
  <speed>0.0</speed>
  <fix>3d</fix>
</trkpt>
<trkpt lat="64.1624776" lon="-139.8402244">
  <ele>1109.01</ele>
  <time>2026-09-01T20:02:07Z</time>
  <course>6.19</course>
  <speed>0.01414213562373095</speed>
  <fix>3d</fix>
</trkpt>
<trkpt lat="64.1624777" lon="-139.8402246">
  <ele>1109.09</ele>
  <time>2026-09-01T20:02:07Z</time>
  <course>180.78</course>
  <speed>0.0</speed>
  <fix>3d</fix>
</trkpt>
<trkpt lat="64.1624776" lon="-139.8402244">
  <ele>1109.01</ele>
  <time>2026-09-01T20:02:07Z</time>
  <course>6.19</course>
  <speed>0.01414213562373095</speed>
  <fix>3d</fix>
</trkpt>
<trkpt lat="64.1624777" lon="-139.8402246">
  <ele>1109.09</ele>
  <time>2026-09-01T20:02:07Z</time>
  <course>180.78</course>
  <speed>0.0</speed>
  <fix>3d</fix>
</trkpt>
<trkpt lat="64.1624776" lon="-139.8402244">
  <ele>1109.01</ele>
  <time>2026-09-01T20:02:07Z</time>
  <course>6.19</course>
  <speed>0.022360679774997897</speed>
  <fix>3d</fix>
</trkpt>
<trkpt lat="64.1624777" lon="-139.8402246">
  <ele>1109.09</ele>
  <time>2026-09-01T20:02:07Z</time>
  <course>180.78</course>
  <speed>0.0</speed>
  <fix>3d</fix>
</trkpt>
<trkpt lat="64.1624776" lon="-139.8402244">
  <ele>1109.01</ele>
  <time>2026-09-01T20:02:07Z</time>
  <course>6.19</course>
  <speed>0.01414213562373095</speed>
  <fix>3d</fix>
</trkpt>
<trkpt lat="64.1624777" lon="-139.8402246">
  <ele>1109.09</ele>
  <time>2026-09-01T20:02:07Z</time>
  <course>180.78</course>
  <speed>0.0</speed>
  <fix>3d</fix>
</trkpt>
<trkpt lat="64.1624776" lon="-139.8402244">
  <ele>1109.01</ele>
  <time>2026-09-01T20:02:07Z</time>
  <course>6.2</course>
  <speed>0.022360679774997897</speed>
  <fix>3d</fix>
</trkpt>
<trkpt lat="64.1624777" lon="-139.8402246">
  <ele>1109.09</ele>
  <time>2026-09-01T20:02:07Z</time>
  <course>180.78</course>
  <speed>0.0</speed>
  <fix>3d</fix>
</trkpt>
<trkpt lat="64.1624776" lon="-139.8402244">
  <ele>1109.01</ele>
  <time>2026-09-01T20:02:07Z</time>
  <course>6.2</course>
  <speed>0.01414213562373095</speed>
  <fix>3d</fix>
</trkpt>
<trkpt lat="64.1624777" lon="-139.8402246">
  <ele>1109.09</ele>
  <time>2026-09-01T20:02:07Z</time>
  <course>180.78</course>
  <speed>0.0</speed>
  <fix>3d</fix>
</trkpt>
<trkpt lat="64.1624776" lon="-139.8402243">
  <ele>1109.01</ele>
  <time>2026-09-01T20:02:07Z</time>
  <course>6.2</course>
  <speed>0.022360679774997897</speed>
  <fix>3d</fix>
</trkpt>
<trkpt lat="64.1624777" lon="-139.8402246">
  <ele>1109.09</ele>
  <time>2026-09-01T20:02:07Z</time>
  <course>180.78</course>
  <speed>0.0</speed>
  <fix>3d</fix>
</trkpt>
<trkpt lat="64.1624776" lon="-139.8402244">
  <ele>1109.01</ele>
  <time>2026-09-01T20:02:07Z</time>
  <course>6.2</course>
  <speed>0.01414213562373095</speed>
  <fix>3d</fix>
</trkpt>
<trkpt lat="64.1624777" lon="-139.8402246">
  <ele>1109.09</ele>
  <time>2026-09-01T20:02:07Z</time>
  <course>180.78</course>
  <speed>0.0</speed>
  <fix>3d</fix>
</trkpt>
<trkpt lat="64.1624776" lon="-139.8402243">
  <ele>1109.01</ele>
  <time>2026-09-01T20:02:07Z</time>
  <course>6.2</course>
  <speed>0.022360679774997897</speed>
  <fix>3d</fix>
</trkpt>
<trkpt lat="64.1624777" lon="-139.8402246">
  <ele>1109.09</ele>
  <time>2026-09-01T20:02:07Z</time>
  <course>180.78</course>
  <speed>0.0</speed>
  <fix>3d</fix>
</trkpt>
<trkpt lat="64.1624776" lon="-139.8402244">
  <ele>1109.01</ele>
  <time>2026-09-01T20:02:07Z</time>
  <course>6.2</course>
  <speed>0.01414213562373095</speed>
  <fix>3d</fix>
</trkpt>
<trkpt lat="64.1624777" lon="-139.8402246">
  <ele>1109.09</ele>
  <time>2026-09-01T20:02:07Z</time>
  <course>180.78</course>
  <speed>0.0</speed>
  <fix>3d</fix>
</trkpt>
<trkpt lat="64.1624776" lon="-139.8402243">
  <ele>1109.0</ele>
  <time>2026-09-01T20:02:07Z</time>
  <course>6.2</course>
  <speed>0.022360679774997897</speed>
  <fix>3d</fix>
</trkpt>
<trkpt lat="64.1624777" lon="-139.8402246">
  <ele>1109.09</ele>
  <time>2026-09-01T20:02:07Z</time>
  <course>180.78</course>
  <speed>0.0</speed>
  <fix>3d</fix>
</trkpt>
<trkpt lat="64.1624776" lon="-139.8402244">
  <ele>1109.0</ele>
  <time>2026-09-01T20:02:07Z</time>
  <course>6.2</course>
  <speed>0.022360679774997897</speed>
  <fix>3d</fix>
</trkpt>
<trkpt lat="64.1624777" lon="-139.8402246">
  <ele>1109.09</ele>
  <time>2026-09-01T20:02:07Z</time>
  <course>180.78</course>
  <speed>0.0</speed>
  <fix>3d</fix>
</trkpt>
<trkpt lat="64.1624776" lon="-139.8402243">
  <ele>1109.0</ele>
  <time>2026-09-01T20:02:07Z</time>
  <course>6.21</course>
  <speed>0.022360679774997897</speed>
  <fix>3d</fix>
</trkpt>
<trkpt lat="64.1624777" lon="-139.8402246">
  <ele>1109.09</ele>
  <time>2026-09-01T20:02:07Z</time>
  <course>180.78</course>
  <speed>0.0</speed>
  <fix>3d</fix>
</trkpt>
<trkpt lat="64.1624776" lon="-139.8402244">
  <ele>1109.0</ele>
  <time>2026-09-01T20:02:07Z</time>
  <course>6.21</course>
  <speed>0.022360679774997897</speed>
  <fix>3d</fix>
</trkpt>
<trkpt lat="64.1624777" lon="-139.8402246">
  <ele>1109.09</ele>
  <time>2026-09-01T20:02:07Z</time>
  <course>180.78</course>
  <speed>0.0</speed>
  <fix>3d</fix>
</trkpt>
<trkpt lat="64.1624776" lon="-139.8402243">
  <ele>1109.0</ele>
  <time>2026-09-01T20:02:07Z</time>
  <course>6.21</course>
  <speed>0.022360679774997897</speed>
  <fix>3d</fix>
</trkpt>
<trkpt lat="64.1624777" lon="-139.8402246">
  <ele>1109.09</ele>
  <time>2026-09-01T20:02:07Z</time>
  <course>180.78</course>
  <speed>0.0</speed>
  <fix>3d</fix>
</trkpt>
<trkpt lat="64.1624776" lon="-139.8402243">
  <ele>1109.0</ele>
  <time>2026-09-01T20:02:07Z</time>
  <course>6.21</course>
  <speed>0.022360679774997897</speed>
  <fix>3d</fix>
</trkpt>
<trkpt lat="64.1624777" lon="-139.8402246">
  <ele>1109.09</ele>
  <time>2026-09-01T20:02:07Z</time>
  <course>180.78</course>
  <speed>0.0</speed>
  <fix>3d</fix>
</trkpt>
<trkpt lat="64.1624776" lon="-139.8402243">
  <ele>1108.99</ele>
  <time>2026-09-01T20:02:07Z</time>
  <course>6.21</course>
  <speed>0.022360679774997897</speed>
  <fix>3d</fix>
</trkpt>
<trkpt lat="64.1624777" lon="-139.8402246">
  <ele>1109.09</ele>
  <time>2026-09-01T20:02:07Z</time>
  <course>180.78</course>
  <speed>0.0</speed>
  <fix>3d</fix>
</trkpt>
<trkpt lat="64.1624776" lon="-139.8402243">
  <ele>1109.08</ele>
  <time>2026-09-01T20:02:07Z</time>
  <course>6.21</course>
  <speed>0.022360679774997897</speed>
  <fix>3d</fix>
</trkpt>
<trkpt lat="64.1624777" lon="-139.8402246">
  <ele>1109.09</ele>
  <time>2026-09-01T20:02:07Z</time>
  <course>180.78</course>
  <speed>0.0</speed>
  <fix>3d</fix>
</trkpt>
<trkpt lat="64.1624776" lon="-139.8402243">
  <ele>1109.08</ele>
  <time>2026-09-01T20:02:07Z</time>
  <course>6.21</course>
  <speed>0.022360679774997897</speed>
  <fix>3d</fix>
</trkpt>
<trkpt lat="64.1624777" lon="-139.8402246">
  <ele>1109.09</ele>
  <time>2026-09-01T20:02:07Z</time>
  <course>180.78</course>
  <speed>0.0</speed>
  <fix>3d</fix>
</trkpt>
<trkpt lat="64.1624776" lon="-139.8402243">
  <ele>1109.08</ele>
  <time>2026-09-01T20:02:07Z</time>
  <course>6.22</course>
  <speed>0.022360679774997897</speed>
  <fix>3d</fix>
</trkpt>
<trkpt lat="64.1624777" lon="-139.8402246">
  <ele>1109.09</ele>
  <time>2026-09-01T20:02:07Z</time>
  <course>180.78</course>
  <speed>0.0</speed>
  <fix>3d</fix>
</trkpt>
<trkpt lat="64.1624776" lon="-139.8402243">
  <ele>1109.08</ele>
  <time>2026-09-01T20:02:07Z</time>
  <course>6.22</course>
  <speed>0.022360679774997897</speed>
  <fix>3d</fix>
</trkpt>
<trkpt lat="64.1624777" lon="-139.8402246">
  <ele>1109.09</ele>
  <time>2026-09-01T20:02:07Z</time>
  <course>180.78</course>
  <speed>0.0</speed>
  <fix>3d</fix>
</trkpt>
<trkpt lat="64.1624776" lon="-139.8402243">
  <ele>1109.08</ele>
  <time>2026-09-01T20:02:07Z</time>
  <course>6.22</course>
  <speed>0.022360679774997897</speed>
  <fix>3d</fix>
</trkpt>
<trkpt lat="64.1624777" lon="-139.8402246">
  <ele>1109.09</ele>
  <time>2026-09-01T20:02:07Z</time>
  <course>180.78</course>
  <speed>0.0</speed>
  <fix>3d</fix>
</trkpt>
<trkpt lat="64.1624776" lon="-139.8402243">
  <ele>1109.09</ele>
  <time>2026-09-01T20:02:07Z</time>
  <course>6.22</course>
  <speed>0.022360679774997897</speed>
  <fix>3d</fix>
</trkpt>
<trkpt lat="64.1624777" lon="-139.8402246">
  <ele>1109.09</ele>
  <time>2026-09-01T20:02:07Z</time>
  <course>180.78</course>
  <speed>0.0</speed>
  <fix>3d</fix>
</trkpt>
<trkpt lat="64.1624776" lon="-139.8402243">
  <ele>1109.09</ele>
  <time>2026-09-01T20:02:07Z</time>
  <course>6.22</course>
  <speed>0.022360679774997897</speed>
  <fix>3d</fix>
</trkpt>
<trkpt lat="64.1624777" lon="-139.8402246">
  <ele>1109.09</ele>
  <time>2026-09-01T20:02:07Z</time>
  <course>180.78</course>
  <speed>0.0</speed>
  <fix>3d</fix>
</trkpt>
<trkpt lat="64.1624776" lon="-139.8402243">
  <ele>1109.09</ele>
  <time>2026-09-01T20:02:07Z</time>
  <course>6.22</course>
  <speed>0.022360679774997897</speed>
  <fix>3d</fix>
</trkpt>
<trkpt lat="64.1624777" lon="-139.8402246">
  <ele>1109.09</ele>
  <time>2026-09-01T20:02:07Z</time>
  <course>180.78</course>
  <speed>0.0</speed>
  <fix>3d</fix>
</trkpt>
<trkpt lat="64.1624776" lon="-139.8402243">
  <ele>1109.1</ele>
  <time>2026-09-01T20:02:07Z</time>
  <course>6.22</course>
  <speed>0.022360679774997897</speed>
  <fix>3d</fix>
</trkpt>
<trkpt lat="64.1624777" lon="-139.8402246">
  <ele>1109.09</ele>
  <time>2026-09-01T20:02:07Z</time>
  <course>180.78</course>
  <speed>0.0</speed>
  <fix>3d</fix>
</trkpt>
<trkpt lat="64.1624776" lon="-139.8402243">
  <ele>1109.1</ele>
  <time>2026-09-01T20:02:07Z</time>
  <course>6.22</course>
  <speed>0.022360679774997897</speed>
  <fix>3d</fix>
</trkpt>
<trkpt lat="64.1624777" lon="-139.8402246">
  <ele>1109.09</ele>
  <time>2026-09-01T20:02:07Z</time>
  <course>180.78</course>
  <speed>0.0</speed>
  <fix>3d</fix>
</trkpt>
<trkpt lat="64.1624776" lon="-139.8402243">
  <ele>1109.11</ele>
  <time>2026-09-01T20:02:07Z</time>
  <course>6.23</course>
  <speed>0.022360679774997897</speed>
  <fix>3d</fix>
</trkpt>
<trkpt lat="64.1624777" lon="-139.8402246">
  <ele>1109.09</ele>
  <time>2026-09-01T20:02:07Z</time>
  <course>180.78</course>
  <speed>0.0</speed>
  <fix>3d</fix>
</trkpt>
<trkpt lat="64.1624776" lon="-139.8402243">
  <ele>1109.11</ele>
  <time>2026-09-01T20:02:07Z</time>
  <course>6.23</course>
  <speed>0.022360679774997897</speed>
  <fix>3d</fix>
</trkpt>
<trkpt lat="64.1624777" lon="-139.8402246">
  <ele>1109.09</ele>
  <time>2026-09-01T20:02:07Z</time>
  <course>180.78</course>
  <speed>0.0</speed>
  <fix>3d</fix>
</trkpt>
<trkpt lat="64.1624776" lon="-139.8402243">
  <ele>1109.11</ele>
  <time>2026-09-01T20:02:07Z</time>
  <course>6.23</course>
  <speed>0.022360679774997897</speed>
  <fix>3d</fix>
</trkpt>
<trkpt lat="64.1624777" lon="-139.8402246">
  <ele>1109.09</ele>
  <time>2026-09-01T20:02:07Z</time>
  <course>180.78</course>
  <speed>0.0</speed>
  <fix>3d</fix>
</trkpt>
<trkpt lat="64.1624776" lon="-139.8402243">
  <ele>1109.12</ele>
  <time>2026-09-01T20:02:07Z</time>
  <course>6.23</course>
  <speed>0.022360679774997897</speed>
  <fix>3d</fix>
</trkpt>
<trkpt lat="64.1624777" lon="-139.8402246">
  <ele>1109.09</ele>
  <time>2026-09-01T20:02:07Z</time>
  <course>180.78</course>
  <speed>0.0</speed>
  <fix>3d</fix>
</trkpt>
<trkpt lat="64.1624776" lon="-139.8402243">
  <ele>1109.12</ele>
  <time>2026-09-01T20:02:07Z</time>
  <course>6.23</course>
  <speed>0.022360679774997897</speed>
  <fix>3d</fix>
</trkpt>
<trkpt lat="64.1624777" lon="-139.8402246">
  <ele>1109.09</ele>
  <time>2026-09-01T20:02:07Z</time>
  <course>180.78</course>
  <speed>0.0</speed>
  <fix>3d</fix>
</trkpt>
<trkpt lat="64.1624776" lon="-139.8402243">
  <ele>1109.12</ele>
  <time>2026-09-01T20:02:07Z</time>
  <course>6.23</course>
  <speed>0.022360679774997897</speed>
  <fix>3d</fix>
</trkpt>
<trkpt lat="64.1624777" lon="-139.8402246">
  <ele>1109.09</ele>
  <time>2026-09-01T20:02:07Z</time>
  <course>180.78</course>
  <speed>0.0</speed>
  <fix>3d</fix>
</trkpt>
<trkpt lat="64.1624776" lon="-139.8402243">
  <ele>1109.13</ele>
  <time>2026-09-01T20:02:07Z</time>
  <course>6.23</course>
  <speed>0.022360679774997897</speed>
  <fix>3d</fix>
</trkpt>
<trkpt lat="64.1624777" lon="-139.8402246">
  <ele>1109.09</ele>
  <time>2026-09-01T20:02:07Z</time>
  <course>180.78</course>
  <speed>0.0</speed>
  <fix>3d</fix>
</trkpt>
<trkpt lat="64.1624776" lon="-139.8402243">
  <ele>1109.13</ele>
  <time>2026-09-01T20:02:07Z</time>
  <course>6.23</course>
  <speed>0.022360679774997897</speed>
  <fix>3d</fix>
</trkpt>
<trkpt lat="64.1624777" lon="-139.8402246">
  <ele>1109.09</ele>
  <time>2026-09-01T20:02:07Z</time>
  <course>180.78</course>
  <speed>0.0</speed>
  <fix>3d</fix>
</trkpt>
<trkpt lat="64.1624776" lon="-139.8402243">
  <ele>1109.13</ele>
  <time>2026-09-01T20:02:07Z</time>
  <course>6.24</course>
  <speed>0.022360679774997897</speed>
  <fix>3d</fix>
</trkpt>
<trkpt lat="64.1624777" lon="-139.8402246">
  <ele>1109.09</ele>
  <time>2026-09-01T20:02:07Z</time>
  <course>180.78</course>
  <speed>0.0</speed>
  <fix>3d</fix>
</trkpt>
<trkpt lat="64.1624776" lon="-139.8402243">
  <ele>1109.14</ele>
  <time>2026-09-01T20:02:07Z</time>
  <course>6.24</course>
  <speed>0.022360679774997897</speed>
  <fix>3d</fix>
</trkpt>
<trkpt lat="64.1624777" lon="-139.8402246">
  <ele>1109.09</ele>
  <time>2026-09-01T20:02:07Z</time>
  <course>180.78</course>
  <speed>0.0</speed>
  <fix>3d</fix>
</trkpt>
<trkpt lat="64.1624776" lon="-139.8402243">
  <ele>1109.14</ele>
  <time>2026-09-01T20:02:07Z</time>
  <course>6.24</course>
  <speed>0.022360679774997897</speed>
  <fix>3d</fix>
</trkpt>
<trkpt lat="64.1624777" lon="-139.8402246">
  <ele>1109.09</ele>
  <time>2026-09-01T20:02:07Z</time>
  <course>180.78</course>
  <speed>0.0</speed>
  <fix>3d</fix>
</trkpt>
<trkpt lat="64.1624776" lon="-139.8402243">
  <ele>1109.15</ele>
  <time>2026-09-01T20:02:07Z</time>
  <course>6.24</course>
  <speed>0.022360679774997897</speed>
  <fix>3d</fix>
</trkpt>
<trkpt lat="64.1624777" lon="-139.8402246">
  <ele>1109.09</ele>
  <time>2026-09-01T20:02:07Z</time>
  <course>180.78</course>
  <speed>0.0</speed>
  <fix>3d</fix>
</trkpt>
<trkpt lat="64.1624776" lon="-139.8402243">
  <ele>1109.15</ele>
  <time>2026-09-01T20:02:07Z</time>
  <course>6.24</course>
  <speed>0.022360679774997897</speed>
  <fix>3d</fix>
</trkpt>
<trkpt lat="64.1624777" lon="-139.8402246">
  <ele>1109.09</ele>
  <time>2026-09-01T20:02:07Z</time>
  <course>180.78</course>
  <speed>0.0</speed>
  <fix>3d</fix>
</trkpt>
<trkpt lat="64.1624776" lon="-139.8402243">
  <ele>1109.16</ele>
  <time>2026-09-01T20:02:07Z</time>
  <course>6.24</course>
  <speed>0.022360679774997897</speed>
  <fix>3d</fix>
</trkpt>
<trkpt lat="64.1624777" lon="-139.8402246">
  <ele>1109.09</ele>
  <time>2026-09-01T20:02:07Z</time>
  <course>180.78</course>
  <speed>0.0</speed>
  <fix>3d</fix>
</trkpt>
<trkpt lat="64.1624776" lon="-139.8402243">
  <ele>1109.16</ele>
  <time>2026-09-01T20:02:07Z</time>
  <course>6.24</course>
  <speed>0.022360679774997897</speed>
  <fix>3d</fix>
</trkpt>
<trkpt lat="64.1624777" lon="-139.8402246">
  <ele>1109.09</ele>
  <time>2026-09-01T20:02:07Z</time>
  <course>180.78</course>
  <speed>0.0</speed>
  <fix>3d</fix>
</trkpt>
<trkpt lat="64.1624776" lon="-139.8402243">
  <ele>1109.17</ele>
  <time>2026-09-01T20:02:07Z</time>
  <course>6.24</course>
  <speed>0.022360679774997897</speed>
  <fix>3d</fix>
</trkpt>
<trkpt lat="64.1624777" lon="-139.8402246">
  <ele>1109.09</ele>
  <time>2026-09-01T20:02:07Z</time>
  <course>180.78</course>
  <speed>0.0</speed>
  <fix>3d</fix>
</trkpt>
<trkpt lat="64.1624776" lon="-139.8402243">
  <ele>1109.17</ele>
  <time>2026-09-01T20:02:07Z</time>
  <course>6.25</course>
  <speed>0.022360679774997897</speed>
  <fix>3d</fix>
</trkpt>
<trkpt lat="64.1624777" lon="-139.8402246">
  <ele>1109.09</ele>
  <time>2026-09-01T20:02:07Z</time>
  <course>180.78</course>
  <speed>0.0</speed>
  <fix>3d</fix>
</trkpt>
<trkpt lat="64.1624776" lon="-139.8402243">
  <ele>1109.17</ele>
  <time>2026-09-01T20:02:07Z</time>
  <course>6.25</course>
  <speed>0.022360679774997897</speed>
  <fix>3d</fix>
</trkpt>
<trkpt lat="64.1624777" lon="-139.8402246">
  <ele>1109.09</ele>
  <time>2026-09-01T20:02:07Z</time>
  <course>180.78</course>
  <speed>0.0</speed>
  <fix>3d</fix>
</trkpt>
<trkpt lat="64.1624776" lon="-139.8402243">
  <ele>1109.18</ele>
  <time>2026-09-01T20:02:07Z</time>
  <course>6.25</course>
  <speed>0.022360679774997897</speed>
  <fix>3d</fix>
</trkpt>
<trkpt lat="64.1624777" lon="-139.8402246">
  <ele>1109.09</ele>
  <time>2026-09-01T20:02:07Z</time>
  <course>180.78</course>
  <speed>0.0</speed>
  <fix>3d</fix>
</trkpt>
<trkpt lat="64.1624776" lon="-139.8402243">
  <ele>1109.18</ele>
  <time>2026-09-01T20:02:07Z</time>
  <course>6.25</course>
  <speed>0.022360679774997897</speed>
  <fix>3d</fix>
</trkpt>
<trkpt lat="64.1624777" lon="-139.8402246">
  <ele>1109.09</ele>
  <time>2026-09-01T20:02:07Z</time>
  <course>180.78</course>
  <speed>0.0</speed>
  <fix>3d</fix>
</trkpt>
<trkpt lat="64.1624776" lon="-139.8402243">
  <ele>1109.18</ele>
  <time>2026-09-01T20:02:07Z</time>
  <course>6.25</course>
  <speed>0.022360679774997897</speed>
  <fix>3d</fix>
</trkpt>
<trkpt lat="64.1624777" lon="-139.8402246">
  <ele>1109.09</ele>
  <time>2026-09-01T20:02:07Z</time>
  <course>180.78</course>
  <speed>0.0</speed>
  <fix>3d</fix>
</trkpt>
<trkpt lat="64.1624776" lon="-139.8402243">
  <ele>1109.18</ele>
  <time>2026-09-01T20:02:07Z</time>
  <course>6.25</course>
  <speed>0.022360679774997897</speed>
  <fix>3d</fix>
</trkpt>
<trkpt lat="64.1624777" lon="-139.8402246">
  <ele>1109.09</ele>
  <time>2026-09-01T20:02:07Z</time>
  <course>180.78</course>
  <speed>0.0</speed>
  <fix>3d</fix>
</trkpt>
<trkpt lat="64.1624776" lon="-139.8402243">
  <ele>1109.18</ele>
  <time>2026-09-01T20:02:07Z</time>
  <course>6.25</course>
  <speed>0.022360679774997897</speed>
  <fix>3d</fix>
</trkpt>
<trkpt lat="64.1624777" lon="-139.8402246">
  <ele>1109.09</ele>
  <time>2026-09-01T20:02:07Z</time>
  <course>180.78</course>
  <speed>0.0</speed>
  <fix>3d</fix>
</trkpt>
<trkpt lat="64.1624776" lon="-139.8402243">
  <ele>1109.18</ele>
  <time>2026-09-01T20:02:07Z</time>
  <course>6.25</course>
  <speed>0.022360679774997897</speed>
  <fix>3d</fix>
</trkpt>
<trkpt lat="64.1624777" lon="-139.8402246">
  <ele>1109.09</ele>
  <time>2026-09-01T20:02:07Z</time>
  <course>180.78</course>
  <speed>0.0</speed>
  <fix>3d</fix>
</trkpt>
<trkpt lat="64.1624776" lon="-139.8402243">
  <ele>1109.19</ele>
  <time>2026-09-01T20:02:07Z</time>
  <course>6.26</course>
  <speed>0.022360679774997897</speed>
  <fix>3d</fix>
</trkpt>
<trkpt lat="64.1624777" lon="-139.8402246">
  <ele>1109.09</ele>
  <time>2026-09-01T20:02:07Z</time>
  <course>180.78</course>
  <speed>0.0</speed>
  <fix>3d</fix>
</trkpt>
<trkpt lat="64.1624776" lon="-139.8402243">
  <ele>1109.19</ele>
  <time>2026-09-01T20:02:07Z</time>
  <course>6.26</course>
  <speed>0.022360679774997897</speed>
  <fix>3d</fix>
</trkpt>
<trkpt lat="64.1624777" lon="-139.8402246">
  <ele>1109.09</ele>
  <time>2026-09-01T20:02:07Z</time>
  <course>180.78</course>
  <speed>0.0</speed>
  <fix>3d</fix>
</trkpt>
<trkpt lat="64.1624776" lon="-139.8402243">
  <ele>1109.19</ele>
  <time>2026-09-01T20:02:07Z</time>
  <course>6.26</course>
  <speed>0.022360679774997897</speed>
  <fix>3d</fix>
</trkpt>
<trkpt lat="64.1624777" lon="-139.8402246">
  <ele>1109.09</ele>
  <time>2026-09-01T20:02:07Z</time>
  <course>180.78</course>
  <speed>0.0</speed>
  <fix>3d</fix>
</trkpt>
<trkpt lat="64.1624776" lon="-139.8402243">
  <ele>1109.19</ele>
  <time>2026-09-01T20:02:07Z</time>
  <course>6.26</course>
  <speed>0.022360679774997897</speed>
  <fix>3d</fix>
</trkpt>
<trkpt lat="64.1624777" lon="-139.8402246">
  <ele>1109.09</ele>
  <time>2026-09-01T20:02:07Z</time>
  <course>180.78</course>
  <speed>0.0</speed>
  <fix>3d</fix>
</trkpt>
<trkpt lat="64.1624776" lon="-139.8402243">
  <ele>1109.19</ele>
  <time>2026-09-01T20:02:07Z</time>
  <course>6.26</course>
  <speed>0.022360679774997897</speed>
  <fix>3d</fix>
</trkpt>
<trkpt lat="64.1624777" lon="-139.8402246">
  <ele>1109.09</ele>
  <time>2026-09-01T20:02:07Z</time>
  <course>180.78</course>
  <speed>0.0</speed>
  <fix>3d</fix>
</trkpt>
<trkpt lat="64.1624776" lon="-139.8402243">
  <ele>1109.19</ele>
  <time>2026-09-01T20:02:07Z</time>
  <course>6.26</course>
  <speed>0.022360679774997897</speed>
  <fix>3d</fix>
</trkpt>
<trkpt lat="64.1624777" lon="-139.8402246">
  <ele>1109.09</ele>
  <time>2026-09-01T20:02:07Z</time>
  <course>180.78</course>
  <speed>0.0</speed>
  <fix>3d</fix>
</trkpt>
<trkpt lat="64.1624776" lon="-139.8402243">
  <ele>1109.19</ele>
  <time>2026-09-01T20:02:08Z</time>
  <course>6.26</course>
  <speed>0.022360679774997897</speed>
  <fix>3d</fix>
</trkpt>
<trkpt lat="64.1624777" lon="-139.8402246">
  <ele>1109.09</ele>
  <time>2026-09-01T20:02:08Z</time>
  <course>180.78</course>
  <speed>0.0</speed>
  <fix>3d</fix>
</trkpt>
<trkpt lat="64.1624776" lon="-139.8402243">
  <ele>1109.19</ele>
  <time>2026-09-01T20:02:08Z</time>
  <course>6.26</course>
  <speed>0.022360679774997897</speed>
  <fix>3d</fix>
</trkpt>
<trkpt lat="64.1624777" lon="-139.8402246">
  <ele>1109.09</ele>
  <time>2026-09-01T20:02:08Z</time>
  <course>180.78</course>
  <speed>0.0</speed>
  <fix>3d</fix>
</trkpt>
<trkpt lat="64.1624776" lon="-139.8402243">
  <ele>1109.19</ele>
  <time>2026-09-01T20:02:08Z</time>
  <course>6.27</course>
  <speed>0.022360679774997897</speed>
  <fix>3d</fix>
</trkpt>
<trkpt lat="64.1624777" lon="-139.8402246">
  <ele>1109.09</ele>
  <time>2026-09-01T20:02:08Z</time>
  <course>180.78</course>
  <speed>0.0</speed>
  <fix>3d</fix>
</trkpt>
<trkpt lat="64.1624776" lon="-139.8402243">
  <ele>1109.19</ele>
  <time>2026-09-01T20:02:08Z</time>
  <course>6.27</course>
  <speed>0.022360679774997897</speed>
  <fix>3d</fix>
</trkpt>
<trkpt lat="64.1624777" lon="-139.8402246">
  <ele>1109.09</ele>
  <time>2026-09-01T20:02:08Z</time>
  <course>180.78</course>
  <speed>0.0</speed>
  <fix>3d</fix>
</trkpt>
<trkpt lat="64.1624776" lon="-139.8402243">
  <ele>1109.19</ele>
  <time>2026-09-01T20:02:08Z</time>
  <course>6.27</course>
  <speed>0.022360679774997897</speed>
  <fix>3d</fix>
</trkpt>
<trkpt lat="64.1624777" lon="-139.8402246">
  <ele>1109.09</ele>
  <time>2026-09-01T20:02:08Z</time>
  <course>180.78</course>
  <speed>0.0</speed>
  <fix>3d</fix>
</trkpt>
<trkpt lat="64.1624776" lon="-139.8402243">
  <ele>1109.19</ele>
  <time>2026-09-01T20:02:08Z</time>
  <course>6.27</course>
  <speed>0.022360679774997897</speed>
  <fix>3d</fix>
</trkpt>
<trkpt lat="64.1624777" lon="-139.8402246">
  <ele>1109.09</ele>
  <time>2026-09-01T20:02:08Z</time>
  <course>180.78</course>
  <speed>0.0</speed>
  <fix>3d</fix>
</trkpt>
<trkpt lat="64.1624776" lon="-139.8402243">
  <ele>1109.19</ele>
  <time>2026-09-01T20:02:08Z</time>
  <course>6.27</course>
  <speed>0.022360679774997897</speed>
  <fix>3d</fix>
</trkpt>
<trkpt lat="64.1624777" lon="-139.8402246">
  <ele>1109.09</ele>
  <time>2026-09-01T20:02:08Z</time>
  <course>180.78</course>
  <speed>0.0</speed>
  <fix>3d</fix>
</trkpt>
<trkpt lat="64.1624776" lon="-139.8402243">
  <ele>1109.19</ele>
  <time>2026-09-01T20:02:08Z</time>
  <course>6.27</course>
  <speed>0.022360679774997897</speed>
  <fix>3d</fix>
</trkpt>
<trkpt lat="64.1624777" lon="-139.8402246">
  <ele>1109.09</ele>
  <time>2026-09-01T20:02:08Z</time>
  <course>180.78</course>
  <speed>0.0</speed>
  <fix>3d</fix>
</trkpt>
<trkpt lat="64.1624776" lon="-139.8402243">
  <ele>1109.19</ele>
  <time>2026-09-01T20:02:08Z</time>
  <course>6.27</course>
  <speed>0.022360679774997897</speed>
  <fix>3d</fix>
</trkpt>
<trkpt lat="64.1624777" lon="-139.8402246">
  <ele>1109.09</ele>
  <time>2026-09-01T20:02:08Z</time>
  <course>180.78</course>
  <speed>0.0</speed>
  <fix>3d</fix>
</trkpt>
<trkpt lat="64.1624776" lon="-139.8402243">
  <ele>1109.19</ele>
  <time>2026-09-01T20:02:08Z</time>
  <course>6.28</course>
  <speed>0.022360679774997897</speed>
  <fix>3d</fix>
</trkpt>
<trkpt lat="64.1624777" lon="-139.8402246">
  <ele>1109.09</ele>
  <time>2026-09-01T20:02:08Z</time>
  <course>180.78</course>
  <speed>0.0</speed>
  <fix>3d</fix>
</trkpt>
<trkpt lat="64.1624776" lon="-139.8402243">
  <ele>1109.19</ele>
  <time>2026-09-01T20:02:08Z</time>
  <course>6.28</course>
  <speed>0.022360679774997897</speed>
  <fix>3d</fix>
</trkpt>
<trkpt lat="64.1624777" lon="-139.8402246">
  <ele>1109.09</ele>
  <time>2026-09-01T20:02:08Z</time>
  <course>180.78</course>
  <speed>0.0</speed>
  <fix>3d</fix>
</trkpt>
<trkpt lat="64.1624776" lon="-139.8402243">
  <ele>1109.19</ele>
  <time>2026-09-01T20:02:08Z</time>
  <course>6.28</course>
  <speed>0.022360679774997897</speed>
  <fix>3d</fix>
</trkpt>
<trkpt lat="64.1624777" lon="-139.8402246">
  <ele>1109.09</ele>
  <time>2026-09-01T20:02:08Z</time>
  <course>180.78</course>
  <speed>0.0</speed>
  <fix>3d</fix>
</trkpt>
<trkpt lat="64.1624776" lon="-139.8402243">
  <ele>1109.19</ele>
  <time>2026-09-01T20:02:08Z</time>
  <course>6.28</course>
  <speed>0.022360679774997897</speed>
  <fix>3d</fix>
</trkpt>
<trkpt lat="64.1624777" lon="-139.8402246">
  <ele>1109.09</ele>
  <time>2026-09-01T20:02:08Z</time>
  <course>180.78</course>
  <speed>0.0</speed>
  <fix>3d</fix>
</trkpt>
<trkpt lat="64.1624776" lon="-139.8402243">
  <ele>1109.19</ele>
  <time>2026-09-01T20:02:08Z</time>
  <course>6.28</course>
  <speed>0.022360679774997897</speed>
  <fix>3d</fix>
</trkpt>
<trkpt lat="64.1624777" lon="-139.8402246">
  <ele>1109.09</ele>
  <time>2026-09-01T20:02:08Z</time>
  <course>180.78</course>
  <speed>0.0</speed>
  <fix>3d</fix>
</trkpt>
<trkpt lat="64.1624776" lon="-139.8402243">
  <ele>1109.19</ele>
  <time>2026-09-01T20:02:08Z</time>
  <course>6.28</course>
  <speed>0.022360679774997897</speed>
  <fix>3d</fix>
</trkpt>
<trkpt lat="64.1624777" lon="-139.8402246">
  <ele>1109.09</ele>
  <time>2026-09-01T20:02:08Z</time>
  <course>180.78</course>
  <speed>0.0</speed>
  <fix>3d</fix>
</trkpt>
<trkpt lat="64.1624776" lon="-139.8402243">
  <ele>1109.19</ele>
  <time>2026-09-01T20:02:08Z</time>
  <course>6.28</course>
  <speed>0.022360679774997897</speed>
  <fix>3d</fix>
</trkpt>
<trkpt lat="64.1624777" lon="-139.8402246">
  <ele>1109.09</ele>
  <time>2026-09-01T20:02:08Z</time>
  <course>180.78</course>
  <speed>0.0</speed>
  <fix>3d</fix>
</trkpt>
<trkpt lat="64.1624776" lon="-139.8402243">
  <ele>1109.19</ele>
  <time>2026-09-01T20:02:08Z</time>
  <course>6.28</course>
  <speed>0.022360679774997897</speed>
  <fix>3d</fix>
</trkpt>
<trkpt lat="64.1624777" lon="-139.8402246">
  <ele>1109.09</ele>
  <time>2026-09-01T20:02:08Z</time>
  <course>180.78</course>
  <speed>0.0</speed>
  <fix>3d</fix>
</trkpt>
<trkpt lat="64.1624776" lon="-139.8402243">
  <ele>1109.18</ele>
  <time>2026-09-01T20:02:08Z</time>
  <course>6.29</course>
  <speed>0.022360679774997897</speed>
  <fix>3d</fix>
</trkpt>
<trkpt lat="64.1624777" lon="-139.8402246">
  <ele>1109.09</ele>
  <time>2026-09-01T20:02:08Z</time>
  <course>180.78</course>
  <speed>0.0</speed>
  <fix>3d</fix>
</trkpt>
<trkpt lat="64.1624776" lon="-139.8402243">
  <ele>1109.18</ele>
  <time>2026-09-01T20:02:08Z</time>
  <course>6.29</course>
  <speed>0.022360679774997897</speed>
  <fix>3d</fix>
</trkpt>
<trkpt lat="64.1624777" lon="-139.8402246">
  <ele>1109.09</ele>
  <time>2026-09-01T20:02:08Z</time>
  <course>180.78</course>
  <speed>0.0</speed>
  <fix>3d</fix>
</trkpt>
<trkpt lat="64.1624776" lon="-139.8402243">
  <ele>1109.18</ele>
  <time>2026-09-01T20:02:08Z</time>
  <course>6.29</course>
  <speed>0.022360679774997897</speed>
  <fix>3d</fix>
</trkpt>
<trkpt lat="64.1624777" lon="-139.8402246">
  <ele>1109.09</ele>
  <time>2026-09-01T20:02:08Z</time>
  <course>180.78</course>
  <speed>0.0</speed>
  <fix>3d</fix>
</trkpt>
<trkpt lat="64.1624776" lon="-139.8402243">
  <ele>1109.08</ele>
  <time>2026-09-01T20:02:08Z</time>
  <course>6.29</course>
  <speed>0.022360679774997897</speed>
  <fix>3d</fix>
</trkpt>
<trkpt lat="64.1624777" lon="-139.8402246">
  <ele>1109.09</ele>
  <time>2026-09-01T20:02:08Z</time>
  <course>180.78</course>
  <speed>0.0</speed>
  <fix>3d</fix>
</trkpt>
<trkpt lat="64.1624776" lon="-139.8402243">
  <ele>1109.09</ele>
  <time>2026-09-01T20:02:08Z</time>
  <course>6.29</course>
  <speed>0.022360679774997897</speed>
  <fix>3d</fix>
</trkpt>
<trkpt lat="64.1624777" lon="-139.8402246">
  <ele>1109.09</ele>
  <time>2026-09-01T20:02:08Z</time>
  <course>180.78</course>
  <speed>0.0</speed>
  <fix>3d</fix>
</trkpt>
<trkpt lat="64.1624776" lon="-139.8402243">
  <ele>1109.09</ele>
  <time>2026-09-01T20:02:08Z</time>
  <course>6.29</course>
  <speed>0.022360679774997897</speed>
  <fix>3d</fix>
</trkpt>
<trkpt lat="64.1624777" lon="-139.8402246">
  <ele>1109.09</ele>
  <time>2026-09-01T20:02:08Z</time>
  <course>180.78</course>
  <speed>0.0</speed>
  <fix>3d</fix>
</trkpt>
<trkpt lat="64.1624776" lon="-139.8402243">
  <ele>1109.09</ele>
  <time>2026-09-01T20:02:08Z</time>
  <course>6.29</course>
  <speed>0.022360679774997897</speed>
  <fix>3d</fix>
</trkpt>
<trkpt lat="64.1624777" lon="-139.8402246">
  <ele>1109.09</ele>
  <time>2026-09-01T20:02:08Z</time>
  <course>180.78</course>
  <speed>0.0</speed>
  <fix>3d</fix>
</trkpt>
<trkpt lat="64.1624776" lon="-139.8402243">
  <ele>1109.09</ele>
  <time>2026-09-01T20:02:08Z</time>
  <course>6.3</course>
  <speed>0.022360679774997897</speed>
  <fix>3d</fix>
</trkpt>
<trkpt lat="64.1624777" lon="-139.8402246">
  <ele>1109.09</ele>
  <time>2026-09-01T20:02:08Z</time>
  <course>180.78</course>
  <speed>0.0</speed>
  <fix>3d</fix>
</trkpt>
<trkpt lat="64.1624776" lon="-139.8402243">
  <ele>1109.09</ele>
  <time>2026-09-01T20:02:08Z</time>
  <course>6.3</course>
  <speed>0.022360679774997897</speed>
  <fix>3d</fix>
</trkpt>
<trkpt lat="64.1624777" lon="-139.8402246">
  <ele>1109.09</ele>
  <time>2026-09-01T20:02:08Z</time>
  <course>180.78</course>
  <speed>0.0</speed>
  <fix>3d</fix>
</trkpt>
<trkpt lat="64.1624776" lon="-139.8402243">
  <ele>1109.1</ele>
  <time>2026-09-01T20:02:08Z</time>
  <course>6.3</course>
  <speed>0.022360679774997897</speed>
  <fix>3d</fix>
</trkpt>
<trkpt lat="64.1624777" lon="-139.8402246">
  <ele>1109.09</ele>
  <time>2026-09-01T20:02:08Z</time>
  <course>180.78</course>
  <speed>0.0</speed>
  <fix>3d</fix>
</trkpt>
<trkpt lat="64.1624776" lon="-139.8402243">
  <ele>1109.1</ele>
  <time>2026-09-01T20:02:08Z</time>
  <course>6.3</course>
  <speed>0.022360679774997897</speed>
  <fix>3d</fix>
</trkpt>
<trkpt lat="64.1624777" lon="-139.8402246">
  <ele>1109.09</ele>
  <time>2026-09-01T20:02:08Z</time>
  <course>180.78</course>
  <speed>0.0</speed>
  <fix>3d</fix>
</trkpt>
<trkpt lat="64.1624776" lon="-139.8402243">
  <ele>1109.1</ele>
  <time>2026-09-01T20:02:08Z</time>
  <course>6.3</course>
  <speed>0.022360679774997897</speed>
  <fix>3d</fix>
</trkpt>
<trkpt lat="64.1624777" lon="-139.8402246">
  <ele>1109.09</ele>
  <time>2026-09-01T20:02:08Z</time>
  <course>180.78</course>
  <speed>0.0</speed>
  <fix>3d</fix>
</trkpt>
<trkpt lat="64.1624776" lon="-139.8402243">
  <ele>1109.1</ele>
  <time>2026-09-01T20:02:08Z</time>
  <course>6.3</course>
  <speed>0.022360679774997897</speed>
  <fix>3d</fix>
</trkpt>
<trkpt lat="64.1624777" lon="-139.8402246">
  <ele>1109.09</ele>
  <time>2026-09-01T20:02:08Z</time>
  <course>180.78</course>
  <speed>0.0</speed>
  <fix>3d</fix>
</trkpt>
<trkpt lat="64.1624776" lon="-139.8402243">
  <ele>1109.1</ele>
  <time>2026-09-01T20:02:08Z</time>
  <course>6.3</course>
  <speed>0.022360679774997897</speed>
  <fix>3d</fix>
</trkpt>
<trkpt lat="64.1624777" lon="-139.8402246">
  <ele>1109.09</ele>
  <time>2026-09-01T20:02:08Z</time>
  <course>180.78</course>
  <speed>0.0</speed>
  <fix>3d</fix>
</trkpt>
<trkpt lat="64.1624776" lon="-139.8402243">
  <ele>1109.1</ele>
  <time>2026-09-01T20:02:08Z</time>
  <course>6.3</course>
  <speed>0.022360679774997897</speed>
  <fix>3d</fix>
</trkpt>
<trkpt lat="64.1624777" lon="-139.8402246">
  <ele>1109.09</ele>
  <time>2026-09-01T20:02:08Z</time>
  <course>180.78</course>
  <speed>0.0</speed>
  <fix>3d</fix>
</trkpt>
<trkpt lat="64.1624776" lon="-139.8402243">
  <ele>1109.1</ele>
  <time>2026-09-01T20:02:08Z</time>
  <course>6.31</course>
  <speed>0.022360679774997897</speed>
  <fix>3d</fix>
</trkpt>
<trkpt lat="64.1624777" lon="-139.8402246">
  <ele>1109.09</ele>
  <time>2026-09-01T20:02:08Z</time>
  <course>180.78</course>
  <speed>0.0</speed>
  <fix>3d</fix>
</trkpt>
<trkpt lat="64.1624776" lon="-139.8402243">
  <ele>1109.1</ele>
  <time>2026-09-01T20:02:08Z</time>
  <course>6.31</course>
  <speed>0.022360679774997897</speed>
  <fix>3d</fix>
</trkpt>
<trkpt lat="64.1624777" lon="-139.8402246">
  <ele>1109.09</ele>
  <time>2026-09-01T20:02:08Z</time>
  <course>180.78</course>
  <speed>0.0</speed>
  <fix>3d</fix>
</trkpt>
<trkpt lat="64.1624776" lon="-139.8402243">
  <ele>1109.1</ele>
  <time>2026-09-01T20:02:08Z</time>
  <course>6.31</course>
  <speed>0.022360679774997897</speed>
  <fix>3d</fix>
</trkpt>
<trkpt lat="64.1624777" lon="-139.8402246">
  <ele>1109.09</ele>
  <time>2026-09-01T20:02:08Z</time>
  <course>180.78</course>
  <speed>0.0</speed>
  <fix>3d</fix>
</trkpt>
<trkpt lat="64.1624776" lon="-139.8402243">
  <ele>1109.1</ele>
  <time>2026-09-01T20:02:08Z</time>
  <course>6.31</course>
  <speed>0.022360679774997897</speed>
  <fix>3d</fix>
</trkpt>
<trkpt lat="64.1624777" lon="-139.8402246">
  <ele>1109.09</ele>
  <time>2026-09-01T20:02:08Z</time>
  <course>180.78</course>
  <speed>0.0</speed>
  <fix>3d</fix>
</trkpt>
<trkpt lat="64.1624776" lon="-139.8402243">
  <ele>1109.1</ele>
  <time>2026-09-01T20:02:08Z</time>
  <course>6.31</course>
  <speed>0.022360679774997897</speed>
  <fix>3d</fix>
</trkpt>
<trkpt lat="64.1624777" lon="-139.8402246">
  <ele>1109.09</ele>
  <time>2026-09-01T20:02:08Z</time>
  <course>180.78</course>
  <speed>0.0</speed>
  <fix>3d</fix>
</trkpt>
<trkpt lat="64.1624776" lon="-139.8402243">
  <ele>1109.1</ele>
  <time>2026-09-01T20:02:08Z</time>
  <course>6.31</course>
  <speed>0.022360679774997897</speed>
  <fix>3d</fix>
</trkpt>
<trkpt lat="64.1624777" lon="-139.8402246">
  <ele>1109.09</ele>
  <time>2026-09-01T20:02:08Z</time>
  <course>180.78</course>
  <speed>0.0</speed>
  <fix>3d</fix>
</trkpt>
<trkpt lat="64.1624776" lon="-139.8402243">
  <ele>1109.1</ele>
  <time>2026-09-01T20:02:08Z</time>
  <course>6.31</course>
  <speed>0.022360679774997897</speed>
  <fix>3d</fix>
</trkpt>
<trkpt lat="64.1624777" lon="-139.8402246">
  <ele>1109.09</ele>
  <time>2026-09-01T20:02:08Z</time>
  <course>180.78</course>
  <speed>0.0</speed>
  <fix>3d</fix>
</trkpt>
<trkpt lat="64.1624776" lon="-139.8402243">
  <ele>1109.1</ele>
  <time>2026-09-01T20:02:08Z</time>
  <course>6.31</course>
  <speed>0.022360679774997897</speed>
  <fix>3d</fix>
</trkpt>
<trkpt lat="64.1624777" lon="-139.8402246">
  <ele>1109.09</ele>
  <time>2026-09-01T20:02:08Z</time>
  <course>180.78</course>
  <speed>0.0</speed>
  <fix>3d</fix>
</trkpt>
<trkpt lat="64.1624776" lon="-139.8402243">
  <ele>1109.1</ele>
  <time>2026-09-01T20:02:08Z</time>
  <course>6.32</course>
  <speed>0.022360679774997897</speed>
  <fix>3d</fix>
</trkpt>
<trkpt lat="64.1624777" lon="-139.8402246">
  <ele>1109.09</ele>
  <time>2026-09-01T20:02:08Z</time>
  <course>180.78</course>
  <speed>0.0</speed>
  <fix>3d</fix>
</trkpt>
<trkpt lat="64.1624776" lon="-139.8402243">
  <ele>1109.1</ele>
  <time>2026-09-01T20:02:08Z</time>
  <course>6.32</course>
  <speed>0.022360679774997897</speed>
  <fix>3d</fix>
</trkpt>
<trkpt lat="64.1624777" lon="-139.8402246">
  <ele>1109.09</ele>
  <time>2026-09-01T20:02:08Z</time>
  <course>180.78</course>
  <speed>0.0</speed>
  <fix>3d</fix>
</trkpt>
<trkpt lat="64.1624776" lon="-139.8402243">
  <ele>1109.09</ele>
  <time>2026-09-01T20:02:08Z</time>
  <course>6.32</course>
  <speed>0.022360679774997897</speed>
  <fix>3d</fix>
</trkpt>
<trkpt lat="64.1624777" lon="-139.8402246">
  <ele>1109.09</ele>
  <time>2026-09-01T20:02:08Z</time>
  <course>180.78</course>
  <speed>0.0</speed>
  <fix>3d</fix>
</trkpt>
<trkpt lat="64.1624776" lon="-139.8402243">
  <ele>1109.09</ele>
  <time>2026-09-01T20:02:08Z</time>
  <course>6.32</course>
  <speed>0.022360679774997897</speed>
  <fix>3d</fix>
</trkpt>
<trkpt lat="64.1624777" lon="-139.8402246">
  <ele>1109.09</ele>
  <time>2026-09-01T20:02:08Z</time>
  <course>180.78</course>
  <speed>0.0</speed>
  <fix>3d</fix>
</trkpt>
<trkpt lat="64.1624776" lon="-139.8402243">
  <ele>1109.09</ele>
  <time>2026-09-01T20:02:08Z</time>
  <course>6.32</course>
  <speed>0.022360679774997897</speed>
  <fix>3d</fix>
</trkpt>
<trkpt lat="64.1624777" lon="-139.8402246">
  <ele>1109.09</ele>
  <time>2026-09-01T20:02:08Z</time>
  <course>180.78</course>
  <speed>0.0</speed>
  <fix>3d</fix>
</trkpt>
<trkpt lat="64.1624776" lon="-139.8402243">
  <ele>1109.09</ele>
  <time>2026-09-01T20:02:08Z</time>
  <course>6.32</course>
  <speed>0.022360679774997897</speed>
  <fix>3d</fix>
</trkpt>
<trkpt lat="64.1624777" lon="-139.8402246">
  <ele>1109.09</ele>
  <time>2026-09-01T20:02:08Z</time>
  <course>180.78</course>
  <speed>0.0</speed>
  <fix>3d</fix>
</trkpt>
<trkpt lat="64.1624776" lon="-139.8402243">
  <ele>1109.09</ele>
  <time>2026-09-01T20:02:08Z</time>
  <course>6.32</course>
  <speed>0.022360679774997897</speed>
  <fix>3d</fix>
</trkpt>
<trkpt lat="64.1624777" lon="-139.8402246">
  <ele>1109.09</ele>
  <time>2026-09-01T20:02:08Z</time>
  <course>180.78</course>
  <speed>0.0</speed>
  <fix>3d</fix>
</trkpt>
<trkpt lat="64.1624776" lon="-139.8402243">
  <ele>1109.08</ele>
  <time>2026-09-01T20:02:08Z</time>
  <course>6.32</course>
  <speed>0.022360679774997897</speed>
  <fix>3d</fix>
</trkpt>
<trkpt lat="64.1624777" lon="-139.8402246">
  <ele>1109.09</ele>
  <time>2026-09-01T20:02:08Z</time>
  <course>180.78</course>
  <speed>0.0</speed>
  <fix>3d</fix>
</trkpt>
<trkpt lat="64.1624776" lon="-139.8402243">
  <ele>1109.08</ele>
  <time>2026-09-01T20:02:08Z</time>
  <course>6.32</course>
  <speed>0.022360679774997897</speed>
  <fix>3d</fix>
</trkpt>
<trkpt lat="64.1624777" lon="-139.8402246">
  <ele>1109.09</ele>
  <time>2026-09-01T20:02:08Z</time>
  <course>180.78</course>
  <speed>0.0</speed>
  <fix>3d</fix>
</trkpt>
<trkpt lat="64.1624776" lon="-139.8402243">
  <ele>1109.08</ele>
  <time>2026-09-01T20:02:08Z</time>
  <course>6.33</course>
  <speed>0.022360679774997897</speed>
  <fix>3d</fix>
</trkpt>
<trkpt lat="64.1624777" lon="-139.8402246">
  <ele>1109.09</ele>
  <time>2026-09-01T20:02:08Z</time>
  <course>180.78</course>
  <speed>0.0</speed>
  <fix>3d</fix>
</trkpt>
<trkpt lat="64.1624776" lon="-139.8402243">
  <ele>1109.08</ele>
  <time>2026-09-01T20:02:08Z</time>
  <course>6.33</course>
  <speed>0.022360679774997897</speed>
  <fix>3d</fix>
</trkpt>
<trkpt lat="64.1624777" lon="-139.8402246">
  <ele>1109.09</ele>
  <time>2026-09-01T20:02:08Z</time>
  <course>180.78</course>
  <speed>0.0</speed>
  <fix>3d</fix>
</trkpt>
<trkpt lat="64.1624776" lon="-139.8402243">
  <ele>1109.08</ele>
  <time>2026-09-01T20:02:08Z</time>
  <course>6.33</course>
  <speed>0.022360679774997897</speed>
  <fix>3d</fix>
</trkpt>
<trkpt lat="64.1624777" lon="-139.8402246">
  <ele>1109.09</ele>
  <time>2026-09-01T20:02:08Z</time>
  <course>180.78</course>
  <speed>0.0</speed>
  <fix>3d</fix>
</trkpt>
<trkpt lat="64.1624776" lon="-139.8402243">
  <ele>1109.08</ele>
  <time>2026-09-01T20:02:08Z</time>
  <course>6.33</course>
  <speed>0.022360679774997897</speed>
  <fix>3d</fix>
</trkpt>
<trkpt lat="64.1624777" lon="-139.8402246">
  <ele>1109.09</ele>
  <time>2026-09-01T20:02:08Z</time>
  <course>180.78</course>
  <speed>0.0</speed>
  <fix>3d</fix>
</trkpt>
<trkpt lat="64.1624776" lon="-139.8402243">
  <ele>1109.08</ele>
  <time>2026-09-01T20:02:08Z</time>
  <course>6.33</course>
  <speed>0.022360679774997897</speed>
  <fix>3d</fix>
</trkpt>
<trkpt lat="64.1624777" lon="-139.8402246">
  <ele>1109.09</ele>
  <time>2026-09-01T20:02:08Z</time>
  <course>180.78</course>
  <speed>0.0</speed>
  <fix>3d</fix>
</trkpt>
<trkpt lat="64.1624776" lon="-139.8402243">
  <ele>1109.08</ele>
  <time>2026-09-01T20:02:08Z</time>
  <course>6.33</course>
  <speed>0.022360679774997897</speed>
  <fix>3d</fix>
</trkpt>
<trkpt lat="64.1624777" lon="-139.8402246">
  <ele>1109.09</ele>
  <time>2026-09-01T20:02:08Z</time>
  <course>180.78</course>
  <speed>0.0</speed>
  <fix>3d</fix>
</trkpt>
<trkpt lat="64.1624776" lon="-139.8402243">
  <ele>1109.08</ele>
  <time>2026-09-01T20:02:08Z</time>
  <course>6.33</course>
  <speed>0.022360679774997897</speed>
  <fix>3d</fix>
</trkpt>
<trkpt lat="64.1624777" lon="-139.8402246">
  <ele>1109.09</ele>
  <time>2026-09-01T20:02:08Z</time>
  <course>180.78</course>
  <speed>0.0</speed>
  <fix>3d</fix>
</trkpt>
<trkpt lat="64.1624776" lon="-139.8402243">
  <ele>1109.08</ele>
  <time>2026-09-01T20:02:08Z</time>
  <course>6.33</course>
  <speed>0.022360679774997897</speed>
  <fix>3d</fix>
</trkpt>
<trkpt lat="64.1624777" lon="-139.8402246">
  <ele>1109.09</ele>
  <time>2026-09-01T20:02:08Z</time>
  <course>180.78</course>
  <speed>0.0</speed>
  <fix>3d</fix>
</trkpt>
<trkpt lat="64.1624776" lon="-139.8402243">
  <ele>1109.08</ele>
  <time>2026-09-01T20:02:08Z</time>
  <course>6.33</course>
  <speed>0.022360679774997897</speed>
  <fix>3d</fix>
</trkpt>
<trkpt lat="64.1624777" lon="-139.8402246">
  <ele>1109.09</ele>
  <time>2026-09-01T20:02:08Z</time>
  <course>180.78</course>
  <speed>0.0</speed>
  <fix>3d</fix>
</trkpt>
<trkpt lat="64.1624776" lon="-139.8402243">
  <ele>1109.08</ele>
  <time>2026-09-01T20:02:08Z</time>
  <course>6.34</course>
  <speed>0.022360679774997897</speed>
  <fix>3d</fix>
</trkpt>
<trkpt lat="64.1624777" lon="-139.8402246">
  <ele>1109.09</ele>
  <time>2026-09-01T20:02:08Z</time>
  <course>180.78</course>
  <speed>0.0</speed>
  <fix>3d</fix>
</trkpt>
<trkpt lat="64.1624776" lon="-139.8402243">
  <ele>1109.08</ele>
  <time>2026-09-01T20:02:08Z</time>
  <course>6.34</course>
  <speed>0.022360679774997897</speed>
  <fix>3d</fix>
</trkpt>
<trkpt lat="64.1624777" lon="-139.8402246">
  <ele>1109.09</ele>
  <time>2026-09-01T20:02:08Z</time>
  <course>180.78</course>
  <speed>0.0</speed>
  <fix>3d</fix>
</trkpt>
<trkpt lat="64.1624776" lon="-139.8402243">
  <ele>1109.07</ele>
  <time>2026-09-01T20:02:08Z</time>
  <course>6.34</course>
  <speed>0.022360679774997897</speed>
  <fix>3d</fix>
</trkpt>
<trkpt lat="64.1624777" lon="-139.8402246">
  <ele>1109.09</ele>
  <time>2026-09-01T20:02:08Z</time>
  <course>180.78</course>
  <speed>0.0</speed>
  <fix>3d</fix>
</trkpt>
<trkpt lat="64.1624776" lon="-139.8402243">
  <ele>1109.07</ele>
  <time>2026-09-01T20:02:08Z</time>
  <course>6.34</course>
  <speed>0.022360679774997897</speed>
  <fix>3d</fix>
</trkpt>
<trkpt lat="64.1624777" lon="-139.8402246">
  <ele>1109.09</ele>
  <time>2026-09-01T20:02:08Z</time>
  <course>180.78</course>
  <speed>0.0</speed>
  <fix>3d</fix>
</trkpt>
<trkpt lat="64.1624776" lon="-139.8402243">
  <ele>1109.07</ele>
  <time>2026-09-01T20:02:08Z</time>
  <course>6.34</course>
  <speed>0.022360679774997897</speed>
  <fix>3d</fix>
</trkpt>
<trkpt lat="64.1624777" lon="-139.8402246">
  <ele>1109.09</ele>
  <time>2026-09-01T20:02:08Z</time>
  <course>180.78</course>
  <speed>0.0</speed>
  <fix>3d</fix>
</trkpt>
<trkpt lat="64.1624776" lon="-139.8402243">
  <ele>1109.07</ele>
  <time>2026-09-01T20:02:08Z</time>
  <course>6.34</course>
  <speed>0.022360679774997897</speed>
  <fix>3d</fix>
</trkpt>
<trkpt lat="64.1624777" lon="-139.8402246">
  <ele>1109.09</ele>
  <time>2026-09-01T20:02:08Z</time>
  <course>180.78</course>
  <speed>0.0</speed>
  <fix>3d</fix>
</trkpt>
<trkpt lat="64.1624776" lon="-139.8402243">
  <ele>1109.06</ele>
  <time>2026-09-01T20:02:08Z</time>
  <course>6.34</course>
  <speed>0.022360679774997897</speed>
  <fix>3d</fix>
</trkpt>
<trkpt lat="64.1624777" lon="-139.8402246">
  <ele>1109.09</ele>
  <time>2026-09-01T20:02:08Z</time>
  <course>180.78</course>
  <speed>0.0</speed>
  <fix>3d</fix>
</trkpt>
<trkpt lat="64.1624776" lon="-139.8402243">
  <ele>1109.06</ele>
  <time>2026-09-01T20:02:08Z</time>
  <course>6.34</course>
  <speed>0.022360679774997897</speed>
  <fix>3d</fix>
</trkpt>
<trkpt lat="64.1624777" lon="-139.8402246">
  <ele>1109.09</ele>
  <time>2026-09-01T20:02:08Z</time>
  <course>180.78</course>
  <speed>0.0</speed>
  <fix>3d</fix>
</trkpt>
<trkpt lat="64.1624776" lon="-139.8402243">
  <ele>1109.06</ele>
  <time>2026-09-01T20:02:08Z</time>
  <course>6.35</course>
  <speed>0.022360679774997897</speed>
  <fix>3d</fix>
</trkpt>
<trkpt lat="64.1624777" lon="-139.8402246">
  <ele>1109.09</ele>
  <time>2026-09-01T20:02:08Z</time>
  <course>180.78</course>
  <speed>0.0</speed>
  <fix>3d</fix>
</trkpt>
<trkpt lat="64.1624776" lon="-139.8402243">
  <ele>1109.05</ele>
  <time>2026-09-01T20:02:08Z</time>
  <course>6.35</course>
  <speed>0.022360679774997897</speed>
  <fix>3d</fix>
</trkpt>
<trkpt lat="64.1624777" lon="-139.8402246">
  <ele>1109.09</ele>
  <time>2026-09-01T20:02:08Z</time>
  <course>180.78</course>
  <speed>0.0</speed>
  <fix>3d</fix>
</trkpt>
<trkpt lat="64.1624776" lon="-139.8402243">
  <ele>1109.05</ele>
  <time>2026-09-01T20:02:08Z</time>
  <course>6.35</course>
  <speed>0.022360679774997897</speed>
  <fix>3d</fix>
</trkpt>
<trkpt lat="64.1624777" lon="-139.8402246">
  <ele>1109.09</ele>
  <time>2026-09-01T20:02:08Z</time>
  <course>180.78</course>
  <speed>0.0</speed>
  <fix>3d</fix>
</trkpt>
<trkpt lat="64.1624776" lon="-139.8402243">
  <ele>1109.05</ele>
  <time>2026-09-01T20:02:08Z</time>
  <course>6.35</course>
  <speed>0.022360679774997897</speed>
  <fix>3d</fix>
</trkpt>
<trkpt lat="64.1624777" lon="-139.8402246">
  <ele>1109.09</ele>
  <time>2026-09-01T20:02:08Z</time>
  <course>180.78</course>
  <speed>0.0</speed>
  <fix>3d</fix>
</trkpt>
<trkpt lat="64.1624776" lon="-139.8402243">
  <ele>1109.06</ele>
  <time>2026-09-01T20:02:08Z</time>
  <course>6.35</course>
  <speed>0.022360679774997897</speed>
  <fix>3d</fix>
</trkpt>
<trkpt lat="64.1624777" lon="-139.8402246">
  <ele>1109.09</ele>
  <time>2026-09-01T20:02:08Z</time>
  <course>180.78</course>
  <speed>0.0</speed>
  <fix>3d</fix>
</trkpt>
<trkpt lat="64.1624776" lon="-139.8402243">
  <ele>1109.06</ele>
  <time>2026-09-01T20:02:08Z</time>
  <course>6.35</course>
  <speed>0.022360679774997897</speed>
  <fix>3d</fix>
</trkpt>
<trkpt lat="64.1624777" lon="-139.8402246">
  <ele>1109.09</ele>
  <time>2026-09-01T20:02:08Z</time>
  <course>180.78</course>
  <speed>0.0</speed>
  <fix>3d</fix>
</trkpt>
<trkpt lat="64.1624776" lon="-139.8402243">
  <ele>1109.06</ele>
  <time>2026-09-01T20:02:08Z</time>
  <course>6.35</course>
  <speed>0.022360679774997897</speed>
  <fix>3d</fix>
</trkpt>
<trkpt lat="64.1624777" lon="-139.8402246">
  <ele>1109.09</ele>
  <time>2026-09-01T20:02:08Z</time>
  <course>180.78</course>
  <speed>0.0</speed>
  <fix>3d</fix>
</trkpt>
<trkpt lat="64.1624776" lon="-139.8402243">
  <ele>1109.06</ele>
  <time>2026-09-01T20:02:08Z</time>
  <course>6.35</course>
  <speed>0.022360679774997897</speed>
  <fix>3d</fix>
</trkpt>
<trkpt lat="64.1624777" lon="-139.8402246">
  <ele>1109.09</ele>
  <time>2026-09-01T20:02:08Z</time>
  <course>180.78</course>
  <speed>0.0</speed>
  <fix>3d</fix>
</trkpt>
<trkpt lat="64.1624776" lon="-139.8402243">
  <ele>1109.06</ele>
  <time>2026-09-01T20:02:08Z</time>
  <course>6.36</course>
  <speed>0.022360679774997897</speed>
  <fix>3d</fix>
</trkpt>
<trkpt lat="64.1624777" lon="-139.8402246">
  <ele>1109.09</ele>
  <time>2026-09-01T20:02:08Z</time>
  <course>180.78</course>
  <speed>0.0</speed>
  <fix>3d</fix>
</trkpt>
<trkpt lat="64.1624776" lon="-139.8402243">
  <ele>1109.06</ele>
  <time>2026-09-01T20:02:08Z</time>
  <course>6.36</course>
  <speed>0.022360679774997897</speed>
  <fix>3d</fix>
</trkpt>
<trkpt lat="64.1624777" lon="-139.8402246">
  <ele>1109.09</ele>
  <time>2026-09-01T20:02:08Z</time>
  <course>180.78</course>
  <speed>0.0</speed>
  <fix>3d</fix>
</trkpt>
<trkpt lat="64.1624776" lon="-139.8402243">
  <ele>1109.06</ele>
  <time>2026-09-01T20:02:08Z</time>
  <course>6.36</course>
  <speed>0.022360679774997897</speed>
  <fix>3d</fix>
</trkpt>
<trkpt lat="64.1624777" lon="-139.8402246">
  <ele>1109.09</ele>
  <time>2026-09-01T20:02:08Z</time>
  <course>180.78</course>
  <speed>0.0</speed>
  <fix>3d</fix>
</trkpt>
<trkpt lat="64.1624776" lon="-139.8402243">
  <ele>1109.06</ele>
  <time>2026-09-01T20:02:08Z</time>
  <course>6.36</course>
  <speed>0.022360679774997897</speed>
  <fix>3d</fix>
</trkpt>
<trkpt lat="64.1624777" lon="-139.8402246">
  <ele>1109.09</ele>
  <time>2026-09-01T20:02:08Z</time>
  <course>180.78</course>
  <speed>0.0</speed>
  <fix>3d</fix>
</trkpt>
<trkpt lat="64.1624776" lon="-139.8402243">
  <ele>1109.06</ele>
  <time>2026-09-01T20:02:08Z</time>
  <course>6.36</course>
  <speed>0.022360679774997897</speed>
  <fix>3d</fix>
</trkpt>
<trkpt lat="64.1624777" lon="-139.8402246">
  <ele>1109.09</ele>
  <time>2026-09-01T20:02:08Z</time>
  <course>180.78</course>
  <speed>0.0</speed>
  <fix>3d</fix>
</trkpt>
<trkpt lat="64.1624776" lon="-139.8402243">
  <ele>1109.06</ele>
  <time>2026-09-01T20:02:08Z</time>
  <course>6.36</course>
  <speed>0.022360679774997897</speed>
  <fix>3d</fix>
</trkpt>
<trkpt lat="64.1624777" lon="-139.8402246">
  <ele>1109.09</ele>
  <time>2026-09-01T20:02:08Z</time>
  <course>180.78</course>
  <speed>0.0</speed>
  <fix>3d</fix>
</trkpt>
<trkpt lat="64.1624776" lon="-139.8402243">
  <ele>1109.08</ele>
  <time>2026-09-01T20:02:08Z</time>
  <course>6.36</course>
  <speed>0.022360679774997897</speed>
  <fix>3d</fix>
</trkpt>
<trkpt lat="64.1624777" lon="-139.8402246">
  <ele>1109.09</ele>
  <time>2026-09-01T20:02:08Z</time>
  <course>180.78</course>
  <speed>0.0</speed>
  <fix>3d</fix>
</trkpt>
<trkpt lat="64.1624776" lon="-139.8402243">
  <ele>1109.08</ele>
  <time>2026-09-01T20:02:08Z</time>
  <course>6.36</course>
  <speed>0.022360679774997897</speed>
  <fix>3d</fix>
</trkpt>
<trkpt lat="64.1624777" lon="-139.8402246">
  <ele>1109.09</ele>
  <time>2026-09-01T20:02:08Z</time>
  <course>180.78</course>
  <speed>0.0</speed>
  <fix>3d</fix>
</trkpt>
<trkpt lat="64.1624776" lon="-139.8402243">
  <ele>1109.08</ele>
  <time>2026-09-01T20:02:08Z</time>
  <course>6.36</course>
  <speed>0.022360679774997897</speed>
  <fix>3d</fix>
</trkpt>
<trkpt lat="64.1624777" lon="-139.8402246">
  <ele>1109.09</ele>
  <time>2026-09-01T20:02:08Z</time>
  <course>180.78</course>
  <speed>0.0</speed>
  <fix>3d</fix>
</trkpt>
<trkpt lat="64.1624776" lon="-139.8402243">
  <ele>1109.08</ele>
  <time>2026-09-01T20:02:08Z</time>
  <course>6.36</course>
  <speed>0.022360679774997897</speed>
  <fix>3d</fix>
</trkpt>
<trkpt lat="64.1624777" lon="-139.8402246">
  <ele>1109.09</ele>
  <time>2026-09-01T20:02:08Z</time>
  <course>180.78</course>
  <speed>0.0</speed>
  <fix>3d</fix>
</trkpt>
<trkpt lat="64.1624776" lon="-139.8402243">
  <ele>1109.09</ele>
  <time>2026-09-01T20:02:08Z</time>
  <course>6.37</course>
  <speed>0.022360679774997897</speed>
  <fix>3d</fix>
</trkpt>
<trkpt lat="64.1624777" lon="-139.8402246">
  <ele>1109.09</ele>
  <time>2026-09-01T20:02:08Z</time>
  <course>180.78</course>
  <speed>0.0</speed>
  <fix>3d</fix>
</trkpt>
<trkpt lat="64.1624776" lon="-139.8402243">
  <ele>1109.09</ele>
  <time>2026-09-01T20:02:08Z</time>
  <course>6.37</course>
  <speed>0.022360679774997897</speed>
  <fix>3d</fix>
</trkpt>
<trkpt lat="64.1624777" lon="-139.8402246">
  <ele>1109.09</ele>
  <time>2026-09-01T20:02:08Z</time>
  <course>180.78</course>
  <speed>0.0</speed>
  <fix>3d</fix>
</trkpt>
<trkpt lat="64.1624776" lon="-139.8402243">
  <ele>1109.09</ele>
  <time>2026-09-01T20:02:08Z</time>
  <course>6.37</course>
  <speed>0.022360679774997897</speed>
  <fix>3d</fix>
</trkpt>
<trkpt lat="64.1624777" lon="-139.8402246">
  <ele>1109.09</ele>
  <time>2026-09-01T20:02:08Z</time>
  <course>180.78</course>
  <speed>0.0</speed>
  <fix>3d</fix>
</trkpt>
<trkpt lat="64.1624776" lon="-139.8402243">
  <ele>1109.09</ele>
  <time>2026-09-01T20:02:08Z</time>
  <course>6.37</course>
  <speed>0.022360679774997897</speed>
  <fix>3d</fix>
</trkpt>
<trkpt lat="64.1624777" lon="-139.8402246">
  <ele>1109.09</ele>
  <time>2026-09-01T20:02:08Z</time>
  <course>180.78</course>
  <speed>0.0</speed>
  <fix>3d</fix>
</trkpt>
<trkpt lat="64.1624776" lon="-139.8402243">
  <ele>1109.09</ele>
  <time>2026-09-01T20:02:08Z</time>
  <course>6.37</course>
  <speed>0.022360679774997897</speed>
  <fix>3d</fix>
</trkpt>
<trkpt lat="64.1624777" lon="-139.8402246">
  <ele>1109.09</ele>
  <time>2026-09-01T20:02:08Z</time>
  <course>180.78</course>
  <speed>0.0</speed>
  <fix>3d</fix>
</trkpt>
<trkpt lat="64.1624776" lon="-139.8402243">
  <ele>1109.09</ele>
  <time>2026-09-01T20:02:08Z</time>
  <course>6.37</course>
  <speed>0.022360679774997897</speed>
  <fix>3d</fix>
</trkpt>
<trkpt lat="64.1624777" lon="-139.8402246">
  <ele>1109.09</ele>
  <time>2026-09-01T20:02:08Z</time>
  <course>180.78</course>
  <speed>0.0</speed>
  <fix>3d</fix>
</trkpt>
<trkpt lat="64.1624776" lon="-139.8402243">
  <ele>1109.09</ele>
  <time>2026-09-01T20:02:08Z</time>
  <course>6.37</course>
  <speed>0.022360679774997897</speed>
  <fix>3d</fix>
</trkpt>
<trkpt lat="64.1624777" lon="-139.8402246">
  <ele>1109.09</ele>
  <time>2026-09-01T20:02:08Z</time>
  <course>180.78</course>
  <speed>0.0</speed>
  <fix>3d</fix>
</trkpt>
<trkpt lat="64.1624776" lon="-139.8402243">
  <ele>1109.09</ele>
  <time>2026-09-01T20:02:08Z</time>
  <course>6.37</course>
  <speed>0.022360679774997897</speed>
  <fix>3d</fix>
</trkpt>
<trkpt lat="64.1624777" lon="-139.8402246">
  <ele>1109.09</ele>
  <time>2026-09-01T20:02:08Z</time>
  <course>180.78</course>
  <speed>0.0</speed>
  <fix>3d</fix>
</trkpt>
<trkpt lat="64.1624776" lon="-139.8402243">
  <ele>1109.09</ele>
  <time>2026-09-01T20:02:08Z</time>
  <course>6.38</course>
  <speed>0.022360679774997897</speed>
  <fix>3d</fix>
</trkpt>
<trkpt lat="64.1624777" lon="-139.8402246">
  <ele>1109.09</ele>
  <time>2026-09-01T20:02:08Z</time>
  <course>180.78</course>
  <speed>0.0</speed>
  <fix>3d</fix>
</trkpt>
<trkpt lat="64.1624776" lon="-139.8402243">
  <ele>1109.09</ele>
  <time>2026-09-01T20:02:08Z</time>
  <course>6.38</course>
  <speed>0.022360679774997897</speed>
  <fix>3d</fix>
</trkpt>
<trkpt lat="64.1624777" lon="-139.8402246">
  <ele>1109.09</ele>
  <time>2026-09-01T20:02:08Z</time>
  <course>180.78</course>
  <speed>0.0</speed>
  <fix>3d</fix>
</trkpt>
<trkpt lat="64.1624776" lon="-139.8402243">
  <ele>1109.09</ele>
  <time>2026-09-01T20:02:08Z</time>
  <course>6.38</course>
  <speed>0.022360679774997897</speed>
  <fix>3d</fix>
</trkpt>
<trkpt lat="64.1624777" lon="-139.8402246">
  <ele>1109.09</ele>
  <time>2026-09-01T20:02:08Z</time>
  <course>180.78</course>
  <speed>0.0</speed>
  <fix>3d</fix>
</trkpt>
<trkpt lat="64.1624776" lon="-139.8402243">
  <ele>1109.09</ele>
  <time>2026-09-01T20:02:08Z</time>
  <course>6.38</course>
  <speed>0.022360679774997897</speed>
  <fix>3d</fix>
</trkpt>
<trkpt lat="64.1624777" lon="-139.8402246">
  <ele>1109.09</ele>
  <time>2026-09-01T20:02:08Z</time>
  <course>180.78</course>
  <speed>0.0</speed>
  <fix>3d</fix>
</trkpt>
<trkpt lat="64.1624776" lon="-139.8402243">
  <ele>1109.09</ele>
  <time>2026-09-01T20:02:08Z</time>
  <course>6.38</course>
  <speed>0.022360679774997897</speed>
  <fix>3d</fix>
</trkpt>
<trkpt lat="64.1624777" lon="-139.8402246">
  <ele>1109.09</ele>
  <time>2026-09-01T20:02:08Z</time>
  <course>180.78</course>
  <speed>0.0</speed>
  <fix>3d</fix>
</trkpt>
<trkpt lat="64.1624776" lon="-139.8402243">
  <ele>1109.09</ele>
  <time>2026-09-01T20:02:08Z</time>
  <course>6.38</course>
  <speed>0.022360679774997897</speed>
  <fix>3d</fix>
</trkpt>
<trkpt lat="64.1624777" lon="-139.8402246">
  <ele>1109.09</ele>
  <time>2026-09-01T20:02:08Z</time>
  <course>180.78</course>
  <speed>0.0</speed>
  <fix>3d</fix>
</trkpt>
<trkpt lat="64.1624776" lon="-139.8402243">
  <ele>1109.09</ele>
  <time>2026-09-01T20:02:08Z</time>
  <course>6.38</course>
  <speed>0.022360679774997897</speed>
  <fix>3d</fix>
</trkpt>
<trkpt lat="64.1624777" lon="-139.8402246">
  <ele>1109.09</ele>
  <time>2026-09-01T20:02:08Z</time>
  <course>180.78</course>
  <speed>0.0</speed>
  <fix>3d</fix>
</trkpt>
<trkpt lat="64.1624776" lon="-139.8402243">
  <ele>1109.1</ele>
  <time>2026-09-01T20:02:08Z</time>
  <course>6.38</course>
  <speed>0.022360679774997897</speed>
  <fix>3d</fix>
</trkpt>
<trkpt lat="64.1624777" lon="-139.8402246">
  <ele>1109.09</ele>
  <time>2026-09-01T20:02:08Z</time>
  <course>180.78</course>
  <speed>0.0</speed>
  <fix>3d</fix>
</trkpt>
<trkpt lat="64.1624776" lon="-139.8402243">
  <ele>1109.1</ele>
  <time>2026-09-01T20:02:08Z</time>
  <course>6.38</course>
  <speed>0.022360679774997897</speed>
  <fix>3d</fix>
</trkpt>
<trkpt lat="64.1624777" lon="-139.8402246">
  <ele>1109.09</ele>
  <time>2026-09-01T20:02:08Z</time>
  <course>180.78</course>
  <speed>0.0</speed>
  <fix>3d</fix>
</trkpt>
<trkpt lat="64.1624776" lon="-139.8402243">
  <ele>1109.1</ele>
  <time>2026-09-01T20:02:08Z</time>
  <course>6.39</course>
  <speed>0.022360679774997897</speed>
  <fix>3d</fix>
</trkpt>
<trkpt lat="64.1624777" lon="-139.8402246">
  <ele>1109.09</ele>
  <time>2026-09-01T20:02:08Z</time>
  <course>180.78</course>
  <speed>0.0</speed>
  <fix>3d</fix>
</trkpt>
<trkpt lat="64.1624776" lon="-139.8402243">
  <ele>1109.1</ele>
  <time>2026-09-01T20:02:08Z</time>
  <course>6.39</course>
  <speed>0.022360679774997897</speed>
  <fix>3d</fix>
</trkpt>
<trkpt lat="64.1624777" lon="-139.8402246">
  <ele>1109.09</ele>
  <time>2026-09-01T20:02:08Z</time>
  <course>180.78</course>
  <speed>0.0</speed>
  <fix>3d</fix>
</trkpt>
<trkpt lat="64.1624776" lon="-139.8402243">
  <ele>1109.1</ele>
  <time>2026-09-01T20:02:08Z</time>
  <course>6.39</course>
  <speed>0.022360679774997897</speed>
  <fix>3d</fix>
</trkpt>
<trkpt lat="64.1624777" lon="-139.8402246">
  <ele>1109.09</ele>
  <time>2026-09-01T20:02:08Z</time>
  <course>180.78</course>
  <speed>0.0</speed>
  <fix>3d</fix>
</trkpt>
<trkpt lat="64.1624776" lon="-139.8402243">
  <ele>1109.1</ele>
  <time>2026-09-01T20:02:08Z</time>
  <course>6.39</course>
  <speed>0.022360679774997897</speed>
  <fix>3d</fix>
</trkpt>
<trkpt lat="64.1624777" lon="-139.8402246">
  <ele>1109.09</ele>
  <time>2026-09-01T20:02:08Z</time>
  <course>180.78</course>
  <speed>0.0</speed>
  <fix>3d</fix>
</trkpt>
<trkpt lat="64.1624776" lon="-139.8402243">
  <ele>1109.1</ele>
  <time>2026-09-01T20:02:08Z</time>
  <course>6.39</course>
  <speed>0.022360679774997897</speed>
  <fix>3d</fix>
</trkpt>
<trkpt lat="64.1624777" lon="-139.8402246">
  <ele>1109.09</ele>
  <time>2026-09-01T20:02:08Z</time>
  <course>180.78</course>
  <speed>0.0</speed>
  <fix>3d</fix>
</trkpt>
<trkpt lat="64.1624776" lon="-139.8402243">
  <ele>1109.11</ele>
  <time>2026-09-01T20:02:08Z</time>
  <course>6.39</course>
  <speed>0.022360679774997897</speed>
  <fix>3d</fix>
</trkpt>
<trkpt lat="64.1624777" lon="-139.8402246">
  <ele>1109.09</ele>
  <time>2026-09-01T20:02:08Z</time>
  <course>180.78</course>
  <speed>0.0</speed>
  <fix>3d</fix>
</trkpt>
<trkpt lat="64.1624776" lon="-139.8402243">
  <ele>1109.11</ele>
  <time>2026-09-01T20:02:08Z</time>
  <course>6.39</course>
  <speed>0.022360679774997897</speed>
  <fix>3d</fix>
</trkpt>
<trkpt lat="64.1624777" lon="-139.8402246">
  <ele>1109.09</ele>
  <time>2026-09-01T20:02:08Z</time>
  <course>180.78</course>
  <speed>0.0</speed>
  <fix>3d</fix>
</trkpt>
<trkpt lat="64.1624776" lon="-139.8402243">
  <ele>1109.11</ele>
  <time>2026-09-01T20:02:08Z</time>
  <course>6.39</course>
  <speed>0.022360679774997897</speed>
  <fix>3d</fix>
</trkpt>
<trkpt lat="64.1624777" lon="-139.8402246">
  <ele>1109.09</ele>
  <time>2026-09-01T20:02:08Z</time>
  <course>180.78</course>
  <speed>0.0</speed>
  <fix>3d</fix>
</trkpt>
<trkpt lat="64.1624776" lon="-139.8402243">
  <ele>1109.11</ele>
  <time>2026-09-01T20:02:08Z</time>
  <course>6.39</course>
  <speed>0.022360679774997897</speed>
  <fix>3d</fix>
</trkpt>
<trkpt lat="64.1624777" lon="-139.8402246">
  <ele>1109.09</ele>
  <time>2026-09-01T20:02:08Z</time>
  <course>180.78</course>
  <speed>0.0</speed>
  <fix>3d</fix>
</trkpt>
<trkpt lat="64.1624776" lon="-139.8402243">
  <ele>1109.11</ele>
  <time>2026-09-01T20:02:08Z</time>
  <course>6.4</course>
  <speed>0.022360679774997897</speed>
  <fix>3d</fix>
</trkpt>
<trkpt lat="64.1624777" lon="-139.8402246">
  <ele>1109.09</ele>
  <time>2026-09-01T20:02:08Z</time>
  <course>180.78</course>
  <speed>0.0</speed>
  <fix>3d</fix>
</trkpt>
<trkpt lat="64.1624776" lon="-139.8402243">
  <ele>1109.11</ele>
  <time>2026-09-01T20:02:08Z</time>
  <course>6.4</course>
  <speed>0.022360679774997897</speed>
  <fix>3d</fix>
</trkpt>
<trkpt lat="64.1624777" lon="-139.8402246">
  <ele>1109.09</ele>
  <time>2026-09-01T20:02:08Z</time>
  <course>180.78</course>
  <speed>0.0</speed>
  <fix>3d</fix>
</trkpt>
<trkpt lat="64.1624776" lon="-139.8402243">
  <ele>1109.11</ele>
  <time>2026-09-01T20:02:08Z</time>
  <course>6.4</course>
  <speed>0.022360679774997897</speed>
  <fix>3d</fix>
</trkpt>
<trkpt lat="64.1624777" lon="-139.8402246">
  <ele>1109.09</ele>
  <time>2026-09-01T20:02:08Z</time>
  <course>180.78</course>
  <speed>0.0</speed>
  <fix>3d</fix>
</trkpt>
<trkpt lat="64.1624776" lon="-139.8402243">
  <ele>1109.11</ele>
  <time>2026-09-01T20:02:08Z</time>
  <course>6.4</course>
  <speed>0.022360679774997897</speed>
  <fix>3d</fix>
</trkpt>
<trkpt lat="64.1624777" lon="-139.8402246">
  <ele>1109.09</ele>
  <time>2026-09-01T20:02:08Z</time>
  <course>180.78</course>
  <speed>0.0</speed>
  <fix>3d</fix>
</trkpt>
<trkpt lat="64.1624776" lon="-139.8402243">
  <ele>1109.11</ele>
  <time>2026-09-01T20:02:08Z</time>
  <course>6.4</course>
  <speed>0.022360679774997897</speed>
  <fix>3d</fix>
</trkpt>
<trkpt lat="64.1624777" lon="-139.8402246">
  <ele>1109.09</ele>
  <time>2026-09-01T20:02:08Z</time>
  <course>180.78</course>
  <speed>0.0</speed>
  <fix>3d</fix>
</trkpt>
<trkpt lat="64.1624776" lon="-139.8402243">
  <ele>1109.12</ele>
  <time>2026-09-01T20:02:08Z</time>
  <course>6.4</course>
  <speed>0.022360679774997897</speed>
  <fix>3d</fix>
</trkpt>
<trkpt lat="64.1624777" lon="-139.8402246">
  <ele>1109.09</ele>
  <time>2026-09-01T20:02:08Z</time>
  <course>180.78</course>
  <speed>0.0</speed>
  <fix>3d</fix>
</trkpt>
<trkpt lat="64.1624776" lon="-139.8402243">
  <ele>1109.12</ele>
  <time>2026-09-01T20:02:08Z</time>
  <course>6.4</course>
  <speed>0.022360679774997897</speed>
  <fix>3d</fix>
</trkpt>
<trkpt lat="64.1624777" lon="-139.8402246">
  <ele>1109.09</ele>
  <time>2026-09-01T20:02:08Z</time>
  <course>180.78</course>
  <speed>0.0</speed>
  <fix>3d</fix>
</trkpt>
<trkpt lat="64.1624776" lon="-139.8402243">
  <ele>1109.12</ele>
  <time>2026-09-01T20:02:08Z</time>
  <course>6.4</course>
  <speed>0.022360679774997897</speed>
  <fix>3d</fix>
</trkpt>
<trkpt lat="64.1624777" lon="-139.8402246">
  <ele>1109.09</ele>
  <time>2026-09-01T20:02:08Z</time>
  <course>180.78</course>
  <speed>0.0</speed>
  <fix>3d</fix>
</trkpt>
<trkpt lat="64.1624776" lon="-139.8402243">
  <ele>1109.12</ele>
  <time>2026-09-01T20:02:08Z</time>
  <course>6.41</course>
  <speed>0.022360679774997897</speed>
  <fix>3d</fix>
</trkpt>
<trkpt lat="64.1624777" lon="-139.8402246">
  <ele>1109.09</ele>
  <time>2026-09-01T20:02:08Z</time>
  <course>180.78</course>
  <speed>0.0</speed>
  <fix>3d</fix>
</trkpt>
<trkpt lat="64.1624776" lon="-139.8402243">
  <ele>1109.13</ele>
  <time>2026-09-01T20:02:08Z</time>
  <course>6.41</course>
  <speed>0.022360679774997897</speed>
  <fix>3d</fix>
</trkpt>
<trkpt lat="64.1624777" lon="-139.8402246">
  <ele>1109.09</ele>
  <time>2026-09-01T20:02:08Z</time>
  <course>180.78</course>
  <speed>0.0</speed>
  <fix>3d</fix>
</trkpt>
<trkpt lat="64.1624776" lon="-139.8402243">
  <ele>1109.13</ele>
  <time>2026-09-01T20:02:08Z</time>
  <course>6.41</course>
  <speed>0.022360679774997897</speed>
  <fix>3d</fix>
</trkpt>
<trkpt lat="64.1624777" lon="-139.8402246">
  <ele>1109.09</ele>
  <time>2026-09-01T20:02:08Z</time>
  <course>180.78</course>
  <speed>0.0</speed>
  <fix>3d</fix>
</trkpt>
<trkpt lat="64.1624776" lon="-139.8402243">
  <ele>1109.13</ele>
  <time>2026-09-01T20:02:08Z</time>
  <course>6.41</course>
  <speed>0.022360679774997897</speed>
  <fix>3d</fix>
</trkpt>
<trkpt lat="64.1624777" lon="-139.8402246">
  <ele>1109.09</ele>
  <time>2026-09-01T20:02:08Z</time>
  <course>180.78</course>
  <speed>0.0</speed>
  <fix>3d</fix>
</trkpt>
<trkpt lat="64.1624776" lon="-139.8402243">
  <ele>1109.13</ele>
  <time>2026-09-01T20:02:08Z</time>
  <course>6.41</course>
  <speed>0.022360679774997897</speed>
  <fix>3d</fix>
</trkpt>
<trkpt lat="64.1624777" lon="-139.8402246">
  <ele>1109.09</ele>
  <time>2026-09-01T20:02:08Z</time>
  <course>180.78</course>
  <speed>0.0</speed>
  <fix>3d</fix>
</trkpt>
<trkpt lat="64.1624776" lon="-139.8402243">
  <ele>1109.13</ele>
  <time>2026-09-01T20:02:08Z</time>
  <course>6.41</course>
  <speed>0.022360679774997897</speed>
  <fix>3d</fix>
</trkpt>
<trkpt lat="64.1624777" lon="-139.8402246">
  <ele>1109.09</ele>
  <time>2026-09-01T20:02:08Z</time>
  <course>180.78</course>
  <speed>0.0</speed>
  <fix>3d</fix>
</trkpt>
<trkpt lat="64.1624776" lon="-139.8402243">
  <ele>1109.13</ele>
  <time>2026-09-01T20:02:08Z</time>
  <course>6.41</course>
  <speed>0.022360679774997897</speed>
  <fix>3d</fix>
</trkpt>
<trkpt lat="64.1624777" lon="-139.8402246">
  <ele>1109.09</ele>
  <time>2026-09-01T20:02:08Z</time>
  <course>180.78</course>
  <speed>0.0</speed>
  <fix>3d</fix>
</trkpt>
<trkpt lat="64.1624776" lon="-139.8402243">
  <ele>1109.13</ele>
  <time>2026-09-01T20:02:08Z</time>
  <course>6.41</course>
  <speed>0.022360679774997897</speed>
  <fix>3d</fix>
</trkpt>
<trkpt lat="64.1624777" lon="-139.8402246">
  <ele>1109.09</ele>
  <time>2026-09-01T20:02:08Z</time>
  <course>180.78</course>
  <speed>0.0</speed>
  <fix>3d</fix>
</trkpt>
<trkpt lat="64.1624776" lon="-139.8402243">
  <ele>1109.13</ele>
  <time>2026-09-01T20:02:08Z</time>
  <course>6.41</course>
  <speed>0.022360679774997897</speed>
  <fix>3d</fix>
</trkpt>
<trkpt lat="64.1624777" lon="-139.8402246">
  <ele>1109.09</ele>
  <time>2026-09-01T20:02:08Z</time>
  <course>180.78</course>
  <speed>0.0</speed>
  <fix>3d</fix>
</trkpt>
<trkpt lat="64.1624776" lon="-139.8402243">
  <ele>1109.14</ele>
  <time>2026-09-01T20:02:08Z</time>
  <course>6.41</course>
  <speed>0.022360679774997897</speed>
  <fix>3d</fix>
</trkpt>
<trkpt lat="64.1624777" lon="-139.8402246">
  <ele>1109.09</ele>
  <time>2026-09-01T20:02:08Z</time>
  <course>180.78</course>
  <speed>0.0</speed>
  <fix>3d</fix>
</trkpt>
<trkpt lat="64.1624776" lon="-139.8402243">
  <ele>1109.14</ele>
  <time>2026-09-01T20:02:08Z</time>
  <course>6.42</course>
  <speed>0.022360679774997897</speed>
  <fix>3d</fix>
</trkpt>
<trkpt lat="64.1624777" lon="-139.8402246">
  <ele>1109.09</ele>
  <time>2026-09-01T20:02:08Z</time>
  <course>180.78</course>
  <speed>0.0</speed>
  <fix>3d</fix>
</trkpt>
<trkpt lat="64.1624776" lon="-139.8402243">
  <ele>1109.14</ele>
  <time>2026-09-01T20:02:08Z</time>
  <course>6.42</course>
  <speed>0.022360679774997897</speed>
  <fix>3d</fix>
</trkpt>
<trkpt lat="64.1624777" lon="-139.8402246">
  <ele>1109.09</ele>
  <time>2026-09-01T20:02:08Z</time>
  <course>180.78</course>
  <speed>0.0</speed>
  <fix>3d</fix>
</trkpt>
<trkpt lat="64.1624776" lon="-139.8402243">
  <ele>1109.14</ele>
  <time>2026-09-01T20:02:08Z</time>
  <course>6.42</course>
  <speed>0.022360679774997897</speed>
  <fix>3d</fix>
</trkpt>
<trkpt lat="64.1624777" lon="-139.8402246">
  <ele>1109.09</ele>
  <time>2026-09-01T20:02:08Z</time>
  <course>180.78</course>
  <speed>0.0</speed>
  <fix>3d</fix>
</trkpt>
<trkpt lat="64.1624776" lon="-139.8402243">
  <ele>1109.14</ele>
  <time>2026-09-01T20:02:08Z</time>
  <course>6.42</course>
  <speed>0.022360679774997897</speed>
  <fix>3d</fix>
</trkpt>
<trkpt lat="64.1624777" lon="-139.8402246">
  <ele>1109.09</ele>
  <time>2026-09-01T20:02:08Z</time>
  <course>180.78</course>
  <speed>0.0</speed>
  <fix>3d</fix>
</trkpt>
<trkpt lat="64.1624776" lon="-139.8402243">
  <ele>1109.15</ele>
  <time>2026-09-01T20:02:08Z</time>
  <course>6.42</course>
  <speed>0.022360679774997897</speed>
  <fix>3d</fix>
</trkpt>
<trkpt lat="64.1624777" lon="-139.8402246">
  <ele>1109.09</ele>
  <time>2026-09-01T20:02:08Z</time>
  <course>180.78</course>
  <speed>0.0</speed>
  <fix>3d</fix>
</trkpt>
<trkpt lat="64.1624776" lon="-139.8402243">
  <ele>1109.15</ele>
  <time>2026-09-01T20:02:08Z</time>
  <course>6.42</course>
  <speed>0.022360679774997897</speed>
  <fix>3d</fix>
</trkpt>
<trkpt lat="64.1624777" lon="-139.8402246">
  <ele>1109.09</ele>
  <time>2026-09-01T20:02:08Z</time>
  <course>180.78</course>
  <speed>0.0</speed>
  <fix>3d</fix>
</trkpt>
<trkpt lat="64.1624776" lon="-139.8402243">
  <ele>1109.15</ele>
  <time>2026-09-01T20:02:08Z</time>
  <course>6.42</course>
  <speed>0.022360679774997897</speed>
  <fix>3d</fix>
</trkpt>
<trkpt lat="64.1624777" lon="-139.8402246">
  <ele>1109.09</ele>
  <time>2026-09-01T20:02:08Z</time>
  <course>180.78</course>
  <speed>0.0</speed>
  <fix>3d</fix>
</trkpt>
<trkpt lat="64.1624776" lon="-139.8402243">
  <ele>1109.15</ele>
  <time>2026-09-01T20:02:08Z</time>
  <course>6.42</course>
  <speed>0.022360679774997897</speed>
  <fix>3d</fix>
</trkpt>
<trkpt lat="64.1624777" lon="-139.8402246">
  <ele>1109.09</ele>
  <time>2026-09-01T20:02:08Z</time>
  <course>180.78</course>
  <speed>0.0</speed>
  <fix>3d</fix>
</trkpt>
<trkpt lat="64.1624776" lon="-139.8402243">
  <ele>1109.14</ele>
  <time>2026-09-01T20:02:08Z</time>
  <course>6.43</course>
  <speed>0.022360679774997897</speed>
  <fix>3d</fix>
</trkpt>
<trkpt lat="64.1624777" lon="-139.8402246">
  <ele>1109.09</ele>
  <time>2026-09-01T20:02:08Z</time>
  <course>180.78</course>
  <speed>0.0</speed>
  <fix>3d</fix>
</trkpt>
<trkpt lat="64.1624776" lon="-139.8402243">
  <ele>1109.14</ele>
  <time>2026-09-01T20:02:08Z</time>
  <course>6.43</course>
  <speed>0.022360679774997897</speed>
  <fix>3d</fix>
</trkpt>
<trkpt lat="64.1624777" lon="-139.8402246">
  <ele>1109.09</ele>
  <time>2026-09-01T20:02:08Z</time>
  <course>180.78</course>
  <speed>0.0</speed>
  <fix>3d</fix>
</trkpt>
<trkpt lat="64.1624776" lon="-139.8402243">
  <ele>1109.14</ele>
  <time>2026-09-01T20:02:08Z</time>
  <course>6.43</course>
  <speed>0.022360679774997897</speed>
  <fix>3d</fix>
</trkpt>
<trkpt lat="64.1624777" lon="-139.8402246">
  <ele>1109.09</ele>
  <time>2026-09-01T20:02:08Z</time>
  <course>180.78</course>
  <speed>0.0</speed>
  <fix>3d</fix>
</trkpt>
<trkpt lat="64.1624776" lon="-139.8402243">
  <ele>1109.14</ele>
  <time>2026-09-01T20:02:08Z</time>
  <course>6.43</course>
  <speed>0.022360679774997897</speed>
  <fix>3d</fix>
</trkpt>
<trkpt lat="64.1624777" lon="-139.8402246">
  <ele>1109.09</ele>
  <time>2026-09-01T20:02:08Z</time>
  <course>180.78</course>
  <speed>0.0</speed>
  <fix>3d</fix>
</trkpt>
<trkpt lat="64.1624776" lon="-139.8402243">
  <ele>1109.09</ele>
  <time>2026-09-01T20:02:08Z</time>
  <course>6.43</course>
  <speed>0.022360679774997897</speed>
  <fix>3d</fix>
</trkpt>
<trkpt lat="64.1624777" lon="-139.8402246">
  <ele>1109.09</ele>
  <time>2026-09-01T20:02:08Z</time>
  <course>180.78</course>
  <speed>0.0</speed>
  <fix>3d</fix>
</trkpt>
<trkpt lat="64.1624776" lon="-139.8402243">
  <ele>1109.09</ele>
  <time>2026-09-01T20:02:08Z</time>
  <course>6.43</course>
  <speed>0.022360679774997897</speed>
  <fix>3d</fix>
</trkpt>
<trkpt lat="64.1624777" lon="-139.8402246">
  <ele>1109.09</ele>
  <time>2026-09-01T20:02:08Z</time>
  <course>180.78</course>
  <speed>0.0</speed>
  <fix>3d</fix>
</trkpt>
<trkpt lat="64.1624776" lon="-139.8402243">
  <ele>1109.08</ele>
  <time>2026-09-01T20:02:08Z</time>
  <course>6.43</course>
  <speed>0.022360679774997897</speed>
  <fix>3d</fix>
</trkpt>
<trkpt lat="64.1624777" lon="-139.8402246">
  <ele>1109.09</ele>
  <time>2026-09-01T20:02:08Z</time>
  <course>180.78</course>
  <speed>0.0</speed>
  <fix>3d</fix>
</trkpt>
<trkpt lat="64.1624776" lon="-139.8402243">
  <ele>1109.09</ele>
  <time>2026-09-01T20:02:08Z</time>
  <course>6.43</course>
  <speed>0.022360679774997897</speed>
  <fix>3d</fix>
</trkpt>
<trkpt lat="64.1624777" lon="-139.8402246">
  <ele>1109.09</ele>
  <time>2026-09-01T20:02:08Z</time>
  <course>180.78</course>
  <speed>0.0</speed>
  <fix>3d</fix>
</trkpt>
<trkpt lat="64.1624776" lon="-139.8402243">
  <ele>1109.09</ele>
  <time>2026-09-01T20:02:08Z</time>
  <course>6.43</course>
  <speed>0.022360679774997897</speed>
  <fix>3d</fix>
</trkpt>
<trkpt lat="64.1624777" lon="-139.8402246">
  <ele>1109.09</ele>
  <time>2026-09-01T20:02:08Z</time>
  <course>180.78</course>
  <speed>0.0</speed>
  <fix>3d</fix>
</trkpt>
<trkpt lat="64.1624776" lon="-139.8402243">
  <ele>1109.09</ele>
  <time>2026-09-01T20:02:08Z</time>
  <course>6.44</course>
  <speed>0.022360679774997897</speed>
  <fix>3d</fix>
</trkpt>
<trkpt lat="64.1624777" lon="-139.8402246">
  <ele>1109.09</ele>
  <time>2026-09-01T20:02:08Z</time>
  <course>180.78</course>
  <speed>0.0</speed>
  <fix>3d</fix>
</trkpt>
<trkpt lat="64.1624776" lon="-139.8402243">
  <ele>1109.09</ele>
  <time>2026-09-01T20:02:08Z</time>
  <course>6.44</course>
  <speed>0.022360679774997897</speed>
  <fix>3d</fix>
</trkpt>
<trkpt lat="64.1624777" lon="-139.8402246">
  <ele>1109.09</ele>
  <time>2026-09-01T20:02:08Z</time>
  <course>180.78</course>
  <speed>0.0</speed>
  <fix>3d</fix>
</trkpt>
<trkpt lat="64.1624776" lon="-139.8402243">
  <ele>1109.09</ele>
  <time>2026-09-01T20:02:08Z</time>
  <course>6.44</course>
  <speed>0.022360679774997897</speed>
  <fix>3d</fix>
</trkpt>
<trkpt lat="64.1624777" lon="-139.8402246">
  <ele>1109.09</ele>
  <time>2026-09-01T20:02:08Z</time>
  <course>180.78</course>
  <speed>0.0</speed>
  <fix>3d</fix>
</trkpt>
<trkpt lat="64.1624776" lon="-139.8402243">
  <ele>1109.09</ele>
  <time>2026-09-01T20:02:08Z</time>
  <course>6.44</course>
  <speed>0.022360679774997897</speed>
  <fix>3d</fix>
</trkpt>
<trkpt lat="64.1624777" lon="-139.8402246">
  <ele>1109.09</ele>
  <time>2026-09-01T20:02:08Z</time>
  <course>180.78</course>
  <speed>0.0</speed>
  <fix>3d</fix>
</trkpt>
<trkpt lat="64.1624776" lon="-139.8402243">
  <ele>1109.09</ele>
  <time>2026-09-01T20:02:08Z</time>
  <course>6.44</course>
  <speed>0.022360679774997897</speed>
  <fix>3d</fix>
</trkpt>
<trkpt lat="64.1624777" lon="-139.8402246">
  <ele>1109.09</ele>
  <time>2026-09-01T20:02:08Z</time>
  <course>180.78</course>
  <speed>0.0</speed>
  <fix>3d</fix>
</trkpt>
<trkpt lat="64.1624776" lon="-139.8402243">
  <ele>1109.09</ele>
  <time>2026-09-01T20:02:08Z</time>
  <course>6.44</course>
  <speed>0.022360679774997897</speed>
  <fix>3d</fix>
</trkpt>
<trkpt lat="64.1624777" lon="-139.8402246">
  <ele>1109.09</ele>
  <time>2026-09-01T20:02:08Z</time>
  <course>180.78</course>
  <speed>0.0</speed>
  <fix>3d</fix>
</trkpt>
<trkpt lat="64.1624776" lon="-139.8402243">
  <ele>1109.1</ele>
  <time>2026-09-01T20:02:08Z</time>
  <course>6.44</course>
  <speed>0.022360679774997897</speed>
  <fix>3d</fix>
</trkpt>
<trkpt lat="64.1624777" lon="-139.8402246">
  <ele>1109.09</ele>
  <time>2026-09-01T20:02:08Z</time>
  <course>180.78</course>
  <speed>0.0</speed>
  <fix>3d</fix>
</trkpt>
<trkpt lat="64.1624776" lon="-139.8402243">
  <ele>1109.1</ele>
  <time>2026-09-01T20:02:08Z</time>
  <course>6.44</course>
  <speed>0.022360679774997897</speed>
  <fix>3d</fix>
</trkpt>
<trkpt lat="64.1624777" lon="-139.8402246">
  <ele>1109.09</ele>
  <time>2026-09-01T20:02:08Z</time>
  <course>180.78</course>
  <speed>0.0</speed>
  <fix>3d</fix>
</trkpt>
<trkpt lat="64.1624776" lon="-139.8402243">
  <ele>1109.1</ele>
  <time>2026-09-01T20:02:08Z</time>
  <course>6.44</course>
  <speed>0.022360679774997897</speed>
  <fix>3d</fix>
</trkpt>
<trkpt lat="64.1624777" lon="-139.8402246">
  <ele>1109.09</ele>
  <time>2026-09-01T20:02:08Z</time>
  <course>180.78</course>
  <speed>0.0</speed>
  <fix>3d</fix>
</trkpt>
<trkpt lat="64.1624776" lon="-139.8402243">
  <ele>1109.1</ele>
  <time>2026-09-01T20:02:08Z</time>
  <course>6.45</course>
  <speed>0.022360679774997897</speed>
  <fix>3d</fix>
</trkpt>
<trkpt lat="64.1624777" lon="-139.8402246">
  <ele>1109.09</ele>
  <time>2026-09-01T20:02:08Z</time>
  <course>180.78</course>
  <speed>0.0</speed>
  <fix>3d</fix>
</trkpt>
<trkpt lat="64.1624776" lon="-139.8402243">
  <ele>1109.09</ele>
  <time>2026-09-01T20:02:08Z</time>
  <course>6.45</course>
  <speed>0.022360679774997897</speed>
  <fix>3d</fix>
</trkpt>
<trkpt lat="64.1624777" lon="-139.8402246">
  <ele>1109.09</ele>
  <time>2026-09-01T20:02:08Z</time>
  <course>180.78</course>
  <speed>0.0</speed>
  <fix>3d</fix>
</trkpt>
<trkpt lat="64.1624776" lon="-139.8402243">
  <ele>1109.09</ele>
  <time>2026-09-01T20:02:08Z</time>
  <course>6.45</course>
  <speed>0.022360679774997897</speed>
  <fix>3d</fix>
</trkpt>
<trkpt lat="64.1624777" lon="-139.8402246">
  <ele>1109.09</ele>
  <time>2026-09-01T20:02:08Z</time>
  <course>180.78</course>
  <speed>0.0</speed>
  <fix>3d</fix>
</trkpt>
<trkpt lat="64.1624776" lon="-139.8402243">
  <ele>1109.09</ele>
  <time>2026-09-01T20:02:08Z</time>
  <course>6.45</course>
  <speed>0.022360679774997897</speed>
  <fix>3d</fix>
</trkpt>
<trkpt lat="64.1624777" lon="-139.8402246">
  <ele>1109.09</ele>
  <time>2026-09-01T20:02:08Z</time>
  <course>180.78</course>
  <speed>0.0</speed>
  <fix>3d</fix>
</trkpt>
<trkpt lat="64.1624776" lon="-139.8402243">
  <ele>1109.09</ele>
  <time>2026-09-01T20:02:08Z</time>
  <course>6.45</course>
  <speed>0.022360679774997897</speed>
  <fix>3d</fix>
</trkpt>
<trkpt lat="64.1624777" lon="-139.8402246">
  <ele>1109.09</ele>
  <time>2026-09-01T20:02:08Z</time>
  <course>180.78</course>
  <speed>0.0</speed>
  <fix>3d</fix>
</trkpt>
<trkpt lat="64.1624776" lon="-139.8402243">
  <ele>1109.09</ele>
  <time>2026-09-01T20:02:08Z</time>
  <course>6.45</course>
  <speed>0.022360679774997897</speed>
  <fix>3d</fix>
</trkpt>
<trkpt lat="64.1624777" lon="-139.8402246">
  <ele>1109.09</ele>
  <time>2026-09-01T20:02:08Z</time>
  <course>180.78</course>
  <speed>0.0</speed>
  <fix>3d</fix>
</trkpt>
<trkpt lat="64.1624776" lon="-139.8402243">
  <ele>1109.09</ele>
  <time>2026-09-01T20:02:08Z</time>
  <course>6.45</course>
  <speed>0.022360679774997897</speed>
  <fix>3d</fix>
</trkpt>
<trkpt lat="64.1624777" lon="-139.8402246">
  <ele>1109.09</ele>
  <time>2026-09-01T20:02:08Z</time>
  <course>180.78</course>
  <speed>0.0</speed>
  <fix>3d</fix>
</trkpt>
<trkpt lat="64.1624776" lon="-139.8402243">
  <ele>1109.09</ele>
  <time>2026-09-01T20:02:08Z</time>
  <course>6.45</course>
  <speed>0.022360679774997897</speed>
  <fix>3d</fix>
</trkpt>
<trkpt lat="64.1624777" lon="-139.8402246">
  <ele>1109.09</ele>
  <time>2026-09-01T20:02:08Z</time>
  <course>180.78</course>
  <speed>0.0</speed>
  <fix>3d</fix>
</trkpt>
<trkpt lat="64.1624776" lon="-139.8402243">
  <ele>1109.09</ele>
  <time>2026-09-01T20:02:08Z</time>
  <course>6.45</course>
  <speed>0.022360679774997897</speed>
  <fix>3d</fix>
</trkpt>
<trkpt lat="64.1624777" lon="-139.8402246">
  <ele>1109.09</ele>
  <time>2026-09-01T20:02:08Z</time>
  <course>180.78</course>
  <speed>0.0</speed>
  <fix>3d</fix>
</trkpt>
<trkpt lat="64.1624776" lon="-139.8402243">
  <ele>1109.09</ele>
  <time>2026-09-01T20:02:08Z</time>
  <course>6.46</course>
  <speed>0.022360679774997897</speed>
  <fix>3d</fix>
</trkpt>
<trkpt lat="64.1624777" lon="-139.8402246">
  <ele>1109.09</ele>
  <time>2026-09-01T20:02:08Z</time>
  <course>180.78</course>
  <speed>0.0</speed>
  <fix>3d</fix>
</trkpt>
<trkpt lat="64.1624776" lon="-139.8402243">
  <ele>1109.1</ele>
  <time>2026-09-01T20:02:08Z</time>
  <course>6.46</course>
  <speed>0.022360679774997897</speed>
  <fix>3d</fix>
</trkpt>
<trkpt lat="64.1624777" lon="-139.8402246">
  <ele>1109.09</ele>
  <time>2026-09-01T20:02:08Z</time>
  <course>180.78</course>
  <speed>0.0</speed>
  <fix>3d</fix>
</trkpt>
<trkpt lat="64.1624776" lon="-139.8402243">
  <ele>1109.1</ele>
  <time>2026-09-01T20:02:08Z</time>
  <course>6.46</course>
  <speed>0.022360679774997897</speed>
  <fix>3d</fix>
</trkpt>
<trkpt lat="64.1624777" lon="-139.8402246">
  <ele>1109.09</ele>
  <time>2026-09-01T20:02:08Z</time>
  <course>180.78</course>
  <speed>0.0</speed>
  <fix>3d</fix>
</trkpt>
<trkpt lat="64.1624776" lon="-139.8402243">
  <ele>1109.1</ele>
  <time>2026-09-01T20:02:08Z</time>
  <course>6.46</course>
  <speed>0.022360679774997897</speed>
  <fix>3d</fix>
</trkpt>
<trkpt lat="64.1624777" lon="-139.8402246">
  <ele>1109.09</ele>
  <time>2026-09-01T20:02:08Z</time>
  <course>180.78</course>
  <speed>0.0</speed>
  <fix>3d</fix>
</trkpt>
<trkpt lat="64.1624776" lon="-139.8402243">
  <ele>1109.1</ele>
  <time>2026-09-01T20:02:08Z</time>
  <course>6.46</course>
  <speed>0.022360679774997897</speed>
  <fix>3d</fix>
</trkpt>
<trkpt lat="64.1624777" lon="-139.8402246">
  <ele>1109.09</ele>
  <time>2026-09-01T20:02:08Z</time>
  <course>180.78</course>
  <speed>0.0</speed>
  <fix>3d</fix>
</trkpt>
<trkpt lat="64.1624776" lon="-139.8402243">
  <ele>1109.11</ele>
  <time>2026-09-01T20:02:08Z</time>
  <course>6.46</course>
  <speed>0.022360679774997897</speed>
  <fix>3d</fix>
</trkpt>
<trkpt lat="64.1624777" lon="-139.8402246">
  <ele>1109.09</ele>
  <time>2026-09-01T20:02:08Z</time>
  <course>180.78</course>
  <speed>0.0</speed>
  <fix>3d</fix>
</trkpt>
<trkpt lat="64.1624776" lon="-139.8402243">
  <ele>1109.11</ele>
  <time>2026-09-01T20:02:08Z</time>
  <course>6.46</course>
  <speed>0.022360679774997897</speed>
  <fix>3d</fix>
</trkpt>
<trkpt lat="64.1624777" lon="-139.8402246">
  <ele>1109.09</ele>
  <time>2026-09-01T20:02:08Z</time>
  <course>180.78</course>
  <speed>0.0</speed>
  <fix>3d</fix>
</trkpt>
<trkpt lat="64.1624776" lon="-139.8402243">
  <ele>1109.11</ele>
  <time>2026-09-01T20:02:08Z</time>
  <course>6.46</course>
  <speed>0.022360679774997897</speed>
  <fix>3d</fix>
</trkpt>
<trkpt lat="64.1624777" lon="-139.8402246">
  <ele>1109.09</ele>
  <time>2026-09-01T20:02:08Z</time>
  <course>180.78</course>
  <speed>0.0</speed>
  <fix>3d</fix>
</trkpt>
<trkpt lat="64.1624776" lon="-139.8402243">
  <ele>1109.11</ele>
  <time>2026-09-01T20:02:08Z</time>
  <course>6.46</course>
  <speed>0.022360679774997897</speed>
  <fix>3d</fix>
</trkpt>
<trkpt lat="64.1624777" lon="-139.8402246">
  <ele>1109.09</ele>
  <time>2026-09-01T20:02:08Z</time>
  <course>180.78</course>
  <speed>0.0</speed>
  <fix>3d</fix>
</trkpt>
<trkpt lat="64.1624776" lon="-139.8402243">
  <ele>1109.11</ele>
  <time>2026-09-01T20:02:08Z</time>
  <course>6.47</course>
  <speed>0.022360679774997897</speed>
  <fix>3d</fix>
</trkpt>
<trkpt lat="64.1624777" lon="-139.8402246">
  <ele>1109.09</ele>
  <time>2026-09-01T20:02:08Z</time>
  <course>180.78</course>
  <speed>0.0</speed>
  <fix>3d</fix>
</trkpt>
<trkpt lat="64.1624776" lon="-139.8402243">
  <ele>1109.11</ele>
  <time>2026-09-01T20:02:08Z</time>
  <course>6.47</course>
  <speed>0.022360679774997897</speed>
  <fix>3d</fix>
</trkpt>
<trkpt lat="64.1624777" lon="-139.8402246">
  <ele>1109.09</ele>
  <time>2026-09-01T20:02:08Z</time>
  <course>180.78</course>
  <speed>0.0</speed>
  <fix>3d</fix>
</trkpt>
<trkpt lat="64.1624776" lon="-139.8402243">
  <ele>1109.11</ele>
  <time>2026-09-01T20:02:08Z</time>
  <course>6.47</course>
  <speed>0.022360679774997897</speed>
  <fix>3d</fix>
</trkpt>
<trkpt lat="64.1624777" lon="-139.8402246">
  <ele>1109.09</ele>
  <time>2026-09-01T20:02:08Z</time>
  <course>180.78</course>
  <speed>0.0</speed>
  <fix>3d</fix>
</trkpt>
<trkpt lat="64.1624776" lon="-139.8402243">
  <ele>1109.11</ele>
  <time>2026-09-01T20:02:08Z</time>
  <course>6.47</course>
  <speed>0.022360679774997897</speed>
  <fix>3d</fix>
</trkpt>
<trkpt lat="64.1624777" lon="-139.8402246">
  <ele>1109.09</ele>
  <time>2026-09-01T20:02:08Z</time>
  <course>180.78</course>
  <speed>0.0</speed>
  <fix>3d</fix>
</trkpt>
<trkpt lat="64.1624776" lon="-139.8402243">
  <ele>1109.11</ele>
  <time>2026-09-01T20:02:08Z</time>
  <course>6.47</course>
  <speed>0.022360679774997897</speed>
  <fix>3d</fix>
</trkpt>
<trkpt lat="64.1624777" lon="-139.8402246">
  <ele>1109.09</ele>
  <time>2026-09-01T20:02:08Z</time>
  <course>180.78</course>
  <speed>0.0</speed>
  <fix>3d</fix>
</trkpt>
<trkpt lat="64.1624776" lon="-139.8402243">
  <ele>1109.11</ele>
  <time>2026-09-01T20:02:08Z</time>
  <course>6.47</course>
  <speed>0.022360679774997897</speed>
  <fix>3d</fix>
</trkpt>
<trkpt lat="64.1624777" lon="-139.8402246">
  <ele>1109.09</ele>
  <time>2026-09-01T20:02:08Z</time>
  <course>180.78</course>
  <speed>0.0</speed>
  <fix>3d</fix>
</trkpt>
<trkpt lat="64.1624776" lon="-139.8402243">
  <ele>1109.11</ele>
  <time>2026-09-01T20:02:08Z</time>
  <course>6.47</course>
  <speed>0.022360679774997897</speed>
  <fix>3d</fix>
</trkpt>
<trkpt lat="64.1624777" lon="-139.8402246">
  <ele>1109.09</ele>
  <time>2026-09-01T20:02:08Z</time>
  <course>180.78</course>
  <speed>0.0</speed>
  <fix>3d</fix>
</trkpt>
<trkpt lat="64.1624776" lon="-139.8402243">
  <ele>1109.11</ele>
  <time>2026-09-01T20:02:08Z</time>
  <course>6.47</course>
  <speed>0.022360679774997897</speed>
  <fix>3d</fix>
</trkpt>
<trkpt lat="64.1624777" lon="-139.8402246">
  <ele>1109.09</ele>
  <time>2026-09-01T20:02:08Z</time>
  <course>180.78</course>
  <speed>0.0</speed>
  <fix>3d</fix>
</trkpt>
<trkpt lat="64.1624776" lon="-139.8402243">
  <ele>1109.11</ele>
  <time>2026-09-01T20:02:08Z</time>
  <course>6.48</course>
  <speed>0.022360679774997897</speed>
  <fix>3d</fix>
</trkpt>
<trkpt lat="64.1624777" lon="-139.8402246">
  <ele>1109.09</ele>
  <time>2026-09-01T20:02:08Z</time>
  <course>180.78</course>
  <speed>0.0</speed>
  <fix>3d</fix>
</trkpt>
<trkpt lat="64.1624776" lon="-139.8402243">
  <ele>1109.11</ele>
  <time>2026-09-01T20:02:08Z</time>
  <course>6.48</course>
  <speed>0.022360679774997897</speed>
  <fix>3d</fix>
</trkpt>
<trkpt lat="64.1624777" lon="-139.8402246">
  <ele>1109.09</ele>
  <time>2026-09-01T20:02:08Z</time>
  <course>180.78</course>
  <speed>0.0</speed>
  <fix>3d</fix>
</trkpt>
<trkpt lat="64.1624776" lon="-139.8402243">
  <ele>1109.11</ele>
  <time>2026-09-01T20:02:08Z</time>
  <course>6.48</course>
  <speed>0.022360679774997897</speed>
  <fix>3d</fix>
</trkpt>
<trkpt lat="64.1624777" lon="-139.8402246">
  <ele>1109.09</ele>
  <time>2026-09-01T20:02:08Z</time>
  <course>180.78</course>
  <speed>0.0</speed>
  <fix>3d</fix>
</trkpt>
<trkpt lat="64.1624776" lon="-139.8402243">
  <ele>1109.12</ele>
  <time>2026-09-01T20:02:08Z</time>
  <course>6.48</course>
  <speed>0.022360679774997897</speed>
  <fix>3d</fix>
</trkpt>
<trkpt lat="64.1624777" lon="-139.8402246">
  <ele>1109.09</ele>
  <time>2026-09-01T20:02:08Z</time>
  <course>180.78</course>
  <speed>0.0</speed>
  <fix>3d</fix>
</trkpt>
<trkpt lat="64.1624776" lon="-139.8402243">
  <ele>1109.12</ele>
  <time>2026-09-01T20:02:08Z</time>
  <course>6.48</course>
  <speed>0.022360679774997897</speed>
  <fix>3d</fix>
</trkpt>
<trkpt lat="64.1624777" lon="-139.8402246">
  <ele>1109.09</ele>
  <time>2026-09-01T20:02:08Z</time>
  <course>180.78</course>
  <speed>0.0</speed>
  <fix>3d</fix>
</trkpt>
<trkpt lat="64.1624776" lon="-139.8402243">
  <ele>1109.12</ele>
  <time>2026-09-01T20:02:08Z</time>
  <course>6.48</course>
  <speed>0.022360679774997897</speed>
  <fix>3d</fix>
</trkpt>
<trkpt lat="64.1624777" lon="-139.8402246">
  <ele>1109.09</ele>
  <time>2026-09-01T20:02:08Z</time>
  <course>180.78</course>
  <speed>0.0</speed>
  <fix>3d</fix>
</trkpt>
<trkpt lat="64.1624776" lon="-139.8402243">
  <ele>1109.12</ele>
  <time>2026-09-01T20:02:09Z</time>
  <course>6.48</course>
  <speed>0.022360679774997897</speed>
  <fix>3d</fix>
</trkpt>
<trkpt lat="64.1624777" lon="-139.8402246">
  <ele>1109.09</ele>
  <time>2026-09-01T20:02:09Z</time>
  <course>180.78</course>
  <speed>0.0</speed>
  <fix>3d</fix>
</trkpt>
<trkpt lat="64.1624776" lon="-139.8402243">
  <ele>1109.12</ele>
  <time>2026-09-01T20:02:09Z</time>
  <course>6.48</course>
  <speed>0.022360679774997897</speed>
  <fix>3d</fix>
</trkpt>
<trkpt lat="64.1624777" lon="-139.8402246">
  <ele>1109.09</ele>
  <time>2026-09-01T20:02:09Z</time>
  <course>180.78</course>
  <speed>0.0</speed>
  <fix>3d</fix>
</trkpt>
<trkpt lat="64.1624776" lon="-139.8402243">
  <ele>1109.12</ele>
  <time>2026-09-01T20:02:09Z</time>
  <course>6.48</course>
  <speed>0.022360679774997897</speed>
  <fix>3d</fix>
</trkpt>
<trkpt lat="64.1624777" lon="-139.8402246">
  <ele>1109.09</ele>
  <time>2026-09-01T20:02:09Z</time>
  <course>180.78</course>
  <speed>0.0</speed>
  <fix>3d</fix>
</trkpt>
<trkpt lat="64.1624776" lon="-139.8402243">
  <ele>1109.12</ele>
  <time>2026-09-01T20:02:09Z</time>
  <course>6.49</course>
  <speed>0.022360679774997897</speed>
  <fix>3d</fix>
</trkpt>
<trkpt lat="64.1624777" lon="-139.8402246">
  <ele>1109.09</ele>
  <time>2026-09-01T20:02:09Z</time>
  <course>180.78</course>
  <speed>0.0</speed>
  <fix>3d</fix>
</trkpt>
<trkpt lat="64.1624776" lon="-139.8402243">
  <ele>1109.12</ele>
  <time>2026-09-01T20:02:09Z</time>
  <course>6.49</course>
  <speed>0.022360679774997897</speed>
  <fix>3d</fix>
</trkpt>
<trkpt lat="64.1624777" lon="-139.8402246">
  <ele>1109.09</ele>
  <time>2026-09-01T20:02:09Z</time>
  <course>180.78</course>
  <speed>0.0</speed>
  <fix>3d</fix>
</trkpt>
<trkpt lat="64.1624776" lon="-139.8402243">
  <ele>1109.11</ele>
  <time>2026-09-01T20:02:09Z</time>
  <course>6.49</course>
  <speed>0.022360679774997897</speed>
  <fix>3d</fix>
</trkpt>
<trkpt lat="64.1624777" lon="-139.8402246">
  <ele>1109.09</ele>
  <time>2026-09-01T20:02:09Z</time>
  <course>180.78</course>
  <speed>0.0</speed>
  <fix>3d</fix>
</trkpt>
<trkpt lat="64.1624776" lon="-139.8402243">
  <ele>1109.11</ele>
  <time>2026-09-01T20:02:09Z</time>
  <course>6.49</course>
  <speed>0.022360679774997897</speed>
  <fix>3d</fix>
</trkpt>
<trkpt lat="64.1624777" lon="-139.8402246">
  <ele>1109.09</ele>
  <time>2026-09-01T20:02:09Z</time>
  <course>180.78</course>
  <speed>0.0</speed>
  <fix>3d</fix>
</trkpt>
<trkpt lat="64.1624776" lon="-139.8402243">
  <ele>1109.12</ele>
  <time>2026-09-01T20:02:09Z</time>
  <course>6.49</course>
  <speed>0.022360679774997897</speed>
  <fix>3d</fix>
</trkpt>
<trkpt lat="64.1624777" lon="-139.8402246">
  <ele>1109.09</ele>
  <time>2026-09-01T20:02:09Z</time>
  <course>180.78</course>
  <speed>0.0</speed>
  <fix>3d</fix>
</trkpt>
<trkpt lat="64.1624776" lon="-139.8402243">
  <ele>1109.12</ele>
  <time>2026-09-01T20:02:09Z</time>
  <course>6.49</course>
  <speed>0.022360679774997897</speed>
  <fix>3d</fix>
</trkpt>
<trkpt lat="64.1624777" lon="-139.8402246">
  <ele>1109.09</ele>
  <time>2026-09-01T20:02:09Z</time>
  <course>180.78</course>
  <speed>0.0</speed>
  <fix>3d</fix>
</trkpt>
<trkpt lat="64.1624776" lon="-139.8402243">
  <ele>1109.12</ele>
  <time>2026-09-01T20:02:09Z</time>
  <course>6.49</course>
  <speed>0.022360679774997897</speed>
  <fix>3d</fix>
</trkpt>
<trkpt lat="64.1624777" lon="-139.8402246">
  <ele>1109.09</ele>
  <time>2026-09-01T20:02:09Z</time>
  <course>180.78</course>
  <speed>0.0</speed>
  <fix>3d</fix>
</trkpt>
<trkpt lat="64.1624776" lon="-139.8402243">
  <ele>1109.12</ele>
  <time>2026-09-01T20:02:09Z</time>
  <course>6.49</course>
  <speed>0.022360679774997897</speed>
  <fix>3d</fix>
</trkpt>
<trkpt lat="64.1624777" lon="-139.8402246">
  <ele>1109.09</ele>
  <time>2026-09-01T20:02:09Z</time>
  <course>180.78</course>
  <speed>0.0</speed>
  <fix>3d</fix>
</trkpt>
<trkpt lat="64.1624776" lon="-139.8402243">
  <ele>1109.12</ele>
  <time>2026-09-01T20:02:09Z</time>
  <course>6.49</course>
  <speed>0.022360679774997897</speed>
  <fix>3d</fix>
</trkpt>
<trkpt lat="64.1624777" lon="-139.8402246">
  <ele>1109.09</ele>
  <time>2026-09-01T20:02:09Z</time>
  <course>180.78</course>
  <speed>0.0</speed>
  <fix>3d</fix>
</trkpt>
<trkpt lat="64.1624776" lon="-139.8402243">
  <ele>1109.13</ele>
  <time>2026-09-01T20:02:09Z</time>
  <course>6.5</course>
  <speed>0.022360679774997897</speed>
  <fix>3d</fix>
</trkpt>
<trkpt lat="64.1624777" lon="-139.8402246">
  <ele>1109.09</ele>
  <time>2026-09-01T20:02:09Z</time>
  <course>180.78</course>
  <speed>0.0</speed>
  <fix>3d</fix>
</trkpt>
<trkpt lat="64.1624776" lon="-139.8402243">
  <ele>1109.13</ele>
  <time>2026-09-01T20:02:09Z</time>
  <course>6.5</course>
  <speed>0.022360679774997897</speed>
  <fix>3d</fix>
</trkpt>
<trkpt lat="64.1624777" lon="-139.8402246">
  <ele>1109.09</ele>
  <time>2026-09-01T20:02:09Z</time>
  <course>180.78</course>
  <speed>0.0</speed>
  <fix>3d</fix>
</trkpt>
<trkpt lat="64.1624776" lon="-139.8402243">
  <ele>1109.09</ele>
  <time>2026-09-01T20:02:09Z</time>
  <course>6.5</course>
  <speed>0.022360679774997897</speed>
  <fix>3d</fix>
</trkpt>
<trkpt lat="64.1624777" lon="-139.8402246">
  <ele>1109.09</ele>
  <time>2026-09-01T20:02:09Z</time>
  <course>180.78</course>
  <speed>0.0</speed>
  <fix>3d</fix>
</trkpt>
<trkpt lat="64.1624776" lon="-139.8402243">
  <ele>1109.09</ele>
  <time>2026-09-01T20:02:09Z</time>
  <course>6.5</course>
  <speed>0.022360679774997897</speed>
  <fix>3d</fix>
</trkpt>
<trkpt lat="64.1624777" lon="-139.8402246">
  <ele>1109.09</ele>
  <time>2026-09-01T20:02:09Z</time>
  <course>180.78</course>
  <speed>0.0</speed>
  <fix>3d</fix>
</trkpt>
<trkpt lat="64.1624776" lon="-139.8402243">
  <ele>1109.09</ele>
  <time>2026-09-01T20:02:09Z</time>
  <course>6.5</course>
  <speed>0.022360679774997897</speed>
  <fix>3d</fix>
</trkpt>
<trkpt lat="64.1624777" lon="-139.8402246">
  <ele>1109.09</ele>
  <time>2026-09-01T20:02:09Z</time>
  <course>180.78</course>
  <speed>0.0</speed>
  <fix>3d</fix>
</trkpt>
<trkpt lat="64.1624776" lon="-139.8402243">
  <ele>1109.09</ele>
  <time>2026-09-01T20:02:09Z</time>
  <course>6.5</course>
  <speed>0.022360679774997897</speed>
  <fix>3d</fix>
</trkpt>
<trkpt lat="64.1624777" lon="-139.8402246">
  <ele>1109.09</ele>
  <time>2026-09-01T20:02:09Z</time>
  <course>180.78</course>
  <speed>0.0</speed>
  <fix>3d</fix>
</trkpt>
<trkpt lat="64.1624776" lon="-139.8402243">
  <ele>1109.09</ele>
  <time>2026-09-01T20:02:09Z</time>
  <course>6.5</course>
  <speed>0.022360679774997897</speed>
  <fix>3d</fix>
</trkpt>
<trkpt lat="64.1624777" lon="-139.8402246">
  <ele>1109.09</ele>
  <time>2026-09-01T20:02:09Z</time>
  <course>180.78</course>
  <speed>0.0</speed>
  <fix>3d</fix>
</trkpt>
<trkpt lat="64.1624776" lon="-139.8402243">
  <ele>1109.09</ele>
  <time>2026-09-01T20:02:09Z</time>
  <course>6.5</course>
  <speed>0.022360679774997897</speed>
  <fix>3d</fix>
</trkpt>
<trkpt lat="64.1624777" lon="-139.8402246">
  <ele>1109.09</ele>
  <time>2026-09-01T20:02:09Z</time>
  <course>180.78</course>
  <speed>0.0</speed>
  <fix>3d</fix>
</trkpt>
<trkpt lat="64.1624776" lon="-139.8402243">
  <ele>1109.09</ele>
  <time>2026-09-01T20:02:09Z</time>
  <course>6.5</course>
  <speed>0.022360679774997897</speed>
  <fix>3d</fix>
</trkpt>
<trkpt lat="64.1624777" lon="-139.8402246">
  <ele>1109.09</ele>
  <time>2026-09-01T20:02:09Z</time>
  <course>180.78</course>
  <speed>0.0</speed>
  <fix>3d</fix>
</trkpt>
<trkpt lat="64.1624776" lon="-139.8402243">
  <ele>1109.09</ele>
  <time>2026-09-01T20:02:09Z</time>
  <course>6.51</course>
  <speed>0.022360679774997897</speed>
  <fix>3d</fix>
</trkpt>
<trkpt lat="64.1624777" lon="-139.8402246">
  <ele>1109.09</ele>
  <time>2026-09-01T20:02:09Z</time>
  <course>180.78</course>
  <speed>0.0</speed>
  <fix>3d</fix>
</trkpt>
<trkpt lat="64.1624776" lon="-139.8402243">
  <ele>1109.1</ele>
  <time>2026-09-01T20:02:09Z</time>
  <course>6.51</course>
  <speed>0.022360679774997897</speed>
  <fix>3d</fix>
</trkpt>
<trkpt lat="64.1624777" lon="-139.8402246">
  <ele>1109.09</ele>
  <time>2026-09-01T20:02:09Z</time>
  <course>180.78</course>
  <speed>0.0</speed>
  <fix>3d</fix>
</trkpt>
<trkpt lat="64.1624776" lon="-139.8402243">
  <ele>1109.1</ele>
  <time>2026-09-01T20:02:09Z</time>
  <course>6.51</course>
  <speed>0.022360679774997897</speed>
  <fix>3d</fix>
</trkpt>
<trkpt lat="64.1624777" lon="-139.8402246">
  <ele>1109.09</ele>
  <time>2026-09-01T20:02:09Z</time>
  <course>180.78</course>
  <speed>0.0</speed>
  <fix>3d</fix>
</trkpt>
<trkpt lat="64.1624776" lon="-139.8402243">
  <ele>1109.1</ele>
  <time>2026-09-01T20:02:09Z</time>
  <course>6.51</course>
  <speed>0.022360679774997897</speed>
  <fix>3d</fix>
</trkpt>
<trkpt lat="64.1624777" lon="-139.8402246">
  <ele>1109.09</ele>
  <time>2026-09-01T20:02:09Z</time>
  <course>180.78</course>
  <speed>0.0</speed>
  <fix>3d</fix>
</trkpt>
<trkpt lat="64.1624776" lon="-139.8402243">
  <ele>1109.1</ele>
  <time>2026-09-01T20:02:09Z</time>
  <course>6.51</course>
  <speed>0.022360679774997897</speed>
  <fix>3d</fix>
</trkpt>
<trkpt lat="64.1624777" lon="-139.8402246">
  <ele>1109.09</ele>
  <time>2026-09-01T20:02:09Z</time>
  <course>180.78</course>
  <speed>0.0</speed>
  <fix>3d</fix>
</trkpt>
<trkpt lat="64.1624776" lon="-139.8402243">
  <ele>1109.1</ele>
  <time>2026-09-01T20:02:09Z</time>
  <course>6.51</course>
  <speed>0.022360679774997897</speed>
  <fix>3d</fix>
</trkpt>
<trkpt lat="64.1624777" lon="-139.8402246">
  <ele>1109.09</ele>
  <time>2026-09-01T20:02:09Z</time>
  <course>180.78</course>
  <speed>0.0</speed>
  <fix>3d</fix>
</trkpt>
<trkpt lat="64.1624776" lon="-139.8402243">
  <ele>1109.1</ele>
  <time>2026-09-01T20:02:09Z</time>
  <course>6.51</course>
  <speed>0.022360679774997897</speed>
  <fix>3d</fix>
</trkpt>
<trkpt lat="64.1624777" lon="-139.8402246">
  <ele>1109.09</ele>
  <time>2026-09-01T20:02:09Z</time>
  <course>180.78</course>
  <speed>0.0</speed>
  <fix>3d</fix>
</trkpt>
<trkpt lat="64.1624776" lon="-139.8402243">
  <ele>1109.1</ele>
  <time>2026-09-01T20:02:09Z</time>
  <course>6.51</course>
  <speed>0.022360679774997897</speed>
  <fix>3d</fix>
</trkpt>
<trkpt lat="64.1624777" lon="-139.8402246">
  <ele>1109.09</ele>
  <time>2026-09-01T20:02:09Z</time>
  <course>180.78</course>
  <speed>0.0</speed>
  <fix>3d</fix>
</trkpt>
<trkpt lat="64.1624776" lon="-139.8402243">
  <ele>1109.1</ele>
  <time>2026-09-01T20:02:09Z</time>
  <course>6.52</course>
  <speed>0.022360679774997897</speed>
  <fix>3d</fix>
</trkpt>
<trkpt lat="64.1624777" lon="-139.8402246">
  <ele>1109.09</ele>
  <time>2026-09-01T20:02:09Z</time>
  <course>180.78</course>
  <speed>0.0</speed>
  <fix>3d</fix>
</trkpt>
<trkpt lat="64.1624776" lon="-139.8402243">
  <ele>1109.1</ele>
  <time>2026-09-01T20:02:09Z</time>
  <course>6.52</course>
  <speed>0.022360679774997897</speed>
  <fix>3d</fix>
</trkpt>
<trkpt lat="64.1624777" lon="-139.8402246">
  <ele>1109.09</ele>
  <time>2026-09-01T20:02:09Z</time>
  <course>180.78</course>
  <speed>0.0</speed>
  <fix>3d</fix>
</trkpt>
<trkpt lat="64.1624776" lon="-139.8402243">
  <ele>1109.09</ele>
  <time>2026-09-01T20:02:09Z</time>
  <course>6.52</course>
  <speed>0.022360679774997897</speed>
  <fix>3d</fix>
</trkpt>
<trkpt lat="64.1624777" lon="-139.8402246">
  <ele>1109.09</ele>
  <time>2026-09-01T20:02:09Z</time>
  <course>180.78</course>
  <speed>0.0</speed>
  <fix>3d</fix>
</trkpt>
<trkpt lat="64.1624776" lon="-139.8402243">
  <ele>1109.1</ele>
  <time>2026-09-01T20:02:09Z</time>
  <course>6.52</course>
  <speed>0.022360679774997897</speed>
  <fix>3d</fix>
</trkpt>
<trkpt lat="64.1624777" lon="-139.8402246">
  <ele>1109.09</ele>
  <time>2026-09-01T20:02:09Z</time>
  <course>180.78</course>
  <speed>0.0</speed>
  <fix>3d</fix>
</trkpt>
<trkpt lat="64.1624776" lon="-139.8402243">
  <ele>1109.1</ele>
  <time>2026-09-01T20:02:09Z</time>
  <course>6.52</course>
  <speed>0.022360679774997897</speed>
  <fix>3d</fix>
</trkpt>
<trkpt lat="64.1624777" lon="-139.8402246">
  <ele>1109.09</ele>
  <time>2026-09-01T20:02:09Z</time>
  <course>180.78</course>
  <speed>0.0</speed>
  <fix>3d</fix>
</trkpt>
<trkpt lat="64.1624776" lon="-139.8402243">
  <ele>1109.09</ele>
  <time>2026-09-01T20:02:09Z</time>
  <course>6.52</course>
  <speed>0.022360679774997897</speed>
  <fix>3d</fix>
</trkpt>
<trkpt lat="64.1624777" lon="-139.8402246">
  <ele>1109.09</ele>
  <time>2026-09-01T20:02:09Z</time>
  <course>180.78</course>
  <speed>0.0</speed>
  <fix>3d</fix>
</trkpt>
<trkpt lat="64.1624775" lon="-139.8402243">
  <ele>1109.09</ele>
  <time>2026-09-01T20:02:09Z</time>
  <course>6.52</course>
  <speed>0.022360679774997897</speed>
  <fix>3d</fix>
</trkpt>
<trkpt lat="64.1624777" lon="-139.8402246">
  <ele>1109.09</ele>
  <time>2026-09-01T20:02:09Z</time>
  <course>180.78</course>
  <speed>0.0</speed>
  <fix>3d</fix>
</trkpt>
<trkpt lat="64.1624776" lon="-139.8402243">
  <ele>1109.09</ele>
  <time>2026-09-01T20:02:09Z</time>
  <course>6.52</course>
  <speed>0.022360679774997897</speed>
  <fix>3d</fix>
</trkpt>
<trkpt lat="64.1624777" lon="-139.8402246">
  <ele>1109.09</ele>
  <time>2026-09-01T20:02:09Z</time>
  <course>180.78</course>
  <speed>0.0</speed>
  <fix>3d</fix>
</trkpt>
<trkpt lat="64.1624775" lon="-139.8402243">
  <ele>1109.09</ele>
  <time>2026-09-01T20:02:09Z</time>
  <course>6.52</course>
  <speed>0.022360679774997897</speed>
  <fix>3d</fix>
</trkpt>
<trkpt lat="64.1624777" lon="-139.8402246">
  <ele>1109.09</ele>
  <time>2026-09-01T20:02:09Z</time>
  <course>180.78</course>
  <speed>0.0</speed>
  <fix>3d</fix>
</trkpt>
<trkpt lat="64.1624776" lon="-139.8402243">
  <ele>1109.09</ele>
  <time>2026-09-01T20:02:09Z</time>
  <course>6.53</course>
  <speed>0.022360679774997897</speed>
  <fix>3d</fix>
</trkpt>
<trkpt lat="64.1624777" lon="-139.8402246">
  <ele>1109.09</ele>
  <time>2026-09-01T20:02:09Z</time>
  <course>180.78</course>
  <speed>0.0</speed>
  <fix>3d</fix>
</trkpt>
<trkpt lat="64.1624775" lon="-139.8402243">
  <ele>1109.09</ele>
  <time>2026-09-01T20:02:09Z</time>
  <course>6.53</course>
  <speed>0.022360679774997897</speed>
  <fix>3d</fix>
</trkpt>
<trkpt lat="64.1624777" lon="-139.8402246">
  <ele>1109.09</ele>
  <time>2026-09-01T20:02:09Z</time>
  <course>180.78</course>
  <speed>0.0</speed>
  <fix>3d</fix>
</trkpt>
<trkpt lat="64.1624776" lon="-139.8402243">
  <ele>1109.08</ele>
  <time>2026-09-01T20:02:09Z</time>
  <course>6.53</course>
  <speed>0.022360679774997897</speed>
  <fix>3d</fix>
</trkpt>
<trkpt lat="64.1624777" lon="-139.8402246">
  <ele>1109.09</ele>
  <time>2026-09-01T20:02:09Z</time>
  <course>180.78</course>
  <speed>0.0</speed>
  <fix>3d</fix>
</trkpt>
<trkpt lat="64.1624775" lon="-139.8402243">
  <ele>1109.08</ele>
  <time>2026-09-01T20:02:09Z</time>
  <course>6.53</course>
  <speed>0.022360679774997897</speed>
  <fix>3d</fix>
</trkpt>
<trkpt lat="64.1624777" lon="-139.8402246">
  <ele>1109.09</ele>
  <time>2026-09-01T20:02:09Z</time>
  <course>180.78</course>
  <speed>0.0</speed>
  <fix>3d</fix>
</trkpt>
<trkpt lat="64.1624776" lon="-139.8402243">
  <ele>1109.08</ele>
  <time>2026-09-01T20:02:09Z</time>
  <course>6.53</course>
  <speed>0.022360679774997897</speed>
  <fix>3d</fix>
</trkpt>
<trkpt lat="64.1624777" lon="-139.8402246">
  <ele>1109.09</ele>
  <time>2026-09-01T20:02:09Z</time>
  <course>180.78</course>
  <speed>0.0</speed>
  <fix>3d</fix>
</trkpt>
<trkpt lat="64.1624775" lon="-139.8402243">
  <ele>1109.08</ele>
  <time>2026-09-01T20:02:09Z</time>
  <course>6.53</course>
  <speed>0.022360679774997897</speed>
  <fix>3d</fix>
</trkpt>
<trkpt lat="64.1624777" lon="-139.8402246">
  <ele>1109.09</ele>
  <time>2026-09-01T20:02:09Z</time>
  <course>180.78</course>
  <speed>0.0</speed>
  <fix>3d</fix>
</trkpt>
<trkpt lat="64.1624776" lon="-139.8402243">
  <ele>1109.08</ele>
  <time>2026-09-01T20:02:09Z</time>
  <course>6.53</course>
  <speed>0.022360679774997897</speed>
  <fix>3d</fix>
</trkpt>
<trkpt lat="64.1624777" lon="-139.8402246">
  <ele>1109.09</ele>
  <time>2026-09-01T20:02:09Z</time>
  <course>180.78</course>
  <speed>0.0</speed>
  <fix>3d</fix>
</trkpt>
<trkpt lat="64.1624775" lon="-139.8402243">
  <ele>1109.08</ele>
  <time>2026-09-01T20:02:09Z</time>
  <course>6.53</course>
  <speed>0.022360679774997897</speed>
  <fix>3d</fix>
</trkpt>
<trkpt lat="64.1624777" lon="-139.8402246">
  <ele>1109.09</ele>
  <time>2026-09-01T20:02:09Z</time>
  <course>180.78</course>
  <speed>0.0</speed>
  <fix>3d</fix>
</trkpt>
<trkpt lat="64.1624776" lon="-139.8402243">
  <ele>1109.08</ele>
  <time>2026-09-01T20:02:09Z</time>
  <course>6.53</course>
  <speed>0.022360679774997897</speed>
  <fix>3d</fix>
</trkpt>
<trkpt lat="64.1624777" lon="-139.8402246">
  <ele>1109.09</ele>
  <time>2026-09-01T20:02:09Z</time>
  <course>180.78</course>
  <speed>0.0</speed>
  <fix>3d</fix>
</trkpt>
<trkpt lat="64.1624775" lon="-139.8402243">
  <ele>1109.08</ele>
  <time>2026-09-01T20:02:09Z</time>
  <course>6.54</course>
  <speed>0.022360679774997897</speed>
  <fix>3d</fix>
</trkpt>
<trkpt lat="64.1624777" lon="-139.8402246">
  <ele>1109.09</ele>
  <time>2026-09-01T20:02:09Z</time>
  <course>180.78</course>
  <speed>0.0</speed>
  <fix>3d</fix>
</trkpt>
<trkpt lat="64.1624776" lon="-139.8402243">
  <ele>1109.07</ele>
  <time>2026-09-01T20:02:09Z</time>
  <course>6.54</course>
  <speed>0.022360679774997897</speed>
  <fix>3d</fix>
</trkpt>
<trkpt lat="64.1624777" lon="-139.8402246">
  <ele>1109.09</ele>
  <time>2026-09-01T20:02:09Z</time>
  <course>180.78</course>
  <speed>0.0</speed>
  <fix>3d</fix>
</trkpt>
<trkpt lat="64.1624775" lon="-139.8402243">
  <ele>1109.07</ele>
  <time>2026-09-01T20:02:09Z</time>
  <course>6.54</course>
  <speed>0.022360679774997897</speed>
  <fix>3d</fix>
</trkpt>
<trkpt lat="64.1624777" lon="-139.8402246">
  <ele>1109.09</ele>
  <time>2026-09-01T20:02:09Z</time>
  <course>180.78</course>
  <speed>0.0</speed>
  <fix>3d</fix>
</trkpt>
<trkpt lat="64.1624776" lon="-139.8402243">
  <ele>1109.07</ele>
  <time>2026-09-01T20:02:09Z</time>
  <course>6.54</course>
  <speed>0.022360679774997897</speed>
  <fix>3d</fix>
</trkpt>
<trkpt lat="64.1624777" lon="-139.8402246">
  <ele>1109.09</ele>
  <time>2026-09-01T20:02:09Z</time>
  <course>180.78</course>
  <speed>0.0</speed>
  <fix>3d</fix>
</trkpt>
<trkpt lat="64.1624775" lon="-139.8402243">
  <ele>1109.07</ele>
  <time>2026-09-01T20:02:09Z</time>
  <course>6.54</course>
  <speed>0.022360679774997897</speed>
  <fix>3d</fix>
</trkpt>
<trkpt lat="64.1624777" lon="-139.8402246">
  <ele>1109.09</ele>
  <time>2026-09-01T20:02:09Z</time>
  <course>180.78</course>
  <speed>0.0</speed>
  <fix>3d</fix>
</trkpt>
<trkpt lat="64.1624776" lon="-139.8402243">
  <ele>1109.07</ele>
  <time>2026-09-01T20:02:09Z</time>
  <course>6.54</course>
  <speed>0.022360679774997897</speed>
  <fix>3d</fix>
</trkpt>
<trkpt lat="64.1624777" lon="-139.8402246">
  <ele>1109.09</ele>
  <time>2026-09-01T20:02:09Z</time>
  <course>180.78</course>
  <speed>0.0</speed>
  <fix>3d</fix>
</trkpt>
<trkpt lat="64.1624775" lon="-139.8402243">
  <ele>1109.07</ele>
  <time>2026-09-01T20:02:09Z</time>
  <course>6.54</course>
  <speed>0.022360679774997897</speed>
  <fix>3d</fix>
</trkpt>
<trkpt lat="64.1624777" lon="-139.8402246">
  <ele>1109.09</ele>
  <time>2026-09-01T20:02:09Z</time>
  <course>180.78</course>
  <speed>0.0</speed>
  <fix>3d</fix>
</trkpt>
<trkpt lat="64.1624775" lon="-139.8402243">
  <ele>1109.07</ele>
  <time>2026-09-01T20:02:09Z</time>
  <course>6.54</course>
  <speed>0.022360679774997897</speed>
  <fix>3d</fix>
</trkpt>
<trkpt lat="64.1624777" lon="-139.8402246">
  <ele>1109.09</ele>
  <time>2026-09-01T20:02:09Z</time>
  <course>180.78</course>
  <speed>0.0</speed>
  <fix>3d</fix>
</trkpt>
<trkpt lat="64.1624775" lon="-139.8402243">
  <ele>1109.07</ele>
  <time>2026-09-01T20:02:09Z</time>
  <course>6.54</course>
  <speed>0.022360679774997897</speed>
  <fix>3d</fix>
</trkpt>
<trkpt lat="64.1624777" lon="-139.8402246">
  <ele>1109.09</ele>
  <time>2026-09-01T20:02:09Z</time>
  <course>180.78</course>
  <speed>0.0</speed>
  <fix>3d</fix>
</trkpt>
<trkpt lat="64.1624775" lon="-139.8402243">
  <ele>1109.07</ele>
  <time>2026-09-01T20:02:09Z</time>
  <course>6.55</course>
  <speed>0.022360679774997897</speed>
  <fix>3d</fix>
</trkpt>
<trkpt lat="64.1624777" lon="-139.8402246">
  <ele>1109.09</ele>
  <time>2026-09-01T20:02:09Z</time>
  <course>180.78</course>
  <speed>0.0</speed>
  <fix>3d</fix>
</trkpt>
<trkpt lat="64.1624775" lon="-139.8402243">
  <ele>1109.08</ele>
  <time>2026-09-01T20:02:09Z</time>
  <course>6.55</course>
  <speed>0.022360679774997897</speed>
  <fix>3d</fix>
</trkpt>
<trkpt lat="64.1624777" lon="-139.8402246">
  <ele>1109.09</ele>
  <time>2026-09-01T20:02:09Z</time>
  <course>180.78</course>
  <speed>0.0</speed>
  <fix>3d</fix>
</trkpt>
<trkpt lat="64.1624775" lon="-139.8402243">
  <ele>1109.08</ele>
  <time>2026-09-01T20:02:09Z</time>
  <course>6.55</course>
  <speed>0.022360679774997897</speed>
  <fix>3d</fix>
</trkpt>
<trkpt lat="64.1624777" lon="-139.8402246">
  <ele>1109.09</ele>
  <time>2026-09-01T20:02:09Z</time>
  <course>180.78</course>
  <speed>0.0</speed>
  <fix>3d</fix>
</trkpt>
<trkpt lat="64.1624775" lon="-139.8402243">
  <ele>1109.08</ele>
  <time>2026-09-01T20:02:09Z</time>
  <course>6.55</course>
  <speed>0.022360679774997897</speed>
  <fix>3d</fix>
</trkpt>
<trkpt lat="64.1624777" lon="-139.8402246">
  <ele>1109.09</ele>
  <time>2026-09-01T20:02:09Z</time>
  <course>180.78</course>
  <speed>0.0</speed>
  <fix>3d</fix>
</trkpt>
<trkpt lat="64.1624775" lon="-139.8402243">
  <ele>1109.08</ele>
  <time>2026-09-01T20:02:09Z</time>
  <course>6.55</course>
  <speed>0.022360679774997897</speed>
  <fix>3d</fix>
</trkpt>
<trkpt lat="64.1624777" lon="-139.8402246">
  <ele>1109.09</ele>
  <time>2026-09-01T20:02:09Z</time>
  <course>180.78</course>
  <speed>0.0</speed>
  <fix>3d</fix>
</trkpt>
<trkpt lat="64.1624775" lon="-139.8402243">
  <ele>1109.08</ele>
  <time>2026-09-01T20:02:09Z</time>
  <course>6.55</course>
  <speed>0.022360679774997897</speed>
  <fix>3d</fix>
</trkpt>
<trkpt lat="64.1624777" lon="-139.8402246">
  <ele>1109.09</ele>
  <time>2026-09-01T20:02:09Z</time>
  <course>180.78</course>
  <speed>0.0</speed>
  <fix>3d</fix>
</trkpt>
<trkpt lat="64.1624775" lon="-139.8402243">
  <ele>1109.08</ele>
  <time>2026-09-01T20:02:09Z</time>
  <course>6.55</course>
  <speed>0.022360679774997897</speed>
  <fix>3d</fix>
</trkpt>
<trkpt lat="64.1624777" lon="-139.8402246">
  <ele>1109.09</ele>
  <time>2026-09-01T20:02:09Z</time>
  <course>180.78</course>
  <speed>0.0</speed>
  <fix>3d</fix>
</trkpt>
<trkpt lat="64.1624775" lon="-139.8402243">
  <ele>1109.08</ele>
  <time>2026-09-01T20:02:09Z</time>
  <course>6.55</course>
  <speed>0.022360679774997897</speed>
  <fix>3d</fix>
</trkpt>
<trkpt lat="64.1624777" lon="-139.8402246">
  <ele>1109.09</ele>
  <time>2026-09-01T20:02:09Z</time>
  <course>180.78</course>
  <speed>0.0</speed>
  <fix>3d</fix>
</trkpt>
<trkpt lat="64.1624775" lon="-139.8402243">
  <ele>1109.08</ele>
  <time>2026-09-01T20:02:09Z</time>
  <course>6.56</course>
  <speed>0.022360679774997897</speed>
  <fix>3d</fix>
</trkpt>
<trkpt lat="64.1624777" lon="-139.8402246">
  <ele>1109.09</ele>
  <time>2026-09-01T20:02:09Z</time>
  <course>180.78</course>
  <speed>0.0</speed>
  <fix>3d</fix>
</trkpt>
<trkpt lat="64.1624775" lon="-139.8402243">
  <ele>1109.08</ele>
  <time>2026-09-01T20:02:09Z</time>
  <course>6.56</course>
  <speed>0.022360679774997897</speed>
  <fix>3d</fix>
</trkpt>
<trkpt lat="64.1624777" lon="-139.8402246">
  <ele>1109.09</ele>
  <time>2026-09-01T20:02:09Z</time>
  <course>180.78</course>
  <speed>0.0</speed>
  <fix>3d</fix>
</trkpt>
<trkpt lat="64.1624775" lon="-139.8402243">
  <ele>1109.08</ele>
  <time>2026-09-01T20:02:09Z</time>
  <course>6.56</course>
  <speed>0.022360679774997897</speed>
  <fix>3d</fix>
</trkpt>
<trkpt lat="64.1624777" lon="-139.8402246">
  <ele>1109.09</ele>
  <time>2026-09-01T20:02:09Z</time>
  <course>180.78</course>
  <speed>0.0</speed>
  <fix>3d</fix>
</trkpt>
<trkpt lat="64.1624775" lon="-139.8402243">
  <ele>1109.08</ele>
  <time>2026-09-01T20:02:09Z</time>
  <course>6.56</course>
  <speed>0.022360679774997897</speed>
  <fix>3d</fix>
</trkpt>
<trkpt lat="64.1624777" lon="-139.8402246">
  <ele>1109.09</ele>
  <time>2026-09-01T20:02:09Z</time>
  <course>180.78</course>
  <speed>0.0</speed>
  <fix>3d</fix>
</trkpt>
<trkpt lat="64.1624775" lon="-139.8402243">
  <ele>1109.08</ele>
  <time>2026-09-01T20:02:09Z</time>
  <course>6.56</course>
  <speed>0.022360679774997897</speed>
  <fix>3d</fix>
</trkpt>
<trkpt lat="64.1624777" lon="-139.8402246">
  <ele>1109.09</ele>
  <time>2026-09-01T20:02:09Z</time>
  <course>180.78</course>
  <speed>0.0</speed>
  <fix>3d</fix>
</trkpt>
<trkpt lat="64.1624775" lon="-139.8402243">
  <ele>1109.08</ele>
  <time>2026-09-01T20:02:09Z</time>
  <course>6.56</course>
  <speed>0.022360679774997897</speed>
  <fix>3d</fix>
</trkpt>
<trkpt lat="64.1624777" lon="-139.8402246">
  <ele>1109.09</ele>
  <time>2026-09-01T20:02:09Z</time>
  <course>180.78</course>
  <speed>0.0</speed>
  <fix>3d</fix>
</trkpt>
<trkpt lat="64.1624775" lon="-139.8402243">
  <ele>1109.08</ele>
  <time>2026-09-01T20:02:09Z</time>
  <course>6.56</course>
  <speed>0.022360679774997897</speed>
  <fix>3d</fix>
</trkpt>
<trkpt lat="64.1624777" lon="-139.8402246">
  <ele>1109.09</ele>
  <time>2026-09-01T20:02:09Z</time>
  <course>180.78</course>
  <speed>0.0</speed>
  <fix>3d</fix>
</trkpt>
<trkpt lat="64.1624775" lon="-139.8402243">
  <ele>1109.08</ele>
  <time>2026-09-01T20:02:09Z</time>
  <course>6.56</course>
  <speed>0.022360679774997897</speed>
  <fix>3d</fix>
</trkpt>
<trkpt lat="64.1624777" lon="-139.8402246">
  <ele>1109.09</ele>
  <time>2026-09-01T20:02:09Z</time>
  <course>180.78</course>
  <speed>0.0</speed>
  <fix>3d</fix>
</trkpt>
<trkpt lat="64.1624775" lon="-139.8402243">
  <ele>1109.08</ele>
  <time>2026-09-01T20:02:09Z</time>
  <course>6.56</course>
  <speed>0.022360679774997897</speed>
  <fix>3d</fix>
</trkpt>
<trkpt lat="64.1624777" lon="-139.8402246">
  <ele>1109.09</ele>
  <time>2026-09-01T20:02:09Z</time>
  <course>180.78</course>
  <speed>0.0</speed>
  <fix>3d</fix>
</trkpt>
<trkpt lat="64.1624775" lon="-139.8402243">
  <ele>1109.07</ele>
  <time>2026-09-01T20:02:09Z</time>
  <course>6.57</course>
  <speed>0.022360679774997897</speed>
  <fix>3d</fix>
</trkpt>
<trkpt lat="64.1624777" lon="-139.8402246">
  <ele>1109.09</ele>
  <time>2026-09-01T20:02:09Z</time>
  <course>180.78</course>
  <speed>0.0</speed>
  <fix>3d</fix>
</trkpt>
<trkpt lat="64.1624775" lon="-139.8402243">
  <ele>1109.08</ele>
  <time>2026-09-01T20:02:09Z</time>
  <course>6.57</course>
  <speed>0.022360679774997897</speed>
  <fix>3d</fix>
</trkpt>
<trkpt lat="64.1624777" lon="-139.8402246">
  <ele>1109.09</ele>
  <time>2026-09-01T20:02:09Z</time>
  <course>180.78</course>
  <speed>0.0</speed>
  <fix>3d</fix>
</trkpt>
<trkpt lat="64.1624775" lon="-139.8402243">
  <ele>1109.09</ele>
  <time>2026-09-01T20:02:09Z</time>
  <course>6.57</course>
  <speed>0.022360679774997897</speed>
  <fix>3d</fix>
</trkpt>
<trkpt lat="64.1624777" lon="-139.8402246">
  <ele>1109.09</ele>
  <time>2026-09-01T20:02:09Z</time>
  <course>180.78</course>
  <speed>0.0</speed>
  <fix>3d</fix>
</trkpt>
<trkpt lat="64.1624775" lon="-139.8402243">
  <ele>1109.08</ele>
  <time>2026-09-01T20:02:09Z</time>
  <course>6.57</course>
  <speed>0.022360679774997897</speed>
  <fix>3d</fix>
</trkpt>
<trkpt lat="64.1624777" lon="-139.8402246">
  <ele>1109.09</ele>
  <time>2026-09-01T20:02:09Z</time>
  <course>180.78</course>
  <speed>0.0</speed>
  <fix>3d</fix>
</trkpt>
<trkpt lat="64.1624775" lon="-139.8402243">
  <ele>1109.08</ele>
  <time>2026-09-01T20:02:09Z</time>
  <course>6.57</course>
  <speed>0.022360679774997897</speed>
  <fix>3d</fix>
</trkpt>
<trkpt lat="64.1624777" lon="-139.8402246">
  <ele>1109.09</ele>
  <time>2026-09-01T20:02:09Z</time>
  <course>180.78</course>
  <speed>0.0</speed>
  <fix>3d</fix>
</trkpt>
<trkpt lat="64.1624775" lon="-139.8402243">
  <ele>1109.08</ele>
  <time>2026-09-01T20:02:09Z</time>
  <course>6.57</course>
  <speed>0.022360679774997897</speed>
  <fix>3d</fix>
</trkpt>
<trkpt lat="64.1624777" lon="-139.8402246">
  <ele>1109.09</ele>
  <time>2026-09-01T20:02:09Z</time>
  <course>180.78</course>
  <speed>0.0</speed>
  <fix>3d</fix>
</trkpt>
<trkpt lat="64.1624775" lon="-139.8402243">
  <ele>1109.08</ele>
  <time>2026-09-01T20:02:09Z</time>
  <course>6.57</course>
  <speed>0.022360679774997897</speed>
  <fix>3d</fix>
</trkpt>
<trkpt lat="64.1624777" lon="-139.8402246">
  <ele>1109.09</ele>
  <time>2026-09-01T20:02:09Z</time>
  <course>180.78</course>
  <speed>0.0</speed>
  <fix>3d</fix>
</trkpt>
<trkpt lat="64.1624775" lon="-139.8402243">
  <ele>1109.08</ele>
  <time>2026-09-01T20:02:09Z</time>
  <course>6.57</course>
  <speed>0.022360679774997897</speed>
  <fix>3d</fix>
</trkpt>
<trkpt lat="64.1624777" lon="-139.8402246">
  <ele>1109.09</ele>
  <time>2026-09-01T20:02:09Z</time>
  <course>180.78</course>
  <speed>0.0</speed>
  <fix>3d</fix>
</trkpt>
<trkpt lat="64.1624775" lon="-139.8402243">
  <ele>1109.08</ele>
  <time>2026-09-01T20:02:09Z</time>
  <course>6.57</course>
  <speed>0.022360679774997897</speed>
  <fix>3d</fix>
</trkpt>
<trkpt lat="64.1624777" lon="-139.8402246">
  <ele>1109.09</ele>
  <time>2026-09-01T20:02:09Z</time>
  <course>180.78</course>
  <speed>0.0</speed>
  <fix>3d</fix>
</trkpt>
<trkpt lat="64.1624775" lon="-139.8402243">
  <ele>1109.08</ele>
  <time>2026-09-01T20:02:09Z</time>
  <course>6.57</course>
  <speed>0.022360679774997897</speed>
  <fix>3d</fix>
</trkpt>
<trkpt lat="64.1624777" lon="-139.8402246">
  <ele>1109.09</ele>
  <time>2026-09-01T20:02:09Z</time>
  <course>180.78</course>
  <speed>0.0</speed>
  <fix>3d</fix>
</trkpt>
<trkpt lat="64.1624775" lon="-139.8402243">
  <ele>1109.08</ele>
  <time>2026-09-01T20:02:09Z</time>
  <course>6.58</course>
  <speed>0.022360679774997897</speed>
  <fix>3d</fix>
</trkpt>
<trkpt lat="64.1624777" lon="-139.8402246">
  <ele>1109.09</ele>
  <time>2026-09-01T20:02:09Z</time>
  <course>180.78</course>
  <speed>0.0</speed>
  <fix>3d</fix>
</trkpt>
<trkpt lat="64.1624775" lon="-139.8402243">
  <ele>1109.07</ele>
  <time>2026-09-01T20:02:09Z</time>
  <course>6.58</course>
  <speed>0.022360679774997897</speed>
  <fix>3d</fix>
</trkpt>
<trkpt lat="64.1624777" lon="-139.8402246">
  <ele>1109.09</ele>
  <time>2026-09-01T20:02:09Z</time>
  <course>180.78</course>
  <speed>0.0</speed>
  <fix>3d</fix>
</trkpt>
<trkpt lat="64.1624775" lon="-139.8402243">
  <ele>1109.07</ele>
  <time>2026-09-01T20:02:09Z</time>
  <course>6.58</course>
  <speed>0.022360679774997897</speed>
  <fix>3d</fix>
</trkpt>
<trkpt lat="64.1624777" lon="-139.8402246">
  <ele>1109.09</ele>
  <time>2026-09-01T20:02:09Z</time>
  <course>180.78</course>
  <speed>0.0</speed>
  <fix>3d</fix>
</trkpt>
<trkpt lat="64.1624775" lon="-139.8402243">
  <ele>1109.07</ele>
  <time>2026-09-01T20:02:09Z</time>
  <course>6.58</course>
  <speed>0.022360679774997897</speed>
  <fix>3d</fix>
</trkpt>
<trkpt lat="64.1624777" lon="-139.8402246">
  <ele>1109.09</ele>
  <time>2026-09-01T20:02:09Z</time>
  <course>180.78</course>
  <speed>0.0</speed>
  <fix>3d</fix>
</trkpt>
<trkpt lat="64.1624775" lon="-139.8402243">
  <ele>1109.07</ele>
  <time>2026-09-01T20:02:09Z</time>
  <course>6.58</course>
  <speed>0.022360679774997897</speed>
  <fix>3d</fix>
</trkpt>
<trkpt lat="64.1624777" lon="-139.8402246">
  <ele>1109.09</ele>
  <time>2026-09-01T20:02:09Z</time>
  <course>180.78</course>
  <speed>0.0</speed>
  <fix>3d</fix>
</trkpt>
<trkpt lat="64.1624775" lon="-139.8402243">
  <ele>1109.07</ele>
  <time>2026-09-01T20:02:09Z</time>
  <course>6.58</course>
  <speed>0.022360679774997897</speed>
  <fix>3d</fix>
</trkpt>
<trkpt lat="64.1624777" lon="-139.8402246">
  <ele>1109.09</ele>
  <time>2026-09-01T20:02:09Z</time>
  <course>180.78</course>
  <speed>0.0</speed>
  <fix>3d</fix>
</trkpt>
<trkpt lat="64.1624775" lon="-139.8402243">
  <ele>1109.07</ele>
  <time>2026-09-01T20:02:09Z</time>
  <course>6.58</course>
  <speed>0.022360679774997897</speed>
  <fix>3d</fix>
</trkpt>
<trkpt lat="64.1624777" lon="-139.8402246">
  <ele>1109.09</ele>
  <time>2026-09-01T20:02:09Z</time>
  <course>180.78</course>
  <speed>0.0</speed>
  <fix>3d</fix>
</trkpt>
<trkpt lat="64.1624775" lon="-139.8402243">
  <ele>1109.06</ele>
  <time>2026-09-01T20:02:09Z</time>
  <course>6.58</course>
  <speed>0.022360679774997897</speed>
  <fix>3d</fix>
</trkpt>
<trkpt lat="64.1624777" lon="-139.8402246">
  <ele>1109.09</ele>
  <time>2026-09-01T20:02:09Z</time>
  <course>180.78</course>
  <speed>0.0</speed>
  <fix>3d</fix>
</trkpt>
<trkpt lat="64.1624775" lon="-139.8402243">
  <ele>1109.06</ele>
  <time>2026-09-01T20:02:09Z</time>
  <course>6.59</course>
  <speed>0.022360679774997897</speed>
  <fix>3d</fix>
</trkpt>
<trkpt lat="64.1624777" lon="-139.8402246">
  <ele>1109.09</ele>
  <time>2026-09-01T20:02:09Z</time>
  <course>180.78</course>
  <speed>0.0</speed>
  <fix>3d</fix>
</trkpt>
<trkpt lat="64.1624775" lon="-139.8402243">
  <ele>1109.06</ele>
  <time>2026-09-01T20:02:09Z</time>
  <course>6.59</course>
  <speed>0.022360679774997897</speed>
  <fix>3d</fix>
</trkpt>
<trkpt lat="64.1624777" lon="-139.8402246">
  <ele>1109.09</ele>
  <time>2026-09-01T20:02:09Z</time>
  <course>180.78</course>
  <speed>0.0</speed>
  <fix>3d</fix>
</trkpt>
<trkpt lat="64.1624775" lon="-139.8402243">
  <ele>1109.06</ele>
  <time>2026-09-01T20:02:09Z</time>
  <course>6.59</course>
  <speed>0.022360679774997897</speed>
  <fix>3d</fix>
</trkpt>
<trkpt lat="64.1624777" lon="-139.8402246">
  <ele>1109.09</ele>
  <time>2026-09-01T20:02:09Z</time>
  <course>180.78</course>
  <speed>0.0</speed>
  <fix>3d</fix>
</trkpt>
<trkpt lat="64.1624775" lon="-139.8402243">
  <ele>1109.06</ele>
  <time>2026-09-01T20:02:09Z</time>
  <course>6.59</course>
  <speed>0.022360679774997897</speed>
  <fix>3d</fix>
</trkpt>
<trkpt lat="64.1624777" lon="-139.8402246">
  <ele>1109.09</ele>
  <time>2026-09-01T20:02:09Z</time>
  <course>180.78</course>
  <speed>0.0</speed>
  <fix>3d</fix>
</trkpt>
<trkpt lat="64.1624775" lon="-139.8402243">
  <ele>1109.06</ele>
  <time>2026-09-01T20:02:09Z</time>
  <course>6.59</course>
  <speed>0.022360679774997897</speed>
  <fix>3d</fix>
</trkpt>
<trkpt lat="64.1624777" lon="-139.8402246">
  <ele>1109.09</ele>
  <time>2026-09-01T20:02:09Z</time>
  <course>180.78</course>
  <speed>0.0</speed>
  <fix>3d</fix>
</trkpt>
<trkpt lat="64.1624775" lon="-139.8402243">
  <ele>1109.06</ele>
  <time>2026-09-01T20:02:09Z</time>
  <course>6.59</course>
  <speed>0.022360679774997897</speed>
  <fix>3d</fix>
</trkpt>
<trkpt lat="64.1624777" lon="-139.8402246">
  <ele>1109.09</ele>
  <time>2026-09-01T20:02:09Z</time>
  <course>180.78</course>
  <speed>0.0</speed>
  <fix>3d</fix>
</trkpt>
<trkpt lat="64.1624775" lon="-139.8402243">
  <ele>1109.06</ele>
  <time>2026-09-01T20:02:09Z</time>
  <course>6.59</course>
  <speed>0.022360679774997897</speed>
  <fix>3d</fix>
</trkpt>
<trkpt lat="64.1624777" lon="-139.8402246">
  <ele>1109.09</ele>
  <time>2026-09-01T20:02:09Z</time>
  <course>180.78</course>
  <speed>0.0</speed>
  <fix>3d</fix>
</trkpt>
<trkpt lat="64.1624775" lon="-139.8402243">
  <ele>1109.06</ele>
  <time>2026-09-01T20:02:09Z</time>
  <course>6.59</course>
  <speed>0.022360679774997897</speed>
  <fix>3d</fix>
</trkpt>
<trkpt lat="64.1624777" lon="-139.8402246">
  <ele>1109.09</ele>
  <time>2026-09-01T20:02:09Z</time>
  <course>180.78</course>
  <speed>0.0</speed>
  <fix>3d</fix>
</trkpt>
<trkpt lat="64.1624775" lon="-139.8402243">
  <ele>1109.06</ele>
  <time>2026-09-01T20:02:09Z</time>
  <course>6.59</course>
  <speed>0.022360679774997897</speed>
  <fix>3d</fix>
</trkpt>
<trkpt lat="64.1624777" lon="-139.8402246">
  <ele>1109.09</ele>
  <time>2026-09-01T20:02:09Z</time>
  <course>180.78</course>
  <speed>0.0</speed>
  <fix>3d</fix>
</trkpt>
<trkpt lat="64.1624775" lon="-139.8402243">
  <ele>1109.05</ele>
  <time>2026-09-01T20:02:09Z</time>
  <course>6.6</course>
  <speed>0.022360679774997897</speed>
  <fix>3d</fix>
</trkpt>
<trkpt lat="64.1624777" lon="-139.8402246">
  <ele>1109.09</ele>
  <time>2026-09-01T20:02:09Z</time>
  <course>180.78</course>
  <speed>0.0</speed>
  <fix>3d</fix>
</trkpt>
<trkpt lat="64.1624775" lon="-139.8402243">
  <ele>1109.05</ele>
  <time>2026-09-01T20:02:09Z</time>
  <course>6.6</course>
  <speed>0.022360679774997897</speed>
  <fix>3d</fix>
</trkpt>
<trkpt lat="64.1624777" lon="-139.8402246">
  <ele>1109.09</ele>
  <time>2026-09-01T20:02:09Z</time>
  <course>180.78</course>
  <speed>0.0</speed>
  <fix>3d</fix>
</trkpt>
<trkpt lat="64.1624775" lon="-139.8402243">
  <ele>1109.05</ele>
  <time>2026-09-01T20:02:09Z</time>
  <course>6.6</course>
  <speed>0.022360679774997897</speed>
  <fix>3d</fix>
</trkpt>
<trkpt lat="64.1624777" lon="-139.8402246">
  <ele>1109.09</ele>
  <time>2026-09-01T20:02:09Z</time>
  <course>180.78</course>
  <speed>0.0</speed>
  <fix>3d</fix>
</trkpt>
<trkpt lat="64.1624775" lon="-139.8402243">
  <ele>1109.05</ele>
  <time>2026-09-01T20:02:09Z</time>
  <course>6.6</course>
  <speed>0.022360679774997897</speed>
  <fix>3d</fix>
</trkpt>
<trkpt lat="64.1624777" lon="-139.8402246">
  <ele>1109.09</ele>
  <time>2026-09-01T20:02:09Z</time>
  <course>180.78</course>
  <speed>0.0</speed>
  <fix>3d</fix>
</trkpt>
<trkpt lat="64.1624775" lon="-139.8402243">
  <ele>1109.05</ele>
  <time>2026-09-01T20:02:09Z</time>
  <course>6.6</course>
  <speed>0.022360679774997897</speed>
  <fix>3d</fix>
</trkpt>
<trkpt lat="64.1624777" lon="-139.8402246">
  <ele>1109.09</ele>
  <time>2026-09-01T20:02:09Z</time>
  <course>180.78</course>
  <speed>0.0</speed>
  <fix>3d</fix>
</trkpt>
<trkpt lat="64.1624775" lon="-139.8402243">
  <ele>1109.05</ele>
  <time>2026-09-01T20:02:09Z</time>
  <course>6.6</course>
  <speed>0.022360679774997897</speed>
  <fix>3d</fix>
</trkpt>
<trkpt lat="64.1624777" lon="-139.8402246">
  <ele>1109.09</ele>
  <time>2026-09-01T20:02:09Z</time>
  <course>180.78</course>
  <speed>0.0</speed>
  <fix>3d</fix>
</trkpt>
<trkpt lat="64.1624775" lon="-139.8402243">
  <ele>1109.05</ele>
  <time>2026-09-01T20:02:09Z</time>
  <course>6.6</course>
  <speed>0.022360679774997897</speed>
  <fix>3d</fix>
</trkpt>
<trkpt lat="64.1624777" lon="-139.8402246">
  <ele>1109.09</ele>
  <time>2026-09-01T20:02:09Z</time>
  <course>180.78</course>
  <speed>0.0</speed>
  <fix>3d</fix>
</trkpt>
<trkpt lat="64.1624775" lon="-139.8402243">
  <ele>1109.05</ele>
  <time>2026-09-01T20:02:09Z</time>
  <course>6.6</course>
  <speed>0.022360679774997897</speed>
  <fix>3d</fix>
</trkpt>
<trkpt lat="64.1624777" lon="-139.8402246">
  <ele>1109.09</ele>
  <time>2026-09-01T20:02:09Z</time>
  <course>180.78</course>
  <speed>0.0</speed>
  <fix>3d</fix>
</trkpt>
<trkpt lat="64.1624775" lon="-139.8402243">
  <ele>1109.05</ele>
  <time>2026-09-01T20:02:09Z</time>
  <course>6.6</course>
  <speed>0.022360679774997897</speed>
  <fix>3d</fix>
</trkpt>
<trkpt lat="64.1624777" lon="-139.8402246">
  <ele>1109.09</ele>
  <time>2026-09-01T20:02:09Z</time>
  <course>180.78</course>
  <speed>0.0</speed>
  <fix>3d</fix>
</trkpt>
<trkpt lat="64.1624775" lon="-139.8402243">
  <ele>1109.05</ele>
  <time>2026-09-01T20:02:09Z</time>
  <course>6.61</course>
  <speed>0.022360679774997897</speed>
  <fix>3d</fix>
</trkpt>
<trkpt lat="64.1624777" lon="-139.8402246">
  <ele>1109.09</ele>
  <time>2026-09-01T20:02:09Z</time>
  <course>180.78</course>
  <speed>0.0</speed>
  <fix>3d</fix>
</trkpt>
<trkpt lat="64.1624775" lon="-139.8402243">
  <ele>1109.04</ele>
  <time>2026-09-01T20:02:09Z</time>
  <course>6.61</course>
  <speed>0.022360679774997897</speed>
  <fix>3d</fix>
</trkpt>
<trkpt lat="64.1624777" lon="-139.8402246">
  <ele>1109.09</ele>
  <time>2026-09-01T20:02:09Z</time>
  <course>180.78</course>
  <speed>0.0</speed>
  <fix>3d</fix>
</trkpt>
<trkpt lat="64.1624775" lon="-139.8402243">
  <ele>1109.04</ele>
  <time>2026-09-01T20:02:09Z</time>
  <course>6.61</course>
  <speed>0.022360679774997897</speed>
  <fix>3d</fix>
</trkpt>
<trkpt lat="64.1624777" lon="-139.8402246">
  <ele>1109.09</ele>
  <time>2026-09-01T20:02:09Z</time>
  <course>180.78</course>
  <speed>0.0</speed>
  <fix>3d</fix>
</trkpt>
<trkpt lat="64.1624775" lon="-139.8402243">
  <ele>1109.04</ele>
  <time>2026-09-01T20:02:09Z</time>
  <course>6.61</course>
  <speed>0.022360679774997897</speed>
  <fix>3d</fix>
</trkpt>
<trkpt lat="64.1624777" lon="-139.8402246">
  <ele>1109.09</ele>
  <time>2026-09-01T20:02:09Z</time>
  <course>180.78</course>
  <speed>0.0</speed>
  <fix>3d</fix>
</trkpt>
<trkpt lat="64.1624775" lon="-139.8402243">
  <ele>1109.04</ele>
  <time>2026-09-01T20:02:09Z</time>
  <course>6.61</course>
  <speed>0.022360679774997897</speed>
  <fix>3d</fix>
</trkpt>
<trkpt lat="64.1624777" lon="-139.8402246">
  <ele>1109.09</ele>
  <time>2026-09-01T20:02:09Z</time>
  <course>180.78</course>
  <speed>0.0</speed>
  <fix>3d</fix>
</trkpt>
<trkpt lat="64.1624775" lon="-139.8402243">
  <ele>1109.04</ele>
  <time>2026-09-01T20:02:09Z</time>
  <course>6.61</course>
  <speed>0.022360679774997897</speed>
  <fix>3d</fix>
</trkpt>
<trkpt lat="64.1624777" lon="-139.8402246">
  <ele>1109.09</ele>
  <time>2026-09-01T20:02:09Z</time>
  <course>180.78</course>
  <speed>0.0</speed>
  <fix>3d</fix>
</trkpt>
<trkpt lat="64.1624775" lon="-139.8402243">
  <ele>1109.04</ele>
  <time>2026-09-01T20:02:09Z</time>
  <course>6.61</course>
  <speed>0.022360679774997897</speed>
  <fix>3d</fix>
</trkpt>
<trkpt lat="64.1624777" lon="-139.8402246">
  <ele>1109.09</ele>
  <time>2026-09-01T20:02:09Z</time>
  <course>180.78</course>
  <speed>0.0</speed>
  <fix>3d</fix>
</trkpt>
<trkpt lat="64.1624775" lon="-139.8402243">
  <ele>1109.04</ele>
  <time>2026-09-01T20:02:09Z</time>
  <course>6.61</course>
  <speed>0.022360679774997897</speed>
  <fix>3d</fix>
</trkpt>
<trkpt lat="64.1624777" lon="-139.8402246">
  <ele>1109.09</ele>
  <time>2026-09-01T20:02:09Z</time>
  <course>180.78</course>
  <speed>0.0</speed>
  <fix>3d</fix>
</trkpt>
<trkpt lat="64.1624775" lon="-139.8402243">
  <ele>1109.03</ele>
  <time>2026-09-01T20:02:09Z</time>
  <course>6.61</course>
  <speed>0.022360679774997897</speed>
  <fix>3d</fix>
</trkpt>
<trkpt lat="64.1624777" lon="-139.8402246">
  <ele>1109.09</ele>
  <time>2026-09-01T20:02:09Z</time>
  <course>180.78</course>
  <speed>0.0</speed>
  <fix>3d</fix>
</trkpt>
<trkpt lat="64.1624775" lon="-139.8402243">
  <ele>1109.03</ele>
  <time>2026-09-01T20:02:09Z</time>
  <course>6.62</course>
  <speed>0.022360679774997897</speed>
  <fix>3d</fix>
</trkpt>
<trkpt lat="64.1624777" lon="-139.8402246">
  <ele>1109.09</ele>
  <time>2026-09-01T20:02:09Z</time>
  <course>180.78</course>
  <speed>0.0</speed>
  <fix>3d</fix>
</trkpt>
<trkpt lat="64.1624775" lon="-139.8402243">
  <ele>1109.03</ele>
  <time>2026-09-01T20:02:09Z</time>
  <course>6.62</course>
  <speed>0.022360679774997897</speed>
  <fix>3d</fix>
</trkpt>
<trkpt lat="64.1624777" lon="-139.8402246">
  <ele>1109.09</ele>
  <time>2026-09-01T20:02:09Z</time>
  <course>180.78</course>
  <speed>0.0</speed>
  <fix>3d</fix>
</trkpt>
<trkpt lat="64.1624775" lon="-139.8402243">
  <ele>1109.03</ele>
  <time>2026-09-01T20:02:09Z</time>
  <course>6.62</course>
  <speed>0.022360679774997897</speed>
  <fix>3d</fix>
</trkpt>
<trkpt lat="64.1624777" lon="-139.8402246">
  <ele>1109.09</ele>
  <time>2026-09-01T20:02:09Z</time>
  <course>180.78</course>
  <speed>0.0</speed>
  <fix>3d</fix>
</trkpt>
<trkpt lat="64.1624775" lon="-139.8402243">
  <ele>1109.03</ele>
  <time>2026-09-01T20:02:09Z</time>
  <course>6.62</course>
  <speed>0.022360679774997897</speed>
  <fix>3d</fix>
</trkpt>
<trkpt lat="64.1624777" lon="-139.8402246">
  <ele>1109.09</ele>
  <time>2026-09-01T20:02:09Z</time>
  <course>180.78</course>
  <speed>0.0</speed>
  <fix>3d</fix>
</trkpt>
<trkpt lat="64.1624775" lon="-139.8402243">
  <ele>1109.03</ele>
  <time>2026-09-01T20:02:09Z</time>
  <course>6.62</course>
  <speed>0.022360679774997897</speed>
  <fix>3d</fix>
</trkpt>
<trkpt lat="64.1624777" lon="-139.8402246">
  <ele>1109.09</ele>
  <time>2026-09-01T20:02:09Z</time>
  <course>180.78</course>
  <speed>0.0</speed>
  <fix>3d</fix>
</trkpt>
<trkpt lat="64.1624775" lon="-139.8402243">
  <ele>1109.03</ele>
  <time>2026-09-01T20:02:09Z</time>
  <course>6.62</course>
  <speed>0.022360679774997897</speed>
  <fix>3d</fix>
</trkpt>
<trkpt lat="64.1624777" lon="-139.8402246">
  <ele>1109.09</ele>
  <time>2026-09-01T20:02:09Z</time>
  <course>180.78</course>
  <speed>0.0</speed>
  <fix>3d</fix>
</trkpt>
<trkpt lat="64.1624775" lon="-139.8402243">
  <ele>1109.03</ele>
  <time>2026-09-01T20:02:09Z</time>
  <course>6.62</course>
  <speed>0.022360679774997897</speed>
  <fix>3d</fix>
</trkpt>
<trkpt lat="64.1624777" lon="-139.8402246">
  <ele>1109.09</ele>
  <time>2026-09-01T20:02:09Z</time>
  <course>180.78</course>
  <speed>0.0</speed>
  <fix>3d</fix>
</trkpt>
<trkpt lat="64.1624775" lon="-139.8402243">
  <ele>1109.03</ele>
  <time>2026-09-01T20:02:09Z</time>
  <course>6.62</course>
  <speed>0.022360679774997897</speed>
  <fix>3d</fix>
</trkpt>
<trkpt lat="64.1624777" lon="-139.8402246">
  <ele>1109.09</ele>
  <time>2026-09-01T20:02:09Z</time>
  <course>180.78</course>
  <speed>0.0</speed>
  <fix>3d</fix>
</trkpt>
<trkpt lat="64.1624775" lon="-139.8402243">
  <ele>1109.03</ele>
  <time>2026-09-01T20:02:09Z</time>
  <course>6.62</course>
  <speed>0.022360679774997897</speed>
  <fix>3d</fix>
</trkpt>
<trkpt lat="64.1624777" lon="-139.8402246">
  <ele>1109.09</ele>
  <time>2026-09-01T20:02:09Z</time>
  <course>180.78</course>
  <speed>0.0</speed>
  <fix>3d</fix>
</trkpt>
<trkpt lat="64.1624775" lon="-139.8402243">
  <ele>1109.03</ele>
  <time>2026-09-01T20:02:09Z</time>
  <course>6.63</course>
  <speed>0.022360679774997897</speed>
  <fix>3d</fix>
</trkpt>
<trkpt lat="64.1624777" lon="-139.8402246">
  <ele>1109.09</ele>
  <time>2026-09-01T20:02:09Z</time>
  <course>180.78</course>
  <speed>0.0</speed>
  <fix>3d</fix>
</trkpt>
<trkpt lat="64.1624775" lon="-139.8402243">
  <ele>1109.04</ele>
  <time>2026-09-01T20:02:09Z</time>
  <course>6.63</course>
  <speed>0.022360679774997897</speed>
  <fix>3d</fix>
</trkpt>
<trkpt lat="64.1624777" lon="-139.8402246">
  <ele>1109.09</ele>
  <time>2026-09-01T20:02:09Z</time>
  <course>180.78</course>
  <speed>0.0</speed>
  <fix>3d</fix>
</trkpt>
<trkpt lat="64.1624775" lon="-139.8402243">
  <ele>1109.04</ele>
  <time>2026-09-01T20:02:09Z</time>
  <course>6.63</course>
  <speed>0.022360679774997897</speed>
  <fix>3d</fix>
</trkpt>
<trkpt lat="64.1624777" lon="-139.8402246">
  <ele>1109.09</ele>
  <time>2026-09-01T20:02:09Z</time>
  <course>180.78</course>
  <speed>0.0</speed>
  <fix>3d</fix>
</trkpt>
<trkpt lat="64.1624775" lon="-139.8402243">
  <ele>1109.04</ele>
  <time>2026-09-01T20:02:09Z</time>
  <course>6.63</course>
  <speed>0.022360679774997897</speed>
  <fix>3d</fix>
</trkpt>
<trkpt lat="64.1624777" lon="-139.8402246">
  <ele>1109.09</ele>
  <time>2026-09-01T20:02:09Z</time>
  <course>180.78</course>
  <speed>0.0</speed>
  <fix>3d</fix>
</trkpt>
<trkpt lat="64.1624775" lon="-139.8402243">
  <ele>1109.04</ele>
  <time>2026-09-01T20:02:09Z</time>
  <course>6.63</course>
  <speed>0.022360679774997897</speed>
  <fix>3d</fix>
</trkpt>
<trkpt lat="64.1624777" lon="-139.8402246">
  <ele>1109.09</ele>
  <time>2026-09-01T20:02:09Z</time>
  <course>180.78</course>
  <speed>0.0</speed>
  <fix>3d</fix>
</trkpt>
<trkpt lat="64.1624775" lon="-139.8402243">
  <ele>1109.04</ele>
  <time>2026-09-01T20:02:09Z</time>
  <course>6.63</course>
  <speed>0.022360679774997897</speed>
  <fix>3d</fix>
</trkpt>
<trkpt lat="64.1624777" lon="-139.8402246">
  <ele>1109.09</ele>
  <time>2026-09-01T20:02:09Z</time>
  <course>180.78</course>
  <speed>0.0</speed>
  <fix>3d</fix>
</trkpt>
<trkpt lat="64.1624775" lon="-139.8402243">
  <ele>1109.04</ele>
  <time>2026-09-01T20:02:09Z</time>
  <course>6.63</course>
  <speed>0.022360679774997897</speed>
  <fix>3d</fix>
</trkpt>
<trkpt lat="64.1624777" lon="-139.8402246">
  <ele>1109.09</ele>
  <time>2026-09-01T20:02:09Z</time>
  <course>180.78</course>
  <speed>0.0</speed>
  <fix>3d</fix>
</trkpt>
<trkpt lat="64.1624775" lon="-139.8402243">
  <ele>1109.09</ele>
  <time>2026-09-01T20:02:09Z</time>
  <course>6.63</course>
  <speed>0.022360679774997897</speed>
  <fix>3d</fix>
</trkpt>
<trkpt lat="64.1624777" lon="-139.8402246">
  <ele>1109.09</ele>
  <time>2026-09-01T20:02:09Z</time>
  <course>180.78</course>
  <speed>0.0</speed>
  <fix>3d</fix>
</trkpt>
<trkpt lat="64.1624775" lon="-139.8402243">
  <ele>1109.09</ele>
  <time>2026-09-01T20:02:09Z</time>
  <course>6.63</course>
  <speed>0.022360679774997897</speed>
  <fix>3d</fix>
</trkpt>
<trkpt lat="64.1624777" lon="-139.8402246">
  <ele>1109.09</ele>
  <time>2026-09-01T20:02:09Z</time>
  <course>180.78</course>
  <speed>0.0</speed>
  <fix>3d</fix>
</trkpt>
<trkpt lat="64.1624775" lon="-139.8402243">
  <ele>1109.08</ele>
  <time>2026-09-01T20:02:09Z</time>
  <course>6.63</course>
  <speed>0.022360679774997897</speed>
  <fix>3d</fix>
</trkpt>
<trkpt lat="64.1624777" lon="-139.8402246">
  <ele>1109.09</ele>
  <time>2026-09-01T20:02:09Z</time>
  <course>180.78</course>
  <speed>0.0</speed>
  <fix>3d</fix>
</trkpt>
<trkpt lat="64.1624775" lon="-139.8402243">
  <ele>1109.08</ele>
  <time>2026-09-01T20:02:09Z</time>
  <course>6.64</course>
  <speed>0.022360679774997897</speed>
  <fix>3d</fix>
</trkpt>
<trkpt lat="64.1624777" lon="-139.8402246">
  <ele>1109.09</ele>
  <time>2026-09-01T20:02:09Z</time>
  <course>180.78</course>
  <speed>0.0</speed>
  <fix>3d</fix>
</trkpt>
<trkpt lat="64.1624775" lon="-139.8402243">
  <ele>1109.08</ele>
  <time>2026-09-01T20:02:09Z</time>
  <course>6.64</course>
  <speed>0.022360679774997897</speed>
  <fix>3d</fix>
</trkpt>
<trkpt lat="64.1624777" lon="-139.8402246">
  <ele>1109.09</ele>
  <time>2026-09-01T20:02:09Z</time>
  <course>180.78</course>
  <speed>0.0</speed>
  <fix>3d</fix>
</trkpt>
<trkpt lat="64.1624775" lon="-139.8402243">
  <ele>1109.08</ele>
  <time>2026-09-01T20:02:09Z</time>
  <course>6.64</course>
  <speed>0.022360679774997897</speed>
  <fix>3d</fix>
</trkpt>
<trkpt lat="64.1624777" lon="-139.8402246">
  <ele>1109.09</ele>
  <time>2026-09-01T20:02:09Z</time>
  <course>180.78</course>
  <speed>0.0</speed>
  <fix>3d</fix>
</trkpt>
<trkpt lat="64.1624775" lon="-139.8402243">
  <ele>1109.08</ele>
  <time>2026-09-01T20:02:09Z</time>
  <course>6.64</course>
  <speed>0.022360679774997897</speed>
  <fix>3d</fix>
</trkpt>
<trkpt lat="64.1624777" lon="-139.8402246">
  <ele>1109.09</ele>
  <time>2026-09-01T20:02:09Z</time>
  <course>180.78</course>
  <speed>0.0</speed>
  <fix>3d</fix>
</trkpt>
<trkpt lat="64.1624775" lon="-139.8402243">
  <ele>1109.08</ele>
  <time>2026-09-01T20:02:09Z</time>
  <course>6.64</course>
  <speed>0.022360679774997897</speed>
  <fix>3d</fix>
</trkpt>
<trkpt lat="64.1624777" lon="-139.8402246">
  <ele>1109.09</ele>
  <time>2026-09-01T20:02:09Z</time>
  <course>180.78</course>
  <speed>0.0</speed>
  <fix>3d</fix>
</trkpt>
<trkpt lat="64.1624775" lon="-139.8402243">
  <ele>1109.08</ele>
  <time>2026-09-01T20:02:09Z</time>
  <course>6.64</course>
  <speed>0.022360679774997897</speed>
  <fix>3d</fix>
</trkpt>
<trkpt lat="64.1624777" lon="-139.8402246">
  <ele>1109.09</ele>
  <time>2026-09-01T20:02:09Z</time>
  <course>180.78</course>
  <speed>0.0</speed>
  <fix>3d</fix>
</trkpt>
<trkpt lat="64.1624775" lon="-139.8402243">
  <ele>1109.07</ele>
  <time>2026-09-01T20:02:09Z</time>
  <course>6.64</course>
  <speed>0.022360679774997897</speed>
  <fix>3d</fix>
</trkpt>
<trkpt lat="64.1624777" lon="-139.8402246">
  <ele>1109.09</ele>
  <time>2026-09-01T20:02:09Z</time>
  <course>180.78</course>
  <speed>0.0</speed>
  <fix>3d</fix>
</trkpt>
<trkpt lat="64.1624775" lon="-139.8402243">
  <ele>1109.07</ele>
  <time>2026-09-01T20:02:09Z</time>
  <course>6.64</course>
  <speed>0.022360679774997897</speed>
  <fix>3d</fix>
</trkpt>
<trkpt lat="64.1624777" lon="-139.8402246">
  <ele>1109.09</ele>
  <time>2026-09-01T20:02:09Z</time>
  <course>180.78</course>
  <speed>0.0</speed>
  <fix>3d</fix>
</trkpt>
<trkpt lat="64.1624775" lon="-139.8402243">
  <ele>1109.06</ele>
  <time>2026-09-01T20:02:09Z</time>
  <course>6.64</course>
  <speed>0.022360679774997897</speed>
  <fix>3d</fix>
</trkpt>
<trkpt lat="64.1624777" lon="-139.8402246">
  <ele>1109.09</ele>
  <time>2026-09-01T20:02:09Z</time>
  <course>180.78</course>
  <speed>0.0</speed>
  <fix>3d</fix>
</trkpt>
<trkpt lat="64.1624775" lon="-139.8402243">
  <ele>1109.06</ele>
  <time>2026-09-01T20:02:09Z</time>
  <course>6.65</course>
  <speed>0.022360679774997897</speed>
  <fix>3d</fix>
</trkpt>
<trkpt lat="64.1624777" lon="-139.8402246">
  <ele>1109.09</ele>
  <time>2026-09-01T20:02:09Z</time>
  <course>180.78</course>
  <speed>0.0</speed>
  <fix>3d</fix>
</trkpt>
<trkpt lat="64.1624775" lon="-139.8402243">
  <ele>1109.05</ele>
  <time>2026-09-01T20:02:09Z</time>
  <course>6.65</course>
  <speed>0.022360679774997897</speed>
  <fix>3d</fix>
</trkpt>
<trkpt lat="64.1624777" lon="-139.8402246">
  <ele>1109.09</ele>
  <time>2026-09-01T20:02:09Z</time>
  <course>180.78</course>
  <speed>0.0</speed>
  <fix>3d</fix>
</trkpt>
<trkpt lat="64.1624775" lon="-139.8402243">
  <ele>1109.05</ele>
  <time>2026-09-01T20:02:09Z</time>
  <course>6.65</course>
  <speed>0.022360679774997897</speed>
  <fix>3d</fix>
</trkpt>
<trkpt lat="64.1624777" lon="-139.8402246">
  <ele>1109.09</ele>
  <time>2026-09-01T20:02:09Z</time>
  <course>180.78</course>
  <speed>0.0</speed>
  <fix>3d</fix>
</trkpt>
<trkpt lat="64.1624775" lon="-139.8402243">
  <ele>1109.04</ele>
  <time>2026-09-01T20:02:09Z</time>
  <course>6.65</course>
  <speed>0.022360679774997897</speed>
  <fix>3d</fix>
</trkpt>
<trkpt lat="64.1624777" lon="-139.8402246">
  <ele>1109.09</ele>
  <time>2026-09-01T20:02:09Z</time>
  <course>180.78</course>
  <speed>0.0</speed>
  <fix>3d</fix>
</trkpt>
<trkpt lat="64.1624775" lon="-139.8402243">
  <ele>1109.04</ele>
  <time>2026-09-01T20:02:09Z</time>
  <course>6.65</course>
  <speed>0.022360679774997897</speed>
  <fix>3d</fix>
</trkpt>
<trkpt lat="64.1624777" lon="-139.8402246">
  <ele>1109.09</ele>
  <time>2026-09-01T20:02:09Z</time>
  <course>180.78</course>
  <speed>0.0</speed>
  <fix>3d</fix>
</trkpt>
<trkpt lat="64.1624775" lon="-139.8402243">
  <ele>1109.04</ele>
  <time>2026-09-01T20:02:09Z</time>
  <course>6.65</course>
  <speed>0.022360679774997897</speed>
  <fix>3d</fix>
</trkpt>
<trkpt lat="64.1624777" lon="-139.8402246">
  <ele>1109.09</ele>
  <time>2026-09-01T20:02:09Z</time>
  <course>180.78</course>
  <speed>0.0</speed>
  <fix>3d</fix>
</trkpt>
<trkpt lat="64.1624775" lon="-139.8402243">
  <ele>1109.04</ele>
  <time>2026-09-01T20:02:09Z</time>
  <course>6.65</course>
  <speed>0.022360679774997897</speed>
  <fix>3d</fix>
</trkpt>
<trkpt lat="64.1624777" lon="-139.8402246">
  <ele>1109.09</ele>
  <time>2026-09-01T20:02:09Z</time>
  <course>180.78</course>
  <speed>0.0</speed>
  <fix>3d</fix>
</trkpt>
<trkpt lat="64.1624775" lon="-139.8402243">
  <ele>1109.03</ele>
  <time>2026-09-01T20:02:09Z</time>
  <course>6.65</course>
  <speed>0.022360679774997897</speed>
  <fix>3d</fix>
</trkpt>
<trkpt lat="64.1624777" lon="-139.8402246">
  <ele>1109.09</ele>
  <time>2026-09-01T20:02:09Z</time>
  <course>180.78</course>
  <speed>0.0</speed>
  <fix>3d</fix>
</trkpt>
<trkpt lat="64.1624775" lon="-139.8402243">
  <ele>1109.03</ele>
  <time>2026-09-01T20:02:09Z</time>
  <course>6.65</course>
  <speed>0.022360679774997897</speed>
  <fix>3d</fix>
</trkpt>
<trkpt lat="64.1624777" lon="-139.8402246">
  <ele>1109.09</ele>
  <time>2026-09-01T20:02:09Z</time>
  <course>180.78</course>
  <speed>0.0</speed>
  <fix>3d</fix>
</trkpt>
<trkpt lat="64.1624775" lon="-139.8402243">
  <ele>1109.03</ele>
  <time>2026-09-01T20:02:09Z</time>
  <course>6.65</course>
  <speed>0.022360679774997897</speed>
  <fix>3d</fix>
</trkpt>
<trkpt lat="64.1624777" lon="-139.8402246">
  <ele>1109.09</ele>
  <time>2026-09-01T20:02:09Z</time>
  <course>180.78</course>
  <speed>0.0</speed>
  <fix>3d</fix>
</trkpt>
<trkpt lat="64.1624775" lon="-139.8402243">
  <ele>1109.03</ele>
  <time>2026-09-01T20:02:09Z</time>
  <course>6.66</course>
  <speed>0.022360679774997897</speed>
  <fix>3d</fix>
</trkpt>
<trkpt lat="64.1624777" lon="-139.8402246">
  <ele>1109.09</ele>
  <time>2026-09-01T20:02:09Z</time>
  <course>180.78</course>
  <speed>0.0</speed>
  <fix>3d</fix>
</trkpt>
<trkpt lat="64.1624775" lon="-139.8402243">
  <ele>1109.03</ele>
  <time>2026-09-01T20:02:09Z</time>
  <course>6.66</course>
  <speed>0.022360679774997897</speed>
  <fix>3d</fix>
</trkpt>
<trkpt lat="64.1624777" lon="-139.8402246">
  <ele>1109.09</ele>
  <time>2026-09-01T20:02:09Z</time>
  <course>180.78</course>
  <speed>0.0</speed>
  <fix>3d</fix>
</trkpt>
<trkpt lat="64.1624775" lon="-139.8402243">
  <ele>1109.03</ele>
  <time>2026-09-01T20:02:09Z</time>
  <course>6.66</course>
  <speed>0.022360679774997897</speed>
  <fix>3d</fix>
</trkpt>
<trkpt lat="64.1624777" lon="-139.8402246">
  <ele>1109.09</ele>
  <time>2026-09-01T20:02:09Z</time>
  <course>180.78</course>
  <speed>0.0</speed>
  <fix>3d</fix>
</trkpt>
<trkpt lat="64.1624775" lon="-139.8402243">
  <ele>1109.03</ele>
  <time>2026-09-01T20:02:09Z</time>
  <course>6.66</course>
  <speed>0.022360679774997897</speed>
  <fix>3d</fix>
</trkpt>
<trkpt lat="64.1624777" lon="-139.8402246">
  <ele>1109.09</ele>
  <time>2026-09-01T20:02:09Z</time>
  <course>180.78</course>
  <speed>0.0</speed>
  <fix>3d</fix>
</trkpt>
<trkpt lat="64.1624775" lon="-139.8402243">
  <ele>1109.03</ele>
  <time>2026-09-01T20:02:09Z</time>
  <course>6.66</course>
  <speed>0.022360679774997897</speed>
  <fix>3d</fix>
</trkpt>
<trkpt lat="64.1624777" lon="-139.8402246">
  <ele>1109.09</ele>
  <time>2026-09-01T20:02:09Z</time>
  <course>180.78</course>
  <speed>0.0</speed>
  <fix>3d</fix>
</trkpt>
<trkpt lat="64.1624775" lon="-139.8402243">
  <ele>1109.03</ele>
  <time>2026-09-01T20:02:09Z</time>
  <course>6.66</course>
  <speed>0.022360679774997897</speed>
  <fix>3d</fix>
</trkpt>
<trkpt lat="64.1624777" lon="-139.8402246">
  <ele>1109.09</ele>
  <time>2026-09-01T20:02:09Z</time>
  <course>180.78</course>
  <speed>0.0</speed>
  <fix>3d</fix>
</trkpt>
<trkpt lat="64.1624775" lon="-139.8402243">
  <ele>1109.02</ele>
  <time>2026-09-01T20:02:09Z</time>
  <course>6.66</course>
  <speed>0.022360679774997897</speed>
  <fix>3d</fix>
</trkpt>
<trkpt lat="64.1624777" lon="-139.8402246">
  <ele>1109.09</ele>
  <time>2026-09-01T20:02:09Z</time>
  <course>180.78</course>
  <speed>0.0</speed>
  <fix>3d</fix>
</trkpt>
<trkpt lat="64.1624775" lon="-139.8402243">
  <ele>1109.02</ele>
  <time>2026-09-01T20:02:09Z</time>
  <course>6.66</course>
  <speed>0.022360679774997897</speed>
  <fix>3d</fix>
</trkpt>
<trkpt lat="64.1624777" lon="-139.8402246">
  <ele>1109.09</ele>
  <time>2026-09-01T20:02:09Z</time>
  <course>180.78</course>
  <speed>0.0</speed>
  <fix>3d</fix>
</trkpt>
<trkpt lat="64.1624775" lon="-139.8402243">
  <ele>1109.02</ele>
  <time>2026-09-01T20:02:09Z</time>
  <course>6.66</course>
  <speed>0.022360679774997897</speed>
  <fix>3d</fix>
</trkpt>
<trkpt lat="64.1624777" lon="-139.8402246">
  <ele>1109.09</ele>
  <time>2026-09-01T20:02:09Z</time>
  <course>180.78</course>
  <speed>0.0</speed>
  <fix>3d</fix>
</trkpt>
<trkpt lat="64.1624775" lon="-139.8402243">
  <ele>1109.02</ele>
  <time>2026-09-01T20:02:09Z</time>
  <course>6.66</course>
  <speed>0.022360679774997897</speed>
  <fix>3d</fix>
</trkpt>
<trkpt lat="64.1624777" lon="-139.8402246">
  <ele>1109.09</ele>
  <time>2026-09-01T20:02:09Z</time>
  <course>180.78</course>
  <speed>0.0</speed>
  <fix>3d</fix>
</trkpt>
<trkpt lat="64.1624775" lon="-139.8402243">
  <ele>1109.02</ele>
  <time>2026-09-01T20:02:09Z</time>
  <course>6.67</course>
  <speed>0.022360679774997897</speed>
  <fix>3d</fix>
</trkpt>
<trkpt lat="64.1624777" lon="-139.8402246">
  <ele>1109.09</ele>
  <time>2026-09-01T20:02:09Z</time>
  <course>180.78</course>
  <speed>0.0</speed>
  <fix>3d</fix>
</trkpt>
<trkpt lat="64.1624775" lon="-139.8402243">
  <ele>1109.02</ele>
  <time>2026-09-01T20:02:09Z</time>
  <course>6.67</course>
  <speed>0.022360679774997897</speed>
  <fix>3d</fix>
</trkpt>
<trkpt lat="64.1624777" lon="-139.8402246">
  <ele>1109.09</ele>
  <time>2026-09-01T20:02:09Z</time>
  <course>180.78</course>
  <speed>0.0</speed>
  <fix>3d</fix>
</trkpt>
<trkpt lat="64.1624775" lon="-139.8402243">
  <ele>1109.02</ele>
  <time>2026-09-01T20:02:09Z</time>
  <course>6.67</course>
  <speed>0.022360679774997897</speed>
  <fix>3d</fix>
</trkpt>
<trkpt lat="64.1624777" lon="-139.8402246">
  <ele>1109.09</ele>
  <time>2026-09-01T20:02:09Z</time>
  <course>180.78</course>
  <speed>0.0</speed>
  <fix>3d</fix>
</trkpt>
<trkpt lat="64.1624775" lon="-139.8402243">
  <ele>1109.02</ele>
  <time>2026-09-01T20:02:09Z</time>
  <course>6.67</course>
  <speed>0.022360679774997897</speed>
  <fix>3d</fix>
</trkpt>
<trkpt lat="64.1624777" lon="-139.8402246">
  <ele>1109.09</ele>
  <time>2026-09-01T20:02:09Z</time>
  <course>180.78</course>
  <speed>0.0</speed>
  <fix>3d</fix>
</trkpt>
<trkpt lat="64.1624775" lon="-139.8402243">
  <ele>1109.02</ele>
  <time>2026-09-01T20:02:09Z</time>
  <course>6.67</course>
  <speed>0.022360679774997897</speed>
  <fix>3d</fix>
</trkpt>
<trkpt lat="64.1624777" lon="-139.8402246">
  <ele>1109.09</ele>
  <time>2026-09-01T20:02:09Z</time>
  <course>180.78</course>
  <speed>0.0</speed>
  <fix>3d</fix>
</trkpt>
<trkpt lat="64.1624775" lon="-139.8402243">
  <ele>1109.02</ele>
  <time>2026-09-01T20:02:09Z</time>
  <course>6.67</course>
  <speed>0.022360679774997897</speed>
  <fix>3d</fix>
</trkpt>
<trkpt lat="64.1624777" lon="-139.8402246">
  <ele>1109.09</ele>
  <time>2026-09-01T20:02:09Z</time>
  <course>180.78</course>
  <speed>0.0</speed>
  <fix>3d</fix>
</trkpt>
<trkpt lat="64.1624775" lon="-139.8402243">
  <ele>1109.02</ele>
  <time>2026-09-01T20:02:09Z</time>
  <course>6.67</course>
  <speed>0.022360679774997897</speed>
  <fix>3d</fix>
</trkpt>
<trkpt lat="64.1624777" lon="-139.8402246">
  <ele>1109.09</ele>
  <time>2026-09-01T20:02:09Z</time>
  <course>180.78</course>
  <speed>0.0</speed>
  <fix>3d</fix>
</trkpt>
<trkpt lat="64.1624775" lon="-139.8402243">
  <ele>1109.02</ele>
  <time>2026-09-01T20:02:09Z</time>
  <course>6.67</course>
  <speed>0.022360679774997897</speed>
  <fix>3d</fix>
</trkpt>
<trkpt lat="64.1624777" lon="-139.8402246">
  <ele>1109.09</ele>
  <time>2026-09-01T20:02:09Z</time>
  <course>180.78</course>
  <speed>0.0</speed>
  <fix>3d</fix>
</trkpt>
<trkpt lat="64.1624775" lon="-139.8402243">
  <ele>1109.02</ele>
  <time>2026-09-01T20:02:09Z</time>
  <course>6.67</course>
  <speed>0.022360679774997897</speed>
  <fix>3d</fix>
</trkpt>
<trkpt lat="64.1624777" lon="-139.8402246">
  <ele>1109.09</ele>
  <time>2026-09-01T20:02:09Z</time>
  <course>180.78</course>
  <speed>0.0</speed>
  <fix>3d</fix>
</trkpt>
<trkpt lat="64.1624775" lon="-139.8402243">
  <ele>1109.02</ele>
  <time>2026-09-01T20:02:09Z</time>
  <course>6.68</course>
  <speed>0.022360679774997897</speed>
  <fix>3d</fix>
</trkpt>
<trkpt lat="64.1624777" lon="-139.8402246">
  <ele>1109.09</ele>
  <time>2026-09-01T20:02:09Z</time>
  <course>180.78</course>
  <speed>0.0</speed>
  <fix>3d</fix>
</trkpt>
<trkpt lat="64.1624775" lon="-139.8402243">
  <ele>1109.02</ele>
  <time>2026-09-01T20:02:09Z</time>
  <course>6.68</course>
  <speed>0.022360679774997897</speed>
  <fix>3d</fix>
</trkpt>
<trkpt lat="64.1624777" lon="-139.8402246">
  <ele>1109.09</ele>
  <time>2026-09-01T20:02:09Z</time>
  <course>180.78</course>
  <speed>0.0</speed>
  <fix>3d</fix>
</trkpt>
<trkpt lat="64.1624775" lon="-139.8402243">
  <ele>1109.02</ele>
  <time>2026-09-01T20:02:09Z</time>
  <course>6.68</course>
  <speed>0.022360679774997897</speed>
  <fix>3d</fix>
</trkpt>
<trkpt lat="64.1624777" lon="-139.8402246">
  <ele>1109.09</ele>
  <time>2026-09-01T20:02:09Z</time>
  <course>180.78</course>
  <speed>0.0</speed>
  <fix>3d</fix>
</trkpt>
<trkpt lat="64.1624775" lon="-139.8402243">
  <ele>1109.02</ele>
  <time>2026-09-01T20:02:09Z</time>
  <course>6.68</course>
  <speed>0.022360679774997897</speed>
  <fix>3d</fix>
</trkpt>
<trkpt lat="64.1624777" lon="-139.8402246">
  <ele>1109.09</ele>
  <time>2026-09-01T20:02:09Z</time>
  <course>180.78</course>
  <speed>0.0</speed>
  <fix>3d</fix>
</trkpt>
<trkpt lat="64.1624775" lon="-139.8402243">
  <ele>1109.01</ele>
  <time>2026-09-01T20:02:09Z</time>
  <course>6.68</course>
  <speed>0.022360679774997897</speed>
  <fix>3d</fix>
</trkpt>
<trkpt lat="64.1624777" lon="-139.8402246">
  <ele>1109.09</ele>
  <time>2026-09-01T20:02:09Z</time>
  <course>180.78</course>
  <speed>0.0</speed>
  <fix>3d</fix>
</trkpt>
<trkpt lat="64.1624775" lon="-139.8402243">
  <ele>1109.01</ele>
  <time>2026-09-01T20:02:09Z</time>
  <course>6.68</course>
  <speed>0.022360679774997897</speed>
  <fix>3d</fix>
</trkpt>
<trkpt lat="64.1624777" lon="-139.8402246">
  <ele>1109.09</ele>
  <time>2026-09-01T20:02:09Z</time>
  <course>180.78</course>
  <speed>0.0</speed>
  <fix>3d</fix>
</trkpt>
<trkpt lat="64.1624775" lon="-139.8402243">
  <ele>1109.01</ele>
  <time>2026-09-01T20:02:09Z</time>
  <course>6.68</course>
  <speed>0.022360679774997897</speed>
  <fix>3d</fix>
</trkpt>
<trkpt lat="64.1624777" lon="-139.8402246">
  <ele>1109.09</ele>
  <time>2026-09-01T20:02:09Z</time>
  <course>180.78</course>
  <speed>0.0</speed>
  <fix>3d</fix>
</trkpt>
<trkpt lat="64.1624775" lon="-139.8402243">
  <ele>1109.0</ele>
  <time>2026-09-01T20:02:09Z</time>
  <course>6.68</course>
  <speed>0.022360679774997897</speed>
  <fix>3d</fix>
</trkpt>
<trkpt lat="64.1624777" lon="-139.8402246">
  <ele>1109.09</ele>
  <time>2026-09-01T20:02:09Z</time>
  <course>180.78</course>
  <speed>0.0</speed>
  <fix>3d</fix>
</trkpt>
<trkpt lat="64.1624775" lon="-139.8402243">
  <ele>1109.0</ele>
  <time>2026-09-01T20:02:09Z</time>
  <course>6.68</course>
  <speed>0.022360679774997897</speed>
  <fix>3d</fix>
</trkpt>
<trkpt lat="64.1624777" lon="-139.8402246">
  <ele>1109.09</ele>
  <time>2026-09-01T20:02:09Z</time>
  <course>180.78</course>
  <speed>0.0</speed>
  <fix>3d</fix>
</trkpt>
<trkpt lat="64.1624775" lon="-139.8402243">
  <ele>1109.0</ele>
  <time>2026-09-01T20:02:09Z</time>
  <course>6.69</course>
  <speed>0.022360679774997897</speed>
  <fix>3d</fix>
</trkpt>
<trkpt lat="64.1624777" lon="-139.8402246">
  <ele>1109.09</ele>
  <time>2026-09-01T20:02:09Z</time>
  <course>180.78</course>
  <speed>0.0</speed>
  <fix>3d</fix>
</trkpt>
<trkpt lat="64.1624775" lon="-139.8402243">
  <ele>1109.0</ele>
  <time>2026-09-01T20:02:09Z</time>
  <course>6.69</course>
  <speed>0.022360679774997897</speed>
  <fix>3d</fix>
</trkpt>
<trkpt lat="64.1624777" lon="-139.8402246">
  <ele>1109.09</ele>
  <time>2026-09-01T20:02:09Z</time>
  <course>180.78</course>
  <speed>0.0</speed>
  <fix>3d</fix>
</trkpt>
<trkpt lat="64.1624775" lon="-139.8402243">
  <ele>1108.99</ele>
  <time>2026-09-01T20:02:09Z</time>
  <course>6.69</course>
  <speed>0.022360679774997897</speed>
  <fix>3d</fix>
</trkpt>
<trkpt lat="64.1624777" lon="-139.8402246">
  <ele>1109.09</ele>
  <time>2026-09-01T20:02:09Z</time>
  <course>180.78</course>
  <speed>0.0</speed>
  <fix>3d</fix>
</trkpt>
<trkpt lat="64.1624775" lon="-139.8402243">
  <ele>1108.99</ele>
  <time>2026-09-01T20:02:09Z</time>
  <course>6.69</course>
  <speed>0.022360679774997897</speed>
  <fix>3d</fix>
</trkpt>
<trkpt lat="64.1624777" lon="-139.8402246">
  <ele>1109.09</ele>
  <time>2026-09-01T20:02:09Z</time>
  <course>180.78</course>
  <speed>0.0</speed>
  <fix>3d</fix>
</trkpt>
<trkpt lat="64.1624775" lon="-139.8402243">
  <ele>1108.99</ele>
  <time>2026-09-01T20:02:09Z</time>
  <course>6.69</course>
  <speed>0.022360679774997897</speed>
  <fix>3d</fix>
</trkpt>
<trkpt lat="64.1624777" lon="-139.8402246">
  <ele>1109.09</ele>
  <time>2026-09-01T20:02:09Z</time>
  <course>180.78</course>
  <speed>0.0</speed>
  <fix>3d</fix>
</trkpt>
<trkpt lat="64.1624775" lon="-139.8402243">
  <ele>1108.98</ele>
  <time>2026-09-01T20:02:09Z</time>
  <course>6.69</course>
  <speed>0.022360679774997897</speed>
  <fix>3d</fix>
</trkpt>
<trkpt lat="64.1624777" lon="-139.8402246">
  <ele>1109.09</ele>
  <time>2026-09-01T20:02:09Z</time>
  <course>180.78</course>
  <speed>0.0</speed>
  <fix>3d</fix>
</trkpt>
<trkpt lat="64.1624775" lon="-139.8402243">
  <ele>1108.98</ele>
  <time>2026-09-01T20:02:10Z</time>
  <course>6.69</course>
  <speed>0.022360679774997897</speed>
  <fix>3d</fix>
</trkpt>
<trkpt lat="64.1624777" lon="-139.8402246">
  <ele>1109.09</ele>
  <time>2026-09-01T20:02:10Z</time>
  <course>180.78</course>
  <speed>0.0</speed>
  <fix>3d</fix>
</trkpt>
<trkpt lat="64.1624775" lon="-139.8402243">
  <ele>1108.98</ele>
  <time>2026-09-01T20:02:10Z</time>
  <course>6.69</course>
  <speed>0.022360679774997897</speed>
  <fix>3d</fix>
</trkpt>
<trkpt lat="64.1624777" lon="-139.8402246">
  <ele>1109.09</ele>
  <time>2026-09-01T20:02:10Z</time>
  <course>180.78</course>
  <speed>0.0</speed>
  <fix>3d</fix>
</trkpt>
<trkpt lat="64.1624775" lon="-139.8402243">
  <ele>1108.98</ele>
  <time>2026-09-01T20:02:10Z</time>
  <course>6.7</course>
  <speed>0.022360679774997897</speed>
  <fix>3d</fix>
</trkpt>
<trkpt lat="64.1624777" lon="-139.8402246">
  <ele>1109.09</ele>
  <time>2026-09-01T20:02:10Z</time>
  <course>180.78</course>
  <speed>0.0</speed>
  <fix>3d</fix>
</trkpt>
<trkpt lat="64.1624775" lon="-139.8402243">
  <ele>1108.98</ele>
  <time>2026-09-01T20:02:10Z</time>
  <course>6.7</course>
  <speed>0.022360679774997897</speed>
  <fix>3d</fix>
</trkpt>
<trkpt lat="64.1624777" lon="-139.8402246">
  <ele>1109.09</ele>
  <time>2026-09-01T20:02:10Z</time>
  <course>180.78</course>
  <speed>0.0</speed>
  <fix>3d</fix>
</trkpt>
<trkpt lat="64.1624775" lon="-139.8402243">
  <ele>1109.08</ele>
  <time>2026-09-01T20:02:10Z</time>
  <course>6.7</course>
  <speed>0.022360679774997897</speed>
  <fix>3d</fix>
</trkpt>
<trkpt lat="64.1624777" lon="-139.8402246">
  <ele>1109.09</ele>
  <time>2026-09-01T20:02:10Z</time>
  <course>180.78</course>
  <speed>0.0</speed>
  <fix>3d</fix>
</trkpt>
<trkpt lat="64.1624775" lon="-139.8402243">
  <ele>1109.08</ele>
  <time>2026-09-01T20:02:10Z</time>
  <course>6.7</course>
  <speed>0.022360679774997897</speed>
  <fix>3d</fix>
</trkpt>
<trkpt lat="64.1624777" lon="-139.8402246">
  <ele>1109.09</ele>
  <time>2026-09-01T20:02:10Z</time>
  <course>180.78</course>
  <speed>0.0</speed>
  <fix>3d</fix>
</trkpt>
<trkpt lat="64.1624775" lon="-139.8402243">
  <ele>1109.08</ele>
  <time>2026-09-01T20:02:10Z</time>
  <course>6.7</course>
  <speed>0.022360679774997897</speed>
  <fix>3d</fix>
</trkpt>
<trkpt lat="64.1624777" lon="-139.8402246">
  <ele>1109.09</ele>
  <time>2026-09-01T20:02:10Z</time>
  <course>180.78</course>
  <speed>0.0</speed>
  <fix>3d</fix>
</trkpt>
<trkpt lat="64.1624775" lon="-139.8402243">
  <ele>1109.08</ele>
  <time>2026-09-01T20:02:10Z</time>
  <course>6.7</course>
  <speed>0.022360679774997897</speed>
  <fix>3d</fix>
</trkpt>
<trkpt lat="64.1624777" lon="-139.8402246">
  <ele>1109.09</ele>
  <time>2026-09-01T20:02:10Z</time>
  <course>180.78</course>
  <speed>0.0</speed>
  <fix>3d</fix>
</trkpt>
<trkpt lat="64.1624775" lon="-139.8402243">
  <ele>1109.08</ele>
  <time>2026-09-01T20:02:10Z</time>
  <course>6.7</course>
  <speed>0.022360679774997897</speed>
  <fix>3d</fix>
</trkpt>
<trkpt lat="64.1624777" lon="-139.8402246">
  <ele>1109.09</ele>
  <time>2026-09-01T20:02:10Z</time>
  <course>180.78</course>
  <speed>0.0</speed>
  <fix>3d</fix>
</trkpt>
<trkpt lat="64.1624775" lon="-139.8402243">
  <ele>1109.07</ele>
  <time>2026-09-01T20:02:10Z</time>
  <course>6.7</course>
  <speed>0.022360679774997897</speed>
  <fix>3d</fix>
</trkpt>
<trkpt lat="64.1624777" lon="-139.8402246">
  <ele>1109.09</ele>
  <time>2026-09-01T20:02:10Z</time>
  <course>180.78</course>
  <speed>0.0</speed>
  <fix>3d</fix>
</trkpt>
<trkpt lat="64.1624775" lon="-139.8402243">
  <ele>1109.07</ele>
  <time>2026-09-01T20:02:10Z</time>
  <course>6.7</course>
  <speed>0.022360679774997897</speed>
  <fix>3d</fix>
</trkpt>
<trkpt lat="64.1624777" lon="-139.8402246">
  <ele>1109.09</ele>
  <time>2026-09-01T20:02:10Z</time>
  <course>180.78</course>
  <speed>0.0</speed>
  <fix>3d</fix>
</trkpt>
<trkpt lat="64.1624775" lon="-139.8402243">
  <ele>1109.07</ele>
  <time>2026-09-01T20:02:10Z</time>
  <course>6.7</course>
  <speed>0.022360679774997897</speed>
  <fix>3d</fix>
</trkpt>
<trkpt lat="64.1624777" lon="-139.8402246">
  <ele>1109.09</ele>
  <time>2026-09-01T20:02:10Z</time>
  <course>180.78</course>
  <speed>0.0</speed>
  <fix>3d</fix>
</trkpt>
<trkpt lat="64.1624775" lon="-139.8402243">
  <ele>1109.07</ele>
  <time>2026-09-01T20:02:10Z</time>
  <course>6.71</course>
  <speed>0.022360679774997897</speed>
  <fix>3d</fix>
</trkpt>
<trkpt lat="64.1624777" lon="-139.8402246">
  <ele>1109.09</ele>
  <time>2026-09-01T20:02:10Z</time>
  <course>180.78</course>
  <speed>0.0</speed>
  <fix>3d</fix>
</trkpt>
<trkpt lat="64.1624775" lon="-139.8402243">
  <ele>1109.07</ele>
  <time>2026-09-01T20:02:10Z</time>
  <course>6.71</course>
  <speed>0.022360679774997897</speed>
  <fix>3d</fix>
</trkpt>
<trkpt lat="64.1624777" lon="-139.8402246">
  <ele>1109.09</ele>
  <time>2026-09-01T20:02:10Z</time>
  <course>180.78</course>
  <speed>0.0</speed>
  <fix>3d</fix>
</trkpt>
<trkpt lat="64.1624775" lon="-139.8402243">
  <ele>1109.07</ele>
  <time>2026-09-01T20:02:10Z</time>
  <course>6.71</course>
  <speed>0.022360679774997897</speed>
  <fix>3d</fix>
</trkpt>
<trkpt lat="64.1624777" lon="-139.8402246">
  <ele>1109.09</ele>
  <time>2026-09-01T20:02:10Z</time>
  <course>180.78</course>
  <speed>0.0</speed>
  <fix>3d</fix>
</trkpt>
<trkpt lat="64.1624775" lon="-139.8402243">
  <ele>1109.07</ele>
  <time>2026-09-01T20:02:10Z</time>
  <course>6.71</course>
  <speed>0.022360679774997897</speed>
  <fix>3d</fix>
</trkpt>
<trkpt lat="64.1624777" lon="-139.8402246">
  <ele>1109.09</ele>
  <time>2026-09-01T20:02:10Z</time>
  <course>180.78</course>
  <speed>0.0</speed>
  <fix>3d</fix>
</trkpt>
<trkpt lat="64.1624775" lon="-139.8402243">
  <ele>1109.07</ele>
  <time>2026-09-01T20:02:10Z</time>
  <course>6.71</course>
  <speed>0.022360679774997897</speed>
  <fix>3d</fix>
</trkpt>
<trkpt lat="64.1624777" lon="-139.8402246">
  <ele>1109.09</ele>
  <time>2026-09-01T20:02:10Z</time>
  <course>180.78</course>
  <speed>0.0</speed>
  <fix>3d</fix>
</trkpt>
<trkpt lat="64.1624775" lon="-139.8402243">
  <ele>1109.07</ele>
  <time>2026-09-01T20:02:10Z</time>
  <course>6.71</course>
  <speed>0.022360679774997897</speed>
  <fix>3d</fix>
</trkpt>
<trkpt lat="64.1624777" lon="-139.8402246">
  <ele>1109.09</ele>
  <time>2026-09-01T20:02:10Z</time>
  <course>180.78</course>
  <speed>0.0</speed>
  <fix>3d</fix>
</trkpt>
<trkpt lat="64.1624775" lon="-139.8402243">
  <ele>1109.07</ele>
  <time>2026-09-01T20:02:10Z</time>
  <course>6.71</course>
  <speed>0.022360679774997897</speed>
  <fix>3d</fix>
</trkpt>
<trkpt lat="64.1624777" lon="-139.8402246">
  <ele>1109.09</ele>
  <time>2026-09-01T20:02:10Z</time>
  <course>180.78</course>
  <speed>0.0</speed>
  <fix>3d</fix>
</trkpt>
<trkpt lat="64.1624775" lon="-139.8402243">
  <ele>1109.07</ele>
  <time>2026-09-01T20:02:10Z</time>
  <course>6.71</course>
  <speed>0.022360679774997897</speed>
  <fix>3d</fix>
</trkpt>
<trkpt lat="64.1624777" lon="-139.8402246">
  <ele>1109.09</ele>
  <time>2026-09-01T20:02:10Z</time>
  <course>180.78</course>
  <speed>0.0</speed>
  <fix>3d</fix>
</trkpt>
<trkpt lat="64.1624775" lon="-139.8402243">
  <ele>1109.07</ele>
  <time>2026-09-01T20:02:10Z</time>
  <course>6.72</course>
  <speed>0.022360679774997897</speed>
  <fix>3d</fix>
</trkpt>
<trkpt lat="64.1624777" lon="-139.8402246">
  <ele>1109.09</ele>
  <time>2026-09-01T20:02:10Z</time>
  <course>180.78</course>
  <speed>0.0</speed>
  <fix>3d</fix>
</trkpt>
<trkpt lat="64.1624775" lon="-139.8402243">
  <ele>1109.06</ele>
  <time>2026-09-01T20:02:10Z</time>
  <course>6.72</course>
  <speed>0.022360679774997897</speed>
  <fix>3d</fix>
</trkpt>
<trkpt lat="64.1624777" lon="-139.8402246">
  <ele>1109.09</ele>
  <time>2026-09-01T20:02:10Z</time>
  <course>180.78</course>
  <speed>0.0</speed>
  <fix>3d</fix>
</trkpt>
<trkpt lat="64.1624775" lon="-139.8402243">
  <ele>1109.06</ele>
  <time>2026-09-01T20:02:10Z</time>
  <course>6.72</course>
  <speed>0.022360679774997897</speed>
  <fix>3d</fix>
</trkpt>
<trkpt lat="64.1624777" lon="-139.8402246">
  <ele>1109.09</ele>
  <time>2026-09-01T20:02:10Z</time>
  <course>180.78</course>
  <speed>0.0</speed>
  <fix>3d</fix>
</trkpt>
<trkpt lat="64.1624775" lon="-139.8402243">
  <ele>1109.06</ele>
  <time>2026-09-01T20:02:10Z</time>
  <course>6.72</course>
  <speed>0.022360679774997897</speed>
  <fix>3d</fix>
</trkpt>
<trkpt lat="64.1624777" lon="-139.8402246">
  <ele>1109.09</ele>
  <time>2026-09-01T20:02:10Z</time>
  <course>180.78</course>
  <speed>0.0</speed>
  <fix>3d</fix>
</trkpt>
<trkpt lat="64.1624775" lon="-139.8402243">
  <ele>1109.06</ele>
  <time>2026-09-01T20:02:10Z</time>
  <course>6.72</course>
  <speed>0.022360679774997897</speed>
  <fix>3d</fix>
</trkpt>
<trkpt lat="64.1624777" lon="-139.8402246">
  <ele>1109.09</ele>
  <time>2026-09-01T20:02:10Z</time>
  <course>180.78</course>
  <speed>0.0</speed>
  <fix>3d</fix>
</trkpt>
<trkpt lat="64.1624775" lon="-139.8402243">
  <ele>1109.06</ele>
  <time>2026-09-01T20:02:10Z</time>
  <course>6.72</course>
  <speed>0.022360679774997897</speed>
  <fix>3d</fix>
</trkpt>
<trkpt lat="64.1624777" lon="-139.8402246">
  <ele>1109.09</ele>
  <time>2026-09-01T20:02:10Z</time>
  <course>180.78</course>
  <speed>0.0</speed>
  <fix>3d</fix>
</trkpt>
<trkpt lat="64.1624775" lon="-139.8402243">
  <ele>1109.06</ele>
  <time>2026-09-01T20:02:10Z</time>
  <course>6.72</course>
  <speed>0.022360679774997897</speed>
  <fix>3d</fix>
</trkpt>
<trkpt lat="64.1624777" lon="-139.8402246">
  <ele>1109.09</ele>
  <time>2026-09-01T20:02:10Z</time>
  <course>180.78</course>
  <speed>0.0</speed>
  <fix>3d</fix>
</trkpt>
<trkpt lat="64.1624775" lon="-139.8402243">
  <ele>1109.06</ele>
  <time>2026-09-01T20:02:10Z</time>
  <course>6.72</course>
  <speed>0.022360679774997897</speed>
  <fix>3d</fix>
</trkpt>
<trkpt lat="64.1624777" lon="-139.8402246">
  <ele>1109.09</ele>
  <time>2026-09-01T20:02:10Z</time>
  <course>180.78</course>
  <speed>0.0</speed>
  <fix>3d</fix>
</trkpt>
<trkpt lat="64.1624775" lon="-139.8402243">
  <ele>1109.06</ele>
  <time>2026-09-01T20:02:10Z</time>
  <course>6.72</course>
  <speed>0.022360679774997897</speed>
  <fix>3d</fix>
</trkpt>
<trkpt lat="64.1624777" lon="-139.8402246">
  <ele>1109.09</ele>
  <time>2026-09-01T20:02:10Z</time>
  <course>180.78</course>
  <speed>0.0</speed>
  <fix>3d</fix>
</trkpt>
<trkpt lat="64.1624775" lon="-139.8402243">
  <ele>1109.06</ele>
  <time>2026-09-01T20:02:10Z</time>
  <course>6.72</course>
  <speed>0.022360679774997897</speed>
  <fix>3d</fix>
</trkpt>
<trkpt lat="64.1624777" lon="-139.8402246">
  <ele>1109.09</ele>
  <time>2026-09-01T20:02:10Z</time>
  <course>180.78</course>
  <speed>0.0</speed>
  <fix>3d</fix>
</trkpt>
<trkpt lat="64.1624775" lon="-139.8402243">
  <ele>1109.06</ele>
  <time>2026-09-01T20:02:10Z</time>
  <course>6.73</course>
  <speed>0.022360679774997897</speed>
  <fix>3d</fix>
</trkpt>
<trkpt lat="64.1624777" lon="-139.8402246">
  <ele>1109.09</ele>
  <time>2026-09-01T20:02:10Z</time>
  <course>180.78</course>
  <speed>0.0</speed>
  <fix>3d</fix>
</trkpt>
<trkpt lat="64.1624775" lon="-139.8402243">
  <ele>1109.06</ele>
  <time>2026-09-01T20:02:10Z</time>
  <course>6.73</course>
  <speed>0.022360679774997897</speed>
  <fix>3d</fix>
</trkpt>
<trkpt lat="64.1624777" lon="-139.8402246">
  <ele>1109.09</ele>
  <time>2026-09-01T20:02:10Z</time>
  <course>180.78</course>
  <speed>0.0</speed>
  <fix>3d</fix>
</trkpt>
<trkpt lat="64.1624775" lon="-139.8402243">
  <ele>1109.06</ele>
  <time>2026-09-01T20:02:10Z</time>
  <course>6.73</course>
  <speed>0.022360679774997897</speed>
  <fix>3d</fix>
</trkpt>
<trkpt lat="64.1624777" lon="-139.8402246">
  <ele>1109.09</ele>
  <time>2026-09-01T20:02:10Z</time>
  <course>180.78</course>
  <speed>0.0</speed>
  <fix>3d</fix>
</trkpt>
<trkpt lat="64.1624775" lon="-139.8402243">
  <ele>1109.07</ele>
  <time>2026-09-01T20:02:10Z</time>
  <course>6.73</course>
  <speed>0.022360679774997897</speed>
  <fix>3d</fix>
</trkpt>
<trkpt lat="64.1624777" lon="-139.8402246">
  <ele>1109.09</ele>
  <time>2026-09-01T20:02:10Z</time>
  <course>180.78</course>
  <speed>0.0</speed>
  <fix>3d</fix>
</trkpt>
<trkpt lat="64.1624775" lon="-139.8402243">
  <ele>1109.07</ele>
  <time>2026-09-01T20:02:10Z</time>
  <course>6.73</course>
  <speed>0.022360679774997897</speed>
  <fix>3d</fix>
</trkpt>
<trkpt lat="64.1624777" lon="-139.8402246">
  <ele>1109.09</ele>
  <time>2026-09-01T20:02:10Z</time>
  <course>180.78</course>
  <speed>0.0</speed>
  <fix>3d</fix>
</trkpt>
<trkpt lat="64.1624775" lon="-139.8402243">
  <ele>1109.07</ele>
  <time>2026-09-01T20:02:10Z</time>
  <course>6.73</course>
  <speed>0.022360679774997897</speed>
  <fix>3d</fix>
</trkpt>
<trkpt lat="64.1624777" lon="-139.8402246">
  <ele>1109.09</ele>
  <time>2026-09-01T20:02:10Z</time>
  <course>180.78</course>
  <speed>0.0</speed>
  <fix>3d</fix>
</trkpt>
<trkpt lat="64.1624775" lon="-139.8402243">
  <ele>1109.07</ele>
  <time>2026-09-01T20:02:10Z</time>
  <course>6.73</course>
  <speed>0.022360679774997897</speed>
  <fix>3d</fix>
</trkpt>
<trkpt lat="64.1624777" lon="-139.8402246">
  <ele>1109.09</ele>
  <time>2026-09-01T20:02:10Z</time>
  <course>180.78</course>
  <speed>0.0</speed>
  <fix>3d</fix>
</trkpt>
<trkpt lat="64.1624775" lon="-139.8402243">
  <ele>1109.07</ele>
  <time>2026-09-01T20:02:10Z</time>
  <course>6.73</course>
  <speed>0.022360679774997897</speed>
  <fix>3d</fix>
</trkpt>
<trkpt lat="64.1624777" lon="-139.8402246">
  <ele>1109.09</ele>
  <time>2026-09-01T20:02:10Z</time>
  <course>180.78</course>
  <speed>0.0</speed>
  <fix>3d</fix>
</trkpt>
<trkpt lat="64.1624775" lon="-139.8402243">
  <ele>1109.07</ele>
  <time>2026-09-01T20:02:10Z</time>
  <course>6.73</course>
  <speed>0.022360679774997897</speed>
  <fix>3d</fix>
</trkpt>
<trkpt lat="64.1624777" lon="-139.8402246">
  <ele>1109.09</ele>
  <time>2026-09-01T20:02:10Z</time>
  <course>180.78</course>
  <speed>0.0</speed>
  <fix>3d</fix>
</trkpt>
<trkpt lat="64.1624775" lon="-139.8402243">
  <ele>1109.07</ele>
  <time>2026-09-01T20:02:10Z</time>
  <course>6.73</course>
  <speed>0.022360679774997897</speed>
  <fix>3d</fix>
</trkpt>
<trkpt lat="64.1624777" lon="-139.8402246">
  <ele>1109.09</ele>
  <time>2026-09-01T20:02:10Z</time>
  <course>180.78</course>
  <speed>0.0</speed>
  <fix>3d</fix>
</trkpt>
<trkpt lat="64.1624775" lon="-139.8402243">
  <ele>1109.07</ele>
  <time>2026-09-01T20:02:10Z</time>
  <course>6.74</course>
  <speed>0.022360679774997897</speed>
  <fix>3d</fix>
</trkpt>
<trkpt lat="64.1624777" lon="-139.8402246">
  <ele>1109.09</ele>
  <time>2026-09-01T20:02:10Z</time>
  <course>180.78</course>
  <speed>0.0</speed>
  <fix>3d</fix>
</trkpt>
<trkpt lat="64.1624775" lon="-139.8402243">
  <ele>1109.07</ele>
  <time>2026-09-01T20:02:10Z</time>
  <course>6.74</course>
  <speed>0.022360679774997897</speed>
  <fix>3d</fix>
</trkpt>
<trkpt lat="64.1624777" lon="-139.8402246">
  <ele>1109.09</ele>
  <time>2026-09-01T20:02:10Z</time>
  <course>180.78</course>
  <speed>0.0</speed>
  <fix>3d</fix>
</trkpt>
<trkpt lat="64.1624775" lon="-139.8402243">
  <ele>1109.07</ele>
  <time>2026-09-01T20:02:10Z</time>
  <course>6.74</course>
  <speed>0.022360679774997897</speed>
  <fix>3d</fix>
</trkpt>
<trkpt lat="64.1624777" lon="-139.8402246">
  <ele>1109.09</ele>
  <time>2026-09-01T20:02:10Z</time>
  <course>180.78</course>
  <speed>0.0</speed>
  <fix>3d</fix>
</trkpt>
<trkpt lat="64.1624775" lon="-139.8402243">
  <ele>1109.07</ele>
  <time>2026-09-01T20:02:10Z</time>
  <course>6.74</course>
  <speed>0.022360679774997897</speed>
  <fix>3d</fix>
</trkpt>
<trkpt lat="64.1624777" lon="-139.8402246">
  <ele>1109.09</ele>
  <time>2026-09-01T20:02:10Z</time>
  <course>180.78</course>
  <speed>0.0</speed>
  <fix>3d</fix>
</trkpt>
<trkpt lat="64.1624775" lon="-139.8402243">
  <ele>1109.07</ele>
  <time>2026-09-01T20:02:10Z</time>
  <course>6.74</course>
  <speed>0.022360679774997897</speed>
  <fix>3d</fix>
</trkpt>
<trkpt lat="64.1624777" lon="-139.8402246">
  <ele>1109.09</ele>
  <time>2026-09-01T20:02:10Z</time>
  <course>180.78</course>
  <speed>0.0</speed>
  <fix>3d</fix>
</trkpt>
<trkpt lat="64.1624775" lon="-139.8402243">
  <ele>1109.07</ele>
  <time>2026-09-01T20:02:10Z</time>
  <course>6.74</course>
  <speed>0.022360679774997897</speed>
  <fix>3d</fix>
</trkpt>
<trkpt lat="64.1624777" lon="-139.8402246">
  <ele>1109.09</ele>
  <time>2026-09-01T20:02:10Z</time>
  <course>180.78</course>
  <speed>0.0</speed>
  <fix>3d</fix>
</trkpt>
<trkpt lat="64.1624775" lon="-139.8402243">
  <ele>1109.07</ele>
  <time>2026-09-01T20:02:10Z</time>
  <course>6.74</course>
  <speed>0.022360679774997897</speed>
  <fix>3d</fix>
</trkpt>
<trkpt lat="64.1624777" lon="-139.8402246">
  <ele>1109.09</ele>
  <time>2026-09-01T20:02:10Z</time>
  <course>180.78</course>
  <speed>0.0</speed>
  <fix>3d</fix>
</trkpt>
<trkpt lat="64.1624775" lon="-139.8402243">
  <ele>1109.07</ele>
  <time>2026-09-01T20:02:10Z</time>
  <course>6.74</course>
  <speed>0.022360679774997897</speed>
  <fix>3d</fix>
</trkpt>
<trkpt lat="64.1624777" lon="-139.8402246">
  <ele>1109.09</ele>
  <time>2026-09-01T20:02:10Z</time>
  <course>180.78</course>
  <speed>0.0</speed>
  <fix>3d</fix>
</trkpt>
<trkpt lat="64.1624775" lon="-139.8402243">
  <ele>1109.07</ele>
  <time>2026-09-01T20:02:10Z</time>
  <course>6.74</course>
  <speed>0.022360679774997897</speed>
  <fix>3d</fix>
</trkpt>
<trkpt lat="64.1624777" lon="-139.8402246">
  <ele>1109.09</ele>
  <time>2026-09-01T20:02:10Z</time>
  <course>180.78</course>
  <speed>0.0</speed>
  <fix>3d</fix>
</trkpt>
<trkpt lat="64.1624775" lon="-139.8402243">
  <ele>1109.07</ele>
  <time>2026-09-01T20:02:10Z</time>
  <course>6.75</course>
  <speed>0.022360679774997897</speed>
  <fix>3d</fix>
</trkpt>
<trkpt lat="64.1624777" lon="-139.8402246">
  <ele>1109.09</ele>
  <time>2026-09-01T20:02:10Z</time>
  <course>180.78</course>
  <speed>0.0</speed>
  <fix>3d</fix>
</trkpt>
<trkpt lat="64.1624775" lon="-139.8402243">
  <ele>1109.07</ele>
  <time>2026-09-01T20:02:10Z</time>
  <course>6.75</course>
  <speed>0.022360679774997897</speed>
  <fix>3d</fix>
</trkpt>
<trkpt lat="64.1624777" lon="-139.8402246">
  <ele>1109.09</ele>
  <time>2026-09-01T20:02:10Z</time>
  <course>180.78</course>
  <speed>0.0</speed>
  <fix>3d</fix>
</trkpt>
<trkpt lat="64.1624775" lon="-139.8402243">
  <ele>1109.07</ele>
  <time>2026-09-01T20:02:10Z</time>
  <course>6.75</course>
  <speed>0.022360679774997897</speed>
  <fix>3d</fix>
</trkpt>
<trkpt lat="64.1624777" lon="-139.8402246">
  <ele>1109.09</ele>
  <time>2026-09-01T20:02:10Z</time>
  <course>180.78</course>
  <speed>0.0</speed>
  <fix>3d</fix>
</trkpt>
<trkpt lat="64.1624775" lon="-139.8402243">
  <ele>1109.07</ele>
  <time>2026-09-01T20:02:10Z</time>
  <course>6.75</course>
  <speed>0.022360679774997897</speed>
  <fix>3d</fix>
</trkpt>
<trkpt lat="64.1624777" lon="-139.8402246">
  <ele>1109.09</ele>
  <time>2026-09-01T20:02:10Z</time>
  <course>180.78</course>
  <speed>0.0</speed>
  <fix>3d</fix>
</trkpt>
<trkpt lat="64.1624775" lon="-139.8402243">
  <ele>1109.07</ele>
  <time>2026-09-01T20:02:10Z</time>
  <course>6.75</course>
  <speed>0.022360679774997897</speed>
  <fix>3d</fix>
</trkpt>
<trkpt lat="64.1624777" lon="-139.8402246">
  <ele>1109.09</ele>
  <time>2026-09-01T20:02:10Z</time>
  <course>180.78</course>
  <speed>0.0</speed>
  <fix>3d</fix>
</trkpt>
<trkpt lat="64.1624775" lon="-139.8402243">
  <ele>1109.07</ele>
  <time>2026-09-01T20:02:10Z</time>
  <course>6.75</course>
  <speed>0.022360679774997897</speed>
  <fix>3d</fix>
</trkpt>
<trkpt lat="64.1624777" lon="-139.8402246">
  <ele>1109.09</ele>
  <time>2026-09-01T20:02:10Z</time>
  <course>180.78</course>
  <speed>0.0</speed>
  <fix>3d</fix>
</trkpt>
<trkpt lat="64.1624775" lon="-139.8402243">
  <ele>1109.07</ele>
  <time>2026-09-01T20:02:10Z</time>
  <course>6.75</course>
  <speed>0.022360679774997897</speed>
  <fix>3d</fix>
</trkpt>
<trkpt lat="64.1624777" lon="-139.8402246">
  <ele>1109.09</ele>
  <time>2026-09-01T20:02:10Z</time>
  <course>180.78</course>
  <speed>0.0</speed>
  <fix>3d</fix>
</trkpt>
<trkpt lat="64.1624775" lon="-139.8402243">
  <ele>1109.07</ele>
  <time>2026-09-01T20:02:10Z</time>
  <course>6.75</course>
  <speed>0.022360679774997897</speed>
  <fix>3d</fix>
</trkpt>
<trkpt lat="64.1624777" lon="-139.8402246">
  <ele>1109.09</ele>
  <time>2026-09-01T20:02:10Z</time>
  <course>180.78</course>
  <speed>0.0</speed>
  <fix>3d</fix>
</trkpt>
<trkpt lat="64.1624775" lon="-139.8402243">
  <ele>1109.07</ele>
  <time>2026-09-01T20:02:10Z</time>
  <course>6.75</course>
  <speed>0.022360679774997897</speed>
  <fix>3d</fix>
</trkpt>
<trkpt lat="64.1624777" lon="-139.8402246">
  <ele>1109.09</ele>
  <time>2026-09-01T20:02:10Z</time>
  <course>180.78</course>
  <speed>0.0</speed>
  <fix>3d</fix>
</trkpt>
<trkpt lat="64.1624775" lon="-139.8402243">
  <ele>1109.07</ele>
  <time>2026-09-01T20:02:10Z</time>
  <course>6.76</course>
  <speed>0.022360679774997897</speed>
  <fix>3d</fix>
</trkpt>
<trkpt lat="64.1624777" lon="-139.8402246">
  <ele>1109.09</ele>
  <time>2026-09-01T20:02:10Z</time>
  <course>180.78</course>
  <speed>0.0</speed>
  <fix>3d</fix>
</trkpt>
<trkpt lat="64.1624775" lon="-139.8402243">
  <ele>1109.07</ele>
  <time>2026-09-01T20:02:10Z</time>
  <course>6.76</course>
  <speed>0.022360679774997897</speed>
  <fix>3d</fix>
</trkpt>
<trkpt lat="64.1624777" lon="-139.8402246">
  <ele>1109.09</ele>
  <time>2026-09-01T20:02:10Z</time>
  <course>180.78</course>
  <speed>0.0</speed>
  <fix>3d</fix>
</trkpt>
<trkpt lat="64.1624775" lon="-139.8402243">
  <ele>1109.07</ele>
  <time>2026-09-01T20:02:10Z</time>
  <course>6.76</course>
  <speed>0.022360679774997897</speed>
  <fix>3d</fix>
</trkpt>
<trkpt lat="64.1624777" lon="-139.8402246">
  <ele>1109.09</ele>
  <time>2026-09-01T20:02:10Z</time>
  <course>180.78</course>
  <speed>0.0</speed>
  <fix>3d</fix>
</trkpt>
<trkpt lat="64.1624775" lon="-139.8402243">
  <ele>1109.07</ele>
  <time>2026-09-01T20:02:10Z</time>
  <course>6.76</course>
  <speed>0.022360679774997897</speed>
  <fix>3d</fix>
</trkpt>
<trkpt lat="64.1624777" lon="-139.8402246">
  <ele>1109.09</ele>
  <time>2026-09-01T20:02:10Z</time>
  <course>180.78</course>
  <speed>0.0</speed>
  <fix>3d</fix>
</trkpt>
<trkpt lat="64.1624775" lon="-139.8402243">
  <ele>1109.07</ele>
  <time>2026-09-01T20:02:10Z</time>
  <course>6.76</course>
  <speed>0.022360679774997897</speed>
  <fix>3d</fix>
</trkpt>
<trkpt lat="64.1624777" lon="-139.8402246">
  <ele>1109.09</ele>
  <time>2026-09-01T20:02:10Z</time>
  <course>180.78</course>
  <speed>0.0</speed>
  <fix>3d</fix>
</trkpt>
<trkpt lat="64.1624775" lon="-139.8402243">
  <ele>1109.07</ele>
  <time>2026-09-01T20:02:10Z</time>
  <course>6.76</course>
  <speed>0.022360679774997897</speed>
  <fix>3d</fix>
</trkpt>
<trkpt lat="64.1624777" lon="-139.8402246">
  <ele>1109.09</ele>
  <time>2026-09-01T20:02:10Z</time>
  <course>180.78</course>
  <speed>0.0</speed>
  <fix>3d</fix>
</trkpt>
<trkpt lat="64.1624775" lon="-139.8402243">
  <ele>1109.09</ele>
  <time>2026-09-01T20:02:10Z</time>
  <course>6.76</course>
  <speed>0.022360679774997897</speed>
  <fix>3d</fix>
</trkpt>
<trkpt lat="64.1624777" lon="-139.8402246">
  <ele>1109.09</ele>
  <time>2026-09-01T20:02:10Z</time>
  <course>180.78</course>
  <speed>0.0</speed>
  <fix>3d</fix>
</trkpt>
<trkpt lat="64.1624775" lon="-139.8402243">
  <ele>1109.08</ele>
  <time>2026-09-01T20:02:10Z</time>
  <course>6.76</course>
  <speed>0.022360679774997897</speed>
  <fix>3d</fix>
</trkpt>
<trkpt lat="64.1624777" lon="-139.8402246">
  <ele>1109.09</ele>
  <time>2026-09-01T20:02:10Z</time>
  <course>180.78</course>
  <speed>0.0</speed>
  <fix>3d</fix>
</trkpt>
<trkpt lat="64.1624775" lon="-139.8402243">
  <ele>1109.08</ele>
  <time>2026-09-01T20:02:10Z</time>
  <course>6.76</course>
  <speed>0.022360679774997897</speed>
  <fix>3d</fix>
</trkpt>
<trkpt lat="64.1624777" lon="-139.8402246">
  <ele>1109.09</ele>
  <time>2026-09-01T20:02:10Z</time>
  <course>180.78</course>
  <speed>0.0</speed>
  <fix>3d</fix>
</trkpt>
<trkpt lat="64.1624775" lon="-139.8402243">
  <ele>1109.09</ele>
  <time>2026-09-01T20:02:10Z</time>
  <course>6.76</course>
  <speed>0.022360679774997897</speed>
  <fix>3d</fix>
</trkpt>
<trkpt lat="64.1624777" lon="-139.8402246">
  <ele>1109.09</ele>
  <time>2026-09-01T20:02:10Z</time>
  <course>180.78</course>
  <speed>0.0</speed>
  <fix>3d</fix>
</trkpt>
<trkpt lat="64.1624775" lon="-139.8402243">
  <ele>1109.09</ele>
  <time>2026-09-01T20:02:10Z</time>
  <course>6.77</course>
  <speed>0.022360679774997897</speed>
  <fix>3d</fix>
</trkpt>
<trkpt lat="64.1624777" lon="-139.8402246">
  <ele>1109.09</ele>
  <time>2026-09-01T20:02:10Z</time>
  <course>180.78</course>
  <speed>0.0</speed>
  <fix>3d</fix>
</trkpt>
<trkpt lat="64.1624775" lon="-139.8402243">
  <ele>1109.09</ele>
  <time>2026-09-01T20:02:10Z</time>
  <course>6.77</course>
  <speed>0.022360679774997897</speed>
  <fix>3d</fix>
</trkpt>
<trkpt lat="64.1624777" lon="-139.8402246">
  <ele>1109.09</ele>
  <time>2026-09-01T20:02:10Z</time>
  <course>180.78</course>
  <speed>0.0</speed>
  <fix>3d</fix>
</trkpt>
<trkpt lat="64.1624775" lon="-139.8402243">
  <ele>1109.1</ele>
  <time>2026-09-01T20:02:10Z</time>
  <course>6.77</course>
  <speed>0.022360679774997897</speed>
  <fix>3d</fix>
</trkpt>
<trkpt lat="64.1624777" lon="-139.8402246">
  <ele>1109.09</ele>
  <time>2026-09-01T20:02:10Z</time>
  <course>180.78</course>
  <speed>0.0</speed>
  <fix>3d</fix>
</trkpt>
<trkpt lat="64.1624775" lon="-139.8402243">
  <ele>1109.1</ele>
  <time>2026-09-01T20:02:10Z</time>
  <course>6.77</course>
  <speed>0.022360679774997897</speed>
  <fix>3d</fix>
</trkpt>
<trkpt lat="64.1624777" lon="-139.8402246">
  <ele>1109.09</ele>
  <time>2026-09-01T20:02:10Z</time>
  <course>180.78</course>
  <speed>0.0</speed>
  <fix>3d</fix>
</trkpt>
<trkpt lat="64.1624775" lon="-139.8402243">
  <ele>1109.1</ele>
  <time>2026-09-01T20:02:10Z</time>
  <course>6.77</course>
  <speed>0.022360679774997897</speed>
  <fix>3d</fix>
</trkpt>
<trkpt lat="64.1624777" lon="-139.8402246">
  <ele>1109.09</ele>
  <time>2026-09-01T20:02:10Z</time>
  <course>180.78</course>
  <speed>0.0</speed>
  <fix>3d</fix>
</trkpt>
<trkpt lat="64.1624775" lon="-139.8402243">
  <ele>1109.11</ele>
  <time>2026-09-01T20:02:10Z</time>
  <course>6.77</course>
  <speed>0.022360679774997897</speed>
  <fix>3d</fix>
</trkpt>
<trkpt lat="64.1624777" lon="-139.8402246">
  <ele>1109.09</ele>
  <time>2026-09-01T20:02:10Z</time>
  <course>180.78</course>
  <speed>0.0</speed>
  <fix>3d</fix>
</trkpt>
<trkpt lat="64.1624775" lon="-139.8402243">
  <ele>1109.11</ele>
  <time>2026-09-01T20:02:10Z</time>
  <course>6.77</course>
  <speed>0.022360679774997897</speed>
  <fix>3d</fix>
</trkpt>
<trkpt lat="64.1624777" lon="-139.8402246">
  <ele>1109.09</ele>
  <time>2026-09-01T20:02:10Z</time>
  <course>180.78</course>
  <speed>0.0</speed>
  <fix>3d</fix>
</trkpt>
<trkpt lat="64.1624775" lon="-139.8402243">
  <ele>1109.12</ele>
  <time>2026-09-01T20:02:10Z</time>
  <course>6.77</course>
  <speed>0.022360679774997897</speed>
  <fix>3d</fix>
</trkpt>
<trkpt lat="64.1624777" lon="-139.8402246">
  <ele>1109.09</ele>
  <time>2026-09-01T20:02:10Z</time>
  <course>180.78</course>
  <speed>0.0</speed>
  <fix>3d</fix>
</trkpt>
<trkpt lat="64.1624775" lon="-139.8402243">
  <ele>1109.12</ele>
  <time>2026-09-01T20:02:10Z</time>
  <course>6.77</course>
  <speed>0.022360679774997897</speed>
  <fix>3d</fix>
</trkpt>
<trkpt lat="64.1624777" lon="-139.8402246">
  <ele>1109.09</ele>
  <time>2026-09-01T20:02:10Z</time>
  <course>180.78</course>
  <speed>0.0</speed>
  <fix>3d</fix>
</trkpt>
<trkpt lat="64.1624775" lon="-139.8402243">
  <ele>1109.12</ele>
  <time>2026-09-01T20:02:10Z</time>
  <course>6.77</course>
  <speed>0.022360679774997897</speed>
  <fix>3d</fix>
</trkpt>
<trkpt lat="64.1624777" lon="-139.8402246">
  <ele>1109.09</ele>
  <time>2026-09-01T20:02:10Z</time>
  <course>180.78</course>
  <speed>0.0</speed>
  <fix>3d</fix>
</trkpt>
<trkpt lat="64.1624775" lon="-139.8402243">
  <ele>1109.13</ele>
  <time>2026-09-01T20:02:10Z</time>
  <course>6.78</course>
  <speed>0.022360679774997897</speed>
  <fix>3d</fix>
</trkpt>
<trkpt lat="64.1624777" lon="-139.8402246">
  <ele>1109.09</ele>
  <time>2026-09-01T20:02:10Z</time>
  <course>180.78</course>
  <speed>0.0</speed>
  <fix>3d</fix>
</trkpt>
<trkpt lat="64.1624775" lon="-139.8402243">
  <ele>1109.13</ele>
  <time>2026-09-01T20:02:10Z</time>
  <course>6.78</course>
  <speed>0.022360679774997897</speed>
  <fix>3d</fix>
</trkpt>
<trkpt lat="64.1624777" lon="-139.8402246">
  <ele>1109.09</ele>
  <time>2026-09-01T20:02:10Z</time>
  <course>180.78</course>
  <speed>0.0</speed>
  <fix>3d</fix>
</trkpt>
<trkpt lat="64.1624775" lon="-139.8402243">
  <ele>1109.14</ele>
  <time>2026-09-01T20:02:10Z</time>
  <course>6.78</course>
  <speed>0.022360679774997897</speed>
  <fix>3d</fix>
</trkpt>
<trkpt lat="64.1624777" lon="-139.8402246">
  <ele>1109.09</ele>
  <time>2026-09-01T20:02:10Z</time>
  <course>180.78</course>
  <speed>0.0</speed>
  <fix>3d</fix>
</trkpt>
<trkpt lat="64.1624775" lon="-139.8402243">
  <ele>1109.14</ele>
  <time>2026-09-01T20:02:10Z</time>
  <course>6.78</course>
  <speed>0.022360679774997897</speed>
  <fix>3d</fix>
</trkpt>
<trkpt lat="64.1624777" lon="-139.8402246">
  <ele>1109.09</ele>
  <time>2026-09-01T20:02:10Z</time>
  <course>180.78</course>
  <speed>0.0</speed>
  <fix>3d</fix>
</trkpt>
<trkpt lat="64.1624775" lon="-139.8402243">
  <ele>1109.14</ele>
  <time>2026-09-01T20:02:10Z</time>
  <course>6.78</course>
  <speed>0.022360679774997897</speed>
  <fix>3d</fix>
</trkpt>
<trkpt lat="64.1624777" lon="-139.8402246">
  <ele>1109.09</ele>
  <time>2026-09-01T20:02:10Z</time>
  <course>180.78</course>
  <speed>0.0</speed>
  <fix>3d</fix>
</trkpt>
<trkpt lat="64.1624775" lon="-139.8402243">
  <ele>1109.14</ele>
  <time>2026-09-01T20:02:10Z</time>
  <course>6.78</course>
  <speed>0.022360679774997897</speed>
  <fix>3d</fix>
</trkpt>
<trkpt lat="64.1624777" lon="-139.8402246">
  <ele>1109.09</ele>
  <time>2026-09-01T20:02:10Z</time>
  <course>180.78</course>
  <speed>0.0</speed>
  <fix>3d</fix>
</trkpt>
<trkpt lat="64.1624775" lon="-139.8402243">
  <ele>1109.15</ele>
  <time>2026-09-01T20:02:10Z</time>
  <course>6.78</course>
  <speed>0.022360679774997897</speed>
  <fix>3d</fix>
</trkpt>
<trkpt lat="64.1624777" lon="-139.8402246">
  <ele>1109.09</ele>
  <time>2026-09-01T20:02:10Z</time>
  <course>180.78</course>
  <speed>0.0</speed>
  <fix>3d</fix>
</trkpt>
<trkpt lat="64.1624775" lon="-139.8402243">
  <ele>1109.15</ele>
  <time>2026-09-01T20:02:10Z</time>
  <course>6.78</course>
  <speed>0.022360679774997897</speed>
  <fix>3d</fix>
</trkpt>
<trkpt lat="64.1624777" lon="-139.8402246">
  <ele>1109.09</ele>
  <time>2026-09-01T20:02:10Z</time>
  <course>180.78</course>
  <speed>0.0</speed>
  <fix>3d</fix>
</trkpt>
<trkpt lat="64.1624775" lon="-139.8402243">
  <ele>1109.15</ele>
  <time>2026-09-01T20:02:10Z</time>
  <course>6.78</course>
  <speed>0.022360679774997897</speed>
  <fix>3d</fix>
</trkpt>
<trkpt lat="64.1624777" lon="-139.8402246">
  <ele>1109.09</ele>
  <time>2026-09-01T20:02:10Z</time>
  <course>180.78</course>
  <speed>0.0</speed>
  <fix>3d</fix>
</trkpt>
<trkpt lat="64.1624775" lon="-139.8402243">
  <ele>1109.16</ele>
  <time>2026-09-01T20:02:10Z</time>
  <course>6.79</course>
  <speed>0.022360679774997897</speed>
  <fix>3d</fix>
</trkpt>
<trkpt lat="64.1624777" lon="-139.8402246">
  <ele>1109.09</ele>
  <time>2026-09-01T20:02:10Z</time>
  <course>180.78</course>
  <speed>0.0</speed>
  <fix>3d</fix>
</trkpt>
<trkpt lat="64.1624775" lon="-139.8402243">
  <ele>1109.16</ele>
  <time>2026-09-01T20:02:10Z</time>
  <course>6.79</course>
  <speed>0.022360679774997897</speed>
  <fix>3d</fix>
</trkpt>
<trkpt lat="64.1624777" lon="-139.8402246">
  <ele>1109.09</ele>
  <time>2026-09-01T20:02:10Z</time>
  <course>180.78</course>
  <speed>0.0</speed>
  <fix>3d</fix>
</trkpt>
<trkpt lat="64.1624775" lon="-139.8402243">
  <ele>1109.16</ele>
  <time>2026-09-01T20:02:10Z</time>
  <course>6.79</course>
  <speed>0.022360679774997897</speed>
  <fix>3d</fix>
</trkpt>
<trkpt lat="64.1624777" lon="-139.8402246">
  <ele>1109.09</ele>
  <time>2026-09-01T20:02:10Z</time>
  <course>180.78</course>
  <speed>0.0</speed>
  <fix>3d</fix>
</trkpt>
<trkpt lat="64.1624775" lon="-139.8402243">
  <ele>1109.17</ele>
  <time>2026-09-01T20:02:10Z</time>
  <course>6.79</course>
  <speed>0.022360679774997897</speed>
  <fix>3d</fix>
</trkpt>
<trkpt lat="64.1624777" lon="-139.8402246">
  <ele>1109.09</ele>
  <time>2026-09-01T20:02:10Z</time>
  <course>180.78</course>
  <speed>0.0</speed>
  <fix>3d</fix>
</trkpt>
<trkpt lat="64.1624775" lon="-139.8402243">
  <ele>1109.17</ele>
  <time>2026-09-01T20:02:10Z</time>
  <course>6.79</course>
  <speed>0.022360679774997897</speed>
  <fix>3d</fix>
</trkpt>
<trkpt lat="64.1624777" lon="-139.8402246">
  <ele>1109.09</ele>
  <time>2026-09-01T20:02:10Z</time>
  <course>180.78</course>
  <speed>0.0</speed>
  <fix>3d</fix>
</trkpt>
<trkpt lat="64.1624775" lon="-139.8402243">
  <ele>1109.18</ele>
  <time>2026-09-01T20:02:10Z</time>
  <course>6.79</course>
  <speed>0.022360679774997897</speed>
  <fix>3d</fix>
</trkpt>
<trkpt lat="64.1624777" lon="-139.8402246">
  <ele>1109.09</ele>
  <time>2026-09-01T20:02:10Z</time>
  <course>180.78</course>
  <speed>0.0</speed>
  <fix>3d</fix>
</trkpt>
<trkpt lat="64.1624775" lon="-139.8402243">
  <ele>1109.18</ele>
  <time>2026-09-01T20:02:10Z</time>
  <course>6.79</course>
  <speed>0.022360679774997897</speed>
  <fix>3d</fix>
</trkpt>
<trkpt lat="64.1624777" lon="-139.8402246">
  <ele>1109.09</ele>
  <time>2026-09-01T20:02:10Z</time>
  <course>180.78</course>
  <speed>0.0</speed>
  <fix>3d</fix>
</trkpt>
<trkpt lat="64.1624775" lon="-139.8402243">
  <ele>1109.18</ele>
  <time>2026-09-01T20:02:10Z</time>
  <course>6.79</course>
  <speed>0.022360679774997897</speed>
  <fix>3d</fix>
</trkpt>
<trkpt lat="64.1624777" lon="-139.8402246">
  <ele>1109.09</ele>
  <time>2026-09-01T20:02:10Z</time>
  <course>180.78</course>
  <speed>0.0</speed>
  <fix>3d</fix>
</trkpt>
<trkpt lat="64.1624775" lon="-139.8402243">
  <ele>1109.18</ele>
  <time>2026-09-01T20:02:10Z</time>
  <course>6.79</course>
  <speed>0.022360679774997897</speed>
  <fix>3d</fix>
</trkpt>
<trkpt lat="64.1624777" lon="-139.8402246">
  <ele>1109.09</ele>
  <time>2026-09-01T20:02:10Z</time>
  <course>180.78</course>
  <speed>0.0</speed>
  <fix>3d</fix>
</trkpt>
<trkpt lat="64.1624775" lon="-139.8402243">
  <ele>1109.19</ele>
  <time>2026-09-01T20:02:10Z</time>
  <course>6.79</course>
  <speed>0.022360679774997897</speed>
  <fix>3d</fix>
</trkpt>
<trkpt lat="64.1624777" lon="-139.8402246">
  <ele>1109.09</ele>
  <time>2026-09-01T20:02:10Z</time>
  <course>180.78</course>
  <speed>0.0</speed>
  <fix>3d</fix>
</trkpt>
<trkpt lat="64.1624775" lon="-139.8402243">
  <ele>1109.19</ele>
  <time>2026-09-01T20:02:10Z</time>
  <course>6.8</course>
  <speed>0.022360679774997897</speed>
  <fix>3d</fix>
</trkpt>
<trkpt lat="64.1624777" lon="-139.8402246">
  <ele>1109.09</ele>
  <time>2026-09-01T20:02:10Z</time>
  <course>180.78</course>
  <speed>0.0</speed>
  <fix>3d</fix>
</trkpt>
<trkpt lat="64.1624775" lon="-139.8402243">
  <ele>1109.19</ele>
  <time>2026-09-01T20:02:10Z</time>
  <course>6.8</course>
  <speed>0.022360679774997897</speed>
  <fix>3d</fix>
</trkpt>
<trkpt lat="64.1624777" lon="-139.8402246">
  <ele>1109.09</ele>
  <time>2026-09-01T20:02:10Z</time>
  <course>180.78</course>
  <speed>0.0</speed>
  <fix>3d</fix>
</trkpt>
<trkpt lat="64.1624775" lon="-139.8402243">
  <ele>1109.2</ele>
  <time>2026-09-01T20:02:10Z</time>
  <course>6.8</course>
  <speed>0.022360679774997897</speed>
  <fix>3d</fix>
</trkpt>
<trkpt lat="64.1624777" lon="-139.8402246">
  <ele>1109.09</ele>
  <time>2026-09-01T20:02:10Z</time>
  <course>180.78</course>
  <speed>0.0</speed>
  <fix>3d</fix>
</trkpt>
<trkpt lat="64.1624775" lon="-139.8402243">
  <ele>1109.2</ele>
  <time>2026-09-01T20:02:10Z</time>
  <course>6.8</course>
  <speed>0.022360679774997897</speed>
  <fix>3d</fix>
</trkpt>
<trkpt lat="64.1624777" lon="-139.8402246">
  <ele>1109.09</ele>
  <time>2026-09-01T20:02:10Z</time>
  <course>180.78</course>
  <speed>0.0</speed>
  <fix>3d</fix>
</trkpt>
<trkpt lat="64.1624775" lon="-139.8402243">
  <ele>1109.2</ele>
  <time>2026-09-01T20:02:10Z</time>
  <course>6.8</course>
  <speed>0.022360679774997897</speed>
  <fix>3d</fix>
</trkpt>
<trkpt lat="64.1624777" lon="-139.8402246">
  <ele>1109.09</ele>
  <time>2026-09-01T20:02:10Z</time>
  <course>180.78</course>
  <speed>0.0</speed>
  <fix>3d</fix>
</trkpt>
<trkpt lat="64.1624775" lon="-139.8402243">
  <ele>1109.21</ele>
  <time>2026-09-01T20:02:10Z</time>
  <course>6.8</course>
  <speed>0.022360679774997897</speed>
  <fix>3d</fix>
</trkpt>
<trkpt lat="64.1624777" lon="-139.8402246">
  <ele>1109.09</ele>
  <time>2026-09-01T20:02:10Z</time>
  <course>180.78</course>
  <speed>0.0</speed>
  <fix>3d</fix>
</trkpt>
<trkpt lat="64.1624775" lon="-139.8402243">
  <ele>1109.21</ele>
  <time>2026-09-01T20:02:10Z</time>
  <course>6.8</course>
  <speed>0.022360679774997897</speed>
  <fix>3d</fix>
</trkpt>
<trkpt lat="64.1624777" lon="-139.8402246">
  <ele>1109.09</ele>
  <time>2026-09-01T20:02:10Z</time>
  <course>180.78</course>
  <speed>0.0</speed>
  <fix>3d</fix>
</trkpt>
<trkpt lat="64.1624775" lon="-139.8402243">
  <ele>1109.21</ele>
  <time>2026-09-01T20:02:10Z</time>
  <course>6.8</course>
  <speed>0.022360679774997897</speed>
  <fix>3d</fix>
</trkpt>
<trkpt lat="64.1624777" lon="-139.8402246">
  <ele>1109.09</ele>
  <time>2026-09-01T20:02:10Z</time>
  <course>180.78</course>
  <speed>0.0</speed>
  <fix>3d</fix>
</trkpt>
<trkpt lat="64.1624775" lon="-139.8402243">
  <ele>1109.22</ele>
  <time>2026-09-01T20:02:10Z</time>
  <course>6.8</course>
  <speed>0.022360679774997897</speed>
  <fix>3d</fix>
</trkpt>
<trkpt lat="64.1624777" lon="-139.8402246">
  <ele>1109.09</ele>
  <time>2026-09-01T20:02:10Z</time>
  <course>180.78</course>
  <speed>0.0</speed>
  <fix>3d</fix>
</trkpt>
<trkpt lat="64.1624775" lon="-139.8402243">
  <ele>1109.22</ele>
  <time>2026-09-01T20:02:10Z</time>
  <course>6.8</course>
  <speed>0.022360679774997897</speed>
  <fix>3d</fix>
</trkpt>
<trkpt lat="64.1624777" lon="-139.8402246">
  <ele>1109.09</ele>
  <time>2026-09-01T20:02:10Z</time>
  <course>180.78</course>
  <speed>0.0</speed>
  <fix>3d</fix>
</trkpt>
<trkpt lat="64.1624775" lon="-139.8402243">
  <ele>1109.22</ele>
  <time>2026-09-01T20:02:10Z</time>
  <course>6.81</course>
  <speed>0.022360679774997897</speed>
  <fix>3d</fix>
</trkpt>
<trkpt lat="64.1624777" lon="-139.8402246">
  <ele>1109.09</ele>
  <time>2026-09-01T20:02:10Z</time>
  <course>180.78</course>
  <speed>0.0</speed>
  <fix>3d</fix>
</trkpt>
<trkpt lat="64.1624775" lon="-139.8402243">
  <ele>1109.22</ele>
  <time>2026-09-01T20:02:10Z</time>
  <course>6.81</course>
  <speed>0.022360679774997897</speed>
  <fix>3d</fix>
</trkpt>
<trkpt lat="64.1624777" lon="-139.8402246">
  <ele>1109.09</ele>
  <time>2026-09-01T20:02:10Z</time>
  <course>180.78</course>
  <speed>0.0</speed>
  <fix>3d</fix>
</trkpt>
<trkpt lat="64.1624775" lon="-139.8402243">
  <ele>1109.23</ele>
  <time>2026-09-01T20:02:10Z</time>
  <course>6.81</course>
  <speed>0.022360679774997897</speed>
  <fix>3d</fix>
</trkpt>
<trkpt lat="64.1624777" lon="-139.8402246">
  <ele>1109.09</ele>
  <time>2026-09-01T20:02:10Z</time>
  <course>180.78</course>
  <speed>0.0</speed>
  <fix>3d</fix>
</trkpt>
<trkpt lat="64.1624775" lon="-139.8402243">
  <ele>1109.23</ele>
  <time>2026-09-01T20:02:10Z</time>
  <course>6.81</course>
  <speed>0.022360679774997897</speed>
  <fix>3d</fix>
</trkpt>
<trkpt lat="64.1624777" lon="-139.8402246">
  <ele>1109.09</ele>
  <time>2026-09-01T20:02:10Z</time>
  <course>180.78</course>
  <speed>0.0</speed>
  <fix>3d</fix>
</trkpt>
<trkpt lat="64.1624775" lon="-139.8402243">
  <ele>1109.23</ele>
  <time>2026-09-01T20:02:10Z</time>
  <course>6.81</course>
  <speed>0.022360679774997897</speed>
  <fix>3d</fix>
</trkpt>
<trkpt lat="64.1624777" lon="-139.8402246">
  <ele>1109.09</ele>
  <time>2026-09-01T20:02:10Z</time>
  <course>180.78</course>
  <speed>0.0</speed>
  <fix>3d</fix>
</trkpt>
<trkpt lat="64.1624775" lon="-139.8402243">
  <ele>1109.23</ele>
  <time>2026-09-01T20:02:10Z</time>
  <course>6.81</course>
  <speed>0.022360679774997897</speed>
  <fix>3d</fix>
</trkpt>
<trkpt lat="64.1624777" lon="-139.8402246">
  <ele>1109.09</ele>
  <time>2026-09-01T20:02:10Z</time>
  <course>180.78</course>
  <speed>0.0</speed>
  <fix>3d</fix>
</trkpt>
<trkpt lat="64.1624775" lon="-139.8402243">
  <ele>1109.23</ele>
  <time>2026-09-01T20:02:10Z</time>
  <course>6.81</course>
  <speed>0.022360679774997897</speed>
  <fix>3d</fix>
</trkpt>
<trkpt lat="64.1624777" lon="-139.8402246">
  <ele>1109.09</ele>
  <time>2026-09-01T20:02:10Z</time>
  <course>180.78</course>
  <speed>0.0</speed>
  <fix>3d</fix>
</trkpt>
<trkpt lat="64.1624775" lon="-139.8402243">
  <ele>1109.23</ele>
  <time>2026-09-01T20:02:10Z</time>
  <course>6.81</course>
  <speed>0.022360679774997897</speed>
  <fix>3d</fix>
</trkpt>
<trkpt lat="64.1624777" lon="-139.8402246">
  <ele>1109.09</ele>
  <time>2026-09-01T20:02:10Z</time>
  <course>180.78</course>
  <speed>0.0</speed>
  <fix>3d</fix>
</trkpt>
<trkpt lat="64.1624775" lon="-139.8402243">
  <ele>1109.23</ele>
  <time>2026-09-01T20:02:10Z</time>
  <course>6.81</course>
  <speed>0.022360679774997897</speed>
  <fix>3d</fix>
</trkpt>
<trkpt lat="64.1624777" lon="-139.8402246">
  <ele>1109.09</ele>
  <time>2026-09-01T20:02:10Z</time>
  <course>180.78</course>
  <speed>0.0</speed>
  <fix>3d</fix>
</trkpt>
<trkpt lat="64.1624775" lon="-139.8402243">
  <ele>1109.23</ele>
  <time>2026-09-01T20:02:10Z</time>
  <course>6.81</course>
  <speed>0.022360679774997897</speed>
  <fix>3d</fix>
</trkpt>
<trkpt lat="64.1624777" lon="-139.8402246">
  <ele>1109.09</ele>
  <time>2026-09-01T20:02:10Z</time>
  <course>180.78</course>
  <speed>0.0</speed>
  <fix>3d</fix>
</trkpt>
<trkpt lat="64.1624775" lon="-139.8402243">
  <ele>1109.23</ele>
  <time>2026-09-01T20:02:10Z</time>
  <course>6.82</course>
  <speed>0.022360679774997897</speed>
  <fix>3d</fix>
</trkpt>
<trkpt lat="64.1624777" lon="-139.8402246">
  <ele>1109.09</ele>
  <time>2026-09-01T20:02:10Z</time>
  <course>180.78</course>
  <speed>0.0</speed>
  <fix>3d</fix>
</trkpt>
<trkpt lat="64.1624775" lon="-139.8402243">
  <ele>1109.23</ele>
  <time>2026-09-01T20:02:10Z</time>
  <course>6.82</course>
  <speed>0.022360679774997897</speed>
  <fix>3d</fix>
</trkpt>
<trkpt lat="64.1624777" lon="-139.8402246">
  <ele>1109.09</ele>
  <time>2026-09-01T20:02:10Z</time>
  <course>180.78</course>
  <speed>0.0</speed>
  <fix>3d</fix>
</trkpt>
<trkpt lat="64.1624775" lon="-139.8402243">
  <ele>1109.23</ele>
  <time>2026-09-01T20:02:10Z</time>
  <course>6.82</course>
  <speed>0.022360679774997897</speed>
  <fix>3d</fix>
</trkpt>
<trkpt lat="64.1624777" lon="-139.8402246">
  <ele>1109.09</ele>
  <time>2026-09-01T20:02:10Z</time>
  <course>180.78</course>
  <speed>0.0</speed>
  <fix>3d</fix>
</trkpt>
<trkpt lat="64.1624775" lon="-139.8402243">
  <ele>1109.23</ele>
  <time>2026-09-01T20:02:10Z</time>
  <course>6.82</course>
  <speed>0.022360679774997897</speed>
  <fix>3d</fix>
</trkpt>
<trkpt lat="64.1624777" lon="-139.8402246">
  <ele>1109.09</ele>
  <time>2026-09-01T20:02:10Z</time>
  <course>180.78</course>
  <speed>0.0</speed>
  <fix>3d</fix>
</trkpt>
<trkpt lat="64.1624775" lon="-139.8402243">
  <ele>1109.23</ele>
  <time>2026-09-01T20:02:10Z</time>
  <course>6.82</course>
  <speed>0.022360679774997897</speed>
  <fix>3d</fix>
</trkpt>
<trkpt lat="64.1624777" lon="-139.8402246">
  <ele>1109.09</ele>
  <time>2026-09-01T20:02:10Z</time>
  <course>180.78</course>
  <speed>0.0</speed>
  <fix>3d</fix>
</trkpt>
<trkpt lat="64.1624775" lon="-139.8402243">
  <ele>1109.23</ele>
  <time>2026-09-01T20:02:10Z</time>
  <course>6.82</course>
  <speed>0.022360679774997897</speed>
  <fix>3d</fix>
</trkpt>
<trkpt lat="64.1624777" lon="-139.8402246">
  <ele>1109.09</ele>
  <time>2026-09-01T20:02:10Z</time>
  <course>180.78</course>
  <speed>0.0</speed>
  <fix>3d</fix>
</trkpt>
<trkpt lat="64.1624775" lon="-139.8402243">
  <ele>1109.23</ele>
  <time>2026-09-01T20:02:10Z</time>
  <course>6.82</course>
  <speed>0.022360679774997897</speed>
  <fix>3d</fix>
</trkpt>
<trkpt lat="64.1624777" lon="-139.8402246">
  <ele>1109.09</ele>
  <time>2026-09-01T20:02:10Z</time>
  <course>180.78</course>
  <speed>0.0</speed>
  <fix>3d</fix>
</trkpt>
<trkpt lat="64.1624775" lon="-139.8402243">
  <ele>1109.09</ele>
  <time>2026-09-01T20:02:10Z</time>
  <course>6.82</course>
  <speed>0.022360679774997897</speed>
  <fix>3d</fix>
</trkpt>
<trkpt lat="64.1624777" lon="-139.8402246">
  <ele>1109.09</ele>
  <time>2026-09-01T20:02:10Z</time>
  <course>180.78</course>
  <speed>0.0</speed>
  <fix>3d</fix>
</trkpt>
<trkpt lat="64.1624775" lon="-139.8402243">
  <ele>1109.09</ele>
  <time>2026-09-01T20:02:10Z</time>
  <course>6.82</course>
  <speed>0.022360679774997897</speed>
  <fix>3d</fix>
</trkpt>
<trkpt lat="64.1624777" lon="-139.8402246">
  <ele>1109.09</ele>
  <time>2026-09-01T20:02:10Z</time>
  <course>180.78</course>
  <speed>0.0</speed>
  <fix>3d</fix>
</trkpt>
<trkpt lat="64.1624775" lon="-139.8402243">
  <ele>1109.09</ele>
  <time>2026-09-01T20:02:10Z</time>
  <course>6.82</course>
  <speed>0.022360679774997897</speed>
  <fix>3d</fix>
</trkpt>
<trkpt lat="64.1624777" lon="-139.8402246">
  <ele>1109.09</ele>
  <time>2026-09-01T20:02:10Z</time>
  <course>180.78</course>
  <speed>0.0</speed>
  <fix>3d</fix>
</trkpt>
<trkpt lat="64.1624775" lon="-139.8402243">
  <ele>1109.09</ele>
  <time>2026-09-01T20:02:10Z</time>
  <course>6.83</course>
  <speed>0.022360679774997897</speed>
  <fix>3d</fix>
</trkpt>
<trkpt lat="64.1624777" lon="-139.8402246">
  <ele>1109.09</ele>
  <time>2026-09-01T20:02:10Z</time>
  <course>180.78</course>
  <speed>0.0</speed>
  <fix>3d</fix>
</trkpt>
<trkpt lat="64.1624775" lon="-139.8402243">
  <ele>1109.09</ele>
  <time>2026-09-01T20:02:10Z</time>
  <course>6.83</course>
  <speed>0.022360679774997897</speed>
  <fix>3d</fix>
</trkpt>
<trkpt lat="64.1624777" lon="-139.8402246">
  <ele>1109.09</ele>
  <time>2026-09-01T20:02:10Z</time>
  <course>180.78</course>
  <speed>0.0</speed>
  <fix>3d</fix>
</trkpt>
<trkpt lat="64.1624775" lon="-139.8402243">
  <ele>1109.09</ele>
  <time>2026-09-01T20:02:10Z</time>
  <course>6.83</course>
  <speed>0.022360679774997897</speed>
  <fix>3d</fix>
</trkpt>
<trkpt lat="64.1624777" lon="-139.8402246">
  <ele>1109.09</ele>
  <time>2026-09-01T20:02:10Z</time>
  <course>180.78</course>
  <speed>0.0</speed>
  <fix>3d</fix>
</trkpt>
<trkpt lat="64.1624775" lon="-139.8402243">
  <ele>1109.08</ele>
  <time>2026-09-01T20:02:10Z</time>
  <course>6.83</course>
  <speed>0.022360679774997897</speed>
  <fix>3d</fix>
</trkpt>
<trkpt lat="64.1624777" lon="-139.8402246">
  <ele>1109.09</ele>
  <time>2026-09-01T20:02:10Z</time>
  <course>180.78</course>
  <speed>0.0</speed>
  <fix>3d</fix>
</trkpt>
<trkpt lat="64.1624775" lon="-139.8402243">
  <ele>1109.08</ele>
  <time>2026-09-01T20:02:10Z</time>
  <course>6.83</course>
  <speed>0.022360679774997897</speed>
  <fix>3d</fix>
</trkpt>
<trkpt lat="64.1624777" lon="-139.8402246">
  <ele>1109.09</ele>
  <time>2026-09-01T20:02:10Z</time>
  <course>180.78</course>
  <speed>0.0</speed>
  <fix>3d</fix>
</trkpt>
<trkpt lat="64.1624775" lon="-139.8402243">
  <ele>1109.08</ele>
  <time>2026-09-01T20:02:10Z</time>
  <course>6.83</course>
  <speed>0.022360679774997897</speed>
  <fix>3d</fix>
</trkpt>
<trkpt lat="64.1624777" lon="-139.8402246">
  <ele>1109.09</ele>
  <time>2026-09-01T20:02:10Z</time>
  <course>180.78</course>
  <speed>0.0</speed>
  <fix>3d</fix>
</trkpt>
<trkpt lat="64.1624775" lon="-139.8402243">
  <ele>1109.08</ele>
  <time>2026-09-01T20:02:10Z</time>
  <course>6.83</course>
  <speed>0.022360679774997897</speed>
  <fix>3d</fix>
</trkpt>
<trkpt lat="64.1624777" lon="-139.8402246">
  <ele>1109.09</ele>
  <time>2026-09-01T20:02:10Z</time>
  <course>180.78</course>
  <speed>0.0</speed>
  <fix>3d</fix>
</trkpt>
<trkpt lat="64.1624775" lon="-139.8402243">
  <ele>1109.08</ele>
  <time>2026-09-01T20:02:10Z</time>
  <course>6.83</course>
  <speed>0.022360679774997897</speed>
  <fix>3d</fix>
</trkpt>
<trkpt lat="64.1624777" lon="-139.8402246">
  <ele>1109.09</ele>
  <time>2026-09-01T20:02:10Z</time>
  <course>180.78</course>
  <speed>0.0</speed>
  <fix>3d</fix>
</trkpt>
<trkpt lat="64.1624775" lon="-139.8402243">
  <ele>1109.09</ele>
  <time>2026-09-01T20:02:10Z</time>
  <course>6.83</course>
  <speed>0.022360679774997897</speed>
  <fix>3d</fix>
</trkpt>
<trkpt lat="64.1624777" lon="-139.8402246">
  <ele>1109.09</ele>
  <time>2026-09-01T20:02:10Z</time>
  <course>180.78</course>
  <speed>0.0</speed>
  <fix>3d</fix>
</trkpt>
<trkpt lat="64.1624775" lon="-139.8402243">
  <ele>1109.09</ele>
  <time>2026-09-01T20:02:10Z</time>
  <course>6.83</course>
  <speed>0.022360679774997897</speed>
  <fix>3d</fix>
</trkpt>
<trkpt lat="64.1624777" lon="-139.8402246">
  <ele>1109.09</ele>
  <time>2026-09-01T20:02:10Z</time>
  <course>180.78</course>
  <speed>0.0</speed>
  <fix>3d</fix>
</trkpt>
<trkpt lat="64.1624775" lon="-139.8402243">
  <ele>1109.09</ele>
  <time>2026-09-01T20:02:10Z</time>
  <course>6.84</course>
  <speed>0.022360679774997897</speed>
  <fix>3d</fix>
</trkpt>
<trkpt lat="64.1624777" lon="-139.8402246">
  <ele>1109.09</ele>
  <time>2026-09-01T20:02:10Z</time>
  <course>180.78</course>
  <speed>0.0</speed>
  <fix>3d</fix>
</trkpt>
<trkpt lat="64.1624775" lon="-139.8402243">
  <ele>1109.09</ele>
  <time>2026-09-01T20:02:10Z</time>
  <course>6.84</course>
  <speed>0.022360679774997897</speed>
  <fix>3d</fix>
</trkpt>
<trkpt lat="64.1624777" lon="-139.8402246">
  <ele>1109.09</ele>
  <time>2026-09-01T20:02:10Z</time>
  <course>180.78</course>
  <speed>0.0</speed>
  <fix>3d</fix>
</trkpt>
<trkpt lat="64.1624775" lon="-139.8402243">
  <ele>1109.09</ele>
  <time>2026-09-01T20:02:10Z</time>
  <course>6.84</course>
  <speed>0.022360679774997897</speed>
  <fix>3d</fix>
</trkpt>
<trkpt lat="64.1624777" lon="-139.8402246">
  <ele>1109.09</ele>
  <time>2026-09-01T20:02:10Z</time>
  <course>180.78</course>
  <speed>0.0</speed>
  <fix>3d</fix>
</trkpt>
<trkpt lat="64.1624775" lon="-139.8402243">
  <ele>1109.09</ele>
  <time>2026-09-01T20:02:10Z</time>
  <course>6.84</course>
  <speed>0.022360679774997897</speed>
  <fix>3d</fix>
</trkpt>
<trkpt lat="64.1624777" lon="-139.8402246">
  <ele>1109.09</ele>
  <time>2026-09-01T20:02:10Z</time>
  <course>180.78</course>
  <speed>0.0</speed>
  <fix>3d</fix>
</trkpt>
<trkpt lat="64.1624775" lon="-139.8402243">
  <ele>1109.09</ele>
  <time>2026-09-01T20:02:10Z</time>
  <course>6.84</course>
  <speed>0.022360679774997897</speed>
  <fix>3d</fix>
</trkpt>
<trkpt lat="64.1624777" lon="-139.8402246">
  <ele>1109.09</ele>
  <time>2026-09-01T20:02:10Z</time>
  <course>180.78</course>
  <speed>0.0</speed>
  <fix>3d</fix>
</trkpt>
<trkpt lat="64.1624775" lon="-139.8402243">
  <ele>1109.1</ele>
  <time>2026-09-01T20:02:10Z</time>
  <course>6.84</course>
  <speed>0.022360679774997897</speed>
  <fix>3d</fix>
</trkpt>
<trkpt lat="64.1624777" lon="-139.8402246">
  <ele>1109.09</ele>
  <time>2026-09-01T20:02:10Z</time>
  <course>180.78</course>
  <speed>0.0</speed>
  <fix>3d</fix>
</trkpt>
<trkpt lat="64.1624775" lon="-139.8402243">
  <ele>1109.1</ele>
  <time>2026-09-01T20:02:10Z</time>
  <course>6.84</course>
  <speed>0.022360679774997897</speed>
  <fix>3d</fix>
</trkpt>
<trkpt lat="64.1624777" lon="-139.8402246">
  <ele>1109.09</ele>
  <time>2026-09-01T20:02:10Z</time>
  <course>180.78</course>
  <speed>0.0</speed>
  <fix>3d</fix>
</trkpt>
<trkpt lat="64.1624775" lon="-139.8402243">
  <ele>1109.1</ele>
  <time>2026-09-01T20:02:10Z</time>
  <course>6.84</course>
  <speed>0.022360679774997897</speed>
  <fix>3d</fix>
</trkpt>
<trkpt lat="64.1624777" lon="-139.8402246">
  <ele>1109.09</ele>
  <time>2026-09-01T20:02:10Z</time>
  <course>180.78</course>
  <speed>0.0</speed>
  <fix>3d</fix>
</trkpt>
<trkpt lat="64.1624775" lon="-139.8402243">
  <ele>1109.1</ele>
  <time>2026-09-01T20:02:10Z</time>
  <course>6.84</course>
  <speed>0.022360679774997897</speed>
  <fix>3d</fix>
</trkpt>
<trkpt lat="64.1624777" lon="-139.8402246">
  <ele>1109.09</ele>
  <time>2026-09-01T20:02:10Z</time>
  <course>180.78</course>
  <speed>0.0</speed>
  <fix>3d</fix>
</trkpt>
<trkpt lat="64.1624775" lon="-139.8402243">
  <ele>1109.1</ele>
  <time>2026-09-01T20:02:10Z</time>
  <course>6.84</course>
  <speed>0.022360679774997897</speed>
  <fix>3d</fix>
</trkpt>
<trkpt lat="64.1624777" lon="-139.8402246">
  <ele>1109.09</ele>
  <time>2026-09-01T20:02:10Z</time>
  <course>180.78</course>
  <speed>0.0</speed>
  <fix>3d</fix>
</trkpt>
<trkpt lat="64.1624775" lon="-139.8402243">
  <ele>1109.1</ele>
  <time>2026-09-01T20:02:10Z</time>
  <course>6.85</course>
  <speed>0.022360679774997897</speed>
  <fix>3d</fix>
</trkpt>
<trkpt lat="64.1624777" lon="-139.8402246">
  <ele>1109.09</ele>
  <time>2026-09-01T20:02:10Z</time>
  <course>180.78</course>
  <speed>0.0</speed>
  <fix>3d</fix>
</trkpt>
<trkpt lat="64.1624775" lon="-139.8402243">
  <ele>1109.1</ele>
  <time>2026-09-01T20:02:10Z</time>
  <course>6.85</course>
  <speed>0.022360679774997897</speed>
  <fix>3d</fix>
</trkpt>
<trkpt lat="64.1624777" lon="-139.8402246">
  <ele>1109.09</ele>
  <time>2026-09-01T20:02:10Z</time>
  <course>180.78</course>
  <speed>0.0</speed>
  <fix>3d</fix>
</trkpt>
<trkpt lat="64.1624775" lon="-139.8402243">
  <ele>1109.09</ele>
  <time>2026-09-01T20:02:10Z</time>
  <course>6.85</course>
  <speed>0.022360679774997897</speed>
  <fix>3d</fix>
</trkpt>
<trkpt lat="64.1624777" lon="-139.8402246">
  <ele>1109.09</ele>
  <time>2026-09-01T20:02:10Z</time>
  <course>180.78</course>
  <speed>0.0</speed>
  <fix>3d</fix>
</trkpt>
<trkpt lat="64.1624775" lon="-139.8402243">
  <ele>1109.09</ele>
  <time>2026-09-01T20:02:10Z</time>
  <course>6.85</course>
  <speed>0.022360679774997897</speed>
  <fix>3d</fix>
</trkpt>
<trkpt lat="64.1624777" lon="-139.8402246">
  <ele>1109.09</ele>
  <time>2026-09-01T20:02:10Z</time>
  <course>180.78</course>
  <speed>0.0</speed>
  <fix>3d</fix>
</trkpt>
<trkpt lat="64.1624775" lon="-139.8402243">
  <ele>1109.09</ele>
  <time>2026-09-01T20:02:10Z</time>
  <course>6.85</course>
  <speed>0.022360679774997897</speed>
  <fix>3d</fix>
</trkpt>
<trkpt lat="64.1624777" lon="-139.8402246">
  <ele>1109.09</ele>
  <time>2026-09-01T20:02:10Z</time>
  <course>180.78</course>
  <speed>0.0</speed>
  <fix>3d</fix>
</trkpt>
<trkpt lat="64.1624775" lon="-139.8402243">
  <ele>1109.09</ele>
  <time>2026-09-01T20:02:10Z</time>
  <course>6.85</course>
  <speed>0.022360679774997897</speed>
  <fix>3d</fix>
</trkpt>
<trkpt lat="64.1624777" lon="-139.8402246">
  <ele>1109.09</ele>
  <time>2026-09-01T20:02:10Z</time>
  <course>180.78</course>
  <speed>0.0</speed>
  <fix>3d</fix>
</trkpt>
<trkpt lat="64.1624775" lon="-139.8402243">
  <ele>1109.08</ele>
  <time>2026-09-01T20:02:10Z</time>
  <course>6.85</course>
  <speed>0.022360679774997897</speed>
  <fix>3d</fix>
</trkpt>
<trkpt lat="64.1624777" lon="-139.8402246">
  <ele>1109.09</ele>
  <time>2026-09-01T20:02:10Z</time>
  <course>180.78</course>
  <speed>0.0</speed>
  <fix>3d</fix>
</trkpt>
<trkpt lat="64.1624775" lon="-139.8402243">
  <ele>1109.08</ele>
  <time>2026-09-01T20:02:10Z</time>
  <course>6.85</course>
  <speed>0.022360679774997897</speed>
  <fix>3d</fix>
</trkpt>
<trkpt lat="64.1624777" lon="-139.8402246">
  <ele>1109.09</ele>
  <time>2026-09-01T20:02:10Z</time>
  <course>180.78</course>
  <speed>0.0</speed>
  <fix>3d</fix>
</trkpt>
<trkpt lat="64.1624775" lon="-139.8402243">
  <ele>1109.08</ele>
  <time>2026-09-01T20:02:10Z</time>
  <course>6.85</course>
  <speed>0.022360679774997897</speed>
  <fix>3d</fix>
</trkpt>
<trkpt lat="64.1624777" lon="-139.8402246">
  <ele>1109.09</ele>
  <time>2026-09-01T20:02:10Z</time>
  <course>180.78</course>
  <speed>0.0</speed>
  <fix>3d</fix>
</trkpt>
<trkpt lat="64.1624775" lon="-139.8402243">
  <ele>1109.08</ele>
  <time>2026-09-01T20:02:10Z</time>
  <course>6.85</course>
  <speed>0.022360679774997897</speed>
  <fix>3d</fix>
</trkpt>
<trkpt lat="64.1624777" lon="-139.8402246">
  <ele>1109.09</ele>
  <time>2026-09-01T20:02:10Z</time>
  <course>180.78</course>
  <speed>0.0</speed>
  <fix>3d</fix>
</trkpt>
<trkpt lat="64.1624775" lon="-139.8402243">
  <ele>1109.08</ele>
  <time>2026-09-01T20:02:10Z</time>
  <course>6.85</course>
  <speed>0.022360679774997897</speed>
  <fix>3d</fix>
</trkpt>
<trkpt lat="64.1624777" lon="-139.8402246">
  <ele>1109.09</ele>
  <time>2026-09-01T20:02:10Z</time>
  <course>180.78</course>
  <speed>0.0</speed>
  <fix>3d</fix>
</trkpt>
<trkpt lat="64.1624775" lon="-139.8402243">
  <ele>1109.07</ele>
  <time>2026-09-01T20:02:10Z</time>
  <course>6.86</course>
  <speed>0.022360679774997897</speed>
  <fix>3d</fix>
</trkpt>
<trkpt lat="64.1624777" lon="-139.8402246">
  <ele>1109.09</ele>
  <time>2026-09-01T20:02:10Z</time>
  <course>180.78</course>
  <speed>0.0</speed>
  <fix>3d</fix>
</trkpt>
<trkpt lat="64.1624775" lon="-139.8402243">
  <ele>1109.07</ele>
  <time>2026-09-01T20:02:10Z</time>
  <course>6.86</course>
  <speed>0.022360679774997897</speed>
  <fix>3d</fix>
</trkpt>
<trkpt lat="64.1624777" lon="-139.8402246">
  <ele>1109.09</ele>
  <time>2026-09-01T20:02:10Z</time>
  <course>180.78</course>
  <speed>0.0</speed>
  <fix>3d</fix>
</trkpt>
<trkpt lat="64.1624775" lon="-139.8402243">
  <ele>1109.07</ele>
  <time>2026-09-01T20:02:10Z</time>
  <course>6.86</course>
  <speed>0.022360679774997897</speed>
  <fix>3d</fix>
</trkpt>
<trkpt lat="64.1624777" lon="-139.8402246">
  <ele>1109.09</ele>
  <time>2026-09-01T20:02:10Z</time>
  <course>180.78</course>
  <speed>0.0</speed>
  <fix>3d</fix>
</trkpt>
<trkpt lat="64.1624775" lon="-139.8402243">
  <ele>1109.07</ele>
  <time>2026-09-01T20:02:10Z</time>
  <course>6.86</course>
  <speed>0.022360679774997897</speed>
  <fix>3d</fix>
</trkpt>
<trkpt lat="64.1624777" lon="-139.8402246">
  <ele>1109.09</ele>
  <time>2026-09-01T20:02:10Z</time>
  <course>180.78</course>
  <speed>0.0</speed>
  <fix>3d</fix>
</trkpt>
<trkpt lat="64.1624775" lon="-139.8402243">
  <ele>1109.07</ele>
  <time>2026-09-01T20:02:10Z</time>
  <course>6.86</course>
  <speed>0.022360679774997897</speed>
  <fix>3d</fix>
</trkpt>
<trkpt lat="64.1624777" lon="-139.8402246">
  <ele>1109.09</ele>
  <time>2026-09-01T20:02:10Z</time>
  <course>180.78</course>
  <speed>0.0</speed>
  <fix>3d</fix>
</trkpt>
<trkpt lat="64.1624775" lon="-139.8402243">
  <ele>1109.07</ele>
  <time>2026-09-01T20:02:10Z</time>
  <course>6.86</course>
  <speed>0.022360679774997897</speed>
  <fix>3d</fix>
</trkpt>
<trkpt lat="64.1624777" lon="-139.8402246">
  <ele>1109.09</ele>
  <time>2026-09-01T20:02:10Z</time>
  <course>180.78</course>
  <speed>0.0</speed>
  <fix>3d</fix>
</trkpt>
<trkpt lat="64.1624775" lon="-139.8402243">
  <ele>1109.07</ele>
  <time>2026-09-01T20:02:10Z</time>
  <course>6.86</course>
  <speed>0.022360679774997897</speed>
  <fix>3d</fix>
</trkpt>
<trkpt lat="64.1624777" lon="-139.8402246">
  <ele>1109.09</ele>
  <time>2026-09-01T20:02:10Z</time>
  <course>180.78</course>
  <speed>0.0</speed>
  <fix>3d</fix>
</trkpt>
<trkpt lat="64.1624775" lon="-139.8402243">
  <ele>1109.07</ele>
  <time>2026-09-01T20:02:10Z</time>
  <course>6.86</course>
  <speed>0.022360679774997897</speed>
  <fix>3d</fix>
</trkpt>
<trkpt lat="64.1624777" lon="-139.8402246">
  <ele>1109.09</ele>
  <time>2026-09-01T20:02:10Z</time>
  <course>180.78</course>
  <speed>0.0</speed>
  <fix>3d</fix>
</trkpt>
<trkpt lat="64.1624775" lon="-139.8402243">
  <ele>1109.06</ele>
  <time>2026-09-01T20:02:10Z</time>
  <course>6.86</course>
  <speed>0.022360679774997897</speed>
  <fix>3d</fix>
</trkpt>
<trkpt lat="64.1624777" lon="-139.8402246">
  <ele>1109.09</ele>
  <time>2026-09-01T20:02:10Z</time>
  <course>180.78</course>
  <speed>0.0</speed>
  <fix>3d</fix>
</trkpt>
<trkpt lat="64.1624775" lon="-139.8402243">
  <ele>1109.06</ele>
  <time>2026-09-01T20:02:10Z</time>
  <course>6.87</course>
  <speed>0.022360679774997897</speed>
  <fix>3d</fix>
</trkpt>
<trkpt lat="64.1624777" lon="-139.8402246">
  <ele>1109.09</ele>
  <time>2026-09-01T20:02:10Z</time>
  <course>180.78</course>
  <speed>0.0</speed>
  <fix>3d</fix>
</trkpt>
<trkpt lat="64.1624775" lon="-139.8402243">
  <ele>1109.06</ele>
  <time>2026-09-01T20:02:10Z</time>
  <course>6.87</course>
  <speed>0.022360679774997897</speed>
  <fix>3d</fix>
</trkpt>
<trkpt lat="64.1624777" lon="-139.8402246">
  <ele>1109.09</ele>
  <time>2026-09-01T20:02:10Z</time>
  <course>180.78</course>
  <speed>0.0</speed>
  <fix>3d</fix>
</trkpt>
<trkpt lat="64.1624775" lon="-139.8402243">
  <ele>1109.06</ele>
  <time>2026-09-01T20:02:10Z</time>
  <course>6.87</course>
  <speed>0.022360679774997897</speed>
  <fix>3d</fix>
</trkpt>
<trkpt lat="64.1624777" lon="-139.8402246">
  <ele>1109.09</ele>
  <time>2026-09-01T20:02:10Z</time>
  <course>180.78</course>
  <speed>0.0</speed>
  <fix>3d</fix>
</trkpt>
<trkpt lat="64.1624775" lon="-139.8402243">
  <ele>1109.06</ele>
  <time>2026-09-01T20:02:10Z</time>
  <course>6.87</course>
  <speed>0.022360679774997897</speed>
  <fix>3d</fix>
</trkpt>
<trkpt lat="64.1624777" lon="-139.8402246">
  <ele>1109.09</ele>
  <time>2026-09-01T20:02:10Z</time>
  <course>180.78</course>
  <speed>0.0</speed>
  <fix>3d</fix>
</trkpt>
<trkpt lat="64.1624775" lon="-139.8402243">
  <ele>1109.06</ele>
  <time>2026-09-01T20:02:10Z</time>
  <course>6.87</course>
  <speed>0.022360679774997897</speed>
  <fix>3d</fix>
</trkpt>
<trkpt lat="64.1624777" lon="-139.8402246">
  <ele>1109.09</ele>
  <time>2026-09-01T20:02:10Z</time>
  <course>180.78</course>
  <speed>0.0</speed>
  <fix>3d</fix>
</trkpt>
<trkpt lat="64.1624775" lon="-139.8402243">
  <ele>1109.06</ele>
  <time>2026-09-01T20:02:10Z</time>
  <course>6.87</course>
  <speed>0.022360679774997897</speed>
  <fix>3d</fix>
</trkpt>
<trkpt lat="64.1624777" lon="-139.8402246">
  <ele>1109.09</ele>
  <time>2026-09-01T20:02:10Z</time>
  <course>180.78</course>
  <speed>0.0</speed>
  <fix>3d</fix>
</trkpt>
<trkpt lat="64.1624775" lon="-139.8402243">
  <ele>1109.06</ele>
  <time>2026-09-01T20:02:11Z</time>
  <course>6.87</course>
  <speed>0.022360679774997897</speed>
  <fix>3d</fix>
</trkpt>
<trkpt lat="64.1624777" lon="-139.8402246">
  <ele>1109.09</ele>
  <time>2026-09-01T20:02:11Z</time>
  <course>180.78</course>
  <speed>0.0</speed>
  <fix>3d</fix>
</trkpt>
<trkpt lat="64.1624775" lon="-139.8402243">
  <ele>1109.06</ele>
  <time>2026-09-01T20:02:11Z</time>
  <course>6.87</course>
  <speed>0.022360679774997897</speed>
  <fix>3d</fix>
</trkpt>
<trkpt lat="64.1624777" lon="-139.8402246">
  <ele>1109.09</ele>
  <time>2026-09-01T20:02:11Z</time>
  <course>180.78</course>
  <speed>0.0</speed>
  <fix>3d</fix>
</trkpt>
<trkpt lat="64.1624775" lon="-139.8402243">
  <ele>1109.06</ele>
  <time>2026-09-01T20:02:11Z</time>
  <course>6.87</course>
  <speed>0.022360679774997897</speed>
  <fix>3d</fix>
</trkpt>
<trkpt lat="64.1624777" lon="-139.8402246">
  <ele>1109.09</ele>
  <time>2026-09-01T20:02:11Z</time>
  <course>180.78</course>
  <speed>0.0</speed>
  <fix>3d</fix>
</trkpt>
<trkpt lat="64.1624775" lon="-139.8402243">
  <ele>1109.06</ele>
  <time>2026-09-01T20:02:11Z</time>
  <course>6.87</course>
  <speed>0.022360679774997897</speed>
  <fix>3d</fix>
</trkpt>
<trkpt lat="64.1624777" lon="-139.8402246">
  <ele>1109.09</ele>
  <time>2026-09-01T20:02:11Z</time>
  <course>180.78</course>
  <speed>0.0</speed>
  <fix>3d</fix>
</trkpt>
<trkpt lat="64.1624775" lon="-139.8402243">
  <ele>1109.06</ele>
  <time>2026-09-01T20:02:11Z</time>
  <course>6.88</course>
  <speed>0.022360679774997897</speed>
  <fix>3d</fix>
</trkpt>
<trkpt lat="64.1624777" lon="-139.8402246">
  <ele>1109.09</ele>
  <time>2026-09-01T20:02:11Z</time>
  <course>180.78</course>
  <speed>0.0</speed>
  <fix>3d</fix>
</trkpt>
<trkpt lat="64.1624775" lon="-139.8402243">
  <ele>1109.06</ele>
  <time>2026-09-01T20:02:11Z</time>
  <course>6.88</course>
  <speed>0.022360679774997897</speed>
  <fix>3d</fix>
</trkpt>
<trkpt lat="64.1624777" lon="-139.8402246">
  <ele>1109.09</ele>
  <time>2026-09-01T20:02:11Z</time>
  <course>180.78</course>
  <speed>0.0</speed>
  <fix>3d</fix>
</trkpt>
<trkpt lat="64.1624775" lon="-139.8402243">
  <ele>1109.06</ele>
  <time>2026-09-01T20:02:11Z</time>
  <course>6.88</course>
  <speed>0.022360679774997897</speed>
  <fix>3d</fix>
</trkpt>
<trkpt lat="64.1624777" lon="-139.8402246">
  <ele>1109.09</ele>
  <time>2026-09-01T20:02:11Z</time>
  <course>180.78</course>
  <speed>0.0</speed>
  <fix>3d</fix>
</trkpt>
<trkpt lat="64.1624775" lon="-139.8402243">
  <ele>1109.06</ele>
  <time>2026-09-01T20:02:11Z</time>
  <course>6.88</course>
  <speed>0.022360679774997897</speed>
  <fix>3d</fix>
</trkpt>
<trkpt lat="64.1624777" lon="-139.8402246">
  <ele>1109.09</ele>
  <time>2026-09-01T20:02:11Z</time>
  <course>180.78</course>
  <speed>0.0</speed>
  <fix>3d</fix>
</trkpt>
<trkpt lat="64.1624775" lon="-139.8402243">
  <ele>1109.06</ele>
  <time>2026-09-01T20:02:11Z</time>
  <course>6.88</course>
  <speed>0.022360679774997897</speed>
  <fix>3d</fix>
</trkpt>
<trkpt lat="64.1624777" lon="-139.8402246">
  <ele>1109.09</ele>
  <time>2026-09-01T20:02:11Z</time>
  <course>180.78</course>
  <speed>0.0</speed>
  <fix>3d</fix>
</trkpt>
<trkpt lat="64.1624775" lon="-139.8402243">
  <ele>1109.05</ele>
  <time>2026-09-01T20:02:11Z</time>
  <course>6.88</course>
  <speed>0.022360679774997897</speed>
  <fix>3d</fix>
</trkpt>
<trkpt lat="64.1624777" lon="-139.8402246">
  <ele>1109.09</ele>
  <time>2026-09-01T20:02:11Z</time>
  <course>180.78</course>
  <speed>0.0</speed>
  <fix>3d</fix>
</trkpt>
<trkpt lat="64.1624775" lon="-139.8402243">
  <ele>1109.05</ele>
  <time>2026-09-01T20:02:11Z</time>
  <course>6.88</course>
  <speed>0.022360679774997897</speed>
  <fix>3d</fix>
</trkpt>
<trkpt lat="64.1624777" lon="-139.8402246">
  <ele>1109.09</ele>
  <time>2026-09-01T20:02:11Z</time>
  <course>180.78</course>
  <speed>0.0</speed>
  <fix>3d</fix>
</trkpt>
<trkpt lat="64.1624775" lon="-139.8402243">
  <ele>1109.08</ele>
  <time>2026-09-01T20:02:11Z</time>
  <course>6.88</course>
  <speed>0.022360679774997897</speed>
  <fix>3d</fix>
</trkpt>
<trkpt lat="64.1624777" lon="-139.8402246">
  <ele>1109.09</ele>
  <time>2026-09-01T20:02:11Z</time>
  <course>180.78</course>
  <speed>0.0</speed>
  <fix>3d</fix>
</trkpt>
<trkpt lat="64.1624775" lon="-139.8402243">
  <ele>1109.08</ele>
  <time>2026-09-01T20:02:11Z</time>
  <course>6.88</course>
  <speed>0.022360679774997897</speed>
  <fix>3d</fix>
</trkpt>
<trkpt lat="64.1624777" lon="-139.8402246">
  <ele>1109.09</ele>
  <time>2026-09-01T20:02:11Z</time>
  <course>180.78</course>
  <speed>0.0</speed>
  <fix>3d</fix>
</trkpt>
<trkpt lat="64.1624775" lon="-139.8402243">
  <ele>1109.08</ele>
  <time>2026-09-01T20:02:11Z</time>
  <course>6.88</course>
  <speed>0.022360679774997897</speed>
  <fix>3d</fix>
</trkpt>
<trkpt lat="64.1624777" lon="-139.8402246">
  <ele>1109.09</ele>
  <time>2026-09-01T20:02:11Z</time>
  <course>180.78</course>
  <speed>0.0</speed>
  <fix>3d</fix>
</trkpt>
<trkpt lat="64.1624775" lon="-139.8402243">
  <ele>1109.09</ele>
  <time>2026-09-01T20:02:11Z</time>
  <course>6.89</course>
  <speed>0.022360679774997897</speed>
  <fix>3d</fix>
</trkpt>
<trkpt lat="64.1624777" lon="-139.8402246">
  <ele>1109.09</ele>
  <time>2026-09-01T20:02:11Z</time>
  <course>180.78</course>
  <speed>0.0</speed>
  <fix>3d</fix>
</trkpt>
<trkpt lat="64.1624775" lon="-139.8402243">
  <ele>1109.09</ele>
  <time>2026-09-01T20:02:11Z</time>
  <course>6.89</course>
  <speed>0.022360679774997897</speed>
  <fix>3d</fix>
</trkpt>
<trkpt lat="64.1624777" lon="-139.8402246">
  <ele>1109.09</ele>
  <time>2026-09-01T20:02:11Z</time>
  <course>180.78</course>
  <speed>0.0</speed>
  <fix>3d</fix>
</trkpt>
<trkpt lat="64.1624775" lon="-139.8402243">
  <ele>1109.09</ele>
  <time>2026-09-01T20:02:11Z</time>
  <course>6.89</course>
  <speed>0.022360679774997897</speed>
  <fix>3d</fix>
</trkpt>
<trkpt lat="64.1624777" lon="-139.8402246">
  <ele>1109.09</ele>
  <time>2026-09-01T20:02:11Z</time>
  <course>180.78</course>
  <speed>0.0</speed>
  <fix>3d</fix>
</trkpt>
<trkpt lat="64.1624775" lon="-139.8402243">
  <ele>1109.1</ele>
  <time>2026-09-01T20:02:11Z</time>
  <course>6.89</course>
  <speed>0.022360679774997897</speed>
  <fix>3d</fix>
</trkpt>
<trkpt lat="64.1624777" lon="-139.8402246">
  <ele>1109.09</ele>
  <time>2026-09-01T20:02:11Z</time>
  <course>180.78</course>
  <speed>0.0</speed>
  <fix>3d</fix>
</trkpt>
<trkpt lat="64.1624775" lon="-139.8402243">
  <ele>1109.1</ele>
  <time>2026-09-01T20:02:11Z</time>
  <course>6.89</course>
  <speed>0.022360679774997897</speed>
  <fix>3d</fix>
</trkpt>
<trkpt lat="64.1624777" lon="-139.8402246">
  <ele>1109.09</ele>
  <time>2026-09-01T20:02:11Z</time>
  <course>180.78</course>
  <speed>0.0</speed>
  <fix>3d</fix>
</trkpt>
<trkpt lat="64.1624775" lon="-139.8402243">
  <ele>1109.11</ele>
  <time>2026-09-01T20:02:11Z</time>
  <course>6.89</course>
  <speed>0.022360679774997897</speed>
  <fix>3d</fix>
</trkpt>
<trkpt lat="64.1624777" lon="-139.8402246">
  <ele>1109.09</ele>
  <time>2026-09-01T20:02:11Z</time>
  <course>180.78</course>
  <speed>0.0</speed>
  <fix>3d</fix>
</trkpt>
<trkpt lat="64.1624775" lon="-139.8402243">
  <ele>1109.11</ele>
  <time>2026-09-01T20:02:11Z</time>
  <course>6.89</course>
  <speed>0.022360679774997897</speed>
  <fix>3d</fix>
</trkpt>
<trkpt lat="64.1624777" lon="-139.8402246">
  <ele>1109.09</ele>
  <time>2026-09-01T20:02:11Z</time>
  <course>180.78</course>
  <speed>0.0</speed>
  <fix>3d</fix>
</trkpt>
<trkpt lat="64.1624775" lon="-139.8402243">
  <ele>1109.11</ele>
  <time>2026-09-01T20:02:11Z</time>
  <course>6.89</course>
  <speed>0.022360679774997897</speed>
  <fix>3d</fix>
</trkpt>
<trkpt lat="64.1624777" lon="-139.8402246">
  <ele>1109.09</ele>
  <time>2026-09-01T20:02:11Z</time>
  <course>180.78</course>
  <speed>0.0</speed>
  <fix>3d</fix>
</trkpt>
<trkpt lat="64.1624775" lon="-139.8402243">
  <ele>1109.11</ele>
  <time>2026-09-01T20:02:11Z</time>
  <course>6.89</course>
  <speed>0.022360679774997897</speed>
  <fix>3d</fix>
</trkpt>
<trkpt lat="64.1624777" lon="-139.8402246">
  <ele>1109.09</ele>
  <time>2026-09-01T20:02:11Z</time>
  <course>180.78</course>
  <speed>0.0</speed>
  <fix>3d</fix>
</trkpt>
<trkpt lat="64.1624775" lon="-139.8402243">
  <ele>1109.11</ele>
  <time>2026-09-01T20:02:11Z</time>
  <course>6.89</course>
  <speed>0.022360679774997897</speed>
  <fix>3d</fix>
</trkpt>
<trkpt lat="64.1624777" lon="-139.8402246">
  <ele>1109.09</ele>
  <time>2026-09-01T20:02:11Z</time>
  <course>180.78</course>
  <speed>0.0</speed>
  <fix>3d</fix>
</trkpt>
<trkpt lat="64.1624775" lon="-139.8402243">
  <ele>1109.12</ele>
  <time>2026-09-01T20:02:11Z</time>
  <course>6.89</course>
  <speed>0.022360679774997897</speed>
  <fix>3d</fix>
</trkpt>
<trkpt lat="64.1624777" lon="-139.8402246">
  <ele>1109.09</ele>
  <time>2026-09-01T20:02:11Z</time>
  <course>180.78</course>
  <speed>0.0</speed>
  <fix>3d</fix>
</trkpt>
<trkpt lat="64.1624775" lon="-139.8402243">
  <ele>1109.12</ele>
  <time>2026-09-01T20:02:11Z</time>
  <course>6.9</course>
  <speed>0.022360679774997897</speed>
  <fix>3d</fix>
</trkpt>
<trkpt lat="64.1624777" lon="-139.8402246">
  <ele>1109.09</ele>
  <time>2026-09-01T20:02:11Z</time>
  <course>180.78</course>
  <speed>0.0</speed>
  <fix>3d</fix>
</trkpt>
<trkpt lat="64.1624775" lon="-139.8402243">
  <ele>1109.12</ele>
  <time>2026-09-01T20:02:11Z</time>
  <course>6.9</course>
  <speed>0.022360679774997897</speed>
  <fix>3d</fix>
</trkpt>
<trkpt lat="64.1624777" lon="-139.8402246">
  <ele>1109.09</ele>
  <time>2026-09-01T20:02:11Z</time>
  <course>180.78</course>
  <speed>0.0</speed>
  <fix>3d</fix>
</trkpt>
<trkpt lat="64.1624775" lon="-139.8402243">
  <ele>1109.13</ele>
  <time>2026-09-01T20:02:11Z</time>
  <course>6.9</course>
  <speed>0.022360679774997897</speed>
  <fix>3d</fix>
</trkpt>
<trkpt lat="64.1624777" lon="-139.8402246">
  <ele>1109.09</ele>
  <time>2026-09-01T20:02:11Z</time>
  <course>180.78</course>
  <speed>0.0</speed>
  <fix>3d</fix>
</trkpt>
<trkpt lat="64.1624775" lon="-139.8402243">
  <ele>1109.13</ele>
  <time>2026-09-01T20:02:11Z</time>
  <course>6.9</course>
  <speed>0.022360679774997897</speed>
  <fix>3d</fix>
</trkpt>
<trkpt lat="64.1624777" lon="-139.8402246">
  <ele>1109.09</ele>
  <time>2026-09-01T20:02:11Z</time>
  <course>180.78</course>
  <speed>0.0</speed>
  <fix>3d</fix>
</trkpt>
<trkpt lat="64.1624775" lon="-139.8402243">
  <ele>1109.13</ele>
  <time>2026-09-01T20:02:11Z</time>
  <course>6.9</course>
  <speed>0.022360679774997897</speed>
  <fix>3d</fix>
</trkpt>
<trkpt lat="64.1624777" lon="-139.8402246">
  <ele>1109.09</ele>
  <time>2026-09-01T20:02:11Z</time>
  <course>180.78</course>
  <speed>0.0</speed>
  <fix>3d</fix>
</trkpt>
<trkpt lat="64.1624775" lon="-139.8402243">
  <ele>1109.14</ele>
  <time>2026-09-01T20:02:11Z</time>
  <course>6.9</course>
  <speed>0.022360679774997897</speed>
  <fix>3d</fix>
</trkpt>
<trkpt lat="64.1624777" lon="-139.8402246">
  <ele>1109.09</ele>
  <time>2026-09-01T20:02:11Z</time>
  <course>180.78</course>
  <speed>0.0</speed>
  <fix>3d</fix>
</trkpt>
<trkpt lat="64.1624775" lon="-139.8402243">
  <ele>1109.14</ele>
  <time>2026-09-01T20:02:11Z</time>
  <course>6.9</course>
  <speed>0.022360679774997897</speed>
  <fix>3d</fix>
</trkpt>
<trkpt lat="64.1624777" lon="-139.8402246">
  <ele>1109.09</ele>
  <time>2026-09-01T20:02:11Z</time>
  <course>180.78</course>
  <speed>0.0</speed>
  <fix>3d</fix>
</trkpt>
<trkpt lat="64.1624775" lon="-139.8402243">
  <ele>1109.14</ele>
  <time>2026-09-01T20:02:11Z</time>
  <course>6.9</course>
  <speed>0.022360679774997897</speed>
  <fix>3d</fix>
</trkpt>
<trkpt lat="64.1624777" lon="-139.8402246">
  <ele>1109.09</ele>
  <time>2026-09-01T20:02:11Z</time>
  <course>180.78</course>
  <speed>0.0</speed>
  <fix>3d</fix>
</trkpt>
<trkpt lat="64.1624775" lon="-139.8402243">
  <ele>1109.15</ele>
  <time>2026-09-01T20:02:11Z</time>
  <course>6.9</course>
  <speed>0.022360679774997897</speed>
  <fix>3d</fix>
</trkpt>
<trkpt lat="64.1624777" lon="-139.8402246">
  <ele>1109.09</ele>
  <time>2026-09-01T20:02:11Z</time>
  <course>180.78</course>
  <speed>0.0</speed>
  <fix>3d</fix>
</trkpt>
<trkpt lat="64.1624775" lon="-139.8402243">
  <ele>1109.15</ele>
  <time>2026-09-01T20:02:11Z</time>
  <course>6.9</course>
  <speed>0.022360679774997897</speed>
  <fix>3d</fix>
</trkpt>
<trkpt lat="64.1624777" lon="-139.8402246">
  <ele>1109.09</ele>
  <time>2026-09-01T20:02:11Z</time>
  <course>180.78</course>
  <speed>0.0</speed>
  <fix>3d</fix>
</trkpt>
<trkpt lat="64.1624775" lon="-139.8402243">
  <ele>1109.15</ele>
  <time>2026-09-01T20:02:11Z</time>
  <course>6.9</course>
  <speed>0.022360679774997897</speed>
  <fix>3d</fix>
</trkpt>
<trkpt lat="64.1624777" lon="-139.8402246">
  <ele>1109.09</ele>
  <time>2026-09-01T20:02:11Z</time>
  <course>180.78</course>
  <speed>0.0</speed>
  <fix>3d</fix>
</trkpt>
<trkpt lat="64.1624775" lon="-139.8402243">
  <ele>1109.16</ele>
  <time>2026-09-01T20:02:11Z</time>
  <course>6.91</course>
  <speed>0.022360679774997897</speed>
  <fix>3d</fix>
</trkpt>
<trkpt lat="64.1624777" lon="-139.8402246">
  <ele>1109.09</ele>
  <time>2026-09-01T20:02:11Z</time>
  <course>180.78</course>
  <speed>0.0</speed>
  <fix>3d</fix>
</trkpt>
<trkpt lat="64.1624775" lon="-139.8402243">
  <ele>1109.16</ele>
  <time>2026-09-01T20:02:11Z</time>
  <course>6.91</course>
  <speed>0.022360679774997897</speed>
  <fix>3d</fix>
</trkpt>
<trkpt lat="64.1624777" lon="-139.8402246">
  <ele>1109.09</ele>
  <time>2026-09-01T20:02:11Z</time>
  <course>180.78</course>
  <speed>0.0</speed>
  <fix>3d</fix>
</trkpt>
<trkpt lat="64.1624775" lon="-139.8402243">
  <ele>1109.17</ele>
  <time>2026-09-01T20:02:11Z</time>
  <course>6.91</course>
  <speed>0.022360679774997897</speed>
  <fix>3d</fix>
</trkpt>
<trkpt lat="64.1624777" lon="-139.8402246">
  <ele>1109.09</ele>
  <time>2026-09-01T20:02:11Z</time>
  <course>180.78</course>
  <speed>0.0</speed>
  <fix>3d</fix>
</trkpt>
<trkpt lat="64.1624775" lon="-139.8402243">
  <ele>1109.17</ele>
  <time>2026-09-01T20:02:11Z</time>
  <course>6.91</course>
  <speed>0.022360679774997897</speed>
  <fix>3d</fix>
</trkpt>
<trkpt lat="64.1624777" lon="-139.8402246">
  <ele>1109.09</ele>
  <time>2026-09-01T20:02:11Z</time>
  <course>180.78</course>
  <speed>0.0</speed>
  <fix>3d</fix>
</trkpt>
<trkpt lat="64.1624775" lon="-139.8402243">
  <ele>1109.17</ele>
  <time>2026-09-01T20:02:11Z</time>
  <course>6.91</course>
  <speed>0.022360679774997897</speed>
  <fix>3d</fix>
</trkpt>
<trkpt lat="64.1624777" lon="-139.8402246">
  <ele>1109.09</ele>
  <time>2026-09-01T20:02:11Z</time>
  <course>180.78</course>
  <speed>0.0</speed>
  <fix>3d</fix>
</trkpt>
<trkpt lat="64.1624775" lon="-139.8402243">
  <ele>1109.17</ele>
  <time>2026-09-01T20:02:11Z</time>
  <course>6.91</course>
  <speed>0.022360679774997897</speed>
  <fix>3d</fix>
</trkpt>
<trkpt lat="64.1624777" lon="-139.8402246">
  <ele>1109.09</ele>
  <time>2026-09-01T20:02:11Z</time>
  <course>180.78</course>
  <speed>0.0</speed>
  <fix>3d</fix>
</trkpt>
<trkpt lat="64.1624775" lon="-139.8402243">
  <ele>1109.17</ele>
  <time>2026-09-01T20:02:11Z</time>
  <course>6.91</course>
  <speed>0.022360679774997897</speed>
  <fix>3d</fix>
</trkpt>
<trkpt lat="64.1624777" lon="-139.8402246">
  <ele>1109.09</ele>
  <time>2026-09-01T20:02:11Z</time>
  <course>180.78</course>
  <speed>0.0</speed>
  <fix>3d</fix>
</trkpt>
<trkpt lat="64.1624775" lon="-139.8402243">
  <ele>1109.17</ele>
  <time>2026-09-01T20:02:11Z</time>
  <course>6.91</course>
  <speed>0.022360679774997897</speed>
  <fix>3d</fix>
</trkpt>
<trkpt lat="64.1624777" lon="-139.8402246">
  <ele>1109.09</ele>
  <time>2026-09-01T20:02:11Z</time>
  <course>180.78</course>
  <speed>0.0</speed>
  <fix>3d</fix>
</trkpt>
<trkpt lat="64.1624775" lon="-139.8402243">
  <ele>1109.17</ele>
  <time>2026-09-01T20:02:11Z</time>
  <course>6.91</course>
  <speed>0.022360679774997897</speed>
  <fix>3d</fix>
</trkpt>
<trkpt lat="64.1624777" lon="-139.8402246">
  <ele>1109.09</ele>
  <time>2026-09-01T20:02:11Z</time>
  <course>180.78</course>
  <speed>0.0</speed>
  <fix>3d</fix>
</trkpt>
<trkpt lat="64.1624775" lon="-139.8402243">
  <ele>1109.17</ele>
  <time>2026-09-01T20:02:11Z</time>
  <course>6.91</course>
  <speed>0.022360679774997897</speed>
  <fix>3d</fix>
</trkpt>
<trkpt lat="64.1624777" lon="-139.8402246">
  <ele>1109.09</ele>
  <time>2026-09-01T20:02:11Z</time>
  <course>180.78</course>
  <speed>0.0</speed>
  <fix>3d</fix>
</trkpt>
<trkpt lat="64.1624775" lon="-139.8402243">
  <ele>1109.17</ele>
  <time>2026-09-01T20:02:11Z</time>
  <course>6.91</course>
  <speed>0.022360679774997897</speed>
  <fix>3d</fix>
</trkpt>
<trkpt lat="64.1624777" lon="-139.8402246">
  <ele>1109.09</ele>
  <time>2026-09-01T20:02:11Z</time>
  <course>180.78</course>
  <speed>0.0</speed>
  <fix>3d</fix>
</trkpt>
<trkpt lat="64.1624775" lon="-139.8402243">
  <ele>1109.17</ele>
  <time>2026-09-01T20:02:11Z</time>
  <course>6.92</course>
  <speed>0.022360679774997897</speed>
  <fix>3d</fix>
</trkpt>
<trkpt lat="64.1624777" lon="-139.8402246">
  <ele>1109.09</ele>
  <time>2026-09-01T20:02:11Z</time>
  <course>180.78</course>
  <speed>0.0</speed>
  <fix>3d</fix>
</trkpt>
<trkpt lat="64.1624775" lon="-139.8402243">
  <ele>1109.17</ele>
  <time>2026-09-01T20:02:11Z</time>
  <course>6.92</course>
  <speed>0.022360679774997897</speed>
  <fix>3d</fix>
</trkpt>
<trkpt lat="64.1624777" lon="-139.8402246">
  <ele>1109.09</ele>
  <time>2026-09-01T20:02:11Z</time>
  <course>180.78</course>
  <speed>0.0</speed>
  <fix>3d</fix>
</trkpt>
<trkpt lat="64.1624775" lon="-139.8402243">
  <ele>1109.17</ele>
  <time>2026-09-01T20:02:11Z</time>
  <course>6.92</course>
  <speed>0.022360679774997897</speed>
  <fix>3d</fix>
</trkpt>
<trkpt lat="64.1624777" lon="-139.8402246">
  <ele>1109.09</ele>
  <time>2026-09-01T20:02:11Z</time>
  <course>180.78</course>
  <speed>0.0</speed>
  <fix>3d</fix>
</trkpt>
<trkpt lat="64.1624775" lon="-139.8402243">
  <ele>1109.18</ele>
  <time>2026-09-01T20:02:11Z</time>
  <course>6.92</course>
  <speed>0.022360679774997897</speed>
  <fix>3d</fix>
</trkpt>
<trkpt lat="64.1624777" lon="-139.8402246">
  <ele>1109.09</ele>
  <time>2026-09-01T20:02:11Z</time>
  <course>180.78</course>
  <speed>0.0</speed>
  <fix>3d</fix>
</trkpt>
<trkpt lat="64.1624775" lon="-139.8402243">
  <ele>1109.18</ele>
  <time>2026-09-01T20:02:11Z</time>
  <course>6.92</course>
  <speed>0.022360679774997897</speed>
  <fix>3d</fix>
</trkpt>
<trkpt lat="64.1624777" lon="-139.8402246">
  <ele>1109.09</ele>
  <time>2026-09-01T20:02:11Z</time>
  <course>180.78</course>
  <speed>0.0</speed>
  <fix>3d</fix>
</trkpt>
<trkpt lat="64.1624775" lon="-139.8402243">
  <ele>1109.18</ele>
  <time>2026-09-01T20:02:11Z</time>
  <course>6.92</course>
  <speed>0.022360679774997897</speed>
  <fix>3d</fix>
</trkpt>
<trkpt lat="64.1624777" lon="-139.8402246">
  <ele>1109.09</ele>
  <time>2026-09-01T20:02:11Z</time>
  <course>180.78</course>
  <speed>0.0</speed>
  <fix>3d</fix>
</trkpt>
<trkpt lat="64.1624775" lon="-139.8402243">
  <ele>1109.18</ele>
  <time>2026-09-01T20:02:11Z</time>
  <course>6.92</course>
  <speed>0.022360679774997897</speed>
  <fix>3d</fix>
</trkpt>
<trkpt lat="64.1624777" lon="-139.8402246">
  <ele>1109.09</ele>
  <time>2026-09-01T20:02:11Z</time>
  <course>180.78</course>
  <speed>0.0</speed>
  <fix>3d</fix>
</trkpt>
<trkpt lat="64.1624775" lon="-139.8402243">
  <ele>1109.19</ele>
  <time>2026-09-01T20:02:11Z</time>
  <course>6.92</course>
  <speed>0.022360679774997897</speed>
  <fix>3d</fix>
</trkpt>
<trkpt lat="64.1624777" lon="-139.8402246">
  <ele>1109.09</ele>
  <time>2026-09-01T20:02:11Z</time>
  <course>180.78</course>
  <speed>0.0</speed>
  <fix>3d</fix>
</trkpt>
<trkpt lat="64.1624775" lon="-139.8402243">
  <ele>1109.19</ele>
  <time>2026-09-01T20:02:11Z</time>
  <course>6.92</course>
  <speed>0.022360679774997897</speed>
  <fix>3d</fix>
</trkpt>
<trkpt lat="64.1624777" lon="-139.8402246">
  <ele>1109.09</ele>
  <time>2026-09-01T20:02:11Z</time>
  <course>180.78</course>
  <speed>0.0</speed>
  <fix>3d</fix>
</trkpt>
<trkpt lat="64.1624775" lon="-139.8402243">
  <ele>1109.19</ele>
  <time>2026-09-01T20:02:11Z</time>
  <course>6.92</course>
  <speed>0.022360679774997897</speed>
  <fix>3d</fix>
</trkpt>
<trkpt lat="64.1624777" lon="-139.8402246">
  <ele>1109.09</ele>
  <time>2026-09-01T20:02:11Z</time>
  <course>180.78</course>
  <speed>0.0</speed>
  <fix>3d</fix>
</trkpt>
<trkpt lat="64.1624775" lon="-139.8402243">
  <ele>1109.19</ele>
  <time>2026-09-01T20:02:11Z</time>
  <course>6.92</course>
  <speed>0.022360679774997897</speed>
  <fix>3d</fix>
</trkpt>
<trkpt lat="64.1624777" lon="-139.8402246">
  <ele>1109.09</ele>
  <time>2026-09-01T20:02:11Z</time>
  <course>180.78</course>
  <speed>0.0</speed>
  <fix>3d</fix>
</trkpt>
<trkpt lat="64.1624775" lon="-139.8402243">
  <ele>1109.19</ele>
  <time>2026-09-01T20:02:11Z</time>
  <course>6.93</course>
  <speed>0.022360679774997897</speed>
  <fix>3d</fix>
</trkpt>
<trkpt lat="64.1624777" lon="-139.8402246">
  <ele>1109.09</ele>
  <time>2026-09-01T20:02:11Z</time>
  <course>180.78</course>
  <speed>0.0</speed>
  <fix>3d</fix>
</trkpt>
<trkpt lat="64.1624775" lon="-139.8402243">
  <ele>1109.2</ele>
  <time>2026-09-01T20:02:11Z</time>
  <course>6.93</course>
  <speed>0.022360679774997897</speed>
  <fix>3d</fix>
</trkpt>
<trkpt lat="64.1624777" lon="-139.8402246">
  <ele>1109.09</ele>
  <time>2026-09-01T20:02:11Z</time>
  <course>180.78</course>
  <speed>0.0</speed>
  <fix>3d</fix>
</trkpt>
<trkpt lat="64.1624775" lon="-139.8402243">
  <ele>1109.2</ele>
  <time>2026-09-01T20:02:11Z</time>
  <course>6.93</course>
  <speed>0.022360679774997897</speed>
  <fix>3d</fix>
</trkpt>
<trkpt lat="64.1624777" lon="-139.8402246">
  <ele>1109.09</ele>
  <time>2026-09-01T20:02:11Z</time>
  <course>180.78</course>
  <speed>0.0</speed>
  <fix>3d</fix>
</trkpt>
<trkpt lat="64.1624775" lon="-139.8402243">
  <ele>1109.2</ele>
  <time>2026-09-01T20:02:11Z</time>
  <course>6.93</course>
  <speed>0.022360679774997897</speed>
  <fix>3d</fix>
</trkpt>
<trkpt lat="64.1624777" lon="-139.8402246">
  <ele>1109.09</ele>
  <time>2026-09-01T20:02:11Z</time>
  <course>180.78</course>
  <speed>0.0</speed>
  <fix>3d</fix>
</trkpt>
<trkpt lat="64.1624775" lon="-139.8402243">
  <ele>1109.2</ele>
  <time>2026-09-01T20:02:11Z</time>
  <course>6.93</course>
  <speed>0.022360679774997897</speed>
  <fix>3d</fix>
</trkpt>
<trkpt lat="64.1624777" lon="-139.8402246">
  <ele>1109.09</ele>
  <time>2026-09-01T20:02:11Z</time>
  <course>180.78</course>
  <speed>0.0</speed>
  <fix>3d</fix>
</trkpt>
<trkpt lat="64.1624775" lon="-139.8402243">
  <ele>1109.2</ele>
  <time>2026-09-01T20:02:11Z</time>
  <course>6.93</course>
  <speed>0.022360679774997897</speed>
  <fix>3d</fix>
</trkpt>
<trkpt lat="64.1624777" lon="-139.8402246">
  <ele>1109.09</ele>
  <time>2026-09-01T20:02:11Z</time>
  <course>180.78</course>
  <speed>0.0</speed>
  <fix>3d</fix>
</trkpt>
<trkpt lat="64.1624775" lon="-139.8402243">
  <ele>1109.2</ele>
  <time>2026-09-01T20:02:11Z</time>
  <course>6.93</course>
  <speed>0.022360679774997897</speed>
  <fix>3d</fix>
</trkpt>
<trkpt lat="64.1624777" lon="-139.8402246">
  <ele>1109.09</ele>
  <time>2026-09-01T20:02:11Z</time>
  <course>180.78</course>
  <speed>0.0</speed>
  <fix>3d</fix>
</trkpt>
<trkpt lat="64.1624775" lon="-139.8402243">
  <ele>1109.2</ele>
  <time>2026-09-01T20:02:11Z</time>
  <course>6.93</course>
  <speed>0.022360679774997897</speed>
  <fix>3d</fix>
</trkpt>
<trkpt lat="64.1624777" lon="-139.8402246">
  <ele>1109.09</ele>
  <time>2026-09-01T20:02:11Z</time>
  <course>180.78</course>
  <speed>0.0</speed>
  <fix>3d</fix>
</trkpt>
<trkpt lat="64.1624775" lon="-139.8402243">
  <ele>1109.21</ele>
  <time>2026-09-01T20:02:11Z</time>
  <course>6.93</course>
  <speed>0.022360679774997897</speed>
  <fix>3d</fix>
</trkpt>
<trkpt lat="64.1624777" lon="-139.8402246">
  <ele>1109.09</ele>
  <time>2026-09-01T20:02:11Z</time>
  <course>180.78</course>
  <speed>0.0</speed>
  <fix>3d</fix>
</trkpt>
<trkpt lat="64.1624775" lon="-139.8402243">
  <ele>1109.21</ele>
  <time>2026-09-01T20:02:11Z</time>
  <course>6.93</course>
  <speed>0.022360679774997897</speed>
  <fix>3d</fix>
</trkpt>
<trkpt lat="64.1624777" lon="-139.8402246">
  <ele>1109.09</ele>
  <time>2026-09-01T20:02:11Z</time>
  <course>180.78</course>
  <speed>0.0</speed>
  <fix>3d</fix>
</trkpt>
<trkpt lat="64.1624775" lon="-139.8402243">
  <ele>1109.21</ele>
  <time>2026-09-01T20:02:11Z</time>
  <course>6.94</course>
  <speed>0.022360679774997897</speed>
  <fix>3d</fix>
</trkpt>
<trkpt lat="64.1624777" lon="-139.8402246">
  <ele>1109.09</ele>
  <time>2026-09-01T20:02:11Z</time>
  <course>180.78</course>
  <speed>0.0</speed>
  <fix>3d</fix>
</trkpt>
<trkpt lat="64.1624775" lon="-139.8402243">
  <ele>1109.21</ele>
  <time>2026-09-01T20:02:11Z</time>
  <course>6.94</course>
  <speed>0.022360679774997897</speed>
  <fix>3d</fix>
</trkpt>
<trkpt lat="64.1624777" lon="-139.8402246">
  <ele>1109.09</ele>
  <time>2026-09-01T20:02:11Z</time>
  <course>180.78</course>
  <speed>0.0</speed>
  <fix>3d</fix>
</trkpt>
<trkpt lat="64.1624775" lon="-139.8402243">
  <ele>1109.21</ele>
  <time>2026-09-01T20:02:11Z</time>
  <course>6.94</course>
  <speed>0.022360679774997897</speed>
  <fix>3d</fix>
</trkpt>
<trkpt lat="64.1624777" lon="-139.8402246">
  <ele>1109.09</ele>
  <time>2026-09-01T20:02:11Z</time>
  <course>180.78</course>
  <speed>0.0</speed>
  <fix>3d</fix>
</trkpt>
<trkpt lat="64.1624775" lon="-139.8402243">
  <ele>1109.09</ele>
  <time>2026-09-01T20:02:11Z</time>
  <course>6.94</course>
  <speed>0.022360679774997897</speed>
  <fix>3d</fix>
</trkpt>
<trkpt lat="64.1624777" lon="-139.8402246">
  <ele>1109.09</ele>
  <time>2026-09-01T20:02:11Z</time>
  <course>180.78</course>
  <speed>0.0</speed>
  <fix>3d</fix>
</trkpt>
<trkpt lat="64.1624775" lon="-139.8402243">
  <ele>1109.09</ele>
  <time>2026-09-01T20:02:11Z</time>
  <course>6.94</course>
  <speed>0.022360679774997897</speed>
  <fix>3d</fix>
</trkpt>
<trkpt lat="64.1624777" lon="-139.8402246">
  <ele>1109.09</ele>
  <time>2026-09-01T20:02:11Z</time>
  <course>180.78</course>
  <speed>0.0</speed>
  <fix>3d</fix>
</trkpt>
<trkpt lat="64.1624775" lon="-139.8402243">
  <ele>1109.09</ele>
  <time>2026-09-01T20:02:11Z</time>
  <course>6.94</course>
  <speed>0.022360679774997897</speed>
  <fix>3d</fix>
</trkpt>
<trkpt lat="64.1624777" lon="-139.8402246">
  <ele>1109.09</ele>
  <time>2026-09-01T20:02:11Z</time>
  <course>180.78</course>
  <speed>0.0</speed>
  <fix>3d</fix>
</trkpt>
<trkpt lat="64.1624775" lon="-139.8402243">
  <ele>1109.09</ele>
  <time>2026-09-01T20:02:11Z</time>
  <course>6.94</course>
  <speed>0.022360679774997897</speed>
  <fix>3d</fix>
</trkpt>
<trkpt lat="64.1624777" lon="-139.8402246">
  <ele>1109.09</ele>
  <time>2026-09-01T20:02:11Z</time>
  <course>180.78</course>
  <speed>0.0</speed>
  <fix>3d</fix>
</trkpt>
<trkpt lat="64.1624775" lon="-139.8402243">
  <ele>1109.09</ele>
  <time>2026-09-01T20:02:11Z</time>
  <course>6.94</course>
  <speed>0.022360679774997897</speed>
  <fix>3d</fix>
</trkpt>
<trkpt lat="64.1624777" lon="-139.8402246">
  <ele>1109.09</ele>
  <time>2026-09-01T20:02:11Z</time>
  <course>180.78</course>
  <speed>0.0</speed>
  <fix>3d</fix>
</trkpt>
<trkpt lat="64.1624775" lon="-139.8402243">
  <ele>1109.09</ele>
  <time>2026-09-01T20:02:11Z</time>
  <course>6.94</course>
  <speed>0.022360679774997897</speed>
  <fix>3d</fix>
</trkpt>
<trkpt lat="64.1624777" lon="-139.8402246">
  <ele>1109.09</ele>
  <time>2026-09-01T20:02:11Z</time>
  <course>180.78</course>
  <speed>0.0</speed>
  <fix>3d</fix>
</trkpt>
<trkpt lat="64.1624775" lon="-139.8402243">
  <ele>1109.09</ele>
  <time>2026-09-01T20:02:11Z</time>
  <course>6.94</course>
  <speed>0.022360679774997897</speed>
  <fix>3d</fix>
</trkpt>
<trkpt lat="64.1624777" lon="-139.8402246">
  <ele>1109.09</ele>
  <time>2026-09-01T20:02:11Z</time>
  <course>180.78</course>
  <speed>0.0</speed>
  <fix>3d</fix>
</trkpt>
<trkpt lat="64.1624775" lon="-139.8402243">
  <ele>1109.09</ele>
  <time>2026-09-01T20:02:11Z</time>
  <course>6.94</course>
  <speed>0.022360679774997897</speed>
  <fix>3d</fix>
</trkpt>
<trkpt lat="64.1624777" lon="-139.8402246">
  <ele>1109.09</ele>
  <time>2026-09-01T20:02:11Z</time>
  <course>180.78</course>
  <speed>0.0</speed>
  <fix>3d</fix>
</trkpt>
<trkpt lat="64.1624775" lon="-139.8402243">
  <ele>1109.09</ele>
  <time>2026-09-01T20:02:11Z</time>
  <course>6.95</course>
  <speed>0.022360679774997897</speed>
  <fix>3d</fix>
</trkpt>
<trkpt lat="64.1624777" lon="-139.8402246">
  <ele>1109.09</ele>
  <time>2026-09-01T20:02:11Z</time>
  <course>180.78</course>
  <speed>0.0</speed>
  <fix>3d</fix>
</trkpt>
<trkpt lat="64.1624775" lon="-139.8402243">
  <ele>1109.09</ele>
  <time>2026-09-01T20:02:11Z</time>
  <course>6.95</course>
  <speed>0.022360679774997897</speed>
  <fix>3d</fix>
</trkpt>
<trkpt lat="64.1624777" lon="-139.8402246">
  <ele>1109.09</ele>
  <time>2026-09-01T20:02:11Z</time>
  <course>180.78</course>
  <speed>0.0</speed>
  <fix>3d</fix>
</trkpt>
<trkpt lat="64.1624775" lon="-139.8402243">
  <ele>1109.09</ele>
  <time>2026-09-01T20:02:11Z</time>
  <course>6.95</course>
  <speed>0.022360679774997897</speed>
  <fix>3d</fix>
</trkpt>
<trkpt lat="64.1624777" lon="-139.8402246">
  <ele>1109.09</ele>
  <time>2026-09-01T20:02:11Z</time>
  <course>180.78</course>
  <speed>0.0</speed>
  <fix>3d</fix>
</trkpt>
<trkpt lat="64.1624775" lon="-139.8402243">
  <ele>1109.09</ele>
  <time>2026-09-01T20:02:11Z</time>
  <course>6.95</course>
  <speed>0.022360679774997897</speed>
  <fix>3d</fix>
</trkpt>
<trkpt lat="64.1624777" lon="-139.8402246">
  <ele>1109.09</ele>
  <time>2026-09-01T20:02:11Z</time>
  <course>180.78</course>
  <speed>0.0</speed>
  <fix>3d</fix>
</trkpt>
<trkpt lat="64.1624775" lon="-139.8402243">
  <ele>1109.09</ele>
  <time>2026-09-01T20:02:11Z</time>
  <course>6.95</course>
  <speed>0.022360679774997897</speed>
  <fix>3d</fix>
</trkpt>
<trkpt lat="64.1624777" lon="-139.8402246">
  <ele>1109.09</ele>
  <time>2026-09-01T20:02:11Z</time>
  <course>180.78</course>
  <speed>0.0</speed>
  <fix>3d</fix>
</trkpt>
<trkpt lat="64.1624775" lon="-139.8402243">
  <ele>1109.09</ele>
  <time>2026-09-01T20:02:11Z</time>
  <course>6.95</course>
  <speed>0.022360679774997897</speed>
  <fix>3d</fix>
</trkpt>
<trkpt lat="64.1624777" lon="-139.8402246">
  <ele>1109.09</ele>
  <time>2026-09-01T20:02:11Z</time>
  <course>180.78</course>
  <speed>0.0</speed>
  <fix>3d</fix>
</trkpt>
<trkpt lat="64.1624775" lon="-139.8402243">
  <ele>1109.09</ele>
  <time>2026-09-01T20:02:11Z</time>
  <course>6.95</course>
  <speed>0.022360679774997897</speed>
  <fix>3d</fix>
</trkpt>
<trkpt lat="64.1624777" lon="-139.8402246">
  <ele>1109.09</ele>
  <time>2026-09-01T20:02:11Z</time>
  <course>180.78</course>
  <speed>0.0</speed>
  <fix>3d</fix>
</trkpt>
<trkpt lat="64.1624775" lon="-139.8402243">
  <ele>1109.09</ele>
  <time>2026-09-01T20:02:11Z</time>
  <course>6.95</course>
  <speed>0.022360679774997897</speed>
  <fix>3d</fix>
</trkpt>
<trkpt lat="64.1624777" lon="-139.8402246">
  <ele>1109.09</ele>
  <time>2026-09-01T20:02:11Z</time>
  <course>180.78</course>
  <speed>0.0</speed>
  <fix>3d</fix>
</trkpt>
<trkpt lat="64.1624775" lon="-139.8402243">
  <ele>1109.09</ele>
  <time>2026-09-01T20:02:11Z</time>
  <course>6.95</course>
  <speed>0.022360679774997897</speed>
  <fix>3d</fix>
</trkpt>
<trkpt lat="64.1624777" lon="-139.8402246">
  <ele>1109.09</ele>
  <time>2026-09-01T20:02:11Z</time>
  <course>180.78</course>
  <speed>0.0</speed>
  <fix>3d</fix>
</trkpt>
<trkpt lat="64.1624775" lon="-139.8402243">
  <ele>1109.1</ele>
  <time>2026-09-01T20:02:11Z</time>
  <course>6.95</course>
  <speed>0.022360679774997897</speed>
  <fix>3d</fix>
</trkpt>
<trkpt lat="64.1624777" lon="-139.8402246">
  <ele>1109.09</ele>
  <time>2026-09-01T20:02:11Z</time>
  <course>180.78</course>
  <speed>0.0</speed>
  <fix>3d</fix>
</trkpt>
<trkpt lat="64.1624775" lon="-139.8402243">
  <ele>1109.1</ele>
  <time>2026-09-01T20:02:11Z</time>
  <course>6.95</course>
  <speed>0.022360679774997897</speed>
  <fix>3d</fix>
</trkpt>
<trkpt lat="64.1624777" lon="-139.8402246">
  <ele>1109.09</ele>
  <time>2026-09-01T20:02:11Z</time>
  <course>180.78</course>
  <speed>0.0</speed>
  <fix>3d</fix>
</trkpt>
<trkpt lat="64.1624775" lon="-139.8402243">
  <ele>1109.1</ele>
  <time>2026-09-01T20:02:11Z</time>
  <course>6.96</course>
  <speed>0.022360679774997897</speed>
  <fix>3d</fix>
</trkpt>
<trkpt lat="64.1624777" lon="-139.8402246">
  <ele>1109.09</ele>
  <time>2026-09-01T20:02:11Z</time>
  <course>180.78</course>
  <speed>0.0</speed>
  <fix>3d</fix>
</trkpt>
<trkpt lat="64.1624775" lon="-139.8402243">
  <ele>1109.09</ele>
  <time>2026-09-01T20:02:11Z</time>
  <course>6.96</course>
  <speed>0.022360679774997897</speed>
  <fix>3d</fix>
</trkpt>
<trkpt lat="64.1624777" lon="-139.8402246">
  <ele>1109.09</ele>
  <time>2026-09-01T20:02:11Z</time>
  <course>180.78</course>
  <speed>0.0</speed>
  <fix>3d</fix>
</trkpt>
<trkpt lat="64.1624775" lon="-139.8402243">
  <ele>1109.09</ele>
  <time>2026-09-01T20:02:11Z</time>
  <course>6.96</course>
  <speed>0.022360679774997897</speed>
  <fix>3d</fix>
</trkpt>
<trkpt lat="64.1624777" lon="-139.8402246">
  <ele>1109.09</ele>
  <time>2026-09-01T20:02:11Z</time>
  <course>180.78</course>
  <speed>0.0</speed>
  <fix>3d</fix>
</trkpt>
<trkpt lat="64.1624775" lon="-139.8402243">
  <ele>1109.09</ele>
  <time>2026-09-01T20:02:11Z</time>
  <course>6.96</course>
  <speed>0.022360679774997897</speed>
  <fix>3d</fix>
</trkpt>
<trkpt lat="64.1624777" lon="-139.8402246">
  <ele>1109.09</ele>
  <time>2026-09-01T20:02:11Z</time>
  <course>180.78</course>
  <speed>0.0</speed>
  <fix>3d</fix>
</trkpt>
<trkpt lat="64.1624775" lon="-139.8402243">
  <ele>1109.09</ele>
  <time>2026-09-01T20:02:11Z</time>
  <course>6.96</course>
  <speed>0.022360679774997897</speed>
  <fix>3d</fix>
</trkpt>
<trkpt lat="64.1624777" lon="-139.8402246">
  <ele>1109.09</ele>
  <time>2026-09-01T20:02:11Z</time>
  <course>180.78</course>
  <speed>0.0</speed>
  <fix>3d</fix>
</trkpt>
<trkpt lat="64.1624775" lon="-139.8402243">
  <ele>1109.09</ele>
  <time>2026-09-01T20:02:11Z</time>
  <course>6.96</course>
  <speed>0.022360679774997897</speed>
  <fix>3d</fix>
</trkpt>
<trkpt lat="64.1624777" lon="-139.8402246">
  <ele>1109.09</ele>
  <time>2026-09-01T20:02:11Z</time>
  <course>180.78</course>
  <speed>0.0</speed>
  <fix>3d</fix>
</trkpt>
<trkpt lat="64.1624775" lon="-139.8402243">
  <ele>1109.09</ele>
  <time>2026-09-01T20:02:11Z</time>
  <course>6.96</course>
  <speed>0.022360679774997897</speed>
  <fix>3d</fix>
</trkpt>
<trkpt lat="64.1624777" lon="-139.8402246">
  <ele>1109.09</ele>
  <time>2026-09-01T20:02:11Z</time>
  <course>180.78</course>
  <speed>0.0</speed>
  <fix>3d</fix>
</trkpt>
<trkpt lat="64.1624775" lon="-139.8402243">
  <ele>1109.09</ele>
  <time>2026-09-01T20:02:11Z</time>
  <course>6.96</course>
  <speed>0.022360679774997897</speed>
  <fix>3d</fix>
</trkpt>
<trkpt lat="64.1624777" lon="-139.8402246">
  <ele>1109.09</ele>
  <time>2026-09-01T20:02:11Z</time>
  <course>180.78</course>
  <speed>0.0</speed>
  <fix>3d</fix>
</trkpt>
<trkpt lat="64.1624775" lon="-139.8402243">
  <ele>1109.09</ele>
  <time>2026-09-01T20:02:11Z</time>
  <course>6.96</course>
  <speed>0.022360679774997897</speed>
  <fix>3d</fix>
</trkpt>
<trkpt lat="64.1624777" lon="-139.8402246">
  <ele>1109.09</ele>
  <time>2026-09-01T20:02:11Z</time>
  <course>180.78</course>
  <speed>0.0</speed>
  <fix>3d</fix>
</trkpt>
<trkpt lat="64.1624775" lon="-139.8402243">
  <ele>1109.09</ele>
  <time>2026-09-01T20:02:11Z</time>
  <course>6.96</course>
  <speed>0.022360679774997897</speed>
  <fix>3d</fix>
</trkpt>
<trkpt lat="64.1624777" lon="-139.8402246">
  <ele>1109.09</ele>
  <time>2026-09-01T20:02:11Z</time>
  <course>180.78</course>
  <speed>0.0</speed>
  <fix>3d</fix>
</trkpt>
<trkpt lat="64.1624775" lon="-139.8402243">
  <ele>1109.09</ele>
  <time>2026-09-01T20:02:11Z</time>
  <course>6.96</course>
  <speed>0.022360679774997897</speed>
  <fix>3d</fix>
</trkpt>
<trkpt lat="64.1624777" lon="-139.8402246">
  <ele>1109.09</ele>
  <time>2026-09-01T20:02:11Z</time>
  <course>180.78</course>
  <speed>0.0</speed>
  <fix>3d</fix>
</trkpt>
<trkpt lat="64.1624775" lon="-139.8402243">
  <ele>1109.09</ele>
  <time>2026-09-01T20:02:11Z</time>
  <course>6.97</course>
  <speed>0.022360679774997897</speed>
  <fix>3d</fix>
</trkpt>
<trkpt lat="64.1624777" lon="-139.8402246">
  <ele>1109.09</ele>
  <time>2026-09-01T20:02:11Z</time>
  <course>180.78</course>
  <speed>0.0</speed>
  <fix>3d</fix>
</trkpt>
<trkpt lat="64.1624775" lon="-139.8402243">
  <ele>1109.09</ele>
  <time>2026-09-01T20:02:11Z</time>
  <course>6.97</course>
  <speed>0.022360679774997897</speed>
  <fix>3d</fix>
</trkpt>
<trkpt lat="64.1624777" lon="-139.8402246">
  <ele>1109.09</ele>
  <time>2026-09-01T20:02:11Z</time>
  <course>180.78</course>
  <speed>0.0</speed>
  <fix>3d</fix>
</trkpt>
<trkpt lat="64.1624775" lon="-139.8402243">
  <ele>1109.09</ele>
  <time>2026-09-01T20:02:11Z</time>
  <course>6.97</course>
  <speed>0.022360679774997897</speed>
  <fix>3d</fix>
</trkpt>
<trkpt lat="64.1624777" lon="-139.8402246">
  <ele>1109.09</ele>
  <time>2026-09-01T20:02:11Z</time>
  <course>180.78</course>
  <speed>0.0</speed>
  <fix>3d</fix>
</trkpt>
<trkpt lat="64.1624775" lon="-139.8402243">
  <ele>1109.09</ele>
  <time>2026-09-01T20:02:11Z</time>
  <course>6.97</course>
  <speed>0.022360679774997897</speed>
  <fix>3d</fix>
</trkpt>
<trkpt lat="64.1624777" lon="-139.8402246">
  <ele>1109.09</ele>
  <time>2026-09-01T20:02:11Z</time>
  <course>180.78</course>
  <speed>0.0</speed>
  <fix>3d</fix>
</trkpt>
<trkpt lat="64.1624775" lon="-139.8402243">
  <ele>1109.1</ele>
  <time>2026-09-01T20:02:11Z</time>
  <course>6.97</course>
  <speed>0.022360679774997897</speed>
  <fix>3d</fix>
</trkpt>
<trkpt lat="64.1624777" lon="-139.8402246">
  <ele>1109.09</ele>
  <time>2026-09-01T20:02:11Z</time>
  <course>180.78</course>
  <speed>0.0</speed>
  <fix>3d</fix>
</trkpt>
<trkpt lat="64.1624775" lon="-139.8402243">
  <ele>1109.1</ele>
  <time>2026-09-01T20:02:11Z</time>
  <course>6.97</course>
  <speed>0.022360679774997897</speed>
  <fix>3d</fix>
</trkpt>
<trkpt lat="64.1624777" lon="-139.8402246">
  <ele>1109.09</ele>
  <time>2026-09-01T20:02:11Z</time>
  <course>180.78</course>
  <speed>0.0</speed>
  <fix>3d</fix>
</trkpt>
<trkpt lat="64.1624775" lon="-139.8402243">
  <ele>1109.1</ele>
  <time>2026-09-01T20:02:11Z</time>
  <course>6.97</course>
  <speed>0.022360679774997897</speed>
  <fix>3d</fix>
</trkpt>
<trkpt lat="64.1624777" lon="-139.8402246">
  <ele>1109.09</ele>
  <time>2026-09-01T20:02:11Z</time>
  <course>180.78</course>
  <speed>0.0</speed>
  <fix>3d</fix>
</trkpt>
<trkpt lat="64.1624775" lon="-139.8402243">
  <ele>1109.1</ele>
  <time>2026-09-01T20:02:11Z</time>
  <course>6.97</course>
  <speed>0.022360679774997897</speed>
  <fix>3d</fix>
</trkpt>
<trkpt lat="64.1624777" lon="-139.8402246">
  <ele>1109.09</ele>
  <time>2026-09-01T20:02:11Z</time>
  <course>180.78</course>
  <speed>0.0</speed>
  <fix>3d</fix>
</trkpt>
<trkpt lat="64.1624775" lon="-139.8402243">
  <ele>1109.1</ele>
  <time>2026-09-01T20:02:11Z</time>
  <course>6.97</course>
  <speed>0.022360679774997897</speed>
  <fix>3d</fix>
</trkpt>
<trkpt lat="64.1624777" lon="-139.8402246">
  <ele>1109.09</ele>
  <time>2026-09-01T20:02:11Z</time>
  <course>180.78</course>
  <speed>0.0</speed>
  <fix>3d</fix>
</trkpt>
<trkpt lat="64.1624775" lon="-139.8402243">
  <ele>1109.1</ele>
  <time>2026-09-01T20:02:11Z</time>
  <course>6.97</course>
  <speed>0.022360679774997897</speed>
  <fix>3d</fix>
</trkpt>
<trkpt lat="64.1624777" lon="-139.8402246">
  <ele>1109.09</ele>
  <time>2026-09-01T20:02:11Z</time>
  <course>180.78</course>
  <speed>0.0</speed>
  <fix>3d</fix>
</trkpt>
<trkpt lat="64.1624775" lon="-139.8402243">
  <ele>1109.1</ele>
  <time>2026-09-01T20:02:11Z</time>
  <course>6.98</course>
  <speed>0.022360679774997897</speed>
  <fix>3d</fix>
</trkpt>
<trkpt lat="64.1624777" lon="-139.8402246">
  <ele>1109.09</ele>
  <time>2026-09-01T20:02:11Z</time>
  <course>180.78</course>
  <speed>0.0</speed>
  <fix>3d</fix>
</trkpt>
<trkpt lat="64.1624775" lon="-139.8402243">
  <ele>1109.1</ele>
  <time>2026-09-01T20:02:11Z</time>
  <course>6.98</course>
  <speed>0.022360679774997897</speed>
  <fix>3d</fix>
</trkpt>
<trkpt lat="64.1624777" lon="-139.8402246">
  <ele>1109.09</ele>
  <time>2026-09-01T20:02:11Z</time>
  <course>180.78</course>
  <speed>0.0</speed>
  <fix>3d</fix>
</trkpt>
<trkpt lat="64.1624775" lon="-139.8402243">
  <ele>1109.11</ele>
  <time>2026-09-01T20:02:11Z</time>
  <course>6.98</course>
  <speed>0.022360679774997897</speed>
  <fix>3d</fix>
</trkpt>
<trkpt lat="64.1624777" lon="-139.8402246">
  <ele>1109.09</ele>
  <time>2026-09-01T20:02:11Z</time>
  <course>180.78</course>
  <speed>0.0</speed>
  <fix>3d</fix>
</trkpt>
<trkpt lat="64.1624775" lon="-139.8402243">
  <ele>1109.11</ele>
  <time>2026-09-01T20:02:11Z</time>
  <course>6.98</course>
  <speed>0.022360679774997897</speed>
  <fix>3d</fix>
</trkpt>
<trkpt lat="64.1624777" lon="-139.8402246">
  <ele>1109.09</ele>
  <time>2026-09-01T20:02:11Z</time>
  <course>180.78</course>
  <speed>0.0</speed>
  <fix>3d</fix>
</trkpt>
<trkpt lat="64.1624775" lon="-139.8402243">
  <ele>1109.11</ele>
  <time>2026-09-01T20:02:11Z</time>
  <course>6.98</course>
  <speed>0.022360679774997897</speed>
  <fix>3d</fix>
</trkpt>
<trkpt lat="64.1624777" lon="-139.8402246">
  <ele>1109.09</ele>
  <time>2026-09-01T20:02:11Z</time>
  <course>180.78</course>
  <speed>0.0</speed>
  <fix>3d</fix>
</trkpt>
<trkpt lat="64.1624775" lon="-139.8402243">
  <ele>1109.11</ele>
  <time>2026-09-01T20:02:11Z</time>
  <course>6.98</course>
  <speed>0.022360679774997897</speed>
  <fix>3d</fix>
</trkpt>
<trkpt lat="64.1624777" lon="-139.8402246">
  <ele>1109.09</ele>
  <time>2026-09-01T20:02:11Z</time>
  <course>180.78</course>
  <speed>0.0</speed>
  <fix>3d</fix>
</trkpt>
<trkpt lat="64.1624775" lon="-139.8402243">
  <ele>1109.11</ele>
  <time>2026-09-01T20:02:11Z</time>
  <course>6.98</course>
  <speed>0.022360679774997897</speed>
  <fix>3d</fix>
</trkpt>
<trkpt lat="64.1624777" lon="-139.8402246">
  <ele>1109.09</ele>
  <time>2026-09-01T20:02:11Z</time>
  <course>180.78</course>
  <speed>0.0</speed>
  <fix>3d</fix>
</trkpt>
<trkpt lat="64.1624775" lon="-139.8402243">
  <ele>1109.11</ele>
  <time>2026-09-01T20:02:11Z</time>
  <course>6.98</course>
  <speed>0.022360679774997897</speed>
  <fix>3d</fix>
</trkpt>
<trkpt lat="64.1624777" lon="-139.8402246">
  <ele>1109.09</ele>
  <time>2026-09-01T20:02:11Z</time>
  <course>180.78</course>
  <speed>0.0</speed>
  <fix>3d</fix>
</trkpt>
<trkpt lat="64.1624775" lon="-139.8402243">
  <ele>1109.11</ele>
  <time>2026-09-01T20:02:11Z</time>
  <course>6.98</course>
  <speed>0.022360679774997897</speed>
  <fix>3d</fix>
</trkpt>
<trkpt lat="64.1624777" lon="-139.8402246">
  <ele>1109.09</ele>
  <time>2026-09-01T20:02:11Z</time>
  <course>180.78</course>
  <speed>0.0</speed>
  <fix>3d</fix>
</trkpt>
<trkpt lat="64.1624775" lon="-139.8402243">
  <ele>1109.11</ele>
  <time>2026-09-01T20:02:11Z</time>
  <course>6.98</course>
  <speed>0.022360679774997897</speed>
  <fix>3d</fix>
</trkpt>
<trkpt lat="64.1624777" lon="-139.8402246">
  <ele>1109.09</ele>
  <time>2026-09-01T20:02:11Z</time>
  <course>180.78</course>
  <speed>0.0</speed>
  <fix>3d</fix>
</trkpt>
<trkpt lat="64.1624775" lon="-139.8402243">
  <ele>1109.11</ele>
  <time>2026-09-01T20:02:11Z</time>
  <course>6.98</course>
  <speed>0.022360679774997897</speed>
  <fix>3d</fix>
</trkpt>
<trkpt lat="64.1624777" lon="-139.8402246">
  <ele>1109.09</ele>
  <time>2026-09-01T20:02:11Z</time>
  <course>180.78</course>
  <speed>0.0</speed>
  <fix>3d</fix>
</trkpt>
<trkpt lat="64.1624775" lon="-139.8402243">
  <ele>1109.11</ele>
  <time>2026-09-01T20:02:11Z</time>
  <course>6.99</course>
  <speed>0.022360679774997897</speed>
  <fix>3d</fix>
</trkpt>
<trkpt lat="64.1624777" lon="-139.8402246">
  <ele>1109.09</ele>
  <time>2026-09-01T20:02:11Z</time>
  <course>180.78</course>
  <speed>0.0</speed>
  <fix>3d</fix>
</trkpt>
<trkpt lat="64.1624775" lon="-139.8402243">
  <ele>1109.11</ele>
  <time>2026-09-01T20:02:11Z</time>
  <course>6.99</course>
  <speed>0.022360679774997897</speed>
  <fix>3d</fix>
</trkpt>
<trkpt lat="64.1624777" lon="-139.8402246">
  <ele>1109.09</ele>
  <time>2026-09-01T20:02:11Z</time>
  <course>180.78</course>
  <speed>0.0</speed>
  <fix>3d</fix>
</trkpt>
<trkpt lat="64.1624775" lon="-139.8402243">
  <ele>1109.11</ele>
  <time>2026-09-01T20:02:11Z</time>
  <course>6.99</course>
  <speed>0.022360679774997897</speed>
  <fix>3d</fix>
</trkpt>
<trkpt lat="64.1624777" lon="-139.8402246">
  <ele>1109.09</ele>
  <time>2026-09-01T20:02:11Z</time>
  <course>180.78</course>
  <speed>0.0</speed>
  <fix>3d</fix>
</trkpt>
<trkpt lat="64.1624775" lon="-139.8402243">
  <ele>1109.12</ele>
  <time>2026-09-01T20:02:11Z</time>
  <course>6.99</course>
  <speed>0.022360679774997897</speed>
  <fix>3d</fix>
</trkpt>
<trkpt lat="64.1624777" lon="-139.8402246">
  <ele>1109.09</ele>
  <time>2026-09-01T20:02:11Z</time>
  <course>180.78</course>
  <speed>0.0</speed>
  <fix>3d</fix>
</trkpt>
<trkpt lat="64.1624775" lon="-139.8402243">
  <ele>1109.12</ele>
  <time>2026-09-01T20:02:11Z</time>
  <course>6.99</course>
  <speed>0.022360679774997897</speed>
  <fix>3d</fix>
</trkpt>
<trkpt lat="64.1624777" lon="-139.8402246">
  <ele>1109.09</ele>
  <time>2026-09-01T20:02:11Z</time>
  <course>180.78</course>
  <speed>0.0</speed>
  <fix>3d</fix>
</trkpt>
<trkpt lat="64.1624775" lon="-139.8402243">
  <ele>1109.12</ele>
  <time>2026-09-01T20:02:11Z</time>
  <course>6.99</course>
  <speed>0.022360679774997897</speed>
  <fix>3d</fix>
</trkpt>
<trkpt lat="64.1624777" lon="-139.8402246">
  <ele>1109.09</ele>
  <time>2026-09-01T20:02:11Z</time>
  <course>180.78</course>
  <speed>0.0</speed>
  <fix>3d</fix>
</trkpt>
<trkpt lat="64.1624775" lon="-139.8402243">
  <ele>1109.12</ele>
  <time>2026-09-01T20:02:11Z</time>
  <course>6.99</course>
  <speed>0.022360679774997897</speed>
  <fix>3d</fix>
</trkpt>
<trkpt lat="64.1624777" lon="-139.8402246">
  <ele>1109.09</ele>
  <time>2026-09-01T20:02:11Z</time>
  <course>180.78</course>
  <speed>0.0</speed>
  <fix>3d</fix>
</trkpt>
<trkpt lat="64.1624775" lon="-139.8402243">
  <ele>1109.12</ele>
  <time>2026-09-01T20:02:11Z</time>
  <course>6.99</course>
  <speed>0.022360679774997897</speed>
  <fix>3d</fix>
</trkpt>
<trkpt lat="64.1624777" lon="-139.8402246">
  <ele>1109.09</ele>
  <time>2026-09-01T20:02:11Z</time>
  <course>180.78</course>
  <speed>0.0</speed>
  <fix>3d</fix>
</trkpt>
<trkpt lat="64.1624775" lon="-139.8402243">
  <ele>1109.12</ele>
  <time>2026-09-01T20:02:11Z</time>
  <course>6.99</course>
  <speed>0.022360679774997897</speed>
  <fix>3d</fix>
</trkpt>
<trkpt lat="64.1624777" lon="-139.8402246">
  <ele>1109.09</ele>
  <time>2026-09-01T20:02:11Z</time>
  <course>180.78</course>
  <speed>0.0</speed>
  <fix>3d</fix>
</trkpt>
<trkpt lat="64.1624775" lon="-139.8402243">
  <ele>1109.09</ele>
  <time>2026-09-01T20:02:11Z</time>
  <course>6.99</course>
  <speed>0.022360679774997897</speed>
  <fix>3d</fix>
</trkpt>
<trkpt lat="64.1624777" lon="-139.8402246">
  <ele>1109.09</ele>
  <time>2026-09-01T20:02:11Z</time>
  <course>180.78</course>
  <speed>0.0</speed>
  <fix>3d</fix>
</trkpt>
<trkpt lat="64.1624775" lon="-139.8402243">
  <ele>1109.08</ele>
  <time>2026-09-01T20:02:11Z</time>
  <course>6.99</course>
  <speed>0.022360679774997897</speed>
  <fix>3d</fix>
</trkpt>
<trkpt lat="64.1624777" lon="-139.8402246">
  <ele>1109.09</ele>
  <time>2026-09-01T20:02:11Z</time>
  <course>180.78</course>
  <speed>0.0</speed>
  <fix>3d</fix>
</trkpt>
<trkpt lat="64.1624775" lon="-139.8402243">
  <ele>1109.09</ele>
  <time>2026-09-01T20:02:11Z</time>
  <course>7.0</course>
  <speed>0.022360679774997897</speed>
  <fix>3d</fix>
</trkpt>
<trkpt lat="64.1624777" lon="-139.8402246">
  <ele>1109.09</ele>
  <time>2026-09-01T20:02:11Z</time>
  <course>180.78</course>
  <speed>0.0</speed>
  <fix>3d</fix>
</trkpt>
<trkpt lat="64.1624775" lon="-139.8402243">
  <ele>1109.09</ele>
  <time>2026-09-01T20:02:11Z</time>
  <course>7.0</course>
  <speed>0.022360679774997897</speed>
  <fix>3d</fix>
</trkpt>
<trkpt lat="64.1624777" lon="-139.8402246">
  <ele>1109.09</ele>
  <time>2026-09-01T20:02:11Z</time>
  <course>180.78</course>
  <speed>0.0</speed>
  <fix>3d</fix>
</trkpt>
<trkpt lat="64.1624775" lon="-139.8402243">
  <ele>1109.09</ele>
  <time>2026-09-01T20:02:11Z</time>
  <course>7.0</course>
  <speed>0.022360679774997897</speed>
  <fix>3d</fix>
</trkpt>
<trkpt lat="64.1624777" lon="-139.8402246">
  <ele>1109.09</ele>
  <time>2026-09-01T20:02:11Z</time>
  <course>180.78</course>
  <speed>0.0</speed>
  <fix>3d</fix>
</trkpt>
<trkpt lat="64.1624775" lon="-139.8402243">
  <ele>1109.1</ele>
  <time>2026-09-01T20:02:11Z</time>
  <course>7.0</course>
  <speed>0.022360679774997897</speed>
  <fix>3d</fix>
</trkpt>
<trkpt lat="64.1624777" lon="-139.8402246">
  <ele>1109.09</ele>
  <time>2026-09-01T20:02:11Z</time>
  <course>180.78</course>
  <speed>0.0</speed>
  <fix>3d</fix>
</trkpt>
<trkpt lat="64.1624775" lon="-139.8402243">
  <ele>1109.1</ele>
  <time>2026-09-01T20:02:11Z</time>
  <course>7.0</course>
  <speed>0.022360679774997897</speed>
  <fix>3d</fix>
</trkpt>
<trkpt lat="64.1624777" lon="-139.8402246">
  <ele>1109.09</ele>
  <time>2026-09-01T20:02:11Z</time>
  <course>180.78</course>
  <speed>0.0</speed>
  <fix>3d</fix>
</trkpt>
<trkpt lat="64.1624775" lon="-139.8402243">
  <ele>1109.1</ele>
  <time>2026-09-01T20:02:11Z</time>
  <course>7.0</course>
  <speed>0.022360679774997897</speed>
  <fix>3d</fix>
</trkpt>
<trkpt lat="64.1624777" lon="-139.8402246">
  <ele>1109.09</ele>
  <time>2026-09-01T20:02:11Z</time>
  <course>180.78</course>
  <speed>0.0</speed>
  <fix>3d</fix>
</trkpt>
<trkpt lat="64.1624775" lon="-139.8402243">
  <ele>1109.11</ele>
  <time>2026-09-01T20:02:11Z</time>
  <course>7.0</course>
  <speed>0.022360679774997897</speed>
  <fix>3d</fix>
</trkpt>
<trkpt lat="64.1624777" lon="-139.8402246">
  <ele>1109.09</ele>
  <time>2026-09-01T20:02:11Z</time>
  <course>180.78</course>
  <speed>0.0</speed>
  <fix>3d</fix>
</trkpt>
<trkpt lat="64.1624775" lon="-139.8402243">
  <ele>1109.11</ele>
  <time>2026-09-01T20:02:11Z</time>
  <course>7.0</course>
  <speed>0.022360679774997897</speed>
  <fix>3d</fix>
</trkpt>
<trkpt lat="64.1624777" lon="-139.8402246">
  <ele>1109.09</ele>
  <time>2026-09-01T20:02:11Z</time>
  <course>180.78</course>
  <speed>0.0</speed>
  <fix>3d</fix>
</trkpt>
<trkpt lat="64.1624775" lon="-139.8402243">
  <ele>1109.11</ele>
  <time>2026-09-01T20:02:11Z</time>
  <course>7.0</course>
  <speed>0.022360679774997897</speed>
  <fix>3d</fix>
</trkpt>
<trkpt lat="64.1624777" lon="-139.8402246">
  <ele>1109.09</ele>
  <time>2026-09-01T20:02:11Z</time>
  <course>180.78</course>
  <speed>0.0</speed>
  <fix>3d</fix>
</trkpt>
<trkpt lat="64.1624775" lon="-139.8402243">
  <ele>1109.12</ele>
  <time>2026-09-01T20:02:11Z</time>
  <course>7.0</course>
  <speed>0.022360679774997897</speed>
  <fix>3d</fix>
</trkpt>
<trkpt lat="64.1624777" lon="-139.8402246">
  <ele>1109.09</ele>
  <time>2026-09-01T20:02:11Z</time>
  <course>180.78</course>
  <speed>0.0</speed>
  <fix>3d</fix>
</trkpt>
<trkpt lat="64.1624775" lon="-139.8402243">
  <ele>1109.12</ele>
  <time>2026-09-01T20:02:11Z</time>
  <course>7.0</course>
  <speed>0.022360679774997897</speed>
  <fix>3d</fix>
</trkpt>
<trkpt lat="64.1624777" lon="-139.8402246">
  <ele>1109.09</ele>
  <time>2026-09-01T20:02:11Z</time>
  <course>180.78</course>
  <speed>0.0</speed>
  <fix>3d</fix>
</trkpt>
<trkpt lat="64.1624775" lon="-139.8402243">
  <ele>1109.12</ele>
  <time>2026-09-01T20:02:11Z</time>
  <course>7.0</course>
  <speed>0.022360679774997897</speed>
  <fix>3d</fix>
</trkpt>
<trkpt lat="64.1624777" lon="-139.8402246">
  <ele>1109.09</ele>
  <time>2026-09-01T20:02:11Z</time>
  <course>180.78</course>
  <speed>0.0</speed>
  <fix>3d</fix>
</trkpt>
<trkpt lat="64.1624775" lon="-139.8402243">
  <ele>1109.12</ele>
  <time>2026-09-01T20:02:11Z</time>
  <course>7.01</course>
  <speed>0.022360679774997897</speed>
  <fix>3d</fix>
</trkpt>
<trkpt lat="64.1624777" lon="-139.8402246">
  <ele>1109.09</ele>
  <time>2026-09-01T20:02:11Z</time>
  <course>180.78</course>
  <speed>0.0</speed>
  <fix>3d</fix>
</trkpt>
<trkpt lat="64.1624775" lon="-139.8402243">
  <ele>1109.12</ele>
  <time>2026-09-01T20:02:11Z</time>
  <course>7.01</course>
  <speed>0.022360679774997897</speed>
  <fix>3d</fix>
</trkpt>
<trkpt lat="64.1624777" lon="-139.8402246">
  <ele>1109.09</ele>
  <time>2026-09-01T20:02:11Z</time>
  <course>180.78</course>
  <speed>0.0</speed>
  <fix>3d</fix>
</trkpt>
<trkpt lat="64.1624775" lon="-139.8402243">
  <ele>1109.13</ele>
  <time>2026-09-01T20:02:11Z</time>
  <course>7.01</course>
  <speed>0.022360679774997897</speed>
  <fix>3d</fix>
</trkpt>
<trkpt lat="64.1624777" lon="-139.8402246">
  <ele>1109.09</ele>
  <time>2026-09-01T20:02:11Z</time>
  <course>180.78</course>
  <speed>0.0</speed>
  <fix>3d</fix>
</trkpt>
<trkpt lat="64.1624775" lon="-139.8402243">
  <ele>1109.13</ele>
  <time>2026-09-01T20:02:11Z</time>
  <course>7.01</course>
  <speed>0.022360679774997897</speed>
  <fix>3d</fix>
</trkpt>
<trkpt lat="64.1624777" lon="-139.8402246">
  <ele>1109.09</ele>
  <time>2026-09-01T20:02:11Z</time>
  <course>180.78</course>
  <speed>0.0</speed>
  <fix>3d</fix>
</trkpt>
<trkpt lat="64.1624775" lon="-139.8402243">
  <ele>1109.14</ele>
  <time>2026-09-01T20:02:11Z</time>
  <course>7.01</course>
  <speed>0.022360679774997897</speed>
  <fix>3d</fix>
</trkpt>
<trkpt lat="64.1624777" lon="-139.8402246">
  <ele>1109.09</ele>
  <time>2026-09-01T20:02:11Z</time>
  <course>180.78</course>
  <speed>0.0</speed>
  <fix>3d</fix>
</trkpt>
<trkpt lat="64.1624775" lon="-139.8402243">
  <ele>1109.14</ele>
  <time>2026-09-01T20:02:11Z</time>
  <course>7.01</course>
  <speed>0.022360679774997897</speed>
  <fix>3d</fix>
</trkpt>
<trkpt lat="64.1624777" lon="-139.8402246">
  <ele>1109.09</ele>
  <time>2026-09-01T20:02:11Z</time>
  <course>180.78</course>
  <speed>0.0</speed>
  <fix>3d</fix>
</trkpt>
<trkpt lat="64.1624775" lon="-139.8402243">
  <ele>1109.14</ele>
  <time>2026-09-01T20:02:11Z</time>
  <course>7.01</course>
  <speed>0.022360679774997897</speed>
  <fix>3d</fix>
</trkpt>
<trkpt lat="64.1624777" lon="-139.8402246">
  <ele>1109.09</ele>
  <time>2026-09-01T20:02:11Z</time>
  <course>180.78</course>
  <speed>0.0</speed>
  <fix>3d</fix>
</trkpt>
<trkpt lat="64.1624775" lon="-139.8402243">
  <ele>1109.15</ele>
  <time>2026-09-01T20:02:11Z</time>
  <course>7.01</course>
  <speed>0.022360679774997897</speed>
  <fix>3d</fix>
</trkpt>
<trkpt lat="64.1624777" lon="-139.8402246">
  <ele>1109.09</ele>
  <time>2026-09-01T20:02:11Z</time>
  <course>180.78</course>
  <speed>0.0</speed>
  <fix>3d</fix>
</trkpt>
<trkpt lat="64.1624775" lon="-139.8402243">
  <ele>1109.15</ele>
  <time>2026-09-01T20:02:11Z</time>
  <course>7.01</course>
  <speed>0.022360679774997897</speed>
  <fix>3d</fix>
</trkpt>
<trkpt lat="64.1624777" lon="-139.8402246">
  <ele>1109.09</ele>
  <time>2026-09-01T20:02:11Z</time>
  <course>180.78</course>
  <speed>0.0</speed>
  <fix>3d</fix>
</trkpt>
<trkpt lat="64.1624775" lon="-139.8402243">
  <ele>1109.15</ele>
  <time>2026-09-01T20:02:11Z</time>
  <course>7.01</course>
  <speed>0.022360679774997897</speed>
  <fix>3d</fix>
</trkpt>
<trkpt lat="64.1624777" lon="-139.8402246">
  <ele>1109.09</ele>
  <time>2026-09-01T20:02:11Z</time>
  <course>180.78</course>
  <speed>0.0</speed>
  <fix>3d</fix>
</trkpt>
<trkpt lat="64.1624775" lon="-139.8402243">
  <ele>1109.16</ele>
  <time>2026-09-01T20:02:11Z</time>
  <course>7.01</course>
  <speed>0.022360679774997897</speed>
  <fix>3d</fix>
</trkpt>
<trkpt lat="64.1624777" lon="-139.8402246">
  <ele>1109.09</ele>
  <time>2026-09-01T20:02:11Z</time>
  <course>180.78</course>
  <speed>0.0</speed>
  <fix>3d</fix>
</trkpt>
<trkpt lat="64.1624775" lon="-139.8402243">
  <ele>1109.16</ele>
  <time>2026-09-01T20:02:11Z</time>
  <course>7.02</course>
  <speed>0.022360679774997897</speed>
  <fix>3d</fix>
</trkpt>
<trkpt lat="64.1624777" lon="-139.8402246">
  <ele>1109.09</ele>
  <time>2026-09-01T20:02:11Z</time>
  <course>180.78</course>
  <speed>0.0</speed>
  <fix>3d</fix>
</trkpt>
<trkpt lat="64.1624775" lon="-139.8402243">
  <ele>1109.16</ele>
  <time>2026-09-01T20:02:11Z</time>
  <course>7.02</course>
  <speed>0.022360679774997897</speed>
  <fix>3d</fix>
</trkpt>
<trkpt lat="64.1624777" lon="-139.8402246">
  <ele>1109.09</ele>
  <time>2026-09-01T20:02:11Z</time>
  <course>180.78</course>
  <speed>0.0</speed>
  <fix>3d</fix>
</trkpt>
<trkpt lat="64.1624775" lon="-139.8402243">
  <ele>1109.17</ele>
  <time>2026-09-01T20:02:11Z</time>
  <course>7.02</course>
  <speed>0.022360679774997897</speed>
  <fix>3d</fix>
</trkpt>
<trkpt lat="64.1624777" lon="-139.8402246">
  <ele>1109.09</ele>
  <time>2026-09-01T20:02:11Z</time>
  <course>180.78</course>
  <speed>0.0</speed>
  <fix>3d</fix>
</trkpt>
<trkpt lat="64.1624775" lon="-139.8402243">
  <ele>1109.17</ele>
  <time>2026-09-01T20:02:11Z</time>
  <course>7.02</course>
  <speed>0.022360679774997897</speed>
  <fix>3d</fix>
</trkpt>
<trkpt lat="64.1624777" lon="-139.8402246">
  <ele>1109.09</ele>
  <time>2026-09-01T20:02:11Z</time>
  <course>180.78</course>
  <speed>0.0</speed>
  <fix>3d</fix>
</trkpt>
<trkpt lat="64.1624775" lon="-139.8402243">
  <ele>1109.17</ele>
  <time>2026-09-01T20:02:12Z</time>
  <course>7.02</course>
  <speed>0.022360679774997897</speed>
  <fix>3d</fix>
</trkpt>
<trkpt lat="64.1624777" lon="-139.8402246">
  <ele>1109.09</ele>
  <time>2026-09-01T20:02:12Z</time>
  <course>180.78</course>
  <speed>0.0</speed>
  <fix>3d</fix>
</trkpt>
<trkpt lat="64.1624775" lon="-139.8402243">
  <ele>1109.18</ele>
  <time>2026-09-01T20:02:12Z</time>
  <course>7.02</course>
  <speed>0.022360679774997897</speed>
  <fix>3d</fix>
</trkpt>
<trkpt lat="64.1624777" lon="-139.8402246">
  <ele>1109.09</ele>
  <time>2026-09-01T20:02:12Z</time>
  <course>180.78</course>
  <speed>0.0</speed>
  <fix>3d</fix>
</trkpt>
<trkpt lat="64.1624775" lon="-139.8402243">
  <ele>1109.18</ele>
  <time>2026-09-01T20:02:12Z</time>
  <course>7.02</course>
  <speed>0.022360679774997897</speed>
  <fix>3d</fix>
</trkpt>
<trkpt lat="64.1624777" lon="-139.8402246">
  <ele>1109.09</ele>
  <time>2026-09-01T20:02:12Z</time>
  <course>180.78</course>
  <speed>0.0</speed>
  <fix>3d</fix>
</trkpt>
<trkpt lat="64.1624775" lon="-139.8402243">
  <ele>1109.18</ele>
  <time>2026-09-01T20:02:12Z</time>
  <course>7.02</course>
  <speed>0.022360679774997897</speed>
  <fix>3d</fix>
</trkpt>
<trkpt lat="64.1624777" lon="-139.8402246">
  <ele>1109.09</ele>
  <time>2026-09-01T20:02:12Z</time>
  <course>180.78</course>
  <speed>0.0</speed>
  <fix>3d</fix>
</trkpt>
<trkpt lat="64.1624775" lon="-139.8402243">
  <ele>1109.19</ele>
  <time>2026-09-01T20:02:12Z</time>
  <course>7.02</course>
  <speed>0.022360679774997897</speed>
  <fix>3d</fix>
</trkpt>
<trkpt lat="64.1624777" lon="-139.8402246">
  <ele>1109.09</ele>
  <time>2026-09-01T20:02:12Z</time>
  <course>180.78</course>
  <speed>0.0</speed>
  <fix>3d</fix>
</trkpt>
<trkpt lat="64.1624775" lon="-139.8402243">
  <ele>1109.19</ele>
  <time>2026-09-01T20:02:12Z</time>
  <course>7.02</course>
  <speed>0.022360679774997897</speed>
  <fix>3d</fix>
</trkpt>
<trkpt lat="64.1624777" lon="-139.8402246">
  <ele>1109.09</ele>
  <time>2026-09-01T20:02:12Z</time>
  <course>180.78</course>
  <speed>0.0</speed>
  <fix>3d</fix>
</trkpt>
<trkpt lat="64.1624775" lon="-139.8402243">
  <ele>1109.2</ele>
  <time>2026-09-01T20:02:12Z</time>
  <course>7.02</course>
  <speed>0.022360679774997897</speed>
  <fix>3d</fix>
</trkpt>
<trkpt lat="64.1624777" lon="-139.8402246">
  <ele>1109.09</ele>
  <time>2026-09-01T20:02:12Z</time>
  <course>180.78</course>
  <speed>0.0</speed>
  <fix>3d</fix>
</trkpt>
<trkpt lat="64.1624775" lon="-139.8402243">
  <ele>1109.2</ele>
  <time>2026-09-01T20:02:12Z</time>
  <course>7.02</course>
  <speed>0.022360679774997897</speed>
  <fix>3d</fix>
</trkpt>
<trkpt lat="64.1624777" lon="-139.8402246">
  <ele>1109.09</ele>
  <time>2026-09-01T20:02:12Z</time>
  <course>180.78</course>
  <speed>0.0</speed>
  <fix>3d</fix>
</trkpt>
<trkpt lat="64.1624775" lon="-139.8402243">
  <ele>1109.2</ele>
  <time>2026-09-01T20:02:12Z</time>
  <course>7.03</course>
  <speed>0.022360679774997897</speed>
  <fix>3d</fix>
</trkpt>
<trkpt lat="64.1624777" lon="-139.8402246">
  <ele>1109.09</ele>
  <time>2026-09-01T20:02:12Z</time>
  <course>180.78</course>
  <speed>0.0</speed>
  <fix>3d</fix>
</trkpt>
<trkpt lat="64.1624775" lon="-139.8402243">
  <ele>1109.21</ele>
  <time>2026-09-01T20:02:12Z</time>
  <course>7.03</course>
  <speed>0.022360679774997897</speed>
  <fix>3d</fix>
</trkpt>
<trkpt lat="64.1624777" lon="-139.8402246">
  <ele>1109.09</ele>
  <time>2026-09-01T20:02:12Z</time>
  <course>180.78</course>
  <speed>0.0</speed>
  <fix>3d</fix>
</trkpt>
<trkpt lat="64.1624775" lon="-139.8402243">
  <ele>1109.21</ele>
  <time>2026-09-01T20:02:12Z</time>
  <course>7.03</course>
  <speed>0.022360679774997897</speed>
  <fix>3d</fix>
</trkpt>
<trkpt lat="64.1624777" lon="-139.8402246">
  <ele>1109.09</ele>
  <time>2026-09-01T20:02:12Z</time>
  <course>180.78</course>
  <speed>0.0</speed>
  <fix>3d</fix>
</trkpt>
<trkpt lat="64.1624775" lon="-139.8402243">
  <ele>1109.22</ele>
  <time>2026-09-01T20:02:12Z</time>
  <course>7.03</course>
  <speed>0.022360679774997897</speed>
  <fix>3d</fix>
</trkpt>
<trkpt lat="64.1624777" lon="-139.8402246">
  <ele>1109.09</ele>
  <time>2026-09-01T20:02:12Z</time>
  <course>180.78</course>
  <speed>0.0</speed>
  <fix>3d</fix>
</trkpt>
<trkpt lat="64.1624775" lon="-139.8402243">
  <ele>1109.23</ele>
  <time>2026-09-01T20:02:12Z</time>
  <course>7.03</course>
  <speed>0.022360679774997897</speed>
  <fix>3d</fix>
</trkpt>
<trkpt lat="64.1624777" lon="-139.8402246">
  <ele>1109.09</ele>
  <time>2026-09-01T20:02:12Z</time>
  <course>180.78</course>
  <speed>0.0</speed>
  <fix>3d</fix>
</trkpt>
<trkpt lat="64.1624775" lon="-139.8402243">
  <ele>1109.23</ele>
  <time>2026-09-01T20:02:12Z</time>
  <course>7.03</course>
  <speed>0.022360679774997897</speed>
  <fix>3d</fix>
</trkpt>
<trkpt lat="64.1624777" lon="-139.8402246">
  <ele>1109.09</ele>
  <time>2026-09-01T20:02:12Z</time>
  <course>180.78</course>
  <speed>0.0</speed>
  <fix>3d</fix>
</trkpt>
<trkpt lat="64.1624775" lon="-139.8402243">
  <ele>1109.23</ele>
  <time>2026-09-01T20:02:12Z</time>
  <course>7.03</course>
  <speed>0.022360679774997897</speed>
  <fix>3d</fix>
</trkpt>
<trkpt lat="64.1624777" lon="-139.8402246">
  <ele>1109.09</ele>
  <time>2026-09-01T20:02:12Z</time>
  <course>180.78</course>
  <speed>0.0</speed>
  <fix>3d</fix>
</trkpt>
<trkpt lat="64.1624775" lon="-139.8402243">
  <ele>1109.24</ele>
  <time>2026-09-01T20:02:12Z</time>
  <course>7.03</course>
  <speed>0.022360679774997897</speed>
  <fix>3d</fix>
</trkpt>
<trkpt lat="64.1624777" lon="-139.8402246">
  <ele>1109.09</ele>
  <time>2026-09-01T20:02:12Z</time>
  <course>180.78</course>
  <speed>0.0</speed>
  <fix>3d</fix>
</trkpt>
<trkpt lat="64.1624775" lon="-139.8402243">
  <ele>1109.24</ele>
  <time>2026-09-01T20:02:12Z</time>
  <course>7.03</course>
  <speed>0.022360679774997897</speed>
  <fix>3d</fix>
</trkpt>
<trkpt lat="64.1624777" lon="-139.8402246">
  <ele>1109.09</ele>
  <time>2026-09-01T20:02:12Z</time>
  <course>180.78</course>
  <speed>0.0</speed>
  <fix>3d</fix>
</trkpt>
<trkpt lat="64.1624775" lon="-139.8402243">
  <ele>1109.25</ele>
  <time>2026-09-01T20:02:12Z</time>
  <course>7.03</course>
  <speed>0.022360679774997897</speed>
  <fix>3d</fix>
</trkpt>
<trkpt lat="64.1624777" lon="-139.8402246">
  <ele>1109.09</ele>
  <time>2026-09-01T20:02:12Z</time>
  <course>180.78</course>
  <speed>0.0</speed>
  <fix>3d</fix>
</trkpt>
<trkpt lat="64.1624775" lon="-139.8402243">
  <ele>1109.25</ele>
  <time>2026-09-01T20:02:12Z</time>
  <course>7.03</course>
  <speed>0.022360679774997897</speed>
  <fix>3d</fix>
</trkpt>
<trkpt lat="64.1624777" lon="-139.8402246">
  <ele>1109.09</ele>
  <time>2026-09-01T20:02:12Z</time>
  <course>180.78</course>
  <speed>0.0</speed>
  <fix>3d</fix>
</trkpt>
<trkpt lat="64.1624775" lon="-139.8402243">
  <ele>1109.25</ele>
  <time>2026-09-01T20:02:12Z</time>
  <course>7.04</course>
  <speed>0.022360679774997897</speed>
  <fix>3d</fix>
</trkpt>
<trkpt lat="64.1624777" lon="-139.8402246">
  <ele>1109.09</ele>
  <time>2026-09-01T20:02:12Z</time>
  <course>180.78</course>
  <speed>0.0</speed>
  <fix>3d</fix>
</trkpt>
<trkpt lat="64.1624775" lon="-139.8402243">
  <ele>1109.25</ele>
  <time>2026-09-01T20:02:12Z</time>
  <course>7.04</course>
  <speed>0.022360679774997897</speed>
  <fix>3d</fix>
</trkpt>
<trkpt lat="64.1624777" lon="-139.8402246">
  <ele>1109.09</ele>
  <time>2026-09-01T20:02:12Z</time>
  <course>180.78</course>
  <speed>0.0</speed>
  <fix>3d</fix>
</trkpt>
<trkpt lat="64.1624775" lon="-139.8402243">
  <ele>1109.25</ele>
  <time>2026-09-01T20:02:12Z</time>
  <course>7.04</course>
  <speed>0.022360679774997897</speed>
  <fix>3d</fix>
</trkpt>
<trkpt lat="64.1624777" lon="-139.8402246">
  <ele>1109.09</ele>
  <time>2026-09-01T20:02:12Z</time>
  <course>180.78</course>
  <speed>0.0</speed>
  <fix>3d</fix>
</trkpt>
<trkpt lat="64.1624775" lon="-139.8402243">
  <ele>1109.25</ele>
  <time>2026-09-01T20:02:12Z</time>
  <course>7.04</course>
  <speed>0.022360679774997897</speed>
  <fix>3d</fix>
</trkpt>
<trkpt lat="64.1624777" lon="-139.8402246">
  <ele>1109.09</ele>
  <time>2026-09-01T20:02:12Z</time>
  <course>180.78</course>
  <speed>0.0</speed>
  <fix>3d</fix>
</trkpt>
<trkpt lat="64.1624775" lon="-139.8402243">
  <ele>1109.25</ele>
  <time>2026-09-01T20:02:12Z</time>
  <course>7.04</course>
  <speed>0.022360679774997897</speed>
  <fix>3d</fix>
</trkpt>
<trkpt lat="64.1624777" lon="-139.8402246">
  <ele>1109.09</ele>
  <time>2026-09-01T20:02:12Z</time>
  <course>180.78</course>
  <speed>0.0</speed>
  <fix>3d</fix>
</trkpt>
<trkpt lat="64.1624775" lon="-139.8402243">
  <ele>1109.25</ele>
  <time>2026-09-01T20:02:12Z</time>
  <course>7.04</course>
  <speed>0.022360679774997897</speed>
  <fix>3d</fix>
</trkpt>
<trkpt lat="64.1624777" lon="-139.8402246">
  <ele>1109.09</ele>
  <time>2026-09-01T20:02:12Z</time>
  <course>180.78</course>
  <speed>0.0</speed>
  <fix>3d</fix>
</trkpt>
<trkpt lat="64.1624775" lon="-139.8402243">
  <ele>1109.25</ele>
  <time>2026-09-01T20:02:12Z</time>
  <course>7.04</course>
  <speed>0.022360679774997897</speed>
  <fix>3d</fix>
</trkpt>
<trkpt lat="64.1624777" lon="-139.8402246">
  <ele>1109.09</ele>
  <time>2026-09-01T20:02:12Z</time>
  <course>180.78</course>
  <speed>0.0</speed>
  <fix>3d</fix>
</trkpt>
<trkpt lat="64.1624775" lon="-139.8402243">
  <ele>1109.25</ele>
  <time>2026-09-01T20:02:12Z</time>
  <course>7.04</course>
  <speed>0.022360679774997897</speed>
  <fix>3d</fix>
</trkpt>
<trkpt lat="64.1624777" lon="-139.8402246">
  <ele>1109.09</ele>
  <time>2026-09-01T20:02:12Z</time>
  <course>180.78</course>
  <speed>0.0</speed>
  <fix>3d</fix>
</trkpt>
<trkpt lat="64.1624775" lon="-139.8402243">
  <ele>1109.25</ele>
  <time>2026-09-01T20:02:12Z</time>
  <course>7.04</course>
  <speed>0.022360679774997897</speed>
  <fix>3d</fix>
</trkpt>
<trkpt lat="64.1624777" lon="-139.8402246">
  <ele>1109.09</ele>
  <time>2026-09-01T20:02:12Z</time>
  <course>180.78</course>
  <speed>0.0</speed>
  <fix>3d</fix>
</trkpt>
<trkpt lat="64.1624775" lon="-139.8402243">
  <ele>1109.25</ele>
  <time>2026-09-01T20:02:12Z</time>
  <course>7.04</course>
  <speed>0.022360679774997897</speed>
  <fix>3d</fix>
</trkpt>
<trkpt lat="64.1624777" lon="-139.8402246">
  <ele>1109.09</ele>
  <time>2026-09-01T20:02:12Z</time>
  <course>180.78</course>
  <speed>0.0</speed>
  <fix>3d</fix>
</trkpt>
<trkpt lat="64.1624775" lon="-139.8402243">
  <ele>1109.25</ele>
  <time>2026-09-01T20:02:12Z</time>
  <course>7.04</course>
  <speed>0.022360679774997897</speed>
  <fix>3d</fix>
</trkpt>
<trkpt lat="64.1624777" lon="-139.8402246">
  <ele>1109.09</ele>
  <time>2026-09-01T20:02:12Z</time>
  <course>180.78</course>
  <speed>0.0</speed>
  <fix>3d</fix>
</trkpt>
<trkpt lat="64.1624775" lon="-139.8402243">
  <ele>1109.26</ele>
  <time>2026-09-01T20:02:12Z</time>
  <course>7.04</course>
  <speed>0.022360679774997897</speed>
  <fix>3d</fix>
</trkpt>
<trkpt lat="64.1624777" lon="-139.8402246">
  <ele>1109.09</ele>
  <time>2026-09-01T20:02:12Z</time>
  <course>180.78</course>
  <speed>0.0</speed>
  <fix>3d</fix>
</trkpt>
<trkpt lat="64.1624775" lon="-139.8402243">
  <ele>1109.09</ele>
  <time>2026-09-01T20:02:12Z</time>
  <course>7.04</course>
  <speed>0.022360679774997897</speed>
  <fix>3d</fix>
</trkpt>
<trkpt lat="64.1624777" lon="-139.8402246">
  <ele>1109.09</ele>
  <time>2026-09-01T20:02:12Z</time>
  <course>180.78</course>
  <speed>0.0</speed>
  <fix>3d</fix>
</trkpt>
<trkpt lat="64.1624775" lon="-139.8402243">
  <ele>1109.09</ele>
  <time>2026-09-01T20:02:12Z</time>
  <course>7.04</course>
  <speed>0.022360679774997897</speed>
  <fix>3d</fix>
</trkpt>
<trkpt lat="64.1624777" lon="-139.8402246">
  <ele>1109.09</ele>
  <time>2026-09-01T20:02:12Z</time>
  <course>180.78</course>
  <speed>0.0</speed>
  <fix>3d</fix>
</trkpt>
<trkpt lat="64.1624775" lon="-139.8402243">
  <ele>1109.09</ele>
  <time>2026-09-01T20:02:12Z</time>
  <course>7.05</course>
  <speed>0.022360679774997897</speed>
  <fix>3d</fix>
</trkpt>
<trkpt lat="64.1624777" lon="-139.8402246">
  <ele>1109.09</ele>
  <time>2026-09-01T20:02:12Z</time>
  <course>180.78</course>
  <speed>0.0</speed>
  <fix>3d</fix>
</trkpt>
<trkpt lat="64.1624775" lon="-139.8402243">
  <ele>1109.09</ele>
  <time>2026-09-01T20:02:12Z</time>
  <course>7.05</course>
  <speed>0.022360679774997897</speed>
  <fix>3d</fix>
</trkpt>
<trkpt lat="64.1624777" lon="-139.8402246">
  <ele>1109.09</ele>
  <time>2026-09-01T20:02:12Z</time>
  <course>180.78</course>
  <speed>0.0</speed>
  <fix>3d</fix>
</trkpt>
<trkpt lat="64.1624775" lon="-139.8402243">
  <ele>1109.09</ele>
  <time>2026-09-01T20:02:12Z</time>
  <course>7.05</course>
  <speed>0.022360679774997897</speed>
  <fix>3d</fix>
</trkpt>
<trkpt lat="64.1624777" lon="-139.8402246">
  <ele>1109.09</ele>
  <time>2026-09-01T20:02:12Z</time>
  <course>180.78</course>
  <speed>0.0</speed>
  <fix>3d</fix>
</trkpt>
<trkpt lat="64.1624775" lon="-139.8402243">
  <ele>1109.09</ele>
  <time>2026-09-01T20:02:12Z</time>
  <course>7.05</course>
  <speed>0.022360679774997897</speed>
  <fix>3d</fix>
</trkpt>
<trkpt lat="64.1624777" lon="-139.8402246">
  <ele>1109.09</ele>
  <time>2026-09-01T20:02:12Z</time>
  <course>180.78</course>
  <speed>0.0</speed>
  <fix>3d</fix>
</trkpt>
<trkpt lat="64.1624775" lon="-139.8402243">
  <ele>1109.1</ele>
  <time>2026-09-01T20:02:12Z</time>
  <course>7.05</course>
  <speed>0.022360679774997897</speed>
  <fix>3d</fix>
</trkpt>
<trkpt lat="64.1624777" lon="-139.8402246">
  <ele>1109.09</ele>
  <time>2026-09-01T20:02:12Z</time>
  <course>180.78</course>
  <speed>0.0</speed>
  <fix>3d</fix>
</trkpt>
<trkpt lat="64.1624775" lon="-139.8402243">
  <ele>1109.1</ele>
  <time>2026-09-01T20:02:12Z</time>
  <course>7.05</course>
  <speed>0.022360679774997897</speed>
  <fix>3d</fix>
</trkpt>
<trkpt lat="64.1624777" lon="-139.8402246">
  <ele>1109.09</ele>
  <time>2026-09-01T20:02:12Z</time>
  <course>180.78</course>
  <speed>0.0</speed>
  <fix>3d</fix>
</trkpt>
<trkpt lat="64.1624775" lon="-139.8402243">
  <ele>1109.1</ele>
  <time>2026-09-01T20:02:12Z</time>
  <course>7.05</course>
  <speed>0.022360679774997897</speed>
  <fix>3d</fix>
</trkpt>
<trkpt lat="64.1624777" lon="-139.8402246">
  <ele>1109.09</ele>
  <time>2026-09-01T20:02:12Z</time>
  <course>180.78</course>
  <speed>0.0</speed>
  <fix>3d</fix>
</trkpt>
<trkpt lat="64.1624775" lon="-139.8402243">
  <ele>1109.11</ele>
  <time>2026-09-01T20:02:12Z</time>
  <course>7.05</course>
  <speed>0.022360679774997897</speed>
  <fix>3d</fix>
</trkpt>
<trkpt lat="64.1624777" lon="-139.8402246">
  <ele>1109.09</ele>
  <time>2026-09-01T20:02:12Z</time>
  <course>180.78</course>
  <speed>0.0</speed>
  <fix>3d</fix>
</trkpt>
<trkpt lat="64.1624775" lon="-139.8402243">
  <ele>1109.11</ele>
  <time>2026-09-01T20:02:12Z</time>
  <course>7.05</course>
  <speed>0.022360679774997897</speed>
  <fix>3d</fix>
</trkpt>
<trkpt lat="64.1624777" lon="-139.8402246">
  <ele>1109.09</ele>
  <time>2026-09-01T20:02:12Z</time>
  <course>180.78</course>
  <speed>0.0</speed>
  <fix>3d</fix>
</trkpt>
<trkpt lat="64.1624775" lon="-139.8402243">
  <ele>1109.11</ele>
  <time>2026-09-01T20:02:12Z</time>
  <course>7.05</course>
  <speed>0.022360679774997897</speed>
  <fix>3d</fix>
</trkpt>
<trkpt lat="64.1624777" lon="-139.8402246">
  <ele>1109.09</ele>
  <time>2026-09-01T20:02:12Z</time>
  <course>180.78</course>
  <speed>0.0</speed>
  <fix>3d</fix>
</trkpt>
<trkpt lat="64.1624775" lon="-139.8402243">
  <ele>1109.12</ele>
  <time>2026-09-01T20:02:12Z</time>
  <course>7.05</course>
  <speed>0.022360679774997897</speed>
  <fix>3d</fix>
</trkpt>
<trkpt lat="64.1624777" lon="-139.8402246">
  <ele>1109.09</ele>
  <time>2026-09-01T20:02:12Z</time>
  <course>180.78</course>
  <speed>0.0</speed>
  <fix>3d</fix>
</trkpt>
<trkpt lat="64.1624775" lon="-139.8402243">
  <ele>1109.12</ele>
  <time>2026-09-01T20:02:12Z</time>
  <course>7.06</course>
  <speed>0.022360679774997897</speed>
  <fix>3d</fix>
</trkpt>
<trkpt lat="64.1624777" lon="-139.8402246">
  <ele>1109.09</ele>
  <time>2026-09-01T20:02:12Z</time>
  <course>180.78</course>
  <speed>0.0</speed>
  <fix>3d</fix>
</trkpt>
<trkpt lat="64.1624775" lon="-139.8402243">
  <ele>1109.12</ele>
  <time>2026-09-01T20:02:12Z</time>
  <course>7.06</course>
  <speed>0.022360679774997897</speed>
  <fix>3d</fix>
</trkpt>
<trkpt lat="64.1624777" lon="-139.8402246">
  <ele>1109.09</ele>
  <time>2026-09-01T20:02:12Z</time>
  <course>180.78</course>
  <speed>0.0</speed>
  <fix>3d</fix>
</trkpt>
<trkpt lat="64.1624775" lon="-139.8402243">
  <ele>1109.13</ele>
  <time>2026-09-01T20:02:12Z</time>
  <course>7.06</course>
  <speed>0.022360679774997897</speed>
  <fix>3d</fix>
</trkpt>
<trkpt lat="64.1624777" lon="-139.8402246">
  <ele>1109.09</ele>
  <time>2026-09-01T20:02:12Z</time>
  <course>180.78</course>
  <speed>0.0</speed>
  <fix>3d</fix>
</trkpt>
<trkpt lat="64.1624775" lon="-139.8402243">
  <ele>1109.13</ele>
  <time>2026-09-01T20:02:12Z</time>
  <course>7.06</course>
  <speed>0.022360679774997897</speed>
  <fix>3d</fix>
</trkpt>
<trkpt lat="64.1624777" lon="-139.8402246">
  <ele>1109.09</ele>
  <time>2026-09-01T20:02:12Z</time>
  <course>180.78</course>
  <speed>0.0</speed>
  <fix>3d</fix>
</trkpt>
<trkpt lat="64.1624775" lon="-139.8402243">
  <ele>1109.13</ele>
  <time>2026-09-01T20:02:12Z</time>
  <course>7.06</course>
  <speed>0.022360679774997897</speed>
  <fix>3d</fix>
</trkpt>
<trkpt lat="64.1624777" lon="-139.8402246">
  <ele>1109.09</ele>
  <time>2026-09-01T20:02:12Z</time>
  <course>180.78</course>
  <speed>0.0</speed>
  <fix>3d</fix>
</trkpt>
<trkpt lat="64.1624775" lon="-139.8402243">
  <ele>1109.14</ele>
  <time>2026-09-01T20:02:12Z</time>
  <course>7.06</course>
  <speed>0.022360679774997897</speed>
  <fix>3d</fix>
</trkpt>
<trkpt lat="64.1624777" lon="-139.8402246">
  <ele>1109.09</ele>
  <time>2026-09-01T20:02:12Z</time>
  <course>180.78</course>
  <speed>0.0</speed>
  <fix>3d</fix>
</trkpt>
<trkpt lat="64.1624775" lon="-139.8402243">
  <ele>1109.14</ele>
  <time>2026-09-01T20:02:12Z</time>
  <course>7.06</course>
  <speed>0.022360679774997897</speed>
  <fix>3d</fix>
</trkpt>
<trkpt lat="64.1624777" lon="-139.8402246">
  <ele>1109.09</ele>
  <time>2026-09-01T20:02:12Z</time>
  <course>180.78</course>
  <speed>0.0</speed>
  <fix>3d</fix>
</trkpt>
<trkpt lat="64.1624775" lon="-139.8402243">
  <ele>1109.14</ele>
  <time>2026-09-01T20:02:12Z</time>
  <course>7.06</course>
  <speed>0.022360679774997897</speed>
  <fix>3d</fix>
</trkpt>
<trkpt lat="64.1624777" lon="-139.8402246">
  <ele>1109.09</ele>
  <time>2026-09-01T20:02:12Z</time>
  <course>180.78</course>
  <speed>0.0</speed>
  <fix>3d</fix>
</trkpt>
<trkpt lat="64.1624775" lon="-139.8402243">
  <ele>1109.14</ele>
  <time>2026-09-01T20:02:12Z</time>
  <course>7.06</course>
  <speed>0.022360679774997897</speed>
  <fix>3d</fix>
</trkpt>
<trkpt lat="64.1624777" lon="-139.8402246">
  <ele>1109.09</ele>
  <time>2026-09-01T20:02:12Z</time>
  <course>180.78</course>
  <speed>0.0</speed>
  <fix>3d</fix>
</trkpt>
<trkpt lat="64.1624775" lon="-139.8402243">
  <ele>1109.14</ele>
  <time>2026-09-01T20:02:12Z</time>
  <course>7.06</course>
  <speed>0.022360679774997897</speed>
  <fix>3d</fix>
</trkpt>
<trkpt lat="64.1624777" lon="-139.8402246">
  <ele>1109.09</ele>
  <time>2026-09-01T20:02:12Z</time>
  <course>180.78</course>
  <speed>0.0</speed>
  <fix>3d</fix>
</trkpt>
<trkpt lat="64.1624775" lon="-139.8402243">
  <ele>1109.14</ele>
  <time>2026-09-01T20:02:12Z</time>
  <course>7.06</course>
  <speed>0.022360679774997897</speed>
  <fix>3d</fix>
</trkpt>
<trkpt lat="64.1624777" lon="-139.8402246">
  <ele>1109.09</ele>
  <time>2026-09-01T20:02:12Z</time>
  <course>180.78</course>
  <speed>0.0</speed>
  <fix>3d</fix>
</trkpt>
<trkpt lat="64.1624775" lon="-139.8402243">
  <ele>1109.15</ele>
  <time>2026-09-01T20:02:12Z</time>
  <course>7.06</course>
  <speed>0.022360679774997897</speed>
  <fix>3d</fix>
</trkpt>
<trkpt lat="64.1624777" lon="-139.8402246">
  <ele>1109.09</ele>
  <time>2026-09-01T20:02:12Z</time>
  <course>180.78</course>
  <speed>0.0</speed>
  <fix>3d</fix>
</trkpt>
<trkpt lat="64.1624775" lon="-139.8402243">
  <ele>1109.15</ele>
  <time>2026-09-01T20:02:12Z</time>
  <course>7.06</course>
  <speed>0.022360679774997897</speed>
  <fix>3d</fix>
</trkpt>
<trkpt lat="64.1624777" lon="-139.8402246">
  <ele>1109.09</ele>
  <time>2026-09-01T20:02:12Z</time>
  <course>180.78</course>
  <speed>0.0</speed>
  <fix>3d</fix>
</trkpt>
<trkpt lat="64.1624775" lon="-139.8402243">
  <ele>1109.15</ele>
  <time>2026-09-01T20:02:12Z</time>
  <course>7.07</course>
  <speed>0.022360679774997897</speed>
  <fix>3d</fix>
</trkpt>
<trkpt lat="64.1624777" lon="-139.8402246">
  <ele>1109.09</ele>
  <time>2026-09-01T20:02:12Z</time>
  <course>180.78</course>
  <speed>0.0</speed>
  <fix>3d</fix>
</trkpt>
<trkpt lat="64.1624775" lon="-139.8402243">
  <ele>1109.15</ele>
  <time>2026-09-01T20:02:12Z</time>
  <course>7.07</course>
  <speed>0.022360679774997897</speed>
  <fix>3d</fix>
</trkpt>
<trkpt lat="64.1624777" lon="-139.8402246">
  <ele>1109.09</ele>
  <time>2026-09-01T20:02:12Z</time>
  <course>180.78</course>
  <speed>0.0</speed>
  <fix>3d</fix>
</trkpt>
<trkpt lat="64.1624775" lon="-139.8402243">
  <ele>1109.15</ele>
  <time>2026-09-01T20:02:12Z</time>
  <course>7.07</course>
  <speed>0.022360679774997897</speed>
  <fix>3d</fix>
</trkpt>
<trkpt lat="64.1624777" lon="-139.8402246">
  <ele>1109.09</ele>
  <time>2026-09-01T20:02:12Z</time>
  <course>180.78</course>
  <speed>0.0</speed>
  <fix>3d</fix>
</trkpt>
<trkpt lat="64.1624775" lon="-139.8402243">
  <ele>1109.15</ele>
  <time>2026-09-01T20:02:12Z</time>
  <course>7.07</course>
  <speed>0.022360679774997897</speed>
  <fix>3d</fix>
</trkpt>
<trkpt lat="64.1624777" lon="-139.8402246">
  <ele>1109.09</ele>
  <time>2026-09-01T20:02:12Z</time>
  <course>180.78</course>
  <speed>0.0</speed>
  <fix>3d</fix>
</trkpt>
<trkpt lat="64.1624775" lon="-139.8402243">
  <ele>1109.15</ele>
  <time>2026-09-01T20:02:12Z</time>
  <course>7.07</course>
  <speed>0.022360679774997897</speed>
  <fix>3d</fix>
</trkpt>
<trkpt lat="64.1624777" lon="-139.8402246">
  <ele>1109.09</ele>
  <time>2026-09-01T20:02:12Z</time>
  <course>180.78</course>
  <speed>0.0</speed>
  <fix>3d</fix>
</trkpt>
<trkpt lat="64.1624775" lon="-139.8402243">
  <ele>1109.16</ele>
  <time>2026-09-01T20:02:12Z</time>
  <course>7.07</course>
  <speed>0.022360679774997897</speed>
  <fix>3d</fix>
</trkpt>
<trkpt lat="64.1624777" lon="-139.8402246">
  <ele>1109.09</ele>
  <time>2026-09-01T20:02:12Z</time>
  <course>180.78</course>
  <speed>0.0</speed>
  <fix>3d</fix>
</trkpt>
<trkpt lat="64.1624775" lon="-139.8402243">
  <ele>1109.16</ele>
  <time>2026-09-01T20:02:12Z</time>
  <course>7.07</course>
  <speed>0.022360679774997897</speed>
  <fix>3d</fix>
</trkpt>
<trkpt lat="64.1624777" lon="-139.8402246">
  <ele>1109.09</ele>
  <time>2026-09-01T20:02:12Z</time>
  <course>180.78</course>
  <speed>0.0</speed>
  <fix>3d</fix>
</trkpt>
<trkpt lat="64.1624775" lon="-139.8402243">
  <ele>1109.16</ele>
  <time>2026-09-01T20:02:12Z</time>
  <course>7.07</course>
  <speed>0.022360679774997897</speed>
  <fix>3d</fix>
</trkpt>
<trkpt lat="64.1624777" lon="-139.8402246">
  <ele>1109.09</ele>
  <time>2026-09-01T20:02:12Z</time>
  <course>180.78</course>
  <speed>0.0</speed>
  <fix>3d</fix>
</trkpt>
<trkpt lat="64.1624775" lon="-139.8402243">
  <ele>1109.16</ele>
  <time>2026-09-01T20:02:12Z</time>
  <course>7.07</course>
  <speed>0.022360679774997897</speed>
  <fix>3d</fix>
</trkpt>
<trkpt lat="64.1624777" lon="-139.8402246">
  <ele>1109.09</ele>
  <time>2026-09-01T20:02:12Z</time>
  <course>180.78</course>
  <speed>0.0</speed>
  <fix>3d</fix>
</trkpt>
<trkpt lat="64.1624775" lon="-139.8402243">
  <ele>1109.17</ele>
  <time>2026-09-01T20:02:12Z</time>
  <course>7.07</course>
  <speed>0.022360679774997897</speed>
  <fix>3d</fix>
</trkpt>
<trkpt lat="64.1624777" lon="-139.8402246">
  <ele>1109.09</ele>
  <time>2026-09-01T20:02:12Z</time>
  <course>180.78</course>
  <speed>0.0</speed>
  <fix>3d</fix>
</trkpt>
<trkpt lat="64.1624775" lon="-139.8402243">
  <ele>1109.17</ele>
  <time>2026-09-01T20:02:12Z</time>
  <course>7.07</course>
  <speed>0.022360679774997897</speed>
  <fix>3d</fix>
</trkpt>
<trkpt lat="64.1624777" lon="-139.8402246">
  <ele>1109.09</ele>
  <time>2026-09-01T20:02:12Z</time>
  <course>180.78</course>
  <speed>0.0</speed>
  <fix>3d</fix>
</trkpt>
<trkpt lat="64.1624775" lon="-139.8402243">
  <ele>1109.18</ele>
  <time>2026-09-01T20:02:12Z</time>
  <course>7.07</course>
  <speed>0.022360679774997897</speed>
  <fix>3d</fix>
</trkpt>
<trkpt lat="64.1624777" lon="-139.8402246">
  <ele>1109.09</ele>
  <time>2026-09-01T20:02:12Z</time>
  <course>180.78</course>
  <speed>0.0</speed>
  <fix>3d</fix>
</trkpt>
<trkpt lat="64.1624775" lon="-139.8402243">
  <ele>1109.18</ele>
  <time>2026-09-01T20:02:12Z</time>
  <course>7.07</course>
  <speed>0.022360679774997897</speed>
  <fix>3d</fix>
</trkpt>
<trkpt lat="64.1624777" lon="-139.8402246">
  <ele>1109.09</ele>
  <time>2026-09-01T20:02:12Z</time>
  <course>180.78</course>
  <speed>0.0</speed>
  <fix>3d</fix>
</trkpt>
<trkpt lat="64.1624775" lon="-139.8402243">
  <ele>1109.18</ele>
  <time>2026-09-01T20:02:12Z</time>
  <course>7.08</course>
  <speed>0.022360679774997897</speed>
  <fix>3d</fix>
</trkpt>
<trkpt lat="64.1624777" lon="-139.8402246">
  <ele>1109.09</ele>
  <time>2026-09-01T20:02:12Z</time>
  <course>180.78</course>
  <speed>0.0</speed>
  <fix>3d</fix>
</trkpt>
<trkpt lat="64.1624775" lon="-139.8402243">
  <ele>1109.18</ele>
  <time>2026-09-01T20:02:12Z</time>
  <course>7.08</course>
  <speed>0.022360679774997897</speed>
  <fix>3d</fix>
</trkpt>
<trkpt lat="64.1624777" lon="-139.8402246">
  <ele>1109.09</ele>
  <time>2026-09-01T20:02:12Z</time>
  <course>180.78</course>
  <speed>0.0</speed>
  <fix>3d</fix>
</trkpt>
<trkpt lat="64.1624775" lon="-139.8402243">
  <ele>1109.18</ele>
  <time>2026-09-01T20:02:12Z</time>
  <course>7.08</course>
  <speed>0.022360679774997897</speed>
  <fix>3d</fix>
</trkpt>
<trkpt lat="64.1624777" lon="-139.8402246">
  <ele>1109.09</ele>
  <time>2026-09-01T20:02:12Z</time>
  <course>180.78</course>
  <speed>0.0</speed>
  <fix>3d</fix>
</trkpt>
<trkpt lat="64.1624775" lon="-139.8402243">
  <ele>1109.19</ele>
  <time>2026-09-01T20:02:12Z</time>
  <course>7.08</course>
  <speed>0.022360679774997897</speed>
  <fix>3d</fix>
</trkpt>
<trkpt lat="64.1624777" lon="-139.8402246">
  <ele>1109.09</ele>
  <time>2026-09-01T20:02:12Z</time>
  <course>180.78</course>
  <speed>0.0</speed>
  <fix>3d</fix>
</trkpt>
<trkpt lat="64.1624775" lon="-139.8402243">
  <ele>1109.19</ele>
  <time>2026-09-01T20:02:12Z</time>
  <course>7.08</course>
  <speed>0.022360679774997897</speed>
  <fix>3d</fix>
</trkpt>
<trkpt lat="64.1624777" lon="-139.8402246">
  <ele>1109.09</ele>
  <time>2026-09-01T20:02:12Z</time>
  <course>180.78</course>
  <speed>0.0</speed>
  <fix>3d</fix>
</trkpt>
<trkpt lat="64.1624775" lon="-139.8402243">
  <ele>1109.19</ele>
  <time>2026-09-01T20:02:12Z</time>
  <course>7.08</course>
  <speed>0.022360679774997897</speed>
  <fix>3d</fix>
</trkpt>
<trkpt lat="64.1624777" lon="-139.8402246">
  <ele>1109.09</ele>
  <time>2026-09-01T20:02:12Z</time>
  <course>180.78</course>
  <speed>0.0</speed>
  <fix>3d</fix>
</trkpt>
<trkpt lat="64.1624775" lon="-139.8402243">
  <ele>1109.19</ele>
  <time>2026-09-01T20:02:12Z</time>
  <course>7.08</course>
  <speed>0.022360679774997897</speed>
  <fix>3d</fix>
</trkpt>
<trkpt lat="64.1624777" lon="-139.8402246">
  <ele>1109.09</ele>
  <time>2026-09-01T20:02:12Z</time>
  <course>180.78</course>
  <speed>0.0</speed>
  <fix>3d</fix>
</trkpt>
<trkpt lat="64.1624775" lon="-139.8402243">
  <ele>1109.19</ele>
  <time>2026-09-01T20:02:12Z</time>
  <course>7.08</course>
  <speed>0.022360679774997897</speed>
  <fix>3d</fix>
</trkpt>
<trkpt lat="64.1624777" lon="-139.8402246">
  <ele>1109.09</ele>
  <time>2026-09-01T20:02:12Z</time>
  <course>180.78</course>
  <speed>0.0</speed>
  <fix>3d</fix>
</trkpt>
<trkpt lat="64.1624775" lon="-139.8402243">
  <ele>1109.2</ele>
  <time>2026-09-01T20:02:12Z</time>
  <course>7.08</course>
  <speed>0.022360679774997897</speed>
  <fix>3d</fix>
</trkpt>
<trkpt lat="64.1624777" lon="-139.8402246">
  <ele>1109.09</ele>
  <time>2026-09-01T20:02:12Z</time>
  <course>180.78</course>
  <speed>0.0</speed>
  <fix>3d</fix>
</trkpt>
<trkpt lat="64.1624775" lon="-139.8402243">
  <ele>1109.2</ele>
  <time>2026-09-01T20:02:12Z</time>
  <course>7.08</course>
  <speed>0.022360679774997897</speed>
  <fix>3d</fix>
</trkpt>
<trkpt lat="64.1624777" lon="-139.8402246">
  <ele>1109.09</ele>
  <time>2026-09-01T20:02:12Z</time>
  <course>180.78</course>
  <speed>0.0</speed>
  <fix>3d</fix>
</trkpt>
<trkpt lat="64.1624775" lon="-139.8402243">
  <ele>1109.2</ele>
  <time>2026-09-01T20:02:12Z</time>
  <course>7.08</course>
  <speed>0.022360679774997897</speed>
  <fix>3d</fix>
</trkpt>
<trkpt lat="64.1624777" lon="-139.8402246">
  <ele>1109.09</ele>
  <time>2026-09-01T20:02:12Z</time>
  <course>180.78</course>
  <speed>0.0</speed>
  <fix>3d</fix>
</trkpt>
<trkpt lat="64.1624775" lon="-139.8402243">
  <ele>1109.2</ele>
  <time>2026-09-01T20:02:12Z</time>
  <course>7.08</course>
  <speed>0.022360679774997897</speed>
  <fix>3d</fix>
</trkpt>
<trkpt lat="64.1624777" lon="-139.8402246">
  <ele>1109.09</ele>
  <time>2026-09-01T20:02:12Z</time>
  <course>180.78</course>
  <speed>0.0</speed>
  <fix>3d</fix>
</trkpt>
<trkpt lat="64.1624775" lon="-139.8402243">
  <ele>1109.2</ele>
  <time>2026-09-01T20:02:12Z</time>
  <course>7.08</course>
  <speed>0.022360679774997897</speed>
  <fix>3d</fix>
</trkpt>
<trkpt lat="64.1624777" lon="-139.8402246">
  <ele>1109.09</ele>
  <time>2026-09-01T20:02:12Z</time>
  <course>180.78</course>
  <speed>0.0</speed>
  <fix>3d</fix>
</trkpt>
<trkpt lat="64.1624775" lon="-139.8402243">
  <ele>1109.21</ele>
  <time>2026-09-01T20:02:12Z</time>
  <course>7.09</course>
  <speed>0.022360679774997897</speed>
  <fix>3d</fix>
</trkpt>
<trkpt lat="64.1624777" lon="-139.8402246">
  <ele>1109.09</ele>
  <time>2026-09-01T20:02:12Z</time>
  <course>180.78</course>
  <speed>0.0</speed>
  <fix>3d</fix>
</trkpt>
<trkpt lat="64.1624775" lon="-139.8402243">
  <ele>1109.21</ele>
  <time>2026-09-01T20:02:12Z</time>
  <course>7.09</course>
  <speed>0.022360679774997897</speed>
  <fix>3d</fix>
</trkpt>
<trkpt lat="64.1624777" lon="-139.8402246">
  <ele>1109.09</ele>
  <time>2026-09-01T20:02:12Z</time>
  <course>180.78</course>
  <speed>0.0</speed>
  <fix>3d</fix>
</trkpt>
<trkpt lat="64.1624775" lon="-139.8402243">
  <ele>1109.22</ele>
  <time>2026-09-01T20:02:12Z</time>
  <course>7.09</course>
  <speed>0.022360679774997897</speed>
  <fix>3d</fix>
</trkpt>
<trkpt lat="64.1624777" lon="-139.8402246">
  <ele>1109.09</ele>
  <time>2026-09-01T20:02:12Z</time>
  <course>180.78</course>
  <speed>0.0</speed>
  <fix>3d</fix>
</trkpt>
<trkpt lat="64.1624775" lon="-139.8402243">
  <ele>1109.22</ele>
  <time>2026-09-01T20:02:12Z</time>
  <course>7.09</course>
  <speed>0.022360679774997897</speed>
  <fix>3d</fix>
</trkpt>
<trkpt lat="64.1624777" lon="-139.8402246">
  <ele>1109.09</ele>
  <time>2026-09-01T20:02:12Z</time>
  <course>180.78</course>
  <speed>0.0</speed>
  <fix>3d</fix>
</trkpt>
<trkpt lat="64.1624775" lon="-139.8402243">
  <ele>1109.22</ele>
  <time>2026-09-01T20:02:12Z</time>
  <course>7.09</course>
  <speed>0.022360679774997897</speed>
  <fix>3d</fix>
</trkpt>
<trkpt lat="64.1624777" lon="-139.8402246">
  <ele>1109.09</ele>
  <time>2026-09-01T20:02:12Z</time>
  <course>180.78</course>
  <speed>0.0</speed>
  <fix>3d</fix>
</trkpt>
<trkpt lat="64.1624775" lon="-139.8402243">
  <ele>1109.22</ele>
  <time>2026-09-01T20:02:12Z</time>
  <course>7.09</course>
  <speed>0.022360679774997897</speed>
  <fix>3d</fix>
</trkpt>
<trkpt lat="64.1624777" lon="-139.8402246">
  <ele>1109.09</ele>
  <time>2026-09-01T20:02:12Z</time>
  <course>180.78</course>
  <speed>0.0</speed>
  <fix>3d</fix>
</trkpt>
<trkpt lat="64.1624775" lon="-139.8402243">
  <ele>1109.22</ele>
  <time>2026-09-01T20:02:12Z</time>
  <course>7.09</course>
  <speed>0.022360679774997897</speed>
  <fix>3d</fix>
</trkpt>
<trkpt lat="64.1624777" lon="-139.8402246">
  <ele>1109.09</ele>
  <time>2026-09-01T20:02:12Z</time>
  <course>180.78</course>
  <speed>0.0</speed>
  <fix>3d</fix>
</trkpt>
<trkpt lat="64.1624775" lon="-139.8402243">
  <ele>1109.22</ele>
  <time>2026-09-01T20:02:12Z</time>
  <course>7.09</course>
  <speed>0.022360679774997897</speed>
  <fix>3d</fix>
</trkpt>
<trkpt lat="64.1624777" lon="-139.8402246">
  <ele>1109.09</ele>
  <time>2026-09-01T20:02:12Z</time>
  <course>180.78</course>
  <speed>0.0</speed>
  <fix>3d</fix>
</trkpt>
<trkpt lat="64.1624775" lon="-139.8402243">
  <ele>1109.09</ele>
  <time>2026-09-01T20:02:12Z</time>
  <course>7.09</course>
  <speed>0.022360679774997897</speed>
  <fix>3d</fix>
</trkpt>
<trkpt lat="64.1624777" lon="-139.8402246">
  <ele>1109.09</ele>
  <time>2026-09-01T20:02:12Z</time>
  <course>180.78</course>
  <speed>0.0</speed>
  <fix>3d</fix>
</trkpt>
<trkpt lat="64.1624775" lon="-139.8402243">
  <ele>1109.09</ele>
  <time>2026-09-01T20:02:12Z</time>
  <course>7.09</course>
  <speed>0.022360679774997897</speed>
  <fix>3d</fix>
</trkpt>
<trkpt lat="64.1624777" lon="-139.8402246">
  <ele>1109.09</ele>
  <time>2026-09-01T20:02:12Z</time>
  <course>180.78</course>
  <speed>0.0</speed>
  <fix>3d</fix>
</trkpt>
<trkpt lat="64.1624775" lon="-139.8402243">
  <ele>1109.09</ele>
  <time>2026-09-01T20:02:12Z</time>
  <course>7.09</course>
  <speed>0.022360679774997897</speed>
  <fix>3d</fix>
</trkpt>
<trkpt lat="64.1624777" lon="-139.8402246">
  <ele>1109.09</ele>
  <time>2026-09-01T20:02:12Z</time>
  <course>180.78</course>
  <speed>0.0</speed>
  <fix>3d</fix>
</trkpt>
<trkpt lat="64.1624775" lon="-139.8402243">
  <ele>1109.09</ele>
  <time>2026-09-01T20:02:12Z</time>
  <course>7.09</course>
  <speed>0.022360679774997897</speed>
  <fix>3d</fix>
</trkpt>
<trkpt lat="64.1624777" lon="-139.8402246">
  <ele>1109.09</ele>
  <time>2026-09-01T20:02:12Z</time>
  <course>180.78</course>
  <speed>0.0</speed>
  <fix>3d</fix>
</trkpt>
<trkpt lat="64.1624775" lon="-139.8402243">
  <ele>1109.1</ele>
  <time>2026-09-01T20:02:12Z</time>
  <course>7.09</course>
  <speed>0.022360679774997897</speed>
  <fix>3d</fix>
</trkpt>
<trkpt lat="64.1624777" lon="-139.8402246">
  <ele>1109.09</ele>
  <time>2026-09-01T20:02:12Z</time>
  <course>180.78</course>
  <speed>0.0</speed>
  <fix>3d</fix>
</trkpt>
<trkpt lat="64.1624775" lon="-139.8402243">
  <ele>1109.1</ele>
  <time>2026-09-01T20:02:12Z</time>
  <course>7.09</course>
  <speed>0.022360679774997897</speed>
  <fix>3d</fix>
</trkpt>
<trkpt lat="64.1624777" lon="-139.8402246">
  <ele>1109.09</ele>
  <time>2026-09-01T20:02:12Z</time>
  <course>180.78</course>
  <speed>0.0</speed>
  <fix>3d</fix>
</trkpt>
<trkpt lat="64.1624775" lon="-139.8402243">
  <ele>1109.11</ele>
  <time>2026-09-01T20:02:12Z</time>
  <course>7.09</course>
  <speed>0.022360679774997897</speed>
  <fix>3d</fix>
</trkpt>
<trkpt lat="64.1624777" lon="-139.8402246">
  <ele>1109.09</ele>
  <time>2026-09-01T20:02:12Z</time>
  <course>180.78</course>
  <speed>0.0</speed>
  <fix>3d</fix>
</trkpt>
<trkpt lat="64.1624775" lon="-139.8402243">
  <ele>1109.11</ele>
  <time>2026-09-01T20:02:12Z</time>
  <course>7.1</course>
  <speed>0.022360679774997897</speed>
  <fix>3d</fix>
</trkpt>
<trkpt lat="64.1624777" lon="-139.8402246">
  <ele>1109.09</ele>
  <time>2026-09-01T20:02:12Z</time>
  <course>180.78</course>
  <speed>0.0</speed>
  <fix>3d</fix>
</trkpt>
<trkpt lat="64.1624775" lon="-139.8402243">
  <ele>1109.12</ele>
  <time>2026-09-01T20:02:12Z</time>
  <course>7.1</course>
  <speed>0.022360679774997897</speed>
  <fix>3d</fix>
</trkpt>
<trkpt lat="64.1624777" lon="-139.8402246">
  <ele>1109.09</ele>
  <time>2026-09-01T20:02:12Z</time>
  <course>180.78</course>
  <speed>0.0</speed>
  <fix>3d</fix>
</trkpt>
<trkpt lat="64.1624775" lon="-139.8402243">
  <ele>1109.12</ele>
  <time>2026-09-01T20:02:12Z</time>
  <course>7.1</course>
  <speed>0.022360679774997897</speed>
  <fix>3d</fix>
</trkpt>
<trkpt lat="64.1624777" lon="-139.8402246">
  <ele>1109.09</ele>
  <time>2026-09-01T20:02:12Z</time>
  <course>180.78</course>
  <speed>0.0</speed>
  <fix>3d</fix>
</trkpt>
<trkpt lat="64.1624775" lon="-139.8402243">
  <ele>1109.13</ele>
  <time>2026-09-01T20:02:12Z</time>
  <course>7.1</course>
  <speed>0.022360679774997897</speed>
  <fix>3d</fix>
</trkpt>
<trkpt lat="64.1624777" lon="-139.8402246">
  <ele>1109.09</ele>
  <time>2026-09-01T20:02:12Z</time>
  <course>180.78</course>
  <speed>0.0</speed>
  <fix>3d</fix>
</trkpt>
<trkpt lat="64.1624775" lon="-139.8402243">
  <ele>1109.14</ele>
  <time>2026-09-01T20:02:12Z</time>
  <course>7.1</course>
  <speed>0.022360679774997897</speed>
  <fix>3d</fix>
</trkpt>
<trkpt lat="64.1624777" lon="-139.8402246">
  <ele>1109.09</ele>
  <time>2026-09-01T20:02:12Z</time>
  <course>180.78</course>
  <speed>0.0</speed>
  <fix>3d</fix>
</trkpt>
<trkpt lat="64.1624775" lon="-139.8402243">
  <ele>1109.15</ele>
  <time>2026-09-01T20:02:12Z</time>
  <course>7.1</course>
  <speed>0.022360679774997897</speed>
  <fix>3d</fix>
</trkpt>
<trkpt lat="64.1624777" lon="-139.8402246">
  <ele>1109.09</ele>
  <time>2026-09-01T20:02:12Z</time>
  <course>180.78</course>
  <speed>0.0</speed>
  <fix>3d</fix>
</trkpt>
<trkpt lat="64.1624775" lon="-139.8402243">
  <ele>1109.15</ele>
  <time>2026-09-01T20:02:12Z</time>
  <course>7.1</course>
  <speed>0.022360679774997897</speed>
  <fix>3d</fix>
</trkpt>
<trkpt lat="64.1624777" lon="-139.8402246">
  <ele>1109.09</ele>
  <time>2026-09-01T20:02:12Z</time>
  <course>180.78</course>
  <speed>0.0</speed>
  <fix>3d</fix>
</trkpt>
<trkpt lat="64.1624775" lon="-139.8402243">
  <ele>1109.16</ele>
  <time>2026-09-01T20:02:12Z</time>
  <course>7.1</course>
  <speed>0.022360679774997897</speed>
  <fix>3d</fix>
</trkpt>
<trkpt lat="64.1624777" lon="-139.8402246">
  <ele>1109.09</ele>
  <time>2026-09-01T20:02:12Z</time>
  <course>180.78</course>
  <speed>0.0</speed>
  <fix>3d</fix>
</trkpt>
<trkpt lat="64.1624775" lon="-139.8402243">
  <ele>1109.17</ele>
  <time>2026-09-01T20:02:12Z</time>
  <course>7.1</course>
  <speed>0.022360679774997897</speed>
  <fix>3d</fix>
</trkpt>
<trkpt lat="64.1624777" lon="-139.8402246">
  <ele>1109.09</ele>
  <time>2026-09-01T20:02:12Z</time>
  <course>180.78</course>
  <speed>0.0</speed>
  <fix>3d</fix>
</trkpt>
<trkpt lat="64.1624775" lon="-139.8402243">
  <ele>1109.17</ele>
  <time>2026-09-01T20:02:12Z</time>
  <course>7.1</course>
  <speed>0.022360679774997897</speed>
  <fix>3d</fix>
</trkpt>
<trkpt lat="64.1624777" lon="-139.8402246">
  <ele>1109.09</ele>
  <time>2026-09-01T20:02:12Z</time>
  <course>180.78</course>
  <speed>0.0</speed>
  <fix>3d</fix>
</trkpt>
<trkpt lat="64.1624775" lon="-139.8402243">
  <ele>1109.18</ele>
  <time>2026-09-01T20:02:12Z</time>
  <course>7.1</course>
  <speed>0.022360679774997897</speed>
  <fix>3d</fix>
</trkpt>
<trkpt lat="64.1624777" lon="-139.8402246">
  <ele>1109.09</ele>
  <time>2026-09-01T20:02:12Z</time>
  <course>180.78</course>
  <speed>0.0</speed>
  <fix>3d</fix>
</trkpt>
<trkpt lat="64.1624775" lon="-139.8402243">
  <ele>1109.19</ele>
  <time>2026-09-01T20:02:12Z</time>
  <course>7.1</course>
  <speed>0.022360679774997897</speed>
  <fix>3d</fix>
</trkpt>
<trkpt lat="64.1624777" lon="-139.8402246">
  <ele>1109.09</ele>
  <time>2026-09-01T20:02:12Z</time>
  <course>180.78</course>
  <speed>0.0</speed>
  <fix>3d</fix>
</trkpt>
<trkpt lat="64.1624775" lon="-139.8402243">
  <ele>1109.19</ele>
  <time>2026-09-01T20:02:12Z</time>
  <course>7.1</course>
  <speed>0.022360679774997897</speed>
  <fix>3d</fix>
</trkpt>
<trkpt lat="64.1624777" lon="-139.8402246">
  <ele>1109.09</ele>
  <time>2026-09-01T20:02:12Z</time>
  <course>180.78</course>
  <speed>0.0</speed>
  <fix>3d</fix>
</trkpt>
<trkpt lat="64.1624775" lon="-139.8402243">
  <ele>1109.2</ele>
  <time>2026-09-01T20:02:12Z</time>
  <course>7.1</course>
  <speed>0.022360679774997897</speed>
  <fix>3d</fix>
</trkpt>
<trkpt lat="64.1624777" lon="-139.8402246">
  <ele>1109.09</ele>
  <time>2026-09-01T20:02:12Z</time>
  <course>180.78</course>
  <speed>0.0</speed>
  <fix>3d</fix>
</trkpt>
<trkpt lat="64.1624775" lon="-139.8402243">
  <ele>1109.2</ele>
  <time>2026-09-01T20:02:12Z</time>
  <course>7.11</course>
  <speed>0.022360679774997897</speed>
  <fix>3d</fix>
</trkpt>
<trkpt lat="64.1624777" lon="-139.8402246">
  <ele>1109.09</ele>
  <time>2026-09-01T20:02:12Z</time>
  <course>180.78</course>
  <speed>0.0</speed>
  <fix>3d</fix>
</trkpt>
<trkpt lat="64.1624775" lon="-139.8402243">
  <ele>1109.21</ele>
  <time>2026-09-01T20:02:12Z</time>
  <course>7.11</course>
  <speed>0.022360679774997897</speed>
  <fix>3d</fix>
</trkpt>
<trkpt lat="64.1624777" lon="-139.8402246">
  <ele>1109.09</ele>
  <time>2026-09-01T20:02:12Z</time>
  <course>180.78</course>
  <speed>0.0</speed>
  <fix>3d</fix>
</trkpt>
<trkpt lat="64.1624775" lon="-139.8402243">
  <ele>1109.21</ele>
  <time>2026-09-01T20:02:12Z</time>
  <course>7.11</course>
  <speed>0.022360679774997897</speed>
  <fix>3d</fix>
</trkpt>
<trkpt lat="64.1624777" lon="-139.8402246">
  <ele>1109.09</ele>
  <time>2026-09-01T20:02:12Z</time>
  <course>180.78</course>
  <speed>0.0</speed>
  <fix>3d</fix>
</trkpt>
<trkpt lat="64.1624775" lon="-139.8402243">
  <ele>1109.22</ele>
  <time>2026-09-01T20:02:12Z</time>
  <course>7.11</course>
  <speed>0.022360679774997897</speed>
  <fix>3d</fix>
</trkpt>
<trkpt lat="64.1624777" lon="-139.8402246">
  <ele>1109.09</ele>
  <time>2026-09-01T20:02:12Z</time>
  <course>180.78</course>
  <speed>0.0</speed>
  <fix>3d</fix>
</trkpt>
<trkpt lat="64.1624775" lon="-139.8402243">
  <ele>1109.22</ele>
  <time>2026-09-01T20:02:12Z</time>
  <course>7.11</course>
  <speed>0.022360679774997897</speed>
  <fix>3d</fix>
</trkpt>
<trkpt lat="64.1624777" lon="-139.8402246">
  <ele>1109.09</ele>
  <time>2026-09-01T20:02:12Z</time>
  <course>180.78</course>
  <speed>0.0</speed>
  <fix>3d</fix>
</trkpt>
<trkpt lat="64.1624775" lon="-139.8402243">
  <ele>1109.23</ele>
  <time>2026-09-01T20:02:12Z</time>
  <course>7.11</course>
  <speed>0.022360679774997897</speed>
  <fix>3d</fix>
</trkpt>
<trkpt lat="64.1624777" lon="-139.8402246">
  <ele>1109.09</ele>
  <time>2026-09-01T20:02:12Z</time>
  <course>180.78</course>
  <speed>0.0</speed>
  <fix>3d</fix>
</trkpt>
<trkpt lat="64.1624775" lon="-139.8402243">
  <ele>1109.24</ele>
  <time>2026-09-01T20:02:12Z</time>
  <course>7.11</course>
  <speed>0.022360679774997897</speed>
  <fix>3d</fix>
</trkpt>
<trkpt lat="64.1624777" lon="-139.8402246">
  <ele>1109.09</ele>
  <time>2026-09-01T20:02:12Z</time>
  <course>180.78</course>
  <speed>0.0</speed>
  <fix>3d</fix>
</trkpt>
<trkpt lat="64.1624775" lon="-139.8402243">
  <ele>1109.24</ele>
  <time>2026-09-01T20:02:12Z</time>
  <course>7.11</course>
  <speed>0.022360679774997897</speed>
  <fix>3d</fix>
</trkpt>
<trkpt lat="64.1624777" lon="-139.8402246">
  <ele>1109.09</ele>
  <time>2026-09-01T20:02:12Z</time>
  <course>180.78</course>
  <speed>0.0</speed>
  <fix>3d</fix>
</trkpt>
<trkpt lat="64.1624775" lon="-139.8402243">
  <ele>1109.25</ele>
  <time>2026-09-01T20:02:12Z</time>
  <course>7.11</course>
  <speed>0.022360679774997897</speed>
  <fix>3d</fix>
</trkpt>
<trkpt lat="64.1624777" lon="-139.8402246">
  <ele>1109.09</ele>
  <time>2026-09-01T20:02:12Z</time>
  <course>180.78</course>
  <speed>0.0</speed>
  <fix>3d</fix>
</trkpt>
<trkpt lat="64.1624775" lon="-139.8402243">
  <ele>1109.25</ele>
  <time>2026-09-01T20:02:12Z</time>
  <course>7.11</course>
  <speed>0.022360679774997897</speed>
  <fix>3d</fix>
</trkpt>
<trkpt lat="64.1624777" lon="-139.8402246">
  <ele>1109.09</ele>
  <time>2026-09-01T20:02:12Z</time>
  <course>180.78</course>
  <speed>0.0</speed>
  <fix>3d</fix>
</trkpt>
<trkpt lat="64.1624775" lon="-139.8402243">
  <ele>1109.25</ele>
  <time>2026-09-01T20:02:12Z</time>
  <course>7.11</course>
  <speed>0.022360679774997897</speed>
  <fix>3d</fix>
</trkpt>
<trkpt lat="64.1624777" lon="-139.8402246">
  <ele>1109.09</ele>
  <time>2026-09-01T20:02:12Z</time>
  <course>180.78</course>
  <speed>0.0</speed>
  <fix>3d</fix>
</trkpt>
<trkpt lat="64.1624775" lon="-139.8402243">
  <ele>1109.25</ele>
  <time>2026-09-01T20:02:12Z</time>
  <course>7.11</course>
  <speed>0.022360679774997897</speed>
  <fix>3d</fix>
</trkpt>
<trkpt lat="64.1624777" lon="-139.8402246">
  <ele>1109.09</ele>
  <time>2026-09-01T20:02:12Z</time>
  <course>180.78</course>
  <speed>0.0</speed>
  <fix>3d</fix>
</trkpt>
<trkpt lat="64.1624775" lon="-139.8402243">
  <ele>1109.26</ele>
  <time>2026-09-01T20:02:12Z</time>
  <course>7.11</course>
  <speed>0.022360679774997897</speed>
  <fix>3d</fix>
</trkpt>
<trkpt lat="64.1624777" lon="-139.8402246">
  <ele>1109.09</ele>
  <time>2026-09-01T20:02:12Z</time>
  <course>180.78</course>
  <speed>0.0</speed>
  <fix>3d</fix>
</trkpt>
<trkpt lat="64.1624775" lon="-139.8402243">
  <ele>1109.26</ele>
  <time>2026-09-01T20:02:12Z</time>
  <course>7.11</course>
  <speed>0.022360679774997897</speed>
  <fix>3d</fix>
</trkpt>
<trkpt lat="64.1624777" lon="-139.8402246">
  <ele>1109.09</ele>
  <time>2026-09-01T20:02:12Z</time>
  <course>180.78</course>
  <speed>0.0</speed>
  <fix>3d</fix>
</trkpt>
<trkpt lat="64.1624775" lon="-139.8402243">
  <ele>1109.26</ele>
  <time>2026-09-01T20:02:12Z</time>
  <course>7.12</course>
  <speed>0.022360679774997897</speed>
  <fix>3d</fix>
</trkpt>
<trkpt lat="64.1624777" lon="-139.8402246">
  <ele>1109.09</ele>
  <time>2026-09-01T20:02:12Z</time>
  <course>180.78</course>
  <speed>0.0</speed>
  <fix>3d</fix>
</trkpt>
<trkpt lat="64.1624775" lon="-139.8402243">
  <ele>1109.26</ele>
  <time>2026-09-01T20:02:12Z</time>
  <course>7.12</course>
  <speed>0.022360679774997897</speed>
  <fix>3d</fix>
</trkpt>
<trkpt lat="64.1624777" lon="-139.8402246">
  <ele>1109.09</ele>
  <time>2026-09-01T20:02:12Z</time>
  <course>180.78</course>
  <speed>0.0</speed>
  <fix>3d</fix>
</trkpt>
<trkpt lat="64.1624775" lon="-139.8402243">
  <ele>1109.26</ele>
  <time>2026-09-01T20:02:12Z</time>
  <course>7.12</course>
  <speed>0.022360679774997897</speed>
  <fix>3d</fix>
</trkpt>
<trkpt lat="64.1624777" lon="-139.8402246">
  <ele>1109.09</ele>
  <time>2026-09-01T20:02:12Z</time>
  <course>180.78</course>
  <speed>0.0</speed>
  <fix>3d</fix>
</trkpt>
<trkpt lat="64.1624775" lon="-139.8402243">
  <ele>1109.26</ele>
  <time>2026-09-01T20:02:12Z</time>
  <course>7.12</course>
  <speed>0.022360679774997897</speed>
  <fix>3d</fix>
</trkpt>
<trkpt lat="64.1624777" lon="-139.8402246">
  <ele>1109.09</ele>
  <time>2026-09-01T20:02:12Z</time>
  <course>180.78</course>
  <speed>0.0</speed>
  <fix>3d</fix>
</trkpt>
<trkpt lat="64.1624775" lon="-139.8402243">
  <ele>1109.26</ele>
  <time>2026-09-01T20:02:12Z</time>
  <course>7.12</course>
  <speed>0.022360679774997897</speed>
  <fix>3d</fix>
</trkpt>
<trkpt lat="64.1624777" lon="-139.8402246">
  <ele>1109.09</ele>
  <time>2026-09-01T20:02:12Z</time>
  <course>180.78</course>
  <speed>0.0</speed>
  <fix>3d</fix>
</trkpt>
<trkpt lat="64.1624775" lon="-139.8402243">
  <ele>1109.26</ele>
  <time>2026-09-01T20:02:12Z</time>
  <course>7.12</course>
  <speed>0.022360679774997897</speed>
  <fix>3d</fix>
</trkpt>
<trkpt lat="64.1624777" lon="-139.8402246">
  <ele>1109.09</ele>
  <time>2026-09-01T20:02:12Z</time>
  <course>180.78</course>
  <speed>0.0</speed>
  <fix>3d</fix>
</trkpt>
<trkpt lat="64.1624775" lon="-139.8402243">
  <ele>1109.27</ele>
  <time>2026-09-01T20:02:12Z</time>
  <course>7.12</course>
  <speed>0.022360679774997897</speed>
  <fix>3d</fix>
</trkpt>
<trkpt lat="64.1624777" lon="-139.8402246">
  <ele>1109.09</ele>
  <time>2026-09-01T20:02:12Z</time>
  <course>180.78</course>
  <speed>0.0</speed>
  <fix>3d</fix>
</trkpt>
<trkpt lat="64.1624775" lon="-139.8402243">
  <ele>1109.27</ele>
  <time>2026-09-01T20:02:12Z</time>
  <course>7.12</course>
  <speed>0.022360679774997897</speed>
  <fix>3d</fix>
</trkpt>
<trkpt lat="64.1624777" lon="-139.8402246">
  <ele>1109.09</ele>
  <time>2026-09-01T20:02:12Z</time>
  <course>180.78</course>
  <speed>0.0</speed>
  <fix>3d</fix>
</trkpt>
<trkpt lat="64.1624775" lon="-139.8402243">
  <ele>1109.27</ele>
  <time>2026-09-01T20:02:12Z</time>
  <course>7.12</course>
  <speed>0.022360679774997897</speed>
  <fix>3d</fix>
</trkpt>
<trkpt lat="64.1624777" lon="-139.8402246">
  <ele>1109.09</ele>
  <time>2026-09-01T20:02:12Z</time>
  <course>180.78</course>
  <speed>0.0</speed>
  <fix>3d</fix>
</trkpt>
<trkpt lat="64.1624775" lon="-139.8402243">
  <ele>1109.28</ele>
  <time>2026-09-01T20:02:12Z</time>
  <course>7.12</course>
  <speed>0.022360679774997897</speed>
  <fix>3d</fix>
</trkpt>
<trkpt lat="64.1624777" lon="-139.8402246">
  <ele>1109.09</ele>
  <time>2026-09-01T20:02:12Z</time>
  <course>180.78</course>
  <speed>0.0</speed>
  <fix>3d</fix>
</trkpt>
<trkpt lat="64.1624775" lon="-139.8402243">
  <ele>1109.28</ele>
  <time>2026-09-01T20:02:12Z</time>
  <course>7.12</course>
  <speed>0.022360679774997897</speed>
  <fix>3d</fix>
</trkpt>
<trkpt lat="64.1624777" lon="-139.8402246">
  <ele>1109.09</ele>
  <time>2026-09-01T20:02:12Z</time>
  <course>180.78</course>
  <speed>0.0</speed>
  <fix>3d</fix>
</trkpt>
<trkpt lat="64.1624775" lon="-139.8402243">
  <ele>1109.28</ele>
  <time>2026-09-01T20:02:12Z</time>
  <course>7.12</course>
  <speed>0.022360679774997897</speed>
  <fix>3d</fix>
</trkpt>
<trkpt lat="64.1624777" lon="-139.8402246">
  <ele>1109.09</ele>
  <time>2026-09-01T20:02:12Z</time>
  <course>180.78</course>
  <speed>0.0</speed>
  <fix>3d</fix>
</trkpt>
<trkpt lat="64.1624775" lon="-139.8402243">
  <ele>1109.29</ele>
  <time>2026-09-01T20:02:12Z</time>
  <course>7.12</course>
  <speed>0.022360679774997897</speed>
  <fix>3d</fix>
</trkpt>
<trkpt lat="64.1624777" lon="-139.8402246">
  <ele>1109.09</ele>
  <time>2026-09-01T20:02:12Z</time>
  <course>180.78</course>
  <speed>0.0</speed>
  <fix>3d</fix>
</trkpt>
<trkpt lat="64.1624775" lon="-139.8402243">
  <ele>1109.29</ele>
  <time>2026-09-01T20:02:12Z</time>
  <course>7.12</course>
  <speed>0.022360679774997897</speed>
  <fix>3d</fix>
</trkpt>
<trkpt lat="64.1624777" lon="-139.8402246">
  <ele>1109.09</ele>
  <time>2026-09-01T20:02:12Z</time>
  <course>180.78</course>
  <speed>0.0</speed>
  <fix>3d</fix>
</trkpt>
<trkpt lat="64.1624775" lon="-139.8402243">
  <ele>1109.29</ele>
  <time>2026-09-01T20:02:12Z</time>
  <course>7.13</course>
  <speed>0.022360679774997897</speed>
  <fix>3d</fix>
</trkpt>
<trkpt lat="64.1624777" lon="-139.8402246">
  <ele>1109.09</ele>
  <time>2026-09-01T20:02:12Z</time>
  <course>180.78</course>
  <speed>0.0</speed>
  <fix>3d</fix>
</trkpt>
<trkpt lat="64.1624775" lon="-139.8402243">
  <ele>1109.29</ele>
  <time>2026-09-01T20:02:12Z</time>
  <course>7.13</course>
  <speed>0.022360679774997897</speed>
  <fix>3d</fix>
</trkpt>
<trkpt lat="64.1624777" lon="-139.8402246">
  <ele>1109.09</ele>
  <time>2026-09-01T20:02:12Z</time>
  <course>180.78</course>
  <speed>0.0</speed>
  <fix>3d</fix>
</trkpt>
<trkpt lat="64.1624775" lon="-139.8402243">
  <ele>1109.29</ele>
  <time>2026-09-01T20:02:12Z</time>
  <course>7.13</course>
  <speed>0.022360679774997897</speed>
  <fix>3d</fix>
</trkpt>
<trkpt lat="64.1624777" lon="-139.8402246">
  <ele>1109.09</ele>
  <time>2026-09-01T20:02:12Z</time>
  <course>180.78</course>
  <speed>0.0</speed>
  <fix>3d</fix>
</trkpt>
<trkpt lat="64.1624775" lon="-139.8402243">
  <ele>1109.29</ele>
  <time>2026-09-01T20:02:12Z</time>
  <course>7.13</course>
  <speed>0.022360679774997897</speed>
  <fix>3d</fix>
</trkpt>
<trkpt lat="64.1624777" lon="-139.8402246">
  <ele>1109.09</ele>
  <time>2026-09-01T20:02:12Z</time>
  <course>180.78</course>
  <speed>0.0</speed>
  <fix>3d</fix>
</trkpt>
<trkpt lat="64.1624775" lon="-139.8402243">
  <ele>1109.3</ele>
  <time>2026-09-01T20:02:12Z</time>
  <course>7.13</course>
  <speed>0.022360679774997897</speed>
  <fix>3d</fix>
</trkpt>
<trkpt lat="64.1624777" lon="-139.8402246">
  <ele>1109.09</ele>
  <time>2026-09-01T20:02:12Z</time>
  <course>180.78</course>
  <speed>0.0</speed>
  <fix>3d</fix>
</trkpt>
<trkpt lat="64.1624775" lon="-139.8402243">
  <ele>1109.3</ele>
  <time>2026-09-01T20:02:12Z</time>
  <course>7.13</course>
  <speed>0.022360679774997897</speed>
  <fix>3d</fix>
</trkpt>
<trkpt lat="64.1624777" lon="-139.8402246">
  <ele>1109.09</ele>
  <time>2026-09-01T20:02:12Z</time>
  <course>180.78</course>
  <speed>0.0</speed>
  <fix>3d</fix>
</trkpt>
<trkpt lat="64.1624775" lon="-139.8402243">
  <ele>1109.3</ele>
  <time>2026-09-01T20:02:12Z</time>
  <course>7.13</course>
  <speed>0.022360679774997897</speed>
  <fix>3d</fix>
</trkpt>
<trkpt lat="64.1624777" lon="-139.8402246">
  <ele>1109.09</ele>
  <time>2026-09-01T20:02:12Z</time>
  <course>180.78</course>
  <speed>0.0</speed>
  <fix>3d</fix>
</trkpt>
<trkpt lat="64.1624775" lon="-139.8402243">
  <ele>1109.3</ele>
  <time>2026-09-01T20:02:12Z</time>
  <course>7.13</course>
  <speed>0.022360679774997897</speed>
  <fix>3d</fix>
</trkpt>
<trkpt lat="64.1624777" lon="-139.8402246">
  <ele>1109.09</ele>
  <time>2026-09-01T20:02:12Z</time>
  <course>180.78</course>
  <speed>0.0</speed>
  <fix>3d</fix>
</trkpt>
<trkpt lat="64.1624775" lon="-139.8402243">
  <ele>1109.3</ele>
  <time>2026-09-01T20:02:12Z</time>
  <course>7.13</course>
  <speed>0.022360679774997897</speed>
  <fix>3d</fix>
</trkpt>
<trkpt lat="64.1624777" lon="-139.8402246">
  <ele>1109.09</ele>
  <time>2026-09-01T20:02:12Z</time>
  <course>180.78</course>
  <speed>0.0</speed>
  <fix>3d</fix>
</trkpt>
<trkpt lat="64.1624775" lon="-139.8402243">
  <ele>1109.3</ele>
  <time>2026-09-01T20:02:12Z</time>
  <course>7.13</course>
  <speed>0.022360679774997897</speed>
  <fix>3d</fix>
</trkpt>
<trkpt lat="64.1624777" lon="-139.8402246">
  <ele>1109.09</ele>
  <time>2026-09-01T20:02:12Z</time>
  <course>180.78</course>
  <speed>0.0</speed>
  <fix>3d</fix>
</trkpt>
<trkpt lat="64.1624775" lon="-139.8402243">
  <ele>1109.3</ele>
  <time>2026-09-01T20:02:12Z</time>
  <course>7.13</course>
  <speed>0.022360679774997897</speed>
  <fix>3d</fix>
</trkpt>
<trkpt lat="64.1624777" lon="-139.8402246">
  <ele>1109.09</ele>
  <time>2026-09-01T20:02:12Z</time>
  <course>180.78</course>
  <speed>0.0</speed>
  <fix>3d</fix>
</trkpt>
<trkpt lat="64.1624775" lon="-139.8402243">
  <ele>1109.09</ele>
  <time>2026-09-01T20:02:12Z</time>
  <course>7.13</course>
  <speed>0.022360679774997897</speed>
  <fix>3d</fix>
</trkpt>
<trkpt lat="64.1624777" lon="-139.8402246">
  <ele>1109.09</ele>
  <time>2026-09-01T20:02:12Z</time>
  <course>180.78</course>
  <speed>0.0</speed>
  <fix>3d</fix>
</trkpt>
<trkpt lat="64.1624775" lon="-139.8402243">
  <ele>1109.09</ele>
  <time>2026-09-01T20:02:12Z</time>
  <course>7.13</course>
  <speed>0.022360679774997897</speed>
  <fix>3d</fix>
</trkpt>
<trkpt lat="64.1624777" lon="-139.8402246">
  <ele>1109.09</ele>
  <time>2026-09-01T20:02:12Z</time>
  <course>180.78</course>
  <speed>0.0</speed>
  <fix>3d</fix>
</trkpt>
<trkpt lat="64.1624775" lon="-139.8402243">
  <ele>1109.09</ele>
  <time>2026-09-01T20:02:12Z</time>
  <course>7.13</course>
  <speed>0.022360679774997897</speed>
  <fix>3d</fix>
</trkpt>
<trkpt lat="64.1624777" lon="-139.8402246">
  <ele>1109.09</ele>
  <time>2026-09-01T20:02:12Z</time>
  <course>180.78</course>
  <speed>0.0</speed>
  <fix>3d</fix>
</trkpt>
<trkpt lat="64.1624775" lon="-139.8402243">
  <ele>1109.09</ele>
  <time>2026-09-01T20:02:12Z</time>
  <course>7.13</course>
  <speed>0.022360679774997897</speed>
  <fix>3d</fix>
</trkpt>
<trkpt lat="64.1624777" lon="-139.8402246">
  <ele>1109.09</ele>
  <time>2026-09-01T20:02:12Z</time>
  <course>180.78</course>
  <speed>0.0</speed>
  <fix>3d</fix>
</trkpt>
<trkpt lat="64.1624775" lon="-139.8402243">
  <ele>1109.09</ele>
  <time>2026-09-01T20:02:12Z</time>
  <course>7.13</course>
  <speed>0.022360679774997897</speed>
  <fix>3d</fix>
</trkpt>
<trkpt lat="64.1624777" lon="-139.8402246">
  <ele>1109.09</ele>
  <time>2026-09-01T20:02:12Z</time>
  <course>180.78</course>
  <speed>0.0</speed>
  <fix>3d</fix>
</trkpt>
<trkpt lat="64.1624775" lon="-139.8402243">
  <ele>1109.1</ele>
  <time>2026-09-01T20:02:12Z</time>
  <course>7.14</course>
  <speed>0.022360679774997897</speed>
  <fix>3d</fix>
</trkpt>
<trkpt lat="64.1624777" lon="-139.8402246">
  <ele>1109.09</ele>
  <time>2026-09-01T20:02:12Z</time>
  <course>180.78</course>
  <speed>0.0</speed>
  <fix>3d</fix>
</trkpt>
<trkpt lat="64.1624775" lon="-139.8402243">
  <ele>1109.1</ele>
  <time>2026-09-01T20:02:12Z</time>
  <course>7.14</course>
  <speed>0.022360679774997897</speed>
  <fix>3d</fix>
</trkpt>
<trkpt lat="64.1624777" lon="-139.8402246">
  <ele>1109.09</ele>
  <time>2026-09-01T20:02:12Z</time>
  <course>180.78</course>
  <speed>0.0</speed>
  <fix>3d</fix>
</trkpt>
<trkpt lat="63.4511428" lon="-138.2898909">
  <ele>1096.79</ele>
  <time>2026-09-01T20:02:14Z</time>
  <course>178.93</course>
  <speed>0.0</speed>
  <fix>3d</fix>
</trkpt>
<trkpt lat="63.4511428" lon="-138.2898909">
  <ele>1096.79</ele>
  <time>2026-09-01T20:02:14Z</time>
  <course>178.93</course>
  <speed>0.0</speed>
  <fix>3d</fix>
</trkpt>
<trkpt lat="64.1624777" lon="-139.8402246">
  <ele>-0.01</ele>
  <time>2026-09-01T20:02:14Z</time>
  <course>344.55</course>
  <speed>0.0</speed>
  <fix>3d</fix>
</trkpt>
<trkpt lat="64.1624777" lon="-139.8402246">
  <ele>1109.09</ele>
  <time>2026-09-01T20:02:14Z</time>
  <course>179.96</course>
  <speed>0.0</speed>
  <fix>3d</fix>
</trkpt>
<trkpt lat="64.1624777" lon="-139.8402246">
  <ele>0.02</ele>
  <time>2026-09-01T20:02:14Z</time>
  <course>346.23</course>
  <speed>0.0</speed>
  <fix>3d</fix>
</trkpt>
<trkpt lat="64.1624777" lon="-139.8402246">
  <ele>1109.09</ele>
  <time>2026-09-01T20:02:14Z</time>
  <course>179.96</course>
  <speed>0.0</speed>
  <fix>3d</fix>
</trkpt>
<trkpt lat="64.1624777" lon="-139.8402246">
  <ele>-0.08</ele>
  <time>2026-09-01T20:02:14Z</time>
  <course>347.82</course>
  <speed>0.0</speed>
  <fix>3d</fix>
</trkpt>
<trkpt lat="64.1624777" lon="-139.8402246">
  <ele>1109.09</ele>
  <time>2026-09-01T20:02:14Z</time>
  <course>180.69</course>
  <speed>0.0</speed>
  <fix>3d</fix>
</trkpt>
<trkpt lat="64.1624777" lon="-139.8402246">
  <ele>0.22</ele>
  <time>2026-09-01T20:02:14Z</time>
  <course>349.31</course>
  <speed>0.0</speed>
  <fix>3d</fix>
</trkpt>
<trkpt lat="64.1624777" lon="-139.8402246">
  <ele>1109.09</ele>
  <time>2026-09-01T20:02:14Z</time>
  <course>180.69</course>
  <speed>0.0</speed>
  <fix>3d</fix>
</trkpt>
<trkpt lat="64.1624777" lon="-139.8402246">
  <ele>0.1</ele>
  <time>2026-09-01T20:02:14Z</time>
  <course>350.72</course>
  <speed>0.0</speed>
  <fix>3d</fix>
</trkpt>
<trkpt lat="64.1624777" lon="-139.8402246">
  <ele>1109.09</ele>
  <time>2026-09-01T20:02:14Z</time>
  <course>180.77</course>
  <speed>0.0</speed>
  <fix>3d</fix>
</trkpt>
<trkpt lat="64.1624777" lon="-139.8402246">
  <ele>0.08</ele>
  <time>2026-09-01T20:02:14Z</time>
  <course>352.04</course>
  <speed>0.0</speed>
  <fix>3d</fix>
</trkpt>
<trkpt lat="64.1624777" lon="-139.8402246">
  <ele>1109.09</ele>
  <time>2026-09-01T20:02:14Z</time>
  <course>180.77</course>
  <speed>0.0</speed>
  <fix>3d</fix>
</trkpt>
<trkpt lat="64.1624777" lon="-139.8402246">
  <ele>0.09</ele>
  <time>2026-09-01T20:02:14Z</time>
  <course>353.28</course>
  <speed>0.0</speed>
  <fix>3d</fix>
</trkpt>
<trkpt lat="64.1624777" lon="-139.8402246">
  <ele>1109.09</ele>
  <time>2026-09-01T20:02:14Z</time>
  <course>180.78</course>
  <speed>0.0</speed>
  <fix>3d</fix>
</trkpt>
<trkpt lat="64.1624777" lon="-139.8402246">
  <ele>-0.05</ele>
  <time>2026-09-01T20:02:14Z</time>
  <course>354.44</course>
  <speed>0.0</speed>
  <fix>3d</fix>
</trkpt>
<trkpt lat="64.1624777" lon="-139.8402246">
  <ele>1109.09</ele>
  <time>2026-09-01T20:02:14Z</time>
  <course>180.78</course>
  <speed>0.0</speed>
  <fix>3d</fix>
</trkpt>
<trkpt lat="64.1624777" lon="-139.8402246">
  <ele>1109.04</ele>
  <time>2026-09-01T20:02:14Z</time>
  <course>355.47</course>
  <speed>0.0</speed>
  <fix>3d</fix>
</trkpt>
<trkpt lat="64.1624777" lon="-139.8402246">
  <ele>1109.09</ele>
  <time>2026-09-01T20:02:14Z</time>
  <course>180.78</course>
  <speed>0.0</speed>
  <fix>3d</fix>
</trkpt>
<trkpt lat="64.1624777" lon="-139.8402246">
  <ele>1109.17</ele>
  <time>2026-09-01T20:02:14Z</time>
  <course>356.47</course>
  <speed>0.0</speed>
  <fix>3d</fix>
</trkpt>
<trkpt lat="64.1624777" lon="-139.8402246">
  <ele>1109.09</ele>
  <time>2026-09-01T20:02:14Z</time>
  <course>180.78</course>
  <speed>0.0</speed>
  <fix>3d</fix>
</trkpt>
<trkpt lat="64.1624777" lon="-139.8402246">
  <ele>1108.9</ele>
  <time>2026-09-01T20:02:14Z</time>
  <course>357.39</course>
  <speed>0.0</speed>
  <fix>3d</fix>
</trkpt>
<trkpt lat="64.1624777" lon="-139.8402246">
  <ele>1109.09</ele>
  <time>2026-09-01T20:02:14Z</time>
  <course>180.78</course>
  <speed>0.0</speed>
  <fix>3d</fix>
</trkpt>
<trkpt lat="64.1624777" lon="-139.8402246">
  <ele>1109.05</ele>
  <time>2026-09-01T20:02:14Z</time>
  <course>358.22</course>
  <speed>0.0</speed>
  <fix>3d</fix>
</trkpt>
<trkpt lat="64.1624777" lon="-139.8402246">
  <ele>1109.09</ele>
  <time>2026-09-01T20:02:14Z</time>
  <course>180.78</course>
  <speed>0.0</speed>
  <fix>3d</fix>
</trkpt>
<trkpt lat="64.1624777" lon="-139.8402246">
  <ele>1109.12</ele>
  <time>2026-09-01T20:02:14Z</time>
  <course>358.97</course>
  <speed>0.0</speed>
  <fix>3d</fix>
</trkpt>
<trkpt lat="64.1624777" lon="-139.8402246">
  <ele>1109.09</ele>
  <time>2026-09-01T20:02:14Z</time>
  <course>180.78</course>
  <speed>0.0</speed>
  <fix>3d</fix>
</trkpt>
<trkpt lat="64.1624777" lon="-139.8402246">
  <ele>1109.03</ele>
  <time>2026-09-01T20:02:14Z</time>
  <course>359.66</course>
  <speed>0.0</speed>
  <fix>3d</fix>
</trkpt>
<trkpt lat="64.1624777" lon="-139.8402246">
  <ele>1109.09</ele>
  <time>2026-09-01T20:02:14Z</time>
  <course>180.78</course>
  <speed>0.0</speed>
  <fix>3d</fix>
</trkpt>
<trkpt lat="64.1624777" lon="-139.8402246">
  <ele>1108.87</ele>
  <time>2026-09-01T20:02:14Z</time>
  <course>0.26</course>
  <speed>0.0</speed>
  <fix>3d</fix>
</trkpt>
<trkpt lat="64.1624777" lon="-139.8402246">
  <ele>1109.09</ele>
  <time>2026-09-01T20:02:14Z</time>
  <course>180.78</course>
  <speed>0.0</speed>
  <fix>3d</fix>
</trkpt>
<trkpt lat="64.1624777" lon="-139.8402246">
  <ele>1109.01</ele>
  <time>2026-09-01T20:02:14Z</time>
  <course>0.8</course>
  <speed>0.0</speed>
  <fix>3d</fix>
</trkpt>
<trkpt lat="64.1624777" lon="-139.8402246">
  <ele>1109.09</ele>
  <time>2026-09-01T20:02:14Z</time>
  <course>180.78</course>
  <speed>0.0</speed>
  <fix>3d</fix>
</trkpt>
<trkpt lat="64.1624777" lon="-139.8402246">
  <ele>1109.22</ele>
  <time>2026-09-01T20:02:14Z</time>
  <course>1.3</course>
  <speed>0.0</speed>
  <fix>3d</fix>
</trkpt>
<trkpt lat="64.1624777" lon="-139.8402246">
  <ele>1109.09</ele>
  <time>2026-09-01T20:02:14Z</time>
  <course>180.78</course>
  <speed>0.0</speed>
  <fix>3d</fix>
</trkpt>
<trkpt lat="64.1624777" lon="-139.8402246">
  <ele>1109.16</ele>
  <time>2026-09-01T20:02:14Z</time>
  <course>1.73</course>
  <speed>0.0</speed>
  <fix>3d</fix>
</trkpt>
<trkpt lat="64.1624777" lon="-139.8402246">
  <ele>1109.09</ele>
  <time>2026-09-01T20:02:14Z</time>
  <course>180.78</course>
  <speed>0.0</speed>
  <fix>3d</fix>
</trkpt>
<trkpt lat="64.1624777" lon="-139.8402246">
  <ele>1109.03</ele>
  <time>2026-09-01T20:02:14Z</time>
  <course>2.11</course>
  <speed>0.0</speed>
  <fix>3d</fix>
</trkpt>
<trkpt lat="64.1624777" lon="-139.8402246">
  <ele>1109.09</ele>
  <time>2026-09-01T20:02:14Z</time>
  <course>180.78</course>
  <speed>0.0</speed>
  <fix>3d</fix>
</trkpt>
<trkpt lat="64.1624777" lon="-139.8402246">
  <ele>1108.87</ele>
  <time>2026-09-01T20:02:14Z</time>
  <course>2.45</course>
  <speed>0.0</speed>
  <fix>3d</fix>
</trkpt>
<trkpt lat="64.1624777" lon="-139.8402246">
  <ele>1109.09</ele>
  <time>2026-09-01T20:02:14Z</time>
  <course>180.78</course>
  <speed>0.0</speed>
  <fix>3d</fix>
</trkpt>
<trkpt lat="64.1624777" lon="-139.8402246">
  <ele>1109.06</ele>
  <time>2026-09-01T20:02:14Z</time>
  <course>2.75</course>
  <speed>0.0</speed>
  <fix>3d</fix>
</trkpt>
<trkpt lat="64.1624777" lon="-139.8402246">
  <ele>1109.09</ele>
  <time>2026-09-01T20:02:14Z</time>
  <course>180.78</course>
  <speed>0.0</speed>
  <fix>3d</fix>
</trkpt>
<trkpt lat="64.1624777" lon="-139.8402246">
  <ele>1109.17</ele>
  <time>2026-09-01T20:02:14Z</time>
  <course>3.02</course>
  <speed>0.0</speed>
  <fix>3d</fix>
</trkpt>
<trkpt lat="64.1624777" lon="-139.8402246">
  <ele>1109.09</ele>
  <time>2026-09-01T20:02:14Z</time>
  <course>180.78</course>
  <speed>0.0</speed>
  <fix>3d</fix>
</trkpt>
<trkpt lat="64.1624777" lon="-139.8402246">
  <ele>1108.87</ele>
  <time>2026-09-01T20:02:14Z</time>
  <course>3.27</course>
  <speed>0.0</speed>
  <fix>3d</fix>
</trkpt>
<trkpt lat="64.1624777" lon="-139.8402246">
  <ele>1109.09</ele>
  <time>2026-09-01T20:02:14Z</time>
  <course>180.78</course>
  <speed>0.0</speed>
  <fix>3d</fix>
</trkpt>
<trkpt lat="64.1624777" lon="-139.8402246">
  <ele>1109.16</ele>
  <time>2026-09-01T20:02:14Z</time>
  <course>3.48</course>
  <speed>0.0</speed>
  <fix>3d</fix>
</trkpt>
<trkpt lat="64.1624777" lon="-139.8402246">
  <ele>1109.09</ele>
  <time>2026-09-01T20:02:14Z</time>
  <course>180.78</course>
  <speed>0.0</speed>
  <fix>3d</fix>
</trkpt>
<trkpt lat="64.1624777" lon="-139.8402246">
  <ele>1108.88</ele>
  <time>2026-09-01T20:02:14Z</time>
  <course>3.68</course>
  <speed>0.0</speed>
  <fix>3d</fix>
</trkpt>
<trkpt lat="64.1624777" lon="-139.8402246">
  <ele>1109.09</ele>
  <time>2026-09-01T20:02:14Z</time>
  <course>180.78</course>
  <speed>0.0</speed>
  <fix>3d</fix>
</trkpt>
<trkpt lat="64.1624777" lon="-139.8402246">
  <ele>1108.97</ele>
  <time>2026-09-01T20:02:14Z</time>
  <course>3.86</course>
  <speed>0.0</speed>
  <fix>3d</fix>
</trkpt>
<trkpt lat="64.1624777" lon="-139.8402246">
  <ele>1109.09</ele>
  <time>2026-09-01T20:02:14Z</time>
  <course>180.78</course>
  <speed>0.0</speed>
  <fix>3d</fix>
</trkpt>
<trkpt lat="64.1624777" lon="-139.8402246">
  <ele>1108.86</ele>
  <time>2026-09-01T20:02:14Z</time>
  <course>4.03</course>
  <speed>0.0</speed>
  <fix>3d</fix>
</trkpt>
<trkpt lat="64.1624777" lon="-139.8402246">
  <ele>1109.09</ele>
  <time>2026-09-01T20:02:14Z</time>
  <course>180.78</course>
  <speed>0.0</speed>
  <fix>3d</fix>
</trkpt>
<trkpt lat="64.1624777" lon="-139.8402246">
  <ele>1109.07</ele>
  <time>2026-09-01T20:02:14Z</time>
  <course>4.18</course>
  <speed>0.0</speed>
  <fix>3d</fix>
</trkpt>
<trkpt lat="64.1624777" lon="-139.8402246">
  <ele>1109.09</ele>
  <time>2026-09-01T20:02:14Z</time>
  <course>180.78</course>
  <speed>0.0</speed>
  <fix>3d</fix>
</trkpt>
<trkpt lat="64.1624777" lon="-139.8402246">
  <ele>1109.17</ele>
  <time>2026-09-01T20:02:14Z</time>
  <course>4.32</course>
  <speed>0.0</speed>
  <fix>3d</fix>
</trkpt>
<trkpt lat="64.1624777" lon="-139.8402246">
  <ele>1109.09</ele>
  <time>2026-09-01T20:02:14Z</time>
  <course>180.78</course>
  <speed>0.0</speed>
  <fix>3d</fix>
</trkpt>
<trkpt lat="64.1624777" lon="-139.8402246">
  <ele>1109.04</ele>
  <time>2026-09-01T20:02:14Z</time>
  <course>4.45</course>
  <speed>0.0</speed>
  <fix>3d</fix>
</trkpt>
<trkpt lat="64.1624777" lon="-139.8402246">
  <ele>1109.09</ele>
  <time>2026-09-01T20:02:14Z</time>
  <course>180.78</course>
  <speed>0.0</speed>
  <fix>3d</fix>
</trkpt>
<trkpt lat="64.1624777" lon="-139.8402246">
  <ele>1108.94</ele>
  <time>2026-09-01T20:02:14Z</time>
  <course>4.56</course>
  <speed>0.0</speed>
  <fix>3d</fix>
</trkpt>
<trkpt lat="64.1624777" lon="-139.8402246">
  <ele>1109.09</ele>
  <time>2026-09-01T20:02:14Z</time>
  <course>180.78</course>
  <speed>0.0</speed>
  <fix>3d</fix>
</trkpt>
<trkpt lat="64.1624777" lon="-139.8402246">
  <ele>1109.09</ele>
  <time>2026-09-01T20:02:14Z</time>
  <course>4.67</course>
  <speed>0.0</speed>
  <fix>3d</fix>
</trkpt>
<trkpt lat="64.1624777" lon="-139.8402246">
  <ele>1109.09</ele>
  <time>2026-09-01T20:02:14Z</time>
  <course>180.78</course>
  <speed>0.0</speed>
  <fix>3d</fix>
</trkpt>
<trkpt lat="64.1624777" lon="-139.8402246">
  <ele>1109.2</ele>
  <time>2026-09-01T20:02:14Z</time>
  <course>4.76</course>
  <speed>0.0</speed>
  <fix>3d</fix>
</trkpt>
<trkpt lat="64.1624777" lon="-139.8402246">
  <ele>1109.09</ele>
  <time>2026-09-01T20:02:14Z</time>
  <course>180.78</course>
  <speed>0.0</speed>
  <fix>3d</fix>
</trkpt>
<trkpt lat="64.1624777" lon="-139.8402246">
  <ele>1109.16</ele>
  <time>2026-09-01T20:02:14Z</time>
  <course>4.85</course>
  <speed>0.0</speed>
  <fix>3d</fix>
</trkpt>
<trkpt lat="64.1624777" lon="-139.8402246">
  <ele>1109.09</ele>
  <time>2026-09-01T20:02:14Z</time>
  <course>180.78</course>
  <speed>0.0</speed>
  <fix>3d</fix>
</trkpt>
<trkpt lat="64.1624777" lon="-139.8402246">
  <ele>1109.06</ele>
  <time>2026-09-01T20:02:14Z</time>
  <course>4.93</course>
  <speed>0.0</speed>
  <fix>3d</fix>
</trkpt>
<trkpt lat="64.1624777" lon="-139.8402246">
  <ele>1109.09</ele>
  <time>2026-09-01T20:02:14Z</time>
  <course>180.78</course>
  <speed>0.0</speed>
  <fix>3d</fix>
</trkpt>
<trkpt lat="64.1624777" lon="-139.8402246">
  <ele>1109.03</ele>
  <time>2026-09-01T20:02:14Z</time>
  <course>5.0</course>
  <speed>0.0</speed>
  <fix>3d</fix>
</trkpt>
<trkpt lat="64.1624777" lon="-139.8402246">
  <ele>1109.09</ele>
  <time>2026-09-01T20:02:14Z</time>
  <course>180.78</course>
  <speed>0.0</speed>
  <fix>3d</fix>
</trkpt>
<trkpt lat="64.1624777" lon="-139.8402246">
  <ele>1109.17</ele>
  <time>2026-09-01T20:02:14Z</time>
  <course>5.07</course>
  <speed>0.0</speed>
  <fix>3d</fix>
</trkpt>
<trkpt lat="64.1624777" lon="-139.8402246">
  <ele>1109.09</ele>
  <time>2026-09-01T20:02:14Z</time>
  <course>180.78</course>
  <speed>0.0</speed>
  <fix>3d</fix>
</trkpt>
<trkpt lat="64.1624777" lon="-139.8402246">
  <ele>1109.1</ele>
  <time>2026-09-01T20:02:14Z</time>
  <course>5.13</course>
  <speed>0.0</speed>
  <fix>3d</fix>
</trkpt>
<trkpt lat="64.1624777" lon="-139.8402246">
  <ele>1109.09</ele>
  <time>2026-09-01T20:02:14Z</time>
  <course>180.78</course>
  <speed>0.0</speed>
  <fix>3d</fix>
</trkpt>
<trkpt lat="64.1624777" lon="-139.8402246">
  <ele>1109.03</ele>
  <time>2026-09-01T20:02:14Z</time>
  <course>5.18</course>
  <speed>0.0</speed>
  <fix>3d</fix>
</trkpt>
<trkpt lat="64.1624777" lon="-139.8402246">
  <ele>1109.09</ele>
  <time>2026-09-01T20:02:14Z</time>
  <course>180.78</course>
  <speed>0.0</speed>
  <fix>3d</fix>
</trkpt>
<trkpt lat="64.1624777" lon="-139.8402246">
  <ele>1109.06</ele>
  <time>2026-09-01T20:02:14Z</time>
  <course>5.23</course>
  <speed>0.0</speed>
  <fix>3d</fix>
</trkpt>
<trkpt lat="64.1624777" lon="-139.8402246">
  <ele>1109.09</ele>
  <time>2026-09-01T20:02:14Z</time>
  <course>180.78</course>
  <speed>0.0</speed>
  <fix>3d</fix>
</trkpt>
<trkpt lat="64.1624777" lon="-139.8402246">
  <ele>1109.03</ele>
  <time>2026-09-01T20:02:14Z</time>
  <course>5.27</course>
  <speed>0.0</speed>
  <fix>3d</fix>
</trkpt>
<trkpt lat="64.1624777" lon="-139.8402246">
  <ele>1109.09</ele>
  <time>2026-09-01T20:02:14Z</time>
  <course>180.78</course>
  <speed>0.0</speed>
  <fix>3d</fix>
</trkpt>
<trkpt lat="64.1624777" lon="-139.8402246">
  <ele>1109.0</ele>
  <time>2026-09-01T20:02:14Z</time>
  <course>5.31</course>
  <speed>0.0</speed>
  <fix>3d</fix>
</trkpt>
<trkpt lat="64.1624777" lon="-139.8402246">
  <ele>1109.09</ele>
  <time>2026-09-01T20:02:14Z</time>
  <course>180.78</course>
  <speed>0.0</speed>
  <fix>3d</fix>
</trkpt>
<trkpt lat="64.1624777" lon="-139.8402246">
  <ele>1109.18</ele>
  <time>2026-09-01T20:02:14Z</time>
  <course>5.35</course>
  <speed>0.0</speed>
  <fix>3d</fix>
</trkpt>
<trkpt lat="64.1624777" lon="-139.8402246">
  <ele>1109.09</ele>
  <time>2026-09-01T20:02:14Z</time>
  <course>180.78</course>
  <speed>0.0</speed>
  <fix>3d</fix>
</trkpt>
<trkpt lat="64.1624777" lon="-139.8402246">
  <ele>1109.24</ele>
  <time>2026-09-01T20:02:14Z</time>
  <course>5.38</course>
  <speed>0.0</speed>
  <fix>3d</fix>
</trkpt>
<trkpt lat="64.1624777" lon="-139.8402246">
  <ele>1109.09</ele>
  <time>2026-09-01T20:02:14Z</time>
  <course>180.78</course>
  <speed>0.0</speed>
  <fix>3d</fix>
</trkpt>
<trkpt lat="64.1624777" lon="-139.8402246">
  <ele>1108.87</ele>
  <time>2026-09-01T20:02:14Z</time>
  <course>5.41</course>
  <speed>0.0</speed>
  <fix>3d</fix>
</trkpt>
<trkpt lat="64.1624777" lon="-139.8402246">
  <ele>1109.09</ele>
  <time>2026-09-01T20:02:14Z</time>
  <course>180.78</course>
  <speed>0.0</speed>
  <fix>3d</fix>
</trkpt>
<trkpt lat="64.1624777" lon="-139.8402246">
  <ele>1109.2</ele>
  <time>2026-09-01T20:02:14Z</time>
  <course>5.43</course>
  <speed>0.0</speed>
  <fix>3d</fix>
</trkpt>
<trkpt lat="64.1624777" lon="-139.8402246">
  <ele>1109.09</ele>
  <time>2026-09-01T20:02:14Z</time>
  <course>180.78</course>
  <speed>0.0</speed>
  <fix>3d</fix>
</trkpt>
<trkpt lat="64.1624777" lon="-139.8402246">
  <ele>1109.0</ele>
  <time>2026-09-01T20:02:14Z</time>
  <course>5.46</course>
  <speed>0.0</speed>
  <fix>3d</fix>
</trkpt>
<trkpt lat="64.1624777" lon="-139.8402246">
  <ele>1109.09</ele>
  <time>2026-09-01T20:02:14Z</time>
  <course>180.78</course>
  <speed>0.0</speed>
  <fix>3d</fix>
</trkpt>
<trkpt lat="64.1624777" lon="-139.8402246">
  <ele>1108.92</ele>
  <time>2026-09-01T20:02:14Z</time>
  <course>5.48</course>
  <speed>0.0</speed>
  <fix>3d</fix>
</trkpt>
<trkpt lat="64.1624777" lon="-139.8402246">
  <ele>1109.09</ele>
  <time>2026-09-01T20:02:14Z</time>
  <course>180.78</course>
  <speed>0.0</speed>
  <fix>3d</fix>
</trkpt>
<trkpt lat="64.1624777" lon="-139.8402246">
  <ele>1109.06</ele>
  <time>2026-09-01T20:02:14Z</time>
  <course>5.5</course>
  <speed>0.0</speed>
  <fix>3d</fix>
</trkpt>
<trkpt lat="64.1624777" lon="-139.8402246">
  <ele>1109.09</ele>
  <time>2026-09-01T20:02:14Z</time>
  <course>180.78</course>
  <speed>0.0</speed>
  <fix>3d</fix>
</trkpt>
<trkpt lat="64.1624777" lon="-139.8402246">
  <ele>1108.92</ele>
  <time>2026-09-01T20:02:14Z</time>
  <course>5.52</course>
  <speed>0.0</speed>
  <fix>3d</fix>
</trkpt>
<trkpt lat="64.1624777" lon="-139.8402246">
  <ele>1109.09</ele>
  <time>2026-09-01T20:02:14Z</time>
  <course>180.78</course>
  <speed>0.0</speed>
  <fix>3d</fix>
</trkpt>
<trkpt lat="64.1624777" lon="-139.8402246">
  <ele>1109.09</ele>
  <time>2026-09-01T20:02:14Z</time>
  <course>5.53</course>
  <speed>0.0</speed>
  <fix>3d</fix>
</trkpt>
<trkpt lat="64.1624777" lon="-139.8402246">
  <ele>1109.09</ele>
  <time>2026-09-01T20:02:14Z</time>
  <course>180.78</course>
  <speed>0.0</speed>
  <fix>3d</fix>
</trkpt>
<trkpt lat="64.1624777" lon="-139.8402246">
  <ele>1109.24</ele>
  <time>2026-09-01T20:02:14Z</time>
  <course>5.55</course>
  <speed>0.0</speed>
  <fix>3d</fix>
</trkpt>
<trkpt lat="64.1624777" lon="-139.8402246">
  <ele>1109.09</ele>
  <time>2026-09-01T20:02:14Z</time>
  <course>180.78</course>
  <speed>0.0</speed>
  <fix>3d</fix>
</trkpt>
<trkpt lat="64.1624777" lon="-139.8402246">
  <ele>1109.16</ele>
  <time>2026-09-01T20:02:14Z</time>
  <course>5.56</course>
  <speed>0.0</speed>
  <fix>3d</fix>
</trkpt>
<trkpt lat="64.1624777" lon="-139.8402246">
  <ele>1109.09</ele>
  <time>2026-09-01T20:02:14Z</time>
  <course>180.78</course>
  <speed>0.0</speed>
  <fix>3d</fix>
</trkpt>
<trkpt lat="64.1624777" lon="-139.8402246">
  <ele>1108.88</ele>
  <time>2026-09-01T20:02:14Z</time>
  <course>5.57</course>
  <speed>0.0</speed>
  <fix>3d</fix>
</trkpt>
<trkpt lat="64.1624777" lon="-139.8402246">
  <ele>1109.09</ele>
  <time>2026-09-01T20:02:14Z</time>
  <course>180.78</course>
  <speed>0.0</speed>
  <fix>3d</fix>
</trkpt>
<trkpt lat="64.1624777" lon="-139.8402246">
  <ele>1109.21</ele>
  <time>2026-09-01T20:02:14Z</time>
  <course>5.58</course>
  <speed>0.0</speed>
  <fix>3d</fix>
</trkpt>
<trkpt lat="64.1624777" lon="-139.8402246">
  <ele>1109.09</ele>
  <time>2026-09-01T20:02:14Z</time>
  <course>180.78</course>
  <speed>0.0</speed>
  <fix>3d</fix>
</trkpt>
<trkpt lat="64.1624777" lon="-139.8402246">
  <ele>1109.21</ele>
  <time>2026-09-01T20:02:14Z</time>
  <course>5.59</course>
  <speed>0.0</speed>
  <fix>3d</fix>
</trkpt>
<trkpt lat="64.1624777" lon="-139.8402246">
  <ele>1109.09</ele>
  <time>2026-09-01T20:02:14Z</time>
  <course>180.78</course>
  <speed>0.0</speed>
  <fix>3d</fix>
</trkpt>
<trkpt lat="64.1624777" lon="-139.8402246">
  <ele>1108.97</ele>
  <time>2026-09-01T20:02:14Z</time>
  <course>5.6</course>
  <speed>0.0</speed>
  <fix>3d</fix>
</trkpt>
<trkpt lat="64.1624777" lon="-139.8402246">
  <ele>1109.09</ele>
  <time>2026-09-01T20:02:14Z</time>
  <course>180.78</course>
  <speed>0.0</speed>
  <fix>3d</fix>
</trkpt>
<trkpt lat="64.1624777" lon="-139.8402246">
  <ele>1109.12</ele>
  <time>2026-09-01T20:02:14Z</time>
  <course>5.61</course>
  <speed>0.0</speed>
  <fix>3d</fix>
</trkpt>
<trkpt lat="64.1624777" lon="-139.8402246">
  <ele>1109.09</ele>
  <time>2026-09-01T20:02:14Z</time>
  <course>180.78</course>
  <speed>0.0</speed>
  <fix>3d</fix>
</trkpt>
<trkpt lat="64.1624777" lon="-139.8402246">
  <ele>1109.06</ele>
  <time>2026-09-01T20:02:14Z</time>
  <course>5.62</course>
  <speed>0.0</speed>
  <fix>3d</fix>
</trkpt>
<trkpt lat="64.1624777" lon="-139.8402246">
  <ele>1109.09</ele>
  <time>2026-09-01T20:02:14Z</time>
  <course>180.78</course>
  <speed>0.0</speed>
  <fix>3d</fix>
</trkpt>
<trkpt lat="64.1624777" lon="-139.8402246">
  <ele>1109.18</ele>
  <time>2026-09-01T20:02:14Z</time>
  <course>5.62</course>
  <speed>0.0</speed>
  <fix>3d</fix>
</trkpt>
<trkpt lat="64.1624777" lon="-139.8402246">
  <ele>1109.09</ele>
  <time>2026-09-01T20:02:14Z</time>
  <course>180.78</course>
  <speed>0.0</speed>
  <fix>3d</fix>
</trkpt>
<trkpt lat="64.1624777" lon="-139.8402246">
  <ele>1108.92</ele>
  <time>2026-09-01T20:02:14Z</time>
  <course>5.63</course>
  <speed>0.0</speed>
  <fix>3d</fix>
</trkpt>
<trkpt lat="64.1624777" lon="-139.8402246">
  <ele>1109.09</ele>
  <time>2026-09-01T20:02:14Z</time>
  <course>180.78</course>
  <speed>0.0</speed>
  <fix>3d</fix>
</trkpt>
<trkpt lat="64.1624777" lon="-139.8402246">
  <ele>1109.18</ele>
  <time>2026-09-01T20:02:14Z</time>
  <course>5.63</course>
  <speed>0.0</speed>
  <fix>3d</fix>
</trkpt>
<trkpt lat="64.1624777" lon="-139.8402246">
  <ele>1109.09</ele>
  <time>2026-09-01T20:02:14Z</time>
  <course>180.78</course>
  <speed>0.0</speed>
  <fix>3d</fix>
</trkpt>
<trkpt lat="64.1624777" lon="-139.8402246">
  <ele>1109.09</ele>
  <time>2026-09-01T20:02:14Z</time>
  <course>5.64</course>
  <speed>0.0</speed>
  <fix>3d</fix>
</trkpt>
<trkpt lat="64.1624777" lon="-139.8402246">
  <ele>1109.09</ele>
  <time>2026-09-01T20:02:14Z</time>
  <course>180.78</course>
  <speed>0.0</speed>
  <fix>3d</fix>
</trkpt>
<trkpt lat="64.1624777" lon="-139.8402246">
  <ele>1108.99</ele>
  <time>2026-09-01T20:02:14Z</time>
  <course>5.64</course>
  <speed>0.0</speed>
  <fix>3d</fix>
</trkpt>
<trkpt lat="64.1624777" lon="-139.8402246">
  <ele>1109.09</ele>
  <time>2026-09-01T20:02:14Z</time>
  <course>180.78</course>
  <speed>0.0</speed>
  <fix>3d</fix>
</trkpt>
<trkpt lat="64.1624777" lon="-139.8402246">
  <ele>1109.1</ele>
  <time>2026-09-01T20:02:14Z</time>
  <course>5.65</course>
  <speed>0.0</speed>
  <fix>3d</fix>
</trkpt>
<trkpt lat="64.1624777" lon="-139.8402246">
  <ele>1109.09</ele>
  <time>2026-09-01T20:02:14Z</time>
  <course>180.78</course>
  <speed>0.0</speed>
  <fix>3d</fix>
</trkpt>
<trkpt lat="64.1624777" lon="-139.8402246">
  <ele>1108.95</ele>
  <time>2026-09-01T20:02:14Z</time>
  <course>5.65</course>
  <speed>0.0</speed>
  <fix>3d</fix>
</trkpt>
<trkpt lat="64.1624777" lon="-139.8402246">
  <ele>1109.09</ele>
  <time>2026-09-01T20:02:14Z</time>
  <course>180.78</course>
  <speed>0.0</speed>
  <fix>3d</fix>
</trkpt>
<trkpt lat="64.1624777" lon="-139.8402246">
  <ele>1109.17</ele>
  <time>2026-09-01T20:02:14Z</time>
  <course>5.65</course>
  <speed>0.0</speed>
  <fix>3d</fix>
</trkpt>
<trkpt lat="64.1624777" lon="-139.8402246">
  <ele>1109.09</ele>
  <time>2026-09-01T20:02:14Z</time>
  <course>180.78</course>
  <speed>0.0</speed>
  <fix>3d</fix>
</trkpt>
<trkpt lat="64.1624777" lon="-139.8402246">
  <ele>1108.98</ele>
  <time>2026-09-01T20:02:14Z</time>
  <course>5.66</course>
  <speed>0.0</speed>
  <fix>3d</fix>
</trkpt>
<trkpt lat="64.1624777" lon="-139.8402246">
  <ele>1109.09</ele>
  <time>2026-09-01T20:02:14Z</time>
  <course>180.78</course>
  <speed>0.0</speed>
  <fix>3d</fix>
</trkpt>
<trkpt lat="64.1624777" lon="-139.8402246">
  <ele>1109.19</ele>
  <time>2026-09-01T20:02:14Z</time>
  <course>5.66</course>
  <speed>0.0</speed>
  <fix>3d</fix>
</trkpt>
<trkpt lat="64.1624777" lon="-139.8402246">
  <ele>1109.09</ele>
  <time>2026-09-01T20:02:14Z</time>
  <course>180.78</course>
  <speed>0.0</speed>
  <fix>3d</fix>
</trkpt>
<trkpt lat="64.1624777" lon="-139.8402246">
  <ele>1109.19</ele>
  <time>2026-09-01T20:02:14Z</time>
  <course>5.66</course>
  <speed>0.0</speed>
  <fix>3d</fix>
</trkpt>
<trkpt lat="64.1624777" lon="-139.8402246">
  <ele>1109.09</ele>
  <time>2026-09-01T20:02:14Z</time>
  <course>180.78</course>
  <speed>0.0</speed>
  <fix>3d</fix>
</trkpt>
<trkpt lat="64.1624777" lon="-139.8402246">
  <ele>1109.12</ele>
  <time>2026-09-01T20:02:14Z</time>
  <course>5.67</course>
  <speed>0.0</speed>
  <fix>3d</fix>
</trkpt>
<trkpt lat="64.1624777" lon="-139.8402246">
  <ele>1109.09</ele>
  <time>2026-09-01T20:02:14Z</time>
  <course>180.78</course>
  <speed>0.0</speed>
  <fix>3d</fix>
</trkpt>
<trkpt lat="64.1624777" lon="-139.8402246">
  <ele>1109.09</ele>
  <time>2026-09-01T20:02:15Z</time>
  <course>5.67</course>
  <speed>0.0</speed>
  <fix>3d</fix>
</trkpt>
<trkpt lat="64.1624777" lon="-139.8402246">
  <ele>1109.09</ele>
  <time>2026-09-01T20:02:15Z</time>
  <course>180.78</course>
  <speed>0.0</speed>
  <fix>3d</fix>
</trkpt>
<trkpt lat="64.1624777" lon="-139.8402246">
  <ele>1109.11</ele>
  <time>2026-09-01T20:02:15Z</time>
  <course>5.67</course>
  <speed>0.0</speed>
  <fix>3d</fix>
</trkpt>
<trkpt lat="64.1624777" lon="-139.8402246">
  <ele>1109.09</ele>
  <time>2026-09-01T20:02:15Z</time>
  <course>180.78</course>
  <speed>0.0</speed>
  <fix>3d</fix>
</trkpt>
<trkpt lat="64.1624777" lon="-139.8402246">
  <ele>1108.93</ele>
  <time>2026-09-01T20:02:15Z</time>
  <course>5.67</course>
  <speed>0.0</speed>
  <fix>3d</fix>
</trkpt>
<trkpt lat="64.1624777" lon="-139.8402246">
  <ele>1109.09</ele>
  <time>2026-09-01T20:02:15Z</time>
  <course>180.78</course>
  <speed>0.0</speed>
  <fix>3d</fix>
</trkpt>
<trkpt lat="64.1624777" lon="-139.8402246">
  <ele>1109.23</ele>
  <time>2026-09-01T20:02:15Z</time>
  <course>5.67</course>
  <speed>0.0</speed>
  <fix>3d</fix>
</trkpt>
<trkpt lat="64.1624777" lon="-139.8402246">
  <ele>1109.09</ele>
  <time>2026-09-01T20:02:15Z</time>
  <course>180.78</course>
  <speed>0.0</speed>
  <fix>3d</fix>
</trkpt>
<trkpt lat="64.1624777" lon="-139.8402246">
  <ele>1108.91</ele>
  <time>2026-09-01T20:02:15Z</time>
  <course>5.68</course>
  <speed>0.0</speed>
  <fix>3d</fix>
</trkpt>
<trkpt lat="64.1624777" lon="-139.8402246">
  <ele>1109.09</ele>
  <time>2026-09-01T20:02:15Z</time>
  <course>180.78</course>
  <speed>0.0</speed>
  <fix>3d</fix>
</trkpt>
<trkpt lat="64.1624777" lon="-139.8402246">
  <ele>1109.06</ele>
  <time>2026-09-01T20:02:15Z</time>
  <course>5.68</course>
  <speed>0.0</speed>
  <fix>3d</fix>
</trkpt>
<trkpt lat="64.1624777" lon="-139.8402246">
  <ele>1109.09</ele>
  <time>2026-09-01T20:02:15Z</time>
  <course>180.78</course>
  <speed>0.0</speed>
  <fix>3d</fix>
</trkpt>
<trkpt lat="64.1624777" lon="-139.8402246">
  <ele>1109.22</ele>
  <time>2026-09-01T20:02:15Z</time>
  <course>5.68</course>
  <speed>0.0</speed>
  <fix>3d</fix>
</trkpt>
<trkpt lat="64.1624777" lon="-139.8402246">
  <ele>1109.09</ele>
  <time>2026-09-01T20:02:15Z</time>
  <course>180.78</course>
  <speed>0.0</speed>
  <fix>3d</fix>
</trkpt>
<trkpt lat="64.1624777" lon="-139.8402246">
  <ele>1109.0</ele>
  <time>2026-09-01T20:02:15Z</time>
  <course>5.68</course>
  <speed>0.0</speed>
  <fix>3d</fix>
</trkpt>
<trkpt lat="64.1624777" lon="-139.8402246">
  <ele>1109.09</ele>
  <time>2026-09-01T20:02:15Z</time>
  <course>180.78</course>
  <speed>0.0</speed>
  <fix>3d</fix>
</trkpt>
<trkpt lat="64.1624777" lon="-139.8402246">
  <ele>1109.09</ele>
  <time>2026-09-01T20:02:15Z</time>
  <course>5.68</course>
  <speed>0.0</speed>
  <fix>3d</fix>
</trkpt>
<trkpt lat="64.1624777" lon="-139.8402246">
  <ele>1109.09</ele>
  <time>2026-09-01T20:02:15Z</time>
  <course>180.78</course>
  <speed>0.0</speed>
  <fix>3d</fix>
</trkpt>
<trkpt lat="64.1624777" lon="-139.8402246">
  <ele>1108.98</ele>
  <time>2026-09-01T20:02:15Z</time>
  <course>5.69</course>
  <speed>0.0</speed>
  <fix>3d</fix>
</trkpt>
<trkpt lat="64.1624777" lon="-139.8402246">
  <ele>1109.09</ele>
  <time>2026-09-01T20:02:15Z</time>
  <course>180.78</course>
  <speed>0.0</speed>
  <fix>3d</fix>
</trkpt>
<trkpt lat="64.1624777" lon="-139.8402246">
  <ele>1108.86</ele>
  <time>2026-09-01T20:02:15Z</time>
  <course>5.69</course>
  <speed>0.0</speed>
  <fix>3d</fix>
</trkpt>
<trkpt lat="64.1624777" lon="-139.8402246">
  <ele>1109.09</ele>
  <time>2026-09-01T20:02:15Z</time>
  <course>180.78</course>
  <speed>0.0</speed>
  <fix>3d</fix>
</trkpt>
<trkpt lat="64.1624777" lon="-139.8402246">
  <ele>1109.09</ele>
  <time>2026-09-01T20:02:15Z</time>
  <course>5.69</course>
  <speed>0.0</speed>
  <fix>3d</fix>
</trkpt>
<trkpt lat="64.1624777" lon="-139.8402246">
  <ele>1109.09</ele>
  <time>2026-09-01T20:02:15Z</time>
  <course>180.78</course>
  <speed>0.0</speed>
  <fix>3d</fix>
</trkpt>
<trkpt lat="64.1624777" lon="-139.8402246">
  <ele>1108.98</ele>
  <time>2026-09-01T20:02:15Z</time>
  <course>5.69</course>
  <speed>0.0</speed>
  <fix>3d</fix>
</trkpt>
<trkpt lat="64.1624777" lon="-139.8402246">
  <ele>1109.09</ele>
  <time>2026-09-01T20:02:15Z</time>
  <course>180.78</course>
  <speed>0.0</speed>
  <fix>3d</fix>
</trkpt>
<trkpt lat="64.1624777" lon="-139.8402246">
  <ele>1108.9</ele>
  <time>2026-09-01T20:02:15Z</time>
  <course>5.69</course>
  <speed>0.0</speed>
  <fix>3d</fix>
</trkpt>
<trkpt lat="64.1624777" lon="-139.8402246">
  <ele>1109.09</ele>
  <time>2026-09-01T20:02:15Z</time>
  <course>180.78</course>
  <speed>0.0</speed>
  <fix>3d</fix>
</trkpt>
<trkpt lat="64.1624777" lon="-139.8402246">
  <ele>1108.88</ele>
  <time>2026-09-01T20:02:15Z</time>
  <course>5.7</course>
  <speed>0.0</speed>
  <fix>3d</fix>
</trkpt>
<trkpt lat="64.1624777" lon="-139.8402246">
  <ele>1109.09</ele>
  <time>2026-09-01T20:02:15Z</time>
  <course>180.78</course>
  <speed>0.0</speed>
  <fix>3d</fix>
</trkpt>
<trkpt lat="64.1624777" lon="-139.8402246">
  <ele>1108.86</ele>
  <time>2026-09-01T20:02:15Z</time>
  <course>5.7</course>
  <speed>0.0</speed>
  <fix>3d</fix>
</trkpt>
<trkpt lat="64.1624777" lon="-139.8402246">
  <ele>1109.09</ele>
  <time>2026-09-01T20:02:15Z</time>
  <course>180.78</course>
  <speed>0.0</speed>
  <fix>3d</fix>
</trkpt>
<trkpt lat="64.1624777" lon="-139.8402246">
  <ele>1109.11</ele>
  <time>2026-09-01T20:02:15Z</time>
  <course>5.7</course>
  <speed>0.0</speed>
  <fix>3d</fix>
</trkpt>
<trkpt lat="64.1624777" lon="-139.8402246">
  <ele>1109.09</ele>
  <time>2026-09-01T20:02:15Z</time>
  <course>180.78</course>
  <speed>0.0</speed>
  <fix>3d</fix>
</trkpt>
<trkpt lat="64.1624777" lon="-139.8402246">
  <ele>1108.98</ele>
  <time>2026-09-01T20:02:15Z</time>
  <course>5.7</course>
  <speed>0.0</speed>
  <fix>3d</fix>
</trkpt>
<trkpt lat="64.1624777" lon="-139.8402246">
  <ele>1109.09</ele>
  <time>2026-09-01T20:02:15Z</time>
  <course>180.78</course>
  <speed>0.0</speed>
  <fix>3d</fix>
</trkpt>
<trkpt lat="64.1624777" lon="-139.8402246">
  <ele>1109.12</ele>
  <time>2026-09-01T20:02:15Z</time>
  <course>5.7</course>
  <speed>0.0</speed>
  <fix>3d</fix>
</trkpt>
<trkpt lat="64.1624777" lon="-139.8402246">
  <ele>1109.09</ele>
  <time>2026-09-01T20:02:15Z</time>
  <course>180.78</course>
  <speed>0.0</speed>
  <fix>3d</fix>
</trkpt>
<trkpt lat="64.1624777" lon="-139.8402246">
  <ele>1108.98</ele>
  <time>2026-09-01T20:02:15Z</time>
  <course>5.71</course>
  <speed>0.0</speed>
  <fix>3d</fix>
</trkpt>
<trkpt lat="64.1624777" lon="-139.8402246">
  <ele>1109.09</ele>
  <time>2026-09-01T20:02:15Z</time>
  <course>180.78</course>
  <speed>0.0</speed>
  <fix>3d</fix>
</trkpt>
<trkpt lat="64.1624777" lon="-139.8402246">
  <ele>1109.15</ele>
  <time>2026-09-01T20:02:15Z</time>
  <course>5.71</course>
  <speed>0.0</speed>
  <fix>3d</fix>
</trkpt>
<trkpt lat="64.1624777" lon="-139.8402246">
  <ele>1109.09</ele>
  <time>2026-09-01T20:02:15Z</time>
  <course>180.78</course>
  <speed>0.0</speed>
  <fix>3d</fix>
</trkpt>
<trkpt lat="64.1624777" lon="-139.8402246">
  <ele>1108.98</ele>
  <time>2026-09-01T20:02:15Z</time>
  <course>5.71</course>
  <speed>0.0</speed>
  <fix>3d</fix>
</trkpt>
<trkpt lat="64.1624777" lon="-139.8402246">
  <ele>1109.09</ele>
  <time>2026-09-01T20:02:15Z</time>
  <course>180.78</course>
  <speed>0.0</speed>
  <fix>3d</fix>
</trkpt>
<trkpt lat="64.1624777" lon="-139.8402246">
  <ele>1108.98</ele>
  <time>2026-09-01T20:02:15Z</time>
  <course>5.71</course>
  <speed>0.0</speed>
  <fix>3d</fix>
</trkpt>
<trkpt lat="64.1624777" lon="-139.8402246">
  <ele>1109.09</ele>
  <time>2026-09-01T20:02:15Z</time>
  <course>180.78</course>
  <speed>0.0</speed>
  <fix>3d</fix>
</trkpt>
<trkpt lat="64.1624777" lon="-139.8402246">
  <ele>1109.15</ele>
  <time>2026-09-01T20:02:15Z</time>
  <course>5.71</course>
  <speed>0.0</speed>
  <fix>3d</fix>
</trkpt>
<trkpt lat="64.1624777" lon="-139.8402246">
  <ele>1109.09</ele>
  <time>2026-09-01T20:02:15Z</time>
  <course>180.78</course>
  <speed>0.0</speed>
  <fix>3d</fix>
</trkpt>
<trkpt lat="64.1624777" lon="-139.8402246">
  <ele>1109.14</ele>
  <time>2026-09-01T20:02:15Z</time>
  <course>5.71</course>
  <speed>0.0</speed>
  <fix>3d</fix>
</trkpt>
<trkpt lat="64.1624777" lon="-139.8402246">
  <ele>1109.09</ele>
  <time>2026-09-01T20:02:15Z</time>
  <course>180.78</course>
  <speed>0.0</speed>
  <fix>3d</fix>
</trkpt>
<trkpt lat="64.1624777" lon="-139.8402246">
  <ele>1108.86</ele>
  <time>2026-09-01T20:02:15Z</time>
  <course>5.72</course>
  <speed>0.0</speed>
  <fix>3d</fix>
</trkpt>
<trkpt lat="64.1624777" lon="-139.8402246">
  <ele>1109.09</ele>
  <time>2026-09-01T20:02:15Z</time>
  <course>180.78</course>
  <speed>0.0</speed>
  <fix>3d</fix>
</trkpt>
<trkpt lat="64.1624777" lon="-139.8402246">
  <ele>1109.17</ele>
  <time>2026-09-01T20:02:15Z</time>
  <course>5.72</course>
  <speed>0.0</speed>
  <fix>3d</fix>
</trkpt>
<trkpt lat="64.1624777" lon="-139.8402246">
  <ele>1109.09</ele>
  <time>2026-09-01T20:02:15Z</time>
  <course>180.78</course>
  <speed>0.0</speed>
  <fix>3d</fix>
</trkpt>
<trkpt lat="64.1624777" lon="-139.8402246">
  <ele>1109.15</ele>
  <time>2026-09-01T20:02:15Z</time>
  <course>5.72</course>
  <speed>0.0</speed>
  <fix>3d</fix>
</trkpt>
<trkpt lat="64.1624777" lon="-139.8402246">
  <ele>1109.09</ele>
  <time>2026-09-01T20:02:15Z</time>
  <course>180.78</course>
  <speed>0.0</speed>
  <fix>3d</fix>
</trkpt>
<trkpt lat="64.1624777" lon="-139.8402246">
  <ele>1109.2</ele>
  <time>2026-09-01T20:02:15Z</time>
  <course>5.72</course>
  <speed>0.0</speed>
  <fix>3d</fix>
</trkpt>
<trkpt lat="64.1624777" lon="-139.8402246">
  <ele>1109.09</ele>
  <time>2026-09-01T20:02:15Z</time>
  <course>180.78</course>
  <speed>0.0</speed>
  <fix>3d</fix>
</trkpt>
<trkpt lat="64.1624777" lon="-139.8402246">
  <ele>1109.2</ele>
  <time>2026-09-01T20:02:15Z</time>
  <course>5.72</course>
  <speed>0.0</speed>
  <fix>3d</fix>
</trkpt>
<trkpt lat="64.1624777" lon="-139.8402246">
  <ele>1109.09</ele>
  <time>2026-09-01T20:02:15Z</time>
  <course>180.78</course>
  <speed>0.0</speed>
  <fix>3d</fix>
</trkpt>
<trkpt lat="64.1624777" lon="-139.8402246">
  <ele>1109.23</ele>
  <time>2026-09-01T20:02:15Z</time>
  <course>5.72</course>
  <speed>0.0</speed>
  <fix>3d</fix>
</trkpt>
<trkpt lat="64.1624777" lon="-139.8402246">
  <ele>1109.09</ele>
  <time>2026-09-01T20:02:15Z</time>
  <course>180.78</course>
  <speed>0.0</speed>
  <fix>3d</fix>
</trkpt>
<trkpt lat="64.1624777" lon="-139.8402246">
  <ele>1108.99</ele>
  <time>2026-09-01T20:02:15Z</time>
  <course>5.72</course>
  <speed>0.0</speed>
  <fix>3d</fix>
</trkpt>
<trkpt lat="64.1624777" lon="-139.8402246">
  <ele>1109.09</ele>
  <time>2026-09-01T20:02:15Z</time>
  <course>180.78</course>
  <speed>0.0</speed>
  <fix>3d</fix>
</trkpt>
<trkpt lat="64.1624777" lon="-139.8402246">
  <ele>1109.09</ele>
  <time>2026-09-01T20:02:15Z</time>
  <course>5.72</course>
  <speed>0.0</speed>
  <fix>3d</fix>
</trkpt>
<trkpt lat="64.1624777" lon="-139.8402246">
  <ele>1109.09</ele>
  <time>2026-09-01T20:02:15Z</time>
  <course>180.78</course>
  <speed>0.0</speed>
  <fix>3d</fix>
</trkpt>
<trkpt lat="64.1624777" lon="-139.8402246">
  <ele>1109.03</ele>
  <time>2026-09-01T20:02:15Z</time>
  <course>5.72</course>
  <speed>0.0</speed>
  <fix>3d</fix>
</trkpt>
<trkpt lat="64.1624777" lon="-139.8402246">
  <ele>1109.09</ele>
  <time>2026-09-01T20:02:15Z</time>
  <course>180.78</course>
  <speed>0.0</speed>
  <fix>3d</fix>
</trkpt>
<trkpt lat="64.1624777" lon="-139.8402246">
  <ele>1108.86</ele>
  <time>2026-09-01T20:02:15Z</time>
  <course>5.72</course>
  <speed>0.0</speed>
  <fix>3d</fix>
</trkpt>
<trkpt lat="64.1624777" lon="-139.8402246">
  <ele>1109.09</ele>
  <time>2026-09-01T20:02:15Z</time>
  <course>180.78</course>
  <speed>0.0</speed>
  <fix>3d</fix>
</trkpt>
<trkpt lat="64.1624777" lon="-139.8402246">
  <ele>1108.91</ele>
  <time>2026-09-01T20:02:15Z</time>
  <course>5.72</course>
  <speed>0.0</speed>
  <fix>3d</fix>
</trkpt>
<trkpt lat="64.1624777" lon="-139.8402246">
  <ele>1109.09</ele>
  <time>2026-09-01T20:02:15Z</time>
  <course>180.78</course>
  <speed>0.0</speed>
  <fix>3d</fix>
</trkpt>
<trkpt lat="64.1624777" lon="-139.8402246">
  <ele>1108.95</ele>
  <time>2026-09-01T20:02:15Z</time>
  <course>5.72</course>
  <speed>0.0</speed>
  <fix>3d</fix>
</trkpt>
<trkpt lat="64.1624777" lon="-139.8402246">
  <ele>1109.09</ele>
  <time>2026-09-01T20:02:15Z</time>
  <course>180.78</course>
  <speed>0.0</speed>
  <fix>3d</fix>
</trkpt>
<trkpt lat="64.1624777" lon="-139.8402246">
  <ele>1109.14</ele>
  <time>2026-09-01T20:02:15Z</time>
  <course>5.73</course>
  <speed>0.0</speed>
  <fix>3d</fix>
</trkpt>
<trkpt lat="64.1624777" lon="-139.8402246">
  <ele>1109.09</ele>
  <time>2026-09-01T20:02:15Z</time>
  <course>180.78</course>
  <speed>0.0</speed>
  <fix>3d</fix>
</trkpt>
<trkpt lat="64.1624777" lon="-139.8402246">
  <ele>1109.15</ele>
  <time>2026-09-01T20:02:15Z</time>
  <course>5.73</course>
  <speed>0.0</speed>
  <fix>3d</fix>
</trkpt>
<trkpt lat="64.1624777" lon="-139.8402246">
  <ele>1109.09</ele>
  <time>2026-09-01T20:02:15Z</time>
  <course>180.78</course>
  <speed>0.0</speed>
  <fix>3d</fix>
</trkpt>
<trkpt lat="64.1624777" lon="-139.8402246">
  <ele>1109.18</ele>
  <time>2026-09-01T20:02:15Z</time>
  <course>5.73</course>
  <speed>0.0</speed>
  <fix>3d</fix>
</trkpt>
<trkpt lat="64.1624777" lon="-139.8402246">
  <ele>1109.09</ele>
  <time>2026-09-01T20:02:15Z</time>
  <course>180.78</course>
  <speed>0.0</speed>
  <fix>3d</fix>
</trkpt>
<trkpt lat="64.1624777" lon="-139.8402246">
  <ele>1109.12</ele>
  <time>2026-09-01T20:02:15Z</time>
  <course>5.73</course>
  <speed>0.0</speed>
  <fix>3d</fix>
</trkpt>
<trkpt lat="64.1624777" lon="-139.8402246">
  <ele>1109.09</ele>
  <time>2026-09-01T20:02:15Z</time>
  <course>180.78</course>
  <speed>0.0</speed>
  <fix>3d</fix>
</trkpt>
<trkpt lat="64.1624777" lon="-139.8402246">
  <ele>1109.08</ele>
  <time>2026-09-01T20:02:15Z</time>
  <course>5.74</course>
  <speed>0.0</speed>
  <fix>3d</fix>
</trkpt>
<trkpt lat="64.1624777" lon="-139.8402246">
  <ele>1109.09</ele>
  <time>2026-09-01T20:02:15Z</time>
  <course>180.78</course>
  <speed>0.0</speed>
  <fix>3d</fix>
</trkpt>
<trkpt lat="64.1624777" lon="-139.8402246">
  <ele>1109.08</ele>
  <time>2026-09-01T20:02:15Z</time>
  <course>5.74</course>
  <speed>0.0</speed>
  <fix>3d</fix>
</trkpt>
<trkpt lat="64.1624777" lon="-139.8402246">
  <ele>1109.09</ele>
  <time>2026-09-01T20:02:15Z</time>
  <course>180.78</course>
  <speed>0.0</speed>
  <fix>3d</fix>
</trkpt>
<trkpt lat="64.1624777" lon="-139.8402246">
  <ele>1109.09</ele>
  <time>2026-09-01T20:02:15Z</time>
  <course>5.74</course>
  <speed>0.0</speed>
  <fix>3d</fix>
</trkpt>
<trkpt lat="64.1624777" lon="-139.8402246">
  <ele>1109.09</ele>
  <time>2026-09-01T20:02:15Z</time>
  <course>180.78</course>
  <speed>0.0</speed>
  <fix>3d</fix>
</trkpt>
<trkpt lat="64.1624777" lon="-139.8402246">
  <ele>1109.09</ele>
  <time>2026-09-01T20:02:15Z</time>
  <course>5.74</course>
  <speed>0.0</speed>
  <fix>3d</fix>
</trkpt>
<trkpt lat="64.1624777" lon="-139.8402246">
  <ele>1109.09</ele>
  <time>2026-09-01T20:02:15Z</time>
  <course>180.78</course>
  <speed>0.0</speed>
  <fix>3d</fix>
</trkpt>
<trkpt lat="64.1624777" lon="-139.8402246">
  <ele>1109.09</ele>
  <time>2026-09-01T20:02:15Z</time>
  <course>5.74</course>
  <speed>0.0</speed>
  <fix>3d</fix>
</trkpt>
<trkpt lat="64.1624777" lon="-139.8402246">
  <ele>1109.09</ele>
  <time>2026-09-01T20:02:15Z</time>
  <course>180.78</course>
  <speed>0.0</speed>
  <fix>3d</fix>
</trkpt>
<trkpt lat="64.1624777" lon="-139.8402246">
  <ele>1109.09</ele>
  <time>2026-09-01T20:02:15Z</time>
  <course>5.74</course>
  <speed>0.0</speed>
  <fix>3d</fix>
</trkpt>
<trkpt lat="64.1624777" lon="-139.8402246">
  <ele>1109.09</ele>
  <time>2026-09-01T20:02:15Z</time>
  <course>180.78</course>
  <speed>0.0</speed>
  <fix>3d</fix>
</trkpt>
<trkpt lat="64.1624777" lon="-139.8402246">
  <ele>1109.09</ele>
  <time>2026-09-01T20:02:15Z</time>
  <course>5.74</course>
  <speed>0.0</speed>
  <fix>3d</fix>
</trkpt>
<trkpt lat="64.1624777" lon="-139.8402246">
  <ele>1109.09</ele>
  <time>2026-09-01T20:02:15Z</time>
  <course>180.78</course>
  <speed>0.0</speed>
  <fix>3d</fix>
</trkpt>
<trkpt lat="64.1624777" lon="-139.8402246">
  <ele>1109.1</ele>
  <time>2026-09-01T20:02:15Z</time>
  <course>5.74</course>
  <speed>0.0</speed>
  <fix>3d</fix>
</trkpt>
<trkpt lat="64.1624777" lon="-139.8402246">
  <ele>1109.09</ele>
  <time>2026-09-01T20:02:15Z</time>
  <course>180.78</course>
  <speed>0.0</speed>
  <fix>3d</fix>
</trkpt>
<trkpt lat="64.1624777" lon="-139.8402246">
  <ele>1109.1</ele>
  <time>2026-09-01T20:02:15Z</time>
  <course>5.75</course>
  <speed>0.0</speed>
  <fix>3d</fix>
</trkpt>
<trkpt lat="64.1624777" lon="-139.8402246">
  <ele>1109.09</ele>
  <time>2026-09-01T20:02:15Z</time>
  <course>180.78</course>
  <speed>0.0</speed>
  <fix>3d</fix>
</trkpt>
<trkpt lat="64.1624777" lon="-139.8402246">
  <ele>1109.1</ele>
  <time>2026-09-01T20:02:15Z</time>
  <course>5.75</course>
  <speed>0.0</speed>
  <fix>3d</fix>
</trkpt>
<trkpt lat="64.1624777" lon="-139.8402246">
  <ele>1109.09</ele>
  <time>2026-09-01T20:02:15Z</time>
  <course>180.78</course>
  <speed>0.0</speed>
  <fix>3d</fix>
</trkpt>
<trkpt lat="64.1624777" lon="-139.8402246">
  <ele>1109.11</ele>
  <time>2026-09-01T20:02:15Z</time>
  <course>5.75</course>
  <speed>0.0</speed>
  <fix>3d</fix>
</trkpt>
<trkpt lat="64.1624777" lon="-139.8402246">
  <ele>1109.09</ele>
  <time>2026-09-01T20:02:15Z</time>
  <course>180.78</course>
  <speed>0.0</speed>
  <fix>3d</fix>
</trkpt>
<trkpt lat="64.1624777" lon="-139.8402246">
  <ele>1109.11</ele>
  <time>2026-09-01T20:02:15Z</time>
  <course>5.75</course>
  <speed>0.0</speed>
  <fix>3d</fix>
</trkpt>
<trkpt lat="64.1624777" lon="-139.8402246">
  <ele>1109.09</ele>
  <time>2026-09-01T20:02:15Z</time>
  <course>180.78</course>
  <speed>0.0</speed>
  <fix>3d</fix>
</trkpt>
<trkpt lat="64.1624777" lon="-139.8402246">
  <ele>1109.09</ele>
  <time>2026-09-01T20:02:15Z</time>
  <course>5.75</course>
  <speed>0.0</speed>
  <fix>3d</fix>
</trkpt>
<trkpt lat="64.1624777" lon="-139.8402246">
  <ele>1109.09</ele>
  <time>2026-09-01T20:02:15Z</time>
  <course>180.78</course>
  <speed>0.0</speed>
  <fix>3d</fix>
</trkpt>
<trkpt lat="64.1624777" lon="-139.8402246">
  <ele>1109.09</ele>
  <time>2026-09-01T20:02:15Z</time>
  <course>5.75</course>
  <speed>0.0</speed>
  <fix>3d</fix>
</trkpt>
<trkpt lat="64.1624777" lon="-139.8402246">
  <ele>1109.09</ele>
  <time>2026-09-01T20:02:15Z</time>
  <course>180.78</course>
  <speed>0.0</speed>
  <fix>3d</fix>
</trkpt>
<trkpt lat="64.1624777" lon="-139.8402246">
  <ele>1109.09</ele>
  <time>2026-09-01T20:02:15Z</time>
  <course>5.75</course>
  <speed>0.0</speed>
  <fix>3d</fix>
</trkpt>
<trkpt lat="64.1624777" lon="-139.8402246">
  <ele>1109.09</ele>
  <time>2026-09-01T20:02:15Z</time>
  <course>180.78</course>
  <speed>0.0</speed>
  <fix>3d</fix>
</trkpt>
<trkpt lat="64.1624777" lon="-139.8402246">
  <ele>1109.09</ele>
  <time>2026-09-01T20:02:15Z</time>
  <course>5.75</course>
  <speed>0.0</speed>
  <fix>3d</fix>
</trkpt>
<trkpt lat="64.1624777" lon="-139.8402246">
  <ele>1109.09</ele>
  <time>2026-09-01T20:02:15Z</time>
  <course>180.78</course>
  <speed>0.0</speed>
  <fix>3d</fix>
</trkpt>
<trkpt lat="64.1624777" lon="-139.8402246">
  <ele>1109.08</ele>
  <time>2026-09-01T20:02:15Z</time>
  <course>5.75</course>
  <speed>0.0</speed>
  <fix>3d</fix>
</trkpt>
<trkpt lat="64.1624777" lon="-139.8402246">
  <ele>1109.09</ele>
  <time>2026-09-01T20:02:15Z</time>
  <course>180.78</course>
  <speed>0.0</speed>
  <fix>3d</fix>
</trkpt>
<trkpt lat="64.1624777" lon="-139.8402246">
  <ele>1109.08</ele>
  <time>2026-09-01T20:02:15Z</time>
  <course>5.75</course>
  <speed>0.0</speed>
  <fix>3d</fix>
</trkpt>
<trkpt lat="64.1624777" lon="-139.8402246">
  <ele>1109.09</ele>
  <time>2026-09-01T20:02:15Z</time>
  <course>180.78</course>
  <speed>0.0</speed>
  <fix>3d</fix>
</trkpt>
<trkpt lat="64.1624777" lon="-139.8402246">
  <ele>1109.09</ele>
  <time>2026-09-01T20:02:15Z</time>
  <course>5.75</course>
  <speed>0.0</speed>
  <fix>3d</fix>
</trkpt>
<trkpt lat="64.1624777" lon="-139.8402246">
  <ele>1109.09</ele>
  <time>2026-09-01T20:02:15Z</time>
  <course>180.78</course>
  <speed>0.0</speed>
  <fix>3d</fix>
</trkpt>
<trkpt lat="64.1624777" lon="-139.8402246">
  <ele>1109.09</ele>
  <time>2026-09-01T20:02:15Z</time>
  <course>5.75</course>
  <speed>0.0</speed>
  <fix>3d</fix>
</trkpt>
<trkpt lat="64.1624777" lon="-139.8402246">
  <ele>1109.09</ele>
  <time>2026-09-01T20:02:15Z</time>
  <course>180.78</course>
  <speed>0.0</speed>
  <fix>3d</fix>
</trkpt>
<trkpt lat="64.1624777" lon="-139.8402246">
  <ele>1109.08</ele>
  <time>2026-09-01T20:02:15Z</time>
  <course>5.75</course>
  <speed>0.0</speed>
  <fix>3d</fix>
</trkpt>
<trkpt lat="64.1624777" lon="-139.8402246">
  <ele>1109.09</ele>
  <time>2026-09-01T20:02:15Z</time>
  <course>180.78</course>
  <speed>0.0</speed>
  <fix>3d</fix>
</trkpt>
<trkpt lat="64.1624777" lon="-139.8402246">
  <ele>1109.08</ele>
  <time>2026-09-01T20:02:15Z</time>
  <course>5.76</course>
  <speed>0.0</speed>
  <fix>3d</fix>
</trkpt>
<trkpt lat="64.1624777" lon="-139.8402246">
  <ele>1109.09</ele>
  <time>2026-09-01T20:02:15Z</time>
  <course>180.78</course>
  <speed>0.0</speed>
  <fix>3d</fix>
</trkpt>
<trkpt lat="64.1624777" lon="-139.8402246">
  <ele>1109.08</ele>
  <time>2026-09-01T20:02:15Z</time>
  <course>5.76</course>
  <speed>0.0</speed>
  <fix>3d</fix>
</trkpt>
<trkpt lat="64.1624777" lon="-139.8402246">
  <ele>1109.09</ele>
  <time>2026-09-01T20:02:15Z</time>
  <course>180.78</course>
  <speed>0.0</speed>
  <fix>3d</fix>
</trkpt>
<trkpt lat="64.1624777" lon="-139.8402246">
  <ele>1109.08</ele>
  <time>2026-09-01T20:02:15Z</time>
  <course>5.76</course>
  <speed>0.0</speed>
  <fix>3d</fix>
</trkpt>
<trkpt lat="64.1624777" lon="-139.8402246">
  <ele>1109.09</ele>
  <time>2026-09-01T20:02:15Z</time>
  <course>180.78</course>
  <speed>0.0</speed>
  <fix>3d</fix>
</trkpt>
<trkpt lat="64.1624777" lon="-139.8402246">
  <ele>1109.08</ele>
  <time>2026-09-01T20:02:15Z</time>
  <course>5.76</course>
  <speed>0.0</speed>
  <fix>3d</fix>
</trkpt>
<trkpt lat="64.1624777" lon="-139.8402246">
  <ele>1109.09</ele>
  <time>2026-09-01T20:02:15Z</time>
  <course>180.78</course>
  <speed>0.0</speed>
  <fix>3d</fix>
</trkpt>
<trkpt lat="64.1624777" lon="-139.8402246">
  <ele>1109.08</ele>
  <time>2026-09-01T20:02:15Z</time>
  <course>5.76</course>
  <speed>0.0</speed>
  <fix>3d</fix>
</trkpt>
<trkpt lat="64.1624777" lon="-139.8402246">
  <ele>1109.09</ele>
  <time>2026-09-01T20:02:15Z</time>
  <course>180.78</course>
  <speed>0.0</speed>
  <fix>3d</fix>
</trkpt>
<trkpt lat="64.1624777" lon="-139.8402246">
  <ele>1109.08</ele>
  <time>2026-09-01T20:02:15Z</time>
  <course>5.76</course>
  <speed>0.0</speed>
  <fix>3d</fix>
</trkpt>
<trkpt lat="64.1624777" lon="-139.8402246">
  <ele>1109.09</ele>
  <time>2026-09-01T20:02:15Z</time>
  <course>180.78</course>
  <speed>0.0</speed>
  <fix>3d</fix>
</trkpt>
<trkpt lat="64.1624777" lon="-139.8402246">
  <ele>1109.08</ele>
  <time>2026-09-01T20:02:15Z</time>
  <course>5.76</course>
  <speed>0.0</speed>
  <fix>3d</fix>
</trkpt>
<trkpt lat="64.1624777" lon="-139.8402246">
  <ele>1109.09</ele>
  <time>2026-09-01T20:02:15Z</time>
  <course>180.78</course>
  <speed>0.0</speed>
  <fix>3d</fix>
</trkpt>
<trkpt lat="64.1624777" lon="-139.8402246">
  <ele>1109.09</ele>
  <time>2026-09-01T20:02:15Z</time>
  <course>5.76</course>
  <speed>0.0</speed>
  <fix>3d</fix>
</trkpt>
<trkpt lat="64.1624777" lon="-139.8402246">
  <ele>1109.09</ele>
  <time>2026-09-01T20:02:15Z</time>
  <course>180.78</course>
  <speed>0.0</speed>
  <fix>3d</fix>
</trkpt>
<trkpt lat="64.1624777" lon="-139.8402246">
  <ele>1109.09</ele>
  <time>2026-09-01T20:02:15Z</time>
  <course>5.76</course>
  <speed>0.0</speed>
  <fix>3d</fix>
</trkpt>
<trkpt lat="64.1624777" lon="-139.8402246">
  <ele>1109.09</ele>
  <time>2026-09-01T20:02:15Z</time>
  <course>180.78</course>
  <speed>0.0</speed>
  <fix>3d</fix>
</trkpt>
<trkpt lat="64.1624777" lon="-139.8402246">
  <ele>1109.09</ele>
  <time>2026-09-01T20:02:15Z</time>
  <course>5.76</course>
  <speed>0.0</speed>
  <fix>3d</fix>
</trkpt>
<trkpt lat="64.1624777" lon="-139.8402246">
  <ele>1109.09</ele>
  <time>2026-09-01T20:02:15Z</time>
  <course>180.78</course>
  <speed>0.0</speed>
  <fix>3d</fix>
</trkpt>
<trkpt lat="64.1624777" lon="-139.8402246">
  <ele>1109.09</ele>
  <time>2026-09-01T20:02:15Z</time>
  <course>5.76</course>
  <speed>0.0</speed>
  <fix>3d</fix>
</trkpt>
<trkpt lat="64.1624777" lon="-139.8402246">
  <ele>1109.09</ele>
  <time>2026-09-01T20:02:15Z</time>
  <course>180.78</course>
  <speed>0.0</speed>
  <fix>3d</fix>
</trkpt>
<trkpt lat="64.1624777" lon="-139.8402246">
  <ele>1109.1</ele>
  <time>2026-09-01T20:02:15Z</time>
  <course>5.76</course>
  <speed>0.0</speed>
  <fix>3d</fix>
</trkpt>
<trkpt lat="64.1624777" lon="-139.8402246">
  <ele>1109.09</ele>
  <time>2026-09-01T20:02:15Z</time>
  <course>180.78</course>
  <speed>0.0</speed>
  <fix>3d</fix>
</trkpt>
<trkpt lat="64.1624777" lon="-139.8402246">
  <ele>1109.1</ele>
  <time>2026-09-01T20:02:15Z</time>
  <course>5.76</course>
  <speed>0.0</speed>
  <fix>3d</fix>
</trkpt>
<trkpt lat="64.1624777" lon="-139.8402246">
  <ele>1109.09</ele>
  <time>2026-09-01T20:02:15Z</time>
  <course>180.78</course>
  <speed>0.0</speed>
  <fix>3d</fix>
</trkpt>
<trkpt lat="64.1624777" lon="-139.8402246">
  <ele>1109.1</ele>
  <time>2026-09-01T20:02:15Z</time>
  <course>5.76</course>
  <speed>0.0</speed>
  <fix>3d</fix>
</trkpt>
<trkpt lat="64.1624777" lon="-139.8402246">
  <ele>1109.09</ele>
  <time>2026-09-01T20:02:15Z</time>
  <course>180.78</course>
  <speed>0.0</speed>
  <fix>3d</fix>
</trkpt>
<trkpt lat="64.1624777" lon="-139.8402246">
  <ele>1109.1</ele>
  <time>2026-09-01T20:02:15Z</time>
  <course>5.76</course>
  <speed>0.0</speed>
  <fix>3d</fix>
</trkpt>
<trkpt lat="64.1624777" lon="-139.8402246">
  <ele>1109.09</ele>
  <time>2026-09-01T20:02:15Z</time>
  <course>180.78</course>
  <speed>0.0</speed>
  <fix>3d</fix>
</trkpt>
<trkpt lat="64.1624777" lon="-139.8402246">
  <ele>1109.11</ele>
  <time>2026-09-01T20:02:15Z</time>
  <course>5.76</course>
  <speed>0.0</speed>
  <fix>3d</fix>
</trkpt>
<trkpt lat="64.1624777" lon="-139.8402246">
  <ele>1109.09</ele>
  <time>2026-09-01T20:02:15Z</time>
  <course>180.78</course>
  <speed>0.0</speed>
  <fix>3d</fix>
</trkpt>
<trkpt lat="64.1624777" lon="-139.8402246">
  <ele>1109.11</ele>
  <time>2026-09-01T20:02:15Z</time>
  <course>5.76</course>
  <speed>0.0</speed>
  <fix>3d</fix>
</trkpt>
<trkpt lat="64.1624777" lon="-139.8402246">
  <ele>1109.09</ele>
  <time>2026-09-01T20:02:15Z</time>
  <course>180.78</course>
  <speed>0.0</speed>
  <fix>3d</fix>
</trkpt>
<trkpt lat="64.1624777" lon="-139.8402246">
  <ele>1109.11</ele>
  <time>2026-09-01T20:02:15Z</time>
  <course>5.76</course>
  <speed>0.0</speed>
  <fix>3d</fix>
</trkpt>
<trkpt lat="64.1624777" lon="-139.8402246">
  <ele>1109.09</ele>
  <time>2026-09-01T20:02:15Z</time>
  <course>180.78</course>
  <speed>0.0</speed>
  <fix>3d</fix>
</trkpt>
<trkpt lat="64.1624777" lon="-139.8402246">
  <ele>1109.11</ele>
  <time>2026-09-01T20:02:15Z</time>
  <course>5.76</course>
  <speed>0.0</speed>
  <fix>3d</fix>
</trkpt>
<trkpt lat="64.1624777" lon="-139.8402246">
  <ele>1109.09</ele>
  <time>2026-09-01T20:02:15Z</time>
  <course>180.78</course>
  <speed>0.0</speed>
  <fix>3d</fix>
</trkpt>
<trkpt lat="64.1624777" lon="-139.8402246">
  <ele>1109.11</ele>
  <time>2026-09-01T20:02:15Z</time>
  <course>5.76</course>
  <speed>0.0</speed>
  <fix>3d</fix>
</trkpt>
<trkpt lat="64.1624777" lon="-139.8402246">
  <ele>1109.09</ele>
  <time>2026-09-01T20:02:15Z</time>
  <course>180.78</course>
  <speed>0.0</speed>
  <fix>3d</fix>
</trkpt>
<trkpt lat="64.1624777" lon="-139.8402246">
  <ele>1109.12</ele>
  <time>2026-09-01T20:02:15Z</time>
  <course>5.76</course>
  <speed>0.0</speed>
  <fix>3d</fix>
</trkpt>
<trkpt lat="64.1624777" lon="-139.8402246">
  <ele>1109.09</ele>
  <time>2026-09-01T20:02:15Z</time>
  <course>180.78</course>
  <speed>0.0</speed>
  <fix>3d</fix>
</trkpt>
<trkpt lat="64.1624777" lon="-139.8402246">
  <ele>1109.12</ele>
  <time>2026-09-01T20:02:15Z</time>
  <course>5.76</course>
  <speed>0.0</speed>
  <fix>3d</fix>
</trkpt>
<trkpt lat="64.1624777" lon="-139.8402246">
  <ele>1109.09</ele>
  <time>2026-09-01T20:02:15Z</time>
  <course>180.78</course>
  <speed>0.0</speed>
  <fix>3d</fix>
</trkpt>
<trkpt lat="64.1624777" lon="-139.8402246">
  <ele>1109.12</ele>
  <time>2026-09-01T20:02:15Z</time>
  <course>5.76</course>
  <speed>0.0</speed>
  <fix>3d</fix>
</trkpt>
<trkpt lat="64.1624777" lon="-139.8402246">
  <ele>1109.09</ele>
  <time>2026-09-01T20:02:15Z</time>
  <course>180.78</course>
  <speed>0.0</speed>
  <fix>3d</fix>
</trkpt>
<trkpt lat="64.1624777" lon="-139.8402246">
  <ele>1109.12</ele>
  <time>2026-09-01T20:02:15Z</time>
  <course>5.76</course>
  <speed>0.0</speed>
  <fix>3d</fix>
</trkpt>
<trkpt lat="64.1624777" lon="-139.8402246">
  <ele>1109.09</ele>
  <time>2026-09-01T20:02:15Z</time>
  <course>180.78</course>
  <speed>0.0</speed>
  <fix>3d</fix>
</trkpt>
<trkpt lat="64.1624777" lon="-139.8402246">
  <ele>1109.13</ele>
  <time>2026-09-01T20:02:15Z</time>
  <course>5.76</course>
  <speed>0.0</speed>
  <fix>3d</fix>
</trkpt>
<trkpt lat="64.1624777" lon="-139.8402246">
  <ele>1109.09</ele>
  <time>2026-09-01T20:02:15Z</time>
  <course>180.78</course>
  <speed>0.0</speed>
  <fix>3d</fix>
</trkpt>
<trkpt lat="64.1624777" lon="-139.8402246">
  <ele>1109.13</ele>
  <time>2026-09-01T20:02:15Z</time>
  <course>5.76</course>
  <speed>0.0</speed>
  <fix>3d</fix>
</trkpt>
<trkpt lat="64.1624777" lon="-139.8402246">
  <ele>1109.09</ele>
  <time>2026-09-01T20:02:15Z</time>
  <course>180.78</course>
  <speed>0.0</speed>
  <fix>3d</fix>
</trkpt>
<trkpt lat="64.1624777" lon="-139.8402246">
  <ele>1109.13</ele>
  <time>2026-09-01T20:02:15Z</time>
  <course>5.76</course>
  <speed>0.0</speed>
  <fix>3d</fix>
</trkpt>
<trkpt lat="64.1624777" lon="-139.8402246">
  <ele>1109.09</ele>
  <time>2026-09-01T20:02:15Z</time>
  <course>180.78</course>
  <speed>0.0</speed>
  <fix>3d</fix>
</trkpt>
<trkpt lat="64.1624777" lon="-139.8402246">
  <ele>1109.13</ele>
  <time>2026-09-01T20:02:15Z</time>
  <course>5.76</course>
  <speed>0.0</speed>
  <fix>3d</fix>
</trkpt>
<trkpt lat="64.1624777" lon="-139.8402246">
  <ele>1109.09</ele>
  <time>2026-09-01T20:02:15Z</time>
  <course>180.78</course>
  <speed>0.0</speed>
  <fix>3d</fix>
</trkpt>
<trkpt lat="64.1624777" lon="-139.8402246">
  <ele>1109.13</ele>
  <time>2026-09-01T20:02:15Z</time>
  <course>5.76</course>
  <speed>0.0</speed>
  <fix>3d</fix>
</trkpt>
<trkpt lat="64.1624777" lon="-139.8402246">
  <ele>1109.09</ele>
  <time>2026-09-01T20:02:15Z</time>
  <course>180.78</course>
  <speed>0.0</speed>
  <fix>3d</fix>
</trkpt>
<trkpt lat="64.1624777" lon="-139.8402246">
  <ele>1109.13</ele>
  <time>2026-09-01T20:02:15Z</time>
  <course>5.76</course>
  <speed>0.0</speed>
  <fix>3d</fix>
</trkpt>
<trkpt lat="64.1624777" lon="-139.8402246">
  <ele>1109.09</ele>
  <time>2026-09-01T20:02:15Z</time>
  <course>180.78</course>
  <speed>0.0</speed>
  <fix>3d</fix>
</trkpt>
<trkpt lat="64.1624777" lon="-139.8402246">
  <ele>1109.13</ele>
  <time>2026-09-01T20:02:15Z</time>
  <course>5.76</course>
  <speed>0.0</speed>
  <fix>3d</fix>
</trkpt>
<trkpt lat="64.1624777" lon="-139.8402246">
  <ele>1109.09</ele>
  <time>2026-09-01T20:02:15Z</time>
  <course>180.78</course>
  <speed>0.0</speed>
  <fix>3d</fix>
</trkpt>
<trkpt lat="64.1624777" lon="-139.8402246">
  <ele>1109.13</ele>
  <time>2026-09-01T20:02:15Z</time>
  <course>5.76</course>
  <speed>0.0</speed>
  <fix>3d</fix>
</trkpt>
<trkpt lat="64.1624777" lon="-139.8402246">
  <ele>1109.09</ele>
  <time>2026-09-01T20:02:15Z</time>
  <course>180.78</course>
  <speed>0.0</speed>
  <fix>3d</fix>
</trkpt>
<trkpt lat="64.1624777" lon="-139.8402246">
  <ele>1109.12</ele>
  <time>2026-09-01T20:02:15Z</time>
  <course>5.76</course>
  <speed>0.0</speed>
  <fix>3d</fix>
</trkpt>
<trkpt lat="64.1624777" lon="-139.8402246">
  <ele>1109.09</ele>
  <time>2026-09-01T20:02:15Z</time>
  <course>180.78</course>
  <speed>0.0</speed>
  <fix>3d</fix>
</trkpt>
<trkpt lat="64.1624777" lon="-139.8402246">
  <ele>1109.12</ele>
  <time>2026-09-01T20:02:15Z</time>
  <course>5.76</course>
  <speed>0.0</speed>
  <fix>3d</fix>
</trkpt>
<trkpt lat="64.1624777" lon="-139.8402246">
  <ele>1109.09</ele>
  <time>2026-09-01T20:02:15Z</time>
  <course>180.78</course>
  <speed>0.0</speed>
  <fix>3d</fix>
</trkpt>
<trkpt lat="64.1624777" lon="-139.8402246">
  <ele>1109.12</ele>
  <time>2026-09-01T20:02:15Z</time>
  <course>5.77</course>
  <speed>0.0</speed>
  <fix>3d</fix>
</trkpt>
<trkpt lat="64.1624777" lon="-139.8402246">
  <ele>1109.09</ele>
  <time>2026-09-01T20:02:15Z</time>
  <course>180.78</course>
  <speed>0.0</speed>
  <fix>3d</fix>
</trkpt>
<trkpt lat="64.1624777" lon="-139.8402246">
  <ele>1109.12</ele>
  <time>2026-09-01T20:02:15Z</time>
  <course>5.77</course>
  <speed>0.0</speed>
  <fix>3d</fix>
</trkpt>
<trkpt lat="64.1624777" lon="-139.8402246">
  <ele>1109.09</ele>
  <time>2026-09-01T20:02:15Z</time>
  <course>180.78</course>
  <speed>0.0</speed>
  <fix>3d</fix>
</trkpt>
<trkpt lat="64.1624777" lon="-139.8402246">
  <ele>1109.12</ele>
  <time>2026-09-01T20:02:15Z</time>
  <course>5.77</course>
  <speed>0.0</speed>
  <fix>3d</fix>
</trkpt>
<trkpt lat="64.1624777" lon="-139.8402246">
  <ele>1109.09</ele>
  <time>2026-09-01T20:02:15Z</time>
  <course>180.78</course>
  <speed>0.0</speed>
  <fix>3d</fix>
</trkpt>
<trkpt lat="64.1624777" lon="-139.8402246">
  <ele>1109.12</ele>
  <time>2026-09-01T20:02:15Z</time>
  <course>5.77</course>
  <speed>0.0</speed>
  <fix>3d</fix>
</trkpt>
<trkpt lat="64.1624777" lon="-139.8402246">
  <ele>1109.09</ele>
  <time>2026-09-01T20:02:15Z</time>
  <course>180.78</course>
  <speed>0.0</speed>
  <fix>3d</fix>
</trkpt>
<trkpt lat="64.1624777" lon="-139.8402246">
  <ele>1109.12</ele>
  <time>2026-09-01T20:02:15Z</time>
  <course>5.77</course>
  <speed>0.0</speed>
  <fix>3d</fix>
</trkpt>
<trkpt lat="64.1624777" lon="-139.8402246">
  <ele>1109.09</ele>
  <time>2026-09-01T20:02:15Z</time>
  <course>180.78</course>
  <speed>0.0</speed>
  <fix>3d</fix>
</trkpt>
<trkpt lat="64.1624777" lon="-139.8402246">
  <ele>1109.12</ele>
  <time>2026-09-01T20:02:15Z</time>
  <course>5.77</course>
  <speed>0.0</speed>
  <fix>3d</fix>
</trkpt>
<trkpt lat="64.1624777" lon="-139.8402246">
  <ele>1109.09</ele>
  <time>2026-09-01T20:02:15Z</time>
  <course>180.78</course>
  <speed>0.0</speed>
  <fix>3d</fix>
</trkpt>
<trkpt lat="64.1624777" lon="-139.8402246">
  <ele>1109.13</ele>
  <time>2026-09-01T20:02:15Z</time>
  <course>5.77</course>
  <speed>0.0</speed>
  <fix>3d</fix>
</trkpt>
<trkpt lat="64.1624777" lon="-139.8402246">
  <ele>1109.09</ele>
  <time>2026-09-01T20:02:15Z</time>
  <course>180.78</course>
  <speed>0.0</speed>
  <fix>3d</fix>
</trkpt>
<trkpt lat="64.1624777" lon="-139.8402246">
  <ele>1109.13</ele>
  <time>2026-09-01T20:02:15Z</time>
  <course>5.77</course>
  <speed>0.0</speed>
  <fix>3d</fix>
</trkpt>
<trkpt lat="64.1624777" lon="-139.8402246">
  <ele>1109.09</ele>
  <time>2026-09-01T20:02:15Z</time>
  <course>180.78</course>
  <speed>0.0</speed>
  <fix>3d</fix>
</trkpt>
<trkpt lat="64.1624777" lon="-139.8402246">
  <ele>1109.13</ele>
  <time>2026-09-01T20:02:15Z</time>
  <course>5.77</course>
  <speed>0.0</speed>
  <fix>3d</fix>
</trkpt>
<trkpt lat="64.1624777" lon="-139.8402246">
  <ele>1109.09</ele>
  <time>2026-09-01T20:02:15Z</time>
  <course>180.78</course>
  <speed>0.0</speed>
  <fix>3d</fix>
</trkpt>
<trkpt lat="64.1624777" lon="-139.8402246">
  <ele>1109.13</ele>
  <time>2026-09-01T20:02:15Z</time>
  <course>5.77</course>
  <speed>0.0</speed>
  <fix>3d</fix>
</trkpt>
<trkpt lat="64.1624777" lon="-139.8402246">
  <ele>1109.09</ele>
  <time>2026-09-01T20:02:15Z</time>
  <course>180.78</course>
  <speed>0.0</speed>
  <fix>3d</fix>
</trkpt>
<trkpt lat="64.1624777" lon="-139.8402246">
  <ele>1109.13</ele>
  <time>2026-09-01T20:02:15Z</time>
  <course>5.77</course>
  <speed>0.0</speed>
  <fix>3d</fix>
</trkpt>
<trkpt lat="64.1624777" lon="-139.8402246">
  <ele>1109.09</ele>
  <time>2026-09-01T20:02:15Z</time>
  <course>180.78</course>
  <speed>0.0</speed>
  <fix>3d</fix>
</trkpt>
<trkpt lat="64.1624777" lon="-139.8402246">
  <ele>1109.13</ele>
  <time>2026-09-01T20:02:15Z</time>
  <course>5.78</course>
  <speed>0.0</speed>
  <fix>3d</fix>
</trkpt>
<trkpt lat="64.1624777" lon="-139.8402246">
  <ele>1109.09</ele>
  <time>2026-09-01T20:02:15Z</time>
  <course>180.78</course>
  <speed>0.0</speed>
  <fix>3d</fix>
</trkpt>
<trkpt lat="64.1624777" lon="-139.8402246">
  <ele>1109.14</ele>
  <time>2026-09-01T20:02:15Z</time>
  <course>5.78</course>
  <speed>0.0</speed>
  <fix>3d</fix>
</trkpt>
<trkpt lat="64.1624777" lon="-139.8402246">
  <ele>1109.09</ele>
  <time>2026-09-01T20:02:15Z</time>
  <course>180.78</course>
  <speed>0.0</speed>
  <fix>3d</fix>
</trkpt>
<trkpt lat="64.1624777" lon="-139.8402246">
  <ele>1109.14</ele>
  <time>2026-09-01T20:02:15Z</time>
  <course>5.78</course>
  <speed>0.0</speed>
  <fix>3d</fix>
</trkpt>
<trkpt lat="64.1624777" lon="-139.8402246">
  <ele>1109.09</ele>
  <time>2026-09-01T20:02:15Z</time>
  <course>180.78</course>
  <speed>0.0</speed>
  <fix>3d</fix>
</trkpt>
<trkpt lat="64.1624777" lon="-139.8402246">
  <ele>1109.14</ele>
  <time>2026-09-01T20:02:15Z</time>
  <course>5.78</course>
  <speed>0.0</speed>
  <fix>3d</fix>
</trkpt>
<trkpt lat="64.1624777" lon="-139.8402246">
  <ele>1109.09</ele>
  <time>2026-09-01T20:02:15Z</time>
  <course>180.78</course>
  <speed>0.0</speed>
  <fix>3d</fix>
</trkpt>
<trkpt lat="64.1624777" lon="-139.8402246">
  <ele>1109.14</ele>
  <time>2026-09-01T20:02:15Z</time>
  <course>5.78</course>
  <speed>0.0</speed>
  <fix>3d</fix>
</trkpt>
<trkpt lat="64.1624777" lon="-139.8402246">
  <ele>1109.09</ele>
  <time>2026-09-01T20:02:15Z</time>
  <course>180.78</course>
  <speed>0.0</speed>
  <fix>3d</fix>
</trkpt>
<trkpt lat="64.1624777" lon="-139.8402246">
  <ele>1109.14</ele>
  <time>2026-09-01T20:02:15Z</time>
  <course>5.78</course>
  <speed>0.0</speed>
  <fix>3d</fix>
</trkpt>
<trkpt lat="64.1624777" lon="-139.8402246">
  <ele>1109.09</ele>
  <time>2026-09-01T20:02:15Z</time>
  <course>180.78</course>
  <speed>0.0</speed>
  <fix>3d</fix>
</trkpt>
<trkpt lat="64.1624777" lon="-139.8402246">
  <ele>1109.09</ele>
  <time>2026-09-01T20:02:15Z</time>
  <course>5.78</course>
  <speed>0.0</speed>
  <fix>3d</fix>
</trkpt>
<trkpt lat="64.1624777" lon="-139.8402246">
  <ele>1109.09</ele>
  <time>2026-09-01T20:02:15Z</time>
  <course>180.78</course>
  <speed>0.0</speed>
  <fix>3d</fix>
</trkpt>
<trkpt lat="64.1624777" lon="-139.8402246">
  <ele>1109.09</ele>
  <time>2026-09-01T20:02:15Z</time>
  <course>5.78</course>
  <speed>0.0</speed>
  <fix>3d</fix>
</trkpt>
<trkpt lat="64.1624777" lon="-139.8402246">
  <ele>1109.09</ele>
  <time>2026-09-01T20:02:15Z</time>
  <course>180.78</course>
  <speed>0.0</speed>
  <fix>3d</fix>
</trkpt>
<trkpt lat="64.1624777" lon="-139.8402246">
  <ele>1109.09</ele>
  <time>2026-09-01T20:02:15Z</time>
  <course>5.78</course>
  <speed>0.0</speed>
  <fix>3d</fix>
</trkpt>
<trkpt lat="64.1624777" lon="-139.8402246">
  <ele>1109.09</ele>
  <time>2026-09-01T20:02:15Z</time>
  <course>180.78</course>
  <speed>0.0</speed>
  <fix>3d</fix>
</trkpt>
<trkpt lat="64.1624777" lon="-139.8402246">
  <ele>1109.09</ele>
  <time>2026-09-01T20:02:15Z</time>
  <course>5.79</course>
  <speed>0.0</speed>
  <fix>3d</fix>
</trkpt>
<trkpt lat="64.1624777" lon="-139.8402246">
  <ele>1109.09</ele>
  <time>2026-09-01T20:02:15Z</time>
  <course>180.78</course>
  <speed>0.0</speed>
  <fix>3d</fix>
</trkpt>
<trkpt lat="64.1624777" lon="-139.8402246">
  <ele>1109.08</ele>
  <time>2026-09-01T20:02:15Z</time>
  <course>5.79</course>
  <speed>0.0</speed>
  <fix>3d</fix>
</trkpt>
<trkpt lat="64.1624777" lon="-139.8402246">
  <ele>1109.09</ele>
  <time>2026-09-01T20:02:15Z</time>
  <course>180.78</course>
  <speed>0.0</speed>
  <fix>3d</fix>
</trkpt>
<trkpt lat="64.1624777" lon="-139.8402246">
  <ele>1109.08</ele>
  <time>2026-09-01T20:02:15Z</time>
  <course>5.79</course>
  <speed>0.0</speed>
  <fix>3d</fix>
</trkpt>
<trkpt lat="64.1624777" lon="-139.8402246">
  <ele>1109.09</ele>
  <time>2026-09-01T20:02:15Z</time>
  <course>180.78</course>
  <speed>0.0</speed>
  <fix>3d</fix>
</trkpt>
<trkpt lat="64.1624777" lon="-139.8402246">
  <ele>1109.07</ele>
  <time>2026-09-01T20:02:15Z</time>
  <course>5.79</course>
  <speed>0.0</speed>
  <fix>3d</fix>
</trkpt>
<trkpt lat="64.1624777" lon="-139.8402246">
  <ele>1109.09</ele>
  <time>2026-09-01T20:02:15Z</time>
  <course>180.78</course>
  <speed>0.0</speed>
  <fix>3d</fix>
</trkpt>
<trkpt lat="64.1624777" lon="-139.8402246">
  <ele>1109.07</ele>
  <time>2026-09-01T20:02:15Z</time>
  <course>5.79</course>
  <speed>0.0</speed>
  <fix>3d</fix>
</trkpt>
<trkpt lat="64.1624777" lon="-139.8402246">
  <ele>1109.09</ele>
  <time>2026-09-01T20:02:15Z</time>
  <course>180.78</course>
  <speed>0.0</speed>
  <fix>3d</fix>
</trkpt>
<trkpt lat="64.1624777" lon="-139.8402246">
  <ele>1109.06</ele>
  <time>2026-09-01T20:02:15Z</time>
  <course>5.79</course>
  <speed>0.0</speed>
  <fix>3d</fix>
</trkpt>
<trkpt lat="64.1624777" lon="-139.8402246">
  <ele>1109.09</ele>
  <time>2026-09-01T20:02:15Z</time>
  <course>180.78</course>
  <speed>0.0</speed>
  <fix>3d</fix>
</trkpt>
<trkpt lat="64.1624777" lon="-139.8402246">
  <ele>1109.06</ele>
  <time>2026-09-01T20:02:15Z</time>
  <course>5.79</course>
  <speed>0.0</speed>
  <fix>3d</fix>
</trkpt>
<trkpt lat="64.1624777" lon="-139.8402246">
  <ele>1109.09</ele>
  <time>2026-09-01T20:02:15Z</time>
  <course>180.78</course>
  <speed>0.0</speed>
  <fix>3d</fix>
</trkpt>
<trkpt lat="64.1624777" lon="-139.8402246">
  <ele>1109.05</ele>
  <time>2026-09-01T20:02:15Z</time>
  <course>5.79</course>
  <speed>0.0</speed>
  <fix>3d</fix>
</trkpt>
<trkpt lat="64.1624777" lon="-139.8402246">
  <ele>1109.09</ele>
  <time>2026-09-01T20:02:15Z</time>
  <course>180.78</course>
  <speed>0.0</speed>
  <fix>3d</fix>
</trkpt>
<trkpt lat="64.1624777" lon="-139.8402246">
  <ele>1109.05</ele>
  <time>2026-09-01T20:02:15Z</time>
  <course>5.8</course>
  <speed>0.0</speed>
  <fix>3d</fix>
</trkpt>
<trkpt lat="64.1624777" lon="-139.8402246">
  <ele>1109.09</ele>
  <time>2026-09-01T20:02:15Z</time>
  <course>180.78</course>
  <speed>0.0</speed>
  <fix>3d</fix>
</trkpt>
<trkpt lat="64.1624777" lon="-139.8402246">
  <ele>1109.04</ele>
  <time>2026-09-01T20:02:15Z</time>
  <course>5.8</course>
  <speed>0.0</speed>
  <fix>3d</fix>
</trkpt>
<trkpt lat="64.1624777" lon="-139.8402246">
  <ele>1109.09</ele>
  <time>2026-09-01T20:02:15Z</time>
  <course>180.78</course>
  <speed>0.0</speed>
  <fix>3d</fix>
</trkpt>
<trkpt lat="64.1624777" lon="-139.8402246">
  <ele>1109.04</ele>
  <time>2026-09-01T20:02:15Z</time>
  <course>5.8</course>
  <speed>0.0</speed>
  <fix>3d</fix>
</trkpt>
<trkpt lat="64.1624777" lon="-139.8402246">
  <ele>1109.09</ele>
  <time>2026-09-01T20:02:15Z</time>
  <course>180.78</course>
  <speed>0.0</speed>
  <fix>3d</fix>
</trkpt>
<trkpt lat="64.1624777" lon="-139.8402246">
  <ele>1109.03</ele>
  <time>2026-09-01T20:02:15Z</time>
  <course>5.8</course>
  <speed>0.0</speed>
  <fix>3d</fix>
</trkpt>
<trkpt lat="64.1624777" lon="-139.8402246">
  <ele>1109.09</ele>
  <time>2026-09-01T20:02:15Z</time>
  <course>180.78</course>
  <speed>0.0</speed>
  <fix>3d</fix>
</trkpt>
<trkpt lat="64.1624777" lon="-139.8402246">
  <ele>1109.02</ele>
  <time>2026-09-01T20:02:15Z</time>
  <course>5.8</course>
  <speed>0.0</speed>
  <fix>3d</fix>
</trkpt>
<trkpt lat="64.1624777" lon="-139.8402246">
  <ele>1109.09</ele>
  <time>2026-09-01T20:02:15Z</time>
  <course>180.78</course>
  <speed>0.0</speed>
  <fix>3d</fix>
</trkpt>
<trkpt lat="64.1624777" lon="-139.8402246">
  <ele>1109.02</ele>
  <time>2026-09-01T20:02:15Z</time>
  <course>5.8</course>
  <speed>0.0</speed>
  <fix>3d</fix>
</trkpt>
<trkpt lat="64.1624777" lon="-139.8402246">
  <ele>1109.09</ele>
  <time>2026-09-01T20:02:15Z</time>
  <course>180.78</course>
  <speed>0.0</speed>
  <fix>3d</fix>
</trkpt>
<trkpt lat="64.1624777" lon="-139.8402246">
  <ele>1109.01</ele>
  <time>2026-09-01T20:02:15Z</time>
  <course>5.81</course>
  <speed>0.0</speed>
  <fix>3d</fix>
</trkpt>
<trkpt lat="64.1624777" lon="-139.8402246">
  <ele>1109.09</ele>
  <time>2026-09-01T20:02:15Z</time>
  <course>180.78</course>
  <speed>0.0</speed>
  <fix>3d</fix>
</trkpt>
<trkpt lat="64.1624777" lon="-139.8402246">
  <ele>1109.01</ele>
  <time>2026-09-01T20:02:15Z</time>
  <course>5.81</course>
  <speed>0.0</speed>
  <fix>3d</fix>
</trkpt>
<trkpt lat="64.1624777" lon="-139.8402246">
  <ele>1109.09</ele>
  <time>2026-09-01T20:02:15Z</time>
  <course>180.78</course>
  <speed>0.0</speed>
  <fix>3d</fix>
</trkpt>
<trkpt lat="64.1624777" lon="-139.8402246">
  <ele>1109.0</ele>
  <time>2026-09-01T20:02:15Z</time>
  <course>5.81</course>
  <speed>0.0</speed>
  <fix>3d</fix>
</trkpt>
<trkpt lat="64.1624777" lon="-139.8402246">
  <ele>1109.09</ele>
  <time>2026-09-01T20:02:15Z</time>
  <course>180.78</course>
  <speed>0.0</speed>
  <fix>3d</fix>
</trkpt>
<trkpt lat="64.1624777" lon="-139.8402246">
  <ele>1108.99</ele>
  <time>2026-09-01T20:02:15Z</time>
  <course>5.81</course>
  <speed>0.0</speed>
  <fix>3d</fix>
</trkpt>
<trkpt lat="64.1624777" lon="-139.8402246">
  <ele>1109.09</ele>
  <time>2026-09-01T20:02:15Z</time>
  <course>180.78</course>
  <speed>0.0</speed>
  <fix>3d</fix>
</trkpt>
<trkpt lat="64.1624777" lon="-139.8402246">
  <ele>1108.99</ele>
  <time>2026-09-01T20:02:15Z</time>
  <course>5.81</course>
  <speed>0.0</speed>
  <fix>3d</fix>
</trkpt>
<trkpt lat="64.1624777" lon="-139.8402246">
  <ele>1109.09</ele>
  <time>2026-09-01T20:02:15Z</time>
  <course>180.78</course>
  <speed>0.0</speed>
  <fix>3d</fix>
</trkpt>
<trkpt lat="64.1624777" lon="-139.8402246">
  <ele>1108.98</ele>
  <time>2026-09-01T20:02:15Z</time>
  <course>5.81</course>
  <speed>0.0</speed>
  <fix>3d</fix>
</trkpt>
<trkpt lat="64.1624777" lon="-139.8402246">
  <ele>1109.09</ele>
  <time>2026-09-01T20:02:15Z</time>
  <course>180.78</course>
  <speed>0.0</speed>
  <fix>3d</fix>
</trkpt>
<trkpt lat="64.1624777" lon="-139.8402246">
  <ele>1108.98</ele>
  <time>2026-09-01T20:02:15Z</time>
  <course>5.82</course>
  <speed>0.0</speed>
  <fix>3d</fix>
</trkpt>
<trkpt lat="64.1624777" lon="-139.8402246">
  <ele>1109.09</ele>
  <time>2026-09-01T20:02:15Z</time>
  <course>180.78</course>
  <speed>0.0</speed>
  <fix>3d</fix>
</trkpt>
<trkpt lat="64.1624777" lon="-139.8402246">
  <ele>1108.98</ele>
  <time>2026-09-01T20:02:15Z</time>
  <course>5.82</course>
  <speed>0.0</speed>
  <fix>3d</fix>
</trkpt>
<trkpt lat="64.1624777" lon="-139.8402246">
  <ele>1109.09</ele>
  <time>2026-09-01T20:02:15Z</time>
  <course>180.78</course>
  <speed>0.0</speed>
  <fix>3d</fix>
</trkpt>
<trkpt lat="64.1624777" lon="-139.8402246">
  <ele>1108.98</ele>
  <time>2026-09-01T20:02:15Z</time>
  <course>5.82</course>
  <speed>0.0</speed>
  <fix>3d</fix>
</trkpt>
<trkpt lat="64.1624777" lon="-139.8402246">
  <ele>1109.09</ele>
  <time>2026-09-01T20:02:15Z</time>
  <course>180.78</course>
  <speed>0.0</speed>
  <fix>3d</fix>
</trkpt>
<trkpt lat="64.1624777" lon="-139.8402246">
  <ele>1108.98</ele>
  <time>2026-09-01T20:02:15Z</time>
  <course>5.82</course>
  <speed>0.0</speed>
  <fix>3d</fix>
</trkpt>
<trkpt lat="64.1624777" lon="-139.8402246">
  <ele>1109.09</ele>
  <time>2026-09-01T20:02:15Z</time>
  <course>180.78</course>
  <speed>0.0</speed>
  <fix>3d</fix>
</trkpt>
<trkpt lat="64.1624777" lon="-139.8402246">
  <ele>1108.97</ele>
  <time>2026-09-01T20:02:15Z</time>
  <course>5.82</course>
  <speed>0.0</speed>
  <fix>3d</fix>
</trkpt>
<trkpt lat="64.1624777" lon="-139.8402246">
  <ele>1109.09</ele>
  <time>2026-09-01T20:02:15Z</time>
  <course>180.78</course>
  <speed>0.0</speed>
  <fix>3d</fix>
</trkpt>
<trkpt lat="64.1624777" lon="-139.8402246">
  <ele>1108.97</ele>
  <time>2026-09-01T20:02:15Z</time>
  <course>5.82</course>
  <speed>0.0</speed>
  <fix>3d</fix>
</trkpt>
<trkpt lat="64.1624777" lon="-139.8402246">
  <ele>1109.09</ele>
  <time>2026-09-01T20:02:15Z</time>
  <course>180.78</course>
  <speed>0.0</speed>
  <fix>3d</fix>
</trkpt>
<trkpt lat="64.1624777" lon="-139.8402246">
  <ele>1108.97</ele>
  <time>2026-09-01T20:02:15Z</time>
  <course>5.83</course>
  <speed>0.0</speed>
  <fix>3d</fix>
</trkpt>
<trkpt lat="64.1624777" lon="-139.8402246">
  <ele>1109.09</ele>
  <time>2026-09-01T20:02:15Z</time>
  <course>180.78</course>
  <speed>0.0</speed>
  <fix>3d</fix>
</trkpt>
<trkpt lat="64.1624777" lon="-139.8402246">
  <ele>1108.96</ele>
  <time>2026-09-01T20:02:15Z</time>
  <course>5.83</course>
  <speed>0.0</speed>
  <fix>3d</fix>
</trkpt>
<trkpt lat="64.1624777" lon="-139.8402246">
  <ele>1109.09</ele>
  <time>2026-09-01T20:02:15Z</time>
  <course>180.78</course>
  <speed>0.0</speed>
  <fix>3d</fix>
</trkpt>
<trkpt lat="64.1624777" lon="-139.8402246">
  <ele>1108.96</ele>
  <time>2026-09-01T20:02:15Z</time>
  <course>5.83</course>
  <speed>0.0</speed>
  <fix>3d</fix>
</trkpt>
<trkpt lat="64.1624777" lon="-139.8402246">
  <ele>1109.09</ele>
  <time>2026-09-01T20:02:15Z</time>
  <course>180.78</course>
  <speed>0.0</speed>
  <fix>3d</fix>
</trkpt>
<trkpt lat="64.1624777" lon="-139.8402246">
  <ele>1108.96</ele>
  <time>2026-09-01T20:02:15Z</time>
  <course>5.83</course>
  <speed>0.0</speed>
  <fix>3d</fix>
</trkpt>
<trkpt lat="64.1624777" lon="-139.8402246">
  <ele>1109.09</ele>
  <time>2026-09-01T20:02:15Z</time>
  <course>180.78</course>
  <speed>0.0</speed>
  <fix>3d</fix>
</trkpt>
<trkpt lat="64.1624777" lon="-139.8402246">
  <ele>1108.96</ele>
  <time>2026-09-01T20:02:15Z</time>
  <course>5.83</course>
  <speed>0.0</speed>
  <fix>3d</fix>
</trkpt>
<trkpt lat="64.1624777" lon="-139.8402246">
  <ele>1109.09</ele>
  <time>2026-09-01T20:02:15Z</time>
  <course>180.78</course>
  <speed>0.0</speed>
  <fix>3d</fix>
</trkpt>
<trkpt lat="64.1624777" lon="-139.8402246">
  <ele>1108.95</ele>
  <time>2026-09-01T20:02:15Z</time>
  <course>5.83</course>
  <speed>0.0</speed>
  <fix>3d</fix>
</trkpt>
<trkpt lat="64.1624777" lon="-139.8402246">
  <ele>1109.09</ele>
  <time>2026-09-01T20:02:15Z</time>
  <course>180.78</course>
  <speed>0.0</speed>
  <fix>3d</fix>
</trkpt>
<trkpt lat="64.1624777" lon="-139.8402245">
  <ele>1108.95</ele>
  <time>2026-09-01T20:02:15Z</time>
  <course>5.84</course>
  <speed>0.0</speed>
  <fix>3d</fix>
</trkpt>
<trkpt lat="64.1624777" lon="-139.8402246">
  <ele>1109.09</ele>
  <time>2026-09-01T20:02:15Z</time>
  <course>180.78</course>
  <speed>0.0</speed>
  <fix>3d</fix>
</trkpt>
<trkpt lat="64.1624777" lon="-139.8402245">
  <ele>1108.95</ele>
  <time>2026-09-01T20:02:15Z</time>
  <course>5.84</course>
  <speed>0.0</speed>
  <fix>3d</fix>
</trkpt>
<trkpt lat="64.1624777" lon="-139.8402246">
  <ele>1109.09</ele>
  <time>2026-09-01T20:02:15Z</time>
  <course>180.78</course>
  <speed>0.0</speed>
  <fix>3d</fix>
</trkpt>
<trkpt lat="64.1624777" lon="-139.8402245">
  <ele>1108.95</ele>
  <time>2026-09-01T20:02:15Z</time>
  <course>5.84</course>
  <speed>0.0</speed>
  <fix>3d</fix>
</trkpt>
<trkpt lat="64.1624777" lon="-139.8402246">
  <ele>1109.09</ele>
  <time>2026-09-01T20:02:15Z</time>
  <course>180.78</course>
  <speed>0.0</speed>
  <fix>3d</fix>
</trkpt>
<trkpt lat="64.1624777" lon="-139.8402245">
  <ele>1108.95</ele>
  <time>2026-09-01T20:02:15Z</time>
  <course>5.84</course>
  <speed>0.0</speed>
  <fix>3d</fix>
</trkpt>
<trkpt lat="64.1624777" lon="-139.8402246">
  <ele>1109.09</ele>
  <time>2026-09-01T20:02:15Z</time>
  <course>180.78</course>
  <speed>0.0</speed>
  <fix>3d</fix>
</trkpt>
<trkpt lat="64.1624777" lon="-139.8402245">
  <ele>1108.95</ele>
  <time>2026-09-01T20:02:15Z</time>
  <course>5.84</course>
  <speed>0.0</speed>
  <fix>3d</fix>
</trkpt>
<trkpt lat="64.1624777" lon="-139.8402246">
  <ele>1109.09</ele>
  <time>2026-09-01T20:02:15Z</time>
  <course>180.78</course>
  <speed>0.0</speed>
  <fix>3d</fix>
</trkpt>
<trkpt lat="64.1624777" lon="-139.8402245">
  <ele>1108.94</ele>
  <time>2026-09-01T20:02:15Z</time>
  <course>5.85</course>
  <speed>0.0</speed>
  <fix>3d</fix>
</trkpt>
<trkpt lat="64.1624777" lon="-139.8402246">
  <ele>1109.09</ele>
  <time>2026-09-01T20:02:15Z</time>
  <course>180.78</course>
  <speed>0.0</speed>
  <fix>3d</fix>
</trkpt>
<trkpt lat="64.1624777" lon="-139.8402245">
  <ele>1108.94</ele>
  <time>2026-09-01T20:02:15Z</time>
  <course>5.85</course>
  <speed>0.0</speed>
  <fix>3d</fix>
</trkpt>
<trkpt lat="64.1624777" lon="-139.8402246">
  <ele>1109.09</ele>
  <time>2026-09-01T20:02:15Z</time>
  <course>180.78</course>
  <speed>0.0</speed>
  <fix>3d</fix>
</trkpt>
<trkpt lat="64.1624777" lon="-139.8402245">
  <ele>1108.94</ele>
  <time>2026-09-01T20:02:15Z</time>
  <course>5.85</course>
  <speed>0.0</speed>
  <fix>3d</fix>
</trkpt>
<trkpt lat="64.1624777" lon="-139.8402246">
  <ele>1109.09</ele>
  <time>2026-09-01T20:02:15Z</time>
  <course>180.78</course>
  <speed>0.0</speed>
  <fix>3d</fix>
</trkpt>
<trkpt lat="64.1624777" lon="-139.8402245">
  <ele>1108.94</ele>
  <time>2026-09-01T20:02:15Z</time>
  <course>5.85</course>
  <speed>0.0</speed>
  <fix>3d</fix>
</trkpt>
<trkpt lat="64.1624777" lon="-139.8402246">
  <ele>1109.09</ele>
  <time>2026-09-01T20:02:15Z</time>
  <course>180.78</course>
  <speed>0.0</speed>
  <fix>3d</fix>
</trkpt>
<trkpt lat="64.1624777" lon="-139.8402245">
  <ele>1108.94</ele>
  <time>2026-09-01T20:02:15Z</time>
  <course>5.85</course>
  <speed>0.0</speed>
  <fix>3d</fix>
</trkpt>
<trkpt lat="64.1624777" lon="-139.8402246">
  <ele>1109.09</ele>
  <time>2026-09-01T20:02:15Z</time>
  <course>180.78</course>
  <speed>0.0</speed>
  <fix>3d</fix>
</trkpt>
<trkpt lat="64.1624777" lon="-139.8402245">
  <ele>1108.94</ele>
  <time>2026-09-01T20:02:15Z</time>
  <course>5.85</course>
  <speed>0.0</speed>
  <fix>3d</fix>
</trkpt>
<trkpt lat="64.1624777" lon="-139.8402246">
  <ele>1109.09</ele>
  <time>2026-09-01T20:02:15Z</time>
  <course>180.78</course>
  <speed>0.0</speed>
  <fix>3d</fix>
</trkpt>
<trkpt lat="64.1624777" lon="-139.8402245">
  <ele>1108.93</ele>
  <time>2026-09-01T20:02:15Z</time>
  <course>5.86</course>
  <speed>0.0</speed>
  <fix>3d</fix>
</trkpt>
<trkpt lat="64.1624777" lon="-139.8402246">
  <ele>1109.09</ele>
  <time>2026-09-01T20:02:15Z</time>
  <course>180.78</course>
  <speed>0.0</speed>
  <fix>3d</fix>
</trkpt>
<trkpt lat="64.1624777" lon="-139.8402245">
  <ele>1108.93</ele>
  <time>2026-09-01T20:02:15Z</time>
  <course>5.86</course>
  <speed>0.0</speed>
  <fix>3d</fix>
</trkpt>
<trkpt lat="64.1624777" lon="-139.8402246">
  <ele>1109.09</ele>
  <time>2026-09-01T20:02:15Z</time>
  <course>180.78</course>
  <speed>0.0</speed>
  <fix>3d</fix>
</trkpt>
<trkpt lat="64.1624777" lon="-139.8402245">
  <ele>1108.93</ele>
  <time>2026-09-01T20:02:15Z</time>
  <course>5.86</course>
  <speed>0.0</speed>
  <fix>3d</fix>
</trkpt>
<trkpt lat="64.1624777" lon="-139.8402246">
  <ele>1109.09</ele>
  <time>2026-09-01T20:02:15Z</time>
  <course>180.78</course>
  <speed>0.0</speed>
  <fix>3d</fix>
</trkpt>
<trkpt lat="64.1624777" lon="-139.8402245">
  <ele>1108.93</ele>
  <time>2026-09-01T20:02:15Z</time>
  <course>5.86</course>
  <speed>0.0</speed>
  <fix>3d</fix>
</trkpt>
<trkpt lat="64.1624777" lon="-139.8402246">
  <ele>1109.09</ele>
  <time>2026-09-01T20:02:15Z</time>
  <course>180.78</course>
  <speed>0.0</speed>
  <fix>3d</fix>
</trkpt>
<trkpt lat="64.1624777" lon="-139.8402245">
  <ele>1108.93</ele>
  <time>2026-09-01T20:02:15Z</time>
  <course>5.86</course>
  <speed>0.0</speed>
  <fix>3d</fix>
</trkpt>
<trkpt lat="64.1624777" lon="-139.8402246">
  <ele>1109.09</ele>
  <time>2026-09-01T20:02:15Z</time>
  <course>180.78</course>
  <speed>0.0</speed>
  <fix>3d</fix>
</trkpt>
<trkpt lat="64.1624777" lon="-139.8402245">
  <ele>1108.92</ele>
  <time>2026-09-01T20:02:15Z</time>
  <course>5.87</course>
  <speed>0.0</speed>
  <fix>3d</fix>
</trkpt>
<trkpt lat="64.1624777" lon="-139.8402246">
  <ele>1109.09</ele>
  <time>2026-09-01T20:02:15Z</time>
  <course>180.78</course>
  <speed>0.0</speed>
  <fix>3d</fix>
</trkpt>
<trkpt lat="64.1624777" lon="-139.8402245">
  <ele>1108.92</ele>
  <time>2026-09-01T20:02:15Z</time>
  <course>5.87</course>
  <speed>0.0</speed>
  <fix>3d</fix>
</trkpt>
<trkpt lat="64.1624777" lon="-139.8402246">
  <ele>1109.09</ele>
  <time>2026-09-01T20:02:15Z</time>
  <course>180.78</course>
  <speed>0.0</speed>
  <fix>3d</fix>
</trkpt>
<trkpt lat="64.1624777" lon="-139.8402245">
  <ele>1108.92</ele>
  <time>2026-09-01T20:02:15Z</time>
  <course>5.87</course>
  <speed>0.0</speed>
  <fix>3d</fix>
</trkpt>
<trkpt lat="64.1624777" lon="-139.8402246">
  <ele>1109.09</ele>
  <time>2026-09-01T20:02:15Z</time>
  <course>180.78</course>
  <speed>0.0</speed>
  <fix>3d</fix>
</trkpt>
<trkpt lat="64.1624777" lon="-139.8402245">
  <ele>1108.92</ele>
  <time>2026-09-01T20:02:15Z</time>
  <course>5.87</course>
  <speed>0.0</speed>
  <fix>3d</fix>
</trkpt>
<trkpt lat="64.1624777" lon="-139.8402246">
  <ele>1109.09</ele>
  <time>2026-09-01T20:02:15Z</time>
  <course>180.78</course>
  <speed>0.0</speed>
  <fix>3d</fix>
</trkpt>
<trkpt lat="64.1624777" lon="-139.8402245">
  <ele>1108.92</ele>
  <time>2026-09-01T20:02:15Z</time>
  <course>5.87</course>
  <speed>0.0</speed>
  <fix>3d</fix>
</trkpt>
<trkpt lat="64.1624777" lon="-139.8402246">
  <ele>1109.09</ele>
  <time>2026-09-01T20:02:15Z</time>
  <course>180.78</course>
  <speed>0.0</speed>
  <fix>3d</fix>
</trkpt>
<trkpt lat="64.1624777" lon="-139.8402245">
  <ele>1108.92</ele>
  <time>2026-09-01T20:02:15Z</time>
  <course>5.87</course>
  <speed>0.0</speed>
  <fix>3d</fix>
</trkpt>
<trkpt lat="64.1624777" lon="-139.8402246">
  <ele>1109.09</ele>
  <time>2026-09-01T20:02:15Z</time>
  <course>180.78</course>
  <speed>0.0</speed>
  <fix>3d</fix>
</trkpt>
<trkpt lat="64.1624777" lon="-139.8402245">
  <ele>1108.92</ele>
  <time>2026-09-01T20:02:15Z</time>
  <course>5.88</course>
  <speed>0.0</speed>
  <fix>3d</fix>
</trkpt>
<trkpt lat="64.1624777" lon="-139.8402246">
  <ele>1109.09</ele>
  <time>2026-09-01T20:02:15Z</time>
  <course>180.78</course>
  <speed>0.0</speed>
  <fix>3d</fix>
</trkpt>
<trkpt lat="64.1624777" lon="-139.8402245">
  <ele>1108.92</ele>
  <time>2026-09-01T20:02:15Z</time>
  <course>5.88</course>
  <speed>0.0</speed>
  <fix>3d</fix>
</trkpt>
<trkpt lat="64.1624777" lon="-139.8402246">
  <ele>1109.09</ele>
  <time>2026-09-01T20:02:15Z</time>
  <course>180.78</course>
  <speed>0.0</speed>
  <fix>3d</fix>
</trkpt>
<trkpt lat="64.1624777" lon="-139.8402245">
  <ele>1108.91</ele>
  <time>2026-09-01T20:02:15Z</time>
  <course>5.88</course>
  <speed>0.0</speed>
  <fix>3d</fix>
</trkpt>
<trkpt lat="64.1624777" lon="-139.8402246">
  <ele>1109.09</ele>
  <time>2026-09-01T20:02:15Z</time>
  <course>180.78</course>
  <speed>0.0</speed>
  <fix>3d</fix>
</trkpt>
<trkpt lat="64.1624777" lon="-139.8402245">
  <ele>1109.08</ele>
  <time>2026-09-01T20:02:15Z</time>
  <course>5.88</course>
  <speed>0.0</speed>
  <fix>3d</fix>
</trkpt>
<trkpt lat="64.1624777" lon="-139.8402246">
  <ele>1109.09</ele>
  <time>2026-09-01T20:02:15Z</time>
  <course>180.78</course>
  <speed>0.0</speed>
  <fix>3d</fix>
</trkpt>
<trkpt lat="64.1624777" lon="-139.8402245">
  <ele>1109.08</ele>
  <time>2026-09-01T20:02:15Z</time>
  <course>5.88</course>
  <speed>0.0</speed>
  <fix>3d</fix>
</trkpt>
<trkpt lat="64.1624777" lon="-139.8402246">
  <ele>1109.09</ele>
  <time>2026-09-01T20:02:15Z</time>
  <course>180.78</course>
  <speed>0.0</speed>
  <fix>3d</fix>
</trkpt>
<trkpt lat="64.1624777" lon="-139.8402245">
  <ele>1109.08</ele>
  <time>2026-09-01T20:02:15Z</time>
  <course>5.88</course>
  <speed>0.0</speed>
  <fix>3d</fix>
</trkpt>
<trkpt lat="64.1624777" lon="-139.8402246">
  <ele>1109.09</ele>
  <time>2026-09-01T20:02:15Z</time>
  <course>180.78</course>
  <speed>0.0</speed>
  <fix>3d</fix>
</trkpt>
<trkpt lat="64.1624777" lon="-139.8402245">
  <ele>1109.08</ele>
  <time>2026-09-01T20:02:15Z</time>
  <course>5.89</course>
  <speed>0.0</speed>
  <fix>3d</fix>
</trkpt>
<trkpt lat="64.1624777" lon="-139.8402246">
  <ele>1109.09</ele>
  <time>2026-09-01T20:02:15Z</time>
  <course>180.78</course>
  <speed>0.0</speed>
  <fix>3d</fix>
</trkpt>
<trkpt lat="64.1624777" lon="-139.8402245">
  <ele>1109.08</ele>
  <time>2026-09-01T20:02:15Z</time>
  <course>5.89</course>
  <speed>0.0</speed>
  <fix>3d</fix>
</trkpt>
<trkpt lat="64.1624777" lon="-139.8402246">
  <ele>1109.09</ele>
  <time>2026-09-01T20:02:15Z</time>
  <course>180.78</course>
  <speed>0.0</speed>
  <fix>3d</fix>
</trkpt>
<trkpt lat="64.1624777" lon="-139.8402245">
  <ele>1109.07</ele>
  <time>2026-09-01T20:02:15Z</time>
  <course>5.89</course>
  <speed>0.01</speed>
  <fix>3d</fix>
</trkpt>
<trkpt lat="64.1624777" lon="-139.8402246">
  <ele>1109.09</ele>
  <time>2026-09-01T20:02:15Z</time>
  <course>180.78</course>
  <speed>0.0</speed>
  <fix>3d</fix>
</trkpt>
<trkpt lat="64.1624777" lon="-139.8402245">
  <ele>1109.07</ele>
  <time>2026-09-01T20:02:15Z</time>
  <course>5.89</course>
  <speed>0.01</speed>
  <fix>3d</fix>
</trkpt>
<trkpt lat="64.1624777" lon="-139.8402246">
  <ele>1109.09</ele>
  <time>2026-09-01T20:02:15Z</time>
  <course>180.78</course>
  <speed>0.0</speed>
  <fix>3d</fix>
</trkpt>
<trkpt lat="64.1624777" lon="-139.8402245">
  <ele>1109.06</ele>
  <time>2026-09-01T20:02:15Z</time>
  <course>5.89</course>
  <speed>0.01</speed>
  <fix>3d</fix>
</trkpt>
<trkpt lat="64.1624777" lon="-139.8402246">
  <ele>1109.09</ele>
  <time>2026-09-01T20:02:15Z</time>
  <course>180.78</course>
  <speed>0.0</speed>
  <fix>3d</fix>
</trkpt>
<trkpt lat="64.1624777" lon="-139.8402245">
  <ele>1109.06</ele>
  <time>2026-09-01T20:02:16Z</time>
  <course>5.89</course>
  <speed>0.01</speed>
  <fix>3d</fix>
</trkpt>
<trkpt lat="64.1624777" lon="-139.8402246">
  <ele>1109.09</ele>
  <time>2026-09-01T20:02:16Z</time>
  <course>180.78</course>
  <speed>0.0</speed>
  <fix>3d</fix>
</trkpt>
<trkpt lat="64.1624777" lon="-139.8402245">
  <ele>1109.06</ele>
  <time>2026-09-01T20:02:16Z</time>
  <course>5.9</course>
  <speed>0.01</speed>
  <fix>3d</fix>
</trkpt>
<trkpt lat="64.1624777" lon="-139.8402246">
  <ele>1109.09</ele>
  <time>2026-09-01T20:02:16Z</time>
  <course>180.78</course>
  <speed>0.0</speed>
  <fix>3d</fix>
</trkpt>
<trkpt lat="64.1624777" lon="-139.8402245">
  <ele>1109.05</ele>
  <time>2026-09-01T20:02:16Z</time>
  <course>5.9</course>
  <speed>0.01</speed>
  <fix>3d</fix>
</trkpt>
<trkpt lat="64.1624777" lon="-139.8402246">
  <ele>1109.09</ele>
  <time>2026-09-01T20:02:16Z</time>
  <course>180.78</course>
  <speed>0.0</speed>
  <fix>3d</fix>
</trkpt>
<trkpt lat="64.1624777" lon="-139.8402245">
  <ele>1109.05</ele>
  <time>2026-09-01T20:02:16Z</time>
  <course>5.9</course>
  <speed>0.01</speed>
  <fix>3d</fix>
</trkpt>
<trkpt lat="64.1624777" lon="-139.8402246">
  <ele>1109.09</ele>
  <time>2026-09-01T20:02:16Z</time>
  <course>180.78</course>
  <speed>0.0</speed>
  <fix>3d</fix>
</trkpt>
<trkpt lat="64.1624777" lon="-139.8402245">
  <ele>1109.04</ele>
  <time>2026-09-01T20:02:16Z</time>
  <course>5.9</course>
  <speed>0.01</speed>
  <fix>3d</fix>
</trkpt>
<trkpt lat="64.1624777" lon="-139.8402246">
  <ele>1109.09</ele>
  <time>2026-09-01T20:02:16Z</time>
  <course>180.78</course>
  <speed>0.0</speed>
  <fix>3d</fix>
</trkpt>
<trkpt lat="64.1624777" lon="-139.8402245">
  <ele>1109.04</ele>
  <time>2026-09-01T20:02:16Z</time>
  <course>5.9</course>
  <speed>0.01</speed>
  <fix>3d</fix>
</trkpt>
<trkpt lat="64.1624777" lon="-139.8402246">
  <ele>1109.09</ele>
  <time>2026-09-01T20:02:16Z</time>
  <course>180.78</course>
  <speed>0.0</speed>
  <fix>3d</fix>
</trkpt>
<trkpt lat="64.1624777" lon="-139.8402245">
  <ele>1109.03</ele>
  <time>2026-09-01T20:02:16Z</time>
  <course>5.9</course>
  <speed>0.01</speed>
  <fix>3d</fix>
</trkpt>
<trkpt lat="64.1624777" lon="-139.8402246">
  <ele>1109.09</ele>
  <time>2026-09-01T20:02:16Z</time>
  <course>180.78</course>
  <speed>0.0</speed>
  <fix>3d</fix>
</trkpt>
<trkpt lat="64.1624777" lon="-139.8402245">
  <ele>1109.03</ele>
  <time>2026-09-01T20:02:16Z</time>
  <course>5.91</course>
  <speed>0.01</speed>
  <fix>3d</fix>
</trkpt>
<trkpt lat="64.1624777" lon="-139.8402246">
  <ele>1109.09</ele>
  <time>2026-09-01T20:02:16Z</time>
  <course>180.78</course>
  <speed>0.0</speed>
  <fix>3d</fix>
</trkpt>
<trkpt lat="64.1624777" lon="-139.8402245">
  <ele>1109.02</ele>
  <time>2026-09-01T20:02:16Z</time>
  <course>5.91</course>
  <speed>0.01</speed>
  <fix>3d</fix>
</trkpt>
<trkpt lat="64.1624777" lon="-139.8402246">
  <ele>1109.09</ele>
  <time>2026-09-01T20:02:16Z</time>
  <course>180.78</course>
  <speed>0.0</speed>
  <fix>3d</fix>
</trkpt>
<trkpt lat="64.1624777" lon="-139.8402245">
  <ele>1109.02</ele>
  <time>2026-09-01T20:02:16Z</time>
  <course>5.91</course>
  <speed>0.01</speed>
  <fix>3d</fix>
</trkpt>
<trkpt lat="64.1624777" lon="-139.8402246">
  <ele>1109.09</ele>
  <time>2026-09-01T20:02:16Z</time>
  <course>180.78</course>
  <speed>0.0</speed>
  <fix>3d</fix>
</trkpt>
<trkpt lat="64.1624777" lon="-139.8402245">
  <ele>1109.01</ele>
  <time>2026-09-01T20:02:16Z</time>
  <course>5.91</course>
  <speed>0.01</speed>
  <fix>3d</fix>
</trkpt>
<trkpt lat="64.1624777" lon="-139.8402246">
  <ele>1109.09</ele>
  <time>2026-09-01T20:02:16Z</time>
  <course>180.78</course>
  <speed>0.0</speed>
  <fix>3d</fix>
</trkpt>
<trkpt lat="64.1624777" lon="-139.8402245">
  <ele>1109.01</ele>
  <time>2026-09-01T20:02:16Z</time>
  <course>5.91</course>
  <speed>0.01</speed>
  <fix>3d</fix>
</trkpt>
<trkpt lat="64.1624777" lon="-139.8402246">
  <ele>1109.09</ele>
  <time>2026-09-01T20:02:16Z</time>
  <course>180.78</course>
  <speed>0.0</speed>
  <fix>3d</fix>
</trkpt>
<trkpt lat="64.1624777" lon="-139.8402245">
  <ele>1109.01</ele>
  <time>2026-09-01T20:02:16Z</time>
  <course>5.91</course>
  <speed>0.01</speed>
  <fix>3d</fix>
</trkpt>
<trkpt lat="64.1624777" lon="-139.8402246">
  <ele>1109.09</ele>
  <time>2026-09-01T20:02:16Z</time>
  <course>180.78</course>
  <speed>0.0</speed>
  <fix>3d</fix>
</trkpt>
<trkpt lat="64.1624777" lon="-139.8402245">
  <ele>1109.01</ele>
  <time>2026-09-01T20:02:16Z</time>
  <course>5.91</course>
  <speed>0.01</speed>
  <fix>3d</fix>
</trkpt>
<trkpt lat="64.1624777" lon="-139.8402246">
  <ele>1109.09</ele>
  <time>2026-09-01T20:02:16Z</time>
  <course>180.78</course>
  <speed>0.0</speed>
  <fix>3d</fix>
</trkpt>
<trkpt lat="64.1624777" lon="-139.8402245">
  <ele>1109.01</ele>
  <time>2026-09-01T20:02:16Z</time>
  <course>5.92</course>
  <speed>0.01</speed>
  <fix>3d</fix>
</trkpt>
<trkpt lat="64.1624777" lon="-139.8402246">
  <ele>1109.09</ele>
  <time>2026-09-01T20:02:16Z</time>
  <course>180.78</course>
  <speed>0.0</speed>
  <fix>3d</fix>
</trkpt>
<trkpt lat="64.1624777" lon="-139.8402245">
  <ele>1109.01</ele>
  <time>2026-09-01T20:02:16Z</time>
  <course>5.92</course>
  <speed>0.01</speed>
  <fix>3d</fix>
</trkpt>
<trkpt lat="64.1624777" lon="-139.8402246">
  <ele>1109.09</ele>
  <time>2026-09-01T20:02:16Z</time>
  <course>180.78</course>
  <speed>0.0</speed>
  <fix>3d</fix>
</trkpt>
<trkpt lat="64.1624777" lon="-139.8402245">
  <ele>1109.0</ele>
  <time>2026-09-01T20:02:16Z</time>
  <course>5.92</course>
  <speed>0.01</speed>
  <fix>3d</fix>
</trkpt>
<trkpt lat="64.1624777" lon="-139.8402246">
  <ele>1109.09</ele>
  <time>2026-09-01T20:02:16Z</time>
  <course>180.78</course>
  <speed>0.0</speed>
  <fix>3d</fix>
</trkpt>
<trkpt lat="64.1624777" lon="-139.8402245">
  <ele>1109.0</ele>
  <time>2026-09-01T20:02:16Z</time>
  <course>5.92</course>
  <speed>0.01</speed>
  <fix>3d</fix>
</trkpt>
<trkpt lat="64.1624777" lon="-139.8402246">
  <ele>1109.09</ele>
  <time>2026-09-01T20:02:16Z</time>
  <course>180.78</course>
  <speed>0.0</speed>
  <fix>3d</fix>
</trkpt>
<trkpt lat="64.1624777" lon="-139.8402245">
  <ele>1109.0</ele>
  <time>2026-09-01T20:02:16Z</time>
  <course>5.92</course>
  <speed>0.01</speed>
  <fix>3d</fix>
</trkpt>
<trkpt lat="64.1624777" lon="-139.8402246">
  <ele>1109.09</ele>
  <time>2026-09-01T20:02:16Z</time>
  <course>180.78</course>
  <speed>0.0</speed>
  <fix>3d</fix>
</trkpt>
<trkpt lat="64.1624777" lon="-139.8402245">
  <ele>1109.0</ele>
  <time>2026-09-01T20:02:16Z</time>
  <course>5.92</course>
  <speed>0.01</speed>
  <fix>3d</fix>
</trkpt>
<trkpt lat="64.1624777" lon="-139.8402246">
  <ele>1109.09</ele>
  <time>2026-09-01T20:02:16Z</time>
  <course>180.78</course>
  <speed>0.0</speed>
  <fix>3d</fix>
</trkpt>
<trkpt lat="64.1624777" lon="-139.8402245">
  <ele>1109.0</ele>
  <time>2026-09-01T20:02:16Z</time>
  <course>5.93</course>
  <speed>0.01</speed>
  <fix>3d</fix>
</trkpt>
<trkpt lat="64.1624777" lon="-139.8402246">
  <ele>1109.09</ele>
  <time>2026-09-01T20:02:16Z</time>
  <course>180.78</course>
  <speed>0.0</speed>
  <fix>3d</fix>
</trkpt>
<trkpt lat="64.1624777" lon="-139.8402245">
  <ele>1109.0</ele>
  <time>2026-09-01T20:02:16Z</time>
  <course>5.93</course>
  <speed>0.01</speed>
  <fix>3d</fix>
</trkpt>
<trkpt lat="64.1624777" lon="-139.8402246">
  <ele>1109.09</ele>
  <time>2026-09-01T20:02:16Z</time>
  <course>180.78</course>
  <speed>0.0</speed>
  <fix>3d</fix>
</trkpt>
<trkpt lat="64.1624777" lon="-139.8402245">
  <ele>1108.99</ele>
  <time>2026-09-01T20:02:16Z</time>
  <course>5.93</course>
  <speed>0.01</speed>
  <fix>3d</fix>
</trkpt>
<trkpt lat="64.1624777" lon="-139.8402246">
  <ele>1109.09</ele>
  <time>2026-09-01T20:02:16Z</time>
  <course>180.78</course>
  <speed>0.0</speed>
  <fix>3d</fix>
</trkpt>
<trkpt lat="64.1624777" lon="-139.8402245">
  <ele>1108.99</ele>
  <time>2026-09-01T20:02:16Z</time>
  <course>5.93</course>
  <speed>0.01</speed>
  <fix>3d</fix>
</trkpt>
<trkpt lat="64.1624777" lon="-139.8402246">
  <ele>1109.09</ele>
  <time>2026-09-01T20:02:16Z</time>
  <course>180.78</course>
  <speed>0.0</speed>
  <fix>3d</fix>
</trkpt>
<trkpt lat="64.1624777" lon="-139.8402245">
  <ele>1108.99</ele>
  <time>2026-09-01T20:02:16Z</time>
  <course>5.93</course>
  <speed>0.01</speed>
  <fix>3d</fix>
</trkpt>
<trkpt lat="64.1624777" lon="-139.8402246">
  <ele>1109.09</ele>
  <time>2026-09-01T20:02:16Z</time>
  <course>180.78</course>
  <speed>0.0</speed>
  <fix>3d</fix>
</trkpt>
<trkpt lat="64.1624777" lon="-139.8402245">
  <ele>1108.98</ele>
  <time>2026-09-01T20:02:16Z</time>
  <course>5.93</course>
  <speed>0.01</speed>
  <fix>3d</fix>
</trkpt>
<trkpt lat="64.1624777" lon="-139.8402246">
  <ele>1109.09</ele>
  <time>2026-09-01T20:02:16Z</time>
  <course>180.78</course>
  <speed>0.0</speed>
  <fix>3d</fix>
</trkpt>
<trkpt lat="64.1624777" lon="-139.8402245">
  <ele>1108.98</ele>
  <time>2026-09-01T20:02:16Z</time>
  <course>5.93</course>
  <speed>0.01</speed>
  <fix>3d</fix>
</trkpt>
<trkpt lat="64.1624777" lon="-139.8402246">
  <ele>1109.09</ele>
  <time>2026-09-01T20:02:16Z</time>
  <course>180.78</course>
  <speed>0.0</speed>
  <fix>3d</fix>
</trkpt>
<trkpt lat="64.1624777" lon="-139.8402245">
  <ele>1108.97</ele>
  <time>2026-09-01T20:02:16Z</time>
  <course>5.94</course>
  <speed>0.01</speed>
  <fix>3d</fix>
</trkpt>
<trkpt lat="64.1624777" lon="-139.8402246">
  <ele>1109.09</ele>
  <time>2026-09-01T20:02:16Z</time>
  <course>180.78</course>
  <speed>0.0</speed>
  <fix>3d</fix>
</trkpt>
<trkpt lat="64.1624777" lon="-139.8402245">
  <ele>1108.97</ele>
  <time>2026-09-01T20:02:16Z</time>
  <course>5.94</course>
  <speed>0.01</speed>
  <fix>3d</fix>
</trkpt>
<trkpt lat="64.1624777" lon="-139.8402246">
  <ele>1109.09</ele>
  <time>2026-09-01T20:02:16Z</time>
  <course>180.78</course>
  <speed>0.0</speed>
  <fix>3d</fix>
</trkpt>
<trkpt lat="64.1624777" lon="-139.8402245">
  <ele>1108.96</ele>
  <time>2026-09-01T20:02:16Z</time>
  <course>5.94</course>
  <speed>0.01</speed>
  <fix>3d</fix>
</trkpt>
<trkpt lat="64.1624777" lon="-139.8402246">
  <ele>1109.09</ele>
  <time>2026-09-01T20:02:16Z</time>
  <course>180.78</course>
  <speed>0.0</speed>
  <fix>3d</fix>
</trkpt>
<trkpt lat="64.1624777" lon="-139.8402245">
  <ele>1108.96</ele>
  <time>2026-09-01T20:02:16Z</time>
  <course>5.94</course>
  <speed>0.01</speed>
  <fix>3d</fix>
</trkpt>
<trkpt lat="64.1624777" lon="-139.8402246">
  <ele>1109.09</ele>
  <time>2026-09-01T20:02:16Z</time>
  <course>180.78</course>
  <speed>0.0</speed>
  <fix>3d</fix>
</trkpt>
<trkpt lat="64.1624777" lon="-139.8402245">
  <ele>1108.96</ele>
  <time>2026-09-01T20:02:16Z</time>
  <course>5.94</course>
  <speed>0.01414213562373095</speed>
  <fix>3d</fix>
</trkpt>
<trkpt lat="64.1624777" lon="-139.8402246">
  <ele>1109.09</ele>
  <time>2026-09-01T20:02:16Z</time>
  <course>180.78</course>
  <speed>0.0</speed>
  <fix>3d</fix>
</trkpt>
<trkpt lat="64.1624777" lon="-139.8402245">
  <ele>1108.95</ele>
  <time>2026-09-01T20:02:16Z</time>
  <course>5.94</course>
  <speed>0.01414213562373095</speed>
  <fix>3d</fix>
</trkpt>
<trkpt lat="64.1624777" lon="-139.8402246">
  <ele>1109.09</ele>
  <time>2026-09-01T20:02:16Z</time>
  <course>180.78</course>
  <speed>0.0</speed>
  <fix>3d</fix>
</trkpt>
<trkpt lat="64.1624777" lon="-139.8402245">
  <ele>1108.95</ele>
  <time>2026-09-01T20:02:16Z</time>
  <course>5.94</course>
  <speed>0.01414213562373095</speed>
  <fix>3d</fix>
</trkpt>
<trkpt lat="64.1624777" lon="-139.8402246">
  <ele>1109.09</ele>
  <time>2026-09-01T20:02:16Z</time>
  <course>180.78</course>
  <speed>0.0</speed>
  <fix>3d</fix>
</trkpt>
<trkpt lat="64.1624777" lon="-139.8402245">
  <ele>1108.95</ele>
  <time>2026-09-01T20:02:16Z</time>
  <course>5.95</course>
  <speed>0.01414213562373095</speed>
  <fix>3d</fix>
</trkpt>
<trkpt lat="64.1624777" lon="-139.8402246">
  <ele>1109.09</ele>
  <time>2026-09-01T20:02:16Z</time>
  <course>180.78</course>
  <speed>0.0</speed>
  <fix>3d</fix>
</trkpt>
<trkpt lat="64.1624777" lon="-139.8402245">
  <ele>1108.95</ele>
  <time>2026-09-01T20:02:16Z</time>
  <course>5.95</course>
  <speed>0.01414213562373095</speed>
  <fix>3d</fix>
</trkpt>
<trkpt lat="64.1624777" lon="-139.8402246">
  <ele>1109.09</ele>
  <time>2026-09-01T20:02:16Z</time>
  <course>180.78</course>
  <speed>0.0</speed>
  <fix>3d</fix>
</trkpt>
<trkpt lat="64.1624777" lon="-139.8402245">
  <ele>1108.94</ele>
  <time>2026-09-01T20:02:16Z</time>
  <course>5.95</course>
  <speed>0.01414213562373095</speed>
  <fix>3d</fix>
</trkpt>
<trkpt lat="64.1624777" lon="-139.8402246">
  <ele>1109.09</ele>
  <time>2026-09-01T20:02:16Z</time>
  <course>180.78</course>
  <speed>0.0</speed>
  <fix>3d</fix>
</trkpt>
<trkpt lat="64.1624777" lon="-139.8402245">
  <ele>1108.94</ele>
  <time>2026-09-01T20:02:16Z</time>
  <course>5.95</course>
  <speed>0.01414213562373095</speed>
  <fix>3d</fix>
</trkpt>
<trkpt lat="64.1624777" lon="-139.8402246">
  <ele>1109.09</ele>
  <time>2026-09-01T20:02:16Z</time>
  <course>180.78</course>
  <speed>0.0</speed>
  <fix>3d</fix>
</trkpt>
<trkpt lat="64.1624777" lon="-139.8402245">
  <ele>1108.94</ele>
  <time>2026-09-01T20:02:16Z</time>
  <course>5.95</course>
  <speed>0.01414213562373095</speed>
  <fix>3d</fix>
</trkpt>
<trkpt lat="64.1624777" lon="-139.8402246">
  <ele>1109.09</ele>
  <time>2026-09-01T20:02:16Z</time>
  <course>180.78</course>
  <speed>0.0</speed>
  <fix>3d</fix>
</trkpt>
<trkpt lat="64.1624777" lon="-139.8402245">
  <ele>1108.94</ele>
  <time>2026-09-01T20:02:16Z</time>
  <course>5.95</course>
  <speed>0.01414213562373095</speed>
  <fix>3d</fix>
</trkpt>
<trkpt lat="64.1624777" lon="-139.8402246">
  <ele>1109.09</ele>
  <time>2026-09-01T20:02:16Z</time>
  <course>180.78</course>
  <speed>0.0</speed>
  <fix>3d</fix>
</trkpt>
<trkpt lat="64.1624777" lon="-139.8402245">
  <ele>1108.94</ele>
  <time>2026-09-01T20:02:16Z</time>
  <course>5.95</course>
  <speed>0.01414213562373095</speed>
  <fix>3d</fix>
</trkpt>
<trkpt lat="64.1624777" lon="-139.8402246">
  <ele>1109.09</ele>
  <time>2026-09-01T20:02:16Z</time>
  <course>180.78</course>
  <speed>0.0</speed>
  <fix>3d</fix>
</trkpt>
<trkpt lat="64.1624777" lon="-139.8402245">
  <ele>1108.94</ele>
  <time>2026-09-01T20:02:16Z</time>
  <course>5.96</course>
  <speed>0.01414213562373095</speed>
  <fix>3d</fix>
</trkpt>
<trkpt lat="64.1624777" lon="-139.8402246">
  <ele>1109.09</ele>
  <time>2026-09-01T20:02:16Z</time>
  <course>180.78</course>
  <speed>0.0</speed>
  <fix>3d</fix>
</trkpt>
<trkpt lat="64.1624777" lon="-139.8402245">
  <ele>1108.94</ele>
  <time>2026-09-01T20:02:16Z</time>
  <course>5.96</course>
  <speed>0.01414213562373095</speed>
  <fix>3d</fix>
</trkpt>
<trkpt lat="64.1624777" lon="-139.8402246">
  <ele>1109.09</ele>
  <time>2026-09-01T20:02:16Z</time>
  <course>180.78</course>
  <speed>0.0</speed>
  <fix>3d</fix>
</trkpt>
<trkpt lat="64.1624777" lon="-139.8402245">
  <ele>1108.94</ele>
  <time>2026-09-01T20:02:16Z</time>
  <course>5.96</course>
  <speed>0.01414213562373095</speed>
  <fix>3d</fix>
</trkpt>
<trkpt lat="64.1624777" lon="-139.8402246">
  <ele>1109.09</ele>
  <time>2026-09-01T20:02:16Z</time>
  <course>180.78</course>
  <speed>0.0</speed>
  <fix>3d</fix>
</trkpt>
<trkpt lat="64.1624777" lon="-139.8402245">
  <ele>1108.94</ele>
  <time>2026-09-01T20:02:16Z</time>
  <course>5.96</course>
  <speed>0.01414213562373095</speed>
  <fix>3d</fix>
</trkpt>
<trkpt lat="64.1624777" lon="-139.8402246">
  <ele>1109.09</ele>
  <time>2026-09-01T20:02:16Z</time>
  <course>180.78</course>
  <speed>0.0</speed>
  <fix>3d</fix>
</trkpt>
<trkpt lat="64.1624777" lon="-139.8402245">
  <ele>1108.94</ele>
  <time>2026-09-01T20:02:16Z</time>
  <course>5.96</course>
  <speed>0.01414213562373095</speed>
  <fix>3d</fix>
</trkpt>
<trkpt lat="64.1624777" lon="-139.8402246">
  <ele>1109.09</ele>
  <time>2026-09-01T20:02:16Z</time>
  <course>180.78</course>
  <speed>0.0</speed>
  <fix>3d</fix>
</trkpt>
<trkpt lat="64.1624777" lon="-139.8402245">
  <ele>1108.94</ele>
  <time>2026-09-01T20:02:16Z</time>
  <course>5.96</course>
  <speed>0.01414213562373095</speed>
  <fix>3d</fix>
</trkpt>
<trkpt lat="64.1624777" lon="-139.8402246">
  <ele>1109.09</ele>
  <time>2026-09-01T20:02:16Z</time>
  <course>180.78</course>
  <speed>0.0</speed>
  <fix>3d</fix>
</trkpt>
<trkpt lat="64.1624777" lon="-139.8402245">
  <ele>1108.94</ele>
  <time>2026-09-01T20:02:16Z</time>
  <course>5.96</course>
  <speed>0.01414213562373095</speed>
  <fix>3d</fix>
</trkpt>
<trkpt lat="64.1624777" lon="-139.8402246">
  <ele>1109.09</ele>
  <time>2026-09-01T20:02:16Z</time>
  <course>180.78</course>
  <speed>0.0</speed>
  <fix>3d</fix>
</trkpt>
<trkpt lat="64.1624777" lon="-139.8402245">
  <ele>1108.94</ele>
  <time>2026-09-01T20:02:16Z</time>
  <course>5.97</course>
  <speed>0.01414213562373095</speed>
  <fix>3d</fix>
</trkpt>
<trkpt lat="64.1624777" lon="-139.8402246">
  <ele>1109.09</ele>
  <time>2026-09-01T20:02:16Z</time>
  <course>180.78</course>
  <speed>0.0</speed>
  <fix>3d</fix>
</trkpt>
<trkpt lat="64.1624777" lon="-139.8402245">
  <ele>1108.94</ele>
  <time>2026-09-01T20:02:16Z</time>
  <course>5.97</course>
  <speed>0.01414213562373095</speed>
  <fix>3d</fix>
</trkpt>
<trkpt lat="64.1624777" lon="-139.8402246">
  <ele>1109.09</ele>
  <time>2026-09-01T20:02:16Z</time>
  <course>180.78</course>
  <speed>0.0</speed>
  <fix>3d</fix>
</trkpt>
<trkpt lat="64.1624777" lon="-139.8402245">
  <ele>1108.94</ele>
  <time>2026-09-01T20:02:16Z</time>
  <course>5.97</course>
  <speed>0.01414213562373095</speed>
  <fix>3d</fix>
</trkpt>
<trkpt lat="64.1624777" lon="-139.8402246">
  <ele>1109.09</ele>
  <time>2026-09-01T20:02:16Z</time>
  <course>180.78</course>
  <speed>0.0</speed>
  <fix>3d</fix>
</trkpt>
<trkpt lat="64.1624777" lon="-139.8402245">
  <ele>1108.93</ele>
  <time>2026-09-01T20:02:16Z</time>
  <course>5.97</course>
  <speed>0.01414213562373095</speed>
  <fix>3d</fix>
</trkpt>
<trkpt lat="64.1624777" lon="-139.8402246">
  <ele>1109.09</ele>
  <time>2026-09-01T20:02:16Z</time>
  <course>180.78</course>
  <speed>0.0</speed>
  <fix>3d</fix>
</trkpt>
<trkpt lat="64.1624777" lon="-139.8402245">
  <ele>1109.09</ele>
  <time>2026-09-01T20:02:16Z</time>
  <course>5.97</course>
  <speed>0.01414213562373095</speed>
  <fix>3d</fix>
</trkpt>
<trkpt lat="64.1624777" lon="-139.8402246">
  <ele>1109.09</ele>
  <time>2026-09-01T20:02:16Z</time>
  <course>180.78</course>
  <speed>0.0</speed>
  <fix>3d</fix>
</trkpt>
<trkpt lat="64.1624777" lon="-139.8402245">
  <ele>1109.08</ele>
  <time>2026-09-01T20:02:16Z</time>
  <course>5.97</course>
  <speed>0.01414213562373095</speed>
  <fix>3d</fix>
</trkpt>
<trkpt lat="64.1624777" lon="-139.8402246">
  <ele>1109.09</ele>
  <time>2026-09-01T20:02:16Z</time>
  <course>180.78</course>
  <speed>0.0</speed>
  <fix>3d</fix>
</trkpt>
<trkpt lat="64.1624777" lon="-139.8402245">
  <ele>1109.08</ele>
  <time>2026-09-01T20:02:16Z</time>
  <course>5.97</course>
  <speed>0.01414213562373095</speed>
  <fix>3d</fix>
</trkpt>
<trkpt lat="64.1624777" lon="-139.8402246">
  <ele>1109.09</ele>
  <time>2026-09-01T20:02:16Z</time>
  <course>180.78</course>
  <speed>0.0</speed>
  <fix>3d</fix>
</trkpt>
<trkpt lat="64.1624776" lon="-139.8402244">
  <ele>1109.08</ele>
  <time>2026-09-01T20:02:16Z</time>
  <course>5.98</course>
  <speed>0.01414213562373095</speed>
  <fix>3d</fix>
</trkpt>
<trkpt lat="64.1624777" lon="-139.8402246">
  <ele>1109.09</ele>
  <time>2026-09-01T20:02:16Z</time>
  <course>180.78</course>
  <speed>0.0</speed>
  <fix>3d</fix>
</trkpt>
<trkpt lat="64.1624777" lon="-139.8402245">
  <ele>1109.08</ele>
  <time>2026-09-01T20:02:16Z</time>
  <course>5.98</course>
  <speed>0.01414213562373095</speed>
  <fix>3d</fix>
</trkpt>
<trkpt lat="64.1624777" lon="-139.8402246">
  <ele>1109.09</ele>
  <time>2026-09-01T20:02:16Z</time>
  <course>180.78</course>
  <speed>0.0</speed>
  <fix>3d</fix>
</trkpt>
<trkpt lat="64.1624776" lon="-139.8402244">
  <ele>1109.08</ele>
  <time>2026-09-01T20:02:16Z</time>
  <course>5.98</course>
  <speed>0.01414213562373095</speed>
  <fix>3d</fix>
</trkpt>
<trkpt lat="64.1624777" lon="-139.8402246">
  <ele>1109.09</ele>
  <time>2026-09-01T20:02:16Z</time>
  <course>180.78</course>
  <speed>0.0</speed>
  <fix>3d</fix>
</trkpt>
<trkpt lat="64.1624776" lon="-139.8402245">
  <ele>1109.08</ele>
  <time>2026-09-01T20:02:16Z</time>
  <course>5.98</course>
  <speed>0.01414213562373095</speed>
  <fix>3d</fix>
</trkpt>
<trkpt lat="64.1624777" lon="-139.8402246">
  <ele>1109.09</ele>
  <time>2026-09-01T20:02:16Z</time>
  <course>180.78</course>
  <speed>0.0</speed>
  <fix>3d</fix>
</trkpt>
<trkpt lat="64.1624776" lon="-139.8402244">
  <ele>1109.08</ele>
  <time>2026-09-01T20:02:16Z</time>
  <course>5.98</course>
  <speed>0.01414213562373095</speed>
  <fix>3d</fix>
</trkpt>
<trkpt lat="64.1624777" lon="-139.8402246">
  <ele>1109.09</ele>
  <time>2026-09-01T20:02:16Z</time>
  <course>180.78</course>
  <speed>0.0</speed>
  <fix>3d</fix>
</trkpt>
<trkpt lat="64.1624776" lon="-139.8402244">
  <ele>1109.08</ele>
  <time>2026-09-01T20:02:16Z</time>
  <course>5.98</course>
  <speed>0.01414213562373095</speed>
  <fix>3d</fix>
</trkpt>
<trkpt lat="64.1624777" lon="-139.8402246">
  <ele>1109.09</ele>
  <time>2026-09-01T20:02:16Z</time>
  <course>180.78</course>
  <speed>0.0</speed>
  <fix>3d</fix>
</trkpt>
<trkpt lat="64.1624776" lon="-139.8402244">
  <ele>1109.08</ele>
  <time>2026-09-01T20:02:16Z</time>
  <course>5.99</course>
  <speed>0.01414213562373095</speed>
  <fix>3d</fix>
</trkpt>
<trkpt lat="64.1624777" lon="-139.8402246">
  <ele>1109.09</ele>
  <time>2026-09-01T20:02:16Z</time>
  <course>180.78</course>
  <speed>0.0</speed>
  <fix>3d</fix>
</trkpt>
<trkpt lat="64.1624776" lon="-139.8402244">
  <ele>1109.07</ele>
  <time>2026-09-01T20:02:16Z</time>
  <course>5.99</course>
  <speed>0.01414213562373095</speed>
  <fix>3d</fix>
</trkpt>
<trkpt lat="64.1624777" lon="-139.8402246">
  <ele>1109.09</ele>
  <time>2026-09-01T20:02:16Z</time>
  <course>180.78</course>
  <speed>0.0</speed>
  <fix>3d</fix>
</trkpt>
<trkpt lat="64.1624776" lon="-139.8402244">
  <ele>1109.07</ele>
  <time>2026-09-01T20:02:16Z</time>
  <course>5.99</course>
  <speed>0.01414213562373095</speed>
  <fix>3d</fix>
</trkpt>
<trkpt lat="64.1624777" lon="-139.8402246">
  <ele>1109.09</ele>
  <time>2026-09-01T20:02:16Z</time>
  <course>180.78</course>
  <speed>0.0</speed>
  <fix>3d</fix>
</trkpt>
<trkpt lat="64.1624776" lon="-139.8402244">
  <ele>1109.07</ele>
  <time>2026-09-01T20:02:16Z</time>
  <course>5.99</course>
  <speed>0.01414213562373095</speed>
  <fix>3d</fix>
</trkpt>
<trkpt lat="64.1624777" lon="-139.8402246">
  <ele>1109.09</ele>
  <time>2026-09-01T20:02:16Z</time>
  <course>180.78</course>
  <speed>0.0</speed>
  <fix>3d</fix>
</trkpt>
<trkpt lat="64.1624776" lon="-139.8402244">
  <ele>1109.07</ele>
  <time>2026-09-01T20:02:16Z</time>
  <course>5.99</course>
  <speed>0.01414213562373095</speed>
  <fix>3d</fix>
</trkpt>
<trkpt lat="64.1624777" lon="-139.8402246">
  <ele>1109.09</ele>
  <time>2026-09-01T20:02:16Z</time>
  <course>180.78</course>
  <speed>0.0</speed>
  <fix>3d</fix>
</trkpt>
<trkpt lat="64.1624776" lon="-139.8402244">
  <ele>1109.06</ele>
  <time>2026-09-01T20:02:16Z</time>
  <course>5.99</course>
  <speed>0.01414213562373095</speed>
  <fix>3d</fix>
</trkpt>
<trkpt lat="64.1624777" lon="-139.8402246">
  <ele>1109.09</ele>
  <time>2026-09-01T20:02:16Z</time>
  <course>180.78</course>
  <speed>0.0</speed>
  <fix>3d</fix>
</trkpt>
<trkpt lat="64.1624776" lon="-139.8402244">
  <ele>1109.06</ele>
  <time>2026-09-01T20:02:16Z</time>
  <course>5.99</course>
  <speed>0.01414213562373095</speed>
  <fix>3d</fix>
</trkpt>
<trkpt lat="64.1624777" lon="-139.8402246">
  <ele>1109.09</ele>
  <time>2026-09-01T20:02:16Z</time>
  <course>180.78</course>
  <speed>0.0</speed>
  <fix>3d</fix>
</trkpt>
<trkpt lat="64.1624776" lon="-139.8402244">
  <ele>1109.06</ele>
  <time>2026-09-01T20:02:16Z</time>
  <course>6.0</course>
  <speed>0.01414213562373095</speed>
  <fix>3d</fix>
</trkpt>
<trkpt lat="64.1624777" lon="-139.8402246">
  <ele>1109.09</ele>
  <time>2026-09-01T20:02:16Z</time>
  <course>180.78</course>
  <speed>0.0</speed>
  <fix>3d</fix>
</trkpt>
<trkpt lat="64.1624776" lon="-139.8402244">
  <ele>1109.06</ele>
  <time>2026-09-01T20:02:16Z</time>
  <course>6.0</course>
  <speed>0.01414213562373095</speed>
  <fix>3d</fix>
</trkpt>
<trkpt lat="64.1624777" lon="-139.8402246">
  <ele>1109.09</ele>
  <time>2026-09-01T20:02:16Z</time>
  <course>180.78</course>
  <speed>0.0</speed>
  <fix>3d</fix>
</trkpt>
<trkpt lat="64.1624776" lon="-139.8402244">
  <ele>1109.06</ele>
  <time>2026-09-01T20:02:16Z</time>
  <course>6.0</course>
  <speed>0.01414213562373095</speed>
  <fix>3d</fix>
</trkpt>
<trkpt lat="64.1624777" lon="-139.8402246">
  <ele>1109.09</ele>
  <time>2026-09-01T20:02:16Z</time>
  <course>180.78</course>
  <speed>0.0</speed>
  <fix>3d</fix>
</trkpt>
<trkpt lat="64.1624776" lon="-139.8402244">
  <ele>1109.06</ele>
  <time>2026-09-01T20:02:16Z</time>
  <course>6.0</course>
  <speed>0.01414213562373095</speed>
  <fix>3d</fix>
</trkpt>
<trkpt lat="64.1624777" lon="-139.8402246">
  <ele>1109.09</ele>
  <time>2026-09-01T20:02:16Z</time>
  <course>180.78</course>
  <speed>0.0</speed>
  <fix>3d</fix>
</trkpt>
<trkpt lat="64.1624776" lon="-139.8402244">
  <ele>1109.06</ele>
  <time>2026-09-01T20:02:16Z</time>
  <course>6.0</course>
  <speed>0.01414213562373095</speed>
  <fix>3d</fix>
</trkpt>
<trkpt lat="64.1624777" lon="-139.8402246">
  <ele>1109.09</ele>
  <time>2026-09-01T20:02:16Z</time>
  <course>180.78</course>
  <speed>0.0</speed>
  <fix>3d</fix>
</trkpt>
<trkpt lat="64.1624776" lon="-139.8402244">
  <ele>1109.06</ele>
  <time>2026-09-01T20:02:16Z</time>
  <course>6.0</course>
  <speed>0.01414213562373095</speed>
  <fix>3d</fix>
</trkpt>
<trkpt lat="64.1624777" lon="-139.8402246">
  <ele>1109.09</ele>
  <time>2026-09-01T20:02:16Z</time>
  <course>180.78</course>
  <speed>0.0</speed>
  <fix>3d</fix>
</trkpt>
<trkpt lat="64.1624776" lon="-139.8402244">
  <ele>1109.06</ele>
  <time>2026-09-01T20:02:16Z</time>
  <course>6.01</course>
  <speed>0.01414213562373095</speed>
  <fix>3d</fix>
</trkpt>
<trkpt lat="64.1624777" lon="-139.8402246">
  <ele>1109.09</ele>
  <time>2026-09-01T20:02:16Z</time>
  <course>180.78</course>
  <speed>0.0</speed>
  <fix>3d</fix>
</trkpt>
<trkpt lat="64.1624776" lon="-139.8402244">
  <ele>1109.06</ele>
  <time>2026-09-01T20:02:16Z</time>
  <course>6.01</course>
  <speed>0.01414213562373095</speed>
  <fix>3d</fix>
</trkpt>
<trkpt lat="64.1624777" lon="-139.8402246">
  <ele>1109.09</ele>
  <time>2026-09-01T20:02:16Z</time>
  <course>180.78</course>
  <speed>0.0</speed>
  <fix>3d</fix>
</trkpt>
<trkpt lat="64.1624776" lon="-139.8402244">
  <ele>1109.05</ele>
  <time>2026-09-01T20:02:16Z</time>
  <course>6.01</course>
  <speed>0.01414213562373095</speed>
  <fix>3d</fix>
</trkpt>
<trkpt lat="64.1624777" lon="-139.8402246">
  <ele>1109.09</ele>
  <time>2026-09-01T20:02:16Z</time>
  <course>180.78</course>
  <speed>0.0</speed>
  <fix>3d</fix>
</trkpt>
<trkpt lat="64.1624776" lon="-139.8402244">
  <ele>1109.05</ele>
  <time>2026-09-01T20:02:16Z</time>
  <course>6.01</course>
  <speed>0.01414213562373095</speed>
  <fix>3d</fix>
</trkpt>
<trkpt lat="64.1624777" lon="-139.8402246">
  <ele>1109.09</ele>
  <time>2026-09-01T20:02:16Z</time>
  <course>180.78</course>
  <speed>0.0</speed>
  <fix>3d</fix>
</trkpt>
<trkpt lat="64.1624776" lon="-139.8402244">
  <ele>1109.05</ele>
  <time>2026-09-01T20:02:16Z</time>
  <course>6.01</course>
  <speed>0.01414213562373095</speed>
  <fix>3d</fix>
</trkpt>
<trkpt lat="64.1624777" lon="-139.8402246">
  <ele>1109.09</ele>
  <time>2026-09-01T20:02:16Z</time>
  <course>180.78</course>
  <speed>0.0</speed>
  <fix>3d</fix>
</trkpt>
<trkpt lat="64.1624776" lon="-139.8402244">
  <ele>1109.05</ele>
  <time>2026-09-01T20:02:16Z</time>
  <course>6.01</course>
  <speed>0.01414213562373095</speed>
  <fix>3d</fix>
</trkpt>
<trkpt lat="64.1624777" lon="-139.8402246">
  <ele>1109.09</ele>
  <time>2026-09-01T20:02:16Z</time>
  <course>180.78</course>
  <speed>0.0</speed>
  <fix>3d</fix>
</trkpt>
<trkpt lat="64.1624776" lon="-139.8402244">
  <ele>1109.05</ele>
  <time>2026-09-01T20:02:16Z</time>
  <course>6.01</course>
  <speed>0.01414213562373095</speed>
  <fix>3d</fix>
</trkpt>
<trkpt lat="64.1624777" lon="-139.8402246">
  <ele>1109.09</ele>
  <time>2026-09-01T20:02:16Z</time>
  <course>180.78</course>
  <speed>0.0</speed>
  <fix>3d</fix>
</trkpt>
<trkpt lat="64.1624776" lon="-139.8402244">
  <ele>1109.05</ele>
  <time>2026-09-01T20:02:16Z</time>
  <course>6.02</course>
  <speed>0.01414213562373095</speed>
  <fix>3d</fix>
</trkpt>
<trkpt lat="64.1624777" lon="-139.8402246">
  <ele>1109.09</ele>
  <time>2026-09-01T20:02:16Z</time>
  <course>180.78</course>
  <speed>0.0</speed>
  <fix>3d</fix>
</trkpt>
<trkpt lat="64.1624776" lon="-139.8402244">
  <ele>1109.05</ele>
  <time>2026-09-01T20:02:16Z</time>
  <course>6.02</course>
  <speed>0.01414213562373095</speed>
  <fix>3d</fix>
</trkpt>
<trkpt lat="64.1624777" lon="-139.8402246">
  <ele>1109.09</ele>
  <time>2026-09-01T20:02:16Z</time>
  <course>180.78</course>
  <speed>0.0</speed>
  <fix>3d</fix>
</trkpt>
<trkpt lat="64.1624776" lon="-139.8402244">
  <ele>1109.05</ele>
  <time>2026-09-01T20:02:16Z</time>
  <course>6.02</course>
  <speed>0.01414213562373095</speed>
  <fix>3d</fix>
</trkpt>
<trkpt lat="64.1624777" lon="-139.8402246">
  <ele>1109.09</ele>
  <time>2026-09-01T20:02:16Z</time>
  <course>180.78</course>
  <speed>0.0</speed>
  <fix>3d</fix>
</trkpt>
<trkpt lat="64.1624776" lon="-139.8402244">
  <ele>1109.05</ele>
  <time>2026-09-01T20:02:16Z</time>
  <course>6.02</course>
  <speed>0.01414213562373095</speed>
  <fix>3d</fix>
</trkpt>
<trkpt lat="64.1624777" lon="-139.8402246">
  <ele>1109.09</ele>
  <time>2026-09-01T20:02:16Z</time>
  <course>180.78</course>
  <speed>0.0</speed>
  <fix>3d</fix>
</trkpt>
<trkpt lat="64.1624776" lon="-139.8402244">
  <ele>1109.05</ele>
  <time>2026-09-01T20:02:16Z</time>
  <course>6.02</course>
  <speed>0.01414213562373095</speed>
  <fix>3d</fix>
</trkpt>
<trkpt lat="64.1624777" lon="-139.8402246">
  <ele>1109.09</ele>
  <time>2026-09-01T20:02:16Z</time>
  <course>180.78</course>
  <speed>0.0</speed>
  <fix>3d</fix>
</trkpt>
<trkpt lat="64.1624776" lon="-139.8402244">
  <ele>1109.05</ele>
  <time>2026-09-01T20:02:16Z</time>
  <course>6.02</course>
  <speed>0.01414213562373095</speed>
  <fix>3d</fix>
</trkpt>
<trkpt lat="64.1624777" lon="-139.8402246">
  <ele>1109.09</ele>
  <time>2026-09-01T20:02:16Z</time>
  <course>180.78</course>
  <speed>0.0</speed>
  <fix>3d</fix>
</trkpt>
<trkpt lat="64.1624776" lon="-139.8402244">
  <ele>1109.05</ele>
  <time>2026-09-01T20:02:16Z</time>
  <course>6.02</course>
  <speed>0.01414213562373095</speed>
  <fix>3d</fix>
</trkpt>
<trkpt lat="64.1624777" lon="-139.8402246">
  <ele>1109.09</ele>
  <time>2026-09-01T20:02:16Z</time>
  <course>180.78</course>
  <speed>0.0</speed>
  <fix>3d</fix>
</trkpt>
<trkpt lat="64.1624776" lon="-139.8402244">
  <ele>1109.05</ele>
  <time>2026-09-01T20:02:16Z</time>
  <course>6.03</course>
  <speed>0.01414213562373095</speed>
  <fix>3d</fix>
</trkpt>
<trkpt lat="64.1624777" lon="-139.8402246">
  <ele>1109.09</ele>
  <time>2026-09-01T20:02:16Z</time>
  <course>180.78</course>
  <speed>0.0</speed>
  <fix>3d</fix>
</trkpt>
<trkpt lat="64.1624776" lon="-139.8402244">
  <ele>1109.05</ele>
  <time>2026-09-01T20:02:16Z</time>
  <course>6.03</course>
  <speed>0.01414213562373095</speed>
  <fix>3d</fix>
</trkpt>
<trkpt lat="64.1624777" lon="-139.8402246">
  <ele>1109.09</ele>
  <time>2026-09-01T20:02:16Z</time>
  <course>180.78</course>
  <speed>0.0</speed>
  <fix>3d</fix>
</trkpt>
<trkpt lat="64.1624776" lon="-139.8402244">
  <ele>1109.05</ele>
  <time>2026-09-01T20:02:16Z</time>
  <course>6.03</course>
  <speed>0.01414213562373095</speed>
  <fix>3d</fix>
</trkpt>
<trkpt lat="64.1624777" lon="-139.8402246">
  <ele>1109.09</ele>
  <time>2026-09-01T20:02:16Z</time>
  <course>180.78</course>
  <speed>0.0</speed>
  <fix>3d</fix>
</trkpt>
<trkpt lat="64.1624776" lon="-139.8402244">
  <ele>1109.04</ele>
  <time>2026-09-01T20:02:16Z</time>
  <course>6.03</course>
  <speed>0.01414213562373095</speed>
  <fix>3d</fix>
</trkpt>
<trkpt lat="64.1624777" lon="-139.8402246">
  <ele>1109.09</ele>
  <time>2026-09-01T20:02:16Z</time>
  <course>180.78</course>
  <speed>0.0</speed>
  <fix>3d</fix>
</trkpt>
<trkpt lat="64.1624776" lon="-139.8402244">
  <ele>1109.04</ele>
  <time>2026-09-01T20:02:16Z</time>
  <course>6.03</course>
  <speed>0.01414213562373095</speed>
  <fix>3d</fix>
</trkpt>
<trkpt lat="64.1624777" lon="-139.8402246">
  <ele>1109.09</ele>
  <time>2026-09-01T20:02:16Z</time>
  <course>180.78</course>
  <speed>0.0</speed>
  <fix>3d</fix>
</trkpt>
<trkpt lat="64.1624776" lon="-139.8402244">
  <ele>1109.04</ele>
  <time>2026-09-01T20:02:16Z</time>
  <course>6.03</course>
  <speed>0.01414213562373095</speed>
  <fix>3d</fix>
</trkpt>
<trkpt lat="64.1624777" lon="-139.8402246">
  <ele>1109.09</ele>
  <time>2026-09-01T20:02:16Z</time>
  <course>180.78</course>
  <speed>0.0</speed>
  <fix>3d</fix>
</trkpt>
<trkpt lat="64.1624776" lon="-139.8402244">
  <ele>1109.03</ele>
  <time>2026-09-01T20:02:16Z</time>
  <course>6.03</course>
  <speed>0.01414213562373095</speed>
  <fix>3d</fix>
</trkpt>
<trkpt lat="64.1624777" lon="-139.8402246">
  <ele>1109.09</ele>
  <time>2026-09-01T20:02:16Z</time>
  <course>180.78</course>
  <speed>0.0</speed>
  <fix>3d</fix>
</trkpt>
<trkpt lat="64.1624776" lon="-139.8402244">
  <ele>1109.03</ele>
  <time>2026-09-01T20:02:16Z</time>
  <course>6.04</course>
  <speed>0.01414213562373095</speed>
  <fix>3d</fix>
</trkpt>
<trkpt lat="64.1624777" lon="-139.8402246">
  <ele>1109.09</ele>
  <time>2026-09-01T20:02:16Z</time>
  <course>180.78</course>
  <speed>0.0</speed>
  <fix>3d</fix>
</trkpt>
<trkpt lat="64.1624776" lon="-139.8402244">
  <ele>1109.03</ele>
  <time>2026-09-01T20:02:16Z</time>
  <course>6.04</course>
  <speed>0.01414213562373095</speed>
  <fix>3d</fix>
</trkpt>
<trkpt lat="64.1624777" lon="-139.8402246">
  <ele>1109.09</ele>
  <time>2026-09-01T20:02:16Z</time>
  <course>180.78</course>
  <speed>0.0</speed>
  <fix>3d</fix>
</trkpt>
<trkpt lat="64.1624776" lon="-139.8402244">
  <ele>1109.03</ele>
  <time>2026-09-01T20:02:16Z</time>
  <course>6.04</course>
  <speed>0.01414213562373095</speed>
  <fix>3d</fix>
</trkpt>
<trkpt lat="64.1624777" lon="-139.8402246">
  <ele>1109.09</ele>
  <time>2026-09-01T20:02:16Z</time>
  <course>180.78</course>
  <speed>0.0</speed>
  <fix>3d</fix>
</trkpt>
<trkpt lat="64.1624776" lon="-139.8402244">
  <ele>1109.03</ele>
  <time>2026-09-01T20:02:16Z</time>
  <course>6.04</course>
  <speed>0.01414213562373095</speed>
  <fix>3d</fix>
</trkpt>
<trkpt lat="64.1624777" lon="-139.8402246">
  <ele>1109.09</ele>
  <time>2026-09-01T20:02:16Z</time>
  <course>180.78</course>
  <speed>0.0</speed>
  <fix>3d</fix>
</trkpt>
<trkpt lat="64.1624776" lon="-139.8402244">
  <ele>1109.03</ele>
  <time>2026-09-01T20:02:16Z</time>
  <course>6.04</course>
  <speed>0.01414213562373095</speed>
  <fix>3d</fix>
</trkpt>
<trkpt lat="64.1624777" lon="-139.8402246">
  <ele>1109.09</ele>
  <time>2026-09-01T20:02:16Z</time>
  <course>180.78</course>
  <speed>0.0</speed>
  <fix>3d</fix>
</trkpt>
<trkpt lat="64.1624776" lon="-139.8402244">
  <ele>1109.02</ele>
  <time>2026-09-01T20:02:16Z</time>
  <course>6.04</course>
  <speed>0.01414213562373095</speed>
  <fix>3d</fix>
</trkpt>
<trkpt lat="64.1624777" lon="-139.8402246">
  <ele>1109.09</ele>
  <time>2026-09-01T20:02:16Z</time>
  <course>180.78</course>
  <speed>0.0</speed>
  <fix>3d</fix>
</trkpt>
<trkpt lat="64.1624776" lon="-139.8402244">
  <ele>1109.02</ele>
  <time>2026-09-01T20:02:16Z</time>
  <course>6.04</course>
  <speed>0.01414213562373095</speed>
  <fix>3d</fix>
</trkpt>
<trkpt lat="64.1624777" lon="-139.8402246">
  <ele>1109.09</ele>
  <time>2026-09-01T20:02:16Z</time>
  <course>180.78</course>
  <speed>0.0</speed>
  <fix>3d</fix>
</trkpt>
<trkpt lat="64.1624776" lon="-139.8402244">
  <ele>1109.02</ele>
  <time>2026-09-01T20:02:16Z</time>
  <course>6.05</course>
  <speed>0.01414213562373095</speed>
  <fix>3d</fix>
</trkpt>
<trkpt lat="64.1624777" lon="-139.8402246">
  <ele>1109.09</ele>
  <time>2026-09-01T20:02:16Z</time>
  <course>180.78</course>
  <speed>0.0</speed>
  <fix>3d</fix>
</trkpt>
<trkpt lat="64.1624776" lon="-139.8402244">
  <ele>1109.02</ele>
  <time>2026-09-01T20:02:16Z</time>
  <course>6.05</course>
  <speed>0.01414213562373095</speed>
  <fix>3d</fix>
</trkpt>
<trkpt lat="64.1624777" lon="-139.8402246">
  <ele>1109.09</ele>
  <time>2026-09-01T20:02:16Z</time>
  <course>180.78</course>
  <speed>0.0</speed>
  <fix>3d</fix>
</trkpt>
<trkpt lat="64.1624776" lon="-139.8402244">
  <ele>1109.02</ele>
  <time>2026-09-01T20:02:16Z</time>
  <course>6.05</course>
  <speed>0.01414213562373095</speed>
  <fix>3d</fix>
</trkpt>
<trkpt lat="64.1624777" lon="-139.8402246">
  <ele>1109.09</ele>
  <time>2026-09-01T20:02:16Z</time>
  <course>180.78</course>
  <speed>0.0</speed>
  <fix>3d</fix>
</trkpt>
<trkpt lat="64.1624776" lon="-139.8402244">
  <ele>1109.02</ele>
  <time>2026-09-01T20:02:16Z</time>
  <course>6.05</course>
  <speed>0.01414213562373095</speed>
  <fix>3d</fix>
</trkpt>
<trkpt lat="64.1624777" lon="-139.8402246">
  <ele>1109.09</ele>
  <time>2026-09-01T20:02:16Z</time>
  <course>180.78</course>
  <speed>0.0</speed>
  <fix>3d</fix>
</trkpt>
<trkpt lat="64.1624776" lon="-139.8402244">
  <ele>1109.02</ele>
  <time>2026-09-01T20:02:16Z</time>
  <course>6.05</course>
  <speed>0.01414213562373095</speed>
  <fix>3d</fix>
</trkpt>
<trkpt lat="64.1624777" lon="-139.8402246">
  <ele>1109.09</ele>
  <time>2026-09-01T20:02:16Z</time>
  <course>180.78</course>
  <speed>0.0</speed>
  <fix>3d</fix>
</trkpt>
<trkpt lat="64.1624776" lon="-139.8402244">
  <ele>1109.02</ele>
  <time>2026-09-01T20:02:16Z</time>
  <course>6.05</course>
  <speed>0.01414213562373095</speed>
  <fix>3d</fix>
</trkpt>
<trkpt lat="64.1624777" lon="-139.8402246">
  <ele>1109.09</ele>
  <time>2026-09-01T20:02:16Z</time>
  <course>180.78</course>
  <speed>0.0</speed>
  <fix>3d</fix>
</trkpt>
<trkpt lat="64.1624776" lon="-139.8402244">
  <ele>1109.02</ele>
  <time>2026-09-01T20:02:16Z</time>
  <course>6.05</course>
  <speed>0.01414213562373095</speed>
  <fix>3d</fix>
</trkpt>
<trkpt lat="64.1624777" lon="-139.8402246">
  <ele>1109.09</ele>
  <time>2026-09-01T20:02:16Z</time>
  <course>180.78</course>
  <speed>0.0</speed>
  <fix>3d</fix>
</trkpt>
<trkpt lat="64.1624776" lon="-139.8402244">
  <ele>1109.02</ele>
  <time>2026-09-01T20:02:16Z</time>
  <course>6.05</course>
  <speed>0.01414213562373095</speed>
  <fix>3d</fix>
</trkpt>
<trkpt lat="64.1624777" lon="-139.8402246">
  <ele>1109.09</ele>
  <time>2026-09-01T20:02:16Z</time>
  <course>180.78</course>
  <speed>0.0</speed>
  <fix>3d</fix>
</trkpt>
<trkpt lat="64.1624776" lon="-139.8402244">
  <ele>1109.02</ele>
  <time>2026-09-01T20:02:16Z</time>
  <course>6.06</course>
  <speed>0.01414213562373095</speed>
  <fix>3d</fix>
</trkpt>
<trkpt lat="64.1624777" lon="-139.8402246">
  <ele>1109.09</ele>
  <time>2026-09-01T20:02:16Z</time>
  <course>180.78</course>
  <speed>0.0</speed>
  <fix>3d</fix>
</trkpt>
<trkpt lat="64.1624776" lon="-139.8402244">
  <ele>1109.02</ele>
  <time>2026-09-01T20:02:16Z</time>
  <course>6.06</course>
  <speed>0.01414213562373095</speed>
  <fix>3d</fix>
</trkpt>
<trkpt lat="64.1624777" lon="-139.8402246">
  <ele>1109.09</ele>
  <time>2026-09-01T20:02:16Z</time>
  <course>180.78</course>
  <speed>0.0</speed>
  <fix>3d</fix>
</trkpt>
<trkpt lat="64.1624776" lon="-139.8402244">
  <ele>1109.09</ele>
  <time>2026-09-01T20:02:16Z</time>
  <course>6.06</course>
  <speed>0.01414213562373095</speed>
  <fix>3d</fix>
</trkpt>
<trkpt lat="64.1624777" lon="-139.8402246">
  <ele>1109.09</ele>
  <time>2026-09-01T20:02:16Z</time>
  <course>180.78</course>
  <speed>0.0</speed>
  <fix>3d</fix>
</trkpt>
<trkpt lat="64.1624776" lon="-139.8402244">
  <ele>1109.08</ele>
  <time>2026-09-01T20:02:16Z</time>
  <course>6.06</course>
  <speed>0.01414213562373095</speed>
  <fix>3d</fix>
</trkpt>
<trkpt lat="64.1624777" lon="-139.8402246">
  <ele>1109.09</ele>
  <time>2026-09-01T20:02:16Z</time>
  <course>180.78</course>
  <speed>0.0</speed>
  <fix>3d</fix>
</trkpt>
<trkpt lat="64.1624776" lon="-139.8402244">
  <ele>1109.08</ele>
  <time>2026-09-01T20:02:16Z</time>
  <course>6.06</course>
  <speed>0.01414213562373095</speed>
  <fix>3d</fix>
</trkpt>
<trkpt lat="64.1624777" lon="-139.8402246">
  <ele>1109.09</ele>
  <time>2026-09-01T20:02:16Z</time>
  <course>180.78</course>
  <speed>0.0</speed>
  <fix>3d</fix>
</trkpt>
<trkpt lat="64.1624776" lon="-139.8402244">
  <ele>1109.08</ele>
  <time>2026-09-01T20:02:16Z</time>
  <course>6.06</course>
  <speed>0.01414213562373095</speed>
  <fix>3d</fix>
</trkpt>
<trkpt lat="64.1624777" lon="-139.8402246">
  <ele>1109.09</ele>
  <time>2026-09-01T20:02:16Z</time>
  <course>180.78</course>
  <speed>0.0</speed>
  <fix>3d</fix>
</trkpt>
<trkpt lat="64.1624776" lon="-139.8402244">
  <ele>1109.08</ele>
  <time>2026-09-01T20:02:16Z</time>
  <course>6.06</course>
  <speed>0.01414213562373095</speed>
  <fix>3d</fix>
</trkpt>
<trkpt lat="64.1624777" lon="-139.8402246">
  <ele>1109.09</ele>
  <time>2026-09-01T20:02:16Z</time>
  <course>180.78</course>
  <speed>0.0</speed>
  <fix>3d</fix>
</trkpt>
<trkpt lat="64.1624776" lon="-139.8402244">
  <ele>1109.07</ele>
  <time>2026-09-01T20:02:16Z</time>
  <course>6.07</course>
  <speed>0.01414213562373095</speed>
  <fix>3d</fix>
</trkpt>
<trkpt lat="64.1624777" lon="-139.8402246">
  <ele>1109.09</ele>
  <time>2026-09-01T20:02:16Z</time>
  <course>180.78</course>
  <speed>0.0</speed>
  <fix>3d</fix>
</trkpt>
<trkpt lat="64.1624776" lon="-139.8402244">
  <ele>1109.07</ele>
  <time>2026-09-01T20:02:16Z</time>
  <course>6.07</course>
  <speed>0.01414213562373095</speed>
  <fix>3d</fix>
</trkpt>
<trkpt lat="64.1624777" lon="-139.8402246">
  <ele>1109.09</ele>
  <time>2026-09-01T20:02:16Z</time>
  <course>180.78</course>
  <speed>0.0</speed>
  <fix>3d</fix>
</trkpt>
<trkpt lat="64.1624776" lon="-139.8402244">
  <ele>1109.07</ele>
  <time>2026-09-01T20:02:16Z</time>
  <course>6.07</course>
  <speed>0.01414213562373095</speed>
  <fix>3d</fix>
</trkpt>
<trkpt lat="64.1624777" lon="-139.8402246">
  <ele>1109.09</ele>
  <time>2026-09-01T20:02:16Z</time>
  <course>180.78</course>
  <speed>0.0</speed>
  <fix>3d</fix>
</trkpt>
<trkpt lat="64.1624776" lon="-139.8402244">
  <ele>1109.06</ele>
  <time>2026-09-01T20:02:16Z</time>
  <course>6.07</course>
  <speed>0.01414213562373095</speed>
  <fix>3d</fix>
</trkpt>
<trkpt lat="64.1624777" lon="-139.8402246">
  <ele>1109.09</ele>
  <time>2026-09-01T20:02:16Z</time>
  <course>180.78</course>
  <speed>0.0</speed>
  <fix>3d</fix>
</trkpt>
<trkpt lat="64.1624776" lon="-139.8402244">
  <ele>1109.06</ele>
  <time>2026-09-01T20:02:16Z</time>
  <course>6.07</course>
  <speed>0.01414213562373095</speed>
  <fix>3d</fix>
</trkpt>
<trkpt lat="64.1624777" lon="-139.8402246">
  <ele>1109.09</ele>
  <time>2026-09-01T20:02:16Z</time>
  <course>180.78</course>
  <speed>0.0</speed>
  <fix>3d</fix>
</trkpt>
<trkpt lat="64.1624776" lon="-139.8402244">
  <ele>1109.06</ele>
  <time>2026-09-01T20:02:16Z</time>
  <course>6.07</course>
  <speed>0.01414213562373095</speed>
  <fix>3d</fix>
</trkpt>
<trkpt lat="64.1624777" lon="-139.8402246">
  <ele>1109.09</ele>
  <time>2026-09-01T20:02:16Z</time>
  <course>180.78</course>
  <speed>0.0</speed>
  <fix>3d</fix>
</trkpt>
<trkpt lat="64.1624776" lon="-139.8402244">
  <ele>1109.05</ele>
  <time>2026-09-01T20:02:16Z</time>
  <course>6.07</course>
  <speed>0.01414213562373095</speed>
  <fix>3d</fix>
</trkpt>
<trkpt lat="64.1624777" lon="-139.8402246">
  <ele>1109.09</ele>
  <time>2026-09-01T20:02:16Z</time>
  <course>180.78</course>
  <speed>0.0</speed>
  <fix>3d</fix>
</trkpt>
<trkpt lat="64.1624776" lon="-139.8402244">
  <ele>1109.05</ele>
  <time>2026-09-01T20:02:16Z</time>
  <course>6.07</course>
  <speed>0.01414213562373095</speed>
  <fix>3d</fix>
</trkpt>
<trkpt lat="64.1624777" lon="-139.8402246">
  <ele>1109.09</ele>
  <time>2026-09-01T20:02:16Z</time>
  <course>180.78</course>
  <speed>0.0</speed>
  <fix>3d</fix>
</trkpt>
<trkpt lat="64.1624776" lon="-139.8402244">
  <ele>1109.04</ele>
  <time>2026-09-01T20:02:16Z</time>
  <course>6.08</course>
  <speed>0.01414213562373095</speed>
  <fix>3d</fix>
</trkpt>
<trkpt lat="64.1624777" lon="-139.8402246">
  <ele>1109.09</ele>
  <time>2026-09-01T20:02:16Z</time>
  <course>180.78</course>
  <speed>0.0</speed>
  <fix>3d</fix>
</trkpt>
<trkpt lat="64.1624776" lon="-139.8402244">
  <ele>1109.04</ele>
  <time>2026-09-01T20:02:16Z</time>
  <course>6.08</course>
  <speed>0.01414213562373095</speed>
  <fix>3d</fix>
</trkpt>
<trkpt lat="64.1624777" lon="-139.8402246">
  <ele>1109.09</ele>
  <time>2026-09-01T20:02:16Z</time>
  <course>180.78</course>
  <speed>0.0</speed>
  <fix>3d</fix>
</trkpt>
<trkpt lat="64.1624776" lon="-139.8402244">
  <ele>1109.04</ele>
  <time>2026-09-01T20:02:16Z</time>
  <course>6.08</course>
  <speed>0.01414213562373095</speed>
  <fix>3d</fix>
</trkpt>
<trkpt lat="64.1624777" lon="-139.8402246">
  <ele>1109.09</ele>
  <time>2026-09-01T20:02:16Z</time>
  <course>180.78</course>
  <speed>0.0</speed>
  <fix>3d</fix>
</trkpt>
<trkpt lat="64.1624776" lon="-139.8402244">
  <ele>1109.03</ele>
  <time>2026-09-01T20:02:16Z</time>
  <course>6.08</course>
  <speed>0.01414213562373095</speed>
  <fix>3d</fix>
</trkpt>
<trkpt lat="64.1624777" lon="-139.8402246">
  <ele>1109.09</ele>
  <time>2026-09-01T20:02:16Z</time>
  <course>180.78</course>
  <speed>0.0</speed>
  <fix>3d</fix>
</trkpt>
<trkpt lat="64.1624776" lon="-139.8402244">
  <ele>1109.03</ele>
  <time>2026-09-01T20:02:16Z</time>
  <course>6.08</course>
  <speed>0.01414213562373095</speed>
  <fix>3d</fix>
</trkpt>
<trkpt lat="64.1624777" lon="-139.8402246">
  <ele>1109.09</ele>
  <time>2026-09-01T20:02:16Z</time>
  <course>180.78</course>
  <speed>0.0</speed>
  <fix>3d</fix>
</trkpt>
<trkpt lat="64.1624776" lon="-139.8402244">
  <ele>1109.02</ele>
  <time>2026-09-01T20:02:16Z</time>
  <course>6.08</course>
  <speed>0.01414213562373095</speed>
  <fix>3d</fix>
</trkpt>
<trkpt lat="64.1624777" lon="-139.8402246">
  <ele>1109.09</ele>
  <time>2026-09-01T20:02:16Z</time>
  <course>180.78</course>
  <speed>0.0</speed>
  <fix>3d</fix>
</trkpt>
<trkpt lat="64.1624776" lon="-139.8402244">
  <ele>1109.02</ele>
  <time>2026-09-01T20:02:16Z</time>
  <course>6.08</course>
  <speed>0.01414213562373095</speed>
  <fix>3d</fix>
</trkpt>
<trkpt lat="64.1624777" lon="-139.8402246">
  <ele>1109.09</ele>
  <time>2026-09-01T20:02:16Z</time>
  <course>180.78</course>
  <speed>0.0</speed>
  <fix>3d</fix>
</trkpt>
<trkpt lat="64.1624776" lon="-139.8402244">
  <ele>1109.01</ele>
  <time>2026-09-01T20:02:16Z</time>
  <course>6.09</course>
  <speed>0.01414213562373095</speed>
  <fix>3d</fix>
</trkpt>
<trkpt lat="64.1624777" lon="-139.8402246">
  <ele>1109.09</ele>
  <time>2026-09-01T20:02:16Z</time>
  <course>180.78</course>
  <speed>0.0</speed>
  <fix>3d</fix>
</trkpt>
<trkpt lat="64.1624776" lon="-139.8402244">
  <ele>1109.01</ele>
  <time>2026-09-01T20:02:16Z</time>
  <course>6.09</course>
  <speed>0.01414213562373095</speed>
  <fix>3d</fix>
</trkpt>
<trkpt lat="64.1624777" lon="-139.8402246">
  <ele>1109.09</ele>
  <time>2026-09-01T20:02:16Z</time>
  <course>180.78</course>
  <speed>0.0</speed>
  <fix>3d</fix>
</trkpt>
<trkpt lat="64.1624776" lon="-139.8402244">
  <ele>1109.01</ele>
  <time>2026-09-01T20:02:16Z</time>
  <course>6.09</course>
  <speed>0.01414213562373095</speed>
  <fix>3d</fix>
</trkpt>
<trkpt lat="64.1624777" lon="-139.8402246">
  <ele>1109.09</ele>
  <time>2026-09-01T20:02:16Z</time>
  <course>180.78</course>
  <speed>0.0</speed>
  <fix>3d</fix>
</trkpt>
<trkpt lat="64.1624776" lon="-139.8402244">
  <ele>1109.01</ele>
  <time>2026-09-01T20:02:16Z</time>
  <course>6.09</course>
  <speed>0.01414213562373095</speed>
  <fix>3d</fix>
</trkpt>
<trkpt lat="64.1624777" lon="-139.8402246">
  <ele>1109.09</ele>
  <time>2026-09-01T20:02:16Z</time>
  <course>180.78</course>
  <speed>0.0</speed>
  <fix>3d</fix>
</trkpt>
<trkpt lat="64.1624776" lon="-139.8402244">
  <ele>1109.01</ele>
  <time>2026-09-01T20:02:16Z</time>
  <course>6.09</course>
  <speed>0.01414213562373095</speed>
  <fix>3d</fix>
</trkpt>
<trkpt lat="64.1624777" lon="-139.8402246">
  <ele>1109.09</ele>
  <time>2026-09-01T20:02:16Z</time>
  <course>180.78</course>
  <speed>0.0</speed>
  <fix>3d</fix>
</trkpt>
<trkpt lat="64.1624776" lon="-139.8402244">
  <ele>1109.01</ele>
  <time>2026-09-01T20:02:16Z</time>
  <course>6.09</course>
  <speed>0.01414213562373095</speed>
  <fix>3d</fix>
</trkpt>
<trkpt lat="64.1624777" lon="-139.8402246">
  <ele>1109.09</ele>
  <time>2026-09-01T20:02:16Z</time>
  <course>180.78</course>
  <speed>0.0</speed>
  <fix>3d</fix>
</trkpt>
<trkpt lat="64.1624776" lon="-139.8402244">
  <ele>1109.0</ele>
  <time>2026-09-01T20:02:16Z</time>
  <course>6.09</course>
  <speed>0.01414213562373095</speed>
  <fix>3d</fix>
</trkpt>
<trkpt lat="64.1624777" lon="-139.8402246">
  <ele>1109.09</ele>
  <time>2026-09-01T20:02:16Z</time>
  <course>180.78</course>
  <speed>0.0</speed>
  <fix>3d</fix>
</trkpt>
<trkpt lat="64.1624776" lon="-139.8402244">
  <ele>1109.0</ele>
  <time>2026-09-01T20:02:16Z</time>
  <course>6.09</course>
  <speed>0.01414213562373095</speed>
  <fix>3d</fix>
</trkpt>
<trkpt lat="64.1624777" lon="-139.8402246">
  <ele>1109.09</ele>
  <time>2026-09-01T20:02:16Z</time>
  <course>180.78</course>
  <speed>0.0</speed>
  <fix>3d</fix>
</trkpt>
<trkpt lat="64.1624776" lon="-139.8402244">
  <ele>1108.99</ele>
  <time>2026-09-01T20:02:16Z</time>
  <course>6.1</course>
  <speed>0.01414213562373095</speed>
  <fix>3d</fix>
</trkpt>
<trkpt lat="64.1624777" lon="-139.8402246">
  <ele>1109.09</ele>
  <time>2026-09-01T20:02:16Z</time>
  <course>180.78</course>
  <speed>0.0</speed>
  <fix>3d</fix>
</trkpt>
<trkpt lat="64.1624776" lon="-139.8402244">
  <ele>1108.99</ele>
  <time>2026-09-01T20:02:16Z</time>
  <course>6.1</course>
  <speed>0.01414213562373095</speed>
  <fix>3d</fix>
</trkpt>
<trkpt lat="64.1624777" lon="-139.8402246">
  <ele>1109.09</ele>
  <time>2026-09-01T20:02:16Z</time>
  <course>180.78</course>
  <speed>0.0</speed>
  <fix>3d</fix>
</trkpt>
<trkpt lat="64.1624776" lon="-139.8402244">
  <ele>1108.99</ele>
  <time>2026-09-01T20:02:16Z</time>
  <course>6.1</course>
  <speed>0.01414213562373095</speed>
  <fix>3d</fix>
</trkpt>
<trkpt lat="64.1624777" lon="-139.8402246">
  <ele>1109.09</ele>
  <time>2026-09-01T20:02:16Z</time>
  <course>180.78</course>
  <speed>0.0</speed>
  <fix>3d</fix>
</trkpt>
<trkpt lat="64.1624776" lon="-139.8402244">
  <ele>1108.98</ele>
  <time>2026-09-01T20:02:16Z</time>
  <course>6.1</course>
  <speed>0.01414213562373095</speed>
  <fix>3d</fix>
</trkpt>
<trkpt lat="64.1624777" lon="-139.8402246">
  <ele>1109.09</ele>
  <time>2026-09-01T20:02:16Z</time>
  <course>180.78</course>
  <speed>0.0</speed>
  <fix>3d</fix>
</trkpt>
<trkpt lat="64.1624776" lon="-139.8402244">
  <ele>1108.98</ele>
  <time>2026-09-01T20:02:16Z</time>
  <course>6.1</course>
  <speed>0.01414213562373095</speed>
  <fix>3d</fix>
</trkpt>
<trkpt lat="64.1624777" lon="-139.8402246">
  <ele>1109.09</ele>
  <time>2026-09-01T20:02:16Z</time>
  <course>180.78</course>
  <speed>0.0</speed>
  <fix>3d</fix>
</trkpt>
<trkpt lat="64.1624776" lon="-139.8402244">
  <ele>1108.98</ele>
  <time>2026-09-01T20:02:16Z</time>
  <course>6.1</course>
  <speed>0.01414213562373095</speed>
  <fix>3d</fix>
</trkpt>
<trkpt lat="64.1624777" lon="-139.8402246">
  <ele>1109.09</ele>
  <time>2026-09-01T20:02:16Z</time>
  <course>180.78</course>
  <speed>0.0</speed>
  <fix>3d</fix>
</trkpt>
<trkpt lat="64.1624776" lon="-139.8402244">
  <ele>1108.98</ele>
  <time>2026-09-01T20:02:16Z</time>
  <course>6.1</course>
  <speed>0.01414213562373095</speed>
  <fix>3d</fix>
</trkpt>
<trkpt lat="64.1624777" lon="-139.8402246">
  <ele>1109.09</ele>
  <time>2026-09-01T20:02:16Z</time>
  <course>180.78</course>
  <speed>0.0</speed>
  <fix>3d</fix>
</trkpt>
<trkpt lat="64.1624776" lon="-139.8402244">
  <ele>1108.98</ele>
  <time>2026-09-01T20:02:16Z</time>
  <course>6.1</course>
  <speed>0.01414213562373095</speed>
  <fix>3d</fix>
</trkpt>
<trkpt lat="64.1624777" lon="-139.8402246">
  <ele>1109.09</ele>
  <time>2026-09-01T20:02:16Z</time>
  <course>180.78</course>
  <speed>0.0</speed>
  <fix>3d</fix>
</trkpt>
<trkpt lat="64.1624776" lon="-139.8402244">
  <ele>1108.97</ele>
  <time>2026-09-01T20:02:16Z</time>
  <course>6.11</course>
  <speed>0.01414213562373095</speed>
  <fix>3d</fix>
</trkpt>
<trkpt lat="64.1624777" lon="-139.8402246">
  <ele>1109.09</ele>
  <time>2026-09-01T20:02:16Z</time>
  <course>180.78</course>
  <speed>0.0</speed>
  <fix>3d</fix>
</trkpt>
<trkpt lat="64.1624776" lon="-139.8402244">
  <ele>1108.97</ele>
  <time>2026-09-01T20:02:16Z</time>
  <course>6.11</course>
  <speed>0.01414213562373095</speed>
  <fix>3d</fix>
</trkpt>
<trkpt lat="64.1624777" lon="-139.8402246">
  <ele>1109.09</ele>
  <time>2026-09-01T20:02:16Z</time>
  <course>180.78</course>
  <speed>0.0</speed>
  <fix>3d</fix>
</trkpt>
<trkpt lat="64.1624776" lon="-139.8402244">
  <ele>1108.97</ele>
  <time>2026-09-01T20:02:16Z</time>
  <course>6.11</course>
  <speed>0.01414213562373095</speed>
  <fix>3d</fix>
</trkpt>
<trkpt lat="64.1624777" lon="-139.8402246">
  <ele>1109.09</ele>
  <time>2026-09-01T20:02:16Z</time>
  <course>180.78</course>
  <speed>0.0</speed>
  <fix>3d</fix>
</trkpt>
<trkpt lat="64.1624776" lon="-139.8402244">
  <ele>1108.97</ele>
  <time>2026-09-01T20:02:16Z</time>
  <course>6.11</course>
  <speed>0.01414213562373095</speed>
  <fix>3d</fix>
</trkpt>
<trkpt lat="64.1624777" lon="-139.8402246">
  <ele>1109.09</ele>
  <time>2026-09-01T20:02:16Z</time>
  <course>180.78</course>
  <speed>0.0</speed>
  <fix>3d</fix>
</trkpt>
<trkpt lat="64.1624776" lon="-139.8402244">
  <ele>1108.97</ele>
  <time>2026-09-01T20:02:16Z</time>
  <course>6.11</course>
  <speed>0.01414213562373095</speed>
  <fix>3d</fix>
</trkpt>
<trkpt lat="64.1624777" lon="-139.8402246">
  <ele>1109.09</ele>
  <time>2026-09-01T20:02:16Z</time>
  <course>180.78</course>
  <speed>0.0</speed>
  <fix>3d</fix>
</trkpt>
<trkpt lat="64.1624776" lon="-139.8402244">
  <ele>1108.97</ele>
  <time>2026-09-01T20:02:16Z</time>
  <course>6.11</course>
  <speed>0.01414213562373095</speed>
  <fix>3d</fix>
</trkpt>
<trkpt lat="64.1624777" lon="-139.8402246">
  <ele>1109.09</ele>
  <time>2026-09-01T20:02:16Z</time>
  <course>180.78</course>
  <speed>0.0</speed>
  <fix>3d</fix>
</trkpt>
<trkpt lat="64.1624776" lon="-139.8402244">
  <ele>1108.97</ele>
  <time>2026-09-01T20:02:16Z</time>
  <course>6.11</course>
  <speed>0.01414213562373095</speed>
  <fix>3d</fix>
</trkpt>
<trkpt lat="64.1624777" lon="-139.8402246">
  <ele>1109.09</ele>
  <time>2026-09-01T20:02:16Z</time>
  <course>180.78</course>
  <speed>0.0</speed>
  <fix>3d</fix>
</trkpt>
<trkpt lat="64.1624776" lon="-139.8402244">
  <ele>1108.97</ele>
  <time>2026-09-01T20:02:16Z</time>
  <course>6.11</course>
  <speed>0.01414213562373095</speed>
  <fix>3d</fix>
</trkpt>
<trkpt lat="64.1624777" lon="-139.8402246">
  <ele>1109.09</ele>
  <time>2026-09-01T20:02:16Z</time>
  <course>180.78</course>
  <speed>0.0</speed>
  <fix>3d</fix>
</trkpt>
<trkpt lat="64.1624776" lon="-139.8402244">
  <ele>1108.97</ele>
  <time>2026-09-01T20:02:16Z</time>
  <course>6.12</course>
  <speed>0.01414213562373095</speed>
  <fix>3d</fix>
</trkpt>
<trkpt lat="64.1624777" lon="-139.8402246">
  <ele>1109.09</ele>
  <time>2026-09-01T20:02:16Z</time>
  <course>180.78</course>
  <speed>0.0</speed>
  <fix>3d</fix>
</trkpt>
<trkpt lat="64.1624776" lon="-139.8402244">
  <ele>1108.97</ele>
  <time>2026-09-01T20:02:16Z</time>
  <course>6.12</course>
  <speed>0.01414213562373095</speed>
  <fix>3d</fix>
</trkpt>
<trkpt lat="64.1624777" lon="-139.8402246">
  <ele>1109.09</ele>
  <time>2026-09-01T20:02:16Z</time>
  <course>180.78</course>
  <speed>0.0</speed>
  <fix>3d</fix>
</trkpt>
<trkpt lat="64.1624776" lon="-139.8402244">
  <ele>1108.97</ele>
  <time>2026-09-01T20:02:16Z</time>
  <course>6.12</course>
  <speed>0.01414213562373095</speed>
  <fix>3d</fix>
</trkpt>
<trkpt lat="64.1624777" lon="-139.8402246">
  <ele>1109.09</ele>
  <time>2026-09-01T20:02:16Z</time>
  <course>180.78</course>
  <speed>0.0</speed>
  <fix>3d</fix>
</trkpt>
<trkpt lat="64.1624776" lon="-139.8402244">
  <ele>1108.96</ele>
  <time>2026-09-01T20:02:16Z</time>
  <course>6.12</course>
  <speed>0.01414213562373095</speed>
  <fix>3d</fix>
</trkpt>
<trkpt lat="64.1624777" lon="-139.8402246">
  <ele>1109.09</ele>
  <time>2026-09-01T20:02:16Z</time>
  <course>180.78</course>
  <speed>0.0</speed>
  <fix>3d</fix>
</trkpt>
<trkpt lat="64.1624776" lon="-139.8402244">
  <ele>1108.96</ele>
  <time>2026-09-01T20:02:16Z</time>
  <course>6.12</course>
  <speed>0.01414213562373095</speed>
  <fix>3d</fix>
</trkpt>
<trkpt lat="64.1624777" lon="-139.8402246">
  <ele>1109.09</ele>
  <time>2026-09-01T20:02:16Z</time>
  <course>180.78</course>
  <speed>0.0</speed>
  <fix>3d</fix>
</trkpt>
<trkpt lat="64.1624776" lon="-139.8402244">
  <ele>1108.96</ele>
  <time>2026-09-01T20:02:16Z</time>
  <course>6.12</course>
  <speed>0.01414213562373095</speed>
  <fix>3d</fix>
</trkpt>
<trkpt lat="64.1624777" lon="-139.8402246">
  <ele>1109.09</ele>
  <time>2026-09-01T20:02:16Z</time>
  <course>180.78</course>
  <speed>0.0</speed>
  <fix>3d</fix>
</trkpt>
<trkpt lat="64.1624776" lon="-139.8402244">
  <ele>1108.96</ele>
  <time>2026-09-01T20:02:16Z</time>
  <course>6.12</course>
  <speed>0.01414213562373095</speed>
  <fix>3d</fix>
</trkpt>
<trkpt lat="64.1624777" lon="-139.8402246">
  <ele>1109.09</ele>
  <time>2026-09-01T20:02:16Z</time>
  <course>180.78</course>
  <speed>0.0</speed>
  <fix>3d</fix>
</trkpt>
<trkpt lat="64.1624776" lon="-139.8402244">
  <ele>1108.95</ele>
  <time>2026-09-01T20:02:16Z</time>
  <course>6.12</course>
  <speed>0.01414213562373095</speed>
  <fix>3d</fix>
</trkpt>
<trkpt lat="64.1624777" lon="-139.8402246">
  <ele>1109.09</ele>
  <time>2026-09-01T20:02:16Z</time>
  <course>180.78</course>
  <speed>0.0</speed>
  <fix>3d</fix>
</trkpt>
<trkpt lat="64.1624776" lon="-139.8402244">
  <ele>1108.95</ele>
  <time>2026-09-01T20:02:16Z</time>
  <course>6.13</course>
  <speed>0.01414213562373095</speed>
  <fix>3d</fix>
</trkpt>
<trkpt lat="64.1624777" lon="-139.8402246">
  <ele>1109.09</ele>
  <time>2026-09-01T20:02:16Z</time>
  <course>180.78</course>
  <speed>0.0</speed>
  <fix>3d</fix>
</trkpt>
<trkpt lat="64.1624776" lon="-139.8402244">
  <ele>1108.95</ele>
  <time>2026-09-01T20:02:16Z</time>
  <course>6.13</course>
  <speed>0.01414213562373095</speed>
  <fix>3d</fix>
</trkpt>
<trkpt lat="64.1624777" lon="-139.8402246">
  <ele>1109.09</ele>
  <time>2026-09-01T20:02:16Z</time>
  <course>180.78</course>
  <speed>0.0</speed>
  <fix>3d</fix>
</trkpt>
<trkpt lat="64.1624776" lon="-139.8402244">
  <ele>1108.95</ele>
  <time>2026-09-01T20:02:16Z</time>
  <course>6.13</course>
  <speed>0.01414213562373095</speed>
  <fix>3d</fix>
</trkpt>
<trkpt lat="64.1624777" lon="-139.8402246">
  <ele>1109.09</ele>
  <time>2026-09-01T20:02:16Z</time>
  <course>180.78</course>
  <speed>0.0</speed>
  <fix>3d</fix>
</trkpt>
<trkpt lat="64.1624776" lon="-139.8402244">
  <ele>1108.94</ele>
  <time>2026-09-01T20:02:16Z</time>
  <course>6.13</course>
  <speed>0.01414213562373095</speed>
  <fix>3d</fix>
</trkpt>
<trkpt lat="64.1624777" lon="-139.8402246">
  <ele>1109.09</ele>
  <time>2026-09-01T20:02:16Z</time>
  <course>180.78</course>
  <speed>0.0</speed>
  <fix>3d</fix>
</trkpt>
<trkpt lat="64.1624776" lon="-139.8402244">
  <ele>1108.94</ele>
  <time>2026-09-01T20:02:16Z</time>
  <course>6.13</course>
  <speed>0.01414213562373095</speed>
  <fix>3d</fix>
</trkpt>
<trkpt lat="64.1624777" lon="-139.8402246">
  <ele>1109.09</ele>
  <time>2026-09-01T20:02:16Z</time>
  <course>180.78</course>
  <speed>0.0</speed>
  <fix>3d</fix>
</trkpt>
<trkpt lat="64.1624776" lon="-139.8402244">
  <ele>1108.94</ele>
  <time>2026-09-01T20:02:16Z</time>
  <course>6.13</course>
  <speed>0.01414213562373095</speed>
  <fix>3d</fix>
</trkpt>
<trkpt lat="64.1624777" lon="-139.8402246">
  <ele>1109.09</ele>
  <time>2026-09-01T20:02:16Z</time>
  <course>180.78</course>
  <speed>0.0</speed>
  <fix>3d</fix>
</trkpt>
<trkpt lat="64.1624776" lon="-139.8402244">
  <ele>1108.94</ele>
  <time>2026-09-01T20:02:16Z</time>
  <course>6.13</course>
  <speed>0.01414213562373095</speed>
  <fix>3d</fix>
</trkpt>
<trkpt lat="64.1624777" lon="-139.8402246">
  <ele>1109.09</ele>
  <time>2026-09-01T20:02:16Z</time>
  <course>180.78</course>
  <speed>0.0</speed>
  <fix>3d</fix>
</trkpt>
<trkpt lat="64.1624776" lon="-139.8402244">
  <ele>1108.94</ele>
  <time>2026-09-01T20:02:16Z</time>
  <course>6.13</course>
  <speed>0.01414213562373095</speed>
  <fix>3d</fix>
</trkpt>
<trkpt lat="64.1624777" lon="-139.8402246">
  <ele>1109.09</ele>
  <time>2026-09-01T20:02:16Z</time>
  <course>180.78</course>
  <speed>0.0</speed>
  <fix>3d</fix>
</trkpt>
<trkpt lat="64.1624776" lon="-139.8402244">
  <ele>1109.09</ele>
  <time>2026-09-01T20:02:16Z</time>
  <course>6.14</course>
  <speed>0.01414213562373095</speed>
  <fix>3d</fix>
</trkpt>
<trkpt lat="64.1624777" lon="-139.8402246">
  <ele>1109.09</ele>
  <time>2026-09-01T20:02:16Z</time>
  <course>180.78</course>
  <speed>0.0</speed>
  <fix>3d</fix>
</trkpt>
<trkpt lat="64.1624776" lon="-139.8402244">
  <ele>1109.08</ele>
  <time>2026-09-01T20:02:16Z</time>
  <course>6.14</course>
  <speed>0.01414213562373095</speed>
  <fix>3d</fix>
</trkpt>
<trkpt lat="64.1624777" lon="-139.8402246">
  <ele>1109.09</ele>
  <time>2026-09-01T20:02:16Z</time>
  <course>180.78</course>
  <speed>0.0</speed>
  <fix>3d</fix>
</trkpt>
<trkpt lat="64.1624776" lon="-139.8402244">
  <ele>1109.08</ele>
  <time>2026-09-01T20:02:16Z</time>
  <course>6.14</course>
  <speed>0.01414213562373095</speed>
  <fix>3d</fix>
</trkpt>
<trkpt lat="64.1624777" lon="-139.8402246">
  <ele>1109.09</ele>
  <time>2026-09-01T20:02:16Z</time>
  <course>180.78</course>
  <speed>0.0</speed>
  <fix>3d</fix>
</trkpt>
<trkpt lat="64.1624776" lon="-139.8402244">
  <ele>1109.08</ele>
  <time>2026-09-01T20:02:16Z</time>
  <course>6.14</course>
  <speed>0.01414213562373095</speed>
  <fix>3d</fix>
</trkpt>
<trkpt lat="64.1624777" lon="-139.8402246">
  <ele>1109.09</ele>
  <time>2026-09-01T20:02:16Z</time>
  <course>180.78</course>
  <speed>0.0</speed>
  <fix>3d</fix>
</trkpt>
<trkpt lat="64.1624776" lon="-139.8402244">
  <ele>1109.08</ele>
  <time>2026-09-01T20:02:16Z</time>
  <course>6.14</course>
  <speed>0.01414213562373095</speed>
  <fix>3d</fix>
</trkpt>
<trkpt lat="64.1624777" lon="-139.8402246">
  <ele>1109.09</ele>
  <time>2026-09-01T20:02:16Z</time>
  <course>180.78</course>
  <speed>0.0</speed>
  <fix>3d</fix>
</trkpt>
<trkpt lat="64.1624776" lon="-139.8402244">
  <ele>1109.08</ele>
  <time>2026-09-01T20:02:16Z</time>
  <course>6.14</course>
  <speed>0.01414213562373095</speed>
  <fix>3d</fix>
</trkpt>
<trkpt lat="64.1624777" lon="-139.8402246">
  <ele>1109.09</ele>
  <time>2026-09-01T20:02:16Z</time>
  <course>180.78</course>
  <speed>0.0</speed>
  <fix>3d</fix>
</trkpt>
<trkpt lat="64.1624776" lon="-139.8402244">
  <ele>1109.08</ele>
  <time>2026-09-01T20:02:16Z</time>
  <course>6.14</course>
  <speed>0.01414213562373095</speed>
  <fix>3d</fix>
</trkpt>
<trkpt lat="64.1624777" lon="-139.8402246">
  <ele>1109.09</ele>
  <time>2026-09-01T20:02:16Z</time>
  <course>180.78</course>
  <speed>0.0</speed>
  <fix>3d</fix>
</trkpt>
<trkpt lat="64.1624776" lon="-139.8402244">
  <ele>1109.07</ele>
  <time>2026-09-01T20:02:16Z</time>
  <course>6.14</course>
  <speed>0.01414213562373095</speed>
  <fix>3d</fix>
</trkpt>
<trkpt lat="64.1624777" lon="-139.8402246">
  <ele>1109.09</ele>
  <time>2026-09-01T20:02:16Z</time>
  <course>180.78</course>
  <speed>0.0</speed>
  <fix>3d</fix>
</trkpt>
<trkpt lat="64.1624776" lon="-139.8402244">
  <ele>1109.07</ele>
  <time>2026-09-01T20:02:16Z</time>
  <course>6.15</course>
  <speed>0.01414213562373095</speed>
  <fix>3d</fix>
</trkpt>
<trkpt lat="64.1624777" lon="-139.8402246">
  <ele>1109.09</ele>
  <time>2026-09-01T20:02:16Z</time>
  <course>180.78</course>
  <speed>0.0</speed>
  <fix>3d</fix>
</trkpt>
<trkpt lat="64.1624776" lon="-139.8402244">
  <ele>1109.07</ele>
  <time>2026-09-01T20:02:16Z</time>
  <course>6.15</course>
  <speed>0.01414213562373095</speed>
  <fix>3d</fix>
</trkpt>
<trkpt lat="64.1624777" lon="-139.8402246">
  <ele>1109.09</ele>
  <time>2026-09-01T20:02:16Z</time>
  <course>180.78</course>
  <speed>0.0</speed>
  <fix>3d</fix>
</trkpt>
<trkpt lat="64.1624776" lon="-139.8402244">
  <ele>1109.06</ele>
  <time>2026-09-01T20:02:16Z</time>
  <course>6.15</course>
  <speed>0.01414213562373095</speed>
  <fix>3d</fix>
</trkpt>
<trkpt lat="64.1624777" lon="-139.8402246">
  <ele>1109.09</ele>
  <time>2026-09-01T20:02:16Z</time>
  <course>180.78</course>
  <speed>0.0</speed>
  <fix>3d</fix>
</trkpt>
<trkpt lat="64.1624776" lon="-139.8402244">
  <ele>1109.06</ele>
  <time>2026-09-01T20:02:16Z</time>
  <course>6.15</course>
  <speed>0.01414213562373095</speed>
  <fix>3d</fix>
</trkpt>
<trkpt lat="64.1624777" lon="-139.8402246">
  <ele>1109.09</ele>
  <time>2026-09-01T20:02:16Z</time>
  <course>180.78</course>
  <speed>0.0</speed>
  <fix>3d</fix>
</trkpt>
<trkpt lat="64.1624776" lon="-139.8402244">
  <ele>1109.06</ele>
  <time>2026-09-01T20:02:16Z</time>
  <course>6.15</course>
  <speed>0.01414213562373095</speed>
  <fix>3d</fix>
</trkpt>
<trkpt lat="64.1624777" lon="-139.8402246">
  <ele>1109.09</ele>
  <time>2026-09-01T20:02:16Z</time>
  <course>180.78</course>
  <speed>0.0</speed>
  <fix>3d</fix>
</trkpt>
<trkpt lat="64.1624776" lon="-139.8402244">
  <ele>1109.06</ele>
  <time>2026-09-01T20:02:16Z</time>
  <course>6.15</course>
  <speed>0.01414213562373095</speed>
  <fix>3d</fix>
</trkpt>
<trkpt lat="64.1624777" lon="-139.8402246">
  <ele>1109.09</ele>
  <time>2026-09-01T20:02:16Z</time>
  <course>180.78</course>
  <speed>0.0</speed>
  <fix>3d</fix>
</trkpt>
<trkpt lat="64.1624776" lon="-139.8402244">
  <ele>1109.05</ele>
  <time>2026-09-01T20:02:16Z</time>
  <course>6.15</course>
  <speed>0.01414213562373095</speed>
  <fix>3d</fix>
</trkpt>
<trkpt lat="64.1624777" lon="-139.8402246">
  <ele>1109.09</ele>
  <time>2026-09-01T20:02:16Z</time>
  <course>180.78</course>
  <speed>0.0</speed>
  <fix>3d</fix>
</trkpt>
<trkpt lat="64.1624776" lon="-139.8402244">
  <ele>1109.05</ele>
  <time>2026-09-01T20:02:16Z</time>
  <course>6.15</course>
  <speed>0.01414213562373095</speed>
  <fix>3d</fix>
</trkpt>
<trkpt lat="64.1624777" lon="-139.8402246">
  <ele>1109.09</ele>
  <time>2026-09-01T20:02:16Z</time>
  <course>180.78</course>
  <speed>0.0</speed>
  <fix>3d</fix>
</trkpt>
<trkpt lat="64.1624776" lon="-139.8402244">
  <ele>1109.05</ele>
  <time>2026-09-01T20:02:16Z</time>
  <course>6.16</course>
  <speed>0.01414213562373095</speed>
  <fix>3d</fix>
</trkpt>
<trkpt lat="64.1624777" lon="-139.8402246">
  <ele>1109.09</ele>
  <time>2026-09-01T20:02:16Z</time>
  <course>180.78</course>
  <speed>0.0</speed>
  <fix>3d</fix>
</trkpt>
<trkpt lat="64.1624776" lon="-139.8402244">
  <ele>1109.05</ele>
  <time>2026-09-01T20:02:16Z</time>
  <course>6.16</course>
  <speed>0.01414213562373095</speed>
  <fix>3d</fix>
</trkpt>
<trkpt lat="64.1624777" lon="-139.8402246">
  <ele>1109.09</ele>
  <time>2026-09-01T20:02:16Z</time>
  <course>180.78</course>
  <speed>0.0</speed>
  <fix>3d</fix>
</trkpt>
<trkpt lat="64.1624776" lon="-139.8402244">
  <ele>1109.05</ele>
  <time>2026-09-01T20:02:16Z</time>
  <course>6.16</course>
  <speed>0.01414213562373095</speed>
  <fix>3d</fix>
</trkpt>
<trkpt lat="64.1624777" lon="-139.8402246">
  <ele>1109.09</ele>
  <time>2026-09-01T20:02:16Z</time>
  <course>180.78</course>
  <speed>0.0</speed>
  <fix>3d</fix>
</trkpt>
<trkpt lat="64.1624776" lon="-139.8402244">
  <ele>1109.05</ele>
  <time>2026-09-01T20:02:17Z</time>
  <course>6.16</course>
  <speed>0.01414213562373095</speed>
  <fix>3d</fix>
</trkpt>
<trkpt lat="64.1624777" lon="-139.8402246">
  <ele>1109.09</ele>
  <time>2026-09-01T20:02:17Z</time>
  <course>180.78</course>
  <speed>0.0</speed>
  <fix>3d</fix>
</trkpt>
<trkpt lat="64.1624776" lon="-139.8402244">
  <ele>1109.05</ele>
  <time>2026-09-01T20:02:17Z</time>
  <course>6.16</course>
  <speed>0.01414213562373095</speed>
  <fix>3d</fix>
</trkpt>
<trkpt lat="64.1624777" lon="-139.8402246">
  <ele>1109.09</ele>
  <time>2026-09-01T20:02:17Z</time>
  <course>180.78</course>
  <speed>0.0</speed>
  <fix>3d</fix>
</trkpt>
<trkpt lat="64.1624776" lon="-139.8402244">
  <ele>1109.05</ele>
  <time>2026-09-01T20:02:17Z</time>
  <course>6.16</course>
  <speed>0.01414213562373095</speed>
  <fix>3d</fix>
</trkpt>
<trkpt lat="64.1624777" lon="-139.8402246">
  <ele>1109.09</ele>
  <time>2026-09-01T20:02:17Z</time>
  <course>180.78</course>
  <speed>0.0</speed>
  <fix>3d</fix>
</trkpt>
<trkpt lat="64.1624776" lon="-139.8402244">
  <ele>1109.05</ele>
  <time>2026-09-01T20:02:17Z</time>
  <course>6.16</course>
  <speed>0.01414213562373095</speed>
  <fix>3d</fix>
</trkpt>
<trkpt lat="64.1624777" lon="-139.8402246">
  <ele>1109.09</ele>
  <time>2026-09-01T20:02:17Z</time>
  <course>180.78</course>
  <speed>0.0</speed>
  <fix>3d</fix>
</trkpt>
<trkpt lat="64.1624776" lon="-139.8402244">
  <ele>1109.05</ele>
  <time>2026-09-01T20:02:17Z</time>
  <course>6.16</course>
  <speed>0.01414213562373095</speed>
  <fix>3d</fix>
</trkpt>
<trkpt lat="64.1624777" lon="-139.8402246">
  <ele>1109.09</ele>
  <time>2026-09-01T20:02:17Z</time>
  <course>180.78</course>
  <speed>0.0</speed>
  <fix>3d</fix>
</trkpt>
<trkpt lat="64.1624776" lon="-139.8402244">
  <ele>1109.05</ele>
  <time>2026-09-01T20:02:17Z</time>
  <course>6.17</course>
  <speed>0.01414213562373095</speed>
  <fix>3d</fix>
</trkpt>
<trkpt lat="64.1624777" lon="-139.8402246">
  <ele>1109.09</ele>
  <time>2026-09-01T20:02:17Z</time>
  <course>180.78</course>
  <speed>0.0</speed>
  <fix>3d</fix>
</trkpt>
<trkpt lat="64.1624776" lon="-139.8402244">
  <ele>1109.05</ele>
  <time>2026-09-01T20:02:17Z</time>
  <course>6.17</course>
  <speed>0.01414213562373095</speed>
  <fix>3d</fix>
</trkpt>
<trkpt lat="64.1624777" lon="-139.8402246">
  <ele>1109.09</ele>
  <time>2026-09-01T20:02:17Z</time>
  <course>180.78</course>
  <speed>0.0</speed>
  <fix>3d</fix>
</trkpt>
<trkpt lat="64.1624776" lon="-139.8402244">
  <ele>1109.05</ele>
  <time>2026-09-01T20:02:17Z</time>
  <course>6.17</course>
  <speed>0.01414213562373095</speed>
  <fix>3d</fix>
</trkpt>
<trkpt lat="64.1624777" lon="-139.8402246">
  <ele>1109.09</ele>
  <time>2026-09-01T20:02:17Z</time>
  <course>180.78</course>
  <speed>0.0</speed>
  <fix>3d</fix>
</trkpt>
<trkpt lat="64.1624776" lon="-139.8402244">
  <ele>1109.05</ele>
  <time>2026-09-01T20:02:17Z</time>
  <course>6.17</course>
  <speed>0.01414213562373095</speed>
  <fix>3d</fix>
</trkpt>
<trkpt lat="64.1624777" lon="-139.8402246">
  <ele>1109.09</ele>
  <time>2026-09-01T20:02:17Z</time>
  <course>180.78</course>
  <speed>0.0</speed>
  <fix>3d</fix>
</trkpt>
<trkpt lat="64.1624776" lon="-139.8402244">
  <ele>1109.05</ele>
  <time>2026-09-01T20:02:17Z</time>
  <course>6.17</course>
  <speed>0.01414213562373095</speed>
  <fix>3d</fix>
</trkpt>
<trkpt lat="64.1624777" lon="-139.8402246">
  <ele>1109.09</ele>
  <time>2026-09-01T20:02:17Z</time>
  <course>180.78</course>
  <speed>0.0</speed>
  <fix>3d</fix>
</trkpt>
<trkpt lat="64.1624776" lon="-139.8402244">
  <ele>1109.04</ele>
  <time>2026-09-01T20:02:17Z</time>
  <course>6.17</course>
  <speed>0.01414213562373095</speed>
  <fix>3d</fix>
</trkpt>
<trkpt lat="64.1624777" lon="-139.8402246">
  <ele>1109.09</ele>
  <time>2026-09-01T20:02:17Z</time>
  <course>180.78</course>
  <speed>0.0</speed>
  <fix>3d</fix>
</trkpt>
<trkpt lat="64.1624776" lon="-139.8402244">
  <ele>1109.04</ele>
  <time>2026-09-01T20:02:17Z</time>
  <course>6.17</course>
  <speed>0.01414213562373095</speed>
  <fix>3d</fix>
</trkpt>
<trkpt lat="64.1624777" lon="-139.8402246">
  <ele>1109.09</ele>
  <time>2026-09-01T20:02:17Z</time>
  <course>180.78</course>
  <speed>0.0</speed>
  <fix>3d</fix>
</trkpt>
<trkpt lat="64.1624776" lon="-139.8402244">
  <ele>1109.04</ele>
  <time>2026-09-01T20:02:17Z</time>
  <course>6.17</course>
  <speed>0.01414213562373095</speed>
  <fix>3d</fix>
</trkpt>
<trkpt lat="64.1624777" lon="-139.8402246">
  <ele>1109.09</ele>
  <time>2026-09-01T20:02:17Z</time>
  <course>180.78</course>
  <speed>0.0</speed>
  <fix>3d</fix>
</trkpt>
<trkpt lat="64.1624776" lon="-139.8402244">
  <ele>1109.03</ele>
  <time>2026-09-01T20:02:17Z</time>
  <course>6.18</course>
  <speed>0.01414213562373095</speed>
  <fix>3d</fix>
</trkpt>
<trkpt lat="64.1624777" lon="-139.8402246">
  <ele>1109.09</ele>
  <time>2026-09-01T20:02:17Z</time>
  <course>180.78</course>
  <speed>0.0</speed>
  <fix>3d</fix>
</trkpt>
<trkpt lat="64.1624776" lon="-139.8402244">
  <ele>1109.03</ele>
  <time>2026-09-01T20:02:17Z</time>
  <course>6.18</course>
  <speed>0.01414213562373095</speed>
  <fix>3d</fix>
</trkpt>
<trkpt lat="64.1624777" lon="-139.8402246">
  <ele>1109.09</ele>
  <time>2026-09-01T20:02:17Z</time>
  <course>180.78</course>
  <speed>0.0</speed>
  <fix>3d</fix>
</trkpt>
<trkpt lat="64.1624776" lon="-139.8402244">
  <ele>1109.03</ele>
  <time>2026-09-01T20:02:17Z</time>
  <course>6.18</course>
  <speed>0.01414213562373095</speed>
  <fix>3d</fix>
</trkpt>
<trkpt lat="64.1624777" lon="-139.8402246">
  <ele>1109.09</ele>
  <time>2026-09-01T20:02:17Z</time>
  <course>180.78</course>
  <speed>0.0</speed>
  <fix>3d</fix>
</trkpt>
<trkpt lat="64.1624776" lon="-139.8402244">
  <ele>1109.03</ele>
  <time>2026-09-01T20:02:17Z</time>
  <course>6.18</course>
  <speed>0.01414213562373095</speed>
  <fix>3d</fix>
</trkpt>
<trkpt lat="64.1624777" lon="-139.8402246">
  <ele>1109.09</ele>
  <time>2026-09-01T20:02:17Z</time>
  <course>180.78</course>
  <speed>0.0</speed>
  <fix>3d</fix>
</trkpt>
<trkpt lat="64.1624776" lon="-139.8402244">
  <ele>1109.03</ele>
  <time>2026-09-01T20:02:17Z</time>
  <course>6.18</course>
  <speed>0.01414213562373095</speed>
  <fix>3d</fix>
</trkpt>
<trkpt lat="64.1624777" lon="-139.8402246">
  <ele>1109.09</ele>
  <time>2026-09-01T20:02:17Z</time>
  <course>180.78</course>
  <speed>0.0</speed>
  <fix>3d</fix>
</trkpt>
<trkpt lat="64.1624776" lon="-139.8402244">
  <ele>1109.03</ele>
  <time>2026-09-01T20:02:17Z</time>
  <course>6.18</course>
  <speed>0.01414213562373095</speed>
  <fix>3d</fix>
</trkpt>
<trkpt lat="64.1624777" lon="-139.8402246">
  <ele>1109.09</ele>
  <time>2026-09-01T20:02:17Z</time>
  <course>180.78</course>
  <speed>0.0</speed>
  <fix>3d</fix>
</trkpt>
<trkpt lat="64.1624776" lon="-139.8402244">
  <ele>1109.02</ele>
  <time>2026-09-01T20:02:17Z</time>
  <course>6.18</course>
  <speed>0.01414213562373095</speed>
  <fix>3d</fix>
</trkpt>
<trkpt lat="64.1624777" lon="-139.8402246">
  <ele>1109.09</ele>
  <time>2026-09-01T20:02:17Z</time>
  <course>180.78</course>
  <speed>0.0</speed>
  <fix>3d</fix>
</trkpt>
<trkpt lat="64.1624776" lon="-139.8402244">
  <ele>1109.02</ele>
  <time>2026-09-01T20:02:17Z</time>
  <course>6.19</course>
  <speed>0.01414213562373095</speed>
  <fix>3d</fix>
</trkpt>
<trkpt lat="64.1624777" lon="-139.8402246">
  <ele>1109.09</ele>
  <time>2026-09-01T20:02:17Z</time>
  <course>180.78</course>
  <speed>0.0</speed>
  <fix>3d</fix>
</trkpt>
<trkpt lat="64.1624776" lon="-139.8402244">
  <ele>1109.02</ele>
  <time>2026-09-01T20:02:17Z</time>
  <course>6.19</course>
  <speed>0.01414213562373095</speed>
  <fix>3d</fix>
</trkpt>
<trkpt lat="64.1624777" lon="-139.8402246">
  <ele>1109.09</ele>
  <time>2026-09-01T20:02:17Z</time>
  <course>180.78</course>
  <speed>0.0</speed>
  <fix>3d</fix>
</trkpt>
<trkpt lat="64.1624776" lon="-139.8402244">
  <ele>1109.02</ele>
  <time>2026-09-01T20:02:17Z</time>
  <course>6.19</course>
  <speed>0.01414213562373095</speed>
  <fix>3d</fix>
</trkpt>
<trkpt lat="64.1624777" lon="-139.8402246">
  <ele>1109.09</ele>
  <time>2026-09-01T20:02:17Z</time>
  <course>180.78</course>
  <speed>0.0</speed>
  <fix>3d</fix>
</trkpt>
<trkpt lat="64.1624776" lon="-139.8402244">
  <ele>1109.01</ele>
  <time>2026-09-01T20:02:17Z</time>
  <course>6.19</course>
  <speed>0.01414213562373095</speed>
  <fix>3d</fix>
</trkpt>
<trkpt lat="64.1624777" lon="-139.8402246">
  <ele>1109.09</ele>
  <time>2026-09-01T20:02:17Z</time>
  <course>180.78</course>
  <speed>0.0</speed>
  <fix>3d</fix>
</trkpt>
<trkpt lat="64.1624776" lon="-139.8402244">
  <ele>1109.01</ele>
  <time>2026-09-01T20:02:17Z</time>
  <course>6.19</course>
  <speed>0.01414213562373095</speed>
  <fix>3d</fix>
</trkpt>
<trkpt lat="64.1624777" lon="-139.8402246">
  <ele>1109.09</ele>
  <time>2026-09-01T20:02:17Z</time>
  <course>180.78</course>
  <speed>0.0</speed>
  <fix>3d</fix>
</trkpt>
<trkpt lat="64.1624776" lon="-139.8402244">
  <ele>1109.01</ele>
  <time>2026-09-01T20:02:17Z</time>
  <course>6.19</course>
  <speed>0.01414213562373095</speed>
  <fix>3d</fix>
</trkpt>
<trkpt lat="64.1624777" lon="-139.8402246">
  <ele>1109.09</ele>
  <time>2026-09-01T20:02:17Z</time>
  <course>180.78</course>
  <speed>0.0</speed>
  <fix>3d</fix>
</trkpt>
<trkpt lat="64.1624776" lon="-139.8402244">
  <ele>1109.01</ele>
  <time>2026-09-01T20:02:17Z</time>
  <course>6.19</course>
  <speed>0.022360679774997897</speed>
  <fix>3d</fix>
</trkpt>
<trkpt lat="64.1624777" lon="-139.8402246">
  <ele>1109.09</ele>
  <time>2026-09-01T20:02:17Z</time>
  <course>180.78</course>
  <speed>0.0</speed>
  <fix>3d</fix>
</trkpt>
<trkpt lat="64.1624776" lon="-139.8402244">
  <ele>1109.01</ele>
  <time>2026-09-01T20:02:17Z</time>
  <course>6.19</course>
  <speed>0.01414213562373095</speed>
  <fix>3d</fix>
</trkpt>
<trkpt lat="64.1624777" lon="-139.8402246">
  <ele>1109.09</ele>
  <time>2026-09-01T20:02:17Z</time>
  <course>180.78</course>
  <speed>0.0</speed>
  <fix>3d</fix>
</trkpt>
<trkpt lat="64.1624776" lon="-139.8402244">
  <ele>1109.01</ele>
  <time>2026-09-01T20:02:17Z</time>
  <course>6.2</course>
  <speed>0.022360679774997897</speed>
  <fix>3d</fix>
</trkpt>
<trkpt lat="64.1624777" lon="-139.8402246">
  <ele>1109.09</ele>
  <time>2026-09-01T20:02:17Z</time>
  <course>180.78</course>
  <speed>0.0</speed>
  <fix>3d</fix>
</trkpt>
<trkpt lat="64.1624776" lon="-139.8402244">
  <ele>1109.01</ele>
  <time>2026-09-01T20:02:17Z</time>
  <course>6.2</course>
  <speed>0.01414213562373095</speed>
  <fix>3d</fix>
</trkpt>
<trkpt lat="64.1624777" lon="-139.8402246">
  <ele>1109.09</ele>
  <time>2026-09-01T20:02:17Z</time>
  <course>180.78</course>
  <speed>0.0</speed>
  <fix>3d</fix>
</trkpt>
<trkpt lat="64.1624776" lon="-139.8402243">
  <ele>1109.01</ele>
  <time>2026-09-01T20:02:17Z</time>
  <course>6.2</course>
  <speed>0.022360679774997897</speed>
  <fix>3d</fix>
</trkpt>
<trkpt lat="64.1624777" lon="-139.8402246">
  <ele>1109.09</ele>
  <time>2026-09-01T20:02:17Z</time>
  <course>180.78</course>
  <speed>0.0</speed>
  <fix>3d</fix>
</trkpt>
<trkpt lat="64.1624776" lon="-139.8402244">
  <ele>1109.01</ele>
  <time>2026-09-01T20:02:17Z</time>
  <course>6.2</course>
  <speed>0.01414213562373095</speed>
  <fix>3d</fix>
</trkpt>
<trkpt lat="64.1624777" lon="-139.8402246">
  <ele>1109.09</ele>
  <time>2026-09-01T20:02:17Z</time>
  <course>180.78</course>
  <speed>0.0</speed>
  <fix>3d</fix>
</trkpt>
<trkpt lat="64.1624776" lon="-139.8402243">
  <ele>1109.01</ele>
  <time>2026-09-01T20:02:17Z</time>
  <course>6.2</course>
  <speed>0.022360679774997897</speed>
  <fix>3d</fix>
</trkpt>
<trkpt lat="64.1624777" lon="-139.8402246">
  <ele>1109.09</ele>
  <time>2026-09-01T20:02:17Z</time>
  <course>180.78</course>
  <speed>0.0</speed>
  <fix>3d</fix>
</trkpt>
<trkpt lat="64.1624776" lon="-139.8402244">
  <ele>1109.01</ele>
  <time>2026-09-01T20:02:17Z</time>
  <course>6.2</course>
  <speed>0.01414213562373095</speed>
  <fix>3d</fix>
</trkpt>
<trkpt lat="64.1624777" lon="-139.8402246">
  <ele>1109.09</ele>
  <time>2026-09-01T20:02:17Z</time>
  <course>180.78</course>
  <speed>0.0</speed>
  <fix>3d</fix>
</trkpt>
<trkpt lat="64.1624776" lon="-139.8402243">
  <ele>1109.0</ele>
  <time>2026-09-01T20:02:17Z</time>
  <course>6.2</course>
  <speed>0.022360679774997897</speed>
  <fix>3d</fix>
</trkpt>
<trkpt lat="64.1624777" lon="-139.8402246">
  <ele>1109.09</ele>
  <time>2026-09-01T20:02:17Z</time>
  <course>180.78</course>
  <speed>0.0</speed>
  <fix>3d</fix>
</trkpt>
<trkpt lat="64.1624776" lon="-139.8402244">
  <ele>1109.0</ele>
  <time>2026-09-01T20:02:17Z</time>
  <course>6.2</course>
  <speed>0.022360679774997897</speed>
  <fix>3d</fix>
</trkpt>
<trkpt lat="64.1624777" lon="-139.8402246">
  <ele>1109.09</ele>
  <time>2026-09-01T20:02:17Z</time>
  <course>180.78</course>
  <speed>0.0</speed>
  <fix>3d</fix>
</trkpt>
<trkpt lat="64.1624776" lon="-139.8402243">
  <ele>1109.0</ele>
  <time>2026-09-01T20:02:17Z</time>
  <course>6.21</course>
  <speed>0.022360679774997897</speed>
  <fix>3d</fix>
</trkpt>
<trkpt lat="64.1624777" lon="-139.8402246">
  <ele>1109.09</ele>
  <time>2026-09-01T20:02:17Z</time>
  <course>180.78</course>
  <speed>0.0</speed>
  <fix>3d</fix>
</trkpt>
<trkpt lat="64.1624776" lon="-139.8402244">
  <ele>1109.0</ele>
  <time>2026-09-01T20:02:17Z</time>
  <course>6.21</course>
  <speed>0.022360679774997897</speed>
  <fix>3d</fix>
</trkpt>
<trkpt lat="64.1624777" lon="-139.8402246">
  <ele>1109.09</ele>
  <time>2026-09-01T20:02:17Z</time>
  <course>180.78</course>
  <speed>0.0</speed>
  <fix>3d</fix>
</trkpt>
<trkpt lat="64.1624776" lon="-139.8402243">
  <ele>1109.0</ele>
  <time>2026-09-01T20:02:17Z</time>
  <course>6.21</course>
  <speed>0.022360679774997897</speed>
  <fix>3d</fix>
</trkpt>
<trkpt lat="64.1624777" lon="-139.8402246">
  <ele>1109.09</ele>
  <time>2026-09-01T20:02:17Z</time>
  <course>180.78</course>
  <speed>0.0</speed>
  <fix>3d</fix>
</trkpt>
<trkpt lat="64.1624776" lon="-139.8402243">
  <ele>1109.0</ele>
  <time>2026-09-01T20:02:17Z</time>
  <course>6.21</course>
  <speed>0.022360679774997897</speed>
  <fix>3d</fix>
</trkpt>
<trkpt lat="64.1624777" lon="-139.8402246">
  <ele>1109.09</ele>
  <time>2026-09-01T20:02:17Z</time>
  <course>180.78</course>
  <speed>0.0</speed>
  <fix>3d</fix>
</trkpt>
<trkpt lat="64.1624776" lon="-139.8402243">
  <ele>1108.99</ele>
  <time>2026-09-01T20:02:17Z</time>
  <course>6.21</course>
  <speed>0.022360679774997897</speed>
  <fix>3d</fix>
</trkpt>
<trkpt lat="64.1624777" lon="-139.8402246">
  <ele>1109.09</ele>
  <time>2026-09-01T20:02:17Z</time>
  <course>180.78</course>
  <speed>0.0</speed>
  <fix>3d</fix>
</trkpt>
<trkpt lat="64.1624776" lon="-139.8402243">
  <ele>1109.08</ele>
  <time>2026-09-01T20:02:17Z</time>
  <course>6.21</course>
  <speed>0.022360679774997897</speed>
  <fix>3d</fix>
</trkpt>
<trkpt lat="64.1624777" lon="-139.8402246">
  <ele>1109.09</ele>
  <time>2026-09-01T20:02:17Z</time>
  <course>180.78</course>
  <speed>0.0</speed>
  <fix>3d</fix>
</trkpt>
<trkpt lat="64.1624776" lon="-139.8402243">
  <ele>1109.08</ele>
  <time>2026-09-01T20:02:17Z</time>
  <course>6.21</course>
  <speed>0.022360679774997897</speed>
  <fix>3d</fix>
</trkpt>
<trkpt lat="64.1624777" lon="-139.8402246">
  <ele>1109.09</ele>
  <time>2026-09-01T20:02:17Z</time>
  <course>180.78</course>
  <speed>0.0</speed>
  <fix>3d</fix>
</trkpt>
<trkpt lat="64.1624776" lon="-139.8402243">
  <ele>1109.08</ele>
  <time>2026-09-01T20:02:17Z</time>
  <course>6.22</course>
  <speed>0.022360679774997897</speed>
  <fix>3d</fix>
</trkpt>
<trkpt lat="64.1624777" lon="-139.8402246">
  <ele>1109.09</ele>
  <time>2026-09-01T20:02:17Z</time>
  <course>180.78</course>
  <speed>0.0</speed>
  <fix>3d</fix>
</trkpt>
<trkpt lat="64.1624776" lon="-139.8402243">
  <ele>1109.08</ele>
  <time>2026-09-01T20:02:17Z</time>
  <course>6.22</course>
  <speed>0.022360679774997897</speed>
  <fix>3d</fix>
</trkpt>
<trkpt lat="64.1624777" lon="-139.8402246">
  <ele>1109.09</ele>
  <time>2026-09-01T20:02:17Z</time>
  <course>180.78</course>
  <speed>0.0</speed>
  <fix>3d</fix>
</trkpt>
<trkpt lat="64.1624776" lon="-139.8402243">
  <ele>1109.08</ele>
  <time>2026-09-01T20:02:17Z</time>
  <course>6.22</course>
  <speed>0.022360679774997897</speed>
  <fix>3d</fix>
</trkpt>
<trkpt lat="64.1624777" lon="-139.8402246">
  <ele>1109.09</ele>
  <time>2026-09-01T20:02:17Z</time>
  <course>180.78</course>
  <speed>0.0</speed>
  <fix>3d</fix>
</trkpt>
<trkpt lat="64.1624776" lon="-139.8402243">
  <ele>1109.09</ele>
  <time>2026-09-01T20:02:17Z</time>
  <course>6.22</course>
  <speed>0.022360679774997897</speed>
  <fix>3d</fix>
</trkpt>
<trkpt lat="64.1624777" lon="-139.8402246">
  <ele>1109.09</ele>
  <time>2026-09-01T20:02:17Z</time>
  <course>180.78</course>
  <speed>0.0</speed>
  <fix>3d</fix>
</trkpt>
<trkpt lat="64.1624776" lon="-139.8402243">
  <ele>1109.09</ele>
  <time>2026-09-01T20:02:17Z</time>
  <course>6.22</course>
  <speed>0.022360679774997897</speed>
  <fix>3d</fix>
</trkpt>
<trkpt lat="64.1624777" lon="-139.8402246">
  <ele>1109.09</ele>
  <time>2026-09-01T20:02:17Z</time>
  <course>180.78</course>
  <speed>0.0</speed>
  <fix>3d</fix>
</trkpt>
<trkpt lat="64.1624776" lon="-139.8402243">
  <ele>1109.09</ele>
  <time>2026-09-01T20:02:17Z</time>
  <course>6.22</course>
  <speed>0.022360679774997897</speed>
  <fix>3d</fix>
</trkpt>
<trkpt lat="64.1624777" lon="-139.8402246">
  <ele>1109.09</ele>
  <time>2026-09-01T20:02:17Z</time>
  <course>180.78</course>
  <speed>0.0</speed>
  <fix>3d</fix>
</trkpt>
<trkpt lat="64.1624776" lon="-139.8402243">
  <ele>1109.1</ele>
  <time>2026-09-01T20:02:17Z</time>
  <course>6.22</course>
  <speed>0.022360679774997897</speed>
  <fix>3d</fix>
</trkpt>
<trkpt lat="64.1624777" lon="-139.8402246">
  <ele>1109.09</ele>
  <time>2026-09-01T20:02:17Z</time>
  <course>180.78</course>
  <speed>0.0</speed>
  <fix>3d</fix>
</trkpt>
<trkpt lat="64.1624776" lon="-139.8402243">
  <ele>1109.1</ele>
  <time>2026-09-01T20:02:17Z</time>
  <course>6.22</course>
  <speed>0.022360679774997897</speed>
  <fix>3d</fix>
</trkpt>
<trkpt lat="64.1624777" lon="-139.8402246">
  <ele>1109.09</ele>
  <time>2026-09-01T20:02:17Z</time>
  <course>180.78</course>
  <speed>0.0</speed>
  <fix>3d</fix>
</trkpt>
<trkpt lat="64.1624776" lon="-139.8402243">
  <ele>1109.11</ele>
  <time>2026-09-01T20:02:17Z</time>
  <course>6.23</course>
  <speed>0.022360679774997897</speed>
  <fix>3d</fix>
</trkpt>
<trkpt lat="64.1624777" lon="-139.8402246">
  <ele>1109.09</ele>
  <time>2026-09-01T20:02:17Z</time>
  <course>180.78</course>
  <speed>0.0</speed>
  <fix>3d</fix>
</trkpt>
<trkpt lat="64.1624776" lon="-139.8402243">
  <ele>1109.11</ele>
  <time>2026-09-01T20:02:17Z</time>
  <course>6.23</course>
  <speed>0.022360679774997897</speed>
  <fix>3d</fix>
</trkpt>
<trkpt lat="64.1624777" lon="-139.8402246">
  <ele>1109.09</ele>
  <time>2026-09-01T20:02:17Z</time>
  <course>180.78</course>
  <speed>0.0</speed>
  <fix>3d</fix>
</trkpt>
<trkpt lat="64.1624776" lon="-139.8402243">
  <ele>1109.11</ele>
  <time>2026-09-01T20:02:17Z</time>
  <course>6.23</course>
  <speed>0.022360679774997897</speed>
  <fix>3d</fix>
</trkpt>
<trkpt lat="64.1624777" lon="-139.8402246">
  <ele>1109.09</ele>
  <time>2026-09-01T20:02:17Z</time>
  <course>180.78</course>
  <speed>0.0</speed>
  <fix>3d</fix>
</trkpt>
<trkpt lat="64.1624776" lon="-139.8402243">
  <ele>1109.12</ele>
  <time>2026-09-01T20:02:17Z</time>
  <course>6.23</course>
  <speed>0.022360679774997897</speed>
  <fix>3d</fix>
</trkpt>
<trkpt lat="64.1624777" lon="-139.8402246">
  <ele>1109.09</ele>
  <time>2026-09-01T20:02:17Z</time>
  <course>180.78</course>
  <speed>0.0</speed>
  <fix>3d</fix>
</trkpt>
<trkpt lat="64.1624776" lon="-139.8402243">
  <ele>1109.12</ele>
  <time>2026-09-01T20:02:17Z</time>
  <course>6.23</course>
  <speed>0.022360679774997897</speed>
  <fix>3d</fix>
</trkpt>
<trkpt lat="64.1624777" lon="-139.8402246">
  <ele>1109.09</ele>
  <time>2026-09-01T20:02:17Z</time>
  <course>180.78</course>
  <speed>0.0</speed>
  <fix>3d</fix>
</trkpt>
<trkpt lat="64.1624776" lon="-139.8402243">
  <ele>1109.12</ele>
  <time>2026-09-01T20:02:17Z</time>
  <course>6.23</course>
  <speed>0.022360679774997897</speed>
  <fix>3d</fix>
</trkpt>
<trkpt lat="64.1624777" lon="-139.8402246">
  <ele>1109.09</ele>
  <time>2026-09-01T20:02:17Z</time>
  <course>180.78</course>
  <speed>0.0</speed>
  <fix>3d</fix>
</trkpt>
<trkpt lat="64.1624776" lon="-139.8402243">
  <ele>1109.13</ele>
  <time>2026-09-01T20:02:17Z</time>
  <course>6.23</course>
  <speed>0.022360679774997897</speed>
  <fix>3d</fix>
</trkpt>
<trkpt lat="64.1624777" lon="-139.8402246">
  <ele>1109.09</ele>
  <time>2026-09-01T20:02:17Z</time>
  <course>180.78</course>
  <speed>0.0</speed>
  <fix>3d</fix>
</trkpt>
<trkpt lat="64.1624776" lon="-139.8402243">
  <ele>1109.13</ele>
  <time>2026-09-01T20:02:17Z</time>
  <course>6.23</course>
  <speed>0.022360679774997897</speed>
  <fix>3d</fix>
</trkpt>
<trkpt lat="64.1624777" lon="-139.8402246">
  <ele>1109.09</ele>
  <time>2026-09-01T20:02:17Z</time>
  <course>180.78</course>
  <speed>0.0</speed>
  <fix>3d</fix>
</trkpt>
<trkpt lat="64.1624776" lon="-139.8402243">
  <ele>1109.13</ele>
  <time>2026-09-01T20:02:17Z</time>
  <course>6.24</course>
  <speed>0.022360679774997897</speed>
  <fix>3d</fix>
</trkpt>
<trkpt lat="64.1624777" lon="-139.8402246">
  <ele>1109.09</ele>
  <time>2026-09-01T20:02:17Z</time>
  <course>180.78</course>
  <speed>0.0</speed>
  <fix>3d</fix>
</trkpt>
<trkpt lat="64.1624776" lon="-139.8402243">
  <ele>1109.14</ele>
  <time>2026-09-01T20:02:17Z</time>
  <course>6.24</course>
  <speed>0.022360679774997897</speed>
  <fix>3d</fix>
</trkpt>
<trkpt lat="64.1624777" lon="-139.8402246">
  <ele>1109.09</ele>
  <time>2026-09-01T20:02:17Z</time>
  <course>180.78</course>
  <speed>0.0</speed>
  <fix>3d</fix>
</trkpt>
<trkpt lat="64.1624776" lon="-139.8402243">
  <ele>1109.14</ele>
  <time>2026-09-01T20:02:17Z</time>
  <course>6.24</course>
  <speed>0.022360679774997897</speed>
  <fix>3d</fix>
</trkpt>
<trkpt lat="64.1624777" lon="-139.8402246">
  <ele>1109.09</ele>
  <time>2026-09-01T20:02:17Z</time>
  <course>180.78</course>
  <speed>0.0</speed>
  <fix>3d</fix>
</trkpt>
<trkpt lat="64.1624776" lon="-139.8402243">
  <ele>1109.15</ele>
  <time>2026-09-01T20:02:17Z</time>
  <course>6.24</course>
  <speed>0.022360679774997897</speed>
  <fix>3d</fix>
</trkpt>
<trkpt lat="64.1624777" lon="-139.8402246">
  <ele>1109.09</ele>
  <time>2026-09-01T20:02:17Z</time>
  <course>180.78</course>
  <speed>0.0</speed>
  <fix>3d</fix>
</trkpt>
<trkpt lat="64.1624776" lon="-139.8402243">
  <ele>1109.15</ele>
  <time>2026-09-01T20:02:17Z</time>
  <course>6.24</course>
  <speed>0.022360679774997897</speed>
  <fix>3d</fix>
</trkpt>
<trkpt lat="64.1624777" lon="-139.8402246">
  <ele>1109.09</ele>
  <time>2026-09-01T20:02:17Z</time>
  <course>180.78</course>
  <speed>0.0</speed>
  <fix>3d</fix>
</trkpt>
<trkpt lat="64.1624776" lon="-139.8402243">
  <ele>1109.16</ele>
  <time>2026-09-01T20:02:17Z</time>
  <course>6.24</course>
  <speed>0.022360679774997897</speed>
  <fix>3d</fix>
</trkpt>
<trkpt lat="64.1624777" lon="-139.8402246">
  <ele>1109.09</ele>
  <time>2026-09-01T20:02:17Z</time>
  <course>180.78</course>
  <speed>0.0</speed>
  <fix>3d</fix>
</trkpt>
<trkpt lat="64.1624776" lon="-139.8402243">
  <ele>1109.16</ele>
  <time>2026-09-01T20:02:17Z</time>
  <course>6.24</course>
  <speed>0.022360679774997897</speed>
  <fix>3d</fix>
</trkpt>
<trkpt lat="64.1624777" lon="-139.8402246">
  <ele>1109.09</ele>
  <time>2026-09-01T20:02:17Z</time>
  <course>180.78</course>
  <speed>0.0</speed>
  <fix>3d</fix>
</trkpt>
<trkpt lat="64.1624776" lon="-139.8402243">
  <ele>1109.17</ele>
  <time>2026-09-01T20:02:17Z</time>
  <course>6.24</course>
  <speed>0.022360679774997897</speed>
  <fix>3d</fix>
</trkpt>
<trkpt lat="64.1624777" lon="-139.8402246">
  <ele>1109.09</ele>
  <time>2026-09-01T20:02:17Z</time>
  <course>180.78</course>
  <speed>0.0</speed>
  <fix>3d</fix>
</trkpt>
<trkpt lat="64.1624776" lon="-139.8402243">
  <ele>1109.17</ele>
  <time>2026-09-01T20:02:17Z</time>
  <course>6.25</course>
  <speed>0.022360679774997897</speed>
  <fix>3d</fix>
</trkpt>
<trkpt lat="64.1624777" lon="-139.8402246">
  <ele>1109.09</ele>
  <time>2026-09-01T20:02:17Z</time>
  <course>180.78</course>
  <speed>0.0</speed>
  <fix>3d</fix>
</trkpt>
<trkpt lat="64.1624776" lon="-139.8402243">
  <ele>1109.17</ele>
  <time>2026-09-01T20:02:17Z</time>
  <course>6.25</course>
  <speed>0.022360679774997897</speed>
  <fix>3d</fix>
</trkpt>
<trkpt lat="64.1624777" lon="-139.8402246">
  <ele>1109.09</ele>
  <time>2026-09-01T20:02:17Z</time>
  <course>180.78</course>
  <speed>0.0</speed>
  <fix>3d</fix>
</trkpt>
<trkpt lat="64.1624776" lon="-139.8402243">
  <ele>1109.18</ele>
  <time>2026-09-01T20:02:17Z</time>
  <course>6.25</course>
  <speed>0.022360679774997897</speed>
  <fix>3d</fix>
</trkpt>
<trkpt lat="64.1624777" lon="-139.8402246">
  <ele>1109.09</ele>
  <time>2026-09-01T20:02:17Z</time>
  <course>180.78</course>
  <speed>0.0</speed>
  <fix>3d</fix>
</trkpt>
<trkpt lat="64.1624776" lon="-139.8402243">
  <ele>1109.18</ele>
  <time>2026-09-01T20:02:17Z</time>
  <course>6.25</course>
  <speed>0.022360679774997897</speed>
  <fix>3d</fix>
</trkpt>
<trkpt lat="64.1624777" lon="-139.8402246">
  <ele>1109.09</ele>
  <time>2026-09-01T20:02:17Z</time>
  <course>180.78</course>
  <speed>0.0</speed>
  <fix>3d</fix>
</trkpt>
<trkpt lat="64.1624776" lon="-139.8402243">
  <ele>1109.18</ele>
  <time>2026-09-01T20:02:17Z</time>
  <course>6.25</course>
  <speed>0.022360679774997897</speed>
  <fix>3d</fix>
</trkpt>
<trkpt lat="64.1624777" lon="-139.8402246">
  <ele>1109.09</ele>
  <time>2026-09-01T20:02:17Z</time>
  <course>180.78</course>
  <speed>0.0</speed>
  <fix>3d</fix>
</trkpt>
<trkpt lat="64.1624776" lon="-139.8402243">
  <ele>1109.18</ele>
  <time>2026-09-01T20:02:17Z</time>
  <course>6.25</course>
  <speed>0.022360679774997897</speed>
  <fix>3d</fix>
</trkpt>
<trkpt lat="64.1624777" lon="-139.8402246">
  <ele>1109.09</ele>
  <time>2026-09-01T20:02:17Z</time>
  <course>180.78</course>
  <speed>0.0</speed>
  <fix>3d</fix>
</trkpt>
<trkpt lat="64.1624776" lon="-139.8402243">
  <ele>1109.18</ele>
  <time>2026-09-01T20:02:17Z</time>
  <course>6.25</course>
  <speed>0.022360679774997897</speed>
  <fix>3d</fix>
</trkpt>
<trkpt lat="64.1624777" lon="-139.8402246">
  <ele>1109.09</ele>
  <time>2026-09-01T20:02:17Z</time>
  <course>180.78</course>
  <speed>0.0</speed>
  <fix>3d</fix>
</trkpt>
<trkpt lat="64.1624776" lon="-139.8402243">
  <ele>1109.18</ele>
  <time>2026-09-01T20:02:17Z</time>
  <course>6.25</course>
  <speed>0.022360679774997897</speed>
  <fix>3d</fix>
</trkpt>
<trkpt lat="64.1624777" lon="-139.8402246">
  <ele>1109.09</ele>
  <time>2026-09-01T20:02:17Z</time>
  <course>180.78</course>
  <speed>0.0</speed>
  <fix>3d</fix>
</trkpt>
<trkpt lat="64.1624776" lon="-139.8402243">
  <ele>1109.19</ele>
  <time>2026-09-01T20:02:17Z</time>
  <course>6.26</course>
  <speed>0.022360679774997897</speed>
  <fix>3d</fix>
</trkpt>
<trkpt lat="64.1624777" lon="-139.8402246">
  <ele>1109.09</ele>
  <time>2026-09-01T20:02:17Z</time>
  <course>180.78</course>
  <speed>0.0</speed>
  <fix>3d</fix>
</trkpt>
<trkpt lat="64.1624776" lon="-139.8402243">
  <ele>1109.19</ele>
  <time>2026-09-01T20:02:17Z</time>
  <course>6.26</course>
  <speed>0.022360679774997897</speed>
  <fix>3d</fix>
</trkpt>
<trkpt lat="64.1624777" lon="-139.8402246">
  <ele>1109.09</ele>
  <time>2026-09-01T20:02:17Z</time>
  <course>180.78</course>
  <speed>0.0</speed>
  <fix>3d</fix>
</trkpt>
<trkpt lat="64.1624776" lon="-139.8402243">
  <ele>1109.19</ele>
  <time>2026-09-01T20:02:17Z</time>
  <course>6.26</course>
  <speed>0.022360679774997897</speed>
  <fix>3d</fix>
</trkpt>
<trkpt lat="64.1624777" lon="-139.8402246">
  <ele>1109.09</ele>
  <time>2026-09-01T20:02:17Z</time>
  <course>180.78</course>
  <speed>0.0</speed>
  <fix>3d</fix>
</trkpt>
<trkpt lat="64.1624776" lon="-139.8402243">
  <ele>1109.19</ele>
  <time>2026-09-01T20:02:17Z</time>
  <course>6.26</course>
  <speed>0.022360679774997897</speed>
  <fix>3d</fix>
</trkpt>
<trkpt lat="64.1624777" lon="-139.8402246">
  <ele>1109.09</ele>
  <time>2026-09-01T20:02:17Z</time>
  <course>180.78</course>
  <speed>0.0</speed>
  <fix>3d</fix>
</trkpt>
<trkpt lat="64.1624776" lon="-139.8402243">
  <ele>1109.19</ele>
  <time>2026-09-01T20:02:17Z</time>
  <course>6.26</course>
  <speed>0.022360679774997897</speed>
  <fix>3d</fix>
</trkpt>
<trkpt lat="64.1624777" lon="-139.8402246">
  <ele>1109.09</ele>
  <time>2026-09-01T20:02:17Z</time>
  <course>180.78</course>
  <speed>0.0</speed>
  <fix>3d</fix>
</trkpt>
<trkpt lat="64.1624776" lon="-139.8402243">
  <ele>1109.19</ele>
  <time>2026-09-01T20:02:17Z</time>
  <course>6.26</course>
  <speed>0.022360679774997897</speed>
  <fix>3d</fix>
</trkpt>
<trkpt lat="64.1624777" lon="-139.8402246">
  <ele>1109.09</ele>
  <time>2026-09-01T20:02:17Z</time>
  <course>180.78</course>
  <speed>0.0</speed>
  <fix>3d</fix>
</trkpt>
<trkpt lat="64.1624776" lon="-139.8402243">
  <ele>1109.19</ele>
  <time>2026-09-01T20:02:17Z</time>
  <course>6.26</course>
  <speed>0.022360679774997897</speed>
  <fix>3d</fix>
</trkpt>
<trkpt lat="64.1624777" lon="-139.8402246">
  <ele>1109.09</ele>
  <time>2026-09-01T20:02:17Z</time>
  <course>180.78</course>
  <speed>0.0</speed>
  <fix>3d</fix>
</trkpt>
<trkpt lat="64.1624776" lon="-139.8402243">
  <ele>1109.19</ele>
  <time>2026-09-01T20:02:17Z</time>
  <course>6.26</course>
  <speed>0.022360679774997897</speed>
  <fix>3d</fix>
</trkpt>
<trkpt lat="64.1624777" lon="-139.8402246">
  <ele>1109.09</ele>
  <time>2026-09-01T20:02:17Z</time>
  <course>180.78</course>
  <speed>0.0</speed>
  <fix>3d</fix>
</trkpt>
<trkpt lat="64.1624776" lon="-139.8402243">
  <ele>1109.19</ele>
  <time>2026-09-01T20:02:17Z</time>
  <course>6.27</course>
  <speed>0.022360679774997897</speed>
  <fix>3d</fix>
</trkpt>
<trkpt lat="64.1624777" lon="-139.8402246">
  <ele>1109.09</ele>
  <time>2026-09-01T20:02:17Z</time>
  <course>180.78</course>
  <speed>0.0</speed>
  <fix>3d</fix>
</trkpt>
<trkpt lat="64.1624776" lon="-139.8402243">
  <ele>1109.19</ele>
  <time>2026-09-01T20:02:17Z</time>
  <course>6.27</course>
  <speed>0.022360679774997897</speed>
  <fix>3d</fix>
</trkpt>
<trkpt lat="64.1624777" lon="-139.8402246">
  <ele>1109.09</ele>
  <time>2026-09-01T20:02:17Z</time>
  <course>180.78</course>
  <speed>0.0</speed>
  <fix>3d</fix>
</trkpt>
<trkpt lat="64.1624776" lon="-139.8402243">
  <ele>1109.19</ele>
  <time>2026-09-01T20:02:17Z</time>
  <course>6.27</course>
  <speed>0.022360679774997897</speed>
  <fix>3d</fix>
</trkpt>
<trkpt lat="64.1624777" lon="-139.8402246">
  <ele>1109.09</ele>
  <time>2026-09-01T20:02:17Z</time>
  <course>180.78</course>
  <speed>0.0</speed>
  <fix>3d</fix>
</trkpt>
<trkpt lat="64.1624776" lon="-139.8402243">
  <ele>1109.19</ele>
  <time>2026-09-01T20:02:17Z</time>
  <course>6.27</course>
  <speed>0.022360679774997897</speed>
  <fix>3d</fix>
</trkpt>
<trkpt lat="64.1624777" lon="-139.8402246">
  <ele>1109.09</ele>
  <time>2026-09-01T20:02:17Z</time>
  <course>180.78</course>
  <speed>0.0</speed>
  <fix>3d</fix>
</trkpt>
<trkpt lat="64.1624776" lon="-139.8402243">
  <ele>1109.19</ele>
  <time>2026-09-01T20:02:17Z</time>
  <course>6.27</course>
  <speed>0.022360679774997897</speed>
  <fix>3d</fix>
</trkpt>
<trkpt lat="64.1624777" lon="-139.8402246">
  <ele>1109.09</ele>
  <time>2026-09-01T20:02:17Z</time>
  <course>180.78</course>
  <speed>0.0</speed>
  <fix>3d</fix>
</trkpt>
<trkpt lat="64.1624776" lon="-139.8402243">
  <ele>1109.19</ele>
  <time>2026-09-01T20:02:17Z</time>
  <course>6.27</course>
  <speed>0.022360679774997897</speed>
  <fix>3d</fix>
</trkpt>
<trkpt lat="64.1624777" lon="-139.8402246">
  <ele>1109.09</ele>
  <time>2026-09-01T20:02:17Z</time>
  <course>180.78</course>
  <speed>0.0</speed>
  <fix>3d</fix>
</trkpt>
<trkpt lat="64.1624776" lon="-139.8402243">
  <ele>1109.19</ele>
  <time>2026-09-01T20:02:17Z</time>
  <course>6.27</course>
  <speed>0.022360679774997897</speed>
  <fix>3d</fix>
</trkpt>
<trkpt lat="64.1624777" lon="-139.8402246">
  <ele>1109.09</ele>
  <time>2026-09-01T20:02:17Z</time>
  <course>180.78</course>
  <speed>0.0</speed>
  <fix>3d</fix>
</trkpt>
<trkpt lat="64.1624776" lon="-139.8402243">
  <ele>1109.19</ele>
  <time>2026-09-01T20:02:17Z</time>
  <course>6.28</course>
  <speed>0.022360679774997897</speed>
  <fix>3d</fix>
</trkpt>
<trkpt lat="64.1624777" lon="-139.8402246">
  <ele>1109.09</ele>
  <time>2026-09-01T20:02:17Z</time>
  <course>180.78</course>
  <speed>0.0</speed>
  <fix>3d</fix>
</trkpt>
<trkpt lat="64.1624776" lon="-139.8402243">
  <ele>1109.19</ele>
  <time>2026-09-01T20:02:17Z</time>
  <course>6.28</course>
  <speed>0.022360679774997897</speed>
  <fix>3d</fix>
</trkpt>
<trkpt lat="64.1624777" lon="-139.8402246">
  <ele>1109.09</ele>
  <time>2026-09-01T20:02:17Z</time>
  <course>180.78</course>
  <speed>0.0</speed>
  <fix>3d</fix>
</trkpt>
<trkpt lat="64.1624776" lon="-139.8402243">
  <ele>1109.19</ele>
  <time>2026-09-01T20:02:17Z</time>
  <course>6.28</course>
  <speed>0.022360679774997897</speed>
  <fix>3d</fix>
</trkpt>
<trkpt lat="64.1624777" lon="-139.8402246">
  <ele>1109.09</ele>
  <time>2026-09-01T20:02:17Z</time>
  <course>180.78</course>
  <speed>0.0</speed>
  <fix>3d</fix>
</trkpt>
<trkpt lat="64.1624776" lon="-139.8402243">
  <ele>1109.19</ele>
  <time>2026-09-01T20:02:17Z</time>
  <course>6.28</course>
  <speed>0.022360679774997897</speed>
  <fix>3d</fix>
</trkpt>
<trkpt lat="64.1624777" lon="-139.8402246">
  <ele>1109.09</ele>
  <time>2026-09-01T20:02:17Z</time>
  <course>180.78</course>
  <speed>0.0</speed>
  <fix>3d</fix>
</trkpt>
<trkpt lat="64.1624776" lon="-139.8402243">
  <ele>1109.19</ele>
  <time>2026-09-01T20:02:17Z</time>
  <course>6.28</course>
  <speed>0.022360679774997897</speed>
  <fix>3d</fix>
</trkpt>
<trkpt lat="64.1624777" lon="-139.8402246">
  <ele>1109.09</ele>
  <time>2026-09-01T20:02:17Z</time>
  <course>180.78</course>
  <speed>0.0</speed>
  <fix>3d</fix>
</trkpt>
<trkpt lat="64.1624776" lon="-139.8402243">
  <ele>1109.19</ele>
  <time>2026-09-01T20:02:17Z</time>
  <course>6.28</course>
  <speed>0.022360679774997897</speed>
  <fix>3d</fix>
</trkpt>
<trkpt lat="64.1624777" lon="-139.8402246">
  <ele>1109.09</ele>
  <time>2026-09-01T20:02:17Z</time>
  <course>180.78</course>
  <speed>0.0</speed>
  <fix>3d</fix>
</trkpt>
<trkpt lat="64.1624776" lon="-139.8402243">
  <ele>1109.19</ele>
  <time>2026-09-01T20:02:17Z</time>
  <course>6.28</course>
  <speed>0.022360679774997897</speed>
  <fix>3d</fix>
</trkpt>
<trkpt lat="64.1624777" lon="-139.8402246">
  <ele>1109.09</ele>
  <time>2026-09-01T20:02:17Z</time>
  <course>180.78</course>
  <speed>0.0</speed>
  <fix>3d</fix>
</trkpt>
<trkpt lat="64.1624776" lon="-139.8402243">
  <ele>1109.19</ele>
  <time>2026-09-01T20:02:17Z</time>
  <course>6.28</course>
  <speed>0.022360679774997897</speed>
  <fix>3d</fix>
</trkpt>
<trkpt lat="64.1624777" lon="-139.8402246">
  <ele>1109.09</ele>
  <time>2026-09-01T20:02:17Z</time>
  <course>180.78</course>
  <speed>0.0</speed>
  <fix>3d</fix>
</trkpt>
<trkpt lat="64.1624776" lon="-139.8402243">
  <ele>1109.18</ele>
  <time>2026-09-01T20:02:17Z</time>
  <course>6.29</course>
  <speed>0.022360679774997897</speed>
  <fix>3d</fix>
</trkpt>
<trkpt lat="64.1624777" lon="-139.8402246">
  <ele>1109.09</ele>
  <time>2026-09-01T20:02:17Z</time>
  <course>180.78</course>
  <speed>0.0</speed>
  <fix>3d</fix>
</trkpt>
<trkpt lat="64.1624776" lon="-139.8402243">
  <ele>1109.18</ele>
  <time>2026-09-01T20:02:17Z</time>
  <course>6.29</course>
  <speed>0.022360679774997897</speed>
  <fix>3d</fix>
</trkpt>
<trkpt lat="64.1624777" lon="-139.8402246">
  <ele>1109.09</ele>
  <time>2026-09-01T20:02:17Z</time>
  <course>180.78</course>
  <speed>0.0</speed>
  <fix>3d</fix>
</trkpt>
<trkpt lat="64.1624776" lon="-139.8402243">
  <ele>1109.18</ele>
  <time>2026-09-01T20:02:17Z</time>
  <course>6.29</course>
  <speed>0.022360679774997897</speed>
  <fix>3d</fix>
</trkpt>
<trkpt lat="64.1624777" lon="-139.8402246">
  <ele>1109.09</ele>
  <time>2026-09-01T20:02:17Z</time>
  <course>180.78</course>
  <speed>0.0</speed>
  <fix>3d</fix>
</trkpt>
<trkpt lat="64.1624776" lon="-139.8402243">
  <ele>1109.08</ele>
  <time>2026-09-01T20:02:17Z</time>
  <course>6.29</course>
  <speed>0.022360679774997897</speed>
  <fix>3d</fix>
</trkpt>
<trkpt lat="64.1624777" lon="-139.8402246">
  <ele>1109.09</ele>
  <time>2026-09-01T20:02:17Z</time>
  <course>180.78</course>
  <speed>0.0</speed>
  <fix>3d</fix>
</trkpt>
<trkpt lat="64.1624776" lon="-139.8402243">
  <ele>1109.09</ele>
  <time>2026-09-01T20:02:17Z</time>
  <course>6.29</course>
  <speed>0.022360679774997897</speed>
  <fix>3d</fix>
</trkpt>
<trkpt lat="64.1624777" lon="-139.8402246">
  <ele>1109.09</ele>
  <time>2026-09-01T20:02:17Z</time>
  <course>180.78</course>
  <speed>0.0</speed>
  <fix>3d</fix>
</trkpt>
<trkpt lat="64.1624776" lon="-139.8402243">
  <ele>1109.09</ele>
  <time>2026-09-01T20:02:17Z</time>
  <course>6.29</course>
  <speed>0.022360679774997897</speed>
  <fix>3d</fix>
</trkpt>
<trkpt lat="64.1624777" lon="-139.8402246">
  <ele>1109.09</ele>
  <time>2026-09-01T20:02:17Z</time>
  <course>180.78</course>
  <speed>0.0</speed>
  <fix>3d</fix>
</trkpt>
<trkpt lat="64.1624776" lon="-139.8402243">
  <ele>1109.09</ele>
  <time>2026-09-01T20:02:17Z</time>
  <course>6.29</course>
  <speed>0.022360679774997897</speed>
  <fix>3d</fix>
</trkpt>
<trkpt lat="64.1624777" lon="-139.8402246">
  <ele>1109.09</ele>
  <time>2026-09-01T20:02:17Z</time>
  <course>180.78</course>
  <speed>0.0</speed>
  <fix>3d</fix>
</trkpt>
<trkpt lat="64.1624776" lon="-139.8402243">
  <ele>1109.09</ele>
  <time>2026-09-01T20:02:17Z</time>
  <course>6.3</course>
  <speed>0.022360679774997897</speed>
  <fix>3d</fix>
</trkpt>
<trkpt lat="64.1624777" lon="-139.8402246">
  <ele>1109.09</ele>
  <time>2026-09-01T20:02:17Z</time>
  <course>180.78</course>
  <speed>0.0</speed>
  <fix>3d</fix>
</trkpt>
<trkpt lat="64.1624776" lon="-139.8402243">
  <ele>1109.09</ele>
  <time>2026-09-01T20:02:17Z</time>
  <course>6.3</course>
  <speed>0.022360679774997897</speed>
  <fix>3d</fix>
</trkpt>
<trkpt lat="64.1624777" lon="-139.8402246">
  <ele>1109.09</ele>
  <time>2026-09-01T20:02:17Z</time>
  <course>180.78</course>
  <speed>0.0</speed>
  <fix>3d</fix>
</trkpt>
<trkpt lat="64.1624776" lon="-139.8402243">
  <ele>1109.1</ele>
  <time>2026-09-01T20:02:17Z</time>
  <course>6.3</course>
  <speed>0.022360679774997897</speed>
  <fix>3d</fix>
</trkpt>
<trkpt lat="64.1624777" lon="-139.8402246">
  <ele>1109.09</ele>
  <time>2026-09-01T20:02:17Z</time>
  <course>180.78</course>
  <speed>0.0</speed>
  <fix>3d</fix>
</trkpt>
<trkpt lat="64.1624776" lon="-139.8402243">
  <ele>1109.1</ele>
  <time>2026-09-01T20:02:17Z</time>
  <course>6.3</course>
  <speed>0.022360679774997897</speed>
  <fix>3d</fix>
</trkpt>
<trkpt lat="64.1624777" lon="-139.8402246">
  <ele>1109.09</ele>
  <time>2026-09-01T20:02:17Z</time>
  <course>180.78</course>
  <speed>0.0</speed>
  <fix>3d</fix>
</trkpt>
<trkpt lat="64.1624776" lon="-139.8402243">
  <ele>1109.1</ele>
  <time>2026-09-01T20:02:17Z</time>
  <course>6.3</course>
  <speed>0.022360679774997897</speed>
  <fix>3d</fix>
</trkpt>
<trkpt lat="64.1624777" lon="-139.8402246">
  <ele>1109.09</ele>
  <time>2026-09-01T20:02:17Z</time>
  <course>180.78</course>
  <speed>0.0</speed>
  <fix>3d</fix>
</trkpt>
<trkpt lat="64.1624776" lon="-139.8402243">
  <ele>1109.1</ele>
  <time>2026-09-01T20:02:17Z</time>
  <course>6.3</course>
  <speed>0.022360679774997897</speed>
  <fix>3d</fix>
</trkpt>
<trkpt lat="64.1624777" lon="-139.8402246">
  <ele>1109.09</ele>
  <time>2026-09-01T20:02:17Z</time>
  <course>180.78</course>
  <speed>0.0</speed>
  <fix>3d</fix>
</trkpt>
<trkpt lat="64.1624776" lon="-139.8402243">
  <ele>1109.1</ele>
  <time>2026-09-01T20:02:17Z</time>
  <course>6.3</course>
  <speed>0.022360679774997897</speed>
  <fix>3d</fix>
</trkpt>
<trkpt lat="64.1624777" lon="-139.8402246">
  <ele>1109.09</ele>
  <time>2026-09-01T20:02:17Z</time>
  <course>180.78</course>
  <speed>0.0</speed>
  <fix>3d</fix>
</trkpt>
<trkpt lat="64.1624776" lon="-139.8402243">
  <ele>1109.1</ele>
  <time>2026-09-01T20:02:17Z</time>
  <course>6.3</course>
  <speed>0.022360679774997897</speed>
  <fix>3d</fix>
</trkpt>
<trkpt lat="64.1624777" lon="-139.8402246">
  <ele>1109.09</ele>
  <time>2026-09-01T20:02:17Z</time>
  <course>180.78</course>
  <speed>0.0</speed>
  <fix>3d</fix>
</trkpt>
<trkpt lat="64.1624776" lon="-139.8402243">
  <ele>1109.1</ele>
  <time>2026-09-01T20:02:17Z</time>
  <course>6.31</course>
  <speed>0.022360679774997897</speed>
  <fix>3d</fix>
</trkpt>
<trkpt lat="64.1624777" lon="-139.8402246">
  <ele>1109.09</ele>
  <time>2026-09-01T20:02:17Z</time>
  <course>180.78</course>
  <speed>0.0</speed>
  <fix>3d</fix>
</trkpt>
<trkpt lat="64.1624776" lon="-139.8402243">
  <ele>1109.1</ele>
  <time>2026-09-01T20:02:17Z</time>
  <course>6.31</course>
  <speed>0.022360679774997897</speed>
  <fix>3d</fix>
</trkpt>
<trkpt lat="64.1624777" lon="-139.8402246">
  <ele>1109.09</ele>
  <time>2026-09-01T20:02:17Z</time>
  <course>180.78</course>
  <speed>0.0</speed>
  <fix>3d</fix>
</trkpt>
<trkpt lat="64.1624776" lon="-139.8402243">
  <ele>1109.1</ele>
  <time>2026-09-01T20:02:17Z</time>
  <course>6.31</course>
  <speed>0.022360679774997897</speed>
  <fix>3d</fix>
</trkpt>
<trkpt lat="64.1624777" lon="-139.8402246">
  <ele>1109.09</ele>
  <time>2026-09-01T20:02:17Z</time>
  <course>180.78</course>
  <speed>0.0</speed>
  <fix>3d</fix>
</trkpt>
<trkpt lat="64.1624776" lon="-139.8402243">
  <ele>1109.1</ele>
  <time>2026-09-01T20:02:17Z</time>
  <course>6.31</course>
  <speed>0.022360679774997897</speed>
  <fix>3d</fix>
</trkpt>
<trkpt lat="64.1624777" lon="-139.8402246">
  <ele>1109.09</ele>
  <time>2026-09-01T20:02:17Z</time>
  <course>180.78</course>
  <speed>0.0</speed>
  <fix>3d</fix>
</trkpt>
<trkpt lat="64.1624776" lon="-139.8402243">
  <ele>1109.1</ele>
  <time>2026-09-01T20:02:17Z</time>
  <course>6.31</course>
  <speed>0.022360679774997897</speed>
  <fix>3d</fix>
</trkpt>
<trkpt lat="64.1624777" lon="-139.8402246">
  <ele>1109.09</ele>
  <time>2026-09-01T20:02:17Z</time>
  <course>180.78</course>
  <speed>0.0</speed>
  <fix>3d</fix>
</trkpt>
<trkpt lat="64.1624776" lon="-139.8402243">
  <ele>1109.1</ele>
  <time>2026-09-01T20:02:17Z</time>
  <course>6.31</course>
  <speed>0.022360679774997897</speed>
  <fix>3d</fix>
</trkpt>
<trkpt lat="64.1624777" lon="-139.8402246">
  <ele>1109.09</ele>
  <time>2026-09-01T20:02:17Z</time>
  <course>180.78</course>
  <speed>0.0</speed>
  <fix>3d</fix>
</trkpt>
<trkpt lat="64.1624776" lon="-139.8402243">
  <ele>1109.1</ele>
  <time>2026-09-01T20:02:17Z</time>
  <course>6.31</course>
  <speed>0.022360679774997897</speed>
  <fix>3d</fix>
</trkpt>
<trkpt lat="64.1624777" lon="-139.8402246">
  <ele>1109.09</ele>
  <time>2026-09-01T20:02:17Z</time>
  <course>180.78</course>
  <speed>0.0</speed>
  <fix>3d</fix>
</trkpt>
<trkpt lat="64.1624776" lon="-139.8402243">
  <ele>1109.1</ele>
  <time>2026-09-01T20:02:17Z</time>
  <course>6.31</course>
  <speed>0.022360679774997897</speed>
  <fix>3d</fix>
</trkpt>
<trkpt lat="64.1624777" lon="-139.8402246">
  <ele>1109.09</ele>
  <time>2026-09-01T20:02:17Z</time>
  <course>180.78</course>
  <speed>0.0</speed>
  <fix>3d</fix>
</trkpt>
<trkpt lat="64.1624776" lon="-139.8402243">
  <ele>1109.1</ele>
  <time>2026-09-01T20:02:17Z</time>
  <course>6.32</course>
  <speed>0.022360679774997897</speed>
  <fix>3d</fix>
</trkpt>
<trkpt lat="64.1624777" lon="-139.8402246">
  <ele>1109.09</ele>
  <time>2026-09-01T20:02:17Z</time>
  <course>180.78</course>
  <speed>0.0</speed>
  <fix>3d</fix>
</trkpt>
<trkpt lat="64.1624776" lon="-139.8402243">
  <ele>1109.1</ele>
  <time>2026-09-01T20:02:17Z</time>
  <course>6.32</course>
  <speed>0.022360679774997897</speed>
  <fix>3d</fix>
</trkpt>
<trkpt lat="64.1624777" lon="-139.8402246">
  <ele>1109.09</ele>
  <time>2026-09-01T20:02:17Z</time>
  <course>180.78</course>
  <speed>0.0</speed>
  <fix>3d</fix>
</trkpt>
<trkpt lat="64.1624776" lon="-139.8402243">
  <ele>1109.09</ele>
  <time>2026-09-01T20:02:17Z</time>
  <course>6.32</course>
  <speed>0.022360679774997897</speed>
  <fix>3d</fix>
</trkpt>
<trkpt lat="64.1624777" lon="-139.8402246">
  <ele>1109.09</ele>
  <time>2026-09-01T20:02:17Z</time>
  <course>180.78</course>
  <speed>0.0</speed>
  <fix>3d</fix>
</trkpt>
<trkpt lat="64.1624776" lon="-139.8402243">
  <ele>1109.09</ele>
  <time>2026-09-01T20:02:17Z</time>
  <course>6.32</course>
  <speed>0.022360679774997897</speed>
  <fix>3d</fix>
</trkpt>
<trkpt lat="64.1624777" lon="-139.8402246">
  <ele>1109.09</ele>
  <time>2026-09-01T20:02:17Z</time>
  <course>180.78</course>
  <speed>0.0</speed>
  <fix>3d</fix>
</trkpt>
<trkpt lat="64.1624776" lon="-139.8402243">
  <ele>1109.09</ele>
  <time>2026-09-01T20:02:17Z</time>
  <course>6.32</course>
  <speed>0.022360679774997897</speed>
  <fix>3d</fix>
</trkpt>
<trkpt lat="64.1624777" lon="-139.8402246">
  <ele>1109.09</ele>
  <time>2026-09-01T20:02:17Z</time>
  <course>180.78</course>
  <speed>0.0</speed>
  <fix>3d</fix>
</trkpt>
<trkpt lat="64.1624776" lon="-139.8402243">
  <ele>1109.09</ele>
  <time>2026-09-01T20:02:17Z</time>
  <course>6.32</course>
  <speed>0.022360679774997897</speed>
  <fix>3d</fix>
</trkpt>
<trkpt lat="64.1624777" lon="-139.8402246">
  <ele>1109.09</ele>
  <time>2026-09-01T20:02:17Z</time>
  <course>180.78</course>
  <speed>0.0</speed>
  <fix>3d</fix>
</trkpt>
<trkpt lat="64.1624776" lon="-139.8402243">
  <ele>1109.09</ele>
  <time>2026-09-01T20:02:17Z</time>
  <course>6.32</course>
  <speed>0.022360679774997897</speed>
  <fix>3d</fix>
</trkpt>
<trkpt lat="64.1624777" lon="-139.8402246">
  <ele>1109.09</ele>
  <time>2026-09-01T20:02:17Z</time>
  <course>180.78</course>
  <speed>0.0</speed>
  <fix>3d</fix>
</trkpt>
<trkpt lat="64.1624776" lon="-139.8402243">
  <ele>1109.08</ele>
  <time>2026-09-01T20:02:17Z</time>
  <course>6.32</course>
  <speed>0.022360679774997897</speed>
  <fix>3d</fix>
</trkpt>
<trkpt lat="64.1624777" lon="-139.8402246">
  <ele>1109.09</ele>
  <time>2026-09-01T20:02:17Z</time>
  <course>180.78</course>
  <speed>0.0</speed>
  <fix>3d</fix>
</trkpt>
<trkpt lat="64.1624776" lon="-139.8402243">
  <ele>1109.08</ele>
  <time>2026-09-01T20:02:17Z</time>
  <course>6.32</course>
  <speed>0.022360679774997897</speed>
  <fix>3d</fix>
</trkpt>
<trkpt lat="64.1624777" lon="-139.8402246">
  <ele>1109.09</ele>
  <time>2026-09-01T20:02:17Z</time>
  <course>180.78</course>
  <speed>0.0</speed>
  <fix>3d</fix>
</trkpt>
<trkpt lat="64.1624776" lon="-139.8402243">
  <ele>1109.08</ele>
  <time>2026-09-01T20:02:17Z</time>
  <course>6.33</course>
  <speed>0.022360679774997897</speed>
  <fix>3d</fix>
</trkpt>
<trkpt lat="64.1624777" lon="-139.8402246">
  <ele>1109.09</ele>
  <time>2026-09-01T20:02:17Z</time>
  <course>180.78</course>
  <speed>0.0</speed>
  <fix>3d</fix>
</trkpt>
<trkpt lat="64.1624776" lon="-139.8402243">
  <ele>1109.08</ele>
  <time>2026-09-01T20:02:17Z</time>
  <course>6.33</course>
  <speed>0.022360679774997897</speed>
  <fix>3d</fix>
</trkpt>
<trkpt lat="64.1624777" lon="-139.8402246">
  <ele>1109.09</ele>
  <time>2026-09-01T20:02:17Z</time>
  <course>180.78</course>
  <speed>0.0</speed>
  <fix>3d</fix>
</trkpt>
<trkpt lat="64.1624776" lon="-139.8402243">
  <ele>1109.08</ele>
  <time>2026-09-01T20:02:17Z</time>
  <course>6.33</course>
  <speed>0.022360679774997897</speed>
  <fix>3d</fix>
</trkpt>
<trkpt lat="64.1624777" lon="-139.8402246">
  <ele>1109.09</ele>
  <time>2026-09-01T20:02:17Z</time>
  <course>180.78</course>
  <speed>0.0</speed>
  <fix>3d</fix>
</trkpt>
<trkpt lat="64.1624776" lon="-139.8402243">
  <ele>1109.08</ele>
  <time>2026-09-01T20:02:17Z</time>
  <course>6.33</course>
  <speed>0.022360679774997897</speed>
  <fix>3d</fix>
</trkpt>
<trkpt lat="64.1624777" lon="-139.8402246">
  <ele>1109.09</ele>
  <time>2026-09-01T20:02:17Z</time>
  <course>180.78</course>
  <speed>0.0</speed>
  <fix>3d</fix>
</trkpt>
<trkpt lat="64.1624776" lon="-139.8402243">
  <ele>1109.08</ele>
  <time>2026-09-01T20:02:17Z</time>
  <course>6.33</course>
  <speed>0.022360679774997897</speed>
  <fix>3d</fix>
</trkpt>
<trkpt lat="64.1624777" lon="-139.8402246">
  <ele>1109.09</ele>
  <time>2026-09-01T20:02:17Z</time>
  <course>180.78</course>
  <speed>0.0</speed>
  <fix>3d</fix>
</trkpt>
<trkpt lat="64.1624776" lon="-139.8402243">
  <ele>1109.08</ele>
  <time>2026-09-01T20:02:17Z</time>
  <course>6.33</course>
  <speed>0.022360679774997897</speed>
  <fix>3d</fix>
</trkpt>
<trkpt lat="64.1624777" lon="-139.8402246">
  <ele>1109.09</ele>
  <time>2026-09-01T20:02:17Z</time>
  <course>180.78</course>
  <speed>0.0</speed>
  <fix>3d</fix>
</trkpt>
<trkpt lat="64.1624776" lon="-139.8402243">
  <ele>1109.08</ele>
  <time>2026-09-01T20:02:17Z</time>
  <course>6.33</course>
  <speed>0.022360679774997897</speed>
  <fix>3d</fix>
</trkpt>
<trkpt lat="64.1624777" lon="-139.8402246">
  <ele>1109.09</ele>
  <time>2026-09-01T20:02:17Z</time>
  <course>180.78</course>
  <speed>0.0</speed>
  <fix>3d</fix>
</trkpt>
<trkpt lat="64.1624776" lon="-139.8402243">
  <ele>1109.08</ele>
  <time>2026-09-01T20:02:17Z</time>
  <course>6.33</course>
  <speed>0.022360679774997897</speed>
  <fix>3d</fix>
</trkpt>
<trkpt lat="64.1624777" lon="-139.8402246">
  <ele>1109.09</ele>
  <time>2026-09-01T20:02:17Z</time>
  <course>180.78</course>
  <speed>0.0</speed>
  <fix>3d</fix>
</trkpt>
<trkpt lat="64.1624776" lon="-139.8402243">
  <ele>1109.08</ele>
  <time>2026-09-01T20:02:17Z</time>
  <course>6.33</course>
  <speed>0.022360679774997897</speed>
  <fix>3d</fix>
</trkpt>
<trkpt lat="64.1624777" lon="-139.8402246">
  <ele>1109.09</ele>
  <time>2026-09-01T20:02:17Z</time>
  <course>180.78</course>
  <speed>0.0</speed>
  <fix>3d</fix>
</trkpt>
<trkpt lat="64.1624776" lon="-139.8402243">
  <ele>1109.08</ele>
  <time>2026-09-01T20:02:17Z</time>
  <course>6.34</course>
  <speed>0.022360679774997897</speed>
  <fix>3d</fix>
</trkpt>
<trkpt lat="64.1624777" lon="-139.8402246">
  <ele>1109.09</ele>
  <time>2026-09-01T20:02:17Z</time>
  <course>180.78</course>
  <speed>0.0</speed>
  <fix>3d</fix>
</trkpt>
<trkpt lat="64.1624776" lon="-139.8402243">
  <ele>1109.08</ele>
  <time>2026-09-01T20:02:17Z</time>
  <course>6.34</course>
  <speed>0.022360679774997897</speed>
  <fix>3d</fix>
</trkpt>
<trkpt lat="64.1624777" lon="-139.8402246">
  <ele>1109.09</ele>
  <time>2026-09-01T20:02:17Z</time>
  <course>180.78</course>
  <speed>0.0</speed>
  <fix>3d</fix>
</trkpt>
<trkpt lat="64.1624776" lon="-139.8402243">
  <ele>1109.07</ele>
  <time>2026-09-01T20:02:17Z</time>
  <course>6.34</course>
  <speed>0.022360679774997897</speed>
  <fix>3d</fix>
</trkpt>
<trkpt lat="64.1624777" lon="-139.8402246">
  <ele>1109.09</ele>
  <time>2026-09-01T20:02:17Z</time>
  <course>180.78</course>
  <speed>0.0</speed>
  <fix>3d</fix>
</trkpt>
<trkpt lat="64.1624776" lon="-139.8402243">
  <ele>1109.07</ele>
  <time>2026-09-01T20:02:17Z</time>
  <course>6.34</course>
  <speed>0.022360679774997897</speed>
  <fix>3d</fix>
</trkpt>
<trkpt lat="64.1624777" lon="-139.8402246">
  <ele>1109.09</ele>
  <time>2026-09-01T20:02:17Z</time>
  <course>180.78</course>
  <speed>0.0</speed>
  <fix>3d</fix>
</trkpt>
<trkpt lat="64.1624776" lon="-139.8402243">
  <ele>1109.07</ele>
  <time>2026-09-01T20:02:17Z</time>
  <course>6.34</course>
  <speed>0.022360679774997897</speed>
  <fix>3d</fix>
</trkpt>
<trkpt lat="64.1624777" lon="-139.8402246">
  <ele>1109.09</ele>
  <time>2026-09-01T20:02:17Z</time>
  <course>180.78</course>
  <speed>0.0</speed>
  <fix>3d</fix>
</trkpt>
<trkpt lat="64.1624776" lon="-139.8402243">
  <ele>1109.07</ele>
  <time>2026-09-01T20:02:17Z</time>
  <course>6.34</course>
  <speed>0.022360679774997897</speed>
  <fix>3d</fix>
</trkpt>
<trkpt lat="64.1624777" lon="-139.8402246">
  <ele>1109.09</ele>
  <time>2026-09-01T20:02:17Z</time>
  <course>180.78</course>
  <speed>0.0</speed>
  <fix>3d</fix>
</trkpt>
<trkpt lat="64.1624776" lon="-139.8402243">
  <ele>1109.06</ele>
  <time>2026-09-01T20:02:17Z</time>
  <course>6.34</course>
  <speed>0.022360679774997897</speed>
  <fix>3d</fix>
</trkpt>
<trkpt lat="64.1624777" lon="-139.8402246">
  <ele>1109.09</ele>
  <time>2026-09-01T20:02:17Z</time>
  <course>180.78</course>
  <speed>0.0</speed>
  <fix>3d</fix>
</trkpt>
<trkpt lat="64.1624776" lon="-139.8402243">
  <ele>1109.06</ele>
  <time>2026-09-01T20:02:17Z</time>
  <course>6.34</course>
  <speed>0.022360679774997897</speed>
  <fix>3d</fix>
</trkpt>
<trkpt lat="64.1624777" lon="-139.8402246">
  <ele>1109.09</ele>
  <time>2026-09-01T20:02:17Z</time>
  <course>180.78</course>
  <speed>0.0</speed>
  <fix>3d</fix>
</trkpt>
<trkpt lat="64.1624776" lon="-139.8402243">
  <ele>1109.06</ele>
  <time>2026-09-01T20:02:17Z</time>
  <course>6.35</course>
  <speed>0.022360679774997897</speed>
  <fix>3d</fix>
</trkpt>
<trkpt lat="64.1624777" lon="-139.8402246">
  <ele>1109.09</ele>
  <time>2026-09-01T20:02:17Z</time>
  <course>180.78</course>
  <speed>0.0</speed>
  <fix>3d</fix>
</trkpt>
<trkpt lat="64.1624776" lon="-139.8402243">
  <ele>1109.05</ele>
  <time>2026-09-01T20:02:17Z</time>
  <course>6.35</course>
  <speed>0.022360679774997897</speed>
  <fix>3d</fix>
</trkpt>
<trkpt lat="64.1624777" lon="-139.8402246">
  <ele>1109.09</ele>
  <time>2026-09-01T20:02:17Z</time>
  <course>180.78</course>
  <speed>0.0</speed>
  <fix>3d</fix>
</trkpt>
<trkpt lat="64.1624776" lon="-139.8402243">
  <ele>1109.05</ele>
  <time>2026-09-01T20:02:17Z</time>
  <course>6.35</course>
  <speed>0.022360679774997897</speed>
  <fix>3d</fix>
</trkpt>
<trkpt lat="64.1624777" lon="-139.8402246">
  <ele>1109.09</ele>
  <time>2026-09-01T20:02:17Z</time>
  <course>180.78</course>
  <speed>0.0</speed>
  <fix>3d</fix>
</trkpt>
<trkpt lat="64.1624776" lon="-139.8402243">
  <ele>1109.05</ele>
  <time>2026-09-01T20:02:17Z</time>
  <course>6.35</course>
  <speed>0.022360679774997897</speed>
  <fix>3d</fix>
</trkpt>
<trkpt lat="64.1624777" lon="-139.8402246">
  <ele>1109.09</ele>
  <time>2026-09-01T20:02:17Z</time>
  <course>180.78</course>
  <speed>0.0</speed>
  <fix>3d</fix>
</trkpt>
<trkpt lat="64.1624776" lon="-139.8402243">
  <ele>1109.06</ele>
  <time>2026-09-01T20:02:17Z</time>
  <course>6.35</course>
  <speed>0.022360679774997897</speed>
  <fix>3d</fix>
</trkpt>
<trkpt lat="64.1624777" lon="-139.8402246">
  <ele>1109.09</ele>
  <time>2026-09-01T20:02:17Z</time>
  <course>180.78</course>
  <speed>0.0</speed>
  <fix>3d</fix>
</trkpt>
<trkpt lat="64.1624776" lon="-139.8402243">
  <ele>1109.06</ele>
  <time>2026-09-01T20:02:17Z</time>
  <course>6.35</course>
  <speed>0.022360679774997897</speed>
  <fix>3d</fix>
</trkpt>
<trkpt lat="64.1624777" lon="-139.8402246">
  <ele>1109.09</ele>
  <time>2026-09-01T20:02:17Z</time>
  <course>180.78</course>
  <speed>0.0</speed>
  <fix>3d</fix>
</trkpt>
<trkpt lat="64.1624776" lon="-139.8402243">
  <ele>1109.06</ele>
  <time>2026-09-01T20:02:17Z</time>
  <course>6.35</course>
  <speed>0.022360679774997897</speed>
  <fix>3d</fix>
</trkpt>
<trkpt lat="64.1624777" lon="-139.8402246">
  <ele>1109.09</ele>
  <time>2026-09-01T20:02:17Z</time>
  <course>180.78</course>
  <speed>0.0</speed>
  <fix>3d</fix>
</trkpt>
<trkpt lat="64.1624776" lon="-139.8402243">
  <ele>1109.06</ele>
  <time>2026-09-01T20:02:17Z</time>
  <course>6.35</course>
  <speed>0.022360679774997897</speed>
  <fix>3d</fix>
</trkpt>
<trkpt lat="64.1624777" lon="-139.8402246">
  <ele>1109.09</ele>
  <time>2026-09-01T20:02:17Z</time>
  <course>180.78</course>
  <speed>0.0</speed>
  <fix>3d</fix>
</trkpt>
<trkpt lat="64.1624776" lon="-139.8402243">
  <ele>1109.06</ele>
  <time>2026-09-01T20:02:17Z</time>
  <course>6.36</course>
  <speed>0.022360679774997897</speed>
  <fix>3d</fix>
</trkpt>
<trkpt lat="64.1624777" lon="-139.8402246">
  <ele>1109.09</ele>
  <time>2026-09-01T20:02:17Z</time>
  <course>180.78</course>
  <speed>0.0</speed>
  <fix>3d</fix>
</trkpt>
<trkpt lat="64.1624776" lon="-139.8402243">
  <ele>1109.06</ele>
  <time>2026-09-01T20:02:17Z</time>
  <course>6.36</course>
  <speed>0.022360679774997897</speed>
  <fix>3d</fix>
</trkpt>
<trkpt lat="64.1624777" lon="-139.8402246">
  <ele>1109.09</ele>
  <time>2026-09-01T20:02:17Z</time>
  <course>180.78</course>
  <speed>0.0</speed>
  <fix>3d</fix>
</trkpt>
<trkpt lat="64.1624776" lon="-139.8402243">
  <ele>1109.06</ele>
  <time>2026-09-01T20:02:17Z</time>
  <course>6.36</course>
  <speed>0.022360679774997897</speed>
  <fix>3d</fix>
</trkpt>
<trkpt lat="64.1624777" lon="-139.8402246">
  <ele>1109.09</ele>
  <time>2026-09-01T20:02:17Z</time>
  <course>180.78</course>
  <speed>0.0</speed>
  <fix>3d</fix>
</trkpt>
<trkpt lat="64.1624776" lon="-139.8402243">
  <ele>1109.06</ele>
  <time>2026-09-01T20:02:17Z</time>
  <course>6.36</course>
  <speed>0.022360679774997897</speed>
  <fix>3d</fix>
</trkpt>
<trkpt lat="64.1624777" lon="-139.8402246">
  <ele>1109.09</ele>
  <time>2026-09-01T20:02:17Z</time>
  <course>180.78</course>
  <speed>0.0</speed>
  <fix>3d</fix>
</trkpt>
<trkpt lat="64.1624776" lon="-139.8402243">
  <ele>1109.06</ele>
  <time>2026-09-01T20:02:17Z</time>
  <course>6.36</course>
  <speed>0.022360679774997897</speed>
  <fix>3d</fix>
</trkpt>
<trkpt lat="64.1624777" lon="-139.8402246">
  <ele>1109.09</ele>
  <time>2026-09-01T20:02:17Z</time>
  <course>180.78</course>
  <speed>0.0</speed>
  <fix>3d</fix>
</trkpt>
<trkpt lat="64.1624776" lon="-139.8402243">
  <ele>1109.06</ele>
  <time>2026-09-01T20:02:17Z</time>
  <course>6.36</course>
  <speed>0.022360679774997897</speed>
  <fix>3d</fix>
</trkpt>
<trkpt lat="64.1624777" lon="-139.8402246">
  <ele>1109.09</ele>
  <time>2026-09-01T20:02:17Z</time>
  <course>180.78</course>
  <speed>0.0</speed>
  <fix>3d</fix>
</trkpt>
<trkpt lat="64.1624776" lon="-139.8402243">
  <ele>1109.08</ele>
  <time>2026-09-01T20:02:17Z</time>
  <course>6.36</course>
  <speed>0.022360679774997897</speed>
  <fix>3d</fix>
</trkpt>
<trkpt lat="64.1624777" lon="-139.8402246">
  <ele>1109.09</ele>
  <time>2026-09-01T20:02:17Z</time>
  <course>180.78</course>
  <speed>0.0</speed>
  <fix>3d</fix>
</trkpt>
<trkpt lat="64.1624776" lon="-139.8402243">
  <ele>1109.08</ele>
  <time>2026-09-01T20:02:17Z</time>
  <course>6.36</course>
  <speed>0.022360679774997897</speed>
  <fix>3d</fix>
</trkpt>
<trkpt lat="64.1624777" lon="-139.8402246">
  <ele>1109.09</ele>
  <time>2026-09-01T20:02:17Z</time>
  <course>180.78</course>
  <speed>0.0</speed>
  <fix>3d</fix>
</trkpt>
<trkpt lat="64.1624776" lon="-139.8402243">
  <ele>1109.08</ele>
  <time>2026-09-01T20:02:17Z</time>
  <course>6.36</course>
  <speed>0.022360679774997897</speed>
  <fix>3d</fix>
</trkpt>
<trkpt lat="64.1624777" lon="-139.8402246">
  <ele>1109.09</ele>
  <time>2026-09-01T20:02:17Z</time>
  <course>180.78</course>
  <speed>0.0</speed>
  <fix>3d</fix>
</trkpt>
<trkpt lat="64.1624776" lon="-139.8402243">
  <ele>1109.08</ele>
  <time>2026-09-01T20:02:17Z</time>
  <course>6.36</course>
  <speed>0.022360679774997897</speed>
  <fix>3d</fix>
</trkpt>
<trkpt lat="64.1624777" lon="-139.8402246">
  <ele>1109.09</ele>
  <time>2026-09-01T20:02:17Z</time>
  <course>180.78</course>
  <speed>0.0</speed>
  <fix>3d</fix>
</trkpt>
<trkpt lat="64.1624776" lon="-139.8402243">
  <ele>1109.09</ele>
  <time>2026-09-01T20:02:17Z</time>
  <course>6.37</course>
  <speed>0.022360679774997897</speed>
  <fix>3d</fix>
</trkpt>
<trkpt lat="64.1624777" lon="-139.8402246">
  <ele>1109.09</ele>
  <time>2026-09-01T20:02:17Z</time>
  <course>180.78</course>
  <speed>0.0</speed>
  <fix>3d</fix>
</trkpt>
<trkpt lat="64.1624776" lon="-139.8402243">
  <ele>1109.09</ele>
  <time>2026-09-01T20:02:17Z</time>
  <course>6.37</course>
  <speed>0.022360679774997897</speed>
  <fix>3d</fix>
</trkpt>
<trkpt lat="64.1624777" lon="-139.8402246">
  <ele>1109.09</ele>
  <time>2026-09-01T20:02:17Z</time>
  <course>180.78</course>
  <speed>0.0</speed>
  <fix>3d</fix>
</trkpt>
<trkpt lat="64.1624776" lon="-139.8402243">
  <ele>1109.09</ele>
  <time>2026-09-01T20:02:17Z</time>
  <course>6.37</course>
  <speed>0.022360679774997897</speed>
  <fix>3d</fix>
</trkpt>
<trkpt lat="64.1624777" lon="-139.8402246">
  <ele>1109.09</ele>
  <time>2026-09-01T20:02:17Z</time>
  <course>180.78</course>
  <speed>0.0</speed>
  <fix>3d</fix>
</trkpt>
<trkpt lat="64.1624776" lon="-139.8402243">
  <ele>1109.09</ele>
  <time>2026-09-01T20:02:17Z</time>
  <course>6.37</course>
  <speed>0.022360679774997897</speed>
  <fix>3d</fix>
</trkpt>
<trkpt lat="64.1624777" lon="-139.8402246">
  <ele>1109.09</ele>
  <time>2026-09-01T20:02:17Z</time>
  <course>180.78</course>
  <speed>0.0</speed>
  <fix>3d</fix>
</trkpt>
<trkpt lat="64.1624776" lon="-139.8402243">
  <ele>1109.09</ele>
  <time>2026-09-01T20:02:17Z</time>
  <course>6.37</course>
  <speed>0.022360679774997897</speed>
  <fix>3d</fix>
</trkpt>
<trkpt lat="64.1624777" lon="-139.8402246">
  <ele>1109.09</ele>
  <time>2026-09-01T20:02:17Z</time>
  <course>180.78</course>
  <speed>0.0</speed>
  <fix>3d</fix>
</trkpt>
<trkpt lat="64.1624776" lon="-139.8402243">
  <ele>1109.09</ele>
  <time>2026-09-01T20:02:17Z</time>
  <course>6.37</course>
  <speed>0.022360679774997897</speed>
  <fix>3d</fix>
</trkpt>
<trkpt lat="64.1624777" lon="-139.8402246">
  <ele>1109.09</ele>
  <time>2026-09-01T20:02:17Z</time>
  <course>180.78</course>
  <speed>0.0</speed>
  <fix>3d</fix>
</trkpt>
<trkpt lat="64.1624776" lon="-139.8402243">
  <ele>1109.09</ele>
  <time>2026-09-01T20:02:17Z</time>
  <course>6.37</course>
  <speed>0.022360679774997897</speed>
  <fix>3d</fix>
</trkpt>
<trkpt lat="64.1624777" lon="-139.8402246">
  <ele>1109.09</ele>
  <time>2026-09-01T20:02:17Z</time>
  <course>180.78</course>
  <speed>0.0</speed>
  <fix>3d</fix>
</trkpt>
<trkpt lat="64.1624776" lon="-139.8402243">
  <ele>1109.09</ele>
  <time>2026-09-01T20:02:17Z</time>
  <course>6.37</course>
  <speed>0.022360679774997897</speed>
  <fix>3d</fix>
</trkpt>
<trkpt lat="64.1624777" lon="-139.8402246">
  <ele>1109.09</ele>
  <time>2026-09-01T20:02:17Z</time>
  <course>180.78</course>
  <speed>0.0</speed>
  <fix>3d</fix>
</trkpt>
<trkpt lat="64.1624776" lon="-139.8402243">
  <ele>1109.09</ele>
  <time>2026-09-01T20:02:17Z</time>
  <course>6.38</course>
  <speed>0.022360679774997897</speed>
  <fix>3d</fix>
</trkpt>
<trkpt lat="64.1624777" lon="-139.8402246">
  <ele>1109.09</ele>
  <time>2026-09-01T20:02:17Z</time>
  <course>180.78</course>
  <speed>0.0</speed>
  <fix>3d</fix>
</trkpt>
<trkpt lat="64.1624776" lon="-139.8402243">
  <ele>1109.09</ele>
  <time>2026-09-01T20:02:17Z</time>
  <course>6.38</course>
  <speed>0.022360679774997897</speed>
  <fix>3d</fix>
</trkpt>
<trkpt lat="64.1624777" lon="-139.8402246">
  <ele>1109.09</ele>
  <time>2026-09-01T20:02:17Z</time>
  <course>180.78</course>
  <speed>0.0</speed>
  <fix>3d</fix>
</trkpt>
<trkpt lat="64.1624776" lon="-139.8402243">
  <ele>1109.09</ele>
  <time>2026-09-01T20:02:17Z</time>
  <course>6.38</course>
  <speed>0.022360679774997897</speed>
  <fix>3d</fix>
</trkpt>
<trkpt lat="64.1624777" lon="-139.8402246">
  <ele>1109.09</ele>
  <time>2026-09-01T20:02:17Z</time>
  <course>180.78</course>
  <speed>0.0</speed>
  <fix>3d</fix>
</trkpt>
<trkpt lat="64.1624776" lon="-139.8402243">
  <ele>1109.09</ele>
  <time>2026-09-01T20:02:17Z</time>
  <course>6.38</course>
  <speed>0.022360679774997897</speed>
  <fix>3d</fix>
</trkpt>
<trkpt lat="64.1624777" lon="-139.8402246">
  <ele>1109.09</ele>
  <time>2026-09-01T20:02:17Z</time>
  <course>180.78</course>
  <speed>0.0</speed>
  <fix>3d</fix>
</trkpt>
<trkpt lat="64.1624776" lon="-139.8402243">
  <ele>1109.09</ele>
  <time>2026-09-01T20:02:17Z</time>
  <course>6.38</course>
  <speed>0.022360679774997897</speed>
  <fix>3d</fix>
</trkpt>
<trkpt lat="64.1624777" lon="-139.8402246">
  <ele>1109.09</ele>
  <time>2026-09-01T20:02:17Z</time>
  <course>180.78</course>
  <speed>0.0</speed>
  <fix>3d</fix>
</trkpt>
<trkpt lat="64.1624776" lon="-139.8402243">
  <ele>1109.09</ele>
  <time>2026-09-01T20:02:17Z</time>
  <course>6.38</course>
  <speed>0.022360679774997897</speed>
  <fix>3d</fix>
</trkpt>
<trkpt lat="64.1624777" lon="-139.8402246">
  <ele>1109.09</ele>
  <time>2026-09-01T20:02:17Z</time>
  <course>180.78</course>
  <speed>0.0</speed>
  <fix>3d</fix>
</trkpt>
<trkpt lat="64.1624776" lon="-139.8402243">
  <ele>1109.09</ele>
  <time>2026-09-01T20:02:17Z</time>
  <course>6.38</course>
  <speed>0.022360679774997897</speed>
  <fix>3d</fix>
</trkpt>
<trkpt lat="64.1624777" lon="-139.8402246">
  <ele>1109.09</ele>
  <time>2026-09-01T20:02:17Z</time>
  <course>180.78</course>
  <speed>0.0</speed>
  <fix>3d</fix>
</trkpt>
<trkpt lat="64.1624776" lon="-139.8402243">
  <ele>1109.1</ele>
  <time>2026-09-01T20:02:17Z</time>
  <course>6.38</course>
  <speed>0.022360679774997897</speed>
  <fix>3d</fix>
</trkpt>
<trkpt lat="64.1624777" lon="-139.8402246">
  <ele>1109.09</ele>
  <time>2026-09-01T20:02:18Z</time>
  <course>180.78</course>
  <speed>0.0</speed>
  <fix>3d</fix>
</trkpt>
<trkpt lat="64.1624776" lon="-139.8402243">
  <ele>1109.1</ele>
  <time>2026-09-01T20:02:18Z</time>
  <course>6.38</course>
  <speed>0.022360679774997897</speed>
  <fix>3d</fix>
</trkpt>
<trkpt lat="64.1624777" lon="-139.8402246">
  <ele>1109.09</ele>
  <time>2026-09-01T20:02:18Z</time>
  <course>180.78</course>
  <speed>0.0</speed>
  <fix>3d</fix>
</trkpt>
<trkpt lat="64.1624776" lon="-139.8402243">
  <ele>1109.1</ele>
  <time>2026-09-01T20:02:18Z</time>
  <course>6.39</course>
  <speed>0.022360679774997897</speed>
  <fix>3d</fix>
</trkpt>
<trkpt lat="64.1624777" lon="-139.8402246">
  <ele>1109.09</ele>
  <time>2026-09-01T20:02:18Z</time>
  <course>180.78</course>
  <speed>0.0</speed>
  <fix>3d</fix>
</trkpt>
<trkpt lat="64.1624776" lon="-139.8402243">
  <ele>1109.1</ele>
  <time>2026-09-01T20:02:18Z</time>
  <course>6.39</course>
  <speed>0.022360679774997897</speed>
  <fix>3d</fix>
</trkpt>
<trkpt lat="64.1624777" lon="-139.8402246">
  <ele>1109.09</ele>
  <time>2026-09-01T20:02:18Z</time>
  <course>180.78</course>
  <speed>0.0</speed>
  <fix>3d</fix>
</trkpt>
<trkpt lat="64.1624776" lon="-139.8402243">
  <ele>1109.1</ele>
  <time>2026-09-01T20:02:18Z</time>
  <course>6.39</course>
  <speed>0.022360679774997897</speed>
  <fix>3d</fix>
</trkpt>
<trkpt lat="64.1624777" lon="-139.8402246">
  <ele>1109.09</ele>
  <time>2026-09-01T20:02:18Z</time>
  <course>180.78</course>
  <speed>0.0</speed>
  <fix>3d</fix>
</trkpt>
<trkpt lat="64.1624776" lon="-139.8402243">
  <ele>1109.1</ele>
  <time>2026-09-01T20:02:18Z</time>
  <course>6.39</course>
  <speed>0.022360679774997897</speed>
  <fix>3d</fix>
</trkpt>
<trkpt lat="64.1624777" lon="-139.8402246">
  <ele>1109.09</ele>
  <time>2026-09-01T20:02:18Z</time>
  <course>180.78</course>
  <speed>0.0</speed>
  <fix>3d</fix>
</trkpt>
<trkpt lat="64.1624776" lon="-139.8402243">
  <ele>1109.1</ele>
  <time>2026-09-01T20:02:18Z</time>
  <course>6.39</course>
  <speed>0.022360679774997897</speed>
  <fix>3d</fix>
</trkpt>
<trkpt lat="64.1624777" lon="-139.8402246">
  <ele>1109.09</ele>
  <time>2026-09-01T20:02:18Z</time>
  <course>180.78</course>
  <speed>0.0</speed>
  <fix>3d</fix>
</trkpt>
<trkpt lat="64.1624776" lon="-139.8402243">
  <ele>1109.11</ele>
  <time>2026-09-01T20:02:18Z</time>
  <course>6.39</course>
  <speed>0.022360679774997897</speed>
  <fix>3d</fix>
</trkpt>
<trkpt lat="64.1624777" lon="-139.8402246">
  <ele>1109.09</ele>
  <time>2026-09-01T20:02:18Z</time>
  <course>180.78</course>
  <speed>0.0</speed>
  <fix>3d</fix>
</trkpt>
<trkpt lat="64.1624776" lon="-139.8402243">
  <ele>1109.11</ele>
  <time>2026-09-01T20:02:18Z</time>
  <course>6.39</course>
  <speed>0.022360679774997897</speed>
  <fix>3d</fix>
</trkpt>
<trkpt lat="64.1624777" lon="-139.8402246">
  <ele>1109.09</ele>
  <time>2026-09-01T20:02:18Z</time>
  <course>180.78</course>
  <speed>0.0</speed>
  <fix>3d</fix>
</trkpt>
<trkpt lat="64.1624776" lon="-139.8402243">
  <ele>1109.11</ele>
  <time>2026-09-01T20:02:18Z</time>
  <course>6.39</course>
  <speed>0.022360679774997897</speed>
  <fix>3d</fix>
</trkpt>
<trkpt lat="64.1624777" lon="-139.8402246">
  <ele>1109.09</ele>
  <time>2026-09-01T20:02:18Z</time>
  <course>180.78</course>
  <speed>0.0</speed>
  <fix>3d</fix>
</trkpt>
<trkpt lat="64.1624776" lon="-139.8402243">
  <ele>1109.11</ele>
  <time>2026-09-01T20:02:18Z</time>
  <course>6.39</course>
  <speed>0.022360679774997897</speed>
  <fix>3d</fix>
</trkpt>
<trkpt lat="64.1624777" lon="-139.8402246">
  <ele>1109.09</ele>
  <time>2026-09-01T20:02:18Z</time>
  <course>180.78</course>
  <speed>0.0</speed>
  <fix>3d</fix>
</trkpt>
<trkpt lat="64.1624776" lon="-139.8402243">
  <ele>1109.11</ele>
  <time>2026-09-01T20:02:18Z</time>
  <course>6.4</course>
  <speed>0.022360679774997897</speed>
  <fix>3d</fix>
</trkpt>
<trkpt lat="64.1624777" lon="-139.8402246">
  <ele>1109.09</ele>
  <time>2026-09-01T20:02:18Z</time>
  <course>180.78</course>
  <speed>0.0</speed>
  <fix>3d</fix>
</trkpt>
<trkpt lat="64.1624776" lon="-139.8402243">
  <ele>1109.11</ele>
  <time>2026-09-01T20:02:18Z</time>
  <course>6.4</course>
  <speed>0.022360679774997897</speed>
  <fix>3d</fix>
</trkpt>
<trkpt lat="64.1624777" lon="-139.8402246">
  <ele>1109.09</ele>
  <time>2026-09-01T20:02:18Z</time>
  <course>180.78</course>
  <speed>0.0</speed>
  <fix>3d</fix>
</trkpt>
<trkpt lat="64.1624776" lon="-139.8402243">
  <ele>1109.11</ele>
  <time>2026-09-01T20:02:18Z</time>
  <course>6.4</course>
  <speed>0.022360679774997897</speed>
  <fix>3d</fix>
</trkpt>
<trkpt lat="64.1624777" lon="-139.8402246">
  <ele>1109.09</ele>
  <time>2026-09-01T20:02:18Z</time>
  <course>180.78</course>
  <speed>0.0</speed>
  <fix>3d</fix>
</trkpt>
<trkpt lat="64.1624776" lon="-139.8402243">
  <ele>1109.11</ele>
  <time>2026-09-01T20:02:18Z</time>
  <course>6.4</course>
  <speed>0.022360679774997897</speed>
  <fix>3d</fix>
</trkpt>
<trkpt lat="64.1624777" lon="-139.8402246">
  <ele>1109.09</ele>
  <time>2026-09-01T20:02:18Z</time>
  <course>180.78</course>
  <speed>0.0</speed>
  <fix>3d</fix>
</trkpt>
<trkpt lat="64.1624776" lon="-139.8402243">
  <ele>1109.11</ele>
  <time>2026-09-01T20:02:18Z</time>
  <course>6.4</course>
  <speed>0.022360679774997897</speed>
  <fix>3d</fix>
</trkpt>
<trkpt lat="64.1624777" lon="-139.8402246">
  <ele>1109.09</ele>
  <time>2026-09-01T20:02:18Z</time>
  <course>180.78</course>
  <speed>0.0</speed>
  <fix>3d</fix>
</trkpt>
<trkpt lat="64.1624776" lon="-139.8402243">
  <ele>1109.12</ele>
  <time>2026-09-01T20:02:18Z</time>
  <course>6.4</course>
  <speed>0.022360679774997897</speed>
  <fix>3d</fix>
</trkpt>
<trkpt lat="64.1624777" lon="-139.8402246">
  <ele>1109.09</ele>
  <time>2026-09-01T20:02:18Z</time>
  <course>180.78</course>
  <speed>0.0</speed>
  <fix>3d</fix>
</trkpt>
<trkpt lat="64.1624776" lon="-139.8402243">
  <ele>1109.12</ele>
  <time>2026-09-01T20:02:18Z</time>
  <course>6.4</course>
  <speed>0.022360679774997897</speed>
  <fix>3d</fix>
</trkpt>
<trkpt lat="64.1624777" lon="-139.8402246">
  <ele>1109.09</ele>
  <time>2026-09-01T20:02:18Z</time>
  <course>180.78</course>
  <speed>0.0</speed>
  <fix>3d</fix>
</trkpt>
<trkpt lat="64.1624776" lon="-139.8402243">
  <ele>1109.12</ele>
  <time>2026-09-01T20:02:18Z</time>
  <course>6.4</course>
  <speed>0.022360679774997897</speed>
  <fix>3d</fix>
</trkpt>
<trkpt lat="64.1624777" lon="-139.8402246">
  <ele>1109.09</ele>
  <time>2026-09-01T20:02:18Z</time>
  <course>180.78</course>
  <speed>0.0</speed>
  <fix>3d</fix>
</trkpt>
<trkpt lat="64.1624776" lon="-139.8402243">
  <ele>1109.12</ele>
  <time>2026-09-01T20:02:18Z</time>
  <course>6.41</course>
  <speed>0.022360679774997897</speed>
  <fix>3d</fix>
</trkpt>
<trkpt lat="64.1624777" lon="-139.8402246">
  <ele>1109.09</ele>
  <time>2026-09-01T20:02:18Z</time>
  <course>180.78</course>
  <speed>0.0</speed>
  <fix>3d</fix>
</trkpt>
<trkpt lat="64.1624776" lon="-139.8402243">
  <ele>1109.13</ele>
  <time>2026-09-01T20:02:18Z</time>
  <course>6.41</course>
  <speed>0.022360679774997897</speed>
  <fix>3d</fix>
</trkpt>
<trkpt lat="64.1624777" lon="-139.8402246">
  <ele>1109.09</ele>
  <time>2026-09-01T20:02:18Z</time>
  <course>180.78</course>
  <speed>0.0</speed>
  <fix>3d</fix>
</trkpt>
<trkpt lat="64.1624776" lon="-139.8402243">
  <ele>1109.13</ele>
  <time>2026-09-01T20:02:18Z</time>
  <course>6.41</course>
  <speed>0.022360679774997897</speed>
  <fix>3d</fix>
</trkpt>
<trkpt lat="64.1624777" lon="-139.8402246">
  <ele>1109.09</ele>
  <time>2026-09-01T20:02:18Z</time>
  <course>180.78</course>
  <speed>0.0</speed>
  <fix>3d</fix>
</trkpt>
<trkpt lat="64.1624776" lon="-139.8402243">
  <ele>1109.13</ele>
  <time>2026-09-01T20:02:18Z</time>
  <course>6.41</course>
  <speed>0.022360679774997897</speed>
  <fix>3d</fix>
</trkpt>
<trkpt lat="64.1624777" lon="-139.8402246">
  <ele>1109.09</ele>
  <time>2026-09-01T20:02:18Z</time>
  <course>180.78</course>
  <speed>0.0</speed>
  <fix>3d</fix>
</trkpt>
<trkpt lat="64.1624776" lon="-139.8402243">
  <ele>1109.13</ele>
  <time>2026-09-01T20:02:18Z</time>
  <course>6.41</course>
  <speed>0.022360679774997897</speed>
  <fix>3d</fix>
</trkpt>
<trkpt lat="64.1624777" lon="-139.8402246">
  <ele>1109.09</ele>
  <time>2026-09-01T20:02:18Z</time>
  <course>180.78</course>
  <speed>0.0</speed>
  <fix>3d</fix>
</trkpt>
<trkpt lat="64.1624776" lon="-139.8402243">
  <ele>1109.13</ele>
  <time>2026-09-01T20:02:18Z</time>
  <course>6.41</course>
  <speed>0.022360679774997897</speed>
  <fix>3d</fix>
</trkpt>
<trkpt lat="64.1624777" lon="-139.8402246">
  <ele>1109.09</ele>
  <time>2026-09-01T20:02:18Z</time>
  <course>180.78</course>
  <speed>0.0</speed>
  <fix>3d</fix>
</trkpt>
<trkpt lat="64.1624776" lon="-139.8402243">
  <ele>1109.13</ele>
  <time>2026-09-01T20:02:18Z</time>
  <course>6.41</course>
  <speed>0.022360679774997897</speed>
  <fix>3d</fix>
</trkpt>
<trkpt lat="64.1624777" lon="-139.8402246">
  <ele>1109.09</ele>
  <time>2026-09-01T20:02:18Z</time>
  <course>180.78</course>
  <speed>0.0</speed>
  <fix>3d</fix>
</trkpt>
<trkpt lat="64.1624776" lon="-139.8402243">
  <ele>1109.13</ele>
  <time>2026-09-01T20:02:18Z</time>
  <course>6.41</course>
  <speed>0.022360679774997897</speed>
  <fix>3d</fix>
</trkpt>
<trkpt lat="64.1624777" lon="-139.8402246">
  <ele>1109.09</ele>
  <time>2026-09-01T20:02:18Z</time>
  <course>180.78</course>
  <speed>0.0</speed>
  <fix>3d</fix>
</trkpt>
<trkpt lat="64.1624776" lon="-139.8402243">
  <ele>1109.13</ele>
  <time>2026-09-01T20:02:18Z</time>
  <course>6.41</course>
  <speed>0.022360679774997897</speed>
  <fix>3d</fix>
</trkpt>
<trkpt lat="64.1624777" lon="-139.8402246">
  <ele>1109.09</ele>
  <time>2026-09-01T20:02:18Z</time>
  <course>180.78</course>
  <speed>0.0</speed>
  <fix>3d</fix>
</trkpt>
<trkpt lat="64.1624776" lon="-139.8402243">
  <ele>1109.14</ele>
  <time>2026-09-01T20:02:18Z</time>
  <course>6.41</course>
  <speed>0.022360679774997897</speed>
  <fix>3d</fix>
</trkpt>
<trkpt lat="64.1624777" lon="-139.8402246">
  <ele>1109.09</ele>
  <time>2026-09-01T20:02:18Z</time>
  <course>180.78</course>
  <speed>0.0</speed>
  <fix>3d</fix>
</trkpt>
<trkpt lat="64.1624776" lon="-139.8402243">
  <ele>1109.14</ele>
  <time>2026-09-01T20:02:18Z</time>
  <course>6.42</course>
  <speed>0.022360679774997897</speed>
  <fix>3d</fix>
</trkpt>
<trkpt lat="64.1624777" lon="-139.8402246">
  <ele>1109.09</ele>
  <time>2026-09-01T20:02:18Z</time>
  <course>180.78</course>
  <speed>0.0</speed>
  <fix>3d</fix>
</trkpt>
<trkpt lat="64.1624776" lon="-139.8402243">
  <ele>1109.14</ele>
  <time>2026-09-01T20:02:18Z</time>
  <course>6.42</course>
  <speed>0.022360679774997897</speed>
  <fix>3d</fix>
</trkpt>
<trkpt lat="64.1624777" lon="-139.8402246">
  <ele>1109.09</ele>
  <time>2026-09-01T20:02:18Z</time>
  <course>180.78</course>
  <speed>0.0</speed>
  <fix>3d</fix>
</trkpt>
<trkpt lat="64.1624776" lon="-139.8402243">
  <ele>1109.14</ele>
  <time>2026-09-01T20:02:18Z</time>
  <course>6.42</course>
  <speed>0.022360679774997897</speed>
  <fix>3d</fix>
</trkpt>
<trkpt lat="64.1624777" lon="-139.8402246">
  <ele>1109.09</ele>
  <time>2026-09-01T20:02:18Z</time>
  <course>180.78</course>
  <speed>0.0</speed>
  <fix>3d</fix>
</trkpt>
<trkpt lat="64.1624776" lon="-139.8402243">
  <ele>1109.14</ele>
  <time>2026-09-01T20:02:18Z</time>
  <course>6.42</course>
  <speed>0.022360679774997897</speed>
  <fix>3d</fix>
</trkpt>
<trkpt lat="64.1624777" lon="-139.8402246">
  <ele>1109.09</ele>
  <time>2026-09-01T20:02:18Z</time>
  <course>180.78</course>
  <speed>0.0</speed>
  <fix>3d</fix>
</trkpt>
<trkpt lat="64.1624776" lon="-139.8402243">
  <ele>1109.15</ele>
  <time>2026-09-01T20:02:18Z</time>
  <course>6.42</course>
  <speed>0.022360679774997897</speed>
  <fix>3d</fix>
</trkpt>
<trkpt lat="64.1624777" lon="-139.8402246">
  <ele>1109.09</ele>
  <time>2026-09-01T20:02:18Z</time>
  <course>180.78</course>
  <speed>0.0</speed>
  <fix>3d</fix>
</trkpt>
<trkpt lat="64.1624776" lon="-139.8402243">
  <ele>1109.15</ele>
  <time>2026-09-01T20:02:18Z</time>
  <course>6.42</course>
  <speed>0.022360679774997897</speed>
  <fix>3d</fix>
</trkpt>
<trkpt lat="64.1624777" lon="-139.8402246">
  <ele>1109.09</ele>
  <time>2026-09-01T20:02:18Z</time>
  <course>180.78</course>
  <speed>0.0</speed>
  <fix>3d</fix>
</trkpt>
<trkpt lat="64.1624776" lon="-139.8402243">
  <ele>1109.15</ele>
  <time>2026-09-01T20:02:18Z</time>
  <course>6.42</course>
  <speed>0.022360679774997897</speed>
  <fix>3d</fix>
</trkpt>
<trkpt lat="64.1624777" lon="-139.8402246">
  <ele>1109.09</ele>
  <time>2026-09-01T20:02:18Z</time>
  <course>180.78</course>
  <speed>0.0</speed>
  <fix>3d</fix>
</trkpt>
<trkpt lat="64.1624776" lon="-139.8402243">
  <ele>1109.15</ele>
  <time>2026-09-01T20:02:18Z</time>
  <course>6.42</course>
  <speed>0.022360679774997897</speed>
  <fix>3d</fix>
</trkpt>
<trkpt lat="64.1624777" lon="-139.8402246">
  <ele>1109.09</ele>
  <time>2026-09-01T20:02:18Z</time>
  <course>180.78</course>
  <speed>0.0</speed>
  <fix>3d</fix>
</trkpt>
<trkpt lat="64.1624776" lon="-139.8402243">
  <ele>1109.14</ele>
  <time>2026-09-01T20:02:18Z</time>
  <course>6.43</course>
  <speed>0.022360679774997897</speed>
  <fix>3d</fix>
</trkpt>
<trkpt lat="64.1624777" lon="-139.8402246">
  <ele>1109.09</ele>
  <time>2026-09-01T20:02:18Z</time>
  <course>180.78</course>
  <speed>0.0</speed>
  <fix>3d</fix>
</trkpt>
<trkpt lat="64.1624776" lon="-139.8402243">
  <ele>1109.14</ele>
  <time>2026-09-01T20:02:18Z</time>
  <course>6.43</course>
  <speed>0.022360679774997897</speed>
  <fix>3d</fix>
</trkpt>
<trkpt lat="64.1624777" lon="-139.8402246">
  <ele>1109.09</ele>
  <time>2026-09-01T20:02:18Z</time>
  <course>180.78</course>
  <speed>0.0</speed>
  <fix>3d</fix>
</trkpt>
<trkpt lat="64.1624776" lon="-139.8402243">
  <ele>1109.14</ele>
  <time>2026-09-01T20:02:18Z</time>
  <course>6.43</course>
  <speed>0.022360679774997897</speed>
  <fix>3d</fix>
</trkpt>
<trkpt lat="64.1624777" lon="-139.8402246">
  <ele>1109.09</ele>
  <time>2026-09-01T20:02:18Z</time>
  <course>180.78</course>
  <speed>0.0</speed>
  <fix>3d</fix>
</trkpt>
<trkpt lat="64.1624776" lon="-139.8402243">
  <ele>1109.14</ele>
  <time>2026-09-01T20:02:18Z</time>
  <course>6.43</course>
  <speed>0.022360679774997897</speed>
  <fix>3d</fix>
</trkpt>
<trkpt lat="64.1624777" lon="-139.8402246">
  <ele>1109.09</ele>
  <time>2026-09-01T20:02:18Z</time>
  <course>180.78</course>
  <speed>0.0</speed>
  <fix>3d</fix>
</trkpt>
<trkpt lat="64.1624776" lon="-139.8402243">
  <ele>1109.09</ele>
  <time>2026-09-01T20:02:18Z</time>
  <course>6.43</course>
  <speed>0.022360679774997897</speed>
  <fix>3d</fix>
</trkpt>
<trkpt lat="64.1624777" lon="-139.8402246">
  <ele>1109.09</ele>
  <time>2026-09-01T20:02:18Z</time>
  <course>180.78</course>
  <speed>0.0</speed>
  <fix>3d</fix>
</trkpt>
<trkpt lat="64.1624776" lon="-139.8402243">
  <ele>1109.09</ele>
  <time>2026-09-01T20:02:18Z</time>
  <course>6.43</course>
  <speed>0.022360679774997897</speed>
  <fix>3d</fix>
</trkpt>
<trkpt lat="64.1624777" lon="-139.8402246">
  <ele>1109.09</ele>
  <time>2026-09-01T20:02:18Z</time>
  <course>180.78</course>
  <speed>0.0</speed>
  <fix>3d</fix>
</trkpt>
<trkpt lat="64.1624776" lon="-139.8402243">
  <ele>1109.08</ele>
  <time>2026-09-01T20:02:18Z</time>
  <course>6.43</course>
  <speed>0.022360679774997897</speed>
  <fix>3d</fix>
</trkpt>
<trkpt lat="64.1624777" lon="-139.8402246">
  <ele>1109.09</ele>
  <time>2026-09-01T20:02:18Z</time>
  <course>180.78</course>
  <speed>0.0</speed>
  <fix>3d</fix>
</trkpt>
<trkpt lat="64.1624776" lon="-139.8402243">
  <ele>1109.09</ele>
  <time>2026-09-01T20:02:18Z</time>
  <course>6.43</course>
  <speed>0.022360679774997897</speed>
  <fix>3d</fix>
</trkpt>
<trkpt lat="64.1624777" lon="-139.8402246">
  <ele>1109.09</ele>
  <time>2026-09-01T20:02:18Z</time>
  <course>180.78</course>
  <speed>0.0</speed>
  <fix>3d</fix>
</trkpt>
<trkpt lat="64.1624776" lon="-139.8402243">
  <ele>1109.09</ele>
  <time>2026-09-01T20:02:18Z</time>
  <course>6.43</course>
  <speed>0.022360679774997897</speed>
  <fix>3d</fix>
</trkpt>
<trkpt lat="64.1624777" lon="-139.8402246">
  <ele>1109.09</ele>
  <time>2026-09-01T20:02:18Z</time>
  <course>180.78</course>
  <speed>0.0</speed>
  <fix>3d</fix>
</trkpt>
<trkpt lat="64.1624776" lon="-139.8402243">
  <ele>1109.09</ele>
  <time>2026-09-01T20:02:18Z</time>
  <course>6.44</course>
  <speed>0.022360679774997897</speed>
  <fix>3d</fix>
</trkpt>
<trkpt lat="64.1624777" lon="-139.8402246">
  <ele>1109.09</ele>
  <time>2026-09-01T20:02:18Z</time>
  <course>180.78</course>
  <speed>0.0</speed>
  <fix>3d</fix>
</trkpt>
<trkpt lat="64.1624776" lon="-139.8402243">
  <ele>1109.09</ele>
  <time>2026-09-01T20:02:18Z</time>
  <course>6.44</course>
  <speed>0.022360679774997897</speed>
  <fix>3d</fix>
</trkpt>
<trkpt lat="64.1624777" lon="-139.8402246">
  <ele>1109.09</ele>
  <time>2026-09-01T20:02:18Z</time>
  <course>180.78</course>
  <speed>0.0</speed>
  <fix>3d</fix>
</trkpt>
<trkpt lat="64.1624776" lon="-139.8402243">
  <ele>1109.09</ele>
  <time>2026-09-01T20:02:18Z</time>
  <course>6.44</course>
  <speed>0.022360679774997897</speed>
  <fix>3d</fix>
</trkpt>
<trkpt lat="64.1624777" lon="-139.8402246">
  <ele>1109.09</ele>
  <time>2026-09-01T20:02:18Z</time>
  <course>180.78</course>
  <speed>0.0</speed>
  <fix>3d</fix>
</trkpt>
<trkpt lat="64.1624776" lon="-139.8402243">
  <ele>1109.09</ele>
  <time>2026-09-01T20:02:18Z</time>
  <course>6.44</course>
  <speed>0.022360679774997897</speed>
  <fix>3d</fix>
</trkpt>
<trkpt lat="64.1624777" lon="-139.8402246">
  <ele>1109.09</ele>
  <time>2026-09-01T20:02:18Z</time>
  <course>180.78</course>
  <speed>0.0</speed>
  <fix>3d</fix>
</trkpt>
<trkpt lat="64.1624776" lon="-139.8402243">
  <ele>1109.09</ele>
  <time>2026-09-01T20:02:18Z</time>
  <course>6.44</course>
  <speed>0.022360679774997897</speed>
  <fix>3d</fix>
</trkpt>
<trkpt lat="64.1624777" lon="-139.8402246">
  <ele>1109.09</ele>
  <time>2026-09-01T20:02:18Z</time>
  <course>180.78</course>
  <speed>0.0</speed>
  <fix>3d</fix>
</trkpt>
<trkpt lat="64.1624776" lon="-139.8402243">
  <ele>1109.09</ele>
  <time>2026-09-01T20:02:18Z</time>
  <course>6.44</course>
  <speed>0.022360679774997897</speed>
  <fix>3d</fix>
</trkpt>
<trkpt lat="64.1624777" lon="-139.8402246">
  <ele>1109.09</ele>
  <time>2026-09-01T20:02:18Z</time>
  <course>180.78</course>
  <speed>0.0</speed>
  <fix>3d</fix>
</trkpt>
<trkpt lat="64.1624776" lon="-139.8402243">
  <ele>1109.1</ele>
  <time>2026-09-01T20:02:18Z</time>
  <course>6.44</course>
  <speed>0.022360679774997897</speed>
  <fix>3d</fix>
</trkpt>
<trkpt lat="64.1624777" lon="-139.8402246">
  <ele>1109.09</ele>
  <time>2026-09-01T20:02:18Z</time>
  <course>180.78</course>
  <speed>0.0</speed>
  <fix>3d</fix>
</trkpt>
<trkpt lat="64.1624776" lon="-139.8402243">
  <ele>1109.1</ele>
  <time>2026-09-01T20:02:18Z</time>
  <course>6.44</course>
  <speed>0.022360679774997897</speed>
  <fix>3d</fix>
</trkpt>
<trkpt lat="64.1624777" lon="-139.8402246">
  <ele>1109.09</ele>
  <time>2026-09-01T20:02:18Z</time>
  <course>180.78</course>
  <speed>0.0</speed>
  <fix>3d</fix>
</trkpt>
<trkpt lat="64.1624776" lon="-139.8402243">
  <ele>1109.1</ele>
  <time>2026-09-01T20:02:18Z</time>
  <course>6.44</course>
  <speed>0.022360679774997897</speed>
  <fix>3d</fix>
</trkpt>
<trkpt lat="64.1624777" lon="-139.8402246">
  <ele>1109.09</ele>
  <time>2026-09-01T20:02:18Z</time>
  <course>180.78</course>
  <speed>0.0</speed>
  <fix>3d</fix>
</trkpt>
<trkpt lat="64.1624776" lon="-139.8402243">
  <ele>1109.1</ele>
  <time>2026-09-01T20:02:18Z</time>
  <course>6.45</course>
  <speed>0.022360679774997897</speed>
  <fix>3d</fix>
</trkpt>
<trkpt lat="64.1624777" lon="-139.8402246">
  <ele>1109.09</ele>
  <time>2026-09-01T20:02:18Z</time>
  <course>180.78</course>
  <speed>0.0</speed>
  <fix>3d</fix>
</trkpt>
<trkpt lat="64.1624776" lon="-139.8402243">
  <ele>1109.09</ele>
  <time>2026-09-01T20:02:18Z</time>
  <course>6.45</course>
  <speed>0.022360679774997897</speed>
  <fix>3d</fix>
</trkpt>
<trkpt lat="64.1624777" lon="-139.8402246">
  <ele>1109.09</ele>
  <time>2026-09-01T20:02:18Z</time>
  <course>180.78</course>
  <speed>0.0</speed>
  <fix>3d</fix>
</trkpt>
<trkpt lat="64.1624776" lon="-139.8402243">
  <ele>1109.09</ele>
  <time>2026-09-01T20:02:18Z</time>
  <course>6.45</course>
  <speed>0.022360679774997897</speed>
  <fix>3d</fix>
</trkpt>
<trkpt lat="64.1624777" lon="-139.8402246">
  <ele>1109.09</ele>
  <time>2026-09-01T20:02:18Z</time>
  <course>180.78</course>
  <speed>0.0</speed>
  <fix>3d</fix>
</trkpt>
<trkpt lat="64.1624776" lon="-139.8402243">
  <ele>1109.09</ele>
  <time>2026-09-01T20:02:18Z</time>
  <course>6.45</course>
  <speed>0.022360679774997897</speed>
  <fix>3d</fix>
</trkpt>
<trkpt lat="64.1624777" lon="-139.8402246">
  <ele>1109.09</ele>
  <time>2026-09-01T20:02:18Z</time>
  <course>180.78</course>
  <speed>0.0</speed>
  <fix>3d</fix>
</trkpt>
<trkpt lat="64.1624776" lon="-139.8402243">
  <ele>1109.09</ele>
  <time>2026-09-01T20:02:18Z</time>
  <course>6.45</course>
  <speed>0.022360679774997897</speed>
  <fix>3d</fix>
</trkpt>
<trkpt lat="64.1624777" lon="-139.8402246">
  <ele>1109.09</ele>
  <time>2026-09-01T20:02:18Z</time>
  <course>180.78</course>
  <speed>0.0</speed>
  <fix>3d</fix>
</trkpt>
<trkpt lat="64.1624776" lon="-139.8402243">
  <ele>1109.09</ele>
  <time>2026-09-01T20:02:18Z</time>
  <course>6.45</course>
  <speed>0.022360679774997897</speed>
  <fix>3d</fix>
</trkpt>
<trkpt lat="64.1624777" lon="-139.8402246">
  <ele>1109.09</ele>
  <time>2026-09-01T20:02:18Z</time>
  <course>180.78</course>
  <speed>0.0</speed>
  <fix>3d</fix>
</trkpt>
<trkpt lat="64.1624776" lon="-139.8402243">
  <ele>1109.09</ele>
  <time>2026-09-01T20:02:18Z</time>
  <course>6.45</course>
  <speed>0.022360679774997897</speed>
  <fix>3d</fix>
</trkpt>
<trkpt lat="64.1624777" lon="-139.8402246">
  <ele>1109.09</ele>
  <time>2026-09-01T20:02:18Z</time>
  <course>180.78</course>
  <speed>0.0</speed>
  <fix>3d</fix>
</trkpt>
<trkpt lat="64.1624776" lon="-139.8402243">
  <ele>1109.09</ele>
  <time>2026-09-01T20:02:18Z</time>
  <course>6.45</course>
  <speed>0.022360679774997897</speed>
  <fix>3d</fix>
</trkpt>
<trkpt lat="64.1624777" lon="-139.8402246">
  <ele>1109.09</ele>
  <time>2026-09-01T20:02:18Z</time>
  <course>180.78</course>
  <speed>0.0</speed>
  <fix>3d</fix>
</trkpt>
<trkpt lat="64.1624776" lon="-139.8402243">
  <ele>1109.09</ele>
  <time>2026-09-01T20:02:18Z</time>
  <course>6.45</course>
  <speed>0.022360679774997897</speed>
  <fix>3d</fix>
</trkpt>
<trkpt lat="64.1624777" lon="-139.8402246">
  <ele>1109.09</ele>
  <time>2026-09-01T20:02:18Z</time>
  <course>180.78</course>
  <speed>0.0</speed>
  <fix>3d</fix>
</trkpt>
<trkpt lat="64.1624776" lon="-139.8402243">
  <ele>1109.09</ele>
  <time>2026-09-01T20:02:18Z</time>
  <course>6.46</course>
  <speed>0.022360679774997897</speed>
  <fix>3d</fix>
</trkpt>
<trkpt lat="64.1624777" lon="-139.8402246">
  <ele>1109.09</ele>
  <time>2026-09-01T20:02:18Z</time>
  <course>180.78</course>
  <speed>0.0</speed>
  <fix>3d</fix>
</trkpt>
<trkpt lat="64.1624776" lon="-139.8402243">
  <ele>1109.1</ele>
  <time>2026-09-01T20:02:18Z</time>
  <course>6.46</course>
  <speed>0.022360679774997897</speed>
  <fix>3d</fix>
</trkpt>
<trkpt lat="64.1624777" lon="-139.8402246">
  <ele>1109.09</ele>
  <time>2026-09-01T20:02:18Z</time>
  <course>180.78</course>
  <speed>0.0</speed>
  <fix>3d</fix>
</trkpt>
<trkpt lat="64.1624776" lon="-139.8402243">
  <ele>1109.1</ele>
  <time>2026-09-01T20:02:18Z</time>
  <course>6.46</course>
  <speed>0.022360679774997897</speed>
  <fix>3d</fix>
</trkpt>
<trkpt lat="64.1624777" lon="-139.8402246">
  <ele>1109.09</ele>
  <time>2026-09-01T20:02:18Z</time>
  <course>180.78</course>
  <speed>0.0</speed>
  <fix>3d</fix>
</trkpt>
<trkpt lat="64.1624776" lon="-139.8402243">
  <ele>1109.1</ele>
  <time>2026-09-01T20:02:18Z</time>
  <course>6.46</course>
  <speed>0.022360679774997897</speed>
  <fix>3d</fix>
</trkpt>
<trkpt lat="64.1624777" lon="-139.8402246">
  <ele>1109.09</ele>
  <time>2026-09-01T20:02:18Z</time>
  <course>180.78</course>
  <speed>0.0</speed>
  <fix>3d</fix>
</trkpt>
<trkpt lat="64.1624776" lon="-139.8402243">
  <ele>1109.1</ele>
  <time>2026-09-01T20:02:18Z</time>
  <course>6.46</course>
  <speed>0.022360679774997897</speed>
  <fix>3d</fix>
</trkpt>
<trkpt lat="64.1624777" lon="-139.8402246">
  <ele>1109.09</ele>
  <time>2026-09-01T20:02:18Z</time>
  <course>180.78</course>
  <speed>0.0</speed>
  <fix>3d</fix>
</trkpt>
<trkpt lat="64.1624776" lon="-139.8402243">
  <ele>1109.11</ele>
  <time>2026-09-01T20:02:18Z</time>
  <course>6.46</course>
  <speed>0.022360679774997897</speed>
  <fix>3d</fix>
</trkpt>
<trkpt lat="64.1624777" lon="-139.8402246">
  <ele>1109.09</ele>
  <time>2026-09-01T20:02:18Z</time>
  <course>180.78</course>
  <speed>0.0</speed>
  <fix>3d</fix>
</trkpt>
<trkpt lat="64.1624776" lon="-139.8402243">
  <ele>1109.11</ele>
  <time>2026-09-01T20:02:18Z</time>
  <course>6.46</course>
  <speed>0.022360679774997897</speed>
  <fix>3d</fix>
</trkpt>
<trkpt lat="64.1624777" lon="-139.8402246">
  <ele>1109.09</ele>
  <time>2026-09-01T20:02:18Z</time>
  <course>180.78</course>
  <speed>0.0</speed>
  <fix>3d</fix>
</trkpt>
<trkpt lat="64.1624776" lon="-139.8402243">
  <ele>1109.11</ele>
  <time>2026-09-01T20:02:18Z</time>
  <course>6.46</course>
  <speed>0.022360679774997897</speed>
  <fix>3d</fix>
</trkpt>
<trkpt lat="64.1624777" lon="-139.8402246">
  <ele>1109.09</ele>
  <time>2026-09-01T20:02:18Z</time>
  <course>180.78</course>
  <speed>0.0</speed>
  <fix>3d</fix>
</trkpt>
<trkpt lat="64.1624776" lon="-139.8402243">
  <ele>1109.11</ele>
  <time>2026-09-01T20:02:18Z</time>
  <course>6.46</course>
  <speed>0.022360679774997897</speed>
  <fix>3d</fix>
</trkpt>
<trkpt lat="64.1624777" lon="-139.8402246">
  <ele>1109.09</ele>
  <time>2026-09-01T20:02:18Z</time>
  <course>180.78</course>
  <speed>0.0</speed>
  <fix>3d</fix>
</trkpt>
<trkpt lat="64.1624776" lon="-139.8402243">
  <ele>1109.11</ele>
  <time>2026-09-01T20:02:18Z</time>
  <course>6.47</course>
  <speed>0.022360679774997897</speed>
  <fix>3d</fix>
</trkpt>
<trkpt lat="64.1624777" lon="-139.8402246">
  <ele>1109.09</ele>
  <time>2026-09-01T20:02:18Z</time>
  <course>180.78</course>
  <speed>0.0</speed>
  <fix>3d</fix>
</trkpt>
<trkpt lat="64.1624776" lon="-139.8402243">
  <ele>1109.11</ele>
  <time>2026-09-01T20:02:18Z</time>
  <course>6.47</course>
  <speed>0.022360679774997897</speed>
  <fix>3d</fix>
</trkpt>
<trkpt lat="64.1624777" lon="-139.8402246">
  <ele>1109.09</ele>
  <time>2026-09-01T20:02:18Z</time>
  <course>180.78</course>
  <speed>0.0</speed>
  <fix>3d</fix>
</trkpt>
<trkpt lat="64.1624776" lon="-139.8402243">
  <ele>1109.11</ele>
  <time>2026-09-01T20:02:18Z</time>
  <course>6.47</course>
  <speed>0.022360679774997897</speed>
  <fix>3d</fix>
</trkpt>
<trkpt lat="64.1624777" lon="-139.8402246">
  <ele>1109.09</ele>
  <time>2026-09-01T20:02:18Z</time>
  <course>180.78</course>
  <speed>0.0</speed>
  <fix>3d</fix>
</trkpt>
<trkpt lat="64.1624776" lon="-139.8402243">
  <ele>1109.11</ele>
  <time>2026-09-01T20:02:18Z</time>
  <course>6.47</course>
  <speed>0.022360679774997897</speed>
  <fix>3d</fix>
</trkpt>
<trkpt lat="64.1624777" lon="-139.8402246">
  <ele>1109.09</ele>
  <time>2026-09-01T20:02:18Z</time>
  <course>180.78</course>
  <speed>0.0</speed>
  <fix>3d</fix>
</trkpt>
<trkpt lat="64.1624776" lon="-139.8402243">
  <ele>1109.11</ele>
  <time>2026-09-01T20:02:18Z</time>
  <course>6.47</course>
  <speed>0.022360679774997897</speed>
  <fix>3d</fix>
</trkpt>
<trkpt lat="64.1624777" lon="-139.8402246">
  <ele>1109.09</ele>
  <time>2026-09-01T20:02:18Z</time>
  <course>180.78</course>
  <speed>0.0</speed>
  <fix>3d</fix>
</trkpt>
<trkpt lat="64.1624776" lon="-139.8402243">
  <ele>1109.11</ele>
  <time>2026-09-01T20:02:18Z</time>
  <course>6.47</course>
  <speed>0.022360679774997897</speed>
  <fix>3d</fix>
</trkpt>
<trkpt lat="64.1624777" lon="-139.8402246">
  <ele>1109.09</ele>
  <time>2026-09-01T20:02:18Z</time>
  <course>180.78</course>
  <speed>0.0</speed>
  <fix>3d</fix>
</trkpt>
<trkpt lat="64.1624776" lon="-139.8402243">
  <ele>1109.11</ele>
  <time>2026-09-01T20:02:18Z</time>
  <course>6.47</course>
  <speed>0.022360679774997897</speed>
  <fix>3d</fix>
</trkpt>
<trkpt lat="64.1624777" lon="-139.8402246">
  <ele>1109.09</ele>
  <time>2026-09-01T20:02:18Z</time>
  <course>180.78</course>
  <speed>0.0</speed>
  <fix>3d</fix>
</trkpt>
<trkpt lat="64.1624776" lon="-139.8402243">
  <ele>1109.11</ele>
  <time>2026-09-01T20:02:18Z</time>
  <course>6.47</course>
  <speed>0.022360679774997897</speed>
  <fix>3d</fix>
</trkpt>
<trkpt lat="64.1624777" lon="-139.8402246">
  <ele>1109.09</ele>
  <time>2026-09-01T20:02:18Z</time>
  <course>180.78</course>
  <speed>0.0</speed>
  <fix>3d</fix>
</trkpt>
<trkpt lat="64.1624776" lon="-139.8402243">
  <ele>1109.11</ele>
  <time>2026-09-01T20:02:18Z</time>
  <course>6.48</course>
  <speed>0.022360679774997897</speed>
  <fix>3d</fix>
</trkpt>
<trkpt lat="64.1624777" lon="-139.8402246">
  <ele>1109.09</ele>
  <time>2026-09-01T20:02:18Z</time>
  <course>180.78</course>
  <speed>0.0</speed>
  <fix>3d</fix>
</trkpt>
<trkpt lat="64.1624776" lon="-139.8402243">
  <ele>1109.11</ele>
  <time>2026-09-01T20:02:18Z</time>
  <course>6.48</course>
  <speed>0.022360679774997897</speed>
  <fix>3d</fix>
</trkpt>
<trkpt lat="64.1624777" lon="-139.8402246">
  <ele>1109.09</ele>
  <time>2026-09-01T20:02:18Z</time>
  <course>180.78</course>
  <speed>0.0</speed>
  <fix>3d</fix>
</trkpt>
<trkpt lat="64.1624776" lon="-139.8402243">
  <ele>1109.11</ele>
  <time>2026-09-01T20:02:18Z</time>
  <course>6.48</course>
  <speed>0.022360679774997897</speed>
  <fix>3d</fix>
</trkpt>
<trkpt lat="64.1624777" lon="-139.8402246">
  <ele>1109.09</ele>
  <time>2026-09-01T20:02:18Z</time>
  <course>180.78</course>
  <speed>0.0</speed>
  <fix>3d</fix>
</trkpt>
<trkpt lat="64.1624776" lon="-139.8402243">
  <ele>1109.12</ele>
  <time>2026-09-01T20:02:18Z</time>
  <course>6.48</course>
  <speed>0.022360679774997897</speed>
  <fix>3d</fix>
</trkpt>
<trkpt lat="64.1624777" lon="-139.8402246">
  <ele>1109.09</ele>
  <time>2026-09-01T20:02:18Z</time>
  <course>180.78</course>
  <speed>0.0</speed>
  <fix>3d</fix>
</trkpt>
<trkpt lat="64.1624776" lon="-139.8402243">
  <ele>1109.12</ele>
  <time>2026-09-01T20:02:18Z</time>
  <course>6.48</course>
  <speed>0.022360679774997897</speed>
  <fix>3d</fix>
</trkpt>
<trkpt lat="64.1624777" lon="-139.8402246">
  <ele>1109.09</ele>
  <time>2026-09-01T20:02:18Z</time>
  <course>180.78</course>
  <speed>0.0</speed>
  <fix>3d</fix>
</trkpt>
<trkpt lat="64.1624776" lon="-139.8402243">
  <ele>1109.12</ele>
  <time>2026-09-01T20:02:18Z</time>
  <course>6.48</course>
  <speed>0.022360679774997897</speed>
  <fix>3d</fix>
</trkpt>
<trkpt lat="64.1624777" lon="-139.8402246">
  <ele>1109.09</ele>
  <time>2026-09-01T20:02:18Z</time>
  <course>180.78</course>
  <speed>0.0</speed>
  <fix>3d</fix>
</trkpt>
<trkpt lat="64.1624776" lon="-139.8402243">
  <ele>1109.12</ele>
  <time>2026-09-01T20:02:18Z</time>
  <course>6.48</course>
  <speed>0.022360679774997897</speed>
  <fix>3d</fix>
</trkpt>
<trkpt lat="64.1624777" lon="-139.8402246">
  <ele>1109.09</ele>
  <time>2026-09-01T20:02:18Z</time>
  <course>180.78</course>
  <speed>0.0</speed>
  <fix>3d</fix>
</trkpt>
<trkpt lat="64.1624776" lon="-139.8402243">
  <ele>1109.12</ele>
  <time>2026-09-01T20:02:18Z</time>
  <course>6.48</course>
  <speed>0.022360679774997897</speed>
  <fix>3d</fix>
</trkpt>
<trkpt lat="64.1624777" lon="-139.8402246">
  <ele>1109.09</ele>
  <time>2026-09-01T20:02:18Z</time>
  <course>180.78</course>
  <speed>0.0</speed>
  <fix>3d</fix>
</trkpt>
<trkpt lat="64.1624776" lon="-139.8402243">
  <ele>1109.12</ele>
  <time>2026-09-01T20:02:18Z</time>
  <course>6.48</course>
  <speed>0.022360679774997897</speed>
  <fix>3d</fix>
</trkpt>
<trkpt lat="64.1624777" lon="-139.8402246">
  <ele>1109.09</ele>
  <time>2026-09-01T20:02:18Z</time>
  <course>180.78</course>
  <speed>0.0</speed>
  <fix>3d</fix>
</trkpt>
<trkpt lat="64.1624776" lon="-139.8402243">
  <ele>1109.12</ele>
  <time>2026-09-01T20:02:18Z</time>
  <course>6.49</course>
  <speed>0.022360679774997897</speed>
  <fix>3d</fix>
</trkpt>
<trkpt lat="64.1624777" lon="-139.8402246">
  <ele>1109.09</ele>
  <time>2026-09-01T20:02:18Z</time>
  <course>180.78</course>
  <speed>0.0</speed>
  <fix>3d</fix>
</trkpt>
<trkpt lat="64.1624776" lon="-139.8402243">
  <ele>1109.12</ele>
  <time>2026-09-01T20:02:18Z</time>
  <course>6.49</course>
  <speed>0.022360679774997897</speed>
  <fix>3d</fix>
</trkpt>
<trkpt lat="64.1624777" lon="-139.8402246">
  <ele>1109.09</ele>
  <time>2026-09-01T20:02:18Z</time>
  <course>180.78</course>
  <speed>0.0</speed>
  <fix>3d</fix>
</trkpt>
<trkpt lat="64.1624776" lon="-139.8402243">
  <ele>1109.11</ele>
  <time>2026-09-01T20:02:18Z</time>
  <course>6.49</course>
  <speed>0.022360679774997897</speed>
  <fix>3d</fix>
</trkpt>
<trkpt lat="64.1624777" lon="-139.8402246">
  <ele>1109.09</ele>
  <time>2026-09-01T20:02:18Z</time>
  <course>180.78</course>
  <speed>0.0</speed>
  <fix>3d</fix>
</trkpt>
<trkpt lat="64.1624776" lon="-139.8402243">
  <ele>1109.11</ele>
  <time>2026-09-01T20:02:18Z</time>
  <course>6.49</course>
  <speed>0.022360679774997897</speed>
  <fix>3d</fix>
</trkpt>
<trkpt lat="64.1624777" lon="-139.8402246">
  <ele>1109.09</ele>
  <time>2026-09-01T20:02:18Z</time>
  <course>180.78</course>
  <speed>0.0</speed>
  <fix>3d</fix>
</trkpt>
<trkpt lat="64.1624776" lon="-139.8402243">
  <ele>1109.12</ele>
  <time>2026-09-01T20:02:18Z</time>
  <course>6.49</course>
  <speed>0.022360679774997897</speed>
  <fix>3d</fix>
</trkpt>
<trkpt lat="64.1624777" lon="-139.8402246">
  <ele>1109.09</ele>
  <time>2026-09-01T20:02:18Z</time>
  <course>180.78</course>
  <speed>0.0</speed>
  <fix>3d</fix>
</trkpt>
<trkpt lat="64.1624776" lon="-139.8402243">
  <ele>1109.12</ele>
  <time>2026-09-01T20:02:18Z</time>
  <course>6.49</course>
  <speed>0.022360679774997897</speed>
  <fix>3d</fix>
</trkpt>
<trkpt lat="64.1624777" lon="-139.8402246">
  <ele>1109.09</ele>
  <time>2026-09-01T20:02:18Z</time>
  <course>180.78</course>
  <speed>0.0</speed>
  <fix>3d</fix>
</trkpt>
<trkpt lat="64.1624776" lon="-139.8402243">
  <ele>1109.12</ele>
  <time>2026-09-01T20:02:18Z</time>
  <course>6.49</course>
  <speed>0.022360679774997897</speed>
  <fix>3d</fix>
</trkpt>
<trkpt lat="64.1624777" lon="-139.8402246">
  <ele>1109.09</ele>
  <time>2026-09-01T20:02:18Z</time>
  <course>180.78</course>
  <speed>0.0</speed>
  <fix>3d</fix>
</trkpt>
<trkpt lat="64.1624776" lon="-139.8402243">
  <ele>1109.12</ele>
  <time>2026-09-01T20:02:18Z</time>
  <course>6.49</course>
  <speed>0.022360679774997897</speed>
  <fix>3d</fix>
</trkpt>
<trkpt lat="64.1624777" lon="-139.8402246">
  <ele>1109.09</ele>
  <time>2026-09-01T20:02:18Z</time>
  <course>180.78</course>
  <speed>0.0</speed>
  <fix>3d</fix>
</trkpt>
<trkpt lat="64.1624776" lon="-139.8402243">
  <ele>1109.12</ele>
  <time>2026-09-01T20:02:18Z</time>
  <course>6.49</course>
  <speed>0.022360679774997897</speed>
  <fix>3d</fix>
</trkpt>
<trkpt lat="64.1624777" lon="-139.8402246">
  <ele>1109.09</ele>
  <time>2026-09-01T20:02:18Z</time>
  <course>180.78</course>
  <speed>0.0</speed>
  <fix>3d</fix>
</trkpt>
<trkpt lat="64.1624776" lon="-139.8402243">
  <ele>1109.13</ele>
  <time>2026-09-01T20:02:18Z</time>
  <course>6.5</course>
  <speed>0.022360679774997897</speed>
  <fix>3d</fix>
</trkpt>
<trkpt lat="64.1624777" lon="-139.8402246">
  <ele>1109.09</ele>
  <time>2026-09-01T20:02:18Z</time>
  <course>180.78</course>
  <speed>0.0</speed>
  <fix>3d</fix>
</trkpt>
<trkpt lat="64.1624776" lon="-139.8402243">
  <ele>1109.13</ele>
  <time>2026-09-01T20:02:18Z</time>
  <course>6.5</course>
  <speed>0.022360679774997897</speed>
  <fix>3d</fix>
</trkpt>
<trkpt lat="64.1624777" lon="-139.8402246">
  <ele>1109.09</ele>
  <time>2026-09-01T20:02:18Z</time>
  <course>180.78</course>
  <speed>0.0</speed>
  <fix>3d</fix>
</trkpt>
<trkpt lat="64.1624776" lon="-139.8402243">
  <ele>1109.09</ele>
  <time>2026-09-01T20:02:18Z</time>
  <course>6.5</course>
  <speed>0.022360679774997897</speed>
  <fix>3d</fix>
</trkpt>
<trkpt lat="64.1624777" lon="-139.8402246">
  <ele>1109.09</ele>
  <time>2026-09-01T20:02:18Z</time>
  <course>180.78</course>
  <speed>0.0</speed>
  <fix>3d</fix>
</trkpt>
<trkpt lat="64.1624776" lon="-139.8402243">
  <ele>1109.09</ele>
  <time>2026-09-01T20:02:18Z</time>
  <course>6.5</course>
  <speed>0.022360679774997897</speed>
  <fix>3d</fix>
</trkpt>
<trkpt lat="64.1624777" lon="-139.8402246">
  <ele>1109.09</ele>
  <time>2026-09-01T20:02:18Z</time>
  <course>180.78</course>
  <speed>0.0</speed>
  <fix>3d</fix>
</trkpt>
<trkpt lat="64.1624776" lon="-139.8402243">
  <ele>1109.09</ele>
  <time>2026-09-01T20:02:18Z</time>
  <course>6.5</course>
  <speed>0.022360679774997897</speed>
  <fix>3d</fix>
</trkpt>
<trkpt lat="64.1624777" lon="-139.8402246">
  <ele>1109.09</ele>
  <time>2026-09-01T20:02:18Z</time>
  <course>180.78</course>
  <speed>0.0</speed>
  <fix>3d</fix>
</trkpt>
<trkpt lat="64.1624776" lon="-139.8402243">
  <ele>1109.09</ele>
  <time>2026-09-01T20:02:18Z</time>
  <course>6.5</course>
  <speed>0.022360679774997897</speed>
  <fix>3d</fix>
</trkpt>
<trkpt lat="64.1624777" lon="-139.8402246">
  <ele>1109.09</ele>
  <time>2026-09-01T20:02:18Z</time>
  <course>180.78</course>
  <speed>0.0</speed>
  <fix>3d</fix>
</trkpt>
<trkpt lat="64.1624776" lon="-139.8402243">
  <ele>1109.09</ele>
  <time>2026-09-01T20:02:18Z</time>
  <course>6.5</course>
  <speed>0.022360679774997897</speed>
  <fix>3d</fix>
</trkpt>
<trkpt lat="64.1624777" lon="-139.8402246">
  <ele>1109.09</ele>
  <time>2026-09-01T20:02:18Z</time>
  <course>180.78</course>
  <speed>0.0</speed>
  <fix>3d</fix>
</trkpt>
<trkpt lat="64.1624776" lon="-139.8402243">
  <ele>1109.09</ele>
  <time>2026-09-01T20:02:18Z</time>
  <course>6.5</course>
  <speed>0.022360679774997897</speed>
  <fix>3d</fix>
</trkpt>
<trkpt lat="64.1624777" lon="-139.8402246">
  <ele>1109.09</ele>
  <time>2026-09-01T20:02:18Z</time>
  <course>180.78</course>
  <speed>0.0</speed>
  <fix>3d</fix>
</trkpt>
<trkpt lat="64.1624776" lon="-139.8402243">
  <ele>1109.09</ele>
  <time>2026-09-01T20:02:18Z</time>
  <course>6.5</course>
  <speed>0.022360679774997897</speed>
  <fix>3d</fix>
</trkpt>
<trkpt lat="64.1624777" lon="-139.8402246">
  <ele>1109.09</ele>
  <time>2026-09-01T20:02:18Z</time>
  <course>180.78</course>
  <speed>0.0</speed>
  <fix>3d</fix>
</trkpt>
<trkpt lat="64.1624776" lon="-139.8402243">
  <ele>1109.09</ele>
  <time>2026-09-01T20:02:18Z</time>
  <course>6.51</course>
  <speed>0.022360679774997897</speed>
  <fix>3d</fix>
</trkpt>
<trkpt lat="64.1624777" lon="-139.8402246">
  <ele>1109.09</ele>
  <time>2026-09-01T20:02:18Z</time>
  <course>180.78</course>
  <speed>0.0</speed>
  <fix>3d</fix>
</trkpt>
<trkpt lat="64.1624776" lon="-139.8402243">
  <ele>1109.1</ele>
  <time>2026-09-01T20:02:18Z</time>
  <course>6.51</course>
  <speed>0.022360679774997897</speed>
  <fix>3d</fix>
</trkpt>
<trkpt lat="64.1624777" lon="-139.8402246">
  <ele>1109.09</ele>
  <time>2026-09-01T20:02:18Z</time>
  <course>180.78</course>
  <speed>0.0</speed>
  <fix>3d</fix>
</trkpt>
<trkpt lat="64.1624776" lon="-139.8402243">
  <ele>1109.1</ele>
  <time>2026-09-01T20:02:18Z</time>
  <course>6.51</course>
  <speed>0.022360679774997897</speed>
  <fix>3d</fix>
</trkpt>
<trkpt lat="64.1624777" lon="-139.8402246">
  <ele>1109.09</ele>
  <time>2026-09-01T20:02:18Z</time>
  <course>180.78</course>
  <speed>0.0</speed>
  <fix>3d</fix>
</trkpt>
<trkpt lat="64.1624776" lon="-139.8402243">
  <ele>1109.1</ele>
  <time>2026-09-01T20:02:18Z</time>
  <course>6.51</course>
  <speed>0.022360679774997897</speed>
  <fix>3d</fix>
</trkpt>
<trkpt lat="64.1624777" lon="-139.8402246">
  <ele>1109.09</ele>
  <time>2026-09-01T20:02:18Z</time>
  <course>180.78</course>
  <speed>0.0</speed>
  <fix>3d</fix>
</trkpt>
<trkpt lat="64.1624776" lon="-139.8402243">
  <ele>1109.1</ele>
  <time>2026-09-01T20:02:18Z</time>
  <course>6.51</course>
  <speed>0.022360679774997897</speed>
  <fix>3d</fix>
</trkpt>
<trkpt lat="64.1624777" lon="-139.8402246">
  <ele>1109.09</ele>
  <time>2026-09-01T20:02:18Z</time>
  <course>180.78</course>
  <speed>0.0</speed>
  <fix>3d</fix>
</trkpt>
<trkpt lat="64.1624776" lon="-139.8402243">
  <ele>1109.1</ele>
  <time>2026-09-01T20:02:18Z</time>
  <course>6.51</course>
  <speed>0.022360679774997897</speed>
  <fix>3d</fix>
</trkpt>
<trkpt lat="64.1624777" lon="-139.8402246">
  <ele>1109.09</ele>
  <time>2026-09-01T20:02:18Z</time>
  <course>180.78</course>
  <speed>0.0</speed>
  <fix>3d</fix>
</trkpt>
<trkpt lat="64.1624776" lon="-139.8402243">
  <ele>1109.1</ele>
  <time>2026-09-01T20:02:18Z</time>
  <course>6.51</course>
  <speed>0.022360679774997897</speed>
  <fix>3d</fix>
</trkpt>
<trkpt lat="64.1624777" lon="-139.8402246">
  <ele>1109.09</ele>
  <time>2026-09-01T20:02:18Z</time>
  <course>180.78</course>
  <speed>0.0</speed>
  <fix>3d</fix>
</trkpt>
<trkpt lat="64.1624776" lon="-139.8402243">
  <ele>1109.1</ele>
  <time>2026-09-01T20:02:18Z</time>
  <course>6.51</course>
  <speed>0.022360679774997897</speed>
  <fix>3d</fix>
</trkpt>
<trkpt lat="64.1624777" lon="-139.8402246">
  <ele>1109.09</ele>
  <time>2026-09-01T20:02:18Z</time>
  <course>180.78</course>
  <speed>0.0</speed>
  <fix>3d</fix>
</trkpt>
<trkpt lat="64.1624776" lon="-139.8402243">
  <ele>1109.1</ele>
  <time>2026-09-01T20:02:18Z</time>
  <course>6.52</course>
  <speed>0.022360679774997897</speed>
  <fix>3d</fix>
</trkpt>
<trkpt lat="64.1624777" lon="-139.8402246">
  <ele>1109.09</ele>
  <time>2026-09-01T20:02:18Z</time>
  <course>180.78</course>
  <speed>0.0</speed>
  <fix>3d</fix>
</trkpt>
<trkpt lat="64.1624776" lon="-139.8402243">
  <ele>1109.1</ele>
  <time>2026-09-01T20:02:18Z</time>
  <course>6.52</course>
  <speed>0.022360679774997897</speed>
  <fix>3d</fix>
</trkpt>
<trkpt lat="64.1624777" lon="-139.8402246">
  <ele>1109.09</ele>
  <time>2026-09-01T20:02:18Z</time>
  <course>180.78</course>
  <speed>0.0</speed>
  <fix>3d</fix>
</trkpt>
<trkpt lat="64.1624776" lon="-139.8402243">
  <ele>1109.09</ele>
  <time>2026-09-01T20:02:18Z</time>
  <course>6.52</course>
  <speed>0.022360679774997897</speed>
  <fix>3d</fix>
</trkpt>
<trkpt lat="64.1624777" lon="-139.8402246">
  <ele>1109.09</ele>
  <time>2026-09-01T20:02:18Z</time>
  <course>180.78</course>
  <speed>0.0</speed>
  <fix>3d</fix>
</trkpt>
<trkpt lat="64.1624776" lon="-139.8402243">
  <ele>1109.1</ele>
  <time>2026-09-01T20:02:18Z</time>
  <course>6.52</course>
  <speed>0.022360679774997897</speed>
  <fix>3d</fix>
</trkpt>
<trkpt lat="64.1624777" lon="-139.8402246">
  <ele>1109.09</ele>
  <time>2026-09-01T20:02:18Z</time>
  <course>180.78</course>
  <speed>0.0</speed>
  <fix>3d</fix>
</trkpt>
<trkpt lat="64.1624776" lon="-139.8402243">
  <ele>1109.1</ele>
  <time>2026-09-01T20:02:18Z</time>
  <course>6.52</course>
  <speed>0.022360679774997897</speed>
  <fix>3d</fix>
</trkpt>
<trkpt lat="64.1624777" lon="-139.8402246">
  <ele>1109.09</ele>
  <time>2026-09-01T20:02:18Z</time>
  <course>180.78</course>
  <speed>0.0</speed>
  <fix>3d</fix>
</trkpt>
<trkpt lat="64.1624776" lon="-139.8402243">
  <ele>1109.09</ele>
  <time>2026-09-01T20:02:18Z</time>
  <course>6.52</course>
  <speed>0.022360679774997897</speed>
  <fix>3d</fix>
</trkpt>
<trkpt lat="64.1624777" lon="-139.8402246">
  <ele>1109.09</ele>
  <time>2026-09-01T20:02:18Z</time>
  <course>180.78</course>
  <speed>0.0</speed>
  <fix>3d</fix>
</trkpt>
<trkpt lat="64.1624775" lon="-139.8402243">
  <ele>1109.09</ele>
  <time>2026-09-01T20:02:18Z</time>
  <course>6.52</course>
  <speed>0.022360679774997897</speed>
  <fix>3d</fix>
</trkpt>
<trkpt lat="64.1624777" lon="-139.8402246">
  <ele>1109.09</ele>
  <time>2026-09-01T20:02:18Z</time>
  <course>180.78</course>
  <speed>0.0</speed>
  <fix>3d</fix>
</trkpt>
<trkpt lat="64.1624776" lon="-139.8402243">
  <ele>1109.09</ele>
  <time>2026-09-01T20:02:18Z</time>
  <course>6.52</course>
  <speed>0.022360679774997897</speed>
  <fix>3d</fix>
</trkpt>
<trkpt lat="64.1624777" lon="-139.8402246">
  <ele>1109.09</ele>
  <time>2026-09-01T20:02:18Z</time>
  <course>180.78</course>
  <speed>0.0</speed>
  <fix>3d</fix>
</trkpt>
<trkpt lat="64.1624775" lon="-139.8402243">
  <ele>1109.09</ele>
  <time>2026-09-01T20:02:18Z</time>
  <course>6.52</course>
  <speed>0.022360679774997897</speed>
  <fix>3d</fix>
</trkpt>
<trkpt lat="64.1624777" lon="-139.8402246">
  <ele>1109.09</ele>
  <time>2026-09-01T20:02:18Z</time>
  <course>180.78</course>
  <speed>0.0</speed>
  <fix>3d</fix>
</trkpt>
<trkpt lat="64.1624776" lon="-139.8402243">
  <ele>1109.09</ele>
  <time>2026-09-01T20:02:18Z</time>
  <course>6.53</course>
  <speed>0.022360679774997897</speed>
  <fix>3d</fix>
</trkpt>
<trkpt lat="64.1624777" lon="-139.8402246">
  <ele>1109.09</ele>
  <time>2026-09-01T20:02:18Z</time>
  <course>180.78</course>
  <speed>0.0</speed>
  <fix>3d</fix>
</trkpt>
<trkpt lat="64.1624775" lon="-139.8402243">
  <ele>1109.09</ele>
  <time>2026-09-01T20:02:18Z</time>
  <course>6.53</course>
  <speed>0.022360679774997897</speed>
  <fix>3d</fix>
</trkpt>
<trkpt lat="64.1624777" lon="-139.8402246">
  <ele>1109.09</ele>
  <time>2026-09-01T20:02:18Z</time>
  <course>180.78</course>
  <speed>0.0</speed>
  <fix>3d</fix>
</trkpt>
<trkpt lat="64.1624776" lon="-139.8402243">
  <ele>1109.08</ele>
  <time>2026-09-01T20:02:18Z</time>
  <course>6.53</course>
  <speed>0.022360679774997897</speed>
  <fix>3d</fix>
</trkpt>
<trkpt lat="64.1624777" lon="-139.8402246">
  <ele>1109.09</ele>
  <time>2026-09-01T20:02:18Z</time>
  <course>180.78</course>
  <speed>0.0</speed>
  <fix>3d</fix>
</trkpt>
<trkpt lat="64.1624775" lon="-139.8402243">
  <ele>1109.08</ele>
  <time>2026-09-01T20:02:18Z</time>
  <course>6.53</course>
  <speed>0.022360679774997897</speed>
  <fix>3d</fix>
</trkpt>
<trkpt lat="64.1624777" lon="-139.8402246">
  <ele>1109.09</ele>
  <time>2026-09-01T20:02:18Z</time>
  <course>180.78</course>
  <speed>0.0</speed>
  <fix>3d</fix>
</trkpt>
<trkpt lat="64.1624776" lon="-139.8402243">
  <ele>1109.08</ele>
  <time>2026-09-01T20:02:18Z</time>
  <course>6.53</course>
  <speed>0.022360679774997897</speed>
  <fix>3d</fix>
</trkpt>
<trkpt lat="64.1624777" lon="-139.8402246">
  <ele>1109.09</ele>
  <time>2026-09-01T20:02:18Z</time>
  <course>180.78</course>
  <speed>0.0</speed>
  <fix>3d</fix>
</trkpt>
<trkpt lat="64.1624775" lon="-139.8402243">
  <ele>1109.08</ele>
  <time>2026-09-01T20:02:18Z</time>
  <course>6.53</course>
  <speed>0.022360679774997897</speed>
  <fix>3d</fix>
</trkpt>
<trkpt lat="64.1624777" lon="-139.8402246">
  <ele>1109.09</ele>
  <time>2026-09-01T20:02:18Z</time>
  <course>180.78</course>
  <speed>0.0</speed>
  <fix>3d</fix>
</trkpt>
<trkpt lat="64.1624776" lon="-139.8402243">
  <ele>1109.08</ele>
  <time>2026-09-01T20:02:18Z</time>
  <course>6.53</course>
  <speed>0.022360679774997897</speed>
  <fix>3d</fix>
</trkpt>
<trkpt lat="64.1624777" lon="-139.8402246">
  <ele>1109.09</ele>
  <time>2026-09-01T20:02:18Z</time>
  <course>180.78</course>
  <speed>0.0</speed>
  <fix>3d</fix>
</trkpt>
<trkpt lat="64.1624775" lon="-139.8402243">
  <ele>1109.08</ele>
  <time>2026-09-01T20:02:18Z</time>
  <course>6.53</course>
  <speed>0.022360679774997897</speed>
  <fix>3d</fix>
</trkpt>
<trkpt lat="64.1624777" lon="-139.8402246">
  <ele>1109.09</ele>
  <time>2026-09-01T20:02:18Z</time>
  <course>180.78</course>
  <speed>0.0</speed>
  <fix>3d</fix>
</trkpt>
<trkpt lat="64.1624776" lon="-139.8402243">
  <ele>1109.08</ele>
  <time>2026-09-01T20:02:18Z</time>
  <course>6.53</course>
  <speed>0.022360679774997897</speed>
  <fix>3d</fix>
</trkpt>
<trkpt lat="64.1624777" lon="-139.8402246">
  <ele>1109.09</ele>
  <time>2026-09-01T20:02:18Z</time>
  <course>180.78</course>
  <speed>0.0</speed>
  <fix>3d</fix>
</trkpt>
<trkpt lat="64.1624775" lon="-139.8402243">
  <ele>1109.08</ele>
  <time>2026-09-01T20:02:18Z</time>
  <course>6.54</course>
  <speed>0.022360679774997897</speed>
  <fix>3d</fix>
</trkpt>
<trkpt lat="64.1624777" lon="-139.8402246">
  <ele>1109.09</ele>
  <time>2026-09-01T20:02:18Z</time>
  <course>180.78</course>
  <speed>0.0</speed>
  <fix>3d</fix>
</trkpt>
<trkpt lat="64.1624776" lon="-139.8402243">
  <ele>1109.07</ele>
  <time>2026-09-01T20:02:18Z</time>
  <course>6.54</course>
  <speed>0.022360679774997897</speed>
  <fix>3d</fix>
</trkpt>
<trkpt lat="64.1624777" lon="-139.8402246">
  <ele>1109.09</ele>
  <time>2026-09-01T20:02:18Z</time>
  <course>180.78</course>
  <speed>0.0</speed>
  <fix>3d</fix>
</trkpt>
<trkpt lat="64.1624775" lon="-139.8402243">
  <ele>1109.07</ele>
  <time>2026-09-01T20:02:18Z</time>
  <course>6.54</course>
  <speed>0.022360679774997897</speed>
  <fix>3d</fix>
</trkpt>
<trkpt lat="64.1624777" lon="-139.8402246">
  <ele>1109.09</ele>
  <time>2026-09-01T20:02:18Z</time>
  <course>180.78</course>
  <speed>0.0</speed>
  <fix>3d</fix>
</trkpt>
<trkpt lat="64.1624776" lon="-139.8402243">
  <ele>1109.07</ele>
  <time>2026-09-01T20:02:18Z</time>
  <course>6.54</course>
  <speed>0.022360679774997897</speed>
  <fix>3d</fix>
</trkpt>
<trkpt lat="64.1624777" lon="-139.8402246">
  <ele>1109.09</ele>
  <time>2026-09-01T20:02:18Z</time>
  <course>180.78</course>
  <speed>0.0</speed>
  <fix>3d</fix>
</trkpt>
<trkpt lat="64.1624775" lon="-139.8402243">
  <ele>1109.07</ele>
  <time>2026-09-01T20:02:18Z</time>
  <course>6.54</course>
  <speed>0.022360679774997897</speed>
  <fix>3d</fix>
</trkpt>
<trkpt lat="64.1624777" lon="-139.8402246">
  <ele>1109.09</ele>
  <time>2026-09-01T20:02:18Z</time>
  <course>180.78</course>
  <speed>0.0</speed>
  <fix>3d</fix>
</trkpt>
<trkpt lat="64.1624776" lon="-139.8402243">
  <ele>1109.07</ele>
  <time>2026-09-01T20:02:18Z</time>
  <course>6.54</course>
  <speed>0.022360679774997897</speed>
  <fix>3d</fix>
</trkpt>
<trkpt lat="64.1624777" lon="-139.8402246">
  <ele>1109.09</ele>
  <time>2026-09-01T20:02:18Z</time>
  <course>180.78</course>
  <speed>0.0</speed>
  <fix>3d</fix>
</trkpt>
<trkpt lat="64.1624775" lon="-139.8402243">
  <ele>1109.07</ele>
  <time>2026-09-01T20:02:18Z</time>
  <course>6.54</course>
  <speed>0.022360679774997897</speed>
  <fix>3d</fix>
</trkpt>
<trkpt lat="64.1624777" lon="-139.8402246">
  <ele>1109.09</ele>
  <time>2026-09-01T20:02:18Z</time>
  <course>180.78</course>
  <speed>0.0</speed>
  <fix>3d</fix>
</trkpt>
<trkpt lat="64.1624775" lon="-139.8402243">
  <ele>1109.07</ele>
  <time>2026-09-01T20:02:18Z</time>
  <course>6.54</course>
  <speed>0.022360679774997897</speed>
  <fix>3d</fix>
</trkpt>
<trkpt lat="64.1624777" lon="-139.8402246">
  <ele>1109.09</ele>
  <time>2026-09-01T20:02:18Z</time>
  <course>180.78</course>
  <speed>0.0</speed>
  <fix>3d</fix>
</trkpt>
<trkpt lat="64.1624775" lon="-139.8402243">
  <ele>1109.07</ele>
  <time>2026-09-01T20:02:18Z</time>
  <course>6.54</course>
  <speed>0.022360679774997897</speed>
  <fix>3d</fix>
</trkpt>
<trkpt lat="64.1624777" lon="-139.8402246">
  <ele>1109.09</ele>
  <time>2026-09-01T20:02:18Z</time>
  <course>180.78</course>
  <speed>0.0</speed>
  <fix>3d</fix>
</trkpt>
<trkpt lat="64.1624775" lon="-139.8402243">
  <ele>1109.07</ele>
  <time>2026-09-01T20:02:18Z</time>
  <course>6.55</course>
  <speed>0.022360679774997897</speed>
  <fix>3d</fix>
</trkpt>
<trkpt lat="64.1624777" lon="-139.8402246">
  <ele>1109.09</ele>
  <time>2026-09-01T20:02:18Z</time>
  <course>180.78</course>
  <speed>0.0</speed>
  <fix>3d</fix>
</trkpt>
<trkpt lat="64.1624775" lon="-139.8402243">
  <ele>1109.08</ele>
  <time>2026-09-01T20:02:18Z</time>
  <course>6.55</course>
  <speed>0.022360679774997897</speed>
  <fix>3d</fix>
</trkpt>
<trkpt lat="64.1624777" lon="-139.8402246">
  <ele>1109.09</ele>
  <time>2026-09-01T20:02:18Z</time>
  <course>180.78</course>
  <speed>0.0</speed>
  <fix>3d</fix>
</trkpt>
<trkpt lat="64.1624775" lon="-139.8402243">
  <ele>1109.08</ele>
  <time>2026-09-01T20:02:18Z</time>
  <course>6.55</course>
  <speed>0.022360679774997897</speed>
  <fix>3d</fix>
</trkpt>
<trkpt lat="64.1624777" lon="-139.8402246">
  <ele>1109.09</ele>
  <time>2026-09-01T20:02:18Z</time>
  <course>180.78</course>
  <speed>0.0</speed>
  <fix>3d</fix>
</trkpt>
<trkpt lat="64.1624775" lon="-139.8402243">
  <ele>1109.08</ele>
  <time>2026-09-01T20:02:18Z</time>
  <course>6.55</course>
  <speed>0.022360679774997897</speed>
  <fix>3d</fix>
</trkpt>
<trkpt lat="64.1624777" lon="-139.8402246">
  <ele>1109.09</ele>
  <time>2026-09-01T20:02:18Z</time>
  <course>180.78</course>
  <speed>0.0</speed>
  <fix>3d</fix>
</trkpt>
<trkpt lat="64.1624775" lon="-139.8402243">
  <ele>1109.08</ele>
  <time>2026-09-01T20:02:18Z</time>
  <course>6.55</course>
  <speed>0.022360679774997897</speed>
  <fix>3d</fix>
</trkpt>
<trkpt lat="64.1624777" lon="-139.8402246">
  <ele>1109.09</ele>
  <time>2026-09-01T20:02:18Z</time>
  <course>180.78</course>
  <speed>0.0</speed>
  <fix>3d</fix>
</trkpt>
<trkpt lat="64.1624775" lon="-139.8402243">
  <ele>1109.08</ele>
  <time>2026-09-01T20:02:18Z</time>
  <course>6.55</course>
  <speed>0.022360679774997897</speed>
  <fix>3d</fix>
</trkpt>
<trkpt lat="64.1624777" lon="-139.8402246">
  <ele>1109.09</ele>
  <time>2026-09-01T20:02:18Z</time>
  <course>180.78</course>
  <speed>0.0</speed>
  <fix>3d</fix>
</trkpt>
<trkpt lat="64.1624775" lon="-139.8402243">
  <ele>1109.08</ele>
  <time>2026-09-01T20:02:18Z</time>
  <course>6.55</course>
  <speed>0.022360679774997897</speed>
  <fix>3d</fix>
</trkpt>
<trkpt lat="64.1624777" lon="-139.8402246">
  <ele>1109.09</ele>
  <time>2026-09-01T20:02:18Z</time>
  <course>180.78</course>
  <speed>0.0</speed>
  <fix>3d</fix>
</trkpt>
<trkpt lat="64.1624775" lon="-139.8402243">
  <ele>1109.08</ele>
  <time>2026-09-01T20:02:18Z</time>
  <course>6.55</course>
  <speed>0.022360679774997897</speed>
  <fix>3d</fix>
</trkpt>
<trkpt lat="64.1624777" lon="-139.8402246">
  <ele>1109.09</ele>
  <time>2026-09-01T20:02:18Z</time>
  <course>180.78</course>
  <speed>0.0</speed>
  <fix>3d</fix>
</trkpt>
<trkpt lat="64.1624775" lon="-139.8402243">
  <ele>1109.08</ele>
  <time>2026-09-01T20:02:18Z</time>
  <course>6.56</course>
  <speed>0.022360679774997897</speed>
  <fix>3d</fix>
</trkpt>
<trkpt lat="64.1624777" lon="-139.8402246">
  <ele>1109.09</ele>
  <time>2026-09-01T20:02:18Z</time>
  <course>180.78</course>
  <speed>0.0</speed>
  <fix>3d</fix>
</trkpt>
<trkpt lat="64.1624775" lon="-139.8402243">
  <ele>1109.08</ele>
  <time>2026-09-01T20:02:18Z</time>
  <course>6.56</course>
  <speed>0.022360679774997897</speed>
  <fix>3d</fix>
</trkpt>
<trkpt lat="64.1624777" lon="-139.8402246">
  <ele>1109.09</ele>
  <time>2026-09-01T20:02:18Z</time>
  <course>180.78</course>
  <speed>0.0</speed>
  <fix>3d</fix>
</trkpt>
<trkpt lat="64.1624775" lon="-139.8402243">
  <ele>1109.08</ele>
  <time>2026-09-01T20:02:18Z</time>
  <course>6.56</course>
  <speed>0.022360679774997897</speed>
  <fix>3d</fix>
</trkpt>
<trkpt lat="64.1624777" lon="-139.8402246">
  <ele>1109.09</ele>
  <time>2026-09-01T20:02:18Z</time>
  <course>180.78</course>
  <speed>0.0</speed>
  <fix>3d</fix>
</trkpt>
<trkpt lat="64.1624775" lon="-139.8402243">
  <ele>1109.08</ele>
  <time>2026-09-01T20:02:18Z</time>
  <course>6.56</course>
  <speed>0.022360679774997897</speed>
  <fix>3d</fix>
</trkpt>
<trkpt lat="64.1624777" lon="-139.8402246">
  <ele>1109.09</ele>
  <time>2026-09-01T20:02:18Z</time>
  <course>180.78</course>
  <speed>0.0</speed>
  <fix>3d</fix>
</trkpt>
<trkpt lat="64.1624775" lon="-139.8402243">
  <ele>1109.08</ele>
  <time>2026-09-01T20:02:18Z</time>
  <course>6.56</course>
  <speed>0.022360679774997897</speed>
  <fix>3d</fix>
</trkpt>
<trkpt lat="64.1624777" lon="-139.8402246">
  <ele>1109.09</ele>
  <time>2026-09-01T20:02:18Z</time>
  <course>180.78</course>
  <speed>0.0</speed>
  <fix>3d</fix>
</trkpt>
<trkpt lat="64.1624775" lon="-139.8402243">
  <ele>1109.08</ele>
  <time>2026-09-01T20:02:18Z</time>
  <course>6.56</course>
  <speed>0.022360679774997897</speed>
  <fix>3d</fix>
</trkpt>
<trkpt lat="64.1624777" lon="-139.8402246">
  <ele>1109.09</ele>
  <time>2026-09-01T20:02:18Z</time>
  <course>180.78</course>
  <speed>0.0</speed>
  <fix>3d</fix>
</trkpt>
<trkpt lat="64.1624775" lon="-139.8402243">
  <ele>1109.08</ele>
  <time>2026-09-01T20:02:18Z</time>
  <course>6.56</course>
  <speed>0.022360679774997897</speed>
  <fix>3d</fix>
</trkpt>
<trkpt lat="64.1624777" lon="-139.8402246">
  <ele>1109.09</ele>
  <time>2026-09-01T20:02:18Z</time>
  <course>180.78</course>
  <speed>0.0</speed>
  <fix>3d</fix>
</trkpt>
<trkpt lat="64.1624775" lon="-139.8402243">
  <ele>1109.08</ele>
  <time>2026-09-01T20:02:18Z</time>
  <course>6.56</course>
  <speed>0.022360679774997897</speed>
  <fix>3d</fix>
</trkpt>
<trkpt lat="64.1624777" lon="-139.8402246">
  <ele>1109.09</ele>
  <time>2026-09-01T20:02:18Z</time>
  <course>180.78</course>
  <speed>0.0</speed>
  <fix>3d</fix>
</trkpt>
<trkpt lat="64.1624775" lon="-139.8402243">
  <ele>1109.08</ele>
  <time>2026-09-01T20:02:18Z</time>
  <course>6.56</course>
  <speed>0.022360679774997897</speed>
  <fix>3d</fix>
</trkpt>
<trkpt lat="64.1624777" lon="-139.8402246">
  <ele>1109.09</ele>
  <time>2026-09-01T20:02:18Z</time>
  <course>180.78</course>
  <speed>0.0</speed>
  <fix>3d</fix>
</trkpt>
<trkpt lat="64.1624775" lon="-139.8402243">
  <ele>1109.07</ele>
  <time>2026-09-01T20:02:18Z</time>
  <course>6.57</course>
  <speed>0.022360679774997897</speed>
  <fix>3d</fix>
</trkpt>
<trkpt lat="64.1624777" lon="-139.8402246">
  <ele>1109.09</ele>
  <time>2026-09-01T20:02:18Z</time>
  <course>180.78</course>
  <speed>0.0</speed>
  <fix>3d</fix>
</trkpt>
<trkpt lat="64.1624775" lon="-139.8402243">
  <ele>1109.08</ele>
  <time>2026-09-01T20:02:18Z</time>
  <course>6.57</course>
  <speed>0.022360679774997897</speed>
  <fix>3d</fix>
</trkpt>
<trkpt lat="64.1624777" lon="-139.8402246">
  <ele>1109.09</ele>
  <time>2026-09-01T20:02:18Z</time>
  <course>180.78</course>
  <speed>0.0</speed>
  <fix>3d</fix>
</trkpt>
<trkpt lat="64.1624775" lon="-139.8402243">
  <ele>1109.09</ele>
  <time>2026-09-01T20:02:18Z</time>
  <course>6.57</course>
  <speed>0.022360679774997897</speed>
  <fix>3d</fix>
</trkpt>
<trkpt lat="64.1624777" lon="-139.8402246">
  <ele>1109.09</ele>
  <time>2026-09-01T20:02:18Z</time>
  <course>180.78</course>
  <speed>0.0</speed>
  <fix>3d</fix>
</trkpt>
<trkpt lat="64.1624775" lon="-139.8402243">
  <ele>1109.08</ele>
  <time>2026-09-01T20:02:18Z</time>
  <course>6.57</course>
  <speed>0.022360679774997897</speed>
  <fix>3d</fix>
</trkpt>
<trkpt lat="64.1624777" lon="-139.8402246">
  <ele>1109.09</ele>
  <time>2026-09-01T20:02:18Z</time>
  <course>180.78</course>
  <speed>0.0</speed>
  <fix>3d</fix>
</trkpt>
<trkpt lat="64.1624775" lon="-139.8402243">
  <ele>1109.08</ele>
  <time>2026-09-01T20:02:18Z</time>
  <course>6.57</course>
  <speed>0.022360679774997897</speed>
  <fix>3d</fix>
</trkpt>
<trkpt lat="64.1624777" lon="-139.8402246">
  <ele>1109.09</ele>
  <time>2026-09-01T20:02:18Z</time>
  <course>180.78</course>
  <speed>0.0</speed>
  <fix>3d</fix>
</trkpt>
<trkpt lat="64.1624775" lon="-139.8402243">
  <ele>1109.08</ele>
  <time>2026-09-01T20:02:18Z</time>
  <course>6.57</course>
  <speed>0.022360679774997897</speed>
  <fix>3d</fix>
</trkpt>
<trkpt lat="64.1624777" lon="-139.8402246">
  <ele>1109.09</ele>
  <time>2026-09-01T20:02:18Z</time>
  <course>180.78</course>
  <speed>0.0</speed>
  <fix>3d</fix>
</trkpt>
<trkpt lat="64.1624775" lon="-139.8402243">
  <ele>1109.08</ele>
  <time>2026-09-01T20:02:18Z</time>
  <course>6.57</course>
  <speed>0.022360679774997897</speed>
  <fix>3d</fix>
</trkpt>
<trkpt lat="64.1624777" lon="-139.8402246">
  <ele>1109.09</ele>
  <time>2026-09-01T20:02:18Z</time>
  <course>180.78</course>
  <speed>0.0</speed>
  <fix>3d</fix>
</trkpt>
<trkpt lat="64.1624775" lon="-139.8402243">
  <ele>1109.08</ele>
  <time>2026-09-01T20:02:18Z</time>
  <course>6.57</course>
  <speed>0.022360679774997897</speed>
  <fix>3d</fix>
</trkpt>
<trkpt lat="64.1624777" lon="-139.8402246">
  <ele>1109.09</ele>
  <time>2026-09-01T20:02:18Z</time>
  <course>180.78</course>
  <speed>0.0</speed>
  <fix>3d</fix>
</trkpt>
<trkpt lat="64.1624775" lon="-139.8402243">
  <ele>1109.08</ele>
  <time>2026-09-01T20:02:18Z</time>
  <course>6.57</course>
  <speed>0.022360679774997897</speed>
  <fix>3d</fix>
</trkpt>
<trkpt lat="64.1624777" lon="-139.8402246">
  <ele>1109.09</ele>
  <time>2026-09-01T20:02:18Z</time>
  <course>180.78</course>
  <speed>0.0</speed>
  <fix>3d</fix>
</trkpt>
<trkpt lat="64.1624775" lon="-139.8402243">
  <ele>1109.08</ele>
  <time>2026-09-01T20:02:18Z</time>
  <course>6.57</course>
  <speed>0.022360679774997897</speed>
  <fix>3d</fix>
</trkpt>
<trkpt lat="64.1624777" lon="-139.8402246">
  <ele>1109.09</ele>
  <time>2026-09-01T20:02:18Z</time>
  <course>180.78</course>
  <speed>0.0</speed>
  <fix>3d</fix>
</trkpt>
<trkpt lat="64.1624775" lon="-139.8402243">
  <ele>1109.08</ele>
  <time>2026-09-01T20:02:18Z</time>
  <course>6.58</course>
  <speed>0.022360679774997897</speed>
  <fix>3d</fix>
</trkpt>
<trkpt lat="64.1624777" lon="-139.8402246">
  <ele>1109.09</ele>
  <time>2026-09-01T20:02:18Z</time>
  <course>180.78</course>
  <speed>0.0</speed>
  <fix>3d</fix>
</trkpt>
<trkpt lat="64.1624775" lon="-139.8402243">
  <ele>1109.07</ele>
  <time>2026-09-01T20:02:18Z</time>
  <course>6.58</course>
  <speed>0.022360679774997897</speed>
  <fix>3d</fix>
</trkpt>
<trkpt lat="64.1624777" lon="-139.8402246">
  <ele>1109.09</ele>
  <time>2026-09-01T20:02:18Z</time>
  <course>180.78</course>
  <speed>0.0</speed>
  <fix>3d</fix>
</trkpt>
<trkpt lat="64.1624775" lon="-139.8402243">
  <ele>1109.07</ele>
  <time>2026-09-01T20:02:18Z</time>
  <course>6.58</course>
  <speed>0.022360679774997897</speed>
  <fix>3d</fix>
</trkpt>
<trkpt lat="64.1624777" lon="-139.8402246">
  <ele>1109.09</ele>
  <time>2026-09-01T20:02:18Z</time>
  <course>180.78</course>
  <speed>0.0</speed>
  <fix>3d</fix>
</trkpt>
<trkpt lat="64.1624775" lon="-139.8402243">
  <ele>1109.07</ele>
  <time>2026-09-01T20:02:18Z</time>
  <course>6.58</course>
  <speed>0.022360679774997897</speed>
  <fix>3d</fix>
</trkpt>
<trkpt lat="64.1624777" lon="-139.8402246">
  <ele>1109.09</ele>
  <time>2026-09-01T20:02:18Z</time>
  <course>180.78</course>
  <speed>0.0</speed>
  <fix>3d</fix>
</trkpt>
<trkpt lat="64.1624775" lon="-139.8402243">
  <ele>1109.07</ele>
  <time>2026-09-01T20:02:18Z</time>
  <course>6.58</course>
  <speed>0.022360679774997897</speed>
  <fix>3d</fix>
</trkpt>
<trkpt lat="64.1624777" lon="-139.8402246">
  <ele>1109.09</ele>
  <time>2026-09-01T20:02:18Z</time>
  <course>180.78</course>
  <speed>0.0</speed>
  <fix>3d</fix>
</trkpt>
<trkpt lat="64.1624775" lon="-139.8402243">
  <ele>1109.07</ele>
  <time>2026-09-01T20:02:18Z</time>
  <course>6.58</course>
  <speed>0.022360679774997897</speed>
  <fix>3d</fix>
</trkpt>
<trkpt lat="64.1624777" lon="-139.8402246">
  <ele>1109.09</ele>
  <time>2026-09-01T20:02:18Z</time>
  <course>180.78</course>
  <speed>0.0</speed>
  <fix>3d</fix>
</trkpt>
<trkpt lat="64.1624775" lon="-139.8402243">
  <ele>1109.07</ele>
  <time>2026-09-01T20:02:18Z</time>
  <course>6.58</course>
  <speed>0.022360679774997897</speed>
  <fix>3d</fix>
</trkpt>
<trkpt lat="64.1624777" lon="-139.8402246">
  <ele>1109.09</ele>
  <time>2026-09-01T20:02:18Z</time>
  <course>180.78</course>
  <speed>0.0</speed>
  <fix>3d</fix>
</trkpt>
<trkpt lat="64.1624775" lon="-139.8402243">
  <ele>1109.06</ele>
  <time>2026-09-01T20:02:18Z</time>
  <course>6.58</course>
  <speed>0.022360679774997897</speed>
  <fix>3d</fix>
</trkpt>
<trkpt lat="64.1624777" lon="-139.8402246">
  <ele>1109.09</ele>
  <time>2026-09-01T20:02:18Z</time>
  <course>180.78</course>
  <speed>0.0</speed>
  <fix>3d</fix>
</trkpt>
<trkpt lat="64.1624775" lon="-139.8402243">
  <ele>1109.06</ele>
  <time>2026-09-01T20:02:18Z</time>
  <course>6.59</course>
  <speed>0.022360679774997897</speed>
  <fix>3d</fix>
</trkpt>
<trkpt lat="64.1624777" lon="-139.8402246">
  <ele>1109.09</ele>
  <time>2026-09-01T20:02:18Z</time>
  <course>180.78</course>
  <speed>0.0</speed>
  <fix>3d</fix>
</trkpt>
<trkpt lat="64.1624775" lon="-139.8402243">
  <ele>1109.06</ele>
  <time>2026-09-01T20:02:18Z</time>
  <course>6.59</course>
  <speed>0.022360679774997897</speed>
  <fix>3d</fix>
</trkpt>
<trkpt lat="64.1624777" lon="-139.8402246">
  <ele>1109.09</ele>
  <time>2026-09-01T20:02:18Z</time>
  <course>180.78</course>
  <speed>0.0</speed>
  <fix>3d</fix>
</trkpt>
<trkpt lat="64.1624775" lon="-139.8402243">
  <ele>1109.06</ele>
  <time>2026-09-01T20:02:18Z</time>
  <course>6.59</course>
  <speed>0.022360679774997897</speed>
  <fix>3d</fix>
</trkpt>
<trkpt lat="64.1624777" lon="-139.8402246">
  <ele>1109.09</ele>
  <time>2026-09-01T20:02:18Z</time>
  <course>180.78</course>
  <speed>0.0</speed>
  <fix>3d</fix>
</trkpt>
<trkpt lat="64.1624775" lon="-139.8402243">
  <ele>1109.06</ele>
  <time>2026-09-01T20:02:18Z</time>
  <course>6.59</course>
  <speed>0.022360679774997897</speed>
  <fix>3d</fix>
</trkpt>
<trkpt lat="64.1624777" lon="-139.8402246">
  <ele>1109.09</ele>
  <time>2026-09-01T20:02:18Z</time>
  <course>180.78</course>
  <speed>0.0</speed>
  <fix>3d</fix>
</trkpt>
<trkpt lat="64.1624775" lon="-139.8402243">
  <ele>1109.06</ele>
  <time>2026-09-01T20:02:18Z</time>
  <course>6.59</course>
  <speed>0.022360679774997897</speed>
  <fix>3d</fix>
</trkpt>
<trkpt lat="64.1624777" lon="-139.8402246">
  <ele>1109.09</ele>
  <time>2026-09-01T20:02:18Z</time>
  <course>180.78</course>
  <speed>0.0</speed>
  <fix>3d</fix>
</trkpt>
<trkpt lat="64.1624775" lon="-139.8402243">
  <ele>1109.06</ele>
  <time>2026-09-01T20:02:18Z</time>
  <course>6.59</course>
  <speed>0.022360679774997897</speed>
  <fix>3d</fix>
</trkpt>
<trkpt lat="64.1624777" lon="-139.8402246">
  <ele>1109.09</ele>
  <time>2026-09-01T20:02:18Z</time>
  <course>180.78</course>
  <speed>0.0</speed>
  <fix>3d</fix>
</trkpt>
<trkpt lat="64.1624775" lon="-139.8402243">
  <ele>1109.06</ele>
  <time>2026-09-01T20:02:18Z</time>
  <course>6.59</course>
  <speed>0.022360679774997897</speed>
  <fix>3d</fix>
</trkpt>
<trkpt lat="64.1624777" lon="-139.8402246">
  <ele>1109.09</ele>
  <time>2026-09-01T20:02:18Z</time>
  <course>180.78</course>
  <speed>0.0</speed>
  <fix>3d</fix>
</trkpt>
<trkpt lat="64.1624775" lon="-139.8402243">
  <ele>1109.06</ele>
  <time>2026-09-01T20:02:18Z</time>
  <course>6.59</course>
  <speed>0.022360679774997897</speed>
  <fix>3d</fix>
</trkpt>
<trkpt lat="64.1624777" lon="-139.8402246">
  <ele>1109.09</ele>
  <time>2026-09-01T20:02:18Z</time>
  <course>180.78</course>
  <speed>0.0</speed>
  <fix>3d</fix>
</trkpt>
<trkpt lat="64.1624775" lon="-139.8402243">
  <ele>1109.06</ele>
  <time>2026-09-01T20:02:18Z</time>
  <course>6.59</course>
  <speed>0.022360679774997897</speed>
  <fix>3d</fix>
</trkpt>
<trkpt lat="64.1624777" lon="-139.8402246">
  <ele>1109.09</ele>
  <time>2026-09-01T20:02:18Z</time>
  <course>180.78</course>
  <speed>0.0</speed>
  <fix>3d</fix>
</trkpt>
<trkpt lat="64.1624775" lon="-139.8402243">
  <ele>1109.05</ele>
  <time>2026-09-01T20:02:18Z</time>
  <course>6.6</course>
  <speed>0.022360679774997897</speed>
  <fix>3d</fix>
</trkpt>
<trkpt lat="64.1624777" lon="-139.8402246">
  <ele>1109.09</ele>
  <time>2026-09-01T20:02:18Z</time>
  <course>180.78</course>
  <speed>0.0</speed>
  <fix>3d</fix>
</trkpt>
<trkpt lat="64.1624775" lon="-139.8402243">
  <ele>1109.05</ele>
  <time>2026-09-01T20:02:18Z</time>
  <course>6.6</course>
  <speed>0.022360679774997897</speed>
  <fix>3d</fix>
</trkpt>
<trkpt lat="64.1624777" lon="-139.8402246">
  <ele>1109.09</ele>
  <time>2026-09-01T20:02:18Z</time>
  <course>180.78</course>
  <speed>0.0</speed>
  <fix>3d</fix>
</trkpt>
<trkpt lat="64.1624775" lon="-139.8402243">
  <ele>1109.05</ele>
  <time>2026-09-01T20:02:18Z</time>
  <course>6.6</course>
  <speed>0.022360679774997897</speed>
  <fix>3d</fix>
</trkpt>
<trkpt lat="64.1624777" lon="-139.8402246">
  <ele>1109.09</ele>
  <time>2026-09-01T20:02:18Z</time>
  <course>180.78</course>
  <speed>0.0</speed>
  <fix>3d</fix>
</trkpt>
<trkpt lat="64.1624775" lon="-139.8402243">
  <ele>1109.05</ele>
  <time>2026-09-01T20:02:18Z</time>
  <course>6.6</course>
  <speed>0.022360679774997897</speed>
  <fix>3d</fix>
</trkpt>
<trkpt lat="64.1624777" lon="-139.8402246">
  <ele>1109.09</ele>
  <time>2026-09-01T20:02:18Z</time>
  <course>180.78</course>
  <speed>0.0</speed>
  <fix>3d</fix>
</trkpt>
<trkpt lat="64.1624775" lon="-139.8402243">
  <ele>1109.05</ele>
  <time>2026-09-01T20:02:18Z</time>
  <course>6.6</course>
  <speed>0.022360679774997897</speed>
  <fix>3d</fix>
</trkpt>
<trkpt lat="64.1624777" lon="-139.8402246">
  <ele>1109.09</ele>
  <time>2026-09-01T20:02:18Z</time>
  <course>180.78</course>
  <speed>0.0</speed>
  <fix>3d</fix>
</trkpt>
<trkpt lat="64.1624775" lon="-139.8402243">
  <ele>1109.05</ele>
  <time>2026-09-01T20:02:19Z</time>
  <course>6.6</course>
  <speed>0.022360679774997897</speed>
  <fix>3d</fix>
</trkpt>
<trkpt lat="64.1624777" lon="-139.8402246">
  <ele>1109.09</ele>
  <time>2026-09-01T20:02:19Z</time>
  <course>180.78</course>
  <speed>0.0</speed>
  <fix>3d</fix>
</trkpt>
<trkpt lat="64.1624775" lon="-139.8402243">
  <ele>1109.05</ele>
  <time>2026-09-01T20:02:19Z</time>
  <course>6.6</course>
  <speed>0.022360679774997897</speed>
  <fix>3d</fix>
</trkpt>
<trkpt lat="64.1624777" lon="-139.8402246">
  <ele>1109.09</ele>
  <time>2026-09-01T20:02:19Z</time>
  <course>180.78</course>
  <speed>0.0</speed>
  <fix>3d</fix>
</trkpt>
<trkpt lat="64.1624775" lon="-139.8402243">
  <ele>1109.05</ele>
  <time>2026-09-01T20:02:19Z</time>
  <course>6.6</course>
  <speed>0.022360679774997897</speed>
  <fix>3d</fix>
</trkpt>
<trkpt lat="64.1624777" lon="-139.8402246">
  <ele>1109.09</ele>
  <time>2026-09-01T20:02:19Z</time>
  <course>180.78</course>
  <speed>0.0</speed>
  <fix>3d</fix>
</trkpt>
<trkpt lat="64.1624775" lon="-139.8402243">
  <ele>1109.05</ele>
  <time>2026-09-01T20:02:19Z</time>
  <course>6.6</course>
  <speed>0.022360679774997897</speed>
  <fix>3d</fix>
</trkpt>
<trkpt lat="64.1624777" lon="-139.8402246">
  <ele>1109.09</ele>
  <time>2026-09-01T20:02:19Z</time>
  <course>180.78</course>
  <speed>0.0</speed>
  <fix>3d</fix>
</trkpt>
<trkpt lat="64.1624775" lon="-139.8402243">
  <ele>1109.05</ele>
  <time>2026-09-01T20:02:19Z</time>
  <course>6.61</course>
  <speed>0.022360679774997897</speed>
  <fix>3d</fix>
</trkpt>
<trkpt lat="64.1624777" lon="-139.8402246">
  <ele>1109.09</ele>
  <time>2026-09-01T20:02:19Z</time>
  <course>180.78</course>
  <speed>0.0</speed>
  <fix>3d</fix>
</trkpt>
<trkpt lat="64.1624775" lon="-139.8402243">
  <ele>1109.04</ele>
  <time>2026-09-01T20:02:19Z</time>
  <course>6.61</course>
  <speed>0.022360679774997897</speed>
  <fix>3d</fix>
</trkpt>
<trkpt lat="64.1624777" lon="-139.8402246">
  <ele>1109.09</ele>
  <time>2026-09-01T20:02:19Z</time>
  <course>180.78</course>
  <speed>0.0</speed>
  <fix>3d</fix>
</trkpt>
<trkpt lat="64.1624775" lon="-139.8402243">
  <ele>1109.04</ele>
  <time>2026-09-01T20:02:19Z</time>
  <course>6.61</course>
  <speed>0.022360679774997897</speed>
  <fix>3d</fix>
</trkpt>
<trkpt lat="64.1624777" lon="-139.8402246">
  <ele>1109.09</ele>
  <time>2026-09-01T20:02:19Z</time>
  <course>180.78</course>
  <speed>0.0</speed>
  <fix>3d</fix>
</trkpt>
<trkpt lat="64.1624775" lon="-139.8402243">
  <ele>1109.04</ele>
  <time>2026-09-01T20:02:19Z</time>
  <course>6.61</course>
  <speed>0.022360679774997897</speed>
  <fix>3d</fix>
</trkpt>
<trkpt lat="64.1624777" lon="-139.8402246">
  <ele>1109.09</ele>
  <time>2026-09-01T20:02:19Z</time>
  <course>180.78</course>
  <speed>0.0</speed>
  <fix>3d</fix>
</trkpt>
<trkpt lat="64.1624775" lon="-139.8402243">
  <ele>1109.04</ele>
  <time>2026-09-01T20:02:19Z</time>
  <course>6.61</course>
  <speed>0.022360679774997897</speed>
  <fix>3d</fix>
</trkpt>
<trkpt lat="64.1624777" lon="-139.8402246">
  <ele>1109.09</ele>
  <time>2026-09-01T20:02:19Z</time>
  <course>180.78</course>
  <speed>0.0</speed>
  <fix>3d</fix>
</trkpt>
<trkpt lat="64.1624775" lon="-139.8402243">
  <ele>1109.04</ele>
  <time>2026-09-01T20:02:19Z</time>
  <course>6.61</course>
  <speed>0.022360679774997897</speed>
  <fix>3d</fix>
</trkpt>
<trkpt lat="64.1624777" lon="-139.8402246">
  <ele>1109.09</ele>
  <time>2026-09-01T20:02:19Z</time>
  <course>180.78</course>
  <speed>0.0</speed>
  <fix>3d</fix>
</trkpt>
<trkpt lat="64.1624775" lon="-139.8402243">
  <ele>1109.04</ele>
  <time>2026-09-01T20:02:19Z</time>
  <course>6.61</course>
  <speed>0.022360679774997897</speed>
  <fix>3d</fix>
</trkpt>
<trkpt lat="64.1624777" lon="-139.8402246">
  <ele>1109.09</ele>
  <time>2026-09-01T20:02:19Z</time>
  <course>180.78</course>
  <speed>0.0</speed>
  <fix>3d</fix>
</trkpt>
<trkpt lat="64.1624775" lon="-139.8402243">
  <ele>1109.04</ele>
  <time>2026-09-01T20:02:19Z</time>
  <course>6.61</course>
  <speed>0.022360679774997897</speed>
  <fix>3d</fix>
</trkpt>
<trkpt lat="64.1624777" lon="-139.8402246">
  <ele>1109.09</ele>
  <time>2026-09-01T20:02:19Z</time>
  <course>180.78</course>
  <speed>0.0</speed>
  <fix>3d</fix>
</trkpt>
<trkpt lat="64.1624775" lon="-139.8402243">
  <ele>1109.03</ele>
  <time>2026-09-01T20:02:19Z</time>
  <course>6.61</course>
  <speed>0.022360679774997897</speed>
  <fix>3d</fix>
</trkpt>
<trkpt lat="64.1624777" lon="-139.8402246">
  <ele>1109.09</ele>
  <time>2026-09-01T20:02:19Z</time>
  <course>180.78</course>
  <speed>0.0</speed>
  <fix>3d</fix>
</trkpt>
<trkpt lat="64.1624775" lon="-139.8402243">
  <ele>1109.03</ele>
  <time>2026-09-01T20:02:19Z</time>
  <course>6.62</course>
  <speed>0.022360679774997897</speed>
  <fix>3d</fix>
</trkpt>
<trkpt lat="64.1624777" lon="-139.8402246">
  <ele>1109.09</ele>
  <time>2026-09-01T20:02:19Z</time>
  <course>180.78</course>
  <speed>0.0</speed>
  <fix>3d</fix>
</trkpt>
<trkpt lat="64.1624775" lon="-139.8402243">
  <ele>1109.03</ele>
  <time>2026-09-01T20:02:19Z</time>
  <course>6.62</course>
  <speed>0.022360679774997897</speed>
  <fix>3d</fix>
</trkpt>
<trkpt lat="64.1624777" lon="-139.8402246">
  <ele>1109.09</ele>
  <time>2026-09-01T20:02:19Z</time>
  <course>180.78</course>
  <speed>0.0</speed>
  <fix>3d</fix>
</trkpt>
<trkpt lat="64.1624775" lon="-139.8402243">
  <ele>1109.03</ele>
  <time>2026-09-01T20:02:19Z</time>
  <course>6.62</course>
  <speed>0.022360679774997897</speed>
  <fix>3d</fix>
</trkpt>
<trkpt lat="64.1624777" lon="-139.8402246">
  <ele>1109.09</ele>
  <time>2026-09-01T20:02:19Z</time>
  <course>180.78</course>
  <speed>0.0</speed>
  <fix>3d</fix>
</trkpt>
<trkpt lat="64.1624775" lon="-139.8402243">
  <ele>1109.03</ele>
  <time>2026-09-01T20:02:19Z</time>
  <course>6.62</course>
  <speed>0.022360679774997897</speed>
  <fix>3d</fix>
</trkpt>
<trkpt lat="64.1624777" lon="-139.8402246">
  <ele>1109.09</ele>
  <time>2026-09-01T20:02:19Z</time>
  <course>180.78</course>
  <speed>0.0</speed>
  <fix>3d</fix>
</trkpt>
<trkpt lat="64.1624775" lon="-139.8402243">
  <ele>1109.03</ele>
  <time>2026-09-01T20:02:19Z</time>
  <course>6.62</course>
  <speed>0.022360679774997897</speed>
  <fix>3d</fix>
</trkpt>
<trkpt lat="64.1624777" lon="-139.8402246">
  <ele>1109.09</ele>
  <time>2026-09-01T20:02:19Z</time>
  <course>180.78</course>
  <speed>0.0</speed>
  <fix>3d</fix>
</trkpt>
<trkpt lat="64.1624775" lon="-139.8402243">
  <ele>1109.03</ele>
  <time>2026-09-01T20:02:19Z</time>
  <course>6.62</course>
  <speed>0.022360679774997897</speed>
  <fix>3d</fix>
</trkpt>
<trkpt lat="64.1624777" lon="-139.8402246">
  <ele>1109.09</ele>
  <time>2026-09-01T20:02:19Z</time>
  <course>180.78</course>
  <speed>0.0</speed>
  <fix>3d</fix>
</trkpt>
<trkpt lat="64.1624775" lon="-139.8402243">
  <ele>1109.03</ele>
  <time>2026-09-01T20:02:19Z</time>
  <course>6.62</course>
  <speed>0.022360679774997897</speed>
  <fix>3d</fix>
</trkpt>
<trkpt lat="64.1624777" lon="-139.8402246">
  <ele>1109.09</ele>
  <time>2026-09-01T20:02:19Z</time>
  <course>180.78</course>
  <speed>0.0</speed>
  <fix>3d</fix>
</trkpt>
<trkpt lat="64.1624775" lon="-139.8402243">
  <ele>1109.03</ele>
  <time>2026-09-01T20:02:19Z</time>
  <course>6.62</course>
  <speed>0.022360679774997897</speed>
  <fix>3d</fix>
</trkpt>
<trkpt lat="64.1624777" lon="-139.8402246">
  <ele>1109.09</ele>
  <time>2026-09-01T20:02:19Z</time>
  <course>180.78</course>
  <speed>0.0</speed>
  <fix>3d</fix>
</trkpt>
<trkpt lat="64.1624775" lon="-139.8402243">
  <ele>1109.03</ele>
  <time>2026-09-01T20:02:19Z</time>
  <course>6.62</course>
  <speed>0.022360679774997897</speed>
  <fix>3d</fix>
</trkpt>
<trkpt lat="64.1624777" lon="-139.8402246">
  <ele>1109.09</ele>
  <time>2026-09-01T20:02:19Z</time>
  <course>180.78</course>
  <speed>0.0</speed>
  <fix>3d</fix>
</trkpt>
<trkpt lat="64.1624775" lon="-139.8402243">
  <ele>1109.03</ele>
  <time>2026-09-01T20:02:19Z</time>
  <course>6.63</course>
  <speed>0.022360679774997897</speed>
  <fix>3d</fix>
</trkpt>
<trkpt lat="64.1624777" lon="-139.8402246">
  <ele>1109.09</ele>
  <time>2026-09-01T20:02:19Z</time>
  <course>180.78</course>
  <speed>0.0</speed>
  <fix>3d</fix>
</trkpt>
<trkpt lat="64.1624775" lon="-139.8402243">
  <ele>1109.04</ele>
  <time>2026-09-01T20:02:19Z</time>
  <course>6.63</course>
  <speed>0.022360679774997897</speed>
  <fix>3d</fix>
</trkpt>
<trkpt lat="64.1624777" lon="-139.8402246">
  <ele>1109.09</ele>
  <time>2026-09-01T20:02:19Z</time>
  <course>180.78</course>
  <speed>0.0</speed>
  <fix>3d</fix>
</trkpt>
<trkpt lat="64.1624775" lon="-139.8402243">
  <ele>1109.04</ele>
  <time>2026-09-01T20:02:19Z</time>
  <course>6.63</course>
  <speed>0.022360679774997897</speed>
  <fix>3d</fix>
</trkpt>
<trkpt lat="64.1624777" lon="-139.8402246">
  <ele>1109.09</ele>
  <time>2026-09-01T20:02:19Z</time>
  <course>180.78</course>
  <speed>0.0</speed>
  <fix>3d</fix>
</trkpt>
<trkpt lat="64.1624775" lon="-139.8402243">
  <ele>1109.04</ele>
  <time>2026-09-01T20:02:19Z</time>
  <course>6.63</course>
  <speed>0.022360679774997897</speed>
  <fix>3d</fix>
</trkpt>
<trkpt lat="64.1624777" lon="-139.8402246">
  <ele>1109.09</ele>
  <time>2026-09-01T20:02:19Z</time>
  <course>180.78</course>
  <speed>0.0</speed>
  <fix>3d</fix>
</trkpt>
<trkpt lat="64.1624775" lon="-139.8402243">
  <ele>1109.04</ele>
  <time>2026-09-01T20:02:19Z</time>
  <course>6.63</course>
  <speed>0.022360679774997897</speed>
  <fix>3d</fix>
</trkpt>
<trkpt lat="64.1624777" lon="-139.8402246">
  <ele>1109.09</ele>
  <time>2026-09-01T20:02:19Z</time>
  <course>180.78</course>
  <speed>0.0</speed>
  <fix>3d</fix>
</trkpt>
<trkpt lat="64.1624775" lon="-139.8402243">
  <ele>1109.04</ele>
  <time>2026-09-01T20:02:19Z</time>
  <course>6.63</course>
  <speed>0.022360679774997897</speed>
  <fix>3d</fix>
</trkpt>
<trkpt lat="64.1624777" lon="-139.8402246">
  <ele>1109.09</ele>
  <time>2026-09-01T20:02:19Z</time>
  <course>180.78</course>
  <speed>0.0</speed>
  <fix>3d</fix>
</trkpt>
<trkpt lat="64.1624775" lon="-139.8402243">
  <ele>1109.04</ele>
  <time>2026-09-01T20:02:19Z</time>
  <course>6.63</course>
  <speed>0.022360679774997897</speed>
  <fix>3d</fix>
</trkpt>
<trkpt lat="64.1624777" lon="-139.8402246">
  <ele>1109.09</ele>
  <time>2026-09-01T20:02:19Z</time>
  <course>180.78</course>
  <speed>0.0</speed>
  <fix>3d</fix>
</trkpt>
<trkpt lat="64.1624775" lon="-139.8402243">
  <ele>1109.09</ele>
  <time>2026-09-01T20:02:19Z</time>
  <course>6.63</course>
  <speed>0.022360679774997897</speed>
  <fix>3d</fix>
</trkpt>
<trkpt lat="64.1624777" lon="-139.8402246">
  <ele>1109.09</ele>
  <time>2026-09-01T20:02:19Z</time>
  <course>180.78</course>
  <speed>0.0</speed>
  <fix>3d</fix>
</trkpt>
<trkpt lat="64.1624775" lon="-139.8402243">
  <ele>1109.09</ele>
  <time>2026-09-01T20:02:19Z</time>
  <course>6.63</course>
  <speed>0.022360679774997897</speed>
  <fix>3d</fix>
</trkpt>
<trkpt lat="64.1624777" lon="-139.8402246">
  <ele>1109.09</ele>
  <time>2026-09-01T20:02:19Z</time>
  <course>180.78</course>
  <speed>0.0</speed>
  <fix>3d</fix>
</trkpt>
<trkpt lat="64.1624775" lon="-139.8402243">
  <ele>1109.08</ele>
  <time>2026-09-01T20:02:19Z</time>
  <course>6.63</course>
  <speed>0.022360679774997897</speed>
  <fix>3d</fix>
</trkpt>
<trkpt lat="64.1624777" lon="-139.8402246">
  <ele>1109.09</ele>
  <time>2026-09-01T20:02:19Z</time>
  <course>180.78</course>
  <speed>0.0</speed>
  <fix>3d</fix>
</trkpt>
<trkpt lat="64.1624775" lon="-139.8402243">
  <ele>1109.08</ele>
  <time>2026-09-01T20:02:19Z</time>
  <course>6.64</course>
  <speed>0.022360679774997897</speed>
  <fix>3d</fix>
</trkpt>
<trkpt lat="64.1624777" lon="-139.8402246">
  <ele>1109.09</ele>
  <time>2026-09-01T20:02:19Z</time>
  <course>180.78</course>
  <speed>0.0</speed>
  <fix>3d</fix>
</trkpt>
<trkpt lat="64.1624775" lon="-139.8402243">
  <ele>1109.08</ele>
  <time>2026-09-01T20:02:19Z</time>
  <course>6.64</course>
  <speed>0.022360679774997897</speed>
  <fix>3d</fix>
</trkpt>
<trkpt lat="64.1624777" lon="-139.8402246">
  <ele>1109.09</ele>
  <time>2026-09-01T20:02:19Z</time>
  <course>180.78</course>
  <speed>0.0</speed>
  <fix>3d</fix>
</trkpt>
<trkpt lat="64.1624775" lon="-139.8402243">
  <ele>1109.08</ele>
  <time>2026-09-01T20:02:19Z</time>
  <course>6.64</course>
  <speed>0.022360679774997897</speed>
  <fix>3d</fix>
</trkpt>
<trkpt lat="64.1624777" lon="-139.8402246">
  <ele>1109.09</ele>
  <time>2026-09-01T20:02:19Z</time>
  <course>180.78</course>
  <speed>0.0</speed>
  <fix>3d</fix>
</trkpt>
<trkpt lat="64.1624775" lon="-139.8402243">
  <ele>1109.08</ele>
  <time>2026-09-01T20:02:19Z</time>
  <course>6.64</course>
  <speed>0.022360679774997897</speed>
  <fix>3d</fix>
</trkpt>
<trkpt lat="64.1624777" lon="-139.8402246">
  <ele>1109.09</ele>
  <time>2026-09-01T20:02:19Z</time>
  <course>180.78</course>
  <speed>0.0</speed>
  <fix>3d</fix>
</trkpt>
<trkpt lat="64.1624775" lon="-139.8402243">
  <ele>1109.08</ele>
  <time>2026-09-01T20:02:19Z</time>
  <course>6.64</course>
  <speed>0.022360679774997897</speed>
  <fix>3d</fix>
</trkpt>
<trkpt lat="64.1624777" lon="-139.8402246">
  <ele>1109.09</ele>
  <time>2026-09-01T20:02:19Z</time>
  <course>180.78</course>
  <speed>0.0</speed>
  <fix>3d</fix>
</trkpt>
<trkpt lat="64.1624775" lon="-139.8402243">
  <ele>1109.08</ele>
  <time>2026-09-01T20:02:19Z</time>
  <course>6.64</course>
  <speed>0.022360679774997897</speed>
  <fix>3d</fix>
</trkpt>
<trkpt lat="64.1624777" lon="-139.8402246">
  <ele>1109.09</ele>
  <time>2026-09-01T20:02:19Z</time>
  <course>180.78</course>
  <speed>0.0</speed>
  <fix>3d</fix>
</trkpt>
<trkpt lat="64.1624775" lon="-139.8402243">
  <ele>1109.07</ele>
  <time>2026-09-01T20:02:19Z</time>
  <course>6.64</course>
  <speed>0.022360679774997897</speed>
  <fix>3d</fix>
</trkpt>
<trkpt lat="64.1624777" lon="-139.8402246">
  <ele>1109.09</ele>
  <time>2026-09-01T20:02:19Z</time>
  <course>180.78</course>
  <speed>0.0</speed>
  <fix>3d</fix>
</trkpt>
<trkpt lat="64.1624775" lon="-139.8402243">
  <ele>1109.07</ele>
  <time>2026-09-01T20:02:19Z</time>
  <course>6.64</course>
  <speed>0.022360679774997897</speed>
  <fix>3d</fix>
</trkpt>
<trkpt lat="64.1624777" lon="-139.8402246">
  <ele>1109.09</ele>
  <time>2026-09-01T20:02:19Z</time>
  <course>180.78</course>
  <speed>0.0</speed>
  <fix>3d</fix>
</trkpt>
<trkpt lat="64.1624775" lon="-139.8402243">
  <ele>1109.06</ele>
  <time>2026-09-01T20:02:19Z</time>
  <course>6.64</course>
  <speed>0.022360679774997897</speed>
  <fix>3d</fix>
</trkpt>
<trkpt lat="64.1624777" lon="-139.8402246">
  <ele>1109.09</ele>
  <time>2026-09-01T20:02:19Z</time>
  <course>180.78</course>
  <speed>0.0</speed>
  <fix>3d</fix>
</trkpt>
<trkpt lat="64.1624775" lon="-139.8402243">
  <ele>1109.06</ele>
  <time>2026-09-01T20:02:19Z</time>
  <course>6.65</course>
  <speed>0.022360679774997897</speed>
  <fix>3d</fix>
</trkpt>
<trkpt lat="64.1624777" lon="-139.8402246">
  <ele>1109.09</ele>
  <time>2026-09-01T20:02:19Z</time>
  <course>180.78</course>
  <speed>0.0</speed>
  <fix>3d</fix>
</trkpt>
<trkpt lat="64.1624775" lon="-139.8402243">
  <ele>1109.05</ele>
  <time>2026-09-01T20:02:19Z</time>
  <course>6.65</course>
  <speed>0.022360679774997897</speed>
  <fix>3d</fix>
</trkpt>
<trkpt lat="64.1624777" lon="-139.8402246">
  <ele>1109.09</ele>
  <time>2026-09-01T20:02:19Z</time>
  <course>180.78</course>
  <speed>0.0</speed>
  <fix>3d</fix>
</trkpt>
<trkpt lat="64.1624775" lon="-139.8402243">
  <ele>1109.05</ele>
  <time>2026-09-01T20:02:19Z</time>
  <course>6.65</course>
  <speed>0.022360679774997897</speed>
  <fix>3d</fix>
</trkpt>
<trkpt lat="64.1624777" lon="-139.8402246">
  <ele>1109.09</ele>
  <time>2026-09-01T20:02:19Z</time>
  <course>180.78</course>
  <speed>0.0</speed>
  <fix>3d</fix>
</trkpt>
<trkpt lat="64.1624775" lon="-139.8402243">
  <ele>1109.04</ele>
  <time>2026-09-01T20:02:19Z</time>
  <course>6.65</course>
  <speed>0.022360679774997897</speed>
  <fix>3d</fix>
</trkpt>
<trkpt lat="64.1624777" lon="-139.8402246">
  <ele>1109.09</ele>
  <time>2026-09-01T20:02:19Z</time>
  <course>180.78</course>
  <speed>0.0</speed>
  <fix>3d</fix>
</trkpt>
<trkpt lat="64.1624775" lon="-139.8402243">
  <ele>1109.04</ele>
  <time>2026-09-01T20:02:19Z</time>
  <course>6.65</course>
  <speed>0.022360679774997897</speed>
  <fix>3d</fix>
</trkpt>
<trkpt lat="64.1624777" lon="-139.8402246">
  <ele>1109.09</ele>
  <time>2026-09-01T20:02:19Z</time>
  <course>180.78</course>
  <speed>0.0</speed>
  <fix>3d</fix>
</trkpt>
<trkpt lat="64.1624775" lon="-139.8402243">
  <ele>1109.04</ele>
  <time>2026-09-01T20:02:19Z</time>
  <course>6.65</course>
  <speed>0.022360679774997897</speed>
  <fix>3d</fix>
</trkpt>
<trkpt lat="64.1624777" lon="-139.8402246">
  <ele>1109.09</ele>
  <time>2026-09-01T20:02:19Z</time>
  <course>180.78</course>
  <speed>0.0</speed>
  <fix>3d</fix>
</trkpt>
<trkpt lat="64.1624775" lon="-139.8402243">
  <ele>1109.04</ele>
  <time>2026-09-01T20:02:19Z</time>
  <course>6.65</course>
  <speed>0.022360679774997897</speed>
  <fix>3d</fix>
</trkpt>
<trkpt lat="64.1624777" lon="-139.8402246">
  <ele>1109.09</ele>
  <time>2026-09-01T20:02:19Z</time>
  <course>180.78</course>
  <speed>0.0</speed>
  <fix>3d</fix>
</trkpt>
<trkpt lat="64.1624775" lon="-139.8402243">
  <ele>1109.03</ele>
  <time>2026-09-01T20:02:19Z</time>
  <course>6.65</course>
  <speed>0.022360679774997897</speed>
  <fix>3d</fix>
</trkpt>
<trkpt lat="64.1624777" lon="-139.8402246">
  <ele>1109.09</ele>
  <time>2026-09-01T20:02:19Z</time>
  <course>180.78</course>
  <speed>0.0</speed>
  <fix>3d</fix>
</trkpt>
<trkpt lat="64.1624775" lon="-139.8402243">
  <ele>1109.03</ele>
  <time>2026-09-01T20:02:19Z</time>
  <course>6.65</course>
  <speed>0.022360679774997897</speed>
  <fix>3d</fix>
</trkpt>
<trkpt lat="64.1624777" lon="-139.8402246">
  <ele>1109.09</ele>
  <time>2026-09-01T20:02:19Z</time>
  <course>180.78</course>
  <speed>0.0</speed>
  <fix>3d</fix>
</trkpt>
<trkpt lat="64.1624775" lon="-139.8402243">
  <ele>1109.03</ele>
  <time>2026-09-01T20:02:19Z</time>
  <course>6.65</course>
  <speed>0.022360679774997897</speed>
  <fix>3d</fix>
</trkpt>
<trkpt lat="64.1624777" lon="-139.8402246">
  <ele>1109.09</ele>
  <time>2026-09-01T20:02:19Z</time>
  <course>180.78</course>
  <speed>0.0</speed>
  <fix>3d</fix>
</trkpt>
<trkpt lat="64.1624775" lon="-139.8402243">
  <ele>1109.03</ele>
  <time>2026-09-01T20:02:19Z</time>
  <course>6.66</course>
  <speed>0.022360679774997897</speed>
  <fix>3d</fix>
</trkpt>
<trkpt lat="64.1624777" lon="-139.8402246">
  <ele>1109.09</ele>
  <time>2026-09-01T20:02:19Z</time>
  <course>180.78</course>
  <speed>0.0</speed>
  <fix>3d</fix>
</trkpt>
<trkpt lat="64.1624775" lon="-139.8402243">
  <ele>1109.03</ele>
  <time>2026-09-01T20:02:19Z</time>
  <course>6.66</course>
  <speed>0.022360679774997897</speed>
  <fix>3d</fix>
</trkpt>
<trkpt lat="64.1624777" lon="-139.8402246">
  <ele>1109.09</ele>
  <time>2026-09-01T20:02:19Z</time>
  <course>180.78</course>
  <speed>0.0</speed>
  <fix>3d</fix>
</trkpt>
<trkpt lat="64.1624775" lon="-139.8402243">
  <ele>1109.03</ele>
  <time>2026-09-01T20:02:19Z</time>
  <course>6.66</course>
  <speed>0.022360679774997897</speed>
  <fix>3d</fix>
</trkpt>
<trkpt lat="64.1624777" lon="-139.8402246">
  <ele>1109.09</ele>
  <time>2026-09-01T20:02:19Z</time>
  <course>180.78</course>
  <speed>0.0</speed>
  <fix>3d</fix>
</trkpt>
<trkpt lat="64.1624775" lon="-139.8402243">
  <ele>1109.03</ele>
  <time>2026-09-01T20:02:19Z</time>
  <course>6.66</course>
  <speed>0.022360679774997897</speed>
  <fix>3d</fix>
</trkpt>
<trkpt lat="64.1624777" lon="-139.8402246">
  <ele>1109.09</ele>
  <time>2026-09-01T20:02:19Z</time>
  <course>180.78</course>
  <speed>0.0</speed>
  <fix>3d</fix>
</trkpt>
<trkpt lat="64.1624775" lon="-139.8402243">
  <ele>1109.03</ele>
  <time>2026-09-01T20:02:19Z</time>
  <course>6.66</course>
  <speed>0.022360679774997897</speed>
  <fix>3d</fix>
</trkpt>
<trkpt lat="64.1624777" lon="-139.8402246">
  <ele>1109.09</ele>
  <time>2026-09-01T20:02:19Z</time>
  <course>180.78</course>
  <speed>0.0</speed>
  <fix>3d</fix>
</trkpt>
<trkpt lat="64.1624775" lon="-139.8402243">
  <ele>1109.03</ele>
  <time>2026-09-01T20:02:19Z</time>
  <course>6.66</course>
  <speed>0.022360679774997897</speed>
  <fix>3d</fix>
</trkpt>
<trkpt lat="64.1624777" lon="-139.8402246">
  <ele>1109.09</ele>
  <time>2026-09-01T20:02:19Z</time>
  <course>180.78</course>
  <speed>0.0</speed>
  <fix>3d</fix>
</trkpt>
<trkpt lat="64.1624775" lon="-139.8402243">
  <ele>1109.02</ele>
  <time>2026-09-01T20:02:19Z</time>
  <course>6.66</course>
  <speed>0.022360679774997897</speed>
  <fix>3d</fix>
</trkpt>
<trkpt lat="64.1624777" lon="-139.8402246">
  <ele>1109.09</ele>
  <time>2026-09-01T20:02:19Z</time>
  <course>180.78</course>
  <speed>0.0</speed>
  <fix>3d</fix>
</trkpt>
<trkpt lat="64.1624775" lon="-139.8402243">
  <ele>1109.02</ele>
  <time>2026-09-01T20:02:19Z</time>
  <course>6.66</course>
  <speed>0.022360679774997897</speed>
  <fix>3d</fix>
</trkpt>
<trkpt lat="64.1624777" lon="-139.8402246">
  <ele>1109.09</ele>
  <time>2026-09-01T20:02:19Z</time>
  <course>180.78</course>
  <speed>0.0</speed>
  <fix>3d</fix>
</trkpt>
<trkpt lat="64.1624775" lon="-139.8402243">
  <ele>1109.02</ele>
  <time>2026-09-01T20:02:19Z</time>
  <course>6.66</course>
  <speed>0.022360679774997897</speed>
  <fix>3d</fix>
</trkpt>
<trkpt lat="64.1624777" lon="-139.8402246">
  <ele>1109.09</ele>
  <time>2026-09-01T20:02:19Z</time>
  <course>180.78</course>
  <speed>0.0</speed>
  <fix>3d</fix>
</trkpt>
<trkpt lat="64.1624775" lon="-139.8402243">
  <ele>1109.02</ele>
  <time>2026-09-01T20:02:19Z</time>
  <course>6.66</course>
  <speed>0.022360679774997897</speed>
  <fix>3d</fix>
</trkpt>
<trkpt lat="64.1624777" lon="-139.8402246">
  <ele>1109.09</ele>
  <time>2026-09-01T20:02:19Z</time>
  <course>180.78</course>
  <speed>0.0</speed>
  <fix>3d</fix>
</trkpt>
<trkpt lat="64.1624775" lon="-139.8402243">
  <ele>1109.02</ele>
  <time>2026-09-01T20:02:19Z</time>
  <course>6.67</course>
  <speed>0.022360679774997897</speed>
  <fix>3d</fix>
</trkpt>
<trkpt lat="64.1624777" lon="-139.8402246">
  <ele>1109.09</ele>
  <time>2026-09-01T20:02:19Z</time>
  <course>180.78</course>
  <speed>0.0</speed>
  <fix>3d</fix>
</trkpt>
<trkpt lat="64.1624775" lon="-139.8402243">
  <ele>1109.02</ele>
  <time>2026-09-01T20:02:19Z</time>
  <course>6.67</course>
  <speed>0.022360679774997897</speed>
  <fix>3d</fix>
</trkpt>
<trkpt lat="64.1624777" lon="-139.8402246">
  <ele>1109.09</ele>
  <time>2026-09-01T20:02:19Z</time>
  <course>180.78</course>
  <speed>0.0</speed>
  <fix>3d</fix>
</trkpt>
<trkpt lat="64.1624775" lon="-139.8402243">
  <ele>1109.02</ele>
  <time>2026-09-01T20:02:19Z</time>
  <course>6.67</course>
  <speed>0.022360679774997897</speed>
  <fix>3d</fix>
</trkpt>
<trkpt lat="64.1624777" lon="-139.8402246">
  <ele>1109.09</ele>
  <time>2026-09-01T20:02:19Z</time>
  <course>180.78</course>
  <speed>0.0</speed>
  <fix>3d</fix>
</trkpt>
<trkpt lat="64.1624775" lon="-139.8402243">
  <ele>1109.02</ele>
  <time>2026-09-01T20:02:19Z</time>
  <course>6.67</course>
  <speed>0.022360679774997897</speed>
  <fix>3d</fix>
</trkpt>
<trkpt lat="64.1624777" lon="-139.8402246">
  <ele>1109.09</ele>
  <time>2026-09-01T20:02:19Z</time>
  <course>180.78</course>
  <speed>0.0</speed>
  <fix>3d</fix>
</trkpt>
<trkpt lat="64.1624775" lon="-139.8402243">
  <ele>1109.02</ele>
  <time>2026-09-01T20:02:19Z</time>
  <course>6.67</course>
  <speed>0.022360679774997897</speed>
  <fix>3d</fix>
</trkpt>
<trkpt lat="64.1624777" lon="-139.8402246">
  <ele>1109.09</ele>
  <time>2026-09-01T20:02:19Z</time>
  <course>180.78</course>
  <speed>0.0</speed>
  <fix>3d</fix>
</trkpt>
<trkpt lat="64.1624775" lon="-139.8402243">
  <ele>1109.02</ele>
  <time>2026-09-01T20:02:19Z</time>
  <course>6.67</course>
  <speed>0.022360679774997897</speed>
  <fix>3d</fix>
</trkpt>
<trkpt lat="64.1624777" lon="-139.8402246">
  <ele>1109.09</ele>
  <time>2026-09-01T20:02:19Z</time>
  <course>180.78</course>
  <speed>0.0</speed>
  <fix>3d</fix>
</trkpt>
<trkpt lat="64.1624775" lon="-139.8402243">
  <ele>1109.02</ele>
  <time>2026-09-01T20:02:19Z</time>
  <course>6.67</course>
  <speed>0.022360679774997897</speed>
  <fix>3d</fix>
</trkpt>
<trkpt lat="64.1624777" lon="-139.8402246">
  <ele>1109.09</ele>
  <time>2026-09-01T20:02:19Z</time>
  <course>180.78</course>
  <speed>0.0</speed>
  <fix>3d</fix>
</trkpt>
<trkpt lat="64.1624775" lon="-139.8402243">
  <ele>1109.02</ele>
  <time>2026-09-01T20:02:19Z</time>
  <course>6.67</course>
  <speed>0.022360679774997897</speed>
  <fix>3d</fix>
</trkpt>
<trkpt lat="64.1624777" lon="-139.8402246">
  <ele>1109.09</ele>
  <time>2026-09-01T20:02:19Z</time>
  <course>180.78</course>
  <speed>0.0</speed>
  <fix>3d</fix>
</trkpt>
<trkpt lat="64.1624775" lon="-139.8402243">
  <ele>1109.02</ele>
  <time>2026-09-01T20:02:19Z</time>
  <course>6.67</course>
  <speed>0.022360679774997897</speed>
  <fix>3d</fix>
</trkpt>
<trkpt lat="64.1624777" lon="-139.8402246">
  <ele>1109.09</ele>
  <time>2026-09-01T20:02:19Z</time>
  <course>180.78</course>
  <speed>0.0</speed>
  <fix>3d</fix>
</trkpt>
<trkpt lat="64.1624775" lon="-139.8402243">
  <ele>1109.02</ele>
  <time>2026-09-01T20:02:19Z</time>
  <course>6.68</course>
  <speed>0.022360679774997897</speed>
  <fix>3d</fix>
</trkpt>
<trkpt lat="64.1624777" lon="-139.8402246">
  <ele>1109.09</ele>
  <time>2026-09-01T20:02:19Z</time>
  <course>180.78</course>
  <speed>0.0</speed>
  <fix>3d</fix>
</trkpt>
<trkpt lat="64.1624775" lon="-139.8402243">
  <ele>1109.02</ele>
  <time>2026-09-01T20:02:19Z</time>
  <course>6.68</course>
  <speed>0.022360679774997897</speed>
  <fix>3d</fix>
</trkpt>
<trkpt lat="64.1624777" lon="-139.8402246">
  <ele>1109.09</ele>
  <time>2026-09-01T20:02:19Z</time>
  <course>180.78</course>
  <speed>0.0</speed>
  <fix>3d</fix>
</trkpt>
<trkpt lat="64.1624775" lon="-139.8402243">
  <ele>1109.02</ele>
  <time>2026-09-01T20:02:19Z</time>
  <course>6.68</course>
  <speed>0.022360679774997897</speed>
  <fix>3d</fix>
</trkpt>
<trkpt lat="64.1624777" lon="-139.8402246">
  <ele>1109.09</ele>
  <time>2026-09-01T20:02:19Z</time>
  <course>180.78</course>
  <speed>0.0</speed>
  <fix>3d</fix>
</trkpt>
<trkpt lat="64.1624775" lon="-139.8402243">
  <ele>1109.02</ele>
  <time>2026-09-01T20:02:19Z</time>
  <course>6.68</course>
  <speed>0.022360679774997897</speed>
  <fix>3d</fix>
</trkpt>
<trkpt lat="64.1624777" lon="-139.8402246">
  <ele>1109.09</ele>
  <time>2026-09-01T20:02:19Z</time>
  <course>180.78</course>
  <speed>0.0</speed>
  <fix>3d</fix>
</trkpt>
<trkpt lat="64.1624775" lon="-139.8402243">
  <ele>1109.01</ele>
  <time>2026-09-01T20:02:19Z</time>
  <course>6.68</course>
  <speed>0.022360679774997897</speed>
  <fix>3d</fix>
</trkpt>
<trkpt lat="64.1624777" lon="-139.8402246">
  <ele>1109.09</ele>
  <time>2026-09-01T20:02:19Z</time>
  <course>180.78</course>
  <speed>0.0</speed>
  <fix>3d</fix>
</trkpt>
<trkpt lat="64.1624775" lon="-139.8402243">
  <ele>1109.01</ele>
  <time>2026-09-01T20:02:19Z</time>
  <course>6.68</course>
  <speed>0.022360679774997897</speed>
  <fix>3d</fix>
</trkpt>
<trkpt lat="64.1624777" lon="-139.8402246">
  <ele>1109.09</ele>
  <time>2026-09-01T20:02:19Z</time>
  <course>180.78</course>
  <speed>0.0</speed>
  <fix>3d</fix>
</trkpt>
<trkpt lat="64.1624775" lon="-139.8402243">
  <ele>1109.01</ele>
  <time>2026-09-01T20:02:19Z</time>
  <course>6.68</course>
  <speed>0.022360679774997897</speed>
  <fix>3d</fix>
</trkpt>
<trkpt lat="64.1624777" lon="-139.8402246">
  <ele>1109.09</ele>
  <time>2026-09-01T20:02:19Z</time>
  <course>180.78</course>
  <speed>0.0</speed>
  <fix>3d</fix>
</trkpt>
<trkpt lat="64.1624775" lon="-139.8402243">
  <ele>1109.0</ele>
  <time>2026-09-01T20:02:19Z</time>
  <course>6.68</course>
  <speed>0.022360679774997897</speed>
  <fix>3d</fix>
</trkpt>
<trkpt lat="64.1624777" lon="-139.8402246">
  <ele>1109.09</ele>
  <time>2026-09-01T20:02:19Z</time>
  <course>180.78</course>
  <speed>0.0</speed>
  <fix>3d</fix>
</trkpt>
<trkpt lat="64.1624775" lon="-139.8402243">
  <ele>1109.0</ele>
  <time>2026-09-01T20:02:19Z</time>
  <course>6.68</course>
  <speed>0.022360679774997897</speed>
  <fix>3d</fix>
</trkpt>
<trkpt lat="64.1624777" lon="-139.8402246">
  <ele>1109.09</ele>
  <time>2026-09-01T20:02:19Z</time>
  <course>180.78</course>
  <speed>0.0</speed>
  <fix>3d</fix>
</trkpt>
<trkpt lat="64.1624775" lon="-139.8402243">
  <ele>1109.0</ele>
  <time>2026-09-01T20:02:19Z</time>
  <course>6.69</course>
  <speed>0.022360679774997897</speed>
  <fix>3d</fix>
</trkpt>
<trkpt lat="64.1624777" lon="-139.8402246">
  <ele>1109.09</ele>
  <time>2026-09-01T20:02:19Z</time>
  <course>180.78</course>
  <speed>0.0</speed>
  <fix>3d</fix>
</trkpt>
<trkpt lat="64.1624775" lon="-139.8402243">
  <ele>1109.0</ele>
  <time>2026-09-01T20:02:19Z</time>
  <course>6.69</course>
  <speed>0.022360679774997897</speed>
  <fix>3d</fix>
</trkpt>
<trkpt lat="64.1624777" lon="-139.8402246">
  <ele>1109.09</ele>
  <time>2026-09-01T20:02:19Z</time>
  <course>180.78</course>
  <speed>0.0</speed>
  <fix>3d</fix>
</trkpt>
<trkpt lat="64.1624775" lon="-139.8402243">
  <ele>1108.99</ele>
  <time>2026-09-01T20:02:19Z</time>
  <course>6.69</course>
  <speed>0.022360679774997897</speed>
  <fix>3d</fix>
</trkpt>
<trkpt lat="64.1624777" lon="-139.8402246">
  <ele>1109.09</ele>
  <time>2026-09-01T20:02:19Z</time>
  <course>180.78</course>
  <speed>0.0</speed>
  <fix>3d</fix>
</trkpt>
<trkpt lat="64.1624775" lon="-139.8402243">
  <ele>1108.99</ele>
  <time>2026-09-01T20:02:19Z</time>
  <course>6.69</course>
  <speed>0.022360679774997897</speed>
  <fix>3d</fix>
</trkpt>
<trkpt lat="64.1624777" lon="-139.8402246">
  <ele>1109.09</ele>
  <time>2026-09-01T20:02:19Z</time>
  <course>180.78</course>
  <speed>0.0</speed>
  <fix>3d</fix>
</trkpt>
<trkpt lat="64.1624775" lon="-139.8402243">
  <ele>1108.99</ele>
  <time>2026-09-01T20:02:19Z</time>
  <course>6.69</course>
  <speed>0.022360679774997897</speed>
  <fix>3d</fix>
</trkpt>
<trkpt lat="64.1624777" lon="-139.8402246">
  <ele>1109.09</ele>
  <time>2026-09-01T20:02:19Z</time>
  <course>180.78</course>
  <speed>0.0</speed>
  <fix>3d</fix>
</trkpt>
<trkpt lat="64.1624775" lon="-139.8402243">
  <ele>1108.98</ele>
  <time>2026-09-01T20:02:19Z</time>
  <course>6.69</course>
  <speed>0.022360679774997897</speed>
  <fix>3d</fix>
</trkpt>
<trkpt lat="64.1624777" lon="-139.8402246">
  <ele>1109.09</ele>
  <time>2026-09-01T20:02:19Z</time>
  <course>180.78</course>
  <speed>0.0</speed>
  <fix>3d</fix>
</trkpt>
<trkpt lat="64.1624775" lon="-139.8402243">
  <ele>1108.98</ele>
  <time>2026-09-01T20:02:19Z</time>
  <course>6.69</course>
  <speed>0.022360679774997897</speed>
  <fix>3d</fix>
</trkpt>
<trkpt lat="64.1624777" lon="-139.8402246">
  <ele>1109.09</ele>
  <time>2026-09-01T20:02:19Z</time>
  <course>180.78</course>
  <speed>0.0</speed>
  <fix>3d</fix>
</trkpt>
<trkpt lat="64.1624775" lon="-139.8402243">
  <ele>1108.98</ele>
  <time>2026-09-01T20:02:19Z</time>
  <course>6.69</course>
  <speed>0.022360679774997897</speed>
  <fix>3d</fix>
</trkpt>
<trkpt lat="64.1624777" lon="-139.8402246">
  <ele>1109.09</ele>
  <time>2026-09-01T20:02:19Z</time>
  <course>180.78</course>
  <speed>0.0</speed>
  <fix>3d</fix>
</trkpt>
<trkpt lat="64.1624775" lon="-139.8402243">
  <ele>1108.98</ele>
  <time>2026-09-01T20:02:19Z</time>
  <course>6.7</course>
  <speed>0.022360679774997897</speed>
  <fix>3d</fix>
</trkpt>
<trkpt lat="64.1624777" lon="-139.8402246">
  <ele>1109.09</ele>
  <time>2026-09-01T20:02:19Z</time>
  <course>180.78</course>
  <speed>0.0</speed>
  <fix>3d</fix>
</trkpt>
<trkpt lat="64.1624775" lon="-139.8402243">
  <ele>1108.98</ele>
  <time>2026-09-01T20:02:19Z</time>
  <course>6.7</course>
  <speed>0.022360679774997897</speed>
  <fix>3d</fix>
</trkpt>
<trkpt lat="64.1624777" lon="-139.8402246">
  <ele>1109.09</ele>
  <time>2026-09-01T20:02:19Z</time>
  <course>180.78</course>
  <speed>0.0</speed>
  <fix>3d</fix>
</trkpt>
<trkpt lat="64.1624775" lon="-139.8402243">
  <ele>1109.08</ele>
  <time>2026-09-01T20:02:19Z</time>
  <course>6.7</course>
  <speed>0.022360679774997897</speed>
  <fix>3d</fix>
</trkpt>
<trkpt lat="64.1624777" lon="-139.8402246">
  <ele>1109.09</ele>
  <time>2026-09-01T20:02:19Z</time>
  <course>180.78</course>
  <speed>0.0</speed>
  <fix>3d</fix>
</trkpt>
<trkpt lat="64.1624775" lon="-139.8402243">
  <ele>1109.08</ele>
  <time>2026-09-01T20:02:19Z</time>
  <course>6.7</course>
  <speed>0.022360679774997897</speed>
  <fix>3d</fix>
</trkpt>
<trkpt lat="64.1624777" lon="-139.8402246">
  <ele>1109.09</ele>
  <time>2026-09-01T20:02:19Z</time>
  <course>180.78</course>
  <speed>0.0</speed>
  <fix>3d</fix>
</trkpt>
<trkpt lat="64.1624775" lon="-139.8402243">
  <ele>1109.08</ele>
  <time>2026-09-01T20:02:19Z</time>
  <course>6.7</course>
  <speed>0.022360679774997897</speed>
  <fix>3d</fix>
</trkpt>
<trkpt lat="64.1624777" lon="-139.8402246">
  <ele>1109.09</ele>
  <time>2026-09-01T20:02:19Z</time>
  <course>180.78</course>
  <speed>0.0</speed>
  <fix>3d</fix>
</trkpt>
<trkpt lat="64.1624775" lon="-139.8402243">
  <ele>1109.08</ele>
  <time>2026-09-01T20:02:19Z</time>
  <course>6.7</course>
  <speed>0.022360679774997897</speed>
  <fix>3d</fix>
</trkpt>
<trkpt lat="64.1624777" lon="-139.8402246">
  <ele>1109.09</ele>
  <time>2026-09-01T20:02:19Z</time>
  <course>180.78</course>
  <speed>0.0</speed>
  <fix>3d</fix>
</trkpt>
<trkpt lat="64.1624775" lon="-139.8402243">
  <ele>1109.08</ele>
  <time>2026-09-01T20:02:19Z</time>
  <course>6.7</course>
  <speed>0.022360679774997897</speed>
  <fix>3d</fix>
</trkpt>
<trkpt lat="64.1624777" lon="-139.8402246">
  <ele>1109.09</ele>
  <time>2026-09-01T20:02:19Z</time>
  <course>180.78</course>
  <speed>0.0</speed>
  <fix>3d</fix>
</trkpt>
<trkpt lat="64.1624775" lon="-139.8402243">
  <ele>1109.07</ele>
  <time>2026-09-01T20:02:19Z</time>
  <course>6.7</course>
  <speed>0.022360679774997897</speed>
  <fix>3d</fix>
</trkpt>
<trkpt lat="64.1624777" lon="-139.8402246">
  <ele>1109.09</ele>
  <time>2026-09-01T20:02:19Z</time>
  <course>180.78</course>
  <speed>0.0</speed>
  <fix>3d</fix>
</trkpt>
<trkpt lat="64.1624775" lon="-139.8402243">
  <ele>1109.07</ele>
  <time>2026-09-01T20:02:19Z</time>
  <course>6.7</course>
  <speed>0.022360679774997897</speed>
  <fix>3d</fix>
</trkpt>
<trkpt lat="64.1624777" lon="-139.8402246">
  <ele>1109.09</ele>
  <time>2026-09-01T20:02:19Z</time>
  <course>180.78</course>
  <speed>0.0</speed>
  <fix>3d</fix>
</trkpt>
<trkpt lat="64.1624775" lon="-139.8402243">
  <ele>1109.07</ele>
  <time>2026-09-01T20:02:19Z</time>
  <course>6.7</course>
  <speed>0.022360679774997897</speed>
  <fix>3d</fix>
</trkpt>
<trkpt lat="64.1624777" lon="-139.8402246">
  <ele>1109.09</ele>
  <time>2026-09-01T20:02:19Z</time>
  <course>180.78</course>
  <speed>0.0</speed>
  <fix>3d</fix>
</trkpt>
<trkpt lat="64.1624775" lon="-139.8402243">
  <ele>1109.07</ele>
  <time>2026-09-01T20:02:19Z</time>
  <course>6.71</course>
  <speed>0.022360679774997897</speed>
  <fix>3d</fix>
</trkpt>
<trkpt lat="64.1624777" lon="-139.8402246">
  <ele>1109.09</ele>
  <time>2026-09-01T20:02:19Z</time>
  <course>180.78</course>
  <speed>0.0</speed>
  <fix>3d</fix>
</trkpt>
<trkpt lat="64.1624775" lon="-139.8402243">
  <ele>1109.07</ele>
  <time>2026-09-01T20:02:19Z</time>
  <course>6.71</course>
  <speed>0.022360679774997897</speed>
  <fix>3d</fix>
</trkpt>
<trkpt lat="64.1624777" lon="-139.8402246">
  <ele>1109.09</ele>
  <time>2026-09-01T20:02:19Z</time>
  <course>180.78</course>
  <speed>0.0</speed>
  <fix>3d</fix>
</trkpt>
<trkpt lat="64.1624775" lon="-139.8402243">
  <ele>1109.07</ele>
  <time>2026-09-01T20:02:19Z</time>
  <course>6.71</course>
  <speed>0.022360679774997897</speed>
  <fix>3d</fix>
</trkpt>
<trkpt lat="64.1624777" lon="-139.8402246">
  <ele>1109.09</ele>
  <time>2026-09-01T20:02:19Z</time>
  <course>180.78</course>
  <speed>0.0</speed>
  <fix>3d</fix>
</trkpt>
<trkpt lat="64.1624775" lon="-139.8402243">
  <ele>1109.07</ele>
  <time>2026-09-01T20:02:19Z</time>
  <course>6.71</course>
  <speed>0.022360679774997897</speed>
  <fix>3d</fix>
</trkpt>
<trkpt lat="64.1624777" lon="-139.8402246">
  <ele>1109.09</ele>
  <time>2026-09-01T20:02:19Z</time>
  <course>180.78</course>
  <speed>0.0</speed>
  <fix>3d</fix>
</trkpt>
<trkpt lat="64.1624775" lon="-139.8402243">
  <ele>1109.07</ele>
  <time>2026-09-01T20:02:19Z</time>
  <course>6.71</course>
  <speed>0.022360679774997897</speed>
  <fix>3d</fix>
</trkpt>
<trkpt lat="64.1624777" lon="-139.8402246">
  <ele>1109.09</ele>
  <time>2026-09-01T20:02:19Z</time>
  <course>180.78</course>
  <speed>0.0</speed>
  <fix>3d</fix>
</trkpt>
<trkpt lat="64.1624775" lon="-139.8402243">
  <ele>1109.07</ele>
  <time>2026-09-01T20:02:19Z</time>
  <course>6.71</course>
  <speed>0.022360679774997897</speed>
  <fix>3d</fix>
</trkpt>
<trkpt lat="64.1624777" lon="-139.8402246">
  <ele>1109.09</ele>
  <time>2026-09-01T20:02:19Z</time>
  <course>180.78</course>
  <speed>0.0</speed>
  <fix>3d</fix>
</trkpt>
<trkpt lat="64.1624775" lon="-139.8402243">
  <ele>1109.07</ele>
  <time>2026-09-01T20:02:19Z</time>
  <course>6.71</course>
  <speed>0.022360679774997897</speed>
  <fix>3d</fix>
</trkpt>
<trkpt lat="64.1624777" lon="-139.8402246">
  <ele>1109.09</ele>
  <time>2026-09-01T20:02:19Z</time>
  <course>180.78</course>
  <speed>0.0</speed>
  <fix>3d</fix>
</trkpt>
<trkpt lat="64.1624775" lon="-139.8402243">
  <ele>1109.07</ele>
  <time>2026-09-01T20:02:19Z</time>
  <course>6.71</course>
  <speed>0.022360679774997897</speed>
  <fix>3d</fix>
</trkpt>
<trkpt lat="64.1624777" lon="-139.8402246">
  <ele>1109.09</ele>
  <time>2026-09-01T20:02:19Z</time>
  <course>180.78</course>
  <speed>0.0</speed>
  <fix>3d</fix>
</trkpt>
<trkpt lat="64.1624775" lon="-139.8402243">
  <ele>1109.07</ele>
  <time>2026-09-01T20:02:19Z</time>
  <course>6.72</course>
  <speed>0.022360679774997897</speed>
  <fix>3d</fix>
</trkpt>
<trkpt lat="64.1624777" lon="-139.8402246">
  <ele>1109.09</ele>
  <time>2026-09-01T20:02:19Z</time>
  <course>180.78</course>
  <speed>0.0</speed>
  <fix>3d</fix>
</trkpt>
<trkpt lat="64.1624775" lon="-139.8402243">
  <ele>1109.06</ele>
  <time>2026-09-01T20:02:19Z</time>
  <course>6.72</course>
  <speed>0.022360679774997897</speed>
  <fix>3d</fix>
</trkpt>
<trkpt lat="64.1624777" lon="-139.8402246">
  <ele>1109.09</ele>
  <time>2026-09-01T20:02:19Z</time>
  <course>180.78</course>
  <speed>0.0</speed>
  <fix>3d</fix>
</trkpt>
<trkpt lat="64.1624775" lon="-139.8402243">
  <ele>1109.06</ele>
  <time>2026-09-01T20:02:19Z</time>
  <course>6.72</course>
  <speed>0.022360679774997897</speed>
  <fix>3d</fix>
</trkpt>
<trkpt lat="64.1624777" lon="-139.8402246">
  <ele>1109.09</ele>
  <time>2026-09-01T20:02:19Z</time>
  <course>180.78</course>
  <speed>0.0</speed>
  <fix>3d</fix>
</trkpt>
<trkpt lat="64.1624775" lon="-139.8402243">
  <ele>1109.06</ele>
  <time>2026-09-01T20:02:19Z</time>
  <course>6.72</course>
  <speed>0.022360679774997897</speed>
  <fix>3d</fix>
</trkpt>
<trkpt lat="64.1624777" lon="-139.8402246">
  <ele>1109.09</ele>
  <time>2026-09-01T20:02:19Z</time>
  <course>180.78</course>
  <speed>0.0</speed>
  <fix>3d</fix>
</trkpt>
<trkpt lat="64.1624775" lon="-139.8402243">
  <ele>1109.06</ele>
  <time>2026-09-01T20:02:19Z</time>
  <course>6.72</course>
  <speed>0.022360679774997897</speed>
  <fix>3d</fix>
</trkpt>
<trkpt lat="64.1624777" lon="-139.8402246">
  <ele>1109.09</ele>
  <time>2026-09-01T20:02:19Z</time>
  <course>180.78</course>
  <speed>0.0</speed>
  <fix>3d</fix>
</trkpt>
<trkpt lat="64.1624775" lon="-139.8402243">
  <ele>1109.06</ele>
  <time>2026-09-01T20:02:19Z</time>
  <course>6.72</course>
  <speed>0.022360679774997897</speed>
  <fix>3d</fix>
</trkpt>
<trkpt lat="64.1624777" lon="-139.8402246">
  <ele>1109.09</ele>
  <time>2026-09-01T20:02:19Z</time>
  <course>180.78</course>
  <speed>0.0</speed>
  <fix>3d</fix>
</trkpt>
<trkpt lat="64.1624775" lon="-139.8402243">
  <ele>1109.06</ele>
  <time>2026-09-01T20:02:19Z</time>
  <course>6.72</course>
  <speed>0.022360679774997897</speed>
  <fix>3d</fix>
</trkpt>
<trkpt lat="64.1624777" lon="-139.8402246">
  <ele>1109.09</ele>
  <time>2026-09-01T20:02:19Z</time>
  <course>180.78</course>
  <speed>0.0</speed>
  <fix>3d</fix>
</trkpt>
<trkpt lat="64.1624775" lon="-139.8402243">
  <ele>1109.06</ele>
  <time>2026-09-01T20:02:19Z</time>
  <course>6.72</course>
  <speed>0.022360679774997897</speed>
  <fix>3d</fix>
</trkpt>
<trkpt lat="64.1624777" lon="-139.8402246">
  <ele>1109.09</ele>
  <time>2026-09-01T20:02:19Z</time>
  <course>180.78</course>
  <speed>0.0</speed>
  <fix>3d</fix>
</trkpt>
<trkpt lat="64.1624775" lon="-139.8402243">
  <ele>1109.06</ele>
  <time>2026-09-01T20:02:19Z</time>
  <course>6.72</course>
  <speed>0.022360679774997897</speed>
  <fix>3d</fix>
</trkpt>
<trkpt lat="64.1624777" lon="-139.8402246">
  <ele>1109.09</ele>
  <time>2026-09-01T20:02:19Z</time>
  <course>180.78</course>
  <speed>0.0</speed>
  <fix>3d</fix>
</trkpt>
<trkpt lat="64.1624775" lon="-139.8402243">
  <ele>1109.06</ele>
  <time>2026-09-01T20:02:19Z</time>
  <course>6.72</course>
  <speed>0.022360679774997897</speed>
  <fix>3d</fix>
</trkpt>
<trkpt lat="64.1624777" lon="-139.8402246">
  <ele>1109.09</ele>
  <time>2026-09-01T20:02:19Z</time>
  <course>180.78</course>
  <speed>0.0</speed>
  <fix>3d</fix>
</trkpt>
<trkpt lat="64.1624775" lon="-139.8402243">
  <ele>1109.06</ele>
  <time>2026-09-01T20:02:19Z</time>
  <course>6.73</course>
  <speed>0.022360679774997897</speed>
  <fix>3d</fix>
</trkpt>
<trkpt lat="64.1624777" lon="-139.8402246">
  <ele>1109.09</ele>
  <time>2026-09-01T20:02:19Z</time>
  <course>180.78</course>
  <speed>0.0</speed>
  <fix>3d</fix>
</trkpt>
<trkpt lat="64.1624775" lon="-139.8402243">
  <ele>1109.06</ele>
  <time>2026-09-01T20:02:19Z</time>
  <course>6.73</course>
  <speed>0.022360679774997897</speed>
  <fix>3d</fix>
</trkpt>
<trkpt lat="64.1624777" lon="-139.8402246">
  <ele>1109.09</ele>
  <time>2026-09-01T20:02:19Z</time>
  <course>180.78</course>
  <speed>0.0</speed>
  <fix>3d</fix>
</trkpt>
<trkpt lat="64.1624775" lon="-139.8402243">
  <ele>1109.06</ele>
  <time>2026-09-01T20:02:19Z</time>
  <course>6.73</course>
  <speed>0.022360679774997897</speed>
  <fix>3d</fix>
</trkpt>
<trkpt lat="64.1624777" lon="-139.8402246">
  <ele>1109.09</ele>
  <time>2026-09-01T20:02:19Z</time>
  <course>180.78</course>
  <speed>0.0</speed>
  <fix>3d</fix>
</trkpt>
<trkpt lat="64.1624775" lon="-139.8402243">
  <ele>1109.07</ele>
  <time>2026-09-01T20:02:19Z</time>
  <course>6.73</course>
  <speed>0.022360679774997897</speed>
  <fix>3d</fix>
</trkpt>
<trkpt lat="64.1624777" lon="-139.8402246">
  <ele>1109.09</ele>
  <time>2026-09-01T20:02:19Z</time>
  <course>180.78</course>
  <speed>0.0</speed>
  <fix>3d</fix>
</trkpt>
<trkpt lat="64.1624775" lon="-139.8402243">
  <ele>1109.07</ele>
  <time>2026-09-01T20:02:19Z</time>
  <course>6.73</course>
  <speed>0.022360679774997897</speed>
  <fix>3d</fix>
</trkpt>
<trkpt lat="64.1624777" lon="-139.8402246">
  <ele>1109.09</ele>
  <time>2026-09-01T20:02:19Z</time>
  <course>180.78</course>
  <speed>0.0</speed>
  <fix>3d</fix>
</trkpt>
<trkpt lat="64.1624775" lon="-139.8402243">
  <ele>1109.07</ele>
  <time>2026-09-01T20:02:19Z</time>
  <course>6.73</course>
  <speed>0.022360679774997897</speed>
  <fix>3d</fix>
</trkpt>
<trkpt lat="64.1624777" lon="-139.8402246">
  <ele>1109.09</ele>
  <time>2026-09-01T20:02:19Z</time>
  <course>180.78</course>
  <speed>0.0</speed>
  <fix>3d</fix>
</trkpt>
<trkpt lat="64.1624775" lon="-139.8402243">
  <ele>1109.07</ele>
  <time>2026-09-01T20:02:19Z</time>
  <course>6.73</course>
  <speed>0.022360679774997897</speed>
  <fix>3d</fix>
</trkpt>
<trkpt lat="64.1624777" lon="-139.8402246">
  <ele>1109.09</ele>
  <time>2026-09-01T20:02:19Z</time>
  <course>180.78</course>
  <speed>0.0</speed>
  <fix>3d</fix>
</trkpt>
<trkpt lat="64.1624775" lon="-139.8402243">
  <ele>1109.07</ele>
  <time>2026-09-01T20:02:19Z</time>
  <course>6.73</course>
  <speed>0.022360679774997897</speed>
  <fix>3d</fix>
</trkpt>
<trkpt lat="64.1624777" lon="-139.8402246">
  <ele>1109.09</ele>
  <time>2026-09-01T20:02:19Z</time>
  <course>180.78</course>
  <speed>0.0</speed>
  <fix>3d</fix>
</trkpt>
<trkpt lat="64.1624775" lon="-139.8402243">
  <ele>1109.07</ele>
  <time>2026-09-01T20:02:19Z</time>
  <course>6.73</course>
  <speed>0.022360679774997897</speed>
  <fix>3d</fix>
</trkpt>
<trkpt lat="64.1624777" lon="-139.8402246">
  <ele>1109.09</ele>
  <time>2026-09-01T20:02:19Z</time>
  <course>180.78</course>
  <speed>0.0</speed>
  <fix>3d</fix>
</trkpt>
<trkpt lat="64.1624775" lon="-139.8402243">
  <ele>1109.07</ele>
  <time>2026-09-01T20:02:19Z</time>
  <course>6.73</course>
  <speed>0.022360679774997897</speed>
  <fix>3d</fix>
</trkpt>
<trkpt lat="64.1624777" lon="-139.8402246">
  <ele>1109.09</ele>
  <time>2026-09-01T20:02:19Z</time>
  <course>180.78</course>
  <speed>0.0</speed>
  <fix>3d</fix>
</trkpt>
<trkpt lat="64.1624775" lon="-139.8402243">
  <ele>1109.07</ele>
  <time>2026-09-01T20:02:19Z</time>
  <course>6.74</course>
  <speed>0.022360679774997897</speed>
  <fix>3d</fix>
</trkpt>
<trkpt lat="64.1624777" lon="-139.8402246">
  <ele>1109.09</ele>
  <time>2026-09-01T20:02:19Z</time>
  <course>180.78</course>
  <speed>0.0</speed>
  <fix>3d</fix>
</trkpt>
<trkpt lat="64.1624775" lon="-139.8402243">
  <ele>1109.07</ele>
  <time>2026-09-01T20:02:19Z</time>
  <course>6.74</course>
  <speed>0.022360679774997897</speed>
  <fix>3d</fix>
</trkpt>
<trkpt lat="64.1624777" lon="-139.8402246">
  <ele>1109.09</ele>
  <time>2026-09-01T20:02:19Z</time>
  <course>180.78</course>
  <speed>0.0</speed>
  <fix>3d</fix>
</trkpt>
<trkpt lat="64.1624775" lon="-139.8402243">
  <ele>1109.07</ele>
  <time>2026-09-01T20:02:19Z</time>
  <course>6.74</course>
  <speed>0.022360679774997897</speed>
  <fix>3d</fix>
</trkpt>
<trkpt lat="64.1624777" lon="-139.8402246">
  <ele>1109.09</ele>
  <time>2026-09-01T20:02:19Z</time>
  <course>180.78</course>
  <speed>0.0</speed>
  <fix>3d</fix>
</trkpt>
<trkpt lat="64.1624775" lon="-139.8402243">
  <ele>1109.07</ele>
  <time>2026-09-01T20:02:19Z</time>
  <course>6.74</course>
  <speed>0.022360679774997897</speed>
  <fix>3d</fix>
</trkpt>
<trkpt lat="64.1624777" lon="-139.8402246">
  <ele>1109.09</ele>
  <time>2026-09-01T20:02:19Z</time>
  <course>180.78</course>
  <speed>0.0</speed>
  <fix>3d</fix>
</trkpt>
<trkpt lat="64.1624775" lon="-139.8402243">
  <ele>1109.07</ele>
  <time>2026-09-01T20:02:19Z</time>
  <course>6.74</course>
  <speed>0.022360679774997897</speed>
  <fix>3d</fix>
</trkpt>
<trkpt lat="64.1624777" lon="-139.8402246">
  <ele>1109.09</ele>
  <time>2026-09-01T20:02:19Z</time>
  <course>180.78</course>
  <speed>0.0</speed>
  <fix>3d</fix>
</trkpt>
<trkpt lat="64.1624775" lon="-139.8402243">
  <ele>1109.07</ele>
  <time>2026-09-01T20:02:19Z</time>
  <course>6.74</course>
  <speed>0.022360679774997897</speed>
  <fix>3d</fix>
</trkpt>
<trkpt lat="64.1624777" lon="-139.8402246">
  <ele>1109.09</ele>
  <time>2026-09-01T20:02:19Z</time>
  <course>180.78</course>
  <speed>0.0</speed>
  <fix>3d</fix>
</trkpt>
<trkpt lat="64.1624775" lon="-139.8402243">
  <ele>1109.07</ele>
  <time>2026-09-01T20:02:19Z</time>
  <course>6.74</course>
  <speed>0.022360679774997897</speed>
  <fix>3d</fix>
</trkpt>
<trkpt lat="64.1624777" lon="-139.8402246">
  <ele>1109.09</ele>
  <time>2026-09-01T20:02:19Z</time>
  <course>180.78</course>
  <speed>0.0</speed>
  <fix>3d</fix>
</trkpt>
<trkpt lat="64.1624775" lon="-139.8402243">
  <ele>1109.07</ele>
  <time>2026-09-01T20:02:19Z</time>
  <course>6.74</course>
  <speed>0.022360679774997897</speed>
  <fix>3d</fix>
</trkpt>
<trkpt lat="64.1624777" lon="-139.8402246">
  <ele>1109.09</ele>
  <time>2026-09-01T20:02:19Z</time>
  <course>180.78</course>
  <speed>0.0</speed>
  <fix>3d</fix>
</trkpt>
<trkpt lat="64.1624775" lon="-139.8402243">
  <ele>1109.07</ele>
  <time>2026-09-01T20:02:19Z</time>
  <course>6.74</course>
  <speed>0.022360679774997897</speed>
  <fix>3d</fix>
</trkpt>
<trkpt lat="64.1624777" lon="-139.8402246">
  <ele>1109.09</ele>
  <time>2026-09-01T20:02:19Z</time>
  <course>180.78</course>
  <speed>0.0</speed>
  <fix>3d</fix>
</trkpt>
<trkpt lat="64.1624775" lon="-139.8402243">
  <ele>1109.07</ele>
  <time>2026-09-01T20:02:19Z</time>
  <course>6.75</course>
  <speed>0.022360679774997897</speed>
  <fix>3d</fix>
</trkpt>
<trkpt lat="64.1624777" lon="-139.8402246">
  <ele>1109.09</ele>
  <time>2026-09-01T20:02:19Z</time>
  <course>180.78</course>
  <speed>0.0</speed>
  <fix>3d</fix>
</trkpt>
<trkpt lat="64.1624775" lon="-139.8402243">
  <ele>1109.07</ele>
  <time>2026-09-01T20:02:19Z</time>
  <course>6.75</course>
  <speed>0.022360679774997897</speed>
  <fix>3d</fix>
</trkpt>
<trkpt lat="64.1624777" lon="-139.8402246">
  <ele>1109.09</ele>
  <time>2026-09-01T20:02:19Z</time>
  <course>180.78</course>
  <speed>0.0</speed>
  <fix>3d</fix>
</trkpt>
<trkpt lat="64.1624775" lon="-139.8402243">
  <ele>1109.07</ele>
  <time>2026-09-01T20:02:19Z</time>
  <course>6.75</course>
  <speed>0.022360679774997897</speed>
  <fix>3d</fix>
</trkpt>
<trkpt lat="64.1624777" lon="-139.8402246">
  <ele>1109.09</ele>
  <time>2026-09-01T20:02:19Z</time>
  <course>180.78</course>
  <speed>0.0</speed>
  <fix>3d</fix>
</trkpt>
<trkpt lat="64.1624775" lon="-139.8402243">
  <ele>1109.07</ele>
  <time>2026-09-01T20:02:19Z</time>
  <course>6.75</course>
  <speed>0.022360679774997897</speed>
  <fix>3d</fix>
</trkpt>
<trkpt lat="64.1624777" lon="-139.8402246">
  <ele>1109.09</ele>
  <time>2026-09-01T20:02:19Z</time>
  <course>180.78</course>
  <speed>0.0</speed>
  <fix>3d</fix>
</trkpt>
<trkpt lat="64.1624775" lon="-139.8402243">
  <ele>1109.07</ele>
  <time>2026-09-01T20:02:19Z</time>
  <course>6.75</course>
  <speed>0.022360679774997897</speed>
  <fix>3d</fix>
</trkpt>
<trkpt lat="64.1624777" lon="-139.8402246">
  <ele>1109.09</ele>
  <time>2026-09-01T20:02:19Z</time>
  <course>180.78</course>
  <speed>0.0</speed>
  <fix>3d</fix>
</trkpt>
<trkpt lat="64.1624775" lon="-139.8402243">
  <ele>1109.07</ele>
  <time>2026-09-01T20:02:19Z</time>
  <course>6.75</course>
  <speed>0.022360679774997897</speed>
  <fix>3d</fix>
</trkpt>
<trkpt lat="64.1624777" lon="-139.8402246">
  <ele>1109.09</ele>
  <time>2026-09-01T20:02:19Z</time>
  <course>180.78</course>
  <speed>0.0</speed>
  <fix>3d</fix>
</trkpt>
<trkpt lat="64.1624775" lon="-139.8402243">
  <ele>1109.07</ele>
  <time>2026-09-01T20:02:19Z</time>
  <course>6.75</course>
  <speed>0.022360679774997897</speed>
  <fix>3d</fix>
</trkpt>
<trkpt lat="64.1624777" lon="-139.8402246">
  <ele>1109.09</ele>
  <time>2026-09-01T20:02:19Z</time>
  <course>180.78</course>
  <speed>0.0</speed>
  <fix>3d</fix>
</trkpt>
<trkpt lat="64.1624775" lon="-139.8402243">
  <ele>1109.07</ele>
  <time>2026-09-01T20:02:19Z</time>
  <course>6.75</course>
  <speed>0.022360679774997897</speed>
  <fix>3d</fix>
</trkpt>
<trkpt lat="64.1624777" lon="-139.8402246">
  <ele>1109.09</ele>
  <time>2026-09-01T20:02:19Z</time>
  <course>180.78</course>
  <speed>0.0</speed>
  <fix>3d</fix>
</trkpt>
<trkpt lat="64.1624775" lon="-139.8402243">
  <ele>1109.07</ele>
  <time>2026-09-01T20:02:19Z</time>
  <course>6.75</course>
  <speed>0.022360679774997897</speed>
  <fix>3d</fix>
</trkpt>
<trkpt lat="64.1624777" lon="-139.8402246">
  <ele>1109.09</ele>
  <time>2026-09-01T20:02:19Z</time>
  <course>180.78</course>
  <speed>0.0</speed>
  <fix>3d</fix>
</trkpt>
<trkpt lat="64.1624775" lon="-139.8402243">
  <ele>1109.07</ele>
  <time>2026-09-01T20:02:19Z</time>
  <course>6.76</course>
  <speed>0.022360679774997897</speed>
  <fix>3d</fix>
</trkpt>
<trkpt lat="64.1624777" lon="-139.8402246">
  <ele>1109.09</ele>
  <time>2026-09-01T20:02:19Z</time>
  <course>180.78</course>
  <speed>0.0</speed>
  <fix>3d</fix>
</trkpt>
<trkpt lat="64.1624775" lon="-139.8402243">
  <ele>1109.07</ele>
  <time>2026-09-01T20:02:19Z</time>
  <course>6.76</course>
  <speed>0.022360679774997897</speed>
  <fix>3d</fix>
</trkpt>
<trkpt lat="64.1624777" lon="-139.8402246">
  <ele>1109.09</ele>
  <time>2026-09-01T20:02:19Z</time>
  <course>180.78</course>
  <speed>0.0</speed>
  <fix>3d</fix>
</trkpt>
<trkpt lat="64.1624775" lon="-139.8402243">
  <ele>1109.07</ele>
  <time>2026-09-01T20:02:19Z</time>
  <course>6.76</course>
  <speed>0.022360679774997897</speed>
  <fix>3d</fix>
</trkpt>
<trkpt lat="64.1624777" lon="-139.8402246">
  <ele>1109.09</ele>
  <time>2026-09-01T20:02:19Z</time>
  <course>180.78</course>
  <speed>0.0</speed>
  <fix>3d</fix>
</trkpt>
<trkpt lat="64.1624775" lon="-139.8402243">
  <ele>1109.07</ele>
  <time>2026-09-01T20:02:19Z</time>
  <course>6.76</course>
  <speed>0.022360679774997897</speed>
  <fix>3d</fix>
</trkpt>
<trkpt lat="64.1624777" lon="-139.8402246">
  <ele>1109.09</ele>
  <time>2026-09-01T20:02:19Z</time>
  <course>180.78</course>
  <speed>0.0</speed>
  <fix>3d</fix>
</trkpt>
<trkpt lat="64.1624775" lon="-139.8402243">
  <ele>1109.07</ele>
  <time>2026-09-01T20:02:19Z</time>
  <course>6.76</course>
  <speed>0.022360679774997897</speed>
  <fix>3d</fix>
</trkpt>
<trkpt lat="64.1624777" lon="-139.8402246">
  <ele>1109.09</ele>
  <time>2026-09-01T20:02:19Z</time>
  <course>180.78</course>
  <speed>0.0</speed>
  <fix>3d</fix>
</trkpt>
<trkpt lat="64.1624775" lon="-139.8402243">
  <ele>1109.07</ele>
  <time>2026-09-01T20:02:19Z</time>
  <course>6.76</course>
  <speed>0.022360679774997897</speed>
  <fix>3d</fix>
</trkpt>
<trkpt lat="64.1624777" lon="-139.8402246">
  <ele>1109.09</ele>
  <time>2026-09-01T20:02:19Z</time>
  <course>180.78</course>
  <speed>0.0</speed>
  <fix>3d</fix>
</trkpt>
<trkpt lat="64.1624775" lon="-139.8402243">
  <ele>1109.09</ele>
  <time>2026-09-01T20:02:19Z</time>
  <course>6.76</course>
  <speed>0.022360679774997897</speed>
  <fix>3d</fix>
</trkpt>
<trkpt lat="64.1624777" lon="-139.8402246">
  <ele>1109.09</ele>
  <time>2026-09-01T20:02:19Z</time>
  <course>180.78</course>
  <speed>0.0</speed>
  <fix>3d</fix>
</trkpt>
<trkpt lat="64.1624775" lon="-139.8402243">
  <ele>1109.08</ele>
  <time>2026-09-01T20:02:19Z</time>
  <course>6.76</course>
  <speed>0.022360679774997897</speed>
  <fix>3d</fix>
</trkpt>
<trkpt lat="64.1624777" lon="-139.8402246">
  <ele>1109.09</ele>
  <time>2026-09-01T20:02:19Z</time>
  <course>180.78</course>
  <speed>0.0</speed>
  <fix>3d</fix>
</trkpt>
<trkpt lat="64.1624775" lon="-139.8402243">
  <ele>1109.08</ele>
  <time>2026-09-01T20:02:19Z</time>
  <course>6.76</course>
  <speed>0.022360679774997897</speed>
  <fix>3d</fix>
</trkpt>
<trkpt lat="64.1624777" lon="-139.8402246">
  <ele>1109.09</ele>
  <time>2026-09-01T20:02:19Z</time>
  <course>180.78</course>
  <speed>0.0</speed>
  <fix>3d</fix>
</trkpt>
<trkpt lat="64.1624775" lon="-139.8402243">
  <ele>1109.09</ele>
  <time>2026-09-01T20:02:19Z</time>
  <course>6.76</course>
  <speed>0.022360679774997897</speed>
  <fix>3d</fix>
</trkpt>
<trkpt lat="64.1624777" lon="-139.8402246">
  <ele>1109.09</ele>
  <time>2026-09-01T20:02:19Z</time>
  <course>180.78</course>
  <speed>0.0</speed>
  <fix>3d</fix>
</trkpt>
<trkpt lat="64.1624775" lon="-139.8402243">
  <ele>1109.09</ele>
  <time>2026-09-01T20:02:19Z</time>
  <course>6.77</course>
  <speed>0.022360679774997897</speed>
  <fix>3d</fix>
</trkpt>
<trkpt lat="64.1624777" lon="-139.8402246">
  <ele>1109.09</ele>
  <time>2026-09-01T20:02:19Z</time>
  <course>180.78</course>
  <speed>0.0</speed>
  <fix>3d</fix>
</trkpt>
<trkpt lat="64.1624775" lon="-139.8402243">
  <ele>1109.09</ele>
  <time>2026-09-01T20:02:19Z</time>
  <course>6.77</course>
  <speed>0.022360679774997897</speed>
  <fix>3d</fix>
</trkpt>
<trkpt lat="64.1624777" lon="-139.8402246">
  <ele>1109.09</ele>
  <time>2026-09-01T20:02:19Z</time>
  <course>180.78</course>
  <speed>0.0</speed>
  <fix>3d</fix>
</trkpt>
<trkpt lat="64.1624775" lon="-139.8402243">
  <ele>1109.1</ele>
  <time>2026-09-01T20:02:19Z</time>
  <course>6.77</course>
  <speed>0.022360679774997897</speed>
  <fix>3d</fix>
</trkpt>
<trkpt lat="64.1624777" lon="-139.8402246">
  <ele>1109.09</ele>
  <time>2026-09-01T20:02:19Z</time>
  <course>180.78</course>
  <speed>0.0</speed>
  <fix>3d</fix>
</trkpt>
<trkpt lat="64.1624775" lon="-139.8402243">
  <ele>1109.1</ele>
  <time>2026-09-01T20:02:19Z</time>
  <course>6.77</course>
  <speed>0.022360679774997897</speed>
  <fix>3d</fix>
</trkpt>
<trkpt lat="64.1624777" lon="-139.8402246">
  <ele>1109.09</ele>
  <time>2026-09-01T20:02:19Z</time>
  <course>180.78</course>
  <speed>0.0</speed>
  <fix>3d</fix>
</trkpt>
<trkpt lat="64.1624775" lon="-139.8402243">
  <ele>1109.1</ele>
  <time>2026-09-01T20:02:19Z</time>
  <course>6.77</course>
  <speed>0.022360679774997897</speed>
  <fix>3d</fix>
</trkpt>
<trkpt lat="64.1624777" lon="-139.8402246">
  <ele>1109.09</ele>
  <time>2026-09-01T20:02:19Z</time>
  <course>180.78</course>
  <speed>0.0</speed>
  <fix>3d</fix>
</trkpt>
<trkpt lat="64.1624775" lon="-139.8402243">
  <ele>1109.11</ele>
  <time>2026-09-01T20:02:19Z</time>
  <course>6.77</course>
  <speed>0.022360679774997897</speed>
  <fix>3d</fix>
</trkpt>
<trkpt lat="64.1624777" lon="-139.8402246">
  <ele>1109.09</ele>
  <time>2026-09-01T20:02:19Z</time>
  <course>180.78</course>
  <speed>0.0</speed>
  <fix>3d</fix>
</trkpt>
<trkpt lat="64.1624775" lon="-139.8402243">
  <ele>1109.11</ele>
  <time>2026-09-01T20:02:19Z</time>
  <course>6.77</course>
  <speed>0.022360679774997897</speed>
  <fix>3d</fix>
</trkpt>
<trkpt lat="64.1624777" lon="-139.8402246">
  <ele>1109.09</ele>
  <time>2026-09-01T20:02:19Z</time>
  <course>180.78</course>
  <speed>0.0</speed>
  <fix>3d</fix>
</trkpt>
<trkpt lat="64.1624775" lon="-139.8402243">
  <ele>1109.12</ele>
  <time>2026-09-01T20:02:19Z</time>
  <course>6.77</course>
  <speed>0.022360679774997897</speed>
  <fix>3d</fix>
</trkpt>
<trkpt lat="64.1624777" lon="-139.8402246">
  <ele>1109.09</ele>
  <time>2026-09-01T20:02:19Z</time>
  <course>180.78</course>
  <speed>0.0</speed>
  <fix>3d</fix>
</trkpt>
<trkpt lat="64.1624775" lon="-139.8402243">
  <ele>1109.12</ele>
  <time>2026-09-01T20:02:19Z</time>
  <course>6.77</course>
  <speed>0.022360679774997897</speed>
  <fix>3d</fix>
</trkpt>
<trkpt lat="64.1624777" lon="-139.8402246">
  <ele>1109.09</ele>
  <time>2026-09-01T20:02:19Z</time>
  <course>180.78</course>
  <speed>0.0</speed>
  <fix>3d</fix>
</trkpt>
<trkpt lat="64.1624775" lon="-139.8402243">
  <ele>1109.12</ele>
  <time>2026-09-01T20:02:19Z</time>
  <course>6.77</course>
  <speed>0.022360679774997897</speed>
  <fix>3d</fix>
</trkpt>
<trkpt lat="64.1624777" lon="-139.8402246">
  <ele>1109.09</ele>
  <time>2026-09-01T20:02:19Z</time>
  <course>180.78</course>
  <speed>0.0</speed>
  <fix>3d</fix>
</trkpt>
<trkpt lat="64.1624775" lon="-139.8402243">
  <ele>1109.13</ele>
  <time>2026-09-01T20:02:19Z</time>
  <course>6.78</course>
  <speed>0.022360679774997897</speed>
  <fix>3d</fix>
</trkpt>
<trkpt lat="64.1624777" lon="-139.8402246">
  <ele>1109.09</ele>
  <time>2026-09-01T20:02:19Z</time>
  <course>180.78</course>
  <speed>0.0</speed>
  <fix>3d</fix>
</trkpt>
<trkpt lat="64.1624775" lon="-139.8402243">
  <ele>1109.13</ele>
  <time>2026-09-01T20:02:19Z</time>
  <course>6.78</course>
  <speed>0.022360679774997897</speed>
  <fix>3d</fix>
</trkpt>
<trkpt lat="64.1624777" lon="-139.8402246">
  <ele>1109.09</ele>
  <time>2026-09-01T20:02:19Z</time>
  <course>180.78</course>
  <speed>0.0</speed>
  <fix>3d</fix>
</trkpt>
<trkpt lat="64.1624775" lon="-139.8402243">
  <ele>1109.14</ele>
  <time>2026-09-01T20:02:19Z</time>
  <course>6.78</course>
  <speed>0.022360679774997897</speed>
  <fix>3d</fix>
</trkpt>
<trkpt lat="64.1624777" lon="-139.8402246">
  <ele>1109.09</ele>
  <time>2026-09-01T20:02:19Z</time>
  <course>180.78</course>
  <speed>0.0</speed>
  <fix>3d</fix>
</trkpt>
<trkpt lat="64.1624775" lon="-139.8402243">
  <ele>1109.14</ele>
  <time>2026-09-01T20:02:19Z</time>
  <course>6.78</course>
  <speed>0.022360679774997897</speed>
  <fix>3d</fix>
</trkpt>
<trkpt lat="64.1624777" lon="-139.8402246">
  <ele>1109.09</ele>
  <time>2026-09-01T20:02:19Z</time>
  <course>180.78</course>
  <speed>0.0</speed>
  <fix>3d</fix>
</trkpt>
<trkpt lat="64.1624775" lon="-139.8402243">
  <ele>1109.14</ele>
  <time>2026-09-01T20:02:19Z</time>
  <course>6.78</course>
  <speed>0.022360679774997897</speed>
  <fix>3d</fix>
</trkpt>
<trkpt lat="64.1624777" lon="-139.8402246">
  <ele>1109.09</ele>
  <time>2026-09-01T20:02:19Z</time>
  <course>180.78</course>
  <speed>0.0</speed>
  <fix>3d</fix>
</trkpt>
<trkpt lat="64.1624775" lon="-139.8402243">
  <ele>1109.14</ele>
  <time>2026-09-01T20:02:19Z</time>
  <course>6.78</course>
  <speed>0.022360679774997897</speed>
  <fix>3d</fix>
</trkpt>
<trkpt lat="64.1624777" lon="-139.8402246">
  <ele>1109.09</ele>
  <time>2026-09-01T20:02:19Z</time>
  <course>180.78</course>
  <speed>0.0</speed>
  <fix>3d</fix>
</trkpt>
<trkpt lat="64.1624775" lon="-139.8402243">
  <ele>1109.15</ele>
  <time>2026-09-01T20:02:19Z</time>
  <course>6.78</course>
  <speed>0.022360679774997897</speed>
  <fix>3d</fix>
</trkpt>
<trkpt lat="64.1624777" lon="-139.8402246">
  <ele>1109.09</ele>
  <time>2026-09-01T20:02:19Z</time>
  <course>180.78</course>
  <speed>0.0</speed>
  <fix>3d</fix>
</trkpt>
<trkpt lat="64.1624775" lon="-139.8402243">
  <ele>1109.15</ele>
  <time>2026-09-01T20:02:19Z</time>
  <course>6.78</course>
  <speed>0.022360679774997897</speed>
  <fix>3d</fix>
</trkpt>
<trkpt lat="64.1624777" lon="-139.8402246">
  <ele>1109.09</ele>
  <time>2026-09-01T20:02:19Z</time>
  <course>180.78</course>
  <speed>0.0</speed>
  <fix>3d</fix>
</trkpt>
<trkpt lat="64.1624775" lon="-139.8402243">
  <ele>1109.15</ele>
  <time>2026-09-01T20:02:19Z</time>
  <course>6.78</course>
  <speed>0.022360679774997897</speed>
  <fix>3d</fix>
</trkpt>
<trkpt lat="64.1624777" lon="-139.8402246">
  <ele>1109.09</ele>
  <time>2026-09-01T20:02:19Z</time>
  <course>180.78</course>
  <speed>0.0</speed>
  <fix>3d</fix>
</trkpt>
<trkpt lat="64.1624775" lon="-139.8402243">
  <ele>1109.16</ele>
  <time>2026-09-01T20:02:19Z</time>
  <course>6.79</course>
  <speed>0.022360679774997897</speed>
  <fix>3d</fix>
</trkpt>
<trkpt lat="64.1624777" lon="-139.8402246">
  <ele>1109.09</ele>
  <time>2026-09-01T20:02:19Z</time>
  <course>180.78</course>
  <speed>0.0</speed>
  <fix>3d</fix>
</trkpt>
<trkpt lat="64.1624775" lon="-139.8402243">
  <ele>1109.16</ele>
  <time>2026-09-01T20:02:19Z</time>
  <course>6.79</course>
  <speed>0.022360679774997897</speed>
  <fix>3d</fix>
</trkpt>
<trkpt lat="64.1624777" lon="-139.8402246">
  <ele>1109.09</ele>
  <time>2026-09-01T20:02:19Z</time>
  <course>180.78</course>
  <speed>0.0</speed>
  <fix>3d</fix>
</trkpt>
<trkpt lat="64.1624775" lon="-139.8402243">
  <ele>1109.16</ele>
  <time>2026-09-01T20:02:19Z</time>
  <course>6.79</course>
  <speed>0.022360679774997897</speed>
  <fix>3d</fix>
</trkpt>
<trkpt lat="64.1624777" lon="-139.8402246">
  <ele>1109.09</ele>
  <time>2026-09-01T20:02:19Z</time>
  <course>180.78</course>
  <speed>0.0</speed>
  <fix>3d</fix>
</trkpt>
<trkpt lat="64.1624775" lon="-139.8402243">
  <ele>1109.17</ele>
  <time>2026-09-01T20:02:19Z</time>
  <course>6.79</course>
  <speed>0.022360679774997897</speed>
  <fix>3d</fix>
</trkpt>
<trkpt lat="64.1624777" lon="-139.8402246">
  <ele>1109.09</ele>
  <time>2026-09-01T20:02:19Z</time>
  <course>180.78</course>
  <speed>0.0</speed>
  <fix>3d</fix>
</trkpt>
<trkpt lat="64.1624775" lon="-139.8402243">
  <ele>1109.17</ele>
  <time>2026-09-01T20:02:19Z</time>
  <course>6.79</course>
  <speed>0.022360679774997897</speed>
  <fix>3d</fix>
</trkpt>
<trkpt lat="64.1624777" lon="-139.8402246">
  <ele>1109.09</ele>
  <time>2026-09-01T20:02:19Z</time>
  <course>180.78</course>
  <speed>0.0</speed>
  <fix>3d</fix>
</trkpt>
<trkpt lat="64.1624775" lon="-139.8402243">
  <ele>1109.18</ele>
  <time>2026-09-01T20:02:19Z</time>
  <course>6.79</course>
  <speed>0.022360679774997897</speed>
  <fix>3d</fix>
</trkpt>
<trkpt lat="64.1624777" lon="-139.8402246">
  <ele>1109.09</ele>
  <time>2026-09-01T20:02:19Z</time>
  <course>180.78</course>
  <speed>0.0</speed>
  <fix>3d</fix>
</trkpt>
<trkpt lat="64.1624775" lon="-139.8402243">
  <ele>1109.18</ele>
  <time>2026-09-01T20:02:19Z</time>
  <course>6.79</course>
  <speed>0.022360679774997897</speed>
  <fix>3d</fix>
</trkpt>
<trkpt lat="64.1624777" lon="-139.8402246">
  <ele>1109.09</ele>
  <time>2026-09-01T20:02:19Z</time>
  <course>180.78</course>
  <speed>0.0</speed>
  <fix>3d</fix>
</trkpt>
<trkpt lat="64.1624775" lon="-139.8402243">
  <ele>1109.18</ele>
  <time>2026-09-01T20:02:19Z</time>
  <course>6.79</course>
  <speed>0.022360679774997897</speed>
  <fix>3d</fix>
</trkpt>
<trkpt lat="64.1624777" lon="-139.8402246">
  <ele>1109.09</ele>
  <time>2026-09-01T20:02:19Z</time>
  <course>180.78</course>
  <speed>0.0</speed>
  <fix>3d</fix>
</trkpt>
<trkpt lat="64.1624775" lon="-139.8402243">
  <ele>1109.18</ele>
  <time>2026-09-01T20:02:19Z</time>
  <course>6.79</course>
  <speed>0.022360679774997897</speed>
  <fix>3d</fix>
</trkpt>
<trkpt lat="64.1624777" lon="-139.8402246">
  <ele>1109.09</ele>
  <time>2026-09-01T20:02:19Z</time>
  <course>180.78</course>
  <speed>0.0</speed>
  <fix>3d</fix>
</trkpt>
<trkpt lat="64.1624775" lon="-139.8402243">
  <ele>1109.19</ele>
  <time>2026-09-01T20:02:19Z</time>
  <course>6.79</course>
  <speed>0.022360679774997897</speed>
  <fix>3d</fix>
</trkpt>
<trkpt lat="64.1624777" lon="-139.8402246">
  <ele>1109.09</ele>
  <time>2026-09-01T20:02:19Z</time>
  <course>180.78</course>
  <speed>0.0</speed>
  <fix>3d</fix>
</trkpt>
<trkpt lat="64.1624775" lon="-139.8402243">
  <ele>1109.19</ele>
  <time>2026-09-01T20:02:19Z</time>
  <course>6.8</course>
  <speed>0.022360679774997897</speed>
  <fix>3d</fix>
</trkpt>
<trkpt lat="64.1624777" lon="-139.8402246">
  <ele>1109.09</ele>
  <time>2026-09-01T20:02:19Z</time>
  <course>180.78</course>
  <speed>0.0</speed>
  <fix>3d</fix>
</trkpt>
<trkpt lat="64.1624775" lon="-139.8402243">
  <ele>1109.19</ele>
  <time>2026-09-01T20:02:19Z</time>
  <course>6.8</course>
  <speed>0.022360679774997897</speed>
  <fix>3d</fix>
</trkpt>
<trkpt lat="64.1624777" lon="-139.8402246">
  <ele>1109.09</ele>
  <time>2026-09-01T20:02:19Z</time>
  <course>180.78</course>
  <speed>0.0</speed>
  <fix>3d</fix>
</trkpt>
<trkpt lat="64.1624775" lon="-139.8402243">
  <ele>1109.2</ele>
  <time>2026-09-01T20:02:19Z</time>
  <course>6.8</course>
  <speed>0.022360679774997897</speed>
  <fix>3d</fix>
</trkpt>
<trkpt lat="64.1624777" lon="-139.8402246">
  <ele>1109.09</ele>
  <time>2026-09-01T20:02:19Z</time>
  <course>180.78</course>
  <speed>0.0</speed>
  <fix>3d</fix>
</trkpt>
<trkpt lat="64.1624775" lon="-139.8402243">
  <ele>1109.2</ele>
  <time>2026-09-01T20:02:20Z</time>
  <course>6.8</course>
  <speed>0.022360679774997897</speed>
  <fix>3d</fix>
</trkpt>
<trkpt lat="64.1624777" lon="-139.8402246">
  <ele>1109.09</ele>
  <time>2026-09-01T20:02:20Z</time>
  <course>180.78</course>
  <speed>0.0</speed>
  <fix>3d</fix>
</trkpt>
<trkpt lat="64.1624775" lon="-139.8402243">
  <ele>1109.2</ele>
  <time>2026-09-01T20:02:20Z</time>
  <course>6.8</course>
  <speed>0.022360679774997897</speed>
  <fix>3d</fix>
</trkpt>
<trkpt lat="64.1624777" lon="-139.8402246">
  <ele>1109.09</ele>
  <time>2026-09-01T20:02:20Z</time>
  <course>180.78</course>
  <speed>0.0</speed>
  <fix>3d</fix>
</trkpt>
<trkpt lat="64.1624775" lon="-139.8402243">
  <ele>1109.21</ele>
  <time>2026-09-01T20:02:20Z</time>
  <course>6.8</course>
  <speed>0.022360679774997897</speed>
  <fix>3d</fix>
</trkpt>
<trkpt lat="64.1624777" lon="-139.8402246">
  <ele>1109.09</ele>
  <time>2026-09-01T20:02:20Z</time>
  <course>180.78</course>
  <speed>0.0</speed>
  <fix>3d</fix>
</trkpt>
<trkpt lat="64.1624775" lon="-139.8402243">
  <ele>1109.21</ele>
  <time>2026-09-01T20:02:20Z</time>
  <course>6.8</course>
  <speed>0.022360679774997897</speed>
  <fix>3d</fix>
</trkpt>
<trkpt lat="64.1624777" lon="-139.8402246">
  <ele>1109.09</ele>
  <time>2026-09-01T20:02:20Z</time>
  <course>180.78</course>
  <speed>0.0</speed>
  <fix>3d</fix>
</trkpt>
<trkpt lat="64.1624775" lon="-139.8402243">
  <ele>1109.21</ele>
  <time>2026-09-01T20:02:20Z</time>
  <course>6.8</course>
  <speed>0.022360679774997897</speed>
  <fix>3d</fix>
</trkpt>
<trkpt lat="64.1624777" lon="-139.8402246">
  <ele>1109.09</ele>
  <time>2026-09-01T20:02:20Z</time>
  <course>180.78</course>
  <speed>0.0</speed>
  <fix>3d</fix>
</trkpt>
<trkpt lat="64.1624775" lon="-139.8402243">
  <ele>1109.22</ele>
  <time>2026-09-01T20:02:20Z</time>
  <course>6.8</course>
  <speed>0.022360679774997897</speed>
  <fix>3d</fix>
</trkpt>
<trkpt lat="64.1624777" lon="-139.8402246">
  <ele>1109.09</ele>
  <time>2026-09-01T20:02:20Z</time>
  <course>180.78</course>
  <speed>0.0</speed>
  <fix>3d</fix>
</trkpt>
<trkpt lat="64.1624775" lon="-139.8402243">
  <ele>1109.22</ele>
  <time>2026-09-01T20:02:20Z</time>
  <course>6.8</course>
  <speed>0.022360679774997897</speed>
  <fix>3d</fix>
</trkpt>
<trkpt lat="64.1624777" lon="-139.8402246">
  <ele>1109.09</ele>
  <time>2026-09-01T20:02:20Z</time>
  <course>180.78</course>
  <speed>0.0</speed>
  <fix>3d</fix>
</trkpt>
<trkpt lat="64.1624775" lon="-139.8402243">
  <ele>1109.22</ele>
  <time>2026-09-01T20:02:20Z</time>
  <course>6.81</course>
  <speed>0.022360679774997897</speed>
  <fix>3d</fix>
</trkpt>
<trkpt lat="64.1624777" lon="-139.8402246">
  <ele>1109.09</ele>
  <time>2026-09-01T20:02:20Z</time>
  <course>180.78</course>
  <speed>0.0</speed>
  <fix>3d</fix>
</trkpt>
<trkpt lat="64.1624775" lon="-139.8402243">
  <ele>1109.22</ele>
  <time>2026-09-01T20:02:20Z</time>
  <course>6.81</course>
  <speed>0.022360679774997897</speed>
  <fix>3d</fix>
</trkpt>
<trkpt lat="64.1624777" lon="-139.8402246">
  <ele>1109.09</ele>
  <time>2026-09-01T20:02:20Z</time>
  <course>180.78</course>
  <speed>0.0</speed>
  <fix>3d</fix>
</trkpt>
<trkpt lat="64.1624775" lon="-139.8402243">
  <ele>1109.23</ele>
  <time>2026-09-01T20:02:20Z</time>
  <course>6.81</course>
  <speed>0.022360679774997897</speed>
  <fix>3d</fix>
</trkpt>
<trkpt lat="64.1624777" lon="-139.8402246">
  <ele>1109.09</ele>
  <time>2026-09-01T20:02:20Z</time>
  <course>180.78</course>
  <speed>0.0</speed>
  <fix>3d</fix>
</trkpt>
<trkpt lat="64.1624775" lon="-139.8402243">
  <ele>1109.23</ele>
  <time>2026-09-01T20:02:20Z</time>
  <course>6.81</course>
  <speed>0.022360679774997897</speed>
  <fix>3d</fix>
</trkpt>
<trkpt lat="64.1624777" lon="-139.8402246">
  <ele>1109.09</ele>
  <time>2026-09-01T20:02:20Z</time>
  <course>180.78</course>
  <speed>0.0</speed>
  <fix>3d</fix>
</trkpt>
<trkpt lat="64.1624775" lon="-139.8402243">
  <ele>1109.23</ele>
  <time>2026-09-01T20:02:20Z</time>
  <course>6.81</course>
  <speed>0.022360679774997897</speed>
  <fix>3d</fix>
</trkpt>
<trkpt lat="64.1624777" lon="-139.8402246">
  <ele>1109.09</ele>
  <time>2026-09-01T20:02:20Z</time>
  <course>180.78</course>
  <speed>0.0</speed>
  <fix>3d</fix>
</trkpt>
<trkpt lat="64.1624775" lon="-139.8402243">
  <ele>1109.23</ele>
  <time>2026-09-01T20:02:20Z</time>
  <course>6.81</course>
  <speed>0.022360679774997897</speed>
  <fix>3d</fix>
</trkpt>
<trkpt lat="64.1624777" lon="-139.8402246">
  <ele>1109.09</ele>
  <time>2026-09-01T20:02:20Z</time>
  <course>180.78</course>
  <speed>0.0</speed>
  <fix>3d</fix>
</trkpt>
<trkpt lat="64.1624775" lon="-139.8402243">
  <ele>1109.23</ele>
  <time>2026-09-01T20:02:20Z</time>
  <course>6.81</course>
  <speed>0.022360679774997897</speed>
  <fix>3d</fix>
</trkpt>
<trkpt lat="64.1624777" lon="-139.8402246">
  <ele>1109.09</ele>
  <time>2026-09-01T20:02:20Z</time>
  <course>180.78</course>
  <speed>0.0</speed>
  <fix>3d</fix>
</trkpt>
<trkpt lat="64.1624775" lon="-139.8402243">
  <ele>1109.23</ele>
  <time>2026-09-01T20:02:20Z</time>
  <course>6.81</course>
  <speed>0.022360679774997897</speed>
  <fix>3d</fix>
</trkpt>
<trkpt lat="64.1624777" lon="-139.8402246">
  <ele>1109.09</ele>
  <time>2026-09-01T20:02:20Z</time>
  <course>180.78</course>
  <speed>0.0</speed>
  <fix>3d</fix>
</trkpt>
<trkpt lat="64.1624775" lon="-139.8402243">
  <ele>1109.23</ele>
  <time>2026-09-01T20:02:20Z</time>
  <course>6.81</course>
  <speed>0.022360679774997897</speed>
  <fix>3d</fix>
</trkpt>
<trkpt lat="64.1624777" lon="-139.8402246">
  <ele>1109.09</ele>
  <time>2026-09-01T20:02:20Z</time>
  <course>180.78</course>
  <speed>0.0</speed>
  <fix>3d</fix>
</trkpt>
<trkpt lat="64.1624775" lon="-139.8402243">
  <ele>1109.23</ele>
  <time>2026-09-01T20:02:20Z</time>
  <course>6.81</course>
  <speed>0.022360679774997897</speed>
  <fix>3d</fix>
</trkpt>
<trkpt lat="64.1624777" lon="-139.8402246">
  <ele>1109.09</ele>
  <time>2026-09-01T20:02:20Z</time>
  <course>180.78</course>
  <speed>0.0</speed>
  <fix>3d</fix>
</trkpt>
<trkpt lat="64.1624775" lon="-139.8402243">
  <ele>1109.23</ele>
  <time>2026-09-01T20:02:20Z</time>
  <course>6.82</course>
  <speed>0.022360679774997897</speed>
  <fix>3d</fix>
</trkpt>
<trkpt lat="64.1624777" lon="-139.8402246">
  <ele>1109.09</ele>
  <time>2026-09-01T20:02:20Z</time>
  <course>180.78</course>
  <speed>0.0</speed>
  <fix>3d</fix>
</trkpt>
<trkpt lat="64.1624775" lon="-139.8402243">
  <ele>1109.23</ele>
  <time>2026-09-01T20:02:20Z</time>
  <course>6.82</course>
  <speed>0.022360679774997897</speed>
  <fix>3d</fix>
</trkpt>
<trkpt lat="64.1624777" lon="-139.8402246">
  <ele>1109.09</ele>
  <time>2026-09-01T20:02:20Z</time>
  <course>180.78</course>
  <speed>0.0</speed>
  <fix>3d</fix>
</trkpt>
<trkpt lat="64.1624775" lon="-139.8402243">
  <ele>1109.23</ele>
  <time>2026-09-01T20:02:20Z</time>
  <course>6.82</course>
  <speed>0.022360679774997897</speed>
  <fix>3d</fix>
</trkpt>
<trkpt lat="64.1624777" lon="-139.8402246">
  <ele>1109.09</ele>
  <time>2026-09-01T20:02:20Z</time>
  <course>180.78</course>
  <speed>0.0</speed>
  <fix>3d</fix>
</trkpt>
<trkpt lat="64.1624775" lon="-139.8402243">
  <ele>1109.23</ele>
  <time>2026-09-01T20:02:20Z</time>
  <course>6.82</course>
  <speed>0.022360679774997897</speed>
  <fix>3d</fix>
</trkpt>
<trkpt lat="64.1624777" lon="-139.8402246">
  <ele>1109.09</ele>
  <time>2026-09-01T20:02:20Z</time>
  <course>180.78</course>
  <speed>0.0</speed>
  <fix>3d</fix>
</trkpt>
<trkpt lat="64.1624775" lon="-139.8402243">
  <ele>1109.23</ele>
  <time>2026-09-01T20:02:20Z</time>
  <course>6.82</course>
  <speed>0.022360679774997897</speed>
  <fix>3d</fix>
</trkpt>
<trkpt lat="64.1624777" lon="-139.8402246">
  <ele>1109.09</ele>
  <time>2026-09-01T20:02:20Z</time>
  <course>180.78</course>
  <speed>0.0</speed>
  <fix>3d</fix>
</trkpt>
<trkpt lat="64.1624775" lon="-139.8402243">
  <ele>1109.23</ele>
  <time>2026-09-01T20:02:20Z</time>
  <course>6.82</course>
  <speed>0.022360679774997897</speed>
  <fix>3d</fix>
</trkpt>
<trkpt lat="64.1624777" lon="-139.8402246">
  <ele>1109.09</ele>
  <time>2026-09-01T20:02:20Z</time>
  <course>180.78</course>
  <speed>0.0</speed>
  <fix>3d</fix>
</trkpt>
<trkpt lat="64.1624775" lon="-139.8402243">
  <ele>1109.23</ele>
  <time>2026-09-01T20:02:20Z</time>
  <course>6.82</course>
  <speed>0.022360679774997897</speed>
  <fix>3d</fix>
</trkpt>
<trkpt lat="64.1624777" lon="-139.8402246">
  <ele>1109.09</ele>
  <time>2026-09-01T20:02:20Z</time>
  <course>180.78</course>
  <speed>0.0</speed>
  <fix>3d</fix>
</trkpt>
<trkpt lat="64.1624775" lon="-139.8402243">
  <ele>1109.09</ele>
  <time>2026-09-01T20:02:20Z</time>
  <course>6.82</course>
  <speed>0.022360679774997897</speed>
  <fix>3d</fix>
</trkpt>
<trkpt lat="64.1624777" lon="-139.8402246">
  <ele>1109.09</ele>
  <time>2026-09-01T20:02:20Z</time>
  <course>180.78</course>
  <speed>0.0</speed>
  <fix>3d</fix>
</trkpt>
<trkpt lat="64.1624775" lon="-139.8402243">
  <ele>1109.09</ele>
  <time>2026-09-01T20:02:20Z</time>
  <course>6.82</course>
  <speed>0.022360679774997897</speed>
  <fix>3d</fix>
</trkpt>
<trkpt lat="64.1624777" lon="-139.8402246">
  <ele>1109.09</ele>
  <time>2026-09-01T20:02:20Z</time>
  <course>180.78</course>
  <speed>0.0</speed>
  <fix>3d</fix>
</trkpt>
<trkpt lat="64.1624775" lon="-139.8402243">
  <ele>1109.09</ele>
  <time>2026-09-01T20:02:20Z</time>
  <course>6.82</course>
  <speed>0.022360679774997897</speed>
  <fix>3d</fix>
</trkpt>
<trkpt lat="64.1624777" lon="-139.8402246">
  <ele>1109.09</ele>
  <time>2026-09-01T20:02:20Z</time>
  <course>180.78</course>
  <speed>0.0</speed>
  <fix>3d</fix>
</trkpt>
<trkpt lat="64.1624775" lon="-139.8402243">
  <ele>1109.09</ele>
  <time>2026-09-01T20:02:20Z</time>
  <course>6.83</course>
  <speed>0.022360679774997897</speed>
  <fix>3d</fix>
</trkpt>
<trkpt lat="64.1624777" lon="-139.8402246">
  <ele>1109.09</ele>
  <time>2026-09-01T20:02:20Z</time>
  <course>180.78</course>
  <speed>0.0</speed>
  <fix>3d</fix>
</trkpt>
<trkpt lat="64.1624775" lon="-139.8402243">
  <ele>1109.09</ele>
  <time>2026-09-01T20:02:20Z</time>
  <course>6.83</course>
  <speed>0.022360679774997897</speed>
  <fix>3d</fix>
</trkpt>
<trkpt lat="64.1624777" lon="-139.8402246">
  <ele>1109.09</ele>
  <time>2026-09-01T20:02:20Z</time>
  <course>180.78</course>
  <speed>0.0</speed>
  <fix>3d</fix>
</trkpt>
<trkpt lat="64.1624775" lon="-139.8402243">
  <ele>1109.09</ele>
  <time>2026-09-01T20:02:20Z</time>
  <course>6.83</course>
  <speed>0.022360679774997897</speed>
  <fix>3d</fix>
</trkpt>
<trkpt lat="64.1624777" lon="-139.8402246">
  <ele>1109.09</ele>
  <time>2026-09-01T20:02:20Z</time>
  <course>180.78</course>
  <speed>0.0</speed>
  <fix>3d</fix>
</trkpt>
<trkpt lat="64.1624775" lon="-139.8402243">
  <ele>1109.08</ele>
  <time>2026-09-01T20:02:20Z</time>
  <course>6.83</course>
  <speed>0.022360679774997897</speed>
  <fix>3d</fix>
</trkpt>
<trkpt lat="64.1624777" lon="-139.8402246">
  <ele>1109.09</ele>
  <time>2026-09-01T20:02:20Z</time>
  <course>180.78</course>
  <speed>0.0</speed>
  <fix>3d</fix>
</trkpt>
<trkpt lat="64.1624775" lon="-139.8402243">
  <ele>1109.08</ele>
  <time>2026-09-01T20:02:20Z</time>
  <course>6.83</course>
  <speed>0.022360679774997897</speed>
  <fix>3d</fix>
</trkpt>
<trkpt lat="64.1624777" lon="-139.8402246">
  <ele>1109.09</ele>
  <time>2026-09-01T20:02:20Z</time>
  <course>180.78</course>
  <speed>0.0</speed>
  <fix>3d</fix>
</trkpt>
<trkpt lat="64.1624775" lon="-139.8402243">
  <ele>1109.08</ele>
  <time>2026-09-01T20:02:20Z</time>
  <course>6.83</course>
  <speed>0.022360679774997897</speed>
  <fix>3d</fix>
</trkpt>
<trkpt lat="64.1624777" lon="-139.8402246">
  <ele>1109.09</ele>
  <time>2026-09-01T20:02:20Z</time>
  <course>180.78</course>
  <speed>0.0</speed>
  <fix>3d</fix>
</trkpt>
<trkpt lat="64.1624775" lon="-139.8402243">
  <ele>1109.08</ele>
  <time>2026-09-01T20:02:20Z</time>
  <course>6.83</course>
  <speed>0.022360679774997897</speed>
  <fix>3d</fix>
</trkpt>
<trkpt lat="64.1624777" lon="-139.8402246">
  <ele>1109.09</ele>
  <time>2026-09-01T20:02:20Z</time>
  <course>180.78</course>
  <speed>0.0</speed>
  <fix>3d</fix>
</trkpt>
<trkpt lat="64.1624775" lon="-139.8402243">
  <ele>1109.08</ele>
  <time>2026-09-01T20:02:20Z</time>
  <course>6.83</course>
  <speed>0.022360679774997897</speed>
  <fix>3d</fix>
</trkpt>
<trkpt lat="64.1624777" lon="-139.8402246">
  <ele>1109.09</ele>
  <time>2026-09-01T20:02:20Z</time>
  <course>180.78</course>
  <speed>0.0</speed>
  <fix>3d</fix>
</trkpt>
<trkpt lat="64.1624775" lon="-139.8402243">
  <ele>1109.09</ele>
  <time>2026-09-01T20:02:20Z</time>
  <course>6.83</course>
  <speed>0.022360679774997897</speed>
  <fix>3d</fix>
</trkpt>
<trkpt lat="64.1624777" lon="-139.8402246">
  <ele>1109.09</ele>
  <time>2026-09-01T20:02:20Z</time>
  <course>180.78</course>
  <speed>0.0</speed>
  <fix>3d</fix>
</trkpt>
<trkpt lat="64.1624775" lon="-139.8402243">
  <ele>1109.09</ele>
  <time>2026-09-01T20:02:20Z</time>
  <course>6.83</course>
  <speed>0.022360679774997897</speed>
  <fix>3d</fix>
</trkpt>
<trkpt lat="64.1624777" lon="-139.8402246">
  <ele>1109.09</ele>
  <time>2026-09-01T20:02:20Z</time>
  <course>180.78</course>
  <speed>0.0</speed>
  <fix>3d</fix>
</trkpt>
<trkpt lat="64.1624775" lon="-139.8402243">
  <ele>1109.09</ele>
  <time>2026-09-01T20:02:20Z</time>
  <course>6.84</course>
  <speed>0.022360679774997897</speed>
  <fix>3d</fix>
</trkpt>
<trkpt lat="64.1624777" lon="-139.8402246">
  <ele>1109.09</ele>
  <time>2026-09-01T20:02:20Z</time>
  <course>180.78</course>
  <speed>0.0</speed>
  <fix>3d</fix>
</trkpt>
<trkpt lat="64.1624775" lon="-139.8402243">
  <ele>1109.09</ele>
  <time>2026-09-01T20:02:20Z</time>
  <course>6.84</course>
  <speed>0.022360679774997897</speed>
  <fix>3d</fix>
</trkpt>
<trkpt lat="64.1624777" lon="-139.8402246">
  <ele>1109.09</ele>
  <time>2026-09-01T20:02:20Z</time>
  <course>180.78</course>
  <speed>0.0</speed>
  <fix>3d</fix>
</trkpt>
<trkpt lat="64.1624775" lon="-139.8402243">
  <ele>1109.09</ele>
  <time>2026-09-01T20:02:20Z</time>
  <course>6.84</course>
  <speed>0.022360679774997897</speed>
  <fix>3d</fix>
</trkpt>
<trkpt lat="64.1624777" lon="-139.8402246">
  <ele>1109.09</ele>
  <time>2026-09-01T20:02:20Z</time>
  <course>180.78</course>
  <speed>0.0</speed>
  <fix>3d</fix>
</trkpt>
<trkpt lat="64.1624775" lon="-139.8402243">
  <ele>1109.09</ele>
  <time>2026-09-01T20:02:20Z</time>
  <course>6.84</course>
  <speed>0.022360679774997897</speed>
  <fix>3d</fix>
</trkpt>
<trkpt lat="64.1624777" lon="-139.8402246">
  <ele>1109.09</ele>
  <time>2026-09-01T20:02:20Z</time>
  <course>180.78</course>
  <speed>0.0</speed>
  <fix>3d</fix>
</trkpt>
<trkpt lat="64.1624775" lon="-139.8402243">
  <ele>1109.09</ele>
  <time>2026-09-01T20:02:20Z</time>
  <course>6.84</course>
  <speed>0.022360679774997897</speed>
  <fix>3d</fix>
</trkpt>
<trkpt lat="64.1624777" lon="-139.8402246">
  <ele>1109.09</ele>
  <time>2026-09-01T20:02:20Z</time>
  <course>180.78</course>
  <speed>0.0</speed>
  <fix>3d</fix>
</trkpt>
<trkpt lat="64.1624775" lon="-139.8402243">
  <ele>1109.1</ele>
  <time>2026-09-01T20:02:20Z</time>
  <course>6.84</course>
  <speed>0.022360679774997897</speed>
  <fix>3d</fix>
</trkpt>
<trkpt lat="64.1624777" lon="-139.8402246">
  <ele>1109.09</ele>
  <time>2026-09-01T20:02:20Z</time>
  <course>180.78</course>
  <speed>0.0</speed>
  <fix>3d</fix>
</trkpt>
<trkpt lat="64.1624775" lon="-139.8402243">
  <ele>1109.1</ele>
  <time>2026-09-01T20:02:20Z</time>
  <course>6.84</course>
  <speed>0.022360679774997897</speed>
  <fix>3d</fix>
</trkpt>
<trkpt lat="64.1624777" lon="-139.8402246">
  <ele>1109.09</ele>
  <time>2026-09-01T20:02:20Z</time>
  <course>180.78</course>
  <speed>0.0</speed>
  <fix>3d</fix>
</trkpt>
<trkpt lat="64.1624775" lon="-139.8402243">
  <ele>1109.1</ele>
  <time>2026-09-01T20:02:20Z</time>
  <course>6.84</course>
  <speed>0.022360679774997897</speed>
  <fix>3d</fix>
</trkpt>
<trkpt lat="64.1624777" lon="-139.8402246">
  <ele>1109.09</ele>
  <time>2026-09-01T20:02:20Z</time>
  <course>180.78</course>
  <speed>0.0</speed>
  <fix>3d</fix>
</trkpt>
<trkpt lat="64.1624775" lon="-139.8402243">
  <ele>1109.1</ele>
  <time>2026-09-01T20:02:20Z</time>
  <course>6.84</course>
  <speed>0.022360679774997897</speed>
  <fix>3d</fix>
</trkpt>
<trkpt lat="64.1624777" lon="-139.8402246">
  <ele>1109.09</ele>
  <time>2026-09-01T20:02:20Z</time>
  <course>180.78</course>
  <speed>0.0</speed>
  <fix>3d</fix>
</trkpt>
<trkpt lat="64.1624775" lon="-139.8402243">
  <ele>1109.1</ele>
  <time>2026-09-01T20:02:20Z</time>
  <course>6.84</course>
  <speed>0.022360679774997897</speed>
  <fix>3d</fix>
</trkpt>
<trkpt lat="64.1624777" lon="-139.8402246">
  <ele>1109.09</ele>
  <time>2026-09-01T20:02:20Z</time>
  <course>180.78</course>
  <speed>0.0</speed>
  <fix>3d</fix>
</trkpt>
<trkpt lat="64.1624775" lon="-139.8402243">
  <ele>1109.1</ele>
  <time>2026-09-01T20:02:20Z</time>
  <course>6.85</course>
  <speed>0.022360679774997897</speed>
  <fix>3d</fix>
</trkpt>
<trkpt lat="64.1624777" lon="-139.8402246">
  <ele>1109.09</ele>
  <time>2026-09-01T20:02:20Z</time>
  <course>180.78</course>
  <speed>0.0</speed>
  <fix>3d</fix>
</trkpt>
<trkpt lat="64.1624775" lon="-139.8402243">
  <ele>1109.1</ele>
  <time>2026-09-01T20:02:20Z</time>
  <course>6.85</course>
  <speed>0.022360679774997897</speed>
  <fix>3d</fix>
</trkpt>
<trkpt lat="64.1624777" lon="-139.8402246">
  <ele>1109.09</ele>
  <time>2026-09-01T20:02:20Z</time>
  <course>180.78</course>
  <speed>0.0</speed>
  <fix>3d</fix>
</trkpt>
<trkpt lat="64.1624775" lon="-139.8402243">
  <ele>1109.09</ele>
  <time>2026-09-01T20:02:20Z</time>
  <course>6.85</course>
  <speed>0.022360679774997897</speed>
  <fix>3d</fix>
</trkpt>
<trkpt lat="64.1624777" lon="-139.8402246">
  <ele>1109.09</ele>
  <time>2026-09-01T20:02:20Z</time>
  <course>180.78</course>
  <speed>0.0</speed>
  <fix>3d</fix>
</trkpt>
<trkpt lat="64.1624775" lon="-139.8402243">
  <ele>1109.09</ele>
  <time>2026-09-01T20:02:20Z</time>
  <course>6.85</course>
  <speed>0.022360679774997897</speed>
  <fix>3d</fix>
</trkpt>
<trkpt lat="64.1624777" lon="-139.8402246">
  <ele>1109.09</ele>
  <time>2026-09-01T20:02:20Z</time>
  <course>180.78</course>
  <speed>0.0</speed>
  <fix>3d</fix>
</trkpt>
<trkpt lat="64.1624775" lon="-139.8402243">
  <ele>1109.09</ele>
  <time>2026-09-01T20:02:20Z</time>
  <course>6.85</course>
  <speed>0.022360679774997897</speed>
  <fix>3d</fix>
</trkpt>
<trkpt lat="64.1624777" lon="-139.8402246">
  <ele>1109.09</ele>
  <time>2026-09-01T20:02:20Z</time>
  <course>180.78</course>
  <speed>0.0</speed>
  <fix>3d</fix>
</trkpt>
<trkpt lat="64.1624775" lon="-139.8402243">
  <ele>1109.09</ele>
  <time>2026-09-01T20:02:20Z</time>
  <course>6.85</course>
  <speed>0.022360679774997897</speed>
  <fix>3d</fix>
</trkpt>
<trkpt lat="64.1624777" lon="-139.8402246">
  <ele>1109.09</ele>
  <time>2026-09-01T20:02:20Z</time>
  <course>180.78</course>
  <speed>0.0</speed>
  <fix>3d</fix>
</trkpt>
<trkpt lat="64.1624775" lon="-139.8402243">
  <ele>1109.08</ele>
  <time>2026-09-01T20:02:20Z</time>
  <course>6.85</course>
  <speed>0.022360679774997897</speed>
  <fix>3d</fix>
</trkpt>
<trkpt lat="64.1624777" lon="-139.8402246">
  <ele>1109.09</ele>
  <time>2026-09-01T20:02:20Z</time>
  <course>180.78</course>
  <speed>0.0</speed>
  <fix>3d</fix>
</trkpt>
<trkpt lat="64.1624775" lon="-139.8402243">
  <ele>1109.08</ele>
  <time>2026-09-01T20:02:20Z</time>
  <course>6.85</course>
  <speed>0.022360679774997897</speed>
  <fix>3d</fix>
</trkpt>
<trkpt lat="64.1624777" lon="-139.8402246">
  <ele>1109.09</ele>
  <time>2026-09-01T20:02:20Z</time>
  <course>180.78</course>
  <speed>0.0</speed>
  <fix>3d</fix>
</trkpt>
<trkpt lat="64.1624775" lon="-139.8402243">
  <ele>1109.08</ele>
  <time>2026-09-01T20:02:20Z</time>
  <course>6.85</course>
  <speed>0.022360679774997897</speed>
  <fix>3d</fix>
</trkpt>
<trkpt lat="64.1624777" lon="-139.8402246">
  <ele>1109.09</ele>
  <time>2026-09-01T20:02:20Z</time>
  <course>180.78</course>
  <speed>0.0</speed>
  <fix>3d</fix>
</trkpt>
<trkpt lat="64.1624775" lon="-139.8402243">
  <ele>1109.08</ele>
  <time>2026-09-01T20:02:20Z</time>
  <course>6.85</course>
  <speed>0.022360679774997897</speed>
  <fix>3d</fix>
</trkpt>
<trkpt lat="64.1624777" lon="-139.8402246">
  <ele>1109.09</ele>
  <time>2026-09-01T20:02:20Z</time>
  <course>180.78</course>
  <speed>0.0</speed>
  <fix>3d</fix>
</trkpt>
<trkpt lat="64.1624775" lon="-139.8402243">
  <ele>1109.08</ele>
  <time>2026-09-01T20:02:20Z</time>
  <course>6.85</course>
  <speed>0.022360679774997897</speed>
  <fix>3d</fix>
</trkpt>
<trkpt lat="64.1624777" lon="-139.8402246">
  <ele>1109.09</ele>
  <time>2026-09-01T20:02:20Z</time>
  <course>180.78</course>
  <speed>0.0</speed>
  <fix>3d</fix>
</trkpt>
<trkpt lat="64.1624775" lon="-139.8402243">
  <ele>1109.07</ele>
  <time>2026-09-01T20:02:20Z</time>
  <course>6.86</course>
  <speed>0.022360679774997897</speed>
  <fix>3d</fix>
</trkpt>
<trkpt lat="64.1624777" lon="-139.8402246">
  <ele>1109.09</ele>
  <time>2026-09-01T20:02:20Z</time>
  <course>180.78</course>
  <speed>0.0</speed>
  <fix>3d</fix>
</trkpt>
<trkpt lat="64.1624775" lon="-139.8402243">
  <ele>1109.07</ele>
  <time>2026-09-01T20:02:20Z</time>
  <course>6.86</course>
  <speed>0.022360679774997897</speed>
  <fix>3d</fix>
</trkpt>
<trkpt lat="64.1624777" lon="-139.8402246">
  <ele>1109.09</ele>
  <time>2026-09-01T20:02:20Z</time>
  <course>180.78</course>
  <speed>0.0</speed>
  <fix>3d</fix>
</trkpt>
<trkpt lat="64.1624775" lon="-139.8402243">
  <ele>1109.07</ele>
  <time>2026-09-01T20:02:20Z</time>
  <course>6.86</course>
  <speed>0.022360679774997897</speed>
  <fix>3d</fix>
</trkpt>
<trkpt lat="64.1624777" lon="-139.8402246">
  <ele>1109.09</ele>
  <time>2026-09-01T20:02:20Z</time>
  <course>180.78</course>
  <speed>0.0</speed>
  <fix>3d</fix>
</trkpt>
<trkpt lat="64.1624775" lon="-139.8402243">
  <ele>1109.07</ele>
  <time>2026-09-01T20:02:20Z</time>
  <course>6.86</course>
  <speed>0.022360679774997897</speed>
  <fix>3d</fix>
</trkpt>
<trkpt lat="64.1624777" lon="-139.8402246">
  <ele>1109.09</ele>
  <time>2026-09-01T20:02:20Z</time>
  <course>180.78</course>
  <speed>0.0</speed>
  <fix>3d</fix>
</trkpt>
<trkpt lat="64.1624775" lon="-139.8402243">
  <ele>1109.07</ele>
  <time>2026-09-01T20:02:20Z</time>
  <course>6.86</course>
  <speed>0.022360679774997897</speed>
  <fix>3d</fix>
</trkpt>
<trkpt lat="64.1624777" lon="-139.8402246">
  <ele>1109.09</ele>
  <time>2026-09-01T20:02:20Z</time>
  <course>180.78</course>
  <speed>0.0</speed>
  <fix>3d</fix>
</trkpt>
<trkpt lat="64.1624775" lon="-139.8402243">
  <ele>1109.07</ele>
  <time>2026-09-01T20:02:20Z</time>
  <course>6.86</course>
  <speed>0.022360679774997897</speed>
  <fix>3d</fix>
</trkpt>
<trkpt lat="64.1624777" lon="-139.8402246">
  <ele>1109.09</ele>
  <time>2026-09-01T20:02:20Z</time>
  <course>180.78</course>
  <speed>0.0</speed>
  <fix>3d</fix>
</trkpt>
<trkpt lat="64.1624775" lon="-139.8402243">
  <ele>1109.07</ele>
  <time>2026-09-01T20:02:20Z</time>
  <course>6.86</course>
  <speed>0.022360679774997897</speed>
  <fix>3d</fix>
</trkpt>
<trkpt lat="64.1624777" lon="-139.8402246">
  <ele>1109.09</ele>
  <time>2026-09-01T20:02:20Z</time>
  <course>180.78</course>
  <speed>0.0</speed>
  <fix>3d</fix>
</trkpt>
<trkpt lat="64.1624775" lon="-139.8402243">
  <ele>1109.07</ele>
  <time>2026-09-01T20:02:20Z</time>
  <course>6.86</course>
  <speed>0.022360679774997897</speed>
  <fix>3d</fix>
</trkpt>
<trkpt lat="64.1624777" lon="-139.8402246">
  <ele>1109.09</ele>
  <time>2026-09-01T20:02:20Z</time>
  <course>180.78</course>
  <speed>0.0</speed>
  <fix>3d</fix>
</trkpt>
<trkpt lat="64.1624775" lon="-139.8402243">
  <ele>1109.06</ele>
  <time>2026-09-01T20:02:20Z</time>
  <course>6.86</course>
  <speed>0.022360679774997897</speed>
  <fix>3d</fix>
</trkpt>
<trkpt lat="64.1624777" lon="-139.8402246">
  <ele>1109.09</ele>
  <time>2026-09-01T20:02:20Z</time>
  <course>180.78</course>
  <speed>0.0</speed>
  <fix>3d</fix>
</trkpt>
<trkpt lat="64.1624775" lon="-139.8402243">
  <ele>1109.06</ele>
  <time>2026-09-01T20:02:20Z</time>
  <course>6.87</course>
  <speed>0.022360679774997897</speed>
  <fix>3d</fix>
</trkpt>
<trkpt lat="64.1624777" lon="-139.8402246">
  <ele>1109.09</ele>
  <time>2026-09-01T20:02:20Z</time>
  <course>180.78</course>
  <speed>0.0</speed>
  <fix>3d</fix>
</trkpt>
<trkpt lat="64.1624775" lon="-139.8402243">
  <ele>1109.06</ele>
  <time>2026-09-01T20:02:20Z</time>
  <course>6.87</course>
  <speed>0.022360679774997897</speed>
  <fix>3d</fix>
</trkpt>
<trkpt lat="64.1624777" lon="-139.8402246">
  <ele>1109.09</ele>
  <time>2026-09-01T20:02:20Z</time>
  <course>180.78</course>
  <speed>0.0</speed>
  <fix>3d</fix>
</trkpt>
<trkpt lat="64.1624775" lon="-139.8402243">
  <ele>1109.06</ele>
  <time>2026-09-01T20:02:20Z</time>
  <course>6.87</course>
  <speed>0.022360679774997897</speed>
  <fix>3d</fix>
</trkpt>
<trkpt lat="64.1624777" lon="-139.8402246">
  <ele>1109.09</ele>
  <time>2026-09-01T20:02:20Z</time>
  <course>180.78</course>
  <speed>0.0</speed>
  <fix>3d</fix>
</trkpt>
<trkpt lat="64.1624775" lon="-139.8402243">
  <ele>1109.06</ele>
  <time>2026-09-01T20:02:20Z</time>
  <course>6.87</course>
  <speed>0.022360679774997897</speed>
  <fix>3d</fix>
</trkpt>
<trkpt lat="64.1624777" lon="-139.8402246">
  <ele>1109.09</ele>
  <time>2026-09-01T20:02:20Z</time>
  <course>180.78</course>
  <speed>0.0</speed>
  <fix>3d</fix>
</trkpt>
<trkpt lat="64.1624775" lon="-139.8402243">
  <ele>1109.06</ele>
  <time>2026-09-01T20:02:20Z</time>
  <course>6.87</course>
  <speed>0.022360679774997897</speed>
  <fix>3d</fix>
</trkpt>
<trkpt lat="64.1624777" lon="-139.8402246">
  <ele>1109.09</ele>
  <time>2026-09-01T20:02:20Z</time>
  <course>180.78</course>
  <speed>0.0</speed>
  <fix>3d</fix>
</trkpt>
<trkpt lat="64.1624775" lon="-139.8402243">
  <ele>1109.06</ele>
  <time>2026-09-01T20:02:20Z</time>
  <course>6.87</course>
  <speed>0.022360679774997897</speed>
  <fix>3d</fix>
</trkpt>
<trkpt lat="64.1624777" lon="-139.8402246">
  <ele>1109.09</ele>
  <time>2026-09-01T20:02:20Z</time>
  <course>180.78</course>
  <speed>0.0</speed>
  <fix>3d</fix>
</trkpt>
<trkpt lat="64.1624775" lon="-139.8402243">
  <ele>1109.06</ele>
  <time>2026-09-01T20:02:20Z</time>
  <course>6.87</course>
  <speed>0.022360679774997897</speed>
  <fix>3d</fix>
</trkpt>
<trkpt lat="64.1624777" lon="-139.8402246">
  <ele>1109.09</ele>
  <time>2026-09-01T20:02:20Z</time>
  <course>180.78</course>
  <speed>0.0</speed>
  <fix>3d</fix>
</trkpt>
<trkpt lat="64.1624775" lon="-139.8402243">
  <ele>1109.06</ele>
  <time>2026-09-01T20:02:20Z</time>
  <course>6.87</course>
  <speed>0.022360679774997897</speed>
  <fix>3d</fix>
</trkpt>
<trkpt lat="64.1624777" lon="-139.8402246">
  <ele>1109.09</ele>
  <time>2026-09-01T20:02:20Z</time>
  <course>180.78</course>
  <speed>0.0</speed>
  <fix>3d</fix>
</trkpt>
<trkpt lat="64.1624775" lon="-139.8402243">
  <ele>1109.06</ele>
  <time>2026-09-01T20:02:20Z</time>
  <course>6.87</course>
  <speed>0.022360679774997897</speed>
  <fix>3d</fix>
</trkpt>
<trkpt lat="64.1624777" lon="-139.8402246">
  <ele>1109.09</ele>
  <time>2026-09-01T20:02:20Z</time>
  <course>180.78</course>
  <speed>0.0</speed>
  <fix>3d</fix>
</trkpt>
<trkpt lat="64.1624775" lon="-139.8402243">
  <ele>1109.06</ele>
  <time>2026-09-01T20:02:20Z</time>
  <course>6.87</course>
  <speed>0.022360679774997897</speed>
  <fix>3d</fix>
</trkpt>
<trkpt lat="64.1624777" lon="-139.8402246">
  <ele>1109.09</ele>
  <time>2026-09-01T20:02:20Z</time>
  <course>180.78</course>
  <speed>0.0</speed>
  <fix>3d</fix>
</trkpt>
<trkpt lat="64.1624775" lon="-139.8402243">
  <ele>1109.06</ele>
  <time>2026-09-01T20:02:20Z</time>
  <course>6.88</course>
  <speed>0.022360679774997897</speed>
  <fix>3d</fix>
</trkpt>
<trkpt lat="64.1624777" lon="-139.8402246">
  <ele>1109.09</ele>
  <time>2026-09-01T20:02:20Z</time>
  <course>180.78</course>
  <speed>0.0</speed>
  <fix>3d</fix>
</trkpt>
<trkpt lat="64.1624775" lon="-139.8402243">
  <ele>1109.06</ele>
  <time>2026-09-01T20:02:20Z</time>
  <course>6.88</course>
  <speed>0.022360679774997897</speed>
  <fix>3d</fix>
</trkpt>
<trkpt lat="64.1624777" lon="-139.8402246">
  <ele>1109.09</ele>
  <time>2026-09-01T20:02:20Z</time>
  <course>180.78</course>
  <speed>0.0</speed>
  <fix>3d</fix>
</trkpt>
<trkpt lat="64.1624775" lon="-139.8402243">
  <ele>1109.06</ele>
  <time>2026-09-01T20:02:20Z</time>
  <course>6.88</course>
  <speed>0.022360679774997897</speed>
  <fix>3d</fix>
</trkpt>
<trkpt lat="64.1624777" lon="-139.8402246">
  <ele>1109.09</ele>
  <time>2026-09-01T20:02:20Z</time>
  <course>180.78</course>
  <speed>0.0</speed>
  <fix>3d</fix>
</trkpt>
<trkpt lat="64.1624775" lon="-139.8402243">
  <ele>1109.06</ele>
  <time>2026-09-01T20:02:20Z</time>
  <course>6.88</course>
  <speed>0.022360679774997897</speed>
  <fix>3d</fix>
</trkpt>
<trkpt lat="64.1624777" lon="-139.8402246">
  <ele>1109.09</ele>
  <time>2026-09-01T20:02:20Z</time>
  <course>180.78</course>
  <speed>0.0</speed>
  <fix>3d</fix>
</trkpt>
<trkpt lat="64.1624775" lon="-139.8402243">
  <ele>1109.06</ele>
  <time>2026-09-01T20:02:20Z</time>
  <course>6.88</course>
  <speed>0.022360679774997897</speed>
  <fix>3d</fix>
</trkpt>
<trkpt lat="64.1624777" lon="-139.8402246">
  <ele>1109.09</ele>
  <time>2026-09-01T20:02:20Z</time>
  <course>180.78</course>
  <speed>0.0</speed>
  <fix>3d</fix>
</trkpt>
<trkpt lat="64.1624775" lon="-139.8402243">
  <ele>1109.05</ele>
  <time>2026-09-01T20:02:20Z</time>
  <course>6.88</course>
  <speed>0.022360679774997897</speed>
  <fix>3d</fix>
</trkpt>
<trkpt lat="64.1624777" lon="-139.8402246">
  <ele>1109.09</ele>
  <time>2026-09-01T20:02:20Z</time>
  <course>180.78</course>
  <speed>0.0</speed>
  <fix>3d</fix>
</trkpt>
<trkpt lat="64.1624775" lon="-139.8402243">
  <ele>1109.05</ele>
  <time>2026-09-01T20:02:20Z</time>
  <course>6.88</course>
  <speed>0.022360679774997897</speed>
  <fix>3d</fix>
</trkpt>
<trkpt lat="64.1624777" lon="-139.8402246">
  <ele>1109.09</ele>
  <time>2026-09-01T20:02:20Z</time>
  <course>180.78</course>
  <speed>0.0</speed>
  <fix>3d</fix>
</trkpt>
<trkpt lat="64.1624775" lon="-139.8402243">
  <ele>1109.08</ele>
  <time>2026-09-01T20:02:20Z</time>
  <course>6.88</course>
  <speed>0.022360679774997897</speed>
  <fix>3d</fix>
</trkpt>
<trkpt lat="64.1624777" lon="-139.8402246">
  <ele>1109.09</ele>
  <time>2026-09-01T20:02:20Z</time>
  <course>180.78</course>
  <speed>0.0</speed>
  <fix>3d</fix>
</trkpt>
<trkpt lat="64.1624775" lon="-139.8402243">
  <ele>1109.08</ele>
  <time>2026-09-01T20:02:20Z</time>
  <course>6.88</course>
  <speed>0.022360679774997897</speed>
  <fix>3d</fix>
</trkpt>
<trkpt lat="64.1624777" lon="-139.8402246">
  <ele>1109.09</ele>
  <time>2026-09-01T20:02:20Z</time>
  <course>180.78</course>
  <speed>0.0</speed>
  <fix>3d</fix>
</trkpt>
<trkpt lat="64.1624775" lon="-139.8402243">
  <ele>1109.08</ele>
  <time>2026-09-01T20:02:20Z</time>
  <course>6.88</course>
  <speed>0.022360679774997897</speed>
  <fix>3d</fix>
</trkpt>
<trkpt lat="64.1624777" lon="-139.8402246">
  <ele>1109.09</ele>
  <time>2026-09-01T20:02:20Z</time>
  <course>180.78</course>
  <speed>0.0</speed>
  <fix>3d</fix>
</trkpt>
<trkpt lat="64.1624775" lon="-139.8402243">
  <ele>1109.09</ele>
  <time>2026-09-01T20:02:20Z</time>
  <course>6.89</course>
  <speed>0.022360679774997897</speed>
  <fix>3d</fix>
</trkpt>
<trkpt lat="64.1624777" lon="-139.8402246">
  <ele>1109.09</ele>
  <time>2026-09-01T20:02:20Z</time>
  <course>180.78</course>
  <speed>0.0</speed>
  <fix>3d</fix>
</trkpt>
<trkpt lat="64.1624775" lon="-139.8402243">
  <ele>1109.09</ele>
  <time>2026-09-01T20:02:20Z</time>
  <course>6.89</course>
  <speed>0.022360679774997897</speed>
  <fix>3d</fix>
</trkpt>
<trkpt lat="64.1624777" lon="-139.8402246">
  <ele>1109.09</ele>
  <time>2026-09-01T20:02:20Z</time>
  <course>180.78</course>
  <speed>0.0</speed>
  <fix>3d</fix>
</trkpt>
<trkpt lat="64.1624775" lon="-139.8402243">
  <ele>1109.09</ele>
  <time>2026-09-01T20:02:20Z</time>
  <course>6.89</course>
  <speed>0.022360679774997897</speed>
  <fix>3d</fix>
</trkpt>
<trkpt lat="64.1624777" lon="-139.8402246">
  <ele>1109.09</ele>
  <time>2026-09-01T20:02:20Z</time>
  <course>180.78</course>
  <speed>0.0</speed>
  <fix>3d</fix>
</trkpt>
<trkpt lat="64.1624775" lon="-139.8402243">
  <ele>1109.1</ele>
  <time>2026-09-01T20:02:20Z</time>
  <course>6.89</course>
  <speed>0.022360679774997897</speed>
  <fix>3d</fix>
</trkpt>
<trkpt lat="64.1624777" lon="-139.8402246">
  <ele>1109.09</ele>
  <time>2026-09-01T20:02:20Z</time>
  <course>180.78</course>
  <speed>0.0</speed>
  <fix>3d</fix>
</trkpt>
<trkpt lat="64.1624775" lon="-139.8402243">
  <ele>1109.1</ele>
  <time>2026-09-01T20:02:20Z</time>
  <course>6.89</course>
  <speed>0.022360679774997897</speed>
  <fix>3d</fix>
</trkpt>
<trkpt lat="64.1624777" lon="-139.8402246">
  <ele>1109.09</ele>
  <time>2026-09-01T20:02:20Z</time>
  <course>180.78</course>
  <speed>0.0</speed>
  <fix>3d</fix>
</trkpt>
<trkpt lat="64.1624775" lon="-139.8402243">
  <ele>1109.11</ele>
  <time>2026-09-01T20:02:20Z</time>
  <course>6.89</course>
  <speed>0.022360679774997897</speed>
  <fix>3d</fix>
</trkpt>
<trkpt lat="64.1624777" lon="-139.8402246">
  <ele>1109.09</ele>
  <time>2026-09-01T20:02:20Z</time>
  <course>180.78</course>
  <speed>0.0</speed>
  <fix>3d</fix>
</trkpt>
<trkpt lat="64.1624775" lon="-139.8402243">
  <ele>1109.11</ele>
  <time>2026-09-01T20:02:20Z</time>
  <course>6.89</course>
  <speed>0.022360679774997897</speed>
  <fix>3d</fix>
</trkpt>
<trkpt lat="64.1624777" lon="-139.8402246">
  <ele>1109.09</ele>
  <time>2026-09-01T20:02:20Z</time>
  <course>180.78</course>
  <speed>0.0</speed>
  <fix>3d</fix>
</trkpt>
<trkpt lat="64.1624775" lon="-139.8402243">
  <ele>1109.11</ele>
  <time>2026-09-01T20:02:20Z</time>
  <course>6.89</course>
  <speed>0.022360679774997897</speed>
  <fix>3d</fix>
</trkpt>
<trkpt lat="64.1624777" lon="-139.8402246">
  <ele>1109.09</ele>
  <time>2026-09-01T20:02:20Z</time>
  <course>180.78</course>
  <speed>0.0</speed>
  <fix>3d</fix>
</trkpt>
<trkpt lat="64.1624775" lon="-139.8402243">
  <ele>1109.11</ele>
  <time>2026-09-01T20:02:20Z</time>
  <course>6.89</course>
  <speed>0.022360679774997897</speed>
  <fix>3d</fix>
</trkpt>
<trkpt lat="64.1624777" lon="-139.8402246">
  <ele>1109.09</ele>
  <time>2026-09-01T20:02:20Z</time>
  <course>180.78</course>
  <speed>0.0</speed>
  <fix>3d</fix>
</trkpt>
<trkpt lat="64.1624775" lon="-139.8402243">
  <ele>1109.11</ele>
  <time>2026-09-01T20:02:20Z</time>
  <course>6.89</course>
  <speed>0.022360679774997897</speed>
  <fix>3d</fix>
</trkpt>
<trkpt lat="64.1624777" lon="-139.8402246">
  <ele>1109.09</ele>
  <time>2026-09-01T20:02:20Z</time>
  <course>180.78</course>
  <speed>0.0</speed>
  <fix>3d</fix>
</trkpt>
<trkpt lat="64.1624775" lon="-139.8402243">
  <ele>1109.12</ele>
  <time>2026-09-01T20:02:20Z</time>
  <course>6.89</course>
  <speed>0.022360679774997897</speed>
  <fix>3d</fix>
</trkpt>
<trkpt lat="64.1624777" lon="-139.8402246">
  <ele>1109.09</ele>
  <time>2026-09-01T20:02:20Z</time>
  <course>180.78</course>
  <speed>0.0</speed>
  <fix>3d</fix>
</trkpt>
<trkpt lat="64.1624775" lon="-139.8402243">
  <ele>1109.12</ele>
  <time>2026-09-01T20:02:20Z</time>
  <course>6.9</course>
  <speed>0.022360679774997897</speed>
  <fix>3d</fix>
</trkpt>
<trkpt lat="64.1624777" lon="-139.8402246">
  <ele>1109.09</ele>
  <time>2026-09-01T20:02:20Z</time>
  <course>180.78</course>
  <speed>0.0</speed>
  <fix>3d</fix>
</trkpt>
<trkpt lat="64.1624775" lon="-139.8402243">
  <ele>1109.12</ele>
  <time>2026-09-01T20:02:20Z</time>
  <course>6.9</course>
  <speed>0.022360679774997897</speed>
  <fix>3d</fix>
</trkpt>
<trkpt lat="64.1624777" lon="-139.8402246">
  <ele>1109.09</ele>
  <time>2026-09-01T20:02:20Z</time>
  <course>180.78</course>
  <speed>0.0</speed>
  <fix>3d</fix>
</trkpt>
<trkpt lat="64.1624775" lon="-139.8402243">
  <ele>1109.13</ele>
  <time>2026-09-01T20:02:20Z</time>
  <course>6.9</course>
  <speed>0.022360679774997897</speed>
  <fix>3d</fix>
</trkpt>
<trkpt lat="64.1624777" lon="-139.8402246">
  <ele>1109.09</ele>
  <time>2026-09-01T20:02:20Z</time>
  <course>180.78</course>
  <speed>0.0</speed>
  <fix>3d</fix>
</trkpt>
<trkpt lat="64.1624775" lon="-139.8402243">
  <ele>1109.13</ele>
  <time>2026-09-01T20:02:20Z</time>
  <course>6.9</course>
  <speed>0.022360679774997897</speed>
  <fix>3d</fix>
</trkpt>
<trkpt lat="64.1624777" lon="-139.8402246">
  <ele>1109.09</ele>
  <time>2026-09-01T20:02:20Z</time>
  <course>180.78</course>
  <speed>0.0</speed>
  <fix>3d</fix>
</trkpt>
<trkpt lat="64.1624775" lon="-139.8402243">
  <ele>1109.13</ele>
  <time>2026-09-01T20:02:20Z</time>
  <course>6.9</course>
  <speed>0.022360679774997897</speed>
  <fix>3d</fix>
</trkpt>
<trkpt lat="64.1624777" lon="-139.8402246">
  <ele>1109.09</ele>
  <time>2026-09-01T20:02:20Z</time>
  <course>180.78</course>
  <speed>0.0</speed>
  <fix>3d</fix>
</trkpt>
<trkpt lat="64.1624775" lon="-139.8402243">
  <ele>1109.14</ele>
  <time>2026-09-01T20:02:20Z</time>
  <course>6.9</course>
  <speed>0.022360679774997897</speed>
  <fix>3d</fix>
</trkpt>
<trkpt lat="64.1624777" lon="-139.8402246">
  <ele>1109.09</ele>
  <time>2026-09-01T20:02:20Z</time>
  <course>180.78</course>
  <speed>0.0</speed>
  <fix>3d</fix>
</trkpt>
<trkpt lat="64.1624775" lon="-139.8402243">
  <ele>1109.14</ele>
  <time>2026-09-01T20:02:20Z</time>
  <course>6.9</course>
  <speed>0.022360679774997897</speed>
  <fix>3d</fix>
</trkpt>
<trkpt lat="64.1624777" lon="-139.8402246">
  <ele>1109.09</ele>
  <time>2026-09-01T20:02:20Z</time>
  <course>180.78</course>
  <speed>0.0</speed>
  <fix>3d</fix>
</trkpt>
<trkpt lat="64.1624775" lon="-139.8402243">
  <ele>1109.14</ele>
  <time>2026-09-01T20:02:20Z</time>
  <course>6.9</course>
  <speed>0.022360679774997897</speed>
  <fix>3d</fix>
</trkpt>
<trkpt lat="64.1624777" lon="-139.8402246">
  <ele>1109.09</ele>
  <time>2026-09-01T20:02:20Z</time>
  <course>180.78</course>
  <speed>0.0</speed>
  <fix>3d</fix>
</trkpt>
<trkpt lat="64.1624775" lon="-139.8402243">
  <ele>1109.15</ele>
  <time>2026-09-01T20:02:20Z</time>
  <course>6.9</course>
  <speed>0.022360679774997897</speed>
  <fix>3d</fix>
</trkpt>
<trkpt lat="64.1624777" lon="-139.8402246">
  <ele>1109.09</ele>
  <time>2026-09-01T20:02:20Z</time>
  <course>180.78</course>
  <speed>0.0</speed>
  <fix>3d</fix>
</trkpt>
<trkpt lat="64.1624775" lon="-139.8402243">
  <ele>1109.15</ele>
  <time>2026-09-01T20:02:20Z</time>
  <course>6.9</course>
  <speed>0.022360679774997897</speed>
  <fix>3d</fix>
</trkpt>
<trkpt lat="64.1624777" lon="-139.8402246">
  <ele>1109.09</ele>
  <time>2026-09-01T20:02:20Z</time>
  <course>180.78</course>
  <speed>0.0</speed>
  <fix>3d</fix>
</trkpt>
<trkpt lat="64.1624775" lon="-139.8402243">
  <ele>1109.15</ele>
  <time>2026-09-01T20:02:20Z</time>
  <course>6.9</course>
  <speed>0.022360679774997897</speed>
  <fix>3d</fix>
</trkpt>
<trkpt lat="64.1624777" lon="-139.8402246">
  <ele>1109.09</ele>
  <time>2026-09-01T20:02:20Z</time>
  <course>180.78</course>
  <speed>0.0</speed>
  <fix>3d</fix>
</trkpt>
<trkpt lat="64.1624775" lon="-139.8402243">
  <ele>1109.16</ele>
  <time>2026-09-01T20:02:20Z</time>
  <course>6.91</course>
  <speed>0.022360679774997897</speed>
  <fix>3d</fix>
</trkpt>
<trkpt lat="64.1624777" lon="-139.8402246">
  <ele>1109.09</ele>
  <time>2026-09-01T20:02:20Z</time>
  <course>180.78</course>
  <speed>0.0</speed>
  <fix>3d</fix>
</trkpt>
<trkpt lat="64.1624775" lon="-139.8402243">
  <ele>1109.16</ele>
  <time>2026-09-01T20:02:20Z</time>
  <course>6.91</course>
  <speed>0.022360679774997897</speed>
  <fix>3d</fix>
</trkpt>
<trkpt lat="64.1624777" lon="-139.8402246">
  <ele>1109.09</ele>
  <time>2026-09-01T20:02:20Z</time>
  <course>180.78</course>
  <speed>0.0</speed>
  <fix>3d</fix>
</trkpt>
<trkpt lat="64.1624775" lon="-139.8402243">
  <ele>1109.17</ele>
  <time>2026-09-01T20:02:20Z</time>
  <course>6.91</course>
  <speed>0.022360679774997897</speed>
  <fix>3d</fix>
</trkpt>
<trkpt lat="64.1624777" lon="-139.8402246">
  <ele>1109.09</ele>
  <time>2026-09-01T20:02:20Z</time>
  <course>180.78</course>
  <speed>0.0</speed>
  <fix>3d</fix>
</trkpt>
<trkpt lat="64.1624775" lon="-139.8402243">
  <ele>1109.17</ele>
  <time>2026-09-01T20:02:20Z</time>
  <course>6.91</course>
  <speed>0.022360679774997897</speed>
  <fix>3d</fix>
</trkpt>
<trkpt lat="64.1624777" lon="-139.8402246">
  <ele>1109.09</ele>
  <time>2026-09-01T20:02:20Z</time>
  <course>180.78</course>
  <speed>0.0</speed>
  <fix>3d</fix>
</trkpt>
<trkpt lat="64.1624775" lon="-139.8402243">
  <ele>1109.17</ele>
  <time>2026-09-01T20:02:20Z</time>
  <course>6.91</course>
  <speed>0.022360679774997897</speed>
  <fix>3d</fix>
</trkpt>
<trkpt lat="64.1624777" lon="-139.8402246">
  <ele>1109.09</ele>
  <time>2026-09-01T20:02:20Z</time>
  <course>180.78</course>
  <speed>0.0</speed>
  <fix>3d</fix>
</trkpt>
<trkpt lat="64.1624775" lon="-139.8402243">
  <ele>1109.17</ele>
  <time>2026-09-01T20:02:20Z</time>
  <course>6.91</course>
  <speed>0.022360679774997897</speed>
  <fix>3d</fix>
</trkpt>
<trkpt lat="64.1624777" lon="-139.8402246">
  <ele>1109.09</ele>
  <time>2026-09-01T20:02:20Z</time>
  <course>180.78</course>
  <speed>0.0</speed>
  <fix>3d</fix>
</trkpt>
<trkpt lat="64.1624775" lon="-139.8402243">
  <ele>1109.17</ele>
  <time>2026-09-01T20:02:20Z</time>
  <course>6.91</course>
  <speed>0.022360679774997897</speed>
  <fix>3d</fix>
</trkpt>
<trkpt lat="64.1624777" lon="-139.8402246">
  <ele>1109.09</ele>
  <time>2026-09-01T20:02:20Z</time>
  <course>180.78</course>
  <speed>0.0</speed>
  <fix>3d</fix>
</trkpt>
<trkpt lat="64.1624775" lon="-139.8402243">
  <ele>1109.17</ele>
  <time>2026-09-01T20:02:20Z</time>
  <course>6.91</course>
  <speed>0.022360679774997897</speed>
  <fix>3d</fix>
</trkpt>
<trkpt lat="64.1624777" lon="-139.8402246">
  <ele>1109.09</ele>
  <time>2026-09-01T20:02:20Z</time>
  <course>180.78</course>
  <speed>0.0</speed>
  <fix>3d</fix>
</trkpt>
<trkpt lat="64.1624775" lon="-139.8402243">
  <ele>1109.17</ele>
  <time>2026-09-01T20:02:20Z</time>
  <course>6.91</course>
  <speed>0.022360679774997897</speed>
  <fix>3d</fix>
</trkpt>
<trkpt lat="64.1624777" lon="-139.8402246">
  <ele>1109.09</ele>
  <time>2026-09-01T20:02:20Z</time>
  <course>180.78</course>
  <speed>0.0</speed>
  <fix>3d</fix>
</trkpt>
<trkpt lat="64.1624775" lon="-139.8402243">
  <ele>1109.17</ele>
  <time>2026-09-01T20:02:20Z</time>
  <course>6.91</course>
  <speed>0.022360679774997897</speed>
  <fix>3d</fix>
</trkpt>
<trkpt lat="64.1624777" lon="-139.8402246">
  <ele>1109.09</ele>
  <time>2026-09-01T20:02:20Z</time>
  <course>180.78</course>
  <speed>0.0</speed>
  <fix>3d</fix>
</trkpt>
<trkpt lat="64.1624775" lon="-139.8402243">
  <ele>1109.17</ele>
  <time>2026-09-01T20:02:20Z</time>
  <course>6.91</course>
  <speed>0.022360679774997897</speed>
  <fix>3d</fix>
</trkpt>
<trkpt lat="64.1624777" lon="-139.8402246">
  <ele>1109.09</ele>
  <time>2026-09-01T20:02:20Z</time>
  <course>180.78</course>
  <speed>0.0</speed>
  <fix>3d</fix>
</trkpt>
<trkpt lat="64.1624775" lon="-139.8402243">
  <ele>1109.17</ele>
  <time>2026-09-01T20:02:20Z</time>
  <course>6.92</course>
  <speed>0.022360679774997897</speed>
  <fix>3d</fix>
</trkpt>
<trkpt lat="64.1624777" lon="-139.8402246">
  <ele>1109.09</ele>
  <time>2026-09-01T20:02:20Z</time>
  <course>180.78</course>
  <speed>0.0</speed>
  <fix>3d</fix>
</trkpt>
<trkpt lat="64.1624775" lon="-139.8402243">
  <ele>1109.17</ele>
  <time>2026-09-01T20:02:20Z</time>
  <course>6.92</course>
  <speed>0.022360679774997897</speed>
  <fix>3d</fix>
</trkpt>
<trkpt lat="64.1624777" lon="-139.8402246">
  <ele>1109.09</ele>
  <time>2026-09-01T20:02:20Z</time>
  <course>180.78</course>
  <speed>0.0</speed>
  <fix>3d</fix>
</trkpt>
<trkpt lat="64.1624775" lon="-139.8402243">
  <ele>1109.17</ele>
  <time>2026-09-01T20:02:20Z</time>
  <course>6.92</course>
  <speed>0.022360679774997897</speed>
  <fix>3d</fix>
</trkpt>
<trkpt lat="64.1624777" lon="-139.8402246">
  <ele>1109.09</ele>
  <time>2026-09-01T20:02:20Z</time>
  <course>180.78</course>
  <speed>0.0</speed>
  <fix>3d</fix>
</trkpt>
<trkpt lat="64.1624775" lon="-139.8402243">
  <ele>1109.18</ele>
  <time>2026-09-01T20:02:20Z</time>
  <course>6.92</course>
  <speed>0.022360679774997897</speed>
  <fix>3d</fix>
</trkpt>
<trkpt lat="64.1624777" lon="-139.8402246">
  <ele>1109.09</ele>
  <time>2026-09-01T20:02:20Z</time>
  <course>180.78</course>
  <speed>0.0</speed>
  <fix>3d</fix>
</trkpt>
<trkpt lat="64.1624775" lon="-139.8402243">
  <ele>1109.18</ele>
  <time>2026-09-01T20:02:20Z</time>
  <course>6.92</course>
  <speed>0.022360679774997897</speed>
  <fix>3d</fix>
</trkpt>
<trkpt lat="64.1624777" lon="-139.8402246">
  <ele>1109.09</ele>
  <time>2026-09-01T20:02:20Z</time>
  <course>180.78</course>
  <speed>0.0</speed>
  <fix>3d</fix>
</trkpt>
<trkpt lat="64.1624775" lon="-139.8402243">
  <ele>1109.18</ele>
  <time>2026-09-01T20:02:20Z</time>
  <course>6.92</course>
  <speed>0.022360679774997897</speed>
  <fix>3d</fix>
</trkpt>
<trkpt lat="64.1624777" lon="-139.8402246">
  <ele>1109.09</ele>
  <time>2026-09-01T20:02:20Z</time>
  <course>180.78</course>
  <speed>0.0</speed>
  <fix>3d</fix>
</trkpt>
<trkpt lat="64.1624775" lon="-139.8402243">
  <ele>1109.18</ele>
  <time>2026-09-01T20:02:20Z</time>
  <course>6.92</course>
  <speed>0.022360679774997897</speed>
  <fix>3d</fix>
</trkpt>
<trkpt lat="64.1624777" lon="-139.8402246">
  <ele>1109.09</ele>
  <time>2026-09-01T20:02:20Z</time>
  <course>180.78</course>
  <speed>0.0</speed>
  <fix>3d</fix>
</trkpt>
<trkpt lat="64.1624775" lon="-139.8402243">
  <ele>1109.19</ele>
  <time>2026-09-01T20:02:20Z</time>
  <course>6.92</course>
  <speed>0.022360679774997897</speed>
  <fix>3d</fix>
</trkpt>
<trkpt lat="64.1624777" lon="-139.8402246">
  <ele>1109.09</ele>
  <time>2026-09-01T20:02:20Z</time>
  <course>180.78</course>
  <speed>0.0</speed>
  <fix>3d</fix>
</trkpt>
<trkpt lat="64.1624775" lon="-139.8402243">
  <ele>1109.19</ele>
  <time>2026-09-01T20:02:20Z</time>
  <course>6.92</course>
  <speed>0.022360679774997897</speed>
  <fix>3d</fix>
</trkpt>
<trkpt lat="64.1624777" lon="-139.8402246">
  <ele>1109.09</ele>
  <time>2026-09-01T20:02:20Z</time>
  <course>180.78</course>
  <speed>0.0</speed>
  <fix>3d</fix>
</trkpt>
<trkpt lat="64.1624775" lon="-139.8402243">
  <ele>1109.19</ele>
  <time>2026-09-01T20:02:20Z</time>
  <course>6.92</course>
  <speed>0.022360679774997897</speed>
  <fix>3d</fix>
</trkpt>
<trkpt lat="64.1624777" lon="-139.8402246">
  <ele>1109.09</ele>
  <time>2026-09-01T20:02:20Z</time>
  <course>180.78</course>
  <speed>0.0</speed>
  <fix>3d</fix>
</trkpt>
<trkpt lat="64.1624775" lon="-139.8402243">
  <ele>1109.19</ele>
  <time>2026-09-01T20:02:20Z</time>
  <course>6.92</course>
  <speed>0.022360679774997897</speed>
  <fix>3d</fix>
</trkpt>
<trkpt lat="64.1624777" lon="-139.8402246">
  <ele>1109.09</ele>
  <time>2026-09-01T20:02:20Z</time>
  <course>180.78</course>
  <speed>0.0</speed>
  <fix>3d</fix>
</trkpt>
<trkpt lat="64.1624775" lon="-139.8402243">
  <ele>1109.19</ele>
  <time>2026-09-01T20:02:20Z</time>
  <course>6.93</course>
  <speed>0.022360679774997897</speed>
  <fix>3d</fix>
</trkpt>
<trkpt lat="64.1624777" lon="-139.8402246">
  <ele>1109.09</ele>
  <time>2026-09-01T20:02:20Z</time>
  <course>180.78</course>
  <speed>0.0</speed>
  <fix>3d</fix>
</trkpt>
<trkpt lat="64.1624775" lon="-139.8402243">
  <ele>1109.2</ele>
  <time>2026-09-01T20:02:20Z</time>
  <course>6.93</course>
  <speed>0.022360679774997897</speed>
  <fix>3d</fix>
</trkpt>
<trkpt lat="64.1624777" lon="-139.8402246">
  <ele>1109.09</ele>
  <time>2026-09-01T20:02:20Z</time>
  <course>180.78</course>
  <speed>0.0</speed>
  <fix>3d</fix>
</trkpt>
<trkpt lat="64.1624775" lon="-139.8402243">
  <ele>1109.2</ele>
  <time>2026-09-01T20:02:20Z</time>
  <course>6.93</course>
  <speed>0.022360679774997897</speed>
  <fix>3d</fix>
</trkpt>
<trkpt lat="64.1624777" lon="-139.8402246">
  <ele>1109.09</ele>
  <time>2026-09-01T20:02:20Z</time>
  <course>180.78</course>
  <speed>0.0</speed>
  <fix>3d</fix>
</trkpt>
<trkpt lat="64.1624775" lon="-139.8402243">
  <ele>1109.2</ele>
  <time>2026-09-01T20:02:20Z</time>
  <course>6.93</course>
  <speed>0.022360679774997897</speed>
  <fix>3d</fix>
</trkpt>
<trkpt lat="64.1624777" lon="-139.8402246">
  <ele>1109.09</ele>
  <time>2026-09-01T20:02:20Z</time>
  <course>180.78</course>
  <speed>0.0</speed>
  <fix>3d</fix>
</trkpt>
<trkpt lat="64.1624775" lon="-139.8402243">
  <ele>1109.2</ele>
  <time>2026-09-01T20:02:20Z</time>
  <course>6.93</course>
  <speed>0.022360679774997897</speed>
  <fix>3d</fix>
</trkpt>
<trkpt lat="64.1624777" lon="-139.8402246">
  <ele>1109.09</ele>
  <time>2026-09-01T20:02:20Z</time>
  <course>180.78</course>
  <speed>0.0</speed>
  <fix>3d</fix>
</trkpt>
<trkpt lat="64.1624775" lon="-139.8402243">
  <ele>1109.2</ele>
  <time>2026-09-01T20:02:20Z</time>
  <course>6.93</course>
  <speed>0.022360679774997897</speed>
  <fix>3d</fix>
</trkpt>
<trkpt lat="64.1624777" lon="-139.8402246">
  <ele>1109.09</ele>
  <time>2026-09-01T20:02:20Z</time>
  <course>180.78</course>
  <speed>0.0</speed>
  <fix>3d</fix>
</trkpt>
<trkpt lat="64.1624775" lon="-139.8402243">
  <ele>1109.2</ele>
  <time>2026-09-01T20:02:20Z</time>
  <course>6.93</course>
  <speed>0.022360679774997897</speed>
  <fix>3d</fix>
</trkpt>
<trkpt lat="64.1624777" lon="-139.8402246">
  <ele>1109.09</ele>
  <time>2026-09-01T20:02:20Z</time>
  <course>180.78</course>
  <speed>0.0</speed>
  <fix>3d</fix>
</trkpt>
<trkpt lat="64.1624775" lon="-139.8402243">
  <ele>1109.2</ele>
  <time>2026-09-01T20:02:20Z</time>
  <course>6.93</course>
  <speed>0.022360679774997897</speed>
  <fix>3d</fix>
</trkpt>
<trkpt lat="64.1624777" lon="-139.8402246">
  <ele>1109.09</ele>
  <time>2026-09-01T20:02:20Z</time>
  <course>180.78</course>
  <speed>0.0</speed>
  <fix>3d</fix>
</trkpt>
<trkpt lat="64.1624775" lon="-139.8402243">
  <ele>1109.21</ele>
  <time>2026-09-01T20:02:20Z</time>
  <course>6.93</course>
  <speed>0.022360679774997897</speed>
  <fix>3d</fix>
</trkpt>
<trkpt lat="64.1624777" lon="-139.8402246">
  <ele>1109.09</ele>
  <time>2026-09-01T20:02:20Z</time>
  <course>180.78</course>
  <speed>0.0</speed>
  <fix>3d</fix>
</trkpt>
<trkpt lat="64.1624775" lon="-139.8402243">
  <ele>1109.21</ele>
  <time>2026-09-01T20:02:20Z</time>
  <course>6.93</course>
  <speed>0.022360679774997897</speed>
  <fix>3d</fix>
</trkpt>
<trkpt lat="64.1624777" lon="-139.8402246">
  <ele>1109.09</ele>
  <time>2026-09-01T20:02:20Z</time>
  <course>180.78</course>
  <speed>0.0</speed>
  <fix>3d</fix>
</trkpt>
<trkpt lat="64.1624775" lon="-139.8402243">
  <ele>1109.21</ele>
  <time>2026-09-01T20:02:20Z</time>
  <course>6.94</course>
  <speed>0.022360679774997897</speed>
  <fix>3d</fix>
</trkpt>
<trkpt lat="64.1624777" lon="-139.8402246">
  <ele>1109.09</ele>
  <time>2026-09-01T20:02:20Z</time>
  <course>180.78</course>
  <speed>0.0</speed>
  <fix>3d</fix>
</trkpt>
<trkpt lat="64.1624775" lon="-139.8402243">
  <ele>1109.21</ele>
  <time>2026-09-01T20:02:20Z</time>
  <course>6.94</course>
  <speed>0.022360679774997897</speed>
  <fix>3d</fix>
</trkpt>
<trkpt lat="64.1624777" lon="-139.8402246">
  <ele>1109.09</ele>
  <time>2026-09-01T20:02:20Z</time>
  <course>180.78</course>
  <speed>0.0</speed>
  <fix>3d</fix>
</trkpt>
<trkpt lat="64.1624775" lon="-139.8402243">
  <ele>1109.21</ele>
  <time>2026-09-01T20:02:20Z</time>
  <course>6.94</course>
  <speed>0.022360679774997897</speed>
  <fix>3d</fix>
</trkpt>
<trkpt lat="64.1624777" lon="-139.8402246">
  <ele>1109.09</ele>
  <time>2026-09-01T20:02:20Z</time>
  <course>180.78</course>
  <speed>0.0</speed>
  <fix>3d</fix>
</trkpt>
<trkpt lat="64.1624775" lon="-139.8402243">
  <ele>1109.09</ele>
  <time>2026-09-01T20:02:20Z</time>
  <course>6.94</course>
  <speed>0.022360679774997897</speed>
  <fix>3d</fix>
</trkpt>
<trkpt lat="64.1624777" lon="-139.8402246">
  <ele>1109.09</ele>
  <time>2026-09-01T20:02:20Z</time>
  <course>180.78</course>
  <speed>0.0</speed>
  <fix>3d</fix>
</trkpt>
<trkpt lat="64.1624775" lon="-139.8402243">
  <ele>1109.09</ele>
  <time>2026-09-01T20:02:20Z</time>
  <course>6.94</course>
  <speed>0.022360679774997897</speed>
  <fix>3d</fix>
</trkpt>
<trkpt lat="64.1624777" lon="-139.8402246">
  <ele>1109.09</ele>
  <time>2026-09-01T20:02:20Z</time>
  <course>180.78</course>
  <speed>0.0</speed>
  <fix>3d</fix>
</trkpt>
<trkpt lat="64.1624775" lon="-139.8402243">
  <ele>1109.09</ele>
  <time>2026-09-01T20:02:20Z</time>
  <course>6.94</course>
  <speed>0.022360679774997897</speed>
  <fix>3d</fix>
</trkpt>
<trkpt lat="64.1624777" lon="-139.8402246">
  <ele>1109.09</ele>
  <time>2026-09-01T20:02:20Z</time>
  <course>180.78</course>
  <speed>0.0</speed>
  <fix>3d</fix>
</trkpt>
<trkpt lat="64.1624775" lon="-139.8402243">
  <ele>1109.09</ele>
  <time>2026-09-01T20:02:20Z</time>
  <course>6.94</course>
  <speed>0.022360679774997897</speed>
  <fix>3d</fix>
</trkpt>
<trkpt lat="64.1624777" lon="-139.8402246">
  <ele>1109.09</ele>
  <time>2026-09-01T20:02:20Z</time>
  <course>180.78</course>
  <speed>0.0</speed>
  <fix>3d</fix>
</trkpt>
<trkpt lat="64.1624775" lon="-139.8402243">
  <ele>1109.09</ele>
  <time>2026-09-01T20:02:20Z</time>
  <course>6.94</course>
  <speed>0.022360679774997897</speed>
  <fix>3d</fix>
</trkpt>
<trkpt lat="64.1624777" lon="-139.8402246">
  <ele>1109.09</ele>
  <time>2026-09-01T20:02:20Z</time>
  <course>180.78</course>
  <speed>0.0</speed>
  <fix>3d</fix>
</trkpt>
<trkpt lat="64.1624775" lon="-139.8402243">
  <ele>1109.09</ele>
  <time>2026-09-01T20:02:20Z</time>
  <course>6.94</course>
  <speed>0.022360679774997897</speed>
  <fix>3d</fix>
</trkpt>
<trkpt lat="64.1624777" lon="-139.8402246">
  <ele>1109.09</ele>
  <time>2026-09-01T20:02:20Z</time>
  <course>180.78</course>
  <speed>0.0</speed>
  <fix>3d</fix>
</trkpt>
<trkpt lat="64.1624775" lon="-139.8402243">
  <ele>1109.09</ele>
  <time>2026-09-01T20:02:20Z</time>
  <course>6.94</course>
  <speed>0.022360679774997897</speed>
  <fix>3d</fix>
</trkpt>
<trkpt lat="64.1624777" lon="-139.8402246">
  <ele>1109.09</ele>
  <time>2026-09-01T20:02:20Z</time>
  <course>180.78</course>
  <speed>0.0</speed>
  <fix>3d</fix>
</trkpt>
<trkpt lat="64.1624775" lon="-139.8402243">
  <ele>1109.09</ele>
  <time>2026-09-01T20:02:20Z</time>
  <course>6.94</course>
  <speed>0.022360679774997897</speed>
  <fix>3d</fix>
</trkpt>
<trkpt lat="64.1624777" lon="-139.8402246">
  <ele>1109.09</ele>
  <time>2026-09-01T20:02:20Z</time>
  <course>180.78</course>
  <speed>0.0</speed>
  <fix>3d</fix>
</trkpt>
<trkpt lat="64.1624775" lon="-139.8402243">
  <ele>1109.09</ele>
  <time>2026-09-01T20:02:20Z</time>
  <course>6.95</course>
  <speed>0.022360679774997897</speed>
  <fix>3d</fix>
</trkpt>
<trkpt lat="64.1624777" lon="-139.8402246">
  <ele>1109.09</ele>
  <time>2026-09-01T20:02:20Z</time>
  <course>180.78</course>
  <speed>0.0</speed>
  <fix>3d</fix>
</trkpt>
<trkpt lat="64.1624775" lon="-139.8402243">
  <ele>1109.09</ele>
  <time>2026-09-01T20:02:20Z</time>
  <course>6.95</course>
  <speed>0.022360679774997897</speed>
  <fix>3d</fix>
</trkpt>
<trkpt lat="64.1624777" lon="-139.8402246">
  <ele>1109.09</ele>
  <time>2026-09-01T20:02:20Z</time>
  <course>180.78</course>
  <speed>0.0</speed>
  <fix>3d</fix>
</trkpt>
<trkpt lat="64.1624775" lon="-139.8402243">
  <ele>1109.09</ele>
  <time>2026-09-01T20:02:20Z</time>
  <course>6.95</course>
  <speed>0.022360679774997897</speed>
  <fix>3d</fix>
</trkpt>
<trkpt lat="64.1624777" lon="-139.8402246">
  <ele>1109.09</ele>
  <time>2026-09-01T20:02:20Z</time>
  <course>180.78</course>
  <speed>0.0</speed>
  <fix>3d</fix>
</trkpt>
<trkpt lat="64.1624775" lon="-139.8402243">
  <ele>1109.09</ele>
  <time>2026-09-01T20:02:20Z</time>
  <course>6.95</course>
  <speed>0.022360679774997897</speed>
  <fix>3d</fix>
</trkpt>
<trkpt lat="64.1624777" lon="-139.8402246">
  <ele>1109.09</ele>
  <time>2026-09-01T20:02:20Z</time>
  <course>180.78</course>
  <speed>0.0</speed>
  <fix>3d</fix>
</trkpt>
<trkpt lat="64.1624775" lon="-139.8402243">
  <ele>1109.09</ele>
  <time>2026-09-01T20:02:20Z</time>
  <course>6.95</course>
  <speed>0.022360679774997897</speed>
  <fix>3d</fix>
</trkpt>
<trkpt lat="64.1624777" lon="-139.8402246">
  <ele>1109.09</ele>
  <time>2026-09-01T20:02:20Z</time>
  <course>180.78</course>
  <speed>0.0</speed>
  <fix>3d</fix>
</trkpt>
<trkpt lat="64.1624775" lon="-139.8402243">
  <ele>1109.09</ele>
  <time>2026-09-01T20:02:20Z</time>
  <course>6.95</course>
  <speed>0.022360679774997897</speed>
  <fix>3d</fix>
</trkpt>
<trkpt lat="64.1624777" lon="-139.8402246">
  <ele>1109.09</ele>
  <time>2026-09-01T20:02:20Z</time>
  <course>180.78</course>
  <speed>0.0</speed>
  <fix>3d</fix>
</trkpt>
<trkpt lat="64.1624775" lon="-139.8402243">
  <ele>1109.09</ele>
  <time>2026-09-01T20:02:20Z</time>
  <course>6.95</course>
  <speed>0.022360679774997897</speed>
  <fix>3d</fix>
</trkpt>
<trkpt lat="64.1624777" lon="-139.8402246">
  <ele>1109.09</ele>
  <time>2026-09-01T20:02:20Z</time>
  <course>180.78</course>
  <speed>0.0</speed>
  <fix>3d</fix>
</trkpt>
<trkpt lat="64.1624775" lon="-139.8402243">
  <ele>1109.09</ele>
  <time>2026-09-01T20:02:20Z</time>
  <course>6.95</course>
  <speed>0.022360679774997897</speed>
  <fix>3d</fix>
</trkpt>
<trkpt lat="64.1624777" lon="-139.8402246">
  <ele>1109.09</ele>
  <time>2026-09-01T20:02:20Z</time>
  <course>180.78</course>
  <speed>0.0</speed>
  <fix>3d</fix>
</trkpt>
<trkpt lat="64.1624775" lon="-139.8402243">
  <ele>1109.09</ele>
  <time>2026-09-01T20:02:20Z</time>
  <course>6.95</course>
  <speed>0.022360679774997897</speed>
  <fix>3d</fix>
</trkpt>
<trkpt lat="64.1624777" lon="-139.8402246">
  <ele>1109.09</ele>
  <time>2026-09-01T20:02:20Z</time>
  <course>180.78</course>
  <speed>0.0</speed>
  <fix>3d</fix>
</trkpt>
<trkpt lat="64.1624775" lon="-139.8402243">
  <ele>1109.1</ele>
  <time>2026-09-01T20:02:20Z</time>
  <course>6.95</course>
  <speed>0.022360679774997897</speed>
  <fix>3d</fix>
</trkpt>
<trkpt lat="64.1624777" lon="-139.8402246">
  <ele>1109.09</ele>
  <time>2026-09-01T20:02:20Z</time>
  <course>180.78</course>
  <speed>0.0</speed>
  <fix>3d</fix>
</trkpt>
<trkpt lat="64.1624775" lon="-139.8402243">
  <ele>1109.1</ele>
  <time>2026-09-01T20:02:20Z</time>
  <course>6.95</course>
  <speed>0.022360679774997897</speed>
  <fix>3d</fix>
</trkpt>
<trkpt lat="64.1624777" lon="-139.8402246">
  <ele>1109.09</ele>
  <time>2026-09-01T20:02:20Z</time>
  <course>180.78</course>
  <speed>0.0</speed>
  <fix>3d</fix>
</trkpt>
<trkpt lat="64.1624775" lon="-139.8402243">
  <ele>1109.1</ele>
  <time>2026-09-01T20:02:20Z</time>
  <course>6.96</course>
  <speed>0.022360679774997897</speed>
  <fix>3d</fix>
</trkpt>
<trkpt lat="64.1624777" lon="-139.8402246">
  <ele>1109.09</ele>
  <time>2026-09-01T20:02:20Z</time>
  <course>180.78</course>
  <speed>0.0</speed>
  <fix>3d</fix>
</trkpt>
<trkpt lat="64.1624775" lon="-139.8402243">
  <ele>1109.09</ele>
  <time>2026-09-01T20:02:20Z</time>
  <course>6.96</course>
  <speed>0.022360679774997897</speed>
  <fix>3d</fix>
</trkpt>
<trkpt lat="64.1624777" lon="-139.8402246">
  <ele>1109.09</ele>
  <time>2026-09-01T20:02:20Z</time>
  <course>180.78</course>
  <speed>0.0</speed>
  <fix>3d</fix>
</trkpt>
<trkpt lat="64.1624775" lon="-139.8402243">
  <ele>1109.09</ele>
  <time>2026-09-01T20:02:20Z</time>
  <course>6.96</course>
  <speed>0.022360679774997897</speed>
  <fix>3d</fix>
</trkpt>
<trkpt lat="64.1624777" lon="-139.8402246">
  <ele>1109.09</ele>
  <time>2026-09-01T20:02:20Z</time>
  <course>180.78</course>
  <speed>0.0</speed>
  <fix>3d</fix>
</trkpt>
<trkpt lat="64.1624775" lon="-139.8402243">
  <ele>1109.09</ele>
  <time>2026-09-01T20:02:20Z</time>
  <course>6.96</course>
  <speed>0.022360679774997897</speed>
  <fix>3d</fix>
</trkpt>
<trkpt lat="64.1624777" lon="-139.8402246">
  <ele>1109.09</ele>
  <time>2026-09-01T20:02:20Z</time>
  <course>180.78</course>
  <speed>0.0</speed>
  <fix>3d</fix>
</trkpt>
<trkpt lat="64.1624775" lon="-139.8402243">
  <ele>1109.09</ele>
  <time>2026-09-01T20:02:20Z</time>
  <course>6.96</course>
  <speed>0.022360679774997897</speed>
  <fix>3d</fix>
</trkpt>
<trkpt lat="64.1624777" lon="-139.8402246">
  <ele>1109.09</ele>
  <time>2026-09-01T20:02:20Z</time>
  <course>180.78</course>
  <speed>0.0</speed>
  <fix>3d</fix>
</trkpt>
<trkpt lat="64.1624775" lon="-139.8402243">
  <ele>1109.09</ele>
  <time>2026-09-01T20:02:20Z</time>
  <course>6.96</course>
  <speed>0.022360679774997897</speed>
  <fix>3d</fix>
</trkpt>
<trkpt lat="64.1624777" lon="-139.8402246">
  <ele>1109.09</ele>
  <time>2026-09-01T20:02:20Z</time>
  <course>180.78</course>
  <speed>0.0</speed>
  <fix>3d</fix>
</trkpt>
<trkpt lat="64.1624775" lon="-139.8402243">
  <ele>1109.09</ele>
  <time>2026-09-01T20:02:20Z</time>
  <course>6.96</course>
  <speed>0.022360679774997897</speed>
  <fix>3d</fix>
</trkpt>
<trkpt lat="64.1624777" lon="-139.8402246">
  <ele>1109.09</ele>
  <time>2026-09-01T20:02:20Z</time>
  <course>180.78</course>
  <speed>0.0</speed>
  <fix>3d</fix>
</trkpt>
<trkpt lat="64.1624775" lon="-139.8402243">
  <ele>1109.09</ele>
  <time>2026-09-01T20:02:20Z</time>
  <course>6.96</course>
  <speed>0.022360679774997897</speed>
  <fix>3d</fix>
</trkpt>
<trkpt lat="64.1624777" lon="-139.8402246">
  <ele>1109.09</ele>
  <time>2026-09-01T20:02:20Z</time>
  <course>180.78</course>
  <speed>0.0</speed>
  <fix>3d</fix>
</trkpt>
<trkpt lat="64.1624775" lon="-139.8402243">
  <ele>1109.09</ele>
  <time>2026-09-01T20:02:20Z</time>
  <course>6.96</course>
  <speed>0.022360679774997897</speed>
  <fix>3d</fix>
</trkpt>
<trkpt lat="64.1624777" lon="-139.8402246">
  <ele>1109.09</ele>
  <time>2026-09-01T20:02:20Z</time>
  <course>180.78</course>
  <speed>0.0</speed>
  <fix>3d</fix>
</trkpt>
<trkpt lat="64.1624775" lon="-139.8402243">
  <ele>1109.09</ele>
  <time>2026-09-01T20:02:20Z</time>
  <course>6.96</course>
  <speed>0.022360679774997897</speed>
  <fix>3d</fix>
</trkpt>
<trkpt lat="64.1624777" lon="-139.8402246">
  <ele>1109.09</ele>
  <time>2026-09-01T20:02:20Z</time>
  <course>180.78</course>
  <speed>0.0</speed>
  <fix>3d</fix>
</trkpt>
<trkpt lat="64.1624775" lon="-139.8402243">
  <ele>1109.09</ele>
  <time>2026-09-01T20:02:20Z</time>
  <course>6.96</course>
  <speed>0.022360679774997897</speed>
  <fix>3d</fix>
</trkpt>
<trkpt lat="64.1624777" lon="-139.8402246">
  <ele>1109.09</ele>
  <time>2026-09-01T20:02:20Z</time>
  <course>180.78</course>
  <speed>0.0</speed>
  <fix>3d</fix>
</trkpt>
<trkpt lat="64.1624775" lon="-139.8402243">
  <ele>1109.09</ele>
  <time>2026-09-01T20:02:20Z</time>
  <course>6.97</course>
  <speed>0.022360679774997897</speed>
  <fix>3d</fix>
</trkpt>
<trkpt lat="64.1624777" lon="-139.8402246">
  <ele>1109.09</ele>
  <time>2026-09-01T20:02:20Z</time>
  <course>180.78</course>
  <speed>0.0</speed>
  <fix>3d</fix>
</trkpt>
<trkpt lat="64.1624775" lon="-139.8402243">
  <ele>1109.09</ele>
  <time>2026-09-01T20:02:20Z</time>
  <course>6.97</course>
  <speed>0.022360679774997897</speed>
  <fix>3d</fix>
</trkpt>
<trkpt lat="64.1624777" lon="-139.8402246">
  <ele>1109.09</ele>
  <time>2026-09-01T20:02:20Z</time>
  <course>180.78</course>
  <speed>0.0</speed>
  <fix>3d</fix>
</trkpt>
<trkpt lat="64.1624775" lon="-139.8402243">
  <ele>1109.09</ele>
  <time>2026-09-01T20:02:20Z</time>
  <course>6.97</course>
  <speed>0.022360679774997897</speed>
  <fix>3d</fix>
</trkpt>
<trkpt lat="64.1624777" lon="-139.8402246">
  <ele>1109.09</ele>
  <time>2026-09-01T20:02:20Z</time>
  <course>180.78</course>
  <speed>0.0</speed>
  <fix>3d</fix>
</trkpt>
<trkpt lat="64.1624775" lon="-139.8402243">
  <ele>1109.09</ele>
  <time>2026-09-01T20:02:20Z</time>
  <course>6.97</course>
  <speed>0.022360679774997897</speed>
  <fix>3d</fix>
</trkpt>
<trkpt lat="64.1624777" lon="-139.8402246">
  <ele>1109.09</ele>
  <time>2026-09-01T20:02:20Z</time>
  <course>180.78</course>
  <speed>0.0</speed>
  <fix>3d</fix>
</trkpt>
<trkpt lat="64.1624775" lon="-139.8402243">
  <ele>1109.1</ele>
  <time>2026-09-01T20:02:21Z</time>
  <course>6.97</course>
  <speed>0.022360679774997897</speed>
  <fix>3d</fix>
</trkpt>
<trkpt lat="64.1624777" lon="-139.8402246">
  <ele>1109.09</ele>
  <time>2026-09-01T20:02:21Z</time>
  <course>180.78</course>
  <speed>0.0</speed>
  <fix>3d</fix>
</trkpt>
<trkpt lat="64.1624775" lon="-139.8402243">
  <ele>1109.1</ele>
  <time>2026-09-01T20:02:21Z</time>
  <course>6.97</course>
  <speed>0.022360679774997897</speed>
  <fix>3d</fix>
</trkpt>
<trkpt lat="64.1624777" lon="-139.8402246">
  <ele>1109.09</ele>
  <time>2026-09-01T20:02:21Z</time>
  <course>180.78</course>
  <speed>0.0</speed>
  <fix>3d</fix>
</trkpt>
<trkpt lat="64.1624775" lon="-139.8402243">
  <ele>1109.1</ele>
  <time>2026-09-01T20:02:21Z</time>
  <course>6.97</course>
  <speed>0.022360679774997897</speed>
  <fix>3d</fix>
</trkpt>
<trkpt lat="64.1624777" lon="-139.8402246">
  <ele>1109.09</ele>
  <time>2026-09-01T20:02:21Z</time>
  <course>180.78</course>
  <speed>0.0</speed>
  <fix>3d</fix>
</trkpt>
<trkpt lat="64.1624775" lon="-139.8402243">
  <ele>1109.1</ele>
  <time>2026-09-01T20:02:21Z</time>
  <course>6.97</course>
  <speed>0.022360679774997897</speed>
  <fix>3d</fix>
</trkpt>
<trkpt lat="64.1624777" lon="-139.8402246">
  <ele>1109.09</ele>
  <time>2026-09-01T20:02:21Z</time>
  <course>180.78</course>
  <speed>0.0</speed>
  <fix>3d</fix>
</trkpt>
<trkpt lat="64.1624775" lon="-139.8402243">
  <ele>1109.1</ele>
  <time>2026-09-01T20:02:21Z</time>
  <course>6.97</course>
  <speed>0.022360679774997897</speed>
  <fix>3d</fix>
</trkpt>
<trkpt lat="64.1624777" lon="-139.8402246">
  <ele>1109.09</ele>
  <time>2026-09-01T20:02:21Z</time>
  <course>180.78</course>
  <speed>0.0</speed>
  <fix>3d</fix>
</trkpt>
<trkpt lat="64.1624775" lon="-139.8402243">
  <ele>1109.1</ele>
  <time>2026-09-01T20:02:21Z</time>
  <course>6.97</course>
  <speed>0.022360679774997897</speed>
  <fix>3d</fix>
</trkpt>
<trkpt lat="64.1624777" lon="-139.8402246">
  <ele>1109.09</ele>
  <time>2026-09-01T20:02:21Z</time>
  <course>180.78</course>
  <speed>0.0</speed>
  <fix>3d</fix>
</trkpt>
<trkpt lat="64.1624775" lon="-139.8402243">
  <ele>1109.1</ele>
  <time>2026-09-01T20:02:21Z</time>
  <course>6.98</course>
  <speed>0.022360679774997897</speed>
  <fix>3d</fix>
</trkpt>
<trkpt lat="64.1624777" lon="-139.8402246">
  <ele>1109.09</ele>
  <time>2026-09-01T20:02:21Z</time>
  <course>180.78</course>
  <speed>0.0</speed>
  <fix>3d</fix>
</trkpt>
<trkpt lat="64.1624775" lon="-139.8402243">
  <ele>1109.1</ele>
  <time>2026-09-01T20:02:21Z</time>
  <course>6.98</course>
  <speed>0.022360679774997897</speed>
  <fix>3d</fix>
</trkpt>
<trkpt lat="64.1624777" lon="-139.8402246">
  <ele>1109.09</ele>
  <time>2026-09-01T20:02:21Z</time>
  <course>180.78</course>
  <speed>0.0</speed>
  <fix>3d</fix>
</trkpt>
<trkpt lat="64.1624775" lon="-139.8402243">
  <ele>1109.11</ele>
  <time>2026-09-01T20:02:21Z</time>
  <course>6.98</course>
  <speed>0.022360679774997897</speed>
  <fix>3d</fix>
</trkpt>
<trkpt lat="64.1624777" lon="-139.8402246">
  <ele>1109.09</ele>
  <time>2026-09-01T20:02:21Z</time>
  <course>180.78</course>
  <speed>0.0</speed>
  <fix>3d</fix>
</trkpt>
<trkpt lat="64.1624775" lon="-139.8402243">
  <ele>1109.11</ele>
  <time>2026-09-01T20:02:21Z</time>
  <course>6.98</course>
  <speed>0.022360679774997897</speed>
  <fix>3d</fix>
</trkpt>
<trkpt lat="64.1624777" lon="-139.8402246">
  <ele>1109.09</ele>
  <time>2026-09-01T20:02:21Z</time>
  <course>180.78</course>
  <speed>0.0</speed>
  <fix>3d</fix>
</trkpt>
<trkpt lat="64.1624775" lon="-139.8402243">
  <ele>1109.11</ele>
  <time>2026-09-01T20:02:21Z</time>
  <course>6.98</course>
  <speed>0.022360679774997897</speed>
  <fix>3d</fix>
</trkpt>
<trkpt lat="64.1624777" lon="-139.8402246">
  <ele>1109.09</ele>
  <time>2026-09-01T20:02:21Z</time>
  <course>180.78</course>
  <speed>0.0</speed>
  <fix>3d</fix>
</trkpt>
<trkpt lat="64.1624775" lon="-139.8402243">
  <ele>1109.11</ele>
  <time>2026-09-01T20:02:21Z</time>
  <course>6.98</course>
  <speed>0.022360679774997897</speed>
  <fix>3d</fix>
</trkpt>
<trkpt lat="64.1624777" lon="-139.8402246">
  <ele>1109.09</ele>
  <time>2026-09-01T20:02:21Z</time>
  <course>180.78</course>
  <speed>0.0</speed>
  <fix>3d</fix>
</trkpt>
<trkpt lat="64.1624775" lon="-139.8402243">
  <ele>1109.11</ele>
  <time>2026-09-01T20:02:21Z</time>
  <course>6.98</course>
  <speed>0.022360679774997897</speed>
  <fix>3d</fix>
</trkpt>
<trkpt lat="64.1624777" lon="-139.8402246">
  <ele>1109.09</ele>
  <time>2026-09-01T20:02:21Z</time>
  <course>180.78</course>
  <speed>0.0</speed>
  <fix>3d</fix>
</trkpt>
<trkpt lat="64.1624775" lon="-139.8402243">
  <ele>1109.11</ele>
  <time>2026-09-01T20:02:21Z</time>
  <course>6.98</course>
  <speed>0.022360679774997897</speed>
  <fix>3d</fix>
</trkpt>
<trkpt lat="64.1624777" lon="-139.8402246">
  <ele>1109.09</ele>
  <time>2026-09-01T20:02:21Z</time>
  <course>180.78</course>
  <speed>0.0</speed>
  <fix>3d</fix>
</trkpt>
<trkpt lat="64.1624775" lon="-139.8402243">
  <ele>1109.11</ele>
  <time>2026-09-01T20:02:21Z</time>
  <course>6.98</course>
  <speed>0.022360679774997897</speed>
  <fix>3d</fix>
</trkpt>
<trkpt lat="64.1624777" lon="-139.8402246">
  <ele>1109.09</ele>
  <time>2026-09-01T20:02:21Z</time>
  <course>180.78</course>
  <speed>0.0</speed>
  <fix>3d</fix>
</trkpt>
<trkpt lat="64.1624775" lon="-139.8402243">
  <ele>1109.11</ele>
  <time>2026-09-01T20:02:21Z</time>
  <course>6.98</course>
  <speed>0.022360679774997897</speed>
  <fix>3d</fix>
</trkpt>
<trkpt lat="64.1624777" lon="-139.8402246">
  <ele>1109.09</ele>
  <time>2026-09-01T20:02:21Z</time>
  <course>180.78</course>
  <speed>0.0</speed>
  <fix>3d</fix>
</trkpt>
<trkpt lat="64.1624775" lon="-139.8402243">
  <ele>1109.11</ele>
  <time>2026-09-01T20:02:21Z</time>
  <course>6.98</course>
  <speed>0.022360679774997897</speed>
  <fix>3d</fix>
</trkpt>
<trkpt lat="64.1624777" lon="-139.8402246">
  <ele>1109.09</ele>
  <time>2026-09-01T20:02:21Z</time>
  <course>180.78</course>
  <speed>0.0</speed>
  <fix>3d</fix>
</trkpt>
<trkpt lat="64.1624775" lon="-139.8402243">
  <ele>1109.11</ele>
  <time>2026-09-01T20:02:21Z</time>
  <course>6.99</course>
  <speed>0.022360679774997897</speed>
  <fix>3d</fix>
</trkpt>
<trkpt lat="64.1624777" lon="-139.8402246">
  <ele>1109.09</ele>
  <time>2026-09-01T20:02:21Z</time>
  <course>180.78</course>
  <speed>0.0</speed>
  <fix>3d</fix>
</trkpt>
<trkpt lat="64.1624775" lon="-139.8402243">
  <ele>1109.11</ele>
  <time>2026-09-01T20:02:21Z</time>
  <course>6.99</course>
  <speed>0.022360679774997897</speed>
  <fix>3d</fix>
</trkpt>
<trkpt lat="64.1624777" lon="-139.8402246">
  <ele>1109.09</ele>
  <time>2026-09-01T20:02:21Z</time>
  <course>180.78</course>
  <speed>0.0</speed>
  <fix>3d</fix>
</trkpt>
<trkpt lat="64.1624775" lon="-139.8402243">
  <ele>1109.11</ele>
  <time>2026-09-01T20:02:21Z</time>
  <course>6.99</course>
  <speed>0.022360679774997897</speed>
  <fix>3d</fix>
</trkpt>
<trkpt lat="64.1624777" lon="-139.8402246">
  <ele>1109.09</ele>
  <time>2026-09-01T20:02:21Z</time>
  <course>180.78</course>
  <speed>0.0</speed>
  <fix>3d</fix>
</trkpt>
<trkpt lat="64.1624775" lon="-139.8402243">
  <ele>1109.12</ele>
  <time>2026-09-01T20:02:21Z</time>
  <course>6.99</course>
  <speed>0.022360679774997897</speed>
  <fix>3d</fix>
</trkpt>
<trkpt lat="64.1624777" lon="-139.8402246">
  <ele>1109.09</ele>
  <time>2026-09-01T20:02:21Z</time>
  <course>180.78</course>
  <speed>0.0</speed>
  <fix>3d</fix>
</trkpt>
<trkpt lat="64.1624775" lon="-139.8402243">
  <ele>1109.12</ele>
  <time>2026-09-01T20:02:21Z</time>
  <course>6.99</course>
  <speed>0.022360679774997897</speed>
  <fix>3d</fix>
</trkpt>
<trkpt lat="64.1624777" lon="-139.8402246">
  <ele>1109.09</ele>
  <time>2026-09-01T20:02:21Z</time>
  <course>180.78</course>
  <speed>0.0</speed>
  <fix>3d</fix>
</trkpt>
<trkpt lat="64.1624775" lon="-139.8402243">
  <ele>1109.12</ele>
  <time>2026-09-01T20:02:21Z</time>
  <course>6.99</course>
  <speed>0.022360679774997897</speed>
  <fix>3d</fix>
</trkpt>
<trkpt lat="64.1624777" lon="-139.8402246">
  <ele>1109.09</ele>
  <time>2026-09-01T20:02:21Z</time>
  <course>180.78</course>
  <speed>0.0</speed>
  <fix>3d</fix>
</trkpt>
<trkpt lat="64.1624775" lon="-139.8402243">
  <ele>1109.12</ele>
  <time>2026-09-01T20:02:21Z</time>
  <course>6.99</course>
  <speed>0.022360679774997897</speed>
  <fix>3d</fix>
</trkpt>
<trkpt lat="64.1624777" lon="-139.8402246">
  <ele>1109.09</ele>
  <time>2026-09-01T20:02:21Z</time>
  <course>180.78</course>
  <speed>0.0</speed>
  <fix>3d</fix>
</trkpt>
<trkpt lat="64.1624775" lon="-139.8402243">
  <ele>1109.12</ele>
  <time>2026-09-01T20:02:21Z</time>
  <course>6.99</course>
  <speed>0.022360679774997897</speed>
  <fix>3d</fix>
</trkpt>
<trkpt lat="64.1624777" lon="-139.8402246">
  <ele>1109.09</ele>
  <time>2026-09-01T20:02:21Z</time>
  <course>180.78</course>
  <speed>0.0</speed>
  <fix>3d</fix>
</trkpt>
<trkpt lat="64.1624775" lon="-139.8402243">
  <ele>1109.12</ele>
  <time>2026-09-01T20:02:21Z</time>
  <course>6.99</course>
  <speed>0.022360679774997897</speed>
  <fix>3d</fix>
</trkpt>
<trkpt lat="64.1624777" lon="-139.8402246">
  <ele>1109.09</ele>
  <time>2026-09-01T20:02:21Z</time>
  <course>180.78</course>
  <speed>0.0</speed>
  <fix>3d</fix>
</trkpt>
<trkpt lat="64.1624775" lon="-139.8402243">
  <ele>1109.09</ele>
  <time>2026-09-01T20:02:21Z</time>
  <course>6.99</course>
  <speed>0.022360679774997897</speed>
  <fix>3d</fix>
</trkpt>
<trkpt lat="64.1624777" lon="-139.8402246">
  <ele>1109.09</ele>
  <time>2026-09-01T20:02:21Z</time>
  <course>180.78</course>
  <speed>0.0</speed>
  <fix>3d</fix>
</trkpt>
<trkpt lat="64.1624775" lon="-139.8402243">
  <ele>1109.08</ele>
  <time>2026-09-01T20:02:21Z</time>
  <course>6.99</course>
  <speed>0.022360679774997897</speed>
  <fix>3d</fix>
</trkpt>
<trkpt lat="64.1624777" lon="-139.8402246">
  <ele>1109.09</ele>
  <time>2026-09-01T20:02:21Z</time>
  <course>180.78</course>
  <speed>0.0</speed>
  <fix>3d</fix>
</trkpt>
<trkpt lat="64.1624775" lon="-139.8402243">
  <ele>1109.09</ele>
  <time>2026-09-01T20:02:21Z</time>
  <course>7.0</course>
  <speed>0.022360679774997897</speed>
  <fix>3d</fix>
</trkpt>
<trkpt lat="64.1624777" lon="-139.8402246">
  <ele>1109.09</ele>
  <time>2026-09-01T20:02:21Z</time>
  <course>180.78</course>
  <speed>0.0</speed>
  <fix>3d</fix>
</trkpt>
<trkpt lat="64.1624775" lon="-139.8402243">
  <ele>1109.09</ele>
  <time>2026-09-01T20:02:21Z</time>
  <course>7.0</course>
  <speed>0.022360679774997897</speed>
  <fix>3d</fix>
</trkpt>
<trkpt lat="64.1624777" lon="-139.8402246">
  <ele>1109.09</ele>
  <time>2026-09-01T20:02:21Z</time>
  <course>180.78</course>
  <speed>0.0</speed>
  <fix>3d</fix>
</trkpt>
<trkpt lat="64.1624775" lon="-139.8402243">
  <ele>1109.09</ele>
  <time>2026-09-01T20:02:21Z</time>
  <course>7.0</course>
  <speed>0.022360679774997897</speed>
  <fix>3d</fix>
</trkpt>
<trkpt lat="64.1624777" lon="-139.8402246">
  <ele>1109.09</ele>
  <time>2026-09-01T20:02:21Z</time>
  <course>180.78</course>
  <speed>0.0</speed>
  <fix>3d</fix>
</trkpt>
<trkpt lat="64.1624775" lon="-139.8402243">
  <ele>1109.1</ele>
  <time>2026-09-01T20:02:21Z</time>
  <course>7.0</course>
  <speed>0.022360679774997897</speed>
  <fix>3d</fix>
</trkpt>
<trkpt lat="64.1624777" lon="-139.8402246">
  <ele>1109.09</ele>
  <time>2026-09-01T20:02:21Z</time>
  <course>180.78</course>
  <speed>0.0</speed>
  <fix>3d</fix>
</trkpt>
<trkpt lat="64.1624775" lon="-139.8402243">
  <ele>1109.1</ele>
  <time>2026-09-01T20:02:21Z</time>
  <course>7.0</course>
  <speed>0.022360679774997897</speed>
  <fix>3d</fix>
</trkpt>
<trkpt lat="64.1624777" lon="-139.8402246">
  <ele>1109.09</ele>
  <time>2026-09-01T20:02:21Z</time>
  <course>180.78</course>
  <speed>0.0</speed>
  <fix>3d</fix>
</trkpt>
<trkpt lat="64.1624775" lon="-139.8402243">
  <ele>1109.1</ele>
  <time>2026-09-01T20:02:21Z</time>
  <course>7.0</course>
  <speed>0.022360679774997897</speed>
  <fix>3d</fix>
</trkpt>
<trkpt lat="64.1624777" lon="-139.8402246">
  <ele>1109.09</ele>
  <time>2026-09-01T20:02:21Z</time>
  <course>180.78</course>
  <speed>0.0</speed>
  <fix>3d</fix>
</trkpt>
<trkpt lat="64.1624775" lon="-139.8402243">
  <ele>1109.11</ele>
  <time>2026-09-01T20:02:21Z</time>
  <course>7.0</course>
  <speed>0.022360679774997897</speed>
  <fix>3d</fix>
</trkpt>
<trkpt lat="64.1624777" lon="-139.8402246">
  <ele>1109.09</ele>
  <time>2026-09-01T20:02:21Z</time>
  <course>180.78</course>
  <speed>0.0</speed>
  <fix>3d</fix>
</trkpt>
<trkpt lat="64.1624775" lon="-139.8402243">
  <ele>1109.11</ele>
  <time>2026-09-01T20:02:21Z</time>
  <course>7.0</course>
  <speed>0.022360679774997897</speed>
  <fix>3d</fix>
</trkpt>
<trkpt lat="64.1624777" lon="-139.8402246">
  <ele>1109.09</ele>
  <time>2026-09-01T20:02:21Z</time>
  <course>180.78</course>
  <speed>0.0</speed>
  <fix>3d</fix>
</trkpt>
<trkpt lat="64.1624775" lon="-139.8402243">
  <ele>1109.11</ele>
  <time>2026-09-01T20:02:21Z</time>
  <course>7.0</course>
  <speed>0.022360679774997897</speed>
  <fix>3d</fix>
</trkpt>
<trkpt lat="64.1624777" lon="-139.8402246">
  <ele>1109.09</ele>
  <time>2026-09-01T20:02:21Z</time>
  <course>180.78</course>
  <speed>0.0</speed>
  <fix>3d</fix>
</trkpt>
<trkpt lat="64.1624775" lon="-139.8402243">
  <ele>1109.12</ele>
  <time>2026-09-01T20:02:21Z</time>
  <course>7.0</course>
  <speed>0.022360679774997897</speed>
  <fix>3d</fix>
</trkpt>
<trkpt lat="64.1624777" lon="-139.8402246">
  <ele>1109.09</ele>
  <time>2026-09-01T20:02:21Z</time>
  <course>180.78</course>
  <speed>0.0</speed>
  <fix>3d</fix>
</trkpt>
<trkpt lat="64.1624775" lon="-139.8402243">
  <ele>1109.12</ele>
  <time>2026-09-01T20:02:21Z</time>
  <course>7.0</course>
  <speed>0.022360679774997897</speed>
  <fix>3d</fix>
</trkpt>
<trkpt lat="64.1624777" lon="-139.8402246">
  <ele>1109.09</ele>
  <time>2026-09-01T20:02:21Z</time>
  <course>180.78</course>
  <speed>0.0</speed>
  <fix>3d</fix>
</trkpt>
<trkpt lat="64.1624775" lon="-139.8402243">
  <ele>1109.12</ele>
  <time>2026-09-01T20:02:21Z</time>
  <course>7.0</course>
  <speed>0.022360679774997897</speed>
  <fix>3d</fix>
</trkpt>
<trkpt lat="64.1624777" lon="-139.8402246">
  <ele>1109.09</ele>
  <time>2026-09-01T20:02:21Z</time>
  <course>180.78</course>
  <speed>0.0</speed>
  <fix>3d</fix>
</trkpt>
<trkpt lat="64.1624775" lon="-139.8402243">
  <ele>1109.12</ele>
  <time>2026-09-01T20:02:21Z</time>
  <course>7.01</course>
  <speed>0.022360679774997897</speed>
  <fix>3d</fix>
</trkpt>
<trkpt lat="64.1624777" lon="-139.8402246">
  <ele>1109.09</ele>
  <time>2026-09-01T20:02:21Z</time>
  <course>180.78</course>
  <speed>0.0</speed>
  <fix>3d</fix>
</trkpt>
<trkpt lat="64.1624775" lon="-139.8402243">
  <ele>1109.12</ele>
  <time>2026-09-01T20:02:21Z</time>
  <course>7.01</course>
  <speed>0.022360679774997897</speed>
  <fix>3d</fix>
</trkpt>
<trkpt lat="64.1624777" lon="-139.8402246">
  <ele>1109.09</ele>
  <time>2026-09-01T20:02:21Z</time>
  <course>180.78</course>
  <speed>0.0</speed>
  <fix>3d</fix>
</trkpt>
<trkpt lat="64.1624775" lon="-139.8402243">
  <ele>1109.13</ele>
  <time>2026-09-01T20:02:21Z</time>
  <course>7.01</course>
  <speed>0.022360679774997897</speed>
  <fix>3d</fix>
</trkpt>
<trkpt lat="64.1624777" lon="-139.8402246">
  <ele>1109.09</ele>
  <time>2026-09-01T20:02:21Z</time>
  <course>180.78</course>
  <speed>0.0</speed>
  <fix>3d</fix>
</trkpt>
<trkpt lat="64.1624775" lon="-139.8402243">
  <ele>1109.13</ele>
  <time>2026-09-01T20:02:21Z</time>
  <course>7.01</course>
  <speed>0.022360679774997897</speed>
  <fix>3d</fix>
</trkpt>
<trkpt lat="64.1624777" lon="-139.8402246">
  <ele>1109.09</ele>
  <time>2026-09-01T20:02:21Z</time>
  <course>180.78</course>
  <speed>0.0</speed>
  <fix>3d</fix>
</trkpt>
<trkpt lat="64.1624775" lon="-139.8402243">
  <ele>1109.14</ele>
  <time>2026-09-01T20:02:21Z</time>
  <course>7.01</course>
  <speed>0.022360679774997897</speed>
  <fix>3d</fix>
</trkpt>
<trkpt lat="64.1624777" lon="-139.8402246">
  <ele>1109.09</ele>
  <time>2026-09-01T20:02:21Z</time>
  <course>180.78</course>
  <speed>0.0</speed>
  <fix>3d</fix>
</trkpt>
<trkpt lat="64.1624775" lon="-139.8402243">
  <ele>1109.14</ele>
  <time>2026-09-01T20:02:21Z</time>
  <course>7.01</course>
  <speed>0.022360679774997897</speed>
  <fix>3d</fix>
</trkpt>
<trkpt lat="64.1624777" lon="-139.8402246">
  <ele>1109.09</ele>
  <time>2026-09-01T20:02:21Z</time>
  <course>180.78</course>
  <speed>0.0</speed>
  <fix>3d</fix>
</trkpt>
<trkpt lat="64.1624775" lon="-139.8402243">
  <ele>1109.14</ele>
  <time>2026-09-01T20:02:21Z</time>
  <course>7.01</course>
  <speed>0.022360679774997897</speed>
  <fix>3d</fix>
</trkpt>
<trkpt lat="64.1624777" lon="-139.8402246">
  <ele>1109.09</ele>
  <time>2026-09-01T20:02:21Z</time>
  <course>180.78</course>
  <speed>0.0</speed>
  <fix>3d</fix>
</trkpt>
<trkpt lat="64.1624775" lon="-139.8402243">
  <ele>1109.15</ele>
  <time>2026-09-01T20:02:21Z</time>
  <course>7.01</course>
  <speed>0.022360679774997897</speed>
  <fix>3d</fix>
</trkpt>
<trkpt lat="64.1624777" lon="-139.8402246">
  <ele>1109.09</ele>
  <time>2026-09-01T20:02:21Z</time>
  <course>180.78</course>
  <speed>0.0</speed>
  <fix>3d</fix>
</trkpt>
<trkpt lat="64.1624775" lon="-139.8402243">
  <ele>1109.15</ele>
  <time>2026-09-01T20:02:21Z</time>
  <course>7.01</course>
  <speed>0.022360679774997897</speed>
  <fix>3d</fix>
</trkpt>
<trkpt lat="64.1624777" lon="-139.8402246">
  <ele>1109.09</ele>
  <time>2026-09-01T20:02:21Z</time>
  <course>180.78</course>
  <speed>0.0</speed>
  <fix>3d</fix>
</trkpt>
<trkpt lat="64.1624775" lon="-139.8402243">
  <ele>1109.15</ele>
  <time>2026-09-01T20:02:21Z</time>
  <course>7.01</course>
  <speed>0.022360679774997897</speed>
  <fix>3d</fix>
</trkpt>
<trkpt lat="64.1624777" lon="-139.8402246">
  <ele>1109.09</ele>
  <time>2026-09-01T20:02:21Z</time>
  <course>180.78</course>
  <speed>0.0</speed>
  <fix>3d</fix>
</trkpt>
<trkpt lat="64.1624775" lon="-139.8402243">
  <ele>1109.16</ele>
  <time>2026-09-01T20:02:21Z</time>
  <course>7.01</course>
  <speed>0.022360679774997897</speed>
  <fix>3d</fix>
</trkpt>
<trkpt lat="64.1624777" lon="-139.8402246">
  <ele>1109.09</ele>
  <time>2026-09-01T20:02:21Z</time>
  <course>180.78</course>
  <speed>0.0</speed>
  <fix>3d</fix>
</trkpt>
<trkpt lat="64.1624775" lon="-139.8402243">
  <ele>1109.16</ele>
  <time>2026-09-01T20:02:21Z</time>
  <course>7.02</course>
  <speed>0.022360679774997897</speed>
  <fix>3d</fix>
</trkpt>
<trkpt lat="64.1624777" lon="-139.8402246">
  <ele>1109.09</ele>
  <time>2026-09-01T20:02:21Z</time>
  <course>180.78</course>
  <speed>0.0</speed>
  <fix>3d</fix>
</trkpt>
<trkpt lat="64.1624775" lon="-139.8402243">
  <ele>1109.16</ele>
  <time>2026-09-01T20:02:21Z</time>
  <course>7.02</course>
  <speed>0.022360679774997897</speed>
  <fix>3d</fix>
</trkpt>
<trkpt lat="64.1624777" lon="-139.8402246">
  <ele>1109.09</ele>
  <time>2026-09-01T20:02:21Z</time>
  <course>180.78</course>
  <speed>0.0</speed>
  <fix>3d</fix>
</trkpt>
<trkpt lat="64.1624775" lon="-139.8402243">
  <ele>1109.17</ele>
  <time>2026-09-01T20:02:21Z</time>
  <course>7.02</course>
  <speed>0.022360679774997897</speed>
  <fix>3d</fix>
</trkpt>
<trkpt lat="64.1624777" lon="-139.8402246">
  <ele>1109.09</ele>
  <time>2026-09-01T20:02:21Z</time>
  <course>180.78</course>
  <speed>0.0</speed>
  <fix>3d</fix>
</trkpt>
<trkpt lat="64.1624775" lon="-139.8402243">
  <ele>1109.17</ele>
  <time>2026-09-01T20:02:21Z</time>
  <course>7.02</course>
  <speed>0.022360679774997897</speed>
  <fix>3d</fix>
</trkpt>
<trkpt lat="64.1624777" lon="-139.8402246">
  <ele>1109.09</ele>
  <time>2026-09-01T20:02:21Z</time>
  <course>180.78</course>
  <speed>0.0</speed>
  <fix>3d</fix>
</trkpt>
<trkpt lat="64.1624775" lon="-139.8402243">
  <ele>1109.17</ele>
  <time>2026-09-01T20:02:21Z</time>
  <course>7.02</course>
  <speed>0.022360679774997897</speed>
  <fix>3d</fix>
</trkpt>
<trkpt lat="64.1624777" lon="-139.8402246">
  <ele>1109.09</ele>
  <time>2026-09-01T20:02:21Z</time>
  <course>180.78</course>
  <speed>0.0</speed>
  <fix>3d</fix>
</trkpt>
<trkpt lat="64.1624775" lon="-139.8402243">
  <ele>1109.18</ele>
  <time>2026-09-01T20:02:21Z</time>
  <course>7.02</course>
  <speed>0.022360679774997897</speed>
  <fix>3d</fix>
</trkpt>
<trkpt lat="64.1624777" lon="-139.8402246">
  <ele>1109.09</ele>
  <time>2026-09-01T20:02:21Z</time>
  <course>180.78</course>
  <speed>0.0</speed>
  <fix>3d</fix>
</trkpt>
<trkpt lat="64.1624775" lon="-139.8402243">
  <ele>1109.18</ele>
  <time>2026-09-01T20:02:21Z</time>
  <course>7.02</course>
  <speed>0.022360679774997897</speed>
  <fix>3d</fix>
</trkpt>
<trkpt lat="64.1624777" lon="-139.8402246">
  <ele>1109.09</ele>
  <time>2026-09-01T20:02:21Z</time>
  <course>180.78</course>
  <speed>0.0</speed>
  <fix>3d</fix>
</trkpt>
<trkpt lat="64.1624775" lon="-139.8402243">
  <ele>1109.18</ele>
  <time>2026-09-01T20:02:21Z</time>
  <course>7.02</course>
  <speed>0.022360679774997897</speed>
  <fix>3d</fix>
</trkpt>
<trkpt lat="64.1624777" lon="-139.8402246">
  <ele>1109.09</ele>
  <time>2026-09-01T20:02:21Z</time>
  <course>180.78</course>
  <speed>0.0</speed>
  <fix>3d</fix>
</trkpt>
<trkpt lat="64.1624775" lon="-139.8402243">
  <ele>1109.19</ele>
  <time>2026-09-01T20:02:21Z</time>
  <course>7.02</course>
  <speed>0.022360679774997897</speed>
  <fix>3d</fix>
</trkpt>
<trkpt lat="64.1624777" lon="-139.8402246">
  <ele>1109.09</ele>
  <time>2026-09-01T20:02:21Z</time>
  <course>180.78</course>
  <speed>0.0</speed>
  <fix>3d</fix>
</trkpt>
<trkpt lat="64.1624775" lon="-139.8402243">
  <ele>1109.19</ele>
  <time>2026-09-01T20:02:21Z</time>
  <course>7.02</course>
  <speed>0.022360679774997897</speed>
  <fix>3d</fix>
</trkpt>
<trkpt lat="64.1624777" lon="-139.8402246">
  <ele>1109.09</ele>
  <time>2026-09-01T20:02:21Z</time>
  <course>180.78</course>
  <speed>0.0</speed>
  <fix>3d</fix>
</trkpt>
<trkpt lat="64.1624775" lon="-139.8402243">
  <ele>1109.2</ele>
  <time>2026-09-01T20:02:21Z</time>
  <course>7.02</course>
  <speed>0.022360679774997897</speed>
  <fix>3d</fix>
</trkpt>
<trkpt lat="64.1624777" lon="-139.8402246">
  <ele>1109.09</ele>
  <time>2026-09-01T20:02:21Z</time>
  <course>180.78</course>
  <speed>0.0</speed>
  <fix>3d</fix>
</trkpt>
<trkpt lat="64.1624775" lon="-139.8402243">
  <ele>1109.2</ele>
  <time>2026-09-01T20:02:21Z</time>
  <course>7.02</course>
  <speed>0.022360679774997897</speed>
  <fix>3d</fix>
</trkpt>
<trkpt lat="64.1624777" lon="-139.8402246">
  <ele>1109.09</ele>
  <time>2026-09-01T20:02:21Z</time>
  <course>180.78</course>
  <speed>0.0</speed>
  <fix>3d</fix>
</trkpt>
<trkpt lat="64.1624775" lon="-139.8402243">
  <ele>1109.2</ele>
  <time>2026-09-01T20:02:21Z</time>
  <course>7.03</course>
  <speed>0.022360679774997897</speed>
  <fix>3d</fix>
</trkpt>
<trkpt lat="64.1624777" lon="-139.8402246">
  <ele>1109.09</ele>
  <time>2026-09-01T20:02:21Z</time>
  <course>180.78</course>
  <speed>0.0</speed>
  <fix>3d</fix>
</trkpt>
<trkpt lat="64.1624775" lon="-139.8402243">
  <ele>1109.21</ele>
  <time>2026-09-01T20:02:21Z</time>
  <course>7.03</course>
  <speed>0.022360679774997897</speed>
  <fix>3d</fix>
</trkpt>
<trkpt lat="64.1624777" lon="-139.8402246">
  <ele>1109.09</ele>
  <time>2026-09-01T20:02:21Z</time>
  <course>180.78</course>
  <speed>0.0</speed>
  <fix>3d</fix>
</trkpt>
<trkpt lat="64.1624775" lon="-139.8402243">
  <ele>1109.21</ele>
  <time>2026-09-01T20:02:21Z</time>
  <course>7.03</course>
  <speed>0.022360679774997897</speed>
  <fix>3d</fix>
</trkpt>
<trkpt lat="64.1624777" lon="-139.8402246">
  <ele>1109.09</ele>
  <time>2026-09-01T20:02:21Z</time>
  <course>180.78</course>
  <speed>0.0</speed>
  <fix>3d</fix>
</trkpt>
<trkpt lat="64.1624775" lon="-139.8402243">
  <ele>1109.22</ele>
  <time>2026-09-01T20:02:21Z</time>
  <course>7.03</course>
  <speed>0.022360679774997897</speed>
  <fix>3d</fix>
</trkpt>
<trkpt lat="64.1624777" lon="-139.8402246">
  <ele>1109.09</ele>
  <time>2026-09-01T20:02:21Z</time>
  <course>180.78</course>
  <speed>0.0</speed>
  <fix>3d</fix>
</trkpt>
<trkpt lat="64.1624775" lon="-139.8402243">
  <ele>1109.23</ele>
  <time>2026-09-01T20:02:21Z</time>
  <course>7.03</course>
  <speed>0.022360679774997897</speed>
  <fix>3d</fix>
</trkpt>
<trkpt lat="64.1624777" lon="-139.8402246">
  <ele>1109.09</ele>
  <time>2026-09-01T20:02:21Z</time>
  <course>180.78</course>
  <speed>0.0</speed>
  <fix>3d</fix>
</trkpt>
<trkpt lat="64.1624775" lon="-139.8402243">
  <ele>1109.23</ele>
  <time>2026-09-01T20:02:21Z</time>
  <course>7.03</course>
  <speed>0.022360679774997897</speed>
  <fix>3d</fix>
</trkpt>
<trkpt lat="64.1624777" lon="-139.8402246">
  <ele>1109.09</ele>
  <time>2026-09-01T20:02:21Z</time>
  <course>180.78</course>
  <speed>0.0</speed>
  <fix>3d</fix>
</trkpt>
<trkpt lat="64.1624775" lon="-139.8402243">
  <ele>1109.23</ele>
  <time>2026-09-01T20:02:21Z</time>
  <course>7.03</course>
  <speed>0.022360679774997897</speed>
  <fix>3d</fix>
</trkpt>
<trkpt lat="64.1624777" lon="-139.8402246">
  <ele>1109.09</ele>
  <time>2026-09-01T20:02:21Z</time>
  <course>180.78</course>
  <speed>0.0</speed>
  <fix>3d</fix>
</trkpt>
<trkpt lat="64.1624775" lon="-139.8402243">
  <ele>1109.24</ele>
  <time>2026-09-01T20:02:21Z</time>
  <course>7.03</course>
  <speed>0.022360679774997897</speed>
  <fix>3d</fix>
</trkpt>
<trkpt lat="64.1624777" lon="-139.8402246">
  <ele>1109.09</ele>
  <time>2026-09-01T20:02:21Z</time>
  <course>180.78</course>
  <speed>0.0</speed>
  <fix>3d</fix>
</trkpt>
<trkpt lat="64.1624775" lon="-139.8402243">
  <ele>1109.24</ele>
  <time>2026-09-01T20:02:21Z</time>
  <course>7.03</course>
  <speed>0.022360679774997897</speed>
  <fix>3d</fix>
</trkpt>
<trkpt lat="64.1624777" lon="-139.8402246">
  <ele>1109.09</ele>
  <time>2026-09-01T20:02:21Z</time>
  <course>180.78</course>
  <speed>0.0</speed>
  <fix>3d</fix>
</trkpt>
<trkpt lat="64.1624775" lon="-139.8402243">
  <ele>1109.25</ele>
  <time>2026-09-01T20:02:21Z</time>
  <course>7.03</course>
  <speed>0.022360679774997897</speed>
  <fix>3d</fix>
</trkpt>
<trkpt lat="64.1624777" lon="-139.8402246">
  <ele>1109.09</ele>
  <time>2026-09-01T20:02:21Z</time>
  <course>180.78</course>
  <speed>0.0</speed>
  <fix>3d</fix>
</trkpt>
<trkpt lat="64.1624775" lon="-139.8402243">
  <ele>1109.25</ele>
  <time>2026-09-01T20:02:21Z</time>
  <course>7.03</course>
  <speed>0.022360679774997897</speed>
  <fix>3d</fix>
</trkpt>
<trkpt lat="64.1624777" lon="-139.8402246">
  <ele>1109.09</ele>
  <time>2026-09-01T20:02:21Z</time>
  <course>180.78</course>
  <speed>0.0</speed>
  <fix>3d</fix>
</trkpt>
<trkpt lat="64.1624775" lon="-139.8402243">
  <ele>1109.25</ele>
  <time>2026-09-01T20:02:21Z</time>
  <course>7.04</course>
  <speed>0.022360679774997897</speed>
  <fix>3d</fix>
</trkpt>
<trkpt lat="64.1624777" lon="-139.8402246">
  <ele>1109.09</ele>
  <time>2026-09-01T20:02:21Z</time>
  <course>180.78</course>
  <speed>0.0</speed>
  <fix>3d</fix>
</trkpt>
<trkpt lat="64.1624775" lon="-139.8402243">
  <ele>1109.25</ele>
  <time>2026-09-01T20:02:21Z</time>
  <course>7.04</course>
  <speed>0.022360679774997897</speed>
  <fix>3d</fix>
</trkpt>
<trkpt lat="64.1624777" lon="-139.8402246">
  <ele>1109.09</ele>
  <time>2026-09-01T20:02:21Z</time>
  <course>180.78</course>
  <speed>0.0</speed>
  <fix>3d</fix>
</trkpt>
<trkpt lat="64.1624775" lon="-139.8402243">
  <ele>1109.25</ele>
  <time>2026-09-01T20:02:21Z</time>
  <course>7.04</course>
  <speed>0.022360679774997897</speed>
  <fix>3d</fix>
</trkpt>
<trkpt lat="64.1624777" lon="-139.8402246">
  <ele>1109.09</ele>
  <time>2026-09-01T20:02:21Z</time>
  <course>180.78</course>
  <speed>0.0</speed>
  <fix>3d</fix>
</trkpt>
<trkpt lat="64.1624775" lon="-139.8402243">
  <ele>1109.25</ele>
  <time>2026-09-01T20:02:21Z</time>
  <course>7.04</course>
  <speed>0.022360679774997897</speed>
  <fix>3d</fix>
</trkpt>
<trkpt lat="64.1624777" lon="-139.8402246">
  <ele>1109.09</ele>
  <time>2026-09-01T20:02:21Z</time>
  <course>180.78</course>
  <speed>0.0</speed>
  <fix>3d</fix>
</trkpt>
<trkpt lat="64.1624775" lon="-139.8402243">
  <ele>1109.25</ele>
  <time>2026-09-01T20:02:21Z</time>
  <course>7.04</course>
  <speed>0.022360679774997897</speed>
  <fix>3d</fix>
</trkpt>
<trkpt lat="64.1624777" lon="-139.8402246">
  <ele>1109.09</ele>
  <time>2026-09-01T20:02:21Z</time>
  <course>180.78</course>
  <speed>0.0</speed>
  <fix>3d</fix>
</trkpt>
<trkpt lat="64.1624775" lon="-139.8402243">
  <ele>1109.25</ele>
  <time>2026-09-01T20:02:21Z</time>
  <course>7.04</course>
  <speed>0.022360679774997897</speed>
  <fix>3d</fix>
</trkpt>
<trkpt lat="64.1624777" lon="-139.8402246">
  <ele>1109.09</ele>
  <time>2026-09-01T20:02:21Z</time>
  <course>180.78</course>
  <speed>0.0</speed>
  <fix>3d</fix>
</trkpt>
<trkpt lat="64.1624775" lon="-139.8402243">
  <ele>1109.25</ele>
  <time>2026-09-01T20:02:21Z</time>
  <course>7.04</course>
  <speed>0.022360679774997897</speed>
  <fix>3d</fix>
</trkpt>
<trkpt lat="64.1624777" lon="-139.8402246">
  <ele>1109.09</ele>
  <time>2026-09-01T20:02:21Z</time>
  <course>180.78</course>
  <speed>0.0</speed>
  <fix>3d</fix>
</trkpt>
<trkpt lat="64.1624775" lon="-139.8402243">
  <ele>1109.25</ele>
  <time>2026-09-01T20:02:21Z</time>
  <course>7.04</course>
  <speed>0.022360679774997897</speed>
  <fix>3d</fix>
</trkpt>
<trkpt lat="64.1624777" lon="-139.8402246">
  <ele>1109.09</ele>
  <time>2026-09-01T20:02:21Z</time>
  <course>180.78</course>
  <speed>0.0</speed>
  <fix>3d</fix>
</trkpt>
<trkpt lat="64.1624775" lon="-139.8402243">
  <ele>1109.25</ele>
  <time>2026-09-01T20:02:21Z</time>
  <course>7.04</course>
  <speed>0.022360679774997897</speed>
  <fix>3d</fix>
</trkpt>
<trkpt lat="64.1624777" lon="-139.8402246">
  <ele>1109.09</ele>
  <time>2026-09-01T20:02:21Z</time>
  <course>180.78</course>
  <speed>0.0</speed>
  <fix>3d</fix>
</trkpt>
<trkpt lat="64.1624775" lon="-139.8402243">
  <ele>1109.25</ele>
  <time>2026-09-01T20:02:21Z</time>
  <course>7.04</course>
  <speed>0.022360679774997897</speed>
  <fix>3d</fix>
</trkpt>
<trkpt lat="64.1624777" lon="-139.8402246">
  <ele>1109.09</ele>
  <time>2026-09-01T20:02:21Z</time>
  <course>180.78</course>
  <speed>0.0</speed>
  <fix>3d</fix>
</trkpt>
<trkpt lat="64.1624775" lon="-139.8402243">
  <ele>1109.25</ele>
  <time>2026-09-01T20:02:21Z</time>
  <course>7.04</course>
  <speed>0.022360679774997897</speed>
  <fix>3d</fix>
</trkpt>
<trkpt lat="64.1624777" lon="-139.8402246">
  <ele>1109.09</ele>
  <time>2026-09-01T20:02:21Z</time>
  <course>180.78</course>
  <speed>0.0</speed>
  <fix>3d</fix>
</trkpt>
<trkpt lat="64.1624775" lon="-139.8402243">
  <ele>1109.26</ele>
  <time>2026-09-01T20:02:21Z</time>
  <course>7.04</course>
  <speed>0.022360679774997897</speed>
  <fix>3d</fix>
</trkpt>
<trkpt lat="64.1624777" lon="-139.8402246">
  <ele>1109.09</ele>
  <time>2026-09-01T20:02:21Z</time>
  <course>180.78</course>
  <speed>0.0</speed>
  <fix>3d</fix>
</trkpt>
<trkpt lat="64.1624775" lon="-139.8402243">
  <ele>1109.09</ele>
  <time>2026-09-01T20:02:21Z</time>
  <course>7.04</course>
  <speed>0.022360679774997897</speed>
  <fix>3d</fix>
</trkpt>
<trkpt lat="64.1624777" lon="-139.8402246">
  <ele>1109.09</ele>
  <time>2026-09-01T20:02:21Z</time>
  <course>180.78</course>
  <speed>0.0</speed>
  <fix>3d</fix>
</trkpt>
<trkpt lat="64.1624775" lon="-139.8402243">
  <ele>1109.09</ele>
  <time>2026-09-01T20:02:21Z</time>
  <course>7.04</course>
  <speed>0.022360679774997897</speed>
  <fix>3d</fix>
</trkpt>
<trkpt lat="64.1624777" lon="-139.8402246">
  <ele>1109.09</ele>
  <time>2026-09-01T20:02:21Z</time>
  <course>180.78</course>
  <speed>0.0</speed>
  <fix>3d</fix>
</trkpt>
<trkpt lat="64.1624775" lon="-139.8402243">
  <ele>1109.09</ele>
  <time>2026-09-01T20:02:21Z</time>
  <course>7.05</course>
  <speed>0.022360679774997897</speed>
  <fix>3d</fix>
</trkpt>
<trkpt lat="64.1624777" lon="-139.8402246">
  <ele>1109.09</ele>
  <time>2026-09-01T20:02:21Z</time>
  <course>180.78</course>
  <speed>0.0</speed>
  <fix>3d</fix>
</trkpt>
<trkpt lat="64.1624775" lon="-139.8402243">
  <ele>1109.09</ele>
  <time>2026-09-01T20:02:21Z</time>
  <course>7.05</course>
  <speed>0.022360679774997897</speed>
  <fix>3d</fix>
</trkpt>
<trkpt lat="64.1624777" lon="-139.8402246">
  <ele>1109.09</ele>
  <time>2026-09-01T20:02:21Z</time>
  <course>180.78</course>
  <speed>0.0</speed>
  <fix>3d</fix>
</trkpt>
<trkpt lat="64.1624775" lon="-139.8402243">
  <ele>1109.09</ele>
  <time>2026-09-01T20:02:21Z</time>
  <course>7.05</course>
  <speed>0.022360679774997897</speed>
  <fix>3d</fix>
</trkpt>
<trkpt lat="64.1624777" lon="-139.8402246">
  <ele>1109.09</ele>
  <time>2026-09-01T20:02:21Z</time>
  <course>180.78</course>
  <speed>0.0</speed>
  <fix>3d</fix>
</trkpt>
<trkpt lat="64.1624775" lon="-139.8402243">
  <ele>1109.09</ele>
  <time>2026-09-01T20:02:21Z</time>
  <course>7.05</course>
  <speed>0.022360679774997897</speed>
  <fix>3d</fix>
</trkpt>
<trkpt lat="64.1624777" lon="-139.8402246">
  <ele>1109.09</ele>
  <time>2026-09-01T20:02:21Z</time>
  <course>180.78</course>
  <speed>0.0</speed>
  <fix>3d</fix>
</trkpt>
<trkpt lat="64.1624775" lon="-139.8402243">
  <ele>1109.1</ele>
  <time>2026-09-01T20:02:21Z</time>
  <course>7.05</course>
  <speed>0.022360679774997897</speed>
  <fix>3d</fix>
</trkpt>
<trkpt lat="64.1624777" lon="-139.8402246">
  <ele>1109.09</ele>
  <time>2026-09-01T20:02:21Z</time>
  <course>180.78</course>
  <speed>0.0</speed>
  <fix>3d</fix>
</trkpt>
<trkpt lat="64.1624775" lon="-139.8402243">
  <ele>1109.1</ele>
  <time>2026-09-01T20:02:21Z</time>
  <course>7.05</course>
  <speed>0.022360679774997897</speed>
  <fix>3d</fix>
</trkpt>
<trkpt lat="64.1624777" lon="-139.8402246">
  <ele>1109.09</ele>
  <time>2026-09-01T20:02:21Z</time>
  <course>180.78</course>
  <speed>0.0</speed>
  <fix>3d</fix>
</trkpt>
<trkpt lat="64.1624775" lon="-139.8402243">
  <ele>1109.1</ele>
  <time>2026-09-01T20:02:21Z</time>
  <course>7.05</course>
  <speed>0.022360679774997897</speed>
  <fix>3d</fix>
</trkpt>
<trkpt lat="64.1624777" lon="-139.8402246">
  <ele>1109.09</ele>
  <time>2026-09-01T20:02:21Z</time>
  <course>180.78</course>
  <speed>0.0</speed>
  <fix>3d</fix>
</trkpt>
<trkpt lat="64.1624775" lon="-139.8402243">
  <ele>1109.11</ele>
  <time>2026-09-01T20:02:21Z</time>
  <course>7.05</course>
  <speed>0.022360679774997897</speed>
  <fix>3d</fix>
</trkpt>
<trkpt lat="64.1624777" lon="-139.8402246">
  <ele>1109.09</ele>
  <time>2026-09-01T20:02:21Z</time>
  <course>180.78</course>
  <speed>0.0</speed>
  <fix>3d</fix>
</trkpt>
<trkpt lat="64.1624775" lon="-139.8402243">
  <ele>1109.11</ele>
  <time>2026-09-01T20:02:21Z</time>
  <course>7.05</course>
  <speed>0.022360679774997897</speed>
  <fix>3d</fix>
</trkpt>
<trkpt lat="64.1624777" lon="-139.8402246">
  <ele>1109.09</ele>
  <time>2026-09-01T20:02:21Z</time>
  <course>180.78</course>
  <speed>0.0</speed>
  <fix>3d</fix>
</trkpt>
<trkpt lat="64.1624775" lon="-139.8402243">
  <ele>1109.11</ele>
  <time>2026-09-01T20:02:21Z</time>
  <course>7.05</course>
  <speed>0.022360679774997897</speed>
  <fix>3d</fix>
</trkpt>
<trkpt lat="64.1624777" lon="-139.8402246">
  <ele>1109.09</ele>
  <time>2026-09-01T20:02:21Z</time>
  <course>180.78</course>
  <speed>0.0</speed>
  <fix>3d</fix>
</trkpt>
<trkpt lat="64.1624775" lon="-139.8402243">
  <ele>1109.12</ele>
  <time>2026-09-01T20:02:21Z</time>
  <course>7.05</course>
  <speed>0.022360679774997897</speed>
  <fix>3d</fix>
</trkpt>
<trkpt lat="64.1624777" lon="-139.8402246">
  <ele>1109.09</ele>
  <time>2026-09-01T20:02:21Z</time>
  <course>180.78</course>
  <speed>0.0</speed>
  <fix>3d</fix>
</trkpt>
<trkpt lat="64.1624775" lon="-139.8402243">
  <ele>1109.12</ele>
  <time>2026-09-01T20:02:21Z</time>
  <course>7.06</course>
  <speed>0.022360679774997897</speed>
  <fix>3d</fix>
</trkpt>
<trkpt lat="64.1624777" lon="-139.8402246">
  <ele>1109.09</ele>
  <time>2026-09-01T20:02:21Z</time>
  <course>180.78</course>
  <speed>0.0</speed>
  <fix>3d</fix>
</trkpt>
<trkpt lat="64.1624775" lon="-139.8402243">
  <ele>1109.12</ele>
  <time>2026-09-01T20:02:21Z</time>
  <course>7.06</course>
  <speed>0.022360679774997897</speed>
  <fix>3d</fix>
</trkpt>
<trkpt lat="64.1624777" lon="-139.8402246">
  <ele>1109.09</ele>
  <time>2026-09-01T20:02:21Z</time>
  <course>180.78</course>
  <speed>0.0</speed>
  <fix>3d</fix>
</trkpt>
<trkpt lat="64.1624775" lon="-139.8402243">
  <ele>1109.13</ele>
  <time>2026-09-01T20:02:21Z</time>
  <course>7.06</course>
  <speed>0.022360679774997897</speed>
  <fix>3d</fix>
</trkpt>
<trkpt lat="64.1624777" lon="-139.8402246">
  <ele>1109.09</ele>
  <time>2026-09-01T20:02:21Z</time>
  <course>180.78</course>
  <speed>0.0</speed>
  <fix>3d</fix>
</trkpt>
<trkpt lat="64.1624775" lon="-139.8402243">
  <ele>1109.13</ele>
  <time>2026-09-01T20:02:21Z</time>
  <course>7.06</course>
  <speed>0.022360679774997897</speed>
  <fix>3d</fix>
</trkpt>
<trkpt lat="64.1624777" lon="-139.8402246">
  <ele>1109.09</ele>
  <time>2026-09-01T20:02:21Z</time>
  <course>180.78</course>
  <speed>0.0</speed>
  <fix>3d</fix>
</trkpt>
<trkpt lat="64.1624775" lon="-139.8402243">
  <ele>1109.13</ele>
  <time>2026-09-01T20:02:21Z</time>
  <course>7.06</course>
  <speed>0.022360679774997897</speed>
  <fix>3d</fix>
</trkpt>
<trkpt lat="64.1624777" lon="-139.8402246">
  <ele>1109.09</ele>
  <time>2026-09-01T20:02:21Z</time>
  <course>180.78</course>
  <speed>0.0</speed>
  <fix>3d</fix>
</trkpt>
<trkpt lat="64.1624775" lon="-139.8402243">
  <ele>1109.14</ele>
  <time>2026-09-01T20:02:21Z</time>
  <course>7.06</course>
  <speed>0.022360679774997897</speed>
  <fix>3d</fix>
</trkpt>
<trkpt lat="64.1624777" lon="-139.8402246">
  <ele>1109.09</ele>
  <time>2026-09-01T20:02:21Z</time>
  <course>180.78</course>
  <speed>0.0</speed>
  <fix>3d</fix>
</trkpt>
<trkpt lat="64.1624775" lon="-139.8402243">
  <ele>1109.14</ele>
  <time>2026-09-01T20:02:21Z</time>
  <course>7.06</course>
  <speed>0.022360679774997897</speed>
  <fix>3d</fix>
</trkpt>
<trkpt lat="64.1624777" lon="-139.8402246">
  <ele>1109.09</ele>
  <time>2026-09-01T20:02:21Z</time>
  <course>180.78</course>
  <speed>0.0</speed>
  <fix>3d</fix>
</trkpt>
<trkpt lat="64.1624775" lon="-139.8402243">
  <ele>1109.14</ele>
  <time>2026-09-01T20:02:21Z</time>
  <course>7.06</course>
  <speed>0.022360679774997897</speed>
  <fix>3d</fix>
</trkpt>
<trkpt lat="64.1624777" lon="-139.8402246">
  <ele>1109.09</ele>
  <time>2026-09-01T20:02:21Z</time>
  <course>180.78</course>
  <speed>0.0</speed>
  <fix>3d</fix>
</trkpt>
<trkpt lat="64.1624775" lon="-139.8402243">
  <ele>1109.14</ele>
  <time>2026-09-01T20:02:21Z</time>
  <course>7.06</course>
  <speed>0.022360679774997897</speed>
  <fix>3d</fix>
</trkpt>
<trkpt lat="64.1624777" lon="-139.8402246">
  <ele>1109.09</ele>
  <time>2026-09-01T20:02:21Z</time>
  <course>180.78</course>
  <speed>0.0</speed>
  <fix>3d</fix>
</trkpt>
<trkpt lat="64.1624775" lon="-139.8402243">
  <ele>1109.14</ele>
  <time>2026-09-01T20:02:21Z</time>
  <course>7.06</course>
  <speed>0.022360679774997897</speed>
  <fix>3d</fix>
</trkpt>
<trkpt lat="64.1624777" lon="-139.8402246">
  <ele>1109.09</ele>
  <time>2026-09-01T20:02:21Z</time>
  <course>180.78</course>
  <speed>0.0</speed>
  <fix>3d</fix>
</trkpt>
<trkpt lat="64.1624775" lon="-139.8402243">
  <ele>1109.14</ele>
  <time>2026-09-01T20:02:21Z</time>
  <course>7.06</course>
  <speed>0.022360679774997897</speed>
  <fix>3d</fix>
</trkpt>
<trkpt lat="64.1624777" lon="-139.8402246">
  <ele>1109.09</ele>
  <time>2026-09-01T20:02:21Z</time>
  <course>180.78</course>
  <speed>0.0</speed>
  <fix>3d</fix>
</trkpt>
<trkpt lat="64.1624775" lon="-139.8402243">
  <ele>1109.15</ele>
  <time>2026-09-01T20:02:21Z</time>
  <course>7.06</course>
  <speed>0.022360679774997897</speed>
  <fix>3d</fix>
</trkpt>
<trkpt lat="64.1624777" lon="-139.8402246">
  <ele>1109.09</ele>
  <time>2026-09-01T20:02:21Z</time>
  <course>180.78</course>
  <speed>0.0</speed>
  <fix>3d</fix>
</trkpt>
<trkpt lat="64.1624775" lon="-139.8402243">
  <ele>1109.15</ele>
  <time>2026-09-01T20:02:21Z</time>
  <course>7.06</course>
  <speed>0.022360679774997897</speed>
  <fix>3d</fix>
</trkpt>
<trkpt lat="64.1624777" lon="-139.8402246">
  <ele>1109.09</ele>
  <time>2026-09-01T20:02:21Z</time>
  <course>180.78</course>
  <speed>0.0</speed>
  <fix>3d</fix>
</trkpt>
<trkpt lat="64.1624775" lon="-139.8402243">
  <ele>1109.15</ele>
  <time>2026-09-01T20:02:21Z</time>
  <course>7.07</course>
  <speed>0.022360679774997897</speed>
  <fix>3d</fix>
</trkpt>
<trkpt lat="64.1624777" lon="-139.8402246">
  <ele>1109.09</ele>
  <time>2026-09-01T20:02:21Z</time>
  <course>180.78</course>
  <speed>0.0</speed>
  <fix>3d</fix>
</trkpt>
<trkpt lat="64.1624775" lon="-139.8402243">
  <ele>1109.15</ele>
  <time>2026-09-01T20:02:21Z</time>
  <course>7.07</course>
  <speed>0.022360679774997897</speed>
  <fix>3d</fix>
</trkpt>
<trkpt lat="64.1624777" lon="-139.8402246">
  <ele>1109.09</ele>
  <time>2026-09-01T20:02:21Z</time>
  <course>180.78</course>
  <speed>0.0</speed>
  <fix>3d</fix>
</trkpt>
<trkpt lat="64.1624775" lon="-139.8402243">
  <ele>1109.15</ele>
  <time>2026-09-01T20:02:21Z</time>
  <course>7.07</course>
  <speed>0.022360679774997897</speed>
  <fix>3d</fix>
</trkpt>
<trkpt lat="64.1624777" lon="-139.8402246">
  <ele>1109.09</ele>
  <time>2026-09-01T20:02:21Z</time>
  <course>180.78</course>
  <speed>0.0</speed>
  <fix>3d</fix>
</trkpt>
<trkpt lat="64.1624775" lon="-139.8402243">
  <ele>1109.15</ele>
  <time>2026-09-01T20:02:21Z</time>
  <course>7.07</course>
  <speed>0.022360679774997897</speed>
  <fix>3d</fix>
</trkpt>
<trkpt lat="64.1624777" lon="-139.8402246">
  <ele>1109.09</ele>
  <time>2026-09-01T20:02:21Z</time>
  <course>180.78</course>
  <speed>0.0</speed>
  <fix>3d</fix>
</trkpt>
<trkpt lat="64.1624775" lon="-139.8402243">
  <ele>1109.15</ele>
  <time>2026-09-01T20:02:21Z</time>
  <course>7.07</course>
  <speed>0.022360679774997897</speed>
  <fix>3d</fix>
</trkpt>
<trkpt lat="64.1624777" lon="-139.8402246">
  <ele>1109.09</ele>
  <time>2026-09-01T20:02:21Z</time>
  <course>180.78</course>
  <speed>0.0</speed>
  <fix>3d</fix>
</trkpt>
<trkpt lat="64.1624775" lon="-139.8402243">
  <ele>1109.16</ele>
  <time>2026-09-01T20:02:21Z</time>
  <course>7.07</course>
  <speed>0.022360679774997897</speed>
  <fix>3d</fix>
</trkpt>
<trkpt lat="64.1624777" lon="-139.8402246">
  <ele>1109.09</ele>
  <time>2026-09-01T20:02:21Z</time>
  <course>180.78</course>
  <speed>0.0</speed>
  <fix>3d</fix>
</trkpt>
<trkpt lat="64.1624775" lon="-139.8402243">
  <ele>1109.16</ele>
  <time>2026-09-01T20:02:21Z</time>
  <course>7.07</course>
  <speed>0.022360679774997897</speed>
  <fix>3d</fix>
</trkpt>
<trkpt lat="64.1624777" lon="-139.8402246">
  <ele>1109.09</ele>
  <time>2026-09-01T20:02:21Z</time>
  <course>180.78</course>
  <speed>0.0</speed>
  <fix>3d</fix>
</trkpt>
<trkpt lat="64.1624775" lon="-139.8402243">
  <ele>1109.16</ele>
  <time>2026-09-01T20:02:21Z</time>
  <course>7.07</course>
  <speed>0.022360679774997897</speed>
  <fix>3d</fix>
</trkpt>
<trkpt lat="64.1624777" lon="-139.8402246">
  <ele>1109.09</ele>
  <time>2026-09-01T20:02:21Z</time>
  <course>180.78</course>
  <speed>0.0</speed>
  <fix>3d</fix>
</trkpt>
<trkpt lat="64.1624775" lon="-139.8402243">
  <ele>1109.16</ele>
  <time>2026-09-01T20:02:21Z</time>
  <course>7.07</course>
  <speed>0.022360679774997897</speed>
  <fix>3d</fix>
</trkpt>
<trkpt lat="64.1624777" lon="-139.8402246">
  <ele>1109.09</ele>
  <time>2026-09-01T20:02:21Z</time>
  <course>180.78</course>
  <speed>0.0</speed>
  <fix>3d</fix>
</trkpt>
<trkpt lat="64.1624775" lon="-139.8402243">
  <ele>1109.17</ele>
  <time>2026-09-01T20:02:21Z</time>
  <course>7.07</course>
  <speed>0.022360679774997897</speed>
  <fix>3d</fix>
</trkpt>
<trkpt lat="64.1624777" lon="-139.8402246">
  <ele>1109.09</ele>
  <time>2026-09-01T20:02:21Z</time>
  <course>180.78</course>
  <speed>0.0</speed>
  <fix>3d</fix>
</trkpt>
<trkpt lat="64.1624775" lon="-139.8402243">
  <ele>1109.17</ele>
  <time>2026-09-01T20:02:21Z</time>
  <course>7.07</course>
  <speed>0.022360679774997897</speed>
  <fix>3d</fix>
</trkpt>
<trkpt lat="64.1624777" lon="-139.8402246">
  <ele>1109.09</ele>
  <time>2026-09-01T20:02:21Z</time>
  <course>180.78</course>
  <speed>0.0</speed>
  <fix>3d</fix>
</trkpt>
<trkpt lat="64.1624775" lon="-139.8402243">
  <ele>1109.18</ele>
  <time>2026-09-01T20:02:21Z</time>
  <course>7.07</course>
  <speed>0.022360679774997897</speed>
  <fix>3d</fix>
</trkpt>
<trkpt lat="64.1624777" lon="-139.8402246">
  <ele>1109.09</ele>
  <time>2026-09-01T20:02:21Z</time>
  <course>180.78</course>
  <speed>0.0</speed>
  <fix>3d</fix>
</trkpt>
<trkpt lat="64.1624775" lon="-139.8402243">
  <ele>1109.18</ele>
  <time>2026-09-01T20:02:21Z</time>
  <course>7.07</course>
  <speed>0.022360679774997897</speed>
  <fix>3d</fix>
</trkpt>
<trkpt lat="64.1624777" lon="-139.8402246">
  <ele>1109.09</ele>
  <time>2026-09-01T20:02:21Z</time>
  <course>180.78</course>
  <speed>0.0</speed>
  <fix>3d</fix>
</trkpt>
<trkpt lat="64.1624775" lon="-139.8402243">
  <ele>1109.18</ele>
  <time>2026-09-01T20:02:21Z</time>
  <course>7.08</course>
  <speed>0.022360679774997897</speed>
  <fix>3d</fix>
</trkpt>
<trkpt lat="64.1624777" lon="-139.8402246">
  <ele>1109.09</ele>
  <time>2026-09-01T20:02:21Z</time>
  <course>180.78</course>
  <speed>0.0</speed>
  <fix>3d</fix>
</trkpt>
<trkpt lat="64.1624775" lon="-139.8402243">
  <ele>1109.18</ele>
  <time>2026-09-01T20:02:21Z</time>
  <course>7.08</course>
  <speed>0.022360679774997897</speed>
  <fix>3d</fix>
</trkpt>
<trkpt lat="64.1624777" lon="-139.8402246">
  <ele>1109.09</ele>
  <time>2026-09-01T20:02:21Z</time>
  <course>180.78</course>
  <speed>0.0</speed>
  <fix>3d</fix>
</trkpt>
<trkpt lat="64.1624775" lon="-139.8402243">
  <ele>1109.18</ele>
  <time>2026-09-01T20:02:21Z</time>
  <course>7.08</course>
  <speed>0.022360679774997897</speed>
  <fix>3d</fix>
</trkpt>
<trkpt lat="64.1624777" lon="-139.8402246">
  <ele>1109.09</ele>
  <time>2026-09-01T20:02:21Z</time>
  <course>180.78</course>
  <speed>0.0</speed>
  <fix>3d</fix>
</trkpt>
<trkpt lat="64.1624775" lon="-139.8402243">
  <ele>1109.19</ele>
  <time>2026-09-01T20:02:21Z</time>
  <course>7.08</course>
  <speed>0.022360679774997897</speed>
  <fix>3d</fix>
</trkpt>
<trkpt lat="64.1624777" lon="-139.8402246">
  <ele>1109.09</ele>
  <time>2026-09-01T20:02:21Z</time>
  <course>180.78</course>
  <speed>0.0</speed>
  <fix>3d</fix>
</trkpt>
<trkpt lat="64.1624775" lon="-139.8402243">
  <ele>1109.19</ele>
  <time>2026-09-01T20:02:21Z</time>
  <course>7.08</course>
  <speed>0.022360679774997897</speed>
  <fix>3d</fix>
</trkpt>
<trkpt lat="64.1624777" lon="-139.8402246">
  <ele>1109.09</ele>
  <time>2026-09-01T20:02:21Z</time>
  <course>180.78</course>
  <speed>0.0</speed>
  <fix>3d</fix>
</trkpt>
<trkpt lat="64.1624775" lon="-139.8402243">
  <ele>1109.19</ele>
  <time>2026-09-01T20:02:21Z</time>
  <course>7.08</course>
  <speed>0.022360679774997897</speed>
  <fix>3d</fix>
</trkpt>
<trkpt lat="64.1624777" lon="-139.8402246">
  <ele>1109.09</ele>
  <time>2026-09-01T20:02:21Z</time>
  <course>180.78</course>
  <speed>0.0</speed>
  <fix>3d</fix>
</trkpt>
<trkpt lat="64.1624775" lon="-139.8402243">
  <ele>1109.19</ele>
  <time>2026-09-01T20:02:21Z</time>
  <course>7.08</course>
  <speed>0.022360679774997897</speed>
  <fix>3d</fix>
</trkpt>
<trkpt lat="64.1624777" lon="-139.8402246">
  <ele>1109.09</ele>
  <time>2026-09-01T20:02:21Z</time>
  <course>180.78</course>
  <speed>0.0</speed>
  <fix>3d</fix>
</trkpt>
<trkpt lat="64.1624775" lon="-139.8402243">
  <ele>1109.19</ele>
  <time>2026-09-01T20:02:21Z</time>
  <course>7.08</course>
  <speed>0.022360679774997897</speed>
  <fix>3d</fix>
</trkpt>
<trkpt lat="64.1624777" lon="-139.8402246">
  <ele>1109.09</ele>
  <time>2026-09-01T20:02:21Z</time>
  <course>180.78</course>
  <speed>0.0</speed>
  <fix>3d</fix>
</trkpt>
<trkpt lat="64.1624775" lon="-139.8402243">
  <ele>1109.2</ele>
  <time>2026-09-01T20:02:21Z</time>
  <course>7.08</course>
  <speed>0.022360679774997897</speed>
  <fix>3d</fix>
</trkpt>
<trkpt lat="64.1624777" lon="-139.8402246">
  <ele>1109.09</ele>
  <time>2026-09-01T20:02:21Z</time>
  <course>180.78</course>
  <speed>0.0</speed>
  <fix>3d</fix>
</trkpt>
<trkpt lat="64.1624775" lon="-139.8402243">
  <ele>1109.2</ele>
  <time>2026-09-01T20:02:21Z</time>
  <course>7.08</course>
  <speed>0.022360679774997897</speed>
  <fix>3d</fix>
</trkpt>
<trkpt lat="64.1624777" lon="-139.8402246">
  <ele>1109.09</ele>
  <time>2026-09-01T20:02:21Z</time>
  <course>180.78</course>
  <speed>0.0</speed>
  <fix>3d</fix>
</trkpt>
<trkpt lat="64.1624775" lon="-139.8402243">
  <ele>1109.2</ele>
  <time>2026-09-01T20:02:21Z</time>
  <course>7.08</course>
  <speed>0.022360679774997897</speed>
  <fix>3d</fix>
</trkpt>
<trkpt lat="64.1624777" lon="-139.8402246">
  <ele>1109.09</ele>
  <time>2026-09-01T20:02:21Z</time>
  <course>180.78</course>
  <speed>0.0</speed>
  <fix>3d</fix>
</trkpt>
<trkpt lat="64.1624775" lon="-139.8402243">
  <ele>1109.2</ele>
  <time>2026-09-01T20:02:21Z</time>
  <course>7.08</course>
  <speed>0.022360679774997897</speed>
  <fix>3d</fix>
</trkpt>
<trkpt lat="64.1624777" lon="-139.8402246">
  <ele>1109.09</ele>
  <time>2026-09-01T20:02:21Z</time>
  <course>180.78</course>
  <speed>0.0</speed>
  <fix>3d</fix>
</trkpt>
<trkpt lat="64.1624775" lon="-139.8402243">
  <ele>1109.2</ele>
  <time>2026-09-01T20:02:21Z</time>
  <course>7.08</course>
  <speed>0.022360679774997897</speed>
  <fix>3d</fix>
</trkpt>
<trkpt lat="64.1624777" lon="-139.8402246">
  <ele>1109.09</ele>
  <time>2026-09-01T20:02:21Z</time>
  <course>180.78</course>
  <speed>0.0</speed>
  <fix>3d</fix>
</trkpt>
<trkpt lat="64.1624775" lon="-139.8402243">
  <ele>1109.21</ele>
  <time>2026-09-01T20:02:21Z</time>
  <course>7.09</course>
  <speed>0.022360679774997897</speed>
  <fix>3d</fix>
</trkpt>
<trkpt lat="64.1624777" lon="-139.8402246">
  <ele>1109.09</ele>
  <time>2026-09-01T20:02:21Z</time>
  <course>180.78</course>
  <speed>0.0</speed>
  <fix>3d</fix>
</trkpt>
<trkpt lat="64.1624775" lon="-139.8402243">
  <ele>1109.21</ele>
  <time>2026-09-01T20:02:21Z</time>
  <course>7.09</course>
  <speed>0.022360679774997897</speed>
  <fix>3d</fix>
</trkpt>
<trkpt lat="64.1624777" lon="-139.8402246">
  <ele>1109.09</ele>
  <time>2026-09-01T20:02:21Z</time>
  <course>180.78</course>
  <speed>0.0</speed>
  <fix>3d</fix>
</trkpt>
<trkpt lat="64.1624775" lon="-139.8402243">
  <ele>1109.22</ele>
  <time>2026-09-01T20:02:21Z</time>
  <course>7.09</course>
  <speed>0.022360679774997897</speed>
  <fix>3d</fix>
</trkpt>
<trkpt lat="64.1624777" lon="-139.8402246">
  <ele>1109.09</ele>
  <time>2026-09-01T20:02:21Z</time>
  <course>180.78</course>
  <speed>0.0</speed>
  <fix>3d</fix>
</trkpt>
<trkpt lat="64.1624775" lon="-139.8402243">
  <ele>1109.22</ele>
  <time>2026-09-01T20:02:21Z</time>
  <course>7.09</course>
  <speed>0.022360679774997897</speed>
  <fix>3d</fix>
</trkpt>
<trkpt lat="64.1624777" lon="-139.8402246">
  <ele>1109.09</ele>
  <time>2026-09-01T20:02:21Z</time>
  <course>180.78</course>
  <speed>0.0</speed>
  <fix>3d</fix>
</trkpt>
<trkpt lat="64.1624775" lon="-139.8402243">
  <ele>1109.22</ele>
  <time>2026-09-01T20:02:21Z</time>
  <course>7.09</course>
  <speed>0.022360679774997897</speed>
  <fix>3d</fix>
</trkpt>
<trkpt lat="64.1624777" lon="-139.8402246">
  <ele>1109.09</ele>
  <time>2026-09-01T20:02:21Z</time>
  <course>180.78</course>
  <speed>0.0</speed>
  <fix>3d</fix>
</trkpt>
<trkpt lat="64.1624775" lon="-139.8402243">
  <ele>1109.22</ele>
  <time>2026-09-01T20:02:21Z</time>
  <course>7.09</course>
  <speed>0.022360679774997897</speed>
  <fix>3d</fix>
</trkpt>
<trkpt lat="64.1624777" lon="-139.8402246">
  <ele>1109.09</ele>
  <time>2026-09-01T20:02:21Z</time>
  <course>180.78</course>
  <speed>0.0</speed>
  <fix>3d</fix>
</trkpt>
<trkpt lat="64.1624775" lon="-139.8402243">
  <ele>1109.22</ele>
  <time>2026-09-01T20:02:21Z</time>
  <course>7.09</course>
  <speed>0.022360679774997897</speed>
  <fix>3d</fix>
</trkpt>
<trkpt lat="64.1624777" lon="-139.8402246">
  <ele>1109.09</ele>
  <time>2026-09-01T20:02:21Z</time>
  <course>180.78</course>
  <speed>0.0</speed>
  <fix>3d</fix>
</trkpt>
<trkpt lat="64.1624775" lon="-139.8402243">
  <ele>1109.22</ele>
  <time>2026-09-01T20:02:21Z</time>
  <course>7.09</course>
  <speed>0.022360679774997897</speed>
  <fix>3d</fix>
</trkpt>
<trkpt lat="64.1624777" lon="-139.8402246">
  <ele>1109.09</ele>
  <time>2026-09-01T20:02:21Z</time>
  <course>180.78</course>
  <speed>0.0</speed>
  <fix>3d</fix>
</trkpt>
<trkpt lat="64.1624775" lon="-139.8402243">
  <ele>1109.09</ele>
  <time>2026-09-01T20:02:21Z</time>
  <course>7.09</course>
  <speed>0.022360679774997897</speed>
  <fix>3d</fix>
</trkpt>
<trkpt lat="64.1624777" lon="-139.8402246">
  <ele>1109.09</ele>
  <time>2026-09-01T20:02:21Z</time>
  <course>180.78</course>
  <speed>0.0</speed>
  <fix>3d</fix>
</trkpt>
<trkpt lat="64.1624775" lon="-139.8402243">
  <ele>1109.09</ele>
  <time>2026-09-01T20:02:21Z</time>
  <course>7.09</course>
  <speed>0.022360679774997897</speed>
  <fix>3d</fix>
</trkpt>
<trkpt lat="64.1624777" lon="-139.8402246">
  <ele>1109.09</ele>
  <time>2026-09-01T20:02:21Z</time>
  <course>180.78</course>
  <speed>0.0</speed>
  <fix>3d</fix>
</trkpt>
<trkpt lat="64.1624775" lon="-139.8402243">
  <ele>1109.09</ele>
  <time>2026-09-01T20:02:21Z</time>
  <course>7.09</course>
  <speed>0.022360679774997897</speed>
  <fix>3d</fix>
</trkpt>
<trkpt lat="64.1624777" lon="-139.8402246">
  <ele>1109.09</ele>
  <time>2026-09-01T20:02:21Z</time>
  <course>180.78</course>
  <speed>0.0</speed>
  <fix>3d</fix>
</trkpt>
<trkpt lat="64.1624775" lon="-139.8402243">
  <ele>1109.09</ele>
  <time>2026-09-01T20:02:21Z</time>
  <course>7.09</course>
  <speed>0.022360679774997897</speed>
  <fix>3d</fix>
</trkpt>
<trkpt lat="64.1624777" lon="-139.8402246">
  <ele>1109.09</ele>
  <time>2026-09-01T20:02:21Z</time>
  <course>180.78</course>
  <speed>0.0</speed>
  <fix>3d</fix>
</trkpt>
<trkpt lat="64.1624775" lon="-139.8402243">
  <ele>1109.1</ele>
  <time>2026-09-01T20:02:21Z</time>
  <course>7.09</course>
  <speed>0.022360679774997897</speed>
  <fix>3d</fix>
</trkpt>
<trkpt lat="64.1624777" lon="-139.8402246">
  <ele>1109.09</ele>
  <time>2026-09-01T20:02:21Z</time>
  <course>180.78</course>
  <speed>0.0</speed>
  <fix>3d</fix>
</trkpt>
<trkpt lat="64.1624775" lon="-139.8402243">
  <ele>1109.1</ele>
  <time>2026-09-01T20:02:21Z</time>
  <course>7.09</course>
  <speed>0.022360679774997897</speed>
  <fix>3d</fix>
</trkpt>
<trkpt lat="64.1624777" lon="-139.8402246">
  <ele>1109.09</ele>
  <time>2026-09-01T20:02:21Z</time>
  <course>180.78</course>
  <speed>0.0</speed>
  <fix>3d</fix>
</trkpt>
<trkpt lat="64.1624775" lon="-139.8402243">
  <ele>1109.11</ele>
  <time>2026-09-01T20:02:21Z</time>
  <course>7.09</course>
  <speed>0.022360679774997897</speed>
  <fix>3d</fix>
</trkpt>
<trkpt lat="64.1624777" lon="-139.8402246">
  <ele>1109.09</ele>
  <time>2026-09-01T20:02:21Z</time>
  <course>180.78</course>
  <speed>0.0</speed>
  <fix>3d</fix>
</trkpt>
<trkpt lat="64.1624775" lon="-139.8402243">
  <ele>1109.11</ele>
  <time>2026-09-01T20:02:21Z</time>
  <course>7.1</course>
  <speed>0.022360679774997897</speed>
  <fix>3d</fix>
</trkpt>
<trkpt lat="64.1624777" lon="-139.8402246">
  <ele>1109.09</ele>
  <time>2026-09-01T20:02:21Z</time>
  <course>180.78</course>
  <speed>0.0</speed>
  <fix>3d</fix>
</trkpt>
<trkpt lat="64.1624775" lon="-139.8402243">
  <ele>1109.12</ele>
  <time>2026-09-01T20:02:21Z</time>
  <course>7.1</course>
  <speed>0.022360679774997897</speed>
  <fix>3d</fix>
</trkpt>
<trkpt lat="64.1624777" lon="-139.8402246">
  <ele>1109.09</ele>
  <time>2026-09-01T20:02:21Z</time>
  <course>180.78</course>
  <speed>0.0</speed>
  <fix>3d</fix>
</trkpt>
<trkpt lat="64.1624775" lon="-139.8402243">
  <ele>1109.12</ele>
  <time>2026-09-01T20:02:21Z</time>
  <course>7.1</course>
  <speed>0.022360679774997897</speed>
  <fix>3d</fix>
</trkpt>
<trkpt lat="64.1624777" lon="-139.8402246">
  <ele>1109.09</ele>
  <time>2026-09-01T20:02:21Z</time>
  <course>180.78</course>
  <speed>0.0</speed>
  <fix>3d</fix>
</trkpt>
<trkpt lat="64.1624775" lon="-139.8402243">
  <ele>1109.13</ele>
  <time>2026-09-01T20:02:21Z</time>
  <course>7.1</course>
  <speed>0.022360679774997897</speed>
  <fix>3d</fix>
</trkpt>
<trkpt lat="64.1624777" lon="-139.8402246">
  <ele>1109.09</ele>
  <time>2026-09-01T20:02:21Z</time>
  <course>180.78</course>
  <speed>0.0</speed>
  <fix>3d</fix>
</trkpt>
<trkpt lat="64.1624775" lon="-139.8402243">
  <ele>1109.14</ele>
  <time>2026-09-01T20:02:21Z</time>
  <course>7.1</course>
  <speed>0.022360679774997897</speed>
  <fix>3d</fix>
</trkpt>
<trkpt lat="64.1624777" lon="-139.8402246">
  <ele>1109.09</ele>
  <time>2026-09-01T20:02:21Z</time>
  <course>180.78</course>
  <speed>0.0</speed>
  <fix>3d</fix>
</trkpt>
<trkpt lat="64.1624775" lon="-139.8402243">
  <ele>1109.15</ele>
  <time>2026-09-01T20:02:21Z</time>
  <course>7.1</course>
  <speed>0.022360679774997897</speed>
  <fix>3d</fix>
</trkpt>
<trkpt lat="64.1624777" lon="-139.8402246">
  <ele>1109.09</ele>
  <time>2026-09-01T20:02:21Z</time>
  <course>180.78</course>
  <speed>0.0</speed>
  <fix>3d</fix>
</trkpt>
<trkpt lat="64.1624775" lon="-139.8402243">
  <ele>1109.15</ele>
  <time>2026-09-01T20:02:21Z</time>
  <course>7.1</course>
  <speed>0.022360679774997897</speed>
  <fix>3d</fix>
</trkpt>
<trkpt lat="64.1624777" lon="-139.8402246">
  <ele>1109.09</ele>
  <time>2026-09-01T20:02:21Z</time>
  <course>180.78</course>
  <speed>0.0</speed>
  <fix>3d</fix>
</trkpt>
<trkpt lat="64.1624775" lon="-139.8402243">
  <ele>1109.16</ele>
  <time>2026-09-01T20:02:21Z</time>
  <course>7.1</course>
  <speed>0.022360679774997897</speed>
  <fix>3d</fix>
</trkpt>
<trkpt lat="64.1624777" lon="-139.8402246">
  <ele>1109.09</ele>
  <time>2026-09-01T20:02:21Z</time>
  <course>180.78</course>
  <speed>0.0</speed>
  <fix>3d</fix>
</trkpt>
<trkpt lat="64.1624775" lon="-139.8402243">
  <ele>1109.17</ele>
  <time>2026-09-01T20:02:21Z</time>
  <course>7.1</course>
  <speed>0.022360679774997897</speed>
  <fix>3d</fix>
</trkpt>
<trkpt lat="64.1624777" lon="-139.8402246">
  <ele>1109.09</ele>
  <time>2026-09-01T20:02:21Z</time>
  <course>180.78</course>
  <speed>0.0</speed>
  <fix>3d</fix>
</trkpt>
<trkpt lat="64.1624775" lon="-139.8402243">
  <ele>1109.17</ele>
  <time>2026-09-01T20:02:21Z</time>
  <course>7.1</course>
  <speed>0.022360679774997897</speed>
  <fix>3d</fix>
</trkpt>
<trkpt lat="64.1624777" lon="-139.8402246">
  <ele>1109.09</ele>
  <time>2026-09-01T20:02:21Z</time>
  <course>180.78</course>
  <speed>0.0</speed>
  <fix>3d</fix>
</trkpt>
<trkpt lat="64.1624775" lon="-139.8402243">
  <ele>1109.18</ele>
  <time>2026-09-01T20:02:21Z</time>
  <course>7.1</course>
  <speed>0.022360679774997897</speed>
  <fix>3d</fix>
</trkpt>
<trkpt lat="64.1624777" lon="-139.8402246">
  <ele>1109.09</ele>
  <time>2026-09-01T20:02:21Z</time>
  <course>180.78</course>
  <speed>0.0</speed>
  <fix>3d</fix>
</trkpt>
<trkpt lat="64.1624775" lon="-139.8402243">
  <ele>1109.19</ele>
  <time>2026-09-01T20:02:21Z</time>
  <course>7.1</course>
  <speed>0.022360679774997897</speed>
  <fix>3d</fix>
</trkpt>
<trkpt lat="64.1624777" lon="-139.8402246">
  <ele>1109.09</ele>
  <time>2026-09-01T20:02:21Z</time>
  <course>180.78</course>
  <speed>0.0</speed>
  <fix>3d</fix>
</trkpt>
<trkpt lat="64.1624775" lon="-139.8402243">
  <ele>1109.19</ele>
  <time>2026-09-01T20:02:21Z</time>
  <course>7.1</course>
  <speed>0.022360679774997897</speed>
  <fix>3d</fix>
</trkpt>
<trkpt lat="64.1624777" lon="-139.8402246">
  <ele>1109.09</ele>
  <time>2026-09-01T20:02:21Z</time>
  <course>180.78</course>
  <speed>0.0</speed>
  <fix>3d</fix>
</trkpt>
<trkpt lat="64.1624775" lon="-139.8402243">
  <ele>1109.2</ele>
  <time>2026-09-01T20:02:21Z</time>
  <course>7.1</course>
  <speed>0.022360679774997897</speed>
  <fix>3d</fix>
</trkpt>
<trkpt lat="64.1624777" lon="-139.8402246">
  <ele>1109.09</ele>
  <time>2026-09-01T20:02:21Z</time>
  <course>180.78</course>
  <speed>0.0</speed>
  <fix>3d</fix>
</trkpt>
<trkpt lat="64.1624775" lon="-139.8402243">
  <ele>1109.2</ele>
  <time>2026-09-01T20:02:21Z</time>
  <course>7.11</course>
  <speed>0.022360679774997897</speed>
  <fix>3d</fix>
</trkpt>
<trkpt lat="64.1624777" lon="-139.8402246">
  <ele>1109.09</ele>
  <time>2026-09-01T20:02:21Z</time>
  <course>180.78</course>
  <speed>0.0</speed>
  <fix>3d</fix>
</trkpt>
<trkpt lat="64.1624775" lon="-139.8402243">
  <ele>1109.21</ele>
  <time>2026-09-01T20:02:21Z</time>
  <course>7.11</course>
  <speed>0.022360679774997897</speed>
  <fix>3d</fix>
</trkpt>
<trkpt lat="64.1624777" lon="-139.8402246">
  <ele>1109.09</ele>
  <time>2026-09-01T20:02:21Z</time>
  <course>180.78</course>
  <speed>0.0</speed>
  <fix>3d</fix>
</trkpt>
<trkpt lat="64.1624775" lon="-139.8402243">
  <ele>1109.21</ele>
  <time>2026-09-01T20:02:21Z</time>
  <course>7.11</course>
  <speed>0.022360679774997897</speed>
  <fix>3d</fix>
</trkpt>
<trkpt lat="64.1624777" lon="-139.8402246">
  <ele>1109.09</ele>
  <time>2026-09-01T20:02:21Z</time>
  <course>180.78</course>
  <speed>0.0</speed>
  <fix>3d</fix>
</trkpt>
<trkpt lat="64.1624775" lon="-139.8402243">
  <ele>1109.22</ele>
  <time>2026-09-01T20:02:21Z</time>
  <course>7.11</course>
  <speed>0.022360679774997897</speed>
  <fix>3d</fix>
</trkpt>
<trkpt lat="64.1624777" lon="-139.8402246">
  <ele>1109.09</ele>
  <time>2026-09-01T20:02:21Z</time>
  <course>180.78</course>
  <speed>0.0</speed>
  <fix>3d</fix>
</trkpt>
<trkpt lat="64.1624775" lon="-139.8402243">
  <ele>1109.22</ele>
  <time>2026-09-01T20:02:21Z</time>
  <course>7.11</course>
  <speed>0.022360679774997897</speed>
  <fix>3d</fix>
</trkpt>
<trkpt lat="64.1624777" lon="-139.8402246">
  <ele>1109.09</ele>
  <time>2026-09-01T20:02:21Z</time>
  <course>180.78</course>
  <speed>0.0</speed>
  <fix>3d</fix>
</trkpt>
<trkpt lat="64.1624775" lon="-139.8402243">
  <ele>1109.23</ele>
  <time>2026-09-01T20:02:21Z</time>
  <course>7.11</course>
  <speed>0.022360679774997897</speed>
  <fix>3d</fix>
</trkpt>
<trkpt lat="64.1624777" lon="-139.8402246">
  <ele>1109.09</ele>
  <time>2026-09-01T20:02:21Z</time>
  <course>180.78</course>
  <speed>0.0</speed>
  <fix>3d</fix>
</trkpt>
<trkpt lat="64.1624775" lon="-139.8402243">
  <ele>1109.24</ele>
  <time>2026-09-01T20:02:21Z</time>
  <course>7.11</course>
  <speed>0.022360679774997897</speed>
  <fix>3d</fix>
</trkpt>
<trkpt lat="64.1624777" lon="-139.8402246">
  <ele>1109.09</ele>
  <time>2026-09-01T20:02:21Z</time>
  <course>180.78</course>
  <speed>0.0</speed>
  <fix>3d</fix>
</trkpt>
<trkpt lat="64.1624775" lon="-139.8402243">
  <ele>1109.24</ele>
  <time>2026-09-01T20:02:21Z</time>
  <course>7.11</course>
  <speed>0.022360679774997897</speed>
  <fix>3d</fix>
</trkpt>
<trkpt lat="64.1624777" lon="-139.8402246">
  <ele>1109.09</ele>
  <time>2026-09-01T20:02:21Z</time>
  <course>180.78</course>
  <speed>0.0</speed>
  <fix>3d</fix>
</trkpt>
<trkpt lat="64.1624775" lon="-139.8402243">
  <ele>1109.25</ele>
  <time>2026-09-01T20:02:21Z</time>
  <course>7.11</course>
  <speed>0.022360679774997897</speed>
  <fix>3d</fix>
</trkpt>
<trkpt lat="64.1624777" lon="-139.8402246">
  <ele>1109.09</ele>
  <time>2026-09-01T20:02:21Z</time>
  <course>180.78</course>
  <speed>0.0</speed>
  <fix>3d</fix>
</trkpt>
<trkpt lat="64.1624775" lon="-139.8402243">
  <ele>1109.25</ele>
  <time>2026-09-01T20:02:21Z</time>
  <course>7.11</course>
  <speed>0.022360679774997897</speed>
  <fix>3d</fix>
</trkpt>
<trkpt lat="64.1624777" lon="-139.8402246">
  <ele>1109.09</ele>
  <time>2026-09-01T20:02:21Z</time>
  <course>180.78</course>
  <speed>0.0</speed>
  <fix>3d</fix>
</trkpt>
<trkpt lat="64.1624775" lon="-139.8402243">
  <ele>1109.25</ele>
  <time>2026-09-01T20:02:21Z</time>
  <course>7.11</course>
  <speed>0.022360679774997897</speed>
  <fix>3d</fix>
</trkpt>
<trkpt lat="64.1624777" lon="-139.8402246">
  <ele>1109.09</ele>
  <time>2026-09-01T20:02:21Z</time>
  <course>180.78</course>
  <speed>0.0</speed>
  <fix>3d</fix>
</trkpt>
<trkpt lat="64.1624775" lon="-139.8402243">
  <ele>1109.25</ele>
  <time>2026-09-01T20:02:21Z</time>
  <course>7.11</course>
  <speed>0.022360679774997897</speed>
  <fix>3d</fix>
</trkpt>
<trkpt lat="64.1624777" lon="-139.8402246">
  <ele>1109.09</ele>
  <time>2026-09-01T20:02:21Z</time>
  <course>180.78</course>
  <speed>0.0</speed>
  <fix>3d</fix>
</trkpt>
<trkpt lat="64.1624775" lon="-139.8402243">
  <ele>1109.26</ele>
  <time>2026-09-01T20:02:22Z</time>
  <course>7.11</course>
  <speed>0.022360679774997897</speed>
  <fix>3d</fix>
</trkpt>
<trkpt lat="64.1624777" lon="-139.8402246">
  <ele>1109.09</ele>
  <time>2026-09-01T20:02:22Z</time>
  <course>180.78</course>
  <speed>0.0</speed>
  <fix>3d</fix>
</trkpt>
<trkpt lat="64.1624775" lon="-139.8402243">
  <ele>1109.26</ele>
  <time>2026-09-01T20:02:22Z</time>
  <course>7.11</course>
  <speed>0.022360679774997897</speed>
  <fix>3d</fix>
</trkpt>
<trkpt lat="64.1624777" lon="-139.8402246">
  <ele>1109.09</ele>
  <time>2026-09-01T20:02:22Z</time>
  <course>180.78</course>
  <speed>0.0</speed>
  <fix>3d</fix>
</trkpt>
<trkpt lat="64.1624775" lon="-139.8402243">
  <ele>1109.26</ele>
  <time>2026-09-01T20:02:22Z</time>
  <course>7.12</course>
  <speed>0.022360679774997897</speed>
  <fix>3d</fix>
</trkpt>
<trkpt lat="64.1624777" lon="-139.8402246">
  <ele>1109.09</ele>
  <time>2026-09-01T20:02:22Z</time>
  <course>180.78</course>
  <speed>0.0</speed>
  <fix>3d</fix>
</trkpt>
<trkpt lat="64.1624775" lon="-139.8402243">
  <ele>1109.26</ele>
  <time>2026-09-01T20:02:22Z</time>
  <course>7.12</course>
  <speed>0.022360679774997897</speed>
  <fix>3d</fix>
</trkpt>
<trkpt lat="64.1624777" lon="-139.8402246">
  <ele>1109.09</ele>
  <time>2026-09-01T20:02:22Z</time>
  <course>180.78</course>
  <speed>0.0</speed>
  <fix>3d</fix>
</trkpt>
<trkpt lat="64.1624775" lon="-139.8402243">
  <ele>1109.26</ele>
  <time>2026-09-01T20:02:22Z</time>
  <course>7.12</course>
  <speed>0.022360679774997897</speed>
  <fix>3d</fix>
</trkpt>
<trkpt lat="64.1624777" lon="-139.8402246">
  <ele>1109.09</ele>
  <time>2026-09-01T20:02:22Z</time>
  <course>180.78</course>
  <speed>0.0</speed>
  <fix>3d</fix>
</trkpt>
<trkpt lat="64.1624775" lon="-139.8402243">
  <ele>1109.26</ele>
  <time>2026-09-01T20:02:22Z</time>
  <course>7.12</course>
  <speed>0.022360679774997897</speed>
  <fix>3d</fix>
</trkpt>
<trkpt lat="64.1624777" lon="-139.8402246">
  <ele>1109.09</ele>
  <time>2026-09-01T20:02:22Z</time>
  <course>180.78</course>
  <speed>0.0</speed>
  <fix>3d</fix>
</trkpt>
<trkpt lat="64.1624775" lon="-139.8402243">
  <ele>1109.26</ele>
  <time>2026-09-01T20:02:22Z</time>
  <course>7.12</course>
  <speed>0.022360679774997897</speed>
  <fix>3d</fix>
</trkpt>
<trkpt lat="64.1624777" lon="-139.8402246">
  <ele>1109.09</ele>
  <time>2026-09-01T20:02:22Z</time>
  <course>180.78</course>
  <speed>0.0</speed>
  <fix>3d</fix>
</trkpt>
<trkpt lat="64.1624775" lon="-139.8402243">
  <ele>1109.26</ele>
  <time>2026-09-01T20:02:22Z</time>
  <course>7.12</course>
  <speed>0.022360679774997897</speed>
  <fix>3d</fix>
</trkpt>
<trkpt lat="64.1624777" lon="-139.8402246">
  <ele>1109.09</ele>
  <time>2026-09-01T20:02:22Z</time>
  <course>180.78</course>
  <speed>0.0</speed>
  <fix>3d</fix>
</trkpt>
<trkpt lat="64.1624775" lon="-139.8402243">
  <ele>1109.27</ele>
  <time>2026-09-01T20:02:22Z</time>
  <course>7.12</course>
  <speed>0.022360679774997897</speed>
  <fix>3d</fix>
</trkpt>
<trkpt lat="64.1624777" lon="-139.8402246">
  <ele>1109.09</ele>
  <time>2026-09-01T20:02:22Z</time>
  <course>180.78</course>
  <speed>0.0</speed>
  <fix>3d</fix>
</trkpt>
<trkpt lat="64.1624775" lon="-139.8402243">
  <ele>1109.27</ele>
  <time>2026-09-01T20:02:22Z</time>
  <course>7.12</course>
  <speed>0.022360679774997897</speed>
  <fix>3d</fix>
</trkpt>
<trkpt lat="64.1624777" lon="-139.8402246">
  <ele>1109.09</ele>
  <time>2026-09-01T20:02:22Z</time>
  <course>180.78</course>
  <speed>0.0</speed>
  <fix>3d</fix>
</trkpt>
<trkpt lat="64.1624775" lon="-139.8402243">
  <ele>1109.27</ele>
  <time>2026-09-01T20:02:22Z</time>
  <course>7.12</course>
  <speed>0.022360679774997897</speed>
  <fix>3d</fix>
</trkpt>
<trkpt lat="64.1624777" lon="-139.8402246">
  <ele>1109.09</ele>
  <time>2026-09-01T20:02:22Z</time>
  <course>180.78</course>
  <speed>0.0</speed>
  <fix>3d</fix>
</trkpt>
<trkpt lat="64.1624775" lon="-139.8402243">
  <ele>1109.28</ele>
  <time>2026-09-01T20:02:22Z</time>
  <course>7.12</course>
  <speed>0.022360679774997897</speed>
  <fix>3d</fix>
</trkpt>
<trkpt lat="64.1624777" lon="-139.8402246">
  <ele>1109.09</ele>
  <time>2026-09-01T20:02:22Z</time>
  <course>180.78</course>
  <speed>0.0</speed>
  <fix>3d</fix>
</trkpt>
<trkpt lat="64.1624775" lon="-139.8402243">
  <ele>1109.28</ele>
  <time>2026-09-01T20:02:22Z</time>
  <course>7.12</course>
  <speed>0.022360679774997897</speed>
  <fix>3d</fix>
</trkpt>
<trkpt lat="64.1624777" lon="-139.8402246">
  <ele>1109.09</ele>
  <time>2026-09-01T20:02:22Z</time>
  <course>180.78</course>
  <speed>0.0</speed>
  <fix>3d</fix>
</trkpt>
<trkpt lat="64.1624775" lon="-139.8402243">
  <ele>1109.28</ele>
  <time>2026-09-01T20:02:22Z</time>
  <course>7.12</course>
  <speed>0.022360679774997897</speed>
  <fix>3d</fix>
</trkpt>
<trkpt lat="64.1624777" lon="-139.8402246">
  <ele>1109.09</ele>
  <time>2026-09-01T20:02:22Z</time>
  <course>180.78</course>
  <speed>0.0</speed>
  <fix>3d</fix>
</trkpt>
<trkpt lat="64.1624775" lon="-139.8402243">
  <ele>1109.29</ele>
  <time>2026-09-01T20:02:22Z</time>
  <course>7.12</course>
  <speed>0.022360679774997897</speed>
  <fix>3d</fix>
</trkpt>
<trkpt lat="64.1624777" lon="-139.8402246">
  <ele>1109.09</ele>
  <time>2026-09-01T20:02:22Z</time>
  <course>180.78</course>
  <speed>0.0</speed>
  <fix>3d</fix>
</trkpt>
<trkpt lat="64.1624775" lon="-139.8402243">
  <ele>1109.29</ele>
  <time>2026-09-01T20:02:22Z</time>
  <course>7.12</course>
  <speed>0.022360679774997897</speed>
  <fix>3d</fix>
</trkpt>
<trkpt lat="64.1624777" lon="-139.8402246">
  <ele>1109.09</ele>
  <time>2026-09-01T20:02:22Z</time>
  <course>180.78</course>
  <speed>0.0</speed>
  <fix>3d</fix>
</trkpt>
<trkpt lat="64.1624775" lon="-139.8402243">
  <ele>1109.29</ele>
  <time>2026-09-01T20:02:22Z</time>
  <course>7.13</course>
  <speed>0.022360679774997897</speed>
  <fix>3d</fix>
</trkpt>
<trkpt lat="64.1624777" lon="-139.8402246">
  <ele>1109.09</ele>
  <time>2026-09-01T20:02:22Z</time>
  <course>180.78</course>
  <speed>0.0</speed>
  <fix>3d</fix>
</trkpt>
<trkpt lat="64.1624775" lon="-139.8402243">
  <ele>1109.29</ele>
  <time>2026-09-01T20:02:22Z</time>
  <course>7.13</course>
  <speed>0.022360679774997897</speed>
  <fix>3d</fix>
</trkpt>
<trkpt lat="64.1624777" lon="-139.8402246">
  <ele>1109.09</ele>
  <time>2026-09-01T20:02:22Z</time>
  <course>180.78</course>
  <speed>0.0</speed>
  <fix>3d</fix>
</trkpt>
<trkpt lat="64.1624775" lon="-139.8402243">
  <ele>1109.29</ele>
  <time>2026-09-01T20:02:22Z</time>
  <course>7.13</course>
  <speed>0.022360679774997897</speed>
  <fix>3d</fix>
</trkpt>
<trkpt lat="64.1624777" lon="-139.8402246">
  <ele>1109.09</ele>
  <time>2026-09-01T20:02:22Z</time>
  <course>180.78</course>
  <speed>0.0</speed>
  <fix>3d</fix>
</trkpt>
<trkpt lat="64.1624775" lon="-139.8402243">
  <ele>1109.29</ele>
  <time>2026-09-01T20:02:22Z</time>
  <course>7.13</course>
  <speed>0.022360679774997897</speed>
  <fix>3d</fix>
</trkpt>
<trkpt lat="64.1624777" lon="-139.8402246">
  <ele>1109.09</ele>
  <time>2026-09-01T20:02:22Z</time>
  <course>180.78</course>
  <speed>0.0</speed>
  <fix>3d</fix>
</trkpt>
<trkpt lat="64.1624775" lon="-139.8402243">
  <ele>1109.3</ele>
  <time>2026-09-01T20:02:22Z</time>
  <course>7.13</course>
  <speed>0.022360679774997897</speed>
  <fix>3d</fix>
</trkpt>
<trkpt lat="64.1624777" lon="-139.8402246">
  <ele>1109.09</ele>
  <time>2026-09-01T20:02:22Z</time>
  <course>180.78</course>
  <speed>0.0</speed>
  <fix>3d</fix>
</trkpt>
<trkpt lat="64.1624775" lon="-139.8402243">
  <ele>1109.3</ele>
  <time>2026-09-01T20:02:22Z</time>
  <course>7.13</course>
  <speed>0.022360679774997897</speed>
  <fix>3d</fix>
</trkpt>
<trkpt lat="64.1624777" lon="-139.8402246">
  <ele>1109.09</ele>
  <time>2026-09-01T20:02:22Z</time>
  <course>180.78</course>
  <speed>0.0</speed>
  <fix>3d</fix>
</trkpt>
<trkpt lat="64.1624775" lon="-139.8402243">
  <ele>1109.3</ele>
  <time>2026-09-01T20:02:22Z</time>
  <course>7.13</course>
  <speed>0.022360679774997897</speed>
  <fix>3d</fix>
</trkpt>
<trkpt lat="64.1624777" lon="-139.8402246">
  <ele>1109.09</ele>
  <time>2026-09-01T20:02:22Z</time>
  <course>180.78</course>
  <speed>0.0</speed>
  <fix>3d</fix>
</trkpt>
<trkpt lat="64.1624775" lon="-139.8402243">
  <ele>1109.3</ele>
  <time>2026-09-01T20:02:22Z</time>
  <course>7.13</course>
  <speed>0.022360679774997897</speed>
  <fix>3d</fix>
</trkpt>
<trkpt lat="64.1624777" lon="-139.8402246">
  <ele>1109.09</ele>
  <time>2026-09-01T20:02:22Z</time>
  <course>180.78</course>
  <speed>0.0</speed>
  <fix>3d</fix>
</trkpt>
<trkpt lat="64.1624775" lon="-139.8402243">
  <ele>1109.3</ele>
  <time>2026-09-01T20:02:22Z</time>
  <course>7.13</course>
  <speed>0.022360679774997897</speed>
  <fix>3d</fix>
</trkpt>
<trkpt lat="64.1624777" lon="-139.8402246">
  <ele>1109.09</ele>
  <time>2026-09-01T20:02:22Z</time>
  <course>180.78</course>
  <speed>0.0</speed>
  <fix>3d</fix>
</trkpt>
<trkpt lat="64.1624775" lon="-139.8402243">
  <ele>1109.3</ele>
  <time>2026-09-01T20:02:22Z</time>
  <course>7.13</course>
  <speed>0.022360679774997897</speed>
  <fix>3d</fix>
</trkpt>
<trkpt lat="64.1624777" lon="-139.8402246">
  <ele>1109.09</ele>
  <time>2026-09-01T20:02:22Z</time>
  <course>180.78</course>
  <speed>0.0</speed>
  <fix>3d</fix>
</trkpt>
<trkpt lat="64.1624775" lon="-139.8402243">
  <ele>1109.3</ele>
  <time>2026-09-01T20:02:22Z</time>
  <course>7.13</course>
  <speed>0.022360679774997897</speed>
  <fix>3d</fix>
</trkpt>
<trkpt lat="64.1624777" lon="-139.8402246">
  <ele>1109.09</ele>
  <time>2026-09-01T20:02:22Z</time>
  <course>180.78</course>
  <speed>0.0</speed>
  <fix>3d</fix>
</trkpt>
<trkpt lat="64.1624775" lon="-139.8402243">
  <ele>1109.09</ele>
  <time>2026-09-01T20:02:22Z</time>
  <course>7.13</course>
  <speed>0.022360679774997897</speed>
  <fix>3d</fix>
</trkpt>
<trkpt lat="64.1624777" lon="-139.8402246">
  <ele>1109.09</ele>
  <time>2026-09-01T20:02:22Z</time>
  <course>180.78</course>
  <speed>0.0</speed>
  <fix>3d</fix>
</trkpt>
<trkpt lat="64.1624775" lon="-139.8402243">
  <ele>1109.09</ele>
  <time>2026-09-01T20:02:22Z</time>
  <course>7.13</course>
  <speed>0.022360679774997897</speed>
  <fix>3d</fix>
</trkpt>
<trkpt lat="64.1624777" lon="-139.8402246">
  <ele>1109.09</ele>
  <time>2026-09-01T20:02:22Z</time>
  <course>180.78</course>
  <speed>0.0</speed>
  <fix>3d</fix>
</trkpt>
<trkpt lat="64.1624775" lon="-139.8402243">
  <ele>1109.09</ele>
  <time>2026-09-01T20:02:22Z</time>
  <course>7.13</course>
  <speed>0.022360679774997897</speed>
  <fix>3d</fix>
</trkpt>
<trkpt lat="64.1624777" lon="-139.8402246">
  <ele>1109.09</ele>
  <time>2026-09-01T20:02:22Z</time>
  <course>180.78</course>
  <speed>0.0</speed>
  <fix>3d</fix>
</trkpt>
<trkpt lat="64.1624775" lon="-139.8402243">
  <ele>1109.09</ele>
  <time>2026-09-01T20:02:22Z</time>
  <course>7.13</course>
  <speed>0.022360679774997897</speed>
  <fix>3d</fix>
</trkpt>
<trkpt lat="64.1624777" lon="-139.8402246">
  <ele>1109.09</ele>
  <time>2026-09-01T20:02:22Z</time>
  <course>180.78</course>
  <speed>0.0</speed>
  <fix>3d</fix>
</trkpt>
<trkpt lat="64.1624775" lon="-139.8402243">
  <ele>1109.09</ele>
  <time>2026-09-01T20:02:22Z</time>
  <course>7.13</course>
  <speed>0.022360679774997897</speed>
  <fix>3d</fix>
</trkpt>
<trkpt lat="64.1624777" lon="-139.8402246">
  <ele>1109.09</ele>
  <time>2026-09-01T20:02:22Z</time>
  <course>180.78</course>
  <speed>0.0</speed>
  <fix>3d</fix>
</trkpt>
<trkpt lat="64.1624775" lon="-139.8402243">
  <ele>1109.1</ele>
  <time>2026-09-01T20:02:22Z</time>
  <course>7.14</course>
  <speed>0.022360679774997897</speed>
  <fix>3d</fix>
</trkpt>
<trkpt lat="64.1624777" lon="-139.8402246">
  <ele>1109.09</ele>
  <time>2026-09-01T20:02:22Z</time>
  <course>180.78</course>
  <speed>0.0</speed>
  <fix>3d</fix>
</trkpt>
<trkpt lat="64.1624775" lon="-139.8402243">
  <ele>1109.1</ele>
  <time>2026-09-01T20:02:22Z</time>
  <course>7.14</course>
  <speed>0.022360679774997897</speed>
  <fix>3d</fix>
</trkpt>
<trkpt lat="64.1624777" lon="-139.8402246">
  <ele>1109.09</ele>
  <time>2026-09-01T20:02:22Z</time>
  <course>180.78</course>
  <speed>0.0</speed>
  <fix>3d</fix>
</trkpt>
<trkpt lat="-27.274439" lon="151.290064">
  <ele>343.1</ele>
  <time>2026-09-01T20:02:23Z</time>
  <course>8.0</course>
  <speed>0.0</speed>
  <fix>3d</fix>
</trkpt>
<trkpt lat="-27.274439" lon="151.290064">
  <ele>343.1</ele>
  <time>2026-09-01T20:02:23Z</time>
  <course>8.0</course>
  <speed>0.0</speed>
  <fix>3d</fix>
</trkpt>
<trkpt lat="-27.274439" lon="151.290064">
  <ele>343.1</ele>
  <time>2026-09-01T20:02:23Z</time>
  <course>8.0</course>
  <speed>0.0</speed>
  <fix>3d</fix>
</trkpt>
<trkpt lat="-27.274439" lon="151.290064">
  <ele>343.1</ele>
  <time>2026-09-01T20:02:23Z</time>
  <course>8.0</course>
  <speed>0.0</speed>
  <fix>3d</fix>
</trkpt>
<trkpt lat="-27.274439" lon="151.290064">
  <ele>343.1</ele>
  <time>2026-09-01T20:02:23Z</time>
  <course>8.0</course>
  <speed>0.0</speed>
  <fix>3d</fix>
</trkpt>
<trkpt lat="-27.274439" lon="151.290064">
  <ele>343.1</ele>
  <time>2026-09-01T20:02:23Z</time>
  <course>8.0</course>
  <speed>0.0</speed>
  <fix>3d</fix>
</trkpt>
<trkpt lat="-27.274439" lon="151.290064">
  <ele>343.1</ele>
  <time>2026-09-01T20:02:23Z</time>
  <course>8.0</course>
  <speed>0.0</speed>
  <fix>3d</fix>
</trkpt>
<trkpt lat="-27.274439" lon="151.290064">
  <ele>343.1</ele>
  <time>2026-09-01T20:02:23Z</time>
  <course>8.0</course>
  <speed>0.0</speed>
  <fix>3d</fix>
</trkpt>
<trkpt lat="-27.274439" lon="151.290064">
  <ele>343.1</ele>
  <time>2026-09-01T20:02:23Z</time>
  <course>8.0</course>
  <speed>0.0</speed>
  <fix>3d</fix>
</trkpt>
<trkpt lat="-27.274439" lon="151.290064">
  <ele>343.1</ele>
  <time>2026-09-01T20:02:23Z</time>
  <course>8.0</course>
  <speed>0.0</speed>
  <fix>3d</fix>
</trkpt>
<trkpt lat="-27.274439" lon="151.290064">
  <ele>343.1</ele>
  <time>2026-09-01T20:02:23Z</time>
  <course>8.0</course>
  <speed>0.0</speed>
  <fix>3d</fix>
</trkpt>
<trkpt lat="-27.274439" lon="151.290064">
  <ele>343.1</ele>
  <time>2026-09-01T20:02:23Z</time>
  <course>8.0</course>
  <speed>0.0</speed>
  <fix>3d</fix>
</trkpt>
<trkpt lat="-27.274439" lon="151.290064">
  <ele>343.1</ele>
  <time>2026-09-01T20:02:23Z</time>
  <course>8.0</course>
  <speed>0.0</speed>
  <fix>3d</fix>
</trkpt>
<trkpt lat="-27.274439" lon="151.290064">
  <ele>343.1</ele>
  <time>2026-09-01T20:02:23Z</time>
  <course>8.0</course>
  <speed>0.0</speed>
  <fix>3d</fix>
</trkpt>
<trkpt lat="-27.274439" lon="151.290064">
  <ele>343.1</ele>
  <time>2026-09-01T20:02:23Z</time>
  <course>8.0</course>
  <speed>0.0</speed>
  <fix>3d</fix>
</trkpt>
<trkpt lat="-27.274439" lon="151.290064">
  <ele>343.1</ele>
  <time>2026-09-01T20:02:23Z</time>
  <course>8.0</course>
  <speed>0.0</speed>
  <fix>3d</fix>
</trkpt>
<trkpt lat="-27.274439" lon="151.290064">
  <ele>343.1</ele>
  <time>2026-09-01T20:02:23Z</time>
  <course>8.0</course>
  <speed>0.0</speed>
  <fix>3d</fix>
</trkpt>
<trkpt lat="-27.274439" lon="151.290064">
  <ele>343.1</ele>
  <time>2026-09-01T20:02:23Z</time>
  <course>8.0</course>
  <speed>0.0</speed>
  <fix>3d</fix>
</trkpt>
<trkpt lat="-27.274439" lon="151.290064">
  <ele>343.1</ele>
  <time>2026-09-01T20:02:23Z</time>
  <course>8.0</course>
  <speed>0.0</speed>
  <fix>3d</fix>
</trkpt>
<trkpt lat="-27.274439" lon="151.290064">
  <ele>343.1</ele>
  <time>2026-09-01T20:02:23Z</time>
  <course>8.0</course>
  <speed>0.0</speed>
  <fix>3d</fix>
</trkpt>
<trkpt lat="-27.274439" lon="151.290064">
  <ele>343.1</ele>
  <time>2026-09-01T20:02:23Z</time>
  <course>8.0</course>
  <speed>0.0</speed>
  <fix>3d</fix>
</trkpt>
<trkpt lat="-27.274439" lon="151.290064">
  <ele>343.1</ele>
  <time>2026-09-01T20:02:23Z</time>
  <course>8.0</course>
  <speed>0.0</speed>
  <fix>3d</fix>
</trkpt>
<trkpt lat="-27.274439" lon="151.290064">
  <ele>343.1</ele>
  <time>2026-09-01T20:02:23Z</time>
  <course>8.0</course>
  <speed>0.0</speed>
  <fix>3d</fix>
</trkpt>
<trkpt lat="-27.274439" lon="151.290064">
  <ele>343.1</ele>
  <time>2026-09-01T20:02:23Z</time>
  <course>8.0</course>
  <speed>0.0</speed>
  <fix>3d</fix>
</trkpt>
<trkpt lat="-27.274439" lon="151.290064">
  <ele>343.1</ele>
  <time>2026-09-01T20:02:23Z</time>
  <course>8.0</course>
  <speed>0.0</speed>
  <fix>3d</fix>
</trkpt>
<trkpt lat="-27.274439" lon="151.290064">
  <ele>343.1</ele>
  <time>2026-09-01T20:02:23Z</time>
  <course>8.0</course>
  <speed>0.0</speed>
  <fix>3d</fix>
</trkpt>
<trkpt lat="-27.274439" lon="151.290064">
  <ele>343.1</ele>
  <time>2026-09-01T20:02:23Z</time>
  <course>8.0</course>
  <speed>0.0</speed>
  <fix>3d</fix>
</trkpt>
<trkpt lat="-27.274439" lon="151.290064">
  <ele>343.1</ele>
  <time>2026-09-01T20:02:23Z</time>
  <course>8.0</course>
  <speed>0.0</speed>
  <fix>3d</fix>
</trkpt>
<trkpt lat="-27.274439" lon="151.290064">
  <ele>343.1</ele>
  <time>2026-09-01T20:02:23Z</time>
  <course>8.0</course>
  <speed>0.0</speed>
  <fix>3d</fix>
</trkpt>
<trkpt lat="-27.274439" lon="151.290064">
  <ele>343.1</ele>
  <time>2026-09-01T20:02:23Z</time>
  <course>8.0</course>
  <speed>0.0</speed>
  <fix>3d</fix>
</trkpt>
<trkpt lat="-27.274439" lon="151.290064">
  <ele>343.1</ele>
  <time>2026-09-01T20:02:23Z</time>
  <course>8.0</course>
  <speed>0.0</speed>
  <fix>3d</fix>
</trkpt>
<trkpt lat="-27.274439" lon="151.290064">
  <ele>343.1</ele>
  <time>2026-09-01T20:02:23Z</time>
  <course>8.0</course>
  <speed>0.0</speed>
  <fix>3d</fix>
</trkpt>
<trkpt lat="-27.274439" lon="151.290064">
  <ele>343.1</ele>
  <time>2026-09-01T20:02:23Z</time>
  <course>8.0</course>
  <speed>0.0</speed>
  <fix>3d</fix>
</trkpt>
<trkpt lat="-27.274439" lon="151.290064">
  <ele>343.1</ele>
  <time>2026-09-01T20:02:23Z</time>
  <course>8.0</course>
  <speed>0.0</speed>
  <fix>3d</fix>
</trkpt>
<trkpt lat="-27.274439" lon="151.290064">
  <ele>343.1</ele>
  <time>2026-09-01T20:02:23Z</time>
  <course>8.0</course>
  <speed>0.0</speed>
  <fix>3d</fix>
</trkpt>
<trkpt lat="-27.274439" lon="151.290064">
  <ele>343.1</ele>
  <time>2026-09-01T20:02:23Z</time>
  <course>8.0</course>
  <speed>0.0</speed>
  <fix>3d</fix>
</trkpt>
<trkpt lat="-27.274439" lon="151.290064">
  <ele>343.1</ele>
  <time>2026-09-01T20:02:23Z</time>
  <course>8.0</course>
  <speed>0.0</speed>
  <fix>3d</fix>
</trkpt>
<trkpt lat="-27.274439" lon="151.290064">
  <ele>343.1</ele>
  <time>2026-09-01T20:02:23Z</time>
  <course>8.0</course>
  <speed>0.0</speed>
  <fix>3d</fix>
</trkpt>
<trkpt lat="-27.274439" lon="151.290064">
  <ele>343.1</ele>
  <time>2026-09-01T20:02:23Z</time>
  <course>8.0</course>
  <speed>0.0</speed>
  <fix>3d</fix>
</trkpt>
<trkpt lat="-27.274439" lon="151.290064">
  <ele>343.1</ele>
  <time>2026-09-01T20:02:23Z</time>
  <course>8.0</course>
  <speed>0.0</speed>
  <fix>3d</fix>
</trkpt>
<trkpt lat="-26.9720619" lon="149.6127921">
  <ele>339.29</ele>
  <time>2026-09-01T20:02:23Z</time>
  <course>310.27</course>
  <speed>0.0</speed>
  <fix>3d</fix>
</trkpt>
<trkpt lat="-27.274439" lon="151.290064">
  <ele>343.1</ele>
  <time>2026-09-01T20:02:23Z</time>
  <course>8.0</course>
  <speed>0.0</speed>
  <fix>3d</fix>
</trkpt>
<trkpt lat="-26.9720619" lon="149.6127921">
  <ele>339.29</ele>
  <time>2026-09-01T20:02:23Z</time>
  <course>310.27</course>
  <speed>0.0</speed>
  <fix>3d</fix>
</trkpt>
<trkpt lat="-27.274439" lon="151.290064">
  <ele>343.1</ele>
  <time>2026-09-01T20:02:23Z</time>
  <course>8.0</course>
  <speed>0.0</speed>
  <fix>3d</fix>
</trkpt>
<trkpt lat="-27.274439" lon="151.290064">
  <ele>343.1</ele>
  <time>2026-09-01T20:02:23Z</time>
  <course>294.58</course>
  <speed>0.0</speed>
  <fix>3d</fix>
</trkpt>
<trkpt lat="-27.274439" lon="151.290064">
  <ele>343.1</ele>
  <time>2026-09-01T20:02:23Z</time>
  <course>8.0</course>
  <speed>0.0</speed>
  <fix>3d</fix>
</trkpt>
<trkpt lat="-27.274439" lon="151.290064">
  <ele>343.1</ele>
  <time>2026-09-01T20:02:23Z</time>
  <course>294.58</course>
  <speed>0.0</speed>
  <fix>3d</fix>
</trkpt>
<trkpt lat="-27.274439" lon="151.290064">
  <ele>343.1</ele>
  <time>2026-09-01T20:02:23Z</time>
  <course>8.0</course>
  <speed>0.0</speed>
  <fix>3d</fix>
</trkpt>
<trkpt lat="-27.274439" lon="151.290064">
  <ele>343.1</ele>
  <time>2026-09-01T20:02:23Z</time>
  <course>273.33</course>
  <speed>0.0</speed>
  <fix>3d</fix>
</trkpt>
<trkpt lat="-27.274439" lon="151.290064">
  <ele>343.1</ele>
  <time>2026-09-01T20:02:23Z</time>
  <course>8.0</course>
  <speed>0.0</speed>
  <fix>3d</fix>
</trkpt>
<trkpt lat="-27.274439" lon="151.290064">
  <ele>343.1</ele>
  <time>2026-09-01T20:02:23Z</time>
  <course>273.33</course>
  <speed>0.0</speed>
  <fix>3d</fix>
</trkpt>
<trkpt lat="-27.274439" lon="151.290064">
  <ele>343.1</ele>
  <time>2026-09-01T20:02:23Z</time>
  <course>8.0</course>
  <speed>0.0</speed>
  <fix>3d</fix>
</trkpt>
<trkpt lat="-27.274439" lon="151.290064">
  <ele>343.1</ele>
  <time>2026-09-01T20:02:23Z</time>
  <course>270.44</course>
  <speed>0.0</speed>
  <fix>3d</fix>
</trkpt>
<trkpt lat="-27.274439" lon="151.290064">
  <ele>343.1</ele>
  <time>2026-09-01T20:02:23Z</time>
  <course>8.0</course>
  <speed>0.0</speed>
  <fix>3d</fix>
</trkpt>
<trkpt lat="-27.274439" lon="151.290064">
  <ele>343.1</ele>
  <time>2026-09-01T20:02:23Z</time>
  <course>270.44</course>
  <speed>0.0</speed>
  <fix>3d</fix>
</trkpt>
<trkpt lat="-27.274439" lon="151.290064">
  <ele>343.1</ele>
  <time>2026-09-01T20:02:23Z</time>
  <course>8.0</course>
  <speed>0.0</speed>
  <fix>3d</fix>
</trkpt>
<trkpt lat="-27.274439" lon="151.290064">
  <ele>343.1</ele>
  <time>2026-09-01T20:02:23Z</time>
  <course>270.05</course>
  <speed>0.0</speed>
  <fix>3d</fix>
</trkpt>
<trkpt lat="-27.274439" lon="151.290064">
  <ele>343.1</ele>
  <time>2026-09-01T20:02:23Z</time>
  <course>8.0</course>
  <speed>0.0</speed>
  <fix>3d</fix>
</trkpt>
<trkpt lat="-27.274439" lon="151.290064">
  <ele>343.1</ele>
  <time>2026-09-01T20:02:23Z</time>
  <course>270.05</course>
  <speed>0.0</speed>
  <fix>3d</fix>
</trkpt>
<trkpt lat="-27.274439" lon="151.290064">
  <ele>343.1</ele>
  <time>2026-09-01T20:02:23Z</time>
  <course>8.0</course>
  <speed>0.0</speed>
  <fix>3d</fix>
</trkpt>
<trkpt lat="-27.274439" lon="151.290064">
  <ele>343.1</ele>
  <time>2026-09-01T20:02:23Z</time>
  <course>270.0</course>
  <speed>0.0</speed>
  <fix>3d</fix>
</trkpt>
<trkpt lat="-27.274439" lon="151.290064">
  <ele>343.1</ele>
  <time>2026-09-01T20:02:23Z</time>
  <course>8.0</course>
  <speed>0.0</speed>
  <fix>3d</fix>
</trkpt>
<trkpt lat="-27.274439" lon="151.290064">
  <ele>343.1</ele>
  <time>2026-09-01T20:02:23Z</time>
  <course>270.0</course>
  <speed>0.0</speed>
  <fix>3d</fix>
</trkpt>
<trkpt lat="-27.274439" lon="151.290064">
  <ele>343.1</ele>
  <time>2026-09-01T20:02:23Z</time>
  <course>8.0</course>
  <speed>0.0</speed>
  <fix>3d</fix>
</trkpt>
<trkpt lat="-27.274439" lon="151.290064">
  <ele>343.1</ele>
  <time>2026-09-01T20:02:23Z</time>
  <course>270.0</course>
  <speed>0.0</speed>
  <fix>3d</fix>
</trkpt>
<trkpt lat="-27.274439" lon="151.290064">
  <ele>343.1</ele>
  <time>2026-09-01T20:02:23Z</time>
  <course>8.0</course>
  <speed>0.0</speed>
  <fix>3d</fix>
</trkpt>
<trkpt lat="-27.274439" lon="151.290064">
  <ele>343.1</ele>
  <time>2026-09-01T20:02:23Z</time>
  <course>270.0</course>
  <speed>0.0</speed>
  <fix>3d</fix>
</trkpt>
<trkpt lat="-27.274439" lon="151.290064">
  <ele>343.1</ele>
  <time>2026-09-01T20:02:23Z</time>
  <course>8.0</course>
  <speed>0.0</speed>
  <fix>3d</fix>
</trkpt>
<trkpt lat="-27.274439" lon="151.290064">
  <ele>343.1</ele>
  <time>2026-09-01T20:02:23Z</time>
  <course>270.0</course>
  <speed>0.0</speed>
  <fix>3d</fix>
</trkpt>
<trkpt lat="-27.274439" lon="151.290064">
  <ele>343.1</ele>
  <time>2026-09-01T20:02:23Z</time>
  <course>8.0</course>
  <speed>0.0</speed>
  <fix>3d</fix>
</trkpt>
<trkpt lat="-27.274439" lon="151.290064">
  <ele>343.1</ele>
  <time>2026-09-01T20:02:23Z</time>
  <course>270.0</course>
  <speed>0.0</speed>
  <fix>3d</fix>
</trkpt>
<trkpt lat="-27.274439" lon="151.290064">
  <ele>343.1</ele>
  <time>2026-09-01T20:02:23Z</time>
  <course>8.0</course>
  <speed>0.0</speed>
  <fix>3d</fix>
</trkpt>
<trkpt lat="-27.274439" lon="151.290064">
  <ele>343.1</ele>
  <time>2026-09-01T20:02:23Z</time>
  <course>270.0</course>
  <speed>0.0</speed>
  <fix>3d</fix>
</trkpt>
<trkpt lat="-27.274439" lon="151.290064">
  <ele>343.1</ele>
  <time>2026-09-01T20:02:23Z</time>
  <course>8.0</course>
  <speed>0.0</speed>
  <fix>3d</fix>
</trkpt>
<trkpt lat="-27.274439" lon="151.290064">
  <ele>343.1</ele>
  <time>2026-09-01T20:02:23Z</time>
  <course>270.0</course>
  <speed>0.0</speed>
  <fix>3d</fix>
</trkpt>
<trkpt lat="-27.274439" lon="151.290064">
  <ele>343.1</ele>
  <time>2026-09-01T20:02:23Z</time>
  <course>8.0</course>
  <speed>0.0</speed>
  <fix>3d</fix>
</trkpt>
<trkpt lat="-27.274439" lon="151.290064">
  <ele>343.1</ele>
  <time>2026-09-01T20:02:23Z</time>
  <course>270.0</course>
  <speed>0.0</speed>
  <fix>3d</fix>
</trkpt>
<trkpt lat="-27.274439" lon="151.290064">
  <ele>343.1</ele>
  <time>2026-09-01T20:02:23Z</time>
  <course>8.0</course>
  <speed>0.0</speed>
  <fix>3d</fix>
</trkpt>
<trkpt lat="-27.274439" lon="151.290064">
  <ele>343.1</ele>
  <time>2026-09-01T20:02:23Z</time>
  <course>270.0</course>
  <speed>0.0</speed>
  <fix>3d</fix>
</trkpt>
<trkpt lat="-27.274439" lon="151.290064">
  <ele>343.1</ele>
  <time>2026-09-01T20:02:23Z</time>
  <course>8.0</course>
  <speed>0.0</speed>
  <fix>3d</fix>
</trkpt>
<trkpt lat="-27.274439" lon="151.290064">
  <ele>343.1</ele>
  <time>2026-09-01T20:02:23Z</time>
  <course>270.0</course>
  <speed>0.0</speed>
  <fix>3d</fix>
</trkpt>
<trkpt lat="-27.274439" lon="151.290064">
  <ele>343.1</ele>
  <time>2026-09-01T20:02:23Z</time>
  <course>8.0</course>
  <speed>0.0</speed>
  <fix>3d</fix>
</trkpt>
<trkpt lat="-27.274439" lon="151.290064">
  <ele>343.1</ele>
  <time>2026-09-01T20:02:23Z</time>
  <course>270.0</course>
  <speed>0.0</speed>
  <fix>3d</fix>
</trkpt>
<trkpt lat="-27.274439" lon="151.290064">
  <ele>343.1</ele>
  <time>2026-09-01T20:02:23Z</time>
  <course>8.0</course>
  <speed>0.0</speed>
  <fix>3d</fix>
</trkpt>
<trkpt lat="-27.274439" lon="151.290064">
  <ele>343.1</ele>
  <time>2026-09-01T20:02:23Z</time>
  <course>270.0</course>
  <speed>0.0</speed>
  <fix>3d</fix>
</trkpt>
<trkpt lat="-27.274439" lon="151.290064">
  <ele>343.1</ele>
  <time>2026-09-01T20:02:23Z</time>
  <course>8.0</course>
  <speed>0.0</speed>
  <fix>3d</fix>
</trkpt>
<trkpt lat="-27.274439" lon="151.290064">
  <ele>343.1</ele>
  <time>2026-09-01T20:02:23Z</time>
  <course>270.0</course>
  <speed>0.0</speed>
  <fix>3d</fix>
</trkpt>
<trkpt lat="-27.274439" lon="151.290064">
  <ele>343.1</ele>
  <time>2026-09-01T20:02:23Z</time>
  <course>8.0</course>
  <speed>0.0</speed>
  <fix>3d</fix>
</trkpt>
<trkpt lat="-27.274439" lon="151.290064">
  <ele>343.1</ele>
  <time>2026-09-01T20:02:23Z</time>
  <course>270.0</course>
  <speed>0.0</speed>
  <fix>3d</fix>
</trkpt>
<trkpt lat="-27.274439" lon="151.290064">
  <ele>343.1</ele>
  <time>2026-09-01T20:02:23Z</time>
  <course>8.0</course>
  <speed>0.0</speed>
  <fix>3d</fix>
</trkpt>
<trkpt lat="-27.274439" lon="151.290064">
  <ele>343.1</ele>
  <time>2026-09-01T20:02:23Z</time>
  <course>270.0</course>
  <speed>0.0</speed>
  <fix>3d</fix>
</trkpt>
<trkpt lat="-27.274439" lon="151.290064">
  <ele>343.1</ele>
  <time>2026-09-01T20:02:23Z</time>
  <course>8.0</course>
  <speed>0.0</speed>
  <fix>3d</fix>
</trkpt>
<trkpt lat="-27.274439" lon="151.290064">
  <ele>343.1</ele>
  <time>2026-09-01T20:02:23Z</time>
  <course>270.0</course>
  <speed>0.0</speed>
  <fix>3d</fix>
</trkpt>
<trkpt lat="-27.274439" lon="151.290064">
  <ele>343.1</ele>
  <time>2026-09-01T20:02:23Z</time>
  <course>8.0</course>
  <speed>0.0</speed>
  <fix>3d</fix>
</trkpt>
<trkpt lat="-27.274439" lon="151.290064">
  <ele>343.1</ele>
  <time>2026-09-01T20:02:23Z</time>
  <course>270.0</course>
  <speed>0.0</speed>
  <fix>3d</fix>
</trkpt>
<trkpt lat="-27.274439" lon="151.290064">
  <ele>343.1</ele>
  <time>2026-09-01T20:02:23Z</time>
  <course>8.0</course>
  <speed>0.0</speed>
  <fix>3d</fix>
</trkpt>
<trkpt lat="-27.274439" lon="151.290064">
  <ele>343.1</ele>
  <time>2026-09-01T20:02:23Z</time>
  <course>270.0</course>
  <speed>0.0</speed>
  <fix>3d</fix>
</trkpt>
<trkpt lat="-27.274439" lon="151.290064">
  <ele>343.1</ele>
  <time>2026-09-01T20:02:23Z</time>
  <course>8.0</course>
  <speed>0.0</speed>
  <fix>3d</fix>
</trkpt>
<trkpt lat="-27.274439" lon="151.290064">
  <ele>343.1</ele>
  <time>2026-09-01T20:02:23Z</time>
  <course>270.0</course>
  <speed>0.0</speed>
  <fix>3d</fix>
</trkpt>
<trkpt lat="-27.274439" lon="151.290064">
  <ele>343.1</ele>
  <time>2026-09-01T20:02:23Z</time>
  <course>8.0</course>
  <speed>0.0</speed>
  <fix>3d</fix>
</trkpt>
<trkpt lat="-27.274439" lon="151.290064">
  <ele>343.1</ele>
  <time>2026-09-01T20:02:23Z</time>
  <course>270.0</course>
  <speed>0.0</speed>
  <fix>3d</fix>
</trkpt>
<trkpt lat="-27.274439" lon="151.290064">
  <ele>343.1</ele>
  <time>2026-09-01T20:02:23Z</time>
  <course>8.0</course>
  <speed>0.0</speed>
  <fix>3d</fix>
</trkpt>
<trkpt lat="-27.274439" lon="151.290064">
  <ele>343.1</ele>
  <time>2026-09-01T20:02:23Z</time>
  <course>270.0</course>
  <speed>0.0</speed>
  <fix>3d</fix>
</trkpt>
<trkpt lat="-27.274439" lon="151.290064">
  <ele>343.1</ele>
  <time>2026-09-01T20:02:23Z</time>
  <course>8.0</course>
  <speed>0.0</speed>
  <fix>3d</fix>
</trkpt>
<trkpt lat="-27.274439" lon="151.290064">
  <ele>343.1</ele>
  <time>2026-09-01T20:02:23Z</time>
  <course>270.0</course>
  <speed>0.0</speed>
  <fix>3d</fix>
</trkpt>
<trkpt lat="-27.274439" lon="151.290064">
  <ele>343.1</ele>
  <time>2026-09-01T20:02:23Z</time>
  <course>8.0</course>
  <speed>0.0</speed>
  <fix>3d</fix>
</trkpt>
<trkpt lat="-27.274439" lon="151.290064">
  <ele>343.1</ele>
  <time>2026-09-01T20:02:23Z</time>
  <course>270.0</course>
  <speed>0.0</speed>
  <fix>3d</fix>
</trkpt>
<trkpt lat="-27.274439" lon="151.290064">
  <ele>343.1</ele>
  <time>2026-09-01T20:02:23Z</time>
  <course>8.0</course>
  <speed>0.0</speed>
  <fix>3d</fix>
</trkpt>
<trkpt lat="-27.274439" lon="151.290064">
  <ele>343.1</ele>
  <time>2026-09-01T20:02:23Z</time>
  <course>270.0</course>
  <speed>0.0</speed>
  <fix>3d</fix>
</trkpt>
<trkpt lat="-27.274439" lon="151.290064">
  <ele>343.1</ele>
  <time>2026-09-01T20:02:23Z</time>
  <course>8.0</course>
  <speed>0.0</speed>
  <fix>3d</fix>
</trkpt>
<trkpt lat="-27.274439" lon="151.290064">
  <ele>343.1</ele>
  <time>2026-09-01T20:02:23Z</time>
  <course>270.0</course>
  <speed>0.0</speed>
  <fix>3d</fix>
</trkpt>
<trkpt lat="-27.274439" lon="151.290064">
  <ele>343.1</ele>
  <time>2026-09-01T20:02:23Z</time>
  <course>8.0</course>
  <speed>0.0</speed>
  <fix>3d</fix>
</trkpt>
<trkpt lat="-27.274439" lon="151.290064">
  <ele>343.1</ele>
  <time>2026-09-01T20:02:23Z</time>
  <course>270.0</course>
  <speed>0.0</speed>
  <fix>3d</fix>
</trkpt>
<trkpt lat="-27.274439" lon="151.290064">
  <ele>343.1</ele>
  <time>2026-09-01T20:02:23Z</time>
  <course>8.0</course>
  <speed>0.0</speed>
  <fix>3d</fix>
</trkpt>
<trkpt lat="-27.274439" lon="151.290064">
  <ele>343.1</ele>
  <time>2026-09-01T20:02:23Z</time>
  <course>270.0</course>
  <speed>0.0</speed>
  <fix>3d</fix>
</trkpt>
<trkpt lat="-27.274439" lon="151.290064">
  <ele>343.1</ele>
  <time>2026-09-01T20:02:23Z</time>
  <course>8.0</course>
  <speed>0.0</speed>
  <fix>3d</fix>
</trkpt>
<trkpt lat="-27.274439" lon="151.290064">
  <ele>343.1</ele>
  <time>2026-09-01T20:02:23Z</time>
  <course>270.0</course>
  <speed>0.0</speed>
  <fix>3d</fix>
</trkpt>
<trkpt lat="-27.274439" lon="151.290064">
  <ele>343.1</ele>
  <time>2026-09-01T20:02:23Z</time>
  <course>8.0</course>
  <speed>0.0</speed>
  <fix>3d</fix>
</trkpt>
<trkpt lat="-27.274439" lon="151.290064">
  <ele>343.1</ele>
  <time>2026-09-01T20:02:23Z</time>
  <course>270.0</course>
  <speed>0.0</speed>
  <fix>3d</fix>
</trkpt>
<trkpt lat="-27.274439" lon="151.290064">
  <ele>343.1</ele>
  <time>2026-09-01T20:02:23Z</time>
  <course>8.0</course>
  <speed>0.0</speed>
  <fix>3d</fix>
</trkpt>
<trkpt lat="-27.274439" lon="151.290064">
  <ele>343.1</ele>
  <time>2026-09-01T20:02:23Z</time>
  <course>270.0</course>
  <speed>0.0</speed>
  <fix>3d</fix>
</trkpt>
<trkpt lat="-27.274439" lon="151.290064">
  <ele>343.1</ele>
  <time>2026-09-01T20:02:23Z</time>
  <course>8.0</course>
  <speed>0.0</speed>
  <fix>3d</fix>
</trkpt>
<trkpt lat="-27.274439" lon="151.290064">
  <ele>343.1</ele>
  <time>2026-09-01T20:02:23Z</time>
  <course>270.0</course>
  <speed>0.0</speed>
  <fix>3d</fix>
</trkpt>
<trkpt lat="-27.274439" lon="151.290064">
  <ele>343.1</ele>
  <time>2026-09-01T20:02:23Z</time>
  <course>8.0</course>
  <speed>0.0</speed>
  <fix>3d</fix>
</trkpt>
<trkpt lat="-27.274439" lon="151.290064">
  <ele>343.1</ele>
  <time>2026-09-01T20:02:23Z</time>
  <course>270.0</course>
  <speed>0.0</speed>
  <fix>3d</fix>
</trkpt>
<trkpt lat="-27.274439" lon="151.290064">
  <ele>343.1</ele>
  <time>2026-09-01T20:02:23Z</time>
  <course>8.0</course>
  <speed>0.0</speed>
  <fix>3d</fix>
</trkpt>
<trkpt lat="-27.274439" lon="151.290064">
  <ele>343.1</ele>
  <time>2026-09-01T20:02:23Z</time>
  <course>270.0</course>
  <speed>0.0</speed>
  <fix>3d</fix>
</trkpt>
<trkpt lat="-27.274439" lon="151.290064">
  <ele>343.1</ele>
  <time>2026-09-01T20:02:23Z</time>
  <course>8.0</course>
  <speed>0.0</speed>
  <fix>3d</fix>
</trkpt>
<trkpt lat="-27.274439" lon="151.290064">
  <ele>343.1</ele>
  <time>2026-09-01T20:02:23Z</time>
  <course>270.0</course>
  <speed>0.0</speed>
  <fix>3d</fix>
</trkpt>
<trkpt lat="-27.274439" lon="151.290064">
  <ele>343.1</ele>
  <time>2026-09-01T20:02:23Z</time>
  <course>8.0</course>
  <speed>0.0</speed>
  <fix>3d</fix>
</trkpt>
<trkpt lat="-27.274439" lon="151.290064">
  <ele>343.1</ele>
  <time>2026-09-01T20:02:23Z</time>
  <course>270.0</course>
  <speed>0.0</speed>
  <fix>3d</fix>
</trkpt>
<trkpt lat="-27.274439" lon="151.290064">
  <ele>343.1</ele>
  <time>2026-09-01T20:02:23Z</time>
  <course>8.0</course>
  <speed>0.0</speed>
  <fix>3d</fix>
</trkpt>
<trkpt lat="-27.274439" lon="151.290064">
  <ele>343.1</ele>
  <time>2026-09-01T20:02:23Z</time>
  <course>270.0</course>
  <speed>0.0</speed>
  <fix>3d</fix>
</trkpt>
<trkpt lat="-27.274439" lon="151.290064">
  <ele>343.1</ele>
  <time>2026-09-01T20:02:23Z</time>
  <course>8.0</course>
  <speed>0.0</speed>
  <fix>3d</fix>
</trkpt>
<trkpt lat="-27.274439" lon="151.290064">
  <ele>343.1</ele>
  <time>2026-09-01T20:02:23Z</time>
  <course>270.0</course>
  <speed>0.0</speed>
  <fix>3d</fix>
</trkpt>
<trkpt lat="-27.274439" lon="151.290064">
  <ele>343.1</ele>
  <time>2026-09-01T20:02:23Z</time>
  <course>8.0</course>
  <speed>0.0</speed>
  <fix>3d</fix>
</trkpt>
<trkpt lat="-27.274439" lon="151.290064">
  <ele>343.1</ele>
  <time>2026-09-01T20:02:23Z</time>
  <course>270.0</course>
  <speed>0.0</speed>
  <fix>3d</fix>
</trkpt>
<trkpt lat="-27.274439" lon="151.290064">
  <ele>343.1</ele>
  <time>2026-09-01T20:02:23Z</time>
  <course>8.0</course>
  <speed>0.0</speed>
  <fix>3d</fix>
</trkpt>
<trkpt lat="-27.274439" lon="151.290064">
  <ele>343.1</ele>
  <time>2026-09-01T20:02:23Z</time>
  <course>270.0</course>
  <speed>0.0</speed>
  <fix>3d</fix>
</trkpt>
<trkpt lat="-27.274439" lon="151.290064">
  <ele>343.1</ele>
  <time>2026-09-01T20:02:23Z</time>
  <course>8.0</course>
  <speed>0.0</speed>
  <fix>3d</fix>
</trkpt>
<trkpt lat="-27.274439" lon="151.290064">
  <ele>343.1</ele>
  <time>2026-09-01T20:02:23Z</time>
  <course>270.0</course>
  <speed>0.0</speed>
  <fix>3d</fix>
</trkpt>
<trkpt lat="-27.274439" lon="151.290064">
  <ele>343.1</ele>
  <time>2026-09-01T20:02:23Z</time>
  <course>8.0</course>
  <speed>0.0</speed>
  <fix>3d</fix>
</trkpt>
<trkpt lat="-27.274439" lon="151.290064">
  <ele>343.1</ele>
  <time>2026-09-01T20:02:23Z</time>
  <course>270.0</course>
  <speed>0.0</speed>
  <fix>3d</fix>
</trkpt>
<trkpt lat="-27.274439" lon="151.290064">
  <ele>343.1</ele>
  <time>2026-09-01T20:02:23Z</time>
  <course>8.0</course>
  <speed>0.0</speed>
  <fix>3d</fix>
</trkpt>
<trkpt lat="-27.274439" lon="151.290064">
  <ele>343.1</ele>
  <time>2026-09-01T20:02:23Z</time>
  <course>270.0</course>
  <speed>0.0</speed>
  <fix>3d</fix>
</trkpt>
<trkpt lat="-27.274439" lon="151.290064">
  <ele>343.1</ele>
  <time>2026-09-01T20:02:23Z</time>
  <course>8.0</course>
  <speed>0.0</speed>
  <fix>3d</fix>
</trkpt>
<trkpt lat="-27.274439" lon="151.290064">
  <ele>343.1</ele>
  <time>2026-09-01T20:02:23Z</time>
  <course>270.0</course>
  <speed>0.0</speed>
  <fix>3d</fix>
</trkpt>
<trkpt lat="-27.274439" lon="151.290064">
  <ele>343.1</ele>
  <time>2026-09-01T20:02:23Z</time>
  <course>8.0</course>
  <speed>0.0</speed>
  <fix>3d</fix>
</trkpt>
<trkpt lat="-27.274439" lon="151.290064">
  <ele>343.1</ele>
  <time>2026-09-01T20:02:23Z</time>
  <course>143.0</course>
  <speed>0.0</speed>
  <fix>3d</fix>
</trkpt>
<trkpt lat="-27.274439" lon="151.290064">
  <ele>343.1</ele>
  <time>2026-09-01T20:02:23Z</time>
  <course>8.0</course>
  <speed>0.0</speed>
  <fix>3d</fix>
</trkpt>
<trkpt lat="-27.274439" lon="151.290064">
  <ele>343.1</ele>
  <time>2026-09-01T20:02:23Z</time>
  <course>143.0</course>
  <speed>0.0</speed>
  <fix>3d</fix>
</trkpt>
<trkpt lat="-27.274439" lon="151.290064">
  <ele>343.1</ele>
  <time>2026-09-01T20:02:23Z</time>
  <course>8.0</course>
  <speed>0.0</speed>
  <fix>3d</fix>
</trkpt>
<trkpt lat="-27.274439" lon="151.290064">
  <ele>343.1</ele>
  <time>2026-09-01T20:02:23Z</time>
  <course>143.0</course>
  <speed>0.0</speed>
  <fix>3d</fix>
</trkpt>
<trkpt lat="-27.274439" lon="151.290064">
  <ele>343.1</ele>
  <time>2026-09-01T20:02:23Z</time>
  <course>8.0</course>
  <speed>0.0</speed>
  <fix>3d</fix>
</trkpt>
<trkpt lat="-27.274439" lon="151.290064">
  <ele>343.1</ele>
  <time>2026-09-01T20:02:23Z</time>
  <course>143.0</course>
  <speed>0.0</speed>
  <fix>3d</fix>
</trkpt>
<trkpt lat="-27.274439" lon="151.290064">
  <ele>343.1</ele>
  <time>2026-09-01T20:02:23Z</time>
  <course>8.0</course>
  <speed>0.0</speed>
  <fix>3d</fix>
</trkpt>
<trkpt lat="-27.274439" lon="151.290064">
  <ele>343.1</ele>
  <time>2026-09-01T20:02:23Z</time>
  <course>249.52</course>
  <speed>0.0</speed>
  <fix>3d</fix>
</trkpt>
<trkpt lat="-27.274439" lon="151.290064">
  <ele>343.1</ele>
  <time>2026-09-01T20:02:23Z</time>
  <course>8.0</course>
  <speed>0.0</speed>
  <fix>3d</fix>
</trkpt>
<trkpt lat="-27.274439" lon="151.290064">
  <ele>343.1</ele>
  <time>2026-09-01T20:02:23Z</time>
  <course>249.52</course>
  <speed>0.0</speed>
  <fix>3d</fix>
</trkpt>
<trkpt lat="-27.274439" lon="151.290064">
  <ele>343.1</ele>
  <time>2026-09-01T20:02:23Z</time>
  <course>8.0</course>
  <speed>0.0</speed>
  <fix>3d</fix>
</trkpt>
<trkpt lat="-27.274439" lon="151.290064">
  <ele>343.1</ele>
  <time>2026-09-01T20:02:23Z</time>
  <course>307.47</course>
  <speed>0.0</speed>
  <fix>3d</fix>
</trkpt>
<trkpt lat="-27.274439" lon="151.290064">
  <ele>343.11</ele>
  <time>2026-09-01T20:02:23Z</time>
  <course>8.0</course>
  <speed>0.0</speed>
  <fix>3d</fix>
</trkpt>
<trkpt lat="-27.274439" lon="151.290064">
  <ele>343.1</ele>
  <time>2026-09-01T20:02:23Z</time>
  <course>307.47</course>
  <speed>0.0</speed>
  <fix>3d</fix>
</trkpt>
<trkpt lat="-27.274439" lon="151.290064">
  <ele>343.15</ele>
  <time>2026-09-01T20:02:23Z</time>
  <course>8.0</course>
  <speed>0.0</speed>
  <fix>3d</fix>
</trkpt>
<trkpt lat="-27.274439" lon="151.290064">
  <ele>343.1</ele>
  <time>2026-09-01T20:02:23Z</time>
  <course>7.99</course>
  <speed>0.0</speed>
  <fix>3d</fix>
</trkpt>
<trkpt lat="-27.274439" lon="151.290064">
  <ele>343.21</ele>
  <time>2026-09-01T20:02:23Z</time>
  <course>8.0</course>
  <speed>0.0</speed>
  <fix>3d</fix>
</trkpt>
<trkpt lat="-27.274439" lon="151.290064">
  <ele>343.1</ele>
  <time>2026-09-01T20:02:23Z</time>
  <course>7.99</course>
  <speed>0.0</speed>
  <fix>3d</fix>
</trkpt>
<trkpt lat="-27.274439" lon="151.290064">
  <ele>343.29</ele>
  <time>2026-09-01T20:02:23Z</time>
  <course>8.0</course>
  <speed>0.02</speed>
  <fix>3d</fix>
</trkpt>
<trkpt lat="-27.274439" lon="151.290064">
  <ele>343.15</ele>
  <time>2026-09-01T20:02:23Z</time>
  <course>7.91</course>
  <speed>0.0</speed>
  <fix>3d</fix>
</trkpt>
<trkpt lat="-27.274439" lon="151.290064">
  <ele>343.45</ele>
  <time>2026-09-01T20:02:23Z</time>
  <course>8.0</course>
  <speed>0.05</speed>
  <fix>3d</fix>
</trkpt>
<trkpt lat="-27.274439" lon="151.290064">
  <ele>343.15</ele>
  <time>2026-09-01T20:02:23Z</time>
  <course>7.91</course>
  <speed>0.0</speed>
  <fix>3d</fix>
</trkpt>
<trkpt lat="-27.274439" lon="151.290064">
  <ele>343.66</ele>
  <time>2026-09-01T20:02:23Z</time>
  <course>8.0</course>
  <speed>0.09055385138137417</speed>
  <fix>3d</fix>
</trkpt>
<trkpt lat="-27.274439" lon="151.290064">
  <ele>343.32</ele>
  <time>2026-09-01T20:02:23Z</time>
  <course>7.63</course>
  <speed>0.02</speed>
  <fix>3d</fix>
</trkpt>
<trkpt lat="-27.2744389" lon="151.290064">
  <ele>343.91</ele>
  <time>2026-09-01T20:02:23Z</time>
  <course>8.0</course>
  <speed>0.130384048104053</speed>
  <fix>3d</fix>
</trkpt>
<trkpt lat="-27.274439" lon="151.290064">
  <ele>343.32</ele>
  <time>2026-09-01T20:02:23Z</time>
  <course>7.63</course>
  <speed>0.02</speed>
  <fix>3d</fix>
</trkpt>
<trkpt lat="-27.2744388" lon="151.290064">
  <ele>344.17</ele>
  <time>2026-09-01T20:02:23Z</time>
  <course>7.99</course>
  <speed>0.16124515496597097</speed>
  <fix>3d</fix>
</trkpt>
<trkpt lat="-27.2744389" lon="151.290064">
  <ele>343.66</ele>
  <time>2026-09-01T20:02:23Z</time>
  <course>7.74</course>
  <speed>0.08</speed>
  <fix>3d</fix>
</trkpt>
<trkpt lat="-27.2744386" lon="151.290064">
  <ele>344.44</ele>
  <time>2026-09-01T20:02:23Z</time>
  <course>7.99</course>
  <speed>0.2009975124224178</speed>
  <fix>3d</fix>
</trkpt>
<trkpt lat="-27.2744389" lon="151.290064">
  <ele>343.66</ele>
  <time>2026-09-01T20:02:23Z</time>
  <course>7.74</course>
  <speed>0.08</speed>
  <fix>3d</fix>
</trkpt>
<trkpt lat="-27.2744384" lon="151.290064">
  <ele>344.73</ele>
  <time>2026-09-01T20:02:23Z</time>
  <course>7.99</course>
  <speed>0.24186773244895649</speed>
  <fix>3d</fix>
</trkpt>
<trkpt lat="-27.2744387" lon="151.290064">
  <ele>344.16</ele>
  <time>2026-09-01T20:02:23Z</time>
  <course>7.85</course>
  <speed>0.16</speed>
  <fix>3d</fix>
</trkpt>
<trkpt lat="-27.2744382" lon="151.2900641">
  <ele>345.02</ele>
  <time>2026-09-01T20:02:23Z</time>
  <course>7.98</course>
  <speed>0.261725046566048</speed>
  <fix>3d</fix>
</trkpt>
<trkpt lat="-27.2744387" lon="151.290064">
  <ele>344.16</ele>
  <time>2026-09-01T20:02:23Z</time>
  <course>7.85</course>
  <speed>0.16</speed>
  <fix>3d</fix>
</trkpt>
<trkpt lat="-27.2744379" lon="151.2900641">
  <ele>345.31</ele>
  <time>2026-09-01T20:02:23Z</time>
  <course>7.98</course>
  <speed>0.27166155414412246</speed>
  <fix>3d</fix>
</trkpt>
<trkpt lat="-27.2744384" lon="151.290064">
  <ele>344.71</ele>
  <time>2026-09-01T20:02:23Z</time>
  <course>7.99</course>
  <speed>0.23</speed>
  <fix>3d</fix>
</trkpt>
<trkpt lat="-27.2744377" lon="151.2900642">
  <ele>345.59</ele>
  <time>2026-09-01T20:02:23Z</time>
  <course>7.98</course>
  <speed>0.2816025568065745</speed>
  <fix>3d</fix>
</trkpt>
<trkpt lat="-27.2744384" lon="151.290064">
  <ele>344.71</ele>
  <time>2026-09-01T20:02:23Z</time>
  <course>7.99</course>
  <speed>0.23</speed>
  <fix>3d</fix>
</trkpt>
<trkpt lat="-27.2744374" lon="151.2900642">
  <ele>345.85</ele>
  <time>2026-09-01T20:02:23Z</time>
  <course>7.99</course>
  <speed>0.27166155414412246</speed>
  <fix>3d</fix>
</trkpt>
<trkpt lat="-27.2744379" lon="151.2900641">
  <ele>345.28</ele>
  <time>2026-09-01T20:02:23Z</time>
  <course>8.08</course>
  <speed>0.27</speed>
  <fix>3d</fix>
</trkpt>
<trkpt lat="-27.2744372" lon="151.2900642">
  <ele>346.09</ele>
  <time>2026-09-01T20:02:23Z</time>
  <course>7.99</course>
  <speed>0.25179356624028343</speed>
  <fix>3d</fix>
</trkpt>
<trkpt lat="-27.2744379" lon="151.2900641">
  <ele>345.28</ele>
  <time>2026-09-01T20:02:23Z</time>
  <course>8.08</course>
  <speed>0.27</speed>
  <fix>3d</fix>
</trkpt>
<trkpt lat="-27.274437" lon="151.2900642">
  <ele>346.3</ele>
  <time>2026-09-01T20:02:23Z</time>
  <course>7.99</course>
  <speed>0.23194827009486402</speed>
  <fix>3d</fix>
</trkpt>
<trkpt lat="-27.2744374" lon="151.2900642">
  <ele>345.82</ele>
  <time>2026-09-01T20:02:23Z</time>
  <course>8.01</course>
  <speed>0.27</speed>
  <fix>3d</fix>
</trkpt>
<trkpt lat="-27.2744368" lon="151.2900642">
  <ele>346.48</ele>
  <time>2026-09-01T20:02:23Z</time>
  <course>8.0</course>
  <speed>0.2009975124224178</speed>
  <fix>3d</fix>
</trkpt>
<trkpt lat="-27.2744374" lon="151.2900642">
  <ele>345.82</ele>
  <time>2026-09-01T20:02:23Z</time>
  <course>8.01</course>
  <speed>0.27</speed>
  <fix>3d</fix>
</trkpt>
<trkpt lat="-27.2744366" lon="151.2900642">
  <ele>346.63</ele>
  <time>2026-09-01T20:02:23Z</time>
  <course>8.0</course>
  <speed>0.1711724276862369</speed>
  <fix>3d</fix>
</trkpt>
<trkpt lat="-27.274437" lon="151.2900642">
  <ele>346.27</ele>
  <time>2026-09-01T20:02:23Z</time>
  <course>7.86</course>
  <speed>0.23</speed>
  <fix>3d</fix>
</trkpt>
<trkpt lat="-27.2744365" lon="151.2900644">
  <ele>346.73</ele>
  <time>2026-09-01T20:02:23Z</time>
  <course>7.99</course>
  <speed>0.1414213562373095</speed>
  <fix>3d</fix>
</trkpt>
<trkpt lat="-27.274437" lon="151.2900642">
  <ele>346.27</ele>
  <time>2026-09-01T20:02:23Z</time>
  <course>7.86</course>
  <speed>0.23</speed>
  <fix>3d</fix>
</trkpt>
<trkpt lat="-27.2744363" lon="151.2900644">
  <ele>346.8</ele>
  <time>2026-09-01T20:02:23Z</time>
  <course>7.99</course>
  <speed>0.11045361017187261</speed>
  <fix>3d</fix>
</trkpt>
<trkpt lat="-27.2744366" lon="151.2900643">
  <ele>346.6</ele>
  <time>2026-09-01T20:02:23Z</time>
  <course>7.77</course>
  <speed>0.17</speed>
  <fix>3d</fix>
</trkpt>
<trkpt lat="-27.2744363" lon="151.2900644">
  <ele>346.83</ele>
  <time>2026-09-01T20:02:23Z</time>
  <course>7.99</course>
  <speed>0.08062257748298549</speed>
  <fix>3d</fix>
</trkpt>
<trkpt lat="-27.2744366" lon="151.2900643">
  <ele>346.6</ele>
  <time>2026-09-01T20:02:23Z</time>
  <course>7.77</course>
  <speed>0.17</speed>
  <fix>3d</fix>
</trkpt>
<trkpt lat="-27.2744362" lon="151.2900644">
  <ele>346.82</ele>
  <time>2026-09-01T20:02:23Z</time>
  <course>7.99</course>
  <speed>0.05</speed>
  <fix>3d</fix>
</trkpt>
<trkpt lat="-27.2744364" lon="151.2900644">
  <ele>346.78</ele>
  <time>2026-09-01T20:02:23Z</time>
  <course>7.81</course>
  <speed>0.11</speed>
  <fix>3d</fix>
</trkpt>
<trkpt lat="-27.2744362" lon="151.2900644">
  <ele>346.79</ele>
  <time>2026-09-01T20:02:23Z</time>
  <course>7.99</course>
  <speed>0.02</speed>
  <fix>3d</fix>
</trkpt>
<trkpt lat="-27.2744364" lon="151.2900644">
  <ele>346.78</ele>
  <time>2026-09-01T20:02:23Z</time>
  <course>7.81</course>
  <speed>0.11</speed>
  <fix>3d</fix>
</trkpt>
<trkpt lat="-27.2744362" lon="151.2900644">
  <ele>346.72</ele>
  <time>2026-09-01T20:02:23Z</time>
  <course>8.0</course>
  <speed>0.0</speed>
  <fix>3d</fix>
</trkpt>
<trkpt lat="-27.2744362" lon="151.2900644">
  <ele>346.81</ele>
  <time>2026-09-01T20:02:23Z</time>
  <course>7.95</course>
  <speed>0.05</speed>
  <fix>3d</fix>
</trkpt>
<trkpt lat="-27.2744362" lon="151.2900644">
  <ele>346.64</ele>
  <time>2026-09-01T20:02:23Z</time>
  <course>8.0</course>
  <speed>0.03</speed>
  <fix>3d</fix>
</trkpt>
<trkpt lat="-27.2744362" lon="151.2900644">
  <ele>346.81</ele>
  <time>2026-09-01T20:02:23Z</time>
  <course>7.95</course>
  <speed>0.05</speed>
  <fix>3d</fix>
</trkpt>
<trkpt lat="-27.2744362" lon="151.2900644">
  <ele>346.54</ele>
  <time>2026-09-01T20:02:23Z</time>
  <course>8.01</course>
  <speed>0.06</speed>
  <fix>3d</fix>
</trkpt>
<trkpt lat="-27.2744362" lon="151.2900644">
  <ele>346.71</ele>
  <time>2026-09-01T20:02:23Z</time>
  <course>188.68</course>
  <speed>0.0</speed>
  <fix>3d</fix>
</trkpt>
<trkpt lat="-27.2744363" lon="151.2900644">
  <ele>346.44</ele>
  <time>2026-09-01T20:02:23Z</time>
  <course>8.02</course>
  <speed>0.08062257748298549</speed>
  <fix>3d</fix>
</trkpt>
<trkpt lat="-27.2744362" lon="151.2900644">
  <ele>346.71</ele>
  <time>2026-09-01T20:02:23Z</time>
  <course>188.68</course>
  <speed>0.0</speed>
  <fix>3d</fix>
</trkpt>
<trkpt lat="-27.2744364" lon="151.2900644">
  <ele>346.33</ele>
  <time>2026-09-01T20:02:23Z</time>
  <course>8.03</course>
  <speed>0.11045361017187261</speed>
  <fix>3d</fix>
</trkpt>
<trkpt lat="-27.2744362" lon="151.2900644">
  <ele>346.54</ele>
  <time>2026-09-01T20:02:23Z</time>
  <course>188.22</course>
  <speed>0.06</speed>
  <fix>3d</fix>
</trkpt>
<trkpt lat="-27.2744365" lon="151.2900644">
  <ele>346.22</ele>
  <time>2026-09-01T20:02:23Z</time>
  <course>8.03</course>
  <speed>0.130384048104053</speed>
  <fix>3d</fix>
</trkpt>
<trkpt lat="-27.2744362" lon="151.2900644">
  <ele>346.54</ele>
  <time>2026-09-01T20:02:23Z</time>
  <course>188.22</course>
  <speed>0.06</speed>
  <fix>3d</fix>
</trkpt>
<trkpt lat="-27.2744365" lon="151.2900644">
  <ele>346.12</ele>
  <time>2026-09-01T20:02:23Z</time>
  <course>8.03</course>
  <speed>0.15132745950421556</speed>
  <fix>3d</fix>
</trkpt>
<trkpt lat="-27.2744364" lon="151.2900644">
  <ele>346.33</ele>
  <time>2026-09-01T20:02:23Z</time>
  <course>188.1</course>
  <speed>0.11</speed>
  <fix>3d</fix>
</trkpt>
<trkpt lat="-27.2744367" lon="151.2900644">
  <ele>346.03</ele>
  <time>2026-09-01T20:02:23Z</time>
  <course>8.02</course>
  <speed>0.1711724276862369</speed>
  <fix>3d</fix>
</trkpt>
<trkpt lat="-27.2744364" lon="151.2900644">
  <ele>346.33</ele>
  <time>2026-09-01T20:02:23Z</time>
  <course>188.1</course>
  <speed>0.11</speed>
  <fix>3d</fix>
</trkpt>
<trkpt lat="-27.2744368" lon="151.2900644">
  <ele>345.94</ele>
  <time>2026-09-01T20:02:23Z</time>
  <course>8.01</course>
  <speed>0.191049731745428</speed>
  <fix>3d</fix>
</trkpt>
<trkpt lat="-27.2744366" lon="151.2900644">
  <ele>346.13</ele>
  <time>2026-09-01T20:02:23Z</time>
  <course>188.07</course>
  <speed>0.15</speed>
  <fix>3d</fix>
</trkpt>
<trkpt lat="-27.274437" lon="151.2900642">
  <ele>345.87</ele>
  <time>2026-09-01T20:02:23Z</time>
  <course>7.99</course>
  <speed>0.2109502310972899</speed>
  <fix>3d</fix>
</trkpt>
<trkpt lat="-27.2744366" lon="151.2900644">
  <ele>346.13</ele>
  <time>2026-09-01T20:02:23Z</time>
  <course>188.07</course>
  <speed>0.15</speed>
  <fix>3d</fix>
</trkpt>
<trkpt lat="-27.2744372" lon="151.2900642">
  <ele>345.8</ele>
  <time>2026-09-01T20:02:23Z</time>
  <course>7.98</course>
  <speed>0.2220360331117452</speed>
  <fix>3d</fix>
</trkpt>
<trkpt lat="-27.2744368" lon="151.2900644">
  <ele>345.95</ele>
  <time>2026-09-01T20:02:23Z</time>
  <course>188.01</course>
  <speed>0.19</speed>
  <fix>3d</fix>
</trkpt>
<trkpt lat="-27.2744374" lon="151.2900642">
  <ele>345.75</ele>
  <time>2026-09-01T20:02:23Z</time>
  <course>7.97</course>
  <speed>0.24186773244895649</speed>
  <fix>3d</fix>
</trkpt>
<trkpt lat="-27.2744368" lon="151.2900644">
  <ele>345.95</ele>
  <time>2026-09-01T20:02:23Z</time>
  <course>188.01</course>
  <speed>0.19</speed>
  <fix>3d</fix>
</trkpt>
<trkpt lat="-27.2744376" lon="151.2900642">
  <ele>345.7</ele>
  <time>2026-09-01T20:02:23Z</time>
  <course>7.97</course>
  <speed>0.25179356624028343</speed>
  <fix>3d</fix>
</trkpt>
<trkpt lat="-27.2744372" lon="151.2900643">
  <ele>345.81</ele>
  <time>2026-09-01T20:02:23Z</time>
  <course>187.98</course>
  <speed>0.22</speed>
  <fix>3d</fix>
</trkpt>
<trkpt lat="-27.2744379" lon="151.2900642">
  <ele>345.66</ele>
  <time>2026-09-01T20:02:23Z</time>
  <course>7.97</course>
  <speed>0.261725046566048</speed>
  <fix>3d</fix>
</trkpt>
<trkpt lat="-27.2744372" lon="151.2900643">
  <ele>345.81</ele>
  <time>2026-09-01T20:02:23Z</time>
  <course>187.98</course>
  <speed>0.22</speed>
  <fix>3d</fix>
</trkpt>
<trkpt lat="-27.2744381" lon="151.2900642">
  <ele>345.63</ele>
  <time>2026-09-01T20:02:23Z</time>
  <course>7.98</course>
  <speed>0.27166155414412246</speed>
  <fix>3d</fix>
</trkpt>
<trkpt lat="-27.2744376" lon="151.2900642">
  <ele>345.7</ele>
  <time>2026-09-01T20:02:23Z</time>
  <course>187.98</course>
  <speed>0.25</speed>
  <fix>3d</fix>
</trkpt>
<trkpt lat="-27.2744384" lon="151.2900641">
  <ele>345.6</ele>
  <time>2026-09-01T20:02:23Z</time>
  <course>7.99</course>
  <speed>0.27166155414412246</speed>
  <fix>3d</fix>
</trkpt>
<trkpt lat="-27.2744376" lon="151.2900642">
  <ele>345.7</ele>
  <time>2026-09-01T20:02:23Z</time>
  <course>187.98</course>
  <speed>0.25</speed>
  <fix>3d</fix>
</trkpt>
<trkpt lat="-27.2744386" lon="151.2900641">
  <ele>345.57</ele>
  <time>2026-09-01T20:02:23Z</time>
  <course>7.99</course>
  <speed>0.2816025568065745</speed>
  <fix>3d</fix>
</trkpt>
<trkpt lat="-27.2744381" lon="151.2900641">
  <ele>345.63</ele>
  <time>2026-09-01T20:02:23Z</time>
  <course>187.98</course>
  <speed>0.27</speed>
  <fix>3d</fix>
</trkpt>
<trkpt lat="-27.2744389" lon="151.2900641">
  <ele>345.54</ele>
  <time>2026-09-01T20:02:23Z</time>
  <course>7.99</course>
  <speed>0.2816025568065745</speed>
  <fix>3d</fix>
</trkpt>
<trkpt lat="-27.2744381" lon="151.2900641">
  <ele>345.63</ele>
  <time>2026-09-01T20:02:23Z</time>
  <course>187.98</course>
  <speed>0.27</speed>
  <fix>3d</fix>
</trkpt>
<trkpt lat="-27.2744391" lon="151.290064">
  <ele>345.52</ele>
  <time>2026-09-01T20:02:23Z</time>
  <course>7.98</course>
  <speed>0.2816025568065745</speed>
  <fix>3d</fix>
</trkpt>
<trkpt lat="-27.2744386" lon="151.2900641">
  <ele>345.57</ele>
  <time>2026-09-01T20:02:23Z</time>
  <course>187.98</course>
  <speed>0.28</speed>
  <fix>3d</fix>
</trkpt>
<trkpt lat="-27.2744394" lon="151.290064">
  <ele>345.49</ele>
  <time>2026-09-01T20:02:23Z</time>
  <course>7.98</course>
  <speed>0.2816025568065745</speed>
  <fix>3d</fix>
</trkpt>
<trkpt lat="-27.2744386" lon="151.2900641">
  <ele>345.57</ele>
  <time>2026-09-01T20:02:23Z</time>
  <course>187.98</course>
  <speed>0.28</speed>
  <fix>3d</fix>
</trkpt>
<trkpt lat="-27.2744396" lon="151.2900639">
  <ele>345.46</ele>
  <time>2026-09-01T20:02:23Z</time>
  <course>7.97</course>
  <speed>0.27166155414412246</speed>
  <fix>3d</fix>
</trkpt>
<trkpt lat="-27.2744391" lon="151.290064">
  <ele>345.51</ele>
  <time>2026-09-01T20:02:23Z</time>
  <course>187.97</course>
  <speed>0.28</speed>
  <fix>3d</fix>
</trkpt>
<trkpt lat="-27.2744399" lon="151.2900639">
  <ele>345.43</ele>
  <time>2026-09-01T20:02:23Z</time>
  <course>7.96</course>
  <speed>0.27166155414412246</speed>
  <fix>3d</fix>
</trkpt>
<trkpt lat="-27.2744391" lon="151.290064">
  <ele>345.51</ele>
  <time>2026-09-01T20:02:23Z</time>
  <course>187.97</course>
  <speed>0.28</speed>
  <fix>3d</fix>
</trkpt>
<trkpt lat="-27.2744401" lon="151.2900639">
  <ele>345.39</ele>
  <time>2026-09-01T20:02:23Z</time>
  <course>7.95</course>
  <speed>0.261725046566048</speed>
  <fix>3d</fix>
</trkpt>
<trkpt lat="-27.2744396" lon="151.2900639">
  <ele>345.46</ele>
  <time>2026-09-01T20:02:23Z</time>
  <course>187.95</course>
  <speed>0.27</speed>
  <fix>3d</fix>
</trkpt>
<trkpt lat="-27.2744404" lon="151.2900637">
  <ele>345.35</ele>
  <time>2026-09-01T20:02:23Z</time>
  <course>7.95</course>
  <speed>0.25179356624028343</speed>
  <fix>3d</fix>
</trkpt>
<trkpt lat="-27.2744396" lon="151.2900639">
  <ele>345.46</ele>
  <time>2026-09-01T20:02:23Z</time>
  <course>187.95</course>
  <speed>0.27</speed>
  <fix>3d</fix>
</trkpt>
<trkpt lat="-27.2744406" lon="151.2900637">
  <ele>345.31</ele>
  <time>2026-09-01T20:02:23Z</time>
  <course>7.94</course>
  <speed>0.24186773244895649</speed>
  <fix>3d</fix>
</trkpt>
<trkpt lat="-27.2744401" lon="151.2900638">
  <ele>345.39</ele>
  <time>2026-09-01T20:02:23Z</time>
  <course>187.92</course>
  <speed>0.26</speed>
  <fix>3d</fix>
</trkpt>
<trkpt lat="-27.2744408" lon="151.2900637">
  <ele>345.26</ele>
  <time>2026-09-01T20:02:23Z</time>
  <course>7.94</course>
  <speed>0.23194827009486402</speed>
  <fix>3d</fix>
</trkpt>
<trkpt lat="-27.2744401" lon="151.2900638">
  <ele>345.39</ele>
  <time>2026-09-01T20:02:23Z</time>
  <course>187.92</course>
  <speed>0.26</speed>
  <fix>3d</fix>
</trkpt>
<trkpt lat="-27.274441" lon="151.2900637">
  <ele>345.21</ele>
  <time>2026-09-01T20:02:23Z</time>
  <course>7.95</course>
  <speed>0.2220360331117452</speed>
  <fix>3d</fix>
</trkpt>
<trkpt lat="-27.2744405" lon="151.2900637">
  <ele>345.3</ele>
  <time>2026-09-01T20:02:23Z</time>
  <course>187.91</course>
  <speed>0.24</speed>
  <fix>3d</fix>
</trkpt>
<trkpt lat="-27.2744412" lon="151.2900637">
  <ele>345.16</ele>
  <time>2026-09-01T20:02:23Z</time>
  <course>7.95</course>
  <speed>0.2109502310972899</speed>
  <fix>3d</fix>
</trkpt>
<trkpt lat="-27.2744405" lon="151.2900637">
  <ele>345.3</ele>
  <time>2026-09-01T20:02:23Z</time>
  <course>187.91</course>
  <speed>0.24</speed>
  <fix>3d</fix>
</trkpt>
<trkpt lat="-27.2744414" lon="151.2900637">
  <ele>345.1</ele>
  <time>2026-09-01T20:02:23Z</time>
  <course>7.96</course>
  <speed>0.191049731745428</speed>
  <fix>3d</fix>
</trkpt>
<trkpt lat="-27.2744409" lon="151.2900637">
  <ele>345.21</ele>
  <time>2026-09-01T20:02:23Z</time>
  <course>187.91</course>
  <speed>0.22</speed>
  <fix>3d</fix>
</trkpt>
<trkpt lat="-27.2744416" lon="151.2900636">
  <ele>345.05</ele>
  <time>2026-09-01T20:02:23Z</time>
  <course>7.96</course>
  <speed>0.18110770276274835</speed>
  <fix>3d</fix>
</trkpt>
<trkpt lat="-27.2744409" lon="151.2900637">
  <ele>345.21</ele>
  <time>2026-09-01T20:02:23Z</time>
  <course>187.91</course>
  <speed>0.22</speed>
  <fix>3d</fix>
</trkpt>
<trkpt lat="-27.2744416" lon="151.2900636">
  <ele>344.99</ele>
  <time>2026-09-01T20:02:23Z</time>
  <course>7.97</course>
  <speed>0.1711724276862369</speed>
  <fix>3d</fix>
</trkpt>
<trkpt lat="-27.2744413" lon="151.2900636">
  <ele>345.1</ele>
  <time>2026-09-01T20:02:23Z</time>
  <course>187.91</course>
  <speed>0.2</speed>
  <fix>3d</fix>
</trkpt>
<trkpt lat="-27.2744419" lon="151.2900636">
  <ele>344.93</ele>
  <time>2026-09-01T20:02:23Z</time>
  <course>7.97</course>
  <speed>0.15132745950421556</speed>
  <fix>3d</fix>
</trkpt>
<trkpt lat="-27.2744413" lon="151.2900636">
  <ele>345.1</ele>
  <time>2026-09-01T20:02:23Z</time>
  <course>187.91</course>
  <speed>0.2</speed>
  <fix>3d</fix>
</trkpt>
<trkpt lat="-27.274442" lon="151.2900636">
  <ele>344.88</ele>
  <time>2026-09-01T20:02:23Z</time>
  <course>7.96</course>
  <speed>0.140356688476182</speed>
  <fix>3d</fix>
</trkpt>
<trkpt lat="-27.2744416" lon="151.2900636">
  <ele>344.99</ele>
  <time>2026-09-01T20:02:23Z</time>
  <course>187.9</course>
  <speed>0.17</speed>
  <fix>3d</fix>
</trkpt>
<trkpt lat="-27.2744421" lon="151.2900635">
  <ele>344.82</ele>
  <time>2026-09-01T20:02:23Z</time>
  <course>7.96</course>
  <speed>0.12041594578792296</speed>
  <fix>3d</fix>
</trkpt>
<trkpt lat="-27.2744416" lon="151.2900636">
  <ele>344.99</ele>
  <time>2026-09-01T20:02:23Z</time>
  <course>187.9</course>
  <speed>0.17</speed>
  <fix>3d</fix>
</trkpt>
<trkpt lat="-27.2744422" lon="151.2900635">
  <ele>344.77</ele>
  <time>2026-09-01T20:02:23Z</time>
  <course>7.95</course>
  <speed>0.11045361017187261</speed>
  <fix>3d</fix>
</trkpt>
<trkpt lat="-27.274442" lon="151.2900635">
  <ele>344.88</ele>
  <time>2026-09-01T20:02:23Z</time>
  <course>187.88</course>
  <speed>0.14</speed>
  <fix>3d</fix>
</trkpt>
<trkpt lat="-27.2744423" lon="151.2900635">
  <ele>344.71</ele>
  <time>2026-09-01T20:02:23Z</time>
  <course>7.95</course>
  <speed>0.09055385138137417</speed>
  <fix>3d</fix>
</trkpt>
<trkpt lat="-27.274442" lon="151.2900635">
  <ele>344.88</ele>
  <time>2026-09-01T20:02:23Z</time>
  <course>187.88</course>
  <speed>0.14</speed>
  <fix>3d</fix>
</trkpt>
<trkpt lat="-27.2744424" lon="151.2900635">
  <ele>344.66</ele>
  <time>2026-09-01T20:02:23Z</time>
  <course>7.95</course>
  <speed>0.08062257748298549</speed>
  <fix>3d</fix>
</trkpt>
<trkpt lat="-27.2744422" lon="151.2900635">
  <ele>344.76</ele>
  <time>2026-09-01T20:02:23Z</time>
  <course>187.85</course>
  <speed>0.11</speed>
  <fix>3d</fix>
</trkpt>
<trkpt lat="-27.2744425" lon="151.2900635">
  <ele>344.61</ele>
  <time>2026-09-01T20:02:23Z</time>
  <course>7.95</course>
  <speed>0.06</speed>
  <fix>3d</fix>
</trkpt>
<trkpt lat="-27.2744422" lon="151.2900635">
  <ele>344.76</ele>
  <time>2026-09-01T20:02:23Z</time>
  <course>187.85</course>
  <speed>0.11</speed>
  <fix>3d</fix>
</trkpt>
<trkpt lat="-27.2744425" lon="151.2900635">
  <ele>344.55</ele>
  <time>2026-09-01T20:02:23Z</time>
  <course>7.95</course>
  <speed>0.05</speed>
  <fix>3d</fix>
</trkpt>
<trkpt lat="-27.2744424" lon="151.2900635">
  <ele>344.65</ele>
  <time>2026-09-01T20:02:23Z</time>
  <course>187.85</course>
  <speed>0.08</speed>
  <fix>3d</fix>
</trkpt>
<trkpt lat="-27.2744425" lon="151.2900635">
  <ele>344.5</ele>
  <time>2026-09-01T20:02:23Z</time>
  <course>7.96</course>
  <speed>0.03</speed>
  <fix>3d</fix>
</trkpt>
<trkpt lat="-27.2744424" lon="151.2900635">
  <ele>344.65</ele>
  <time>2026-09-01T20:02:23Z</time>
  <course>187.85</course>
  <speed>0.08</speed>
  <fix>3d</fix>
</trkpt>
<trkpt lat="-27.2744426" lon="151.2900635">
  <ele>344.45</ele>
  <time>2026-09-01T20:02:23Z</time>
  <course>7.97</course>
  <speed>0.02</speed>
  <fix>3d</fix>
</trkpt>
<trkpt lat="-27.2744425" lon="151.2900635">
  <ele>344.56</ele>
  <time>2026-09-01T20:02:23Z</time>
  <course>187.86</course>
  <speed>0.05</speed>
  <fix>3d</fix>
</trkpt>
<trkpt lat="-27.2744426" lon="151.2900635">
  <ele>344.41</ele>
  <time>2026-09-01T20:02:23Z</time>
  <course>7.97</course>
  <speed>0.0</speed>
  <fix>3d</fix>
</trkpt>
<trkpt lat="-27.2744425" lon="151.2900635">
  <ele>344.56</ele>
  <time>2026-09-01T20:02:23Z</time>
  <course>187.86</course>
  <speed>0.05</speed>
  <fix>3d</fix>
</trkpt>
<trkpt lat="-27.2744426" lon="151.2900635">
  <ele>344.36</ele>
  <time>2026-09-01T20:02:23Z</time>
  <course>7.97</course>
  <speed>0.0</speed>
  <fix>3d</fix>
</trkpt>
<trkpt lat="-27.2744425" lon="151.2900635">
  <ele>344.46</ele>
  <time>2026-09-01T20:02:23Z</time>
  <course>187.52</course>
  <speed>0.02</speed>
  <fix>3d</fix>
</trkpt>
<trkpt lat="-27.2744426" lon="151.2900635">
  <ele>344.31</ele>
  <time>2026-09-01T20:02:24Z</time>
  <course>7.98</course>
  <speed>0.02</speed>
  <fix>3d</fix>
</trkpt>
<trkpt lat="-27.2744425" lon="151.2900635">
  <ele>344.46</ele>
  <time>2026-09-01T20:02:24Z</time>
  <course>187.52</course>
  <speed>0.02</speed>
  <fix>3d</fix>
</trkpt>
<trkpt lat="-27.2744425" lon="151.2900635">
  <ele>344.26</ele>
  <time>2026-09-01T20:02:24Z</time>
  <course>7.98</course>
  <speed>0.03</speed>
  <fix>3d</fix>
</trkpt>
<trkpt lat="-27.2744426" lon="151.2900635">
  <ele>344.36</ele>
  <time>2026-09-01T20:02:24Z</time>
  <course>5.27</course>
  <speed>0.0</speed>
  <fix>3d</fix>
</trkpt>
<trkpt lat="-27.2744425" lon="151.2900635">
  <ele>344.21</ele>
  <time>2026-09-01T20:02:24Z</time>
  <course>7.99</course>
  <speed>0.04</speed>
  <fix>3d</fix>
</trkpt>
<trkpt lat="-27.2744426" lon="151.2900635">
  <ele>344.36</ele>
  <time>2026-09-01T20:02:24Z</time>
  <course>5.27</course>
  <speed>0.0</speed>
  <fix>3d</fix>
</trkpt>
<trkpt lat="-27.2744425" lon="151.2900635">
  <ele>344.17</ele>
  <time>2026-09-01T20:02:24Z</time>
  <course>7.99</course>
  <speed>0.06</speed>
  <fix>3d</fix>
</trkpt>
<trkpt lat="-27.2744425" lon="151.2900635">
  <ele>344.26</ele>
  <time>2026-09-01T20:02:24Z</time>
  <course>5.19</course>
  <speed>0.03</speed>
  <fix>3d</fix>
</trkpt>
<trkpt lat="-27.2744425" lon="151.2900635">
  <ele>344.12</ele>
  <time>2026-09-01T20:02:24Z</time>
  <course>8.0</course>
  <speed>0.07</speed>
  <fix>3d</fix>
</trkpt>
<trkpt lat="-27.2744425" lon="151.2900635">
  <ele>344.26</ele>
  <time>2026-09-01T20:02:24Z</time>
  <course>5.19</course>
  <speed>0.03</speed>
  <fix>3d</fix>
</trkpt>
<trkpt lat="-27.2744424" lon="151.2900635">
  <ele>344.07</ele>
  <time>2026-09-01T20:02:24Z</time>
  <course>8.0</course>
  <speed>0.08</speed>
  <fix>3d</fix>
</trkpt>
<trkpt lat="-27.2744425" lon="151.2900635">
  <ele>344.16</ele>
  <time>2026-09-01T20:02:24Z</time>
  <course>5.21</course>
  <speed>0.06</speed>
  <fix>3d</fix>
</trkpt>
<trkpt lat="-27.2744423" lon="151.2900635">
  <ele>344.02</ele>
  <time>2026-09-01T20:02:24Z</time>
  <course>8.01</course>
  <speed>0.09</speed>
  <fix>3d</fix>
</trkpt>
<trkpt lat="-27.2744425" lon="151.2900635">
  <ele>344.16</ele>
  <time>2026-09-01T20:02:24Z</time>
  <course>5.21</course>
  <speed>0.06</speed>
  <fix>3d</fix>
</trkpt>
<trkpt lat="-27.2744423" lon="151.2900635">
  <ele>343.97</ele>
  <time>2026-09-01T20:02:24Z</time>
  <course>8.01</course>
  <speed>0.1004987562112089</speed>
  <fix>3d</fix>
</trkpt>
<trkpt lat="-27.2744424" lon="151.2900635">
  <ele>344.07</ele>
  <time>2026-09-01T20:02:24Z</time>
  <course>5.36</course>
  <speed>0.08</speed>
  <fix>3d</fix>
</trkpt>
<trkpt lat="-27.2744422" lon="151.2900635">
  <ele>343.92</ele>
  <time>2026-09-01T20:02:24Z</time>
  <course>8.0</course>
  <speed>0.11045361017187261</speed>
  <fix>3d</fix>
</trkpt>
<trkpt lat="-27.2744424" lon="151.2900635">
  <ele>344.07</ele>
  <time>2026-09-01T20:02:24Z</time>
  <course>5.36</course>
  <speed>0.08</speed>
  <fix>3d</fix>
</trkpt>
<trkpt lat="-27.274442" lon="151.2900635">
  <ele>343.88</ele>
  <time>2026-09-01T20:02:24Z</time>
  <course>7.99</course>
  <speed>0.12041594578792296</speed>
  <fix>3d</fix>
</trkpt>
<trkpt lat="-27.2744422" lon="151.2900635">
  <ele>343.97</ele>
  <time>2026-09-01T20:02:24Z</time>
  <course>5.41</course>
  <speed>0.1</speed>
  <fix>3d</fix>
</trkpt>
<trkpt lat="-27.2744419" lon="151.2900635">
  <ele>343.83</ele>
  <time>2026-09-01T20:02:24Z</time>
  <course>7.99</course>
  <speed>0.130384048104053</speed>
  <fix>3d</fix>
</trkpt>
<trkpt lat="-27.2744422" lon="151.2900635">
  <ele>343.97</ele>
  <time>2026-09-01T20:02:24Z</time>
  <course>5.41</course>
  <speed>0.1</speed>
  <fix>3d</fix>
</trkpt>
<trkpt lat="-27.2744418" lon="151.2900635">
  <ele>343.78</ele>
  <time>2026-09-01T20:02:24Z</time>
  <course>7.98</course>
  <speed>0.140356688476182</speed>
  <fix>3d</fix>
</trkpt>
<trkpt lat="-27.274442" lon="151.2900635">
  <ele>343.88</ele>
  <time>2026-09-01T20:02:24Z</time>
  <course>5.48</course>
  <speed>0.12</speed>
  <fix>3d</fix>
</trkpt>
<trkpt lat="-27.2744416" lon="151.2900635">
  <ele>343.73</ele>
  <time>2026-09-01T20:02:24Z</time>
  <course>7.98</course>
  <speed>0.140356688476182</speed>
  <fix>3d</fix>
</trkpt>
<trkpt lat="-27.274442" lon="151.2900635">
  <ele>343.88</ele>
  <time>2026-09-01T20:02:24Z</time>
  <course>5.48</course>
  <speed>0.12</speed>
  <fix>3d</fix>
</trkpt>
<trkpt lat="-27.2744415" lon="151.2900635">
  <ele>343.68</ele>
  <time>2026-09-01T20:02:24Z</time>
  <course>7.97</course>
  <speed>0.15033296378372907</speed>
  <fix>3d</fix>
</trkpt>
<trkpt lat="-27.2744418" lon="151.2900635">
  <ele>343.78</ele>
  <time>2026-09-01T20:02:24Z</time>
  <course>5.73</course>
  <speed>0.14</speed>
  <fix>3d</fix>
</trkpt>
<trkpt lat="-27.2744414" lon="151.2900635">
  <ele>343.62</ele>
  <time>2026-09-01T20:02:24Z</time>
  <course>7.98</course>
  <speed>0.16031219541881397</speed>
  <fix>3d</fix>
</trkpt>
<trkpt lat="-27.2744418" lon="151.2900635">
  <ele>343.78</ele>
  <time>2026-09-01T20:02:24Z</time>
  <course>5.73</course>
  <speed>0.14</speed>
  <fix>3d</fix>
</trkpt>
<trkpt lat="-27.2744412" lon="151.2900635">
  <ele>343.57</ele>
  <time>2026-09-01T20:02:24Z</time>
  <course>7.99</course>
  <speed>0.16031219541881397</speed>
  <fix>3d</fix>
</trkpt>
<trkpt lat="-27.2744415" lon="151.2900635">
  <ele>343.68</ele>
  <time>2026-09-01T20:02:24Z</time>
  <course>5.91</course>
  <speed>0.15</speed>
  <fix>3d</fix>
</trkpt>
<trkpt lat="-27.2744411" lon="151.2900636">
  <ele>343.52</ele>
  <time>2026-09-01T20:02:24Z</time>
  <course>7.99</course>
  <speed>0.16031219541881397</speed>
  <fix>3d</fix>
</trkpt>
<trkpt lat="-27.2744415" lon="151.2900635">
  <ele>343.68</ele>
  <time>2026-09-01T20:02:24Z</time>
  <course>5.91</course>
  <speed>0.15</speed>
  <fix>3d</fix>
</trkpt>
<trkpt lat="-27.2744409" lon="151.2900636">
  <ele>343.47</ele>
  <time>2026-09-01T20:02:24Z</time>
  <course>8.0</course>
  <speed>0.17029386365926402</speed>
  <fix>3d</fix>
</trkpt>
<trkpt lat="-27.2744412" lon="151.2900635">
  <ele>343.58</ele>
  <time>2026-09-01T20:02:24Z</time>
  <course>6.09</course>
  <speed>0.16</speed>
  <fix>3d</fix>
</trkpt>
<trkpt lat="-27.2744408" lon="151.2900636">
  <ele>343.42</ele>
  <time>2026-09-01T20:02:24Z</time>
  <course>8.0</course>
  <speed>0.17029386365926402</speed>
  <fix>3d</fix>
</trkpt>
<trkpt lat="-27.2744412" lon="151.2900635">
  <ele>343.58</ele>
  <time>2026-09-01T20:02:24Z</time>
  <course>6.09</course>
  <speed>0.16</speed>
  <fix>3d</fix>
</trkpt>
<trkpt lat="-27.2744406" lon="151.2900636">
  <ele>343.37</ele>
  <time>2026-09-01T20:02:24Z</time>
  <course>8.0</course>
  <speed>0.17029386365926402</speed>
  <fix>3d</fix>
</trkpt>
<trkpt lat="-27.2744409" lon="151.2900636">
  <ele>343.47</ele>
  <time>2026-09-01T20:02:24Z</time>
  <course>6.35</course>
  <speed>0.17</speed>
  <fix>3d</fix>
</trkpt>
<trkpt lat="-27.2744405" lon="151.2900636">
  <ele>343.32</ele>
  <time>2026-09-01T20:02:24Z</time>
  <course>8.0</course>
  <speed>0.1711724276862369</speed>
  <fix>3d</fix>
</trkpt>
<trkpt lat="-27.2744409" lon="151.2900636">
  <ele>343.47</ele>
  <time>2026-09-01T20:02:24Z</time>
  <course>6.35</course>
  <speed>0.17</speed>
  <fix>3d</fix>
</trkpt>
<trkpt lat="-27.2744403" lon="151.2900637">
  <ele>343.27</ele>
  <time>2026-09-01T20:02:24Z</time>
  <course>7.99</course>
  <speed>0.1711724276862369</speed>
  <fix>3d</fix>
</trkpt>
<trkpt lat="-27.2744406" lon="151.2900636">
  <ele>343.37</ele>
  <time>2026-09-01T20:02:24Z</time>
  <course>6.51</course>
  <speed>0.17</speed>
  <fix>3d</fix>
</trkpt>
<trkpt lat="-27.2744402" lon="151.2900637">
  <ele>343.22</ele>
  <time>2026-09-01T20:02:24Z</time>
  <course>7.99</course>
  <speed>0.1711724276862369</speed>
  <fix>3d</fix>
</trkpt>
<trkpt lat="-27.2744406" lon="151.2900636">
  <ele>343.37</ele>
  <time>2026-09-01T20:02:24Z</time>
  <course>6.51</course>
  <speed>0.17</speed>
  <fix>3d</fix>
</trkpt>
<trkpt lat="-27.27444" lon="151.2900637">
  <ele>343.17</ele>
  <time>2026-09-01T20:02:24Z</time>
  <course>8.0</course>
  <speed>0.1711724276862369</speed>
  <fix>3d</fix>
</trkpt>
<trkpt lat="-27.2744403" lon="151.2900636">
  <ele>343.27</ele>
  <time>2026-09-01T20:02:24Z</time>
  <course>6.63</course>
  <speed>0.17</speed>
  <fix>3d</fix>
</trkpt>
<trkpt lat="-27.2744399" lon="151.2900637">
  <ele>343.12</ele>
  <time>2026-09-01T20:02:24Z</time>
  <course>8.0</course>
  <speed>0.16031219541881397</speed>
  <fix>3d</fix>
</trkpt>
<trkpt lat="-27.2744403" lon="151.2900636">
  <ele>343.27</ele>
  <time>2026-09-01T20:02:24Z</time>
  <course>6.63</course>
  <speed>0.17</speed>
  <fix>3d</fix>
</trkpt>
<trkpt lat="-27.2744397" lon="151.2900637">
  <ele>343.08</ele>
  <time>2026-09-01T20:02:24Z</time>
  <course>8.0</course>
  <speed>0.08062257748298549</speed>
  <fix>3d</fix>
</trkpt>
<trkpt lat="-27.27444" lon="151.2900637">
  <ele>343.16</ele>
  <time>2026-09-01T20:02:24Z</time>
  <course>6.74</course>
  <speed>0.17</speed>
  <fix>3d</fix>
</trkpt>
<trkpt lat="-27.2744397" lon="151.2900637">
  <ele>343.07</ele>
  <time>2026-09-01T20:02:24Z</time>
  <course>8.0</course>
  <speed>0.02</speed>
  <fix>3d</fix>
</trkpt>
<trkpt lat="-27.27444" lon="151.2900637">
  <ele>343.16</ele>
  <time>2026-09-01T20:02:24Z</time>
  <course>6.74</course>
  <speed>0.17</speed>
  <fix>3d</fix>
</trkpt>
<trkpt lat="-27.2744397" lon="151.2900637">
  <ele>343.08</ele>
  <time>2026-09-01T20:02:24Z</time>
  <course>8.0</course>
  <speed>0.04</speed>
  <fix>3d</fix>
</trkpt>
<trkpt lat="-27.2744397" lon="151.2900637">
  <ele>343.09</ele>
  <time>2026-09-01T20:02:24Z</time>
  <course>6.77</course>
  <speed>0.07</speed>
  <fix>3d</fix>
</trkpt>
<trkpt lat="-27.2744398" lon="151.2900637">
  <ele>343.09</ele>
  <time>2026-09-01T20:02:24Z</time>
  <course>8.0</course>
  <speed>0.03</speed>
  <fix>3d</fix>
</trkpt>
<trkpt lat="-27.2744397" lon="151.2900637">
  <ele>343.09</ele>
  <time>2026-09-01T20:02:24Z</time>
  <course>6.77</course>
  <speed>0.07</speed>
  <fix>3d</fix>
</trkpt>
<trkpt lat="-27.2744398" lon="151.2900637">
  <ele>343.1</ele>
  <time>2026-09-01T20:02:24Z</time>
  <course>8.0</course>
  <speed>0.0</speed>
  <fix>3d</fix>
</trkpt>
<trkpt lat="-27.2744397" lon="151.2900637">
  <ele>343.08</ele>
  <time>2026-09-01T20:02:24Z</time>
  <course>186.81</course>
  <speed>0.02</speed>
  <fix>3d</fix>
</trkpt>
<trkpt lat="-27.2744398" lon="151.2900637">
  <ele>343.1</ele>
  <time>2026-09-01T20:02:24Z</time>
  <course>8.0</course>
  <speed>0.0</speed>
  <fix>3d</fix>
</trkpt>
<trkpt lat="-27.2744397" lon="151.2900637">
  <ele>343.08</ele>
  <time>2026-09-01T20:02:24Z</time>
  <course>186.81</course>
  <speed>0.02</speed>
  <fix>3d</fix>
</trkpt>
<trkpt lat="-27.2744398" lon="151.2900637">
  <ele>343.1</ele>
  <time>2026-09-01T20:02:24Z</time>
  <course>8.0</course>
  <speed>0.0</speed>
  <fix>3d</fix>
</trkpt>
<trkpt lat="-27.2744398" lon="151.2900637">
  <ele>343.09</ele>
  <time>2026-09-01T20:02:24Z</time>
  <course>186.81</course>
  <speed>0.01</speed>
  <fix>3d</fix>
</trkpt>
<trkpt lat="-27.2744398" lon="151.2900637">
  <ele>343.09</ele>
  <time>2026-09-01T20:02:24Z</time>
  <course>8.0</course>
  <speed>0.0</speed>
  <fix>3d</fix>
</trkpt>
<trkpt lat="-27.2744398" lon="151.2900637">
  <ele>343.09</ele>
  <time>2026-09-01T20:02:24Z</time>
  <course>186.81</course>
  <speed>0.01</speed>
  <fix>3d</fix>
</trkpt>
<trkpt lat="-27.2744398" lon="151.2900637">
  <ele>343.09</ele>
  <time>2026-09-01T20:02:24Z</time>
  <course>8.0</course>
  <speed>0.0</speed>
  <fix>3d</fix>
</trkpt>
<trkpt lat="-27.2744398" lon="151.2900637">
  <ele>343.09</ele>
  <time>2026-09-01T20:02:24Z</time>
  <course>6.81</course>
  <speed>0.0</speed>
  <fix>3d</fix>
</trkpt>
<trkpt lat="-27.2744398" lon="151.2900637">
  <ele>343.09</ele>
  <time>2026-09-01T20:02:24Z</time>
  <course>8.0</course>
  <speed>0.0</speed>
  <fix>3d</fix>
</trkpt>
<trkpt lat="-27.2744398" lon="151.2900637">
  <ele>343.09</ele>
  <time>2026-09-01T20:02:24Z</time>
  <course>6.81</course>
  <speed>0.0</speed>
  <fix>3d</fix>
</trkpt>
<trkpt lat="-27.2744398" lon="151.2900637">
  <ele>343.09</ele>
  <time>2026-09-01T20:02:24Z</time>
  <course>8.0</course>
  <speed>0.0</speed>
  <fix>3d</fix>
</trkpt>
<trkpt lat="-27.2744398" lon="151.2900637">
  <ele>343.09</ele>
  <time>2026-09-01T20:02:24Z</time>
  <course>6.81</course>
  <speed>0.0</speed>
  <fix>3d</fix>
</trkpt>
<trkpt lat="-27.2744398" lon="151.2900637">
  <ele>343.1</ele>
  <time>2026-09-01T20:02:24Z</time>
  <course>8.0</course>
  <speed>0.0</speed>
  <fix>3d</fix>
</trkpt>
<trkpt lat="-27.2744398" lon="151.2900637">
  <ele>343.09</ele>
  <time>2026-09-01T20:02:24Z</time>
  <course>6.81</course>
  <speed>0.0</speed>
  <fix>3d</fix>
</trkpt>
<trkpt lat="-27.2744398" lon="151.2900637">
  <ele>343.1</ele>
  <time>2026-09-01T20:02:24Z</time>
  <course>8.0</course>
  <speed>0.0</speed>
  <fix>3d</fix>
</trkpt>
<trkpt lat="-27.2744398" lon="151.2900637">
  <ele>343.09</ele>
  <time>2026-09-01T20:02:24Z</time>
  <course>186.81</course>
  <speed>0.0</speed>
  <fix>3d</fix>
</trkpt>
<trkpt lat="-27.2744398" lon="151.2900637">
  <ele>343.09</ele>
  <time>2026-09-01T20:02:24Z</time>
  <course>8.0</course>
  <speed>0.0</speed>
  <fix>3d</fix>
</trkpt>
<trkpt lat="-27.2744398" lon="151.2900637">
  <ele>343.09</ele>
  <time>2026-09-01T20:02:24Z</time>
  <course>186.81</course>
  <speed>0.0</speed>
  <fix>3d</fix>
</trkpt>
<trkpt lat="-27.2744398" lon="151.2900637">
  <ele>343.09</ele>
  <time>2026-09-01T20:02:24Z</time>
  <course>8.0</course>
  <speed>0.0</speed>
  <fix>3d</fix>
</trkpt>
<trkpt lat="-27.2744398" lon="151.2900637">
  <ele>343.09</ele>
  <time>2026-09-01T20:02:24Z</time>
  <course>186.83</course>
  <speed>0.0</speed>
  <fix>3d</fix>
</trkpt>
<trkpt lat="-27.2744398" lon="151.2900637">
  <ele>343.09</ele>
  <time>2026-09-01T20:02:24Z</time>
  <course>8.0</course>
  <speed>0.0</speed>
  <fix>3d</fix>
</trkpt>
<trkpt lat="-27.2744398" lon="151.2900637">
  <ele>343.09</ele>
  <time>2026-09-01T20:02:24Z</time>
  <course>186.83</course>
  <speed>0.0</speed>
  <fix>3d</fix>
</trkpt>
<trkpt lat="-27.2744398" lon="151.2900637">
  <ele>343.09</ele>
  <time>2026-09-01T20:02:24Z</time>
  <course>8.0</course>
  <speed>0.0</speed>
  <fix>3d</fix>
</trkpt>
<trkpt lat="-27.2744398" lon="151.2900637">
  <ele>343.09</ele>
  <time>2026-09-01T20:02:24Z</time>
  <course>6.8</course>
  <speed>0.0</speed>
  <fix>3d</fix>
</trkpt>
<trkpt lat="-27.2744398" lon="151.2900637">
  <ele>343.09</ele>
  <time>2026-09-01T20:02:24Z</time>
  <course>8.0</course>
  <speed>0.0</speed>
  <fix>3d</fix>
</trkpt>
<trkpt lat="-27.2744398" lon="151.2900637">
  <ele>343.09</ele>
  <time>2026-09-01T20:02:24Z</time>
  <course>6.8</course>
  <speed>0.0</speed>
  <fix>3d</fix>
</trkpt>
<trkpt lat="-27.2744398" lon="151.2900637">
  <ele>343.09</ele>
  <time>2026-09-01T20:02:24Z</time>
  <course>8.0</course>
  <speed>0.0</speed>
  <fix>3d</fix>
</trkpt>
<trkpt lat="-27.2744398" lon="151.2900637">
  <ele>343.09</ele>
  <time>2026-09-01T20:02:24Z</time>
  <course>186.99</course>
  <speed>0.0</speed>
  <fix>3d</fix>
</trkpt>
<trkpt lat="-27.2744398" lon="151.2900637">
  <ele>343.09</ele>
  <time>2026-09-01T20:02:24Z</time>
  <course>8.0</course>
  <speed>0.0</speed>
  <fix>3d</fix>
</trkpt>
<trkpt lat="-27.2744398" lon="151.2900637">
  <ele>343.09</ele>
  <time>2026-09-01T20:02:24Z</time>
  <course>186.99</course>
  <speed>0.0</speed>
  <fix>3d</fix>
</trkpt>
<trkpt lat="-27.2744398" lon="151.2900637">
  <ele>343.09</ele>
  <time>2026-09-01T20:02:24Z</time>
  <course>8.0</course>
  <speed>0.0</speed>
  <fix>3d</fix>
</trkpt>
<trkpt lat="-27.2744398" lon="151.2900637">
  <ele>343.09</ele>
  <time>2026-09-01T20:02:24Z</time>
  <course>186.93</course>
  <speed>0.0</speed>
  <fix>3d</fix>
</trkpt>
<trkpt lat="-27.2744398" lon="151.2900637">
  <ele>343.09</ele>
  <time>2026-09-01T20:02:24Z</time>
  <course>8.0</course>
  <speed>0.0</speed>
  <fix>3d</fix>
</trkpt>
<trkpt lat="-27.2744398" lon="151.2900637">
  <ele>343.09</ele>
  <time>2026-09-01T20:02:24Z</time>
  <course>186.93</course>
  <speed>0.0</speed>
  <fix>3d</fix>
</trkpt>
<trkpt lat="-27.2744398" lon="151.2900637">
  <ele>343.09</ele>
  <time>2026-09-01T20:02:24Z</time>
  <course>8.0</course>
  <speed>0.0</speed>
  <fix>3d</fix>
</trkpt>
<trkpt lat="-27.2744398" lon="151.2900637">
  <ele>343.09</ele>
  <time>2026-09-01T20:02:24Z</time>
  <course>6.32</course>
  <speed>0.0</speed>
  <fix>3d</fix>
</trkpt>
<trkpt lat="-27.2744398" lon="151.2900637">
  <ele>343.09</ele>
  <time>2026-09-01T20:02:24Z</time>
  <course>8.0</course>
  <speed>0.0</speed>
  <fix>3d</fix>
</trkpt>
<trkpt lat="-27.2744398" lon="151.2900637">
  <ele>343.09</ele>
  <time>2026-09-01T20:02:24Z</time>
  <course>6.32</course>
  <speed>0.0</speed>
  <fix>3d</fix>
</trkpt>
<trkpt lat="-27.2744398" lon="151.2900637">
  <ele>343.09</ele>
  <time>2026-09-01T20:02:24Z</time>
  <course>8.0</course>
  <speed>0.0</speed>
  <fix>3d</fix>
</trkpt>
<trkpt lat="-27.2744398" lon="151.2900637">
  <ele>343.09</ele>
  <time>2026-09-01T20:02:24Z</time>
  <course>6.86</course>
  <speed>0.0</speed>
  <fix>3d</fix>
</trkpt>
<trkpt lat="-27.2744398" lon="151.2900637">
  <ele>343.09</ele>
  <time>2026-09-01T20:02:24Z</time>
  <course>8.0</course>
  <speed>0.0</speed>
  <fix>3d</fix>
</trkpt>
<trkpt lat="-27.2744398" lon="151.2900637">
  <ele>343.09</ele>
  <time>2026-09-01T20:02:24Z</time>
  <course>6.86</course>
  <speed>0.0</speed>
  <fix>3d</fix>
</trkpt>
<trkpt lat="-27.2744398" lon="151.2900637">
  <ele>343.09</ele>
  <time>2026-09-01T20:02:24Z</time>
  <course>8.0</course>
  <speed>0.0</speed>
  <fix>3d</fix>
</trkpt>
<trkpt lat="-27.2744398" lon="151.2900637">
  <ele>343.09</ele>
  <time>2026-09-01T20:02:24Z</time>
  <course>182.07</course>
  <speed>0.0</speed>
  <fix>3d</fix>
</trkpt>
<trkpt lat="-27.2744398" lon="151.2900637">
  <ele>343.09</ele>
  <time>2026-09-01T20:02:24Z</time>
  <course>8.0</course>
  <speed>0.0</speed>
  <fix>3d</fix>
</trkpt>
<trkpt lat="-27.2744398" lon="151.2900637">
  <ele>343.09</ele>
  <time>2026-09-01T20:02:24Z</time>
  <course>182.07</course>
  <speed>0.0</speed>
  <fix>3d</fix>
</trkpt>
<trkpt lat="-27.2744398" lon="151.2900637">
  <ele>343.09</ele>
  <time>2026-09-01T20:02:24Z</time>
  <course>8.0</course>
  <speed>0.0</speed>
  <fix>3d</fix>
</trkpt>
<trkpt lat="-27.2744398" lon="151.2900637">
  <ele>343.09</ele>
  <time>2026-09-01T20:02:24Z</time>
  <course>18.2</course>
  <speed>0.0</speed>
  <fix>3d</fix>
</trkpt>
<trkpt lat="-27.2744398" lon="151.2900637">
  <ele>343.09</ele>
  <time>2026-09-01T20:02:24Z</time>
  <course>8.0</course>
  <speed>0.0</speed>
  <fix>3d</fix>
</trkpt>
<trkpt lat="-27.2744398" lon="151.2900637">
  <ele>343.09</ele>
  <time>2026-09-01T20:02:24Z</time>
  <course>18.2</course>
  <speed>0.0</speed>
  <fix>3d</fix>
</trkpt>
<trkpt lat="-27.2744398" lon="151.2900637">
  <ele>343.09</ele>
  <time>2026-09-01T20:02:24Z</time>
  <course>8.0</course>
  <speed>0.0</speed>
  <fix>3d</fix>
</trkpt>
<trkpt lat="-27.2744398" lon="151.2900637">
  <ele>343.09</ele>
  <time>2026-09-01T20:02:24Z</time>
  <course>11.51</course>
  <speed>0.0</speed>
  <fix>3d</fix>
</trkpt>
<trkpt lat="-27.2744398" lon="151.2900637">
  <ele>343.09</ele>
  <time>2026-09-01T20:02:24Z</time>
  <course>8.0</course>
  <speed>0.0</speed>
  <fix>3d</fix>
</trkpt>
<trkpt lat="-27.2744398" lon="151.2900637">
  <ele>343.09</ele>
  <time>2026-09-01T20:02:24Z</time>
  <course>11.51</course>
  <speed>0.0</speed>
  <fix>3d</fix>
</trkpt>
<trkpt lat="-27.2744398" lon="151.2900637">
  <ele>343.09</ele>
  <time>2026-09-01T20:02:24Z</time>
  <course>8.0</course>
  <speed>0.0</speed>
  <fix>3d</fix>
</trkpt>
<trkpt lat="-27.2744398" lon="151.2900637">
  <ele>343.09</ele>
  <time>2026-09-01T20:02:24Z</time>
  <course>32.88</course>
  <speed>0.0</speed>
  <fix>3d</fix>
</trkpt>
<trkpt lat="-27.2744398" lon="151.2900637">
  <ele>343.09</ele>
  <time>2026-09-01T20:02:24Z</time>
  <course>8.0</course>
  <speed>0.0</speed>
  <fix>3d</fix>
</trkpt>
<trkpt lat="-27.2744398" lon="151.2900637">
  <ele>343.09</ele>
  <time>2026-09-01T20:02:24Z</time>
  <course>32.88</course>
  <speed>0.0</speed>
  <fix>3d</fix>
</trkpt>
<trkpt lat="-27.2744398" lon="151.2900637">
  <ele>343.09</ele>
  <time>2026-09-01T20:02:24Z</time>
  <course>8.0</course>
  <speed>0.0</speed>
  <fix>3d</fix>
</trkpt>
<trkpt lat="-27.2744398" lon="151.2900637">
  <ele>343.09</ele>
  <time>2026-09-01T20:02:24Z</time>
  <course>34.5</course>
  <speed>0.0</speed>
  <fix>3d</fix>
</trkpt>
<trkpt lat="-27.2744398" lon="151.2900637">
  <ele>343.09</ele>
  <time>2026-09-01T20:02:24Z</time>
  <course>8.0</course>
  <speed>0.0</speed>
  <fix>3d</fix>
</trkpt>
<trkpt lat="-27.2744398" lon="151.2900637">
  <ele>343.09</ele>
  <time>2026-09-01T20:02:24Z</time>
  <course>34.5</course>
  <speed>0.0</speed>
  <fix>3d</fix>
</trkpt>
<trkpt lat="-27.2744398" lon="151.2900637">
  <ele>343.09</ele>
  <time>2026-09-01T20:02:24Z</time>
  <course>8.0</course>
  <speed>0.0</speed>
  <fix>3d</fix>
</trkpt>
<trkpt lat="-27.2744398" lon="151.2900637">
  <ele>343.09</ele>
  <time>2026-09-01T20:02:24Z</time>
  <course>331.81</course>
  <speed>0.0</speed>
  <fix>3d</fix>
</trkpt>
<trkpt lat="-27.2744398" lon="151.2900637">
  <ele>343.09</ele>
  <time>2026-09-01T20:02:24Z</time>
  <course>8.0</course>
  <speed>0.0</speed>
  <fix>3d</fix>
</trkpt>
<trkpt lat="-27.2744398" lon="151.2900637">
  <ele>343.09</ele>
  <time>2026-09-01T20:02:24Z</time>
  <course>331.81</course>
  <speed>0.0</speed>
  <fix>3d</fix>
</trkpt>
<trkpt lat="-27.2744398" lon="151.2900637">
  <ele>343.09</ele>
  <time>2026-09-01T20:02:24Z</time>
  <course>8.0</course>
  <speed>0.0</speed>
  <fix>3d</fix>
</trkpt>
<trkpt lat="-27.2744398" lon="151.2900637">
  <ele>343.09</ele>
  <time>2026-09-01T20:02:24Z</time>
  <course>322.21</course>
  <speed>0.0</speed>
  <fix>3d</fix>
</trkpt>
<trkpt lat="-27.2744398" lon="151.2900637">
  <ele>343.09</ele>
  <time>2026-09-01T20:02:24Z</time>
  <course>8.0</course>
  <speed>0.0</speed>
  <fix>3d</fix>
</trkpt>
<trkpt lat="-27.2744398" lon="151.2900637">
  <ele>343.09</ele>
  <time>2026-09-01T20:02:24Z</time>
  <course>322.21</course>
  <speed>0.0</speed>
  <fix>3d</fix>
</trkpt>
<trkpt lat="-27.2744398" lon="151.2900637">
  <ele>343.09</ele>
  <time>2026-09-01T20:02:24Z</time>
  <course>8.0</course>
  <speed>0.0</speed>
  <fix>3d</fix>
</trkpt>
<trkpt lat="-27.2744398" lon="151.2900637">
  <ele>343.09</ele>
  <time>2026-09-01T20:02:24Z</time>
  <course>142.83</course>
  <speed>0.0</speed>
  <fix>3d</fix>
</trkpt>
<trkpt lat="-27.2744398" lon="151.2900637">
  <ele>343.09</ele>
  <time>2026-09-01T20:02:24Z</time>
  <course>8.0</course>
  <speed>0.0</speed>
  <fix>3d</fix>
</trkpt>
<trkpt lat="-27.2744398" lon="151.2900637">
  <ele>343.09</ele>
  <time>2026-09-01T20:02:24Z</time>
  <course>142.83</course>
  <speed>0.0</speed>
  <fix>3d</fix>
</trkpt>
<trkpt lat="-27.2744398" lon="151.2900637">
  <ele>343.09</ele>
  <time>2026-09-01T20:02:24Z</time>
  <course>8.0</course>
  <speed>0.0</speed>
  <fix>3d</fix>
</trkpt>
<trkpt lat="-27.2744398" lon="151.2900637">
  <ele>343.09</ele>
  <time>2026-09-01T20:02:24Z</time>
  <course>141.19</course>
  <speed>0.0</speed>
  <fix>3d</fix>
</trkpt>
<trkpt lat="-27.2744398" lon="151.2900637">
  <ele>343.09</ele>
  <time>2026-09-01T20:02:24Z</time>
  <course>8.0</course>
  <speed>0.0</speed>
  <fix>3d</fix>
</trkpt>
<trkpt lat="-27.2744398" lon="151.2900637">
  <ele>343.09</ele>
  <time>2026-09-01T20:02:24Z</time>
  <course>141.19</course>
  <speed>0.0</speed>
  <fix>3d</fix>
</trkpt>
<trkpt lat="-27.2744398" lon="151.2900637">
  <ele>343.09</ele>
  <time>2026-09-01T20:02:24Z</time>
  <course>8.0</course>
  <speed>0.0</speed>
  <fix>3d</fix>
</trkpt>
<trkpt lat="-27.2744398" lon="151.2900637">
  <ele>343.09</ele>
  <time>2026-09-01T20:02:24Z</time>
  <course>329.89</course>
  <speed>0.0</speed>
  <fix>3d</fix>
</trkpt>
<trkpt lat="-27.2744398" lon="151.2900637">
  <ele>343.09</ele>
  <time>2026-09-01T20:02:24Z</time>
  <course>8.0</course>
  <speed>0.0</speed>
  <fix>3d</fix>
</trkpt>
<trkpt lat="-27.2744398" lon="151.2900637">
  <ele>343.09</ele>
  <time>2026-09-01T20:02:24Z</time>
  <course>329.89</course>
  <speed>0.0</speed>
  <fix>3d</fix>
</trkpt>
<trkpt lat="-27.2744398" lon="151.2900637">
  <ele>343.09</ele>
  <time>2026-09-01T20:02:24Z</time>
  <course>8.0</course>
  <speed>0.0</speed>
  <fix>3d</fix>
</trkpt>
<trkpt lat="-27.2744398" lon="151.2900637">
  <ele>343.09</ele>
  <time>2026-09-01T20:02:24Z</time>
  <course>329.51</course>
  <speed>0.0</speed>
  <fix>3d</fix>
</trkpt>
<trkpt lat="-27.2744398" lon="151.2900637">
  <ele>343.09</ele>
  <time>2026-09-01T20:02:24Z</time>
  <course>8.0</course>
  <speed>0.0</speed>
  <fix>3d</fix>
</trkpt>
<trkpt lat="-27.2744398" lon="151.2900637">
  <ele>343.09</ele>
  <time>2026-09-01T20:02:24Z</time>
  <course>329.51</course>
  <speed>0.0</speed>
  <fix>3d</fix>
</trkpt>
<trkpt lat="-27.2744398" lon="151.2900637">
  <ele>343.09</ele>
  <time>2026-09-01T20:02:24Z</time>
  <course>8.0</course>
  <speed>0.0</speed>
  <fix>3d</fix>
</trkpt>
<trkpt lat="-27.2744398" lon="151.2900637">
  <ele>343.09</ele>
  <time>2026-09-01T20:02:24Z</time>
  <course>94.94</course>
  <speed>0.0</speed>
  <fix>3d</fix>
</trkpt>
<trkpt lat="-27.2744398" lon="151.2900637">
  <ele>343.09</ele>
  <time>2026-09-01T20:02:24Z</time>
  <course>8.0</course>
  <speed>0.0</speed>
  <fix>3d</fix>
</trkpt>
<trkpt lat="-27.2744398" lon="151.2900637">
  <ele>343.09</ele>
  <time>2026-09-01T20:02:24Z</time>
  <course>94.94</course>
  <speed>0.0</speed>
  <fix>3d</fix>
</trkpt>
<trkpt lat="-27.2744398" lon="151.2900637">
  <ele>343.09</ele>
  <time>2026-09-01T20:02:24Z</time>
  <course>8.0</course>
  <speed>0.0</speed>
  <fix>3d</fix>
</trkpt>
<trkpt lat="-27.2744398" lon="151.2900637">
  <ele>343.09</ele>
  <time>2026-09-01T20:02:24Z</time>
  <course>37.12</course>
  <speed>0.0</speed>
  <fix>3d</fix>
</trkpt>
<trkpt lat="-27.2744398" lon="151.2900637">
  <ele>343.09</ele>
  <time>2026-09-01T20:02:24Z</time>
  <course>8.0</course>
  <speed>0.0</speed>
  <fix>3d</fix>
</trkpt>
<trkpt lat="-27.2744398" lon="151.2900637">
  <ele>343.09</ele>
  <time>2026-09-01T20:02:24Z</time>
  <course>37.12</course>
  <speed>0.0</speed>
  <fix>3d</fix>
</trkpt>
<trkpt lat="-27.2744398" lon="151.2900637">
  <ele>343.09</ele>
  <time>2026-09-01T20:02:24Z</time>
  <course>8.0</course>
  <speed>0.0</speed>
  <fix>3d</fix>
</trkpt>
<trkpt lat="-27.2744398" lon="151.2900637">
  <ele>343.09</ele>
  <time>2026-09-01T20:02:24Z</time>
  <course>0.32</course>
  <speed>0.0</speed>
  <fix>3d</fix>
</trkpt>
<trkpt lat="-27.2744398" lon="151.2900637">
  <ele>343.09</ele>
  <time>2026-09-01T20:02:24Z</time>
  <course>8.0</course>
  <speed>0.0</speed>
  <fix>3d</fix>
</trkpt>
<trkpt lat="-27.2744398" lon="151.2900637">
  <ele>343.09</ele>
  <time>2026-09-01T20:02:24Z</time>
  <course>0.32</course>
  <speed>0.0</speed>
  <fix>3d</fix>
</trkpt>
<trkpt lat="-27.2744398" lon="151.2900637">
  <ele>343.09</ele>
  <time>2026-09-01T20:02:24Z</time>
  <course>8.0</course>
  <speed>0.0</speed>
  <fix>3d</fix>
</trkpt>
<trkpt lat="-27.2744398" lon="151.2900637">
  <ele>343.09</ele>
  <time>2026-09-01T20:02:24Z</time>
  <course>7.2</course>
  <speed>0.0</speed>
  <fix>3d</fix>
</trkpt>
<trkpt lat="-27.2744398" lon="151.2900637">
  <ele>343.09</ele>
  <time>2026-09-01T20:02:24Z</time>
  <course>8.0</course>
  <speed>0.0</speed>
  <fix>3d</fix>
</trkpt>
<trkpt lat="-27.2744398" lon="151.2900637">
  <ele>343.09</ele>
  <time>2026-09-01T20:02:24Z</time>
  <course>7.2</course>
  <speed>0.0</speed>
  <fix>3d</fix>
</trkpt>
<trkpt lat="-27.2744398" lon="151.2900637">
  <ele>343.09</ele>
  <time>2026-09-01T20:02:24Z</time>
  <course>8.0</course>
  <speed>0.0</speed>
  <fix>3d</fix>
</trkpt>
<trkpt lat="-27.2744398" lon="151.2900637">
  <ele>343.09</ele>
  <time>2026-09-01T20:02:24Z</time>
  <course>10.28</course>
  <speed>0.0</speed>
  <fix>3d</fix>
</trkpt>
<trkpt lat="-27.2744398" lon="151.2900637">
  <ele>343.09</ele>
  <time>2026-09-01T20:02:24Z</time>
  <course>8.0</course>
  <speed>0.0</speed>
  <fix>3d</fix>
</trkpt>
<trkpt lat="-27.2744398" lon="151.2900637">
  <ele>343.09</ele>
  <time>2026-09-01T20:02:24Z</time>
  <course>10.28</course>
  <speed>0.0</speed>
  <fix>3d</fix>
</trkpt>
<trkpt lat="-27.2744398" lon="151.2900637">
  <ele>343.09</ele>
  <time>2026-09-01T20:02:24Z</time>
  <course>8.0</course>
  <speed>0.0</speed>
  <fix>3d</fix>
</trkpt>
<trkpt lat="-27.2744398" lon="151.2900637">
  <ele>343.09</ele>
  <time>2026-09-01T20:02:24Z</time>
  <course>8.76</course>
  <speed>0.0</speed>
  <fix>3d</fix>
</trkpt>
<trkpt lat="-27.2744398" lon="151.2900637">
  <ele>343.09</ele>
  <time>2026-09-01T20:02:24Z</time>
  <course>8.0</course>
  <speed>0.0</speed>
  <fix>3d</fix>
</trkpt>
<trkpt lat="-27.2744398" lon="151.2900637">
  <ele>343.09</ele>
  <time>2026-09-01T20:02:24Z</time>
  <course>8.76</course>
  <speed>0.0</speed>
  <fix>3d</fix>
</trkpt>
<trkpt lat="-27.2744398" lon="151.2900637">
  <ele>343.09</ele>
  <time>2026-09-01T20:02:24Z</time>
  <course>8.0</course>
  <speed>0.0</speed>
  <fix>3d</fix>
</trkpt>
<trkpt lat="-27.2744398" lon="151.2900637">
  <ele>343.09</ele>
  <time>2026-09-01T20:02:24Z</time>
  <course>8.52</course>
  <speed>0.0</speed>
  <fix>3d</fix>
</trkpt>
<trkpt lat="-27.2744398" lon="151.2900637">
  <ele>343.09</ele>
  <time>2026-09-01T20:02:24Z</time>
  <course>8.0</course>
  <speed>0.0</speed>
  <fix>3d</fix>
</trkpt>
<trkpt lat="-27.2744398" lon="151.2900637">
  <ele>343.09</ele>
  <time>2026-09-01T20:02:24Z</time>
  <course>8.52</course>
  <speed>0.0</speed>
  <fix>3d</fix>
</trkpt>
<trkpt lat="-27.2744398" lon="151.2900637">
  <ele>343.09</ele>
  <time>2026-09-01T20:02:24Z</time>
  <course>8.0</course>
  <speed>0.0</speed>
  <fix>3d</fix>
</trkpt>
<trkpt lat="-27.2744398" lon="151.2900637">
  <ele>343.09</ele>
  <time>2026-09-01T20:02:24Z</time>
  <course>8.75</course>
  <speed>0.0</speed>
  <fix>3d</fix>
</trkpt>
<trkpt lat="-27.2744398" lon="151.2900637">
  <ele>343.09</ele>
  <time>2026-09-01T20:02:24Z</time>
  <course>8.0</course>
  <speed>0.0</speed>
  <fix>3d</fix>
</trkpt>
<trkpt lat="-27.2744398" lon="151.2900637">
  <ele>343.09</ele>
  <time>2026-09-01T20:02:24Z</time>
  <course>8.75</course>
  <speed>0.0</speed>
  <fix>3d</fix>
</trkpt>
<trkpt lat="-27.2744398" lon="151.2900637">
  <ele>343.09</ele>
  <time>2026-09-01T20:02:24Z</time>
  <course>8.0</course>
  <speed>0.0</speed>
  <fix>3d</fix>
</trkpt>
<trkpt lat="-27.2744398" lon="151.2900637">
  <ele>343.09</ele>
  <time>2026-09-01T20:02:24Z</time>
  <course>8.73</course>
  <speed>0.0</speed>
  <fix>3d</fix>
</trkpt>
<trkpt lat="-27.2744398" lon="151.2900637">
  <ele>343.09</ele>
  <time>2026-09-01T20:02:24Z</time>
  <course>8.0</course>
  <speed>0.0</speed>
  <fix>3d</fix>
</trkpt>
<trkpt lat="-27.2744398" lon="151.2900637">
  <ele>343.09</ele>
  <time>2026-09-01T20:02:24Z</time>
  <course>8.73</course>
  <speed>0.0</speed>
  <fix>3d</fix>
</trkpt>
<trkpt lat="-27.2744398" lon="151.2900637">
  <ele>343.09</ele>
  <time>2026-09-01T20:02:24Z</time>
  <course>8.0</course>
  <speed>0.0</speed>
  <fix>3d</fix>
</trkpt>
<trkpt lat="-27.2744398" lon="151.2900637">
  <ele>343.09</ele>
  <time>2026-09-01T20:02:24Z</time>
  <course>8.73</course>
  <speed>0.0</speed>
  <fix>3d</fix>
</trkpt>
<trkpt lat="-27.2744398" lon="151.2900637">
  <ele>343.09</ele>
  <time>2026-09-01T20:02:24Z</time>
  <course>8.0</course>
  <speed>0.0</speed>
  <fix>3d</fix>
</trkpt>
<trkpt lat="-27.2744398" lon="151.2900637">
  <ele>343.09</ele>
  <time>2026-09-01T20:02:24Z</time>
  <course>8.73</course>
  <speed>0.0</speed>
  <fix>3d</fix>
</trkpt>
<trkpt lat="-27.2744398" lon="151.2900637">
  <ele>343.09</ele>
  <time>2026-09-01T20:02:24Z</time>
  <course>8.0</course>
  <speed>0.0</speed>
  <fix>3d</fix>
</trkpt>
<trkpt lat="-27.2744398" lon="151.2900637">
  <ele>343.09</ele>
  <time>2026-09-01T20:02:24Z</time>
  <course>8.73</course>
  <speed>0.0</speed>
  <fix>3d</fix>
</trkpt>
<trkpt lat="-27.2744398" lon="151.2900637">
  <ele>343.09</ele>
  <time>2026-09-01T20:02:24Z</time>
  <course>8.0</course>
  <speed>0.0</speed>
  <fix>3d</fix>
</trkpt>
<trkpt lat="-27.2744398" lon="151.2900637">
  <ele>343.09</ele>
  <time>2026-09-01T20:02:24Z</time>
  <course>8.73</course>
  <speed>0.0</speed>
  <fix>3d</fix>
</trkpt>
<trkpt lat="-27.2744398" lon="151.2900637">
  <ele>343.09</ele>
  <time>2026-09-01T20:02:24Z</time>
  <course>8.0</course>
  <speed>0.0</speed>
  <fix>3d</fix>
</trkpt>
<trkpt lat="-27.2744398" lon="151.2900637">
  <ele>343.09</ele>
  <time>2026-09-01T20:02:24Z</time>
  <course>188.73</course>
  <speed>0.0</speed>
  <fix>3d</fix>
</trkpt>
<trkpt lat="-27.2744398" lon="151.2900637">
  <ele>343.09</ele>
  <time>2026-09-01T20:02:24Z</time>
  <course>8.0</course>
  <speed>0.0</speed>
  <fix>3d</fix>
</trkpt>
<trkpt lat="-27.2744398" lon="151.2900637">
  <ele>343.09</ele>
  <time>2026-09-01T20:02:24Z</time>
  <course>188.73</course>
  <speed>0.0</speed>
  <fix>3d</fix>
</trkpt>
<trkpt lat="-27.2744398" lon="151.2900637">
  <ele>343.09</ele>
  <time>2026-09-01T20:02:24Z</time>
  <course>8.0</course>
  <speed>0.0</speed>
  <fix>3d</fix>
</trkpt>
<trkpt lat="-27.2744398" lon="151.2900637">
  <ele>343.09</ele>
  <time>2026-09-01T20:02:24Z</time>
  <course>8.73</course>
  <speed>0.0</speed>
  <fix>3d</fix>
</trkpt>
<trkpt lat="-27.2744398" lon="151.2900637">
  <ele>343.09</ele>
  <time>2026-09-01T20:02:24Z</time>
  <course>8.0</course>
  <speed>0.0</speed>
  <fix>3d</fix>
</trkpt>
<trkpt lat="-27.2744398" lon="151.2900637">
  <ele>343.09</ele>
  <time>2026-09-01T20:02:24Z</time>
  <course>8.73</course>
  <speed>0.0</speed>
  <fix>3d</fix>
</trkpt>
<trkpt lat="-27.2744398" lon="151.2900637">
  <ele>343.09</ele>
  <time>2026-09-01T20:02:24Z</time>
  <course>8.0</course>
  <speed>0.0</speed>
  <fix>3d</fix>
</trkpt>
<trkpt lat="-27.2744398" lon="151.2900637">
  <ele>343.09</ele>
  <time>2026-09-01T20:02:24Z</time>
  <course>8.73</course>
  <speed>0.0</speed>
  <fix>3d</fix>
</trkpt>
<trkpt lat="-27.2744398" lon="151.2900637">
  <ele>343.09</ele>
  <time>2026-09-01T20:02:24Z</time>
  <course>8.0</course>
  <speed>0.0</speed>
  <fix>3d</fix>
</trkpt>
<trkpt lat="-27.2744398" lon="151.2900637">
  <ele>343.09</ele>
  <time>2026-09-01T20:02:24Z</time>
  <course>8.73</course>
  <speed>0.0</speed>
  <fix>3d</fix>
</trkpt>
<trkpt lat="-27.2744398" lon="151.2900637">
  <ele>343.09</ele>
  <time>2026-09-01T20:02:24Z</time>
  <course>8.0</course>
  <speed>0.0</speed>
  <fix>3d</fix>
</trkpt>
<trkpt lat="-27.2744398" lon="151.2900637">
  <ele>343.09</ele>
  <time>2026-09-01T20:02:24Z</time>
  <course>188.73</course>
  <speed>0.0</speed>
  <fix>3d</fix>
</trkpt>
<trkpt lat="-27.2744398" lon="151.2900637">
  <ele>343.09</ele>
  <time>2026-09-01T20:02:24Z</time>
  <course>8.0</course>
  <speed>0.0</speed>
  <fix>3d</fix>
</trkpt>
<trkpt lat="-27.2744398" lon="151.2900637">
  <ele>343.09</ele>
  <time>2026-09-01T20:02:24Z</time>
  <course>188.73</course>
  <speed>0.0</speed>
  <fix>3d</fix>
</trkpt>
<trkpt lat="-27.2744398" lon="151.2900637">
  <ele>343.09</ele>
  <time>2026-09-01T20:02:24Z</time>
  <course>8.0</course>
  <speed>0.0</speed>
  <fix>3d</fix>
</trkpt>
<trkpt lat="-27.2744398" lon="151.2900637">
  <ele>343.09</ele>
  <time>2026-09-01T20:02:24Z</time>
  <course>188.73</course>
  <speed>0.0</speed>
  <fix>3d</fix>
</trkpt>
<trkpt lat="-27.2744398" lon="151.2900637">
  <ele>343.09</ele>
  <time>2026-09-01T20:02:24Z</time>
  <course>8.0</course>
  <speed>0.0</speed>
  <fix>3d</fix>
</trkpt>
<trkpt lat="-27.2744398" lon="151.2900637">
  <ele>343.09</ele>
  <time>2026-09-01T20:02:24Z</time>
  <course>188.73</course>
  <speed>0.0</speed>
  <fix>3d</fix>
</trkpt>
<trkpt lat="-27.2744398" lon="151.2900637">
  <ele>343.09</ele>
  <time>2026-09-01T20:02:24Z</time>
  <course>8.0</course>
  <speed>0.0</speed>
  <fix>3d</fix>
</trkpt>
<trkpt lat="-27.2744398" lon="151.2900637">
  <ele>343.09</ele>
  <time>2026-09-01T20:02:24Z</time>
  <course>8.73</course>
  <speed>0.0</speed>
  <fix>3d</fix>
</trkpt>
<trkpt lat="-27.2744398" lon="151.2900637">
  <ele>343.09</ele>
  <time>2026-09-01T20:02:24Z</time>
  <course>8.0</course>
  <speed>0.0</speed>
  <fix>3d</fix>
</trkpt>
<trkpt lat="-27.2744398" lon="151.2900637">
  <ele>343.09</ele>
  <time>2026-09-01T20:02:24Z</time>
  <course>8.73</course>
  <speed>0.0</speed>
  <fix>3d</fix>
</trkpt>
<trkpt lat="-27.2744398" lon="151.2900637">
  <ele>343.09</ele>
  <time>2026-09-01T20:02:24Z</time>
  <course>8.0</course>
  <speed>0.0</speed>
  <fix>3d</fix>
</trkpt>
<trkpt lat="-27.2744398" lon="151.2900637">
  <ele>343.09</ele>
  <time>2026-09-01T20:02:24Z</time>
  <course>8.73</course>
  <speed>0.0</speed>
  <fix>3d</fix>
</trkpt>
<trkpt lat="-27.2744398" lon="151.2900637">
  <ele>343.09</ele>
  <time>2026-09-01T20:02:24Z</time>
  <course>8.0</course>
  <speed>0.0</speed>
  <fix>3d</fix>
</trkpt>
<trkpt lat="-27.2744398" lon="151.2900637">
  <ele>343.09</ele>
  <time>2026-09-01T20:02:24Z</time>
  <course>8.73</course>
  <speed>0.0</speed>
  <fix>3d</fix>
</trkpt>
<trkpt lat="-27.2744398" lon="151.2900637">
  <ele>343.09</ele>
  <time>2026-09-01T20:02:24Z</time>
  <course>8.0</course>
  <speed>0.0</speed>
  <fix>3d</fix>
</trkpt>
<trkpt lat="-27.2744398" lon="151.2900637">
  <ele>343.09</ele>
  <time>2026-09-01T20:02:24Z</time>
  <course>188.73</course>
  <speed>0.0</speed>
  <fix>3d</fix>
</trkpt>
<trkpt lat="-27.2744398" lon="151.2900637">
  <ele>343.09</ele>
  <time>2026-09-01T20:02:24Z</time>
  <course>8.0</course>
  <speed>0.0</speed>
  <fix>3d</fix>
</trkpt>
<trkpt lat="-27.2744398" lon="151.2900637">
  <ele>343.09</ele>
  <time>2026-09-01T20:02:24Z</time>
  <course>188.73</course>
  <speed>0.0</speed>
  <fix>3d</fix>
</trkpt>
<trkpt lat="-27.2744398" lon="151.2900637">
  <ele>343.09</ele>
  <time>2026-09-01T20:02:24Z</time>
  <course>8.0</course>
  <speed>0.0</speed>
  <fix>3d</fix>
</trkpt>
<trkpt lat="-27.2744398" lon="151.2900637">
  <ele>343.09</ele>
  <time>2026-09-01T20:02:24Z</time>
  <course>188.73</course>
  <speed>0.0</speed>
  <fix>3d</fix>
</trkpt>
<trkpt lat="-27.2744398" lon="151.2900637">
  <ele>343.09</ele>
  <time>2026-09-01T20:02:24Z</time>
  <course>8.0</course>
  <speed>0.0</speed>
  <fix>3d</fix>
</trkpt>
<trkpt lat="-27.2744398" lon="151.2900637">
  <ele>343.09</ele>
  <time>2026-09-01T20:02:24Z</time>
  <course>188.73</course>
  <speed>0.0</speed>
  <fix>3d</fix>
</trkpt>
<trkpt lat="-27.2744398" lon="151.2900637">
  <ele>343.09</ele>
  <time>2026-09-01T20:02:24Z</time>
  <course>8.0</course>
  <speed>0.0</speed>
  <fix>3d</fix>
</trkpt>
<trkpt lat="-27.2744398" lon="151.2900637">
  <ele>343.09</ele>
  <time>2026-09-01T20:02:24Z</time>
  <course>8.73</course>
  <speed>0.0</speed>
  <fix>3d</fix>
</trkpt>
<trkpt lat="-27.2744398" lon="151.2900637">
  <ele>343.09</ele>
  <time>2026-09-01T20:02:24Z</time>
  <course>8.0</course>
  <speed>0.0</speed>
  <fix>3d</fix>
</trkpt>
<trkpt lat="-27.2744398" lon="151.2900637">
  <ele>343.09</ele>
  <time>2026-09-01T20:02:24Z</time>
  <course>8.73</course>
  <speed>0.0</speed>
  <fix>3d</fix>
</trkpt>
<trkpt lat="-27.2744398" lon="151.2900637">
  <ele>343.09</ele>
  <time>2026-09-01T20:02:24Z</time>
  <course>8.0</course>
  <speed>0.0</speed>
  <fix>3d</fix>
</trkpt>
<trkpt lat="-27.2744398" lon="151.2900637">
  <ele>343.09</ele>
  <time>2026-09-01T20:02:24Z</time>
  <course>188.68</course>
  <speed>0.0</speed>
  <fix>3d</fix>
</trkpt>
<trkpt lat="-27.2744398" lon="151.2900637">
  <ele>343.09</ele>
  <time>2026-09-01T20:02:24Z</time>
  <course>8.0</course>
  <speed>0.0</speed>
  <fix>3d</fix>
</trkpt>
<trkpt lat="-27.2744398" lon="151.2900637">
  <ele>343.09</ele>
  <time>2026-09-01T20:02:24Z</time>
  <course>188.68</course>
  <speed>0.0</speed>
  <fix>3d</fix>
</trkpt>
<trkpt lat="-27.2744398" lon="151.2900637">
  <ele>343.09</ele>
  <time>2026-09-01T20:02:24Z</time>
  <course>8.0</course>
  <speed>0.0</speed>
  <fix>3d</fix>
</trkpt>
<trkpt lat="-27.2744398" lon="151.2900637">
  <ele>343.09</ele>
  <time>2026-09-01T20:02:24Z</time>
  <course>188.72</course>
  <speed>0.0</speed>
  <fix>3d</fix>
</trkpt>
<trkpt lat="-27.2744398" lon="151.2900637">
  <ele>343.09</ele>
  <time>2026-09-01T20:02:24Z</time>
  <course>8.0</course>
  <speed>0.0</speed>
  <fix>3d</fix>
</trkpt>
<trkpt lat="-27.2744398" lon="151.2900637">
  <ele>343.09</ele>
  <time>2026-09-01T20:02:24Z</time>
  <course>188.72</course>
  <speed>0.0</speed>
  <fix>3d</fix>
</trkpt>
<trkpt lat="-27.2744398" lon="151.2900637">
  <ele>343.09</ele>
  <time>2026-09-01T20:02:24Z</time>
  <course>8.0</course>
  <speed>0.0</speed>
  <fix>3d</fix>
</trkpt>
<trkpt lat="-27.2744398" lon="151.2900637">
  <ele>343.09</ele>
  <time>2026-09-01T20:02:24Z</time>
  <course>8.77</course>
  <speed>0.0</speed>
  <fix>3d</fix>
</trkpt>
<trkpt lat="-27.2744398" lon="151.2900637">
  <ele>343.09</ele>
  <time>2026-09-01T20:02:24Z</time>
  <course>8.0</course>
  <speed>0.0</speed>
  <fix>3d</fix>
</trkpt>
<trkpt lat="-27.2744398" lon="151.2900637">
  <ele>343.09</ele>
  <time>2026-09-01T20:02:24Z</time>
  <course>8.77</course>
  <speed>0.0</speed>
  <fix>3d</fix>
</trkpt>
<trkpt lat="-27.2744398" lon="151.2900637">
  <ele>343.09</ele>
  <time>2026-09-01T20:02:24Z</time>
  <course>8.0</course>
  <speed>0.0</speed>
  <fix>3d</fix>
</trkpt>
<trkpt lat="-27.2744398" lon="151.2900637">
  <ele>343.09</ele>
  <time>2026-09-01T20:02:24Z</time>
  <course>8.78</course>
  <speed>0.0</speed>
  <fix>3d</fix>
</trkpt>
<trkpt lat="-27.2744398" lon="151.2900637">
  <ele>343.09</ele>
  <time>2026-09-01T20:02:24Z</time>
  <course>8.0</course>
  <speed>0.0</speed>
  <fix>3d</fix>
</trkpt>
<trkpt lat="-27.2744398" lon="151.2900637">
  <ele>343.09</ele>
  <time>2026-09-01T20:02:24Z</time>
  <course>8.78</course>
  <speed>0.0</speed>
  <fix>3d</fix>
</trkpt>
<trkpt lat="-27.2744398" lon="151.2900637">
  <ele>343.09</ele>
  <time>2026-09-01T20:02:24Z</time>
  <course>8.0</course>
  <speed>0.0</speed>
  <fix>3d</fix>
</trkpt>
<trkpt lat="-27.2744398" lon="151.2900637">
  <ele>343.09</ele>
  <time>2026-09-01T20:02:24Z</time>
  <course>188.52</course>
  <speed>0.0</speed>
  <fix>3d</fix>
</trkpt>
<trkpt lat="-27.2744398" lon="151.2900637">
  <ele>343.09</ele>
  <time>2026-09-01T20:02:24Z</time>
  <course>8.0</course>
  <speed>0.0</speed>
  <fix>3d</fix>
</trkpt>
<trkpt lat="-27.2744398" lon="151.2900637">
  <ele>343.09</ele>
  <time>2026-09-01T20:02:24Z</time>
  <course>188.52</course>
  <speed>0.0</speed>
  <fix>3d</fix>
</trkpt>
<trkpt lat="-27.2744398" lon="151.2900637">
  <ele>343.09</ele>
  <time>2026-09-01T20:02:24Z</time>
  <course>8.0</course>
  <speed>0.0</speed>
  <fix>3d</fix>
</trkpt>
<trkpt lat="-27.2744398" lon="151.2900637">
  <ele>343.09</ele>
  <time>2026-09-01T20:02:24Z</time>
  <course>188.11</course>
  <speed>0.0</speed>
  <fix>3d</fix>
</trkpt>
<trkpt lat="-27.2744398" lon="151.2900637">
  <ele>343.09</ele>
  <time>2026-09-01T20:02:24Z</time>
  <course>8.0</course>
  <speed>0.0</speed>
  <fix>3d</fix>
</trkpt>
<trkpt lat="-27.2744398" lon="151.2900637">
  <ele>343.09</ele>
  <time>2026-09-01T20:02:24Z</time>
  <course>188.11</course>
  <speed>0.0</speed>
  <fix>3d</fix>
</trkpt>
<trkpt lat="-27.2744398" lon="151.2900637">
  <ele>343.09</ele>
  <time>2026-09-01T20:02:24Z</time>
  <course>8.0</course>
  <speed>0.0</speed>
  <fix>3d</fix>
</trkpt>
<trkpt lat="-27.2744398" lon="151.2900637">
  <ele>343.09</ele>
  <time>2026-09-01T20:02:24Z</time>
  <course>9.57</course>
  <speed>0.0</speed>
  <fix>3d</fix>
</trkpt>
<trkpt lat="-27.2744398" lon="151.2900637">
  <ele>343.09</ele>
  <time>2026-09-01T20:02:24Z</time>
  <course>8.0</course>
  <speed>0.0</speed>
  <fix>3d</fix>
</trkpt>
<trkpt lat="-27.2744398" lon="151.2900637">
  <ele>343.09</ele>
  <time>2026-09-01T20:02:24Z</time>
  <course>9.57</course>
  <speed>0.0</speed>
  <fix>3d</fix>
</trkpt>
<trkpt lat="-27.2744398" lon="151.2900637">
  <ele>343.09</ele>
  <time>2026-09-01T20:02:24Z</time>
  <course>8.0</course>
  <speed>0.0</speed>
  <fix>3d</fix>
</trkpt>
<trkpt lat="-27.2744398" lon="151.2900637">
  <ele>343.09</ele>
  <time>2026-09-01T20:02:24Z</time>
  <course>11.63</course>
  <speed>0.0</speed>
  <fix>3d</fix>
</trkpt>
<trkpt lat="-27.2744398" lon="151.2900637">
  <ele>343.09</ele>
  <time>2026-09-01T20:02:24Z</time>
  <course>8.0</course>
  <speed>0.0</speed>
  <fix>3d</fix>
</trkpt>
<trkpt lat="-27.2744398" lon="151.2900637">
  <ele>343.09</ele>
  <time>2026-09-01T20:02:24Z</time>
  <course>11.63</course>
  <speed>0.0</speed>
  <fix>3d</fix>
</trkpt>
<trkpt lat="-27.2744398" lon="151.2900637">
  <ele>343.09</ele>
  <time>2026-09-01T20:02:24Z</time>
  <course>8.0</course>
  <speed>0.0</speed>
  <fix>3d</fix>
</trkpt>
<trkpt lat="-27.2744398" lon="151.2900637">
  <ele>343.09</ele>
  <time>2026-09-01T20:02:24Z</time>
  <course>29.97</course>
  <speed>0.0</speed>
  <fix>3d</fix>
</trkpt>
<trkpt lat="-27.2744398" lon="151.2900637">
  <ele>343.09</ele>
  <time>2026-09-01T20:02:24Z</time>
  <course>8.0</course>
  <speed>0.0</speed>
  <fix>3d</fix>
</trkpt>
<trkpt lat="-27.2744398" lon="151.2900637">
  <ele>343.09</ele>
  <time>2026-09-01T20:02:24Z</time>
  <course>29.97</course>
  <speed>0.0</speed>
  <fix>3d</fix>
</trkpt>
<trkpt lat="-27.2744398" lon="151.2900637">
  <ele>343.09</ele>
  <time>2026-09-01T20:02:24Z</time>
  <course>8.0</course>
  <speed>0.0</speed>
  <fix>3d</fix>
</trkpt>
<trkpt lat="-27.2744398" lon="151.2900637">
  <ele>343.09</ele>
  <time>2026-09-01T20:02:24Z</time>
  <course>13.96</course>
  <speed>0.0</speed>
  <fix>3d</fix>
</trkpt>
<trkpt lat="-27.2744398" lon="151.2900637">
  <ele>343.09</ele>
  <time>2026-09-01T20:02:24Z</time>
  <course>8.0</course>
  <speed>0.0</speed>
  <fix>3d</fix>
</trkpt>
<trkpt lat="-27.2744398" lon="151.2900637">
  <ele>343.09</ele>
  <time>2026-09-01T20:02:24Z</time>
  <course>13.96</course>
  <speed>0.0</speed>
  <fix>3d</fix>
</trkpt>
<trkpt lat="-27.2744398" lon="151.2900637">
  <ele>343.09</ele>
  <time>2026-09-01T20:02:24Z</time>
  <course>8.0</course>
  <speed>0.0</speed>
  <fix>3d</fix>
</trkpt>
<trkpt lat="-27.2744398" lon="151.2900637">
  <ele>343.09</ele>
  <time>2026-09-01T20:02:24Z</time>
  <course>13.5</course>
  <speed>0.0</speed>
  <fix>3d</fix>
</trkpt>
<trkpt lat="-27.2744398" lon="151.2900637">
  <ele>343.09</ele>
  <time>2026-09-01T20:02:24Z</time>
  <course>8.0</course>
  <speed>0.0</speed>
  <fix>3d</fix>
</trkpt>
<trkpt lat="-27.2744398" lon="151.2900637">
  <ele>343.09</ele>
  <time>2026-09-01T20:02:24Z</time>
  <course>13.5</course>
  <speed>0.0</speed>
  <fix>3d</fix>
</trkpt>
<trkpt lat="-27.2744398" lon="151.2900637">
  <ele>343.09</ele>
  <time>2026-09-01T20:02:24Z</time>
  <course>8.0</course>
  <speed>0.0</speed>
  <fix>3d</fix>
</trkpt>
<trkpt lat="-27.2744398" lon="151.2900637">
  <ele>343.09</ele>
  <time>2026-09-01T20:02:24Z</time>
  <course>14.94</course>
  <speed>0.0</speed>
  <fix>3d</fix>
</trkpt>
<trkpt lat="-27.2744398" lon="151.2900637">
  <ele>343.09</ele>
  <time>2026-09-01T20:02:24Z</time>
  <course>8.0</course>
  <speed>0.0</speed>
  <fix>3d</fix>
</trkpt>
<trkpt lat="-27.2744398" lon="151.2900637">
  <ele>343.09</ele>
  <time>2026-09-01T20:02:24Z</time>
  <course>14.94</course>
  <speed>0.0</speed>
  <fix>3d</fix>
</trkpt>
<trkpt lat="-27.2744398" lon="151.2900637">
  <ele>343.09</ele>
  <time>2026-09-01T20:02:24Z</time>
  <course>8.0</course>
  <speed>0.0</speed>
  <fix>3d</fix>
</trkpt>
<trkpt lat="-27.2744398" lon="151.2900637">
  <ele>343.09</ele>
  <time>2026-09-01T20:02:24Z</time>
  <course>15.19</course>
  <speed>0.0</speed>
  <fix>3d</fix>
</trkpt>
<trkpt lat="-27.2744398" lon="151.2900637">
  <ele>343.09</ele>
  <time>2026-09-01T20:02:24Z</time>
  <course>8.0</course>
  <speed>0.0</speed>
  <fix>3d</fix>
</trkpt>
<trkpt lat="-27.2744398" lon="151.2900637">
  <ele>343.09</ele>
  <time>2026-09-01T20:02:24Z</time>
  <course>15.19</course>
  <speed>0.0</speed>
  <fix>3d</fix>
</trkpt>
<trkpt lat="-27.2744398" lon="151.2900637">
  <ele>343.09</ele>
  <time>2026-09-01T20:02:24Z</time>
  <course>8.0</course>
  <speed>0.0</speed>
  <fix>3d</fix>
</trkpt>
<trkpt lat="-27.2744398" lon="151.2900637">
  <ele>343.09</ele>
  <time>2026-09-01T20:02:24Z</time>
  <course>15.22</course>
  <speed>0.0</speed>
  <fix>3d</fix>
</trkpt>
<trkpt lat="-27.2744398" lon="151.2900637">
  <ele>343.09</ele>
  <time>2026-09-01T20:02:24Z</time>
  <course>8.0</course>
  <speed>0.0</speed>
  <fix>3d</fix>
</trkpt>
<trkpt lat="-27.2744398" lon="151.2900637">
  <ele>343.09</ele>
  <time>2026-09-01T20:02:24Z</time>
  <course>15.22</course>
  <speed>0.0</speed>
  <fix>3d</fix>
</trkpt>
<trkpt lat="-27.2744398" lon="151.2900637">
  <ele>343.09</ele>
  <time>2026-09-01T20:02:24Z</time>
  <course>8.0</course>
  <speed>0.0</speed>
  <fix>3d</fix>
</trkpt>
<trkpt lat="-27.2744398" lon="151.2900637">
  <ele>343.09</ele>
  <time>2026-09-01T20:02:24Z</time>
  <course>15.23</course>
  <speed>0.0</speed>
  <fix>3d</fix>
</trkpt>
<trkpt lat="-27.2744398" lon="151.2900637">
  <ele>343.09</ele>
  <time>2026-09-01T20:02:24Z</time>
  <course>8.0</course>
  <speed>0.0</speed>
  <fix>3d</fix>
</trkpt>
<trkpt lat="-27.2744398" lon="151.2900637">
  <ele>343.09</ele>
  <time>2026-09-01T20:02:24Z</time>
  <course>15.23</course>
  <speed>0.0</speed>
  <fix>3d</fix>
</trkpt>
<trkpt lat="-27.2744398" lon="151.2900637">
  <ele>343.09</ele>
  <time>2026-09-01T20:02:24Z</time>
  <course>8.0</course>
  <speed>0.0</speed>
  <fix>3d</fix>
</trkpt>
<trkpt lat="-27.2744398" lon="151.2900637">
  <ele>343.09</ele>
  <time>2026-09-01T20:02:24Z</time>
  <course>15.23</course>
  <speed>0.0</speed>
  <fix>3d</fix>
</trkpt>
<trkpt lat="-27.2744398" lon="151.2900637">
  <ele>343.09</ele>
  <time>2026-09-01T20:02:24Z</time>
  <course>8.0</course>
  <speed>0.0</speed>
  <fix>3d</fix>
</trkpt>
<trkpt lat="-27.2744398" lon="151.2900637">
  <ele>343.09</ele>
  <time>2026-09-01T20:02:24Z</time>
  <course>15.23</course>
  <speed>0.0</speed>
  <fix>3d</fix>
</trkpt>
<trkpt lat="-27.2744398" lon="151.2900637">
  <ele>343.09</ele>
  <time>2026-09-01T20:02:24Z</time>
  <course>8.0</course>
  <speed>0.0</speed>
  <fix>3d</fix>
</trkpt>
<trkpt lat="-27.2744398" lon="151.2900637">
  <ele>343.09</ele>
  <time>2026-09-01T20:02:24Z</time>
  <course>15.23</course>
  <speed>0.0</speed>
  <fix>3d</fix>
</trkpt>
<trkpt lat="-27.2744398" lon="151.2900637">
  <ele>343.09</ele>
  <time>2026-09-01T20:02:24Z</time>
  <course>8.0</course>
  <speed>0.0</speed>
  <fix>3d</fix>
</trkpt>
<trkpt lat="-27.2744398" lon="151.2900637">
  <ele>343.09</ele>
  <time>2026-09-01T20:02:24Z</time>
  <course>15.23</course>
  <speed>0.0</speed>
  <fix>3d</fix>
</trkpt>
<trkpt lat="-27.2744398" lon="151.2900637">
  <ele>343.09</ele>
  <time>2026-09-01T20:02:24Z</time>
  <course>8.0</course>
  <speed>0.0</speed>
  <fix>3d</fix>
</trkpt>
<trkpt lat="-27.2744398" lon="151.2900637">
  <ele>343.09</ele>
  <time>2026-09-01T20:02:24Z</time>
  <course>15.23</course>
  <speed>0.0</speed>
  <fix>3d</fix>
</trkpt>
<trkpt lat="-27.2744398" lon="151.2900637">
  <ele>343.09</ele>
  <time>2026-09-01T20:02:24Z</time>
  <course>8.0</course>
  <speed>0.0</speed>
  <fix>3d</fix>
</trkpt>
<trkpt lat="-27.2744398" lon="151.2900637">
  <ele>343.09</ele>
  <time>2026-09-01T20:02:24Z</time>
  <course>15.23</course>
  <speed>0.0</speed>
  <fix>3d</fix>
</trkpt>
<trkpt lat="-27.2744398" lon="151.2900637">
  <ele>343.09</ele>
  <time>2026-09-01T20:02:24Z</time>
  <course>8.0</course>
  <speed>0.0</speed>
  <fix>3d</fix>
</trkpt>
<trkpt lat="-27.2744398" lon="151.2900637">
  <ele>343.09</ele>
  <time>2026-09-01T20:02:24Z</time>
  <course>15.23</course>
  <speed>0.0</speed>
  <fix>3d</fix>
</trkpt>
<trkpt lat="-27.2744398" lon="151.2900637">
  <ele>343.09</ele>
  <time>2026-09-01T20:02:24Z</time>
  <course>8.0</course>
  <speed>0.0</speed>
  <fix>3d</fix>
</trkpt>
<trkpt lat="-27.2744398" lon="151.2900637">
  <ele>343.09</ele>
  <time>2026-09-01T20:02:24Z</time>
  <course>15.23</course>
  <speed>0.0</speed>
  <fix>3d</fix>
</trkpt>
<trkpt lat="-27.2744398" lon="151.2900637">
  <ele>343.09</ele>
  <time>2026-09-01T20:02:24Z</time>
  <course>8.0</course>
  <speed>0.0</speed>
  <fix>3d</fix>
</trkpt>
<trkpt lat="-27.2744398" lon="151.2900637">
  <ele>343.09</ele>
  <time>2026-09-01T20:02:24Z</time>
  <course>15.23</course>
  <speed>0.0</speed>
  <fix>3d</fix>
</trkpt>
<trkpt lat="-27.2744398" lon="151.2900637">
  <ele>343.09</ele>
  <time>2026-09-01T20:02:24Z</time>
  <course>8.0</course>
  <speed>0.0</speed>
  <fix>3d</fix>
</trkpt>
<trkpt lat="-27.2744398" lon="151.2900637">
  <ele>343.09</ele>
  <time>2026-09-01T20:02:24Z</time>
  <course>15.23</course>
  <speed>0.0</speed>
  <fix>3d</fix>
</trkpt>
<trkpt lat="-27.2744398" lon="151.2900637">
  <ele>343.09</ele>
  <time>2026-09-01T20:02:24Z</time>
  <course>8.0</course>
  <speed>0.0</speed>
  <fix>3d</fix>
</trkpt>
<trkpt lat="-27.2744398" lon="151.2900637">
  <ele>343.09</ele>
  <time>2026-09-01T20:02:24Z</time>
  <course>15.23</course>
  <speed>0.0</speed>
  <fix>3d</fix>
</trkpt>
<trkpt lat="-27.2744398" lon="151.2900637">
  <ele>343.09</ele>
  <time>2026-09-01T20:02:24Z</time>
  <course>8.0</course>
  <speed>0.0</speed>
  <fix>3d</fix>
</trkpt>
<trkpt lat="-27.2744398" lon="151.2900637">
  <ele>343.09</ele>
  <time>2026-09-01T20:02:24Z</time>
  <course>15.23</course>
  <speed>0.0</speed>
  <fix>3d</fix>
</trkpt>
<trkpt lat="-27.2744398" lon="151.2900637">
  <ele>343.09</ele>
  <time>2026-09-01T20:02:24Z</time>
  <course>8.0</course>
  <speed>0.0</speed>
  <fix>3d</fix>
</trkpt>
<trkpt lat="-27.2744398" lon="151.2900637">
  <ele>343.09</ele>
  <time>2026-09-01T20:02:24Z</time>
  <course>15.23</course>
  <speed>0.0</speed>
  <fix>3d</fix>
</trkpt>
<trkpt lat="-27.2744398" lon="151.2900637">
  <ele>343.09</ele>
  <time>2026-09-01T20:02:24Z</time>
  <course>8.0</course>
  <speed>0.0</speed>
  <fix>3d</fix>
</trkpt>
<trkpt lat="-27.2744398" lon="151.2900637">
  <ele>343.09</ele>
  <time>2026-09-01T20:02:24Z</time>
  <course>15.23</course>
  <speed>0.0</speed>
  <fix>3d</fix>
</trkpt>
<trkpt lat="-27.2744398" lon="151.2900637">
  <ele>343.09</ele>
  <time>2026-09-01T20:02:24Z</time>
  <course>8.0</course>
  <speed>0.0</speed>
  <fix>3d</fix>
</trkpt>
<trkpt lat="-27.2744398" lon="151.2900637">
  <ele>343.09</ele>
  <time>2026-09-01T20:02:24Z</time>
  <course>15.23</course>
  <speed>0.0</speed>
  <fix>3d</fix>
</trkpt>
<trkpt lat="-27.2744398" lon="151.2900637">
  <ele>343.09</ele>
  <time>2026-09-01T20:02:24Z</time>
  <course>8.0</course>
  <speed>0.0</speed>
  <fix>3d</fix>
</trkpt>
<trkpt lat="-27.2744398" lon="151.2900637">
  <ele>343.09</ele>
  <time>2026-09-01T20:02:24Z</time>
  <course>15.23</course>
  <speed>0.0</speed>
  <fix>3d</fix>
</trkpt>
<trkpt lat="-27.2744398" lon="151.2900637">
  <ele>343.09</ele>
  <time>2026-09-01T20:02:24Z</time>
  <course>8.0</course>
  <speed>0.0</speed>
  <fix>3d</fix>
</trkpt>
<trkpt lat="-27.2744398" lon="151.2900637">
  <ele>343.09</ele>
  <time>2026-09-01T20:02:24Z</time>
  <course>15.23</course>
  <speed>0.0</speed>
  <fix>3d</fix>
</trkpt>
<trkpt lat="-27.2744398" lon="151.2900637">
  <ele>343.09</ele>
  <time>2026-09-01T20:02:24Z</time>
  <course>8.0</course>
  <speed>0.0</speed>
  <fix>3d</fix>
</trkpt>
<trkpt lat="-27.2744398" lon="151.2900637">
  <ele>343.09</ele>
  <time>2026-09-01T20:02:24Z</time>
  <course>15.23</course>
  <speed>0.0</speed>
  <fix>3d</fix>
</trkpt>
<trkpt lat="-27.2744398" lon="151.2900637">
  <ele>343.09</ele>
  <time>2026-09-01T20:02:24Z</time>
  <course>8.0</course>
  <speed>0.0</speed>
  <fix>3d</fix>
</trkpt>
<trkpt lat="-27.2744398" lon="151.2900637">
  <ele>343.09</ele>
  <time>2026-09-01T20:02:24Z</time>
  <course>15.23</course>
  <speed>0.0</speed>
  <fix>3d</fix>
</trkpt>
<trkpt lat="-27.2744398" lon="151.2900637">
  <ele>343.09</ele>
  <time>2026-09-01T20:02:24Z</time>
  <course>8.0</course>
  <speed>0.0</speed>
  <fix>3d</fix>
</trkpt>
<trkpt lat="-27.2744398" lon="151.2900637">
  <ele>343.09</ele>
  <time>2026-09-01T20:02:24Z</time>
  <course>15.23</course>
  <speed>0.0</speed>
  <fix>3d</fix>
</trkpt>
<trkpt lat="-27.2744398" lon="151.2900637">
  <ele>343.09</ele>
  <time>2026-09-01T20:02:24Z</time>
  <course>8.0</course>
  <speed>0.0</speed>
  <fix>3d</fix>
</trkpt>
<trkpt lat="-27.2744398" lon="151.2900637">
  <ele>343.09</ele>
  <time>2026-09-01T20:02:24Z</time>
  <course>15.23</course>
  <speed>0.0</speed>
  <fix>3d</fix>
</trkpt>
<trkpt lat="-27.2744398" lon="151.2900637">
  <ele>343.09</ele>
  <time>2026-09-01T20:02:24Z</time>
  <course>8.0</course>
  <speed>0.0</speed>
  <fix>3d</fix>
</trkpt>
<trkpt lat="-27.2744398" lon="151.2900637">
  <ele>343.09</ele>
  <time>2026-09-01T20:02:24Z</time>
  <course>15.23</course>
  <speed>0.0</speed>
  <fix>3d</fix>
</trkpt>
<trkpt lat="-27.2744398" lon="151.2900637">
  <ele>343.09</ele>
  <time>2026-09-01T20:02:24Z</time>
  <course>8.0</course>
  <speed>0.0</speed>
  <fix>3d</fix>
</trkpt>
<trkpt lat="-27.2744398" lon="151.2900637">
  <ele>343.09</ele>
  <time>2026-09-01T20:02:24Z</time>
  <course>15.23</course>
  <speed>0.0</speed>
  <fix>3d</fix>
</trkpt>
<trkpt lat="-27.2744398" lon="151.2900637">
  <ele>343.09</ele>
  <time>2026-09-01T20:02:24Z</time>
  <course>8.0</course>
  <speed>0.0</speed>
  <fix>3d</fix>
</trkpt>
<trkpt lat="-27.2744398" lon="151.2900637">
  <ele>343.09</ele>
  <time>2026-09-01T20:02:24Z</time>
  <course>15.23</course>
  <speed>0.0</speed>
  <fix>3d</fix>
</trkpt>
<trkpt lat="-27.2744398" lon="151.2900637">
  <ele>343.09</ele>
  <time>2026-09-01T20:02:24Z</time>
  <course>8.0</course>
  <speed>0.0</speed>
  <fix>3d</fix>
</trkpt>
<trkpt lat="-27.2744398" lon="151.2900637">
  <ele>343.09</ele>
  <time>2026-09-01T20:02:24Z</time>
  <course>15.23</course>
  <speed>0.0</speed>
  <fix>3d</fix>
</trkpt>
<trkpt lat="-27.2744398" lon="151.2900637">
  <ele>343.09</ele>
  <time>2026-09-01T20:02:24Z</time>
  <course>8.0</course>
  <speed>0.0</speed>
  <fix>3d</fix>
</trkpt>
<trkpt lat="-27.2744398" lon="151.2900637">
  <ele>343.09</ele>
  <time>2026-09-01T20:02:24Z</time>
  <course>15.23</course>
  <speed>0.0</speed>
  <fix>3d</fix>
</trkpt>
<trkpt lat="-27.2744398" lon="151.2900637">
  <ele>343.09</ele>
  <time>2026-09-01T20:02:25Z</time>
  <course>8.0</course>
  <speed>0.0</speed>
  <fix>3d</fix>
</trkpt>
<trkpt lat="-27.2744398" lon="151.2900637">
  <ele>343.09</ele>
  <time>2026-09-01T20:02:25Z</time>
  <course>15.23</course>
  <speed>0.0</speed>
  <fix>3d</fix>
</trkpt>
<trkpt lat="-27.2744398" lon="151.2900637">
  <ele>343.09</ele>
  <time>2026-09-01T20:02:25Z</time>
  <course>8.0</course>
  <speed>0.0</speed>
  <fix>3d</fix>
</trkpt>
<trkpt lat="-27.2744398" lon="151.2900637">
  <ele>343.09</ele>
  <time>2026-09-01T20:02:25Z</time>
  <course>15.23</course>
  <speed>0.0</speed>
  <fix>3d</fix>
</trkpt>
<trkpt lat="-27.2744398" lon="151.2900637">
  <ele>343.09</ele>
  <time>2026-09-01T20:02:25Z</time>
  <course>8.0</course>
  <speed>0.0</speed>
  <fix>3d</fix>
</trkpt>
<trkpt lat="-27.2744398" lon="151.2900637">
  <ele>343.09</ele>
  <time>2026-09-01T20:02:25Z</time>
  <course>15.23</course>
  <speed>0.0</speed>
  <fix>3d</fix>
</trkpt>
<trkpt lat="-27.2744398" lon="151.2900637">
  <ele>343.09</ele>
  <time>2026-09-01T20:02:25Z</time>
  <course>8.0</course>
  <speed>0.0</speed>
  <fix>3d</fix>
</trkpt>
<trkpt lat="-27.2744398" lon="151.2900637">
  <ele>343.09</ele>
  <time>2026-09-01T20:02:25Z</time>
  <course>15.23</course>
  <speed>0.0</speed>
  <fix>3d</fix>
</trkpt>
<trkpt lat="-27.2744398" lon="151.2900637">
  <ele>343.09</ele>
  <time>2026-09-01T20:02:25Z</time>
  <course>8.0</course>
  <speed>0.0</speed>
  <fix>3d</fix>
</trkpt>
<trkpt lat="-27.2744398" lon="151.2900637">
  <ele>343.09</ele>
  <time>2026-09-01T20:02:25Z</time>
  <course>15.23</course>
  <speed>0.0</speed>
  <fix>3d</fix>
</trkpt>
<trkpt lat="-27.2744398" lon="151.2900637">
  <ele>343.09</ele>
  <time>2026-09-01T20:02:25Z</time>
  <course>8.0</course>
  <speed>0.0</speed>
  <fix>3d</fix>
</trkpt>
<trkpt lat="-27.2744398" lon="151.2900637">
  <ele>343.09</ele>
  <time>2026-09-01T20:02:25Z</time>
  <course>15.23</course>
  <speed>0.0</speed>
  <fix>3d</fix>
</trkpt>
<trkpt lat="-27.2744398" lon="151.2900637">
  <ele>343.09</ele>
  <time>2026-09-01T20:02:25Z</time>
  <course>8.0</course>
  <speed>0.0</speed>
  <fix>3d</fix>
</trkpt>
<trkpt lat="-27.2744398" lon="151.2900637">
  <ele>343.09</ele>
  <time>2026-09-01T20:02:25Z</time>
  <course>15.23</course>
  <speed>0.0</speed>
  <fix>3d</fix>
</trkpt>
<trkpt lat="-27.2744398" lon="151.2900637">
  <ele>343.09</ele>
  <time>2026-09-01T20:02:25Z</time>
  <course>8.0</course>
  <speed>0.0</speed>
  <fix>3d</fix>
</trkpt>
<trkpt lat="-27.2744398" lon="151.2900637">
  <ele>343.09</ele>
  <time>2026-09-01T20:02:25Z</time>
  <course>15.23</course>
  <speed>0.0</speed>
  <fix>3d</fix>
</trkpt>
<trkpt lat="-27.2744398" lon="151.2900637">
  <ele>343.09</ele>
  <time>2026-09-01T20:02:25Z</time>
  <course>8.0</course>
  <speed>0.0</speed>
  <fix>3d</fix>
</trkpt>
<trkpt lat="-27.2744398" lon="151.2900637">
  <ele>343.09</ele>
  <time>2026-09-01T20:02:25Z</time>
  <course>15.23</course>
  <speed>0.0</speed>
  <fix>3d</fix>
</trkpt>
<trkpt lat="-27.2744398" lon="151.2900637">
  <ele>343.09</ele>
  <time>2026-09-01T20:02:25Z</time>
  <course>8.0</course>
  <speed>0.0</speed>
  <fix>3d</fix>
</trkpt>
<trkpt lat="-27.2744398" lon="151.2900637">
  <ele>343.09</ele>
  <time>2026-09-01T20:02:25Z</time>
  <course>15.23</course>
  <speed>0.0</speed>
  <fix>3d</fix>
</trkpt>
<trkpt lat="-27.2744398" lon="151.2900637">
  <ele>343.09</ele>
  <time>2026-09-01T20:02:25Z</time>
  <course>8.0</course>
  <speed>0.0</speed>
  <fix>3d</fix>
</trkpt>
<trkpt lat="-27.2744398" lon="151.2900637">
  <ele>343.09</ele>
  <time>2026-09-01T20:02:25Z</time>
  <course>15.23</course>
  <speed>0.0</speed>
  <fix>3d</fix>
</trkpt>
<trkpt lat="-27.2744398" lon="151.2900637">
  <ele>343.09</ele>
  <time>2026-09-01T20:02:25Z</time>
  <course>8.0</course>
  <speed>0.0</speed>
  <fix>3d</fix>
</trkpt>
<trkpt lat="-27.2744398" lon="151.2900637">
  <ele>343.09</ele>
  <time>2026-09-01T20:02:25Z</time>
  <course>15.23</course>
  <speed>0.0</speed>
  <fix>3d</fix>
</trkpt>
<trkpt lat="-27.2744398" lon="151.2900637">
  <ele>343.09</ele>
  <time>2026-09-01T20:02:25Z</time>
  <course>8.0</course>
  <speed>0.0</speed>
  <fix>3d</fix>
</trkpt>
<trkpt lat="-27.2744398" lon="151.2900637">
  <ele>343.09</ele>
  <time>2026-09-01T20:02:25Z</time>
  <course>15.23</course>
  <speed>0.0</speed>
  <fix>3d</fix>
</trkpt>
<trkpt lat="-27.2744398" lon="151.2900637">
  <ele>343.09</ele>
  <time>2026-09-01T20:02:25Z</time>
  <course>8.0</course>
  <speed>0.0</speed>
  <fix>3d</fix>
</trkpt>
<trkpt lat="-27.2744398" lon="151.2900637">
  <ele>343.09</ele>
  <time>2026-09-01T20:02:25Z</time>
  <course>15.23</course>
  <speed>0.0</speed>
  <fix>3d</fix>
</trkpt>
<trkpt lat="-27.2744398" lon="151.2900637">
  <ele>343.09</ele>
  <time>2026-09-01T20:02:25Z</time>
  <course>8.0</course>
  <speed>0.0</speed>
  <fix>3d</fix>
</trkpt>
<trkpt lat="-27.2744398" lon="151.2900637">
  <ele>343.09</ele>
  <time>2026-09-01T20:02:25Z</time>
  <course>15.23</course>
  <speed>0.0</speed>
  <fix>3d</fix>
</trkpt>
<trkpt lat="-27.2744398" lon="151.2900637">
  <ele>343.09</ele>
  <time>2026-09-01T20:02:25Z</time>
  <course>8.0</course>
  <speed>0.0</speed>
  <fix>3d</fix>
</trkpt>
<trkpt lat="-27.2744398" lon="151.2900637">
  <ele>343.09</ele>
  <time>2026-09-01T20:02:25Z</time>
  <course>15.23</course>
  <speed>0.0</speed>
  <fix>3d</fix>
</trkpt>
<trkpt lat="-27.2744398" lon="151.2900637">
  <ele>343.09</ele>
  <time>2026-09-01T20:02:25Z</time>
  <course>8.0</course>
  <speed>0.0</speed>
  <fix>3d</fix>
</trkpt>
<trkpt lat="-27.2744398" lon="151.2900637">
  <ele>343.09</ele>
  <time>2026-09-01T20:02:25Z</time>
  <course>15.23</course>
  <speed>0.0</speed>
  <fix>3d</fix>
</trkpt>
<trkpt lat="-27.2744398" lon="151.2900637">
  <ele>343.09</ele>
  <time>2026-09-01T20:02:25Z</time>
  <course>8.0</course>
  <speed>0.0</speed>
  <fix>3d</fix>
</trkpt>
<trkpt lat="-27.2744398" lon="151.2900637">
  <ele>343.09</ele>
  <time>2026-09-01T20:02:25Z</time>
  <course>15.23</course>
  <speed>0.0</speed>
  <fix>3d</fix>
</trkpt>
<trkpt lat="-27.2744398" lon="151.2900637">
  <ele>343.09</ele>
  <time>2026-09-01T20:02:25Z</time>
  <course>8.0</course>
  <speed>0.0</speed>
  <fix>3d</fix>
</trkpt>
<trkpt lat="-27.2744398" lon="151.2900637">
  <ele>343.09</ele>
  <time>2026-09-01T20:02:25Z</time>
  <course>15.23</course>
  <speed>0.0</speed>
  <fix>3d</fix>
</trkpt>
<trkpt lat="-27.2744398" lon="151.2900637">
  <ele>343.09</ele>
  <time>2026-09-01T20:02:25Z</time>
  <course>8.0</course>
  <speed>0.0</speed>
  <fix>3d</fix>
</trkpt>
<trkpt lat="-27.2744398" lon="151.2900637">
  <ele>343.09</ele>
  <time>2026-09-01T20:02:25Z</time>
  <course>15.23</course>
  <speed>0.0</speed>
  <fix>3d</fix>
</trkpt>
<trkpt lat="-27.2744398" lon="151.2900637">
  <ele>343.09</ele>
  <time>2026-09-01T20:02:25Z</time>
  <course>8.0</course>
  <speed>0.0</speed>
  <fix>3d</fix>
</trkpt>
<trkpt lat="-27.2744398" lon="151.2900637">
  <ele>343.09</ele>
  <time>2026-09-01T20:02:25Z</time>
  <course>15.23</course>
  <speed>0.0</speed>
  <fix>3d</fix>
</trkpt>
<trkpt lat="-27.2744398" lon="151.2900637">
  <ele>343.09</ele>
  <time>2026-09-01T20:02:25Z</time>
  <course>8.0</course>
  <speed>0.0</speed>
  <fix>3d</fix>
</trkpt>
<trkpt lat="-27.2744398" lon="151.2900637">
  <ele>343.09</ele>
  <time>2026-09-01T20:02:25Z</time>
  <course>15.23</course>
  <speed>0.0</speed>
  <fix>3d</fix>
</trkpt>
<trkpt lat="-27.2744398" lon="151.2900637">
  <ele>343.09</ele>
  <time>2026-09-01T20:02:25Z</time>
  <course>8.0</course>
  <speed>0.0</speed>
  <fix>3d</fix>
</trkpt>
<trkpt lat="-27.2744398" lon="151.2900637">
  <ele>343.09</ele>
  <time>2026-09-01T20:02:25Z</time>
  <course>15.23</course>
  <speed>0.0</speed>
  <fix>3d</fix>
</trkpt>
<trkpt lat="-27.2744398" lon="151.2900637">
  <ele>343.09</ele>
  <time>2026-09-01T20:02:25Z</time>
  <course>8.0</course>
  <speed>0.0</speed>
  <fix>3d</fix>
</trkpt>
<trkpt lat="-27.2744398" lon="151.2900637">
  <ele>343.09</ele>
  <time>2026-09-01T20:02:25Z</time>
  <course>15.23</course>
  <speed>0.0</speed>
  <fix>3d</fix>
</trkpt>
<trkpt lat="-27.2744398" lon="151.2900637">
  <ele>343.09</ele>
  <time>2026-09-01T20:02:25Z</time>
  <course>8.0</course>
  <speed>0.0</speed>
  <fix>3d</fix>
</trkpt>
<trkpt lat="-27.2744398" lon="151.2900637">
  <ele>343.09</ele>
  <time>2026-09-01T20:02:25Z</time>
  <course>15.23</course>
  <speed>0.0</speed>
  <fix>3d</fix>
</trkpt>
<trkpt lat="-27.2744398" lon="151.2900637">
  <ele>343.09</ele>
  <time>2026-09-01T20:02:25Z</time>
  <course>8.0</course>
  <speed>0.0</speed>
  <fix>3d</fix>
</trkpt>
<trkpt lat="-27.2744398" lon="151.2900637">
  <ele>343.09</ele>
  <time>2026-09-01T20:02:25Z</time>
  <course>15.23</course>
  <speed>0.0</speed>
  <fix>3d</fix>
</trkpt>
<trkpt lat="-27.2744398" lon="151.2900637">
  <ele>343.09</ele>
  <time>2026-09-01T20:02:25Z</time>
  <course>8.0</course>
  <speed>0.0</speed>
  <fix>3d</fix>
</trkpt>
<trkpt lat="-27.2744398" lon="151.2900637">
  <ele>343.09</ele>
  <time>2026-09-01T20:02:25Z</time>
  <course>15.23</course>
  <speed>0.0</speed>
  <fix>3d</fix>
</trkpt>
<trkpt lat="-27.2744398" lon="151.2900637">
  <ele>343.09</ele>
  <time>2026-09-01T20:02:25Z</time>
  <course>8.0</course>
  <speed>0.0</speed>
  <fix>3d</fix>
</trkpt>
<trkpt lat="-27.2744398" lon="151.2900637">
  <ele>343.09</ele>
  <time>2026-09-01T20:02:25Z</time>
  <course>15.23</course>
  <speed>0.0</speed>
  <fix>3d</fix>
</trkpt>
<trkpt lat="-27.2744398" lon="151.2900637">
  <ele>343.09</ele>
  <time>2026-09-01T20:02:25Z</time>
  <course>8.0</course>
  <speed>0.0</speed>
  <fix>3d</fix>
</trkpt>
<trkpt lat="-27.2744398" lon="151.2900637">
  <ele>343.09</ele>
  <time>2026-09-01T20:02:25Z</time>
  <course>15.23</course>
  <speed>0.0</speed>
  <fix>3d</fix>
</trkpt>
<trkpt lat="-27.2744398" lon="151.2900637">
  <ele>343.09</ele>
  <time>2026-09-01T20:02:25Z</time>
  <course>8.0</course>
  <speed>0.0</speed>
  <fix>3d</fix>
</trkpt>
<trkpt lat="-27.2744398" lon="151.2900637">
  <ele>343.09</ele>
  <time>2026-09-01T20:02:25Z</time>
  <course>15.23</course>
  <speed>0.0</speed>
  <fix>3d</fix>
</trkpt>
<trkpt lat="-27.2744398" lon="151.2900637">
  <ele>343.09</ele>
  <time>2026-09-01T20:02:25Z</time>
  <course>8.0</course>
  <speed>0.0</speed>
  <fix>3d</fix>
</trkpt>
<trkpt lat="-27.2744398" lon="151.2900637">
  <ele>343.09</ele>
  <time>2026-09-01T20:02:25Z</time>
  <course>15.23</course>
  <speed>0.0</speed>
  <fix>3d</fix>
</trkpt>
<trkpt lat="-27.2744398" lon="151.2900637">
  <ele>343.09</ele>
  <time>2026-09-01T20:02:25Z</time>
  <course>8.0</course>
  <speed>0.0</speed>
  <fix>3d</fix>
</trkpt>
<trkpt lat="-27.2744398" lon="151.2900637">
  <ele>343.09</ele>
  <time>2026-09-01T20:02:25Z</time>
  <course>15.23</course>
  <speed>0.0</speed>
  <fix>3d</fix>
</trkpt>
<trkpt lat="-27.2744398" lon="151.2900637">
  <ele>343.09</ele>
  <time>2026-09-01T20:02:25Z</time>
  <course>8.0</course>
  <speed>0.0</speed>
  <fix>3d</fix>
</trkpt>
<trkpt lat="-27.2744398" lon="151.2900637">
  <ele>343.09</ele>
  <time>2026-09-01T20:02:25Z</time>
  <course>15.23</course>
  <speed>0.0</speed>
  <fix>3d</fix>
</trkpt>
<trkpt lat="-27.2744398" lon="151.2900637">
  <ele>343.09</ele>
  <time>2026-09-01T20:02:25Z</time>
  <course>8.0</course>
  <speed>0.0</speed>
  <fix>3d</fix>
</trkpt>
<trkpt lat="-27.2744398" lon="151.2900637">
  <ele>343.09</ele>
  <time>2026-09-01T20:02:25Z</time>
  <course>15.23</course>
  <speed>0.0</speed>
  <fix>3d</fix>
</trkpt>
<trkpt lat="-27.2744398" lon="151.2900637">
  <ele>343.09</ele>
  <time>2026-09-01T20:02:25Z</time>
  <course>8.0</course>
  <speed>0.0</speed>
  <fix>3d</fix>
</trkpt>
<trkpt lat="-27.2744398" lon="151.2900637">
  <ele>343.09</ele>
  <time>2026-09-01T20:02:25Z</time>
  <course>15.23</course>
  <speed>0.0</speed>
  <fix>3d</fix>
</trkpt>
<trkpt lat="-27.2744398" lon="151.2900637">
  <ele>343.09</ele>
  <time>2026-09-01T20:02:25Z</time>
  <course>8.0</course>
  <speed>0.0</speed>
  <fix>3d</fix>
</trkpt>
<trkpt lat="-27.2744398" lon="151.2900637">
  <ele>343.09</ele>
  <time>2026-09-01T20:02:25Z</time>
  <course>15.23</course>
  <speed>0.0</speed>
  <fix>3d</fix>
</trkpt>
<trkpt lat="-27.2744398" lon="151.2900637">
  <ele>343.09</ele>
  <time>2026-09-01T20:02:25Z</time>
  <course>8.0</course>
  <speed>0.0</speed>
  <fix>3d</fix>
</trkpt>
<trkpt lat="-27.2744398" lon="151.2900637">
  <ele>343.09</ele>
  <time>2026-09-01T20:02:25Z</time>
  <course>15.23</course>
  <speed>0.0</speed>
  <fix>3d</fix>
</trkpt>
<trkpt lat="-27.2744398" lon="151.2900637">
  <ele>343.09</ele>
  <time>2026-09-01T20:02:25Z</time>
  <course>8.0</course>
  <speed>0.0</speed>
  <fix>3d</fix>
</trkpt>
<trkpt lat="-27.2744398" lon="151.2900637">
  <ele>343.09</ele>
  <time>2026-09-01T20:02:25Z</time>
  <course>15.23</course>
  <speed>0.0</speed>
  <fix>3d</fix>
</trkpt>
<trkpt lat="-27.2744398" lon="151.2900637">
  <ele>343.09</ele>
  <time>2026-09-01T20:02:25Z</time>
  <course>8.0</course>
  <speed>0.0</speed>
  <fix>3d</fix>
</trkpt>
<trkpt lat="-27.2744398" lon="151.2900637">
  <ele>343.09</ele>
  <time>2026-09-01T20:02:25Z</time>
  <course>15.23</course>
  <speed>0.0</speed>
  <fix>3d</fix>
</trkpt>
<trkpt lat="-27.2744398" lon="151.2900637">
  <ele>343.09</ele>
  <time>2026-09-01T20:02:25Z</time>
  <course>8.0</course>
  <speed>0.0</speed>
  <fix>3d</fix>
</trkpt>
<trkpt lat="-27.2744398" lon="151.2900637">
  <ele>343.09</ele>
  <time>2026-09-01T20:02:25Z</time>
  <course>15.23</course>
  <speed>0.0</speed>
  <fix>3d</fix>
</trkpt>
<trkpt lat="-27.2744398" lon="151.2900637">
  <ele>343.09</ele>
  <time>2026-09-01T20:02:25Z</time>
  <course>8.0</course>
  <speed>0.0</speed>
  <fix>3d</fix>
</trkpt>
<trkpt lat="-27.2744398" lon="151.2900637">
  <ele>343.09</ele>
  <time>2026-09-01T20:02:25Z</time>
  <course>15.23</course>
  <speed>0.0</speed>
  <fix>3d</fix>
</trkpt>
<trkpt lat="-27.2744398" lon="151.2900637">
  <ele>343.09</ele>
  <time>2026-09-01T20:02:25Z</time>
  <course>8.0</course>
  <speed>0.0</speed>
  <fix>3d</fix>
</trkpt>
<trkpt lat="-27.2744398" lon="151.2900637">
  <ele>343.09</ele>
  <time>2026-09-01T20:02:25Z</time>
  <course>15.23</course>
  <speed>0.0</speed>
  <fix>3d</fix>
</trkpt>
<trkpt lat="-27.2744398" lon="151.2900637">
  <ele>343.09</ele>
  <time>2026-09-01T20:02:25Z</time>
  <course>8.0</course>
  <speed>0.0</speed>
  <fix>3d</fix>
</trkpt>
<trkpt lat="-27.2744398" lon="151.2900637">
  <ele>343.09</ele>
  <time>2026-09-01T20:02:25Z</time>
  <course>15.23</course>
  <speed>0.0</speed>
  <fix>3d</fix>
</trkpt>
<trkpt lat="-27.2744398" lon="151.2900637">
  <ele>343.09</ele>
  <time>2026-09-01T20:02:25Z</time>
  <course>8.0</course>
  <speed>0.0</speed>
  <fix>3d</fix>
</trkpt>
<trkpt lat="-27.2744398" lon="151.2900637">
  <ele>343.09</ele>
  <time>2026-09-01T20:02:25Z</time>
  <course>15.23</course>
  <speed>0.0</speed>
  <fix>3d</fix>
</trkpt>
<trkpt lat="-27.2744398" lon="151.2900637">
  <ele>343.09</ele>
  <time>2026-09-01T20:02:25Z</time>
  <course>8.0</course>
  <speed>0.0</speed>
  <fix>3d</fix>
</trkpt>
<trkpt lat="-27.2744398" lon="151.2900637">
  <ele>343.09</ele>
  <time>2026-09-01T20:02:25Z</time>
  <course>15.23</course>
  <speed>0.0</speed>
  <fix>3d</fix>
</trkpt>
<trkpt lat="-27.2744398" lon="151.2900637">
  <ele>343.09</ele>
  <time>2026-09-01T20:02:25Z</time>
  <course>8.0</course>
  <speed>0.0</speed>
  <fix>3d</fix>
</trkpt>
<trkpt lat="-27.2744398" lon="151.2900637">
  <ele>343.09</ele>
  <time>2026-09-01T20:02:25Z</time>
  <course>15.23</course>
  <speed>0.0</speed>
  <fix>3d</fix>
</trkpt>
<trkpt lat="-27.2744398" lon="151.2900637">
  <ele>343.09</ele>
  <time>2026-09-01T20:02:25Z</time>
  <course>8.0</course>
  <speed>0.0</speed>
  <fix>3d</fix>
</trkpt>
<trkpt lat="-27.2744398" lon="151.2900637">
  <ele>343.09</ele>
  <time>2026-09-01T20:02:25Z</time>
  <course>15.23</course>
  <speed>0.0</speed>
  <fix>3d</fix>
</trkpt>
<trkpt lat="-27.2744398" lon="151.2900637">
  <ele>343.09</ele>
  <time>2026-09-01T20:02:25Z</time>
  <course>8.0</course>
  <speed>0.0</speed>
  <fix>3d</fix>
</trkpt>
<trkpt lat="-27.2744398" lon="151.2900637">
  <ele>343.09</ele>
  <time>2026-09-01T20:02:25Z</time>
  <course>15.23</course>
  <speed>0.0</speed>
  <fix>3d</fix>
</trkpt>
<trkpt lat="-27.2744398" lon="151.2900637">
  <ele>343.09</ele>
  <time>2026-09-01T20:02:25Z</time>
  <course>8.0</course>
  <speed>0.0</speed>
  <fix>3d</fix>
</trkpt>
<trkpt lat="-27.2744398" lon="151.2900637">
  <ele>343.09</ele>
  <time>2026-09-01T20:02:25Z</time>
  <course>15.23</course>
  <speed>0.0</speed>
  <fix>3d</fix>
</trkpt>
<trkpt lat="-27.2744398" lon="151.2900637">
  <ele>343.09</ele>
  <time>2026-09-01T20:02:25Z</time>
  <course>8.0</course>
  <speed>0.0</speed>
  <fix>3d</fix>
</trkpt>
<trkpt lat="-27.2744398" lon="151.2900637">
  <ele>343.09</ele>
  <time>2026-09-01T20:02:25Z</time>
  <course>15.23</course>
  <speed>0.0</speed>
  <fix>3d</fix>
</trkpt>
<trkpt lat="-27.2744398" lon="151.2900637">
  <ele>343.09</ele>
  <time>2026-09-01T20:02:25Z</time>
  <course>8.0</course>
  <speed>0.0</speed>
  <fix>3d</fix>
</trkpt>
<trkpt lat="-27.2744398" lon="151.2900637">
  <ele>343.09</ele>
  <time>2026-09-01T20:02:25Z</time>
  <course>15.23</course>
  <speed>0.0</speed>
  <fix>3d</fix>
</trkpt>
<trkpt lat="-27.2744398" lon="151.2900637">
  <ele>343.09</ele>
  <time>2026-09-01T20:02:25Z</time>
  <course>8.0</course>
  <speed>0.0</speed>
  <fix>3d</fix>
</trkpt>
<trkpt lat="-27.2744398" lon="151.2900637">
  <ele>343.09</ele>
  <time>2026-09-01T20:02:25Z</time>
  <course>15.23</course>
  <speed>0.0</speed>
  <fix>3d</fix>
</trkpt>
<trkpt lat="-27.2744398" lon="151.2900637">
  <ele>343.09</ele>
  <time>2026-09-01T20:02:25Z</time>
  <course>8.0</course>
  <speed>0.0</speed>
  <fix>3d</fix>
</trkpt>
<trkpt lat="-27.2744398" lon="151.2900637">
  <ele>343.09</ele>
  <time>2026-09-01T20:02:25Z</time>
  <course>15.23</course>
  <speed>0.0</speed>
  <fix>3d</fix>
</trkpt>
<trkpt lat="-27.2744398" lon="151.2900637">
  <ele>343.09</ele>
  <time>2026-09-01T20:02:25Z</time>
  <course>8.0</course>
  <speed>0.0</speed>
  <fix>3d</fix>
</trkpt>
<trkpt lat="-27.2744398" lon="151.2900637">
  <ele>343.09</ele>
  <time>2026-09-01T20:02:25Z</time>
  <course>15.23</course>
  <speed>0.0</speed>
  <fix>3d</fix>
</trkpt>
<trkpt lat="-27.2744398" lon="151.2900637">
  <ele>343.09</ele>
  <time>2026-09-01T20:02:25Z</time>
  <course>8.0</course>
  <speed>0.0</speed>
  <fix>3d</fix>
</trkpt>
<trkpt lat="-27.2744398" lon="151.2900637">
  <ele>343.09</ele>
  <time>2026-09-01T20:02:25Z</time>
  <course>15.23</course>
  <speed>0.0</speed>
  <fix>3d</fix>
</trkpt>
<trkpt lat="-27.2744398" lon="151.2900637">
  <ele>343.09</ele>
  <time>2026-09-01T20:02:25Z</time>
  <course>8.0</course>
  <speed>0.0</speed>
  <fix>3d</fix>
</trkpt>
<trkpt lat="-27.2744398" lon="151.2900637">
  <ele>343.09</ele>
  <time>2026-09-01T20:02:25Z</time>
  <course>15.23</course>
  <speed>0.0</speed>
  <fix>3d</fix>
</trkpt>
<trkpt lat="-27.2744398" lon="151.2900637">
  <ele>343.09</ele>
  <time>2026-09-01T20:02:25Z</time>
  <course>8.0</course>
  <speed>0.0</speed>
  <fix>3d</fix>
</trkpt>
<trkpt lat="-27.2744398" lon="151.2900637">
  <ele>343.09</ele>
  <time>2026-09-01T20:02:25Z</time>
  <course>15.23</course>
  <speed>0.0</speed>
  <fix>3d</fix>
</trkpt>
<trkpt lat="-27.2744398" lon="151.2900637">
  <ele>343.09</ele>
  <time>2026-09-01T20:02:25Z</time>
  <course>8.0</course>
  <speed>0.0</speed>
  <fix>3d</fix>
</trkpt>
<trkpt lat="-27.2744398" lon="151.2900637">
  <ele>343.09</ele>
  <time>2026-09-01T20:02:25Z</time>
  <course>15.23</course>
  <speed>0.0</speed>
  <fix>3d</fix>
</trkpt>
<trkpt lat="-27.2744398" lon="151.2900637">
  <ele>343.09</ele>
  <time>2026-09-01T20:02:25Z</time>
  <course>8.0</course>
  <speed>0.0</speed>
  <fix>3d</fix>
</trkpt>
<trkpt lat="-27.2744398" lon="151.2900637">
  <ele>343.09</ele>
  <time>2026-09-01T20:02:25Z</time>
  <course>15.23</course>
  <speed>0.0</speed>
  <fix>3d</fix>
</trkpt>
<trkpt lat="-27.2744398" lon="151.2900637">
  <ele>343.09</ele>
  <time>2026-09-01T20:02:25Z</time>
  <course>8.0</course>
  <speed>0.0</speed>
  <fix>3d</fix>
</trkpt>
<trkpt lat="-27.2744398" lon="151.2900637">
  <ele>343.09</ele>
  <time>2026-09-01T20:02:25Z</time>
  <course>15.23</course>
  <speed>0.0</speed>
  <fix>3d</fix>
</trkpt>
<trkpt lat="-27.2744398" lon="151.2900637">
  <ele>343.09</ele>
  <time>2026-09-01T20:02:25Z</time>
  <course>8.0</course>
  <speed>0.0</speed>
  <fix>3d</fix>
</trkpt>
<trkpt lat="-27.2744398" lon="151.2900637">
  <ele>343.09</ele>
  <time>2026-09-01T20:02:25Z</time>
  <course>15.23</course>
  <speed>0.0</speed>
  <fix>3d</fix>
</trkpt>
<trkpt lat="-27.2744398" lon="151.2900637">
  <ele>343.09</ele>
  <time>2026-09-01T20:02:25Z</time>
  <course>8.0</course>
  <speed>0.0</speed>
  <fix>3d</fix>
</trkpt>
<trkpt lat="-27.2744398" lon="151.2900637">
  <ele>343.09</ele>
  <time>2026-09-01T20:02:25Z</time>
  <course>15.23</course>
  <speed>0.0</speed>
  <fix>3d</fix>
</trkpt>
<trkpt lat="-27.2744398" lon="151.2900637">
  <ele>343.09</ele>
  <time>2026-09-01T20:02:25Z</time>
  <course>8.0</course>
  <speed>0.0</speed>
  <fix>3d</fix>
</trkpt>
<trkpt lat="-27.2744398" lon="151.2900637">
  <ele>343.09</ele>
  <time>2026-09-01T20:02:25Z</time>
  <course>15.23</course>
  <speed>0.0</speed>
  <fix>3d</fix>
</trkpt>
<trkpt lat="-27.2744398" lon="151.2900637">
  <ele>343.07</ele>
  <time>2026-09-01T20:02:25Z</time>
  <course>10.75</course>
  <speed>0.0</speed>
  <fix>3d</fix>
</trkpt>
<trkpt lat="-27.2744398" lon="151.2900637">
  <ele>343.09</ele>
  <time>2026-09-01T20:02:25Z</time>
  <course>15.23</course>
  <speed>0.0</speed>
  <fix>3d</fix>
</trkpt>
<trkpt lat="-27.2744398" lon="151.2900637">
  <ele>342.87</ele>
  <time>2026-09-01T20:02:25Z</time>
  <course>10.75</course>
  <speed>0.0</speed>
  <fix>3d</fix>
</trkpt>
<trkpt lat="-27.2744398" lon="151.2900637">
  <ele>343.09</ele>
  <time>2026-09-01T20:02:25Z</time>
  <course>15.23</course>
  <speed>0.0</speed>
  <fix>3d</fix>
</trkpt>
<trkpt lat="-27.2744398" lon="151.2900637">
  <ele>343.02</ele>
  <time>2026-09-01T20:02:25Z</time>
  <course>10.74</course>
  <speed>0.0</speed>
  <fix>3d</fix>
</trkpt>
<trkpt lat="-27.2744398" lon="151.2900637">
  <ele>343.09</ele>
  <time>2026-09-01T20:02:25Z</time>
  <course>15.23</course>
  <speed>0.0</speed>
  <fix>3d</fix>
</trkpt>
<trkpt lat="-27.2744398" lon="151.2900637">
  <ele>342.95</ele>
  <time>2026-09-01T20:02:25Z</time>
  <course>10.74</course>
  <speed>0.0</speed>
  <fix>3d</fix>
</trkpt>
<trkpt lat="-27.2744398" lon="151.2900637">
  <ele>343.09</ele>
  <time>2026-09-01T20:02:25Z</time>
  <course>15.23</course>
  <speed>0.0</speed>
  <fix>3d</fix>
</trkpt>
<trkpt lat="-27.2744398" lon="151.2900637">
  <ele>343.08</ele>
  <time>2026-09-01T20:02:25Z</time>
  <course>10.74</course>
  <speed>0.0</speed>
  <fix>3d</fix>
</trkpt>
<trkpt lat="-27.2744398" lon="151.2900637">
  <ele>343.09</ele>
  <time>2026-09-01T20:02:25Z</time>
  <course>15.23</course>
  <speed>0.0</speed>
  <fix>3d</fix>
</trkpt>
<trkpt lat="-27.2744398" lon="151.2900637">
  <ele>343.08</ele>
  <time>2026-09-01T20:02:25Z</time>
  <course>10.74</course>
  <speed>0.0</speed>
  <fix>3d</fix>
</trkpt>
<trkpt lat="-27.2744398" lon="151.2900637">
  <ele>343.09</ele>
  <time>2026-09-01T20:02:25Z</time>
  <course>15.23</course>
  <speed>0.0</speed>
  <fix>3d</fix>
</trkpt>
<trkpt lat="-27.2744398" lon="151.2900637">
  <ele>343.09</ele>
  <time>2026-09-01T20:02:25Z</time>
  <course>10.73</course>
  <speed>0.0</speed>
  <fix>3d</fix>
</trkpt>
<trkpt lat="-27.2744398" lon="151.2900637">
  <ele>343.09</ele>
  <time>2026-09-01T20:02:25Z</time>
  <course>15.23</course>
  <speed>0.0</speed>
  <fix>3d</fix>
</trkpt>
<trkpt lat="-27.2744398" lon="151.2900637">
  <ele>343.09</ele>
  <time>2026-09-01T20:02:25Z</time>
  <course>10.73</course>
  <speed>0.0</speed>
  <fix>3d</fix>
</trkpt>
<trkpt lat="-27.2744398" lon="151.2900637">
  <ele>343.09</ele>
  <time>2026-09-01T20:02:25Z</time>
  <course>15.23</course>
  <speed>0.0</speed>
  <fix>3d</fix>
</trkpt>
<trkpt lat="-27.2744398" lon="151.2900637">
  <ele>343.08</ele>
  <time>2026-09-01T20:02:25Z</time>
  <course>10.73</course>
  <speed>0.0</speed>
  <fix>3d</fix>
</trkpt>
<trkpt lat="-27.2744398" lon="151.2900637">
  <ele>343.09</ele>
  <time>2026-09-01T20:02:25Z</time>
  <course>15.23</course>
  <speed>0.0</speed>
  <fix>3d</fix>
</trkpt>
<trkpt lat="-27.2744398" lon="151.2900637">
  <ele>342.87</ele>
  <time>2026-09-01T20:02:25Z</time>
  <course>10.72</course>
  <speed>0.0</speed>
  <fix>3d</fix>
</trkpt>
<trkpt lat="-27.2744398" lon="151.2900637">
  <ele>343.09</ele>
  <time>2026-09-01T20:02:25Z</time>
  <course>15.23</course>
  <speed>0.0</speed>
  <fix>3d</fix>
</trkpt>
<trkpt lat="-27.2744398" lon="151.2900637">
  <ele>342.82</ele>
  <time>2026-09-01T20:02:25Z</time>
  <course>10.71</course>
  <speed>0.0</speed>
  <fix>3d</fix>
</trkpt>
<trkpt lat="-27.2744398" lon="151.2900637">
  <ele>343.09</ele>
  <time>2026-09-01T20:02:25Z</time>
  <course>15.23</course>
  <speed>0.0</speed>
  <fix>3d</fix>
</trkpt>
<trkpt lat="-27.2744398" lon="151.2900637">
  <ele>342.79</ele>
  <time>2026-09-01T20:02:25Z</time>
  <course>10.71</course>
  <speed>0.0</speed>
  <fix>3d</fix>
</trkpt>
<trkpt lat="-27.2744398" lon="151.2900637">
  <ele>343.09</ele>
  <time>2026-09-01T20:02:25Z</time>
  <course>15.25</course>
  <speed>0.0</speed>
  <fix>3d</fix>
</trkpt>
<trkpt lat="-27.2744398" lon="151.2900637">
  <ele>342.8</ele>
  <time>2026-09-01T20:02:25Z</time>
  <course>10.71</course>
  <speed>0.0</speed>
  <fix>3d</fix>
</trkpt>
<trkpt lat="-27.2744398" lon="151.2900637">
  <ele>343.09</ele>
  <time>2026-09-01T20:02:25Z</time>
  <course>15.25</course>
  <speed>0.0</speed>
  <fix>3d</fix>
</trkpt>
<trkpt lat="-27.2744398" lon="151.2900637">
  <ele>342.94</ele>
  <time>2026-09-01T20:02:25Z</time>
  <course>10.7</course>
  <speed>0.0</speed>
  <fix>3d</fix>
</trkpt>
<trkpt lat="-27.2744398" lon="151.2900637">
  <ele>343.09</ele>
  <time>2026-09-01T20:02:25Z</time>
  <course>15.56</course>
  <speed>0.0</speed>
  <fix>3d</fix>
</trkpt>
<trkpt lat="-27.2744398" lon="151.2900637">
  <ele>343.09</ele>
  <time>2026-09-01T20:02:25Z</time>
  <course>10.7</course>
  <speed>0.0</speed>
  <fix>3d</fix>
</trkpt>
<trkpt lat="-27.2744398" lon="151.2900637">
  <ele>343.09</ele>
  <time>2026-09-01T20:02:25Z</time>
  <course>15.56</course>
  <speed>0.0</speed>
  <fix>3d</fix>
</trkpt>
<trkpt lat="-27.2744398" lon="151.2900637">
  <ele>342.84</ele>
  <time>2026-09-01T20:02:25Z</time>
  <course>10.7</course>
  <speed>0.0</speed>
  <fix>3d</fix>
</trkpt>
<trkpt lat="-27.2744398" lon="151.2900637">
  <ele>343.09</ele>
  <time>2026-09-01T20:02:25Z</time>
  <course>15.98</course>
  <speed>0.0</speed>
  <fix>3d</fix>
</trkpt>
<trkpt lat="-27.2744398" lon="151.2900637">
  <ele>343.06</ele>
  <time>2026-09-01T20:02:25Z</time>
  <course>10.7</course>
  <speed>0.0</speed>
  <fix>3d</fix>
</trkpt>
<trkpt lat="-27.2744398" lon="151.2900637">
  <ele>343.09</ele>
  <time>2026-09-01T20:02:25Z</time>
  <course>15.98</course>
  <speed>0.0</speed>
  <fix>3d</fix>
</trkpt>
<trkpt lat="-27.2744398" lon="151.2900637">
  <ele>342.96</ele>
  <time>2026-09-01T20:02:25Z</time>
  <course>10.68</course>
  <speed>0.0</speed>
  <fix>3d</fix>
</trkpt>
<trkpt lat="-27.2744398" lon="151.2900637">
  <ele>343.09</ele>
  <time>2026-09-01T20:02:25Z</time>
  <course>16.17</course>
  <speed>0.0</speed>
  <fix>3d</fix>
</trkpt>
<trkpt lat="-27.2744397" lon="151.2900637">
  <ele>342.96</ele>
  <time>2026-09-01T20:02:25Z</time>
  <course>10.68</course>
  <speed>0.0</speed>
  <fix>3d</fix>
</trkpt>
<trkpt lat="-27.2744398" lon="151.2900637">
  <ele>343.09</ele>
  <time>2026-09-01T20:02:25Z</time>
  <course>16.17</course>
  <speed>0.0</speed>
  <fix>3d</fix>
</trkpt>
<trkpt lat="-27.2744396" lon="151.2900637">
  <ele>342.96</ele>
  <time>2026-09-01T20:02:25Z</time>
  <course>10.68</course>
  <speed>0.0</speed>
  <fix>3d</fix>
</trkpt>
<trkpt lat="-27.2744398" lon="151.2900637">
  <ele>343.09</ele>
  <time>2026-09-01T20:02:25Z</time>
  <course>15.99</course>
  <speed>0.0</speed>
  <fix>3d</fix>
</trkpt>
<trkpt lat="-27.2744396" lon="151.2900637">
  <ele>342.96</ele>
  <time>2026-09-01T20:02:25Z</time>
  <course>10.68</course>
  <speed>0.0</speed>
  <fix>3d</fix>
</trkpt>
<trkpt lat="-27.2744398" lon="151.2900637">
  <ele>343.09</ele>
  <time>2026-09-01T20:02:25Z</time>
  <course>15.99</course>
  <speed>0.0</speed>
  <fix>3d</fix>
</trkpt>
<trkpt lat="-27.2744396" lon="151.2900637">
  <ele>342.96</ele>
  <time>2026-09-01T20:02:25Z</time>
  <course>10.68</course>
  <speed>0.0</speed>
  <fix>3d</fix>
</trkpt>
<trkpt lat="-27.2744398" lon="151.2900637">
  <ele>343.09</ele>
  <time>2026-09-01T20:02:25Z</time>
  <course>15.59</course>
  <speed>0.0</speed>
  <fix>3d</fix>
</trkpt>
<trkpt lat="-27.2744396" lon="151.2900637">
  <ele>342.96</ele>
  <time>2026-09-01T20:02:25Z</time>
  <course>10.68</course>
  <speed>0.01</speed>
  <fix>3d</fix>
</trkpt>
<trkpt lat="-27.2744398" lon="151.2900637">
  <ele>343.09</ele>
  <time>2026-09-01T20:02:25Z</time>
  <course>15.59</course>
  <speed>0.0</speed>
  <fix>3d</fix>
</trkpt>
<trkpt lat="-27.2744397" lon="151.2900637">
  <ele>342.96</ele>
  <time>2026-09-01T20:02:25Z</time>
  <course>10.67</course>
  <speed>0.02</speed>
  <fix>3d</fix>
</trkpt>
<trkpt lat="-27.2744398" lon="151.2900637">
  <ele>343.09</ele>
  <time>2026-09-01T20:02:25Z</time>
  <course>15.26</course>
  <speed>0.0</speed>
  <fix>3d</fix>
</trkpt>
<trkpt lat="-27.2744398" lon="151.2900637">
  <ele>342.95</ele>
  <time>2026-09-01T20:02:25Z</time>
  <course>10.67</course>
  <speed>0.03</speed>
  <fix>3d</fix>
</trkpt>
<trkpt lat="-27.2744398" lon="151.2900637">
  <ele>343.09</ele>
  <time>2026-09-01T20:02:25Z</time>
  <course>15.23</course>
  <speed>0.0</speed>
  <fix>3d</fix>
</trkpt>
<trkpt lat="-27.2744398" lon="151.2900637">
  <ele>342.95</ele>
  <time>2026-09-01T20:02:25Z</time>
  <course>10.67</course>
  <speed>0.04</speed>
  <fix>3d</fix>
</trkpt>
<trkpt lat="-27.2744398" lon="151.2900637">
  <ele>343.09</ele>
  <time>2026-09-01T20:02:25Z</time>
  <course>15.23</course>
  <speed>0.0</speed>
  <fix>3d</fix>
</trkpt>
<trkpt lat="-27.2744399" lon="151.2900637">
  <ele>342.95</ele>
  <time>2026-09-01T20:02:25Z</time>
  <course>10.67</course>
  <speed>0.04</speed>
  <fix>3d</fix>
</trkpt>
<trkpt lat="-27.2744398" lon="151.2900637">
  <ele>343.09</ele>
  <time>2026-09-01T20:02:25Z</time>
  <course>15.23</course>
  <speed>0.0</speed>
  <fix>3d</fix>
</trkpt>
<trkpt lat="-27.2744399" lon="151.2900637">
  <ele>342.95</ele>
  <time>2026-09-01T20:02:25Z</time>
  <course>10.67</course>
  <speed>0.05</speed>
  <fix>3d</fix>
</trkpt>
<trkpt lat="-27.2744398" lon="151.2900637">
  <ele>343.09</ele>
  <time>2026-09-01T20:02:25Z</time>
  <course>15.23</course>
  <speed>0.0</speed>
  <fix>3d</fix>
</trkpt>
<trkpt lat="-27.2744399" lon="151.2900637">
  <ele>342.95</ele>
  <time>2026-09-01T20:02:25Z</time>
  <course>10.67</course>
  <speed>0.05</speed>
  <fix>3d</fix>
</trkpt>
<trkpt lat="-27.2744398" lon="151.2900637">
  <ele>343.09</ele>
  <time>2026-09-01T20:02:25Z</time>
  <course>15.23</course>
  <speed>0.0</speed>
  <fix>3d</fix>
</trkpt>
<trkpt lat="-27.2744399" lon="151.2900637">
  <ele>342.95</ele>
  <time>2026-09-01T20:02:25Z</time>
  <course>10.67</course>
  <speed>0.05</speed>
  <fix>3d</fix>
</trkpt>
<trkpt lat="-27.2744398" lon="151.2900637">
  <ele>343.09</ele>
  <time>2026-09-01T20:02:25Z</time>
  <course>15.23</course>
  <speed>0.0</speed>
  <fix>3d</fix>
</trkpt>
<trkpt lat="-27.2744399" lon="151.2900637">
  <ele>342.95</ele>
  <time>2026-09-01T20:02:25Z</time>
  <course>10.67</course>
  <speed>0.05</speed>
  <fix>3d</fix>
</trkpt>
<trkpt lat="-27.2744398" lon="151.2900637">
  <ele>343.09</ele>
  <time>2026-09-01T20:02:25Z</time>
  <course>15.23</course>
  <speed>0.0</speed>
  <fix>3d</fix>
</trkpt>
<trkpt lat="-27.2744399" lon="151.2900637">
  <ele>342.95</ele>
  <time>2026-09-01T20:02:25Z</time>
  <course>10.67</course>
  <speed>0.05</speed>
  <fix>3d</fix>
</trkpt>
<trkpt lat="-27.2744398" lon="151.2900637">
  <ele>343.09</ele>
  <time>2026-09-01T20:02:25Z</time>
  <course>15.23</course>
  <speed>0.0</speed>
  <fix>3d</fix>
</trkpt>
<trkpt lat="-27.2744399" lon="151.2900637">
  <ele>343.08</ele>
  <time>2026-09-01T20:02:25Z</time>
  <course>10.67</course>
  <speed>0.05</speed>
  <fix>3d</fix>
</trkpt>
<trkpt lat="-27.2744398" lon="151.2900637">
  <ele>343.09</ele>
  <time>2026-09-01T20:02:25Z</time>
  <course>15.23</course>
  <speed>0.0</speed>
  <fix>3d</fix>
</trkpt>
<trkpt lat="-27.2744399" lon="151.2900637">
  <ele>343.08</ele>
  <time>2026-09-01T20:02:25Z</time>
  <course>10.67</course>
  <speed>0.06</speed>
  <fix>3d</fix>
</trkpt>
<trkpt lat="-27.2744398" lon="151.2900637">
  <ele>343.09</ele>
  <time>2026-09-01T20:02:25Z</time>
  <course>15.23</course>
  <speed>0.0</speed>
  <fix>3d</fix>
</trkpt>
<trkpt lat="-27.27444" lon="151.2900637">
  <ele>343.08</ele>
  <time>2026-09-01T20:02:25Z</time>
  <course>10.67</course>
  <speed>0.06</speed>
  <fix>3d</fix>
</trkpt>
<trkpt lat="-27.2744398" lon="151.2900637">
  <ele>343.09</ele>
  <time>2026-09-01T20:02:25Z</time>
  <course>15.23</course>
  <speed>0.0</speed>
  <fix>3d</fix>
</trkpt>
<trkpt lat="-27.27444" lon="151.2900637">
  <ele>343.09</ele>
  <time>2026-09-01T20:02:25Z</time>
  <course>10.67</course>
  <speed>0.06</speed>
  <fix>3d</fix>
</trkpt>
<trkpt lat="-27.2744398" lon="151.2900637">
  <ele>343.09</ele>
  <time>2026-09-01T20:02:25Z</time>
  <course>15.23</course>
  <speed>0.0</speed>
  <fix>3d</fix>
</trkpt>
<trkpt lat="-27.27444" lon="151.2900637">
  <ele>343.1</ele>
  <time>2026-09-01T20:02:25Z</time>
  <course>10.68</course>
  <speed>0.05</speed>
  <fix>3d</fix>
</trkpt>
<trkpt lat="-27.2744398" lon="151.2900637">
  <ele>343.09</ele>
  <time>2026-09-01T20:02:25Z</time>
  <course>15.23</course>
  <speed>0.0</speed>
  <fix>3d</fix>
</trkpt>
<trkpt lat="-27.27444" lon="151.2900637">
  <ele>343.11</ele>
  <time>2026-09-01T20:02:25Z</time>
  <course>10.68</course>
  <speed>0.05</speed>
  <fix>3d</fix>
</trkpt>
<trkpt lat="-27.2744398" lon="151.2900637">
  <ele>343.09</ele>
  <time>2026-09-01T20:02:25Z</time>
  <course>15.23</course>
  <speed>0.0</speed>
  <fix>3d</fix>
</trkpt>
<trkpt lat="-27.27444" lon="151.2900637">
  <ele>343.11</ele>
  <time>2026-09-01T20:02:25Z</time>
  <course>10.68</course>
  <speed>0.05</speed>
  <fix>3d</fix>
</trkpt>
<trkpt lat="-27.2744398" lon="151.2900637">
  <ele>343.09</ele>
  <time>2026-09-01T20:02:25Z</time>
  <course>15.23</course>
  <speed>0.0</speed>
  <fix>3d</fix>
</trkpt>
<trkpt lat="-27.27444" lon="151.2900637">
  <ele>343.12</ele>
  <time>2026-09-01T20:02:25Z</time>
  <course>10.68</course>
  <speed>0.05</speed>
  <fix>3d</fix>
</trkpt>
<trkpt lat="-27.2744398" lon="151.2900637">
  <ele>343.09</ele>
  <time>2026-09-01T20:02:25Z</time>
  <course>15.23</course>
  <speed>0.0</speed>
  <fix>3d</fix>
</trkpt>
<trkpt lat="-27.27444" lon="151.2900637">
  <ele>343.12</ele>
  <time>2026-09-01T20:02:25Z</time>
  <course>10.68</course>
  <speed>0.05</speed>
  <fix>3d</fix>
</trkpt>
<trkpt lat="-27.2744398" lon="151.2900637">
  <ele>343.09</ele>
  <time>2026-09-01T20:02:25Z</time>
  <course>15.23</course>
  <speed>0.0</speed>
  <fix>3d</fix>
</trkpt>
<trkpt lat="-27.27444" lon="151.2900637">
  <ele>343.12</ele>
  <time>2026-09-01T20:02:25Z</time>
  <course>10.68</course>
  <speed>0.05</speed>
  <fix>3d</fix>
</trkpt>
<trkpt lat="-27.2744398" lon="151.2900637">
  <ele>343.09</ele>
  <time>2026-09-01T20:02:25Z</time>
  <course>15.23</course>
  <speed>0.0</speed>
  <fix>3d</fix>
</trkpt>
<trkpt lat="-27.27444" lon="151.2900637">
  <ele>343.12</ele>
  <time>2026-09-01T20:02:25Z</time>
  <course>10.68</course>
  <speed>0.05</speed>
  <fix>3d</fix>
</trkpt>
<trkpt lat="-27.2744398" lon="151.2900637">
  <ele>343.09</ele>
  <time>2026-09-01T20:02:25Z</time>
  <course>15.23</course>
  <speed>0.0</speed>
  <fix>3d</fix>
</trkpt>
<trkpt lat="-27.27444" lon="151.2900637">
  <ele>343.12</ele>
  <time>2026-09-01T20:02:25Z</time>
  <course>10.68</course>
  <speed>0.04</speed>
  <fix>3d</fix>
</trkpt>
<trkpt lat="-27.2744398" lon="151.2900637">
  <ele>343.09</ele>
  <time>2026-09-01T20:02:25Z</time>
  <course>15.23</course>
  <speed>0.0</speed>
  <fix>3d</fix>
</trkpt>
<trkpt lat="-27.27444" lon="151.2900637">
  <ele>343.13</ele>
  <time>2026-09-01T20:02:25Z</time>
  <course>10.68</course>
  <speed>0.04</speed>
  <fix>3d</fix>
</trkpt>
<trkpt lat="-27.2744398" lon="151.2900637">
  <ele>343.09</ele>
  <time>2026-09-01T20:02:25Z</time>
  <course>15.23</course>
  <speed>0.0</speed>
  <fix>3d</fix>
</trkpt>
<trkpt lat="-27.27444" lon="151.2900637">
  <ele>343.13</ele>
  <time>2026-09-01T20:02:25Z</time>
  <course>10.68</course>
  <speed>0.04</speed>
  <fix>3d</fix>
</trkpt>
<trkpt lat="-27.2744398" lon="151.2900637">
  <ele>343.09</ele>
  <time>2026-09-01T20:02:25Z</time>
  <course>15.23</course>
  <speed>0.0</speed>
  <fix>3d</fix>
</trkpt>
<trkpt lat="-27.27444" lon="151.2900637">
  <ele>343.13</ele>
  <time>2026-09-01T20:02:25Z</time>
  <course>10.68</course>
  <speed>0.04</speed>
  <fix>3d</fix>
</trkpt>
<trkpt lat="-27.2744398" lon="151.2900637">
  <ele>343.09</ele>
  <time>2026-09-01T20:02:25Z</time>
  <course>15.23</course>
  <speed>0.0</speed>
  <fix>3d</fix>
</trkpt>
<trkpt lat="-27.27444" lon="151.2900637">
  <ele>343.13</ele>
  <time>2026-09-01T20:02:25Z</time>
  <course>10.68</course>
  <speed>0.04</speed>
  <fix>3d</fix>
</trkpt>
<trkpt lat="-27.2744398" lon="151.2900637">
  <ele>343.09</ele>
  <time>2026-09-01T20:02:25Z</time>
  <course>15.23</course>
  <speed>0.0</speed>
  <fix>3d</fix>
</trkpt>
<trkpt lat="-27.27444" lon="151.2900637">
  <ele>343.13</ele>
  <time>2026-09-01T20:02:25Z</time>
  <course>10.68</course>
  <speed>0.04</speed>
  <fix>3d</fix>
</trkpt>
<trkpt lat="-27.2744398" lon="151.2900637">
  <ele>343.09</ele>
  <time>2026-09-01T20:02:25Z</time>
  <course>15.23</course>
  <speed>0.0</speed>
  <fix>3d</fix>
</trkpt>
<trkpt lat="20.9309901" lon="-155.1474817">
  <ele>163.51</ele>
  <time>2026-09-01T20:02:26Z</time>
  <course>178.93</course>
  <speed>0.0</speed>
  <fix>3d</fix>
</trkpt>
<trkpt lat="20.9309901" lon="-155.1474817">
  <ele>163.51</ele>
  <time>2026-09-01T20:02:26Z</time>
  <course>178.93</course>
  <speed>0.0</speed>
  <fix>3d</fix>
</trkpt>
<trkpt lat="21.1656422" lon="-156.8868015">
  <ele>-0.01</ele>
  <time>2026-09-01T20:02:26Z</time>
  <course>353.0</course>
  <speed>0.0</speed>
  <fix>3d</fix>
</trkpt>
<trkpt lat="21.1656422" lon="-156.8868015">
  <ele>165.35</ele>
  <time>2026-09-01T20:02:26Z</time>
  <course>179.96</course>
  <speed>0.0</speed>
  <fix>3d</fix>
</trkpt>
<trkpt lat="21.1656422" lon="-156.8868015">
  <ele>0.01</ele>
  <time>2026-09-01T20:02:26Z</time>
  <course>353.9</course>
  <speed>0.0</speed>
  <fix>3d</fix>
</trkpt>
<trkpt lat="21.1656422" lon="-156.8868015">
  <ele>165.35</ele>
  <time>2026-09-01T20:02:26Z</time>
  <course>179.96</course>
  <speed>0.0</speed>
  <fix>3d</fix>
</trkpt>
<trkpt lat="21.1656422" lon="-156.8868015">
  <ele>-0.07</ele>
  <time>2026-09-01T20:02:26Z</time>
  <course>354.71</course>
  <speed>0.0</speed>
  <fix>3d</fix>
</trkpt>
<trkpt lat="21.1656422" lon="-156.8868015">
  <ele>165.35</ele>
  <time>2026-09-01T20:02:26Z</time>
  <course>180.69</course>
  <speed>0.0</speed>
  <fix>3d</fix>
</trkpt>
<trkpt lat="21.1656422" lon="-156.8868015">
  <ele>0.22</ele>
  <time>2026-09-01T20:02:26Z</time>
  <course>355.46</course>
  <speed>0.0</speed>
  <fix>3d</fix>
</trkpt>
<trkpt lat="21.1656422" lon="-156.8868015">
  <ele>165.35</ele>
  <time>2026-09-01T20:02:26Z</time>
  <course>180.69</course>
  <speed>0.0</speed>
  <fix>3d</fix>
</trkpt>
<trkpt lat="21.1656422" lon="-156.8868015">
  <ele>0.1</ele>
  <time>2026-09-01T20:02:26Z</time>
  <course>356.14</course>
  <speed>0.0</speed>
  <fix>3d</fix>
</trkpt>
<trkpt lat="21.1656422" lon="-156.8868015">
  <ele>165.35</ele>
  <time>2026-09-01T20:02:26Z</time>
  <course>180.77</course>
  <speed>0.0</speed>
  <fix>3d</fix>
</trkpt>
<trkpt lat="21.1656422" lon="-156.8868015">
  <ele>0.08</ele>
  <time>2026-09-01T20:02:26Z</time>
  <course>356.76</course>
  <speed>0.0</speed>
  <fix>3d</fix>
</trkpt>
<trkpt lat="21.1656422" lon="-156.8868015">
  <ele>165.35</ele>
  <time>2026-09-01T20:02:26Z</time>
  <course>180.77</course>
  <speed>0.0</speed>
  <fix>3d</fix>
</trkpt>
<trkpt lat="21.1656422" lon="-156.8868015">
  <ele>0.09</ele>
  <time>2026-09-01T20:02:26Z</time>
  <course>357.33</course>
  <speed>0.0</speed>
  <fix>3d</fix>
</trkpt>
<trkpt lat="21.1656422" lon="-156.8868015">
  <ele>165.35</ele>
  <time>2026-09-01T20:02:26Z</time>
  <course>180.78</course>
  <speed>0.0</speed>
  <fix>3d</fix>
</trkpt>
<trkpt lat="21.1656422" lon="-156.8868015">
  <ele>-0.05</ele>
  <time>2026-09-01T20:02:26Z</time>
  <course>357.83</course>
  <speed>0.0</speed>
  <fix>3d</fix>
</trkpt>
<trkpt lat="21.1656422" lon="-156.8868015">
  <ele>165.35</ele>
  <time>2026-09-01T20:02:26Z</time>
  <course>180.78</course>
  <speed>0.0</speed>
  <fix>3d</fix>
</trkpt>
<trkpt lat="21.1656422" lon="-156.8868015">
  <ele>165.31</ele>
  <time>2026-09-01T20:02:26Z</time>
  <course>358.28</course>
  <speed>0.0</speed>
  <fix>3d</fix>
</trkpt>
<trkpt lat="21.1656422" lon="-156.8868015">
  <ele>165.35</ele>
  <time>2026-09-01T20:02:26Z</time>
  <course>180.78</course>
  <speed>0.0</speed>
  <fix>3d</fix>
</trkpt>
<trkpt lat="21.1656422" lon="-156.8868015">
  <ele>165.43</ele>
  <time>2026-09-01T20:02:26Z</time>
  <course>358.7</course>
  <speed>0.0</speed>
  <fix>3d</fix>
</trkpt>
<trkpt lat="21.1656422" lon="-156.8868015">
  <ele>165.35</ele>
  <time>2026-09-01T20:02:26Z</time>
  <course>180.78</course>
  <speed>0.0</speed>
  <fix>3d</fix>
</trkpt>
<trkpt lat="21.1656422" lon="-156.8868015">
  <ele>165.16</ele>
  <time>2026-09-01T20:02:26Z</time>
  <course>359.08</course>
  <speed>0.0</speed>
  <fix>3d</fix>
</trkpt>
<trkpt lat="21.1656422" lon="-156.8868015">
  <ele>165.35</ele>
  <time>2026-09-01T20:02:26Z</time>
  <course>180.78</course>
  <speed>0.0</speed>
  <fix>3d</fix>
</trkpt>
<trkpt lat="21.1656422" lon="-156.8868015">
  <ele>165.31</ele>
  <time>2026-09-01T20:02:26Z</time>
  <course>359.43</course>
  <speed>0.0</speed>
  <fix>3d</fix>
</trkpt>
<trkpt lat="21.1656422" lon="-156.8868015">
  <ele>165.35</ele>
  <time>2026-09-01T20:02:26Z</time>
  <course>180.78</course>
  <speed>0.0</speed>
  <fix>3d</fix>
</trkpt>
<trkpt lat="21.1656422" lon="-156.8868015">
  <ele>165.38</ele>
  <time>2026-09-01T20:02:26Z</time>
  <course>359.74</course>
  <speed>0.0</speed>
  <fix>3d</fix>
</trkpt>
<trkpt lat="21.1656422" lon="-156.8868015">
  <ele>165.35</ele>
  <time>2026-09-01T20:02:26Z</time>
  <course>180.78</course>
  <speed>0.0</speed>
  <fix>3d</fix>
</trkpt>
<trkpt lat="21.1656422" lon="-156.8868015">
  <ele>165.29</ele>
  <time>2026-09-01T20:02:26Z</time>
  <course>0.02</course>
  <speed>0.0</speed>
  <fix>3d</fix>
</trkpt>
<trkpt lat="21.1656422" lon="-156.8868015">
  <ele>165.35</ele>
  <time>2026-09-01T20:02:26Z</time>
  <course>180.78</course>
  <speed>0.0</speed>
  <fix>3d</fix>
</trkpt>
<trkpt lat="21.1656422" lon="-156.8868015">
  <ele>165.13</ele>
  <time>2026-09-01T20:02:26Z</time>
  <course>0.27</course>
  <speed>0.0</speed>
  <fix>3d</fix>
</trkpt>
<trkpt lat="21.1656422" lon="-156.8868015">
  <ele>165.35</ele>
  <time>2026-09-01T20:02:26Z</time>
  <course>180.78</course>
  <speed>0.0</speed>
  <fix>3d</fix>
</trkpt>
<trkpt lat="21.1656422" lon="-156.8868015">
  <ele>165.27</ele>
  <time>2026-09-01T20:02:26Z</time>
  <course>0.5</course>
  <speed>0.0</speed>
  <fix>3d</fix>
</trkpt>
<trkpt lat="21.1656422" lon="-156.8868015">
  <ele>165.35</ele>
  <time>2026-09-01T20:02:26Z</time>
  <course>180.78</course>
  <speed>0.0</speed>
  <fix>3d</fix>
</trkpt>
<trkpt lat="21.1656422" lon="-156.8868015">
  <ele>165.48</ele>
  <time>2026-09-01T20:02:26Z</time>
  <course>0.72</course>
  <speed>0.0</speed>
  <fix>3d</fix>
</trkpt>
<trkpt lat="21.1656422" lon="-156.8868015">
  <ele>165.35</ele>
  <time>2026-09-01T20:02:26Z</time>
  <course>180.78</course>
  <speed>0.0</speed>
  <fix>3d</fix>
</trkpt>
<trkpt lat="21.1656422" lon="-156.8868015">
  <ele>165.42</ele>
  <time>2026-09-01T20:02:26Z</time>
  <course>0.9</course>
  <speed>0.0</speed>
  <fix>3d</fix>
</trkpt>
<trkpt lat="21.1656422" lon="-156.8868015">
  <ele>165.35</ele>
  <time>2026-09-01T20:02:26Z</time>
  <course>180.78</course>
  <speed>0.0</speed>
  <fix>3d</fix>
</trkpt>
<trkpt lat="21.1656422" lon="-156.8868015">
  <ele>165.29</ele>
  <time>2026-09-01T20:02:26Z</time>
  <course>1.07</course>
  <speed>0.0</speed>
  <fix>3d</fix>
</trkpt>
<trkpt lat="21.1656422" lon="-156.8868015">
  <ele>165.35</ele>
  <time>2026-09-01T20:02:26Z</time>
  <course>180.78</course>
  <speed>0.0</speed>
  <fix>3d</fix>
</trkpt>
<trkpt lat="21.1656422" lon="-156.8868015">
  <ele>165.13</ele>
  <time>2026-09-01T20:02:26Z</time>
  <course>1.22</course>
  <speed>0.0</speed>
  <fix>3d</fix>
</trkpt>
<trkpt lat="21.1656422" lon="-156.8868015">
  <ele>165.35</ele>
  <time>2026-09-01T20:02:26Z</time>
  <course>180.78</course>
  <speed>0.0</speed>
  <fix>3d</fix>
</trkpt>
<trkpt lat="21.1656422" lon="-156.8868015">
  <ele>165.33</ele>
  <time>2026-09-01T20:02:26Z</time>
  <course>1.36</course>
  <speed>0.0</speed>
  <fix>3d</fix>
</trkpt>
<trkpt lat="21.1656422" lon="-156.8868015">
  <ele>165.35</ele>
  <time>2026-09-01T20:02:26Z</time>
  <course>180.78</course>
  <speed>0.0</speed>
  <fix>3d</fix>
</trkpt>
<trkpt lat="21.1656422" lon="-156.8868015">
  <ele>165.44</ele>
  <time>2026-09-01T20:02:26Z</time>
  <course>1.48</course>
  <speed>0.0</speed>
  <fix>3d</fix>
</trkpt>
<trkpt lat="21.1656422" lon="-156.8868015">
  <ele>165.35</ele>
  <time>2026-09-01T20:02:26Z</time>
  <course>180.78</course>
  <speed>0.0</speed>
  <fix>3d</fix>
</trkpt>
<trkpt lat="21.1656422" lon="-156.8868015">
  <ele>165.13</ele>
  <time>2026-09-01T20:02:26Z</time>
  <course>1.6</course>
  <speed>0.0</speed>
  <fix>3d</fix>
</trkpt>
<trkpt lat="21.1656422" lon="-156.8868015">
  <ele>165.35</ele>
  <time>2026-09-01T20:02:26Z</time>
  <course>180.78</course>
  <speed>0.0</speed>
  <fix>3d</fix>
</trkpt>
<trkpt lat="21.1656422" lon="-156.8868015">
  <ele>165.42</ele>
  <time>2026-09-01T20:02:26Z</time>
  <course>1.7</course>
  <speed>0.0</speed>
  <fix>3d</fix>
</trkpt>
<trkpt lat="21.1656422" lon="-156.8868015">
  <ele>165.35</ele>
  <time>2026-09-01T20:02:26Z</time>
  <course>180.78</course>
  <speed>0.0</speed>
  <fix>3d</fix>
</trkpt>
<trkpt lat="21.1656422" lon="-156.8868015">
  <ele>165.14</ele>
  <time>2026-09-01T20:02:26Z</time>
  <course>1.79</course>
  <speed>0.0</speed>
  <fix>3d</fix>
</trkpt>
<trkpt lat="21.1656422" lon="-156.8868015">
  <ele>165.35</ele>
  <time>2026-09-01T20:02:26Z</time>
  <course>180.78</course>
  <speed>0.0</speed>
  <fix>3d</fix>
</trkpt>
<trkpt lat="21.1656422" lon="-156.8868015">
  <ele>165.23</ele>
  <time>2026-09-01T20:02:26Z</time>
  <course>1.87</course>
  <speed>0.0</speed>
  <fix>3d</fix>
</trkpt>
<trkpt lat="21.1656422" lon="-156.8868015">
  <ele>165.35</ele>
  <time>2026-09-01T20:02:26Z</time>
  <course>180.78</course>
  <speed>0.0</speed>
  <fix>3d</fix>
</trkpt>
<trkpt lat="21.1656422" lon="-156.8868015">
  <ele>165.12</ele>
  <time>2026-09-01T20:02:26Z</time>
  <course>1.95</course>
  <speed>0.0</speed>
  <fix>3d</fix>
</trkpt>
<trkpt lat="21.1656422" lon="-156.8868015">
  <ele>165.35</ele>
  <time>2026-09-01T20:02:26Z</time>
  <course>180.78</course>
  <speed>0.0</speed>
  <fix>3d</fix>
</trkpt>
<trkpt lat="21.1656422" lon="-156.8868015">
  <ele>165.34</ele>
  <time>2026-09-01T20:02:26Z</time>
  <course>2.02</course>
  <speed>0.0</speed>
  <fix>3d</fix>
</trkpt>
<trkpt lat="21.1656422" lon="-156.8868015">
  <ele>165.35</ele>
  <time>2026-09-01T20:02:26Z</time>
  <course>180.78</course>
  <speed>0.0</speed>
  <fix>3d</fix>
</trkpt>
<trkpt lat="21.1656422" lon="-156.8868015">
  <ele>165.43</ele>
  <time>2026-09-01T20:02:26Z</time>
  <course>2.09</course>
  <speed>0.0</speed>
  <fix>3d</fix>
</trkpt>
<trkpt lat="21.1656422" lon="-156.8868015">
  <ele>165.35</ele>
  <time>2026-09-01T20:02:26Z</time>
  <course>180.78</course>
  <speed>0.0</speed>
  <fix>3d</fix>
</trkpt>
<trkpt lat="21.1656422" lon="-156.8868015">
  <ele>165.3</ele>
  <time>2026-09-01T20:02:26Z</time>
  <course>2.15</course>
  <speed>0.0</speed>
  <fix>3d</fix>
</trkpt>
<trkpt lat="21.1656422" lon="-156.8868015">
  <ele>165.35</ele>
  <time>2026-09-01T20:02:26Z</time>
  <course>180.78</course>
  <speed>0.0</speed>
  <fix>3d</fix>
</trkpt>
<trkpt lat="21.1656422" lon="-156.8868015">
  <ele>165.2</ele>
  <time>2026-09-01T20:02:26Z</time>
  <course>2.2</course>
  <speed>0.0</speed>
  <fix>3d</fix>
</trkpt>
<trkpt lat="21.1656422" lon="-156.8868015">
  <ele>165.35</ele>
  <time>2026-09-01T20:02:26Z</time>
  <course>180.78</course>
  <speed>0.0</speed>
  <fix>3d</fix>
</trkpt>
<trkpt lat="21.1656422" lon="-156.8868015">
  <ele>165.35</ele>
  <time>2026-09-01T20:02:26Z</time>
  <course>2.25</course>
  <speed>0.0</speed>
  <fix>3d</fix>
</trkpt>
<trkpt lat="21.1656422" lon="-156.8868015">
  <ele>165.35</ele>
  <time>2026-09-01T20:02:26Z</time>
  <course>180.78</course>
  <speed>0.0</speed>
  <fix>3d</fix>
</trkpt>
<trkpt lat="21.1656422" lon="-156.8868015">
  <ele>165.46</ele>
  <time>2026-09-01T20:02:26Z</time>
  <course>2.29</course>
  <speed>0.0</speed>
  <fix>3d</fix>
</trkpt>
<trkpt lat="21.1656422" lon="-156.8868015">
  <ele>165.35</ele>
  <time>2026-09-01T20:02:26Z</time>
  <course>180.78</course>
  <speed>0.0</speed>
  <fix>3d</fix>
</trkpt>
<trkpt lat="21.1656422" lon="-156.8868015">
  <ele>165.42</ele>
  <time>2026-09-01T20:02:26Z</time>
  <course>2.33</course>
  <speed>0.0</speed>
  <fix>3d</fix>
</trkpt>
<trkpt lat="21.1656422" lon="-156.8868015">
  <ele>165.35</ele>
  <time>2026-09-01T20:02:26Z</time>
  <course>180.78</course>
  <speed>0.0</speed>
  <fix>3d</fix>
</trkpt>
<trkpt lat="21.1656422" lon="-156.8868015">
  <ele>165.32</ele>
  <time>2026-09-01T20:02:26Z</time>
  <course>2.37</course>
  <speed>0.0</speed>
  <fix>3d</fix>
</trkpt>
<trkpt lat="21.1656422" lon="-156.8868015">
  <ele>165.35</ele>
  <time>2026-09-01T20:02:26Z</time>
  <course>180.78</course>
  <speed>0.0</speed>
  <fix>3d</fix>
</trkpt>
<trkpt lat="21.1656422" lon="-156.8868015">
  <ele>165.3</ele>
  <time>2026-09-01T20:02:26Z</time>
  <course>2.4</course>
  <speed>0.0</speed>
  <fix>3d</fix>
</trkpt>
<trkpt lat="21.1656422" lon="-156.8868015">
  <ele>165.35</ele>
  <time>2026-09-01T20:02:26Z</time>
  <course>180.78</course>
  <speed>0.0</speed>
  <fix>3d</fix>
</trkpt>
<trkpt lat="21.1656422" lon="-156.8868015">
  <ele>165.43</ele>
  <time>2026-09-01T20:02:26Z</time>
  <course>2.43</course>
  <speed>0.0</speed>
  <fix>3d</fix>
</trkpt>
<trkpt lat="21.1656422" lon="-156.8868015">
  <ele>165.35</ele>
  <time>2026-09-01T20:02:26Z</time>
  <course>180.78</course>
  <speed>0.0</speed>
  <fix>3d</fix>
</trkpt>
<trkpt lat="21.1656422" lon="-156.8868015">
  <ele>165.36</ele>
  <time>2026-09-01T20:02:26Z</time>
  <course>2.46</course>
  <speed>0.0</speed>
  <fix>3d</fix>
</trkpt>
<trkpt lat="21.1656422" lon="-156.8868015">
  <ele>165.35</ele>
  <time>2026-09-01T20:02:26Z</time>
  <course>180.78</course>
  <speed>0.0</speed>
  <fix>3d</fix>
</trkpt>
<trkpt lat="21.1656422" lon="-156.8868015">
  <ele>165.29</ele>
  <time>2026-09-01T20:02:26Z</time>
  <course>2.48</course>
  <speed>0.0</speed>
  <fix>3d</fix>
</trkpt>
<trkpt lat="21.1656422" lon="-156.8868015">
  <ele>165.35</ele>
  <time>2026-09-01T20:02:26Z</time>
  <course>180.78</course>
  <speed>0.0</speed>
  <fix>3d</fix>
</trkpt>
<trkpt lat="21.1656422" lon="-156.8868015">
  <ele>165.32</ele>
  <time>2026-09-01T20:02:26Z</time>
  <course>2.5</course>
  <speed>0.0</speed>
  <fix>3d</fix>
</trkpt>
<trkpt lat="21.1656422" lon="-156.8868015">
  <ele>165.35</ele>
  <time>2026-09-01T20:02:26Z</time>
  <course>180.78</course>
  <speed>0.0</speed>
  <fix>3d</fix>
</trkpt>
<trkpt lat="21.1656422" lon="-156.8868015">
  <ele>165.3</ele>
  <time>2026-09-01T20:02:26Z</time>
  <course>2.52</course>
  <speed>0.0</speed>
  <fix>3d</fix>
</trkpt>
<trkpt lat="21.1656422" lon="-156.8868015">
  <ele>165.35</ele>
  <time>2026-09-01T20:02:26Z</time>
  <course>180.78</course>
  <speed>0.0</speed>
  <fix>3d</fix>
</trkpt>
<trkpt lat="21.1656422" lon="-156.8868015">
  <ele>165.26</ele>
  <time>2026-09-01T20:02:26Z</time>
  <course>2.54</course>
  <speed>0.0</speed>
  <fix>3d</fix>
</trkpt>
<trkpt lat="21.1656422" lon="-156.8868015">
  <ele>165.35</ele>
  <time>2026-09-01T20:02:26Z</time>
  <course>180.78</course>
  <speed>0.0</speed>
  <fix>3d</fix>
</trkpt>
<trkpt lat="21.1656422" lon="-156.8868015">
  <ele>165.45</ele>
  <time>2026-09-01T20:02:26Z</time>
  <course>2.56</course>
  <speed>0.0</speed>
  <fix>3d</fix>
</trkpt>
<trkpt lat="21.1656422" lon="-156.8868015">
  <ele>165.35</ele>
  <time>2026-09-01T20:02:26Z</time>
  <course>180.78</course>
  <speed>0.0</speed>
  <fix>3d</fix>
</trkpt>
<trkpt lat="21.1656422" lon="-156.8868015">
  <ele>165.49</ele>
  <time>2026-09-01T20:02:27Z</time>
  <course>2.57</course>
  <speed>0.0</speed>
  <fix>3d</fix>
</trkpt>
<trkpt lat="21.1656422" lon="-156.8868015">
  <ele>165.35</ele>
  <time>2026-09-01T20:02:27Z</time>
  <course>180.78</course>
  <speed>0.0</speed>
  <fix>3d</fix>
</trkpt>
<trkpt lat="21.1656422" lon="-156.8868015">
  <ele>165.13</ele>
  <time>2026-09-01T20:02:27Z</time>
  <course>2.58</course>
  <speed>0.0</speed>
  <fix>3d</fix>
</trkpt>
<trkpt lat="21.1656422" lon="-156.8868015">
  <ele>165.35</ele>
  <time>2026-09-01T20:02:27Z</time>
  <course>180.78</course>
  <speed>0.0</speed>
  <fix>3d</fix>
</trkpt>
<trkpt lat="21.1656422" lon="-156.8868015">
  <ele>165.46</ele>
  <time>2026-09-01T20:02:27Z</time>
  <course>2.6</course>
  <speed>0.0</speed>
  <fix>3d</fix>
</trkpt>
<trkpt lat="21.1656422" lon="-156.8868015">
  <ele>165.35</ele>
  <time>2026-09-01T20:02:27Z</time>
  <course>180.78</course>
  <speed>0.0</speed>
  <fix>3d</fix>
</trkpt>
<trkpt lat="21.1656422" lon="-156.8868015">
  <ele>165.27</ele>
  <time>2026-09-01T20:02:27Z</time>
  <course>2.61</course>
  <speed>0.0</speed>
  <fix>3d</fix>
</trkpt>
<trkpt lat="21.1656422" lon="-156.8868015">
  <ele>165.35</ele>
  <time>2026-09-01T20:02:27Z</time>
  <course>180.78</course>
  <speed>0.0</speed>
  <fix>3d</fix>
</trkpt>
<trkpt lat="21.1656422" lon="-156.8868015">
  <ele>165.18</ele>
  <time>2026-09-01T20:02:27Z</time>
  <course>2.62</course>
  <speed>0.0</speed>
  <fix>3d</fix>
</trkpt>
<trkpt lat="21.1656422" lon="-156.8868015">
  <ele>165.35</ele>
  <time>2026-09-01T20:02:27Z</time>
  <course>180.78</course>
  <speed>0.0</speed>
  <fix>3d</fix>
</trkpt>
<trkpt lat="21.1656422" lon="-156.8868015">
  <ele>165.32</ele>
  <time>2026-09-01T20:02:27Z</time>
  <course>2.63</course>
  <speed>0.0</speed>
  <fix>3d</fix>
</trkpt>
<trkpt lat="21.1656422" lon="-156.8868015">
  <ele>165.35</ele>
  <time>2026-09-01T20:02:27Z</time>
  <course>180.78</course>
  <speed>0.0</speed>
  <fix>3d</fix>
</trkpt>
<trkpt lat="21.1656422" lon="-156.8868015">
  <ele>165.19</ele>
  <time>2026-09-01T20:02:27Z</time>
  <course>2.63</course>
  <speed>0.0</speed>
  <fix>3d</fix>
</trkpt>
<trkpt lat="21.1656422" lon="-156.8868015">
  <ele>165.35</ele>
  <time>2026-09-01T20:02:27Z</time>
  <course>180.78</course>
  <speed>0.0</speed>
  <fix>3d</fix>
</trkpt>
<trkpt lat="21.1656422" lon="-156.8868015">
  <ele>165.35</ele>
  <time>2026-09-01T20:02:27Z</time>
  <course>2.64</course>
  <speed>0.0</speed>
  <fix>3d</fix>
</trkpt>
<trkpt lat="21.1656422" lon="-156.8868015">
  <ele>165.35</ele>
  <time>2026-09-01T20:02:27Z</time>
  <course>180.78</course>
  <speed>0.0</speed>
  <fix>3d</fix>
</trkpt>
<trkpt lat="21.1656422" lon="-156.8868015">
  <ele>165.49</ele>
  <time>2026-09-01T20:02:27Z</time>
  <course>2.65</course>
  <speed>0.0</speed>
  <fix>3d</fix>
</trkpt>
<trkpt lat="21.1656422" lon="-156.8868015">
  <ele>165.35</ele>
  <time>2026-09-01T20:02:27Z</time>
  <course>180.78</course>
  <speed>0.0</speed>
  <fix>3d</fix>
</trkpt>
<trkpt lat="21.1656422" lon="-156.8868015">
  <ele>165.43</ele>
  <time>2026-09-01T20:02:27Z</time>
  <course>2.65</course>
  <speed>0.0</speed>
  <fix>3d</fix>
</trkpt>
<trkpt lat="21.1656422" lon="-156.8868015">
  <ele>165.35</ele>
  <time>2026-09-01T20:02:27Z</time>
  <course>180.78</course>
  <speed>0.0</speed>
  <fix>3d</fix>
</trkpt>
<trkpt lat="21.1656422" lon="-156.8868015">
  <ele>165.14</ele>
  <time>2026-09-01T20:02:27Z</time>
  <course>2.66</course>
  <speed>0.0</speed>
  <fix>3d</fix>
</trkpt>
<trkpt lat="21.1656422" lon="-156.8868015">
  <ele>165.35</ele>
  <time>2026-09-01T20:02:27Z</time>
  <course>180.78</course>
  <speed>0.0</speed>
  <fix>3d</fix>
</trkpt>
<trkpt lat="21.1656422" lon="-156.8868015">
  <ele>165.48</ele>
  <time>2026-09-01T20:02:27Z</time>
  <course>2.66</course>
  <speed>0.0</speed>
  <fix>3d</fix>
</trkpt>
<trkpt lat="21.1656422" lon="-156.8868015">
  <ele>165.35</ele>
  <time>2026-09-01T20:02:27Z</time>
  <course>180.78</course>
  <speed>0.0</speed>
  <fix>3d</fix>
</trkpt>
<trkpt lat="21.1656422" lon="-156.8868015">
  <ele>165.47</ele>
  <time>2026-09-01T20:02:27Z</time>
  <course>2.67</course>
  <speed>0.0</speed>
  <fix>3d</fix>
</trkpt>
<trkpt lat="21.1656422" lon="-156.8868015">
  <ele>165.35</ele>
  <time>2026-09-01T20:02:27Z</time>
  <course>180.78</course>
  <speed>0.0</speed>
  <fix>3d</fix>
</trkpt>
<trkpt lat="21.1656422" lon="-156.8868015">
  <ele>165.23</ele>
  <time>2026-09-01T20:02:27Z</time>
  <course>2.67</course>
  <speed>0.0</speed>
  <fix>3d</fix>
</trkpt>
<trkpt lat="21.1656422" lon="-156.8868015">
  <ele>165.35</ele>
  <time>2026-09-01T20:02:27Z</time>
  <course>180.78</course>
  <speed>0.0</speed>
  <fix>3d</fix>
</trkpt>
<trkpt lat="21.1656422" lon="-156.8868015">
  <ele>165.38</ele>
  <time>2026-09-01T20:02:27Z</time>
  <course>2.68</course>
  <speed>0.0</speed>
  <fix>3d</fix>
</trkpt>
<trkpt lat="21.1656422" lon="-156.8868015">
  <ele>165.35</ele>
  <time>2026-09-01T20:02:27Z</time>
  <course>180.78</course>
  <speed>0.0</speed>
  <fix>3d</fix>
</trkpt>
<trkpt lat="21.1656422" lon="-156.8868015">
  <ele>165.32</ele>
  <time>2026-09-01T20:02:27Z</time>
  <course>2.68</course>
  <speed>0.0</speed>
  <fix>3d</fix>
</trkpt>
<trkpt lat="21.1656422" lon="-156.8868015">
  <ele>165.35</ele>
  <time>2026-09-01T20:02:27Z</time>
  <course>180.78</course>
  <speed>0.0</speed>
  <fix>3d</fix>
</trkpt>
<trkpt lat="21.1656422" lon="-156.8868015">
  <ele>165.45</ele>
  <time>2026-09-01T20:02:27Z</time>
  <course>2.68</course>
  <speed>0.0</speed>
  <fix>3d</fix>
</trkpt>
<trkpt lat="21.1656422" lon="-156.8868015">
  <ele>165.35</ele>
  <time>2026-09-01T20:02:27Z</time>
  <course>180.78</course>
  <speed>0.0</speed>
  <fix>3d</fix>
</trkpt>
<trkpt lat="21.1656422" lon="-156.8868015">
  <ele>165.18</ele>
  <time>2026-09-01T20:02:27Z</time>
  <course>2.69</course>
  <speed>0.0</speed>
  <fix>3d</fix>
</trkpt>
<trkpt lat="21.1656422" lon="-156.8868015">
  <ele>165.35</ele>
  <time>2026-09-01T20:02:27Z</time>
  <course>180.78</course>
  <speed>0.0</speed>
  <fix>3d</fix>
</trkpt>
<trkpt lat="21.1656422" lon="-156.8868015">
  <ele>165.44</ele>
  <time>2026-09-01T20:02:27Z</time>
  <course>2.69</course>
  <speed>0.0</speed>
  <fix>3d</fix>
</trkpt>
<trkpt lat="21.1656422" lon="-156.8868015">
  <ele>165.35</ele>
  <time>2026-09-01T20:02:27Z</time>
  <course>180.78</course>
  <speed>0.0</speed>
  <fix>3d</fix>
</trkpt>
<trkpt lat="21.1656422" lon="-156.8868015">
  <ele>165.35</ele>
  <time>2026-09-01T20:02:27Z</time>
  <course>2.69</course>
  <speed>0.0</speed>
  <fix>3d</fix>
</trkpt>
<trkpt lat="21.1656422" lon="-156.8868015">
  <ele>165.35</ele>
  <time>2026-09-01T20:02:27Z</time>
  <course>180.78</course>
  <speed>0.0</speed>
  <fix>3d</fix>
</trkpt>
<trkpt lat="21.1656422" lon="-156.8868015">
  <ele>165.26</ele>
  <time>2026-09-01T20:02:27Z</time>
  <course>2.69</course>
  <speed>0.0</speed>
  <fix>3d</fix>
</trkpt>
<trkpt lat="21.1656422" lon="-156.8868015">
  <ele>165.35</ele>
  <time>2026-09-01T20:02:27Z</time>
  <course>180.78</course>
  <speed>0.0</speed>
  <fix>3d</fix>
</trkpt>
<trkpt lat="21.1656422" lon="-156.8868015">
  <ele>165.36</ele>
  <time>2026-09-01T20:02:27Z</time>
  <course>2.69</course>
  <speed>0.0</speed>
  <fix>3d</fix>
</trkpt>
<trkpt lat="21.1656422" lon="-156.8868015">
  <ele>165.35</ele>
  <time>2026-09-01T20:02:27Z</time>
  <course>180.78</course>
  <speed>0.0</speed>
  <fix>3d</fix>
</trkpt>
<trkpt lat="21.1656422" lon="-156.8868015">
  <ele>165.21</ele>
  <time>2026-09-01T20:02:27Z</time>
  <course>2.7</course>
  <speed>0.0</speed>
  <fix>3d</fix>
</trkpt>
<trkpt lat="21.1656422" lon="-156.8868015">
  <ele>165.35</ele>
  <time>2026-09-01T20:02:27Z</time>
  <course>180.78</course>
  <speed>0.0</speed>
  <fix>3d</fix>
</trkpt>
<trkpt lat="21.1656422" lon="-156.8868015">
  <ele>165.44</ele>
  <time>2026-09-01T20:02:27Z</time>
  <course>2.7</course>
  <speed>0.0</speed>
  <fix>3d</fix>
</trkpt>
<trkpt lat="21.1656422" lon="-156.8868015">
  <ele>165.35</ele>
  <time>2026-09-01T20:02:27Z</time>
  <course>180.78</course>
  <speed>0.0</speed>
  <fix>3d</fix>
</trkpt>
<trkpt lat="21.1656422" lon="-156.8868015">
  <ele>165.25</ele>
  <time>2026-09-01T20:02:27Z</time>
  <course>2.7</course>
  <speed>0.0</speed>
  <fix>3d</fix>
</trkpt>
<trkpt lat="21.1656422" lon="-156.8868015">
  <ele>165.35</ele>
  <time>2026-09-01T20:02:27Z</time>
  <course>180.78</course>
  <speed>0.0</speed>
  <fix>3d</fix>
</trkpt>
<trkpt lat="21.1656422" lon="-156.8868015">
  <ele>165.45</ele>
  <time>2026-09-01T20:02:27Z</time>
  <course>2.7</course>
  <speed>0.0</speed>
  <fix>3d</fix>
</trkpt>
<trkpt lat="21.1656422" lon="-156.8868015">
  <ele>165.35</ele>
  <time>2026-09-01T20:02:27Z</time>
  <course>180.78</course>
  <speed>0.0</speed>
  <fix>3d</fix>
</trkpt>
<trkpt lat="21.1656422" lon="-156.8868015">
  <ele>165.45</ele>
  <time>2026-09-01T20:02:27Z</time>
  <course>2.7</course>
  <speed>0.0</speed>
  <fix>3d</fix>
</trkpt>
<trkpt lat="21.1656422" lon="-156.8868015">
  <ele>165.35</ele>
  <time>2026-09-01T20:02:27Z</time>
  <course>180.78</course>
  <speed>0.0</speed>
  <fix>3d</fix>
</trkpt>
<trkpt lat="21.1656422" lon="-156.8868015">
  <ele>165.38</ele>
  <time>2026-09-01T20:02:27Z</time>
  <course>2.7</course>
  <speed>0.0</speed>
  <fix>3d</fix>
</trkpt>
<trkpt lat="21.1656422" lon="-156.8868015">
  <ele>165.35</ele>
  <time>2026-09-01T20:02:27Z</time>
  <course>180.78</course>
  <speed>0.0</speed>
  <fix>3d</fix>
</trkpt>
<trkpt lat="21.1656422" lon="-156.8868015">
  <ele>165.35</ele>
  <time>2026-09-01T20:02:27Z</time>
  <course>2.7</course>
  <speed>0.0</speed>
  <fix>3d</fix>
</trkpt>
<trkpt lat="21.1656422" lon="-156.8868015">
  <ele>165.35</ele>
  <time>2026-09-01T20:02:27Z</time>
  <course>180.78</course>
  <speed>0.0</speed>
  <fix>3d</fix>
</trkpt>
<trkpt lat="21.1656422" lon="-156.8868015">
  <ele>165.37</ele>
  <time>2026-09-01T20:02:27Z</time>
  <course>2.7</course>
  <speed>0.0</speed>
  <fix>3d</fix>
</trkpt>
<trkpt lat="21.1656422" lon="-156.8868015">
  <ele>165.35</ele>
  <time>2026-09-01T20:02:27Z</time>
  <course>180.78</course>
  <speed>0.0</speed>
  <fix>3d</fix>
</trkpt>
<trkpt lat="21.1656422" lon="-156.8868015">
  <ele>165.19</ele>
  <time>2026-09-01T20:02:27Z</time>
  <course>2.71</course>
  <speed>0.0</speed>
  <fix>3d</fix>
</trkpt>
<trkpt lat="21.1656422" lon="-156.8868015">
  <ele>165.35</ele>
  <time>2026-09-01T20:02:27Z</time>
  <course>180.78</course>
  <speed>0.0</speed>
  <fix>3d</fix>
</trkpt>
<trkpt lat="21.1656422" lon="-156.8868015">
  <ele>165.5</ele>
  <time>2026-09-01T20:02:27Z</time>
  <course>2.71</course>
  <speed>0.0</speed>
  <fix>3d</fix>
</trkpt>
<trkpt lat="21.1656422" lon="-156.8868015">
  <ele>165.35</ele>
  <time>2026-09-01T20:02:27Z</time>
  <course>180.78</course>
  <speed>0.0</speed>
  <fix>3d</fix>
</trkpt>
<trkpt lat="21.1656422" lon="-156.8868015">
  <ele>165.17</ele>
  <time>2026-09-01T20:02:27Z</time>
  <course>2.71</course>
  <speed>0.0</speed>
  <fix>3d</fix>
</trkpt>
<trkpt lat="21.1656422" lon="-156.8868015">
  <ele>165.35</ele>
  <time>2026-09-01T20:02:27Z</time>
  <course>180.78</course>
  <speed>0.0</speed>
  <fix>3d</fix>
</trkpt>
<trkpt lat="21.1656422" lon="-156.8868015">
  <ele>165.33</ele>
  <time>2026-09-01T20:02:27Z</time>
  <course>2.71</course>
  <speed>0.0</speed>
  <fix>3d</fix>
</trkpt>
<trkpt lat="21.1656422" lon="-156.8868015">
  <ele>165.35</ele>
  <time>2026-09-01T20:02:27Z</time>
  <course>180.78</course>
  <speed>0.0</speed>
  <fix>3d</fix>
</trkpt>
<trkpt lat="21.1656422" lon="-156.8868015">
  <ele>165.48</ele>
  <time>2026-09-01T20:02:27Z</time>
  <course>2.71</course>
  <speed>0.0</speed>
  <fix>3d</fix>
</trkpt>
<trkpt lat="21.1656422" lon="-156.8868015">
  <ele>165.35</ele>
  <time>2026-09-01T20:02:27Z</time>
  <course>180.78</course>
  <speed>0.0</speed>
  <fix>3d</fix>
</trkpt>
<trkpt lat="21.1656422" lon="-156.8868015">
  <ele>165.26</ele>
  <time>2026-09-01T20:02:27Z</time>
  <course>2.71</course>
  <speed>0.0</speed>
  <fix>3d</fix>
</trkpt>
<trkpt lat="21.1656422" lon="-156.8868015">
  <ele>165.35</ele>
  <time>2026-09-01T20:02:27Z</time>
  <course>180.78</course>
  <speed>0.0</speed>
  <fix>3d</fix>
</trkpt>
<trkpt lat="21.1656422" lon="-156.8868015">
  <ele>165.35</ele>
  <time>2026-09-01T20:02:27Z</time>
  <course>2.71</course>
  <speed>0.0</speed>
  <fix>3d</fix>
</trkpt>
<trkpt lat="21.1656422" lon="-156.8868015">
  <ele>165.35</ele>
  <time>2026-09-01T20:02:27Z</time>
  <course>180.78</course>
  <speed>0.0</speed>
  <fix>3d</fix>
</trkpt>
<trkpt lat="21.1656422" lon="-156.8868015">
  <ele>165.24</ele>
  <time>2026-09-01T20:02:27Z</time>
  <course>2.71</course>
  <speed>0.0</speed>
  <fix>3d</fix>
</trkpt>
<trkpt lat="21.1656422" lon="-156.8868015">
  <ele>165.35</ele>
  <time>2026-09-01T20:02:27Z</time>
  <course>180.78</course>
  <speed>0.0</speed>
  <fix>3d</fix>
</trkpt>
<trkpt lat="21.1656422" lon="-156.8868015">
  <ele>165.12</ele>
  <time>2026-09-01T20:02:27Z</time>
  <course>2.71</course>
  <speed>0.0</speed>
  <fix>3d</fix>
</trkpt>
<trkpt lat="21.1656422" lon="-156.8868015">
  <ele>165.35</ele>
  <time>2026-09-01T20:02:27Z</time>
  <course>180.78</course>
  <speed>0.0</speed>
  <fix>3d</fix>
</trkpt>
<trkpt lat="21.1656422" lon="-156.8868015">
  <ele>165.36</ele>
  <time>2026-09-01T20:02:27Z</time>
  <course>2.71</course>
  <speed>0.0</speed>
  <fix>3d</fix>
</trkpt>
<trkpt lat="21.1656422" lon="-156.8868015">
  <ele>165.35</ele>
  <time>2026-09-01T20:02:27Z</time>
  <course>180.78</course>
  <speed>0.0</speed>
  <fix>3d</fix>
</trkpt>
<trkpt lat="21.1656422" lon="-156.8868015">
  <ele>165.24</ele>
  <time>2026-09-01T20:02:27Z</time>
  <course>2.71</course>
  <speed>0.0</speed>
  <fix>3d</fix>
</trkpt>
<trkpt lat="21.1656422" lon="-156.8868015">
  <ele>165.35</ele>
  <time>2026-09-01T20:02:27Z</time>
  <course>180.78</course>
  <speed>0.0</speed>
  <fix>3d</fix>
</trkpt>
<trkpt lat="21.1656422" lon="-156.8868015">
  <ele>165.16</ele>
  <time>2026-09-01T20:02:27Z</time>
  <course>2.71</course>
  <speed>0.0</speed>
  <fix>3d</fix>
</trkpt>
<trkpt lat="21.1656422" lon="-156.8868015">
  <ele>165.35</ele>
  <time>2026-09-01T20:02:27Z</time>
  <course>180.78</course>
  <speed>0.0</speed>
  <fix>3d</fix>
</trkpt>
<trkpt lat="21.1656422" lon="-156.8868015">
  <ele>165.15</ele>
  <time>2026-09-01T20:02:27Z</time>
  <course>2.72</course>
  <speed>0.0</speed>
  <fix>3d</fix>
</trkpt>
<trkpt lat="21.1656422" lon="-156.8868015">
  <ele>165.35</ele>
  <time>2026-09-01T20:02:27Z</time>
  <course>180.78</course>
  <speed>0.0</speed>
  <fix>3d</fix>
</trkpt>
<trkpt lat="21.1656422" lon="-156.8868015">
  <ele>165.12</ele>
  <time>2026-09-01T20:02:27Z</time>
  <course>2.72</course>
  <speed>0.0</speed>
  <fix>3d</fix>
</trkpt>
<trkpt lat="21.1656422" lon="-156.8868015">
  <ele>165.35</ele>
  <time>2026-09-01T20:02:27Z</time>
  <course>180.78</course>
  <speed>0.0</speed>
  <fix>3d</fix>
</trkpt>
<trkpt lat="21.1656422" lon="-156.8868015">
  <ele>165.37</ele>
  <time>2026-09-01T20:02:27Z</time>
  <course>2.72</course>
  <speed>0.0</speed>
  <fix>3d</fix>
</trkpt>
<trkpt lat="21.1656422" lon="-156.8868015">
  <ele>165.35</ele>
  <time>2026-09-01T20:02:27Z</time>
  <course>180.78</course>
  <speed>0.0</speed>
  <fix>3d</fix>
</trkpt>
<trkpt lat="21.1656422" lon="-156.8868015">
  <ele>165.24</ele>
  <time>2026-09-01T20:02:27Z</time>
  <course>2.72</course>
  <speed>0.0</speed>
  <fix>3d</fix>
</trkpt>
<trkpt lat="21.1656422" lon="-156.8868015">
  <ele>165.35</ele>
  <time>2026-09-01T20:02:27Z</time>
  <course>180.78</course>
  <speed>0.0</speed>
  <fix>3d</fix>
</trkpt>
<trkpt lat="21.1656422" lon="-156.8868015">
  <ele>165.38</ele>
  <time>2026-09-01T20:02:27Z</time>
  <course>2.72</course>
  <speed>0.0</speed>
  <fix>3d</fix>
</trkpt>
<trkpt lat="21.1656422" lon="-156.8868015">
  <ele>165.35</ele>
  <time>2026-09-01T20:02:27Z</time>
  <course>180.78</course>
  <speed>0.0</speed>
  <fix>3d</fix>
</trkpt>
<trkpt lat="21.1656422" lon="-156.8868015">
  <ele>165.25</ele>
  <time>2026-09-01T20:02:27Z</time>
  <course>2.72</course>
  <speed>0.0</speed>
  <fix>3d</fix>
</trkpt>
<trkpt lat="21.1656422" lon="-156.8868015">
  <ele>165.35</ele>
  <time>2026-09-01T20:02:27Z</time>
  <course>180.78</course>
  <speed>0.0</speed>
  <fix>3d</fix>
</trkpt>
<trkpt lat="21.1656422" lon="-156.8868015">
  <ele>165.41</ele>
  <time>2026-09-01T20:02:27Z</time>
  <course>2.72</course>
  <speed>0.0</speed>
  <fix>3d</fix>
</trkpt>
<trkpt lat="21.1656422" lon="-156.8868015">
  <ele>165.35</ele>
  <time>2026-09-01T20:02:27Z</time>
  <course>180.78</course>
  <speed>0.0</speed>
  <fix>3d</fix>
</trkpt>
<trkpt lat="21.1656422" lon="-156.8868015">
  <ele>165.24</ele>
  <time>2026-09-01T20:02:27Z</time>
  <course>2.72</course>
  <speed>0.0</speed>
  <fix>3d</fix>
</trkpt>
<trkpt lat="21.1656422" lon="-156.8868015">
  <ele>165.35</ele>
  <time>2026-09-01T20:02:27Z</time>
  <course>180.78</course>
  <speed>0.0</speed>
  <fix>3d</fix>
</trkpt>
<trkpt lat="21.1656422" lon="-156.8868015">
  <ele>165.24</ele>
  <time>2026-09-01T20:02:27Z</time>
  <course>2.72</course>
  <speed>0.0</speed>
  <fix>3d</fix>
</trkpt>
<trkpt lat="21.1656422" lon="-156.8868015">
  <ele>165.35</ele>
  <time>2026-09-01T20:02:27Z</time>
  <course>180.78</course>
  <speed>0.0</speed>
  <fix>3d</fix>
</trkpt>
<trkpt lat="21.1656422" lon="-156.8868015">
  <ele>165.42</ele>
  <time>2026-09-01T20:02:27Z</time>
  <course>2.72</course>
  <speed>0.0</speed>
  <fix>3d</fix>
</trkpt>
<trkpt lat="21.1656422" lon="-156.8868015">
  <ele>165.35</ele>
  <time>2026-09-01T20:02:27Z</time>
  <course>180.78</course>
  <speed>0.0</speed>
  <fix>3d</fix>
</trkpt>
<trkpt lat="21.1656422" lon="-156.8868015">
  <ele>165.41</ele>
  <time>2026-09-01T20:02:27Z</time>
  <course>2.72</course>
  <speed>0.0</speed>
  <fix>3d</fix>
</trkpt>
<trkpt lat="21.1656422" lon="-156.8868015">
  <ele>165.35</ele>
  <time>2026-09-01T20:02:27Z</time>
  <course>180.78</course>
  <speed>0.0</speed>
  <fix>3d</fix>
</trkpt>
<trkpt lat="21.1656422" lon="-156.8868015">
  <ele>165.12</ele>
  <time>2026-09-01T20:02:27Z</time>
  <course>2.72</course>
  <speed>0.0</speed>
  <fix>3d</fix>
</trkpt>
<trkpt lat="21.1656422" lon="-156.8868015">
  <ele>165.35</ele>
  <time>2026-09-01T20:02:27Z</time>
  <course>180.78</course>
  <speed>0.0</speed>
  <fix>3d</fix>
</trkpt>
<trkpt lat="21.1656422" lon="-156.8868015">
  <ele>165.44</ele>
  <time>2026-09-01T20:02:27Z</time>
  <course>2.72</course>
  <speed>0.0</speed>
  <fix>3d</fix>
</trkpt>
<trkpt lat="21.1656422" lon="-156.8868015">
  <ele>165.35</ele>
  <time>2026-09-01T20:02:27Z</time>
  <course>180.78</course>
  <speed>0.0</speed>
  <fix>3d</fix>
</trkpt>
<trkpt lat="21.1656422" lon="-156.8868015">
  <ele>165.41</ele>
  <time>2026-09-01T20:02:27Z</time>
  <course>2.72</course>
  <speed>0.0</speed>
  <fix>3d</fix>
</trkpt>
<trkpt lat="21.1656422" lon="-156.8868015">
  <ele>165.35</ele>
  <time>2026-09-01T20:02:27Z</time>
  <course>180.78</course>
  <speed>0.0</speed>
  <fix>3d</fix>
</trkpt>
<trkpt lat="21.1656422" lon="-156.8868015">
  <ele>165.46</ele>
  <time>2026-09-01T20:02:27Z</time>
  <course>2.72</course>
  <speed>0.0</speed>
  <fix>3d</fix>
</trkpt>
<trkpt lat="21.1656422" lon="-156.8868015">
  <ele>165.35</ele>
  <time>2026-09-01T20:02:27Z</time>
  <course>180.78</course>
  <speed>0.0</speed>
  <fix>3d</fix>
</trkpt>
<trkpt lat="21.1656422" lon="-156.8868015">
  <ele>165.47</ele>
  <time>2026-09-01T20:02:27Z</time>
  <course>2.72</course>
  <speed>0.0</speed>
  <fix>3d</fix>
</trkpt>
<trkpt lat="21.1656422" lon="-156.8868015">
  <ele>165.35</ele>
  <time>2026-09-01T20:02:27Z</time>
  <course>180.78</course>
  <speed>0.0</speed>
  <fix>3d</fix>
</trkpt>
<trkpt lat="21.1656422" lon="-156.8868015">
  <ele>165.49</ele>
  <time>2026-09-01T20:02:27Z</time>
  <course>2.72</course>
  <speed>0.0</speed>
  <fix>3d</fix>
</trkpt>
<trkpt lat="21.1656422" lon="-156.8868015">
  <ele>165.35</ele>
  <time>2026-09-01T20:02:27Z</time>
  <course>180.78</course>
  <speed>0.0</speed>
  <fix>3d</fix>
</trkpt>
<trkpt lat="21.1656422" lon="-156.8868015">
  <ele>165.25</ele>
  <time>2026-09-01T20:02:27Z</time>
  <course>2.72</course>
  <speed>0.0</speed>
  <fix>3d</fix>
</trkpt>
<trkpt lat="21.1656422" lon="-156.8868015">
  <ele>165.35</ele>
  <time>2026-09-01T20:02:27Z</time>
  <course>180.78</course>
  <speed>0.0</speed>
  <fix>3d</fix>
</trkpt>
<trkpt lat="21.1656422" lon="-156.8868015">
  <ele>165.35</ele>
  <time>2026-09-01T20:02:27Z</time>
  <course>2.72</course>
  <speed>0.0</speed>
  <fix>3d</fix>
</trkpt>
<trkpt lat="21.1656422" lon="-156.8868015">
  <ele>165.35</ele>
  <time>2026-09-01T20:02:27Z</time>
  <course>180.78</course>
  <speed>0.0</speed>
  <fix>3d</fix>
</trkpt>
<trkpt lat="21.1656422" lon="-156.8868015">
  <ele>165.3</ele>
  <time>2026-09-01T20:02:27Z</time>
  <course>2.72</course>
  <speed>0.0</speed>
  <fix>3d</fix>
</trkpt>
<trkpt lat="21.1656422" lon="-156.8868015">
  <ele>165.35</ele>
  <time>2026-09-01T20:02:27Z</time>
  <course>180.78</course>
  <speed>0.0</speed>
  <fix>3d</fix>
</trkpt>
<trkpt lat="21.1656422" lon="-156.8868015">
  <ele>165.12</ele>
  <time>2026-09-01T20:02:27Z</time>
  <course>2.72</course>
  <speed>0.0</speed>
  <fix>3d</fix>
</trkpt>
<trkpt lat="21.1656422" lon="-156.8868015">
  <ele>165.35</ele>
  <time>2026-09-01T20:02:27Z</time>
  <course>180.78</course>
  <speed>0.0</speed>
  <fix>3d</fix>
</trkpt>
<trkpt lat="21.1656422" lon="-156.8868015">
  <ele>165.17</ele>
  <time>2026-09-01T20:02:27Z</time>
  <course>2.72</course>
  <speed>0.0</speed>
  <fix>3d</fix>
</trkpt>
<trkpt lat="21.1656422" lon="-156.8868015">
  <ele>165.35</ele>
  <time>2026-09-01T20:02:27Z</time>
  <course>180.78</course>
  <speed>0.0</speed>
  <fix>3d</fix>
</trkpt>
<trkpt lat="21.1656422" lon="-156.8868015">
  <ele>165.21</ele>
  <time>2026-09-01T20:02:27Z</time>
  <course>2.72</course>
  <speed>0.0</speed>
  <fix>3d</fix>
</trkpt>
<trkpt lat="21.1656422" lon="-156.8868015">
  <ele>165.35</ele>
  <time>2026-09-01T20:02:27Z</time>
  <course>180.78</course>
  <speed>0.0</speed>
  <fix>3d</fix>
</trkpt>
<trkpt lat="21.1656422" lon="-156.8868015">
  <ele>165.4</ele>
  <time>2026-09-01T20:02:27Z</time>
  <course>2.72</course>
  <speed>0.0</speed>
  <fix>3d</fix>
</trkpt>
<trkpt lat="21.1656422" lon="-156.8868015">
  <ele>165.35</ele>
  <time>2026-09-01T20:02:27Z</time>
  <course>180.78</course>
  <speed>0.0</speed>
  <fix>3d</fix>
</trkpt>
<trkpt lat="21.1656422" lon="-156.8868015">
  <ele>165.41</ele>
  <time>2026-09-01T20:02:27Z</time>
  <course>2.72</course>
  <speed>0.0</speed>
  <fix>3d</fix>
</trkpt>
<trkpt lat="21.1656422" lon="-156.8868015">
  <ele>165.35</ele>
  <time>2026-09-01T20:02:27Z</time>
  <course>180.78</course>
  <speed>0.0</speed>
  <fix>3d</fix>
</trkpt>
<trkpt lat="21.1656422" lon="-156.8868015">
  <ele>165.44</ele>
  <time>2026-09-01T20:02:27Z</time>
  <course>2.73</course>
  <speed>0.0</speed>
  <fix>3d</fix>
</trkpt>
<trkpt lat="21.1656422" lon="-156.8868015">
  <ele>165.35</ele>
  <time>2026-09-01T20:02:27Z</time>
  <course>180.78</course>
  <speed>0.0</speed>
  <fix>3d</fix>
</trkpt>
<trkpt lat="21.1656422" lon="-156.8868015">
  <ele>165.38</ele>
  <time>2026-09-01T20:02:27Z</time>
  <course>2.73</course>
  <speed>0.0</speed>
  <fix>3d</fix>
</trkpt>
<trkpt lat="21.1656422" lon="-156.8868015">
  <ele>165.35</ele>
  <time>2026-09-01T20:02:27Z</time>
  <course>180.78</course>
  <speed>0.0</speed>
  <fix>3d</fix>
</trkpt>
<trkpt lat="21.1656422" lon="-156.8868015">
  <ele>165.34</ele>
  <time>2026-09-01T20:02:27Z</time>
  <course>2.7</course>
  <speed>0.0</speed>
  <fix>3d</fix>
</trkpt>
<trkpt lat="21.1656422" lon="-156.8868015">
  <ele>165.35</ele>
  <time>2026-09-01T20:02:27Z</time>
  <course>180.78</course>
  <speed>0.0</speed>
  <fix>3d</fix>
</trkpt>
<trkpt lat="21.1656422" lon="-156.8868015">
  <ele>165.34</ele>
  <time>2026-09-01T20:02:27Z</time>
  <course>2.7</course>
  <speed>0.0</speed>
  <fix>3d</fix>
</trkpt>
<trkpt lat="21.1656422" lon="-156.8868015">
  <ele>165.35</ele>
  <time>2026-09-01T20:02:27Z</time>
  <course>180.78</course>
  <speed>0.0</speed>
  <fix>3d</fix>
</trkpt>
<trkpt lat="21.1656422" lon="-156.8868015">
  <ele>165.35</ele>
  <time>2026-09-01T20:02:27Z</time>
  <course>2.7</course>
  <speed>0.0</speed>
  <fix>3d</fix>
</trkpt>
<trkpt lat="21.1656422" lon="-156.8868015">
  <ele>165.35</ele>
  <time>2026-09-01T20:02:27Z</time>
  <course>180.78</course>
  <speed>0.0</speed>
  <fix>3d</fix>
</trkpt>
<trkpt lat="21.1656422" lon="-156.8868015">
  <ele>165.35</ele>
  <time>2026-09-01T20:02:27Z</time>
  <course>2.7</course>
  <speed>0.0</speed>
  <fix>3d</fix>
</trkpt>
<trkpt lat="21.1656422" lon="-156.8868015">
  <ele>165.35</ele>
  <time>2026-09-01T20:02:27Z</time>
  <course>180.78</course>
  <speed>0.0</speed>
  <fix>3d</fix>
</trkpt>
<trkpt lat="21.1656422" lon="-156.8868015">
  <ele>165.35</ele>
  <time>2026-09-01T20:02:27Z</time>
  <course>2.7</course>
  <speed>0.0</speed>
  <fix>3d</fix>
</trkpt>
<trkpt lat="21.1656422" lon="-156.8868015">
  <ele>165.35</ele>
  <time>2026-09-01T20:02:27Z</time>
  <course>180.78</course>
  <speed>0.0</speed>
  <fix>3d</fix>
</trkpt>
<trkpt lat="21.1656422" lon="-156.8868015">
  <ele>165.35</ele>
  <time>2026-09-01T20:02:27Z</time>
  <course>2.7</course>
  <speed>0.0</speed>
  <fix>3d</fix>
</trkpt>
<trkpt lat="21.1656422" lon="-156.8868015">
  <ele>165.35</ele>
  <time>2026-09-01T20:02:27Z</time>
  <course>180.78</course>
  <speed>0.0</speed>
  <fix>3d</fix>
</trkpt>
<trkpt lat="21.1656422" lon="-156.8868015">
  <ele>165.35</ele>
  <time>2026-09-01T20:02:27Z</time>
  <course>2.7</course>
  <speed>0.0</speed>
  <fix>3d</fix>
</trkpt>
<trkpt lat="21.1656422" lon="-156.8868015">
  <ele>165.35</ele>
  <time>2026-09-01T20:02:27Z</time>
  <course>180.78</course>
  <speed>0.0</speed>
  <fix>3d</fix>
</trkpt>
<trkpt lat="21.1656422" lon="-156.8868015">
  <ele>165.36</ele>
  <time>2026-09-01T20:02:27Z</time>
  <course>2.7</course>
  <speed>0.0</speed>
  <fix>3d</fix>
</trkpt>
<trkpt lat="21.1656422" lon="-156.8868015">
  <ele>165.35</ele>
  <time>2026-09-01T20:02:27Z</time>
  <course>180.78</course>
  <speed>0.0</speed>
  <fix>3d</fix>
</trkpt>
<trkpt lat="21.1656422" lon="-156.8868015">
  <ele>165.36</ele>
  <time>2026-09-01T20:02:27Z</time>
  <course>2.7</course>
  <speed>0.0</speed>
  <fix>3d</fix>
</trkpt>
<trkpt lat="21.1656422" lon="-156.8868015">
  <ele>165.35</ele>
  <time>2026-09-01T20:02:27Z</time>
  <course>180.78</course>
  <speed>0.0</speed>
  <fix>3d</fix>
</trkpt>
<trkpt lat="21.1656422" lon="-156.8868015">
  <ele>165.36</ele>
  <time>2026-09-01T20:02:27Z</time>
  <course>2.7</course>
  <speed>0.0</speed>
  <fix>3d</fix>
</trkpt>
<trkpt lat="21.1656422" lon="-156.8868015">
  <ele>165.35</ele>
  <time>2026-09-01T20:02:27Z</time>
  <course>180.78</course>
  <speed>0.0</speed>
  <fix>3d</fix>
</trkpt>
<trkpt lat="21.1656422" lon="-156.8868015">
  <ele>165.37</ele>
  <time>2026-09-01T20:02:27Z</time>
  <course>2.7</course>
  <speed>0.0</speed>
  <fix>3d</fix>
</trkpt>
<trkpt lat="21.1656422" lon="-156.8868015">
  <ele>165.35</ele>
  <time>2026-09-01T20:02:27Z</time>
  <course>180.78</course>
  <speed>0.0</speed>
  <fix>3d</fix>
</trkpt>
<trkpt lat="21.1656422" lon="-156.8868015">
  <ele>165.37</ele>
  <time>2026-09-01T20:02:27Z</time>
  <course>2.7</course>
  <speed>0.0</speed>
  <fix>3d</fix>
</trkpt>
<trkpt lat="21.1656422" lon="-156.8868015">
  <ele>165.35</ele>
  <time>2026-09-01T20:02:27Z</time>
  <course>180.78</course>
  <speed>0.0</speed>
  <fix>3d</fix>
</trkpt>
<trkpt lat="21.1656422" lon="-156.8868015">
  <ele>165.35</ele>
  <time>2026-09-01T20:02:27Z</time>
  <course>2.7</course>
  <speed>0.0</speed>
  <fix>3d</fix>
</trkpt>
<trkpt lat="21.1656422" lon="-156.8868015">
  <ele>165.35</ele>
  <time>2026-09-01T20:02:27Z</time>
  <course>180.78</course>
  <speed>0.0</speed>
  <fix>3d</fix>
</trkpt>
<trkpt lat="21.1656422" lon="-156.8868015">
  <ele>165.35</ele>
  <time>2026-09-01T20:02:27Z</time>
  <course>2.7</course>
  <speed>0.0</speed>
  <fix>3d</fix>
</trkpt>
<trkpt lat="21.1656422" lon="-156.8868015">
  <ele>165.35</ele>
  <time>2026-09-01T20:02:27Z</time>
  <course>180.78</course>
  <speed>0.0</speed>
  <fix>3d</fix>
</trkpt>
<trkpt lat="21.1656422" lon="-156.8868015">
  <ele>165.35</ele>
  <time>2026-09-01T20:02:27Z</time>
  <course>2.7</course>
  <speed>0.0</speed>
  <fix>3d</fix>
</trkpt>
<trkpt lat="21.1656422" lon="-156.8868015">
  <ele>165.35</ele>
  <time>2026-09-01T20:02:27Z</time>
  <course>180.78</course>
  <speed>0.0</speed>
  <fix>3d</fix>
</trkpt>
<trkpt lat="21.1656422" lon="-156.8868015">
  <ele>165.34</ele>
  <time>2026-09-01T20:02:27Z</time>
  <course>2.7</course>
  <speed>0.0</speed>
  <fix>3d</fix>
</trkpt>
<trkpt lat="21.1656422" lon="-156.8868015">
  <ele>165.35</ele>
  <time>2026-09-01T20:02:27Z</time>
  <course>180.78</course>
  <speed>0.0</speed>
  <fix>3d</fix>
</trkpt>
<trkpt lat="21.1656422" lon="-156.8868015">
  <ele>165.34</ele>
  <time>2026-09-01T20:02:27Z</time>
  <course>2.7</course>
  <speed>0.0</speed>
  <fix>3d</fix>
</trkpt>
<trkpt lat="21.1656422" lon="-156.8868015">
  <ele>165.35</ele>
  <time>2026-09-01T20:02:27Z</time>
  <course>180.78</course>
  <speed>0.0</speed>
  <fix>3d</fix>
</trkpt>
<trkpt lat="21.1656422" lon="-156.8868015">
  <ele>165.34</ele>
  <time>2026-09-01T20:02:27Z</time>
  <course>2.7</course>
  <speed>0.0</speed>
  <fix>3d</fix>
</trkpt>
<trkpt lat="21.1656422" lon="-156.8868015">
  <ele>165.35</ele>
  <time>2026-09-01T20:02:27Z</time>
  <course>180.78</course>
  <speed>0.0</speed>
  <fix>3d</fix>
</trkpt>
<trkpt lat="21.1656422" lon="-156.8868015">
  <ele>165.34</ele>
  <time>2026-09-01T20:02:27Z</time>
  <course>2.7</course>
  <speed>0.0</speed>
  <fix>3d</fix>
</trkpt>
<trkpt lat="21.1656422" lon="-156.8868015">
  <ele>165.35</ele>
  <time>2026-09-01T20:02:27Z</time>
  <course>180.78</course>
  <speed>0.0</speed>
  <fix>3d</fix>
</trkpt>
<trkpt lat="21.1656422" lon="-156.8868015">
  <ele>165.34</ele>
  <time>2026-09-01T20:02:27Z</time>
  <course>2.7</course>
  <speed>0.0</speed>
  <fix>3d</fix>
</trkpt>
<trkpt lat="21.1656422" lon="-156.8868015">
  <ele>165.35</ele>
  <time>2026-09-01T20:02:27Z</time>
  <course>180.78</course>
  <speed>0.0</speed>
  <fix>3d</fix>
</trkpt>
<trkpt lat="21.1656422" lon="-156.8868015">
  <ele>165.34</ele>
  <time>2026-09-01T20:02:27Z</time>
  <course>2.7</course>
  <speed>0.0</speed>
  <fix>3d</fix>
</trkpt>
<trkpt lat="21.1656422" lon="-156.8868015">
  <ele>165.35</ele>
  <time>2026-09-01T20:02:27Z</time>
  <course>180.78</course>
  <speed>0.0</speed>
  <fix>3d</fix>
</trkpt>
<trkpt lat="21.1656422" lon="-156.8868015">
  <ele>165.34</ele>
  <time>2026-09-01T20:02:27Z</time>
  <course>2.7</course>
  <speed>0.0</speed>
  <fix>3d</fix>
</trkpt>
<trkpt lat="21.1656422" lon="-156.8868015">
  <ele>165.35</ele>
  <time>2026-09-01T20:02:27Z</time>
  <course>180.78</course>
  <speed>0.0</speed>
  <fix>3d</fix>
</trkpt>
<trkpt lat="-26.9720619" lon="149.6127921">
  <ele>339.29</ele>
  <time>2026-09-01T20:02:28Z</time>
  <course>310.27</course>
  <speed>0.0</speed>
  <fix>3d</fix>
</trkpt>
<trkpt lat="-26.9720619" lon="149.6127921">
  <ele>339.29</ele>
  <time>2026-09-01T20:02:28Z</time>
  <course>310.27</course>
  <speed>0.0</speed>
  <fix>3d</fix>
</trkpt>
<trkpt lat="-27.274439" lon="151.290064">
  <ele>-0.01</ele>
  <time>2026-09-01T20:02:28Z</time>
  <course>0.18</course>
  <speed>0.0</speed>
  <fix>3d</fix>
</trkpt>
<trkpt lat="-27.274439" lon="151.290064">
  <ele>343.1</ele>
  <time>2026-09-01T20:02:28Z</time>
  <course>294.58</course>
  <speed>0.0</speed>
  <fix>3d</fix>
</trkpt>
<trkpt lat="-27.274439" lon="151.290064">
  <ele>0.02</ele>
  <time>2026-09-01T20:02:28Z</time>
  <course>1.17</course>
  <speed>0.0</speed>
  <fix>3d</fix>
</trkpt>
<trkpt lat="-27.274439" lon="151.290064">
  <ele>343.1</ele>
  <time>2026-09-01T20:02:28Z</time>
  <course>294.58</course>
  <speed>0.0</speed>
  <fix>3d</fix>
</trkpt>
<trkpt lat="-27.274439" lon="151.290064">
  <ele>-0.08</ele>
  <time>2026-09-01T20:02:28Z</time>
  <course>2.07</course>
  <speed>0.0</speed>
  <fix>3d</fix>
</trkpt>
<trkpt lat="-27.274439" lon="151.290064">
  <ele>343.1</ele>
  <time>2026-09-01T20:02:28Z</time>
  <course>273.33</course>
  <speed>0.0</speed>
  <fix>3d</fix>
</trkpt>
<trkpt lat="-27.274439" lon="151.290064">
  <ele>0.22</ele>
  <time>2026-09-01T20:02:28Z</time>
  <course>2.89</course>
  <speed>0.0</speed>
  <fix>3d</fix>
</trkpt>
<trkpt lat="-27.274439" lon="151.290064">
  <ele>343.1</ele>
  <time>2026-09-01T20:02:28Z</time>
  <course>273.33</course>
  <speed>0.0</speed>
  <fix>3d</fix>
</trkpt>
<trkpt lat="-27.274439" lon="151.290064">
  <ele>0.09</ele>
  <time>2026-09-01T20:02:28Z</time>
  <course>3.63</course>
  <speed>0.0</speed>
  <fix>3d</fix>
</trkpt>
<trkpt lat="-27.274439" lon="151.290064">
  <ele>343.1</ele>
  <time>2026-09-01T20:02:28Z</time>
  <course>270.44</course>
  <speed>0.0</speed>
  <fix>3d</fix>
</trkpt>
<trkpt lat="-27.274439" lon="151.290064">
  <ele>0.08</ele>
  <time>2026-09-01T20:02:28Z</time>
  <course>4.31</course>
  <speed>0.0</speed>
  <fix>3d</fix>
</trkpt>
<trkpt lat="-27.274439" lon="151.290064">
  <ele>343.1</ele>
  <time>2026-09-01T20:02:28Z</time>
  <course>270.44</course>
  <speed>0.0</speed>
  <fix>3d</fix>
</trkpt>
<trkpt lat="-27.274439" lon="151.290064">
  <ele>0.09</ele>
  <time>2026-09-01T20:02:28Z</time>
  <course>4.93</course>
  <speed>0.0</speed>
  <fix>3d</fix>
</trkpt>
<trkpt lat="-27.274439" lon="151.290064">
  <ele>343.1</ele>
  <time>2026-09-01T20:02:28Z</time>
  <course>270.05</course>
  <speed>0.0</speed>
  <fix>3d</fix>
</trkpt>
<trkpt lat="-27.274439" lon="151.290064">
  <ele>-0.05</ele>
  <time>2026-09-01T20:02:28Z</time>
  <course>5.48</course>
  <speed>0.0</speed>
  <fix>3d</fix>
</trkpt>
<trkpt lat="-27.274439" lon="151.290064">
  <ele>343.1</ele>
  <time>2026-09-01T20:02:28Z</time>
  <course>270.05</course>
  <speed>0.0</speed>
  <fix>3d</fix>
</trkpt>
<trkpt lat="-27.274439" lon="151.290064">
  <ele>343.06</ele>
  <time>2026-09-01T20:02:28Z</time>
  <course>5.96</course>
  <speed>0.0</speed>
  <fix>3d</fix>
</trkpt>
<trkpt lat="-27.274439" lon="151.290064">
  <ele>343.1</ele>
  <time>2026-09-01T20:02:28Z</time>
  <course>270.0</course>
  <speed>0.0</speed>
  <fix>3d</fix>
</trkpt>
<trkpt lat="-27.274439" lon="151.290064">
  <ele>343.18</ele>
  <time>2026-09-01T20:02:28Z</time>
  <course>6.42</course>
  <speed>0.0</speed>
  <fix>3d</fix>
</trkpt>
<trkpt lat="-27.274439" lon="151.290064">
  <ele>343.1</ele>
  <time>2026-09-01T20:02:28Z</time>
  <course>270.0</course>
  <speed>0.0</speed>
  <fix>3d</fix>
</trkpt>
<trkpt lat="-27.274439" lon="151.290064">
  <ele>342.91</ele>
  <time>2026-09-01T20:02:28Z</time>
  <course>6.84</course>
  <speed>0.0</speed>
  <fix>3d</fix>
</trkpt>
<trkpt lat="-27.274439" lon="151.290064">
  <ele>343.1</ele>
  <time>2026-09-01T20:02:28Z</time>
  <course>270.0</course>
  <speed>0.0</speed>
  <fix>3d</fix>
</trkpt>
<trkpt lat="-27.274439" lon="151.290064">
  <ele>343.06</ele>
  <time>2026-09-01T20:02:28Z</time>
  <course>7.21</course>
  <speed>0.0</speed>
  <fix>3d</fix>
</trkpt>
<trkpt lat="-27.274439" lon="151.290064">
  <ele>343.1</ele>
  <time>2026-09-01T20:02:28Z</time>
  <course>270.0</course>
  <speed>0.0</speed>
  <fix>3d</fix>
</trkpt>
<trkpt lat="-27.274439" lon="151.290064">
  <ele>343.13</ele>
  <time>2026-09-01T20:02:28Z</time>
  <course>7.55</course>
  <speed>0.0</speed>
  <fix>3d</fix>
</trkpt>
<trkpt lat="-27.274439" lon="151.290064">
  <ele>343.1</ele>
  <time>2026-09-01T20:02:28Z</time>
  <course>270.0</course>
  <speed>0.0</speed>
  <fix>3d</fix>
</trkpt>
<trkpt lat="-27.274439" lon="151.290064">
  <ele>343.04</ele>
  <time>2026-09-01T20:02:28Z</time>
  <course>7.86</course>
  <speed>0.0</speed>
  <fix>3d</fix>
</trkpt>
<trkpt lat="-27.274439" lon="151.290064">
  <ele>343.1</ele>
  <time>2026-09-01T20:02:28Z</time>
  <course>270.0</course>
  <speed>0.0</speed>
  <fix>3d</fix>
</trkpt>
<trkpt lat="-27.274439" lon="151.290064">
  <ele>342.88</ele>
  <time>2026-09-01T20:02:28Z</time>
  <course>8.13</course>
  <speed>0.0</speed>
  <fix>3d</fix>
</trkpt>
<trkpt lat="-27.274439" lon="151.290064">
  <ele>343.1</ele>
  <time>2026-09-01T20:02:28Z</time>
  <course>270.0</course>
  <speed>0.0</speed>
  <fix>3d</fix>
</trkpt>
<trkpt lat="-27.274439" lon="151.290064">
  <ele>343.02</ele>
  <time>2026-09-01T20:02:28Z</time>
  <course>8.38</course>
  <speed>0.0</speed>
  <fix>3d</fix>
</trkpt>
<trkpt lat="-27.274439" lon="151.290064">
  <ele>343.1</ele>
  <time>2026-09-01T20:02:28Z</time>
  <course>270.0</course>
  <speed>0.0</speed>
  <fix>3d</fix>
</trkpt>
<trkpt lat="-27.274439" lon="151.290064">
  <ele>343.23</ele>
  <time>2026-09-01T20:02:28Z</time>
  <course>8.62</course>
  <speed>0.0</speed>
  <fix>3d</fix>
</trkpt>
<trkpt lat="-27.274439" lon="151.290064">
  <ele>343.1</ele>
  <time>2026-09-01T20:02:28Z</time>
  <course>270.0</course>
  <speed>0.0</speed>
  <fix>3d</fix>
</trkpt>
<trkpt lat="-27.274439" lon="151.290064">
  <ele>343.17</ele>
  <time>2026-09-01T20:02:28Z</time>
  <course>8.82</course>
  <speed>0.0</speed>
  <fix>3d</fix>
</trkpt>
<trkpt lat="-27.274439" lon="151.290064">
  <ele>343.1</ele>
  <time>2026-09-01T20:02:28Z</time>
  <course>270.0</course>
  <speed>0.0</speed>
  <fix>3d</fix>
</trkpt>
<trkpt lat="-27.274439" lon="151.290064">
  <ele>343.04</ele>
  <time>2026-09-01T20:02:28Z</time>
  <course>9.0</course>
  <speed>0.0</speed>
  <fix>3d</fix>
</trkpt>
<trkpt lat="-27.274439" lon="151.290064">
  <ele>343.1</ele>
  <time>2026-09-01T20:02:28Z</time>
  <course>270.0</course>
  <speed>0.0</speed>
  <fix>3d</fix>
</trkpt>
<trkpt lat="-27.274439" lon="151.290064">
  <ele>342.89</ele>
  <time>2026-09-01T20:02:28Z</time>
  <course>9.17</course>
  <speed>0.0</speed>
  <fix>3d</fix>
</trkpt>
<trkpt lat="-27.274439" lon="151.290064">
  <ele>343.1</ele>
  <time>2026-09-01T20:02:28Z</time>
  <course>270.0</course>
  <speed>0.0</speed>
  <fix>3d</fix>
</trkpt>
<trkpt lat="-27.274439" lon="151.290064">
  <ele>343.08</ele>
  <time>2026-09-01T20:02:28Z</time>
  <course>9.32</course>
  <speed>0.0</speed>
  <fix>3d</fix>
</trkpt>
<trkpt lat="-27.274439" lon="151.290064">
  <ele>343.1</ele>
  <time>2026-09-01T20:02:28Z</time>
  <course>270.0</course>
  <speed>0.0</speed>
  <fix>3d</fix>
</trkpt>
<trkpt lat="-27.274439" lon="151.290064">
  <ele>343.19</ele>
  <time>2026-09-01T20:02:28Z</time>
  <course>9.46</course>
  <speed>0.0</speed>
  <fix>3d</fix>
</trkpt>
<trkpt lat="-27.274439" lon="151.290064">
  <ele>343.1</ele>
  <time>2026-09-01T20:02:28Z</time>
  <course>270.0</course>
  <speed>0.0</speed>
  <fix>3d</fix>
</trkpt>
<trkpt lat="-27.274439" lon="151.290064">
  <ele>342.88</ele>
  <time>2026-09-01T20:02:28Z</time>
  <course>9.59</course>
  <speed>0.0</speed>
  <fix>3d</fix>
</trkpt>
<trkpt lat="-27.274439" lon="151.290064">
  <ele>343.1</ele>
  <time>2026-09-01T20:02:28Z</time>
  <course>270.0</course>
  <speed>0.0</speed>
  <fix>3d</fix>
</trkpt>
<trkpt lat="-27.274439" lon="151.290064">
  <ele>343.17</ele>
  <time>2026-09-01T20:02:28Z</time>
  <course>9.7</course>
  <speed>0.0</speed>
  <fix>3d</fix>
</trkpt>
<trkpt lat="-27.274439" lon="151.290064">
  <ele>343.1</ele>
  <time>2026-09-01T20:02:28Z</time>
  <course>270.0</course>
  <speed>0.0</speed>
  <fix>3d</fix>
</trkpt>
<trkpt lat="-27.274439" lon="151.290064">
  <ele>342.89</ele>
  <time>2026-09-01T20:02:28Z</time>
  <course>9.8</course>
  <speed>0.0</speed>
  <fix>3d</fix>
</trkpt>
<trkpt lat="-27.274439" lon="151.290064">
  <ele>343.1</ele>
  <time>2026-09-01T20:02:28Z</time>
  <course>270.0</course>
  <speed>0.0</speed>
  <fix>3d</fix>
</trkpt>
<trkpt lat="-27.274439" lon="151.290064">
  <ele>342.99</ele>
  <time>2026-09-01T20:02:28Z</time>
  <course>9.89</course>
  <speed>0.0</speed>
  <fix>3d</fix>
</trkpt>
<trkpt lat="-27.274439" lon="151.290064">
  <ele>343.1</ele>
  <time>2026-09-01T20:02:28Z</time>
  <course>270.0</course>
  <speed>0.0</speed>
  <fix>3d</fix>
</trkpt>
<trkpt lat="-27.274439" lon="151.290064">
  <ele>342.87</ele>
  <time>2026-09-01T20:02:28Z</time>
  <course>9.98</course>
  <speed>0.0</speed>
  <fix>3d</fix>
</trkpt>
<trkpt lat="-27.274439" lon="151.290064">
  <ele>343.1</ele>
  <time>2026-09-01T20:02:28Z</time>
  <course>270.0</course>
  <speed>0.0</speed>
  <fix>3d</fix>
</trkpt>
<trkpt lat="-27.274439" lon="151.290064">
  <ele>343.09</ele>
  <time>2026-09-01T20:02:28Z</time>
  <course>10.06</course>
  <speed>0.0</speed>
  <fix>3d</fix>
</trkpt>
<trkpt lat="-27.274439" lon="151.290064">
  <ele>343.1</ele>
  <time>2026-09-01T20:02:28Z</time>
  <course>270.0</course>
  <speed>0.0</speed>
  <fix>3d</fix>
</trkpt>
<trkpt lat="-27.274439" lon="151.290064">
  <ele>343.18</ele>
  <time>2026-09-01T20:02:28Z</time>
  <course>10.13</course>
  <speed>0.0</speed>
  <fix>3d</fix>
</trkpt>
<trkpt lat="-27.274439" lon="151.290064">
  <ele>343.1</ele>
  <time>2026-09-01T20:02:28Z</time>
  <course>270.0</course>
  <speed>0.0</speed>
  <fix>3d</fix>
</trkpt>
<trkpt lat="-27.274439" lon="151.290064">
  <ele>343.05</ele>
  <time>2026-09-01T20:02:28Z</time>
  <course>10.19</course>
  <speed>0.0</speed>
  <fix>3d</fix>
</trkpt>
<trkpt lat="-27.274439" lon="151.290064">
  <ele>343.1</ele>
  <time>2026-09-01T20:02:28Z</time>
  <course>270.0</course>
  <speed>0.0</speed>
  <fix>3d</fix>
</trkpt>
<trkpt lat="-27.274439" lon="151.290064">
  <ele>342.96</ele>
  <time>2026-09-01T20:02:28Z</time>
  <course>10.25</course>
  <speed>0.0</speed>
  <fix>3d</fix>
</trkpt>
<trkpt lat="-27.274439" lon="151.290064">
  <ele>343.1</ele>
  <time>2026-09-01T20:02:28Z</time>
  <course>270.0</course>
  <speed>0.0</speed>
  <fix>3d</fix>
</trkpt>
<trkpt lat="-27.274439" lon="151.290064">
  <ele>343.1</ele>
  <time>2026-09-01T20:02:28Z</time>
  <course>10.3</course>
  <speed>0.0</speed>
  <fix>3d</fix>
</trkpt>
<trkpt lat="-27.274439" lon="151.290064">
  <ele>343.1</ele>
  <time>2026-09-01T20:02:28Z</time>
  <course>270.0</course>
  <speed>0.0</speed>
  <fix>3d</fix>
</trkpt>
<trkpt lat="-27.274439" lon="151.290064">
  <ele>343.22</ele>
  <time>2026-09-01T20:02:28Z</time>
  <course>10.35</course>
  <speed>0.0</speed>
  <fix>3d</fix>
</trkpt>
<trkpt lat="-27.274439" lon="151.290064">
  <ele>343.1</ele>
  <time>2026-09-01T20:02:28Z</time>
  <course>270.0</course>
  <speed>0.0</speed>
  <fix>3d</fix>
</trkpt>
<trkpt lat="-27.274439" lon="151.290064">
  <ele>343.17</ele>
  <time>2026-09-01T20:02:28Z</time>
  <course>10.39</course>
  <speed>0.0</speed>
  <fix>3d</fix>
</trkpt>
<trkpt lat="-27.274439" lon="151.290064">
  <ele>343.1</ele>
  <time>2026-09-01T20:02:28Z</time>
  <course>270.0</course>
  <speed>0.0</speed>
  <fix>3d</fix>
</trkpt>
<trkpt lat="-27.274439" lon="151.290064">
  <ele>343.08</ele>
  <time>2026-09-01T20:02:28Z</time>
  <course>10.43</course>
  <speed>0.0</speed>
  <fix>3d</fix>
</trkpt>
<trkpt lat="-27.274439" lon="151.290064">
  <ele>343.1</ele>
  <time>2026-09-01T20:02:28Z</time>
  <course>270.0</course>
  <speed>0.0</speed>
  <fix>3d</fix>
</trkpt>
<trkpt lat="-27.274439" lon="151.290064">
  <ele>343.04</ele>
  <time>2026-09-01T20:02:28Z</time>
  <course>10.47</course>
  <speed>0.0</speed>
  <fix>3d</fix>
</trkpt>
<trkpt lat="-27.274439" lon="151.290064">
  <ele>343.1</ele>
  <time>2026-09-01T20:02:28Z</time>
  <course>270.0</course>
  <speed>0.0</speed>
  <fix>3d</fix>
</trkpt>
<trkpt lat="-27.274439" lon="151.290064">
  <ele>343.18</ele>
  <time>2026-09-01T20:02:28Z</time>
  <course>10.5</course>
  <speed>0.0</speed>
  <fix>3d</fix>
</trkpt>
<trkpt lat="-27.274439" lon="151.290064">
  <ele>343.1</ele>
  <time>2026-09-01T20:02:28Z</time>
  <course>270.0</course>
  <speed>0.0</speed>
  <fix>3d</fix>
</trkpt>
<trkpt lat="-27.274439" lon="151.290064">
  <ele>343.12</ele>
  <time>2026-09-01T20:02:28Z</time>
  <course>10.53</course>
  <speed>0.0</speed>
  <fix>3d</fix>
</trkpt>
<trkpt lat="-27.274439" lon="151.290064">
  <ele>343.1</ele>
  <time>2026-09-01T20:02:28Z</time>
  <course>270.0</course>
  <speed>0.0</speed>
  <fix>3d</fix>
</trkpt>
<trkpt lat="-27.274439" lon="151.290064">
  <ele>343.04</ele>
  <time>2026-09-01T20:02:28Z</time>
  <course>10.55</course>
  <speed>0.0</speed>
  <fix>3d</fix>
</trkpt>
<trkpt lat="-27.274439" lon="151.290064">
  <ele>343.1</ele>
  <time>2026-09-01T20:02:28Z</time>
  <course>270.0</course>
  <speed>0.0</speed>
  <fix>3d</fix>
</trkpt>
<trkpt lat="-27.274439" lon="151.290064">
  <ele>343.07</ele>
  <time>2026-09-01T20:02:28Z</time>
  <course>10.58</course>
  <speed>0.0</speed>
  <fix>3d</fix>
</trkpt>
<trkpt lat="-27.274439" lon="151.290064">
  <ele>343.1</ele>
  <time>2026-09-01T20:02:28Z</time>
  <course>270.0</course>
  <speed>0.0</speed>
  <fix>3d</fix>
</trkpt>
<trkpt lat="-27.274439" lon="151.290064">
  <ele>343.04</ele>
  <time>2026-09-01T20:02:28Z</time>
  <course>10.6</course>
  <speed>0.0</speed>
  <fix>3d</fix>
</trkpt>
<trkpt lat="-27.274439" lon="151.290064">
  <ele>343.1</ele>
  <time>2026-09-01T20:02:28Z</time>
  <course>270.0</course>
  <speed>0.0</speed>
  <fix>3d</fix>
</trkpt>
<trkpt lat="-27.274439" lon="151.290064">
  <ele>343.01</ele>
  <time>2026-09-01T20:02:28Z</time>
  <course>10.62</course>
  <speed>0.0</speed>
  <fix>3d</fix>
</trkpt>
<trkpt lat="-27.274439" lon="151.290064">
  <ele>343.1</ele>
  <time>2026-09-01T20:02:28Z</time>
  <course>270.0</course>
  <speed>0.0</speed>
  <fix>3d</fix>
</trkpt>
<trkpt lat="-27.274439" lon="151.290064">
  <ele>343.2</ele>
  <time>2026-09-01T20:02:28Z</time>
  <course>10.64</course>
  <speed>0.0</speed>
  <fix>3d</fix>
</trkpt>
<trkpt lat="-27.274439" lon="151.290064">
  <ele>343.1</ele>
  <time>2026-09-01T20:02:28Z</time>
  <course>270.0</course>
  <speed>0.0</speed>
  <fix>3d</fix>
</trkpt>
<trkpt lat="-27.274439" lon="151.290064">
  <ele>343.24</ele>
  <time>2026-09-01T20:02:28Z</time>
  <course>10.65</course>
  <speed>0.0</speed>
  <fix>3d</fix>
</trkpt>
<trkpt lat="-27.274439" lon="151.290064">
  <ele>343.1</ele>
  <time>2026-09-01T20:02:28Z</time>
  <course>270.0</course>
  <speed>0.0</speed>
  <fix>3d</fix>
</trkpt>
<trkpt lat="-27.274439" lon="151.290064">
  <ele>342.88</ele>
  <time>2026-09-01T20:02:28Z</time>
  <course>10.67</course>
  <speed>0.0</speed>
  <fix>3d</fix>
</trkpt>
<trkpt lat="-27.274439" lon="151.290064">
  <ele>343.1</ele>
  <time>2026-09-01T20:02:28Z</time>
  <course>270.0</course>
  <speed>0.0</speed>
  <fix>3d</fix>
</trkpt>
<trkpt lat="-27.274439" lon="151.290064">
  <ele>343.21</ele>
  <time>2026-09-01T20:02:28Z</time>
  <course>10.68</course>
  <speed>0.0</speed>
  <fix>3d</fix>
</trkpt>
<trkpt lat="-27.274439" lon="151.290064">
  <ele>343.1</ele>
  <time>2026-09-01T20:02:28Z</time>
  <course>270.0</course>
  <speed>0.0</speed>
  <fix>3d</fix>
</trkpt>
<trkpt lat="-27.274439" lon="151.290064">
  <ele>343.02</ele>
  <time>2026-09-01T20:02:28Z</time>
  <course>10.69</course>
  <speed>0.0</speed>
  <fix>3d</fix>
</trkpt>
<trkpt lat="-27.274439" lon="151.290064">
  <ele>343.1</ele>
  <time>2026-09-01T20:02:28Z</time>
  <course>270.0</course>
  <speed>0.0</speed>
  <fix>3d</fix>
</trkpt>
<trkpt lat="-27.274439" lon="151.290064">
  <ele>342.93</ele>
  <time>2026-09-01T20:02:28Z</time>
  <course>10.7</course>
  <speed>0.0</speed>
  <fix>3d</fix>
</trkpt>
<trkpt lat="-27.274439" lon="151.290064">
  <ele>343.1</ele>
  <time>2026-09-01T20:02:28Z</time>
  <course>270.0</course>
  <speed>0.0</speed>
  <fix>3d</fix>
</trkpt>
<trkpt lat="-27.274439" lon="151.290064">
  <ele>343.07</ele>
  <time>2026-09-01T20:02:28Z</time>
  <course>10.71</course>
  <speed>0.0</speed>
  <fix>3d</fix>
</trkpt>
<trkpt lat="-27.274439" lon="151.290064">
  <ele>343.1</ele>
  <time>2026-09-01T20:02:28Z</time>
  <course>270.0</course>
  <speed>0.0</speed>
  <fix>3d</fix>
</trkpt>
<trkpt lat="-27.274439" lon="151.290064">
  <ele>342.94</ele>
  <time>2026-09-01T20:02:28Z</time>
  <course>10.72</course>
  <speed>0.0</speed>
  <fix>3d</fix>
</trkpt>
<trkpt lat="-27.274439" lon="151.290064">
  <ele>343.1</ele>
  <time>2026-09-01T20:02:28Z</time>
  <course>270.0</course>
  <speed>0.0</speed>
  <fix>3d</fix>
</trkpt>
<trkpt lat="-27.274439" lon="151.290064">
  <ele>343.11</ele>
  <time>2026-09-01T20:02:28Z</time>
  <course>10.73</course>
  <speed>0.0</speed>
  <fix>3d</fix>
</trkpt>
<trkpt lat="-27.274439" lon="151.290064">
  <ele>343.1</ele>
  <time>2026-09-01T20:02:28Z</time>
  <course>270.0</course>
  <speed>0.0</speed>
  <fix>3d</fix>
</trkpt>
<trkpt lat="-27.274439" lon="151.290064">
  <ele>343.24</ele>
  <time>2026-09-01T20:02:28Z</time>
  <course>10.73</course>
  <speed>0.0</speed>
  <fix>3d</fix>
</trkpt>
<trkpt lat="-27.274439" lon="151.290064">
  <ele>343.1</ele>
  <time>2026-09-01T20:02:28Z</time>
  <course>270.0</course>
  <speed>0.0</speed>
  <fix>3d</fix>
</trkpt>
<trkpt lat="-27.274439" lon="151.290064">
  <ele>343.18</ele>
  <time>2026-09-01T20:02:28Z</time>
  <course>10.74</course>
  <speed>0.0</speed>
  <fix>3d</fix>
</trkpt>
<trkpt lat="-27.274439" lon="151.290064">
  <ele>343.1</ele>
  <time>2026-09-01T20:02:28Z</time>
  <course>270.0</course>
  <speed>0.0</speed>
  <fix>3d</fix>
</trkpt>
<trkpt lat="-27.274439" lon="151.290064">
  <ele>342.89</ele>
  <time>2026-09-01T20:02:28Z</time>
  <course>10.75</course>
  <speed>0.0</speed>
  <fix>3d</fix>
</trkpt>
<trkpt lat="-27.274439" lon="151.290064">
  <ele>343.1</ele>
  <time>2026-09-01T20:02:28Z</time>
  <course>270.0</course>
  <speed>0.0</speed>
  <fix>3d</fix>
</trkpt>
<trkpt lat="-27.274439" lon="151.290064">
  <ele>343.23</ele>
  <time>2026-09-01T20:02:29Z</time>
  <course>10.75</course>
  <speed>0.0</speed>
  <fix>3d</fix>
</trkpt>
<trkpt lat="-27.274439" lon="151.290064">
  <ele>343.1</ele>
  <time>2026-09-01T20:02:29Z</time>
  <course>270.0</course>
  <speed>0.0</speed>
  <fix>3d</fix>
</trkpt>
<trkpt lat="-27.274439" lon="151.290064">
  <ele>343.23</ele>
  <time>2026-09-01T20:02:29Z</time>
  <course>10.76</course>
  <speed>0.0</speed>
  <fix>3d</fix>
</trkpt>
<trkpt lat="-27.274439" lon="151.290064">
  <ele>343.1</ele>
  <time>2026-09-01T20:02:29Z</time>
  <course>270.0</course>
  <speed>0.0</speed>
  <fix>3d</fix>
</trkpt>
<trkpt lat="-27.274439" lon="151.290064">
  <ele>342.99</ele>
  <time>2026-09-01T20:02:29Z</time>
  <course>10.76</course>
  <speed>0.0</speed>
  <fix>3d</fix>
</trkpt>
<trkpt lat="-27.274439" lon="151.290064">
  <ele>343.1</ele>
  <time>2026-09-01T20:02:29Z</time>
  <course>270.0</course>
  <speed>0.0</speed>
  <fix>3d</fix>
</trkpt>
<trkpt lat="-27.274439" lon="151.290064">
  <ele>343.13</ele>
  <time>2026-09-01T20:02:29Z</time>
  <course>10.76</course>
  <speed>0.0</speed>
  <fix>3d</fix>
</trkpt>
<trkpt lat="-27.274439" lon="151.290064">
  <ele>343.1</ele>
  <time>2026-09-01T20:02:29Z</time>
  <course>270.0</course>
  <speed>0.0</speed>
  <fix>3d</fix>
</trkpt>
<trkpt lat="-27.274439" lon="151.290064">
  <ele>343.07</ele>
  <time>2026-09-01T20:02:29Z</time>
  <course>10.77</course>
  <speed>0.0</speed>
  <fix>3d</fix>
</trkpt>
<trkpt lat="-27.274439" lon="151.290064">
  <ele>343.1</ele>
  <time>2026-09-01T20:02:29Z</time>
  <course>270.0</course>
  <speed>0.0</speed>
  <fix>3d</fix>
</trkpt>
<trkpt lat="-27.274439" lon="151.290064">
  <ele>343.19</ele>
  <time>2026-09-01T20:02:29Z</time>
  <course>10.77</course>
  <speed>0.0</speed>
  <fix>3d</fix>
</trkpt>
<trkpt lat="-27.274439" lon="151.290064">
  <ele>343.1</ele>
  <time>2026-09-01T20:02:29Z</time>
  <course>270.0</course>
  <speed>0.0</speed>
  <fix>3d</fix>
</trkpt>
<trkpt lat="-27.274439" lon="151.290064">
  <ele>342.93</ele>
  <time>2026-09-01T20:02:29Z</time>
  <course>10.77</course>
  <speed>0.0</speed>
  <fix>3d</fix>
</trkpt>
<trkpt lat="-27.274439" lon="151.290064">
  <ele>343.1</ele>
  <time>2026-09-01T20:02:29Z</time>
  <course>270.0</course>
  <speed>0.0</speed>
  <fix>3d</fix>
</trkpt>
<trkpt lat="-27.274439" lon="151.290064">
  <ele>343.19</ele>
  <time>2026-09-01T20:02:29Z</time>
  <course>10.78</course>
  <speed>0.0</speed>
  <fix>3d</fix>
</trkpt>
<trkpt lat="-27.274439" lon="151.290064">
  <ele>343.1</ele>
  <time>2026-09-01T20:02:29Z</time>
  <course>270.0</course>
  <speed>0.0</speed>
  <fix>3d</fix>
</trkpt>
<trkpt lat="-27.274439" lon="151.290064">
  <ele>343.1</ele>
  <time>2026-09-01T20:02:29Z</time>
  <course>10.78</course>
  <speed>0.0</speed>
  <fix>3d</fix>
</trkpt>
<trkpt lat="-27.274439" lon="151.290064">
  <ele>343.1</ele>
  <time>2026-09-01T20:02:29Z</time>
  <course>270.0</course>
  <speed>0.0</speed>
  <fix>3d</fix>
</trkpt>
<trkpt lat="-27.274439" lon="151.290064">
  <ele>343.01</ele>
  <time>2026-09-01T20:02:29Z</time>
  <course>10.78</course>
  <speed>0.0</speed>
  <fix>3d</fix>
</trkpt>
<trkpt lat="-27.274439" lon="151.290064">
  <ele>343.1</ele>
  <time>2026-09-01T20:02:29Z</time>
  <course>270.0</course>
  <speed>0.0</speed>
  <fix>3d</fix>
</trkpt>
<trkpt lat="-27.274439" lon="151.290064">
  <ele>343.11</ele>
  <time>2026-09-01T20:02:29Z</time>
  <course>10.78</course>
  <speed>0.0</speed>
  <fix>3d</fix>
</trkpt>
<trkpt lat="-27.274439" lon="151.290064">
  <ele>343.1</ele>
  <time>2026-09-01T20:02:29Z</time>
  <course>270.0</course>
  <speed>0.0</speed>
  <fix>3d</fix>
</trkpt>
<trkpt lat="-27.274439" lon="151.290064">
  <ele>342.96</ele>
  <time>2026-09-01T20:02:29Z</time>
  <course>10.78</course>
  <speed>0.0</speed>
  <fix>3d</fix>
</trkpt>
<trkpt lat="-27.274439" lon="151.290064">
  <ele>343.1</ele>
  <time>2026-09-01T20:02:29Z</time>
  <course>270.0</course>
  <speed>0.0</speed>
  <fix>3d</fix>
</trkpt>
<trkpt lat="-27.274439" lon="151.290064">
  <ele>343.19</ele>
  <time>2026-09-01T20:02:29Z</time>
  <course>10.79</course>
  <speed>0.0</speed>
  <fix>3d</fix>
</trkpt>
<trkpt lat="-27.274439" lon="151.290064">
  <ele>343.1</ele>
  <time>2026-09-01T20:02:29Z</time>
  <course>270.0</course>
  <speed>0.0</speed>
  <fix>3d</fix>
</trkpt>
<trkpt lat="-27.274439" lon="151.290064">
  <ele>343.0</ele>
  <time>2026-09-01T20:02:29Z</time>
  <course>10.79</course>
  <speed>0.0</speed>
  <fix>3d</fix>
</trkpt>
<trkpt lat="-27.274439" lon="151.290064">
  <ele>343.1</ele>
  <time>2026-09-01T20:02:29Z</time>
  <course>270.0</course>
  <speed>0.0</speed>
  <fix>3d</fix>
</trkpt>
<trkpt lat="-27.274439" lon="151.290064">
  <ele>343.2</ele>
  <time>2026-09-01T20:02:29Z</time>
  <course>10.79</course>
  <speed>0.0</speed>
  <fix>3d</fix>
</trkpt>
<trkpt lat="-27.274439" lon="151.290064">
  <ele>343.1</ele>
  <time>2026-09-01T20:02:29Z</time>
  <course>270.0</course>
  <speed>0.0</speed>
  <fix>3d</fix>
</trkpt>
<trkpt lat="-27.274439" lon="151.290064">
  <ele>343.2</ele>
  <time>2026-09-01T20:02:29Z</time>
  <course>10.79</course>
  <speed>0.0</speed>
  <fix>3d</fix>
</trkpt>
<trkpt lat="-27.274439" lon="151.290064">
  <ele>343.1</ele>
  <time>2026-09-01T20:02:29Z</time>
  <course>270.0</course>
  <speed>0.0</speed>
  <fix>3d</fix>
</trkpt>
<trkpt lat="-27.274439" lon="151.290064">
  <ele>343.13</ele>
  <time>2026-09-01T20:02:29Z</time>
  <course>10.79</course>
  <speed>0.0</speed>
  <fix>3d</fix>
</trkpt>
<trkpt lat="-27.274439" lon="151.290064">
  <ele>343.1</ele>
  <time>2026-09-01T20:02:29Z</time>
  <course>270.0</course>
  <speed>0.0</speed>
  <fix>3d</fix>
</trkpt>
<trkpt lat="-27.274439" lon="151.290064">
  <ele>343.1</ele>
  <time>2026-09-01T20:02:29Z</time>
  <course>10.79</course>
  <speed>0.0</speed>
  <fix>3d</fix>
</trkpt>
<trkpt lat="-27.274439" lon="151.290064">
  <ele>343.1</ele>
  <time>2026-09-01T20:02:29Z</time>
  <course>270.0</course>
  <speed>0.0</speed>
  <fix>3d</fix>
</trkpt>
<trkpt lat="-27.274439" lon="151.290064">
  <ele>343.12</ele>
  <time>2026-09-01T20:02:29Z</time>
  <course>10.79</course>
  <speed>0.0</speed>
  <fix>3d</fix>
</trkpt>
<trkpt lat="-27.274439" lon="151.290064">
  <ele>343.1</ele>
  <time>2026-09-01T20:02:29Z</time>
  <course>270.0</course>
  <speed>0.0</speed>
  <fix>3d</fix>
</trkpt>
<trkpt lat="-27.274439" lon="151.290064">
  <ele>342.94</ele>
  <time>2026-09-01T20:02:29Z</time>
  <course>10.79</course>
  <speed>0.0</speed>
  <fix>3d</fix>
</trkpt>
<trkpt lat="-27.274439" lon="151.290064">
  <ele>343.1</ele>
  <time>2026-09-01T20:02:29Z</time>
  <course>270.0</course>
  <speed>0.0</speed>
  <fix>3d</fix>
</trkpt>
<trkpt lat="-27.274439" lon="151.290064">
  <ele>343.25</ele>
  <time>2026-09-01T20:02:29Z</time>
  <course>10.79</course>
  <speed>0.0</speed>
  <fix>3d</fix>
</trkpt>
<trkpt lat="-27.274439" lon="151.290064">
  <ele>343.1</ele>
  <time>2026-09-01T20:02:29Z</time>
  <course>270.0</course>
  <speed>0.0</speed>
  <fix>3d</fix>
</trkpt>
<trkpt lat="-27.274439" lon="151.290064">
  <ele>342.93</ele>
  <time>2026-09-01T20:02:29Z</time>
  <course>10.79</course>
  <speed>0.0</speed>
  <fix>3d</fix>
</trkpt>
<trkpt lat="-27.274439" lon="151.290064">
  <ele>343.1</ele>
  <time>2026-09-01T20:02:29Z</time>
  <course>270.0</course>
  <speed>0.0</speed>
  <fix>3d</fix>
</trkpt>
<trkpt lat="-27.274439" lon="151.290064">
  <ele>343.08</ele>
  <time>2026-09-01T20:02:29Z</time>
  <course>10.8</course>
  <speed>0.0</speed>
  <fix>3d</fix>
</trkpt>
<trkpt lat="-27.274439" lon="151.290064">
  <ele>343.1</ele>
  <time>2026-09-01T20:02:29Z</time>
  <course>270.0</course>
  <speed>0.0</speed>
  <fix>3d</fix>
</trkpt>
<trkpt lat="-27.274439" lon="151.290064">
  <ele>343.23</ele>
  <time>2026-09-01T20:02:29Z</time>
  <course>10.8</course>
  <speed>0.0</speed>
  <fix>3d</fix>
</trkpt>
<trkpt lat="-27.274439" lon="151.290064">
  <ele>343.1</ele>
  <time>2026-09-01T20:02:29Z</time>
  <course>270.0</course>
  <speed>0.0</speed>
  <fix>3d</fix>
</trkpt>
<trkpt lat="-27.274439" lon="151.290064">
  <ele>343.01</ele>
  <time>2026-09-01T20:02:29Z</time>
  <course>10.8</course>
  <speed>0.0</speed>
  <fix>3d</fix>
</trkpt>
<trkpt lat="-27.274439" lon="151.290064">
  <ele>343.1</ele>
  <time>2026-09-01T20:02:29Z</time>
  <course>270.0</course>
  <speed>0.0</speed>
  <fix>3d</fix>
</trkpt>
<trkpt lat="-27.274439" lon="151.290064">
  <ele>343.1</ele>
  <time>2026-09-01T20:02:29Z</time>
  <course>10.8</course>
  <speed>0.0</speed>
  <fix>3d</fix>
</trkpt>
<trkpt lat="-27.274439" lon="151.290064">
  <ele>343.1</ele>
  <time>2026-09-01T20:02:29Z</time>
  <course>270.0</course>
  <speed>0.0</speed>
  <fix>3d</fix>
</trkpt>
<trkpt lat="-27.274439" lon="151.290064">
  <ele>342.99</ele>
  <time>2026-09-01T20:02:29Z</time>
  <course>10.8</course>
  <speed>0.0</speed>
  <fix>3d</fix>
</trkpt>
<trkpt lat="-27.274439" lon="151.290064">
  <ele>343.1</ele>
  <time>2026-09-01T20:02:29Z</time>
  <course>270.0</course>
  <speed>0.0</speed>
  <fix>3d</fix>
</trkpt>
<trkpt lat="-27.274439" lon="151.290064">
  <ele>342.87</ele>
  <time>2026-09-01T20:02:29Z</time>
  <course>10.8</course>
  <speed>0.0</speed>
  <fix>3d</fix>
</trkpt>
<trkpt lat="-27.274439" lon="151.290064">
  <ele>343.1</ele>
  <time>2026-09-01T20:02:29Z</time>
  <course>270.0</course>
  <speed>0.0</speed>
  <fix>3d</fix>
</trkpt>
<trkpt lat="-27.274439" lon="151.290064">
  <ele>343.1</ele>
  <time>2026-09-01T20:02:29Z</time>
  <course>10.8</course>
  <speed>0.0</speed>
  <fix>3d</fix>
</trkpt>
<trkpt lat="-27.274439" lon="151.290064">
  <ele>343.1</ele>
  <time>2026-09-01T20:02:29Z</time>
  <course>270.0</course>
  <speed>0.0</speed>
  <fix>3d</fix>
</trkpt>
<trkpt lat="-27.274439" lon="151.290064">
  <ele>342.99</ele>
  <time>2026-09-01T20:02:29Z</time>
  <course>10.8</course>
  <speed>0.0</speed>
  <fix>3d</fix>
</trkpt>
<trkpt lat="-27.274439" lon="151.290064">
  <ele>343.1</ele>
  <time>2026-09-01T20:02:29Z</time>
  <course>270.0</course>
  <speed>0.0</speed>
  <fix>3d</fix>
</trkpt>
<trkpt lat="-27.274439" lon="151.290064">
  <ele>342.91</ele>
  <time>2026-09-01T20:02:29Z</time>
  <course>10.8</course>
  <speed>0.0</speed>
  <fix>3d</fix>
</trkpt>
<trkpt lat="-27.274439" lon="151.290064">
  <ele>343.1</ele>
  <time>2026-09-01T20:02:29Z</time>
  <course>270.0</course>
  <speed>0.0</speed>
  <fix>3d</fix>
</trkpt>
<trkpt lat="-27.274439" lon="151.290064">
  <ele>342.9</ele>
  <time>2026-09-01T20:02:29Z</time>
  <course>10.8</course>
  <speed>0.0</speed>
  <fix>3d</fix>
</trkpt>
<trkpt lat="-27.274439" lon="151.290064">
  <ele>343.1</ele>
  <time>2026-09-01T20:02:29Z</time>
  <course>270.0</course>
  <speed>0.0</speed>
  <fix>3d</fix>
</trkpt>
<trkpt lat="-27.274439" lon="151.290064">
  <ele>342.87</ele>
  <time>2026-09-01T20:02:29Z</time>
  <course>10.8</course>
  <speed>0.0</speed>
  <fix>3d</fix>
</trkpt>
<trkpt lat="-27.274439" lon="151.290064">
  <ele>343.1</ele>
  <time>2026-09-01T20:02:29Z</time>
  <course>270.0</course>
  <speed>0.0</speed>
  <fix>3d</fix>
</trkpt>
<trkpt lat="-27.274439" lon="151.290064">
  <ele>343.12</ele>
  <time>2026-09-01T20:02:29Z</time>
  <course>10.8</course>
  <speed>0.0</speed>
  <fix>3d</fix>
</trkpt>
<trkpt lat="-27.274439" lon="151.290064">
  <ele>343.1</ele>
  <time>2026-09-01T20:02:29Z</time>
  <course>270.0</course>
  <speed>0.0</speed>
  <fix>3d</fix>
</trkpt>
<trkpt lat="-27.274439" lon="151.290064">
  <ele>342.99</ele>
  <time>2026-09-01T20:02:29Z</time>
  <course>10.8</course>
  <speed>0.0</speed>
  <fix>3d</fix>
</trkpt>
<trkpt lat="-27.274439" lon="151.290064">
  <ele>343.1</ele>
  <time>2026-09-01T20:02:29Z</time>
  <course>270.0</course>
  <speed>0.0</speed>
  <fix>3d</fix>
</trkpt>
<trkpt lat="-27.274439" lon="151.290064">
  <ele>343.13</ele>
  <time>2026-09-01T20:02:29Z</time>
  <course>10.8</course>
  <speed>0.0</speed>
  <fix>3d</fix>
</trkpt>
<trkpt lat="-27.274439" lon="151.290064">
  <ele>343.1</ele>
  <time>2026-09-01T20:02:29Z</time>
  <course>270.0</course>
  <speed>0.0</speed>
  <fix>3d</fix>
</trkpt>
<trkpt lat="-27.274439" lon="151.290064">
  <ele>343.0</ele>
  <time>2026-09-01T20:02:29Z</time>
  <course>10.8</course>
  <speed>0.0</speed>
  <fix>3d</fix>
</trkpt>
<trkpt lat="-27.274439" lon="151.290064">
  <ele>343.1</ele>
  <time>2026-09-01T20:02:29Z</time>
  <course>270.0</course>
  <speed>0.0</speed>
  <fix>3d</fix>
</trkpt>
<trkpt lat="-27.274439" lon="151.290064">
  <ele>343.17</ele>
  <time>2026-09-01T20:02:29Z</time>
  <course>10.8</course>
  <speed>0.0</speed>
  <fix>3d</fix>
</trkpt>
<trkpt lat="-27.274439" lon="151.290064">
  <ele>343.1</ele>
  <time>2026-09-01T20:02:29Z</time>
  <course>270.0</course>
  <speed>0.0</speed>
  <fix>3d</fix>
</trkpt>
<trkpt lat="-27.274439" lon="151.290064">
  <ele>343.0</ele>
  <time>2026-09-01T20:02:29Z</time>
  <course>10.8</course>
  <speed>0.0</speed>
  <fix>3d</fix>
</trkpt>
<trkpt lat="-27.274439" lon="151.290064">
  <ele>343.1</ele>
  <time>2026-09-01T20:02:29Z</time>
  <course>270.0</course>
  <speed>0.0</speed>
  <fix>3d</fix>
</trkpt>
<trkpt lat="-27.274439" lon="151.290064">
  <ele>342.99</ele>
  <time>2026-09-01T20:02:29Z</time>
  <course>10.8</course>
  <speed>0.0</speed>
  <fix>3d</fix>
</trkpt>
<trkpt lat="-27.274439" lon="151.290064">
  <ele>343.1</ele>
  <time>2026-09-01T20:02:29Z</time>
  <course>270.0</course>
  <speed>0.0</speed>
  <fix>3d</fix>
</trkpt>
<trkpt lat="-27.274439" lon="151.290064">
  <ele>343.17</ele>
  <time>2026-09-01T20:02:29Z</time>
  <course>10.8</course>
  <speed>0.0</speed>
  <fix>3d</fix>
</trkpt>
<trkpt lat="-27.274439" lon="151.290064">
  <ele>343.1</ele>
  <time>2026-09-01T20:02:29Z</time>
  <course>270.0</course>
  <speed>0.0</speed>
  <fix>3d</fix>
</trkpt>
<trkpt lat="-27.274439" lon="151.290064">
  <ele>343.16</ele>
  <time>2026-09-01T20:02:29Z</time>
  <course>10.8</course>
  <speed>0.0</speed>
  <fix>3d</fix>
</trkpt>
<trkpt lat="-27.274439" lon="151.290064">
  <ele>343.1</ele>
  <time>2026-09-01T20:02:29Z</time>
  <course>270.0</course>
  <speed>0.0</speed>
  <fix>3d</fix>
</trkpt>
<trkpt lat="-27.274439" lon="151.290064">
  <ele>342.87</ele>
  <time>2026-09-01T20:02:29Z</time>
  <course>10.8</course>
  <speed>0.0</speed>
  <fix>3d</fix>
</trkpt>
<trkpt lat="-27.274439" lon="151.290064">
  <ele>343.1</ele>
  <time>2026-09-01T20:02:29Z</time>
  <course>270.0</course>
  <speed>0.0</speed>
  <fix>3d</fix>
</trkpt>
<trkpt lat="-27.274439" lon="151.290064">
  <ele>343.19</ele>
  <time>2026-09-01T20:02:29Z</time>
  <course>10.8</course>
  <speed>0.0</speed>
  <fix>3d</fix>
</trkpt>
<trkpt lat="-27.274439" lon="151.290064">
  <ele>343.1</ele>
  <time>2026-09-01T20:02:29Z</time>
  <course>270.0</course>
  <speed>0.0</speed>
  <fix>3d</fix>
</trkpt>
<trkpt lat="-27.274439" lon="151.290064">
  <ele>343.16</ele>
  <time>2026-09-01T20:02:29Z</time>
  <course>10.8</course>
  <speed>0.0</speed>
  <fix>3d</fix>
</trkpt>
<trkpt lat="-27.274439" lon="151.290064">
  <ele>343.1</ele>
  <time>2026-09-01T20:02:29Z</time>
  <course>270.0</course>
  <speed>0.0</speed>
  <fix>3d</fix>
</trkpt>
<trkpt lat="-27.274439" lon="151.290064">
  <ele>343.21</ele>
  <time>2026-09-01T20:02:29Z</time>
  <course>10.8</course>
  <speed>0.0</speed>
  <fix>3d</fix>
</trkpt>
<trkpt lat="-27.274439" lon="151.290064">
  <ele>343.1</ele>
  <time>2026-09-01T20:02:29Z</time>
  <course>270.0</course>
  <speed>0.0</speed>
  <fix>3d</fix>
</trkpt>
<trkpt lat="-27.274439" lon="151.290064">
  <ele>343.22</ele>
  <time>2026-09-01T20:02:29Z</time>
  <course>10.8</course>
  <speed>0.0</speed>
  <fix>3d</fix>
</trkpt>
<trkpt lat="-27.274439" lon="151.290064">
  <ele>343.1</ele>
  <time>2026-09-01T20:02:29Z</time>
  <course>270.0</course>
  <speed>0.0</speed>
  <fix>3d</fix>
</trkpt>
<trkpt lat="-27.274439" lon="151.290064">
  <ele>343.24</ele>
  <time>2026-09-01T20:02:29Z</time>
  <course>10.8</course>
  <speed>0.0</speed>
  <fix>3d</fix>
</trkpt>
<trkpt lat="-27.274439" lon="151.290064">
  <ele>343.1</ele>
  <time>2026-09-01T20:02:29Z</time>
  <course>270.0</course>
  <speed>0.0</speed>
  <fix>3d</fix>
</trkpt>
<trkpt lat="-27.274439" lon="151.290064">
  <ele>343.0</ele>
  <time>2026-09-01T20:02:29Z</time>
  <course>10.8</course>
  <speed>0.0</speed>
  <fix>3d</fix>
</trkpt>
<trkpt lat="-27.274439" lon="151.290064">
  <ele>343.1</ele>
  <time>2026-09-01T20:02:29Z</time>
  <course>270.0</course>
  <speed>0.0</speed>
  <fix>3d</fix>
</trkpt>
<trkpt lat="-27.274439" lon="151.290064">
  <ele>343.1</ele>
  <time>2026-09-01T20:02:29Z</time>
  <course>10.8</course>
  <speed>0.0</speed>
  <fix>3d</fix>
</trkpt>
<trkpt lat="-27.274439" lon="151.290064">
  <ele>343.1</ele>
  <time>2026-09-01T20:02:29Z</time>
  <course>270.0</course>
  <speed>0.0</speed>
  <fix>3d</fix>
</trkpt>
<trkpt lat="-27.274439" lon="151.290064">
  <ele>343.05</ele>
  <time>2026-09-01T20:02:29Z</time>
  <course>10.8</course>
  <speed>0.0</speed>
  <fix>3d</fix>
</trkpt>
<trkpt lat="-27.274439" lon="151.290064">
  <ele>343.1</ele>
  <time>2026-09-01T20:02:29Z</time>
  <course>270.0</course>
  <speed>0.0</speed>
  <fix>3d</fix>
</trkpt>
<trkpt lat="-27.274439" lon="151.290064">
  <ele>342.87</ele>
  <time>2026-09-01T20:02:29Z</time>
  <course>10.8</course>
  <speed>0.0</speed>
  <fix>3d</fix>
</trkpt>
<trkpt lat="-27.274439" lon="151.290064">
  <ele>343.1</ele>
  <time>2026-09-01T20:02:29Z</time>
  <course>270.0</course>
  <speed>0.0</speed>
  <fix>3d</fix>
</trkpt>
<trkpt lat="-27.274439" lon="151.290064">
  <ele>342.92</ele>
  <time>2026-09-01T20:02:29Z</time>
  <course>10.8</course>
  <speed>0.0</speed>
  <fix>3d</fix>
</trkpt>
<trkpt lat="-27.274439" lon="151.290064">
  <ele>343.1</ele>
  <time>2026-09-01T20:02:29Z</time>
  <course>270.0</course>
  <speed>0.0</speed>
  <fix>3d</fix>
</trkpt>
<trkpt lat="-27.274439" lon="151.290064">
  <ele>342.96</ele>
  <time>2026-09-01T20:02:29Z</time>
  <course>10.8</course>
  <speed>0.0</speed>
  <fix>3d</fix>
</trkpt>
<trkpt lat="-27.274439" lon="151.290064">
  <ele>343.1</ele>
  <time>2026-09-01T20:02:29Z</time>
  <course>270.0</course>
  <speed>0.0</speed>
  <fix>3d</fix>
</trkpt>
<trkpt lat="-27.274439" lon="151.290064">
  <ele>343.15</ele>
  <time>2026-09-01T20:02:29Z</time>
  <course>10.8</course>
  <speed>0.0</speed>
  <fix>3d</fix>
</trkpt>
<trkpt lat="-27.274439" lon="151.290064">
  <ele>343.1</ele>
  <time>2026-09-01T20:02:29Z</time>
  <course>270.0</course>
  <speed>0.0</speed>
  <fix>3d</fix>
</trkpt>
<trkpt lat="-27.274439" lon="151.290064">
  <ele>343.16</ele>
  <time>2026-09-01T20:02:29Z</time>
  <course>10.8</course>
  <speed>0.0</speed>
  <fix>3d</fix>
</trkpt>
<trkpt lat="-27.274439" lon="151.290064">
  <ele>343.1</ele>
  <time>2026-09-01T20:02:29Z</time>
  <course>270.0</course>
  <speed>0.0</speed>
  <fix>3d</fix>
</trkpt>
<trkpt lat="-27.274439" lon="151.290064">
  <ele>343.2</ele>
  <time>2026-09-01T20:02:29Z</time>
  <course>10.81</course>
  <speed>0.0</speed>
  <fix>3d</fix>
</trkpt>
<trkpt lat="-27.274439" lon="151.290064">
  <ele>343.1</ele>
  <time>2026-09-01T20:02:29Z</time>
  <course>270.0</course>
  <speed>0.0</speed>
  <fix>3d</fix>
</trkpt>
<trkpt lat="-27.274439" lon="151.290064">
  <ele>343.13</ele>
  <time>2026-09-01T20:02:29Z</time>
  <course>10.82</course>
  <speed>0.0</speed>
  <fix>3d</fix>
</trkpt>
<trkpt lat="-27.274439" lon="151.290064">
  <ele>343.1</ele>
  <time>2026-09-01T20:02:29Z</time>
  <course>270.0</course>
  <speed>0.0</speed>
  <fix>3d</fix>
</trkpt>
<trkpt lat="-27.274439" lon="151.290064">
  <ele>343.09</ele>
  <time>2026-09-01T20:02:29Z</time>
  <course>10.71</course>
  <speed>0.0</speed>
  <fix>3d</fix>
</trkpt>
<trkpt lat="-27.274439" lon="151.290064">
  <ele>343.1</ele>
  <time>2026-09-01T20:02:29Z</time>
  <course>270.0</course>
  <speed>0.0</speed>
  <fix>3d</fix>
</trkpt>
<trkpt lat="-27.274439" lon="151.290064">
  <ele>343.09</ele>
  <time>2026-09-01T20:02:29Z</time>
  <course>10.71</course>
  <speed>0.0</speed>
  <fix>3d</fix>
</trkpt>
<trkpt lat="-27.274439" lon="151.290064">
  <ele>343.1</ele>
  <time>2026-09-01T20:02:29Z</time>
  <course>270.0</course>
  <speed>0.0</speed>
  <fix>3d</fix>
</trkpt>
<trkpt lat="-27.274439" lon="151.290064">
  <ele>343.1</ele>
  <time>2026-09-01T20:02:29Z</time>
  <course>10.71</course>
  <speed>0.0</speed>
  <fix>3d</fix>
</trkpt>
<trkpt lat="-27.274439" lon="151.290064">
  <ele>343.1</ele>
  <time>2026-09-01T20:02:29Z</time>
  <course>270.0</course>
  <speed>0.0</speed>
  <fix>3d</fix>
</trkpt>
<trkpt lat="-27.274439" lon="151.290064">
  <ele>343.1</ele>
  <time>2026-09-01T20:02:29Z</time>
  <course>10.71</course>
  <speed>0.0</speed>
  <fix>3d</fix>
</trkpt>
<trkpt lat="-27.274439" lon="151.290064">
  <ele>343.1</ele>
  <time>2026-09-01T20:02:29Z</time>
  <course>270.0</course>
  <speed>0.0</speed>
  <fix>3d</fix>
</trkpt>
<trkpt lat="-27.274439" lon="151.290064">
  <ele>343.1</ele>
  <time>2026-09-01T20:02:29Z</time>
  <course>10.71</course>
  <speed>0.0</speed>
  <fix>3d</fix>
</trkpt>
<trkpt lat="-27.274439" lon="151.290064">
  <ele>343.1</ele>
  <time>2026-09-01T20:02:29Z</time>
  <course>270.0</course>
  <speed>0.0</speed>
  <fix>3d</fix>
</trkpt>
<trkpt lat="-27.274439" lon="151.290064">
  <ele>343.1</ele>
  <time>2026-09-01T20:02:29Z</time>
  <course>10.71</course>
  <speed>0.0</speed>
  <fix>3d</fix>
</trkpt>
<trkpt lat="-27.274439" lon="151.290064">
  <ele>343.1</ele>
  <time>2026-09-01T20:02:29Z</time>
  <course>270.0</course>
  <speed>0.0</speed>
  <fix>3d</fix>
</trkpt>
<trkpt lat="-27.274439" lon="151.290064">
  <ele>343.1</ele>
  <time>2026-09-01T20:02:29Z</time>
  <course>10.71</course>
  <speed>0.0</speed>
  <fix>3d</fix>
</trkpt>
<trkpt lat="-27.274439" lon="151.290064">
  <ele>343.1</ele>
  <time>2026-09-01T20:02:29Z</time>
  <course>270.0</course>
  <speed>0.0</speed>
  <fix>3d</fix>
</trkpt>
<trkpt lat="-27.274439" lon="151.290064">
  <ele>343.11</ele>
  <time>2026-09-01T20:02:29Z</time>
  <course>10.71</course>
  <speed>0.0</speed>
  <fix>3d</fix>
</trkpt>
<trkpt lat="-27.274439" lon="151.290064">
  <ele>343.1</ele>
  <time>2026-09-01T20:02:29Z</time>
  <course>270.0</course>
  <speed>0.0</speed>
  <fix>3d</fix>
</trkpt>
<trkpt lat="-27.274439" lon="151.290064">
  <ele>343.11</ele>
  <time>2026-09-01T20:02:29Z</time>
  <course>10.71</course>
  <speed>0.0</speed>
  <fix>3d</fix>
</trkpt>
<trkpt lat="-27.274439" lon="151.290064">
  <ele>343.1</ele>
  <time>2026-09-01T20:02:29Z</time>
  <course>270.0</course>
  <speed>0.0</speed>
  <fix>3d</fix>
</trkpt>
<trkpt lat="-27.274439" lon="151.290064">
  <ele>343.11</ele>
  <time>2026-09-01T20:02:29Z</time>
  <course>10.71</course>
  <speed>0.0</speed>
  <fix>3d</fix>
</trkpt>
<trkpt lat="-27.274439" lon="151.290064">
  <ele>343.1</ele>
  <time>2026-09-01T20:02:29Z</time>
  <course>270.0</course>
  <speed>0.0</speed>
  <fix>3d</fix>
</trkpt>
<trkpt lat="-27.274439" lon="151.290064">
  <ele>343.12</ele>
  <time>2026-09-01T20:02:29Z</time>
  <course>10.71</course>
  <speed>0.0</speed>
  <fix>3d</fix>
</trkpt>
<trkpt lat="-27.274439" lon="151.290064">
  <ele>343.1</ele>
  <time>2026-09-01T20:02:29Z</time>
  <course>270.0</course>
  <speed>0.0</speed>
  <fix>3d</fix>
</trkpt>
<trkpt lat="-27.274439" lon="151.290064">
  <ele>343.12</ele>
  <time>2026-09-01T20:02:29Z</time>
  <course>10.71</course>
  <speed>0.0</speed>
  <fix>3d</fix>
</trkpt>
<trkpt lat="-27.274439" lon="151.290064">
  <ele>343.1</ele>
  <time>2026-09-01T20:02:29Z</time>
  <course>270.0</course>
  <speed>0.0</speed>
  <fix>3d</fix>
</trkpt>
<trkpt lat="-27.274439" lon="151.290064">
  <ele>343.1</ele>
  <time>2026-09-01T20:02:29Z</time>
  <course>10.71</course>
  <speed>0.0</speed>
  <fix>3d</fix>
</trkpt>
<trkpt lat="-27.274439" lon="151.290064">
  <ele>343.1</ele>
  <time>2026-09-01T20:02:29Z</time>
  <course>270.0</course>
  <speed>0.0</speed>
  <fix>3d</fix>
</trkpt>
<trkpt lat="-27.274439" lon="151.290064">
  <ele>343.1</ele>
  <time>2026-09-01T20:02:29Z</time>
  <course>10.71</course>
  <speed>0.0</speed>
  <fix>3d</fix>
</trkpt>
<trkpt lat="-27.274439" lon="151.290064">
  <ele>343.1</ele>
  <time>2026-09-01T20:02:29Z</time>
  <course>270.0</course>
  <speed>0.0</speed>
  <fix>3d</fix>
</trkpt>
<trkpt lat="-27.274439" lon="151.290064">
  <ele>343.1</ele>
  <time>2026-09-01T20:02:29Z</time>
  <course>10.71</course>
  <speed>0.0</speed>
  <fix>3d</fix>
</trkpt>
<trkpt lat="-27.274439" lon="151.290064">
  <ele>343.1</ele>
  <time>2026-09-01T20:02:29Z</time>
  <course>270.0</course>
  <speed>0.0</speed>
  <fix>3d</fix>
</trkpt>
<trkpt lat="-27.274439" lon="151.290064">
  <ele>343.09</ele>
  <time>2026-09-01T20:02:29Z</time>
  <course>10.71</course>
  <speed>0.0</speed>
  <fix>3d</fix>
</trkpt>
<trkpt lat="-27.274439" lon="151.290064">
  <ele>343.1</ele>
  <time>2026-09-01T20:02:29Z</time>
  <course>270.0</course>
  <speed>0.0</speed>
  <fix>3d</fix>
</trkpt>
<trkpt lat="-27.274439" lon="151.290064">
  <ele>343.09</ele>
  <time>2026-09-01T20:02:29Z</time>
  <course>10.71</course>
  <speed>0.0</speed>
  <fix>3d</fix>
</trkpt>
<trkpt lat="-27.274439" lon="151.290064">
  <ele>343.1</ele>
  <time>2026-09-01T20:02:29Z</time>
  <course>270.0</course>
  <speed>0.0</speed>
  <fix>3d</fix>
</trkpt>
<trkpt lat="-27.274439" lon="151.290064">
  <ele>343.09</ele>
  <time>2026-09-01T20:02:29Z</time>
  <course>10.71</course>
  <speed>0.0</speed>
  <fix>3d</fix>
</trkpt>
<trkpt lat="-27.274439" lon="151.290064">
  <ele>343.1</ele>
  <time>2026-09-01T20:02:29Z</time>
  <course>270.0</course>
  <speed>0.0</speed>
  <fix>3d</fix>
</trkpt>
<trkpt lat="-27.274439" lon="151.290064">
  <ele>343.1</ele>
  <time>2026-09-01T20:02:29Z</time>
  <course>10.71</course>
  <speed>0.0</speed>
  <fix>3d</fix>
</trkpt>
<trkpt lat="-27.274439" lon="151.290064">
  <ele>343.1</ele>
  <time>2026-09-01T20:02:29Z</time>
  <course>270.0</course>
  <speed>0.0</speed>
  <fix>3d</fix>
</trkpt>
<trkpt lat="-27.274439" lon="151.290064">
  <ele>343.1</ele>
  <time>2026-09-01T20:02:29Z</time>
  <course>10.71</course>
  <speed>0.0</speed>
  <fix>3d</fix>
</trkpt>
<trkpt lat="-27.274439" lon="151.290064">
  <ele>343.1</ele>
  <time>2026-09-01T20:02:29Z</time>
  <course>270.0</course>
  <speed>0.0</speed>
  <fix>3d</fix>
</trkpt>
<trkpt lat="-27.274439" lon="151.290064">
  <ele>343.09</ele>
  <time>2026-09-01T20:02:29Z</time>
  <course>10.71</course>
  <speed>0.0</speed>
  <fix>3d</fix>
</trkpt>
<trkpt lat="-27.274439" lon="151.290064">
  <ele>343.1</ele>
  <time>2026-09-01T20:02:29Z</time>
  <course>270.0</course>
  <speed>0.0</speed>
  <fix>3d</fix>
</trkpt>
<trkpt lat="-27.274439" lon="151.290064">
  <ele>343.09</ele>
  <time>2026-09-01T20:02:29Z</time>
  <course>10.71</course>
  <speed>0.0</speed>
  <fix>3d</fix>
</trkpt>
<trkpt lat="-27.274439" lon="151.290064">
  <ele>343.1</ele>
  <time>2026-09-01T20:02:29Z</time>
  <course>270.0</course>
  <speed>0.0</speed>
  <fix>3d</fix>
</trkpt>
<trkpt lat="-27.274439" lon="151.290064">
  <ele>343.09</ele>
  <time>2026-09-01T20:02:29Z</time>
  <course>10.71</course>
  <speed>0.0</speed>
  <fix>3d</fix>
</trkpt>
<trkpt lat="-27.274439" lon="151.290064">
  <ele>343.1</ele>
  <time>2026-09-01T20:02:29Z</time>
  <course>270.0</course>
  <speed>0.0</speed>
  <fix>3d</fix>
</trkpt>
<trkpt lat="-27.274439" lon="151.290064">
  <ele>343.09</ele>
  <time>2026-09-01T20:02:29Z</time>
  <course>10.71</course>
  <speed>0.0</speed>
  <fix>3d</fix>
</trkpt>
<trkpt lat="-27.274439" lon="151.290064">
  <ele>343.1</ele>
  <time>2026-09-01T20:02:29Z</time>
  <course>270.0</course>
  <speed>0.0</speed>
  <fix>3d</fix>
</trkpt>
<trkpt lat="-27.274439" lon="151.290064">
  <ele>343.09</ele>
  <time>2026-09-01T20:02:29Z</time>
  <course>10.71</course>
  <speed>0.0</speed>
  <fix>3d</fix>
</trkpt>
<trkpt lat="-27.274439" lon="151.290064">
  <ele>343.1</ele>
  <time>2026-09-01T20:02:29Z</time>
  <course>270.0</course>
  <speed>0.0</speed>
  <fix>3d</fix>
</trkpt>
<trkpt lat="-27.274439" lon="151.290064">
  <ele>343.09</ele>
  <time>2026-09-01T20:02:29Z</time>
  <course>10.71</course>
  <speed>0.0</speed>
  <fix>3d</fix>
</trkpt>
<trkpt lat="-27.274439" lon="151.290064">
  <ele>343.1</ele>
  <time>2026-09-01T20:02:29Z</time>
  <course>270.0</course>
  <speed>0.0</speed>
  <fix>3d</fix>
</trkpt>
<trkpt lat="-27.274439" lon="151.290064">
  <ele>343.09</ele>
  <time>2026-09-01T20:02:29Z</time>
  <course>10.71</course>
  <speed>0.0</speed>
  <fix>3d</fix>
</trkpt>
<trkpt lat="-27.274439" lon="151.290064">
  <ele>343.1</ele>
  <time>2026-09-01T20:02:29Z</time>
  <course>270.0</course>
  <speed>0.0</speed>
  <fix>3d</fix>
</trkpt>
<trkpt lat="-27.274439" lon="151.290064">
  <ele>343.09</ele>
  <time>2026-09-01T20:02:29Z</time>
  <course>10.71</course>
  <speed>0.0</speed>
  <fix>3d</fix>
</trkpt>
<trkpt lat="-27.274439" lon="151.290064">
  <ele>343.1</ele>
  <time>2026-09-01T20:02:29Z</time>
  <course>270.0</course>
  <speed>0.0</speed>
  <fix>3d</fix>
</trkpt>
<trkpt lat="-27.274439" lon="151.290064">
  <ele>343.1</ele>
  <time>2026-09-01T20:02:29Z</time>
  <course>10.71</course>
  <speed>0.0</speed>
  <fix>3d</fix>
</trkpt>
<trkpt lat="-27.274439" lon="151.290064">
  <ele>343.1</ele>
  <time>2026-09-01T20:02:29Z</time>
  <course>270.0</course>
  <speed>0.0</speed>
  <fix>3d</fix>
</trkpt>
<trkpt lat="-27.274439" lon="151.290064">
  <ele>343.1</ele>
  <time>2026-09-01T20:02:29Z</time>
  <course>10.71</course>
  <speed>0.0</speed>
  <fix>3d</fix>
</trkpt>
<trkpt lat="-27.274439" lon="151.290064">
  <ele>343.1</ele>
  <time>2026-09-01T20:02:29Z</time>
  <course>270.0</course>
  <speed>0.0</speed>
  <fix>3d</fix>
</trkpt>
<trkpt lat="-27.274439" lon="151.290064">
  <ele>343.1</ele>
  <time>2026-09-01T20:02:29Z</time>
  <course>10.71</course>
  <speed>0.0</speed>
  <fix>3d</fix>
</trkpt>
<trkpt lat="-27.274439" lon="151.290064">
  <ele>343.1</ele>
  <time>2026-09-01T20:02:29Z</time>
  <course>270.0</course>
  <speed>0.0</speed>
  <fix>3d</fix>
</trkpt>
<trkpt lat="-27.274439" lon="151.290064">
  <ele>343.1</ele>
  <time>2026-09-01T20:02:29Z</time>
  <course>10.71</course>
  <speed>0.0</speed>
  <fix>3d</fix>
</trkpt>
<trkpt lat="-27.274439" lon="151.290064">
  <ele>343.1</ele>
  <time>2026-09-01T20:02:29Z</time>
  <course>270.0</course>
  <speed>0.0</speed>
  <fix>3d</fix>
</trkpt>
<trkpt lat="-27.274439" lon="151.290064">
  <ele>343.1</ele>
  <time>2026-09-01T20:02:29Z</time>
  <course>10.71</course>
  <speed>0.0</speed>
  <fix>3d</fix>
</trkpt>
<trkpt lat="-27.274439" lon="151.290064">
  <ele>343.1</ele>
  <time>2026-09-01T20:02:29Z</time>
  <course>270.0</course>
  <speed>0.0</speed>
  <fix>3d</fix>
</trkpt>
<trkpt lat="-27.274439" lon="151.290064">
  <ele>343.1</ele>
  <time>2026-09-01T20:02:29Z</time>
  <course>10.71</course>
  <speed>0.0</speed>
  <fix>3d</fix>
</trkpt>
<trkpt lat="-27.274439" lon="151.290064">
  <ele>343.1</ele>
  <time>2026-09-01T20:02:29Z</time>
  <course>270.0</course>
  <speed>0.0</speed>
  <fix>3d</fix>
</trkpt>
<trkpt lat="-27.274439" lon="151.290064">
  <ele>343.09</ele>
  <time>2026-09-01T20:02:29Z</time>
  <course>10.71</course>
  <speed>0.0</speed>
  <fix>3d</fix>
</trkpt>
<trkpt lat="-27.274439" lon="151.290064">
  <ele>343.1</ele>
  <time>2026-09-01T20:02:29Z</time>
  <course>270.0</course>
  <speed>0.0</speed>
  <fix>3d</fix>
</trkpt>
<trkpt lat="-27.274439" lon="151.290064">
  <ele>343.09</ele>
  <time>2026-09-01T20:02:29Z</time>
  <course>10.71</course>
  <speed>0.0</speed>
  <fix>3d</fix>
</trkpt>
<trkpt lat="-27.274439" lon="151.290064">
  <ele>343.1</ele>
  <time>2026-09-01T20:02:29Z</time>
  <course>270.0</course>
  <speed>0.0</speed>
  <fix>3d</fix>
</trkpt>
<trkpt lat="-27.274439" lon="151.290064">
  <ele>343.09</ele>
  <time>2026-09-01T20:02:29Z</time>
  <course>10.71</course>
  <speed>0.0</speed>
  <fix>3d</fix>
</trkpt>
<trkpt lat="-27.274439" lon="151.290064">
  <ele>343.1</ele>
  <time>2026-09-01T20:02:29Z</time>
  <course>270.0</course>
  <speed>0.0</speed>
  <fix>3d</fix>
</trkpt>
<trkpt lat="-27.274439" lon="151.290064">
  <ele>343.09</ele>
  <time>2026-09-01T20:02:29Z</time>
  <course>10.71</course>
  <speed>0.0</speed>
  <fix>3d</fix>
</trkpt>
<trkpt lat="-27.274439" lon="151.290064">
  <ele>343.1</ele>
  <time>2026-09-01T20:02:29Z</time>
  <course>270.0</course>
  <speed>0.0</speed>
  <fix>3d</fix>
</trkpt>
<trkpt lat="-27.274439" lon="151.290064">
  <ele>343.09</ele>
  <time>2026-09-01T20:02:29Z</time>
  <course>10.71</course>
  <speed>0.0</speed>
  <fix>3d</fix>
</trkpt>
<trkpt lat="-27.274439" lon="151.290064">
  <ele>343.1</ele>
  <time>2026-09-01T20:02:29Z</time>
  <course>116.25</course>
  <speed>0.0</speed>
  <fix>3d</fix>
</trkpt>
<trkpt lat="-27.274439" lon="151.290064">
  <ele>343.08</ele>
  <time>2026-09-01T20:02:29Z</time>
  <course>10.71</course>
  <speed>0.0</speed>
  <fix>3d</fix>
</trkpt>
<trkpt lat="-27.274439" lon="151.290064">
  <ele>343.1</ele>
  <time>2026-09-01T20:02:29Z</time>
  <course>116.25</course>
  <speed>0.0</speed>
  <fix>3d</fix>
</trkpt>
<trkpt lat="-27.274439" lon="151.290064">
  <ele>343.08</ele>
  <time>2026-09-01T20:02:29Z</time>
  <course>10.71</course>
  <speed>0.0</speed>
  <fix>3d</fix>
</trkpt>
<trkpt lat="-27.274439" lon="151.290064">
  <ele>343.08</ele>
  <time>2026-09-01T20:02:29Z</time>
  <course>10.71</course>
  <speed>0.0</speed>
  <fix>3d</fix>
</trkpt>
<trkpt lat="-27.274439" lon="151.290064">
  <ele>343.1</ele>
  <time>2026-09-01T20:02:29Z</time>
  <course>120.15</course>
  <speed>0.0</speed>
  <fix>3d</fix>
</trkpt>
<trkpt lat="-27.274439" lon="151.290064">
  <ele>343.08</ele>
  <time>2026-09-01T20:02:29Z</time>
  <course>10.71</course>
  <speed>0.0</speed>
  <fix>3d</fix>
</trkpt>
<trkpt lat="-27.274439" lon="151.290064">
  <ele>343.08</ele>
  <time>2026-09-01T20:02:29Z</time>
  <course>10.71</course>
  <speed>0.0</speed>
  <fix>3d</fix>
</trkpt>
<trkpt lat="-27.274439" lon="151.290064">
  <ele>343.1</ele>
  <time>2026-09-01T20:02:29Z</time>
  <course>120.15</course>
  <speed>0.0</speed>
  <fix>3d</fix>
</trkpt>
<trkpt lat="-27.274439" lon="151.290064">
  <ele>343.08</ele>
  <time>2026-09-01T20:02:29Z</time>
  <course>10.71</course>
  <speed>0.0</speed>
  <fix>3d</fix>
</trkpt>
<trkpt lat="-27.274439" lon="151.290064">
  <ele>343.08</ele>
  <time>2026-09-01T20:02:29Z</time>
  <course>10.71</course>
  <speed>0.0</speed>
  <fix>3d</fix>
</trkpt>
<trkpt lat="-27.274439" lon="151.290064">
  <ele>343.1</ele>
  <time>2026-09-01T20:02:29Z</time>
  <course>111.11</course>
  <speed>0.0</speed>
  <fix>3d</fix>
</trkpt>
<trkpt lat="-27.274439" lon="151.290064">
  <ele>343.08</ele>
  <time>2026-09-01T20:02:29Z</time>
  <course>10.71</course>
  <speed>0.0</speed>
  <fix>3d</fix>
</trkpt>
<trkpt lat="-27.274439" lon="151.290064">
  <ele>343.08</ele>
  <time>2026-09-01T20:02:29Z</time>
  <course>10.71</course>
  <speed>0.0</speed>
  <fix>3d</fix>
</trkpt>
<trkpt lat="-27.274439" lon="151.290064">
  <ele>343.1</ele>
  <time>2026-09-01T20:02:29Z</time>
  <course>111.11</course>
  <speed>0.0</speed>
  <fix>3d</fix>
</trkpt>
<trkpt lat="-27.274439" lon="151.290064">
  <ele>343.08</ele>
  <time>2026-09-01T20:02:29Z</time>
  <course>10.71</course>
  <speed>0.0</speed>
  <fix>3d</fix>
</trkpt>
<trkpt lat="-27.274439" lon="151.290064">
  <ele>343.08</ele>
  <time>2026-09-01T20:02:29Z</time>
  <course>10.71</course>
  <speed>0.0</speed>
  <fix>3d</fix>
</trkpt>
<trkpt lat="-27.274439" lon="151.290064">
  <ele>343.1</ele>
  <time>2026-09-01T20:02:29Z</time>
  <course>329.57</course>
  <speed>0.0</speed>
  <fix>3d</fix>
</trkpt>
<trkpt lat="-27.274439" lon="151.290064">
  <ele>343.08</ele>
  <time>2026-09-01T20:02:29Z</time>
  <course>10.71</course>
  <speed>0.0</speed>
  <fix>3d</fix>
</trkpt>
<trkpt lat="-27.274439" lon="151.290064">
  <ele>343.08</ele>
  <time>2026-09-01T20:02:29Z</time>
  <course>10.71</course>
  <speed>0.0</speed>
  <fix>3d</fix>
</trkpt>
<trkpt lat="-27.274439" lon="151.290064">
  <ele>343.1</ele>
  <time>2026-09-01T20:02:29Z</time>
  <course>329.57</course>
  <speed>0.0</speed>
  <fix>3d</fix>
</trkpt>
<trkpt lat="-27.274439" lon="151.290064">
  <ele>343.08</ele>
  <time>2026-09-01T20:02:29Z</time>
  <course>10.71</course>
  <speed>0.0</speed>
  <fix>3d</fix>
</trkpt>
<trkpt lat="-27.274439" lon="151.290064">
  <ele>343.08</ele>
  <time>2026-09-01T20:02:29Z</time>
  <course>10.71</course>
  <speed>0.0</speed>
  <fix>3d</fix>
</trkpt>
<trkpt lat="-27.274439" lon="151.290064">
  <ele>343.1</ele>
  <time>2026-09-01T20:02:29Z</time>
  <course>299.13</course>
  <speed>0.0</speed>
  <fix>3d</fix>
</trkpt>
<trkpt lat="-27.274439" lon="151.290064">
  <ele>343.08</ele>
  <time>2026-09-01T20:02:29Z</time>
  <course>10.71</course>
  <speed>0.0</speed>
  <fix>3d</fix>
</trkpt>
<trkpt lat="-27.274439" lon="151.290064">
  <ele>343.08</ele>
  <time>2026-09-01T20:02:29Z</time>
  <course>10.71</course>
  <speed>0.0</speed>
  <fix>3d</fix>
</trkpt>
<trkpt lat="-27.274439" lon="151.290064">
  <ele>343.1</ele>
  <time>2026-09-01T20:02:29Z</time>
  <course>299.13</course>
  <speed>0.0</speed>
  <fix>3d</fix>
</trkpt>
<trkpt lat="-27.274439" lon="151.290064">
  <ele>343.08</ele>
  <time>2026-09-01T20:02:29Z</time>
  <course>10.71</course>
  <speed>0.0</speed>
  <fix>3d</fix>
</trkpt>
<trkpt lat="-27.274439" lon="151.290064">
  <ele>343.09</ele>
  <time>2026-09-01T20:02:29Z</time>
  <course>10.71</course>
  <speed>0.0</speed>
  <fix>3d</fix>
</trkpt>
<trkpt lat="-27.274439" lon="151.290064">
  <ele>343.1</ele>
  <time>2026-09-01T20:02:29Z</time>
  <course>7.42</course>
  <speed>0.0</speed>
  <fix>3d</fix>
</trkpt>
<trkpt lat="-27.274439" lon="151.290064">
  <ele>343.09</ele>
  <time>2026-09-01T20:02:29Z</time>
  <course>10.71</course>
  <speed>0.0</speed>
  <fix>3d</fix>
</trkpt>
<trkpt lat="-27.274439" lon="151.290064">
  <ele>343.12</ele>
  <time>2026-09-01T20:02:29Z</time>
  <course>10.71</course>
  <speed>0.0</speed>
  <fix>3d</fix>
</trkpt>
<trkpt lat="-27.274439" lon="151.290064">
  <ele>343.1</ele>
  <time>2026-09-01T20:02:29Z</time>
  <course>7.42</course>
  <speed>0.0</speed>
  <fix>3d</fix>
</trkpt>
<trkpt lat="-27.274439" lon="151.290064">
  <ele>343.12</ele>
  <time>2026-09-01T20:02:29Z</time>
  <course>10.71</course>
  <speed>0.0</speed>
  <fix>3d</fix>
</trkpt>
<trkpt lat="-27.274439" lon="151.290064">
  <ele>343.16</ele>
  <time>2026-09-01T20:02:29Z</time>
  <course>10.71</course>
  <speed>0.0</speed>
  <fix>3d</fix>
</trkpt>
<trkpt lat="-27.274439" lon="151.290064">
  <ele>343.12</ele>
  <time>2026-09-01T20:02:29Z</time>
  <course>7.92</course>
  <speed>0.0</speed>
  <fix>3d</fix>
</trkpt>
<trkpt lat="-27.274439" lon="151.290064">
  <ele>343.17</ele>
  <time>2026-09-01T20:02:29Z</time>
  <course>10.71</course>
  <speed>0.0</speed>
  <fix>3d</fix>
</trkpt>
<trkpt lat="-27.274439" lon="151.290064">
  <ele>343.21</ele>
  <time>2026-09-01T20:02:29Z</time>
  <course>10.71</course>
  <speed>0.0</speed>
  <fix>3d</fix>
</trkpt>
<trkpt lat="-27.274439" lon="151.290064">
  <ele>343.12</ele>
  <time>2026-09-01T20:02:29Z</time>
  <course>7.92</course>
  <speed>0.0</speed>
  <fix>3d</fix>
</trkpt>
<trkpt lat="-27.274439" lon="151.290064">
  <ele>343.21</ele>
  <time>2026-09-01T20:02:29Z</time>
  <course>10.71</course>
  <speed>0.0</speed>
  <fix>3d</fix>
</trkpt>
<trkpt lat="-27.274439" lon="151.290064">
  <ele>343.32</ele>
  <time>2026-09-01T20:02:29Z</time>
  <course>10.71</course>
  <speed>0.03</speed>
  <fix>3d</fix>
</trkpt>
<trkpt lat="-27.274439" lon="151.290064">
  <ele>343.19</ele>
  <time>2026-09-01T20:02:29Z</time>
  <course>7.25</course>
  <speed>0.0</speed>
  <fix>3d</fix>
</trkpt>
<trkpt lat="-27.274439" lon="151.290064">
  <ele>343.32</ele>
  <time>2026-09-01T20:02:29Z</time>
  <course>10.71</course>
  <speed>0.03</speed>
  <fix>3d</fix>
</trkpt>
<trkpt lat="-27.274439" lon="151.290064">
  <ele>343.49</ele>
  <time>2026-09-01T20:02:29Z</time>
  <course>10.71</course>
  <speed>0.06082762530298219</speed>
  <fix>3d</fix>
</trkpt>
<trkpt lat="-27.274439" lon="151.290064">
  <ele>343.19</ele>
  <time>2026-09-01T20:02:29Z</time>
  <course>7.25</course>
  <speed>0.0</speed>
  <fix>3d</fix>
</trkpt>
<trkpt lat="-27.274439" lon="151.290064">
  <ele>343.54</ele>
  <time>2026-09-01T20:02:29Z</time>
  <course>10.71</course>
  <speed>0.07071067811865475</speed>
  <fix>3d</fix>
</trkpt>
<trkpt lat="-27.2744389" lon="151.290064">
  <ele>343.7</ele>
  <time>2026-09-01T20:02:29Z</time>
  <course>10.71</course>
  <speed>0.09055385138137417</speed>
  <fix>3d</fix>
</trkpt>
<trkpt lat="-27.274439" lon="151.290064">
  <ele>343.38</ele>
  <time>2026-09-01T20:02:29Z</time>
  <course>6.8</course>
  <speed>0.03</speed>
  <fix>3d</fix>
</trkpt>
<trkpt lat="-27.2744389" lon="151.290064">
  <ele>343.76</ele>
  <time>2026-09-01T20:02:29Z</time>
  <course>10.71</course>
  <speed>0.1004987562112089</speed>
  <fix>3d</fix>
</trkpt>
<trkpt lat="-27.2744388" lon="151.290064">
  <ele>343.93</ele>
  <time>2026-09-01T20:02:29Z</time>
  <course>10.71</course>
  <speed>0.13152946437965907</speed>
  <fix>3d</fix>
</trkpt>
<trkpt lat="-27.274439" lon="151.290064">
  <ele>343.38</ele>
  <time>2026-09-01T20:02:29Z</time>
  <course>6.8</course>
  <speed>0.03</speed>
  <fix>3d</fix>
</trkpt>
<trkpt lat="-27.2744388" lon="151.290064">
  <ele>343.99</ele>
  <time>2026-09-01T20:02:29Z</time>
  <course>10.71</course>
  <speed>0.13152946437965907</speed>
  <fix>3d</fix>
</trkpt>
<trkpt lat="-27.2744387" lon="151.290064">
  <ele>344.16</ele>
  <time>2026-09-01T20:02:29Z</time>
  <course>10.7</course>
  <speed>0.15132745950421556</speed>
  <fix>3d</fix>
</trkpt>
<trkpt lat="-27.2744389" lon="151.290064">
  <ele>343.74</ele>
  <time>2026-09-01T20:02:29Z</time>
  <course>6.85</course>
  <speed>0.09</speed>
  <fix>3d</fix>
</trkpt>
<trkpt lat="-27.2744387" lon="151.290064">
  <ele>344.21</ele>
  <time>2026-09-01T20:02:29Z</time>
  <course>10.7</course>
  <speed>0.16124515496597097</speed>
  <fix>3d</fix>
</trkpt>
<trkpt lat="-27.2744385" lon="151.290064">
  <ele>344.39</ele>
  <time>2026-09-01T20:02:29Z</time>
  <course>10.7</course>
  <speed>0.1824828759089466</speed>
  <fix>3d</fix>
</trkpt>
<trkpt lat="-27.2744389" lon="151.290064">
  <ele>343.74</ele>
  <time>2026-09-01T20:02:29Z</time>
  <course>6.85</course>
  <speed>0.09</speed>
  <fix>3d</fix>
</trkpt>
<trkpt lat="-27.2744385" lon="151.2900641">
  <ele>344.44</ele>
  <time>2026-09-01T20:02:29Z</time>
  <course>10.69</course>
  <speed>0.1824828759089466</speed>
  <fix>3d</fix>
</trkpt>
<trkpt lat="-27.2744384" lon="151.2900641">
  <ele>344.62</ele>
  <time>2026-09-01T20:02:29Z</time>
  <course>10.69</course>
  <speed>0.20223748416156684</speed>
  <fix>3d</fix>
</trkpt>
<trkpt lat="-27.2744387" lon="151.290064">
  <ele>344.2</ele>
  <time>2026-09-01T20:02:29Z</time>
  <course>6.96</course>
  <speed>0.16</speed>
  <fix>3d</fix>
</trkpt>
<trkpt lat="-27.2744383" lon="151.2900641">
  <ele>344.68</ele>
  <time>2026-09-01T20:02:29Z</time>
  <course>10.69</course>
  <speed>0.20223748416156684</speed>
  <fix>3d</fix>
</trkpt>
<trkpt lat="-27.2744382" lon="151.2900641">
  <ele>344.85</ele>
  <time>2026-09-01T20:02:29Z</time>
  <course>10.68</course>
  <speed>0.2220360331117452</speed>
  <fix>3d</fix>
</trkpt>
<trkpt lat="-27.2744387" lon="151.290064">
  <ele>344.2</ele>
  <time>2026-09-01T20:02:29Z</time>
  <course>6.96</course>
  <speed>0.16</speed>
  <fix>3d</fix>
</trkpt>
<trkpt lat="-27.2744382" lon="151.2900641">
  <ele>344.86</ele>
  <time>2026-09-01T20:02:29Z</time>
  <course>10.68</course>
  <speed>0.2220360331117452</speed>
  <fix>3d</fix>
</trkpt>
<trkpt lat="-27.274438" lon="151.2900641">
  <ele>345.07</ele>
  <time>2026-09-01T20:02:29Z</time>
  <course>10.66</course>
  <speed>0.23194827009486402</speed>
  <fix>3d</fix>
</trkpt>
<trkpt lat="-27.2744384" lon="151.290064">
  <ele>344.66</ele>
  <time>2026-09-01T20:02:29Z</time>
  <course>7.04</course>
  <speed>0.2</speed>
  <fix>3d</fix>
</trkpt>
<trkpt lat="-27.274438" lon="151.2900641">
  <ele>345.08</ele>
  <time>2026-09-01T20:02:29Z</time>
  <course>10.66</course>
  <speed>0.23194827009486402</speed>
  <fix>3d</fix>
</trkpt>
<trkpt lat="-27.2744378" lon="151.2900642">
  <ele>345.3</ele>
  <time>2026-09-01T20:02:29Z</time>
  <course>10.66</course>
  <speed>0.24331050121192876</speed>
  <fix>3d</fix>
</trkpt>
<trkpt lat="-27.2744384" lon="151.290064">
  <ele>344.66</ele>
  <time>2026-09-01T20:02:29Z</time>
  <course>7.04</course>
  <speed>0.2</speed>
  <fix>3d</fix>
</trkpt>
<trkpt lat="-27.2744378" lon="151.2900642">
  <ele>345.31</ele>
  <time>2026-09-01T20:02:29Z</time>
  <course>10.66</course>
  <speed>0.24331050121192876</speed>
  <fix>3d</fix>
</trkpt>
<trkpt lat="-27.2744376" lon="151.2900642">
  <ele>345.52</ele>
  <time>2026-09-01T20:02:29Z</time>
  <course>10.66</course>
  <speed>0.24331050121192876</speed>
  <fix>3d</fix>
</trkpt>
<trkpt lat="-27.2744379" lon="151.2900641">
  <ele>345.12</ele>
  <time>2026-09-01T20:02:29Z</time>
  <course>7.15</course>
  <speed>0.24</speed>
  <fix>3d</fix>
</trkpt>
<trkpt lat="-27.2744376" lon="151.2900642">
  <ele>345.53</ele>
  <time>2026-09-01T20:02:29Z</time>
  <course>10.66</course>
  <speed>0.24331050121192876</speed>
  <fix>3d</fix>
</trkpt>
<trkpt lat="-27.2744373" lon="151.2900642">
  <ele>345.73</ele>
  <time>2026-09-01T20:02:29Z</time>
  <course>10.66</course>
  <speed>0.24331050121192876</speed>
  <fix>3d</fix>
</trkpt>
<trkpt lat="-27.2744379" lon="151.2900641">
  <ele>345.12</ele>
  <time>2026-09-01T20:02:29Z</time>
  <course>7.15</course>
  <speed>0.24</speed>
  <fix>3d</fix>
</trkpt>
<trkpt lat="-27.2744373" lon="151.2900642">
  <ele>345.73</ele>
  <time>2026-09-01T20:02:29Z</time>
  <course>10.66</course>
  <speed>0.24331050121192876</speed>
  <fix>3d</fix>
</trkpt>
<trkpt lat="-27.2744371" lon="151.2900642">
  <ele>345.92</ele>
  <time>2026-09-01T20:02:29Z</time>
  <course>10.66</course>
  <speed>0.24186773244895649</speed>
  <fix>3d</fix>
</trkpt>
<trkpt lat="-27.2744375" lon="151.2900641">
  <ele>345.56</ele>
  <time>2026-09-01T20:02:29Z</time>
  <course>7.29</course>
  <speed>0.25</speed>
  <fix>3d</fix>
</trkpt>
<trkpt lat="-27.2744371" lon="151.2900642">
  <ele>345.97</ele>
  <time>2026-09-01T20:02:29Z</time>
  <course>10.66</course>
  <speed>0.24186773244895649</speed>
  <fix>3d</fix>
</trkpt>
<trkpt lat="-27.2744369" lon="151.2900643">
  <ele>346.11</ele>
  <time>2026-09-01T20:02:29Z</time>
  <course>10.66</course>
  <speed>0.23194827009486402</speed>
  <fix>3d</fix>
</trkpt>
<trkpt lat="-27.2744375" lon="151.2900641">
  <ele>345.56</ele>
  <time>2026-09-01T20:02:29Z</time>
  <course>7.29</course>
  <speed>0.25</speed>
  <fix>3d</fix>
</trkpt>
<trkpt lat="-27.2744369" lon="151.2900643">
  <ele>346.15</ele>
  <time>2026-09-01T20:02:29Z</time>
  <course>10.66</course>
  <speed>0.23194827009486402</speed>
  <fix>3d</fix>
</trkpt>
<trkpt lat="-27.2744367" lon="151.2900643">
  <ele>346.29</ele>
  <time>2026-09-01T20:02:29Z</time>
  <course>10.66</course>
  <speed>0.2220360331117452</speed>
  <fix>3d</fix>
</trkpt>
<trkpt lat="-27.2744371" lon="151.2900642">
  <ele>345.96</ele>
  <time>2026-09-01T20:02:29Z</time>
  <course>7.47</course>
  <speed>0.25</speed>
  <fix>3d</fix>
</trkpt>
<trkpt lat="-27.2744366" lon="151.2900643">
  <ele>346.33</ele>
  <time>2026-09-01T20:02:29Z</time>
  <course>10.66</course>
  <speed>0.2220360331117452</speed>
  <fix>3d</fix>
</trkpt>
<trkpt lat="-27.2744365" lon="151.2900643">
  <ele>346.45</ele>
  <time>2026-09-01T20:02:29Z</time>
  <course>10.66</course>
  <speed>0.20223748416156684</speed>
  <fix>3d</fix>
</trkpt>
<trkpt lat="-27.2744371" lon="151.2900642">
  <ele>345.96</ele>
  <time>2026-09-01T20:02:29Z</time>
  <course>7.47</course>
  <speed>0.25</speed>
  <fix>3d</fix>
</trkpt>
<trkpt lat="-27.2744365" lon="151.2900643">
  <ele>346.49</ele>
  <time>2026-09-01T20:02:29Z</time>
  <course>10.66</course>
  <speed>0.20223748416156684</speed>
  <fix>3d</fix>
</trkpt>
<trkpt lat="-27.2744363" lon="151.2900643">
  <ele>346.61</ele>
  <time>2026-09-01T20:02:29Z</time>
  <course>10.67</course>
  <speed>0.191049731745428</speed>
  <fix>3d</fix>
</trkpt>
<trkpt lat="-27.2744367" lon="151.2900642">
  <ele>346.32</ele>
  <time>2026-09-01T20:02:29Z</time>
  <course>7.71</course>
  <speed>0.23</speed>
  <fix>3d</fix>
</trkpt>
<trkpt lat="-27.2744363" lon="151.2900643">
  <ele>346.65</ele>
  <time>2026-09-01T20:02:29Z</time>
  <course>10.67</course>
  <speed>0.18110770276274835</speed>
  <fix>3d</fix>
</trkpt>
<trkpt lat="-27.2744362" lon="151.2900643">
  <ele>346.76</ele>
  <time>2026-09-01T20:02:29Z</time>
  <course>10.67</course>
  <speed>0.1711724276862369</speed>
  <fix>3d</fix>
</trkpt>
<trkpt lat="-27.2744367" lon="151.2900642">
  <ele>346.32</ele>
  <time>2026-09-01T20:02:29Z</time>
  <course>7.71</course>
  <speed>0.23</speed>
  <fix>3d</fix>
</trkpt>
<trkpt lat="-27.2744361" lon="151.2900643">
  <ele>346.8</ele>
  <time>2026-09-01T20:02:29Z</time>
  <course>10.67</course>
  <speed>0.16124515496597097</speed>
  <fix>3d</fix>
</trkpt>
<trkpt lat="-27.274436" lon="151.2900644">
  <ele>346.91</ele>
  <time>2026-09-01T20:02:29Z</time>
  <course>10.68</course>
  <speed>0.15132745950421556</speed>
  <fix>3d</fix>
</trkpt>
<trkpt lat="-27.2744363" lon="151.2900643">
  <ele>346.64</ele>
  <time>2026-09-01T20:02:29Z</time>
  <course>8.1</course>
  <speed>0.2</speed>
  <fix>3d</fix>
</trkpt>
<trkpt lat="-27.274436" lon="151.2900644">
  <ele>346.94</ele>
  <time>2026-09-01T20:02:29Z</time>
  <course>10.68</course>
  <speed>0.1414213562373095</speed>
  <fix>3d</fix>
</trkpt>
<trkpt lat="-27.2744359" lon="151.2900644">
  <ele>347.05</ele>
  <time>2026-09-01T20:02:29Z</time>
  <course>10.69</course>
  <speed>0.130384048104053</speed>
  <fix>3d</fix>
</trkpt>
<trkpt lat="-27.2744363" lon="151.2900643">
  <ele>346.64</ele>
  <time>2026-09-01T20:02:29Z</time>
  <course>8.1</course>
  <speed>0.2</speed>
  <fix>3d</fix>
</trkpt>
<trkpt lat="-27.2744359" lon="151.2900644">
  <ele>347.08</ele>
  <time>2026-09-01T20:02:29Z</time>
  <course>10.69</course>
  <speed>0.12041594578792296</speed>
  <fix>3d</fix>
</trkpt>
<trkpt lat="-27.2744358" lon="151.2900644">
  <ele>347.19</ele>
  <time>2026-09-01T20:02:29Z</time>
  <course>10.7</course>
  <speed>0.1004987562112089</speed>
  <fix>3d</fix>
</trkpt>
<trkpt lat="-27.2744359" lon="151.2900644">
  <ele>346.93</ele>
  <time>2026-09-01T20:02:29Z</time>
  <course>8.82</course>
  <speed>0.16</speed>
  <fix>3d</fix>
</trkpt>
<trkpt lat="-27.2744357" lon="151.2900644">
  <ele>347.22</ele>
  <time>2026-09-01T20:02:29Z</time>
  <course>10.7</course>
  <speed>0.1004987562112089</speed>
  <fix>3d</fix>
</trkpt>
<trkpt lat="-27.2744357" lon="151.2900644">
  <ele>347.32</ele>
  <time>2026-09-01T20:02:29Z</time>
  <course>10.7</course>
  <speed>0.08062257748298549</speed>
  <fix>3d</fix>
</trkpt>
<trkpt lat="-27.2744359" lon="151.2900644">
  <ele>346.93</ele>
  <time>2026-09-01T20:02:29Z</time>
  <course>8.82</course>
  <speed>0.16</speed>
  <fix>3d</fix>
</trkpt>
<trkpt lat="-27.2744357" lon="151.2900644">
  <ele>347.33</ele>
  <time>2026-09-01T20:02:29Z</time>
  <course>10.7</course>
  <speed>0.08062257748298549</speed>
  <fix>3d</fix>
</trkpt>
<trkpt lat="-27.2744356" lon="151.2900644">
  <ele>347.46</ele>
  <time>2026-09-01T20:02:29Z</time>
  <course>10.71</course>
  <speed>0.06</speed>
  <fix>3d</fix>
</trkpt>
<trkpt lat="-27.2744357" lon="151.2900644">
  <ele>347.2</ele>
  <time>2026-09-01T20:02:29Z</time>
  <course>10.23</course>
  <speed>0.12</speed>
  <fix>3d</fix>
</trkpt>
<trkpt lat="-27.2744356" lon="151.2900644">
  <ele>347.49</ele>
  <time>2026-09-01T20:02:29Z</time>
  <course>10.71</course>
  <speed>0.05</speed>
  <fix>3d</fix>
</trkpt>
<trkpt lat="-27.2744355" lon="151.2900644">
  <ele>347.59</ele>
  <time>2026-09-01T20:02:29Z</time>
  <course>10.72</course>
  <speed>0.04</speed>
  <fix>3d</fix>
</trkpt>
<trkpt lat="-27.2744357" lon="151.2900644">
  <ele>347.2</ele>
  <time>2026-09-01T20:02:29Z</time>
  <course>10.23</course>
  <speed>0.12</speed>
  <fix>3d</fix>
</trkpt>
<trkpt lat="-27.2744355" lon="151.2900644">
  <ele>347.6</ele>
  <time>2026-09-01T20:02:29Z</time>
  <course>10.72</course>
  <speed>0.04</speed>
  <fix>3d</fix>
</trkpt>
<trkpt lat="-27.2744355" lon="151.2900644">
  <ele>347.72</ele>
  <time>2026-09-01T20:02:29Z</time>
  <course>10.73</course>
  <speed>0.02</speed>
  <fix>3d</fix>
</trkpt>
<trkpt lat="-27.2744355" lon="151.2900645">
  <ele>347.46</ele>
  <time>2026-09-01T20:02:29Z</time>
  <course>13.35</course>
  <speed>0.07</speed>
  <fix>3d</fix>
</trkpt>
<trkpt lat="-27.2744355" lon="151.2900644">
  <ele>347.75</ele>
  <time>2026-09-01T20:02:29Z</time>
  <course>10.73</course>
  <speed>0.01</speed>
  <fix>3d</fix>
</trkpt>
<trkpt lat="-27.2744355" lon="151.2900644">
  <ele>347.85</ele>
  <time>2026-09-01T20:02:29Z</time>
  <course>10.74</course>
  <speed>0.0</speed>
  <fix>3d</fix>
</trkpt>
<trkpt lat="-27.2744355" lon="151.2900645">
  <ele>347.46</ele>
  <time>2026-09-01T20:02:29Z</time>
  <course>13.35</course>
  <speed>0.07</speed>
  <fix>3d</fix>
</trkpt>
<trkpt lat="-27.2744355" lon="151.2900644">
  <ele>347.88</ele>
  <time>2026-09-01T20:02:29Z</time>
  <course>10.75</course>
  <speed>0.0</speed>
  <fix>3d</fix>
</trkpt>
<trkpt lat="-27.2744355" lon="151.2900644">
  <ele>347.98</ele>
  <time>2026-09-01T20:02:29Z</time>
  <course>10.76</course>
  <speed>0.01</speed>
  <fix>3d</fix>
</trkpt>
<trkpt lat="-27.2744354" lon="151.2900645">
  <ele>347.72</ele>
  <time>2026-09-01T20:02:29Z</time>
  <course>24.03</course>
  <speed>0.03</speed>
  <fix>3d</fix>
</trkpt>
<trkpt lat="-27.2744355" lon="151.2900644">
  <ele>348.01</ele>
  <time>2026-09-01T20:02:29Z</time>
  <course>10.77</course>
  <speed>0.02</speed>
  <fix>3d</fix>
</trkpt>
<trkpt lat="-27.2744355" lon="151.2900645">
  <ele>348.12</ele>
  <time>2026-09-01T20:02:29Z</time>
  <course>10.8</course>
  <speed>0.03</speed>
  <fix>3d</fix>
</trkpt>
<trkpt lat="-27.2744354" lon="151.2900645">
  <ele>347.72</ele>
  <time>2026-09-01T20:02:29Z</time>
  <course>24.03</course>
  <speed>0.03</speed>
  <fix>3d</fix>
</trkpt>
<trkpt lat="-27.2744355" lon="151.2900645">
  <ele>348.15</ele>
  <time>2026-09-01T20:02:29Z</time>
  <course>10.82</course>
  <speed>0.03</speed>
  <fix>3d</fix>
</trkpt>
<trkpt lat="-27.2744355" lon="151.2900645">
  <ele>348.25</ele>
  <time>2026-09-01T20:02:29Z</time>
  <course>10.88</course>
  <speed>0.0412310562561766</speed>
  <fix>3d</fix>
</trkpt>
<trkpt lat="-27.2744354" lon="151.2900645">
  <ele>347.97</ele>
  <time>2026-09-01T20:02:29Z</time>
  <course>147.92</course>
  <speed>0.01</speed>
  <fix>3d</fix>
</trkpt>
<trkpt lat="-27.2744355" lon="151.2900645">
  <ele>348.28</ele>
  <time>2026-09-01T20:02:29Z</time>
  <course>10.91</course>
  <speed>0.05099019513592785</speed>
  <fix>3d</fix>
</trkpt>
<trkpt lat="-27.2744355" lon="151.2900645">
  <ele>348.39</ele>
  <time>2026-09-01T20:02:29Z</time>
  <course>10.99</course>
  <speed>0.06082762530298219</speed>
  <fix>3d</fix>
</trkpt>
<trkpt lat="-27.2744354" lon="151.2900645">
  <ele>347.97</ele>
  <time>2026-09-01T20:02:29Z</time>
  <course>147.92</course>
  <speed>0.01</speed>
  <fix>3d</fix>
</trkpt>
<trkpt lat="-27.2744355" lon="151.2900645">
  <ele>348.42</ele>
  <time>2026-09-01T20:02:29Z</time>
  <course>11.0</course>
  <speed>0.06082762530298219</speed>
  <fix>3d</fix>
</trkpt>
<trkpt lat="-27.2744355" lon="151.2900645">
  <ele>348.53</ele>
  <time>2026-09-01T20:02:29Z</time>
  <course>11.04</course>
  <speed>0.07071067811865475</speed>
  <fix>3d</fix>
</trkpt>
<trkpt lat="-27.2744354" lon="151.2900645">
  <ele>348.24</ele>
  <time>2026-09-01T20:02:29Z</time>
  <course>181.61</course>
  <speed>0.04</speed>
  <fix>3d</fix>
</trkpt>
<trkpt lat="-27.2744355" lon="151.2900645">
  <ele>348.56</ele>
  <time>2026-09-01T20:02:29Z</time>
  <course>11.04</course>
  <speed>0.08062257748298549</speed>
  <fix>3d</fix>
</trkpt>
<trkpt lat="-27.2744356" lon="151.2900645">
  <ele>348.67</ele>
  <time>2026-09-01T20:02:29Z</time>
  <course>11.04</course>
  <speed>0.08062257748298549</speed>
  <fix>3d</fix>
</trkpt>
<trkpt lat="-27.2744354" lon="151.2900645">
  <ele>348.24</ele>
  <time>2026-09-01T20:02:29Z</time>
  <course>181.61</course>
  <speed>0.04</speed>
  <fix>3d</fix>
</trkpt>
<trkpt lat="-27.2744356" lon="151.2900645">
  <ele>348.7</ele>
  <time>2026-09-01T20:02:29Z</time>
  <course>11.04</course>
  <speed>0.09055385138137417</speed>
  <fix>3d</fix>
</trkpt>
<trkpt lat="-27.2744357" lon="151.2900645">
  <ele>348.81</ele>
  <time>2026-09-01T20:02:29Z</time>
  <course>11.02</course>
  <speed>0.09055385138137417</speed>
  <fix>3d</fix>
</trkpt>
<trkpt lat="-27.2744355" lon="151.2900645">
  <ele>348.52</ele>
  <time>2026-09-01T20:02:29Z</time>
  <course>186.07</course>
  <speed>0.07</speed>
  <fix>3d</fix>
</trkpt>
<trkpt lat="-27.2744357" lon="151.2900645">
  <ele>348.81</ele>
  <time>2026-09-01T20:02:29Z</time>
  <course>11.02</course>
  <speed>0.09055385138137417</speed>
  <fix>3d</fix>
</trkpt>
<trkpt lat="-27.2744357" lon="151.2900645">
  <ele>348.95</ele>
  <time>2026-09-01T20:02:29Z</time>
  <course>10.98</course>
  <speed>0.1004987562112089</speed>
  <fix>3d</fix>
</trkpt>
<trkpt lat="-27.2744355" lon="151.2900645">
  <ele>348.52</ele>
  <time>2026-09-01T20:02:29Z</time>
  <course>186.07</course>
  <speed>0.07</speed>
  <fix>3d</fix>
</trkpt>
<trkpt lat="-27.2744358" lon="151.2900645">
  <ele>348.96</ele>
  <time>2026-09-01T20:02:29Z</time>
  <course>10.98</course>
  <speed>0.1004987562112089</speed>
  <fix>3d</fix>
</trkpt>
<trkpt lat="-27.2744358" lon="151.2900645">
  <ele>349.09</ele>
  <time>2026-09-01T20:02:29Z</time>
  <course>10.93</course>
  <speed>0.1118033988749895</speed>
  <fix>3d</fix>
</trkpt>
<trkpt lat="-27.2744355" lon="151.2900645">
  <ele>348.8</ele>
  <time>2026-09-01T20:02:29Z</time>
  <course>186.55</course>
  <speed>0.09</speed>
  <fix>3d</fix>
</trkpt>
<trkpt lat="-27.2744359" lon="151.2900645">
  <ele>349.13</ele>
  <time>2026-09-01T20:02:29Z</time>
  <course>10.92</course>
  <speed>0.1118033988749895</speed>
  <fix>3d</fix>
</trkpt>
<trkpt lat="-27.2744359" lon="151.2900645">
  <ele>349.24</ele>
  <time>2026-09-01T20:02:29Z</time>
  <course>10.88</course>
  <speed>0.1118033988749895</speed>
  <fix>3d</fix>
</trkpt>
<trkpt lat="-27.2744355" lon="151.2900645">
  <ele>348.8</ele>
  <time>2026-09-01T20:02:29Z</time>
  <course>186.55</course>
  <speed>0.09</speed>
  <fix>3d</fix>
</trkpt>
<trkpt lat="-27.2744359" lon="151.2900644">
  <ele>349.27</ele>
  <time>2026-09-01T20:02:29Z</time>
  <course>10.87</course>
  <speed>0.1118033988749895</speed>
  <fix>3d</fix>
</trkpt>
<trkpt lat="-27.274436" lon="151.2900644">
  <ele>349.38</ele>
  <time>2026-09-01T20:02:29Z</time>
  <course>10.85</course>
  <speed>0.12165525060596438</speed>
  <fix>3d</fix>
</trkpt>
<trkpt lat="-27.2744358" lon="151.2900645">
  <ele>349.08</ele>
  <time>2026-09-01T20:02:29Z</time>
  <course>186.71</course>
  <speed>0.11</speed>
  <fix>3d</fix>
</trkpt>
<trkpt lat="-27.274436" lon="151.2900644">
  <ele>349.42</ele>
  <time>2026-09-01T20:02:29Z</time>
  <course>10.85</course>
  <speed>0.12165525060596438</speed>
  <fix>3d</fix>
</trkpt>
<trkpt lat="-27.2744361" lon="151.2900644">
  <ele>349.52</ele>
  <time>2026-09-01T20:02:29Z</time>
  <course>10.83</course>
  <speed>0.12165525060596438</speed>
  <fix>3d</fix>
</trkpt>
<trkpt lat="-27.2744358" lon="151.2900645">
  <ele>349.08</ele>
  <time>2026-09-01T20:02:29Z</time>
  <course>186.71</course>
  <speed>0.11</speed>
  <fix>3d</fix>
</trkpt>
<trkpt lat="-27.2744361" lon="151.2900644">
  <ele>349.53</ele>
  <time>2026-09-01T20:02:29Z</time>
  <course>10.83</course>
  <speed>0.12165525060596438</speed>
  <fix>3d</fix>
</trkpt>
<trkpt lat="-27.2744362" lon="151.2900644">
  <ele>349.67</ele>
  <time>2026-09-01T20:02:29Z</time>
  <course>10.82</course>
  <speed>0.12165525060596438</speed>
  <fix>3d</fix>
</trkpt>
<trkpt lat="-27.274436" lon="151.2900645">
  <ele>349.38</ele>
  <time>2026-09-01T20:02:29Z</time>
  <course>186.83</course>
  <speed>0.12</speed>
  <fix>3d</fix>
</trkpt>
<trkpt lat="-27.2744363" lon="151.2900644">
  <ele>349.71</ele>
  <time>2026-09-01T20:02:29Z</time>
  <course>10.82</course>
  <speed>0.13152946437965907</speed>
  <fix>3d</fix>
</trkpt>
<trkpt lat="-27.2744363" lon="151.2900644">
  <ele>349.81</ele>
  <time>2026-09-01T20:02:29Z</time>
  <course>10.82</course>
  <speed>0.13152946437965907</speed>
  <fix>3d</fix>
</trkpt>
<trkpt lat="-27.274436" lon="151.2900645">
  <ele>349.38</ele>
  <time>2026-09-01T20:02:29Z</time>
  <course>186.83</course>
  <speed>0.12</speed>
  <fix>3d</fix>
</trkpt>
<trkpt lat="-27.2744364" lon="151.2900644">
  <ele>349.85</ele>
  <time>2026-09-01T20:02:29Z</time>
  <course>10.82</course>
  <speed>0.13152946437965907</speed>
  <fix>3d</fix>
</trkpt>
<trkpt lat="-27.2744365" lon="151.2900644">
  <ele>349.96</ele>
  <time>2026-09-01T20:02:29Z</time>
  <course>10.82</course>
  <speed>0.13152946437965907</speed>
  <fix>3d</fix>
</trkpt>
<trkpt lat="-27.2744363" lon="151.2900645">
  <ele>349.67</ele>
  <time>2026-09-01T20:02:29Z</time>
  <course>187.22</course>
  <speed>0.13</speed>
  <fix>3d</fix>
</trkpt>
<trkpt lat="-27.2744365" lon="151.2900644">
  <ele>350.0</ele>
  <time>2026-09-01T20:02:29Z</time>
  <course>10.81</course>
  <speed>0.13152946437965907</speed>
  <fix>3d</fix>
</trkpt>
<trkpt lat="-27.2744366" lon="151.2900644">
  <ele>350.11</ele>
  <time>2026-09-01T20:02:29Z</time>
  <course>10.82</course>
  <speed>0.13152946437965907</speed>
  <fix>3d</fix>
</trkpt>
<trkpt lat="-27.2744363" lon="151.2900645">
  <ele>349.67</ele>
  <time>2026-09-01T20:02:29Z</time>
  <course>187.22</course>
  <speed>0.13</speed>
  <fix>3d</fix>
</trkpt>
<trkpt lat="-27.2744366" lon="151.2900644">
  <ele>350.14</ele>
  <time>2026-09-01T20:02:29Z</time>
  <course>10.82</course>
  <speed>0.13152946437965907</speed>
  <fix>3d</fix>
</trkpt>
<trkpt lat="-27.2744367" lon="151.2900644">
  <ele>350.25</ele>
  <time>2026-09-01T20:02:29Z</time>
  <course>10.82</course>
  <speed>0.13152946437965907</speed>
  <fix>3d</fix>
</trkpt>
<trkpt lat="-27.2744365" lon="151.2900645">
  <ele>349.96</ele>
  <time>2026-09-01T20:02:29Z</time>
  <course>187.46</course>
  <speed>0.14</speed>
  <fix>3d</fix>
</trkpt>
<trkpt lat="-27.2744367" lon="151.2900644">
  <ele>350.29</ele>
  <time>2026-09-01T20:02:29Z</time>
  <course>10.82</course>
  <speed>0.130384048104053</speed>
  <fix>3d</fix>
</trkpt>
<trkpt lat="-27.2744368" lon="151.2900644">
  <ele>350.4</ele>
  <time>2026-09-01T20:02:29Z</time>
  <course>10.81</course>
  <speed>0.130384048104053</speed>
  <fix>3d</fix>
</trkpt>
<trkpt lat="-27.2744365" lon="151.2900645">
  <ele>349.96</ele>
  <time>2026-09-01T20:02:29Z</time>
  <course>187.46</course>
  <speed>0.14</speed>
  <fix>3d</fix>
</trkpt>
<trkpt lat="-27.2744368" lon="151.2900644">
  <ele>350.41</ele>
  <time>2026-09-01T20:02:29Z</time>
  <course>10.81</course>
  <speed>0.140356688476182</speed>
  <fix>3d</fix>
</trkpt>
<trkpt lat="-27.2744369" lon="151.2900644">
  <ele>350.55</ele>
  <time>2026-09-01T20:02:29Z</time>
  <course>10.8</course>
  <speed>0.140356688476182</speed>
  <fix>3d</fix>
</trkpt>
<trkpt lat="-27.2744367" lon="151.2900644">
  <ele>350.26</ele>
  <time>2026-09-01T20:02:29Z</time>
  <course>187.54</course>
  <speed>0.14</speed>
  <fix>3d</fix>
</trkpt>
<trkpt lat="-27.274437" lon="151.2900644">
  <ele>350.55</ele>
  <time>2026-09-01T20:02:29Z</time>
  <course>10.8</course>
  <speed>0.140356688476182</speed>
  <fix>3d</fix>
</trkpt>
<trkpt lat="-27.2744371" lon="151.2900644">
  <ele>350.7</ele>
  <time>2026-09-01T20:02:29Z</time>
  <course>10.78</course>
  <speed>0.130384048104053</speed>
  <fix>3d</fix>
</trkpt>
<trkpt lat="-27.2744367" lon="151.2900644">
  <ele>350.26</ele>
  <time>2026-09-01T20:02:29Z</time>
  <course>187.54</course>
  <speed>0.14</speed>
  <fix>3d</fix>
</trkpt>
<trkpt lat="-27.2744371" lon="151.2900644">
  <ele>350.73</ele>
  <time>2026-09-01T20:02:29Z</time>
  <course>10.78</course>
  <speed>0.130384048104053</speed>
  <fix>3d</fix>
</trkpt>
<trkpt lat="-27.2744372" lon="151.2900644">
  <ele>350.85</ele>
  <time>2026-09-01T20:02:29Z</time>
  <course>10.76</course>
  <speed>0.130384048104053</speed>
  <fix>3d</fix>
</trkpt>
<trkpt lat="-27.274437" lon="151.2900644">
  <ele>350.55</ele>
  <time>2026-09-01T20:02:29Z</time>
  <course>187.66</course>
  <speed>0.14</speed>
  <fix>3d</fix>
</trkpt>
<trkpt lat="-27.2744372" lon="151.2900644">
  <ele>350.89</ele>
  <time>2026-09-01T20:02:29Z</time>
  <course>10.75</course>
  <speed>0.130384048104053</speed>
  <fix>3d</fix>
</trkpt>
<trkpt lat="-27.2744373" lon="151.2900644">
  <ele>350.99</ele>
  <time>2026-09-01T20:02:29Z</time>
  <course>10.73</course>
  <speed>0.13</speed>
  <fix>3d</fix>
</trkpt>
<trkpt lat="-27.274437" lon="151.2900644">
  <ele>350.55</ele>
  <time>2026-09-01T20:02:29Z</time>
  <course>187.66</course>
  <speed>0.14</speed>
  <fix>3d</fix>
</trkpt>
<trkpt lat="-27.2744373" lon="151.2900644">
  <ele>351.03</ele>
  <time>2026-09-01T20:02:29Z</time>
  <course>10.73</course>
  <speed>0.130384048104053</speed>
  <fix>3d</fix>
</trkpt>
<trkpt lat="-27.2744374" lon="151.2900644">
  <ele>351.14</ele>
  <time>2026-09-01T20:02:29Z</time>
  <course>10.71</course>
  <speed>0.13</speed>
  <fix>3d</fix>
</trkpt>
<trkpt lat="-27.2744373" lon="151.2900644">
  <ele>350.84</ele>
  <time>2026-09-01T20:02:29Z</time>
  <course>187.87</course>
  <speed>0.14</speed>
  <fix>3d</fix>
</trkpt>
<trkpt lat="-27.2744375" lon="151.2900644">
  <ele>351.17</ele>
  <time>2026-09-01T20:02:29Z</time>
  <course>10.7</course>
  <speed>0.13</speed>
  <fix>3d</fix>
</trkpt>
<trkpt lat="-27.2744376" lon="151.2900644">
  <ele>351.28</ele>
  <time>2026-09-01T20:02:29Z</time>
  <course>10.68</course>
  <speed>0.13</speed>
  <fix>3d</fix>
</trkpt>
<trkpt lat="-27.2744373" lon="151.2900644">
  <ele>350.84</ele>
  <time>2026-09-01T20:02:29Z</time>
  <course>187.87</course>
  <speed>0.14</speed>
  <fix>3d</fix>
</trkpt>
<trkpt lat="-27.2744376" lon="151.2900643">
  <ele>351.32</ele>
  <time>2026-09-01T20:02:29Z</time>
  <course>10.68</course>
  <speed>0.130384048104053</speed>
  <fix>3d</fix>
</trkpt>
<trkpt lat="-27.2744377" lon="151.2900643">
  <ele>351.43</ele>
  <time>2026-09-01T20:02:29Z</time>
  <course>10.65</course>
  <speed>0.130384048104053</speed>
  <fix>3d</fix>
</trkpt>
<trkpt lat="-27.2744375" lon="151.2900643">
  <ele>351.13</ele>
  <time>2026-09-01T20:02:29Z</time>
  <course>188.22</course>
  <speed>0.14</speed>
  <fix>3d</fix>
</trkpt>
<trkpt lat="-27.2744377" lon="151.2900643">
  <ele>351.44</ele>
  <time>2026-09-01T20:02:29Z</time>
  <course>10.65</course>
  <speed>0.130384048104053</speed>
  <fix>3d</fix>
</trkpt>
<trkpt lat="-27.2744378" lon="151.2900643">
  <ele>351.57</ele>
  <time>2026-09-01T20:02:29Z</time>
  <course>10.61</course>
  <speed>0.130384048104053</speed>
  <fix>3d</fix>
</trkpt>
<trkpt lat="-27.2744375" lon="151.2900643">
  <ele>351.13</ele>
  <time>2026-09-01T20:02:29Z</time>
  <course>188.22</course>
  <speed>0.14</speed>
  <fix>3d</fix>
</trkpt>
<trkpt lat="-27.2744378" lon="151.2900643">
  <ele>351.58</ele>
  <time>2026-09-01T20:02:29Z</time>
  <course>10.61</course>
  <speed>0.130384048104053</speed>
  <fix>3d</fix>
</trkpt>
<trkpt lat="-27.2744379" lon="151.2900643">
  <ele>351.71</ele>
  <time>2026-09-01T20:02:29Z</time>
  <course>10.58</course>
  <speed>0.13</speed>
  <fix>3d</fix>
</trkpt>
<trkpt lat="-27.2744378" lon="151.2900642">
  <ele>351.42</ele>
  <time>2026-09-01T20:02:29Z</time>
  <course>188.38</course>
  <speed>0.13</speed>
  <fix>3d</fix>
</trkpt>
<trkpt lat="-27.274438" lon="151.2900643">
  <ele>351.75</ele>
  <time>2026-09-01T20:02:29Z</time>
  <course>10.58</course>
  <speed>0.13</speed>
  <fix>3d</fix>
</trkpt>
<trkpt lat="-27.2744381" lon="151.2900643">
  <ele>351.86</ele>
  <time>2026-09-01T20:02:29Z</time>
  <course>10.57</course>
  <speed>0.12</speed>
  <fix>3d</fix>
</trkpt>
<trkpt lat="-27.2744378" lon="151.2900642">
  <ele>351.42</ele>
  <time>2026-09-01T20:02:29Z</time>
  <course>188.38</course>
  <speed>0.13</speed>
  <fix>3d</fix>
</trkpt>
<trkpt lat="-27.2744381" lon="151.2900643">
  <ele>351.89</ele>
  <time>2026-09-01T20:02:29Z</time>
  <course>10.57</course>
  <speed>0.12</speed>
  <fix>3d</fix>
</trkpt>
<trkpt lat="-27.2744382" lon="151.2900643">
  <ele>352.0</ele>
  <time>2026-09-01T20:02:29Z</time>
  <course>10.57</course>
  <speed>0.12</speed>
  <fix>3d</fix>
</trkpt>
<trkpt lat="-27.274438" lon="151.2900642">
  <ele>351.71</ele>
  <time>2026-09-01T20:02:29Z</time>
  <course>188.33</course>
  <speed>0.13</speed>
  <fix>3d</fix>
</trkpt>
<trkpt lat="-27.2744382" lon="151.2900643">
  <ele>352.0</ele>
  <time>2026-09-01T20:02:29Z</time>
  <course>10.57</course>
  <speed>0.12</speed>
  <fix>3d</fix>
</trkpt>
<trkpt lat="-27.2744383" lon="151.2900643">
  <ele>352.14</ele>
  <time>2026-09-01T20:02:29Z</time>
  <course>10.58</course>
  <speed>0.12</speed>
  <fix>3d</fix>
</trkpt>
<trkpt lat="-27.274438" lon="151.2900642">
  <ele>351.71</ele>
  <time>2026-09-01T20:02:29Z</time>
  <course>188.33</course>
  <speed>0.13</speed>
  <fix>3d</fix>
</trkpt>
<trkpt lat="-27.2744383" lon="151.2900643">
  <ele>352.15</ele>
  <time>2026-09-01T20:02:29Z</time>
  <course>10.58</course>
  <speed>0.12</speed>
  <fix>3d</fix>
</trkpt>
<trkpt lat="-27.2744384" lon="151.2900643">
  <ele>352.28</ele>
  <time>2026-09-01T20:02:29Z</time>
  <course>10.58</course>
  <speed>0.11</speed>
  <fix>3d</fix>
</trkpt>
<trkpt lat="-27.2744383" lon="151.2900642">
  <ele>351.99</ele>
  <time>2026-09-01T20:02:29Z</time>
  <course>188.58</course>
  <speed>0.12</speed>
  <fix>3d</fix>
</trkpt>
<trkpt lat="-27.2744384" lon="151.2900643">
  <ele>352.32</ele>
  <time>2026-09-01T20:02:29Z</time>
  <course>10.57</course>
  <speed>0.11</speed>
  <fix>3d</fix>
</trkpt>
<trkpt lat="-27.2744385" lon="151.2900642">
  <ele>352.43</ele>
  <time>2026-09-01T20:02:29Z</time>
  <course>10.55</course>
  <speed>0.11</speed>
  <fix>3d</fix>
</trkpt>
<trkpt lat="-27.2744383" lon="151.2900642">
  <ele>351.99</ele>
  <time>2026-09-01T20:02:29Z</time>
  <course>188.58</course>
  <speed>0.12</speed>
  <fix>3d</fix>
</trkpt>
<trkpt lat="-27.2744385" lon="151.2900642">
  <ele>352.46</ele>
  <time>2026-09-01T20:02:29Z</time>
  <course>10.55</course>
  <speed>0.11</speed>
  <fix>3d</fix>
</trkpt>
<trkpt lat="-27.2744386" lon="151.2900642">
  <ele>352.57</ele>
  <time>2026-09-01T20:02:29Z</time>
  <course>10.52</course>
  <speed>0.11</speed>
  <fix>3d</fix>
</trkpt>
<trkpt lat="-27.2744385" lon="151.2900642">
  <ele>352.28</ele>
  <time>2026-09-01T20:02:29Z</time>
  <course>189.06</course>
  <speed>0.12</speed>
  <fix>3d</fix>
</trkpt>
<trkpt lat="-27.2744386" lon="151.2900642">
  <ele>352.61</ele>
  <time>2026-09-01T20:02:29Z</time>
  <course>10.51</course>
  <speed>0.11</speed>
  <fix>3d</fix>
</trkpt>
<trkpt lat="-27.2744387" lon="151.2900642">
  <ele>352.72</ele>
  <time>2026-09-01T20:02:29Z</time>
  <course>10.49</course>
  <speed>0.1</speed>
  <fix>3d</fix>
</trkpt>
<trkpt lat="-27.2744385" lon="151.2900642">
  <ele>352.28</ele>
  <time>2026-09-01T20:02:29Z</time>
  <course>189.06</course>
  <speed>0.12</speed>
  <fix>3d</fix>
</trkpt>
<trkpt lat="-27.2744387" lon="151.2900642">
  <ele>352.75</ele>
  <time>2026-09-01T20:02:29Z</time>
  <course>10.48</course>
  <speed>0.1</speed>
  <fix>3d</fix>
</trkpt>
<trkpt lat="-27.2744388" lon="151.2900642">
  <ele>352.86</ele>
  <time>2026-09-01T20:02:29Z</time>
  <course>10.45</course>
  <speed>0.1</speed>
  <fix>3d</fix>
</trkpt>
<trkpt lat="-27.2744387" lon="151.2900641">
  <ele>352.56</ele>
  <time>2026-09-01T20:02:29Z</time>
  <course>189.53</course>
  <speed>0.11</speed>
  <fix>3d</fix>
</trkpt>
<trkpt lat="-27.2744388" lon="151.2900642">
  <ele>352.9</ele>
  <time>2026-09-01T20:02:29Z</time>
  <course>10.44</course>
  <speed>0.1</speed>
  <fix>3d</fix>
</trkpt>
<trkpt lat="-27.2744389" lon="151.2900642">
  <ele>353.0</ele>
  <time>2026-09-01T20:02:29Z</time>
  <course>10.42</course>
  <speed>0.09</speed>
  <fix>3d</fix>
</trkpt>
<trkpt lat="-27.2744387" lon="151.2900641">
  <ele>352.56</ele>
  <time>2026-09-01T20:02:29Z</time>
  <course>189.53</course>
  <speed>0.11</speed>
  <fix>3d</fix>
</trkpt>
<trkpt lat="-27.2744389" lon="151.2900642">
  <ele>353.04</ele>
  <time>2026-09-01T20:02:29Z</time>
  <course>10.41</course>
  <speed>0.09</speed>
  <fix>3d</fix>
</trkpt>
<trkpt lat="-27.274439" lon="151.2900642">
  <ele>353.15</ele>
  <time>2026-09-01T20:02:29Z</time>
  <course>10.39</course>
  <speed>0.09</speed>
  <fix>3d</fix>
</trkpt>
<trkpt lat="-27.2744389" lon="151.2900641">
  <ele>352.84</ele>
  <time>2026-09-01T20:02:29Z</time>
  <course>189.77</course>
  <speed>0.1</speed>
  <fix>3d</fix>
</trkpt>
<trkpt lat="-27.274439" lon="151.2900642">
  <ele>353.19</ele>
  <time>2026-09-01T20:02:29Z</time>
  <course>10.39</course>
  <speed>0.09</speed>
  <fix>3d</fix>
</trkpt>
<trkpt lat="-27.2744391" lon="151.2900642">
  <ele>353.29</ele>
  <time>2026-09-01T20:02:29Z</time>
  <course>10.39</course>
  <speed>0.08</speed>
  <fix>3d</fix>
</trkpt>
<trkpt lat="-27.2744389" lon="151.2900641">
  <ele>352.84</ele>
  <time>2026-09-01T20:02:29Z</time>
  <course>189.77</course>
  <speed>0.1</speed>
  <fix>3d</fix>
</trkpt>
<trkpt lat="-27.2744391" lon="151.2900642">
  <ele>353.33</ele>
  <time>2026-09-01T20:02:29Z</time>
  <course>10.39</course>
  <speed>0.08</speed>
  <fix>3d</fix>
</trkpt>
<trkpt lat="-27.2744391" lon="151.2900642">
  <ele>353.43</ele>
  <time>2026-09-01T20:02:29Z</time>
  <course>10.39</course>
  <speed>0.08</speed>
  <fix>3d</fix>
</trkpt>
<trkpt lat="-27.2744391" lon="151.2900641">
  <ele>353.13</ele>
  <time>2026-09-01T20:02:29Z</time>
  <course>189.99</course>
  <speed>0.08</speed>
  <fix>3d</fix>
</trkpt>
<trkpt lat="-27.2744392" lon="151.2900642">
  <ele>353.46</ele>
  <time>2026-09-01T20:02:29Z</time>
  <course>10.39</course>
  <speed>0.08</speed>
  <fix>3d</fix>
</trkpt>
<trkpt lat="-27.2744392" lon="151.2900642">
  <ele>353.58</ele>
  <time>2026-09-01T20:02:29Z</time>
  <course>10.4</course>
  <speed>0.07</speed>
  <fix>3d</fix>
</trkpt>
<trkpt lat="-27.2744391" lon="151.2900641">
  <ele>353.13</ele>
  <time>2026-09-01T20:02:29Z</time>
  <course>189.99</course>
  <speed>0.08</speed>
  <fix>3d</fix>
</trkpt>
<trkpt lat="-27.2744392" lon="151.2900642">
  <ele>353.59</ele>
  <time>2026-09-01T20:02:29Z</time>
  <course>10.4</course>
  <speed>0.07071067811865475</speed>
  <fix>3d</fix>
</trkpt>
<trkpt lat="-27.2744393" lon="151.2900642">
  <ele>353.72</ele>
  <time>2026-09-01T20:02:29Z</time>
  <course>10.4</course>
  <speed>0.07</speed>
  <fix>3d</fix>
</trkpt>
<trkpt lat="-27.2744392" lon="151.290064">
  <ele>353.41</ele>
  <time>2026-09-01T20:02:29Z</time>
  <course>190.81</course>
  <speed>0.07</speed>
  <fix>3d</fix>
</trkpt>
<trkpt lat="-27.2744393" lon="151.2900642">
  <ele>353.73</ele>
  <time>2026-09-01T20:02:29Z</time>
  <course>10.4</course>
  <speed>0.07</speed>
  <fix>3d</fix>
</trkpt>
<trkpt lat="-27.2744393" lon="151.2900642">
  <ele>353.86</ele>
  <time>2026-09-01T20:02:29Z</time>
  <course>10.4</course>
  <speed>0.06</speed>
  <fix>3d</fix>
</trkpt>
<trkpt lat="-27.2744392" lon="151.290064">
  <ele>353.41</ele>
  <time>2026-09-01T20:02:29Z</time>
  <course>190.81</course>
  <speed>0.07</speed>
  <fix>3d</fix>
</trkpt>
<trkpt lat="-27.2744394" lon="151.2900642">
  <ele>353.9</ele>
  <time>2026-09-01T20:02:29Z</time>
  <course>10.39</course>
  <speed>0.06082762530298219</speed>
  <fix>3d</fix>
</trkpt>
<trkpt lat="-27.2744394" lon="151.2900642">
  <ele>354.0</ele>
  <time>2026-09-01T20:02:29Z</time>
  <course>10.37</course>
  <speed>0.06082762530298219</speed>
  <fix>3d</fix>
</trkpt>
<trkpt lat="-27.2744393" lon="151.290064">
  <ele>353.7</ele>
  <time>2026-09-01T20:02:29Z</time>
  <course>192.03</course>
  <speed>0.06</speed>
  <fix>3d</fix>
</trkpt>
<trkpt lat="-27.2744394" lon="151.2900642">
  <ele>354.04</ele>
  <time>2026-09-01T20:02:29Z</time>
  <course>10.37</course>
  <speed>0.06082762530298219</speed>
  <fix>3d</fix>
</trkpt>
<trkpt lat="-27.2744394" lon="151.2900642">
  <ele>354.15</ele>
  <time>2026-09-01T20:02:29Z</time>
  <course>10.35</course>
  <speed>0.05099019513592785</speed>
  <fix>3d</fix>
</trkpt>
<trkpt lat="-27.2744393" lon="151.290064">
  <ele>353.7</ele>
  <time>2026-09-01T20:02:29Z</time>
  <course>192.03</course>
  <speed>0.06</speed>
  <fix>3d</fix>
</trkpt>
<trkpt lat="-27.2744395" lon="151.2900642">
  <ele>354.17</ele>
  <time>2026-09-01T20:02:29Z</time>
  <course>10.34</course>
  <speed>0.05099019513592785</speed>
  <fix>3d</fix>
</trkpt>
<trkpt lat="-27.2744395" lon="151.2900642">
  <ele>354.29</ele>
  <time>2026-09-01T20:02:29Z</time>
  <course>10.31</course>
  <speed>0.05099019513592785</speed>
  <fix>3d</fix>
</trkpt>
<trkpt lat="-27.2744394" lon="151.290064">
  <ele>353.99</ele>
  <time>2026-09-01T20:02:29Z</time>
  <course>192.9</course>
  <speed>0.05</speed>
  <fix>3d</fix>
</trkpt>
<trkpt lat="-27.2744395" lon="151.2900642">
  <ele>354.32</ele>
  <time>2026-09-01T20:02:29Z</time>
  <course>10.31</course>
  <speed>0.05099019513592785</speed>
  <fix>3d</fix>
</trkpt>
<trkpt lat="-27.2744395" lon="151.2900642">
  <ele>354.43</ele>
  <time>2026-09-01T20:02:29Z</time>
  <course>10.3</course>
  <speed>0.0412310562561766</speed>
  <fix>3d</fix>
</trkpt>
<trkpt lat="-27.2744394" lon="151.290064">
  <ele>353.99</ele>
  <time>2026-09-01T20:02:29Z</time>
  <course>192.9</course>
  <speed>0.05</speed>
  <fix>3d</fix>
</trkpt>
<trkpt lat="-27.2744395" lon="151.2900642">
  <ele>354.47</ele>
  <time>2026-09-01T20:02:29Z</time>
  <course>10.3</course>
  <speed>0.0412310562561766</speed>
  <fix>3d</fix>
</trkpt>
<trkpt lat="-27.2744396" lon="151.2900642">
  <ele>354.58</ele>
  <time>2026-09-01T20:02:29Z</time>
  <course>10.3</course>
  <speed>0.0412310562561766</speed>
  <fix>3d</fix>
</trkpt>
<trkpt lat="-27.2744395" lon="151.290064">
  <ele>354.28</ele>
  <time>2026-09-01T20:02:29Z</time>
  <course>193.81</course>
  <speed>0.04</speed>
  <fix>3d</fix>
</trkpt>
<trkpt lat="-27.2744396" lon="151.2900642">
  <ele>354.61</ele>
  <time>2026-09-01T20:02:29Z</time>
  <course>10.3</course>
  <speed>0.0412310562561766</speed>
  <fix>3d</fix>
</trkpt>
<trkpt lat="-27.2744396" lon="151.2900642">
  <ele>354.72</ele>
  <time>2026-09-01T20:02:29Z</time>
  <course>10.31</course>
  <speed>0.0316227766016838</speed>
  <fix>3d</fix>
</trkpt>
<trkpt lat="-27.2744395" lon="151.290064">
  <ele>354.28</ele>
  <time>2026-09-01T20:02:29Z</time>
  <course>193.81</course>
  <speed>0.04</speed>
  <fix>3d</fix>
</trkpt>
<trkpt lat="-27.2744396" lon="151.2900642">
  <ele>354.75</ele>
  <time>2026-09-01T20:02:29Z</time>
  <course>10.32</course>
  <speed>0.0316227766016838</speed>
  <fix>3d</fix>
</trkpt>
<trkpt lat="-27.2744396" lon="151.2900642">
  <ele>354.86</ele>
  <time>2026-09-01T20:02:29Z</time>
  <course>10.33</course>
  <speed>0.0316227766016838</speed>
  <fix>3d</fix>
</trkpt>
<trkpt lat="-27.2744396" lon="151.2900639">
  <ele>354.56</ele>
  <time>2026-09-01T20:02:29Z</time>
  <course>195.89</course>
  <speed>0.03</speed>
  <fix>3d</fix>
</trkpt>
<trkpt lat="-27.2744396" lon="151.2900642">
  <ele>354.9</ele>
  <time>2026-09-01T20:02:29Z</time>
  <course>10.33</course>
  <speed>0.0316227766016838</speed>
  <fix>3d</fix>
</trkpt>
<trkpt lat="-27.2744396" lon="151.2900641">
  <ele>355.01</ele>
  <time>2026-09-01T20:02:29Z</time>
  <course>10.35</course>
  <speed>0.022360679774997897</speed>
  <fix>3d</fix>
</trkpt>
<trkpt lat="-27.2744396" lon="151.2900639">
  <ele>354.56</ele>
  <time>2026-09-01T20:02:29Z</time>
  <course>195.89</course>
  <speed>0.03</speed>
  <fix>3d</fix>
</trkpt>
<trkpt lat="-27.2744396" lon="151.2900642">
  <ele>355.01</ele>
  <time>2026-09-01T20:02:29Z</time>
  <course>10.36</course>
  <speed>0.022360679774997897</speed>
  <fix>3d</fix>
</trkpt>
<trkpt lat="-27.2744397" lon="151.2900641">
  <ele>355.15</ele>
  <time>2026-09-01T20:02:29Z</time>
  <course>10.38</course>
  <speed>0.022360679774997897</speed>
  <fix>3d</fix>
</trkpt>
<trkpt lat="-27.2744396" lon="151.2900639">
  <ele>354.85</ele>
  <time>2026-09-01T20:02:29Z</time>
  <course>202.29</course>
  <speed>0.02</speed>
  <fix>3d</fix>
</trkpt>
<trkpt lat="-27.2744397" lon="151.2900641">
  <ele>355.16</ele>
  <time>2026-09-01T20:02:29Z</time>
  <course>10.38</course>
  <speed>0.022360679774997897</speed>
  <fix>3d</fix>
</trkpt>
<trkpt lat="-27.2744397" lon="151.2900641">
  <ele>355.3</ele>
  <time>2026-09-01T20:02:29Z</time>
  <course>10.41</course>
  <speed>0.01414213562373095</speed>
  <fix>3d</fix>
</trkpt>
<trkpt lat="-27.2744396" lon="151.2900639">
  <ele>354.85</ele>
  <time>2026-09-01T20:02:29Z</time>
  <course>202.29</course>
  <speed>0.02</speed>
  <fix>3d</fix>
</trkpt>
<trkpt lat="-27.2744397" lon="151.2900641">
  <ele>355.33</ele>
  <time>2026-09-01T20:02:29Z</time>
  <course>10.41</course>
  <speed>0.01414213562373095</speed>
  <fix>3d</fix>
</trkpt>
<trkpt lat="-27.2744397" lon="151.2900641">
  <ele>355.44</ele>
  <time>2026-09-01T20:02:29Z</time>
  <course>10.43</course>
  <speed>0.01414213562373095</speed>
  <fix>3d</fix>
</trkpt>
<trkpt lat="-27.2744397" lon="151.2900639">
  <ele>355.14</ele>
  <time>2026-09-01T20:02:29Z</time>
  <course>218.91</course>
  <speed>0.01</speed>
  <fix>3d</fix>
</trkpt>
<trkpt lat="-27.2744397" lon="151.2900641">
  <ele>355.46</ele>
  <time>2026-09-01T20:02:29Z</time>
  <course>10.43</course>
  <speed>0.01414213562373095</speed>
  <fix>3d</fix>
</trkpt>
<trkpt lat="-27.2744397" lon="151.2900641">
  <ele>355.58</ele>
  <time>2026-09-01T20:02:29Z</time>
  <course>10.45</course>
  <speed>0.01414213562373095</speed>
  <fix>3d</fix>
</trkpt>
<trkpt lat="-27.2744397" lon="151.2900639">
  <ele>355.14</ele>
  <time>2026-09-01T20:02:29Z</time>
  <course>218.91</course>
  <speed>0.01</speed>
  <fix>3d</fix>
</trkpt>
<trkpt lat="-27.2744397" lon="151.2900641">
  <ele>355.62</ele>
  <time>2026-09-01T20:02:29Z</time>
  <course>10.45</course>
  <speed>0.01414213562373095</speed>
  <fix>3d</fix>
</trkpt>
<trkpt lat="-27.2744397" lon="151.2900641">
  <ele>355.72</ele>
  <time>2026-09-01T20:02:29Z</time>
  <course>10.46</course>
  <speed>0.0</speed>
  <fix>3d</fix>
</trkpt>
<trkpt lat="-27.2744397" lon="151.2900639">
  <ele>355.43</ele>
  <time>2026-09-01T20:02:29Z</time>
  <course>258.35</course>
  <speed>0.0</speed>
  <fix>3d</fix>
</trkpt>
<trkpt lat="-27.2744397" lon="151.2900641">
  <ele>355.73</ele>
  <time>2026-09-01T20:02:29Z</time>
  <course>10.46</course>
  <speed>0.0</speed>
  <fix>3d</fix>
</trkpt>
<trkpt lat="-27.2744397" lon="151.2900641">
  <ele>355.87</ele>
  <time>2026-09-01T20:02:29Z</time>
  <course>10.47</course>
  <speed>0.0</speed>
  <fix>3d</fix>
</trkpt>
<trkpt lat="-27.2744397" lon="151.2900639">
  <ele>355.43</ele>
  <time>2026-09-01T20:02:29Z</time>
  <course>258.35</course>
  <speed>0.0</speed>
  <fix>3d</fix>
</trkpt>
<trkpt lat="-27.2744397" lon="151.2900641">
  <ele>355.91</ele>
  <time>2026-09-01T20:02:29Z</time>
  <course>10.47</course>
  <speed>0.0</speed>
  <fix>3d</fix>
</trkpt>
<trkpt lat="-27.2744397" lon="151.2900641">
  <ele>356.01</ele>
  <time>2026-09-01T20:02:29Z</time>
  <course>10.47</course>
  <speed>0.0</speed>
  <fix>3d</fix>
</trkpt>
<trkpt lat="-27.2744397" lon="151.2900639">
  <ele>355.71</ele>
  <time>2026-09-01T20:02:29Z</time>
  <course>303.94</course>
  <speed>0.01</speed>
  <fix>3d</fix>
</trkpt>
<trkpt lat="-27.2744397" lon="151.2900641">
  <ele>356.05</ele>
  <time>2026-09-01T20:02:29Z</time>
  <course>10.47</course>
  <speed>0.0</speed>
  <fix>3d</fix>
</trkpt>
<trkpt lat="-27.2744397" lon="151.2900641">
  <ele>356.16</ele>
  <time>2026-09-01T20:02:29Z</time>
  <course>10.47</course>
  <speed>0.0</speed>
  <fix>3d</fix>
</trkpt>
<trkpt lat="-27.2744397" lon="151.2900639">
  <ele>355.71</ele>
  <time>2026-09-01T20:02:29Z</time>
  <course>303.94</course>
  <speed>0.01</speed>
  <fix>3d</fix>
</trkpt>
<trkpt lat="-27.2744397" lon="151.2900641">
  <ele>356.2</ele>
  <time>2026-09-01T20:02:29Z</time>
  <course>10.47</course>
  <speed>0.0</speed>
  <fix>3d</fix>
</trkpt>
<trkpt lat="-27.2744397" lon="151.290064">
  <ele>356.3</ele>
  <time>2026-09-01T20:02:29Z</time>
  <course>10.47</course>
  <speed>0.0</speed>
  <fix>3d</fix>
</trkpt>
<trkpt lat="-27.2744397" lon="151.2900638">
  <ele>356.0</ele>
  <time>2026-09-01T20:02:29Z</time>
  <course>325.66</course>
  <speed>0.01</speed>
  <fix>3d</fix>
</trkpt>
<trkpt lat="-27.2744397" lon="151.290064">
  <ele>356.34</ele>
  <time>2026-09-01T20:02:29Z</time>
  <course>10.47</course>
  <speed>0.0</speed>
  <fix>3d</fix>
</trkpt>
<trkpt lat="-27.2744396" lon="151.290064">
  <ele>356.45</ele>
  <time>2026-09-01T20:02:29Z</time>
  <course>10.47</course>
  <speed>0.0</speed>
  <fix>3d</fix>
</trkpt>
<trkpt lat="-27.2744397" lon="151.2900638">
  <ele>356.0</ele>
  <time>2026-09-01T20:02:29Z</time>
  <course>325.66</course>
  <speed>0.01</speed>
  <fix>3d</fix>
</trkpt>
<trkpt lat="-27.2744396" lon="151.290064">
  <ele>356.49</ele>
  <time>2026-09-01T20:02:29Z</time>
  <course>10.47</course>
  <speed>0.0</speed>
  <fix>3d</fix>
</trkpt>
<trkpt lat="-27.2744396" lon="151.290064">
  <ele>356.59</ele>
  <time>2026-09-01T20:02:29Z</time>
  <course>10.47</course>
  <speed>0.01</speed>
  <fix>3d</fix>
</trkpt>
<trkpt lat="-27.2744397" lon="151.2900637">
  <ele>356.29</ele>
  <time>2026-09-01T20:02:29Z</time>
  <course>336.52</course>
  <speed>0.02</speed>
  <fix>3d</fix>
</trkpt>
<trkpt lat="-27.2744396" lon="151.290064">
  <ele>356.6</ele>
  <time>2026-09-01T20:02:29Z</time>
  <course>10.47</course>
  <speed>0.01</speed>
  <fix>3d</fix>
</trkpt>
<trkpt lat="-27.2744396" lon="151.290064">
  <ele>356.73</ele>
  <time>2026-09-01T20:02:29Z</time>
  <course>10.47</course>
  <speed>0.01</speed>
  <fix>3d</fix>
</trkpt>
<trkpt lat="-27.2744397" lon="151.2900637">
  <ele>356.29</ele>
  <time>2026-09-01T20:02:29Z</time>
  <course>336.52</course>
  <speed>0.02</speed>
  <fix>3d</fix>
</trkpt>
<trkpt lat="-27.2744396" lon="151.290064">
  <ele>356.74</ele>
  <time>2026-09-01T20:02:29Z</time>
  <course>10.47</course>
  <speed>0.01</speed>
  <fix>3d</fix>
</trkpt>
<trkpt lat="-27.2744396" lon="151.290064">
  <ele>356.88</ele>
  <time>2026-09-01T20:02:29Z</time>
  <course>10.47</course>
  <speed>0.01</speed>
  <fix>3d</fix>
</trkpt>
<trkpt lat="-27.2744397" lon="151.2900637">
  <ele>356.58</ele>
  <time>2026-09-01T20:02:29Z</time>
  <course>343.7</course>
  <speed>0.02</speed>
  <fix>3d</fix>
</trkpt>
<trkpt lat="-27.2744396" lon="151.290064">
  <ele>356.91</ele>
  <time>2026-09-01T20:02:29Z</time>
  <course>10.47</course>
  <speed>0.01</speed>
  <fix>3d</fix>
</trkpt>
<trkpt lat="-27.2744396" lon="151.2900639">
  <ele>357.02</ele>
  <time>2026-09-01T20:02:29Z</time>
  <course>10.48</course>
  <speed>0.01</speed>
  <fix>3d</fix>
</trkpt>
<trkpt lat="-27.2744397" lon="151.2900637">
  <ele>356.58</ele>
  <time>2026-09-01T20:02:29Z</time>
  <course>343.7</course>
  <speed>0.02</speed>
  <fix>3d</fix>
</trkpt>
<trkpt lat="-27.2744396" lon="151.2900639">
  <ele>357.05</ele>
  <time>2026-09-01T20:02:29Z</time>
  <course>10.48</course>
  <speed>0.01</speed>
  <fix>3d</fix>
</trkpt>
<trkpt lat="-27.2744396" lon="151.2900639">
  <ele>357.16</ele>
  <time>2026-09-01T20:02:29Z</time>
  <course>10.49</course>
  <speed>0.01</speed>
  <fix>3d</fix>
</trkpt>
<trkpt lat="-27.2744396" lon="151.2900637">
  <ele>356.86</ele>
  <time>2026-09-01T20:02:29Z</time>
  <course>349.03</course>
  <speed>0.03</speed>
  <fix>3d</fix>
</trkpt>
<trkpt lat="-27.2744396" lon="151.2900639">
  <ele>357.2</ele>
  <time>2026-09-01T20:02:29Z</time>
  <course>10.5</course>
  <speed>0.01</speed>
  <fix>3d</fix>
</trkpt>
<trkpt lat="-27.2744396" lon="151.2900639">
  <ele>357.31</ele>
  <time>2026-09-01T20:02:29Z</time>
  <course>10.51</course>
  <speed>0.02</speed>
  <fix>3d</fix>
</trkpt>
<trkpt lat="-27.2744396" lon="151.2900637">
  <ele>356.86</ele>
  <time>2026-09-01T20:02:29Z</time>
  <course>349.03</course>
  <speed>0.03</speed>
  <fix>3d</fix>
</trkpt>
<trkpt lat="-27.2744396" lon="151.2900639">
  <ele>357.34</ele>
  <time>2026-09-01T20:02:29Z</time>
  <course>10.52</course>
  <speed>0.02</speed>
  <fix>3d</fix>
</trkpt>
<trkpt lat="-27.2744396" lon="151.2900639">
  <ele>357.45</ele>
  <time>2026-09-01T20:02:29Z</time>
  <course>10.53</course>
  <speed>0.02</speed>
  <fix>3d</fix>
</trkpt>
<trkpt lat="-27.2744395" lon="151.2900637">
  <ele>357.15</ele>
  <time>2026-09-01T20:02:29Z</time>
  <course>352.75</course>
  <speed>0.03</speed>
  <fix>3d</fix>
</trkpt>
<trkpt lat="-27.2744396" lon="151.2900639">
  <ele>357.49</ele>
  <time>2026-09-01T20:02:29Z</time>
  <course>10.54</course>
  <speed>0.02</speed>
  <fix>3d</fix>
</trkpt>
<trkpt lat="-27.2744396" lon="151.2900639">
  <ele>357.59</ele>
  <time>2026-09-01T20:02:29Z</time>
  <course>10.56</course>
  <speed>0.02</speed>
  <fix>3d</fix>
</trkpt>
<trkpt lat="-27.2744395" lon="151.2900637">
  <ele>357.15</ele>
  <time>2026-09-01T20:02:29Z</time>
  <course>352.75</course>
  <speed>0.03</speed>
  <fix>3d</fix>
</trkpt>
<trkpt lat="-27.2744396" lon="151.2900639">
  <ele>357.62</ele>
  <time>2026-09-01T20:02:29Z</time>
  <course>10.56</course>
  <speed>0.02</speed>
  <fix>3d</fix>
</trkpt>
<trkpt lat="-27.2744395" lon="151.2900639">
  <ele>357.73</ele>
  <time>2026-09-01T20:02:29Z</time>
  <course>10.58</course>
  <speed>0.02</speed>
  <fix>3d</fix>
</trkpt>
<trkpt lat="-27.2744395" lon="151.2900637">
  <ele>357.44</ele>
  <time>2026-09-01T20:02:29Z</time>
  <course>354.93</course>
  <speed>0.04</speed>
  <fix>3d</fix>
</trkpt>
<trkpt lat="-27.2744395" lon="151.2900639">
  <ele>357.77</ele>
  <time>2026-09-01T20:02:29Z</time>
  <course>10.59</course>
  <speed>0.02</speed>
  <fix>3d</fix>
</trkpt>
<trkpt lat="-27.2744395" lon="151.2900638">
  <ele>357.87</ele>
  <time>2026-09-01T20:02:29Z</time>
  <course>10.6</course>
  <speed>0.02</speed>
  <fix>3d</fix>
</trkpt>
<trkpt lat="-27.2744395" lon="151.2900637">
  <ele>357.44</ele>
  <time>2026-09-01T20:02:29Z</time>
  <course>354.93</course>
  <speed>0.04</speed>
  <fix>3d</fix>
</trkpt>
<trkpt lat="-27.2744395" lon="151.2900638">
  <ele>357.91</ele>
  <time>2026-09-01T20:02:29Z</time>
  <course>10.61</course>
  <speed>0.02</speed>
  <fix>3d</fix>
</trkpt>
<trkpt lat="-27.2744395" lon="151.2900638">
  <ele>358.01</ele>
  <time>2026-09-01T20:02:29Z</time>
  <course>10.62</course>
  <speed>0.02</speed>
  <fix>3d</fix>
</trkpt>
<trkpt lat="-27.2744394" lon="151.2900637">
  <ele>357.72</ele>
  <time>2026-09-01T20:02:29Z</time>
  <course>356.43</course>
  <speed>0.04</speed>
  <fix>3d</fix>
</trkpt>
<trkpt lat="-27.2744395" lon="151.2900638">
  <ele>358.02</ele>
  <time>2026-09-01T20:02:29Z</time>
  <course>10.62</course>
  <speed>0.02</speed>
  <fix>3d</fix>
</trkpt>
<trkpt lat="-27.2744394" lon="151.2900638">
  <ele>358.16</ele>
  <time>2026-09-01T20:02:29Z</time>
  <course>10.63</course>
  <speed>0.02</speed>
  <fix>3d</fix>
</trkpt>
<trkpt lat="-27.2744394" lon="151.2900637">
  <ele>357.72</ele>
  <time>2026-09-01T20:02:29Z</time>
  <course>356.43</course>
  <speed>0.04</speed>
  <fix>3d</fix>
</trkpt>
<trkpt lat="-27.2744394" lon="151.2900638">
  <ele>358.16</ele>
  <time>2026-09-01T20:02:29Z</time>
  <course>10.63</course>
  <speed>0.02</speed>
  <fix>3d</fix>
</trkpt>
<trkpt lat="-27.2744394" lon="151.2900638">
  <ele>358.3</ele>
  <time>2026-09-01T20:02:29Z</time>
  <course>10.64</course>
  <speed>0.02</speed>
  <fix>3d</fix>
</trkpt>
<trkpt lat="-27.2744393" lon="151.2900637">
  <ele>358.01</ele>
  <time>2026-09-01T20:02:29Z</time>
  <course>358.46</course>
  <speed>0.04</speed>
  <fix>3d</fix>
</trkpt>
<trkpt lat="-27.2744394" lon="151.2900638">
  <ele>358.34</ele>
  <time>2026-09-01T20:02:29Z</time>
  <course>10.64</course>
  <speed>0.02</speed>
  <fix>3d</fix>
</trkpt>
<trkpt lat="-27.2744394" lon="151.2900638">
  <ele>358.45</ele>
  <time>2026-09-01T20:02:29Z</time>
  <course>10.65</course>
  <speed>0.02</speed>
  <fix>3d</fix>
</trkpt>
<trkpt lat="-27.2744393" lon="151.2900637">
  <ele>358.01</ele>
  <time>2026-09-01T20:02:29Z</time>
  <course>358.46</course>
  <speed>0.04</speed>
  <fix>3d</fix>
</trkpt>
<trkpt lat="-27.2744393" lon="151.2900638">
  <ele>358.48</ele>
  <time>2026-09-01T20:02:29Z</time>
  <course>10.65</course>
  <speed>0.02</speed>
  <fix>3d</fix>
</trkpt>
<trkpt lat="-27.2744393" lon="151.2900638">
  <ele>358.59</ele>
  <time>2026-09-01T20:02:29Z</time>
  <course>10.66</course>
  <speed>0.02</speed>
  <fix>3d</fix>
</trkpt>
<trkpt lat="-27.2744392" lon="151.2900637">
  <ele>358.3</ele>
  <time>2026-09-01T20:02:29Z</time>
  <course>1.1</course>
  <speed>0.04</speed>
  <fix>3d</fix>
</trkpt>
<trkpt lat="-27.2744393" lon="151.2900638">
  <ele>358.63</ele>
  <time>2026-09-01T20:02:29Z</time>
  <course>10.66</course>
  <speed>0.02</speed>
  <fix>3d</fix>
</trkpt>
<trkpt lat="-27.2744393" lon="151.2900638">
  <ele>358.74</ele>
  <time>2026-09-01T20:02:29Z</time>
  <course>10.67</course>
  <speed>0.02</speed>
  <fix>3d</fix>
</trkpt>
<trkpt lat="-27.2744392" lon="151.2900637">
  <ele>358.3</ele>
  <time>2026-09-01T20:02:29Z</time>
  <course>1.1</course>
  <speed>0.04</speed>
  <fix>3d</fix>
</trkpt>
<trkpt lat="-27.2744393" lon="151.2900638">
  <ele>358.77</ele>
  <time>2026-09-01T20:02:29Z</time>
  <course>10.67</course>
  <speed>0.02</speed>
  <fix>3d</fix>
</trkpt>
<trkpt lat="-27.2744392" lon="151.2900638">
  <ele>358.88</ele>
  <time>2026-09-01T20:02:29Z</time>
  <course>10.68</course>
  <speed>0.02</speed>
  <fix>3d</fix>
</trkpt>
<trkpt lat="-27.2744391" lon="151.2900637">
  <ele>358.59</ele>
  <time>2026-09-01T20:02:29Z</time>
  <course>3.79</course>
  <speed>0.04</speed>
  <fix>3d</fix>
</trkpt>
<trkpt lat="-27.2744392" lon="151.2900638">
  <ele>358.92</ele>
  <time>2026-09-01T20:02:29Z</time>
  <course>10.68</course>
  <speed>0.02</speed>
  <fix>3d</fix>
</trkpt>
<trkpt lat="-27.2744392" lon="151.2900638">
  <ele>359.03</ele>
  <time>2026-09-01T20:02:29Z</time>
  <course>10.69</course>
  <speed>0.02</speed>
  <fix>3d</fix>
</trkpt>
<trkpt lat="-27.2744391" lon="151.2900637">
  <ele>358.59</ele>
  <time>2026-09-01T20:02:29Z</time>
  <course>3.79</course>
  <speed>0.04</speed>
  <fix>3d</fix>
</trkpt>
<trkpt lat="-27.2744392" lon="151.2900638">
  <ele>359.07</ele>
  <time>2026-09-01T20:02:29Z</time>
  <course>10.7</course>
  <speed>0.02</speed>
  <fix>3d</fix>
</trkpt>
<trkpt lat="-27.2744392" lon="151.2900638">
  <ele>359.18</ele>
  <time>2026-09-01T20:02:29Z</time>
  <course>10.7</course>
  <speed>0.02</speed>
  <fix>3d</fix>
</trkpt>
<trkpt lat="-27.2744391" lon="151.2900637">
  <ele>358.88</ele>
  <time>2026-09-01T20:02:29Z</time>
  <course>5.6</course>
  <speed>0.04</speed>
  <fix>3d</fix>
</trkpt>
<trkpt lat="-27.2744391" lon="151.2900638">
  <ele>359.21</ele>
  <time>2026-09-01T20:02:29Z</time>
  <course>10.7</course>
  <speed>0.02</speed>
  <fix>3d</fix>
</trkpt>
<trkpt lat="-27.2744391" lon="151.2900638">
  <ele>359.32</ele>
  <time>2026-09-01T20:02:29Z</time>
  <course>10.71</course>
  <speed>0.02</speed>
  <fix>3d</fix>
</trkpt>
<trkpt lat="-27.2744391" lon="151.2900637">
  <ele>358.88</ele>
  <time>2026-09-01T20:02:29Z</time>
  <course>5.6</course>
  <speed>0.04</speed>
  <fix>3d</fix>
</trkpt>
<trkpt lat="-27.2744391" lon="151.2900638">
  <ele>359.36</ele>
  <time>2026-09-01T20:02:30Z</time>
  <course>10.72</course>
  <speed>0.02</speed>
  <fix>3d</fix>
</trkpt>
<trkpt lat="-27.2744391" lon="151.2900638">
  <ele>359.47</ele>
  <time>2026-09-01T20:02:30Z</time>
  <course>10.72</course>
  <speed>0.02</speed>
  <fix>3d</fix>
</trkpt>
<trkpt lat="-27.274439" lon="151.2900637">
  <ele>359.16</ele>
  <time>2026-09-01T20:02:30Z</time>
  <course>7.08</course>
  <speed>0.04</speed>
  <fix>3d</fix>
</trkpt>
<trkpt lat="-27.2744391" lon="151.2900638">
  <ele>359.5</ele>
  <time>2026-09-01T20:02:30Z</time>
  <course>10.73</course>
  <speed>0.02</speed>
  <fix>3d</fix>
</trkpt>
<trkpt lat="-27.274439" lon="151.2900638">
  <ele>359.61</ele>
  <time>2026-09-01T20:02:30Z</time>
  <course>10.73</course>
  <speed>0.02</speed>
  <fix>3d</fix>
</trkpt>
<trkpt lat="-27.274439" lon="151.2900637">
  <ele>359.16</ele>
  <time>2026-09-01T20:02:30Z</time>
  <course>7.08</course>
  <speed>0.04</speed>
  <fix>3d</fix>
</trkpt>
<trkpt lat="-27.274439" lon="151.2900638">
  <ele>359.61</ele>
  <time>2026-09-01T20:02:30Z</time>
  <course>10.73</course>
  <speed>0.02</speed>
  <fix>3d</fix>
</trkpt>
<trkpt lat="-27.274439" lon="151.2900638">
  <ele>359.75</ele>
  <time>2026-09-01T20:02:30Z</time>
  <course>10.74</course>
  <speed>0.02</speed>
  <fix>3d</fix>
</trkpt>
<trkpt lat="-27.2744389" lon="151.2900637">
  <ele>359.45</ele>
  <time>2026-09-01T20:02:30Z</time>
  <course>8.82</course>
  <speed>0.04</speed>
  <fix>3d</fix>
</trkpt>
<trkpt lat="-27.274439" lon="151.2900638">
  <ele>359.79</ele>
  <time>2026-09-01T20:02:30Z</time>
  <course>10.74</course>
  <speed>0.02</speed>
  <fix>3d</fix>
</trkpt>
<trkpt lat="-27.274439" lon="151.2900638">
  <ele>359.9</ele>
  <time>2026-09-01T20:02:30Z</time>
  <course>10.75</course>
  <speed>0.02</speed>
  <fix>3d</fix>
</trkpt>
<trkpt lat="-27.2744389" lon="151.2900637">
  <ele>359.45</ele>
  <time>2026-09-01T20:02:30Z</time>
  <course>8.82</course>
  <speed>0.04</speed>
  <fix>3d</fix>
</trkpt>
<trkpt lat="-27.274439" lon="151.2900638">
  <ele>359.9</ele>
  <time>2026-09-01T20:02:30Z</time>
  <course>10.75</course>
  <speed>0.02</speed>
  <fix>3d</fix>
</trkpt>
<trkpt lat="-27.2744389" lon="151.2900638">
  <ele>360.04</ele>
  <time>2026-09-01T20:02:30Z</time>
  <course>10.75</course>
  <speed>0.02</speed>
  <fix>3d</fix>
</trkpt>
<trkpt lat="-27.2744388" lon="151.2900637">
  <ele>359.74</ele>
  <time>2026-09-01T20:02:30Z</time>
  <course>10.59</course>
  <speed>0.04</speed>
  <fix>3d</fix>
</trkpt>
<trkpt lat="-27.2744389" lon="151.2900638">
  <ele>360.08</ele>
  <time>2026-09-01T20:02:30Z</time>
  <course>10.75</course>
  <speed>0.02</speed>
  <fix>3d</fix>
</trkpt>
<trkpt lat="-27.2744389" lon="151.2900638">
  <ele>360.18</ele>
  <time>2026-09-01T20:02:30Z</time>
  <course>10.76</course>
  <speed>0.01</speed>
  <fix>3d</fix>
</trkpt>
<trkpt lat="-27.2744388" lon="151.2900637">
  <ele>359.74</ele>
  <time>2026-09-01T20:02:30Z</time>
  <course>10.59</course>
  <speed>0.04</speed>
  <fix>3d</fix>
</trkpt>
<trkpt lat="-27.2744389" lon="151.2900638">
  <ele>360.22</ele>
  <time>2026-09-01T20:02:30Z</time>
  <course>10.76</course>
  <speed>0.01</speed>
  <fix>3d</fix>
</trkpt>
<trkpt lat="-27.2744389" lon="151.2900638">
  <ele>360.33</ele>
  <time>2026-09-01T20:02:30Z</time>
  <course>10.76</course>
  <speed>0.01</speed>
  <fix>3d</fix>
</trkpt>
<trkpt lat="-27.2744388" lon="151.2900637">
  <ele>360.03</ele>
  <time>2026-09-01T20:02:30Z</time>
  <course>12.86</course>
  <speed>0.03</speed>
  <fix>3d</fix>
</trkpt>
<trkpt lat="-27.2744389" lon="151.2900638">
  <ele>360.36</ele>
  <time>2026-09-01T20:02:30Z</time>
  <course>10.77</course>
  <speed>0.01</speed>
  <fix>3d</fix>
</trkpt>
<trkpt lat="-27.2744388" lon="151.2900638">
  <ele>360.47</ele>
  <time>2026-09-01T20:02:30Z</time>
  <course>10.77</course>
  <speed>0.01</speed>
  <fix>3d</fix>
</trkpt>
<trkpt lat="-27.2744388" lon="151.2900637">
  <ele>360.03</ele>
  <time>2026-09-01T20:02:30Z</time>
  <course>12.86</course>
  <speed>0.03</speed>
  <fix>3d</fix>
</trkpt>
<trkpt lat="-27.2744388" lon="151.2900638">
  <ele>360.5</ele>
  <time>2026-09-01T20:02:30Z</time>
  <course>10.77</course>
  <speed>0.01</speed>
  <fix>3d</fix>
</trkpt>
<trkpt lat="-27.2744388" lon="151.2900638">
  <ele>360.61</ele>
  <time>2026-09-01T20:02:30Z</time>
  <course>10.78</course>
  <speed>0.01</speed>
  <fix>3d</fix>
</trkpt>
<trkpt lat="-27.2744387" lon="151.2900637">
  <ele>360.32</ele>
  <time>2026-09-01T20:02:30Z</time>
  <course>16.03</course>
  <speed>0.03</speed>
  <fix>3d</fix>
</trkpt>
<trkpt lat="-27.2744388" lon="151.2900638">
  <ele>360.64</ele>
  <time>2026-09-01T20:02:30Z</time>
  <course>10.78</course>
  <speed>0.01</speed>
  <fix>3d</fix>
</trkpt>
<trkpt lat="-27.2744388" lon="151.2900638">
  <ele>360.74</ele>
  <time>2026-09-01T20:02:30Z</time>
  <course>10.79</course>
  <speed>0.01</speed>
  <fix>3d</fix>
</trkpt>
<trkpt lat="-27.2744387" lon="151.2900637">
  <ele>360.32</ele>
  <time>2026-09-01T20:02:30Z</time>
  <course>16.03</course>
  <speed>0.03</speed>
  <fix>3d</fix>
</trkpt>
<trkpt lat="-27.2744388" lon="151.2900638">
  <ele>360.78</ele>
  <time>2026-09-01T20:02:30Z</time>
  <course>10.8</course>
  <speed>0.0</speed>
  <fix>3d</fix>
</trkpt>
<trkpt lat="-27.2744388" lon="151.2900638">
  <ele>360.88</ele>
  <time>2026-09-01T20:02:30Z</time>
  <course>10.81</course>
  <speed>0.0</speed>
  <fix>3d</fix>
</trkpt>
<trkpt lat="-27.2744387" lon="151.2900637">
  <ele>360.6</ele>
  <time>2026-09-01T20:02:30Z</time>
  <course>19.73</course>
  <speed>0.02</speed>
  <fix>3d</fix>
</trkpt>
<trkpt lat="-27.2744388" lon="151.2900638">
  <ele>360.92</ele>
  <time>2026-09-01T20:02:30Z</time>
  <course>10.81</course>
  <speed>0.0</speed>
  <fix>3d</fix>
</trkpt>
<trkpt lat="-27.2744388" lon="151.2900638">
  <ele>361.02</ele>
  <time>2026-09-01T20:02:30Z</time>
  <course>10.82</course>
  <speed>0.0</speed>
  <fix>3d</fix>
</trkpt>
<trkpt lat="-27.2744387" lon="151.2900637">
  <ele>360.6</ele>
  <time>2026-09-01T20:02:30Z</time>
  <course>19.73</course>
  <speed>0.02</speed>
  <fix>3d</fix>
</trkpt>
<trkpt lat="-27.2744387" lon="151.2900638">
  <ele>361.06</ele>
  <time>2026-09-01T20:02:30Z</time>
  <course>10.82</course>
  <speed>0.0</speed>
  <fix>3d</fix>
</trkpt>
<trkpt lat="-27.2744387" lon="151.2900638">
  <ele>361.17</ele>
  <time>2026-09-01T20:02:30Z</time>
  <course>10.83</course>
  <speed>0.0</speed>
  <fix>3d</fix>
</trkpt>
<trkpt lat="-27.2744386" lon="151.2900637">
  <ele>360.89</ele>
  <time>2026-09-01T20:02:30Z</time>
  <course>23.7</course>
  <speed>0.02</speed>
  <fix>3d</fix>
</trkpt>
<trkpt lat="-27.2744387" lon="151.2900638">
  <ele>361.17</ele>
  <time>2026-09-01T20:02:30Z</time>
  <course>10.83</course>
  <speed>0.0</speed>
  <fix>3d</fix>
</trkpt>
<trkpt lat="-27.2744387" lon="151.2900638">
  <ele>361.31</ele>
  <time>2026-09-01T20:02:30Z</time>
  <course>10.85</course>
  <speed>0.0</speed>
  <fix>3d</fix>
</trkpt>
<trkpt lat="-27.2744386" lon="151.2900637">
  <ele>360.89</ele>
  <time>2026-09-01T20:02:30Z</time>
  <course>23.7</course>
  <speed>0.02</speed>
  <fix>3d</fix>
</trkpt>
<trkpt lat="-27.2744387" lon="151.2900638">
  <ele>361.31</ele>
  <time>2026-09-01T20:02:30Z</time>
  <course>10.85</course>
  <speed>0.0</speed>
  <fix>3d</fix>
</trkpt>
<trkpt lat="-27.2744387" lon="151.2900638">
  <ele>361.45</ele>
  <time>2026-09-01T20:02:30Z</time>
  <course>10.85</course>
  <speed>0.0</speed>
  <fix>3d</fix>
</trkpt>
<trkpt lat="-27.2744386" lon="151.2900637">
  <ele>361.17</ele>
  <time>2026-09-01T20:02:30Z</time>
  <course>29.19</course>
  <speed>0.02</speed>
  <fix>3d</fix>
</trkpt>
<trkpt lat="-27.2744387" lon="151.2900638">
  <ele>361.49</ele>
  <time>2026-09-01T20:02:30Z</time>
  <course>10.85</course>
  <speed>0.0</speed>
  <fix>3d</fix>
</trkpt>
<trkpt lat="-27.2744387" lon="151.2900638">
  <ele>361.6</ele>
  <time>2026-09-01T20:02:30Z</time>
  <course>10.85</course>
  <speed>0.0</speed>
  <fix>3d</fix>
</trkpt>
<trkpt lat="-27.2744386" lon="151.2900637">
  <ele>361.17</ele>
  <time>2026-09-01T20:02:30Z</time>
  <course>29.19</course>
  <speed>0.02</speed>
  <fix>3d</fix>
</trkpt>
<trkpt lat="-27.2744387" lon="151.2900638">
  <ele>361.63</ele>
  <time>2026-09-01T20:02:30Z</time>
  <course>10.85</course>
  <speed>0.0</speed>
  <fix>3d</fix>
</trkpt>
<trkpt lat="-27.2744387" lon="151.2900638">
  <ele>361.74</ele>
  <time>2026-09-01T20:02:30Z</time>
  <course>10.86</course>
  <speed>0.0</speed>
  <fix>3d</fix>
</trkpt>
<trkpt lat="-27.2744386" lon="151.2900637">
  <ele>361.46</ele>
  <time>2026-09-01T20:02:30Z</time>
  <course>36.74</course>
  <speed>0.01</speed>
  <fix>3d</fix>
</trkpt>
<trkpt lat="-27.2744387" lon="151.2900638">
  <ele>361.78</ele>
  <time>2026-09-01T20:02:30Z</time>
  <course>10.86</course>
  <speed>0.0</speed>
  <fix>3d</fix>
</trkpt>
<trkpt lat="-27.2744387" lon="151.2900638">
  <ele>361.88</ele>
  <time>2026-09-01T20:02:30Z</time>
  <course>10.86</course>
  <speed>0.0</speed>
  <fix>3d</fix>
</trkpt>
<trkpt lat="-27.2744386" lon="151.2900637">
  <ele>361.46</ele>
  <time>2026-09-01T20:02:30Z</time>
  <course>36.74</course>
  <speed>0.01</speed>
  <fix>3d</fix>
</trkpt>
<trkpt lat="-27.2744387" lon="151.2900638">
  <ele>361.89</ele>
  <time>2026-09-01T20:02:30Z</time>
  <course>10.86</course>
  <speed>0.0</speed>
  <fix>3d</fix>
</trkpt>
<trkpt lat="-27.2744387" lon="151.2900638">
  <ele>362.03</ele>
  <time>2026-09-01T20:02:30Z</time>
  <course>10.86</course>
  <speed>0.0</speed>
  <fix>3d</fix>
</trkpt>
<trkpt lat="-27.2744385" lon="151.2900638">
  <ele>361.75</ele>
  <time>2026-09-01T20:02:30Z</time>
  <course>46.04</course>
  <speed>0.01</speed>
  <fix>3d</fix>
</trkpt>
<trkpt lat="-27.2744387" lon="151.2900638">
  <ele>362.07</ele>
  <time>2026-09-01T20:02:30Z</time>
  <course>10.86</course>
  <speed>0.0</speed>
  <fix>3d</fix>
</trkpt>
<trkpt lat="-27.2744387" lon="151.2900638">
  <ele>362.17</ele>
  <time>2026-09-01T20:02:30Z</time>
  <course>10.87</course>
  <speed>0.0</speed>
  <fix>3d</fix>
</trkpt>
<trkpt lat="-27.2744385" lon="151.2900638">
  <ele>361.75</ele>
  <time>2026-09-01T20:02:30Z</time>
  <course>46.04</course>
  <speed>0.01</speed>
  <fix>3d</fix>
</trkpt>
<trkpt lat="-27.2744387" lon="151.2900638">
  <ele>362.21</ele>
  <time>2026-09-01T20:02:30Z</time>
  <course>10.87</course>
  <speed>0.0</speed>
  <fix>3d</fix>
</trkpt>
<trkpt lat="-27.2744387" lon="151.2900638">
  <ele>362.32</ele>
  <time>2026-09-01T20:02:30Z</time>
  <course>10.88</course>
  <speed>0.0</speed>
  <fix>3d</fix>
</trkpt>
<trkpt lat="-27.2744385" lon="151.2900639">
  <ele>362.04</ele>
  <time>2026-09-01T20:02:30Z</time>
  <course>56.99</course>
  <speed>0.01</speed>
  <fix>3d</fix>
</trkpt>
<trkpt lat="-27.2744387" lon="151.2900638">
  <ele>362.36</ele>
  <time>2026-09-01T20:02:30Z</time>
  <course>10.89</course>
  <speed>0.0</speed>
  <fix>3d</fix>
</trkpt>
<trkpt lat="-27.2744387" lon="151.2900638">
  <ele>362.46</ele>
  <time>2026-09-01T20:02:30Z</time>
  <course>10.9</course>
  <speed>0.0</speed>
  <fix>3d</fix>
</trkpt>
<trkpt lat="-27.2744385" lon="151.2900639">
  <ele>362.04</ele>
  <time>2026-09-01T20:02:30Z</time>
  <course>56.99</course>
  <speed>0.01</speed>
  <fix>3d</fix>
</trkpt>
<trkpt lat="-27.2744387" lon="151.2900638">
  <ele>362.5</ele>
  <time>2026-09-01T20:02:30Z</time>
  <course>10.91</course>
  <speed>0.0</speed>
  <fix>3d</fix>
</trkpt>
<trkpt lat="-27.2744387" lon="151.2900638">
  <ele>362.61</ele>
  <time>2026-09-01T20:02:30Z</time>
  <course>10.92</course>
  <speed>0.01</speed>
  <fix>3d</fix>
</trkpt>
<trkpt lat="-27.2744385" lon="151.2900639">
  <ele>362.34</ele>
  <time>2026-09-01T20:02:30Z</time>
  <course>68.27</course>
  <speed>0.01</speed>
  <fix>3d</fix>
</trkpt>
<trkpt lat="-27.2744387" lon="151.2900638">
  <ele>362.65</ele>
  <time>2026-09-01T20:02:30Z</time>
  <course>10.92</course>
  <speed>0.01</speed>
  <fix>3d</fix>
</trkpt>
<trkpt lat="-27.2744386" lon="151.2900638">
  <ele>362.76</ele>
  <time>2026-09-01T20:02:30Z</time>
  <course>10.94</course>
  <speed>0.01</speed>
  <fix>3d</fix>
</trkpt>
<trkpt lat="-27.2744385" lon="151.2900639">
  <ele>362.34</ele>
  <time>2026-09-01T20:02:30Z</time>
  <course>68.27</course>
  <speed>0.01</speed>
  <fix>3d</fix>
</trkpt>
<trkpt lat="-27.2744386" lon="151.2900638">
  <ele>362.76</ele>
  <time>2026-09-01T20:02:30Z</time>
  <course>10.94</course>
  <speed>0.01</speed>
  <fix>3d</fix>
</trkpt>
<trkpt lat="-27.2744386" lon="151.2900638">
  <ele>362.9</ele>
  <time>2026-09-01T20:02:30Z</time>
  <course>10.94</course>
  <speed>0.01</speed>
  <fix>3d</fix>
</trkpt>
<trkpt lat="-27.2744385" lon="151.2900639">
  <ele>362.63</ele>
  <time>2026-09-01T20:02:30Z</time>
  <course>78.25</course>
  <speed>0.0</speed>
  <fix>3d</fix>
</trkpt>
<trkpt lat="-27.2744386" lon="151.2900638">
  <ele>362.91</ele>
  <time>2026-09-01T20:02:30Z</time>
  <course>10.94</course>
  <speed>0.01</speed>
  <fix>3d</fix>
</trkpt>
<trkpt lat="-27.2744386" lon="151.2900638">
  <ele>363.05</ele>
  <time>2026-09-01T20:02:30Z</time>
  <course>10.94</course>
  <speed>0.01</speed>
  <fix>3d</fix>
</trkpt>
<trkpt lat="-27.2744385" lon="151.2900639">
  <ele>362.63</ele>
  <time>2026-09-01T20:02:30Z</time>
  <course>78.25</course>
  <speed>0.0</speed>
  <fix>3d</fix>
</trkpt>
<trkpt lat="-27.2744386" lon="151.2900638">
  <ele>363.08</ele>
  <time>2026-09-01T20:02:30Z</time>
  <course>10.94</course>
  <speed>0.01</speed>
  <fix>3d</fix>
</trkpt>
<trkpt lat="-27.2744386" lon="151.2900638">
  <ele>363.2</ele>
  <time>2026-09-01T20:02:30Z</time>
  <course>10.93</course>
  <speed>0.01</speed>
  <fix>3d</fix>
</trkpt>
<trkpt lat="-27.2744385" lon="151.2900639">
  <ele>362.92</ele>
  <time>2026-09-01T20:02:30Z</time>
  <course>89.18</course>
  <speed>0.0</speed>
  <fix>3d</fix>
</trkpt>
<trkpt lat="-27.2744386" lon="151.2900638">
  <ele>363.23</ele>
  <time>2026-09-01T20:02:30Z</time>
  <course>10.93</course>
  <speed>0.01</speed>
  <fix>3d</fix>
</trkpt>
<trkpt lat="-27.2744386" lon="151.2900638">
  <ele>363.34</ele>
  <time>2026-09-01T20:02:30Z</time>
  <course>10.92</course>
  <speed>0.01</speed>
  <fix>3d</fix>
</trkpt>
<trkpt lat="-27.2744385" lon="151.2900639">
  <ele>362.92</ele>
  <time>2026-09-01T20:02:30Z</time>
  <course>89.18</course>
  <speed>0.0</speed>
  <fix>3d</fix>
</trkpt>
<trkpt lat="-27.2744386" lon="151.2900638">
  <ele>363.38</ele>
  <time>2026-09-01T20:02:30Z</time>
  <course>10.92</course>
  <speed>0.01</speed>
  <fix>3d</fix>
</trkpt>
<trkpt lat="-27.2744386" lon="151.2900638">
  <ele>363.49</ele>
  <time>2026-09-01T20:02:30Z</time>
  <course>10.91</course>
  <speed>0.01</speed>
  <fix>3d</fix>
</trkpt>
<trkpt lat="-27.2744385" lon="151.2900639">
  <ele>363.21</ele>
  <time>2026-09-01T20:02:30Z</time>
  <course>102.03</course>
  <speed>0.0</speed>
  <fix>3d</fix>
</trkpt>
<trkpt lat="-27.2744386" lon="151.2900638">
  <ele>363.51</ele>
  <time>2026-09-01T20:02:30Z</time>
  <course>10.91</course>
  <speed>0.01</speed>
  <fix>3d</fix>
</trkpt>
<trkpt lat="-27.2744386" lon="151.2900638">
  <ele>363.63</ele>
  <time>2026-09-01T20:02:30Z</time>
  <course>10.9</course>
  <speed>0.01</speed>
  <fix>3d</fix>
</trkpt>
<trkpt lat="-27.2744385" lon="151.2900639">
  <ele>363.21</ele>
  <time>2026-09-01T20:02:30Z</time>
  <course>102.03</course>
  <speed>0.0</speed>
  <fix>3d</fix>
</trkpt>
<trkpt lat="-27.2744386" lon="151.2900638">
  <ele>363.67</ele>
  <time>2026-09-01T20:02:30Z</time>
  <course>10.9</course>
  <speed>0.01</speed>
  <fix>3d</fix>
</trkpt>
<trkpt lat="-27.2744387" lon="151.2900638">
  <ele>363.77</ele>
  <time>2026-09-01T20:02:30Z</time>
  <course>10.89</course>
  <speed>0.01</speed>
  <fix>3d</fix>
</trkpt>
<trkpt lat="-27.2744385" lon="151.290064">
  <ele>363.5</ele>
  <time>2026-09-01T20:02:30Z</time>
  <course>118.95</course>
  <speed>0.0</speed>
  <fix>3d</fix>
</trkpt>
<trkpt lat="-27.2744386" lon="151.2900638">
  <ele>363.78</ele>
  <time>2026-09-01T20:02:30Z</time>
  <course>10.89</course>
  <speed>0.01</speed>
  <fix>3d</fix>
</trkpt>
<trkpt lat="-27.2744387" lon="151.2900638">
  <ele>363.92</ele>
  <time>2026-09-01T20:02:30Z</time>
  <course>10.89</course>
  <speed>0.01</speed>
  <fix>3d</fix>
</trkpt>
<trkpt lat="-27.2744385" lon="151.290064">
  <ele>363.5</ele>
  <time>2026-09-01T20:02:30Z</time>
  <course>118.95</course>
  <speed>0.0</speed>
  <fix>3d</fix>
</trkpt>
<trkpt lat="-27.2744387" lon="151.2900638">
  <ele>363.92</ele>
  <time>2026-09-01T20:02:30Z</time>
  <course>10.89</course>
  <speed>0.01</speed>
  <fix>3d</fix>
</trkpt>
<trkpt lat="-27.2744387" lon="151.2900639">
  <ele>364.06</ele>
  <time>2026-09-01T20:02:30Z</time>
  <course>10.88</course>
  <speed>0.01</speed>
  <fix>3d</fix>
</trkpt>
<trkpt lat="-27.2744385" lon="151.290064">
  <ele>363.79</ele>
  <time>2026-09-01T20:02:30Z</time>
  <course>140.1</course>
  <speed>0.0</speed>
  <fix>3d</fix>
</trkpt>
<trkpt lat="-27.2744387" lon="151.2900639">
  <ele>364.07</ele>
  <time>2026-09-01T20:02:30Z</time>
  <course>10.88</course>
  <speed>0.01</speed>
  <fix>3d</fix>
</trkpt>
<trkpt lat="-27.2744387" lon="151.2900639">
  <ele>364.21</ele>
  <time>2026-09-01T20:02:30Z</time>
  <course>10.87</course>
  <speed>0.02</speed>
  <fix>3d</fix>
</trkpt>
<trkpt lat="-27.2744385" lon="151.290064">
  <ele>363.79</ele>
  <time>2026-09-01T20:02:30Z</time>
  <course>140.1</course>
  <speed>0.0</speed>
  <fix>3d</fix>
</trkpt>
<trkpt lat="-27.2744387" lon="151.2900639">
  <ele>364.24</ele>
  <time>2026-09-01T20:02:30Z</time>
  <course>10.87</course>
  <speed>0.02</speed>
  <fix>3d</fix>
</trkpt>
<trkpt lat="-27.2744387" lon="151.2900639">
  <ele>364.35</ele>
  <time>2026-09-01T20:02:30Z</time>
  <course>10.87</course>
  <speed>0.02</speed>
  <fix>3d</fix>
</trkpt>
<trkpt lat="-27.2744385" lon="151.290064">
  <ele>364.08</ele>
  <time>2026-09-01T20:02:30Z</time>
  <course>154.88</course>
  <speed>0.01</speed>
  <fix>3d</fix>
</trkpt>
<trkpt lat="-27.2744387" lon="151.2900639">
  <ele>364.35</ele>
  <time>2026-09-01T20:02:30Z</time>
  <course>10.87</course>
  <speed>0.02</speed>
  <fix>3d</fix>
</trkpt>
<trkpt lat="-27.2744387" lon="151.2900639">
  <ele>364.49</ele>
  <time>2026-09-01T20:02:30Z</time>
  <course>10.86</course>
  <speed>0.02</speed>
  <fix>3d</fix>
</trkpt>
<trkpt lat="-27.2744385" lon="151.290064">
  <ele>364.08</ele>
  <time>2026-09-01T20:02:30Z</time>
  <course>154.88</course>
  <speed>0.01</speed>
  <fix>3d</fix>
</trkpt>
<trkpt lat="-27.2744387" lon="151.2900639">
  <ele>364.5</ele>
  <time>2026-09-01T20:02:30Z</time>
  <course>10.86</course>
  <speed>0.02</speed>
  <fix>3d</fix>
</trkpt>
<trkpt lat="-27.2744387" lon="151.2900639">
  <ele>364.64</ele>
  <time>2026-09-01T20:02:30Z</time>
  <course>10.86</course>
  <speed>0.02</speed>
  <fix>3d</fix>
</trkpt>
<trkpt lat="-27.2744385" lon="151.290064">
  <ele>364.36</ele>
  <time>2026-09-01T20:02:30Z</time>
  <course>163.04</course>
  <speed>0.01</speed>
  <fix>3d</fix>
</trkpt>
<trkpt lat="-27.2744387" lon="151.2900639">
  <ele>364.68</ele>
  <time>2026-09-01T20:02:30Z</time>
  <course>10.86</course>
  <speed>0.02</speed>
  <fix>3d</fix>
</trkpt>
<trkpt lat="-27.2744387" lon="151.2900639">
  <ele>364.79</ele>
  <time>2026-09-01T20:02:30Z</time>
  <course>10.86</course>
  <speed>0.02</speed>
  <fix>3d</fix>
</trkpt>
<trkpt lat="-27.2744385" lon="151.290064">
  <ele>364.36</ele>
  <time>2026-09-01T20:02:30Z</time>
  <course>163.04</course>
  <speed>0.01</speed>
  <fix>3d</fix>
</trkpt>
<trkpt lat="-27.2744387" lon="151.2900639">
  <ele>364.79</ele>
  <time>2026-09-01T20:02:30Z</time>
  <course>10.86</course>
  <speed>0.02</speed>
  <fix>3d</fix>
</trkpt>
<trkpt lat="-27.2744387" lon="151.2900639">
  <ele>364.93</ele>
  <time>2026-09-01T20:02:30Z</time>
  <course>10.85</course>
  <speed>0.02</speed>
  <fix>3d</fix>
</trkpt>
<trkpt lat="-27.2744385" lon="151.290064">
  <ele>364.65</ele>
  <time>2026-09-01T20:02:30Z</time>
  <course>170.75</course>
  <speed>0.01</speed>
  <fix>3d</fix>
</trkpt>
<trkpt lat="-27.2744387" lon="151.2900639">
  <ele>364.94</ele>
  <time>2026-09-01T20:02:30Z</time>
  <course>10.85</course>
  <speed>0.02</speed>
  <fix>3d</fix>
</trkpt>
<trkpt lat="-27.2744387" lon="151.2900639">
  <ele>365.07</ele>
  <time>2026-09-01T20:02:30Z</time>
  <course>10.84</course>
  <speed>0.02</speed>
  <fix>3d</fix>
</trkpt>
<trkpt lat="-27.2744385" lon="151.290064">
  <ele>364.65</ele>
  <time>2026-09-01T20:02:30Z</time>
  <course>170.75</course>
  <speed>0.01</speed>
  <fix>3d</fix>
</trkpt>
<trkpt lat="-27.2744387" lon="151.2900639">
  <ele>365.11</ele>
  <time>2026-09-01T20:02:30Z</time>
  <course>10.84</course>
  <speed>0.02</speed>
  <fix>3d</fix>
</trkpt>
<trkpt lat="-27.2744387" lon="151.2900639">
  <ele>365.22</ele>
  <time>2026-09-01T20:02:30Z</time>
  <course>10.83</course>
  <speed>0.02</speed>
  <fix>3d</fix>
</trkpt>
<trkpt lat="-27.2744385" lon="151.290064">
  <ele>364.94</ele>
  <time>2026-09-01T20:02:30Z</time>
  <course>177.1</course>
  <speed>0.01</speed>
  <fix>3d</fix>
</trkpt>
<trkpt lat="-27.2744387" lon="151.2900639">
  <ele>365.26</ele>
  <time>2026-09-01T20:02:30Z</time>
  <course>10.82</course>
  <speed>0.02</speed>
  <fix>3d</fix>
</trkpt>
<trkpt lat="-27.2744387" lon="151.2900639">
  <ele>365.36</ele>
  <time>2026-09-01T20:02:30Z</time>
  <course>10.81</course>
  <speed>0.02</speed>
  <fix>3d</fix>
</trkpt>
<trkpt lat="-27.2744385" lon="151.290064">
  <ele>364.94</ele>
  <time>2026-09-01T20:02:30Z</time>
  <course>177.1</course>
  <speed>0.01</speed>
  <fix>3d</fix>
</trkpt>
<trkpt lat="-27.2744387" lon="151.2900639">
  <ele>365.4</ele>
  <time>2026-09-01T20:02:30Z</time>
  <course>10.81</course>
  <speed>0.02</speed>
  <fix>3d</fix>
</trkpt>
<trkpt lat="-27.2744387" lon="151.2900639">
  <ele>365.51</ele>
  <time>2026-09-01T20:02:30Z</time>
  <course>10.8</course>
  <speed>0.02</speed>
  <fix>3d</fix>
</trkpt>
<trkpt lat="-27.2744385" lon="151.290064">
  <ele>365.22</ele>
  <time>2026-09-01T20:02:30Z</time>
  <course>180.28</course>
  <speed>0.01</speed>
  <fix>3d</fix>
</trkpt>
<trkpt lat="-27.2744387" lon="151.2900639">
  <ele>365.55</ele>
  <time>2026-09-01T20:02:30Z</time>
  <course>10.79</course>
  <speed>0.02</speed>
  <fix>3d</fix>
</trkpt>
<trkpt lat="-27.2744387" lon="151.2900639">
  <ele>365.65</ele>
  <time>2026-09-01T20:02:30Z</time>
  <course>10.78</course>
  <speed>0.02</speed>
  <fix>3d</fix>
</trkpt>
<trkpt lat="-27.2744385" lon="151.290064">
  <ele>365.22</ele>
  <time>2026-09-01T20:02:30Z</time>
  <course>180.28</course>
  <speed>0.01</speed>
  <fix>3d</fix>
</trkpt>
<trkpt lat="-27.2744387" lon="151.2900639">
  <ele>365.68</ele>
  <time>2026-09-01T20:02:30Z</time>
  <course>10.78</course>
  <speed>0.02</speed>
  <fix>3d</fix>
</trkpt>
<trkpt lat="-27.2744387" lon="151.2900639">
  <ele>365.79</ele>
  <time>2026-09-01T20:02:30Z</time>
  <course>10.77</course>
  <speed>0.02</speed>
  <fix>3d</fix>
</trkpt>
<trkpt lat="-27.2744386" lon="151.290064">
  <ele>365.51</ele>
  <time>2026-09-01T20:02:30Z</time>
  <course>181.22</course>
  <speed>0.01</speed>
  <fix>3d</fix>
</trkpt>
<trkpt lat="-27.2744387" lon="151.2900639">
  <ele>365.83</ele>
  <time>2026-09-01T20:02:30Z</time>
  <course>10.76</course>
  <speed>0.02</speed>
  <fix>3d</fix>
</trkpt>
<trkpt lat="-27.2744387" lon="151.2900639">
  <ele>365.94</ele>
  <time>2026-09-01T20:02:30Z</time>
  <course>10.76</course>
  <speed>0.02</speed>
  <fix>3d</fix>
</trkpt>
<trkpt lat="-27.2744386" lon="151.290064">
  <ele>365.51</ele>
  <time>2026-09-01T20:02:30Z</time>
  <course>181.22</course>
  <speed>0.01</speed>
  <fix>3d</fix>
</trkpt>
<trkpt lat="-27.2744387" lon="151.2900639">
  <ele>365.94</ele>
  <time>2026-09-01T20:02:30Z</time>
  <course>10.76</course>
  <speed>0.02</speed>
  <fix>3d</fix>
</trkpt>
<trkpt lat="-27.2744387" lon="151.2900639">
  <ele>366.08</ele>
  <time>2026-09-01T20:02:30Z</time>
  <course>10.76</course>
  <speed>0.02</speed>
  <fix>3d</fix>
</trkpt>
<trkpt lat="-27.2744386" lon="151.290064">
  <ele>365.79</ele>
  <time>2026-09-01T20:02:30Z</time>
  <course>180.75</course>
  <speed>0.01</speed>
  <fix>3d</fix>
</trkpt>
<trkpt lat="-27.2744387" lon="151.2900639">
  <ele>366.08</ele>
  <time>2026-09-01T20:02:30Z</time>
  <course>10.76</course>
  <speed>0.02</speed>
  <fix>3d</fix>
</trkpt>
<trkpt lat="-27.2744387" lon="151.2900639">
  <ele>366.22</ele>
  <time>2026-09-01T20:02:30Z</time>
  <course>10.76</course>
  <speed>0.02</speed>
  <fix>3d</fix>
</trkpt>
<trkpt lat="-27.2744386" lon="151.290064">
  <ele>365.79</ele>
  <time>2026-09-01T20:02:30Z</time>
  <course>180.75</course>
  <speed>0.01</speed>
  <fix>3d</fix>
</trkpt>
<trkpt lat="-27.2744387" lon="151.2900639">
  <ele>366.26</ele>
  <time>2026-09-01T20:02:30Z</time>
  <course>10.76</course>
  <speed>0.02</speed>
  <fix>3d</fix>
</trkpt>
<trkpt lat="-27.2744387" lon="151.2900639">
  <ele>366.37</ele>
  <time>2026-09-01T20:02:30Z</time>
  <course>10.78</course>
  <speed>0.02</speed>
  <fix>3d</fix>
</trkpt>
<trkpt lat="-27.2744386" lon="151.290064">
  <ele>366.08</ele>
  <time>2026-09-01T20:02:30Z</time>
  <course>180.62</course>
  <speed>0.01</speed>
  <fix>3d</fix>
</trkpt>
<trkpt lat="-27.2744387" lon="151.2900639">
  <ele>366.4</ele>
  <time>2026-09-01T20:02:30Z</time>
  <course>10.78</course>
  <speed>0.02</speed>
  <fix>3d</fix>
</trkpt>
<trkpt lat="-27.2744387" lon="151.290064">
  <ele>366.51</ele>
  <time>2026-09-01T20:02:30Z</time>
  <course>10.79</course>
  <speed>0.02</speed>
  <fix>3d</fix>
</trkpt>
<trkpt lat="-27.2744386" lon="151.290064">
  <ele>366.08</ele>
  <time>2026-09-01T20:02:30Z</time>
  <course>180.62</course>
  <speed>0.01</speed>
  <fix>3d</fix>
</trkpt>
<trkpt lat="-27.2744387" lon="151.290064">
  <ele>366.54</ele>
  <time>2026-09-01T20:02:30Z</time>
  <course>10.79</course>
  <speed>0.02</speed>
  <fix>3d</fix>
</trkpt>
<trkpt lat="-27.2744387" lon="151.290064">
  <ele>366.65</ele>
  <time>2026-09-01T20:02:30Z</time>
  <course>10.8</course>
  <speed>0.02</speed>
  <fix>3d</fix>
</trkpt>
<trkpt lat="-27.2744387" lon="151.290064">
  <ele>366.36</ele>
  <time>2026-09-01T20:02:30Z</time>
  <course>181.51</course>
  <speed>0.01</speed>
  <fix>3d</fix>
</trkpt>
<trkpt lat="-27.2744387" lon="151.290064">
  <ele>366.68</ele>
  <time>2026-09-01T20:02:30Z</time>
  <course>10.8</course>
  <speed>0.02</speed>
  <fix>3d</fix>
</trkpt>
<trkpt lat="-27.2744387" lon="151.290064">
  <ele>366.79</ele>
  <time>2026-09-01T20:02:30Z</time>
  <course>10.8</course>
  <speed>0.02</speed>
  <fix>3d</fix>
</trkpt>
<trkpt lat="-27.2744387" lon="151.290064">
  <ele>366.36</ele>
  <time>2026-09-01T20:02:30Z</time>
  <course>181.51</course>
  <speed>0.01</speed>
  <fix>3d</fix>
</trkpt>
<trkpt lat="-27.2744387" lon="151.290064">
  <ele>366.83</ele>
  <time>2026-09-01T20:02:30Z</time>
  <course>10.8</course>
  <speed>0.02</speed>
  <fix>3d</fix>
</trkpt>
<trkpt lat="-27.2744388" lon="151.290064">
  <ele>366.94</ele>
  <time>2026-09-01T20:02:30Z</time>
  <course>10.79</course>
  <speed>0.02</speed>
  <fix>3d</fix>
</trkpt>
<trkpt lat="-27.2744387" lon="151.290064">
  <ele>366.65</ele>
  <time>2026-09-01T20:02:30Z</time>
  <course>182.01</course>
  <speed>0.01</speed>
  <fix>3d</fix>
</trkpt>
<trkpt lat="-27.2744388" lon="151.290064">
  <ele>366.97</ele>
  <time>2026-09-01T20:02:30Z</time>
  <course>10.79</course>
  <speed>0.02</speed>
  <fix>3d</fix>
</trkpt>
<trkpt lat="-27.2744388" lon="151.290064">
  <ele>367.08</ele>
  <time>2026-09-01T20:02:30Z</time>
  <course>10.79</course>
  <speed>0.02</speed>
  <fix>3d</fix>
</trkpt>
<trkpt lat="-27.2744387" lon="151.290064">
  <ele>366.65</ele>
  <time>2026-09-01T20:02:30Z</time>
  <course>182.01</course>
  <speed>0.01</speed>
  <fix>3d</fix>
</trkpt>
<trkpt lat="-27.2744388" lon="151.290064">
  <ele>367.11</ele>
  <time>2026-09-01T20:02:30Z</time>
  <course>10.78</course>
  <speed>0.02</speed>
  <fix>3d</fix>
</trkpt>
<trkpt lat="-27.2744388" lon="151.290064">
  <ele>367.22</ele>
  <time>2026-09-01T20:02:30Z</time>
  <course>10.78</course>
  <speed>0.02</speed>
  <fix>3d</fix>
</trkpt>
<trkpt lat="-27.2744387" lon="151.290064">
  <ele>366.93</ele>
  <time>2026-09-01T20:02:30Z</time>
  <course>183.06</course>
  <speed>0.01</speed>
  <fix>3d</fix>
</trkpt>
<trkpt lat="-27.2744388" lon="151.290064">
  <ele>367.26</ele>
  <time>2026-09-01T20:02:30Z</time>
  <course>10.77</course>
  <speed>0.02</speed>
  <fix>3d</fix>
</trkpt>
<trkpt lat="-27.2744388" lon="151.290064">
  <ele>367.37</ele>
  <time>2026-09-01T20:02:30Z</time>
  <course>10.76</course>
  <speed>0.02</speed>
  <fix>3d</fix>
</trkpt>
<trkpt lat="-27.2744387" lon="151.290064">
  <ele>366.93</ele>
  <time>2026-09-01T20:02:30Z</time>
  <course>183.06</course>
  <speed>0.01</speed>
  <fix>3d</fix>
</trkpt>
<trkpt lat="-27.2744388" lon="151.290064">
  <ele>367.41</ele>
  <time>2026-09-01T20:02:30Z</time>
  <course>10.76</course>
  <speed>0.02</speed>
  <fix>3d</fix>
</trkpt>
<trkpt lat="-27.2744388" lon="151.290064">
  <ele>367.51</ele>
  <time>2026-09-01T20:02:30Z</time>
  <course>10.75</course>
  <speed>0.02</speed>
  <fix>3d</fix>
</trkpt>
<trkpt lat="-27.2744388" lon="151.290064">
  <ele>367.21</ele>
  <time>2026-09-01T20:02:30Z</time>
  <course>185.56</course>
  <speed>0.01</speed>
  <fix>3d</fix>
</trkpt>
<trkpt lat="-27.2744388" lon="151.290064">
  <ele>367.52</ele>
  <time>2026-09-01T20:02:30Z</time>
  <course>10.75</course>
  <speed>0.02</speed>
  <fix>3d</fix>
</trkpt>
<trkpt lat="-27.2744388" lon="151.290064">
  <ele>367.66</ele>
  <time>2026-09-01T20:02:30Z</time>
  <course>10.74</course>
  <speed>0.02</speed>
  <fix>3d</fix>
</trkpt>
<trkpt lat="-27.2744388" lon="151.290064">
  <ele>367.21</ele>
  <time>2026-09-01T20:02:30Z</time>
  <course>185.56</course>
  <speed>0.01</speed>
  <fix>3d</fix>
</trkpt>
<trkpt lat="-27.2744388" lon="151.290064">
  <ele>367.66</ele>
  <time>2026-09-01T20:02:30Z</time>
  <course>10.73</course>
  <speed>0.02</speed>
  <fix>3d</fix>
</trkpt>
<trkpt lat="-27.2744388" lon="151.290064">
  <ele>367.8</ele>
  <time>2026-09-01T20:02:30Z</time>
  <course>10.72</course>
  <speed>0.02</speed>
  <fix>3d</fix>
</trkpt>
<trkpt lat="-27.2744388" lon="151.290064">
  <ele>367.5</ele>
  <time>2026-09-01T20:02:30Z</time>
  <course>188.12</course>
  <speed>0.01</speed>
  <fix>3d</fix>
</trkpt>
<trkpt lat="-27.2744388" lon="151.290064">
  <ele>367.84</ele>
  <time>2026-09-01T20:02:30Z</time>
  <course>10.71</course>
  <speed>0.02</speed>
  <fix>3d</fix>
</trkpt>
<trkpt lat="-27.2744389" lon="151.290064">
  <ele>367.94</ele>
  <time>2026-09-01T20:02:30Z</time>
  <course>10.69</course>
  <speed>0.02</speed>
  <fix>3d</fix>
</trkpt>
<trkpt lat="-27.2744388" lon="151.290064">
  <ele>367.5</ele>
  <time>2026-09-01T20:02:30Z</time>
  <course>188.12</course>
  <speed>0.01</speed>
  <fix>3d</fix>
</trkpt>
<trkpt lat="-27.2744389" lon="151.290064">
  <ele>367.98</ele>
  <time>2026-09-01T20:02:30Z</time>
  <course>10.68</course>
  <speed>0.02</speed>
  <fix>3d</fix>
</trkpt>
<trkpt lat="-27.2744389" lon="151.290064">
  <ele>368.09</ele>
  <time>2026-09-01T20:02:30Z</time>
  <course>10.66</course>
  <speed>0.02</speed>
  <fix>3d</fix>
</trkpt>
<trkpt lat="-27.2744388" lon="151.290064">
  <ele>367.78</ele>
  <time>2026-09-01T20:02:30Z</time>
  <course>189.71</course>
  <speed>0.01</speed>
  <fix>3d</fix>
</trkpt>
<trkpt lat="-27.2744389" lon="151.290064">
  <ele>368.13</ele>
  <time>2026-09-01T20:02:30Z</time>
  <course>10.66</course>
  <speed>0.02</speed>
  <fix>3d</fix>
</trkpt>
<trkpt lat="-27.2744389" lon="151.290064">
  <ele>368.23</ele>
  <time>2026-09-01T20:02:30Z</time>
  <course>10.64</course>
  <speed>0.02</speed>
  <fix>3d</fix>
</trkpt>
<trkpt lat="-27.2744388" lon="151.290064">
  <ele>367.78</ele>
  <time>2026-09-01T20:02:30Z</time>
  <course>189.71</course>
  <speed>0.01</speed>
  <fix>3d</fix>
</trkpt>
<trkpt lat="-27.2744389" lon="151.290064">
  <ele>368.26</ele>
  <time>2026-09-01T20:02:30Z</time>
  <course>10.63</course>
  <speed>0.02</speed>
  <fix>3d</fix>
</trkpt>
<trkpt lat="-27.2744389" lon="151.290064">
  <ele>368.37</ele>
  <time>2026-09-01T20:02:30Z</time>
  <course>10.63</course>
  <speed>0.02</speed>
  <fix>3d</fix>
</trkpt>
<trkpt lat="-27.2744389" lon="151.290064">
  <ele>368.07</ele>
  <time>2026-09-01T20:02:30Z</time>
  <course>188.1</course>
  <speed>0.01</speed>
  <fix>3d</fix>
</trkpt>
<trkpt lat="-27.2744389" lon="151.290064">
  <ele>368.41</ele>
  <time>2026-09-01T20:02:30Z</time>
  <course>10.62</course>
  <speed>0.02</speed>
  <fix>3d</fix>
</trkpt>
<trkpt lat="-27.2744389" lon="151.290064">
  <ele>368.52</ele>
  <time>2026-09-01T20:02:30Z</time>
  <course>10.62</course>
  <speed>0.02</speed>
  <fix>3d</fix>
</trkpt>
<trkpt lat="-27.2744389" lon="151.290064">
  <ele>368.07</ele>
  <time>2026-09-01T20:02:30Z</time>
  <course>188.1</course>
  <speed>0.01</speed>
  <fix>3d</fix>
</trkpt>
<trkpt lat="-27.2744389" lon="151.290064">
  <ele>368.55</ele>
  <time>2026-09-01T20:02:30Z</time>
  <course>10.62</course>
  <speed>0.02</speed>
  <fix>3d</fix>
</trkpt>
<trkpt lat="-27.2744389" lon="151.290064">
  <ele>368.67</ele>
  <time>2026-09-01T20:02:30Z</time>
  <course>10.63</course>
  <speed>0.02</speed>
  <fix>3d</fix>
</trkpt>
<trkpt lat="-27.2744389" lon="151.290064">
  <ele>368.36</ele>
  <time>2026-09-01T20:02:30Z</time>
  <course>186.18</course>
  <speed>0.01</speed>
  <fix>3d</fix>
</trkpt>
<trkpt lat="-27.2744389" lon="151.290064">
  <ele>368.7</ele>
  <time>2026-09-01T20:02:30Z</time>
  <course>10.63</course>
  <speed>0.02</speed>
  <fix>3d</fix>
</trkpt>
<trkpt lat="-27.2744389" lon="151.290064">
  <ele>368.81</ele>
  <time>2026-09-01T20:02:30Z</time>
  <course>10.64</course>
  <speed>0.02</speed>
  <fix>3d</fix>
</trkpt>
<trkpt lat="-27.2744389" lon="151.290064">
  <ele>368.36</ele>
  <time>2026-09-01T20:02:30Z</time>
  <course>186.18</course>
  <speed>0.01</speed>
  <fix>3d</fix>
</trkpt>
<trkpt lat="-27.2744389" lon="151.290064">
  <ele>368.85</ele>
  <time>2026-09-01T20:02:30Z</time>
  <course>10.65</course>
  <speed>0.02</speed>
  <fix>3d</fix>
</trkpt>
<trkpt lat="-27.274439" lon="151.290064">
  <ele>368.96</ele>
  <time>2026-09-01T20:02:30Z</time>
  <course>10.67</course>
  <speed>0.02</speed>
  <fix>3d</fix>
</trkpt>
<trkpt lat="-27.2744389" lon="151.290064">
  <ele>368.65</ele>
  <time>2026-09-01T20:02:30Z</time>
  <course>186.13</course>
  <speed>0.01</speed>
  <fix>3d</fix>
</trkpt>
<trkpt lat="-27.274439" lon="151.290064">
  <ele>368.96</ele>
  <time>2026-09-01T20:02:30Z</time>
  <course>10.67</course>
  <speed>0.02</speed>
  <fix>3d</fix>
</trkpt>
<trkpt lat="-27.274439" lon="151.290064">
  <ele>369.1</ele>
  <time>2026-09-01T20:02:30Z</time>
  <course>10.68</course>
  <speed>0.01</speed>
  <fix>3d</fix>
</trkpt>
<trkpt lat="-27.2744389" lon="151.290064">
  <ele>368.65</ele>
  <time>2026-09-01T20:02:30Z</time>
  <course>186.13</course>
  <speed>0.01</speed>
  <fix>3d</fix>
</trkpt>
<trkpt lat="-27.274439" lon="151.290064">
  <ele>369.1</ele>
  <time>2026-09-01T20:02:30Z</time>
  <course>10.68</course>
  <speed>0.01</speed>
  <fix>3d</fix>
</trkpt>
<trkpt lat="-27.274439" lon="151.290064">
  <ele>369.24</ele>
  <time>2026-09-01T20:02:30Z</time>
  <course>10.7</course>
  <speed>0.01</speed>
  <fix>3d</fix>
</trkpt>
<trkpt lat="-27.2744389" lon="151.290064">
  <ele>368.93</ele>
  <time>2026-09-01T20:02:30Z</time>
  <course>188.08</course>
  <speed>0.01</speed>
  <fix>3d</fix>
</trkpt>
<trkpt lat="-27.274439" lon="151.290064">
  <ele>369.28</ele>
  <time>2026-09-01T20:02:30Z</time>
  <course>10.7</course>
  <speed>0.01</speed>
  <fix>3d</fix>
</trkpt>
<trkpt lat="-27.274439" lon="151.290064">
  <ele>369.39</ele>
  <time>2026-09-01T20:02:30Z</time>
  <course>10.7</course>
  <speed>0.01</speed>
  <fix>3d</fix>
</trkpt>
<trkpt lat="-27.2744389" lon="151.290064">
  <ele>368.93</ele>
  <time>2026-09-01T20:02:30Z</time>
  <course>188.08</course>
  <speed>0.01</speed>
  <fix>3d</fix>
</trkpt>
<trkpt lat="-27.274439" lon="151.290064">
  <ele>369.42</ele>
  <time>2026-09-01T20:02:30Z</time>
  <course>10.7</course>
  <speed>0.01</speed>
  <fix>3d</fix>
</trkpt>
<trkpt lat="-27.274439" lon="151.290064">
  <ele>369.53</ele>
  <time>2026-09-01T20:02:30Z</time>
  <course>10.7</course>
  <speed>0.01</speed>
  <fix>3d</fix>
</trkpt>
<trkpt lat="-27.274439" lon="151.290064">
  <ele>369.21</ele>
  <time>2026-09-01T20:02:30Z</time>
  <course>190.39</course>
  <speed>0.01</speed>
  <fix>3d</fix>
</trkpt>
<trkpt lat="-27.274439" lon="151.290064">
  <ele>369.57</ele>
  <time>2026-09-01T20:02:30Z</time>
  <course>10.7</course>
  <speed>0.01</speed>
  <fix>3d</fix>
</trkpt>
<trkpt lat="-27.274439" lon="151.290064">
  <ele>369.67</ele>
  <time>2026-09-01T20:02:30Z</time>
  <course>10.69</course>
  <speed>0.01</speed>
  <fix>3d</fix>
</trkpt>
<trkpt lat="-27.274439" lon="151.290064">
  <ele>369.21</ele>
  <time>2026-09-01T20:02:30Z</time>
  <course>190.39</course>
  <speed>0.01</speed>
  <fix>3d</fix>
</trkpt>
<trkpt lat="-27.274439" lon="151.290064">
  <ele>369.69</ele>
  <time>2026-09-01T20:02:30Z</time>
  <course>10.69</course>
  <speed>0.01</speed>
  <fix>3d</fix>
</trkpt>
<trkpt lat="-27.274439" lon="151.290064">
  <ele>369.81</ele>
  <time>2026-09-01T20:02:30Z</time>
  <course>10.68</course>
  <speed>0.01</speed>
  <fix>3d</fix>
</trkpt>
<trkpt lat="-27.274439" lon="151.290064">
  <ele>369.5</ele>
  <time>2026-09-01T20:02:30Z</time>
  <course>191.98</course>
  <speed>0.0</speed>
  <fix>3d</fix>
</trkpt>
<trkpt lat="-27.274439" lon="151.290064">
  <ele>369.85</ele>
  <time>2026-09-01T20:02:30Z</time>
  <course>10.68</course>
  <speed>0.01</speed>
  <fix>3d</fix>
</trkpt>
<trkpt lat="-27.274439" lon="151.290064">
  <ele>369.95</ele>
  <time>2026-09-01T20:02:30Z</time>
  <course>10.67</course>
  <speed>0.01</speed>
  <fix>3d</fix>
</trkpt>
<trkpt lat="-27.274439" lon="151.290064">
  <ele>369.5</ele>
  <time>2026-09-01T20:02:30Z</time>
  <course>191.98</course>
  <speed>0.0</speed>
  <fix>3d</fix>
</trkpt>
<trkpt lat="-27.274439" lon="151.290064">
  <ele>369.99</ele>
  <time>2026-09-01T20:02:30Z</time>
  <course>10.67</course>
  <speed>0.01</speed>
  <fix>3d</fix>
</trkpt>
<trkpt lat="-27.274439" lon="151.290064">
  <ele>370.09</ele>
  <time>2026-09-01T20:02:30Z</time>
  <course>10.66</course>
  <speed>0.01</speed>
  <fix>3d</fix>
</trkpt>
<trkpt lat="-27.274439" lon="151.290064">
  <ele>369.78</ele>
  <time>2026-09-01T20:02:30Z</time>
  <course>199.18</course>
  <speed>0.0</speed>
  <fix>3d</fix>
</trkpt>
<trkpt lat="-27.274439" lon="151.290064">
  <ele>370.13</ele>
  <time>2026-09-01T20:02:30Z</time>
  <course>10.66</course>
  <speed>0.01</speed>
  <fix>3d</fix>
</trkpt>
<trkpt lat="-27.274439" lon="151.290064">
  <ele>370.23</ele>
  <time>2026-09-01T20:02:30Z</time>
  <course>10.64</course>
  <speed>0.01</speed>
  <fix>3d</fix>
</trkpt>
<trkpt lat="-27.274439" lon="151.290064">
  <ele>369.78</ele>
  <time>2026-09-01T20:02:30Z</time>
  <course>199.18</course>
  <speed>0.0</speed>
  <fix>3d</fix>
</trkpt>
<trkpt lat="-27.274439" lon="151.290064">
  <ele>370.27</ele>
  <time>2026-09-01T20:02:30Z</time>
  <course>10.64</course>
  <speed>0.01</speed>
  <fix>3d</fix>
</trkpt>
<trkpt lat="-27.274439" lon="151.290064">
  <ele>370.37</ele>
  <time>2026-09-01T20:02:30Z</time>
  <course>10.63</course>
  <speed>0.01</speed>
  <fix>3d</fix>
</trkpt>
<trkpt lat="-27.274439" lon="151.290064">
  <ele>370.07</ele>
  <time>2026-09-01T20:02:30Z</time>
  <course>210.24</course>
  <speed>0.0</speed>
  <fix>3d</fix>
</trkpt>
<trkpt lat="-27.274439" lon="151.290064">
  <ele>370.41</ele>
  <time>2026-09-01T20:02:30Z</time>
  <course>10.62</course>
  <speed>0.01</speed>
  <fix>3d</fix>
</trkpt>
<trkpt lat="-27.274439" lon="151.290064">
  <ele>370.51</ele>
  <time>2026-09-01T20:02:30Z</time>
  <course>10.62</course>
  <speed>0.01</speed>
  <fix>3d</fix>
</trkpt>
<trkpt lat="-27.274439" lon="151.290064">
  <ele>370.07</ele>
  <time>2026-09-01T20:02:30Z</time>
  <course>210.24</course>
  <speed>0.0</speed>
  <fix>3d</fix>
</trkpt>
<trkpt lat="-27.274439" lon="151.290064">
  <ele>370.52</ele>
  <time>2026-09-01T20:02:30Z</time>
  <course>10.62</course>
  <speed>0.01</speed>
  <fix>3d</fix>
</trkpt>
<trkpt lat="-27.274439" lon="151.290064">
  <ele>370.65</ele>
  <time>2026-09-01T20:02:30Z</time>
  <course>10.6</course>
  <speed>0.01</speed>
  <fix>3d</fix>
</trkpt>
<trkpt lat="-27.274439" lon="151.290064">
  <ele>370.36</ele>
  <time>2026-09-01T20:02:30Z</time>
  <course>228.12</course>
  <speed>0.0</speed>
  <fix>3d</fix>
</trkpt>
<trkpt lat="-27.274439" lon="151.290064">
  <ele>370.66</ele>
  <time>2026-09-01T20:02:30Z</time>
  <course>10.6</course>
  <speed>0.01</speed>
  <fix>3d</fix>
</trkpt>
<trkpt lat="-27.274439" lon="151.290064">
  <ele>370.8</ele>
  <time>2026-09-01T20:02:30Z</time>
  <course>10.59</course>
  <speed>0.0</speed>
  <fix>3d</fix>
</trkpt>
<trkpt lat="-27.274439" lon="151.290064">
  <ele>370.36</ele>
  <time>2026-09-01T20:02:30Z</time>
  <course>228.12</course>
  <speed>0.0</speed>
  <fix>3d</fix>
</trkpt>
<trkpt lat="-27.274439" lon="151.290064">
  <ele>370.84</ele>
  <time>2026-09-01T20:02:30Z</time>
  <course>10.59</course>
  <speed>0.0</speed>
  <fix>3d</fix>
</trkpt>
<trkpt lat="-27.274439" lon="151.290064">
  <ele>370.94</ele>
  <time>2026-09-01T20:02:30Z</time>
  <course>10.58</course>
  <speed>0.0</speed>
  <fix>3d</fix>
</trkpt>
<trkpt lat="-27.274439" lon="151.290064">
  <ele>370.65</ele>
  <time>2026-09-01T20:02:30Z</time>
  <course>258.29</course>
  <speed>0.0</speed>
  <fix>3d</fix>
</trkpt>
<trkpt lat="-27.274439" lon="151.290064">
  <ele>370.98</ele>
  <time>2026-09-01T20:02:30Z</time>
  <course>10.58</course>
  <speed>0.0</speed>
  <fix>3d</fix>
</trkpt>
<trkpt lat="-27.274439" lon="151.290064">
  <ele>371.09</ele>
  <time>2026-09-01T20:02:30Z</time>
  <course>10.58</course>
  <speed>0.0</speed>
  <fix>3d</fix>
</trkpt>
<trkpt lat="-27.274439" lon="151.290064">
  <ele>370.65</ele>
  <time>2026-09-01T20:02:30Z</time>
  <course>258.29</course>
  <speed>0.0</speed>
  <fix>3d</fix>
</trkpt>
<trkpt lat="-27.274439" lon="151.290064">
  <ele>371.12</ele>
  <time>2026-09-01T20:02:30Z</time>
  <course>10.58</course>
  <speed>0.0</speed>
  <fix>3d</fix>
</trkpt>
<trkpt lat="-27.274439" lon="151.290064">
  <ele>371.23</ele>
  <time>2026-09-01T20:02:30Z</time>
  <course>10.58</course>
  <speed>0.0</speed>
  <fix>3d</fix>
</trkpt>
<trkpt lat="-27.274439" lon="151.290064">
  <ele>370.93</ele>
  <time>2026-09-01T20:02:30Z</time>
  <course>288.16</course>
  <speed>0.0</speed>
  <fix>3d</fix>
</trkpt>
<trkpt lat="-27.274439" lon="151.290064">
  <ele>371.27</ele>
  <time>2026-09-01T20:02:30Z</time>
  <course>10.58</course>
  <speed>0.0</speed>
  <fix>3d</fix>
</trkpt>
<trkpt lat="-27.274439" lon="151.290064">
  <ele>371.38</ele>
  <time>2026-09-01T20:02:30Z</time>
  <course>10.58</course>
  <speed>0.0</speed>
  <fix>3d</fix>
</trkpt>
<trkpt lat="-27.274439" lon="151.290064">
  <ele>370.93</ele>
  <time>2026-09-01T20:02:30Z</time>
  <course>288.16</course>
  <speed>0.0</speed>
  <fix>3d</fix>
</trkpt>
<trkpt lat="-27.274439" lon="151.290064">
  <ele>371.41</ele>
  <time>2026-09-01T20:02:30Z</time>
  <course>10.58</course>
  <speed>0.0</speed>
  <fix>3d</fix>
</trkpt>
<trkpt lat="-27.274439" lon="151.290064">
  <ele>371.53</ele>
  <time>2026-09-01T20:02:30Z</time>
  <course>10.58</course>
  <speed>0.0</speed>
  <fix>3d</fix>
</trkpt>
<trkpt lat="-27.274439" lon="151.290064">
  <ele>371.22</ele>
  <time>2026-09-01T20:02:30Z</time>
  <course>309.55</course>
  <speed>0.0</speed>
  <fix>3d</fix>
</trkpt>
<trkpt lat="-27.274439" lon="151.290064">
  <ele>371.56</ele>
  <time>2026-09-01T20:02:30Z</time>
  <course>10.58</course>
  <speed>0.0</speed>
  <fix>3d</fix>
</trkpt>
<trkpt lat="-27.274439" lon="151.290064">
  <ele>371.67</ele>
  <time>2026-09-01T20:02:30Z</time>
  <course>10.57</course>
  <speed>0.0</speed>
  <fix>3d</fix>
</trkpt>
<trkpt lat="-27.274439" lon="151.290064">
  <ele>371.22</ele>
  <time>2026-09-01T20:02:30Z</time>
  <course>309.55</course>
  <speed>0.0</speed>
  <fix>3d</fix>
</trkpt>
<trkpt lat="-27.274439" lon="151.290064">
  <ele>371.7</ele>
  <time>2026-09-01T20:02:30Z</time>
  <course>10.57</course>
  <speed>0.0</speed>
  <fix>3d</fix>
</trkpt>
<trkpt lat="-27.274439" lon="151.290064">
  <ele>371.81</ele>
  <time>2026-09-01T20:02:30Z</time>
  <course>10.57</course>
  <speed>0.0</speed>
  <fix>3d</fix>
</trkpt>
<trkpt lat="-27.274439" lon="151.290064">
  <ele>371.51</ele>
  <time>2026-09-01T20:02:30Z</time>
  <course>325.7</course>
  <speed>0.0</speed>
  <fix>3d</fix>
</trkpt>
<trkpt lat="-27.274439" lon="151.290064">
  <ele>371.85</ele>
  <time>2026-09-01T20:02:30Z</time>
  <course>10.57</course>
  <speed>0.0</speed>
  <fix>3d</fix>
</trkpt>
<trkpt lat="-27.274439" lon="151.290064">
  <ele>371.96</ele>
  <time>2026-09-01T20:02:30Z</time>
  <course>10.57</course>
  <speed>0.0</speed>
  <fix>3d</fix>
</trkpt>
<trkpt lat="-27.274439" lon="151.290064">
  <ele>371.51</ele>
  <time>2026-09-01T20:02:30Z</time>
  <course>325.7</course>
  <speed>0.0</speed>
  <fix>3d</fix>
</trkpt>
<trkpt lat="-27.274439" lon="151.290064">
  <ele>371.96</ele>
  <time>2026-09-01T20:02:30Z</time>
  <course>10.57</course>
  <speed>0.0</speed>
  <fix>3d</fix>
</trkpt>
<trkpt lat="-27.274439" lon="151.290064">
  <ele>372.1</ele>
  <time>2026-09-01T20:02:30Z</time>
  <course>10.57</course>
  <speed>0.0</speed>
  <fix>3d</fix>
</trkpt>
<trkpt lat="-27.274439" lon="151.290064">
  <ele>371.8</ele>
  <time>2026-09-01T20:02:30Z</time>
  <course>333.17</course>
  <speed>0.0</speed>
  <fix>3d</fix>
</trkpt>
<trkpt lat="-27.274439" lon="151.290064">
  <ele>372.14</ele>
  <time>2026-09-01T20:02:30Z</time>
  <course>10.57</course>
  <speed>0.0</speed>
  <fix>3d</fix>
</trkpt>
<trkpt lat="-27.274439" lon="151.290064">
  <ele>372.24</ele>
  <time>2026-09-01T20:02:30Z</time>
  <course>10.58</course>
  <speed>0.0</speed>
  <fix>3d</fix>
</trkpt>
<trkpt lat="-27.274439" lon="151.290064">
  <ele>371.8</ele>
  <time>2026-09-01T20:02:30Z</time>
  <course>333.17</course>
  <speed>0.0</speed>
  <fix>3d</fix>
</trkpt>
<trkpt lat="-27.274439" lon="151.290064">
  <ele>372.25</ele>
  <time>2026-09-01T20:02:30Z</time>
  <course>10.58</course>
  <speed>0.0</speed>
  <fix>3d</fix>
</trkpt>
<trkpt lat="-27.274439" lon="151.290064">
  <ele>372.39</ele>
  <time>2026-09-01T20:02:30Z</time>
  <course>10.58</course>
  <speed>0.0</speed>
  <fix>3d</fix>
</trkpt>
<trkpt lat="-27.274439" lon="151.290064">
  <ele>372.09</ele>
  <time>2026-09-01T20:02:30Z</time>
  <course>333.69</course>
  <speed>0.0</speed>
  <fix>3d</fix>
</trkpt>
<trkpt lat="-27.274439" lon="151.290064">
  <ele>372.43</ele>
  <time>2026-09-01T20:02:30Z</time>
  <course>10.58</course>
  <speed>0.0</speed>
  <fix>3d</fix>
</trkpt>
<trkpt lat="-27.274439" lon="151.290064">
  <ele>372.53</ele>
  <time>2026-09-01T20:02:30Z</time>
  <course>10.58</course>
  <speed>0.0</speed>
  <fix>3d</fix>
</trkpt>
<trkpt lat="-27.274439" lon="151.290064">
  <ele>372.09</ele>
  <time>2026-09-01T20:02:30Z</time>
  <course>333.69</course>
  <speed>0.0</speed>
  <fix>3d</fix>
</trkpt>
<trkpt lat="-27.274439" lon="151.290064">
  <ele>372.57</ele>
  <time>2026-09-01T20:02:30Z</time>
  <course>10.58</course>
  <speed>0.0</speed>
  <fix>3d</fix>
</trkpt>
<trkpt lat="-27.274439" lon="151.290064">
  <ele>372.68</ele>
  <time>2026-09-01T20:02:30Z</time>
  <course>10.58</course>
  <speed>0.0</speed>
  <fix>3d</fix>
</trkpt>
<trkpt lat="-27.274439" lon="151.290064">
  <ele>372.38</ele>
  <time>2026-09-01T20:02:30Z</time>
  <course>333.18</course>
  <speed>0.01</speed>
  <fix>3d</fix>
</trkpt>
<trkpt lat="-27.274439" lon="151.290064">
  <ele>372.72</ele>
  <time>2026-09-01T20:02:30Z</time>
  <course>10.58</course>
  <speed>0.0</speed>
  <fix>3d</fix>
</trkpt>
<trkpt lat="-27.274439" lon="151.290064">
  <ele>372.82</ele>
  <time>2026-09-01T20:02:30Z</time>
  <course>10.57</course>
  <speed>0.0</speed>
  <fix>3d</fix>
</trkpt>
<trkpt lat="-27.274439" lon="151.290064">
  <ele>372.38</ele>
  <time>2026-09-01T20:02:30Z</time>
  <course>333.18</course>
  <speed>0.01</speed>
  <fix>3d</fix>
</trkpt>
<trkpt lat="-27.274439" lon="151.290064">
  <ele>372.86</ele>
  <time>2026-09-01T20:02:30Z</time>
  <course>10.57</course>
  <speed>0.0</speed>
  <fix>3d</fix>
</trkpt>
<trkpt lat="-27.274439" lon="151.290064">
  <ele>372.97</ele>
  <time>2026-09-01T20:02:30Z</time>
  <course>10.57</course>
  <speed>0.0</speed>
  <fix>3d</fix>
</trkpt>
<trkpt lat="-27.274439" lon="151.290064">
  <ele>372.67</ele>
  <time>2026-09-01T20:02:30Z</time>
  <course>333.21</course>
  <speed>0.01</speed>
  <fix>3d</fix>
</trkpt>
<trkpt lat="-27.274439" lon="151.290064">
  <ele>373.01</ele>
  <time>2026-09-01T20:02:30Z</time>
  <course>10.56</course>
  <speed>0.0</speed>
  <fix>3d</fix>
</trkpt>
<trkpt lat="-27.274439" lon="151.290064">
  <ele>373.12</ele>
  <time>2026-09-01T20:02:30Z</time>
  <course>10.56</course>
  <speed>0.0</speed>
  <fix>3d</fix>
</trkpt>
<trkpt lat="-27.274439" lon="151.290064">
  <ele>372.67</ele>
  <time>2026-09-01T20:02:30Z</time>
  <course>333.21</course>
  <speed>0.01</speed>
  <fix>3d</fix>
</trkpt>
<trkpt lat="-27.274439" lon="151.290064">
  <ele>373.15</ele>
  <time>2026-09-01T20:02:30Z</time>
  <course>10.56</course>
  <speed>0.0</speed>
  <fix>3d</fix>
</trkpt>
<trkpt lat="-27.274439" lon="151.290064">
  <ele>373.26</ele>
  <time>2026-09-01T20:02:30Z</time>
  <course>10.55</course>
  <speed>0.0</speed>
  <fix>3d</fix>
</trkpt>
<trkpt lat="-27.274439" lon="151.290064">
  <ele>372.96</ele>
  <time>2026-09-01T20:02:30Z</time>
  <course>334.55</course>
  <speed>0.01</speed>
  <fix>3d</fix>
</trkpt>
<trkpt lat="-27.274439" lon="151.290064">
  <ele>373.41</ele>
  <time>2026-09-01T20:02:30Z</time>
  <course>10.55</course>
  <speed>0.0</speed>
  <fix>3d</fix>
</trkpt>
<trkpt lat="-27.274439" lon="151.290064">
  <ele>372.96</ele>
  <time>2026-09-01T20:02:30Z</time>
  <course>334.55</course>
  <speed>0.01</speed>
  <fix>3d</fix>
</trkpt>
<trkpt lat="-27.274439" lon="151.290064">
  <ele>373.55</ele>
  <time>2026-09-01T20:02:30Z</time>
  <course>10.54</course>
  <speed>0.0</speed>
  <fix>3d</fix>
</trkpt>
<trkpt lat="-27.274439" lon="151.290064">
  <ele>373.24</ele>
  <time>2026-09-01T20:02:30Z</time>
  <course>337.19</course>
  <speed>0.01</speed>
  <fix>3d</fix>
</trkpt>
<trkpt lat="-27.274439" lon="151.290064">
  <ele>373.68</ele>
  <time>2026-09-01T20:02:30Z</time>
  <course>10.55</course>
  <speed>0.0</speed>
  <fix>3d</fix>
</trkpt>
<trkpt lat="-27.274439" lon="151.290064">
  <ele>373.24</ele>
  <time>2026-09-01T20:02:30Z</time>
  <course>337.19</course>
  <speed>0.01</speed>
  <fix>3d</fix>
</trkpt>
<trkpt lat="-27.274439" lon="151.290064">
  <ele>373.81</ele>
  <time>2026-09-01T20:02:30Z</time>
  <course>10.55</course>
  <speed>0.0</speed>
  <fix>3d</fix>
</trkpt>
<trkpt lat="-27.274439" lon="151.2900639">
  <ele>373.53</ele>
  <time>2026-09-01T20:02:30Z</time>
  <course>338.06</course>
  <speed>0.01</speed>
  <fix>3d</fix>
</trkpt>
<trkpt lat="-27.274439" lon="151.290064">
  <ele>373.93</ele>
  <time>2026-09-01T20:02:30Z</time>
  <course>10.55</course>
  <speed>0.0</speed>
  <fix>3d</fix>
</trkpt>
<trkpt lat="-27.274439" lon="151.2900639">
  <ele>373.53</ele>
  <time>2026-09-01T20:02:30Z</time>
  <course>338.06</course>
  <speed>0.01</speed>
  <fix>3d</fix>
</trkpt>
<trkpt lat="-27.274439" lon="151.290064">
  <ele>374.03</ele>
  <time>2026-09-01T20:02:30Z</time>
  <course>10.56</course>
  <speed>0.01</speed>
  <fix>3d</fix>
</trkpt>
<trkpt lat="-27.274439" lon="151.2900639">
  <ele>373.79</ele>
  <time>2026-09-01T20:02:30Z</time>
  <course>330.7</course>
  <speed>0.01</speed>
  <fix>3d</fix>
</trkpt>
<trkpt lat="-27.274439" lon="151.290064">
  <ele>374.11</ele>
  <time>2026-09-01T20:02:30Z</time>
  <course>10.56</course>
  <speed>0.02</speed>
  <fix>3d</fix>
</trkpt>
<trkpt lat="-27.274439" lon="151.2900639">
  <ele>373.79</ele>
  <time>2026-09-01T20:02:30Z</time>
  <course>330.7</course>
  <speed>0.01</speed>
  <fix>3d</fix>
</trkpt>
<trkpt lat="-27.274439" lon="151.290064">
  <ele>374.17</ele>
  <time>2026-09-01T20:02:30Z</time>
  <course>10.54</course>
  <speed>0.03</speed>
  <fix>3d</fix>
</trkpt>
<trkpt lat="-27.274439" lon="151.2900639">
  <ele>374.0</ele>
  <time>2026-09-01T20:02:30Z</time>
  <course>275.92</course>
  <speed>0.0</speed>
  <fix>3d</fix>
</trkpt>
<trkpt lat="-27.274439" lon="151.290064">
  <ele>374.22</ele>
  <time>2026-09-01T20:02:30Z</time>
  <course>10.47</course>
  <speed>0.04</speed>
  <fix>3d</fix>
</trkpt>
<trkpt lat="-27.274439" lon="151.2900639">
  <ele>374.0</ele>
  <time>2026-09-01T20:02:30Z</time>
  <course>275.92</course>
  <speed>0.0</speed>
  <fix>3d</fix>
</trkpt>
<trkpt lat="-27.2744391" lon="151.290064">
  <ele>374.25</ele>
  <time>2026-09-01T20:02:30Z</time>
  <course>10.4</course>
  <speed>0.05</speed>
  <fix>3d</fix>
</trkpt>
<trkpt lat="-27.274439" lon="151.2900639">
  <ele>374.15</ele>
  <time>2026-09-01T20:02:30Z</time>
  <course>201.88</course>
  <speed>0.01</speed>
  <fix>3d</fix>
</trkpt>
<trkpt lat="-27.2744391" lon="151.290064">
  <ele>374.27</ele>
  <time>2026-09-01T20:02:30Z</time>
  <course>10.37</course>
  <speed>0.06</speed>
  <fix>3d</fix>
</trkpt>
<trkpt lat="-27.274439" lon="151.2900639">
  <ele>374.15</ele>
  <time>2026-09-01T20:02:30Z</time>
  <course>201.88</course>
  <speed>0.01</speed>
  <fix>3d</fix>
</trkpt>
<trkpt lat="-27.2744392" lon="151.290064">
  <ele>374.27</ele>
  <time>2026-09-01T20:02:30Z</time>
  <course>10.4</course>
  <speed>0.07</speed>
  <fix>3d</fix>
</trkpt>
<trkpt lat="-27.274439" lon="151.2900639">
  <ele>374.23</ele>
  <time>2026-09-01T20:02:30Z</time>
  <course>191.22</course>
  <speed>0.03</speed>
  <fix>3d</fix>
</trkpt>
<trkpt lat="-27.2744392" lon="151.290064">
  <ele>374.26</ele>
  <time>2026-09-01T20:02:30Z</time>
  <course>10.47</course>
  <speed>0.08</speed>
  <fix>3d</fix>
</trkpt>
<trkpt lat="-27.274439" lon="151.2900639">
  <ele>374.23</ele>
  <time>2026-09-01T20:02:30Z</time>
  <course>191.22</course>
  <speed>0.03</speed>
  <fix>3d</fix>
</trkpt>
<trkpt lat="-27.2744393" lon="151.290064">
  <ele>374.25</ele>
  <time>2026-09-01T20:02:30Z</time>
  <course>10.56</course>
  <speed>0.09055385138137417</speed>
  <fix>3d</fix>
</trkpt>
<trkpt lat="-27.274439" lon="151.2900639">
  <ele>374.26</ele>
  <time>2026-09-01T20:02:30Z</time>
  <course>192.36</course>
  <speed>0.05</speed>
  <fix>3d</fix>
</trkpt>
<trkpt lat="-27.2744394" lon="151.290064">
  <ele>374.24</ele>
  <time>2026-09-01T20:02:30Z</time>
  <course>10.65</course>
  <speed>0.1004987562112089</speed>
  <fix>3d</fix>
</trkpt>
<trkpt lat="-27.274439" lon="151.2900639">
  <ele>374.26</ele>
  <time>2026-09-01T20:02:30Z</time>
  <course>192.36</course>
  <speed>0.05</speed>
  <fix>3d</fix>
</trkpt>
<trkpt lat="-27.2744394" lon="151.2900639">
  <ele>374.24</ele>
  <time>2026-09-01T20:02:30Z</time>
  <course>10.73</course>
  <speed>0.1004987562112089</speed>
  <fix>3d</fix>
</trkpt>
<trkpt lat="-27.2744391" lon="151.2900638">
  <ele>374.26</ele>
  <time>2026-09-01T20:02:30Z</time>
  <course>193.98</course>
  <speed>0.07</speed>
  <fix>3d</fix>
</trkpt>
<trkpt lat="-27.2744395" lon="151.2900639">
  <ele>374.24</ele>
  <time>2026-09-01T20:02:30Z</time>
  <course>10.78</course>
  <speed>0.11045361017187261</speed>
  <fix>3d</fix>
</trkpt>
<trkpt lat="-27.2744391" lon="151.2900638">
  <ele>374.26</ele>
  <time>2026-09-01T20:02:30Z</time>
  <course>193.98</course>
  <speed>0.07</speed>
  <fix>3d</fix>
</trkpt>
<trkpt lat="-27.2744396" lon="151.2900639">
  <ele>374.27</ele>
  <time>2026-09-01T20:02:30Z</time>
  <course>10.8</course>
  <speed>0.1118033988749895</speed>
  <fix>3d</fix>
</trkpt>
<trkpt lat="-27.2744393" lon="151.2900637">
  <ele>374.25</ele>
  <time>2026-09-01T20:02:30Z</time>
  <course>195.08</course>
  <speed>0.09</speed>
  <fix>3d</fix>
</trkpt>
<trkpt lat="-27.2744397" lon="151.2900639">
  <ele>374.31</ele>
  <time>2026-09-01T20:02:30Z</time>
  <course>10.76</course>
  <speed>0.12041594578792296</speed>
  <fix>3d</fix>
</trkpt>
<trkpt lat="-27.2744393" lon="151.2900637">
  <ele>374.25</ele>
  <time>2026-09-01T20:02:30Z</time>
  <course>195.08</course>
  <speed>0.09</speed>
  <fix>3d</fix>
</trkpt>
<trkpt lat="-27.2744398" lon="151.2900638">
  <ele>374.38</ele>
  <time>2026-09-01T20:02:30Z</time>
  <course>10.62</course>
  <speed>0.12041594578792296</speed>
  <fix>3d</fix>
</trkpt>
<trkpt lat="-27.2744395" lon="151.2900637">
  <ele>374.28</ele>
  <time>2026-09-01T20:02:30Z</time>
  <course>194.82</course>
  <speed>0.1</speed>
  <fix>3d</fix>
</trkpt>
<trkpt lat="-27.2744399" lon="151.2900638">
  <ele>374.47</ele>
  <time>2026-09-01T20:02:30Z</time>
  <course>10.42</course>
  <speed>0.11</speed>
  <fix>3d</fix>
</trkpt>
<trkpt lat="-27.2744395" lon="151.2900637">
  <ele>374.28</ele>
  <time>2026-09-01T20:02:30Z</time>
  <course>194.82</course>
  <speed>0.1</speed>
  <fix>3d</fix>
</trkpt>
<trkpt lat="-27.2744399" lon="151.2900638">
  <ele>374.58</ele>
  <time>2026-09-01T20:02:30Z</time>
  <course>10.29</course>
  <speed>0.1</speed>
  <fix>3d</fix>
</trkpt>
<trkpt lat="-27.2744396" lon="151.2900637">
  <ele>374.4</ele>
  <time>2026-09-01T20:02:30Z</time>
  <course>191.69</course>
  <speed>0.1</speed>
  <fix>3d</fix>
</trkpt>
<trkpt lat="-27.27444" lon="151.2900638">
  <ele>374.71</ele>
  <time>2026-09-01T20:02:30Z</time>
  <course>10.25</course>
  <speed>0.08</speed>
  <fix>3d</fix>
</trkpt>
<trkpt lat="-27.2744396" lon="151.2900637">
  <ele>374.4</ele>
  <time>2026-09-01T20:02:30Z</time>
  <course>191.69</course>
  <speed>0.1</speed>
  <fix>3d</fix>
</trkpt>
<trkpt lat="-27.2744401" lon="151.2900638">
  <ele>374.84</ele>
  <time>2026-09-01T20:02:30Z</time>
  <course>10.29</course>
  <speed>0.06</speed>
  <fix>3d</fix>
</trkpt>
<trkpt lat="-27.2744397" lon="151.2900637">
  <ele>374.6</ele>
  <time>2026-09-01T20:02:30Z</time>
  <course>189.43</course>
  <speed>0.08</speed>
  <fix>3d</fix>
</trkpt>
<trkpt lat="-27.2744401" lon="151.2900638">
  <ele>374.99</ele>
  <time>2026-09-01T20:02:30Z</time>
  <course>10.36</course>
  <speed>0.04</speed>
  <fix>3d</fix>
</trkpt>
<trkpt lat="-27.2744397" lon="151.2900637">
  <ele>374.6</ele>
  <time>2026-09-01T20:02:30Z</time>
  <course>189.43</course>
  <speed>0.08</speed>
  <fix>3d</fix>
</trkpt>
<trkpt lat="-27.2744401" lon="151.2900637">
  <ele>375.15</ele>
  <time>2026-09-01T20:02:30Z</time>
  <course>10.44</course>
  <speed>0.02</speed>
  <fix>3d</fix>
</trkpt>
<trkpt lat="-27.2744399" lon="151.2900636">
  <ele>374.86</ele>
  <time>2026-09-01T20:02:30Z</time>
  <course>191.0</course>
  <speed>0.05</speed>
  <fix>3d</fix>
</trkpt>
<trkpt lat="-27.2744401" lon="151.2900637">
  <ele>375.32</ele>
  <time>2026-09-01T20:02:30Z</time>
  <course>10.52</course>
  <speed>0.01</speed>
  <fix>3d</fix>
</trkpt>
<trkpt lat="-27.2744399" lon="151.2900636">
  <ele>374.86</ele>
  <time>2026-09-01T20:02:30Z</time>
  <course>191.0</course>
  <speed>0.05</speed>
  <fix>3d</fix>
</trkpt>
<trkpt lat="-27.2744401" lon="151.2900637">
  <ele>375.48</ele>
  <time>2026-09-01T20:02:30Z</time>
  <course>10.6</course>
  <speed>0.01414213562373095</speed>
  <fix>3d</fix>
</trkpt>
<trkpt lat="-27.27444" lon="151.2900636">
  <ele>375.17</ele>
  <time>2026-09-01T20:02:30Z</time>
  <course>202.43</course>
  <speed>0.01</speed>
  <fix>3d</fix>
</trkpt>
<trkpt lat="-27.27444" lon="151.2900637">
  <ele>375.65</ele>
  <time>2026-09-01T20:02:30Z</time>
  <course>10.66</course>
  <speed>0.0316227766016838</speed>
  <fix>3d</fix>
</trkpt>
<trkpt lat="-27.27444" lon="151.2900636">
  <ele>375.17</ele>
  <time>2026-09-01T20:02:30Z</time>
  <course>202.43</course>
  <speed>0.01</speed>
  <fix>3d</fix>
</trkpt>
<trkpt lat="-27.27444" lon="151.2900637">
  <ele>375.83</ele>
  <time>2026-09-01T20:02:30Z</time>
  <course>10.7</course>
  <speed>0.0412310562561766</speed>
  <fix>3d</fix>
</trkpt>
<trkpt lat="-27.27444" lon="151.2900636">
  <ele>375.51</ele>
  <time>2026-09-01T20:02:30Z</time>
  <course>356.32</course>
  <speed>0.02</speed>
  <fix>3d</fix>
</trkpt>
<trkpt lat="-27.27444" lon="151.2900637">
  <ele>376.0</ele>
  <time>2026-09-01T20:02:30Z</time>
  <course>10.72</course>
  <speed>0.06082762530298219</speed>
  <fix>3d</fix>
</trkpt>
<trkpt lat="-27.27444" lon="151.2900636">
  <ele>375.51</ele>
  <time>2026-09-01T20:02:30Z</time>
  <course>356.32</course>
  <speed>0.02</speed>
  <fix>3d</fix>
</trkpt>
<trkpt lat="-27.2744399" lon="151.2900637">
  <ele>376.17</ele>
  <time>2026-09-01T20:02:30Z</time>
  <course>10.72</course>
  <speed>0.07280109889280519</speed>
  <fix>3d</fix>
</trkpt>
<trkpt lat="-27.2744399" lon="151.2900636">
  <ele>375.86</ele>
  <time>2026-09-01T20:02:30Z</time>
  <course>1.16</course>
  <speed>0.06</speed>
  <fix>3d</fix>
</trkpt>
<trkpt lat="-27.2744399" lon="151.2900637">
  <ele>376.33</ele>
  <time>2026-09-01T20:02:30Z</time>
  <course>10.7</course>
  <speed>0.0824621125123532</speed>
  <fix>3d</fix>
</trkpt>
<trkpt lat="-27.2744399" lon="151.2900636">
  <ele>375.86</ele>
  <time>2026-09-01T20:02:30Z</time>
  <course>1.16</course>
  <speed>0.06</speed>
  <fix>3d</fix>
</trkpt>
<trkpt lat="-27.2744398" lon="151.2900637">
  <ele>376.49</ele>
  <time>2026-09-01T20:02:30Z</time>
  <course>10.68</course>
  <speed>0.0824621125123532</speed>
  <fix>3d</fix>
</trkpt>
<trkpt lat="-27.2744398" lon="151.2900636">
  <ele>376.19</ele>
  <time>2026-09-01T20:02:30Z</time>
  <course>2.26</course>
  <speed>0.08</speed>
  <fix>3d</fix>
</trkpt>
<trkpt lat="-27.2744397" lon="151.2900637">
  <ele>376.65</ele>
  <time>2026-09-01T20:02:30Z</time>
  <course>10.66</course>
  <speed>0.09219544457292887</speed>
  <fix>3d</fix>
</trkpt>
<trkpt lat="-27.2744398" lon="151.2900636">
  <ele>376.19</ele>
  <time>2026-09-01T20:02:30Z</time>
  <course>2.26</course>
  <speed>0.08</speed>
  <fix>3d</fix>
</trkpt>
<trkpt lat="-27.2744396" lon="151.2900637">
  <ele>376.8</ele>
  <time>2026-09-01T20:02:30Z</time>
  <course>10.63</course>
  <speed>0.09219544457292887</speed>
  <fix>3d</fix>
</trkpt>
<trkpt lat="-27.2744397" lon="151.2900636">
  <ele>376.52</ele>
  <time>2026-09-01T20:02:30Z</time>
  <course>2.56</course>
  <speed>0.1</speed>
  <fix>3d</fix>
</trkpt>
<trkpt lat="-27.2744395" lon="151.2900637">
  <ele>376.95</ele>
  <time>2026-09-01T20:02:30Z</time>
  <course>10.62</course>
  <speed>0.09219544457292887</speed>
  <fix>3d</fix>
</trkpt>
<trkpt lat="-27.2744397" lon="151.2900636">
  <ele>376.52</ele>
  <time>2026-09-01T20:02:30Z</time>
  <course>2.56</course>
  <speed>0.1</speed>
  <fix>3d</fix>
</trkpt>
<trkpt lat="-27.2744394" lon="151.2900637">
  <ele>377.09</ele>
  <time>2026-09-01T20:02:30Z</time>
  <course>10.61</course>
  <speed>0.09219544457292887</speed>
  <fix>3d</fix>
</trkpt>
<trkpt lat="-27.2744395" lon="151.2900636">
  <ele>376.83</ele>
  <time>2026-09-01T20:02:30Z</time>
  <course>2.42</course>
  <speed>0.11</speed>
  <fix>3d</fix>
</trkpt>
<trkpt lat="-27.2744393" lon="151.2900637">
  <ele>377.24</ele>
  <time>2026-09-01T20:02:30Z</time>
  <course>10.61</course>
  <speed>0.09055385138137417</speed>
  <fix>3d</fix>
</trkpt>
<trkpt lat="-27.2744395" lon="151.2900636">
  <ele>376.83</ele>
  <time>2026-09-01T20:02:30Z</time>
  <course>2.42</course>
  <speed>0.11</speed>
  <fix>3d</fix>
</trkpt>
<trkpt lat="-27.2744392" lon="151.2900637">
  <ele>377.37</ele>
  <time>2026-09-01T20:02:30Z</time>
  <course>10.61</course>
  <speed>0.09055385138137417</speed>
  <fix>3d</fix>
</trkpt>
<trkpt lat="-27.2744393" lon="151.2900636">
  <ele>377.12</ele>
  <time>2026-09-01T20:02:30Z</time>
  <course>2.13</course>
  <speed>0.11</speed>
  <fix>3d</fix>
</trkpt>
<trkpt lat="-27.2744391" lon="151.2900637">
  <ele>377.51</ele>
  <time>2026-09-01T20:02:30Z</time>
  <course>10.62</course>
  <speed>0.08062257748298549</speed>
  <fix>3d</fix>
</trkpt>
<trkpt lat="-27.2744393" lon="151.2900636">
  <ele>377.12</ele>
  <time>2026-09-01T20:02:30Z</time>
  <course>2.13</course>
  <speed>0.11</speed>
  <fix>3d</fix>
</trkpt>
<trkpt lat="-27.274439" lon="151.2900637">
  <ele>377.64</ele>
  <time>2026-09-01T20:02:30Z</time>
  <course>10.63</course>
  <speed>0.08062257748298549</speed>
  <fix>3d</fix>
</trkpt>
<trkpt lat="-27.2744391" lon="151.2900636">
  <ele>377.39</ele>
  <time>2026-09-01T20:02:30Z</time>
  <course>1.92</course>
  <speed>0.1</speed>
  <fix>3d</fix>
</trkpt>
<trkpt lat="-27.274439" lon="151.2900637">
  <ele>377.78</ele>
  <time>2026-09-01T20:02:30Z</time>
  <course>10.64</course>
  <speed>0.08062257748298549</speed>
  <fix>3d</fix>
</trkpt>
<trkpt lat="-27.2744391" lon="151.2900636">
  <ele>377.39</ele>
  <time>2026-09-01T20:02:30Z</time>
  <course>1.92</course>
  <speed>0.1</speed>
  <fix>3d</fix>
</trkpt>
<trkpt lat="-27.2744389" lon="151.2900637">
  <ele>377.91</ele>
  <time>2026-09-01T20:02:30Z</time>
  <course>10.64</course>
  <speed>0.07071067811865475</speed>
  <fix>3d</fix>
</trkpt>
<trkpt lat="-27.2744389" lon="151.2900636">
  <ele>377.66</ele>
  <time>2026-09-01T20:02:30Z</time>
  <course>1.73</course>
  <speed>0.1</speed>
  <fix>3d</fix>
</trkpt>
<trkpt lat="-27.2744388" lon="151.2900637">
  <ele>378.04</ele>
  <time>2026-09-01T20:02:30Z</time>
  <course>10.65</course>
  <speed>0.07071067811865475</speed>
  <fix>3d</fix>
</trkpt>
<trkpt lat="-27.2744389" lon="151.2900636">
  <ele>377.66</ele>
  <time>2026-09-01T20:02:30Z</time>
  <course>1.73</course>
  <speed>0.1</speed>
  <fix>3d</fix>
</trkpt>
<trkpt lat="-27.2744387" lon="151.2900637">
  <ele>378.18</ele>
  <time>2026-09-01T20:02:30Z</time>
  <course>10.65</course>
  <speed>0.06082762530298219</speed>
  <fix>3d</fix>
</trkpt>
<trkpt lat="-27.2744387" lon="151.2900636">
  <ele>377.93</ele>
  <time>2026-09-01T20:02:30Z</time>
  <course>1.63</course>
  <speed>0.09</speed>
  <fix>3d</fix>
</trkpt>
<trkpt lat="-27.2744387" lon="151.2900637">
  <ele>378.31</ele>
  <time>2026-09-01T20:02:30Z</time>
  <course>10.65</course>
  <speed>0.06082762530298219</speed>
  <fix>3d</fix>
</trkpt>
<trkpt lat="-27.2744387" lon="151.2900636">
  <ele>377.93</ele>
  <time>2026-09-01T20:02:30Z</time>
  <course>1.63</course>
  <speed>0.09</speed>
  <fix>3d</fix>
</trkpt>
<trkpt lat="-27.2744386" lon="151.2900637">
  <ele>378.44</ele>
  <time>2026-09-01T20:02:30Z</time>
  <course>10.65</course>
  <speed>0.05099019513592785</speed>
  <fix>3d</fix>
</trkpt>
<trkpt lat="-27.2744385" lon="151.2900636">
  <ele>378.2</ele>
  <time>2026-09-01T20:02:30Z</time>
  <course>1.74</course>
  <speed>0.08</speed>
  <fix>3d</fix>
</trkpt>
<trkpt lat="-27.2744385" lon="151.2900637">
  <ele>378.58</ele>
  <time>2026-09-01T20:02:30Z</time>
  <course>10.65</course>
  <speed>0.05099019513592785</speed>
  <fix>3d</fix>
</trkpt>
<trkpt lat="-27.2744385" lon="151.2900636">
  <ele>378.2</ele>
  <time>2026-09-01T20:02:30Z</time>
  <course>1.74</course>
  <speed>0.08</speed>
  <fix>3d</fix>
</trkpt>
<trkpt lat="-27.2744385" lon="151.2900637">
  <ele>378.72</ele>
  <time>2026-09-01T20:02:30Z</time>
  <course>10.65</course>
  <speed>0.0412310562561766</speed>
  <fix>3d</fix>
</trkpt>
<trkpt lat="-27.2744384" lon="151.2900636">
  <ele>378.47</ele>
  <time>2026-09-01T20:02:30Z</time>
  <course>2.16</course>
  <speed>0.07</speed>
  <fix>3d</fix>
</trkpt>
<trkpt lat="-27.2744384" lon="151.2900637">
  <ele>378.85</ele>
  <time>2026-09-01T20:02:30Z</time>
  <course>10.66</course>
  <speed>0.0412310562561766</speed>
  <fix>3d</fix>
</trkpt>
<trkpt lat="-27.2744384" lon="151.2900636">
  <ele>378.47</ele>
  <time>2026-09-01T20:02:30Z</time>
  <course>2.16</course>
  <speed>0.07</speed>
  <fix>3d</fix>
</trkpt>
<trkpt lat="-27.2744384" lon="151.2900637">
  <ele>379.0</ele>
  <time>2026-09-01T20:02:30Z</time>
  <course>10.66</course>
  <speed>0.0316227766016838</speed>
  <fix>3d</fix>
</trkpt>
<trkpt lat="-27.2744383" lon="151.2900636">
  <ele>378.75</ele>
  <time>2026-09-01T20:02:30Z</time>
  <course>3.01</course>
  <speed>0.06</speed>
  <fix>3d</fix>
</trkpt>
<trkpt lat="-27.2744383" lon="151.2900637">
  <ele>379.14</ele>
  <time>2026-09-01T20:02:30Z</time>
  <course>10.66</course>
  <speed>0.0316227766016838</speed>
  <fix>3d</fix>
</trkpt>
<trkpt lat="-27.2744383" lon="151.2900636">
  <ele>378.75</ele>
  <time>2026-09-01T20:02:30Z</time>
  <course>3.01</course>
  <speed>0.06</speed>
  <fix>3d</fix>
</trkpt>
<trkpt lat="-27.2744383" lon="151.2900637">
  <ele>379.28</ele>
  <time>2026-09-01T20:02:30Z</time>
  <course>10.66</course>
  <speed>0.0316227766016838</speed>
  <fix>3d</fix>
</trkpt>
<trkpt lat="-27.2744382" lon="151.2900636">
  <ele>379.03</ele>
  <time>2026-09-01T20:02:30Z</time>
  <course>4.26</course>
  <speed>0.05</speed>
  <fix>3d</fix>
</trkpt>
<trkpt lat="-27.2744382" lon="151.2900637">
  <ele>379.43</ele>
  <time>2026-09-01T20:02:30Z</time>
  <course>10.67</course>
  <speed>0.022360679774997897</speed>
  <fix>3d</fix>
</trkpt>
<trkpt lat="-27.2744382" lon="151.2900636">
  <ele>379.03</ele>
  <time>2026-09-01T20:02:30Z</time>
  <course>4.26</course>
  <speed>0.05</speed>
  <fix>3d</fix>
</trkpt>
<trkpt lat="-27.2744382" lon="151.2900637">
  <ele>379.57</ele>
  <time>2026-09-01T20:02:30Z</time>
  <course>10.69</course>
  <speed>0.022360679774997897</speed>
  <fix>3d</fix>
</trkpt>
<trkpt lat="-27.2744381" lon="151.2900636">
  <ele>379.32</ele>
  <time>2026-09-01T20:02:30Z</time>
  <course>5.8</course>
  <speed>0.05</speed>
  <fix>3d</fix>
</trkpt>
<trkpt lat="-27.2744382" lon="151.2900637">
  <ele>379.72</ele>
  <time>2026-09-01T20:02:30Z</time>
  <course>10.7</course>
  <speed>0.022360679774997897</speed>
  <fix>3d</fix>
</trkpt>
<trkpt lat="-27.2744381" lon="151.2900636">
  <ele>379.32</ele>
  <time>2026-09-01T20:02:30Z</time>
  <course>5.8</course>
  <speed>0.05</speed>
  <fix>3d</fix>
</trkpt>
<trkpt lat="-27.2744381" lon="151.2900637">
  <ele>379.87</ele>
  <time>2026-09-01T20:02:30Z</time>
  <course>10.72</course>
  <speed>0.022360679774997897</speed>
  <fix>3d</fix>
</trkpt>
<trkpt lat="-27.274438" lon="151.2900636">
  <ele>379.61</ele>
  <time>2026-09-01T20:02:30Z</time>
  <course>7.44</course>
  <speed>0.04</speed>
  <fix>3d</fix>
</trkpt>
<trkpt lat="-27.2744381" lon="151.2900637">
  <ele>380.02</ele>
  <time>2026-09-01T20:02:30Z</time>
  <course>10.73</course>
  <speed>0.01414213562373095</speed>
  <fix>3d</fix>
</trkpt>
<trkpt lat="-27.274438" lon="151.2900636">
  <ele>379.61</ele>
  <time>2026-09-01T20:02:30Z</time>
  <course>7.44</course>
  <speed>0.04</speed>
  <fix>3d</fix>
</trkpt>
<trkpt lat="-27.2744381" lon="151.2900637">
  <ele>380.17</ele>
  <time>2026-09-01T20:02:30Z</time>
  <course>10.75</course>
  <speed>0.01414213562373095</speed>
  <fix>3d</fix>
</trkpt>
<trkpt lat="-27.2744379" lon="151.2900636">
  <ele>379.9</ele>
  <time>2026-09-01T20:02:30Z</time>
  <course>9.16</course>
  <speed>0.03</speed>
  <fix>3d</fix>
</trkpt>
<trkpt lat="-27.274438" lon="151.2900637">
  <ele>380.32</ele>
  <time>2026-09-01T20:02:30Z</time>
  <course>10.76</course>
  <speed>0.01414213562373095</speed>
  <fix>3d</fix>
</trkpt>
<trkpt lat="-27.2744379" lon="151.2900636">
  <ele>379.9</ele>
  <time>2026-09-01T20:02:30Z</time>
  <course>9.16</course>
  <speed>0.03</speed>
  <fix>3d</fix>
</trkpt>
<trkpt lat="-27.274438" lon="151.2900637">
  <ele>380.47</ele>
  <time>2026-09-01T20:02:30Z</time>
  <course>10.77</course>
  <speed>0.01</speed>
  <fix>3d</fix>
</trkpt>
<trkpt lat="-27.2744379" lon="151.2900636">
  <ele>380.19</ele>
  <time>2026-09-01T20:02:30Z</time>
  <course>11.13</course>
  <speed>0.03</speed>
  <fix>3d</fix>
</trkpt>
<trkpt lat="-27.274438" lon="151.2900637">
  <ele>380.61</ele>
  <time>2026-09-01T20:02:30Z</time>
  <course>10.78</course>
  <speed>0.0</speed>
  <fix>3d</fix>
</trkpt>
<trkpt lat="-27.2744379" lon="151.2900636">
  <ele>380.19</ele>
  <time>2026-09-01T20:02:30Z</time>
  <course>11.13</course>
  <speed>0.03</speed>
  <fix>3d</fix>
</trkpt>
<trkpt lat="-27.274438" lon="151.2900637">
  <ele>380.76</ele>
  <time>2026-09-01T20:02:30Z</time>
  <course>10.78</course>
  <speed>0.0</speed>
  <fix>3d</fix>
</trkpt>
<trkpt lat="-27.2744378" lon="151.2900636">
  <ele>380.49</ele>
  <time>2026-09-01T20:02:30Z</time>
  <course>13.59</course>
  <speed>0.02</speed>
  <fix>3d</fix>
</trkpt>
<trkpt lat="-27.274438" lon="151.2900637">
  <ele>380.9</ele>
  <time>2026-09-01T20:02:30Z</time>
  <course>10.78</course>
  <speed>0.0</speed>
  <fix>3d</fix>
</trkpt>
<trkpt lat="-27.2744378" lon="151.2900636">
  <ele>380.49</ele>
  <time>2026-09-01T20:02:30Z</time>
  <course>13.59</course>
  <speed>0.02</speed>
  <fix>3d</fix>
</trkpt>
<trkpt lat="-27.2744379" lon="151.2900637">
  <ele>381.05</ele>
  <time>2026-09-01T20:02:30Z</time>
  <course>10.78</course>
  <speed>0.0</speed>
  <fix>3d</fix>
</trkpt>
<trkpt lat="-27.2744378" lon="151.2900637">
  <ele>380.78</ele>
  <time>2026-09-01T20:02:30Z</time>
  <course>18.26</course>
  <speed>0.01</speed>
  <fix>3d</fix>
</trkpt>
<trkpt lat="-27.2744379" lon="151.2900637">
  <ele>381.19</ele>
  <time>2026-09-01T20:02:30Z</time>
  <course>10.78</course>
  <speed>0.01</speed>
  <fix>3d</fix>
</trkpt>
<trkpt lat="-27.2744378" lon="151.2900637">
  <ele>380.78</ele>
  <time>2026-09-01T20:02:30Z</time>
  <course>18.26</course>
  <speed>0.01</speed>
  <fix>3d</fix>
</trkpt>
<trkpt lat="-27.2744379" lon="151.2900637">
  <ele>381.33</ele>
  <time>2026-09-01T20:02:30Z</time>
  <course>10.79</course>
  <speed>0.01</speed>
  <fix>3d</fix>
</trkpt>
<trkpt lat="-27.2744378" lon="151.2900637">
  <ele>381.06</ele>
  <time>2026-09-01T20:02:30Z</time>
  <course>29.38</course>
  <speed>0.01</speed>
  <fix>3d</fix>
</trkpt>
<trkpt lat="-27.2744379" lon="151.2900637">
  <ele>381.47</ele>
  <time>2026-09-01T20:02:30Z</time>
  <course>10.8</course>
  <speed>0.01</speed>
  <fix>3d</fix>
</trkpt>
<trkpt lat="-27.2744378" lon="151.2900637">
  <ele>381.06</ele>
  <time>2026-09-01T20:02:30Z</time>
  <course>29.38</course>
  <speed>0.01</speed>
  <fix>3d</fix>
</trkpt>
<trkpt lat="-27.2744379" lon="151.2900637">
  <ele>381.62</ele>
  <time>2026-09-01T20:02:30Z</time>
  <course>10.82</course>
  <speed>0.02</speed>
  <fix>3d</fix>
</trkpt>
<trkpt lat="-27.2744378" lon="151.2900637">
  <ele>381.34</ele>
  <time>2026-09-01T20:02:30Z</time>
  <course>63.98</course>
  <speed>0.0</speed>
  <fix>3d</fix>
</trkpt>
<trkpt lat="-27.2744379" lon="151.2900637">
  <ele>381.76</ele>
  <time>2026-09-01T20:02:30Z</time>
  <course>10.84</course>
  <speed>0.02</speed>
  <fix>3d</fix>
</trkpt>
<trkpt lat="-27.2744378" lon="151.2900637">
  <ele>381.34</ele>
  <time>2026-09-01T20:02:30Z</time>
  <course>63.98</course>
  <speed>0.0</speed>
  <fix>3d</fix>
</trkpt>
<trkpt lat="-27.2744379" lon="151.2900637">
  <ele>381.9</ele>
  <time>2026-09-01T20:02:30Z</time>
  <course>10.86</course>
  <speed>0.02</speed>
  <fix>3d</fix>
</trkpt>
<trkpt lat="-27.2744378" lon="151.2900637">
  <ele>381.63</ele>
  <time>2026-09-01T20:02:30Z</time>
  <course>138.22</course>
  <speed>0.0</speed>
  <fix>3d</fix>
</trkpt>
<trkpt lat="-27.2744379" lon="151.2900637">
  <ele>382.04</ele>
  <time>2026-09-01T20:02:30Z</time>
  <course>10.88</course>
  <speed>0.03</speed>
  <fix>3d</fix>
</trkpt>
<trkpt lat="-27.2744378" lon="151.2900637">
  <ele>381.63</ele>
  <time>2026-09-01T20:02:30Z</time>
  <course>138.22</course>
  <speed>0.0</speed>
  <fix>3d</fix>
</trkpt>
<trkpt lat="-27.2744379" lon="151.2900637">
  <ele>382.19</ele>
  <time>2026-09-01T20:02:30Z</time>
  <course>10.89</course>
  <speed>0.03</speed>
  <fix>3d</fix>
</trkpt>
<trkpt lat="-27.2744378" lon="151.2900637">
  <ele>381.91</ele>
  <time>2026-09-01T20:02:30Z</time>
  <course>165.64</course>
  <speed>0.01</speed>
  <fix>3d</fix>
</trkpt>
<trkpt lat="-27.2744379" lon="151.2900637">
  <ele>382.33</ele>
  <time>2026-09-01T20:02:30Z</time>
  <course>10.89</course>
  <speed>0.03</speed>
  <fix>3d</fix>
</trkpt>
<trkpt lat="-27.2744378" lon="151.2900637">
  <ele>381.91</ele>
  <time>2026-09-01T20:02:30Z</time>
  <course>165.64</course>
  <speed>0.01</speed>
  <fix>3d</fix>
</trkpt>
<trkpt lat="-27.2744379" lon="151.2900637">
  <ele>382.48</ele>
  <time>2026-09-01T20:02:30Z</time>
  <course>10.9</course>
  <speed>0.03</speed>
  <fix>3d</fix>
</trkpt>
<trkpt lat="-27.2744378" lon="151.2900637">
  <ele>382.2</ele>
  <time>2026-09-01T20:02:30Z</time>
  <course>173.35</course>
  <speed>0.01</speed>
  <fix>3d</fix>
</trkpt>
<trkpt lat="-27.274438" lon="151.2900637">
  <ele>382.62</ele>
  <time>2026-09-01T20:02:30Z</time>
  <course>10.91</course>
  <speed>0.03</speed>
  <fix>3d</fix>
</trkpt>
<trkpt lat="-27.2744378" lon="151.2900637">
  <ele>382.2</ele>
  <time>2026-09-01T20:02:30Z</time>
  <course>173.35</course>
  <speed>0.01</speed>
  <fix>3d</fix>
</trkpt>
<trkpt lat="-27.274438" lon="151.2900637">
  <ele>382.77</ele>
  <time>2026-09-01T20:02:30Z</time>
  <course>10.92</course>
  <speed>0.04</speed>
  <fix>3d</fix>
</trkpt>
<trkpt lat="-27.2744378" lon="151.2900637">
  <ele>382.48</ele>
  <time>2026-09-01T20:02:30Z</time>
  <course>176.85</course>
  <speed>0.02</speed>
  <fix>3d</fix>
</trkpt>
<trkpt lat="-27.274438" lon="151.2900637">
  <ele>382.91</ele>
  <time>2026-09-01T20:02:30Z</time>
  <course>10.92</course>
  <speed>0.04</speed>
  <fix>3d</fix>
</trkpt>
<trkpt lat="-27.2744378" lon="151.2900637">
  <ele>382.48</ele>
  <time>2026-09-01T20:02:30Z</time>
  <course>176.85</course>
  <speed>0.02</speed>
  <fix>3d</fix>
</trkpt>
<trkpt lat="-27.274438" lon="151.2900637">
  <ele>383.05</ele>
  <time>2026-09-01T20:02:30Z</time>
  <course>10.93</course>
  <speed>0.04</speed>
  <fix>3d</fix>
</trkpt>
<trkpt lat="-27.2744378" lon="151.2900637">
  <ele>382.77</ele>
  <time>2026-09-01T20:02:30Z</time>
  <course>179.91</course>
  <speed>0.02</speed>
  <fix>3d</fix>
</trkpt>
<trkpt lat="-27.274438" lon="151.2900637">
  <ele>383.2</ele>
  <time>2026-09-01T20:02:30Z</time>
  <course>10.93</course>
  <speed>0.04</speed>
  <fix>3d</fix>
</trkpt>
<trkpt lat="-27.2744378" lon="151.2900637">
  <ele>382.77</ele>
  <time>2026-09-01T20:02:30Z</time>
  <course>179.91</course>
  <speed>0.02</speed>
  <fix>3d</fix>
</trkpt>
<trkpt lat="-27.274438" lon="151.2900637">
  <ele>383.34</ele>
  <time>2026-09-01T20:02:30Z</time>
  <course>10.92</course>
  <speed>0.04</speed>
  <fix>3d</fix>
</trkpt>
<trkpt lat="-27.2744378" lon="151.2900637">
  <ele>383.05</ele>
  <time>2026-09-01T20:02:30Z</time>
  <course>182.28</course>
  <speed>0.02</speed>
  <fix>3d</fix>
</trkpt>
<trkpt lat="-27.2744381" lon="151.2900637">
  <ele>383.49</ele>
  <time>2026-09-01T20:02:30Z</time>
  <course>10.91</course>
  <speed>0.04</speed>
  <fix>3d</fix>
</trkpt>
<trkpt lat="-27.2744378" lon="151.2900637">
  <ele>383.05</ele>
  <time>2026-09-01T20:02:30Z</time>
  <course>182.28</course>
  <speed>0.02</speed>
  <fix>3d</fix>
</trkpt>
<trkpt lat="-27.2744381" lon="151.2900637">
  <ele>383.63</ele>
  <time>2026-09-01T20:02:30Z</time>
  <course>10.89</course>
  <speed>0.04</speed>
  <fix>3d</fix>
</trkpt>
<trkpt lat="-27.2744379" lon="151.2900637">
  <ele>383.33</ele>
  <time>2026-09-01T20:02:30Z</time>
  <course>183.25</course>
  <speed>0.02</speed>
  <fix>3d</fix>
</trkpt>
<trkpt lat="-27.2744381" lon="151.2900637">
  <ele>383.77</ele>
  <time>2026-09-01T20:02:30Z</time>
  <course>10.88</course>
  <speed>0.04</speed>
  <fix>3d</fix>
</trkpt>
<trkpt lat="-27.2744379" lon="151.2900637">
  <ele>383.33</ele>
  <time>2026-09-01T20:02:30Z</time>
  <course>183.25</course>
  <speed>0.02</speed>
  <fix>3d</fix>
</trkpt>
<trkpt lat="-27.2744381" lon="151.2900637">
  <ele>383.78</ele>
  <time>2026-09-01T20:02:30Z</time>
  <course>10.88</course>
  <speed>0.04</speed>
  <fix>3d</fix>
</trkpt>
<trkpt lat="-27.2744381" lon="151.2900637">
  <ele>383.91</ele>
  <time>2026-09-01T20:02:30Z</time>
  <course>10.76</course>
  <speed>0.02</speed>
  <fix>3d</fix>
</trkpt>
<trkpt lat="-27.2744379" lon="151.2900637">
  <ele>383.62</ele>
  <time>2026-09-01T20:02:30Z</time>
  <course>182.85</course>
  <speed>0.02</speed>
  <fix>3d</fix>
</trkpt>
<trkpt lat="-27.2744381" lon="151.2900637">
  <ele>384.01</ele>
  <time>2026-09-01T20:02:30Z</time>
  <course>10.48</course>
  <speed>0.044721359549995794</speed>
  <fix>3d</fix>
</trkpt>
<trkpt lat="-27.2744379" lon="151.2900637">
  <ele>383.62</ele>
  <time>2026-09-01T20:02:30Z</time>
  <course>182.85</course>
  <speed>0.02</speed>
  <fix>3d</fix>
</trkpt>
<trkpt lat="-27.2744381" lon="151.2900637">
  <ele>383.87</ele>
  <time>2026-09-01T20:02:30Z</time>
  <course>10.23</course>
  <speed>0.0824621125123532</speed>
  <fix>3d</fix>
</trkpt>
<trkpt lat="-27.2744379" lon="151.2900637">
  <ele>383.88</ele>
  <time>2026-09-01T20:02:30Z</time>
  <course>18.06</course>
  <speed>0.01</speed>
  <fix>3d</fix>
</trkpt>
<trkpt lat="-27.274438" lon="151.2900637">
  <ele>383.8</ele>
  <time>2026-09-01T20:02:30Z</time>
  <course>9.99</course>
  <speed>0.0854400374531753</speed>
  <fix>3d</fix>
</trkpt>
<trkpt lat="-27.2744379" lon="151.2900637">
  <ele>383.88</ele>
  <time>2026-09-01T20:02:30Z</time>
  <course>18.06</course>
  <speed>0.01</speed>
  <fix>3d</fix>
</trkpt>
<trkpt lat="-27.2744379" lon="151.2900638">
  <ele>383.59</ele>
  <time>2026-09-01T20:02:30Z</time>
  <course>9.66</course>
  <speed>0.09848857801796104</speed>
  <fix>3d</fix>
</trkpt>
<trkpt lat="-27.2744378" lon="151.2900637">
  <ele>383.96</ele>
  <time>2026-09-01T20:02:30Z</time>
  <course>9.94</course>
  <speed>0.08</speed>
  <fix>3d</fix>
</trkpt>
<trkpt lat="-27.2744378" lon="151.2900638">
  <ele>383.26</ele>
  <time>2026-09-01T20:02:30Z</time>
  <course>9.08</course>
  <speed>0.11661903789690602</speed>
  <fix>3d</fix>
</trkpt>
<trkpt lat="-27.2744378" lon="151.2900637">
  <ele>383.96</ele>
  <time>2026-09-01T20:02:30Z</time>
  <course>9.94</course>
  <speed>0.08</speed>
  <fix>3d</fix>
</trkpt>
<trkpt lat="-27.2744377" lon="151.2900639">
  <ele>382.85</ele>
  <time>2026-09-01T20:02:30Z</time>
  <course>8.21</course>
  <speed>0.13892443989449804</speed>
  <fix>3d</fix>
</trkpt>
<trkpt lat="-27.2744377" lon="151.2900637">
  <ele>383.68</ele>
  <time>2026-09-01T20:02:30Z</time>
  <course>16.21</course>
  <speed>0.11</speed>
  <fix>3d</fix>
</trkpt>
<trkpt lat="-27.2744375" lon="151.290064">
  <ele>382.38</ele>
  <time>2026-09-01T20:02:30Z</time>
  <course>7.2</course>
  <speed>0.17</speed>
  <fix>3d</fix>
</trkpt>
<trkpt lat="-27.2744377" lon="151.2900637">
  <ele>383.68</ele>
  <time>2026-09-01T20:02:30Z</time>
  <course>16.21</course>
  <speed>0.11</speed>
  <fix>3d</fix>
</trkpt>
<trkpt lat="-27.2744374" lon="151.290064">
  <ele>381.86</ele>
  <time>2026-09-01T20:02:30Z</time>
  <course>6.17</course>
  <speed>0.20615528128088303</speed>
  <fix>3d</fix>
</trkpt>
<trkpt lat="-27.2744375" lon="151.2900638">
  <ele>383.09</ele>
  <time>2026-09-01T20:02:30Z</time>
  <course>21.81</course>
  <speed>0.15</speed>
  <fix>3d</fix>
</trkpt>
<trkpt lat="-27.2744372" lon="151.2900641">
  <ele>381.3</ele>
  <time>2026-09-01T20:02:30Z</time>
  <course>5.21</course>
  <speed>0.2529822128134704</speed>
  <fix>3d</fix>
</trkpt>
<trkpt lat="-27.2744375" lon="151.2900638">
  <ele>383.09</ele>
  <time>2026-09-01T20:02:30Z</time>
  <course>21.81</course>
  <speed>0.15</speed>
  <fix>3d</fix>
</trkpt>
<trkpt lat="-27.2744369" lon="151.2900642">
  <ele>380.7</ele>
  <time>2026-09-01T20:02:30Z</time>
  <course>4.32</course>
  <speed>0.34928498393145957</speed>
  <fix>3d</fix>
</trkpt>
<trkpt lat="-27.2744372" lon="151.290064">
  <ele>382.27</ele>
  <time>2026-09-01T20:02:30Z</time>
  <course>16.5</course>
  <speed>0.22</speed>
  <fix>3d</fix>
</trkpt>
<trkpt lat="-27.2744365" lon="151.2900642">
  <ele>380.05</ele>
  <time>2026-09-01T20:02:30Z</time>
  <course>3.51</course>
  <speed>0.4669047011971501</speed>
  <fix>3d</fix>
</trkpt>
<trkpt lat="-27.2744372" lon="151.290064">
  <ele>382.27</ele>
  <time>2026-09-01T20:02:30Z</time>
  <course>16.5</course>
  <speed>0.22</speed>
  <fix>3d</fix>
</trkpt>
<trkpt lat="-27.274436" lon="151.2900643">
  <ele>379.36</ele>
  <time>2026-09-01T20:02:30Z</time>
  <course>2.75</course>
  <speed>0.5953990258641678</speed>
  <fix>3d</fix>
</trkpt>
<trkpt lat="-27.2744367" lon="151.2900641">
  <ele>381.24</ele>
  <time>2026-09-01T20:02:30Z</time>
  <course>8.39</course>
  <speed>0.37</speed>
  <fix>3d</fix>
</trkpt>
<trkpt lat="-27.2744354" lon="151.2900644">
  <ele>378.59</ele>
  <time>2026-09-01T20:02:30Z</time>
  <course>2.02</course>
  <speed>0.8139410298049853</speed>
  <fix>3d</fix>
</trkpt>
<trkpt lat="-27.2744367" lon="151.2900641">
  <ele>381.24</ele>
  <time>2026-09-01T20:02:30Z</time>
  <course>8.39</course>
  <speed>0.37</speed>
  <fix>3d</fix>
</trkpt>
<trkpt lat="-27.2744342" lon="151.2900644">
  <ele>377.78</ele>
  <time>2026-09-01T20:02:30Z</time>
  <course>1.32</course>
  <speed>1.7223530416264836</speed>
  <fix>3d</fix>
</trkpt>
<trkpt lat="-27.2744358" lon="151.2900642">
  <ele>380.0</ele>
  <time>2026-09-01T20:02:30Z</time>
  <course>3.92</course>
  <speed>0.63</speed>
  <fix>3d</fix>
</trkpt>
<trkpt lat="-27.2744324" lon="151.2900645">
  <ele>376.88</ele>
  <time>2026-09-01T20:02:30Z</time>
  <course>0.55</course>
  <speed>2.2018401395196703</speed>
  <fix>3d</fix>
</trkpt>
<trkpt lat="-27.2744358" lon="151.2900642">
  <ele>380.0</ele>
  <time>2026-09-01T20:02:30Z</time>
  <course>3.92</course>
  <speed>0.63</speed>
  <fix>3d</fix>
</trkpt>
<trkpt lat="-27.2744305" lon="151.2900646">
  <ele>375.91</ele>
  <time>2026-09-01T20:02:30Z</time>
  <course>359.25</course>
  <speed>2.241428116179504</speed>
  <fix>3d</fix>
</trkpt>
<trkpt lat="-27.2744338" lon="151.2900642">
  <ele>378.51</ele>
  <time>2026-09-01T20:02:30Z</time>
  <course>0.59</course>
  <speed>1.49</speed>
  <fix>3d</fix>
</trkpt>
<trkpt lat="-27.2744285" lon="151.2900646">
  <ele>374.84</ele>
  <time>2026-09-01T20:02:30Z</time>
  <course>358.03</course>
  <speed>2.0815378930012303</speed>
  <fix>3d</fix>
</trkpt>
<trkpt lat="-27.2744338" lon="151.2900642">
  <ele>378.51</ele>
  <time>2026-09-01T20:02:30Z</time>
  <course>0.59</course>
  <speed>1.49</speed>
  <fix>3d</fix>
</trkpt>
<trkpt lat="-27.2744267" lon="151.2900646">
  <ele>373.69</ele>
  <time>2026-09-01T20:02:30Z</time>
  <course>358.32</course>
  <speed>2.0511947737842937</speed>
  <fix>3d</fix>
</trkpt>
<trkpt lat="-27.2744304" lon="151.2900642">
  <ele>376.72</ele>
  <time>2026-09-01T20:02:30Z</time>
  <course>359.76</course>
  <speed>2.15</speed>
  <fix>3d</fix>
</trkpt>
<trkpt lat="-27.2744248" lon="151.2900647">
  <ele>372.44</ele>
  <time>2026-09-01T20:02:31Z</time>
  <course>358.45</course>
  <speed>2.4105186163977246</speed>
  <fix>3d</fix>
</trkpt>
<trkpt lat="-27.2744304" lon="151.2900642">
  <ele>376.72</ele>
  <time>2026-09-01T20:02:31Z</time>
  <course>359.76</course>
  <speed>2.15</speed>
  <fix>3d</fix>
</trkpt>
<trkpt lat="-27.2744223" lon="151.2900646">
  <ele>371.13</ele>
  <time>2026-09-01T20:02:31Z</time>
  <course>358.24</course>
  <speed>3.280015243867016</speed>
  <fix>3d</fix>
</trkpt>
<trkpt lat="-27.2744264" lon="151.2900642">
  <ele>374.57</ele>
  <time>2026-09-01T20:02:31Z</time>
  <course>359.45</course>
  <speed>2.26</speed>
  <fix>3d</fix>
</trkpt>
<trkpt lat="-27.2744188" lon="151.2900645">
  <ele>369.76</ele>
  <time>2026-09-01T20:02:31Z</time>
  <course>358.01</course>
  <speed>4.520398212547209</speed>
  <fix>3d</fix>
</trkpt>
<trkpt lat="-27.2744264" lon="151.2900642">
  <ele>374.57</ele>
  <time>2026-09-01T20:02:31Z</time>
  <course>359.45</course>
  <speed>2.26</speed>
  <fix>3d</fix>
</trkpt>
<trkpt lat="-27.2744141" lon="151.2900644">
  <ele>368.36</ele>
  <time>2026-09-01T20:02:31Z</time>
  <course>357.83</course>
  <speed>5.912165423937324</speed>
  <fix>3d</fix>
</trkpt>
<trkpt lat="-27.2744215" lon="151.2900642">
  <ele>372.09</ele>
  <time>2026-09-01T20:02:31Z</time>
  <course>358.12</course>
  <speed>3.45</speed>
  <fix>3d</fix>
</trkpt>
<trkpt lat="-27.2744081" lon="151.2900641">
  <ele>366.95</ele>
  <time>2026-09-01T20:02:31Z</time>
  <course>357.74</course>
  <speed>7.275012027481466</speed>
  <fix>3d</fix>
</trkpt>
<trkpt lat="-27.2744215" lon="151.2900642">
  <ele>372.09</ele>
  <time>2026-09-01T20:02:31Z</time>
  <course>358.12</course>
  <speed>3.45</speed>
  <fix>3d</fix>
</trkpt>
<trkpt lat="-27.2744011" lon="151.2900636">
  <ele>365.54</ele>
  <time>2026-09-01T20:02:31Z</time>
  <course>357.59</course>
  <speed>8.558890114962336</speed>
  <fix>3d</fix>
</trkpt>
<trkpt lat="-27.2744132" lon="151.2900637">
  <ele>369.4</ele>
  <time>2026-09-01T20:02:31Z</time>
  <course>356.84</course>
  <speed>5.87</speed>
  <fix>3d</fix>
</trkpt>
<trkpt lat="-27.2743928" lon="151.2900631">
  <ele>364.13</ele>
  <time>2026-09-01T20:02:31Z</time>
  <course>357.46</course>
  <speed>9.802254842636973</speed>
  <fix>3d</fix>
</trkpt>
<trkpt lat="-27.2744132" lon="151.2900637">
  <ele>369.4</ele>
  <time>2026-09-01T20:02:31Z</time>
  <course>356.84</course>
  <speed>5.87</speed>
  <fix>3d</fix>
</trkpt>
<trkpt lat="-27.2743836" lon="151.2900624">
  <ele>362.75</ele>
  <time>2026-09-01T20:02:31Z</time>
  <course>357.29</course>
  <speed>11.055225009017228</speed>
  <fix>3d</fix>
</trkpt>
<trkpt lat="-27.2744003" lon="151.2900629">
  <ele>366.64</ele>
  <time>2026-09-01T20:02:31Z</time>
  <course>356.24</course>
  <speed>8.53</speed>
  <fix>3d</fix>
</trkpt>
<trkpt lat="-27.2743731" lon="151.2900616">
  <ele>361.41</ele>
  <time>2026-09-01T20:02:31Z</time>
  <course>357.16</course>
  <speed>12.307176768048796</speed>
  <fix>3d</fix>
</trkpt>
<trkpt lat="-27.2744003" lon="151.2900629">
  <ele>366.64</ele>
  <time>2026-09-01T20:02:31Z</time>
  <course>356.24</course>
  <speed>8.53</speed>
  <fix>3d</fix>
</trkpt>
<trkpt lat="-27.2743617" lon="151.2900607">
  <ele>360.14</ele>
  <time>2026-09-01T20:02:31Z</time>
  <course>357.03</course>
  <speed>13.509200568501454</speed>
  <fix>3d</fix>
</trkpt>
<trkpt lat="-27.2743827" lon="151.2900615">
  <ele>363.92</ele>
  <time>2026-09-01T20:02:31Z</time>
  <course>356.2</course>
  <speed>11.06</speed>
  <fix>3d</fix>
</trkpt>
<trkpt lat="-26.9720619" lon="149.6127921">
  <ele>339.29</ele>
  <time>2026-09-01T20:02:31Z</time>
  <course>310.27</course>
  <speed>0.0</speed>
  <fix>3d</fix>
</trkpt>
<trkpt lat="-26.9720619" lon="149.6127921">
  <ele>339.29</ele>
  <time>2026-09-01T20:02:31Z</time>
  <course>310.27</course>
  <speed>0.0</speed>
  <fix>3d</fix>
</trkpt>
<trkpt lat="-27.274439" lon="151.290064">
  <ele>-0.01</ele>
  <time>2026-09-01T20:02:31Z</time>
  <course>0.22</course>
  <speed>0.0</speed>
  <fix>3d</fix>
</trkpt>
<trkpt lat="-27.274439" lon="151.290064">
  <ele>343.1</ele>
  <time>2026-09-01T20:02:31Z</time>
  <course>294.58</course>
  <speed>0.0</speed>
  <fix>3d</fix>
</trkpt>
<trkpt lat="-27.274439" lon="151.290064">
  <ele>0.02</ele>
  <time>2026-09-01T20:02:31Z</time>
  <course>1.2</course>
  <speed>0.0</speed>
  <fix>3d</fix>
</trkpt>
<trkpt lat="-27.274439" lon="151.290064">
  <ele>343.1</ele>
  <time>2026-09-01T20:02:31Z</time>
  <course>294.58</course>
  <speed>0.0</speed>
  <fix>3d</fix>
</trkpt>
<trkpt lat="-27.274439" lon="151.290064">
  <ele>-0.08</ele>
  <time>2026-09-01T20:02:31Z</time>
  <course>2.1</course>
  <speed>0.0</speed>
  <fix>3d</fix>
</trkpt>
<trkpt lat="-27.274439" lon="151.290064">
  <ele>343.1</ele>
  <time>2026-09-01T20:02:31Z</time>
  <course>273.33</course>
  <speed>0.0</speed>
  <fix>3d</fix>
</trkpt>
<trkpt lat="-27.274439" lon="151.290064">
  <ele>0.22</ele>
  <time>2026-09-01T20:02:31Z</time>
  <course>2.92</course>
  <speed>0.0</speed>
  <fix>3d</fix>
</trkpt>
<trkpt lat="-27.274439" lon="151.290064">
  <ele>343.1</ele>
  <time>2026-09-01T20:02:31Z</time>
  <course>273.33</course>
  <speed>0.0</speed>
  <fix>3d</fix>
</trkpt>
<trkpt lat="-27.274439" lon="151.290064">
  <ele>0.09</ele>
  <time>2026-09-01T20:02:31Z</time>
  <course>3.66</course>
  <speed>0.0</speed>
  <fix>3d</fix>
</trkpt>
<trkpt lat="-27.274439" lon="151.290064">
  <ele>343.1</ele>
  <time>2026-09-01T20:02:31Z</time>
  <course>270.44</course>
  <speed>0.0</speed>
  <fix>3d</fix>
</trkpt>
<trkpt lat="-27.274439" lon="151.290064">
  <ele>0.08</ele>
  <time>2026-09-01T20:02:31Z</time>
  <course>4.34</course>
  <speed>0.0</speed>
  <fix>3d</fix>
</trkpt>
<trkpt lat="-27.274439" lon="151.290064">
  <ele>343.1</ele>
  <time>2026-09-01T20:02:31Z</time>
  <course>270.44</course>
  <speed>0.0</speed>
  <fix>3d</fix>
</trkpt>
<trkpt lat="-27.274439" lon="151.290064">
  <ele>0.09</ele>
  <time>2026-09-01T20:02:31Z</time>
  <course>4.95</course>
  <speed>0.0</speed>
  <fix>3d</fix>
</trkpt>
<trkpt lat="-27.274439" lon="151.290064">
  <ele>343.1</ele>
  <time>2026-09-01T20:02:31Z</time>
  <course>270.05</course>
  <speed>0.0</speed>
  <fix>3d</fix>
</trkpt>
<trkpt lat="-27.274439" lon="151.290064">
  <ele>-0.05</ele>
  <time>2026-09-01T20:02:31Z</time>
  <course>5.5</course>
  <speed>0.0</speed>
  <fix>3d</fix>
</trkpt>
<trkpt lat="-27.274439" lon="151.290064">
  <ele>343.1</ele>
  <time>2026-09-01T20:02:31Z</time>
  <course>270.05</course>
  <speed>0.0</speed>
  <fix>3d</fix>
</trkpt>
<trkpt lat="-27.274439" lon="151.290064">
  <ele>343.06</ele>
  <time>2026-09-01T20:02:31Z</time>
  <course>5.98</course>
  <speed>0.0</speed>
  <fix>3d</fix>
</trkpt>
<trkpt lat="-27.274439" lon="151.290064">
  <ele>343.1</ele>
  <time>2026-09-01T20:02:31Z</time>
  <course>270.0</course>
  <speed>0.0</speed>
  <fix>3d</fix>
</trkpt>
<trkpt lat="-27.274439" lon="151.290064">
  <ele>343.18</ele>
  <time>2026-09-01T20:02:31Z</time>
  <course>6.44</course>
  <speed>0.0</speed>
  <fix>3d</fix>
</trkpt>
<trkpt lat="-27.274439" lon="151.290064">
  <ele>343.1</ele>
  <time>2026-09-01T20:02:31Z</time>
  <course>270.0</course>
  <speed>0.0</speed>
  <fix>3d</fix>
</trkpt>
<trkpt lat="-27.274439" lon="151.290064">
  <ele>342.91</ele>
  <time>2026-09-01T20:02:31Z</time>
  <course>6.85</course>
  <speed>0.0</speed>
  <fix>3d</fix>
</trkpt>
<trkpt lat="-27.274439" lon="151.290064">
  <ele>343.1</ele>
  <time>2026-09-01T20:02:31Z</time>
  <course>270.0</course>
  <speed>0.0</speed>
  <fix>3d</fix>
</trkpt>
<trkpt lat="-27.274439" lon="151.290064">
  <ele>343.06</ele>
  <time>2026-09-01T20:02:31Z</time>
  <course>7.22</course>
  <speed>0.0</speed>
  <fix>3d</fix>
</trkpt>
<trkpt lat="-27.274439" lon="151.290064">
  <ele>343.1</ele>
  <time>2026-09-01T20:02:31Z</time>
  <course>270.0</course>
  <speed>0.0</speed>
  <fix>3d</fix>
</trkpt>
<trkpt lat="-27.274439" lon="151.290064">
  <ele>343.13</ele>
  <time>2026-09-01T20:02:31Z</time>
  <course>7.56</course>
  <speed>0.0</speed>
  <fix>3d</fix>
</trkpt>
<trkpt lat="-27.274439" lon="151.290064">
  <ele>343.1</ele>
  <time>2026-09-01T20:02:31Z</time>
  <course>270.0</course>
  <speed>0.0</speed>
  <fix>3d</fix>
</trkpt>
<trkpt lat="-27.274439" lon="151.290064">
  <ele>343.04</ele>
  <time>2026-09-01T20:02:31Z</time>
  <course>7.87</course>
  <speed>0.0</speed>
  <fix>3d</fix>
</trkpt>
<trkpt lat="-27.274439" lon="151.290064">
  <ele>343.1</ele>
  <time>2026-09-01T20:02:31Z</time>
  <course>270.0</course>
  <speed>0.0</speed>
  <fix>3d</fix>
</trkpt>
<trkpt lat="-27.274439" lon="151.290064">
  <ele>342.88</ele>
  <time>2026-09-01T20:02:31Z</time>
  <course>8.14</course>
  <speed>0.0</speed>
  <fix>3d</fix>
</trkpt>
<trkpt lat="-27.274439" lon="151.290064">
  <ele>343.1</ele>
  <time>2026-09-01T20:02:31Z</time>
  <course>270.0</course>
  <speed>0.0</speed>
  <fix>3d</fix>
</trkpt>
<trkpt lat="-27.274439" lon="151.290064">
  <ele>343.02</ele>
  <time>2026-09-01T20:02:31Z</time>
  <course>8.39</course>
  <speed>0.0</speed>
  <fix>3d</fix>
</trkpt>
<trkpt lat="-27.274439" lon="151.290064">
  <ele>343.1</ele>
  <time>2026-09-01T20:02:31Z</time>
  <course>270.0</course>
  <speed>0.0</speed>
  <fix>3d</fix>
</trkpt>
<trkpt lat="-27.274439" lon="151.290064">
  <ele>343.23</ele>
  <time>2026-09-01T20:02:31Z</time>
  <course>8.63</course>
  <speed>0.0</speed>
  <fix>3d</fix>
</trkpt>
<trkpt lat="-27.274439" lon="151.290064">
  <ele>343.1</ele>
  <time>2026-09-01T20:02:31Z</time>
  <course>270.0</course>
  <speed>0.0</speed>
  <fix>3d</fix>
</trkpt>
<trkpt lat="-27.274439" lon="151.290064">
  <ele>343.17</ele>
  <time>2026-09-01T20:02:31Z</time>
  <course>8.83</course>
  <speed>0.0</speed>
  <fix>3d</fix>
</trkpt>
<trkpt lat="-27.274439" lon="151.290064">
  <ele>343.1</ele>
  <time>2026-09-01T20:02:31Z</time>
  <course>270.0</course>
  <speed>0.0</speed>
  <fix>3d</fix>
</trkpt>
<trkpt lat="-27.274439" lon="151.290064">
  <ele>343.04</ele>
  <time>2026-09-01T20:02:31Z</time>
  <course>9.01</course>
  <speed>0.0</speed>
  <fix>3d</fix>
</trkpt>
<trkpt lat="-27.274439" lon="151.290064">
  <ele>343.1</ele>
  <time>2026-09-01T20:02:31Z</time>
  <course>270.0</course>
  <speed>0.0</speed>
  <fix>3d</fix>
</trkpt>
<trkpt lat="-27.274439" lon="151.290064">
  <ele>342.89</ele>
  <time>2026-09-01T20:02:31Z</time>
  <course>9.18</course>
  <speed>0.0</speed>
  <fix>3d</fix>
</trkpt>
<trkpt lat="-27.274439" lon="151.290064">
  <ele>343.1</ele>
  <time>2026-09-01T20:02:31Z</time>
  <course>270.0</course>
  <speed>0.0</speed>
  <fix>3d</fix>
</trkpt>
<trkpt lat="-27.274439" lon="151.290064">
  <ele>343.08</ele>
  <time>2026-09-01T20:02:31Z</time>
  <course>9.33</course>
  <speed>0.0</speed>
  <fix>3d</fix>
</trkpt>
<trkpt lat="-27.274439" lon="151.290064">
  <ele>343.1</ele>
  <time>2026-09-01T20:02:31Z</time>
  <course>270.0</course>
  <speed>0.0</speed>
  <fix>3d</fix>
</trkpt>
<trkpt lat="-27.274439" lon="151.290064">
  <ele>343.19</ele>
  <time>2026-09-01T20:02:31Z</time>
  <course>9.47</course>
  <speed>0.0</speed>
  <fix>3d</fix>
</trkpt>
<trkpt lat="-27.274439" lon="151.290064">
  <ele>343.1</ele>
  <time>2026-09-01T20:02:31Z</time>
  <course>270.0</course>
  <speed>0.0</speed>
  <fix>3d</fix>
</trkpt>
<trkpt lat="-27.274439" lon="151.290064">
  <ele>342.88</ele>
  <time>2026-09-01T20:02:31Z</time>
  <course>9.59</course>
  <speed>0.0</speed>
  <fix>3d</fix>
</trkpt>
<trkpt lat="-27.274439" lon="151.290064">
  <ele>343.1</ele>
  <time>2026-09-01T20:02:31Z</time>
  <course>270.0</course>
  <speed>0.0</speed>
  <fix>3d</fix>
</trkpt>
<trkpt lat="-27.274439" lon="151.290064">
  <ele>343.17</ele>
  <time>2026-09-01T20:02:31Z</time>
  <course>9.7</course>
  <speed>0.0</speed>
  <fix>3d</fix>
</trkpt>
<trkpt lat="-27.274439" lon="151.290064">
  <ele>343.1</ele>
  <time>2026-09-01T20:02:31Z</time>
  <course>270.0</course>
  <speed>0.0</speed>
  <fix>3d</fix>
</trkpt>
<trkpt lat="-27.274439" lon="151.290064">
  <ele>342.89</ele>
  <time>2026-09-01T20:02:31Z</time>
  <course>9.8</course>
  <speed>0.0</speed>
  <fix>3d</fix>
</trkpt>
<trkpt lat="-27.274439" lon="151.290064">
  <ele>343.1</ele>
  <time>2026-09-01T20:02:31Z</time>
  <course>270.0</course>
  <speed>0.0</speed>
  <fix>3d</fix>
</trkpt>
<trkpt lat="-27.274439" lon="151.290064">
  <ele>342.99</ele>
  <time>2026-09-01T20:02:31Z</time>
  <course>9.9</course>
  <speed>0.0</speed>
  <fix>3d</fix>
</trkpt>
<trkpt lat="-27.274439" lon="151.290064">
  <ele>343.1</ele>
  <time>2026-09-01T20:02:31Z</time>
  <course>270.0</course>
  <speed>0.0</speed>
  <fix>3d</fix>
</trkpt>
<trkpt lat="-27.274439" lon="151.290064">
  <ele>342.87</ele>
  <time>2026-09-01T20:02:31Z</time>
  <course>9.98</course>
  <speed>0.0</speed>
  <fix>3d</fix>
</trkpt>
<trkpt lat="-27.274439" lon="151.290064">
  <ele>343.1</ele>
  <time>2026-09-01T20:02:31Z</time>
  <course>270.0</course>
  <speed>0.0</speed>
  <fix>3d</fix>
</trkpt>
<trkpt lat="-27.274439" lon="151.290064">
  <ele>343.09</ele>
  <time>2026-09-01T20:02:31Z</time>
  <course>10.06</course>
  <speed>0.0</speed>
  <fix>3d</fix>
</trkpt>
<trkpt lat="-27.274439" lon="151.290064">
  <ele>343.1</ele>
  <time>2026-09-01T20:02:31Z</time>
  <course>270.0</course>
  <speed>0.0</speed>
  <fix>3d</fix>
</trkpt>
<trkpt lat="-27.274439" lon="151.290064">
  <ele>343.18</ele>
  <time>2026-09-01T20:02:31Z</time>
  <course>10.13</course>
  <speed>0.0</speed>
  <fix>3d</fix>
</trkpt>
<trkpt lat="-27.274439" lon="151.290064">
  <ele>343.1</ele>
  <time>2026-09-01T20:02:31Z</time>
  <course>270.0</course>
  <speed>0.0</speed>
  <fix>3d</fix>
</trkpt>
<trkpt lat="-27.274439" lon="151.290064">
  <ele>343.05</ele>
  <time>2026-09-01T20:02:31Z</time>
  <course>10.2</course>
  <speed>0.0</speed>
  <fix>3d</fix>
</trkpt>
<trkpt lat="-27.274439" lon="151.290064">
  <ele>343.1</ele>
  <time>2026-09-01T20:02:31Z</time>
  <course>270.0</course>
  <speed>0.0</speed>
  <fix>3d</fix>
</trkpt>
<trkpt lat="-27.274439" lon="151.290064">
  <ele>342.96</ele>
  <time>2026-09-01T20:02:31Z</time>
  <course>10.25</course>
  <speed>0.0</speed>
  <fix>3d</fix>
</trkpt>
<trkpt lat="-27.274439" lon="151.290064">
  <ele>343.1</ele>
  <time>2026-09-01T20:02:31Z</time>
  <course>270.0</course>
  <speed>0.0</speed>
  <fix>3d</fix>
</trkpt>
<trkpt lat="-27.274439" lon="151.290064">
  <ele>343.1</ele>
  <time>2026-09-01T20:02:31Z</time>
  <course>10.31</course>
  <speed>0.0</speed>
  <fix>3d</fix>
</trkpt>
<trkpt lat="-27.274439" lon="151.290064">
  <ele>343.1</ele>
  <time>2026-09-01T20:02:31Z</time>
  <course>270.0</course>
  <speed>0.0</speed>
  <fix>3d</fix>
</trkpt>
<trkpt lat="-27.274439" lon="151.290064">
  <ele>343.22</ele>
  <time>2026-09-01T20:02:31Z</time>
  <course>10.35</course>
  <speed>0.0</speed>
  <fix>3d</fix>
</trkpt>
<trkpt lat="-27.274439" lon="151.290064">
  <ele>343.1</ele>
  <time>2026-09-01T20:02:31Z</time>
  <course>270.0</course>
  <speed>0.0</speed>
  <fix>3d</fix>
</trkpt>
<trkpt lat="-27.274439" lon="151.290064">
  <ele>343.17</ele>
  <time>2026-09-01T20:02:31Z</time>
  <course>10.4</course>
  <speed>0.0</speed>
  <fix>3d</fix>
</trkpt>
<trkpt lat="-27.274439" lon="151.290064">
  <ele>343.1</ele>
  <time>2026-09-01T20:02:31Z</time>
  <course>270.0</course>
  <speed>0.0</speed>
  <fix>3d</fix>
</trkpt>
<trkpt lat="-27.274439" lon="151.290064">
  <ele>343.08</ele>
  <time>2026-09-01T20:02:31Z</time>
  <course>10.44</course>
  <speed>0.0</speed>
  <fix>3d</fix>
</trkpt>
<trkpt lat="-27.274439" lon="151.290064">
  <ele>343.1</ele>
  <time>2026-09-01T20:02:31Z</time>
  <course>270.0</course>
  <speed>0.0</speed>
  <fix>3d</fix>
</trkpt>
<trkpt lat="-27.274439" lon="151.290064">
  <ele>343.04</ele>
  <time>2026-09-01T20:02:31Z</time>
  <course>10.47</course>
  <speed>0.0</speed>
  <fix>3d</fix>
</trkpt>
<trkpt lat="-27.274439" lon="151.290064">
  <ele>343.1</ele>
  <time>2026-09-01T20:02:31Z</time>
  <course>270.0</course>
  <speed>0.0</speed>
  <fix>3d</fix>
</trkpt>
<trkpt lat="-27.274439" lon="151.290064">
  <ele>343.18</ele>
  <time>2026-09-01T20:02:31Z</time>
  <course>10.5</course>
  <speed>0.0</speed>
  <fix>3d</fix>
</trkpt>
<trkpt lat="-27.274439" lon="151.290064">
  <ele>343.1</ele>
  <time>2026-09-01T20:02:31Z</time>
  <course>270.0</course>
  <speed>0.0</speed>
  <fix>3d</fix>
</trkpt>
<trkpt lat="-27.274439" lon="151.290064">
  <ele>343.12</ele>
  <time>2026-09-01T20:02:31Z</time>
  <course>10.53</course>
  <speed>0.0</speed>
  <fix>3d</fix>
</trkpt>
<trkpt lat="-27.274439" lon="151.290064">
  <ele>343.1</ele>
  <time>2026-09-01T20:02:31Z</time>
  <course>270.0</course>
  <speed>0.0</speed>
  <fix>3d</fix>
</trkpt>
<trkpt lat="-27.274439" lon="151.290064">
  <ele>343.04</ele>
  <time>2026-09-01T20:02:31Z</time>
  <course>10.56</course>
  <speed>0.0</speed>
  <fix>3d</fix>
</trkpt>
<trkpt lat="-27.274439" lon="151.290064">
  <ele>343.1</ele>
  <time>2026-09-01T20:02:31Z</time>
  <course>270.0</course>
  <speed>0.0</speed>
  <fix>3d</fix>
</trkpt>
<trkpt lat="-27.274439" lon="151.290064">
  <ele>343.07</ele>
  <time>2026-09-01T20:02:31Z</time>
  <course>10.58</course>
  <speed>0.0</speed>
  <fix>3d</fix>
</trkpt>
<trkpt lat="-27.274439" lon="151.290064">
  <ele>343.1</ele>
  <time>2026-09-01T20:02:31Z</time>
  <course>270.0</course>
  <speed>0.0</speed>
  <fix>3d</fix>
</trkpt>
<trkpt lat="-27.274439" lon="151.290064">
  <ele>343.04</ele>
  <time>2026-09-01T20:02:31Z</time>
  <course>10.6</course>
  <speed>0.0</speed>
  <fix>3d</fix>
</trkpt>
<trkpt lat="-27.274439" lon="151.290064">
  <ele>343.1</ele>
  <time>2026-09-01T20:02:31Z</time>
  <course>270.0</course>
  <speed>0.0</speed>
  <fix>3d</fix>
</trkpt>
<trkpt lat="-27.274439" lon="151.290064">
  <ele>343.01</ele>
  <time>2026-09-01T20:02:31Z</time>
  <course>10.62</course>
  <speed>0.0</speed>
  <fix>3d</fix>
</trkpt>
<trkpt lat="-27.274439" lon="151.290064">
  <ele>343.1</ele>
  <time>2026-09-01T20:02:31Z</time>
  <course>270.0</course>
  <speed>0.0</speed>
  <fix>3d</fix>
</trkpt>
<trkpt lat="-27.274439" lon="151.290064">
  <ele>343.2</ele>
  <time>2026-09-01T20:02:31Z</time>
  <course>10.64</course>
  <speed>0.0</speed>
  <fix>3d</fix>
</trkpt>
<trkpt lat="-27.274439" lon="151.290064">
  <ele>343.1</ele>
  <time>2026-09-01T20:02:31Z</time>
  <course>270.0</course>
  <speed>0.0</speed>
  <fix>3d</fix>
</trkpt>
<trkpt lat="-27.274439" lon="151.290064">
  <ele>343.24</ele>
  <time>2026-09-01T20:02:31Z</time>
  <course>10.65</course>
  <speed>0.0</speed>
  <fix>3d</fix>
</trkpt>
<trkpt lat="-27.274439" lon="151.290064">
  <ele>343.1</ele>
  <time>2026-09-01T20:02:31Z</time>
  <course>270.0</course>
  <speed>0.0</speed>
  <fix>3d</fix>
</trkpt>
<trkpt lat="-27.274439" lon="151.290064">
  <ele>342.88</ele>
  <time>2026-09-01T20:02:31Z</time>
  <course>10.67</course>
  <speed>0.0</speed>
  <fix>3d</fix>
</trkpt>
<trkpt lat="-27.274439" lon="151.290064">
  <ele>343.1</ele>
  <time>2026-09-01T20:02:31Z</time>
  <course>270.0</course>
  <speed>0.0</speed>
  <fix>3d</fix>
</trkpt>
<trkpt lat="-27.274439" lon="151.290064">
  <ele>343.21</ele>
  <time>2026-09-01T20:02:31Z</time>
  <course>10.68</course>
  <speed>0.0</speed>
  <fix>3d</fix>
</trkpt>
<trkpt lat="-27.274439" lon="151.290064">
  <ele>343.1</ele>
  <time>2026-09-01T20:02:31Z</time>
  <course>270.0</course>
  <speed>0.0</speed>
  <fix>3d</fix>
</trkpt>
<trkpt lat="-27.274439" lon="151.290064">
  <ele>343.02</ele>
  <time>2026-09-01T20:02:31Z</time>
  <course>10.69</course>
  <speed>0.0</speed>
  <fix>3d</fix>
</trkpt>
<trkpt lat="-27.274439" lon="151.290064">
  <ele>343.1</ele>
  <time>2026-09-01T20:02:31Z</time>
  <course>270.0</course>
  <speed>0.0</speed>
  <fix>3d</fix>
</trkpt>
<trkpt lat="-27.274439" lon="151.290064">
  <ele>342.93</ele>
  <time>2026-09-01T20:02:31Z</time>
  <course>10.7</course>
  <speed>0.0</speed>
  <fix>3d</fix>
</trkpt>
<trkpt lat="-27.274439" lon="151.290064">
  <ele>343.1</ele>
  <time>2026-09-01T20:02:31Z</time>
  <course>270.0</course>
  <speed>0.0</speed>
  <fix>3d</fix>
</trkpt>
<trkpt lat="-27.274439" lon="151.290064">
  <ele>343.07</ele>
  <time>2026-09-01T20:02:31Z</time>
  <course>10.71</course>
  <speed>0.0</speed>
  <fix>3d</fix>
</trkpt>
<trkpt lat="-27.274439" lon="151.290064">
  <ele>343.1</ele>
  <time>2026-09-01T20:02:31Z</time>
  <course>270.0</course>
  <speed>0.0</speed>
  <fix>3d</fix>
</trkpt>
<trkpt lat="-27.274439" lon="151.290064">
  <ele>342.94</ele>
  <time>2026-09-01T20:02:31Z</time>
  <course>10.72</course>
  <speed>0.0</speed>
  <fix>3d</fix>
</trkpt>
<trkpt lat="-27.274439" lon="151.290064">
  <ele>343.1</ele>
  <time>2026-09-01T20:02:31Z</time>
  <course>270.0</course>
  <speed>0.0</speed>
  <fix>3d</fix>
</trkpt>
<trkpt lat="-27.274439" lon="151.290064">
  <ele>343.11</ele>
  <time>2026-09-01T20:02:31Z</time>
  <course>10.73</course>
  <speed>0.0</speed>
  <fix>3d</fix>
</trkpt>
<trkpt lat="-27.274439" lon="151.290064">
  <ele>343.1</ele>
  <time>2026-09-01T20:02:31Z</time>
  <course>270.0</course>
  <speed>0.0</speed>
  <fix>3d</fix>
</trkpt>
<trkpt lat="-27.274439" lon="151.290064">
  <ele>343.24</ele>
  <time>2026-09-01T20:02:31Z</time>
  <course>10.73</course>
  <speed>0.0</speed>
  <fix>3d</fix>
</trkpt>
<trkpt lat="-27.274439" lon="151.290064">
  <ele>343.1</ele>
  <time>2026-09-01T20:02:31Z</time>
  <course>270.0</course>
  <speed>0.0</speed>
  <fix>3d</fix>
</trkpt>
<trkpt lat="-27.274439" lon="151.290064">
  <ele>343.18</ele>
  <time>2026-09-01T20:02:31Z</time>
  <course>10.74</course>
  <speed>0.0</speed>
  <fix>3d</fix>
</trkpt>
<trkpt lat="-27.274439" lon="151.290064">
  <ele>343.1</ele>
  <time>2026-09-01T20:02:31Z</time>
  <course>270.0</course>
  <speed>0.0</speed>
  <fix>3d</fix>
</trkpt>
<trkpt lat="-27.274439" lon="151.290064">
  <ele>342.89</ele>
  <time>2026-09-01T20:02:31Z</time>
  <course>10.75</course>
  <speed>0.0</speed>
  <fix>3d</fix>
</trkpt>
<trkpt lat="-27.274439" lon="151.290064">
  <ele>343.1</ele>
  <time>2026-09-01T20:02:31Z</time>
  <course>270.0</course>
  <speed>0.0</speed>
  <fix>3d</fix>
</trkpt>
<trkpt lat="-27.274439" lon="151.290064">
  <ele>343.23</ele>
  <time>2026-09-01T20:02:31Z</time>
  <course>10.75</course>
  <speed>0.0</speed>
  <fix>3d</fix>
</trkpt>
<trkpt lat="-27.274439" lon="151.290064">
  <ele>343.1</ele>
  <time>2026-09-01T20:02:31Z</time>
  <course>270.0</course>
  <speed>0.0</speed>
  <fix>3d</fix>
</trkpt>
<trkpt lat="-27.274439" lon="151.290064">
  <ele>343.23</ele>
  <time>2026-09-01T20:02:31Z</time>
  <course>10.76</course>
  <speed>0.0</speed>
  <fix>3d</fix>
</trkpt>
<trkpt lat="-27.274439" lon="151.290064">
  <ele>343.1</ele>
  <time>2026-09-01T20:02:31Z</time>
  <course>270.0</course>
  <speed>0.0</speed>
  <fix>3d</fix>
</trkpt>
<trkpt lat="-27.274439" lon="151.290064">
  <ele>342.99</ele>
  <time>2026-09-01T20:02:31Z</time>
  <course>10.76</course>
  <speed>0.0</speed>
  <fix>3d</fix>
</trkpt>
<trkpt lat="-27.274439" lon="151.290064">
  <ele>343.1</ele>
  <time>2026-09-01T20:02:31Z</time>
  <course>270.0</course>
  <speed>0.0</speed>
  <fix>3d</fix>
</trkpt>
<trkpt lat="-27.274439" lon="151.290064">
  <ele>343.13</ele>
  <time>2026-09-01T20:02:31Z</time>
  <course>10.76</course>
  <speed>0.0</speed>
  <fix>3d</fix>
</trkpt>
<trkpt lat="-27.274439" lon="151.290064">
  <ele>343.1</ele>
  <time>2026-09-01T20:02:31Z</time>
  <course>270.0</course>
  <speed>0.0</speed>
  <fix>3d</fix>
</trkpt>
<trkpt lat="-27.274439" lon="151.290064">
  <ele>343.07</ele>
  <time>2026-09-01T20:02:31Z</time>
  <course>10.77</course>
  <speed>0.0</speed>
  <fix>3d</fix>
</trkpt>
<trkpt lat="-27.274439" lon="151.290064">
  <ele>343.1</ele>
  <time>2026-09-01T20:02:31Z</time>
  <course>270.0</course>
  <speed>0.0</speed>
  <fix>3d</fix>
</trkpt>
<trkpt lat="-27.274439" lon="151.290064">
  <ele>343.19</ele>
  <time>2026-09-01T20:02:31Z</time>
  <course>10.77</course>
  <speed>0.0</speed>
  <fix>3d</fix>
</trkpt>
<trkpt lat="-27.274439" lon="151.290064">
  <ele>343.1</ele>
  <time>2026-09-01T20:02:31Z</time>
  <course>270.0</course>
  <speed>0.0</speed>
  <fix>3d</fix>
</trkpt>
<trkpt lat="-27.274439" lon="151.290064">
  <ele>342.93</ele>
  <time>2026-09-01T20:02:31Z</time>
  <course>10.77</course>
  <speed>0.0</speed>
  <fix>3d</fix>
</trkpt>
<trkpt lat="-27.274439" lon="151.290064">
  <ele>343.1</ele>
  <time>2026-09-01T20:02:31Z</time>
  <course>270.0</course>
  <speed>0.0</speed>
  <fix>3d</fix>
</trkpt>
<trkpt lat="-27.274439" lon="151.290064">
  <ele>343.19</ele>
  <time>2026-09-01T20:02:31Z</time>
  <course>10.78</course>
  <speed>0.0</speed>
  <fix>3d</fix>
</trkpt>
<trkpt lat="-27.274439" lon="151.290064">
  <ele>343.1</ele>
  <time>2026-09-01T20:02:31Z</time>
  <course>270.0</course>
  <speed>0.0</speed>
  <fix>3d</fix>
</trkpt>
<trkpt lat="-27.274439" lon="151.290064">
  <ele>343.1</ele>
  <time>2026-09-01T20:02:31Z</time>
  <course>10.78</course>
  <speed>0.0</speed>
  <fix>3d</fix>
</trkpt>
<trkpt lat="-27.274439" lon="151.290064">
  <ele>343.1</ele>
  <time>2026-09-01T20:02:31Z</time>
  <course>270.0</course>
  <speed>0.0</speed>
  <fix>3d</fix>
</trkpt>
<trkpt lat="-27.274439" lon="151.290064">
  <ele>343.01</ele>
  <time>2026-09-01T20:02:31Z</time>
  <course>10.78</course>
  <speed>0.0</speed>
  <fix>3d</fix>
</trkpt>
<trkpt lat="-27.274439" lon="151.290064">
  <ele>343.1</ele>
  <time>2026-09-01T20:02:31Z</time>
  <course>270.0</course>
  <speed>0.0</speed>
  <fix>3d</fix>
</trkpt>
<trkpt lat="-27.274439" lon="151.290064">
  <ele>343.11</ele>
  <time>2026-09-01T20:02:31Z</time>
  <course>10.78</course>
  <speed>0.0</speed>
  <fix>3d</fix>
</trkpt>
<trkpt lat="-27.274439" lon="151.290064">
  <ele>343.1</ele>
  <time>2026-09-01T20:02:31Z</time>
  <course>270.0</course>
  <speed>0.0</speed>
  <fix>3d</fix>
</trkpt>
<trkpt lat="-27.274439" lon="151.290064">
  <ele>342.96</ele>
  <time>2026-09-01T20:02:31Z</time>
  <course>10.78</course>
  <speed>0.0</speed>
  <fix>3d</fix>
</trkpt>
<trkpt lat="-27.274439" lon="151.290064">
  <ele>343.1</ele>
  <time>2026-09-01T20:02:31Z</time>
  <course>270.0</course>
  <speed>0.0</speed>
  <fix>3d</fix>
</trkpt>
<trkpt lat="-27.274439" lon="151.290064">
  <ele>343.19</ele>
  <time>2026-09-01T20:02:31Z</time>
  <course>10.79</course>
  <speed>0.0</speed>
  <fix>3d</fix>
</trkpt>
<trkpt lat="-27.274439" lon="151.290064">
  <ele>343.1</ele>
  <time>2026-09-01T20:02:31Z</time>
  <course>270.0</course>
  <speed>0.0</speed>
  <fix>3d</fix>
</trkpt>
<trkpt lat="-27.274439" lon="151.290064">
  <ele>343.0</ele>
  <time>2026-09-01T20:02:31Z</time>
  <course>10.79</course>
  <speed>0.0</speed>
  <fix>3d</fix>
</trkpt>
<trkpt lat="-27.274439" lon="151.290064">
  <ele>343.1</ele>
  <time>2026-09-01T20:02:31Z</time>
  <course>270.0</course>
  <speed>0.0</speed>
  <fix>3d</fix>
</trkpt>
<trkpt lat="-27.274439" lon="151.290064">
  <ele>343.2</ele>
  <time>2026-09-01T20:02:31Z</time>
  <course>10.79</course>
  <speed>0.0</speed>
  <fix>3d</fix>
</trkpt>
<trkpt lat="-27.274439" lon="151.290064">
  <ele>343.1</ele>
  <time>2026-09-01T20:02:31Z</time>
  <course>270.0</course>
  <speed>0.0</speed>
  <fix>3d</fix>
</trkpt>
<trkpt lat="-27.274439" lon="151.290064">
  <ele>343.2</ele>
  <time>2026-09-01T20:02:31Z</time>
  <course>10.79</course>
  <speed>0.0</speed>
  <fix>3d</fix>
</trkpt>
<trkpt lat="-27.274439" lon="151.290064">
  <ele>343.1</ele>
  <time>2026-09-01T20:02:31Z</time>
  <course>270.0</course>
  <speed>0.0</speed>
  <fix>3d</fix>
</trkpt>
<trkpt lat="-27.274439" lon="151.290064">
  <ele>343.13</ele>
  <time>2026-09-01T20:02:31Z</time>
  <course>10.79</course>
  <speed>0.0</speed>
  <fix>3d</fix>
</trkpt>
<trkpt lat="-27.274439" lon="151.290064">
  <ele>343.1</ele>
  <time>2026-09-01T20:02:31Z</time>
  <course>270.0</course>
  <speed>0.0</speed>
  <fix>3d</fix>
</trkpt>
<trkpt lat="-27.274439" lon="151.290064">
  <ele>343.1</ele>
  <time>2026-09-01T20:02:31Z</time>
  <course>10.79</course>
  <speed>0.0</speed>
  <fix>3d</fix>
</trkpt>
<trkpt lat="-27.274439" lon="151.290064">
  <ele>343.1</ele>
  <time>2026-09-01T20:02:31Z</time>
  <course>270.0</course>
  <speed>0.0</speed>
  <fix>3d</fix>
</trkpt>
<trkpt lat="-27.274439" lon="151.290064">
  <ele>343.12</ele>
  <time>2026-09-01T20:02:31Z</time>
  <course>10.79</course>
  <speed>0.0</speed>
  <fix>3d</fix>
</trkpt>
<trkpt lat="-27.274439" lon="151.290064">
  <ele>343.1</ele>
  <time>2026-09-01T20:02:31Z</time>
  <course>270.0</course>
  <speed>0.0</speed>
  <fix>3d</fix>
</trkpt>
<trkpt lat="-27.274439" lon="151.290064">
  <ele>342.94</ele>
  <time>2026-09-01T20:02:31Z</time>
  <course>10.79</course>
  <speed>0.0</speed>
  <fix>3d</fix>
</trkpt>
<trkpt lat="-27.274439" lon="151.290064">
  <ele>343.1</ele>
  <time>2026-09-01T20:02:31Z</time>
  <course>270.0</course>
  <speed>0.0</speed>
  <fix>3d</fix>
</trkpt>
<trkpt lat="-27.274439" lon="151.290064">
  <ele>343.25</ele>
  <time>2026-09-01T20:02:31Z</time>
  <course>10.79</course>
  <speed>0.0</speed>
  <fix>3d</fix>
</trkpt>
<trkpt lat="-27.274439" lon="151.290064">
  <ele>343.1</ele>
  <time>2026-09-01T20:02:31Z</time>
  <course>270.0</course>
  <speed>0.0</speed>
  <fix>3d</fix>
</trkpt>
<trkpt lat="-27.274439" lon="151.290064">
  <ele>342.93</ele>
  <time>2026-09-01T20:02:31Z</time>
  <course>10.79</course>
  <speed>0.0</speed>
  <fix>3d</fix>
</trkpt>
<trkpt lat="-27.274439" lon="151.290064">
  <ele>343.1</ele>
  <time>2026-09-01T20:02:31Z</time>
  <course>270.0</course>
  <speed>0.0</speed>
  <fix>3d</fix>
</trkpt>
<trkpt lat="-27.274439" lon="151.290064">
  <ele>343.08</ele>
  <time>2026-09-01T20:02:31Z</time>
  <course>10.79</course>
  <speed>0.0</speed>
  <fix>3d</fix>
</trkpt>
<trkpt lat="-27.274439" lon="151.290064">
  <ele>343.1</ele>
  <time>2026-09-01T20:02:31Z</time>
  <course>270.0</course>
  <speed>0.0</speed>
  <fix>3d</fix>
</trkpt>
<trkpt lat="-27.274439" lon="151.290064">
  <ele>343.23</ele>
  <time>2026-09-01T20:02:31Z</time>
  <course>10.8</course>
  <speed>0.0</speed>
  <fix>3d</fix>
</trkpt>
<trkpt lat="-27.274439" lon="151.290064">
  <ele>343.1</ele>
  <time>2026-09-01T20:02:31Z</time>
  <course>270.0</course>
  <speed>0.0</speed>
  <fix>3d</fix>
</trkpt>
<trkpt lat="-27.274439" lon="151.290064">
  <ele>343.01</ele>
  <time>2026-09-01T20:02:31Z</time>
  <course>10.8</course>
  <speed>0.0</speed>
  <fix>3d</fix>
</trkpt>
<trkpt lat="-27.274439" lon="151.290064">
  <ele>343.1</ele>
  <time>2026-09-01T20:02:31Z</time>
  <course>270.0</course>
  <speed>0.0</speed>
  <fix>3d</fix>
</trkpt>
<trkpt lat="-27.274439" lon="151.290064">
  <ele>343.1</ele>
  <time>2026-09-01T20:02:31Z</time>
  <course>10.8</course>
  <speed>0.0</speed>
  <fix>3d</fix>
</trkpt>
<trkpt lat="-27.274439" lon="151.290064">
  <ele>343.1</ele>
  <time>2026-09-01T20:02:31Z</time>
  <course>270.0</course>
  <speed>0.0</speed>
  <fix>3d</fix>
</trkpt>
<trkpt lat="-27.274439" lon="151.290064">
  <ele>342.99</ele>
  <time>2026-09-01T20:02:31Z</time>
  <course>10.8</course>
  <speed>0.0</speed>
  <fix>3d</fix>
</trkpt>
<trkpt lat="-27.274439" lon="151.290064">
  <ele>343.1</ele>
  <time>2026-09-01T20:02:31Z</time>
  <course>270.0</course>
  <speed>0.0</speed>
  <fix>3d</fix>
</trkpt>
<trkpt lat="-27.274439" lon="151.290064">
  <ele>342.87</ele>
  <time>2026-09-01T20:02:31Z</time>
  <course>10.8</course>
  <speed>0.0</speed>
  <fix>3d</fix>
</trkpt>
<trkpt lat="-27.274439" lon="151.290064">
  <ele>343.1</ele>
  <time>2026-09-01T20:02:31Z</time>
  <course>270.0</course>
  <speed>0.0</speed>
  <fix>3d</fix>
</trkpt>
<trkpt lat="-27.274439" lon="151.290064">
  <ele>343.1</ele>
  <time>2026-09-01T20:02:31Z</time>
  <course>10.8</course>
  <speed>0.0</speed>
  <fix>3d</fix>
</trkpt>
<trkpt lat="-27.274439" lon="151.290064">
  <ele>343.1</ele>
  <time>2026-09-01T20:02:31Z</time>
  <course>270.0</course>
  <speed>0.0</speed>
  <fix>3d</fix>
</trkpt>
<trkpt lat="-27.274439" lon="151.290064">
  <ele>342.99</ele>
  <time>2026-09-01T20:02:31Z</time>
  <course>10.8</course>
  <speed>0.0</speed>
  <fix>3d</fix>
</trkpt>
<trkpt lat="-27.274439" lon="151.290064">
  <ele>343.1</ele>
  <time>2026-09-01T20:02:31Z</time>
  <course>270.0</course>
  <speed>0.0</speed>
  <fix>3d</fix>
</trkpt>
<trkpt lat="-27.274439" lon="151.290064">
  <ele>342.91</ele>
  <time>2026-09-01T20:02:31Z</time>
  <course>10.8</course>
  <speed>0.0</speed>
  <fix>3d</fix>
</trkpt>
<trkpt lat="-27.274439" lon="151.290064">
  <ele>343.1</ele>
  <time>2026-09-01T20:02:31Z</time>
  <course>270.0</course>
  <speed>0.0</speed>
  <fix>3d</fix>
</trkpt>
<trkpt lat="-27.274439" lon="151.290064">
  <ele>342.9</ele>
  <time>2026-09-01T20:02:31Z</time>
  <course>10.8</course>
  <speed>0.0</speed>
  <fix>3d</fix>
</trkpt>
<trkpt lat="-27.274439" lon="151.290064">
  <ele>343.1</ele>
  <time>2026-09-01T20:02:31Z</time>
  <course>270.0</course>
  <speed>0.0</speed>
  <fix>3d</fix>
</trkpt>
<trkpt lat="-27.274439" lon="151.290064">
  <ele>342.87</ele>
  <time>2026-09-01T20:02:31Z</time>
  <course>10.8</course>
  <speed>0.0</speed>
  <fix>3d</fix>
</trkpt>
<trkpt lat="-27.274439" lon="151.290064">
  <ele>343.1</ele>
  <time>2026-09-01T20:02:31Z</time>
  <course>270.0</course>
  <speed>0.0</speed>
  <fix>3d</fix>
</trkpt>
<trkpt lat="-27.274439" lon="151.290064">
  <ele>343.12</ele>
  <time>2026-09-01T20:02:31Z</time>
  <course>10.8</course>
  <speed>0.0</speed>
  <fix>3d</fix>
</trkpt>
<trkpt lat="-27.274439" lon="151.290064">
  <ele>343.1</ele>
  <time>2026-09-01T20:02:31Z</time>
  <course>270.0</course>
  <speed>0.0</speed>
  <fix>3d</fix>
</trkpt>
<trkpt lat="-27.274439" lon="151.290064">
  <ele>342.99</ele>
  <time>2026-09-01T20:02:31Z</time>
  <course>10.8</course>
  <speed>0.0</speed>
  <fix>3d</fix>
</trkpt>
<trkpt lat="-27.274439" lon="151.290064">
  <ele>343.1</ele>
  <time>2026-09-01T20:02:31Z</time>
  <course>270.0</course>
  <speed>0.0</speed>
  <fix>3d</fix>
</trkpt>
<trkpt lat="-27.274439" lon="151.290064">
  <ele>343.13</ele>
  <time>2026-09-01T20:02:31Z</time>
  <course>10.8</course>
  <speed>0.0</speed>
  <fix>3d</fix>
</trkpt>
<trkpt lat="-27.274439" lon="151.290064">
  <ele>343.1</ele>
  <time>2026-09-01T20:02:31Z</time>
  <course>270.0</course>
  <speed>0.0</speed>
  <fix>3d</fix>
</trkpt>
<trkpt lat="-27.274439" lon="151.290064">
  <ele>343.0</ele>
  <time>2026-09-01T20:02:31Z</time>
  <course>10.8</course>
  <speed>0.0</speed>
  <fix>3d</fix>
</trkpt>
<trkpt lat="-27.274439" lon="151.290064">
  <ele>343.1</ele>
  <time>2026-09-01T20:02:31Z</time>
  <course>270.0</course>
  <speed>0.0</speed>
  <fix>3d</fix>
</trkpt>
<trkpt lat="-27.274439" lon="151.290064">
  <ele>343.17</ele>
  <time>2026-09-01T20:02:31Z</time>
  <course>10.8</course>
  <speed>0.0</speed>
  <fix>3d</fix>
</trkpt>
<trkpt lat="-27.274439" lon="151.290064">
  <ele>343.1</ele>
  <time>2026-09-01T20:02:31Z</time>
  <course>270.0</course>
  <speed>0.0</speed>
  <fix>3d</fix>
</trkpt>
<trkpt lat="-27.274439" lon="151.290064">
  <ele>343.0</ele>
  <time>2026-09-01T20:02:31Z</time>
  <course>10.8</course>
  <speed>0.0</speed>
  <fix>3d</fix>
</trkpt>
<trkpt lat="-27.274439" lon="151.290064">
  <ele>343.1</ele>
  <time>2026-09-01T20:02:31Z</time>
  <course>270.0</course>
  <speed>0.0</speed>
  <fix>3d</fix>
</trkpt>
<trkpt lat="-27.274439" lon="151.290064">
  <ele>342.99</ele>
  <time>2026-09-01T20:02:31Z</time>
  <course>10.8</course>
  <speed>0.0</speed>
  <fix>3d</fix>
</trkpt>
<trkpt lat="-27.274439" lon="151.290064">
  <ele>343.1</ele>
  <time>2026-09-01T20:02:31Z</time>
  <course>270.0</course>
  <speed>0.0</speed>
  <fix>3d</fix>
</trkpt>
<trkpt lat="-27.274439" lon="151.290064">
  <ele>343.17</ele>
  <time>2026-09-01T20:02:31Z</time>
  <course>10.8</course>
  <speed>0.0</speed>
  <fix>3d</fix>
</trkpt>
<trkpt lat="-27.274439" lon="151.290064">
  <ele>343.1</ele>
  <time>2026-09-01T20:02:31Z</time>
  <course>270.0</course>
  <speed>0.0</speed>
  <fix>3d</fix>
</trkpt>
<trkpt lat="-27.274439" lon="151.290064">
  <ele>343.16</ele>
  <time>2026-09-01T20:02:31Z</time>
  <course>10.8</course>
  <speed>0.0</speed>
  <fix>3d</fix>
</trkpt>
<trkpt lat="-27.274439" lon="151.290064">
  <ele>343.1</ele>
  <time>2026-09-01T20:02:31Z</time>
  <course>270.0</course>
  <speed>0.0</speed>
  <fix>3d</fix>
</trkpt>
<trkpt lat="-27.274439" lon="151.290064">
  <ele>342.87</ele>
  <time>2026-09-01T20:02:31Z</time>
  <course>10.8</course>
  <speed>0.0</speed>
  <fix>3d</fix>
</trkpt>
<trkpt lat="-27.274439" lon="151.290064">
  <ele>343.1</ele>
  <time>2026-09-01T20:02:31Z</time>
  <course>270.0</course>
  <speed>0.0</speed>
  <fix>3d</fix>
</trkpt>
<trkpt lat="-27.274439" lon="151.290064">
  <ele>343.19</ele>
  <time>2026-09-01T20:02:31Z</time>
  <course>10.8</course>
  <speed>0.0</speed>
  <fix>3d</fix>
</trkpt>
<trkpt lat="-27.274439" lon="151.290064">
  <ele>343.1</ele>
  <time>2026-09-01T20:02:31Z</time>
  <course>270.0</course>
  <speed>0.0</speed>
  <fix>3d</fix>
</trkpt>
<trkpt lat="-27.274439" lon="151.290064">
  <ele>343.16</ele>
  <time>2026-09-01T20:02:31Z</time>
  <course>10.8</course>
  <speed>0.0</speed>
  <fix>3d</fix>
</trkpt>
<trkpt lat="-27.274439" lon="151.290064">
  <ele>343.1</ele>
  <time>2026-09-01T20:02:31Z</time>
  <course>270.0</course>
  <speed>0.0</speed>
  <fix>3d</fix>
</trkpt>
<trkpt lat="-27.274439" lon="151.290064">
  <ele>343.21</ele>
  <time>2026-09-01T20:02:31Z</time>
  <course>10.8</course>
  <speed>0.0</speed>
  <fix>3d</fix>
</trkpt>
<trkpt lat="-27.274439" lon="151.290064">
  <ele>343.1</ele>
  <time>2026-09-01T20:02:31Z</time>
  <course>270.0</course>
  <speed>0.0</speed>
  <fix>3d</fix>
</trkpt>
<trkpt lat="-27.274439" lon="151.290064">
  <ele>343.22</ele>
  <time>2026-09-01T20:02:31Z</time>
  <course>10.8</course>
  <speed>0.0</speed>
  <fix>3d</fix>
</trkpt>
<trkpt lat="-27.274439" lon="151.290064">
  <ele>343.1</ele>
  <time>2026-09-01T20:02:31Z</time>
  <course>270.0</course>
  <speed>0.0</speed>
  <fix>3d</fix>
</trkpt>
<trkpt lat="-27.274439" lon="151.290064">
  <ele>343.24</ele>
  <time>2026-09-01T20:02:32Z</time>
  <course>10.8</course>
  <speed>0.0</speed>
  <fix>3d</fix>
</trkpt>
<trkpt lat="-27.274439" lon="151.290064">
  <ele>343.1</ele>
  <time>2026-09-01T20:02:32Z</time>
  <course>270.0</course>
  <speed>0.0</speed>
  <fix>3d</fix>
</trkpt>
<trkpt lat="-27.274439" lon="151.290064">
  <ele>343.0</ele>
  <time>2026-09-01T20:02:32Z</time>
  <course>10.8</course>
  <speed>0.0</speed>
  <fix>3d</fix>
</trkpt>
<trkpt lat="-27.274439" lon="151.290064">
  <ele>343.1</ele>
  <time>2026-09-01T20:02:32Z</time>
  <course>270.0</course>
  <speed>0.0</speed>
  <fix>3d</fix>
</trkpt>
<trkpt lat="-27.274439" lon="151.290064">
  <ele>343.1</ele>
  <time>2026-09-01T20:02:32Z</time>
  <course>10.8</course>
  <speed>0.0</speed>
  <fix>3d</fix>
</trkpt>
<trkpt lat="-27.274439" lon="151.290064">
  <ele>343.1</ele>
  <time>2026-09-01T20:02:32Z</time>
  <course>270.0</course>
  <speed>0.0</speed>
  <fix>3d</fix>
</trkpt>
<trkpt lat="-27.274439" lon="151.290064">
  <ele>343.05</ele>
  <time>2026-09-01T20:02:32Z</time>
  <course>10.8</course>
  <speed>0.0</speed>
  <fix>3d</fix>
</trkpt>
<trkpt lat="-27.274439" lon="151.290064">
  <ele>343.1</ele>
  <time>2026-09-01T20:02:32Z</time>
  <course>270.0</course>
  <speed>0.0</speed>
  <fix>3d</fix>
</trkpt>
<trkpt lat="-27.274439" lon="151.290064">
  <ele>342.87</ele>
  <time>2026-09-01T20:02:32Z</time>
  <course>10.8</course>
  <speed>0.0</speed>
  <fix>3d</fix>
</trkpt>
<trkpt lat="-27.274439" lon="151.290064">
  <ele>343.1</ele>
  <time>2026-09-01T20:02:32Z</time>
  <course>270.0</course>
  <speed>0.0</speed>
  <fix>3d</fix>
</trkpt>
<trkpt lat="-27.274439" lon="151.290064">
  <ele>342.92</ele>
  <time>2026-09-01T20:02:32Z</time>
  <course>10.8</course>
  <speed>0.0</speed>
  <fix>3d</fix>
</trkpt>
<trkpt lat="-27.274439" lon="151.290064">
  <ele>343.1</ele>
  <time>2026-09-01T20:02:32Z</time>
  <course>270.0</course>
  <speed>0.0</speed>
  <fix>3d</fix>
</trkpt>
<trkpt lat="-27.274439" lon="151.290064">
  <ele>342.96</ele>
  <time>2026-09-01T20:02:32Z</time>
  <course>10.8</course>
  <speed>0.0</speed>
  <fix>3d</fix>
</trkpt>
<trkpt lat="-27.274439" lon="151.290064">
  <ele>343.1</ele>
  <time>2026-09-01T20:02:32Z</time>
  <course>270.0</course>
  <speed>0.0</speed>
  <fix>3d</fix>
</trkpt>
<trkpt lat="-27.274439" lon="151.290064">
  <ele>343.15</ele>
  <time>2026-09-01T20:02:32Z</time>
  <course>10.8</course>
  <speed>0.0</speed>
  <fix>3d</fix>
</trkpt>
<trkpt lat="-27.274439" lon="151.290064">
  <ele>343.1</ele>
  <time>2026-09-01T20:02:32Z</time>
  <course>270.0</course>
  <speed>0.0</speed>
  <fix>3d</fix>
</trkpt>
<trkpt lat="-27.274439" lon="151.290064">
  <ele>343.16</ele>
  <time>2026-09-01T20:02:32Z</time>
  <course>10.8</course>
  <speed>0.0</speed>
  <fix>3d</fix>
</trkpt>
<trkpt lat="-27.274439" lon="151.290064">
  <ele>343.1</ele>
  <time>2026-09-01T20:02:32Z</time>
  <course>270.0</course>
  <speed>0.0</speed>
  <fix>3d</fix>
</trkpt>
<trkpt lat="-27.274439" lon="151.290064">
  <ele>343.2</ele>
  <time>2026-09-01T20:02:32Z</time>
  <course>10.81</course>
  <speed>0.0</speed>
  <fix>3d</fix>
</trkpt>
<trkpt lat="-27.274439" lon="151.290064">
  <ele>343.1</ele>
  <time>2026-09-01T20:02:32Z</time>
  <course>270.0</course>
  <speed>0.0</speed>
  <fix>3d</fix>
</trkpt>
<trkpt lat="-27.274439" lon="151.290064">
  <ele>343.13</ele>
  <time>2026-09-01T20:02:32Z</time>
  <course>10.82</course>
  <speed>0.0</speed>
  <fix>3d</fix>
</trkpt>
<trkpt lat="-27.274439" lon="151.290064">
  <ele>343.1</ele>
  <time>2026-09-01T20:02:32Z</time>
  <course>270.0</course>
  <speed>0.0</speed>
  <fix>3d</fix>
</trkpt>
<trkpt lat="-27.274439" lon="151.290064">
  <ele>343.09</ele>
  <time>2026-09-01T20:02:32Z</time>
  <course>10.71</course>
  <speed>0.0</speed>
  <fix>3d</fix>
</trkpt>
<trkpt lat="-27.274439" lon="151.290064">
  <ele>343.1</ele>
  <time>2026-09-01T20:02:32Z</time>
  <course>270.0</course>
  <speed>0.0</speed>
  <fix>3d</fix>
</trkpt>
<trkpt lat="-27.274439" lon="151.290064">
  <ele>343.09</ele>
  <time>2026-09-01T20:02:32Z</time>
  <course>10.71</course>
  <speed>0.0</speed>
  <fix>3d</fix>
</trkpt>
<trkpt lat="-27.274439" lon="151.290064">
  <ele>343.1</ele>
  <time>2026-09-01T20:02:32Z</time>
  <course>270.0</course>
  <speed>0.0</speed>
  <fix>3d</fix>
</trkpt>
<trkpt lat="-27.274439" lon="151.290064">
  <ele>343.1</ele>
  <time>2026-09-01T20:02:32Z</time>
  <course>10.71</course>
  <speed>0.0</speed>
  <fix>3d</fix>
</trkpt>
<trkpt lat="-27.274439" lon="151.290064">
  <ele>343.1</ele>
  <time>2026-09-01T20:02:32Z</time>
  <course>270.0</course>
  <speed>0.0</speed>
  <fix>3d</fix>
</trkpt>
<trkpt lat="-27.274439" lon="151.290064">
  <ele>343.1</ele>
  <time>2026-09-01T20:02:32Z</time>
  <course>10.71</course>
  <speed>0.0</speed>
  <fix>3d</fix>
</trkpt>
<trkpt lat="-27.274439" lon="151.290064">
  <ele>343.1</ele>
  <time>2026-09-01T20:02:32Z</time>
  <course>270.0</course>
  <speed>0.0</speed>
  <fix>3d</fix>
</trkpt>
<trkpt lat="-27.274439" lon="151.290064">
  <ele>343.1</ele>
  <time>2026-09-01T20:02:32Z</time>
  <course>10.71</course>
  <speed>0.0</speed>
  <fix>3d</fix>
</trkpt>
<trkpt lat="-27.274439" lon="151.290064">
  <ele>343.1</ele>
  <time>2026-09-01T20:02:32Z</time>
  <course>270.0</course>
  <speed>0.0</speed>
  <fix>3d</fix>
</trkpt>
<trkpt lat="-27.274439" lon="151.290064">
  <ele>343.1</ele>
  <time>2026-09-01T20:02:32Z</time>
  <course>10.71</course>
  <speed>0.0</speed>
  <fix>3d</fix>
</trkpt>
<trkpt lat="-27.274439" lon="151.290064">
  <ele>343.1</ele>
  <time>2026-09-01T20:02:32Z</time>
  <course>270.0</course>
  <speed>0.0</speed>
  <fix>3d</fix>
</trkpt>
<trkpt lat="-27.274439" lon="151.290064">
  <ele>343.1</ele>
  <time>2026-09-01T20:02:32Z</time>
  <course>10.71</course>
  <speed>0.0</speed>
  <fix>3d</fix>
</trkpt>
<trkpt lat="-27.274439" lon="151.290064">
  <ele>343.1</ele>
  <time>2026-09-01T20:02:32Z</time>
  <course>270.0</course>
  <speed>0.0</speed>
  <fix>3d</fix>
</trkpt>
<trkpt lat="-27.274439" lon="151.290064">
  <ele>343.11</ele>
  <time>2026-09-01T20:02:32Z</time>
  <course>10.71</course>
  <speed>0.0</speed>
  <fix>3d</fix>
</trkpt>
<trkpt lat="-27.274439" lon="151.290064">
  <ele>343.1</ele>
  <time>2026-09-01T20:02:32Z</time>
  <course>270.0</course>
  <speed>0.0</speed>
  <fix>3d</fix>
</trkpt>
<trkpt lat="-27.274439" lon="151.290064">
  <ele>343.11</ele>
  <time>2026-09-01T20:02:32Z</time>
  <course>10.71</course>
  <speed>0.0</speed>
  <fix>3d</fix>
</trkpt>
<trkpt lat="-27.274439" lon="151.290064">
  <ele>343.1</ele>
  <time>2026-09-01T20:02:32Z</time>
  <course>270.0</course>
  <speed>0.0</speed>
  <fix>3d</fix>
</trkpt>
<trkpt lat="-27.274439" lon="151.290064">
  <ele>343.11</ele>
  <time>2026-09-01T20:02:32Z</time>
  <course>10.71</course>
  <speed>0.0</speed>
  <fix>3d</fix>
</trkpt>
<trkpt lat="-27.274439" lon="151.290064">
  <ele>343.1</ele>
  <time>2026-09-01T20:02:32Z</time>
  <course>270.0</course>
  <speed>0.0</speed>
  <fix>3d</fix>
</trkpt>
<trkpt lat="-27.274439" lon="151.290064">
  <ele>343.12</ele>
  <time>2026-09-01T20:02:32Z</time>
  <course>10.71</course>
  <speed>0.0</speed>
  <fix>3d</fix>
</trkpt>
<trkpt lat="-27.274439" lon="151.290064">
  <ele>343.1</ele>
  <time>2026-09-01T20:02:32Z</time>
  <course>270.0</course>
  <speed>0.0</speed>
  <fix>3d</fix>
</trkpt>
<trkpt lat="-27.274439" lon="151.290064">
  <ele>343.12</ele>
  <time>2026-09-01T20:02:32Z</time>
  <course>10.71</course>
  <speed>0.0</speed>
  <fix>3d</fix>
</trkpt>
<trkpt lat="-27.274439" lon="151.290064">
  <ele>343.1</ele>
  <time>2026-09-01T20:02:32Z</time>
  <course>270.0</course>
  <speed>0.0</speed>
  <fix>3d</fix>
</trkpt>
<trkpt lat="-27.274439" lon="151.290064">
  <ele>343.1</ele>
  <time>2026-09-01T20:02:32Z</time>
  <course>10.71</course>
  <speed>0.0</speed>
  <fix>3d</fix>
</trkpt>
<trkpt lat="-27.274439" lon="151.290064">
  <ele>343.1</ele>
  <time>2026-09-01T20:02:32Z</time>
  <course>270.0</course>
  <speed>0.0</speed>
  <fix>3d</fix>
</trkpt>
<trkpt lat="-27.274439" lon="151.290064">
  <ele>343.1</ele>
  <time>2026-09-01T20:02:32Z</time>
  <course>10.71</course>
  <speed>0.0</speed>
  <fix>3d</fix>
</trkpt>
<trkpt lat="-27.274439" lon="151.290064">
  <ele>343.1</ele>
  <time>2026-09-01T20:02:32Z</time>
  <course>270.0</course>
  <speed>0.0</speed>
  <fix>3d</fix>
</trkpt>
<trkpt lat="-27.274439" lon="151.290064">
  <ele>343.1</ele>
  <time>2026-09-01T20:02:32Z</time>
  <course>10.71</course>
  <speed>0.0</speed>
  <fix>3d</fix>
</trkpt>
<trkpt lat="-27.274439" lon="151.290064">
  <ele>343.1</ele>
  <time>2026-09-01T20:02:32Z</time>
  <course>270.0</course>
  <speed>0.0</speed>
  <fix>3d</fix>
</trkpt>
<trkpt lat="-27.274439" lon="151.290064">
  <ele>343.09</ele>
  <time>2026-09-01T20:02:32Z</time>
  <course>10.71</course>
  <speed>0.0</speed>
  <fix>3d</fix>
</trkpt>
<trkpt lat="-27.274439" lon="151.290064">
  <ele>343.1</ele>
  <time>2026-09-01T20:02:32Z</time>
  <course>270.0</course>
  <speed>0.0</speed>
  <fix>3d</fix>
</trkpt>
<trkpt lat="-27.274439" lon="151.290064">
  <ele>343.09</ele>
  <time>2026-09-01T20:02:32Z</time>
  <course>10.71</course>
  <speed>0.0</speed>
  <fix>3d</fix>
</trkpt>
<trkpt lat="-27.274439" lon="151.290064">
  <ele>343.1</ele>
  <time>2026-09-01T20:02:32Z</time>
  <course>270.0</course>
  <speed>0.0</speed>
  <fix>3d</fix>
</trkpt>
<trkpt lat="-27.274439" lon="151.290064">
  <ele>343.09</ele>
  <time>2026-09-01T20:02:32Z</time>
  <course>10.71</course>
  <speed>0.0</speed>
  <fix>3d</fix>
</trkpt>
<trkpt lat="-27.274439" lon="151.290064">
  <ele>343.1</ele>
  <time>2026-09-01T20:02:32Z</time>
  <course>270.0</course>
  <speed>0.0</speed>
  <fix>3d</fix>
</trkpt>
<trkpt lat="-27.274439" lon="151.290064">
  <ele>343.1</ele>
  <time>2026-09-01T20:02:32Z</time>
  <course>10.71</course>
  <speed>0.0</speed>
  <fix>3d</fix>
</trkpt>
<trkpt lat="-27.274439" lon="151.290064">
  <ele>343.1</ele>
  <time>2026-09-01T20:02:32Z</time>
  <course>270.0</course>
  <speed>0.0</speed>
  <fix>3d</fix>
</trkpt>
<trkpt lat="-27.274439" lon="151.290064">
  <ele>343.1</ele>
  <time>2026-09-01T20:02:32Z</time>
  <course>10.71</course>
  <speed>0.0</speed>
  <fix>3d</fix>
</trkpt>
<trkpt lat="-27.274439" lon="151.290064">
  <ele>343.1</ele>
  <time>2026-09-01T20:02:32Z</time>
  <course>270.0</course>
  <speed>0.0</speed>
  <fix>3d</fix>
</trkpt>
<trkpt lat="-27.274439" lon="151.290064">
  <ele>343.09</ele>
  <time>2026-09-01T20:02:32Z</time>
  <course>10.71</course>
  <speed>0.0</speed>
  <fix>3d</fix>
</trkpt>
<trkpt lat="-27.274439" lon="151.290064">
  <ele>343.1</ele>
  <time>2026-09-01T20:02:32Z</time>
  <course>270.0</course>
  <speed>0.0</speed>
  <fix>3d</fix>
</trkpt>
<trkpt lat="-27.274439" lon="151.290064">
  <ele>343.09</ele>
  <time>2026-09-01T20:02:32Z</time>
  <course>10.71</course>
  <speed>0.0</speed>
  <fix>3d</fix>
</trkpt>
<trkpt lat="-27.274439" lon="151.290064">
  <ele>343.1</ele>
  <time>2026-09-01T20:02:32Z</time>
  <course>270.0</course>
  <speed>0.0</speed>
  <fix>3d</fix>
</trkpt>
<trkpt lat="-27.274439" lon="151.290064">
  <ele>343.09</ele>
  <time>2026-09-01T20:02:32Z</time>
  <course>10.71</course>
  <speed>0.0</speed>
  <fix>3d</fix>
</trkpt>
<trkpt lat="-27.274439" lon="151.290064">
  <ele>343.1</ele>
  <time>2026-09-01T20:02:32Z</time>
  <course>270.0</course>
  <speed>0.0</speed>
  <fix>3d</fix>
</trkpt>
<trkpt lat="-27.274439" lon="151.290064">
  <ele>343.09</ele>
  <time>2026-09-01T20:02:32Z</time>
  <course>10.71</course>
  <speed>0.0</speed>
  <fix>3d</fix>
</trkpt>
<trkpt lat="-27.274439" lon="151.290064">
  <ele>343.1</ele>
  <time>2026-09-01T20:02:32Z</time>
  <course>270.0</course>
  <speed>0.0</speed>
  <fix>3d</fix>
</trkpt>
<trkpt lat="-27.274439" lon="151.290064">
  <ele>343.09</ele>
  <time>2026-09-01T20:02:32Z</time>
  <course>10.71</course>
  <speed>0.0</speed>
  <fix>3d</fix>
</trkpt>
<trkpt lat="-27.274439" lon="151.290064">
  <ele>343.1</ele>
  <time>2026-09-01T20:02:32Z</time>
  <course>270.0</course>
  <speed>0.0</speed>
  <fix>3d</fix>
</trkpt>
<trkpt lat="-27.274439" lon="151.290064">
  <ele>343.09</ele>
  <time>2026-09-01T20:02:32Z</time>
  <course>10.71</course>
  <speed>0.0</speed>
  <fix>3d</fix>
</trkpt>
<trkpt lat="-27.274439" lon="151.290064">
  <ele>343.1</ele>
  <time>2026-09-01T20:02:32Z</time>
  <course>270.0</course>
  <speed>0.0</speed>
  <fix>3d</fix>
</trkpt>
<trkpt lat="-27.274439" lon="151.290064">
  <ele>343.09</ele>
  <time>2026-09-01T20:02:32Z</time>
  <course>10.71</course>
  <speed>0.0</speed>
  <fix>3d</fix>
</trkpt>
<trkpt lat="-27.274439" lon="151.290064">
  <ele>343.1</ele>
  <time>2026-09-01T20:02:32Z</time>
  <course>270.0</course>
  <speed>0.0</speed>
  <fix>3d</fix>
</trkpt>
<trkpt lat="-27.274439" lon="151.290064">
  <ele>343.09</ele>
  <time>2026-09-01T20:02:32Z</time>
  <course>10.71</course>
  <speed>0.0</speed>
  <fix>3d</fix>
</trkpt>
<trkpt lat="-27.274439" lon="151.290064">
  <ele>343.1</ele>
  <time>2026-09-01T20:02:32Z</time>
  <course>270.0</course>
  <speed>0.0</speed>
  <fix>3d</fix>
</trkpt>
<trkpt lat="-27.274439" lon="151.290064">
  <ele>343.1</ele>
  <time>2026-09-01T20:02:32Z</time>
  <course>10.71</course>
  <speed>0.0</speed>
  <fix>3d</fix>
</trkpt>
<trkpt lat="-27.274439" lon="151.290064">
  <ele>343.1</ele>
  <time>2026-09-01T20:02:32Z</time>
  <course>270.0</course>
  <speed>0.0</speed>
  <fix>3d</fix>
</trkpt>
<trkpt lat="-27.274439" lon="151.290064">
  <ele>343.1</ele>
  <time>2026-09-01T20:02:32Z</time>
  <course>10.71</course>
  <speed>0.0</speed>
  <fix>3d</fix>
</trkpt>
<trkpt lat="-27.274439" lon="151.290064">
  <ele>343.1</ele>
  <time>2026-09-01T20:02:32Z</time>
  <course>270.0</course>
  <speed>0.0</speed>
  <fix>3d</fix>
</trkpt>
<trkpt lat="-27.274439" lon="151.290064">
  <ele>343.1</ele>
  <time>2026-09-01T20:02:32Z</time>
  <course>10.71</course>
  <speed>0.0</speed>
  <fix>3d</fix>
</trkpt>
<trkpt lat="-27.274439" lon="151.290064">
  <ele>343.1</ele>
  <time>2026-09-01T20:02:32Z</time>
  <course>270.0</course>
  <speed>0.0</speed>
  <fix>3d</fix>
</trkpt>
<trkpt lat="-27.274439" lon="151.290064">
  <ele>343.1</ele>
  <time>2026-09-01T20:02:32Z</time>
  <course>10.71</course>
  <speed>0.0</speed>
  <fix>3d</fix>
</trkpt>
<trkpt lat="-27.274439" lon="151.290064">
  <ele>343.1</ele>
  <time>2026-09-01T20:02:32Z</time>
  <course>270.0</course>
  <speed>0.0</speed>
  <fix>3d</fix>
</trkpt>
<trkpt lat="-27.274439" lon="151.290064">
  <ele>343.1</ele>
  <time>2026-09-01T20:02:32Z</time>
  <course>10.71</course>
  <speed>0.0</speed>
  <fix>3d</fix>
</trkpt>
<trkpt lat="-27.274439" lon="151.290064">
  <ele>343.1</ele>
  <time>2026-09-01T20:02:32Z</time>
  <course>270.0</course>
  <speed>0.0</speed>
  <fix>3d</fix>
</trkpt>
<trkpt lat="-27.274439" lon="151.290064">
  <ele>343.1</ele>
  <time>2026-09-01T20:02:32Z</time>
  <course>10.71</course>
  <speed>0.0</speed>
  <fix>3d</fix>
</trkpt>
<trkpt lat="-27.274439" lon="151.290064">
  <ele>343.1</ele>
  <time>2026-09-01T20:02:32Z</time>
  <course>270.0</course>
  <speed>0.0</speed>
  <fix>3d</fix>
</trkpt>
<trkpt lat="-27.274439" lon="151.290064">
  <ele>343.09</ele>
  <time>2026-09-01T20:02:32Z</time>
  <course>10.71</course>
  <speed>0.0</speed>
  <fix>3d</fix>
</trkpt>
<trkpt lat="-27.274439" lon="151.290064">
  <ele>343.1</ele>
  <time>2026-09-01T20:02:32Z</time>
  <course>270.0</course>
  <speed>0.0</speed>
  <fix>3d</fix>
</trkpt>
<trkpt lat="-27.274439" lon="151.290064">
  <ele>343.09</ele>
  <time>2026-09-01T20:02:32Z</time>
  <course>10.71</course>
  <speed>0.0</speed>
  <fix>3d</fix>
</trkpt>
<trkpt lat="-27.274439" lon="151.290064">
  <ele>343.1</ele>
  <time>2026-09-01T20:02:32Z</time>
  <course>270.0</course>
  <speed>0.0</speed>
  <fix>3d</fix>
</trkpt>
<trkpt lat="-27.274439" lon="151.290064">
  <ele>343.09</ele>
  <time>2026-09-01T20:02:32Z</time>
  <course>10.71</course>
  <speed>0.0</speed>
  <fix>3d</fix>
</trkpt>
<trkpt lat="-27.274439" lon="151.290064">
  <ele>343.1</ele>
  <time>2026-09-01T20:02:32Z</time>
  <course>270.0</course>
  <speed>0.0</speed>
  <fix>3d</fix>
</trkpt>
<trkpt lat="-27.274439" lon="151.290064">
  <ele>343.09</ele>
  <time>2026-09-01T20:02:32Z</time>
  <course>10.71</course>
  <speed>0.0</speed>
  <fix>3d</fix>
</trkpt>
<trkpt lat="-27.274439" lon="151.290064">
  <ele>343.1</ele>
  <time>2026-09-01T20:02:32Z</time>
  <course>270.0</course>
  <speed>0.0</speed>
  <fix>3d</fix>
</trkpt>
<trkpt lat="-27.274439" lon="151.290064">
  <ele>343.09</ele>
  <time>2026-09-01T20:02:32Z</time>
  <course>10.71</course>
  <speed>0.0</speed>
  <fix>3d</fix>
</trkpt>
<trkpt lat="-27.274439" lon="151.290064">
  <ele>343.1</ele>
  <time>2026-09-01T20:02:32Z</time>
  <course>116.25</course>
  <speed>0.0</speed>
  <fix>3d</fix>
</trkpt>
<trkpt lat="-27.274439" lon="151.290064">
  <ele>343.08</ele>
  <time>2026-09-01T20:02:32Z</time>
  <course>10.71</course>
  <speed>0.0</speed>
  <fix>3d</fix>
</trkpt>
<trkpt lat="-27.274439" lon="151.290064">
  <ele>343.1</ele>
  <time>2026-09-01T20:02:32Z</time>
  <course>116.25</course>
  <speed>0.0</speed>
  <fix>3d</fix>
</trkpt>
<trkpt lat="-27.274439" lon="151.290064">
  <ele>343.08</ele>
  <time>2026-09-01T20:02:32Z</time>
  <course>10.71</course>
  <speed>0.0</speed>
  <fix>3d</fix>
</trkpt>
<trkpt lat="-27.274439" lon="151.290064">
  <ele>343.08</ele>
  <time>2026-09-01T20:02:32Z</time>
  <course>10.71</course>
  <speed>0.0</speed>
  <fix>3d</fix>
</trkpt>
<trkpt lat="-27.274439" lon="151.290064">
  <ele>343.1</ele>
  <time>2026-09-01T20:02:32Z</time>
  <course>120.15</course>
  <speed>0.0</speed>
  <fix>3d</fix>
</trkpt>
<trkpt lat="-27.274439" lon="151.290064">
  <ele>343.08</ele>
  <time>2026-09-01T20:02:32Z</time>
  <course>10.71</course>
  <speed>0.0</speed>
  <fix>3d</fix>
</trkpt>
<trkpt lat="-27.274439" lon="151.290064">
  <ele>343.08</ele>
  <time>2026-09-01T20:02:32Z</time>
  <course>10.71</course>
  <speed>0.0</speed>
  <fix>3d</fix>
</trkpt>
<trkpt lat="-27.274439" lon="151.290064">
  <ele>343.1</ele>
  <time>2026-09-01T20:02:32Z</time>
  <course>120.15</course>
  <speed>0.0</speed>
  <fix>3d</fix>
</trkpt>
<trkpt lat="-27.274439" lon="151.290064">
  <ele>343.08</ele>
  <time>2026-09-01T20:02:32Z</time>
  <course>10.71</course>
  <speed>0.0</speed>
  <fix>3d</fix>
</trkpt>
<trkpt lat="-27.274439" lon="151.290064">
  <ele>343.08</ele>
  <time>2026-09-01T20:02:32Z</time>
  <course>10.71</course>
  <speed>0.0</speed>
  <fix>3d</fix>
</trkpt>
<trkpt lat="-27.274439" lon="151.290064">
  <ele>343.1</ele>
  <time>2026-09-01T20:02:32Z</time>
  <course>111.11</course>
  <speed>0.0</speed>
  <fix>3d</fix>
</trkpt>
<trkpt lat="-27.274439" lon="151.290064">
  <ele>343.08</ele>
  <time>2026-09-01T20:02:32Z</time>
  <course>10.71</course>
  <speed>0.0</speed>
  <fix>3d</fix>
</trkpt>
<trkpt lat="-27.274439" lon="151.290064">
  <ele>343.08</ele>
  <time>2026-09-01T20:02:32Z</time>
  <course>10.71</course>
  <speed>0.0</speed>
  <fix>3d</fix>
</trkpt>
<trkpt lat="-27.274439" lon="151.290064">
  <ele>343.1</ele>
  <time>2026-09-01T20:02:32Z</time>
  <course>111.11</course>
  <speed>0.0</speed>
  <fix>3d</fix>
</trkpt>
<trkpt lat="-27.274439" lon="151.290064">
  <ele>343.08</ele>
  <time>2026-09-01T20:02:32Z</time>
  <course>10.71</course>
  <speed>0.0</speed>
  <fix>3d</fix>
</trkpt>
<trkpt lat="-27.274439" lon="151.290064">
  <ele>343.08</ele>
  <time>2026-09-01T20:02:32Z</time>
  <course>10.71</course>
  <speed>0.0</speed>
  <fix>3d</fix>
</trkpt>
<trkpt lat="-27.274439" lon="151.290064">
  <ele>343.1</ele>
  <time>2026-09-01T20:02:32Z</time>
  <course>329.57</course>
  <speed>0.0</speed>
  <fix>3d</fix>
</trkpt>
<trkpt lat="-27.274439" lon="151.290064">
  <ele>343.08</ele>
  <time>2026-09-01T20:02:32Z</time>
  <course>10.71</course>
  <speed>0.0</speed>
  <fix>3d</fix>
</trkpt>
<trkpt lat="-27.274439" lon="151.290064">
  <ele>343.08</ele>
  <time>2026-09-01T20:02:32Z</time>
  <course>10.71</course>
  <speed>0.0</speed>
  <fix>3d</fix>
</trkpt>
<trkpt lat="-27.274439" lon="151.290064">
  <ele>343.1</ele>
  <time>2026-09-01T20:02:32Z</time>
  <course>329.57</course>
  <speed>0.0</speed>
  <fix>3d</fix>
</trkpt>
<trkpt lat="-27.274439" lon="151.290064">
  <ele>343.08</ele>
  <time>2026-09-01T20:02:32Z</time>
  <course>10.71</course>
  <speed>0.0</speed>
  <fix>3d</fix>
</trkpt>
<trkpt lat="-27.274439" lon="151.290064">
  <ele>343.08</ele>
  <time>2026-09-01T20:02:32Z</time>
  <course>10.71</course>
  <speed>0.0</speed>
  <fix>3d</fix>
</trkpt>
<trkpt lat="-27.274439" lon="151.290064">
  <ele>343.1</ele>
  <time>2026-09-01T20:02:32Z</time>
  <course>299.13</course>
  <speed>0.0</speed>
  <fix>3d</fix>
</trkpt>
<trkpt lat="-27.274439" lon="151.290064">
  <ele>343.07</ele>
  <time>2026-09-01T20:02:32Z</time>
  <course>10.71</course>
  <speed>0.0</speed>
  <fix>3d</fix>
</trkpt>
<trkpt lat="-27.274439" lon="151.290064">
  <ele>343.08</ele>
  <time>2026-09-01T20:02:32Z</time>
  <course>10.71</course>
  <speed>0.0</speed>
  <fix>3d</fix>
</trkpt>
<trkpt lat="-27.274439" lon="151.290064">
  <ele>343.1</ele>
  <time>2026-09-01T20:02:32Z</time>
  <course>299.13</course>
  <speed>0.0</speed>
  <fix>3d</fix>
</trkpt>
<trkpt lat="-27.274439" lon="151.290064">
  <ele>343.08</ele>
  <time>2026-09-01T20:02:32Z</time>
  <course>10.71</course>
  <speed>0.0</speed>
  <fix>3d</fix>
</trkpt>
<trkpt lat="-27.274439" lon="151.290064">
  <ele>343.09</ele>
  <time>2026-09-01T20:02:32Z</time>
  <course>10.71</course>
  <speed>0.0</speed>
  <fix>3d</fix>
</trkpt>
<trkpt lat="-27.274439" lon="151.290064">
  <ele>343.1</ele>
  <time>2026-09-01T20:02:32Z</time>
  <course>7.42</course>
  <speed>0.0</speed>
  <fix>3d</fix>
</trkpt>
<trkpt lat="-27.274439" lon="151.290064">
  <ele>343.09</ele>
  <time>2026-09-01T20:02:32Z</time>
  <course>10.71</course>
  <speed>0.0</speed>
  <fix>3d</fix>
</trkpt>
<trkpt lat="-27.274439" lon="151.290064">
  <ele>343.12</ele>
  <time>2026-09-01T20:02:32Z</time>
  <course>10.71</course>
  <speed>0.0</speed>
  <fix>3d</fix>
</trkpt>
<trkpt lat="-27.274439" lon="151.290064">
  <ele>343.1</ele>
  <time>2026-09-01T20:02:32Z</time>
  <course>7.42</course>
  <speed>0.0</speed>
  <fix>3d</fix>
</trkpt>
<trkpt lat="-27.274439" lon="151.290064">
  <ele>343.12</ele>
  <time>2026-09-01T20:02:32Z</time>
  <course>10.71</course>
  <speed>0.0</speed>
  <fix>3d</fix>
</trkpt>
<trkpt lat="-27.274439" lon="151.290064">
  <ele>343.16</ele>
  <time>2026-09-01T20:02:32Z</time>
  <course>10.71</course>
  <speed>0.0</speed>
  <fix>3d</fix>
</trkpt>
<trkpt lat="-27.274439" lon="151.290064">
  <ele>343.12</ele>
  <time>2026-09-01T20:02:32Z</time>
  <course>7.92</course>
  <speed>0.0</speed>
  <fix>3d</fix>
</trkpt>
<trkpt lat="-27.274439" lon="151.290064">
  <ele>343.17</ele>
  <time>2026-09-01T20:02:32Z</time>
  <course>10.71</course>
  <speed>0.0</speed>
  <fix>3d</fix>
</trkpt>
<trkpt lat="-27.274439" lon="151.290064">
  <ele>343.21</ele>
  <time>2026-09-01T20:02:32Z</time>
  <course>10.71</course>
  <speed>0.0</speed>
  <fix>3d</fix>
</trkpt>
<trkpt lat="-27.274439" lon="151.290064">
  <ele>343.12</ele>
  <time>2026-09-01T20:02:32Z</time>
  <course>7.92</course>
  <speed>0.0</speed>
  <fix>3d</fix>
</trkpt>
<trkpt lat="-27.274439" lon="151.290064">
  <ele>343.21</ele>
  <time>2026-09-01T20:02:32Z</time>
  <course>10.71</course>
  <speed>0.0</speed>
  <fix>3d</fix>
</trkpt>
<trkpt lat="-27.274439" lon="151.290064">
  <ele>343.32</ele>
  <time>2026-09-01T20:02:32Z</time>
  <course>10.71</course>
  <speed>0.03</speed>
  <fix>3d</fix>
</trkpt>
<trkpt lat="-27.274439" lon="151.290064">
  <ele>343.19</ele>
  <time>2026-09-01T20:02:32Z</time>
  <course>7.25</course>
  <speed>0.0</speed>
  <fix>3d</fix>
</trkpt>
<trkpt lat="-27.274439" lon="151.290064">
  <ele>343.32</ele>
  <time>2026-09-01T20:02:32Z</time>
  <course>10.71</course>
  <speed>0.03</speed>
  <fix>3d</fix>
</trkpt>
<trkpt lat="-27.274439" lon="151.290064">
  <ele>343.49</ele>
  <time>2026-09-01T20:02:32Z</time>
  <course>10.71</course>
  <speed>0.06082762530298219</speed>
  <fix>3d</fix>
</trkpt>
<trkpt lat="-27.274439" lon="151.290064">
  <ele>343.19</ele>
  <time>2026-09-01T20:02:32Z</time>
  <course>7.25</course>
  <speed>0.0</speed>
  <fix>3d</fix>
</trkpt>
<trkpt lat="-27.274439" lon="151.290064">
  <ele>343.54</ele>
  <time>2026-09-01T20:02:32Z</time>
  <course>10.71</course>
  <speed>0.07071067811865475</speed>
  <fix>3d</fix>
</trkpt>
<trkpt lat="-27.2744389" lon="151.290064">
  <ele>343.7</ele>
  <time>2026-09-01T20:02:32Z</time>
  <course>10.71</course>
  <speed>0.09055385138137417</speed>
  <fix>3d</fix>
</trkpt>
<trkpt lat="-27.274439" lon="151.290064">
  <ele>343.38</ele>
  <time>2026-09-01T20:02:32Z</time>
  <course>6.8</course>
  <speed>0.03</speed>
  <fix>3d</fix>
</trkpt>
<trkpt lat="-27.2744389" lon="151.290064">
  <ele>343.76</ele>
  <time>2026-09-01T20:02:32Z</time>
  <course>10.71</course>
  <speed>0.1004987562112089</speed>
  <fix>3d</fix>
</trkpt>
<trkpt lat="-27.2744388" lon="151.290064">
  <ele>343.93</ele>
  <time>2026-09-01T20:02:32Z</time>
  <course>10.71</course>
  <speed>0.13152946437965907</speed>
  <fix>3d</fix>
</trkpt>
<trkpt lat="-27.274439" lon="151.290064">
  <ele>343.38</ele>
  <time>2026-09-01T20:02:32Z</time>
  <course>6.8</course>
  <speed>0.03</speed>
  <fix>3d</fix>
</trkpt>
<trkpt lat="-27.2744388" lon="151.290064">
  <ele>343.99</ele>
  <time>2026-09-01T20:02:32Z</time>
  <course>10.71</course>
  <speed>0.13152946437965907</speed>
  <fix>3d</fix>
</trkpt>
<trkpt lat="-27.2744387" lon="151.290064">
  <ele>344.16</ele>
  <time>2026-09-01T20:02:32Z</time>
  <course>10.7</course>
  <speed>0.15132745950421556</speed>
  <fix>3d</fix>
</trkpt>
<trkpt lat="-27.2744389" lon="151.290064">
  <ele>343.74</ele>
  <time>2026-09-01T20:02:32Z</time>
  <course>6.85</course>
  <speed>0.09</speed>
  <fix>3d</fix>
</trkpt>
<trkpt lat="-27.2744386" lon="151.290064">
  <ele>344.22</ele>
  <time>2026-09-01T20:02:32Z</time>
  <course>10.7</course>
  <speed>0.16124515496597097</speed>
  <fix>3d</fix>
</trkpt>
<trkpt lat="-27.2744385" lon="151.290064">
  <ele>344.39</ele>
  <time>2026-09-01T20:02:32Z</time>
  <course>10.7</course>
  <speed>0.1824828759089466</speed>
  <fix>3d</fix>
</trkpt>
<trkpt lat="-27.2744389" lon="151.290064">
  <ele>343.74</ele>
  <time>2026-09-01T20:02:32Z</time>
  <course>6.85</course>
  <speed>0.09</speed>
  <fix>3d</fix>
</trkpt>
<trkpt lat="-27.2744385" lon="151.2900641">
  <ele>344.44</ele>
  <time>2026-09-01T20:02:32Z</time>
  <course>10.69</course>
  <speed>0.1824828759089466</speed>
  <fix>3d</fix>
</trkpt>
<trkpt lat="-27.2744384" lon="151.2900641">
  <ele>344.62</ele>
  <time>2026-09-01T20:02:32Z</time>
  <course>10.69</course>
  <speed>0.20223748416156684</speed>
  <fix>3d</fix>
</trkpt>
<trkpt lat="-27.2744387" lon="151.290064">
  <ele>344.2</ele>
  <time>2026-09-01T20:02:32Z</time>
  <course>6.96</course>
  <speed>0.16</speed>
  <fix>3d</fix>
</trkpt>
<trkpt lat="-27.2744383" lon="151.2900641">
  <ele>344.67</ele>
  <time>2026-09-01T20:02:32Z</time>
  <course>10.69</course>
  <speed>0.20223748416156684</speed>
  <fix>3d</fix>
</trkpt>
<trkpt lat="-27.2744382" lon="151.2900641">
  <ele>344.85</ele>
  <time>2026-09-01T20:02:32Z</time>
  <course>10.68</course>
  <speed>0.2220360331117452</speed>
  <fix>3d</fix>
</trkpt>
<trkpt lat="-27.2744387" lon="151.290064">
  <ele>344.2</ele>
  <time>2026-09-01T20:02:32Z</time>
  <course>6.96</course>
  <speed>0.16</speed>
  <fix>3d</fix>
</trkpt>
<trkpt lat="-27.2744381" lon="151.2900641">
  <ele>344.9</ele>
  <time>2026-09-01T20:02:32Z</time>
  <course>10.68</course>
  <speed>0.2220360331117452</speed>
  <fix>3d</fix>
</trkpt>
<trkpt lat="-27.274438" lon="151.2900641">
  <ele>345.07</ele>
  <time>2026-09-01T20:02:32Z</time>
  <course>10.66</course>
  <speed>0.23194827009486402</speed>
  <fix>3d</fix>
</trkpt>
<trkpt lat="-27.2744384" lon="151.290064">
  <ele>344.66</ele>
  <time>2026-09-01T20:02:32Z</time>
  <course>7.04</course>
  <speed>0.2</speed>
  <fix>3d</fix>
</trkpt>
<trkpt lat="-27.2744379" lon="151.2900641">
  <ele>345.13</ele>
  <time>2026-09-01T20:02:32Z</time>
  <course>10.66</course>
  <speed>0.23345235059857505</speed>
  <fix>3d</fix>
</trkpt>
<trkpt lat="-27.2744378" lon="151.2900642">
  <ele>345.3</ele>
  <time>2026-09-01T20:02:32Z</time>
  <course>10.66</course>
  <speed>0.24331050121192876</speed>
  <fix>3d</fix>
</trkpt>
<trkpt lat="-27.2744384" lon="151.290064">
  <ele>344.66</ele>
  <time>2026-09-01T20:02:32Z</time>
  <course>7.04</course>
  <speed>0.2</speed>
  <fix>3d</fix>
</trkpt>
<trkpt lat="-27.2744377" lon="151.2900642">
  <ele>345.35</ele>
  <time>2026-09-01T20:02:32Z</time>
  <course>10.66</course>
  <speed>0.24331050121192876</speed>
  <fix>3d</fix>
</trkpt>
<trkpt lat="-27.2744376" lon="151.2900642">
  <ele>345.52</ele>
  <time>2026-09-01T20:02:32Z</time>
  <course>10.66</course>
  <speed>0.24331050121192876</speed>
  <fix>3d</fix>
</trkpt>
<trkpt lat="-27.2744379" lon="151.2900641">
  <ele>345.12</ele>
  <time>2026-09-01T20:02:32Z</time>
  <course>7.15</course>
  <speed>0.24</speed>
  <fix>3d</fix>
</trkpt>
<trkpt lat="-27.2744375" lon="151.2900642">
  <ele>345.53</ele>
  <time>2026-09-01T20:02:32Z</time>
  <course>10.66</course>
  <speed>0.24331050121192876</speed>
  <fix>3d</fix>
</trkpt>
<trkpt lat="-27.2744373" lon="151.2900642">
  <ele>345.73</ele>
  <time>2026-09-01T20:02:32Z</time>
  <course>10.66</course>
  <speed>0.24331050121192876</speed>
  <fix>3d</fix>
</trkpt>
<trkpt lat="-27.2744379" lon="151.2900641">
  <ele>345.12</ele>
  <time>2026-09-01T20:02:32Z</time>
  <course>7.15</course>
  <speed>0.24</speed>
  <fix>3d</fix>
</trkpt>
<trkpt lat="-27.2744373" lon="151.2900642">
  <ele>345.73</ele>
  <time>2026-09-01T20:02:32Z</time>
  <course>10.66</course>
  <speed>0.24331050121192876</speed>
  <fix>3d</fix>
</trkpt>
<trkpt lat="-27.2744371" lon="151.2900642">
  <ele>345.92</ele>
  <time>2026-09-01T20:02:32Z</time>
  <course>10.66</course>
  <speed>0.24186773244895649</speed>
  <fix>3d</fix>
</trkpt>
<trkpt lat="-27.2744375" lon="151.2900641">
  <ele>345.56</ele>
  <time>2026-09-01T20:02:32Z</time>
  <course>7.29</course>
  <speed>0.25</speed>
  <fix>3d</fix>
</trkpt>
<trkpt lat="-27.2744371" lon="151.2900642">
  <ele>345.97</ele>
  <time>2026-09-01T20:02:32Z</time>
  <course>10.66</course>
  <speed>0.24186773244895649</speed>
  <fix>3d</fix>
</trkpt>
<trkpt lat="-27.2744369" lon="151.2900643">
  <ele>346.11</ele>
  <time>2026-09-01T20:02:32Z</time>
  <course>10.66</course>
  <speed>0.23194827009486402</speed>
  <fix>3d</fix>
</trkpt>
<trkpt lat="-27.2744375" lon="151.2900641">
  <ele>345.56</ele>
  <time>2026-09-01T20:02:32Z</time>
  <course>7.29</course>
  <speed>0.25</speed>
  <fix>3d</fix>
</trkpt>
<trkpt lat="-27.2744368" lon="151.2900643">
  <ele>346.16</ele>
  <time>2026-09-01T20:02:32Z</time>
  <course>10.66</course>
  <speed>0.23194827009486402</speed>
  <fix>3d</fix>
</trkpt>
<trkpt lat="-27.2744367" lon="151.2900643">
  <ele>346.29</ele>
  <time>2026-09-01T20:02:32Z</time>
  <course>10.66</course>
  <speed>0.2220360331117452</speed>
  <fix>3d</fix>
</trkpt>
<trkpt lat="-27.2744371" lon="151.2900642">
  <ele>345.96</ele>
  <time>2026-09-01T20:02:32Z</time>
  <course>7.47</course>
  <speed>0.25</speed>
  <fix>3d</fix>
</trkpt>
<trkpt lat="-27.2744366" lon="151.2900643">
  <ele>346.33</ele>
  <time>2026-09-01T20:02:32Z</time>
  <course>10.66</course>
  <speed>0.2220360331117452</speed>
  <fix>3d</fix>
</trkpt>
<trkpt lat="-27.2744365" lon="151.2900643">
  <ele>346.45</ele>
  <time>2026-09-01T20:02:32Z</time>
  <course>10.66</course>
  <speed>0.20223748416156684</speed>
  <fix>3d</fix>
</trkpt>
<trkpt lat="-27.2744371" lon="151.2900642">
  <ele>345.96</ele>
  <time>2026-09-01T20:02:32Z</time>
  <course>7.47</course>
  <speed>0.25</speed>
  <fix>3d</fix>
</trkpt>
<trkpt lat="-27.2744365" lon="151.2900643">
  <ele>346.49</ele>
  <time>2026-09-01T20:02:32Z</time>
  <course>10.66</course>
  <speed>0.20223748416156684</speed>
  <fix>3d</fix>
</trkpt>
<trkpt lat="-27.2744363" lon="151.2900643">
  <ele>346.61</ele>
  <time>2026-09-01T20:02:32Z</time>
  <course>10.67</course>
  <speed>0.191049731745428</speed>
  <fix>3d</fix>
</trkpt>
<trkpt lat="-27.2744367" lon="151.2900642">
  <ele>346.32</ele>
  <time>2026-09-01T20:02:32Z</time>
  <course>7.71</course>
  <speed>0.23</speed>
  <fix>3d</fix>
</trkpt>
<trkpt lat="-27.2744363" lon="151.2900643">
  <ele>346.65</ele>
  <time>2026-09-01T20:02:32Z</time>
  <course>10.67</course>
  <speed>0.18110770276274835</speed>
  <fix>3d</fix>
</trkpt>
<trkpt lat="-27.2744362" lon="151.2900643">
  <ele>346.76</ele>
  <time>2026-09-01T20:02:32Z</time>
  <course>10.67</course>
  <speed>0.1711724276862369</speed>
  <fix>3d</fix>
</trkpt>
<trkpt lat="-27.2744367" lon="151.2900642">
  <ele>346.32</ele>
  <time>2026-09-01T20:02:32Z</time>
  <course>7.71</course>
  <speed>0.23</speed>
  <fix>3d</fix>
</trkpt>
<trkpt lat="-27.2744361" lon="151.2900643">
  <ele>346.8</ele>
  <time>2026-09-01T20:02:32Z</time>
  <course>10.67</course>
  <speed>0.16124515496597097</speed>
  <fix>3d</fix>
</trkpt>
<trkpt lat="-27.274436" lon="151.2900644">
  <ele>346.91</ele>
  <time>2026-09-01T20:02:32Z</time>
  <course>10.68</course>
  <speed>0.15132745950421556</speed>
  <fix>3d</fix>
</trkpt>
<trkpt lat="-27.2744363" lon="151.2900643">
  <ele>346.64</ele>
  <time>2026-09-01T20:02:32Z</time>
  <course>8.1</course>
  <speed>0.2</speed>
  <fix>3d</fix>
</trkpt>
<trkpt lat="-27.274436" lon="151.2900644">
  <ele>346.94</ele>
  <time>2026-09-01T20:02:32Z</time>
  <course>10.68</course>
  <speed>0.1414213562373095</speed>
  <fix>3d</fix>
</trkpt>
<trkpt lat="-27.2744359" lon="151.2900644">
  <ele>347.05</ele>
  <time>2026-09-01T20:02:32Z</time>
  <course>10.69</course>
  <speed>0.130384048104053</speed>
  <fix>3d</fix>
</trkpt>
<trkpt lat="-27.2744363" lon="151.2900643">
  <ele>346.64</ele>
  <time>2026-09-01T20:02:32Z</time>
  <course>8.1</course>
  <speed>0.2</speed>
  <fix>3d</fix>
</trkpt>
<trkpt lat="-27.2744359" lon="151.2900644">
  <ele>347.08</ele>
  <time>2026-09-01T20:02:32Z</time>
  <course>10.69</course>
  <speed>0.12041594578792296</speed>
  <fix>3d</fix>
</trkpt>
<trkpt lat="-27.2744358" lon="151.2900644">
  <ele>347.19</ele>
  <time>2026-09-01T20:02:32Z</time>
  <course>10.7</course>
  <speed>0.1004987562112089</speed>
  <fix>3d</fix>
</trkpt>
<trkpt lat="-27.2744359" lon="151.2900644">
  <ele>346.93</ele>
  <time>2026-09-01T20:02:32Z</time>
  <course>8.82</course>
  <speed>0.16</speed>
  <fix>3d</fix>
</trkpt>
<trkpt lat="-27.2744357" lon="151.2900644">
  <ele>347.22</ele>
  <time>2026-09-01T20:02:32Z</time>
  <course>10.7</course>
  <speed>0.1004987562112089</speed>
  <fix>3d</fix>
</trkpt>
<trkpt lat="-27.2744357" lon="151.2900644">
  <ele>347.32</ele>
  <time>2026-09-01T20:02:32Z</time>
  <course>10.7</course>
  <speed>0.08062257748298549</speed>
  <fix>3d</fix>
</trkpt>
<trkpt lat="-27.2744359" lon="151.2900644">
  <ele>346.93</ele>
  <time>2026-09-01T20:02:32Z</time>
  <course>8.82</course>
  <speed>0.16</speed>
  <fix>3d</fix>
</trkpt>
<trkpt lat="-27.2744357" lon="151.2900644">
  <ele>347.33</ele>
  <time>2026-09-01T20:02:32Z</time>
  <course>10.7</course>
  <speed>0.08062257748298549</speed>
  <fix>3d</fix>
</trkpt>
<trkpt lat="-27.2744356" lon="151.2900644">
  <ele>347.46</ele>
  <time>2026-09-01T20:02:32Z</time>
  <course>10.71</course>
  <speed>0.06</speed>
  <fix>3d</fix>
</trkpt>
<trkpt lat="-27.2744357" lon="151.2900644">
  <ele>347.2</ele>
  <time>2026-09-01T20:02:32Z</time>
  <course>10.23</course>
  <speed>0.12</speed>
  <fix>3d</fix>
</trkpt>
<trkpt lat="-27.2744356" lon="151.2900644">
  <ele>347.46</ele>
  <time>2026-09-01T20:02:32Z</time>
  <course>10.71</course>
  <speed>0.06</speed>
  <fix>3d</fix>
</trkpt>
<trkpt lat="-27.2744355" lon="151.2900644">
  <ele>347.59</ele>
  <time>2026-09-01T20:02:32Z</time>
  <course>10.72</course>
  <speed>0.04</speed>
  <fix>3d</fix>
</trkpt>
<trkpt lat="-27.2744357" lon="151.2900644">
  <ele>347.2</ele>
  <time>2026-09-01T20:02:32Z</time>
  <course>10.23</course>
  <speed>0.12</speed>
  <fix>3d</fix>
</trkpt>
<trkpt lat="-27.2744355" lon="151.2900644">
  <ele>347.63</ele>
  <time>2026-09-01T20:02:32Z</time>
  <course>10.72</course>
  <speed>0.03</speed>
  <fix>3d</fix>
</trkpt>
<trkpt lat="-27.2744355" lon="151.2900644">
  <ele>347.72</ele>
  <time>2026-09-01T20:02:32Z</time>
  <course>10.73</course>
  <speed>0.02</speed>
  <fix>3d</fix>
</trkpt>
<trkpt lat="-27.2744355" lon="151.2900645">
  <ele>347.46</ele>
  <time>2026-09-01T20:02:32Z</time>
  <course>13.35</course>
  <speed>0.07</speed>
  <fix>3d</fix>
</trkpt>
<trkpt lat="-27.2744355" lon="151.2900644">
  <ele>347.75</ele>
  <time>2026-09-01T20:02:32Z</time>
  <course>10.73</course>
  <speed>0.01</speed>
  <fix>3d</fix>
</trkpt>
<trkpt lat="-27.2744355" lon="151.2900644">
  <ele>347.85</ele>
  <time>2026-09-01T20:02:32Z</time>
  <course>10.74</course>
  <speed>0.0</speed>
  <fix>3d</fix>
</trkpt>
<trkpt lat="-27.2744355" lon="151.2900645">
  <ele>347.46</ele>
  <time>2026-09-01T20:02:32Z</time>
  <course>13.35</course>
  <speed>0.07</speed>
  <fix>3d</fix>
</trkpt>
<trkpt lat="-27.2744355" lon="151.2900644">
  <ele>347.86</ele>
  <time>2026-09-01T20:02:32Z</time>
  <course>10.74</course>
  <speed>0.0</speed>
  <fix>3d</fix>
</trkpt>
<trkpt lat="-27.2744355" lon="151.2900644">
  <ele>347.98</ele>
  <time>2026-09-01T20:02:32Z</time>
  <course>10.76</course>
  <speed>0.01</speed>
  <fix>3d</fix>
</trkpt>
<trkpt lat="-27.2744354" lon="151.2900645">
  <ele>347.72</ele>
  <time>2026-09-01T20:02:32Z</time>
  <course>24.03</course>
  <speed>0.03</speed>
  <fix>3d</fix>
</trkpt>
<trkpt lat="-27.2744355" lon="151.2900644">
  <ele>348.02</ele>
  <time>2026-09-01T20:02:32Z</time>
  <course>10.77</course>
  <speed>0.02</speed>
  <fix>3d</fix>
</trkpt>
<trkpt lat="-27.2744355" lon="151.2900645">
  <ele>348.12</ele>
  <time>2026-09-01T20:02:32Z</time>
  <course>10.8</course>
  <speed>0.03</speed>
  <fix>3d</fix>
</trkpt>
<trkpt lat="-27.2744354" lon="151.2900645">
  <ele>347.72</ele>
  <time>2026-09-01T20:02:32Z</time>
  <course>24.03</course>
  <speed>0.03</speed>
  <fix>3d</fix>
</trkpt>
<trkpt lat="-27.2744355" lon="151.2900645">
  <ele>348.15</ele>
  <time>2026-09-01T20:02:32Z</time>
  <course>10.82</course>
  <speed>0.03</speed>
  <fix>3d</fix>
</trkpt>
<trkpt lat="-27.2744355" lon="151.2900645">
  <ele>348.25</ele>
  <time>2026-09-01T20:02:32Z</time>
  <course>10.88</course>
  <speed>0.0412310562561766</speed>
  <fix>3d</fix>
</trkpt>
<trkpt lat="-27.2744354" lon="151.2900645">
  <ele>347.97</ele>
  <time>2026-09-01T20:02:32Z</time>
  <course>147.92</course>
  <speed>0.01</speed>
  <fix>3d</fix>
</trkpt>
<trkpt lat="-27.2744355" lon="151.2900645">
  <ele>348.29</ele>
  <time>2026-09-01T20:02:32Z</time>
  <course>10.91</course>
  <speed>0.05099019513592785</speed>
  <fix>3d</fix>
</trkpt>
<trkpt lat="-27.2744355" lon="151.2900645">
  <ele>348.39</ele>
  <time>2026-09-01T20:02:32Z</time>
  <course>10.99</course>
  <speed>0.06082762530298219</speed>
  <fix>3d</fix>
</trkpt>
<trkpt lat="-27.2744354" lon="151.2900645">
  <ele>347.97</ele>
  <time>2026-09-01T20:02:32Z</time>
  <course>147.92</course>
  <speed>0.01</speed>
  <fix>3d</fix>
</trkpt>
<trkpt lat="-27.2744355" lon="151.2900645">
  <ele>348.42</ele>
  <time>2026-09-01T20:02:32Z</time>
  <course>11.0</course>
  <speed>0.06082762530298219</speed>
  <fix>3d</fix>
</trkpt>
<trkpt lat="-27.2744355" lon="151.2900645">
  <ele>348.53</ele>
  <time>2026-09-01T20:02:32Z</time>
  <course>11.04</course>
  <speed>0.07071067811865475</speed>
  <fix>3d</fix>
</trkpt>
<trkpt lat="-27.2744354" lon="151.2900645">
  <ele>348.24</ele>
  <time>2026-09-01T20:02:32Z</time>
  <course>181.61</course>
  <speed>0.04</speed>
  <fix>3d</fix>
</trkpt>
<trkpt lat="-27.2744355" lon="151.2900645">
  <ele>348.56</ele>
  <time>2026-09-01T20:02:32Z</time>
  <course>11.04</course>
  <speed>0.08062257748298549</speed>
  <fix>3d</fix>
</trkpt>
<trkpt lat="-27.2744356" lon="151.2900645">
  <ele>348.67</ele>
  <time>2026-09-01T20:02:32Z</time>
  <course>11.04</course>
  <speed>0.08062257748298549</speed>
  <fix>3d</fix>
</trkpt>
<trkpt lat="-27.2744354" lon="151.2900645">
  <ele>348.24</ele>
  <time>2026-09-01T20:02:32Z</time>
  <course>181.61</course>
  <speed>0.04</speed>
  <fix>3d</fix>
</trkpt>
<trkpt lat="-27.2744356" lon="151.2900645">
  <ele>348.7</ele>
  <time>2026-09-01T20:02:32Z</time>
  <course>11.04</course>
  <speed>0.09055385138137417</speed>
  <fix>3d</fix>
</trkpt>
<trkpt lat="-27.2744357" lon="151.2900645">
  <ele>348.81</ele>
  <time>2026-09-01T20:02:32Z</time>
  <course>11.02</course>
  <speed>0.09055385138137417</speed>
  <fix>3d</fix>
</trkpt>
<trkpt lat="-27.2744355" lon="151.2900645">
  <ele>348.52</ele>
  <time>2026-09-01T20:02:32Z</time>
  <course>186.07</course>
  <speed>0.07</speed>
  <fix>3d</fix>
</trkpt>
<trkpt lat="-27.2744357" lon="151.2900645">
  <ele>348.81</ele>
  <time>2026-09-01T20:02:32Z</time>
  <course>11.02</course>
  <speed>0.09055385138137417</speed>
  <fix>3d</fix>
</trkpt>
<trkpt lat="-27.2744357" lon="151.2900645">
  <ele>348.95</ele>
  <time>2026-09-01T20:02:32Z</time>
  <course>10.98</course>
  <speed>0.1004987562112089</speed>
  <fix>3d</fix>
</trkpt>
<trkpt lat="-27.2744355" lon="151.2900645">
  <ele>348.52</ele>
  <time>2026-09-01T20:02:32Z</time>
  <course>186.07</course>
  <speed>0.07</speed>
  <fix>3d</fix>
</trkpt>
<trkpt lat="-27.2744358" lon="151.2900645">
  <ele>348.96</ele>
  <time>2026-09-01T20:02:32Z</time>
  <course>10.98</course>
  <speed>0.1004987562112089</speed>
  <fix>3d</fix>
</trkpt>
<trkpt lat="-27.2744358" lon="151.2900645">
  <ele>349.09</ele>
  <time>2026-09-01T20:02:32Z</time>
  <course>10.93</course>
  <speed>0.1118033988749895</speed>
  <fix>3d</fix>
</trkpt>
<trkpt lat="-27.2744355" lon="151.2900645">
  <ele>348.8</ele>
  <time>2026-09-01T20:02:32Z</time>
  <course>186.55</course>
  <speed>0.09</speed>
  <fix>3d</fix>
</trkpt>
<trkpt lat="-27.2744359" lon="151.2900645">
  <ele>349.13</ele>
  <time>2026-09-01T20:02:32Z</time>
  <course>10.92</course>
  <speed>0.1118033988749895</speed>
  <fix>3d</fix>
</trkpt>
<trkpt lat="-27.2744359" lon="151.2900645">
  <ele>349.24</ele>
  <time>2026-09-01T20:02:32Z</time>
  <course>10.88</course>
  <speed>0.1118033988749895</speed>
  <fix>3d</fix>
</trkpt>
<trkpt lat="-27.2744355" lon="151.2900645">
  <ele>348.8</ele>
  <time>2026-09-01T20:02:32Z</time>
  <course>186.55</course>
  <speed>0.09</speed>
  <fix>3d</fix>
</trkpt>
<trkpt lat="-27.2744359" lon="151.2900644">
  <ele>349.27</ele>
  <time>2026-09-01T20:02:32Z</time>
  <course>10.87</course>
  <speed>0.1118033988749895</speed>
  <fix>3d</fix>
</trkpt>
<trkpt lat="-27.274436" lon="151.2900644">
  <ele>349.38</ele>
  <time>2026-09-01T20:02:32Z</time>
  <course>10.85</course>
  <speed>0.12165525060596438</speed>
  <fix>3d</fix>
</trkpt>
<trkpt lat="-27.2744358" lon="151.2900645">
  <ele>349.08</ele>
  <time>2026-09-01T20:02:32Z</time>
  <course>186.71</course>
  <speed>0.11</speed>
  <fix>3d</fix>
</trkpt>
<trkpt lat="-27.274436" lon="151.2900644">
  <ele>349.42</ele>
  <time>2026-09-01T20:02:32Z</time>
  <course>10.85</course>
  <speed>0.12165525060596438</speed>
  <fix>3d</fix>
</trkpt>
<trkpt lat="-27.2744361" lon="151.2900644">
  <ele>349.52</ele>
  <time>2026-09-01T20:02:32Z</time>
  <course>10.83</course>
  <speed>0.12165525060596438</speed>
  <fix>3d</fix>
</trkpt>
<trkpt lat="-27.2744358" lon="151.2900645">
  <ele>349.08</ele>
  <time>2026-09-01T20:02:32Z</time>
  <course>186.71</course>
  <speed>0.11</speed>
  <fix>3d</fix>
</trkpt>
<trkpt lat="-27.2744361" lon="151.2900644">
  <ele>349.56</ele>
  <time>2026-09-01T20:02:32Z</time>
  <course>10.83</course>
  <speed>0.12165525060596438</speed>
  <fix>3d</fix>
</trkpt>
<trkpt lat="-27.2744362" lon="151.2900644">
  <ele>349.67</ele>
  <time>2026-09-01T20:02:32Z</time>
  <course>10.82</course>
  <speed>0.12165525060596438</speed>
  <fix>3d</fix>
</trkpt>
<trkpt lat="-27.274436" lon="151.2900645">
  <ele>349.38</ele>
  <time>2026-09-01T20:02:32Z</time>
  <course>186.83</course>
  <speed>0.12</speed>
  <fix>3d</fix>
</trkpt>
<trkpt lat="-27.2744363" lon="151.2900644">
  <ele>349.71</ele>
  <time>2026-09-01T20:02:32Z</time>
  <course>10.82</course>
  <speed>0.13152946437965907</speed>
  <fix>3d</fix>
</trkpt>
<trkpt lat="-27.2744363" lon="151.2900644">
  <ele>349.81</ele>
  <time>2026-09-01T20:02:32Z</time>
  <course>10.82</course>
  <speed>0.13152946437965907</speed>
  <fix>3d</fix>
</trkpt>
<trkpt lat="-27.274436" lon="151.2900645">
  <ele>349.38</ele>
  <time>2026-09-01T20:02:32Z</time>
  <course>186.83</course>
  <speed>0.12</speed>
  <fix>3d</fix>
</trkpt>
<trkpt lat="-27.2744364" lon="151.2900644">
  <ele>349.85</ele>
  <time>2026-09-01T20:02:32Z</time>
  <course>10.82</course>
  <speed>0.13152946437965907</speed>
  <fix>3d</fix>
</trkpt>
<trkpt lat="-27.2744365" lon="151.2900644">
  <ele>349.96</ele>
  <time>2026-09-01T20:02:32Z</time>
  <course>10.82</course>
  <speed>0.13152946437965907</speed>
  <fix>3d</fix>
</trkpt>
<trkpt lat="-27.2744363" lon="151.2900645">
  <ele>349.67</ele>
  <time>2026-09-01T20:02:32Z</time>
  <course>187.22</course>
  <speed>0.13</speed>
  <fix>3d</fix>
</trkpt>
<trkpt lat="-27.2744365" lon="151.2900644">
  <ele>350.0</ele>
  <time>2026-09-01T20:02:32Z</time>
  <course>10.81</course>
  <speed>0.13152946437965907</speed>
  <fix>3d</fix>
</trkpt>
<trkpt lat="-27.2744366" lon="151.2900644">
  <ele>350.11</ele>
  <time>2026-09-01T20:02:32Z</time>
  <course>10.82</course>
  <speed>0.13152946437965907</speed>
  <fix>3d</fix>
</trkpt>
<trkpt lat="-27.2744363" lon="151.2900645">
  <ele>349.67</ele>
  <time>2026-09-01T20:02:32Z</time>
  <course>187.22</course>
  <speed>0.13</speed>
  <fix>3d</fix>
</trkpt>
<trkpt lat="-27.2744366" lon="151.2900644">
  <ele>350.14</ele>
  <time>2026-09-01T20:02:32Z</time>
  <course>10.82</course>
  <speed>0.13152946437965907</speed>
  <fix>3d</fix>
</trkpt>
<trkpt lat="-27.2744367" lon="151.2900644">
  <ele>350.25</ele>
  <time>2026-09-01T20:02:32Z</time>
  <course>10.82</course>
  <speed>0.13152946437965907</speed>
  <fix>3d</fix>
</trkpt>
<trkpt lat="-27.2744365" lon="151.2900645">
  <ele>349.96</ele>
  <time>2026-09-01T20:02:32Z</time>
  <course>187.46</course>
  <speed>0.14</speed>
  <fix>3d</fix>
</trkpt>
<trkpt lat="-27.2744367" lon="151.2900644">
  <ele>350.29</ele>
  <time>2026-09-01T20:02:32Z</time>
  <course>10.82</course>
  <speed>0.130384048104053</speed>
  <fix>3d</fix>
</trkpt>
<trkpt lat="-27.2744368" lon="151.2900644">
  <ele>350.4</ele>
  <time>2026-09-01T20:02:32Z</time>
  <course>10.81</course>
  <speed>0.130384048104053</speed>
  <fix>3d</fix>
</trkpt>
<trkpt lat="-27.2744365" lon="151.2900645">
  <ele>349.96</ele>
  <time>2026-09-01T20:02:32Z</time>
  <course>187.46</course>
  <speed>0.14</speed>
  <fix>3d</fix>
</trkpt>
<trkpt lat="-27.2744368" lon="151.2900644">
  <ele>350.41</ele>
  <time>2026-09-01T20:02:32Z</time>
  <course>10.81</course>
  <speed>0.140356688476182</speed>
  <fix>3d</fix>
</trkpt>
<trkpt lat="-27.2744369" lon="151.2900644">
  <ele>350.55</ele>
  <time>2026-09-01T20:02:32Z</time>
  <course>10.8</course>
  <speed>0.140356688476182</speed>
  <fix>3d</fix>
</trkpt>
<trkpt lat="-27.2744367" lon="151.2900644">
  <ele>350.26</ele>
  <time>2026-09-01T20:02:32Z</time>
  <course>187.54</course>
  <speed>0.14</speed>
  <fix>3d</fix>
</trkpt>
<trkpt lat="-27.274437" lon="151.2900644">
  <ele>350.55</ele>
  <time>2026-09-01T20:02:32Z</time>
  <course>10.8</course>
  <speed>0.140356688476182</speed>
  <fix>3d</fix>
</trkpt>
<trkpt lat="-27.2744371" lon="151.2900644">
  <ele>350.7</ele>
  <time>2026-09-01T20:02:32Z</time>
  <course>10.78</course>
  <speed>0.130384048104053</speed>
  <fix>3d</fix>
</trkpt>
<trkpt lat="-27.2744367" lon="151.2900644">
  <ele>350.26</ele>
  <time>2026-09-01T20:02:32Z</time>
  <course>187.54</course>
  <speed>0.14</speed>
  <fix>3d</fix>
</trkpt>
<trkpt lat="-27.2744371" lon="151.2900644">
  <ele>350.74</ele>
  <time>2026-09-01T20:02:32Z</time>
  <course>10.78</course>
  <speed>0.130384048104053</speed>
  <fix>3d</fix>
</trkpt>
<trkpt lat="-27.2744372" lon="151.2900644">
  <ele>350.85</ele>
  <time>2026-09-01T20:02:32Z</time>
  <course>10.76</course>
  <speed>0.130384048104053</speed>
  <fix>3d</fix>
</trkpt>
<trkpt lat="-27.274437" lon="151.2900644">
  <ele>350.55</ele>
  <time>2026-09-01T20:02:32Z</time>
  <course>187.66</course>
  <speed>0.14</speed>
  <fix>3d</fix>
</trkpt>
<trkpt lat="-27.2744372" lon="151.2900644">
  <ele>350.89</ele>
  <time>2026-09-01T20:02:32Z</time>
  <course>10.75</course>
  <speed>0.130384048104053</speed>
  <fix>3d</fix>
</trkpt>
<trkpt lat="-27.2744373" lon="151.2900644">
  <ele>350.99</ele>
  <time>2026-09-01T20:02:32Z</time>
  <course>10.73</course>
  <speed>0.13</speed>
  <fix>3d</fix>
</trkpt>
<trkpt lat="-27.274437" lon="151.2900644">
  <ele>350.55</ele>
  <time>2026-09-01T20:02:32Z</time>
  <course>187.66</course>
  <speed>0.14</speed>
  <fix>3d</fix>
</trkpt>
<trkpt lat="-27.2744374" lon="151.2900644">
  <ele>351.03</ele>
  <time>2026-09-01T20:02:32Z</time>
  <course>10.72</course>
  <speed>0.130384048104053</speed>
  <fix>3d</fix>
</trkpt>
<trkpt lat="-27.2744374" lon="151.2900644">
  <ele>351.14</ele>
  <time>2026-09-01T20:02:32Z</time>
  <course>10.71</course>
  <speed>0.13</speed>
  <fix>3d</fix>
</trkpt>
<trkpt lat="-27.2744373" lon="151.2900644">
  <ele>350.84</ele>
  <time>2026-09-01T20:02:32Z</time>
  <course>187.87</course>
  <speed>0.14</speed>
  <fix>3d</fix>
</trkpt>
<trkpt lat="-27.2744375" lon="151.2900644">
  <ele>351.18</ele>
  <time>2026-09-01T20:02:32Z</time>
  <course>10.7</course>
  <speed>0.13</speed>
  <fix>3d</fix>
</trkpt>
<trkpt lat="-27.2744376" lon="151.2900644">
  <ele>351.28</ele>
  <time>2026-09-01T20:02:32Z</time>
  <course>10.68</course>
  <speed>0.13</speed>
  <fix>3d</fix>
</trkpt>
<trkpt lat="-27.2744373" lon="151.2900644">
  <ele>350.84</ele>
  <time>2026-09-01T20:02:32Z</time>
  <course>187.87</course>
  <speed>0.14</speed>
  <fix>3d</fix>
</trkpt>
<trkpt lat="-27.2744376" lon="151.2900643">
  <ele>351.32</ele>
  <time>2026-09-01T20:02:32Z</time>
  <course>10.68</course>
  <speed>0.130384048104053</speed>
  <fix>3d</fix>
</trkpt>
<trkpt lat="-27.2744377" lon="151.2900643">
  <ele>351.43</ele>
  <time>2026-09-01T20:02:32Z</time>
  <course>10.65</course>
  <speed>0.130384048104053</speed>
  <fix>3d</fix>
</trkpt>
<trkpt lat="-27.2744375" lon="151.2900643">
  <ele>351.13</ele>
  <time>2026-09-01T20:02:32Z</time>
  <course>188.22</course>
  <speed>0.14</speed>
  <fix>3d</fix>
</trkpt>
<trkpt lat="-27.2744377" lon="151.2900643">
  <ele>351.43</ele>
  <time>2026-09-01T20:02:32Z</time>
  <course>10.65</course>
  <speed>0.130384048104053</speed>
  <fix>3d</fix>
</trkpt>
<trkpt lat="-27.2744378" lon="151.2900643">
  <ele>351.57</ele>
  <time>2026-09-01T20:02:32Z</time>
  <course>10.61</course>
  <speed>0.130384048104053</speed>
  <fix>3d</fix>
</trkpt>
<trkpt lat="-27.2744375" lon="151.2900643">
  <ele>351.13</ele>
  <time>2026-09-01T20:02:32Z</time>
  <course>188.22</course>
  <speed>0.14</speed>
  <fix>3d</fix>
</trkpt>
<trkpt lat="-27.2744378" lon="151.2900643">
  <ele>351.58</ele>
  <time>2026-09-01T20:02:32Z</time>
  <course>10.61</course>
  <speed>0.130384048104053</speed>
  <fix>3d</fix>
</trkpt>
<trkpt lat="-27.2744379" lon="151.2900643">
  <ele>351.71</ele>
  <time>2026-09-01T20:02:32Z</time>
  <course>10.58</course>
  <speed>0.13</speed>
  <fix>3d</fix>
</trkpt>
<trkpt lat="-27.2744378" lon="151.2900642">
  <ele>351.42</ele>
  <time>2026-09-01T20:02:32Z</time>
  <course>188.38</course>
  <speed>0.13</speed>
  <fix>3d</fix>
</trkpt>
<trkpt lat="-27.274438" lon="151.2900643">
  <ele>351.75</ele>
  <time>2026-09-01T20:02:32Z</time>
  <course>10.58</course>
  <speed>0.13</speed>
  <fix>3d</fix>
</trkpt>
<trkpt lat="-27.2744381" lon="151.2900643">
  <ele>351.86</ele>
  <time>2026-09-01T20:02:32Z</time>
  <course>10.57</course>
  <speed>0.12</speed>
  <fix>3d</fix>
</trkpt>
<trkpt lat="-27.2744378" lon="151.2900642">
  <ele>351.42</ele>
  <time>2026-09-01T20:02:32Z</time>
  <course>188.38</course>
  <speed>0.13</speed>
  <fix>3d</fix>
</trkpt>
<trkpt lat="-27.2744381" lon="151.2900643">
  <ele>351.89</ele>
  <time>2026-09-01T20:02:32Z</time>
  <course>10.57</course>
  <speed>0.12</speed>
  <fix>3d</fix>
</trkpt>
<trkpt lat="-27.2744382" lon="151.2900643">
  <ele>352.0</ele>
  <time>2026-09-01T20:02:32Z</time>
  <course>10.57</course>
  <speed>0.12</speed>
  <fix>3d</fix>
</trkpt>
<trkpt lat="-27.274438" lon="151.2900642">
  <ele>351.71</ele>
  <time>2026-09-01T20:02:32Z</time>
  <course>188.33</course>
  <speed>0.13</speed>
  <fix>3d</fix>
</trkpt>
<trkpt lat="-27.2744382" lon="151.2900643">
  <ele>352.0</ele>
  <time>2026-09-01T20:02:32Z</time>
  <course>10.57</course>
  <speed>0.12</speed>
  <fix>3d</fix>
</trkpt>
<trkpt lat="-27.2744383" lon="151.2900643">
  <ele>352.14</ele>
  <time>2026-09-01T20:02:32Z</time>
  <course>10.58</course>
  <speed>0.12</speed>
  <fix>3d</fix>
</trkpt>
<trkpt lat="-27.274438" lon="151.2900642">
  <ele>351.71</ele>
  <time>2026-09-01T20:02:32Z</time>
  <course>188.33</course>
  <speed>0.13</speed>
  <fix>3d</fix>
</trkpt>
<trkpt lat="-27.2744383" lon="151.2900643">
  <ele>352.15</ele>
  <time>2026-09-01T20:02:32Z</time>
  <course>10.58</course>
  <speed>0.12</speed>
  <fix>3d</fix>
</trkpt>
<trkpt lat="-27.2744384" lon="151.2900643">
  <ele>352.28</ele>
  <time>2026-09-01T20:02:32Z</time>
  <course>10.58</course>
  <speed>0.11</speed>
  <fix>3d</fix>
</trkpt>
<trkpt lat="-27.2744383" lon="151.2900642">
  <ele>351.99</ele>
  <time>2026-09-01T20:02:32Z</time>
  <course>188.58</course>
  <speed>0.12</speed>
  <fix>3d</fix>
</trkpt>
<trkpt lat="-27.2744384" lon="151.2900643">
  <ele>352.32</ele>
  <time>2026-09-01T20:02:32Z</time>
  <course>10.57</course>
  <speed>0.11</speed>
  <fix>3d</fix>
</trkpt>
<trkpt lat="-27.2744385" lon="151.2900642">
  <ele>352.43</ele>
  <time>2026-09-01T20:02:32Z</time>
  <course>10.55</course>
  <speed>0.11</speed>
  <fix>3d</fix>
</trkpt>
<trkpt lat="-27.2744383" lon="151.2900642">
  <ele>351.99</ele>
  <time>2026-09-01T20:02:32Z</time>
  <course>188.58</course>
  <speed>0.12</speed>
  <fix>3d</fix>
</trkpt>
<trkpt lat="-27.2744385" lon="151.2900642">
  <ele>352.46</ele>
  <time>2026-09-01T20:02:32Z</time>
  <course>10.55</course>
  <speed>0.11</speed>
  <fix>3d</fix>
</trkpt>
<trkpt lat="-27.2744386" lon="151.2900642">
  <ele>352.57</ele>
  <time>2026-09-01T20:02:32Z</time>
  <course>10.52</course>
  <speed>0.11</speed>
  <fix>3d</fix>
</trkpt>
<trkpt lat="-27.2744385" lon="151.2900642">
  <ele>352.28</ele>
  <time>2026-09-01T20:02:32Z</time>
  <course>189.06</course>
  <speed>0.12</speed>
  <fix>3d</fix>
</trkpt>
<trkpt lat="-27.2744386" lon="151.2900642">
  <ele>352.61</ele>
  <time>2026-09-01T20:02:32Z</time>
  <course>10.51</course>
  <speed>0.11</speed>
  <fix>3d</fix>
</trkpt>
<trkpt lat="-27.2744387" lon="151.2900642">
  <ele>352.72</ele>
  <time>2026-09-01T20:02:32Z</time>
  <course>10.49</course>
  <speed>0.1</speed>
  <fix>3d</fix>
</trkpt>
<trkpt lat="-27.2744385" lon="151.2900642">
  <ele>352.28</ele>
  <time>2026-09-01T20:02:32Z</time>
  <course>189.06</course>
  <speed>0.12</speed>
  <fix>3d</fix>
</trkpt>
<trkpt lat="-27.2744387" lon="151.2900642">
  <ele>352.75</ele>
  <time>2026-09-01T20:02:32Z</time>
  <course>10.48</course>
  <speed>0.1</speed>
  <fix>3d</fix>
</trkpt>
<trkpt lat="-27.2744388" lon="151.2900642">
  <ele>352.86</ele>
  <time>2026-09-01T20:02:32Z</time>
  <course>10.45</course>
  <speed>0.1</speed>
  <fix>3d</fix>
</trkpt>
<trkpt lat="-27.2744387" lon="151.2900641">
  <ele>352.56</ele>
  <time>2026-09-01T20:02:32Z</time>
  <course>189.53</course>
  <speed>0.11</speed>
  <fix>3d</fix>
</trkpt>
<trkpt lat="-27.2744388" lon="151.2900642">
  <ele>352.9</ele>
  <time>2026-09-01T20:02:32Z</time>
  <course>10.44</course>
  <speed>0.1</speed>
  <fix>3d</fix>
</trkpt>
<trkpt lat="-27.2744389" lon="151.2900642">
  <ele>353.0</ele>
  <time>2026-09-01T20:02:32Z</time>
  <course>10.42</course>
  <speed>0.09</speed>
  <fix>3d</fix>
</trkpt>
<trkpt lat="-27.2744387" lon="151.2900641">
  <ele>352.56</ele>
  <time>2026-09-01T20:02:32Z</time>
  <course>189.53</course>
  <speed>0.11</speed>
  <fix>3d</fix>
</trkpt>
<trkpt lat="-27.2744389" lon="151.2900642">
  <ele>353.04</ele>
  <time>2026-09-01T20:02:32Z</time>
  <course>10.41</course>
  <speed>0.09</speed>
  <fix>3d</fix>
</trkpt>
<trkpt lat="-27.274439" lon="151.2900642">
  <ele>353.15</ele>
  <time>2026-09-01T20:02:32Z</time>
  <course>10.39</course>
  <speed>0.09</speed>
  <fix>3d</fix>
</trkpt>
<trkpt lat="-27.2744389" lon="151.2900641">
  <ele>352.84</ele>
  <time>2026-09-01T20:02:32Z</time>
  <course>189.77</course>
  <speed>0.1</speed>
  <fix>3d</fix>
</trkpt>
<trkpt lat="-27.274439" lon="151.2900642">
  <ele>353.19</ele>
  <time>2026-09-01T20:02:32Z</time>
  <course>10.39</course>
  <speed>0.09</speed>
  <fix>3d</fix>
</trkpt>
<trkpt lat="-27.2744391" lon="151.2900642">
  <ele>353.29</ele>
  <time>2026-09-01T20:02:32Z</time>
  <course>10.39</course>
  <speed>0.08</speed>
  <fix>3d</fix>
</trkpt>
<trkpt lat="-27.2744389" lon="151.2900641">
  <ele>352.84</ele>
  <time>2026-09-01T20:02:32Z</time>
  <course>189.77</course>
  <speed>0.1</speed>
  <fix>3d</fix>
</trkpt>
<trkpt lat="-27.2744391" lon="151.2900642">
  <ele>353.33</ele>
  <time>2026-09-01T20:02:32Z</time>
  <course>10.39</course>
  <speed>0.08</speed>
  <fix>3d</fix>
</trkpt>
<trkpt lat="-27.2744391" lon="151.2900642">
  <ele>353.43</ele>
  <time>2026-09-01T20:02:32Z</time>
  <course>10.39</course>
  <speed>0.08</speed>
  <fix>3d</fix>
</trkpt>
<trkpt lat="-27.2744391" lon="151.2900641">
  <ele>353.13</ele>
  <time>2026-09-01T20:02:32Z</time>
  <course>189.99</course>
  <speed>0.08</speed>
  <fix>3d</fix>
</trkpt>
<trkpt lat="-27.2744392" lon="151.2900642">
  <ele>353.47</ele>
  <time>2026-09-01T20:02:32Z</time>
  <course>10.39</course>
  <speed>0.08</speed>
  <fix>3d</fix>
</trkpt>
<trkpt lat="-27.2744392" lon="151.2900642">
  <ele>353.58</ele>
  <time>2026-09-01T20:02:32Z</time>
  <course>10.4</course>
  <speed>0.07</speed>
  <fix>3d</fix>
</trkpt>
<trkpt lat="-27.2744391" lon="151.2900641">
  <ele>353.13</ele>
  <time>2026-09-01T20:02:32Z</time>
  <course>189.99</course>
  <speed>0.08</speed>
  <fix>3d</fix>
</trkpt>
<trkpt lat="-27.2744392" lon="151.2900642">
  <ele>353.58</ele>
  <time>2026-09-01T20:02:32Z</time>
  <course>10.4</course>
  <speed>0.07071067811865475</speed>
  <fix>3d</fix>
</trkpt>
<trkpt lat="-27.2744393" lon="151.2900642">
  <ele>353.72</ele>
  <time>2026-09-01T20:02:32Z</time>
  <course>10.4</course>
  <speed>0.07</speed>
  <fix>3d</fix>
</trkpt>
<trkpt lat="-27.2744392" lon="151.290064">
  <ele>353.41</ele>
  <time>2026-09-01T20:02:32Z</time>
  <course>190.81</course>
  <speed>0.07</speed>
  <fix>3d</fix>
</trkpt>
<trkpt lat="-27.2744393" lon="151.2900642">
  <ele>353.73</ele>
  <time>2026-09-01T20:02:32Z</time>
  <course>10.4</course>
  <speed>0.07</speed>
  <fix>3d</fix>
</trkpt>
<trkpt lat="-27.2744393" lon="151.2900642">
  <ele>353.86</ele>
  <time>2026-09-01T20:02:32Z</time>
  <course>10.4</course>
  <speed>0.06</speed>
  <fix>3d</fix>
</trkpt>
<trkpt lat="-27.2744392" lon="151.290064">
  <ele>353.41</ele>
  <time>2026-09-01T20:02:32Z</time>
  <course>190.81</course>
  <speed>0.07</speed>
  <fix>3d</fix>
</trkpt>
<trkpt lat="-27.2744394" lon="151.2900642">
  <ele>353.9</ele>
  <time>2026-09-01T20:02:32Z</time>
  <course>10.39</course>
  <speed>0.06082762530298219</speed>
  <fix>3d</fix>
</trkpt>
<trkpt lat="-27.2744394" lon="151.2900642">
  <ele>354.0</ele>
  <time>2026-09-01T20:02:32Z</time>
  <course>10.37</course>
  <speed>0.06082762530298219</speed>
  <fix>3d</fix>
</trkpt>
<trkpt lat="-27.2744393" lon="151.290064">
  <ele>353.7</ele>
  <time>2026-09-01T20:02:32Z</time>
  <course>192.03</course>
  <speed>0.06</speed>
  <fix>3d</fix>
</trkpt>
<trkpt lat="-27.2744394" lon="151.2900642">
  <ele>354.04</ele>
  <time>2026-09-01T20:02:32Z</time>
  <course>10.37</course>
  <speed>0.06082762530298219</speed>
  <fix>3d</fix>
</trkpt>
<trkpt lat="-27.2744394" lon="151.2900642">
  <ele>354.15</ele>
  <time>2026-09-01T20:02:32Z</time>
  <course>10.35</course>
  <speed>0.05099019513592785</speed>
  <fix>3d</fix>
</trkpt>
<trkpt lat="-27.2744393" lon="151.290064">
  <ele>353.7</ele>
  <time>2026-09-01T20:02:32Z</time>
  <course>192.03</course>
  <speed>0.06</speed>
  <fix>3d</fix>
</trkpt>
<trkpt lat="-27.2744395" lon="151.2900642">
  <ele>354.18</ele>
  <time>2026-09-01T20:02:32Z</time>
  <course>10.34</course>
  <speed>0.05099019513592785</speed>
  <fix>3d</fix>
</trkpt>
<trkpt lat="-27.2744395" lon="151.2900642">
  <ele>354.29</ele>
  <time>2026-09-01T20:02:32Z</time>
  <course>10.31</course>
  <speed>0.05099019513592785</speed>
  <fix>3d</fix>
</trkpt>
<trkpt lat="-27.2744394" lon="151.290064">
  <ele>353.99</ele>
  <time>2026-09-01T20:02:32Z</time>
  <course>192.9</course>
  <speed>0.05</speed>
  <fix>3d</fix>
</trkpt>
<trkpt lat="-27.2744395" lon="151.2900642">
  <ele>354.33</ele>
  <time>2026-09-01T20:02:32Z</time>
  <course>10.31</course>
  <speed>0.05099019513592785</speed>
  <fix>3d</fix>
</trkpt>
<trkpt lat="-27.2744395" lon="151.2900642">
  <ele>354.43</ele>
  <time>2026-09-01T20:02:32Z</time>
  <course>10.3</course>
  <speed>0.0412310562561766</speed>
  <fix>3d</fix>
</trkpt>
<trkpt lat="-27.2744394" lon="151.290064">
  <ele>353.99</ele>
  <time>2026-09-01T20:02:32Z</time>
  <course>192.9</course>
  <speed>0.05</speed>
  <fix>3d</fix>
</trkpt>
<trkpt lat="-27.2744395" lon="151.2900642">
  <ele>354.47</ele>
  <time>2026-09-01T20:02:32Z</time>
  <course>10.3</course>
  <speed>0.0412310562561766</speed>
  <fix>3d</fix>
</trkpt>
<trkpt lat="-27.2744396" lon="151.2900642">
  <ele>354.58</ele>
  <time>2026-09-01T20:02:32Z</time>
  <course>10.3</course>
  <speed>0.0412310562561766</speed>
  <fix>3d</fix>
</trkpt>
<trkpt lat="-27.2744395" lon="151.290064">
  <ele>354.28</ele>
  <time>2026-09-01T20:02:32Z</time>
  <course>193.81</course>
  <speed>0.04</speed>
  <fix>3d</fix>
</trkpt>
<trkpt lat="-27.2744396" lon="151.2900642">
  <ele>354.61</ele>
  <time>2026-09-01T20:02:32Z</time>
  <course>10.3</course>
  <speed>0.0412310562561766</speed>
  <fix>3d</fix>
</trkpt>
<trkpt lat="-27.2744396" lon="151.2900642">
  <ele>354.72</ele>
  <time>2026-09-01T20:02:32Z</time>
  <course>10.31</course>
  <speed>0.0316227766016838</speed>
  <fix>3d</fix>
</trkpt>
<trkpt lat="-27.2744395" lon="151.290064">
  <ele>354.28</ele>
  <time>2026-09-01T20:02:32Z</time>
  <course>193.81</course>
  <speed>0.04</speed>
  <fix>3d</fix>
</trkpt>
<trkpt lat="-27.2744396" lon="151.2900642">
  <ele>354.75</ele>
  <time>2026-09-01T20:02:32Z</time>
  <course>10.32</course>
  <speed>0.0316227766016838</speed>
  <fix>3d</fix>
</trkpt>
<trkpt lat="-27.2744396" lon="151.2900642">
  <ele>354.86</ele>
  <time>2026-09-01T20:02:32Z</time>
  <course>10.33</course>
  <speed>0.0316227766016838</speed>
  <fix>3d</fix>
</trkpt>
<trkpt lat="-27.2744396" lon="151.2900639">
  <ele>354.56</ele>
  <time>2026-09-01T20:02:32Z</time>
  <course>195.89</course>
  <speed>0.03</speed>
  <fix>3d</fix>
</trkpt>
<trkpt lat="-27.2744396" lon="151.2900642">
  <ele>354.9</ele>
  <time>2026-09-01T20:02:32Z</time>
  <course>10.33</course>
  <speed>0.0316227766016838</speed>
  <fix>3d</fix>
</trkpt>
<trkpt lat="-27.2744396" lon="151.2900641">
  <ele>355.01</ele>
  <time>2026-09-01T20:02:32Z</time>
  <course>10.35</course>
  <speed>0.022360679774997897</speed>
  <fix>3d</fix>
</trkpt>
<trkpt lat="-27.2744396" lon="151.2900639">
  <ele>354.56</ele>
  <time>2026-09-01T20:02:32Z</time>
  <course>195.89</course>
  <speed>0.03</speed>
  <fix>3d</fix>
</trkpt>
<trkpt lat="-27.2744396" lon="151.2900642">
  <ele>355.01</ele>
  <time>2026-09-01T20:02:32Z</time>
  <course>10.36</course>
  <speed>0.022360679774997897</speed>
  <fix>3d</fix>
</trkpt>
<trkpt lat="-27.2744397" lon="151.2900641">
  <ele>355.15</ele>
  <time>2026-09-01T20:02:32Z</time>
  <course>10.38</course>
  <speed>0.022360679774997897</speed>
  <fix>3d</fix>
</trkpt>
<trkpt lat="-27.2744396" lon="151.2900639">
  <ele>354.85</ele>
  <time>2026-09-01T20:02:32Z</time>
  <course>202.29</course>
  <speed>0.02</speed>
  <fix>3d</fix>
</trkpt>
<trkpt lat="-27.2744397" lon="151.2900641">
  <ele>355.16</ele>
  <time>2026-09-01T20:02:32Z</time>
  <course>10.38</course>
  <speed>0.022360679774997897</speed>
  <fix>3d</fix>
</trkpt>
<trkpt lat="-27.2744397" lon="151.2900641">
  <ele>355.3</ele>
  <time>2026-09-01T20:02:32Z</time>
  <course>10.41</course>
  <speed>0.01414213562373095</speed>
  <fix>3d</fix>
</trkpt>
<trkpt lat="-27.2744396" lon="151.2900639">
  <ele>354.85</ele>
  <time>2026-09-01T20:02:32Z</time>
  <course>202.29</course>
  <speed>0.02</speed>
  <fix>3d</fix>
</trkpt>
<trkpt lat="-27.2744397" lon="151.2900641">
  <ele>355.33</ele>
  <time>2026-09-01T20:02:32Z</time>
  <course>10.41</course>
  <speed>0.01414213562373095</speed>
  <fix>3d</fix>
</trkpt>
<trkpt lat="-27.2744397" lon="151.2900641">
  <ele>355.44</ele>
  <time>2026-09-01T20:02:32Z</time>
  <course>10.43</course>
  <speed>0.01414213562373095</speed>
  <fix>3d</fix>
</trkpt>
<trkpt lat="-27.2744397" lon="151.2900639">
  <ele>355.14</ele>
  <time>2026-09-01T20:02:32Z</time>
  <course>218.91</course>
  <speed>0.01</speed>
  <fix>3d</fix>
</trkpt>
<trkpt lat="-27.2744397" lon="151.2900641">
  <ele>355.48</ele>
  <time>2026-09-01T20:02:32Z</time>
  <course>10.43</course>
  <speed>0.01414213562373095</speed>
  <fix>3d</fix>
</trkpt>
<trkpt lat="-27.2744397" lon="151.2900641">
  <ele>355.58</ele>
  <time>2026-09-01T20:02:32Z</time>
  <course>10.45</course>
  <speed>0.01414213562373095</speed>
  <fix>3d</fix>
</trkpt>
<trkpt lat="-27.2744397" lon="151.2900639">
  <ele>355.14</ele>
  <time>2026-09-01T20:02:32Z</time>
  <course>218.91</course>
  <speed>0.01</speed>
  <fix>3d</fix>
</trkpt>
<trkpt lat="-27.2744397" lon="151.2900641">
  <ele>355.61</ele>
  <time>2026-09-01T20:02:32Z</time>
  <course>10.45</course>
  <speed>0.01414213562373095</speed>
  <fix>3d</fix>
</trkpt>
<trkpt lat="-27.2744397" lon="151.2900641">
  <ele>355.72</ele>
  <time>2026-09-01T20:02:32Z</time>
  <course>10.46</course>
  <speed>0.0</speed>
  <fix>3d</fix>
</trkpt>
<trkpt lat="-27.2744397" lon="151.2900639">
  <ele>355.43</ele>
  <time>2026-09-01T20:02:32Z</time>
  <course>258.35</course>
  <speed>0.0</speed>
  <fix>3d</fix>
</trkpt>
<trkpt lat="-27.2744397" lon="151.2900641">
  <ele>355.76</ele>
  <time>2026-09-01T20:02:32Z</time>
  <course>10.46</course>
  <speed>0.0</speed>
  <fix>3d</fix>
</trkpt>
<trkpt lat="-27.2744397" lon="151.2900641">
  <ele>355.87</ele>
  <time>2026-09-01T20:02:32Z</time>
  <course>10.47</course>
  <speed>0.0</speed>
  <fix>3d</fix>
</trkpt>
<trkpt lat="-27.2744397" lon="151.2900639">
  <ele>355.43</ele>
  <time>2026-09-01T20:02:32Z</time>
  <course>258.35</course>
  <speed>0.0</speed>
  <fix>3d</fix>
</trkpt>
<trkpt lat="-27.2744397" lon="151.2900641">
  <ele>355.9</ele>
  <time>2026-09-01T20:02:32Z</time>
  <course>10.47</course>
  <speed>0.0</speed>
  <fix>3d</fix>
</trkpt>
<trkpt lat="-27.2744397" lon="151.2900641">
  <ele>356.01</ele>
  <time>2026-09-01T20:02:32Z</time>
  <course>10.47</course>
  <speed>0.0</speed>
  <fix>3d</fix>
</trkpt>
<trkpt lat="-27.2744397" lon="151.2900639">
  <ele>355.71</ele>
  <time>2026-09-01T20:02:32Z</time>
  <course>303.94</course>
  <speed>0.01</speed>
  <fix>3d</fix>
</trkpt>
<trkpt lat="-27.2744397" lon="151.2900641">
  <ele>356.05</ele>
  <time>2026-09-01T20:02:32Z</time>
  <course>10.47</course>
  <speed>0.0</speed>
  <fix>3d</fix>
</trkpt>
<trkpt lat="-27.2744397" lon="151.2900641">
  <ele>356.16</ele>
  <time>2026-09-01T20:02:32Z</time>
  <course>10.47</course>
  <speed>0.0</speed>
  <fix>3d</fix>
</trkpt>
<trkpt lat="-27.2744397" lon="151.2900639">
  <ele>355.71</ele>
  <time>2026-09-01T20:02:32Z</time>
  <course>303.94</course>
  <speed>0.01</speed>
  <fix>3d</fix>
</trkpt>
<trkpt lat="-27.2744397" lon="151.2900641">
  <ele>356.16</ele>
  <time>2026-09-01T20:02:32Z</time>
  <course>10.47</course>
  <speed>0.0</speed>
  <fix>3d</fix>
</trkpt>
<trkpt lat="-27.2744397" lon="151.290064">
  <ele>356.3</ele>
  <time>2026-09-01T20:02:32Z</time>
  <course>10.47</course>
  <speed>0.0</speed>
  <fix>3d</fix>
</trkpt>
<trkpt lat="-27.2744397" lon="151.2900638">
  <ele>356.0</ele>
  <time>2026-09-01T20:02:32Z</time>
  <course>325.66</course>
  <speed>0.01</speed>
  <fix>3d</fix>
</trkpt>
<trkpt lat="-27.2744397" lon="151.290064">
  <ele>356.34</ele>
  <time>2026-09-01T20:02:32Z</time>
  <course>10.47</course>
  <speed>0.0</speed>
  <fix>3d</fix>
</trkpt>
<trkpt lat="-27.2744396" lon="151.290064">
  <ele>356.45</ele>
  <time>2026-09-01T20:02:32Z</time>
  <course>10.47</course>
  <speed>0.0</speed>
  <fix>3d</fix>
</trkpt>
<trkpt lat="-27.2744397" lon="151.2900638">
  <ele>356.0</ele>
  <time>2026-09-01T20:02:32Z</time>
  <course>325.66</course>
  <speed>0.01</speed>
  <fix>3d</fix>
</trkpt>
<trkpt lat="-27.2744396" lon="151.290064">
  <ele>356.48</ele>
  <time>2026-09-01T20:02:32Z</time>
  <course>10.47</course>
  <speed>0.0</speed>
  <fix>3d</fix>
</trkpt>
<trkpt lat="-27.2744396" lon="151.290064">
  <ele>356.59</ele>
  <time>2026-09-01T20:02:32Z</time>
  <course>10.47</course>
  <speed>0.01</speed>
  <fix>3d</fix>
</trkpt>
<trkpt lat="-27.2744397" lon="151.2900637">
  <ele>356.29</ele>
  <time>2026-09-01T20:02:32Z</time>
  <course>336.52</course>
  <speed>0.02</speed>
  <fix>3d</fix>
</trkpt>
<trkpt lat="-27.2744396" lon="151.290064">
  <ele>356.6</ele>
  <time>2026-09-01T20:02:32Z</time>
  <course>10.47</course>
  <speed>0.01</speed>
  <fix>3d</fix>
</trkpt>
<trkpt lat="-27.2744396" lon="151.290064">
  <ele>356.73</ele>
  <time>2026-09-01T20:02:32Z</time>
  <course>10.47</course>
  <speed>0.01</speed>
  <fix>3d</fix>
</trkpt>
<trkpt lat="-27.2744397" lon="151.2900637">
  <ele>356.29</ele>
  <time>2026-09-01T20:02:32Z</time>
  <course>336.52</course>
  <speed>0.02</speed>
  <fix>3d</fix>
</trkpt>
<trkpt lat="-27.2744396" lon="151.290064">
  <ele>356.74</ele>
  <time>2026-09-01T20:02:32Z</time>
  <course>10.47</course>
  <speed>0.01</speed>
  <fix>3d</fix>
</trkpt>
<trkpt lat="-27.2744396" lon="151.290064">
  <ele>356.88</ele>
  <time>2026-09-01T20:02:32Z</time>
  <course>10.47</course>
  <speed>0.01</speed>
  <fix>3d</fix>
</trkpt>
<trkpt lat="-27.2744397" lon="151.2900637">
  <ele>356.58</ele>
  <time>2026-09-01T20:02:32Z</time>
  <course>343.7</course>
  <speed>0.02</speed>
  <fix>3d</fix>
</trkpt>
<trkpt lat="-27.2744396" lon="151.290064">
  <ele>356.91</ele>
  <time>2026-09-01T20:02:32Z</time>
  <course>10.47</course>
  <speed>0.01</speed>
  <fix>3d</fix>
</trkpt>
<trkpt lat="-27.2744396" lon="151.2900639">
  <ele>357.02</ele>
  <time>2026-09-01T20:02:32Z</time>
  <course>10.48</course>
  <speed>0.01</speed>
  <fix>3d</fix>
</trkpt>
<trkpt lat="-27.2744397" lon="151.2900637">
  <ele>356.58</ele>
  <time>2026-09-01T20:02:32Z</time>
  <course>343.7</course>
  <speed>0.02</speed>
  <fix>3d</fix>
</trkpt>
<trkpt lat="-27.2744396" lon="151.2900639">
  <ele>357.1</ele>
  <time>2026-09-01T20:02:32Z</time>
  <course>10.49</course>
  <speed>0.01</speed>
  <fix>3d</fix>
</trkpt>
<trkpt lat="-27.2744396" lon="151.2900639">
  <ele>357.16</ele>
  <time>2026-09-01T20:02:32Z</time>
  <course>10.49</course>
  <speed>0.01</speed>
  <fix>3d</fix>
</trkpt>
<trkpt lat="-27.2744396" lon="151.2900637">
  <ele>356.86</ele>
  <time>2026-09-01T20:02:32Z</time>
  <course>349.03</course>
  <speed>0.03</speed>
  <fix>3d</fix>
</trkpt>
<trkpt lat="-27.2744396" lon="151.2900639">
  <ele>357.19</ele>
  <time>2026-09-01T20:02:32Z</time>
  <course>10.5</course>
  <speed>0.01</speed>
  <fix>3d</fix>
</trkpt>
<trkpt lat="-27.2744396" lon="151.2900639">
  <ele>357.31</ele>
  <time>2026-09-01T20:02:32Z</time>
  <course>10.51</course>
  <speed>0.02</speed>
  <fix>3d</fix>
</trkpt>
<trkpt lat="-27.2744396" lon="151.2900637">
  <ele>356.86</ele>
  <time>2026-09-01T20:02:32Z</time>
  <course>349.03</course>
  <speed>0.03</speed>
  <fix>3d</fix>
</trkpt>
<trkpt lat="-27.2744396" lon="151.2900639">
  <ele>357.34</ele>
  <time>2026-09-01T20:02:32Z</time>
  <course>10.52</course>
  <speed>0.02</speed>
  <fix>3d</fix>
</trkpt>
<trkpt lat="-27.2744396" lon="151.2900639">
  <ele>357.45</ele>
  <time>2026-09-01T20:02:32Z</time>
  <course>10.53</course>
  <speed>0.02</speed>
  <fix>3d</fix>
</trkpt>
<trkpt lat="-27.2744395" lon="151.2900637">
  <ele>357.15</ele>
  <time>2026-09-01T20:02:32Z</time>
  <course>352.75</course>
  <speed>0.03</speed>
  <fix>3d</fix>
</trkpt>
<trkpt lat="-27.2744396" lon="151.2900639">
  <ele>357.49</ele>
  <time>2026-09-01T20:02:32Z</time>
  <course>10.54</course>
  <speed>0.02</speed>
  <fix>3d</fix>
</trkpt>
<trkpt lat="-27.2744396" lon="151.2900639">
  <ele>357.59</ele>
  <time>2026-09-01T20:02:32Z</time>
  <course>10.56</course>
  <speed>0.02</speed>
  <fix>3d</fix>
</trkpt>
<trkpt lat="-27.2744395" lon="151.2900637">
  <ele>357.15</ele>
  <time>2026-09-01T20:02:32Z</time>
  <course>352.75</course>
  <speed>0.03</speed>
  <fix>3d</fix>
</trkpt>
<trkpt lat="-27.2744396" lon="151.2900639">
  <ele>357.62</ele>
  <time>2026-09-01T20:02:32Z</time>
  <course>10.56</course>
  <speed>0.02</speed>
  <fix>3d</fix>
</trkpt>
<trkpt lat="-27.2744395" lon="151.2900639">
  <ele>357.73</ele>
  <time>2026-09-01T20:02:32Z</time>
  <course>10.58</course>
  <speed>0.02</speed>
  <fix>3d</fix>
</trkpt>
<trkpt lat="-27.2744395" lon="151.2900637">
  <ele>357.44</ele>
  <time>2026-09-01T20:02:32Z</time>
  <course>354.93</course>
  <speed>0.04</speed>
  <fix>3d</fix>
</trkpt>
<trkpt lat="-27.2744395" lon="151.2900639">
  <ele>357.77</ele>
  <time>2026-09-01T20:02:32Z</time>
  <course>10.59</course>
  <speed>0.02</speed>
  <fix>3d</fix>
</trkpt>
<trkpt lat="-27.2744395" lon="151.2900638">
  <ele>357.87</ele>
  <time>2026-09-01T20:02:32Z</time>
  <course>10.6</course>
  <speed>0.02</speed>
  <fix>3d</fix>
</trkpt>
<trkpt lat="-27.2744395" lon="151.2900637">
  <ele>357.44</ele>
  <time>2026-09-01T20:02:32Z</time>
  <course>354.93</course>
  <speed>0.04</speed>
  <fix>3d</fix>
</trkpt>
<trkpt lat="-27.2744395" lon="151.2900638">
  <ele>357.91</ele>
  <time>2026-09-01T20:02:32Z</time>
  <course>10.61</course>
  <speed>0.02</speed>
  <fix>3d</fix>
</trkpt>
<trkpt lat="-27.2744395" lon="151.2900638">
  <ele>358.01</ele>
  <time>2026-09-01T20:02:32Z</time>
  <course>10.62</course>
  <speed>0.02</speed>
  <fix>3d</fix>
</trkpt>
<trkpt lat="-27.2744394" lon="151.2900637">
  <ele>357.72</ele>
  <time>2026-09-01T20:02:32Z</time>
  <course>356.43</course>
  <speed>0.04</speed>
  <fix>3d</fix>
</trkpt>
<trkpt lat="-27.2744395" lon="151.2900638">
  <ele>358.02</ele>
  <time>2026-09-01T20:02:32Z</time>
  <course>10.62</course>
  <speed>0.02</speed>
  <fix>3d</fix>
</trkpt>
<trkpt lat="-27.2744394" lon="151.2900638">
  <ele>358.16</ele>
  <time>2026-09-01T20:02:32Z</time>
  <course>10.63</course>
  <speed>0.02</speed>
  <fix>3d</fix>
</trkpt>
<trkpt lat="-27.2744394" lon="151.2900637">
  <ele>357.72</ele>
  <time>2026-09-01T20:02:32Z</time>
  <course>356.43</course>
  <speed>0.04</speed>
  <fix>3d</fix>
</trkpt>
<trkpt lat="-27.2744394" lon="151.2900638">
  <ele>358.16</ele>
  <time>2026-09-01T20:02:32Z</time>
  <course>10.63</course>
  <speed>0.02</speed>
  <fix>3d</fix>
</trkpt>
<trkpt lat="-27.2744394" lon="151.2900638">
  <ele>358.3</ele>
  <time>2026-09-01T20:02:32Z</time>
  <course>10.64</course>
  <speed>0.02</speed>
  <fix>3d</fix>
</trkpt>
<trkpt lat="-27.2744393" lon="151.2900637">
  <ele>358.01</ele>
  <time>2026-09-01T20:02:32Z</time>
  <course>358.46</course>
  <speed>0.04</speed>
  <fix>3d</fix>
</trkpt>
<trkpt lat="-27.2744394" lon="151.2900638">
  <ele>358.31</ele>
  <time>2026-09-01T20:02:32Z</time>
  <course>10.64</course>
  <speed>0.02</speed>
  <fix>3d</fix>
</trkpt>
<trkpt lat="-27.2744394" lon="151.2900638">
  <ele>358.45</ele>
  <time>2026-09-01T20:02:32Z</time>
  <course>10.65</course>
  <speed>0.02</speed>
  <fix>3d</fix>
</trkpt>
<trkpt lat="-27.2744393" lon="151.2900637">
  <ele>358.01</ele>
  <time>2026-09-01T20:02:32Z</time>
  <course>358.46</course>
  <speed>0.04</speed>
  <fix>3d</fix>
</trkpt>
<trkpt lat="-27.2744393" lon="151.2900638">
  <ele>358.48</ele>
  <time>2026-09-01T20:02:32Z</time>
  <course>10.65</course>
  <speed>0.02</speed>
  <fix>3d</fix>
</trkpt>
<trkpt lat="-27.2744393" lon="151.2900638">
  <ele>358.59</ele>
  <time>2026-09-01T20:02:32Z</time>
  <course>10.66</course>
  <speed>0.02</speed>
  <fix>3d</fix>
</trkpt>
<trkpt lat="-27.2744392" lon="151.2900637">
  <ele>358.3</ele>
  <time>2026-09-01T20:02:32Z</time>
  <course>1.1</course>
  <speed>0.04</speed>
  <fix>3d</fix>
</trkpt>
<trkpt lat="-27.2744393" lon="151.2900638">
  <ele>358.63</ele>
  <time>2026-09-01T20:02:32Z</time>
  <course>10.66</course>
  <speed>0.02</speed>
  <fix>3d</fix>
</trkpt>
<trkpt lat="-27.2744393" lon="151.2900638">
  <ele>358.74</ele>
  <time>2026-09-01T20:02:32Z</time>
  <course>10.67</course>
  <speed>0.02</speed>
  <fix>3d</fix>
</trkpt>
<trkpt lat="-27.2744392" lon="151.2900637">
  <ele>358.3</ele>
  <time>2026-09-01T20:02:32Z</time>
  <course>1.1</course>
  <speed>0.04</speed>
  <fix>3d</fix>
</trkpt>
<trkpt lat="-27.2744393" lon="151.2900638">
  <ele>358.77</ele>
  <time>2026-09-01T20:02:32Z</time>
  <course>10.67</course>
  <speed>0.02</speed>
  <fix>3d</fix>
</trkpt>
<trkpt lat="-27.2744392" lon="151.2900638">
  <ele>358.88</ele>
  <time>2026-09-01T20:02:32Z</time>
  <course>10.68</course>
  <speed>0.02</speed>
  <fix>3d</fix>
</trkpt>
<trkpt lat="-27.2744391" lon="151.2900637">
  <ele>358.59</ele>
  <time>2026-09-01T20:02:32Z</time>
  <course>3.79</course>
  <speed>0.04</speed>
  <fix>3d</fix>
</trkpt>
<trkpt lat="-27.2744392" lon="151.2900638">
  <ele>358.92</ele>
  <time>2026-09-01T20:02:32Z</time>
  <course>10.68</course>
  <speed>0.02</speed>
  <fix>3d</fix>
</trkpt>
<trkpt lat="-27.2744392" lon="151.2900638">
  <ele>359.03</ele>
  <time>2026-09-01T20:02:32Z</time>
  <course>10.69</course>
  <speed>0.02</speed>
  <fix>3d</fix>
</trkpt>
<trkpt lat="-27.2744391" lon="151.2900637">
  <ele>358.59</ele>
  <time>2026-09-01T20:02:32Z</time>
  <course>3.79</course>
  <speed>0.04</speed>
  <fix>3d</fix>
</trkpt>
<trkpt lat="-27.2744392" lon="151.2900638">
  <ele>359.07</ele>
  <time>2026-09-01T20:02:32Z</time>
  <course>10.7</course>
  <speed>0.02</speed>
  <fix>3d</fix>
</trkpt>
<trkpt lat="-27.2744392" lon="151.2900638">
  <ele>359.18</ele>
  <time>2026-09-01T20:02:32Z</time>
  <course>10.7</course>
  <speed>0.02</speed>
  <fix>3d</fix>
</trkpt>
<trkpt lat="-27.2744391" lon="151.2900637">
  <ele>358.88</ele>
  <time>2026-09-01T20:02:32Z</time>
  <course>5.6</course>
  <speed>0.04</speed>
  <fix>3d</fix>
</trkpt>
<trkpt lat="-27.2744391" lon="151.2900638">
  <ele>359.21</ele>
  <time>2026-09-01T20:02:32Z</time>
  <course>10.7</course>
  <speed>0.02</speed>
  <fix>3d</fix>
</trkpt>
<trkpt lat="-27.2744391" lon="151.2900638">
  <ele>359.32</ele>
  <time>2026-09-01T20:02:32Z</time>
  <course>10.71</course>
  <speed>0.02</speed>
  <fix>3d</fix>
</trkpt>
<trkpt lat="-27.2744391" lon="151.2900637">
  <ele>358.88</ele>
  <time>2026-09-01T20:02:32Z</time>
  <course>5.6</course>
  <speed>0.04</speed>
  <fix>3d</fix>
</trkpt>
<trkpt lat="-27.2744391" lon="151.2900638">
  <ele>359.36</ele>
  <time>2026-09-01T20:02:32Z</time>
  <course>10.72</course>
  <speed>0.02</speed>
  <fix>3d</fix>
</trkpt>
<trkpt lat="-27.2744391" lon="151.2900638">
  <ele>359.47</ele>
  <time>2026-09-01T20:02:32Z</time>
  <course>10.72</course>
  <speed>0.02</speed>
  <fix>3d</fix>
</trkpt>
<trkpt lat="-27.274439" lon="151.2900637">
  <ele>359.16</ele>
  <time>2026-09-01T20:02:32Z</time>
  <course>7.08</course>
  <speed>0.04</speed>
  <fix>3d</fix>
</trkpt>
<trkpt lat="-27.2744391" lon="151.2900638">
  <ele>359.5</ele>
  <time>2026-09-01T20:02:32Z</time>
  <course>10.73</course>
  <speed>0.02</speed>
  <fix>3d</fix>
</trkpt>
<trkpt lat="-27.274439" lon="151.2900638">
  <ele>359.61</ele>
  <time>2026-09-01T20:02:32Z</time>
  <course>10.73</course>
  <speed>0.02</speed>
  <fix>3d</fix>
</trkpt>
<trkpt lat="-27.274439" lon="151.2900637">
  <ele>359.16</ele>
  <time>2026-09-01T20:02:32Z</time>
  <course>7.08</course>
  <speed>0.04</speed>
  <fix>3d</fix>
</trkpt>
<trkpt lat="-27.274439" lon="151.2900638">
  <ele>359.61</ele>
  <time>2026-09-01T20:02:32Z</time>
  <course>10.73</course>
  <speed>0.02</speed>
  <fix>3d</fix>
</trkpt>
<trkpt lat="-27.274439" lon="151.2900638">
  <ele>359.75</ele>
  <time>2026-09-01T20:02:32Z</time>
  <course>10.74</course>
  <speed>0.02</speed>
  <fix>3d</fix>
</trkpt>
<trkpt lat="-27.2744389" lon="151.2900637">
  <ele>359.45</ele>
  <time>2026-09-01T20:02:32Z</time>
  <course>8.82</course>
  <speed>0.04</speed>
  <fix>3d</fix>
</trkpt>
<trkpt lat="-27.274439" lon="151.2900638">
  <ele>359.76</ele>
  <time>2026-09-01T20:02:32Z</time>
  <course>10.74</course>
  <speed>0.02</speed>
  <fix>3d</fix>
</trkpt>
<trkpt lat="-27.274439" lon="151.2900638">
  <ele>359.9</ele>
  <time>2026-09-01T20:02:32Z</time>
  <course>10.75</course>
  <speed>0.02</speed>
  <fix>3d</fix>
</trkpt>
<trkpt lat="-27.2744389" lon="151.2900637">
  <ele>359.45</ele>
  <time>2026-09-01T20:02:32Z</time>
  <course>8.82</course>
  <speed>0.04</speed>
  <fix>3d</fix>
</trkpt>
<trkpt lat="-27.274439" lon="151.2900638">
  <ele>359.94</ele>
  <time>2026-09-01T20:02:32Z</time>
  <course>10.75</course>
  <speed>0.02</speed>
  <fix>3d</fix>
</trkpt>
<trkpt lat="-27.2744389" lon="151.2900638">
  <ele>360.04</ele>
  <time>2026-09-01T20:02:32Z</time>
  <course>10.75</course>
  <speed>0.02</speed>
  <fix>3d</fix>
</trkpt>
<trkpt lat="-27.2744388" lon="151.2900637">
  <ele>359.74</ele>
  <time>2026-09-01T20:02:32Z</time>
  <course>10.59</course>
  <speed>0.04</speed>
  <fix>3d</fix>
</trkpt>
<trkpt lat="-27.2744389" lon="151.2900638">
  <ele>360.08</ele>
  <time>2026-09-01T20:02:32Z</time>
  <course>10.75</course>
  <speed>0.02</speed>
  <fix>3d</fix>
</trkpt>
<trkpt lat="-27.2744389" lon="151.2900638">
  <ele>360.18</ele>
  <time>2026-09-01T20:02:32Z</time>
  <course>10.76</course>
  <speed>0.01</speed>
  <fix>3d</fix>
</trkpt>
<trkpt lat="-27.2744388" lon="151.2900637">
  <ele>359.74</ele>
  <time>2026-09-01T20:02:32Z</time>
  <course>10.59</course>
  <speed>0.04</speed>
  <fix>3d</fix>
</trkpt>
<trkpt lat="-27.2744389" lon="151.2900638">
  <ele>360.22</ele>
  <time>2026-09-01T20:02:32Z</time>
  <course>10.76</course>
  <speed>0.01</speed>
  <fix>3d</fix>
</trkpt>
<trkpt lat="-27.2744389" lon="151.2900638">
  <ele>360.33</ele>
  <time>2026-09-01T20:02:32Z</time>
  <course>10.76</course>
  <speed>0.01</speed>
  <fix>3d</fix>
</trkpt>
<trkpt lat="-27.2744388" lon="151.2900637">
  <ele>360.03</ele>
  <time>2026-09-01T20:02:32Z</time>
  <course>12.86</course>
  <speed>0.03</speed>
  <fix>3d</fix>
</trkpt>
<trkpt lat="-27.2744389" lon="151.2900638">
  <ele>360.33</ele>
  <time>2026-09-01T20:02:32Z</time>
  <course>10.77</course>
  <speed>0.01</speed>
  <fix>3d</fix>
</trkpt>
<trkpt lat="-27.2744388" lon="151.2900638">
  <ele>360.47</ele>
  <time>2026-09-01T20:02:32Z</time>
  <course>10.77</course>
  <speed>0.01</speed>
  <fix>3d</fix>
</trkpt>
<trkpt lat="-27.2744388" lon="151.2900637">
  <ele>360.03</ele>
  <time>2026-09-01T20:02:32Z</time>
  <course>12.86</course>
  <speed>0.03</speed>
  <fix>3d</fix>
</trkpt>
<trkpt lat="-27.2744388" lon="151.2900638">
  <ele>360.5</ele>
  <time>2026-09-01T20:02:32Z</time>
  <course>10.77</course>
  <speed>0.01</speed>
  <fix>3d</fix>
</trkpt>
<trkpt lat="-27.2744388" lon="151.2900638">
  <ele>360.61</ele>
  <time>2026-09-01T20:02:32Z</time>
  <course>10.78</course>
  <speed>0.01</speed>
  <fix>3d</fix>
</trkpt>
<trkpt lat="-27.2744387" lon="151.2900637">
  <ele>360.32</ele>
  <time>2026-09-01T20:02:32Z</time>
  <course>16.03</course>
  <speed>0.03</speed>
  <fix>3d</fix>
</trkpt>
<trkpt lat="-27.2744388" lon="151.2900638">
  <ele>360.64</ele>
  <time>2026-09-01T20:02:32Z</time>
  <course>10.78</course>
  <speed>0.01</speed>
  <fix>3d</fix>
</trkpt>
<trkpt lat="-27.2744388" lon="151.2900638">
  <ele>360.74</ele>
  <time>2026-09-01T20:02:32Z</time>
  <course>10.79</course>
  <speed>0.01</speed>
  <fix>3d</fix>
</trkpt>
<trkpt lat="-27.2744387" lon="151.2900637">
  <ele>360.32</ele>
  <time>2026-09-01T20:02:32Z</time>
  <course>16.03</course>
  <speed>0.03</speed>
  <fix>3d</fix>
</trkpt>
<trkpt lat="-27.2744388" lon="151.2900638">
  <ele>360.78</ele>
  <time>2026-09-01T20:02:32Z</time>
  <course>10.8</course>
  <speed>0.0</speed>
  <fix>3d</fix>
</trkpt>
<trkpt lat="-27.2744388" lon="151.2900638">
  <ele>360.88</ele>
  <time>2026-09-01T20:02:32Z</time>
  <course>10.81</course>
  <speed>0.0</speed>
  <fix>3d</fix>
</trkpt>
<trkpt lat="-27.2744387" lon="151.2900637">
  <ele>360.6</ele>
  <time>2026-09-01T20:02:32Z</time>
  <course>19.73</course>
  <speed>0.02</speed>
  <fix>3d</fix>
</trkpt>
<trkpt lat="-27.2744388" lon="151.2900638">
  <ele>360.92</ele>
  <time>2026-09-01T20:02:32Z</time>
  <course>10.81</course>
  <speed>0.0</speed>
  <fix>3d</fix>
</trkpt>
<trkpt lat="-27.2744388" lon="151.2900638">
  <ele>361.02</ele>
  <time>2026-09-01T20:02:32Z</time>
  <course>10.82</course>
  <speed>0.0</speed>
  <fix>3d</fix>
</trkpt>
<trkpt lat="-27.2744387" lon="151.2900637">
  <ele>360.6</ele>
  <time>2026-09-01T20:02:32Z</time>
  <course>19.73</course>
  <speed>0.02</speed>
  <fix>3d</fix>
</trkpt>
<trkpt lat="-27.2744387" lon="151.2900638">
  <ele>361.06</ele>
  <time>2026-09-01T20:02:32Z</time>
  <course>10.82</course>
  <speed>0.0</speed>
  <fix>3d</fix>
</trkpt>
<trkpt lat="-27.2744387" lon="151.2900638">
  <ele>361.17</ele>
  <time>2026-09-01T20:02:32Z</time>
  <course>10.83</course>
  <speed>0.0</speed>
  <fix>3d</fix>
</trkpt>
<trkpt lat="-27.2744386" lon="151.2900637">
  <ele>360.89</ele>
  <time>2026-09-01T20:02:32Z</time>
  <course>23.7</course>
  <speed>0.02</speed>
  <fix>3d</fix>
</trkpt>
<trkpt lat="-27.2744387" lon="151.2900638">
  <ele>361.17</ele>
  <time>2026-09-01T20:02:32Z</time>
  <course>10.83</course>
  <speed>0.0</speed>
  <fix>3d</fix>
</trkpt>
<trkpt lat="-27.2744387" lon="151.2900638">
  <ele>361.31</ele>
  <time>2026-09-01T20:02:32Z</time>
  <course>10.85</course>
  <speed>0.0</speed>
  <fix>3d</fix>
</trkpt>
<trkpt lat="-27.2744386" lon="151.2900637">
  <ele>360.89</ele>
  <time>2026-09-01T20:02:32Z</time>
  <course>23.7</course>
  <speed>0.02</speed>
  <fix>3d</fix>
</trkpt>
<trkpt lat="-27.2744387" lon="151.2900638">
  <ele>361.31</ele>
  <time>2026-09-01T20:02:32Z</time>
  <course>10.85</course>
  <speed>0.0</speed>
  <fix>3d</fix>
</trkpt>
<trkpt lat="-27.2744387" lon="151.2900638">
  <ele>361.45</ele>
  <time>2026-09-01T20:02:32Z</time>
  <course>10.85</course>
  <speed>0.0</speed>
  <fix>3d</fix>
</trkpt>
<trkpt lat="-27.2744386" lon="151.2900637">
  <ele>361.17</ele>
  <time>2026-09-01T20:02:32Z</time>
  <course>29.19</course>
  <speed>0.02</speed>
  <fix>3d</fix>
</trkpt>
<trkpt lat="-27.2744387" lon="151.2900638">
  <ele>361.49</ele>
  <time>2026-09-01T20:02:32Z</time>
  <course>10.85</course>
  <speed>0.0</speed>
  <fix>3d</fix>
</trkpt>
<trkpt lat="-27.2744387" lon="151.2900638">
  <ele>361.6</ele>
  <time>2026-09-01T20:02:32Z</time>
  <course>10.85</course>
  <speed>0.0</speed>
  <fix>3d</fix>
</trkpt>
<trkpt lat="-27.2744386" lon="151.2900637">
  <ele>361.17</ele>
  <time>2026-09-01T20:02:32Z</time>
  <course>29.19</course>
  <speed>0.02</speed>
  <fix>3d</fix>
</trkpt>
<trkpt lat="-27.2744387" lon="151.2900638">
  <ele>361.63</ele>
  <time>2026-09-01T20:02:32Z</time>
  <course>10.85</course>
  <speed>0.0</speed>
  <fix>3d</fix>
</trkpt>
<trkpt lat="-27.2744387" lon="151.2900638">
  <ele>361.74</ele>
  <time>2026-09-01T20:02:32Z</time>
  <course>10.86</course>
  <speed>0.0</speed>
  <fix>3d</fix>
</trkpt>
<trkpt lat="-27.2744386" lon="151.2900637">
  <ele>361.46</ele>
  <time>2026-09-01T20:02:32Z</time>
  <course>36.74</course>
  <speed>0.01</speed>
  <fix>3d</fix>
</trkpt>
<trkpt lat="-27.2744387" lon="151.2900638">
  <ele>361.78</ele>
  <time>2026-09-01T20:02:32Z</time>
  <course>10.86</course>
  <speed>0.0</speed>
  <fix>3d</fix>
</trkpt>
<trkpt lat="-27.2744387" lon="151.2900638">
  <ele>361.88</ele>
  <time>2026-09-01T20:02:32Z</time>
  <course>10.86</course>
  <speed>0.0</speed>
  <fix>3d</fix>
</trkpt>
<trkpt lat="-27.2744386" lon="151.2900637">
  <ele>361.46</ele>
  <time>2026-09-01T20:02:32Z</time>
  <course>36.74</course>
  <speed>0.01</speed>
  <fix>3d</fix>
</trkpt>
<trkpt lat="-27.2744387" lon="151.2900638">
  <ele>361.92</ele>
  <time>2026-09-01T20:02:32Z</time>
  <course>10.86</course>
  <speed>0.0</speed>
  <fix>3d</fix>
</trkpt>
<trkpt lat="-27.2744387" lon="151.2900638">
  <ele>362.03</ele>
  <time>2026-09-01T20:02:32Z</time>
  <course>10.86</course>
  <speed>0.0</speed>
  <fix>3d</fix>
</trkpt>
<trkpt lat="-27.2744385" lon="151.2900638">
  <ele>361.75</ele>
  <time>2026-09-01T20:02:32Z</time>
  <course>46.04</course>
  <speed>0.01</speed>
  <fix>3d</fix>
</trkpt>
<trkpt lat="-27.2744387" lon="151.2900638">
  <ele>362.07</ele>
  <time>2026-09-01T20:02:32Z</time>
  <course>10.86</course>
  <speed>0.0</speed>
  <fix>3d</fix>
</trkpt>
<trkpt lat="-27.2744387" lon="151.2900638">
  <ele>362.17</ele>
  <time>2026-09-01T20:02:32Z</time>
  <course>10.87</course>
  <speed>0.0</speed>
  <fix>3d</fix>
</trkpt>
<trkpt lat="-27.2744385" lon="151.2900638">
  <ele>361.75</ele>
  <time>2026-09-01T20:02:32Z</time>
  <course>46.04</course>
  <speed>0.01</speed>
  <fix>3d</fix>
</trkpt>
<trkpt lat="-27.2744387" lon="151.2900638">
  <ele>362.21</ele>
  <time>2026-09-01T20:02:32Z</time>
  <course>10.87</course>
  <speed>0.0</speed>
  <fix>3d</fix>
</trkpt>
<trkpt lat="-27.2744387" lon="151.2900638">
  <ele>362.32</ele>
  <time>2026-09-01T20:02:32Z</time>
  <course>10.88</course>
  <speed>0.0</speed>
  <fix>3d</fix>
</trkpt>
<trkpt lat="-27.2744385" lon="151.2900639">
  <ele>362.04</ele>
  <time>2026-09-01T20:02:32Z</time>
  <course>56.99</course>
  <speed>0.01</speed>
  <fix>3d</fix>
</trkpt>
<trkpt lat="-27.2744387" lon="151.2900638">
  <ele>362.36</ele>
  <time>2026-09-01T20:02:32Z</time>
  <course>10.89</course>
  <speed>0.0</speed>
  <fix>3d</fix>
</trkpt>
<trkpt lat="-27.2744387" lon="151.2900638">
  <ele>362.46</ele>
  <time>2026-09-01T20:02:32Z</time>
  <course>10.9</course>
  <speed>0.0</speed>
  <fix>3d</fix>
</trkpt>
<trkpt lat="-27.2744385" lon="151.2900639">
  <ele>362.04</ele>
  <time>2026-09-01T20:02:32Z</time>
  <course>56.99</course>
  <speed>0.01</speed>
  <fix>3d</fix>
</trkpt>
<trkpt lat="-27.2744387" lon="151.2900638">
  <ele>362.47</ele>
  <time>2026-09-01T20:02:32Z</time>
  <course>10.9</course>
  <speed>0.0</speed>
  <fix>3d</fix>
</trkpt>
<trkpt lat="-27.2744387" lon="151.2900638">
  <ele>362.61</ele>
  <time>2026-09-01T20:02:32Z</time>
  <course>10.92</course>
  <speed>0.01</speed>
  <fix>3d</fix>
</trkpt>
<trkpt lat="-27.2744385" lon="151.2900639">
  <ele>362.34</ele>
  <time>2026-09-01T20:02:32Z</time>
  <course>68.27</course>
  <speed>0.01</speed>
  <fix>3d</fix>
</trkpt>
<trkpt lat="-27.2744387" lon="151.2900638">
  <ele>362.65</ele>
  <time>2026-09-01T20:02:32Z</time>
  <course>10.92</course>
  <speed>0.01</speed>
  <fix>3d</fix>
</trkpt>
<trkpt lat="-27.2744386" lon="151.2900638">
  <ele>362.76</ele>
  <time>2026-09-01T20:02:32Z</time>
  <course>10.94</course>
  <speed>0.01</speed>
  <fix>3d</fix>
</trkpt>
<trkpt lat="-27.2744385" lon="151.2900639">
  <ele>362.34</ele>
  <time>2026-09-01T20:02:32Z</time>
  <course>68.27</course>
  <speed>0.01</speed>
  <fix>3d</fix>
</trkpt>
<trkpt lat="-27.2744386" lon="151.2900638">
  <ele>362.76</ele>
  <time>2026-09-01T20:02:32Z</time>
  <course>10.94</course>
  <speed>0.01</speed>
  <fix>3d</fix>
</trkpt>
<trkpt lat="-27.2744386" lon="151.2900638">
  <ele>362.9</ele>
  <time>2026-09-01T20:02:32Z</time>
  <course>10.94</course>
  <speed>0.01</speed>
  <fix>3d</fix>
</trkpt>
<trkpt lat="-27.2744385" lon="151.2900639">
  <ele>362.63</ele>
  <time>2026-09-01T20:02:32Z</time>
  <course>78.25</course>
  <speed>0.0</speed>
  <fix>3d</fix>
</trkpt>
<trkpt lat="-27.2744386" lon="151.2900638">
  <ele>362.91</ele>
  <time>2026-09-01T20:02:32Z</time>
  <course>10.94</course>
  <speed>0.01</speed>
  <fix>3d</fix>
</trkpt>
<trkpt lat="-27.2744386" lon="151.2900638">
  <ele>363.05</ele>
  <time>2026-09-01T20:02:32Z</time>
  <course>10.94</course>
  <speed>0.01</speed>
  <fix>3d</fix>
</trkpt>
<trkpt lat="-27.2744385" lon="151.2900639">
  <ele>362.63</ele>
  <time>2026-09-01T20:02:32Z</time>
  <course>78.25</course>
  <speed>0.0</speed>
  <fix>3d</fix>
</trkpt>
<trkpt lat="-27.2744386" lon="151.2900638">
  <ele>363.08</ele>
  <time>2026-09-01T20:02:32Z</time>
  <course>10.94</course>
  <speed>0.01</speed>
  <fix>3d</fix>
</trkpt>
<trkpt lat="-27.2744386" lon="151.2900638">
  <ele>363.2</ele>
  <time>2026-09-01T20:02:32Z</time>
  <course>10.93</course>
  <speed>0.01</speed>
  <fix>3d</fix>
</trkpt>
<trkpt lat="-27.2744385" lon="151.2900639">
  <ele>362.92</ele>
  <time>2026-09-01T20:02:32Z</time>
  <course>89.18</course>
  <speed>0.0</speed>
  <fix>3d</fix>
</trkpt>
<trkpt lat="-27.2744386" lon="151.2900638">
  <ele>363.23</ele>
  <time>2026-09-01T20:02:32Z</time>
  <course>10.93</course>
  <speed>0.01</speed>
  <fix>3d</fix>
</trkpt>
<trkpt lat="-27.2744386" lon="151.2900638">
  <ele>363.34</ele>
  <time>2026-09-01T20:02:32Z</time>
  <course>10.92</course>
  <speed>0.01</speed>
  <fix>3d</fix>
</trkpt>
<trkpt lat="-27.2744385" lon="151.2900639">
  <ele>362.92</ele>
  <time>2026-09-01T20:02:32Z</time>
  <course>89.18</course>
  <speed>0.0</speed>
  <fix>3d</fix>
</trkpt>
<trkpt lat="-27.2744386" lon="151.2900638">
  <ele>363.38</ele>
  <time>2026-09-01T20:02:32Z</time>
  <course>10.92</course>
  <speed>0.01</speed>
  <fix>3d</fix>
</trkpt>
<trkpt lat="-27.2744386" lon="151.2900638">
  <ele>363.49</ele>
  <time>2026-09-01T20:02:32Z</time>
  <course>10.91</course>
  <speed>0.01</speed>
  <fix>3d</fix>
</trkpt>
<trkpt lat="-27.2744385" lon="151.2900639">
  <ele>363.21</ele>
  <time>2026-09-01T20:02:32Z</time>
  <course>102.03</course>
  <speed>0.0</speed>
  <fix>3d</fix>
</trkpt>
<trkpt lat="-27.2744386" lon="151.2900638">
  <ele>363.53</ele>
  <time>2026-09-01T20:02:32Z</time>
  <course>10.91</course>
  <speed>0.01</speed>
  <fix>3d</fix>
</trkpt>
<trkpt lat="-27.2744386" lon="151.2900638">
  <ele>363.63</ele>
  <time>2026-09-01T20:02:32Z</time>
  <course>10.9</course>
  <speed>0.01</speed>
  <fix>3d</fix>
</trkpt>
<trkpt lat="-27.2744385" lon="151.2900639">
  <ele>363.21</ele>
  <time>2026-09-01T20:02:32Z</time>
  <course>102.03</course>
  <speed>0.0</speed>
  <fix>3d</fix>
</trkpt>
<trkpt lat="-27.2744386" lon="151.2900638">
  <ele>363.67</ele>
  <time>2026-09-01T20:02:32Z</time>
  <course>10.9</course>
  <speed>0.01</speed>
  <fix>3d</fix>
</trkpt>
<trkpt lat="-27.2744387" lon="151.2900638">
  <ele>363.77</ele>
  <time>2026-09-01T20:02:32Z</time>
  <course>10.89</course>
  <speed>0.01</speed>
  <fix>3d</fix>
</trkpt>
<trkpt lat="-27.2744385" lon="151.290064">
  <ele>363.5</ele>
  <time>2026-09-01T20:02:32Z</time>
  <course>118.95</course>
  <speed>0.0</speed>
  <fix>3d</fix>
</trkpt>
<trkpt lat="-27.2744387" lon="151.2900638">
  <ele>363.81</ele>
  <time>2026-09-01T20:02:32Z</time>
  <course>10.89</course>
  <speed>0.01</speed>
  <fix>3d</fix>
</trkpt>
<trkpt lat="-27.2744387" lon="151.2900638">
  <ele>363.92</ele>
  <time>2026-09-01T20:02:32Z</time>
  <course>10.89</course>
  <speed>0.01</speed>
  <fix>3d</fix>
</trkpt>
<trkpt lat="-27.2744385" lon="151.290064">
  <ele>363.5</ele>
  <time>2026-09-01T20:02:32Z</time>
  <course>118.95</course>
  <speed>0.0</speed>
  <fix>3d</fix>
</trkpt>
<trkpt lat="-27.2744387" lon="151.2900639">
  <ele>363.96</ele>
  <time>2026-09-01T20:02:32Z</time>
  <course>10.89</course>
  <speed>0.01</speed>
  <fix>3d</fix>
</trkpt>
<trkpt lat="-27.2744387" lon="151.2900639">
  <ele>364.06</ele>
  <time>2026-09-01T20:02:32Z</time>
  <course>10.88</course>
  <speed>0.01</speed>
  <fix>3d</fix>
</trkpt>
<trkpt lat="-27.2744385" lon="151.290064">
  <ele>363.79</ele>
  <time>2026-09-01T20:02:32Z</time>
  <course>140.1</course>
  <speed>0.0</speed>
  <fix>3d</fix>
</trkpt>
<trkpt lat="-27.2744387" lon="151.2900639">
  <ele>364.1</ele>
  <time>2026-09-01T20:02:32Z</time>
  <course>10.88</course>
  <speed>0.01</speed>
  <fix>3d</fix>
</trkpt>
<trkpt lat="-27.2744387" lon="151.2900639">
  <ele>364.21</ele>
  <time>2026-09-01T20:02:32Z</time>
  <course>10.87</course>
  <speed>0.02</speed>
  <fix>3d</fix>
</trkpt>
<trkpt lat="-27.2744385" lon="151.290064">
  <ele>363.79</ele>
  <time>2026-09-01T20:02:32Z</time>
  <course>140.1</course>
  <speed>0.0</speed>
  <fix>3d</fix>
</trkpt>
<trkpt lat="-27.2744387" lon="151.2900639">
  <ele>364.24</ele>
  <time>2026-09-01T20:02:32Z</time>
  <course>10.87</course>
  <speed>0.02</speed>
  <fix>3d</fix>
</trkpt>
<trkpt lat="-27.2744387" lon="151.2900639">
  <ele>364.35</ele>
  <time>2026-09-01T20:02:32Z</time>
  <course>10.87</course>
  <speed>0.02</speed>
  <fix>3d</fix>
</trkpt>
<trkpt lat="-27.2744385" lon="151.290064">
  <ele>364.08</ele>
  <time>2026-09-01T20:02:32Z</time>
  <course>154.88</course>
  <speed>0.01</speed>
  <fix>3d</fix>
</trkpt>
<trkpt lat="-27.2744387" lon="151.2900639">
  <ele>364.36</ele>
  <time>2026-09-01T20:02:32Z</time>
  <course>10.87</course>
  <speed>0.02</speed>
  <fix>3d</fix>
</trkpt>
<trkpt lat="-27.2744387" lon="151.2900639">
  <ele>364.49</ele>
  <time>2026-09-01T20:02:32Z</time>
  <course>10.86</course>
  <speed>0.02</speed>
  <fix>3d</fix>
</trkpt>
<trkpt lat="-27.2744385" lon="151.290064">
  <ele>364.08</ele>
  <time>2026-09-01T20:02:32Z</time>
  <course>154.88</course>
  <speed>0.01</speed>
  <fix>3d</fix>
</trkpt>
<trkpt lat="-27.2744387" lon="151.2900639">
  <ele>364.5</ele>
  <time>2026-09-01T20:02:32Z</time>
  <course>10.86</course>
  <speed>0.02</speed>
  <fix>3d</fix>
</trkpt>
<trkpt lat="-27.2744387" lon="151.2900639">
  <ele>364.64</ele>
  <time>2026-09-01T20:02:32Z</time>
  <course>10.86</course>
  <speed>0.02</speed>
  <fix>3d</fix>
</trkpt>
<trkpt lat="-27.2744385" lon="151.290064">
  <ele>364.36</ele>
  <time>2026-09-01T20:02:32Z</time>
  <course>163.04</course>
  <speed>0.01</speed>
  <fix>3d</fix>
</trkpt>
<trkpt lat="-27.2744387" lon="151.2900639">
  <ele>364.68</ele>
  <time>2026-09-01T20:02:32Z</time>
  <course>10.86</course>
  <speed>0.02</speed>
  <fix>3d</fix>
</trkpt>
<trkpt lat="-27.2744387" lon="151.2900639">
  <ele>364.79</ele>
  <time>2026-09-01T20:02:32Z</time>
  <course>10.86</course>
  <speed>0.02</speed>
  <fix>3d</fix>
</trkpt>
<trkpt lat="-27.2744385" lon="151.290064">
  <ele>364.36</ele>
  <time>2026-09-01T20:02:32Z</time>
  <course>163.04</course>
  <speed>0.01</speed>
  <fix>3d</fix>
</trkpt>
<trkpt lat="-27.2744387" lon="151.2900639">
  <ele>364.79</ele>
  <time>2026-09-01T20:02:32Z</time>
  <course>10.86</course>
  <speed>0.02</speed>
  <fix>3d</fix>
</trkpt>
<trkpt lat="-27.2744387" lon="151.2900639">
  <ele>364.93</ele>
  <time>2026-09-01T20:02:32Z</time>
  <course>10.85</course>
  <speed>0.02</speed>
  <fix>3d</fix>
</trkpt>
<trkpt lat="-27.2744385" lon="151.290064">
  <ele>364.65</ele>
  <time>2026-09-01T20:02:32Z</time>
  <course>170.75</course>
  <speed>0.01</speed>
  <fix>3d</fix>
</trkpt>
<trkpt lat="-27.2744387" lon="151.2900639">
  <ele>364.94</ele>
  <time>2026-09-01T20:02:32Z</time>
  <course>10.85</course>
  <speed>0.02</speed>
  <fix>3d</fix>
</trkpt>
<trkpt lat="-27.2744387" lon="151.2900639">
  <ele>365.07</ele>
  <time>2026-09-01T20:02:32Z</time>
  <course>10.84</course>
  <speed>0.02</speed>
  <fix>3d</fix>
</trkpt>
<trkpt lat="-27.2744385" lon="151.290064">
  <ele>364.65</ele>
  <time>2026-09-01T20:02:32Z</time>
  <course>170.75</course>
  <speed>0.01</speed>
  <fix>3d</fix>
</trkpt>
<trkpt lat="-27.2744387" lon="151.2900639">
  <ele>365.11</ele>
  <time>2026-09-01T20:02:32Z</time>
  <course>10.84</course>
  <speed>0.02</speed>
  <fix>3d</fix>
</trkpt>
<trkpt lat="-27.2744387" lon="151.2900639">
  <ele>365.22</ele>
  <time>2026-09-01T20:02:32Z</time>
  <course>10.83</course>
  <speed>0.02</speed>
  <fix>3d</fix>
</trkpt>
<trkpt lat="-27.2744385" lon="151.290064">
  <ele>364.94</ele>
  <time>2026-09-01T20:02:32Z</time>
  <course>177.1</course>
  <speed>0.01</speed>
  <fix>3d</fix>
</trkpt>
<trkpt lat="-27.2744387" lon="151.2900639">
  <ele>365.26</ele>
  <time>2026-09-01T20:02:32Z</time>
  <course>10.82</course>
  <speed>0.02</speed>
  <fix>3d</fix>
</trkpt>
<trkpt lat="-27.2744387" lon="151.2900639">
  <ele>365.36</ele>
  <time>2026-09-01T20:02:32Z</time>
  <course>10.81</course>
  <speed>0.02</speed>
  <fix>3d</fix>
</trkpt>
<trkpt lat="-27.2744385" lon="151.290064">
  <ele>364.94</ele>
  <time>2026-09-01T20:02:32Z</time>
  <course>177.1</course>
  <speed>0.01</speed>
  <fix>3d</fix>
</trkpt>
<trkpt lat="-27.2744387" lon="151.2900639">
  <ele>365.4</ele>
  <time>2026-09-01T20:02:32Z</time>
  <course>10.81</course>
  <speed>0.02</speed>
  <fix>3d</fix>
</trkpt>
<trkpt lat="-27.2744387" lon="151.2900639">
  <ele>365.51</ele>
  <time>2026-09-01T20:02:32Z</time>
  <course>10.8</course>
  <speed>0.02</speed>
  <fix>3d</fix>
</trkpt>
<trkpt lat="-27.2744385" lon="151.290064">
  <ele>365.22</ele>
  <time>2026-09-01T20:02:32Z</time>
  <course>180.28</course>
  <speed>0.01</speed>
  <fix>3d</fix>
</trkpt>
<trkpt lat="-27.2744387" lon="151.2900639">
  <ele>365.55</ele>
  <time>2026-09-01T20:02:32Z</time>
  <course>10.79</course>
  <speed>0.02</speed>
  <fix>3d</fix>
</trkpt>
<trkpt lat="-27.2744387" lon="151.2900639">
  <ele>365.65</ele>
  <time>2026-09-01T20:02:32Z</time>
  <course>10.78</course>
  <speed>0.02</speed>
  <fix>3d</fix>
</trkpt>
<trkpt lat="-27.2744385" lon="151.290064">
  <ele>365.22</ele>
  <time>2026-09-01T20:02:32Z</time>
  <course>180.28</course>
  <speed>0.01</speed>
  <fix>3d</fix>
</trkpt>
<trkpt lat="-27.2744387" lon="151.2900639">
  <ele>365.68</ele>
  <time>2026-09-01T20:02:32Z</time>
  <course>10.78</course>
  <speed>0.02</speed>
  <fix>3d</fix>
</trkpt>
<trkpt lat="-27.2744387" lon="151.2900639">
  <ele>365.79</ele>
  <time>2026-09-01T20:02:32Z</time>
  <course>10.77</course>
  <speed>0.02</speed>
  <fix>3d</fix>
</trkpt>
<trkpt lat="-27.2744386" lon="151.290064">
  <ele>365.51</ele>
  <time>2026-09-01T20:02:32Z</time>
  <course>181.22</course>
  <speed>0.01</speed>
  <fix>3d</fix>
</trkpt>
<trkpt lat="-27.2744387" lon="151.2900639">
  <ele>365.83</ele>
  <time>2026-09-01T20:02:32Z</time>
  <course>10.76</course>
  <speed>0.02</speed>
  <fix>3d</fix>
</trkpt>
<trkpt lat="-27.2744387" lon="151.2900639">
  <ele>365.94</ele>
  <time>2026-09-01T20:02:32Z</time>
  <course>10.76</course>
  <speed>0.02</speed>
  <fix>3d</fix>
</trkpt>
<trkpt lat="-27.2744386" lon="151.290064">
  <ele>365.51</ele>
  <time>2026-09-01T20:02:32Z</time>
  <course>181.22</course>
  <speed>0.01</speed>
  <fix>3d</fix>
</trkpt>
<trkpt lat="-27.2744387" lon="151.2900639">
  <ele>365.94</ele>
  <time>2026-09-01T20:02:32Z</time>
  <course>10.76</course>
  <speed>0.02</speed>
  <fix>3d</fix>
</trkpt>
<trkpt lat="-27.2744387" lon="151.2900639">
  <ele>366.08</ele>
  <time>2026-09-01T20:02:32Z</time>
  <course>10.76</course>
  <speed>0.02</speed>
  <fix>3d</fix>
</trkpt>
<trkpt lat="-27.2744386" lon="151.290064">
  <ele>365.79</ele>
  <time>2026-09-01T20:02:32Z</time>
  <course>180.7</course>
  <speed>0.01</speed>
  <fix>3d</fix>
</trkpt>
<trkpt lat="-27.2744387" lon="151.2900639">
  <ele>366.08</ele>
  <time>2026-09-01T20:02:32Z</time>
  <course>10.76</course>
  <speed>0.02</speed>
  <fix>3d</fix>
</trkpt>
<trkpt lat="-27.2744387" lon="151.2900639">
  <ele>366.22</ele>
  <time>2026-09-01T20:02:32Z</time>
  <course>10.76</course>
  <speed>0.02</speed>
  <fix>3d</fix>
</trkpt>
<trkpt lat="-27.2744386" lon="151.290064">
  <ele>365.79</ele>
  <time>2026-09-01T20:02:32Z</time>
  <course>180.7</course>
  <speed>0.01</speed>
  <fix>3d</fix>
</trkpt>
<trkpt lat="-27.2744387" lon="151.2900639">
  <ele>366.26</ele>
  <time>2026-09-01T20:02:32Z</time>
  <course>10.76</course>
  <speed>0.02</speed>
  <fix>3d</fix>
</trkpt>
<trkpt lat="-27.2744387" lon="151.2900639">
  <ele>366.37</ele>
  <time>2026-09-01T20:02:33Z</time>
  <course>10.77</course>
  <speed>0.02</speed>
  <fix>3d</fix>
</trkpt>
<trkpt lat="-27.2744386" lon="151.290064">
  <ele>366.08</ele>
  <time>2026-09-01T20:02:33Z</time>
  <course>180.6</course>
  <speed>0.01</speed>
  <fix>3d</fix>
</trkpt>
<trkpt lat="-27.2744387" lon="151.2900639">
  <ele>366.4</ele>
  <time>2026-09-01T20:02:33Z</time>
  <course>10.78</course>
  <speed>0.02</speed>
  <fix>3d</fix>
</trkpt>
<trkpt lat="-27.2744387" lon="151.290064">
  <ele>366.51</ele>
  <time>2026-09-01T20:02:33Z</time>
  <course>10.79</course>
  <speed>0.02</speed>
  <fix>3d</fix>
</trkpt>
<trkpt lat="-27.2744386" lon="151.290064">
  <ele>366.08</ele>
  <time>2026-09-01T20:02:33Z</time>
  <course>180.6</course>
  <speed>0.01</speed>
  <fix>3d</fix>
</trkpt>
<trkpt lat="-27.2744387" lon="151.290064">
  <ele>366.54</ele>
  <time>2026-09-01T20:02:33Z</time>
  <course>10.79</course>
  <speed>0.02</speed>
  <fix>3d</fix>
</trkpt>
<trkpt lat="-27.2744387" lon="151.290064">
  <ele>366.65</ele>
  <time>2026-09-01T20:02:33Z</time>
  <course>10.8</course>
  <speed>0.02</speed>
  <fix>3d</fix>
</trkpt>
<trkpt lat="-27.2744387" lon="151.290064">
  <ele>366.36</ele>
  <time>2026-09-01T20:02:33Z</time>
  <course>181.74</course>
  <speed>0.01</speed>
  <fix>3d</fix>
</trkpt>
<trkpt lat="-27.2744387" lon="151.290064">
  <ele>366.66</ele>
  <time>2026-09-01T20:02:33Z</time>
  <course>10.8</course>
  <speed>0.02</speed>
  <fix>3d</fix>
</trkpt>
<trkpt lat="-27.2744387" lon="151.290064">
  <ele>366.79</ele>
  <time>2026-09-01T20:02:33Z</time>
  <course>10.8</course>
  <speed>0.02</speed>
  <fix>3d</fix>
</trkpt>
<trkpt lat="-27.2744387" lon="151.290064">
  <ele>366.36</ele>
  <time>2026-09-01T20:02:33Z</time>
  <course>181.74</course>
  <speed>0.01</speed>
  <fix>3d</fix>
</trkpt>
<trkpt lat="-27.2744387" lon="151.290064">
  <ele>366.83</ele>
  <time>2026-09-01T20:02:33Z</time>
  <course>10.8</course>
  <speed>0.02</speed>
  <fix>3d</fix>
</trkpt>
<trkpt lat="-27.2744388" lon="151.290064">
  <ele>366.94</ele>
  <time>2026-09-01T20:02:33Z</time>
  <course>10.79</course>
  <speed>0.02</speed>
  <fix>3d</fix>
</trkpt>
<trkpt lat="-27.2744387" lon="151.290064">
  <ele>366.65</ele>
  <time>2026-09-01T20:02:33Z</time>
  <course>182.22</course>
  <speed>0.01</speed>
  <fix>3d</fix>
</trkpt>
<trkpt lat="-27.2744388" lon="151.290064">
  <ele>366.97</ele>
  <time>2026-09-01T20:02:33Z</time>
  <course>10.79</course>
  <speed>0.02</speed>
  <fix>3d</fix>
</trkpt>
<trkpt lat="-27.2744388" lon="151.290064">
  <ele>367.08</ele>
  <time>2026-09-01T20:02:33Z</time>
  <course>10.78</course>
  <speed>0.02</speed>
  <fix>3d</fix>
</trkpt>
<trkpt lat="-27.2744387" lon="151.290064">
  <ele>366.65</ele>
  <time>2026-09-01T20:02:33Z</time>
  <course>182.22</course>
  <speed>0.01</speed>
  <fix>3d</fix>
</trkpt>
<trkpt lat="-27.2744388" lon="151.290064">
  <ele>367.11</ele>
  <time>2026-09-01T20:02:33Z</time>
  <course>10.78</course>
  <speed>0.02</speed>
  <fix>3d</fix>
</trkpt>
<trkpt lat="-27.2744388" lon="151.290064">
  <ele>367.22</ele>
  <time>2026-09-01T20:02:33Z</time>
  <course>10.78</course>
  <speed>0.02</speed>
  <fix>3d</fix>
</trkpt>
<trkpt lat="-27.2744387" lon="151.290064">
  <ele>366.93</ele>
  <time>2026-09-01T20:02:33Z</time>
  <course>182.93</course>
  <speed>0.01</speed>
  <fix>3d</fix>
</trkpt>
<trkpt lat="-27.2744388" lon="151.290064">
  <ele>367.26</ele>
  <time>2026-09-01T20:02:33Z</time>
  <course>10.77</course>
  <speed>0.02</speed>
  <fix>3d</fix>
</trkpt>
<trkpt lat="-27.2744388" lon="151.290064">
  <ele>367.37</ele>
  <time>2026-09-01T20:02:33Z</time>
  <course>10.77</course>
  <speed>0.02</speed>
  <fix>3d</fix>
</trkpt>
<trkpt lat="-27.2744387" lon="151.290064">
  <ele>366.93</ele>
  <time>2026-09-01T20:02:33Z</time>
  <course>182.93</course>
  <speed>0.01</speed>
  <fix>3d</fix>
</trkpt>
<trkpt lat="-27.2744388" lon="151.290064">
  <ele>367.4</ele>
  <time>2026-09-01T20:02:33Z</time>
  <course>10.76</course>
  <speed>0.02</speed>
  <fix>3d</fix>
</trkpt>
<trkpt lat="-27.2744388" lon="151.290064">
  <ele>367.51</ele>
  <time>2026-09-01T20:02:33Z</time>
  <course>10.75</course>
  <speed>0.02</speed>
  <fix>3d</fix>
</trkpt>
<trkpt lat="-27.2744388" lon="151.290064">
  <ele>367.21</ele>
  <time>2026-09-01T20:02:33Z</time>
  <course>185.36</course>
  <speed>0.01</speed>
  <fix>3d</fix>
</trkpt>
<trkpt lat="-27.2744388" lon="151.290064">
  <ele>367.52</ele>
  <time>2026-09-01T20:02:33Z</time>
  <course>10.75</course>
  <speed>0.02</speed>
  <fix>3d</fix>
</trkpt>
<trkpt lat="-27.2744388" lon="151.290064">
  <ele>367.66</ele>
  <time>2026-09-01T20:02:33Z</time>
  <course>10.74</course>
  <speed>0.02</speed>
  <fix>3d</fix>
</trkpt>
<trkpt lat="-27.2744388" lon="151.290064">
  <ele>367.21</ele>
  <time>2026-09-01T20:02:33Z</time>
  <course>185.36</course>
  <speed>0.01</speed>
  <fix>3d</fix>
</trkpt>
<trkpt lat="-27.2744388" lon="151.290064">
  <ele>367.66</ele>
  <time>2026-09-01T20:02:33Z</time>
  <course>10.74</course>
  <speed>0.02</speed>
  <fix>3d</fix>
</trkpt>
<trkpt lat="-27.2744388" lon="151.290064">
  <ele>367.8</ele>
  <time>2026-09-01T20:02:33Z</time>
  <course>10.72</course>
  <speed>0.02</speed>
  <fix>3d</fix>
</trkpt>
<trkpt lat="-27.2744388" lon="151.290064">
  <ele>367.5</ele>
  <time>2026-09-01T20:02:33Z</time>
  <course>188.11</course>
  <speed>0.01</speed>
  <fix>3d</fix>
</trkpt>
<trkpt lat="-27.2744388" lon="151.290064">
  <ele>367.86</ele>
  <time>2026-09-01T20:02:33Z</time>
  <course>10.71</course>
  <speed>0.02</speed>
  <fix>3d</fix>
</trkpt>
<trkpt lat="-27.2744389" lon="151.290064">
  <ele>367.94</ele>
  <time>2026-09-01T20:02:33Z</time>
  <course>10.69</course>
  <speed>0.02</speed>
  <fix>3d</fix>
</trkpt>
<trkpt lat="-27.2744388" lon="151.290064">
  <ele>367.5</ele>
  <time>2026-09-01T20:02:33Z</time>
  <course>188.11</course>
  <speed>0.01</speed>
  <fix>3d</fix>
</trkpt>
<trkpt lat="-27.2744389" lon="151.290064">
  <ele>367.99</ele>
  <time>2026-09-01T20:02:33Z</time>
  <course>10.68</course>
  <speed>0.02</speed>
  <fix>3d</fix>
</trkpt>
<trkpt lat="-27.2744389" lon="151.290064">
  <ele>368.09</ele>
  <time>2026-09-01T20:02:33Z</time>
  <course>10.66</course>
  <speed>0.02</speed>
  <fix>3d</fix>
</trkpt>
<trkpt lat="-27.2744388" lon="151.290064">
  <ele>367.78</ele>
  <time>2026-09-01T20:02:33Z</time>
  <course>189.97</course>
  <speed>0.01</speed>
  <fix>3d</fix>
</trkpt>
<trkpt lat="-27.2744389" lon="151.290064">
  <ele>368.13</ele>
  <time>2026-09-01T20:02:33Z</time>
  <course>10.66</course>
  <speed>0.02</speed>
  <fix>3d</fix>
</trkpt>
<trkpt lat="-27.2744389" lon="151.290064">
  <ele>368.23</ele>
  <time>2026-09-01T20:02:33Z</time>
  <course>10.64</course>
  <speed>0.02</speed>
  <fix>3d</fix>
</trkpt>
<trkpt lat="-27.2744388" lon="151.290064">
  <ele>367.78</ele>
  <time>2026-09-01T20:02:33Z</time>
  <course>189.97</course>
  <speed>0.01</speed>
  <fix>3d</fix>
</trkpt>
<trkpt lat="-27.2744389" lon="151.290064">
  <ele>368.27</ele>
  <time>2026-09-01T20:02:33Z</time>
  <course>10.63</course>
  <speed>0.02</speed>
  <fix>3d</fix>
</trkpt>
<trkpt lat="-27.2744389" lon="151.290064">
  <ele>368.37</ele>
  <time>2026-09-01T20:02:33Z</time>
  <course>10.62</course>
  <speed>0.02</speed>
  <fix>3d</fix>
</trkpt>
<trkpt lat="-27.2744389" lon="151.290064">
  <ele>368.07</ele>
  <time>2026-09-01T20:02:33Z</time>
  <course>188.47</course>
  <speed>0.01</speed>
  <fix>3d</fix>
</trkpt>
<trkpt lat="-27.2744389" lon="151.290064">
  <ele>368.41</ele>
  <time>2026-09-01T20:02:33Z</time>
  <course>10.62</course>
  <speed>0.02</speed>
  <fix>3d</fix>
</trkpt>
<trkpt lat="-27.2744389" lon="151.290064">
  <ele>368.52</ele>
  <time>2026-09-01T20:02:33Z</time>
  <course>10.62</course>
  <speed>0.02</speed>
  <fix>3d</fix>
</trkpt>
<trkpt lat="-27.2744389" lon="151.290064">
  <ele>368.07</ele>
  <time>2026-09-01T20:02:33Z</time>
  <course>188.47</course>
  <speed>0.01</speed>
  <fix>3d</fix>
</trkpt>
<trkpt lat="-27.2744389" lon="151.290064">
  <ele>368.55</ele>
  <time>2026-09-01T20:02:33Z</time>
  <course>10.62</course>
  <speed>0.02</speed>
  <fix>3d</fix>
</trkpt>
<trkpt lat="-27.2744389" lon="151.290064">
  <ele>368.67</ele>
  <time>2026-09-01T20:02:33Z</time>
  <course>10.62</course>
  <speed>0.02</speed>
  <fix>3d</fix>
</trkpt>
<trkpt lat="-27.2744389" lon="151.290064">
  <ele>368.36</ele>
  <time>2026-09-01T20:02:33Z</time>
  <course>186.61</course>
  <speed>0.01</speed>
  <fix>3d</fix>
</trkpt>
<trkpt lat="-27.2744389" lon="151.290064">
  <ele>368.7</ele>
  <time>2026-09-01T20:02:33Z</time>
  <course>10.62</course>
  <speed>0.02</speed>
  <fix>3d</fix>
</trkpt>
<trkpt lat="-27.2744389" lon="151.290064">
  <ele>368.81</ele>
  <time>2026-09-01T20:02:33Z</time>
  <course>10.63</course>
  <speed>0.02</speed>
  <fix>3d</fix>
</trkpt>
<trkpt lat="-27.2744389" lon="151.290064">
  <ele>368.36</ele>
  <time>2026-09-01T20:02:33Z</time>
  <course>186.61</course>
  <speed>0.01</speed>
  <fix>3d</fix>
</trkpt>
<trkpt lat="-27.2744389" lon="151.290064">
  <ele>368.85</ele>
  <time>2026-09-01T20:02:33Z</time>
  <course>10.64</course>
  <speed>0.02</speed>
  <fix>3d</fix>
</trkpt>
<trkpt lat="-27.274439" lon="151.290064">
  <ele>368.96</ele>
  <time>2026-09-01T20:02:33Z</time>
  <course>10.66</course>
  <speed>0.02</speed>
  <fix>3d</fix>
</trkpt>
<trkpt lat="-27.2744389" lon="151.290064">
  <ele>368.65</ele>
  <time>2026-09-01T20:02:33Z</time>
  <course>186.96</course>
  <speed>0.01</speed>
  <fix>3d</fix>
</trkpt>
<trkpt lat="-27.274439" lon="151.290064">
  <ele>368.96</ele>
  <time>2026-09-01T20:02:33Z</time>
  <course>10.66</course>
  <speed>0.02</speed>
  <fix>3d</fix>
</trkpt>
<trkpt lat="-27.274439" lon="151.290064">
  <ele>369.1</ele>
  <time>2026-09-01T20:02:33Z</time>
  <course>10.68</course>
  <speed>0.01</speed>
  <fix>3d</fix>
</trkpt>
<trkpt lat="-27.2744389" lon="151.290064">
  <ele>368.65</ele>
  <time>2026-09-01T20:02:33Z</time>
  <course>186.96</course>
  <speed>0.01</speed>
  <fix>3d</fix>
</trkpt>
<trkpt lat="-27.274439" lon="151.290064">
  <ele>369.1</ele>
  <time>2026-09-01T20:02:33Z</time>
  <course>10.68</course>
  <speed>0.01</speed>
  <fix>3d</fix>
</trkpt>
<trkpt lat="-27.274439" lon="151.290064">
  <ele>369.24</ele>
  <time>2026-09-01T20:02:33Z</time>
  <course>10.69</course>
  <speed>0.01</speed>
  <fix>3d</fix>
</trkpt>
<trkpt lat="-27.2744389" lon="151.290064">
  <ele>368.93</ele>
  <time>2026-09-01T20:02:33Z</time>
  <course>188.72</course>
  <speed>0.01</speed>
  <fix>3d</fix>
</trkpt>
<trkpt lat="-27.274439" lon="151.290064">
  <ele>369.28</ele>
  <time>2026-09-01T20:02:33Z</time>
  <course>10.69</course>
  <speed>0.01</speed>
  <fix>3d</fix>
</trkpt>
<trkpt lat="-27.274439" lon="151.290064">
  <ele>369.39</ele>
  <time>2026-09-01T20:02:33Z</time>
  <course>10.69</course>
  <speed>0.01</speed>
  <fix>3d</fix>
</trkpt>
<trkpt lat="-27.2744389" lon="151.290064">
  <ele>368.93</ele>
  <time>2026-09-01T20:02:33Z</time>
  <course>188.72</course>
  <speed>0.01</speed>
  <fix>3d</fix>
</trkpt>
<trkpt lat="-27.274439" lon="151.290064">
  <ele>369.42</ele>
  <time>2026-09-01T20:02:33Z</time>
  <course>10.69</course>
  <speed>0.01</speed>
  <fix>3d</fix>
</trkpt>
<trkpt lat="-27.274439" lon="151.290064">
  <ele>369.53</ele>
  <time>2026-09-01T20:02:33Z</time>
  <course>10.69</course>
  <speed>0.01</speed>
  <fix>3d</fix>
</trkpt>
<trkpt lat="-27.274439" lon="151.290064">
  <ele>369.21</ele>
  <time>2026-09-01T20:02:33Z</time>
  <course>190.7</course>
  <speed>0.01</speed>
  <fix>3d</fix>
</trkpt>
<trkpt lat="-27.274439" lon="151.290064">
  <ele>369.57</ele>
  <time>2026-09-01T20:02:33Z</time>
  <course>10.69</course>
  <speed>0.01</speed>
  <fix>3d</fix>
</trkpt>
<trkpt lat="-27.274439" lon="151.290064">
  <ele>369.67</ele>
  <time>2026-09-01T20:02:33Z</time>
  <course>10.68</course>
  <speed>0.01</speed>
  <fix>3d</fix>
</trkpt>
<trkpt lat="-27.274439" lon="151.290064">
  <ele>369.21</ele>
  <time>2026-09-01T20:02:33Z</time>
  <course>190.7</course>
  <speed>0.01</speed>
  <fix>3d</fix>
</trkpt>
<trkpt lat="-27.274439" lon="151.290064">
  <ele>369.7</ele>
  <time>2026-09-01T20:02:33Z</time>
  <course>10.68</course>
  <speed>0.01</speed>
  <fix>3d</fix>
</trkpt>
<trkpt lat="-27.274439" lon="151.290064">
  <ele>369.81</ele>
  <time>2026-09-01T20:02:33Z</time>
  <course>10.67</course>
  <speed>0.01</speed>
  <fix>3d</fix>
</trkpt>
<trkpt lat="-27.274439" lon="151.290064">
  <ele>369.5</ele>
  <time>2026-09-01T20:02:33Z</time>
  <course>193.05</course>
  <speed>0.0</speed>
  <fix>3d</fix>
</trkpt>
<trkpt lat="-27.274439" lon="151.290064">
  <ele>369.85</ele>
  <time>2026-09-01T20:02:33Z</time>
  <course>10.67</course>
  <speed>0.01</speed>
  <fix>3d</fix>
</trkpt>
<trkpt lat="-27.274439" lon="151.290064">
  <ele>369.95</ele>
  <time>2026-09-01T20:02:33Z</time>
  <course>10.66</course>
  <speed>0.01</speed>
  <fix>3d</fix>
</trkpt>
<trkpt lat="-27.274439" lon="151.290064">
  <ele>369.5</ele>
  <time>2026-09-01T20:02:33Z</time>
  <course>193.05</course>
  <speed>0.0</speed>
  <fix>3d</fix>
</trkpt>
<trkpt lat="-27.274439" lon="151.290064">
  <ele>369.99</ele>
  <time>2026-09-01T20:02:33Z</time>
  <course>10.66</course>
  <speed>0.01</speed>
  <fix>3d</fix>
</trkpt>
<trkpt lat="-27.274439" lon="151.290064">
  <ele>370.09</ele>
  <time>2026-09-01T20:02:33Z</time>
  <course>10.65</course>
  <speed>0.01</speed>
  <fix>3d</fix>
</trkpt>
<trkpt lat="-27.274439" lon="151.290064">
  <ele>369.78</ele>
  <time>2026-09-01T20:02:33Z</time>
  <course>199.38</course>
  <speed>0.0</speed>
  <fix>3d</fix>
</trkpt>
<trkpt lat="-27.274439" lon="151.290064">
  <ele>370.13</ele>
  <time>2026-09-01T20:02:33Z</time>
  <course>10.65</course>
  <speed>0.01</speed>
  <fix>3d</fix>
</trkpt>
<trkpt lat="-27.274439" lon="151.290064">
  <ele>370.23</ele>
  <time>2026-09-01T20:02:33Z</time>
  <course>10.64</course>
  <speed>0.01</speed>
  <fix>3d</fix>
</trkpt>
<trkpt lat="-27.274439" lon="151.290064">
  <ele>369.78</ele>
  <time>2026-09-01T20:02:33Z</time>
  <course>199.38</course>
  <speed>0.0</speed>
  <fix>3d</fix>
</trkpt>
<trkpt lat="-27.274439" lon="151.290064">
  <ele>370.26</ele>
  <time>2026-09-01T20:02:33Z</time>
  <course>10.63</course>
  <speed>0.01</speed>
  <fix>3d</fix>
</trkpt>
<trkpt lat="-27.274439" lon="151.290064">
  <ele>370.37</ele>
  <time>2026-09-01T20:02:33Z</time>
  <course>10.62</course>
  <speed>0.01</speed>
  <fix>3d</fix>
</trkpt>
<trkpt lat="-27.274439" lon="151.290064">
  <ele>370.07</ele>
  <time>2026-09-01T20:02:33Z</time>
  <course>207.71</course>
  <speed>0.0</speed>
  <fix>3d</fix>
</trkpt>
<trkpt lat="-27.274439" lon="151.290064">
  <ele>370.41</ele>
  <time>2026-09-01T20:02:33Z</time>
  <course>10.62</course>
  <speed>0.01</speed>
  <fix>3d</fix>
</trkpt>
<trkpt lat="-27.274439" lon="151.290064">
  <ele>370.51</ele>
  <time>2026-09-01T20:02:33Z</time>
  <course>10.61</course>
  <speed>0.01</speed>
  <fix>3d</fix>
</trkpt>
<trkpt lat="-27.274439" lon="151.290064">
  <ele>370.07</ele>
  <time>2026-09-01T20:02:33Z</time>
  <course>207.71</course>
  <speed>0.0</speed>
  <fix>3d</fix>
</trkpt>
<trkpt lat="-27.274439" lon="151.290064">
  <ele>370.51</ele>
  <time>2026-09-01T20:02:33Z</time>
  <course>10.61</course>
  <speed>0.01</speed>
  <fix>3d</fix>
</trkpt>
<trkpt lat="-27.274439" lon="151.290064">
  <ele>370.65</ele>
  <time>2026-09-01T20:02:33Z</time>
  <course>10.61</course>
  <speed>0.0</speed>
  <fix>3d</fix>
</trkpt>
<trkpt lat="-27.274439" lon="151.290064">
  <ele>370.36</ele>
  <time>2026-09-01T20:02:33Z</time>
  <course>225.4</course>
  <speed>0.0</speed>
  <fix>3d</fix>
</trkpt>
<trkpt lat="-27.274439" lon="151.290064">
  <ele>370.66</ele>
  <time>2026-09-01T20:02:33Z</time>
  <course>10.6</course>
  <speed>0.0</speed>
  <fix>3d</fix>
</trkpt>
<trkpt lat="-27.274439" lon="151.290064">
  <ele>370.8</ele>
  <time>2026-09-01T20:02:33Z</time>
  <course>10.6</course>
  <speed>0.0</speed>
  <fix>3d</fix>
</trkpt>
<trkpt lat="-27.274439" lon="151.290064">
  <ele>370.36</ele>
  <time>2026-09-01T20:02:33Z</time>
  <course>225.4</course>
  <speed>0.0</speed>
  <fix>3d</fix>
</trkpt>
<trkpt lat="-27.274439" lon="151.290064">
  <ele>370.81</ele>
  <time>2026-09-01T20:02:33Z</time>
  <course>10.6</course>
  <speed>0.0</speed>
  <fix>3d</fix>
</trkpt>
<trkpt lat="-27.274439" lon="151.290064">
  <ele>370.94</ele>
  <time>2026-09-01T20:02:33Z</time>
  <course>10.59</course>
  <speed>0.0</speed>
  <fix>3d</fix>
</trkpt>
<trkpt lat="-27.274439" lon="151.290064">
  <ele>370.65</ele>
  <time>2026-09-01T20:02:33Z</time>
  <course>261.58</course>
  <speed>0.0</speed>
  <fix>3d</fix>
</trkpt>
<trkpt lat="-27.274439" lon="151.290064">
  <ele>370.98</ele>
  <time>2026-09-01T20:02:33Z</time>
  <course>10.59</course>
  <speed>0.0</speed>
  <fix>3d</fix>
</trkpt>
<trkpt lat="-27.274439" lon="151.290064">
  <ele>371.09</ele>
  <time>2026-09-01T20:02:33Z</time>
  <course>10.59</course>
  <speed>0.0</speed>
  <fix>3d</fix>
</trkpt>
<trkpt lat="-27.274439" lon="151.290064">
  <ele>370.65</ele>
  <time>2026-09-01T20:02:33Z</time>
  <course>261.58</course>
  <speed>0.0</speed>
  <fix>3d</fix>
</trkpt>
<trkpt lat="-27.274439" lon="151.290064">
  <ele>371.13</ele>
  <time>2026-09-01T20:02:33Z</time>
  <course>10.59</course>
  <speed>0.0</speed>
  <fix>3d</fix>
</trkpt>
<trkpt lat="-27.274439" lon="151.290064">
  <ele>371.23</ele>
  <time>2026-09-01T20:02:33Z</time>
  <course>10.58</course>
  <speed>0.0</speed>
  <fix>3d</fix>
</trkpt>
<trkpt lat="-27.274439" lon="151.290064">
  <ele>370.93</ele>
  <time>2026-09-01T20:02:33Z</time>
  <course>293.8</course>
  <speed>0.0</speed>
  <fix>3d</fix>
</trkpt>
<trkpt lat="-27.274439" lon="151.290064">
  <ele>371.27</ele>
  <time>2026-09-01T20:02:33Z</time>
  <course>10.58</course>
  <speed>0.0</speed>
  <fix>3d</fix>
</trkpt>
<trkpt lat="-27.274439" lon="151.290064">
  <ele>371.38</ele>
  <time>2026-09-01T20:02:33Z</time>
  <course>10.58</course>
  <speed>0.0</speed>
  <fix>3d</fix>
</trkpt>
<trkpt lat="-27.274439" lon="151.290064">
  <ele>370.93</ele>
  <time>2026-09-01T20:02:33Z</time>
  <course>293.8</course>
  <speed>0.0</speed>
  <fix>3d</fix>
</trkpt>
<trkpt lat="-27.274439" lon="151.290064">
  <ele>371.42</ele>
  <time>2026-09-01T20:02:33Z</time>
  <course>10.58</course>
  <speed>0.0</speed>
  <fix>3d</fix>
</trkpt>
<trkpt lat="-27.274439" lon="151.290064">
  <ele>371.53</ele>
  <time>2026-09-01T20:02:33Z</time>
  <course>10.57</course>
  <speed>0.0</speed>
  <fix>3d</fix>
</trkpt>
<trkpt lat="-27.274439" lon="151.290064">
  <ele>371.22</ele>
  <time>2026-09-01T20:02:33Z</time>
  <course>313.74</course>
  <speed>0.0</speed>
  <fix>3d</fix>
</trkpt>
<trkpt lat="-27.274439" lon="151.290064">
  <ele>371.57</ele>
  <time>2026-09-01T20:02:33Z</time>
  <course>10.57</course>
  <speed>0.0</speed>
  <fix>3d</fix>
</trkpt>
<trkpt lat="-27.274439" lon="151.290064">
  <ele>371.67</ele>
  <time>2026-09-01T20:02:33Z</time>
  <course>10.57</course>
  <speed>0.0</speed>
  <fix>3d</fix>
</trkpt>
<trkpt lat="-27.274439" lon="151.290064">
  <ele>371.22</ele>
  <time>2026-09-01T20:02:33Z</time>
  <course>313.74</course>
  <speed>0.0</speed>
  <fix>3d</fix>
</trkpt>
<trkpt lat="-27.274439" lon="151.290064">
  <ele>371.71</ele>
  <time>2026-09-01T20:02:33Z</time>
  <course>10.57</course>
  <speed>0.0</speed>
  <fix>3d</fix>
</trkpt>
<trkpt lat="-27.274439" lon="151.290064">
  <ele>371.81</ele>
  <time>2026-09-01T20:02:33Z</time>
  <course>10.57</course>
  <speed>0.0</speed>
  <fix>3d</fix>
</trkpt>
<trkpt lat="-27.274439" lon="151.290064">
  <ele>371.51</ele>
  <time>2026-09-01T20:02:33Z</time>
  <course>328.42</course>
  <speed>0.0</speed>
  <fix>3d</fix>
</trkpt>
<trkpt lat="-27.274439" lon="151.290064">
  <ele>371.85</ele>
  <time>2026-09-01T20:02:33Z</time>
  <course>10.58</course>
  <speed>0.0</speed>
  <fix>3d</fix>
</trkpt>
<trkpt lat="-27.274439" lon="151.290064">
  <ele>371.96</ele>
  <time>2026-09-01T20:02:33Z</time>
  <course>10.58</course>
  <speed>0.0</speed>
  <fix>3d</fix>
</trkpt>
<trkpt lat="-27.274439" lon="151.290064">
  <ele>371.51</ele>
  <time>2026-09-01T20:02:33Z</time>
  <course>328.42</course>
  <speed>0.0</speed>
  <fix>3d</fix>
</trkpt>
<trkpt lat="-27.274439" lon="151.290064">
  <ele>371.96</ele>
  <time>2026-09-01T20:02:33Z</time>
  <course>10.58</course>
  <speed>0.0</speed>
  <fix>3d</fix>
</trkpt>
<trkpt lat="-27.274439" lon="151.290064">
  <ele>372.1</ele>
  <time>2026-09-01T20:02:33Z</time>
  <course>10.58</course>
  <speed>0.0</speed>
  <fix>3d</fix>
</trkpt>
<trkpt lat="-27.274439" lon="151.290064">
  <ele>371.8</ele>
  <time>2026-09-01T20:02:33Z</time>
  <course>335.37</course>
  <speed>0.0</speed>
  <fix>3d</fix>
</trkpt>
<trkpt lat="-27.274439" lon="151.290064">
  <ele>372.1</ele>
  <time>2026-09-01T20:02:33Z</time>
  <course>10.58</course>
  <speed>0.0</speed>
  <fix>3d</fix>
</trkpt>
<trkpt lat="-27.274439" lon="151.290064">
  <ele>372.24</ele>
  <time>2026-09-01T20:02:33Z</time>
  <course>10.59</course>
  <speed>0.0</speed>
  <fix>3d</fix>
</trkpt>
<trkpt lat="-27.274439" lon="151.290064">
  <ele>371.8</ele>
  <time>2026-09-01T20:02:33Z</time>
  <course>335.37</course>
  <speed>0.0</speed>
  <fix>3d</fix>
</trkpt>
<trkpt lat="-27.274439" lon="151.290064">
  <ele>372.28</ele>
  <time>2026-09-01T20:02:33Z</time>
  <course>10.59</course>
  <speed>0.0</speed>
  <fix>3d</fix>
</trkpt>
<trkpt lat="-27.274439" lon="151.290064">
  <ele>372.39</ele>
  <time>2026-09-01T20:02:33Z</time>
  <course>10.59</course>
  <speed>0.0</speed>
  <fix>3d</fix>
</trkpt>
<trkpt lat="-27.274439" lon="151.290064">
  <ele>372.09</ele>
  <time>2026-09-01T20:02:33Z</time>
  <course>336.88</course>
  <speed>0.0</speed>
  <fix>3d</fix>
</trkpt>
<trkpt lat="-27.274439" lon="151.290064">
  <ele>372.43</ele>
  <time>2026-09-01T20:02:33Z</time>
  <course>10.58</course>
  <speed>0.0</speed>
  <fix>3d</fix>
</trkpt>
<trkpt lat="-27.274439" lon="151.290064">
  <ele>372.53</ele>
  <time>2026-09-01T20:02:33Z</time>
  <course>10.58</course>
  <speed>0.0</speed>
  <fix>3d</fix>
</trkpt>
<trkpt lat="-27.274439" lon="151.290064">
  <ele>372.09</ele>
  <time>2026-09-01T20:02:33Z</time>
  <course>336.88</course>
  <speed>0.0</speed>
  <fix>3d</fix>
</trkpt>
<trkpt lat="-27.274439" lon="151.290064">
  <ele>372.57</ele>
  <time>2026-09-01T20:02:33Z</time>
  <course>10.58</course>
  <speed>0.0</speed>
  <fix>3d</fix>
</trkpt>
<trkpt lat="-27.274439" lon="151.290064">
  <ele>372.68</ele>
  <time>2026-09-01T20:02:33Z</time>
  <course>10.58</course>
  <speed>0.0</speed>
  <fix>3d</fix>
</trkpt>
<trkpt lat="-27.274439" lon="151.290064">
  <ele>372.38</ele>
  <time>2026-09-01T20:02:33Z</time>
  <course>336.06</course>
  <speed>0.01</speed>
  <fix>3d</fix>
</trkpt>
<trkpt lat="-27.274439" lon="151.290064">
  <ele>372.72</ele>
  <time>2026-09-01T20:02:33Z</time>
  <course>10.58</course>
  <speed>0.0</speed>
  <fix>3d</fix>
</trkpt>
<trkpt lat="-27.274439" lon="151.290064">
  <ele>372.82</ele>
  <time>2026-09-01T20:02:33Z</time>
  <course>10.57</course>
  <speed>0.0</speed>
  <fix>3d</fix>
</trkpt>
<trkpt lat="-27.274439" lon="151.290064">
  <ele>372.38</ele>
  <time>2026-09-01T20:02:33Z</time>
  <course>336.06</course>
  <speed>0.01</speed>
  <fix>3d</fix>
</trkpt>
<trkpt lat="-27.274439" lon="151.290064">
  <ele>372.83</ele>
  <time>2026-09-01T20:02:33Z</time>
  <course>10.57</course>
  <speed>0.0</speed>
  <fix>3d</fix>
</trkpt>
<trkpt lat="-27.274439" lon="151.290064">
  <ele>372.97</ele>
  <time>2026-09-01T20:02:33Z</time>
  <course>10.57</course>
  <speed>0.0</speed>
  <fix>3d</fix>
</trkpt>
<trkpt lat="-27.274439" lon="151.290064">
  <ele>372.67</ele>
  <time>2026-09-01T20:02:33Z</time>
  <course>333.97</course>
  <speed>0.01</speed>
  <fix>3d</fix>
</trkpt>
<trkpt lat="-27.274439" lon="151.290064">
  <ele>373.01</ele>
  <time>2026-09-01T20:02:33Z</time>
  <course>10.57</course>
  <speed>0.0</speed>
  <fix>3d</fix>
</trkpt>
<trkpt lat="-27.274439" lon="151.290064">
  <ele>373.12</ele>
  <time>2026-09-01T20:02:33Z</time>
  <course>10.56</course>
  <speed>0.0</speed>
  <fix>3d</fix>
</trkpt>
<trkpt lat="-27.274439" lon="151.290064">
  <ele>372.67</ele>
  <time>2026-09-01T20:02:33Z</time>
  <course>333.97</course>
  <speed>0.01</speed>
  <fix>3d</fix>
</trkpt>
<trkpt lat="-27.274439" lon="151.290064">
  <ele>373.16</ele>
  <time>2026-09-01T20:02:33Z</time>
  <course>10.56</course>
  <speed>0.0</speed>
  <fix>3d</fix>
</trkpt>
<trkpt lat="-27.274439" lon="151.290064">
  <ele>373.26</ele>
  <time>2026-09-01T20:02:33Z</time>
  <course>10.55</course>
  <speed>0.0</speed>
  <fix>3d</fix>
</trkpt>
<trkpt lat="-27.274439" lon="151.290064">
  <ele>372.96</ele>
  <time>2026-09-01T20:02:33Z</time>
  <course>334.58</course>
  <speed>0.01</speed>
  <fix>3d</fix>
</trkpt>
<trkpt lat="-27.274439" lon="151.290064">
  <ele>373.41</ele>
  <time>2026-09-01T20:02:33Z</time>
  <course>10.55</course>
  <speed>0.0</speed>
  <fix>3d</fix>
</trkpt>
<trkpt lat="-27.274439" lon="151.290064">
  <ele>372.96</ele>
  <time>2026-09-01T20:02:33Z</time>
  <course>334.58</course>
  <speed>0.01</speed>
  <fix>3d</fix>
</trkpt>
<trkpt lat="-27.274439" lon="151.290064">
  <ele>373.55</ele>
  <time>2026-09-01T20:02:33Z</time>
  <course>10.55</course>
  <speed>0.0</speed>
  <fix>3d</fix>
</trkpt>
<trkpt lat="-27.274439" lon="151.290064">
  <ele>373.24</ele>
  <time>2026-09-01T20:02:33Z</time>
  <course>337.09</course>
  <speed>0.01</speed>
  <fix>3d</fix>
</trkpt>
<trkpt lat="-27.274439" lon="151.290064">
  <ele>373.68</ele>
  <time>2026-09-01T20:02:33Z</time>
  <course>10.55</course>
  <speed>0.0</speed>
  <fix>3d</fix>
</trkpt>
<trkpt lat="-27.274439" lon="151.290064">
  <ele>373.24</ele>
  <time>2026-09-01T20:02:33Z</time>
  <course>337.09</course>
  <speed>0.01</speed>
  <fix>3d</fix>
</trkpt>
<trkpt lat="-27.274439" lon="151.290064">
  <ele>373.81</ele>
  <time>2026-09-01T20:02:33Z</time>
  <course>10.55</course>
  <speed>0.0</speed>
  <fix>3d</fix>
</trkpt>
<trkpt lat="-27.274439" lon="151.2900639">
  <ele>373.53</ele>
  <time>2026-09-01T20:02:33Z</time>
  <course>337.74</course>
  <speed>0.01</speed>
  <fix>3d</fix>
</trkpt>
<trkpt lat="-27.274439" lon="151.290064">
  <ele>373.93</ele>
  <time>2026-09-01T20:02:33Z</time>
  <course>10.56</course>
  <speed>0.0</speed>
  <fix>3d</fix>
</trkpt>
<trkpt lat="-27.274439" lon="151.2900639">
  <ele>373.53</ele>
  <time>2026-09-01T20:02:33Z</time>
  <course>337.74</course>
  <speed>0.01</speed>
  <fix>3d</fix>
</trkpt>
<trkpt lat="-27.274439" lon="151.290064">
  <ele>374.02</ele>
  <time>2026-09-01T20:02:33Z</time>
  <course>10.56</course>
  <speed>0.01</speed>
  <fix>3d</fix>
</trkpt>
<trkpt lat="-27.274439" lon="151.2900639">
  <ele>373.79</ele>
  <time>2026-09-01T20:02:33Z</time>
  <course>330.47</course>
  <speed>0.01</speed>
  <fix>3d</fix>
</trkpt>
<trkpt lat="-27.274439" lon="151.290064">
  <ele>374.1</ele>
  <time>2026-09-01T20:02:33Z</time>
  <course>10.56</course>
  <speed>0.02</speed>
  <fix>3d</fix>
</trkpt>
<trkpt lat="-27.274439" lon="151.2900639">
  <ele>373.79</ele>
  <time>2026-09-01T20:02:33Z</time>
  <course>330.47</course>
  <speed>0.01</speed>
  <fix>3d</fix>
</trkpt>
<trkpt lat="-27.274439" lon="151.290064">
  <ele>374.14</ele>
  <time>2026-09-01T20:02:33Z</time>
  <course>10.54</course>
  <speed>0.03</speed>
  <fix>3d</fix>
</trkpt>
<trkpt lat="-27.274439" lon="151.2900639">
  <ele>373.99</ele>
  <time>2026-09-01T20:02:33Z</time>
  <course>278.14</course>
  <speed>0.0</speed>
  <fix>3d</fix>
</trkpt>
<trkpt lat="-27.274439" lon="151.290064">
  <ele>374.16</ele>
  <time>2026-09-01T20:02:33Z</time>
  <course>10.52</course>
  <speed>0.04</speed>
  <fix>3d</fix>
</trkpt>
<trkpt lat="-27.274439" lon="151.2900639">
  <ele>373.99</ele>
  <time>2026-09-01T20:02:33Z</time>
  <course>278.14</course>
  <speed>0.0</speed>
  <fix>3d</fix>
</trkpt>
<trkpt lat="-27.274439" lon="151.290064">
  <ele>374.14</ele>
  <time>2026-09-01T20:02:33Z</time>
  <course>10.53</course>
  <speed>0.05</speed>
  <fix>3d</fix>
</trkpt>
<trkpt lat="-27.274439" lon="151.2900639">
  <ele>374.11</ele>
  <time>2026-09-01T20:02:33Z</time>
  <course>209.48</course>
  <speed>0.01</speed>
  <fix>3d</fix>
</trkpt>
<trkpt lat="-27.2744391" lon="151.290064">
  <ele>374.1</ele>
  <time>2026-09-01T20:02:33Z</time>
  <course>10.53</course>
  <speed>0.06</speed>
  <fix>3d</fix>
</trkpt>
<trkpt lat="-27.274439" lon="151.2900639">
  <ele>374.11</ele>
  <time>2026-09-01T20:02:33Z</time>
  <course>209.48</course>
  <speed>0.01</speed>
  <fix>3d</fix>
</trkpt>
<trkpt lat="-27.2744391" lon="151.290064">
  <ele>374.03</ele>
  <time>2026-09-01T20:02:33Z</time>
  <course>10.47</course>
  <speed>0.06</speed>
  <fix>3d</fix>
</trkpt>
<trkpt lat="-27.274439" lon="151.2900639">
  <ele>374.12</ele>
  <time>2026-09-01T20:02:33Z</time>
  <course>197.47</course>
  <speed>0.03</speed>
  <fix>3d</fix>
</trkpt>
<trkpt lat="-27.2744392" lon="151.290064">
  <ele>373.94</ele>
  <time>2026-09-01T20:02:33Z</time>
  <course>10.37</course>
  <speed>0.07</speed>
  <fix>3d</fix>
</trkpt>
<trkpt lat="-27.274439" lon="151.2900639">
  <ele>374.12</ele>
  <time>2026-09-01T20:02:33Z</time>
  <course>197.47</course>
  <speed>0.03</speed>
  <fix>3d</fix>
</trkpt>
<trkpt lat="-27.2744392" lon="151.290064">
  <ele>373.83</ele>
  <time>2026-09-01T20:02:33Z</time>
  <course>10.3</course>
  <speed>0.07</speed>
  <fix>3d</fix>
</trkpt>
<trkpt lat="-27.274439" lon="151.2900639">
  <ele>374.02</ele>
  <time>2026-09-01T20:02:33Z</time>
  <course>190.12</course>
  <speed>0.05</speed>
  <fix>3d</fix>
</trkpt>
<trkpt lat="-27.2744393" lon="151.290064">
  <ele>373.7</ele>
  <time>2026-09-01T20:02:33Z</time>
  <course>10.26</course>
  <speed>0.07</speed>
  <fix>3d</fix>
</trkpt>
<trkpt lat="-27.274439" lon="151.2900639">
  <ele>374.02</ele>
  <time>2026-09-01T20:02:33Z</time>
  <course>190.12</course>
  <speed>0.05</speed>
  <fix>3d</fix>
</trkpt>
<trkpt lat="-27.2744393" lon="151.290064">
  <ele>373.57</ele>
  <time>2026-09-01T20:02:33Z</time>
  <course>10.25</course>
  <speed>0.07</speed>
  <fix>3d</fix>
</trkpt>
<trkpt lat="-27.274439" lon="151.2900639">
  <ele>373.83</ele>
  <time>2026-09-01T20:02:33Z</time>
  <course>185.26</course>
  <speed>0.05</speed>
  <fix>3d</fix>
</trkpt>
<trkpt lat="-27.2744394" lon="151.290064">
  <ele>373.42</ele>
  <time>2026-09-01T20:02:33Z</time>
  <course>10.26</course>
  <speed>0.07</speed>
  <fix>3d</fix>
</trkpt>
<trkpt lat="-27.274439" lon="151.2900639">
  <ele>373.83</ele>
  <time>2026-09-01T20:02:33Z</time>
  <course>185.26</course>
  <speed>0.05</speed>
  <fix>3d</fix>
</trkpt>
<trkpt lat="-27.2744394" lon="151.290064">
  <ele>373.28</ele>
  <time>2026-09-01T20:02:33Z</time>
  <course>10.29</course>
  <speed>0.07</speed>
  <fix>3d</fix>
</trkpt>
<trkpt lat="-27.2744391" lon="151.2900638">
  <ele>373.57</ele>
  <time>2026-09-01T20:02:33Z</time>
  <course>184.31</course>
  <speed>0.05</speed>
  <fix>3d</fix>
</trkpt>
<trkpt lat="-27.2744395" lon="151.290064">
  <ele>373.14</ele>
  <time>2026-09-01T20:02:33Z</time>
  <course>10.33</course>
  <speed>0.06</speed>
  <fix>3d</fix>
</trkpt>
<trkpt lat="-27.2744391" lon="151.2900638">
  <ele>373.57</ele>
  <time>2026-09-01T20:02:33Z</time>
  <course>184.31</course>
  <speed>0.05</speed>
  <fix>3d</fix>
</trkpt>
<trkpt lat="-27.2744395" lon="151.290064">
  <ele>373.0</ele>
  <time>2026-09-01T20:02:33Z</time>
  <course>10.36</course>
  <speed>0.06</speed>
  <fix>3d</fix>
</trkpt>
<trkpt lat="-27.2744392" lon="151.2900637">
  <ele>373.3</ele>
  <time>2026-09-01T20:02:33Z</time>
  <course>183.49</course>
  <speed>0.05</speed>
  <fix>3d</fix>
</trkpt>
<trkpt lat="-27.2744395" lon="151.290064">
  <ele>372.86</ele>
  <time>2026-09-01T20:02:33Z</time>
  <course>10.39</course>
  <speed>0.06</speed>
  <fix>3d</fix>
</trkpt>
<trkpt lat="-27.2744392" lon="151.2900637">
  <ele>373.3</ele>
  <time>2026-09-01T20:02:33Z</time>
  <course>183.49</course>
  <speed>0.05</speed>
  <fix>3d</fix>
</trkpt>
<trkpt lat="-27.2744396" lon="151.290064">
  <ele>372.73</ele>
  <time>2026-09-01T20:02:33Z</time>
  <course>10.42</course>
  <speed>0.06</speed>
  <fix>3d</fix>
</trkpt>
<trkpt lat="-27.2744393" lon="151.2900637">
  <ele>373.02</ele>
  <time>2026-09-01T20:02:33Z</time>
  <course>182.91</course>
  <speed>0.05</speed>
  <fix>3d</fix>
</trkpt>
<trkpt lat="-27.2744396" lon="151.290064">
  <ele>372.6</ele>
  <time>2026-09-01T20:02:33Z</time>
  <course>10.43</course>
  <speed>0.06</speed>
  <fix>3d</fix>
</trkpt>
<trkpt lat="-27.2744393" lon="151.2900637">
  <ele>373.02</ele>
  <time>2026-09-01T20:02:33Z</time>
  <course>182.91</course>
  <speed>0.05</speed>
  <fix>3d</fix>
</trkpt>
<trkpt lat="-27.2744396" lon="151.290064">
  <ele>372.48</ele>
  <time>2026-09-01T20:02:33Z</time>
  <course>10.43</course>
  <speed>0.06</speed>
  <fix>3d</fix>
</trkpt>
<trkpt lat="-27.2744394" lon="151.2900637">
  <ele>372.76</ele>
  <time>2026-09-01T20:02:33Z</time>
  <course>183.16</course>
  <speed>0.05</speed>
  <fix>3d</fix>
</trkpt>
<trkpt lat="-27.2744397" lon="151.2900639">
  <ele>372.36</ele>
  <time>2026-09-01T20:02:33Z</time>
  <course>10.43</course>
  <speed>0.06</speed>
  <fix>3d</fix>
</trkpt>
<trkpt lat="-27.2744394" lon="151.2900637">
  <ele>372.76</ele>
  <time>2026-09-01T20:02:33Z</time>
  <course>183.16</course>
  <speed>0.05</speed>
  <fix>3d</fix>
</trkpt>
<trkpt lat="-27.2744397" lon="151.2900639">
  <ele>372.25</ele>
  <time>2026-09-01T20:02:33Z</time>
  <course>10.42</course>
  <speed>0.06</speed>
  <fix>3d</fix>
</trkpt>
<trkpt lat="-27.2744395" lon="151.2900637">
  <ele>372.52</ele>
  <time>2026-09-01T20:02:33Z</time>
  <course>183.61</course>
  <speed>0.05</speed>
  <fix>3d</fix>
</trkpt>
<trkpt lat="-27.2744398" lon="151.2900639">
  <ele>372.14</ele>
  <time>2026-09-01T20:02:33Z</time>
  <course>10.4</course>
  <speed>0.06082762530298219</speed>
  <fix>3d</fix>
</trkpt>
<trkpt lat="-27.2744395" lon="151.2900637">
  <ele>372.52</ele>
  <time>2026-09-01T20:02:33Z</time>
  <course>183.61</course>
  <speed>0.05</speed>
  <fix>3d</fix>
</trkpt>
<trkpt lat="-27.2744398" lon="151.2900639">
  <ele>372.03</ele>
  <time>2026-09-01T20:02:33Z</time>
  <course>10.39</course>
  <speed>0.06</speed>
  <fix>3d</fix>
</trkpt>
<trkpt lat="-27.2744396" lon="151.2900637">
  <ele>372.29</ele>
  <time>2026-09-01T20:02:33Z</time>
  <course>184.05</course>
  <speed>0.05</speed>
  <fix>3d</fix>
</trkpt>
<trkpt lat="-27.2744399" lon="151.2900639">
  <ele>371.92</ele>
  <time>2026-09-01T20:02:33Z</time>
  <course>10.38</course>
  <speed>0.06</speed>
  <fix>3d</fix>
</trkpt>
<trkpt lat="-27.2744396" lon="151.2900637">
  <ele>372.29</ele>
  <time>2026-09-01T20:02:33Z</time>
  <course>184.05</course>
  <speed>0.05</speed>
  <fix>3d</fix>
</trkpt>
<trkpt lat="-27.2744399" lon="151.2900639">
  <ele>371.82</ele>
  <time>2026-09-01T20:02:33Z</time>
  <course>10.37</course>
  <speed>0.06</speed>
  <fix>3d</fix>
</trkpt>
<trkpt lat="-27.2744397" lon="151.2900637">
  <ele>372.09</ele>
  <time>2026-09-01T20:02:33Z</time>
  <course>184.2</course>
  <speed>0.05</speed>
  <fix>3d</fix>
</trkpt>
<trkpt lat="-27.2744399" lon="151.2900639">
  <ele>371.72</ele>
  <time>2026-09-01T20:02:33Z</time>
  <course>10.37</course>
  <speed>0.06</speed>
  <fix>3d</fix>
</trkpt>
<trkpt lat="-27.2744397" lon="151.2900637">
  <ele>372.09</ele>
  <time>2026-09-01T20:02:33Z</time>
  <course>184.2</course>
  <speed>0.05</speed>
  <fix>3d</fix>
</trkpt>
<trkpt lat="-27.27444" lon="151.2900639">
  <ele>371.63</ele>
  <time>2026-09-01T20:02:33Z</time>
  <course>10.36</course>
  <speed>0.06</speed>
  <fix>3d</fix>
</trkpt>
<trkpt lat="-27.2744398" lon="151.2900637">
  <ele>371.89</ele>
  <time>2026-09-01T20:02:33Z</time>
  <course>184.16</course>
  <speed>0.05</speed>
  <fix>3d</fix>
</trkpt>
<trkpt lat="-27.27444" lon="151.2900639">
  <ele>371.53</ele>
  <time>2026-09-01T20:02:33Z</time>
  <course>10.36</course>
  <speed>0.06082762530298219</speed>
  <fix>3d</fix>
</trkpt>
<trkpt lat="-27.2744398" lon="151.2900637">
  <ele>371.89</ele>
  <time>2026-09-01T20:02:33Z</time>
  <course>184.16</course>
  <speed>0.05</speed>
  <fix>3d</fix>
</trkpt>
<trkpt lat="-27.2744401" lon="151.2900639">
  <ele>371.43</ele>
  <time>2026-09-01T20:02:33Z</time>
  <course>10.35</course>
  <speed>0.06</speed>
  <fix>3d</fix>
</trkpt>
<trkpt lat="-27.2744399" lon="151.2900637">
  <ele>371.69</ele>
  <time>2026-09-01T20:02:33Z</time>
  <course>183.92</course>
  <speed>0.05</speed>
  <fix>3d</fix>
</trkpt>
<trkpt lat="-27.2744401" lon="151.2900639">
  <ele>371.33</ele>
  <time>2026-09-01T20:02:33Z</time>
  <course>10.35</course>
  <speed>0.05</speed>
  <fix>3d</fix>
</trkpt>
<trkpt lat="-27.2744399" lon="151.2900637">
  <ele>371.69</ele>
  <time>2026-09-01T20:02:33Z</time>
  <course>183.92</course>
  <speed>0.05</speed>
  <fix>3d</fix>
</trkpt>
<trkpt lat="-27.2744401" lon="151.2900639">
  <ele>371.22</ele>
  <time>2026-09-01T20:02:33Z</time>
  <course>10.34</course>
  <speed>0.05</speed>
  <fix>3d</fix>
</trkpt>
<trkpt lat="-27.27444" lon="151.2900637">
  <ele>371.5</ele>
  <time>2026-09-01T20:02:33Z</time>
  <course>183.28</course>
  <speed>0.04</speed>
  <fix>3d</fix>
</trkpt>
<trkpt lat="-27.2744402" lon="151.2900639">
  <ele>371.12</ele>
  <time>2026-09-01T20:02:33Z</time>
  <course>10.34</course>
  <speed>0.05</speed>
  <fix>3d</fix>
</trkpt>
<trkpt lat="-27.27444" lon="151.2900637">
  <ele>371.5</ele>
  <time>2026-09-01T20:02:33Z</time>
  <course>183.28</course>
  <speed>0.04</speed>
  <fix>3d</fix>
</trkpt>
<trkpt lat="-27.2744402" lon="151.2900639">
  <ele>371.02</ele>
  <time>2026-09-01T20:02:33Z</time>
  <course>10.34</course>
  <speed>0.0412310562561766</speed>
  <fix>3d</fix>
</trkpt>
<trkpt lat="-27.2744401" lon="151.2900637">
  <ele>371.3</ele>
  <time>2026-09-01T20:02:33Z</time>
  <course>182.49</course>
  <speed>0.04</speed>
  <fix>3d</fix>
</trkpt>
<trkpt lat="-27.2744402" lon="151.2900639">
  <ele>370.91</ele>
  <time>2026-09-01T20:02:33Z</time>
  <course>10.33</course>
  <speed>0.0412310562561766</speed>
  <fix>3d</fix>
</trkpt>
<trkpt lat="-27.2744401" lon="151.2900637">
  <ele>371.3</ele>
  <time>2026-09-01T20:02:33Z</time>
  <course>182.49</course>
  <speed>0.04</speed>
  <fix>3d</fix>
</trkpt>
<trkpt lat="-27.2744403" lon="151.2900639">
  <ele>370.8</ele>
  <time>2026-09-01T20:02:33Z</time>
  <course>10.32</course>
  <speed>0.0412310562561766</speed>
  <fix>3d</fix>
</trkpt>
<trkpt lat="-27.2744402" lon="151.2900637">
  <ele>371.09</ele>
  <time>2026-09-01T20:02:33Z</time>
  <course>180.91</course>
  <speed>0.03</speed>
  <fix>3d</fix>
</trkpt>
<trkpt lat="-27.2744403" lon="151.2900639">
  <ele>370.68</ele>
  <time>2026-09-01T20:02:33Z</time>
  <course>10.32</course>
  <speed>0.0316227766016838</speed>
  <fix>3d</fix>
</trkpt>
<trkpt lat="-27.2744402" lon="151.2900637">
  <ele>371.09</ele>
  <time>2026-09-01T20:02:33Z</time>
  <course>180.91</course>
  <speed>0.03</speed>
  <fix>3d</fix>
</trkpt>
<trkpt lat="-27.2744403" lon="151.2900639">
  <ele>370.57</ele>
  <time>2026-09-01T20:02:33Z</time>
  <course>10.31</course>
  <speed>0.0316227766016838</speed>
  <fix>3d</fix>
</trkpt>
<trkpt lat="-27.2744402" lon="151.2900637">
  <ele>370.88</ele>
  <time>2026-09-01T20:02:33Z</time>
  <course>178.19</course>
  <speed>0.02</speed>
  <fix>3d</fix>
</trkpt>
<trkpt lat="-27.2744403" lon="151.2900639">
  <ele>370.45</ele>
  <time>2026-09-01T20:02:33Z</time>
  <course>10.3</course>
  <speed>0.022360679774997897</speed>
  <fix>3d</fix>
</trkpt>
<trkpt lat="-27.2744402" lon="151.2900637">
  <ele>370.88</ele>
  <time>2026-09-01T20:02:33Z</time>
  <course>178.19</course>
  <speed>0.02</speed>
  <fix>3d</fix>
</trkpt>
<trkpt lat="-27.2744403" lon="151.2900639">
  <ele>370.34</ele>
  <time>2026-09-01T20:02:33Z</time>
  <course>10.29</course>
  <speed>0.022360679774997897</speed>
  <fix>3d</fix>
</trkpt>
<trkpt lat="-27.2744403" lon="151.2900637">
  <ele>370.65</ele>
  <time>2026-09-01T20:02:33Z</time>
  <course>172.8</course>
  <speed>0.02</speed>
  <fix>3d</fix>
</trkpt>
<trkpt lat="-27.2744404" lon="151.2900639">
  <ele>370.22</ele>
  <time>2026-09-01T20:02:33Z</time>
  <course>10.28</course>
  <speed>0.01414213562373095</speed>
  <fix>3d</fix>
</trkpt>
<trkpt lat="-27.2744403" lon="151.2900637">
  <ele>370.65</ele>
  <time>2026-09-01T20:02:33Z</time>
  <course>172.8</course>
  <speed>0.02</speed>
  <fix>3d</fix>
</trkpt>
<trkpt lat="-27.2744404" lon="151.2900639">
  <ele>370.1</ele>
  <time>2026-09-01T20:02:33Z</time>
  <course>10.27</course>
  <speed>0.01414213562373095</speed>
  <fix>3d</fix>
</trkpt>
<trkpt lat="-27.2744403" lon="151.2900637">
  <ele>370.43</ele>
  <time>2026-09-01T20:02:33Z</time>
  <course>159.22</course>
  <speed>0.01</speed>
  <fix>3d</fix>
</trkpt>
<trkpt lat="-27.2744404" lon="151.2900639">
  <ele>369.98</ele>
  <time>2026-09-01T20:02:33Z</time>
  <course>10.28</course>
  <speed>0.01414213562373095</speed>
  <fix>3d</fix>
</trkpt>
<trkpt lat="-27.2744403" lon="151.2900637">
  <ele>370.43</ele>
  <time>2026-09-01T20:02:33Z</time>
  <course>159.22</course>
  <speed>0.01</speed>
  <fix>3d</fix>
</trkpt>
<trkpt lat="-27.2744404" lon="151.2900639">
  <ele>369.87</ele>
  <time>2026-09-01T20:02:33Z</time>
  <course>10.32</course>
  <speed>0.01</speed>
  <fix>3d</fix>
</trkpt>
<trkpt lat="-27.2744403" lon="151.2900637">
  <ele>370.2</ele>
  <time>2026-09-01T20:02:33Z</time>
  <course>112.9</course>
  <speed>0.0</speed>
  <fix>3d</fix>
</trkpt>
<trkpt lat="-27.2744404" lon="151.2900639">
  <ele>369.75</ele>
  <time>2026-09-01T20:02:33Z</time>
  <course>10.38</course>
  <speed>0.0</speed>
  <fix>3d</fix>
</trkpt>
<trkpt lat="-27.2744403" lon="151.2900637">
  <ele>370.2</ele>
  <time>2026-09-01T20:02:33Z</time>
  <course>112.9</course>
  <speed>0.0</speed>
  <fix>3d</fix>
</trkpt>
<trkpt lat="-27.2744404" lon="151.2900639">
  <ele>369.63</ele>
  <time>2026-09-01T20:02:33Z</time>
  <course>10.44</course>
  <speed>0.0</speed>
  <fix>3d</fix>
</trkpt>
<trkpt lat="-27.2744403" lon="151.2900637">
  <ele>369.97</ele>
  <time>2026-09-01T20:02:33Z</time>
  <course>25.11</course>
  <speed>0.0</speed>
  <fix>3d</fix>
</trkpt>
<trkpt lat="-27.2744404" lon="151.2900639">
  <ele>369.51</ele>
  <time>2026-09-01T20:02:33Z</time>
  <course>10.49</course>
  <speed>0.0</speed>
  <fix>3d</fix>
</trkpt>
<trkpt lat="-27.2744403" lon="151.2900637">
  <ele>369.97</ele>
  <time>2026-09-01T20:02:33Z</time>
  <course>25.11</course>
  <speed>0.0</speed>
  <fix>3d</fix>
</trkpt>
<trkpt lat="-27.2744404" lon="151.2900639">
  <ele>369.4</ele>
  <time>2026-09-01T20:02:33Z</time>
  <course>10.54</course>
  <speed>0.01</speed>
  <fix>3d</fix>
</trkpt>
<trkpt lat="-27.2744403" lon="151.2900637">
  <ele>369.74</ele>
  <time>2026-09-01T20:02:33Z</time>
  <course>2.75</course>
  <speed>0.01</speed>
  <fix>3d</fix>
</trkpt>
<trkpt lat="-27.2744404" lon="151.2900639">
  <ele>369.28</ele>
  <time>2026-09-01T20:02:33Z</time>
  <course>10.57</course>
  <speed>0.01</speed>
  <fix>3d</fix>
</trkpt>
<trkpt lat="-27.2744403" lon="151.2900637">
  <ele>369.74</ele>
  <time>2026-09-01T20:02:33Z</time>
  <course>2.75</course>
  <speed>0.01</speed>
  <fix>3d</fix>
</trkpt>
<trkpt lat="-27.2744404" lon="151.2900638">
  <ele>369.17</ele>
  <time>2026-09-01T20:02:33Z</time>
  <course>10.58</course>
  <speed>0.01</speed>
  <fix>3d</fix>
</trkpt>
<trkpt lat="-27.2744403" lon="151.2900637">
  <ele>369.52</ele>
  <time>2026-09-01T20:02:33Z</time>
  <course>356.05</course>
  <speed>0.02</speed>
  <fix>3d</fix>
</trkpt>
<trkpt lat="-27.2744403" lon="151.2900638">
  <ele>369.05</ele>
  <time>2026-09-01T20:02:33Z</time>
  <course>10.58</course>
  <speed>0.01</speed>
  <fix>3d</fix>
</trkpt>
<trkpt lat="-27.2744403" lon="151.2900637">
  <ele>369.52</ele>
  <time>2026-09-01T20:02:33Z</time>
  <course>356.05</course>
  <speed>0.02</speed>
  <fix>3d</fix>
</trkpt>
<trkpt lat="-27.2744403" lon="151.2900638">
  <ele>368.94</ele>
  <time>2026-09-01T20:02:33Z</time>
  <course>10.57</course>
  <speed>0.02</speed>
  <fix>3d</fix>
</trkpt>
<trkpt lat="-27.2744403" lon="151.2900637">
  <ele>369.29</ele>
  <time>2026-09-01T20:02:33Z</time>
  <course>352.62</course>
  <speed>0.03</speed>
  <fix>3d</fix>
</trkpt>
<trkpt lat="-27.2744403" lon="151.2900638">
  <ele>368.83</ele>
  <time>2026-09-01T20:02:33Z</time>
  <course>10.56</course>
  <speed>0.02</speed>
  <fix>3d</fix>
</trkpt>
<trkpt lat="-27.2744403" lon="151.2900637">
  <ele>369.29</ele>
  <time>2026-09-01T20:02:33Z</time>
  <course>352.62</course>
  <speed>0.03</speed>
  <fix>3d</fix>
</trkpt>
<trkpt lat="-27.2744403" lon="151.2900638">
  <ele>368.72</ele>
  <time>2026-09-01T20:02:33Z</time>
  <course>10.54</course>
  <speed>0.02</speed>
  <fix>3d</fix>
</trkpt>
<trkpt lat="-27.2744402" lon="151.2900637">
  <ele>369.07</ele>
  <time>2026-09-01T20:02:33Z</time>
  <course>350.68</course>
  <speed>0.03</speed>
  <fix>3d</fix>
</trkpt>
<trkpt lat="-27.2744402" lon="151.2900638">
  <ele>368.61</ele>
  <time>2026-09-01T20:02:33Z</time>
  <course>10.53</course>
  <speed>0.02</speed>
  <fix>3d</fix>
</trkpt>
<trkpt lat="-27.2744402" lon="151.2900637">
  <ele>369.07</ele>
  <time>2026-09-01T20:02:33Z</time>
  <course>350.68</course>
  <speed>0.03</speed>
  <fix>3d</fix>
</trkpt>
<trkpt lat="-27.2744402" lon="151.2900638">
  <ele>368.5</ele>
  <time>2026-09-01T20:02:33Z</time>
  <course>10.53</course>
  <speed>0.03</speed>
  <fix>3d</fix>
</trkpt>
<trkpt lat="-27.2744402" lon="151.2900637">
  <ele>368.84</ele>
  <time>2026-09-01T20:02:33Z</time>
  <course>350.01</course>
  <speed>0.04</speed>
  <fix>3d</fix>
</trkpt>
<trkpt lat="-27.2744402" lon="151.2900638">
  <ele>368.39</ele>
  <time>2026-09-01T20:02:33Z</time>
  <course>10.53</course>
  <speed>0.03</speed>
  <fix>3d</fix>
</trkpt>
<trkpt lat="-27.2744402" lon="151.2900637">
  <ele>368.84</ele>
  <time>2026-09-01T20:02:33Z</time>
  <course>350.01</course>
  <speed>0.04</speed>
  <fix>3d</fix>
</trkpt>
<trkpt lat="-27.2744401" lon="151.2900638">
  <ele>368.28</ele>
  <time>2026-09-01T20:02:33Z</time>
  <course>10.54</course>
  <speed>0.03</speed>
  <fix>3d</fix>
</trkpt>
<trkpt lat="-27.2744401" lon="151.2900637">
  <ele>368.62</ele>
  <time>2026-09-01T20:02:33Z</time>
  <course>350.07</course>
  <speed>0.04</speed>
  <fix>3d</fix>
</trkpt>
<trkpt lat="-27.2744401" lon="151.2900638">
  <ele>368.17</ele>
  <time>2026-09-01T20:02:33Z</time>
  <course>10.55</course>
  <speed>0.03</speed>
  <fix>3d</fix>
</trkpt>
<trkpt lat="-27.2744401" lon="151.2900637">
  <ele>368.62</ele>
  <time>2026-09-01T20:02:33Z</time>
  <course>350.07</course>
  <speed>0.04</speed>
  <fix>3d</fix>
</trkpt>
<trkpt lat="-27.27444" lon="151.2900638">
  <ele>368.05</ele>
  <time>2026-09-01T20:02:33Z</time>
  <course>10.56</course>
  <speed>0.03</speed>
  <fix>3d</fix>
</trkpt>
<trkpt lat="-27.27444" lon="151.2900637">
  <ele>368.4</ele>
  <time>2026-09-01T20:02:33Z</time>
  <course>350.41</course>
  <speed>0.05</speed>
  <fix>3d</fix>
</trkpt>
<trkpt lat="-27.27444" lon="151.2900638">
  <ele>367.94</ele>
  <time>2026-09-01T20:02:33Z</time>
  <course>10.57</course>
  <speed>0.03</speed>
  <fix>3d</fix>
</trkpt>
<trkpt lat="-27.27444" lon="151.2900637">
  <ele>368.4</ele>
  <time>2026-09-01T20:02:33Z</time>
  <course>350.41</course>
  <speed>0.05</speed>
  <fix>3d</fix>
</trkpt>
<trkpt lat="-27.27444" lon="151.2900638">
  <ele>367.82</ele>
  <time>2026-09-01T20:02:33Z</time>
  <course>10.57</course>
  <speed>0.04</speed>
  <fix>3d</fix>
</trkpt>
<trkpt lat="-27.2744399" lon="151.2900637">
  <ele>368.17</ele>
  <time>2026-09-01T20:02:33Z</time>
  <course>350.85</course>
  <speed>0.05</speed>
  <fix>3d</fix>
</trkpt>
<trkpt lat="-27.2744399" lon="151.2900638">
  <ele>367.71</ele>
  <time>2026-09-01T20:02:33Z</time>
  <course>10.58</course>
  <speed>0.04</speed>
  <fix>3d</fix>
</trkpt>
<trkpt lat="-27.2744399" lon="151.2900637">
  <ele>368.17</ele>
  <time>2026-09-01T20:02:33Z</time>
  <course>350.85</course>
  <speed>0.05</speed>
  <fix>3d</fix>
</trkpt>
<trkpt lat="-27.2744399" lon="151.2900637">
  <ele>367.59</ele>
  <time>2026-09-01T20:02:33Z</time>
  <course>10.59</course>
  <speed>0.04</speed>
  <fix>3d</fix>
</trkpt>
<trkpt lat="-27.2744398" lon="151.2900637">
  <ele>367.95</ele>
  <time>2026-09-01T20:02:33Z</time>
  <course>351.35</course>
  <speed>0.05</speed>
  <fix>3d</fix>
</trkpt>
<trkpt lat="-27.2744398" lon="151.2900637">
  <ele>367.48</ele>
  <time>2026-09-01T20:02:33Z</time>
  <course>10.59</course>
  <speed>0.05</speed>
  <fix>3d</fix>
</trkpt>
<trkpt lat="-27.2744398" lon="151.2900637">
  <ele>367.95</ele>
  <time>2026-09-01T20:02:33Z</time>
  <course>351.35</course>
  <speed>0.05</speed>
  <fix>3d</fix>
</trkpt>
<trkpt lat="-27.2744398" lon="151.2900637">
  <ele>367.47</ele>
  <time>2026-09-01T20:02:33Z</time>
  <course>10.59</course>
  <speed>0.05</speed>
  <fix>3d</fix>
</trkpt>
<trkpt lat="-27.2744397" lon="151.2900638">
  <ele>367.36</ele>
  <time>2026-09-01T20:02:33Z</time>
  <course>10.6</course>
  <speed>0.11045361017187261</speed>
  <fix>3d</fix>
</trkpt>
<trkpt lat="-27.2744397" lon="151.2900637">
  <ele>367.72</ele>
  <time>2026-09-01T20:02:33Z</time>
  <course>353.3</course>
  <speed>0.06</speed>
  <fix>3d</fix>
</trkpt>
<trkpt lat="-27.2744396" lon="151.2900638">
  <ele>367.21</ele>
  <time>2026-09-01T20:02:33Z</time>
  <course>10.58</course>
  <speed>0.20223748416156684</speed>
  <fix>3d</fix>
</trkpt>
<trkpt lat="-27.2744397" lon="151.2900637">
  <ele>367.72</ele>
  <time>2026-09-01T20:02:33Z</time>
  <course>353.3</course>
  <speed>0.06</speed>
  <fix>3d</fix>
</trkpt>
<trkpt lat="-27.2744393" lon="151.2900638">
  <ele>366.97</ele>
  <time>2026-09-01T20:02:33Z</time>
  <course>10.55</course>
  <speed>0.282842712474619</speed>
  <fix>3d</fix>
</trkpt>
<trkpt lat="-27.2744395" lon="151.2900637">
  <ele>367.47</ele>
  <time>2026-09-01T20:02:33Z</time>
  <course>1.72</course>
  <speed>0.14</speed>
  <fix>3d</fix>
</trkpt>
<trkpt lat="-27.274439" lon="151.2900638">
  <ele>366.65</ele>
  <time>2026-09-01T20:02:33Z</time>
  <course>10.5</course>
  <speed>0.304138126514911</speed>
  <fix>3d</fix>
</trkpt>
<trkpt lat="-27.2744395" lon="151.2900637">
  <ele>367.47</ele>
  <time>2026-09-01T20:02:33Z</time>
  <course>1.72</course>
  <speed>0.14</speed>
  <fix>3d</fix>
</trkpt>
<trkpt lat="-27.2744387" lon="151.2900638">
  <ele>366.27</ele>
  <time>2026-09-01T20:02:33Z</time>
  <course>10.42</course>
  <speed>0.3255764119219941</speed>
  <fix>3d</fix>
</trkpt>
<trkpt lat="-27.2744391" lon="151.2900637">
  <ele>367.07</ele>
  <time>2026-09-01T20:02:33Z</time>
  <course>5.19</course>
  <speed>0.27</speed>
  <fix>3d</fix>
</trkpt>
<trkpt lat="-27.2744384" lon="151.2900639">
  <ele>365.84</ele>
  <time>2026-09-01T20:02:33Z</time>
  <course>10.34</course>
  <speed>0.34525353003264136</speed>
  <fix>3d</fix>
</trkpt>
<trkpt lat="-27.2744391" lon="151.2900637">
  <ele>367.07</ele>
  <time>2026-09-01T20:02:33Z</time>
  <course>5.19</course>
  <speed>0.27</speed>
  <fix>3d</fix>
</trkpt>
<trkpt lat="-27.2744381" lon="151.2900639">
  <ele>365.36</ele>
  <time>2026-09-01T20:02:33Z</time>
  <course>10.25</course>
  <speed>0.37656340767525465</speed>
  <fix>3d</fix>
</trkpt>
<trkpt lat="-27.2744386" lon="151.2900637">
  <ele>366.4</ele>
  <time>2026-09-01T20:02:33Z</time>
  <course>6.35</course>
  <speed>0.34</speed>
  <fix>3d</fix>
</trkpt>
<trkpt lat="-27.2744377" lon="151.290064">
  <ele>364.84</ele>
  <time>2026-09-01T20:02:33Z</time>
  <course>10.17</course>
  <speed>0.447213595499958</speed>
  <fix>3d</fix>
</trkpt>
<trkpt lat="-27.2744386" lon="151.2900637">
  <ele>366.4</ele>
  <time>2026-09-01T20:02:33Z</time>
  <course>6.35</course>
  <speed>0.34</speed>
  <fix>3d</fix>
</trkpt>
<trkpt lat="-27.2744373" lon="151.2900641">
  <ele>365.49</ele>
  <time>2026-09-01T20:02:33Z</time>
  <course>10.1</course>
  <speed>0.5491812087098392</speed>
  <fix>3d</fix>
</trkpt>
<trkpt lat="-27.2744379" lon="151.2900637">
  <ele>365.5</ele>
  <time>2026-09-01T20:02:33Z</time>
  <course>6.91</course>
  <speed>0.41</speed>
  <fix>3d</fix>
</trkpt>
<trkpt lat="-27.2744367" lon="151.2900642">
  <ele>365.45</ele>
  <time>2026-09-01T20:02:33Z</time>
  <course>10.04</course>
  <speed>0.6708203932499369</speed>
  <fix>3d</fix>
</trkpt>
<trkpt lat="-27.2744379" lon="151.2900637">
  <ele>365.5</ele>
  <time>2026-09-01T20:02:33Z</time>
  <course>6.91</course>
  <speed>0.41</speed>
  <fix>3d</fix>
</trkpt>
<trkpt lat="-27.2744361" lon="151.2900643">
  <ele>365.31</ele>
  <time>2026-09-01T20:02:33Z</time>
  <course>10.0</course>
  <speed>0.792464510246358</speed>
  <fix>3d</fix>
</trkpt>
<trkpt lat="-27.2744371" lon="151.2900639">
  <ele>364.4</ele>
  <time>2026-09-01T20:02:33Z</time>
  <course>7.32</course>
  <speed>0.57</speed>
  <fix>3d</fix>
</trkpt>
<trkpt lat="-27.2744351" lon="151.2900644">
  <ele>365.08</ele>
  <time>2026-09-01T20:02:33Z</time>
  <course>9.96</course>
  <speed>1.4436065946094871</speed>
  <fix>3d</fix>
</trkpt>
<trkpt lat="-27.2744371" lon="151.2900639">
  <ele>364.4</ele>
  <time>2026-09-01T20:02:33Z</time>
  <course>7.32</course>
  <speed>0.57</speed>
  <fix>3d</fix>
</trkpt>
<trkpt lat="-27.2744335" lon="151.2900648">
  <ele>364.76</ele>
  <time>2026-09-01T20:02:33Z</time>
  <course>9.92</course>
  <speed>2.1949259668608416</speed>
  <fix>3d</fix>
</trkpt>
<trkpt lat="-27.2744358" lon="151.2900641">
  <ele>363.09</ele>
  <time>2026-09-01T20:02:33Z</time>
  <course>7.56</course>
  <speed>1.05</speed>
  <fix>3d</fix>
</trkpt>
<trkpt lat="-27.2744314" lon="151.2900652">
  <ele>364.35</ele>
  <time>2026-09-01T20:02:33Z</time>
  <course>9.89</course>
  <speed>2.4793547547698775</speed>
  <fix>3d</fix>
</trkpt>
<trkpt lat="-27.2744358" lon="151.2900641">
  <ele>363.09</ele>
  <time>2026-09-01T20:02:33Z</time>
  <course>7.56</course>
  <speed>1.05</speed>
  <fix>3d</fix>
</trkpt>
<trkpt lat="-27.2744292" lon="151.2900656">
  <ele>363.71</ele>
  <time>2026-09-01T20:02:33Z</time>
  <course>9.62</course>
  <speed>2.4167747102284896</speed>
  <fix>3d</fix>
</trkpt>
<trkpt lat="-27.2744331" lon="151.2900644">
  <ele>361.51</ele>
  <time>2026-09-01T20:02:33Z</time>
  <course>7.62</course>
  <speed>1.95</speed>
  <fix>3d</fix>
</trkpt>
<trkpt lat="-27.2744271" lon="151.2900659">
  <ele>363.0</ele>
  <time>2026-09-01T20:02:33Z</time>
  <course>9.53</course>
  <speed>2.304972884873052</speed>
  <fix>3d</fix>
</trkpt>
<trkpt lat="-27.2744331" lon="151.2900644">
  <ele>361.51</ele>
  <time>2026-09-01T20:02:33Z</time>
  <course>7.62</course>
  <speed>1.95</speed>
  <fix>3d</fix>
</trkpt>
<trkpt lat="-27.274425" lon="151.2900663">
  <ele>362.06</ele>
  <time>2026-09-01T20:02:33Z</time>
  <course>9.52</course>
  <speed>2.4660291969074497</speed>
  <fix>3d</fix>
</trkpt>
<trkpt lat="-27.274429" lon="151.2900651">
  <ele>359.63</ele>
  <time>2026-09-01T20:02:33Z</time>
  <course>7.62</course>
  <speed>2.4</speed>
  <fix>3d</fix>
</trkpt>
<trkpt lat="-27.2744225" lon="151.2900667">
  <ele>361.12</ele>
  <time>2026-09-01T20:02:33Z</time>
  <course>9.43</course>
  <speed>3.102208890452092</speed>
  <fix>3d</fix>
</trkpt>
<trkpt lat="-27.274429" lon="151.2900651">
  <ele>359.63</ele>
  <time>2026-09-01T20:02:33Z</time>
  <course>7.62</course>
  <speed>2.4</speed>
  <fix>3d</fix>
</trkpt>
<trkpt lat="-27.2744192" lon="151.2900672">
  <ele>359.99</ele>
  <time>2026-09-01T20:02:33Z</time>
  <course>9.28</course>
  <speed>4.19386456624436</speed>
  <fix>3d</fix>
</trkpt>
<trkpt lat="-27.2744246" lon="151.2900657">
  <ele>357.39</ele>
  <time>2026-09-01T20:02:33Z</time>
  <course>7.55</course>
  <speed>2.69</speed>
  <fix>3d</fix>
</trkpt>
<trkpt lat="-27.2744149" lon="151.2900679">
  <ele>358.9</ele>
  <time>2026-09-01T20:02:33Z</time>
  <course>9.17</course>
  <speed>5.538754372600396</speed>
  <fix>3d</fix>
</trkpt>
<trkpt lat="-27.2744246" lon="151.2900657">
  <ele>357.39</ele>
  <time>2026-09-01T20:02:33Z</time>
  <course>7.55</course>
  <speed>2.69</speed>
  <fix>3d</fix>
</trkpt>
<trkpt lat="-27.2744092" lon="151.2900688">
  <ele>357.68</ele>
  <time>2026-09-01T20:02:33Z</time>
  <course>8.99</course>
  <speed>6.933065699962751</speed>
  <fix>3d</fix>
</trkpt>
<trkpt lat="-27.2744186" lon="151.2900666">
  <ele>354.86</ele>
  <time>2026-09-01T20:02:33Z</time>
  <course>7.45</course>
  <speed>4.27</speed>
  <fix>3d</fix>
</trkpt>
<trkpt lat="-27.2744024" lon="151.2900699">
  <ele>356.53</ele>
  <time>2026-09-01T20:02:33Z</time>
  <course>8.82</course>
  <speed>8.256706365131317</speed>
  <fix>3d</fix>
</trkpt>
<trkpt lat="-27.2744186" lon="151.2900666">
  <ele>354.86</ele>
  <time>2026-09-01T20:02:33Z</time>
  <course>7.45</course>
  <speed>4.27</speed>
  <fix>3d</fix>
</trkpt>
<trkpt lat="-27.2743945" lon="151.290071">
  <ele>355.29</ele>
  <time>2026-09-01T20:02:33Z</time>
  <course>8.57</course>
  <speed>9.526426402381956</speed>
  <fix>3d</fix>
</trkpt>
<trkpt lat="-27.2744088" lon="151.290068">
  <ele>352.15</ele>
  <time>2026-09-01T20:02:33Z</time>
  <course>7.43</course>
  <speed>6.81</speed>
  <fix>3d</fix>
</trkpt>
<trkpt lat="-27.2743854" lon="151.2900724">
  <ele>354.13</ele>
  <time>2026-09-01T20:02:33Z</time>
  <course>8.37</course>
  <speed>10.776455818124992</speed>
  <fix>3d</fix>
</trkpt>
<trkpt lat="-27.2744088" lon="151.290068">
  <ele>352.15</ele>
  <time>2026-09-01T20:02:33Z</time>
  <course>7.43</course>
  <speed>6.81</speed>
  <fix>3d</fix>
</trkpt>
<trkpt lat="-27.2743751" lon="151.2900739">
  <ele>352.9</ele>
  <time>2026-09-01T20:02:33Z</time>
  <course>8.17</course>
  <speed>12.054783282996006</speed>
  <fix>3d</fix>
</trkpt>
<trkpt lat="-27.2743943" lon="151.2900702">
  <ele>349.41</ele>
  <time>2026-09-01T20:02:33Z</time>
  <course>7.5</course>
  <speed>9.41</speed>
  <fix>3d</fix>
</trkpt>
<trkpt lat="-27.2743638" lon="151.2900756">
  <ele>351.81</ele>
  <time>2026-09-01T20:02:33Z</time>
  <course>8.03</course>
  <speed>13.314822567349518</speed>
  <fix>3d</fix>
</trkpt>
<trkpt lat="-27.2743943" lon="151.2900702">
  <ele>349.41</ele>
  <time>2026-09-01T20:02:33Z</time>
  <course>7.5</course>
  <speed>9.41</speed>
  <fix>3d</fix>
</trkpt>
<trkpt lat="-27.2743512" lon="151.2900774">
  <ele>350.68</ele>
  <time>2026-09-01T20:02:33Z</time>
  <course>7.92</course>
  <speed>14.54238288589597</speed>
  <fix>3d</fix>
</trkpt>
<trkpt lat="-27.2743753" lon="151.290073">
  <ele>346.76</ele>
  <time>2026-09-01T20:02:33Z</time>
  <course>7.59</course>
  <speed>11.89</speed>
  <fix>3d</fix>
</trkpt>
<trkpt lat="-27.2743376" lon="151.2900794">
  <ele>349.72</ele>
  <time>2026-09-01T20:02:33Z</time>
  <course>7.85</course>
  <speed>15.66106637493118</speed>
  <fix>3d</fix>
</trkpt>
<trkpt lat="-27.2743753" lon="151.290073">
  <ele>346.76</ele>
  <time>2026-09-01T20:02:33Z</time>
  <course>7.59</course>
  <speed>11.89</speed>
  <fix>3d</fix>
</trkpt>
<trkpt lat="-27.2743292" lon="151.2900805">
  <ele>349.18</ele>
  <time>2026-09-01T20:02:33Z</time>
  <course>7.79</course>
  <speed>3.0153275112332323</speed>
  <fix>3d</fix>
</trkpt>
<trkpt lat="-27.274352" lon="151.2900766">
  <ele>344.32</ele>
  <time>2026-09-01T20:02:33Z</time>
  <course>7.65</course>
  <speed>14.24</speed>
  <fix>3d</fix>
</trkpt>
<trkpt lat="-27.27433" lon="151.2900802">
  <ele>349.45</ele>
  <time>2026-09-01T20:02:33Z</time>
  <course>7.75</course>
  <speed>3.53872858524075</speed>
  <fix>3d</fix>
</trkpt>
<trkpt lat="-27.274352" lon="151.2900766">
  <ele>344.32</ele>
  <time>2026-09-01T20:02:33Z</time>
  <course>7.65</course>
  <speed>14.24</speed>
  <fix>3d</fix>
</trkpt>
<trkpt lat="-27.2743326" lon="151.2900797">
  <ele>349.71</ele>
  <time>2026-09-01T20:02:33Z</time>
  <course>7.69</course>
  <speed>3.3055256768024055</speed>
  <fix>3d</fix>
</trkpt>
<trkpt lat="-27.2743356" lon="151.290079">
  <ele>342.9</ele>
  <time>2026-09-01T20:02:33Z</time>
  <course>7.77</course>
  <speed>5.65</speed>
  <fix>3d</fix>
</trkpt>
<trkpt lat="-27.2743337" lon="151.2900795">
  <ele>349.99</ele>
  <time>2026-09-01T20:02:33Z</time>
  <course>7.64</course>
  <speed>0.7134423592694787</speed>
  <fix>3d</fix>
</trkpt>
<trkpt lat="-27.2743356" lon="151.290079">
  <ele>342.9</ele>
  <time>2026-09-01T20:02:33Z</time>
  <course>7.77</course>
  <speed>5.65</speed>
  <fix>3d</fix>
</trkpt>
<trkpt lat="-27.274333" lon="151.2900796">
  <ele>350.04</ele>
  <time>2026-09-01T20:02:33Z</time>
  <course>7.63</course>
  <speed>1.2615070352558484</speed>
  <fix>3d</fix>
</trkpt>
<trkpt lat="-27.2743352" lon="151.2900791">
  <ele>342.88</ele>
  <time>2026-09-01T20:02:33Z</time>
  <course>187.35</course>
  <speed>2.97</speed>
  <fix>3d</fix>
</trkpt>
<trkpt lat="-27.2743313" lon="151.2900798">
  <ele>350.11</ele>
  <time>2026-09-01T20:02:33Z</time>
  <course>7.65</course>
  <speed>1.9362076334938874</speed>
  <fix>3d</fix>
</trkpt>
<trkpt lat="-27.2743352" lon="151.2900791">
  <ele>342.88</ele>
  <time>2026-09-01T20:02:33Z</time>
  <course>187.35</course>
  <speed>2.97</speed>
  <fix>3d</fix>
</trkpt>
<trkpt lat="-27.2743304" lon="151.2900799">
  <ele>350.11</ele>
  <time>2026-09-01T20:02:33Z</time>
  <course>7.68</course>
  <speed>1.6732304085211933</speed>
  <fix>3d</fix>
</trkpt>
<trkpt lat="-27.2743387" lon="151.2900786">
  <ele>343.14</ele>
  <time>2026-09-01T20:02:33Z</time>
  <course>187.13</course>
  <speed>0.56</speed>
  <fix>3d</fix>
</trkpt>
<trkpt lat="-26.9720619" lon="149.6127921">
  <ele>339.29</ele>
  <time>2026-09-01T20:02:34Z</time>
  <course>310.27</course>
  <speed>0.0</speed>
  <fix>3d</fix>
</trkpt>
<trkpt lat="-26.9720619" lon="149.6127921">
  <ele>339.29</ele>
  <time>2026-09-01T20:02:34Z</time>
  <course>310.27</course>
  <speed>0.0</speed>
  <fix>3d</fix>
</trkpt>
<trkpt lat="-27.274439" lon="151.290064">
  <ele>-0.01</ele>
  <time>2026-09-01T20:02:34Z</time>
  <course>0.22</course>
  <speed>0.0</speed>
  <fix>3d</fix>
</trkpt>
<trkpt lat="-27.274439" lon="151.290064">
  <ele>343.1</ele>
  <time>2026-09-01T20:02:34Z</time>
  <course>294.58</course>
  <speed>0.0</speed>
  <fix>3d</fix>
</trkpt>
<trkpt lat="-27.274439" lon="151.290064">
  <ele>0.02</ele>
  <time>2026-09-01T20:02:34Z</time>
  <course>1.2</course>
  <speed>0.0</speed>
  <fix>3d</fix>
</trkpt>
<trkpt lat="-27.274439" lon="151.290064">
  <ele>343.1</ele>
  <time>2026-09-01T20:02:34Z</time>
  <course>294.58</course>
  <speed>0.0</speed>
  <fix>3d</fix>
</trkpt>
<trkpt lat="-27.274439" lon="151.290064">
  <ele>-0.08</ele>
  <time>2026-09-01T20:02:34Z</time>
  <course>2.1</course>
  <speed>0.0</speed>
  <fix>3d</fix>
</trkpt>
<trkpt lat="-27.274439" lon="151.290064">
  <ele>343.1</ele>
  <time>2026-09-01T20:02:34Z</time>
  <course>273.33</course>
  <speed>0.0</speed>
  <fix>3d</fix>
</trkpt>
<trkpt lat="-27.274439" lon="151.290064">
  <ele>0.22</ele>
  <time>2026-09-01T20:02:34Z</time>
  <course>2.92</course>
  <speed>0.0</speed>
  <fix>3d</fix>
</trkpt>
<trkpt lat="-27.274439" lon="151.290064">
  <ele>343.1</ele>
  <time>2026-09-01T20:02:34Z</time>
  <course>273.33</course>
  <speed>0.0</speed>
  <fix>3d</fix>
</trkpt>
<trkpt lat="-27.274439" lon="151.290064">
  <ele>0.09</ele>
  <time>2026-09-01T20:02:34Z</time>
  <course>3.66</course>
  <speed>0.0</speed>
  <fix>3d</fix>
</trkpt>
<trkpt lat="-27.274439" lon="151.290064">
  <ele>343.1</ele>
  <time>2026-09-01T20:02:34Z</time>
  <course>270.44</course>
  <speed>0.0</speed>
  <fix>3d</fix>
</trkpt>
<trkpt lat="-27.274439" lon="151.290064">
  <ele>0.08</ele>
  <time>2026-09-01T20:02:34Z</time>
  <course>4.34</course>
  <speed>0.0</speed>
  <fix>3d</fix>
</trkpt>
<trkpt lat="-27.274439" lon="151.290064">
  <ele>343.1</ele>
  <time>2026-09-01T20:02:34Z</time>
  <course>270.44</course>
  <speed>0.0</speed>
  <fix>3d</fix>
</trkpt>
<trkpt lat="-27.274439" lon="151.290064">
  <ele>0.09</ele>
  <time>2026-09-01T20:02:34Z</time>
  <course>4.95</course>
  <speed>0.0</speed>
  <fix>3d</fix>
</trkpt>
<trkpt lat="-27.274439" lon="151.290064">
  <ele>343.1</ele>
  <time>2026-09-01T20:02:34Z</time>
  <course>270.05</course>
  <speed>0.0</speed>
  <fix>3d</fix>
</trkpt>
<trkpt lat="-27.274439" lon="151.290064">
  <ele>-0.05</ele>
  <time>2026-09-01T20:02:34Z</time>
  <course>5.5</course>
  <speed>0.0</speed>
  <fix>3d</fix>
</trkpt>
<trkpt lat="-27.274439" lon="151.290064">
  <ele>343.1</ele>
  <time>2026-09-01T20:02:34Z</time>
  <course>270.05</course>
  <speed>0.0</speed>
  <fix>3d</fix>
</trkpt>
<trkpt lat="-27.274439" lon="151.290064">
  <ele>343.06</ele>
  <time>2026-09-01T20:02:34Z</time>
  <course>5.98</course>
  <speed>0.0</speed>
  <fix>3d</fix>
</trkpt>
<trkpt lat="-27.274439" lon="151.290064">
  <ele>343.1</ele>
  <time>2026-09-01T20:02:34Z</time>
  <course>270.0</course>
  <speed>0.0</speed>
  <fix>3d</fix>
</trkpt>
<trkpt lat="-27.274439" lon="151.290064">
  <ele>343.18</ele>
  <time>2026-09-01T20:02:34Z</time>
  <course>6.44</course>
  <speed>0.0</speed>
  <fix>3d</fix>
</trkpt>
<trkpt lat="-27.274439" lon="151.290064">
  <ele>343.1</ele>
  <time>2026-09-01T20:02:34Z</time>
  <course>270.0</course>
  <speed>0.0</speed>
  <fix>3d</fix>
</trkpt>
<trkpt lat="-27.274439" lon="151.290064">
  <ele>342.91</ele>
  <time>2026-09-01T20:02:34Z</time>
  <course>6.85</course>
  <speed>0.0</speed>
  <fix>3d</fix>
</trkpt>
<trkpt lat="-27.274439" lon="151.290064">
  <ele>343.1</ele>
  <time>2026-09-01T20:02:34Z</time>
  <course>270.0</course>
  <speed>0.0</speed>
  <fix>3d</fix>
</trkpt>
<trkpt lat="-27.274439" lon="151.290064">
  <ele>343.06</ele>
  <time>2026-09-01T20:02:34Z</time>
  <course>7.22</course>
  <speed>0.0</speed>
  <fix>3d</fix>
</trkpt>
<trkpt lat="-27.274439" lon="151.290064">
  <ele>343.1</ele>
  <time>2026-09-01T20:02:34Z</time>
  <course>270.0</course>
  <speed>0.0</speed>
  <fix>3d</fix>
</trkpt>
<trkpt lat="-27.274439" lon="151.290064">
  <ele>343.13</ele>
  <time>2026-09-01T20:02:34Z</time>
  <course>7.56</course>
  <speed>0.0</speed>
  <fix>3d</fix>
</trkpt>
<trkpt lat="-27.274439" lon="151.290064">
  <ele>343.1</ele>
  <time>2026-09-01T20:02:34Z</time>
  <course>270.0</course>
  <speed>0.0</speed>
  <fix>3d</fix>
</trkpt>
<trkpt lat="-27.274439" lon="151.290064">
  <ele>343.04</ele>
  <time>2026-09-01T20:02:34Z</time>
  <course>7.87</course>
  <speed>0.0</speed>
  <fix>3d</fix>
</trkpt>
<trkpt lat="-27.274439" lon="151.290064">
  <ele>343.1</ele>
  <time>2026-09-01T20:02:34Z</time>
  <course>270.0</course>
  <speed>0.0</speed>
  <fix>3d</fix>
</trkpt>
<trkpt lat="-27.274439" lon="151.290064">
  <ele>342.88</ele>
  <time>2026-09-01T20:02:34Z</time>
  <course>8.14</course>
  <speed>0.0</speed>
  <fix>3d</fix>
</trkpt>
<trkpt lat="-27.274439" lon="151.290064">
  <ele>343.1</ele>
  <time>2026-09-01T20:02:34Z</time>
  <course>270.0</course>
  <speed>0.0</speed>
  <fix>3d</fix>
</trkpt>
<trkpt lat="-27.274439" lon="151.290064">
  <ele>343.02</ele>
  <time>2026-09-01T20:02:34Z</time>
  <course>8.39</course>
  <speed>0.0</speed>
  <fix>3d</fix>
</trkpt>
<trkpt lat="-27.274439" lon="151.290064">
  <ele>343.1</ele>
  <time>2026-09-01T20:02:34Z</time>
  <course>270.0</course>
  <speed>0.0</speed>
  <fix>3d</fix>
</trkpt>
<trkpt lat="-27.274439" lon="151.290064">
  <ele>343.23</ele>
  <time>2026-09-01T20:02:34Z</time>
  <course>8.63</course>
  <speed>0.0</speed>
  <fix>3d</fix>
</trkpt>
<trkpt lat="-27.274439" lon="151.290064">
  <ele>343.1</ele>
  <time>2026-09-01T20:02:34Z</time>
  <course>270.0</course>
  <speed>0.0</speed>
  <fix>3d</fix>
</trkpt>
<trkpt lat="-27.274439" lon="151.290064">
  <ele>343.17</ele>
  <time>2026-09-01T20:02:34Z</time>
  <course>8.83</course>
  <speed>0.0</speed>
  <fix>3d</fix>
</trkpt>
<trkpt lat="-27.274439" lon="151.290064">
  <ele>343.1</ele>
  <time>2026-09-01T20:02:34Z</time>
  <course>270.0</course>
  <speed>0.0</speed>
  <fix>3d</fix>
</trkpt>
<trkpt lat="-27.274439" lon="151.290064">
  <ele>343.04</ele>
  <time>2026-09-01T20:02:34Z</time>
  <course>9.01</course>
  <speed>0.0</speed>
  <fix>3d</fix>
</trkpt>
<trkpt lat="-27.274439" lon="151.290064">
  <ele>343.1</ele>
  <time>2026-09-01T20:02:34Z</time>
  <course>270.0</course>
  <speed>0.0</speed>
  <fix>3d</fix>
</trkpt>
<trkpt lat="-27.274439" lon="151.290064">
  <ele>342.89</ele>
  <time>2026-09-01T20:02:34Z</time>
  <course>9.18</course>
  <speed>0.0</speed>
  <fix>3d</fix>
</trkpt>
<trkpt lat="-27.274439" lon="151.290064">
  <ele>343.1</ele>
  <time>2026-09-01T20:02:34Z</time>
  <course>270.0</course>
  <speed>0.0</speed>
  <fix>3d</fix>
</trkpt>
<trkpt lat="-27.274439" lon="151.290064">
  <ele>343.08</ele>
  <time>2026-09-01T20:02:34Z</time>
  <course>9.33</course>
  <speed>0.0</speed>
  <fix>3d</fix>
</trkpt>
<trkpt lat="-27.274439" lon="151.290064">
  <ele>343.1</ele>
  <time>2026-09-01T20:02:34Z</time>
  <course>270.0</course>
  <speed>0.0</speed>
  <fix>3d</fix>
</trkpt>
<trkpt lat="-27.274439" lon="151.290064">
  <ele>343.19</ele>
  <time>2026-09-01T20:02:34Z</time>
  <course>9.47</course>
  <speed>0.0</speed>
  <fix>3d</fix>
</trkpt>
<trkpt lat="-27.274439" lon="151.290064">
  <ele>343.1</ele>
  <time>2026-09-01T20:02:34Z</time>
  <course>270.0</course>
  <speed>0.0</speed>
  <fix>3d</fix>
</trkpt>
<trkpt lat="-27.274439" lon="151.290064">
  <ele>342.88</ele>
  <time>2026-09-01T20:02:34Z</time>
  <course>9.59</course>
  <speed>0.0</speed>
  <fix>3d</fix>
</trkpt>
<trkpt lat="-27.274439" lon="151.290064">
  <ele>343.1</ele>
  <time>2026-09-01T20:02:34Z</time>
  <course>270.0</course>
  <speed>0.0</speed>
  <fix>3d</fix>
</trkpt>
<trkpt lat="-27.274439" lon="151.290064">
  <ele>343.17</ele>
  <time>2026-09-01T20:02:34Z</time>
  <course>9.7</course>
  <speed>0.0</speed>
  <fix>3d</fix>
</trkpt>
<trkpt lat="-27.274439" lon="151.290064">
  <ele>343.1</ele>
  <time>2026-09-01T20:02:34Z</time>
  <course>270.0</course>
  <speed>0.0</speed>
  <fix>3d</fix>
</trkpt>
<trkpt lat="-27.274439" lon="151.290064">
  <ele>342.89</ele>
  <time>2026-09-01T20:02:34Z</time>
  <course>9.8</course>
  <speed>0.0</speed>
  <fix>3d</fix>
</trkpt>
<trkpt lat="-27.274439" lon="151.290064">
  <ele>343.1</ele>
  <time>2026-09-01T20:02:34Z</time>
  <course>270.0</course>
  <speed>0.0</speed>
  <fix>3d</fix>
</trkpt>
<trkpt lat="-27.274439" lon="151.290064">
  <ele>342.99</ele>
  <time>2026-09-01T20:02:34Z</time>
  <course>9.9</course>
  <speed>0.0</speed>
  <fix>3d</fix>
</trkpt>
<trkpt lat="-27.274439" lon="151.290064">
  <ele>343.1</ele>
  <time>2026-09-01T20:02:34Z</time>
  <course>270.0</course>
  <speed>0.0</speed>
  <fix>3d</fix>
</trkpt>
<trkpt lat="-27.274439" lon="151.290064">
  <ele>342.87</ele>
  <time>2026-09-01T20:02:34Z</time>
  <course>9.98</course>
  <speed>0.0</speed>
  <fix>3d</fix>
</trkpt>
<trkpt lat="-27.274439" lon="151.290064">
  <ele>343.1</ele>
  <time>2026-09-01T20:02:34Z</time>
  <course>270.0</course>
  <speed>0.0</speed>
  <fix>3d</fix>
</trkpt>
<trkpt lat="-27.274439" lon="151.290064">
  <ele>343.09</ele>
  <time>2026-09-01T20:02:34Z</time>
  <course>10.06</course>
  <speed>0.0</speed>
  <fix>3d</fix>
</trkpt>
<trkpt lat="-27.274439" lon="151.290064">
  <ele>343.1</ele>
  <time>2026-09-01T20:02:34Z</time>
  <course>270.0</course>
  <speed>0.0</speed>
  <fix>3d</fix>
</trkpt>
<trkpt lat="-27.274439" lon="151.290064">
  <ele>343.18</ele>
  <time>2026-09-01T20:02:34Z</time>
  <course>10.13</course>
  <speed>0.0</speed>
  <fix>3d</fix>
</trkpt>
<trkpt lat="-27.274439" lon="151.290064">
  <ele>343.1</ele>
  <time>2026-09-01T20:02:34Z</time>
  <course>270.0</course>
  <speed>0.0</speed>
  <fix>3d</fix>
</trkpt>
<trkpt lat="-27.274439" lon="151.290064">
  <ele>343.05</ele>
  <time>2026-09-01T20:02:34Z</time>
  <course>10.2</course>
  <speed>0.0</speed>
  <fix>3d</fix>
</trkpt>
<trkpt lat="-27.274439" lon="151.290064">
  <ele>343.1</ele>
  <time>2026-09-01T20:02:34Z</time>
  <course>270.0</course>
  <speed>0.0</speed>
  <fix>3d</fix>
</trkpt>
<trkpt lat="-27.274439" lon="151.290064">
  <ele>342.96</ele>
  <time>2026-09-01T20:02:34Z</time>
  <course>10.25</course>
  <speed>0.0</speed>
  <fix>3d</fix>
</trkpt>
<trkpt lat="-27.274439" lon="151.290064">
  <ele>343.1</ele>
  <time>2026-09-01T20:02:34Z</time>
  <course>270.0</course>
  <speed>0.0</speed>
  <fix>3d</fix>
</trkpt>
<trkpt lat="-27.274439" lon="151.290064">
  <ele>343.1</ele>
  <time>2026-09-01T20:02:34Z</time>
  <course>10.31</course>
  <speed>0.0</speed>
  <fix>3d</fix>
</trkpt>
<trkpt lat="-27.274439" lon="151.290064">
  <ele>343.1</ele>
  <time>2026-09-01T20:02:34Z</time>
  <course>270.0</course>
  <speed>0.0</speed>
  <fix>3d</fix>
</trkpt>
<trkpt lat="-27.274439" lon="151.290064">
  <ele>343.22</ele>
  <time>2026-09-01T20:02:34Z</time>
  <course>10.35</course>
  <speed>0.0</speed>
  <fix>3d</fix>
</trkpt>
<trkpt lat="-27.274439" lon="151.290064">
  <ele>343.1</ele>
  <time>2026-09-01T20:02:34Z</time>
  <course>270.0</course>
  <speed>0.0</speed>
  <fix>3d</fix>
</trkpt>
<trkpt lat="-27.274439" lon="151.290064">
  <ele>343.17</ele>
  <time>2026-09-01T20:02:34Z</time>
  <course>10.4</course>
  <speed>0.0</speed>
  <fix>3d</fix>
</trkpt>
<trkpt lat="-27.274439" lon="151.290064">
  <ele>343.1</ele>
  <time>2026-09-01T20:02:34Z</time>
  <course>270.0</course>
  <speed>0.0</speed>
  <fix>3d</fix>
</trkpt>
<trkpt lat="-27.274439" lon="151.290064">
  <ele>343.08</ele>
  <time>2026-09-01T20:02:34Z</time>
  <course>10.44</course>
  <speed>0.0</speed>
  <fix>3d</fix>
</trkpt>
<trkpt lat="-27.274439" lon="151.290064">
  <ele>343.1</ele>
  <time>2026-09-01T20:02:34Z</time>
  <course>270.0</course>
  <speed>0.0</speed>
  <fix>3d</fix>
</trkpt>
<trkpt lat="-27.274439" lon="151.290064">
  <ele>343.04</ele>
  <time>2026-09-01T20:02:34Z</time>
  <course>10.47</course>
  <speed>0.0</speed>
  <fix>3d</fix>
</trkpt>
<trkpt lat="-27.274439" lon="151.290064">
  <ele>343.1</ele>
  <time>2026-09-01T20:02:34Z</time>
  <course>270.0</course>
  <speed>0.0</speed>
  <fix>3d</fix>
</trkpt>
<trkpt lat="-27.274439" lon="151.290064">
  <ele>343.18</ele>
  <time>2026-09-01T20:02:34Z</time>
  <course>10.5</course>
  <speed>0.0</speed>
  <fix>3d</fix>
</trkpt>
<trkpt lat="-27.274439" lon="151.290064">
  <ele>343.1</ele>
  <time>2026-09-01T20:02:34Z</time>
  <course>270.0</course>
  <speed>0.0</speed>
  <fix>3d</fix>
</trkpt>
<trkpt lat="-27.274439" lon="151.290064">
  <ele>343.12</ele>
  <time>2026-09-01T20:02:34Z</time>
  <course>10.53</course>
  <speed>0.0</speed>
  <fix>3d</fix>
</trkpt>
<trkpt lat="-27.274439" lon="151.290064">
  <ele>343.1</ele>
  <time>2026-09-01T20:02:34Z</time>
  <course>270.0</course>
  <speed>0.0</speed>
  <fix>3d</fix>
</trkpt>
<trkpt lat="-27.274439" lon="151.290064">
  <ele>343.04</ele>
  <time>2026-09-01T20:02:34Z</time>
  <course>10.56</course>
  <speed>0.0</speed>
  <fix>3d</fix>
</trkpt>
<trkpt lat="-27.274439" lon="151.290064">
  <ele>343.1</ele>
  <time>2026-09-01T20:02:34Z</time>
  <course>270.0</course>
  <speed>0.0</speed>
  <fix>3d</fix>
</trkpt>
<trkpt lat="-27.274439" lon="151.290064">
  <ele>343.07</ele>
  <time>2026-09-01T20:02:34Z</time>
  <course>10.58</course>
  <speed>0.0</speed>
  <fix>3d</fix>
</trkpt>
<trkpt lat="-27.274439" lon="151.290064">
  <ele>343.1</ele>
  <time>2026-09-01T20:02:34Z</time>
  <course>270.0</course>
  <speed>0.0</speed>
  <fix>3d</fix>
</trkpt>
<trkpt lat="-27.274439" lon="151.290064">
  <ele>343.04</ele>
  <time>2026-09-01T20:02:34Z</time>
  <course>10.6</course>
  <speed>0.0</speed>
  <fix>3d</fix>
</trkpt>
<trkpt lat="-27.274439" lon="151.290064">
  <ele>343.1</ele>
  <time>2026-09-01T20:02:34Z</time>
  <course>270.0</course>
  <speed>0.0</speed>
  <fix>3d</fix>
</trkpt>
<trkpt lat="-27.274439" lon="151.290064">
  <ele>343.01</ele>
  <time>2026-09-01T20:02:34Z</time>
  <course>10.62</course>
  <speed>0.0</speed>
  <fix>3d</fix>
</trkpt>
<trkpt lat="-27.274439" lon="151.290064">
  <ele>343.1</ele>
  <time>2026-09-01T20:02:34Z</time>
  <course>270.0</course>
  <speed>0.0</speed>
  <fix>3d</fix>
</trkpt>
<trkpt lat="-27.274439" lon="151.290064">
  <ele>343.2</ele>
  <time>2026-09-01T20:02:34Z</time>
  <course>10.64</course>
  <speed>0.0</speed>
  <fix>3d</fix>
</trkpt>
<trkpt lat="-27.274439" lon="151.290064">
  <ele>343.1</ele>
  <time>2026-09-01T20:02:34Z</time>
  <course>270.0</course>
  <speed>0.0</speed>
  <fix>3d</fix>
</trkpt>
<trkpt lat="-27.274439" lon="151.290064">
  <ele>343.24</ele>
  <time>2026-09-01T20:02:34Z</time>
  <course>10.65</course>
  <speed>0.0</speed>
  <fix>3d</fix>
</trkpt>
<trkpt lat="-27.274439" lon="151.290064">
  <ele>343.1</ele>
  <time>2026-09-01T20:02:34Z</time>
  <course>270.0</course>
  <speed>0.0</speed>
  <fix>3d</fix>
</trkpt>
<trkpt lat="-27.274439" lon="151.290064">
  <ele>342.88</ele>
  <time>2026-09-01T20:02:34Z</time>
  <course>10.67</course>
  <speed>0.0</speed>
  <fix>3d</fix>
</trkpt>
<trkpt lat="-27.274439" lon="151.290064">
  <ele>343.1</ele>
  <time>2026-09-01T20:02:34Z</time>
  <course>270.0</course>
  <speed>0.0</speed>
  <fix>3d</fix>
</trkpt>
<trkpt lat="-27.274439" lon="151.290064">
  <ele>343.21</ele>
  <time>2026-09-01T20:02:34Z</time>
  <course>10.68</course>
  <speed>0.0</speed>
  <fix>3d</fix>
</trkpt>
<trkpt lat="-27.274439" lon="151.290064">
  <ele>343.1</ele>
  <time>2026-09-01T20:02:34Z</time>
  <course>270.0</course>
  <speed>0.0</speed>
  <fix>3d</fix>
</trkpt>
<trkpt lat="-27.274439" lon="151.290064">
  <ele>343.02</ele>
  <time>2026-09-01T20:02:34Z</time>
  <course>10.69</course>
  <speed>0.0</speed>
  <fix>3d</fix>
</trkpt>
<trkpt lat="-27.274439" lon="151.290064">
  <ele>343.1</ele>
  <time>2026-09-01T20:02:34Z</time>
  <course>270.0</course>
  <speed>0.0</speed>
  <fix>3d</fix>
</trkpt>
<trkpt lat="-27.274439" lon="151.290064">
  <ele>342.93</ele>
  <time>2026-09-01T20:02:34Z</time>
  <course>10.7</course>
  <speed>0.0</speed>
  <fix>3d</fix>
</trkpt>
<trkpt lat="-27.274439" lon="151.290064">
  <ele>343.1</ele>
  <time>2026-09-01T20:02:34Z</time>
  <course>270.0</course>
  <speed>0.0</speed>
  <fix>3d</fix>
</trkpt>
<trkpt lat="-27.274439" lon="151.290064">
  <ele>343.07</ele>
  <time>2026-09-01T20:02:34Z</time>
  <course>10.71</course>
  <speed>0.0</speed>
  <fix>3d</fix>
</trkpt>
<trkpt lat="-27.274439" lon="151.290064">
  <ele>343.1</ele>
  <time>2026-09-01T20:02:34Z</time>
  <course>270.0</course>
  <speed>0.0</speed>
  <fix>3d</fix>
</trkpt>
<trkpt lat="-27.274439" lon="151.290064">
  <ele>342.94</ele>
  <time>2026-09-01T20:02:34Z</time>
  <course>10.72</course>
  <speed>0.0</speed>
  <fix>3d</fix>
</trkpt>
<trkpt lat="-27.274439" lon="151.290064">
  <ele>343.1</ele>
  <time>2026-09-01T20:02:34Z</time>
  <course>270.0</course>
  <speed>0.0</speed>
  <fix>3d</fix>
</trkpt>
<trkpt lat="-27.274439" lon="151.290064">
  <ele>343.11</ele>
  <time>2026-09-01T20:02:34Z</time>
  <course>10.73</course>
  <speed>0.0</speed>
  <fix>3d</fix>
</trkpt>
<trkpt lat="-27.274439" lon="151.290064">
  <ele>343.1</ele>
  <time>2026-09-01T20:02:34Z</time>
  <course>270.0</course>
  <speed>0.0</speed>
  <fix>3d</fix>
</trkpt>
<trkpt lat="-27.274439" lon="151.290064">
  <ele>343.24</ele>
  <time>2026-09-01T20:02:34Z</time>
  <course>10.73</course>
  <speed>0.0</speed>
  <fix>3d</fix>
</trkpt>
<trkpt lat="-27.274439" lon="151.290064">
  <ele>343.1</ele>
  <time>2026-09-01T20:02:34Z</time>
  <course>270.0</course>
  <speed>0.0</speed>
  <fix>3d</fix>
</trkpt>
<trkpt lat="-27.274439" lon="151.290064">
  <ele>343.18</ele>
  <time>2026-09-01T20:02:34Z</time>
  <course>10.74</course>
  <speed>0.0</speed>
  <fix>3d</fix>
</trkpt>
<trkpt lat="-27.274439" lon="151.290064">
  <ele>343.1</ele>
  <time>2026-09-01T20:02:34Z</time>
  <course>270.0</course>
  <speed>0.0</speed>
  <fix>3d</fix>
</trkpt>
<trkpt lat="-27.274439" lon="151.290064">
  <ele>342.89</ele>
  <time>2026-09-01T20:02:34Z</time>
  <course>10.75</course>
  <speed>0.0</speed>
  <fix>3d</fix>
</trkpt>
<trkpt lat="-27.274439" lon="151.290064">
  <ele>343.1</ele>
  <time>2026-09-01T20:02:34Z</time>
  <course>270.0</course>
  <speed>0.0</speed>
  <fix>3d</fix>
</trkpt>
<trkpt lat="-27.274439" lon="151.290064">
  <ele>343.23</ele>
  <time>2026-09-01T20:02:34Z</time>
  <course>10.75</course>
  <speed>0.0</speed>
  <fix>3d</fix>
</trkpt>
<trkpt lat="-27.274439" lon="151.290064">
  <ele>343.1</ele>
  <time>2026-09-01T20:02:34Z</time>
  <course>270.0</course>
  <speed>0.0</speed>
  <fix>3d</fix>
</trkpt>
<trkpt lat="-27.274439" lon="151.290064">
  <ele>343.23</ele>
  <time>2026-09-01T20:02:34Z</time>
  <course>10.76</course>
  <speed>0.0</speed>
  <fix>3d</fix>
</trkpt>
<trkpt lat="-27.274439" lon="151.290064">
  <ele>343.1</ele>
  <time>2026-09-01T20:02:34Z</time>
  <course>270.0</course>
  <speed>0.0</speed>
  <fix>3d</fix>
</trkpt>
<trkpt lat="-27.274439" lon="151.290064">
  <ele>342.99</ele>
  <time>2026-09-01T20:02:34Z</time>
  <course>10.76</course>
  <speed>0.0</speed>
  <fix>3d</fix>
</trkpt>
<trkpt lat="-27.274439" lon="151.290064">
  <ele>343.1</ele>
  <time>2026-09-01T20:02:34Z</time>
  <course>270.0</course>
  <speed>0.0</speed>
  <fix>3d</fix>
</trkpt>
<trkpt lat="-27.274439" lon="151.290064">
  <ele>343.13</ele>
  <time>2026-09-01T20:02:34Z</time>
  <course>10.76</course>
  <speed>0.0</speed>
  <fix>3d</fix>
</trkpt>
<trkpt lat="-27.274439" lon="151.290064">
  <ele>343.1</ele>
  <time>2026-09-01T20:02:34Z</time>
  <course>270.0</course>
  <speed>0.0</speed>
  <fix>3d</fix>
</trkpt>
<trkpt lat="-27.274439" lon="151.290064">
  <ele>343.07</ele>
  <time>2026-09-01T20:02:34Z</time>
  <course>10.77</course>
  <speed>0.0</speed>
  <fix>3d</fix>
</trkpt>
<trkpt lat="-27.274439" lon="151.290064">
  <ele>343.1</ele>
  <time>2026-09-01T20:02:34Z</time>
  <course>270.0</course>
  <speed>0.0</speed>
  <fix>3d</fix>
</trkpt>
<trkpt lat="-27.274439" lon="151.290064">
  <ele>343.19</ele>
  <time>2026-09-01T20:02:34Z</time>
  <course>10.77</course>
  <speed>0.0</speed>
  <fix>3d</fix>
</trkpt>
<trkpt lat="-27.274439" lon="151.290064">
  <ele>343.1</ele>
  <time>2026-09-01T20:02:34Z</time>
  <course>270.0</course>
  <speed>0.0</speed>
  <fix>3d</fix>
</trkpt>
<trkpt lat="-27.274439" lon="151.290064">
  <ele>342.93</ele>
  <time>2026-09-01T20:02:34Z</time>
  <course>10.77</course>
  <speed>0.0</speed>
  <fix>3d</fix>
</trkpt>
<trkpt lat="-27.274439" lon="151.290064">
  <ele>343.1</ele>
  <time>2026-09-01T20:02:34Z</time>
  <course>270.0</course>
  <speed>0.0</speed>
  <fix>3d</fix>
</trkpt>
<trkpt lat="-27.274439" lon="151.290064">
  <ele>343.19</ele>
  <time>2026-09-01T20:02:34Z</time>
  <course>10.78</course>
  <speed>0.0</speed>
  <fix>3d</fix>
</trkpt>
<trkpt lat="-27.274439" lon="151.290064">
  <ele>343.1</ele>
  <time>2026-09-01T20:02:34Z</time>
  <course>270.0</course>
  <speed>0.0</speed>
  <fix>3d</fix>
</trkpt>
<trkpt lat="-27.274439" lon="151.290064">
  <ele>343.1</ele>
  <time>2026-09-01T20:02:34Z</time>
  <course>10.78</course>
  <speed>0.0</speed>
  <fix>3d</fix>
</trkpt>
<trkpt lat="-27.274439" lon="151.290064">
  <ele>343.1</ele>
  <time>2026-09-01T20:02:34Z</time>
  <course>270.0</course>
  <speed>0.0</speed>
  <fix>3d</fix>
</trkpt>
<trkpt lat="-27.274439" lon="151.290064">
  <ele>343.01</ele>
  <time>2026-09-01T20:02:34Z</time>
  <course>10.78</course>
  <speed>0.0</speed>
  <fix>3d</fix>
</trkpt>
<trkpt lat="-27.274439" lon="151.290064">
  <ele>343.1</ele>
  <time>2026-09-01T20:02:34Z</time>
  <course>270.0</course>
  <speed>0.0</speed>
  <fix>3d</fix>
</trkpt>
<trkpt lat="-27.274439" lon="151.290064">
  <ele>343.11</ele>
  <time>2026-09-01T20:02:34Z</time>
  <course>10.78</course>
  <speed>0.0</speed>
  <fix>3d</fix>
</trkpt>
<trkpt lat="-27.274439" lon="151.290064">
  <ele>343.1</ele>
  <time>2026-09-01T20:02:34Z</time>
  <course>270.0</course>
  <speed>0.0</speed>
  <fix>3d</fix>
</trkpt>
<trkpt lat="-27.274439" lon="151.290064">
  <ele>342.96</ele>
  <time>2026-09-01T20:02:34Z</time>
  <course>10.78</course>
  <speed>0.0</speed>
  <fix>3d</fix>
</trkpt>
<trkpt lat="-27.274439" lon="151.290064">
  <ele>343.1</ele>
  <time>2026-09-01T20:02:34Z</time>
  <course>270.0</course>
  <speed>0.0</speed>
  <fix>3d</fix>
</trkpt>
<trkpt lat="-27.274439" lon="151.290064">
  <ele>343.19</ele>
  <time>2026-09-01T20:02:34Z</time>
  <course>10.79</course>
  <speed>0.0</speed>
  <fix>3d</fix>
</trkpt>
<trkpt lat="-27.274439" lon="151.290064">
  <ele>343.1</ele>
  <time>2026-09-01T20:02:34Z</time>
  <course>270.0</course>
  <speed>0.0</speed>
  <fix>3d</fix>
</trkpt>
<trkpt lat="-27.274439" lon="151.290064">
  <ele>343.0</ele>
  <time>2026-09-01T20:02:34Z</time>
  <course>10.79</course>
  <speed>0.0</speed>
  <fix>3d</fix>
</trkpt>
<trkpt lat="-27.274439" lon="151.290064">
  <ele>343.1</ele>
  <time>2026-09-01T20:02:34Z</time>
  <course>270.0</course>
  <speed>0.0</speed>
  <fix>3d</fix>
</trkpt>
<trkpt lat="-27.274439" lon="151.290064">
  <ele>343.2</ele>
  <time>2026-09-01T20:02:34Z</time>
  <course>10.79</course>
  <speed>0.0</speed>
  <fix>3d</fix>
</trkpt>
<trkpt lat="-27.274439" lon="151.290064">
  <ele>343.1</ele>
  <time>2026-09-01T20:02:34Z</time>
  <course>270.0</course>
  <speed>0.0</speed>
  <fix>3d</fix>
</trkpt>
<trkpt lat="-27.274439" lon="151.290064">
  <ele>343.2</ele>
  <time>2026-09-01T20:02:34Z</time>
  <course>10.79</course>
  <speed>0.0</speed>
  <fix>3d</fix>
</trkpt>
<trkpt lat="-27.274439" lon="151.290064">
  <ele>343.1</ele>
  <time>2026-09-01T20:02:34Z</time>
  <course>270.0</course>
  <speed>0.0</speed>
  <fix>3d</fix>
</trkpt>
<trkpt lat="-27.274439" lon="151.290064">
  <ele>343.13</ele>
  <time>2026-09-01T20:02:34Z</time>
  <course>10.79</course>
  <speed>0.0</speed>
  <fix>3d</fix>
</trkpt>
<trkpt lat="-27.274439" lon="151.290064">
  <ele>343.1</ele>
  <time>2026-09-01T20:02:34Z</time>
  <course>270.0</course>
  <speed>0.0</speed>
  <fix>3d</fix>
</trkpt>
<trkpt lat="-27.274439" lon="151.290064">
  <ele>343.1</ele>
  <time>2026-09-01T20:02:34Z</time>
  <course>10.79</course>
  <speed>0.0</speed>
  <fix>3d</fix>
</trkpt>
<trkpt lat="-27.274439" lon="151.290064">
  <ele>343.1</ele>
  <time>2026-09-01T20:02:34Z</time>
  <course>270.0</course>
  <speed>0.0</speed>
  <fix>3d</fix>
</trkpt>
<trkpt lat="-27.274439" lon="151.290064">
  <ele>343.12</ele>
  <time>2026-09-01T20:02:34Z</time>
  <course>10.79</course>
  <speed>0.0</speed>
  <fix>3d</fix>
</trkpt>
<trkpt lat="-27.274439" lon="151.290064">
  <ele>343.1</ele>
  <time>2026-09-01T20:02:34Z</time>
  <course>270.0</course>
  <speed>0.0</speed>
  <fix>3d</fix>
</trkpt>
<trkpt lat="-27.274439" lon="151.290064">
  <ele>342.94</ele>
  <time>2026-09-01T20:02:34Z</time>
  <course>10.79</course>
  <speed>0.0</speed>
  <fix>3d</fix>
</trkpt>
<trkpt lat="-27.274439" lon="151.290064">
  <ele>343.1</ele>
  <time>2026-09-01T20:02:34Z</time>
  <course>270.0</course>
  <speed>0.0</speed>
  <fix>3d</fix>
</trkpt>
<trkpt lat="-27.274439" lon="151.290064">
  <ele>343.25</ele>
  <time>2026-09-01T20:02:34Z</time>
  <course>10.79</course>
  <speed>0.0</speed>
  <fix>3d</fix>
</trkpt>
<trkpt lat="-27.274439" lon="151.290064">
  <ele>343.1</ele>
  <time>2026-09-01T20:02:34Z</time>
  <course>270.0</course>
  <speed>0.0</speed>
  <fix>3d</fix>
</trkpt>
<trkpt lat="-27.274439" lon="151.290064">
  <ele>342.93</ele>
  <time>2026-09-01T20:02:34Z</time>
  <course>10.79</course>
  <speed>0.0</speed>
  <fix>3d</fix>
</trkpt>
<trkpt lat="-27.274439" lon="151.290064">
  <ele>343.1</ele>
  <time>2026-09-01T20:02:34Z</time>
  <course>270.0</course>
  <speed>0.0</speed>
  <fix>3d</fix>
</trkpt>
<trkpt lat="-27.274439" lon="151.290064">
  <ele>343.08</ele>
  <time>2026-09-01T20:02:34Z</time>
  <course>10.79</course>
  <speed>0.0</speed>
  <fix>3d</fix>
</trkpt>
<trkpt lat="-27.274439" lon="151.290064">
  <ele>343.1</ele>
  <time>2026-09-01T20:02:34Z</time>
  <course>270.0</course>
  <speed>0.0</speed>
  <fix>3d</fix>
</trkpt>
<trkpt lat="-27.274439" lon="151.290064">
  <ele>343.23</ele>
  <time>2026-09-01T20:02:34Z</time>
  <course>10.8</course>
  <speed>0.0</speed>
  <fix>3d</fix>
</trkpt>
<trkpt lat="-27.274439" lon="151.290064">
  <ele>343.1</ele>
  <time>2026-09-01T20:02:34Z</time>
  <course>270.0</course>
  <speed>0.0</speed>
  <fix>3d</fix>
</trkpt>
<trkpt lat="-27.274439" lon="151.290064">
  <ele>343.01</ele>
  <time>2026-09-01T20:02:34Z</time>
  <course>10.8</course>
  <speed>0.0</speed>
  <fix>3d</fix>
</trkpt>
<trkpt lat="-27.274439" lon="151.290064">
  <ele>343.1</ele>
  <time>2026-09-01T20:02:34Z</time>
  <course>270.0</course>
  <speed>0.0</speed>
  <fix>3d</fix>
</trkpt>
<trkpt lat="-27.274439" lon="151.290064">
  <ele>343.1</ele>
  <time>2026-09-01T20:02:34Z</time>
  <course>10.8</course>
  <speed>0.0</speed>
  <fix>3d</fix>
</trkpt>
<trkpt lat="-27.274439" lon="151.290064">
  <ele>343.1</ele>
  <time>2026-09-01T20:02:34Z</time>
  <course>270.0</course>
  <speed>0.0</speed>
  <fix>3d</fix>
</trkpt>
<trkpt lat="-27.274439" lon="151.290064">
  <ele>342.99</ele>
  <time>2026-09-01T20:02:34Z</time>
  <course>10.8</course>
  <speed>0.0</speed>
  <fix>3d</fix>
</trkpt>
<trkpt lat="-27.274439" lon="151.290064">
  <ele>343.1</ele>
  <time>2026-09-01T20:02:34Z</time>
  <course>270.0</course>
  <speed>0.0</speed>
  <fix>3d</fix>
</trkpt>
<trkpt lat="-27.274439" lon="151.290064">
  <ele>342.87</ele>
  <time>2026-09-01T20:02:34Z</time>
  <course>10.8</course>
  <speed>0.0</speed>
  <fix>3d</fix>
</trkpt>
<trkpt lat="-27.274439" lon="151.290064">
  <ele>343.1</ele>
  <time>2026-09-01T20:02:34Z</time>
  <course>270.0</course>
  <speed>0.0</speed>
  <fix>3d</fix>
</trkpt>
<trkpt lat="-27.274439" lon="151.290064">
  <ele>343.1</ele>
  <time>2026-09-01T20:02:34Z</time>
  <course>10.8</course>
  <speed>0.0</speed>
  <fix>3d</fix>
</trkpt>
<trkpt lat="-27.274439" lon="151.290064">
  <ele>343.1</ele>
  <time>2026-09-01T20:02:34Z</time>
  <course>270.0</course>
  <speed>0.0</speed>
  <fix>3d</fix>
</trkpt>
<trkpt lat="-27.274439" lon="151.290064">
  <ele>342.99</ele>
  <time>2026-09-01T20:02:34Z</time>
  <course>10.8</course>
  <speed>0.0</speed>
  <fix>3d</fix>
</trkpt>
<trkpt lat="-27.274439" lon="151.290064">
  <ele>343.1</ele>
  <time>2026-09-01T20:02:34Z</time>
  <course>270.0</course>
  <speed>0.0</speed>
  <fix>3d</fix>
</trkpt>
<trkpt lat="-27.274439" lon="151.290064">
  <ele>342.91</ele>
  <time>2026-09-01T20:02:34Z</time>
  <course>10.8</course>
  <speed>0.0</speed>
  <fix>3d</fix>
</trkpt>
<trkpt lat="-27.274439" lon="151.290064">
  <ele>343.1</ele>
  <time>2026-09-01T20:02:34Z</time>
  <course>270.0</course>
  <speed>0.0</speed>
  <fix>3d</fix>
</trkpt>
<trkpt lat="-27.274439" lon="151.290064">
  <ele>342.9</ele>
  <time>2026-09-01T20:02:34Z</time>
  <course>10.8</course>
  <speed>0.0</speed>
  <fix>3d</fix>
</trkpt>
<trkpt lat="-27.274439" lon="151.290064">
  <ele>343.1</ele>
  <time>2026-09-01T20:02:34Z</time>
  <course>270.0</course>
  <speed>0.0</speed>
  <fix>3d</fix>
</trkpt>
<trkpt lat="-27.274439" lon="151.290064">
  <ele>342.87</ele>
  <time>2026-09-01T20:02:34Z</time>
  <course>10.8</course>
  <speed>0.0</speed>
  <fix>3d</fix>
</trkpt>
<trkpt lat="-27.274439" lon="151.290064">
  <ele>343.1</ele>
  <time>2026-09-01T20:02:34Z</time>
  <course>270.0</course>
  <speed>0.0</speed>
  <fix>3d</fix>
</trkpt>
<trkpt lat="-27.274439" lon="151.290064">
  <ele>343.12</ele>
  <time>2026-09-01T20:02:34Z</time>
  <course>10.8</course>
  <speed>0.0</speed>
  <fix>3d</fix>
</trkpt>
<trkpt lat="-27.274439" lon="151.290064">
  <ele>343.1</ele>
  <time>2026-09-01T20:02:34Z</time>
  <course>270.0</course>
  <speed>0.0</speed>
  <fix>3d</fix>
</trkpt>
<trkpt lat="-27.274439" lon="151.290064">
  <ele>342.99</ele>
  <time>2026-09-01T20:02:34Z</time>
  <course>10.8</course>
  <speed>0.0</speed>
  <fix>3d</fix>
</trkpt>
<trkpt lat="-27.274439" lon="151.290064">
  <ele>343.1</ele>
  <time>2026-09-01T20:02:34Z</time>
  <course>270.0</course>
  <speed>0.0</speed>
  <fix>3d</fix>
</trkpt>
<trkpt lat="-27.274439" lon="151.290064">
  <ele>343.13</ele>
  <time>2026-09-01T20:02:34Z</time>
  <course>10.8</course>
  <speed>0.0</speed>
  <fix>3d</fix>
</trkpt>
<trkpt lat="-27.274439" lon="151.290064">
  <ele>343.1</ele>
  <time>2026-09-01T20:02:34Z</time>
  <course>270.0</course>
  <speed>0.0</speed>
  <fix>3d</fix>
</trkpt>
<trkpt lat="-27.274439" lon="151.290064">
  <ele>343.0</ele>
  <time>2026-09-01T20:02:34Z</time>
  <course>10.8</course>
  <speed>0.0</speed>
  <fix>3d</fix>
</trkpt>
<trkpt lat="-27.274439" lon="151.290064">
  <ele>343.1</ele>
  <time>2026-09-01T20:02:34Z</time>
  <course>270.0</course>
  <speed>0.0</speed>
  <fix>3d</fix>
</trkpt>
<trkpt lat="-27.274439" lon="151.290064">
  <ele>343.17</ele>
  <time>2026-09-01T20:02:34Z</time>
  <course>10.8</course>
  <speed>0.0</speed>
  <fix>3d</fix>
</trkpt>
<trkpt lat="-27.274439" lon="151.290064">
  <ele>343.1</ele>
  <time>2026-09-01T20:02:34Z</time>
  <course>270.0</course>
  <speed>0.0</speed>
  <fix>3d</fix>
</trkpt>
<trkpt lat="-27.274439" lon="151.290064">
  <ele>343.0</ele>
  <time>2026-09-01T20:02:34Z</time>
  <course>10.8</course>
  <speed>0.0</speed>
  <fix>3d</fix>
</trkpt>
<trkpt lat="-27.274439" lon="151.290064">
  <ele>343.1</ele>
  <time>2026-09-01T20:02:34Z</time>
  <course>270.0</course>
  <speed>0.0</speed>
  <fix>3d</fix>
</trkpt>
<trkpt lat="-27.274439" lon="151.290064">
  <ele>342.99</ele>
  <time>2026-09-01T20:02:34Z</time>
  <course>10.8</course>
  <speed>0.0</speed>
  <fix>3d</fix>
</trkpt>
<trkpt lat="-27.274439" lon="151.290064">
  <ele>343.1</ele>
  <time>2026-09-01T20:02:34Z</time>
  <course>270.0</course>
  <speed>0.0</speed>
  <fix>3d</fix>
</trkpt>
<trkpt lat="-27.274439" lon="151.290064">
  <ele>343.17</ele>
  <time>2026-09-01T20:02:34Z</time>
  <course>10.8</course>
  <speed>0.0</speed>
  <fix>3d</fix>
</trkpt>
<trkpt lat="-27.274439" lon="151.290064">
  <ele>343.1</ele>
  <time>2026-09-01T20:02:34Z</time>
  <course>270.0</course>
  <speed>0.0</speed>
  <fix>3d</fix>
</trkpt>
<trkpt lat="-27.274439" lon="151.290064">
  <ele>343.16</ele>
  <time>2026-09-01T20:02:34Z</time>
  <course>10.8</course>
  <speed>0.0</speed>
  <fix>3d</fix>
</trkpt>
<trkpt lat="-27.274439" lon="151.290064">
  <ele>343.1</ele>
  <time>2026-09-01T20:02:34Z</time>
  <course>270.0</course>
  <speed>0.0</speed>
  <fix>3d</fix>
</trkpt>
<trkpt lat="-27.274439" lon="151.290064">
  <ele>342.87</ele>
  <time>2026-09-01T20:02:34Z</time>
  <course>10.8</course>
  <speed>0.0</speed>
  <fix>3d</fix>
</trkpt>
<trkpt lat="-27.274439" lon="151.290064">
  <ele>343.1</ele>
  <time>2026-09-01T20:02:34Z</time>
  <course>270.0</course>
  <speed>0.0</speed>
  <fix>3d</fix>
</trkpt>
<trkpt lat="-27.274439" lon="151.290064">
  <ele>343.19</ele>
  <time>2026-09-01T20:02:34Z</time>
  <course>10.8</course>
  <speed>0.0</speed>
  <fix>3d</fix>
</trkpt>
<trkpt lat="-27.274439" lon="151.290064">
  <ele>343.1</ele>
  <time>2026-09-01T20:02:34Z</time>
  <course>270.0</course>
  <speed>0.0</speed>
  <fix>3d</fix>
</trkpt>
<trkpt lat="-27.274439" lon="151.290064">
  <ele>343.16</ele>
  <time>2026-09-01T20:02:34Z</time>
  <course>10.8</course>
  <speed>0.0</speed>
  <fix>3d</fix>
</trkpt>
<trkpt lat="-27.274439" lon="151.290064">
  <ele>343.1</ele>
  <time>2026-09-01T20:02:34Z</time>
  <course>270.0</course>
  <speed>0.0</speed>
  <fix>3d</fix>
</trkpt>
<trkpt lat="-27.274439" lon="151.290064">
  <ele>343.21</ele>
  <time>2026-09-01T20:02:34Z</time>
  <course>10.8</course>
  <speed>0.0</speed>
  <fix>3d</fix>
</trkpt>
<trkpt lat="-27.274439" lon="151.290064">
  <ele>343.1</ele>
  <time>2026-09-01T20:02:34Z</time>
  <course>270.0</course>
  <speed>0.0</speed>
  <fix>3d</fix>
</trkpt>
<trkpt lat="-27.274439" lon="151.290064">
  <ele>343.22</ele>
  <time>2026-09-01T20:02:34Z</time>
  <course>10.8</course>
  <speed>0.0</speed>
  <fix>3d</fix>
</trkpt>
<trkpt lat="-27.274439" lon="151.290064">
  <ele>343.1</ele>
  <time>2026-09-01T20:02:34Z</time>
  <course>270.0</course>
  <speed>0.0</speed>
  <fix>3d</fix>
</trkpt>
<trkpt lat="-27.274439" lon="151.290064">
  <ele>343.24</ele>
  <time>2026-09-01T20:02:34Z</time>
  <course>10.8</course>
  <speed>0.0</speed>
  <fix>3d</fix>
</trkpt>
<trkpt lat="-27.274439" lon="151.290064">
  <ele>343.1</ele>
  <time>2026-09-01T20:02:34Z</time>
  <course>270.0</course>
  <speed>0.0</speed>
  <fix>3d</fix>
</trkpt>
<trkpt lat="-27.274439" lon="151.290064">
  <ele>343.0</ele>
  <time>2026-09-01T20:02:34Z</time>
  <course>10.8</course>
  <speed>0.0</speed>
  <fix>3d</fix>
</trkpt>
<trkpt lat="-27.274439" lon="151.290064">
  <ele>343.1</ele>
  <time>2026-09-01T20:02:34Z</time>
  <course>270.0</course>
  <speed>0.0</speed>
  <fix>3d</fix>
</trkpt>
<trkpt lat="-27.274439" lon="151.290064">
  <ele>343.1</ele>
  <time>2026-09-01T20:02:34Z</time>
  <course>10.8</course>
  <speed>0.0</speed>
  <fix>3d</fix>
</trkpt>
<trkpt lat="-27.274439" lon="151.290064">
  <ele>343.1</ele>
  <time>2026-09-01T20:02:34Z</time>
  <course>270.0</course>
  <speed>0.0</speed>
  <fix>3d</fix>
</trkpt>
<trkpt lat="-27.274439" lon="151.290064">
  <ele>343.05</ele>
  <time>2026-09-01T20:02:34Z</time>
  <course>10.8</course>
  <speed>0.0</speed>
  <fix>3d</fix>
</trkpt>
<trkpt lat="-27.274439" lon="151.290064">
  <ele>343.1</ele>
  <time>2026-09-01T20:02:34Z</time>
  <course>270.0</course>
  <speed>0.0</speed>
  <fix>3d</fix>
</trkpt>
<trkpt lat="-27.274439" lon="151.290064">
  <ele>342.87</ele>
  <time>2026-09-01T20:02:34Z</time>
  <course>10.8</course>
  <speed>0.0</speed>
  <fix>3d</fix>
</trkpt>
<trkpt lat="-27.274439" lon="151.290064">
  <ele>343.1</ele>
  <time>2026-09-01T20:02:34Z</time>
  <course>270.0</course>
  <speed>0.0</speed>
  <fix>3d</fix>
</trkpt>
<trkpt lat="-27.274439" lon="151.290064">
  <ele>342.92</ele>
  <time>2026-09-01T20:02:34Z</time>
  <course>10.8</course>
  <speed>0.0</speed>
  <fix>3d</fix>
</trkpt>
<trkpt lat="-27.274439" lon="151.290064">
  <ele>343.1</ele>
  <time>2026-09-01T20:02:34Z</time>
  <course>270.0</course>
  <speed>0.0</speed>
  <fix>3d</fix>
</trkpt>
<trkpt lat="-27.274439" lon="151.290064">
  <ele>342.96</ele>
  <time>2026-09-01T20:02:34Z</time>
  <course>10.8</course>
  <speed>0.0</speed>
  <fix>3d</fix>
</trkpt>
<trkpt lat="-27.274439" lon="151.290064">
  <ele>343.1</ele>
  <time>2026-09-01T20:02:34Z</time>
  <course>270.0</course>
  <speed>0.0</speed>
  <fix>3d</fix>
</trkpt>
<trkpt lat="-27.274439" lon="151.290064">
  <ele>343.15</ele>
  <time>2026-09-01T20:02:34Z</time>
  <course>10.8</course>
  <speed>0.0</speed>
  <fix>3d</fix>
</trkpt>
<trkpt lat="-27.274439" lon="151.290064">
  <ele>343.1</ele>
  <time>2026-09-01T20:02:34Z</time>
  <course>270.0</course>
  <speed>0.0</speed>
  <fix>3d</fix>
</trkpt>
<trkpt lat="-27.274439" lon="151.290064">
  <ele>343.16</ele>
  <time>2026-09-01T20:02:34Z</time>
  <course>10.8</course>
  <speed>0.0</speed>
  <fix>3d</fix>
</trkpt>
<trkpt lat="-27.274439" lon="151.290064">
  <ele>343.1</ele>
  <time>2026-09-01T20:02:34Z</time>
  <course>270.0</course>
  <speed>0.0</speed>
  <fix>3d</fix>
</trkpt>
<trkpt lat="-27.274439" lon="151.290064">
  <ele>343.2</ele>
  <time>2026-09-01T20:02:34Z</time>
  <course>10.81</course>
  <speed>0.0</speed>
  <fix>3d</fix>
</trkpt>
<trkpt lat="-27.274439" lon="151.290064">
  <ele>343.1</ele>
  <time>2026-09-01T20:02:34Z</time>
  <course>270.0</course>
  <speed>0.0</speed>
  <fix>3d</fix>
</trkpt>
<trkpt lat="-27.274439" lon="151.290064">
  <ele>343.13</ele>
  <time>2026-09-01T20:02:34Z</time>
  <course>10.82</course>
  <speed>0.0</speed>
  <fix>3d</fix>
</trkpt>
<trkpt lat="-27.274439" lon="151.290064">
  <ele>343.1</ele>
  <time>2026-09-01T20:02:34Z</time>
  <course>270.0</course>
  <speed>0.0</speed>
  <fix>3d</fix>
</trkpt>
<trkpt lat="-27.274439" lon="151.290064">
  <ele>343.09</ele>
  <time>2026-09-01T20:02:34Z</time>
  <course>10.71</course>
  <speed>0.0</speed>
  <fix>3d</fix>
</trkpt>
<trkpt lat="-27.274439" lon="151.290064">
  <ele>343.1</ele>
  <time>2026-09-01T20:02:34Z</time>
  <course>270.0</course>
  <speed>0.0</speed>
  <fix>3d</fix>
</trkpt>
<trkpt lat="-27.274439" lon="151.290064">
  <ele>343.09</ele>
  <time>2026-09-01T20:02:34Z</time>
  <course>10.71</course>
  <speed>0.0</speed>
  <fix>3d</fix>
</trkpt>
<trkpt lat="-27.274439" lon="151.290064">
  <ele>343.1</ele>
  <time>2026-09-01T20:02:34Z</time>
  <course>270.0</course>
  <speed>0.0</speed>
  <fix>3d</fix>
</trkpt>
<trkpt lat="-27.274439" lon="151.290064">
  <ele>343.1</ele>
  <time>2026-09-01T20:02:34Z</time>
  <course>10.71</course>
  <speed>0.0</speed>
  <fix>3d</fix>
</trkpt>
<trkpt lat="-27.274439" lon="151.290064">
  <ele>343.1</ele>
  <time>2026-09-01T20:02:34Z</time>
  <course>270.0</course>
  <speed>0.0</speed>
  <fix>3d</fix>
</trkpt>
<trkpt lat="-27.274439" lon="151.290064">
  <ele>343.1</ele>
  <time>2026-09-01T20:02:34Z</time>
  <course>10.71</course>
  <speed>0.0</speed>
  <fix>3d</fix>
</trkpt>
<trkpt lat="-27.274439" lon="151.290064">
  <ele>343.1</ele>
  <time>2026-09-01T20:02:34Z</time>
  <course>270.0</course>
  <speed>0.0</speed>
  <fix>3d</fix>
</trkpt>
<trkpt lat="-27.274439" lon="151.290064">
  <ele>343.1</ele>
  <time>2026-09-01T20:02:34Z</time>
  <course>10.71</course>
  <speed>0.0</speed>
  <fix>3d</fix>
</trkpt>
<trkpt lat="-27.274439" lon="151.290064">
  <ele>343.1</ele>
  <time>2026-09-01T20:02:34Z</time>
  <course>270.0</course>
  <speed>0.0</speed>
  <fix>3d</fix>
</trkpt>
<trkpt lat="-27.274439" lon="151.290064">
  <ele>343.1</ele>
  <time>2026-09-01T20:02:34Z</time>
  <course>10.71</course>
  <speed>0.0</speed>
  <fix>3d</fix>
</trkpt>
<trkpt lat="-27.274439" lon="151.290064">
  <ele>343.1</ele>
  <time>2026-09-01T20:02:34Z</time>
  <course>270.0</course>
  <speed>0.0</speed>
  <fix>3d</fix>
</trkpt>
<trkpt lat="-27.274439" lon="151.290064">
  <ele>343.1</ele>
  <time>2026-09-01T20:02:34Z</time>
  <course>10.71</course>
  <speed>0.0</speed>
  <fix>3d</fix>
</trkpt>
<trkpt lat="-27.274439" lon="151.290064">
  <ele>343.1</ele>
  <time>2026-09-01T20:02:34Z</time>
  <course>270.0</course>
  <speed>0.0</speed>
  <fix>3d</fix>
</trkpt>
<trkpt lat="-27.274439" lon="151.290064">
  <ele>343.11</ele>
  <time>2026-09-01T20:02:34Z</time>
  <course>10.71</course>
  <speed>0.0</speed>
  <fix>3d</fix>
</trkpt>
<trkpt lat="-27.274439" lon="151.290064">
  <ele>343.1</ele>
  <time>2026-09-01T20:02:34Z</time>
  <course>270.0</course>
  <speed>0.0</speed>
  <fix>3d</fix>
</trkpt>
<trkpt lat="-27.274439" lon="151.290064">
  <ele>343.11</ele>
  <time>2026-09-01T20:02:34Z</time>
  <course>10.71</course>
  <speed>0.0</speed>
  <fix>3d</fix>
</trkpt>
<trkpt lat="-27.274439" lon="151.290064">
  <ele>343.1</ele>
  <time>2026-09-01T20:02:34Z</time>
  <course>270.0</course>
  <speed>0.0</speed>
  <fix>3d</fix>
</trkpt>
<trkpt lat="-27.274439" lon="151.290064">
  <ele>343.11</ele>
  <time>2026-09-01T20:02:34Z</time>
  <course>10.71</course>
  <speed>0.0</speed>
  <fix>3d</fix>
</trkpt>
<trkpt lat="-27.274439" lon="151.290064">
  <ele>343.1</ele>
  <time>2026-09-01T20:02:34Z</time>
  <course>270.0</course>
  <speed>0.0</speed>
  <fix>3d</fix>
</trkpt>
<trkpt lat="-27.274439" lon="151.290064">
  <ele>343.12</ele>
  <time>2026-09-01T20:02:34Z</time>
  <course>10.71</course>
  <speed>0.0</speed>
  <fix>3d</fix>
</trkpt>
<trkpt lat="-27.274439" lon="151.290064">
  <ele>343.1</ele>
  <time>2026-09-01T20:02:34Z</time>
  <course>270.0</course>
  <speed>0.0</speed>
  <fix>3d</fix>
</trkpt>
<trkpt lat="-27.274439" lon="151.290064">
  <ele>343.12</ele>
  <time>2026-09-01T20:02:34Z</time>
  <course>10.71</course>
  <speed>0.0</speed>
  <fix>3d</fix>
</trkpt>
<trkpt lat="-27.274439" lon="151.290064">
  <ele>343.1</ele>
  <time>2026-09-01T20:02:34Z</time>
  <course>270.0</course>
  <speed>0.0</speed>
  <fix>3d</fix>
</trkpt>
<trkpt lat="-27.274439" lon="151.290064">
  <ele>343.1</ele>
  <time>2026-09-01T20:02:34Z</time>
  <course>10.71</course>
  <speed>0.0</speed>
  <fix>3d</fix>
</trkpt>
<trkpt lat="-27.274439" lon="151.290064">
  <ele>343.1</ele>
  <time>2026-09-01T20:02:34Z</time>
  <course>270.0</course>
  <speed>0.0</speed>
  <fix>3d</fix>
</trkpt>
<trkpt lat="-27.274439" lon="151.290064">
  <ele>343.1</ele>
  <time>2026-09-01T20:02:34Z</time>
  <course>10.71</course>
  <speed>0.0</speed>
  <fix>3d</fix>
</trkpt>
<trkpt lat="-27.274439" lon="151.290064">
  <ele>343.1</ele>
  <time>2026-09-01T20:02:34Z</time>
  <course>270.0</course>
  <speed>0.0</speed>
  <fix>3d</fix>
</trkpt>
<trkpt lat="-27.274439" lon="151.290064">
  <ele>343.1</ele>
  <time>2026-09-01T20:02:34Z</time>
  <course>10.71</course>
  <speed>0.0</speed>
  <fix>3d</fix>
</trkpt>
<trkpt lat="-27.274439" lon="151.290064">
  <ele>343.1</ele>
  <time>2026-09-01T20:02:34Z</time>
  <course>270.0</course>
  <speed>0.0</speed>
  <fix>3d</fix>
</trkpt>
<trkpt lat="-27.274439" lon="151.290064">
  <ele>343.09</ele>
  <time>2026-09-01T20:02:34Z</time>
  <course>10.71</course>
  <speed>0.0</speed>
  <fix>3d</fix>
</trkpt>
<trkpt lat="-27.274439" lon="151.290064">
  <ele>343.1</ele>
  <time>2026-09-01T20:02:34Z</time>
  <course>270.0</course>
  <speed>0.0</speed>
  <fix>3d</fix>
</trkpt>
<trkpt lat="-27.274439" lon="151.290064">
  <ele>343.09</ele>
  <time>2026-09-01T20:02:34Z</time>
  <course>10.71</course>
  <speed>0.0</speed>
  <fix>3d</fix>
</trkpt>
<trkpt lat="-27.274439" lon="151.290064">
  <ele>343.1</ele>
  <time>2026-09-01T20:02:34Z</time>
  <course>270.0</course>
  <speed>0.0</speed>
  <fix>3d</fix>
</trkpt>
<trkpt lat="-27.274439" lon="151.290064">
  <ele>343.09</ele>
  <time>2026-09-01T20:02:34Z</time>
  <course>10.71</course>
  <speed>0.0</speed>
  <fix>3d</fix>
</trkpt>
<trkpt lat="-27.274439" lon="151.290064">
  <ele>343.1</ele>
  <time>2026-09-01T20:02:34Z</time>
  <course>270.0</course>
  <speed>0.0</speed>
  <fix>3d</fix>
</trkpt>
<trkpt lat="-27.274439" lon="151.290064">
  <ele>343.1</ele>
  <time>2026-09-01T20:02:34Z</time>
  <course>10.71</course>
  <speed>0.0</speed>
  <fix>3d</fix>
</trkpt>
<trkpt lat="-27.274439" lon="151.290064">
  <ele>343.1</ele>
  <time>2026-09-01T20:02:34Z</time>
  <course>270.0</course>
  <speed>0.0</speed>
  <fix>3d</fix>
</trkpt>
<trkpt lat="-27.274439" lon="151.290064">
  <ele>343.1</ele>
  <time>2026-09-01T20:02:34Z</time>
  <course>10.71</course>
  <speed>0.0</speed>
  <fix>3d</fix>
</trkpt>
<trkpt lat="-27.274439" lon="151.290064">
  <ele>343.1</ele>
  <time>2026-09-01T20:02:34Z</time>
  <course>270.0</course>
  <speed>0.0</speed>
  <fix>3d</fix>
</trkpt>
<trkpt lat="-27.274439" lon="151.290064">
  <ele>343.09</ele>
  <time>2026-09-01T20:02:34Z</time>
  <course>10.71</course>
  <speed>0.0</speed>
  <fix>3d</fix>
</trkpt>
<trkpt lat="-27.274439" lon="151.290064">
  <ele>343.1</ele>
  <time>2026-09-01T20:02:34Z</time>
  <course>270.0</course>
  <speed>0.0</speed>
  <fix>3d</fix>
</trkpt>
<trkpt lat="-27.274439" lon="151.290064">
  <ele>343.09</ele>
  <time>2026-09-01T20:02:34Z</time>
  <course>10.71</course>
  <speed>0.0</speed>
  <fix>3d</fix>
</trkpt>
<trkpt lat="-27.274439" lon="151.290064">
  <ele>343.1</ele>
  <time>2026-09-01T20:02:34Z</time>
  <course>270.0</course>
  <speed>0.0</speed>
  <fix>3d</fix>
</trkpt>
<trkpt lat="-27.274439" lon="151.290064">
  <ele>343.09</ele>
  <time>2026-09-01T20:02:34Z</time>
  <course>10.71</course>
  <speed>0.0</speed>
  <fix>3d</fix>
</trkpt>
<trkpt lat="-27.274439" lon="151.290064">
  <ele>343.1</ele>
  <time>2026-09-01T20:02:34Z</time>
  <course>270.0</course>
  <speed>0.0</speed>
  <fix>3d</fix>
</trkpt>
<trkpt lat="-27.274439" lon="151.290064">
  <ele>343.09</ele>
  <time>2026-09-01T20:02:34Z</time>
  <course>10.71</course>
  <speed>0.0</speed>
  <fix>3d</fix>
</trkpt>
<trkpt lat="-27.274439" lon="151.290064">
  <ele>343.1</ele>
  <time>2026-09-01T20:02:34Z</time>
  <course>270.0</course>
  <speed>0.0</speed>
  <fix>3d</fix>
</trkpt>
<trkpt lat="-27.274439" lon="151.290064">
  <ele>343.09</ele>
  <time>2026-09-01T20:02:34Z</time>
  <course>10.71</course>
  <speed>0.0</speed>
  <fix>3d</fix>
</trkpt>
<trkpt lat="-27.274439" lon="151.290064">
  <ele>343.1</ele>
  <time>2026-09-01T20:02:34Z</time>
  <course>270.0</course>
  <speed>0.0</speed>
  <fix>3d</fix>
</trkpt>
<trkpt lat="-27.274439" lon="151.290064">
  <ele>343.09</ele>
  <time>2026-09-01T20:02:34Z</time>
  <course>10.71</course>
  <speed>0.0</speed>
  <fix>3d</fix>
</trkpt>
<trkpt lat="-27.274439" lon="151.290064">
  <ele>343.1</ele>
  <time>2026-09-01T20:02:34Z</time>
  <course>270.0</course>
  <speed>0.0</speed>
  <fix>3d</fix>
</trkpt>
<trkpt lat="-27.274439" lon="151.290064">
  <ele>343.09</ele>
  <time>2026-09-01T20:02:34Z</time>
  <course>10.71</course>
  <speed>0.0</speed>
  <fix>3d</fix>
</trkpt>
<trkpt lat="-27.274439" lon="151.290064">
  <ele>343.1</ele>
  <time>2026-09-01T20:02:34Z</time>
  <course>270.0</course>
  <speed>0.0</speed>
  <fix>3d</fix>
</trkpt>
<trkpt lat="-27.274439" lon="151.290064">
  <ele>343.09</ele>
  <time>2026-09-01T20:02:34Z</time>
  <course>10.71</course>
  <speed>0.0</speed>
  <fix>3d</fix>
</trkpt>
<trkpt lat="-27.274439" lon="151.290064">
  <ele>343.1</ele>
  <time>2026-09-01T20:02:34Z</time>
  <course>270.0</course>
  <speed>0.0</speed>
  <fix>3d</fix>
</trkpt>
<trkpt lat="-27.274439" lon="151.290064">
  <ele>343.1</ele>
  <time>2026-09-01T20:02:34Z</time>
  <course>10.71</course>
  <speed>0.0</speed>
  <fix>3d</fix>
</trkpt>
<trkpt lat="-27.274439" lon="151.290064">
  <ele>343.1</ele>
  <time>2026-09-01T20:02:34Z</time>
  <course>270.0</course>
  <speed>0.0</speed>
  <fix>3d</fix>
</trkpt>
<trkpt lat="-27.274439" lon="151.290064">
  <ele>343.1</ele>
  <time>2026-09-01T20:02:34Z</time>
  <course>10.71</course>
  <speed>0.0</speed>
  <fix>3d</fix>
</trkpt>
<trkpt lat="-27.274439" lon="151.290064">
  <ele>343.1</ele>
  <time>2026-09-01T20:02:34Z</time>
  <course>270.0</course>
  <speed>0.0</speed>
  <fix>3d</fix>
</trkpt>
<trkpt lat="-27.274439" lon="151.290064">
  <ele>343.1</ele>
  <time>2026-09-01T20:02:34Z</time>
  <course>10.71</course>
  <speed>0.0</speed>
  <fix>3d</fix>
</trkpt>
<trkpt lat="-27.274439" lon="151.290064">
  <ele>343.1</ele>
  <time>2026-09-01T20:02:34Z</time>
  <course>270.0</course>
  <speed>0.0</speed>
  <fix>3d</fix>
</trkpt>
<trkpt lat="-27.274439" lon="151.290064">
  <ele>343.1</ele>
  <time>2026-09-01T20:02:34Z</time>
  <course>10.71</course>
  <speed>0.0</speed>
  <fix>3d</fix>
</trkpt>
<trkpt lat="-27.274439" lon="151.290064">
  <ele>343.1</ele>
  <time>2026-09-01T20:02:34Z</time>
  <course>270.0</course>
  <speed>0.0</speed>
  <fix>3d</fix>
</trkpt>
<trkpt lat="-27.274439" lon="151.290064">
  <ele>343.1</ele>
  <time>2026-09-01T20:02:34Z</time>
  <course>10.71</course>
  <speed>0.0</speed>
  <fix>3d</fix>
</trkpt>
<trkpt lat="-27.274439" lon="151.290064">
  <ele>343.1</ele>
  <time>2026-09-01T20:02:34Z</time>
  <course>270.0</course>
  <speed>0.0</speed>
  <fix>3d</fix>
</trkpt>
<trkpt lat="-27.274439" lon="151.290064">
  <ele>343.1</ele>
  <time>2026-09-01T20:02:34Z</time>
  <course>10.71</course>
  <speed>0.0</speed>
  <fix>3d</fix>
</trkpt>
<trkpt lat="-27.274439" lon="151.290064">
  <ele>343.1</ele>
  <time>2026-09-01T20:02:34Z</time>
  <course>270.0</course>
  <speed>0.0</speed>
  <fix>3d</fix>
</trkpt>
<trkpt lat="-27.274439" lon="151.290064">
  <ele>343.09</ele>
  <time>2026-09-01T20:02:34Z</time>
  <course>10.71</course>
  <speed>0.0</speed>
  <fix>3d</fix>
</trkpt>
<trkpt lat="-27.274439" lon="151.290064">
  <ele>343.1</ele>
  <time>2026-09-01T20:02:34Z</time>
  <course>270.0</course>
  <speed>0.0</speed>
  <fix>3d</fix>
</trkpt>
<trkpt lat="-27.274439" lon="151.290064">
  <ele>343.09</ele>
  <time>2026-09-01T20:02:34Z</time>
  <course>10.71</course>
  <speed>0.0</speed>
  <fix>3d</fix>
</trkpt>
<trkpt lat="-27.274439" lon="151.290064">
  <ele>343.1</ele>
  <time>2026-09-01T20:02:34Z</time>
  <course>270.0</course>
  <speed>0.0</speed>
  <fix>3d</fix>
</trkpt>
<trkpt lat="-27.274439" lon="151.290064">
  <ele>343.09</ele>
  <time>2026-09-01T20:02:34Z</time>
  <course>10.71</course>
  <speed>0.0</speed>
  <fix>3d</fix>
</trkpt>
<trkpt lat="-27.274439" lon="151.290064">
  <ele>343.1</ele>
  <time>2026-09-01T20:02:34Z</time>
  <course>270.0</course>
  <speed>0.0</speed>
  <fix>3d</fix>
</trkpt>
<trkpt lat="-27.274439" lon="151.290064">
  <ele>343.09</ele>
  <time>2026-09-01T20:02:34Z</time>
  <course>10.71</course>
  <speed>0.0</speed>
  <fix>3d</fix>
</trkpt>
<trkpt lat="-27.274439" lon="151.290064">
  <ele>343.1</ele>
  <time>2026-09-01T20:02:34Z</time>
  <course>270.0</course>
  <speed>0.0</speed>
  <fix>3d</fix>
</trkpt>
<trkpt lat="-27.274439" lon="151.290064">
  <ele>343.09</ele>
  <time>2026-09-01T20:02:34Z</time>
  <course>10.71</course>
  <speed>0.0</speed>
  <fix>3d</fix>
</trkpt>
<trkpt lat="-27.274439" lon="151.290064">
  <ele>343.1</ele>
  <time>2026-09-01T20:02:34Z</time>
  <course>116.25</course>
  <speed>0.0</speed>
  <fix>3d</fix>
</trkpt>
<trkpt lat="-27.274439" lon="151.290064">
  <ele>343.08</ele>
  <time>2026-09-01T20:02:34Z</time>
  <course>10.71</course>
  <speed>0.0</speed>
  <fix>3d</fix>
</trkpt>
<trkpt lat="-27.274439" lon="151.290064">
  <ele>343.1</ele>
  <time>2026-09-01T20:02:34Z</time>
  <course>116.25</course>
  <speed>0.0</speed>
  <fix>3d</fix>
</trkpt>
<trkpt lat="-27.274439" lon="151.290064">
  <ele>343.08</ele>
  <time>2026-09-01T20:02:34Z</time>
  <course>10.71</course>
  <speed>0.0</speed>
  <fix>3d</fix>
</trkpt>
<trkpt lat="-27.274439" lon="151.290064">
  <ele>343.08</ele>
  <time>2026-09-01T20:02:34Z</time>
  <course>10.71</course>
  <speed>0.0</speed>
  <fix>3d</fix>
</trkpt>
<trkpt lat="-27.274439" lon="151.290064">
  <ele>343.1</ele>
  <time>2026-09-01T20:02:34Z</time>
  <course>120.15</course>
  <speed>0.0</speed>
  <fix>3d</fix>
</trkpt>
<trkpt lat="-27.274439" lon="151.290064">
  <ele>343.08</ele>
  <time>2026-09-01T20:02:34Z</time>
  <course>10.71</course>
  <speed>0.0</speed>
  <fix>3d</fix>
</trkpt>
<trkpt lat="-27.274439" lon="151.290064">
  <ele>343.08</ele>
  <time>2026-09-01T20:02:34Z</time>
  <course>10.71</course>
  <speed>0.0</speed>
  <fix>3d</fix>
</trkpt>
<trkpt lat="-27.274439" lon="151.290064">
  <ele>343.1</ele>
  <time>2026-09-01T20:02:34Z</time>
  <course>120.15</course>
  <speed>0.0</speed>
  <fix>3d</fix>
</trkpt>
<trkpt lat="-27.274439" lon="151.290064">
  <ele>343.08</ele>
  <time>2026-09-01T20:02:34Z</time>
  <course>10.71</course>
  <speed>0.0</speed>
  <fix>3d</fix>
</trkpt>
<trkpt lat="-27.274439" lon="151.290064">
  <ele>343.08</ele>
  <time>2026-09-01T20:02:34Z</time>
  <course>10.71</course>
  <speed>0.0</speed>
  <fix>3d</fix>
</trkpt>
<trkpt lat="-27.274439" lon="151.290064">
  <ele>343.1</ele>
  <time>2026-09-01T20:02:34Z</time>
  <course>111.11</course>
  <speed>0.0</speed>
  <fix>3d</fix>
</trkpt>
<trkpt lat="-27.274439" lon="151.290064">
  <ele>343.08</ele>
  <time>2026-09-01T20:02:34Z</time>
  <course>10.71</course>
  <speed>0.0</speed>
  <fix>3d</fix>
</trkpt>
<trkpt lat="-27.274439" lon="151.290064">
  <ele>343.08</ele>
  <time>2026-09-01T20:02:34Z</time>
  <course>10.71</course>
  <speed>0.0</speed>
  <fix>3d</fix>
</trkpt>
<trkpt lat="-27.274439" lon="151.290064">
  <ele>343.1</ele>
  <time>2026-09-01T20:02:34Z</time>
  <course>111.11</course>
  <speed>0.0</speed>
  <fix>3d</fix>
</trkpt>
<trkpt lat="-27.274439" lon="151.290064">
  <ele>343.08</ele>
  <time>2026-09-01T20:02:34Z</time>
  <course>10.71</course>
  <speed>0.0</speed>
  <fix>3d</fix>
</trkpt>
<trkpt lat="-27.274439" lon="151.290064">
  <ele>343.08</ele>
  <time>2026-09-01T20:02:34Z</time>
  <course>10.71</course>
  <speed>0.0</speed>
  <fix>3d</fix>
</trkpt>
<trkpt lat="-27.274439" lon="151.290064">
  <ele>343.1</ele>
  <time>2026-09-01T20:02:34Z</time>
  <course>329.57</course>
  <speed>0.0</speed>
  <fix>3d</fix>
</trkpt>
<trkpt lat="-27.274439" lon="151.290064">
  <ele>343.08</ele>
  <time>2026-09-01T20:02:34Z</time>
  <course>10.71</course>
  <speed>0.0</speed>
  <fix>3d</fix>
</trkpt>
<trkpt lat="-27.274439" lon="151.290064">
  <ele>343.08</ele>
  <time>2026-09-01T20:02:35Z</time>
  <course>10.71</course>
  <speed>0.0</speed>
  <fix>3d</fix>
</trkpt>
<trkpt lat="-27.274439" lon="151.290064">
  <ele>343.1</ele>
  <time>2026-09-01T20:02:35Z</time>
  <course>329.57</course>
  <speed>0.0</speed>
  <fix>3d</fix>
</trkpt>
<trkpt lat="-27.274439" lon="151.290064">
  <ele>343.08</ele>
  <time>2026-09-01T20:02:35Z</time>
  <course>10.71</course>
  <speed>0.0</speed>
  <fix>3d</fix>
</trkpt>
<trkpt lat="-27.274439" lon="151.290064">
  <ele>343.08</ele>
  <time>2026-09-01T20:02:35Z</time>
  <course>10.71</course>
  <speed>0.0</speed>
  <fix>3d</fix>
</trkpt>
<trkpt lat="-27.274439" lon="151.290064">
  <ele>343.1</ele>
  <time>2026-09-01T20:02:35Z</time>
  <course>299.13</course>
  <speed>0.0</speed>
  <fix>3d</fix>
</trkpt>
<trkpt lat="-27.274439" lon="151.290064">
  <ele>343.08</ele>
  <time>2026-09-01T20:02:35Z</time>
  <course>10.71</course>
  <speed>0.0</speed>
  <fix>3d</fix>
</trkpt>
<trkpt lat="-27.274439" lon="151.290064">
  <ele>343.08</ele>
  <time>2026-09-01T20:02:35Z</time>
  <course>10.71</course>
  <speed>0.0</speed>
  <fix>3d</fix>
</trkpt>
<trkpt lat="-27.274439" lon="151.290064">
  <ele>343.1</ele>
  <time>2026-09-01T20:02:35Z</time>
  <course>299.13</course>
  <speed>0.0</speed>
  <fix>3d</fix>
</trkpt>
<trkpt lat="-27.274439" lon="151.290064">
  <ele>343.08</ele>
  <time>2026-09-01T20:02:35Z</time>
  <course>10.71</course>
  <speed>0.0</speed>
  <fix>3d</fix>
</trkpt>
<trkpt lat="-27.274439" lon="151.290064">
  <ele>343.09</ele>
  <time>2026-09-01T20:02:35Z</time>
  <course>10.71</course>
  <speed>0.0</speed>
  <fix>3d</fix>
</trkpt>
<trkpt lat="-27.274439" lon="151.290064">
  <ele>343.1</ele>
  <time>2026-09-01T20:02:35Z</time>
  <course>7.42</course>
  <speed>0.0</speed>
  <fix>3d</fix>
</trkpt>
<trkpt lat="-27.274439" lon="151.290064">
  <ele>343.09</ele>
  <time>2026-09-01T20:02:35Z</time>
  <course>10.71</course>
  <speed>0.0</speed>
  <fix>3d</fix>
</trkpt>
<trkpt lat="-27.274439" lon="151.290064">
  <ele>343.12</ele>
  <time>2026-09-01T20:02:35Z</time>
  <course>10.71</course>
  <speed>0.0</speed>
  <fix>3d</fix>
</trkpt>
<trkpt lat="-27.274439" lon="151.290064">
  <ele>343.1</ele>
  <time>2026-09-01T20:02:35Z</time>
  <course>7.42</course>
  <speed>0.0</speed>
  <fix>3d</fix>
</trkpt>
<trkpt lat="-27.274439" lon="151.290064">
  <ele>343.12</ele>
  <time>2026-09-01T20:02:35Z</time>
  <course>10.71</course>
  <speed>0.0</speed>
  <fix>3d</fix>
</trkpt>
<trkpt lat="-27.274439" lon="151.290064">
  <ele>343.16</ele>
  <time>2026-09-01T20:02:35Z</time>
  <course>10.71</course>
  <speed>0.0</speed>
  <fix>3d</fix>
</trkpt>
<trkpt lat="-27.274439" lon="151.290064">
  <ele>343.12</ele>
  <time>2026-09-01T20:02:35Z</time>
  <course>7.92</course>
  <speed>0.0</speed>
  <fix>3d</fix>
</trkpt>
<trkpt lat="-27.274439" lon="151.290064">
  <ele>343.17</ele>
  <time>2026-09-01T20:02:35Z</time>
  <course>10.71</course>
  <speed>0.0</speed>
  <fix>3d</fix>
</trkpt>
<trkpt lat="-27.274439" lon="151.290064">
  <ele>343.21</ele>
  <time>2026-09-01T20:02:35Z</time>
  <course>10.71</course>
  <speed>0.0</speed>
  <fix>3d</fix>
</trkpt>
<trkpt lat="-27.274439" lon="151.290064">
  <ele>343.12</ele>
  <time>2026-09-01T20:02:35Z</time>
  <course>7.92</course>
  <speed>0.0</speed>
  <fix>3d</fix>
</trkpt>
<trkpt lat="-27.274439" lon="151.290064">
  <ele>343.21</ele>
  <time>2026-09-01T20:02:35Z</time>
  <course>10.71</course>
  <speed>0.0</speed>
  <fix>3d</fix>
</trkpt>
<trkpt lat="-27.274439" lon="151.290064">
  <ele>343.32</ele>
  <time>2026-09-01T20:02:35Z</time>
  <course>10.71</course>
  <speed>0.03</speed>
  <fix>3d</fix>
</trkpt>
<trkpt lat="-27.274439" lon="151.290064">
  <ele>343.19</ele>
  <time>2026-09-01T20:02:35Z</time>
  <course>7.25</course>
  <speed>0.0</speed>
  <fix>3d</fix>
</trkpt>
<trkpt lat="-27.274439" lon="151.290064">
  <ele>343.32</ele>
  <time>2026-09-01T20:02:35Z</time>
  <course>10.71</course>
  <speed>0.03</speed>
  <fix>3d</fix>
</trkpt>
<trkpt lat="-27.274439" lon="151.290064">
  <ele>343.49</ele>
  <time>2026-09-01T20:02:35Z</time>
  <course>10.71</course>
  <speed>0.06082762530298219</speed>
  <fix>3d</fix>
</trkpt>
<trkpt lat="-27.274439" lon="151.290064">
  <ele>343.19</ele>
  <time>2026-09-01T20:02:35Z</time>
  <course>7.25</course>
  <speed>0.0</speed>
  <fix>3d</fix>
</trkpt>
<trkpt lat="-27.274439" lon="151.290064">
  <ele>343.54</ele>
  <time>2026-09-01T20:02:35Z</time>
  <course>10.71</course>
  <speed>0.07071067811865475</speed>
  <fix>3d</fix>
</trkpt>
<trkpt lat="-27.2744389" lon="151.290064">
  <ele>343.7</ele>
  <time>2026-09-01T20:02:35Z</time>
  <course>10.71</course>
  <speed>0.09055385138137417</speed>
  <fix>3d</fix>
</trkpt>
<trkpt lat="-27.274439" lon="151.290064">
  <ele>343.38</ele>
  <time>2026-09-01T20:02:35Z</time>
  <course>6.8</course>
  <speed>0.03</speed>
  <fix>3d</fix>
</trkpt>
<trkpt lat="-27.2744389" lon="151.290064">
  <ele>343.76</ele>
  <time>2026-09-01T20:02:35Z</time>
  <course>10.71</course>
  <speed>0.1004987562112089</speed>
  <fix>3d</fix>
</trkpt>
<trkpt lat="-27.2744388" lon="151.290064">
  <ele>343.93</ele>
  <time>2026-09-01T20:02:35Z</time>
  <course>10.71</course>
  <speed>0.13152946437965907</speed>
  <fix>3d</fix>
</trkpt>
<trkpt lat="-27.274439" lon="151.290064">
  <ele>343.38</ele>
  <time>2026-09-01T20:02:35Z</time>
  <course>6.8</course>
  <speed>0.03</speed>
  <fix>3d</fix>
</trkpt>
<trkpt lat="-27.2744388" lon="151.290064">
  <ele>343.99</ele>
  <time>2026-09-01T20:02:35Z</time>
  <course>10.71</course>
  <speed>0.13152946437965907</speed>
  <fix>3d</fix>
</trkpt>
<trkpt lat="-27.2744387" lon="151.290064">
  <ele>344.16</ele>
  <time>2026-09-01T20:02:35Z</time>
  <course>10.7</course>
  <speed>0.15132745950421556</speed>
  <fix>3d</fix>
</trkpt>
<trkpt lat="-27.2744389" lon="151.290064">
  <ele>343.74</ele>
  <time>2026-09-01T20:02:35Z</time>
  <course>6.85</course>
  <speed>0.09</speed>
  <fix>3d</fix>
</trkpt>
<trkpt lat="-27.2744386" lon="151.290064">
  <ele>344.22</ele>
  <time>2026-09-01T20:02:35Z</time>
  <course>10.7</course>
  <speed>0.16124515496597097</speed>
  <fix>3d</fix>
</trkpt>
<trkpt lat="-27.2744385" lon="151.290064">
  <ele>344.39</ele>
  <time>2026-09-01T20:02:35Z</time>
  <course>10.7</course>
  <speed>0.1824828759089466</speed>
  <fix>3d</fix>
</trkpt>
<trkpt lat="-27.2744389" lon="151.290064">
  <ele>343.74</ele>
  <time>2026-09-01T20:02:35Z</time>
  <course>6.85</course>
  <speed>0.09</speed>
  <fix>3d</fix>
</trkpt>
<trkpt lat="-27.2744385" lon="151.2900641">
  <ele>344.44</ele>
  <time>2026-09-01T20:02:35Z</time>
  <course>10.69</course>
  <speed>0.1824828759089466</speed>
  <fix>3d</fix>
</trkpt>
<trkpt lat="-27.2744384" lon="151.2900641">
  <ele>344.62</ele>
  <time>2026-09-01T20:02:35Z</time>
  <course>10.69</course>
  <speed>0.20223748416156684</speed>
  <fix>3d</fix>
</trkpt>
<trkpt lat="-27.2744387" lon="151.290064">
  <ele>344.2</ele>
  <time>2026-09-01T20:02:35Z</time>
  <course>6.96</course>
  <speed>0.16</speed>
  <fix>3d</fix>
</trkpt>
<trkpt lat="-27.2744383" lon="151.2900641">
  <ele>344.67</ele>
  <time>2026-09-01T20:02:35Z</time>
  <course>10.69</course>
  <speed>0.20223748416156684</speed>
  <fix>3d</fix>
</trkpt>
<trkpt lat="-27.2744382" lon="151.2900641">
  <ele>344.85</ele>
  <time>2026-09-01T20:02:35Z</time>
  <course>10.68</course>
  <speed>0.2220360331117452</speed>
  <fix>3d</fix>
</trkpt>
<trkpt lat="-27.2744387" lon="151.290064">
  <ele>344.2</ele>
  <time>2026-09-01T20:02:35Z</time>
  <course>6.96</course>
  <speed>0.16</speed>
  <fix>3d</fix>
</trkpt>
<trkpt lat="-27.2744381" lon="151.2900641">
  <ele>344.9</ele>
  <time>2026-09-01T20:02:35Z</time>
  <course>10.68</course>
  <speed>0.2220360331117452</speed>
  <fix>3d</fix>
</trkpt>
<trkpt lat="-27.274438" lon="151.2900641">
  <ele>345.07</ele>
  <time>2026-09-01T20:02:35Z</time>
  <course>10.66</course>
  <speed>0.23194827009486402</speed>
  <fix>3d</fix>
</trkpt>
<trkpt lat="-27.2744384" lon="151.290064">
  <ele>344.66</ele>
  <time>2026-09-01T20:02:35Z</time>
  <course>7.04</course>
  <speed>0.2</speed>
  <fix>3d</fix>
</trkpt>
<trkpt lat="-27.2744379" lon="151.2900641">
  <ele>345.12</ele>
  <time>2026-09-01T20:02:35Z</time>
  <course>10.66</course>
  <speed>0.23345235059857505</speed>
  <fix>3d</fix>
</trkpt>
<trkpt lat="-27.2744378" lon="151.2900642">
  <ele>345.3</ele>
  <time>2026-09-01T20:02:35Z</time>
  <course>10.66</course>
  <speed>0.24331050121192876</speed>
  <fix>3d</fix>
</trkpt>
<trkpt lat="-27.2744384" lon="151.290064">
  <ele>344.66</ele>
  <time>2026-09-01T20:02:35Z</time>
  <course>7.04</course>
  <speed>0.2</speed>
  <fix>3d</fix>
</trkpt>
<trkpt lat="-27.2744377" lon="151.2900642">
  <ele>345.35</ele>
  <time>2026-09-01T20:02:35Z</time>
  <course>10.66</course>
  <speed>0.24331050121192876</speed>
  <fix>3d</fix>
</trkpt>
<trkpt lat="-27.2744376" lon="151.2900642">
  <ele>345.52</ele>
  <time>2026-09-01T20:02:35Z</time>
  <course>10.66</course>
  <speed>0.24331050121192876</speed>
  <fix>3d</fix>
</trkpt>
<trkpt lat="-27.2744379" lon="151.2900641">
  <ele>345.12</ele>
  <time>2026-09-01T20:02:35Z</time>
  <course>7.15</course>
  <speed>0.24</speed>
  <fix>3d</fix>
</trkpt>
<trkpt lat="-27.2744376" lon="151.2900642">
  <ele>345.53</ele>
  <time>2026-09-01T20:02:35Z</time>
  <course>10.66</course>
  <speed>0.24331050121192876</speed>
  <fix>3d</fix>
</trkpt>
<trkpt lat="-27.2744373" lon="151.2900642">
  <ele>345.73</ele>
  <time>2026-09-01T20:02:35Z</time>
  <course>10.66</course>
  <speed>0.24331050121192876</speed>
  <fix>3d</fix>
</trkpt>
<trkpt lat="-27.2744379" lon="151.2900641">
  <ele>345.12</ele>
  <time>2026-09-01T20:02:35Z</time>
  <course>7.15</course>
  <speed>0.24</speed>
  <fix>3d</fix>
</trkpt>
<trkpt lat="-27.2744373" lon="151.2900642">
  <ele>345.73</ele>
  <time>2026-09-01T20:02:35Z</time>
  <course>10.66</course>
  <speed>0.24331050121192876</speed>
  <fix>3d</fix>
</trkpt>
<trkpt lat="-27.2744371" lon="151.2900642">
  <ele>345.92</ele>
  <time>2026-09-01T20:02:35Z</time>
  <course>10.66</course>
  <speed>0.24186773244895649</speed>
  <fix>3d</fix>
</trkpt>
<trkpt lat="-27.2744375" lon="151.2900641">
  <ele>345.56</ele>
  <time>2026-09-01T20:02:35Z</time>
  <course>7.29</course>
  <speed>0.25</speed>
  <fix>3d</fix>
</trkpt>
<trkpt lat="-27.2744371" lon="151.2900642">
  <ele>345.97</ele>
  <time>2026-09-01T20:02:35Z</time>
  <course>10.66</course>
  <speed>0.24186773244895649</speed>
  <fix>3d</fix>
</trkpt>
<trkpt lat="-27.2744369" lon="151.2900643">
  <ele>346.11</ele>
  <time>2026-09-01T20:02:35Z</time>
  <course>10.66</course>
  <speed>0.23194827009486402</speed>
  <fix>3d</fix>
</trkpt>
<trkpt lat="-27.2744375" lon="151.2900641">
  <ele>345.56</ele>
  <time>2026-09-01T20:02:35Z</time>
  <course>7.29</course>
  <speed>0.25</speed>
  <fix>3d</fix>
</trkpt>
<trkpt lat="-27.2744369" lon="151.2900643">
  <ele>346.15</ele>
  <time>2026-09-01T20:02:35Z</time>
  <course>10.66</course>
  <speed>0.23194827009486402</speed>
  <fix>3d</fix>
</trkpt>
<trkpt lat="-27.2744367" lon="151.2900643">
  <ele>346.29</ele>
  <time>2026-09-01T20:02:35Z</time>
  <course>10.66</course>
  <speed>0.2220360331117452</speed>
  <fix>3d</fix>
</trkpt>
<trkpt lat="-27.2744371" lon="151.2900642">
  <ele>345.96</ele>
  <time>2026-09-01T20:02:35Z</time>
  <course>7.47</course>
  <speed>0.25</speed>
  <fix>3d</fix>
</trkpt>
<trkpt lat="-27.2744366" lon="151.2900643">
  <ele>346.33</ele>
  <time>2026-09-01T20:02:35Z</time>
  <course>10.66</course>
  <speed>0.2220360331117452</speed>
  <fix>3d</fix>
</trkpt>
<trkpt lat="-27.2744365" lon="151.2900643">
  <ele>346.45</ele>
  <time>2026-09-01T20:02:35Z</time>
  <course>10.66</course>
  <speed>0.20223748416156684</speed>
  <fix>3d</fix>
</trkpt>
<trkpt lat="-27.2744371" lon="151.2900642">
  <ele>345.96</ele>
  <time>2026-09-01T20:02:35Z</time>
  <course>7.47</course>
  <speed>0.25</speed>
  <fix>3d</fix>
</trkpt>
<trkpt lat="-27.2744365" lon="151.2900643">
  <ele>346.49</ele>
  <time>2026-09-01T20:02:35Z</time>
  <course>10.66</course>
  <speed>0.20223748416156684</speed>
  <fix>3d</fix>
</trkpt>
<trkpt lat="-27.2744363" lon="151.2900643">
  <ele>346.61</ele>
  <time>2026-09-01T20:02:35Z</time>
  <course>10.67</course>
  <speed>0.191049731745428</speed>
  <fix>3d</fix>
</trkpt>
<trkpt lat="-27.2744367" lon="151.2900642">
  <ele>346.32</ele>
  <time>2026-09-01T20:02:35Z</time>
  <course>7.71</course>
  <speed>0.23</speed>
  <fix>3d</fix>
</trkpt>
<trkpt lat="-27.2744363" lon="151.2900643">
  <ele>346.65</ele>
  <time>2026-09-01T20:02:35Z</time>
  <course>10.67</course>
  <speed>0.18110770276274835</speed>
  <fix>3d</fix>
</trkpt>
<trkpt lat="-27.2744362" lon="151.2900643">
  <ele>346.76</ele>
  <time>2026-09-01T20:02:35Z</time>
  <course>10.67</course>
  <speed>0.1711724276862369</speed>
  <fix>3d</fix>
</trkpt>
<trkpt lat="-27.2744367" lon="151.2900642">
  <ele>346.32</ele>
  <time>2026-09-01T20:02:35Z</time>
  <course>7.71</course>
  <speed>0.23</speed>
  <fix>3d</fix>
</trkpt>
<trkpt lat="-27.2744361" lon="151.2900643">
  <ele>346.8</ele>
  <time>2026-09-01T20:02:35Z</time>
  <course>10.67</course>
  <speed>0.16124515496597097</speed>
  <fix>3d</fix>
</trkpt>
<trkpt lat="-27.274436" lon="151.2900644">
  <ele>346.91</ele>
  <time>2026-09-01T20:02:35Z</time>
  <course>10.68</course>
  <speed>0.15132745950421556</speed>
  <fix>3d</fix>
</trkpt>
<trkpt lat="-27.2744363" lon="151.2900643">
  <ele>346.64</ele>
  <time>2026-09-01T20:02:35Z</time>
  <course>8.1</course>
  <speed>0.2</speed>
  <fix>3d</fix>
</trkpt>
<trkpt lat="-27.274436" lon="151.2900644">
  <ele>346.95</ele>
  <time>2026-09-01T20:02:35Z</time>
  <course>10.68</course>
  <speed>0.1414213562373095</speed>
  <fix>3d</fix>
</trkpt>
<trkpt lat="-27.2744359" lon="151.2900644">
  <ele>347.05</ele>
  <time>2026-09-01T20:02:35Z</time>
  <course>10.69</course>
  <speed>0.130384048104053</speed>
  <fix>3d</fix>
</trkpt>
<trkpt lat="-27.2744363" lon="151.2900643">
  <ele>346.64</ele>
  <time>2026-09-01T20:02:35Z</time>
  <course>8.1</course>
  <speed>0.2</speed>
  <fix>3d</fix>
</trkpt>
<trkpt lat="-27.2744359" lon="151.2900644">
  <ele>347.08</ele>
  <time>2026-09-01T20:02:35Z</time>
  <course>10.69</course>
  <speed>0.12041594578792296</speed>
  <fix>3d</fix>
</trkpt>
<trkpt lat="-27.2744358" lon="151.2900644">
  <ele>347.19</ele>
  <time>2026-09-01T20:02:35Z</time>
  <course>10.7</course>
  <speed>0.1004987562112089</speed>
  <fix>3d</fix>
</trkpt>
<trkpt lat="-27.2744359" lon="151.2900644">
  <ele>346.93</ele>
  <time>2026-09-01T20:02:35Z</time>
  <course>8.82</course>
  <speed>0.16</speed>
  <fix>3d</fix>
</trkpt>
<trkpt lat="-27.2744357" lon="151.2900644">
  <ele>347.22</ele>
  <time>2026-09-01T20:02:35Z</time>
  <course>10.7</course>
  <speed>0.1004987562112089</speed>
  <fix>3d</fix>
</trkpt>
<trkpt lat="-27.2744357" lon="151.2900644">
  <ele>347.32</ele>
  <time>2026-09-01T20:02:35Z</time>
  <course>10.7</course>
  <speed>0.08062257748298549</speed>
  <fix>3d</fix>
</trkpt>
<trkpt lat="-27.2744359" lon="151.2900644">
  <ele>346.93</ele>
  <time>2026-09-01T20:02:35Z</time>
  <course>8.82</course>
  <speed>0.16</speed>
  <fix>3d</fix>
</trkpt>
<trkpt lat="-27.2744357" lon="151.2900644">
  <ele>347.33</ele>
  <time>2026-09-01T20:02:35Z</time>
  <course>10.7</course>
  <speed>0.08062257748298549</speed>
  <fix>3d</fix>
</trkpt>
<trkpt lat="-27.2744356" lon="151.2900644">
  <ele>347.46</ele>
  <time>2026-09-01T20:02:35Z</time>
  <course>10.71</course>
  <speed>0.06</speed>
  <fix>3d</fix>
</trkpt>
<trkpt lat="-27.2744357" lon="151.2900644">
  <ele>347.2</ele>
  <time>2026-09-01T20:02:35Z</time>
  <course>10.23</course>
  <speed>0.12</speed>
  <fix>3d</fix>
</trkpt>
<trkpt lat="-27.2744356" lon="151.2900644">
  <ele>347.46</ele>
  <time>2026-09-01T20:02:35Z</time>
  <course>10.71</course>
  <speed>0.06</speed>
  <fix>3d</fix>
</trkpt>
<trkpt lat="-27.2744355" lon="151.2900644">
  <ele>347.59</ele>
  <time>2026-09-01T20:02:35Z</time>
  <course>10.72</course>
  <speed>0.04</speed>
  <fix>3d</fix>
</trkpt>
<trkpt lat="-27.2744357" lon="151.2900644">
  <ele>347.2</ele>
  <time>2026-09-01T20:02:35Z</time>
  <course>10.23</course>
  <speed>0.12</speed>
  <fix>3d</fix>
</trkpt>
<trkpt lat="-27.2744355" lon="151.2900644">
  <ele>347.63</ele>
  <time>2026-09-01T20:02:35Z</time>
  <course>10.72</course>
  <speed>0.03</speed>
  <fix>3d</fix>
</trkpt>
<trkpt lat="-27.2744355" lon="151.2900644">
  <ele>347.72</ele>
  <time>2026-09-01T20:02:35Z</time>
  <course>10.73</course>
  <speed>0.02</speed>
  <fix>3d</fix>
</trkpt>
<trkpt lat="-27.2744355" lon="151.2900645">
  <ele>347.46</ele>
  <time>2026-09-01T20:02:35Z</time>
  <course>13.35</course>
  <speed>0.07</speed>
  <fix>3d</fix>
</trkpt>
<trkpt lat="-27.2744355" lon="151.2900644">
  <ele>347.76</ele>
  <time>2026-09-01T20:02:35Z</time>
  <course>10.73</course>
  <speed>0.01</speed>
  <fix>3d</fix>
</trkpt>
<trkpt lat="-27.2744355" lon="151.2900644">
  <ele>347.85</ele>
  <time>2026-09-01T20:02:35Z</time>
  <course>10.74</course>
  <speed>0.0</speed>
  <fix>3d</fix>
</trkpt>
<trkpt lat="-27.2744355" lon="151.2900645">
  <ele>347.46</ele>
  <time>2026-09-01T20:02:35Z</time>
  <course>13.35</course>
  <speed>0.07</speed>
  <fix>3d</fix>
</trkpt>
<trkpt lat="-27.2744355" lon="151.2900644">
  <ele>347.88</ele>
  <time>2026-09-01T20:02:35Z</time>
  <course>10.75</course>
  <speed>0.0</speed>
  <fix>3d</fix>
</trkpt>
<trkpt lat="-27.2744355" lon="151.2900644">
  <ele>347.98</ele>
  <time>2026-09-01T20:02:35Z</time>
  <course>10.76</course>
  <speed>0.01</speed>
  <fix>3d</fix>
</trkpt>
<trkpt lat="-27.2744354" lon="151.2900645">
  <ele>347.72</ele>
  <time>2026-09-01T20:02:35Z</time>
  <course>24.03</course>
  <speed>0.03</speed>
  <fix>3d</fix>
</trkpt>
<trkpt lat="-27.2744355" lon="151.2900644">
  <ele>348.02</ele>
  <time>2026-09-01T20:02:35Z</time>
  <course>10.77</course>
  <speed>0.02</speed>
  <fix>3d</fix>
</trkpt>
<trkpt lat="-27.2744355" lon="151.2900645">
  <ele>348.12</ele>
  <time>2026-09-01T20:02:35Z</time>
  <course>10.8</course>
  <speed>0.03</speed>
  <fix>3d</fix>
</trkpt>
<trkpt lat="-27.2744354" lon="151.2900645">
  <ele>347.72</ele>
  <time>2026-09-01T20:02:35Z</time>
  <course>24.03</course>
  <speed>0.03</speed>
  <fix>3d</fix>
</trkpt>
<trkpt lat="-27.2744355" lon="151.2900645">
  <ele>348.15</ele>
  <time>2026-09-01T20:02:35Z</time>
  <course>10.82</course>
  <speed>0.03</speed>
  <fix>3d</fix>
</trkpt>
<trkpt lat="-27.2744355" lon="151.2900645">
  <ele>348.25</ele>
  <time>2026-09-01T20:02:35Z</time>
  <course>10.88</course>
  <speed>0.0412310562561766</speed>
  <fix>3d</fix>
</trkpt>
<trkpt lat="-27.2744354" lon="151.2900645">
  <ele>347.97</ele>
  <time>2026-09-01T20:02:35Z</time>
  <course>147.92</course>
  <speed>0.01</speed>
  <fix>3d</fix>
</trkpt>
<trkpt lat="-27.2744355" lon="151.2900645">
  <ele>348.39</ele>
  <time>2026-09-01T20:02:35Z</time>
  <course>10.99</course>
  <speed>0.06082762530298219</speed>
  <fix>3d</fix>
</trkpt>
<trkpt lat="-27.2744354" lon="151.2900645">
  <ele>347.97</ele>
  <time>2026-09-01T20:02:35Z</time>
  <course>147.92</course>
  <speed>0.01</speed>
  <fix>3d</fix>
</trkpt>
<trkpt lat="-27.2744355" lon="151.2900645">
  <ele>348.52</ele>
  <time>2026-09-01T20:02:35Z</time>
  <course>11.04</course>
  <speed>0.07071067811865475</speed>
  <fix>3d</fix>
</trkpt>
<trkpt lat="-27.2744354" lon="151.2900645">
  <ele>348.24</ele>
  <time>2026-09-01T20:02:35Z</time>
  <course>181.62</course>
  <speed>0.04</speed>
  <fix>3d</fix>
</trkpt>
<trkpt lat="-27.2744356" lon="151.2900645">
  <ele>348.66</ele>
  <time>2026-09-01T20:02:35Z</time>
  <course>11.05</course>
  <speed>0.08062257748298549</speed>
  <fix>3d</fix>
</trkpt>
<trkpt lat="-27.2744354" lon="151.2900645">
  <ele>348.24</ele>
  <time>2026-09-01T20:02:35Z</time>
  <course>181.62</course>
  <speed>0.04</speed>
  <fix>3d</fix>
</trkpt>
<trkpt lat="-27.2744357" lon="151.2900645">
  <ele>348.78</ele>
  <time>2026-09-01T20:02:35Z</time>
  <course>11.03</course>
  <speed>0.09219544457292887</speed>
  <fix>3d</fix>
</trkpt>
<trkpt lat="-27.2744355" lon="151.2900645">
  <ele>348.51</ele>
  <time>2026-09-01T20:02:35Z</time>
  <course>186.24</course>
  <speed>0.07</speed>
  <fix>3d</fix>
</trkpt>
<trkpt lat="-27.2744357" lon="151.2900645">
  <ele>348.9</ele>
  <time>2026-09-01T20:02:35Z</time>
  <course>11.0</course>
  <speed>0.1019803902718557</speed>
  <fix>3d</fix>
</trkpt>
<trkpt lat="-27.2744355" lon="151.2900645">
  <ele>348.51</ele>
  <time>2026-09-01T20:02:35Z</time>
  <course>186.24</course>
  <speed>0.07</speed>
  <fix>3d</fix>
</trkpt>
<trkpt lat="-27.2744358" lon="151.2900645">
  <ele>349.0</ele>
  <time>2026-09-01T20:02:35Z</time>
  <course>10.95</course>
  <speed>0.1118033988749895</speed>
  <fix>3d</fix>
</trkpt>
<trkpt lat="-27.2744355" lon="151.2900645">
  <ele>348.77</ele>
  <time>2026-09-01T20:02:35Z</time>
  <course>186.87</course>
  <speed>0.09</speed>
  <fix>3d</fix>
</trkpt>
<trkpt lat="-27.2744359" lon="151.2900644">
  <ele>349.08</ele>
  <time>2026-09-01T20:02:35Z</time>
  <course>10.91</course>
  <speed>0.13152946437965907</speed>
  <fix>3d</fix>
</trkpt>
<trkpt lat="-27.2744355" lon="151.2900645">
  <ele>348.77</ele>
  <time>2026-09-01T20:02:35Z</time>
  <course>186.87</course>
  <speed>0.09</speed>
  <fix>3d</fix>
</trkpt>
<trkpt lat="-27.274436" lon="151.2900644">
  <ele>349.15</ele>
  <time>2026-09-01T20:02:35Z</time>
  <course>10.87</course>
  <speed>0.1414213562373095</speed>
  <fix>3d</fix>
</trkpt>
<trkpt lat="-27.2744358" lon="151.2900645">
  <ele>348.98</ele>
  <time>2026-09-01T20:02:35Z</time>
  <course>187.44</course>
  <speed>0.12</speed>
  <fix>3d</fix>
</trkpt>
<trkpt lat="-27.2744362" lon="151.2900644">
  <ele>349.21</ele>
  <time>2026-09-01T20:02:35Z</time>
  <course>10.84</course>
  <speed>0.16124515496597097</speed>
  <fix>3d</fix>
</trkpt>
<trkpt lat="-27.2744358" lon="151.2900645">
  <ele>348.98</ele>
  <time>2026-09-01T20:02:35Z</time>
  <course>187.44</course>
  <speed>0.12</speed>
  <fix>3d</fix>
</trkpt>
<trkpt lat="-27.2744363" lon="151.2900644">
  <ele>349.26</ele>
  <time>2026-09-01T20:02:35Z</time>
  <course>10.82</course>
  <speed>0.1824828759089466</speed>
  <fix>3d</fix>
</trkpt>
<trkpt lat="-27.274436" lon="151.2900645">
  <ele>349.14</ele>
  <time>2026-09-01T20:02:35Z</time>
  <course>187.76</course>
  <speed>0.15</speed>
  <fix>3d</fix>
</trkpt>
<trkpt lat="-27.2744365" lon="151.2900644">
  <ele>349.3</ele>
  <time>2026-09-01T20:02:35Z</time>
  <course>10.81</course>
  <speed>0.19235384061671343</speed>
  <fix>3d</fix>
</trkpt>
<trkpt lat="-27.274436" lon="151.2900645">
  <ele>349.14</ele>
  <time>2026-09-01T20:02:35Z</time>
  <course>187.76</course>
  <speed>0.15</speed>
  <fix>3d</fix>
</trkpt>
<trkpt lat="-27.2744367" lon="151.2900644">
  <ele>349.34</ele>
  <time>2026-09-01T20:02:35Z</time>
  <course>10.8</course>
  <speed>0.21213203435596426</speed>
  <fix>3d</fix>
</trkpt>
<trkpt lat="-27.2744363" lon="151.2900645">
  <ele>349.26</ele>
  <time>2026-09-01T20:02:35Z</time>
  <course>187.92</course>
  <speed>0.18</speed>
  <fix>3d</fix>
</trkpt>
<trkpt lat="-27.2744368" lon="151.2900643">
  <ele>349.39</ele>
  <time>2026-09-01T20:02:35Z</time>
  <course>10.79</course>
  <speed>0.2220360331117452</speed>
  <fix>3d</fix>
</trkpt>
<trkpt lat="-27.2744363" lon="151.2900645">
  <ele>349.26</ele>
  <time>2026-09-01T20:02:35Z</time>
  <course>187.92</course>
  <speed>0.18</speed>
  <fix>3d</fix>
</trkpt>
<trkpt lat="-27.2744371" lon="151.2900643">
  <ele>349.44</ele>
  <time>2026-09-01T20:02:35Z</time>
  <course>10.78</course>
  <speed>0.23194827009486402</speed>
  <fix>3d</fix>
</trkpt>
<trkpt lat="-27.2744367" lon="151.2900644">
  <ele>349.35</ele>
  <time>2026-09-01T20:02:35Z</time>
  <course>188.0</course>
  <speed>0.22</speed>
  <fix>3d</fix>
</trkpt>
<trkpt lat="-27.2744373" lon="151.2900643">
  <ele>349.51</ele>
  <time>2026-09-01T20:02:35Z</time>
  <course>10.77</course>
  <speed>0.24186773244895649</speed>
  <fix>3d</fix>
</trkpt>
<trkpt lat="-27.2744367" lon="151.2900644">
  <ele>349.35</ele>
  <time>2026-09-01T20:02:35Z</time>
  <course>188.0</course>
  <speed>0.22</speed>
  <fix>3d</fix>
</trkpt>
<trkpt lat="-27.2744375" lon="151.2900643">
  <ele>349.59</ele>
  <time>2026-09-01T20:02:35Z</time>
  <course>10.75</course>
  <speed>0.24186773244895649</speed>
  <fix>3d</fix>
</trkpt>
<trkpt lat="-27.2744371" lon="151.2900643">
  <ele>349.45</ele>
  <time>2026-09-01T20:02:35Z</time>
  <course>188.01</course>
  <speed>0.24</speed>
  <fix>3d</fix>
</trkpt>
<trkpt lat="-27.2744377" lon="151.2900642">
  <ele>349.69</ele>
  <time>2026-09-01T20:02:35Z</time>
  <course>10.74</course>
  <speed>0.24186773244895649</speed>
  <fix>3d</fix>
</trkpt>
<trkpt lat="-27.2744371" lon="151.2900643">
  <ele>349.45</ele>
  <time>2026-09-01T20:02:35Z</time>
  <course>188.01</course>
  <speed>0.24</speed>
  <fix>3d</fix>
</trkpt>
<trkpt lat="-27.2744379" lon="151.2900642">
  <ele>349.79</ele>
  <time>2026-09-01T20:02:35Z</time>
  <course>10.72</course>
  <speed>0.24083189157584592</speed>
  <fix>3d</fix>
</trkpt>
<trkpt lat="-27.2744376" lon="151.2900642">
  <ele>349.6</ele>
  <time>2026-09-01T20:02:35Z</time>
  <course>187.99</course>
  <speed>0.25</speed>
  <fix>3d</fix>
</trkpt>
<trkpt lat="-27.2744381" lon="151.2900642">
  <ele>349.91</ele>
  <time>2026-09-01T20:02:35Z</time>
  <course>10.71</course>
  <speed>0.2308679276123039</speed>
  <fix>3d</fix>
</trkpt>
<trkpt lat="-27.2744376" lon="151.2900642">
  <ele>349.6</ele>
  <time>2026-09-01T20:02:35Z</time>
  <course>187.99</course>
  <speed>0.25</speed>
  <fix>3d</fix>
</trkpt>
<trkpt lat="-27.2744383" lon="151.2900642">
  <ele>350.04</ele>
  <time>2026-09-01T20:02:35Z</time>
  <course>10.69</course>
  <speed>0.2109502310972899</speed>
  <fix>3d</fix>
</trkpt>
<trkpt lat="-27.274438" lon="151.2900642">
  <ele>349.8</ele>
  <time>2026-09-01T20:02:35Z</time>
  <course>188.04</course>
  <speed>0.24</speed>
  <fix>3d</fix>
</trkpt>
<trkpt lat="-27.2744385" lon="151.2900641">
  <ele>350.18</ele>
  <time>2026-09-01T20:02:35Z</time>
  <course>10.67</course>
  <speed>0.2002498439450079</speed>
  <fix>3d</fix>
</trkpt>
<trkpt lat="-27.274438" lon="151.2900642">
  <ele>349.8</ele>
  <time>2026-09-01T20:02:35Z</time>
  <course>188.04</course>
  <speed>0.24</speed>
  <fix>3d</fix>
</trkpt>
<trkpt lat="-27.2744387" lon="151.2900641">
  <ele>350.32</ele>
  <time>2026-09-01T20:02:35Z</time>
  <course>10.65</course>
  <speed>0.18027756377319945</speed>
  <fix>3d</fix>
</trkpt>
<trkpt lat="-27.2744385" lon="151.2900641">
  <ele>350.04</ele>
  <time>2026-09-01T20:02:35Z</time>
  <course>188.25</course>
  <speed>0.22</speed>
  <fix>3d</fix>
</trkpt>
<trkpt lat="-27.2744389" lon="151.2900641">
  <ele>350.48</ele>
  <time>2026-09-01T20:02:35Z</time>
  <course>10.62</course>
  <speed>0.16</speed>
  <fix>3d</fix>
</trkpt>
<trkpt lat="-27.2744385" lon="151.2900641">
  <ele>350.04</ele>
  <time>2026-09-01T20:02:35Z</time>
  <course>188.25</course>
  <speed>0.22</speed>
  <fix>3d</fix>
</trkpt>
<trkpt lat="-27.274439" lon="151.2900641">
  <ele>350.63</ele>
  <time>2026-09-01T20:02:35Z</time>
  <course>10.58</course>
  <speed>0.14</speed>
  <fix>3d</fix>
</trkpt>
<trkpt lat="-27.2744388" lon="151.2900641">
  <ele>350.33</ele>
  <time>2026-09-01T20:02:35Z</time>
  <course>188.44</course>
  <speed>0.19</speed>
  <fix>3d</fix>
</trkpt>
<trkpt lat="-27.2744391" lon="151.2900641">
  <ele>350.79</ele>
  <time>2026-09-01T20:02:35Z</time>
  <course>10.55</course>
  <speed>0.12</speed>
  <fix>3d</fix>
</trkpt>
<trkpt lat="-27.2744388" lon="151.2900641">
  <ele>350.33</ele>
  <time>2026-09-01T20:02:35Z</time>
  <course>188.44</course>
  <speed>0.19</speed>
  <fix>3d</fix>
</trkpt>
<trkpt lat="-27.2744393" lon="151.2900641">
  <ele>350.96</ele>
  <time>2026-09-01T20:02:35Z</time>
  <course>10.52</course>
  <speed>0.1</speed>
  <fix>3d</fix>
</trkpt>
<trkpt lat="-27.2744391" lon="151.290064">
  <ele>350.64</ele>
  <time>2026-09-01T20:02:35Z</time>
  <course>188.74</course>
  <speed>0.15</speed>
  <fix>3d</fix>
</trkpt>
<trkpt lat="-27.2744393" lon="151.2900641">
  <ele>351.12</ele>
  <time>2026-09-01T20:02:35Z</time>
  <course>10.5</course>
  <speed>0.09</speed>
  <fix>3d</fix>
</trkpt>
<trkpt lat="-27.2744391" lon="151.290064">
  <ele>350.64</ele>
  <time>2026-09-01T20:02:35Z</time>
  <course>188.74</course>
  <speed>0.15</speed>
  <fix>3d</fix>
</trkpt>
<trkpt lat="-27.2744394" lon="151.2900641">
  <ele>351.28</ele>
  <time>2026-09-01T20:02:35Z</time>
  <course>10.47</course>
  <speed>0.07</speed>
  <fix>3d</fix>
</trkpt>
<trkpt lat="-27.2744394" lon="151.290064">
  <ele>350.96</ele>
  <time>2026-09-01T20:02:35Z</time>
  <course>189.27</course>
  <speed>0.11</speed>
  <fix>3d</fix>
</trkpt>
<trkpt lat="-27.2744395" lon="151.290064">
  <ele>351.44</ele>
  <time>2026-09-01T20:02:35Z</time>
  <course>10.46</course>
  <speed>0.06</speed>
  <fix>3d</fix>
</trkpt>
<trkpt lat="-27.2744394" lon="151.290064">
  <ele>350.96</ele>
  <time>2026-09-01T20:02:35Z</time>
  <course>189.27</course>
  <speed>0.11</speed>
  <fix>3d</fix>
</trkpt>
<trkpt lat="-27.2744395" lon="151.290064">
  <ele>351.6</ele>
  <time>2026-09-01T20:02:35Z</time>
  <course>10.44</course>
  <speed>0.04</speed>
  <fix>3d</fix>
</trkpt>
<trkpt lat="-27.2744395" lon="151.290064">
  <ele>351.29</ele>
  <time>2026-09-01T20:02:35Z</time>
  <course>189.79</course>
  <speed>0.07</speed>
  <fix>3d</fix>
</trkpt>
<trkpt lat="-27.2744396" lon="151.290064">
  <ele>351.76</ele>
  <time>2026-09-01T20:02:35Z</time>
  <course>10.44</course>
  <speed>0.0316227766016838</speed>
  <fix>3d</fix>
</trkpt>
<trkpt lat="-27.2744395" lon="151.290064">
  <ele>351.29</ele>
  <time>2026-09-01T20:02:35Z</time>
  <course>189.79</course>
  <speed>0.07</speed>
  <fix>3d</fix>
</trkpt>
<trkpt lat="-27.2744396" lon="151.290064">
  <ele>351.91</ele>
  <time>2026-09-01T20:02:35Z</time>
  <course>10.44</course>
  <speed>0.022360679774997897</speed>
  <fix>3d</fix>
</trkpt>
<trkpt lat="-27.2744396" lon="151.290064">
  <ele>351.6</ele>
  <time>2026-09-01T20:02:35Z</time>
  <course>191.14</course>
  <speed>0.04</speed>
  <fix>3d</fix>
</trkpt>
<trkpt lat="-27.2744396" lon="151.290064">
  <ele>352.06</ele>
  <time>2026-09-01T20:02:35Z</time>
  <course>10.44</course>
  <speed>0.022360679774997897</speed>
  <fix>3d</fix>
</trkpt>
<trkpt lat="-27.2744396" lon="151.290064">
  <ele>351.6</ele>
  <time>2026-09-01T20:02:35Z</time>
  <course>191.14</course>
  <speed>0.04</speed>
  <fix>3d</fix>
</trkpt>
<trkpt lat="-27.2744397" lon="151.290064">
  <ele>352.21</ele>
  <time>2026-09-01T20:02:35Z</time>
  <course>10.44</course>
  <speed>0.01414213562373095</speed>
  <fix>3d</fix>
</trkpt>
<trkpt lat="-27.2744397" lon="151.2900639">
  <ele>351.91</ele>
  <time>2026-09-01T20:02:35Z</time>
  <course>194.8</course>
  <speed>0.02</speed>
  <fix>3d</fix>
</trkpt>
<trkpt lat="-27.2744397" lon="151.290064">
  <ele>352.36</ele>
  <time>2026-09-01T20:02:35Z</time>
  <course>10.46</course>
  <speed>0.01</speed>
  <fix>3d</fix>
</trkpt>
<trkpt lat="-27.2744397" lon="151.2900639">
  <ele>351.91</ele>
  <time>2026-09-01T20:02:35Z</time>
  <course>194.8</course>
  <speed>0.02</speed>
  <fix>3d</fix>
</trkpt>
<trkpt lat="-27.2744397" lon="151.290064">
  <ele>352.5</ele>
  <time>2026-09-01T20:02:35Z</time>
  <course>10.48</course>
  <speed>0.01</speed>
  <fix>3d</fix>
</trkpt>
<trkpt lat="-27.2744398" lon="151.2900639">
  <ele>352.21</ele>
  <time>2026-09-01T20:02:35Z</time>
  <course>213.09</course>
  <speed>0.01</speed>
  <fix>3d</fix>
</trkpt>
<trkpt lat="-27.2744397" lon="151.290064">
  <ele>352.64</ele>
  <time>2026-09-01T20:02:35Z</time>
  <course>10.49</course>
  <speed>0.01</speed>
  <fix>3d</fix>
</trkpt>
<trkpt lat="-27.2744398" lon="151.2900639">
  <ele>352.21</ele>
  <time>2026-09-01T20:02:35Z</time>
  <course>213.09</course>
  <speed>0.01</speed>
  <fix>3d</fix>
</trkpt>
<trkpt lat="-27.2744397" lon="151.290064">
  <ele>352.78</ele>
  <time>2026-09-01T20:02:35Z</time>
  <course>10.5</course>
  <speed>0.01</speed>
  <fix>3d</fix>
</trkpt>
<trkpt lat="-27.2744398" lon="151.2900639">
  <ele>352.5</ele>
  <time>2026-09-01T20:02:35Z</time>
  <course>309.54</course>
  <speed>0.0</speed>
  <fix>3d</fix>
</trkpt>
<trkpt lat="-27.2744397" lon="151.290064">
  <ele>352.92</ele>
  <time>2026-09-01T20:02:35Z</time>
  <course>10.51</course>
  <speed>0.01</speed>
  <fix>3d</fix>
</trkpt>
<trkpt lat="-27.2744398" lon="151.2900639">
  <ele>352.5</ele>
  <time>2026-09-01T20:02:35Z</time>
  <course>309.54</course>
  <speed>0.0</speed>
  <fix>3d</fix>
</trkpt>
<trkpt lat="-27.2744397" lon="151.290064">
  <ele>353.05</ele>
  <time>2026-09-01T20:02:35Z</time>
  <course>10.5</course>
  <speed>0.01414213562373095</speed>
  <fix>3d</fix>
</trkpt>
<trkpt lat="-27.2744398" lon="151.2900639">
  <ele>352.78</ele>
  <time>2026-09-01T20:02:35Z</time>
  <course>338.2</course>
  <speed>0.01</speed>
  <fix>3d</fix>
</trkpt>
<trkpt lat="-27.2744397" lon="151.290064">
  <ele>353.19</ele>
  <time>2026-09-01T20:02:35Z</time>
  <course>10.5</course>
  <speed>0.01414213562373095</speed>
  <fix>3d</fix>
</trkpt>
<trkpt lat="-27.2744398" lon="151.2900639">
  <ele>352.78</ele>
  <time>2026-09-01T20:02:35Z</time>
  <course>338.2</course>
  <speed>0.01</speed>
  <fix>3d</fix>
</trkpt>
<trkpt lat="-27.2744397" lon="151.290064">
  <ele>353.33</ele>
  <time>2026-09-01T20:02:35Z</time>
  <course>10.49</course>
  <speed>0.01414213562373095</speed>
  <fix>3d</fix>
</trkpt>
<trkpt lat="-27.2744398" lon="151.2900639">
  <ele>353.05</ele>
  <time>2026-09-01T20:02:35Z</time>
  <course>344.92</course>
  <speed>0.02</speed>
  <fix>3d</fix>
</trkpt>
<trkpt lat="-27.2744397" lon="151.290064">
  <ele>353.47</ele>
  <time>2026-09-01T20:02:35Z</time>
  <course>10.49</course>
  <speed>0.01414213562373095</speed>
  <fix>3d</fix>
</trkpt>
<trkpt lat="-27.2744398" lon="151.2900639">
  <ele>353.05</ele>
  <time>2026-09-01T20:02:35Z</time>
  <course>344.92</course>
  <speed>0.02</speed>
  <fix>3d</fix>
</trkpt>
<trkpt lat="-27.2744397" lon="151.290064">
  <ele>353.6</ele>
  <time>2026-09-01T20:02:35Z</time>
  <course>10.49</course>
  <speed>0.01414213562373095</speed>
  <fix>3d</fix>
</trkpt>
<trkpt lat="-27.2744398" lon="151.2900639">
  <ele>353.32</ele>
  <time>2026-09-01T20:02:35Z</time>
  <course>348.33</course>
  <speed>0.02</speed>
  <fix>3d</fix>
</trkpt>
<trkpt lat="-27.2744397" lon="151.290064">
  <ele>353.74</ele>
  <time>2026-09-01T20:02:35Z</time>
  <course>10.49</course>
  <speed>0.022360679774997897</speed>
  <fix>3d</fix>
</trkpt>
<trkpt lat="-27.2744398" lon="151.2900639">
  <ele>353.32</ele>
  <time>2026-09-01T20:02:35Z</time>
  <course>348.33</course>
  <speed>0.02</speed>
  <fix>3d</fix>
</trkpt>
<trkpt lat="-27.2744397" lon="151.290064">
  <ele>353.88</ele>
  <time>2026-09-01T20:02:35Z</time>
  <course>10.49</course>
  <speed>0.022360679774997897</speed>
  <fix>3d</fix>
</trkpt>
<trkpt lat="-27.2744397" lon="151.2900639">
  <ele>353.59</ele>
  <time>2026-09-01T20:02:35Z</time>
  <course>350.77</course>
  <speed>0.03</speed>
  <fix>3d</fix>
</trkpt>
<trkpt lat="-27.2744397" lon="151.290064">
  <ele>353.89</ele>
  <time>2026-09-01T20:02:35Z</time>
  <course>10.49</course>
  <speed>0.022360679774997897</speed>
  <fix>3d</fix>
</trkpt>
<trkpt lat="-27.2744397" lon="151.290064">
  <ele>354.02</ele>
  <time>2026-09-01T20:02:35Z</time>
  <course>10.48</course>
  <speed>0.0632455532033676</speed>
  <fix>3d</fix>
</trkpt>
<trkpt lat="-27.2744397" lon="151.2900639">
  <ele>353.59</ele>
  <time>2026-09-01T20:02:35Z</time>
  <course>350.77</course>
  <speed>0.03</speed>
  <fix>3d</fix>
</trkpt>
<trkpt lat="-27.2744395" lon="151.290064">
  <ele>354.12</ele>
  <time>2026-09-01T20:02:35Z</time>
  <course>10.48</course>
  <speed>0.15297058540778355</speed>
  <fix>3d</fix>
</trkpt>
<trkpt lat="-27.2744396" lon="151.2900639">
  <ele>353.88</ele>
  <time>2026-09-01T20:02:35Z</time>
  <course>358.19</course>
  <speed>0.05</speed>
  <fix>3d</fix>
</trkpt>
<trkpt lat="-27.2744394" lon="151.290064">
  <ele>354.11</ele>
  <time>2026-09-01T20:02:35Z</time>
  <course>10.49</course>
  <speed>0.2039607805437114</speed>
  <fix>3d</fix>
</trkpt>
<trkpt lat="-27.2744396" lon="151.2900639">
  <ele>353.88</ele>
  <time>2026-09-01T20:02:35Z</time>
  <course>358.19</course>
  <speed>0.05</speed>
  <fix>3d</fix>
</trkpt>
<trkpt lat="-27.2744392" lon="151.290064">
  <ele>354.02</ele>
  <time>2026-09-01T20:02:35Z</time>
  <course>10.51</course>
  <speed>0.21377558326431947</speed>
  <fix>3d</fix>
</trkpt>
<trkpt lat="-27.2744394" lon="151.2900639">
  <ele>354.07</ele>
  <time>2026-09-01T20:02:35Z</time>
  <course>4.2</course>
  <speed>0.15</speed>
  <fix>3d</fix>
</trkpt>
<trkpt lat="-27.274439" lon="151.290064">
  <ele>353.83</ele>
  <time>2026-09-01T20:02:35Z</time>
  <course>10.51</course>
  <speed>0.21377558326431947</speed>
  <fix>3d</fix>
</trkpt>
<trkpt lat="-27.2744394" lon="151.2900639">
  <ele>354.07</ele>
  <time>2026-09-01T20:02:35Z</time>
  <course>4.2</course>
  <speed>0.15</speed>
  <fix>3d</fix>
</trkpt>
<trkpt lat="-27.2744388" lon="151.2900641">
  <ele>353.96</ele>
  <time>2026-09-01T20:02:35Z</time>
  <course>10.47</course>
  <speed>0.223606797749979</speed>
  <fix>3d</fix>
</trkpt>
<trkpt lat="-27.2744391" lon="151.2900639">
  <ele>353.97</ele>
  <time>2026-09-01T20:02:35Z</time>
  <course>5.7</course>
  <speed>0.22</speed>
  <fix>3d</fix>
</trkpt>
<trkpt lat="-27.2744386" lon="151.2900641">
  <ele>353.98</ele>
  <time>2026-09-01T20:02:35Z</time>
  <course>10.39</course>
  <speed>0.2353720459187964</speed>
  <fix>3d</fix>
</trkpt>
<trkpt lat="-27.2744391" lon="151.2900639">
  <ele>353.97</ele>
  <time>2026-09-01T20:02:35Z</time>
  <course>5.7</course>
  <speed>0.22</speed>
  <fix>3d</fix>
</trkpt>
<trkpt lat="-27.2744383" lon="151.2900641">
  <ele>353.85</ele>
  <time>2026-09-01T20:02:35Z</time>
  <course>10.29</course>
  <speed>0.25495097567963926</speed>
  <fix>3d</fix>
</trkpt>
<trkpt lat="-27.2744387" lon="151.2900639">
  <ele>353.52</ele>
  <time>2026-09-01T20:02:35Z</time>
  <course>6.53</course>
  <speed>0.23</speed>
  <fix>3d</fix>
</trkpt>
<trkpt lat="-27.2744381" lon="151.2900642">
  <ele>353.61</ele>
  <time>2026-09-01T20:02:35Z</time>
  <course>10.2</course>
  <speed>0.28442925306655786</speed>
  <fix>3d</fix>
</trkpt>
<trkpt lat="-27.2744387" lon="151.2900639">
  <ele>353.52</ele>
  <time>2026-09-01T20:02:35Z</time>
  <course>6.53</course>
  <speed>0.23</speed>
  <fix>3d</fix>
</trkpt>
<trkpt lat="-27.2744378" lon="151.2900642">
  <ele>353.25</ele>
  <time>2026-09-01T20:02:35Z</time>
  <course>10.1</course>
  <speed>0.34525353003264136</speed>
  <fix>3d</fix>
</trkpt>
<trkpt lat="-27.2744382" lon="151.2900639">
  <ele>352.8</ele>
  <time>2026-09-01T20:02:35Z</time>
  <course>7.26</course>
  <speed>0.27</speed>
  <fix>3d</fix>
</trkpt>
<trkpt lat="-27.2744375" lon="151.2900643">
  <ele>352.84</ele>
  <time>2026-09-01T20:02:35Z</time>
  <course>10.02</course>
  <speed>0.4373785545725808</speed>
  <fix>3d</fix>
</trkpt>
<trkpt lat="-27.2744382" lon="151.2900639">
  <ele>352.8</ele>
  <time>2026-09-01T20:02:35Z</time>
  <course>7.26</course>
  <speed>0.27</speed>
  <fix>3d</fix>
</trkpt>
<trkpt lat="-27.274437" lon="151.2900643">
  <ele>352.32</ele>
  <time>2026-09-01T20:02:35Z</time>
  <course>9.94</course>
  <speed>0.5491812087098392</speed>
  <fix>3d</fix>
</trkpt>
<trkpt lat="-27.2744377" lon="151.290064">
  <ele>351.86</ele>
  <time>2026-09-01T20:02:35Z</time>
  <course>7.5</course>
  <speed>0.36</speed>
  <fix>3d</fix>
</trkpt>
<trkpt lat="-27.2744364" lon="151.2900644">
  <ele>351.77</ele>
  <time>2026-09-01T20:02:35Z</time>
  <course>9.87</course>
  <speed>0.6806614430096655</speed>
  <fix>3d</fix>
</trkpt>
<trkpt lat="-27.2744377" lon="151.290064">
  <ele>351.86</ele>
  <time>2026-09-01T20:02:35Z</time>
  <course>7.5</course>
  <speed>0.36</speed>
  <fix>3d</fix>
</trkpt>
<trkpt lat="-27.2744358" lon="151.2900645">
  <ele>351.11</ele>
  <time>2026-09-01T20:02:35Z</time>
  <course>9.8</course>
  <speed>0.8729833904490967</speed>
  <fix>3d</fix>
</trkpt>
<trkpt lat="-27.2744369" lon="151.2900641">
  <ele>350.72</ele>
  <time>2026-09-01T20:02:35Z</time>
  <course>7.59</course>
  <speed>0.55</speed>
  <fix>3d</fix>
</trkpt>
<trkpt lat="-27.2744345" lon="151.2900647">
  <ele>350.42</ele>
  <time>2026-09-01T20:02:35Z</time>
  <course>9.73</course>
  <speed>1.806792738528689</speed>
  <fix>3d</fix>
</trkpt>
<trkpt lat="-27.2744369" lon="151.2900641">
  <ele>350.72</ele>
  <time>2026-09-01T20:02:35Z</time>
  <course>7.59</course>
  <speed>0.55</speed>
  <fix>3d</fix>
</trkpt>
<trkpt lat="-27.2744326" lon="151.2900651">
  <ele>349.61</ele>
  <time>2026-09-01T20:02:35Z</time>
  <course>9.58</course>
  <speed>2.3131147831441483</speed>
  <fix>3d</fix>
</trkpt>
<trkpt lat="-27.2744355" lon="151.2900643">
  <ele>349.36</ele>
  <time>2026-09-01T20:02:35Z</time>
  <course>7.61</course>
  <speed>1.22</speed>
  <fix>3d</fix>
</trkpt>
<trkpt lat="-27.2744304" lon="151.2900655">
  <ele>348.75</ele>
  <time>2026-09-01T20:02:35Z</time>
  <course>9.42</course>
  <speed>2.393658288060349</speed>
  <fix>3d</fix>
</trkpt>
<trkpt lat="-27.2744355" lon="151.2900643">
  <ele>349.36</ele>
  <time>2026-09-01T20:02:35Z</time>
  <course>7.61</course>
  <speed>1.22</speed>
  <fix>3d</fix>
</trkpt>
<trkpt lat="-27.2744284" lon="151.2900658">
  <ele>347.76</ele>
  <time>2026-09-01T20:02:35Z</time>
  <course>9.29</course>
  <speed>2.250622136210341</speed>
  <fix>3d</fix>
</trkpt>
<trkpt lat="-27.2744326" lon="151.2900647">
  <ele>347.72</ele>
  <time>2026-09-01T20:02:35Z</time>
  <course>7.58</course>
  <speed>2.07</speed>
  <fix>3d</fix>
</trkpt>
<trkpt lat="-27.2744264" lon="151.2900661">
  <ele>346.7</ele>
  <time>2026-09-01T20:02:35Z</time>
  <course>9.41</course>
  <speed>2.2193918085818014</speed>
  <fix>3d</fix>
</trkpt>
<trkpt lat="-27.2744326" lon="151.2900647">
  <ele>347.72</ele>
  <time>2026-09-01T20:02:35Z</time>
  <course>7.58</course>
  <speed>2.07</speed>
  <fix>3d</fix>
</trkpt>
<trkpt lat="-27.2744243" lon="151.2900665">
  <ele>345.51</ele>
  <time>2026-09-01T20:02:35Z</time>
  <course>9.4</course>
  <speed>2.592624153247053</speed>
  <fix>3d</fix>
</trkpt>
<trkpt lat="-27.2744286" lon="151.2900654">
  <ele>345.77</ele>
  <time>2026-09-01T20:02:35Z</time>
  <course>7.56</course>
  <speed>2.28</speed>
  <fix>3d</fix>
</trkpt>
<trkpt lat="-27.2744224" lon="151.2900667">
  <ele>344.61</ele>
  <time>2026-09-01T20:02:35Z</time>
  <course>9.07</course>
  <speed>0.9079647570252933</speed>
  <fix>3d</fix>
</trkpt>
<trkpt lat="-27.2744286" lon="151.2900654">
  <ele>345.77</ele>
  <time>2026-09-01T20:02:35Z</time>
  <course>7.56</course>
  <speed>2.28</speed>
  <fix>3d</fix>
</trkpt>
<trkpt lat="-27.2744226" lon="151.2900666">
  <ele>344.73</ele>
  <time>2026-09-01T20:02:35Z</time>
  <course>8.99</course>
  <speed>0.5966573556070519</speed>
  <fix>3d</fix>
</trkpt>
<trkpt lat="-27.2744245" lon="151.290066">
  <ele>343.6</ele>
  <time>2026-09-01T20:02:35Z</time>
  <course>7.51</course>
  <speed>1.6</speed>
  <fix>3d</fix>
</trkpt>
<trkpt lat="-27.2744235" lon="151.2900664">
  <ele>345.23</ele>
  <time>2026-09-01T20:02:35Z</time>
  <course>8.95</course>
  <speed>0.8514693182963201</speed>
  <fix>3d</fix>
</trkpt>
<trkpt lat="-27.2744245" lon="151.290066">
  <ele>343.6</ele>
  <time>2026-09-01T20:02:35Z</time>
  <course>7.51</course>
  <speed>1.6</speed>
  <fix>3d</fix>
</trkpt>
<trkpt lat="-27.274424" lon="151.2900662">
  <ele>345.54</ele>
  <time>2026-09-01T20:02:35Z</time>
  <course>8.93</course>
  <speed>0.45607017003965516</speed>
  <fix>3d</fix>
</trkpt>
<trkpt lat="-27.2744229" lon="151.2900662">
  <ele>342.66</ele>
  <time>2026-09-01T20:02:35Z</time>
  <course>7.43</course>
  <speed>0.11</speed>
  <fix>3d</fix>
</trkpt>
<trkpt lat="-27.2744241" lon="151.2900662">
  <ele>345.65</ele>
  <time>2026-09-01T20:02:35Z</time>
  <course>8.93</course>
  <speed>0.06403124237432849</speed>
  <fix>3d</fix>
</trkpt>
<trkpt lat="-27.2744229" lon="151.2900662">
  <ele>342.66</ele>
  <time>2026-09-01T20:02:35Z</time>
  <course>7.43</course>
  <speed>0.11</speed>
  <fix>3d</fix>
</trkpt>
<trkpt lat="-27.274424" lon="151.2900661">
  <ele>345.65</ele>
  <time>2026-09-01T20:02:35Z</time>
  <course>8.92</course>
  <speed>0.1118033988749895</speed>
  <fix>3d</fix>
</trkpt>
<trkpt lat="-27.2744235" lon="151.2900661">
  <ele>343.01</ele>
  <time>2026-09-01T20:02:35Z</time>
  <course>187.44</course>
  <speed>0.41</speed>
  <fix>3d</fix>
</trkpt>
<trkpt lat="-27.2744238" lon="151.2900661">
  <ele>345.63</ele>
  <time>2026-09-01T20:02:35Z</time>
  <course>8.91</course>
  <speed>0.11045361017187261</speed>
  <fix>3d</fix>
</trkpt>
<trkpt lat="-27.2744235" lon="151.2900661">
  <ele>343.01</ele>
  <time>2026-09-01T20:02:35Z</time>
  <course>187.44</course>
  <speed>0.41</speed>
  <fix>3d</fix>
</trkpt>
<trkpt lat="-27.2744237" lon="151.2900661">
  <ele>345.64</ele>
  <time>2026-09-01T20:02:35Z</time>
  <course>8.92</course>
  <speed>0.053851648071345036</speed>
  <fix>3d</fix>
</trkpt>
<trkpt lat="-27.2744238" lon="151.2900661">
  <ele>343.16</ele>
  <time>2026-09-01T20:02:35Z</time>
  <course>7.44</course>
  <speed>0.03</speed>
  <fix>3d</fix>
</trkpt>
<trkpt lat="-27.2744237" lon="151.2900661">
  <ele>345.69</ele>
  <time>2026-09-01T20:02:35Z</time>
  <course>8.93</course>
  <speed>0.0316227766016838</speed>
  <fix>3d</fix>
</trkpt>
<trkpt lat="-27.2744238" lon="151.2900661">
  <ele>343.16</ele>
  <time>2026-09-01T20:02:35Z</time>
  <course>7.44</course>
  <speed>0.03</speed>
  <fix>3d</fix>
</trkpt>
<trkpt lat="-27.2744237" lon="151.2900661">
  <ele>345.73</ele>
  <time>2026-09-01T20:02:35Z</time>
  <course>8.95</course>
  <speed>0.03</speed>
  <fix>3d</fix>
</trkpt>
<trkpt lat="-27.2744237" lon="151.2900661">
  <ele>343.09</ele>
  <time>2026-09-01T20:02:35Z</time>
  <course>7.44</course>
  <speed>0.05</speed>
  <fix>3d</fix>
</trkpt>
<trkpt lat="-27.2744237" lon="151.2900661">
  <ele>345.78</ele>
  <time>2026-09-01T20:02:35Z</time>
  <course>8.97</course>
  <speed>0.0282842712474619</speed>
  <fix>3d</fix>
</trkpt>
<trkpt lat="-27.2744237" lon="151.2900661">
  <ele>343.09</ele>
  <time>2026-09-01T20:02:35Z</time>
  <course>7.44</course>
  <speed>0.05</speed>
  <fix>3d</fix>
</trkpt>
<trkpt lat="-27.2744237" lon="151.2900661">
  <ele>345.81</ele>
  <time>2026-09-01T20:02:35Z</time>
  <course>8.99</course>
  <speed>0.03605551275463989</speed>
  <fix>3d</fix>
</trkpt>
<trkpt lat="-27.2744237" lon="151.2900661">
  <ele>343.08</ele>
  <time>2026-09-01T20:02:35Z</time>
  <course>187.44</course>
  <speed>0.01</speed>
  <fix>3d</fix>
</trkpt>
<trkpt lat="-26.9720619" lon="149.6127921">
  <ele>339.29</ele>
  <time>2026-09-01T20:02:36Z</time>
  <course>310.27</course>
  <speed>0.0</speed>
  <fix>3d</fix>
</trkpt>
<trkpt lat="-26.9720619" lon="149.6127921">
  <ele>339.29</ele>
  <time>2026-09-01T20:02:36Z</time>
  <course>310.27</course>
  <speed>0.0</speed>
  <fix>3d</fix>
</trkpt>
<trkpt lat="-27.274439" lon="151.290064">
  <ele>-0.01</ele>
  <time>2026-09-01T20:02:36Z</time>
  <course>0.22</course>
  <speed>0.0</speed>
  <fix>3d</fix>
</trkpt>
<trkpt lat="-27.274439" lon="151.290064">
  <ele>343.1</ele>
  <time>2026-09-01T20:02:36Z</time>
  <course>294.58</course>
  <speed>0.0</speed>
  <fix>3d</fix>
</trkpt>
<trkpt lat="-27.274439" lon="151.290064">
  <ele>0.02</ele>
  <time>2026-09-01T20:02:36Z</time>
  <course>1.2</course>
  <speed>0.0</speed>
  <fix>3d</fix>
</trkpt>
<trkpt lat="-27.274439" lon="151.290064">
  <ele>343.1</ele>
  <time>2026-09-01T20:02:36Z</time>
  <course>294.58</course>
  <speed>0.0</speed>
  <fix>3d</fix>
</trkpt>
<trkpt lat="-27.274439" lon="151.290064">
  <ele>-0.08</ele>
  <time>2026-09-01T20:02:36Z</time>
  <course>2.1</course>
  <speed>0.0</speed>
  <fix>3d</fix>
</trkpt>
<trkpt lat="-27.274439" lon="151.290064">
  <ele>343.1</ele>
  <time>2026-09-01T20:02:36Z</time>
  <course>273.33</course>
  <speed>0.0</speed>
  <fix>3d</fix>
</trkpt>
<trkpt lat="-27.274439" lon="151.290064">
  <ele>0.22</ele>
  <time>2026-09-01T20:02:36Z</time>
  <course>2.92</course>
  <speed>0.0</speed>
  <fix>3d</fix>
</trkpt>
<trkpt lat="-27.274439" lon="151.290064">
  <ele>343.1</ele>
  <time>2026-09-01T20:02:36Z</time>
  <course>273.33</course>
  <speed>0.0</speed>
  <fix>3d</fix>
</trkpt>
<trkpt lat="-27.274439" lon="151.290064">
  <ele>0.09</ele>
  <time>2026-09-01T20:02:36Z</time>
  <course>3.66</course>
  <speed>0.0</speed>
  <fix>3d</fix>
</trkpt>
<trkpt lat="-27.274439" lon="151.290064">
  <ele>343.1</ele>
  <time>2026-09-01T20:02:36Z</time>
  <course>270.44</course>
  <speed>0.0</speed>
  <fix>3d</fix>
</trkpt>
<trkpt lat="-27.274439" lon="151.290064">
  <ele>0.08</ele>
  <time>2026-09-01T20:02:36Z</time>
  <course>4.34</course>
  <speed>0.0</speed>
  <fix>3d</fix>
</trkpt>
<trkpt lat="-27.274439" lon="151.290064">
  <ele>343.1</ele>
  <time>2026-09-01T20:02:36Z</time>
  <course>270.44</course>
  <speed>0.0</speed>
  <fix>3d</fix>
</trkpt>
<trkpt lat="-27.274439" lon="151.290064">
  <ele>0.09</ele>
  <time>2026-09-01T20:02:36Z</time>
  <course>4.95</course>
  <speed>0.0</speed>
  <fix>3d</fix>
</trkpt>
<trkpt lat="-27.274439" lon="151.290064">
  <ele>343.1</ele>
  <time>2026-09-01T20:02:36Z</time>
  <course>270.05</course>
  <speed>0.0</speed>
  <fix>3d</fix>
</trkpt>
<trkpt lat="-27.274439" lon="151.290064">
  <ele>-0.05</ele>
  <time>2026-09-01T20:02:36Z</time>
  <course>5.5</course>
  <speed>0.0</speed>
  <fix>3d</fix>
</trkpt>
<trkpt lat="-27.274439" lon="151.290064">
  <ele>343.1</ele>
  <time>2026-09-01T20:02:36Z</time>
  <course>270.05</course>
  <speed>0.0</speed>
  <fix>3d</fix>
</trkpt>
<trkpt lat="-27.274439" lon="151.290064">
  <ele>343.06</ele>
  <time>2026-09-01T20:02:36Z</time>
  <course>5.98</course>
  <speed>0.0</speed>
  <fix>3d</fix>
</trkpt>
<trkpt lat="-27.274439" lon="151.290064">
  <ele>343.1</ele>
  <time>2026-09-01T20:02:36Z</time>
  <course>270.0</course>
  <speed>0.0</speed>
  <fix>3d</fix>
</trkpt>
<trkpt lat="-27.274439" lon="151.290064">
  <ele>343.18</ele>
  <time>2026-09-01T20:02:36Z</time>
  <course>6.44</course>
  <speed>0.0</speed>
  <fix>3d</fix>
</trkpt>
<trkpt lat="-27.274439" lon="151.290064">
  <ele>343.1</ele>
  <time>2026-09-01T20:02:36Z</time>
  <course>270.0</course>
  <speed>0.0</speed>
  <fix>3d</fix>
</trkpt>
<trkpt lat="-27.274439" lon="151.290064">
  <ele>342.91</ele>
  <time>2026-09-01T20:02:36Z</time>
  <course>6.85</course>
  <speed>0.0</speed>
  <fix>3d</fix>
</trkpt>
<trkpt lat="-27.274439" lon="151.290064">
  <ele>343.1</ele>
  <time>2026-09-01T20:02:36Z</time>
  <course>270.0</course>
  <speed>0.0</speed>
  <fix>3d</fix>
</trkpt>
<trkpt lat="-27.274439" lon="151.290064">
  <ele>343.06</ele>
  <time>2026-09-01T20:02:36Z</time>
  <course>7.22</course>
  <speed>0.0</speed>
  <fix>3d</fix>
</trkpt>
<trkpt lat="-27.274439" lon="151.290064">
  <ele>343.1</ele>
  <time>2026-09-01T20:02:36Z</time>
  <course>270.0</course>
  <speed>0.0</speed>
  <fix>3d</fix>
</trkpt>
<trkpt lat="-27.274439" lon="151.290064">
  <ele>343.13</ele>
  <time>2026-09-01T20:02:36Z</time>
  <course>7.56</course>
  <speed>0.0</speed>
  <fix>3d</fix>
</trkpt>
<trkpt lat="-27.274439" lon="151.290064">
  <ele>343.1</ele>
  <time>2026-09-01T20:02:36Z</time>
  <course>270.0</course>
  <speed>0.0</speed>
  <fix>3d</fix>
</trkpt>
<trkpt lat="-27.274439" lon="151.290064">
  <ele>343.04</ele>
  <time>2026-09-01T20:02:36Z</time>
  <course>7.87</course>
  <speed>0.0</speed>
  <fix>3d</fix>
</trkpt>
<trkpt lat="-27.274439" lon="151.290064">
  <ele>343.1</ele>
  <time>2026-09-01T20:02:36Z</time>
  <course>270.0</course>
  <speed>0.0</speed>
  <fix>3d</fix>
</trkpt>
<trkpt lat="-27.274439" lon="151.290064">
  <ele>342.88</ele>
  <time>2026-09-01T20:02:36Z</time>
  <course>8.14</course>
  <speed>0.0</speed>
  <fix>3d</fix>
</trkpt>
<trkpt lat="-27.274439" lon="151.290064">
  <ele>343.1</ele>
  <time>2026-09-01T20:02:36Z</time>
  <course>270.0</course>
  <speed>0.0</speed>
  <fix>3d</fix>
</trkpt>
<trkpt lat="-27.274439" lon="151.290064">
  <ele>343.02</ele>
  <time>2026-09-01T20:02:36Z</time>
  <course>8.39</course>
  <speed>0.0</speed>
  <fix>3d</fix>
</trkpt>
<trkpt lat="-27.274439" lon="151.290064">
  <ele>343.1</ele>
  <time>2026-09-01T20:02:36Z</time>
  <course>270.0</course>
  <speed>0.0</speed>
  <fix>3d</fix>
</trkpt>
<trkpt lat="-27.274439" lon="151.290064">
  <ele>343.23</ele>
  <time>2026-09-01T20:02:36Z</time>
  <course>8.63</course>
  <speed>0.0</speed>
  <fix>3d</fix>
</trkpt>
<trkpt lat="-27.274439" lon="151.290064">
  <ele>343.1</ele>
  <time>2026-09-01T20:02:36Z</time>
  <course>270.0</course>
  <speed>0.0</speed>
  <fix>3d</fix>
</trkpt>
<trkpt lat="-27.274439" lon="151.290064">
  <ele>343.17</ele>
  <time>2026-09-01T20:02:36Z</time>
  <course>8.83</course>
  <speed>0.0</speed>
  <fix>3d</fix>
</trkpt>
<trkpt lat="-27.274439" lon="151.290064">
  <ele>343.1</ele>
  <time>2026-09-01T20:02:36Z</time>
  <course>270.0</course>
  <speed>0.0</speed>
  <fix>3d</fix>
</trkpt>
<trkpt lat="-27.274439" lon="151.290064">
  <ele>343.04</ele>
  <time>2026-09-01T20:02:36Z</time>
  <course>9.01</course>
  <speed>0.0</speed>
  <fix>3d</fix>
</trkpt>
<trkpt lat="-27.274439" lon="151.290064">
  <ele>343.1</ele>
  <time>2026-09-01T20:02:36Z</time>
  <course>270.0</course>
  <speed>0.0</speed>
  <fix>3d</fix>
</trkpt>
<trkpt lat="-27.274439" lon="151.290064">
  <ele>342.89</ele>
  <time>2026-09-01T20:02:36Z</time>
  <course>9.18</course>
  <speed>0.0</speed>
  <fix>3d</fix>
</trkpt>
<trkpt lat="-27.274439" lon="151.290064">
  <ele>343.1</ele>
  <time>2026-09-01T20:02:36Z</time>
  <course>270.0</course>
  <speed>0.0</speed>
  <fix>3d</fix>
</trkpt>
<trkpt lat="-27.274439" lon="151.290064">
  <ele>343.08</ele>
  <time>2026-09-01T20:02:36Z</time>
  <course>9.33</course>
  <speed>0.0</speed>
  <fix>3d</fix>
</trkpt>
<trkpt lat="-27.274439" lon="151.290064">
  <ele>343.1</ele>
  <time>2026-09-01T20:02:36Z</time>
  <course>270.0</course>
  <speed>0.0</speed>
  <fix>3d</fix>
</trkpt>
<trkpt lat="-27.274439" lon="151.290064">
  <ele>343.19</ele>
  <time>2026-09-01T20:02:36Z</time>
  <course>9.47</course>
  <speed>0.0</speed>
  <fix>3d</fix>
</trkpt>
<trkpt lat="-27.274439" lon="151.290064">
  <ele>343.1</ele>
  <time>2026-09-01T20:02:36Z</time>
  <course>270.0</course>
  <speed>0.0</speed>
  <fix>3d</fix>
</trkpt>
<trkpt lat="-27.274439" lon="151.290064">
  <ele>342.88</ele>
  <time>2026-09-01T20:02:36Z</time>
  <course>9.59</course>
  <speed>0.0</speed>
  <fix>3d</fix>
</trkpt>
<trkpt lat="-27.274439" lon="151.290064">
  <ele>343.1</ele>
  <time>2026-09-01T20:02:36Z</time>
  <course>270.0</course>
  <speed>0.0</speed>
  <fix>3d</fix>
</trkpt>
<trkpt lat="-27.274439" lon="151.290064">
  <ele>343.17</ele>
  <time>2026-09-01T20:02:36Z</time>
  <course>9.7</course>
  <speed>0.0</speed>
  <fix>3d</fix>
</trkpt>
<trkpt lat="-27.274439" lon="151.290064">
  <ele>343.1</ele>
  <time>2026-09-01T20:02:36Z</time>
  <course>270.0</course>
  <speed>0.0</speed>
  <fix>3d</fix>
</trkpt>
<trkpt lat="-27.274439" lon="151.290064">
  <ele>342.89</ele>
  <time>2026-09-01T20:02:36Z</time>
  <course>9.8</course>
  <speed>0.0</speed>
  <fix>3d</fix>
</trkpt>
<trkpt lat="-27.274439" lon="151.290064">
  <ele>343.1</ele>
  <time>2026-09-01T20:02:36Z</time>
  <course>270.0</course>
  <speed>0.0</speed>
  <fix>3d</fix>
</trkpt>
<trkpt lat="-27.274439" lon="151.290064">
  <ele>342.99</ele>
  <time>2026-09-01T20:02:36Z</time>
  <course>9.9</course>
  <speed>0.0</speed>
  <fix>3d</fix>
</trkpt>
<trkpt lat="-27.274439" lon="151.290064">
  <ele>343.1</ele>
  <time>2026-09-01T20:02:36Z</time>
  <course>270.0</course>
  <speed>0.0</speed>
  <fix>3d</fix>
</trkpt>
<trkpt lat="-27.274439" lon="151.290064">
  <ele>342.87</ele>
  <time>2026-09-01T20:02:36Z</time>
  <course>9.98</course>
  <speed>0.0</speed>
  <fix>3d</fix>
</trkpt>
<trkpt lat="-27.274439" lon="151.290064">
  <ele>343.1</ele>
  <time>2026-09-01T20:02:36Z</time>
  <course>270.0</course>
  <speed>0.0</speed>
  <fix>3d</fix>
</trkpt>
<trkpt lat="-27.274439" lon="151.290064">
  <ele>343.09</ele>
  <time>2026-09-01T20:02:36Z</time>
  <course>10.06</course>
  <speed>0.0</speed>
  <fix>3d</fix>
</trkpt>
<trkpt lat="-27.274439" lon="151.290064">
  <ele>343.1</ele>
  <time>2026-09-01T20:02:36Z</time>
  <course>270.0</course>
  <speed>0.0</speed>
  <fix>3d</fix>
</trkpt>
<trkpt lat="-27.274439" lon="151.290064">
  <ele>343.18</ele>
  <time>2026-09-01T20:02:36Z</time>
  <course>10.13</course>
  <speed>0.0</speed>
  <fix>3d</fix>
</trkpt>
<trkpt lat="-27.274439" lon="151.290064">
  <ele>343.1</ele>
  <time>2026-09-01T20:02:36Z</time>
  <course>270.0</course>
  <speed>0.0</speed>
  <fix>3d</fix>
</trkpt>
<trkpt lat="-27.274439" lon="151.290064">
  <ele>343.05</ele>
  <time>2026-09-01T20:02:36Z</time>
  <course>10.2</course>
  <speed>0.0</speed>
  <fix>3d</fix>
</trkpt>
<trkpt lat="-27.274439" lon="151.290064">
  <ele>343.1</ele>
  <time>2026-09-01T20:02:36Z</time>
  <course>270.0</course>
  <speed>0.0</speed>
  <fix>3d</fix>
</trkpt>
<trkpt lat="-27.274439" lon="151.290064">
  <ele>342.96</ele>
  <time>2026-09-01T20:02:36Z</time>
  <course>10.25</course>
  <speed>0.0</speed>
  <fix>3d</fix>
</trkpt>
<trkpt lat="-27.274439" lon="151.290064">
  <ele>343.1</ele>
  <time>2026-09-01T20:02:36Z</time>
  <course>270.0</course>
  <speed>0.0</speed>
  <fix>3d</fix>
</trkpt>
<trkpt lat="-27.274439" lon="151.290064">
  <ele>343.1</ele>
  <time>2026-09-01T20:02:36Z</time>
  <course>10.31</course>
  <speed>0.0</speed>
  <fix>3d</fix>
</trkpt>
<trkpt lat="-27.274439" lon="151.290064">
  <ele>343.1</ele>
  <time>2026-09-01T20:02:36Z</time>
  <course>270.0</course>
  <speed>0.0</speed>
  <fix>3d</fix>
</trkpt>
<trkpt lat="-27.274439" lon="151.290064">
  <ele>343.22</ele>
  <time>2026-09-01T20:02:36Z</time>
  <course>10.35</course>
  <speed>0.0</speed>
  <fix>3d</fix>
</trkpt>
<trkpt lat="-27.274439" lon="151.290064">
  <ele>343.1</ele>
  <time>2026-09-01T20:02:36Z</time>
  <course>270.0</course>
  <speed>0.0</speed>
  <fix>3d</fix>
</trkpt>
<trkpt lat="-27.274439" lon="151.290064">
  <ele>343.17</ele>
  <time>2026-09-01T20:02:36Z</time>
  <course>10.4</course>
  <speed>0.0</speed>
  <fix>3d</fix>
</trkpt>
<trkpt lat="-27.274439" lon="151.290064">
  <ele>343.1</ele>
  <time>2026-09-01T20:02:36Z</time>
  <course>270.0</course>
  <speed>0.0</speed>
  <fix>3d</fix>
</trkpt>
<trkpt lat="-27.274439" lon="151.290064">
  <ele>343.08</ele>
  <time>2026-09-01T20:02:36Z</time>
  <course>10.44</course>
  <speed>0.0</speed>
  <fix>3d</fix>
</trkpt>
<trkpt lat="-27.274439" lon="151.290064">
  <ele>343.1</ele>
  <time>2026-09-01T20:02:36Z</time>
  <course>270.0</course>
  <speed>0.0</speed>
  <fix>3d</fix>
</trkpt>
<trkpt lat="-27.274439" lon="151.290064">
  <ele>343.04</ele>
  <time>2026-09-01T20:02:36Z</time>
  <course>10.47</course>
  <speed>0.0</speed>
  <fix>3d</fix>
</trkpt>
<trkpt lat="-27.274439" lon="151.290064">
  <ele>343.1</ele>
  <time>2026-09-01T20:02:36Z</time>
  <course>270.0</course>
  <speed>0.0</speed>
  <fix>3d</fix>
</trkpt>
<trkpt lat="-27.274439" lon="151.290064">
  <ele>343.18</ele>
  <time>2026-09-01T20:02:36Z</time>
  <course>10.5</course>
  <speed>0.0</speed>
  <fix>3d</fix>
</trkpt>
<trkpt lat="-27.274439" lon="151.290064">
  <ele>343.1</ele>
  <time>2026-09-01T20:02:36Z</time>
  <course>270.0</course>
  <speed>0.0</speed>
  <fix>3d</fix>
</trkpt>
<trkpt lat="-27.274439" lon="151.290064">
  <ele>343.12</ele>
  <time>2026-09-01T20:02:36Z</time>
  <course>10.53</course>
  <speed>0.0</speed>
  <fix>3d</fix>
</trkpt>
<trkpt lat="-27.274439" lon="151.290064">
  <ele>343.1</ele>
  <time>2026-09-01T20:02:36Z</time>
  <course>270.0</course>
  <speed>0.0</speed>
  <fix>3d</fix>
</trkpt>
<trkpt lat="-27.274439" lon="151.290064">
  <ele>343.04</ele>
  <time>2026-09-01T20:02:36Z</time>
  <course>10.56</course>
  <speed>0.0</speed>
  <fix>3d</fix>
</trkpt>
<trkpt lat="-27.274439" lon="151.290064">
  <ele>343.1</ele>
  <time>2026-09-01T20:02:36Z</time>
  <course>270.0</course>
  <speed>0.0</speed>
  <fix>3d</fix>
</trkpt>
<trkpt lat="-27.274439" lon="151.290064">
  <ele>343.07</ele>
  <time>2026-09-01T20:02:36Z</time>
  <course>10.58</course>
  <speed>0.0</speed>
  <fix>3d</fix>
</trkpt>
<trkpt lat="-27.274439" lon="151.290064">
  <ele>343.1</ele>
  <time>2026-09-01T20:02:36Z</time>
  <course>270.0</course>
  <speed>0.0</speed>
  <fix>3d</fix>
</trkpt>
<trkpt lat="-27.274439" lon="151.290064">
  <ele>343.04</ele>
  <time>2026-09-01T20:02:36Z</time>
  <course>10.6</course>
  <speed>0.0</speed>
  <fix>3d</fix>
</trkpt>
<trkpt lat="-27.274439" lon="151.290064">
  <ele>343.1</ele>
  <time>2026-09-01T20:02:36Z</time>
  <course>270.0</course>
  <speed>0.0</speed>
  <fix>3d</fix>
</trkpt>
<trkpt lat="-27.274439" lon="151.290064">
  <ele>343.01</ele>
  <time>2026-09-01T20:02:36Z</time>
  <course>10.62</course>
  <speed>0.0</speed>
  <fix>3d</fix>
</trkpt>
<trkpt lat="-27.274439" lon="151.290064">
  <ele>343.1</ele>
  <time>2026-09-01T20:02:36Z</time>
  <course>270.0</course>
  <speed>0.0</speed>
  <fix>3d</fix>
</trkpt>
<trkpt lat="-27.274439" lon="151.290064">
  <ele>343.2</ele>
  <time>2026-09-01T20:02:36Z</time>
  <course>10.64</course>
  <speed>0.0</speed>
  <fix>3d</fix>
</trkpt>
<trkpt lat="-27.274439" lon="151.290064">
  <ele>343.1</ele>
  <time>2026-09-01T20:02:36Z</time>
  <course>270.0</course>
  <speed>0.0</speed>
  <fix>3d</fix>
</trkpt>
<trkpt lat="-27.274439" lon="151.290064">
  <ele>343.24</ele>
  <time>2026-09-01T20:02:36Z</time>
  <course>10.65</course>
  <speed>0.0</speed>
  <fix>3d</fix>
</trkpt>
<trkpt lat="-27.274439" lon="151.290064">
  <ele>343.1</ele>
  <time>2026-09-01T20:02:36Z</time>
  <course>270.0</course>
  <speed>0.0</speed>
  <fix>3d</fix>
</trkpt>
<trkpt lat="-27.274439" lon="151.290064">
  <ele>342.88</ele>
  <time>2026-09-01T20:02:36Z</time>
  <course>10.67</course>
  <speed>0.0</speed>
  <fix>3d</fix>
</trkpt>
<trkpt lat="-27.274439" lon="151.290064">
  <ele>343.1</ele>
  <time>2026-09-01T20:02:36Z</time>
  <course>270.0</course>
  <speed>0.0</speed>
  <fix>3d</fix>
</trkpt>
<trkpt lat="-27.274439" lon="151.290064">
  <ele>343.21</ele>
  <time>2026-09-01T20:02:36Z</time>
  <course>10.68</course>
  <speed>0.0</speed>
  <fix>3d</fix>
</trkpt>
<trkpt lat="-27.274439" lon="151.290064">
  <ele>343.1</ele>
  <time>2026-09-01T20:02:36Z</time>
  <course>270.0</course>
  <speed>0.0</speed>
  <fix>3d</fix>
</trkpt>
<trkpt lat="-27.274439" lon="151.290064">
  <ele>343.02</ele>
  <time>2026-09-01T20:02:36Z</time>
  <course>10.69</course>
  <speed>0.0</speed>
  <fix>3d</fix>
</trkpt>
<trkpt lat="-27.274439" lon="151.290064">
  <ele>343.1</ele>
  <time>2026-09-01T20:02:36Z</time>
  <course>270.0</course>
  <speed>0.0</speed>
  <fix>3d</fix>
</trkpt>
<trkpt lat="-27.274439" lon="151.290064">
  <ele>342.93</ele>
  <time>2026-09-01T20:02:36Z</time>
  <course>10.7</course>
  <speed>0.0</speed>
  <fix>3d</fix>
</trkpt>
<trkpt lat="-27.274439" lon="151.290064">
  <ele>343.1</ele>
  <time>2026-09-01T20:02:36Z</time>
  <course>270.0</course>
  <speed>0.0</speed>
  <fix>3d</fix>
</trkpt>
<trkpt lat="-27.274439" lon="151.290064">
  <ele>343.07</ele>
  <time>2026-09-01T20:02:36Z</time>
  <course>10.71</course>
  <speed>0.0</speed>
  <fix>3d</fix>
</trkpt>
<trkpt lat="-27.274439" lon="151.290064">
  <ele>343.1</ele>
  <time>2026-09-01T20:02:36Z</time>
  <course>270.0</course>
  <speed>0.0</speed>
  <fix>3d</fix>
</trkpt>
<trkpt lat="-27.274439" lon="151.290064">
  <ele>342.94</ele>
  <time>2026-09-01T20:02:36Z</time>
  <course>10.72</course>
  <speed>0.0</speed>
  <fix>3d</fix>
</trkpt>
<trkpt lat="-27.274439" lon="151.290064">
  <ele>343.1</ele>
  <time>2026-09-01T20:02:36Z</time>
  <course>270.0</course>
  <speed>0.0</speed>
  <fix>3d</fix>
</trkpt>
<trkpt lat="-27.274439" lon="151.290064">
  <ele>343.11</ele>
  <time>2026-09-01T20:02:36Z</time>
  <course>10.73</course>
  <speed>0.0</speed>
  <fix>3d</fix>
</trkpt>
<trkpt lat="-27.274439" lon="151.290064">
  <ele>343.1</ele>
  <time>2026-09-01T20:02:36Z</time>
  <course>270.0</course>
  <speed>0.0</speed>
  <fix>3d</fix>
</trkpt>
<trkpt lat="-27.274439" lon="151.290064">
  <ele>343.24</ele>
  <time>2026-09-01T20:02:36Z</time>
  <course>10.73</course>
  <speed>0.0</speed>
  <fix>3d</fix>
</trkpt>
<trkpt lat="-27.274439" lon="151.290064">
  <ele>343.1</ele>
  <time>2026-09-01T20:02:36Z</time>
  <course>270.0</course>
  <speed>0.0</speed>
  <fix>3d</fix>
</trkpt>
<trkpt lat="-27.274439" lon="151.290064">
  <ele>343.18</ele>
  <time>2026-09-01T20:02:36Z</time>
  <course>10.74</course>
  <speed>0.0</speed>
  <fix>3d</fix>
</trkpt>
<trkpt lat="-27.274439" lon="151.290064">
  <ele>343.1</ele>
  <time>2026-09-01T20:02:36Z</time>
  <course>270.0</course>
  <speed>0.0</speed>
  <fix>3d</fix>
</trkpt>
<trkpt lat="-27.274439" lon="151.290064">
  <ele>342.89</ele>
  <time>2026-09-01T20:02:36Z</time>
  <course>10.75</course>
  <speed>0.0</speed>
  <fix>3d</fix>
</trkpt>
<trkpt lat="-27.274439" lon="151.290064">
  <ele>343.1</ele>
  <time>2026-09-01T20:02:36Z</time>
  <course>270.0</course>
  <speed>0.0</speed>
  <fix>3d</fix>
</trkpt>
<trkpt lat="-27.274439" lon="151.290064">
  <ele>343.23</ele>
  <time>2026-09-01T20:02:36Z</time>
  <course>10.75</course>
  <speed>0.0</speed>
  <fix>3d</fix>
</trkpt>
<trkpt lat="-27.274439" lon="151.290064">
  <ele>343.1</ele>
  <time>2026-09-01T20:02:36Z</time>
  <course>270.0</course>
  <speed>0.0</speed>
  <fix>3d</fix>
</trkpt>
<trkpt lat="-27.274439" lon="151.290064">
  <ele>343.23</ele>
  <time>2026-09-01T20:02:36Z</time>
  <course>10.76</course>
  <speed>0.0</speed>
  <fix>3d</fix>
</trkpt>
<trkpt lat="-27.274439" lon="151.290064">
  <ele>343.1</ele>
  <time>2026-09-01T20:02:36Z</time>
  <course>270.0</course>
  <speed>0.0</speed>
  <fix>3d</fix>
</trkpt>
<trkpt lat="-27.274439" lon="151.290064">
  <ele>342.99</ele>
  <time>2026-09-01T20:02:36Z</time>
  <course>10.76</course>
  <speed>0.0</speed>
  <fix>3d</fix>
</trkpt>
<trkpt lat="-27.274439" lon="151.290064">
  <ele>343.1</ele>
  <time>2026-09-01T20:02:36Z</time>
  <course>270.0</course>
  <speed>0.0</speed>
  <fix>3d</fix>
</trkpt>
<trkpt lat="-27.274439" lon="151.290064">
  <ele>343.13</ele>
  <time>2026-09-01T20:02:36Z</time>
  <course>10.76</course>
  <speed>0.0</speed>
  <fix>3d</fix>
</trkpt>
<trkpt lat="-27.274439" lon="151.290064">
  <ele>343.1</ele>
  <time>2026-09-01T20:02:36Z</time>
  <course>270.0</course>
  <speed>0.0</speed>
  <fix>3d</fix>
</trkpt>
<trkpt lat="-27.274439" lon="151.290064">
  <ele>343.07</ele>
  <time>2026-09-01T20:02:36Z</time>
  <course>10.77</course>
  <speed>0.0</speed>
  <fix>3d</fix>
</trkpt>
<trkpt lat="-27.274439" lon="151.290064">
  <ele>343.1</ele>
  <time>2026-09-01T20:02:36Z</time>
  <course>270.0</course>
  <speed>0.0</speed>
  <fix>3d</fix>
</trkpt>
<trkpt lat="-27.274439" lon="151.290064">
  <ele>343.19</ele>
  <time>2026-09-01T20:02:36Z</time>
  <course>10.77</course>
  <speed>0.0</speed>
  <fix>3d</fix>
</trkpt>
<trkpt lat="-27.274439" lon="151.290064">
  <ele>343.1</ele>
  <time>2026-09-01T20:02:36Z</time>
  <course>270.0</course>
  <speed>0.0</speed>
  <fix>3d</fix>
</trkpt>
<trkpt lat="-27.274439" lon="151.290064">
  <ele>342.93</ele>
  <time>2026-09-01T20:02:36Z</time>
  <course>10.77</course>
  <speed>0.0</speed>
  <fix>3d</fix>
</trkpt>
<trkpt lat="-27.274439" lon="151.290064">
  <ele>343.1</ele>
  <time>2026-09-01T20:02:36Z</time>
  <course>270.0</course>
  <speed>0.0</speed>
  <fix>3d</fix>
</trkpt>
<trkpt lat="-27.274439" lon="151.290064">
  <ele>343.19</ele>
  <time>2026-09-01T20:02:36Z</time>
  <course>10.78</course>
  <speed>0.0</speed>
  <fix>3d</fix>
</trkpt>
<trkpt lat="-27.274439" lon="151.290064">
  <ele>343.1</ele>
  <time>2026-09-01T20:02:36Z</time>
  <course>270.0</course>
  <speed>0.0</speed>
  <fix>3d</fix>
</trkpt>
<trkpt lat="-27.274439" lon="151.290064">
  <ele>343.1</ele>
  <time>2026-09-01T20:02:36Z</time>
  <course>10.78</course>
  <speed>0.0</speed>
  <fix>3d</fix>
</trkpt>
<trkpt lat="-27.274439" lon="151.290064">
  <ele>343.1</ele>
  <time>2026-09-01T20:02:36Z</time>
  <course>270.0</course>
  <speed>0.0</speed>
  <fix>3d</fix>
</trkpt>
<trkpt lat="-27.274439" lon="151.290064">
  <ele>343.01</ele>
  <time>2026-09-01T20:02:36Z</time>
  <course>10.78</course>
  <speed>0.0</speed>
  <fix>3d</fix>
</trkpt>
<trkpt lat="-27.274439" lon="151.290064">
  <ele>343.1</ele>
  <time>2026-09-01T20:02:36Z</time>
  <course>270.0</course>
  <speed>0.0</speed>
  <fix>3d</fix>
</trkpt>
<trkpt lat="-27.274439" lon="151.290064">
  <ele>343.11</ele>
  <time>2026-09-01T20:02:36Z</time>
  <course>10.78</course>
  <speed>0.0</speed>
  <fix>3d</fix>
</trkpt>
<trkpt lat="-27.274439" lon="151.290064">
  <ele>343.1</ele>
  <time>2026-09-01T20:02:36Z</time>
  <course>270.0</course>
  <speed>0.0</speed>
  <fix>3d</fix>
</trkpt>
<trkpt lat="-27.274439" lon="151.290064">
  <ele>342.96</ele>
  <time>2026-09-01T20:02:36Z</time>
  <course>10.78</course>
  <speed>0.0</speed>
  <fix>3d</fix>
</trkpt>
<trkpt lat="-27.274439" lon="151.290064">
  <ele>343.1</ele>
  <time>2026-09-01T20:02:36Z</time>
  <course>270.0</course>
  <speed>0.0</speed>
  <fix>3d</fix>
</trkpt>
<trkpt lat="-27.274439" lon="151.290064">
  <ele>343.19</ele>
  <time>2026-09-01T20:02:36Z</time>
  <course>10.79</course>
  <speed>0.0</speed>
  <fix>3d</fix>
</trkpt>
<trkpt lat="-27.274439" lon="151.290064">
  <ele>343.1</ele>
  <time>2026-09-01T20:02:36Z</time>
  <course>270.0</course>
  <speed>0.0</speed>
  <fix>3d</fix>
</trkpt>
<trkpt lat="-27.274439" lon="151.290064">
  <ele>343.0</ele>
  <time>2026-09-01T20:02:36Z</time>
  <course>10.79</course>
  <speed>0.0</speed>
  <fix>3d</fix>
</trkpt>
<trkpt lat="-27.274439" lon="151.290064">
  <ele>343.1</ele>
  <time>2026-09-01T20:02:36Z</time>
  <course>270.0</course>
  <speed>0.0</speed>
  <fix>3d</fix>
</trkpt>
<trkpt lat="-27.274439" lon="151.290064">
  <ele>343.2</ele>
  <time>2026-09-01T20:02:36Z</time>
  <course>10.79</course>
  <speed>0.0</speed>
  <fix>3d</fix>
</trkpt>
<trkpt lat="-27.274439" lon="151.290064">
  <ele>343.1</ele>
  <time>2026-09-01T20:02:36Z</time>
  <course>270.0</course>
  <speed>0.0</speed>
  <fix>3d</fix>
</trkpt>
<trkpt lat="-27.274439" lon="151.290064">
  <ele>343.2</ele>
  <time>2026-09-01T20:02:36Z</time>
  <course>10.79</course>
  <speed>0.0</speed>
  <fix>3d</fix>
</trkpt>
<trkpt lat="-27.274439" lon="151.290064">
  <ele>343.1</ele>
  <time>2026-09-01T20:02:36Z</time>
  <course>270.0</course>
  <speed>0.0</speed>
  <fix>3d</fix>
</trkpt>
<trkpt lat="-27.274439" lon="151.290064">
  <ele>343.13</ele>
  <time>2026-09-01T20:02:36Z</time>
  <course>10.79</course>
  <speed>0.0</speed>
  <fix>3d</fix>
</trkpt>
<trkpt lat="-27.274439" lon="151.290064">
  <ele>343.1</ele>
  <time>2026-09-01T20:02:36Z</time>
  <course>270.0</course>
  <speed>0.0</speed>
  <fix>3d</fix>
</trkpt>
<trkpt lat="-27.274439" lon="151.290064">
  <ele>343.1</ele>
  <time>2026-09-01T20:02:36Z</time>
  <course>10.79</course>
  <speed>0.0</speed>
  <fix>3d</fix>
</trkpt>
<trkpt lat="-27.274439" lon="151.290064">
  <ele>343.1</ele>
  <time>2026-09-01T20:02:36Z</time>
  <course>270.0</course>
  <speed>0.0</speed>
  <fix>3d</fix>
</trkpt>
<trkpt lat="-27.274439" lon="151.290064">
  <ele>343.12</ele>
  <time>2026-09-01T20:02:36Z</time>
  <course>10.79</course>
  <speed>0.0</speed>
  <fix>3d</fix>
</trkpt>
<trkpt lat="-27.274439" lon="151.290064">
  <ele>343.1</ele>
  <time>2026-09-01T20:02:36Z</time>
  <course>270.0</course>
  <speed>0.0</speed>
  <fix>3d</fix>
</trkpt>
<trkpt lat="-27.274439" lon="151.290064">
  <ele>342.94</ele>
  <time>2026-09-01T20:02:36Z</time>
  <course>10.79</course>
  <speed>0.0</speed>
  <fix>3d</fix>
</trkpt>
<trkpt lat="-27.274439" lon="151.290064">
  <ele>343.1</ele>
  <time>2026-09-01T20:02:36Z</time>
  <course>270.0</course>
  <speed>0.0</speed>
  <fix>3d</fix>
</trkpt>
<trkpt lat="-27.274439" lon="151.290064">
  <ele>343.25</ele>
  <time>2026-09-01T20:02:36Z</time>
  <course>10.79</course>
  <speed>0.0</speed>
  <fix>3d</fix>
</trkpt>
<trkpt lat="-27.274439" lon="151.290064">
  <ele>343.1</ele>
  <time>2026-09-01T20:02:36Z</time>
  <course>270.0</course>
  <speed>0.0</speed>
  <fix>3d</fix>
</trkpt>
<trkpt lat="-27.274439" lon="151.290064">
  <ele>342.93</ele>
  <time>2026-09-01T20:02:36Z</time>
  <course>10.79</course>
  <speed>0.0</speed>
  <fix>3d</fix>
</trkpt>
<trkpt lat="-27.274439" lon="151.290064">
  <ele>343.1</ele>
  <time>2026-09-01T20:02:36Z</time>
  <course>270.0</course>
  <speed>0.0</speed>
  <fix>3d</fix>
</trkpt>
<trkpt lat="-27.274439" lon="151.290064">
  <ele>343.08</ele>
  <time>2026-09-01T20:02:36Z</time>
  <course>10.79</course>
  <speed>0.0</speed>
  <fix>3d</fix>
</trkpt>
<trkpt lat="-27.274439" lon="151.290064">
  <ele>343.1</ele>
  <time>2026-09-01T20:02:36Z</time>
  <course>270.0</course>
  <speed>0.0</speed>
  <fix>3d</fix>
</trkpt>
<trkpt lat="-27.274439" lon="151.290064">
  <ele>343.23</ele>
  <time>2026-09-01T20:02:36Z</time>
  <course>10.8</course>
  <speed>0.0</speed>
  <fix>3d</fix>
</trkpt>
<trkpt lat="-27.274439" lon="151.290064">
  <ele>343.1</ele>
  <time>2026-09-01T20:02:36Z</time>
  <course>270.0</course>
  <speed>0.0</speed>
  <fix>3d</fix>
</trkpt>
<trkpt lat="-27.274439" lon="151.290064">
  <ele>343.01</ele>
  <time>2026-09-01T20:02:36Z</time>
  <course>10.8</course>
  <speed>0.0</speed>
  <fix>3d</fix>
</trkpt>
<trkpt lat="-27.274439" lon="151.290064">
  <ele>343.1</ele>
  <time>2026-09-01T20:02:36Z</time>
  <course>270.0</course>
  <speed>0.0</speed>
  <fix>3d</fix>
</trkpt>
<trkpt lat="-27.274439" lon="151.290064">
  <ele>343.1</ele>
  <time>2026-09-01T20:02:36Z</time>
  <course>10.8</course>
  <speed>0.0</speed>
  <fix>3d</fix>
</trkpt>
<trkpt lat="-27.274439" lon="151.290064">
  <ele>343.1</ele>
  <time>2026-09-01T20:02:36Z</time>
  <course>270.0</course>
  <speed>0.0</speed>
  <fix>3d</fix>
</trkpt>
<trkpt lat="-27.274439" lon="151.290064">
  <ele>342.99</ele>
  <time>2026-09-01T20:02:36Z</time>
  <course>10.8</course>
  <speed>0.0</speed>
  <fix>3d</fix>
</trkpt>
<trkpt lat="-27.274439" lon="151.290064">
  <ele>343.1</ele>
  <time>2026-09-01T20:02:36Z</time>
  <course>270.0</course>
  <speed>0.0</speed>
  <fix>3d</fix>
</trkpt>
<trkpt lat="-27.274439" lon="151.290064">
  <ele>342.87</ele>
  <time>2026-09-01T20:02:36Z</time>
  <course>10.8</course>
  <speed>0.0</speed>
  <fix>3d</fix>
</trkpt>
<trkpt lat="-27.274439" lon="151.290064">
  <ele>343.1</ele>
  <time>2026-09-01T20:02:36Z</time>
  <course>270.0</course>
  <speed>0.0</speed>
  <fix>3d</fix>
</trkpt>
<trkpt lat="-27.274439" lon="151.290064">
  <ele>343.1</ele>
  <time>2026-09-01T20:02:36Z</time>
  <course>10.8</course>
  <speed>0.0</speed>
  <fix>3d</fix>
</trkpt>
<trkpt lat="-27.274439" lon="151.290064">
  <ele>343.1</ele>
  <time>2026-09-01T20:02:36Z</time>
  <course>270.0</course>
  <speed>0.0</speed>
  <fix>3d</fix>
</trkpt>
<trkpt lat="-27.274439" lon="151.290064">
  <ele>342.99</ele>
  <time>2026-09-01T20:02:36Z</time>
  <course>10.8</course>
  <speed>0.0</speed>
  <fix>3d</fix>
</trkpt>
<trkpt lat="-27.274439" lon="151.290064">
  <ele>343.1</ele>
  <time>2026-09-01T20:02:36Z</time>
  <course>270.0</course>
  <speed>0.0</speed>
  <fix>3d</fix>
</trkpt>
<trkpt lat="-27.274439" lon="151.290064">
  <ele>342.91</ele>
  <time>2026-09-01T20:02:36Z</time>
  <course>10.8</course>
  <speed>0.0</speed>
  <fix>3d</fix>
</trkpt>
<trkpt lat="-27.274439" lon="151.290064">
  <ele>343.1</ele>
  <time>2026-09-01T20:02:36Z</time>
  <course>270.0</course>
  <speed>0.0</speed>
  <fix>3d</fix>
</trkpt>
<trkpt lat="-27.274439" lon="151.290064">
  <ele>342.9</ele>
  <time>2026-09-01T20:02:36Z</time>
  <course>10.8</course>
  <speed>0.0</speed>
  <fix>3d</fix>
</trkpt>
<trkpt lat="-27.274439" lon="151.290064">
  <ele>343.1</ele>
  <time>2026-09-01T20:02:36Z</time>
  <course>270.0</course>
  <speed>0.0</speed>
  <fix>3d</fix>
</trkpt>
<trkpt lat="-27.274439" lon="151.290064">
  <ele>342.87</ele>
  <time>2026-09-01T20:02:36Z</time>
  <course>10.8</course>
  <speed>0.0</speed>
  <fix>3d</fix>
</trkpt>
<trkpt lat="-27.274439" lon="151.290064">
  <ele>343.1</ele>
  <time>2026-09-01T20:02:36Z</time>
  <course>270.0</course>
  <speed>0.0</speed>
  <fix>3d</fix>
</trkpt>
<trkpt lat="-27.274439" lon="151.290064">
  <ele>343.12</ele>
  <time>2026-09-01T20:02:36Z</time>
  <course>10.8</course>
  <speed>0.0</speed>
  <fix>3d</fix>
</trkpt>
<trkpt lat="-27.274439" lon="151.290064">
  <ele>343.1</ele>
  <time>2026-09-01T20:02:36Z</time>
  <course>270.0</course>
  <speed>0.0</speed>
  <fix>3d</fix>
</trkpt>
<trkpt lat="-27.274439" lon="151.290064">
  <ele>342.99</ele>
  <time>2026-09-01T20:02:36Z</time>
  <course>10.8</course>
  <speed>0.0</speed>
  <fix>3d</fix>
</trkpt>
<trkpt lat="-27.274439" lon="151.290064">
  <ele>343.1</ele>
  <time>2026-09-01T20:02:36Z</time>
  <course>270.0</course>
  <speed>0.0</speed>
  <fix>3d</fix>
</trkpt>
<trkpt lat="-27.274439" lon="151.290064">
  <ele>343.13</ele>
  <time>2026-09-01T20:02:36Z</time>
  <course>10.8</course>
  <speed>0.0</speed>
  <fix>3d</fix>
</trkpt>
<trkpt lat="-27.274439" lon="151.290064">
  <ele>343.1</ele>
  <time>2026-09-01T20:02:36Z</time>
  <course>270.0</course>
  <speed>0.0</speed>
  <fix>3d</fix>
</trkpt>
<trkpt lat="-27.274439" lon="151.290064">
  <ele>343.0</ele>
  <time>2026-09-01T20:02:36Z</time>
  <course>10.8</course>
  <speed>0.0</speed>
  <fix>3d</fix>
</trkpt>
<trkpt lat="-27.274439" lon="151.290064">
  <ele>343.1</ele>
  <time>2026-09-01T20:02:36Z</time>
  <course>270.0</course>
  <speed>0.0</speed>
  <fix>3d</fix>
</trkpt>
<trkpt lat="-27.274439" lon="151.290064">
  <ele>343.17</ele>
  <time>2026-09-01T20:02:36Z</time>
  <course>10.8</course>
  <speed>0.0</speed>
  <fix>3d</fix>
</trkpt>
<trkpt lat="-27.274439" lon="151.290064">
  <ele>343.1</ele>
  <time>2026-09-01T20:02:36Z</time>
  <course>270.0</course>
  <speed>0.0</speed>
  <fix>3d</fix>
</trkpt>
<trkpt lat="-27.274439" lon="151.290064">
  <ele>343.0</ele>
  <time>2026-09-01T20:02:36Z</time>
  <course>10.8</course>
  <speed>0.0</speed>
  <fix>3d</fix>
</trkpt>
<trkpt lat="-27.274439" lon="151.290064">
  <ele>343.1</ele>
  <time>2026-09-01T20:02:36Z</time>
  <course>270.0</course>
  <speed>0.0</speed>
  <fix>3d</fix>
</trkpt>
<trkpt lat="-27.274439" lon="151.290064">
  <ele>342.99</ele>
  <time>2026-09-01T20:02:36Z</time>
  <course>10.8</course>
  <speed>0.0</speed>
  <fix>3d</fix>
</trkpt>
<trkpt lat="-27.274439" lon="151.290064">
  <ele>343.1</ele>
  <time>2026-09-01T20:02:36Z</time>
  <course>270.0</course>
  <speed>0.0</speed>
  <fix>3d</fix>
</trkpt>
<trkpt lat="-27.274439" lon="151.290064">
  <ele>343.17</ele>
  <time>2026-09-01T20:02:36Z</time>
  <course>10.8</course>
  <speed>0.0</speed>
  <fix>3d</fix>
</trkpt>
<trkpt lat="-27.274439" lon="151.290064">
  <ele>343.1</ele>
  <time>2026-09-01T20:02:36Z</time>
  <course>270.0</course>
  <speed>0.0</speed>
  <fix>3d</fix>
</trkpt>
<trkpt lat="-27.274439" lon="151.290064">
  <ele>343.16</ele>
  <time>2026-09-01T20:02:36Z</time>
  <course>10.8</course>
  <speed>0.0</speed>
  <fix>3d</fix>
</trkpt>
<trkpt lat="-27.274439" lon="151.290064">
  <ele>343.1</ele>
  <time>2026-09-01T20:02:36Z</time>
  <course>270.0</course>
  <speed>0.0</speed>
  <fix>3d</fix>
</trkpt>
<trkpt lat="-27.274439" lon="151.290064">
  <ele>342.87</ele>
  <time>2026-09-01T20:02:36Z</time>
  <course>10.8</course>
  <speed>0.0</speed>
  <fix>3d</fix>
</trkpt>
<trkpt lat="-27.274439" lon="151.290064">
  <ele>343.1</ele>
  <time>2026-09-01T20:02:36Z</time>
  <course>270.0</course>
  <speed>0.0</speed>
  <fix>3d</fix>
</trkpt>
<trkpt lat="-27.274439" lon="151.290064">
  <ele>343.19</ele>
  <time>2026-09-01T20:02:36Z</time>
  <course>10.8</course>
  <speed>0.0</speed>
  <fix>3d</fix>
</trkpt>
<trkpt lat="-27.274439" lon="151.290064">
  <ele>343.1</ele>
  <time>2026-09-01T20:02:36Z</time>
  <course>270.0</course>
  <speed>0.0</speed>
  <fix>3d</fix>
</trkpt>
<trkpt lat="-27.274439" lon="151.290064">
  <ele>343.16</ele>
  <time>2026-09-01T20:02:36Z</time>
  <course>10.8</course>
  <speed>0.0</speed>
  <fix>3d</fix>
</trkpt>
<trkpt lat="-27.274439" lon="151.290064">
  <ele>343.1</ele>
  <time>2026-09-01T20:02:36Z</time>
  <course>270.0</course>
  <speed>0.0</speed>
  <fix>3d</fix>
</trkpt>
<trkpt lat="-27.274439" lon="151.290064">
  <ele>343.21</ele>
  <time>2026-09-01T20:02:36Z</time>
  <course>10.8</course>
  <speed>0.0</speed>
  <fix>3d</fix>
</trkpt>
<trkpt lat="-27.274439" lon="151.290064">
  <ele>343.1</ele>
  <time>2026-09-01T20:02:36Z</time>
  <course>270.0</course>
  <speed>0.0</speed>
  <fix>3d</fix>
</trkpt>
<trkpt lat="-27.274439" lon="151.290064">
  <ele>343.22</ele>
  <time>2026-09-01T20:02:36Z</time>
  <course>10.8</course>
  <speed>0.0</speed>
  <fix>3d</fix>
</trkpt>
<trkpt lat="-27.274439" lon="151.290064">
  <ele>343.1</ele>
  <time>2026-09-01T20:02:36Z</time>
  <course>270.0</course>
  <speed>0.0</speed>
  <fix>3d</fix>
</trkpt>
<trkpt lat="-27.274439" lon="151.290064">
  <ele>343.24</ele>
  <time>2026-09-01T20:02:36Z</time>
  <course>10.8</course>
  <speed>0.0</speed>
  <fix>3d</fix>
</trkpt>
<trkpt lat="-27.274439" lon="151.290064">
  <ele>343.1</ele>
  <time>2026-09-01T20:02:36Z</time>
  <course>270.0</course>
  <speed>0.0</speed>
  <fix>3d</fix>
</trkpt>
<trkpt lat="-27.274439" lon="151.290064">
  <ele>343.0</ele>
  <time>2026-09-01T20:02:36Z</time>
  <course>10.8</course>
  <speed>0.0</speed>
  <fix>3d</fix>
</trkpt>
<trkpt lat="-27.274439" lon="151.290064">
  <ele>343.1</ele>
  <time>2026-09-01T20:02:36Z</time>
  <course>270.0</course>
  <speed>0.0</speed>
  <fix>3d</fix>
</trkpt>
<trkpt lat="-27.274439" lon="151.290064">
  <ele>343.1</ele>
  <time>2026-09-01T20:02:36Z</time>
  <course>10.8</course>
  <speed>0.0</speed>
  <fix>3d</fix>
</trkpt>
<trkpt lat="-27.274439" lon="151.290064">
  <ele>343.1</ele>
  <time>2026-09-01T20:02:36Z</time>
  <course>270.0</course>
  <speed>0.0</speed>
  <fix>3d</fix>
</trkpt>
<trkpt lat="-27.274439" lon="151.290064">
  <ele>343.05</ele>
  <time>2026-09-01T20:02:36Z</time>
  <course>10.8</course>
  <speed>0.0</speed>
  <fix>3d</fix>
</trkpt>
<trkpt lat="-27.274439" lon="151.290064">
  <ele>343.1</ele>
  <time>2026-09-01T20:02:36Z</time>
  <course>270.0</course>
  <speed>0.0</speed>
  <fix>3d</fix>
</trkpt>
<trkpt lat="-27.274439" lon="151.290064">
  <ele>342.87</ele>
  <time>2026-09-01T20:02:36Z</time>
  <course>10.8</course>
  <speed>0.0</speed>
  <fix>3d</fix>
</trkpt>
<trkpt lat="-27.274439" lon="151.290064">
  <ele>343.1</ele>
  <time>2026-09-01T20:02:36Z</time>
  <course>270.0</course>
  <speed>0.0</speed>
  <fix>3d</fix>
</trkpt>
<trkpt lat="-27.274439" lon="151.290064">
  <ele>342.92</ele>
  <time>2026-09-01T20:02:36Z</time>
  <course>10.8</course>
  <speed>0.0</speed>
  <fix>3d</fix>
</trkpt>
<trkpt lat="-27.274439" lon="151.290064">
  <ele>343.1</ele>
  <time>2026-09-01T20:02:36Z</time>
  <course>270.0</course>
  <speed>0.0</speed>
  <fix>3d</fix>
</trkpt>
<trkpt lat="-27.274439" lon="151.290064">
  <ele>342.96</ele>
  <time>2026-09-01T20:02:36Z</time>
  <course>10.8</course>
  <speed>0.0</speed>
  <fix>3d</fix>
</trkpt>
<trkpt lat="-27.274439" lon="151.290064">
  <ele>343.1</ele>
  <time>2026-09-01T20:02:36Z</time>
  <course>270.0</course>
  <speed>0.0</speed>
  <fix>3d</fix>
</trkpt>
<trkpt lat="-27.274439" lon="151.290064">
  <ele>343.15</ele>
  <time>2026-09-01T20:02:36Z</time>
  <course>10.8</course>
  <speed>0.0</speed>
  <fix>3d</fix>
</trkpt>
<trkpt lat="-27.274439" lon="151.290064">
  <ele>343.1</ele>
  <time>2026-09-01T20:02:36Z</time>
  <course>270.0</course>
  <speed>0.0</speed>
  <fix>3d</fix>
</trkpt>
<trkpt lat="-27.274439" lon="151.290064">
  <ele>343.16</ele>
  <time>2026-09-01T20:02:36Z</time>
  <course>10.8</course>
  <speed>0.0</speed>
  <fix>3d</fix>
</trkpt>
<trkpt lat="-27.274439" lon="151.290064">
  <ele>343.1</ele>
  <time>2026-09-01T20:02:36Z</time>
  <course>270.0</course>
  <speed>0.0</speed>
  <fix>3d</fix>
</trkpt>
<trkpt lat="-27.274439" lon="151.290064">
  <ele>343.2</ele>
  <time>2026-09-01T20:02:36Z</time>
  <course>10.81</course>
  <speed>0.0</speed>
  <fix>3d</fix>
</trkpt>
<trkpt lat="-27.274439" lon="151.290064">
  <ele>343.1</ele>
  <time>2026-09-01T20:02:36Z</time>
  <course>270.0</course>
  <speed>0.0</speed>
  <fix>3d</fix>
</trkpt>
<trkpt lat="-27.274439" lon="151.290064">
  <ele>343.13</ele>
  <time>2026-09-01T20:02:36Z</time>
  <course>10.82</course>
  <speed>0.0</speed>
  <fix>3d</fix>
</trkpt>
<trkpt lat="-27.274439" lon="151.290064">
  <ele>343.1</ele>
  <time>2026-09-01T20:02:36Z</time>
  <course>270.0</course>
  <speed>0.0</speed>
  <fix>3d</fix>
</trkpt>
<trkpt lat="-27.274439" lon="151.290064">
  <ele>343.09</ele>
  <time>2026-09-01T20:02:36Z</time>
  <course>10.71</course>
  <speed>0.0</speed>
  <fix>3d</fix>
</trkpt>
<trkpt lat="-27.274439" lon="151.290064">
  <ele>343.1</ele>
  <time>2026-09-01T20:02:36Z</time>
  <course>270.0</course>
  <speed>0.0</speed>
  <fix>3d</fix>
</trkpt>
<trkpt lat="-27.274439" lon="151.290064">
  <ele>343.09</ele>
  <time>2026-09-01T20:02:36Z</time>
  <course>10.71</course>
  <speed>0.0</speed>
  <fix>3d</fix>
</trkpt>
<trkpt lat="-27.274439" lon="151.290064">
  <ele>343.1</ele>
  <time>2026-09-01T20:02:36Z</time>
  <course>270.0</course>
  <speed>0.0</speed>
  <fix>3d</fix>
</trkpt>
<trkpt lat="-27.274439" lon="151.290064">
  <ele>343.1</ele>
  <time>2026-09-01T20:02:36Z</time>
  <course>10.71</course>
  <speed>0.0</speed>
  <fix>3d</fix>
</trkpt>
<trkpt lat="-27.274439" lon="151.290064">
  <ele>343.1</ele>
  <time>2026-09-01T20:02:36Z</time>
  <course>270.0</course>
  <speed>0.0</speed>
  <fix>3d</fix>
</trkpt>
<trkpt lat="-27.274439" lon="151.290064">
  <ele>343.1</ele>
  <time>2026-09-01T20:02:36Z</time>
  <course>10.71</course>
  <speed>0.0</speed>
  <fix>3d</fix>
</trkpt>
<trkpt lat="-27.274439" lon="151.290064">
  <ele>343.1</ele>
  <time>2026-09-01T20:02:36Z</time>
  <course>270.0</course>
  <speed>0.0</speed>
  <fix>3d</fix>
</trkpt>
<trkpt lat="-27.274439" lon="151.290064">
  <ele>343.1</ele>
  <time>2026-09-01T20:02:36Z</time>
  <course>10.71</course>
  <speed>0.0</speed>
  <fix>3d</fix>
</trkpt>
<trkpt lat="-27.274439" lon="151.290064">
  <ele>343.1</ele>
  <time>2026-09-01T20:02:36Z</time>
  <course>270.0</course>
  <speed>0.0</speed>
  <fix>3d</fix>
</trkpt>
<trkpt lat="-27.274439" lon="151.290064">
  <ele>343.1</ele>
  <time>2026-09-01T20:02:36Z</time>
  <course>10.71</course>
  <speed>0.0</speed>
  <fix>3d</fix>
</trkpt>
<trkpt lat="-27.274439" lon="151.290064">
  <ele>343.1</ele>
  <time>2026-09-01T20:02:36Z</time>
  <course>270.0</course>
  <speed>0.0</speed>
  <fix>3d</fix>
</trkpt>
<trkpt lat="-27.274439" lon="151.290064">
  <ele>343.1</ele>
  <time>2026-09-01T20:02:36Z</time>
  <course>10.71</course>
  <speed>0.0</speed>
  <fix>3d</fix>
</trkpt>
<trkpt lat="-27.274439" lon="151.290064">
  <ele>343.1</ele>
  <time>2026-09-01T20:02:36Z</time>
  <course>270.0</course>
  <speed>0.0</speed>
  <fix>3d</fix>
</trkpt>
<trkpt lat="-27.274439" lon="151.290064">
  <ele>343.11</ele>
  <time>2026-09-01T20:02:36Z</time>
  <course>10.71</course>
  <speed>0.0</speed>
  <fix>3d</fix>
</trkpt>
<trkpt lat="-27.274439" lon="151.290064">
  <ele>343.1</ele>
  <time>2026-09-01T20:02:36Z</time>
  <course>270.0</course>
  <speed>0.0</speed>
  <fix>3d</fix>
</trkpt>
<trkpt lat="-27.274439" lon="151.290064">
  <ele>343.11</ele>
  <time>2026-09-01T20:02:36Z</time>
  <course>10.71</course>
  <speed>0.0</speed>
  <fix>3d</fix>
</trkpt>
<trkpt lat="-27.274439" lon="151.290064">
  <ele>343.1</ele>
  <time>2026-09-01T20:02:36Z</time>
  <course>270.0</course>
  <speed>0.0</speed>
  <fix>3d</fix>
</trkpt>
<trkpt lat="-27.274439" lon="151.290064">
  <ele>343.11</ele>
  <time>2026-09-01T20:02:36Z</time>
  <course>10.71</course>
  <speed>0.0</speed>
  <fix>3d</fix>
</trkpt>
<trkpt lat="-27.274439" lon="151.290064">
  <ele>343.1</ele>
  <time>2026-09-01T20:02:36Z</time>
  <course>270.0</course>
  <speed>0.0</speed>
  <fix>3d</fix>
</trkpt>
<trkpt lat="-27.274439" lon="151.290064">
  <ele>343.12</ele>
  <time>2026-09-01T20:02:36Z</time>
  <course>10.71</course>
  <speed>0.0</speed>
  <fix>3d</fix>
</trkpt>
<trkpt lat="-27.274439" lon="151.290064">
  <ele>343.1</ele>
  <time>2026-09-01T20:02:36Z</time>
  <course>270.0</course>
  <speed>0.0</speed>
  <fix>3d</fix>
</trkpt>
<trkpt lat="-27.274439" lon="151.290064">
  <ele>343.12</ele>
  <time>2026-09-01T20:02:36Z</time>
  <course>10.71</course>
  <speed>0.0</speed>
  <fix>3d</fix>
</trkpt>
<trkpt lat="-27.274439" lon="151.290064">
  <ele>343.1</ele>
  <time>2026-09-01T20:02:36Z</time>
  <course>270.0</course>
  <speed>0.0</speed>
  <fix>3d</fix>
</trkpt>
<trkpt lat="-27.274439" lon="151.290064">
  <ele>343.1</ele>
  <time>2026-09-01T20:02:36Z</time>
  <course>10.71</course>
  <speed>0.0</speed>
  <fix>3d</fix>
</trkpt>
<trkpt lat="-27.274439" lon="151.290064">
  <ele>343.1</ele>
  <time>2026-09-01T20:02:36Z</time>
  <course>270.0</course>
  <speed>0.0</speed>
  <fix>3d</fix>
</trkpt>
<trkpt lat="-27.274439" lon="151.290064">
  <ele>343.1</ele>
  <time>2026-09-01T20:02:36Z</time>
  <course>10.71</course>
  <speed>0.0</speed>
  <fix>3d</fix>
</trkpt>
<trkpt lat="-27.274439" lon="151.290064">
  <ele>343.1</ele>
  <time>2026-09-01T20:02:36Z</time>
  <course>270.0</course>
  <speed>0.0</speed>
  <fix>3d</fix>
</trkpt>
<trkpt lat="-27.274439" lon="151.290064">
  <ele>343.1</ele>
  <time>2026-09-01T20:02:36Z</time>
  <course>10.71</course>
  <speed>0.0</speed>
  <fix>3d</fix>
</trkpt>
<trkpt lat="-27.274439" lon="151.290064">
  <ele>343.1</ele>
  <time>2026-09-01T20:02:36Z</time>
  <course>270.0</course>
  <speed>0.0</speed>
  <fix>3d</fix>
</trkpt>
<trkpt lat="-27.274439" lon="151.290064">
  <ele>343.09</ele>
  <time>2026-09-01T20:02:36Z</time>
  <course>10.71</course>
  <speed>0.0</speed>
  <fix>3d</fix>
</trkpt>
<trkpt lat="-27.274439" lon="151.290064">
  <ele>343.1</ele>
  <time>2026-09-01T20:02:36Z</time>
  <course>270.0</course>
  <speed>0.0</speed>
  <fix>3d</fix>
</trkpt>
<trkpt lat="-27.274439" lon="151.290064">
  <ele>343.09</ele>
  <time>2026-09-01T20:02:36Z</time>
  <course>10.71</course>
  <speed>0.0</speed>
  <fix>3d</fix>
</trkpt>
<trkpt lat="-27.274439" lon="151.290064">
  <ele>343.1</ele>
  <time>2026-09-01T20:02:36Z</time>
  <course>270.0</course>
  <speed>0.0</speed>
  <fix>3d</fix>
</trkpt>
<trkpt lat="-27.274439" lon="151.290064">
  <ele>343.09</ele>
  <time>2026-09-01T20:02:36Z</time>
  <course>10.71</course>
  <speed>0.0</speed>
  <fix>3d</fix>
</trkpt>
<trkpt lat="-27.274439" lon="151.290064">
  <ele>343.1</ele>
  <time>2026-09-01T20:02:36Z</time>
  <course>270.0</course>
  <speed>0.0</speed>
  <fix>3d</fix>
</trkpt>
<trkpt lat="-27.274439" lon="151.290064">
  <ele>343.1</ele>
  <time>2026-09-01T20:02:36Z</time>
  <course>10.71</course>
  <speed>0.0</speed>
  <fix>3d</fix>
</trkpt>
<trkpt lat="-27.274439" lon="151.290064">
  <ele>343.1</ele>
  <time>2026-09-01T20:02:36Z</time>
  <course>270.0</course>
  <speed>0.0</speed>
  <fix>3d</fix>
</trkpt>
<trkpt lat="-27.274439" lon="151.290064">
  <ele>343.1</ele>
  <time>2026-09-01T20:02:36Z</time>
  <course>10.71</course>
  <speed>0.0</speed>
  <fix>3d</fix>
</trkpt>
<trkpt lat="-27.274439" lon="151.290064">
  <ele>343.1</ele>
  <time>2026-09-01T20:02:36Z</time>
  <course>270.0</course>
  <speed>0.0</speed>
  <fix>3d</fix>
</trkpt>
<trkpt lat="-27.274439" lon="151.290064">
  <ele>343.09</ele>
  <time>2026-09-01T20:02:36Z</time>
  <course>10.71</course>
  <speed>0.0</speed>
  <fix>3d</fix>
</trkpt>
<trkpt lat="-27.274439" lon="151.290064">
  <ele>343.1</ele>
  <time>2026-09-01T20:02:36Z</time>
  <course>270.0</course>
  <speed>0.0</speed>
  <fix>3d</fix>
</trkpt>
<trkpt lat="-27.274439" lon="151.290064">
  <ele>343.09</ele>
  <time>2026-09-01T20:02:36Z</time>
  <course>10.71</course>
  <speed>0.0</speed>
  <fix>3d</fix>
</trkpt>
<trkpt lat="-27.274439" lon="151.290064">
  <ele>343.1</ele>
  <time>2026-09-01T20:02:36Z</time>
  <course>270.0</course>
  <speed>0.0</speed>
  <fix>3d</fix>
</trkpt>
<trkpt lat="-27.274439" lon="151.290064">
  <ele>343.09</ele>
  <time>2026-09-01T20:02:36Z</time>
  <course>10.71</course>
  <speed>0.0</speed>
  <fix>3d</fix>
</trkpt>
<trkpt lat="-27.274439" lon="151.290064">
  <ele>343.1</ele>
  <time>2026-09-01T20:02:36Z</time>
  <course>270.0</course>
  <speed>0.0</speed>
  <fix>3d</fix>
</trkpt>
<trkpt lat="-27.274439" lon="151.290064">
  <ele>343.09</ele>
  <time>2026-09-01T20:02:36Z</time>
  <course>10.71</course>
  <speed>0.0</speed>
  <fix>3d</fix>
</trkpt>
<trkpt lat="-27.274439" lon="151.290064">
  <ele>343.1</ele>
  <time>2026-09-01T20:02:36Z</time>
  <course>270.0</course>
  <speed>0.0</speed>
  <fix>3d</fix>
</trkpt>
<trkpt lat="-27.274439" lon="151.290064">
  <ele>343.09</ele>
  <time>2026-09-01T20:02:36Z</time>
  <course>10.71</course>
  <speed>0.0</speed>
  <fix>3d</fix>
</trkpt>
<trkpt lat="-27.274439" lon="151.290064">
  <ele>343.1</ele>
  <time>2026-09-01T20:02:36Z</time>
  <course>270.0</course>
  <speed>0.0</speed>
  <fix>3d</fix>
</trkpt>
<trkpt lat="-27.274439" lon="151.290064">
  <ele>343.09</ele>
  <time>2026-09-01T20:02:36Z</time>
  <course>10.71</course>
  <speed>0.0</speed>
  <fix>3d</fix>
</trkpt>
<trkpt lat="-27.274439" lon="151.290064">
  <ele>343.1</ele>
  <time>2026-09-01T20:02:36Z</time>
  <course>270.0</course>
  <speed>0.0</speed>
  <fix>3d</fix>
</trkpt>
<trkpt lat="-27.274439" lon="151.290064">
  <ele>343.09</ele>
  <time>2026-09-01T20:02:36Z</time>
  <course>10.71</course>
  <speed>0.0</speed>
  <fix>3d</fix>
</trkpt>
<trkpt lat="-27.274439" lon="151.290064">
  <ele>343.1</ele>
  <time>2026-09-01T20:02:36Z</time>
  <course>270.0</course>
  <speed>0.0</speed>
  <fix>3d</fix>
</trkpt>
<trkpt lat="-27.274439" lon="151.290064">
  <ele>343.09</ele>
  <time>2026-09-01T20:02:36Z</time>
  <course>10.71</course>
  <speed>0.0</speed>
  <fix>3d</fix>
</trkpt>
<trkpt lat="-27.274439" lon="151.290064">
  <ele>343.1</ele>
  <time>2026-09-01T20:02:36Z</time>
  <course>270.0</course>
  <speed>0.0</speed>
  <fix>3d</fix>
</trkpt>
<trkpt lat="-27.274439" lon="151.290064">
  <ele>343.1</ele>
  <time>2026-09-01T20:02:36Z</time>
  <course>10.71</course>
  <speed>0.0</speed>
  <fix>3d</fix>
</trkpt>
<trkpt lat="-27.274439" lon="151.290064">
  <ele>343.1</ele>
  <time>2026-09-01T20:02:36Z</time>
  <course>270.0</course>
  <speed>0.0</speed>
  <fix>3d</fix>
</trkpt>
<trkpt lat="-27.274439" lon="151.290064">
  <ele>343.1</ele>
  <time>2026-09-01T20:02:36Z</time>
  <course>10.71</course>
  <speed>0.0</speed>
  <fix>3d</fix>
</trkpt>
<trkpt lat="-27.274439" lon="151.290064">
  <ele>343.1</ele>
  <time>2026-09-01T20:02:36Z</time>
  <course>270.0</course>
  <speed>0.0</speed>
  <fix>3d</fix>
</trkpt>
<trkpt lat="-27.274439" lon="151.290064">
  <ele>343.1</ele>
  <time>2026-09-01T20:02:36Z</time>
  <course>10.71</course>
  <speed>0.0</speed>
  <fix>3d</fix>
</trkpt>
<trkpt lat="-27.274439" lon="151.290064">
  <ele>343.1</ele>
  <time>2026-09-01T20:02:36Z</time>
  <course>270.0</course>
  <speed>0.0</speed>
  <fix>3d</fix>
</trkpt>
<trkpt lat="-27.274439" lon="151.290064">
  <ele>343.1</ele>
  <time>2026-09-01T20:02:36Z</time>
  <course>10.71</course>
  <speed>0.0</speed>
  <fix>3d</fix>
</trkpt>
<trkpt lat="-27.274439" lon="151.290064">
  <ele>343.1</ele>
  <time>2026-09-01T20:02:36Z</time>
  <course>270.0</course>
  <speed>0.0</speed>
  <fix>3d</fix>
</trkpt>
<trkpt lat="-27.274439" lon="151.290064">
  <ele>343.1</ele>
  <time>2026-09-01T20:02:36Z</time>
  <course>10.71</course>
  <speed>0.0</speed>
  <fix>3d</fix>
</trkpt>
<trkpt lat="-27.274439" lon="151.290064">
  <ele>343.1</ele>
  <time>2026-09-01T20:02:36Z</time>
  <course>270.0</course>
  <speed>0.0</speed>
  <fix>3d</fix>
</trkpt>
<trkpt lat="-27.274439" lon="151.290064">
  <ele>343.1</ele>
  <time>2026-09-01T20:02:36Z</time>
  <course>10.71</course>
  <speed>0.0</speed>
  <fix>3d</fix>
</trkpt>
<trkpt lat="-27.274439" lon="151.290064">
  <ele>343.1</ele>
  <time>2026-09-01T20:02:36Z</time>
  <course>270.0</course>
  <speed>0.0</speed>
  <fix>3d</fix>
</trkpt>
<trkpt lat="-27.274439" lon="151.290064">
  <ele>343.09</ele>
  <time>2026-09-01T20:02:36Z</time>
  <course>10.71</course>
  <speed>0.0</speed>
  <fix>3d</fix>
</trkpt>
<trkpt lat="-27.274439" lon="151.290064">
  <ele>343.1</ele>
  <time>2026-09-01T20:02:36Z</time>
  <course>270.0</course>
  <speed>0.0</speed>
  <fix>3d</fix>
</trkpt>
<trkpt lat="-27.274439" lon="151.290064">
  <ele>343.09</ele>
  <time>2026-09-01T20:02:36Z</time>
  <course>10.71</course>
  <speed>0.0</speed>
  <fix>3d</fix>
</trkpt>
<trkpt lat="-27.274439" lon="151.290064">
  <ele>343.1</ele>
  <time>2026-09-01T20:02:36Z</time>
  <course>270.0</course>
  <speed>0.0</speed>
  <fix>3d</fix>
</trkpt>
<trkpt lat="-27.274439" lon="151.290064">
  <ele>343.09</ele>
  <time>2026-09-01T20:02:36Z</time>
  <course>10.71</course>
  <speed>0.0</speed>
  <fix>3d</fix>
</trkpt>
<trkpt lat="-27.274439" lon="151.290064">
  <ele>343.1</ele>
  <time>2026-09-01T20:02:36Z</time>
  <course>270.0</course>
  <speed>0.0</speed>
  <fix>3d</fix>
</trkpt>
<trkpt lat="-27.274439" lon="151.290064">
  <ele>343.09</ele>
  <time>2026-09-01T20:02:36Z</time>
  <course>10.71</course>
  <speed>0.0</speed>
  <fix>3d</fix>
</trkpt>
<trkpt lat="-27.274439" lon="151.290064">
  <ele>343.1</ele>
  <time>2026-09-01T20:02:36Z</time>
  <course>270.0</course>
  <speed>0.0</speed>
  <fix>3d</fix>
</trkpt>
<trkpt lat="-27.274439" lon="151.290064">
  <ele>343.09</ele>
  <time>2026-09-01T20:02:36Z</time>
  <course>10.71</course>
  <speed>0.0</speed>
  <fix>3d</fix>
</trkpt>
<trkpt lat="-27.274439" lon="151.290064">
  <ele>343.1</ele>
  <time>2026-09-01T20:02:36Z</time>
  <course>116.25</course>
  <speed>0.0</speed>
  <fix>3d</fix>
</trkpt>
<trkpt lat="-27.274439" lon="151.290064">
  <ele>343.08</ele>
  <time>2026-09-01T20:02:36Z</time>
  <course>10.71</course>
  <speed>0.0</speed>
  <fix>3d</fix>
</trkpt>
<trkpt lat="-27.274439" lon="151.290064">
  <ele>343.1</ele>
  <time>2026-09-01T20:02:36Z</time>
  <course>116.25</course>
  <speed>0.0</speed>
  <fix>3d</fix>
</trkpt>
<trkpt lat="-27.274439" lon="151.290064">
  <ele>343.08</ele>
  <time>2026-09-01T20:02:36Z</time>
  <course>10.71</course>
  <speed>0.0</speed>
  <fix>3d</fix>
</trkpt>
<trkpt lat="-27.274439" lon="151.290064">
  <ele>343.08</ele>
  <time>2026-09-01T20:02:36Z</time>
  <course>10.71</course>
  <speed>0.0</speed>
  <fix>3d</fix>
</trkpt>
<trkpt lat="-27.274439" lon="151.290064">
  <ele>343.1</ele>
  <time>2026-09-01T20:02:36Z</time>
  <course>120.15</course>
  <speed>0.0</speed>
  <fix>3d</fix>
</trkpt>
<trkpt lat="-27.274439" lon="151.290064">
  <ele>343.08</ele>
  <time>2026-09-01T20:02:36Z</time>
  <course>10.71</course>
  <speed>0.0</speed>
  <fix>3d</fix>
</trkpt>
<trkpt lat="-27.274439" lon="151.290064">
  <ele>343.08</ele>
  <time>2026-09-01T20:02:36Z</time>
  <course>10.71</course>
  <speed>0.0</speed>
  <fix>3d</fix>
</trkpt>
<trkpt lat="-27.274439" lon="151.290064">
  <ele>343.1</ele>
  <time>2026-09-01T20:02:36Z</time>
  <course>120.15</course>
  <speed>0.0</speed>
  <fix>3d</fix>
</trkpt>
<trkpt lat="-27.274439" lon="151.290064">
  <ele>343.08</ele>
  <time>2026-09-01T20:02:36Z</time>
  <course>10.71</course>
  <speed>0.0</speed>
  <fix>3d</fix>
</trkpt>
<trkpt lat="-27.274439" lon="151.290064">
  <ele>343.08</ele>
  <time>2026-09-01T20:02:36Z</time>
  <course>10.71</course>
  <speed>0.0</speed>
  <fix>3d</fix>
</trkpt>
<trkpt lat="-27.274439" lon="151.290064">
  <ele>343.1</ele>
  <time>2026-09-01T20:02:36Z</time>
  <course>111.11</course>
  <speed>0.0</speed>
  <fix>3d</fix>
</trkpt>
<trkpt lat="-27.274439" lon="151.290064">
  <ele>343.08</ele>
  <time>2026-09-01T20:02:36Z</time>
  <course>10.71</course>
  <speed>0.0</speed>
  <fix>3d</fix>
</trkpt>
<trkpt lat="-27.274439" lon="151.290064">
  <ele>343.08</ele>
  <time>2026-09-01T20:02:36Z</time>
  <course>10.71</course>
  <speed>0.0</speed>
  <fix>3d</fix>
</trkpt>
<trkpt lat="-27.274439" lon="151.290064">
  <ele>343.1</ele>
  <time>2026-09-01T20:02:36Z</time>
  <course>111.11</course>
  <speed>0.0</speed>
  <fix>3d</fix>
</trkpt>
<trkpt lat="-27.274439" lon="151.290064">
  <ele>343.08</ele>
  <time>2026-09-01T20:02:36Z</time>
  <course>10.71</course>
  <speed>0.0</speed>
  <fix>3d</fix>
</trkpt>
<trkpt lat="-27.274439" lon="151.290064">
  <ele>343.08</ele>
  <time>2026-09-01T20:02:36Z</time>
  <course>10.71</course>
  <speed>0.0</speed>
  <fix>3d</fix>
</trkpt>
<trkpt lat="-27.274439" lon="151.290064">
  <ele>343.1</ele>
  <time>2026-09-01T20:02:36Z</time>
  <course>329.57</course>
  <speed>0.0</speed>
  <fix>3d</fix>
</trkpt>
<trkpt lat="-27.274439" lon="151.290064">
  <ele>343.08</ele>
  <time>2026-09-01T20:02:36Z</time>
  <course>10.71</course>
  <speed>0.0</speed>
  <fix>3d</fix>
</trkpt>
<trkpt lat="-27.274439" lon="151.290064">
  <ele>343.08</ele>
  <time>2026-09-01T20:02:36Z</time>
  <course>10.71</course>
  <speed>0.0</speed>
  <fix>3d</fix>
</trkpt>
<trkpt lat="-27.274439" lon="151.290064">
  <ele>343.1</ele>
  <time>2026-09-01T20:02:36Z</time>
  <course>329.57</course>
  <speed>0.0</speed>
  <fix>3d</fix>
</trkpt>
<trkpt lat="-27.274439" lon="151.290064">
  <ele>343.08</ele>
  <time>2026-09-01T20:02:36Z</time>
  <course>10.71</course>
  <speed>0.0</speed>
  <fix>3d</fix>
</trkpt>
<trkpt lat="-27.274439" lon="151.290064">
  <ele>343.08</ele>
  <time>2026-09-01T20:02:36Z</time>
  <course>10.71</course>
  <speed>0.0</speed>
  <fix>3d</fix>
</trkpt>
<trkpt lat="-27.274439" lon="151.290064">
  <ele>343.1</ele>
  <time>2026-09-01T20:02:36Z</time>
  <course>299.13</course>
  <speed>0.0</speed>
  <fix>3d</fix>
</trkpt>
<trkpt lat="-27.274439" lon="151.290064">
  <ele>343.07</ele>
  <time>2026-09-01T20:02:36Z</time>
  <course>10.71</course>
  <speed>0.0</speed>
  <fix>3d</fix>
</trkpt>
<trkpt lat="-27.274439" lon="151.290064">
  <ele>343.08</ele>
  <time>2026-09-01T20:02:36Z</time>
  <course>10.71</course>
  <speed>0.0</speed>
  <fix>3d</fix>
</trkpt>
<trkpt lat="-27.274439" lon="151.290064">
  <ele>343.1</ele>
  <time>2026-09-01T20:02:36Z</time>
  <course>299.13</course>
  <speed>0.0</speed>
  <fix>3d</fix>
</trkpt>
<trkpt lat="-27.274439" lon="151.290064">
  <ele>343.08</ele>
  <time>2026-09-01T20:02:36Z</time>
  <course>10.71</course>
  <speed>0.0</speed>
  <fix>3d</fix>
</trkpt>
<trkpt lat="-27.274439" lon="151.290064">
  <ele>343.09</ele>
  <time>2026-09-01T20:02:36Z</time>
  <course>10.71</course>
  <speed>0.0</speed>
  <fix>3d</fix>
</trkpt>
<trkpt lat="-27.274439" lon="151.290064">
  <ele>343.1</ele>
  <time>2026-09-01T20:02:36Z</time>
  <course>7.42</course>
  <speed>0.0</speed>
  <fix>3d</fix>
</trkpt>
<trkpt lat="-27.274439" lon="151.290064">
  <ele>343.09</ele>
  <time>2026-09-01T20:02:36Z</time>
  <course>10.71</course>
  <speed>0.0</speed>
  <fix>3d</fix>
</trkpt>
<trkpt lat="-27.274439" lon="151.290064">
  <ele>343.12</ele>
  <time>2026-09-01T20:02:36Z</time>
  <course>10.71</course>
  <speed>0.0</speed>
  <fix>3d</fix>
</trkpt>
<trkpt lat="-27.274439" lon="151.290064">
  <ele>343.1</ele>
  <time>2026-09-01T20:02:36Z</time>
  <course>7.42</course>
  <speed>0.0</speed>
  <fix>3d</fix>
</trkpt>
<trkpt lat="-27.274439" lon="151.290064">
  <ele>343.12</ele>
  <time>2026-09-01T20:02:36Z</time>
  <course>10.71</course>
  <speed>0.0</speed>
  <fix>3d</fix>
</trkpt>
<trkpt lat="-27.274439" lon="151.290064">
  <ele>343.16</ele>
  <time>2026-09-01T20:02:36Z</time>
  <course>10.71</course>
  <speed>0.0</speed>
  <fix>3d</fix>
</trkpt>
<trkpt lat="-27.274439" lon="151.290064">
  <ele>343.12</ele>
  <time>2026-09-01T20:02:36Z</time>
  <course>7.92</course>
  <speed>0.0</speed>
  <fix>3d</fix>
</trkpt>
<trkpt lat="-27.274439" lon="151.290064">
  <ele>343.17</ele>
  <time>2026-09-01T20:02:36Z</time>
  <course>10.71</course>
  <speed>0.0</speed>
  <fix>3d</fix>
</trkpt>
<trkpt lat="-27.274439" lon="151.290064">
  <ele>343.21</ele>
  <time>2026-09-01T20:02:36Z</time>
  <course>10.71</course>
  <speed>0.0</speed>
  <fix>3d</fix>
</trkpt>
<trkpt lat="-27.274439" lon="151.290064">
  <ele>343.12</ele>
  <time>2026-09-01T20:02:36Z</time>
  <course>7.92</course>
  <speed>0.0</speed>
  <fix>3d</fix>
</trkpt>
<trkpt lat="-27.274439" lon="151.290064">
  <ele>343.21</ele>
  <time>2026-09-01T20:02:36Z</time>
  <course>10.71</course>
  <speed>0.0</speed>
  <fix>3d</fix>
</trkpt>
<trkpt lat="-27.274439" lon="151.290064">
  <ele>343.32</ele>
  <time>2026-09-01T20:02:36Z</time>
  <course>10.71</course>
  <speed>0.03</speed>
  <fix>3d</fix>
</trkpt>
<trkpt lat="-27.274439" lon="151.290064">
  <ele>343.19</ele>
  <time>2026-09-01T20:02:36Z</time>
  <course>7.25</course>
  <speed>0.0</speed>
  <fix>3d</fix>
</trkpt>
<trkpt lat="-27.274439" lon="151.290064">
  <ele>343.32</ele>
  <time>2026-09-01T20:02:36Z</time>
  <course>10.71</course>
  <speed>0.03</speed>
  <fix>3d</fix>
</trkpt>
<trkpt lat="-27.274439" lon="151.290064">
  <ele>343.49</ele>
  <time>2026-09-01T20:02:36Z</time>
  <course>10.71</course>
  <speed>0.06082762530298219</speed>
  <fix>3d</fix>
</trkpt>
<trkpt lat="-27.274439" lon="151.290064">
  <ele>343.19</ele>
  <time>2026-09-01T20:02:36Z</time>
  <course>7.25</course>
  <speed>0.0</speed>
  <fix>3d</fix>
</trkpt>
<trkpt lat="-27.274439" lon="151.290064">
  <ele>343.54</ele>
  <time>2026-09-01T20:02:36Z</time>
  <course>10.71</course>
  <speed>0.07071067811865475</speed>
  <fix>3d</fix>
</trkpt>
<trkpt lat="-27.2744389" lon="151.290064">
  <ele>343.7</ele>
  <time>2026-09-01T20:02:36Z</time>
  <course>10.71</course>
  <speed>0.09055385138137417</speed>
  <fix>3d</fix>
</trkpt>
<trkpt lat="-27.274439" lon="151.290064">
  <ele>343.38</ele>
  <time>2026-09-01T20:02:36Z</time>
  <course>6.8</course>
  <speed>0.03</speed>
  <fix>3d</fix>
</trkpt>
<trkpt lat="-27.2744389" lon="151.290064">
  <ele>343.76</ele>
  <time>2026-09-01T20:02:36Z</time>
  <course>10.71</course>
  <speed>0.1004987562112089</speed>
  <fix>3d</fix>
</trkpt>
<trkpt lat="-27.2744388" lon="151.290064">
  <ele>343.93</ele>
  <time>2026-09-01T20:02:36Z</time>
  <course>10.71</course>
  <speed>0.13152946437965907</speed>
  <fix>3d</fix>
</trkpt>
<trkpt lat="-27.274439" lon="151.290064">
  <ele>343.38</ele>
  <time>2026-09-01T20:02:36Z</time>
  <course>6.8</course>
  <speed>0.03</speed>
  <fix>3d</fix>
</trkpt>
<trkpt lat="-27.2744388" lon="151.290064">
  <ele>343.99</ele>
  <time>2026-09-01T20:02:36Z</time>
  <course>10.71</course>
  <speed>0.13152946437965907</speed>
  <fix>3d</fix>
</trkpt>
<trkpt lat="-27.2744387" lon="151.290064">
  <ele>344.16</ele>
  <time>2026-09-01T20:02:36Z</time>
  <course>10.7</course>
  <speed>0.15132745950421556</speed>
  <fix>3d</fix>
</trkpt>
<trkpt lat="-27.2744389" lon="151.290064">
  <ele>343.74</ele>
  <time>2026-09-01T20:02:36Z</time>
  <course>6.85</course>
  <speed>0.09</speed>
  <fix>3d</fix>
</trkpt>
<trkpt lat="-27.2744386" lon="151.290064">
  <ele>344.22</ele>
  <time>2026-09-01T20:02:36Z</time>
  <course>10.7</course>
  <speed>0.16124515496597097</speed>
  <fix>3d</fix>
</trkpt>
<trkpt lat="-27.2744385" lon="151.290064">
  <ele>344.39</ele>
  <time>2026-09-01T20:02:36Z</time>
  <course>10.7</course>
  <speed>0.1824828759089466</speed>
  <fix>3d</fix>
</trkpt>
<trkpt lat="-27.2744389" lon="151.290064">
  <ele>343.74</ele>
  <time>2026-09-01T20:02:36Z</time>
  <course>6.85</course>
  <speed>0.09</speed>
  <fix>3d</fix>
</trkpt>
<trkpt lat="-27.2744385" lon="151.2900641">
  <ele>344.44</ele>
  <time>2026-09-01T20:02:36Z</time>
  <course>10.69</course>
  <speed>0.1824828759089466</speed>
  <fix>3d</fix>
</trkpt>
<trkpt lat="-27.2744384" lon="151.2900641">
  <ele>344.62</ele>
  <time>2026-09-01T20:02:36Z</time>
  <course>10.69</course>
  <speed>0.20223748416156684</speed>
  <fix>3d</fix>
</trkpt>
<trkpt lat="-27.2744387" lon="151.290064">
  <ele>344.2</ele>
  <time>2026-09-01T20:02:36Z</time>
  <course>6.96</course>
  <speed>0.16</speed>
  <fix>3d</fix>
</trkpt>
<trkpt lat="-27.2744383" lon="151.2900641">
  <ele>344.68</ele>
  <time>2026-09-01T20:02:36Z</time>
  <course>10.69</course>
  <speed>0.20223748416156684</speed>
  <fix>3d</fix>
</trkpt>
<trkpt lat="-27.2744382" lon="151.2900641">
  <ele>344.85</ele>
  <time>2026-09-01T20:02:36Z</time>
  <course>10.68</course>
  <speed>0.2220360331117452</speed>
  <fix>3d</fix>
</trkpt>
<trkpt lat="-27.2744387" lon="151.290064">
  <ele>344.2</ele>
  <time>2026-09-01T20:02:36Z</time>
  <course>6.96</course>
  <speed>0.16</speed>
  <fix>3d</fix>
</trkpt>
<trkpt lat="-27.2744381" lon="151.2900641">
  <ele>344.91</ele>
  <time>2026-09-01T20:02:36Z</time>
  <course>10.68</course>
  <speed>0.2220360331117452</speed>
  <fix>3d</fix>
</trkpt>
<trkpt lat="-27.274438" lon="151.2900641">
  <ele>345.07</ele>
  <time>2026-09-01T20:02:36Z</time>
  <course>10.66</course>
  <speed>0.23194827009486402</speed>
  <fix>3d</fix>
</trkpt>
<trkpt lat="-27.2744384" lon="151.290064">
  <ele>344.66</ele>
  <time>2026-09-01T20:02:36Z</time>
  <course>7.04</course>
  <speed>0.2</speed>
  <fix>3d</fix>
</trkpt>
<trkpt lat="-27.2744379" lon="151.2900641">
  <ele>345.14</ele>
  <time>2026-09-01T20:02:36Z</time>
  <course>10.66</course>
  <speed>0.23345235059857505</speed>
  <fix>3d</fix>
</trkpt>
<trkpt lat="-27.2744378" lon="151.2900642">
  <ele>345.3</ele>
  <time>2026-09-01T20:02:36Z</time>
  <course>10.66</course>
  <speed>0.24331050121192876</speed>
  <fix>3d</fix>
</trkpt>
<trkpt lat="-27.2744384" lon="151.290064">
  <ele>344.66</ele>
  <time>2026-09-01T20:02:36Z</time>
  <course>7.04</course>
  <speed>0.2</speed>
  <fix>3d</fix>
</trkpt>
<trkpt lat="-27.2744377" lon="151.2900642">
  <ele>345.35</ele>
  <time>2026-09-01T20:02:36Z</time>
  <course>10.66</course>
  <speed>0.24331050121192876</speed>
  <fix>3d</fix>
</trkpt>
<trkpt lat="-27.2744376" lon="151.2900642">
  <ele>345.52</ele>
  <time>2026-09-01T20:02:36Z</time>
  <course>10.66</course>
  <speed>0.24331050121192876</speed>
  <fix>3d</fix>
</trkpt>
<trkpt lat="-27.2744379" lon="151.2900641">
  <ele>345.12</ele>
  <time>2026-09-01T20:02:36Z</time>
  <course>7.15</course>
  <speed>0.24</speed>
  <fix>3d</fix>
</trkpt>
<trkpt lat="-27.2744375" lon="151.2900642">
  <ele>345.53</ele>
  <time>2026-09-01T20:02:36Z</time>
  <course>10.66</course>
  <speed>0.24331050121192876</speed>
  <fix>3d</fix>
</trkpt>
<trkpt lat="-27.2744373" lon="151.2900642">
  <ele>345.73</ele>
  <time>2026-09-01T20:02:36Z</time>
  <course>10.66</course>
  <speed>0.24331050121192876</speed>
  <fix>3d</fix>
</trkpt>
<trkpt lat="-27.2744379" lon="151.2900641">
  <ele>345.12</ele>
  <time>2026-09-01T20:02:36Z</time>
  <course>7.15</course>
  <speed>0.24</speed>
  <fix>3d</fix>
</trkpt>
<trkpt lat="-27.2744373" lon="151.2900642">
  <ele>345.73</ele>
  <time>2026-09-01T20:02:36Z</time>
  <course>10.66</course>
  <speed>0.24331050121192876</speed>
  <fix>3d</fix>
</trkpt>
<trkpt lat="-27.2744371" lon="151.2900642">
  <ele>345.92</ele>
  <time>2026-09-01T20:02:36Z</time>
  <course>10.66</course>
  <speed>0.24186773244895649</speed>
  <fix>3d</fix>
</trkpt>
<trkpt lat="-27.2744375" lon="151.2900641">
  <ele>345.56</ele>
  <time>2026-09-01T20:02:36Z</time>
  <course>7.29</course>
  <speed>0.25</speed>
  <fix>3d</fix>
</trkpt>
<trkpt lat="-27.2744371" lon="151.2900642">
  <ele>345.97</ele>
  <time>2026-09-01T20:02:36Z</time>
  <course>10.66</course>
  <speed>0.24186773244895649</speed>
  <fix>3d</fix>
</trkpt>
<trkpt lat="-27.2744369" lon="151.2900643">
  <ele>346.11</ele>
  <time>2026-09-01T20:02:36Z</time>
  <course>10.66</course>
  <speed>0.23194827009486402</speed>
  <fix>3d</fix>
</trkpt>
<trkpt lat="-27.2744375" lon="151.2900641">
  <ele>345.56</ele>
  <time>2026-09-01T20:02:36Z</time>
  <course>7.29</course>
  <speed>0.25</speed>
  <fix>3d</fix>
</trkpt>
<trkpt lat="-27.2744369" lon="151.2900643">
  <ele>346.15</ele>
  <time>2026-09-01T20:02:36Z</time>
  <course>10.66</course>
  <speed>0.23194827009486402</speed>
  <fix>3d</fix>
</trkpt>
<trkpt lat="-27.2744367" lon="151.2900643">
  <ele>346.29</ele>
  <time>2026-09-01T20:02:36Z</time>
  <course>10.66</course>
  <speed>0.2220360331117452</speed>
  <fix>3d</fix>
</trkpt>
<trkpt lat="-27.2744371" lon="151.2900642">
  <ele>345.96</ele>
  <time>2026-09-01T20:02:36Z</time>
  <course>7.47</course>
  <speed>0.25</speed>
  <fix>3d</fix>
</trkpt>
<trkpt lat="-27.2744366" lon="151.2900643">
  <ele>346.33</ele>
  <time>2026-09-01T20:02:36Z</time>
  <course>10.66</course>
  <speed>0.2220360331117452</speed>
  <fix>3d</fix>
</trkpt>
<trkpt lat="-27.2744365" lon="151.2900643">
  <ele>346.45</ele>
  <time>2026-09-01T20:02:36Z</time>
  <course>10.66</course>
  <speed>0.20223748416156684</speed>
  <fix>3d</fix>
</trkpt>
<trkpt lat="-27.2744371" lon="151.2900642">
  <ele>345.96</ele>
  <time>2026-09-01T20:02:36Z</time>
  <course>7.47</course>
  <speed>0.25</speed>
  <fix>3d</fix>
</trkpt>
<trkpt lat="-27.2744365" lon="151.2900643">
  <ele>346.5</ele>
  <time>2026-09-01T20:02:36Z</time>
  <course>10.66</course>
  <speed>0.20223748416156684</speed>
  <fix>3d</fix>
</trkpt>
<trkpt lat="-27.2744363" lon="151.2900643">
  <ele>346.61</ele>
  <time>2026-09-01T20:02:36Z</time>
  <course>10.67</course>
  <speed>0.191049731745428</speed>
  <fix>3d</fix>
</trkpt>
<trkpt lat="-27.2744367" lon="151.2900642">
  <ele>346.32</ele>
  <time>2026-09-01T20:02:36Z</time>
  <course>7.71</course>
  <speed>0.23</speed>
  <fix>3d</fix>
</trkpt>
<trkpt lat="-27.2744363" lon="151.2900643">
  <ele>346.65</ele>
  <time>2026-09-01T20:02:36Z</time>
  <course>10.67</course>
  <speed>0.18110770276274835</speed>
  <fix>3d</fix>
</trkpt>
<trkpt lat="-27.2744362" lon="151.2900643">
  <ele>346.76</ele>
  <time>2026-09-01T20:02:36Z</time>
  <course>10.67</course>
  <speed>0.1711724276862369</speed>
  <fix>3d</fix>
</trkpt>
<trkpt lat="-27.2744367" lon="151.2900642">
  <ele>346.32</ele>
  <time>2026-09-01T20:02:36Z</time>
  <course>7.71</course>
  <speed>0.23</speed>
  <fix>3d</fix>
</trkpt>
<trkpt lat="-27.2744361" lon="151.2900643">
  <ele>346.8</ele>
  <time>2026-09-01T20:02:36Z</time>
  <course>10.67</course>
  <speed>0.16124515496597097</speed>
  <fix>3d</fix>
</trkpt>
<trkpt lat="-27.274436" lon="151.2900644">
  <ele>346.91</ele>
  <time>2026-09-01T20:02:36Z</time>
  <course>10.68</course>
  <speed>0.15132745950421556</speed>
  <fix>3d</fix>
</trkpt>
<trkpt lat="-27.2744363" lon="151.2900643">
  <ele>346.64</ele>
  <time>2026-09-01T20:02:36Z</time>
  <course>8.1</course>
  <speed>0.2</speed>
  <fix>3d</fix>
</trkpt>
<trkpt lat="-27.274436" lon="151.2900644">
  <ele>346.95</ele>
  <time>2026-09-01T20:02:36Z</time>
  <course>10.68</course>
  <speed>0.1414213562373095</speed>
  <fix>3d</fix>
</trkpt>
<trkpt lat="-27.2744359" lon="151.2900644">
  <ele>347.05</ele>
  <time>2026-09-01T20:02:36Z</time>
  <course>10.69</course>
  <speed>0.130384048104053</speed>
  <fix>3d</fix>
</trkpt>
<trkpt lat="-27.2744363" lon="151.2900643">
  <ele>346.64</ele>
  <time>2026-09-01T20:02:36Z</time>
  <course>8.1</course>
  <speed>0.2</speed>
  <fix>3d</fix>
</trkpt>
<trkpt lat="-27.2744359" lon="151.2900644">
  <ele>347.08</ele>
  <time>2026-09-01T20:02:36Z</time>
  <course>10.69</course>
  <speed>0.12041594578792296</speed>
  <fix>3d</fix>
</trkpt>
<trkpt lat="-27.2744358" lon="151.2900644">
  <ele>347.19</ele>
  <time>2026-09-01T20:02:36Z</time>
  <course>10.7</course>
  <speed>0.1004987562112089</speed>
  <fix>3d</fix>
</trkpt>
<trkpt lat="-27.2744359" lon="151.2900644">
  <ele>346.93</ele>
  <time>2026-09-01T20:02:36Z</time>
  <course>8.82</course>
  <speed>0.16</speed>
  <fix>3d</fix>
</trkpt>
<trkpt lat="-27.2744357" lon="151.2900644">
  <ele>347.22</ele>
  <time>2026-09-01T20:02:36Z</time>
  <course>10.7</course>
  <speed>0.1004987562112089</speed>
  <fix>3d</fix>
</trkpt>
<trkpt lat="-27.2744357" lon="151.2900644">
  <ele>347.32</ele>
  <time>2026-09-01T20:02:36Z</time>
  <course>10.7</course>
  <speed>0.08062257748298549</speed>
  <fix>3d</fix>
</trkpt>
<trkpt lat="-27.2744359" lon="151.2900644">
  <ele>346.93</ele>
  <time>2026-09-01T20:02:36Z</time>
  <course>8.82</course>
  <speed>0.16</speed>
  <fix>3d</fix>
</trkpt>
<trkpt lat="-27.2744357" lon="151.2900644">
  <ele>347.33</ele>
  <time>2026-09-01T20:02:36Z</time>
  <course>10.7</course>
  <speed>0.08062257748298549</speed>
  <fix>3d</fix>
</trkpt>
<trkpt lat="-27.2744356" lon="151.2900644">
  <ele>347.46</ele>
  <time>2026-09-01T20:02:36Z</time>
  <course>10.71</course>
  <speed>0.06</speed>
  <fix>3d</fix>
</trkpt>
<trkpt lat="-27.2744357" lon="151.2900644">
  <ele>347.2</ele>
  <time>2026-09-01T20:02:36Z</time>
  <course>10.23</course>
  <speed>0.12</speed>
  <fix>3d</fix>
</trkpt>
<trkpt lat="-27.2744356" lon="151.2900644">
  <ele>347.46</ele>
  <time>2026-09-01T20:02:36Z</time>
  <course>10.71</course>
  <speed>0.06</speed>
  <fix>3d</fix>
</trkpt>
<trkpt lat="-27.2744355" lon="151.2900644">
  <ele>347.59</ele>
  <time>2026-09-01T20:02:36Z</time>
  <course>10.72</course>
  <speed>0.04</speed>
  <fix>3d</fix>
</trkpt>
<trkpt lat="-27.2744357" lon="151.2900644">
  <ele>347.2</ele>
  <time>2026-09-01T20:02:36Z</time>
  <course>10.23</course>
  <speed>0.12</speed>
  <fix>3d</fix>
</trkpt>
<trkpt lat="-27.2744355" lon="151.2900644">
  <ele>347.63</ele>
  <time>2026-09-01T20:02:36Z</time>
  <course>10.72</course>
  <speed>0.03</speed>
  <fix>3d</fix>
</trkpt>
<trkpt lat="-27.2744355" lon="151.2900644">
  <ele>347.72</ele>
  <time>2026-09-01T20:02:36Z</time>
  <course>10.73</course>
  <speed>0.02</speed>
  <fix>3d</fix>
</trkpt>
<trkpt lat="-27.2744355" lon="151.2900645">
  <ele>347.46</ele>
  <time>2026-09-01T20:02:36Z</time>
  <course>13.35</course>
  <speed>0.07</speed>
  <fix>3d</fix>
</trkpt>
<trkpt lat="-27.2744355" lon="151.2900644">
  <ele>347.76</ele>
  <time>2026-09-01T20:02:36Z</time>
  <course>10.73</course>
  <speed>0.01</speed>
  <fix>3d</fix>
</trkpt>
<trkpt lat="-27.2744355" lon="151.2900644">
  <ele>347.85</ele>
  <time>2026-09-01T20:02:36Z</time>
  <course>10.74</course>
  <speed>0.0</speed>
  <fix>3d</fix>
</trkpt>
<trkpt lat="-27.2744355" lon="151.2900645">
  <ele>347.46</ele>
  <time>2026-09-01T20:02:36Z</time>
  <course>13.35</course>
  <speed>0.07</speed>
  <fix>3d</fix>
</trkpt>
<trkpt lat="-27.2744355" lon="151.2900644">
  <ele>347.86</ele>
  <time>2026-09-01T20:02:36Z</time>
  <course>10.74</course>
  <speed>0.0</speed>
  <fix>3d</fix>
</trkpt>
<trkpt lat="-27.2744355" lon="151.2900644">
  <ele>347.98</ele>
  <time>2026-09-01T20:02:36Z</time>
  <course>10.76</course>
  <speed>0.01</speed>
  <fix>3d</fix>
</trkpt>
<trkpt lat="-27.2744354" lon="151.2900645">
  <ele>347.72</ele>
  <time>2026-09-01T20:02:36Z</time>
  <course>24.03</course>
  <speed>0.03</speed>
  <fix>3d</fix>
</trkpt>
<trkpt lat="-27.2744355" lon="151.2900644">
  <ele>348.02</ele>
  <time>2026-09-01T20:02:36Z</time>
  <course>10.77</course>
  <speed>0.02</speed>
  <fix>3d</fix>
</trkpt>
<trkpt lat="-27.2744355" lon="151.2900645">
  <ele>348.12</ele>
  <time>2026-09-01T20:02:36Z</time>
  <course>10.8</course>
  <speed>0.03</speed>
  <fix>3d</fix>
</trkpt>
<trkpt lat="-27.2744354" lon="151.2900645">
  <ele>347.72</ele>
  <time>2026-09-01T20:02:36Z</time>
  <course>24.03</course>
  <speed>0.03</speed>
  <fix>3d</fix>
</trkpt>
<trkpt lat="-27.2744355" lon="151.2900645">
  <ele>348.15</ele>
  <time>2026-09-01T20:02:36Z</time>
  <course>10.82</course>
  <speed>0.03</speed>
  <fix>3d</fix>
</trkpt>
<trkpt lat="-27.2744355" lon="151.2900645">
  <ele>348.25</ele>
  <time>2026-09-01T20:02:36Z</time>
  <course>10.88</course>
  <speed>0.0412310562561766</speed>
  <fix>3d</fix>
</trkpt>
<trkpt lat="-27.2744354" lon="151.2900645">
  <ele>347.97</ele>
  <time>2026-09-01T20:02:36Z</time>
  <course>147.92</course>
  <speed>0.01</speed>
  <fix>3d</fix>
</trkpt>
<trkpt lat="-27.2744355" lon="151.2900645">
  <ele>348.29</ele>
  <time>2026-09-01T20:02:36Z</time>
  <course>10.91</course>
  <speed>0.05099019513592785</speed>
  <fix>3d</fix>
</trkpt>
<trkpt lat="-27.2744355" lon="151.2900645">
  <ele>348.39</ele>
  <time>2026-09-01T20:02:36Z</time>
  <course>10.99</course>
  <speed>0.06082762530298219</speed>
  <fix>3d</fix>
</trkpt>
<trkpt lat="-27.2744354" lon="151.2900645">
  <ele>347.97</ele>
  <time>2026-09-01T20:02:36Z</time>
  <course>147.92</course>
  <speed>0.01</speed>
  <fix>3d</fix>
</trkpt>
<trkpt lat="-27.2744355" lon="151.2900645">
  <ele>348.42</ele>
  <time>2026-09-01T20:02:36Z</time>
  <course>11.01</course>
  <speed>0.06082762530298219</speed>
  <fix>3d</fix>
</trkpt>
<trkpt lat="-27.2744355" lon="151.2900645">
  <ele>348.53</ele>
  <time>2026-09-01T20:02:36Z</time>
  <course>11.04</course>
  <speed>0.07071067811865475</speed>
  <fix>3d</fix>
</trkpt>
<trkpt lat="-27.2744354" lon="151.2900645">
  <ele>348.24</ele>
  <time>2026-09-01T20:02:36Z</time>
  <course>181.61</course>
  <speed>0.04</speed>
  <fix>3d</fix>
</trkpt>
<trkpt lat="-27.2744355" lon="151.2900645">
  <ele>348.56</ele>
  <time>2026-09-01T20:02:36Z</time>
  <course>11.04</course>
  <speed>0.08062257748298549</speed>
  <fix>3d</fix>
</trkpt>
<trkpt lat="-27.2744356" lon="151.2900645">
  <ele>348.67</ele>
  <time>2026-09-01T20:02:36Z</time>
  <course>11.04</course>
  <speed>0.08062257748298549</speed>
  <fix>3d</fix>
</trkpt>
<trkpt lat="-27.2744354" lon="151.2900645">
  <ele>348.24</ele>
  <time>2026-09-01T20:02:37Z</time>
  <course>181.61</course>
  <speed>0.04</speed>
  <fix>3d</fix>
</trkpt>
<trkpt lat="-27.2744356" lon="151.2900645">
  <ele>348.71</ele>
  <time>2026-09-01T20:02:37Z</time>
  <course>11.04</course>
  <speed>0.09055385138137417</speed>
  <fix>3d</fix>
</trkpt>
<trkpt lat="-27.2744357" lon="151.2900645">
  <ele>348.81</ele>
  <time>2026-09-01T20:02:37Z</time>
  <course>11.02</course>
  <speed>0.09055385138137417</speed>
  <fix>3d</fix>
</trkpt>
<trkpt lat="-27.2744355" lon="151.2900645">
  <ele>348.52</ele>
  <time>2026-09-01T20:02:37Z</time>
  <course>186.07</course>
  <speed>0.07</speed>
  <fix>3d</fix>
</trkpt>
<trkpt lat="-27.2744357" lon="151.2900645">
  <ele>348.81</ele>
  <time>2026-09-01T20:02:37Z</time>
  <course>11.02</course>
  <speed>0.09055385138137417</speed>
  <fix>3d</fix>
</trkpt>
<trkpt lat="-27.2744357" lon="151.2900645">
  <ele>348.95</ele>
  <time>2026-09-01T20:02:37Z</time>
  <course>10.98</course>
  <speed>0.1004987562112089</speed>
  <fix>3d</fix>
</trkpt>
<trkpt lat="-27.2744355" lon="151.2900645">
  <ele>348.52</ele>
  <time>2026-09-01T20:02:37Z</time>
  <course>186.07</course>
  <speed>0.07</speed>
  <fix>3d</fix>
</trkpt>
<trkpt lat="-27.2744358" lon="151.2900645">
  <ele>348.96</ele>
  <time>2026-09-01T20:02:37Z</time>
  <course>10.98</course>
  <speed>0.1004987562112089</speed>
  <fix>3d</fix>
</trkpt>
<trkpt lat="-27.2744358" lon="151.2900645">
  <ele>349.09</ele>
  <time>2026-09-01T20:02:37Z</time>
  <course>10.93</course>
  <speed>0.1118033988749895</speed>
  <fix>3d</fix>
</trkpt>
<trkpt lat="-27.2744355" lon="151.2900645">
  <ele>348.8</ele>
  <time>2026-09-01T20:02:37Z</time>
  <course>186.55</course>
  <speed>0.09</speed>
  <fix>3d</fix>
</trkpt>
<trkpt lat="-27.2744359" lon="151.2900645">
  <ele>349.13</ele>
  <time>2026-09-01T20:02:37Z</time>
  <course>10.92</course>
  <speed>0.1118033988749895</speed>
  <fix>3d</fix>
</trkpt>
<trkpt lat="-27.2744359" lon="151.2900645">
  <ele>349.24</ele>
  <time>2026-09-01T20:02:37Z</time>
  <course>10.88</course>
  <speed>0.1118033988749895</speed>
  <fix>3d</fix>
</trkpt>
<trkpt lat="-27.2744355" lon="151.2900645">
  <ele>348.8</ele>
  <time>2026-09-01T20:02:37Z</time>
  <course>186.55</course>
  <speed>0.09</speed>
  <fix>3d</fix>
</trkpt>
<trkpt lat="-27.2744359" lon="151.2900644">
  <ele>349.27</ele>
  <time>2026-09-01T20:02:37Z</time>
  <course>10.87</course>
  <speed>0.1118033988749895</speed>
  <fix>3d</fix>
</trkpt>
<trkpt lat="-27.274436" lon="151.2900644">
  <ele>349.38</ele>
  <time>2026-09-01T20:02:37Z</time>
  <course>10.85</course>
  <speed>0.12165525060596438</speed>
  <fix>3d</fix>
</trkpt>
<trkpt lat="-27.2744358" lon="151.2900645">
  <ele>349.08</ele>
  <time>2026-09-01T20:02:37Z</time>
  <course>186.71</course>
  <speed>0.11</speed>
  <fix>3d</fix>
</trkpt>
<trkpt lat="-27.274436" lon="151.2900644">
  <ele>349.42</ele>
  <time>2026-09-01T20:02:37Z</time>
  <course>10.85</course>
  <speed>0.12165525060596438</speed>
  <fix>3d</fix>
</trkpt>
<trkpt lat="-27.2744361" lon="151.2900644">
  <ele>349.52</ele>
  <time>2026-09-01T20:02:37Z</time>
  <course>10.83</course>
  <speed>0.12165525060596438</speed>
  <fix>3d</fix>
</trkpt>
<trkpt lat="-27.2744358" lon="151.2900645">
  <ele>349.08</ele>
  <time>2026-09-01T20:02:37Z</time>
  <course>186.71</course>
  <speed>0.11</speed>
  <fix>3d</fix>
</trkpt>
<trkpt lat="-27.2744361" lon="151.2900644">
  <ele>349.56</ele>
  <time>2026-09-01T20:02:37Z</time>
  <course>10.83</course>
  <speed>0.12165525060596438</speed>
  <fix>3d</fix>
</trkpt>
<trkpt lat="-27.2744362" lon="151.2900644">
  <ele>349.67</ele>
  <time>2026-09-01T20:02:37Z</time>
  <course>10.82</course>
  <speed>0.12165525060596438</speed>
  <fix>3d</fix>
</trkpt>
<trkpt lat="-27.274436" lon="151.2900645">
  <ele>349.38</ele>
  <time>2026-09-01T20:02:37Z</time>
  <course>186.83</course>
  <speed>0.12</speed>
  <fix>3d</fix>
</trkpt>
<trkpt lat="-27.2744363" lon="151.2900644">
  <ele>349.71</ele>
  <time>2026-09-01T20:02:37Z</time>
  <course>10.82</course>
  <speed>0.13152946437965907</speed>
  <fix>3d</fix>
</trkpt>
<trkpt lat="-27.2744363" lon="151.2900644">
  <ele>349.81</ele>
  <time>2026-09-01T20:02:37Z</time>
  <course>10.82</course>
  <speed>0.13152946437965907</speed>
  <fix>3d</fix>
</trkpt>
<trkpt lat="-27.274436" lon="151.2900645">
  <ele>349.38</ele>
  <time>2026-09-01T20:02:37Z</time>
  <course>186.83</course>
  <speed>0.12</speed>
  <fix>3d</fix>
</trkpt>
<trkpt lat="-27.2744364" lon="151.2900644">
  <ele>349.85</ele>
  <time>2026-09-01T20:02:37Z</time>
  <course>10.82</course>
  <speed>0.13152946437965907</speed>
  <fix>3d</fix>
</trkpt>
<trkpt lat="-27.2744365" lon="151.2900644">
  <ele>349.96</ele>
  <time>2026-09-01T20:02:37Z</time>
  <course>10.82</course>
  <speed>0.13152946437965907</speed>
  <fix>3d</fix>
</trkpt>
<trkpt lat="-27.2744363" lon="151.2900645">
  <ele>349.67</ele>
  <time>2026-09-01T20:02:37Z</time>
  <course>187.22</course>
  <speed>0.13</speed>
  <fix>3d</fix>
</trkpt>
<trkpt lat="-27.2744365" lon="151.2900644">
  <ele>350.0</ele>
  <time>2026-09-01T20:02:37Z</time>
  <course>10.81</course>
  <speed>0.13152946437965907</speed>
  <fix>3d</fix>
</trkpt>
<trkpt lat="-27.2744366" lon="151.2900644">
  <ele>350.11</ele>
  <time>2026-09-01T20:02:37Z</time>
  <course>10.82</course>
  <speed>0.13152946437965907</speed>
  <fix>3d</fix>
</trkpt>
<trkpt lat="-27.2744363" lon="151.2900645">
  <ele>349.67</ele>
  <time>2026-09-01T20:02:37Z</time>
  <course>187.22</course>
  <speed>0.13</speed>
  <fix>3d</fix>
</trkpt>
<trkpt lat="-27.2744366" lon="151.2900644">
  <ele>350.14</ele>
  <time>2026-09-01T20:02:37Z</time>
  <course>10.82</course>
  <speed>0.13152946437965907</speed>
  <fix>3d</fix>
</trkpt>
<trkpt lat="-27.2744367" lon="151.2900644">
  <ele>350.25</ele>
  <time>2026-09-01T20:02:37Z</time>
  <course>10.82</course>
  <speed>0.13152946437965907</speed>
  <fix>3d</fix>
</trkpt>
<trkpt lat="-27.2744365" lon="151.2900645">
  <ele>349.96</ele>
  <time>2026-09-01T20:02:37Z</time>
  <course>187.46</course>
  <speed>0.14</speed>
  <fix>3d</fix>
</trkpt>
<trkpt lat="-27.2744367" lon="151.2900644">
  <ele>350.29</ele>
  <time>2026-09-01T20:02:37Z</time>
  <course>10.82</course>
  <speed>0.130384048104053</speed>
  <fix>3d</fix>
</trkpt>
<trkpt lat="-27.2744368" lon="151.2900644">
  <ele>350.4</ele>
  <time>2026-09-01T20:02:37Z</time>
  <course>10.81</course>
  <speed>0.130384048104053</speed>
  <fix>3d</fix>
</trkpt>
<trkpt lat="-27.2744365" lon="151.2900645">
  <ele>349.96</ele>
  <time>2026-09-01T20:02:37Z</time>
  <course>187.46</course>
  <speed>0.14</speed>
  <fix>3d</fix>
</trkpt>
<trkpt lat="-27.2744368" lon="151.2900644">
  <ele>350.41</ele>
  <time>2026-09-01T20:02:37Z</time>
  <course>10.81</course>
  <speed>0.140356688476182</speed>
  <fix>3d</fix>
</trkpt>
<trkpt lat="-27.2744369" lon="151.2900644">
  <ele>350.55</ele>
  <time>2026-09-01T20:02:37Z</time>
  <course>10.8</course>
  <speed>0.140356688476182</speed>
  <fix>3d</fix>
</trkpt>
<trkpt lat="-27.2744367" lon="151.2900644">
  <ele>350.26</ele>
  <time>2026-09-01T20:02:37Z</time>
  <course>187.54</course>
  <speed>0.14</speed>
  <fix>3d</fix>
</trkpt>
<trkpt lat="-27.274437" lon="151.2900644">
  <ele>350.55</ele>
  <time>2026-09-01T20:02:37Z</time>
  <course>10.8</course>
  <speed>0.140356688476182</speed>
  <fix>3d</fix>
</trkpt>
<trkpt lat="-27.2744371" lon="151.2900644">
  <ele>350.7</ele>
  <time>2026-09-01T20:02:37Z</time>
  <course>10.78</course>
  <speed>0.130384048104053</speed>
  <fix>3d</fix>
</trkpt>
<trkpt lat="-27.2744367" lon="151.2900644">
  <ele>350.26</ele>
  <time>2026-09-01T20:02:37Z</time>
  <course>187.54</course>
  <speed>0.14</speed>
  <fix>3d</fix>
</trkpt>
<trkpt lat="-27.2744371" lon="151.2900644">
  <ele>350.73</ele>
  <time>2026-09-01T20:02:37Z</time>
  <course>10.78</course>
  <speed>0.130384048104053</speed>
  <fix>3d</fix>
</trkpt>
<trkpt lat="-27.2744372" lon="151.2900644">
  <ele>350.85</ele>
  <time>2026-09-01T20:02:37Z</time>
  <course>10.76</course>
  <speed>0.130384048104053</speed>
  <fix>3d</fix>
</trkpt>
<trkpt lat="-27.274437" lon="151.2900644">
  <ele>350.55</ele>
  <time>2026-09-01T20:02:37Z</time>
  <course>187.66</course>
  <speed>0.14</speed>
  <fix>3d</fix>
</trkpt>
<trkpt lat="-27.2744372" lon="151.2900644">
  <ele>350.89</ele>
  <time>2026-09-01T20:02:37Z</time>
  <course>10.75</course>
  <speed>0.130384048104053</speed>
  <fix>3d</fix>
</trkpt>
<trkpt lat="-27.2744373" lon="151.2900644">
  <ele>350.99</ele>
  <time>2026-09-01T20:02:37Z</time>
  <course>10.73</course>
  <speed>0.13</speed>
  <fix>3d</fix>
</trkpt>
<trkpt lat="-27.274437" lon="151.2900644">
  <ele>350.55</ele>
  <time>2026-09-01T20:02:37Z</time>
  <course>187.66</course>
  <speed>0.14</speed>
  <fix>3d</fix>
</trkpt>
<trkpt lat="-27.2744373" lon="151.2900644">
  <ele>351.03</ele>
  <time>2026-09-01T20:02:37Z</time>
  <course>10.73</course>
  <speed>0.130384048104053</speed>
  <fix>3d</fix>
</trkpt>
<trkpt lat="-27.2744374" lon="151.2900644">
  <ele>351.14</ele>
  <time>2026-09-01T20:02:37Z</time>
  <course>10.71</course>
  <speed>0.13</speed>
  <fix>3d</fix>
</trkpt>
<trkpt lat="-27.2744373" lon="151.2900644">
  <ele>350.84</ele>
  <time>2026-09-01T20:02:37Z</time>
  <course>187.87</course>
  <speed>0.14</speed>
  <fix>3d</fix>
</trkpt>
<trkpt lat="-27.2744375" lon="151.2900644">
  <ele>351.18</ele>
  <time>2026-09-01T20:02:37Z</time>
  <course>10.7</course>
  <speed>0.13</speed>
  <fix>3d</fix>
</trkpt>
<trkpt lat="-27.2744376" lon="151.2900644">
  <ele>351.28</ele>
  <time>2026-09-01T20:02:37Z</time>
  <course>10.68</course>
  <speed>0.13</speed>
  <fix>3d</fix>
</trkpt>
<trkpt lat="-27.2744373" lon="151.2900644">
  <ele>350.84</ele>
  <time>2026-09-01T20:02:37Z</time>
  <course>187.87</course>
  <speed>0.14</speed>
  <fix>3d</fix>
</trkpt>
<trkpt lat="-27.2744376" lon="151.2900643">
  <ele>351.32</ele>
  <time>2026-09-01T20:02:37Z</time>
  <course>10.68</course>
  <speed>0.130384048104053</speed>
  <fix>3d</fix>
</trkpt>
<trkpt lat="-27.2744377" lon="151.2900643">
  <ele>351.43</ele>
  <time>2026-09-01T20:02:37Z</time>
  <course>10.65</course>
  <speed>0.130384048104053</speed>
  <fix>3d</fix>
</trkpt>
<trkpt lat="-27.2744375" lon="151.2900643">
  <ele>351.13</ele>
  <time>2026-09-01T20:02:37Z</time>
  <course>188.22</course>
  <speed>0.14</speed>
  <fix>3d</fix>
</trkpt>
<trkpt lat="-27.2744377" lon="151.2900643">
  <ele>351.43</ele>
  <time>2026-09-01T20:02:37Z</time>
  <course>10.65</course>
  <speed>0.130384048104053</speed>
  <fix>3d</fix>
</trkpt>
<trkpt lat="-27.2744378" lon="151.2900643">
  <ele>351.57</ele>
  <time>2026-09-01T20:02:37Z</time>
  <course>10.61</course>
  <speed>0.130384048104053</speed>
  <fix>3d</fix>
</trkpt>
<trkpt lat="-27.2744375" lon="151.2900643">
  <ele>351.13</ele>
  <time>2026-09-01T20:02:37Z</time>
  <course>188.22</course>
  <speed>0.14</speed>
  <fix>3d</fix>
</trkpt>
<trkpt lat="-27.2744378" lon="151.2900643">
  <ele>351.58</ele>
  <time>2026-09-01T20:02:37Z</time>
  <course>10.61</course>
  <speed>0.130384048104053</speed>
  <fix>3d</fix>
</trkpt>
<trkpt lat="-27.2744379" lon="151.2900643">
  <ele>351.71</ele>
  <time>2026-09-01T20:02:37Z</time>
  <course>10.58</course>
  <speed>0.13</speed>
  <fix>3d</fix>
</trkpt>
<trkpt lat="-27.2744378" lon="151.2900642">
  <ele>351.42</ele>
  <time>2026-09-01T20:02:37Z</time>
  <course>188.38</course>
  <speed>0.13</speed>
  <fix>3d</fix>
</trkpt>
<trkpt lat="-27.274438" lon="151.2900643">
  <ele>351.75</ele>
  <time>2026-09-01T20:02:37Z</time>
  <course>10.58</course>
  <speed>0.13</speed>
  <fix>3d</fix>
</trkpt>
<trkpt lat="-27.2744381" lon="151.2900643">
  <ele>351.86</ele>
  <time>2026-09-01T20:02:37Z</time>
  <course>10.57</course>
  <speed>0.12</speed>
  <fix>3d</fix>
</trkpt>
<trkpt lat="-27.2744378" lon="151.2900642">
  <ele>351.42</ele>
  <time>2026-09-01T20:02:37Z</time>
  <course>188.38</course>
  <speed>0.13</speed>
  <fix>3d</fix>
</trkpt>
<trkpt lat="-27.2744381" lon="151.2900643">
  <ele>351.89</ele>
  <time>2026-09-01T20:02:37Z</time>
  <course>10.57</course>
  <speed>0.12</speed>
  <fix>3d</fix>
</trkpt>
<trkpt lat="-27.2744382" lon="151.2900643">
  <ele>352.0</ele>
  <time>2026-09-01T20:02:37Z</time>
  <course>10.57</course>
  <speed>0.12</speed>
  <fix>3d</fix>
</trkpt>
<trkpt lat="-27.274438" lon="151.2900642">
  <ele>351.71</ele>
  <time>2026-09-01T20:02:37Z</time>
  <course>188.33</course>
  <speed>0.13</speed>
  <fix>3d</fix>
</trkpt>
<trkpt lat="-27.2744382" lon="151.2900643">
  <ele>352.0</ele>
  <time>2026-09-01T20:02:37Z</time>
  <course>10.57</course>
  <speed>0.12</speed>
  <fix>3d</fix>
</trkpt>
<trkpt lat="-27.2744383" lon="151.2900643">
  <ele>352.14</ele>
  <time>2026-09-01T20:02:37Z</time>
  <course>10.58</course>
  <speed>0.12</speed>
  <fix>3d</fix>
</trkpt>
<trkpt lat="-27.274438" lon="151.2900642">
  <ele>351.71</ele>
  <time>2026-09-01T20:02:37Z</time>
  <course>188.33</course>
  <speed>0.13</speed>
  <fix>3d</fix>
</trkpt>
<trkpt lat="-27.2744383" lon="151.2900643">
  <ele>352.15</ele>
  <time>2026-09-01T20:02:37Z</time>
  <course>10.58</course>
  <speed>0.12</speed>
  <fix>3d</fix>
</trkpt>
<trkpt lat="-27.2744384" lon="151.2900643">
  <ele>352.28</ele>
  <time>2026-09-01T20:02:37Z</time>
  <course>10.58</course>
  <speed>0.11</speed>
  <fix>3d</fix>
</trkpt>
<trkpt lat="-27.2744383" lon="151.2900642">
  <ele>351.99</ele>
  <time>2026-09-01T20:02:37Z</time>
  <course>188.58</course>
  <speed>0.12</speed>
  <fix>3d</fix>
</trkpt>
<trkpt lat="-27.2744384" lon="151.2900643">
  <ele>352.32</ele>
  <time>2026-09-01T20:02:37Z</time>
  <course>10.57</course>
  <speed>0.11</speed>
  <fix>3d</fix>
</trkpt>
<trkpt lat="-27.2744385" lon="151.2900642">
  <ele>352.43</ele>
  <time>2026-09-01T20:02:37Z</time>
  <course>10.55</course>
  <speed>0.11</speed>
  <fix>3d</fix>
</trkpt>
<trkpt lat="-27.2744383" lon="151.2900642">
  <ele>351.99</ele>
  <time>2026-09-01T20:02:37Z</time>
  <course>188.58</course>
  <speed>0.12</speed>
  <fix>3d</fix>
</trkpt>
<trkpt lat="-27.2744385" lon="151.2900642">
  <ele>352.46</ele>
  <time>2026-09-01T20:02:37Z</time>
  <course>10.55</course>
  <speed>0.11</speed>
  <fix>3d</fix>
</trkpt>
<trkpt lat="-27.2744386" lon="151.2900642">
  <ele>352.57</ele>
  <time>2026-09-01T20:02:37Z</time>
  <course>10.52</course>
  <speed>0.11</speed>
  <fix>3d</fix>
</trkpt>
<trkpt lat="-27.2744385" lon="151.2900642">
  <ele>352.28</ele>
  <time>2026-09-01T20:02:37Z</time>
  <course>189.06</course>
  <speed>0.12</speed>
  <fix>3d</fix>
</trkpt>
<trkpt lat="-27.2744386" lon="151.2900642">
  <ele>352.61</ele>
  <time>2026-09-01T20:02:37Z</time>
  <course>10.51</course>
  <speed>0.11</speed>
  <fix>3d</fix>
</trkpt>
<trkpt lat="-27.2744387" lon="151.2900642">
  <ele>352.72</ele>
  <time>2026-09-01T20:02:37Z</time>
  <course>10.49</course>
  <speed>0.1</speed>
  <fix>3d</fix>
</trkpt>
<trkpt lat="-27.2744385" lon="151.2900642">
  <ele>352.28</ele>
  <time>2026-09-01T20:02:37Z</time>
  <course>189.06</course>
  <speed>0.12</speed>
  <fix>3d</fix>
</trkpt>
<trkpt lat="-27.2744387" lon="151.2900642">
  <ele>352.75</ele>
  <time>2026-09-01T20:02:37Z</time>
  <course>10.48</course>
  <speed>0.1</speed>
  <fix>3d</fix>
</trkpt>
<trkpt lat="-27.2744388" lon="151.2900642">
  <ele>352.86</ele>
  <time>2026-09-01T20:02:37Z</time>
  <course>10.45</course>
  <speed>0.1</speed>
  <fix>3d</fix>
</trkpt>
<trkpt lat="-27.2744387" lon="151.2900641">
  <ele>352.56</ele>
  <time>2026-09-01T20:02:37Z</time>
  <course>189.53</course>
  <speed>0.11</speed>
  <fix>3d</fix>
</trkpt>
<trkpt lat="-27.2744388" lon="151.2900642">
  <ele>352.9</ele>
  <time>2026-09-01T20:02:37Z</time>
  <course>10.44</course>
  <speed>0.1</speed>
  <fix>3d</fix>
</trkpt>
<trkpt lat="-27.2744389" lon="151.2900642">
  <ele>353.0</ele>
  <time>2026-09-01T20:02:37Z</time>
  <course>10.42</course>
  <speed>0.09</speed>
  <fix>3d</fix>
</trkpt>
<trkpt lat="-27.2744387" lon="151.2900641">
  <ele>352.56</ele>
  <time>2026-09-01T20:02:37Z</time>
  <course>189.53</course>
  <speed>0.11</speed>
  <fix>3d</fix>
</trkpt>
<trkpt lat="-27.2744389" lon="151.2900642">
  <ele>353.04</ele>
  <time>2026-09-01T20:02:37Z</time>
  <course>10.41</course>
  <speed>0.09</speed>
  <fix>3d</fix>
</trkpt>
<trkpt lat="-27.274439" lon="151.2900642">
  <ele>353.15</ele>
  <time>2026-09-01T20:02:37Z</time>
  <course>10.39</course>
  <speed>0.09</speed>
  <fix>3d</fix>
</trkpt>
<trkpt lat="-27.2744389" lon="151.2900641">
  <ele>352.84</ele>
  <time>2026-09-01T20:02:37Z</time>
  <course>189.77</course>
  <speed>0.1</speed>
  <fix>3d</fix>
</trkpt>
<trkpt lat="-27.274439" lon="151.2900642">
  <ele>353.19</ele>
  <time>2026-09-01T20:02:37Z</time>
  <course>10.39</course>
  <speed>0.09</speed>
  <fix>3d</fix>
</trkpt>
<trkpt lat="-27.2744391" lon="151.2900642">
  <ele>353.29</ele>
  <time>2026-09-01T20:02:37Z</time>
  <course>10.39</course>
  <speed>0.08</speed>
  <fix>3d</fix>
</trkpt>
<trkpt lat="-27.2744389" lon="151.2900641">
  <ele>352.84</ele>
  <time>2026-09-01T20:02:37Z</time>
  <course>189.77</course>
  <speed>0.1</speed>
  <fix>3d</fix>
</trkpt>
<trkpt lat="-27.2744391" lon="151.2900642">
  <ele>353.43</ele>
  <time>2026-09-01T20:02:37Z</time>
  <course>10.39</course>
  <speed>0.08</speed>
  <fix>3d</fix>
</trkpt>
<trkpt lat="-27.2744391" lon="151.2900641">
  <ele>353.13</ele>
  <time>2026-09-01T20:02:37Z</time>
  <course>189.99</course>
  <speed>0.08</speed>
  <fix>3d</fix>
</trkpt>
<trkpt lat="-27.2744392" lon="151.2900642">
  <ele>353.58</ele>
  <time>2026-09-01T20:02:37Z</time>
  <course>10.39</course>
  <speed>0.07</speed>
  <fix>3d</fix>
</trkpt>
<trkpt lat="-27.2744391" lon="151.2900641">
  <ele>353.13</ele>
  <time>2026-09-01T20:02:37Z</time>
  <course>189.99</course>
  <speed>0.08</speed>
  <fix>3d</fix>
</trkpt>
<trkpt lat="-27.2744393" lon="151.2900642">
  <ele>353.71</ele>
  <time>2026-09-01T20:02:37Z</time>
  <course>10.39</course>
  <speed>0.07</speed>
  <fix>3d</fix>
</trkpt>
<trkpt lat="-27.2744392" lon="151.290064">
  <ele>353.41</ele>
  <time>2026-09-01T20:02:37Z</time>
  <course>190.53</course>
  <speed>0.07</speed>
  <fix>3d</fix>
</trkpt>
<trkpt lat="-27.2744393" lon="151.2900641">
  <ele>353.84</ele>
  <time>2026-09-01T20:02:37Z</time>
  <course>10.38</course>
  <speed>0.06</speed>
  <fix>3d</fix>
</trkpt>
<trkpt lat="-27.2744392" lon="151.290064">
  <ele>353.41</ele>
  <time>2026-09-01T20:02:37Z</time>
  <course>190.53</course>
  <speed>0.07</speed>
  <fix>3d</fix>
</trkpt>
<trkpt lat="-27.2744394" lon="151.2900641">
  <ele>353.95</ele>
  <time>2026-09-01T20:02:37Z</time>
  <course>10.37</course>
  <speed>0.06</speed>
  <fix>3d</fix>
</trkpt>
<trkpt lat="-27.2744393" lon="151.290064">
  <ele>353.69</ele>
  <time>2026-09-01T20:02:37Z</time>
  <course>191.0</course>
  <speed>0.06</speed>
  <fix>3d</fix>
</trkpt>
<trkpt lat="-27.2744395" lon="151.2900641">
  <ele>354.05</ele>
  <time>2026-09-01T20:02:37Z</time>
  <course>10.36</course>
  <speed>0.07</speed>
  <fix>3d</fix>
</trkpt>
<trkpt lat="-27.2744393" lon="151.290064">
  <ele>353.69</ele>
  <time>2026-09-01T20:02:37Z</time>
  <course>191.0</course>
  <speed>0.06</speed>
  <fix>3d</fix>
</trkpt>
<trkpt lat="-27.2744395" lon="151.2900641">
  <ele>354.13</ele>
  <time>2026-09-01T20:02:37Z</time>
  <course>10.35</course>
  <speed>0.07</speed>
  <fix>3d</fix>
</trkpt>
<trkpt lat="-27.2744394" lon="151.290064">
  <ele>353.93</ele>
  <time>2026-09-01T20:02:37Z</time>
  <course>190.74</course>
  <speed>0.06</speed>
  <fix>3d</fix>
</trkpt>
<trkpt lat="-27.2744396" lon="151.2900641">
  <ele>354.2</ele>
  <time>2026-09-01T20:02:37Z</time>
  <course>10.35</course>
  <speed>0.07</speed>
  <fix>3d</fix>
</trkpt>
<trkpt lat="-27.2744394" lon="151.290064">
  <ele>353.93</ele>
  <time>2026-09-01T20:02:37Z</time>
  <course>190.74</course>
  <speed>0.06</speed>
  <fix>3d</fix>
</trkpt>
<trkpt lat="-27.2744397" lon="151.2900641">
  <ele>354.25</ele>
  <time>2026-09-01T20:02:37Z</time>
  <course>10.34</course>
  <speed>0.08</speed>
  <fix>3d</fix>
</trkpt>
<trkpt lat="-27.2744395" lon="151.290064">
  <ele>354.12</ele>
  <time>2026-09-01T20:02:37Z</time>
  <course>189.78</course>
  <speed>0.06</speed>
  <fix>3d</fix>
</trkpt>
<trkpt lat="-27.2744397" lon="151.2900641">
  <ele>354.29</ele>
  <time>2026-09-01T20:02:37Z</time>
  <course>10.34</course>
  <speed>0.09</speed>
  <fix>3d</fix>
</trkpt>
<trkpt lat="-27.2744395" lon="151.290064">
  <ele>354.12</ele>
  <time>2026-09-01T20:02:37Z</time>
  <course>189.78</course>
  <speed>0.06</speed>
  <fix>3d</fix>
</trkpt>
<trkpt lat="-27.2744398" lon="151.2900641">
  <ele>354.31</ele>
  <time>2026-09-01T20:02:37Z</time>
  <course>10.36</course>
  <speed>0.09</speed>
  <fix>3d</fix>
</trkpt>
<trkpt lat="-27.2744397" lon="151.2900639">
  <ele>354.24</ele>
  <time>2026-09-01T20:02:37Z</time>
  <course>189.15</course>
  <speed>0.07</speed>
  <fix>3d</fix>
</trkpt>
<trkpt lat="-27.2744399" lon="151.2900641">
  <ele>354.31</ele>
  <time>2026-09-01T20:02:37Z</time>
  <course>10.42</course>
  <speed>0.1</speed>
  <fix>3d</fix>
</trkpt>
<trkpt lat="-27.2744397" lon="151.2900639">
  <ele>354.24</ele>
  <time>2026-09-01T20:02:37Z</time>
  <course>189.15</course>
  <speed>0.07</speed>
  <fix>3d</fix>
</trkpt>
<trkpt lat="-27.27444" lon="151.290064">
  <ele>354.3</ele>
  <time>2026-09-01T20:02:37Z</time>
  <course>10.5</course>
  <speed>0.11</speed>
  <fix>3d</fix>
</trkpt>
<trkpt lat="-27.2744398" lon="151.2900639">
  <ele>354.29</ele>
  <time>2026-09-01T20:02:37Z</time>
  <course>190.31</course>
  <speed>0.09</speed>
  <fix>3d</fix>
</trkpt>
<trkpt lat="-27.2744401" lon="151.290064">
  <ele>354.28</ele>
  <time>2026-09-01T20:02:37Z</time>
  <course>10.58</course>
  <speed>0.11045361017187261</speed>
  <fix>3d</fix>
</trkpt>
<trkpt lat="-27.2744398" lon="151.2900639">
  <ele>354.29</ele>
  <time>2026-09-01T20:02:37Z</time>
  <course>190.31</course>
  <speed>0.09</speed>
  <fix>3d</fix>
</trkpt>
<trkpt lat="-27.2744402" lon="151.290064">
  <ele>354.24</ele>
  <time>2026-09-01T20:02:37Z</time>
  <course>10.63</course>
  <speed>0.11045361017187261</speed>
  <fix>3d</fix>
</trkpt>
<trkpt lat="-27.27444" lon="151.2900638">
  <ele>354.29</ele>
  <time>2026-09-01T20:02:37Z</time>
  <course>192.22</course>
  <speed>0.1</speed>
  <fix>3d</fix>
</trkpt>
<trkpt lat="-27.2744403" lon="151.290064">
  <ele>354.18</ele>
  <time>2026-09-01T20:02:37Z</time>
  <course>10.6</course>
  <speed>0.11</speed>
  <fix>3d</fix>
</trkpt>
<trkpt lat="-27.27444" lon="151.2900638">
  <ele>354.29</ele>
  <time>2026-09-01T20:02:37Z</time>
  <course>192.22</course>
  <speed>0.1</speed>
  <fix>3d</fix>
</trkpt>
<trkpt lat="-27.2744404" lon="151.2900639">
  <ele>354.1</ele>
  <time>2026-09-01T20:02:37Z</time>
  <course>10.46</course>
  <speed>0.11</speed>
  <fix>3d</fix>
</trkpt>
<trkpt lat="-27.2744402" lon="151.2900637">
  <ele>354.22</ele>
  <time>2026-09-01T20:02:37Z</time>
  <course>191.78</course>
  <speed>0.1</speed>
  <fix>3d</fix>
</trkpt>
<trkpt lat="-27.2744405" lon="151.2900639">
  <ele>354.02</ele>
  <time>2026-09-01T20:02:37Z</time>
  <course>10.29</course>
  <speed>0.11</speed>
  <fix>3d</fix>
</trkpt>
<trkpt lat="-27.2744402" lon="151.2900637">
  <ele>354.22</ele>
  <time>2026-09-01T20:02:37Z</time>
  <course>191.78</course>
  <speed>0.1</speed>
  <fix>3d</fix>
</trkpt>
<trkpt lat="-27.2744405" lon="151.2900639">
  <ele>353.92</ele>
  <time>2026-09-01T20:02:37Z</time>
  <course>10.16</course>
  <speed>0.1</speed>
  <fix>3d</fix>
</trkpt>
<trkpt lat="-27.2744403" lon="151.2900637">
  <ele>354.09</ele>
  <time>2026-09-01T20:02:37Z</time>
  <course>188.61</course>
  <speed>0.1</speed>
  <fix>3d</fix>
</trkpt>
<trkpt lat="-27.2744406" lon="151.2900639">
  <ele>353.82</ele>
  <time>2026-09-01T20:02:37Z</time>
  <course>10.09</course>
  <speed>0.09</speed>
  <fix>3d</fix>
</trkpt>
<trkpt lat="-27.2744403" lon="151.2900637">
  <ele>354.09</ele>
  <time>2026-09-01T20:02:37Z</time>
  <course>188.61</course>
  <speed>0.1</speed>
  <fix>3d</fix>
</trkpt>
<trkpt lat="-27.2744407" lon="151.2900639">
  <ele>353.71</ele>
  <time>2026-09-01T20:02:37Z</time>
  <course>10.06</course>
  <speed>0.09</speed>
  <fix>3d</fix>
</trkpt>
<trkpt lat="-27.2744406" lon="151.2900637">
  <ele>353.91</ele>
  <time>2026-09-01T20:02:37Z</time>
  <course>185.95</course>
  <speed>0.09</speed>
  <fix>3d</fix>
</trkpt>
<trkpt lat="-27.2744408" lon="151.2900639">
  <ele>353.59</ele>
  <time>2026-09-01T20:02:37Z</time>
  <course>10.09</course>
  <speed>0.08</speed>
  <fix>3d</fix>
</trkpt>
<trkpt lat="-27.2744406" lon="151.2900637">
  <ele>353.91</ele>
  <time>2026-09-01T20:02:37Z</time>
  <course>185.95</course>
  <speed>0.09</speed>
  <fix>3d</fix>
</trkpt>
<trkpt lat="-27.2744408" lon="151.2900638">
  <ele>353.47</ele>
  <time>2026-09-01T20:02:37Z</time>
  <course>10.15</course>
  <speed>0.07</speed>
  <fix>3d</fix>
</trkpt>
<trkpt lat="-27.2744407" lon="151.2900637">
  <ele>353.7</ele>
  <time>2026-09-01T20:02:37Z</time>
  <course>184.98</course>
  <speed>0.07</speed>
  <fix>3d</fix>
</trkpt>
<trkpt lat="-27.2744409" lon="151.2900638">
  <ele>353.34</ele>
  <time>2026-09-01T20:02:37Z</time>
  <course>10.22</course>
  <speed>0.06</speed>
  <fix>3d</fix>
</trkpt>
<trkpt lat="-27.2744407" lon="151.2900637">
  <ele>353.7</ele>
  <time>2026-09-01T20:02:37Z</time>
  <course>184.98</course>
  <speed>0.07</speed>
  <fix>3d</fix>
</trkpt>
<trkpt lat="-27.2744409" lon="151.2900638">
  <ele>353.22</ele>
  <time>2026-09-01T20:02:37Z</time>
  <course>10.3</course>
  <speed>0.05</speed>
  <fix>3d</fix>
</trkpt>
<trkpt lat="-27.2744408" lon="151.2900637">
  <ele>353.47</ele>
  <time>2026-09-01T20:02:37Z</time>
  <course>183.97</course>
  <speed>0.06</speed>
  <fix>3d</fix>
</trkpt>
<trkpt lat="-27.274441" lon="151.2900638">
  <ele>353.1</ele>
  <time>2026-09-01T20:02:37Z</time>
  <course>10.36</course>
  <speed>0.05</speed>
  <fix>3d</fix>
</trkpt>
<trkpt lat="-27.2744408" lon="151.2900637">
  <ele>353.47</ele>
  <time>2026-09-01T20:02:37Z</time>
  <course>183.97</course>
  <speed>0.06</speed>
  <fix>3d</fix>
</trkpt>
<trkpt lat="-27.274441" lon="151.2900638">
  <ele>352.98</ele>
  <time>2026-09-01T20:02:37Z</time>
  <course>10.41</course>
  <speed>0.04</speed>
  <fix>3d</fix>
</trkpt>
<trkpt lat="-27.2744409" lon="151.2900637">
  <ele>353.22</ele>
  <time>2026-09-01T20:02:37Z</time>
  <course>182.55</course>
  <speed>0.04</speed>
  <fix>3d</fix>
</trkpt>
<trkpt lat="-27.274441" lon="151.2900638">
  <ele>352.86</ele>
  <time>2026-09-01T20:02:37Z</time>
  <course>10.43</course>
  <speed>0.03</speed>
  <fix>3d</fix>
</trkpt>
<trkpt lat="-27.2744409" lon="151.2900637">
  <ele>353.22</ele>
  <time>2026-09-01T20:02:37Z</time>
  <course>182.55</course>
  <speed>0.04</speed>
  <fix>3d</fix>
</trkpt>
<trkpt lat="-27.2744411" lon="151.2900638">
  <ele>352.74</ele>
  <time>2026-09-01T20:02:37Z</time>
  <course>10.43</course>
  <speed>0.022360679774997897</speed>
  <fix>3d</fix>
</trkpt>
<trkpt lat="-27.274441" lon="151.2900637">
  <ele>352.99</ele>
  <time>2026-09-01T20:02:37Z</time>
  <course>179.8</course>
  <speed>0.03</speed>
  <fix>3d</fix>
</trkpt>
<trkpt lat="-27.2744411" lon="151.2900638">
  <ele>352.62</ele>
  <time>2026-09-01T20:02:37Z</time>
  <course>10.42</course>
  <speed>0.022360679774997897</speed>
  <fix>3d</fix>
</trkpt>
<trkpt lat="-27.274441" lon="151.2900637">
  <ele>352.99</ele>
  <time>2026-09-01T20:02:37Z</time>
  <course>179.8</course>
  <speed>0.03</speed>
  <fix>3d</fix>
</trkpt>
<trkpt lat="-27.2744411" lon="151.2900638">
  <ele>352.51</ele>
  <time>2026-09-01T20:02:37Z</time>
  <course>10.41</course>
  <speed>0.01414213562373095</speed>
  <fix>3d</fix>
</trkpt>
<trkpt lat="-27.2744411" lon="151.2900637">
  <ele>352.76</ele>
  <time>2026-09-01T20:02:37Z</time>
  <course>172.36</course>
  <speed>0.01</speed>
  <fix>3d</fix>
</trkpt>
<trkpt lat="-27.2744411" lon="151.2900638">
  <ele>352.39</ele>
  <time>2026-09-01T20:02:37Z</time>
  <course>10.4</course>
  <speed>0.01414213562373095</speed>
  <fix>3d</fix>
</trkpt>
<trkpt lat="-27.2744411" lon="151.2900637">
  <ele>352.76</ele>
  <time>2026-09-01T20:02:37Z</time>
  <course>172.36</course>
  <speed>0.01</speed>
  <fix>3d</fix>
</trkpt>
<trkpt lat="-27.2744411" lon="151.2900638">
  <ele>352.28</ele>
  <time>2026-09-01T20:02:37Z</time>
  <course>10.42</course>
  <speed>0.01</speed>
  <fix>3d</fix>
</trkpt>
<trkpt lat="-27.2744411" lon="151.2900637">
  <ele>352.54</ele>
  <time>2026-09-01T20:02:37Z</time>
  <course>139.6</course>
  <speed>0.0</speed>
  <fix>3d</fix>
</trkpt>
<trkpt lat="-27.2744411" lon="151.2900638">
  <ele>352.17</ele>
  <time>2026-09-01T20:02:37Z</time>
  <course>10.45</course>
  <speed>0.0</speed>
  <fix>3d</fix>
</trkpt>
<trkpt lat="-27.2744411" lon="151.2900637">
  <ele>352.54</ele>
  <time>2026-09-01T20:02:37Z</time>
  <course>139.6</course>
  <speed>0.0</speed>
  <fix>3d</fix>
</trkpt>
<trkpt lat="-27.2744411" lon="151.2900638">
  <ele>352.07</ele>
  <time>2026-09-01T20:02:37Z</time>
  <course>10.49</course>
  <speed>0.0</speed>
  <fix>3d</fix>
</trkpt>
<trkpt lat="-27.2744411" lon="151.2900637">
  <ele>352.33</ele>
  <time>2026-09-01T20:02:37Z</time>
  <course>11.85</course>
  <speed>0.0</speed>
  <fix>3d</fix>
</trkpt>
<trkpt lat="-27.2744411" lon="151.2900638">
  <ele>351.96</ele>
  <time>2026-09-01T20:02:37Z</time>
  <course>10.53</course>
  <speed>0.0</speed>
  <fix>3d</fix>
</trkpt>
<trkpt lat="-27.2744411" lon="151.2900637">
  <ele>352.33</ele>
  <time>2026-09-01T20:02:37Z</time>
  <course>11.85</course>
  <speed>0.0</speed>
  <fix>3d</fix>
</trkpt>
<trkpt lat="-27.2744411" lon="151.2900638">
  <ele>351.86</ele>
  <time>2026-09-01T20:02:37Z</time>
  <course>10.56</course>
  <speed>0.01</speed>
  <fix>3d</fix>
</trkpt>
<trkpt lat="-27.2744411" lon="151.2900637">
  <ele>352.12</ele>
  <time>2026-09-01T20:02:37Z</time>
  <course>358.17</course>
  <speed>0.01</speed>
  <fix>3d</fix>
</trkpt>
<trkpt lat="-27.2744411" lon="151.2900638">
  <ele>351.75</ele>
  <time>2026-09-01T20:02:37Z</time>
  <course>10.58</course>
  <speed>0.01</speed>
  <fix>3d</fix>
</trkpt>
<trkpt lat="-27.2744411" lon="151.2900637">
  <ele>352.12</ele>
  <time>2026-09-01T20:02:37Z</time>
  <course>358.17</course>
  <speed>0.01</speed>
  <fix>3d</fix>
</trkpt>
<trkpt lat="-27.2744411" lon="151.2900638">
  <ele>351.65</ele>
  <time>2026-09-01T20:02:37Z</time>
  <course>10.6</course>
  <speed>0.02</speed>
  <fix>3d</fix>
</trkpt>
<trkpt lat="-27.2744411" lon="151.2900637">
  <ele>351.91</ele>
  <time>2026-09-01T20:02:37Z</time>
  <course>354.79</course>
  <speed>0.02</speed>
  <fix>3d</fix>
</trkpt>
<trkpt lat="-27.2744411" lon="151.2900638">
  <ele>351.54</ele>
  <time>2026-09-01T20:02:37Z</time>
  <course>10.61</course>
  <speed>0.02</speed>
  <fix>3d</fix>
</trkpt>
<trkpt lat="-27.2744411" lon="151.2900637">
  <ele>351.91</ele>
  <time>2026-09-01T20:02:37Z</time>
  <course>354.79</course>
  <speed>0.02</speed>
  <fix>3d</fix>
</trkpt>
<trkpt lat="-27.2744411" lon="151.2900638">
  <ele>351.44</ele>
  <time>2026-09-01T20:02:37Z</time>
  <course>10.61</course>
  <speed>0.02</speed>
  <fix>3d</fix>
</trkpt>
<trkpt lat="-27.274441" lon="151.2900637">
  <ele>351.7</ele>
  <time>2026-09-01T20:02:37Z</time>
  <course>353.75</course>
  <speed>0.03</speed>
  <fix>3d</fix>
</trkpt>
<trkpt lat="-27.274441" lon="151.2900638">
  <ele>351.33</ele>
  <time>2026-09-01T20:02:37Z</time>
  <course>10.6</course>
  <speed>0.03</speed>
  <fix>3d</fix>
</trkpt>
<trkpt lat="-27.274441" lon="151.2900637">
  <ele>351.7</ele>
  <time>2026-09-01T20:02:37Z</time>
  <course>353.75</course>
  <speed>0.03</speed>
  <fix>3d</fix>
</trkpt>
<trkpt lat="-27.274441" lon="151.2900638">
  <ele>351.22</ele>
  <time>2026-09-01T20:02:37Z</time>
  <course>10.6</course>
  <speed>0.03</speed>
  <fix>3d</fix>
</trkpt>
<trkpt lat="-27.2744409" lon="151.2900637">
  <ele>351.49</ele>
  <time>2026-09-01T20:02:37Z</time>
  <course>353.58</course>
  <speed>0.04</speed>
  <fix>3d</fix>
</trkpt>
<trkpt lat="-27.2744409" lon="151.2900638">
  <ele>351.11</ele>
  <time>2026-09-01T20:02:37Z</time>
  <course>10.59</course>
  <speed>0.04</speed>
  <fix>3d</fix>
</trkpt>
<trkpt lat="-27.2744409" lon="151.2900637">
  <ele>351.49</ele>
  <time>2026-09-01T20:02:37Z</time>
  <course>353.58</course>
  <speed>0.04</speed>
  <fix>3d</fix>
</trkpt>
<trkpt lat="-27.2744409" lon="151.2900638">
  <ele>351.0</ele>
  <time>2026-09-01T20:02:37Z</time>
  <course>10.58</course>
  <speed>0.04</speed>
  <fix>3d</fix>
</trkpt>
<trkpt lat="-27.2744408" lon="151.2900637">
  <ele>351.28</ele>
  <time>2026-09-01T20:02:37Z</time>
  <course>353.88</course>
  <speed>0.05</speed>
  <fix>3d</fix>
</trkpt>
<trkpt lat="-27.2744408" lon="151.2900638">
  <ele>350.89</ele>
  <time>2026-09-01T20:02:37Z</time>
  <course>10.57</course>
  <speed>0.04</speed>
  <fix>3d</fix>
</trkpt>
<trkpt lat="-27.2744408" lon="151.2900637">
  <ele>351.28</ele>
  <time>2026-09-01T20:02:37Z</time>
  <course>353.88</course>
  <speed>0.05</speed>
  <fix>3d</fix>
</trkpt>
<trkpt lat="-27.2744408" lon="151.2900638">
  <ele>350.77</ele>
  <time>2026-09-01T20:02:37Z</time>
  <course>10.57</course>
  <speed>0.05</speed>
  <fix>3d</fix>
</trkpt>
<trkpt lat="-27.2744407" lon="151.2900637">
  <ele>351.06</ele>
  <time>2026-09-01T20:02:37Z</time>
  <course>354.57</course>
  <speed>0.06</speed>
  <fix>3d</fix>
</trkpt>
<trkpt lat="-27.2744407" lon="151.2900638">
  <ele>350.66</ele>
  <time>2026-09-01T20:02:37Z</time>
  <course>10.57</course>
  <speed>0.05</speed>
  <fix>3d</fix>
</trkpt>
<trkpt lat="-27.2744407" lon="151.2900637">
  <ele>351.06</ele>
  <time>2026-09-01T20:02:37Z</time>
  <course>354.57</course>
  <speed>0.06</speed>
  <fix>3d</fix>
</trkpt>
<trkpt lat="-27.2744406" lon="151.2900638">
  <ele>350.54</ele>
  <time>2026-09-01T20:02:37Z</time>
  <course>10.58</course>
  <speed>0.05</speed>
  <fix>3d</fix>
</trkpt>
<trkpt lat="-27.2744406" lon="151.2900637">
  <ele>350.84</ele>
  <time>2026-09-01T20:02:37Z</time>
  <course>355.41</course>
  <speed>0.06</speed>
  <fix>3d</fix>
</trkpt>
<trkpt lat="-27.2744406" lon="151.2900637">
  <ele>350.42</ele>
  <time>2026-09-01T20:02:37Z</time>
  <course>10.59</course>
  <speed>0.05</speed>
  <fix>3d</fix>
</trkpt>
<trkpt lat="-27.2744406" lon="151.2900637">
  <ele>350.84</ele>
  <time>2026-09-01T20:02:37Z</time>
  <course>355.41</course>
  <speed>0.06</speed>
  <fix>3d</fix>
</trkpt>
<trkpt lat="-27.2744405" lon="151.2900637">
  <ele>350.31</ele>
  <time>2026-09-01T20:02:37Z</time>
  <course>10.6</course>
  <speed>0.06</speed>
  <fix>3d</fix>
</trkpt>
<trkpt lat="-27.2744405" lon="151.2900637">
  <ele>350.61</ele>
  <time>2026-09-01T20:02:37Z</time>
  <course>356.1</course>
  <speed>0.07</speed>
  <fix>3d</fix>
</trkpt>
<trkpt lat="-27.2744404" lon="151.2900637">
  <ele>350.19</ele>
  <time>2026-09-01T20:02:37Z</time>
  <course>10.61</course>
  <speed>0.06</speed>
  <fix>3d</fix>
</trkpt>
<trkpt lat="-27.2744405" lon="151.2900637">
  <ele>350.61</ele>
  <time>2026-09-01T20:02:37Z</time>
  <course>356.1</course>
  <speed>0.07</speed>
  <fix>3d</fix>
</trkpt>
<trkpt lat="-27.2744404" lon="151.2900637">
  <ele>350.07</ele>
  <time>2026-09-01T20:02:37Z</time>
  <course>10.62</course>
  <speed>0.06</speed>
  <fix>3d</fix>
</trkpt>
<trkpt lat="-27.2744403" lon="151.2900637">
  <ele>350.39</ele>
  <time>2026-09-01T20:02:37Z</time>
  <course>356.66</course>
  <speed>0.07</speed>
  <fix>3d</fix>
</trkpt>
<trkpt lat="-27.2744403" lon="151.2900637">
  <ele>349.95</ele>
  <time>2026-09-01T20:02:37Z</time>
  <course>10.63</course>
  <speed>0.06</speed>
  <fix>3d</fix>
</trkpt>
<trkpt lat="-27.2744403" lon="151.2900637">
  <ele>350.39</ele>
  <time>2026-09-01T20:02:37Z</time>
  <course>356.66</course>
  <speed>0.07</speed>
  <fix>3d</fix>
</trkpt>
<trkpt lat="-27.2744402" lon="151.2900637">
  <ele>349.83</ele>
  <time>2026-09-01T20:02:37Z</time>
  <course>10.64</course>
  <speed>0.06</speed>
  <fix>3d</fix>
</trkpt>
<trkpt lat="-27.2744402" lon="151.2900637">
  <ele>350.16</ele>
  <time>2026-09-01T20:02:37Z</time>
  <course>357.19</course>
  <speed>0.07</speed>
  <fix>3d</fix>
</trkpt>
<trkpt lat="-27.2744401" lon="151.2900637">
  <ele>349.72</ele>
  <time>2026-09-01T20:02:37Z</time>
  <course>10.65</course>
  <speed>0.06</speed>
  <fix>3d</fix>
</trkpt>
<trkpt lat="-27.2744402" lon="151.2900637">
  <ele>350.16</ele>
  <time>2026-09-01T20:02:37Z</time>
  <course>357.19</course>
  <speed>0.07</speed>
  <fix>3d</fix>
</trkpt>
<trkpt lat="-27.2744401" lon="151.2900637">
  <ele>349.6</ele>
  <time>2026-09-01T20:02:37Z</time>
  <course>10.65</course>
  <speed>0.06</speed>
  <fix>3d</fix>
</trkpt>
<trkpt lat="-27.2744401" lon="151.2900636">
  <ele>349.93</ele>
  <time>2026-09-01T20:02:37Z</time>
  <course>357.67</course>
  <speed>0.08</speed>
  <fix>3d</fix>
</trkpt>
<trkpt lat="-27.27444" lon="151.2900637">
  <ele>349.49</ele>
  <time>2026-09-01T20:02:37Z</time>
  <course>10.66</course>
  <speed>0.06</speed>
  <fix>3d</fix>
</trkpt>
<trkpt lat="-27.2744401" lon="151.2900636">
  <ele>349.93</ele>
  <time>2026-09-01T20:02:37Z</time>
  <course>357.67</course>
  <speed>0.08</speed>
  <fix>3d</fix>
</trkpt>
<trkpt lat="-27.2744399" lon="151.2900637">
  <ele>349.37</ele>
  <time>2026-09-01T20:02:37Z</time>
  <course>10.66</course>
  <speed>0.06</speed>
  <fix>3d</fix>
</trkpt>
<trkpt lat="-27.27444" lon="151.2900636">
  <ele>349.71</ele>
  <time>2026-09-01T20:02:37Z</time>
  <course>358.32</course>
  <speed>0.08</speed>
  <fix>3d</fix>
</trkpt>
<trkpt lat="-27.2744399" lon="151.2900637">
  <ele>349.26</ele>
  <time>2026-09-01T20:02:37Z</time>
  <course>10.67</course>
  <speed>0.06</speed>
  <fix>3d</fix>
</trkpt>
<trkpt lat="-27.27444" lon="151.2900636">
  <ele>349.71</ele>
  <time>2026-09-01T20:02:37Z</time>
  <course>358.32</course>
  <speed>0.08</speed>
  <fix>3d</fix>
</trkpt>
<trkpt lat="-27.2744398" lon="151.2900637">
  <ele>349.14</ele>
  <time>2026-09-01T20:02:37Z</time>
  <course>10.67</course>
  <speed>0.06</speed>
  <fix>3d</fix>
</trkpt>
<trkpt lat="-27.2744398" lon="151.2900636">
  <ele>349.49</ele>
  <time>2026-09-01T20:02:37Z</time>
  <course>359.34</course>
  <speed>0.07</speed>
  <fix>3d</fix>
</trkpt>
<trkpt lat="-27.2744397" lon="151.2900637">
  <ele>349.03</ele>
  <time>2026-09-01T20:02:37Z</time>
  <course>10.68</course>
  <speed>0.06</speed>
  <fix>3d</fix>
</trkpt>
<trkpt lat="-27.2744398" lon="151.2900636">
  <ele>349.49</ele>
  <time>2026-09-01T20:02:37Z</time>
  <course>359.34</course>
  <speed>0.07</speed>
  <fix>3d</fix>
</trkpt>
<trkpt lat="-27.2744397" lon="151.2900637">
  <ele>348.92</ele>
  <time>2026-09-01T20:02:37Z</time>
  <course>10.69</course>
  <speed>0.05</speed>
  <fix>3d</fix>
</trkpt>
<trkpt lat="-27.2744397" lon="151.2900636">
  <ele>349.27</ele>
  <time>2026-09-01T20:02:37Z</time>
  <course>0.28</course>
  <speed>0.07</speed>
  <fix>3d</fix>
</trkpt>
<trkpt lat="-27.2744396" lon="151.2900637">
  <ele>348.81</ele>
  <time>2026-09-01T20:02:37Z</time>
  <course>10.7</course>
  <speed>0.05</speed>
  <fix>3d</fix>
</trkpt>
<trkpt lat="-27.2744397" lon="151.2900636">
  <ele>349.27</ele>
  <time>2026-09-01T20:02:37Z</time>
  <course>0.28</course>
  <speed>0.07</speed>
  <fix>3d</fix>
</trkpt>
<trkpt lat="-27.2744396" lon="151.2900637">
  <ele>348.7</ele>
  <time>2026-09-01T20:02:37Z</time>
  <course>10.71</course>
  <speed>0.05</speed>
  <fix>3d</fix>
</trkpt>
<trkpt lat="-27.2744395" lon="151.2900636">
  <ele>349.05</ele>
  <time>2026-09-01T20:02:37Z</time>
  <course>0.99</course>
  <speed>0.07</speed>
  <fix>3d</fix>
</trkpt>
<trkpt lat="-27.2744395" lon="151.2900637">
  <ele>348.59</ele>
  <time>2026-09-01T20:02:37Z</time>
  <course>10.71</course>
  <speed>0.05</speed>
  <fix>3d</fix>
</trkpt>
<trkpt lat="-27.2744395" lon="151.2900636">
  <ele>349.05</ele>
  <time>2026-09-01T20:02:37Z</time>
  <course>0.99</course>
  <speed>0.07</speed>
  <fix>3d</fix>
</trkpt>
<trkpt lat="-27.2744394" lon="151.2900637">
  <ele>348.48</ele>
  <time>2026-09-01T20:02:37Z</time>
  <course>10.72</course>
  <speed>0.05</speed>
  <fix>3d</fix>
</trkpt>
<trkpt lat="-27.2744394" lon="151.2900636">
  <ele>348.82</ele>
  <time>2026-09-01T20:02:37Z</time>
  <course>1.83</course>
  <speed>0.07</speed>
  <fix>3d</fix>
</trkpt>
<trkpt lat="-27.2744394" lon="151.2900637">
  <ele>348.36</ele>
  <time>2026-09-01T20:02:37Z</time>
  <course>10.72</course>
  <speed>0.06</speed>
  <fix>3d</fix>
</trkpt>
<trkpt lat="-27.2744394" lon="151.2900636">
  <ele>348.82</ele>
  <time>2026-09-01T20:02:37Z</time>
  <course>1.83</course>
  <speed>0.07</speed>
  <fix>3d</fix>
</trkpt>
<trkpt lat="-27.2744394" lon="151.2900637">
  <ele>348.36</ele>
  <time>2026-09-01T20:02:37Z</time>
  <course>10.72</course>
  <speed>0.06</speed>
  <fix>3d</fix>
</trkpt>
<trkpt lat="-27.2744393" lon="151.2900637">
  <ele>348.25</ele>
  <time>2026-09-01T20:02:37Z</time>
  <course>10.74</course>
  <speed>0.11045361017187261</speed>
  <fix>3d</fix>
</trkpt>
<trkpt lat="-27.2744393" lon="151.2900636">
  <ele>348.59</ele>
  <time>2026-09-01T20:02:37Z</time>
  <course>3.39</course>
  <speed>0.07</speed>
  <fix>3d</fix>
</trkpt>
<trkpt lat="-27.2744391" lon="151.2900637">
  <ele>348.11</ele>
  <time>2026-09-01T20:02:37Z</time>
  <course>10.76</course>
  <speed>0.21213203435596426</speed>
  <fix>3d</fix>
</trkpt>
<trkpt lat="-27.2744393" lon="151.2900636">
  <ele>348.59</ele>
  <time>2026-09-01T20:02:37Z</time>
  <course>3.39</course>
  <speed>0.07</speed>
  <fix>3d</fix>
</trkpt>
<trkpt lat="-27.2744389" lon="151.2900637">
  <ele>347.86</ele>
  <time>2026-09-01T20:02:37Z</time>
  <course>10.79</course>
  <speed>0.282842712474619</speed>
  <fix>3d</fix>
</trkpt>
<trkpt lat="-27.2744391" lon="151.2900636">
  <ele>348.36</ele>
  <time>2026-09-01T20:02:37Z</time>
  <course>6.72</course>
  <speed>0.15</speed>
  <fix>3d</fix>
</trkpt>
<trkpt lat="-27.2744386" lon="151.2900637">
  <ele>347.54</ele>
  <time>2026-09-01T20:02:37Z</time>
  <course>10.82</course>
  <speed>0.304138126514911</speed>
  <fix>3d</fix>
</trkpt>
<trkpt lat="-27.2744391" lon="151.2900636">
  <ele>348.36</ele>
  <time>2026-09-01T20:02:37Z</time>
  <course>6.72</course>
  <speed>0.15</speed>
  <fix>3d</fix>
</trkpt>
<trkpt lat="-27.2744383" lon="151.2900638">
  <ele>347.17</ele>
  <time>2026-09-01T20:02:37Z</time>
  <course>10.86</course>
  <speed>0.3238826948140329</speed>
  <fix>3d</fix>
</trkpt>
<trkpt lat="-27.2744387" lon="151.2900636">
  <ele>347.97</ele>
  <time>2026-09-01T20:02:37Z</time>
  <course>7.74</course>
  <speed>0.27</speed>
  <fix>3d</fix>
</trkpt>
<trkpt lat="-27.274438" lon="151.2900638">
  <ele>346.74</ele>
  <time>2026-09-01T20:02:37Z</time>
  <course>10.89</course>
  <speed>0.34525353003264136</speed>
  <fix>3d</fix>
</trkpt>
<trkpt lat="-27.2744387" lon="151.2900636">
  <ele>347.97</ele>
  <time>2026-09-01T20:02:37Z</time>
  <course>7.74</course>
  <speed>0.27</speed>
  <fix>3d</fix>
</trkpt>
<trkpt lat="-27.2744377" lon="151.2900639">
  <ele>346.27</ele>
  <time>2026-09-01T20:02:37Z</time>
  <course>10.93</course>
  <speed>0.37483329627982626</speed>
  <fix>3d</fix>
</trkpt>
<trkpt lat="-27.2744382" lon="151.2900637">
  <ele>347.3</ele>
  <time>2026-09-01T20:02:37Z</time>
  <course>7.97</course>
  <speed>0.34</speed>
  <fix>3d</fix>
</trkpt>
<trkpt lat="-27.2744373" lon="151.2900639">
  <ele>345.74</ele>
  <time>2026-09-01T20:02:37Z</time>
  <course>10.96</course>
  <speed>0.447213595499958</speed>
  <fix>3d</fix>
</trkpt>
<trkpt lat="-27.2744382" lon="151.2900637">
  <ele>347.3</ele>
  <time>2026-09-01T20:02:37Z</time>
  <course>7.97</course>
  <speed>0.34</speed>
  <fix>3d</fix>
</trkpt>
<trkpt lat="-27.2744369" lon="151.290064">
  <ele>346.39</ele>
  <time>2026-09-01T20:02:37Z</time>
  <course>11.0</course>
  <speed>0.5491812087098392</speed>
  <fix>3d</fix>
</trkpt>
<trkpt lat="-27.2744375" lon="151.2900638">
  <ele>346.4</ele>
  <time>2026-09-01T20:02:37Z</time>
  <course>8.14</course>
  <speed>0.4</speed>
  <fix>3d</fix>
</trkpt>
<trkpt lat="-27.2744363" lon="151.2900641">
  <ele>346.37</ele>
  <time>2026-09-01T20:02:37Z</time>
  <course>11.04</course>
  <speed>0.6708203932499369</speed>
  <fix>3d</fix>
</trkpt>
<trkpt lat="-27.2744375" lon="151.2900638">
  <ele>346.4</ele>
  <time>2026-09-01T20:02:37Z</time>
  <course>8.14</course>
  <speed>0.4</speed>
  <fix>3d</fix>
</trkpt>
<trkpt lat="-27.2744357" lon="151.2900642">
  <ele>346.25</ele>
  <time>2026-09-01T20:02:37Z</time>
  <course>11.09</course>
  <speed>0.792464510246358</speed>
  <fix>3d</fix>
</trkpt>
<trkpt lat="-27.2744367" lon="151.2900639">
  <ele>345.3</ele>
  <time>2026-09-01T20:02:37Z</time>
  <course>8.3</course>
  <speed>0.57</speed>
  <fix>3d</fix>
</trkpt>
<trkpt lat="-27.2744347" lon="151.2900644">
  <ele>346.02</ele>
  <time>2026-09-01T20:02:37Z</time>
  <course>11.15</course>
  <speed>1.445441109142811</speed>
  <fix>3d</fix>
</trkpt>
<trkpt lat="-27.2744367" lon="151.2900639">
  <ele>345.3</ele>
  <time>2026-09-01T20:02:37Z</time>
  <course>8.3</course>
  <speed>0.57</speed>
  <fix>3d</fix>
</trkpt>
<trkpt lat="-27.2744338" lon="151.2900646">
  <ele>345.99</ele>
  <time>2026-09-01T20:02:37Z</time>
  <course>11.09</course>
  <speed>0.3238826948140329</speed>
  <fix>3d</fix>
</trkpt>
<trkpt lat="-27.2744354" lon="151.2900641">
  <ele>343.99</ele>
  <time>2026-09-01T20:02:37Z</time>
  <course>8.41</course>
  <speed>1.03</speed>
  <fix>3d</fix>
</trkpt>
<trkpt lat="-27.2744339" lon="151.2900645">
  <ele>346.5</ele>
  <time>2026-09-01T20:02:37Z</time>
  <course>11.07</course>
  <speed>0.4827007354458868</speed>
  <fix>3d</fix>
</trkpt>
<trkpt lat="-27.2744354" lon="151.2900641">
  <ele>343.99</ele>
  <time>2026-09-01T20:02:37Z</time>
  <course>8.41</course>
  <speed>1.03</speed>
  <fix>3d</fix>
</trkpt>
<trkpt lat="-27.2744344" lon="151.2900644">
  <ele>347.02</ele>
  <time>2026-09-01T20:02:37Z</time>
  <course>11.07</course>
  <speed>0.5434151267677411</speed>
  <fix>3d</fix>
</trkpt>
<trkpt lat="-27.2744341" lon="151.2900644">
  <ele>343.0</ele>
  <time>2026-09-01T20:02:37Z</time>
  <course>8.44</course>
  <speed>0.51</speed>
  <fix>3d</fix>
</trkpt>
<trkpt lat="-27.2744347" lon="151.2900643">
  <ele>347.53</ele>
  <time>2026-09-01T20:02:37Z</time>
  <course>11.08</course>
  <speed>0.3080584360149873</speed>
  <fix>3d</fix>
</trkpt>
<trkpt lat="-27.2744341" lon="151.2900644">
  <ele>343.0</ele>
  <time>2026-09-01T20:02:37Z</time>
  <course>8.44</course>
  <speed>0.51</speed>
  <fix>3d</fix>
</trkpt>
<trkpt lat="-27.2744347" lon="151.2900644">
  <ele>347.78</ele>
  <time>2026-09-01T20:02:37Z</time>
  <course>11.05</course>
  <speed>0.0854400374531753</speed>
  <fix>3d</fix>
</trkpt>
<trkpt lat="-27.2744339" lon="151.2900644">
  <ele>342.91</ele>
  <time>2026-09-01T20:02:37Z</time>
  <course>188.45</course>
  <speed>0.29</speed>
  <fix>3d</fix>
</trkpt>
<trkpt lat="-27.2744346" lon="151.2900643">
  <ele>348.03</ele>
  <time>2026-09-01T20:02:37Z</time>
  <course>11.03</course>
  <speed>0.01</speed>
  <fix>3d</fix>
</trkpt>
<trkpt lat="-27.2744339" lon="151.2900644">
  <ele>342.91</ele>
  <time>2026-09-01T20:02:37Z</time>
  <course>188.45</course>
  <speed>0.29</speed>
  <fix>3d</fix>
</trkpt>
<trkpt lat="-27.2744346" lon="151.2900643">
  <ele>348.17</ele>
  <time>2026-09-01T20:02:37Z</time>
  <course>11.01</course>
  <speed>0.01414213562373095</speed>
  <fix>3d</fix>
</trkpt>
<trkpt lat="-27.2744343" lon="151.2900642">
  <ele>343.12</ele>
  <time>2026-09-01T20:02:37Z</time>
  <course>188.45</course>
  <speed>0.07</speed>
  <fix>3d</fix>
</trkpt>
<trkpt lat="-27.2744346" lon="151.2900643">
  <ele>348.41</ele>
  <time>2026-09-01T20:02:37Z</time>
  <course>11.02</course>
  <speed>0.053851648071345036</speed>
  <fix>3d</fix>
</trkpt>
<trkpt lat="-27.2744343" lon="151.2900642">
  <ele>343.12</ele>
  <time>2026-09-01T20:02:37Z</time>
  <course>188.45</course>
  <speed>0.07</speed>
  <fix>3d</fix>
</trkpt>
<trkpt lat="-27.2744346" lon="151.2900643">
  <ele>348.67</ele>
  <time>2026-09-01T20:02:37Z</time>
  <course>11.03</course>
  <speed>0.07280109889280519</speed>
  <fix>3d</fix>
</trkpt>
<trkpt lat="-27.2744343" lon="151.2900643">
  <ele>343.11</ele>
  <time>2026-09-01T20:02:37Z</time>
  <course>8.45</course>
  <speed>0.04</speed>
  <fix>3d</fix>
</trkpt>
<trkpt lat="-27.2744347" lon="151.2900643">
  <ele>349.0</ele>
  <time>2026-09-01T20:02:37Z</time>
  <course>11.04</course>
  <speed>0.0854400374531753</speed>
  <fix>3d</fix>
</trkpt>
<trkpt lat="-27.2744343" lon="151.2900643">
  <ele>343.11</ele>
  <time>2026-09-01T20:02:37Z</time>
  <course>8.45</course>
  <speed>0.04</speed>
  <fix>3d</fix>
</trkpt>
<trkpt lat="-27.2744347" lon="151.2900643">
  <ele>349.31</ele>
  <time>2026-09-01T20:02:37Z</time>
  <course>11.04</course>
  <speed>0.07280109889280519</speed>
  <fix>3d</fix>
</trkpt>
<trkpt lat="-27.2744343" lon="151.2900644">
  <ele>343.09</ele>
  <time>2026-09-01T20:02:37Z</time>
  <course>8.45</course>
  <speed>0.0</speed>
  <fix>3d</fix>
</trkpt>
<trkpt lat="-27.2744348" lon="151.2900642">
  <ele>349.65</ele>
  <time>2026-09-01T20:02:37Z</time>
  <course>11.05</course>
  <speed>0.0632455532033676</speed>
  <fix>3d</fix>
</trkpt>
<trkpt lat="-27.2744343" lon="151.2900644">
  <ele>343.09</ele>
  <time>2026-09-01T20:02:37Z</time>
  <course>8.45</course>
  <speed>0.0</speed>
  <fix>3d</fix>
</trkpt>
<trkpt lat="-27.2744348" lon="151.2900642">
  <ele>349.96</ele>
  <time>2026-09-01T20:02:37Z</time>
  <course>11.06</course>
  <speed>0.0632455532033676</speed>
  <fix>3d</fix>
</trkpt>
<trkpt lat="-27.2744343" lon="151.2900644">
  <ele>343.09</ele>
  <time>2026-09-01T20:02:37Z</time>
  <course>188.45</course>
  <speed>0.0</speed>
  <fix>3d</fix>
</trkpt>
<trkpt lat="-27.2744348" lon="151.2900642">
  <ele>350.29</ele>
  <time>2026-09-01T20:02:37Z</time>
  <course>11.06</course>
  <speed>0.053851648071345036</speed>
  <fix>3d</fix>
</trkpt>
<trkpt lat="-27.2744343" lon="151.2900644">
  <ele>343.09</ele>
  <time>2026-09-01T20:02:37Z</time>
  <course>188.45</course>
  <speed>0.0</speed>
  <fix>3d</fix>
</trkpt>
<trkpt lat="-27.2744348" lon="151.2900642">
  <ele>350.61</ele>
  <time>2026-09-01T20:02:37Z</time>
  <course>11.07</course>
  <speed>0.053851648071345036</speed>
  <fix>3d</fix>
</trkpt>
<trkpt lat="-27.2744343" lon="151.2900644">
  <ele>343.1</ele>
  <time>2026-09-01T20:02:37Z</time>
  <course>8.45</course>
  <speed>0.0</speed>
  <fix>3d</fix>
</trkpt>
<trkpt lat="-27.2744348" lon="151.2900642">
  <ele>350.93</ele>
  <time>2026-09-01T20:02:37Z</time>
  <course>11.07</course>
  <speed>0.053851648071345036</speed>
  <fix>3d</fix>
</trkpt>
<trkpt lat="-27.2744343" lon="151.2900644">
  <ele>343.1</ele>
  <time>2026-09-01T20:02:37Z</time>
  <course>8.45</course>
  <speed>0.0</speed>
  <fix>3d</fix>
</trkpt>
<trkpt lat="-27.2744348" lon="151.2900642">
  <ele>351.19</ele>
  <time>2026-09-01T20:02:37Z</time>
  <course>11.08</course>
  <speed>0.05099019513592785</speed>
  <fix>3d</fix>
</trkpt>
<trkpt lat="-27.2744343" lon="151.2900644">
  <ele>343.09</ele>
  <time>2026-09-01T20:02:37Z</time>
  <course>8.45</course>
  <speed>0.0</speed>
  <fix>3d</fix>
</trkpt>
<trkpt lat="-27.2744348" lon="151.2900642">
  <ele>351.45</ele>
  <time>2026-09-01T20:02:37Z</time>
  <course>11.08</course>
  <speed>0.0412310562561766</speed>
  <fix>3d</fix>
</trkpt>
<trkpt lat="-27.2744343" lon="151.2900644">
  <ele>343.09</ele>
  <time>2026-09-01T20:02:37Z</time>
  <course>8.45</course>
  <speed>0.0</speed>
  <fix>3d</fix>
</trkpt>
<trkpt lat="-27.2744348" lon="151.2900642">
  <ele>351.69</ele>
  <time>2026-09-01T20:02:37Z</time>
  <course>11.09</course>
  <speed>0.0412310562561766</speed>
  <fix>3d</fix>
</trkpt>
<trkpt lat="-27.2744343" lon="151.2900644">
  <ele>343.09</ele>
  <time>2026-09-01T20:02:37Z</time>
  <course>188.45</course>
  <speed>0.0</speed>
  <fix>3d</fix>
</trkpt>
<trkpt lat="-27.2744348" lon="151.2900642">
  <ele>351.95</ele>
  <time>2026-09-01T20:02:37Z</time>
  <course>11.09</course>
  <speed>0.0316227766016838</speed>
  <fix>3d</fix>
</trkpt>
<trkpt lat="-27.2744343" lon="151.2900644">
  <ele>343.09</ele>
  <time>2026-09-01T20:02:37Z</time>
  <course>188.45</course>
  <speed>0.0</speed>
  <fix>3d</fix>
</trkpt>
<trkpt lat="-27.2744348" lon="151.2900642">
  <ele>352.08</ele>
  <time>2026-09-01T20:02:37Z</time>
  <course>11.1</course>
  <speed>0.0316227766016838</speed>
  <fix>3d</fix>
</trkpt>
<trkpt lat="-27.2744343" lon="151.2900644">
  <ele>343.09</ele>
  <time>2026-09-01T20:02:37Z</time>
  <course>188.45</course>
  <speed>0.0</speed>
  <fix>3d</fix>
</trkpt>
<trkpt lat="-27.2744348" lon="151.2900643">
  <ele>352.25</ele>
  <time>2026-09-01T20:02:37Z</time>
  <course>11.11</course>
  <speed>0.0316227766016838</speed>
  <fix>3d</fix>
</trkpt>
<trkpt lat="-27.2744343" lon="151.2900644">
  <ele>343.09</ele>
  <time>2026-09-01T20:02:37Z</time>
  <course>188.45</course>
  <speed>0.0</speed>
  <fix>3d</fix>
</trkpt>
<trkpt lat="-27.2744347" lon="151.2900643">
  <ele>352.3</ele>
  <time>2026-09-01T20:02:37Z</time>
  <course>11.11</course>
  <speed>0.02</speed>
  <fix>3d</fix>
</trkpt>
<trkpt lat="-27.2744343" lon="151.2900644">
  <ele>343.09</ele>
  <time>2026-09-01T20:02:37Z</time>
  <course>8.45</course>
  <speed>0.0</speed>
  <fix>3d</fix>
</trkpt>
<trkpt lat="20.9309901" lon="-155.1474817">
  <ele>163.51</ele>
  <time>2026-09-01T20:02:38Z</time>
  <course>178.93</course>
  <speed>0.0</speed>
  <fix>3d</fix>
</trkpt>
<trkpt lat="20.9309901" lon="-155.1474817">
  <ele>163.51</ele>
  <time>2026-09-01T20:02:38Z</time>
  <course>178.93</course>
  <speed>0.0</speed>
  <fix>3d</fix>
</trkpt>
<trkpt lat="21.1656422" lon="-156.8868015">
  <ele>-0.01</ele>
  <time>2026-09-01T20:02:38Z</time>
  <course>353.0</course>
  <speed>0.0</speed>
  <fix>3d</fix>
</trkpt>
<trkpt lat="21.1656422" lon="-156.8868015">
  <ele>165.35</ele>
  <time>2026-09-01T20:02:38Z</time>
  <course>179.96</course>
  <speed>0.0</speed>
  <fix>3d</fix>
</trkpt>
<trkpt lat="21.1656422" lon="-156.8868015">
  <ele>0.01</ele>
  <time>2026-09-01T20:02:38Z</time>
  <course>353.9</course>
  <speed>0.0</speed>
  <fix>3d</fix>
</trkpt>
<trkpt lat="21.1656422" lon="-156.8868015">
  <ele>165.35</ele>
  <time>2026-09-01T20:02:38Z</time>
  <course>179.96</course>
  <speed>0.0</speed>
  <fix>3d</fix>
</trkpt>
<trkpt lat="21.1656422" lon="-156.8868015">
  <ele>-0.07</ele>
  <time>2026-09-01T20:02:38Z</time>
  <course>354.71</course>
  <speed>0.0</speed>
  <fix>3d</fix>
</trkpt>
<trkpt lat="21.1656422" lon="-156.8868015">
  <ele>165.35</ele>
  <time>2026-09-01T20:02:38Z</time>
  <course>180.69</course>
  <speed>0.0</speed>
  <fix>3d</fix>
</trkpt>
<trkpt lat="21.1656422" lon="-156.8868015">
  <ele>0.22</ele>
  <time>2026-09-01T20:02:38Z</time>
  <course>355.46</course>
  <speed>0.0</speed>
  <fix>3d</fix>
</trkpt>
<trkpt lat="21.1656422" lon="-156.8868015">
  <ele>165.35</ele>
  <time>2026-09-01T20:02:38Z</time>
  <course>180.69</course>
  <speed>0.0</speed>
  <fix>3d</fix>
</trkpt>
<trkpt lat="21.1656422" lon="-156.8868015">
  <ele>0.1</ele>
  <time>2026-09-01T20:02:38Z</time>
  <course>356.14</course>
  <speed>0.0</speed>
  <fix>3d</fix>
</trkpt>
<trkpt lat="21.1656422" lon="-156.8868015">
  <ele>165.35</ele>
  <time>2026-09-01T20:02:38Z</time>
  <course>180.77</course>
  <speed>0.0</speed>
  <fix>3d</fix>
</trkpt>
<trkpt lat="21.1656422" lon="-156.8868015">
  <ele>0.08</ele>
  <time>2026-09-01T20:02:38Z</time>
  <course>356.76</course>
  <speed>0.0</speed>
  <fix>3d</fix>
</trkpt>
<trkpt lat="21.1656422" lon="-156.8868015">
  <ele>165.35</ele>
  <time>2026-09-01T20:02:38Z</time>
  <course>180.77</course>
  <speed>0.0</speed>
  <fix>3d</fix>
</trkpt>
<trkpt lat="21.1656422" lon="-156.8868015">
  <ele>0.09</ele>
  <time>2026-09-01T20:02:38Z</time>
  <course>357.33</course>
  <speed>0.0</speed>
  <fix>3d</fix>
</trkpt>
<trkpt lat="21.1656422" lon="-156.8868015">
  <ele>165.35</ele>
  <time>2026-09-01T20:02:38Z</time>
  <course>180.78</course>
  <speed>0.0</speed>
  <fix>3d</fix>
</trkpt>
<trkpt lat="21.1656422" lon="-156.8868015">
  <ele>-0.05</ele>
  <time>2026-09-01T20:02:38Z</time>
  <course>357.83</course>
  <speed>0.0</speed>
  <fix>3d</fix>
</trkpt>
<trkpt lat="21.1656422" lon="-156.8868015">
  <ele>165.35</ele>
  <time>2026-09-01T20:02:38Z</time>
  <course>180.78</course>
  <speed>0.0</speed>
  <fix>3d</fix>
</trkpt>
<trkpt lat="21.1656422" lon="-156.8868015">
  <ele>165.31</ele>
  <time>2026-09-01T20:02:38Z</time>
  <course>358.28</course>
  <speed>0.0</speed>
  <fix>3d</fix>
</trkpt>
<trkpt lat="21.1656422" lon="-156.8868015">
  <ele>165.35</ele>
  <time>2026-09-01T20:02:38Z</time>
  <course>180.78</course>
  <speed>0.0</speed>
  <fix>3d</fix>
</trkpt>
<trkpt lat="21.1656422" lon="-156.8868015">
  <ele>165.43</ele>
  <time>2026-09-01T20:02:38Z</time>
  <course>358.7</course>
  <speed>0.0</speed>
  <fix>3d</fix>
</trkpt>
<trkpt lat="21.1656422" lon="-156.8868015">
  <ele>165.35</ele>
  <time>2026-09-01T20:02:38Z</time>
  <course>180.78</course>
  <speed>0.0</speed>
  <fix>3d</fix>
</trkpt>
<trkpt lat="21.1656422" lon="-156.8868015">
  <ele>165.16</ele>
  <time>2026-09-01T20:02:38Z</time>
  <course>359.08</course>
  <speed>0.0</speed>
  <fix>3d</fix>
</trkpt>
<trkpt lat="21.1656422" lon="-156.8868015">
  <ele>165.35</ele>
  <time>2026-09-01T20:02:38Z</time>
  <course>180.78</course>
  <speed>0.0</speed>
  <fix>3d</fix>
</trkpt>
<trkpt lat="21.1656422" lon="-156.8868015">
  <ele>165.31</ele>
  <time>2026-09-01T20:02:38Z</time>
  <course>359.43</course>
  <speed>0.0</speed>
  <fix>3d</fix>
</trkpt>
<trkpt lat="21.1656422" lon="-156.8868015">
  <ele>165.35</ele>
  <time>2026-09-01T20:02:38Z</time>
  <course>180.78</course>
  <speed>0.0</speed>
  <fix>3d</fix>
</trkpt>
<trkpt lat="21.1656422" lon="-156.8868015">
  <ele>165.38</ele>
  <time>2026-09-01T20:02:38Z</time>
  <course>359.74</course>
  <speed>0.0</speed>
  <fix>3d</fix>
</trkpt>
<trkpt lat="21.1656422" lon="-156.8868015">
  <ele>165.35</ele>
  <time>2026-09-01T20:02:38Z</time>
  <course>180.78</course>
  <speed>0.0</speed>
  <fix>3d</fix>
</trkpt>
<trkpt lat="21.1656422" lon="-156.8868015">
  <ele>165.29</ele>
  <time>2026-09-01T20:02:38Z</time>
  <course>0.02</course>
  <speed>0.0</speed>
  <fix>3d</fix>
</trkpt>
<trkpt lat="21.1656422" lon="-156.8868015">
  <ele>165.35</ele>
  <time>2026-09-01T20:02:38Z</time>
  <course>180.78</course>
  <speed>0.0</speed>
  <fix>3d</fix>
</trkpt>
<trkpt lat="21.1656422" lon="-156.8868015">
  <ele>165.13</ele>
  <time>2026-09-01T20:02:38Z</time>
  <course>0.27</course>
  <speed>0.0</speed>
  <fix>3d</fix>
</trkpt>
<trkpt lat="21.1656422" lon="-156.8868015">
  <ele>165.35</ele>
  <time>2026-09-01T20:02:38Z</time>
  <course>180.78</course>
  <speed>0.0</speed>
  <fix>3d</fix>
</trkpt>
<trkpt lat="21.1656422" lon="-156.8868015">
  <ele>165.27</ele>
  <time>2026-09-01T20:02:38Z</time>
  <course>0.5</course>
  <speed>0.0</speed>
  <fix>3d</fix>
</trkpt>
<trkpt lat="21.1656422" lon="-156.8868015">
  <ele>165.35</ele>
  <time>2026-09-01T20:02:38Z</time>
  <course>180.78</course>
  <speed>0.0</speed>
  <fix>3d</fix>
</trkpt>
<trkpt lat="21.1656422" lon="-156.8868015">
  <ele>165.48</ele>
  <time>2026-09-01T20:02:38Z</time>
  <course>0.72</course>
  <speed>0.0</speed>
  <fix>3d</fix>
</trkpt>
<trkpt lat="21.1656422" lon="-156.8868015">
  <ele>165.35</ele>
  <time>2026-09-01T20:02:38Z</time>
  <course>180.78</course>
  <speed>0.0</speed>
  <fix>3d</fix>
</trkpt>
<trkpt lat="21.1656422" lon="-156.8868015">
  <ele>165.42</ele>
  <time>2026-09-01T20:02:38Z</time>
  <course>0.9</course>
  <speed>0.0</speed>
  <fix>3d</fix>
</trkpt>
<trkpt lat="21.1656422" lon="-156.8868015">
  <ele>165.35</ele>
  <time>2026-09-01T20:02:38Z</time>
  <course>180.78</course>
  <speed>0.0</speed>
  <fix>3d</fix>
</trkpt>
<trkpt lat="21.1656422" lon="-156.8868015">
  <ele>165.29</ele>
  <time>2026-09-01T20:02:38Z</time>
  <course>1.07</course>
  <speed>0.0</speed>
  <fix>3d</fix>
</trkpt>
<trkpt lat="21.1656422" lon="-156.8868015">
  <ele>165.35</ele>
  <time>2026-09-01T20:02:38Z</time>
  <course>180.78</course>
  <speed>0.0</speed>
  <fix>3d</fix>
</trkpt>
<trkpt lat="21.1656422" lon="-156.8868015">
  <ele>165.13</ele>
  <time>2026-09-01T20:02:38Z</time>
  <course>1.22</course>
  <speed>0.0</speed>
  <fix>3d</fix>
</trkpt>
<trkpt lat="21.1656422" lon="-156.8868015">
  <ele>165.35</ele>
  <time>2026-09-01T20:02:38Z</time>
  <course>180.78</course>
  <speed>0.0</speed>
  <fix>3d</fix>
</trkpt>
<trkpt lat="21.1656422" lon="-156.8868015">
  <ele>165.33</ele>
  <time>2026-09-01T20:02:38Z</time>
  <course>1.36</course>
  <speed>0.0</speed>
  <fix>3d</fix>
</trkpt>
<trkpt lat="21.1656422" lon="-156.8868015">
  <ele>165.35</ele>
  <time>2026-09-01T20:02:38Z</time>
  <course>180.78</course>
  <speed>0.0</speed>
  <fix>3d</fix>
</trkpt>
<trkpt lat="21.1656422" lon="-156.8868015">
  <ele>165.44</ele>
  <time>2026-09-01T20:02:38Z</time>
  <course>1.48</course>
  <speed>0.0</speed>
  <fix>3d</fix>
</trkpt>
<trkpt lat="21.1656422" lon="-156.8868015">
  <ele>165.35</ele>
  <time>2026-09-01T20:02:38Z</time>
  <course>180.78</course>
  <speed>0.0</speed>
  <fix>3d</fix>
</trkpt>
<trkpt lat="21.1656422" lon="-156.8868015">
  <ele>165.13</ele>
  <time>2026-09-01T20:02:38Z</time>
  <course>1.6</course>
  <speed>0.0</speed>
  <fix>3d</fix>
</trkpt>
<trkpt lat="21.1656422" lon="-156.8868015">
  <ele>165.35</ele>
  <time>2026-09-01T20:02:38Z</time>
  <course>180.78</course>
  <speed>0.0</speed>
  <fix>3d</fix>
</trkpt>
<trkpt lat="21.1656422" lon="-156.8868015">
  <ele>165.42</ele>
  <time>2026-09-01T20:02:38Z</time>
  <course>1.7</course>
  <speed>0.0</speed>
  <fix>3d</fix>
</trkpt>
<trkpt lat="21.1656422" lon="-156.8868015">
  <ele>165.35</ele>
  <time>2026-09-01T20:02:38Z</time>
  <course>180.78</course>
  <speed>0.0</speed>
  <fix>3d</fix>
</trkpt>
<trkpt lat="21.1656422" lon="-156.8868015">
  <ele>165.14</ele>
  <time>2026-09-01T20:02:38Z</time>
  <course>1.79</course>
  <speed>0.0</speed>
  <fix>3d</fix>
</trkpt>
<trkpt lat="21.1656422" lon="-156.8868015">
  <ele>165.35</ele>
  <time>2026-09-01T20:02:38Z</time>
  <course>180.78</course>
  <speed>0.0</speed>
  <fix>3d</fix>
</trkpt>
<trkpt lat="21.1656422" lon="-156.8868015">
  <ele>165.23</ele>
  <time>2026-09-01T20:02:38Z</time>
  <course>1.87</course>
  <speed>0.0</speed>
  <fix>3d</fix>
</trkpt>
<trkpt lat="21.1656422" lon="-156.8868015">
  <ele>165.35</ele>
  <time>2026-09-01T20:02:38Z</time>
  <course>180.78</course>
  <speed>0.0</speed>
  <fix>3d</fix>
</trkpt>
<trkpt lat="21.1656422" lon="-156.8868015">
  <ele>165.12</ele>
  <time>2026-09-01T20:02:38Z</time>
  <course>1.95</course>
  <speed>0.0</speed>
  <fix>3d</fix>
</trkpt>
<trkpt lat="21.1656422" lon="-156.8868015">
  <ele>165.35</ele>
  <time>2026-09-01T20:02:38Z</time>
  <course>180.78</course>
  <speed>0.0</speed>
  <fix>3d</fix>
</trkpt>
<trkpt lat="21.1656422" lon="-156.8868015">
  <ele>165.34</ele>
  <time>2026-09-01T20:02:38Z</time>
  <course>2.02</course>
  <speed>0.0</speed>
  <fix>3d</fix>
</trkpt>
<trkpt lat="21.1656422" lon="-156.8868015">
  <ele>165.35</ele>
  <time>2026-09-01T20:02:38Z</time>
  <course>180.78</course>
  <speed>0.0</speed>
  <fix>3d</fix>
</trkpt>
<trkpt lat="21.1656422" lon="-156.8868015">
  <ele>165.43</ele>
  <time>2026-09-01T20:02:38Z</time>
  <course>2.09</course>
  <speed>0.0</speed>
  <fix>3d</fix>
</trkpt>
<trkpt lat="21.1656422" lon="-156.8868015">
  <ele>165.35</ele>
  <time>2026-09-01T20:02:38Z</time>
  <course>180.78</course>
  <speed>0.0</speed>
  <fix>3d</fix>
</trkpt>
<trkpt lat="21.1656422" lon="-156.8868015">
  <ele>165.3</ele>
  <time>2026-09-01T20:02:38Z</time>
  <course>2.15</course>
  <speed>0.0</speed>
  <fix>3d</fix>
</trkpt>
<trkpt lat="21.1656422" lon="-156.8868015">
  <ele>165.35</ele>
  <time>2026-09-01T20:02:38Z</time>
  <course>180.78</course>
  <speed>0.0</speed>
  <fix>3d</fix>
</trkpt>
<trkpt lat="21.1656422" lon="-156.8868015">
  <ele>165.2</ele>
  <time>2026-09-01T20:02:38Z</time>
  <course>2.2</course>
  <speed>0.0</speed>
  <fix>3d</fix>
</trkpt>
<trkpt lat="21.1656422" lon="-156.8868015">
  <ele>165.35</ele>
  <time>2026-09-01T20:02:38Z</time>
  <course>180.78</course>
  <speed>0.0</speed>
  <fix>3d</fix>
</trkpt>
<trkpt lat="21.1656422" lon="-156.8868015">
  <ele>165.35</ele>
  <time>2026-09-01T20:02:38Z</time>
  <course>2.25</course>
  <speed>0.0</speed>
  <fix>3d</fix>
</trkpt>
<trkpt lat="21.1656422" lon="-156.8868015">
  <ele>165.35</ele>
  <time>2026-09-01T20:02:38Z</time>
  <course>180.78</course>
  <speed>0.0</speed>
  <fix>3d</fix>
</trkpt>
<trkpt lat="21.1656422" lon="-156.8868015">
  <ele>165.46</ele>
  <time>2026-09-01T20:02:38Z</time>
  <course>2.29</course>
  <speed>0.0</speed>
  <fix>3d</fix>
</trkpt>
<trkpt lat="21.1656422" lon="-156.8868015">
  <ele>165.35</ele>
  <time>2026-09-01T20:02:38Z</time>
  <course>180.78</course>
  <speed>0.0</speed>
  <fix>3d</fix>
</trkpt>
<trkpt lat="21.1656422" lon="-156.8868015">
  <ele>165.42</ele>
  <time>2026-09-01T20:02:38Z</time>
  <course>2.33</course>
  <speed>0.0</speed>
  <fix>3d</fix>
</trkpt>
<trkpt lat="21.1656422" lon="-156.8868015">
  <ele>165.35</ele>
  <time>2026-09-01T20:02:38Z</time>
  <course>180.78</course>
  <speed>0.0</speed>
  <fix>3d</fix>
</trkpt>
<trkpt lat="21.1656422" lon="-156.8868015">
  <ele>165.32</ele>
  <time>2026-09-01T20:02:38Z</time>
  <course>2.37</course>
  <speed>0.0</speed>
  <fix>3d</fix>
</trkpt>
<trkpt lat="21.1656422" lon="-156.8868015">
  <ele>165.35</ele>
  <time>2026-09-01T20:02:38Z</time>
  <course>180.78</course>
  <speed>0.0</speed>
  <fix>3d</fix>
</trkpt>
<trkpt lat="21.1656422" lon="-156.8868015">
  <ele>165.3</ele>
  <time>2026-09-01T20:02:38Z</time>
  <course>2.4</course>
  <speed>0.0</speed>
  <fix>3d</fix>
</trkpt>
<trkpt lat="21.1656422" lon="-156.8868015">
  <ele>165.35</ele>
  <time>2026-09-01T20:02:38Z</time>
  <course>180.78</course>
  <speed>0.0</speed>
  <fix>3d</fix>
</trkpt>
<trkpt lat="21.1656422" lon="-156.8868015">
  <ele>165.43</ele>
  <time>2026-09-01T20:02:38Z</time>
  <course>2.43</course>
  <speed>0.0</speed>
  <fix>3d</fix>
</trkpt>
<trkpt lat="21.1656422" lon="-156.8868015">
  <ele>165.35</ele>
  <time>2026-09-01T20:02:38Z</time>
  <course>180.78</course>
  <speed>0.0</speed>
  <fix>3d</fix>
</trkpt>
<trkpt lat="21.1656422" lon="-156.8868015">
  <ele>165.36</ele>
  <time>2026-09-01T20:02:38Z</time>
  <course>2.46</course>
  <speed>0.0</speed>
  <fix>3d</fix>
</trkpt>
<trkpt lat="21.1656422" lon="-156.8868015">
  <ele>165.35</ele>
  <time>2026-09-01T20:02:38Z</time>
  <course>180.78</course>
  <speed>0.0</speed>
  <fix>3d</fix>
</trkpt>
<trkpt lat="21.1656422" lon="-156.8868015">
  <ele>165.29</ele>
  <time>2026-09-01T20:02:38Z</time>
  <course>2.48</course>
  <speed>0.0</speed>
  <fix>3d</fix>
</trkpt>
<trkpt lat="21.1656422" lon="-156.8868015">
  <ele>165.35</ele>
  <time>2026-09-01T20:02:38Z</time>
  <course>180.78</course>
  <speed>0.0</speed>
  <fix>3d</fix>
</trkpt>
<trkpt lat="21.1656422" lon="-156.8868015">
  <ele>165.32</ele>
  <time>2026-09-01T20:02:38Z</time>
  <course>2.5</course>
  <speed>0.0</speed>
  <fix>3d</fix>
</trkpt>
<trkpt lat="21.1656422" lon="-156.8868015">
  <ele>165.35</ele>
  <time>2026-09-01T20:02:38Z</time>
  <course>180.78</course>
  <speed>0.0</speed>
  <fix>3d</fix>
</trkpt>
<trkpt lat="21.1656422" lon="-156.8868015">
  <ele>165.3</ele>
  <time>2026-09-01T20:02:38Z</time>
  <course>2.52</course>
  <speed>0.0</speed>
  <fix>3d</fix>
</trkpt>
<trkpt lat="21.1656422" lon="-156.8868015">
  <ele>165.35</ele>
  <time>2026-09-01T20:02:38Z</time>
  <course>180.78</course>
  <speed>0.0</speed>
  <fix>3d</fix>
</trkpt>
<trkpt lat="21.1656422" lon="-156.8868015">
  <ele>165.26</ele>
  <time>2026-09-01T20:02:38Z</time>
  <course>2.54</course>
  <speed>0.0</speed>
  <fix>3d</fix>
</trkpt>
<trkpt lat="21.1656422" lon="-156.8868015">
  <ele>165.35</ele>
  <time>2026-09-01T20:02:38Z</time>
  <course>180.78</course>
  <speed>0.0</speed>
  <fix>3d</fix>
</trkpt>
<trkpt lat="21.1656422" lon="-156.8868015">
  <ele>165.45</ele>
  <time>2026-09-01T20:02:38Z</time>
  <course>2.56</course>
  <speed>0.0</speed>
  <fix>3d</fix>
</trkpt>
<trkpt lat="21.1656422" lon="-156.8868015">
  <ele>165.35</ele>
  <time>2026-09-01T20:02:38Z</time>
  <course>180.78</course>
  <speed>0.0</speed>
  <fix>3d</fix>
</trkpt>
<trkpt lat="21.1656422" lon="-156.8868015">
  <ele>165.49</ele>
  <time>2026-09-01T20:02:38Z</time>
  <course>2.57</course>
  <speed>0.0</speed>
  <fix>3d</fix>
</trkpt>
<trkpt lat="21.1656422" lon="-156.8868015">
  <ele>165.35</ele>
  <time>2026-09-01T20:02:38Z</time>
  <course>180.78</course>
  <speed>0.0</speed>
  <fix>3d</fix>
</trkpt>
<trkpt lat="21.1656422" lon="-156.8868015">
  <ele>165.13</ele>
  <time>2026-09-01T20:02:38Z</time>
  <course>2.58</course>
  <speed>0.0</speed>
  <fix>3d</fix>
</trkpt>
<trkpt lat="21.1656422" lon="-156.8868015">
  <ele>165.35</ele>
  <time>2026-09-01T20:02:38Z</time>
  <course>180.78</course>
  <speed>0.0</speed>
  <fix>3d</fix>
</trkpt>
<trkpt lat="21.1656422" lon="-156.8868015">
  <ele>165.46</ele>
  <time>2026-09-01T20:02:38Z</time>
  <course>2.6</course>
  <speed>0.0</speed>
  <fix>3d</fix>
</trkpt>
<trkpt lat="21.1656422" lon="-156.8868015">
  <ele>165.35</ele>
  <time>2026-09-01T20:02:38Z</time>
  <course>180.78</course>
  <speed>0.0</speed>
  <fix>3d</fix>
</trkpt>
<trkpt lat="21.1656422" lon="-156.8868015">
  <ele>165.27</ele>
  <time>2026-09-01T20:02:38Z</time>
  <course>2.61</course>
  <speed>0.0</speed>
  <fix>3d</fix>
</trkpt>
<trkpt lat="21.1656422" lon="-156.8868015">
  <ele>165.35</ele>
  <time>2026-09-01T20:02:38Z</time>
  <course>180.78</course>
  <speed>0.0</speed>
  <fix>3d</fix>
</trkpt>
<trkpt lat="21.1656422" lon="-156.8868015">
  <ele>165.18</ele>
  <time>2026-09-01T20:02:38Z</time>
  <course>2.62</course>
  <speed>0.0</speed>
  <fix>3d</fix>
</trkpt>
<trkpt lat="21.1656422" lon="-156.8868015">
  <ele>165.35</ele>
  <time>2026-09-01T20:02:38Z</time>
  <course>180.78</course>
  <speed>0.0</speed>
  <fix>3d</fix>
</trkpt>
<trkpt lat="21.1656422" lon="-156.8868015">
  <ele>165.32</ele>
  <time>2026-09-01T20:02:38Z</time>
  <course>2.63</course>
  <speed>0.0</speed>
  <fix>3d</fix>
</trkpt>
<trkpt lat="21.1656422" lon="-156.8868015">
  <ele>165.35</ele>
  <time>2026-09-01T20:02:38Z</time>
  <course>180.78</course>
  <speed>0.0</speed>
  <fix>3d</fix>
</trkpt>
<trkpt lat="21.1656422" lon="-156.8868015">
  <ele>165.19</ele>
  <time>2026-09-01T20:02:38Z</time>
  <course>2.63</course>
  <speed>0.0</speed>
  <fix>3d</fix>
</trkpt>
<trkpt lat="21.1656422" lon="-156.8868015">
  <ele>165.35</ele>
  <time>2026-09-01T20:02:38Z</time>
  <course>180.78</course>
  <speed>0.0</speed>
  <fix>3d</fix>
</trkpt>
<trkpt lat="21.1656422" lon="-156.8868015">
  <ele>165.35</ele>
  <time>2026-09-01T20:02:38Z</time>
  <course>2.64</course>
  <speed>0.0</speed>
  <fix>3d</fix>
</trkpt>
<trkpt lat="21.1656422" lon="-156.8868015">
  <ele>165.35</ele>
  <time>2026-09-01T20:02:38Z</time>
  <course>180.78</course>
  <speed>0.0</speed>
  <fix>3d</fix>
</trkpt>
<trkpt lat="21.1656422" lon="-156.8868015">
  <ele>165.49</ele>
  <time>2026-09-01T20:02:38Z</time>
  <course>2.65</course>
  <speed>0.0</speed>
  <fix>3d</fix>
</trkpt>
<trkpt lat="21.1656422" lon="-156.8868015">
  <ele>165.35</ele>
  <time>2026-09-01T20:02:38Z</time>
  <course>180.78</course>
  <speed>0.0</speed>
  <fix>3d</fix>
</trkpt>
<trkpt lat="21.1656422" lon="-156.8868015">
  <ele>165.43</ele>
  <time>2026-09-01T20:02:38Z</time>
  <course>2.65</course>
  <speed>0.0</speed>
  <fix>3d</fix>
</trkpt>
<trkpt lat="21.1656422" lon="-156.8868015">
  <ele>165.35</ele>
  <time>2026-09-01T20:02:38Z</time>
  <course>180.78</course>
  <speed>0.0</speed>
  <fix>3d</fix>
</trkpt>
<trkpt lat="21.1656422" lon="-156.8868015">
  <ele>165.14</ele>
  <time>2026-09-01T20:02:38Z</time>
  <course>2.66</course>
  <speed>0.0</speed>
  <fix>3d</fix>
</trkpt>
<trkpt lat="21.1656422" lon="-156.8868015">
  <ele>165.35</ele>
  <time>2026-09-01T20:02:38Z</time>
  <course>180.78</course>
  <speed>0.0</speed>
  <fix>3d</fix>
</trkpt>
<trkpt lat="21.1656422" lon="-156.8868015">
  <ele>165.48</ele>
  <time>2026-09-01T20:02:38Z</time>
  <course>2.66</course>
  <speed>0.0</speed>
  <fix>3d</fix>
</trkpt>
<trkpt lat="21.1656422" lon="-156.8868015">
  <ele>165.35</ele>
  <time>2026-09-01T20:02:38Z</time>
  <course>180.78</course>
  <speed>0.0</speed>
  <fix>3d</fix>
</trkpt>
<trkpt lat="21.1656422" lon="-156.8868015">
  <ele>165.47</ele>
  <time>2026-09-01T20:02:38Z</time>
  <course>2.67</course>
  <speed>0.0</speed>
  <fix>3d</fix>
</trkpt>
<trkpt lat="21.1656422" lon="-156.8868015">
  <ele>165.35</ele>
  <time>2026-09-01T20:02:38Z</time>
  <course>180.78</course>
  <speed>0.0</speed>
  <fix>3d</fix>
</trkpt>
<trkpt lat="21.1656422" lon="-156.8868015">
  <ele>165.23</ele>
  <time>2026-09-01T20:02:38Z</time>
  <course>2.67</course>
  <speed>0.0</speed>
  <fix>3d</fix>
</trkpt>
<trkpt lat="21.1656422" lon="-156.8868015">
  <ele>165.35</ele>
  <time>2026-09-01T20:02:38Z</time>
  <course>180.78</course>
  <speed>0.0</speed>
  <fix>3d</fix>
</trkpt>
<trkpt lat="21.1656422" lon="-156.8868015">
  <ele>165.38</ele>
  <time>2026-09-01T20:02:38Z</time>
  <course>2.68</course>
  <speed>0.0</speed>
  <fix>3d</fix>
</trkpt>
<trkpt lat="21.1656422" lon="-156.8868015">
  <ele>165.35</ele>
  <time>2026-09-01T20:02:38Z</time>
  <course>180.78</course>
  <speed>0.0</speed>
  <fix>3d</fix>
</trkpt>
<trkpt lat="21.1656422" lon="-156.8868015">
  <ele>165.32</ele>
  <time>2026-09-01T20:02:38Z</time>
  <course>2.68</course>
  <speed>0.0</speed>
  <fix>3d</fix>
</trkpt>
<trkpt lat="21.1656422" lon="-156.8868015">
  <ele>165.35</ele>
  <time>2026-09-01T20:02:38Z</time>
  <course>180.78</course>
  <speed>0.0</speed>
  <fix>3d</fix>
</trkpt>
<trkpt lat="21.1656422" lon="-156.8868015">
  <ele>165.45</ele>
  <time>2026-09-01T20:02:38Z</time>
  <course>2.68</course>
  <speed>0.0</speed>
  <fix>3d</fix>
</trkpt>
<trkpt lat="21.1656422" lon="-156.8868015">
  <ele>165.35</ele>
  <time>2026-09-01T20:02:38Z</time>
  <course>180.78</course>
  <speed>0.0</speed>
  <fix>3d</fix>
</trkpt>
<trkpt lat="21.1656422" lon="-156.8868015">
  <ele>165.18</ele>
  <time>2026-09-01T20:02:38Z</time>
  <course>2.69</course>
  <speed>0.0</speed>
  <fix>3d</fix>
</trkpt>
<trkpt lat="21.1656422" lon="-156.8868015">
  <ele>165.35</ele>
  <time>2026-09-01T20:02:38Z</time>
  <course>180.78</course>
  <speed>0.0</speed>
  <fix>3d</fix>
</trkpt>
<trkpt lat="21.1656422" lon="-156.8868015">
  <ele>165.44</ele>
  <time>2026-09-01T20:02:38Z</time>
  <course>2.69</course>
  <speed>0.0</speed>
  <fix>3d</fix>
</trkpt>
<trkpt lat="21.1656422" lon="-156.8868015">
  <ele>165.35</ele>
  <time>2026-09-01T20:02:38Z</time>
  <course>180.78</course>
  <speed>0.0</speed>
  <fix>3d</fix>
</trkpt>
<trkpt lat="21.1656422" lon="-156.8868015">
  <ele>165.35</ele>
  <time>2026-09-01T20:02:38Z</time>
  <course>2.69</course>
  <speed>0.0</speed>
  <fix>3d</fix>
</trkpt>
<trkpt lat="21.1656422" lon="-156.8868015">
  <ele>165.35</ele>
  <time>2026-09-01T20:02:38Z</time>
  <course>180.78</course>
  <speed>0.0</speed>
  <fix>3d</fix>
</trkpt>
<trkpt lat="21.1656422" lon="-156.8868015">
  <ele>165.26</ele>
  <time>2026-09-01T20:02:38Z</time>
  <course>2.69</course>
  <speed>0.0</speed>
  <fix>3d</fix>
</trkpt>
<trkpt lat="21.1656422" lon="-156.8868015">
  <ele>165.35</ele>
  <time>2026-09-01T20:02:38Z</time>
  <course>180.78</course>
  <speed>0.0</speed>
  <fix>3d</fix>
</trkpt>
<trkpt lat="21.1656422" lon="-156.8868015">
  <ele>165.36</ele>
  <time>2026-09-01T20:02:38Z</time>
  <course>2.69</course>
  <speed>0.0</speed>
  <fix>3d</fix>
</trkpt>
<trkpt lat="21.1656422" lon="-156.8868015">
  <ele>165.35</ele>
  <time>2026-09-01T20:02:38Z</time>
  <course>180.78</course>
  <speed>0.0</speed>
  <fix>3d</fix>
</trkpt>
<trkpt lat="21.1656422" lon="-156.8868015">
  <ele>165.21</ele>
  <time>2026-09-01T20:02:38Z</time>
  <course>2.7</course>
  <speed>0.0</speed>
  <fix>3d</fix>
</trkpt>
<trkpt lat="21.1656422" lon="-156.8868015">
  <ele>165.35</ele>
  <time>2026-09-01T20:02:39Z</time>
  <course>180.78</course>
  <speed>0.0</speed>
  <fix>3d</fix>
</trkpt>
<trkpt lat="21.1656422" lon="-156.8868015">
  <ele>165.44</ele>
  <time>2026-09-01T20:02:39Z</time>
  <course>2.7</course>
  <speed>0.0</speed>
  <fix>3d</fix>
</trkpt>
<trkpt lat="21.1656422" lon="-156.8868015">
  <ele>165.35</ele>
  <time>2026-09-01T20:02:39Z</time>
  <course>180.78</course>
  <speed>0.0</speed>
  <fix>3d</fix>
</trkpt>
<trkpt lat="21.1656422" lon="-156.8868015">
  <ele>165.25</ele>
  <time>2026-09-01T20:02:39Z</time>
  <course>2.7</course>
  <speed>0.0</speed>
  <fix>3d</fix>
</trkpt>
<trkpt lat="21.1656422" lon="-156.8868015">
  <ele>165.35</ele>
  <time>2026-09-01T20:02:39Z</time>
  <course>180.78</course>
  <speed>0.0</speed>
  <fix>3d</fix>
</trkpt>
<trkpt lat="21.1656422" lon="-156.8868015">
  <ele>165.45</ele>
  <time>2026-09-01T20:02:39Z</time>
  <course>2.7</course>
  <speed>0.0</speed>
  <fix>3d</fix>
</trkpt>
<trkpt lat="21.1656422" lon="-156.8868015">
  <ele>165.35</ele>
  <time>2026-09-01T20:02:39Z</time>
  <course>180.78</course>
  <speed>0.0</speed>
  <fix>3d</fix>
</trkpt>
<trkpt lat="21.1656422" lon="-156.8868015">
  <ele>165.45</ele>
  <time>2026-09-01T20:02:39Z</time>
  <course>2.7</course>
  <speed>0.0</speed>
  <fix>3d</fix>
</trkpt>
<trkpt lat="21.1656422" lon="-156.8868015">
  <ele>165.35</ele>
  <time>2026-09-01T20:02:39Z</time>
  <course>180.78</course>
  <speed>0.0</speed>
  <fix>3d</fix>
</trkpt>
<trkpt lat="21.1656422" lon="-156.8868015">
  <ele>165.38</ele>
  <time>2026-09-01T20:02:39Z</time>
  <course>2.7</course>
  <speed>0.0</speed>
  <fix>3d</fix>
</trkpt>
<trkpt lat="21.1656422" lon="-156.8868015">
  <ele>165.35</ele>
  <time>2026-09-01T20:02:39Z</time>
  <course>180.78</course>
  <speed>0.0</speed>
  <fix>3d</fix>
</trkpt>
<trkpt lat="21.1656422" lon="-156.8868015">
  <ele>165.35</ele>
  <time>2026-09-01T20:02:39Z</time>
  <course>2.7</course>
  <speed>0.0</speed>
  <fix>3d</fix>
</trkpt>
<trkpt lat="21.1656422" lon="-156.8868015">
  <ele>165.35</ele>
  <time>2026-09-01T20:02:39Z</time>
  <course>180.78</course>
  <speed>0.0</speed>
  <fix>3d</fix>
</trkpt>
<trkpt lat="21.1656422" lon="-156.8868015">
  <ele>165.37</ele>
  <time>2026-09-01T20:02:39Z</time>
  <course>2.7</course>
  <speed>0.0</speed>
  <fix>3d</fix>
</trkpt>
<trkpt lat="21.1656422" lon="-156.8868015">
  <ele>165.35</ele>
  <time>2026-09-01T20:02:39Z</time>
  <course>180.78</course>
  <speed>0.0</speed>
  <fix>3d</fix>
</trkpt>
<trkpt lat="21.1656422" lon="-156.8868015">
  <ele>165.19</ele>
  <time>2026-09-01T20:02:39Z</time>
  <course>2.71</course>
  <speed>0.0</speed>
  <fix>3d</fix>
</trkpt>
<trkpt lat="21.1656422" lon="-156.8868015">
  <ele>165.35</ele>
  <time>2026-09-01T20:02:39Z</time>
  <course>180.78</course>
  <speed>0.0</speed>
  <fix>3d</fix>
</trkpt>
<trkpt lat="21.1656422" lon="-156.8868015">
  <ele>165.5</ele>
  <time>2026-09-01T20:02:39Z</time>
  <course>2.71</course>
  <speed>0.0</speed>
  <fix>3d</fix>
</trkpt>
<trkpt lat="21.1656422" lon="-156.8868015">
  <ele>165.35</ele>
  <time>2026-09-01T20:02:39Z</time>
  <course>180.78</course>
  <speed>0.0</speed>
  <fix>3d</fix>
</trkpt>
<trkpt lat="21.1656422" lon="-156.8868015">
  <ele>165.17</ele>
  <time>2026-09-01T20:02:39Z</time>
  <course>2.71</course>
  <speed>0.0</speed>
  <fix>3d</fix>
</trkpt>
<trkpt lat="21.1656422" lon="-156.8868015">
  <ele>165.35</ele>
  <time>2026-09-01T20:02:39Z</time>
  <course>180.78</course>
  <speed>0.0</speed>
  <fix>3d</fix>
</trkpt>
<trkpt lat="21.1656422" lon="-156.8868015">
  <ele>165.33</ele>
  <time>2026-09-01T20:02:39Z</time>
  <course>2.71</course>
  <speed>0.0</speed>
  <fix>3d</fix>
</trkpt>
<trkpt lat="21.1656422" lon="-156.8868015">
  <ele>165.35</ele>
  <time>2026-09-01T20:02:39Z</time>
  <course>180.78</course>
  <speed>0.0</speed>
  <fix>3d</fix>
</trkpt>
<trkpt lat="21.1656422" lon="-156.8868015">
  <ele>165.48</ele>
  <time>2026-09-01T20:02:39Z</time>
  <course>2.71</course>
  <speed>0.0</speed>
  <fix>3d</fix>
</trkpt>
<trkpt lat="21.1656422" lon="-156.8868015">
  <ele>165.35</ele>
  <time>2026-09-01T20:02:39Z</time>
  <course>180.78</course>
  <speed>0.0</speed>
  <fix>3d</fix>
</trkpt>
<trkpt lat="21.1656422" lon="-156.8868015">
  <ele>165.26</ele>
  <time>2026-09-01T20:02:39Z</time>
  <course>2.71</course>
  <speed>0.0</speed>
  <fix>3d</fix>
</trkpt>
<trkpt lat="21.1656422" lon="-156.8868015">
  <ele>165.35</ele>
  <time>2026-09-01T20:02:39Z</time>
  <course>180.78</course>
  <speed>0.0</speed>
  <fix>3d</fix>
</trkpt>
<trkpt lat="21.1656422" lon="-156.8868015">
  <ele>165.35</ele>
  <time>2026-09-01T20:02:39Z</time>
  <course>2.71</course>
  <speed>0.0</speed>
  <fix>3d</fix>
</trkpt>
<trkpt lat="21.1656422" lon="-156.8868015">
  <ele>165.35</ele>
  <time>2026-09-01T20:02:39Z</time>
  <course>180.78</course>
  <speed>0.0</speed>
  <fix>3d</fix>
</trkpt>
<trkpt lat="21.1656422" lon="-156.8868015">
  <ele>165.24</ele>
  <time>2026-09-01T20:02:39Z</time>
  <course>2.71</course>
  <speed>0.0</speed>
  <fix>3d</fix>
</trkpt>
<trkpt lat="21.1656422" lon="-156.8868015">
  <ele>165.35</ele>
  <time>2026-09-01T20:02:39Z</time>
  <course>180.78</course>
  <speed>0.0</speed>
  <fix>3d</fix>
</trkpt>
<trkpt lat="21.1656422" lon="-156.8868015">
  <ele>165.12</ele>
  <time>2026-09-01T20:02:39Z</time>
  <course>2.71</course>
  <speed>0.0</speed>
  <fix>3d</fix>
</trkpt>
<trkpt lat="21.1656422" lon="-156.8868015">
  <ele>165.35</ele>
  <time>2026-09-01T20:02:39Z</time>
  <course>180.78</course>
  <speed>0.0</speed>
  <fix>3d</fix>
</trkpt>
<trkpt lat="21.1656422" lon="-156.8868015">
  <ele>165.36</ele>
  <time>2026-09-01T20:02:39Z</time>
  <course>2.71</course>
  <speed>0.0</speed>
  <fix>3d</fix>
</trkpt>
<trkpt lat="21.1656422" lon="-156.8868015">
  <ele>165.35</ele>
  <time>2026-09-01T20:02:39Z</time>
  <course>180.78</course>
  <speed>0.0</speed>
  <fix>3d</fix>
</trkpt>
<trkpt lat="21.1656422" lon="-156.8868015">
  <ele>165.24</ele>
  <time>2026-09-01T20:02:39Z</time>
  <course>2.71</course>
  <speed>0.0</speed>
  <fix>3d</fix>
</trkpt>
<trkpt lat="21.1656422" lon="-156.8868015">
  <ele>165.35</ele>
  <time>2026-09-01T20:02:39Z</time>
  <course>180.78</course>
  <speed>0.0</speed>
  <fix>3d</fix>
</trkpt>
<trkpt lat="21.1656422" lon="-156.8868015">
  <ele>165.16</ele>
  <time>2026-09-01T20:02:39Z</time>
  <course>2.71</course>
  <speed>0.0</speed>
  <fix>3d</fix>
</trkpt>
<trkpt lat="21.1656422" lon="-156.8868015">
  <ele>165.35</ele>
  <time>2026-09-01T20:02:39Z</time>
  <course>180.78</course>
  <speed>0.0</speed>
  <fix>3d</fix>
</trkpt>
<trkpt lat="21.1656422" lon="-156.8868015">
  <ele>165.15</ele>
  <time>2026-09-01T20:02:39Z</time>
  <course>2.72</course>
  <speed>0.0</speed>
  <fix>3d</fix>
</trkpt>
<trkpt lat="21.1656422" lon="-156.8868015">
  <ele>165.35</ele>
  <time>2026-09-01T20:02:39Z</time>
  <course>180.78</course>
  <speed>0.0</speed>
  <fix>3d</fix>
</trkpt>
<trkpt lat="21.1656422" lon="-156.8868015">
  <ele>165.12</ele>
  <time>2026-09-01T20:02:39Z</time>
  <course>2.72</course>
  <speed>0.0</speed>
  <fix>3d</fix>
</trkpt>
<trkpt lat="21.1656422" lon="-156.8868015">
  <ele>165.35</ele>
  <time>2026-09-01T20:02:39Z</time>
  <course>180.78</course>
  <speed>0.0</speed>
  <fix>3d</fix>
</trkpt>
<trkpt lat="21.1656422" lon="-156.8868015">
  <ele>165.37</ele>
  <time>2026-09-01T20:02:39Z</time>
  <course>2.72</course>
  <speed>0.0</speed>
  <fix>3d</fix>
</trkpt>
<trkpt lat="21.1656422" lon="-156.8868015">
  <ele>165.35</ele>
  <time>2026-09-01T20:02:39Z</time>
  <course>180.78</course>
  <speed>0.0</speed>
  <fix>3d</fix>
</trkpt>
<trkpt lat="21.1656422" lon="-156.8868015">
  <ele>165.24</ele>
  <time>2026-09-01T20:02:39Z</time>
  <course>2.72</course>
  <speed>0.0</speed>
  <fix>3d</fix>
</trkpt>
<trkpt lat="21.1656422" lon="-156.8868015">
  <ele>165.35</ele>
  <time>2026-09-01T20:02:39Z</time>
  <course>180.78</course>
  <speed>0.0</speed>
  <fix>3d</fix>
</trkpt>
<trkpt lat="21.1656422" lon="-156.8868015">
  <ele>165.38</ele>
  <time>2026-09-01T20:02:39Z</time>
  <course>2.72</course>
  <speed>0.0</speed>
  <fix>3d</fix>
</trkpt>
<trkpt lat="21.1656422" lon="-156.8868015">
  <ele>165.35</ele>
  <time>2026-09-01T20:02:39Z</time>
  <course>180.78</course>
  <speed>0.0</speed>
  <fix>3d</fix>
</trkpt>
<trkpt lat="21.1656422" lon="-156.8868015">
  <ele>165.25</ele>
  <time>2026-09-01T20:02:39Z</time>
  <course>2.72</course>
  <speed>0.0</speed>
  <fix>3d</fix>
</trkpt>
<trkpt lat="21.1656422" lon="-156.8868015">
  <ele>165.35</ele>
  <time>2026-09-01T20:02:39Z</time>
  <course>180.78</course>
  <speed>0.0</speed>
  <fix>3d</fix>
</trkpt>
<trkpt lat="21.1656422" lon="-156.8868015">
  <ele>165.41</ele>
  <time>2026-09-01T20:02:39Z</time>
  <course>2.72</course>
  <speed>0.0</speed>
  <fix>3d</fix>
</trkpt>
<trkpt lat="21.1656422" lon="-156.8868015">
  <ele>165.35</ele>
  <time>2026-09-01T20:02:39Z</time>
  <course>180.78</course>
  <speed>0.0</speed>
  <fix>3d</fix>
</trkpt>
<trkpt lat="21.1656422" lon="-156.8868015">
  <ele>165.24</ele>
  <time>2026-09-01T20:02:39Z</time>
  <course>2.72</course>
  <speed>0.0</speed>
  <fix>3d</fix>
</trkpt>
<trkpt lat="21.1656422" lon="-156.8868015">
  <ele>165.35</ele>
  <time>2026-09-01T20:02:39Z</time>
  <course>180.78</course>
  <speed>0.0</speed>
  <fix>3d</fix>
</trkpt>
<trkpt lat="21.1656422" lon="-156.8868015">
  <ele>165.24</ele>
  <time>2026-09-01T20:02:39Z</time>
  <course>2.72</course>
  <speed>0.0</speed>
  <fix>3d</fix>
</trkpt>
<trkpt lat="21.1656422" lon="-156.8868015">
  <ele>165.35</ele>
  <time>2026-09-01T20:02:39Z</time>
  <course>180.78</course>
  <speed>0.0</speed>
  <fix>3d</fix>
</trkpt>
<trkpt lat="21.1656422" lon="-156.8868015">
  <ele>165.42</ele>
  <time>2026-09-01T20:02:39Z</time>
  <course>2.72</course>
  <speed>0.0</speed>
  <fix>3d</fix>
</trkpt>
<trkpt lat="21.1656422" lon="-156.8868015">
  <ele>165.35</ele>
  <time>2026-09-01T20:02:39Z</time>
  <course>180.78</course>
  <speed>0.0</speed>
  <fix>3d</fix>
</trkpt>
<trkpt lat="21.1656422" lon="-156.8868015">
  <ele>165.41</ele>
  <time>2026-09-01T20:02:39Z</time>
  <course>2.72</course>
  <speed>0.0</speed>
  <fix>3d</fix>
</trkpt>
<trkpt lat="21.1656422" lon="-156.8868015">
  <ele>165.35</ele>
  <time>2026-09-01T20:02:39Z</time>
  <course>180.78</course>
  <speed>0.0</speed>
  <fix>3d</fix>
</trkpt>
<trkpt lat="21.1656422" lon="-156.8868015">
  <ele>165.12</ele>
  <time>2026-09-01T20:02:39Z</time>
  <course>2.72</course>
  <speed>0.0</speed>
  <fix>3d</fix>
</trkpt>
<trkpt lat="21.1656422" lon="-156.8868015">
  <ele>165.35</ele>
  <time>2026-09-01T20:02:39Z</time>
  <course>180.78</course>
  <speed>0.0</speed>
  <fix>3d</fix>
</trkpt>
<trkpt lat="21.1656422" lon="-156.8868015">
  <ele>165.44</ele>
  <time>2026-09-01T20:02:39Z</time>
  <course>2.72</course>
  <speed>0.0</speed>
  <fix>3d</fix>
</trkpt>
<trkpt lat="21.1656422" lon="-156.8868015">
  <ele>165.35</ele>
  <time>2026-09-01T20:02:39Z</time>
  <course>180.78</course>
  <speed>0.0</speed>
  <fix>3d</fix>
</trkpt>
<trkpt lat="21.1656422" lon="-156.8868015">
  <ele>165.41</ele>
  <time>2026-09-01T20:02:39Z</time>
  <course>2.72</course>
  <speed>0.0</speed>
  <fix>3d</fix>
</trkpt>
<trkpt lat="21.1656422" lon="-156.8868015">
  <ele>165.35</ele>
  <time>2026-09-01T20:02:39Z</time>
  <course>180.78</course>
  <speed>0.0</speed>
  <fix>3d</fix>
</trkpt>
<trkpt lat="21.1656422" lon="-156.8868015">
  <ele>165.46</ele>
  <time>2026-09-01T20:02:39Z</time>
  <course>2.72</course>
  <speed>0.0</speed>
  <fix>3d</fix>
</trkpt>
<trkpt lat="21.1656422" lon="-156.8868015">
  <ele>165.35</ele>
  <time>2026-09-01T20:02:39Z</time>
  <course>180.78</course>
  <speed>0.0</speed>
  <fix>3d</fix>
</trkpt>
<trkpt lat="21.1656422" lon="-156.8868015">
  <ele>165.47</ele>
  <time>2026-09-01T20:02:39Z</time>
  <course>2.72</course>
  <speed>0.0</speed>
  <fix>3d</fix>
</trkpt>
<trkpt lat="21.1656422" lon="-156.8868015">
  <ele>165.35</ele>
  <time>2026-09-01T20:02:39Z</time>
  <course>180.78</course>
  <speed>0.0</speed>
  <fix>3d</fix>
</trkpt>
<trkpt lat="21.1656422" lon="-156.8868015">
  <ele>165.49</ele>
  <time>2026-09-01T20:02:39Z</time>
  <course>2.72</course>
  <speed>0.0</speed>
  <fix>3d</fix>
</trkpt>
<trkpt lat="21.1656422" lon="-156.8868015">
  <ele>165.35</ele>
  <time>2026-09-01T20:02:39Z</time>
  <course>180.78</course>
  <speed>0.0</speed>
  <fix>3d</fix>
</trkpt>
<trkpt lat="21.1656422" lon="-156.8868015">
  <ele>165.25</ele>
  <time>2026-09-01T20:02:39Z</time>
  <course>2.72</course>
  <speed>0.0</speed>
  <fix>3d</fix>
</trkpt>
<trkpt lat="21.1656422" lon="-156.8868015">
  <ele>165.35</ele>
  <time>2026-09-01T20:02:39Z</time>
  <course>180.78</course>
  <speed>0.0</speed>
  <fix>3d</fix>
</trkpt>
<trkpt lat="21.1656422" lon="-156.8868015">
  <ele>165.35</ele>
  <time>2026-09-01T20:02:39Z</time>
  <course>2.72</course>
  <speed>0.0</speed>
  <fix>3d</fix>
</trkpt>
<trkpt lat="21.1656422" lon="-156.8868015">
  <ele>165.35</ele>
  <time>2026-09-01T20:02:39Z</time>
  <course>180.78</course>
  <speed>0.0</speed>
  <fix>3d</fix>
</trkpt>
<trkpt lat="21.1656422" lon="-156.8868015">
  <ele>165.3</ele>
  <time>2026-09-01T20:02:39Z</time>
  <course>2.72</course>
  <speed>0.0</speed>
  <fix>3d</fix>
</trkpt>
<trkpt lat="21.1656422" lon="-156.8868015">
  <ele>165.35</ele>
  <time>2026-09-01T20:02:39Z</time>
  <course>180.78</course>
  <speed>0.0</speed>
  <fix>3d</fix>
</trkpt>
<trkpt lat="21.1656422" lon="-156.8868015">
  <ele>165.12</ele>
  <time>2026-09-01T20:02:39Z</time>
  <course>2.72</course>
  <speed>0.0</speed>
  <fix>3d</fix>
</trkpt>
<trkpt lat="21.1656422" lon="-156.8868015">
  <ele>165.35</ele>
  <time>2026-09-01T20:02:39Z</time>
  <course>180.78</course>
  <speed>0.0</speed>
  <fix>3d</fix>
</trkpt>
<trkpt lat="21.1656422" lon="-156.8868015">
  <ele>165.17</ele>
  <time>2026-09-01T20:02:39Z</time>
  <course>2.72</course>
  <speed>0.0</speed>
  <fix>3d</fix>
</trkpt>
<trkpt lat="21.1656422" lon="-156.8868015">
  <ele>165.35</ele>
  <time>2026-09-01T20:02:39Z</time>
  <course>180.78</course>
  <speed>0.0</speed>
  <fix>3d</fix>
</trkpt>
<trkpt lat="21.1656422" lon="-156.8868015">
  <ele>165.21</ele>
  <time>2026-09-01T20:02:39Z</time>
  <course>2.72</course>
  <speed>0.0</speed>
  <fix>3d</fix>
</trkpt>
<trkpt lat="21.1656422" lon="-156.8868015">
  <ele>165.35</ele>
  <time>2026-09-01T20:02:39Z</time>
  <course>180.78</course>
  <speed>0.0</speed>
  <fix>3d</fix>
</trkpt>
<trkpt lat="21.1656422" lon="-156.8868015">
  <ele>165.4</ele>
  <time>2026-09-01T20:02:39Z</time>
  <course>2.72</course>
  <speed>0.0</speed>
  <fix>3d</fix>
</trkpt>
<trkpt lat="21.1656422" lon="-156.8868015">
  <ele>165.35</ele>
  <time>2026-09-01T20:02:39Z</time>
  <course>180.78</course>
  <speed>0.0</speed>
  <fix>3d</fix>
</trkpt>
<trkpt lat="21.1656422" lon="-156.8868015">
  <ele>165.41</ele>
  <time>2026-09-01T20:02:39Z</time>
  <course>2.72</course>
  <speed>0.0</speed>
  <fix>3d</fix>
</trkpt>
<trkpt lat="21.1656422" lon="-156.8868015">
  <ele>165.35</ele>
  <time>2026-09-01T20:02:39Z</time>
  <course>180.78</course>
  <speed>0.0</speed>
  <fix>3d</fix>
</trkpt>
<trkpt lat="21.1656422" lon="-156.8868015">
  <ele>165.44</ele>
  <time>2026-09-01T20:02:39Z</time>
  <course>2.73</course>
  <speed>0.0</speed>
  <fix>3d</fix>
</trkpt>
<trkpt lat="21.1656422" lon="-156.8868015">
  <ele>165.35</ele>
  <time>2026-09-01T20:02:39Z</time>
  <course>180.78</course>
  <speed>0.0</speed>
  <fix>3d</fix>
</trkpt>
<trkpt lat="21.1656422" lon="-156.8868015">
  <ele>165.38</ele>
  <time>2026-09-01T20:02:39Z</time>
  <course>2.73</course>
  <speed>0.0</speed>
  <fix>3d</fix>
</trkpt>
<trkpt lat="21.1656422" lon="-156.8868015">
  <ele>165.35</ele>
  <time>2026-09-01T20:02:39Z</time>
  <course>180.78</course>
  <speed>0.0</speed>
  <fix>3d</fix>
</trkpt>
<trkpt lat="21.1656422" lon="-156.8868015">
  <ele>165.34</ele>
  <time>2026-09-01T20:02:39Z</time>
  <course>2.7</course>
  <speed>0.0</speed>
  <fix>3d</fix>
</trkpt>
<trkpt lat="21.1656422" lon="-156.8868015">
  <ele>165.35</ele>
  <time>2026-09-01T20:02:39Z</time>
  <course>180.78</course>
  <speed>0.0</speed>
  <fix>3d</fix>
</trkpt>
<trkpt lat="21.1656422" lon="-156.8868015">
  <ele>165.34</ele>
  <time>2026-09-01T20:02:39Z</time>
  <course>2.7</course>
  <speed>0.0</speed>
  <fix>3d</fix>
</trkpt>
<trkpt lat="21.1656422" lon="-156.8868015">
  <ele>165.35</ele>
  <time>2026-09-01T20:02:39Z</time>
  <course>180.78</course>
  <speed>0.0</speed>
  <fix>3d</fix>
</trkpt>
<trkpt lat="21.1656422" lon="-156.8868015">
  <ele>165.35</ele>
  <time>2026-09-01T20:02:39Z</time>
  <course>2.7</course>
  <speed>0.0</speed>
  <fix>3d</fix>
</trkpt>
<trkpt lat="21.1656422" lon="-156.8868015">
  <ele>165.35</ele>
  <time>2026-09-01T20:02:39Z</time>
  <course>180.78</course>
  <speed>0.0</speed>
  <fix>3d</fix>
</trkpt>
<trkpt lat="21.1656422" lon="-156.8868015">
  <ele>165.35</ele>
  <time>2026-09-01T20:02:39Z</time>
  <course>2.7</course>
  <speed>0.0</speed>
  <fix>3d</fix>
</trkpt>
<trkpt lat="21.1656422" lon="-156.8868015">
  <ele>165.35</ele>
  <time>2026-09-01T20:02:39Z</time>
  <course>180.78</course>
  <speed>0.0</speed>
  <fix>3d</fix>
</trkpt>
<trkpt lat="21.1656422" lon="-156.8868015">
  <ele>165.35</ele>
  <time>2026-09-01T20:02:39Z</time>
  <course>2.7</course>
  <speed>0.0</speed>
  <fix>3d</fix>
</trkpt>
<trkpt lat="21.1656422" lon="-156.8868015">
  <ele>165.35</ele>
  <time>2026-09-01T20:02:39Z</time>
  <course>180.78</course>
  <speed>0.0</speed>
  <fix>3d</fix>
</trkpt>
<trkpt lat="21.1656422" lon="-156.8868015">
  <ele>165.35</ele>
  <time>2026-09-01T20:02:39Z</time>
  <course>2.7</course>
  <speed>0.0</speed>
  <fix>3d</fix>
</trkpt>
<trkpt lat="21.1656422" lon="-156.8868015">
  <ele>165.35</ele>
  <time>2026-09-01T20:02:39Z</time>
  <course>180.78</course>
  <speed>0.0</speed>
  <fix>3d</fix>
</trkpt>
<trkpt lat="21.1656422" lon="-156.8868015">
  <ele>165.35</ele>
  <time>2026-09-01T20:02:39Z</time>
  <course>2.7</course>
  <speed>0.0</speed>
  <fix>3d</fix>
</trkpt>
<trkpt lat="21.1656422" lon="-156.8868015">
  <ele>165.35</ele>
  <time>2026-09-01T20:02:39Z</time>
  <course>180.78</course>
  <speed>0.0</speed>
  <fix>3d</fix>
</trkpt>
<trkpt lat="21.1656422" lon="-156.8868015">
  <ele>165.36</ele>
  <time>2026-09-01T20:02:39Z</time>
  <course>2.7</course>
  <speed>0.0</speed>
  <fix>3d</fix>
</trkpt>
<trkpt lat="21.1656422" lon="-156.8868015">
  <ele>165.35</ele>
  <time>2026-09-01T20:02:39Z</time>
  <course>180.78</course>
  <speed>0.0</speed>
  <fix>3d</fix>
</trkpt>
<trkpt lat="21.1656422" lon="-156.8868015">
  <ele>165.36</ele>
  <time>2026-09-01T20:02:39Z</time>
  <course>2.7</course>
  <speed>0.0</speed>
  <fix>3d</fix>
</trkpt>
<trkpt lat="21.1656422" lon="-156.8868015">
  <ele>165.35</ele>
  <time>2026-09-01T20:02:39Z</time>
  <course>180.78</course>
  <speed>0.0</speed>
  <fix>3d</fix>
</trkpt>
<trkpt lat="21.1656422" lon="-156.8868015">
  <ele>165.36</ele>
  <time>2026-09-01T20:02:39Z</time>
  <course>2.7</course>
  <speed>0.0</speed>
  <fix>3d</fix>
</trkpt>
<trkpt lat="21.1656422" lon="-156.8868015">
  <ele>165.35</ele>
  <time>2026-09-01T20:02:39Z</time>
  <course>180.78</course>
  <speed>0.0</speed>
  <fix>3d</fix>
</trkpt>
<trkpt lat="21.1656422" lon="-156.8868015">
  <ele>165.37</ele>
  <time>2026-09-01T20:02:39Z</time>
  <course>2.7</course>
  <speed>0.0</speed>
  <fix>3d</fix>
</trkpt>
<trkpt lat="21.1656422" lon="-156.8868015">
  <ele>165.35</ele>
  <time>2026-09-01T20:02:39Z</time>
  <course>180.78</course>
  <speed>0.0</speed>
  <fix>3d</fix>
</trkpt>
<trkpt lat="21.1656422" lon="-156.8868015">
  <ele>165.37</ele>
  <time>2026-09-01T20:02:39Z</time>
  <course>2.7</course>
  <speed>0.0</speed>
  <fix>3d</fix>
</trkpt>
<trkpt lat="21.1656422" lon="-156.8868015">
  <ele>165.35</ele>
  <time>2026-09-01T20:02:39Z</time>
  <course>180.78</course>
  <speed>0.0</speed>
  <fix>3d</fix>
</trkpt>
<trkpt lat="21.1656422" lon="-156.8868015">
  <ele>165.35</ele>
  <time>2026-09-01T20:02:39Z</time>
  <course>2.7</course>
  <speed>0.0</speed>
  <fix>3d</fix>
</trkpt>
<trkpt lat="21.1656422" lon="-156.8868015">
  <ele>165.35</ele>
  <time>2026-09-01T20:02:39Z</time>
  <course>180.78</course>
  <speed>0.0</speed>
  <fix>3d</fix>
</trkpt>
<trkpt lat="21.1656422" lon="-156.8868015">
  <ele>165.35</ele>
  <time>2026-09-01T20:02:39Z</time>
  <course>2.7</course>
  <speed>0.0</speed>
  <fix>3d</fix>
</trkpt>
<trkpt lat="21.1656422" lon="-156.8868015">
  <ele>165.35</ele>
  <time>2026-09-01T20:02:39Z</time>
  <course>180.78</course>
  <speed>0.0</speed>
  <fix>3d</fix>
</trkpt>
<trkpt lat="21.1656422" lon="-156.8868015">
  <ele>165.35</ele>
  <time>2026-09-01T20:02:39Z</time>
  <course>2.7</course>
  <speed>0.0</speed>
  <fix>3d</fix>
</trkpt>
<trkpt lat="21.1656422" lon="-156.8868015">
  <ele>165.35</ele>
  <time>2026-09-01T20:02:39Z</time>
  <course>180.78</course>
  <speed>0.0</speed>
  <fix>3d</fix>
</trkpt>
<trkpt lat="21.1656422" lon="-156.8868015">
  <ele>165.34</ele>
  <time>2026-09-01T20:02:39Z</time>
  <course>2.7</course>
  <speed>0.0</speed>
  <fix>3d</fix>
</trkpt>
<trkpt lat="21.1656422" lon="-156.8868015">
  <ele>165.35</ele>
  <time>2026-09-01T20:02:39Z</time>
  <course>180.78</course>
  <speed>0.0</speed>
  <fix>3d</fix>
</trkpt>
<trkpt lat="21.1656422" lon="-156.8868015">
  <ele>165.34</ele>
  <time>2026-09-01T20:02:39Z</time>
  <course>2.7</course>
  <speed>0.0</speed>
  <fix>3d</fix>
</trkpt>
<trkpt lat="21.1656422" lon="-156.8868015">
  <ele>165.35</ele>
  <time>2026-09-01T20:02:39Z</time>
  <course>180.78</course>
  <speed>0.0</speed>
  <fix>3d</fix>
</trkpt>
<trkpt lat="21.1656422" lon="-156.8868015">
  <ele>165.34</ele>
  <time>2026-09-01T20:02:39Z</time>
  <course>2.7</course>
  <speed>0.0</speed>
  <fix>3d</fix>
</trkpt>
<trkpt lat="21.1656422" lon="-156.8868015">
  <ele>165.35</ele>
  <time>2026-09-01T20:02:39Z</time>
  <course>180.78</course>
  <speed>0.0</speed>
  <fix>3d</fix>
</trkpt>
<trkpt lat="21.1656422" lon="-156.8868015">
  <ele>165.34</ele>
  <time>2026-09-01T20:02:39Z</time>
  <course>2.7</course>
  <speed>0.0</speed>
  <fix>3d</fix>
</trkpt>
<trkpt lat="21.1656422" lon="-156.8868015">
  <ele>165.35</ele>
  <time>2026-09-01T20:02:39Z</time>
  <course>180.78</course>
  <speed>0.0</speed>
  <fix>3d</fix>
</trkpt>
<trkpt lat="21.1656422" lon="-156.8868015">
  <ele>165.34</ele>
  <time>2026-09-01T20:02:39Z</time>
  <course>2.7</course>
  <speed>0.0</speed>
  <fix>3d</fix>
</trkpt>
<trkpt lat="21.1656422" lon="-156.8868015">
  <ele>165.35</ele>
  <time>2026-09-01T20:02:39Z</time>
  <course>180.78</course>
  <speed>0.0</speed>
  <fix>3d</fix>
</trkpt>
<trkpt lat="21.1656422" lon="-156.8868015">
  <ele>165.34</ele>
  <time>2026-09-01T20:02:39Z</time>
  <course>2.7</course>
  <speed>0.0</speed>
  <fix>3d</fix>
</trkpt>
<trkpt lat="21.1656422" lon="-156.8868015">
  <ele>165.35</ele>
  <time>2026-09-01T20:02:39Z</time>
  <course>180.78</course>
  <speed>0.0</speed>
  <fix>3d</fix>
</trkpt>
<trkpt lat="21.1656422" lon="-156.8868015">
  <ele>165.34</ele>
  <time>2026-09-01T20:02:39Z</time>
  <course>2.7</course>
  <speed>0.0</speed>
  <fix>3d</fix>
</trkpt>
<trkpt lat="21.1656422" lon="-156.8868015">
  <ele>165.35</ele>
  <time>2026-09-01T20:02:39Z</time>
  <course>180.78</course>
  <speed>0.0</speed>
  <fix>3d</fix>
</trkpt>
<trkpt lat="21.1656422" lon="-156.8868015">
  <ele>165.34</ele>
  <time>2026-09-01T20:02:39Z</time>
  <course>2.7</course>
  <speed>0.0</speed>
  <fix>3d</fix>
</trkpt>
<trkpt lat="21.1656422" lon="-156.8868015">
  <ele>165.35</ele>
  <time>2026-09-01T20:02:39Z</time>
  <course>180.78</course>
  <speed>0.0</speed>
  <fix>3d</fix>
</trkpt>
<trkpt lat="21.1656422" lon="-156.8868015">
  <ele>165.34</ele>
  <time>2026-09-01T20:02:39Z</time>
  <course>2.71</course>
  <speed>0.0</speed>
  <fix>3d</fix>
</trkpt>
<trkpt lat="21.1656422" lon="-156.8868015">
  <ele>165.35</ele>
  <time>2026-09-01T20:02:39Z</time>
  <course>180.78</course>
  <speed>0.0</speed>
  <fix>3d</fix>
</trkpt>
<trkpt lat="21.1656422" lon="-156.8868015">
  <ele>165.34</ele>
  <time>2026-09-01T20:02:39Z</time>
  <course>2.71</course>
  <speed>0.0</speed>
  <fix>3d</fix>
</trkpt>
<trkpt lat="21.1656422" lon="-156.8868015">
  <ele>165.35</ele>
  <time>2026-09-01T20:02:39Z</time>
  <course>180.78</course>
  <speed>0.0</speed>
  <fix>3d</fix>
</trkpt>
<trkpt lat="21.1656422" lon="-156.8868015">
  <ele>165.34</ele>
  <time>2026-09-01T20:02:39Z</time>
  <course>2.71</course>
  <speed>0.0</speed>
  <fix>3d</fix>
</trkpt>
<trkpt lat="21.1656422" lon="-156.8868015">
  <ele>165.35</ele>
  <time>2026-09-01T20:02:39Z</time>
  <course>180.78</course>
  <speed>0.0</speed>
  <fix>3d</fix>
</trkpt>
<trkpt lat="21.1656422" lon="-156.8868015">
  <ele>165.34</ele>
  <time>2026-09-01T20:02:39Z</time>
  <course>2.71</course>
  <speed>0.0</speed>
  <fix>3d</fix>
</trkpt>
<trkpt lat="21.1656422" lon="-156.8868015">
  <ele>165.35</ele>
  <time>2026-09-01T20:02:39Z</time>
  <course>180.78</course>
  <speed>0.0</speed>
  <fix>3d</fix>
</trkpt>
<trkpt lat="21.1656422" lon="-156.8868015">
  <ele>165.34</ele>
  <time>2026-09-01T20:02:39Z</time>
  <course>2.71</course>
  <speed>0.0</speed>
  <fix>3d</fix>
</trkpt>
<trkpt lat="21.1656422" lon="-156.8868015">
  <ele>165.35</ele>
  <time>2026-09-01T20:02:39Z</time>
  <course>180.78</course>
  <speed>0.0</speed>
  <fix>3d</fix>
</trkpt>
<trkpt lat="21.1656422" lon="-156.8868015">
  <ele>165.35</ele>
  <time>2026-09-01T20:02:39Z</time>
  <course>2.71</course>
  <speed>0.0</speed>
  <fix>3d</fix>
</trkpt>
<trkpt lat="21.1656422" lon="-156.8868015">
  <ele>165.35</ele>
  <time>2026-09-01T20:02:39Z</time>
  <course>180.78</course>
  <speed>0.0</speed>
  <fix>3d</fix>
</trkpt>
<trkpt lat="21.1656422" lon="-156.8868015">
  <ele>165.35</ele>
  <time>2026-09-01T20:02:39Z</time>
  <course>2.71</course>
  <speed>0.0</speed>
  <fix>3d</fix>
</trkpt>
<trkpt lat="21.1656422" lon="-156.8868015">
  <ele>165.35</ele>
  <time>2026-09-01T20:02:39Z</time>
  <course>180.78</course>
  <speed>0.0</speed>
  <fix>3d</fix>
</trkpt>
<trkpt lat="21.1656422" lon="-156.8868015">
  <ele>165.35</ele>
  <time>2026-09-01T20:02:39Z</time>
  <course>2.71</course>
  <speed>0.0</speed>
  <fix>3d</fix>
</trkpt>
<trkpt lat="21.1656422" lon="-156.8868015">
  <ele>165.35</ele>
  <time>2026-09-01T20:02:39Z</time>
  <course>180.78</course>
  <speed>0.0</speed>
  <fix>3d</fix>
</trkpt>
<trkpt lat="21.1656422" lon="-156.8868015">
  <ele>165.35</ele>
  <time>2026-09-01T20:02:39Z</time>
  <course>2.71</course>
  <speed>0.0</speed>
  <fix>3d</fix>
</trkpt>
<trkpt lat="21.1656422" lon="-156.8868015">
  <ele>165.35</ele>
  <time>2026-09-01T20:02:39Z</time>
  <course>180.78</course>
  <speed>0.0</speed>
  <fix>3d</fix>
</trkpt>
<trkpt lat="21.1656422" lon="-156.8868015">
  <ele>165.35</ele>
  <time>2026-09-01T20:02:39Z</time>
  <course>2.71</course>
  <speed>0.0</speed>
  <fix>3d</fix>
</trkpt>
<trkpt lat="21.1656422" lon="-156.8868015">
  <ele>165.35</ele>
  <time>2026-09-01T20:02:39Z</time>
  <course>180.78</course>
  <speed>0.0</speed>
  <fix>3d</fix>
</trkpt>
<trkpt lat="21.1656422" lon="-156.8868015">
  <ele>165.34</ele>
  <time>2026-09-01T20:02:39Z</time>
  <course>2.71</course>
  <speed>0.0</speed>
  <fix>3d</fix>
</trkpt>
<trkpt lat="21.1656422" lon="-156.8868015">
  <ele>165.35</ele>
  <time>2026-09-01T20:02:39Z</time>
  <course>180.78</course>
  <speed>0.0</speed>
  <fix>3d</fix>
</trkpt>
<trkpt lat="21.1656422" lon="-156.8868015">
  <ele>165.34</ele>
  <time>2026-09-01T20:02:39Z</time>
  <course>2.71</course>
  <speed>0.0</speed>
  <fix>3d</fix>
</trkpt>
<trkpt lat="21.1656422" lon="-156.8868015">
  <ele>165.35</ele>
  <time>2026-09-01T20:02:39Z</time>
  <course>180.78</course>
  <speed>0.0</speed>
  <fix>3d</fix>
</trkpt>
<trkpt lat="21.1656422" lon="-156.8868015">
  <ele>165.34</ele>
  <time>2026-09-01T20:02:39Z</time>
  <course>2.71</course>
  <speed>0.0</speed>
  <fix>3d</fix>
</trkpt>
<trkpt lat="21.1656422" lon="-156.8868015">
  <ele>165.35</ele>
  <time>2026-09-01T20:02:39Z</time>
  <course>180.78</course>
  <speed>0.0</speed>
  <fix>3d</fix>
</trkpt>
<trkpt lat="21.1656422" lon="-156.8868015">
  <ele>165.34</ele>
  <time>2026-09-01T20:02:39Z</time>
  <course>2.71</course>
  <speed>0.0</speed>
  <fix>3d</fix>
</trkpt>
<trkpt lat="21.1656422" lon="-156.8868015">
  <ele>165.35</ele>
  <time>2026-09-01T20:02:39Z</time>
  <course>180.78</course>
  <speed>0.0</speed>
  <fix>3d</fix>
</trkpt>
<trkpt lat="21.1656422" lon="-156.8868015">
  <ele>165.34</ele>
  <time>2026-09-01T20:02:39Z</time>
  <course>2.71</course>
  <speed>0.0</speed>
  <fix>3d</fix>
</trkpt>
<trkpt lat="21.1656422" lon="-156.8868015">
  <ele>165.35</ele>
  <time>2026-09-01T20:02:39Z</time>
  <course>180.78</course>
  <speed>0.0</speed>
  <fix>3d</fix>
</trkpt>
<trkpt lat="21.1656422" lon="-156.8868015">
  <ele>165.33</ele>
  <time>2026-09-01T20:02:39Z</time>
  <course>2.71</course>
  <speed>0.0</speed>
  <fix>3d</fix>
</trkpt>
<trkpt lat="21.1656422" lon="-156.8868015">
  <ele>165.35</ele>
  <time>2026-09-01T20:02:39Z</time>
  <course>108.32</course>
  <speed>0.0</speed>
  <fix>3d</fix>
</trkpt>
<trkpt lat="21.1656422" lon="-156.8868015">
  <ele>165.33</ele>
  <time>2026-09-01T20:02:39Z</time>
  <course>2.71</course>
  <speed>0.0</speed>
  <fix>3d</fix>
</trkpt>
<trkpt lat="21.1656422" lon="-156.8868015">
  <ele>165.35</ele>
  <time>2026-09-01T20:02:39Z</time>
  <course>108.32</course>
  <speed>0.0</speed>
  <fix>3d</fix>
</trkpt>
<trkpt lat="21.1656422" lon="-156.8868015">
  <ele>165.33</ele>
  <time>2026-09-01T20:02:39Z</time>
  <course>2.71</course>
  <speed>0.0</speed>
  <fix>3d</fix>
</trkpt>
<trkpt lat="21.1656422" lon="-156.8868015">
  <ele>165.33</ele>
  <time>2026-09-01T20:02:39Z</time>
  <course>2.71</course>
  <speed>0.0</speed>
  <fix>3d</fix>
</trkpt>
<trkpt lat="21.1656422" lon="-156.8868015">
  <ele>165.35</ele>
  <time>2026-09-01T20:02:39Z</time>
  <course>114.98</course>
  <speed>0.0</speed>
  <fix>3d</fix>
</trkpt>
<trkpt lat="21.1656422" lon="-156.8868015">
  <ele>165.33</ele>
  <time>2026-09-01T20:02:39Z</time>
  <course>2.71</course>
  <speed>0.0</speed>
  <fix>3d</fix>
</trkpt>
<trkpt lat="21.1656422" lon="-156.8868015">
  <ele>165.33</ele>
  <time>2026-09-01T20:02:39Z</time>
  <course>2.71</course>
  <speed>0.0</speed>
  <fix>3d</fix>
</trkpt>
<trkpt lat="21.1656422" lon="-156.8868015">
  <ele>165.35</ele>
  <time>2026-09-01T20:02:39Z</time>
  <course>114.98</course>
  <speed>0.0</speed>
  <fix>3d</fix>
</trkpt>
<trkpt lat="21.1656422" lon="-156.8868015">
  <ele>165.33</ele>
  <time>2026-09-01T20:02:39Z</time>
  <course>2.71</course>
  <speed>0.0</speed>
  <fix>3d</fix>
</trkpt>
<trkpt lat="21.1656422" lon="-156.8868015">
  <ele>165.33</ele>
  <time>2026-09-01T20:02:39Z</time>
  <course>2.71</course>
  <speed>0.0</speed>
  <fix>3d</fix>
</trkpt>
<trkpt lat="21.1656422" lon="-156.8868015">
  <ele>165.35</ele>
  <time>2026-09-01T20:02:39Z</time>
  <course>103.01</course>
  <speed>0.0</speed>
  <fix>3d</fix>
</trkpt>
<trkpt lat="21.1656422" lon="-156.8868015">
  <ele>165.33</ele>
  <time>2026-09-01T20:02:39Z</time>
  <course>2.71</course>
  <speed>0.0</speed>
  <fix>3d</fix>
</trkpt>
<trkpt lat="21.1656422" lon="-156.8868015">
  <ele>165.33</ele>
  <time>2026-09-01T20:02:39Z</time>
  <course>2.71</course>
  <speed>0.0</speed>
  <fix>3d</fix>
</trkpt>
<trkpt lat="21.1656422" lon="-156.8868015">
  <ele>165.35</ele>
  <time>2026-09-01T20:02:39Z</time>
  <course>103.01</course>
  <speed>0.0</speed>
  <fix>3d</fix>
</trkpt>
<trkpt lat="21.1656422" lon="-156.8868015">
  <ele>165.33</ele>
  <time>2026-09-01T20:02:39Z</time>
  <course>2.71</course>
  <speed>0.0</speed>
  <fix>3d</fix>
</trkpt>
<trkpt lat="21.1656422" lon="-156.8868015">
  <ele>165.33</ele>
  <time>2026-09-01T20:02:39Z</time>
  <course>2.71</course>
  <speed>0.0</speed>
  <fix>3d</fix>
</trkpt>
<trkpt lat="21.1656422" lon="-156.8868015">
  <ele>165.35</ele>
  <time>2026-09-01T20:02:39Z</time>
  <course>339.31</course>
  <speed>0.0</speed>
  <fix>3d</fix>
</trkpt>
<trkpt lat="21.1656422" lon="-156.8868015">
  <ele>165.33</ele>
  <time>2026-09-01T20:02:39Z</time>
  <course>2.71</course>
  <speed>0.0</speed>
  <fix>3d</fix>
</trkpt>
<trkpt lat="21.1656422" lon="-156.8868015">
  <ele>165.33</ele>
  <time>2026-09-01T20:02:39Z</time>
  <course>2.71</course>
  <speed>0.0</speed>
  <fix>3d</fix>
</trkpt>
<trkpt lat="21.1656422" lon="-156.8868015">
  <ele>165.35</ele>
  <time>2026-09-01T20:02:39Z</time>
  <course>339.31</course>
  <speed>0.0</speed>
  <fix>3d</fix>
</trkpt>
<trkpt lat="21.1656422" lon="-156.8868015">
  <ele>165.33</ele>
  <time>2026-09-01T20:02:39Z</time>
  <course>2.71</course>
  <speed>0.0</speed>
  <fix>3d</fix>
</trkpt>
<trkpt lat="21.1656422" lon="-156.8868015">
  <ele>165.32</ele>
  <time>2026-09-01T20:02:39Z</time>
  <course>2.71</course>
  <speed>0.0</speed>
  <fix>3d</fix>
</trkpt>
<trkpt lat="21.1656422" lon="-156.8868015">
  <ele>165.35</ele>
  <time>2026-09-01T20:02:39Z</time>
  <course>277.27</course>
  <speed>0.0</speed>
  <fix>3d</fix>
</trkpt>
<trkpt lat="21.1656422" lon="-156.8868015">
  <ele>165.32</ele>
  <time>2026-09-01T20:02:39Z</time>
  <course>2.71</course>
  <speed>0.0</speed>
  <fix>3d</fix>
</trkpt>
<trkpt lat="21.1656422" lon="-156.8868015">
  <ele>165.32</ele>
  <time>2026-09-01T20:02:39Z</time>
  <course>2.71</course>
  <speed>0.0</speed>
  <fix>3d</fix>
</trkpt>
<trkpt lat="21.1656422" lon="-156.8868015">
  <ele>165.35</ele>
  <time>2026-09-01T20:02:39Z</time>
  <course>277.27</course>
  <speed>0.0</speed>
  <fix>3d</fix>
</trkpt>
<trkpt lat="21.1656422" lon="-156.8868015">
  <ele>165.33</ele>
  <time>2026-09-01T20:02:39Z</time>
  <course>2.71</course>
  <speed>0.0</speed>
  <fix>3d</fix>
</trkpt>
<trkpt lat="21.1656422" lon="-156.8868015">
  <ele>165.34</ele>
  <time>2026-09-01T20:02:39Z</time>
  <course>2.71</course>
  <speed>0.0</speed>
  <fix>3d</fix>
</trkpt>
<trkpt lat="21.1656422" lon="-156.8868015">
  <ele>165.35</ele>
  <time>2026-09-01T20:02:39Z</time>
  <course>359.31</course>
  <speed>0.0</speed>
  <fix>3d</fix>
</trkpt>
<trkpt lat="21.1656422" lon="-156.8868015">
  <ele>165.34</ele>
  <time>2026-09-01T20:02:39Z</time>
  <course>2.71</course>
  <speed>0.0</speed>
  <fix>3d</fix>
</trkpt>
<trkpt lat="21.1656422" lon="-156.8868015">
  <ele>165.36</ele>
  <time>2026-09-01T20:02:39Z</time>
  <course>2.71</course>
  <speed>0.0</speed>
  <fix>3d</fix>
</trkpt>
<trkpt lat="21.1656422" lon="-156.8868015">
  <ele>165.35</ele>
  <time>2026-09-01T20:02:39Z</time>
  <course>359.31</course>
  <speed>0.0</speed>
  <fix>3d</fix>
</trkpt>
<trkpt lat="21.1656422" lon="-156.8868015">
  <ele>165.37</ele>
  <time>2026-09-01T20:02:39Z</time>
  <course>2.71</course>
  <speed>0.0</speed>
  <fix>3d</fix>
</trkpt>
<trkpt lat="21.1656422" lon="-156.8868015">
  <ele>165.4</ele>
  <time>2026-09-01T20:02:39Z</time>
  <course>2.71</course>
  <speed>0.0</speed>
  <fix>3d</fix>
</trkpt>
<trkpt lat="21.1656422" lon="-156.8868015">
  <ele>165.37</ele>
  <time>2026-09-01T20:02:39Z</time>
  <course>359.92</course>
  <speed>0.0</speed>
  <fix>3d</fix>
</trkpt>
<trkpt lat="21.1656422" lon="-156.8868015">
  <ele>165.42</ele>
  <time>2026-09-01T20:02:39Z</time>
  <course>2.71</course>
  <speed>0.0</speed>
  <fix>3d</fix>
</trkpt>
<trkpt lat="21.1656422" lon="-156.8868015">
  <ele>165.46</ele>
  <time>2026-09-01T20:02:39Z</time>
  <course>2.71</course>
  <speed>0.0</speed>
  <fix>3d</fix>
</trkpt>
<trkpt lat="21.1656422" lon="-156.8868015">
  <ele>165.37</ele>
  <time>2026-09-01T20:02:39Z</time>
  <course>359.92</course>
  <speed>0.0</speed>
  <fix>3d</fix>
</trkpt>
<trkpt lat="21.1656422" lon="-156.8868015">
  <ele>165.46</ele>
  <time>2026-09-01T20:02:39Z</time>
  <course>2.71</course>
  <speed>0.0</speed>
  <fix>3d</fix>
</trkpt>
<trkpt lat="21.1656422" lon="-156.8868015">
  <ele>165.57</ele>
  <time>2026-09-01T20:02:39Z</time>
  <course>2.71</course>
  <speed>0.03</speed>
  <fix>3d</fix>
</trkpt>
<trkpt lat="21.1656422" lon="-156.8868015">
  <ele>165.44</ele>
  <time>2026-09-01T20:02:39Z</time>
  <course>359.37</course>
  <speed>0.0</speed>
  <fix>3d</fix>
</trkpt>
<trkpt lat="21.1656422" lon="-156.8868015">
  <ele>165.57</ele>
  <time>2026-09-01T20:02:39Z</time>
  <course>2.71</course>
  <speed>0.03</speed>
  <fix>3d</fix>
</trkpt>
<trkpt lat="21.1656422" lon="-156.8868015">
  <ele>165.75</ele>
  <time>2026-09-01T20:02:39Z</time>
  <course>2.71</course>
  <speed>0.06</speed>
  <fix>3d</fix>
</trkpt>
<trkpt lat="21.1656422" lon="-156.8868015">
  <ele>165.44</ele>
  <time>2026-09-01T20:02:39Z</time>
  <course>359.37</course>
  <speed>0.0</speed>
  <fix>3d</fix>
</trkpt>
<trkpt lat="21.1656422" lon="-156.8868015">
  <ele>165.8</ele>
  <time>2026-09-01T20:02:39Z</time>
  <course>2.71</course>
  <speed>0.07</speed>
  <fix>3d</fix>
</trkpt>
<trkpt lat="21.1656423" lon="-156.8868015">
  <ele>165.97</ele>
  <time>2026-09-01T20:02:39Z</time>
  <course>2.71</course>
  <speed>0.1</speed>
  <fix>3d</fix>
</trkpt>
<trkpt lat="21.1656422" lon="-156.8868015">
  <ele>165.63</ele>
  <time>2026-09-01T20:02:39Z</time>
  <course>358.85</course>
  <speed>0.03</speed>
  <fix>3d</fix>
</trkpt>
<trkpt lat="21.1656423" lon="-156.8868015">
  <ele>166.04</ele>
  <time>2026-09-01T20:02:39Z</time>
  <course>2.71</course>
  <speed>0.11</speed>
  <fix>3d</fix>
</trkpt>
<trkpt lat="21.1656424" lon="-156.8868015">
  <ele>166.21</ele>
  <time>2026-09-01T20:02:39Z</time>
  <course>2.71</course>
  <speed>0.14</speed>
  <fix>3d</fix>
</trkpt>
<trkpt lat="21.1656422" lon="-156.8868015">
  <ele>165.63</ele>
  <time>2026-09-01T20:02:39Z</time>
  <course>358.85</course>
  <speed>0.03</speed>
  <fix>3d</fix>
</trkpt>
<trkpt lat="21.1656424" lon="-156.8868015">
  <ele>166.27</ele>
  <time>2026-09-01T20:02:39Z</time>
  <course>2.71</course>
  <speed>0.15</speed>
  <fix>3d</fix>
</trkpt>
<trkpt lat="21.1656426" lon="-156.8868015">
  <ele>166.44</ele>
  <time>2026-09-01T20:02:39Z</time>
  <course>2.7</course>
  <speed>0.17</speed>
  <fix>3d</fix>
</trkpt>
<trkpt lat="21.1656423" lon="-156.8868015">
  <ele>166.0</ele>
  <time>2026-09-01T20:02:39Z</time>
  <course>358.92</course>
  <speed>0.1</speed>
  <fix>3d</fix>
</trkpt>
<trkpt lat="21.1656426" lon="-156.8868015">
  <ele>166.51</ele>
  <time>2026-09-01T20:02:39Z</time>
  <course>2.7</course>
  <speed>0.18</speed>
  <fix>3d</fix>
</trkpt>
<trkpt lat="21.1656427" lon="-156.8868015">
  <ele>166.68</ele>
  <time>2026-09-01T20:02:39Z</time>
  <course>2.7</course>
  <speed>0.2</speed>
  <fix>3d</fix>
</trkpt>
<trkpt lat="21.1656423" lon="-156.8868015">
  <ele>166.0</ele>
  <time>2026-09-01T20:02:39Z</time>
  <course>358.92</course>
  <speed>0.1</speed>
  <fix>3d</fix>
</trkpt>
<trkpt lat="21.1656427" lon="-156.8868015">
  <ele>166.69</ele>
  <time>2026-09-01T20:02:39Z</time>
  <course>2.7</course>
  <speed>0.2</speed>
  <fix>3d</fix>
</trkpt>
<trkpt lat="21.1656429" lon="-156.8868015">
  <ele>166.92</ele>
  <time>2026-09-01T20:02:39Z</time>
  <course>2.69</course>
  <speed>0.22</speed>
  <fix>3d</fix>
</trkpt>
<trkpt lat="21.1656425" lon="-156.8868015">
  <ele>166.48</ele>
  <time>2026-09-01T20:02:39Z</time>
  <course>359.05</course>
  <speed>0.17</speed>
  <fix>3d</fix>
</trkpt>
<trkpt lat="21.165643" lon="-156.8868015">
  <ele>166.99</ele>
  <time>2026-09-01T20:02:39Z</time>
  <course>2.69</course>
  <speed>0.23</speed>
  <fix>3d</fix>
</trkpt>
<trkpt lat="21.1656431" lon="-156.8868015">
  <ele>167.16</ele>
  <time>2026-09-01T20:02:39Z</time>
  <course>2.68</course>
  <speed>0.24</speed>
  <fix>3d</fix>
</trkpt>
<trkpt lat="21.1656425" lon="-156.8868015">
  <ele>166.48</ele>
  <time>2026-09-01T20:02:39Z</time>
  <course>359.05</course>
  <speed>0.17</speed>
  <fix>3d</fix>
</trkpt>
<trkpt lat="21.1656432" lon="-156.8868015">
  <ele>167.22</ele>
  <time>2026-09-01T20:02:39Z</time>
  <course>2.68</course>
  <speed>0.25</speed>
  <fix>3d</fix>
</trkpt>
<trkpt lat="21.1656433" lon="-156.8868015">
  <ele>167.4</ele>
  <time>2026-09-01T20:02:39Z</time>
  <course>2.6</course>
  <speed>0.26</speed>
  <fix>3d</fix>
</trkpt>
<trkpt lat="21.165643" lon="-156.8868015">
  <ele>166.97</ele>
  <time>2026-09-01T20:02:39Z</time>
  <course>359.14</course>
  <speed>0.23</speed>
  <fix>3d</fix>
</trkpt>
<trkpt lat="21.1656434" lon="-156.8868015">
  <ele>167.47</ele>
  <time>2026-09-01T20:02:39Z</time>
  <course>2.56</course>
  <speed>0.26</speed>
  <fix>3d</fix>
</trkpt>
<trkpt lat="21.1656436" lon="-156.8868015">
  <ele>167.63</ele>
  <time>2026-09-01T20:02:39Z</time>
  <course>2.49</course>
  <speed>0.27</speed>
  <fix>3d</fix>
</trkpt>
<trkpt lat="21.165643" lon="-156.8868015">
  <ele>166.97</ele>
  <time>2026-09-01T20:02:39Z</time>
  <course>359.14</course>
  <speed>0.23</speed>
  <fix>3d</fix>
</trkpt>
<trkpt lat="21.1656436" lon="-156.8868015">
  <ele>167.7</ele>
  <time>2026-09-01T20:02:39Z</time>
  <course>2.49</course>
  <speed>0.27</speed>
  <fix>3d</fix>
</trkpt>
<trkpt lat="21.1656438" lon="-156.8868015">
  <ele>167.86</ele>
  <time>2026-09-01T20:02:39Z</time>
  <course>2.51</course>
  <speed>0.27</speed>
  <fix>3d</fix>
</trkpt>
<trkpt lat="21.1656434" lon="-156.8868015">
  <ele>167.45</ele>
  <time>2026-09-01T20:02:39Z</time>
  <course>359.22</course>
  <speed>0.26</speed>
  <fix>3d</fix>
</trkpt>
<trkpt lat="21.1656438" lon="-156.8868015">
  <ele>167.87</ele>
  <time>2026-09-01T20:02:39Z</time>
  <course>2.51</course>
  <speed>0.27</speed>
  <fix>3d</fix>
</trkpt>
<trkpt lat="21.1656441" lon="-156.8868015">
  <ele>168.08</ele>
  <time>2026-09-01T20:02:39Z</time>
  <course>2.59</course>
  <speed>0.27</speed>
  <fix>3d</fix>
</trkpt>
<trkpt lat="21.1656434" lon="-156.8868015">
  <ele>167.45</ele>
  <time>2026-09-01T20:02:39Z</time>
  <course>359.22</course>
  <speed>0.26</speed>
  <fix>3d</fix>
</trkpt>
<trkpt lat="21.1656441" lon="-156.8868015">
  <ele>168.08</ele>
  <time>2026-09-01T20:02:39Z</time>
  <course>2.59</course>
  <speed>0.27</speed>
  <fix>3d</fix>
</trkpt>
<trkpt lat="21.1656443" lon="-156.8868015">
  <ele>168.28</ele>
  <time>2026-09-01T20:02:39Z</time>
  <course>2.67</course>
  <speed>0.27</speed>
  <fix>3d</fix>
</trkpt>
<trkpt lat="21.1656439" lon="-156.8868015">
  <ele>167.9</ele>
  <time>2026-09-01T20:02:39Z</time>
  <course>359.29</course>
  <speed>0.28</speed>
  <fix>3d</fix>
</trkpt>
<trkpt lat="21.1656444" lon="-156.8868015">
  <ele>168.33</ele>
  <time>2026-09-01T20:02:39Z</time>
  <course>2.69</course>
  <speed>0.26</speed>
  <fix>3d</fix>
</trkpt>
<trkpt lat="21.1656446" lon="-156.8868015">
  <ele>168.47</ele>
  <time>2026-09-01T20:02:39Z</time>
  <course>2.73</course>
  <speed>0.26</speed>
  <fix>3d</fix>
</trkpt>
<trkpt lat="21.1656439" lon="-156.8868015">
  <ele>167.9</ele>
  <time>2026-09-01T20:02:39Z</time>
  <course>359.29</course>
  <speed>0.28</speed>
  <fix>3d</fix>
</trkpt>
<trkpt lat="21.1656446" lon="-156.8868015">
  <ele>168.51</ele>
  <time>2026-09-01T20:02:39Z</time>
  <course>2.74</course>
  <speed>0.25</speed>
  <fix>3d</fix>
</trkpt>
<trkpt lat="21.1656448" lon="-156.8868015">
  <ele>168.64</ele>
  <time>2026-09-01T20:02:39Z</time>
  <course>2.77</course>
  <speed>0.24</speed>
  <fix>3d</fix>
</trkpt>
<trkpt lat="21.1656444" lon="-156.8868015">
  <ele>168.31</ele>
  <time>2026-09-01T20:02:39Z</time>
  <course>359.37</course>
  <speed>0.27</speed>
  <fix>3d</fix>
</trkpt>
<trkpt lat="21.1656448" lon="-156.8868015">
  <ele>168.68</ele>
  <time>2026-09-01T20:02:39Z</time>
  <course>2.77</course>
  <speed>0.24</speed>
  <fix>3d</fix>
</trkpt>
<trkpt lat="21.165645" lon="-156.8868015">
  <ele>168.81</ele>
  <time>2026-09-01T20:02:39Z</time>
  <course>2.77</course>
  <speed>0.23</speed>
  <fix>3d</fix>
</trkpt>
<trkpt lat="21.1656444" lon="-156.8868015">
  <ele>168.31</ele>
  <time>2026-09-01T20:02:39Z</time>
  <course>359.37</course>
  <speed>0.27</speed>
  <fix>3d</fix>
</trkpt>
<trkpt lat="21.1656451" lon="-156.8868015">
  <ele>168.85</ele>
  <time>2026-09-01T20:02:39Z</time>
  <course>2.77</course>
  <speed>0.22</speed>
  <fix>3d</fix>
</trkpt>
<trkpt lat="21.1656452" lon="-156.8868015">
  <ele>168.97</ele>
  <time>2026-09-01T20:02:39Z</time>
  <course>2.77</course>
  <speed>0.21</speed>
  <fix>3d</fix>
</trkpt>
<trkpt lat="21.1656448" lon="-156.8868015">
  <ele>168.68</ele>
  <time>2026-09-01T20:02:39Z</time>
  <course>359.51</course>
  <speed>0.25</speed>
  <fix>3d</fix>
</trkpt>
<trkpt lat="21.1656453" lon="-156.8868015">
  <ele>169.01</ele>
  <time>2026-09-01T20:02:39Z</time>
  <course>2.76</course>
  <speed>0.2</speed>
  <fix>3d</fix>
</trkpt>
<trkpt lat="21.1656454" lon="-156.8868015">
  <ele>169.12</ele>
  <time>2026-09-01T20:02:39Z</time>
  <course>2.75</course>
  <speed>0.18</speed>
  <fix>3d</fix>
</trkpt>
<trkpt lat="21.1656448" lon="-156.8868015">
  <ele>168.68</ele>
  <time>2026-09-01T20:02:39Z</time>
  <course>359.51</course>
  <speed>0.25</speed>
  <fix>3d</fix>
</trkpt>
<trkpt lat="21.1656454" lon="-156.8868015">
  <ele>169.16</ele>
  <time>2026-09-01T20:02:39Z</time>
  <course>2.75</course>
  <speed>0.18</speed>
  <fix>3d</fix>
</trkpt>
<trkpt lat="21.1656455" lon="-156.8868015">
  <ele>169.26</ele>
  <time>2026-09-01T20:02:39Z</time>
  <course>2.73</course>
  <speed>0.16</speed>
  <fix>3d</fix>
</trkpt>
<trkpt lat="21.1656453" lon="-156.8868015">
  <ele>169.0</ele>
  <time>2026-09-01T20:02:39Z</time>
  <course>359.76</course>
  <speed>0.22</speed>
  <fix>3d</fix>
</trkpt>
<trkpt lat="21.1656456" lon="-156.8868015">
  <ele>169.3</ele>
  <time>2026-09-01T20:02:39Z</time>
  <course>2.73</course>
  <speed>0.15</speed>
  <fix>3d</fix>
</trkpt>
<trkpt lat="21.1656457" lon="-156.8868015">
  <ele>169.4</ele>
  <time>2026-09-01T20:02:39Z</time>
  <course>2.72</course>
  <speed>0.13</speed>
  <fix>3d</fix>
</trkpt>
<trkpt lat="21.1656453" lon="-156.8868015">
  <ele>169.0</ele>
  <time>2026-09-01T20:02:39Z</time>
  <course>359.76</course>
  <speed>0.22</speed>
  <fix>3d</fix>
</trkpt>
<trkpt lat="21.1656457" lon="-156.8868015">
  <ele>169.41</ele>
  <time>2026-09-01T20:02:39Z</time>
  <course>2.72</course>
  <speed>0.13</speed>
  <fix>3d</fix>
</trkpt>
<trkpt lat="21.1656458" lon="-156.8868015">
  <ele>169.54</ele>
  <time>2026-09-01T20:02:39Z</time>
  <course>2.71</course>
  <speed>0.11</speed>
  <fix>3d</fix>
</trkpt>
<trkpt lat="21.1656456" lon="-156.8868015">
  <ele>169.29</ele>
  <time>2026-09-01T20:02:39Z</time>
  <course>0.26</course>
  <speed>0.17</speed>
  <fix>3d</fix>
</trkpt>
<trkpt lat="21.1656458" lon="-156.8868015">
  <ele>169.57</ele>
  <time>2026-09-01T20:02:39Z</time>
  <course>2.71</course>
  <speed>0.1</speed>
  <fix>3d</fix>
</trkpt>
<trkpt lat="21.1656459" lon="-156.8868015">
  <ele>169.67</ele>
  <time>2026-09-01T20:02:39Z</time>
  <course>2.7</course>
  <speed>0.08</speed>
  <fix>3d</fix>
</trkpt>
<trkpt lat="21.1656456" lon="-156.8868015">
  <ele>169.29</ele>
  <time>2026-09-01T20:02:39Z</time>
  <course>0.26</course>
  <speed>0.17</speed>
  <fix>3d</fix>
</trkpt>
<trkpt lat="21.1656459" lon="-156.8868015">
  <ele>169.67</ele>
  <time>2026-09-01T20:02:39Z</time>
  <course>2.7</course>
  <speed>0.08</speed>
  <fix>3d</fix>
</trkpt>
<trkpt lat="21.165646" lon="-156.8868015">
  <ele>169.8</ele>
  <time>2026-09-01T20:02:39Z</time>
  <course>2.7</course>
  <speed>0.06</speed>
  <fix>3d</fix>
</trkpt>
<trkpt lat="21.1656459" lon="-156.8868015">
  <ele>169.55</ele>
  <time>2026-09-01T20:02:39Z</time>
  <course>1.3</course>
  <speed>0.12</speed>
  <fix>3d</fix>
</trkpt>
<trkpt lat="21.165646" lon="-156.8868015">
  <ele>169.81</ele>
  <time>2026-09-01T20:02:39Z</time>
  <course>2.7</course>
  <speed>0.06</speed>
  <fix>3d</fix>
</trkpt>
<trkpt lat="21.165646" lon="-156.8868015">
  <ele>169.93</ele>
  <time>2026-09-01T20:02:39Z</time>
  <course>2.71</course>
  <speed>0.03</speed>
  <fix>3d</fix>
</trkpt>
<trkpt lat="21.1656459" lon="-156.8868015">
  <ele>169.55</ele>
  <time>2026-09-01T20:02:39Z</time>
  <course>1.3</course>
  <speed>0.12</speed>
  <fix>3d</fix>
</trkpt>
<trkpt lat="21.165646" lon="-156.8868015">
  <ele>169.97</ele>
  <time>2026-09-01T20:02:39Z</time>
  <course>2.71</course>
  <speed>0.02</speed>
  <fix>3d</fix>
</trkpt>
<trkpt lat="21.1656461" lon="-156.8868015">
  <ele>170.06</ele>
  <time>2026-09-01T20:02:39Z</time>
  <course>2.73</course>
  <speed>0.01</speed>
  <fix>3d</fix>
</trkpt>
<trkpt lat="21.1656461" lon="-156.8868015">
  <ele>169.8</ele>
  <time>2026-09-01T20:02:39Z</time>
  <course>3.89</course>
  <speed>0.07</speed>
  <fix>3d</fix>
</trkpt>
<trkpt lat="21.1656461" lon="-156.8868015">
  <ele>170.09</ele>
  <time>2026-09-01T20:02:39Z</time>
  <course>2.73</course>
  <speed>0.0</speed>
  <fix>3d</fix>
</trkpt>
<trkpt lat="21.1656461" lon="-156.8868015">
  <ele>170.19</ele>
  <time>2026-09-01T20:02:39Z</time>
  <course>2.74</course>
  <speed>0.01</speed>
  <fix>3d</fix>
</trkpt>
<trkpt lat="21.1656461" lon="-156.8868015">
  <ele>169.8</ele>
  <time>2026-09-01T20:02:39Z</time>
  <course>3.89</course>
  <speed>0.07</speed>
  <fix>3d</fix>
</trkpt>
<trkpt lat="21.1656461" lon="-156.8868015">
  <ele>170.22</ele>
  <time>2026-09-01T20:02:39Z</time>
  <course>2.75</course>
  <speed>0.01</speed>
  <fix>3d</fix>
</trkpt>
<trkpt lat="21.1656461" lon="-156.8868015">
  <ele>170.32</ele>
  <time>2026-09-01T20:02:39Z</time>
  <course>2.77</course>
  <speed>0.03</speed>
  <fix>3d</fix>
</trkpt>
<trkpt lat="21.1656461" lon="-156.8868015">
  <ele>170.06</ele>
  <time>2026-09-01T20:02:39Z</time>
  <course>17.06</course>
  <speed>0.02</speed>
  <fix>3d</fix>
</trkpt>
<trkpt lat="21.1656461" lon="-156.8868015">
  <ele>170.35</ele>
  <time>2026-09-01T20:02:39Z</time>
  <course>2.78</course>
  <speed>0.03</speed>
  <fix>3d</fix>
</trkpt>
<trkpt lat="21.1656461" lon="-156.8868015">
  <ele>170.45</ele>
  <time>2026-09-01T20:02:39Z</time>
  <course>2.82</course>
  <speed>0.05</speed>
  <fix>3d</fix>
</trkpt>
<trkpt lat="21.1656461" lon="-156.8868015">
  <ele>170.06</ele>
  <time>2026-09-01T20:02:39Z</time>
  <course>17.06</course>
  <speed>0.02</speed>
  <fix>3d</fix>
</trkpt>
<trkpt lat="21.1656461" lon="-156.8868015">
  <ele>170.58</ele>
  <time>2026-09-01T20:02:39Z</time>
  <course>2.92</course>
  <speed>0.06</speed>
  <fix>3d</fix>
</trkpt>
<trkpt lat="21.1656461" lon="-156.8868015">
  <ele>170.31</ele>
  <time>2026-09-01T20:02:39Z</time>
  <course>167.6</course>
  <speed>0.02</speed>
  <fix>3d</fix>
</trkpt>
<trkpt lat="21.165646" lon="-156.8868015">
  <ele>170.71</ele>
  <time>2026-09-01T20:02:39Z</time>
  <course>2.99</course>
  <speed>0.08</speed>
  <fix>3d</fix>
</trkpt>
<trkpt lat="21.1656461" lon="-156.8868015">
  <ele>170.31</ele>
  <time>2026-09-01T20:02:39Z</time>
  <course>167.6</course>
  <speed>0.02</speed>
  <fix>3d</fix>
</trkpt>
<trkpt lat="21.1656459" lon="-156.8868015">
  <ele>170.84</ele>
  <time>2026-09-01T20:02:39Z</time>
  <course>3.01</course>
  <speed>0.09</speed>
  <fix>3d</fix>
</trkpt>
<trkpt lat="21.1656461" lon="-156.8868015">
  <ele>170.57</ele>
  <time>2026-09-01T20:02:39Z</time>
  <course>177.46</course>
  <speed>0.06</speed>
  <fix>3d</fix>
</trkpt>
<trkpt lat="21.1656459" lon="-156.8868015">
  <ele>170.97</ele>
  <time>2026-09-01T20:02:39Z</time>
  <course>3.01</course>
  <speed>0.11</speed>
  <fix>3d</fix>
</trkpt>
<trkpt lat="21.1656461" lon="-156.8868015">
  <ele>170.57</ele>
  <time>2026-09-01T20:02:39Z</time>
  <course>177.46</course>
  <speed>0.06</speed>
  <fix>3d</fix>
</trkpt>
<trkpt lat="21.1656458" lon="-156.8868015">
  <ele>171.08</ele>
  <time>2026-09-01T20:02:39Z</time>
  <course>2.99</course>
  <speed>0.12</speed>
  <fix>3d</fix>
</trkpt>
<trkpt lat="21.165646" lon="-156.8868015">
  <ele>170.83</ele>
  <time>2026-09-01T20:02:39Z</time>
  <course>178.94</course>
  <speed>0.09</speed>
  <fix>3d</fix>
</trkpt>
<trkpt lat="21.1656457" lon="-156.8868015">
  <ele>171.18</ele>
  <time>2026-09-01T20:02:39Z</time>
  <course>2.96</course>
  <speed>0.13</speed>
  <fix>3d</fix>
</trkpt>
<trkpt lat="21.165646" lon="-156.8868015">
  <ele>170.83</ele>
  <time>2026-09-01T20:02:39Z</time>
  <course>178.94</course>
  <speed>0.09</speed>
  <fix>3d</fix>
</trkpt>
<trkpt lat="21.1656455" lon="-156.8868015">
  <ele>171.27</ele>
  <time>2026-09-01T20:02:39Z</time>
  <course>2.93</course>
  <speed>0.14</speed>
  <fix>3d</fix>
</trkpt>
<trkpt lat="21.1656459" lon="-156.8868015">
  <ele>171.07</ele>
  <time>2026-09-01T20:02:39Z</time>
  <course>179.33</course>
  <speed>0.12</speed>
  <fix>3d</fix>
</trkpt>
<trkpt lat="21.1656454" lon="-156.8868015">
  <ele>171.33</ele>
  <time>2026-09-01T20:02:39Z</time>
  <course>2.9</course>
  <speed>0.16</speed>
  <fix>3d</fix>
</trkpt>
<trkpt lat="21.1656459" lon="-156.8868015">
  <ele>171.07</ele>
  <time>2026-09-01T20:02:39Z</time>
  <course>179.33</course>
  <speed>0.12</speed>
  <fix>3d</fix>
</trkpt>
<trkpt lat="21.1656453" lon="-156.8868015">
  <ele>171.39</ele>
  <time>2026-09-01T20:02:39Z</time>
  <course>2.87</course>
  <speed>0.18</speed>
  <fix>3d</fix>
</trkpt>
<trkpt lat="21.1656456" lon="-156.8868015">
  <ele>171.26</ele>
  <time>2026-09-01T20:02:39Z</time>
  <course>179.74</course>
  <speed>0.15</speed>
  <fix>3d</fix>
</trkpt>
<trkpt lat="21.1656451" lon="-156.8868015">
  <ele>171.42</ele>
  <time>2026-09-01T20:02:39Z</time>
  <course>2.85</course>
  <speed>0.18</speed>
  <fix>3d</fix>
</trkpt>
<trkpt lat="21.1656456" lon="-156.8868015">
  <ele>171.26</ele>
  <time>2026-09-01T20:02:39Z</time>
  <course>179.74</course>
  <speed>0.15</speed>
  <fix>3d</fix>
</trkpt>
<trkpt lat="21.165645" lon="-156.8868015">
  <ele>171.45</ele>
  <time>2026-09-01T20:02:39Z</time>
  <course>2.86</course>
  <speed>0.15</speed>
  <fix>3d</fix>
</trkpt>
<trkpt lat="21.1656453" lon="-156.8868015">
  <ele>171.38</ele>
  <time>2026-09-01T20:02:39Z</time>
  <course>179.95</course>
  <speed>0.18</speed>
  <fix>3d</fix>
</trkpt>
<trkpt lat="21.1656449" lon="-156.8868015">
  <ele>171.46</ele>
  <time>2026-09-01T20:02:39Z</time>
  <course>2.95</course>
  <speed>0.06</speed>
  <fix>3d</fix>
</trkpt>
<trkpt lat="21.1656453" lon="-156.8868015">
  <ele>171.38</ele>
  <time>2026-09-01T20:02:39Z</time>
  <course>179.95</course>
  <speed>0.18</speed>
  <fix>3d</fix>
</trkpt>
<trkpt lat="21.1656449" lon="-156.8868015">
  <ele>171.46</ele>
  <time>2026-09-01T20:02:39Z</time>
  <course>3.08</course>
  <speed>0.08062257748298549</speed>
  <fix>3d</fix>
</trkpt>
<trkpt lat="21.165645" lon="-156.8868015">
  <ele>171.45</ele>
  <time>2026-09-01T20:02:39Z</time>
  <course>179.53</course>
  <speed>0.13</speed>
  <fix>3d</fix>
</trkpt>
<trkpt lat="21.1656451" lon="-156.8868015">
  <ele>171.46</ele>
  <time>2026-09-01T20:02:39Z</time>
  <course>3.15</course>
  <speed>0.29274562336608895</speed>
  <fix>3d</fix>
</trkpt>
<trkpt lat="21.165645" lon="-156.8868015">
  <ele>171.45</ele>
  <time>2026-09-01T20:02:39Z</time>
  <course>179.53</course>
  <speed>0.13</speed>
  <fix>3d</fix>
</trkpt>
<trkpt lat="21.1656454" lon="-156.8868015">
  <ele>171.47</ele>
  <time>2026-09-01T20:02:39Z</time>
  <course>3.17</course>
  <speed>0.563205113613149</speed>
  <fix>3d</fix>
</trkpt>
<trkpt lat="21.1656449" lon="-156.8868015">
  <ele>171.47</ele>
  <time>2026-09-01T20:02:39Z</time>
  <course>6.56</course>
  <speed>0.09</speed>
  <fix>3d</fix>
</trkpt>
<trkpt lat="21.165646" lon="-156.8868014">
  <ele>171.49</ele>
  <time>2026-09-01T20:02:39Z</time>
  <course>3.16</course>
  <speed>0.9035485598461215</speed>
  <fix>3d</fix>
</trkpt>
<trkpt lat="21.1656449" lon="-156.8868015">
  <ele>171.47</ele>
  <time>2026-09-01T20:02:39Z</time>
  <course>6.56</course>
  <speed>0.09</speed>
  <fix>3d</fix>
</trkpt>
<trkpt lat="21.165647" lon="-156.8868013">
  <ele>171.52</ele>
  <time>2026-09-01T20:02:39Z</time>
  <course>3.0</course>
  <speed>1.3046455457326331</speed>
  <fix>3d</fix>
</trkpt>
<trkpt lat="21.1656454" lon="-156.8868015">
  <ele>171.48</ele>
  <time>2026-09-01T20:02:39Z</time>
  <course>2.97</course>
  <speed>0.57</speed>
  <fix>3d</fix>
</trkpt>
<trkpt lat="21.1656483" lon="-156.8868012">
  <ele>171.58</ele>
  <time>2026-09-01T20:02:39Z</time>
  <course>2.92</course>
  <speed>1.7755280904564703</speed>
  <fix>3d</fix>
</trkpt>
<trkpt lat="21.1656454" lon="-156.8868015">
  <ele>171.48</ele>
  <time>2026-09-01T20:02:39Z</time>
  <course>2.97</course>
  <speed>0.57</speed>
  <fix>3d</fix>
</trkpt>
<trkpt lat="21.1656501" lon="-156.8868011">
  <ele>171.66</ele>
  <time>2026-09-01T20:02:39Z</time>
  <course>2.78</course>
  <speed>2.3062740513651017</speed>
  <fix>3d</fix>
</trkpt>
<trkpt lat="21.165647" lon="-156.8868015">
  <ele>171.54</ele>
  <time>2026-09-01T20:02:39Z</time>
  <course>2.12</course>
  <speed>1.31</speed>
  <fix>3d</fix>
</trkpt>
<trkpt lat="21.1656524" lon="-156.886801">
  <ele>171.78</ele>
  <time>2026-09-01T20:02:39Z</time>
  <course>2.65</course>
  <speed>2.8862605564986676</speed>
  <fix>3d</fix>
</trkpt>
<trkpt lat="21.165647" lon="-156.8868015">
  <ele>171.54</ele>
  <time>2026-09-01T20:02:39Z</time>
  <course>2.12</course>
  <speed>1.31</speed>
  <fix>3d</fix>
</trkpt>
<trkpt lat="21.1656552" lon="-156.8868009">
  <ele>171.91</ele>
  <time>2026-09-01T20:02:39Z</time>
  <course>2.42</course>
  <speed>3.505153348999156</speed>
  <fix>3d</fix>
</trkpt>
<trkpt lat="21.1656503" lon="-156.8868014">
  <ele>171.68</ele>
  <time>2026-09-01T20:02:39Z</time>
  <course>1.61</course>
  <speed>2.3</speed>
  <fix>3d</fix>
</trkpt>
<trkpt lat="21.1656586" lon="-156.8868007">
  <ele>172.07</ele>
  <time>2026-09-01T20:02:39Z</time>
  <course>2.12</course>
  <speed>4.134839779241755</speed>
  <fix>3d</fix>
</trkpt>
<trkpt lat="21.1656503" lon="-156.8868014">
  <ele>171.68</ele>
  <time>2026-09-01T20:02:39Z</time>
  <course>1.61</course>
  <speed>2.3</speed>
  <fix>3d</fix>
</trkpt>
<trkpt lat="21.1656625" lon="-156.8868007">
  <ele>172.25</ele>
  <time>2026-09-01T20:02:39Z</time>
  <course>1.76</course>
  <speed>4.793766786150532</speed>
  <fix>3d</fix>
</trkpt>
<trkpt lat="21.1656555" lon="-156.8868012">
  <ele>171.92</ele>
  <time>2026-09-01T20:02:39Z</time>
  <course>1.27</course>
  <speed>3.5</speed>
  <fix>3d</fix>
</trkpt>
<trkpt lat="21.165667" lon="-156.8868006">
  <ele>172.45</ele>
  <time>2026-09-01T20:02:39Z</time>
  <course>1.48</course>
  <speed>5.453310920899339</speed>
  <fix>3d</fix>
</trkpt>
<trkpt lat="21.1656555" lon="-156.8868012">
  <ele>171.92</ele>
  <time>2026-09-01T20:02:39Z</time>
  <course>1.27</course>
  <speed>3.5</speed>
  <fix>3d</fix>
</trkpt>
<trkpt lat="21.1656722" lon="-156.8868005">
  <ele>172.66</ele>
  <time>2026-09-01T20:02:39Z</time>
  <course>1.2</course>
  <speed>6.132356806318432</speed>
  <fix>3d</fix>
</trkpt>
<trkpt lat="21.1656629" lon="-156.886801">
  <ele>172.26</ele>
  <time>2026-09-01T20:02:39Z</time>
  <course>0.98</course>
  <speed>4.8</speed>
  <fix>3d</fix>
</trkpt>
<trkpt lat="21.165678" lon="-156.8868005">
  <ele>172.88</ele>
  <time>2026-09-01T20:02:39Z</time>
  <course>0.99</course>
  <speed>6.83187382787475</speed>
  <fix>3d</fix>
</trkpt>
<trkpt lat="21.1656629" lon="-156.886801">
  <ele>172.26</ele>
  <time>2026-09-01T20:02:39Z</time>
  <course>0.98</course>
  <speed>4.8</speed>
  <fix>3d</fix>
</trkpt>
<trkpt lat="21.1656843" lon="-156.8868004">
  <ele>173.1</ele>
  <time>2026-09-01T20:02:39Z</time>
  <course>0.8</course>
  <speed>7.511304813412913</speed>
  <fix>3d</fix>
</trkpt>
<trkpt lat="21.1656728" lon="-156.8868009">
  <ele>172.67</ele>
  <time>2026-09-01T20:02:39Z</time>
  <course>0.74</course>
  <speed>6.15</speed>
  <fix>3d</fix>
</trkpt>
<trkpt lat="21.1656913" lon="-156.8868004">
  <ele>173.33</ele>
  <time>2026-09-01T20:02:39Z</time>
  <course>0.72</course>
  <speed>8.180880148248109</speed>
  <fix>3d</fix>
</trkpt>
<trkpt lat="21.1656728" lon="-156.8868009">
  <ele>172.67</ele>
  <time>2026-09-01T20:02:39Z</time>
  <course>0.74</course>
  <speed>6.15</speed>
  <fix>3d</fix>
</trkpt>
<trkpt lat="21.1656988" lon="-156.8868004">
  <ele>173.56</ele>
  <time>2026-09-01T20:02:39Z</time>
  <course>0.64</course>
  <speed>8.84056559276611</speed>
  <fix>3d</fix>
</trkpt>
<trkpt lat="21.165685" lon="-156.8868008">
  <ele>173.11</ele>
  <time>2026-09-01T20:02:39Z</time>
  <course>0.53</course>
  <speed>7.52</speed>
  <fix>3d</fix>
</trkpt>
<trkpt lat="21.165707" lon="-156.8868004">
  <ele>173.8</ele>
  <time>2026-09-01T20:02:39Z</time>
  <course>0.59</course>
  <speed>9.480337546733239</speed>
  <fix>3d</fix>
</trkpt>
<trkpt lat="21.165685" lon="-156.8868008">
  <ele>173.11</ele>
  <time>2026-09-01T20:02:39Z</time>
  <course>0.53</course>
  <speed>7.52</speed>
  <fix>3d</fix>
</trkpt>
<trkpt lat="21.1657157" lon="-156.8868004">
  <ele>174.04</ele>
  <time>2026-09-01T20:02:39Z</time>
  <course>0.49</course>
  <speed>10.100242571344513</speed>
  <fix>3d</fix>
</trkpt>
<trkpt lat="21.1656998" lon="-156.8868006">
  <ele>173.58</ele>
  <time>2026-09-01T20:02:39Z</time>
  <course>0.35</course>
  <speed>8.87</speed>
  <fix>3d</fix>
</trkpt>
<trkpt lat="21.165725" lon="-156.8868004">
  <ele>174.28</ele>
  <time>2026-09-01T20:02:39Z</time>
  <course>0.46</course>
  <speed>10.710116712716067</speed>
  <fix>3d</fix>
</trkpt>
<trkpt lat="21.1656998" lon="-156.8868006">
  <ele>173.58</ele>
  <time>2026-09-01T20:02:39Z</time>
  <course>0.35</course>
  <speed>8.87</speed>
  <fix>3d</fix>
</trkpt>
<trkpt lat="21.1657348" lon="-156.8868004">
  <ele>174.53</ele>
  <time>2026-09-01T20:02:39Z</time>
  <course>0.45</course>
  <speed>11.290039858211308</speed>
  <fix>3d</fix>
</trkpt>
<trkpt lat="21.165717" lon="-156.8868005">
  <ele>174.05</ele>
  <time>2026-09-01T20:02:39Z</time>
  <course>0.22</course>
  <speed>10.15</speed>
  <fix>3d</fix>
</trkpt>
<trkpt lat="21.1657452" lon="-156.8868004">
  <ele>174.78</ele>
  <time>2026-09-01T20:02:39Z</time>
  <course>0.44</course>
  <speed>11.860037942603727</speed>
  <fix>3d</fix>
</trkpt>
<trkpt lat="21.165717" lon="-156.8868005">
  <ele>174.05</ele>
  <time>2026-09-01T20:02:39Z</time>
  <course>0.22</course>
  <speed>10.15</speed>
  <fix>3d</fix>
</trkpt>
<trkpt lat="21.165756" lon="-156.8868004">
  <ele>175.03</ele>
  <time>2026-09-01T20:02:39Z</time>
  <course>0.43</course>
  <speed>12.40001612902177</speed>
  <fix>3d</fix>
</trkpt>
<trkpt lat="21.1657363" lon="-156.8868005">
  <ele>174.53</ele>
  <time>2026-09-01T20:02:39Z</time>
  <course>0.12</course>
  <speed>11.35</speed>
  <fix>3d</fix>
</trkpt>
<trkpt lat="21.1657674" lon="-156.8868005">
  <ele>175.28</ele>
  <time>2026-09-01T20:02:39Z</time>
  <course>0.4</course>
  <speed>12.930003866975447</speed>
  <fix>3d</fix>
</trkpt>
<trkpt lat="21.1657363" lon="-156.8868005">
  <ele>174.53</ele>
  <time>2026-09-01T20:02:39Z</time>
  <course>0.12</course>
  <speed>11.35</speed>
  <fix>3d</fix>
</trkpt>
<trkpt lat="21.1657792" lon="-156.8868005">
  <ele>175.54</ele>
  <time>2026-09-01T20:02:39Z</time>
  <course>0.39</course>
  <speed>13.460003714709739</speed>
  <fix>3d</fix>
</trkpt>
<trkpt lat="21.1657577" lon="-156.8868005">
  <ele>175.02</ele>
  <time>2026-09-01T20:02:39Z</time>
  <course>0.05</course>
  <speed>12.48</speed>
  <fix>3d</fix>
</trkpt>
<trkpt lat="21.1657915" lon="-156.8868005">
  <ele>175.81</ele>
  <time>2026-09-01T20:02:39Z</time>
  <course>0.47</course>
  <speed>13.97000357909761</speed>
  <fix>3d</fix>
</trkpt>
<trkpt lat="21.1657577" lon="-156.8868005">
  <ele>175.02</ele>
  <time>2026-09-01T20:02:39Z</time>
  <course>0.05</course>
  <speed>12.48</speed>
  <fix>3d</fix>
</trkpt>
<trkpt lat="21.1658043" lon="-156.8868005">
  <ele>176.07</ele>
  <time>2026-09-01T20:02:39Z</time>
  <course>0.47</course>
  <speed>14.470003455424605</speed>
  <fix>3d</fix>
</trkpt>
<trkpt lat="21.1657811" lon="-156.8868005">
  <ele>175.52</ele>
  <time>2026-09-01T20:02:39Z</time>
  <course>0.02</course>
  <speed>13.55</speed>
  <fix>3d</fix>
</trkpt>
<trkpt lat="21.1658176" lon="-156.8868004">
  <ele>176.34</ele>
  <time>2026-09-01T20:02:39Z</time>
  <course>0.39</course>
  <speed>14.960013368977984</speed>
  <fix>3d</fix>
</trkpt>
<trkpt lat="21.1657811" lon="-156.8868005">
  <ele>175.52</ele>
  <time>2026-09-01T20:02:39Z</time>
  <course>0.02</course>
  <speed>13.55</speed>
  <fix>3d</fix>
</trkpt>
<trkpt lat="21.1658312" lon="-156.8868004">
  <ele>176.61</ele>
  <time>2026-09-01T20:02:39Z</time>
  <course>0.4</course>
  <speed>15.420003242541812</speed>
  <fix>3d</fix>
</trkpt>
<trkpt lat="21.1658064" lon="-156.8868005">
  <ele>176.04</ele>
  <time>2026-09-01T20:02:39Z</time>
  <course>0.04</course>
  <speed>14.57</speed>
  <fix>3d</fix>
</trkpt>
<trkpt lat="21.1658452" lon="-156.8868004">
  <ele>176.87</ele>
  <time>2026-09-01T20:02:39Z</time>
  <course>0.38</course>
  <speed>15.880012594453444</speed>
  <fix>3d</fix>
</trkpt>
<trkpt lat="21.1658064" lon="-156.8868005">
  <ele>176.04</ele>
  <time>2026-09-01T20:02:39Z</time>
  <course>0.04</course>
  <speed>14.57</speed>
  <fix>3d</fix>
</trkpt>
<trkpt lat="21.1658597" lon="-156.8868004">
  <ele>177.15</ele>
  <time>2026-09-01T20:02:39Z</time>
  <course>0.27</course>
  <speed>16.320003063725203</speed>
  <fix>3d</fix>
</trkpt>
<trkpt lat="21.1658334" lon="-156.8868004">
  <ele>176.58</ele>
  <time>2026-09-01T20:02:39Z</time>
  <course>0.06</course>
  <speed>15.53</speed>
  <fix>3d</fix>
</trkpt>
<trkpt lat="21.1658745" lon="-156.8868004">
  <ele>177.42</ele>
  <time>2026-09-01T20:02:39Z</time>
  <course>0.17</course>
  <speed>16.76000298329329</speed>
  <fix>3d</fix>
</trkpt>
<trkpt lat="21.1658334" lon="-156.8868004">
  <ele>176.58</ele>
  <time>2026-09-01T20:02:39Z</time>
  <course>0.06</course>
  <speed>15.53</speed>
  <fix>3d</fix>
</trkpt>
<trkpt lat="21.1658898" lon="-156.8868004">
  <ele>177.69</ele>
  <time>2026-09-01T20:02:39Z</time>
  <course>0.07</course>
  <speed>17.18</speed>
  <fix>3d</fix>
</trkpt>
<trkpt lat="21.1658621" lon="-156.8868004">
  <ele>177.12</ele>
  <time>2026-09-01T20:02:39Z</time>
  <course>0.05</course>
  <speed>16.44</speed>
  <fix>3d</fix>
</trkpt>
<trkpt lat="21.1659055" lon="-156.8868004">
  <ele>177.97</ele>
  <time>2026-09-01T20:02:39Z</time>
  <course>0.04</course>
  <speed>17.59</speed>
  <fix>3d</fix>
</trkpt>
<trkpt lat="21.1658621" lon="-156.8868004">
  <ele>177.12</ele>
  <time>2026-09-01T20:02:39Z</time>
  <course>0.05</course>
  <speed>16.44</speed>
  <fix>3d</fix>
</trkpt>
<trkpt lat="21.1659216" lon="-156.8868004">
  <ele>178.24</ele>
  <time>2026-09-01T20:02:39Z</time>
  <course>0.01</course>
  <speed>17.99</speed>
  <fix>3d</fix>
</trkpt>
<trkpt lat="21.1658924" lon="-156.8868004">
  <ele>177.66</ele>
  <time>2026-09-01T20:02:39Z</time>
  <course>0.02</course>
  <speed>17.3</speed>
  <fix>3d</fix>
</trkpt>
<trkpt lat="21.1659343" lon="-156.8868004">
  <ele>178.52</ele>
  <time>2026-09-01T20:02:39Z</time>
  <course>359.98</course>
  <speed>7.540006631296819</speed>
  <fix>3d</fix>
</trkpt>
<trkpt lat="21.1658924" lon="-156.8868004">
  <ele>177.66</ele>
  <time>2026-09-01T20:02:39Z</time>
  <course>0.02</course>
  <speed>17.3</speed>
  <fix>3d</fix>
</trkpt>
<trkpt lat="21.1659355" lon="-156.8868004">
  <ele>178.79</ele>
  <time>2026-09-01T20:02:39Z</time>
  <course>0.04</course>
  <speed>3.2001406219102306</speed>
  <fix>3d</fix>
</trkpt>
<trkpt lat="21.1659225" lon="-156.8868004">
  <ele>178.2</ele>
  <time>2026-09-01T20:02:39Z</time>
  <course>359.99</course>
  <speed>12.99</speed>
  <fix>3d</fix>
</trkpt>
<trkpt lat="21.1659315" lon="-156.8868004">
  <ele>179.06</ele>
  <time>2026-09-01T20:02:39Z</time>
  <course>0.18</course>
  <speed>4.47017896733453</speed>
  <fix>3d</fix>
</trkpt>
<trkpt lat="21.1659225" lon="-156.8868004">
  <ele>178.2</ele>
  <time>2026-09-01T20:02:39Z</time>
  <course>359.99</course>
  <speed>12.99</speed>
  <fix>3d</fix>
</trkpt>
<trkpt lat="21.1659302" lon="-156.8868004">
  <ele>179.28</ele>
  <time>2026-09-01T20:02:39Z</time>
  <course>0.39</course>
  <speed>0.8705170877128146</speed>
  <fix>3d</fix>
</trkpt>
<trkpt lat="21.165936" lon="-156.8868004">
  <ele>178.75</ele>
  <time>2026-09-01T20:02:39Z</time>
  <course>359.89</course>
  <speed>1.94</speed>
  <fix>3d</fix>
</trkpt>
<trkpt lat="21.1659321" lon="-156.8868005">
  <ele>179.51</ele>
  <time>2026-09-01T20:02:39Z</time>
  <course>0.79</course>
  <speed>2.76</speed>
  <fix>3d</fix>
</trkpt>
<trkpt lat="21.165936" lon="-156.8868004">
  <ele>178.75</ele>
  <time>2026-09-01T20:02:39Z</time>
  <course>359.89</course>
  <speed>1.94</speed>
  <fix>3d</fix>
</trkpt>
<trkpt lat="21.1659363" lon="-156.8868004">
  <ele>179.75</ele>
  <time>2026-09-01T20:02:39Z</time>
  <course>1.25</course>
  <speed>4.700042552998855</speed>
  <fix>3d</fix>
</trkpt>
<trkpt lat="21.1659341" lon="-156.8868004">
  <ele>179.29</ele>
  <time>2026-09-01T20:02:39Z</time>
  <course>179.66</course>
  <speed>0.89</speed>
  <fix>3d</fix>
</trkpt>
<trkpt lat="21.1659413" lon="-156.8868004">
  <ele>179.99</ele>
  <time>2026-09-01T20:02:39Z</time>
  <course>1.47</course>
  <speed>5.300462243993443</speed>
  <fix>3d</fix>
</trkpt>
<trkpt lat="21.1659341" lon="-156.8868004">
  <ele>179.29</ele>
  <time>2026-09-01T20:02:39Z</time>
  <course>179.66</course>
  <speed>0.89</speed>
  <fix>3d</fix>
</trkpt>
<trkpt lat="21.1659463" lon="-156.8868003">
  <ele>180.23</ele>
  <time>2026-09-01T20:02:39Z</time>
  <course>1.56</course>
  <speed>5.441553087125035</speed>
  <fix>3d</fix>
</trkpt>
<trkpt lat="21.1659371" lon="-156.8868003">
  <ele>179.81</ele>
  <time>2026-09-01T20:02:39Z</time>
  <course>0.79</course>
  <speed>3.86</speed>
  <fix>3d</fix>
</trkpt>
<trkpt lat="21.1659513" lon="-156.8868002">
  <ele>180.46</ele>
  <time>2026-09-01T20:02:39Z</time>
  <course>1.48</course>
  <speed>5.733489338962793</speed>
  <fix>3d</fix>
</trkpt>
<trkpt lat="21.1659371" lon="-156.8868003">
  <ele>179.81</ele>
  <time>2026-09-01T20:02:39Z</time>
  <course>0.79</course>
  <speed>3.86</speed>
  <fix>3d</fix>
</trkpt>
<trkpt lat="21.1659567" lon="-156.8867999">
  <ele>180.67</ele>
  <time>2026-09-01T20:02:39Z</time>
  <course>1.39</course>
  <speed>6.305362796857926</speed>
  <fix>3d</fix>
</trkpt>
<trkpt lat="21.1659457" lon="-156.8868001">
  <ele>180.3</ele>
  <time>2026-09-01T20:02:39Z</time>
  <course>1.69</course>
  <speed>5.32</speed>
  <fix>3d</fix>
</trkpt>
<trkpt lat="21.1659626" lon="-156.8867996">
  <ele>180.88</ele>
  <time>2026-09-01T20:02:39Z</time>
  <course>1.36</course>
  <speed>7.016851145635056</speed>
  <fix>3d</fix>
</trkpt>
<trkpt lat="21.1659457" lon="-156.8868001">
  <ele>180.3</ele>
  <time>2026-09-01T20:02:39Z</time>
  <course>1.69</course>
  <speed>5.32</speed>
  <fix>3d</fix>
</trkpt>
<trkpt lat="21.1659691" lon="-156.8867993">
  <ele>181.07</ele>
  <time>2026-09-01T20:02:39Z</time>
  <course>1.37</course>
  <speed>7.748367570011117</speed>
  <fix>3d</fix>
</trkpt>
<trkpt lat="21.1659559" lon="-156.8867997">
  <ele>180.73</ele>
  <time>2026-09-01T20:02:39Z</time>
  <course>2.56</course>
  <speed>6.17</speed>
  <fix>3d</fix>
</trkpt>
<trkpt lat="21.1659762" lon="-156.8867989">
  <ele>181.27</ele>
  <time>2026-09-01T20:02:39Z</time>
  <course>1.48</course>
  <speed>8.4499526625893</speed>
  <fix>3d</fix>
</trkpt>
<trkpt lat="21.1659559" lon="-156.8867997">
  <ele>180.73</ele>
  <time>2026-09-01T20:02:39Z</time>
  <course>2.56</course>
  <speed>6.17</speed>
  <fix>3d</fix>
</trkpt>
<trkpt lat="21.1659839" lon="-156.8867984">
  <ele>181.46</ele>
  <time>2026-09-01T20:02:39Z</time>
  <course>1.59</course>
  <speed>9.091644515707817</speed>
  <fix>3d</fix>
</trkpt>
<trkpt lat="21.1659683" lon="-156.8867991">
  <ele>181.12</ele>
  <time>2026-09-01T20:02:39Z</time>
  <course>2.91</course>
  <speed>7.52</speed>
  <fix>3d</fix>
</trkpt>
<trkpt lat="21.1659922" lon="-156.8867979">
  <ele>181.66</ele>
  <time>2026-09-01T20:02:39Z</time>
  <course>1.67</course>
  <speed>9.723384184531639</speed>
  <fix>3d</fix>
</trkpt>
<trkpt lat="21.1659683" lon="-156.8867991">
  <ele>181.12</ele>
  <time>2026-09-01T20:02:39Z</time>
  <course>2.91</course>
  <speed>7.52</speed>
  <fix>3d</fix>
</trkpt>
<trkpt lat="21.166001" lon="-156.8867974">
  <ele>181.86</ele>
  <time>2026-09-01T20:02:39Z</time>
  <course>1.75</course>
  <speed>10.354090978931952</speed>
  <fix>3d</fix>
</trkpt>
<trkpt lat="21.165983" lon="-156.8867982">
  <ele>181.51</ele>
  <time>2026-09-01T20:02:39Z</time>
  <course>3.1</course>
  <speed>8.88</speed>
  <fix>3d</fix>
</trkpt>
<trkpt lat="21.1660104" lon="-156.8867969">
  <ele>182.06</ele>
  <time>2026-09-01T20:02:39Z</time>
  <course>1.8</course>
  <speed>10.984798587138501</speed>
  <fix>3d</fix>
</trkpt>
<trkpt lat="21.165983" lon="-156.8867982">
  <ele>181.51</ele>
  <time>2026-09-01T20:02:39Z</time>
  <course>3.1</course>
  <speed>8.88</speed>
  <fix>3d</fix>
</trkpt>
<trkpt lat="21.1660203" lon="-156.8867963">
  <ele>182.26</ele>
  <time>2026-09-01T20:02:39Z</time>
  <course>1.8</course>
  <speed>11.624981720415736</speed>
  <fix>3d</fix>
</trkpt>
<trkpt lat="21.166" lon="-156.8867972">
  <ele>181.9</ele>
  <time>2026-09-01T20:02:39Z</time>
  <course>3.14</course>
  <speed>10.16</speed>
  <fix>3d</fix>
</trkpt>
<trkpt lat="21.1660271" lon="-156.8867959">
  <ele>182.47</ele>
  <time>2026-09-01T20:02:39Z</time>
  <course>1.79</course>
  <speed>3.242221460665511</speed>
  <fix>3d</fix>
</trkpt>
<trkpt lat="21.166" lon="-156.8867972">
  <ele>181.9</ele>
  <time>2026-09-01T20:02:39Z</time>
  <course>3.14</course>
  <speed>10.16</speed>
  <fix>3d</fix>
</trkpt>
<trkpt lat="21.1660262" lon="-156.886796">
  <ele>182.75</ele>
  <time>2026-09-01T20:02:40Z</time>
  <course>1.73</course>
  <speed>1.5273833834371775</speed>
  <fix>3d</fix>
</trkpt>
<trkpt lat="21.1660177" lon="-156.8867962">
  <ele>182.3</ele>
  <time>2026-09-01T20:02:40Z</time>
  <course>3.06</course>
  <speed>7.08</speed>
  <fix>3d</fix>
</trkpt>
<trkpt lat="21.1660237" lon="-156.8867962">
  <ele>183.04</ele>
  <time>2026-09-01T20:02:40Z</time>
  <course>1.73</course>
  <speed>1.2205326705991937</speed>
  <fix>3d</fix>
</trkpt>
<trkpt lat="21.1660177" lon="-156.8867962">
  <ele>182.3</ele>
  <time>2026-09-01T20:02:40Z</time>
  <course>3.06</course>
  <speed>7.08</speed>
  <fix>3d</fix>
</trkpt>
<trkpt lat="21.1660236" lon="-156.8867963">
  <ele>183.31</ele>
  <time>2026-09-01T20:02:40Z</time>
  <course>1.72</course>
  <speed>1.1710678887237922</speed>
  <fix>3d</fix>
</trkpt>
<trkpt lat="21.1660257" lon="-156.8867957">
  <ele>182.76</ele>
  <time>2026-09-01T20:02:40Z</time>
  <course>1.4</course>
  <speed>1.04</speed>
  <fix>3d</fix>
</trkpt>
<trkpt lat="21.1660258" lon="-156.8867961">
  <ele>183.59</ele>
  <time>2026-09-01T20:02:40Z</time>
  <course>1.74</course>
  <speed>3.3302402315748934</speed>
  <fix>3d</fix>
</trkpt>
<trkpt lat="21.1660257" lon="-156.8867957">
  <ele>182.76</ele>
  <time>2026-09-01T20:02:40Z</time>
  <course>1.4</course>
  <speed>1.04</speed>
  <fix>3d</fix>
</trkpt>
<trkpt lat="21.1660294" lon="-156.8867961">
  <ele>183.87</ele>
  <time>2026-09-01T20:02:40Z</time>
  <course>1.73</course>
  <speed>4.540891982859756</speed>
  <fix>3d</fix>
</trkpt>
<trkpt lat="21.1660261" lon="-156.8867958">
  <ele>183.29</ele>
  <time>2026-09-01T20:02:40Z</time>
  <course>358.9</course>
  <speed>1.01</speed>
  <fix>3d</fix>
</trkpt>
<trkpt lat="21.1660338" lon="-156.886796">
  <ele>184.13</ele>
  <time>2026-09-01T20:02:40Z</time>
  <course>1.71</course>
  <speed>5.121406056933974</speed>
  <fix>3d</fix>
</trkpt>
<trkpt lat="21.1660261" lon="-156.8867958">
  <ele>183.29</ele>
  <time>2026-09-01T20:02:40Z</time>
  <course>358.9</course>
  <speed>1.01</speed>
  <fix>3d</fix>
</trkpt>
<trkpt lat="21.1660385" lon="-156.8867958">
  <ele>184.39</ele>
  <time>2026-09-01T20:02:40Z</time>
  <course>1.64</course>
  <speed>5.551522313744222</speed>
  <fix>3d</fix>
</trkpt>
<trkpt lat="21.166031" lon="-156.8867957">
  <ele>183.84</ele>
  <time>2026-09-01T20:02:40Z</time>
  <course>1.5</course>
  <speed>4.21</speed>
  <fix>3d</fix>
</trkpt>
<trkpt lat="21.1660437" lon="-156.8867956">
  <ele>184.63</ele>
  <time>2026-09-01T20:02:40Z</time>
  <course>1.6</course>
  <speed>6.10209799986857</speed>
  <fix>3d</fix>
</trkpt>
<trkpt lat="21.166031" lon="-156.8867957">
  <ele>183.84</ele>
  <time>2026-09-01T20:02:40Z</time>
  <course>1.5</course>
  <speed>4.21</speed>
  <fix>3d</fix>
</trkpt>
<trkpt lat="21.1660495" lon="-156.8867954">
  <ele>184.85</ele>
  <time>2026-09-01T20:02:40Z</time>
  <course>1.59</course>
  <speed>6.802653893885827</speed>
  <fix>3d</fix>
</trkpt>
<trkpt lat="21.16604" lon="-156.8867955">
  <ele>184.36</ele>
  <time>2026-09-01T20:02:40Z</time>
  <course>1.62</course>
  <speed>5.62</speed>
  <fix>3d</fix>
</trkpt>
<trkpt lat="21.166056" lon="-156.8867952">
  <ele>185.06</ele>
  <time>2026-09-01T20:02:40Z</time>
  <course>1.58</course>
  <speed>7.57291225355213</speed>
  <fix>3d</fix>
</trkpt>
<trkpt lat="21.16604" lon="-156.8867955">
  <ele>184.36</ele>
  <time>2026-09-01T20:02:40Z</time>
  <course>1.62</course>
  <speed>5.62</speed>
  <fix>3d</fix>
</trkpt>
<trkpt lat="21.1660631" lon="-156.886795">
  <ele>185.26</ele>
  <time>2026-09-01T20:02:40Z</time>
  <course>1.66</course>
  <speed>8.31346498158259</speed>
  <fix>3d</fix>
</trkpt>
<trkpt lat="21.1660512" lon="-156.8867951">
  <ele>184.82</ele>
  <time>2026-09-01T20:02:40Z</time>
  <course>1.66</course>
  <speed>6.85</speed>
  <fix>3d</fix>
</trkpt>
<trkpt lat="21.1660709" lon="-156.8867947">
  <ele>185.45</ele>
  <time>2026-09-01T20:02:40Z</time>
  <course>1.6</course>
  <speed>9.034035643055654</speed>
  <fix>3d</fix>
</trkpt>
<trkpt lat="21.1660512" lon="-156.8867951">
  <ele>184.82</ele>
  <time>2026-09-01T20:02:40Z</time>
  <course>1.66</course>
  <speed>6.85</speed>
  <fix>3d</fix>
</trkpt>
<trkpt lat="21.1660793" lon="-156.8867944">
  <ele>185.64</ele>
  <time>2026-09-01T20:02:40Z</time>
  <course>1.53</course>
  <speed>9.714036236292307</speed>
  <fix>3d</fix>
</trkpt>
<trkpt lat="21.1660649" lon="-156.8867947">
  <ele>185.23</ele>
  <time>2026-09-01T20:02:40Z</time>
  <course>1.68</course>
  <speed>8.32</speed>
  <fix>3d</fix>
</trkpt>
<trkpt lat="21.1660884" lon="-156.8867941">
  <ele>185.82</ele>
  <time>2026-09-01T20:02:40Z</time>
  <course>1.55</course>
  <speed>10.384334355171736</speed>
  <fix>3d</fix>
</trkpt>
<trkpt lat="21.1660649" lon="-156.8867947">
  <ele>185.23</ele>
  <time>2026-09-01T20:02:40Z</time>
  <course>1.68</course>
  <speed>8.32</speed>
  <fix>3d</fix>
</trkpt>
<trkpt lat="21.166098" lon="-156.8867938">
  <ele>186.01</ele>
  <time>2026-09-01T20:02:40Z</time>
  <course>1.61</course>
  <speed>11.044351497485039</speed>
  <fix>3d</fix>
</trkpt>
<trkpt lat="21.1660811" lon="-156.8867942">
  <ele>185.6</ele>
  <time>2026-09-01T20:02:40Z</time>
  <course>1.65</course>
  <speed>9.74</speed>
  <fix>3d</fix>
</trkpt>
<trkpt lat="21.1661071" lon="-156.8867935">
  <ele>186.2</ele>
  <time>2026-09-01T20:02:40Z</time>
  <course>1.64</course>
  <speed>6.4322468858090325</speed>
  <fix>3d</fix>
</trkpt>
<trkpt lat="21.1660811" lon="-156.8867942">
  <ele>185.6</ele>
  <time>2026-09-01T20:02:40Z</time>
  <course>1.65</course>
  <speed>9.74</speed>
  <fix>3d</fix>
</trkpt>
<trkpt lat="21.1661088" lon="-156.8867935">
  <ele>186.42</ele>
  <time>2026-09-01T20:02:40Z</time>
  <course>1.45</course>
  <speed>0.5608029957123981</speed>
  <fix>3d</fix>
</trkpt>
<trkpt lat="21.1660993" lon="-156.8867936">
  <ele>185.97</ele>
  <time>2026-09-01T20:02:40Z</time>
  <course>1.59</course>
  <speed>8.62</speed>
  <fix>3d</fix>
</trkpt>
<trkpt lat="21.1661068" lon="-156.8867935">
  <ele>186.67</ele>
  <time>2026-09-01T20:02:40Z</time>
  <course>1.36</course>
  <speed>1.8916923639957952</speed>
  <fix>3d</fix>
</trkpt>
<trkpt lat="21.1660993" lon="-156.8867936">
  <ele>185.97</ele>
  <time>2026-09-01T20:02:40Z</time>
  <course>1.59</course>
  <speed>8.62</speed>
  <fix>3d</fix>
</trkpt>
<trkpt lat="21.1661063" lon="-156.8867936">
  <ele>186.93</ele>
  <time>2026-09-01T20:02:40Z</time>
  <course>1.59</course>
  <speed>0.0854400374531753</speed>
  <fix>3d</fix>
</trkpt>
<trkpt lat="21.1661093" lon="-156.8867933">
  <ele>186.38</ele>
  <time>2026-09-01T20:02:40Z</time>
  <course>1.29</course>
  <speed>2.53</speed>
  <fix>3d</fix>
</trkpt>
<trkpt lat="21.166108" lon="-156.8867936">
  <ele>187.21</ele>
  <time>2026-09-01T20:02:40Z</time>
  <course>1.98</course>
  <speed>2.5201785651020843</speed>
  <fix>3d</fix>
</trkpt>
<trkpt lat="21.1661093" lon="-156.8867933">
  <ele>186.38</ele>
  <time>2026-09-01T20:02:40Z</time>
  <course>1.29</course>
  <speed>2.53</speed>
  <fix>3d</fix>
</trkpt>
<trkpt lat="21.1661115" lon="-156.8867935">
  <ele>187.49</ele>
  <time>2026-09-01T20:02:40Z</time>
  <course>2.33</course>
  <speed>4.12098289246631</speed>
  <fix>3d</fix>
</trkpt>
<trkpt lat="21.1661101" lon="-156.8867933">
  <ele>186.89</ele>
  <time>2026-09-01T20:02:40Z</time>
  <course>357.43</course>
  <speed>0.38</speed>
  <fix>3d</fix>
</trkpt>
<trkpt lat="21.1661159" lon="-156.8867933">
  <ele>187.77</ele>
  <time>2026-09-01T20:02:40Z</time>
  <course>2.53</course>
  <speed>4.921717180009432</speed>
  <fix>3d</fix>
</trkpt>
<trkpt lat="21.1661101" lon="-156.8867933">
  <ele>186.89</ele>
  <time>2026-09-01T20:02:40Z</time>
  <course>357.43</course>
  <speed>0.38</speed>
  <fix>3d</fix>
</trkpt>
<trkpt lat="21.1661207" lon="-156.8867932">
  <ele>188.04</ele>
  <time>2026-09-01T20:02:40Z</time>
  <course>2.62</course>
  <speed>5.362695217891839</speed>
  <fix>3d</fix>
</trkpt>
<trkpt lat="21.1661139" lon="-156.8867933">
  <ele>187.45</ele>
  <time>2026-09-01T20:02:40Z</time>
  <course>1.3</course>
  <speed>3.73</speed>
  <fix>3d</fix>
</trkpt>
<trkpt lat="21.1661258" lon="-156.886793">
  <ele>188.29</ele>
  <time>2026-09-01T20:02:40Z</time>
  <course>2.59</course>
  <speed>5.854135290544625</speed>
  <fix>3d</fix>
</trkpt>
<trkpt lat="21.1661139" lon="-156.8867933">
  <ele>187.45</ele>
  <time>2026-09-01T20:02:40Z</time>
  <course>1.3</course>
  <speed>3.73</speed>
  <fix>3d</fix>
</trkpt>
<trkpt lat="21.1661314" lon="-156.8867927">
  <ele>188.53</ele>
  <time>2026-09-01T20:02:40Z</time>
  <course>2.53</course>
  <speed>6.5056052754528535</speed>
  <fix>3d</fix>
</trkpt>
<trkpt lat="21.1661223" lon="-156.886793">
  <ele>188.0</ele>
  <time>2026-09-01T20:02:40Z</time>
  <course>1.83</course>
  <speed>5.39</speed>
  <fix>3d</fix>
</trkpt>
<trkpt lat="21.1661377" lon="-156.8867924">
  <ele>188.76</ele>
  <time>2026-09-01T20:02:40Z</time>
  <course>2.4</course>
  <speed>7.276606351864858</speed>
  <fix>3d</fix>
</trkpt>
<trkpt lat="21.1661223" lon="-156.886793">
  <ele>188.0</ele>
  <time>2026-09-01T20:02:40Z</time>
  <course>1.83</course>
  <speed>5.39</speed>
  <fix>3d</fix>
</trkpt>
<trkpt lat="21.1661446" lon="-156.8867921">
  <ele>188.97</ele>
  <time>2026-09-01T20:02:40Z</time>
  <course>2.27</course>
  <speed>8.03806568771368</speed>
  <fix>3d</fix>
</trkpt>
<trkpt lat="21.166133" lon="-156.8867926">
  <ele>188.51</ele>
  <time>2026-09-01T20:02:40Z</time>
  <course>2.25</course>
  <speed>6.56</speed>
  <fix>3d</fix>
</trkpt>
<trkpt lat="21.1661522" lon="-156.8867917">
  <ele>189.17</ele>
  <time>2026-09-01T20:02:40Z</time>
  <course>2.29</course>
  <speed>8.76912766471101</speed>
  <fix>3d</fix>
</trkpt>
<trkpt lat="21.166133" lon="-156.8867926">
  <ele>188.51</ele>
  <time>2026-09-01T20:02:40Z</time>
  <course>2.25</course>
  <speed>6.56</speed>
  <fix>3d</fix>
</trkpt>
<trkpt lat="21.1661604" lon="-156.8867913">
  <ele>189.36</ele>
  <time>2026-09-01T20:02:40Z</time>
  <course>2.28</course>
  <speed>9.459778010080363</speed>
  <fix>3d</fix>
</trkpt>
<trkpt lat="21.1661462" lon="-156.886792">
  <ele>188.95</ele>
  <time>2026-09-01T20:02:40Z</time>
  <course>2.46</course>
  <speed>8.01</speed>
  <fix>3d</fix>
</trkpt>
<trkpt lat="21.1661692" lon="-156.8867909">
  <ele>189.56</ele>
  <time>2026-09-01T20:02:40Z</time>
  <course>2.24</course>
  <speed>10.13044915095081</speed>
  <fix>3d</fix>
</trkpt>
<trkpt lat="21.1661462" lon="-156.886792">
  <ele>188.95</ele>
  <time>2026-09-01T20:02:40Z</time>
  <course>2.46</course>
  <speed>8.01</speed>
  <fix>3d</fix>
</trkpt>
<trkpt lat="21.1661786" lon="-156.8867905">
  <ele>189.75</ele>
  <time>2026-09-01T20:02:40Z</time>
  <course>2.11</course>
  <speed>10.780691072468407</speed>
  <fix>3d</fix>
</trkpt>
<trkpt lat="21.1661618" lon="-156.8867914">
  <ele>189.35</ele>
  <time>2026-09-01T20:02:40Z</time>
  <course>2.51</course>
  <speed>9.44</speed>
  <fix>3d</fix>
</trkpt>
<trkpt lat="21.1661885" lon="-156.88679">
  <ele>189.94</ele>
  <time>2026-09-01T20:02:40Z</time>
  <course>1.96</course>
  <speed>11.430940468745343</speed>
  <fix>3d</fix>
</trkpt>
<trkpt lat="21.1661618" lon="-156.8867914">
  <ele>189.35</ele>
  <time>2026-09-01T20:02:40Z</time>
  <course>2.51</course>
  <speed>9.44</speed>
  <fix>3d</fix>
</trkpt>
<trkpt lat="21.166199" lon="-156.8867895">
  <ele>190.13</ele>
  <time>2026-09-01T20:02:40Z</time>
  <course>1.87</course>
  <speed>12.050377587445134</speed>
  <fix>3d</fix>
</trkpt>
<trkpt lat="21.1661799" lon="-156.8867905">
  <ele>189.73</ele>
  <time>2026-09-01T20:02:40Z</time>
  <course>2.46</course>
  <speed>10.78</speed>
  <fix>3d</fix>
</trkpt>
<trkpt lat="21.16621" lon="-156.8867891">
  <ele>190.32</ele>
  <time>2026-09-01T20:02:40Z</time>
  <course>1.83</course>
  <speed>12.65987756654858</speed>
  <fix>3d</fix>
</trkpt>
<trkpt lat="21.1661799" lon="-156.8867905">
  <ele>189.73</ele>
  <time>2026-09-01T20:02:40Z</time>
  <course>2.46</course>
  <speed>10.78</speed>
  <fix>3d</fix>
</trkpt>
<trkpt lat="21.1662216" lon="-156.8867886">
  <ele>190.52</ele>
  <time>2026-09-01T20:02:40Z</time>
  <course>1.75</course>
  <speed>13.239444852409786</speed>
  <fix>3d</fix>
</trkpt>
<trkpt lat="21.1662005" lon="-156.8867895">
  <ele>190.12</ele>
  <time>2026-09-01T20:02:40Z</time>
  <course>2.31</course>
  <speed>12.06</speed>
  <fix>3d</fix>
</trkpt>
<trkpt lat="21.1662337" lon="-156.8867881">
  <ele>190.72</ele>
  <time>2026-09-01T20:02:40Z</time>
  <course>1.76</course>
  <speed>13.808696535154938</speed>
  <fix>3d</fix>
</trkpt>
<trkpt lat="21.1662005" lon="-156.8867895">
  <ele>190.12</ele>
  <time>2026-09-01T20:02:40Z</time>
  <course>2.31</course>
  <speed>12.06</speed>
  <fix>3d</fix>
</trkpt>
<trkpt lat="21.1662463" lon="-156.8867877">
  <ele>190.93</ele>
  <time>2026-09-01T20:02:40Z</time>
  <course>1.81</course>
  <speed>14.348031223829977</speed>
  <fix>3d</fix>
</trkpt>
<trkpt lat="21.1662232" lon="-156.8867886">
  <ele>190.51</ele>
  <time>2026-09-01T20:02:40Z</time>
  <course>2.09</course>
  <speed>13.26</speed>
  <fix>3d</fix>
</trkpt>
<trkpt lat="21.1662594" lon="-156.8867872">
  <ele>191.15</ele>
  <time>2026-09-01T20:02:40Z</time>
  <course>1.79</course>
  <speed>14.867430847325304</speed>
  <fix>3d</fix>
</trkpt>
<trkpt lat="21.1662232" lon="-156.8867886">
  <ele>190.51</ele>
  <time>2026-09-01T20:02:40Z</time>
  <course>2.09</course>
  <speed>13.26</speed>
  <fix>3d</fix>
</trkpt>
<trkpt lat="21.1662729" lon="-156.8867868">
  <ele>191.38</ele>
  <time>2026-09-01T20:02:40Z</time>
  <course>1.78</course>
  <speed>15.376881998636783</speed>
  <fix>3d</fix>
</trkpt>
<trkpt lat="21.166248" lon="-156.8867877">
  <ele>190.92</ele>
  <time>2026-09-01T20:02:40Z</time>
  <course>1.86</course>
  <speed>14.38</speed>
  <fix>3d</fix>
</trkpt>
<trkpt lat="21.1662869" lon="-156.8867864">
  <ele>191.62</ele>
  <time>2026-09-01T20:02:40Z</time>
  <course>1.65</course>
  <speed>15.856386725859078</speed>
  <fix>3d</fix>
</trkpt>
<trkpt lat="21.166248" lon="-156.8867877">
  <ele>190.92</ele>
  <time>2026-09-01T20:02:40Z</time>
  <course>1.86</course>
  <speed>14.38</speed>
  <fix>3d</fix>
</trkpt>
<trkpt lat="21.1663013" lon="-156.886786">
  <ele>191.87</ele>
  <time>2026-09-01T20:02:40Z</time>
  <course>1.52</course>
  <speed>16.325663845614365</speed>
  <fix>3d</fix>
</trkpt>
<trkpt lat="21.1662748" lon="-156.8867868">
  <ele>191.36</ele>
  <time>2026-09-01T20:02:40Z</time>
  <course>1.66</course>
  <speed>15.41</speed>
  <fix>3d</fix>
</trkpt>
<trkpt lat="21.1663161" lon="-156.8867856">
  <ele>192.13</ele>
  <time>2026-09-01T20:02:40Z</time>
  <course>1.48</course>
  <speed>16.774769745066546</speed>
  <fix>3d</fix>
</trkpt>
<trkpt lat="21.1662748" lon="-156.8867868">
  <ele>191.36</ele>
  <time>2026-09-01T20:02:40Z</time>
  <course>1.66</course>
  <speed>15.41</speed>
  <fix>3d</fix>
</trkpt>
<trkpt lat="21.1663312" lon="-156.8867852">
  <ele>192.39</ele>
  <time>2026-09-01T20:02:40Z</time>
  <course>1.47</course>
  <speed>17.20442094346683</speed>
  <fix>3d</fix>
</trkpt>
<trkpt lat="21.1663033" lon="-156.886786">
  <ele>191.85</ele>
  <time>2026-09-01T20:02:40Z</time>
  <course>1.44</course>
  <speed>16.37</speed>
  <fix>3d</fix>
</trkpt>
<trkpt lat="21.1663468" lon="-156.8867849">
  <ele>192.66</ele>
  <time>2026-09-01T20:02:40Z</time>
  <course>1.34</course>
  <speed>17.63388215907093</speed>
  <fix>3d</fix>
</trkpt>
<trkpt lat="21.1663033" lon="-156.886786">
  <ele>191.85</ele>
  <time>2026-09-01T20:02:40Z</time>
  <course>1.44</course>
  <speed>16.37</speed>
  <fix>3d</fix>
</trkpt>
<trkpt lat="21.1663628" lon="-156.8867845">
  <ele>192.93</ele>
  <time>2026-09-01T20:02:40Z</time>
  <course>1.29</course>
  <speed>18.04320370665919</speed>
  <fix>3d</fix>
</trkpt>
<trkpt lat="21.1663335" lon="-156.8867852">
  <ele>192.36</ele>
  <time>2026-09-01T20:02:40Z</time>
  <course>1.22</course>
  <speed>17.28</speed>
  <fix>3d</fix>
</trkpt>
<trkpt lat="21.1663791" lon="-156.8867842">
  <ele>193.2</ele>
  <time>2026-09-01T20:02:40Z</time>
  <course>1.24</course>
  <speed>18.442776363660652</speed>
  <fix>3d</fix>
</trkpt>
<trkpt lat="21.1663335" lon="-156.8867852">
  <ele>192.36</ele>
  <time>2026-09-01T20:02:40Z</time>
  <course>1.22</course>
  <speed>17.28</speed>
  <fix>3d</fix>
</trkpt>
<trkpt lat="21.166396" lon="-156.886784">
  <ele>193.47</ele>
  <time>2026-09-01T20:02:40Z</time>
  <course>1.2</course>
  <speed>18.842388383641815</speed>
  <fix>3d</fix>
</trkpt>
<trkpt lat="21.1663654" lon="-156.8867846">
  <ele>192.9</ele>
  <time>2026-09-01T20:02:40Z</time>
  <course>1.02</course>
  <speed>18.13</speed>
  <fix>3d</fix>
</trkpt>
<trkpt lat="21.166413" lon="-156.8867837">
  <ele>193.75</ele>
  <time>2026-09-01T20:02:40Z</time>
  <course>1.19</course>
  <speed>19.212040495480952</speed>
  <fix>3d</fix>
</trkpt>
<trkpt lat="21.1663654" lon="-156.8867846">
  <ele>192.9</ele>
  <time>2026-09-01T20:02:40Z</time>
  <course>1.02</course>
  <speed>18.13</speed>
  <fix>3d</fix>
</trkpt>
<trkpt lat="21.1664305" lon="-156.8867834">
  <ele>194.02</ele>
  <time>2026-09-01T20:02:40Z</time>
  <course>1.11</course>
  <speed>19.581861504974444</speed>
  <fix>3d</fix>
</trkpt>
<trkpt lat="21.1663988" lon="-156.8867839">
  <ele>193.44</ele>
  <time>2026-09-01T20:02:40Z</time>
  <course>0.86</course>
  <speed>18.92</speed>
  <fix>3d</fix>
</trkpt>
<trkpt lat="21.1664488" lon="-156.8867832">
  <ele>194.31</ele>
  <time>2026-09-01T20:02:40Z</time>
  <course>0.96</course>
  <speed>19.941567140021867</speed>
  <fix>3d</fix>
</trkpt>
<trkpt lat="21.1663988" lon="-156.8867839">
  <ele>193.44</ele>
  <time>2026-09-01T20:02:40Z</time>
  <course>0.86</course>
  <speed>18.92</speed>
  <fix>3d</fix>
</trkpt>
<trkpt lat="21.1664667" lon="-156.886783">
  <ele>194.58</ele>
  <time>2026-09-01T20:02:40Z</time>
  <course>0.82</course>
  <speed>20.281304198694915</speed>
  <fix>3d</fix>
</trkpt>
<trkpt lat="21.1664334" lon="-156.8867834">
  <ele>193.98</ele>
  <time>2026-09-01T20:02:40Z</time>
  <course>0.73</course>
  <speed>19.67</speed>
  <fix>3d</fix>
</trkpt>
<trkpt lat="21.1664851" lon="-156.8867828">
  <ele>194.86</ele>
  <time>2026-09-01T20:02:40Z</time>
  <course>0.71</course>
  <speed>20.600970850908944</speed>
  <fix>3d</fix>
</trkpt>
<trkpt lat="21.1664334" lon="-156.8867834">
  <ele>193.98</ele>
  <time>2026-09-01T20:02:40Z</time>
  <course>0.73</course>
  <speed>19.67</speed>
  <fix>3d</fix>
</trkpt>
<trkpt lat="21.1665037" lon="-156.8867826">
  <ele>195.15</ele>
  <time>2026-09-01T20:02:40Z</time>
  <course>0.62</course>
  <speed>20.91069104549154</speed>
  <fix>3d</fix>
</trkpt>
<trkpt lat="21.1664694" lon="-156.8867829">
  <ele>194.53</ele>
  <time>2026-09-01T20:02:40Z</time>
  <course>0.59</course>
  <speed>20.36</speed>
  <fix>3d</fix>
</trkpt>
<trkpt lat="21.1665226" lon="-156.8867825">
  <ele>195.45</ele>
  <time>2026-09-01T20:02:40Z</time>
  <course>0.47</course>
  <speed>21.19046247725613</speed>
  <fix>3d</fix>
</trkpt>
<trkpt lat="21.1664694" lon="-156.8867829">
  <ele>194.53</ele>
  <time>2026-09-01T20:02:40Z</time>
  <course>0.59</course>
  <speed>20.36</speed>
  <fix>3d</fix>
</trkpt>
<trkpt lat="21.166542" lon="-156.8867824">
  <ele>195.77</ele>
  <time>2026-09-01T20:02:40Z</time>
  <course>0.35</course>
  <speed>21.460232990347517</speed>
  <fix>3d</fix>
</trkpt>
<trkpt lat="21.1665066" lon="-156.8867826">
  <ele>195.1</ele>
  <time>2026-09-01T20:02:40Z</time>
  <course>0.42</course>
  <speed>21.0</speed>
  <fix>3d</fix>
</trkpt>
<trkpt lat="21.1665609" lon="-156.8867823">
  <ele>196.09</ele>
  <time>2026-09-01T20:02:40Z</time>
  <course>0.33</course>
  <speed>21.700112902932098</speed>
  <fix>3d</fix>
</trkpt>
<trkpt lat="21.1665066" lon="-156.8867826">
  <ele>195.1</ele>
  <time>2026-09-01T20:02:40Z</time>
  <course>0.42</course>
  <speed>21.0</speed>
  <fix>3d</fix>
</trkpt>
<trkpt lat="21.1665805" lon="-156.8867822">
  <ele>196.43</ele>
  <time>2026-09-01T20:02:40Z</time>
  <course>0.31</course>
  <speed>21.93005699946993</speed>
  <fix>3d</fix>
</trkpt>
<trkpt lat="21.1665448" lon="-156.8867823">
  <ele>195.7</ele>
  <time>2026-09-01T20:02:40Z</time>
  <course>0.25</course>
  <speed>21.55</speed>
  <fix>3d</fix>
</trkpt>
<trkpt lat="21.1666004" lon="-156.8867822">
  <ele>196.79</ele>
  <time>2026-09-01T20:02:40Z</time>
  <course>0.3</course>
  <speed>22.140020325193923</speed>
  <fix>3d</fix>
</trkpt>
<trkpt lat="21.1665448" lon="-156.8867823">
  <ele>195.7</ele>
  <time>2026-09-01T20:02:40Z</time>
  <course>0.25</course>
  <speed>21.55</speed>
  <fix>3d</fix>
</trkpt>
<trkpt lat="21.1666204" lon="-156.8867822">
  <ele>197.17</ele>
  <time>2026-09-01T20:02:40Z</time>
  <course>0.25</course>
  <speed>22.34</speed>
  <fix>3d</fix>
</trkpt>
<trkpt lat="21.166584" lon="-156.8867823">
  <ele>196.38</ele>
  <time>2026-09-01T20:02:40Z</time>
  <course>0.1</course>
  <speed>22.03</speed>
  <fix>3d</fix>
</trkpt>
<trkpt lat="21.1666406" lon="-156.8867822">
  <ele>197.56</ele>
  <time>2026-09-01T20:02:40Z</time>
  <course>0.13</course>
  <speed>22.530002219263096</speed>
  <fix>3d</fix>
</trkpt>
<trkpt lat="21.166584" lon="-156.8867823">
  <ele>196.38</ele>
  <time>2026-09-01T20:02:40Z</time>
  <course>0.1</course>
  <speed>22.03</speed>
  <fix>3d</fix>
</trkpt>
<trkpt lat="21.166661" lon="-156.8867822">
  <ele>197.97</ele>
  <time>2026-09-01T20:02:40Z</time>
  <course>0.04</course>
  <speed>22.7100198150508</speed>
  <fix>3d</fix>
</trkpt>
<trkpt lat="21.1666239" lon="-156.8867823">
  <ele>197.11</ele>
  <time>2026-09-01T20:02:40Z</time>
  <course>359.98</course>
  <speed>22.45</speed>
  <fix>3d</fix>
</trkpt>
<trkpt lat="21.1666815" lon="-156.8867823">
  <ele>198.38</ele>
  <time>2026-09-01T20:02:40Z</time>
  <course>359.91</course>
  <speed>22.88007867119342</speed>
  <fix>3d</fix>
</trkpt>
<trkpt lat="21.1666239" lon="-156.8867823">
  <ele>197.11</ele>
  <time>2026-09-01T20:02:40Z</time>
  <course>359.98</course>
  <speed>22.45</speed>
  <fix>3d</fix>
</trkpt>
<trkpt lat="21.1667023" lon="-156.8867824">
  <ele>198.81</ele>
  <time>2026-09-01T20:02:40Z</time>
  <course>359.84</course>
  <speed>23.04013888847027</speed>
  <fix>3d</fix>
</trkpt>
<trkpt lat="21.1666645" lon="-156.8867823">
  <ele>197.9</ele>
  <time>2026-09-01T20:02:40Z</time>
  <course>359.86</course>
  <speed>22.82</speed>
  <fix>3d</fix>
</trkpt>
<trkpt lat="21.1667229" lon="-156.8867825">
  <ele>199.24</ele>
  <time>2026-09-01T20:02:40Z</time>
  <course>359.78</course>
  <speed>23.20026077439648</speed>
  <fix>3d</fix>
</trkpt>
<trkpt lat="21.1666645" lon="-156.8867823">
  <ele>197.9</ele>
  <time>2026-09-01T20:02:40Z</time>
  <course>359.86</course>
  <speed>22.82</speed>
  <fix>3d</fix>
</trkpt>
<trkpt lat="21.1667439" lon="-156.8867825">
  <ele>199.68</ele>
  <time>2026-09-01T20:02:40Z</time>
  <course>359.81</course>
  <speed>23.350361881564062</speed>
  <fix>3d</fix>
</trkpt>
<trkpt lat="21.1667058" lon="-156.8867823">
  <ele>198.73</ele>
  <time>2026-09-01T20:02:40Z</time>
  <course>359.75</course>
  <speed>23.15</speed>
  <fix>3d</fix>
</trkpt>
<trkpt lat="21.166765" lon="-156.8867827">
  <ele>200.13</ele>
  <time>2026-09-01T20:02:40Z</time>
  <course>359.78</course>
  <speed>23.490417195103195</speed>
  <fix>3d</fix>
</trkpt>
<trkpt lat="21.1667058" lon="-156.8867823">
  <ele>198.73</ele>
  <time>2026-09-01T20:02:40Z</time>
  <course>359.75</course>
  <speed>23.15</speed>
  <fix>3d</fix>
</trkpt>
<trkpt lat="21.1667863" lon="-156.8867828">
  <ele>200.58</ele>
  <time>2026-09-01T20:02:40Z</time>
  <course>359.73</course>
  <speed>23.630476084920506</speed>
  <fix>3d</fix>
</trkpt>
<trkpt lat="21.1667477" lon="-156.8867826">
  <ele>199.61</ele>
  <time>2026-09-01T20:02:40Z</time>
  <course>359.65</course>
  <speed>23.45</speed>
  <fix>3d</fix>
</trkpt>
<trkpt lat="21.1668078" lon="-156.886783">
  <ele>201.05</ele>
  <time>2026-09-01T20:02:40Z</time>
  <course>359.72</course>
  <speed>23.760608157200018</speed>
  <fix>3d</fix>
</trkpt>
<trkpt lat="21.1667477" lon="-156.8867826">
  <ele>199.61</ele>
  <time>2026-09-01T20:02:40Z</time>
  <course>359.65</course>
  <speed>23.45</speed>
  <fix>3d</fix>
</trkpt>
<trkpt lat="21.1668293" lon="-156.8867831">
  <ele>201.51</ele>
  <time>2026-09-01T20:02:40Z</time>
  <course>359.62</course>
  <speed>23.89067809837134</speed>
  <fix>3d</fix>
</trkpt>
<trkpt lat="21.1667902" lon="-156.8867829">
  <ele>200.51</ele>
  <time>2026-09-01T20:02:40Z</time>
  <course>359.57</course>
  <speed>23.73</speed>
  <fix>3d</fix>
</trkpt>
<trkpt lat="21.1668509" lon="-156.8867833">
  <ele>201.98</ele>
  <time>2026-09-01T20:02:40Z</time>
  <course>359.58</course>
  <speed>24.02067442850013</speed>
  <fix>3d</fix>
</trkpt>
<trkpt lat="21.1667902" lon="-156.8867829">
  <ele>200.51</ele>
  <time>2026-09-01T20:02:40Z</time>
  <course>359.57</course>
  <speed>23.73</speed>
  <fix>3d</fix>
</trkpt>
<trkpt lat="21.1668734" lon="-156.8867835">
  <ele>202.46</ele>
  <time>2026-09-01T20:02:40Z</time>
  <course>359.49</course>
  <speed>24.130828829528422</speed>
  <fix>3d</fix>
</trkpt>
<trkpt lat="21.1668331" lon="-156.8867833">
  <ele>201.43</ele>
  <time>2026-09-01T20:02:40Z</time>
  <course>359.52</course>
  <speed>23.99</speed>
  <fix>3d</fix>
</trkpt>
<trkpt lat="21.166895" lon="-156.8867837">
  <ele>202.93</ele>
  <time>2026-09-01T20:02:40Z</time>
  <course>359.46</course>
  <speed>24.230910011801043</speed>
  <fix>3d</fix>
</trkpt>
<trkpt lat="21.1668331" lon="-156.8867833">
  <ele>201.43</ele>
  <time>2026-09-01T20:02:40Z</time>
  <course>359.52</course>
  <speed>23.99</speed>
  <fix>3d</fix>
</trkpt>
<trkpt lat="21.1669169" lon="-156.886784">
  <ele>203.4</ele>
  <time>2026-09-01T20:02:40Z</time>
  <course>359.56</course>
  <speed>24.30099586436737</speed>
  <fix>3d</fix>
</trkpt>
<trkpt lat="21.1668765" lon="-156.8867837">
  <ele>202.37</ele>
  <time>2026-09-01T20:02:40Z</time>
  <course>359.46</course>
  <speed>24.22</speed>
  <fix>3d</fix>
</trkpt>
<trkpt lat="21.1669388" lon="-156.8867842">
  <ele>203.88</ele>
  <time>2026-09-01T20:02:40Z</time>
  <course>359.58</course>
  <speed>24.330994636471402</speed>
  <fix>3d</fix>
</trkpt>
<trkpt lat="21.1668765" lon="-156.8867837">
  <ele>202.37</ele>
  <time>2026-09-01T20:02:40Z</time>
  <course>359.46</course>
  <speed>24.22</speed>
  <fix>3d</fix>
</trkpt>
<trkpt lat="21.1669607" lon="-156.8867844">
  <ele>204.35</ele>
  <time>2026-09-01T20:02:40Z</time>
  <course>359.5</course>
  <speed>24.320995045433484</speed>
  <fix>3d</fix>
</trkpt>
<trkpt lat="21.1669201" lon="-156.8867841">
  <ele>203.31</ele>
  <time>2026-09-01T20:02:40Z</time>
  <course>359.42</course>
  <speed>24.37</speed>
  <fix>3d</fix>
</trkpt>
<trkpt lat="21.1669828" lon="-156.8867847">
  <ele>204.82</ele>
  <time>2026-09-01T20:02:40Z</time>
  <course>359.39</course>
  <speed>24.2810893495329</speed>
  <fix>3d</fix>
</trkpt>
<trkpt lat="21.1669201" lon="-156.8867841">
  <ele>203.31</ele>
  <time>2026-09-01T20:02:40Z</time>
  <course>359.42</course>
  <speed>24.37</speed>
  <fix>3d</fix>
</trkpt>
<trkpt lat="21.1670047" lon="-156.8867849">
  <ele>205.29</ele>
  <time>2026-09-01T20:02:40Z</time>
  <course>359.39</course>
  <speed>24.21118956185342</speed>
  <fix>3d</fix>
</trkpt>
<trkpt lat="21.1669639" lon="-156.8867846">
  <ele>204.26</ele>
  <time>2026-09-01T20:02:40Z</time>
  <course>359.4</course>
  <speed>24.39</speed>
  <fix>3d</fix>
</trkpt>
<trkpt lat="21.1670265" lon="-156.8867852">
  <ele>205.76</ele>
  <time>2026-09-01T20:02:40Z</time>
  <course>359.41</course>
  <speed>24.111296107841234</speed>
  <fix>3d</fix>
</trkpt>
<trkpt lat="21.1669639" lon="-156.8867846">
  <ele>204.26</ele>
  <time>2026-09-01T20:02:40Z</time>
  <course>359.4</course>
  <speed>24.39</speed>
  <fix>3d</fix>
</trkpt>
<trkpt lat="21.1670482" lon="-156.8867854">
  <ele>206.22</ele>
  <time>2026-09-01T20:02:40Z</time>
  <course>359.46</course>
  <speed>23.98130313389996</speed>
  <fix>3d</fix>
</trkpt>
<trkpt lat="21.1670077" lon="-156.8867851">
  <ele>205.19</ele>
  <time>2026-09-01T20:02:40Z</time>
  <course>359.37</course>
  <speed>24.28</speed>
  <fix>3d</fix>
</trkpt>
<trkpt lat="21.1670697" lon="-156.8867857">
  <ele>206.67</ele>
  <time>2026-09-01T20:02:40Z</time>
  <course>359.43</course>
  <speed>23.81131243757891</speed>
  <fix>3d</fix>
</trkpt>
<trkpt lat="21.1670077" lon="-156.8867851">
  <ele>205.19</ele>
  <time>2026-09-01T20:02:40Z</time>
  <course>359.37</course>
  <speed>24.28</speed>
  <fix>3d</fix>
</trkpt>
<trkpt lat="21.1670911" lon="-156.8867859">
  <ele>207.12</ele>
  <time>2026-09-01T20:02:40Z</time>
  <course>359.38</course>
  <speed>23.631322434430114</speed>
  <fix>3d</fix>
</trkpt>
<trkpt lat="21.167051" lon="-156.8867856">
  <ele>206.11</ele>
  <time>2026-09-01T20:02:40Z</time>
  <course>359.35</course>
  <speed>24.04</speed>
  <fix>3d</fix>
</trkpt>
<trkpt lat="21.1671123" lon="-156.8867862">
  <ele>207.55</ele>
  <time>2026-09-01T20:02:40Z</time>
  <course>359.31</course>
  <speed>23.441333153214647</speed>
  <fix>3d</fix>
</trkpt>
<trkpt lat="21.167051" lon="-156.8867856">
  <ele>206.11</ele>
  <time>2026-09-01T20:02:40Z</time>
  <course>359.35</course>
  <speed>24.04</speed>
  <fix>3d</fix>
</trkpt>
<trkpt lat="21.1671334" lon="-156.8867865">
  <ele>207.97</ele>
  <time>2026-09-01T20:02:40Z</time>
  <course>359.31</course>
  <speed>23.261453093046445</speed>
  <fix>3d</fix>
</trkpt>
<trkpt lat="21.167094" lon="-156.8867861">
  <ele>207.01</ele>
  <time>2026-09-01T20:02:40Z</time>
  <course>359.33</course>
  <speed>23.7</speed>
  <fix>3d</fix>
</trkpt>
<trkpt lat="21.1671537" lon="-156.8867867">
  <ele>208.37</ele>
  <time>2026-09-01T20:02:40Z</time>
  <course>359.29</course>
  <speed>23.101577868189008</speed>
  <fix>3d</fix>
</trkpt>
<trkpt lat="21.167094" lon="-156.8867861">
  <ele>207.01</ele>
  <time>2026-09-01T20:02:40Z</time>
  <course>359.33</course>
  <speed>23.7</speed>
  <fix>3d</fix>
</trkpt>
<trkpt lat="21.1671743" lon="-156.886787">
  <ele>208.75</ele>
  <time>2026-09-01T20:02:40Z</time>
  <course>359.23</course>
  <speed>22.94158887261299</speed>
  <fix>3d</fix>
</trkpt>
<trkpt lat="21.1671362" lon="-156.8867867">
  <ele>207.86</ele>
  <time>2026-09-01T20:02:40Z</time>
  <course>359.3</course>
  <speed>23.34</speed>
  <fix>3d</fix>
</trkpt>
<trkpt lat="21.1671949" lon="-156.8867873">
  <ele>209.11</ele>
  <time>2026-09-01T20:02:40Z</time>
  <course>359.14</course>
  <speed>22.79184503281821</speed>
  <fix>3d</fix>
</trkpt>
<trkpt lat="21.1671362" lon="-156.8867867">
  <ele>207.86</ele>
  <time>2026-09-01T20:02:40Z</time>
  <course>359.3</course>
  <speed>23.34</speed>
  <fix>3d</fix>
</trkpt>
<trkpt lat="21.1672155" lon="-156.8867876">
  <ele>209.46</ele>
  <time>2026-09-01T20:02:40Z</time>
  <course>359.05</course>
  <speed>22.662120377405113</speed>
  <fix>3d</fix>
</trkpt>
<trkpt lat="21.1671778" lon="-156.8867872">
  <ele>208.64</ele>
  <time>2026-09-01T20:02:40Z</time>
  <course>359.25</course>
  <speed>23.0</speed>
  <fix>3d</fix>
</trkpt>
<trkpt lat="21.1672358" lon="-156.8867879">
  <ele>209.78</ele>
  <time>2026-09-01T20:02:40Z</time>
  <course>358.99</course>
  <speed>22.53256532221753</speed>
  <fix>3d</fix>
</trkpt>
<trkpt lat="21.1671778" lon="-156.8867872">
  <ele>208.64</ele>
  <time>2026-09-01T20:02:40Z</time>
  <course>359.25</course>
  <speed>23.0</speed>
  <fix>3d</fix>
</trkpt>
<trkpt lat="21.1672563" lon="-156.8867883">
  <ele>210.09</ele>
  <time>2026-09-01T20:02:40Z</time>
  <course>358.89</course>
  <speed>22.41339331738949</speed>
  <fix>3d</fix>
</trkpt>
<trkpt lat="21.1672189" lon="-156.8867878">
  <ele>209.36</ele>
  <time>2026-09-01T20:02:40Z</time>
  <course>359.14</course>
  <speed>22.71</speed>
  <fix>3d</fix>
</trkpt>
<trkpt lat="21.1672765" lon="-156.8867887">
  <ele>210.38</ele>
  <time>2026-09-01T20:02:40Z</time>
  <course>358.75</course>
  <speed>22.294541932948523</speed>
  <fix>3d</fix>
</trkpt>
<trkpt lat="21.1672189" lon="-156.8867878">
  <ele>209.36</ele>
  <time>2026-09-01T20:02:40Z</time>
  <course>359.14</course>
  <speed>22.71</speed>
  <fix>3d</fix>
</trkpt>
<trkpt lat="21.1672965" lon="-156.8867892">
  <ele>210.66</ele>
  <time>2026-09-01T20:02:40Z</time>
  <course>358.56</course>
  <speed>22.17609749257069</speed>
  <fix>3d</fix>
</trkpt>
<trkpt lat="21.1672596" lon="-156.8867886">
  <ele>210.0</ele>
  <time>2026-09-01T20:02:40Z</time>
  <course>358.93</course>
  <speed>22.45</speed>
  <fix>3d</fix>
</trkpt>
<trkpt lat="21.167317" lon="-156.8867898">
  <ele>210.93</ele>
  <time>2026-09-01T20:02:40Z</time>
  <course>358.34</course>
  <speed>22.058714831104734</speed>
  <fix>3d</fix>
</trkpt>
<trkpt lat="21.1672596" lon="-156.8867886">
  <ele>210.0</ele>
  <time>2026-09-01T20:02:40Z</time>
  <course>358.93</course>
  <speed>22.45</speed>
  <fix>3d</fix>
</trkpt>
<trkpt lat="21.1673366" lon="-156.8867905">
  <ele>211.18</ele>
  <time>2026-09-01T20:02:40Z</time>
  <course>358.1</course>
  <speed>21.9524759423624</speed>
  <fix>3d</fix>
</trkpt>
<trkpt lat="21.1672997" lon="-156.8867895">
  <ele>210.57</ele>
  <time>2026-09-01T20:02:40Z</time>
  <course>358.57</course>
  <speed>22.21</speed>
  <fix>3d</fix>
</trkpt>
<trkpt lat="21.1673562" lon="-156.8867913">
  <ele>211.41</ele>
  <time>2026-09-01T20:02:40Z</time>
  <course>357.8</course>
  <speed>21.847329356239403</speed>
  <fix>3d</fix>
</trkpt>
<trkpt lat="21.1672997" lon="-156.8867895">
  <ele>210.57</ele>
  <time>2026-09-01T20:02:40Z</time>
  <course>358.57</course>
  <speed>22.21</speed>
  <fix>3d</fix>
</trkpt>
<trkpt lat="21.1673758" lon="-156.8867922">
  <ele>211.64</ele>
  <time>2026-09-01T20:02:40Z</time>
  <course>357.42</course>
  <speed>21.754397256646758</speed>
  <fix>3d</fix>
</trkpt>
<trkpt lat="21.1673393" lon="-156.8867907">
  <ele>211.08</ele>
  <time>2026-09-01T20:02:40Z</time>
  <course>358.01</course>
  <speed>21.98</speed>
  <fix>3d</fix>
</trkpt>
<trkpt lat="21.1673952" lon="-156.8867933">
  <ele>211.85</ele>
  <time>2026-09-01T20:02:40Z</time>
  <course>357.03</course>
  <speed>21.663817761419615</speed>
  <fix>3d</fix>
</trkpt>
<trkpt lat="21.1673393" lon="-156.8867907">
  <ele>211.08</ele>
  <time>2026-09-01T20:02:40Z</time>
  <course>358.01</course>
  <speed>21.98</speed>
  <fix>3d</fix>
</trkpt>
<trkpt lat="21.1674147" lon="-156.8867945">
  <ele>212.04</ele>
  <time>2026-09-01T20:02:40Z</time>
  <course>356.61</course>
  <speed>21.576121060097897</speed>
  <fix>3d</fix>
</trkpt>
<trkpt lat="21.1673786" lon="-156.8867924">
  <ele>211.54</ele>
  <time>2026-09-01T20:02:40Z</time>
  <course>357.23</course>
  <speed>21.78</speed>
  <fix>3d</fix>
</trkpt>
<trkpt lat="21.167434" lon="-156.886796">
  <ele>212.23</ele>
  <time>2026-09-01T20:02:40Z</time>
  <course>356.23</course>
  <speed>21.491144687987187</speed>
  <fix>3d</fix>
</trkpt>
<trkpt lat="21.1673786" lon="-156.8867924">
  <ele>211.54</ele>
  <time>2026-09-01T20:02:40Z</time>
  <course>357.23</course>
  <speed>21.78</speed>
  <fix>3d</fix>
</trkpt>
<trkpt lat="21.1674532" lon="-156.8867977">
  <ele>212.38</ele>
  <time>2026-09-01T20:02:40Z</time>
  <course>355.87</course>
  <speed>21.438248529205925</speed>
  <fix>3d</fix>
</trkpt>
<trkpt lat="21.1674175" lon="-156.8867948">
  <ele>211.95</ele>
  <time>2026-09-01T20:02:40Z</time>
  <course>356.22</course>
  <speed>21.6</speed>
  <fix>3d</fix>
</trkpt>
<trkpt lat="21.1674723" lon="-156.8867995">
  <ele>212.51</ele>
  <time>2026-09-01T20:02:40Z</time>
  <course>355.42</course>
  <speed>21.38942963241423</speed>
  <fix>3d</fix>
</trkpt>
<trkpt lat="21.1674175" lon="-156.8867948">
  <ele>211.95</ele>
  <time>2026-09-01T20:02:40Z</time>
  <course>356.22</course>
  <speed>21.6</speed>
  <fix>3d</fix>
</trkpt>
<trkpt lat="21.1674914" lon="-156.8868016">
  <ele>212.62</ele>
  <time>2026-09-01T20:02:40Z</time>
  <course>354.81</course>
  <speed>21.32875054943444</speed>
  <fix>3d</fix>
</trkpt>
<trkpt lat="21.1674561" lon="-156.886798">
  <ele>212.28</ele>
  <time>2026-09-01T20:02:40Z</time>
  <course>355.05</course>
  <speed>21.47</speed>
  <fix>3d</fix>
</trkpt>
<trkpt lat="21.1675103" lon="-156.8868041">
  <ele>212.71</ele>
  <time>2026-09-01T20:02:40Z</time>
  <course>353.98</course>
  <speed>21.259597832508497</speed>
  <fix>3d</fix>
</trkpt>
<trkpt lat="21.1674561" lon="-156.886798">
  <ele>212.28</ele>
  <time>2026-09-01T20:02:40Z</time>
  <course>355.05</course>
  <speed>21.47</speed>
  <fix>3d</fix>
</trkpt>
<trkpt lat="21.1675292" lon="-156.8868068">
  <ele>212.78</ele>
  <time>2026-09-01T20:02:40Z</time>
  <course>352.97</course>
  <speed>21.183637553545896</speed>
  <fix>3d</fix>
</trkpt>
<trkpt lat="21.1674944" lon="-156.886802">
  <ele>212.53</ele>
  <time>2026-09-01T20:02:40Z</time>
  <course>353.6</course>
  <speed>21.36</speed>
  <fix>3d</fix>
</trkpt>
<trkpt lat="21.167548" lon="-156.88681">
  <ele>212.86</ele>
  <time>2026-09-01T20:02:40Z</time>
  <course>351.87</course>
  <speed>21.092415698539607</speed>
  <fix>3d</fix>
</trkpt>
<trkpt lat="21.1674944" lon="-156.886802">
  <ele>212.53</ele>
  <time>2026-09-01T20:02:40Z</time>
  <course>353.6</course>
  <speed>21.36</speed>
  <fix>3d</fix>
</trkpt>
<trkpt lat="21.1675666" lon="-156.8868135">
  <ele>212.92</ele>
  <time>2026-09-01T20:02:40Z</time>
  <course>351.02</course>
  <speed>20.959830629086678</speed>
  <fix>3d</fix>
</trkpt>
<trkpt lat="21.1675323" lon="-156.8868072">
  <ele>212.7</ele>
  <time>2026-09-01T20:02:40Z</time>
  <course>351.6</course>
  <speed>21.21</speed>
  <fix>3d</fix>
</trkpt>
<trkpt lat="21.167585" lon="-156.8868175">
  <ele>212.98</ele>
  <time>2026-09-01T20:02:40Z</time>
  <course>350.08</course>
  <speed>20.79162571806255</speed>
  <fix>3d</fix>
</trkpt>
<trkpt lat="21.1675323" lon="-156.8868072">
  <ele>212.7</ele>
  <time>2026-09-01T20:02:40Z</time>
  <course>351.6</course>
  <speed>21.21</speed>
  <fix>3d</fix>
</trkpt>
<trkpt lat="21.1676031" lon="-156.8868218">
  <ele>213.03</ele>
  <time>2026-09-01T20:02:40Z</time>
  <course>348.14</course>
  <speed>20.546595825099594</speed>
  <fix>3d</fix>
</trkpt>
<trkpt lat="21.1675696" lon="-156.886814">
  <ele>212.83</ele>
  <time>2026-09-01T20:02:40Z</time>
  <course>349.25</course>
  <speed>20.98</speed>
  <fix>3d</fix>
</trkpt>
<trkpt lat="21.1676209" lon="-156.8868266">
  <ele>213.11</ele>
  <time>2026-09-01T20:02:40Z</time>
  <course>346.56</course>
  <speed>20.226618600250514</speed>
  <fix>3d</fix>
</trkpt>
<trkpt lat="21.1675696" lon="-156.886814">
  <ele>212.83</ele>
  <time>2026-09-01T20:02:40Z</time>
  <course>349.25</course>
  <speed>20.98</speed>
  <fix>3d</fix>
</trkpt>
<trkpt lat="21.1676382" lon="-156.8868316">
  <ele>213.23</ele>
  <time>2026-09-01T20:02:40Z</time>
  <course>345.21</course>
  <speed>19.8664793056042</speed>
  <fix>3d</fix>
</trkpt>
<trkpt lat="21.1676062" lon="-156.8868224">
  <ele>212.95</ele>
  <time>2026-09-01T20:02:40Z</time>
  <course>346.64</course>
  <speed>20.56</speed>
  <fix>3d</fix>
</trkpt>
<trkpt lat="21.1676552" lon="-156.8868369">
  <ele>213.41</ele>
  <time>2026-09-01T20:02:40Z</time>
  <course>344.11</course>
  <speed>19.468795545693112</speed>
  <fix>3d</fix>
</trkpt>
<trkpt lat="21.1676062" lon="-156.8868224">
  <ele>212.95</ele>
  <time>2026-09-01T20:02:40Z</time>
  <course>346.64</course>
  <speed>20.56</speed>
  <fix>3d</fix>
</trkpt>
<trkpt lat="21.1676718" lon="-156.8868424">
  <ele>213.62</ele>
  <time>2026-09-01T20:02:40Z</time>
  <course>343.25</course>
  <speed>19.058614849983197</speed>
  <fix>3d</fix>
</trkpt>
<trkpt lat="21.1676415" lon="-156.8868323">
  <ele>213.16</ele>
  <time>2026-09-01T20:02:40Z</time>
  <course>344.18</course>
  <speed>19.91</speed>
  <fix>3d</fix>
</trkpt>
<trkpt lat="21.1676876" lon="-156.8868477">
  <ele>213.86</ele>
  <time>2026-09-01T20:02:40Z</time>
  <course>342.61</course>
  <speed>18.642169938073195</speed>
  <fix>3d</fix>
</trkpt>
<trkpt lat="21.1676415" lon="-156.8868323">
  <ele>213.16</ele>
  <time>2026-09-01T20:02:40Z</time>
  <course>344.18</course>
  <speed>19.91</speed>
  <fix>3d</fix>
</trkpt>
<trkpt lat="21.1677039" lon="-156.8868535">
  <ele>214.15</ele>
  <time>2026-09-01T20:02:40Z</time>
  <course>342.1</course>
  <speed>18.186261298023847</speed>
  <fix>3d</fix>
</trkpt>
<trkpt lat="21.1676751" lon="-156.8868431">
  <ele>213.54</ele>
  <time>2026-09-01T20:02:40Z</time>
  <course>342.47</course>
  <speed>19.11</speed>
  <fix>3d</fix>
</trkpt>
<trkpt lat="21.1677191" lon="-156.8868589">
  <ele>214.46</ele>
  <time>2026-09-01T20:02:40Z</time>
  <course>341.72</course>
  <speed>17.74706736337021</speed>
  <fix>3d</fix>
</trkpt>
<trkpt lat="21.1676751" lon="-156.8868431">
  <ele>213.54</ele>
  <time>2026-09-01T20:02:40Z</time>
  <course>342.47</course>
  <speed>19.11</speed>
  <fix>3d</fix>
</trkpt>
<trkpt lat="21.1677341" lon="-156.8868644">
  <ele>214.79</ele>
  <time>2026-09-01T20:02:40Z</time>
  <course>341.42</course>
  <speed>17.30196809614444</speed>
  <fix>3d</fix>
</trkpt>
<trkpt lat="21.167707" lon="-156.8868542">
  <ele>214.07</ele>
  <time>2026-09-01T20:02:40Z</time>
  <course>341.4</course>
  <speed>18.24</speed>
  <fix>3d</fix>
</trkpt>
<trkpt lat="21.1677486" lon="-156.8868699">
  <ele>215.15</ele>
  <time>2026-09-01T20:02:40Z</time>
  <course>341.16</course>
  <speed>16.854023258557582</speed>
  <fix>3d</fix>
</trkpt>
<trkpt lat="21.167707" lon="-156.8868542">
  <ele>214.07</ele>
  <time>2026-09-01T20:02:40Z</time>
  <course>341.4</course>
  <speed>18.24</speed>
  <fix>3d</fix>
</trkpt>
<trkpt lat="21.1677628" lon="-156.8868753">
  <ele>215.52</ele>
  <time>2026-09-01T20:02:40Z</time>
  <course>340.94</course>
  <speed>16.399771339869346</speed>
  <fix>3d</fix>
</trkpt>
<trkpt lat="21.1677373" lon="-156.8868654">
  <ele>214.71</ele>
  <time>2026-09-01T20:02:40Z</time>
  <course>340.69</course>
  <speed>17.34</speed>
  <fix>3d</fix>
</trkpt>
<trkpt lat="21.1677767" lon="-156.8868806">
  <ele>215.9</ele>
  <time>2026-09-01T20:02:40Z</time>
  <course>340.74</course>
  <speed>15.955193511831816</speed>
  <fix>3d</fix>
</trkpt>
<trkpt lat="21.1677373" lon="-156.8868654">
  <ele>214.71</ele>
  <time>2026-09-01T20:02:40Z</time>
  <course>340.69</course>
  <speed>17.34</speed>
  <fix>3d</fix>
</trkpt>
<trkpt lat="21.1677901" lon="-156.8868858">
  <ele>216.29</ele>
  <time>2026-09-01T20:02:40Z</time>
  <course>340.57</course>
  <speed>15.498054716641054</speed>
  <fix>3d</fix>
</trkpt>
<trkpt lat="21.1677658" lon="-156.8868763">
  <ele>215.43</ele>
  <time>2026-09-01T20:02:40Z</time>
  <course>340.16</course>
  <speed>16.43</speed>
  <fix>3d</fix>
</trkpt>
<trkpt lat="21.1678031" lon="-156.8868909">
  <ele>216.69</ele>
  <time>2026-09-01T20:02:40Z</time>
  <course>340.39</course>
  <speed>15.050531552074832</speed>
  <fix>3d</fix>
</trkpt>
<trkpt lat="21.1677658" lon="-156.8868763">
  <ele>215.43</ele>
  <time>2026-09-01T20:02:40Z</time>
  <course>340.16</course>
  <speed>16.43</speed>
  <fix>3d</fix>
</trkpt>
<trkpt lat="21.1678157" lon="-156.886896">
  <ele>217.09</ele>
  <time>2026-09-01T20:02:40Z</time>
  <course>340.24</course>
  <speed>14.599739723707405</speed>
  <fix>3d</fix>
</trkpt>
<trkpt lat="21.1677928" lon="-156.8868868">
  <ele>216.2</ele>
  <time>2026-09-01T20:02:40Z</time>
  <course>339.71</course>
  <speed>15.52</speed>
  <fix>3d</fix>
</trkpt>
<trkpt lat="21.1678279" lon="-156.8869009">
  <ele>217.5</ele>
  <time>2026-09-01T20:02:40Z</time>
  <course>340.09</course>
  <speed>14.14912364777409</speed>
  <fix>3d</fix>
</trkpt>
<trkpt lat="21.1677928" lon="-156.8868868">
  <ele>216.2</ele>
  <time>2026-09-01T20:02:40Z</time>
  <course>339.71</course>
  <speed>15.52</speed>
  <fix>3d</fix>
</trkpt>
<trkpt lat="21.1678397" lon="-156.8869057">
  <ele>217.91</ele>
  <time>2026-09-01T20:02:40Z</time>
  <course>339.95</course>
  <speed>13.698700668311576</speed>
  <fix>3d</fix>
</trkpt>
<trkpt lat="21.1678181" lon="-156.886897">
  <ele>217.0</ele>
  <time>2026-09-01T20:02:40Z</time>
  <course>339.29</course>
  <speed>14.6</speed>
  <fix>3d</fix>
</trkpt>
<trkpt lat="21.167851" lon="-156.8869104">
  <ele>218.32</ele>
  <time>2026-09-01T20:02:40Z</time>
  <course>339.82</course>
  <speed>13.244893355554057</speed>
  <fix>3d</fix>
</trkpt>
<trkpt lat="21.1678181" lon="-156.886897">
  <ele>217.0</ele>
  <time>2026-09-01T20:02:40Z</time>
  <course>339.29</course>
  <speed>14.6</speed>
  <fix>3d</fix>
</trkpt>
<trkpt lat="21.167862" lon="-156.8869151">
  <ele>218.73</ele>
  <time>2026-09-01T20:02:40Z</time>
  <course>339.69</course>
  <speed>12.791247007231156</speed>
  <fix>3d</fix>
</trkpt>
<trkpt lat="21.1678418" lon="-156.8869067">
  <ele>217.82</ele>
  <time>2026-09-01T20:02:40Z</time>
  <course>338.88</course>
  <speed>13.68</speed>
  <fix>3d</fix>
</trkpt>
<trkpt lat="21.1678726" lon="-156.8869195">
  <ele>219.14</ele>
  <time>2026-09-01T20:02:40Z</time>
  <course>339.55</course>
  <speed>12.33777937880233</speed>
  <fix>3d</fix>
</trkpt>
<trkpt lat="21.1678418" lon="-156.8869067">
  <ele>217.82</ele>
  <time>2026-09-01T20:02:40Z</time>
  <course>338.88</course>
  <speed>13.68</speed>
  <fix>3d</fix>
</trkpt>
<trkpt lat="21.1678828" lon="-156.8869239">
  <ele>219.54</ele>
  <time>2026-09-01T20:02:40Z</time>
  <course>339.42</course>
  <speed>11.8845109280946</speed>
  <fix>3d</fix>
</trkpt>
<trkpt lat="21.1678639" lon="-156.886916">
  <ele>218.63</ele>
  <time>2026-09-01T20:02:40Z</time>
  <course>338.46</course>
  <speed>12.76</speed>
  <fix>3d</fix>
</trkpt>
<trkpt lat="21.1678926" lon="-156.8869281">
  <ele>219.94</ele>
  <time>2026-09-01T20:02:40Z</time>
  <course>339.28</course>
  <speed>11.440738612519736</speed>
  <fix>3d</fix>
</trkpt>
<trkpt lat="21.1678639" lon="-156.886916">
  <ele>218.63</ele>
  <time>2026-09-01T20:02:40Z</time>
  <course>338.46</course>
  <speed>12.76</speed>
  <fix>3d</fix>
</trkpt>
<trkpt lat="21.167902" lon="-156.8869323">
  <ele>220.33</ele>
  <time>2026-09-01T20:02:40Z</time>
  <course>339.15</course>
  <speed>10.987925190862923</speed>
  <fix>3d</fix>
</trkpt>
<trkpt lat="21.1678845" lon="-156.8869248">
  <ele>219.44</ele>
  <time>2026-09-01T20:02:40Z</time>
  <course>338.01</course>
  <speed>11.85</speed>
  <fix>3d</fix>
</trkpt>
<trkpt lat="21.167911" lon="-156.8869363">
  <ele>220.71</ele>
  <time>2026-09-01T20:02:40Z</time>
  <course>339.0</course>
  <speed>10.544628964548728</speed>
  <fix>3d</fix>
</trkpt>
<trkpt lat="21.1678845" lon="-156.8869248">
  <ele>219.44</ele>
  <time>2026-09-01T20:02:40Z</time>
  <course>338.01</course>
  <speed>11.85</speed>
  <fix>3d</fix>
</trkpt>
<trkpt lat="21.1679196" lon="-156.8869402">
  <ele>221.08</ele>
  <time>2026-09-01T20:02:40Z</time>
  <course>338.85</course>
  <speed>10.110825881202782</speed>
  <fix>3d</fix>
</trkpt>
<trkpt lat="21.1679034" lon="-156.8869331">
  <ele>220.22</ele>
  <time>2026-09-01T20:02:40Z</time>
  <course>337.51</course>
  <speed>10.94</speed>
  <fix>3d</fix>
</trkpt>
<trkpt lat="21.1679278" lon="-156.8869439">
  <ele>221.44</ele>
  <time>2026-09-01T20:02:40Z</time>
  <course>338.69</course>
  <speed>9.677293009927931</speed>
  <fix>3d</fix>
</trkpt>
<trkpt lat="21.1679034" lon="-156.8869331">
  <ele>220.22</ele>
  <time>2026-09-01T20:02:40Z</time>
  <course>337.51</course>
  <speed>10.94</speed>
  <fix>3d</fix>
</trkpt>
<trkpt lat="21.1679356" lon="-156.8869476">
  <ele>221.78</ele>
  <time>2026-09-01T20:02:40Z</time>
  <course>338.53</course>
  <speed>9.248053849324192</speed>
  <fix>3d</fix>
</trkpt>
<trkpt lat="21.1679209" lon="-156.8869409">
  <ele>220.96</ele>
  <time>2026-09-01T20:02:40Z</time>
  <course>336.93</course>
  <speed>10.05</speed>
  <fix>3d</fix>
</trkpt>
<trkpt lat="21.1679431" lon="-156.8869511">
  <ele>222.1</ele>
  <time>2026-09-01T20:02:40Z</time>
  <course>338.35</course>
  <speed>8.82438666423905</speed>
  <fix>3d</fix>
</trkpt>
<trkpt lat="21.1679209" lon="-156.8869409">
  <ele>220.96</ele>
  <time>2026-09-01T20:02:40Z</time>
  <course>336.93</course>
  <speed>10.05</speed>
  <fix>3d</fix>
</trkpt>
<trkpt lat="21.1679502" lon="-156.8869546">
  <ele>222.41</ele>
  <time>2026-09-01T20:02:40Z</time>
  <course>338.19</course>
  <speed>8.41430329855063</speed>
  <fix>3d</fix>
</trkpt>
<trkpt lat="21.1679367" lon="-156.8869483">
  <ele>221.65</ele>
  <time>2026-09-01T20:02:40Z</time>
  <course>336.26</course>
  <speed>9.18</speed>
  <fix>3d</fix>
</trkpt>
<trkpt lat="21.1679569" lon="-156.8869579">
  <ele>222.69</ele>
  <time>2026-09-01T20:02:40Z</time>
  <course>338.03</course>
  <speed>8.022879782222839</speed>
  <fix>3d</fix>
</trkpt>
<trkpt lat="21.1679367" lon="-156.8869483">
  <ele>221.65</ele>
  <time>2026-09-01T20:02:40Z</time>
  <course>336.26</course>
  <speed>9.18</speed>
  <fix>3d</fix>
</trkpt>
<trkpt lat="21.1679633" lon="-156.8869611">
  <ele>222.95</ele>
  <time>2026-09-01T20:02:40Z</time>
  <course>337.89</course>
  <speed>7.645188029080776</speed>
  <fix>3d</fix>
</trkpt>
<trkpt lat="21.167951" lon="-156.8869552">
  <ele>222.28</ele>
  <time>2026-09-01T20:02:40Z</time>
  <course>335.48</course>
  <speed>8.35</speed>
  <fix>3d</fix>
</trkpt>
<trkpt lat="21.1679693" lon="-156.8869642">
  <ele>223.19</ele>
  <time>2026-09-01T20:02:40Z</time>
  <course>337.75</course>
  <speed>7.277094200297259</speed>
  <fix>3d</fix>
</trkpt>
<trkpt lat="21.167951" lon="-156.8869552">
  <ele>222.28</ele>
  <time>2026-09-01T20:02:40Z</time>
  <course>335.48</course>
  <speed>8.35</speed>
  <fix>3d</fix>
</trkpt>
<trkpt lat="21.1679751" lon="-156.8869673">
  <ele>223.4</ele>
  <time>2026-09-01T20:02:40Z</time>
  <course>337.63</course>
  <speed>6.936526508274873</speed>
  <fix>3d</fix>
</trkpt>
<trkpt lat="21.167964" lon="-156.8869616">
  <ele>222.83</ele>
  <time>2026-09-01T20:02:40Z</time>
  <course>334.59</course>
  <speed>7.57</speed>
  <fix>3d</fix>
</trkpt>
<trkpt lat="21.1679806" lon="-156.8869702">
  <ele>223.59</ele>
  <time>2026-09-01T20:02:40Z</time>
  <course>337.52</course>
  <speed>6.609818454390408</speed>
  <fix>3d</fix>
</trkpt>
<trkpt lat="21.167964" lon="-156.8869616">
  <ele>222.83</ele>
  <time>2026-09-01T20:02:40Z</time>
  <course>334.59</course>
  <speed>7.57</speed>
  <fix>3d</fix>
</trkpt>
<trkpt lat="21.1679857" lon="-156.886973">
  <ele>223.75</ele>
  <time>2026-09-01T20:02:40Z</time>
  <course>337.42</course>
  <speed>6.314966349870757</speed>
  <fix>3d</fix>
</trkpt>
<trkpt lat="21.1679757" lon="-156.8869677">
  <ele>223.28</ele>
  <time>2026-09-01T20:02:40Z</time>
  <course>333.64</course>
  <speed>6.86</speed>
  <fix>3d</fix>
</trkpt>
<trkpt lat="21.1679907" lon="-156.8869758">
  <ele>223.87</ele>
  <time>2026-09-01T20:02:40Z</time>
  <course>337.33</course>
  <speed>6.029560514664398</speed>
  <fix>3d</fix>
</trkpt>
<trkpt lat="21.1679757" lon="-156.8869677">
  <ele>223.28</ele>
  <time>2026-09-01T20:02:40Z</time>
  <course>333.64</course>
  <speed>6.86</speed>
  <fix>3d</fix>
</trkpt>
<trkpt lat="21.1679953" lon="-156.8869784">
  <ele>223.97</ele>
  <time>2026-09-01T20:02:40Z</time>
  <course>337.26</course>
  <speed>5.762360627381803</speed>
  <fix>3d</fix>
</trkpt>
<trkpt lat="21.1679862" lon="-156.8869734">
  <ele>223.62</ele>
  <time>2026-09-01T20:02:40Z</time>
  <course>332.61</course>
  <speed>6.23</speed>
  <fix>3d</fix>
</trkpt>
<trkpt lat="21.1679998" lon="-156.886981">
  <ele>224.04</ele>
  <time>2026-09-01T20:02:40Z</time>
  <course>337.19</course>
  <speed>5.517979702753536</speed>
  <fix>3d</fix>
</trkpt>
<trkpt lat="21.1679862" lon="-156.8869734">
  <ele>223.62</ele>
  <time>2026-09-01T20:02:40Z</time>
  <course>332.61</course>
  <speed>6.23</speed>
  <fix>3d</fix>
</trkpt>
<trkpt lat="21.168004" lon="-156.8869836">
  <ele>224.07</ele>
  <time>2026-09-01T20:02:40Z</time>
  <course>337.13</course>
  <speed>5.3003113116118</speed>
  <fix>3d</fix>
</trkpt>
<trkpt lat="21.1679956" lon="-156.8869788">
  <ele>223.84</ele>
  <time>2026-09-01T20:02:40Z</time>
  <course>331.53</course>
  <speed>5.68</speed>
  <fix>3d</fix>
</trkpt>
<trkpt lat="21.1680081" lon="-156.886986">
  <ele>224.05</ele>
  <time>2026-09-01T20:02:40Z</time>
  <course>337.04</course>
  <speed>5.081830378908765</speed>
  <fix>3d</fix>
</trkpt>
<trkpt lat="21.1679956" lon="-156.8869788">
  <ele>223.84</ele>
  <time>2026-09-01T20:02:40Z</time>
  <course>331.53</course>
  <speed>5.68</speed>
  <fix>3d</fix>
</trkpt>
<trkpt lat="21.1680119" lon="-156.8869884">
  <ele>223.94</ele>
  <time>2026-09-01T20:02:40Z</time>
  <course>336.91</course>
  <speed>4.818765402050612</speed>
  <fix>3d</fix>
</trkpt>
<trkpt lat="21.1680042" lon="-156.8869839">
  <ele>223.93</ele>
  <time>2026-09-01T20:02:40Z</time>
  <course>330.62</course>
  <speed>5.21</speed>
  <fix>3d</fix>
</trkpt>
<trkpt lat="21.1680155" lon="-156.8869906">
  <ele>223.77</ele>
  <time>2026-09-01T20:02:40Z</time>
  <course>336.7</course>
  <speed>4.5024993059410905</speed>
  <fix>3d</fix>
</trkpt>
<trkpt lat="21.1680042" lon="-156.8869839">
  <ele>223.93</ele>
  <time>2026-09-01T20:02:40Z</time>
  <course>330.62</course>
  <speed>5.21</speed>
  <fix>3d</fix>
</trkpt>
<trkpt lat="21.1680188" lon="-156.8869927">
  <ele>223.53</ele>
  <time>2026-09-01T20:02:40Z</time>
  <course>336.34</course>
  <speed>4.15046985292027</speed>
  <fix>3d</fix>
</trkpt>
<trkpt lat="21.1680119" lon="-156.8869886">
  <ele>223.81</ele>
  <time>2026-09-01T20:02:40Z</time>
  <course>329.94</course>
  <speed>4.71</speed>
  <fix>3d</fix>
</trkpt>
<trkpt lat="21.1680218" lon="-156.8869947">
  <ele>223.25</ele>
  <time>2026-09-01T20:02:40Z</time>
  <course>335.83</course>
  <speed>3.7061165658948183</speed>
  <fix>3d</fix>
</trkpt>
<trkpt lat="21.1680119" lon="-156.8869886">
  <ele>223.81</ele>
  <time>2026-09-01T20:02:40Z</time>
  <course>329.94</course>
  <speed>4.71</speed>
  <fix>3d</fix>
</trkpt>
<trkpt lat="21.1680244" lon="-156.8869964">
  <ele>222.93</ele>
  <time>2026-09-01T20:02:40Z</time>
  <course>335.37</course>
  <speed>3.179072191693671</speed>
  <fix>3d</fix>
</trkpt>
<trkpt lat="21.1680187" lon="-156.8869929">
  <ele>223.42</ele>
  <time>2026-09-01T20:02:40Z</time>
  <course>328.99</course>
  <speed>4.03</speed>
  <fix>3d</fix>
</trkpt>
<trkpt lat="21.1680265" lon="-156.8869979">
  <ele>222.6</ele>
  <time>2026-09-01T20:02:40Z</time>
  <course>334.98</course>
  <speed>2.6210303317588677</speed>
  <fix>3d</fix>
</trkpt>
<trkpt lat="21.1680187" lon="-156.8869929">
  <ele>223.42</ele>
  <time>2026-09-01T20:02:40Z</time>
  <course>328.99</course>
  <speed>4.03</speed>
  <fix>3d</fix>
</trkpt>
<trkpt lat="21.1680282" lon="-156.8869992">
  <ele>222.27</ele>
  <time>2026-09-01T20:02:40Z</time>
  <course>334.56</course>
  <speed>2.0600970850908946</speed>
  <fix>3d</fix>
</trkpt>
<trkpt lat="21.1680242" lon="-156.8869965">
  <ele>222.85</ele>
  <time>2026-09-01T20:02:40Z</time>
  <course>326.99</course>
  <speed>3.1</speed>
  <fix>3d</fix>
</trkpt>
<trkpt lat="21.1680294" lon="-156.8870003">
  <ele>221.95</ele>
  <time>2026-09-01T20:02:40Z</time>
  <course>334.0</course>
  <speed>1.5275143207184672</speed>
  <fix>3d</fix>
</trkpt>
<trkpt lat="21.1680242" lon="-156.8869965">
  <ele>222.85</ele>
  <time>2026-09-01T20:02:40Z</time>
  <course>326.99</course>
  <speed>3.1</speed>
  <fix>3d</fix>
</trkpt>
<trkpt lat="21.1680303" lon="-156.8870011">
  <ele>221.64</ele>
  <time>2026-09-01T20:02:40Z</time>
  <course>333.28</course>
  <speed>1.039471019317037</speed>
  <fix>3d</fix>
</trkpt>
<trkpt lat="21.168028" lon="-156.8869993">
  <ele>222.2</ele>
  <time>2026-09-01T20:02:40Z</time>
  <course>323.04</course>
  <speed>2.02</speed>
  <fix>3d</fix>
</trkpt>
<trkpt lat="21.1680307" lon="-156.8870017">
  <ele>221.36</ele>
  <time>2026-09-01T20:02:40Z</time>
  <course>332.63</course>
  <speed>0.6129437168288782</speed>
  <fix>3d</fix>
</trkpt>
<trkpt lat="21.168028" lon="-156.8869993">
  <ele>222.2</ele>
  <time>2026-09-01T20:02:40Z</time>
  <course>323.04</course>
  <speed>2.02</speed>
  <fix>3d</fix>
</trkpt>
<trkpt lat="21.1680308" lon="-156.8870021">
  <ele>221.09</ele>
  <time>2026-09-01T20:02:40Z</time>
  <course>332.34</course>
  <speed>0.3301514803843835</speed>
  <fix>3d</fix>
</trkpt>
<trkpt lat="21.1680301" lon="-156.8870013">
  <ele>221.59</ele>
  <time>2026-09-01T20:02:40Z</time>
  <course>313.76</course>
  <speed>1.01</speed>
  <fix>3d</fix>
</trkpt>
<trkpt lat="21.1680306" lon="-156.8870024">
  <ele>220.86</ele>
  <time>2026-09-01T20:02:40Z</time>
  <course>332.62</course>
  <speed>0.38470768123342686</speed>
  <fix>3d</fix>
</trkpt>
<trkpt lat="21.1680301" lon="-156.8870013">
  <ele>221.59</ele>
  <time>2026-09-01T20:02:40Z</time>
  <course>313.76</course>
  <speed>1.01</speed>
  <fix>3d</fix>
</trkpt>
<trkpt lat="21.1680302" lon="-156.8870025">
  <ele>220.64</ele>
  <time>2026-09-01T20:02:40Z</time>
  <course>333.51</course>
  <speed>0.6228964600958975</speed>
  <fix>3d</fix>
</trkpt>
<trkpt lat="21.1680306" lon="-156.8870023">
  <ele>221.05</ele>
  <time>2026-09-01T20:02:40Z</time>
  <course>258.11</course>
  <speed>0.33</speed>
  <fix>3d</fix>
</trkpt>
<trkpt lat="21.1680295" lon="-156.8870025">
  <ele>220.46</ele>
  <time>2026-09-01T20:02:40Z</time>
  <course>334.92</course>
  <speed>0.840535543567314</speed>
  <fix>3d</fix>
</trkpt>
<trkpt lat="21.1680306" lon="-156.8870023">
  <ele>221.05</ele>
  <time>2026-09-01T20:02:40Z</time>
  <course>258.11</course>
  <speed>0.33</speed>
  <fix>3d</fix>
</trkpt>
<trkpt lat="21.1680287" lon="-156.8870024">
  <ele>220.3</ele>
  <time>2026-09-01T20:02:40Z</time>
  <course>336.73</course>
  <speed>1.0270345661174214</speed>
  <fix>3d</fix>
</trkpt>
<trkpt lat="21.1680299" lon="-156.8870026">
  <ele>220.61</ele>
  <time>2026-09-01T20:02:40Z</time>
  <course>184.36</course>
  <speed>0.67</speed>
  <fix>3d</fix>
</trkpt>
<trkpt lat="21.1680277" lon="-156.8870023">
  <ele>220.16</ele>
  <time>2026-09-01T20:02:40Z</time>
  <course>338.76</course>
  <speed>1.157410903698423</speed>
  <fix>3d</fix>
</trkpt>
<trkpt lat="21.1680299" lon="-156.8870026">
  <ele>220.61</ele>
  <time>2026-09-01T20:02:40Z</time>
  <course>184.36</course>
  <speed>0.67</speed>
  <fix>3d</fix>
</trkpt>
<trkpt lat="21.1680266" lon="-156.887002">
  <ele>220.04</ele>
  <time>2026-09-01T20:02:40Z</time>
  <course>340.85</course>
  <speed>1.244266852407473</speed>
  <fix>3d</fix>
</trkpt>
<trkpt lat="21.1680283" lon="-156.8870026">
  <ele>220.28</ele>
  <time>2026-09-01T20:02:40Z</time>
  <course>172.38</course>
  <speed>1.09</speed>
  <fix>3d</fix>
</trkpt>
<trkpt lat="21.1680255" lon="-156.8870017">
  <ele>219.93</ele>
  <time>2026-09-01T20:02:40Z</time>
  <course>342.88</course>
  <speed>1.2998846102635417</speed>
  <fix>3d</fix>
</trkpt>
<trkpt lat="21.1680283" lon="-156.8870026">
  <ele>220.28</ele>
  <time>2026-09-01T20:02:40Z</time>
  <course>172.38</course>
  <speed>1.09</speed>
  <fix>3d</fix>
</trkpt>
<trkpt lat="21.1680243" lon="-156.8870013">
  <ele>219.83</ele>
  <time>2026-09-01T20:02:40Z</time>
  <course>345.52</course>
  <speed>1.3285330255586423</speed>
  <fix>3d</fix>
</trkpt>
<trkpt lat="21.1680262" lon="-156.8870021">
  <ele>220.03</ele>
  <time>2026-09-01T20:02:40Z</time>
  <course>166.1</course>
  <speed>1.32</speed>
  <fix>3d</fix>
</trkpt>
<trkpt lat="21.1680232" lon="-156.8870011">
  <ele>219.75</ele>
  <time>2026-09-01T20:02:40Z</time>
  <course>349.2</course>
  <speed>1.3281566172707193</speed>
  <fix>3d</fix>
</trkpt>
<trkpt lat="21.1680262" lon="-156.8870021">
  <ele>220.03</ele>
  <time>2026-09-01T20:02:40Z</time>
  <course>166.1</course>
  <speed>1.32</speed>
  <fix>3d</fix>
</trkpt>
<trkpt lat="21.168022" lon="-156.8870006">
  <ele>219.67</ele>
  <time>2026-09-01T20:02:40Z</time>
  <course>353.21</course>
  <speed>1.3260844618650804</speed>
  <fix>3d</fix>
</trkpt>
<trkpt lat="21.1680238" lon="-156.8870015">
  <ele>219.84</ele>
  <time>2026-09-01T20:02:40Z</time>
  <course>162.74</course>
  <speed>1.41</speed>
  <fix>3d</fix>
</trkpt>
<trkpt lat="21.1680208" lon="-156.8870001">
  <ele>219.59</ele>
  <time>2026-09-01T20:02:40Z</time>
  <course>356.8</course>
  <speed>1.3200378782444084</speed>
  <fix>3d</fix>
</trkpt>
<trkpt lat="21.1680238" lon="-156.8870015">
  <ele>219.84</ele>
  <time>2026-09-01T20:02:40Z</time>
  <course>162.74</course>
  <speed>1.41</speed>
  <fix>3d</fix>
</trkpt>
<trkpt lat="21.1680197" lon="-156.8869996">
  <ele>219.51</ele>
  <time>2026-09-01T20:02:40Z</time>
  <course>359.63</course>
  <speed>1.3209844813622906</speed>
  <fix>3d</fix>
</trkpt>
<trkpt lat="21.1680214" lon="-156.8870006">
  <ele>219.68</ele>
  <time>2026-09-01T20:02:40Z</time>
  <course>159.68</course>
  <speed>1.42</speed>
  <fix>3d</fix>
</trkpt>
<trkpt lat="21.1680187" lon="-156.8869989">
  <ele>219.43</ele>
  <time>2026-09-01T20:02:40Z</time>
  <course>1.65</course>
  <speed>1.332216198670471</speed>
  <fix>3d</fix>
</trkpt>
<trkpt lat="21.1680214" lon="-156.8870006">
  <ele>219.68</ele>
  <time>2026-09-01T20:02:40Z</time>
  <course>159.68</course>
  <speed>1.42</speed>
  <fix>3d</fix>
</trkpt>
<trkpt lat="21.1680177" lon="-156.8869981">
  <ele>219.35</ele>
  <time>2026-09-01T20:02:40Z</time>
  <course>3.03</course>
  <speed>1.359485196682921</speed>
  <fix>3d</fix>
</trkpt>
<trkpt lat="21.1680191" lon="-156.8869995">
  <ele>219.53</ele>
  <time>2026-09-01T20:02:40Z</time>
  <course>151.96</course>
  <speed>1.4</speed>
  <fix>3d</fix>
</trkpt>
<trkpt lat="21.1680167" lon="-156.8869971">
  <ele>219.27</ele>
  <time>2026-09-01T20:02:40Z</time>
  <course>3.91</course>
  <speed>1.3951702405083042</speed>
  <fix>3d</fix>
</trkpt>
<trkpt lat="21.1680191" lon="-156.8869995">
  <ele>219.53</ele>
  <time>2026-09-01T20:02:40Z</time>
  <course>151.96</course>
  <speed>1.4</speed>
  <fix>3d</fix>
</trkpt>
<trkpt lat="21.1680159" lon="-156.8869961">
  <ele>219.18</ele>
  <time>2026-09-01T20:02:40Z</time>
  <course>4.43</course>
  <speed>1.4461673485458035</speed>
  <fix>3d</fix>
</trkpt>
<trkpt lat="21.168017" lon="-156.886998">
  <ele>219.38</ele>
  <time>2026-09-01T20:02:40Z</time>
  <course>140.82</course>
  <speed>1.42</speed>
  <fix>3d</fix>
</trkpt>
<trkpt lat="21.1680151" lon="-156.8869949">
  <ele>219.08</ele>
  <time>2026-09-01T20:02:40Z</time>
  <course>4.72</course>
  <speed>1.5109268678529744</speed>
  <fix>3d</fix>
</trkpt>
<trkpt lat="21.168017" lon="-156.886998">
  <ele>219.38</ele>
  <time>2026-09-01T20:02:40Z</time>
  <course>140.82</course>
  <speed>1.42</speed>
  <fix>3d</fix>
</trkpt>
<trkpt lat="21.1680143" lon="-156.8869936">
  <ele>218.99</ele>
  <time>2026-09-01T20:02:40Z</time>
  <course>4.85</course>
  <speed>1.583161394173064</speed>
  <fix>3d</fix>
</trkpt>
<trkpt lat="21.1680151" lon="-156.886996">
  <ele>219.2</ele>
  <time>2026-09-01T20:02:40Z</time>
  <course>129.11</course>
  <speed>1.49</speed>
  <fix>3d</fix>
</trkpt>
<trkpt lat="21.1680137" lon="-156.8869922">
  <ele>218.89</ele>
  <time>2026-09-01T20:02:40Z</time>
  <course>4.89</course>
  <speed>1.6492422502470643</speed>
  <fix>3d</fix>
</trkpt>
<trkpt lat="21.1680151" lon="-156.886996">
  <ele>219.2</ele>
  <time>2026-09-01T20:02:40Z</time>
  <course>129.11</course>
  <speed>1.49</speed>
  <fix>3d</fix>
</trkpt>
<trkpt lat="21.168013" lon="-156.8869907">
  <ele>218.79</ele>
  <time>2026-09-01T20:02:40Z</time>
  <course>4.9</course>
  <speed>1.7147011401407537</speed>
  <fix>3d</fix>
</trkpt>
<trkpt lat="21.1680136" lon="-156.8869935">
  <ele>219.03</ele>
  <time>2026-09-01T20:02:40Z</time>
  <course>119.34</course>
  <speed>1.59</speed>
  <fix>3d</fix>
</trkpt>
<trkpt lat="21.1680125" lon="-156.8869891">
  <ele>218.69</ele>
  <time>2026-09-01T20:02:40Z</time>
  <course>4.9</course>
  <speed>1.7677386684688434</speed>
  <fix>3d</fix>
</trkpt>
<trkpt lat="21.1680136" lon="-156.8869935">
  <ele>219.03</ele>
  <time>2026-09-01T20:02:40Z</time>
  <course>119.34</course>
  <speed>1.59</speed>
  <fix>3d</fix>
</trkpt>
<trkpt lat="21.1680119" lon="-156.8869875">
  <ele>218.59</ele>
  <time>2026-09-01T20:02:40Z</time>
  <course>4.93</course>
  <speed>1.8160396471443017</speed>
  <fix>3d</fix>
</trkpt>
<trkpt lat="21.1680123" lon="-156.8869906">
  <ele>218.84</ele>
  <time>2026-09-01T20:02:40Z</time>
  <course>112.63</course>
  <speed>1.71</speed>
  <fix>3d</fix>
</trkpt>
<trkpt lat="21.1680114" lon="-156.8869858">
  <ele>218.49</ele>
  <time>2026-09-01T20:02:40Z</time>
  <course>4.98</course>
  <speed>1.8516209115258988</speed>
  <fix>3d</fix>
</trkpt>
<trkpt lat="21.1680123" lon="-156.8869906">
  <ele>218.84</ele>
  <time>2026-09-01T20:02:40Z</time>
  <course>112.63</course>
  <speed>1.71</speed>
  <fix>3d</fix>
</trkpt>
<trkpt lat="21.1680109" lon="-156.8869842">
  <ele>218.39</ele>
  <time>2026-09-01T20:02:40Z</time>
  <course>5.08</course>
  <speed>1.8681541692269406</speed>
  <fix>3d</fix>
</trkpt>
<trkpt lat="21.1680112" lon="-156.8869875">
  <ele>218.65</ele>
  <time>2026-09-01T20:02:40Z</time>
  <course>108.86</course>
  <speed>1.8</speed>
  <fix>3d</fix>
</trkpt>
<trkpt lat="21.1680104" lon="-156.8869824">
  <ele>218.28</ele>
  <time>2026-09-01T20:02:40Z</time>
  <course>5.22</course>
  <speed>1.8777912557044245</speed>
  <fix>3d</fix>
</trkpt>
<trkpt lat="21.1680112" lon="-156.8869875">
  <ele>218.65</ele>
  <time>2026-09-01T20:02:40Z</time>
  <course>108.86</course>
  <speed>1.8</speed>
  <fix>3d</fix>
</trkpt>
<trkpt lat="21.1680098" lon="-156.8869807">
  <ele>218.17</ele>
  <time>2026-09-01T20:02:40Z</time>
  <course>5.38</course>
  <speed>1.8708554193202638</speed>
  <fix>3d</fix>
</trkpt>
<trkpt lat="21.1680101" lon="-156.8869841">
  <ele>218.45</ele>
  <time>2026-09-01T20:02:40Z</time>
  <course>107.35</course>
  <speed>1.85</speed>
  <fix>3d</fix>
</trkpt>
<trkpt lat="21.1680093" lon="-156.886979">
  <ele>218.06</ele>
  <time>2026-09-01T20:02:40Z</time>
  <course>5.55</course>
  <speed>1.8572291188757515</speed>
  <fix>3d</fix>
</trkpt>
<trkpt lat="21.1680101" lon="-156.8869841">
  <ele>218.45</ele>
  <time>2026-09-01T20:02:40Z</time>
  <course>107.35</course>
  <speed>1.85</speed>
  <fix>3d</fix>
</trkpt>
<trkpt lat="21.1680088" lon="-156.8869773">
  <ele>217.94</ele>
  <time>2026-09-01T20:02:40Z</time>
  <course>5.73</course>
  <speed>1.8248561587149823</speed>
  <fix>3d</fix>
</trkpt>
<trkpt lat="21.1680092" lon="-156.8869807">
  <ele>218.24</ele>
  <time>2026-09-01T20:02:40Z</time>
  <course>107.41</course>
  <speed>1.85</speed>
  <fix>3d</fix>
</trkpt>
<trkpt lat="21.1680082" lon="-156.8869757">
  <ele>217.82</ele>
  <time>2026-09-01T20:02:40Z</time>
  <course>5.88</course>
  <speed>1.7930142219179412</speed>
  <fix>3d</fix>
</trkpt>
<trkpt lat="21.1680092" lon="-156.8869807">
  <ele>218.24</ele>
  <time>2026-09-01T20:02:40Z</time>
  <course>107.41</course>
  <speed>1.85</speed>
  <fix>3d</fix>
</trkpt>
<trkpt lat="21.1680076" lon="-156.8869741">
  <ele>217.7</ele>
  <time>2026-09-01T20:02:40Z</time>
  <course>6.0</course>
  <speed>1.7428998823799375</speed>
  <fix>3d</fix>
</trkpt>
<trkpt lat="21.1680082" lon="-156.8869773">
  <ele>218.01</ele>
  <time>2026-09-01T20:02:40Z</time>
  <course>108.61</course>
  <speed>1.81</speed>
  <fix>3d</fix>
</trkpt>
<trkpt lat="21.1680071" lon="-156.8869726">
  <ele>217.57</ele>
  <time>2026-09-01T20:02:40Z</time>
  <course>6.07</course>
  <speed>1.6936646657470302</speed>
  <fix>3d</fix>
</trkpt>
<trkpt lat="21.1680082" lon="-156.8869773">
  <ele>218.01</ele>
  <time>2026-09-01T20:02:40Z</time>
  <course>108.61</course>
  <speed>1.81</speed>
  <fix>3d</fix>
</trkpt>
<trkpt lat="21.1680065" lon="-156.8869711">
  <ele>217.45</ele>
  <time>2026-09-01T20:02:41Z</time>
  <course>6.07</course>
  <speed>1.6269296235547497</speed>
  <fix>3d</fix>
</trkpt>
<trkpt lat="21.1680071" lon="-156.8869741">
  <ele>217.77</ele>
  <time>2026-09-01T20:02:41Z</time>
  <course>110.78</course>
  <speed>1.72</speed>
  <fix>3d</fix>
</trkpt>
<trkpt lat="21.1680058" lon="-156.8869697">
  <ele>217.32</ele>
  <time>2026-09-01T20:02:41Z</time>
  <course>6.0</course>
  <speed>1.574960316960399</speed>
  <fix>3d</fix>
</trkpt>
<trkpt lat="21.1680071" lon="-156.8869741">
  <ele>217.77</ele>
  <time>2026-09-01T20:02:41Z</time>
  <course>110.78</course>
  <speed>1.72</speed>
  <fix>3d</fix>
</trkpt>
<trkpt lat="21.1680052" lon="-156.8869684">
  <ele>217.19</ele>
  <time>2026-09-01T20:02:41Z</time>
  <course>5.84</course>
  <speed>1.5115885683611134</speed>
  <fix>3d</fix>
</trkpt>
<trkpt lat="21.1680059" lon="-156.8869712">
  <ele>217.52</ele>
  <time>2026-09-01T20:02:41Z</time>
  <course>113.85</course>
  <speed>1.61</speed>
  <fix>3d</fix>
</trkpt>
<trkpt lat="21.1680045" lon="-156.8869672">
  <ele>217.06</ele>
  <time>2026-09-01T20:02:41Z</time>
  <course>5.6</course>
  <speed>1.4413882197381802</speed>
  <fix>3d</fix>
</trkpt>
<trkpt lat="21.1680059" lon="-156.8869712">
  <ele>217.52</ele>
  <time>2026-09-01T20:02:41Z</time>
  <course>113.85</course>
  <speed>1.61</speed>
  <fix>3d</fix>
</trkpt>
<trkpt lat="21.1680039" lon="-156.8869661">
  <ele>216.92</ele>
  <time>2026-09-01T20:02:41Z</time>
  <course>5.27</course>
  <speed>1.3737903770226374</speed>
  <fix>3d</fix>
</trkpt>
<trkpt lat="21.1680048" lon="-156.8869685">
  <ele>217.26</ele>
  <time>2026-09-01T20:02:41Z</time>
  <course>117.76</course>
  <speed>1.49</speed>
  <fix>3d</fix>
</trkpt>
<trkpt lat="21.1680032" lon="-156.886965">
  <ele>216.79</ele>
  <time>2026-09-01T20:02:41Z</time>
  <course>4.86</course>
  <speed>1.3091982279242513</speed>
  <fix>3d</fix>
</trkpt>
<trkpt lat="21.1680048" lon="-156.8869685">
  <ele>217.26</ele>
  <time>2026-09-01T20:02:41Z</time>
  <course>117.76</course>
  <speed>1.49</speed>
  <fix>3d</fix>
</trkpt>
<trkpt lat="21.1680025" lon="-156.886964">
  <ele>216.66</ele>
  <time>2026-09-01T20:02:41Z</time>
  <course>4.36</course>
  <speed>1.2480785231707179</speed>
  <fix>3d</fix>
</trkpt>
<trkpt lat="21.1680034" lon="-156.8869661">
  <ele>217.01</ele>
  <time>2026-09-01T20:02:41Z</time>
  <course>122.58</course>
  <speed>1.36</speed>
  <fix>3d</fix>
</trkpt>
<trkpt lat="21.1680017" lon="-156.8869631">
  <ele>216.53</ele>
  <time>2026-09-01T20:02:41Z</time>
  <course>3.8</course>
  <speed>1.183427226321923</speed>
  <fix>3d</fix>
</trkpt>
<trkpt lat="21.1680034" lon="-156.8869661">
  <ele>217.01</ele>
  <time>2026-09-01T20:02:41Z</time>
  <course>122.58</course>
  <speed>1.36</speed>
  <fix>3d</fix>
</trkpt>
<trkpt lat="21.168001" lon="-156.8869623">
  <ele>216.4</ele>
  <time>2026-09-01T20:02:41Z</time>
  <course>3.18</course>
  <speed>1.1172287142747452</speed>
  <fix>3d</fix>
</trkpt>
<trkpt lat="21.1680021" lon="-156.886964">
  <ele>216.75</ele>
  <time>2026-09-01T20:02:41Z</time>
  <course>128.59</course>
  <speed>1.23</speed>
  <fix>3d</fix>
</trkpt>
<trkpt lat="21.1680003" lon="-156.8869616">
  <ele>216.27</ele>
  <time>2026-09-01T20:02:41Z</time>
  <course>2.51</course>
  <speed>1.064048871058092</speed>
  <fix>3d</fix>
</trkpt>
<trkpt lat="21.1680021" lon="-156.886964">
  <ele>216.75</ele>
  <time>2026-09-01T20:02:41Z</time>
  <course>128.59</course>
  <speed>1.23</speed>
  <fix>3d</fix>
</trkpt>
<trkpt lat="21.1679995" lon="-156.886961">
  <ele>216.14</ele>
  <time>2026-09-01T20:02:41Z</time>
  <course>1.81</course>
  <speed>1.0043903623591774</speed>
  <fix>3d</fix>
</trkpt>
<trkpt lat="21.1680007" lon="-156.8869624">
  <ele>216.49</ele>
  <time>2026-09-01T20:02:41Z</time>
  <course>136.22</course>
  <speed>1.1</speed>
  <fix>3d</fix>
</trkpt>
<trkpt lat="21.1679988" lon="-156.8869605">
  <ele>216.02</ele>
  <time>2026-09-01T20:02:41Z</time>
  <course>1.08</course>
  <speed>0.9588013350011565</speed>
  <fix>3d</fix>
</trkpt>
<trkpt lat="21.1680007" lon="-156.8869624">
  <ele>216.49</ele>
  <time>2026-09-01T20:02:41Z</time>
  <course>136.22</course>
  <speed>1.1</speed>
  <fix>3d</fix>
</trkpt>
<trkpt lat="21.167998" lon="-156.8869602">
  <ele>215.9</ele>
  <time>2026-09-01T20:02:41Z</time>
  <course>0.35</course>
  <speed>0.9178779875342911</speed>
  <fix>3d</fix>
</trkpt>
<trkpt lat="21.1679992" lon="-156.8869611">
  <ele>216.24</ele>
  <time>2026-09-01T20:02:41Z</time>
  <course>145.91</course>
  <speed>0.99</speed>
  <fix>3d</fix>
</trkpt>
<trkpt lat="21.1679972" lon="-156.8869599">
  <ele>215.78</ele>
  <time>2026-09-01T20:02:41Z</time>
  <course>359.63</course>
  <speed>0.8793179174792243</speed>
  <fix>3d</fix>
</trkpt>
<trkpt lat="21.1679992" lon="-156.8869611">
  <ele>216.24</ele>
  <time>2026-09-01T20:02:41Z</time>
  <course>145.91</course>
  <speed>0.99</speed>
  <fix>3d</fix>
</trkpt>
<trkpt lat="21.1679965" lon="-156.8869597">
  <ele>215.66</ele>
  <time>2026-09-01T20:02:41Z</time>
  <course>358.94</course>
  <speed>0.8532877591996736</speed>
  <fix>3d</fix>
</trkpt>
<trkpt lat="21.1679978" lon="-156.8869602">
  <ele>216.0</ele>
  <time>2026-09-01T20:02:41Z</time>
  <course>157.9</course>
  <speed>0.9</speed>
  <fix>3d</fix>
</trkpt>
<trkpt lat="21.1679957" lon="-156.8869596">
  <ele>215.55</ele>
  <time>2026-09-01T20:02:41Z</time>
  <course>357.84</course>
  <speed>0.8372574275573791</speed>
  <fix>3d</fix>
</trkpt>
<trkpt lat="21.1679978" lon="-156.8869602">
  <ele>216.0</ele>
  <time>2026-09-01T20:02:41Z</time>
  <course>157.9</course>
  <speed>0.9</speed>
  <fix>3d</fix>
</trkpt>
<trkpt lat="21.1679949" lon="-156.8869595">
  <ele>215.44</ele>
  <time>2026-09-01T20:02:41Z</time>
  <course>355.84</course>
  <speed>0.8229823813423954</speed>
  <fix>3d</fix>
</trkpt>
<trkpt lat="21.1679963" lon="-156.8869598">
  <ele>215.77</ele>
  <time>2026-09-01T20:02:41Z</time>
  <course>169.84</course>
  <speed>0.84</speed>
  <fix>3d</fix>
</trkpt>
<trkpt lat="21.1679942" lon="-156.8869595">
  <ele>215.33</ele>
  <time>2026-09-01T20:02:41Z</time>
  <course>353.39</course>
  <speed>0.8102468759581859</speed>
  <fix>3d</fix>
</trkpt>
<trkpt lat="21.1679963" lon="-156.8869598">
  <ele>215.77</ele>
  <time>2026-09-01T20:02:41Z</time>
  <course>169.84</course>
  <speed>0.84</speed>
  <fix>3d</fix>
</trkpt>
<trkpt lat="21.1679935" lon="-156.8869595">
  <ele>215.22</ele>
  <time>2026-09-01T20:02:41Z</time>
  <course>350.83</course>
  <speed>0.7902531240052139</speed>
  <fix>3d</fix>
</trkpt>
<trkpt lat="21.1679948" lon="-156.8869596">
  <ele>215.55</ele>
  <time>2026-09-01T20:02:41Z</time>
  <course>178.08</course>
  <speed>0.81</speed>
  <fix>3d</fix>
</trkpt>
<trkpt lat="21.1679928" lon="-156.8869596">
  <ele>215.11</ele>
  <time>2026-09-01T20:02:41Z</time>
  <course>348.52</course>
  <speed>0.7731752712031082</speed>
  <fix>3d</fix>
</trkpt>
<trkpt lat="21.1679948" lon="-156.8869596">
  <ele>215.55</ele>
  <time>2026-09-01T20:02:41Z</time>
  <course>178.08</course>
  <speed>0.81</speed>
  <fix>3d</fix>
</trkpt>
<trkpt lat="21.1679921" lon="-156.8869596">
  <ele>215.0</ele>
  <time>2026-09-01T20:02:41Z</time>
  <course>346.73</course>
  <speed>0.762954782408499</speed>
  <fix>3d</fix>
</trkpt>
<trkpt lat="21.1679934" lon="-156.8869596">
  <ele>215.33</ele>
  <time>2026-09-01T20:02:41Z</time>
  <course>185.19</course>
  <speed>0.78</speed>
  <fix>3d</fix>
</trkpt>
<trkpt lat="21.1679914" lon="-156.8869598">
  <ele>214.9</ele>
  <time>2026-09-01T20:02:41Z</time>
  <course>345.6</course>
  <speed>0.7569015788066504</speed>
  <fix>3d</fix>
</trkpt>
<trkpt lat="21.1679934" lon="-156.8869596">
  <ele>215.33</ele>
  <time>2026-09-01T20:02:41Z</time>
  <course>185.19</course>
  <speed>0.78</speed>
  <fix>3d</fix>
</trkpt>
<trkpt lat="21.1679908" lon="-156.88696">
  <ele>214.79</ele>
  <time>2026-09-01T20:02:41Z</time>
  <course>345.12</course>
  <speed>0.7467261881037789</speed>
  <fix>3d</fix>
</trkpt>
<trkpt lat="21.1679919" lon="-156.8869599">
  <ele>215.12</ele>
  <time>2026-09-01T20:02:41Z</time>
  <course>194.41</course>
  <speed>0.76</speed>
  <fix>3d</fix>
</trkpt>
<trkpt lat="21.1679902" lon="-156.8869604">
  <ele>214.68</ele>
  <time>2026-09-01T20:02:41Z</time>
  <course>345.18</course>
  <speed>0.7424957912338628</speed>
  <fix>3d</fix>
</trkpt>
<trkpt lat="21.1679919" lon="-156.8869599">
  <ele>215.12</ele>
  <time>2026-09-01T20:02:41Z</time>
  <course>194.41</course>
  <speed>0.76</speed>
  <fix>3d</fix>
</trkpt>
<trkpt lat="21.1679896" lon="-156.8869607">
  <ele>214.58</ele>
  <time>2026-09-01T20:02:41Z</time>
  <course>345.61</course>
  <speed>0.7392563831310488</speed>
  <fix>3d</fix>
</trkpt>
<trkpt lat="21.1679907" lon="-156.8869603">
  <ele>214.91</ele>
  <time>2026-09-01T20:02:41Z</time>
  <course>204.52</course>
  <speed>0.75</speed>
  <fix>3d</fix>
</trkpt>
<trkpt lat="21.167989" lon="-156.8869611">
  <ele>214.47</ele>
  <time>2026-09-01T20:02:41Z</time>
  <course>346.28</course>
  <speed>0.740607858451421</speed>
  <fix>3d</fix>
</trkpt>
<trkpt lat="21.1679907" lon="-156.8869603">
  <ele>214.91</ele>
  <time>2026-09-01T20:02:41Z</time>
  <course>204.52</course>
  <speed>0.75</speed>
  <fix>3d</fix>
</trkpt>
<trkpt lat="21.1679885" lon="-156.8869616">
  <ele>214.36</ele>
  <time>2026-09-01T20:02:41Z</time>
  <course>347.03</course>
  <speed>0.7402702209328699</speed>
  <fix>3d</fix>
</trkpt>
<trkpt lat="21.1679895" lon="-156.886961">
  <ele>214.7</ele>
  <time>2026-09-01T20:02:41Z</time>
  <course>214.13</course>
  <speed>0.76</speed>
  <fix>3d</fix>
</trkpt>
<trkpt lat="21.167988" lon="-156.8869621">
  <ele>214.26</ele>
  <time>2026-09-01T20:02:41Z</time>
  <course>347.78</course>
  <speed>0.7433034373659253</speed>
  <fix>3d</fix>
</trkpt>
<trkpt lat="21.1679895" lon="-156.886961">
  <ele>214.7</ele>
  <time>2026-09-01T20:02:41Z</time>
  <course>214.13</course>
  <speed>0.76</speed>
  <fix>3d</fix>
</trkpt>
<trkpt lat="21.1679875" lon="-156.8869626">
  <ele>214.15</ele>
  <time>2026-09-01T20:02:41Z</time>
  <course>348.42</course>
  <speed>0.7424957912338628</speed>
  <fix>3d</fix>
</trkpt>
<trkpt lat="21.1679885" lon="-156.8869619">
  <ele>214.49</ele>
  <time>2026-09-01T20:02:41Z</time>
  <course>222.59</course>
  <speed>0.76</speed>
  <fix>3d</fix>
</trkpt>
<trkpt lat="21.1679871" lon="-156.8869632">
  <ele>214.04</ele>
  <time>2026-09-01T20:02:41Z</time>
  <course>348.9</course>
  <speed>0.737563556583431</speed>
  <fix>3d</fix>
</trkpt>
<trkpt lat="21.1679885" lon="-156.8869619">
  <ele>214.49</ele>
  <time>2026-09-01T20:02:41Z</time>
  <course>222.59</course>
  <speed>0.76</speed>
  <fix>3d</fix>
</trkpt>
<trkpt lat="21.1679866" lon="-156.8869638">
  <ele>213.93</ele>
  <time>2026-09-01T20:02:41Z</time>
  <course>349.19</course>
  <speed>0.7340980860893181</speed>
  <fix>3d</fix>
</trkpt>
<trkpt lat="21.1679875" lon="-156.886963">
  <ele>214.27</ele>
  <time>2026-09-01T20:02:41Z</time>
  <course>229.83</course>
  <speed>0.77</speed>
  <fix>3d</fix>
</trkpt>
<trkpt lat="21.1679863" lon="-156.8869644">
  <ele>213.82</ele>
  <time>2026-09-01T20:02:41Z</time>
  <course>349.31</course>
  <speed>0.7323933369440222</speed>
  <fix>3d</fix>
</trkpt>
<trkpt lat="21.1679875" lon="-156.886963">
  <ele>214.27</ele>
  <time>2026-09-01T20:02:41Z</time>
  <course>229.83</course>
  <speed>0.77</speed>
  <fix>3d</fix>
</trkpt>
<trkpt lat="21.1679859" lon="-156.886965">
  <ele>213.7</ele>
  <time>2026-09-01T20:02:41Z</time>
  <course>349.29</course>
  <speed>0.7240165743959182</speed>
  <fix>3d</fix>
</trkpt>
<trkpt lat="21.1679867" lon="-156.8869642">
  <ele>214.06</ele>
  <time>2026-09-01T20:02:41Z</time>
  <course>236.11</course>
  <speed>0.77</speed>
  <fix>3d</fix>
</trkpt>
<trkpt lat="21.1679856" lon="-156.8869656">
  <ele>213.59</ele>
  <time>2026-09-01T20:02:41Z</time>
  <course>349.18</course>
  <speed>0.7119691004531025</speed>
  <fix>3d</fix>
</trkpt>
<trkpt lat="21.1679867" lon="-156.8869642">
  <ele>214.06</ele>
  <time>2026-09-01T20:02:41Z</time>
  <course>236.11</course>
  <speed>0.77</speed>
  <fix>3d</fix>
</trkpt>
<trkpt lat="21.1679853" lon="-156.8869663">
  <ele>213.47</ele>
  <time>2026-09-01T20:02:41Z</time>
  <course>349.04</course>
  <speed>0.7066116330771806</speed>
  <fix>3d</fix>
</trkpt>
<trkpt lat="21.1679859" lon="-156.8869655">
  <ele>213.83</ele>
  <time>2026-09-01T20:02:41Z</time>
  <course>241.67</course>
  <speed>0.76</speed>
  <fix>3d</fix>
</trkpt>
<trkpt lat="21.167985" lon="-156.8869669">
  <ele>213.36</ele>
  <time>2026-09-01T20:02:41Z</time>
  <course>348.9</course>
  <speed>0.6935416353759881</speed>
  <fix>3d</fix>
</trkpt>
<trkpt lat="21.1679859" lon="-156.8869655">
  <ele>213.83</ele>
  <time>2026-09-01T20:02:41Z</time>
  <course>241.67</course>
  <speed>0.76</speed>
  <fix>3d</fix>
</trkpt>
<trkpt lat="21.1679848" lon="-156.8869676">
  <ele>213.24</ele>
  <time>2026-09-01T20:02:41Z</time>
  <course>348.79</course>
  <speed>0.6815423684555495</speed>
  <fix>3d</fix>
</trkpt>
<trkpt lat="21.1679853" lon="-156.8869668">
  <ele>213.6</ele>
  <time>2026-09-01T20:02:41Z</time>
  <course>246.79</course>
  <speed>0.75</speed>
  <fix>3d</fix>
</trkpt>
<trkpt lat="21.1679846" lon="-156.8869682">
  <ele>213.12</ele>
  <time>2026-09-01T20:02:41Z</time>
  <course>348.73</course>
  <speed>0.657875368135941</speed>
  <fix>3d</fix>
</trkpt>
<trkpt lat="21.1679853" lon="-156.8869668">
  <ele>213.6</ele>
  <time>2026-09-01T20:02:41Z</time>
  <course>246.79</course>
  <speed>0.75</speed>
  <fix>3d</fix>
</trkpt>
<trkpt lat="21.1679844" lon="-156.8869689">
  <ele>213.0</ele>
  <time>2026-09-01T20:02:41Z</time>
  <course>348.74</course>
  <speed>0.6389053137985315</speed>
  <fix>3d</fix>
</trkpt>
<trkpt lat="21.1679849" lon="-156.8869681">
  <ele>213.37</ele>
  <time>2026-09-01T20:02:41Z</time>
  <course>251.76</course>
  <speed>0.73</speed>
  <fix>3d</fix>
</trkpt>
<trkpt lat="21.1679843" lon="-156.8869695">
  <ele>212.88</ele>
  <time>2026-09-01T20:02:41Z</time>
  <course>348.8</course>
  <speed>0.6184658438426491</speed>
  <fix>3d</fix>
</trkpt>
<trkpt lat="21.1679849" lon="-156.8869681">
  <ele>213.37</ele>
  <time>2026-09-01T20:02:41Z</time>
  <course>251.76</course>
  <speed>0.73</speed>
  <fix>3d</fix>
</trkpt>
<trkpt lat="21.1679842" lon="-156.8869702">
  <ele>212.76</ele>
  <time>2026-09-01T20:02:41Z</time>
  <course>348.91</course>
  <speed>0.6020797289396147</speed>
  <fix>3d</fix>
</trkpt>
<trkpt lat="21.1679845" lon="-156.8869695">
  <ele>213.14</ele>
  <time>2026-09-01T20:02:41Z</time>
  <course>256.86</course>
  <speed>0.7</speed>
  <fix>3d</fix>
</trkpt>
<trkpt lat="21.1679841" lon="-156.8869708">
  <ele>212.65</ele>
  <time>2026-09-01T20:02:41Z</time>
  <course>349.06</course>
  <speed>0.5755866572463264</speed>
  <fix>3d</fix>
</trkpt>
<trkpt lat="21.1679845" lon="-156.8869695">
  <ele>213.14</ele>
  <time>2026-09-01T20:02:41Z</time>
  <course>256.86</course>
  <speed>0.7</speed>
  <fix>3d</fix>
</trkpt>
<trkpt lat="21.167984" lon="-156.8869714">
  <ele>212.53</ele>
  <time>2026-09-01T20:02:41Z</time>
  <course>349.22</course>
  <speed>0.552268050859363</speed>
  <fix>3d</fix>
</trkpt>
<trkpt lat="21.1679843" lon="-156.8869707">
  <ele>212.91</ele>
  <time>2026-09-01T20:02:41Z</time>
  <course>262.37</course>
  <speed>0.66</speed>
  <fix>3d</fix>
</trkpt>
<trkpt lat="21.167984" lon="-156.886972">
  <ele>212.41</ele>
  <time>2026-09-01T20:02:41Z</time>
  <course>349.38</course>
  <speed>0.5300943312279428</speed>
  <fix>3d</fix>
</trkpt>
<trkpt lat="21.1679843" lon="-156.8869707">
  <ele>212.91</ele>
  <time>2026-09-01T20:02:41Z</time>
  <course>262.37</course>
  <speed>0.66</speed>
  <fix>3d</fix>
</trkpt>
<trkpt lat="21.1679841" lon="-156.8869725">
  <ele>212.3</ele>
  <time>2026-09-01T20:02:41Z</time>
  <course>349.53</course>
  <speed>0.510098029794274</speed>
  <fix>3d</fix>
</trkpt>
<trkpt lat="21.1679842" lon="-156.886972">
  <ele>212.68</ele>
  <time>2026-09-01T20:02:41Z</time>
  <course>268.57</course>
  <speed>0.62</speed>
  <fix>3d</fix>
</trkpt>
<trkpt lat="21.1679841" lon="-156.8869731">
  <ele>212.18</ele>
  <time>2026-09-01T20:02:41Z</time>
  <course>349.67</course>
  <speed>0.49254441424099005</speed>
  <fix>3d</fix>
</trkpt>
<trkpt lat="21.1679842" lon="-156.886972">
  <ele>212.68</ele>
  <time>2026-09-01T20:02:41Z</time>
  <course>268.57</course>
  <speed>0.62</speed>
  <fix>3d</fix>
</trkpt>
<trkpt lat="21.1679842" lon="-156.8869736">
  <ele>212.07</ele>
  <time>2026-09-01T20:02:41Z</time>
  <course>349.8</course>
  <speed>0.4687216658103186</speed>
  <fix>3d</fix>
</trkpt>
<trkpt lat="21.1679842" lon="-156.8869732">
  <ele>212.45</ele>
  <time>2026-09-01T20:02:41Z</time>
  <course>275.76</course>
  <speed>0.58</speed>
  <fix>3d</fix>
</trkpt>
<trkpt lat="21.1679842" lon="-156.8869741">
  <ele>211.96</ele>
  <time>2026-09-01T20:02:41Z</time>
  <course>349.9</course>
  <speed>0.4464302857109943</speed>
  <fix>3d</fix>
</trkpt>
<trkpt lat="21.1679842" lon="-156.8869732">
  <ele>212.45</ele>
  <time>2026-09-01T20:02:41Z</time>
  <course>275.76</course>
  <speed>0.58</speed>
  <fix>3d</fix>
</trkpt>
<trkpt lat="21.1679844" lon="-156.8869746">
  <ele>211.84</ele>
  <time>2026-09-01T20:02:41Z</time>
  <course>350.0</course>
  <speed>0.44011362169330775</speed>
  <fix>3d</fix>
</trkpt>
<trkpt lat="21.1679843" lon="-156.8869743">
  <ele>212.22</ele>
  <time>2026-09-01T20:02:41Z</time>
  <course>284.11</course>
  <speed>0.54</speed>
  <fix>3d</fix>
</trkpt>
<trkpt lat="21.1679845" lon="-156.886975">
  <ele>211.73</ele>
  <time>2026-09-01T20:02:41Z</time>
  <course>350.08</course>
  <speed>0.42485291572496003</speed>
  <fix>3d</fix>
</trkpt>
<trkpt lat="21.1679843" lon="-156.8869743">
  <ele>212.22</ele>
  <time>2026-09-01T20:02:41Z</time>
  <course>284.11</course>
  <speed>0.54</speed>
  <fix>3d</fix>
</trkpt>
<trkpt lat="21.1679848" lon="-156.8869754">
  <ele>211.62</ele>
  <time>2026-09-01T20:02:41Z</time>
  <course>350.17</course>
  <speed>0.41880783182743847</speed>
  <fix>3d</fix>
</trkpt>
<trkpt lat="21.1679845" lon="-156.8869752">
  <ele>211.99</ele>
  <time>2026-09-01T20:02:41Z</time>
  <course>293.67</course>
  <speed>0.51</speed>
  <fix>3d</fix>
</trkpt>
<trkpt lat="21.167985" lon="-156.8869758">
  <ele>211.5</ele>
  <time>2026-09-01T20:02:41Z</time>
  <course>350.24</course>
  <speed>0.41231056256176607</speed>
  <fix>3d</fix>
</trkpt>
<trkpt lat="21.1679845" lon="-156.8869752">
  <ele>211.99</ele>
  <time>2026-09-01T20:02:41Z</time>
  <course>293.67</course>
  <speed>0.51</speed>
  <fix>3d</fix>
</trkpt>
<trkpt lat="21.1679853" lon="-156.8869762">
  <ele>211.39</ele>
  <time>2026-09-01T20:02:41Z</time>
  <course>350.32</course>
  <speed>0.4172529209005013</speed>
  <fix>3d</fix>
</trkpt>
<trkpt lat="21.167985" lon="-156.8869761">
  <ele>211.77</ele>
  <time>2026-09-01T20:02:41Z</time>
  <course>304.31</course>
  <speed>0.49</speed>
  <fix>3d</fix>
</trkpt>
<trkpt lat="21.1679856" lon="-156.8869765">
  <ele>211.28</ele>
  <time>2026-09-01T20:02:41Z</time>
  <course>350.4</course>
  <speed>0.41400483088968904</speed>
  <fix>3d</fix>
</trkpt>
<trkpt lat="21.167985" lon="-156.8869761">
  <ele>211.77</ele>
  <time>2026-09-01T20:02:41Z</time>
  <course>304.31</course>
  <speed>0.49</speed>
  <fix>3d</fix>
</trkpt>
<trkpt lat="21.1679859" lon="-156.8869768">
  <ele>211.16</ele>
  <time>2026-09-01T20:02:41Z</time>
  <course>350.48</course>
  <speed>0.4219004621945798</speed>
  <fix>3d</fix>
</trkpt>
<trkpt lat="21.1679855" lon="-156.8869768">
  <ele>211.54</ele>
  <time>2026-09-01T20:02:41Z</time>
  <course>315.42</course>
  <speed>0.49</speed>
  <fix>3d</fix>
</trkpt>
<trkpt lat="21.1679863" lon="-156.886977">
  <ele>211.05</ele>
  <time>2026-09-01T20:02:41Z</time>
  <course>350.56</course>
  <speed>0.4338202392696773</speed>
  <fix>3d</fix>
</trkpt>
<trkpt lat="21.1679855" lon="-156.8869768">
  <ele>211.54</ele>
  <time>2026-09-01T20:02:41Z</time>
  <course>315.42</course>
  <speed>0.49</speed>
  <fix>3d</fix>
</trkpt>
<trkpt lat="21.1679867" lon="-156.8869773">
  <ele>210.94</ele>
  <time>2026-09-01T20:02:41Z</time>
  <course>350.64</course>
  <speed>0.44944410108488464</speed>
  <fix>3d</fix>
</trkpt>
<trkpt lat="21.1679863" lon="-156.8869773">
  <ele>211.31</ele>
  <time>2026-09-01T20:02:41Z</time>
  <course>326.3</course>
  <speed>0.5</speed>
  <fix>3d</fix>
</trkpt>
<trkpt lat="21.1679871" lon="-156.8869774">
  <ele>210.83</ele>
  <time>2026-09-01T20:02:41Z</time>
  <course>350.72</course>
  <speed>0.4657252408878007</speed>
  <fix>3d</fix>
</trkpt>
<trkpt lat="21.1679863" lon="-156.8869773">
  <ele>211.31</ele>
  <time>2026-09-01T20:02:41Z</time>
  <course>326.3</course>
  <speed>0.5</speed>
  <fix>3d</fix>
</trkpt>
<trkpt lat="21.1679876" lon="-156.8869776">
  <ele>210.72</ele>
  <time>2026-09-01T20:02:41Z</time>
  <course>350.78</course>
  <speed>0.4883646178829912</speed>
  <fix>3d</fix>
</trkpt>
<trkpt lat="21.1679871" lon="-156.8869778">
  <ele>211.09</ele>
  <time>2026-09-01T20:02:41Z</time>
  <course>336.27</course>
  <speed>0.52</speed>
  <fix>3d</fix>
</trkpt>
<trkpt lat="21.167988" lon="-156.8869777">
  <ele>210.61</ele>
  <time>2026-09-01T20:02:41Z</time>
  <course>350.85</course>
  <speed>0.5035871324805669</speed>
  <fix>3d</fix>
</trkpt>
<trkpt lat="21.1679871" lon="-156.8869778">
  <ele>211.09</ele>
  <time>2026-09-01T20:02:41Z</time>
  <course>336.27</course>
  <speed>0.52</speed>
  <fix>3d</fix>
</trkpt>
<trkpt lat="21.1679885" lon="-156.8869778">
  <ele>210.49</ele>
  <time>2026-09-01T20:02:41Z</time>
  <course>350.9</course>
  <speed>0.5208646657242167</speed>
  <fix>3d</fix>
</trkpt>
<trkpt lat="21.167988" lon="-156.8869781">
  <ele>210.86</ele>
  <time>2026-09-01T20:02:41Z</time>
  <course>344.97</course>
  <speed>0.55</speed>
  <fix>3d</fix>
</trkpt>
<trkpt lat="21.1679891" lon="-156.8869779">
  <ele>210.38</ele>
  <time>2026-09-01T20:02:41Z</time>
  <course>350.95</course>
  <speed>0.54</speed>
  <fix>3d</fix>
</trkpt>
<trkpt lat="21.167988" lon="-156.8869781">
  <ele>210.86</ele>
  <time>2026-09-01T20:02:41Z</time>
  <course>344.97</course>
  <speed>0.55</speed>
  <fix>3d</fix>
</trkpt>
<trkpt lat="21.1679896" lon="-156.8869779">
  <ele>210.27</ele>
  <time>2026-09-01T20:02:41Z</time>
  <course>351.0</course>
  <speed>0.560357029044876</speed>
  <fix>3d</fix>
</trkpt>
<trkpt lat="21.167989" lon="-156.8869783">
  <ele>210.64</ele>
  <time>2026-09-01T20:02:41Z</time>
  <course>352.44</course>
  <speed>0.58</speed>
  <fix>3d</fix>
</trkpt>
<trkpt lat="21.1679902" lon="-156.8869779">
  <ele>210.16</ele>
  <time>2026-09-01T20:02:41Z</time>
  <course>351.03</course>
  <speed>0.5821511831131153</speed>
  <fix>3d</fix>
</trkpt>
<trkpt lat="21.167989" lon="-156.8869783">
  <ele>210.64</ele>
  <time>2026-09-01T20:02:41Z</time>
  <course>352.44</course>
  <speed>0.58</speed>
  <fix>3d</fix>
</trkpt>
<trkpt lat="21.1679907" lon="-156.8869779">
  <ele>210.05</ele>
  <time>2026-09-01T20:02:41Z</time>
  <course>351.07</course>
  <speed>0.5953990258641678</speed>
  <fix>3d</fix>
</trkpt>
<trkpt lat="21.1679901" lon="-156.8869785">
  <ele>210.41</ele>
  <time>2026-09-01T20:02:41Z</time>
  <course>358.81</course>
  <speed>0.61</speed>
  <fix>3d</fix>
</trkpt>
<trkpt lat="21.1679913" lon="-156.8869779">
  <ele>209.93</ele>
  <time>2026-09-01T20:02:41Z</time>
  <course>351.1</course>
  <speed>0.61</speed>
  <fix>3d</fix>
</trkpt>
<trkpt lat="21.1679901" lon="-156.8869785">
  <ele>210.41</ele>
  <time>2026-09-01T20:02:41Z</time>
  <course>358.81</course>
  <speed>0.61</speed>
  <fix>3d</fix>
</trkpt>
<trkpt lat="21.1679919" lon="-156.8869778">
  <ele>209.82</ele>
  <time>2026-09-01T20:02:41Z</time>
  <course>351.13</course>
  <speed>0.623698645180507</speed>
  <fix>3d</fix>
</trkpt>
<trkpt lat="21.1679912" lon="-156.8869785">
  <ele>210.18</ele>
  <time>2026-09-01T20:02:41Z</time>
  <course>4.29</course>
  <speed>0.64</speed>
  <fix>3d</fix>
</trkpt>
<trkpt lat="21.1679925" lon="-156.8869778">
  <ele>209.7</ele>
  <time>2026-09-01T20:02:41Z</time>
  <course>351.16</course>
  <speed>0.6306346010171024</speed>
  <fix>3d</fix>
</trkpt>
<trkpt lat="21.1679912" lon="-156.8869785">
  <ele>210.18</ele>
  <time>2026-09-01T20:02:41Z</time>
  <course>4.29</course>
  <speed>0.64</speed>
  <fix>3d</fix>
</trkpt>
<trkpt lat="21.1679931" lon="-156.8869777">
  <ele>209.58</ele>
  <time>2026-09-01T20:02:41Z</time>
  <course>351.19</course>
  <speed>0.6360031446463138</speed>
  <fix>3d</fix>
</trkpt>
<trkpt lat="21.1679924" lon="-156.8869783">
  <ele>209.95</ele>
  <time>2026-09-01T20:02:41Z</time>
  <course>9.06</course>
  <speed>0.66</speed>
  <fix>3d</fix>
</trkpt>
<trkpt lat="21.1679937" lon="-156.8869775">
  <ele>209.47</ele>
  <time>2026-09-01T20:02:41Z</time>
  <course>351.23</course>
  <speed>0.6451356446515725</speed>
  <fix>3d</fix>
</trkpt>
<trkpt lat="21.1679924" lon="-156.8869783">
  <ele>209.95</ele>
  <time>2026-09-01T20:02:41Z</time>
  <course>9.06</course>
  <speed>0.66</speed>
  <fix>3d</fix>
</trkpt>
<trkpt lat="21.1679943" lon="-156.8869774">
  <ele>209.35</ele>
  <time>2026-09-01T20:02:41Z</time>
  <course>351.26</course>
  <speed>0.6519202405202649</speed>
  <fix>3d</fix>
</trkpt>
<trkpt lat="21.1679936" lon="-156.8869781">
  <ele>209.72</ele>
  <time>2026-09-01T20:02:41Z</time>
  <course>13.27</course>
  <speed>0.68</speed>
  <fix>3d</fix>
</trkpt>
<trkpt lat="21.1679948" lon="-156.8869772">
  <ele>209.24</ele>
  <time>2026-09-01T20:02:41Z</time>
  <course>351.28</course>
  <speed>0.6462197768561404</speed>
  <fix>3d</fix>
</trkpt>
<trkpt lat="21.1679936" lon="-156.8869781">
  <ele>209.72</ele>
  <time>2026-09-01T20:02:41Z</time>
  <course>13.27</course>
  <speed>0.68</speed>
  <fix>3d</fix>
</trkpt>
<trkpt lat="21.1679954" lon="-156.886977">
  <ele>209.12</ele>
  <time>2026-09-01T20:02:41Z</time>
  <course>351.3</course>
  <speed>0.6539113089708727</speed>
  <fix>3d</fix>
</trkpt>
<trkpt lat="21.1679948" lon="-156.8869778">
  <ele>209.49</ele>
  <time>2026-09-01T20:02:41Z</time>
  <course>17.07</course>
  <speed>0.69</speed>
  <fix>3d</fix>
</trkpt>
<trkpt lat="21.167996" lon="-156.8869768">
  <ele>209.01</ele>
  <time>2026-09-01T20:02:41Z</time>
  <course>351.31</course>
  <speed>0.6530696746902278</speed>
  <fix>3d</fix>
</trkpt>
<trkpt lat="21.1679948" lon="-156.8869778">
  <ele>209.49</ele>
  <time>2026-09-01T20:02:41Z</time>
  <course>17.07</course>
  <speed>0.69</speed>
  <fix>3d</fix>
</trkpt>
<trkpt lat="21.1679966" lon="-156.8869765">
  <ele>208.89</ele>
  <time>2026-09-01T20:02:41Z</time>
  <course>351.33</course>
  <speed>0.6395310782127792</speed>
  <fix>3d</fix>
</trkpt>
<trkpt lat="21.167996" lon="-156.8869773">
  <ele>209.26</ele>
  <time>2026-09-01T20:02:41Z</time>
  <course>20.61</course>
  <speed>0.69</speed>
  <fix>3d</fix>
</trkpt>
<trkpt lat="21.1679971" lon="-156.8869763">
  <ele>208.77</ele>
  <time>2026-09-01T20:02:41Z</time>
  <course>351.34</course>
  <speed>0.6352952069707436</speed>
  <fix>3d</fix>
</trkpt>
<trkpt lat="21.167996" lon="-156.8869773">
  <ele>209.26</ele>
  <time>2026-09-01T20:02:41Z</time>
  <course>20.61</course>
  <speed>0.69</speed>
  <fix>3d</fix>
</trkpt>
<trkpt lat="21.1679977" lon="-156.886976">
  <ele>208.66</ele>
  <time>2026-09-01T20:02:41Z</time>
  <course>351.35</course>
  <speed>0.6276941930590086</speed>
  <fix>3d</fix>
</trkpt>
<trkpt lat="21.1679971" lon="-156.8869768">
  <ele>209.03</ele>
  <time>2026-09-01T20:02:41Z</time>
  <course>23.98</course>
  <speed>0.68</speed>
  <fix>3d</fix>
</trkpt>
<trkpt lat="21.1679982" lon="-156.8869757">
  <ele>208.54</ele>
  <time>2026-09-01T20:02:41Z</time>
  <course>351.36</course>
  <speed>0.6158733636065129</speed>
  <fix>3d</fix>
</trkpt>
<trkpt lat="21.1679971" lon="-156.8869768">
  <ele>209.03</ele>
  <time>2026-09-01T20:02:41Z</time>
  <course>23.98</course>
  <speed>0.68</speed>
  <fix>3d</fix>
</trkpt>
<trkpt lat="21.1679987" lon="-156.8869754">
  <ele>208.43</ele>
  <time>2026-09-01T20:02:41Z</time>
  <course>351.37</course>
  <speed>0.5990826320300063</speed>
  <fix>3d</fix>
</trkpt>
<trkpt lat="21.1679982" lon="-156.8869763">
  <ele>208.81</ele>
  <time>2026-09-01T20:02:41Z</time>
  <course>27.29</course>
  <speed>0.66</speed>
  <fix>3d</fix>
</trkpt>
<trkpt lat="21.1679992" lon="-156.8869751">
  <ele>208.32</ele>
  <time>2026-09-01T20:02:41Z</time>
  <course>351.38</course>
  <speed>0.5882176467941097</speed>
  <fix>3d</fix>
</trkpt>
<trkpt lat="21.1679982" lon="-156.8869763">
  <ele>208.81</ele>
  <time>2026-09-01T20:02:41Z</time>
  <course>27.29</course>
  <speed>0.66</speed>
  <fix>3d</fix>
</trkpt>
<trkpt lat="21.1679997" lon="-156.8869748">
  <ele>208.2</ele>
  <time>2026-09-01T20:02:41Z</time>
  <course>351.38</course>
  <speed>0.5720139858430037</speed>
  <fix>3d</fix>
</trkpt>
<trkpt lat="21.1679992" lon="-156.8869757">
  <ele>208.58</ele>
  <time>2026-09-01T20:02:41Z</time>
  <course>30.6</course>
  <speed>0.63</speed>
  <fix>3d</fix>
</trkpt>
<trkpt lat="21.1680001" lon="-156.8869745">
  <ele>208.08</ele>
  <time>2026-09-01T20:02:41Z</time>
  <course>351.39</course>
  <speed>0.5544366510251645</speed>
  <fix>3d</fix>
</trkpt>
<trkpt lat="21.1679992" lon="-156.8869757">
  <ele>208.58</ele>
  <time>2026-09-01T20:02:41Z</time>
  <course>30.6</course>
  <speed>0.63</speed>
  <fix>3d</fix>
</trkpt>
<trkpt lat="21.1680005" lon="-156.8869742">
  <ele>207.97</ele>
  <time>2026-09-01T20:02:41Z</time>
  <course>351.39</course>
  <speed>0.5390732788777421</speed>
  <fix>3d</fix>
</trkpt>
<trkpt lat="21.1680002" lon="-156.886975">
  <ele>208.35</ele>
  <time>2026-09-01T20:02:41Z</time>
  <course>33.93</course>
  <speed>0.6</speed>
  <fix>3d</fix>
</trkpt>
<trkpt lat="21.1680009" lon="-156.8869739">
  <ele>207.85</ele>
  <time>2026-09-01T20:02:41Z</time>
  <course>351.39</course>
  <speed>0.5166236541235796</speed>
  <fix>3d</fix>
</trkpt>
<trkpt lat="21.1680002" lon="-156.886975">
  <ele>208.35</ele>
  <time>2026-09-01T20:02:41Z</time>
  <course>33.93</course>
  <speed>0.6</speed>
  <fix>3d</fix>
</trkpt>
<trkpt lat="21.1680013" lon="-156.8869736">
  <ele>207.74</ele>
  <time>2026-09-01T20:02:41Z</time>
  <course>351.4</course>
  <speed>0.49517673612559787</speed>
  <fix>3d</fix>
</trkpt>
<trkpt lat="21.168001" lon="-156.8869743">
  <ele>208.12</ele>
  <time>2026-09-01T20:02:41Z</time>
  <course>37.38</course>
  <speed>0.56</speed>
  <fix>3d</fix>
</trkpt>
<trkpt lat="21.1680017" lon="-156.8869733">
  <ele>207.63</ele>
  <time>2026-09-01T20:02:41Z</time>
  <course>351.4</course>
  <speed>0.4738143096192854</speed>
  <fix>3d</fix>
</trkpt>
<trkpt lat="21.168001" lon="-156.8869743">
  <ele>208.12</ele>
  <time>2026-09-01T20:02:41Z</time>
  <course>37.38</course>
  <speed>0.56</speed>
  <fix>3d</fix>
</trkpt>
<trkpt lat="21.168002" lon="-156.886973">
  <ele>207.51</ele>
  <time>2026-09-01T20:02:41Z</time>
  <course>351.4</course>
  <speed>0.45343136195018535</speed>
  <fix>3d</fix>
</trkpt>
<trkpt lat="21.1680018" lon="-156.8869737">
  <ele>207.9</ele>
  <time>2026-09-01T20:02:41Z</time>
  <course>41.0</course>
  <speed>0.52</speed>
  <fix>3d</fix>
</trkpt>
<trkpt lat="21.1680023" lon="-156.8869726">
  <ele>207.4</ele>
  <time>2026-09-01T20:02:41Z</time>
  <course>351.4</course>
  <speed>0.43278170016764805</speed>
  <fix>3d</fix>
</trkpt>
<trkpt lat="21.1680018" lon="-156.8869737">
  <ele>207.9</ele>
  <time>2026-09-01T20:02:41Z</time>
  <course>41.0</course>
  <speed>0.52</speed>
  <fix>3d</fix>
</trkpt>
<trkpt lat="21.1680026" lon="-156.8869723">
  <ele>207.29</ele>
  <time>2026-09-01T20:02:41Z</time>
  <course>351.4</course>
  <speed>0.40607881008493907</speed>
  <fix>3d</fix>
</trkpt>
<trkpt lat="21.1680025" lon="-156.886973">
  <ele>207.67</ele>
  <time>2026-09-01T20:02:41Z</time>
  <course>44.75</course>
  <speed>0.47</speed>
  <fix>3d</fix>
</trkpt>
<trkpt lat="21.1680028" lon="-156.886972">
  <ele>207.17</ele>
  <time>2026-09-01T20:02:41Z</time>
  <course>351.41</course>
  <speed>0.38013155617496425</speed>
  <fix>3d</fix>
</trkpt>
<trkpt lat="21.1680025" lon="-156.886973">
  <ele>207.67</ele>
  <time>2026-09-01T20:02:41Z</time>
  <course>44.75</course>
  <speed>0.47</speed>
  <fix>3d</fix>
</trkpt>
<trkpt lat="21.1680031" lon="-156.8869718">
  <ele>207.05</ele>
  <time>2026-09-01T20:02:41Z</time>
  <course>351.41</course>
  <speed>0.3605551275463989</speed>
  <fix>3d</fix>
</trkpt>
<trkpt lat="21.168003" lon="-156.8869724">
  <ele>207.44</ele>
  <time>2026-09-01T20:02:41Z</time>
  <course>48.71</course>
  <speed>0.43</speed>
  <fix>3d</fix>
</trkpt>
<trkpt lat="21.1680033" lon="-156.8869715">
  <ele>206.94</ele>
  <time>2026-09-01T20:02:41Z</time>
  <course>351.42</course>
  <speed>0.3361547262794322</speed>
  <fix>3d</fix>
</trkpt>
<trkpt lat="21.168003" lon="-156.8869724">
  <ele>207.44</ele>
  <time>2026-09-01T20:02:41Z</time>
  <course>48.71</course>
  <speed>0.43</speed>
  <fix>3d</fix>
</trkpt>
<trkpt lat="21.1680034" lon="-156.8869712">
  <ele>206.82</ele>
  <time>2026-09-01T20:02:41Z</time>
  <course>351.43</course>
  <speed>0.30886890422961</speed>
  <fix>3d</fix>
</trkpt>
<trkpt lat="21.1680034" lon="-156.8869717">
  <ele>207.22</ele>
  <time>2026-09-01T20:02:41Z</time>
  <course>52.92</course>
  <speed>0.37</speed>
  <fix>3d</fix>
</trkpt>
<trkpt lat="21.1680036" lon="-156.886971">
  <ele>206.71</ele>
  <time>2026-09-01T20:02:41Z</time>
  <course>351.44</course>
  <speed>0.2863564212655271</speed>
  <fix>3d</fix>
</trkpt>
<trkpt lat="21.1680034" lon="-156.8869717">
  <ele>207.22</ele>
  <time>2026-09-01T20:02:41Z</time>
  <course>52.92</course>
  <speed>0.37</speed>
  <fix>3d</fix>
</trkpt>
<trkpt lat="21.1680037" lon="-156.8869707">
  <ele>206.59</ele>
  <time>2026-09-01T20:02:41Z</time>
  <course>351.45</course>
  <speed>0.26</speed>
  <fix>3d</fix>
</trkpt>
<trkpt lat="21.1680038" lon="-156.8869712">
  <ele>206.99</ele>
  <time>2026-09-01T20:02:41Z</time>
  <course>57.55</course>
  <speed>0.32</speed>
  <fix>3d</fix>
</trkpt>
<trkpt lat="21.1680038" lon="-156.8869705">
  <ele>206.47</ele>
  <time>2026-09-01T20:02:41Z</time>
  <course>351.47</course>
  <speed>0.2308679276123039</speed>
  <fix>3d</fix>
</trkpt>
<trkpt lat="21.1680038" lon="-156.8869712">
  <ele>206.99</ele>
  <time>2026-09-01T20:02:41Z</time>
  <course>57.55</course>
  <speed>0.32</speed>
  <fix>3d</fix>
</trkpt>
<trkpt lat="21.1680039" lon="-156.8869703">
  <ele>206.36</ele>
  <time>2026-09-01T20:02:41Z</time>
  <course>351.48</course>
  <speed>0.20615528128088303</speed>
  <fix>3d</fix>
</trkpt>
<trkpt lat="21.1680041" lon="-156.8869707">
  <ele>206.76</ele>
  <time>2026-09-01T20:02:41Z</time>
  <course>62.85</course>
  <speed>0.27</speed>
  <fix>3d</fix>
</trkpt>
<trkpt lat="21.168004" lon="-156.8869701">
  <ele>206.24</ele>
  <time>2026-09-01T20:02:41Z</time>
  <course>351.5</course>
  <speed>0.1824828759089466</speed>
  <fix>3d</fix>
</trkpt>
<trkpt lat="21.1680041" lon="-156.8869707">
  <ele>206.76</ele>
  <time>2026-09-01T20:02:41Z</time>
  <course>62.85</course>
  <speed>0.27</speed>
  <fix>3d</fix>
</trkpt>
<trkpt lat="21.1680041" lon="-156.8869699">
  <ele>206.13</ele>
  <time>2026-09-01T20:02:41Z</time>
  <course>351.53</course>
  <speed>0.16031219541881397</speed>
  <fix>3d</fix>
</trkpt>
<trkpt lat="21.1680043" lon="-156.8869702">
  <ele>206.53</ele>
  <time>2026-09-01T20:02:41Z</time>
  <course>69.35</course>
  <speed>0.22</speed>
  <fix>3d</fix>
</trkpt>
<trkpt lat="21.1680041" lon="-156.8869698">
  <ele>206.02</ele>
  <time>2026-09-01T20:02:41Z</time>
  <course>351.57</course>
  <speed>0.14</speed>
  <fix>3d</fix>
</trkpt>
<trkpt lat="21.1680043" lon="-156.8869702">
  <ele>206.53</ele>
  <time>2026-09-01T20:02:41Z</time>
  <course>69.35</course>
  <speed>0.22</speed>
  <fix>3d</fix>
</trkpt>
<trkpt lat="21.1680041" lon="-156.8869696">
  <ele>205.91</ele>
  <time>2026-09-01T20:02:41Z</time>
  <course>351.62</course>
  <speed>0.12041594578792296</speed>
  <fix>3d</fix>
</trkpt>
<trkpt lat="21.1680044" lon="-156.8869699">
  <ele>206.31</ele>
  <time>2026-09-01T20:02:41Z</time>
  <course>78.15</course>
  <speed>0.17</speed>
  <fix>3d</fix>
</trkpt>
<trkpt lat="21.1680041" lon="-156.8869695">
  <ele>205.79</ele>
  <time>2026-09-01T20:02:41Z</time>
  <course>351.69</course>
  <speed>0.1044030650891055</speed>
  <fix>3d</fix>
</trkpt>
<trkpt lat="21.1680044" lon="-156.8869699">
  <ele>206.31</ele>
  <time>2026-09-01T20:02:41Z</time>
  <course>78.15</course>
  <speed>0.17</speed>
  <fix>3d</fix>
</trkpt>
<trkpt lat="21.1680041" lon="-156.8869695">
  <ele>205.68</ele>
  <time>2026-09-01T20:02:41Z</time>
  <course>351.79</course>
  <speed>0.08602325267042626</speed>
  <fix>3d</fix>
</trkpt>
<trkpt lat="21.1680045" lon="-156.8869697">
  <ele>206.08</ele>
  <time>2026-09-01T20:02:41Z</time>
  <course>91.69</course>
  <speed>0.12</speed>
  <fix>3d</fix>
</trkpt>
<trkpt lat="21.1680041" lon="-156.8869694">
  <ele>205.57</ele>
  <time>2026-09-01T20:02:41Z</time>
  <course>351.93</course>
  <speed>0.07810249675906654</speed>
  <fix>3d</fix>
</trkpt>
<trkpt lat="21.1680045" lon="-156.8869697">
  <ele>206.08</ele>
  <time>2026-09-01T20:02:41Z</time>
  <course>91.69</course>
  <speed>0.12</speed>
  <fix>3d</fix>
</trkpt>
<trkpt lat="21.168004" lon="-156.8869694">
  <ele>205.46</ele>
  <time>2026-09-01T20:02:41Z</time>
  <course>352.1</course>
  <speed>0.0824621125123532</speed>
  <fix>3d</fix>
</trkpt>
<trkpt lat="21.1680045" lon="-156.8869695">
  <ele>205.85</ele>
  <time>2026-09-01T20:02:41Z</time>
  <course>116.65</course>
  <speed>0.08</speed>
  <fix>3d</fix>
</trkpt>
<trkpt lat="21.168004" lon="-156.8869693">
  <ele>205.35</ele>
  <time>2026-09-01T20:02:41Z</time>
  <course>352.12</course>
  <speed>0.09219544457292887</speed>
  <fix>3d</fix>
</trkpt>
<trkpt lat="21.1680045" lon="-156.8869695">
  <ele>205.85</ele>
  <time>2026-09-01T20:02:41Z</time>
  <course>116.65</course>
  <speed>0.08</speed>
  <fix>3d</fix>
</trkpt>
<trkpt lat="21.1680039" lon="-156.8869693">
  <ele>205.24</ele>
  <time>2026-09-01T20:02:41Z</time>
  <course>351.77</course>
  <speed>0.09219544457292887</speed>
  <fix>3d</fix>
</trkpt>
<trkpt lat="21.1680044" lon="-156.8869694">
  <ele>205.62</ele>
  <time>2026-09-01T20:02:41Z</time>
  <course>152.42</course>
  <speed>0.07</speed>
  <fix>3d</fix>
</trkpt>
<trkpt lat="21.1680039" lon="-156.8869693">
  <ele>205.13</ele>
  <time>2026-09-01T20:02:41Z</time>
  <course>351.16</course>
  <speed>0.1019803902718557</speed>
  <fix>3d</fix>
</trkpt>
<trkpt lat="21.1680044" lon="-156.8869694">
  <ele>205.62</ele>
  <time>2026-09-01T20:02:41Z</time>
  <course>152.42</course>
  <speed>0.07</speed>
  <fix>3d</fix>
</trkpt>
<trkpt lat="21.1680039" lon="-156.8869693">
  <ele>205.02</ele>
  <time>2026-09-01T20:02:41Z</time>
  <course>350.43</course>
  <speed>0.1044030650891055</speed>
  <fix>3d</fix>
</trkpt>
<trkpt lat="21.1680043" lon="-156.8869693">
  <ele>205.39</ele>
  <time>2026-09-01T20:02:41Z</time>
  <course>166.73</course>
  <speed>0.09</speed>
  <fix>3d</fix>
</trkpt>
<trkpt lat="21.1680038" lon="-156.8869693">
  <ele>204.9</ele>
  <time>2026-09-01T20:02:41Z</time>
  <course>349.69</course>
  <speed>0.11401754250991379</speed>
  <fix>3d</fix>
</trkpt>
<trkpt lat="21.1680043" lon="-156.8869693">
  <ele>205.39</ele>
  <time>2026-09-01T20:02:41Z</time>
  <course>166.73</course>
  <speed>0.09</speed>
  <fix>3d</fix>
</trkpt>
<trkpt lat="21.1680037" lon="-156.8869692">
  <ele>204.78</ele>
  <time>2026-09-01T20:02:41Z</time>
  <course>349.03</course>
  <speed>0.11704699910719625</speed>
  <fix>3d</fix>
</trkpt>
<trkpt lat="21.168004" lon="-156.8869693">
  <ele>205.16</ele>
  <time>2026-09-01T20:02:41Z</time>
  <course>165.56</course>
  <speed>0.1</speed>
  <fix>3d</fix>
</trkpt>
<trkpt lat="21.1680037" lon="-156.8869692">
  <ele>204.67</ele>
  <time>2026-09-01T20:02:41Z</time>
  <course>348.53</course>
  <speed>0.11704699910719625</speed>
  <fix>3d</fix>
</trkpt>
<trkpt lat="21.168004" lon="-156.8869693">
  <ele>205.16</ele>
  <time>2026-09-01T20:02:41Z</time>
  <course>165.56</course>
  <speed>0.1</speed>
  <fix>3d</fix>
</trkpt>
<trkpt lat="21.1680036" lon="-156.8869691">
  <ele>204.55</ele>
  <time>2026-09-01T20:02:41Z</time>
  <course>348.21</course>
  <speed>0.11704699910719625</speed>
  <fix>3d</fix>
</trkpt>
<trkpt lat="21.1680039" lon="-156.8869692">
  <ele>204.93</ele>
  <time>2026-09-01T20:02:41Z</time>
  <course>163.24</course>
  <speed>0.11</speed>
  <fix>3d</fix>
</trkpt>
<trkpt lat="21.1680035" lon="-156.8869691">
  <ele>204.44</ele>
  <time>2026-09-01T20:02:41Z</time>
  <course>348.06</course>
  <speed>0.11704699910719625</speed>
  <fix>3d</fix>
</trkpt>
<trkpt lat="21.1680039" lon="-156.8869692">
  <ele>204.93</ele>
  <time>2026-09-01T20:02:41Z</time>
  <course>163.24</course>
  <speed>0.11</speed>
  <fix>3d</fix>
</trkpt>
<trkpt lat="21.1680034" lon="-156.8869691">
  <ele>204.32</ele>
  <time>2026-09-01T20:02:41Z</time>
  <course>348.06</course>
  <speed>0.11704699910719625</speed>
  <fix>3d</fix>
</trkpt>
<trkpt lat="21.1680037" lon="-156.8869691">
  <ele>204.7</ele>
  <time>2026-09-01T20:02:41Z</time>
  <course>161.56</course>
  <speed>0.12</speed>
  <fix>3d</fix>
</trkpt>
<trkpt lat="21.1680033" lon="-156.886969">
  <ele>204.2</ele>
  <time>2026-09-01T20:02:41Z</time>
  <course>348.16</course>
  <speed>0.12083045973594572</speed>
  <fix>3d</fix>
</trkpt>
<trkpt lat="21.1680037" lon="-156.8869691">
  <ele>204.7</ele>
  <time>2026-09-01T20:02:41Z</time>
  <course>161.56</course>
  <speed>0.12</speed>
  <fix>3d</fix>
</trkpt>
<trkpt lat="21.1680032" lon="-156.886969">
  <ele>204.08</ele>
  <time>2026-09-01T20:02:41Z</time>
  <course>348.32</course>
  <speed>0.12083045973594572</speed>
  <fix>3d</fix>
</trkpt>
<trkpt lat="21.1680034" lon="-156.886969">
  <ele>204.46</ele>
  <time>2026-09-01T20:02:41Z</time>
  <course>160.59</course>
  <speed>0.12</speed>
  <fix>3d</fix>
</trkpt>
<trkpt lat="21.1680031" lon="-156.8869689">
  <ele>203.97</ele>
  <time>2026-09-01T20:02:41Z</time>
  <course>348.48</course>
  <speed>0.12083045973594572</speed>
  <fix>3d</fix>
</trkpt>
<trkpt lat="21.1680034" lon="-156.886969">
  <ele>204.46</ele>
  <time>2026-09-01T20:02:41Z</time>
  <course>160.59</course>
  <speed>0.12</speed>
  <fix>3d</fix>
</trkpt>
<trkpt lat="21.168003" lon="-156.8869689">
  <ele>203.85</ele>
  <time>2026-09-01T20:02:41Z</time>
  <course>348.62</course>
  <speed>0.12083045973594572</speed>
  <fix>3d</fix>
</trkpt>
<trkpt lat="21.1680033" lon="-156.886969">
  <ele>204.23</ele>
  <time>2026-09-01T20:02:41Z</time>
  <course>160.05</course>
  <speed>0.12</speed>
  <fix>3d</fix>
</trkpt>
<trkpt lat="21.1680029" lon="-156.8869688">
  <ele>203.73</ele>
  <time>2026-09-01T20:02:41Z</time>
  <course>348.7</course>
  <speed>0.12083045973594572</speed>
  <fix>3d</fix>
</trkpt>
<trkpt lat="21.1680033" lon="-156.886969">
  <ele>204.23</ele>
  <time>2026-09-01T20:02:41Z</time>
  <course>160.05</course>
  <speed>0.12</speed>
  <fix>3d</fix>
</trkpt>
<trkpt lat="21.1680028" lon="-156.8869688">
  <ele>203.61</ele>
  <time>2026-09-01T20:02:41Z</time>
  <course>348.72</course>
  <speed>0.12083045973594572</speed>
  <fix>3d</fix>
</trkpt>
<trkpt lat="21.1680031" lon="-156.8869689">
  <ele>203.99</ele>
  <time>2026-09-01T20:02:41Z</time>
  <course>159.56</course>
  <speed>0.12</speed>
  <fix>3d</fix>
</trkpt>
<trkpt lat="21.1680027" lon="-156.8869687">
  <ele>203.49</ele>
  <time>2026-09-01T20:02:41Z</time>
  <course>348.68</course>
  <speed>0.1118033988749895</speed>
  <fix>3d</fix>
</trkpt>
<trkpt lat="21.1680031" lon="-156.8869689">
  <ele>203.99</ele>
  <time>2026-09-01T20:02:41Z</time>
  <course>159.56</course>
  <speed>0.12</speed>
  <fix>3d</fix>
</trkpt>
<trkpt lat="21.1680027" lon="-156.8869687">
  <ele>203.38</ele>
  <time>2026-09-01T20:02:41Z</time>
  <course>348.6</course>
  <speed>0.1118033988749895</speed>
  <fix>3d</fix>
</trkpt>
<trkpt lat="21.1680028" lon="-156.8869688">
  <ele>203.76</ele>
  <time>2026-09-01T20:02:41Z</time>
  <course>158.68</course>
  <speed>0.11</speed>
  <fix>3d</fix>
</trkpt>
<trkpt lat="21.1680026" lon="-156.8869686">
  <ele>203.26</ele>
  <time>2026-09-01T20:02:41Z</time>
  <course>348.48</course>
  <speed>0.1118033988749895</speed>
  <fix>3d</fix>
</trkpt>
<trkpt lat="21.1680028" lon="-156.8869688">
  <ele>203.76</ele>
  <time>2026-09-01T20:02:41Z</time>
  <course>158.68</course>
  <speed>0.11</speed>
  <fix>3d</fix>
</trkpt>
<trkpt lat="21.1680025" lon="-156.8869686">
  <ele>203.14</ele>
  <time>2026-09-01T20:02:41Z</time>
  <course>348.34</course>
  <speed>0.10295630140987001</speed>
  <fix>3d</fix>
</trkpt>
<trkpt lat="21.1680027" lon="-156.8869687">
  <ele>203.52</ele>
  <time>2026-09-01T20:02:41Z</time>
  <course>157.38</course>
  <speed>0.11</speed>
  <fix>3d</fix>
</trkpt>
<trkpt lat="21.1680024" lon="-156.8869685">
  <ele>203.03</ele>
  <time>2026-09-01T20:02:41Z</time>
  <course>348.21</course>
  <speed>0.10816653826391968</speed>
  <fix>3d</fix>
</trkpt>
<trkpt lat="21.1680027" lon="-156.8869687">
  <ele>203.52</ele>
  <time>2026-09-01T20:02:41Z</time>
  <course>157.38</course>
  <speed>0.11</speed>
  <fix>3d</fix>
</trkpt>
<trkpt lat="21.1680023" lon="-156.8869685">
  <ele>202.91</ele>
  <time>2026-09-01T20:02:41Z</time>
  <course>348.09</course>
  <speed>0.10816653826391968</speed>
  <fix>3d</fix>
</trkpt>
<trkpt lat="21.1680025" lon="-156.8869686">
  <ele>203.29</ele>
  <time>2026-09-01T20:02:41Z</time>
  <course>155.87</course>
  <speed>0.1</speed>
  <fix>3d</fix>
</trkpt>
<trkpt lat="21.1680022" lon="-156.8869684">
  <ele>202.8</ele>
  <time>2026-09-01T20:02:41Z</time>
  <course>347.99</course>
  <speed>0.1</speed>
  <fix>3d</fix>
</trkpt>
<trkpt lat="21.1680025" lon="-156.8869686">
  <ele>203.29</ele>
  <time>2026-09-01T20:02:41Z</time>
  <course>155.87</course>
  <speed>0.1</speed>
  <fix>3d</fix>
</trkpt>
<trkpt lat="21.1680022" lon="-156.8869684">
  <ele>202.68</ele>
  <time>2026-09-01T20:02:41Z</time>
  <course>347.91</course>
  <speed>0.1</speed>
  <fix>3d</fix>
</trkpt>
<trkpt lat="21.1680023" lon="-156.8869685">
  <ele>203.06</ele>
  <time>2026-09-01T20:02:41Z</time>
  <course>154.02</course>
  <speed>0.1</speed>
  <fix>3d</fix>
</trkpt>
<trkpt lat="21.1680021" lon="-156.8869683">
  <ele>202.57</ele>
  <time>2026-09-01T20:02:41Z</time>
  <course>347.86</course>
  <speed>0.1</speed>
  <fix>3d</fix>
</trkpt>
<trkpt lat="21.1680023" lon="-156.8869685">
  <ele>203.06</ele>
  <time>2026-09-01T20:02:41Z</time>
  <course>154.02</course>
  <speed>0.1</speed>
  <fix>3d</fix>
</trkpt>
<trkpt lat="21.168002" lon="-156.8869683">
  <ele>202.45</ele>
  <time>2026-09-01T20:02:41Z</time>
  <course>347.81</course>
  <speed>0.09219544457292887</speed>
  <fix>3d</fix>
</trkpt>
<trkpt lat="21.1680021" lon="-156.8869685">
  <ele>202.83</ele>
  <time>2026-09-01T20:02:41Z</time>
  <course>151.79</course>
  <speed>0.09</speed>
  <fix>3d</fix>
</trkpt>
<trkpt lat="21.168002" lon="-156.8869682">
  <ele>202.34</ele>
  <time>2026-09-01T20:02:41Z</time>
  <course>347.78</course>
  <speed>0.09219544457292887</speed>
  <fix>3d</fix>
</trkpt>
<trkpt lat="21.1680021" lon="-156.8869685">
  <ele>202.83</ele>
  <time>2026-09-01T20:02:41Z</time>
  <course>151.79</course>
  <speed>0.09</speed>
  <fix>3d</fix>
</trkpt>
<trkpt lat="21.1680019" lon="-156.8869682">
  <ele>202.22</ele>
  <time>2026-09-01T20:02:41Z</time>
  <course>347.77</course>
  <speed>0.0848528137423857</speed>
  <fix>3d</fix>
</trkpt>
<trkpt lat="21.168002" lon="-156.8869684">
  <ele>202.6</ele>
  <time>2026-09-01T20:02:41Z</time>
  <course>149.13</course>
  <speed>0.08</speed>
  <fix>3d</fix>
</trkpt>
<trkpt lat="21.1680019" lon="-156.8869682">
  <ele>202.11</ele>
  <time>2026-09-01T20:02:41Z</time>
  <course>347.77</course>
  <speed>0.07810249675906654</speed>
  <fix>3d</fix>
</trkpt>
<trkpt lat="21.168002" lon="-156.8869684">
  <ele>202.6</ele>
  <time>2026-09-01T20:02:41Z</time>
  <course>149.13</course>
  <speed>0.08</speed>
  <fix>3d</fix>
</trkpt>
<trkpt lat="21.1680018" lon="-156.8869681">
  <ele>201.99</ele>
  <time>2026-09-01T20:02:41Z</time>
  <course>347.79</course>
  <speed>0.07071067811865475</speed>
  <fix>3d</fix>
</trkpt>
<trkpt lat="21.1680019" lon="-156.8869683">
  <ele>202.37</ele>
  <time>2026-09-01T20:02:41Z</time>
  <course>146.69</course>
  <speed>0.07</speed>
  <fix>3d</fix>
</trkpt>
<trkpt lat="21.1680018" lon="-156.8869681">
  <ele>201.88</ele>
  <time>2026-09-01T20:02:41Z</time>
  <course>347.82</course>
  <speed>0.07071067811865475</speed>
  <fix>3d</fix>
</trkpt>
<trkpt lat="21.1680019" lon="-156.8869683">
  <ele>202.37</ele>
  <time>2026-09-01T20:02:41Z</time>
  <course>146.69</course>
  <speed>0.07</speed>
  <fix>3d</fix>
</trkpt>
<trkpt lat="21.1680017" lon="-156.8869681">
  <ele>201.77</ele>
  <time>2026-09-01T20:02:41Z</time>
  <course>347.88</course>
  <speed>0.0565685424949238</speed>
  <fix>3d</fix>
</trkpt>
<trkpt lat="21.1680018" lon="-156.8869682">
  <ele>202.14</ele>
  <time>2026-09-01T20:02:41Z</time>
  <course>146.17</course>
  <speed>0.06</speed>
  <fix>3d</fix>
</trkpt>
<trkpt lat="21.1680017" lon="-156.886968">
  <ele>201.65</ele>
  <time>2026-09-01T20:02:41Z</time>
  <course>347.96</course>
  <speed>0.05</speed>
  <fix>3d</fix>
</trkpt>
<trkpt lat="21.1680018" lon="-156.8869682">
  <ele>202.14</ele>
  <time>2026-09-01T20:02:41Z</time>
  <course>146.17</course>
  <speed>0.06</speed>
  <fix>3d</fix>
</trkpt>
<trkpt lat="21.1680016" lon="-156.886968">
  <ele>201.53</ele>
  <time>2026-09-01T20:02:41Z</time>
  <course>348.06</course>
  <speed>0.05</speed>
  <fix>3d</fix>
</trkpt>
<trkpt lat="21.1680017" lon="-156.8869681">
  <ele>201.91</ele>
  <time>2026-09-01T20:02:41Z</time>
  <course>149.95</course>
  <speed>0.05</speed>
  <fix>3d</fix>
</trkpt>
<trkpt lat="21.1680016" lon="-156.886968">
  <ele>201.42</ele>
  <time>2026-09-01T20:02:41Z</time>
  <course>348.2</course>
  <speed>0.044721359549995794</speed>
  <fix>3d</fix>
</trkpt>
<trkpt lat="21.1680017" lon="-156.8869681">
  <ele>201.91</ele>
  <time>2026-09-01T20:02:41Z</time>
  <course>149.95</course>
  <speed>0.05</speed>
  <fix>3d</fix>
</trkpt>
<trkpt lat="21.1680016" lon="-156.886968">
  <ele>201.3</ele>
  <time>2026-09-01T20:02:41Z</time>
  <course>348.36</course>
  <speed>0.03</speed>
  <fix>3d</fix>
</trkpt>
<trkpt lat="21.1680016" lon="-156.8869681">
  <ele>201.68</ele>
  <time>2026-09-01T20:02:41Z</time>
  <course>164.6</course>
  <speed>0.04</speed>
  <fix>3d</fix>
</trkpt>
<trkpt lat="21.1680015" lon="-156.886968">
  <ele>201.18</ele>
  <time>2026-09-01T20:02:41Z</time>
  <course>348.54</course>
  <speed>0.03</speed>
  <fix>3d</fix>
</trkpt>
<trkpt lat="21.1680016" lon="-156.8869681">
  <ele>201.68</ele>
  <time>2026-09-01T20:02:41Z</time>
  <course>164.6</course>
  <speed>0.04</speed>
  <fix>3d</fix>
</trkpt>
<trkpt lat="21.1680015" lon="-156.886968">
  <ele>201.07</ele>
  <time>2026-09-01T20:02:41Z</time>
  <course>348.73</course>
  <speed>0.0316227766016838</speed>
  <fix>3d</fix>
</trkpt>
<trkpt lat="21.1680016" lon="-156.8869681">
  <ele>201.45</ele>
  <time>2026-09-01T20:02:41Z</time>
  <course>198.05</course>
  <speed>0.03</speed>
  <fix>3d</fix>
</trkpt>
<trkpt lat="21.1680015" lon="-156.8869681">
  <ele>200.95</ele>
  <time>2026-09-01T20:02:41Z</time>
  <course>348.91</course>
  <speed>0.03605551275463989</speed>
  <fix>3d</fix>
</trkpt>
<trkpt lat="21.1680016" lon="-156.8869681">
  <ele>201.45</ele>
  <time>2026-09-01T20:02:41Z</time>
  <course>198.05</course>
  <speed>0.03</speed>
  <fix>3d</fix>
</trkpt>
<trkpt lat="21.1680015" lon="-156.8869681">
  <ele>200.83</ele>
  <time>2026-09-01T20:02:41Z</time>
  <course>349.07</course>
  <speed>0.05</speed>
  <fix>3d</fix>
</trkpt>
<trkpt lat="21.1680015" lon="-156.8869681">
  <ele>201.22</ele>
  <time>2026-09-01T20:02:41Z</time>
  <course>229.91</course>
  <speed>0.04</speed>
  <fix>3d</fix>
</trkpt>
<trkpt lat="21.1680014" lon="-156.8869681">
  <ele>200.72</ele>
  <time>2026-09-01T20:02:41Z</time>
  <course>349.2</course>
  <speed>0.05830951894845301</speed>
  <fix>3d</fix>
</trkpt>
<trkpt lat="21.1680015" lon="-156.8869681">
  <ele>201.22</ele>
  <time>2026-09-01T20:02:41Z</time>
  <course>229.91</course>
  <speed>0.04</speed>
  <fix>3d</fix>
</trkpt>
<trkpt lat="21.1680014" lon="-156.8869682">
  <ele>200.6</ele>
  <time>2026-09-01T20:02:41Z</time>
  <course>349.29</course>
  <speed>0.0670820393249937</speed>
  <fix>3d</fix>
</trkpt>
<trkpt lat="21.1680015" lon="-156.8869682">
  <ele>200.99</ele>
  <time>2026-09-01T20:02:41Z</time>
  <course>245.91</course>
  <speed>0.07</speed>
  <fix>3d</fix>
</trkpt>
<trkpt lat="21.1680014" lon="-156.8869682">
  <ele>200.49</ele>
  <time>2026-09-01T20:02:41Z</time>
  <course>349.36</course>
  <speed>0.0854400374531753</speed>
  <fix>3d</fix>
</trkpt>
<trkpt lat="21.1680015" lon="-156.8869682">
  <ele>200.99</ele>
  <time>2026-09-01T20:02:41Z</time>
  <course>245.91</course>
  <speed>0.07</speed>
  <fix>3d</fix>
</trkpt>
<trkpt lat="21.1680014" lon="-156.8869683">
  <ele>200.38</ele>
  <time>2026-09-01T20:02:41Z</time>
  <course>349.4</course>
  <speed>0.09486832980505139</speed>
  <fix>3d</fix>
</trkpt>
<trkpt lat="21.1680014" lon="-156.8869683">
  <ele>200.76</ele>
  <time>2026-09-01T20:02:41Z</time>
  <course>253.69</course>
  <speed>0.09</speed>
  <fix>3d</fix>
</trkpt>
<trkpt lat="21.1680013" lon="-156.8869684">
  <ele>200.27</ele>
  <time>2026-09-01T20:02:41Z</time>
  <course>349.42</course>
  <speed>0.1019803902718557</speed>
  <fix>3d</fix>
</trkpt>
<trkpt lat="21.1680014" lon="-156.8869683">
  <ele>200.76</ele>
  <time>2026-09-01T20:02:41Z</time>
  <course>253.69</course>
  <speed>0.09</speed>
  <fix>3d</fix>
</trkpt>
<trkpt lat="21.1680013" lon="-156.8869686">
  <ele>200.15</ele>
  <time>2026-09-01T20:02:41Z</time>
  <course>349.42</course>
  <speed>0.1118033988749895</speed>
  <fix>3d</fix>
</trkpt>
<trkpt lat="21.1680013" lon="-156.8869685">
  <ele>200.53</ele>
  <time>2026-09-01T20:02:41Z</time>
  <course>257.98</course>
  <speed>0.11</speed>
  <fix>3d</fix>
</trkpt>
<trkpt lat="21.1680013" lon="-156.8869687">
  <ele>200.04</ele>
  <time>2026-09-01T20:02:41Z</time>
  <course>349.41</course>
  <speed>0.12165525060596438</speed>
  <fix>3d</fix>
</trkpt>
<trkpt lat="21.1680013" lon="-156.8869685">
  <ele>200.53</ele>
  <time>2026-09-01T20:02:41Z</time>
  <course>257.98</course>
  <speed>0.11</speed>
  <fix>3d</fix>
</trkpt>
<trkpt lat="21.1680013" lon="-156.8869688">
  <ele>199.93</ele>
  <time>2026-09-01T20:02:41Z</time>
  <course>349.4</course>
  <speed>0.12165525060596438</speed>
  <fix>3d</fix>
</trkpt>
<trkpt lat="21.1680013" lon="-156.8869687">
  <ele>200.31</ele>
  <time>2026-09-01T20:02:41Z</time>
  <course>260.7</course>
  <speed>0.13</speed>
  <fix>3d</fix>
</trkpt>
<trkpt lat="21.1680013" lon="-156.886969">
  <ele>199.81</ele>
  <time>2026-09-01T20:02:41Z</time>
  <course>349.39</course>
  <speed>0.13152946437965907</speed>
  <fix>3d</fix>
</trkpt>
<trkpt lat="21.1680013" lon="-156.8869687">
  <ele>200.31</ele>
  <time>2026-09-01T20:02:41Z</time>
  <course>260.7</course>
  <speed>0.13</speed>
  <fix>3d</fix>
</trkpt>
<trkpt lat="21.1680012" lon="-156.8869691">
  <ele>199.7</ele>
  <time>2026-09-01T20:02:41Z</time>
  <course>349.38</course>
  <speed>0.1414213562373095</speed>
  <fix>3d</fix>
</trkpt>
<trkpt lat="21.1680013" lon="-156.886969">
  <ele>200.08</ele>
  <time>2026-09-01T20:02:41Z</time>
  <course>262.67</course>
  <speed>0.15</speed>
  <fix>3d</fix>
</trkpt>
<trkpt lat="21.1680012" lon="-156.8869693">
  <ele>199.59</ele>
  <time>2026-09-01T20:02:41Z</time>
  <course>349.38</course>
  <speed>0.1414213562373095</speed>
  <fix>3d</fix>
</trkpt>
<trkpt lat="21.1680013" lon="-156.886969">
  <ele>200.08</ele>
  <time>2026-09-01T20:02:41Z</time>
  <course>262.67</course>
  <speed>0.15</speed>
  <fix>3d</fix>
</trkpt>
<trkpt lat="21.1680012" lon="-156.8869694">
  <ele>199.47</ele>
  <time>2026-09-01T20:02:41Z</time>
  <course>349.38</course>
  <speed>0.15132745950421556</speed>
  <fix>3d</fix>
</trkpt>
<trkpt lat="21.1680013" lon="-156.8869693">
  <ele>199.85</ele>
  <time>2026-09-01T20:02:41Z</time>
  <course>264.41</course>
  <speed>0.16</speed>
  <fix>3d</fix>
</trkpt>
<trkpt lat="21.1680012" lon="-156.8869696">
  <ele>199.36</ele>
  <time>2026-09-01T20:02:41Z</time>
  <course>349.38</course>
  <speed>0.15033296378372907</speed>
  <fix>3d</fix>
</trkpt>
<trkpt lat="21.1680013" lon="-156.8869693">
  <ele>199.85</ele>
  <time>2026-09-01T20:02:41Z</time>
  <course>264.41</course>
  <speed>0.16</speed>
  <fix>3d</fix>
</trkpt>
<trkpt lat="21.1680012" lon="-156.8869697">
  <ele>199.24</ele>
  <time>2026-09-01T20:02:41Z</time>
  <course>349.39</course>
  <speed>0.15033296378372907</speed>
  <fix>3d</fix>
</trkpt>
<trkpt lat="21.1680012" lon="-156.8869697">
  <ele>199.62</ele>
  <time>2026-09-01T20:02:41Z</time>
  <course>266.11</course>
  <speed>0.17</speed>
  <fix>3d</fix>
</trkpt>
<trkpt lat="21.1680012" lon="-156.8869699">
  <ele>199.13</ele>
  <time>2026-09-01T20:02:41Z</time>
  <course>349.4</course>
  <speed>0.15033296378372907</speed>
  <fix>3d</fix>
</trkpt>
<trkpt lat="21.1680012" lon="-156.8869697">
  <ele>199.62</ele>
  <time>2026-09-01T20:02:41Z</time>
  <course>266.11</course>
  <speed>0.17</speed>
  <fix>3d</fix>
</trkpt>
<trkpt lat="21.1680012" lon="-156.8869701">
  <ele>199.01</ele>
  <time>2026-09-01T20:02:41Z</time>
  <course>349.41</course>
  <speed>0.15033296378372907</speed>
  <fix>3d</fix>
</trkpt>
<trkpt lat="21.1680012" lon="-156.88697">
  <ele>199.39</ele>
  <time>2026-09-01T20:02:41Z</time>
  <course>267.74</course>
  <speed>0.18</speed>
  <fix>3d</fix>
</trkpt>
<trkpt lat="21.1680012" lon="-156.8869703">
  <ele>198.9</ele>
  <time>2026-09-01T20:02:41Z</time>
  <course>349.43</course>
  <speed>0.15033296378372907</speed>
  <fix>3d</fix>
</trkpt>
<trkpt lat="21.1680012" lon="-156.88697">
  <ele>199.39</ele>
  <time>2026-09-01T20:02:41Z</time>
  <course>267.74</course>
  <speed>0.18</speed>
  <fix>3d</fix>
</trkpt>
<trkpt lat="21.1680012" lon="-156.8869704">
  <ele>198.78</ele>
  <time>2026-09-01T20:02:41Z</time>
  <course>349.45</course>
  <speed>0.15</speed>
  <fix>3d</fix>
</trkpt>
<trkpt lat="21.1680012" lon="-156.8869704">
  <ele>199.16</ele>
  <time>2026-09-01T20:02:41Z</time>
  <course>269.2</course>
  <speed>0.18</speed>
  <fix>3d</fix>
</trkpt>
<trkpt lat="21.1680012" lon="-156.8869706">
  <ele>198.67</ele>
  <time>2026-09-01T20:02:41Z</time>
  <course>349.47</course>
  <speed>0.15</speed>
  <fix>3d</fix>
</trkpt>
<trkpt lat="21.1680012" lon="-156.8869704">
  <ele>199.16</ele>
  <time>2026-09-01T20:02:41Z</time>
  <course>269.2</course>
  <speed>0.18</speed>
  <fix>3d</fix>
</trkpt>
<trkpt lat="21.1680012" lon="-156.8869708">
  <ele>198.55</ele>
  <time>2026-09-01T20:02:41Z</time>
  <course>349.49</course>
  <speed>0.14</speed>
  <fix>3d</fix>
</trkpt>
<trkpt lat="21.1680012" lon="-156.8869707">
  <ele>198.93</ele>
  <time>2026-09-01T20:02:41Z</time>
  <course>270.53</course>
  <speed>0.18</speed>
  <fix>3d</fix>
</trkpt>
<trkpt lat="21.1680012" lon="-156.8869709">
  <ele>198.44</ele>
  <time>2026-09-01T20:02:41Z</time>
  <course>349.51</course>
  <speed>0.14</speed>
  <fix>3d</fix>
</trkpt>
<trkpt lat="21.1680012" lon="-156.8869707">
  <ele>198.93</ele>
  <time>2026-09-01T20:02:41Z</time>
  <course>270.53</course>
  <speed>0.18</speed>
  <fix>3d</fix>
</trkpt>
<trkpt lat="21.1680012" lon="-156.8869711">
  <ele>198.32</ele>
  <time>2026-09-01T20:02:41Z</time>
  <course>349.52</course>
  <speed>0.13</speed>
  <fix>3d</fix>
</trkpt>
<trkpt lat="21.1680012" lon="-156.886971">
  <ele>198.7</ele>
  <time>2026-09-01T20:02:41Z</time>
  <course>271.81</course>
  <speed>0.17</speed>
  <fix>3d</fix>
</trkpt>
<trkpt lat="21.1680012" lon="-156.8869712">
  <ele>198.21</ele>
  <time>2026-09-01T20:02:41Z</time>
  <course>349.53</course>
  <speed>0.13</speed>
  <fix>3d</fix>
</trkpt>
<trkpt lat="21.1680012" lon="-156.886971">
  <ele>198.7</ele>
  <time>2026-09-01T20:02:41Z</time>
  <course>271.81</course>
  <speed>0.17</speed>
  <fix>3d</fix>
</trkpt>
<trkpt lat="21.1680012" lon="-156.8869714">
  <ele>198.09</ele>
  <time>2026-09-01T20:02:41Z</time>
  <course>349.54</course>
  <speed>0.12</speed>
  <fix>3d</fix>
</trkpt>
<trkpt lat="21.1680012" lon="-156.8869714">
  <ele>198.46</ele>
  <time>2026-09-01T20:02:41Z</time>
  <course>273.18</course>
  <speed>0.16</speed>
  <fix>3d</fix>
</trkpt>
<trkpt lat="21.1680012" lon="-156.8869715">
  <ele>197.97</ele>
  <time>2026-09-01T20:02:41Z</time>
  <course>349.55</course>
  <speed>0.12</speed>
  <fix>3d</fix>
</trkpt>
<trkpt lat="21.1680012" lon="-156.8869714">
  <ele>198.46</ele>
  <time>2026-09-01T20:02:41Z</time>
  <course>273.18</course>
  <speed>0.16</speed>
  <fix>3d</fix>
</trkpt>
<trkpt lat="21.1680012" lon="-156.8869717">
  <ele>197.85</ele>
  <time>2026-09-01T20:02:41Z</time>
  <course>349.56</course>
  <speed>0.11</speed>
  <fix>3d</fix>
</trkpt>
<trkpt lat="21.1680012" lon="-156.8869717">
  <ele>198.23</ele>
  <time>2026-09-01T20:02:41Z</time>
  <course>274.87</course>
  <speed>0.15</speed>
  <fix>3d</fix>
</trkpt>
<trkpt lat="21.1680012" lon="-156.8869718">
  <ele>197.74</ele>
  <time>2026-09-01T20:02:41Z</time>
  <course>349.57</course>
  <speed>0.1</speed>
  <fix>3d</fix>
</trkpt>
<trkpt lat="21.1680012" lon="-156.8869717">
  <ele>198.23</ele>
  <time>2026-09-01T20:02:41Z</time>
  <course>274.87</course>
  <speed>0.15</speed>
  <fix>3d</fix>
</trkpt>
<trkpt lat="21.1680012" lon="-156.8869719">
  <ele>197.62</ele>
  <time>2026-09-01T20:02:42Z</time>
  <course>349.59</course>
  <speed>0.09</speed>
  <fix>3d</fix>
</trkpt>
<trkpt lat="21.1680012" lon="-156.886972">
  <ele>198.0</ele>
  <time>2026-09-01T20:02:42Z</time>
  <course>277.07</course>
  <speed>0.14</speed>
  <fix>3d</fix>
</trkpt>
<trkpt lat="21.1680012" lon="-156.886972">
  <ele>197.51</ele>
  <time>2026-09-01T20:02:42Z</time>
  <course>349.63</course>
  <speed>0.08</speed>
  <fix>3d</fix>
</trkpt>
<trkpt lat="21.1680012" lon="-156.886972">
  <ele>198.0</ele>
  <time>2026-09-01T20:02:42Z</time>
  <course>277.07</course>
  <speed>0.14</speed>
  <fix>3d</fix>
</trkpt>
<trkpt lat="21.1680012" lon="-156.8869721">
  <ele>197.39</ele>
  <time>2026-09-01T20:02:42Z</time>
  <course>349.66</course>
  <speed>0.08</speed>
  <fix>3d</fix>
</trkpt>
<trkpt lat="21.1680012" lon="-156.8869723">
  <ele>197.77</ele>
  <time>2026-09-01T20:02:42Z</time>
  <course>279.98</course>
  <speed>0.12</speed>
  <fix>3d</fix>
</trkpt>
<trkpt lat="21.1680012" lon="-156.8869722">
  <ele>197.28</ele>
  <time>2026-09-01T20:02:42Z</time>
  <course>349.69</course>
  <speed>0.07071067811865475</speed>
  <fix>3d</fix>
</trkpt>
<trkpt lat="21.1680012" lon="-156.8869723">
  <ele>197.77</ele>
  <time>2026-09-01T20:02:42Z</time>
  <course>279.98</course>
  <speed>0.12</speed>
  <fix>3d</fix>
</trkpt>
<trkpt lat="21.1680012" lon="-156.8869723">
  <ele>197.16</ele>
  <time>2026-09-01T20:02:42Z</time>
  <course>349.72</course>
  <speed>0.06082762530298219</speed>
  <fix>3d</fix>
</trkpt>
<trkpt lat="21.1680012" lon="-156.8869725">
  <ele>197.54</ele>
  <time>2026-09-01T20:02:42Z</time>
  <course>283.68</course>
  <speed>0.11</speed>
  <fix>3d</fix>
</trkpt>
<trkpt lat="21.1680012" lon="-156.8869724">
  <ele>197.05</ele>
  <time>2026-09-01T20:02:42Z</time>
  <course>349.76</course>
  <speed>0.05099019513592785</speed>
  <fix>3d</fix>
</trkpt>
<trkpt lat="21.1680012" lon="-156.8869725">
  <ele>197.54</ele>
  <time>2026-09-01T20:02:42Z</time>
  <course>283.68</course>
  <speed>0.11</speed>
  <fix>3d</fix>
</trkpt>
<trkpt lat="21.1680012" lon="-156.8869725">
  <ele>196.94</ele>
  <time>2026-09-01T20:02:42Z</time>
  <course>349.8</course>
  <speed>0.0412310562561766</speed>
  <fix>3d</fix>
</trkpt>
<trkpt lat="21.1680013" lon="-156.8869727">
  <ele>197.31</ele>
  <time>2026-09-01T20:02:42Z</time>
  <course>288.27</course>
  <speed>0.09</speed>
  <fix>3d</fix>
</trkpt>
<trkpt lat="21.1680012" lon="-156.8869726">
  <ele>196.83</ele>
  <time>2026-09-01T20:02:42Z</time>
  <course>349.84</course>
  <speed>0.0316227766016838</speed>
  <fix>3d</fix>
</trkpt>
<trkpt lat="21.1680013" lon="-156.8869727">
  <ele>197.31</ele>
  <time>2026-09-01T20:02:42Z</time>
  <course>288.27</course>
  <speed>0.09</speed>
  <fix>3d</fix>
</trkpt>
<trkpt lat="21.1680013" lon="-156.8869726">
  <ele>196.71</ele>
  <time>2026-09-01T20:02:42Z</time>
  <course>349.89</course>
  <speed>0.0316227766016838</speed>
  <fix>3d</fix>
</trkpt>
<trkpt lat="21.1680013" lon="-156.8869728">
  <ele>197.09</ele>
  <time>2026-09-01T20:02:42Z</time>
  <course>294.24</course>
  <speed>0.08</speed>
  <fix>3d</fix>
</trkpt>
<trkpt lat="21.1680013" lon="-156.8869727">
  <ele>196.6</ele>
  <time>2026-09-01T20:02:42Z</time>
  <course>349.94</course>
  <speed>0.022360679774997897</speed>
  <fix>3d</fix>
</trkpt>
<trkpt lat="21.1680013" lon="-156.8869728">
  <ele>197.09</ele>
  <time>2026-09-01T20:02:42Z</time>
  <course>294.24</course>
  <speed>0.08</speed>
  <fix>3d</fix>
</trkpt>
<trkpt lat="21.1680013" lon="-156.8869727">
  <ele>196.48</ele>
  <time>2026-09-01T20:02:42Z</time>
  <course>349.99</course>
  <speed>0.01414213562373095</speed>
  <fix>3d</fix>
</trkpt>
<trkpt lat="21.1680014" lon="-156.886973">
  <ele>196.86</ele>
  <time>2026-09-01T20:02:42Z</time>
  <course>302.14</course>
  <speed>0.06</speed>
  <fix>3d</fix>
</trkpt>
<trkpt lat="21.1680013" lon="-156.8869728">
  <ele>196.37</ele>
  <time>2026-09-01T20:02:42Z</time>
  <course>350.06</course>
  <speed>0.01414213562373095</speed>
  <fix>3d</fix>
</trkpt>
<trkpt lat="21.1680014" lon="-156.886973">
  <ele>196.86</ele>
  <time>2026-09-01T20:02:42Z</time>
  <course>302.14</course>
  <speed>0.06</speed>
  <fix>3d</fix>
</trkpt>
<trkpt lat="21.1680014" lon="-156.8869728">
  <ele>196.25</ele>
  <time>2026-09-01T20:02:42Z</time>
  <course>350.12</course>
  <speed>0.01</speed>
  <fix>3d</fix>
</trkpt>
<trkpt lat="21.1680015" lon="-156.8869731">
  <ele>196.63</ele>
  <time>2026-09-01T20:02:42Z</time>
  <course>311.9</course>
  <speed>0.05</speed>
  <fix>3d</fix>
</trkpt>
<trkpt lat="21.1680014" lon="-156.8869729">
  <ele>196.14</ele>
  <time>2026-09-01T20:02:42Z</time>
  <course>350.2</course>
  <speed>0.01</speed>
  <fix>3d</fix>
</trkpt>
<trkpt lat="21.1680015" lon="-156.8869731">
  <ele>196.63</ele>
  <time>2026-09-01T20:02:42Z</time>
  <course>311.9</course>
  <speed>0.05</speed>
  <fix>3d</fix>
</trkpt>
<trkpt lat="21.1680014" lon="-156.8869729">
  <ele>196.03</ele>
  <time>2026-09-01T20:02:42Z</time>
  <course>350.28</course>
  <speed>0.01</speed>
  <fix>3d</fix>
</trkpt>
<trkpt lat="21.1680015" lon="-156.8869731">
  <ele>196.4</ele>
  <time>2026-09-01T20:02:42Z</time>
  <course>322.94</course>
  <speed>0.04</speed>
  <fix>3d</fix>
</trkpt>
<trkpt lat="21.1680014" lon="-156.8869729">
  <ele>195.91</ele>
  <time>2026-09-01T20:02:42Z</time>
  <course>350.37</course>
  <speed>0.01</speed>
  <fix>3d</fix>
</trkpt>
<trkpt lat="21.1680015" lon="-156.8869731">
  <ele>196.4</ele>
  <time>2026-09-01T20:02:42Z</time>
  <course>322.94</course>
  <speed>0.04</speed>
  <fix>3d</fix>
</trkpt>
<trkpt lat="21.1680015" lon="-156.8869729">
  <ele>195.8</ele>
  <time>2026-09-01T20:02:42Z</time>
  <course>350.47</course>
  <speed>0.01414213562373095</speed>
  <fix>3d</fix>
</trkpt>
<trkpt lat="21.1680016" lon="-156.8869732">
  <ele>196.17</ele>
  <time>2026-09-01T20:02:42Z</time>
  <course>333.95</course>
  <speed>0.04</speed>
  <fix>3d</fix>
</trkpt>
<trkpt lat="21.1680015" lon="-156.8869729">
  <ele>195.68</ele>
  <time>2026-09-01T20:02:42Z</time>
  <course>350.56</course>
  <speed>0.01414213562373095</speed>
  <fix>3d</fix>
</trkpt>
<trkpt lat="21.1680016" lon="-156.8869732">
  <ele>196.17</ele>
  <time>2026-09-01T20:02:42Z</time>
  <course>333.95</course>
  <speed>0.04</speed>
  <fix>3d</fix>
</trkpt>
<trkpt lat="21.1680015" lon="-156.8869729">
  <ele>195.57</ele>
  <time>2026-09-01T20:02:42Z</time>
  <course>350.65</course>
  <speed>0.01414213562373095</speed>
  <fix>3d</fix>
</trkpt>
<trkpt lat="21.1680017" lon="-156.8869732">
  <ele>195.94</ele>
  <time>2026-09-01T20:02:42Z</time>
  <course>343.82</course>
  <speed>0.04</speed>
  <fix>3d</fix>
</trkpt>
<trkpt lat="21.1680016" lon="-156.8869729">
  <ele>195.45</ele>
  <time>2026-09-01T20:02:42Z</time>
  <course>350.73</course>
  <speed>0.01414213562373095</speed>
  <fix>3d</fix>
</trkpt>
<trkpt lat="21.1680017" lon="-156.8869732">
  <ele>195.94</ele>
  <time>2026-09-01T20:02:42Z</time>
  <course>343.82</course>
  <speed>0.04</speed>
  <fix>3d</fix>
</trkpt>
<trkpt lat="21.1680016" lon="-156.886973">
  <ele>195.34</ele>
  <time>2026-09-01T20:02:42Z</time>
  <course>350.81</course>
  <speed>0.022360679774997897</speed>
  <fix>3d</fix>
</trkpt>
<trkpt lat="21.1680018" lon="-156.8869733">
  <ele>195.71</ele>
  <time>2026-09-01T20:02:42Z</time>
  <course>352.08</course>
  <speed>0.03</speed>
  <fix>3d</fix>
</trkpt>
<trkpt lat="21.1680016" lon="-156.886973">
  <ele>195.22</ele>
  <time>2026-09-01T20:02:42Z</time>
  <course>350.87</course>
  <speed>0.022360679774997897</speed>
  <fix>3d</fix>
</trkpt>
<trkpt lat="21.1680018" lon="-156.8869733">
  <ele>195.71</ele>
  <time>2026-09-01T20:02:42Z</time>
  <course>352.08</course>
  <speed>0.03</speed>
  <fix>3d</fix>
</trkpt>
<trkpt lat="21.1680017" lon="-156.886973">
  <ele>195.1</ele>
  <time>2026-09-01T20:02:42Z</time>
  <course>350.93</course>
  <speed>0.022360679774997897</speed>
  <fix>3d</fix>
</trkpt>
<trkpt lat="21.1680018" lon="-156.8869733">
  <ele>195.48</ele>
  <time>2026-09-01T20:02:42Z</time>
  <course>358.83</course>
  <speed>0.03</speed>
  <fix>3d</fix>
</trkpt>
<trkpt lat="21.1680017" lon="-156.886973">
  <ele>194.99</ele>
  <time>2026-09-01T20:02:42Z</time>
  <course>350.97</course>
  <speed>0.022360679774997897</speed>
  <fix>3d</fix>
</trkpt>
<trkpt lat="21.1680018" lon="-156.8869733">
  <ele>195.48</ele>
  <time>2026-09-01T20:02:42Z</time>
  <course>358.83</course>
  <speed>0.03</speed>
  <fix>3d</fix>
</trkpt>
<trkpt lat="21.1680017" lon="-156.886973">
  <ele>194.88</ele>
  <time>2026-09-01T20:02:42Z</time>
  <course>351.01</course>
  <speed>0.022360679774997897</speed>
  <fix>3d</fix>
</trkpt>
<trkpt lat="21.1680019" lon="-156.8869733">
  <ele>195.24</ele>
  <time>2026-09-01T20:02:42Z</time>
  <course>4.65</course>
  <speed>0.03</speed>
  <fix>3d</fix>
</trkpt>
<trkpt lat="21.1680017" lon="-156.886973">
  <ele>194.76</ele>
  <time>2026-09-01T20:02:42Z</time>
  <course>351.05</course>
  <speed>0.02</speed>
  <fix>3d</fix>
</trkpt>
<trkpt lat="21.1680019" lon="-156.8869733">
  <ele>195.24</ele>
  <time>2026-09-01T20:02:42Z</time>
  <course>4.65</course>
  <speed>0.03</speed>
  <fix>3d</fix>
</trkpt>
<trkpt lat="21.1680018" lon="-156.886973">
  <ele>194.65</ele>
  <time>2026-09-01T20:02:42Z</time>
  <course>351.08</course>
  <speed>0.02</speed>
  <fix>3d</fix>
</trkpt>
<trkpt lat="21.1680019" lon="-156.8869733">
  <ele>195.01</ele>
  <time>2026-09-01T20:02:42Z</time>
  <course>9.73</course>
  <speed>0.03</speed>
  <fix>3d</fix>
</trkpt>
<trkpt lat="21.1680018" lon="-156.886973">
  <ele>194.54</ele>
  <time>2026-09-01T20:02:42Z</time>
  <course>351.11</course>
  <speed>0.02</speed>
  <fix>3d</fix>
</trkpt>
<trkpt lat="21.1680019" lon="-156.8869733">
  <ele>195.01</ele>
  <time>2026-09-01T20:02:42Z</time>
  <course>9.73</course>
  <speed>0.03</speed>
  <fix>3d</fix>
</trkpt>
<trkpt lat="21.1680018" lon="-156.886973">
  <ele>194.42</ele>
  <time>2026-09-01T20:02:42Z</time>
  <course>351.13</course>
  <speed>0.02</speed>
  <fix>3d</fix>
</trkpt>
<trkpt lat="21.168002" lon="-156.8869733">
  <ele>194.78</ele>
  <time>2026-09-01T20:02:42Z</time>
  <course>14.05</course>
  <speed>0.03</speed>
  <fix>3d</fix>
</trkpt>
<trkpt lat="21.1680018" lon="-156.886973">
  <ele>194.31</ele>
  <time>2026-09-01T20:02:42Z</time>
  <course>351.15</course>
  <speed>0.02</speed>
  <fix>3d</fix>
</trkpt>
<trkpt lat="21.168002" lon="-156.8869733">
  <ele>194.78</ele>
  <time>2026-09-01T20:02:42Z</time>
  <course>14.05</course>
  <speed>0.03</speed>
  <fix>3d</fix>
</trkpt>
<trkpt lat="21.1680019" lon="-156.886973">
  <ele>194.19</ele>
  <time>2026-09-01T20:02:42Z</time>
  <course>351.18</course>
  <speed>0.02</speed>
  <fix>3d</fix>
</trkpt>
<trkpt lat="21.1680021" lon="-156.8869733">
  <ele>194.55</ele>
  <time>2026-09-01T20:02:42Z</time>
  <course>18.28</course>
  <speed>0.03</speed>
  <fix>3d</fix>
</trkpt>
<trkpt lat="21.1680019" lon="-156.886973">
  <ele>194.07</ele>
  <time>2026-09-01T20:02:42Z</time>
  <course>351.21</course>
  <speed>0.02</speed>
  <fix>3d</fix>
</trkpt>
<trkpt lat="21.1680021" lon="-156.8869733">
  <ele>194.55</ele>
  <time>2026-09-01T20:02:42Z</time>
  <course>18.28</course>
  <speed>0.03</speed>
  <fix>3d</fix>
</trkpt>
<trkpt lat="21.1680019" lon="-156.886973">
  <ele>193.96</ele>
  <time>2026-09-01T20:02:42Z</time>
  <course>351.24</course>
  <speed>0.02</speed>
  <fix>3d</fix>
</trkpt>
<trkpt lat="21.1680021" lon="-156.8869733">
  <ele>194.32</ele>
  <time>2026-09-01T20:02:42Z</time>
  <course>22.63</course>
  <speed>0.02</speed>
  <fix>3d</fix>
</trkpt>
<trkpt lat="21.1680019" lon="-156.886973">
  <ele>193.85</ele>
  <time>2026-09-01T20:02:42Z</time>
  <course>351.28</course>
  <speed>0.02</speed>
  <fix>3d</fix>
</trkpt>
<trkpt lat="21.1680021" lon="-156.8869733">
  <ele>194.32</ele>
  <time>2026-09-01T20:02:42Z</time>
  <course>22.63</course>
  <speed>0.02</speed>
  <fix>3d</fix>
</trkpt>
<trkpt lat="21.168002" lon="-156.886973">
  <ele>193.73</ele>
  <time>2026-09-01T20:02:42Z</time>
  <course>351.31</course>
  <speed>0.02</speed>
  <fix>3d</fix>
</trkpt>
<trkpt lat="21.1680022" lon="-156.8869733">
  <ele>194.09</ele>
  <time>2026-09-01T20:02:42Z</time>
  <course>27.19</course>
  <speed>0.02</speed>
  <fix>3d</fix>
</trkpt>
<trkpt lat="21.168002" lon="-156.886973">
  <ele>193.62</ele>
  <time>2026-09-01T20:02:42Z</time>
  <course>351.35</course>
  <speed>0.02</speed>
  <fix>3d</fix>
</trkpt>
<trkpt lat="21.1680022" lon="-156.8869733">
  <ele>194.09</ele>
  <time>2026-09-01T20:02:42Z</time>
  <course>27.19</course>
  <speed>0.02</speed>
  <fix>3d</fix>
</trkpt>
<trkpt lat="21.168002" lon="-156.886973">
  <ele>193.5</ele>
  <time>2026-09-01T20:02:42Z</time>
  <course>351.38</course>
  <speed>0.02</speed>
  <fix>3d</fix>
</trkpt>
<trkpt lat="21.1680022" lon="-156.8869732">
  <ele>193.86</ele>
  <time>2026-09-01T20:02:42Z</time>
  <course>31.83</course>
  <speed>0.02</speed>
  <fix>3d</fix>
</trkpt>
<trkpt lat="21.168002" lon="-156.886973">
  <ele>193.39</ele>
  <time>2026-09-01T20:02:42Z</time>
  <course>351.4</course>
  <speed>0.02</speed>
  <fix>3d</fix>
</trkpt>
<trkpt lat="21.1680022" lon="-156.8869732">
  <ele>193.86</ele>
  <time>2026-09-01T20:02:42Z</time>
  <course>31.83</course>
  <speed>0.02</speed>
  <fix>3d</fix>
</trkpt>
<trkpt lat="21.168002" lon="-156.886973">
  <ele>193.27</ele>
  <time>2026-09-01T20:02:42Z</time>
  <course>351.43</course>
  <speed>0.02</speed>
  <fix>3d</fix>
</trkpt>
<trkpt lat="21.1680022" lon="-156.8869732">
  <ele>193.62</ele>
  <time>2026-09-01T20:02:42Z</time>
  <course>36.33</course>
  <speed>0.02</speed>
  <fix>3d</fix>
</trkpt>
<trkpt lat="21.168002" lon="-156.886973">
  <ele>193.16</ele>
  <time>2026-09-01T20:02:42Z</time>
  <course>351.45</course>
  <speed>0.03</speed>
  <fix>3d</fix>
</trkpt>
<trkpt lat="21.1680022" lon="-156.8869732">
  <ele>193.62</ele>
  <time>2026-09-01T20:02:42Z</time>
  <course>36.33</course>
  <speed>0.02</speed>
  <fix>3d</fix>
</trkpt>
<trkpt lat="21.1680021" lon="-156.886973">
  <ele>193.04</ele>
  <time>2026-09-01T20:02:42Z</time>
  <course>351.47</course>
  <speed>0.03</speed>
  <fix>3d</fix>
</trkpt>
<trkpt lat="21.1680022" lon="-156.8869732">
  <ele>193.39</ele>
  <time>2026-09-01T20:02:42Z</time>
  <course>41.32</course>
  <speed>0.02</speed>
  <fix>3d</fix>
</trkpt>
<trkpt lat="21.1680021" lon="-156.886973">
  <ele>192.92</ele>
  <time>2026-09-01T20:02:42Z</time>
  <course>351.5</course>
  <speed>0.03</speed>
  <fix>3d</fix>
</trkpt>
<trkpt lat="21.1680022" lon="-156.8869732">
  <ele>193.39</ele>
  <time>2026-09-01T20:02:42Z</time>
  <course>41.32</course>
  <speed>0.02</speed>
  <fix>3d</fix>
</trkpt>
<trkpt lat="21.1680021" lon="-156.886973">
  <ele>192.8</ele>
  <time>2026-09-01T20:02:42Z</time>
  <course>351.53</course>
  <speed>0.022360679774997897</speed>
  <fix>3d</fix>
</trkpt>
<trkpt lat="21.1680022" lon="-156.8869732">
  <ele>193.16</ele>
  <time>2026-09-01T20:02:42Z</time>
  <course>47.72</course>
  <speed>0.01</speed>
  <fix>3d</fix>
</trkpt>
<trkpt lat="21.1680021" lon="-156.886973">
  <ele>192.68</ele>
  <time>2026-09-01T20:02:42Z</time>
  <course>351.56</course>
  <speed>0.022360679774997897</speed>
  <fix>3d</fix>
</trkpt>
<trkpt lat="21.1680022" lon="-156.8869732">
  <ele>193.16</ele>
  <time>2026-09-01T20:02:42Z</time>
  <course>47.72</course>
  <speed>0.01</speed>
  <fix>3d</fix>
</trkpt>
<trkpt lat="21.1680021" lon="-156.886973">
  <ele>192.57</ele>
  <time>2026-09-01T20:02:42Z</time>
  <course>351.59</course>
  <speed>0.022360679774997897</speed>
  <fix>3d</fix>
</trkpt>
<trkpt lat="21.1680023" lon="-156.8869731">
  <ele>192.93</ele>
  <time>2026-09-01T20:02:42Z</time>
  <course>53.94</course>
  <speed>0.01</speed>
  <fix>3d</fix>
</trkpt>
<trkpt lat="21.1680021" lon="-156.886973">
  <ele>192.45</ele>
  <time>2026-09-01T20:02:42Z</time>
  <course>351.61</course>
  <speed>0.022360679774997897</speed>
  <fix>3d</fix>
</trkpt>
<trkpt lat="21.1680023" lon="-156.8869731">
  <ele>192.93</ele>
  <time>2026-09-01T20:02:42Z</time>
  <course>53.94</course>
  <speed>0.01</speed>
  <fix>3d</fix>
</trkpt>
<trkpt lat="21.1680021" lon="-156.886973">
  <ele>192.33</ele>
  <time>2026-09-01T20:02:42Z</time>
  <course>351.62</course>
  <speed>0.022360679774997897</speed>
  <fix>3d</fix>
</trkpt>
<trkpt lat="21.1680024" lon="-156.8869731">
  <ele>192.7</ele>
  <time>2026-09-01T20:02:42Z</time>
  <course>59.74</course>
  <speed>0.01</speed>
  <fix>3d</fix>
</trkpt>
<trkpt lat="21.1680021" lon="-156.8869729">
  <ele>192.22</ele>
  <time>2026-09-01T20:02:42Z</time>
  <course>351.62</course>
  <speed>0.0316227766016838</speed>
  <fix>3d</fix>
</trkpt>
<trkpt lat="21.1680024" lon="-156.8869731">
  <ele>192.7</ele>
  <time>2026-09-01T20:02:42Z</time>
  <course>59.74</course>
  <speed>0.01</speed>
  <fix>3d</fix>
</trkpt>
<trkpt lat="21.1680021" lon="-156.8869729">
  <ele>192.11</ele>
  <time>2026-09-01T20:02:42Z</time>
  <course>351.61</course>
  <speed>0.0316227766016838</speed>
  <fix>3d</fix>
</trkpt>
<trkpt lat="21.1680024" lon="-156.8869731">
  <ele>192.46</ele>
  <time>2026-09-01T20:02:42Z</time>
  <course>66.6</course>
  <speed>0.01</speed>
  <fix>3d</fix>
</trkpt>
<trkpt lat="21.1680021" lon="-156.8869729">
  <ele>191.99</ele>
  <time>2026-09-01T20:02:42Z</time>
  <course>351.6</course>
  <speed>0.0316227766016838</speed>
  <fix>3d</fix>
</trkpt>
<trkpt lat="21.1680024" lon="-156.8869731">
  <ele>192.46</ele>
  <time>2026-09-01T20:02:42Z</time>
  <course>66.6</course>
  <speed>0.01</speed>
  <fix>3d</fix>
</trkpt>
<trkpt lat="21.1680021" lon="-156.8869729">
  <ele>191.88</ele>
  <time>2026-09-01T20:02:42Z</time>
  <course>351.59</course>
  <speed>0.0316227766016838</speed>
  <fix>3d</fix>
</trkpt>
<trkpt lat="21.1680024" lon="-156.886973">
  <ele>192.24</ele>
  <time>2026-09-01T20:02:42Z</time>
  <course>73.91</course>
  <speed>0.01</speed>
  <fix>3d</fix>
</trkpt>
<trkpt lat="21.1680021" lon="-156.8869729">
  <ele>191.76</ele>
  <time>2026-09-01T20:02:42Z</time>
  <course>351.58</course>
  <speed>0.0316227766016838</speed>
  <fix>3d</fix>
</trkpt>
<trkpt lat="21.1680024" lon="-156.886973">
  <ele>192.24</ele>
  <time>2026-09-01T20:02:42Z</time>
  <course>73.91</course>
  <speed>0.01</speed>
  <fix>3d</fix>
</trkpt>
<trkpt lat="21.1680021" lon="-156.8869729">
  <ele>191.65</ele>
  <time>2026-09-01T20:02:42Z</time>
  <course>351.58</course>
  <speed>0.0316227766016838</speed>
  <fix>3d</fix>
</trkpt>
<trkpt lat="21.1680024" lon="-156.8869729">
  <ele>192.01</ele>
  <time>2026-09-01T20:02:42Z</time>
  <course>81.36</course>
  <speed>0.01</speed>
  <fix>3d</fix>
</trkpt>
<trkpt lat="21.1680021" lon="-156.8869729">
  <ele>191.54</ele>
  <time>2026-09-01T20:02:42Z</time>
  <course>351.59</course>
  <speed>0.0316227766016838</speed>
  <fix>3d</fix>
</trkpt>
<trkpt lat="21.1680024" lon="-156.8869729">
  <ele>192.01</ele>
  <time>2026-09-01T20:02:42Z</time>
  <course>81.36</course>
  <speed>0.01</speed>
  <fix>3d</fix>
</trkpt>
<trkpt lat="21.1680021" lon="-156.8869728">
  <ele>191.42</ele>
  <time>2026-09-01T20:02:42Z</time>
  <course>351.6</course>
  <speed>0.0316227766016838</speed>
  <fix>3d</fix>
</trkpt>
<trkpt lat="21.1680024" lon="-156.8869729">
  <ele>191.78</ele>
  <time>2026-09-01T20:02:42Z</time>
  <course>88.31</course>
  <speed>0.01</speed>
  <fix>3d</fix>
</trkpt>
<trkpt lat="21.1680021" lon="-156.8869728">
  <ele>191.3</ele>
  <time>2026-09-01T20:02:42Z</time>
  <course>351.61</course>
  <speed>0.03605551275463989</speed>
  <fix>3d</fix>
</trkpt>
<trkpt lat="21.1680024" lon="-156.8869729">
  <ele>191.78</ele>
  <time>2026-09-01T20:02:42Z</time>
  <course>88.31</course>
  <speed>0.01</speed>
  <fix>3d</fix>
</trkpt>
<trkpt lat="21.1680022" lon="-156.8869728">
  <ele>191.19</ele>
  <time>2026-09-01T20:02:42Z</time>
  <course>351.62</course>
  <speed>0.03605551275463989</speed>
  <fix>3d</fix>
</trkpt>
<trkpt lat="21.1680024" lon="-156.8869729">
  <ele>191.55</ele>
  <time>2026-09-01T20:02:42Z</time>
  <course>94.56</course>
  <speed>0.01</speed>
  <fix>3d</fix>
</trkpt>
<trkpt lat="21.1680022" lon="-156.8869728">
  <ele>191.08</ele>
  <time>2026-09-01T20:02:42Z</time>
  <course>351.62</course>
  <speed>0.03605551275463989</speed>
  <fix>3d</fix>
</trkpt>
<trkpt lat="21.1680024" lon="-156.8869729">
  <ele>191.55</ele>
  <time>2026-09-01T20:02:42Z</time>
  <course>94.56</course>
  <speed>0.01</speed>
  <fix>3d</fix>
</trkpt>
<trkpt lat="21.1680022" lon="-156.8869727">
  <ele>190.97</ele>
  <time>2026-09-01T20:02:42Z</time>
  <course>351.62</course>
  <speed>0.03605551275463989</speed>
  <fix>3d</fix>
</trkpt>
<trkpt lat="21.1680024" lon="-156.8869729">
  <ele>191.32</ele>
  <time>2026-09-01T20:02:42Z</time>
  <course>99.44</course>
  <speed>0.01</speed>
  <fix>3d</fix>
</trkpt>
<trkpt lat="21.1680022" lon="-156.8869727">
  <ele>190.85</ele>
  <time>2026-09-01T20:02:42Z</time>
  <course>351.62</course>
  <speed>0.03605551275463989</speed>
  <fix>3d</fix>
</trkpt>
<trkpt lat="21.1680024" lon="-156.8869729">
  <ele>191.32</ele>
  <time>2026-09-01T20:02:42Z</time>
  <course>99.44</course>
  <speed>0.01</speed>
  <fix>3d</fix>
</trkpt>
<trkpt lat="21.1680022" lon="-156.8869727">
  <ele>190.73</ele>
  <time>2026-09-01T20:02:42Z</time>
  <course>351.61</course>
  <speed>0.03605551275463989</speed>
  <fix>3d</fix>
</trkpt>
<trkpt lat="21.1680024" lon="-156.8869729">
  <ele>191.09</ele>
  <time>2026-09-01T20:02:42Z</time>
  <course>103.29</course>
  <speed>0.01</speed>
  <fix>3d</fix>
</trkpt>
<trkpt lat="21.1680022" lon="-156.8869727">
  <ele>190.62</ele>
  <time>2026-09-01T20:02:42Z</time>
  <course>351.6</course>
  <speed>0.03605551275463989</speed>
  <fix>3d</fix>
</trkpt>
<trkpt lat="21.1680024" lon="-156.8869729">
  <ele>191.09</ele>
  <time>2026-09-01T20:02:42Z</time>
  <course>103.29</course>
  <speed>0.01</speed>
  <fix>3d</fix>
</trkpt>
<trkpt lat="21.1680022" lon="-156.8869727">
  <ele>190.5</ele>
  <time>2026-09-01T20:02:42Z</time>
  <course>351.59</course>
  <speed>0.03605551275463989</speed>
  <fix>3d</fix>
</trkpt>
<trkpt lat="21.1680024" lon="-156.8869728">
  <ele>190.86</ele>
  <time>2026-09-01T20:02:42Z</time>
  <course>107.29</course>
  <speed>0.02</speed>
  <fix>3d</fix>
</trkpt>
<trkpt lat="21.1680022" lon="-156.8869726">
  <ele>190.38</ele>
  <time>2026-09-01T20:02:42Z</time>
  <course>351.58</course>
  <speed>0.03605551275463989</speed>
  <fix>3d</fix>
</trkpt>
<trkpt lat="21.1680024" lon="-156.8869728">
  <ele>190.86</ele>
  <time>2026-09-01T20:02:42Z</time>
  <course>107.29</course>
  <speed>0.02</speed>
  <fix>3d</fix>
</trkpt>
<trkpt lat="21.1680022" lon="-156.8869726">
  <ele>190.26</ele>
  <time>2026-09-01T20:02:42Z</time>
  <course>351.57</course>
  <speed>0.044721359549995794</speed>
  <fix>3d</fix>
</trkpt>
<trkpt lat="21.1680024" lon="-156.8869728">
  <ele>190.63</ele>
  <time>2026-09-01T20:02:42Z</time>
  <course>110.48</course>
  <speed>0.02</speed>
  <fix>3d</fix>
</trkpt>
<trkpt lat="21.1680022" lon="-156.8869726">
  <ele>190.15</ele>
  <time>2026-09-01T20:02:42Z</time>
  <course>351.56</course>
  <speed>0.044721359549995794</speed>
  <fix>3d</fix>
</trkpt>
<trkpt lat="21.1680024" lon="-156.8869728">
  <ele>190.63</ele>
  <time>2026-09-01T20:02:42Z</time>
  <course>110.48</course>
  <speed>0.02</speed>
  <fix>3d</fix>
</trkpt>
<trkpt lat="21.1680022" lon="-156.8869726">
  <ele>190.03</ele>
  <time>2026-09-01T20:02:42Z</time>
  <course>351.54</course>
  <speed>0.044721359549995794</speed>
  <fix>3d</fix>
</trkpt>
<trkpt lat="21.1680024" lon="-156.8869728">
  <ele>190.4</ele>
  <time>2026-09-01T20:02:42Z</time>
  <course>111.39</course>
  <speed>0.02</speed>
  <fix>3d</fix>
</trkpt>
<trkpt lat="21.1680022" lon="-156.8869726">
  <ele>189.92</ele>
  <time>2026-09-01T20:02:42Z</time>
  <course>351.51</course>
  <speed>0.044721359549995794</speed>
  <fix>3d</fix>
</trkpt>
<trkpt lat="21.1680024" lon="-156.8869728">
  <ele>190.4</ele>
  <time>2026-09-01T20:02:42Z</time>
  <course>111.39</course>
  <speed>0.02</speed>
  <fix>3d</fix>
</trkpt>
<trkpt lat="21.1680022" lon="-156.8869725">
  <ele>189.8</ele>
  <time>2026-09-01T20:02:42Z</time>
  <course>351.47</course>
  <speed>0.044721359549995794</speed>
  <fix>3d</fix>
</trkpt>
<trkpt lat="21.1680024" lon="-156.8869727">
  <ele>190.18</ele>
  <time>2026-09-01T20:02:42Z</time>
  <course>110.19</course>
  <speed>0.02</speed>
  <fix>3d</fix>
</trkpt>
<trkpt lat="21.1680022" lon="-156.8869725">
  <ele>189.69</ele>
  <time>2026-09-01T20:02:42Z</time>
  <course>351.44</course>
  <speed>0.044721359549995794</speed>
  <fix>3d</fix>
</trkpt>
<trkpt lat="21.1680024" lon="-156.8869727">
  <ele>190.18</ele>
  <time>2026-09-01T20:02:42Z</time>
  <course>110.19</course>
  <speed>0.02</speed>
  <fix>3d</fix>
</trkpt>
<trkpt lat="21.1680022" lon="-156.8869725">
  <ele>189.58</ele>
  <time>2026-09-01T20:02:42Z</time>
  <course>351.41</course>
  <speed>0.044721359549995794</speed>
  <fix>3d</fix>
</trkpt>
<trkpt lat="21.1680024" lon="-156.8869727">
  <ele>189.95</ele>
  <time>2026-09-01T20:02:42Z</time>
  <course>109.21</course>
  <speed>0.02</speed>
  <fix>3d</fix>
</trkpt>
<trkpt lat="21.1680022" lon="-156.8869725">
  <ele>189.47</ele>
  <time>2026-09-01T20:02:42Z</time>
  <course>351.39</course>
  <speed>0.053851648071345036</speed>
  <fix>3d</fix>
</trkpt>
<trkpt lat="21.1680024" lon="-156.8869727">
  <ele>189.95</ele>
  <time>2026-09-01T20:02:42Z</time>
  <course>109.21</course>
  <speed>0.02</speed>
  <fix>3d</fix>
</trkpt>
<trkpt lat="21.1680022" lon="-156.8869724">
  <ele>189.36</ele>
  <time>2026-09-01T20:02:42Z</time>
  <course>351.37</course>
  <speed>0.053851648071345036</speed>
  <fix>3d</fix>
</trkpt>
<trkpt lat="21.1680024" lon="-156.8869726">
  <ele>189.72</ele>
  <time>2026-09-01T20:02:42Z</time>
  <course>108.64</course>
  <speed>0.03</speed>
  <fix>3d</fix>
</trkpt>
<trkpt lat="21.1680022" lon="-156.8869724">
  <ele>189.24</ele>
  <time>2026-09-01T20:02:42Z</time>
  <course>351.36</course>
  <speed>0.053851648071345036</speed>
  <fix>3d</fix>
</trkpt>
<trkpt lat="21.1680024" lon="-156.8869726">
  <ele>189.72</ele>
  <time>2026-09-01T20:02:42Z</time>
  <course>108.64</course>
  <speed>0.03</speed>
  <fix>3d</fix>
</trkpt>
<trkpt lat="21.1680022" lon="-156.8869724">
  <ele>189.13</ele>
  <time>2026-09-01T20:02:42Z</time>
  <course>351.34</course>
  <speed>0.053851648071345036</speed>
  <fix>3d</fix>
</trkpt>
<trkpt lat="21.1680024" lon="-156.8869725">
  <ele>189.49</ele>
  <time>2026-09-01T20:02:42Z</time>
  <course>107.82</course>
  <speed>0.03</speed>
  <fix>3d</fix>
</trkpt>
<trkpt lat="21.1680022" lon="-156.8869723">
  <ele>189.02</ele>
  <time>2026-09-01T20:02:42Z</time>
  <course>351.34</course>
  <speed>0.053851648071345036</speed>
  <fix>3d</fix>
</trkpt>
<trkpt lat="21.1680024" lon="-156.8869725">
  <ele>189.49</ele>
  <time>2026-09-01T20:02:42Z</time>
  <course>107.82</course>
  <speed>0.03</speed>
  <fix>3d</fix>
</trkpt>
<trkpt lat="21.1680022" lon="-156.8869723">
  <ele>188.9</ele>
  <time>2026-09-01T20:02:42Z</time>
  <course>351.33</course>
  <speed>0.053851648071345036</speed>
  <fix>3d</fix>
</trkpt>
<trkpt lat="21.1680024" lon="-156.8869724">
  <ele>189.27</ele>
  <time>2026-09-01T20:02:42Z</time>
  <course>106.97</course>
  <speed>0.03</speed>
  <fix>3d</fix>
</trkpt>
<trkpt lat="21.1680022" lon="-156.8869722">
  <ele>188.79</ele>
  <time>2026-09-01T20:02:42Z</time>
  <course>351.32</course>
  <speed>0.053851648071345036</speed>
  <fix>3d</fix>
</trkpt>
<trkpt lat="21.1680024" lon="-156.8869724">
  <ele>189.27</ele>
  <time>2026-09-01T20:02:42Z</time>
  <course>106.97</course>
  <speed>0.03</speed>
  <fix>3d</fix>
</trkpt>
<trkpt lat="21.1680022" lon="-156.8869722">
  <ele>188.67</ele>
  <time>2026-09-01T20:02:42Z</time>
  <course>351.31</course>
  <speed>0.053851648071345036</speed>
  <fix>3d</fix>
</trkpt>
<trkpt lat="21.1680023" lon="-156.8869724">
  <ele>189.04</ele>
  <time>2026-09-01T20:02:42Z</time>
  <course>106.43</course>
  <speed>0.03</speed>
  <fix>3d</fix>
</trkpt>
<trkpt lat="21.1680022" lon="-156.8869722">
  <ele>188.55</ele>
  <time>2026-09-01T20:02:42Z</time>
  <course>351.3</course>
  <speed>0.0632455532033676</speed>
  <fix>3d</fix>
</trkpt>
<trkpt lat="21.1680023" lon="-156.8869724">
  <ele>189.04</ele>
  <time>2026-09-01T20:02:42Z</time>
  <course>106.43</course>
  <speed>0.03</speed>
  <fix>3d</fix>
</trkpt>
<trkpt lat="21.1680022" lon="-156.8869721">
  <ele>188.44</ele>
  <time>2026-09-01T20:02:42Z</time>
  <course>351.29</course>
  <speed>0.0632455532033676</speed>
  <fix>3d</fix>
</trkpt>
<trkpt lat="21.1680022" lon="-156.8869723">
  <ele>188.81</ele>
  <time>2026-09-01T20:02:42Z</time>
  <course>106.4</course>
  <speed>0.03</speed>
  <fix>3d</fix>
</trkpt>
<trkpt lat="21.1680022" lon="-156.8869721">
  <ele>188.32</ele>
  <time>2026-09-01T20:02:42Z</time>
  <course>351.29</course>
  <speed>0.0632455532033676</speed>
  <fix>3d</fix>
</trkpt>
<trkpt lat="21.1680022" lon="-156.8869723">
  <ele>188.81</ele>
  <time>2026-09-01T20:02:42Z</time>
  <course>106.4</course>
  <speed>0.03</speed>
  <fix>3d</fix>
</trkpt>
<trkpt lat="21.1680022" lon="-156.886972">
  <ele>188.21</ele>
  <time>2026-09-01T20:02:42Z</time>
  <course>351.28</course>
  <speed>0.0632455532033676</speed>
  <fix>3d</fix>
</trkpt>
<trkpt lat="21.1680022" lon="-156.8869723">
  <ele>188.58</ele>
  <time>2026-09-01T20:02:42Z</time>
  <course>106.58</course>
  <speed>0.04</speed>
  <fix>3d</fix>
</trkpt>
<trkpt lat="21.1680022" lon="-156.886972">
  <ele>188.09</ele>
  <time>2026-09-01T20:02:42Z</time>
  <course>351.27</course>
  <speed>0.0632455532033676</speed>
  <fix>3d</fix>
</trkpt>
<trkpt lat="21.1680022" lon="-156.8869723">
  <ele>188.58</ele>
  <time>2026-09-01T20:02:42Z</time>
  <course>106.58</course>
  <speed>0.04</speed>
  <fix>3d</fix>
</trkpt>
<trkpt lat="21.1680022" lon="-156.886972">
  <ele>187.98</ele>
  <time>2026-09-01T20:02:42Z</time>
  <course>351.25</course>
  <speed>0.0632455532033676</speed>
  <fix>3d</fix>
</trkpt>
<trkpt lat="21.1680022" lon="-156.8869722">
  <ele>188.35</ele>
  <time>2026-09-01T20:02:42Z</time>
  <course>105.88</course>
  <speed>0.04</speed>
  <fix>3d</fix>
</trkpt>
<trkpt lat="21.1680021" lon="-156.8869719">
  <ele>187.86</ele>
  <time>2026-09-01T20:02:42Z</time>
  <course>351.22</course>
  <speed>0.0632455532033676</speed>
  <fix>3d</fix>
</trkpt>
<trkpt lat="21.1680022" lon="-156.8869722">
  <ele>188.35</ele>
  <time>2026-09-01T20:02:42Z</time>
  <course>105.88</course>
  <speed>0.04</speed>
  <fix>3d</fix>
</trkpt>
<trkpt lat="21.1680021" lon="-156.8869719">
  <ele>187.74</ele>
  <time>2026-09-01T20:02:42Z</time>
  <course>351.18</course>
  <speed>0.0632455532033676</speed>
  <fix>3d</fix>
</trkpt>
<trkpt lat="21.1680022" lon="-156.8869721">
  <ele>188.12</ele>
  <time>2026-09-01T20:02:42Z</time>
  <course>104.02</course>
  <speed>0.04</speed>
  <fix>3d</fix>
</trkpt>
<trkpt lat="21.1680021" lon="-156.8869718">
  <ele>187.63</ele>
  <time>2026-09-01T20:02:42Z</time>
  <course>351.14</course>
  <speed>0.0632455532033676</speed>
  <fix>3d</fix>
</trkpt>
<trkpt lat="21.1680022" lon="-156.8869721">
  <ele>188.12</ele>
  <time>2026-09-01T20:02:42Z</time>
  <course>104.02</course>
  <speed>0.04</speed>
  <fix>3d</fix>
</trkpt>
<trkpt lat="21.1680021" lon="-156.8869718">
  <ele>187.52</ele>
  <time>2026-09-01T20:02:42Z</time>
  <course>351.11</course>
  <speed>0.0632455532033676</speed>
  <fix>3d</fix>
</trkpt>
<trkpt lat="21.1680022" lon="-156.886972">
  <ele>187.89</ele>
  <time>2026-09-01T20:02:42Z</time>
  <course>102.26</course>
  <speed>0.04</speed>
  <fix>3d</fix>
</trkpt>
<trkpt lat="21.1680021" lon="-156.8869718">
  <ele>187.4</ele>
  <time>2026-09-01T20:02:42Z</time>
  <course>351.09</course>
  <speed>0.0632455532033676</speed>
  <fix>3d</fix>
</trkpt>
<trkpt lat="21.1680022" lon="-156.886972">
  <ele>187.89</ele>
  <time>2026-09-01T20:02:42Z</time>
  <course>102.26</course>
  <speed>0.04</speed>
  <fix>3d</fix>
</trkpt>
<trkpt lat="21.1680021" lon="-156.8869717">
  <ele>187.29</ele>
  <time>2026-09-01T20:02:42Z</time>
  <course>351.06</course>
  <speed>0.06082762530298219</speed>
  <fix>3d</fix>
</trkpt>
<trkpt lat="21.1680022" lon="-156.8869719">
  <ele>187.66</ele>
  <time>2026-09-01T20:02:42Z</time>
  <course>100.68</course>
  <speed>0.04</speed>
  <fix>3d</fix>
</trkpt>
<trkpt lat="21.1680021" lon="-156.8869717">
  <ele>187.17</ele>
  <time>2026-09-01T20:02:42Z</time>
  <course>351.05</course>
  <speed>0.0632455532033676</speed>
  <fix>3d</fix>
</trkpt>
<trkpt lat="21.1680022" lon="-156.8869719">
  <ele>187.66</ele>
  <time>2026-09-01T20:02:42Z</time>
  <course>100.68</course>
  <speed>0.04</speed>
  <fix>3d</fix>
</trkpt>
<trkpt lat="21.1680021" lon="-156.8869716">
  <ele>187.06</ele>
  <time>2026-09-01T20:02:42Z</time>
  <course>351.03</course>
  <speed>0.06082762530298219</speed>
  <fix>3d</fix>
</trkpt>
<trkpt lat="21.1680022" lon="-156.8869719">
  <ele>187.43</ele>
  <time>2026-09-01T20:02:42Z</time>
  <course>99.38</course>
  <speed>0.04</speed>
  <fix>3d</fix>
</trkpt>
<trkpt lat="21.1680021" lon="-156.8869716">
  <ele>186.94</ele>
  <time>2026-09-01T20:02:42Z</time>
  <course>351.02</course>
  <speed>0.06082762530298219</speed>
  <fix>3d</fix>
</trkpt>
<trkpt lat="21.1680022" lon="-156.8869719">
  <ele>187.43</ele>
  <time>2026-09-01T20:02:42Z</time>
  <course>99.38</course>
  <speed>0.04</speed>
  <fix>3d</fix>
</trkpt>
<trkpt lat="21.1680021" lon="-156.8869716">
  <ele>186.83</ele>
  <time>2026-09-01T20:02:42Z</time>
  <course>351.02</course>
  <speed>0.06082762530298219</speed>
  <fix>3d</fix>
</trkpt>
<trkpt lat="21.1680022" lon="-156.8869718">
  <ele>187.2</ele>
  <time>2026-09-01T20:02:42Z</time>
  <course>98.88</course>
  <speed>0.04</speed>
  <fix>3d</fix>
</trkpt>
<trkpt lat="21.1680021" lon="-156.8869715">
  <ele>186.71</ele>
  <time>2026-09-01T20:02:42Z</time>
  <course>351.01</course>
  <speed>0.06082762530298219</speed>
  <fix>3d</fix>
</trkpt>
<trkpt lat="21.1680022" lon="-156.8869718">
  <ele>187.2</ele>
  <time>2026-09-01T20:02:42Z</time>
  <course>98.88</course>
  <speed>0.04</speed>
  <fix>3d</fix>
</trkpt>
<trkpt lat="21.1680021" lon="-156.8869715">
  <ele>186.59</ele>
  <time>2026-09-01T20:02:42Z</time>
  <course>351.01</course>
  <speed>0.06082762530298219</speed>
  <fix>3d</fix>
</trkpt>
<trkpt lat="21.1680022" lon="-156.8869717">
  <ele>186.97</ele>
  <time>2026-09-01T20:02:42Z</time>
  <course>98.55</course>
  <speed>0.04</speed>
  <fix>3d</fix>
</trkpt>
<trkpt lat="21.1680021" lon="-156.8869714">
  <ele>186.48</ele>
  <time>2026-09-01T20:02:42Z</time>
  <course>351.01</course>
  <speed>0.06082762530298219</speed>
  <fix>3d</fix>
</trkpt>
<trkpt lat="21.1680022" lon="-156.8869717">
  <ele>186.97</ele>
  <time>2026-09-01T20:02:42Z</time>
  <course>98.55</course>
  <speed>0.04</speed>
  <fix>3d</fix>
</trkpt>
<trkpt lat="21.1680021" lon="-156.8869714">
  <ele>186.36</ele>
  <time>2026-09-01T20:02:42Z</time>
  <course>351.0</course>
  <speed>0.06082762530298219</speed>
  <fix>3d</fix>
</trkpt>
<trkpt lat="21.1680022" lon="-156.8869716">
  <ele>186.74</ele>
  <time>2026-09-01T20:02:42Z</time>
  <course>98.39</course>
  <speed>0.03</speed>
  <fix>3d</fix>
</trkpt>
<trkpt lat="21.1680021" lon="-156.8869714">
  <ele>186.25</ele>
  <time>2026-09-01T20:02:42Z</time>
  <course>350.99</course>
  <speed>0.05099019513592785</speed>
  <fix>3d</fix>
</trkpt>
<trkpt lat="21.1680022" lon="-156.8869716">
  <ele>186.74</ele>
  <time>2026-09-01T20:02:42Z</time>
  <course>98.39</course>
  <speed>0.03</speed>
  <fix>3d</fix>
</trkpt>
<trkpt lat="21.1680021" lon="-156.8869713">
  <ele>186.14</ele>
  <time>2026-09-01T20:02:42Z</time>
  <course>350.96</course>
  <speed>0.05099019513592785</speed>
  <fix>3d</fix>
</trkpt>
<trkpt lat="21.1680022" lon="-156.8869715">
  <ele>186.51</ele>
  <time>2026-09-01T20:02:42Z</time>
  <course>98.27</course>
  <speed>0.03</speed>
  <fix>3d</fix>
</trkpt>
<trkpt lat="21.1680021" lon="-156.8869713">
  <ele>186.02</ele>
  <time>2026-09-01T20:02:42Z</time>
  <course>350.94</course>
  <speed>0.05099019513592785</speed>
  <fix>3d</fix>
</trkpt>
<trkpt lat="21.1680022" lon="-156.8869715">
  <ele>186.51</ele>
  <time>2026-09-01T20:02:42Z</time>
  <course>98.27</course>
  <speed>0.03</speed>
  <fix>3d</fix>
</trkpt>
<trkpt lat="21.1680021" lon="-156.8869713">
  <ele>185.91</ele>
  <time>2026-09-01T20:02:42Z</time>
  <course>350.91</course>
  <speed>0.05099019513592785</speed>
  <fix>3d</fix>
</trkpt>
<trkpt lat="21.1680022" lon="-156.8869715">
  <ele>186.28</ele>
  <time>2026-09-01T20:02:42Z</time>
  <course>97.34</course>
  <speed>0.03</speed>
  <fix>3d</fix>
</trkpt>
<trkpt lat="21.1680021" lon="-156.8869712">
  <ele>185.8</ele>
  <time>2026-09-01T20:02:42Z</time>
  <course>350.88</course>
  <speed>0.05099019513592785</speed>
  <fix>3d</fix>
</trkpt>
<trkpt lat="21.1680022" lon="-156.8869715">
  <ele>186.28</ele>
  <time>2026-09-01T20:02:42Z</time>
  <course>97.34</course>
  <speed>0.03</speed>
  <fix>3d</fix>
</trkpt>
<trkpt lat="21.1680021" lon="-156.8869712">
  <ele>185.69</ele>
  <time>2026-09-01T20:02:42Z</time>
  <course>350.85</course>
  <speed>0.05099019513592785</speed>
  <fix>3d</fix>
</trkpt>
<trkpt lat="21.1680022" lon="-156.8869714">
  <ele>186.05</ele>
  <time>2026-09-01T20:02:42Z</time>
  <course>95.9</course>
  <speed>0.03</speed>
  <fix>3d</fix>
</trkpt>
<trkpt lat="21.1680021" lon="-156.8869712">
  <ele>185.57</ele>
  <time>2026-09-01T20:02:42Z</time>
  <course>350.84</course>
  <speed>0.05099019513592785</speed>
  <fix>3d</fix>
</trkpt>
<trkpt lat="21.1680022" lon="-156.8869714">
  <ele>186.05</ele>
  <time>2026-09-01T20:02:42Z</time>
  <course>95.9</course>
  <speed>0.03</speed>
  <fix>3d</fix>
</trkpt>
<trkpt lat="21.1680021" lon="-156.8869711">
  <ele>185.46</ele>
  <time>2026-09-01T20:02:42Z</time>
  <course>350.83</course>
  <speed>0.0412310562561766</speed>
  <fix>3d</fix>
</trkpt>
<trkpt lat="21.1680022" lon="-156.8869714">
  <ele>185.82</ele>
  <time>2026-09-01T20:02:42Z</time>
  <course>95.38</course>
  <speed>0.02</speed>
  <fix>3d</fix>
</trkpt>
<trkpt lat="21.1680021" lon="-156.8869711">
  <ele>185.34</ele>
  <time>2026-09-01T20:02:42Z</time>
  <course>350.83</course>
  <speed>0.0412310562561766</speed>
  <fix>3d</fix>
</trkpt>
<trkpt lat="21.1680022" lon="-156.8869714">
  <ele>185.82</ele>
  <time>2026-09-01T20:02:42Z</time>
  <course>95.38</course>
  <speed>0.02</speed>
  <fix>3d</fix>
</trkpt>
<trkpt lat="21.1680021" lon="-156.8869711">
  <ele>185.22</ele>
  <time>2026-09-01T20:02:42Z</time>
  <course>350.83</course>
  <speed>0.0412310562561766</speed>
  <fix>3d</fix>
</trkpt>
<trkpt lat="21.1680022" lon="-156.8869714">
  <ele>185.59</ele>
  <time>2026-09-01T20:02:42Z</time>
  <course>96.68</course>
  <speed>0.02</speed>
  <fix>3d</fix>
</trkpt>
<trkpt lat="21.1680021" lon="-156.8869711">
  <ele>185.11</ele>
  <time>2026-09-01T20:02:42Z</time>
  <course>350.83</course>
  <speed>0.0412310562561766</speed>
  <fix>3d</fix>
</trkpt>
<trkpt lat="21.1680022" lon="-156.8869714">
  <ele>185.59</ele>
  <time>2026-09-01T20:02:42Z</time>
  <course>96.68</course>
  <speed>0.02</speed>
  <fix>3d</fix>
</trkpt>
<trkpt lat="21.1680021" lon="-156.8869711">
  <ele>184.99</ele>
  <time>2026-09-01T20:02:42Z</time>
  <course>350.84</course>
  <speed>0.0316227766016838</speed>
  <fix>3d</fix>
</trkpt>
<trkpt lat="21.1680022" lon="-156.8869713">
  <ele>185.36</ele>
  <time>2026-09-01T20:02:42Z</time>
  <course>98.96</course>
  <speed>0.01</speed>
  <fix>3d</fix>
</trkpt>
<trkpt lat="21.1680021" lon="-156.8869711">
  <ele>184.88</ele>
  <time>2026-09-01T20:02:42Z</time>
  <course>350.84</course>
  <speed>0.0316227766016838</speed>
  <fix>3d</fix>
</trkpt>
<trkpt lat="21.1680022" lon="-156.8869713">
  <ele>185.36</ele>
  <time>2026-09-01T20:02:42Z</time>
  <course>98.96</course>
  <speed>0.01</speed>
  <fix>3d</fix>
</trkpt>
<trkpt lat="21.1680021" lon="-156.8869711">
  <ele>184.77</ele>
  <time>2026-09-01T20:02:42Z</time>
  <course>350.85</course>
  <speed>0.0316227766016838</speed>
  <fix>3d</fix>
</trkpt>
<trkpt lat="21.1680022" lon="-156.8869713">
  <ele>185.13</ele>
  <time>2026-09-01T20:02:42Z</time>
  <course>102.1</course>
  <speed>0.01</speed>
  <fix>3d</fix>
</trkpt>
<trkpt lat="21.1680021" lon="-156.8869711">
  <ele>184.65</ele>
  <time>2026-09-01T20:02:42Z</time>
  <course>350.86</course>
  <speed>0.022360679774997897</speed>
  <fix>3d</fix>
</trkpt>
<trkpt lat="21.1680022" lon="-156.8869713">
  <ele>185.13</ele>
  <time>2026-09-01T20:02:42Z</time>
  <course>102.1</course>
  <speed>0.01</speed>
  <fix>3d</fix>
</trkpt>
<trkpt lat="21.1680021" lon="-156.8869711">
  <ele>184.54</ele>
  <time>2026-09-01T20:02:42Z</time>
  <course>350.87</course>
  <speed>0.022360679774997897</speed>
  <fix>3d</fix>
</trkpt>
<trkpt lat="21.1680021" lon="-156.8869713">
  <ele>184.9</ele>
  <time>2026-09-01T20:02:42Z</time>
  <course>111.39</course>
  <speed>0.0</speed>
  <fix>3d</fix>
</trkpt>
<trkpt lat="21.1680021" lon="-156.8869711">
  <ele>184.42</ele>
  <time>2026-09-01T20:02:42Z</time>
  <course>350.89</course>
  <speed>0.022360679774997897</speed>
  <fix>3d</fix>
</trkpt>
<trkpt lat="21.1680021" lon="-156.8869713">
  <ele>184.9</ele>
  <time>2026-09-01T20:02:42Z</time>
  <course>111.39</course>
  <speed>0.0</speed>
  <fix>3d</fix>
</trkpt>
<trkpt lat="21.1680021" lon="-156.8869711">
  <ele>184.31</ele>
  <time>2026-09-01T20:02:42Z</time>
  <course>350.9</course>
  <speed>0.022360679774997897</speed>
  <fix>3d</fix>
</trkpt>
<trkpt lat="21.1680021" lon="-156.8869713">
  <ele>184.67</ele>
  <time>2026-09-01T20:02:42Z</time>
  <course>147.9</course>
  <speed>0.0</speed>
  <fix>3d</fix>
</trkpt>
<trkpt lat="21.1680021" lon="-156.8869711">
  <ele>184.2</ele>
  <time>2026-09-01T20:02:42Z</time>
  <course>350.92</course>
  <speed>0.01414213562373095</speed>
  <fix>3d</fix>
</trkpt>
<trkpt lat="21.1680021" lon="-156.8869713">
  <ele>184.67</ele>
  <time>2026-09-01T20:02:42Z</time>
  <course>147.9</course>
  <speed>0.0</speed>
  <fix>3d</fix>
</trkpt>
<trkpt lat="21.1680021" lon="-156.8869711">
  <ele>184.08</ele>
  <time>2026-09-01T20:02:42Z</time>
  <course>350.95</course>
  <speed>0.01414213562373095</speed>
  <fix>3d</fix>
</trkpt>
<trkpt lat="21.1680021" lon="-156.8869713">
  <ele>184.44</ele>
  <time>2026-09-01T20:02:42Z</time>
  <course>232.22</course>
  <speed>0.0</speed>
  <fix>3d</fix>
</trkpt>
<trkpt lat="21.1680021" lon="-156.8869711">
  <ele>183.97</ele>
  <time>2026-09-01T20:02:42Z</time>
  <course>351.02</course>
  <speed>0.01</speed>
  <fix>3d</fix>
</trkpt>
<trkpt lat="21.1680021" lon="-156.8869713">
  <ele>184.44</ele>
  <time>2026-09-01T20:02:42Z</time>
  <course>232.22</course>
  <speed>0.0</speed>
  <fix>3d</fix>
</trkpt>
<trkpt lat="21.1680021" lon="-156.8869711">
  <ele>183.85</ele>
  <time>2026-09-01T20:02:42Z</time>
  <course>351.06</course>
  <speed>0.01</speed>
  <fix>3d</fix>
</trkpt>
<trkpt lat="21.1680021" lon="-156.8869713">
  <ele>184.21</ele>
  <time>2026-09-01T20:02:42Z</time>
  <course>253.29</course>
  <speed>0.01</speed>
  <fix>3d</fix>
</trkpt>
<trkpt lat="21.1680021" lon="-156.8869711">
  <ele>183.73</ele>
  <time>2026-09-01T20:02:42Z</time>
  <course>351.04</course>
  <speed>0.01</speed>
  <fix>3d</fix>
</trkpt>
<trkpt lat="21.1680021" lon="-156.8869713">
  <ele>184.21</ele>
  <time>2026-09-01T20:02:42Z</time>
  <course>253.29</course>
  <speed>0.01</speed>
  <fix>3d</fix>
</trkpt>
<trkpt lat="21.1680021" lon="-156.8869711">
  <ele>183.62</ele>
  <time>2026-09-01T20:02:42Z</time>
  <course>350.99</course>
  <speed>0.01</speed>
  <fix>3d</fix>
</trkpt>
<trkpt lat="21.1680021" lon="-156.8869713">
  <ele>183.98</ele>
  <time>2026-09-01T20:02:42Z</time>
  <course>259.08</course>
  <speed>0.01</speed>
  <fix>3d</fix>
</trkpt>
<trkpt lat="21.168002" lon="-156.8869711">
  <ele>183.5</ele>
  <time>2026-09-01T20:02:42Z</time>
  <course>350.92</course>
  <speed>0.01</speed>
  <fix>3d</fix>
</trkpt>
<trkpt lat="21.1680021" lon="-156.8869713">
  <ele>183.98</ele>
  <time>2026-09-01T20:02:42Z</time>
  <course>259.08</course>
  <speed>0.01</speed>
  <fix>3d</fix>
</trkpt>
<trkpt lat="21.168002" lon="-156.8869711">
  <ele>183.39</ele>
  <time>2026-09-01T20:02:42Z</time>
  <course>350.83</course>
  <speed>0.01</speed>
  <fix>3d</fix>
</trkpt>
<trkpt lat="21.1680021" lon="-156.8869713">
  <ele>183.75</ele>
  <time>2026-09-01T20:02:42Z</time>
  <course>262.89</course>
  <speed>0.01</speed>
  <fix>3d</fix>
</trkpt>
<trkpt lat="21.168002" lon="-156.8869711">
  <ele>183.27</ele>
  <time>2026-09-01T20:02:42Z</time>
  <course>350.77</course>
  <speed>0.01</speed>
  <fix>3d</fix>
</trkpt>
<trkpt lat="21.1680021" lon="-156.8869713">
  <ele>183.75</ele>
  <time>2026-09-01T20:02:42Z</time>
  <course>262.89</course>
  <speed>0.01</speed>
  <fix>3d</fix>
</trkpt>
<trkpt lat="21.168002" lon="-156.8869711">
  <ele>183.16</ele>
  <time>2026-09-01T20:02:42Z</time>
  <course>350.72</course>
  <speed>0.01</speed>
  <fix>3d</fix>
</trkpt>
<trkpt lat="21.1680021" lon="-156.8869713">
  <ele>183.51</ele>
  <time>2026-09-01T20:02:42Z</time>
  <course>266.02</course>
  <speed>0.01</speed>
  <fix>3d</fix>
</trkpt>
<trkpt lat="21.168002" lon="-156.8869711">
  <ele>183.04</ele>
  <time>2026-09-01T20:02:42Z</time>
  <course>350.7</course>
  <speed>0.01</speed>
  <fix>3d</fix>
</trkpt>
<trkpt lat="21.1680021" lon="-156.8869713">
  <ele>183.51</ele>
  <time>2026-09-01T20:02:42Z</time>
  <course>266.02</course>
  <speed>0.01</speed>
  <fix>3d</fix>
</trkpt>
<trkpt lat="21.168002" lon="-156.8869711">
  <ele>182.92</ele>
  <time>2026-09-01T20:02:42Z</time>
  <course>350.7</course>
  <speed>0.01</speed>
  <fix>3d</fix>
</trkpt>
<trkpt lat="21.1680021" lon="-156.8869713">
  <ele>183.28</ele>
  <time>2026-09-01T20:02:42Z</time>
  <course>267.71</course>
  <speed>0.01</speed>
  <fix>3d</fix>
</trkpt>
<trkpt lat="21.168002" lon="-156.8869712">
  <ele>182.81</ele>
  <time>2026-09-01T20:02:42Z</time>
  <course>350.71</course>
  <speed>0.01</speed>
  <fix>3d</fix>
</trkpt>
<trkpt lat="21.1680021" lon="-156.8869713">
  <ele>183.28</ele>
  <time>2026-09-01T20:02:42Z</time>
  <course>267.71</course>
  <speed>0.01</speed>
  <fix>3d</fix>
</trkpt>
<trkpt lat="21.168002" lon="-156.8869712">
  <ele>182.69</ele>
  <time>2026-09-01T20:02:42Z</time>
  <course>350.73</course>
  <speed>0.01</speed>
  <fix>3d</fix>
</trkpt>
<trkpt lat="21.1680021" lon="-156.8869714">
  <ele>183.05</ele>
  <time>2026-09-01T20:02:42Z</time>
  <course>268.48</course>
  <speed>0.01</speed>
  <fix>3d</fix>
</trkpt>
<trkpt lat="21.168002" lon="-156.8869712">
  <ele>182.57</ele>
  <time>2026-09-01T20:02:42Z</time>
  <course>350.76</course>
  <speed>0.01</speed>
  <fix>3d</fix>
</trkpt>
<trkpt lat="21.1680021" lon="-156.8869714">
  <ele>183.05</ele>
  <time>2026-09-01T20:02:42Z</time>
  <course>268.48</course>
  <speed>0.01</speed>
  <fix>3d</fix>
</trkpt>
<trkpt lat="21.168002" lon="-156.8869712">
  <ele>182.46</ele>
  <time>2026-09-01T20:02:42Z</time>
  <course>350.78</course>
  <speed>0.01</speed>
  <fix>3d</fix>
</trkpt>
<trkpt lat="21.1680021" lon="-156.8869714">
  <ele>182.82</ele>
  <time>2026-09-01T20:02:42Z</time>
  <course>269.03</course>
  <speed>0.01</speed>
  <fix>3d</fix>
</trkpt>
<trkpt lat="21.168002" lon="-156.8869712">
  <ele>182.34</ele>
  <time>2026-09-01T20:02:42Z</time>
  <course>350.8</course>
  <speed>0.01</speed>
  <fix>3d</fix>
</trkpt>
<trkpt lat="21.1680021" lon="-156.8869714">
  <ele>182.82</ele>
  <time>2026-09-01T20:02:42Z</time>
  <course>269.03</course>
  <speed>0.01</speed>
  <fix>3d</fix>
</trkpt>
<trkpt lat="21.168002" lon="-156.8869712">
  <ele>182.22</ele>
  <time>2026-09-01T20:02:42Z</time>
  <course>350.81</course>
  <speed>0.01</speed>
  <fix>3d</fix>
</trkpt>
<trkpt lat="21.1680021" lon="-156.8869714">
  <ele>182.59</ele>
  <time>2026-09-01T20:02:42Z</time>
  <course>269.81</course>
  <speed>0.01</speed>
  <fix>3d</fix>
</trkpt>
<trkpt lat="21.168002" lon="-156.8869712">
  <ele>182.11</ele>
  <time>2026-09-01T20:02:42Z</time>
  <course>350.81</course>
  <speed>0.01</speed>
  <fix>3d</fix>
</trkpt>
<trkpt lat="21.1680021" lon="-156.8869714">
  <ele>182.59</ele>
  <time>2026-09-01T20:02:42Z</time>
  <course>269.81</course>
  <speed>0.01</speed>
  <fix>3d</fix>
</trkpt>
<trkpt lat="21.168002" lon="-156.8869713">
  <ele>181.99</ele>
  <time>2026-09-01T20:02:42Z</time>
  <course>350.73</course>
  <speed>0.01414213562373095</speed>
  <fix>3d</fix>
</trkpt>
<trkpt lat="21.1680021" lon="-156.8869714">
  <ele>182.36</ele>
  <time>2026-09-01T20:02:42Z</time>
  <course>272.33</course>
  <speed>0.01</speed>
  <fix>3d</fix>
</trkpt>
<trkpt lat="21.168002" lon="-156.8869713">
  <ele>181.88</ele>
  <time>2026-09-01T20:02:42Z</time>
  <course>350.59</course>
  <speed>0.01414213562373095</speed>
  <fix>3d</fix>
</trkpt>
<trkpt lat="21.1680021" lon="-156.8869714">
  <ele>182.36</ele>
  <time>2026-09-01T20:02:42Z</time>
  <course>272.33</course>
  <speed>0.01</speed>
  <fix>3d</fix>
</trkpt>
<trkpt lat="21.168002" lon="-156.8869713">
  <ele>181.77</ele>
  <time>2026-09-01T20:02:42Z</time>
  <course>350.43</course>
  <speed>0.022360679774997897</speed>
  <fix>3d</fix>
</trkpt>
<trkpt lat="21.1680021" lon="-156.8869714">
  <ele>182.13</ele>
  <time>2026-09-01T20:02:42Z</time>
  <course>282.63</course>
  <speed>0.01</speed>
  <fix>3d</fix>
</trkpt>
<trkpt lat="21.168002" lon="-156.8869713">
  <ele>181.65</ele>
  <time>2026-09-01T20:02:42Z</time>
  <course>350.28</course>
  <speed>0.0316227766016838</speed>
  <fix>3d</fix>
</trkpt>
<trkpt lat="21.1680021" lon="-156.8869714">
  <ele>182.13</ele>
  <time>2026-09-01T20:02:42Z</time>
  <course>282.63</course>
  <speed>0.01</speed>
  <fix>3d</fix>
</trkpt>
<trkpt lat="21.168002" lon="-156.8869713">
  <ele>181.53</ele>
  <time>2026-09-01T20:02:42Z</time>
  <course>350.15</course>
  <speed>0.0316227766016838</speed>
  <fix>3d</fix>
</trkpt>
<trkpt lat="21.1680021" lon="-156.8869714">
  <ele>181.9</ele>
  <time>2026-09-01T20:02:42Z</time>
  <course>344.01</course>
  <speed>0.0</speed>
  <fix>3d</fix>
</trkpt>
<trkpt lat="21.168002" lon="-156.8869713">
  <ele>181.42</ele>
  <time>2026-09-01T20:02:42Z</time>
  <course>350.06</course>
  <speed>0.04</speed>
  <fix>3d</fix>
</trkpt>
<trkpt lat="21.1680021" lon="-156.8869714">
  <ele>181.9</ele>
  <time>2026-09-01T20:02:42Z</time>
  <course>344.01</course>
  <speed>0.0</speed>
  <fix>3d</fix>
</trkpt>
<trkpt lat="21.168002" lon="-156.8869713">
  <ele>181.3</ele>
  <time>2026-09-01T20:02:42Z</time>
  <course>350.02</course>
  <speed>0.04</speed>
  <fix>3d</fix>
</trkpt>
<trkpt lat="21.1680021" lon="-156.8869714">
  <ele>181.68</ele>
  <time>2026-09-01T20:02:42Z</time>
  <course>47.93</course>
  <speed>0.01</speed>
  <fix>3d</fix>
</trkpt>
<trkpt lat="21.168002" lon="-156.8869713">
  <ele>181.19</ele>
  <time>2026-09-01T20:02:42Z</time>
  <course>350.01</course>
  <speed>0.04</speed>
  <fix>3d</fix>
</trkpt>
<trkpt lat="21.1680021" lon="-156.8869714">
  <ele>181.68</ele>
  <time>2026-09-01T20:02:42Z</time>
  <course>47.93</course>
  <speed>0.01</speed>
  <fix>3d</fix>
</trkpt>
<trkpt lat="21.168002" lon="-156.8869712">
  <ele>181.08</ele>
  <time>2026-09-01T20:02:42Z</time>
  <course>350.04</course>
  <speed>0.05</speed>
  <fix>3d</fix>
</trkpt>
<trkpt lat="21.1680021" lon="-156.8869714">
  <ele>181.45</ele>
  <time>2026-09-01T20:02:42Z</time>
  <course>62.83</course>
  <speed>0.01</speed>
  <fix>3d</fix>
</trkpt>
<trkpt lat="21.168002" lon="-156.8869712">
  <ele>180.97</ele>
  <time>2026-09-01T20:02:42Z</time>
  <course>350.09</course>
  <speed>0.05</speed>
  <fix>3d</fix>
</trkpt>
<trkpt lat="21.1680021" lon="-156.8869714">
  <ele>181.45</ele>
  <time>2026-09-01T20:02:42Z</time>
  <course>62.83</course>
  <speed>0.01</speed>
  <fix>3d</fix>
</trkpt>
<trkpt lat="21.168002" lon="-156.8869712">
  <ele>180.85</ele>
  <time>2026-09-01T20:02:42Z</time>
  <course>350.14</course>
  <speed>0.05</speed>
  <fix>3d</fix>
</trkpt>
<trkpt lat="21.1680021" lon="-156.8869714">
  <ele>181.22</ele>
  <time>2026-09-01T20:02:42Z</time>
  <course>68.55</course>
  <speed>0.02</speed>
  <fix>3d</fix>
</trkpt>
<trkpt lat="21.168002" lon="-156.8869711">
  <ele>180.74</ele>
  <time>2026-09-01T20:02:42Z</time>
  <course>350.19</course>
  <speed>0.05</speed>
  <fix>3d</fix>
</trkpt>
<trkpt lat="21.1680021" lon="-156.8869714">
  <ele>181.22</ele>
  <time>2026-09-01T20:02:42Z</time>
  <course>68.55</course>
  <speed>0.02</speed>
  <fix>3d</fix>
</trkpt>
<trkpt lat="21.168002" lon="-156.8869711">
  <ele>180.63</ele>
  <time>2026-09-01T20:02:42Z</time>
  <course>350.22</course>
  <speed>0.05</speed>
  <fix>3d</fix>
</trkpt>
<trkpt lat="21.1680021" lon="-156.8869714">
  <ele>180.99</ele>
  <time>2026-09-01T20:02:42Z</time>
  <course>70.25</course>
  <speed>0.02</speed>
  <fix>3d</fix>
</trkpt>
<trkpt lat="21.168002" lon="-156.8869711">
  <ele>180.52</ele>
  <time>2026-09-01T20:02:42Z</time>
  <course>350.24</course>
  <speed>0.06</speed>
  <fix>3d</fix>
</trkpt>
<trkpt lat="21.1680021" lon="-156.8869714">
  <ele>180.99</ele>
  <time>2026-09-01T20:02:42Z</time>
  <course>70.25</course>
  <speed>0.02</speed>
  <fix>3d</fix>
</trkpt>
<trkpt lat="21.168002" lon="-156.886971">
  <ele>180.4</ele>
  <time>2026-09-01T20:02:42Z</time>
  <course>350.24</course>
  <speed>0.06</speed>
  <fix>3d</fix>
</trkpt>
<trkpt lat="21.1680021" lon="-156.8869714">
  <ele>180.77</ele>
  <time>2026-09-01T20:02:42Z</time>
  <course>70.09</course>
  <speed>0.03</speed>
  <fix>3d</fix>
</trkpt>
<trkpt lat="21.168002" lon="-156.886971">
  <ele>180.29</ele>
  <time>2026-09-01T20:02:42Z</time>
  <course>350.23</course>
  <speed>0.06</speed>
  <fix>3d</fix>
</trkpt>
<trkpt lat="21.1680021" lon="-156.8869714">
  <ele>180.77</ele>
  <time>2026-09-01T20:02:42Z</time>
  <course>70.09</course>
  <speed>0.03</speed>
  <fix>3d</fix>
</trkpt>
<trkpt lat="21.168002" lon="-156.886971">
  <ele>180.17</ele>
  <time>2026-09-01T20:02:42Z</time>
  <course>350.22</course>
  <speed>0.06</speed>
  <fix>3d</fix>
</trkpt>
<trkpt lat="21.1680021" lon="-156.8869714">
  <ele>180.54</ele>
  <time>2026-09-01T20:02:42Z</time>
  <course>69.22</course>
  <speed>0.03</speed>
  <fix>3d</fix>
</trkpt>
<trkpt lat="21.168002" lon="-156.886971">
  <ele>180.06</ele>
  <time>2026-09-01T20:02:42Z</time>
  <course>350.2</course>
  <speed>0.06</speed>
  <fix>3d</fix>
</trkpt>
<trkpt lat="21.1680021" lon="-156.8869714">
  <ele>180.54</ele>
  <time>2026-09-01T20:02:42Z</time>
  <course>69.22</course>
  <speed>0.03</speed>
  <fix>3d</fix>
</trkpt>
<trkpt lat="21.168002" lon="-156.8869709">
  <ele>179.95</ele>
  <time>2026-09-01T20:02:42Z</time>
  <course>350.18</course>
  <speed>0.06</speed>
  <fix>3d</fix>
</trkpt>
<trkpt lat="21.1680021" lon="-156.8869713">
  <ele>180.31</ele>
  <time>2026-09-01T20:02:42Z</time>
  <course>68.54</course>
  <speed>0.03</speed>
  <fix>3d</fix>
</trkpt>
<trkpt lat="21.168002" lon="-156.8869709">
  <ele>179.83</ele>
  <time>2026-09-01T20:02:42Z</time>
  <course>350.16</course>
  <speed>0.06</speed>
  <fix>3d</fix>
</trkpt>
<trkpt lat="21.1680021" lon="-156.8869713">
  <ele>180.31</ele>
  <time>2026-09-01T20:02:42Z</time>
  <course>68.54</course>
  <speed>0.03</speed>
  <fix>3d</fix>
</trkpt>
<trkpt lat="21.168002" lon="-156.8869709">
  <ele>179.72</ele>
  <time>2026-09-01T20:02:42Z</time>
  <course>350.14</course>
  <speed>0.05</speed>
  <fix>3d</fix>
</trkpt>
<trkpt lat="21.1680022" lon="-156.8869712">
  <ele>180.08</ele>
  <time>2026-09-01T20:02:42Z</time>
  <course>68.31</course>
  <speed>0.03</speed>
  <fix>3d</fix>
</trkpt>
<trkpt lat="21.168002" lon="-156.8869709">
  <ele>179.6</ele>
  <time>2026-09-01T20:02:42Z</time>
  <course>350.13</course>
  <speed>0.05</speed>
  <fix>3d</fix>
</trkpt>
<trkpt lat="21.1680022" lon="-156.8869712">
  <ele>180.08</ele>
  <time>2026-09-01T20:02:42Z</time>
  <course>68.31</course>
  <speed>0.03</speed>
  <fix>3d</fix>
</trkpt>
<trkpt lat="21.168002" lon="-156.8869708">
  <ele>179.49</ele>
  <time>2026-09-01T20:02:42Z</time>
  <course>350.13</course>
  <speed>0.05</speed>
  <fix>3d</fix>
</trkpt>
<trkpt lat="21.1680022" lon="-156.8869712">
  <ele>179.85</ele>
  <time>2026-09-01T20:02:42Z</time>
  <course>68.16</course>
  <speed>0.03</speed>
  <fix>3d</fix>
</trkpt>
<trkpt lat="21.168002" lon="-156.8869708">
  <ele>179.37</ele>
  <time>2026-09-01T20:02:42Z</time>
  <course>350.14</course>
  <speed>0.05</speed>
  <fix>3d</fix>
</trkpt>
<trkpt lat="21.1680022" lon="-156.8869712">
  <ele>179.85</ele>
  <time>2026-09-01T20:02:42Z</time>
  <course>68.16</course>
  <speed>0.03</speed>
  <fix>3d</fix>
</trkpt>
<trkpt lat="21.168002" lon="-156.8869708">
  <ele>179.26</ele>
  <time>2026-09-01T20:02:42Z</time>
  <course>350.15</course>
  <speed>0.05</speed>
  <fix>3d</fix>
</trkpt>
<trkpt lat="21.1680022" lon="-156.8869711">
  <ele>179.61</ele>
  <time>2026-09-01T20:02:42Z</time>
  <course>68.01</course>
  <speed>0.03</speed>
  <fix>3d</fix>
</trkpt>
<trkpt lat="21.168002" lon="-156.8869708">
  <ele>179.14</ele>
  <time>2026-09-01T20:02:42Z</time>
  <course>350.16</course>
  <speed>0.05</speed>
  <fix>3d</fix>
</trkpt>
<trkpt lat="21.1680022" lon="-156.8869711">
  <ele>179.61</ele>
  <time>2026-09-01T20:02:42Z</time>
  <course>68.01</course>
  <speed>0.03</speed>
  <fix>3d</fix>
</trkpt>
<trkpt lat="21.1680021" lon="-156.8869708">
  <ele>179.02</ele>
  <time>2026-09-01T20:02:42Z</time>
  <course>350.17</course>
  <speed>0.05</speed>
  <fix>3d</fix>
</trkpt>
<trkpt lat="21.1680022" lon="-156.886971">
  <ele>179.38</ele>
  <time>2026-09-01T20:02:42Z</time>
  <course>67.41</course>
  <speed>0.03</speed>
  <fix>3d</fix>
</trkpt>
<trkpt lat="21.1680021" lon="-156.8869707">
  <ele>178.9</ele>
  <time>2026-09-01T20:02:42Z</time>
  <course>350.17</course>
  <speed>0.04</speed>
  <fix>3d</fix>
</trkpt>
<trkpt lat="21.1680022" lon="-156.886971">
  <ele>179.38</ele>
  <time>2026-09-01T20:02:42Z</time>
  <course>67.41</course>
  <speed>0.03</speed>
  <fix>3d</fix>
</trkpt>
<trkpt lat="21.1680021" lon="-156.8869707">
  <ele>178.78</ele>
  <time>2026-09-01T20:02:42Z</time>
  <course>350.16</course>
  <speed>0.04</speed>
  <fix>3d</fix>
</trkpt>
<trkpt lat="21.1680022" lon="-156.886971">
  <ele>179.15</ele>
  <time>2026-09-01T20:02:42Z</time>
  <course>65.39</course>
  <speed>0.02</speed>
  <fix>3d</fix>
</trkpt>
<trkpt lat="21.1680021" lon="-156.8869707">
  <ele>178.67</ele>
  <time>2026-09-01T20:02:42Z</time>
  <course>350.14</course>
  <speed>0.04</speed>
  <fix>3d</fix>
</trkpt>
<trkpt lat="21.1680022" lon="-156.886971">
  <ele>179.15</ele>
  <time>2026-09-01T20:02:42Z</time>
  <course>65.39</course>
  <speed>0.02</speed>
  <fix>3d</fix>
</trkpt>
<trkpt lat="21.1680021" lon="-156.8869707">
  <ele>178.55</ele>
  <time>2026-09-01T20:02:42Z</time>
  <course>350.12</course>
  <speed>0.04</speed>
  <fix>3d</fix>
</trkpt>
<trkpt lat="21.1680022" lon="-156.886971">
  <ele>178.92</ele>
  <time>2026-09-01T20:02:42Z</time>
  <course>62.11</course>
  <speed>0.02</speed>
  <fix>3d</fix>
</trkpt>
<trkpt lat="21.1680021" lon="-156.8869707">
  <ele>178.44</ele>
  <time>2026-09-01T20:02:42Z</time>
  <course>350.09</course>
  <speed>0.04</speed>
  <fix>3d</fix>
</trkpt>
<trkpt lat="21.1680022" lon="-156.886971">
  <ele>178.92</ele>
  <time>2026-09-01T20:02:42Z</time>
  <course>62.11</course>
  <speed>0.02</speed>
  <fix>3d</fix>
</trkpt>
<trkpt lat="21.1680021" lon="-156.8869707">
  <ele>178.32</ele>
  <time>2026-09-01T20:02:42Z</time>
  <course>350.06</course>
  <speed>0.04</speed>
  <fix>3d</fix>
</trkpt>
<trkpt lat="21.1680022" lon="-156.8869709">
  <ele>178.69</ele>
  <time>2026-09-01T20:02:42Z</time>
  <course>58.05</course>
  <speed>0.02</speed>
  <fix>3d</fix>
</trkpt>
<trkpt lat="21.1680021" lon="-156.8869706">
  <ele>178.21</ele>
  <time>2026-09-01T20:02:42Z</time>
  <course>350.03</course>
  <speed>0.0412310562561766</speed>
  <fix>3d</fix>
</trkpt>
<trkpt lat="21.1680022" lon="-156.8869709">
  <ele>178.69</ele>
  <time>2026-09-01T20:02:42Z</time>
  <course>58.05</course>
  <speed>0.02</speed>
  <fix>3d</fix>
</trkpt>
<trkpt lat="21.1680021" lon="-156.8869706">
  <ele>178.1</ele>
  <time>2026-09-01T20:02:42Z</time>
  <course>350.0</course>
  <speed>0.0316227766016838</speed>
  <fix>3d</fix>
</trkpt>
<trkpt lat="21.1680022" lon="-156.8869709">
  <ele>178.46</ele>
  <time>2026-09-01T20:02:42Z</time>
  <course>53.98</course>
  <speed>0.02</speed>
  <fix>3d</fix>
</trkpt>
<trkpt lat="21.1680021" lon="-156.8869706">
  <ele>177.98</ele>
  <time>2026-09-01T20:02:42Z</time>
  <course>349.98</course>
  <speed>0.0316227766016838</speed>
  <fix>3d</fix>
</trkpt>
<trkpt lat="21.1680022" lon="-156.8869709">
  <ele>178.46</ele>
  <time>2026-09-01T20:02:42Z</time>
  <course>53.98</course>
  <speed>0.02</speed>
  <fix>3d</fix>
</trkpt>
<trkpt lat="21.1680021" lon="-156.8869706">
  <ele>177.87</ele>
  <time>2026-09-01T20:02:42Z</time>
  <course>349.96</course>
  <speed>0.0316227766016838</speed>
  <fix>3d</fix>
</trkpt>
<trkpt lat="21.1680023" lon="-156.8869709">
  <ele>178.23</ele>
  <time>2026-09-01T20:02:42Z</time>
  <course>50.53</course>
  <speed>0.01</speed>
  <fix>3d</fix>
</trkpt>
<trkpt lat="21.1680021" lon="-156.8869706">
  <ele>177.75</ele>
  <time>2026-09-01T20:02:42Z</time>
  <course>349.95</course>
  <speed>0.0316227766016838</speed>
  <fix>3d</fix>
</trkpt>
<trkpt lat="21.1680023" lon="-156.8869709">
  <ele>178.23</ele>
  <time>2026-09-01T20:02:42Z</time>
  <course>50.53</course>
  <speed>0.01</speed>
  <fix>3d</fix>
</trkpt>
<trkpt lat="21.1680021" lon="-156.8869706">
  <ele>177.64</ele>
  <time>2026-09-01T20:02:42Z</time>
  <course>349.94</course>
  <speed>0.0316227766016838</speed>
  <fix>3d</fix>
</trkpt>
<trkpt lat="21.1680024" lon="-156.8869708">
  <ele>178.0</ele>
  <time>2026-09-01T20:02:42Z</time>
  <course>46.14</course>
  <speed>0.01</speed>
  <fix>3d</fix>
</trkpt>
<trkpt lat="21.1680021" lon="-156.8869706">
  <ele>177.52</ele>
  <time>2026-09-01T20:02:42Z</time>
  <course>349.94</course>
  <speed>0.0316227766016838</speed>
  <fix>3d</fix>
</trkpt>
<trkpt lat="21.1680024" lon="-156.8869708">
  <ele>178.0</ele>
  <time>2026-09-01T20:02:42Z</time>
  <course>46.14</course>
  <speed>0.01</speed>
  <fix>3d</fix>
</trkpt>
<trkpt lat="21.1680021" lon="-156.8869706">
  <ele>177.41</ele>
  <time>2026-09-01T20:02:43Z</time>
  <course>349.94</course>
  <speed>0.0316227766016838</speed>
  <fix>3d</fix>
</trkpt>
<trkpt lat="21.1680024" lon="-156.8869708">
  <ele>177.77</ele>
  <time>2026-09-01T20:02:43Z</time>
  <course>41.36</course>
  <speed>0.01</speed>
  <fix>3d</fix>
</trkpt>
<trkpt lat="21.1680022" lon="-156.8869706">
  <ele>177.3</ele>
  <time>2026-09-01T20:02:43Z</time>
  <course>349.94</course>
  <speed>0.0316227766016838</speed>
  <fix>3d</fix>
</trkpt>
<trkpt lat="21.1680024" lon="-156.8869708">
  <ele>177.77</ele>
  <time>2026-09-01T20:02:43Z</time>
  <course>41.36</course>
  <speed>0.01</speed>
  <fix>3d</fix>
</trkpt>
<trkpt lat="21.1680022" lon="-156.8869706">
  <ele>177.18</ele>
  <time>2026-09-01T20:02:43Z</time>
  <course>349.93</course>
  <speed>0.022360679774997897</speed>
  <fix>3d</fix>
</trkpt>
<trkpt lat="21.1680024" lon="-156.8869708">
  <ele>177.54</ele>
  <time>2026-09-01T20:02:43Z</time>
  <course>36.43</course>
  <speed>0.01</speed>
  <fix>3d</fix>
</trkpt>
<trkpt lat="21.1680022" lon="-156.8869706">
  <ele>177.07</ele>
  <time>2026-09-01T20:02:43Z</time>
  <course>349.93</course>
  <speed>0.022360679774997897</speed>
  <fix>3d</fix>
</trkpt>
<trkpt lat="21.1680024" lon="-156.8869708">
  <ele>177.54</ele>
  <time>2026-09-01T20:02:43Z</time>
  <course>36.43</course>
  <speed>0.01</speed>
  <fix>3d</fix>
</trkpt>
<trkpt lat="21.1680022" lon="-156.8869706">
  <ele>176.95</ele>
  <time>2026-09-01T20:02:43Z</time>
  <course>349.92</course>
  <speed>0.022360679774997897</speed>
  <fix>3d</fix>
</trkpt>
<trkpt lat="21.1680024" lon="-156.8869708">
  <ele>177.31</ele>
  <time>2026-09-01T20:02:43Z</time>
  <course>28.11</course>
  <speed>0.01</speed>
  <fix>3d</fix>
</trkpt>
<trkpt lat="21.1680022" lon="-156.8869706">
  <ele>176.84</ele>
  <time>2026-09-01T20:02:43Z</time>
  <course>349.92</course>
  <speed>0.022360679774997897</speed>
  <fix>3d</fix>
</trkpt>
<trkpt lat="21.1680024" lon="-156.8869708">
  <ele>177.31</ele>
  <time>2026-09-01T20:02:43Z</time>
  <course>28.11</course>
  <speed>0.01</speed>
  <fix>3d</fix>
</trkpt>
<trkpt lat="21.1680022" lon="-156.8869706">
  <ele>176.72</ele>
  <time>2026-09-01T20:02:43Z</time>
  <course>349.91</course>
  <speed>0.022360679774997897</speed>
  <fix>3d</fix>
</trkpt>
<trkpt lat="21.1680024" lon="-156.8869708">
  <ele>177.08</ele>
  <time>2026-09-01T20:02:43Z</time>
  <course>14.19</course>
  <speed>0.0</speed>
  <fix>3d</fix>
</trkpt>
<trkpt lat="21.1680022" lon="-156.8869706">
  <ele>176.6</ele>
  <time>2026-09-01T20:02:43Z</time>
  <course>349.91</course>
  <speed>0.022360679774997897</speed>
  <fix>3d</fix>
</trkpt>
<trkpt lat="21.1680024" lon="-156.8869708">
  <ele>177.08</ele>
  <time>2026-09-01T20:02:43Z</time>
  <course>14.19</course>
  <speed>0.0</speed>
  <fix>3d</fix>
</trkpt>
<trkpt lat="21.1680022" lon="-156.8869706">
  <ele>176.49</ele>
  <time>2026-09-01T20:02:43Z</time>
  <course>349.89</course>
  <speed>0.022360679774997897</speed>
  <fix>3d</fix>
</trkpt>
<trkpt lat="21.1680024" lon="-156.8869708">
  <ele>176.85</ele>
  <time>2026-09-01T20:02:43Z</time>
  <course>355.47</course>
  <speed>0.0</speed>
  <fix>3d</fix>
</trkpt>
<trkpt lat="21.1680022" lon="-156.8869706">
  <ele>176.38</ele>
  <time>2026-09-01T20:02:43Z</time>
  <course>349.87</course>
  <speed>0.022360679774997897</speed>
  <fix>3d</fix>
</trkpt>
<trkpt lat="21.1680024" lon="-156.8869708">
  <ele>176.85</ele>
  <time>2026-09-01T20:02:43Z</time>
  <course>355.47</course>
  <speed>0.0</speed>
  <fix>3d</fix>
</trkpt>
<trkpt lat="21.1680022" lon="-156.8869706">
  <ele>176.26</ele>
  <time>2026-09-01T20:02:43Z</time>
  <course>349.85</course>
  <speed>0.022360679774997897</speed>
  <fix>3d</fix>
</trkpt>
<trkpt lat="21.1680025" lon="-156.8869708">
  <ele>176.62</ele>
  <time>2026-09-01T20:02:43Z</time>
  <course>339.78</course>
  <speed>0.0</speed>
  <fix>3d</fix>
</trkpt>
<trkpt lat="21.1680022" lon="-156.8869706">
  <ele>176.15</ele>
  <time>2026-09-01T20:02:43Z</time>
  <course>349.84</course>
  <speed>0.01414213562373095</speed>
  <fix>3d</fix>
</trkpt>
<trkpt lat="21.1680025" lon="-156.8869708">
  <ele>176.62</ele>
  <time>2026-09-01T20:02:43Z</time>
  <course>339.78</course>
  <speed>0.0</speed>
  <fix>3d</fix>
</trkpt>
<trkpt lat="21.1680022" lon="-156.8869706">
  <ele>176.04</ele>
  <time>2026-09-01T20:02:43Z</time>
  <course>349.84</course>
  <speed>0.01414213562373095</speed>
  <fix>3d</fix>
</trkpt>
<trkpt lat="21.1680025" lon="-156.8869708">
  <ele>176.39</ele>
  <time>2026-09-01T20:02:43Z</time>
  <course>327.39</course>
  <speed>0.0</speed>
  <fix>3d</fix>
</trkpt>
<trkpt lat="21.1680022" lon="-156.8869706">
  <ele>175.92</ele>
  <time>2026-09-01T20:02:43Z</time>
  <course>349.85</course>
  <speed>0.01414213562373095</speed>
  <fix>3d</fix>
</trkpt>
<trkpt lat="21.1680025" lon="-156.8869708">
  <ele>176.39</ele>
  <time>2026-09-01T20:02:43Z</time>
  <course>327.39</course>
  <speed>0.0</speed>
  <fix>3d</fix>
</trkpt>
<trkpt lat="21.1680023" lon="-156.8869706">
  <ele>175.81</ele>
  <time>2026-09-01T20:02:43Z</time>
  <course>349.89</course>
  <speed>0.01414213562373095</speed>
  <fix>3d</fix>
</trkpt>
<trkpt lat="21.1680025" lon="-156.8869708">
  <ele>176.16</ele>
  <time>2026-09-01T20:02:43Z</time>
  <course>307.85</course>
  <speed>0.0</speed>
  <fix>3d</fix>
</trkpt>
<trkpt lat="21.1680023" lon="-156.8869706">
  <ele>175.69</ele>
  <time>2026-09-01T20:02:43Z</time>
  <course>349.92</course>
  <speed>0.01414213562373095</speed>
  <fix>3d</fix>
</trkpt>
<trkpt lat="21.1680025" lon="-156.8869708">
  <ele>176.16</ele>
  <time>2026-09-01T20:02:43Z</time>
  <course>307.85</course>
  <speed>0.0</speed>
  <fix>3d</fix>
</trkpt>
<trkpt lat="21.1680023" lon="-156.8869706">
  <ele>175.57</ele>
  <time>2026-09-01T20:02:43Z</time>
  <course>349.92</course>
  <speed>0.01414213562373095</speed>
  <fix>3d</fix>
</trkpt>
<trkpt lat="21.1680025" lon="-156.8869708">
  <ele>175.93</ele>
  <time>2026-09-01T20:02:43Z</time>
  <course>290.18</course>
  <speed>0.01</speed>
  <fix>3d</fix>
</trkpt>
<trkpt lat="21.1680023" lon="-156.8869706">
  <ele>175.46</ele>
  <time>2026-09-01T20:02:43Z</time>
  <course>349.89</course>
  <speed>0.01414213562373095</speed>
  <fix>3d</fix>
</trkpt>
<trkpt lat="21.1680025" lon="-156.8869708">
  <ele>175.93</ele>
  <time>2026-09-01T20:02:43Z</time>
  <course>290.18</course>
  <speed>0.01</speed>
  <fix>3d</fix>
</trkpt>
<trkpt lat="21.1680023" lon="-156.8869706">
  <ele>175.34</ele>
  <time>2026-09-01T20:02:43Z</time>
  <course>349.86</course>
  <speed>0.01</speed>
  <fix>3d</fix>
</trkpt>
<trkpt lat="21.1680025" lon="-156.8869708">
  <ele>175.7</ele>
  <time>2026-09-01T20:02:43Z</time>
  <course>281.27</course>
  <speed>0.01</speed>
  <fix>3d</fix>
</trkpt>
<trkpt lat="21.1680023" lon="-156.8869706">
  <ele>175.23</ele>
  <time>2026-09-01T20:02:43Z</time>
  <course>349.82</course>
  <speed>0.01414213562373095</speed>
  <fix>3d</fix>
</trkpt>
<trkpt lat="21.1680025" lon="-156.8869708">
  <ele>175.7</ele>
  <time>2026-09-01T20:02:43Z</time>
  <course>281.27</course>
  <speed>0.01</speed>
  <fix>3d</fix>
</trkpt>
<trkpt lat="21.1680023" lon="-156.8869706">
  <ele>175.11</ele>
  <time>2026-09-01T20:02:43Z</time>
  <course>349.8</course>
  <speed>0.01</speed>
  <fix>3d</fix>
</trkpt>
<trkpt lat="21.1680025" lon="-156.8869708">
  <ele>175.47</ele>
  <time>2026-09-01T20:02:43Z</time>
  <course>275.4</course>
  <speed>0.01</speed>
  <fix>3d</fix>
</trkpt>
<trkpt lat="21.1680023" lon="-156.8869706">
  <ele>175.0</ele>
  <time>2026-09-01T20:02:43Z</time>
  <course>349.78</course>
  <speed>0.01</speed>
  <fix>3d</fix>
</trkpt>
<trkpt lat="21.1680025" lon="-156.8869708">
  <ele>175.47</ele>
  <time>2026-09-01T20:02:43Z</time>
  <course>275.4</course>
  <speed>0.01</speed>
  <fix>3d</fix>
</trkpt>
<trkpt lat="21.1680023" lon="-156.8869706">
  <ele>174.88</ele>
  <time>2026-09-01T20:02:43Z</time>
  <course>349.79</course>
  <speed>0.01414213562373095</speed>
  <fix>3d</fix>
</trkpt>
<trkpt lat="21.1680025" lon="-156.8869708">
  <ele>175.24</ele>
  <time>2026-09-01T20:02:43Z</time>
  <course>269.57</course>
  <speed>0.01</speed>
  <fix>3d</fix>
</trkpt>
<trkpt lat="21.1680023" lon="-156.8869706">
  <ele>174.77</ele>
  <time>2026-09-01T20:02:43Z</time>
  <course>349.79</course>
  <speed>0.01414213562373095</speed>
  <fix>3d</fix>
</trkpt>
<trkpt lat="21.1680025" lon="-156.8869708">
  <ele>175.24</ele>
  <time>2026-09-01T20:02:43Z</time>
  <course>269.57</course>
  <speed>0.01</speed>
  <fix>3d</fix>
</trkpt>
<trkpt lat="21.1680023" lon="-156.8869706">
  <ele>174.65</ele>
  <time>2026-09-01T20:02:43Z</time>
  <course>349.8</course>
  <speed>0.01414213562373095</speed>
  <fix>3d</fix>
</trkpt>
<trkpt lat="21.1680025" lon="-156.8869708">
  <ele>175.01</ele>
  <time>2026-09-01T20:02:43Z</time>
  <course>263.86</course>
  <speed>0.01</speed>
  <fix>3d</fix>
</trkpt>
<trkpt lat="21.1680023" lon="-156.8869706">
  <ele>174.54</ele>
  <time>2026-09-01T20:02:43Z</time>
  <course>349.79</course>
  <speed>0.022360679774997897</speed>
  <fix>3d</fix>
</trkpt>
<trkpt lat="21.1680025" lon="-156.8869708">
  <ele>175.01</ele>
  <time>2026-09-01T20:02:43Z</time>
  <course>263.86</course>
  <speed>0.01</speed>
  <fix>3d</fix>
</trkpt>
<trkpt lat="21.1680023" lon="-156.8869706">
  <ele>174.42</ele>
  <time>2026-09-01T20:02:43Z</time>
  <course>349.79</course>
  <speed>0.022360679774997897</speed>
  <fix>3d</fix>
</trkpt>
<trkpt lat="21.1680025" lon="-156.8869708">
  <ele>174.78</ele>
  <time>2026-09-01T20:02:43Z</time>
  <course>257.33</course>
  <speed>0.01</speed>
  <fix>3d</fix>
</trkpt>
<trkpt lat="21.1680023" lon="-156.8869706">
  <ele>174.31</ele>
  <time>2026-09-01T20:02:43Z</time>
  <course>349.78</course>
  <speed>0.022360679774997897</speed>
  <fix>3d</fix>
</trkpt>
<trkpt lat="21.1680025" lon="-156.8869708">
  <ele>174.78</ele>
  <time>2026-09-01T20:02:43Z</time>
  <course>257.33</course>
  <speed>0.01</speed>
  <fix>3d</fix>
</trkpt>
<trkpt lat="21.1680023" lon="-156.8869707">
  <ele>174.19</ele>
  <time>2026-09-01T20:02:43Z</time>
  <course>349.78</course>
  <speed>0.022360679774997897</speed>
  <fix>3d</fix>
</trkpt>
<trkpt lat="21.1680025" lon="-156.8869709">
  <ele>174.56</ele>
  <time>2026-09-01T20:02:43Z</time>
  <course>249.56</course>
  <speed>0.01</speed>
  <fix>3d</fix>
</trkpt>
<trkpt lat="21.1680023" lon="-156.8869707">
  <ele>174.08</ele>
  <time>2026-09-01T20:02:43Z</time>
  <course>349.78</course>
  <speed>0.022360679774997897</speed>
  <fix>3d</fix>
</trkpt>
<trkpt lat="21.1680025" lon="-156.8869709">
  <ele>174.56</ele>
  <time>2026-09-01T20:02:43Z</time>
  <course>249.56</course>
  <speed>0.01</speed>
  <fix>3d</fix>
</trkpt>
<trkpt lat="21.1680023" lon="-156.8869707">
  <ele>173.96</ele>
  <time>2026-09-01T20:02:43Z</time>
  <course>349.78</course>
  <speed>0.022360679774997897</speed>
  <fix>3d</fix>
</trkpt>
<trkpt lat="21.1680025" lon="-156.8869709">
  <ele>174.33</ele>
  <time>2026-09-01T20:02:43Z</time>
  <course>241.51</course>
  <speed>0.01</speed>
  <fix>3d</fix>
</trkpt>
<trkpt lat="21.1680023" lon="-156.8869707">
  <ele>173.84</ele>
  <time>2026-09-01T20:02:43Z</time>
  <course>349.78</course>
  <speed>0.022360679774997897</speed>
  <fix>3d</fix>
</trkpt>
<trkpt lat="21.1680025" lon="-156.8869709">
  <ele>174.33</ele>
  <time>2026-09-01T20:02:43Z</time>
  <course>241.51</course>
  <speed>0.01</speed>
  <fix>3d</fix>
</trkpt>
<trkpt lat="21.1680023" lon="-156.8869707">
  <ele>173.73</ele>
  <time>2026-09-01T20:02:43Z</time>
  <course>349.78</course>
  <speed>0.022360679774997897</speed>
  <fix>3d</fix>
</trkpt>
<trkpt lat="21.1680025" lon="-156.8869709">
  <ele>174.1</ele>
  <time>2026-09-01T20:02:43Z</time>
  <course>234.5</course>
  <speed>0.01</speed>
  <fix>3d</fix>
</trkpt>
<trkpt lat="21.1680023" lon="-156.8869707">
  <ele>173.61</ele>
  <time>2026-09-01T20:02:43Z</time>
  <course>349.78</course>
  <speed>0.022360679774997897</speed>
  <fix>3d</fix>
</trkpt>
<trkpt lat="21.1680025" lon="-156.8869709">
  <ele>174.1</ele>
  <time>2026-09-01T20:02:43Z</time>
  <course>234.5</course>
  <speed>0.01</speed>
  <fix>3d</fix>
</trkpt>
<trkpt lat="21.1680023" lon="-156.8869707">
  <ele>173.5</ele>
  <time>2026-09-01T20:02:43Z</time>
  <course>349.77</course>
  <speed>0.022360679774997897</speed>
  <fix>3d</fix>
</trkpt>
<trkpt lat="21.1680025" lon="-156.8869709">
  <ele>173.87</ele>
  <time>2026-09-01T20:02:43Z</time>
  <course>229.9</course>
  <speed>0.01</speed>
  <fix>3d</fix>
</trkpt>
<trkpt lat="21.1680023" lon="-156.8869707">
  <ele>173.39</ele>
  <time>2026-09-01T20:02:43Z</time>
  <course>349.77</course>
  <speed>0.022360679774997897</speed>
  <fix>3d</fix>
</trkpt>
<trkpt lat="21.1680025" lon="-156.8869709">
  <ele>173.87</ele>
  <time>2026-09-01T20:02:43Z</time>
  <course>229.9</course>
  <speed>0.01</speed>
  <fix>3d</fix>
</trkpt>
<trkpt lat="21.1680023" lon="-156.8869707">
  <ele>173.27</ele>
  <time>2026-09-01T20:02:43Z</time>
  <course>349.77</course>
  <speed>0.022360679774997897</speed>
  <fix>3d</fix>
</trkpt>
<trkpt lat="21.1680025" lon="-156.8869709">
  <ele>173.64</ele>
  <time>2026-09-01T20:02:43Z</time>
  <course>227.1</course>
  <speed>0.01</speed>
  <fix>3d</fix>
</trkpt>
<trkpt lat="21.1680023" lon="-156.8869707">
  <ele>173.16</ele>
  <time>2026-09-01T20:02:43Z</time>
  <course>349.76</course>
  <speed>0.022360679774997897</speed>
  <fix>3d</fix>
</trkpt>
<trkpt lat="21.1680025" lon="-156.8869709">
  <ele>173.64</ele>
  <time>2026-09-01T20:02:43Z</time>
  <course>227.1</course>
  <speed>0.01</speed>
  <fix>3d</fix>
</trkpt>
<trkpt lat="21.1680023" lon="-156.8869707">
  <ele>173.04</ele>
  <time>2026-09-01T20:02:43Z</time>
  <course>349.76</course>
  <speed>0.022360679774997897</speed>
  <fix>3d</fix>
</trkpt>
<trkpt lat="21.1680025" lon="-156.8869709">
  <ele>173.41</ele>
  <time>2026-09-01T20:02:43Z</time>
  <course>224.72</course>
  <speed>0.01</speed>
  <fix>3d</fix>
</trkpt>
<trkpt lat="21.1680023" lon="-156.8869707">
  <ele>172.93</ele>
  <time>2026-09-01T20:02:43Z</time>
  <course>349.75</course>
  <speed>0.022360679774997897</speed>
  <fix>3d</fix>
</trkpt>
<trkpt lat="21.1680025" lon="-156.8869709">
  <ele>173.41</ele>
  <time>2026-09-01T20:02:43Z</time>
  <course>224.72</course>
  <speed>0.01</speed>
  <fix>3d</fix>
</trkpt>
<trkpt lat="21.1680023" lon="-156.8869707">
  <ele>172.82</ele>
  <time>2026-09-01T20:02:43Z</time>
  <course>349.75</course>
  <speed>0.022360679774997897</speed>
  <fix>3d</fix>
</trkpt>
<trkpt lat="21.1680025" lon="-156.886971">
  <ele>173.18</ele>
  <time>2026-09-01T20:02:43Z</time>
  <course>222.88</course>
  <speed>0.01</speed>
  <fix>3d</fix>
</trkpt>
<trkpt lat="21.1680023" lon="-156.8869707">
  <ele>172.7</ele>
  <time>2026-09-01T20:02:43Z</time>
  <course>349.75</course>
  <speed>0.022360679774997897</speed>
  <fix>3d</fix>
</trkpt>
<trkpt lat="21.1680025" lon="-156.886971">
  <ele>173.18</ele>
  <time>2026-09-01T20:02:43Z</time>
  <course>222.88</course>
  <speed>0.01</speed>
  <fix>3d</fix>
</trkpt>
<trkpt lat="21.1680023" lon="-156.8869707">
  <ele>172.59</ele>
  <time>2026-09-01T20:02:43Z</time>
  <course>349.75</course>
  <speed>0.022360679774997897</speed>
  <fix>3d</fix>
</trkpt>
<trkpt lat="21.1680025" lon="-156.886971">
  <ele>172.95</ele>
  <time>2026-09-01T20:02:43Z</time>
  <course>224.44</course>
  <speed>0.01</speed>
  <fix>3d</fix>
</trkpt>
<trkpt lat="21.1680023" lon="-156.8869707">
  <ele>172.48</ele>
  <time>2026-09-01T20:02:43Z</time>
  <course>349.75</course>
  <speed>0.022360679774997897</speed>
  <fix>3d</fix>
</trkpt>
<trkpt lat="21.1680025" lon="-156.886971">
  <ele>172.95</ele>
  <time>2026-09-01T20:02:43Z</time>
  <course>224.44</course>
  <speed>0.01</speed>
  <fix>3d</fix>
</trkpt>
<trkpt lat="21.1680023" lon="-156.8869707">
  <ele>172.36</ele>
  <time>2026-09-01T20:02:43Z</time>
  <course>349.75</course>
  <speed>0.022360679774997897</speed>
  <fix>3d</fix>
</trkpt>
<trkpt lat="21.1680025" lon="-156.886971">
  <ele>172.72</ele>
  <time>2026-09-01T20:02:43Z</time>
  <course>229.08</course>
  <speed>0.01</speed>
  <fix>3d</fix>
</trkpt>
<trkpt lat="21.1680023" lon="-156.8869707">
  <ele>172.25</ele>
  <time>2026-09-01T20:02:43Z</time>
  <course>349.75</course>
  <speed>0.022360679774997897</speed>
  <fix>3d</fix>
</trkpt>
<trkpt lat="21.1680025" lon="-156.886971">
  <ele>172.72</ele>
  <time>2026-09-01T20:02:43Z</time>
  <course>229.08</course>
  <speed>0.01</speed>
  <fix>3d</fix>
</trkpt>
<trkpt lat="21.1680023" lon="-156.8869708">
  <ele>172.14</ele>
  <time>2026-09-01T20:02:43Z</time>
  <course>349.75</course>
  <speed>0.022360679774997897</speed>
  <fix>3d</fix>
</trkpt>
<trkpt lat="21.1680025" lon="-156.886971">
  <ele>172.49</ele>
  <time>2026-09-01T20:02:43Z</time>
  <course>232.52</course>
  <speed>0.01</speed>
  <fix>3d</fix>
</trkpt>
<trkpt lat="21.1680023" lon="-156.8869708">
  <ele>172.02</ele>
  <time>2026-09-01T20:02:43Z</time>
  <course>349.75</course>
  <speed>0.022360679774997897</speed>
  <fix>3d</fix>
</trkpt>
<trkpt lat="21.1680025" lon="-156.886971">
  <ele>172.49</ele>
  <time>2026-09-01T20:02:43Z</time>
  <course>232.52</course>
  <speed>0.01</speed>
  <fix>3d</fix>
</trkpt>
<trkpt lat="21.1680023" lon="-156.8869708">
  <ele>171.9</ele>
  <time>2026-09-01T20:02:43Z</time>
  <course>349.75</course>
  <speed>0.022360679774997897</speed>
  <fix>3d</fix>
</trkpt>
<trkpt lat="21.1680025" lon="-156.886971">
  <ele>172.26</ele>
  <time>2026-09-01T20:02:43Z</time>
  <course>231.32</course>
  <speed>0.01</speed>
  <fix>3d</fix>
</trkpt>
<trkpt lat="21.1680023" lon="-156.8869708">
  <ele>171.79</ele>
  <time>2026-09-01T20:02:43Z</time>
  <course>349.75</course>
  <speed>0.022360679774997897</speed>
  <fix>3d</fix>
</trkpt>
<trkpt lat="21.1680025" lon="-156.886971">
  <ele>172.26</ele>
  <time>2026-09-01T20:02:43Z</time>
  <course>231.32</course>
  <speed>0.01</speed>
  <fix>3d</fix>
</trkpt>
<trkpt lat="21.1680023" lon="-156.8869708">
  <ele>171.67</ele>
  <time>2026-09-01T20:02:43Z</time>
  <course>349.75</course>
  <speed>0.0282842712474619</speed>
  <fix>3d</fix>
</trkpt>
<trkpt lat="21.1680024" lon="-156.886971">
  <ele>172.03</ele>
  <time>2026-09-01T20:02:43Z</time>
  <course>226.81</course>
  <speed>0.01</speed>
  <fix>3d</fix>
</trkpt>
<trkpt lat="21.1680023" lon="-156.8869708">
  <ele>171.56</ele>
  <time>2026-09-01T20:02:43Z</time>
  <course>349.74</course>
  <speed>0.0282842712474619</speed>
  <fix>3d</fix>
</trkpt>
<trkpt lat="21.1680024" lon="-156.886971">
  <ele>172.03</ele>
  <time>2026-09-01T20:02:43Z</time>
  <course>226.81</course>
  <speed>0.01</speed>
  <fix>3d</fix>
</trkpt>
<trkpt lat="21.1680023" lon="-156.8869708">
  <ele>171.44</ele>
  <time>2026-09-01T20:02:43Z</time>
  <course>349.74</course>
  <speed>0.0282842712474619</speed>
  <fix>3d</fix>
</trkpt>
<trkpt lat="21.1680024" lon="-156.886971">
  <ele>171.8</ele>
  <time>2026-09-01T20:02:43Z</time>
  <course>222.13</course>
  <speed>0.01</speed>
  <fix>3d</fix>
</trkpt>
<trkpt lat="21.1680023" lon="-156.8869708">
  <ele>171.33</ele>
  <time>2026-09-01T20:02:43Z</time>
  <course>349.74</course>
  <speed>0.0282842712474619</speed>
  <fix>3d</fix>
</trkpt>
<trkpt lat="21.1680024" lon="-156.886971">
  <ele>171.8</ele>
  <time>2026-09-01T20:02:43Z</time>
  <course>222.13</course>
  <speed>0.01</speed>
  <fix>3d</fix>
</trkpt>
<trkpt lat="21.1680023" lon="-156.8869708">
  <ele>171.21</ele>
  <time>2026-09-01T20:02:43Z</time>
  <course>349.73</course>
  <speed>0.0282842712474619</speed>
  <fix>3d</fix>
</trkpt>
<trkpt lat="21.1680024" lon="-156.886971">
  <ele>171.57</ele>
  <time>2026-09-01T20:02:43Z</time>
  <course>219.15</course>
  <speed>0.01</speed>
  <fix>3d</fix>
</trkpt>
<trkpt lat="21.1680023" lon="-156.8869708">
  <ele>171.1</ele>
  <time>2026-09-01T20:02:43Z</time>
  <course>349.72</course>
  <speed>0.0282842712474619</speed>
  <fix>3d</fix>
</trkpt>
<trkpt lat="21.1680024" lon="-156.886971">
  <ele>171.57</ele>
  <time>2026-09-01T20:02:43Z</time>
  <course>219.15</course>
  <speed>0.01</speed>
  <fix>3d</fix>
</trkpt>
<trkpt lat="21.1680023" lon="-156.8869708">
  <ele>170.98</ele>
  <time>2026-09-01T20:02:43Z</time>
  <course>349.71</course>
  <speed>0.0282842712474619</speed>
  <fix>3d</fix>
</trkpt>
<trkpt lat="21.1680024" lon="-156.886971">
  <ele>171.34</ele>
  <time>2026-09-01T20:02:43Z</time>
  <course>219.29</course>
  <speed>0.01</speed>
  <fix>3d</fix>
</trkpt>
<trkpt lat="21.1680023" lon="-156.8869708">
  <ele>170.87</ele>
  <time>2026-09-01T20:02:43Z</time>
  <course>349.69</course>
  <speed>0.0316227766016838</speed>
  <fix>3d</fix>
</trkpt>
<trkpt lat="21.1680024" lon="-156.886971">
  <ele>171.34</ele>
  <time>2026-09-01T20:02:43Z</time>
  <course>219.29</course>
  <speed>0.01</speed>
  <fix>3d</fix>
</trkpt>
<trkpt lat="21.1680023" lon="-156.8869708">
  <ele>170.75</ele>
  <time>2026-09-01T20:02:43Z</time>
  <course>349.66</course>
  <speed>0.0282842712474619</speed>
  <fix>3d</fix>
</trkpt>
<trkpt lat="21.1680024" lon="-156.886971">
  <ele>171.11</ele>
  <time>2026-09-01T20:02:43Z</time>
  <course>221.23</course>
  <speed>0.01</speed>
  <fix>3d</fix>
</trkpt>
<trkpt lat="21.1680023" lon="-156.8869708">
  <ele>170.63</ele>
  <time>2026-09-01T20:02:43Z</time>
  <course>349.65</course>
  <speed>0.0282842712474619</speed>
  <fix>3d</fix>
</trkpt>
<trkpt lat="21.1680024" lon="-156.886971">
  <ele>171.11</ele>
  <time>2026-09-01T20:02:43Z</time>
  <course>221.23</course>
  <speed>0.01</speed>
  <fix>3d</fix>
</trkpt>
<trkpt lat="21.1680023" lon="-156.8869708">
  <ele>170.52</ele>
  <time>2026-09-01T20:02:43Z</time>
  <course>349.64</course>
  <speed>0.0282842712474619</speed>
  <fix>3d</fix>
</trkpt>
<trkpt lat="21.1680024" lon="-156.886971">
  <ele>170.88</ele>
  <time>2026-09-01T20:02:43Z</time>
  <course>222.59</course>
  <speed>0.01</speed>
  <fix>3d</fix>
</trkpt>
<trkpt lat="21.1680023" lon="-156.8869708">
  <ele>170.4</ele>
  <time>2026-09-01T20:02:43Z</time>
  <course>349.64</course>
  <speed>0.0282842712474619</speed>
  <fix>3d</fix>
</trkpt>
<trkpt lat="21.1680024" lon="-156.886971">
  <ele>170.88</ele>
  <time>2026-09-01T20:02:43Z</time>
  <course>222.59</course>
  <speed>0.01</speed>
  <fix>3d</fix>
</trkpt>
<trkpt lat="21.1680023" lon="-156.8869708">
  <ele>170.28</ele>
  <time>2026-09-01T20:02:43Z</time>
  <course>349.65</course>
  <speed>0.0282842712474619</speed>
  <fix>3d</fix>
</trkpt>
<trkpt lat="21.1680023" lon="-156.8869711">
  <ele>170.64</ele>
  <time>2026-09-01T20:02:43Z</time>
  <course>223.75</course>
  <speed>0.01</speed>
  <fix>3d</fix>
</trkpt>
<trkpt lat="21.1680023" lon="-156.8869708">
  <ele>170.17</ele>
  <time>2026-09-01T20:02:43Z</time>
  <course>349.65</course>
  <speed>0.022360679774997897</speed>
  <fix>3d</fix>
</trkpt>
<trkpt lat="21.1680023" lon="-156.8869711">
  <ele>170.64</ele>
  <time>2026-09-01T20:02:43Z</time>
  <course>223.75</course>
  <speed>0.01</speed>
  <fix>3d</fix>
</trkpt>
<trkpt lat="21.1680022" lon="-156.8869708">
  <ele>170.05</ele>
  <time>2026-09-01T20:02:43Z</time>
  <course>349.65</course>
  <speed>0.022360679774997897</speed>
  <fix>3d</fix>
</trkpt>
<trkpt lat="21.1680022" lon="-156.8869712">
  <ele>170.41</ele>
  <time>2026-09-01T20:02:43Z</time>
  <course>226.43</course>
  <speed>0.01</speed>
  <fix>3d</fix>
</trkpt>
<trkpt lat="21.1680022" lon="-156.8869708">
  <ele>169.93</ele>
  <time>2026-09-01T20:02:43Z</time>
  <course>349.64</course>
  <speed>0.0282842712474619</speed>
  <fix>3d</fix>
</trkpt>
<trkpt lat="21.1680022" lon="-156.8869712">
  <ele>170.41</ele>
  <time>2026-09-01T20:02:43Z</time>
  <course>226.43</course>
  <speed>0.01</speed>
  <fix>3d</fix>
</trkpt>
<trkpt lat="21.1680022" lon="-156.8869708">
  <ele>169.81</ele>
  <time>2026-09-01T20:02:43Z</time>
  <course>349.63</course>
  <speed>0.0282842712474619</speed>
  <fix>3d</fix>
</trkpt>
<trkpt lat="21.1680022" lon="-156.8869712">
  <ele>170.18</ele>
  <time>2026-09-01T20:02:43Z</time>
  <course>228.45</course>
  <speed>0.01</speed>
  <fix>3d</fix>
</trkpt>
<trkpt lat="21.1680022" lon="-156.8869708">
  <ele>169.7</ele>
  <time>2026-09-01T20:02:43Z</time>
  <course>349.63</course>
  <speed>0.0282842712474619</speed>
  <fix>3d</fix>
</trkpt>
<trkpt lat="21.1680022" lon="-156.8869712">
  <ele>170.18</ele>
  <time>2026-09-01T20:02:43Z</time>
  <course>228.45</course>
  <speed>0.01</speed>
  <fix>3d</fix>
</trkpt>
<trkpt lat="21.1680022" lon="-156.8869708">
  <ele>169.59</ele>
  <time>2026-09-01T20:02:43Z</time>
  <course>349.63</course>
  <speed>0.0282842712474619</speed>
  <fix>3d</fix>
</trkpt>
<trkpt lat="21.1680022" lon="-156.8869712">
  <ele>169.96</ele>
  <time>2026-09-01T20:02:43Z</time>
  <course>228.88</course>
  <speed>0.01</speed>
  <fix>3d</fix>
</trkpt>
<trkpt lat="21.1680022" lon="-156.8869708">
  <ele>169.47</ele>
  <time>2026-09-01T20:02:43Z</time>
  <course>349.63</course>
  <speed>0.0282842712474619</speed>
  <fix>3d</fix>
</trkpt>
<trkpt lat="21.1680022" lon="-156.8869712">
  <ele>169.96</ele>
  <time>2026-09-01T20:02:43Z</time>
  <course>228.88</course>
  <speed>0.01</speed>
  <fix>3d</fix>
</trkpt>
<trkpt lat="21.1680022" lon="-156.8869708">
  <ele>169.36</ele>
  <time>2026-09-01T20:02:43Z</time>
  <course>349.64</course>
  <speed>0.022360679774997897</speed>
  <fix>3d</fix>
</trkpt>
<trkpt lat="21.1680022" lon="-156.8869712">
  <ele>169.73</ele>
  <time>2026-09-01T20:02:43Z</time>
  <course>232.36</course>
  <speed>0.01</speed>
  <fix>3d</fix>
</trkpt>
<trkpt lat="21.1680022" lon="-156.8869709">
  <ele>169.25</ele>
  <time>2026-09-01T20:02:43Z</time>
  <course>349.67</course>
  <speed>0.022360679774997897</speed>
  <fix>3d</fix>
</trkpt>
<trkpt lat="21.1680022" lon="-156.8869712">
  <ele>169.73</ele>
  <time>2026-09-01T20:02:43Z</time>
  <course>232.36</course>
  <speed>0.01</speed>
  <fix>3d</fix>
</trkpt>
<trkpt lat="21.1680021" lon="-156.8869709">
  <ele>169.13</ele>
  <time>2026-09-01T20:02:43Z</time>
  <course>349.69</course>
  <speed>0.0282842712474619</speed>
  <fix>3d</fix>
</trkpt>
<trkpt lat="21.1680022" lon="-156.8869712">
  <ele>169.5</ele>
  <time>2026-09-01T20:02:43Z</time>
  <course>237.79</course>
  <speed>0.01</speed>
  <fix>3d</fix>
</trkpt>
<trkpt lat="21.1680021" lon="-156.8869709">
  <ele>169.02</ele>
  <time>2026-09-01T20:02:43Z</time>
  <course>349.71</course>
  <speed>0.0282842712474619</speed>
  <fix>3d</fix>
</trkpt>
<trkpt lat="21.1680022" lon="-156.8869712">
  <ele>169.5</ele>
  <time>2026-09-01T20:02:43Z</time>
  <course>237.79</course>
  <speed>0.01</speed>
  <fix>3d</fix>
</trkpt>
<trkpt lat="21.1680021" lon="-156.8869709">
  <ele>168.91</ele>
  <time>2026-09-01T20:02:43Z</time>
  <course>349.72</course>
  <speed>0.0282842712474619</speed>
  <fix>3d</fix>
</trkpt>
<trkpt lat="21.1680022" lon="-156.8869712">
  <ele>169.27</ele>
  <time>2026-09-01T20:02:43Z</time>
  <course>241.88</course>
  <speed>0.01</speed>
  <fix>3d</fix>
</trkpt>
<trkpt lat="21.1680021" lon="-156.8869709">
  <ele>168.79</ele>
  <time>2026-09-01T20:02:43Z</time>
  <course>349.73</course>
  <speed>0.0282842712474619</speed>
  <fix>3d</fix>
</trkpt>
<trkpt lat="21.1680022" lon="-156.8869712">
  <ele>169.27</ele>
  <time>2026-09-01T20:02:43Z</time>
  <course>241.88</course>
  <speed>0.01</speed>
  <fix>3d</fix>
</trkpt>
<trkpt lat="21.1680021" lon="-156.8869709">
  <ele>168.68</ele>
  <time>2026-09-01T20:02:43Z</time>
  <course>349.74</course>
  <speed>0.01414213562373095</speed>
  <fix>3d</fix>
</trkpt>
<trkpt lat="21.1680022" lon="-156.8869713">
  <ele>169.05</ele>
  <time>2026-09-01T20:02:43Z</time>
  <course>247.73</course>
  <speed>0.0</speed>
  <fix>3d</fix>
</trkpt>
<trkpt lat="21.1680021" lon="-156.8869709">
  <ele>168.56</ele>
  <time>2026-09-01T20:02:43Z</time>
  <course>349.75</course>
  <speed>0.01414213562373095</speed>
  <fix>3d</fix>
</trkpt>
<trkpt lat="21.1680022" lon="-156.8869713">
  <ele>169.05</ele>
  <time>2026-09-01T20:02:43Z</time>
  <course>247.73</course>
  <speed>0.0</speed>
  <fix>3d</fix>
</trkpt>
<trkpt lat="21.1680021" lon="-156.8869709">
  <ele>168.45</ele>
  <time>2026-09-01T20:02:43Z</time>
  <course>349.76</course>
  <speed>0.022360679774997897</speed>
  <fix>3d</fix>
</trkpt>
<trkpt lat="21.1680022" lon="-156.8869713">
  <ele>168.82</ele>
  <time>2026-09-01T20:02:43Z</time>
  <course>254.69</course>
  <speed>0.01</speed>
  <fix>3d</fix>
</trkpt>
<trkpt lat="21.1680021" lon="-156.886971">
  <ele>168.33</ele>
  <time>2026-09-01T20:02:43Z</time>
  <course>349.77</course>
  <speed>0.022360679774997897</speed>
  <fix>3d</fix>
</trkpt>
<trkpt lat="21.1680022" lon="-156.8869713">
  <ele>168.82</ele>
  <time>2026-09-01T20:02:43Z</time>
  <course>254.69</course>
  <speed>0.01</speed>
  <fix>3d</fix>
</trkpt>
<trkpt lat="21.1680021" lon="-156.886971">
  <ele>168.22</ele>
  <time>2026-09-01T20:02:43Z</time>
  <course>349.77</course>
  <speed>0.01414213562373095</speed>
  <fix>3d</fix>
</trkpt>
<trkpt lat="21.1680022" lon="-156.8869713">
  <ele>168.59</ele>
  <time>2026-09-01T20:02:43Z</time>
  <course>258.81</course>
  <speed>0.01</speed>
  <fix>3d</fix>
</trkpt>
<trkpt lat="21.1680021" lon="-156.886971">
  <ele>168.11</ele>
  <time>2026-09-01T20:02:43Z</time>
  <course>349.77</course>
  <speed>0.01414213562373095</speed>
  <fix>3d</fix>
</trkpt>
<trkpt lat="21.1680022" lon="-156.8869713">
  <ele>168.59</ele>
  <time>2026-09-01T20:02:43Z</time>
  <course>258.81</course>
  <speed>0.01</speed>
  <fix>3d</fix>
</trkpt>
<trkpt lat="21.1680021" lon="-156.886971">
  <ele>167.99</ele>
  <time>2026-09-01T20:02:43Z</time>
  <course>349.77</course>
  <speed>0.01414213562373095</speed>
  <fix>3d</fix>
</trkpt>
<trkpt lat="21.1680022" lon="-156.8869713">
  <ele>168.36</ele>
  <time>2026-09-01T20:02:43Z</time>
  <course>263.52</course>
  <speed>0.01</speed>
  <fix>3d</fix>
</trkpt>
<trkpt lat="21.1680021" lon="-156.886971">
  <ele>167.88</ele>
  <time>2026-09-01T20:02:43Z</time>
  <course>349.77</course>
  <speed>0.01414213562373095</speed>
  <fix>3d</fix>
</trkpt>
<trkpt lat="21.1680022" lon="-156.8869713">
  <ele>168.36</ele>
  <time>2026-09-01T20:02:43Z</time>
  <course>263.52</course>
  <speed>0.01</speed>
  <fix>3d</fix>
</trkpt>
<trkpt lat="21.1680021" lon="-156.886971">
  <ele>167.76</ele>
  <time>2026-09-01T20:02:43Z</time>
  <course>349.78</course>
  <speed>0.01414213562373095</speed>
  <fix>3d</fix>
</trkpt>
<trkpt lat="21.1680022" lon="-156.8869713">
  <ele>168.13</ele>
  <time>2026-09-01T20:02:43Z</time>
  <course>271.71</course>
  <speed>0.01</speed>
  <fix>3d</fix>
</trkpt>
<trkpt lat="21.1680021" lon="-156.886971">
  <ele>167.65</ele>
  <time>2026-09-01T20:02:43Z</time>
  <course>349.77</course>
  <speed>0.01414213562373095</speed>
  <fix>3d</fix>
</trkpt>
<trkpt lat="21.1680022" lon="-156.8869713">
  <ele>168.13</ele>
  <time>2026-09-01T20:02:43Z</time>
  <course>271.71</course>
  <speed>0.01</speed>
  <fix>3d</fix>
</trkpt>
<trkpt lat="21.1680021" lon="-156.886971">
  <ele>167.54</ele>
  <time>2026-09-01T20:02:43Z</time>
  <course>349.76</course>
  <speed>0.01414213562373095</speed>
  <fix>3d</fix>
</trkpt>
<trkpt lat="21.1680022" lon="-156.8869714">
  <ele>167.9</ele>
  <time>2026-09-01T20:02:43Z</time>
  <course>280.77</course>
  <speed>0.01</speed>
  <fix>3d</fix>
</trkpt>
<trkpt lat="21.1680021" lon="-156.886971">
  <ele>167.42</ele>
  <time>2026-09-01T20:02:43Z</time>
  <course>349.74</course>
  <speed>0.022360679774997897</speed>
  <fix>3d</fix>
</trkpt>
<trkpt lat="21.1680022" lon="-156.8869714">
  <ele>167.9</ele>
  <time>2026-09-01T20:02:43Z</time>
  <course>280.77</course>
  <speed>0.01</speed>
  <fix>3d</fix>
</trkpt>
<trkpt lat="21.1680021" lon="-156.8869711">
  <ele>167.31</ele>
  <time>2026-09-01T20:02:43Z</time>
  <course>349.74</course>
  <speed>0.022360679774997897</speed>
  <fix>3d</fix>
</trkpt>
<trkpt lat="21.1680022" lon="-156.8869714">
  <ele>167.67</ele>
  <time>2026-09-01T20:02:43Z</time>
  <course>290.54</course>
  <speed>0.01</speed>
  <fix>3d</fix>
</trkpt>
<trkpt lat="21.1680021" lon="-156.8869711">
  <ele>167.2</ele>
  <time>2026-09-01T20:02:43Z</time>
  <course>349.76</course>
  <speed>0.022360679774997897</speed>
  <fix>3d</fix>
</trkpt>
<trkpt lat="21.1680022" lon="-156.8869714">
  <ele>167.67</ele>
  <time>2026-09-01T20:02:43Z</time>
  <course>290.54</course>
  <speed>0.01</speed>
  <fix>3d</fix>
</trkpt>
<trkpt lat="21.1680021" lon="-156.8869711">
  <ele>167.08</ele>
  <time>2026-09-01T20:02:43Z</time>
  <course>349.8</course>
  <speed>0.01414213562373095</speed>
  <fix>3d</fix>
</trkpt>
<trkpt lat="21.1680022" lon="-156.8869714">
  <ele>167.44</ele>
  <time>2026-09-01T20:02:43Z</time>
  <course>295.55</course>
  <speed>0.01</speed>
  <fix>3d</fix>
</trkpt>
<trkpt lat="21.1680021" lon="-156.8869711">
  <ele>166.97</ele>
  <time>2026-09-01T20:02:43Z</time>
  <course>349.85</course>
  <speed>0.01414213562373095</speed>
  <fix>3d</fix>
</trkpt>
<trkpt lat="21.1680022" lon="-156.8869714">
  <ele>167.44</ele>
  <time>2026-09-01T20:02:43Z</time>
  <course>295.55</course>
  <speed>0.01</speed>
  <fix>3d</fix>
</trkpt>
<trkpt lat="21.1680021" lon="-156.8869711">
  <ele>166.85</ele>
  <time>2026-09-01T20:02:43Z</time>
  <course>349.89</course>
  <speed>0.01414213562373095</speed>
  <fix>3d</fix>
</trkpt>
<trkpt lat="21.1680022" lon="-156.8869714">
  <ele>167.21</ele>
  <time>2026-09-01T20:02:43Z</time>
  <course>291.54</course>
  <speed>0.01</speed>
  <fix>3d</fix>
</trkpt>
<trkpt lat="21.1680021" lon="-156.8869711">
  <ele>166.74</ele>
  <time>2026-09-01T20:02:43Z</time>
  <course>349.92</course>
  <speed>0.01414213562373095</speed>
  <fix>3d</fix>
</trkpt>
<trkpt lat="21.1680022" lon="-156.8869714">
  <ele>167.21</ele>
  <time>2026-09-01T20:02:43Z</time>
  <course>291.54</course>
  <speed>0.01</speed>
  <fix>3d</fix>
</trkpt>
<trkpt lat="21.1680021" lon="-156.8869711">
  <ele>166.62</ele>
  <time>2026-09-01T20:02:43Z</time>
  <course>349.95</course>
  <speed>0.01414213562373095</speed>
  <fix>3d</fix>
</trkpt>
<trkpt lat="21.1680022" lon="-156.8869714">
  <ele>166.98</ele>
  <time>2026-09-01T20:02:43Z</time>
  <course>285.93</course>
  <speed>0.01</speed>
  <fix>3d</fix>
</trkpt>
<trkpt lat="21.1680021" lon="-156.8869711">
  <ele>166.5</ele>
  <time>2026-09-01T20:02:43Z</time>
  <course>349.96</course>
  <speed>0.01414213562373095</speed>
  <fix>3d</fix>
</trkpt>
<trkpt lat="21.1680022" lon="-156.8869714">
  <ele>166.98</ele>
  <time>2026-09-01T20:02:43Z</time>
  <course>285.93</course>
  <speed>0.01</speed>
  <fix>3d</fix>
</trkpt>
<trkpt lat="21.1680021" lon="-156.8869711">
  <ele>166.38</ele>
  <time>2026-09-01T20:02:43Z</time>
  <course>349.93</course>
  <speed>0.01414213562373095</speed>
  <fix>3d</fix>
</trkpt>
<trkpt lat="21.1680022" lon="-156.8869714">
  <ele>166.75</ele>
  <time>2026-09-01T20:02:43Z</time>
  <course>284.38</course>
  <speed>0.01</speed>
  <fix>3d</fix>
</trkpt>
<trkpt lat="21.1680021" lon="-156.8869712">
  <ele>166.27</ele>
  <time>2026-09-01T20:02:43Z</time>
  <course>349.88</course>
  <speed>0.022360679774997897</speed>
  <fix>3d</fix>
</trkpt>
<trkpt lat="21.1680022" lon="-156.8869714">
  <ele>166.75</ele>
  <time>2026-09-01T20:02:43Z</time>
  <course>284.38</course>
  <speed>0.01</speed>
  <fix>3d</fix>
</trkpt>
<trkpt lat="21.1680021" lon="-156.8869712">
  <ele>166.15</ele>
  <time>2026-09-01T20:02:43Z</time>
  <course>349.83</course>
  <speed>0.022360679774997897</speed>
  <fix>3d</fix>
</trkpt>
<trkpt lat="21.1680022" lon="-156.8869714">
  <ele>166.51</ele>
  <time>2026-09-01T20:02:43Z</time>
  <course>289.16</course>
  <speed>0.01</speed>
  <fix>3d</fix>
</trkpt>
<trkpt lat="21.1680021" lon="-156.8869712">
  <ele>166.03</ele>
  <time>2026-09-01T20:02:43Z</time>
  <course>349.78</course>
  <speed>0.022360679774997897</speed>
  <fix>3d</fix>
</trkpt>
<trkpt lat="21.1680022" lon="-156.8869714">
  <ele>166.51</ele>
  <time>2026-09-01T20:02:43Z</time>
  <course>289.16</course>
  <speed>0.01</speed>
  <fix>3d</fix>
</trkpt>
<trkpt lat="21.1680021" lon="-156.8869712">
  <ele>165.91</ele>
  <time>2026-09-01T20:02:43Z</time>
  <course>349.75</course>
  <speed>0.022360679774997897</speed>
  <fix>3d</fix>
</trkpt>
<trkpt lat="21.1680022" lon="-156.8869714">
  <ele>166.28</ele>
  <time>2026-09-01T20:02:43Z</time>
  <course>299.18</course>
  <speed>0.0</speed>
  <fix>3d</fix>
</trkpt>
<trkpt lat="21.1680021" lon="-156.8869712">
  <ele>165.8</ele>
  <time>2026-09-01T20:02:43Z</time>
  <course>349.73</course>
  <speed>0.022360679774997897</speed>
  <fix>3d</fix>
</trkpt>
<trkpt lat="21.1680022" lon="-156.8869714">
  <ele>166.28</ele>
  <time>2026-09-01T20:02:43Z</time>
  <course>299.18</course>
  <speed>0.0</speed>
  <fix>3d</fix>
</trkpt>
<trkpt lat="21.1680021" lon="-156.8869712">
  <ele>165.68</ele>
  <time>2026-09-01T20:02:43Z</time>
  <course>349.73</course>
  <speed>0.022360679774997897</speed>
  <fix>3d</fix>
</trkpt>
<trkpt lat="21.1680022" lon="-156.8869714">
  <ele>166.05</ele>
  <time>2026-09-01T20:02:43Z</time>
  <course>308.33</course>
  <speed>0.0</speed>
  <fix>3d</fix>
</trkpt>
<trkpt lat="21.1680021" lon="-156.8869712">
  <ele>165.56</ele>
  <time>2026-09-01T20:02:43Z</time>
  <course>349.74</course>
  <speed>0.022360679774997897</speed>
  <fix>3d</fix>
</trkpt>
<trkpt lat="21.1680022" lon="-156.8869714">
  <ele>166.05</ele>
  <time>2026-09-01T20:02:43Z</time>
  <course>308.33</course>
  <speed>0.0</speed>
  <fix>3d</fix>
</trkpt>
<trkpt lat="21.1680021" lon="-156.8869712">
  <ele>165.45</ele>
  <time>2026-09-01T20:02:43Z</time>
  <course>349.77</course>
  <speed>0.022360679774997897</speed>
  <fix>3d</fix>
</trkpt>
<trkpt lat="21.1680022" lon="-156.8869714">
  <ele>165.82</ele>
  <time>2026-09-01T20:02:43Z</time>
  <course>313.21</course>
  <speed>0.0</speed>
  <fix>3d</fix>
</trkpt>
<trkpt lat="21.1680021" lon="-156.8869712">
  <ele>165.33</ele>
  <time>2026-09-01T20:02:43Z</time>
  <course>349.82</course>
  <speed>0.022360679774997897</speed>
  <fix>3d</fix>
</trkpt>
<trkpt lat="21.1680022" lon="-156.8869714">
  <ele>165.82</ele>
  <time>2026-09-01T20:02:43Z</time>
  <course>313.21</course>
  <speed>0.0</speed>
  <fix>3d</fix>
</trkpt>
<trkpt lat="21.1680021" lon="-156.8869712">
  <ele>165.22</ele>
  <time>2026-09-01T20:02:43Z</time>
  <course>349.87</course>
  <speed>0.022360679774997897</speed>
  <fix>3d</fix>
</trkpt>
<trkpt lat="21.1680022" lon="-156.8869715">
  <ele>165.6</ele>
  <time>2026-09-01T20:02:43Z</time>
  <course>310.67</course>
  <speed>0.0</speed>
  <fix>3d</fix>
</trkpt>
<trkpt lat="21.1680021" lon="-156.8869712">
  <ele>165.1</ele>
  <time>2026-09-01T20:02:43Z</time>
  <course>349.91</course>
  <speed>0.022360679774997897</speed>
  <fix>3d</fix>
</trkpt>
<trkpt lat="21.1680022" lon="-156.8869715">
  <ele>165.6</ele>
  <time>2026-09-01T20:02:43Z</time>
  <course>310.67</course>
  <speed>0.0</speed>
  <fix>3d</fix>
</trkpt>
<trkpt lat="21.1680021" lon="-156.8869712">
  <ele>164.99</ele>
  <time>2026-09-01T20:02:43Z</time>
  <course>349.95</course>
  <speed>0.022360679774997897</speed>
  <fix>3d</fix>
</trkpt>
<trkpt lat="21.1680022" lon="-156.8869715">
  <ele>165.37</ele>
  <time>2026-09-01T20:02:43Z</time>
  <course>305.2</course>
  <speed>0.0</speed>
  <fix>3d</fix>
</trkpt>
<trkpt lat="21.1680021" lon="-156.8869712">
  <ele>164.88</ele>
  <time>2026-09-01T20:02:43Z</time>
  <course>349.99</course>
  <speed>0.022360679774997897</speed>
  <fix>3d</fix>
</trkpt>
<trkpt lat="21.1680022" lon="-156.8869715">
  <ele>165.37</ele>
  <time>2026-09-01T20:02:43Z</time>
  <course>305.2</course>
  <speed>0.0</speed>
  <fix>3d</fix>
</trkpt>
<trkpt lat="21.1680021" lon="-156.8869712">
  <ele>164.76</ele>
  <time>2026-09-01T20:02:43Z</time>
  <course>350.01</course>
  <speed>0.022360679774997897</speed>
  <fix>3d</fix>
</trkpt>
<trkpt lat="21.1680022" lon="-156.8869715">
  <ele>165.14</ele>
  <time>2026-09-01T20:02:43Z</time>
  <course>300.99</course>
  <speed>0.0</speed>
  <fix>3d</fix>
</trkpt>
<trkpt lat="21.1680021" lon="-156.8869712">
  <ele>164.65</ele>
  <time>2026-09-01T20:02:43Z</time>
  <course>350.03</course>
  <speed>0.022360679774997897</speed>
  <fix>3d</fix>
</trkpt>
<trkpt lat="21.1680022" lon="-156.8869715">
  <ele>165.14</ele>
  <time>2026-09-01T20:02:43Z</time>
  <course>300.99</course>
  <speed>0.0</speed>
  <fix>3d</fix>
</trkpt>
<trkpt lat="21.1680021" lon="-156.8869712">
  <ele>164.54</ele>
  <time>2026-09-01T20:02:43Z</time>
  <course>350.02</course>
  <speed>0.022360679774997897</speed>
  <fix>3d</fix>
</trkpt>
<trkpt lat="21.1680022" lon="-156.8869715">
  <ele>164.92</ele>
  <time>2026-09-01T20:02:43Z</time>
  <course>296.8</course>
  <speed>0.0</speed>
  <fix>3d</fix>
</trkpt>
<trkpt lat="21.1680021" lon="-156.8869712">
  <ele>164.42</ele>
  <time>2026-09-01T20:02:43Z</time>
  <course>350.0</course>
  <speed>0.022360679774997897</speed>
  <fix>3d</fix>
</trkpt>
<trkpt lat="21.1680022" lon="-156.8869715">
  <ele>164.92</ele>
  <time>2026-09-01T20:02:43Z</time>
  <course>296.8</course>
  <speed>0.0</speed>
  <fix>3d</fix>
</trkpt>
<trkpt lat="21.1680021" lon="-156.8869712">
  <ele>164.31</ele>
  <time>2026-09-01T20:02:43Z</time>
  <course>349.96</course>
  <speed>0.022360679774997897</speed>
  <fix>3d</fix>
</trkpt>
<trkpt lat="21.1680022" lon="-156.8869715">
  <ele>164.69</ele>
  <time>2026-09-01T20:02:43Z</time>
  <course>298.75</course>
  <speed>0.0</speed>
  <fix>3d</fix>
</trkpt>
<trkpt lat="21.1680021" lon="-156.8869712">
  <ele>164.19</ele>
  <time>2026-09-01T20:02:43Z</time>
  <course>349.92</course>
  <speed>0.022360679774997897</speed>
  <fix>3d</fix>
</trkpt>
<trkpt lat="21.1680022" lon="-156.8869715">
  <ele>164.69</ele>
  <time>2026-09-01T20:02:43Z</time>
  <course>298.75</course>
  <speed>0.0</speed>
  <fix>3d</fix>
</trkpt>
<trkpt lat="21.1680021" lon="-156.8869712">
  <ele>164.08</ele>
  <time>2026-09-01T20:02:43Z</time>
  <course>349.88</course>
  <speed>0.022360679774997897</speed>
  <fix>3d</fix>
</trkpt>
<trkpt lat="21.1680022" lon="-156.8869715">
  <ele>164.46</ele>
  <time>2026-09-01T20:02:43Z</time>
  <course>307.67</course>
  <speed>0.0</speed>
  <fix>3d</fix>
</trkpt>
<trkpt lat="21.1680021" lon="-156.8869712">
  <ele>163.97</ele>
  <time>2026-09-01T20:02:43Z</time>
  <course>349.86</course>
  <speed>0.022360679774997897</speed>
  <fix>3d</fix>
</trkpt>
<trkpt lat="21.1680022" lon="-156.8869715">
  <ele>164.46</ele>
  <time>2026-09-01T20:02:43Z</time>
  <course>307.67</course>
  <speed>0.0</speed>
  <fix>3d</fix>
</trkpt>
<trkpt lat="21.1680021" lon="-156.8869712">
  <ele>163.86</ele>
  <time>2026-09-01T20:02:43Z</time>
  <course>349.85</course>
  <speed>0.022360679774997897</speed>
  <fix>3d</fix>
</trkpt>
<trkpt lat="21.1680022" lon="-156.8869715">
  <ele>164.24</ele>
  <time>2026-09-01T20:02:43Z</time>
  <course>316.93</course>
  <speed>0.0</speed>
  <fix>3d</fix>
</trkpt>
<trkpt lat="21.1680021" lon="-156.8869712">
  <ele>163.74</ele>
  <time>2026-09-01T20:02:43Z</time>
  <course>349.85</course>
  <speed>0.022360679774997897</speed>
  <fix>3d</fix>
</trkpt>
<trkpt lat="21.1680022" lon="-156.8869715">
  <ele>164.24</ele>
  <time>2026-09-01T20:02:43Z</time>
  <course>316.93</course>
  <speed>0.0</speed>
  <fix>3d</fix>
</trkpt>
<trkpt lat="21.1680021" lon="-156.8869712">
  <ele>163.63</ele>
  <time>2026-09-01T20:02:43Z</time>
  <course>349.86</course>
  <speed>0.022360679774997897</speed>
  <fix>3d</fix>
</trkpt>
<trkpt lat="21.1680022" lon="-156.8869715">
  <ele>164.01</ele>
  <time>2026-09-01T20:02:43Z</time>
  <course>322.4</course>
  <speed>0.0</speed>
  <fix>3d</fix>
</trkpt>
<trkpt lat="21.1680021" lon="-156.8869712">
  <ele>163.52</ele>
  <time>2026-09-01T20:02:43Z</time>
  <course>349.87</course>
  <speed>0.022360679774997897</speed>
  <fix>3d</fix>
</trkpt>
<trkpt lat="21.1680022" lon="-156.8869715">
  <ele>164.01</ele>
  <time>2026-09-01T20:02:43Z</time>
  <course>322.4</course>
  <speed>0.0</speed>
  <fix>3d</fix>
</trkpt>
<trkpt lat="21.1680021" lon="-156.8869713">
  <ele>163.4</ele>
  <time>2026-09-01T20:02:43Z</time>
  <course>349.87</course>
  <speed>0.022360679774997897</speed>
  <fix>3d</fix>
</trkpt>
<trkpt lat="21.1680022" lon="-156.8869715">
  <ele>163.78</ele>
  <time>2026-09-01T20:02:43Z</time>
  <course>330.53</course>
  <speed>0.0</speed>
  <fix>3d</fix>
</trkpt>
<trkpt lat="21.1680021" lon="-156.8869713">
  <ele>163.29</ele>
  <time>2026-09-01T20:02:43Z</time>
  <course>349.88</course>
  <speed>0.022360679774997897</speed>
  <fix>3d</fix>
</trkpt>
<trkpt lat="21.1680022" lon="-156.8869715">
  <ele>163.78</ele>
  <time>2026-09-01T20:02:43Z</time>
  <course>330.53</course>
  <speed>0.0</speed>
  <fix>3d</fix>
</trkpt>
<trkpt lat="21.1680021" lon="-156.8869713">
  <ele>163.17</ele>
  <time>2026-09-01T20:02:43Z</time>
  <course>349.88</course>
  <speed>0.022360679774997897</speed>
  <fix>3d</fix>
</trkpt>
<trkpt lat="21.1680022" lon="-156.8869715">
  <ele>163.55</ele>
  <time>2026-09-01T20:02:43Z</time>
  <course>341.19</course>
  <speed>0.0</speed>
  <fix>3d</fix>
</trkpt>
<trkpt lat="21.1680021" lon="-156.8869713">
  <ele>163.05</ele>
  <time>2026-09-01T20:02:43Z</time>
  <course>349.88</course>
  <speed>0.022360679774997897</speed>
  <fix>3d</fix>
</trkpt>
<trkpt lat="21.1680022" lon="-156.8869715">
  <ele>163.55</ele>
  <time>2026-09-01T20:02:43Z</time>
  <course>341.19</course>
  <speed>0.0</speed>
  <fix>3d</fix>
</trkpt>
<trkpt lat="21.1680021" lon="-156.8869713">
  <ele>162.94</ele>
  <time>2026-09-01T20:02:43Z</time>
  <course>349.88</course>
  <speed>0.022360679774997897</speed>
  <fix>3d</fix>
</trkpt>
<trkpt lat="21.1680022" lon="-156.8869715">
  <ele>163.32</ele>
  <time>2026-09-01T20:02:43Z</time>
  <course>349.21</course>
  <speed>0.0</speed>
  <fix>3d</fix>
</trkpt>
<trkpt lat="21.1680021" lon="-156.8869713">
  <ele>162.82</ele>
  <time>2026-09-01T20:02:43Z</time>
  <course>349.88</course>
  <speed>0.022360679774997897</speed>
  <fix>3d</fix>
</trkpt>
<trkpt lat="21.1680022" lon="-156.8869715">
  <ele>163.32</ele>
  <time>2026-09-01T20:02:43Z</time>
  <course>349.21</course>
  <speed>0.0</speed>
  <fix>3d</fix>
</trkpt>
<trkpt lat="21.1680021" lon="-156.8869713">
  <ele>162.71</ele>
  <time>2026-09-01T20:02:43Z</time>
  <course>349.88</course>
  <speed>0.0316227766016838</speed>
  <fix>3d</fix>
</trkpt>
<trkpt lat="21.1680022" lon="-156.8869715">
  <ele>163.09</ele>
  <time>2026-09-01T20:02:43Z</time>
  <course>358.62</course>
  <speed>0.0</speed>
  <fix>3d</fix>
</trkpt>
<trkpt lat="21.1680021" lon="-156.8869713">
  <ele>162.59</ele>
  <time>2026-09-01T20:02:43Z</time>
  <course>349.88</course>
  <speed>0.0316227766016838</speed>
  <fix>3d</fix>
</trkpt>
<trkpt lat="21.1680022" lon="-156.8869715">
  <ele>163.09</ele>
  <time>2026-09-01T20:02:43Z</time>
  <course>358.62</course>
  <speed>0.0</speed>
  <fix>3d</fix>
</trkpt>
<trkpt lat="21.1680021" lon="-156.8869713">
  <ele>162.47</ele>
  <time>2026-09-01T20:02:43Z</time>
  <course>349.89</course>
  <speed>0.0316227766016838</speed>
  <fix>3d</fix>
</trkpt>
<trkpt lat="21.1680023" lon="-156.8869715">
  <ele>162.86</ele>
  <time>2026-09-01T20:02:43Z</time>
  <course>8.5</course>
  <speed>0.0</speed>
  <fix>3d</fix>
</trkpt>
<trkpt lat="21.1680021" lon="-156.8869713">
  <ele>162.36</ele>
  <time>2026-09-01T20:02:43Z</time>
  <course>349.89</course>
  <speed>0.0316227766016838</speed>
  <fix>3d</fix>
</trkpt>
<trkpt lat="21.1680023" lon="-156.8869715">
  <ele>162.86</ele>
  <time>2026-09-01T20:02:43Z</time>
  <course>8.5</course>
  <speed>0.0</speed>
  <fix>3d</fix>
</trkpt>
<trkpt lat="21.1680021" lon="-156.8869713">
  <ele>162.25</ele>
  <time>2026-09-01T20:02:43Z</time>
  <course>349.9</course>
  <speed>0.0316227766016838</speed>
  <fix>3d</fix>
</trkpt>
<trkpt lat="21.1680024" lon="-156.8869715">
  <ele>162.63</ele>
  <time>2026-09-01T20:02:43Z</time>
  <course>15.36</course>
  <speed>0.0</speed>
  <fix>3d</fix>
</trkpt>
<trkpt lat="21.1680021" lon="-156.8869713">
  <ele>162.13</ele>
  <time>2026-09-01T20:02:43Z</time>
  <course>349.91</course>
  <speed>0.0316227766016838</speed>
  <fix>3d</fix>
</trkpt>
<trkpt lat="21.1680024" lon="-156.8869715">
  <ele>162.63</ele>
  <time>2026-09-01T20:02:43Z</time>
  <course>15.36</course>
  <speed>0.0</speed>
  <fix>3d</fix>
</trkpt>
<trkpt lat="21.1680021" lon="-156.8869713">
  <ele>162.02</ele>
  <time>2026-09-01T20:02:43Z</time>
  <course>349.93</course>
  <speed>0.0316227766016838</speed>
  <fix>3d</fix>
</trkpt>
<trkpt lat="21.1680024" lon="-156.8869715">
  <ele>162.4</ele>
  <time>2026-09-01T20:02:43Z</time>
  <course>20.04</course>
  <speed>0.0</speed>
  <fix>3d</fix>
</trkpt>
<trkpt lat="21.1680021" lon="-156.8869713">
  <ele>161.91</ele>
  <time>2026-09-01T20:02:43Z</time>
  <course>349.95</course>
  <speed>0.0316227766016838</speed>
  <fix>3d</fix>
</trkpt>
<trkpt lat="21.1680024" lon="-156.8869715">
  <ele>162.4</ele>
  <time>2026-09-01T20:02:43Z</time>
  <course>20.04</course>
  <speed>0.0</speed>
  <fix>3d</fix>
</trkpt>
<trkpt lat="21.1680021" lon="-156.8869713">
  <ele>161.79</ele>
  <time>2026-09-01T20:02:43Z</time>
  <course>349.96</course>
  <speed>0.0316227766016838</speed>
  <fix>3d</fix>
</trkpt>
<trkpt lat="21.1680024" lon="-156.8869715">
  <ele>162.17</ele>
  <time>2026-09-01T20:02:43Z</time>
  <course>23.15</course>
  <speed>0.0</speed>
  <fix>3d</fix>
</trkpt>
<trkpt lat="21.1680021" lon="-156.8869713">
  <ele>161.68</ele>
  <time>2026-09-01T20:02:43Z</time>
  <course>349.97</course>
  <speed>0.0316227766016838</speed>
  <fix>3d</fix>
</trkpt>
<trkpt lat="21.1680024" lon="-156.8869715">
  <ele>162.17</ele>
  <time>2026-09-01T20:02:43Z</time>
  <course>23.15</course>
  <speed>0.0</speed>
  <fix>3d</fix>
</trkpt>
<trkpt lat="21.1680021" lon="-156.8869713">
  <ele>161.56</ele>
  <time>2026-09-01T20:02:43Z</time>
  <course>349.98</course>
  <speed>0.0316227766016838</speed>
  <fix>3d</fix>
</trkpt>
<trkpt lat="21.1680024" lon="-156.8869715">
  <ele>161.94</ele>
  <time>2026-09-01T20:02:43Z</time>
  <course>22.57</course>
  <speed>0.0</speed>
  <fix>3d</fix>
</trkpt>
<trkpt lat="21.1680021" lon="-156.8869713">
  <ele>161.45</ele>
  <time>2026-09-01T20:02:43Z</time>
  <course>349.98</course>
  <speed>0.0316227766016838</speed>
  <fix>3d</fix>
</trkpt>
<trkpt lat="21.1680024" lon="-156.8869715">
  <ele>161.94</ele>
  <time>2026-09-01T20:02:43Z</time>
  <course>22.57</course>
  <speed>0.0</speed>
  <fix>3d</fix>
</trkpt>
<trkpt lat="21.1680022" lon="-156.8869713">
  <ele>161.34</ele>
  <time>2026-09-01T20:02:43Z</time>
  <course>349.97</course>
  <speed>0.022360679774997897</speed>
  <fix>3d</fix>
</trkpt>
<trkpt lat="21.1680024" lon="-156.8869715">
  <ele>161.71</ele>
  <time>2026-09-01T20:02:43Z</time>
  <course>18.55</course>
  <speed>0.0</speed>
  <fix>3d</fix>
</trkpt>
<trkpt lat="21.1680022" lon="-156.8869713">
  <ele>161.23</ele>
  <time>2026-09-01T20:02:43Z</time>
  <course>349.97</course>
  <speed>0.022360679774997897</speed>
  <fix>3d</fix>
</trkpt>
<trkpt lat="21.1680024" lon="-156.8869715">
  <ele>161.71</ele>
  <time>2026-09-01T20:02:43Z</time>
  <course>18.55</course>
  <speed>0.0</speed>
  <fix>3d</fix>
</trkpt>
<trkpt lat="21.1680022" lon="-156.8869713">
  <ele>161.11</ele>
  <time>2026-09-01T20:02:43Z</time>
  <course>349.97</course>
  <speed>0.022360679774997897</speed>
  <fix>3d</fix>
</trkpt>
<trkpt lat="21.1680024" lon="-156.8869715">
  <ele>161.48</ele>
  <time>2026-09-01T20:02:43Z</time>
  <course>15.48</course>
  <speed>0.0</speed>
  <fix>3d</fix>
</trkpt>
<trkpt lat="21.1680022" lon="-156.8869713">
  <ele>161.0</ele>
  <time>2026-09-01T20:02:43Z</time>
  <course>349.97</course>
  <speed>0.022360679774997897</speed>
  <fix>3d</fix>
</trkpt>
<trkpt lat="21.1680024" lon="-156.8869715">
  <ele>161.48</ele>
  <time>2026-09-01T20:02:43Z</time>
  <course>15.48</course>
  <speed>0.0</speed>
  <fix>3d</fix>
</trkpt>
<trkpt lat="21.1680022" lon="-156.8869713">
  <ele>160.88</ele>
  <time>2026-09-01T20:02:43Z</time>
  <course>349.99</course>
  <speed>0.022360679774997897</speed>
  <fix>3d</fix>
</trkpt>
<trkpt lat="21.1680024" lon="-156.8869715">
  <ele>161.25</ele>
  <time>2026-09-01T20:02:43Z</time>
  <course>9.95</course>
  <speed>0.0</speed>
  <fix>3d</fix>
</trkpt>
<trkpt lat="21.1680022" lon="-156.8869713">
  <ele>160.76</ele>
  <time>2026-09-01T20:02:43Z</time>
  <course>350.03</course>
  <speed>0.022360679774997897</speed>
  <fix>3d</fix>
</trkpt>
<trkpt lat="21.1680024" lon="-156.8869715">
  <ele>161.25</ele>
  <time>2026-09-01T20:02:43Z</time>
  <course>9.95</course>
  <speed>0.0</speed>
  <fix>3d</fix>
</trkpt>
<trkpt lat="21.1680022" lon="-156.8869713">
  <ele>160.65</ele>
  <time>2026-09-01T20:02:43Z</time>
  <course>350.08</course>
  <speed>0.022360679774997897</speed>
  <fix>3d</fix>
</trkpt>
<trkpt lat="21.1680024" lon="-156.8869715">
  <ele>161.02</ele>
  <time>2026-09-01T20:02:43Z</time>
  <course>343.05</course>
  <speed>0.0</speed>
  <fix>3d</fix>
</trkpt>
<trkpt lat="21.1680022" lon="-156.8869713">
  <ele>160.53</ele>
  <time>2026-09-01T20:02:43Z</time>
  <course>350.15</course>
  <speed>0.01414213562373095</speed>
  <fix>3d</fix>
</trkpt>
<trkpt lat="21.1680024" lon="-156.8869715">
  <ele>161.02</ele>
  <time>2026-09-01T20:02:43Z</time>
  <course>343.05</course>
  <speed>0.0</speed>
  <fix>3d</fix>
</trkpt>
<trkpt lat="21.1680022" lon="-156.8869713">
  <ele>160.42</ele>
  <time>2026-09-01T20:02:43Z</time>
  <course>350.22</course>
  <speed>0.01414213562373095</speed>
  <fix>3d</fix>
</trkpt>
<trkpt lat="21.1680025" lon="-156.8869715">
  <ele>160.79</ele>
  <time>2026-09-01T20:02:43Z</time>
  <course>294.8</course>
  <speed>0.0</speed>
  <fix>3d</fix>
</trkpt>
<trkpt lat="21.1680022" lon="-156.8869713">
  <ele>160.3</ele>
  <time>2026-09-01T20:02:43Z</time>
  <course>350.31</course>
  <speed>0.01414213562373095</speed>
  <fix>3d</fix>
</trkpt>
<trkpt lat="21.1680025" lon="-156.8869715">
  <ele>160.79</ele>
  <time>2026-09-01T20:02:43Z</time>
  <course>294.8</course>
  <speed>0.0</speed>
  <fix>3d</fix>
</trkpt>
<trkpt lat="21.1680022" lon="-156.8869713">
  <ele>160.18</ele>
  <time>2026-09-01T20:02:43Z</time>
  <course>350.36</course>
  <speed>0.01414213562373095</speed>
  <fix>3d</fix>
</trkpt>
<trkpt lat="21.1680025" lon="-156.8869715">
  <ele>160.56</ele>
  <time>2026-09-01T20:02:43Z</time>
  <course>273.5</course>
  <speed>0.01</speed>
  <fix>3d</fix>
</trkpt>
<trkpt lat="21.1680022" lon="-156.8869713">
  <ele>160.07</ele>
  <time>2026-09-01T20:02:43Z</time>
  <course>350.36</course>
  <speed>0.01414213562373095</speed>
  <fix>3d</fix>
</trkpt>
<trkpt lat="21.1680025" lon="-156.8869715">
  <ele>160.56</ele>
  <time>2026-09-01T20:02:43Z</time>
  <course>273.5</course>
  <speed>0.01</speed>
  <fix>3d</fix>
</trkpt>
<trkpt lat="21.1680023" lon="-156.8869713">
  <ele>159.95</ele>
  <time>2026-09-01T20:02:43Z</time>
  <course>350.34</course>
  <speed>0.01</speed>
  <fix>3d</fix>
</trkpt>
<trkpt lat="21.1680025" lon="-156.8869716">
  <ele>160.33</ele>
  <time>2026-09-01T20:02:43Z</time>
  <course>267.65</course>
  <speed>0.01</speed>
  <fix>3d</fix>
</trkpt>
<trkpt lat="21.1680023" lon="-156.8869713">
  <ele>159.84</ele>
  <time>2026-09-01T20:02:43Z</time>
  <course>350.29</course>
  <speed>0.01</speed>
  <fix>3d</fix>
</trkpt>
<trkpt lat="21.1680025" lon="-156.8869716">
  <ele>160.33</ele>
  <time>2026-09-01T20:02:43Z</time>
  <course>267.65</course>
  <speed>0.01</speed>
  <fix>3d</fix>
</trkpt>
<trkpt lat="21.1680023" lon="-156.8869713">
  <ele>159.73</ele>
  <time>2026-09-01T20:02:43Z</time>
  <course>350.24</course>
  <speed>0.01</speed>
  <fix>3d</fix>
</trkpt>
<trkpt lat="21.1680025" lon="-156.8869717">
  <ele>160.09</ele>
  <time>2026-09-01T20:02:43Z</time>
  <course>264.48</course>
  <speed>0.01</speed>
  <fix>3d</fix>
</trkpt>
<trkpt lat="21.1680023" lon="-156.8869713">
  <ele>159.61</ele>
  <time>2026-09-01T20:02:43Z</time>
  <course>350.19</course>
  <speed>0.01</speed>
  <fix>3d</fix>
</trkpt>
<trkpt lat="21.1680025" lon="-156.8869717">
  <ele>160.09</ele>
  <time>2026-09-01T20:02:43Z</time>
  <course>264.48</course>
  <speed>0.01</speed>
  <fix>3d</fix>
</trkpt>
<trkpt lat="21.1680023" lon="-156.8869714">
  <ele>159.5</ele>
  <time>2026-09-01T20:02:43Z</time>
  <course>350.15</course>
  <speed>0.01</speed>
  <fix>3d</fix>
</trkpt>
<trkpt lat="21.1680025" lon="-156.8869717">
  <ele>159.86</ele>
  <time>2026-09-01T20:02:43Z</time>
  <course>260.2</course>
  <speed>0.01</speed>
  <fix>3d</fix>
</trkpt>
<trkpt lat="21.1680023" lon="-156.8869714">
  <ele>159.38</ele>
  <time>2026-09-01T20:02:43Z</time>
  <course>350.13</course>
  <speed>0.02</speed>
  <fix>3d</fix>
</trkpt>
<trkpt lat="21.1680025" lon="-156.8869717">
  <ele>159.86</ele>
  <time>2026-09-01T20:02:43Z</time>
  <course>260.2</course>
  <speed>0.01</speed>
  <fix>3d</fix>
</trkpt>
<trkpt lat="21.1680023" lon="-156.8869714">
  <ele>159.27</ele>
  <time>2026-09-01T20:02:43Z</time>
  <course>350.14</course>
  <speed>0.02</speed>
  <fix>3d</fix>
</trkpt>
<trkpt lat="21.1680025" lon="-156.8869717">
  <ele>159.63</ele>
  <time>2026-09-01T20:02:43Z</time>
  <course>255.22</course>
  <speed>0.01</speed>
  <fix>3d</fix>
</trkpt>
<trkpt lat="21.1680023" lon="-156.8869714">
  <ele>159.15</ele>
  <time>2026-09-01T20:02:43Z</time>
  <course>350.16</course>
  <speed>0.02</speed>
  <fix>3d</fix>
</trkpt>
<trkpt lat="21.1680025" lon="-156.8869717">
  <ele>159.63</ele>
  <time>2026-09-01T20:02:43Z</time>
  <course>255.22</course>
  <speed>0.01</speed>
  <fix>3d</fix>
</trkpt>
<trkpt lat="21.1680023" lon="-156.8869715">
  <ele>159.04</ele>
  <time>2026-09-01T20:02:43Z</time>
  <course>350.18</course>
  <speed>0.02</speed>
  <fix>3d</fix>
</trkpt>
<trkpt lat="21.1680025" lon="-156.8869718">
  <ele>159.4</ele>
  <time>2026-09-01T20:02:43Z</time>
  <course>250.46</course>
  <speed>0.01</speed>
  <fix>3d</fix>
</trkpt>
<trkpt lat="21.1680023" lon="-156.8869715">
  <ele>158.92</ele>
  <time>2026-09-01T20:02:43Z</time>
  <course>350.21</course>
  <speed>0.02</speed>
  <fix>3d</fix>
</trkpt>
<trkpt lat="21.1680025" lon="-156.8869718">
  <ele>159.4</ele>
  <time>2026-09-01T20:02:43Z</time>
  <course>250.46</course>
  <speed>0.01</speed>
  <fix>3d</fix>
</trkpt>
<trkpt lat="21.1680023" lon="-156.8869715">
  <ele>158.81</ele>
  <time>2026-09-01T20:02:43Z</time>
  <course>350.25</course>
  <speed>0.02</speed>
  <fix>3d</fix>
</trkpt>
<trkpt lat="21.1680025" lon="-156.8869718">
  <ele>159.17</ele>
  <time>2026-09-01T20:02:43Z</time>
  <course>246.59</course>
  <speed>0.01</speed>
  <fix>3d</fix>
</trkpt>
<trkpt lat="21.1680023" lon="-156.8869715">
  <ele>158.69</ele>
  <time>2026-09-01T20:02:43Z</time>
  <course>350.29</course>
  <speed>0.02</speed>
  <fix>3d</fix>
</trkpt>
<trkpt lat="21.1680025" lon="-156.8869718">
  <ele>159.17</ele>
  <time>2026-09-01T20:02:43Z</time>
  <course>246.59</course>
  <speed>0.01</speed>
  <fix>3d</fix>
</trkpt>
<trkpt lat="21.1680023" lon="-156.8869715">
  <ele>158.57</ele>
  <time>2026-09-01T20:02:43Z</time>
  <course>350.34</course>
  <speed>0.02</speed>
  <fix>3d</fix>
</trkpt>
<trkpt lat="21.1680025" lon="-156.8869718">
  <ele>158.94</ele>
  <time>2026-09-01T20:02:43Z</time>
  <course>243.71</course>
  <speed>0.01</speed>
  <fix>3d</fix>
</trkpt>
<trkpt lat="21.1680023" lon="-156.8869716">
  <ele>158.46</ele>
  <time>2026-09-01T20:02:43Z</time>
  <course>350.38</course>
  <speed>0.02</speed>
  <fix>3d</fix>
</trkpt>
<trkpt lat="21.1680025" lon="-156.8869718">
  <ele>158.94</ele>
  <time>2026-09-01T20:02:43Z</time>
  <course>243.71</course>
  <speed>0.01</speed>
  <fix>3d</fix>
</trkpt>
<trkpt lat="21.1680023" lon="-156.8869716">
  <ele>158.34</ele>
  <time>2026-09-01T20:02:43Z</time>
  <course>350.43</course>
  <speed>0.02</speed>
  <fix>3d</fix>
</trkpt>
<trkpt lat="21.1680025" lon="-156.8869719">
  <ele>158.71</ele>
  <time>2026-09-01T20:02:43Z</time>
  <course>240.58</course>
  <speed>0.02</speed>
  <fix>3d</fix>
</trkpt>
<trkpt lat="21.1680023" lon="-156.8869716">
  <ele>158.23</ele>
  <time>2026-09-01T20:02:43Z</time>
  <course>350.47</course>
  <speed>0.02</speed>
  <fix>3d</fix>
</trkpt>
<trkpt lat="21.1680025" lon="-156.8869719">
  <ele>158.71</ele>
  <time>2026-09-01T20:02:43Z</time>
  <course>240.58</course>
  <speed>0.02</speed>
  <fix>3d</fix>
</trkpt>
<trkpt lat="21.1680023" lon="-156.8869716">
  <ele>158.11</ele>
  <time>2026-09-01T20:02:43Z</time>
  <course>350.51</course>
  <speed>0.02</speed>
  <fix>3d</fix>
</trkpt>
<trkpt lat="21.1680025" lon="-156.8869719">
  <ele>158.48</ele>
  <time>2026-09-01T20:02:43Z</time>
  <course>237.25</course>
  <speed>0.02</speed>
  <fix>3d</fix>
</trkpt>
<trkpt lat="21.1680023" lon="-156.8869717">
  <ele>158.0</ele>
  <time>2026-09-01T20:02:43Z</time>
  <course>350.53</course>
  <speed>0.02</speed>
  <fix>3d</fix>
</trkpt>
<trkpt lat="21.1680025" lon="-156.8869719">
  <ele>158.48</ele>
  <time>2026-09-01T20:02:43Z</time>
  <course>237.25</course>
  <speed>0.02</speed>
  <fix>3d</fix>
</trkpt>
<trkpt lat="21.1680023" lon="-156.8869717">
  <ele>157.88</ele>
  <time>2026-09-01T20:02:43Z</time>
  <course>350.55</course>
  <speed>0.02</speed>
  <fix>3d</fix>
</trkpt>
<trkpt lat="21.1680024" lon="-156.8869719">
  <ele>158.25</ele>
  <time>2026-09-01T20:02:43Z</time>
  <course>234.26</course>
  <speed>0.02</speed>
  <fix>3d</fix>
</trkpt>
<trkpt lat="21.1680023" lon="-156.8869717">
  <ele>157.77</ele>
  <time>2026-09-01T20:02:43Z</time>
  <course>350.56</course>
  <speed>0.02</speed>
  <fix>3d</fix>
</trkpt>
<trkpt lat="21.1680024" lon="-156.8869719">
  <ele>158.25</ele>
  <time>2026-09-01T20:02:43Z</time>
  <course>234.26</course>
  <speed>0.02</speed>
  <fix>3d</fix>
</trkpt>
<trkpt lat="21.1680023" lon="-156.8869717">
  <ele>157.65</ele>
  <time>2026-09-01T20:02:43Z</time>
  <course>350.57</course>
  <speed>0.02</speed>
  <fix>3d</fix>
</trkpt>
<trkpt lat="21.1680024" lon="-156.8869719">
  <ele>158.01</ele>
  <time>2026-09-01T20:02:43Z</time>
  <course>231.7</course>
  <speed>0.02</speed>
  <fix>3d</fix>
</trkpt>
<trkpt lat="21.1680023" lon="-156.8869717">
  <ele>157.54</ele>
  <time>2026-09-01T20:02:43Z</time>
  <course>350.57</course>
  <speed>0.02</speed>
  <fix>3d</fix>
</trkpt>
<trkpt lat="21.1680024" lon="-156.8869719">
  <ele>158.01</ele>
  <time>2026-09-01T20:02:43Z</time>
  <course>231.7</course>
  <speed>0.02</speed>
  <fix>3d</fix>
</trkpt>
<trkpt lat="21.1680023" lon="-156.8869718">
  <ele>157.42</ele>
  <time>2026-09-01T20:02:43Z</time>
  <course>350.58</course>
  <speed>0.02</speed>
  <fix>3d</fix>
</trkpt>
<trkpt lat="21.1680024" lon="-156.8869719">
  <ele>157.78</ele>
  <time>2026-09-01T20:02:43Z</time>
  <course>230.51</course>
  <speed>0.02</speed>
  <fix>3d</fix>
</trkpt>
<trkpt lat="21.1680023" lon="-156.8869718">
  <ele>157.31</ele>
  <time>2026-09-01T20:02:43Z</time>
  <course>350.58</course>
  <speed>0.02</speed>
  <fix>3d</fix>
</trkpt>
<trkpt lat="21.1680024" lon="-156.8869719">
  <ele>157.78</ele>
  <time>2026-09-01T20:02:43Z</time>
  <course>230.51</course>
  <speed>0.02</speed>
  <fix>3d</fix>
</trkpt>
<trkpt lat="21.1680023" lon="-156.8869718">
  <ele>157.19</ele>
  <time>2026-09-01T20:02:43Z</time>
  <course>350.6</course>
  <speed>0.02</speed>
  <fix>3d</fix>
</trkpt>
<trkpt lat="21.1680024" lon="-156.886972">
  <ele>157.55</ele>
  <time>2026-09-01T20:02:43Z</time>
  <course>230.42</course>
  <speed>0.02</speed>
  <fix>3d</fix>
</trkpt>
<trkpt lat="21.1680022" lon="-156.8869718">
  <ele>157.08</ele>
  <time>2026-09-01T20:02:43Z</time>
  <course>350.63</course>
  <speed>0.02</speed>
  <fix>3d</fix>
</trkpt>
<trkpt lat="21.1680024" lon="-156.886972">
  <ele>157.55</ele>
  <time>2026-09-01T20:02:43Z</time>
  <course>230.42</course>
  <speed>0.02</speed>
  <fix>3d</fix>
</trkpt>
<trkpt lat="21.1680022" lon="-156.8869718">
  <ele>156.96</ele>
  <time>2026-09-01T20:02:43Z</time>
  <course>350.65</course>
  <speed>0.02</speed>
  <fix>3d</fix>
</trkpt>
<trkpt lat="21.1680023" lon="-156.886972">
  <ele>157.32</ele>
  <time>2026-09-01T20:02:43Z</time>
  <course>231.33</course>
  <speed>0.02</speed>
  <fix>3d</fix>
</trkpt>
<trkpt lat="21.1680022" lon="-156.8869718">
  <ele>156.85</ele>
  <time>2026-09-01T20:02:43Z</time>
  <course>350.67</course>
  <speed>0.02</speed>
  <fix>3d</fix>
</trkpt>
<trkpt lat="21.1680023" lon="-156.886972">
  <ele>157.32</ele>
  <time>2026-09-01T20:02:43Z</time>
  <course>231.33</course>
  <speed>0.02</speed>
  <fix>3d</fix>
</trkpt>
<trkpt lat="21.1680022" lon="-156.8869719">
  <ele>156.73</ele>
  <time>2026-09-01T20:02:44Z</time>
  <course>350.7</course>
  <speed>0.02</speed>
  <fix>3d</fix>
</trkpt>
<trkpt lat="21.1680022" lon="-156.8869721">
  <ele>157.09</ele>
  <time>2026-09-01T20:02:44Z</time>
  <course>232.89</course>
  <speed>0.02</speed>
  <fix>3d</fix>
</trkpt>
<trkpt lat="21.1680022" lon="-156.8869719">
  <ele>156.61</ele>
  <time>2026-09-01T20:02:44Z</time>
  <course>350.74</course>
  <speed>0.02</speed>
  <fix>3d</fix>
</trkpt>
<trkpt lat="21.1680022" lon="-156.8869721">
  <ele>157.09</ele>
  <time>2026-09-01T20:02:44Z</time>
  <course>232.89</course>
  <speed>0.02</speed>
  <fix>3d</fix>
</trkpt>
<trkpt lat="21.1680022" lon="-156.8869719">
  <ele>156.5</ele>
  <time>2026-09-01T20:02:44Z</time>
  <course>350.78</course>
  <speed>0.02</speed>
  <fix>3d</fix>
</trkpt>
<trkpt lat="21.1680022" lon="-156.8869722">
  <ele>156.86</ele>
  <time>2026-09-01T20:02:44Z</time>
  <course>234.75</course>
  <speed>0.02</speed>
  <fix>3d</fix>
</trkpt>
<trkpt lat="21.1680021" lon="-156.8869719">
  <ele>156.38</ele>
  <time>2026-09-01T20:02:44Z</time>
  <course>350.82</course>
  <speed>0.02</speed>
  <fix>3d</fix>
</trkpt>
<trkpt lat="21.1680022" lon="-156.8869722">
  <ele>156.86</ele>
  <time>2026-09-01T20:02:44Z</time>
  <course>234.75</course>
  <speed>0.02</speed>
  <fix>3d</fix>
</trkpt>
<trkpt lat="21.1680021" lon="-156.886972">
  <ele>156.27</ele>
  <time>2026-09-01T20:02:44Z</time>
  <course>350.88</course>
  <speed>0.02</speed>
  <fix>3d</fix>
</trkpt>
<trkpt lat="21.1680022" lon="-156.8869722">
  <ele>156.64</ele>
  <time>2026-09-01T20:02:44Z</time>
  <course>236.96</course>
  <speed>0.02</speed>
  <fix>3d</fix>
</trkpt>
<trkpt lat="21.1680021" lon="-156.886972">
  <ele>156.15</ele>
  <time>2026-09-01T20:02:44Z</time>
  <course>350.93</course>
  <speed>0.02</speed>
  <fix>3d</fix>
</trkpt>
<trkpt lat="21.1680022" lon="-156.8869722">
  <ele>156.64</ele>
  <time>2026-09-01T20:02:44Z</time>
  <course>236.96</course>
  <speed>0.02</speed>
  <fix>3d</fix>
</trkpt>
<trkpt lat="21.1680021" lon="-156.886972">
  <ele>156.04</ele>
  <time>2026-09-01T20:02:44Z</time>
  <course>350.97</course>
  <speed>0.02</speed>
  <fix>3d</fix>
</trkpt>
<trkpt lat="21.1680022" lon="-156.8869722">
  <ele>156.41</ele>
  <time>2026-09-01T20:02:44Z</time>
  <course>239.55</course>
  <speed>0.02</speed>
  <fix>3d</fix>
</trkpt>
<trkpt lat="21.1680021" lon="-156.886972">
  <ele>155.93</ele>
  <time>2026-09-01T20:02:44Z</time>
  <course>351.0</course>
  <speed>0.02</speed>
  <fix>3d</fix>
</trkpt>
<trkpt lat="21.1680022" lon="-156.8869722">
  <ele>156.41</ele>
  <time>2026-09-01T20:02:44Z</time>
  <course>239.55</course>
  <speed>0.02</speed>
  <fix>3d</fix>
</trkpt>
<trkpt lat="21.1680021" lon="-156.8869721">
  <ele>155.81</ele>
  <time>2026-09-01T20:02:44Z</time>
  <course>351.02</course>
  <speed>0.02</speed>
  <fix>3d</fix>
</trkpt>
<trkpt lat="21.1680022" lon="-156.8869723">
  <ele>156.18</ele>
  <time>2026-09-01T20:02:44Z</time>
  <course>242.3</course>
  <speed>0.02</speed>
  <fix>3d</fix>
</trkpt>
<trkpt lat="21.1680021" lon="-156.8869721">
  <ele>155.7</ele>
  <time>2026-09-01T20:02:44Z</time>
  <course>351.02</course>
  <speed>0.02</speed>
  <fix>3d</fix>
</trkpt>
<trkpt lat="21.1680022" lon="-156.8869723">
  <ele>156.18</ele>
  <time>2026-09-01T20:02:44Z</time>
  <course>242.3</course>
  <speed>0.02</speed>
  <fix>3d</fix>
</trkpt>
<trkpt lat="21.1680021" lon="-156.8869721">
  <ele>155.58</ele>
  <time>2026-09-01T20:02:44Z</time>
  <course>350.99</course>
  <speed>0.02</speed>
  <fix>3d</fix>
</trkpt>
<trkpt lat="21.1680022" lon="-156.8869723">
  <ele>155.95</ele>
  <time>2026-09-01T20:02:44Z</time>
  <course>244.47</course>
  <speed>0.02</speed>
  <fix>3d</fix>
</trkpt>
<trkpt lat="21.168002" lon="-156.8869721">
  <ele>155.47</ele>
  <time>2026-09-01T20:02:44Z</time>
  <course>350.88</course>
  <speed>0.02</speed>
  <fix>3d</fix>
</trkpt>
<trkpt lat="21.1680022" lon="-156.8869723">
  <ele>155.95</ele>
  <time>2026-09-01T20:02:44Z</time>
  <course>244.47</course>
  <speed>0.02</speed>
  <fix>3d</fix>
</trkpt>
<trkpt lat="21.168002" lon="-156.8869721">
  <ele>155.35</ele>
  <time>2026-09-01T20:02:44Z</time>
  <course>350.7</course>
  <speed>0.022360679774997897</speed>
  <fix>3d</fix>
</trkpt>
<trkpt lat="21.1680022" lon="-156.8869724">
  <ele>155.72</ele>
  <time>2026-09-01T20:02:44Z</time>
  <course>242.76</course>
  <speed>0.02</speed>
  <fix>3d</fix>
</trkpt>
<trkpt lat="21.168002" lon="-156.8869721">
  <ele>155.24</ele>
  <time>2026-09-01T20:02:44Z</time>
  <course>350.47</course>
  <speed>0.0282842712474619</speed>
  <fix>3d</fix>
</trkpt>
<trkpt lat="21.1680022" lon="-156.8869724">
  <ele>155.72</ele>
  <time>2026-09-01T20:02:44Z</time>
  <course>242.76</course>
  <speed>0.02</speed>
  <fix>3d</fix>
</trkpt>
<trkpt lat="21.168002" lon="-156.8869721">
  <ele>155.12</ele>
  <time>2026-09-01T20:02:44Z</time>
  <course>350.21</course>
  <speed>0.0316227766016838</speed>
  <fix>3d</fix>
</trkpt>
<trkpt lat="21.1680021" lon="-156.8869724">
  <ele>155.49</ele>
  <time>2026-09-01T20:02:44Z</time>
  <course>207.47</course>
  <speed>0.0</speed>
  <fix>3d</fix>
</trkpt>
<trkpt lat="21.168002" lon="-156.8869721">
  <ele>155.01</ele>
  <time>2026-09-01T20:02:44Z</time>
  <course>349.96</course>
  <speed>0.05099019513592785</speed>
  <fix>3d</fix>
</trkpt>
<trkpt lat="21.1680021" lon="-156.8869724">
  <ele>155.49</ele>
  <time>2026-09-01T20:02:44Z</time>
  <course>207.47</course>
  <speed>0.0</speed>
  <fix>3d</fix>
</trkpt>
<trkpt lat="21.168002" lon="-156.8869721">
  <ele>154.9</ele>
  <time>2026-09-01T20:02:44Z</time>
  <course>349.76</course>
  <speed>0.05099019513592785</speed>
  <fix>3d</fix>
</trkpt>
<trkpt lat="21.1680021" lon="-156.8869724">
  <ele>155.26</ele>
  <time>2026-09-01T20:02:44Z</time>
  <course>98.4</course>
  <speed>0.01</speed>
  <fix>3d</fix>
</trkpt>
<trkpt lat="21.168002" lon="-156.8869721">
  <ele>154.78</ele>
  <time>2026-09-01T20:02:44Z</time>
  <course>349.62</course>
  <speed>0.06082762530298219</speed>
  <fix>3d</fix>
</trkpt>
<trkpt lat="21.1680021" lon="-156.8869724">
  <ele>155.26</ele>
  <time>2026-09-01T20:02:44Z</time>
  <course>98.4</course>
  <speed>0.01</speed>
  <fix>3d</fix>
</trkpt>
<trkpt lat="21.168002" lon="-156.8869721">
  <ele>154.67</ele>
  <time>2026-09-01T20:02:44Z</time>
  <course>349.55</course>
  <speed>0.07071067811865475</speed>
  <fix>3d</fix>
</trkpt>
<trkpt lat="21.1680021" lon="-156.8869724">
  <ele>155.03</ele>
  <time>2026-09-01T20:02:44Z</time>
  <course>88.9</course>
  <speed>0.03</speed>
  <fix>3d</fix>
</trkpt>
<trkpt lat="21.168002" lon="-156.886972">
  <ele>154.55</ele>
  <time>2026-09-01T20:02:44Z</time>
  <course>349.54</course>
  <speed>0.08062257748298549</speed>
  <fix>3d</fix>
</trkpt>
<trkpt lat="21.1680021" lon="-156.8869724">
  <ele>155.03</ele>
  <time>2026-09-01T20:02:44Z</time>
  <course>88.9</course>
  <speed>0.03</speed>
  <fix>3d</fix>
</trkpt>
<trkpt lat="21.168002" lon="-156.886972">
  <ele>154.43</ele>
  <time>2026-09-01T20:02:44Z</time>
  <course>349.56</course>
  <speed>0.09055385138137417</speed>
  <fix>3d</fix>
</trkpt>
<trkpt lat="21.1680021" lon="-156.8869723">
  <ele>154.8</ele>
  <time>2026-09-01T20:02:44Z</time>
  <course>86.17</course>
  <speed>0.05</speed>
  <fix>3d</fix>
</trkpt>
<trkpt lat="21.168002" lon="-156.8869719">
  <ele>154.32</ele>
  <time>2026-09-01T20:02:44Z</time>
  <course>349.61</course>
  <speed>0.1</speed>
  <fix>3d</fix>
</trkpt>
<trkpt lat="21.1680021" lon="-156.8869723">
  <ele>154.8</ele>
  <time>2026-09-01T20:02:44Z</time>
  <course>86.17</course>
  <speed>0.05</speed>
  <fix>3d</fix>
</trkpt>
<trkpt lat="21.168002" lon="-156.8869718">
  <ele>154.2</ele>
  <time>2026-09-01T20:02:44Z</time>
  <course>349.67</course>
  <speed>0.1</speed>
  <fix>3d</fix>
</trkpt>
<trkpt lat="21.1680021" lon="-156.8869722">
  <ele>154.57</ele>
  <time>2026-09-01T20:02:44Z</time>
  <course>84.74</course>
  <speed>0.06</speed>
  <fix>3d</fix>
</trkpt>
<trkpt lat="21.1680021" lon="-156.8869718">
  <ele>154.09</ele>
  <time>2026-09-01T20:02:44Z</time>
  <course>349.72</course>
  <speed>0.11</speed>
  <fix>3d</fix>
</trkpt>
<trkpt lat="21.1680021" lon="-156.8869722">
  <ele>154.57</ele>
  <time>2026-09-01T20:02:44Z</time>
  <course>84.74</course>
  <speed>0.06</speed>
  <fix>3d</fix>
</trkpt>
<trkpt lat="21.1680021" lon="-156.8869717">
  <ele>153.97</ele>
  <time>2026-09-01T20:02:44Z</time>
  <course>349.77</course>
  <speed>0.11</speed>
  <fix>3d</fix>
</trkpt>
<trkpt lat="21.1680021" lon="-156.886972">
  <ele>154.34</ele>
  <time>2026-09-01T20:02:44Z</time>
  <course>83.87</course>
  <speed>0.08</speed>
  <fix>3d</fix>
</trkpt>
<trkpt lat="21.1680021" lon="-156.8869716">
  <ele>153.86</ele>
  <time>2026-09-01T20:02:44Z</time>
  <course>349.81</course>
  <speed>0.12</speed>
  <fix>3d</fix>
</trkpt>
<trkpt lat="21.1680021" lon="-156.886972">
  <ele>154.34</ele>
  <time>2026-09-01T20:02:44Z</time>
  <course>83.87</course>
  <speed>0.08</speed>
  <fix>3d</fix>
</trkpt>
<trkpt lat="21.1680021" lon="-156.8869715">
  <ele>153.75</ele>
  <time>2026-09-01T20:02:44Z</time>
  <course>349.82</course>
  <speed>0.12</speed>
  <fix>3d</fix>
</trkpt>
<trkpt lat="21.1680021" lon="-156.8869719">
  <ele>154.11</ele>
  <time>2026-09-01T20:02:44Z</time>
  <course>83.27</course>
  <speed>0.09</speed>
  <fix>3d</fix>
</trkpt>
<trkpt lat="21.1680021" lon="-156.8869714">
  <ele>153.63</ele>
  <time>2026-09-01T20:02:44Z</time>
  <course>349.82</course>
  <speed>0.12</speed>
  <fix>3d</fix>
</trkpt>
<trkpt lat="21.1680021" lon="-156.8869719">
  <ele>154.11</ele>
  <time>2026-09-01T20:02:44Z</time>
  <course>83.27</course>
  <speed>0.09</speed>
  <fix>3d</fix>
</trkpt>
<trkpt lat="21.1680021" lon="-156.8869713">
  <ele>153.52</ele>
  <time>2026-09-01T20:02:44Z</time>
  <course>349.81</course>
  <speed>0.12</speed>
  <fix>3d</fix>
</trkpt>
<trkpt lat="21.1680021" lon="-156.8869718">
  <ele>153.88</ele>
  <time>2026-09-01T20:02:44Z</time>
  <course>82.79</course>
  <speed>0.09</speed>
  <fix>3d</fix>
</trkpt>
<trkpt lat="21.1680021" lon="-156.8869712">
  <ele>153.4</ele>
  <time>2026-09-01T20:02:44Z</time>
  <course>349.79</course>
  <speed>0.12</speed>
  <fix>3d</fix>
</trkpt>
<trkpt lat="21.1680021" lon="-156.8869718">
  <ele>153.88</ele>
  <time>2026-09-01T20:02:44Z</time>
  <course>82.79</course>
  <speed>0.09</speed>
  <fix>3d</fix>
</trkpt>
<trkpt lat="21.1680021" lon="-156.8869711">
  <ele>153.29</ele>
  <time>2026-09-01T20:02:44Z</time>
  <course>349.76</course>
  <speed>0.12</speed>
  <fix>3d</fix>
</trkpt>
<trkpt lat="21.1680021" lon="-156.8869715">
  <ele>153.65</ele>
  <time>2026-09-01T20:02:44Z</time>
  <course>82.37</course>
  <speed>0.1</speed>
  <fix>3d</fix>
</trkpt>
<trkpt lat="21.1680021" lon="-156.886971">
  <ele>153.18</ele>
  <time>2026-09-01T20:02:44Z</time>
  <course>349.74</course>
  <speed>0.12</speed>
  <fix>3d</fix>
</trkpt>
<trkpt lat="21.1680021" lon="-156.8869715">
  <ele>153.65</ele>
  <time>2026-09-01T20:02:44Z</time>
  <course>82.37</course>
  <speed>0.1</speed>
  <fix>3d</fix>
</trkpt>
<trkpt lat="21.1680021" lon="-156.8869709">
  <ele>153.06</ele>
  <time>2026-09-01T20:02:44Z</time>
  <course>349.73</course>
  <speed>0.12</speed>
  <fix>3d</fix>
</trkpt>
<trkpt lat="21.1680021" lon="-156.8869714">
  <ele>153.42</ele>
  <time>2026-09-01T20:02:44Z</time>
  <course>81.95</course>
  <speed>0.1</speed>
  <fix>3d</fix>
</trkpt>
<trkpt lat="21.1680021" lon="-156.8869708">
  <ele>152.95</ele>
  <time>2026-09-01T20:02:44Z</time>
  <course>349.72</course>
  <speed>0.12</speed>
  <fix>3d</fix>
</trkpt>
<trkpt lat="21.1680021" lon="-156.8869714">
  <ele>153.42</ele>
  <time>2026-09-01T20:02:44Z</time>
  <course>81.95</course>
  <speed>0.1</speed>
  <fix>3d</fix>
</trkpt>
<trkpt lat="21.1680021" lon="-156.8869708">
  <ele>152.84</ele>
  <time>2026-09-01T20:02:44Z</time>
  <course>349.71</course>
  <speed>0.12</speed>
  <fix>3d</fix>
</trkpt>
<trkpt lat="21.1680022" lon="-156.8869712">
  <ele>153.19</ele>
  <time>2026-09-01T20:02:44Z</time>
  <course>81.48</course>
  <speed>0.1</speed>
  <fix>3d</fix>
</trkpt>
<trkpt lat="21.1680021" lon="-156.8869707">
  <ele>152.72</ele>
  <time>2026-09-01T20:02:44Z</time>
  <course>349.72</course>
  <speed>0.11</speed>
  <fix>3d</fix>
</trkpt>
<trkpt lat="21.1680022" lon="-156.8869712">
  <ele>153.19</ele>
  <time>2026-09-01T20:02:44Z</time>
  <course>81.48</course>
  <speed>0.1</speed>
  <fix>3d</fix>
</trkpt>
<trkpt lat="21.1680021" lon="-156.8869706">
  <ele>152.61</ele>
  <time>2026-09-01T20:02:44Z</time>
  <course>349.73</course>
  <speed>0.11</speed>
  <fix>3d</fix>
</trkpt>
<trkpt lat="21.1680022" lon="-156.886971">
  <ele>152.96</ele>
  <time>2026-09-01T20:02:44Z</time>
  <course>81.16</course>
  <speed>0.09</speed>
  <fix>3d</fix>
</trkpt>
<trkpt lat="21.1680021" lon="-156.8869705">
  <ele>152.49</ele>
  <time>2026-09-01T20:02:44Z</time>
  <course>349.74</course>
  <speed>0.11</speed>
  <fix>3d</fix>
</trkpt>
<trkpt lat="21.1680022" lon="-156.886971">
  <ele>152.96</ele>
  <time>2026-09-01T20:02:44Z</time>
  <course>81.16</course>
  <speed>0.09</speed>
  <fix>3d</fix>
</trkpt>
<trkpt lat="21.1680021" lon="-156.8869704">
  <ele>152.37</ele>
  <time>2026-09-01T20:02:44Z</time>
  <course>349.75</course>
  <speed>0.1</speed>
  <fix>3d</fix>
</trkpt>
<trkpt lat="21.1680022" lon="-156.8869708">
  <ele>152.73</ele>
  <time>2026-09-01T20:02:44Z</time>
  <course>80.87</course>
  <speed>0.09</speed>
  <fix>3d</fix>
</trkpt>
<trkpt lat="21.1680021" lon="-156.8869703">
  <ele>152.25</ele>
  <time>2026-09-01T20:02:44Z</time>
  <course>349.75</course>
  <speed>0.1</speed>
  <fix>3d</fix>
</trkpt>
<trkpt lat="21.1680022" lon="-156.8869708">
  <ele>152.73</ele>
  <time>2026-09-01T20:02:44Z</time>
  <course>80.87</course>
  <speed>0.09</speed>
  <fix>3d</fix>
</trkpt>
<trkpt lat="21.1680021" lon="-156.8869703">
  <ele>152.14</ele>
  <time>2026-09-01T20:02:44Z</time>
  <course>349.75</course>
  <speed>0.09</speed>
  <fix>3d</fix>
</trkpt>
<trkpt lat="21.1680022" lon="-156.8869705">
  <ele>152.49</ele>
  <time>2026-09-01T20:02:44Z</time>
  <course>80.18</course>
  <speed>0.08</speed>
  <fix>3d</fix>
</trkpt>
<trkpt lat="21.1680021" lon="-156.8869702">
  <ele>152.02</ele>
  <time>2026-09-01T20:02:44Z</time>
  <course>349.75</course>
  <speed>0.09</speed>
  <fix>3d</fix>
</trkpt>
<trkpt lat="21.1680022" lon="-156.8869705">
  <ele>152.49</ele>
  <time>2026-09-01T20:02:44Z</time>
  <course>80.18</course>
  <speed>0.08</speed>
  <fix>3d</fix>
</trkpt>
<trkpt lat="21.1680021" lon="-156.8869701">
  <ele>151.9</ele>
  <time>2026-09-01T20:02:44Z</time>
  <course>349.74</course>
  <speed>0.08</speed>
  <fix>3d</fix>
</trkpt>
<trkpt lat="21.1680022" lon="-156.8869704">
  <ele>152.26</ele>
  <time>2026-09-01T20:02:44Z</time>
  <course>79.03</course>
  <speed>0.07</speed>
  <fix>3d</fix>
</trkpt>
<trkpt lat="21.1680021" lon="-156.8869701">
  <ele>151.79</ele>
  <time>2026-09-01T20:02:44Z</time>
  <course>349.72</course>
  <speed>0.08</speed>
  <fix>3d</fix>
</trkpt>
<trkpt lat="21.1680022" lon="-156.8869704">
  <ele>152.26</ele>
  <time>2026-09-01T20:02:44Z</time>
  <course>79.03</course>
  <speed>0.07</speed>
  <fix>3d</fix>
</trkpt>
<trkpt lat="21.1680021" lon="-156.88697">
  <ele>151.67</ele>
  <time>2026-09-01T20:02:44Z</time>
  <course>349.7</course>
  <speed>0.07</speed>
  <fix>3d</fix>
</trkpt>
<trkpt lat="21.1680022" lon="-156.8869703">
  <ele>152.03</ele>
  <time>2026-09-01T20:02:44Z</time>
  <course>77.39</course>
  <speed>0.06</speed>
  <fix>3d</fix>
</trkpt>
<trkpt lat="21.1680021" lon="-156.88697">
  <ele>151.55</ele>
  <time>2026-09-01T20:02:44Z</time>
  <course>349.68</course>
  <speed>0.07</speed>
  <fix>3d</fix>
</trkpt>
<trkpt lat="21.1680022" lon="-156.8869703">
  <ele>152.03</ele>
  <time>2026-09-01T20:02:44Z</time>
  <course>77.39</course>
  <speed>0.06</speed>
  <fix>3d</fix>
</trkpt>
<trkpt lat="21.1680021" lon="-156.8869699">
  <ele>151.44</ele>
  <time>2026-09-01T20:02:44Z</time>
  <course>349.65</course>
  <speed>0.06</speed>
  <fix>3d</fix>
</trkpt>
<trkpt lat="21.1680023" lon="-156.8869702">
  <ele>151.8</ele>
  <time>2026-09-01T20:02:44Z</time>
  <course>75.06</course>
  <speed>0.05</speed>
  <fix>3d</fix>
</trkpt>
<trkpt lat="21.1680021" lon="-156.8869699">
  <ele>151.32</ele>
  <time>2026-09-01T20:02:44Z</time>
  <course>349.63</course>
  <speed>0.06</speed>
  <fix>3d</fix>
</trkpt>
<trkpt lat="21.1680023" lon="-156.8869702">
  <ele>151.8</ele>
  <time>2026-09-01T20:02:44Z</time>
  <course>75.06</course>
  <speed>0.05</speed>
  <fix>3d</fix>
</trkpt>
<trkpt lat="21.1680021" lon="-156.8869698">
  <ele>151.21</ele>
  <time>2026-09-01T20:02:44Z</time>
  <course>349.61</course>
  <speed>0.05</speed>
  <fix>3d</fix>
</trkpt>
<trkpt lat="21.1680024" lon="-156.8869701">
  <ele>151.57</ele>
  <time>2026-09-01T20:02:44Z</time>
  <course>71.92</course>
  <speed>0.04</speed>
  <fix>3d</fix>
</trkpt>
<trkpt lat="21.1680021" lon="-156.8869698">
  <ele>151.09</ele>
  <time>2026-09-01T20:02:44Z</time>
  <course>349.59</course>
  <speed>0.05</speed>
  <fix>3d</fix>
</trkpt>
<trkpt lat="21.1680024" lon="-156.8869701">
  <ele>151.57</ele>
  <time>2026-09-01T20:02:44Z</time>
  <course>71.92</course>
  <speed>0.04</speed>
  <fix>3d</fix>
</trkpt>
<trkpt lat="21.1680022" lon="-156.8869698">
  <ele>150.97</ele>
  <time>2026-09-01T20:02:44Z</time>
  <course>349.57</course>
  <speed>0.04</speed>
  <fix>3d</fix>
</trkpt>
<trkpt lat="21.1680024" lon="-156.88697">
  <ele>151.34</ele>
  <time>2026-09-01T20:02:44Z</time>
  <course>67.08</course>
  <speed>0.03</speed>
  <fix>3d</fix>
</trkpt>
<trkpt lat="21.1680022" lon="-156.8869698">
  <ele>150.86</ele>
  <time>2026-09-01T20:02:44Z</time>
  <course>349.56</course>
  <speed>0.04</speed>
  <fix>3d</fix>
</trkpt>
<trkpt lat="21.1680024" lon="-156.88697">
  <ele>151.34</ele>
  <time>2026-09-01T20:02:44Z</time>
  <course>67.08</course>
  <speed>0.03</speed>
  <fix>3d</fix>
</trkpt>
<trkpt lat="21.1680022" lon="-156.8869698">
  <ele>150.74</ele>
  <time>2026-09-01T20:02:44Z</time>
  <course>349.54</course>
  <speed>0.03</speed>
  <fix>3d</fix>
</trkpt>
<trkpt lat="21.1680024" lon="-156.88697">
  <ele>151.11</ele>
  <time>2026-09-01T20:02:44Z</time>
  <course>59.38</course>
  <speed>0.02</speed>
  <fix>3d</fix>
</trkpt>
<trkpt lat="21.1680022" lon="-156.8869697">
  <ele>150.63</ele>
  <time>2026-09-01T20:02:44Z</time>
  <course>349.52</course>
  <speed>0.0316227766016838</speed>
  <fix>3d</fix>
</trkpt>
<trkpt lat="21.1680024" lon="-156.88697">
  <ele>151.11</ele>
  <time>2026-09-01T20:02:44Z</time>
  <course>59.38</course>
  <speed>0.02</speed>
  <fix>3d</fix>
</trkpt>
<trkpt lat="21.1680022" lon="-156.8869697">
  <ele>150.51</ele>
  <time>2026-09-01T20:02:44Z</time>
  <course>349.5</course>
  <speed>0.022360679774997897</speed>
  <fix>3d</fix>
</trkpt>
<trkpt lat="21.1680024" lon="-156.8869699">
  <ele>150.88</ele>
  <time>2026-09-01T20:02:44Z</time>
  <course>46.46</course>
  <speed>0.01</speed>
  <fix>3d</fix>
</trkpt>
<trkpt lat="21.1680022" lon="-156.8869697">
  <ele>150.4</ele>
  <time>2026-09-01T20:02:44Z</time>
  <course>349.47</course>
  <speed>0.022360679774997897</speed>
  <fix>3d</fix>
</trkpt>
<trkpt lat="21.1680024" lon="-156.8869699">
  <ele>150.88</ele>
  <time>2026-09-01T20:02:44Z</time>
  <course>46.46</course>
  <speed>0.01</speed>
  <fix>3d</fix>
</trkpt>
<trkpt lat="21.1680022" lon="-156.8869697">
  <ele>150.29</ele>
  <time>2026-09-01T20:02:44Z</time>
  <course>349.42</course>
  <speed>0.022360679774997897</speed>
  <fix>3d</fix>
</trkpt>
<trkpt lat="21.1680024" lon="-156.8869699">
  <ele>150.65</ele>
  <time>2026-09-01T20:02:44Z</time>
  <course>15.06</course>
  <speed>0.0</speed>
  <fix>3d</fix>
</trkpt>
<trkpt lat="21.1680022" lon="-156.8869697">
  <ele>150.17</ele>
  <time>2026-09-01T20:02:44Z</time>
  <course>349.33</course>
  <speed>0.022360679774997897</speed>
  <fix>3d</fix>
</trkpt>
<trkpt lat="21.1680024" lon="-156.8869699">
  <ele>150.65</ele>
  <time>2026-09-01T20:02:44Z</time>
  <course>15.06</course>
  <speed>0.0</speed>
  <fix>3d</fix>
</trkpt>
<trkpt lat="21.1680022" lon="-156.8869697">
  <ele>150.06</ele>
  <time>2026-09-01T20:02:44Z</time>
  <course>349.22</course>
  <speed>0.022360679774997897</speed>
  <fix>3d</fix>
</trkpt>
<trkpt lat="21.1680025" lon="-156.8869699">
  <ele>150.43</ele>
  <time>2026-09-01T20:02:44Z</time>
  <course>335.7</course>
  <speed>0.0</speed>
  <fix>3d</fix>
</trkpt>
<trkpt lat="21.1680022" lon="-156.8869697">
  <ele>149.94</ele>
  <time>2026-09-01T20:02:44Z</time>
  <course>349.09</course>
  <speed>0.022360679774997897</speed>
  <fix>3d</fix>
</trkpt>
<trkpt lat="21.1680025" lon="-156.8869699">
  <ele>150.43</ele>
  <time>2026-09-01T20:02:44Z</time>
  <course>335.7</course>
  <speed>0.0</speed>
  <fix>3d</fix>
</trkpt>
<trkpt lat="21.1680022" lon="-156.8869697">
  <ele>149.83</ele>
  <time>2026-09-01T20:02:44Z</time>
  <course>348.97</course>
  <speed>0.022360679774997897</speed>
  <fix>3d</fix>
</trkpt>
<trkpt lat="21.1680025" lon="-156.8869699">
  <ele>150.2</ele>
  <time>2026-09-01T20:02:44Z</time>
  <course>327.4</course>
  <speed>0.0</speed>
  <fix>3d</fix>
</trkpt>
<trkpt lat="21.1680023" lon="-156.8869697">
  <ele>149.83</ele>
  <time>2026-09-01T20:02:44Z</time>
  <course>348.97</course>
  <speed>0.022360679774997897</speed>
  <fix>3d</fix>
</trkpt>
<trkpt lat="21.1680023" lon="-156.8869697">
  <ele>149.72</ele>
  <time>2026-09-01T20:02:44Z</time>
  <course>348.72</course>
  <speed>0.02</speed>
  <fix>3d</fix>
</trkpt>
<trkpt lat="21.1680025" lon="-156.8869699">
  <ele>150.2</ele>
  <time>2026-09-01T20:02:44Z</time>
  <course>327.4</course>
  <speed>0.0</speed>
  <fix>3d</fix>
</trkpt>
<trkpt lat="21.1680023" lon="-156.8869697">
  <ele>149.57</ele>
  <time>2026-09-01T20:02:44Z</time>
  <course>348.19</course>
  <speed>0.05099019513592785</speed>
  <fix>3d</fix>
</trkpt>
<trkpt lat="21.1680025" lon="-156.8869699">
  <ele>149.97</ele>
  <time>2026-09-01T20:02:44Z</time>
  <course>338.88</course>
  <speed>0.01</speed>
  <fix>3d</fix>
</trkpt>
<trkpt lat="-26.9720619" lon="149.6127921">
  <ele>339.29</ele>
  <time>2026-09-01T20:02:45Z</time>
  <course>310.27</course>
  <speed>0.0</speed>
  <fix>3d</fix>
</trkpt>
<trkpt lat="-26.9720619" lon="149.6127921">
  <ele>339.29</ele>
  <time>2026-09-01T20:02:45Z</time>
  <course>310.27</course>
  <speed>0.0</speed>
  <fix>3d</fix>
</trkpt>
<trkpt lat="-27.274439" lon="151.290064">
  <ele>-0.01</ele>
  <time>2026-09-01T20:02:45Z</time>
  <course>0.18</course>
  <speed>0.0</speed>
  <fix>3d</fix>
</trkpt>
<trkpt lat="-27.274439" lon="151.290064">
  <ele>343.1</ele>
  <time>2026-09-01T20:02:45Z</time>
  <course>294.58</course>
  <speed>0.0</speed>
  <fix>3d</fix>
</trkpt>
<trkpt lat="-27.274439" lon="151.290064">
  <ele>0.02</ele>
  <time>2026-09-01T20:02:45Z</time>
  <course>1.17</course>
  <speed>0.0</speed>
  <fix>3d</fix>
</trkpt>
<trkpt lat="-27.274439" lon="151.290064">
  <ele>343.1</ele>
  <time>2026-09-01T20:02:45Z</time>
  <course>294.58</course>
  <speed>0.0</speed>
  <fix>3d</fix>
</trkpt>
<trkpt lat="-27.274439" lon="151.290064">
  <ele>-0.08</ele>
  <time>2026-09-01T20:02:45Z</time>
  <course>2.07</course>
  <speed>0.0</speed>
  <fix>3d</fix>
</trkpt>
<trkpt lat="-27.274439" lon="151.290064">
  <ele>343.1</ele>
  <time>2026-09-01T20:02:45Z</time>
  <course>273.33</course>
  <speed>0.0</speed>
  <fix>3d</fix>
</trkpt>
<trkpt lat="-27.274439" lon="151.290064">
  <ele>0.22</ele>
  <time>2026-09-01T20:02:45Z</time>
  <course>2.89</course>
  <speed>0.0</speed>
  <fix>3d</fix>
</trkpt>
<trkpt lat="-27.274439" lon="151.290064">
  <ele>343.1</ele>
  <time>2026-09-01T20:02:45Z</time>
  <course>273.33</course>
  <speed>0.0</speed>
  <fix>3d</fix>
</trkpt>
<trkpt lat="-27.274439" lon="151.290064">
  <ele>0.09</ele>
  <time>2026-09-01T20:02:45Z</time>
  <course>3.63</course>
  <speed>0.0</speed>
  <fix>3d</fix>
</trkpt>
<trkpt lat="-27.274439" lon="151.290064">
  <ele>343.1</ele>
  <time>2026-09-01T20:02:45Z</time>
  <course>270.44</course>
  <speed>0.0</speed>
  <fix>3d</fix>
</trkpt>
<trkpt lat="-27.274439" lon="151.290064">
  <ele>0.08</ele>
  <time>2026-09-01T20:02:45Z</time>
  <course>4.31</course>
  <speed>0.0</speed>
  <fix>3d</fix>
</trkpt>
<trkpt lat="-27.274439" lon="151.290064">
  <ele>343.1</ele>
  <time>2026-09-01T20:02:45Z</time>
  <course>270.44</course>
  <speed>0.0</speed>
  <fix>3d</fix>
</trkpt>
<trkpt lat="-27.274439" lon="151.290064">
  <ele>0.09</ele>
  <time>2026-09-01T20:02:45Z</time>
  <course>4.93</course>
  <speed>0.0</speed>
  <fix>3d</fix>
</trkpt>
<trkpt lat="-27.274439" lon="151.290064">
  <ele>343.1</ele>
  <time>2026-09-01T20:02:45Z</time>
  <course>270.05</course>
  <speed>0.0</speed>
  <fix>3d</fix>
</trkpt>
<trkpt lat="-27.274439" lon="151.290064">
  <ele>-0.05</ele>
  <time>2026-09-01T20:02:45Z</time>
  <course>5.48</course>
  <speed>0.0</speed>
  <fix>3d</fix>
</trkpt>
<trkpt lat="-27.274439" lon="151.290064">
  <ele>343.1</ele>
  <time>2026-09-01T20:02:45Z</time>
  <course>270.05</course>
  <speed>0.0</speed>
  <fix>3d</fix>
</trkpt>
<trkpt lat="-27.274439" lon="151.290064">
  <ele>343.06</ele>
  <time>2026-09-01T20:02:45Z</time>
  <course>5.96</course>
  <speed>0.0</speed>
  <fix>3d</fix>
</trkpt>
<trkpt lat="-27.274439" lon="151.290064">
  <ele>343.1</ele>
  <time>2026-09-01T20:02:45Z</time>
  <course>270.0</course>
  <speed>0.0</speed>
  <fix>3d</fix>
</trkpt>
<trkpt lat="-27.274439" lon="151.290064">
  <ele>343.18</ele>
  <time>2026-09-01T20:02:45Z</time>
  <course>6.42</course>
  <speed>0.0</speed>
  <fix>3d</fix>
</trkpt>
<trkpt lat="-27.274439" lon="151.290064">
  <ele>343.1</ele>
  <time>2026-09-01T20:02:45Z</time>
  <course>270.0</course>
  <speed>0.0</speed>
  <fix>3d</fix>
</trkpt>
<trkpt lat="-27.274439" lon="151.290064">
  <ele>342.91</ele>
  <time>2026-09-01T20:02:45Z</time>
  <course>6.84</course>
  <speed>0.0</speed>
  <fix>3d</fix>
</trkpt>
<trkpt lat="-27.274439" lon="151.290064">
  <ele>343.1</ele>
  <time>2026-09-01T20:02:45Z</time>
  <course>270.0</course>
  <speed>0.0</speed>
  <fix>3d</fix>
</trkpt>
<trkpt lat="-27.274439" lon="151.290064">
  <ele>343.06</ele>
  <time>2026-09-01T20:02:45Z</time>
  <course>7.21</course>
  <speed>0.0</speed>
  <fix>3d</fix>
</trkpt>
<trkpt lat="-27.274439" lon="151.290064">
  <ele>343.1</ele>
  <time>2026-09-01T20:02:45Z</time>
  <course>270.0</course>
  <speed>0.0</speed>
  <fix>3d</fix>
</trkpt>
<trkpt lat="-27.274439" lon="151.290064">
  <ele>343.13</ele>
  <time>2026-09-01T20:02:45Z</time>
  <course>7.55</course>
  <speed>0.0</speed>
  <fix>3d</fix>
</trkpt>
<trkpt lat="-27.274439" lon="151.290064">
  <ele>343.1</ele>
  <time>2026-09-01T20:02:45Z</time>
  <course>270.0</course>
  <speed>0.0</speed>
  <fix>3d</fix>
</trkpt>
<trkpt lat="-27.274439" lon="151.290064">
  <ele>343.04</ele>
  <time>2026-09-01T20:02:45Z</time>
  <course>7.86</course>
  <speed>0.0</speed>
  <fix>3d</fix>
</trkpt>
<trkpt lat="-27.274439" lon="151.290064">
  <ele>343.1</ele>
  <time>2026-09-01T20:02:45Z</time>
  <course>270.0</course>
  <speed>0.0</speed>
  <fix>3d</fix>
</trkpt>
<trkpt lat="-27.274439" lon="151.290064">
  <ele>342.88</ele>
  <time>2026-09-01T20:02:45Z</time>
  <course>8.13</course>
  <speed>0.0</speed>
  <fix>3d</fix>
</trkpt>
<trkpt lat="-27.274439" lon="151.290064">
  <ele>343.1</ele>
  <time>2026-09-01T20:02:45Z</time>
  <course>270.0</course>
  <speed>0.0</speed>
  <fix>3d</fix>
</trkpt>
<trkpt lat="-27.274439" lon="151.290064">
  <ele>343.02</ele>
  <time>2026-09-01T20:02:45Z</time>
  <course>8.38</course>
  <speed>0.0</speed>
  <fix>3d</fix>
</trkpt>
<trkpt lat="-27.274439" lon="151.290064">
  <ele>343.1</ele>
  <time>2026-09-01T20:02:45Z</time>
  <course>270.0</course>
  <speed>0.0</speed>
  <fix>3d</fix>
</trkpt>
<trkpt lat="-27.274439" lon="151.290064">
  <ele>343.23</ele>
  <time>2026-09-01T20:02:45Z</time>
  <course>8.62</course>
  <speed>0.0</speed>
  <fix>3d</fix>
</trkpt>
<trkpt lat="-27.274439" lon="151.290064">
  <ele>343.1</ele>
  <time>2026-09-01T20:02:45Z</time>
  <course>270.0</course>
  <speed>0.0</speed>
  <fix>3d</fix>
</trkpt>
<trkpt lat="-27.274439" lon="151.290064">
  <ele>343.17</ele>
  <time>2026-09-01T20:02:45Z</time>
  <course>8.82</course>
  <speed>0.0</speed>
  <fix>3d</fix>
</trkpt>
<trkpt lat="-27.274439" lon="151.290064">
  <ele>343.1</ele>
  <time>2026-09-01T20:02:45Z</time>
  <course>270.0</course>
  <speed>0.0</speed>
  <fix>3d</fix>
</trkpt>
<trkpt lat="-27.274439" lon="151.290064">
  <ele>343.04</ele>
  <time>2026-09-01T20:02:45Z</time>
  <course>9.0</course>
  <speed>0.0</speed>
  <fix>3d</fix>
</trkpt>
<trkpt lat="-27.274439" lon="151.290064">
  <ele>343.1</ele>
  <time>2026-09-01T20:02:45Z</time>
  <course>270.0</course>
  <speed>0.0</speed>
  <fix>3d</fix>
</trkpt>
<trkpt lat="-27.274439" lon="151.290064">
  <ele>342.89</ele>
  <time>2026-09-01T20:02:45Z</time>
  <course>9.17</course>
  <speed>0.0</speed>
  <fix>3d</fix>
</trkpt>
<trkpt lat="-27.274439" lon="151.290064">
  <ele>343.1</ele>
  <time>2026-09-01T20:02:45Z</time>
  <course>270.0</course>
  <speed>0.0</speed>
  <fix>3d</fix>
</trkpt>
<trkpt lat="-27.274439" lon="151.290064">
  <ele>343.08</ele>
  <time>2026-09-01T20:02:45Z</time>
  <course>9.32</course>
  <speed>0.0</speed>
  <fix>3d</fix>
</trkpt>
<trkpt lat="-27.274439" lon="151.290064">
  <ele>343.1</ele>
  <time>2026-09-01T20:02:45Z</time>
  <course>270.0</course>
  <speed>0.0</speed>
  <fix>3d</fix>
</trkpt>
<trkpt lat="-27.274439" lon="151.290064">
  <ele>343.19</ele>
  <time>2026-09-01T20:02:45Z</time>
  <course>9.46</course>
  <speed>0.0</speed>
  <fix>3d</fix>
</trkpt>
<trkpt lat="-27.274439" lon="151.290064">
  <ele>343.1</ele>
  <time>2026-09-01T20:02:45Z</time>
  <course>270.0</course>
  <speed>0.0</speed>
  <fix>3d</fix>
</trkpt>
<trkpt lat="-27.274439" lon="151.290064">
  <ele>342.88</ele>
  <time>2026-09-01T20:02:45Z</time>
  <course>9.59</course>
  <speed>0.0</speed>
  <fix>3d</fix>
</trkpt>
<trkpt lat="-27.274439" lon="151.290064">
  <ele>343.1</ele>
  <time>2026-09-01T20:02:45Z</time>
  <course>270.0</course>
  <speed>0.0</speed>
  <fix>3d</fix>
</trkpt>
<trkpt lat="-27.274439" lon="151.290064">
  <ele>343.17</ele>
  <time>2026-09-01T20:02:45Z</time>
  <course>9.7</course>
  <speed>0.0</speed>
  <fix>3d</fix>
</trkpt>
<trkpt lat="-27.274439" lon="151.290064">
  <ele>343.1</ele>
  <time>2026-09-01T20:02:45Z</time>
  <course>270.0</course>
  <speed>0.0</speed>
  <fix>3d</fix>
</trkpt>
<trkpt lat="-27.274439" lon="151.290064">
  <ele>342.89</ele>
  <time>2026-09-01T20:02:45Z</time>
  <course>9.8</course>
  <speed>0.0</speed>
  <fix>3d</fix>
</trkpt>
<trkpt lat="-27.274439" lon="151.290064">
  <ele>343.1</ele>
  <time>2026-09-01T20:02:45Z</time>
  <course>270.0</course>
  <speed>0.0</speed>
  <fix>3d</fix>
</trkpt>
<trkpt lat="-27.274439" lon="151.290064">
  <ele>342.99</ele>
  <time>2026-09-01T20:02:45Z</time>
  <course>9.89</course>
  <speed>0.0</speed>
  <fix>3d</fix>
</trkpt>
<trkpt lat="-27.274439" lon="151.290064">
  <ele>343.1</ele>
  <time>2026-09-01T20:02:45Z</time>
  <course>270.0</course>
  <speed>0.0</speed>
  <fix>3d</fix>
</trkpt>
<trkpt lat="-27.274439" lon="151.290064">
  <ele>342.87</ele>
  <time>2026-09-01T20:02:45Z</time>
  <course>9.98</course>
  <speed>0.0</speed>
  <fix>3d</fix>
</trkpt>
<trkpt lat="-27.274439" lon="151.290064">
  <ele>343.1</ele>
  <time>2026-09-01T20:02:45Z</time>
  <course>270.0</course>
  <speed>0.0</speed>
  <fix>3d</fix>
</trkpt>
<trkpt lat="-27.274439" lon="151.290064">
  <ele>343.09</ele>
  <time>2026-09-01T20:02:45Z</time>
  <course>10.06</course>
  <speed>0.0</speed>
  <fix>3d</fix>
</trkpt>
<trkpt lat="-27.274439" lon="151.290064">
  <ele>343.1</ele>
  <time>2026-09-01T20:02:45Z</time>
  <course>270.0</course>
  <speed>0.0</speed>
  <fix>3d</fix>
</trkpt>
<trkpt lat="-27.274439" lon="151.290064">
  <ele>343.18</ele>
  <time>2026-09-01T20:02:45Z</time>
  <course>10.13</course>
  <speed>0.0</speed>
  <fix>3d</fix>
</trkpt>
<trkpt lat="-27.274439" lon="151.290064">
  <ele>343.1</ele>
  <time>2026-09-01T20:02:45Z</time>
  <course>270.0</course>
  <speed>0.0</speed>
  <fix>3d</fix>
</trkpt>
<trkpt lat="-27.274439" lon="151.290064">
  <ele>343.05</ele>
  <time>2026-09-01T20:02:45Z</time>
  <course>10.19</course>
  <speed>0.0</speed>
  <fix>3d</fix>
</trkpt>
<trkpt lat="-27.274439" lon="151.290064">
  <ele>343.1</ele>
  <time>2026-09-01T20:02:45Z</time>
  <course>270.0</course>
  <speed>0.0</speed>
  <fix>3d</fix>
</trkpt>
<trkpt lat="-27.274439" lon="151.290064">
  <ele>342.96</ele>
  <time>2026-09-01T20:02:45Z</time>
  <course>10.25</course>
  <speed>0.0</speed>
  <fix>3d</fix>
</trkpt>
<trkpt lat="-27.274439" lon="151.290064">
  <ele>343.1</ele>
  <time>2026-09-01T20:02:45Z</time>
  <course>270.0</course>
  <speed>0.0</speed>
  <fix>3d</fix>
</trkpt>
<trkpt lat="-27.274439" lon="151.290064">
  <ele>343.1</ele>
  <time>2026-09-01T20:02:45Z</time>
  <course>10.3</course>
  <speed>0.0</speed>
  <fix>3d</fix>
</trkpt>
<trkpt lat="-27.274439" lon="151.290064">
  <ele>343.1</ele>
  <time>2026-09-01T20:02:45Z</time>
  <course>270.0</course>
  <speed>0.0</speed>
  <fix>3d</fix>
</trkpt>
<trkpt lat="-27.274439" lon="151.290064">
  <ele>343.22</ele>
  <time>2026-09-01T20:02:45Z</time>
  <course>10.35</course>
  <speed>0.0</speed>
  <fix>3d</fix>
</trkpt>
<trkpt lat="-27.274439" lon="151.290064">
  <ele>343.1</ele>
  <time>2026-09-01T20:02:45Z</time>
  <course>270.0</course>
  <speed>0.0</speed>
  <fix>3d</fix>
</trkpt>
<trkpt lat="-27.274439" lon="151.290064">
  <ele>343.17</ele>
  <time>2026-09-01T20:02:45Z</time>
  <course>10.39</course>
  <speed>0.0</speed>
  <fix>3d</fix>
</trkpt>
<trkpt lat="-27.274439" lon="151.290064">
  <ele>343.1</ele>
  <time>2026-09-01T20:02:45Z</time>
  <course>270.0</course>
  <speed>0.0</speed>
  <fix>3d</fix>
</trkpt>
<trkpt lat="-27.274439" lon="151.290064">
  <ele>343.08</ele>
  <time>2026-09-01T20:02:45Z</time>
  <course>10.43</course>
  <speed>0.0</speed>
  <fix>3d</fix>
</trkpt>
<trkpt lat="-27.274439" lon="151.290064">
  <ele>343.1</ele>
  <time>2026-09-01T20:02:45Z</time>
  <course>270.0</course>
  <speed>0.0</speed>
  <fix>3d</fix>
</trkpt>
<trkpt lat="-27.274439" lon="151.290064">
  <ele>343.04</ele>
  <time>2026-09-01T20:02:45Z</time>
  <course>10.47</course>
  <speed>0.0</speed>
  <fix>3d</fix>
</trkpt>
<trkpt lat="-27.274439" lon="151.290064">
  <ele>343.1</ele>
  <time>2026-09-01T20:02:45Z</time>
  <course>270.0</course>
  <speed>0.0</speed>
  <fix>3d</fix>
</trkpt>
<trkpt lat="-27.274439" lon="151.290064">
  <ele>343.18</ele>
  <time>2026-09-01T20:02:45Z</time>
  <course>10.5</course>
  <speed>0.0</speed>
  <fix>3d</fix>
</trkpt>
<trkpt lat="-27.274439" lon="151.290064">
  <ele>343.1</ele>
  <time>2026-09-01T20:02:45Z</time>
  <course>270.0</course>
  <speed>0.0</speed>
  <fix>3d</fix>
</trkpt>
<trkpt lat="-27.274439" lon="151.290064">
  <ele>343.12</ele>
  <time>2026-09-01T20:02:45Z</time>
  <course>10.53</course>
  <speed>0.0</speed>
  <fix>3d</fix>
</trkpt>
<trkpt lat="-27.274439" lon="151.290064">
  <ele>343.1</ele>
  <time>2026-09-01T20:02:45Z</time>
  <course>270.0</course>
  <speed>0.0</speed>
  <fix>3d</fix>
</trkpt>
<trkpt lat="-27.274439" lon="151.290064">
  <ele>343.04</ele>
  <time>2026-09-01T20:02:45Z</time>
  <course>10.55</course>
  <speed>0.0</speed>
  <fix>3d</fix>
</trkpt>
<trkpt lat="-27.274439" lon="151.290064">
  <ele>343.1</ele>
  <time>2026-09-01T20:02:45Z</time>
  <course>270.0</course>
  <speed>0.0</speed>
  <fix>3d</fix>
</trkpt>
<trkpt lat="-27.274439" lon="151.290064">
  <ele>343.07</ele>
  <time>2026-09-01T20:02:45Z</time>
  <course>10.58</course>
  <speed>0.0</speed>
  <fix>3d</fix>
</trkpt>
<trkpt lat="-27.274439" lon="151.290064">
  <ele>343.1</ele>
  <time>2026-09-01T20:02:45Z</time>
  <course>270.0</course>
  <speed>0.0</speed>
  <fix>3d</fix>
</trkpt>
<trkpt lat="-27.274439" lon="151.290064">
  <ele>343.04</ele>
  <time>2026-09-01T20:02:45Z</time>
  <course>10.6</course>
  <speed>0.0</speed>
  <fix>3d</fix>
</trkpt>
<trkpt lat="-27.274439" lon="151.290064">
  <ele>343.1</ele>
  <time>2026-09-01T20:02:45Z</time>
  <course>270.0</course>
  <speed>0.0</speed>
  <fix>3d</fix>
</trkpt>
<trkpt lat="-27.274439" lon="151.290064">
  <ele>343.01</ele>
  <time>2026-09-01T20:02:45Z</time>
  <course>10.62</course>
  <speed>0.0</speed>
  <fix>3d</fix>
</trkpt>
<trkpt lat="-27.274439" lon="151.290064">
  <ele>343.1</ele>
  <time>2026-09-01T20:02:45Z</time>
  <course>270.0</course>
  <speed>0.0</speed>
  <fix>3d</fix>
</trkpt>
<trkpt lat="-27.274439" lon="151.290064">
  <ele>343.2</ele>
  <time>2026-09-01T20:02:45Z</time>
  <course>10.64</course>
  <speed>0.0</speed>
  <fix>3d</fix>
</trkpt>
<trkpt lat="-27.274439" lon="151.290064">
  <ele>343.1</ele>
  <time>2026-09-01T20:02:45Z</time>
  <course>270.0</course>
  <speed>0.0</speed>
  <fix>3d</fix>
</trkpt>
<trkpt lat="-27.274439" lon="151.290064">
  <ele>343.24</ele>
  <time>2026-09-01T20:02:45Z</time>
  <course>10.65</course>
  <speed>0.0</speed>
  <fix>3d</fix>
</trkpt>
<trkpt lat="-27.274439" lon="151.290064">
  <ele>343.1</ele>
  <time>2026-09-01T20:02:45Z</time>
  <course>270.0</course>
  <speed>0.0</speed>
  <fix>3d</fix>
</trkpt>
<trkpt lat="-27.274439" lon="151.290064">
  <ele>342.88</ele>
  <time>2026-09-01T20:02:45Z</time>
  <course>10.67</course>
  <speed>0.0</speed>
  <fix>3d</fix>
</trkpt>
<trkpt lat="-27.274439" lon="151.290064">
  <ele>343.1</ele>
  <time>2026-09-01T20:02:45Z</time>
  <course>270.0</course>
  <speed>0.0</speed>
  <fix>3d</fix>
</trkpt>
<trkpt lat="-27.274439" lon="151.290064">
  <ele>343.21</ele>
  <time>2026-09-01T20:02:45Z</time>
  <course>10.68</course>
  <speed>0.0</speed>
  <fix>3d</fix>
</trkpt>
<trkpt lat="-27.274439" lon="151.290064">
  <ele>343.1</ele>
  <time>2026-09-01T20:02:45Z</time>
  <course>270.0</course>
  <speed>0.0</speed>
  <fix>3d</fix>
</trkpt>
<trkpt lat="-27.274439" lon="151.290064">
  <ele>343.02</ele>
  <time>2026-09-01T20:02:45Z</time>
  <course>10.69</course>
  <speed>0.0</speed>
  <fix>3d</fix>
</trkpt>
<trkpt lat="-27.274439" lon="151.290064">
  <ele>343.1</ele>
  <time>2026-09-01T20:02:45Z</time>
  <course>270.0</course>
  <speed>0.0</speed>
  <fix>3d</fix>
</trkpt>
<trkpt lat="-27.274439" lon="151.290064">
  <ele>342.93</ele>
  <time>2026-09-01T20:02:45Z</time>
  <course>10.7</course>
  <speed>0.0</speed>
  <fix>3d</fix>
</trkpt>
<trkpt lat="-27.274439" lon="151.290064">
  <ele>343.1</ele>
  <time>2026-09-01T20:02:45Z</time>
  <course>270.0</course>
  <speed>0.0</speed>
  <fix>3d</fix>
</trkpt>
<trkpt lat="-27.274439" lon="151.290064">
  <ele>343.07</ele>
  <time>2026-09-01T20:02:45Z</time>
  <course>10.71</course>
  <speed>0.0</speed>
  <fix>3d</fix>
</trkpt>
<trkpt lat="-27.274439" lon="151.290064">
  <ele>343.1</ele>
  <time>2026-09-01T20:02:45Z</time>
  <course>270.0</course>
  <speed>0.0</speed>
  <fix>3d</fix>
</trkpt>
<trkpt lat="-27.274439" lon="151.290064">
  <ele>342.94</ele>
  <time>2026-09-01T20:02:45Z</time>
  <course>10.72</course>
  <speed>0.0</speed>
  <fix>3d</fix>
</trkpt>
<trkpt lat="-27.274439" lon="151.290064">
  <ele>343.1</ele>
  <time>2026-09-01T20:02:45Z</time>
  <course>270.0</course>
  <speed>0.0</speed>
  <fix>3d</fix>
</trkpt>
<trkpt lat="-27.274439" lon="151.290064">
  <ele>343.11</ele>
  <time>2026-09-01T20:02:45Z</time>
  <course>10.73</course>
  <speed>0.0</speed>
  <fix>3d</fix>
</trkpt>
<trkpt lat="-27.274439" lon="151.290064">
  <ele>343.1</ele>
  <time>2026-09-01T20:02:45Z</time>
  <course>270.0</course>
  <speed>0.0</speed>
  <fix>3d</fix>
</trkpt>
<trkpt lat="-27.274439" lon="151.290064">
  <ele>343.24</ele>
  <time>2026-09-01T20:02:45Z</time>
  <course>10.73</course>
  <speed>0.0</speed>
  <fix>3d</fix>
</trkpt>
<trkpt lat="-27.274439" lon="151.290064">
  <ele>343.1</ele>
  <time>2026-09-01T20:02:45Z</time>
  <course>270.0</course>
  <speed>0.0</speed>
  <fix>3d</fix>
</trkpt>
<trkpt lat="-27.274439" lon="151.290064">
  <ele>343.18</ele>
  <time>2026-09-01T20:02:45Z</time>
  <course>10.74</course>
  <speed>0.0</speed>
  <fix>3d</fix>
</trkpt>
<trkpt lat="-27.274439" lon="151.290064">
  <ele>343.1</ele>
  <time>2026-09-01T20:02:45Z</time>
  <course>270.0</course>
  <speed>0.0</speed>
  <fix>3d</fix>
</trkpt>
<trkpt lat="-27.274439" lon="151.290064">
  <ele>342.89</ele>
  <time>2026-09-01T20:02:45Z</time>
  <course>10.75</course>
  <speed>0.0</speed>
  <fix>3d</fix>
</trkpt>
<trkpt lat="-27.274439" lon="151.290064">
  <ele>343.1</ele>
  <time>2026-09-01T20:02:45Z</time>
  <course>270.0</course>
  <speed>0.0</speed>
  <fix>3d</fix>
</trkpt>
<trkpt lat="-27.274439" lon="151.290064">
  <ele>343.23</ele>
  <time>2026-09-01T20:02:45Z</time>
  <course>10.75</course>
  <speed>0.0</speed>
  <fix>3d</fix>
</trkpt>
<trkpt lat="-27.274439" lon="151.290064">
  <ele>343.1</ele>
  <time>2026-09-01T20:02:45Z</time>
  <course>270.0</course>
  <speed>0.0</speed>
  <fix>3d</fix>
</trkpt>
<trkpt lat="-27.274439" lon="151.290064">
  <ele>343.23</ele>
  <time>2026-09-01T20:02:45Z</time>
  <course>10.76</course>
  <speed>0.0</speed>
  <fix>3d</fix>
</trkpt>
<trkpt lat="-27.274439" lon="151.290064">
  <ele>343.1</ele>
  <time>2026-09-01T20:02:45Z</time>
  <course>270.0</course>
  <speed>0.0</speed>
  <fix>3d</fix>
</trkpt>
<trkpt lat="-27.274439" lon="151.290064">
  <ele>342.99</ele>
  <time>2026-09-01T20:02:45Z</time>
  <course>10.76</course>
  <speed>0.0</speed>
  <fix>3d</fix>
</trkpt>
<trkpt lat="-27.274439" lon="151.290064">
  <ele>343.1</ele>
  <time>2026-09-01T20:02:45Z</time>
  <course>270.0</course>
  <speed>0.0</speed>
  <fix>3d</fix>
</trkpt>
<trkpt lat="-27.274439" lon="151.290064">
  <ele>343.13</ele>
  <time>2026-09-01T20:02:45Z</time>
  <course>10.76</course>
  <speed>0.0</speed>
  <fix>3d</fix>
</trkpt>
<trkpt lat="-27.274439" lon="151.290064">
  <ele>343.1</ele>
  <time>2026-09-01T20:02:45Z</time>
  <course>270.0</course>
  <speed>0.0</speed>
  <fix>3d</fix>
</trkpt>
<trkpt lat="-27.274439" lon="151.290064">
  <ele>343.07</ele>
  <time>2026-09-01T20:02:45Z</time>
  <course>10.77</course>
  <speed>0.0</speed>
  <fix>3d</fix>
</trkpt>
<trkpt lat="-27.274439" lon="151.290064">
  <ele>343.1</ele>
  <time>2026-09-01T20:02:45Z</time>
  <course>270.0</course>
  <speed>0.0</speed>
  <fix>3d</fix>
</trkpt>
<trkpt lat="-27.274439" lon="151.290064">
  <ele>343.19</ele>
  <time>2026-09-01T20:02:45Z</time>
  <course>10.77</course>
  <speed>0.0</speed>
  <fix>3d</fix>
</trkpt>
<trkpt lat="-27.274439" lon="151.290064">
  <ele>343.1</ele>
  <time>2026-09-01T20:02:45Z</time>
  <course>270.0</course>
  <speed>0.0</speed>
  <fix>3d</fix>
</trkpt>
<trkpt lat="-27.274439" lon="151.290064">
  <ele>342.93</ele>
  <time>2026-09-01T20:02:45Z</time>
  <course>10.77</course>
  <speed>0.0</speed>
  <fix>3d</fix>
</trkpt>
<trkpt lat="-27.274439" lon="151.290064">
  <ele>343.1</ele>
  <time>2026-09-01T20:02:45Z</time>
  <course>270.0</course>
  <speed>0.0</speed>
  <fix>3d</fix>
</trkpt>
<trkpt lat="-27.274439" lon="151.290064">
  <ele>343.19</ele>
  <time>2026-09-01T20:02:45Z</time>
  <course>10.78</course>
  <speed>0.0</speed>
  <fix>3d</fix>
</trkpt>
<trkpt lat="-27.274439" lon="151.290064">
  <ele>343.1</ele>
  <time>2026-09-01T20:02:45Z</time>
  <course>270.0</course>
  <speed>0.0</speed>
  <fix>3d</fix>
</trkpt>
<trkpt lat="-27.274439" lon="151.290064">
  <ele>343.1</ele>
  <time>2026-09-01T20:02:45Z</time>
  <course>10.78</course>
  <speed>0.0</speed>
  <fix>3d</fix>
</trkpt>
<trkpt lat="-27.274439" lon="151.290064">
  <ele>343.1</ele>
  <time>2026-09-01T20:02:45Z</time>
  <course>270.0</course>
  <speed>0.0</speed>
  <fix>3d</fix>
</trkpt>
<trkpt lat="-27.274439" lon="151.290064">
  <ele>343.01</ele>
  <time>2026-09-01T20:02:45Z</time>
  <course>10.78</course>
  <speed>0.0</speed>
  <fix>3d</fix>
</trkpt>
<trkpt lat="-27.274439" lon="151.290064">
  <ele>343.1</ele>
  <time>2026-09-01T20:02:45Z</time>
  <course>270.0</course>
  <speed>0.0</speed>
  <fix>3d</fix>
</trkpt>
<trkpt lat="-27.274439" lon="151.290064">
  <ele>343.11</ele>
  <time>2026-09-01T20:02:45Z</time>
  <course>10.78</course>
  <speed>0.0</speed>
  <fix>3d</fix>
</trkpt>
<trkpt lat="-27.274439" lon="151.290064">
  <ele>343.1</ele>
  <time>2026-09-01T20:02:45Z</time>
  <course>270.0</course>
  <speed>0.0</speed>
  <fix>3d</fix>
</trkpt>
<trkpt lat="-27.274439" lon="151.290064">
  <ele>342.96</ele>
  <time>2026-09-01T20:02:45Z</time>
  <course>10.78</course>
  <speed>0.0</speed>
  <fix>3d</fix>
</trkpt>
<trkpt lat="-27.274439" lon="151.290064">
  <ele>343.1</ele>
  <time>2026-09-01T20:02:45Z</time>
  <course>270.0</course>
  <speed>0.0</speed>
  <fix>3d</fix>
</trkpt>
<trkpt lat="-27.274439" lon="151.290064">
  <ele>343.19</ele>
  <time>2026-09-01T20:02:45Z</time>
  <course>10.79</course>
  <speed>0.0</speed>
  <fix>3d</fix>
</trkpt>
<trkpt lat="-27.274439" lon="151.290064">
  <ele>343.1</ele>
  <time>2026-09-01T20:02:45Z</time>
  <course>270.0</course>
  <speed>0.0</speed>
  <fix>3d</fix>
</trkpt>
<trkpt lat="-27.274439" lon="151.290064">
  <ele>343.0</ele>
  <time>2026-09-01T20:02:45Z</time>
  <course>10.79</course>
  <speed>0.0</speed>
  <fix>3d</fix>
</trkpt>
<trkpt lat="-27.274439" lon="151.290064">
  <ele>343.1</ele>
  <time>2026-09-01T20:02:45Z</time>
  <course>270.0</course>
  <speed>0.0</speed>
  <fix>3d</fix>
</trkpt>
<trkpt lat="-27.274439" lon="151.290064">
  <ele>343.2</ele>
  <time>2026-09-01T20:02:45Z</time>
  <course>10.79</course>
  <speed>0.0</speed>
  <fix>3d</fix>
</trkpt>
<trkpt lat="-27.274439" lon="151.290064">
  <ele>343.1</ele>
  <time>2026-09-01T20:02:45Z</time>
  <course>270.0</course>
  <speed>0.0</speed>
  <fix>3d</fix>
</trkpt>
<trkpt lat="-27.274439" lon="151.290064">
  <ele>343.2</ele>
  <time>2026-09-01T20:02:45Z</time>
  <course>10.79</course>
  <speed>0.0</speed>
  <fix>3d</fix>
</trkpt>
<trkpt lat="-27.274439" lon="151.290064">
  <ele>343.1</ele>
  <time>2026-09-01T20:02:45Z</time>
  <course>270.0</course>
  <speed>0.0</speed>
  <fix>3d</fix>
</trkpt>
<trkpt lat="-27.274439" lon="151.290064">
  <ele>343.13</ele>
  <time>2026-09-01T20:02:45Z</time>
  <course>10.79</course>
  <speed>0.0</speed>
  <fix>3d</fix>
</trkpt>
<trkpt lat="-27.274439" lon="151.290064">
  <ele>343.1</ele>
  <time>2026-09-01T20:02:45Z</time>
  <course>270.0</course>
  <speed>0.0</speed>
  <fix>3d</fix>
</trkpt>
<trkpt lat="-27.274439" lon="151.290064">
  <ele>343.1</ele>
  <time>2026-09-01T20:02:45Z</time>
  <course>10.79</course>
  <speed>0.0</speed>
  <fix>3d</fix>
</trkpt>
<trkpt lat="-27.274439" lon="151.290064">
  <ele>343.1</ele>
  <time>2026-09-01T20:02:45Z</time>
  <course>270.0</course>
  <speed>0.0</speed>
  <fix>3d</fix>
</trkpt>
<trkpt lat="-27.274439" lon="151.290064">
  <ele>343.12</ele>
  <time>2026-09-01T20:02:45Z</time>
  <course>10.79</course>
  <speed>0.0</speed>
  <fix>3d</fix>
</trkpt>
<trkpt lat="-27.274439" lon="151.290064">
  <ele>343.1</ele>
  <time>2026-09-01T20:02:45Z</time>
  <course>270.0</course>
  <speed>0.0</speed>
  <fix>3d</fix>
</trkpt>
<trkpt lat="-27.274439" lon="151.290064">
  <ele>342.94</ele>
  <time>2026-09-01T20:02:45Z</time>
  <course>10.79</course>
  <speed>0.0</speed>
  <fix>3d</fix>
</trkpt>
<trkpt lat="-27.274439" lon="151.290064">
  <ele>343.1</ele>
  <time>2026-09-01T20:02:45Z</time>
  <course>270.0</course>
  <speed>0.0</speed>
  <fix>3d</fix>
</trkpt>
<trkpt lat="-27.274439" lon="151.290064">
  <ele>343.25</ele>
  <time>2026-09-01T20:02:45Z</time>
  <course>10.79</course>
  <speed>0.0</speed>
  <fix>3d</fix>
</trkpt>
<trkpt lat="-27.274439" lon="151.290064">
  <ele>343.1</ele>
  <time>2026-09-01T20:02:45Z</time>
  <course>270.0</course>
  <speed>0.0</speed>
  <fix>3d</fix>
</trkpt>
<trkpt lat="-27.274439" lon="151.290064">
  <ele>342.93</ele>
  <time>2026-09-01T20:02:45Z</time>
  <course>10.79</course>
  <speed>0.0</speed>
  <fix>3d</fix>
</trkpt>
<trkpt lat="-27.274439" lon="151.290064">
  <ele>343.1</ele>
  <time>2026-09-01T20:02:45Z</time>
  <course>270.0</course>
  <speed>0.0</speed>
  <fix>3d</fix>
</trkpt>
<trkpt lat="-27.274439" lon="151.290064">
  <ele>343.08</ele>
  <time>2026-09-01T20:02:45Z</time>
  <course>10.8</course>
  <speed>0.0</speed>
  <fix>3d</fix>
</trkpt>
<trkpt lat="-27.274439" lon="151.290064">
  <ele>343.1</ele>
  <time>2026-09-01T20:02:45Z</time>
  <course>270.0</course>
  <speed>0.0</speed>
  <fix>3d</fix>
</trkpt>
<trkpt lat="-27.274439" lon="151.290064">
  <ele>343.23</ele>
  <time>2026-09-01T20:02:45Z</time>
  <course>10.8</course>
  <speed>0.0</speed>
  <fix>3d</fix>
</trkpt>
<trkpt lat="-27.274439" lon="151.290064">
  <ele>343.1</ele>
  <time>2026-09-01T20:02:45Z</time>
  <course>270.0</course>
  <speed>0.0</speed>
  <fix>3d</fix>
</trkpt>
<trkpt lat="-27.274439" lon="151.290064">
  <ele>343.01</ele>
  <time>2026-09-01T20:02:45Z</time>
  <course>10.8</course>
  <speed>0.0</speed>
  <fix>3d</fix>
</trkpt>
<trkpt lat="-27.274439" lon="151.290064">
  <ele>343.1</ele>
  <time>2026-09-01T20:02:45Z</time>
  <course>270.0</course>
  <speed>0.0</speed>
  <fix>3d</fix>
</trkpt>
<trkpt lat="-27.274439" lon="151.290064">
  <ele>343.1</ele>
  <time>2026-09-01T20:02:45Z</time>
  <course>10.8</course>
  <speed>0.0</speed>
  <fix>3d</fix>
</trkpt>
<trkpt lat="-27.274439" lon="151.290064">
  <ele>343.1</ele>
  <time>2026-09-01T20:02:45Z</time>
  <course>270.0</course>
  <speed>0.0</speed>
  <fix>3d</fix>
</trkpt>
<trkpt lat="-27.274439" lon="151.290064">
  <ele>342.99</ele>
  <time>2026-09-01T20:02:45Z</time>
  <course>10.8</course>
  <speed>0.0</speed>
  <fix>3d</fix>
</trkpt>
<trkpt lat="-27.274439" lon="151.290064">
  <ele>343.1</ele>
  <time>2026-09-01T20:02:45Z</time>
  <course>270.0</course>
  <speed>0.0</speed>
  <fix>3d</fix>
</trkpt>
<trkpt lat="-27.274439" lon="151.290064">
  <ele>342.87</ele>
  <time>2026-09-01T20:02:45Z</time>
  <course>10.8</course>
  <speed>0.0</speed>
  <fix>3d</fix>
</trkpt>
<trkpt lat="-27.274439" lon="151.290064">
  <ele>343.1</ele>
  <time>2026-09-01T20:02:45Z</time>
  <course>270.0</course>
  <speed>0.0</speed>
  <fix>3d</fix>
</trkpt>
<trkpt lat="-27.274439" lon="151.290064">
  <ele>343.1</ele>
  <time>2026-09-01T20:02:45Z</time>
  <course>10.8</course>
  <speed>0.0</speed>
  <fix>3d</fix>
</trkpt>
<trkpt lat="-27.274439" lon="151.290064">
  <ele>343.1</ele>
  <time>2026-09-01T20:02:45Z</time>
  <course>270.0</course>
  <speed>0.0</speed>
  <fix>3d</fix>
</trkpt>
<trkpt lat="-27.274439" lon="151.290064">
  <ele>342.99</ele>
  <time>2026-09-01T20:02:45Z</time>
  <course>10.8</course>
  <speed>0.0</speed>
  <fix>3d</fix>
</trkpt>
<trkpt lat="-27.274439" lon="151.290064">
  <ele>343.1</ele>
  <time>2026-09-01T20:02:45Z</time>
  <course>270.0</course>
  <speed>0.0</speed>
  <fix>3d</fix>
</trkpt>
<trkpt lat="-27.274439" lon="151.290064">
  <ele>342.91</ele>
  <time>2026-09-01T20:02:45Z</time>
  <course>10.8</course>
  <speed>0.0</speed>
  <fix>3d</fix>
</trkpt>
<trkpt lat="-27.274439" lon="151.290064">
  <ele>343.1</ele>
  <time>2026-09-01T20:02:45Z</time>
  <course>270.0</course>
  <speed>0.0</speed>
  <fix>3d</fix>
</trkpt>
<trkpt lat="-27.274439" lon="151.290064">
  <ele>342.9</ele>
  <time>2026-09-01T20:02:45Z</time>
  <course>10.8</course>
  <speed>0.0</speed>
  <fix>3d</fix>
</trkpt>
<trkpt lat="-27.274439" lon="151.290064">
  <ele>343.1</ele>
  <time>2026-09-01T20:02:45Z</time>
  <course>270.0</course>
  <speed>0.0</speed>
  <fix>3d</fix>
</trkpt>
<trkpt lat="-27.274439" lon="151.290064">
  <ele>342.87</ele>
  <time>2026-09-01T20:02:45Z</time>
  <course>10.8</course>
  <speed>0.0</speed>
  <fix>3d</fix>
</trkpt>
<trkpt lat="-27.274439" lon="151.290064">
  <ele>343.1</ele>
  <time>2026-09-01T20:02:45Z</time>
  <course>270.0</course>
  <speed>0.0</speed>
  <fix>3d</fix>
</trkpt>
<trkpt lat="-27.274439" lon="151.290064">
  <ele>343.12</ele>
  <time>2026-09-01T20:02:45Z</time>
  <course>10.8</course>
  <speed>0.0</speed>
  <fix>3d</fix>
</trkpt>
<trkpt lat="-27.274439" lon="151.290064">
  <ele>343.1</ele>
  <time>2026-09-01T20:02:45Z</time>
  <course>270.0</course>
  <speed>0.0</speed>
  <fix>3d</fix>
</trkpt>
<trkpt lat="-27.274439" lon="151.290064">
  <ele>342.99</ele>
  <time>2026-09-01T20:02:45Z</time>
  <course>10.8</course>
  <speed>0.0</speed>
  <fix>3d</fix>
</trkpt>
<trkpt lat="-27.274439" lon="151.290064">
  <ele>343.1</ele>
  <time>2026-09-01T20:02:45Z</time>
  <course>270.0</course>
  <speed>0.0</speed>
  <fix>3d</fix>
</trkpt>
<trkpt lat="-27.274439" lon="151.290064">
  <ele>343.13</ele>
  <time>2026-09-01T20:02:45Z</time>
  <course>10.8</course>
  <speed>0.0</speed>
  <fix>3d</fix>
</trkpt>
<trkpt lat="-27.274439" lon="151.290064">
  <ele>343.1</ele>
  <time>2026-09-01T20:02:45Z</time>
  <course>270.0</course>
  <speed>0.0</speed>
  <fix>3d</fix>
</trkpt>
<trkpt lat="-27.274439" lon="151.290064">
  <ele>343.0</ele>
  <time>2026-09-01T20:02:45Z</time>
  <course>10.8</course>
  <speed>0.0</speed>
  <fix>3d</fix>
</trkpt>
<trkpt lat="-27.274439" lon="151.290064">
  <ele>343.1</ele>
  <time>2026-09-01T20:02:45Z</time>
  <course>270.0</course>
  <speed>0.0</speed>
  <fix>3d</fix>
</trkpt>
<trkpt lat="-27.274439" lon="151.290064">
  <ele>343.17</ele>
  <time>2026-09-01T20:02:45Z</time>
  <course>10.8</course>
  <speed>0.0</speed>
  <fix>3d</fix>
</trkpt>
<trkpt lat="-27.274439" lon="151.290064">
  <ele>343.1</ele>
  <time>2026-09-01T20:02:45Z</time>
  <course>270.0</course>
  <speed>0.0</speed>
  <fix>3d</fix>
</trkpt>
<trkpt lat="-27.274439" lon="151.290064">
  <ele>343.0</ele>
  <time>2026-09-01T20:02:45Z</time>
  <course>10.8</course>
  <speed>0.0</speed>
  <fix>3d</fix>
</trkpt>
<trkpt lat="-27.274439" lon="151.290064">
  <ele>343.1</ele>
  <time>2026-09-01T20:02:45Z</time>
  <course>270.0</course>
  <speed>0.0</speed>
  <fix>3d</fix>
</trkpt>
<trkpt lat="-27.274439" lon="151.290064">
  <ele>342.99</ele>
  <time>2026-09-01T20:02:45Z</time>
  <course>10.8</course>
  <speed>0.0</speed>
  <fix>3d</fix>
</trkpt>
<trkpt lat="-27.274439" lon="151.290064">
  <ele>343.1</ele>
  <time>2026-09-01T20:02:45Z</time>
  <course>270.0</course>
  <speed>0.0</speed>
  <fix>3d</fix>
</trkpt>
<trkpt lat="-27.274439" lon="151.290064">
  <ele>343.17</ele>
  <time>2026-09-01T20:02:45Z</time>
  <course>10.8</course>
  <speed>0.0</speed>
  <fix>3d</fix>
</trkpt>
<trkpt lat="-27.274439" lon="151.290064">
  <ele>343.1</ele>
  <time>2026-09-01T20:02:45Z</time>
  <course>270.0</course>
  <speed>0.0</speed>
  <fix>3d</fix>
</trkpt>
<trkpt lat="-27.274439" lon="151.290064">
  <ele>343.16</ele>
  <time>2026-09-01T20:02:45Z</time>
  <course>10.8</course>
  <speed>0.0</speed>
  <fix>3d</fix>
</trkpt>
<trkpt lat="-27.274439" lon="151.290064">
  <ele>343.1</ele>
  <time>2026-09-01T20:02:45Z</time>
  <course>270.0</course>
  <speed>0.0</speed>
  <fix>3d</fix>
</trkpt>
<trkpt lat="-27.274439" lon="151.290064">
  <ele>342.87</ele>
  <time>2026-09-01T20:02:45Z</time>
  <course>10.8</course>
  <speed>0.0</speed>
  <fix>3d</fix>
</trkpt>
<trkpt lat="-27.274439" lon="151.290064">
  <ele>343.1</ele>
  <time>2026-09-01T20:02:45Z</time>
  <course>270.0</course>
  <speed>0.0</speed>
  <fix>3d</fix>
</trkpt>
<trkpt lat="-27.274439" lon="151.290064">
  <ele>343.19</ele>
  <time>2026-09-01T20:02:45Z</time>
  <course>10.8</course>
  <speed>0.0</speed>
  <fix>3d</fix>
</trkpt>
<trkpt lat="-27.274439" lon="151.290064">
  <ele>343.1</ele>
  <time>2026-09-01T20:02:45Z</time>
  <course>270.0</course>
  <speed>0.0</speed>
  <fix>3d</fix>
</trkpt>
<trkpt lat="-27.274439" lon="151.290064">
  <ele>343.16</ele>
  <time>2026-09-01T20:02:45Z</time>
  <course>10.8</course>
  <speed>0.0</speed>
  <fix>3d</fix>
</trkpt>
<trkpt lat="-27.274439" lon="151.290064">
  <ele>343.1</ele>
  <time>2026-09-01T20:02:45Z</time>
  <course>270.0</course>
  <speed>0.0</speed>
  <fix>3d</fix>
</trkpt>
<trkpt lat="-27.274439" lon="151.290064">
  <ele>343.21</ele>
  <time>2026-09-01T20:02:45Z</time>
  <course>10.8</course>
  <speed>0.0</speed>
  <fix>3d</fix>
</trkpt>
<trkpt lat="-27.274439" lon="151.290064">
  <ele>343.1</ele>
  <time>2026-09-01T20:02:45Z</time>
  <course>270.0</course>
  <speed>0.0</speed>
  <fix>3d</fix>
</trkpt>
<trkpt lat="-27.274439" lon="151.290064">
  <ele>343.22</ele>
  <time>2026-09-01T20:02:45Z</time>
  <course>10.8</course>
  <speed>0.0</speed>
  <fix>3d</fix>
</trkpt>
<trkpt lat="-27.274439" lon="151.290064">
  <ele>343.1</ele>
  <time>2026-09-01T20:02:45Z</time>
  <course>270.0</course>
  <speed>0.0</speed>
  <fix>3d</fix>
</trkpt>
<trkpt lat="-27.274439" lon="151.290064">
  <ele>343.24</ele>
  <time>2026-09-01T20:02:45Z</time>
  <course>10.8</course>
  <speed>0.0</speed>
  <fix>3d</fix>
</trkpt>
<trkpt lat="-27.274439" lon="151.290064">
  <ele>343.1</ele>
  <time>2026-09-01T20:02:45Z</time>
  <course>270.0</course>
  <speed>0.0</speed>
  <fix>3d</fix>
</trkpt>
<trkpt lat="-27.274439" lon="151.290064">
  <ele>343.0</ele>
  <time>2026-09-01T20:02:45Z</time>
  <course>10.8</course>
  <speed>0.0</speed>
  <fix>3d</fix>
</trkpt>
<trkpt lat="-27.274439" lon="151.290064">
  <ele>343.1</ele>
  <time>2026-09-01T20:02:45Z</time>
  <course>270.0</course>
  <speed>0.0</speed>
  <fix>3d</fix>
</trkpt>
<trkpt lat="-27.274439" lon="151.290064">
  <ele>343.1</ele>
  <time>2026-09-01T20:02:45Z</time>
  <course>10.8</course>
  <speed>0.0</speed>
  <fix>3d</fix>
</trkpt>
<trkpt lat="-27.274439" lon="151.290064">
  <ele>343.1</ele>
  <time>2026-09-01T20:02:45Z</time>
  <course>270.0</course>
  <speed>0.0</speed>
  <fix>3d</fix>
</trkpt>
<trkpt lat="-27.274439" lon="151.290064">
  <ele>343.05</ele>
  <time>2026-09-01T20:02:46Z</time>
  <course>10.8</course>
  <speed>0.0</speed>
  <fix>3d</fix>
</trkpt>
<trkpt lat="-27.274439" lon="151.290064">
  <ele>343.1</ele>
  <time>2026-09-01T20:02:46Z</time>
  <course>270.0</course>
  <speed>0.0</speed>
  <fix>3d</fix>
</trkpt>
<trkpt lat="-27.274439" lon="151.290064">
  <ele>342.87</ele>
  <time>2026-09-01T20:02:46Z</time>
  <course>10.8</course>
  <speed>0.0</speed>
  <fix>3d</fix>
</trkpt>
<trkpt lat="-27.274439" lon="151.290064">
  <ele>343.1</ele>
  <time>2026-09-01T20:02:46Z</time>
  <course>270.0</course>
  <speed>0.0</speed>
  <fix>3d</fix>
</trkpt>
<trkpt lat="-27.274439" lon="151.290064">
  <ele>342.92</ele>
  <time>2026-09-01T20:02:46Z</time>
  <course>10.8</course>
  <speed>0.0</speed>
  <fix>3d</fix>
</trkpt>
<trkpt lat="-27.274439" lon="151.290064">
  <ele>343.1</ele>
  <time>2026-09-01T20:02:46Z</time>
  <course>270.0</course>
  <speed>0.0</speed>
  <fix>3d</fix>
</trkpt>
<trkpt lat="-27.274439" lon="151.290064">
  <ele>342.96</ele>
  <time>2026-09-01T20:02:46Z</time>
  <course>10.8</course>
  <speed>0.0</speed>
  <fix>3d</fix>
</trkpt>
<trkpt lat="-27.274439" lon="151.290064">
  <ele>343.1</ele>
  <time>2026-09-01T20:02:46Z</time>
  <course>270.0</course>
  <speed>0.0</speed>
  <fix>3d</fix>
</trkpt>
<trkpt lat="-27.274439" lon="151.290064">
  <ele>343.15</ele>
  <time>2026-09-01T20:02:46Z</time>
  <course>10.8</course>
  <speed>0.0</speed>
  <fix>3d</fix>
</trkpt>
<trkpt lat="-27.274439" lon="151.290064">
  <ele>343.1</ele>
  <time>2026-09-01T20:02:46Z</time>
  <course>270.0</course>
  <speed>0.0</speed>
  <fix>3d</fix>
</trkpt>
<trkpt lat="-27.274439" lon="151.290064">
  <ele>343.16</ele>
  <time>2026-09-01T20:02:46Z</time>
  <course>10.8</course>
  <speed>0.0</speed>
  <fix>3d</fix>
</trkpt>
<trkpt lat="-27.274439" lon="151.290064">
  <ele>343.1</ele>
  <time>2026-09-01T20:02:46Z</time>
  <course>270.0</course>
  <speed>0.0</speed>
  <fix>3d</fix>
</trkpt>
<trkpt lat="-27.274439" lon="151.290064">
  <ele>343.2</ele>
  <time>2026-09-01T20:02:46Z</time>
  <course>10.81</course>
  <speed>0.0</speed>
  <fix>3d</fix>
</trkpt>
<trkpt lat="-27.274439" lon="151.290064">
  <ele>343.1</ele>
  <time>2026-09-01T20:02:46Z</time>
  <course>270.0</course>
  <speed>0.0</speed>
  <fix>3d</fix>
</trkpt>
<trkpt lat="-27.274439" lon="151.290064">
  <ele>343.13</ele>
  <time>2026-09-01T20:02:46Z</time>
  <course>10.82</course>
  <speed>0.0</speed>
  <fix>3d</fix>
</trkpt>
<trkpt lat="-27.274439" lon="151.290064">
  <ele>343.1</ele>
  <time>2026-09-01T20:02:46Z</time>
  <course>270.0</course>
  <speed>0.0</speed>
  <fix>3d</fix>
</trkpt>
<trkpt lat="-27.274439" lon="151.290064">
  <ele>343.09</ele>
  <time>2026-09-01T20:02:46Z</time>
  <course>10.71</course>
  <speed>0.0</speed>
  <fix>3d</fix>
</trkpt>
<trkpt lat="-27.274439" lon="151.290064">
  <ele>343.1</ele>
  <time>2026-09-01T20:02:46Z</time>
  <course>270.0</course>
  <speed>0.0</speed>
  <fix>3d</fix>
</trkpt>
<trkpt lat="-27.274439" lon="151.290064">
  <ele>343.09</ele>
  <time>2026-09-01T20:02:46Z</time>
  <course>10.71</course>
  <speed>0.0</speed>
  <fix>3d</fix>
</trkpt>
<trkpt lat="-27.274439" lon="151.290064">
  <ele>343.1</ele>
  <time>2026-09-01T20:02:46Z</time>
  <course>270.0</course>
  <speed>0.0</speed>
  <fix>3d</fix>
</trkpt>
<trkpt lat="-27.274439" lon="151.290064">
  <ele>343.1</ele>
  <time>2026-09-01T20:02:46Z</time>
  <course>10.71</course>
  <speed>0.0</speed>
  <fix>3d</fix>
</trkpt>
<trkpt lat="-27.274439" lon="151.290064">
  <ele>343.1</ele>
  <time>2026-09-01T20:02:46Z</time>
  <course>270.0</course>
  <speed>0.0</speed>
  <fix>3d</fix>
</trkpt>
<trkpt lat="-27.274439" lon="151.290064">
  <ele>343.1</ele>
  <time>2026-09-01T20:02:46Z</time>
  <course>10.71</course>
  <speed>0.0</speed>
  <fix>3d</fix>
</trkpt>
<trkpt lat="-27.274439" lon="151.290064">
  <ele>343.1</ele>
  <time>2026-09-01T20:02:46Z</time>
  <course>270.0</course>
  <speed>0.0</speed>
  <fix>3d</fix>
</trkpt>
<trkpt lat="-27.274439" lon="151.290064">
  <ele>343.1</ele>
  <time>2026-09-01T20:02:46Z</time>
  <course>10.71</course>
  <speed>0.0</speed>
  <fix>3d</fix>
</trkpt>
<trkpt lat="-27.274439" lon="151.290064">
  <ele>343.1</ele>
  <time>2026-09-01T20:02:46Z</time>
  <course>270.0</course>
  <speed>0.0</speed>
  <fix>3d</fix>
</trkpt>
<trkpt lat="-27.274439" lon="151.290064">
  <ele>343.1</ele>
  <time>2026-09-01T20:02:46Z</time>
  <course>10.71</course>
  <speed>0.0</speed>
  <fix>3d</fix>
</trkpt>
<trkpt lat="-27.274439" lon="151.290064">
  <ele>343.1</ele>
  <time>2026-09-01T20:02:46Z</time>
  <course>270.0</course>
  <speed>0.0</speed>
  <fix>3d</fix>
</trkpt>
<trkpt lat="-27.274439" lon="151.290064">
  <ele>343.1</ele>
  <time>2026-09-01T20:02:46Z</time>
  <course>10.71</course>
  <speed>0.0</speed>
  <fix>3d</fix>
</trkpt>
<trkpt lat="-27.274439" lon="151.290064">
  <ele>343.1</ele>
  <time>2026-09-01T20:02:46Z</time>
  <course>270.0</course>
  <speed>0.0</speed>
  <fix>3d</fix>
</trkpt>
<trkpt lat="-27.274439" lon="151.290064">
  <ele>343.11</ele>
  <time>2026-09-01T20:02:46Z</time>
  <course>10.71</course>
  <speed>0.0</speed>
  <fix>3d</fix>
</trkpt>
<trkpt lat="-27.274439" lon="151.290064">
  <ele>343.1</ele>
  <time>2026-09-01T20:02:46Z</time>
  <course>270.0</course>
  <speed>0.0</speed>
  <fix>3d</fix>
</trkpt>
<trkpt lat="-27.274439" lon="151.290064">
  <ele>343.11</ele>
  <time>2026-09-01T20:02:46Z</time>
  <course>10.71</course>
  <speed>0.0</speed>
  <fix>3d</fix>
</trkpt>
<trkpt lat="-27.274439" lon="151.290064">
  <ele>343.1</ele>
  <time>2026-09-01T20:02:46Z</time>
  <course>270.0</course>
  <speed>0.0</speed>
  <fix>3d</fix>
</trkpt>
<trkpt lat="-27.274439" lon="151.290064">
  <ele>343.11</ele>
  <time>2026-09-01T20:02:46Z</time>
  <course>10.71</course>
  <speed>0.0</speed>
  <fix>3d</fix>
</trkpt>
<trkpt lat="-27.274439" lon="151.290064">
  <ele>343.1</ele>
  <time>2026-09-01T20:02:46Z</time>
  <course>270.0</course>
  <speed>0.0</speed>
  <fix>3d</fix>
</trkpt>
<trkpt lat="-27.274439" lon="151.290064">
  <ele>343.12</ele>
  <time>2026-09-01T20:02:46Z</time>
  <course>10.71</course>
  <speed>0.0</speed>
  <fix>3d</fix>
</trkpt>
<trkpt lat="-27.274439" lon="151.290064">
  <ele>343.1</ele>
  <time>2026-09-01T20:02:46Z</time>
  <course>270.0</course>
  <speed>0.0</speed>
  <fix>3d</fix>
</trkpt>
<trkpt lat="-27.274439" lon="151.290064">
  <ele>343.12</ele>
  <time>2026-09-01T20:02:46Z</time>
  <course>10.71</course>
  <speed>0.0</speed>
  <fix>3d</fix>
</trkpt>
<trkpt lat="-27.274439" lon="151.290064">
  <ele>343.1</ele>
  <time>2026-09-01T20:02:46Z</time>
  <course>270.0</course>
  <speed>0.0</speed>
  <fix>3d</fix>
</trkpt>
<trkpt lat="-27.274439" lon="151.290064">
  <ele>343.1</ele>
  <time>2026-09-01T20:02:46Z</time>
  <course>10.71</course>
  <speed>0.0</speed>
  <fix>3d</fix>
</trkpt>
<trkpt lat="-27.274439" lon="151.290064">
  <ele>343.1</ele>
  <time>2026-09-01T20:02:46Z</time>
  <course>270.0</course>
  <speed>0.0</speed>
  <fix>3d</fix>
</trkpt>
<trkpt lat="-27.274439" lon="151.290064">
  <ele>343.1</ele>
  <time>2026-09-01T20:02:46Z</time>
  <course>10.71</course>
  <speed>0.0</speed>
  <fix>3d</fix>
</trkpt>
<trkpt lat="-27.274439" lon="151.290064">
  <ele>343.1</ele>
  <time>2026-09-01T20:02:46Z</time>
  <course>270.0</course>
  <speed>0.0</speed>
  <fix>3d</fix>
</trkpt>
<trkpt lat="-27.274439" lon="151.290064">
  <ele>343.1</ele>
  <time>2026-09-01T20:02:46Z</time>
  <course>10.71</course>
  <speed>0.0</speed>
  <fix>3d</fix>
</trkpt>
<trkpt lat="-27.274439" lon="151.290064">
  <ele>343.1</ele>
  <time>2026-09-01T20:02:46Z</time>
  <course>270.0</course>
  <speed>0.0</speed>
  <fix>3d</fix>
</trkpt>
<trkpt lat="-27.274439" lon="151.290064">
  <ele>343.09</ele>
  <time>2026-09-01T20:02:46Z</time>
  <course>10.71</course>
  <speed>0.0</speed>
  <fix>3d</fix>
</trkpt>
<trkpt lat="-27.274439" lon="151.290064">
  <ele>343.1</ele>
  <time>2026-09-01T20:02:46Z</time>
  <course>270.0</course>
  <speed>0.0</speed>
  <fix>3d</fix>
</trkpt>
<trkpt lat="-27.274439" lon="151.290064">
  <ele>343.09</ele>
  <time>2026-09-01T20:02:46Z</time>
  <course>10.71</course>
  <speed>0.0</speed>
  <fix>3d</fix>
</trkpt>
<trkpt lat="-27.274439" lon="151.290064">
  <ele>343.1</ele>
  <time>2026-09-01T20:02:46Z</time>
  <course>270.0</course>
  <speed>0.0</speed>
  <fix>3d</fix>
</trkpt>
<trkpt lat="-27.274439" lon="151.290064">
  <ele>343.09</ele>
  <time>2026-09-01T20:02:46Z</time>
  <course>10.71</course>
  <speed>0.0</speed>
  <fix>3d</fix>
</trkpt>
<trkpt lat="-27.274439" lon="151.290064">
  <ele>343.1</ele>
  <time>2026-09-01T20:02:46Z</time>
  <course>270.0</course>
  <speed>0.0</speed>
  <fix>3d</fix>
</trkpt>
<trkpt lat="-27.274439" lon="151.290064">
  <ele>343.1</ele>
  <time>2026-09-01T20:02:46Z</time>
  <course>10.71</course>
  <speed>0.0</speed>
  <fix>3d</fix>
</trkpt>
<trkpt lat="-27.274439" lon="151.290064">
  <ele>343.1</ele>
  <time>2026-09-01T20:02:46Z</time>
  <course>270.0</course>
  <speed>0.0</speed>
  <fix>3d</fix>
</trkpt>
<trkpt lat="-27.274439" lon="151.290064">
  <ele>343.1</ele>
  <time>2026-09-01T20:02:46Z</time>
  <course>10.71</course>
  <speed>0.0</speed>
  <fix>3d</fix>
</trkpt>
<trkpt lat="-27.274439" lon="151.290064">
  <ele>343.1</ele>
  <time>2026-09-01T20:02:46Z</time>
  <course>270.0</course>
  <speed>0.0</speed>
  <fix>3d</fix>
</trkpt>
<trkpt lat="-27.274439" lon="151.290064">
  <ele>343.09</ele>
  <time>2026-09-01T20:02:46Z</time>
  <course>10.71</course>
  <speed>0.0</speed>
  <fix>3d</fix>
</trkpt>
<trkpt lat="-27.274439" lon="151.290064">
  <ele>343.1</ele>
  <time>2026-09-01T20:02:46Z</time>
  <course>270.0</course>
  <speed>0.0</speed>
  <fix>3d</fix>
</trkpt>
<trkpt lat="-27.274439" lon="151.290064">
  <ele>343.09</ele>
  <time>2026-09-01T20:02:46Z</time>
  <course>10.71</course>
  <speed>0.0</speed>
  <fix>3d</fix>
</trkpt>
<trkpt lat="-27.274439" lon="151.290064">
  <ele>343.1</ele>
  <time>2026-09-01T20:02:46Z</time>
  <course>270.0</course>
  <speed>0.0</speed>
  <fix>3d</fix>
</trkpt>
<trkpt lat="-27.274439" lon="151.290064">
  <ele>343.09</ele>
  <time>2026-09-01T20:02:46Z</time>
  <course>10.71</course>
  <speed>0.0</speed>
  <fix>3d</fix>
</trkpt>
<trkpt lat="-27.274439" lon="151.290064">
  <ele>343.1</ele>
  <time>2026-09-01T20:02:46Z</time>
  <course>270.0</course>
  <speed>0.0</speed>
  <fix>3d</fix>
</trkpt>
<trkpt lat="-27.274439" lon="151.290064">
  <ele>343.09</ele>
  <time>2026-09-01T20:02:46Z</time>
  <course>10.71</course>
  <speed>0.0</speed>
  <fix>3d</fix>
</trkpt>
<trkpt lat="-27.274439" lon="151.290064">
  <ele>343.1</ele>
  <time>2026-09-01T20:02:46Z</time>
  <course>270.0</course>
  <speed>0.0</speed>
  <fix>3d</fix>
</trkpt>
<trkpt lat="-27.274439" lon="151.290064">
  <ele>343.09</ele>
  <time>2026-09-01T20:02:46Z</time>
  <course>10.71</course>
  <speed>0.0</speed>
  <fix>3d</fix>
</trkpt>
<trkpt lat="-27.274439" lon="151.290064">
  <ele>343.1</ele>
  <time>2026-09-01T20:02:46Z</time>
  <course>270.0</course>
  <speed>0.0</speed>
  <fix>3d</fix>
</trkpt>
<trkpt lat="-27.274439" lon="151.290064">
  <ele>343.09</ele>
  <time>2026-09-01T20:02:46Z</time>
  <course>10.71</course>
  <speed>0.0</speed>
  <fix>3d</fix>
</trkpt>
<trkpt lat="-27.274439" lon="151.290064">
  <ele>343.1</ele>
  <time>2026-09-01T20:02:46Z</time>
  <course>270.0</course>
  <speed>0.0</speed>
  <fix>3d</fix>
</trkpt>
<trkpt lat="-27.274439" lon="151.290064">
  <ele>343.09</ele>
  <time>2026-09-01T20:02:46Z</time>
  <course>10.71</course>
  <speed>0.0</speed>
  <fix>3d</fix>
</trkpt>
<trkpt lat="-27.274439" lon="151.290064">
  <ele>343.1</ele>
  <time>2026-09-01T20:02:46Z</time>
  <course>270.0</course>
  <speed>0.0</speed>
  <fix>3d</fix>
</trkpt>
<trkpt lat="-27.274439" lon="151.290064">
  <ele>343.09</ele>
  <time>2026-09-01T20:02:46Z</time>
  <course>10.71</course>
  <speed>0.0</speed>
  <fix>3d</fix>
</trkpt>
<trkpt lat="-27.274439" lon="151.290064">
  <ele>343.1</ele>
  <time>2026-09-01T20:02:46Z</time>
  <course>270.0</course>
  <speed>0.0</speed>
  <fix>3d</fix>
</trkpt>
<trkpt lat="-27.274439" lon="151.290064">
  <ele>343.1</ele>
  <time>2026-09-01T20:02:46Z</time>
  <course>10.71</course>
  <speed>0.0</speed>
  <fix>3d</fix>
</trkpt>
<trkpt lat="-27.274439" lon="151.290064">
  <ele>343.1</ele>
  <time>2026-09-01T20:02:46Z</time>
  <course>270.0</course>
  <speed>0.0</speed>
  <fix>3d</fix>
</trkpt>
<trkpt lat="-27.274439" lon="151.290064">
  <ele>343.1</ele>
  <time>2026-09-01T20:02:46Z</time>
  <course>10.71</course>
  <speed>0.0</speed>
  <fix>3d</fix>
</trkpt>
<trkpt lat="-27.274439" lon="151.290064">
  <ele>343.1</ele>
  <time>2026-09-01T20:02:46Z</time>
  <course>270.0</course>
  <speed>0.0</speed>
  <fix>3d</fix>
</trkpt>
<trkpt lat="-27.274439" lon="151.290064">
  <ele>343.1</ele>
  <time>2026-09-01T20:02:46Z</time>
  <course>10.71</course>
  <speed>0.0</speed>
  <fix>3d</fix>
</trkpt>
<trkpt lat="-27.274439" lon="151.290064">
  <ele>343.1</ele>
  <time>2026-09-01T20:02:46Z</time>
  <course>270.0</course>
  <speed>0.0</speed>
  <fix>3d</fix>
</trkpt>
<trkpt lat="-27.274439" lon="151.290064">
  <ele>343.1</ele>
  <time>2026-09-01T20:02:46Z</time>
  <course>10.71</course>
  <speed>0.0</speed>
  <fix>3d</fix>
</trkpt>
<trkpt lat="-27.274439" lon="151.290064">
  <ele>343.1</ele>
  <time>2026-09-01T20:02:46Z</time>
  <course>270.0</course>
  <speed>0.0</speed>
  <fix>3d</fix>
</trkpt>
<trkpt lat="-27.274439" lon="151.290064">
  <ele>343.11</ele>
  <time>2026-09-01T20:02:46Z</time>
  <course>10.71</course>
  <speed>0.0</speed>
  <fix>3d</fix>
</trkpt>
<trkpt lat="-27.274439" lon="151.290064">
  <ele>343.1</ele>
  <time>2026-09-01T20:02:46Z</time>
  <course>270.0</course>
  <speed>0.0</speed>
  <fix>3d</fix>
</trkpt>
<trkpt lat="-27.274439" lon="151.290064">
  <ele>343.11</ele>
  <time>2026-09-01T20:02:46Z</time>
  <course>10.71</course>
  <speed>0.0</speed>
  <fix>3d</fix>
</trkpt>
<trkpt lat="-27.274439" lon="151.290064">
  <ele>343.1</ele>
  <time>2026-09-01T20:02:46Z</time>
  <course>270.0</course>
  <speed>0.0</speed>
  <fix>3d</fix>
</trkpt>
<trkpt lat="-27.274439" lon="151.290064">
  <ele>343.11</ele>
  <time>2026-09-01T20:02:46Z</time>
  <course>10.71</course>
  <speed>0.0</speed>
  <fix>3d</fix>
</trkpt>
<trkpt lat="-27.274439" lon="151.290064">
  <ele>343.1</ele>
  <time>2026-09-01T20:02:46Z</time>
  <course>270.0</course>
  <speed>0.0</speed>
  <fix>3d</fix>
</trkpt>
<trkpt lat="-27.274439" lon="151.290064">
  <ele>343.11</ele>
  <time>2026-09-01T20:02:46Z</time>
  <course>10.71</course>
  <speed>0.0</speed>
  <fix>3d</fix>
</trkpt>
<trkpt lat="-27.274439" lon="151.290064">
  <ele>343.1</ele>
  <time>2026-09-01T20:02:46Z</time>
  <course>270.0</course>
  <speed>0.0</speed>
  <fix>3d</fix>
</trkpt>
<trkpt lat="-27.274439" lon="151.290064">
  <ele>343.12</ele>
  <time>2026-09-01T20:02:46Z</time>
  <course>10.71</course>
  <speed>0.0</speed>
  <fix>3d</fix>
</trkpt>
<trkpt lat="-27.274439" lon="151.290064">
  <ele>343.1</ele>
  <time>2026-09-01T20:02:46Z</time>
  <course>270.0</course>
  <speed>0.0</speed>
  <fix>3d</fix>
</trkpt>
<trkpt lat="-27.274439" lon="151.290064">
  <ele>343.12</ele>
  <time>2026-09-01T20:02:46Z</time>
  <course>10.71</course>
  <speed>0.0</speed>
  <fix>3d</fix>
</trkpt>
<trkpt lat="-27.274439" lon="151.290064">
  <ele>343.1</ele>
  <time>2026-09-01T20:02:46Z</time>
  <course>270.0</course>
  <speed>0.0</speed>
  <fix>3d</fix>
</trkpt>
<trkpt lat="-27.274439" lon="151.290064">
  <ele>343.09</ele>
  <time>2026-09-01T20:02:46Z</time>
  <course>10.71</course>
  <speed>0.0</speed>
  <fix>3d</fix>
</trkpt>
<trkpt lat="-27.274439" lon="151.290064">
  <ele>343.1</ele>
  <time>2026-09-01T20:02:46Z</time>
  <course>270.0</course>
  <speed>0.0</speed>
  <fix>3d</fix>
</trkpt>
<trkpt lat="-27.274439" lon="151.290064">
  <ele>343.1</ele>
  <time>2026-09-01T20:02:46Z</time>
  <course>10.71</course>
  <speed>0.0</speed>
  <fix>3d</fix>
</trkpt>
<trkpt lat="-27.274439" lon="151.290064">
  <ele>343.1</ele>
  <time>2026-09-01T20:02:46Z</time>
  <course>270.0</course>
  <speed>0.0</speed>
  <fix>3d</fix>
</trkpt>
<trkpt lat="-27.274439" lon="151.290064">
  <ele>343.1</ele>
  <time>2026-09-01T20:02:46Z</time>
  <course>10.71</course>
  <speed>0.0</speed>
  <fix>3d</fix>
</trkpt>
<trkpt lat="-27.274439" lon="151.290064">
  <ele>343.1</ele>
  <time>2026-09-01T20:02:46Z</time>
  <course>270.0</course>
  <speed>0.0</speed>
  <fix>3d</fix>
</trkpt>
<trkpt lat="-27.274439" lon="151.290064">
  <ele>343.11</ele>
  <time>2026-09-01T20:02:46Z</time>
  <course>10.71</course>
  <speed>0.0</speed>
  <fix>3d</fix>
</trkpt>
<trkpt lat="-27.274439" lon="151.290064">
  <ele>343.1</ele>
  <time>2026-09-01T20:02:46Z</time>
  <course>270.0</course>
  <speed>0.0</speed>
  <fix>3d</fix>
</trkpt>
<trkpt lat="-27.274439" lon="151.290064">
  <ele>343.11</ele>
  <time>2026-09-01T20:02:46Z</time>
  <course>10.71</course>
  <speed>0.0</speed>
  <fix>3d</fix>
</trkpt>
<trkpt lat="-27.274439" lon="151.290064">
  <ele>343.1</ele>
  <time>2026-09-01T20:02:46Z</time>
  <course>270.0</course>
  <speed>0.0</speed>
  <fix>3d</fix>
</trkpt>
<trkpt lat="-27.274439" lon="151.290064">
  <ele>343.12</ele>
  <time>2026-09-01T20:02:46Z</time>
  <course>10.71</course>
  <speed>0.0</speed>
  <fix>3d</fix>
</trkpt>
<trkpt lat="-27.274439" lon="151.290064">
  <ele>343.1</ele>
  <time>2026-09-01T20:02:46Z</time>
  <course>270.0</course>
  <speed>0.0</speed>
  <fix>3d</fix>
</trkpt>
<trkpt lat="-27.274439" lon="151.290064">
  <ele>343.12</ele>
  <time>2026-09-01T20:02:46Z</time>
  <course>10.71</course>
  <speed>0.0</speed>
  <fix>3d</fix>
</trkpt>
<trkpt lat="-27.274439" lon="151.290064">
  <ele>343.1</ele>
  <time>2026-09-01T20:02:46Z</time>
  <course>270.0</course>
  <speed>0.0</speed>
  <fix>3d</fix>
</trkpt>
<trkpt lat="-27.274439" lon="151.290064">
  <ele>343.12</ele>
  <time>2026-09-01T20:02:46Z</time>
  <course>10.71</course>
  <speed>0.0</speed>
  <fix>3d</fix>
</trkpt>
<trkpt lat="-27.274439" lon="151.290064">
  <ele>343.1</ele>
  <time>2026-09-01T20:02:46Z</time>
  <course>270.0</course>
  <speed>0.0</speed>
  <fix>3d</fix>
</trkpt>
<trkpt lat="-27.274439" lon="151.290064">
  <ele>343.13</ele>
  <time>2026-09-01T20:02:46Z</time>
  <course>10.71</course>
  <speed>0.0</speed>
  <fix>3d</fix>
</trkpt>
<trkpt lat="-27.274439" lon="151.290064">
  <ele>343.1</ele>
  <time>2026-09-01T20:02:46Z</time>
  <course>270.0</course>
  <speed>0.0</speed>
  <fix>3d</fix>
</trkpt>
<trkpt lat="-27.274439" lon="151.290064">
  <ele>343.13</ele>
  <time>2026-09-01T20:02:46Z</time>
  <course>10.71</course>
  <speed>0.0</speed>
  <fix>3d</fix>
</trkpt>
<trkpt lat="-27.274439" lon="151.290064">
  <ele>343.1</ele>
  <time>2026-09-01T20:02:46Z</time>
  <course>270.0</course>
  <speed>0.0</speed>
  <fix>3d</fix>
</trkpt>
<trkpt lat="-27.274439" lon="151.290064">
  <ele>343.13</ele>
  <time>2026-09-01T20:02:46Z</time>
  <course>10.71</course>
  <speed>0.0</speed>
  <fix>3d</fix>
</trkpt>
<trkpt lat="-27.274439" lon="151.290064">
  <ele>343.1</ele>
  <time>2026-09-01T20:02:46Z</time>
  <course>118.07</course>
  <speed>0.0</speed>
  <fix>3d</fix>
</trkpt>
<trkpt lat="-27.274439" lon="151.290064">
  <ele>343.14</ele>
  <time>2026-09-01T20:02:46Z</time>
  <course>10.71</course>
  <speed>0.0</speed>
  <fix>3d</fix>
</trkpt>
<trkpt lat="-27.274439" lon="151.290064">
  <ele>343.1</ele>
  <time>2026-09-01T20:02:46Z</time>
  <course>118.07</course>
  <speed>0.0</speed>
  <fix>3d</fix>
</trkpt>
<trkpt lat="-27.274439" lon="151.290064">
  <ele>343.14</ele>
  <time>2026-09-01T20:02:46Z</time>
  <course>10.71</course>
  <speed>0.0</speed>
  <fix>3d</fix>
</trkpt>
<trkpt lat="-27.274439" lon="151.290064">
  <ele>343.14</ele>
  <time>2026-09-01T20:02:46Z</time>
  <course>10.71</course>
  <speed>0.0</speed>
  <fix>3d</fix>
</trkpt>
<trkpt lat="-27.274439" lon="151.290064">
  <ele>343.1</ele>
  <time>2026-09-01T20:02:46Z</time>
  <course>116.65</course>
  <speed>0.0</speed>
  <fix>3d</fix>
</trkpt>
<trkpt lat="-27.274439" lon="151.290064">
  <ele>343.14</ele>
  <time>2026-09-01T20:02:46Z</time>
  <course>10.71</course>
  <speed>0.0</speed>
  <fix>3d</fix>
</trkpt>
<trkpt lat="-27.274439" lon="151.290064">
  <ele>343.14</ele>
  <time>2026-09-01T20:02:46Z</time>
  <course>10.71</course>
  <speed>0.0</speed>
  <fix>3d</fix>
</trkpt>
<trkpt lat="-27.274439" lon="151.290064">
  <ele>343.1</ele>
  <time>2026-09-01T20:02:46Z</time>
  <course>116.65</course>
  <speed>0.0</speed>
  <fix>3d</fix>
</trkpt>
<trkpt lat="-27.274439" lon="151.290064">
  <ele>343.14</ele>
  <time>2026-09-01T20:02:46Z</time>
  <course>10.71</course>
  <speed>0.0</speed>
  <fix>3d</fix>
</trkpt>
<trkpt lat="-27.274439" lon="151.290064">
  <ele>343.14</ele>
  <time>2026-09-01T20:02:46Z</time>
  <course>10.71</course>
  <speed>0.0</speed>
  <fix>3d</fix>
</trkpt>
<trkpt lat="-27.274439" lon="151.290064">
  <ele>343.1</ele>
  <time>2026-09-01T20:02:46Z</time>
  <course>97.95</course>
  <speed>0.0</speed>
  <fix>3d</fix>
</trkpt>
<trkpt lat="-27.274439" lon="151.290064">
  <ele>343.14</ele>
  <time>2026-09-01T20:02:46Z</time>
  <course>10.71</course>
  <speed>0.0</speed>
  <fix>3d</fix>
</trkpt>
<trkpt lat="-27.274439" lon="151.290064">
  <ele>343.15</ele>
  <time>2026-09-01T20:02:46Z</time>
  <course>10.71</course>
  <speed>0.0</speed>
  <fix>3d</fix>
</trkpt>
<trkpt lat="-27.274439" lon="151.290064">
  <ele>343.1</ele>
  <time>2026-09-01T20:02:46Z</time>
  <course>97.95</course>
  <speed>0.0</speed>
  <fix>3d</fix>
</trkpt>
<trkpt lat="-27.274439" lon="151.290064">
  <ele>343.15</ele>
  <time>2026-09-01T20:02:46Z</time>
  <course>10.71</course>
  <speed>0.0</speed>
  <fix>3d</fix>
</trkpt>
<trkpt lat="-27.274439" lon="151.290064">
  <ele>343.15</ele>
  <time>2026-09-01T20:02:46Z</time>
  <course>10.71</course>
  <speed>0.0</speed>
  <fix>3d</fix>
</trkpt>
<trkpt lat="-27.274439" lon="151.290064">
  <ele>343.1</ele>
  <time>2026-09-01T20:02:46Z</time>
  <course>78.42</course>
  <speed>0.0</speed>
  <fix>3d</fix>
</trkpt>
<trkpt lat="-27.274439" lon="151.290064">
  <ele>343.15</ele>
  <time>2026-09-01T20:02:46Z</time>
  <course>10.71</course>
  <speed>0.0</speed>
  <fix>3d</fix>
</trkpt>
<trkpt lat="-27.274439" lon="151.290064">
  <ele>343.15</ele>
  <time>2026-09-01T20:02:46Z</time>
  <course>10.71</course>
  <speed>0.0</speed>
  <fix>3d</fix>
</trkpt>
<trkpt lat="-27.274439" lon="151.290064">
  <ele>343.1</ele>
  <time>2026-09-01T20:02:46Z</time>
  <course>78.42</course>
  <speed>0.0</speed>
  <fix>3d</fix>
</trkpt>
<trkpt lat="-27.274439" lon="151.290064">
  <ele>343.15</ele>
  <time>2026-09-01T20:02:46Z</time>
  <course>10.71</course>
  <speed>0.0</speed>
  <fix>3d</fix>
</trkpt>
<trkpt lat="-27.274439" lon="151.290064">
  <ele>343.15</ele>
  <time>2026-09-01T20:02:46Z</time>
  <course>10.71</course>
  <speed>0.0</speed>
  <fix>3d</fix>
</trkpt>
<trkpt lat="-27.274439" lon="151.290064">
  <ele>343.1</ele>
  <time>2026-09-01T20:02:46Z</time>
  <course>294.72</course>
  <speed>0.0</speed>
  <fix>3d</fix>
</trkpt>
<trkpt lat="-27.274439" lon="151.290064">
  <ele>343.15</ele>
  <time>2026-09-01T20:02:46Z</time>
  <course>10.71</course>
  <speed>0.0</speed>
  <fix>3d</fix>
</trkpt>
<trkpt lat="-27.274439" lon="151.290064">
  <ele>343.16</ele>
  <time>2026-09-01T20:02:46Z</time>
  <course>10.71</course>
  <speed>0.0</speed>
  <fix>3d</fix>
</trkpt>
<trkpt lat="-27.274439" lon="151.290064">
  <ele>343.1</ele>
  <time>2026-09-01T20:02:46Z</time>
  <course>294.72</course>
  <speed>0.0</speed>
  <fix>3d</fix>
</trkpt>
<trkpt lat="-27.274439" lon="151.290064">
  <ele>343.16</ele>
  <time>2026-09-01T20:02:46Z</time>
  <course>10.71</course>
  <speed>0.0</speed>
  <fix>3d</fix>
</trkpt>
<trkpt lat="-27.274439" lon="151.290064">
  <ele>343.17</ele>
  <time>2026-09-01T20:02:46Z</time>
  <course>10.71</course>
  <speed>0.0</speed>
  <fix>3d</fix>
</trkpt>
<trkpt lat="-27.274439" lon="151.290064">
  <ele>343.1</ele>
  <time>2026-09-01T20:02:46Z</time>
  <course>7.11</course>
  <speed>0.0</speed>
  <fix>3d</fix>
</trkpt>
<trkpt lat="-27.274439" lon="151.290064">
  <ele>343.18</ele>
  <time>2026-09-01T20:02:46Z</time>
  <course>10.71</course>
  <speed>0.0</speed>
  <fix>3d</fix>
</trkpt>
<trkpt lat="-27.274439" lon="151.290064">
  <ele>343.2</ele>
  <time>2026-09-01T20:02:46Z</time>
  <course>10.71</course>
  <speed>0.0</speed>
  <fix>3d</fix>
</trkpt>
<trkpt lat="-27.274439" lon="151.290064">
  <ele>343.1</ele>
  <time>2026-09-01T20:02:46Z</time>
  <course>7.11</course>
  <speed>0.0</speed>
  <fix>3d</fix>
</trkpt>
<trkpt lat="-27.274439" lon="151.290064">
  <ele>343.21</ele>
  <time>2026-09-01T20:02:46Z</time>
  <course>10.71</course>
  <speed>0.0</speed>
  <fix>3d</fix>
</trkpt>
<trkpt lat="-27.274439" lon="151.290064">
  <ele>343.24</ele>
  <time>2026-09-01T20:02:46Z</time>
  <course>10.71</course>
  <speed>0.0</speed>
  <fix>3d</fix>
</trkpt>
<trkpt lat="-27.274439" lon="151.290064">
  <ele>343.11</ele>
  <time>2026-09-01T20:02:46Z</time>
  <course>7.9</course>
  <speed>0.0</speed>
  <fix>3d</fix>
</trkpt>
<trkpt lat="-27.274439" lon="151.290064">
  <ele>343.26</ele>
  <time>2026-09-01T20:02:46Z</time>
  <course>10.71</course>
  <speed>0.0</speed>
  <fix>3d</fix>
</trkpt>
<trkpt lat="-27.274439" lon="151.290064">
  <ele>343.3</ele>
  <time>2026-09-01T20:02:46Z</time>
  <course>10.71</course>
  <speed>0.0</speed>
  <fix>3d</fix>
</trkpt>
<trkpt lat="-27.274439" lon="151.290064">
  <ele>343.11</ele>
  <time>2026-09-01T20:02:46Z</time>
  <course>7.9</course>
  <speed>0.0</speed>
  <fix>3d</fix>
</trkpt>
<trkpt lat="-27.274439" lon="151.290064">
  <ele>343.3</ele>
  <time>2026-09-01T20:02:46Z</time>
  <course>10.71</course>
  <speed>0.0</speed>
  <fix>3d</fix>
</trkpt>
<trkpt lat="-27.274439" lon="151.290064">
  <ele>343.4</ele>
  <time>2026-09-01T20:02:46Z</time>
  <course>10.71</course>
  <speed>0.02</speed>
  <fix>3d</fix>
</trkpt>
<trkpt lat="-27.274439" lon="151.290064">
  <ele>343.17</ele>
  <time>2026-09-01T20:02:46Z</time>
  <course>7.55</course>
  <speed>0.0</speed>
  <fix>3d</fix>
</trkpt>
<trkpt lat="-27.274439" lon="151.290064">
  <ele>343.41</ele>
  <time>2026-09-01T20:02:46Z</time>
  <course>10.71</course>
  <speed>0.02</speed>
  <fix>3d</fix>
</trkpt>
<trkpt lat="-27.274439" lon="151.290064">
  <ele>343.57</ele>
  <time>2026-09-01T20:02:46Z</time>
  <course>10.72</course>
  <speed>0.05099019513592785</speed>
  <fix>3d</fix>
</trkpt>
<trkpt lat="-27.274439" lon="151.290064">
  <ele>343.17</ele>
  <time>2026-09-01T20:02:46Z</time>
  <course>7.55</course>
  <speed>0.0</speed>
  <fix>3d</fix>
</trkpt>
<trkpt lat="-27.274439" lon="151.290064">
  <ele>343.62</ele>
  <time>2026-09-01T20:02:46Z</time>
  <course>10.72</course>
  <speed>0.06082762530298219</speed>
  <fix>3d</fix>
</trkpt>
<trkpt lat="-27.2744389" lon="151.290064">
  <ele>343.78</ele>
  <time>2026-09-01T20:02:46Z</time>
  <course>10.72</course>
  <speed>0.09055385138137417</speed>
  <fix>3d</fix>
</trkpt>
<trkpt lat="-27.274439" lon="151.290064">
  <ele>343.35</ele>
  <time>2026-09-01T20:02:46Z</time>
  <course>6.6</course>
  <speed>0.03</speed>
  <fix>3d</fix>
</trkpt>
<trkpt lat="-27.2744389" lon="151.290064">
  <ele>343.84</ele>
  <time>2026-09-01T20:02:46Z</time>
  <course>10.72</course>
  <speed>0.1004987562112089</speed>
  <fix>3d</fix>
</trkpt>
<trkpt lat="-27.2744388" lon="151.290064">
  <ele>344.02</ele>
  <time>2026-09-01T20:02:46Z</time>
  <course>10.71</course>
  <speed>0.12165525060596438</speed>
  <fix>3d</fix>
</trkpt>
<trkpt lat="-27.274439" lon="151.290064">
  <ele>343.35</ele>
  <time>2026-09-01T20:02:46Z</time>
  <course>6.6</course>
  <speed>0.03</speed>
  <fix>3d</fix>
</trkpt>
<trkpt lat="-27.2744388" lon="151.290064">
  <ele>344.07</ele>
  <time>2026-09-01T20:02:46Z</time>
  <course>10.71</course>
  <speed>0.13152946437965907</speed>
  <fix>3d</fix>
</trkpt>
<trkpt lat="-27.2744387" lon="151.290064">
  <ele>344.25</ele>
  <time>2026-09-01T20:02:46Z</time>
  <course>10.71</course>
  <speed>0.15132745950421556</speed>
  <fix>3d</fix>
</trkpt>
<trkpt lat="-27.2744389" lon="151.290064">
  <ele>343.7</ele>
  <time>2026-09-01T20:02:46Z</time>
  <course>6.63</course>
  <speed>0.09</speed>
  <fix>3d</fix>
</trkpt>
<trkpt lat="-27.2744387" lon="151.290064">
  <ele>344.3</ele>
  <time>2026-09-01T20:02:46Z</time>
  <course>10.71</course>
  <speed>0.15132745950421556</speed>
  <fix>3d</fix>
</trkpt>
<trkpt lat="-27.2744386" lon="151.290064">
  <ele>344.48</ele>
  <time>2026-09-01T20:02:46Z</time>
  <course>10.7</course>
  <speed>0.17262676501632068</speed>
  <fix>3d</fix>
</trkpt>
<trkpt lat="-27.2744389" lon="151.290064">
  <ele>343.7</ele>
  <time>2026-09-01T20:02:46Z</time>
  <course>6.63</course>
  <speed>0.09</speed>
  <fix>3d</fix>
</trkpt>
<trkpt lat="-27.2744385" lon="151.290064">
  <ele>344.53</ele>
  <time>2026-09-01T20:02:46Z</time>
  <course>10.7</course>
  <speed>0.1824828759089466</speed>
  <fix>3d</fix>
</trkpt>
<trkpt lat="-27.2744384" lon="151.2900641">
  <ele>344.71</ele>
  <time>2026-09-01T20:02:46Z</time>
  <course>10.69</course>
  <speed>0.19235384061671343</speed>
  <fix>3d</fix>
</trkpt>
<trkpt lat="-27.2744387" lon="151.290064">
  <ele>344.15</ele>
  <time>2026-09-01T20:02:46Z</time>
  <course>6.75</course>
  <speed>0.15</speed>
  <fix>3d</fix>
</trkpt>
<trkpt lat="-27.2744384" lon="151.2900641">
  <ele>344.77</ele>
  <time>2026-09-01T20:02:46Z</time>
  <course>10.68</course>
  <speed>0.20223748416156684</speed>
  <fix>3d</fix>
</trkpt>
<trkpt lat="-27.2744382" lon="151.2900641">
  <ele>344.94</ele>
  <time>2026-09-01T20:02:46Z</time>
  <course>10.68</course>
  <speed>0.21213203435596426</speed>
  <fix>3d</fix>
</trkpt>
<trkpt lat="-27.2744387" lon="151.290064">
  <ele>344.15</ele>
  <time>2026-09-01T20:02:46Z</time>
  <course>6.75</course>
  <speed>0.15</speed>
  <fix>3d</fix>
</trkpt>
<trkpt lat="-27.2744382" lon="151.2900641">
  <ele>344.99</ele>
  <time>2026-09-01T20:02:46Z</time>
  <course>10.68</course>
  <speed>0.21213203435596426</speed>
  <fix>3d</fix>
</trkpt>
<trkpt lat="-27.274438" lon="151.2900641">
  <ele>345.16</ele>
  <time>2026-09-01T20:02:46Z</time>
  <course>10.64</course>
  <speed>0.2220360331117452</speed>
  <fix>3d</fix>
</trkpt>
<trkpt lat="-27.2744384" lon="151.290064">
  <ele>344.61</ele>
  <time>2026-09-01T20:02:46Z</time>
  <course>6.85</course>
  <speed>0.2</speed>
  <fix>3d</fix>
</trkpt>
<trkpt lat="-27.274438" lon="151.2900641">
  <ele>345.22</ele>
  <time>2026-09-01T20:02:46Z</time>
  <course>10.64</course>
  <speed>0.23194827009486402</speed>
  <fix>3d</fix>
</trkpt>
<trkpt lat="-27.2744378" lon="151.2900641">
  <ele>345.39</ele>
  <time>2026-09-01T20:02:46Z</time>
  <course>10.64</course>
  <speed>0.23194827009486402</speed>
  <fix>3d</fix>
</trkpt>
<trkpt lat="-27.2744384" lon="151.290064">
  <ele>344.61</ele>
  <time>2026-09-01T20:02:46Z</time>
  <course>6.85</course>
  <speed>0.2</speed>
  <fix>3d</fix>
</trkpt>
<trkpt lat="-27.2744378" lon="151.2900642">
  <ele>345.44</ele>
  <time>2026-09-01T20:02:46Z</time>
  <course>10.64</course>
  <speed>0.23194827009486402</speed>
  <fix>3d</fix>
</trkpt>
<trkpt lat="-27.2744376" lon="151.2900642">
  <ele>345.6</ele>
  <time>2026-09-01T20:02:46Z</time>
  <course>10.64</course>
  <speed>0.24186773244895649</speed>
  <fix>3d</fix>
</trkpt>
<trkpt lat="-27.274438" lon="151.2900641">
  <ele>345.06</ele>
  <time>2026-09-01T20:02:46Z</time>
  <course>6.97</course>
  <speed>0.23</speed>
  <fix>3d</fix>
</trkpt>
<trkpt lat="-27.2744376" lon="151.2900642">
  <ele>345.61</ele>
  <time>2026-09-01T20:02:46Z</time>
  <course>10.64</course>
  <speed>0.24186773244895649</speed>
  <fix>3d</fix>
</trkpt>
<trkpt lat="-27.2744374" lon="151.2900642">
  <ele>345.81</ele>
  <time>2026-09-01T20:02:46Z</time>
  <course>10.64</course>
  <speed>0.23194827009486402</speed>
  <fix>3d</fix>
</trkpt>
<trkpt lat="-27.274438" lon="151.2900641">
  <ele>345.06</ele>
  <time>2026-09-01T20:02:46Z</time>
  <course>6.97</course>
  <speed>0.23</speed>
  <fix>3d</fix>
</trkpt>
<trkpt lat="-27.2744374" lon="151.2900642">
  <ele>345.82</ele>
  <time>2026-09-01T20:02:46Z</time>
  <course>10.64</course>
  <speed>0.23194827009486402</speed>
  <fix>3d</fix>
</trkpt>
<trkpt lat="-27.2744372" lon="151.2900642">
  <ele>346.01</ele>
  <time>2026-09-01T20:02:46Z</time>
  <course>10.64</course>
  <speed>0.23194827009486402</speed>
  <fix>3d</fix>
</trkpt>
<trkpt lat="-27.2744376" lon="151.2900641">
  <ele>345.49</ele>
  <time>2026-09-01T20:02:46Z</time>
  <course>7.11</course>
  <speed>0.24</speed>
  <fix>3d</fix>
</trkpt>
<trkpt lat="-27.2744371" lon="151.2900642">
  <ele>346.06</ele>
  <time>2026-09-01T20:02:46Z</time>
  <course>10.64</course>
  <speed>0.23194827009486402</speed>
  <fix>3d</fix>
</trkpt>
<trkpt lat="-27.274437" lon="151.2900642">
  <ele>346.2</ele>
  <time>2026-09-01T20:02:46Z</time>
  <course>10.64</course>
  <speed>0.2220360331117452</speed>
  <fix>3d</fix>
</trkpt>
<trkpt lat="-27.2744376" lon="151.2900641">
  <ele>345.49</ele>
  <time>2026-09-01T20:02:46Z</time>
  <course>7.11</course>
  <speed>0.24</speed>
  <fix>3d</fix>
</trkpt>
<trkpt lat="-27.2744369" lon="151.2900643">
  <ele>346.25</ele>
  <time>2026-09-01T20:02:46Z</time>
  <course>10.65</course>
  <speed>0.2220360331117452</speed>
  <fix>3d</fix>
</trkpt>
<trkpt lat="-27.2744368" lon="151.2900643">
  <ele>346.37</ele>
  <time>2026-09-01T20:02:46Z</time>
  <course>10.65</course>
  <speed>0.21213203435596426</speed>
  <fix>3d</fix>
</trkpt>
<trkpt lat="-27.2744372" lon="151.2900642">
  <ele>345.88</ele>
  <time>2026-09-01T20:02:46Z</time>
  <course>7.26</course>
  <speed>0.24</speed>
  <fix>3d</fix>
</trkpt>
<trkpt lat="-27.2744367" lon="151.2900643">
  <ele>346.42</ele>
  <time>2026-09-01T20:02:46Z</time>
  <course>10.65</course>
  <speed>0.21213203435596426</speed>
  <fix>3d</fix>
</trkpt>
<trkpt lat="-27.2744366" lon="151.2900643">
  <ele>346.54</ele>
  <time>2026-09-01T20:02:46Z</time>
  <course>10.66</course>
  <speed>0.20223748416156684</speed>
  <fix>3d</fix>
</trkpt>
<trkpt lat="-27.2744372" lon="151.2900642">
  <ele>345.88</ele>
  <time>2026-09-01T20:02:46Z</time>
  <course>7.26</course>
  <speed>0.24</speed>
  <fix>3d</fix>
</trkpt>
<trkpt lat="-27.2744366" lon="151.2900643">
  <ele>346.58</ele>
  <time>2026-09-01T20:02:46Z</time>
  <course>10.66</course>
  <speed>0.191049731745428</speed>
  <fix>3d</fix>
</trkpt>
<trkpt lat="-27.2744364" lon="151.2900643">
  <ele>346.69</ele>
  <time>2026-09-01T20:02:46Z</time>
  <course>10.66</course>
  <speed>0.18110770276274835</speed>
  <fix>3d</fix>
</trkpt>
<trkpt lat="-27.2744367" lon="151.2900642">
  <ele>346.23</ele>
  <time>2026-09-01T20:02:46Z</time>
  <course>7.46</course>
  <speed>0.22</speed>
  <fix>3d</fix>
</trkpt>
<trkpt lat="-27.2744364" lon="151.2900643">
  <ele>346.73</ele>
  <time>2026-09-01T20:02:46Z</time>
  <course>10.66</course>
  <speed>0.18110770276274835</speed>
  <fix>3d</fix>
</trkpt>
<trkpt lat="-27.2744363" lon="151.2900643">
  <ele>346.84</ele>
  <time>2026-09-01T20:02:46Z</time>
  <course>10.67</course>
  <speed>0.16124515496597097</speed>
  <fix>3d</fix>
</trkpt>
<trkpt lat="-27.2744367" lon="151.2900642">
  <ele>346.23</ele>
  <time>2026-09-01T20:02:46Z</time>
  <course>7.46</course>
  <speed>0.22</speed>
  <fix>3d</fix>
</trkpt>
<trkpt lat="-27.2744362" lon="151.2900643">
  <ele>346.88</ele>
  <time>2026-09-01T20:02:46Z</time>
  <course>10.67</course>
  <speed>0.16124515496597097</speed>
  <fix>3d</fix>
</trkpt>
<trkpt lat="-27.2744361" lon="151.2900643">
  <ele>346.98</ele>
  <time>2026-09-01T20:02:46Z</time>
  <course>10.68</course>
  <speed>0.1414213562373095</speed>
  <fix>3d</fix>
</trkpt>
<trkpt lat="-27.2744363" lon="151.2900643">
  <ele>346.54</ele>
  <time>2026-09-01T20:02:46Z</time>
  <course>7.77</course>
  <speed>0.19</speed>
  <fix>3d</fix>
</trkpt>
<trkpt lat="-27.2744361" lon="151.2900643">
  <ele>347.02</ele>
  <time>2026-09-01T20:02:46Z</time>
  <course>10.68</course>
  <speed>0.140356688476182</speed>
  <fix>3d</fix>
</trkpt>
<trkpt lat="-27.274436" lon="151.2900643">
  <ele>347.12</ele>
  <time>2026-09-01T20:02:46Z</time>
  <course>10.68</course>
  <speed>0.12041594578792296</speed>
  <fix>3d</fix>
</trkpt>
<trkpt lat="-27.2744363" lon="151.2900643">
  <ele>346.54</ele>
  <time>2026-09-01T20:02:46Z</time>
  <course>7.77</course>
  <speed>0.19</speed>
  <fix>3d</fix>
</trkpt>
<trkpt lat="-27.274436" lon="151.2900644">
  <ele>347.16</ele>
  <time>2026-09-01T20:02:46Z</time>
  <course>10.68</course>
  <speed>0.12041594578792296</speed>
  <fix>3d</fix>
</trkpt>
<trkpt lat="-27.2744359" lon="151.2900644">
  <ele>347.25</ele>
  <time>2026-09-01T20:02:46Z</time>
  <course>10.69</course>
  <speed>0.1004987562112089</speed>
  <fix>3d</fix>
</trkpt>
<trkpt lat="-27.274436" lon="151.2900644">
  <ele>346.82</ele>
  <time>2026-09-01T20:02:46Z</time>
  <course>8.37</course>
  <speed>0.16</speed>
  <fix>3d</fix>
</trkpt>
<trkpt lat="-27.2744359" lon="151.2900644">
  <ele>347.29</ele>
  <time>2026-09-01T20:02:46Z</time>
  <course>10.69</course>
  <speed>0.09055385138137417</speed>
  <fix>3d</fix>
</trkpt>
<trkpt lat="-27.2744358" lon="151.2900644">
  <ele>347.38</ele>
  <time>2026-09-01T20:02:46Z</time>
  <course>10.69</course>
  <speed>0.08062257748298549</speed>
  <fix>3d</fix>
</trkpt>
<trkpt lat="-27.274436" lon="151.2900644">
  <ele>346.82</ele>
  <time>2026-09-01T20:02:46Z</time>
  <course>8.37</course>
  <speed>0.16</speed>
  <fix>3d</fix>
</trkpt>
<trkpt lat="-27.2744358" lon="151.2900644">
  <ele>347.39</ele>
  <time>2026-09-01T20:02:46Z</time>
  <course>10.69</course>
  <speed>0.08062257748298549</speed>
  <fix>3d</fix>
</trkpt>
<trkpt lat="-27.2744357" lon="151.2900644">
  <ele>347.51</ele>
  <time>2026-09-01T20:02:46Z</time>
  <course>10.7</course>
  <speed>0.06</speed>
  <fix>3d</fix>
</trkpt>
<trkpt lat="-27.2744358" lon="151.2900644">
  <ele>347.08</ele>
  <time>2026-09-01T20:02:46Z</time>
  <course>9.61</course>
  <speed>0.11</speed>
  <fix>3d</fix>
</trkpt>
<trkpt lat="-27.2744357" lon="151.2900644">
  <ele>347.52</ele>
  <time>2026-09-01T20:02:46Z</time>
  <course>10.7</course>
  <speed>0.06</speed>
  <fix>3d</fix>
</trkpt>
<trkpt lat="-27.2744357" lon="151.2900644">
  <ele>347.64</ele>
  <time>2026-09-01T20:02:46Z</time>
  <course>10.7</course>
  <speed>0.03</speed>
  <fix>3d</fix>
</trkpt>
<trkpt lat="-27.2744358" lon="151.2900644">
  <ele>347.08</ele>
  <time>2026-09-01T20:02:46Z</time>
  <course>9.61</course>
  <speed>0.11</speed>
  <fix>3d</fix>
</trkpt>
<trkpt lat="-27.2744357" lon="151.2900644">
  <ele>347.67</ele>
  <time>2026-09-01T20:02:46Z</time>
  <course>10.7</course>
  <speed>0.03</speed>
  <fix>3d</fix>
</trkpt>
<trkpt lat="-27.2744356" lon="151.2900644">
  <ele>347.77</ele>
  <time>2026-09-01T20:02:46Z</time>
  <course>10.71</course>
  <speed>0.01</speed>
  <fix>3d</fix>
</trkpt>
<trkpt lat="-27.2744356" lon="151.2900644">
  <ele>347.33</ele>
  <time>2026-09-01T20:02:46Z</time>
  <course>12.38</course>
  <speed>0.07</speed>
  <fix>3d</fix>
</trkpt>
<trkpt lat="-27.2744356" lon="151.2900644">
  <ele>347.8</ele>
  <time>2026-09-01T20:02:46Z</time>
  <course>10.71</course>
  <speed>0.01</speed>
  <fix>3d</fix>
</trkpt>
<trkpt lat="-27.2744356" lon="151.2900644">
  <ele>347.89</ele>
  <time>2026-09-01T20:02:46Z</time>
  <course>10.72</course>
  <speed>0.0</speed>
  <fix>3d</fix>
</trkpt>
<trkpt lat="-27.2744356" lon="151.2900644">
  <ele>347.33</ele>
  <time>2026-09-01T20:02:46Z</time>
  <course>12.38</course>
  <speed>0.07</speed>
  <fix>3d</fix>
</trkpt>
<trkpt lat="-27.2744356" lon="151.2900644">
  <ele>347.93</ele>
  <time>2026-09-01T20:02:46Z</time>
  <course>10.73</course>
  <speed>0.0</speed>
  <fix>3d</fix>
</trkpt>
<trkpt lat="-27.2744356" lon="151.2900644">
  <ele>348.02</ele>
  <time>2026-09-01T20:02:46Z</time>
  <course>10.74</course>
  <speed>0.01</speed>
  <fix>3d</fix>
</trkpt>
<trkpt lat="-27.2744355" lon="151.2900645">
  <ele>347.58</ele>
  <time>2026-09-01T20:02:46Z</time>
  <course>22.43</course>
  <speed>0.02</speed>
  <fix>3d</fix>
</trkpt>
<trkpt lat="-27.2744356" lon="151.2900644">
  <ele>348.05</ele>
  <time>2026-09-01T20:02:46Z</time>
  <course>10.75</course>
  <speed>0.02</speed>
  <fix>3d</fix>
</trkpt>
<trkpt lat="-27.2744356" lon="151.2900644">
  <ele>348.15</ele>
  <time>2026-09-01T20:02:46Z</time>
  <course>10.78</course>
  <speed>0.03</speed>
  <fix>3d</fix>
</trkpt>
<trkpt lat="-27.2744355" lon="151.2900645">
  <ele>347.58</ele>
  <time>2026-09-01T20:02:46Z</time>
  <course>22.43</course>
  <speed>0.02</speed>
  <fix>3d</fix>
</trkpt>
<trkpt lat="-27.2744356" lon="151.2900644">
  <ele>348.18</ele>
  <time>2026-09-01T20:02:46Z</time>
  <course>10.79</course>
  <speed>0.03</speed>
  <fix>3d</fix>
</trkpt>
<trkpt lat="-27.2744356" lon="151.2900644">
  <ele>348.28</ele>
  <time>2026-09-01T20:02:46Z</time>
  <course>10.85</course>
  <speed>0.0412310562561766</speed>
  <fix>3d</fix>
</trkpt>
<trkpt lat="-27.2744355" lon="151.2900645">
  <ele>347.84</ele>
  <time>2026-09-01T20:02:46Z</time>
  <course>156.52</course>
  <speed>0.01</speed>
  <fix>3d</fix>
</trkpt>
<trkpt lat="-27.2744356" lon="151.2900644">
  <ele>348.42</ele>
  <time>2026-09-01T20:02:46Z</time>
  <course>10.94</course>
  <speed>0.06082762530298219</speed>
  <fix>3d</fix>
</trkpt>
<trkpt lat="-27.2744355" lon="151.2900645">
  <ele>347.84</ele>
  <time>2026-09-01T20:02:46Z</time>
  <course>156.52</course>
  <speed>0.01</speed>
  <fix>3d</fix>
</trkpt>
<trkpt lat="-27.2744356" lon="151.2900644">
  <ele>348.55</ele>
  <time>2026-09-01T20:02:46Z</time>
  <course>10.98</course>
  <speed>0.07280109889280519</speed>
  <fix>3d</fix>
</trkpt>
<trkpt lat="-27.2744355" lon="151.2900645">
  <ele>348.1</ele>
  <time>2026-09-01T20:02:46Z</time>
  <course>182.42</course>
  <speed>0.04</speed>
  <fix>3d</fix>
</trkpt>
<trkpt lat="-27.2744357" lon="151.2900644">
  <ele>348.69</ele>
  <time>2026-09-01T20:02:46Z</time>
  <course>11.0</course>
  <speed>0.0824621125123532</speed>
  <fix>3d</fix>
</trkpt>
<trkpt lat="-27.2744355" lon="151.2900645">
  <ele>348.1</ele>
  <time>2026-09-01T20:02:46Z</time>
  <course>182.42</course>
  <speed>0.04</speed>
  <fix>3d</fix>
</trkpt>
<trkpt lat="-27.2744358" lon="151.2900644">
  <ele>348.82</ele>
  <time>2026-09-01T20:02:46Z</time>
  <course>10.99</course>
  <speed>0.09219544457292887</speed>
  <fix>3d</fix>
</trkpt>
<trkpt lat="-27.2744356" lon="151.2900645">
  <ele>348.37</ele>
  <time>2026-09-01T20:02:46Z</time>
  <course>186.09</course>
  <speed>0.07</speed>
  <fix>3d</fix>
</trkpt>
<trkpt lat="-27.2744358" lon="151.2900644">
  <ele>348.93</ele>
  <time>2026-09-01T20:02:46Z</time>
  <course>10.97</course>
  <speed>0.1019803902718557</speed>
  <fix>3d</fix>
</trkpt>
<trkpt lat="-27.2744356" lon="151.2900645">
  <ele>348.37</ele>
  <time>2026-09-01T20:02:46Z</time>
  <course>186.09</course>
  <speed>0.07</speed>
  <fix>3d</fix>
</trkpt>
<trkpt lat="-27.2744359" lon="151.2900644">
  <ele>349.04</ele>
  <time>2026-09-01T20:02:46Z</time>
  <course>10.94</course>
  <speed>0.1118033988749895</speed>
  <fix>3d</fix>
</trkpt>
<trkpt lat="-27.2744357" lon="151.2900645">
  <ele>348.63</ele>
  <time>2026-09-01T20:02:46Z</time>
  <course>186.65</course>
  <speed>0.09</speed>
  <fix>3d</fix>
</trkpt>
<trkpt lat="-27.274436" lon="151.2900644">
  <ele>349.13</ele>
  <time>2026-09-01T20:02:46Z</time>
  <course>10.92</course>
  <speed>0.12165525060596438</speed>
  <fix>3d</fix>
</trkpt>
<trkpt lat="-27.2744357" lon="151.2900645">
  <ele>348.63</ele>
  <time>2026-09-01T20:02:46Z</time>
  <course>186.65</course>
  <speed>0.09</speed>
  <fix>3d</fix>
</trkpt>
<trkpt lat="-27.2744361" lon="151.2900644">
  <ele>349.21</ele>
  <time>2026-09-01T20:02:46Z</time>
  <course>10.89</course>
  <speed>0.13152946437965907</speed>
  <fix>3d</fix>
</trkpt>
<trkpt lat="-27.2744359" lon="151.2900645">
  <ele>348.84</ele>
  <time>2026-09-01T20:02:46Z</time>
  <course>187.31</course>
  <speed>0.11</speed>
  <fix>3d</fix>
</trkpt>
<trkpt lat="-27.2744363" lon="151.2900644">
  <ele>349.27</ele>
  <time>2026-09-01T20:02:46Z</time>
  <course>10.87</course>
  <speed>0.15132745950421556</speed>
  <fix>3d</fix>
</trkpt>
<trkpt lat="-27.2744359" lon="151.2900645">
  <ele>348.84</ele>
  <time>2026-09-01T20:02:46Z</time>
  <course>187.31</course>
  <speed>0.11</speed>
  <fix>3d</fix>
</trkpt>
<trkpt lat="-27.2744364" lon="151.2900644">
  <ele>349.32</ele>
  <time>2026-09-01T20:02:46Z</time>
  <course>10.85</course>
  <speed>0.17262676501632068</speed>
  <fix>3d</fix>
</trkpt>
<trkpt lat="-27.2744361" lon="151.2900645">
  <ele>349.01</ele>
  <time>2026-09-01T20:02:46Z</time>
  <course>187.75</course>
  <speed>0.14</speed>
  <fix>3d</fix>
</trkpt>
<trkpt lat="-27.2744366" lon="151.2900644">
  <ele>349.37</ele>
  <time>2026-09-01T20:02:46Z</time>
  <course>10.83</course>
  <speed>0.1824828759089466</speed>
  <fix>3d</fix>
</trkpt>
<trkpt lat="-27.2744361" lon="151.2900645">
  <ele>349.01</ele>
  <time>2026-09-01T20:02:46Z</time>
  <course>187.75</course>
  <speed>0.14</speed>
  <fix>3d</fix>
</trkpt>
<trkpt lat="-27.2744367" lon="151.2900643">
  <ele>349.41</ele>
  <time>2026-09-01T20:02:46Z</time>
  <course>10.81</course>
  <speed>0.20223748416156684</speed>
  <fix>3d</fix>
</trkpt>
<trkpt lat="-27.2744364" lon="151.2900644">
  <ele>349.12</ele>
  <time>2026-09-01T20:02:46Z</time>
  <course>187.95</course>
  <speed>0.17</speed>
  <fix>3d</fix>
</trkpt>
<trkpt lat="-27.2744369" lon="151.2900643">
  <ele>349.46</ele>
  <time>2026-09-01T20:02:46Z</time>
  <course>10.8</course>
  <speed>0.21213203435596426</speed>
  <fix>3d</fix>
</trkpt>
<trkpt lat="-27.2744364" lon="151.2900644">
  <ele>349.12</ele>
  <time>2026-09-01T20:02:46Z</time>
  <course>187.95</course>
  <speed>0.17</speed>
  <fix>3d</fix>
</trkpt>
<trkpt lat="-27.2744371" lon="151.2900643">
  <ele>349.51</ele>
  <time>2026-09-01T20:02:46Z</time>
  <course>10.79</course>
  <speed>0.2220360331117452</speed>
  <fix>3d</fix>
</trkpt>
<trkpt lat="-27.2744367" lon="151.2900644">
  <ele>349.21</ele>
  <time>2026-09-01T20:02:46Z</time>
  <course>188.0</course>
  <speed>0.21</speed>
  <fix>3d</fix>
</trkpt>
<trkpt lat="-27.2744373" lon="151.2900643">
  <ele>349.58</ele>
  <time>2026-09-01T20:02:46Z</time>
  <course>10.77</course>
  <speed>0.23194827009486402</speed>
  <fix>3d</fix>
</trkpt>
<trkpt lat="-27.2744367" lon="151.2900644">
  <ele>349.21</ele>
  <time>2026-09-01T20:02:46Z</time>
  <course>188.0</course>
  <speed>0.21</speed>
  <fix>3d</fix>
</trkpt>
<trkpt lat="-27.2744375" lon="151.2900642">
  <ele>349.66</ele>
  <time>2026-09-01T20:02:46Z</time>
  <course>10.75</course>
  <speed>0.23194827009486402</speed>
  <fix>3d</fix>
</trkpt>
<trkpt lat="-27.2744372" lon="151.2900643">
  <ele>349.31</ele>
  <time>2026-09-01T20:02:46Z</time>
  <course>188.0</course>
  <speed>0.23</speed>
  <fix>3d</fix>
</trkpt>
<trkpt lat="-27.2744377" lon="151.2900642">
  <ele>349.75</ele>
  <time>2026-09-01T20:02:46Z</time>
  <course>10.73</course>
  <speed>0.23194827009486402</speed>
  <fix>3d</fix>
</trkpt>
<trkpt lat="-27.2744372" lon="151.2900643">
  <ele>349.31</ele>
  <time>2026-09-01T20:02:46Z</time>
  <course>188.0</course>
  <speed>0.23</speed>
  <fix>3d</fix>
</trkpt>
<trkpt lat="-27.2744379" lon="151.2900642">
  <ele>349.85</ele>
  <time>2026-09-01T20:02:46Z</time>
  <course>10.71</course>
  <speed>0.23194827009486402</speed>
  <fix>3d</fix>
</trkpt>
<trkpt lat="-27.2744376" lon="151.2900642">
  <ele>349.45</ele>
  <time>2026-09-01T20:02:46Z</time>
  <course>188.01</course>
  <speed>0.24</speed>
  <fix>3d</fix>
</trkpt>
<trkpt lat="-27.2744381" lon="151.2900642">
  <ele>349.97</ele>
  <time>2026-09-01T20:02:46Z</time>
  <course>10.69</course>
  <speed>0.2220360331117452</speed>
  <fix>3d</fix>
</trkpt>
<trkpt lat="-27.2744376" lon="151.2900642">
  <ele>349.45</ele>
  <time>2026-09-01T20:02:46Z</time>
  <course>188.01</course>
  <speed>0.24</speed>
  <fix>3d</fix>
</trkpt>
<trkpt lat="-27.2744383" lon="151.2900641">
  <ele>350.09</ele>
  <time>2026-09-01T20:02:46Z</time>
  <course>10.67</course>
  <speed>0.2109502310972899</speed>
  <fix>3d</fix>
</trkpt>
<trkpt lat="-27.274438" lon="151.2900642">
  <ele>349.65</ele>
  <time>2026-09-01T20:02:46Z</time>
  <course>188.03</course>
  <speed>0.23</speed>
  <fix>3d</fix>
</trkpt>
<trkpt lat="-27.2744385" lon="151.2900641">
  <ele>350.23</ele>
  <time>2026-09-01T20:02:46Z</time>
  <course>10.65</course>
  <speed>0.19026297590440447</speed>
  <fix>3d</fix>
</trkpt>
<trkpt lat="-27.274438" lon="151.2900642">
  <ele>349.65</ele>
  <time>2026-09-01T20:02:46Z</time>
  <course>188.03</course>
  <speed>0.23</speed>
  <fix>3d</fix>
</trkpt>
<trkpt lat="-27.2744387" lon="151.2900641">
  <ele>350.38</ele>
  <time>2026-09-01T20:02:46Z</time>
  <course>10.64</course>
  <speed>0.18027756377319945</speed>
  <fix>3d</fix>
</trkpt>
<trkpt lat="-27.2744385" lon="151.2900641">
  <ele>349.89</ele>
  <time>2026-09-01T20:02:46Z</time>
  <course>187.99</course>
  <speed>0.21</speed>
  <fix>3d</fix>
</trkpt>
<trkpt lat="-27.2744389" lon="151.2900641">
  <ele>350.53</ele>
  <time>2026-09-01T20:02:46Z</time>
  <course>10.64</course>
  <speed>0.16</speed>
  <fix>3d</fix>
</trkpt>
<trkpt lat="-27.2744385" lon="151.2900641">
  <ele>349.89</ele>
  <time>2026-09-01T20:02:46Z</time>
  <course>187.99</course>
  <speed>0.21</speed>
  <fix>3d</fix>
</trkpt>
<trkpt lat="-27.274439" lon="151.2900641">
  <ele>350.69</ele>
  <time>2026-09-01T20:02:46Z</time>
  <course>10.64</course>
  <speed>0.14</speed>
  <fix>3d</fix>
</trkpt>
<trkpt lat="-27.2744388" lon="151.2900641">
  <ele>350.16</ele>
  <time>2026-09-01T20:02:46Z</time>
  <course>188.13</course>
  <speed>0.18</speed>
  <fix>3d</fix>
</trkpt>
<trkpt lat="-27.2744391" lon="151.2900641">
  <ele>350.85</ele>
  <time>2026-09-01T20:02:46Z</time>
  <course>10.63</course>
  <speed>0.12</speed>
  <fix>3d</fix>
</trkpt>
<trkpt lat="-27.2744388" lon="151.2900641">
  <ele>350.16</ele>
  <time>2026-09-01T20:02:46Z</time>
  <course>188.13</course>
  <speed>0.18</speed>
  <fix>3d</fix>
</trkpt>
<trkpt lat="-27.2744392" lon="151.2900641">
  <ele>351.01</ele>
  <time>2026-09-01T20:02:46Z</time>
  <course>10.6</course>
  <speed>0.1</speed>
  <fix>3d</fix>
</trkpt>
<trkpt lat="-27.2744391" lon="151.290064">
  <ele>350.48</ele>
  <time>2026-09-01T20:02:46Z</time>
  <course>188.68</course>
  <speed>0.14</speed>
  <fix>3d</fix>
</trkpt>
<trkpt lat="-27.2744393" lon="151.2900641">
  <ele>351.17</ele>
  <time>2026-09-01T20:02:46Z</time>
  <course>10.56</course>
  <speed>0.08</speed>
  <fix>3d</fix>
</trkpt>
<trkpt lat="-27.2744391" lon="151.290064">
  <ele>350.48</ele>
  <time>2026-09-01T20:02:46Z</time>
  <course>188.68</course>
  <speed>0.14</speed>
  <fix>3d</fix>
</trkpt>
<trkpt lat="-27.2744394" lon="151.2900641">
  <ele>351.33</ele>
  <time>2026-09-01T20:02:46Z</time>
  <course>10.53</course>
  <speed>0.07</speed>
  <fix>3d</fix>
</trkpt>
<trkpt lat="-27.2744393" lon="151.290064">
  <ele>350.8</ele>
  <time>2026-09-01T20:02:46Z</time>
  <course>189.14</course>
  <speed>0.1</speed>
  <fix>3d</fix>
</trkpt>
<trkpt lat="-27.2744395" lon="151.290064">
  <ele>351.49</ele>
  <time>2026-09-01T20:02:46Z</time>
  <course>10.5</course>
  <speed>0.05</speed>
  <fix>3d</fix>
</trkpt>
<trkpt lat="-27.2744393" lon="151.290064">
  <ele>350.8</ele>
  <time>2026-09-01T20:02:46Z</time>
  <course>189.14</course>
  <speed>0.1</speed>
  <fix>3d</fix>
</trkpt>
<trkpt lat="-27.2744395" lon="151.290064">
  <ele>351.65</ele>
  <time>2026-09-01T20:02:46Z</time>
  <course>10.47</course>
  <speed>0.0412310562561766</speed>
  <fix>3d</fix>
</trkpt>
<trkpt lat="-27.2744395" lon="151.290064">
  <ele>351.12</ele>
  <time>2026-09-01T20:02:46Z</time>
  <course>189.71</course>
  <speed>0.07</speed>
  <fix>3d</fix>
</trkpt>
<trkpt lat="-27.2744395" lon="151.290064">
  <ele>351.8</ele>
  <time>2026-09-01T20:02:46Z</time>
  <course>10.45</course>
  <speed>0.0316227766016838</speed>
  <fix>3d</fix>
</trkpt>
<trkpt lat="-27.2744395" lon="151.290064">
  <ele>351.12</ele>
  <time>2026-09-01T20:02:46Z</time>
  <course>189.71</course>
  <speed>0.07</speed>
  <fix>3d</fix>
</trkpt>
<trkpt lat="-27.2744396" lon="151.290064">
  <ele>351.95</ele>
  <time>2026-09-01T20:02:46Z</time>
  <course>10.44</course>
  <speed>0.022360679774997897</speed>
  <fix>3d</fix>
</trkpt>
<trkpt lat="-27.2744396" lon="151.2900639">
  <ele>351.43</ele>
  <time>2026-09-01T20:02:46Z</time>
  <course>191.46</course>
  <speed>0.04</speed>
  <fix>3d</fix>
</trkpt>
<trkpt lat="-27.2744396" lon="151.290064">
  <ele>352.1</ele>
  <time>2026-09-01T20:02:46Z</time>
  <course>10.43</course>
  <speed>0.01414213562373095</speed>
  <fix>3d</fix>
</trkpt>
<trkpt lat="-27.2744396" lon="151.2900639">
  <ele>351.43</ele>
  <time>2026-09-01T20:02:46Z</time>
  <course>191.46</course>
  <speed>0.04</speed>
  <fix>3d</fix>
</trkpt>
<trkpt lat="-27.2744396" lon="151.290064">
  <ele>352.25</ele>
  <time>2026-09-01T20:02:46Z</time>
  <course>10.43</course>
  <speed>0.01414213562373095</speed>
  <fix>3d</fix>
</trkpt>
<trkpt lat="-27.2744397" lon="151.2900639">
  <ele>351.74</ele>
  <time>2026-09-01T20:02:46Z</time>
  <course>196.56</course>
  <speed>0.02</speed>
  <fix>3d</fix>
</trkpt>
<trkpt lat="-27.2744396" lon="151.290064">
  <ele>352.4</ele>
  <time>2026-09-01T20:02:46Z</time>
  <course>10.44</course>
  <speed>0.01</speed>
  <fix>3d</fix>
</trkpt>
<trkpt lat="-27.2744397" lon="151.2900639">
  <ele>351.74</ele>
  <time>2026-09-01T20:02:46Z</time>
  <course>196.56</course>
  <speed>0.02</speed>
  <fix>3d</fix>
</trkpt>
<trkpt lat="-27.2744396" lon="151.290064">
  <ele>352.54</ele>
  <time>2026-09-01T20:02:46Z</time>
  <course>10.45</course>
  <speed>0.01</speed>
  <fix>3d</fix>
</trkpt>
<trkpt lat="-27.2744397" lon="151.2900639">
  <ele>352.03</ele>
  <time>2026-09-01T20:02:46Z</time>
  <course>227.71</course>
  <speed>0.0</speed>
  <fix>3d</fix>
</trkpt>
<trkpt lat="-27.2744396" lon="151.290064">
  <ele>352.68</ele>
  <time>2026-09-01T20:02:46Z</time>
  <course>10.47</course>
  <speed>0.01</speed>
  <fix>3d</fix>
</trkpt>
<trkpt lat="-27.2744397" lon="151.2900639">
  <ele>352.03</ele>
  <time>2026-09-01T20:02:46Z</time>
  <course>227.71</course>
  <speed>0.0</speed>
  <fix>3d</fix>
</trkpt>
<trkpt lat="-27.2744396" lon="151.290064">
  <ele>352.82</ele>
  <time>2026-09-01T20:02:46Z</time>
  <course>10.48</course>
  <speed>0.01</speed>
  <fix>3d</fix>
</trkpt>
<trkpt lat="-27.2744397" lon="151.2900639">
  <ele>352.32</ele>
  <time>2026-09-01T20:02:46Z</time>
  <course>327.23</course>
  <speed>0.0</speed>
  <fix>3d</fix>
</trkpt>
<trkpt lat="-27.2744396" lon="151.290064">
  <ele>352.96</ele>
  <time>2026-09-01T20:02:46Z</time>
  <course>10.49</course>
  <speed>0.01414213562373095</speed>
  <fix>3d</fix>
</trkpt>
<trkpt lat="-27.2744397" lon="151.2900639">
  <ele>352.32</ele>
  <time>2026-09-01T20:02:46Z</time>
  <course>327.23</course>
  <speed>0.0</speed>
  <fix>3d</fix>
</trkpt>
<trkpt lat="-27.2744396" lon="151.290064">
  <ele>353.1</ele>
  <time>2026-09-01T20:02:46Z</time>
  <course>10.49</course>
  <speed>0.01414213562373095</speed>
  <fix>3d</fix>
</trkpt>
<trkpt lat="-27.2744397" lon="151.2900639">
  <ele>352.61</ele>
  <time>2026-09-01T20:02:46Z</time>
  <course>344.21</course>
  <speed>0.01</speed>
  <fix>3d</fix>
</trkpt>
<trkpt lat="-27.2744396" lon="151.290064">
  <ele>353.24</ele>
  <time>2026-09-01T20:02:46Z</time>
  <course>10.49</course>
  <speed>0.01414213562373095</speed>
  <fix>3d</fix>
</trkpt>
<trkpt lat="-27.2744397" lon="151.2900639">
  <ele>352.61</ele>
  <time>2026-09-01T20:02:46Z</time>
  <course>344.21</course>
  <speed>0.01</speed>
  <fix>3d</fix>
</trkpt>
<trkpt lat="-27.2744396" lon="151.290064">
  <ele>353.37</ele>
  <time>2026-09-01T20:02:46Z</time>
  <course>10.49</course>
  <speed>0.01414213562373095</speed>
  <fix>3d</fix>
</trkpt>
<trkpt lat="-27.2744397" lon="151.2900639">
  <ele>352.88</ele>
  <time>2026-09-01T20:02:46Z</time>
  <course>348.55</course>
  <speed>0.02</speed>
  <fix>3d</fix>
</trkpt>
<trkpt lat="-27.2744396" lon="151.290064">
  <ele>353.51</ele>
  <time>2026-09-01T20:02:46Z</time>
  <course>10.49</course>
  <speed>0.022360679774997897</speed>
  <fix>3d</fix>
</trkpt>
<trkpt lat="-27.2744397" lon="151.2900639">
  <ele>352.88</ele>
  <time>2026-09-01T20:02:46Z</time>
  <course>348.55</course>
  <speed>0.02</speed>
  <fix>3d</fix>
</trkpt>
<trkpt lat="-27.2744396" lon="151.290064">
  <ele>353.65</ele>
  <time>2026-09-01T20:02:46Z</time>
  <course>10.48</course>
  <speed>0.022360679774997897</speed>
  <fix>3d</fix>
</trkpt>
<trkpt lat="-27.2744396" lon="151.2900639">
  <ele>353.15</ele>
  <time>2026-09-01T20:02:46Z</time>
  <course>350.48</course>
  <speed>0.03</speed>
  <fix>3d</fix>
</trkpt>
<trkpt lat="-27.2744396" lon="151.290064">
  <ele>353.79</ele>
  <time>2026-09-01T20:02:46Z</time>
  <course>10.48</course>
  <speed>0.022360679774997897</speed>
  <fix>3d</fix>
</trkpt>
<trkpt lat="-27.2744396" lon="151.2900639">
  <ele>353.15</ele>
  <time>2026-09-01T20:02:46Z</time>
  <course>350.48</course>
  <speed>0.03</speed>
  <fix>3d</fix>
</trkpt>
<trkpt lat="-27.2744396" lon="151.290064">
  <ele>353.93</ele>
  <time>2026-09-01T20:02:46Z</time>
  <course>10.48</course>
  <speed>0.0316227766016838</speed>
  <fix>3d</fix>
</trkpt>
<trkpt lat="-27.2744396" lon="151.2900639">
  <ele>353.43</ele>
  <time>2026-09-01T20:02:46Z</time>
  <course>351.91</course>
  <speed>0.03</speed>
  <fix>3d</fix>
</trkpt>
<trkpt lat="-27.2744396" lon="151.290064">
  <ele>353.94</ele>
  <time>2026-09-01T20:02:46Z</time>
  <course>10.48</course>
  <speed>0.0316227766016838</speed>
  <fix>3d</fix>
</trkpt>
<trkpt lat="-27.2744395" lon="151.290064">
  <ele>354.07</ele>
  <time>2026-09-01T20:02:46Z</time>
  <course>10.47</course>
  <speed>0.07280109889280519</speed>
  <fix>3d</fix>
</trkpt>
<trkpt lat="-27.2744396" lon="151.2900639">
  <ele>353.43</ele>
  <time>2026-09-01T20:02:46Z</time>
  <course>351.91</course>
  <speed>0.03</speed>
  <fix>3d</fix>
</trkpt>
<trkpt lat="-27.2744394" lon="151.290064">
  <ele>354.17</ele>
  <time>2026-09-01T20:02:46Z</time>
  <course>10.45</course>
  <speed>0.15297058540778355</speed>
  <fix>3d</fix>
</trkpt>
<trkpt lat="-27.2744395" lon="151.2900639">
  <ele>353.71</ele>
  <time>2026-09-01T20:02:46Z</time>
  <course>357.82</course>
  <speed>0.06</speed>
  <fix>3d</fix>
</trkpt>
<trkpt lat="-27.2744392" lon="151.290064">
  <ele>354.16</ele>
  <time>2026-09-01T20:02:46Z</time>
  <course>10.45</course>
  <speed>0.2039607805437114</speed>
  <fix>3d</fix>
</trkpt>
<trkpt lat="-27.2744395" lon="151.2900639">
  <ele>353.71</ele>
  <time>2026-09-01T20:02:46Z</time>
  <course>357.82</course>
  <speed>0.06</speed>
  <fix>3d</fix>
</trkpt>
<trkpt lat="-27.274439" lon="151.290064">
  <ele>354.07</ele>
  <time>2026-09-01T20:02:46Z</time>
  <course>10.46</course>
  <speed>0.223606797749979</speed>
  <fix>3d</fix>
</trkpt>
<trkpt lat="-27.2744393" lon="151.2900639">
  <ele>353.9</ele>
  <time>2026-09-01T20:02:46Z</time>
  <course>3.73</course>
  <speed>0.15</speed>
  <fix>3d</fix>
</trkpt>
<trkpt lat="-27.2744388" lon="151.2900641">
  <ele>353.88</ele>
  <time>2026-09-01T20:02:46Z</time>
  <course>10.46</course>
  <speed>0.223606797749979</speed>
  <fix>3d</fix>
</trkpt>
<trkpt lat="-27.2744393" lon="151.2900639">
  <ele>353.9</ele>
  <time>2026-09-01T20:02:46Z</time>
  <course>3.73</course>
  <speed>0.15</speed>
  <fix>3d</fix>
</trkpt>
<trkpt lat="-27.2744386" lon="151.2900641">
  <ele>353.79</ele>
  <time>2026-09-01T20:02:46Z</time>
  <course>10.42</course>
  <speed>0.223606797749979</speed>
  <fix>3d</fix>
</trkpt>
<trkpt lat="-27.274439" lon="151.2900639">
  <ele>353.8</ele>
  <time>2026-09-01T20:02:46Z</time>
  <course>5.39</course>
  <speed>0.22</speed>
  <fix>3d</fix>
</trkpt>
<trkpt lat="-27.2744384" lon="151.2900641">
  <ele>353.81</ele>
  <time>2026-09-01T20:02:46Z</time>
  <course>10.36</course>
  <speed>0.2353720459187964</speed>
  <fix>3d</fix>
</trkpt>
<trkpt lat="-27.274439" lon="151.2900639">
  <ele>353.8</ele>
  <time>2026-09-01T20:02:46Z</time>
  <course>5.39</course>
  <speed>0.22</speed>
  <fix>3d</fix>
</trkpt>
<trkpt lat="-27.2744382" lon="151.2900641">
  <ele>353.67</ele>
  <time>2026-09-01T20:02:46Z</time>
  <course>10.29</course>
  <speed>0.25495097567963926</speed>
  <fix>3d</fix>
</trkpt>
<trkpt lat="-27.2744385" lon="151.2900639">
  <ele>353.36</ele>
  <time>2026-09-01T20:02:46Z</time>
  <course>6.15</course>
  <speed>0.24</speed>
  <fix>3d</fix>
</trkpt>
<trkpt lat="-27.274438" lon="151.2900642">
  <ele>353.43</ele>
  <time>2026-09-01T20:02:46Z</time>
  <course>10.22</course>
  <speed>0.28442925306655786</speed>
  <fix>3d</fix>
</trkpt>
<trkpt lat="-27.2744385" lon="151.2900639">
  <ele>353.36</ele>
  <time>2026-09-01T20:02:46Z</time>
  <course>6.15</course>
  <speed>0.24</speed>
  <fix>3d</fix>
</trkpt>
<trkpt lat="-27.2744377" lon="151.2900642">
  <ele>353.06</ele>
  <time>2026-09-01T20:02:46Z</time>
  <course>10.15</course>
  <speed>0.34525353003264136</speed>
  <fix>3d</fix>
</trkpt>
<trkpt lat="-27.2744381" lon="151.2900639">
  <ele>352.63</ele>
  <time>2026-09-01T20:02:46Z</time>
  <course>6.87</course>
  <speed>0.27</speed>
  <fix>3d</fix>
</trkpt>
<trkpt lat="-27.2744373" lon="151.2900643">
  <ele>352.64</ele>
  <time>2026-09-01T20:02:46Z</time>
  <course>10.09</course>
  <speed>0.4373785545725808</speed>
  <fix>3d</fix>
</trkpt>
<trkpt lat="-27.2744381" lon="151.2900639">
  <ele>352.63</ele>
  <time>2026-09-01T20:02:46Z</time>
  <course>6.87</course>
  <speed>0.27</speed>
  <fix>3d</fix>
</trkpt>
<trkpt lat="-27.2744368" lon="151.2900643">
  <ele>352.14</ele>
  <time>2026-09-01T20:02:46Z</time>
  <course>10.03</course>
  <speed>0.5590169943749475</speed>
  <fix>3d</fix>
</trkpt>
<trkpt lat="-27.2744375" lon="151.2900639">
  <ele>351.69</ele>
  <time>2026-09-01T20:02:46Z</time>
  <course>7.32</course>
  <speed>0.37</speed>
  <fix>3d</fix>
</trkpt>
<trkpt lat="-27.2744363" lon="151.2900644">
  <ele>351.58</ele>
  <time>2026-09-01T20:02:46Z</time>
  <course>9.98</course>
  <speed>0.6806614430096655</speed>
  <fix>3d</fix>
</trkpt>
<trkpt lat="-27.2744375" lon="151.2900639">
  <ele>351.69</ele>
  <time>2026-09-01T20:02:46Z</time>
  <course>7.32</course>
  <speed>0.37</speed>
  <fix>3d</fix>
</trkpt>
<trkpt lat="-27.2744356" lon="151.2900645">
  <ele>350.94</ele>
  <time>2026-09-01T20:02:46Z</time>
  <course>9.93</course>
  <speed>0.8828363381737298</speed>
  <fix>3d</fix>
</trkpt>
<trkpt lat="-27.2744367" lon="151.2900641">
  <ele>350.56</ele>
  <time>2026-09-01T20:02:46Z</time>
  <course>7.59</course>
  <speed>0.56</speed>
  <fix>3d</fix>
</trkpt>
<trkpt lat="-27.2744344" lon="151.2900647">
  <ele>350.24</ele>
  <time>2026-09-01T20:02:46Z</time>
  <course>9.87</course>
  <speed>1.8166452598127132</speed>
  <fix>3d</fix>
</trkpt>
<trkpt lat="-27.2744367" lon="151.2900641">
  <ele>350.56</ele>
  <time>2026-09-01T20:02:46Z</time>
  <course>7.59</course>
  <speed>0.56</speed>
  <fix>3d</fix>
</trkpt>
<trkpt lat="-27.2744325" lon="151.2900651">
  <ele>349.45</ele>
  <time>2026-09-01T20:02:46Z</time>
  <course>9.75</course>
  <speed>2.314821807396846</speed>
  <fix>3d</fix>
</trkpt>
<trkpt lat="-27.2744353" lon="151.2900643">
  <ele>349.19</ele>
  <time>2026-09-01T20:02:46Z</time>
  <course>7.7</course>
  <speed>1.23</speed>
  <fix>3d</fix>
</trkpt>
<trkpt lat="-27.2744303" lon="151.2900655">
  <ele>348.59</ele>
  <time>2026-09-01T20:02:46Z</time>
  <course>9.61</course>
  <speed>2.395349661322956</speed>
  <fix>3d</fix>
</trkpt>
<trkpt lat="-27.2744353" lon="151.2900643">
  <ele>349.19</ele>
  <time>2026-09-01T20:02:46Z</time>
  <course>7.7</course>
  <speed>1.23</speed>
  <fix>3d</fix>
</trkpt>
<trkpt lat="-27.2744283" lon="151.2900658">
  <ele>347.62</ele>
  <time>2026-09-01T20:02:46Z</time>
  <course>9.46</course>
  <speed>2.2522877258467666</speed>
  <fix>3d</fix>
</trkpt>
<trkpt lat="-27.2744324" lon="151.2900647">
  <ele>347.55</ele>
  <time>2026-09-01T20:02:46Z</time>
  <course>7.71</course>
  <speed>2.08</speed>
  <fix>3d</fix>
</trkpt>
<trkpt lat="-27.2744263" lon="151.2900661">
  <ele>346.56</ele>
  <time>2026-09-01T20:02:46Z</time>
  <course>9.5</course>
  <speed>2.2210357943986403</speed>
  <fix>3d</fix>
</trkpt>
<trkpt lat="-27.2744324" lon="151.2900647">
  <ele>347.55</ele>
  <time>2026-09-01T20:02:46Z</time>
  <course>7.71</course>
  <speed>2.08</speed>
  <fix>3d</fix>
</trkpt>
<trkpt lat="-27.2744242" lon="151.2900665">
  <ele>345.41</ele>
  <time>2026-09-01T20:02:46Z</time>
  <course>9.47</course>
  <speed>2.5942243542145693</speed>
  <fix>3d</fix>
</trkpt>
<trkpt lat="-27.2744284" lon="151.2900654">
  <ele>345.59</ele>
  <time>2026-09-01T20:02:46Z</time>
  <course>7.7</course>
  <speed>2.29</speed>
  <fix>3d</fix>
</trkpt>
<trkpt lat="-27.2744227" lon="151.2900667">
  <ele>344.64</ele>
  <time>2026-09-01T20:02:46Z</time>
  <course>9.28</course>
  <speed>0.4936598018878993</speed>
  <fix>3d</fix>
</trkpt>
<trkpt lat="-27.2744284" lon="151.2900654">
  <ele>345.59</ele>
  <time>2026-09-01T20:02:46Z</time>
  <course>7.7</course>
  <speed>2.29</speed>
  <fix>3d</fix>
</trkpt>
<trkpt lat="-27.2744232" lon="151.2900665">
  <ele>344.86</ele>
  <time>2026-09-01T20:02:46Z</time>
  <course>9.23</course>
  <speed>0.7962411694957753</speed>
  <fix>3d</fix>
</trkpt>
<trkpt lat="-27.2744245" lon="151.2900659">
  <ele>343.49</ele>
  <time>2026-09-01T20:02:46Z</time>
  <course>7.68</course>
  <speed>1.44</speed>
  <fix>3d</fix>
</trkpt>
<trkpt lat="-27.2744241" lon="151.2900663">
  <ele>345.37</ele>
  <time>2026-09-01T20:02:46Z</time>
  <course>9.2</course>
  <speed>0.9276313923105448</speed>
  <fix>3d</fix>
</trkpt>
<trkpt lat="-27.2744245" lon="151.2900659">
  <ele>343.49</ele>
  <time>2026-09-01T20:02:46Z</time>
  <course>7.68</course>
  <speed>1.44</speed>
  <fix>3d</fix>
</trkpt>
<trkpt lat="-27.2744247" lon="151.2900661">
  <ele>345.66</ele>
  <time>2026-09-01T20:02:46Z</time>
  <course>9.19</course>
  <speed>0.5021951811795887</speed>
  <fix>3d</fix>
</trkpt>
<trkpt lat="-27.274423" lon="151.2900661">
  <ele>342.66</ele>
  <time>2026-09-01T20:02:46Z</time>
  <course>187.63</course>
  <speed>0.03</speed>
  <fix>3d</fix>
</trkpt>
<trkpt lat="-27.2744249" lon="151.290066">
  <ele>345.77</ele>
  <time>2026-09-01T20:02:46Z</time>
  <course>9.2</course>
  <speed>0.14866068747318506</speed>
  <fix>3d</fix>
</trkpt>
<trkpt lat="-27.274423" lon="151.2900661">
  <ele>342.66</ele>
  <time>2026-09-01T20:02:46Z</time>
  <course>187.63</course>
  <speed>0.03</speed>
  <fix>3d</fix>
</trkpt>
<trkpt lat="-27.2744248" lon="151.290066">
  <ele>345.77</ele>
  <time>2026-09-01T20:02:46Z</time>
  <course>9.19</course>
  <speed>0.03</speed>
  <fix>3d</fix>
</trkpt>
<trkpt lat="-27.2744237" lon="151.290066">
  <ele>343.03</ele>
  <time>2026-09-01T20:02:46Z</time>
  <course>187.63</course>
  <speed>0.36</speed>
  <fix>3d</fix>
</trkpt>
<trkpt lat="-27.2744247" lon="151.290066">
  <ele>345.77</ele>
  <time>2026-09-01T20:02:46Z</time>
  <course>9.2</course>
  <speed>0.03605551275463989</speed>
  <fix>3d</fix>
</trkpt>
<trkpt lat="-27.2744237" lon="151.290066">
  <ele>343.03</ele>
  <time>2026-09-01T20:02:46Z</time>
  <course>187.63</course>
  <speed>0.36</speed>
  <fix>3d</fix>
</trkpt>
<trkpt lat="-27.2744246" lon="151.290066">
  <ele>345.79</ele>
  <time>2026-09-01T20:02:46Z</time>
  <course>9.21</course>
  <speed>0.07615773105863909</speed>
  <fix>3d</fix>
</trkpt>
<trkpt lat="-27.2744239" lon="151.290066">
  <ele>343.15</ele>
  <time>2026-09-01T20:02:46Z</time>
  <course>7.63</course>
  <speed>0.04</speed>
  <fix>3d</fix>
</trkpt>
<trkpt lat="-27.2744246" lon="151.290066">
  <ele>345.83</ele>
  <time>2026-09-01T20:02:46Z</time>
  <course>9.22</course>
  <speed>0.10770329614269007</speed>
  <fix>3d</fix>
</trkpt>
<trkpt lat="-27.2744239" lon="151.290066">
  <ele>343.15</ele>
  <time>2026-09-01T20:02:46Z</time>
  <course>7.63</course>
  <speed>0.04</speed>
  <fix>3d</fix>
</trkpt>
<trkpt lat="-27.2744246" lon="151.2900659">
  <ele>345.88</ele>
  <time>2026-09-01T20:02:46Z</time>
  <course>9.24</course>
  <speed>0.09848857801796104</speed>
  <fix>3d</fix>
</trkpt>
<trkpt lat="-27.2744238" lon="151.2900661">
  <ele>343.09</ele>
  <time>2026-09-01T20:02:46Z</time>
  <course>7.63</course>
  <speed>0.04</speed>
  <fix>3d</fix>
</trkpt>
<trkpt lat="-27.2744246" lon="151.2900659">
  <ele>345.92</ele>
  <time>2026-09-01T20:02:46Z</time>
  <course>9.27</course>
  <speed>0.07615773105863909</speed>
  <fix>3d</fix>
</trkpt>
<trkpt lat="-27.2744238" lon="151.2900661">
  <ele>343.09</ele>
  <time>2026-09-01T20:02:46Z</time>
  <course>7.63</course>
  <speed>0.04</speed>
  <fix>3d</fix>
</trkpt>
<trkpt lat="-27.2744245" lon="151.2900659">
  <ele>345.96</ele>
  <time>2026-09-01T20:02:46Z</time>
  <course>9.29</course>
  <speed>0.05830951894845301</speed>
  <fix>3d</fix>
</trkpt>
<trkpt lat="-27.2744238" lon="151.2900661">
  <ele>343.08</ele>
  <time>2026-09-01T20:02:46Z</time>
  <course>187.63</course>
  <speed>0.01</speed>
  <fix>3d</fix>
</trkpt>
<trkpt lat="-26.9720619" lon="149.6127921">
  <ele>339.29</ele>
  <time>2026-09-01T20:02:47Z</time>
  <course>310.27</course>
  <speed>0.0</speed>
  <fix>3d</fix>
</trkpt>
<trkpt lat="-26.9720619" lon="149.6127921">
  <ele>339.29</ele>
  <time>2026-09-01T20:02:47Z</time>
  <course>310.27</course>
  <speed>0.0</speed>
  <fix>3d</fix>
</trkpt>
<trkpt lat="-27.274439" lon="151.290064">
  <ele>-0.01</ele>
  <time>2026-09-01T20:02:47Z</time>
  <course>0.22</course>
  <speed>0.0</speed>
  <fix>3d</fix>
</trkpt>
<trkpt lat="-27.274439" lon="151.290064">
  <ele>343.1</ele>
  <time>2026-09-01T20:02:47Z</time>
  <course>294.58</course>
  <speed>0.0</speed>
  <fix>3d</fix>
</trkpt>
<trkpt lat="-27.274439" lon="151.290064">
  <ele>0.02</ele>
  <time>2026-09-01T20:02:47Z</time>
  <course>1.2</course>
  <speed>0.0</speed>
  <fix>3d</fix>
</trkpt>
<trkpt lat="-27.274439" lon="151.290064">
  <ele>343.1</ele>
  <time>2026-09-01T20:02:47Z</time>
  <course>294.58</course>
  <speed>0.0</speed>
  <fix>3d</fix>
</trkpt>
<trkpt lat="-27.274439" lon="151.290064">
  <ele>-0.08</ele>
  <time>2026-09-01T20:02:47Z</time>
  <course>2.1</course>
  <speed>0.0</speed>
  <fix>3d</fix>
</trkpt>
<trkpt lat="-27.274439" lon="151.290064">
  <ele>343.1</ele>
  <time>2026-09-01T20:02:47Z</time>
  <course>273.33</course>
  <speed>0.0</speed>
  <fix>3d</fix>
</trkpt>
<trkpt lat="-27.274439" lon="151.290064">
  <ele>0.22</ele>
  <time>2026-09-01T20:02:47Z</time>
  <course>2.92</course>
  <speed>0.0</speed>
  <fix>3d</fix>
</trkpt>
<trkpt lat="-27.274439" lon="151.290064">
  <ele>343.1</ele>
  <time>2026-09-01T20:02:47Z</time>
  <course>273.33</course>
  <speed>0.0</speed>
  <fix>3d</fix>
</trkpt>
<trkpt lat="-27.274439" lon="151.290064">
  <ele>0.09</ele>
  <time>2026-09-01T20:02:47Z</time>
  <course>3.66</course>
  <speed>0.0</speed>
  <fix>3d</fix>
</trkpt>
<trkpt lat="-27.274439" lon="151.290064">
  <ele>343.1</ele>
  <time>2026-09-01T20:02:47Z</time>
  <course>270.44</course>
  <speed>0.0</speed>
  <fix>3d</fix>
</trkpt>
<trkpt lat="-27.274439" lon="151.290064">
  <ele>0.08</ele>
  <time>2026-09-01T20:02:47Z</time>
  <course>4.34</course>
  <speed>0.0</speed>
  <fix>3d</fix>
</trkpt>
<trkpt lat="-27.274439" lon="151.290064">
  <ele>343.1</ele>
  <time>2026-09-01T20:02:47Z</time>
  <course>270.44</course>
  <speed>0.0</speed>
  <fix>3d</fix>
</trkpt>
<trkpt lat="-27.274439" lon="151.290064">
  <ele>0.09</ele>
  <time>2026-09-01T20:02:47Z</time>
  <course>4.95</course>
  <speed>0.0</speed>
  <fix>3d</fix>
</trkpt>
<trkpt lat="-27.274439" lon="151.290064">
  <ele>343.1</ele>
  <time>2026-09-01T20:02:47Z</time>
  <course>270.05</course>
  <speed>0.0</speed>
  <fix>3d</fix>
</trkpt>
<trkpt lat="-27.274439" lon="151.290064">
  <ele>-0.05</ele>
  <time>2026-09-01T20:02:47Z</time>
  <course>5.5</course>
  <speed>0.0</speed>
  <fix>3d</fix>
</trkpt>
<trkpt lat="-27.274439" lon="151.290064">
  <ele>343.1</ele>
  <time>2026-09-01T20:02:47Z</time>
  <course>270.05</course>
  <speed>0.0</speed>
  <fix>3d</fix>
</trkpt>
<trkpt lat="-27.274439" lon="151.290064">
  <ele>343.06</ele>
  <time>2026-09-01T20:02:47Z</time>
  <course>5.98</course>
  <speed>0.0</speed>
  <fix>3d</fix>
</trkpt>
<trkpt lat="-27.274439" lon="151.290064">
  <ele>343.1</ele>
  <time>2026-09-01T20:02:47Z</time>
  <course>270.0</course>
  <speed>0.0</speed>
  <fix>3d</fix>
</trkpt>
<trkpt lat="-27.274439" lon="151.290064">
  <ele>343.18</ele>
  <time>2026-09-01T20:02:47Z</time>
  <course>6.44</course>
  <speed>0.0</speed>
  <fix>3d</fix>
</trkpt>
<trkpt lat="-27.274439" lon="151.290064">
  <ele>343.1</ele>
  <time>2026-09-01T20:02:47Z</time>
  <course>270.0</course>
  <speed>0.0</speed>
  <fix>3d</fix>
</trkpt>
<trkpt lat="-27.274439" lon="151.290064">
  <ele>342.91</ele>
  <time>2026-09-01T20:02:47Z</time>
  <course>6.85</course>
  <speed>0.0</speed>
  <fix>3d</fix>
</trkpt>
<trkpt lat="-27.274439" lon="151.290064">
  <ele>343.1</ele>
  <time>2026-09-01T20:02:47Z</time>
  <course>270.0</course>
  <speed>0.0</speed>
  <fix>3d</fix>
</trkpt>
<trkpt lat="-27.274439" lon="151.290064">
  <ele>343.06</ele>
  <time>2026-09-01T20:02:47Z</time>
  <course>7.22</course>
  <speed>0.0</speed>
  <fix>3d</fix>
</trkpt>
<trkpt lat="-27.274439" lon="151.290064">
  <ele>343.1</ele>
  <time>2026-09-01T20:02:47Z</time>
  <course>270.0</course>
  <speed>0.0</speed>
  <fix>3d</fix>
</trkpt>
<trkpt lat="-27.274439" lon="151.290064">
  <ele>343.13</ele>
  <time>2026-09-01T20:02:47Z</time>
  <course>7.56</course>
  <speed>0.0</speed>
  <fix>3d</fix>
</trkpt>
<trkpt lat="-27.274439" lon="151.290064">
  <ele>343.1</ele>
  <time>2026-09-01T20:02:47Z</time>
  <course>270.0</course>
  <speed>0.0</speed>
  <fix>3d</fix>
</trkpt>
<trkpt lat="-27.274439" lon="151.290064">
  <ele>343.04</ele>
  <time>2026-09-01T20:02:47Z</time>
  <course>7.87</course>
  <speed>0.0</speed>
  <fix>3d</fix>
</trkpt>
<trkpt lat="-27.274439" lon="151.290064">
  <ele>343.1</ele>
  <time>2026-09-01T20:02:47Z</time>
  <course>270.0</course>
  <speed>0.0</speed>
  <fix>3d</fix>
</trkpt>
<trkpt lat="-27.274439" lon="151.290064">
  <ele>342.88</ele>
  <time>2026-09-01T20:02:47Z</time>
  <course>8.14</course>
  <speed>0.0</speed>
  <fix>3d</fix>
</trkpt>
<trkpt lat="-27.274439" lon="151.290064">
  <ele>343.1</ele>
  <time>2026-09-01T20:02:47Z</time>
  <course>270.0</course>
  <speed>0.0</speed>
  <fix>3d</fix>
</trkpt>
<trkpt lat="-27.274439" lon="151.290064">
  <ele>343.02</ele>
  <time>2026-09-01T20:02:47Z</time>
  <course>8.39</course>
  <speed>0.0</speed>
  <fix>3d</fix>
</trkpt>
<trkpt lat="-27.274439" lon="151.290064">
  <ele>343.1</ele>
  <time>2026-09-01T20:02:47Z</time>
  <course>270.0</course>
  <speed>0.0</speed>
  <fix>3d</fix>
</trkpt>
<trkpt lat="-27.274439" lon="151.290064">
  <ele>343.23</ele>
  <time>2026-09-01T20:02:47Z</time>
  <course>8.63</course>
  <speed>0.0</speed>
  <fix>3d</fix>
</trkpt>
<trkpt lat="-27.274439" lon="151.290064">
  <ele>343.1</ele>
  <time>2026-09-01T20:02:47Z</time>
  <course>270.0</course>
  <speed>0.0</speed>
  <fix>3d</fix>
</trkpt>
<trkpt lat="-27.274439" lon="151.290064">
  <ele>343.17</ele>
  <time>2026-09-01T20:02:47Z</time>
  <course>8.83</course>
  <speed>0.0</speed>
  <fix>3d</fix>
</trkpt>
<trkpt lat="-27.274439" lon="151.290064">
  <ele>343.1</ele>
  <time>2026-09-01T20:02:47Z</time>
  <course>270.0</course>
  <speed>0.0</speed>
  <fix>3d</fix>
</trkpt>
<trkpt lat="-27.274439" lon="151.290064">
  <ele>343.04</ele>
  <time>2026-09-01T20:02:47Z</time>
  <course>9.01</course>
  <speed>0.0</speed>
  <fix>3d</fix>
</trkpt>
<trkpt lat="-27.274439" lon="151.290064">
  <ele>343.1</ele>
  <time>2026-09-01T20:02:47Z</time>
  <course>270.0</course>
  <speed>0.0</speed>
  <fix>3d</fix>
</trkpt>
<trkpt lat="-27.274439" lon="151.290064">
  <ele>342.89</ele>
  <time>2026-09-01T20:02:47Z</time>
  <course>9.18</course>
  <speed>0.0</speed>
  <fix>3d</fix>
</trkpt>
<trkpt lat="-27.274439" lon="151.290064">
  <ele>343.1</ele>
  <time>2026-09-01T20:02:47Z</time>
  <course>270.0</course>
  <speed>0.0</speed>
  <fix>3d</fix>
</trkpt>
<trkpt lat="-27.274439" lon="151.290064">
  <ele>343.08</ele>
  <time>2026-09-01T20:02:47Z</time>
  <course>9.33</course>
  <speed>0.0</speed>
  <fix>3d</fix>
</trkpt>
<trkpt lat="-27.274439" lon="151.290064">
  <ele>343.1</ele>
  <time>2026-09-01T20:02:47Z</time>
  <course>270.0</course>
  <speed>0.0</speed>
  <fix>3d</fix>
</trkpt>
<trkpt lat="-27.274439" lon="151.290064">
  <ele>343.19</ele>
  <time>2026-09-01T20:02:47Z</time>
  <course>9.47</course>
  <speed>0.0</speed>
  <fix>3d</fix>
</trkpt>
<trkpt lat="-27.274439" lon="151.290064">
  <ele>343.1</ele>
  <time>2026-09-01T20:02:47Z</time>
  <course>270.0</course>
  <speed>0.0</speed>
  <fix>3d</fix>
</trkpt>
<trkpt lat="-27.274439" lon="151.290064">
  <ele>342.88</ele>
  <time>2026-09-01T20:02:47Z</time>
  <course>9.59</course>
  <speed>0.0</speed>
  <fix>3d</fix>
</trkpt>
<trkpt lat="-27.274439" lon="151.290064">
  <ele>343.1</ele>
  <time>2026-09-01T20:02:47Z</time>
  <course>270.0</course>
  <speed>0.0</speed>
  <fix>3d</fix>
</trkpt>
<trkpt lat="-27.274439" lon="151.290064">
  <ele>343.17</ele>
  <time>2026-09-01T20:02:47Z</time>
  <course>9.7</course>
  <speed>0.0</speed>
  <fix>3d</fix>
</trkpt>
<trkpt lat="-27.274439" lon="151.290064">
  <ele>343.1</ele>
  <time>2026-09-01T20:02:47Z</time>
  <course>270.0</course>
  <speed>0.0</speed>
  <fix>3d</fix>
</trkpt>
<trkpt lat="-27.274439" lon="151.290064">
  <ele>342.89</ele>
  <time>2026-09-01T20:02:47Z</time>
  <course>9.8</course>
  <speed>0.0</speed>
  <fix>3d</fix>
</trkpt>
<trkpt lat="-27.274439" lon="151.290064">
  <ele>343.1</ele>
  <time>2026-09-01T20:02:47Z</time>
  <course>270.0</course>
  <speed>0.0</speed>
  <fix>3d</fix>
</trkpt>
<trkpt lat="-27.274439" lon="151.290064">
  <ele>342.99</ele>
  <time>2026-09-01T20:02:47Z</time>
  <course>9.9</course>
  <speed>0.0</speed>
  <fix>3d</fix>
</trkpt>
<trkpt lat="-27.274439" lon="151.290064">
  <ele>343.1</ele>
  <time>2026-09-01T20:02:47Z</time>
  <course>270.0</course>
  <speed>0.0</speed>
  <fix>3d</fix>
</trkpt>
<trkpt lat="-27.274439" lon="151.290064">
  <ele>342.87</ele>
  <time>2026-09-01T20:02:47Z</time>
  <course>9.98</course>
  <speed>0.0</speed>
  <fix>3d</fix>
</trkpt>
<trkpt lat="-27.274439" lon="151.290064">
  <ele>343.1</ele>
  <time>2026-09-01T20:02:47Z</time>
  <course>270.0</course>
  <speed>0.0</speed>
  <fix>3d</fix>
</trkpt>
<trkpt lat="-27.274439" lon="151.290064">
  <ele>343.09</ele>
  <time>2026-09-01T20:02:47Z</time>
  <course>10.06</course>
  <speed>0.0</speed>
  <fix>3d</fix>
</trkpt>
<trkpt lat="-27.274439" lon="151.290064">
  <ele>343.1</ele>
  <time>2026-09-01T20:02:47Z</time>
  <course>270.0</course>
  <speed>0.0</speed>
  <fix>3d</fix>
</trkpt>
<trkpt lat="-27.274439" lon="151.290064">
  <ele>343.18</ele>
  <time>2026-09-01T20:02:47Z</time>
  <course>10.13</course>
  <speed>0.0</speed>
  <fix>3d</fix>
</trkpt>
<trkpt lat="-27.274439" lon="151.290064">
  <ele>343.1</ele>
  <time>2026-09-01T20:02:47Z</time>
  <course>270.0</course>
  <speed>0.0</speed>
  <fix>3d</fix>
</trkpt>
<trkpt lat="-27.274439" lon="151.290064">
  <ele>343.05</ele>
  <time>2026-09-01T20:02:47Z</time>
  <course>10.2</course>
  <speed>0.0</speed>
  <fix>3d</fix>
</trkpt>
<trkpt lat="-27.274439" lon="151.290064">
  <ele>343.1</ele>
  <time>2026-09-01T20:02:47Z</time>
  <course>270.0</course>
  <speed>0.0</speed>
  <fix>3d</fix>
</trkpt>
<trkpt lat="-27.274439" lon="151.290064">
  <ele>342.96</ele>
  <time>2026-09-01T20:02:47Z</time>
  <course>10.25</course>
  <speed>0.0</speed>
  <fix>3d</fix>
</trkpt>
<trkpt lat="-27.274439" lon="151.290064">
  <ele>343.1</ele>
  <time>2026-09-01T20:02:47Z</time>
  <course>270.0</course>
  <speed>0.0</speed>
  <fix>3d</fix>
</trkpt>
<trkpt lat="-27.274439" lon="151.290064">
  <ele>343.1</ele>
  <time>2026-09-01T20:02:47Z</time>
  <course>10.31</course>
  <speed>0.0</speed>
  <fix>3d</fix>
</trkpt>
<trkpt lat="-27.274439" lon="151.290064">
  <ele>343.1</ele>
  <time>2026-09-01T20:02:47Z</time>
  <course>270.0</course>
  <speed>0.0</speed>
  <fix>3d</fix>
</trkpt>
<trkpt lat="-27.274439" lon="151.290064">
  <ele>343.22</ele>
  <time>2026-09-01T20:02:47Z</time>
  <course>10.35</course>
  <speed>0.0</speed>
  <fix>3d</fix>
</trkpt>
<trkpt lat="-27.274439" lon="151.290064">
  <ele>343.1</ele>
  <time>2026-09-01T20:02:47Z</time>
  <course>270.0</course>
  <speed>0.0</speed>
  <fix>3d</fix>
</trkpt>
<trkpt lat="-27.274439" lon="151.290064">
  <ele>343.17</ele>
  <time>2026-09-01T20:02:47Z</time>
  <course>10.4</course>
  <speed>0.0</speed>
  <fix>3d</fix>
</trkpt>
<trkpt lat="-27.274439" lon="151.290064">
  <ele>343.1</ele>
  <time>2026-09-01T20:02:47Z</time>
  <course>270.0</course>
  <speed>0.0</speed>
  <fix>3d</fix>
</trkpt>
<trkpt lat="-27.274439" lon="151.290064">
  <ele>343.08</ele>
  <time>2026-09-01T20:02:47Z</time>
  <course>10.44</course>
  <speed>0.0</speed>
  <fix>3d</fix>
</trkpt>
<trkpt lat="-27.274439" lon="151.290064">
  <ele>343.1</ele>
  <time>2026-09-01T20:02:47Z</time>
  <course>270.0</course>
  <speed>0.0</speed>
  <fix>3d</fix>
</trkpt>
<trkpt lat="-27.274439" lon="151.290064">
  <ele>343.04</ele>
  <time>2026-09-01T20:02:47Z</time>
  <course>10.47</course>
  <speed>0.0</speed>
  <fix>3d</fix>
</trkpt>
<trkpt lat="-27.274439" lon="151.290064">
  <ele>343.1</ele>
  <time>2026-09-01T20:02:47Z</time>
  <course>270.0</course>
  <speed>0.0</speed>
  <fix>3d</fix>
</trkpt>
<trkpt lat="-27.274439" lon="151.290064">
  <ele>343.18</ele>
  <time>2026-09-01T20:02:47Z</time>
  <course>10.5</course>
  <speed>0.0</speed>
  <fix>3d</fix>
</trkpt>
<trkpt lat="-27.274439" lon="151.290064">
  <ele>343.1</ele>
  <time>2026-09-01T20:02:47Z</time>
  <course>270.0</course>
  <speed>0.0</speed>
  <fix>3d</fix>
</trkpt>
<trkpt lat="-27.274439" lon="151.290064">
  <ele>343.12</ele>
  <time>2026-09-01T20:02:47Z</time>
  <course>10.53</course>
  <speed>0.0</speed>
  <fix>3d</fix>
</trkpt>
<trkpt lat="-27.274439" lon="151.290064">
  <ele>343.1</ele>
  <time>2026-09-01T20:02:47Z</time>
  <course>270.0</course>
  <speed>0.0</speed>
  <fix>3d</fix>
</trkpt>
<trkpt lat="-27.274439" lon="151.290064">
  <ele>343.04</ele>
  <time>2026-09-01T20:02:47Z</time>
  <course>10.56</course>
  <speed>0.0</speed>
  <fix>3d</fix>
</trkpt>
<trkpt lat="-27.274439" lon="151.290064">
  <ele>343.1</ele>
  <time>2026-09-01T20:02:47Z</time>
  <course>270.0</course>
  <speed>0.0</speed>
  <fix>3d</fix>
</trkpt>
<trkpt lat="-27.274439" lon="151.290064">
  <ele>343.07</ele>
  <time>2026-09-01T20:02:47Z</time>
  <course>10.58</course>
  <speed>0.0</speed>
  <fix>3d</fix>
</trkpt>
<trkpt lat="-27.274439" lon="151.290064">
  <ele>343.1</ele>
  <time>2026-09-01T20:02:47Z</time>
  <course>270.0</course>
  <speed>0.0</speed>
  <fix>3d</fix>
</trkpt>
<trkpt lat="-27.274439" lon="151.290064">
  <ele>343.04</ele>
  <time>2026-09-01T20:02:47Z</time>
  <course>10.6</course>
  <speed>0.0</speed>
  <fix>3d</fix>
</trkpt>
<trkpt lat="-27.274439" lon="151.290064">
  <ele>343.1</ele>
  <time>2026-09-01T20:02:47Z</time>
  <course>270.0</course>
  <speed>0.0</speed>
  <fix>3d</fix>
</trkpt>
<trkpt lat="-27.274439" lon="151.290064">
  <ele>343.01</ele>
  <time>2026-09-01T20:02:47Z</time>
  <course>10.62</course>
  <speed>0.0</speed>
  <fix>3d</fix>
</trkpt>
<trkpt lat="-27.274439" lon="151.290064">
  <ele>343.1</ele>
  <time>2026-09-01T20:02:47Z</time>
  <course>270.0</course>
  <speed>0.0</speed>
  <fix>3d</fix>
</trkpt>
<trkpt lat="-27.274439" lon="151.290064">
  <ele>343.2</ele>
  <time>2026-09-01T20:02:47Z</time>
  <course>10.64</course>
  <speed>0.0</speed>
  <fix>3d</fix>
</trkpt>
<trkpt lat="-27.274439" lon="151.290064">
  <ele>343.1</ele>
  <time>2026-09-01T20:02:47Z</time>
  <course>270.0</course>
  <speed>0.0</speed>
  <fix>3d</fix>
</trkpt>
<trkpt lat="-27.274439" lon="151.290064">
  <ele>343.24</ele>
  <time>2026-09-01T20:02:47Z</time>
  <course>10.65</course>
  <speed>0.0</speed>
  <fix>3d</fix>
</trkpt>
<trkpt lat="-27.274439" lon="151.290064">
  <ele>343.1</ele>
  <time>2026-09-01T20:02:47Z</time>
  <course>270.0</course>
  <speed>0.0</speed>
  <fix>3d</fix>
</trkpt>
<trkpt lat="-27.274439" lon="151.290064">
  <ele>342.88</ele>
  <time>2026-09-01T20:02:47Z</time>
  <course>10.67</course>
  <speed>0.0</speed>
  <fix>3d</fix>
</trkpt>
<trkpt lat="-27.274439" lon="151.290064">
  <ele>343.1</ele>
  <time>2026-09-01T20:02:47Z</time>
  <course>270.0</course>
  <speed>0.0</speed>
  <fix>3d</fix>
</trkpt>
<trkpt lat="-27.274439" lon="151.290064">
  <ele>343.21</ele>
  <time>2026-09-01T20:02:47Z</time>
  <course>10.68</course>
  <speed>0.0</speed>
  <fix>3d</fix>
</trkpt>
<trkpt lat="-27.274439" lon="151.290064">
  <ele>343.1</ele>
  <time>2026-09-01T20:02:47Z</time>
  <course>270.0</course>
  <speed>0.0</speed>
  <fix>3d</fix>
</trkpt>
<trkpt lat="-27.274439" lon="151.290064">
  <ele>343.02</ele>
  <time>2026-09-01T20:02:47Z</time>
  <course>10.69</course>
  <speed>0.0</speed>
  <fix>3d</fix>
</trkpt>
<trkpt lat="-27.274439" lon="151.290064">
  <ele>343.1</ele>
  <time>2026-09-01T20:02:47Z</time>
  <course>270.0</course>
  <speed>0.0</speed>
  <fix>3d</fix>
</trkpt>
<trkpt lat="-27.274439" lon="151.290064">
  <ele>342.93</ele>
  <time>2026-09-01T20:02:47Z</time>
  <course>10.7</course>
  <speed>0.0</speed>
  <fix>3d</fix>
</trkpt>
<trkpt lat="-27.274439" lon="151.290064">
  <ele>343.1</ele>
  <time>2026-09-01T20:02:47Z</time>
  <course>270.0</course>
  <speed>0.0</speed>
  <fix>3d</fix>
</trkpt>
<trkpt lat="-27.274439" lon="151.290064">
  <ele>343.07</ele>
  <time>2026-09-01T20:02:47Z</time>
  <course>10.71</course>
  <speed>0.0</speed>
  <fix>3d</fix>
</trkpt>
<trkpt lat="-27.274439" lon="151.290064">
  <ele>343.1</ele>
  <time>2026-09-01T20:02:47Z</time>
  <course>270.0</course>
  <speed>0.0</speed>
  <fix>3d</fix>
</trkpt>
<trkpt lat="-27.274439" lon="151.290064">
  <ele>342.94</ele>
  <time>2026-09-01T20:02:47Z</time>
  <course>10.72</course>
  <speed>0.0</speed>
  <fix>3d</fix>
</trkpt>
<trkpt lat="-27.274439" lon="151.290064">
  <ele>343.1</ele>
  <time>2026-09-01T20:02:47Z</time>
  <course>270.0</course>
  <speed>0.0</speed>
  <fix>3d</fix>
</trkpt>
<trkpt lat="-27.274439" lon="151.290064">
  <ele>343.11</ele>
  <time>2026-09-01T20:02:47Z</time>
  <course>10.73</course>
  <speed>0.0</speed>
  <fix>3d</fix>
</trkpt>
<trkpt lat="-27.274439" lon="151.290064">
  <ele>343.1</ele>
  <time>2026-09-01T20:02:47Z</time>
  <course>270.0</course>
  <speed>0.0</speed>
  <fix>3d</fix>
</trkpt>
<trkpt lat="-27.274439" lon="151.290064">
  <ele>343.24</ele>
  <time>2026-09-01T20:02:47Z</time>
  <course>10.73</course>
  <speed>0.0</speed>
  <fix>3d</fix>
</trkpt>
<trkpt lat="-27.274439" lon="151.290064">
  <ele>343.1</ele>
  <time>2026-09-01T20:02:47Z</time>
  <course>270.0</course>
  <speed>0.0</speed>
  <fix>3d</fix>
</trkpt>
<trkpt lat="-27.274439" lon="151.290064">
  <ele>343.18</ele>
  <time>2026-09-01T20:02:47Z</time>
  <course>10.74</course>
  <speed>0.0</speed>
  <fix>3d</fix>
</trkpt>
<trkpt lat="-27.274439" lon="151.290064">
  <ele>343.1</ele>
  <time>2026-09-01T20:02:47Z</time>
  <course>270.0</course>
  <speed>0.0</speed>
  <fix>3d</fix>
</trkpt>
<trkpt lat="-27.274439" lon="151.290064">
  <ele>342.89</ele>
  <time>2026-09-01T20:02:47Z</time>
  <course>10.75</course>
  <speed>0.0</speed>
  <fix>3d</fix>
</trkpt>
<trkpt lat="-27.274439" lon="151.290064">
  <ele>343.1</ele>
  <time>2026-09-01T20:02:47Z</time>
  <course>270.0</course>
  <speed>0.0</speed>
  <fix>3d</fix>
</trkpt>
<trkpt lat="-27.274439" lon="151.290064">
  <ele>343.23</ele>
  <time>2026-09-01T20:02:47Z</time>
  <course>10.75</course>
  <speed>0.0</speed>
  <fix>3d</fix>
</trkpt>
<trkpt lat="-27.274439" lon="151.290064">
  <ele>343.1</ele>
  <time>2026-09-01T20:02:47Z</time>
  <course>270.0</course>
  <speed>0.0</speed>
  <fix>3d</fix>
</trkpt>
<trkpt lat="-27.274439" lon="151.290064">
  <ele>343.23</ele>
  <time>2026-09-01T20:02:47Z</time>
  <course>10.76</course>
  <speed>0.0</speed>
  <fix>3d</fix>
</trkpt>
<trkpt lat="-27.274439" lon="151.290064">
  <ele>343.1</ele>
  <time>2026-09-01T20:02:47Z</time>
  <course>270.0</course>
  <speed>0.0</speed>
  <fix>3d</fix>
</trkpt>
<trkpt lat="-27.274439" lon="151.290064">
  <ele>342.99</ele>
  <time>2026-09-01T20:02:47Z</time>
  <course>10.76</course>
  <speed>0.0</speed>
  <fix>3d</fix>
</trkpt>
<trkpt lat="-27.274439" lon="151.290064">
  <ele>343.1</ele>
  <time>2026-09-01T20:02:47Z</time>
  <course>270.0</course>
  <speed>0.0</speed>
  <fix>3d</fix>
</trkpt>
<trkpt lat="-27.274439" lon="151.290064">
  <ele>343.13</ele>
  <time>2026-09-01T20:02:47Z</time>
  <course>10.76</course>
  <speed>0.0</speed>
  <fix>3d</fix>
</trkpt>
<trkpt lat="-27.274439" lon="151.290064">
  <ele>343.1</ele>
  <time>2026-09-01T20:02:47Z</time>
  <course>270.0</course>
  <speed>0.0</speed>
  <fix>3d</fix>
</trkpt>
<trkpt lat="-27.274439" lon="151.290064">
  <ele>343.07</ele>
  <time>2026-09-01T20:02:47Z</time>
  <course>10.77</course>
  <speed>0.0</speed>
  <fix>3d</fix>
</trkpt>
<trkpt lat="-27.274439" lon="151.290064">
  <ele>343.1</ele>
  <time>2026-09-01T20:02:47Z</time>
  <course>270.0</course>
  <speed>0.0</speed>
  <fix>3d</fix>
</trkpt>
<trkpt lat="-27.274439" lon="151.290064">
  <ele>343.19</ele>
  <time>2026-09-01T20:02:47Z</time>
  <course>10.77</course>
  <speed>0.0</speed>
  <fix>3d</fix>
</trkpt>
<trkpt lat="-27.274439" lon="151.290064">
  <ele>343.1</ele>
  <time>2026-09-01T20:02:47Z</time>
  <course>270.0</course>
  <speed>0.0</speed>
  <fix>3d</fix>
</trkpt>
<trkpt lat="-27.274439" lon="151.290064">
  <ele>342.93</ele>
  <time>2026-09-01T20:02:47Z</time>
  <course>10.77</course>
  <speed>0.0</speed>
  <fix>3d</fix>
</trkpt>
<trkpt lat="-27.274439" lon="151.290064">
  <ele>343.1</ele>
  <time>2026-09-01T20:02:47Z</time>
  <course>270.0</course>
  <speed>0.0</speed>
  <fix>3d</fix>
</trkpt>
<trkpt lat="-27.274439" lon="151.290064">
  <ele>343.19</ele>
  <time>2026-09-01T20:02:47Z</time>
  <course>10.78</course>
  <speed>0.0</speed>
  <fix>3d</fix>
</trkpt>
<trkpt lat="-27.274439" lon="151.290064">
  <ele>343.1</ele>
  <time>2026-09-01T20:02:47Z</time>
  <course>270.0</course>
  <speed>0.0</speed>
  <fix>3d</fix>
</trkpt>
<trkpt lat="-27.274439" lon="151.290064">
  <ele>343.1</ele>
  <time>2026-09-01T20:02:47Z</time>
  <course>10.78</course>
  <speed>0.0</speed>
  <fix>3d</fix>
</trkpt>
<trkpt lat="-27.274439" lon="151.290064">
  <ele>343.1</ele>
  <time>2026-09-01T20:02:47Z</time>
  <course>270.0</course>
  <speed>0.0</speed>
  <fix>3d</fix>
</trkpt>
<trkpt lat="-27.274439" lon="151.290064">
  <ele>343.01</ele>
  <time>2026-09-01T20:02:47Z</time>
  <course>10.78</course>
  <speed>0.0</speed>
  <fix>3d</fix>
</trkpt>
<trkpt lat="-27.274439" lon="151.290064">
  <ele>343.1</ele>
  <time>2026-09-01T20:02:47Z</time>
  <course>270.0</course>
  <speed>0.0</speed>
  <fix>3d</fix>
</trkpt>
<trkpt lat="-27.274439" lon="151.290064">
  <ele>343.11</ele>
  <time>2026-09-01T20:02:47Z</time>
  <course>10.78</course>
  <speed>0.0</speed>
  <fix>3d</fix>
</trkpt>
<trkpt lat="-27.274439" lon="151.290064">
  <ele>343.1</ele>
  <time>2026-09-01T20:02:47Z</time>
  <course>270.0</course>
  <speed>0.0</speed>
  <fix>3d</fix>
</trkpt>
<trkpt lat="-27.274439" lon="151.290064">
  <ele>342.96</ele>
  <time>2026-09-01T20:02:47Z</time>
  <course>10.78</course>
  <speed>0.0</speed>
  <fix>3d</fix>
</trkpt>
<trkpt lat="-27.274439" lon="151.290064">
  <ele>343.1</ele>
  <time>2026-09-01T20:02:47Z</time>
  <course>270.0</course>
  <speed>0.0</speed>
  <fix>3d</fix>
</trkpt>
<trkpt lat="-27.274439" lon="151.290064">
  <ele>343.19</ele>
  <time>2026-09-01T20:02:47Z</time>
  <course>10.79</course>
  <speed>0.0</speed>
  <fix>3d</fix>
</trkpt>
<trkpt lat="-27.274439" lon="151.290064">
  <ele>343.1</ele>
  <time>2026-09-01T20:02:47Z</time>
  <course>270.0</course>
  <speed>0.0</speed>
  <fix>3d</fix>
</trkpt>
<trkpt lat="-27.274439" lon="151.290064">
  <ele>343.0</ele>
  <time>2026-09-01T20:02:47Z</time>
  <course>10.79</course>
  <speed>0.0</speed>
  <fix>3d</fix>
</trkpt>
<trkpt lat="-27.274439" lon="151.290064">
  <ele>343.1</ele>
  <time>2026-09-01T20:02:47Z</time>
  <course>270.0</course>
  <speed>0.0</speed>
  <fix>3d</fix>
</trkpt>
<trkpt lat="-27.274439" lon="151.290064">
  <ele>343.2</ele>
  <time>2026-09-01T20:02:47Z</time>
  <course>10.79</course>
  <speed>0.0</speed>
  <fix>3d</fix>
</trkpt>
<trkpt lat="-27.274439" lon="151.290064">
  <ele>343.1</ele>
  <time>2026-09-01T20:02:47Z</time>
  <course>270.0</course>
  <speed>0.0</speed>
  <fix>3d</fix>
</trkpt>
<trkpt lat="-27.274439" lon="151.290064">
  <ele>343.2</ele>
  <time>2026-09-01T20:02:47Z</time>
  <course>10.79</course>
  <speed>0.0</speed>
  <fix>3d</fix>
</trkpt>
<trkpt lat="-27.274439" lon="151.290064">
  <ele>343.1</ele>
  <time>2026-09-01T20:02:47Z</time>
  <course>270.0</course>
  <speed>0.0</speed>
  <fix>3d</fix>
</trkpt>
<trkpt lat="-27.274439" lon="151.290064">
  <ele>343.13</ele>
  <time>2026-09-01T20:02:47Z</time>
  <course>10.79</course>
  <speed>0.0</speed>
  <fix>3d</fix>
</trkpt>
<trkpt lat="-27.274439" lon="151.290064">
  <ele>343.1</ele>
  <time>2026-09-01T20:02:47Z</time>
  <course>270.0</course>
  <speed>0.0</speed>
  <fix>3d</fix>
</trkpt>
<trkpt lat="-27.274439" lon="151.290064">
  <ele>343.1</ele>
  <time>2026-09-01T20:02:47Z</time>
  <course>10.79</course>
  <speed>0.0</speed>
  <fix>3d</fix>
</trkpt>
<trkpt lat="-27.274439" lon="151.290064">
  <ele>343.1</ele>
  <time>2026-09-01T20:02:47Z</time>
  <course>270.0</course>
  <speed>0.0</speed>
  <fix>3d</fix>
</trkpt>
<trkpt lat="-27.274439" lon="151.290064">
  <ele>343.12</ele>
  <time>2026-09-01T20:02:47Z</time>
  <course>10.79</course>
  <speed>0.0</speed>
  <fix>3d</fix>
</trkpt>
<trkpt lat="-27.274439" lon="151.290064">
  <ele>343.1</ele>
  <time>2026-09-01T20:02:47Z</time>
  <course>270.0</course>
  <speed>0.0</speed>
  <fix>3d</fix>
</trkpt>
<trkpt lat="-27.274439" lon="151.290064">
  <ele>342.94</ele>
  <time>2026-09-01T20:02:47Z</time>
  <course>10.79</course>
  <speed>0.0</speed>
  <fix>3d</fix>
</trkpt>
<trkpt lat="-27.274439" lon="151.290064">
  <ele>343.1</ele>
  <time>2026-09-01T20:02:47Z</time>
  <course>270.0</course>
  <speed>0.0</speed>
  <fix>3d</fix>
</trkpt>
<trkpt lat="-27.274439" lon="151.290064">
  <ele>343.25</ele>
  <time>2026-09-01T20:02:47Z</time>
  <course>10.79</course>
  <speed>0.0</speed>
  <fix>3d</fix>
</trkpt>
<trkpt lat="-27.274439" lon="151.290064">
  <ele>343.1</ele>
  <time>2026-09-01T20:02:47Z</time>
  <course>270.0</course>
  <speed>0.0</speed>
  <fix>3d</fix>
</trkpt>
<trkpt lat="-27.274439" lon="151.290064">
  <ele>342.93</ele>
  <time>2026-09-01T20:02:47Z</time>
  <course>10.79</course>
  <speed>0.0</speed>
  <fix>3d</fix>
</trkpt>
<trkpt lat="-27.274439" lon="151.290064">
  <ele>343.1</ele>
  <time>2026-09-01T20:02:47Z</time>
  <course>270.0</course>
  <speed>0.0</speed>
  <fix>3d</fix>
</trkpt>
<trkpt lat="-27.274439" lon="151.290064">
  <ele>343.08</ele>
  <time>2026-09-01T20:02:47Z</time>
  <course>10.79</course>
  <speed>0.0</speed>
  <fix>3d</fix>
</trkpt>
<trkpt lat="-27.274439" lon="151.290064">
  <ele>343.1</ele>
  <time>2026-09-01T20:02:47Z</time>
  <course>270.0</course>
  <speed>0.0</speed>
  <fix>3d</fix>
</trkpt>
<trkpt lat="-27.274439" lon="151.290064">
  <ele>343.23</ele>
  <time>2026-09-01T20:02:47Z</time>
  <course>10.8</course>
  <speed>0.0</speed>
  <fix>3d</fix>
</trkpt>
<trkpt lat="-27.274439" lon="151.290064">
  <ele>343.1</ele>
  <time>2026-09-01T20:02:47Z</time>
  <course>270.0</course>
  <speed>0.0</speed>
  <fix>3d</fix>
</trkpt>
<trkpt lat="-27.274439" lon="151.290064">
  <ele>343.01</ele>
  <time>2026-09-01T20:02:47Z</time>
  <course>10.8</course>
  <speed>0.0</speed>
  <fix>3d</fix>
</trkpt>
<trkpt lat="-27.274439" lon="151.290064">
  <ele>343.1</ele>
  <time>2026-09-01T20:02:47Z</time>
  <course>270.0</course>
  <speed>0.0</speed>
  <fix>3d</fix>
</trkpt>
<trkpt lat="-27.274439" lon="151.290064">
  <ele>343.1</ele>
  <time>2026-09-01T20:02:47Z</time>
  <course>10.8</course>
  <speed>0.0</speed>
  <fix>3d</fix>
</trkpt>
<trkpt lat="-27.274439" lon="151.290064">
  <ele>343.1</ele>
  <time>2026-09-01T20:02:47Z</time>
  <course>270.0</course>
  <speed>0.0</speed>
  <fix>3d</fix>
</trkpt>
<trkpt lat="-27.274439" lon="151.290064">
  <ele>342.99</ele>
  <time>2026-09-01T20:02:47Z</time>
  <course>10.8</course>
  <speed>0.0</speed>
  <fix>3d</fix>
</trkpt>
<trkpt lat="-27.274439" lon="151.290064">
  <ele>343.1</ele>
  <time>2026-09-01T20:02:47Z</time>
  <course>270.0</course>
  <speed>0.0</speed>
  <fix>3d</fix>
</trkpt>
<trkpt lat="-27.274439" lon="151.290064">
  <ele>342.87</ele>
  <time>2026-09-01T20:02:47Z</time>
  <course>10.8</course>
  <speed>0.0</speed>
  <fix>3d</fix>
</trkpt>
<trkpt lat="-27.274439" lon="151.290064">
  <ele>343.1</ele>
  <time>2026-09-01T20:02:47Z</time>
  <course>270.0</course>
  <speed>0.0</speed>
  <fix>3d</fix>
</trkpt>
<trkpt lat="-27.274439" lon="151.290064">
  <ele>343.1</ele>
  <time>2026-09-01T20:02:47Z</time>
  <course>10.8</course>
  <speed>0.0</speed>
  <fix>3d</fix>
</trkpt>
<trkpt lat="-27.274439" lon="151.290064">
  <ele>343.1</ele>
  <time>2026-09-01T20:02:47Z</time>
  <course>270.0</course>
  <speed>0.0</speed>
  <fix>3d</fix>
</trkpt>
<trkpt lat="-27.274439" lon="151.290064">
  <ele>342.99</ele>
  <time>2026-09-01T20:02:47Z</time>
  <course>10.8</course>
  <speed>0.0</speed>
  <fix>3d</fix>
</trkpt>
<trkpt lat="-27.274439" lon="151.290064">
  <ele>343.1</ele>
  <time>2026-09-01T20:02:47Z</time>
  <course>270.0</course>
  <speed>0.0</speed>
  <fix>3d</fix>
</trkpt>
<trkpt lat="-27.274439" lon="151.290064">
  <ele>342.91</ele>
  <time>2026-09-01T20:02:47Z</time>
  <course>10.8</course>
  <speed>0.0</speed>
  <fix>3d</fix>
</trkpt>
<trkpt lat="-27.274439" lon="151.290064">
  <ele>343.1</ele>
  <time>2026-09-01T20:02:47Z</time>
  <course>270.0</course>
  <speed>0.0</speed>
  <fix>3d</fix>
</trkpt>
<trkpt lat="-27.274439" lon="151.290064">
  <ele>342.9</ele>
  <time>2026-09-01T20:02:47Z</time>
  <course>10.8</course>
  <speed>0.0</speed>
  <fix>3d</fix>
</trkpt>
<trkpt lat="-27.274439" lon="151.290064">
  <ele>343.1</ele>
  <time>2026-09-01T20:02:47Z</time>
  <course>270.0</course>
  <speed>0.0</speed>
  <fix>3d</fix>
</trkpt>
<trkpt lat="-27.274439" lon="151.290064">
  <ele>342.87</ele>
  <time>2026-09-01T20:02:47Z</time>
  <course>10.8</course>
  <speed>0.0</speed>
  <fix>3d</fix>
</trkpt>
<trkpt lat="-27.274439" lon="151.290064">
  <ele>343.1</ele>
  <time>2026-09-01T20:02:47Z</time>
  <course>270.0</course>
  <speed>0.0</speed>
  <fix>3d</fix>
</trkpt>
<trkpt lat="-27.274439" lon="151.290064">
  <ele>343.12</ele>
  <time>2026-09-01T20:02:47Z</time>
  <course>10.8</course>
  <speed>0.0</speed>
  <fix>3d</fix>
</trkpt>
<trkpt lat="-27.274439" lon="151.290064">
  <ele>343.1</ele>
  <time>2026-09-01T20:02:47Z</time>
  <course>270.0</course>
  <speed>0.0</speed>
  <fix>3d</fix>
</trkpt>
<trkpt lat="-27.274439" lon="151.290064">
  <ele>342.99</ele>
  <time>2026-09-01T20:02:47Z</time>
  <course>10.8</course>
  <speed>0.0</speed>
  <fix>3d</fix>
</trkpt>
<trkpt lat="-27.274439" lon="151.290064">
  <ele>343.1</ele>
  <time>2026-09-01T20:02:47Z</time>
  <course>270.0</course>
  <speed>0.0</speed>
  <fix>3d</fix>
</trkpt>
<trkpt lat="-27.274439" lon="151.290064">
  <ele>343.13</ele>
  <time>2026-09-01T20:02:47Z</time>
  <course>10.8</course>
  <speed>0.0</speed>
  <fix>3d</fix>
</trkpt>
<trkpt lat="-27.274439" lon="151.290064">
  <ele>343.1</ele>
  <time>2026-09-01T20:02:47Z</time>
  <course>270.0</course>
  <speed>0.0</speed>
  <fix>3d</fix>
</trkpt>
<trkpt lat="-27.274439" lon="151.290064">
  <ele>343.0</ele>
  <time>2026-09-01T20:02:47Z</time>
  <course>10.8</course>
  <speed>0.0</speed>
  <fix>3d</fix>
</trkpt>
<trkpt lat="-27.274439" lon="151.290064">
  <ele>343.1</ele>
  <time>2026-09-01T20:02:47Z</time>
  <course>270.0</course>
  <speed>0.0</speed>
  <fix>3d</fix>
</trkpt>
<trkpt lat="-27.274439" lon="151.290064">
  <ele>343.17</ele>
  <time>2026-09-01T20:02:47Z</time>
  <course>10.8</course>
  <speed>0.0</speed>
  <fix>3d</fix>
</trkpt>
<trkpt lat="-27.274439" lon="151.290064">
  <ele>343.1</ele>
  <time>2026-09-01T20:02:47Z</time>
  <course>270.0</course>
  <speed>0.0</speed>
  <fix>3d</fix>
</trkpt>
<trkpt lat="-27.274439" lon="151.290064">
  <ele>343.0</ele>
  <time>2026-09-01T20:02:47Z</time>
  <course>10.8</course>
  <speed>0.0</speed>
  <fix>3d</fix>
</trkpt>
<trkpt lat="-27.274439" lon="151.290064">
  <ele>343.1</ele>
  <time>2026-09-01T20:02:47Z</time>
  <course>270.0</course>
  <speed>0.0</speed>
  <fix>3d</fix>
</trkpt>
<trkpt lat="-27.274439" lon="151.290064">
  <ele>342.99</ele>
  <time>2026-09-01T20:02:47Z</time>
  <course>10.8</course>
  <speed>0.0</speed>
  <fix>3d</fix>
</trkpt>
<trkpt lat="-27.274439" lon="151.290064">
  <ele>343.1</ele>
  <time>2026-09-01T20:02:47Z</time>
  <course>270.0</course>
  <speed>0.0</speed>
  <fix>3d</fix>
</trkpt>
<trkpt lat="-27.274439" lon="151.290064">
  <ele>343.17</ele>
  <time>2026-09-01T20:02:47Z</time>
  <course>10.8</course>
  <speed>0.0</speed>
  <fix>3d</fix>
</trkpt>
<trkpt lat="-27.274439" lon="151.290064">
  <ele>343.1</ele>
  <time>2026-09-01T20:02:47Z</time>
  <course>270.0</course>
  <speed>0.0</speed>
  <fix>3d</fix>
</trkpt>
<trkpt lat="-27.274439" lon="151.290064">
  <ele>343.16</ele>
  <time>2026-09-01T20:02:47Z</time>
  <course>10.8</course>
  <speed>0.0</speed>
  <fix>3d</fix>
</trkpt>
<trkpt lat="-27.274439" lon="151.290064">
  <ele>343.1</ele>
  <time>2026-09-01T20:02:47Z</time>
  <course>270.0</course>
  <speed>0.0</speed>
  <fix>3d</fix>
</trkpt>
<trkpt lat="-27.274439" lon="151.290064">
  <ele>342.87</ele>
  <time>2026-09-01T20:02:47Z</time>
  <course>10.8</course>
  <speed>0.0</speed>
  <fix>3d</fix>
</trkpt>
<trkpt lat="-27.274439" lon="151.290064">
  <ele>343.1</ele>
  <time>2026-09-01T20:02:47Z</time>
  <course>270.0</course>
  <speed>0.0</speed>
  <fix>3d</fix>
</trkpt>
<trkpt lat="-27.274439" lon="151.290064">
  <ele>343.19</ele>
  <time>2026-09-01T20:02:47Z</time>
  <course>10.8</course>
  <speed>0.0</speed>
  <fix>3d</fix>
</trkpt>
<trkpt lat="-27.274439" lon="151.290064">
  <ele>343.1</ele>
  <time>2026-09-01T20:02:47Z</time>
  <course>270.0</course>
  <speed>0.0</speed>
  <fix>3d</fix>
</trkpt>
<trkpt lat="-27.274439" lon="151.290064">
  <ele>343.16</ele>
  <time>2026-09-01T20:02:47Z</time>
  <course>10.8</course>
  <speed>0.0</speed>
  <fix>3d</fix>
</trkpt>
<trkpt lat="-27.274439" lon="151.290064">
  <ele>343.1</ele>
  <time>2026-09-01T20:02:47Z</time>
  <course>270.0</course>
  <speed>0.0</speed>
  <fix>3d</fix>
</trkpt>
<trkpt lat="-27.274439" lon="151.290064">
  <ele>343.21</ele>
  <time>2026-09-01T20:02:47Z</time>
  <course>10.8</course>
  <speed>0.0</speed>
  <fix>3d</fix>
</trkpt>
<trkpt lat="-27.274439" lon="151.290064">
  <ele>343.1</ele>
  <time>2026-09-01T20:02:47Z</time>
  <course>270.0</course>
  <speed>0.0</speed>
  <fix>3d</fix>
</trkpt>
<trkpt lat="-27.274439" lon="151.290064">
  <ele>343.22</ele>
  <time>2026-09-01T20:02:47Z</time>
  <course>10.8</course>
  <speed>0.0</speed>
  <fix>3d</fix>
</trkpt>
<trkpt lat="-27.274439" lon="151.290064">
  <ele>343.1</ele>
  <time>2026-09-01T20:02:47Z</time>
  <course>270.0</course>
  <speed>0.0</speed>
  <fix>3d</fix>
</trkpt>
<trkpt lat="-27.274439" lon="151.290064">
  <ele>343.24</ele>
  <time>2026-09-01T20:02:47Z</time>
  <course>10.8</course>
  <speed>0.0</speed>
  <fix>3d</fix>
</trkpt>
<trkpt lat="-27.274439" lon="151.290064">
  <ele>343.1</ele>
  <time>2026-09-01T20:02:47Z</time>
  <course>270.0</course>
  <speed>0.0</speed>
  <fix>3d</fix>
</trkpt>
<trkpt lat="-27.274439" lon="151.290064">
  <ele>343.0</ele>
  <time>2026-09-01T20:02:47Z</time>
  <course>10.8</course>
  <speed>0.0</speed>
  <fix>3d</fix>
</trkpt>
<trkpt lat="-27.274439" lon="151.290064">
  <ele>343.1</ele>
  <time>2026-09-01T20:02:47Z</time>
  <course>270.0</course>
  <speed>0.0</speed>
  <fix>3d</fix>
</trkpt>
<trkpt lat="-27.274439" lon="151.290064">
  <ele>343.1</ele>
  <time>2026-09-01T20:02:47Z</time>
  <course>10.8</course>
  <speed>0.0</speed>
  <fix>3d</fix>
</trkpt>
<trkpt lat="-27.274439" lon="151.290064">
  <ele>343.1</ele>
  <time>2026-09-01T20:02:47Z</time>
  <course>270.0</course>
  <speed>0.0</speed>
  <fix>3d</fix>
</trkpt>
<trkpt lat="-27.274439" lon="151.290064">
  <ele>343.05</ele>
  <time>2026-09-01T20:02:47Z</time>
  <course>10.8</course>
  <speed>0.0</speed>
  <fix>3d</fix>
</trkpt>
<trkpt lat="-27.274439" lon="151.290064">
  <ele>343.1</ele>
  <time>2026-09-01T20:02:47Z</time>
  <course>270.0</course>
  <speed>0.0</speed>
  <fix>3d</fix>
</trkpt>
<trkpt lat="-27.274439" lon="151.290064">
  <ele>342.87</ele>
  <time>2026-09-01T20:02:47Z</time>
  <course>10.8</course>
  <speed>0.0</speed>
  <fix>3d</fix>
</trkpt>
<trkpt lat="-27.274439" lon="151.290064">
  <ele>343.1</ele>
  <time>2026-09-01T20:02:47Z</time>
  <course>270.0</course>
  <speed>0.0</speed>
  <fix>3d</fix>
</trkpt>
<trkpt lat="-27.274439" lon="151.290064">
  <ele>342.92</ele>
  <time>2026-09-01T20:02:47Z</time>
  <course>10.8</course>
  <speed>0.0</speed>
  <fix>3d</fix>
</trkpt>
<trkpt lat="-27.274439" lon="151.290064">
  <ele>343.1</ele>
  <time>2026-09-01T20:02:47Z</time>
  <course>270.0</course>
  <speed>0.0</speed>
  <fix>3d</fix>
</trkpt>
<trkpt lat="-27.274439" lon="151.290064">
  <ele>342.96</ele>
  <time>2026-09-01T20:02:47Z</time>
  <course>10.8</course>
  <speed>0.0</speed>
  <fix>3d</fix>
</trkpt>
<trkpt lat="-27.274439" lon="151.290064">
  <ele>343.1</ele>
  <time>2026-09-01T20:02:47Z</time>
  <course>270.0</course>
  <speed>0.0</speed>
  <fix>3d</fix>
</trkpt>
<trkpt lat="-27.274439" lon="151.290064">
  <ele>343.15</ele>
  <time>2026-09-01T20:02:47Z</time>
  <course>10.8</course>
  <speed>0.0</speed>
  <fix>3d</fix>
</trkpt>
<trkpt lat="-27.274439" lon="151.290064">
  <ele>343.1</ele>
  <time>2026-09-01T20:02:47Z</time>
  <course>270.0</course>
  <speed>0.0</speed>
  <fix>3d</fix>
</trkpt>
<trkpt lat="-27.274439" lon="151.290064">
  <ele>343.16</ele>
  <time>2026-09-01T20:02:47Z</time>
  <course>10.8</course>
  <speed>0.0</speed>
  <fix>3d</fix>
</trkpt>
<trkpt lat="-27.274439" lon="151.290064">
  <ele>343.1</ele>
  <time>2026-09-01T20:02:47Z</time>
  <course>270.0</course>
  <speed>0.0</speed>
  <fix>3d</fix>
</trkpt>
<trkpt lat="-27.274439" lon="151.290064">
  <ele>343.2</ele>
  <time>2026-09-01T20:02:47Z</time>
  <course>10.81</course>
  <speed>0.0</speed>
  <fix>3d</fix>
</trkpt>
<trkpt lat="-27.274439" lon="151.290064">
  <ele>343.1</ele>
  <time>2026-09-01T20:02:47Z</time>
  <course>270.0</course>
  <speed>0.0</speed>
  <fix>3d</fix>
</trkpt>
<trkpt lat="-27.274439" lon="151.290064">
  <ele>343.13</ele>
  <time>2026-09-01T20:02:47Z</time>
  <course>10.82</course>
  <speed>0.0</speed>
  <fix>3d</fix>
</trkpt>
<trkpt lat="-27.274439" lon="151.290064">
  <ele>343.1</ele>
  <time>2026-09-01T20:02:47Z</time>
  <course>270.0</course>
  <speed>0.0</speed>
  <fix>3d</fix>
</trkpt>
<trkpt lat="-27.274439" lon="151.290064">
  <ele>343.09</ele>
  <time>2026-09-01T20:02:47Z</time>
  <course>10.71</course>
  <speed>0.0</speed>
  <fix>3d</fix>
</trkpt>
<trkpt lat="-27.274439" lon="151.290064">
  <ele>343.1</ele>
  <time>2026-09-01T20:02:47Z</time>
  <course>270.0</course>
  <speed>0.0</speed>
  <fix>3d</fix>
</trkpt>
<trkpt lat="-27.274439" lon="151.290064">
  <ele>343.09</ele>
  <time>2026-09-01T20:02:47Z</time>
  <course>10.71</course>
  <speed>0.0</speed>
  <fix>3d</fix>
</trkpt>
<trkpt lat="-27.274439" lon="151.290064">
  <ele>343.1</ele>
  <time>2026-09-01T20:02:47Z</time>
  <course>270.0</course>
  <speed>0.0</speed>
  <fix>3d</fix>
</trkpt>
<trkpt lat="-27.274439" lon="151.290064">
  <ele>343.1</ele>
  <time>2026-09-01T20:02:47Z</time>
  <course>10.71</course>
  <speed>0.0</speed>
  <fix>3d</fix>
</trkpt>
<trkpt lat="-27.274439" lon="151.290064">
  <ele>343.1</ele>
  <time>2026-09-01T20:02:47Z</time>
  <course>270.0</course>
  <speed>0.0</speed>
  <fix>3d</fix>
</trkpt>
<trkpt lat="-27.274439" lon="151.290064">
  <ele>343.1</ele>
  <time>2026-09-01T20:02:47Z</time>
  <course>10.71</course>
  <speed>0.0</speed>
  <fix>3d</fix>
</trkpt>
<trkpt lat="-27.274439" lon="151.290064">
  <ele>343.1</ele>
  <time>2026-09-01T20:02:47Z</time>
  <course>270.0</course>
  <speed>0.0</speed>
  <fix>3d</fix>
</trkpt>
<trkpt lat="-27.274439" lon="151.290064">
  <ele>343.1</ele>
  <time>2026-09-01T20:02:47Z</time>
  <course>10.71</course>
  <speed>0.0</speed>
  <fix>3d</fix>
</trkpt>
<trkpt lat="-27.274439" lon="151.290064">
  <ele>343.1</ele>
  <time>2026-09-01T20:02:47Z</time>
  <course>270.0</course>
  <speed>0.0</speed>
  <fix>3d</fix>
</trkpt>
<trkpt lat="-27.274439" lon="151.290064">
  <ele>343.1</ele>
  <time>2026-09-01T20:02:47Z</time>
  <course>10.71</course>
  <speed>0.0</speed>
  <fix>3d</fix>
</trkpt>
<trkpt lat="-27.274439" lon="151.290064">
  <ele>343.1</ele>
  <time>2026-09-01T20:02:47Z</time>
  <course>270.0</course>
  <speed>0.0</speed>
  <fix>3d</fix>
</trkpt>
<trkpt lat="-27.274439" lon="151.290064">
  <ele>343.1</ele>
  <time>2026-09-01T20:02:47Z</time>
  <course>10.71</course>
  <speed>0.0</speed>
  <fix>3d</fix>
</trkpt>
<trkpt lat="-27.274439" lon="151.290064">
  <ele>343.1</ele>
  <time>2026-09-01T20:02:47Z</time>
  <course>270.0</course>
  <speed>0.0</speed>
  <fix>3d</fix>
</trkpt>
<trkpt lat="-27.274439" lon="151.290064">
  <ele>343.11</ele>
  <time>2026-09-01T20:02:47Z</time>
  <course>10.71</course>
  <speed>0.0</speed>
  <fix>3d</fix>
</trkpt>
<trkpt lat="-27.274439" lon="151.290064">
  <ele>343.1</ele>
  <time>2026-09-01T20:02:47Z</time>
  <course>270.0</course>
  <speed>0.0</speed>
  <fix>3d</fix>
</trkpt>
<trkpt lat="-27.274439" lon="151.290064">
  <ele>343.11</ele>
  <time>2026-09-01T20:02:47Z</time>
  <course>10.71</course>
  <speed>0.0</speed>
  <fix>3d</fix>
</trkpt>
<trkpt lat="-27.274439" lon="151.290064">
  <ele>343.1</ele>
  <time>2026-09-01T20:02:47Z</time>
  <course>270.0</course>
  <speed>0.0</speed>
  <fix>3d</fix>
</trkpt>
<trkpt lat="-27.274439" lon="151.290064">
  <ele>343.11</ele>
  <time>2026-09-01T20:02:47Z</time>
  <course>10.71</course>
  <speed>0.0</speed>
  <fix>3d</fix>
</trkpt>
<trkpt lat="-27.274439" lon="151.290064">
  <ele>343.1</ele>
  <time>2026-09-01T20:02:47Z</time>
  <course>270.0</course>
  <speed>0.0</speed>
  <fix>3d</fix>
</trkpt>
<trkpt lat="-27.274439" lon="151.290064">
  <ele>343.12</ele>
  <time>2026-09-01T20:02:47Z</time>
  <course>10.71</course>
  <speed>0.0</speed>
  <fix>3d</fix>
</trkpt>
<trkpt lat="-27.274439" lon="151.290064">
  <ele>343.1</ele>
  <time>2026-09-01T20:02:47Z</time>
  <course>270.0</course>
  <speed>0.0</speed>
  <fix>3d</fix>
</trkpt>
<trkpt lat="-27.274439" lon="151.290064">
  <ele>343.12</ele>
  <time>2026-09-01T20:02:47Z</time>
  <course>10.71</course>
  <speed>0.0</speed>
  <fix>3d</fix>
</trkpt>
<trkpt lat="-27.274439" lon="151.290064">
  <ele>343.1</ele>
  <time>2026-09-01T20:02:47Z</time>
  <course>270.0</course>
  <speed>0.0</speed>
  <fix>3d</fix>
</trkpt>
<trkpt lat="-27.274439" lon="151.290064">
  <ele>343.1</ele>
  <time>2026-09-01T20:02:47Z</time>
  <course>10.71</course>
  <speed>0.0</speed>
  <fix>3d</fix>
</trkpt>
<trkpt lat="-27.274439" lon="151.290064">
  <ele>343.1</ele>
  <time>2026-09-01T20:02:47Z</time>
  <course>270.0</course>
  <speed>0.0</speed>
  <fix>3d</fix>
</trkpt>
<trkpt lat="-27.274439" lon="151.290064">
  <ele>343.1</ele>
  <time>2026-09-01T20:02:47Z</time>
  <course>10.71</course>
  <speed>0.0</speed>
  <fix>3d</fix>
</trkpt>
<trkpt lat="-27.274439" lon="151.290064">
  <ele>343.1</ele>
  <time>2026-09-01T20:02:47Z</time>
  <course>270.0</course>
  <speed>0.0</speed>
  <fix>3d</fix>
</trkpt>
<trkpt lat="-27.274439" lon="151.290064">
  <ele>343.1</ele>
  <time>2026-09-01T20:02:47Z</time>
  <course>10.71</course>
  <speed>0.0</speed>
  <fix>3d</fix>
</trkpt>
<trkpt lat="-27.274439" lon="151.290064">
  <ele>343.1</ele>
  <time>2026-09-01T20:02:47Z</time>
  <course>270.0</course>
  <speed>0.0</speed>
  <fix>3d</fix>
</trkpt>
<trkpt lat="-27.274439" lon="151.290064">
  <ele>343.09</ele>
  <time>2026-09-01T20:02:47Z</time>
  <course>10.71</course>
  <speed>0.0</speed>
  <fix>3d</fix>
</trkpt>
<trkpt lat="-27.274439" lon="151.290064">
  <ele>343.1</ele>
  <time>2026-09-01T20:02:47Z</time>
  <course>270.0</course>
  <speed>0.0</speed>
  <fix>3d</fix>
</trkpt>
<trkpt lat="-27.274439" lon="151.290064">
  <ele>343.09</ele>
  <time>2026-09-01T20:02:47Z</time>
  <course>10.71</course>
  <speed>0.0</speed>
  <fix>3d</fix>
</trkpt>
<trkpt lat="-27.274439" lon="151.290064">
  <ele>343.1</ele>
  <time>2026-09-01T20:02:47Z</time>
  <course>270.0</course>
  <speed>0.0</speed>
  <fix>3d</fix>
</trkpt>
<trkpt lat="-27.274439" lon="151.290064">
  <ele>343.09</ele>
  <time>2026-09-01T20:02:47Z</time>
  <course>10.71</course>
  <speed>0.0</speed>
  <fix>3d</fix>
</trkpt>
<trkpt lat="-27.274439" lon="151.290064">
  <ele>343.1</ele>
  <time>2026-09-01T20:02:47Z</time>
  <course>270.0</course>
  <speed>0.0</speed>
  <fix>3d</fix>
</trkpt>
<trkpt lat="-27.274439" lon="151.290064">
  <ele>343.1</ele>
  <time>2026-09-01T20:02:47Z</time>
  <course>10.71</course>
  <speed>0.0</speed>
  <fix>3d</fix>
</trkpt>
<trkpt lat="-27.274439" lon="151.290064">
  <ele>343.1</ele>
  <time>2026-09-01T20:02:47Z</time>
  <course>270.0</course>
  <speed>0.0</speed>
  <fix>3d</fix>
</trkpt>
<trkpt lat="-27.274439" lon="151.290064">
  <ele>343.1</ele>
  <time>2026-09-01T20:02:47Z</time>
  <course>10.71</course>
  <speed>0.0</speed>
  <fix>3d</fix>
</trkpt>
<trkpt lat="-27.274439" lon="151.290064">
  <ele>343.1</ele>
  <time>2026-09-01T20:02:47Z</time>
  <course>270.0</course>
  <speed>0.0</speed>
  <fix>3d</fix>
</trkpt>
<trkpt lat="-27.274439" lon="151.290064">
  <ele>343.09</ele>
  <time>2026-09-01T20:02:47Z</time>
  <course>10.71</course>
  <speed>0.0</speed>
  <fix>3d</fix>
</trkpt>
<trkpt lat="-27.274439" lon="151.290064">
  <ele>343.1</ele>
  <time>2026-09-01T20:02:47Z</time>
  <course>270.0</course>
  <speed>0.0</speed>
  <fix>3d</fix>
</trkpt>
<trkpt lat="-27.274439" lon="151.290064">
  <ele>343.09</ele>
  <time>2026-09-01T20:02:47Z</time>
  <course>10.71</course>
  <speed>0.0</speed>
  <fix>3d</fix>
</trkpt>
<trkpt lat="-27.274439" lon="151.290064">
  <ele>343.1</ele>
  <time>2026-09-01T20:02:47Z</time>
  <course>270.0</course>
  <speed>0.0</speed>
  <fix>3d</fix>
</trkpt>
<trkpt lat="-27.274439" lon="151.290064">
  <ele>343.09</ele>
  <time>2026-09-01T20:02:48Z</time>
  <course>10.71</course>
  <speed>0.0</speed>
  <fix>3d</fix>
</trkpt>
<trkpt lat="-27.274439" lon="151.290064">
  <ele>343.1</ele>
  <time>2026-09-01T20:02:48Z</time>
  <course>270.0</course>
  <speed>0.0</speed>
  <fix>3d</fix>
</trkpt>
<trkpt lat="-27.274439" lon="151.290064">
  <ele>343.09</ele>
  <time>2026-09-01T20:02:48Z</time>
  <course>10.71</course>
  <speed>0.0</speed>
  <fix>3d</fix>
</trkpt>
<trkpt lat="-27.274439" lon="151.290064">
  <ele>343.1</ele>
  <time>2026-09-01T20:02:48Z</time>
  <course>270.0</course>
  <speed>0.0</speed>
  <fix>3d</fix>
</trkpt>
<trkpt lat="-27.274439" lon="151.290064">
  <ele>343.09</ele>
  <time>2026-09-01T20:02:48Z</time>
  <course>10.71</course>
  <speed>0.0</speed>
  <fix>3d</fix>
</trkpt>
<trkpt lat="-27.274439" lon="151.290064">
  <ele>343.1</ele>
  <time>2026-09-01T20:02:48Z</time>
  <course>270.0</course>
  <speed>0.0</speed>
  <fix>3d</fix>
</trkpt>
<trkpt lat="-27.274439" lon="151.290064">
  <ele>343.09</ele>
  <time>2026-09-01T20:02:48Z</time>
  <course>10.71</course>
  <speed>0.0</speed>
  <fix>3d</fix>
</trkpt>
<trkpt lat="-27.274439" lon="151.290064">
  <ele>343.1</ele>
  <time>2026-09-01T20:02:48Z</time>
  <course>270.0</course>
  <speed>0.0</speed>
  <fix>3d</fix>
</trkpt>
<trkpt lat="-27.274439" lon="151.290064">
  <ele>343.09</ele>
  <time>2026-09-01T20:02:48Z</time>
  <course>10.71</course>
  <speed>0.0</speed>
  <fix>3d</fix>
</trkpt>
<trkpt lat="-27.274439" lon="151.290064">
  <ele>343.1</ele>
  <time>2026-09-01T20:02:48Z</time>
  <course>270.0</course>
  <speed>0.0</speed>
  <fix>3d</fix>
</trkpt>
<trkpt lat="-27.274439" lon="151.290064">
  <ele>343.09</ele>
  <time>2026-09-01T20:02:48Z</time>
  <course>10.71</course>
  <speed>0.0</speed>
  <fix>3d</fix>
</trkpt>
<trkpt lat="-27.274439" lon="151.290064">
  <ele>343.1</ele>
  <time>2026-09-01T20:02:48Z</time>
  <course>270.0</course>
  <speed>0.0</speed>
  <fix>3d</fix>
</trkpt>
<trkpt lat="-27.274439" lon="151.290064">
  <ele>343.1</ele>
  <time>2026-09-01T20:02:48Z</time>
  <course>10.71</course>
  <speed>0.0</speed>
  <fix>3d</fix>
</trkpt>
<trkpt lat="-27.274439" lon="151.290064">
  <ele>343.1</ele>
  <time>2026-09-01T20:02:48Z</time>
  <course>270.0</course>
  <speed>0.0</speed>
  <fix>3d</fix>
</trkpt>
<trkpt lat="-27.274439" lon="151.290064">
  <ele>343.09</ele>
  <time>2026-09-01T20:02:48Z</time>
  <course>10.71</course>
  <speed>0.0</speed>
  <fix>3d</fix>
</trkpt>
<trkpt lat="-27.274439" lon="151.290064">
  <ele>343.1</ele>
  <time>2026-09-01T20:02:48Z</time>
  <course>270.0</course>
  <speed>0.0</speed>
  <fix>3d</fix>
</trkpt>
<trkpt lat="-27.274439" lon="151.290064">
  <ele>343.09</ele>
  <time>2026-09-01T20:02:48Z</time>
  <course>10.71</course>
  <speed>0.0</speed>
  <fix>3d</fix>
</trkpt>
<trkpt lat="-27.274439" lon="151.290064">
  <ele>343.1</ele>
  <time>2026-09-01T20:02:48Z</time>
  <course>270.0</course>
  <speed>0.0</speed>
  <fix>3d</fix>
</trkpt>
<trkpt lat="-27.274439" lon="151.290064">
  <ele>343.09</ele>
  <time>2026-09-01T20:02:48Z</time>
  <course>10.71</course>
  <speed>0.0</speed>
  <fix>3d</fix>
</trkpt>
<trkpt lat="-27.274439" lon="151.290064">
  <ele>343.1</ele>
  <time>2026-09-01T20:02:48Z</time>
  <course>270.0</course>
  <speed>0.0</speed>
  <fix>3d</fix>
</trkpt>
<trkpt lat="-27.274439" lon="151.290064">
  <ele>343.09</ele>
  <time>2026-09-01T20:02:48Z</time>
  <course>10.71</course>
  <speed>0.0</speed>
  <fix>3d</fix>
</trkpt>
<trkpt lat="-27.274439" lon="151.290064">
  <ele>343.1</ele>
  <time>2026-09-01T20:02:48Z</time>
  <course>270.0</course>
  <speed>0.0</speed>
  <fix>3d</fix>
</trkpt>
<trkpt lat="-27.274439" lon="151.290064">
  <ele>343.09</ele>
  <time>2026-09-01T20:02:48Z</time>
  <course>10.71</course>
  <speed>0.0</speed>
  <fix>3d</fix>
</trkpt>
<trkpt lat="-27.274439" lon="151.290064">
  <ele>343.1</ele>
  <time>2026-09-01T20:02:48Z</time>
  <course>270.0</course>
  <speed>0.0</speed>
  <fix>3d</fix>
</trkpt>
<trkpt lat="-27.274439" lon="151.290064">
  <ele>343.09</ele>
  <time>2026-09-01T20:02:48Z</time>
  <course>10.71</course>
  <speed>0.0</speed>
  <fix>3d</fix>
</trkpt>
<trkpt lat="-27.274439" lon="151.290064">
  <ele>343.1</ele>
  <time>2026-09-01T20:02:48Z</time>
  <course>270.0</course>
  <speed>0.0</speed>
  <fix>3d</fix>
</trkpt>
<trkpt lat="-27.274439" lon="151.290064">
  <ele>343.09</ele>
  <time>2026-09-01T20:02:48Z</time>
  <course>10.71</course>
  <speed>0.0</speed>
  <fix>3d</fix>
</trkpt>
<trkpt lat="-27.274439" lon="151.290064">
  <ele>343.1</ele>
  <time>2026-09-01T20:02:48Z</time>
  <course>270.0</course>
  <speed>0.0</speed>
  <fix>3d</fix>
</trkpt>
<trkpt lat="-27.274439" lon="151.290064">
  <ele>343.09</ele>
  <time>2026-09-01T20:02:48Z</time>
  <course>10.71</course>
  <speed>0.0</speed>
  <fix>3d</fix>
</trkpt>
<trkpt lat="-27.274439" lon="151.290064">
  <ele>343.1</ele>
  <time>2026-09-01T20:02:48Z</time>
  <course>270.0</course>
  <speed>0.0</speed>
  <fix>3d</fix>
</trkpt>
<trkpt lat="-27.274439" lon="151.290064">
  <ele>343.08</ele>
  <time>2026-09-01T20:02:48Z</time>
  <course>10.71</course>
  <speed>0.0</speed>
  <fix>3d</fix>
</trkpt>
<trkpt lat="-27.274439" lon="151.290064">
  <ele>343.1</ele>
  <time>2026-09-01T20:02:48Z</time>
  <course>270.0</course>
  <speed>0.0</speed>
  <fix>3d</fix>
</trkpt>
<trkpt lat="-27.274439" lon="151.290064">
  <ele>343.08</ele>
  <time>2026-09-01T20:02:48Z</time>
  <course>10.71</course>
  <speed>0.0</speed>
  <fix>3d</fix>
</trkpt>
<trkpt lat="-27.274439" lon="151.290064">
  <ele>343.1</ele>
  <time>2026-09-01T20:02:48Z</time>
  <course>116.25</course>
  <speed>0.0</speed>
  <fix>3d</fix>
</trkpt>
<trkpt lat="-27.274439" lon="151.290064">
  <ele>343.08</ele>
  <time>2026-09-01T20:02:48Z</time>
  <course>10.71</course>
  <speed>0.0</speed>
  <fix>3d</fix>
</trkpt>
<trkpt lat="-27.274439" lon="151.290064">
  <ele>343.1</ele>
  <time>2026-09-01T20:02:48Z</time>
  <course>116.25</course>
  <speed>0.0</speed>
  <fix>3d</fix>
</trkpt>
<trkpt lat="-27.274439" lon="151.290064">
  <ele>343.08</ele>
  <time>2026-09-01T20:02:48Z</time>
  <course>10.71</course>
  <speed>0.0</speed>
  <fix>3d</fix>
</trkpt>
<trkpt lat="-27.274439" lon="151.290064">
  <ele>343.08</ele>
  <time>2026-09-01T20:02:48Z</time>
  <course>10.71</course>
  <speed>0.0</speed>
  <fix>3d</fix>
</trkpt>
<trkpt lat="-27.274439" lon="151.290064">
  <ele>343.1</ele>
  <time>2026-09-01T20:02:48Z</time>
  <course>124.42</course>
  <speed>0.0</speed>
  <fix>3d</fix>
</trkpt>
<trkpt lat="-27.274439" lon="151.290064">
  <ele>343.08</ele>
  <time>2026-09-01T20:02:48Z</time>
  <course>10.71</course>
  <speed>0.0</speed>
  <fix>3d</fix>
</trkpt>
<trkpt lat="-27.274439" lon="151.290064">
  <ele>343.08</ele>
  <time>2026-09-01T20:02:48Z</time>
  <course>10.71</course>
  <speed>0.0</speed>
  <fix>3d</fix>
</trkpt>
<trkpt lat="-27.274439" lon="151.290064">
  <ele>343.1</ele>
  <time>2026-09-01T20:02:48Z</time>
  <course>124.42</course>
  <speed>0.0</speed>
  <fix>3d</fix>
</trkpt>
<trkpt lat="-27.274439" lon="151.290064">
  <ele>343.08</ele>
  <time>2026-09-01T20:02:48Z</time>
  <course>10.71</course>
  <speed>0.0</speed>
  <fix>3d</fix>
</trkpt>
<trkpt lat="-27.274439" lon="151.290064">
  <ele>343.08</ele>
  <time>2026-09-01T20:02:48Z</time>
  <course>10.71</course>
  <speed>0.0</speed>
  <fix>3d</fix>
</trkpt>
<trkpt lat="-27.274439" lon="151.290064">
  <ele>343.1</ele>
  <time>2026-09-01T20:02:48Z</time>
  <course>118.41</course>
  <speed>0.0</speed>
  <fix>3d</fix>
</trkpt>
<trkpt lat="-27.274439" lon="151.290064">
  <ele>343.08</ele>
  <time>2026-09-01T20:02:48Z</time>
  <course>10.71</course>
  <speed>0.0</speed>
  <fix>3d</fix>
</trkpt>
<trkpt lat="-27.274439" lon="151.290064">
  <ele>343.08</ele>
  <time>2026-09-01T20:02:48Z</time>
  <course>10.71</course>
  <speed>0.0</speed>
  <fix>3d</fix>
</trkpt>
<trkpt lat="-27.274439" lon="151.290064">
  <ele>343.1</ele>
  <time>2026-09-01T20:02:48Z</time>
  <course>118.41</course>
  <speed>0.0</speed>
  <fix>3d</fix>
</trkpt>
<trkpt lat="-27.274439" lon="151.290064">
  <ele>343.08</ele>
  <time>2026-09-01T20:02:48Z</time>
  <course>10.71</course>
  <speed>0.0</speed>
  <fix>3d</fix>
</trkpt>
<trkpt lat="-27.274439" lon="151.290064">
  <ele>343.08</ele>
  <time>2026-09-01T20:02:48Z</time>
  <course>10.71</course>
  <speed>0.0</speed>
  <fix>3d</fix>
</trkpt>
<trkpt lat="-27.274439" lon="151.290064">
  <ele>343.1</ele>
  <time>2026-09-01T20:02:48Z</time>
  <course>306.83</course>
  <speed>0.0</speed>
  <fix>3d</fix>
</trkpt>
<trkpt lat="-27.274439" lon="151.290064">
  <ele>343.08</ele>
  <time>2026-09-01T20:02:48Z</time>
  <course>10.71</course>
  <speed>0.0</speed>
  <fix>3d</fix>
</trkpt>
<trkpt lat="-27.274439" lon="151.290064">
  <ele>343.07</ele>
  <time>2026-09-01T20:02:48Z</time>
  <course>10.71</course>
  <speed>0.0</speed>
  <fix>3d</fix>
</trkpt>
<trkpt lat="-27.274439" lon="151.290064">
  <ele>343.1</ele>
  <time>2026-09-01T20:02:48Z</time>
  <course>306.83</course>
  <speed>0.0</speed>
  <fix>3d</fix>
</trkpt>
<trkpt lat="-27.274439" lon="151.290064">
  <ele>343.07</ele>
  <time>2026-09-01T20:02:48Z</time>
  <course>10.71</course>
  <speed>0.0</speed>
  <fix>3d</fix>
</trkpt>
<trkpt lat="-27.274439" lon="151.290064">
  <ele>343.07</ele>
  <time>2026-09-01T20:02:48Z</time>
  <course>10.71</course>
  <speed>0.0</speed>
  <fix>3d</fix>
</trkpt>
<trkpt lat="-27.274439" lon="151.290064">
  <ele>343.1</ele>
  <time>2026-09-01T20:02:48Z</time>
  <course>294.3</course>
  <speed>0.0</speed>
  <fix>3d</fix>
</trkpt>
<trkpt lat="-27.274439" lon="151.290064">
  <ele>343.07</ele>
  <time>2026-09-01T20:02:48Z</time>
  <course>10.71</course>
  <speed>0.0</speed>
  <fix>3d</fix>
</trkpt>
<trkpt lat="-27.274439" lon="151.290064">
  <ele>343.07</ele>
  <time>2026-09-01T20:02:48Z</time>
  <course>10.71</course>
  <speed>0.0</speed>
  <fix>3d</fix>
</trkpt>
<trkpt lat="-27.274439" lon="151.290064">
  <ele>343.1</ele>
  <time>2026-09-01T20:02:48Z</time>
  <course>294.3</course>
  <speed>0.0</speed>
  <fix>3d</fix>
</trkpt>
<trkpt lat="-27.274439" lon="151.290064">
  <ele>343.07</ele>
  <time>2026-09-01T20:02:48Z</time>
  <course>10.71</course>
  <speed>0.0</speed>
  <fix>3d</fix>
</trkpt>
<trkpt lat="-27.274439" lon="151.290064">
  <ele>343.09</ele>
  <time>2026-09-01T20:02:48Z</time>
  <course>10.71</course>
  <speed>0.0</speed>
  <fix>3d</fix>
</trkpt>
<trkpt lat="-27.274439" lon="151.290064">
  <ele>343.1</ele>
  <time>2026-09-01T20:02:48Z</time>
  <course>7.23</course>
  <speed>0.0</speed>
  <fix>3d</fix>
</trkpt>
<trkpt lat="-27.274439" lon="151.290064">
  <ele>343.09</ele>
  <time>2026-09-01T20:02:48Z</time>
  <course>10.71</course>
  <speed>0.0</speed>
  <fix>3d</fix>
</trkpt>
<trkpt lat="-27.274439" lon="151.290064">
  <ele>343.11</ele>
  <time>2026-09-01T20:02:48Z</time>
  <course>10.71</course>
  <speed>0.0</speed>
  <fix>3d</fix>
</trkpt>
<trkpt lat="-27.274439" lon="151.290064">
  <ele>343.1</ele>
  <time>2026-09-01T20:02:48Z</time>
  <course>7.23</course>
  <speed>0.0</speed>
  <fix>3d</fix>
</trkpt>
<trkpt lat="-27.274439" lon="151.290064">
  <ele>343.12</ele>
  <time>2026-09-01T20:02:48Z</time>
  <course>10.71</course>
  <speed>0.0</speed>
  <fix>3d</fix>
</trkpt>
<trkpt lat="-27.274439" lon="151.290064">
  <ele>343.15</ele>
  <time>2026-09-01T20:02:48Z</time>
  <course>10.71</course>
  <speed>0.0</speed>
  <fix>3d</fix>
</trkpt>
<trkpt lat="-27.274439" lon="151.290064">
  <ele>343.12</ele>
  <time>2026-09-01T20:02:48Z</time>
  <course>7.93</course>
  <speed>0.0</speed>
  <fix>3d</fix>
</trkpt>
<trkpt lat="-27.274439" lon="151.290064">
  <ele>343.16</ele>
  <time>2026-09-01T20:02:48Z</time>
  <course>10.71</course>
  <speed>0.0</speed>
  <fix>3d</fix>
</trkpt>
<trkpt lat="-27.274439" lon="151.290064">
  <ele>343.21</ele>
  <time>2026-09-01T20:02:48Z</time>
  <course>10.71</course>
  <speed>0.0</speed>
  <fix>3d</fix>
</trkpt>
<trkpt lat="-27.274439" lon="151.290064">
  <ele>343.12</ele>
  <time>2026-09-01T20:02:48Z</time>
  <course>7.93</course>
  <speed>0.0</speed>
  <fix>3d</fix>
</trkpt>
<trkpt lat="-27.274439" lon="151.290064">
  <ele>343.21</ele>
  <time>2026-09-01T20:02:48Z</time>
  <course>10.71</course>
  <speed>0.0</speed>
  <fix>3d</fix>
</trkpt>
<trkpt lat="-27.274439" lon="151.290064">
  <ele>343.31</ele>
  <time>2026-09-01T20:02:48Z</time>
  <course>10.71</course>
  <speed>0.03</speed>
  <fix>3d</fix>
</trkpt>
<trkpt lat="-27.274439" lon="151.290064">
  <ele>343.19</ele>
  <time>2026-09-01T20:02:48Z</time>
  <course>7.25</course>
  <speed>0.0</speed>
  <fix>3d</fix>
</trkpt>
<trkpt lat="-27.274439" lon="151.290064">
  <ele>343.32</ele>
  <time>2026-09-01T20:02:48Z</time>
  <course>10.71</course>
  <speed>0.03</speed>
  <fix>3d</fix>
</trkpt>
<trkpt lat="-27.274439" lon="151.290064">
  <ele>343.49</ele>
  <time>2026-09-01T20:02:48Z</time>
  <course>10.71</course>
  <speed>0.06082762530298219</speed>
  <fix>3d</fix>
</trkpt>
<trkpt lat="-27.274439" lon="151.290064">
  <ele>343.19</ele>
  <time>2026-09-01T20:02:48Z</time>
  <course>7.25</course>
  <speed>0.0</speed>
  <fix>3d</fix>
</trkpt>
<trkpt lat="-27.274439" lon="151.290064">
  <ele>343.54</ele>
  <time>2026-09-01T20:02:48Z</time>
  <course>10.71</course>
  <speed>0.07071067811865475</speed>
  <fix>3d</fix>
</trkpt>
<trkpt lat="-27.2744389" lon="151.290064">
  <ele>343.7</ele>
  <time>2026-09-01T20:02:48Z</time>
  <course>10.71</course>
  <speed>0.09055385138137417</speed>
  <fix>3d</fix>
</trkpt>
<trkpt lat="-27.274439" lon="151.290064">
  <ele>343.38</ele>
  <time>2026-09-01T20:02:48Z</time>
  <course>6.88</course>
  <speed>0.03</speed>
  <fix>3d</fix>
</trkpt>
<trkpt lat="-27.2744389" lon="151.290064">
  <ele>343.77</ele>
  <time>2026-09-01T20:02:48Z</time>
  <course>10.71</course>
  <speed>0.1019803902718557</speed>
  <fix>3d</fix>
</trkpt>
<trkpt lat="-27.2744388" lon="151.290064">
  <ele>343.93</ele>
  <time>2026-09-01T20:02:48Z</time>
  <course>10.71</course>
  <speed>0.13152946437965907</speed>
  <fix>3d</fix>
</trkpt>
<trkpt lat="-27.274439" lon="151.290064">
  <ele>343.38</ele>
  <time>2026-09-01T20:02:48Z</time>
  <course>6.88</course>
  <speed>0.03</speed>
  <fix>3d</fix>
</trkpt>
<trkpt lat="-27.2744388" lon="151.290064">
  <ele>343.99</ele>
  <time>2026-09-01T20:02:48Z</time>
  <course>10.71</course>
  <speed>0.13152946437965907</speed>
  <fix>3d</fix>
</trkpt>
<trkpt lat="-27.2744387" lon="151.290064">
  <ele>344.16</ele>
  <time>2026-09-01T20:02:48Z</time>
  <course>10.71</course>
  <speed>0.15132745950421556</speed>
  <fix>3d</fix>
</trkpt>
<trkpt lat="-27.2744389" lon="151.290064">
  <ele>343.74</ele>
  <time>2026-09-01T20:02:48Z</time>
  <course>6.93</course>
  <speed>0.09</speed>
  <fix>3d</fix>
</trkpt>
<trkpt lat="-27.2744386" lon="151.290064">
  <ele>344.22</ele>
  <time>2026-09-01T20:02:48Z</time>
  <course>10.7</course>
  <speed>0.16124515496597097</speed>
  <fix>3d</fix>
</trkpt>
<trkpt lat="-27.2744385" lon="151.290064">
  <ele>344.38</ele>
  <time>2026-09-01T20:02:48Z</time>
  <course>10.7</course>
  <speed>0.1824828759089466</speed>
  <fix>3d</fix>
</trkpt>
<trkpt lat="-27.2744389" lon="151.290064">
  <ele>343.74</ele>
  <time>2026-09-01T20:02:48Z</time>
  <course>6.93</course>
  <speed>0.09</speed>
  <fix>3d</fix>
</trkpt>
<trkpt lat="-27.2744385" lon="151.2900641">
  <ele>344.45</ele>
  <time>2026-09-01T20:02:48Z</time>
  <course>10.7</course>
  <speed>0.1824828759089466</speed>
  <fix>3d</fix>
</trkpt>
<trkpt lat="-27.2744384" lon="151.2900641">
  <ele>344.61</ele>
  <time>2026-09-01T20:02:48Z</time>
  <course>10.69</course>
  <speed>0.20223748416156684</speed>
  <fix>3d</fix>
</trkpt>
<trkpt lat="-27.2744387" lon="151.290064">
  <ele>344.2</ele>
  <time>2026-09-01T20:02:48Z</time>
  <course>7.01</course>
  <speed>0.16</speed>
  <fix>3d</fix>
</trkpt>
<trkpt lat="-27.2744383" lon="151.2900641">
  <ele>344.68</ele>
  <time>2026-09-01T20:02:48Z</time>
  <course>10.69</course>
  <speed>0.20223748416156684</speed>
  <fix>3d</fix>
</trkpt>
<trkpt lat="-27.2744382" lon="151.2900641">
  <ele>344.84</ele>
  <time>2026-09-01T20:02:48Z</time>
  <course>10.69</course>
  <speed>0.2220360331117452</speed>
  <fix>3d</fix>
</trkpt>
<trkpt lat="-27.2744387" lon="151.290064">
  <ele>344.2</ele>
  <time>2026-09-01T20:02:48Z</time>
  <course>7.01</course>
  <speed>0.16</speed>
  <fix>3d</fix>
</trkpt>
<trkpt lat="-27.2744381" lon="151.2900641">
  <ele>344.9</ele>
  <time>2026-09-01T20:02:48Z</time>
  <course>10.68</course>
  <speed>0.2220360331117452</speed>
  <fix>3d</fix>
</trkpt>
<trkpt lat="-27.274438" lon="151.2900641">
  <ele>345.07</ele>
  <time>2026-09-01T20:02:48Z</time>
  <course>10.66</course>
  <speed>0.23194827009486402</speed>
  <fix>3d</fix>
</trkpt>
<trkpt lat="-27.2744384" lon="151.290064">
  <ele>344.66</ele>
  <time>2026-09-01T20:02:48Z</time>
  <course>7.08</course>
  <speed>0.2</speed>
  <fix>3d</fix>
</trkpt>
<trkpt lat="-27.2744379" lon="151.2900641">
  <ele>345.13</ele>
  <time>2026-09-01T20:02:48Z</time>
  <course>10.66</course>
  <speed>0.23194827009486402</speed>
  <fix>3d</fix>
</trkpt>
<trkpt lat="-27.2744378" lon="151.2900642">
  <ele>345.29</ele>
  <time>2026-09-01T20:02:48Z</time>
  <course>10.66</course>
  <speed>0.24331050121192876</speed>
  <fix>3d</fix>
</trkpt>
<trkpt lat="-27.2744384" lon="151.290064">
  <ele>344.66</ele>
  <time>2026-09-01T20:02:48Z</time>
  <course>7.08</course>
  <speed>0.2</speed>
  <fix>3d</fix>
</trkpt>
<trkpt lat="-27.2744378" lon="151.2900642">
  <ele>345.3</ele>
  <time>2026-09-01T20:02:48Z</time>
  <course>10.66</course>
  <speed>0.24331050121192876</speed>
  <fix>3d</fix>
</trkpt>
<trkpt lat="-27.2744376" lon="151.2900642">
  <ele>345.51</ele>
  <time>2026-09-01T20:02:48Z</time>
  <course>10.66</course>
  <speed>0.24331050121192876</speed>
  <fix>3d</fix>
</trkpt>
<trkpt lat="-27.2744379" lon="151.2900641">
  <ele>345.12</ele>
  <time>2026-09-01T20:02:48Z</time>
  <course>7.16</course>
  <speed>0.24</speed>
  <fix>3d</fix>
</trkpt>
<trkpt lat="-27.2744376" lon="151.2900642">
  <ele>345.52</ele>
  <time>2026-09-01T20:02:48Z</time>
  <course>10.66</course>
  <speed>0.24331050121192876</speed>
  <fix>3d</fix>
</trkpt>
<trkpt lat="-27.2744373" lon="151.2900642">
  <ele>345.72</ele>
  <time>2026-09-01T20:02:48Z</time>
  <course>10.66</course>
  <speed>0.24331050121192876</speed>
  <fix>3d</fix>
</trkpt>
<trkpt lat="-27.2744379" lon="151.2900641">
  <ele>345.12</ele>
  <time>2026-09-01T20:02:48Z</time>
  <course>7.16</course>
  <speed>0.24</speed>
  <fix>3d</fix>
</trkpt>
<trkpt lat="-27.2744373" lon="151.2900642">
  <ele>345.73</ele>
  <time>2026-09-01T20:02:48Z</time>
  <course>10.66</course>
  <speed>0.24331050121192876</speed>
  <fix>3d</fix>
</trkpt>
<trkpt lat="-27.2744371" lon="151.2900642">
  <ele>345.92</ele>
  <time>2026-09-01T20:02:48Z</time>
  <course>10.65</course>
  <speed>0.24186773244895649</speed>
  <fix>3d</fix>
</trkpt>
<trkpt lat="-27.2744375" lon="151.2900641">
  <ele>345.56</ele>
  <time>2026-09-01T20:02:48Z</time>
  <course>7.26</course>
  <speed>0.25</speed>
  <fix>3d</fix>
</trkpt>
<trkpt lat="-27.2744371" lon="151.2900642">
  <ele>345.97</ele>
  <time>2026-09-01T20:02:48Z</time>
  <course>10.65</course>
  <speed>0.24186773244895649</speed>
  <fix>3d</fix>
</trkpt>
<trkpt lat="-27.2744369" lon="151.2900643">
  <ele>346.1</ele>
  <time>2026-09-01T20:02:48Z</time>
  <course>10.66</course>
  <speed>0.23194827009486402</speed>
  <fix>3d</fix>
</trkpt>
<trkpt lat="-27.2744375" lon="151.2900641">
  <ele>345.56</ele>
  <time>2026-09-01T20:02:48Z</time>
  <course>7.26</course>
  <speed>0.25</speed>
  <fix>3d</fix>
</trkpt>
<trkpt lat="-27.2744369" lon="151.2900643">
  <ele>346.14</ele>
  <time>2026-09-01T20:02:48Z</time>
  <course>10.66</course>
  <speed>0.23194827009486402</speed>
  <fix>3d</fix>
</trkpt>
<trkpt lat="-27.2744367" lon="151.2900643">
  <ele>346.28</ele>
  <time>2026-09-01T20:02:48Z</time>
  <course>10.66</course>
  <speed>0.2220360331117452</speed>
  <fix>3d</fix>
</trkpt>
<trkpt lat="-27.2744371" lon="151.2900642">
  <ele>345.95</ele>
  <time>2026-09-01T20:02:48Z</time>
  <course>7.43</course>
  <speed>0.25</speed>
  <fix>3d</fix>
</trkpt>
<trkpt lat="-27.2744366" lon="151.2900643">
  <ele>346.33</ele>
  <time>2026-09-01T20:02:48Z</time>
  <course>10.66</course>
  <speed>0.2220360331117452</speed>
  <fix>3d</fix>
</trkpt>
<trkpt lat="-27.2744365" lon="151.2900643">
  <ele>346.45</ele>
  <time>2026-09-01T20:02:48Z</time>
  <course>10.66</course>
  <speed>0.20223748416156684</speed>
  <fix>3d</fix>
</trkpt>
<trkpt lat="-27.2744371" lon="151.2900642">
  <ele>345.95</ele>
  <time>2026-09-01T20:02:48Z</time>
  <course>7.43</course>
  <speed>0.25</speed>
  <fix>3d</fix>
</trkpt>
<trkpt lat="-27.2744365" lon="151.2900643">
  <ele>346.49</ele>
  <time>2026-09-01T20:02:48Z</time>
  <course>10.66</course>
  <speed>0.20223748416156684</speed>
  <fix>3d</fix>
</trkpt>
<trkpt lat="-27.2744363" lon="151.2900643">
  <ele>346.61</ele>
  <time>2026-09-01T20:02:48Z</time>
  <course>10.66</course>
  <speed>0.191049731745428</speed>
  <fix>3d</fix>
</trkpt>
<trkpt lat="-27.2744367" lon="151.2900642">
  <ele>346.31</ele>
  <time>2026-09-01T20:02:48Z</time>
  <course>7.69</course>
  <speed>0.23</speed>
  <fix>3d</fix>
</trkpt>
<trkpt lat="-27.2744363" lon="151.2900643">
  <ele>346.65</ele>
  <time>2026-09-01T20:02:48Z</time>
  <course>10.66</course>
  <speed>0.18110770276274835</speed>
  <fix>3d</fix>
</trkpt>
<trkpt lat="-27.2744362" lon="151.2900643">
  <ele>346.76</ele>
  <time>2026-09-01T20:02:48Z</time>
  <course>10.67</course>
  <speed>0.1711724276862369</speed>
  <fix>3d</fix>
</trkpt>
<trkpt lat="-27.2744367" lon="151.2900642">
  <ele>346.31</ele>
  <time>2026-09-01T20:02:48Z</time>
  <course>7.69</course>
  <speed>0.23</speed>
  <fix>3d</fix>
</trkpt>
<trkpt lat="-27.2744361" lon="151.2900643">
  <ele>346.79</ele>
  <time>2026-09-01T20:02:48Z</time>
  <course>10.67</course>
  <speed>0.16124515496597097</speed>
  <fix>3d</fix>
</trkpt>
<trkpt lat="-27.274436" lon="151.2900644">
  <ele>346.9</ele>
  <time>2026-09-01T20:02:48Z</time>
  <course>10.67</course>
  <speed>0.15132745950421556</speed>
  <fix>3d</fix>
</trkpt>
<trkpt lat="-27.2744363" lon="151.2900643">
  <ele>346.64</ele>
  <time>2026-09-01T20:02:48Z</time>
  <course>8.12</course>
  <speed>0.2</speed>
  <fix>3d</fix>
</trkpt>
<trkpt lat="-27.274436" lon="151.2900644">
  <ele>346.94</ele>
  <time>2026-09-01T20:02:48Z</time>
  <course>10.68</course>
  <speed>0.1414213562373095</speed>
  <fix>3d</fix>
</trkpt>
<trkpt lat="-27.2744359" lon="151.2900644">
  <ele>347.04</ele>
  <time>2026-09-01T20:02:48Z</time>
  <course>10.68</course>
  <speed>0.130384048104053</speed>
  <fix>3d</fix>
</trkpt>
<trkpt lat="-27.2744363" lon="151.2900643">
  <ele>346.64</ele>
  <time>2026-09-01T20:02:48Z</time>
  <course>8.12</course>
  <speed>0.2</speed>
  <fix>3d</fix>
</trkpt>
<trkpt lat="-27.2744359" lon="151.2900644">
  <ele>347.08</ele>
  <time>2026-09-01T20:02:48Z</time>
  <course>10.68</course>
  <speed>0.12041594578792296</speed>
  <fix>3d</fix>
</trkpt>
<trkpt lat="-27.2744358" lon="151.2900644">
  <ele>347.18</ele>
  <time>2026-09-01T20:02:48Z</time>
  <course>10.69</course>
  <speed>0.1004987562112089</speed>
  <fix>3d</fix>
</trkpt>
<trkpt lat="-27.2744359" lon="151.2900644">
  <ele>346.93</ele>
  <time>2026-09-01T20:02:48Z</time>
  <course>8.86</course>
  <speed>0.16</speed>
  <fix>3d</fix>
</trkpt>
<trkpt lat="-27.2744357" lon="151.2900644">
  <ele>347.21</ele>
  <time>2026-09-01T20:02:48Z</time>
  <course>10.69</course>
  <speed>0.1004987562112089</speed>
  <fix>3d</fix>
</trkpt>
<trkpt lat="-27.2744357" lon="151.2900644">
  <ele>347.32</ele>
  <time>2026-09-01T20:02:48Z</time>
  <course>10.7</course>
  <speed>0.08062257748298549</speed>
  <fix>3d</fix>
</trkpt>
<trkpt lat="-27.2744359" lon="151.2900644">
  <ele>346.93</ele>
  <time>2026-09-01T20:02:48Z</time>
  <course>8.86</course>
  <speed>0.16</speed>
  <fix>3d</fix>
</trkpt>
<trkpt lat="-27.2744357" lon="151.2900644">
  <ele>347.32</ele>
  <time>2026-09-01T20:02:48Z</time>
  <course>10.7</course>
  <speed>0.08062257748298549</speed>
  <fix>3d</fix>
</trkpt>
<trkpt lat="-27.2744356" lon="151.2900644">
  <ele>347.45</ele>
  <time>2026-09-01T20:02:48Z</time>
  <course>10.71</course>
  <speed>0.06</speed>
  <fix>3d</fix>
</trkpt>
<trkpt lat="-27.2744357" lon="151.2900644">
  <ele>347.2</ele>
  <time>2026-09-01T20:02:48Z</time>
  <course>10.25</course>
  <speed>0.12</speed>
  <fix>3d</fix>
</trkpt>
<trkpt lat="-27.2744356" lon="151.2900644">
  <ele>347.46</ele>
  <time>2026-09-01T20:02:48Z</time>
  <course>10.71</course>
  <speed>0.06</speed>
  <fix>3d</fix>
</trkpt>
<trkpt lat="-27.2744355" lon="151.2900644">
  <ele>347.59</ele>
  <time>2026-09-01T20:02:48Z</time>
  <course>10.72</course>
  <speed>0.04</speed>
  <fix>3d</fix>
</trkpt>
<trkpt lat="-27.2744357" lon="151.2900644">
  <ele>347.2</ele>
  <time>2026-09-01T20:02:48Z</time>
  <course>10.25</course>
  <speed>0.12</speed>
  <fix>3d</fix>
</trkpt>
<trkpt lat="-27.2744355" lon="151.2900644">
  <ele>347.62</ele>
  <time>2026-09-01T20:02:48Z</time>
  <course>10.72</course>
  <speed>0.03</speed>
  <fix>3d</fix>
</trkpt>
<trkpt lat="-27.2744355" lon="151.2900644">
  <ele>347.72</ele>
  <time>2026-09-01T20:02:48Z</time>
  <course>10.73</course>
  <speed>0.02</speed>
  <fix>3d</fix>
</trkpt>
<trkpt lat="-27.2744355" lon="151.2900645">
  <ele>347.46</ele>
  <time>2026-09-01T20:02:48Z</time>
  <course>13.33</course>
  <speed>0.07</speed>
  <fix>3d</fix>
</trkpt>
<trkpt lat="-27.2744355" lon="151.2900644">
  <ele>347.75</ele>
  <time>2026-09-01T20:02:48Z</time>
  <course>10.73</course>
  <speed>0.01</speed>
  <fix>3d</fix>
</trkpt>
<trkpt lat="-27.2744355" lon="151.2900644">
  <ele>347.85</ele>
  <time>2026-09-01T20:02:48Z</time>
  <course>10.74</course>
  <speed>0.0</speed>
  <fix>3d</fix>
</trkpt>
<trkpt lat="-27.2744355" lon="151.2900645">
  <ele>347.46</ele>
  <time>2026-09-01T20:02:48Z</time>
  <course>13.33</course>
  <speed>0.07</speed>
  <fix>3d</fix>
</trkpt>
<trkpt lat="-27.2744355" lon="151.2900644">
  <ele>347.85</ele>
  <time>2026-09-01T20:02:48Z</time>
  <course>10.74</course>
  <speed>0.0</speed>
  <fix>3d</fix>
</trkpt>
<trkpt lat="-27.2744355" lon="151.2900644">
  <ele>347.98</ele>
  <time>2026-09-01T20:02:48Z</time>
  <course>10.76</course>
  <speed>0.01</speed>
  <fix>3d</fix>
</trkpt>
<trkpt lat="-27.2744354" lon="151.2900645">
  <ele>347.72</ele>
  <time>2026-09-01T20:02:48Z</time>
  <course>23.99</course>
  <speed>0.03</speed>
  <fix>3d</fix>
</trkpt>
<trkpt lat="-27.2744355" lon="151.2900644">
  <ele>348.02</ele>
  <time>2026-09-01T20:02:48Z</time>
  <course>10.77</course>
  <speed>0.02</speed>
  <fix>3d</fix>
</trkpt>
<trkpt lat="-27.2744355" lon="151.2900645">
  <ele>348.11</ele>
  <time>2026-09-01T20:02:48Z</time>
  <course>10.8</course>
  <speed>0.03</speed>
  <fix>3d</fix>
</trkpt>
<trkpt lat="-27.2744354" lon="151.2900645">
  <ele>347.72</ele>
  <time>2026-09-01T20:02:48Z</time>
  <course>23.99</course>
  <speed>0.03</speed>
  <fix>3d</fix>
</trkpt>
<trkpt lat="-27.2744355" lon="151.2900645">
  <ele>348.14</ele>
  <time>2026-09-01T20:02:48Z</time>
  <course>10.81</course>
  <speed>0.03</speed>
  <fix>3d</fix>
</trkpt>
<trkpt lat="-27.2744355" lon="151.2900645">
  <ele>348.25</ele>
  <time>2026-09-01T20:02:48Z</time>
  <course>10.88</course>
  <speed>0.0412310562561766</speed>
  <fix>3d</fix>
</trkpt>
<trkpt lat="-27.2744354" lon="151.2900645">
  <ele>347.97</ele>
  <time>2026-09-01T20:02:48Z</time>
  <course>149.09</course>
  <speed>0.01</speed>
  <fix>3d</fix>
</trkpt>
<trkpt lat="-27.2744355" lon="151.2900645">
  <ele>348.38</ele>
  <time>2026-09-01T20:02:48Z</time>
  <course>10.98</course>
  <speed>0.06082762530298219</speed>
  <fix>3d</fix>
</trkpt>
<trkpt lat="-27.2744354" lon="151.2900645">
  <ele>347.97</ele>
  <time>2026-09-01T20:02:48Z</time>
  <course>149.09</course>
  <speed>0.01</speed>
  <fix>3d</fix>
</trkpt>
<trkpt lat="-27.2744355" lon="151.2900645">
  <ele>348.52</ele>
  <time>2026-09-01T20:02:48Z</time>
  <course>11.04</course>
  <speed>0.07071067811865475</speed>
  <fix>3d</fix>
</trkpt>
<trkpt lat="-27.2744354" lon="151.2900645">
  <ele>348.24</ele>
  <time>2026-09-01T20:02:48Z</time>
  <course>181.79</course>
  <speed>0.04</speed>
  <fix>3d</fix>
</trkpt>
<trkpt lat="-27.2744356" lon="151.2900645">
  <ele>348.65</ele>
  <time>2026-09-01T20:02:48Z</time>
  <course>11.05</course>
  <speed>0.08062257748298549</speed>
  <fix>3d</fix>
</trkpt>
<trkpt lat="-27.2744354" lon="151.2900645">
  <ele>348.24</ele>
  <time>2026-09-01T20:02:48Z</time>
  <course>181.79</course>
  <speed>0.04</speed>
  <fix>3d</fix>
</trkpt>
<trkpt lat="-27.2744357" lon="151.2900645">
  <ele>348.78</ele>
  <time>2026-09-01T20:02:48Z</time>
  <course>11.03</course>
  <speed>0.09055385138137417</speed>
  <fix>3d</fix>
</trkpt>
<trkpt lat="-27.2744355" lon="151.2900645">
  <ele>348.51</ele>
  <time>2026-09-01T20:02:48Z</time>
  <course>186.37</course>
  <speed>0.07</speed>
  <fix>3d</fix>
</trkpt>
<trkpt lat="-27.2744358" lon="151.2900645">
  <ele>348.89</ele>
  <time>2026-09-01T20:02:48Z</time>
  <course>10.99</course>
  <speed>0.1004987562112089</speed>
  <fix>3d</fix>
</trkpt>
<trkpt lat="-27.2744355" lon="151.2900645">
  <ele>348.51</ele>
  <time>2026-09-01T20:02:48Z</time>
  <course>186.37</course>
  <speed>0.07</speed>
  <fix>3d</fix>
</trkpt>
<trkpt lat="-27.2744358" lon="151.2900645">
  <ele>348.99</ele>
  <time>2026-09-01T20:02:48Z</time>
  <course>10.95</course>
  <speed>0.1118033988749895</speed>
  <fix>3d</fix>
</trkpt>
<trkpt lat="-27.2744355" lon="151.2900645">
  <ele>348.77</ele>
  <time>2026-09-01T20:02:48Z</time>
  <course>187.0</course>
  <speed>0.09</speed>
  <fix>3d</fix>
</trkpt>
<trkpt lat="-27.2744359" lon="151.2900645">
  <ele>349.07</ele>
  <time>2026-09-01T20:02:48Z</time>
  <course>10.91</course>
  <speed>0.13152946437965907</speed>
  <fix>3d</fix>
</trkpt>
<trkpt lat="-27.2744355" lon="151.2900645">
  <ele>348.77</ele>
  <time>2026-09-01T20:02:48Z</time>
  <course>187.0</course>
  <speed>0.09</speed>
  <fix>3d</fix>
</trkpt>
<trkpt lat="-27.274436" lon="151.2900644">
  <ele>349.12</ele>
  <time>2026-09-01T20:02:48Z</time>
  <course>10.87</course>
  <speed>0.1414213562373095</speed>
  <fix>3d</fix>
</trkpt>
<trkpt lat="-27.2744358" lon="151.2900645">
  <ele>348.98</ele>
  <time>2026-09-01T20:02:48Z</time>
  <course>187.58</course>
  <speed>0.12</speed>
  <fix>3d</fix>
</trkpt>
<trkpt lat="-27.2744362" lon="151.2900644">
  <ele>349.14</ele>
  <time>2026-09-01T20:02:48Z</time>
  <course>10.84</course>
  <speed>0.15132745950421556</speed>
  <fix>3d</fix>
</trkpt>
<trkpt lat="-27.2744358" lon="151.2900645">
  <ele>348.98</ele>
  <time>2026-09-01T20:02:48Z</time>
  <course>187.58</course>
  <speed>0.12</speed>
  <fix>3d</fix>
</trkpt>
<trkpt lat="-27.2744363" lon="151.2900644">
  <ele>349.13</ele>
  <time>2026-09-01T20:02:48Z</time>
  <course>10.8</course>
  <speed>0.1711724276862369</speed>
  <fix>3d</fix>
</trkpt>
<trkpt lat="-27.274436" lon="151.2900645">
  <ele>349.1</ele>
  <time>2026-09-01T20:02:48Z</time>
  <course>187.94</course>
  <speed>0.15</speed>
  <fix>3d</fix>
</trkpt>
<trkpt lat="-27.2744365" lon="151.2900644">
  <ele>349.09</ele>
  <time>2026-09-01T20:02:48Z</time>
  <course>10.78</course>
  <speed>0.1824828759089466</speed>
  <fix>3d</fix>
</trkpt>
<trkpt lat="-27.274436" lon="151.2900645">
  <ele>349.1</ele>
  <time>2026-09-01T20:02:48Z</time>
  <course>187.94</course>
  <speed>0.15</speed>
  <fix>3d</fix>
</trkpt>
<trkpt lat="-27.2744366" lon="151.2900644">
  <ele>349.03</ele>
  <time>2026-09-01T20:02:48Z</time>
  <course>10.77</course>
  <speed>0.19235384061671343</speed>
  <fix>3d</fix>
</trkpt>
<trkpt lat="-27.2744363" lon="151.2900645">
  <ele>349.12</ele>
  <time>2026-09-01T20:02:48Z</time>
  <course>188.19</course>
  <speed>0.18</speed>
  <fix>3d</fix>
</trkpt>
<trkpt lat="-27.2744368" lon="151.2900643">
  <ele>348.95</ele>
  <time>2026-09-01T20:02:48Z</time>
  <course>10.77</course>
  <speed>0.19235384061671343</speed>
  <fix>3d</fix>
</trkpt>
<trkpt lat="-27.2744363" lon="151.2900645">
  <ele>349.12</ele>
  <time>2026-09-01T20:02:48Z</time>
  <course>188.19</course>
  <speed>0.18</speed>
  <fix>3d</fix>
</trkpt>
<trkpt lat="-27.274437" lon="151.2900643">
  <ele>348.84</ele>
  <time>2026-09-01T20:02:48Z</time>
  <course>10.78</course>
  <speed>0.19235384061671343</speed>
  <fix>3d</fix>
</trkpt>
<trkpt lat="-27.2744367" lon="151.2900644">
  <ele>349.03</ele>
  <time>2026-09-01T20:02:48Z</time>
  <course>188.39</course>
  <speed>0.2</speed>
  <fix>3d</fix>
</trkpt>
<trkpt lat="-27.2744371" lon="151.2900643">
  <ele>348.73</ele>
  <time>2026-09-01T20:02:48Z</time>
  <course>10.78</course>
  <speed>0.19235384061671343</speed>
  <fix>3d</fix>
</trkpt>
<trkpt lat="-27.2744367" lon="151.2900644">
  <ele>349.03</ele>
  <time>2026-09-01T20:02:48Z</time>
  <course>188.39</course>
  <speed>0.2</speed>
  <fix>3d</fix>
</trkpt>
<trkpt lat="-27.2744373" lon="151.2900643">
  <ele>348.6</ele>
  <time>2026-09-01T20:02:48Z</time>
  <course>10.78</course>
  <speed>0.191049731745428</speed>
  <fix>3d</fix>
</trkpt>
<trkpt lat="-27.2744371" lon="151.2900644">
  <ele>348.84</ele>
  <time>2026-09-01T20:02:48Z</time>
  <course>188.47</course>
  <speed>0.21</speed>
  <fix>3d</fix>
</trkpt>
<trkpt lat="-27.2744375" lon="151.2900643">
  <ele>348.47</ele>
  <time>2026-09-01T20:02:48Z</time>
  <course>10.77</course>
  <speed>0.191049731745428</speed>
  <fix>3d</fix>
</trkpt>
<trkpt lat="-27.2744371" lon="151.2900644">
  <ele>348.84</ele>
  <time>2026-09-01T20:02:48Z</time>
  <course>188.47</course>
  <speed>0.21</speed>
  <fix>3d</fix>
</trkpt>
<trkpt lat="-27.2744377" lon="151.2900642">
  <ele>348.33</ele>
  <time>2026-09-01T20:02:48Z</time>
  <course>10.75</course>
  <speed>0.1824828759089466</speed>
  <fix>3d</fix>
</trkpt>
<trkpt lat="-27.2744374" lon="151.2900643">
  <ele>348.6</ele>
  <time>2026-09-01T20:02:48Z</time>
  <course>188.39</course>
  <speed>0.2</speed>
  <fix>3d</fix>
</trkpt>
<trkpt lat="-27.2744379" lon="151.2900642">
  <ele>348.19</ele>
  <time>2026-09-01T20:02:48Z</time>
  <course>10.73</course>
  <speed>0.1824828759089466</speed>
  <fix>3d</fix>
</trkpt>
<trkpt lat="-27.2744374" lon="151.2900643">
  <ele>348.6</ele>
  <time>2026-09-01T20:02:48Z</time>
  <course>188.39</course>
  <speed>0.2</speed>
  <fix>3d</fix>
</trkpt>
<trkpt lat="-27.274438" lon="151.2900642">
  <ele>348.05</ele>
  <time>2026-09-01T20:02:48Z</time>
  <course>10.72</course>
  <speed>0.18110770276274835</speed>
  <fix>3d</fix>
</trkpt>
<trkpt lat="-27.2744378" lon="151.2900642">
  <ele>348.33</ele>
  <time>2026-09-01T20:02:48Z</time>
  <course>188.34</course>
  <speed>0.2</speed>
  <fix>3d</fix>
</trkpt>
<trkpt lat="-27.2744382" lon="151.2900642">
  <ele>347.91</ele>
  <time>2026-09-01T20:02:48Z</time>
  <course>10.71</course>
  <speed>0.1711724276862369</speed>
  <fix>3d</fix>
</trkpt>
<trkpt lat="-27.2744378" lon="151.2900642">
  <ele>348.33</ele>
  <time>2026-09-01T20:02:48Z</time>
  <course>188.34</course>
  <speed>0.2</speed>
  <fix>3d</fix>
</trkpt>
<trkpt lat="-27.2744384" lon="151.2900641">
  <ele>347.77</ele>
  <time>2026-09-01T20:02:48Z</time>
  <course>10.71</course>
  <speed>0.1711724276862369</speed>
  <fix>3d</fix>
</trkpt>
<trkpt lat="-27.2744381" lon="151.2900642">
  <ele>348.05</ele>
  <time>2026-09-01T20:02:48Z</time>
  <course>188.38</course>
  <speed>0.19</speed>
  <fix>3d</fix>
</trkpt>
<trkpt lat="-27.2744385" lon="151.2900641">
  <ele>347.64</ele>
  <time>2026-09-01T20:02:48Z</time>
  <course>10.7</course>
  <speed>0.1711724276862369</speed>
  <fix>3d</fix>
</trkpt>
<trkpt lat="-27.2744381" lon="151.2900642">
  <ele>348.05</ele>
  <time>2026-09-01T20:02:48Z</time>
  <course>188.38</course>
  <speed>0.19</speed>
  <fix>3d</fix>
</trkpt>
<trkpt lat="-27.2744387" lon="151.2900641">
  <ele>347.51</ele>
  <time>2026-09-01T20:02:48Z</time>
  <course>10.68</course>
  <speed>0.17029386365926402</speed>
  <fix>3d</fix>
</trkpt>
<trkpt lat="-27.2744385" lon="151.2900641">
  <ele>347.79</ele>
  <time>2026-09-01T20:02:48Z</time>
  <course>188.26</course>
  <speed>0.18</speed>
  <fix>3d</fix>
</trkpt>
<trkpt lat="-27.2744388" lon="151.2900641">
  <ele>347.39</ele>
  <time>2026-09-01T20:02:48Z</time>
  <course>10.65</course>
  <speed>0.17029386365926402</speed>
  <fix>3d</fix>
</trkpt>
<trkpt lat="-27.2744385" lon="151.2900641">
  <ele>347.79</ele>
  <time>2026-09-01T20:02:48Z</time>
  <course>188.26</course>
  <speed>0.18</speed>
  <fix>3d</fix>
</trkpt>
<trkpt lat="-27.274439" lon="151.2900641">
  <ele>347.27</ele>
  <time>2026-09-01T20:02:48Z</time>
  <course>10.61</course>
  <speed>0.17</speed>
  <fix>3d</fix>
</trkpt>
<trkpt lat="-27.2744388" lon="151.2900641">
  <ele>347.53</ele>
  <time>2026-09-01T20:02:48Z</time>
  <course>187.94</course>
  <speed>0.18</speed>
  <fix>3d</fix>
</trkpt>
<trkpt lat="-27.2744392" lon="151.2900641">
  <ele>347.16</ele>
  <time>2026-09-01T20:02:48Z</time>
  <course>10.56</course>
  <speed>0.17</speed>
  <fix>3d</fix>
</trkpt>
<trkpt lat="-27.2744388" lon="151.2900641">
  <ele>347.53</ele>
  <time>2026-09-01T20:02:48Z</time>
  <course>187.94</course>
  <speed>0.18</speed>
  <fix>3d</fix>
</trkpt>
<trkpt lat="-27.2744393" lon="151.2900641">
  <ele>347.05</ele>
  <time>2026-09-01T20:02:48Z</time>
  <course>10.51</course>
  <speed>0.16</speed>
  <fix>3d</fix>
</trkpt>
<trkpt lat="-27.2744391" lon="151.290064">
  <ele>347.3</ele>
  <time>2026-09-01T20:02:48Z</time>
  <course>187.63</course>
  <speed>0.17</speed>
  <fix>3d</fix>
</trkpt>
<trkpt lat="-27.2744395" lon="151.2900641">
  <ele>346.95</ele>
  <time>2026-09-01T20:02:48Z</time>
  <course>10.46</course>
  <speed>0.16</speed>
  <fix>3d</fix>
</trkpt>
<trkpt lat="-27.2744391" lon="151.290064">
  <ele>347.3</ele>
  <time>2026-09-01T20:02:48Z</time>
  <course>187.63</course>
  <speed>0.17</speed>
  <fix>3d</fix>
</trkpt>
<trkpt lat="-27.2744396" lon="151.2900641">
  <ele>346.84</ele>
  <time>2026-09-01T20:02:48Z</time>
  <course>10.42</course>
  <speed>0.16</speed>
  <fix>3d</fix>
</trkpt>
<trkpt lat="-27.2744394" lon="151.290064">
  <ele>347.08</ele>
  <time>2026-09-01T20:02:48Z</time>
  <course>187.38</course>
  <speed>0.17</speed>
  <fix>3d</fix>
</trkpt>
<trkpt lat="-27.2744398" lon="151.290064">
  <ele>346.74</ele>
  <time>2026-09-01T20:02:48Z</time>
  <course>10.39</course>
  <speed>0.15</speed>
  <fix>3d</fix>
</trkpt>
<trkpt lat="-27.2744394" lon="151.290064">
  <ele>347.08</ele>
  <time>2026-09-01T20:02:48Z</time>
  <course>187.38</course>
  <speed>0.17</speed>
  <fix>3d</fix>
</trkpt>
<trkpt lat="-27.2744399" lon="151.290064">
  <ele>346.64</ele>
  <time>2026-09-01T20:02:48Z</time>
  <course>10.37</course>
  <speed>0.15</speed>
  <fix>3d</fix>
</trkpt>
<trkpt lat="-27.2744397" lon="151.2900639">
  <ele>346.87</ele>
  <time>2026-09-01T20:02:48Z</time>
  <course>187.13</course>
  <speed>0.16</speed>
  <fix>3d</fix>
</trkpt>
<trkpt lat="-27.27444" lon="151.290064">
  <ele>346.53</ele>
  <time>2026-09-01T20:02:48Z</time>
  <course>10.35</course>
  <speed>0.15</speed>
  <fix>3d</fix>
</trkpt>
<trkpt lat="-27.2744397" lon="151.2900639">
  <ele>346.87</ele>
  <time>2026-09-01T20:02:48Z</time>
  <course>187.13</course>
  <speed>0.16</speed>
  <fix>3d</fix>
</trkpt>
<trkpt lat="-27.2744402" lon="151.290064">
  <ele>346.43</ele>
  <time>2026-09-01T20:02:48Z</time>
  <course>10.34</course>
  <speed>0.14</speed>
  <fix>3d</fix>
</trkpt>
<trkpt lat="-27.27444" lon="151.2900639">
  <ele>346.66</ele>
  <time>2026-09-01T20:02:48Z</time>
  <course>186.87</course>
  <speed>0.15</speed>
  <fix>3d</fix>
</trkpt>
<trkpt lat="-27.2744403" lon="151.290064">
  <ele>346.33</ele>
  <time>2026-09-01T20:02:48Z</time>
  <course>10.33</course>
  <speed>0.13</speed>
  <fix>3d</fix>
</trkpt>
<trkpt lat="-27.27444" lon="151.2900639">
  <ele>346.66</ele>
  <time>2026-09-01T20:02:48Z</time>
  <course>186.87</course>
  <speed>0.15</speed>
  <fix>3d</fix>
</trkpt>
<trkpt lat="-27.2744404" lon="151.290064">
  <ele>346.23</ele>
  <time>2026-09-01T20:02:48Z</time>
  <course>10.33</course>
  <speed>0.13</speed>
  <fix>3d</fix>
</trkpt>
<trkpt lat="-27.2744403" lon="151.2900639">
  <ele>346.47</ele>
  <time>2026-09-01T20:02:48Z</time>
  <course>186.67</course>
  <speed>0.14</speed>
  <fix>3d</fix>
</trkpt>
<trkpt lat="-27.2744405" lon="151.290064">
  <ele>346.12</ele>
  <time>2026-09-01T20:02:48Z</time>
  <course>10.33</course>
  <speed>0.12</speed>
  <fix>3d</fix>
</trkpt>
<trkpt lat="-27.2744403" lon="151.2900639">
  <ele>346.47</ele>
  <time>2026-09-01T20:02:48Z</time>
  <course>186.67</course>
  <speed>0.14</speed>
  <fix>3d</fix>
</trkpt>
<trkpt lat="-27.2744407" lon="151.290064">
  <ele>346.01</ele>
  <time>2026-09-01T20:02:48Z</time>
  <course>10.32</course>
  <speed>0.11</speed>
  <fix>3d</fix>
</trkpt>
<trkpt lat="-27.2744405" lon="151.2900638">
  <ele>346.27</ele>
  <time>2026-09-01T20:02:48Z</time>
  <course>186.43</course>
  <speed>0.12</speed>
  <fix>3d</fix>
</trkpt>
<trkpt lat="-27.2744408" lon="151.2900639">
  <ele>345.9</ele>
  <time>2026-09-01T20:02:48Z</time>
  <course>10.32</course>
  <speed>0.1</speed>
  <fix>3d</fix>
</trkpt>
<trkpt lat="-27.2744405" lon="151.2900638">
  <ele>346.27</ele>
  <time>2026-09-01T20:02:48Z</time>
  <course>186.43</course>
  <speed>0.12</speed>
  <fix>3d</fix>
</trkpt>
<trkpt lat="-27.2744409" lon="151.2900639">
  <ele>345.79</ele>
  <time>2026-09-01T20:02:48Z</time>
  <course>10.32</course>
  <speed>0.1</speed>
  <fix>3d</fix>
</trkpt>
<trkpt lat="-27.2744408" lon="151.2900637">
  <ele>346.06</ele>
  <time>2026-09-01T20:02:48Z</time>
  <course>186.16</course>
  <speed>0.11</speed>
  <fix>3d</fix>
</trkpt>
<trkpt lat="-27.2744409" lon="151.2900639">
  <ele>345.67</ele>
  <time>2026-09-01T20:02:48Z</time>
  <course>10.31</course>
  <speed>0.09055385138137417</speed>
  <fix>3d</fix>
</trkpt>
<trkpt lat="-27.2744408" lon="151.2900637">
  <ele>346.06</ele>
  <time>2026-09-01T20:02:48Z</time>
  <course>186.16</course>
  <speed>0.11</speed>
  <fix>3d</fix>
</trkpt>
<trkpt lat="-27.274441" lon="151.2900639">
  <ele>345.56</ele>
  <time>2026-09-01T20:02:48Z</time>
  <course>10.3</course>
  <speed>0.08062257748298549</speed>
  <fix>3d</fix>
</trkpt>
<trkpt lat="-27.2744409" lon="151.2900637">
  <ele>345.84</ele>
  <time>2026-09-01T20:02:48Z</time>
  <course>185.64</course>
  <speed>0.09</speed>
  <fix>3d</fix>
</trkpt>
<trkpt lat="-27.2744411" lon="151.2900639">
  <ele>345.45</ele>
  <time>2026-09-01T20:02:48Z</time>
  <course>10.26</course>
  <speed>0.06082762530298219</speed>
  <fix>3d</fix>
</trkpt>
<trkpt lat="-27.2744409" lon="151.2900637">
  <ele>345.84</ele>
  <time>2026-09-01T20:02:48Z</time>
  <course>185.64</course>
  <speed>0.09</speed>
  <fix>3d</fix>
</trkpt>
<trkpt lat="-27.2744411" lon="151.2900639">
  <ele>345.44</ele>
  <time>2026-09-01T20:02:48Z</time>
  <course>10.26</course>
  <speed>0.06082762530298219</speed>
  <fix>3d</fix>
</trkpt>
<trkpt lat="-27.2744411" lon="151.2900639">
  <ele>345.33</ele>
  <time>2026-09-01T20:02:48Z</time>
  <course>10.18</course>
  <speed>0.02</speed>
  <fix>3d</fix>
</trkpt>
<trkpt lat="-27.2744411" lon="151.2900637">
  <ele>345.62</ele>
  <time>2026-09-01T20:02:48Z</time>
  <course>184.4</course>
  <speed>0.07</speed>
  <fix>3d</fix>
</trkpt>
<trkpt lat="-27.2744411" lon="151.2900639">
  <ele>345.18</ele>
  <time>2026-09-01T20:02:48Z</time>
  <course>10.09</course>
  <speed>0.10770329614269007</speed>
  <fix>3d</fix>
</trkpt>
<trkpt lat="-27.2744411" lon="151.2900637">
  <ele>345.62</ele>
  <time>2026-09-01T20:02:48Z</time>
  <course>184.4</course>
  <speed>0.07</speed>
  <fix>3d</fix>
</trkpt>
<trkpt lat="-27.2744409" lon="151.2900639">
  <ele>344.94</ele>
  <time>2026-09-01T20:02:48Z</time>
  <course>10.0</course>
  <speed>0.1772004514666935</speed>
  <fix>3d</fix>
</trkpt>
<trkpt lat="-27.2744411" lon="151.2900637">
  <ele>345.38</ele>
  <time>2026-09-01T20:02:48Z</time>
  <course>15.95</course>
  <speed>0.02</speed>
  <fix>3d</fix>
</trkpt>
<trkpt lat="-27.2744407" lon="151.2900639">
  <ele>344.62</ele>
  <time>2026-09-01T20:02:48Z</time>
  <course>9.9</course>
  <speed>0.215870331449229</speed>
  <fix>3d</fix>
</trkpt>
<trkpt lat="-27.2744411" lon="151.2900637">
  <ele>345.38</ele>
  <time>2026-09-01T20:02:48Z</time>
  <course>15.95</course>
  <speed>0.02</speed>
  <fix>3d</fix>
</trkpt>
<trkpt lat="-27.2744406" lon="151.2900639">
  <ele>344.24</ele>
  <time>2026-09-01T20:02:48Z</time>
  <course>9.78</course>
  <speed>0.23769728648009425</speed>
  <fix>3d</fix>
</trkpt>
<trkpt lat="-27.2744409" lon="151.2900637">
  <ele>344.98</ele>
  <time>2026-09-01T20:02:48Z</time>
  <course>8.94</course>
  <speed>0.16</speed>
  <fix>3d</fix>
</trkpt>
<trkpt lat="-27.2744404" lon="151.290064">
  <ele>343.81</ele>
  <time>2026-09-01T20:02:48Z</time>
  <course>9.63</course>
  <speed>0.2668332812825267</speed>
  <fix>3d</fix>
</trkpt>
<trkpt lat="-27.2744409" lon="151.2900637">
  <ele>344.98</ele>
  <time>2026-09-01T20:02:48Z</time>
  <course>8.94</course>
  <speed>0.16</speed>
  <fix>3d</fix>
</trkpt>
<trkpt lat="-27.2744402" lon="151.290064">
  <ele>343.33</ele>
  <time>2026-09-01T20:02:48Z</time>
  <course>9.41</course>
  <speed>0.3080584360149873</speed>
  <fix>3d</fix>
</trkpt>
<trkpt lat="-27.2744407" lon="151.2900637">
  <ele>344.31</ele>
  <time>2026-09-01T20:02:48Z</time>
  <course>8.79</course>
  <speed>0.25</speed>
  <fix>3d</fix>
</trkpt>
<trkpt lat="-27.2744399" lon="151.2900641">
  <ele>342.84</ele>
  <time>2026-09-01T20:02:48Z</time>
  <course>9.17</course>
  <speed>0.215870331449229</speed>
  <fix>3d</fix>
</trkpt>
<trkpt lat="-27.2744407" lon="151.2900637">
  <ele>344.31</ele>
  <time>2026-09-01T20:02:48Z</time>
  <course>8.79</course>
  <speed>0.25</speed>
  <fix>3d</fix>
</trkpt>
<trkpt lat="-27.2744399" lon="151.2900641">
  <ele>343.43</ele>
  <time>2026-09-01T20:02:48Z</time>
  <course>9.18</course>
  <speed>0.07</speed>
  <fix>3d</fix>
</trkpt>
<trkpt lat="-27.2744402" lon="151.2900638">
  <ele>343.43</ele>
  <time>2026-09-01T20:02:48Z</time>
  <course>9.04</course>
  <speed>0.26</speed>
  <fix>3d</fix>
</trkpt>
<trkpt lat="-27.27444" lon="151.290064">
  <ele>343.6</ele>
  <time>2026-09-01T20:02:48Z</time>
  <course>9.25</course>
  <speed>0.16031219541881397</speed>
  <fix>3d</fix>
</trkpt>
<trkpt lat="-27.2744402" lon="151.2900638">
  <ele>343.43</ele>
  <time>2026-09-01T20:02:48Z</time>
  <course>9.04</course>
  <speed>0.26</speed>
  <fix>3d</fix>
</trkpt>
<trkpt lat="-27.2744401" lon="151.290064">
  <ele>343.91</ele>
  <time>2026-09-01T20:02:48Z</time>
  <course>9.31</course>
  <speed>0.12041594578792296</speed>
  <fix>3d</fix>
</trkpt>
<trkpt lat="-27.2744399" lon="151.2900639">
  <ele>342.93</ele>
  <time>2026-09-01T20:02:48Z</time>
  <course>9.18</course>
  <speed>0.07</speed>
  <fix>3d</fix>
</trkpt>
<trkpt lat="-27.2744402" lon="151.290064">
  <ele>344.33</ele>
  <time>2026-09-01T20:02:48Z</time>
  <course>9.36</course>
  <speed>0.06</speed>
  <fix>3d</fix>
</trkpt>
<trkpt lat="-27.2744399" lon="151.2900639">
  <ele>342.93</ele>
  <time>2026-09-01T20:02:48Z</time>
  <course>9.18</course>
  <speed>0.07</speed>
  <fix>3d</fix>
</trkpt>
<trkpt lat="-27.2744402" lon="151.2900639">
  <ele>344.69</ele>
  <time>2026-09-01T20:02:48Z</time>
  <course>9.38</course>
  <speed>0.02</speed>
  <fix>3d</fix>
</trkpt>
<trkpt lat="-27.2744399" lon="151.2900639">
  <ele>343.02</ele>
  <time>2026-09-01T20:02:48Z</time>
  <course>189.18</course>
  <speed>0.06</speed>
  <fix>3d</fix>
</trkpt>
<trkpt lat="-27.2744402" lon="151.2900639">
  <ele>345.08</ele>
  <time>2026-09-01T20:02:48Z</time>
  <course>9.39</course>
  <speed>0.01</speed>
  <fix>3d</fix>
</trkpt>
<trkpt lat="-27.2744399" lon="151.2900639">
  <ele>343.02</ele>
  <time>2026-09-01T20:02:48Z</time>
  <course>189.18</course>
  <speed>0.06</speed>
  <fix>3d</fix>
</trkpt>
<trkpt lat="-27.2744401" lon="151.2900639">
  <ele>345.4</ele>
  <time>2026-09-01T20:02:48Z</time>
  <course>9.4</course>
  <speed>0.02</speed>
  <fix>3d</fix>
</trkpt>
<trkpt lat="-27.27444" lon="151.2900639">
  <ele>343.12</ele>
  <time>2026-09-01T20:02:48Z</time>
  <course>189.18</course>
  <speed>0.0</speed>
  <fix>3d</fix>
</trkpt>
<trkpt lat="-27.2744401" lon="151.2900639">
  <ele>345.76</ele>
  <time>2026-09-01T20:02:48Z</time>
  <course>9.41</course>
  <speed>0.02</speed>
  <fix>3d</fix>
</trkpt>
<trkpt lat="-27.27444" lon="151.2900639">
  <ele>343.12</ele>
  <time>2026-09-01T20:02:48Z</time>
  <course>189.18</course>
  <speed>0.0</speed>
  <fix>3d</fix>
</trkpt>
<trkpt lat="-27.2744401" lon="151.2900639">
  <ele>346.03</ele>
  <time>2026-09-01T20:02:48Z</time>
  <course>9.41</course>
  <speed>0.02</speed>
  <fix>3d</fix>
</trkpt>
<trkpt lat="-27.27444" lon="151.2900639">
  <ele>343.09</ele>
  <time>2026-09-01T20:02:48Z</time>
  <course>9.18</course>
  <speed>0.0</speed>
  <fix>3d</fix>
</trkpt>
<trkpt lat="-27.2744401" lon="151.2900639">
  <ele>346.34</ele>
  <time>2026-09-01T20:02:48Z</time>
  <course>9.42</course>
  <speed>0.02</speed>
  <fix>3d</fix>
</trkpt>
<trkpt lat="-27.27444" lon="151.2900639">
  <ele>343.09</ele>
  <time>2026-09-01T20:02:48Z</time>
  <course>9.18</course>
  <speed>0.0</speed>
  <fix>3d</fix>
</trkpt>
<trkpt lat="-27.2744401" lon="151.2900639">
  <ele>346.54</ele>
  <time>2026-09-01T20:02:48Z</time>
  <course>9.42</course>
  <speed>0.01</speed>
  <fix>3d</fix>
</trkpt>
<trkpt lat="-27.27444" lon="151.2900639">
  <ele>343.09</ele>
  <time>2026-09-01T20:02:48Z</time>
  <course>189.19</course>
  <speed>0.0</speed>
  <fix>3d</fix>
</trkpt>
<trkpt lat="-27.2744401" lon="151.2900639">
  <ele>346.79</ele>
  <time>2026-09-01T20:02:48Z</time>
  <course>9.43</course>
  <speed>0.01</speed>
  <fix>3d</fix>
</trkpt>
<trkpt lat="-27.27444" lon="151.2900639">
  <ele>343.09</ele>
  <time>2026-09-01T20:02:48Z</time>
  <course>189.19</course>
  <speed>0.0</speed>
  <fix>3d</fix>
</trkpt>
<trkpt lat="-27.2744401" lon="151.2900639">
  <ele>346.94</ele>
  <time>2026-09-01T20:02:48Z</time>
  <course>9.43</course>
  <speed>0.01</speed>
  <fix>3d</fix>
</trkpt>
<trkpt lat="-27.27444" lon="151.2900639">
  <ele>343.09</ele>
  <time>2026-09-01T20:02:48Z</time>
  <course>189.18</course>
  <speed>0.0</speed>
  <fix>3d</fix>
</trkpt>
<trkpt lat="-27.2744401" lon="151.2900639">
  <ele>347.14</ele>
  <time>2026-09-01T20:02:48Z</time>
  <course>9.44</course>
  <speed>0.0</speed>
  <fix>3d</fix>
</trkpt>
<trkpt lat="-27.27444" lon="151.2900639">
  <ele>343.09</ele>
  <time>2026-09-01T20:02:48Z</time>
  <course>189.18</course>
  <speed>0.0</speed>
  <fix>3d</fix>
</trkpt>
<trkpt lat="-27.2744401" lon="151.2900639">
  <ele>347.26</ele>
  <time>2026-09-01T20:02:48Z</time>
  <course>9.44</course>
  <speed>0.0</speed>
  <fix>3d</fix>
</trkpt>
<trkpt lat="-27.27444" lon="151.2900639">
  <ele>343.1</ele>
  <time>2026-09-01T20:02:48Z</time>
  <course>9.19</course>
  <speed>0.0</speed>
  <fix>3d</fix>
</trkpt>
<trkpt lat="-27.2744401" lon="151.2900639">
  <ele>347.41</ele>
  <time>2026-09-01T20:02:48Z</time>
  <course>9.45</course>
  <speed>0.0</speed>
  <fix>3d</fix>
</trkpt>
<trkpt lat="-27.27444" lon="151.2900639">
  <ele>343.1</ele>
  <time>2026-09-01T20:02:48Z</time>
  <course>9.19</course>
  <speed>0.0</speed>
  <fix>3d</fix>
</trkpt>
<trkpt lat="-27.2744401" lon="151.2900639">
  <ele>347.54</ele>
  <time>2026-09-01T20:02:48Z</time>
  <course>9.45</course>
  <speed>0.0</speed>
  <fix>3d</fix>
</trkpt>
<trkpt lat="-27.27444" lon="151.2900639">
  <ele>343.09</ele>
  <time>2026-09-01T20:02:48Z</time>
  <course>9.18</course>
  <speed>0.0</speed>
  <fix>3d</fix>
</trkpt>
<trkpt lat="-27.2744401" lon="151.2900639">
  <ele>347.67</ele>
  <time>2026-09-01T20:02:48Z</time>
  <course>9.45</course>
  <speed>0.0</speed>
  <fix>3d</fix>
</trkpt>
<trkpt lat="-27.27444" lon="151.2900639">
  <ele>343.09</ele>
  <time>2026-09-01T20:02:48Z</time>
  <course>9.18</course>
  <speed>0.0</speed>
  <fix>3d</fix>
</trkpt>
<trkpt lat="-27.2744401" lon="151.2900639">
  <ele>347.78</ele>
  <time>2026-09-01T20:02:48Z</time>
  <course>9.46</course>
  <speed>0.0</speed>
  <fix>3d</fix>
</trkpt>
<trkpt lat="-27.27444" lon="151.2900639">
  <ele>343.09</ele>
  <time>2026-09-01T20:02:48Z</time>
  <course>189.18</course>
  <speed>0.0</speed>
  <fix>3d</fix>
</trkpt>
<trkpt lat="-27.2744401" lon="151.2900639">
  <ele>347.89</ele>
  <time>2026-09-01T20:02:48Z</time>
  <course>9.46</course>
  <speed>0.0</speed>
  <fix>3d</fix>
</trkpt>
<trkpt lat="-27.27444" lon="151.2900639">
  <ele>343.09</ele>
  <time>2026-09-01T20:02:48Z</time>
  <course>189.18</course>
  <speed>0.0</speed>
  <fix>3d</fix>
</trkpt>
<trkpt lat="-27.2744401" lon="151.2900639">
  <ele>347.99</ele>
  <time>2026-09-01T20:02:48Z</time>
  <course>9.46</course>
  <speed>0.0</speed>
  <fix>3d</fix>
</trkpt>
<trkpt lat="-27.27444" lon="151.2900639">
  <ele>343.1</ele>
  <time>2026-09-01T20:02:48Z</time>
  <course>189.18</course>
  <speed>0.0</speed>
  <fix>3d</fix>
</trkpt>
<trkpt lat="-27.2744401" lon="151.2900639">
  <ele>348.08</ele>
  <time>2026-09-01T20:02:48Z</time>
  <course>9.47</course>
  <speed>0.0</speed>
  <fix>3d</fix>
</trkpt>
<trkpt lat="-27.27444" lon="151.2900639">
  <ele>343.1</ele>
  <time>2026-09-01T20:02:48Z</time>
  <course>189.18</course>
  <speed>0.0</speed>
  <fix>3d</fix>
</trkpt>
<trkpt lat="-27.2744401" lon="151.2900639">
  <ele>348.17</ele>
  <time>2026-09-01T20:02:48Z</time>
  <course>9.47</course>
  <speed>0.0</speed>
  <fix>3d</fix>
</trkpt>
<trkpt lat="-27.27444" lon="151.2900639">
  <ele>343.1</ele>
  <time>2026-09-01T20:02:48Z</time>
  <course>9.18</course>
  <speed>0.0</speed>
  <fix>3d</fix>
</trkpt>
<trkpt lat="-27.27444" lon="151.2900639">
  <ele>348.25</ele>
  <time>2026-09-01T20:02:48Z</time>
  <course>9.47</course>
  <speed>0.0</speed>
  <fix>3d</fix>
</trkpt>
<trkpt lat="-27.27444" lon="151.2900639">
  <ele>343.1</ele>
  <time>2026-09-01T20:02:48Z</time>
  <course>9.18</course>
  <speed>0.0</speed>
  <fix>3d</fix>
</trkpt>
<trkpt lat="-27.27444" lon="151.2900639">
  <ele>348.33</ele>
  <time>2026-09-01T20:02:48Z</time>
  <course>9.47</course>
  <speed>0.0</speed>
  <fix>3d</fix>
</trkpt>
<trkpt lat="-27.27444" lon="151.2900639">
  <ele>343.1</ele>
  <time>2026-09-01T20:02:48Z</time>
  <course>9.18</course>
  <speed>0.0</speed>
  <fix>3d</fix>
</trkpt>
<trkpt lat="-27.27444" lon="151.2900639">
  <ele>348.4</ele>
  <time>2026-09-01T20:02:48Z</time>
  <course>9.48</course>
  <speed>0.0</speed>
  <fix>3d</fix>
</trkpt>
<trkpt lat="-27.27444" lon="151.2900639">
  <ele>343.1</ele>
  <time>2026-09-01T20:02:48Z</time>
  <course>9.18</course>
  <speed>0.0</speed>
  <fix>3d</fix>
</trkpt>
<trkpt lat="-27.27444" lon="151.2900639">
  <ele>348.47</ele>
  <time>2026-09-01T20:02:48Z</time>
  <course>9.48</course>
  <speed>0.0</speed>
  <fix>3d</fix>
</trkpt>
<trkpt lat="-27.27444" lon="151.2900639">
  <ele>343.1</ele>
  <time>2026-09-01T20:02:48Z</time>
  <course>189.18</course>
  <speed>0.0</speed>
  <fix>3d</fix>
</trkpt>
<trkpt lat="-26.9720619" lon="149.6127921">
  <ele>339.29</ele>
  <time>2026-09-01T20:02:49Z</time>
  <course>310.27</course>
  <speed>0.0</speed>
  <fix>3d</fix>
</trkpt>
<trkpt lat="-26.9720619" lon="149.6127921">
  <ele>339.29</ele>
  <time>2026-09-01T20:02:49Z</time>
  <course>310.27</course>
  <speed>0.0</speed>
  <fix>3d</fix>
</trkpt>
<trkpt lat="-27.274439" lon="151.290064">
  <ele>-0.01</ele>
  <time>2026-09-01T20:02:49Z</time>
  <course>0.22</course>
  <speed>0.0</speed>
  <fix>3d</fix>
</trkpt>
<trkpt lat="-27.274439" lon="151.290064">
  <ele>343.1</ele>
  <time>2026-09-01T20:02:49Z</time>
  <course>294.58</course>
  <speed>0.0</speed>
  <fix>3d</fix>
</trkpt>
<trkpt lat="-27.274439" lon="151.290064">
  <ele>0.02</ele>
  <time>2026-09-01T20:02:49Z</time>
  <course>1.2</course>
  <speed>0.0</speed>
  <fix>3d</fix>
</trkpt>
<trkpt lat="-27.274439" lon="151.290064">
  <ele>343.1</ele>
  <time>2026-09-01T20:02:49Z</time>
  <course>294.58</course>
  <speed>0.0</speed>
  <fix>3d</fix>
</trkpt>
<trkpt lat="-27.274439" lon="151.290064">
  <ele>-0.08</ele>
  <time>2026-09-01T20:02:49Z</time>
  <course>2.1</course>
  <speed>0.0</speed>
  <fix>3d</fix>
</trkpt>
<trkpt lat="-27.274439" lon="151.290064">
  <ele>343.1</ele>
  <time>2026-09-01T20:02:49Z</time>
  <course>273.33</course>
  <speed>0.0</speed>
  <fix>3d</fix>
</trkpt>
<trkpt lat="-27.274439" lon="151.290064">
  <ele>0.22</ele>
  <time>2026-09-01T20:02:49Z</time>
  <course>2.92</course>
  <speed>0.0</speed>
  <fix>3d</fix>
</trkpt>
<trkpt lat="-27.274439" lon="151.290064">
  <ele>343.1</ele>
  <time>2026-09-01T20:02:49Z</time>
  <course>273.33</course>
  <speed>0.0</speed>
  <fix>3d</fix>
</trkpt>
<trkpt lat="-27.274439" lon="151.290064">
  <ele>0.09</ele>
  <time>2026-09-01T20:02:49Z</time>
  <course>3.66</course>
  <speed>0.0</speed>
  <fix>3d</fix>
</trkpt>
<trkpt lat="-27.274439" lon="151.290064">
  <ele>343.1</ele>
  <time>2026-09-01T20:02:49Z</time>
  <course>270.44</course>
  <speed>0.0</speed>
  <fix>3d</fix>
</trkpt>
<trkpt lat="-27.274439" lon="151.290064">
  <ele>0.08</ele>
  <time>2026-09-01T20:02:49Z</time>
  <course>4.34</course>
  <speed>0.0</speed>
  <fix>3d</fix>
</trkpt>
<trkpt lat="-27.274439" lon="151.290064">
  <ele>343.1</ele>
  <time>2026-09-01T20:02:49Z</time>
  <course>270.44</course>
  <speed>0.0</speed>
  <fix>3d</fix>
</trkpt>
<trkpt lat="-27.274439" lon="151.290064">
  <ele>0.09</ele>
  <time>2026-09-01T20:02:49Z</time>
  <course>4.95</course>
  <speed>0.0</speed>
  <fix>3d</fix>
</trkpt>
<trkpt lat="-27.274439" lon="151.290064">
  <ele>343.1</ele>
  <time>2026-09-01T20:02:49Z</time>
  <course>270.05</course>
  <speed>0.0</speed>
  <fix>3d</fix>
</trkpt>
<trkpt lat="-27.274439" lon="151.290064">
  <ele>-0.05</ele>
  <time>2026-09-01T20:02:49Z</time>
  <course>5.5</course>
  <speed>0.0</speed>
  <fix>3d</fix>
</trkpt>
<trkpt lat="-27.274439" lon="151.290064">
  <ele>343.1</ele>
  <time>2026-09-01T20:02:49Z</time>
  <course>270.05</course>
  <speed>0.0</speed>
  <fix>3d</fix>
</trkpt>
<trkpt lat="-27.274439" lon="151.290064">
  <ele>343.06</ele>
  <time>2026-09-01T20:02:49Z</time>
  <course>5.98</course>
  <speed>0.0</speed>
  <fix>3d</fix>
</trkpt>
<trkpt lat="-27.274439" lon="151.290064">
  <ele>343.1</ele>
  <time>2026-09-01T20:02:49Z</time>
  <course>270.0</course>
  <speed>0.0</speed>
  <fix>3d</fix>
</trkpt>
<trkpt lat="-27.274439" lon="151.290064">
  <ele>343.18</ele>
  <time>2026-09-01T20:02:49Z</time>
  <course>6.44</course>
  <speed>0.0</speed>
  <fix>3d</fix>
</trkpt>
<trkpt lat="-27.274439" lon="151.290064">
  <ele>343.1</ele>
  <time>2026-09-01T20:02:49Z</time>
  <course>270.0</course>
  <speed>0.0</speed>
  <fix>3d</fix>
</trkpt>
<trkpt lat="-27.274439" lon="151.290064">
  <ele>342.91</ele>
  <time>2026-09-01T20:02:49Z</time>
  <course>6.85</course>
  <speed>0.0</speed>
  <fix>3d</fix>
</trkpt>
<trkpt lat="-27.274439" lon="151.290064">
  <ele>343.1</ele>
  <time>2026-09-01T20:02:49Z</time>
  <course>270.0</course>
  <speed>0.0</speed>
  <fix>3d</fix>
</trkpt>
<trkpt lat="-27.274439" lon="151.290064">
  <ele>343.06</ele>
  <time>2026-09-01T20:02:49Z</time>
  <course>7.22</course>
  <speed>0.0</speed>
  <fix>3d</fix>
</trkpt>
<trkpt lat="-27.274439" lon="151.290064">
  <ele>343.1</ele>
  <time>2026-09-01T20:02:49Z</time>
  <course>270.0</course>
  <speed>0.0</speed>
  <fix>3d</fix>
</trkpt>
<trkpt lat="-27.274439" lon="151.290064">
  <ele>343.13</ele>
  <time>2026-09-01T20:02:49Z</time>
  <course>7.56</course>
  <speed>0.0</speed>
  <fix>3d</fix>
</trkpt>
<trkpt lat="-27.274439" lon="151.290064">
  <ele>343.1</ele>
  <time>2026-09-01T20:02:49Z</time>
  <course>270.0</course>
  <speed>0.0</speed>
  <fix>3d</fix>
</trkpt>
<trkpt lat="-27.274439" lon="151.290064">
  <ele>343.04</ele>
  <time>2026-09-01T20:02:49Z</time>
  <course>7.87</course>
  <speed>0.0</speed>
  <fix>3d</fix>
</trkpt>
<trkpt lat="-27.274439" lon="151.290064">
  <ele>343.1</ele>
  <time>2026-09-01T20:02:49Z</time>
  <course>270.0</course>
  <speed>0.0</speed>
  <fix>3d</fix>
</trkpt>
<trkpt lat="-27.274439" lon="151.290064">
  <ele>342.88</ele>
  <time>2026-09-01T20:02:49Z</time>
  <course>8.14</course>
  <speed>0.0</speed>
  <fix>3d</fix>
</trkpt>
<trkpt lat="-27.274439" lon="151.290064">
  <ele>343.1</ele>
  <time>2026-09-01T20:02:49Z</time>
  <course>270.0</course>
  <speed>0.0</speed>
  <fix>3d</fix>
</trkpt>
<trkpt lat="-27.274439" lon="151.290064">
  <ele>343.02</ele>
  <time>2026-09-01T20:02:49Z</time>
  <course>8.39</course>
  <speed>0.0</speed>
  <fix>3d</fix>
</trkpt>
<trkpt lat="-27.274439" lon="151.290064">
  <ele>343.1</ele>
  <time>2026-09-01T20:02:49Z</time>
  <course>270.0</course>
  <speed>0.0</speed>
  <fix>3d</fix>
</trkpt>
<trkpt lat="-27.274439" lon="151.290064">
  <ele>343.23</ele>
  <time>2026-09-01T20:02:49Z</time>
  <course>8.63</course>
  <speed>0.0</speed>
  <fix>3d</fix>
</trkpt>
<trkpt lat="-27.274439" lon="151.290064">
  <ele>343.1</ele>
  <time>2026-09-01T20:02:49Z</time>
  <course>270.0</course>
  <speed>0.0</speed>
  <fix>3d</fix>
</trkpt>
<trkpt lat="-27.274439" lon="151.290064">
  <ele>343.17</ele>
  <time>2026-09-01T20:02:49Z</time>
  <course>8.83</course>
  <speed>0.0</speed>
  <fix>3d</fix>
</trkpt>
<trkpt lat="-27.274439" lon="151.290064">
  <ele>343.1</ele>
  <time>2026-09-01T20:02:49Z</time>
  <course>270.0</course>
  <speed>0.0</speed>
  <fix>3d</fix>
</trkpt>
<trkpt lat="-27.274439" lon="151.290064">
  <ele>343.04</ele>
  <time>2026-09-01T20:02:49Z</time>
  <course>9.01</course>
  <speed>0.0</speed>
  <fix>3d</fix>
</trkpt>
<trkpt lat="-27.274439" lon="151.290064">
  <ele>343.1</ele>
  <time>2026-09-01T20:02:49Z</time>
  <course>270.0</course>
  <speed>0.0</speed>
  <fix>3d</fix>
</trkpt>
<trkpt lat="-27.274439" lon="151.290064">
  <ele>342.89</ele>
  <time>2026-09-01T20:02:49Z</time>
  <course>9.18</course>
  <speed>0.0</speed>
  <fix>3d</fix>
</trkpt>
<trkpt lat="-27.274439" lon="151.290064">
  <ele>343.1</ele>
  <time>2026-09-01T20:02:49Z</time>
  <course>270.0</course>
  <speed>0.0</speed>
  <fix>3d</fix>
</trkpt>
<trkpt lat="-27.274439" lon="151.290064">
  <ele>343.08</ele>
  <time>2026-09-01T20:02:49Z</time>
  <course>9.33</course>
  <speed>0.0</speed>
  <fix>3d</fix>
</trkpt>
<trkpt lat="-27.274439" lon="151.290064">
  <ele>343.1</ele>
  <time>2026-09-01T20:02:49Z</time>
  <course>270.0</course>
  <speed>0.0</speed>
  <fix>3d</fix>
</trkpt>
<trkpt lat="-27.274439" lon="151.290064">
  <ele>343.19</ele>
  <time>2026-09-01T20:02:49Z</time>
  <course>9.47</course>
  <speed>0.0</speed>
  <fix>3d</fix>
</trkpt>
<trkpt lat="-27.274439" lon="151.290064">
  <ele>343.1</ele>
  <time>2026-09-01T20:02:49Z</time>
  <course>270.0</course>
  <speed>0.0</speed>
  <fix>3d</fix>
</trkpt>
<trkpt lat="-27.274439" lon="151.290064">
  <ele>342.88</ele>
  <time>2026-09-01T20:02:49Z</time>
  <course>9.59</course>
  <speed>0.0</speed>
  <fix>3d</fix>
</trkpt>
<trkpt lat="-27.274439" lon="151.290064">
  <ele>343.1</ele>
  <time>2026-09-01T20:02:49Z</time>
  <course>270.0</course>
  <speed>0.0</speed>
  <fix>3d</fix>
</trkpt>
<trkpt lat="-27.274439" lon="151.290064">
  <ele>343.17</ele>
  <time>2026-09-01T20:02:49Z</time>
  <course>9.7</course>
  <speed>0.0</speed>
  <fix>3d</fix>
</trkpt>
<trkpt lat="-27.274439" lon="151.290064">
  <ele>343.1</ele>
  <time>2026-09-01T20:02:49Z</time>
  <course>270.0</course>
  <speed>0.0</speed>
  <fix>3d</fix>
</trkpt>
<trkpt lat="-27.274439" lon="151.290064">
  <ele>342.89</ele>
  <time>2026-09-01T20:02:49Z</time>
  <course>9.8</course>
  <speed>0.0</speed>
  <fix>3d</fix>
</trkpt>
<trkpt lat="-27.274439" lon="151.290064">
  <ele>343.1</ele>
  <time>2026-09-01T20:02:49Z</time>
  <course>270.0</course>
  <speed>0.0</speed>
  <fix>3d</fix>
</trkpt>
<trkpt lat="-27.274439" lon="151.290064">
  <ele>342.99</ele>
  <time>2026-09-01T20:02:49Z</time>
  <course>9.9</course>
  <speed>0.0</speed>
  <fix>3d</fix>
</trkpt>
<trkpt lat="-27.274439" lon="151.290064">
  <ele>343.1</ele>
  <time>2026-09-01T20:02:49Z</time>
  <course>270.0</course>
  <speed>0.0</speed>
  <fix>3d</fix>
</trkpt>
<trkpt lat="-27.274439" lon="151.290064">
  <ele>342.87</ele>
  <time>2026-09-01T20:02:49Z</time>
  <course>9.98</course>
  <speed>0.0</speed>
  <fix>3d</fix>
</trkpt>
<trkpt lat="-27.274439" lon="151.290064">
  <ele>343.1</ele>
  <time>2026-09-01T20:02:49Z</time>
  <course>270.0</course>
  <speed>0.0</speed>
  <fix>3d</fix>
</trkpt>
<trkpt lat="-27.274439" lon="151.290064">
  <ele>343.09</ele>
  <time>2026-09-01T20:02:49Z</time>
  <course>10.06</course>
  <speed>0.0</speed>
  <fix>3d</fix>
</trkpt>
<trkpt lat="-27.274439" lon="151.290064">
  <ele>343.1</ele>
  <time>2026-09-01T20:02:49Z</time>
  <course>270.0</course>
  <speed>0.0</speed>
  <fix>3d</fix>
</trkpt>
<trkpt lat="-27.274439" lon="151.290064">
  <ele>343.18</ele>
  <time>2026-09-01T20:02:49Z</time>
  <course>10.13</course>
  <speed>0.0</speed>
  <fix>3d</fix>
</trkpt>
<trkpt lat="-27.274439" lon="151.290064">
  <ele>343.1</ele>
  <time>2026-09-01T20:02:49Z</time>
  <course>270.0</course>
  <speed>0.0</speed>
  <fix>3d</fix>
</trkpt>
<trkpt lat="-27.274439" lon="151.290064">
  <ele>343.05</ele>
  <time>2026-09-01T20:02:49Z</time>
  <course>10.2</course>
  <speed>0.0</speed>
  <fix>3d</fix>
</trkpt>
<trkpt lat="-27.274439" lon="151.290064">
  <ele>343.1</ele>
  <time>2026-09-01T20:02:49Z</time>
  <course>270.0</course>
  <speed>0.0</speed>
  <fix>3d</fix>
</trkpt>
<trkpt lat="-27.274439" lon="151.290064">
  <ele>342.96</ele>
  <time>2026-09-01T20:02:49Z</time>
  <course>10.25</course>
  <speed>0.0</speed>
  <fix>3d</fix>
</trkpt>
<trkpt lat="-27.274439" lon="151.290064">
  <ele>343.1</ele>
  <time>2026-09-01T20:02:49Z</time>
  <course>270.0</course>
  <speed>0.0</speed>
  <fix>3d</fix>
</trkpt>
<trkpt lat="-27.274439" lon="151.290064">
  <ele>343.1</ele>
  <time>2026-09-01T20:02:49Z</time>
  <course>10.31</course>
  <speed>0.0</speed>
  <fix>3d</fix>
</trkpt>
<trkpt lat="-27.274439" lon="151.290064">
  <ele>343.1</ele>
  <time>2026-09-01T20:02:49Z</time>
  <course>270.0</course>
  <speed>0.0</speed>
  <fix>3d</fix>
</trkpt>
<trkpt lat="-27.274439" lon="151.290064">
  <ele>343.22</ele>
  <time>2026-09-01T20:02:49Z</time>
  <course>10.35</course>
  <speed>0.0</speed>
  <fix>3d</fix>
</trkpt>
<trkpt lat="-27.274439" lon="151.290064">
  <ele>343.1</ele>
  <time>2026-09-01T20:02:49Z</time>
  <course>270.0</course>
  <speed>0.0</speed>
  <fix>3d</fix>
</trkpt>
<trkpt lat="-27.274439" lon="151.290064">
  <ele>343.17</ele>
  <time>2026-09-01T20:02:49Z</time>
  <course>10.4</course>
  <speed>0.0</speed>
  <fix>3d</fix>
</trkpt>
<trkpt lat="-27.274439" lon="151.290064">
  <ele>343.1</ele>
  <time>2026-09-01T20:02:49Z</time>
  <course>270.0</course>
  <speed>0.0</speed>
  <fix>3d</fix>
</trkpt>
<trkpt lat="-27.274439" lon="151.290064">
  <ele>343.08</ele>
  <time>2026-09-01T20:02:49Z</time>
  <course>10.44</course>
  <speed>0.0</speed>
  <fix>3d</fix>
</trkpt>
<trkpt lat="-27.274439" lon="151.290064">
  <ele>343.1</ele>
  <time>2026-09-01T20:02:49Z</time>
  <course>270.0</course>
  <speed>0.0</speed>
  <fix>3d</fix>
</trkpt>
<trkpt lat="-27.274439" lon="151.290064">
  <ele>343.04</ele>
  <time>2026-09-01T20:02:49Z</time>
  <course>10.47</course>
  <speed>0.0</speed>
  <fix>3d</fix>
</trkpt>
<trkpt lat="-27.274439" lon="151.290064">
  <ele>343.1</ele>
  <time>2026-09-01T20:02:49Z</time>
  <course>270.0</course>
  <speed>0.0</speed>
  <fix>3d</fix>
</trkpt>
<trkpt lat="-27.274439" lon="151.290064">
  <ele>343.18</ele>
  <time>2026-09-01T20:02:49Z</time>
  <course>10.5</course>
  <speed>0.0</speed>
  <fix>3d</fix>
</trkpt>
<trkpt lat="-27.274439" lon="151.290064">
  <ele>343.1</ele>
  <time>2026-09-01T20:02:49Z</time>
  <course>270.0</course>
  <speed>0.0</speed>
  <fix>3d</fix>
</trkpt>
<trkpt lat="-27.274439" lon="151.290064">
  <ele>343.12</ele>
  <time>2026-09-01T20:02:49Z</time>
  <course>10.53</course>
  <speed>0.0</speed>
  <fix>3d</fix>
</trkpt>
<trkpt lat="-27.274439" lon="151.290064">
  <ele>343.1</ele>
  <time>2026-09-01T20:02:49Z</time>
  <course>270.0</course>
  <speed>0.0</speed>
  <fix>3d</fix>
</trkpt>
<trkpt lat="-27.274439" lon="151.290064">
  <ele>343.04</ele>
  <time>2026-09-01T20:02:49Z</time>
  <course>10.56</course>
  <speed>0.0</speed>
  <fix>3d</fix>
</trkpt>
<trkpt lat="-27.274439" lon="151.290064">
  <ele>343.1</ele>
  <time>2026-09-01T20:02:49Z</time>
  <course>270.0</course>
  <speed>0.0</speed>
  <fix>3d</fix>
</trkpt>
<trkpt lat="-27.274439" lon="151.290064">
  <ele>343.07</ele>
  <time>2026-09-01T20:02:49Z</time>
  <course>10.58</course>
  <speed>0.0</speed>
  <fix>3d</fix>
</trkpt>
<trkpt lat="-27.274439" lon="151.290064">
  <ele>343.1</ele>
  <time>2026-09-01T20:02:49Z</time>
  <course>270.0</course>
  <speed>0.0</speed>
  <fix>3d</fix>
</trkpt>
<trkpt lat="-27.274439" lon="151.290064">
  <ele>343.04</ele>
  <time>2026-09-01T20:02:49Z</time>
  <course>10.6</course>
  <speed>0.0</speed>
  <fix>3d</fix>
</trkpt>
<trkpt lat="-27.274439" lon="151.290064">
  <ele>343.1</ele>
  <time>2026-09-01T20:02:49Z</time>
  <course>270.0</course>
  <speed>0.0</speed>
  <fix>3d</fix>
</trkpt>
<trkpt lat="-27.274439" lon="151.290064">
  <ele>343.01</ele>
  <time>2026-09-01T20:02:49Z</time>
  <course>10.62</course>
  <speed>0.0</speed>
  <fix>3d</fix>
</trkpt>
<trkpt lat="-27.274439" lon="151.290064">
  <ele>343.1</ele>
  <time>2026-09-01T20:02:49Z</time>
  <course>270.0</course>
  <speed>0.0</speed>
  <fix>3d</fix>
</trkpt>
<trkpt lat="-27.274439" lon="151.290064">
  <ele>343.2</ele>
  <time>2026-09-01T20:02:49Z</time>
  <course>10.64</course>
  <speed>0.0</speed>
  <fix>3d</fix>
</trkpt>
<trkpt lat="-27.274439" lon="151.290064">
  <ele>343.1</ele>
  <time>2026-09-01T20:02:49Z</time>
  <course>270.0</course>
  <speed>0.0</speed>
  <fix>3d</fix>
</trkpt>
<trkpt lat="-27.274439" lon="151.290064">
  <ele>343.24</ele>
  <time>2026-09-01T20:02:49Z</time>
  <course>10.65</course>
  <speed>0.0</speed>
  <fix>3d</fix>
</trkpt>
<trkpt lat="-27.274439" lon="151.290064">
  <ele>343.1</ele>
  <time>2026-09-01T20:02:49Z</time>
  <course>270.0</course>
  <speed>0.0</speed>
  <fix>3d</fix>
</trkpt>
<trkpt lat="-27.274439" lon="151.290064">
  <ele>342.88</ele>
  <time>2026-09-01T20:02:49Z</time>
  <course>10.67</course>
  <speed>0.0</speed>
  <fix>3d</fix>
</trkpt>
<trkpt lat="-27.274439" lon="151.290064">
  <ele>343.1</ele>
  <time>2026-09-01T20:02:49Z</time>
  <course>270.0</course>
  <speed>0.0</speed>
  <fix>3d</fix>
</trkpt>
<trkpt lat="-27.274439" lon="151.290064">
  <ele>343.21</ele>
  <time>2026-09-01T20:02:49Z</time>
  <course>10.68</course>
  <speed>0.0</speed>
  <fix>3d</fix>
</trkpt>
<trkpt lat="-27.274439" lon="151.290064">
  <ele>343.1</ele>
  <time>2026-09-01T20:02:49Z</time>
  <course>270.0</course>
  <speed>0.0</speed>
  <fix>3d</fix>
</trkpt>
<trkpt lat="-27.274439" lon="151.290064">
  <ele>343.02</ele>
  <time>2026-09-01T20:02:49Z</time>
  <course>10.69</course>
  <speed>0.0</speed>
  <fix>3d</fix>
</trkpt>
<trkpt lat="-27.274439" lon="151.290064">
  <ele>343.1</ele>
  <time>2026-09-01T20:02:49Z</time>
  <course>270.0</course>
  <speed>0.0</speed>
  <fix>3d</fix>
</trkpt>
<trkpt lat="-27.274439" lon="151.290064">
  <ele>342.93</ele>
  <time>2026-09-01T20:02:49Z</time>
  <course>10.7</course>
  <speed>0.0</speed>
  <fix>3d</fix>
</trkpt>
<trkpt lat="-27.274439" lon="151.290064">
  <ele>343.1</ele>
  <time>2026-09-01T20:02:49Z</time>
  <course>270.0</course>
  <speed>0.0</speed>
  <fix>3d</fix>
</trkpt>
<trkpt lat="-27.274439" lon="151.290064">
  <ele>343.07</ele>
  <time>2026-09-01T20:02:49Z</time>
  <course>10.71</course>
  <speed>0.0</speed>
  <fix>3d</fix>
</trkpt>
<trkpt lat="-27.274439" lon="151.290064">
  <ele>343.1</ele>
  <time>2026-09-01T20:02:49Z</time>
  <course>270.0</course>
  <speed>0.0</speed>
  <fix>3d</fix>
</trkpt>
<trkpt lat="-27.274439" lon="151.290064">
  <ele>342.94</ele>
  <time>2026-09-01T20:02:49Z</time>
  <course>10.72</course>
  <speed>0.0</speed>
  <fix>3d</fix>
</trkpt>
<trkpt lat="-27.274439" lon="151.290064">
  <ele>343.1</ele>
  <time>2026-09-01T20:02:49Z</time>
  <course>270.0</course>
  <speed>0.0</speed>
  <fix>3d</fix>
</trkpt>
<trkpt lat="-27.274439" lon="151.290064">
  <ele>343.11</ele>
  <time>2026-09-01T20:02:49Z</time>
  <course>10.73</course>
  <speed>0.0</speed>
  <fix>3d</fix>
</trkpt>
<trkpt lat="-27.274439" lon="151.290064">
  <ele>343.1</ele>
  <time>2026-09-01T20:02:49Z</time>
  <course>270.0</course>
  <speed>0.0</speed>
  <fix>3d</fix>
</trkpt>
<trkpt lat="-27.274439" lon="151.290064">
  <ele>343.24</ele>
  <time>2026-09-01T20:02:49Z</time>
  <course>10.73</course>
  <speed>0.0</speed>
  <fix>3d</fix>
</trkpt>
<trkpt lat="-27.274439" lon="151.290064">
  <ele>343.1</ele>
  <time>2026-09-01T20:02:49Z</time>
  <course>270.0</course>
  <speed>0.0</speed>
  <fix>3d</fix>
</trkpt>
<trkpt lat="-27.274439" lon="151.290064">
  <ele>343.18</ele>
  <time>2026-09-01T20:02:49Z</time>
  <course>10.74</course>
  <speed>0.0</speed>
  <fix>3d</fix>
</trkpt>
<trkpt lat="-27.274439" lon="151.290064">
  <ele>343.1</ele>
  <time>2026-09-01T20:02:49Z</time>
  <course>270.0</course>
  <speed>0.0</speed>
  <fix>3d</fix>
</trkpt>
<trkpt lat="-27.274439" lon="151.290064">
  <ele>342.89</ele>
  <time>2026-09-01T20:02:49Z</time>
  <course>10.75</course>
  <speed>0.0</speed>
  <fix>3d</fix>
</trkpt>
<trkpt lat="-27.274439" lon="151.290064">
  <ele>343.1</ele>
  <time>2026-09-01T20:02:49Z</time>
  <course>270.0</course>
  <speed>0.0</speed>
  <fix>3d</fix>
</trkpt>
<trkpt lat="-27.274439" lon="151.290064">
  <ele>343.23</ele>
  <time>2026-09-01T20:02:49Z</time>
  <course>10.75</course>
  <speed>0.0</speed>
  <fix>3d</fix>
</trkpt>
<trkpt lat="-27.274439" lon="151.290064">
  <ele>343.1</ele>
  <time>2026-09-01T20:02:49Z</time>
  <course>270.0</course>
  <speed>0.0</speed>
  <fix>3d</fix>
</trkpt>
<trkpt lat="-27.274439" lon="151.290064">
  <ele>343.23</ele>
  <time>2026-09-01T20:02:49Z</time>
  <course>10.76</course>
  <speed>0.0</speed>
  <fix>3d</fix>
</trkpt>
<trkpt lat="-27.274439" lon="151.290064">
  <ele>343.1</ele>
  <time>2026-09-01T20:02:49Z</time>
  <course>270.0</course>
  <speed>0.0</speed>
  <fix>3d</fix>
</trkpt>
<trkpt lat="-27.274439" lon="151.290064">
  <ele>342.99</ele>
  <time>2026-09-01T20:02:49Z</time>
  <course>10.76</course>
  <speed>0.0</speed>
  <fix>3d</fix>
</trkpt>
<trkpt lat="-27.274439" lon="151.290064">
  <ele>343.1</ele>
  <time>2026-09-01T20:02:49Z</time>
  <course>270.0</course>
  <speed>0.0</speed>
  <fix>3d</fix>
</trkpt>
<trkpt lat="-27.274439" lon="151.290064">
  <ele>343.13</ele>
  <time>2026-09-01T20:02:49Z</time>
  <course>10.76</course>
  <speed>0.0</speed>
  <fix>3d</fix>
</trkpt>
<trkpt lat="-27.274439" lon="151.290064">
  <ele>343.1</ele>
  <time>2026-09-01T20:02:49Z</time>
  <course>270.0</course>
  <speed>0.0</speed>
  <fix>3d</fix>
</trkpt>
<trkpt lat="-27.274439" lon="151.290064">
  <ele>343.07</ele>
  <time>2026-09-01T20:02:49Z</time>
  <course>10.77</course>
  <speed>0.0</speed>
  <fix>3d</fix>
</trkpt>
<trkpt lat="-27.274439" lon="151.290064">
  <ele>343.1</ele>
  <time>2026-09-01T20:02:49Z</time>
  <course>270.0</course>
  <speed>0.0</speed>
  <fix>3d</fix>
</trkpt>
<trkpt lat="-27.274439" lon="151.290064">
  <ele>343.19</ele>
  <time>2026-09-01T20:02:49Z</time>
  <course>10.77</course>
  <speed>0.0</speed>
  <fix>3d</fix>
</trkpt>
<trkpt lat="-27.274439" lon="151.290064">
  <ele>343.1</ele>
  <time>2026-09-01T20:02:49Z</time>
  <course>270.0</course>
  <speed>0.0</speed>
  <fix>3d</fix>
</trkpt>
<trkpt lat="-27.274439" lon="151.290064">
  <ele>342.93</ele>
  <time>2026-09-01T20:02:49Z</time>
  <course>10.77</course>
  <speed>0.0</speed>
  <fix>3d</fix>
</trkpt>
<trkpt lat="-27.274439" lon="151.290064">
  <ele>343.1</ele>
  <time>2026-09-01T20:02:49Z</time>
  <course>270.0</course>
  <speed>0.0</speed>
  <fix>3d</fix>
</trkpt>
<trkpt lat="-27.274439" lon="151.290064">
  <ele>343.19</ele>
  <time>2026-09-01T20:02:49Z</time>
  <course>10.78</course>
  <speed>0.0</speed>
  <fix>3d</fix>
</trkpt>
<trkpt lat="-27.274439" lon="151.290064">
  <ele>343.1</ele>
  <time>2026-09-01T20:02:49Z</time>
  <course>270.0</course>
  <speed>0.0</speed>
  <fix>3d</fix>
</trkpt>
<trkpt lat="-27.274439" lon="151.290064">
  <ele>343.1</ele>
  <time>2026-09-01T20:02:49Z</time>
  <course>10.78</course>
  <speed>0.0</speed>
  <fix>3d</fix>
</trkpt>
<trkpt lat="-27.274439" lon="151.290064">
  <ele>343.1</ele>
  <time>2026-09-01T20:02:49Z</time>
  <course>270.0</course>
  <speed>0.0</speed>
  <fix>3d</fix>
</trkpt>
<trkpt lat="-27.274439" lon="151.290064">
  <ele>343.01</ele>
  <time>2026-09-01T20:02:49Z</time>
  <course>10.78</course>
  <speed>0.0</speed>
  <fix>3d</fix>
</trkpt>
<trkpt lat="-27.274439" lon="151.290064">
  <ele>343.1</ele>
  <time>2026-09-01T20:02:49Z</time>
  <course>270.0</course>
  <speed>0.0</speed>
  <fix>3d</fix>
</trkpt>
<trkpt lat="-27.274439" lon="151.290064">
  <ele>343.11</ele>
  <time>2026-09-01T20:02:49Z</time>
  <course>10.78</course>
  <speed>0.0</speed>
  <fix>3d</fix>
</trkpt>
<trkpt lat="-27.274439" lon="151.290064">
  <ele>343.1</ele>
  <time>2026-09-01T20:02:49Z</time>
  <course>270.0</course>
  <speed>0.0</speed>
  <fix>3d</fix>
</trkpt>
<trkpt lat="-27.274439" lon="151.290064">
  <ele>342.96</ele>
  <time>2026-09-01T20:02:49Z</time>
  <course>10.78</course>
  <speed>0.0</speed>
  <fix>3d</fix>
</trkpt>
<trkpt lat="-27.274439" lon="151.290064">
  <ele>343.1</ele>
  <time>2026-09-01T20:02:49Z</time>
  <course>270.0</course>
  <speed>0.0</speed>
  <fix>3d</fix>
</trkpt>
<trkpt lat="-27.274439" lon="151.290064">
  <ele>343.19</ele>
  <time>2026-09-01T20:02:49Z</time>
  <course>10.79</course>
  <speed>0.0</speed>
  <fix>3d</fix>
</trkpt>
<trkpt lat="-27.274439" lon="151.290064">
  <ele>343.1</ele>
  <time>2026-09-01T20:02:49Z</time>
  <course>270.0</course>
  <speed>0.0</speed>
  <fix>3d</fix>
</trkpt>
<trkpt lat="-27.274439" lon="151.290064">
  <ele>343.0</ele>
  <time>2026-09-01T20:02:49Z</time>
  <course>10.79</course>
  <speed>0.0</speed>
  <fix>3d</fix>
</trkpt>
<trkpt lat="-27.274439" lon="151.290064">
  <ele>343.1</ele>
  <time>2026-09-01T20:02:49Z</time>
  <course>270.0</course>
  <speed>0.0</speed>
  <fix>3d</fix>
</trkpt>
<trkpt lat="-27.274439" lon="151.290064">
  <ele>343.2</ele>
  <time>2026-09-01T20:02:49Z</time>
  <course>10.79</course>
  <speed>0.0</speed>
  <fix>3d</fix>
</trkpt>
<trkpt lat="-27.274439" lon="151.290064">
  <ele>343.1</ele>
  <time>2026-09-01T20:02:49Z</time>
  <course>270.0</course>
  <speed>0.0</speed>
  <fix>3d</fix>
</trkpt>
<trkpt lat="-27.274439" lon="151.290064">
  <ele>343.2</ele>
  <time>2026-09-01T20:02:49Z</time>
  <course>10.79</course>
  <speed>0.0</speed>
  <fix>3d</fix>
</trkpt>
<trkpt lat="-27.274439" lon="151.290064">
  <ele>343.1</ele>
  <time>2026-09-01T20:02:49Z</time>
  <course>270.0</course>
  <speed>0.0</speed>
  <fix>3d</fix>
</trkpt>
<trkpt lat="-27.274439" lon="151.290064">
  <ele>343.13</ele>
  <time>2026-09-01T20:02:49Z</time>
  <course>10.79</course>
  <speed>0.0</speed>
  <fix>3d</fix>
</trkpt>
<trkpt lat="-27.274439" lon="151.290064">
  <ele>343.1</ele>
  <time>2026-09-01T20:02:49Z</time>
  <course>270.0</course>
  <speed>0.0</speed>
  <fix>3d</fix>
</trkpt>
<trkpt lat="-27.274439" lon="151.290064">
  <ele>343.1</ele>
  <time>2026-09-01T20:02:49Z</time>
  <course>10.79</course>
  <speed>0.0</speed>
  <fix>3d</fix>
</trkpt>
<trkpt lat="-27.274439" lon="151.290064">
  <ele>343.1</ele>
  <time>2026-09-01T20:02:49Z</time>
  <course>270.0</course>
  <speed>0.0</speed>
  <fix>3d</fix>
</trkpt>
<trkpt lat="-27.274439" lon="151.290064">
  <ele>343.12</ele>
  <time>2026-09-01T20:02:49Z</time>
  <course>10.79</course>
  <speed>0.0</speed>
  <fix>3d</fix>
</trkpt>
<trkpt lat="-27.274439" lon="151.290064">
  <ele>343.1</ele>
  <time>2026-09-01T20:02:49Z</time>
  <course>270.0</course>
  <speed>0.0</speed>
  <fix>3d</fix>
</trkpt>
<trkpt lat="-27.274439" lon="151.290064">
  <ele>342.94</ele>
  <time>2026-09-01T20:02:49Z</time>
  <course>10.79</course>
  <speed>0.0</speed>
  <fix>3d</fix>
</trkpt>
<trkpt lat="-27.274439" lon="151.290064">
  <ele>343.1</ele>
  <time>2026-09-01T20:02:49Z</time>
  <course>270.0</course>
  <speed>0.0</speed>
  <fix>3d</fix>
</trkpt>
<trkpt lat="-27.274439" lon="151.290064">
  <ele>343.25</ele>
  <time>2026-09-01T20:02:49Z</time>
  <course>10.79</course>
  <speed>0.0</speed>
  <fix>3d</fix>
</trkpt>
<trkpt lat="-27.274439" lon="151.290064">
  <ele>343.1</ele>
  <time>2026-09-01T20:02:49Z</time>
  <course>270.0</course>
  <speed>0.0</speed>
  <fix>3d</fix>
</trkpt>
<trkpt lat="-27.274439" lon="151.290064">
  <ele>342.93</ele>
  <time>2026-09-01T20:02:49Z</time>
  <course>10.79</course>
  <speed>0.0</speed>
  <fix>3d</fix>
</trkpt>
<trkpt lat="-27.274439" lon="151.290064">
  <ele>343.1</ele>
  <time>2026-09-01T20:02:49Z</time>
  <course>270.0</course>
  <speed>0.0</speed>
  <fix>3d</fix>
</trkpt>
<trkpt lat="-27.274439" lon="151.290064">
  <ele>343.08</ele>
  <time>2026-09-01T20:02:49Z</time>
  <course>10.79</course>
  <speed>0.0</speed>
  <fix>3d</fix>
</trkpt>
<trkpt lat="-27.274439" lon="151.290064">
  <ele>343.1</ele>
  <time>2026-09-01T20:02:49Z</time>
  <course>270.0</course>
  <speed>0.0</speed>
  <fix>3d</fix>
</trkpt>
<trkpt lat="-27.274439" lon="151.290064">
  <ele>343.23</ele>
  <time>2026-09-01T20:02:49Z</time>
  <course>10.8</course>
  <speed>0.0</speed>
  <fix>3d</fix>
</trkpt>
<trkpt lat="-27.274439" lon="151.290064">
  <ele>343.1</ele>
  <time>2026-09-01T20:02:49Z</time>
  <course>270.0</course>
  <speed>0.0</speed>
  <fix>3d</fix>
</trkpt>
<trkpt lat="-27.274439" lon="151.290064">
  <ele>343.01</ele>
  <time>2026-09-01T20:02:49Z</time>
  <course>10.8</course>
  <speed>0.0</speed>
  <fix>3d</fix>
</trkpt>
<trkpt lat="-27.274439" lon="151.290064">
  <ele>343.1</ele>
  <time>2026-09-01T20:02:49Z</time>
  <course>270.0</course>
  <speed>0.0</speed>
  <fix>3d</fix>
</trkpt>
<trkpt lat="-27.274439" lon="151.290064">
  <ele>343.1</ele>
  <time>2026-09-01T20:02:49Z</time>
  <course>10.8</course>
  <speed>0.0</speed>
  <fix>3d</fix>
</trkpt>
<trkpt lat="-27.274439" lon="151.290064">
  <ele>343.1</ele>
  <time>2026-09-01T20:02:49Z</time>
  <course>270.0</course>
  <speed>0.0</speed>
  <fix>3d</fix>
</trkpt>
<trkpt lat="-27.274439" lon="151.290064">
  <ele>342.99</ele>
  <time>2026-09-01T20:02:49Z</time>
  <course>10.8</course>
  <speed>0.0</speed>
  <fix>3d</fix>
</trkpt>
<trkpt lat="-27.274439" lon="151.290064">
  <ele>343.1</ele>
  <time>2026-09-01T20:02:49Z</time>
  <course>270.0</course>
  <speed>0.0</speed>
  <fix>3d</fix>
</trkpt>
<trkpt lat="-27.274439" lon="151.290064">
  <ele>342.87</ele>
  <time>2026-09-01T20:02:49Z</time>
  <course>10.8</course>
  <speed>0.0</speed>
  <fix>3d</fix>
</trkpt>
<trkpt lat="-27.274439" lon="151.290064">
  <ele>343.1</ele>
  <time>2026-09-01T20:02:49Z</time>
  <course>270.0</course>
  <speed>0.0</speed>
  <fix>3d</fix>
</trkpt>
<trkpt lat="-27.274439" lon="151.290064">
  <ele>343.1</ele>
  <time>2026-09-01T20:02:49Z</time>
  <course>10.8</course>
  <speed>0.0</speed>
  <fix>3d</fix>
</trkpt>
<trkpt lat="-27.274439" lon="151.290064">
  <ele>343.1</ele>
  <time>2026-09-01T20:02:49Z</time>
  <course>270.0</course>
  <speed>0.0</speed>
  <fix>3d</fix>
</trkpt>
<trkpt lat="-27.274439" lon="151.290064">
  <ele>342.99</ele>
  <time>2026-09-01T20:02:49Z</time>
  <course>10.8</course>
  <speed>0.0</speed>
  <fix>3d</fix>
</trkpt>
<trkpt lat="-27.274439" lon="151.290064">
  <ele>343.1</ele>
  <time>2026-09-01T20:02:49Z</time>
  <course>270.0</course>
  <speed>0.0</speed>
  <fix>3d</fix>
</trkpt>
<trkpt lat="-27.274439" lon="151.290064">
  <ele>342.91</ele>
  <time>2026-09-01T20:02:49Z</time>
  <course>10.8</course>
  <speed>0.0</speed>
  <fix>3d</fix>
</trkpt>
<trkpt lat="-27.274439" lon="151.290064">
  <ele>343.1</ele>
  <time>2026-09-01T20:02:49Z</time>
  <course>270.0</course>
  <speed>0.0</speed>
  <fix>3d</fix>
</trkpt>
<trkpt lat="-27.274439" lon="151.290064">
  <ele>342.9</ele>
  <time>2026-09-01T20:02:49Z</time>
  <course>10.8</course>
  <speed>0.0</speed>
  <fix>3d</fix>
</trkpt>
<trkpt lat="-27.274439" lon="151.290064">
  <ele>343.1</ele>
  <time>2026-09-01T20:02:49Z</time>
  <course>270.0</course>
  <speed>0.0</speed>
  <fix>3d</fix>
</trkpt>
<trkpt lat="-27.274439" lon="151.290064">
  <ele>342.87</ele>
  <time>2026-09-01T20:02:49Z</time>
  <course>10.8</course>
  <speed>0.0</speed>
  <fix>3d</fix>
</trkpt>
<trkpt lat="-27.274439" lon="151.290064">
  <ele>343.1</ele>
  <time>2026-09-01T20:02:49Z</time>
  <course>270.0</course>
  <speed>0.0</speed>
  <fix>3d</fix>
</trkpt>
<trkpt lat="-27.274439" lon="151.290064">
  <ele>343.12</ele>
  <time>2026-09-01T20:02:49Z</time>
  <course>10.8</course>
  <speed>0.0</speed>
  <fix>3d</fix>
</trkpt>
<trkpt lat="-27.274439" lon="151.290064">
  <ele>343.1</ele>
  <time>2026-09-01T20:02:49Z</time>
  <course>270.0</course>
  <speed>0.0</speed>
  <fix>3d</fix>
</trkpt>
<trkpt lat="-27.274439" lon="151.290064">
  <ele>342.99</ele>
  <time>2026-09-01T20:02:49Z</time>
  <course>10.8</course>
  <speed>0.0</speed>
  <fix>3d</fix>
</trkpt>
<trkpt lat="-27.274439" lon="151.290064">
  <ele>343.1</ele>
  <time>2026-09-01T20:02:49Z</time>
  <course>270.0</course>
  <speed>0.0</speed>
  <fix>3d</fix>
</trkpt>
<trkpt lat="-27.274439" lon="151.290064">
  <ele>343.13</ele>
  <time>2026-09-01T20:02:49Z</time>
  <course>10.8</course>
  <speed>0.0</speed>
  <fix>3d</fix>
</trkpt>
<trkpt lat="-27.274439" lon="151.290064">
  <ele>343.1</ele>
  <time>2026-09-01T20:02:49Z</time>
  <course>270.0</course>
  <speed>0.0</speed>
  <fix>3d</fix>
</trkpt>
<trkpt lat="-27.274439" lon="151.290064">
  <ele>343.0</ele>
  <time>2026-09-01T20:02:49Z</time>
  <course>10.8</course>
  <speed>0.0</speed>
  <fix>3d</fix>
</trkpt>
<trkpt lat="-27.274439" lon="151.290064">
  <ele>343.1</ele>
  <time>2026-09-01T20:02:49Z</time>
  <course>270.0</course>
  <speed>0.0</speed>
  <fix>3d</fix>
</trkpt>
<trkpt lat="-27.274439" lon="151.290064">
  <ele>343.17</ele>
  <time>2026-09-01T20:02:49Z</time>
  <course>10.8</course>
  <speed>0.0</speed>
  <fix>3d</fix>
</trkpt>
<trkpt lat="-27.274439" lon="151.290064">
  <ele>343.1</ele>
  <time>2026-09-01T20:02:49Z</time>
  <course>270.0</course>
  <speed>0.0</speed>
  <fix>3d</fix>
</trkpt>
<trkpt lat="-27.274439" lon="151.290064">
  <ele>343.0</ele>
  <time>2026-09-01T20:02:49Z</time>
  <course>10.8</course>
  <speed>0.0</speed>
  <fix>3d</fix>
</trkpt>
<trkpt lat="-27.274439" lon="151.290064">
  <ele>343.1</ele>
  <time>2026-09-01T20:02:49Z</time>
  <course>270.0</course>
  <speed>0.0</speed>
  <fix>3d</fix>
</trkpt>
<trkpt lat="-27.274439" lon="151.290064">
  <ele>342.99</ele>
  <time>2026-09-01T20:02:49Z</time>
  <course>10.8</course>
  <speed>0.0</speed>
  <fix>3d</fix>
</trkpt>
<trkpt lat="-27.274439" lon="151.290064">
  <ele>343.1</ele>
  <time>2026-09-01T20:02:49Z</time>
  <course>270.0</course>
  <speed>0.0</speed>
  <fix>3d</fix>
</trkpt>
<trkpt lat="-27.274439" lon="151.290064">
  <ele>343.17</ele>
  <time>2026-09-01T20:02:49Z</time>
  <course>10.8</course>
  <speed>0.0</speed>
  <fix>3d</fix>
</trkpt>
<trkpt lat="-27.274439" lon="151.290064">
  <ele>343.1</ele>
  <time>2026-09-01T20:02:49Z</time>
  <course>270.0</course>
  <speed>0.0</speed>
  <fix>3d</fix>
</trkpt>
<trkpt lat="-27.274439" lon="151.290064">
  <ele>343.16</ele>
  <time>2026-09-01T20:02:49Z</time>
  <course>10.8</course>
  <speed>0.0</speed>
  <fix>3d</fix>
</trkpt>
<trkpt lat="-27.274439" lon="151.290064">
  <ele>343.1</ele>
  <time>2026-09-01T20:02:49Z</time>
  <course>270.0</course>
  <speed>0.0</speed>
  <fix>3d</fix>
</trkpt>
<trkpt lat="-27.274439" lon="151.290064">
  <ele>342.87</ele>
  <time>2026-09-01T20:02:49Z</time>
  <course>10.8</course>
  <speed>0.0</speed>
  <fix>3d</fix>
</trkpt>
<trkpt lat="-27.274439" lon="151.290064">
  <ele>343.1</ele>
  <time>2026-09-01T20:02:49Z</time>
  <course>270.0</course>
  <speed>0.0</speed>
  <fix>3d</fix>
</trkpt>
<trkpt lat="-27.274439" lon="151.290064">
  <ele>343.19</ele>
  <time>2026-09-01T20:02:49Z</time>
  <course>10.8</course>
  <speed>0.0</speed>
  <fix>3d</fix>
</trkpt>
<trkpt lat="-27.274439" lon="151.290064">
  <ele>343.1</ele>
  <time>2026-09-01T20:02:49Z</time>
  <course>270.0</course>
  <speed>0.0</speed>
  <fix>3d</fix>
</trkpt>
<trkpt lat="-27.274439" lon="151.290064">
  <ele>343.16</ele>
  <time>2026-09-01T20:02:49Z</time>
  <course>10.8</course>
  <speed>0.0</speed>
  <fix>3d</fix>
</trkpt>
<trkpt lat="-27.274439" lon="151.290064">
  <ele>343.1</ele>
  <time>2026-09-01T20:02:49Z</time>
  <course>270.0</course>
  <speed>0.0</speed>
  <fix>3d</fix>
</trkpt>
<trkpt lat="-27.274439" lon="151.290064">
  <ele>343.21</ele>
  <time>2026-09-01T20:02:49Z</time>
  <course>10.8</course>
  <speed>0.0</speed>
  <fix>3d</fix>
</trkpt>
<trkpt lat="-27.274439" lon="151.290064">
  <ele>343.1</ele>
  <time>2026-09-01T20:02:49Z</time>
  <course>270.0</course>
  <speed>0.0</speed>
  <fix>3d</fix>
</trkpt>
<trkpt lat="-27.274439" lon="151.290064">
  <ele>343.22</ele>
  <time>2026-09-01T20:02:49Z</time>
  <course>10.8</course>
  <speed>0.0</speed>
  <fix>3d</fix>
</trkpt>
<trkpt lat="-27.274439" lon="151.290064">
  <ele>343.1</ele>
  <time>2026-09-01T20:02:49Z</time>
  <course>270.0</course>
  <speed>0.0</speed>
  <fix>3d</fix>
</trkpt>
<trkpt lat="-27.274439" lon="151.290064">
  <ele>343.24</ele>
  <time>2026-09-01T20:02:49Z</time>
  <course>10.8</course>
  <speed>0.0</speed>
  <fix>3d</fix>
</trkpt>
<trkpt lat="-27.274439" lon="151.290064">
  <ele>343.1</ele>
  <time>2026-09-01T20:02:49Z</time>
  <course>270.0</course>
  <speed>0.0</speed>
  <fix>3d</fix>
</trkpt>
<trkpt lat="-27.274439" lon="151.290064">
  <ele>343.0</ele>
  <time>2026-09-01T20:02:49Z</time>
  <course>10.8</course>
  <speed>0.0</speed>
  <fix>3d</fix>
</trkpt>
<trkpt lat="-27.274439" lon="151.290064">
  <ele>343.1</ele>
  <time>2026-09-01T20:02:49Z</time>
  <course>270.0</course>
  <speed>0.0</speed>
  <fix>3d</fix>
</trkpt>
<trkpt lat="-27.274439" lon="151.290064">
  <ele>343.1</ele>
  <time>2026-09-01T20:02:49Z</time>
  <course>10.8</course>
  <speed>0.0</speed>
  <fix>3d</fix>
</trkpt>
<trkpt lat="-27.274439" lon="151.290064">
  <ele>343.1</ele>
  <time>2026-09-01T20:02:49Z</time>
  <course>270.0</course>
  <speed>0.0</speed>
  <fix>3d</fix>
</trkpt>
<trkpt lat="-27.274439" lon="151.290064">
  <ele>343.05</ele>
  <time>2026-09-01T20:02:49Z</time>
  <course>10.8</course>
  <speed>0.0</speed>
  <fix>3d</fix>
</trkpt>
<trkpt lat="-27.274439" lon="151.290064">
  <ele>343.1</ele>
  <time>2026-09-01T20:02:49Z</time>
  <course>270.0</course>
  <speed>0.0</speed>
  <fix>3d</fix>
</trkpt>
<trkpt lat="-27.274439" lon="151.290064">
  <ele>342.87</ele>
  <time>2026-09-01T20:02:49Z</time>
  <course>10.8</course>
  <speed>0.0</speed>
  <fix>3d</fix>
</trkpt>
<trkpt lat="-27.274439" lon="151.290064">
  <ele>343.1</ele>
  <time>2026-09-01T20:02:49Z</time>
  <course>270.0</course>
  <speed>0.0</speed>
  <fix>3d</fix>
</trkpt>
<trkpt lat="-27.274439" lon="151.290064">
  <ele>342.92</ele>
  <time>2026-09-01T20:02:49Z</time>
  <course>10.8</course>
  <speed>0.0</speed>
  <fix>3d</fix>
</trkpt>
<trkpt lat="-27.274439" lon="151.290064">
  <ele>343.1</ele>
  <time>2026-09-01T20:02:49Z</time>
  <course>270.0</course>
  <speed>0.0</speed>
  <fix>3d</fix>
</trkpt>
<trkpt lat="-27.274439" lon="151.290064">
  <ele>342.96</ele>
  <time>2026-09-01T20:02:49Z</time>
  <course>10.8</course>
  <speed>0.0</speed>
  <fix>3d</fix>
</trkpt>
<trkpt lat="-27.274439" lon="151.290064">
  <ele>343.1</ele>
  <time>2026-09-01T20:02:49Z</time>
  <course>270.0</course>
  <speed>0.0</speed>
  <fix>3d</fix>
</trkpt>
<trkpt lat="-27.274439" lon="151.290064">
  <ele>343.15</ele>
  <time>2026-09-01T20:02:49Z</time>
  <course>10.8</course>
  <speed>0.0</speed>
  <fix>3d</fix>
</trkpt>
<trkpt lat="-27.274439" lon="151.290064">
  <ele>343.1</ele>
  <time>2026-09-01T20:02:49Z</time>
  <course>270.0</course>
  <speed>0.0</speed>
  <fix>3d</fix>
</trkpt>
<trkpt lat="-27.274439" lon="151.290064">
  <ele>343.16</ele>
  <time>2026-09-01T20:02:49Z</time>
  <course>10.8</course>
  <speed>0.0</speed>
  <fix>3d</fix>
</trkpt>
<trkpt lat="-27.274439" lon="151.290064">
  <ele>343.1</ele>
  <time>2026-09-01T20:02:49Z</time>
  <course>270.0</course>
  <speed>0.0</speed>
  <fix>3d</fix>
</trkpt>
<trkpt lat="-27.274439" lon="151.290064">
  <ele>343.2</ele>
  <time>2026-09-01T20:02:49Z</time>
  <course>10.81</course>
  <speed>0.0</speed>
  <fix>3d</fix>
</trkpt>
<trkpt lat="-27.274439" lon="151.290064">
  <ele>343.1</ele>
  <time>2026-09-01T20:02:49Z</time>
  <course>270.0</course>
  <speed>0.0</speed>
  <fix>3d</fix>
</trkpt>
<trkpt lat="-27.274439" lon="151.290064">
  <ele>343.13</ele>
  <time>2026-09-01T20:02:49Z</time>
  <course>10.82</course>
  <speed>0.0</speed>
  <fix>3d</fix>
</trkpt>
<trkpt lat="-27.274439" lon="151.290064">
  <ele>343.1</ele>
  <time>2026-09-01T20:02:49Z</time>
  <course>270.0</course>
  <speed>0.0</speed>
  <fix>3d</fix>
</trkpt>
<trkpt lat="-27.274439" lon="151.290064">
  <ele>343.09</ele>
  <time>2026-09-01T20:02:49Z</time>
  <course>10.71</course>
  <speed>0.0</speed>
  <fix>3d</fix>
</trkpt>
<trkpt lat="-27.274439" lon="151.290064">
  <ele>343.1</ele>
  <time>2026-09-01T20:02:49Z</time>
  <course>270.0</course>
  <speed>0.0</speed>
  <fix>3d</fix>
</trkpt>
<trkpt lat="-27.274439" lon="151.290064">
  <ele>343.09</ele>
  <time>2026-09-01T20:02:49Z</time>
  <course>10.71</course>
  <speed>0.0</speed>
  <fix>3d</fix>
</trkpt>
<trkpt lat="-27.274439" lon="151.290064">
  <ele>343.1</ele>
  <time>2026-09-01T20:02:49Z</time>
  <course>270.0</course>
  <speed>0.0</speed>
  <fix>3d</fix>
</trkpt>
<trkpt lat="-27.274439" lon="151.290064">
  <ele>343.1</ele>
  <time>2026-09-01T20:02:49Z</time>
  <course>10.71</course>
  <speed>0.0</speed>
  <fix>3d</fix>
</trkpt>
<trkpt lat="-27.274439" lon="151.290064">
  <ele>343.1</ele>
  <time>2026-09-01T20:02:49Z</time>
  <course>270.0</course>
  <speed>0.0</speed>
  <fix>3d</fix>
</trkpt>
<trkpt lat="-27.274439" lon="151.290064">
  <ele>343.1</ele>
  <time>2026-09-01T20:02:49Z</time>
  <course>10.71</course>
  <speed>0.0</speed>
  <fix>3d</fix>
</trkpt>
<trkpt lat="-27.274439" lon="151.290064">
  <ele>343.1</ele>
  <time>2026-09-01T20:02:49Z</time>
  <course>270.0</course>
  <speed>0.0</speed>
  <fix>3d</fix>
</trkpt>
<trkpt lat="-27.274439" lon="151.290064">
  <ele>343.1</ele>
  <time>2026-09-01T20:02:49Z</time>
  <course>10.71</course>
  <speed>0.0</speed>
  <fix>3d</fix>
</trkpt>
<trkpt lat="-27.274439" lon="151.290064">
  <ele>343.1</ele>
  <time>2026-09-01T20:02:49Z</time>
  <course>270.0</course>
  <speed>0.0</speed>
  <fix>3d</fix>
</trkpt>
<trkpt lat="-27.274439" lon="151.290064">
  <ele>343.1</ele>
  <time>2026-09-01T20:02:49Z</time>
  <course>10.71</course>
  <speed>0.0</speed>
  <fix>3d</fix>
</trkpt>
<trkpt lat="-27.274439" lon="151.290064">
  <ele>343.1</ele>
  <time>2026-09-01T20:02:49Z</time>
  <course>270.0</course>
  <speed>0.0</speed>
  <fix>3d</fix>
</trkpt>
<trkpt lat="-27.274439" lon="151.290064">
  <ele>343.1</ele>
  <time>2026-09-01T20:02:49Z</time>
  <course>10.71</course>
  <speed>0.0</speed>
  <fix>3d</fix>
</trkpt>
<trkpt lat="-27.274439" lon="151.290064">
  <ele>343.1</ele>
  <time>2026-09-01T20:02:49Z</time>
  <course>270.0</course>
  <speed>0.0</speed>
  <fix>3d</fix>
</trkpt>
<trkpt lat="-27.274439" lon="151.290064">
  <ele>343.11</ele>
  <time>2026-09-01T20:02:49Z</time>
  <course>10.71</course>
  <speed>0.0</speed>
  <fix>3d</fix>
</trkpt>
<trkpt lat="-27.274439" lon="151.290064">
  <ele>343.1</ele>
  <time>2026-09-01T20:02:49Z</time>
  <course>270.0</course>
  <speed>0.0</speed>
  <fix>3d</fix>
</trkpt>
<trkpt lat="-27.274439" lon="151.290064">
  <ele>343.11</ele>
  <time>2026-09-01T20:02:49Z</time>
  <course>10.71</course>
  <speed>0.0</speed>
  <fix>3d</fix>
</trkpt>
<trkpt lat="-27.274439" lon="151.290064">
  <ele>343.1</ele>
  <time>2026-09-01T20:02:49Z</time>
  <course>270.0</course>
  <speed>0.0</speed>
  <fix>3d</fix>
</trkpt>
<trkpt lat="-27.274439" lon="151.290064">
  <ele>343.11</ele>
  <time>2026-09-01T20:02:49Z</time>
  <course>10.71</course>
  <speed>0.0</speed>
  <fix>3d</fix>
</trkpt>
<trkpt lat="-27.274439" lon="151.290064">
  <ele>343.1</ele>
  <time>2026-09-01T20:02:49Z</time>
  <course>270.0</course>
  <speed>0.0</speed>
  <fix>3d</fix>
</trkpt>
<trkpt lat="-27.274439" lon="151.290064">
  <ele>343.12</ele>
  <time>2026-09-01T20:02:49Z</time>
  <course>10.71</course>
  <speed>0.0</speed>
  <fix>3d</fix>
</trkpt>
<trkpt lat="-27.274439" lon="151.290064">
  <ele>343.1</ele>
  <time>2026-09-01T20:02:49Z</time>
  <course>270.0</course>
  <speed>0.0</speed>
  <fix>3d</fix>
</trkpt>
<trkpt lat="-27.274439" lon="151.290064">
  <ele>343.12</ele>
  <time>2026-09-01T20:02:49Z</time>
  <course>10.71</course>
  <speed>0.0</speed>
  <fix>3d</fix>
</trkpt>
<trkpt lat="-27.274439" lon="151.290064">
  <ele>343.1</ele>
  <time>2026-09-01T20:02:49Z</time>
  <course>270.0</course>
  <speed>0.0</speed>
  <fix>3d</fix>
</trkpt>
<trkpt lat="-27.274439" lon="151.290064">
  <ele>343.1</ele>
  <time>2026-09-01T20:02:49Z</time>
  <course>10.71</course>
  <speed>0.0</speed>
  <fix>3d</fix>
</trkpt>
<trkpt lat="-27.274439" lon="151.290064">
  <ele>343.1</ele>
  <time>2026-09-01T20:02:49Z</time>
  <course>270.0</course>
  <speed>0.0</speed>
  <fix>3d</fix>
</trkpt>
<trkpt lat="-27.274439" lon="151.290064">
  <ele>343.1</ele>
  <time>2026-09-01T20:02:49Z</time>
  <course>10.71</course>
  <speed>0.0</speed>
  <fix>3d</fix>
</trkpt>
<trkpt lat="-27.274439" lon="151.290064">
  <ele>343.1</ele>
  <time>2026-09-01T20:02:49Z</time>
  <course>270.0</course>
  <speed>0.0</speed>
  <fix>3d</fix>
</trkpt>
<trkpt lat="-27.274439" lon="151.290064">
  <ele>343.1</ele>
  <time>2026-09-01T20:02:49Z</time>
  <course>10.71</course>
  <speed>0.0</speed>
  <fix>3d</fix>
</trkpt>
<trkpt lat="-27.274439" lon="151.290064">
  <ele>343.1</ele>
  <time>2026-09-01T20:02:49Z</time>
  <course>270.0</course>
  <speed>0.0</speed>
  <fix>3d</fix>
</trkpt>
<trkpt lat="-27.274439" lon="151.290064">
  <ele>343.09</ele>
  <time>2026-09-01T20:02:49Z</time>
  <course>10.71</course>
  <speed>0.0</speed>
  <fix>3d</fix>
</trkpt>
<trkpt lat="-27.274439" lon="151.290064">
  <ele>343.1</ele>
  <time>2026-09-01T20:02:49Z</time>
  <course>270.0</course>
  <speed>0.0</speed>
  <fix>3d</fix>
</trkpt>
<trkpt lat="-27.274439" lon="151.290064">
  <ele>343.09</ele>
  <time>2026-09-01T20:02:49Z</time>
  <course>10.71</course>
  <speed>0.0</speed>
  <fix>3d</fix>
</trkpt>
<trkpt lat="-27.274439" lon="151.290064">
  <ele>343.1</ele>
  <time>2026-09-01T20:02:49Z</time>
  <course>270.0</course>
  <speed>0.0</speed>
  <fix>3d</fix>
</trkpt>
<trkpt lat="-27.274439" lon="151.290064">
  <ele>343.09</ele>
  <time>2026-09-01T20:02:49Z</time>
  <course>10.71</course>
  <speed>0.0</speed>
  <fix>3d</fix>
</trkpt>
<trkpt lat="-27.274439" lon="151.290064">
  <ele>343.1</ele>
  <time>2026-09-01T20:02:49Z</time>
  <course>270.0</course>
  <speed>0.0</speed>
  <fix>3d</fix>
</trkpt>
<trkpt lat="-27.274439" lon="151.290064">
  <ele>343.1</ele>
  <time>2026-09-01T20:02:49Z</time>
  <course>10.71</course>
  <speed>0.0</speed>
  <fix>3d</fix>
</trkpt>
<trkpt lat="-27.274439" lon="151.290064">
  <ele>343.1</ele>
  <time>2026-09-01T20:02:49Z</time>
  <course>270.0</course>
  <speed>0.0</speed>
  <fix>3d</fix>
</trkpt>
<trkpt lat="-27.274439" lon="151.290064">
  <ele>343.1</ele>
  <time>2026-09-01T20:02:49Z</time>
  <course>10.71</course>
  <speed>0.0</speed>
  <fix>3d</fix>
</trkpt>
<trkpt lat="-27.274439" lon="151.290064">
  <ele>343.1</ele>
  <time>2026-09-01T20:02:49Z</time>
  <course>270.0</course>
  <speed>0.0</speed>
  <fix>3d</fix>
</trkpt>
<trkpt lat="-27.274439" lon="151.290064">
  <ele>343.09</ele>
  <time>2026-09-01T20:02:49Z</time>
  <course>10.71</course>
  <speed>0.0</speed>
  <fix>3d</fix>
</trkpt>
<trkpt lat="-27.274439" lon="151.290064">
  <ele>343.1</ele>
  <time>2026-09-01T20:02:49Z</time>
  <course>270.0</course>
  <speed>0.0</speed>
  <fix>3d</fix>
</trkpt>
<trkpt lat="-27.274439" lon="151.290064">
  <ele>343.09</ele>
  <time>2026-09-01T20:02:49Z</time>
  <course>10.71</course>
  <speed>0.0</speed>
  <fix>3d</fix>
</trkpt>
<trkpt lat="-27.274439" lon="151.290064">
  <ele>343.1</ele>
  <time>2026-09-01T20:02:49Z</time>
  <course>270.0</course>
  <speed>0.0</speed>
  <fix>3d</fix>
</trkpt>
<trkpt lat="-27.274439" lon="151.290064">
  <ele>343.09</ele>
  <time>2026-09-01T20:02:49Z</time>
  <course>10.71</course>
  <speed>0.0</speed>
  <fix>3d</fix>
</trkpt>
<trkpt lat="-27.274439" lon="151.290064">
  <ele>343.1</ele>
  <time>2026-09-01T20:02:49Z</time>
  <course>270.0</course>
  <speed>0.0</speed>
  <fix>3d</fix>
</trkpt>
<trkpt lat="-27.274439" lon="151.290064">
  <ele>343.09</ele>
  <time>2026-09-01T20:02:49Z</time>
  <course>10.71</course>
  <speed>0.0</speed>
  <fix>3d</fix>
</trkpt>
<trkpt lat="-27.274439" lon="151.290064">
  <ele>343.1</ele>
  <time>2026-09-01T20:02:49Z</time>
  <course>270.0</course>
  <speed>0.0</speed>
  <fix>3d</fix>
</trkpt>
<trkpt lat="-27.274439" lon="151.290064">
  <ele>343.09</ele>
  <time>2026-09-01T20:02:49Z</time>
  <course>10.71</course>
  <speed>0.0</speed>
  <fix>3d</fix>
</trkpt>
<trkpt lat="-27.274439" lon="151.290064">
  <ele>343.1</ele>
  <time>2026-09-01T20:02:49Z</time>
  <course>270.0</course>
  <speed>0.0</speed>
  <fix>3d</fix>
</trkpt>
<trkpt lat="-27.274439" lon="151.290064">
  <ele>343.09</ele>
  <time>2026-09-01T20:02:49Z</time>
  <course>10.71</course>
  <speed>0.0</speed>
  <fix>3d</fix>
</trkpt>
<trkpt lat="-27.274439" lon="151.290064">
  <ele>343.1</ele>
  <time>2026-09-01T20:02:49Z</time>
  <course>270.0</course>
  <speed>0.0</speed>
  <fix>3d</fix>
</trkpt>
<trkpt lat="-27.274439" lon="151.290064">
  <ele>343.09</ele>
  <time>2026-09-01T20:02:49Z</time>
  <course>10.71</course>
  <speed>0.0</speed>
  <fix>3d</fix>
</trkpt>
<trkpt lat="-27.274439" lon="151.290064">
  <ele>343.1</ele>
  <time>2026-09-01T20:02:49Z</time>
  <course>270.0</course>
  <speed>0.0</speed>
  <fix>3d</fix>
</trkpt>
<trkpt lat="-27.274439" lon="151.290064">
  <ele>343.09</ele>
  <time>2026-09-01T20:02:49Z</time>
  <course>10.71</course>
  <speed>0.0</speed>
  <fix>3d</fix>
</trkpt>
<trkpt lat="-27.274439" lon="151.290064">
  <ele>343.1</ele>
  <time>2026-09-01T20:02:49Z</time>
  <course>270.0</course>
  <speed>0.0</speed>
  <fix>3d</fix>
</trkpt>
<trkpt lat="-27.274439" lon="151.290064">
  <ele>343.1</ele>
  <time>2026-09-01T20:02:49Z</time>
  <course>10.71</course>
  <speed>0.0</speed>
  <fix>3d</fix>
</trkpt>
<trkpt lat="-27.274439" lon="151.290064">
  <ele>343.1</ele>
  <time>2026-09-01T20:02:49Z</time>
  <course>270.0</course>
  <speed>0.0</speed>
  <fix>3d</fix>
</trkpt>
<trkpt lat="-27.274439" lon="151.290064">
  <ele>343.1</ele>
  <time>2026-09-01T20:02:49Z</time>
  <course>10.71</course>
  <speed>0.0</speed>
  <fix>3d</fix>
</trkpt>
<trkpt lat="-27.274439" lon="151.290064">
  <ele>343.1</ele>
  <time>2026-09-01T20:02:49Z</time>
  <course>270.0</course>
  <speed>0.0</speed>
  <fix>3d</fix>
</trkpt>
<trkpt lat="-27.274439" lon="151.290064">
  <ele>343.1</ele>
  <time>2026-09-01T20:02:49Z</time>
  <course>10.71</course>
  <speed>0.0</speed>
  <fix>3d</fix>
</trkpt>
<trkpt lat="-27.274439" lon="151.290064">
  <ele>343.1</ele>
  <time>2026-09-01T20:02:49Z</time>
  <course>270.0</course>
  <speed>0.0</speed>
  <fix>3d</fix>
</trkpt>
<trkpt lat="-27.274439" lon="151.290064">
  <ele>343.1</ele>
  <time>2026-09-01T20:02:49Z</time>
  <course>10.71</course>
  <speed>0.0</speed>
  <fix>3d</fix>
</trkpt>
<trkpt lat="-27.274439" lon="151.290064">
  <ele>343.1</ele>
  <time>2026-09-01T20:02:49Z</time>
  <course>270.0</course>
  <speed>0.0</speed>
  <fix>3d</fix>
</trkpt>
<trkpt lat="-27.274439" lon="151.290064">
  <ele>343.1</ele>
  <time>2026-09-01T20:02:49Z</time>
  <course>10.71</course>
  <speed>0.0</speed>
  <fix>3d</fix>
</trkpt>
<trkpt lat="-27.274439" lon="151.290064">
  <ele>343.1</ele>
  <time>2026-09-01T20:02:49Z</time>
  <course>270.0</course>
  <speed>0.0</speed>
  <fix>3d</fix>
</trkpt>
<trkpt lat="-27.274439" lon="151.290064">
  <ele>343.1</ele>
  <time>2026-09-01T20:02:49Z</time>
  <course>10.71</course>
  <speed>0.0</speed>
  <fix>3d</fix>
</trkpt>
<trkpt lat="-27.274439" lon="151.290064">
  <ele>343.1</ele>
  <time>2026-09-01T20:02:49Z</time>
  <course>270.0</course>
  <speed>0.0</speed>
  <fix>3d</fix>
</trkpt>
<trkpt lat="-27.274439" lon="151.290064">
  <ele>343.09</ele>
  <time>2026-09-01T20:02:49Z</time>
  <course>10.71</course>
  <speed>0.0</speed>
  <fix>3d</fix>
</trkpt>
<trkpt lat="-27.274439" lon="151.290064">
  <ele>343.1</ele>
  <time>2026-09-01T20:02:49Z</time>
  <course>270.0</course>
  <speed>0.0</speed>
  <fix>3d</fix>
</trkpt>
<trkpt lat="-27.274439" lon="151.290064">
  <ele>343.09</ele>
  <time>2026-09-01T20:02:49Z</time>
  <course>10.71</course>
  <speed>0.0</speed>
  <fix>3d</fix>
</trkpt>
<trkpt lat="-27.274439" lon="151.290064">
  <ele>343.1</ele>
  <time>2026-09-01T20:02:49Z</time>
  <course>270.0</course>
  <speed>0.0</speed>
  <fix>3d</fix>
</trkpt>
<trkpt lat="-27.274439" lon="151.290064">
  <ele>343.09</ele>
  <time>2026-09-01T20:02:49Z</time>
  <course>10.71</course>
  <speed>0.0</speed>
  <fix>3d</fix>
</trkpt>
<trkpt lat="-27.274439" lon="151.290064">
  <ele>343.1</ele>
  <time>2026-09-01T20:02:49Z</time>
  <course>270.0</course>
  <speed>0.0</speed>
  <fix>3d</fix>
</trkpt>
<trkpt lat="-27.274439" lon="151.290064">
  <ele>343.09</ele>
  <time>2026-09-01T20:02:49Z</time>
  <course>10.71</course>
  <speed>0.0</speed>
  <fix>3d</fix>
</trkpt>
<trkpt lat="-27.274439" lon="151.290064">
  <ele>343.1</ele>
  <time>2026-09-01T20:02:49Z</time>
  <course>270.0</course>
  <speed>0.0</speed>
  <fix>3d</fix>
</trkpt>
<trkpt lat="-27.274439" lon="151.290064">
  <ele>343.09</ele>
  <time>2026-09-01T20:02:49Z</time>
  <course>10.71</course>
  <speed>0.0</speed>
  <fix>3d</fix>
</trkpt>
<trkpt lat="-27.274439" lon="151.290064">
  <ele>343.1</ele>
  <time>2026-09-01T20:02:49Z</time>
  <course>116.25</course>
  <speed>0.0</speed>
  <fix>3d</fix>
</trkpt>
<trkpt lat="-27.274439" lon="151.290064">
  <ele>343.08</ele>
  <time>2026-09-01T20:02:49Z</time>
  <course>10.71</course>
  <speed>0.0</speed>
  <fix>3d</fix>
</trkpt>
<trkpt lat="-27.274439" lon="151.290064">
  <ele>343.1</ele>
  <time>2026-09-01T20:02:49Z</time>
  <course>116.25</course>
  <speed>0.0</speed>
  <fix>3d</fix>
</trkpt>
<trkpt lat="-27.274439" lon="151.290064">
  <ele>343.08</ele>
  <time>2026-09-01T20:02:49Z</time>
  <course>10.71</course>
  <speed>0.0</speed>
  <fix>3d</fix>
</trkpt>
<trkpt lat="-27.274439" lon="151.290064">
  <ele>343.08</ele>
  <time>2026-09-01T20:02:49Z</time>
  <course>10.71</course>
  <speed>0.0</speed>
  <fix>3d</fix>
</trkpt>
<trkpt lat="-27.274439" lon="151.290064">
  <ele>343.1</ele>
  <time>2026-09-01T20:02:49Z</time>
  <course>120.15</course>
  <speed>0.0</speed>
  <fix>3d</fix>
</trkpt>
<trkpt lat="-27.274439" lon="151.290064">
  <ele>343.08</ele>
  <time>2026-09-01T20:02:49Z</time>
  <course>10.71</course>
  <speed>0.0</speed>
  <fix>3d</fix>
</trkpt>
<trkpt lat="-27.274439" lon="151.290064">
  <ele>343.08</ele>
  <time>2026-09-01T20:02:49Z</time>
  <course>10.71</course>
  <speed>0.0</speed>
  <fix>3d</fix>
</trkpt>
<trkpt lat="-27.274439" lon="151.290064">
  <ele>343.1</ele>
  <time>2026-09-01T20:02:49Z</time>
  <course>120.15</course>
  <speed>0.0</speed>
  <fix>3d</fix>
</trkpt>
<trkpt lat="-27.274439" lon="151.290064">
  <ele>343.08</ele>
  <time>2026-09-01T20:02:49Z</time>
  <course>10.71</course>
  <speed>0.0</speed>
  <fix>3d</fix>
</trkpt>
<trkpt lat="-27.274439" lon="151.290064">
  <ele>343.08</ele>
  <time>2026-09-01T20:02:49Z</time>
  <course>10.71</course>
  <speed>0.0</speed>
  <fix>3d</fix>
</trkpt>
<trkpt lat="-27.274439" lon="151.290064">
  <ele>343.1</ele>
  <time>2026-09-01T20:02:49Z</time>
  <course>111.11</course>
  <speed>0.0</speed>
  <fix>3d</fix>
</trkpt>
<trkpt lat="-27.274439" lon="151.290064">
  <ele>343.08</ele>
  <time>2026-09-01T20:02:49Z</time>
  <course>10.71</course>
  <speed>0.0</speed>
  <fix>3d</fix>
</trkpt>
<trkpt lat="-27.274439" lon="151.290064">
  <ele>343.08</ele>
  <time>2026-09-01T20:02:49Z</time>
  <course>10.71</course>
  <speed>0.0</speed>
  <fix>3d</fix>
</trkpt>
<trkpt lat="-27.274439" lon="151.290064">
  <ele>343.1</ele>
  <time>2026-09-01T20:02:49Z</time>
  <course>111.11</course>
  <speed>0.0</speed>
  <fix>3d</fix>
</trkpt>
<trkpt lat="-27.274439" lon="151.290064">
  <ele>343.08</ele>
  <time>2026-09-01T20:02:49Z</time>
  <course>10.71</course>
  <speed>0.0</speed>
  <fix>3d</fix>
</trkpt>
<trkpt lat="-27.274439" lon="151.290064">
  <ele>343.08</ele>
  <time>2026-09-01T20:02:49Z</time>
  <course>10.71</course>
  <speed>0.0</speed>
  <fix>3d</fix>
</trkpt>
<trkpt lat="-27.274439" lon="151.290064">
  <ele>343.1</ele>
  <time>2026-09-01T20:02:49Z</time>
  <course>329.57</course>
  <speed>0.0</speed>
  <fix>3d</fix>
</trkpt>
<trkpt lat="-27.274439" lon="151.290064">
  <ele>343.08</ele>
  <time>2026-09-01T20:02:49Z</time>
  <course>10.71</course>
  <speed>0.0</speed>
  <fix>3d</fix>
</trkpt>
<trkpt lat="-27.274439" lon="151.290064">
  <ele>343.08</ele>
  <time>2026-09-01T20:02:49Z</time>
  <course>10.71</course>
  <speed>0.0</speed>
  <fix>3d</fix>
</trkpt>
<trkpt lat="-27.274439" lon="151.290064">
  <ele>343.1</ele>
  <time>2026-09-01T20:02:49Z</time>
  <course>329.57</course>
  <speed>0.0</speed>
  <fix>3d</fix>
</trkpt>
<trkpt lat="-27.274439" lon="151.290064">
  <ele>343.08</ele>
  <time>2026-09-01T20:02:49Z</time>
  <course>10.71</course>
  <speed>0.0</speed>
  <fix>3d</fix>
</trkpt>
<trkpt lat="-27.274439" lon="151.290064">
  <ele>343.08</ele>
  <time>2026-09-01T20:02:49Z</time>
  <course>10.71</course>
  <speed>0.0</speed>
  <fix>3d</fix>
</trkpt>
<trkpt lat="-27.274439" lon="151.290064">
  <ele>343.1</ele>
  <time>2026-09-01T20:02:49Z</time>
  <course>299.13</course>
  <speed>0.0</speed>
  <fix>3d</fix>
</trkpt>
<trkpt lat="-27.274439" lon="151.290064">
  <ele>343.08</ele>
  <time>2026-09-01T20:02:49Z</time>
  <course>10.71</course>
  <speed>0.0</speed>
  <fix>3d</fix>
</trkpt>
<trkpt lat="-27.274439" lon="151.290064">
  <ele>343.08</ele>
  <time>2026-09-01T20:02:49Z</time>
  <course>10.71</course>
  <speed>0.0</speed>
  <fix>3d</fix>
</trkpt>
<trkpt lat="-27.274439" lon="151.290064">
  <ele>343.1</ele>
  <time>2026-09-01T20:02:49Z</time>
  <course>299.13</course>
  <speed>0.0</speed>
  <fix>3d</fix>
</trkpt>
<trkpt lat="-27.274439" lon="151.290064">
  <ele>343.08</ele>
  <time>2026-09-01T20:02:49Z</time>
  <course>10.71</course>
  <speed>0.0</speed>
  <fix>3d</fix>
</trkpt>
<trkpt lat="-27.274439" lon="151.290064">
  <ele>343.09</ele>
  <time>2026-09-01T20:02:49Z</time>
  <course>10.71</course>
  <speed>0.0</speed>
  <fix>3d</fix>
</trkpt>
<trkpt lat="-27.274439" lon="151.290064">
  <ele>343.1</ele>
  <time>2026-09-01T20:02:49Z</time>
  <course>7.42</course>
  <speed>0.0</speed>
  <fix>3d</fix>
</trkpt>
<trkpt lat="-27.274439" lon="151.290064">
  <ele>343.09</ele>
  <time>2026-09-01T20:02:49Z</time>
  <course>10.71</course>
  <speed>0.0</speed>
  <fix>3d</fix>
</trkpt>
<trkpt lat="-27.274439" lon="151.290064">
  <ele>343.12</ele>
  <time>2026-09-01T20:02:49Z</time>
  <course>10.71</course>
  <speed>0.0</speed>
  <fix>3d</fix>
</trkpt>
<trkpt lat="-27.274439" lon="151.290064">
  <ele>343.1</ele>
  <time>2026-09-01T20:02:49Z</time>
  <course>7.42</course>
  <speed>0.0</speed>
  <fix>3d</fix>
</trkpt>
<trkpt lat="-27.274439" lon="151.290064">
  <ele>343.12</ele>
  <time>2026-09-01T20:02:49Z</time>
  <course>10.71</course>
  <speed>0.0</speed>
  <fix>3d</fix>
</trkpt>
<trkpt lat="-27.274439" lon="151.290064">
  <ele>343.16</ele>
  <time>2026-09-01T20:02:49Z</time>
  <course>10.71</course>
  <speed>0.0</speed>
  <fix>3d</fix>
</trkpt>
<trkpt lat="-27.274439" lon="151.290064">
  <ele>343.12</ele>
  <time>2026-09-01T20:02:49Z</time>
  <course>7.92</course>
  <speed>0.0</speed>
  <fix>3d</fix>
</trkpt>
<trkpt lat="-27.274439" lon="151.290064">
  <ele>343.17</ele>
  <time>2026-09-01T20:02:49Z</time>
  <course>10.71</course>
  <speed>0.0</speed>
  <fix>3d</fix>
</trkpt>
<trkpt lat="-27.274439" lon="151.290064">
  <ele>343.21</ele>
  <time>2026-09-01T20:02:49Z</time>
  <course>10.71</course>
  <speed>0.0</speed>
  <fix>3d</fix>
</trkpt>
<trkpt lat="-27.274439" lon="151.290064">
  <ele>343.12</ele>
  <time>2026-09-01T20:02:49Z</time>
  <course>7.92</course>
  <speed>0.0</speed>
  <fix>3d</fix>
</trkpt>
<trkpt lat="-27.274439" lon="151.290064">
  <ele>343.21</ele>
  <time>2026-09-01T20:02:49Z</time>
  <course>10.71</course>
  <speed>0.0</speed>
  <fix>3d</fix>
</trkpt>
<trkpt lat="-27.274439" lon="151.290064">
  <ele>343.32</ele>
  <time>2026-09-01T20:02:49Z</time>
  <course>10.71</course>
  <speed>0.03</speed>
  <fix>3d</fix>
</trkpt>
<trkpt lat="-27.274439" lon="151.290064">
  <ele>343.19</ele>
  <time>2026-09-01T20:02:49Z</time>
  <course>7.25</course>
  <speed>0.0</speed>
  <fix>3d</fix>
</trkpt>
<trkpt lat="-27.274439" lon="151.290064">
  <ele>343.32</ele>
  <time>2026-09-01T20:02:49Z</time>
  <course>10.71</course>
  <speed>0.03</speed>
  <fix>3d</fix>
</trkpt>
<trkpt lat="-27.274439" lon="151.290064">
  <ele>343.49</ele>
  <time>2026-09-01T20:02:49Z</time>
  <course>10.71</course>
  <speed>0.06082762530298219</speed>
  <fix>3d</fix>
</trkpt>
<trkpt lat="-27.274439" lon="151.290064">
  <ele>343.19</ele>
  <time>2026-09-01T20:02:49Z</time>
  <course>7.25</course>
  <speed>0.0</speed>
  <fix>3d</fix>
</trkpt>
<trkpt lat="-27.274439" lon="151.290064">
  <ele>343.55</ele>
  <time>2026-09-01T20:02:49Z</time>
  <course>10.71</course>
  <speed>0.07071067811865475</speed>
  <fix>3d</fix>
</trkpt>
<trkpt lat="-27.2744389" lon="151.290064">
  <ele>343.7</ele>
  <time>2026-09-01T20:02:49Z</time>
  <course>10.71</course>
  <speed>0.09055385138137417</speed>
  <fix>3d</fix>
</trkpt>
<trkpt lat="-27.274439" lon="151.290064">
  <ele>343.38</ele>
  <time>2026-09-01T20:02:49Z</time>
  <course>6.8</course>
  <speed>0.03</speed>
  <fix>3d</fix>
</trkpt>
<trkpt lat="-27.2744389" lon="151.290064">
  <ele>343.76</ele>
  <time>2026-09-01T20:02:49Z</time>
  <course>10.71</course>
  <speed>0.1004987562112089</speed>
  <fix>3d</fix>
</trkpt>
<trkpt lat="-27.2744388" lon="151.290064">
  <ele>343.93</ele>
  <time>2026-09-01T20:02:49Z</time>
  <course>10.71</course>
  <speed>0.13152946437965907</speed>
  <fix>3d</fix>
</trkpt>
<trkpt lat="-27.274439" lon="151.290064">
  <ele>343.38</ele>
  <time>2026-09-01T20:02:49Z</time>
  <course>6.8</course>
  <speed>0.03</speed>
  <fix>3d</fix>
</trkpt>
<trkpt lat="-27.2744388" lon="151.290064">
  <ele>343.99</ele>
  <time>2026-09-01T20:02:49Z</time>
  <course>10.71</course>
  <speed>0.13152946437965907</speed>
  <fix>3d</fix>
</trkpt>
<trkpt lat="-27.2744387" lon="151.290064">
  <ele>344.16</ele>
  <time>2026-09-01T20:02:49Z</time>
  <course>10.7</course>
  <speed>0.15132745950421556</speed>
  <fix>3d</fix>
</trkpt>
<trkpt lat="-27.2744389" lon="151.290064">
  <ele>343.74</ele>
  <time>2026-09-01T20:02:49Z</time>
  <course>6.85</course>
  <speed>0.09</speed>
  <fix>3d</fix>
</trkpt>
<trkpt lat="-27.2744386" lon="151.290064">
  <ele>344.22</ele>
  <time>2026-09-01T20:02:49Z</time>
  <course>10.7</course>
  <speed>0.16124515496597097</speed>
  <fix>3d</fix>
</trkpt>
<trkpt lat="-27.2744385" lon="151.290064">
  <ele>344.39</ele>
  <time>2026-09-01T20:02:49Z</time>
  <course>10.7</course>
  <speed>0.1824828759089466</speed>
  <fix>3d</fix>
</trkpt>
<trkpt lat="-27.2744389" lon="151.290064">
  <ele>343.74</ele>
  <time>2026-09-01T20:02:49Z</time>
  <course>6.85</course>
  <speed>0.09</speed>
  <fix>3d</fix>
</trkpt>
<trkpt lat="-27.2744385" lon="151.2900641">
  <ele>344.44</ele>
  <time>2026-09-01T20:02:49Z</time>
  <course>10.69</course>
  <speed>0.1824828759089466</speed>
  <fix>3d</fix>
</trkpt>
<trkpt lat="-27.2744384" lon="151.2900641">
  <ele>344.62</ele>
  <time>2026-09-01T20:02:49Z</time>
  <course>10.69</course>
  <speed>0.20223748416156684</speed>
  <fix>3d</fix>
</trkpt>
<trkpt lat="-27.2744387" lon="151.290064">
  <ele>344.2</ele>
  <time>2026-09-01T20:02:49Z</time>
  <course>6.96</course>
  <speed>0.16</speed>
  <fix>3d</fix>
</trkpt>
<trkpt lat="-27.2744383" lon="151.2900641">
  <ele>344.67</ele>
  <time>2026-09-01T20:02:49Z</time>
  <course>10.69</course>
  <speed>0.20223748416156684</speed>
  <fix>3d</fix>
</trkpt>
<trkpt lat="-27.2744382" lon="151.2900641">
  <ele>344.85</ele>
  <time>2026-09-01T20:02:49Z</time>
  <course>10.68</course>
  <speed>0.2220360331117452</speed>
  <fix>3d</fix>
</trkpt>
<trkpt lat="-27.2744387" lon="151.290064">
  <ele>344.2</ele>
  <time>2026-09-01T20:02:49Z</time>
  <course>6.96</course>
  <speed>0.16</speed>
  <fix>3d</fix>
</trkpt>
<trkpt lat="-27.2744381" lon="151.2900641">
  <ele>344.9</ele>
  <time>2026-09-01T20:02:49Z</time>
  <course>10.68</course>
  <speed>0.2220360331117452</speed>
  <fix>3d</fix>
</trkpt>
<trkpt lat="-27.274438" lon="151.2900641">
  <ele>345.07</ele>
  <time>2026-09-01T20:02:49Z</time>
  <course>10.66</course>
  <speed>0.23194827009486402</speed>
  <fix>3d</fix>
</trkpt>
<trkpt lat="-27.2744384" lon="151.290064">
  <ele>344.66</ele>
  <time>2026-09-01T20:02:49Z</time>
  <course>7.04</course>
  <speed>0.2</speed>
  <fix>3d</fix>
</trkpt>
<trkpt lat="-27.274438" lon="151.2900641">
  <ele>345.08</ele>
  <time>2026-09-01T20:02:49Z</time>
  <course>10.66</course>
  <speed>0.23194827009486402</speed>
  <fix>3d</fix>
</trkpt>
<trkpt lat="-27.2744378" lon="151.2900642">
  <ele>345.3</ele>
  <time>2026-09-01T20:02:49Z</time>
  <course>10.66</course>
  <speed>0.24331050121192876</speed>
  <fix>3d</fix>
</trkpt>
<trkpt lat="-27.2744384" lon="151.290064">
  <ele>344.66</ele>
  <time>2026-09-01T20:02:49Z</time>
  <course>7.04</course>
  <speed>0.2</speed>
  <fix>3d</fix>
</trkpt>
<trkpt lat="-27.2744377" lon="151.2900642">
  <ele>345.35</ele>
  <time>2026-09-01T20:02:49Z</time>
  <course>10.66</course>
  <speed>0.24331050121192876</speed>
  <fix>3d</fix>
</trkpt>
<trkpt lat="-27.2744376" lon="151.2900642">
  <ele>345.52</ele>
  <time>2026-09-01T20:02:49Z</time>
  <course>10.66</course>
  <speed>0.24331050121192876</speed>
  <fix>3d</fix>
</trkpt>
<trkpt lat="-27.2744379" lon="151.2900641">
  <ele>345.12</ele>
  <time>2026-09-01T20:02:49Z</time>
  <course>7.15</course>
  <speed>0.24</speed>
  <fix>3d</fix>
</trkpt>
<trkpt lat="-27.2744376" lon="151.2900642">
  <ele>345.53</ele>
  <time>2026-09-01T20:02:49Z</time>
  <course>10.66</course>
  <speed>0.24331050121192876</speed>
  <fix>3d</fix>
</trkpt>
<trkpt lat="-27.2744373" lon="151.2900642">
  <ele>345.73</ele>
  <time>2026-09-01T20:02:49Z</time>
  <course>10.66</course>
  <speed>0.24331050121192876</speed>
  <fix>3d</fix>
</trkpt>
<trkpt lat="-27.2744379" lon="151.2900641">
  <ele>345.12</ele>
  <time>2026-09-01T20:02:49Z</time>
  <course>7.15</course>
  <speed>0.24</speed>
  <fix>3d</fix>
</trkpt>
<trkpt lat="-27.2744373" lon="151.2900642">
  <ele>345.73</ele>
  <time>2026-09-01T20:02:49Z</time>
  <course>10.66</course>
  <speed>0.24331050121192876</speed>
  <fix>3d</fix>
</trkpt>
<trkpt lat="-27.2744371" lon="151.2900642">
  <ele>345.92</ele>
  <time>2026-09-01T20:02:50Z</time>
  <course>10.66</course>
  <speed>0.24186773244895649</speed>
  <fix>3d</fix>
</trkpt>
<trkpt lat="-27.2744375" lon="151.2900641">
  <ele>345.56</ele>
  <time>2026-09-01T20:02:50Z</time>
  <course>7.29</course>
  <speed>0.25</speed>
  <fix>3d</fix>
</trkpt>
<trkpt lat="-27.2744371" lon="151.2900642">
  <ele>345.97</ele>
  <time>2026-09-01T20:02:50Z</time>
  <course>10.66</course>
  <speed>0.24186773244895649</speed>
  <fix>3d</fix>
</trkpt>
<trkpt lat="-27.2744369" lon="151.2900643">
  <ele>346.11</ele>
  <time>2026-09-01T20:02:50Z</time>
  <course>10.66</course>
  <speed>0.23194827009486402</speed>
  <fix>3d</fix>
</trkpt>
<trkpt lat="-27.2744375" lon="151.2900641">
  <ele>345.56</ele>
  <time>2026-09-01T20:02:50Z</time>
  <course>7.29</course>
  <speed>0.25</speed>
  <fix>3d</fix>
</trkpt>
<trkpt lat="-27.2744368" lon="151.2900643">
  <ele>346.16</ele>
  <time>2026-09-01T20:02:50Z</time>
  <course>10.66</course>
  <speed>0.23194827009486402</speed>
  <fix>3d</fix>
</trkpt>
<trkpt lat="-27.2744367" lon="151.2900643">
  <ele>346.29</ele>
  <time>2026-09-01T20:02:50Z</time>
  <course>10.66</course>
  <speed>0.2220360331117452</speed>
  <fix>3d</fix>
</trkpt>
<trkpt lat="-27.2744371" lon="151.2900642">
  <ele>345.96</ele>
  <time>2026-09-01T20:02:50Z</time>
  <course>7.47</course>
  <speed>0.25</speed>
  <fix>3d</fix>
</trkpt>
<trkpt lat="-27.2744366" lon="151.2900643">
  <ele>346.33</ele>
  <time>2026-09-01T20:02:50Z</time>
  <course>10.66</course>
  <speed>0.2220360331117452</speed>
  <fix>3d</fix>
</trkpt>
<trkpt lat="-27.2744365" lon="151.2900643">
  <ele>346.45</ele>
  <time>2026-09-01T20:02:50Z</time>
  <course>10.66</course>
  <speed>0.20223748416156684</speed>
  <fix>3d</fix>
</trkpt>
<trkpt lat="-27.2744371" lon="151.2900642">
  <ele>345.96</ele>
  <time>2026-09-01T20:02:50Z</time>
  <course>7.47</course>
  <speed>0.25</speed>
  <fix>3d</fix>
</trkpt>
<trkpt lat="-27.2744365" lon="151.2900643">
  <ele>346.5</ele>
  <time>2026-09-01T20:02:50Z</time>
  <course>10.66</course>
  <speed>0.20223748416156684</speed>
  <fix>3d</fix>
</trkpt>
<trkpt lat="-27.2744363" lon="151.2900643">
  <ele>346.61</ele>
  <time>2026-09-01T20:02:50Z</time>
  <course>10.67</course>
  <speed>0.191049731745428</speed>
  <fix>3d</fix>
</trkpt>
<trkpt lat="-27.2744367" lon="151.2900642">
  <ele>346.32</ele>
  <time>2026-09-01T20:02:50Z</time>
  <course>7.71</course>
  <speed>0.23</speed>
  <fix>3d</fix>
</trkpt>
<trkpt lat="-27.2744363" lon="151.2900643">
  <ele>346.65</ele>
  <time>2026-09-01T20:02:50Z</time>
  <course>10.67</course>
  <speed>0.18110770276274835</speed>
  <fix>3d</fix>
</trkpt>
<trkpt lat="-27.2744362" lon="151.2900643">
  <ele>346.76</ele>
  <time>2026-09-01T20:02:50Z</time>
  <course>10.67</course>
  <speed>0.1711724276862369</speed>
  <fix>3d</fix>
</trkpt>
<trkpt lat="-27.2744367" lon="151.2900642">
  <ele>346.32</ele>
  <time>2026-09-01T20:02:50Z</time>
  <course>7.71</course>
  <speed>0.23</speed>
  <fix>3d</fix>
</trkpt>
<trkpt lat="-27.2744361" lon="151.2900643">
  <ele>346.8</ele>
  <time>2026-09-01T20:02:50Z</time>
  <course>10.67</course>
  <speed>0.16124515496597097</speed>
  <fix>3d</fix>
</trkpt>
<trkpt lat="-27.274436" lon="151.2900644">
  <ele>346.91</ele>
  <time>2026-09-01T20:02:50Z</time>
  <course>10.68</course>
  <speed>0.15132745950421556</speed>
  <fix>3d</fix>
</trkpt>
<trkpt lat="-27.2744363" lon="151.2900643">
  <ele>346.64</ele>
  <time>2026-09-01T20:02:50Z</time>
  <course>8.1</course>
  <speed>0.2</speed>
  <fix>3d</fix>
</trkpt>
<trkpt lat="-27.274436" lon="151.2900644">
  <ele>346.95</ele>
  <time>2026-09-01T20:02:50Z</time>
  <course>10.68</course>
  <speed>0.1414213562373095</speed>
  <fix>3d</fix>
</trkpt>
<trkpt lat="-27.2744359" lon="151.2900644">
  <ele>347.05</ele>
  <time>2026-09-01T20:02:50Z</time>
  <course>10.69</course>
  <speed>0.130384048104053</speed>
  <fix>3d</fix>
</trkpt>
<trkpt lat="-27.2744363" lon="151.2900643">
  <ele>346.64</ele>
  <time>2026-09-01T20:02:50Z</time>
  <course>8.1</course>
  <speed>0.2</speed>
  <fix>3d</fix>
</trkpt>
<trkpt lat="-27.2744359" lon="151.2900644">
  <ele>347.08</ele>
  <time>2026-09-01T20:02:50Z</time>
  <course>10.69</course>
  <speed>0.12041594578792296</speed>
  <fix>3d</fix>
</trkpt>
<trkpt lat="-27.2744358" lon="151.2900644">
  <ele>347.19</ele>
  <time>2026-09-01T20:02:50Z</time>
  <course>10.7</course>
  <speed>0.1004987562112089</speed>
  <fix>3d</fix>
</trkpt>
<trkpt lat="-27.2744359" lon="151.2900644">
  <ele>346.93</ele>
  <time>2026-09-01T20:02:50Z</time>
  <course>8.82</course>
  <speed>0.16</speed>
  <fix>3d</fix>
</trkpt>
<trkpt lat="-27.2744357" lon="151.2900644">
  <ele>347.22</ele>
  <time>2026-09-01T20:02:50Z</time>
  <course>10.7</course>
  <speed>0.1004987562112089</speed>
  <fix>3d</fix>
</trkpt>
<trkpt lat="-27.2744357" lon="151.2900644">
  <ele>347.32</ele>
  <time>2026-09-01T20:02:50Z</time>
  <course>10.7</course>
  <speed>0.08062257748298549</speed>
  <fix>3d</fix>
</trkpt>
<trkpt lat="-27.2744359" lon="151.2900644">
  <ele>346.93</ele>
  <time>2026-09-01T20:02:50Z</time>
  <course>8.82</course>
  <speed>0.16</speed>
  <fix>3d</fix>
</trkpt>
<trkpt lat="-27.2744357" lon="151.2900644">
  <ele>347.33</ele>
  <time>2026-09-01T20:02:50Z</time>
  <course>10.7</course>
  <speed>0.08062257748298549</speed>
  <fix>3d</fix>
</trkpt>
<trkpt lat="-27.2744356" lon="151.2900644">
  <ele>347.46</ele>
  <time>2026-09-01T20:02:50Z</time>
  <course>10.71</course>
  <speed>0.06</speed>
  <fix>3d</fix>
</trkpt>
<trkpt lat="-27.2744357" lon="151.2900644">
  <ele>347.2</ele>
  <time>2026-09-01T20:02:50Z</time>
  <course>10.23</course>
  <speed>0.12</speed>
  <fix>3d</fix>
</trkpt>
<trkpt lat="-27.2744356" lon="151.2900644">
  <ele>347.46</ele>
  <time>2026-09-01T20:02:50Z</time>
  <course>10.71</course>
  <speed>0.06</speed>
  <fix>3d</fix>
</trkpt>
<trkpt lat="-27.2744355" lon="151.2900644">
  <ele>347.59</ele>
  <time>2026-09-01T20:02:50Z</time>
  <course>10.72</course>
  <speed>0.04</speed>
  <fix>3d</fix>
</trkpt>
<trkpt lat="-27.2744357" lon="151.2900644">
  <ele>347.2</ele>
  <time>2026-09-01T20:02:50Z</time>
  <course>10.23</course>
  <speed>0.12</speed>
  <fix>3d</fix>
</trkpt>
<trkpt lat="-27.2744355" lon="151.2900644">
  <ele>347.63</ele>
  <time>2026-09-01T20:02:50Z</time>
  <course>10.72</course>
  <speed>0.03</speed>
  <fix>3d</fix>
</trkpt>
<trkpt lat="-27.2744355" lon="151.2900644">
  <ele>347.72</ele>
  <time>2026-09-01T20:02:50Z</time>
  <course>10.73</course>
  <speed>0.02</speed>
  <fix>3d</fix>
</trkpt>
<trkpt lat="-27.2744355" lon="151.2900645">
  <ele>347.46</ele>
  <time>2026-09-01T20:02:50Z</time>
  <course>13.35</course>
  <speed>0.07</speed>
  <fix>3d</fix>
</trkpt>
<trkpt lat="-27.2744355" lon="151.2900644">
  <ele>347.76</ele>
  <time>2026-09-01T20:02:50Z</time>
  <course>10.73</course>
  <speed>0.01</speed>
  <fix>3d</fix>
</trkpt>
<trkpt lat="-27.2744355" lon="151.2900644">
  <ele>347.85</ele>
  <time>2026-09-01T20:02:50Z</time>
  <course>10.74</course>
  <speed>0.0</speed>
  <fix>3d</fix>
</trkpt>
<trkpt lat="-27.2744355" lon="151.2900645">
  <ele>347.46</ele>
  <time>2026-09-01T20:02:50Z</time>
  <course>13.35</course>
  <speed>0.07</speed>
  <fix>3d</fix>
</trkpt>
<trkpt lat="-27.2744355" lon="151.2900644">
  <ele>347.89</ele>
  <time>2026-09-01T20:02:50Z</time>
  <course>10.75</course>
  <speed>0.0</speed>
  <fix>3d</fix>
</trkpt>
<trkpt lat="-27.2744355" lon="151.2900644">
  <ele>347.98</ele>
  <time>2026-09-01T20:02:50Z</time>
  <course>10.76</course>
  <speed>0.01</speed>
  <fix>3d</fix>
</trkpt>
<trkpt lat="-27.2744354" lon="151.2900645">
  <ele>347.72</ele>
  <time>2026-09-01T20:02:50Z</time>
  <course>24.03</course>
  <speed>0.03</speed>
  <fix>3d</fix>
</trkpt>
<trkpt lat="-27.2744355" lon="151.2900644">
  <ele>348.02</ele>
  <time>2026-09-01T20:02:50Z</time>
  <course>10.77</course>
  <speed>0.02</speed>
  <fix>3d</fix>
</trkpt>
<trkpt lat="-27.2744355" lon="151.2900645">
  <ele>348.12</ele>
  <time>2026-09-01T20:02:50Z</time>
  <course>10.8</course>
  <speed>0.03</speed>
  <fix>3d</fix>
</trkpt>
<trkpt lat="-27.2744354" lon="151.2900645">
  <ele>347.72</ele>
  <time>2026-09-01T20:02:50Z</time>
  <course>24.03</course>
  <speed>0.03</speed>
  <fix>3d</fix>
</trkpt>
<trkpt lat="-27.2744355" lon="151.2900645">
  <ele>348.15</ele>
  <time>2026-09-01T20:02:50Z</time>
  <course>10.82</course>
  <speed>0.03</speed>
  <fix>3d</fix>
</trkpt>
<trkpt lat="-27.2744355" lon="151.2900645">
  <ele>348.25</ele>
  <time>2026-09-01T20:02:50Z</time>
  <course>10.88</course>
  <speed>0.0412310562561766</speed>
  <fix>3d</fix>
</trkpt>
<trkpt lat="-27.2744354" lon="151.2900645">
  <ele>347.97</ele>
  <time>2026-09-01T20:02:50Z</time>
  <course>147.92</course>
  <speed>0.01</speed>
  <fix>3d</fix>
</trkpt>
<trkpt lat="-27.2744355" lon="151.2900645">
  <ele>348.29</ele>
  <time>2026-09-01T20:02:50Z</time>
  <course>10.91</course>
  <speed>0.05099019513592785</speed>
  <fix>3d</fix>
</trkpt>
<trkpt lat="-27.2744355" lon="151.2900645">
  <ele>348.39</ele>
  <time>2026-09-01T20:02:50Z</time>
  <course>10.99</course>
  <speed>0.06082762530298219</speed>
  <fix>3d</fix>
</trkpt>
<trkpt lat="-27.2744354" lon="151.2900645">
  <ele>347.97</ele>
  <time>2026-09-01T20:02:50Z</time>
  <course>147.92</course>
  <speed>0.01</speed>
  <fix>3d</fix>
</trkpt>
<trkpt lat="-27.2744355" lon="151.2900645">
  <ele>348.42</ele>
  <time>2026-09-01T20:02:50Z</time>
  <course>11.0</course>
  <speed>0.06082762530298219</speed>
  <fix>3d</fix>
</trkpt>
<trkpt lat="-27.2744355" lon="151.2900645">
  <ele>348.53</ele>
  <time>2026-09-01T20:02:50Z</time>
  <course>11.04</course>
  <speed>0.07071067811865475</speed>
  <fix>3d</fix>
</trkpt>
<trkpt lat="-27.2744354" lon="151.2900645">
  <ele>348.24</ele>
  <time>2026-09-01T20:02:50Z</time>
  <course>181.61</course>
  <speed>0.04</speed>
  <fix>3d</fix>
</trkpt>
<trkpt lat="-27.2744355" lon="151.2900645">
  <ele>348.56</ele>
  <time>2026-09-01T20:02:50Z</time>
  <course>11.04</course>
  <speed>0.08062257748298549</speed>
  <fix>3d</fix>
</trkpt>
<trkpt lat="-27.2744356" lon="151.2900645">
  <ele>348.67</ele>
  <time>2026-09-01T20:02:50Z</time>
  <course>11.04</course>
  <speed>0.08062257748298549</speed>
  <fix>3d</fix>
</trkpt>
<trkpt lat="-27.2744354" lon="151.2900645">
  <ele>348.24</ele>
  <time>2026-09-01T20:02:50Z</time>
  <course>181.61</course>
  <speed>0.04</speed>
  <fix>3d</fix>
</trkpt>
<trkpt lat="-27.2744356" lon="151.2900645">
  <ele>348.71</ele>
  <time>2026-09-01T20:02:50Z</time>
  <course>11.04</course>
  <speed>0.09055385138137417</speed>
  <fix>3d</fix>
</trkpt>
<trkpt lat="-27.2744357" lon="151.2900645">
  <ele>348.81</ele>
  <time>2026-09-01T20:02:50Z</time>
  <course>11.02</course>
  <speed>0.09055385138137417</speed>
  <fix>3d</fix>
</trkpt>
<trkpt lat="-27.2744355" lon="151.2900645">
  <ele>348.52</ele>
  <time>2026-09-01T20:02:50Z</time>
  <course>186.07</course>
  <speed>0.07</speed>
  <fix>3d</fix>
</trkpt>
<trkpt lat="-27.2744357" lon="151.2900645">
  <ele>348.81</ele>
  <time>2026-09-01T20:02:50Z</time>
  <course>11.02</course>
  <speed>0.09055385138137417</speed>
  <fix>3d</fix>
</trkpt>
<trkpt lat="-27.2744357" lon="151.2900645">
  <ele>348.95</ele>
  <time>2026-09-01T20:02:50Z</time>
  <course>10.98</course>
  <speed>0.1004987562112089</speed>
  <fix>3d</fix>
</trkpt>
<trkpt lat="-27.2744355" lon="151.2900645">
  <ele>348.52</ele>
  <time>2026-09-01T20:02:50Z</time>
  <course>186.07</course>
  <speed>0.07</speed>
  <fix>3d</fix>
</trkpt>
<trkpt lat="-27.2744358" lon="151.2900645">
  <ele>348.96</ele>
  <time>2026-09-01T20:02:50Z</time>
  <course>10.98</course>
  <speed>0.1004987562112089</speed>
  <fix>3d</fix>
</trkpt>
<trkpt lat="-27.2744358" lon="151.2900645">
  <ele>349.09</ele>
  <time>2026-09-01T20:02:50Z</time>
  <course>10.93</course>
  <speed>0.1118033988749895</speed>
  <fix>3d</fix>
</trkpt>
<trkpt lat="-27.2744355" lon="151.2900645">
  <ele>348.8</ele>
  <time>2026-09-01T20:02:50Z</time>
  <course>186.55</course>
  <speed>0.09</speed>
  <fix>3d</fix>
</trkpt>
<trkpt lat="-27.2744359" lon="151.2900645">
  <ele>349.13</ele>
  <time>2026-09-01T20:02:50Z</time>
  <course>10.92</course>
  <speed>0.1118033988749895</speed>
  <fix>3d</fix>
</trkpt>
<trkpt lat="-27.2744359" lon="151.2900645">
  <ele>349.24</ele>
  <time>2026-09-01T20:02:50Z</time>
  <course>10.88</course>
  <speed>0.1118033988749895</speed>
  <fix>3d</fix>
</trkpt>
<trkpt lat="-27.2744355" lon="151.2900645">
  <ele>348.8</ele>
  <time>2026-09-01T20:02:50Z</time>
  <course>186.55</course>
  <speed>0.09</speed>
  <fix>3d</fix>
</trkpt>
<trkpt lat="-27.2744359" lon="151.2900644">
  <ele>349.27</ele>
  <time>2026-09-01T20:02:50Z</time>
  <course>10.87</course>
  <speed>0.1118033988749895</speed>
  <fix>3d</fix>
</trkpt>
<trkpt lat="-27.274436" lon="151.2900644">
  <ele>349.38</ele>
  <time>2026-09-01T20:02:50Z</time>
  <course>10.85</course>
  <speed>0.12165525060596438</speed>
  <fix>3d</fix>
</trkpt>
<trkpt lat="-27.2744358" lon="151.2900645">
  <ele>349.08</ele>
  <time>2026-09-01T20:02:50Z</time>
  <course>186.71</course>
  <speed>0.11</speed>
  <fix>3d</fix>
</trkpt>
<trkpt lat="-27.274436" lon="151.2900644">
  <ele>349.42</ele>
  <time>2026-09-01T20:02:50Z</time>
  <course>10.85</course>
  <speed>0.12165525060596438</speed>
  <fix>3d</fix>
</trkpt>
<trkpt lat="-27.2744361" lon="151.2900644">
  <ele>349.52</ele>
  <time>2026-09-01T20:02:50Z</time>
  <course>10.83</course>
  <speed>0.12165525060596438</speed>
  <fix>3d</fix>
</trkpt>
<trkpt lat="-27.2744358" lon="151.2900645">
  <ele>349.08</ele>
  <time>2026-09-01T20:02:50Z</time>
  <course>186.71</course>
  <speed>0.11</speed>
  <fix>3d</fix>
</trkpt>
<trkpt lat="-27.2744361" lon="151.2900644">
  <ele>349.53</ele>
  <time>2026-09-01T20:02:50Z</time>
  <course>10.83</course>
  <speed>0.12165525060596438</speed>
  <fix>3d</fix>
</trkpt>
<trkpt lat="-27.2744362" lon="151.2900644">
  <ele>349.67</ele>
  <time>2026-09-01T20:02:50Z</time>
  <course>10.82</course>
  <speed>0.12165525060596438</speed>
  <fix>3d</fix>
</trkpt>
<trkpt lat="-27.274436" lon="151.2900645">
  <ele>349.38</ele>
  <time>2026-09-01T20:02:50Z</time>
  <course>186.83</course>
  <speed>0.12</speed>
  <fix>3d</fix>
</trkpt>
<trkpt lat="-27.2744363" lon="151.2900644">
  <ele>349.71</ele>
  <time>2026-09-01T20:02:50Z</time>
  <course>10.82</course>
  <speed>0.13152946437965907</speed>
  <fix>3d</fix>
</trkpt>
<trkpt lat="-27.2744363" lon="151.2900644">
  <ele>349.81</ele>
  <time>2026-09-01T20:02:50Z</time>
  <course>10.82</course>
  <speed>0.13152946437965907</speed>
  <fix>3d</fix>
</trkpt>
<trkpt lat="-27.274436" lon="151.2900645">
  <ele>349.38</ele>
  <time>2026-09-01T20:02:50Z</time>
  <course>186.83</course>
  <speed>0.12</speed>
  <fix>3d</fix>
</trkpt>
<trkpt lat="-27.2744364" lon="151.2900644">
  <ele>349.85</ele>
  <time>2026-09-01T20:02:50Z</time>
  <course>10.82</course>
  <speed>0.13152946437965907</speed>
  <fix>3d</fix>
</trkpt>
<trkpt lat="-27.2744365" lon="151.2900644">
  <ele>349.96</ele>
  <time>2026-09-01T20:02:50Z</time>
  <course>10.82</course>
  <speed>0.13152946437965907</speed>
  <fix>3d</fix>
</trkpt>
<trkpt lat="-27.2744363" lon="151.2900645">
  <ele>349.67</ele>
  <time>2026-09-01T20:02:50Z</time>
  <course>187.22</course>
  <speed>0.13</speed>
  <fix>3d</fix>
</trkpt>
<trkpt lat="-27.2744365" lon="151.2900644">
  <ele>350.0</ele>
  <time>2026-09-01T20:02:50Z</time>
  <course>10.81</course>
  <speed>0.13152946437965907</speed>
  <fix>3d</fix>
</trkpt>
<trkpt lat="-27.2744366" lon="151.2900644">
  <ele>350.11</ele>
  <time>2026-09-01T20:02:50Z</time>
  <course>10.82</course>
  <speed>0.13152946437965907</speed>
  <fix>3d</fix>
</trkpt>
<trkpt lat="-27.2744363" lon="151.2900645">
  <ele>349.67</ele>
  <time>2026-09-01T20:02:50Z</time>
  <course>187.22</course>
  <speed>0.13</speed>
  <fix>3d</fix>
</trkpt>
<trkpt lat="-27.2744366" lon="151.2900644">
  <ele>350.14</ele>
  <time>2026-09-01T20:02:50Z</time>
  <course>10.82</course>
  <speed>0.13152946437965907</speed>
  <fix>3d</fix>
</trkpt>
<trkpt lat="-27.2744367" lon="151.2900644">
  <ele>350.25</ele>
  <time>2026-09-01T20:02:50Z</time>
  <course>10.82</course>
  <speed>0.13152946437965907</speed>
  <fix>3d</fix>
</trkpt>
<trkpt lat="-27.2744365" lon="151.2900645">
  <ele>349.96</ele>
  <time>2026-09-01T20:02:50Z</time>
  <course>187.46</course>
  <speed>0.14</speed>
  <fix>3d</fix>
</trkpt>
<trkpt lat="-27.2744367" lon="151.2900644">
  <ele>350.29</ele>
  <time>2026-09-01T20:02:50Z</time>
  <course>10.82</course>
  <speed>0.130384048104053</speed>
  <fix>3d</fix>
</trkpt>
<trkpt lat="-27.2744368" lon="151.2900644">
  <ele>350.4</ele>
  <time>2026-09-01T20:02:50Z</time>
  <course>10.81</course>
  <speed>0.130384048104053</speed>
  <fix>3d</fix>
</trkpt>
<trkpt lat="-27.2744365" lon="151.2900645">
  <ele>349.96</ele>
  <time>2026-09-01T20:02:50Z</time>
  <course>187.46</course>
  <speed>0.14</speed>
  <fix>3d</fix>
</trkpt>
<trkpt lat="-27.2744368" lon="151.2900644">
  <ele>350.41</ele>
  <time>2026-09-01T20:02:50Z</time>
  <course>10.81</course>
  <speed>0.140356688476182</speed>
  <fix>3d</fix>
</trkpt>
<trkpt lat="-27.2744369" lon="151.2900644">
  <ele>350.55</ele>
  <time>2026-09-01T20:02:50Z</time>
  <course>10.8</course>
  <speed>0.140356688476182</speed>
  <fix>3d</fix>
</trkpt>
<trkpt lat="-27.2744367" lon="151.2900644">
  <ele>350.26</ele>
  <time>2026-09-01T20:02:50Z</time>
  <course>187.54</course>
  <speed>0.14</speed>
  <fix>3d</fix>
</trkpt>
<trkpt lat="-27.274437" lon="151.2900644">
  <ele>350.55</ele>
  <time>2026-09-01T20:02:50Z</time>
  <course>10.8</course>
  <speed>0.140356688476182</speed>
  <fix>3d</fix>
</trkpt>
<trkpt lat="-27.2744371" lon="151.2900644">
  <ele>350.7</ele>
  <time>2026-09-01T20:02:50Z</time>
  <course>10.78</course>
  <speed>0.130384048104053</speed>
  <fix>3d</fix>
</trkpt>
<trkpt lat="-27.2744367" lon="151.2900644">
  <ele>350.26</ele>
  <time>2026-09-01T20:02:50Z</time>
  <course>187.54</course>
  <speed>0.14</speed>
  <fix>3d</fix>
</trkpt>
<trkpt lat="-27.2744371" lon="151.2900644">
  <ele>350.74</ele>
  <time>2026-09-01T20:02:50Z</time>
  <course>10.78</course>
  <speed>0.130384048104053</speed>
  <fix>3d</fix>
</trkpt>
<trkpt lat="-27.2744372" lon="151.2900644">
  <ele>350.85</ele>
  <time>2026-09-01T20:02:50Z</time>
  <course>10.76</course>
  <speed>0.130384048104053</speed>
  <fix>3d</fix>
</trkpt>
<trkpt lat="-27.274437" lon="151.2900644">
  <ele>350.55</ele>
  <time>2026-09-01T20:02:50Z</time>
  <course>187.66</course>
  <speed>0.14</speed>
  <fix>3d</fix>
</trkpt>
<trkpt lat="-27.2744372" lon="151.2900644">
  <ele>350.89</ele>
  <time>2026-09-01T20:02:50Z</time>
  <course>10.75</course>
  <speed>0.130384048104053</speed>
  <fix>3d</fix>
</trkpt>
<trkpt lat="-27.2744373" lon="151.2900644">
  <ele>350.99</ele>
  <time>2026-09-01T20:02:50Z</time>
  <course>10.73</course>
  <speed>0.13</speed>
  <fix>3d</fix>
</trkpt>
<trkpt lat="-27.274437" lon="151.2900644">
  <ele>350.55</ele>
  <time>2026-09-01T20:02:50Z</time>
  <course>187.66</course>
  <speed>0.14</speed>
  <fix>3d</fix>
</trkpt>
<trkpt lat="-27.2744373" lon="151.2900644">
  <ele>351.03</ele>
  <time>2026-09-01T20:02:50Z</time>
  <course>10.73</course>
  <speed>0.130384048104053</speed>
  <fix>3d</fix>
</trkpt>
<trkpt lat="-27.2744374" lon="151.2900644">
  <ele>351.14</ele>
  <time>2026-09-01T20:02:50Z</time>
  <course>10.71</course>
  <speed>0.13</speed>
  <fix>3d</fix>
</trkpt>
<trkpt lat="-27.2744373" lon="151.2900644">
  <ele>350.84</ele>
  <time>2026-09-01T20:02:50Z</time>
  <course>187.87</course>
  <speed>0.14</speed>
  <fix>3d</fix>
</trkpt>
<trkpt lat="-27.2744375" lon="151.2900644">
  <ele>351.18</ele>
  <time>2026-09-01T20:02:50Z</time>
  <course>10.7</course>
  <speed>0.13</speed>
  <fix>3d</fix>
</trkpt>
<trkpt lat="-27.2744376" lon="151.2900644">
  <ele>351.28</ele>
  <time>2026-09-01T20:02:50Z</time>
  <course>10.68</course>
  <speed>0.13</speed>
  <fix>3d</fix>
</trkpt>
<trkpt lat="-27.2744373" lon="151.2900644">
  <ele>350.84</ele>
  <time>2026-09-01T20:02:50Z</time>
  <course>187.87</course>
  <speed>0.14</speed>
  <fix>3d</fix>
</trkpt>
<trkpt lat="-27.2744376" lon="151.2900643">
  <ele>351.32</ele>
  <time>2026-09-01T20:02:50Z</time>
  <course>10.68</course>
  <speed>0.130384048104053</speed>
  <fix>3d</fix>
</trkpt>
<trkpt lat="-27.2744377" lon="151.2900643">
  <ele>351.43</ele>
  <time>2026-09-01T20:02:50Z</time>
  <course>10.65</course>
  <speed>0.130384048104053</speed>
  <fix>3d</fix>
</trkpt>
<trkpt lat="-27.2744375" lon="151.2900643">
  <ele>351.13</ele>
  <time>2026-09-01T20:02:50Z</time>
  <course>188.22</course>
  <speed>0.14</speed>
  <fix>3d</fix>
</trkpt>
<trkpt lat="-27.2744377" lon="151.2900643">
  <ele>351.44</ele>
  <time>2026-09-01T20:02:50Z</time>
  <course>10.65</course>
  <speed>0.130384048104053</speed>
  <fix>3d</fix>
</trkpt>
<trkpt lat="-27.2744378" lon="151.2900643">
  <ele>351.57</ele>
  <time>2026-09-01T20:02:50Z</time>
  <course>10.61</course>
  <speed>0.130384048104053</speed>
  <fix>3d</fix>
</trkpt>
<trkpt lat="-27.2744375" lon="151.2900643">
  <ele>351.13</ele>
  <time>2026-09-01T20:02:50Z</time>
  <course>188.22</course>
  <speed>0.14</speed>
  <fix>3d</fix>
</trkpt>
<trkpt lat="-27.2744378" lon="151.2900643">
  <ele>351.58</ele>
  <time>2026-09-01T20:02:50Z</time>
  <course>10.61</course>
  <speed>0.130384048104053</speed>
  <fix>3d</fix>
</trkpt>
<trkpt lat="-27.2744379" lon="151.2900643">
  <ele>351.71</ele>
  <time>2026-09-01T20:02:50Z</time>
  <course>10.58</course>
  <speed>0.13</speed>
  <fix>3d</fix>
</trkpt>
<trkpt lat="-27.2744378" lon="151.2900642">
  <ele>351.42</ele>
  <time>2026-09-01T20:02:50Z</time>
  <course>188.38</course>
  <speed>0.13</speed>
  <fix>3d</fix>
</trkpt>
<trkpt lat="-27.274438" lon="151.2900643">
  <ele>351.75</ele>
  <time>2026-09-01T20:02:50Z</time>
  <course>10.58</course>
  <speed>0.13</speed>
  <fix>3d</fix>
</trkpt>
<trkpt lat="-27.2744381" lon="151.2900643">
  <ele>351.86</ele>
  <time>2026-09-01T20:02:50Z</time>
  <course>10.57</course>
  <speed>0.12</speed>
  <fix>3d</fix>
</trkpt>
<trkpt lat="-27.2744378" lon="151.2900642">
  <ele>351.42</ele>
  <time>2026-09-01T20:02:50Z</time>
  <course>188.38</course>
  <speed>0.13</speed>
  <fix>3d</fix>
</trkpt>
<trkpt lat="-27.2744381" lon="151.2900643">
  <ele>351.89</ele>
  <time>2026-09-01T20:02:50Z</time>
  <course>10.57</course>
  <speed>0.12</speed>
  <fix>3d</fix>
</trkpt>
<trkpt lat="-27.2744382" lon="151.2900643">
  <ele>352.0</ele>
  <time>2026-09-01T20:02:50Z</time>
  <course>10.57</course>
  <speed>0.12</speed>
  <fix>3d</fix>
</trkpt>
<trkpt lat="-27.274438" lon="151.2900642">
  <ele>351.71</ele>
  <time>2026-09-01T20:02:50Z</time>
  <course>188.33</course>
  <speed>0.13</speed>
  <fix>3d</fix>
</trkpt>
<trkpt lat="-27.2744382" lon="151.2900643">
  <ele>352.0</ele>
  <time>2026-09-01T20:02:50Z</time>
  <course>10.57</course>
  <speed>0.12</speed>
  <fix>3d</fix>
</trkpt>
<trkpt lat="-27.2744383" lon="151.2900643">
  <ele>352.14</ele>
  <time>2026-09-01T20:02:50Z</time>
  <course>10.58</course>
  <speed>0.12</speed>
  <fix>3d</fix>
</trkpt>
<trkpt lat="-27.274438" lon="151.2900642">
  <ele>351.71</ele>
  <time>2026-09-01T20:02:50Z</time>
  <course>188.33</course>
  <speed>0.13</speed>
  <fix>3d</fix>
</trkpt>
<trkpt lat="-27.2744383" lon="151.2900643">
  <ele>352.15</ele>
  <time>2026-09-01T20:02:50Z</time>
  <course>10.58</course>
  <speed>0.12</speed>
  <fix>3d</fix>
</trkpt>
<trkpt lat="-27.2744384" lon="151.2900643">
  <ele>352.28</ele>
  <time>2026-09-01T20:02:50Z</time>
  <course>10.58</course>
  <speed>0.11</speed>
  <fix>3d</fix>
</trkpt>
<trkpt lat="-27.2744383" lon="151.2900642">
  <ele>351.99</ele>
  <time>2026-09-01T20:02:50Z</time>
  <course>188.58</course>
  <speed>0.12</speed>
  <fix>3d</fix>
</trkpt>
<trkpt lat="-27.2744384" lon="151.2900643">
  <ele>352.33</ele>
  <time>2026-09-01T20:02:50Z</time>
  <course>10.57</course>
  <speed>0.11</speed>
  <fix>3d</fix>
</trkpt>
<trkpt lat="-27.2744385" lon="151.2900642">
  <ele>352.43</ele>
  <time>2026-09-01T20:02:50Z</time>
  <course>10.55</course>
  <speed>0.11</speed>
  <fix>3d</fix>
</trkpt>
<trkpt lat="-27.2744383" lon="151.2900642">
  <ele>351.99</ele>
  <time>2026-09-01T20:02:50Z</time>
  <course>188.58</course>
  <speed>0.12</speed>
  <fix>3d</fix>
</trkpt>
<trkpt lat="-27.2744385" lon="151.2900642">
  <ele>352.46</ele>
  <time>2026-09-01T20:02:50Z</time>
  <course>10.55</course>
  <speed>0.11</speed>
  <fix>3d</fix>
</trkpt>
<trkpt lat="-27.2744386" lon="151.2900642">
  <ele>352.57</ele>
  <time>2026-09-01T20:02:50Z</time>
  <course>10.52</course>
  <speed>0.11</speed>
  <fix>3d</fix>
</trkpt>
<trkpt lat="-27.2744385" lon="151.2900642">
  <ele>352.28</ele>
  <time>2026-09-01T20:02:50Z</time>
  <course>189.06</course>
  <speed>0.12</speed>
  <fix>3d</fix>
</trkpt>
<trkpt lat="-27.2744386" lon="151.2900642">
  <ele>352.61</ele>
  <time>2026-09-01T20:02:50Z</time>
  <course>10.51</course>
  <speed>0.11</speed>
  <fix>3d</fix>
</trkpt>
<trkpt lat="-27.2744387" lon="151.2900642">
  <ele>352.72</ele>
  <time>2026-09-01T20:02:50Z</time>
  <course>10.49</course>
  <speed>0.1</speed>
  <fix>3d</fix>
</trkpt>
<trkpt lat="-27.2744385" lon="151.2900642">
  <ele>352.28</ele>
  <time>2026-09-01T20:02:50Z</time>
  <course>189.06</course>
  <speed>0.12</speed>
  <fix>3d</fix>
</trkpt>
<trkpt lat="-27.2744387" lon="151.2900642">
  <ele>352.75</ele>
  <time>2026-09-01T20:02:50Z</time>
  <course>10.48</course>
  <speed>0.1</speed>
  <fix>3d</fix>
</trkpt>
<trkpt lat="-27.2744388" lon="151.2900642">
  <ele>352.86</ele>
  <time>2026-09-01T20:02:50Z</time>
  <course>10.45</course>
  <speed>0.1</speed>
  <fix>3d</fix>
</trkpt>
<trkpt lat="-27.2744387" lon="151.2900641">
  <ele>352.56</ele>
  <time>2026-09-01T20:02:50Z</time>
  <course>189.53</course>
  <speed>0.11</speed>
  <fix>3d</fix>
</trkpt>
<trkpt lat="-27.2744388" lon="151.2900642">
  <ele>352.9</ele>
  <time>2026-09-01T20:02:50Z</time>
  <course>10.44</course>
  <speed>0.1</speed>
  <fix>3d</fix>
</trkpt>
<trkpt lat="-27.2744389" lon="151.2900642">
  <ele>353.0</ele>
  <time>2026-09-01T20:02:50Z</time>
  <course>10.42</course>
  <speed>0.09</speed>
  <fix>3d</fix>
</trkpt>
<trkpt lat="-27.2744387" lon="151.2900641">
  <ele>352.56</ele>
  <time>2026-09-01T20:02:50Z</time>
  <course>189.53</course>
  <speed>0.11</speed>
  <fix>3d</fix>
</trkpt>
<trkpt lat="-27.2744389" lon="151.2900642">
  <ele>353.04</ele>
  <time>2026-09-01T20:02:50Z</time>
  <course>10.41</course>
  <speed>0.09</speed>
  <fix>3d</fix>
</trkpt>
<trkpt lat="-27.274439" lon="151.2900642">
  <ele>353.15</ele>
  <time>2026-09-01T20:02:50Z</time>
  <course>10.39</course>
  <speed>0.09</speed>
  <fix>3d</fix>
</trkpt>
<trkpt lat="-27.2744389" lon="151.2900641">
  <ele>352.84</ele>
  <time>2026-09-01T20:02:50Z</time>
  <course>189.77</course>
  <speed>0.1</speed>
  <fix>3d</fix>
</trkpt>
<trkpt lat="-27.274439" lon="151.2900642">
  <ele>353.19</ele>
  <time>2026-09-01T20:02:50Z</time>
  <course>10.39</course>
  <speed>0.09</speed>
  <fix>3d</fix>
</trkpt>
<trkpt lat="-27.2744391" lon="151.2900642">
  <ele>353.29</ele>
  <time>2026-09-01T20:02:50Z</time>
  <course>10.39</course>
  <speed>0.08</speed>
  <fix>3d</fix>
</trkpt>
<trkpt lat="-27.2744389" lon="151.2900641">
  <ele>352.84</ele>
  <time>2026-09-01T20:02:50Z</time>
  <course>189.77</course>
  <speed>0.1</speed>
  <fix>3d</fix>
</trkpt>
<trkpt lat="-27.2744391" lon="151.2900642">
  <ele>353.43</ele>
  <time>2026-09-01T20:02:50Z</time>
  <course>10.39</course>
  <speed>0.08</speed>
  <fix>3d</fix>
</trkpt>
<trkpt lat="-27.2744391" lon="151.2900641">
  <ele>353.13</ele>
  <time>2026-09-01T20:02:50Z</time>
  <course>189.99</course>
  <speed>0.08</speed>
  <fix>3d</fix>
</trkpt>
<trkpt lat="-27.2744392" lon="151.2900642">
  <ele>353.58</ele>
  <time>2026-09-01T20:02:50Z</time>
  <course>10.39</course>
  <speed>0.07</speed>
  <fix>3d</fix>
</trkpt>
<trkpt lat="-27.2744391" lon="151.2900641">
  <ele>353.13</ele>
  <time>2026-09-01T20:02:50Z</time>
  <course>189.99</course>
  <speed>0.08</speed>
  <fix>3d</fix>
</trkpt>
<trkpt lat="-27.2744393" lon="151.2900642">
  <ele>353.71</ele>
  <time>2026-09-01T20:02:50Z</time>
  <course>10.39</course>
  <speed>0.07</speed>
  <fix>3d</fix>
</trkpt>
<trkpt lat="-27.2744392" lon="151.290064">
  <ele>353.41</ele>
  <time>2026-09-01T20:02:50Z</time>
  <course>190.53</course>
  <speed>0.07</speed>
  <fix>3d</fix>
</trkpt>
<trkpt lat="-27.2744393" lon="151.2900641">
  <ele>353.84</ele>
  <time>2026-09-01T20:02:50Z</time>
  <course>10.38</course>
  <speed>0.06</speed>
  <fix>3d</fix>
</trkpt>
<trkpt lat="-27.2744392" lon="151.290064">
  <ele>353.41</ele>
  <time>2026-09-01T20:02:50Z</time>
  <course>190.53</course>
  <speed>0.07</speed>
  <fix>3d</fix>
</trkpt>
<trkpt lat="-27.2744394" lon="151.2900641">
  <ele>353.95</ele>
  <time>2026-09-01T20:02:50Z</time>
  <course>10.37</course>
  <speed>0.06</speed>
  <fix>3d</fix>
</trkpt>
<trkpt lat="-27.2744393" lon="151.290064">
  <ele>353.69</ele>
  <time>2026-09-01T20:02:50Z</time>
  <course>191.0</course>
  <speed>0.06</speed>
  <fix>3d</fix>
</trkpt>
<trkpt lat="-27.2744395" lon="151.2900641">
  <ele>354.05</ele>
  <time>2026-09-01T20:02:50Z</time>
  <course>10.36</course>
  <speed>0.07</speed>
  <fix>3d</fix>
</trkpt>
<trkpt lat="-27.2744393" lon="151.290064">
  <ele>353.69</ele>
  <time>2026-09-01T20:02:50Z</time>
  <course>191.0</course>
  <speed>0.06</speed>
  <fix>3d</fix>
</trkpt>
<trkpt lat="-27.2744395" lon="151.2900641">
  <ele>354.13</ele>
  <time>2026-09-01T20:02:50Z</time>
  <course>10.35</course>
  <speed>0.07</speed>
  <fix>3d</fix>
</trkpt>
<trkpt lat="-27.2744394" lon="151.290064">
  <ele>353.93</ele>
  <time>2026-09-01T20:02:50Z</time>
  <course>190.74</course>
  <speed>0.06</speed>
  <fix>3d</fix>
</trkpt>
<trkpt lat="-27.2744396" lon="151.2900641">
  <ele>354.2</ele>
  <time>2026-09-01T20:02:50Z</time>
  <course>10.35</course>
  <speed>0.07</speed>
  <fix>3d</fix>
</trkpt>
<trkpt lat="-27.2744394" lon="151.290064">
  <ele>353.93</ele>
  <time>2026-09-01T20:02:50Z</time>
  <course>190.74</course>
  <speed>0.06</speed>
  <fix>3d</fix>
</trkpt>
<trkpt lat="-27.2744397" lon="151.2900641">
  <ele>354.25</ele>
  <time>2026-09-01T20:02:50Z</time>
  <course>10.34</course>
  <speed>0.08</speed>
  <fix>3d</fix>
</trkpt>
<trkpt lat="-27.2744395" lon="151.290064">
  <ele>354.12</ele>
  <time>2026-09-01T20:02:50Z</time>
  <course>189.78</course>
  <speed>0.06</speed>
  <fix>3d</fix>
</trkpt>
<trkpt lat="-27.2744397" lon="151.2900641">
  <ele>354.29</ele>
  <time>2026-09-01T20:02:50Z</time>
  <course>10.34</course>
  <speed>0.09</speed>
  <fix>3d</fix>
</trkpt>
<trkpt lat="-27.2744395" lon="151.290064">
  <ele>354.12</ele>
  <time>2026-09-01T20:02:50Z</time>
  <course>189.78</course>
  <speed>0.06</speed>
  <fix>3d</fix>
</trkpt>
<trkpt lat="-27.2744398" lon="151.2900641">
  <ele>354.31</ele>
  <time>2026-09-01T20:02:50Z</time>
  <course>10.36</course>
  <speed>0.09</speed>
  <fix>3d</fix>
</trkpt>
<trkpt lat="-27.2744397" lon="151.2900639">
  <ele>354.24</ele>
  <time>2026-09-01T20:02:50Z</time>
  <course>189.15</course>
  <speed>0.07</speed>
  <fix>3d</fix>
</trkpt>
<trkpt lat="-27.2744399" lon="151.2900641">
  <ele>354.31</ele>
  <time>2026-09-01T20:02:50Z</time>
  <course>10.42</course>
  <speed>0.1</speed>
  <fix>3d</fix>
</trkpt>
<trkpt lat="-27.2744397" lon="151.2900639">
  <ele>354.24</ele>
  <time>2026-09-01T20:02:50Z</time>
  <course>189.15</course>
  <speed>0.07</speed>
  <fix>3d</fix>
</trkpt>
<trkpt lat="-27.27444" lon="151.290064">
  <ele>354.31</ele>
  <time>2026-09-01T20:02:50Z</time>
  <course>10.5</course>
  <speed>0.11045361017187261</speed>
  <fix>3d</fix>
</trkpt>
<trkpt lat="-27.2744398" lon="151.2900639">
  <ele>354.29</ele>
  <time>2026-09-01T20:02:50Z</time>
  <course>190.35</course>
  <speed>0.09</speed>
  <fix>3d</fix>
</trkpt>
<trkpt lat="-27.2744401" lon="151.290064">
  <ele>354.31</ele>
  <time>2026-09-01T20:02:50Z</time>
  <course>10.59</course>
  <speed>0.11045361017187261</speed>
  <fix>3d</fix>
</trkpt>
<trkpt lat="-27.2744398" lon="151.2900639">
  <ele>354.29</ele>
  <time>2026-09-01T20:02:50Z</time>
  <course>190.35</course>
  <speed>0.09</speed>
  <fix>3d</fix>
</trkpt>
<trkpt lat="-27.2744402" lon="151.290064">
  <ele>354.31</ele>
  <time>2026-09-01T20:02:50Z</time>
  <course>10.68</course>
  <speed>0.11045361017187261</speed>
  <fix>3d</fix>
</trkpt>
<trkpt lat="-27.27444" lon="151.2900638">
  <ele>354.3</ele>
  <time>2026-09-01T20:02:50Z</time>
  <course>192.78</course>
  <speed>0.1</speed>
  <fix>3d</fix>
</trkpt>
<trkpt lat="-27.2744403" lon="151.2900639">
  <ele>354.32</ele>
  <time>2026-09-01T20:02:50Z</time>
  <course>10.74</course>
  <speed>0.12165525060596438</speed>
  <fix>3d</fix>
</trkpt>
<trkpt lat="-27.27444" lon="151.2900638">
  <ele>354.3</ele>
  <time>2026-09-01T20:02:50Z</time>
  <course>192.78</course>
  <speed>0.1</speed>
  <fix>3d</fix>
</trkpt>
<trkpt lat="-27.2744404" lon="151.2900639">
  <ele>354.34</ele>
  <time>2026-09-01T20:02:50Z</time>
  <course>10.76</course>
  <speed>0.12165525060596438</speed>
  <fix>3d</fix>
</trkpt>
<trkpt lat="-27.2744402" lon="151.2900637">
  <ele>354.3</ele>
  <time>2026-09-01T20:02:50Z</time>
  <course>195.02</course>
  <speed>0.11</speed>
  <fix>3d</fix>
</trkpt>
<trkpt lat="-27.2744405" lon="151.2900639">
  <ele>354.38</ele>
  <time>2026-09-01T20:02:50Z</time>
  <course>10.73</course>
  <speed>0.12165525060596438</speed>
  <fix>3d</fix>
</trkpt>
<trkpt lat="-27.2744402" lon="151.2900637">
  <ele>354.3</ele>
  <time>2026-09-01T20:02:50Z</time>
  <course>195.02</course>
  <speed>0.11</speed>
  <fix>3d</fix>
</trkpt>
<trkpt lat="-27.2744406" lon="151.2900638">
  <ele>354.44</ele>
  <time>2026-09-01T20:02:50Z</time>
  <course>10.63</course>
  <speed>0.11045361017187261</speed>
  <fix>3d</fix>
</trkpt>
<trkpt lat="-27.2744403" lon="151.2900637">
  <ele>354.34</ele>
  <time>2026-09-01T20:02:50Z</time>
  <course>196.15</course>
  <speed>0.11</speed>
  <fix>3d</fix>
</trkpt>
<trkpt lat="-27.2744407" lon="151.2900638">
  <ele>354.52</ele>
  <time>2026-09-01T20:02:50Z</time>
  <course>10.42</course>
  <speed>0.11</speed>
  <fix>3d</fix>
</trkpt>
<trkpt lat="-27.2744403" lon="151.2900637">
  <ele>354.34</ele>
  <time>2026-09-01T20:02:50Z</time>
  <course>196.15</course>
  <speed>0.11</speed>
  <fix>3d</fix>
</trkpt>
<trkpt lat="-27.2744408" lon="151.2900638">
  <ele>354.62</ele>
  <time>2026-09-01T20:02:50Z</time>
  <course>10.19</course>
  <speed>0.09</speed>
  <fix>3d</fix>
</trkpt>
<trkpt lat="-27.2744406" lon="151.2900637">
  <ele>354.45</ele>
  <time>2026-09-01T20:02:50Z</time>
  <course>193.07</course>
  <speed>0.1</speed>
  <fix>3d</fix>
</trkpt>
<trkpt lat="-27.2744408" lon="151.2900638">
  <ele>354.74</ele>
  <time>2026-09-01T20:02:50Z</time>
  <course>10.08</course>
  <speed>0.08</speed>
  <fix>3d</fix>
</trkpt>
<trkpt lat="-27.2744406" lon="151.2900637">
  <ele>354.45</ele>
  <time>2026-09-01T20:02:50Z</time>
  <course>193.07</course>
  <speed>0.1</speed>
  <fix>3d</fix>
</trkpt>
<trkpt lat="-27.2744409" lon="151.2900637">
  <ele>354.87</ele>
  <time>2026-09-01T20:02:50Z</time>
  <course>10.09</course>
  <speed>0.06</speed>
  <fix>3d</fix>
</trkpt>
<trkpt lat="-27.2744408" lon="151.2900636">
  <ele>354.63</ele>
  <time>2026-09-01T20:02:50Z</time>
  <course>189.63</course>
  <speed>0.08</speed>
  <fix>3d</fix>
</trkpt>
<trkpt lat="-27.2744409" lon="151.2900637">
  <ele>355.02</ele>
  <time>2026-09-01T20:02:50Z</time>
  <course>10.16</course>
  <speed>0.03</speed>
  <fix>3d</fix>
</trkpt>
<trkpt lat="-27.2744408" lon="151.2900636">
  <ele>354.63</ele>
  <time>2026-09-01T20:02:50Z</time>
  <course>189.63</course>
  <speed>0.08</speed>
  <fix>3d</fix>
</trkpt>
<trkpt lat="-27.2744409" lon="151.2900637">
  <ele>355.17</ele>
  <time>2026-09-01T20:02:50Z</time>
  <course>10.27</course>
  <speed>0.01</speed>
  <fix>3d</fix>
</trkpt>
<trkpt lat="-27.2744409" lon="151.2900636">
  <ele>354.88</ele>
  <time>2026-09-01T20:02:50Z</time>
  <course>192.09</course>
  <speed>0.04</speed>
  <fix>3d</fix>
</trkpt>
<trkpt lat="-27.2744409" lon="151.2900637">
  <ele>355.33</ele>
  <time>2026-09-01T20:02:50Z</time>
  <course>10.4</course>
  <speed>0.01</speed>
  <fix>3d</fix>
</trkpt>
<trkpt lat="-27.2744409" lon="151.2900636">
  <ele>354.88</ele>
  <time>2026-09-01T20:02:50Z</time>
  <course>192.09</course>
  <speed>0.04</speed>
  <fix>3d</fix>
</trkpt>
<trkpt lat="-27.2744409" lon="151.2900637">
  <ele>355.5</ele>
  <time>2026-09-01T20:02:50Z</time>
  <course>10.52</course>
  <speed>0.022360679774997897</speed>
  <fix>3d</fix>
</trkpt>
<trkpt lat="-27.2744409" lon="151.2900636">
  <ele>355.18</ele>
  <time>2026-09-01T20:02:50Z</time>
  <course>251.73</course>
  <speed>0.0</speed>
  <fix>3d</fix>
</trkpt>
<trkpt lat="-27.2744409" lon="151.2900637">
  <ele>355.67</ele>
  <time>2026-09-01T20:02:50Z</time>
  <course>10.62</course>
  <speed>0.0412310562561766</speed>
  <fix>3d</fix>
</trkpt>
<trkpt lat="-27.2744409" lon="151.2900636">
  <ele>355.18</ele>
  <time>2026-09-01T20:02:50Z</time>
  <course>251.73</course>
  <speed>0.0</speed>
  <fix>3d</fix>
</trkpt>
<trkpt lat="-27.2744409" lon="151.2900637">
  <ele>355.84</ele>
  <time>2026-09-01T20:02:50Z</time>
  <course>10.68</course>
  <speed>0.06082762530298219</speed>
  <fix>3d</fix>
</trkpt>
<trkpt lat="-27.2744409" lon="151.2900636">
  <ele>355.51</ele>
  <time>2026-09-01T20:02:50Z</time>
  <course>357.79</course>
  <speed>0.04</speed>
  <fix>3d</fix>
</trkpt>
<trkpt lat="-27.2744408" lon="151.2900637">
  <ele>356.01</ele>
  <time>2026-09-01T20:02:50Z</time>
  <course>10.71</course>
  <speed>0.08062257748298549</speed>
  <fix>3d</fix>
</trkpt>
<trkpt lat="-27.2744409" lon="151.2900636">
  <ele>355.51</ele>
  <time>2026-09-01T20:02:50Z</time>
  <course>357.79</course>
  <speed>0.04</speed>
  <fix>3d</fix>
</trkpt>
<trkpt lat="-27.2744407" lon="151.2900637">
  <ele>356.17</ele>
  <time>2026-09-01T20:02:50Z</time>
  <course>10.72</course>
  <speed>0.09055385138137417</speed>
  <fix>3d</fix>
</trkpt>
<trkpt lat="-27.2744408" lon="151.2900636">
  <ele>355.84</ele>
  <time>2026-09-01T20:02:50Z</time>
  <course>1.13</course>
  <speed>0.08</speed>
  <fix>3d</fix>
</trkpt>
<trkpt lat="-27.2744406" lon="151.2900637">
  <ele>356.34</ele>
  <time>2026-09-01T20:02:50Z</time>
  <course>10.7</course>
  <speed>0.1004987562112089</speed>
  <fix>3d</fix>
</trkpt>
<trkpt lat="-27.2744408" lon="151.2900636">
  <ele>355.84</ele>
  <time>2026-09-01T20:02:50Z</time>
  <course>1.13</course>
  <speed>0.08</speed>
  <fix>3d</fix>
</trkpt>
<trkpt lat="-27.2744405" lon="151.2900637">
  <ele>356.49</ele>
  <time>2026-09-01T20:02:50Z</time>
  <course>10.67</course>
  <speed>0.1118033988749895</speed>
  <fix>3d</fix>
</trkpt>
<trkpt lat="-27.2744406" lon="151.2900636">
  <ele>356.18</ele>
  <time>2026-09-01T20:02:50Z</time>
  <course>2.34</course>
  <speed>0.11</speed>
  <fix>3d</fix>
</trkpt>
<trkpt lat="-27.2744404" lon="151.2900637">
  <ele>356.65</ele>
  <time>2026-09-01T20:02:50Z</time>
  <course>10.64</course>
  <speed>0.12165525060596438</speed>
  <fix>3d</fix>
</trkpt>
<trkpt lat="-27.2744406" lon="151.2900636">
  <ele>356.18</ele>
  <time>2026-09-01T20:02:50Z</time>
  <course>2.34</course>
  <speed>0.11</speed>
  <fix>3d</fix>
</trkpt>
<trkpt lat="-27.2744403" lon="151.2900637">
  <ele>356.8</ele>
  <time>2026-09-01T20:02:50Z</time>
  <course>10.62</course>
  <speed>0.12165525060596438</speed>
  <fix>3d</fix>
</trkpt>
<trkpt lat="-27.2744405" lon="151.2900636">
  <ele>356.51</ele>
  <time>2026-09-01T20:02:50Z</time>
  <course>2.91</course>
  <speed>0.13</speed>
  <fix>3d</fix>
</trkpt>
<trkpt lat="-27.2744402" lon="151.2900637">
  <ele>356.95</ele>
  <time>2026-09-01T20:02:50Z</time>
  <course>10.61</course>
  <speed>0.13152946437965907</speed>
  <fix>3d</fix>
</trkpt>
<trkpt lat="-27.2744405" lon="151.2900636">
  <ele>356.51</ele>
  <time>2026-09-01T20:02:50Z</time>
  <course>2.91</course>
  <speed>0.13</speed>
  <fix>3d</fix>
</trkpt>
<trkpt lat="-27.27444" lon="151.2900637">
  <ele>357.1</ele>
  <time>2026-09-01T20:02:50Z</time>
  <course>10.6</course>
  <speed>0.130384048104053</speed>
  <fix>3d</fix>
</trkpt>
<trkpt lat="-27.2744402" lon="151.2900636">
  <ele>356.82</ele>
  <time>2026-09-01T20:02:50Z</time>
  <course>3.22</course>
  <speed>0.14</speed>
  <fix>3d</fix>
</trkpt>
<trkpt lat="-27.2744399" lon="151.2900637">
  <ele>357.24</ele>
  <time>2026-09-01T20:02:50Z</time>
  <course>10.61</course>
  <speed>0.130384048104053</speed>
  <fix>3d</fix>
</trkpt>
<trkpt lat="-27.2744402" lon="151.2900636">
  <ele>356.82</ele>
  <time>2026-09-01T20:02:50Z</time>
  <course>3.22</course>
  <speed>0.14</speed>
  <fix>3d</fix>
</trkpt>
<trkpt lat="-27.2744398" lon="151.2900637">
  <ele>357.38</ele>
  <time>2026-09-01T20:02:50Z</time>
  <course>10.62</course>
  <speed>0.130384048104053</speed>
  <fix>3d</fix>
</trkpt>
<trkpt lat="-27.2744399" lon="151.2900636">
  <ele>357.11</ele>
  <time>2026-09-01T20:02:50Z</time>
  <course>3.5</course>
  <speed>0.15</speed>
  <fix>3d</fix>
</trkpt>
<trkpt lat="-27.2744397" lon="151.2900637">
  <ele>357.52</ele>
  <time>2026-09-01T20:02:50Z</time>
  <course>10.63</course>
  <speed>0.12041594578792296</speed>
  <fix>3d</fix>
</trkpt>
<trkpt lat="-27.2744399" lon="151.2900636">
  <ele>357.11</ele>
  <time>2026-09-01T20:02:50Z</time>
  <course>3.5</course>
  <speed>0.15</speed>
  <fix>3d</fix>
</trkpt>
<trkpt lat="-27.2744395" lon="151.2900637">
  <ele>357.66</ele>
  <time>2026-09-01T20:02:50Z</time>
  <course>10.64</course>
  <speed>0.12041594578792296</speed>
  <fix>3d</fix>
</trkpt>
<trkpt lat="-27.2744397" lon="151.2900636">
  <ele>357.39</ele>
  <time>2026-09-01T20:02:50Z</time>
  <course>3.77</course>
  <speed>0.15</speed>
  <fix>3d</fix>
</trkpt>
<trkpt lat="-27.2744394" lon="151.2900637">
  <ele>357.8</ele>
  <time>2026-09-01T20:02:50Z</time>
  <course>10.66</course>
  <speed>0.12041594578792296</speed>
  <fix>3d</fix>
</trkpt>
<trkpt lat="-27.2744397" lon="151.2900636">
  <ele>357.39</ele>
  <time>2026-09-01T20:02:50Z</time>
  <course>3.77</course>
  <speed>0.15</speed>
  <fix>3d</fix>
</trkpt>
<trkpt lat="-27.2744393" lon="151.2900637">
  <ele>357.93</ele>
  <time>2026-09-01T20:02:50Z</time>
  <course>10.67</course>
  <speed>0.11045361017187261</speed>
  <fix>3d</fix>
</trkpt>
<trkpt lat="-27.2744394" lon="151.2900636">
  <ele>357.66</ele>
  <time>2026-09-01T20:02:50Z</time>
  <course>4.07</course>
  <speed>0.14</speed>
  <fix>3d</fix>
</trkpt>
<trkpt lat="-27.2744392" lon="151.2900637">
  <ele>358.07</ele>
  <time>2026-09-01T20:02:50Z</time>
  <course>10.68</course>
  <speed>0.11045361017187261</speed>
  <fix>3d</fix>
</trkpt>
<trkpt lat="-27.2744394" lon="151.2900636">
  <ele>357.66</ele>
  <time>2026-09-01T20:02:50Z</time>
  <course>4.07</course>
  <speed>0.14</speed>
  <fix>3d</fix>
</trkpt>
<trkpt lat="-27.2744391" lon="151.2900637">
  <ele>358.2</ele>
  <time>2026-09-01T20:02:50Z</time>
  <course>10.69</course>
  <speed>0.1004987562112089</speed>
  <fix>3d</fix>
</trkpt>
<trkpt lat="-27.2744391" lon="151.2900636">
  <ele>357.93</ele>
  <time>2026-09-01T20:02:50Z</time>
  <course>4.52</course>
  <speed>0.13</speed>
  <fix>3d</fix>
</trkpt>
<trkpt lat="-27.274439" lon="151.2900637">
  <ele>358.34</ele>
  <time>2026-09-01T20:02:50Z</time>
  <course>10.69</course>
  <speed>0.1004987562112089</speed>
  <fix>3d</fix>
</trkpt>
<trkpt lat="-27.2744391" lon="151.2900636">
  <ele>357.93</ele>
  <time>2026-09-01T20:02:50Z</time>
  <course>4.52</course>
  <speed>0.13</speed>
  <fix>3d</fix>
</trkpt>
<trkpt lat="-27.2744389" lon="151.2900637">
  <ele>358.48</ele>
  <time>2026-09-01T20:02:50Z</time>
  <course>10.7</course>
  <speed>0.09055385138137417</speed>
  <fix>3d</fix>
</trkpt>
<trkpt lat="-27.2744389" lon="151.2900636">
  <ele>358.2</ele>
  <time>2026-09-01T20:02:50Z</time>
  <course>5.16</course>
  <speed>0.12</speed>
  <fix>3d</fix>
</trkpt>
<trkpt lat="-27.2744388" lon="151.2900637">
  <ele>358.61</ele>
  <time>2026-09-01T20:02:50Z</time>
  <course>10.7</course>
  <speed>0.09055385138137417</speed>
  <fix>3d</fix>
</trkpt>
<trkpt lat="-27.2744389" lon="151.2900636">
  <ele>358.2</ele>
  <time>2026-09-01T20:02:50Z</time>
  <course>5.16</course>
  <speed>0.12</speed>
  <fix>3d</fix>
</trkpt>
<trkpt lat="-27.2744387" lon="151.2900637">
  <ele>358.75</ele>
  <time>2026-09-01T20:02:50Z</time>
  <course>10.7</course>
  <speed>0.08062257748298549</speed>
  <fix>3d</fix>
</trkpt>
<trkpt lat="-27.2744387" lon="151.2900637">
  <ele>358.47</ele>
  <time>2026-09-01T20:02:50Z</time>
  <course>6.06</course>
  <speed>0.11</speed>
  <fix>3d</fix>
</trkpt>
<trkpt lat="-27.2744386" lon="151.2900637">
  <ele>358.89</ele>
  <time>2026-09-01T20:02:50Z</time>
  <course>10.7</course>
  <speed>0.07071067811865475</speed>
  <fix>3d</fix>
</trkpt>
<trkpt lat="-27.2744387" lon="151.2900637">
  <ele>358.47</ele>
  <time>2026-09-01T20:02:50Z</time>
  <course>6.06</course>
  <speed>0.11</speed>
  <fix>3d</fix>
</trkpt>
<trkpt lat="-27.2744385" lon="151.2900637">
  <ele>359.02</ele>
  <time>2026-09-01T20:02:50Z</time>
  <course>10.71</course>
  <speed>0.07071067811865475</speed>
  <fix>3d</fix>
</trkpt>
<trkpt lat="-27.2744385" lon="151.2900637">
  <ele>358.75</ele>
  <time>2026-09-01T20:02:50Z</time>
  <course>7.36</course>
  <speed>0.1</speed>
  <fix>3d</fix>
</trkpt>
<trkpt lat="-27.2744384" lon="151.2900637">
  <ele>359.16</ele>
  <time>2026-09-01T20:02:50Z</time>
  <course>10.72</course>
  <speed>0.06082762530298219</speed>
  <fix>3d</fix>
</trkpt>
<trkpt lat="-27.2744385" lon="151.2900637">
  <ele>358.75</ele>
  <time>2026-09-01T20:02:50Z</time>
  <course>7.36</course>
  <speed>0.1</speed>
  <fix>3d</fix>
</trkpt>
<trkpt lat="-27.2744383" lon="151.2900637">
  <ele>359.3</ele>
  <time>2026-09-01T20:02:50Z</time>
  <course>10.73</course>
  <speed>0.06082762530298219</speed>
  <fix>3d</fix>
</trkpt>
<trkpt lat="-27.2744383" lon="151.2900637">
  <ele>359.03</ele>
  <time>2026-09-01T20:02:50Z</time>
  <course>9.02</course>
  <speed>0.09</speed>
  <fix>3d</fix>
</trkpt>
<trkpt lat="-27.2744383" lon="151.2900637">
  <ele>359.44</ele>
  <time>2026-09-01T20:02:50Z</time>
  <course>10.74</course>
  <speed>0.05099019513592785</speed>
  <fix>3d</fix>
</trkpt>
<trkpt lat="-27.2744383" lon="151.2900637">
  <ele>359.03</ele>
  <time>2026-09-01T20:02:50Z</time>
  <course>9.02</course>
  <speed>0.09</speed>
  <fix>3d</fix>
</trkpt>
<trkpt lat="-27.2744382" lon="151.2900637">
  <ele>359.58</ele>
  <time>2026-09-01T20:02:50Z</time>
  <course>10.75</course>
  <speed>0.05099019513592785</speed>
  <fix>3d</fix>
</trkpt>
<trkpt lat="-27.2744382" lon="151.2900637">
  <ele>359.31</ele>
  <time>2026-09-01T20:02:50Z</time>
  <course>11.1</course>
  <speed>0.08</speed>
  <fix>3d</fix>
</trkpt>
<trkpt lat="-27.2744381" lon="151.2900637">
  <ele>359.73</ele>
  <time>2026-09-01T20:02:50Z</time>
  <course>10.76</course>
  <speed>0.0412310562561766</speed>
  <fix>3d</fix>
</trkpt>
<trkpt lat="-27.2744382" lon="151.2900637">
  <ele>359.31</ele>
  <time>2026-09-01T20:02:50Z</time>
  <course>11.1</course>
  <speed>0.08</speed>
  <fix>3d</fix>
</trkpt>
<trkpt lat="-27.2744381" lon="151.2900637">
  <ele>359.87</ele>
  <time>2026-09-01T20:02:50Z</time>
  <course>10.78</course>
  <speed>0.04</speed>
  <fix>3d</fix>
</trkpt>
<trkpt lat="-27.274438" lon="151.2900637">
  <ele>359.6</ele>
  <time>2026-09-01T20:02:50Z</time>
  <course>13.55</course>
  <speed>0.07</speed>
  <fix>3d</fix>
</trkpt>
<trkpt lat="-27.274438" lon="151.2900638">
  <ele>360.02</ele>
  <time>2026-09-01T20:02:50Z</time>
  <course>10.79</course>
  <speed>0.03</speed>
  <fix>3d</fix>
</trkpt>
<trkpt lat="-27.274438" lon="151.2900637">
  <ele>359.6</ele>
  <time>2026-09-01T20:02:50Z</time>
  <course>13.55</course>
  <speed>0.07</speed>
  <fix>3d</fix>
</trkpt>
<trkpt lat="-27.274438" lon="151.2900638">
  <ele>360.16</ele>
  <time>2026-09-01T20:02:50Z</time>
  <course>10.81</course>
  <speed>0.03</speed>
  <fix>3d</fix>
</trkpt>
<trkpt lat="-27.2744379" lon="151.2900637">
  <ele>359.89</ele>
  <time>2026-09-01T20:02:50Z</time>
  <course>16.22</course>
  <speed>0.06</speed>
  <fix>3d</fix>
</trkpt>
<trkpt lat="-27.2744379" lon="151.2900638">
  <ele>360.31</ele>
  <time>2026-09-01T20:02:50Z</time>
  <course>10.83</course>
  <speed>0.02</speed>
  <fix>3d</fix>
</trkpt>
<trkpt lat="-27.2744379" lon="151.2900637">
  <ele>359.89</ele>
  <time>2026-09-01T20:02:50Z</time>
  <course>16.22</course>
  <speed>0.06</speed>
  <fix>3d</fix>
</trkpt>
<trkpt lat="-27.2744379" lon="151.2900638">
  <ele>360.45</ele>
  <time>2026-09-01T20:02:50Z</time>
  <course>10.84</course>
  <speed>0.02</speed>
  <fix>3d</fix>
</trkpt>
<trkpt lat="-27.2744378" lon="151.2900638">
  <ele>360.18</ele>
  <time>2026-09-01T20:02:50Z</time>
  <course>19.61</course>
  <speed>0.05</speed>
  <fix>3d</fix>
</trkpt>
<trkpt lat="-27.2744379" lon="151.2900638">
  <ele>360.6</ele>
  <time>2026-09-01T20:02:50Z</time>
  <course>10.85</course>
  <speed>0.01</speed>
  <fix>3d</fix>
</trkpt>
<trkpt lat="-27.2744378" lon="151.2900638">
  <ele>360.18</ele>
  <time>2026-09-01T20:02:50Z</time>
  <course>19.61</course>
  <speed>0.05</speed>
  <fix>3d</fix>
</trkpt>
<trkpt lat="-27.2744378" lon="151.2900638">
  <ele>360.75</ele>
  <time>2026-09-01T20:02:50Z</time>
  <course>10.87</course>
  <speed>0.01</speed>
  <fix>3d</fix>
</trkpt>
<trkpt lat="-27.2744377" lon="151.2900639">
  <ele>360.47</ele>
  <time>2026-09-01T20:02:50Z</time>
  <course>24.44</course>
  <speed>0.04</speed>
  <fix>3d</fix>
</trkpt>
<trkpt lat="-27.2744378" lon="151.2900638">
  <ele>360.89</ele>
  <time>2026-09-01T20:02:50Z</time>
  <course>10.88</course>
  <speed>0.0</speed>
  <fix>3d</fix>
</trkpt>
<trkpt lat="-27.2744377" lon="151.2900639">
  <ele>360.47</ele>
  <time>2026-09-01T20:02:50Z</time>
  <course>24.44</course>
  <speed>0.04</speed>
  <fix>3d</fix>
</trkpt>
<trkpt lat="-27.2744378" lon="151.2900638">
  <ele>361.04</ele>
  <time>2026-09-01T20:02:50Z</time>
  <course>10.89</course>
  <speed>0.0</speed>
  <fix>3d</fix>
</trkpt>
<trkpt lat="-27.2744377" lon="151.2900639">
  <ele>360.77</ele>
  <time>2026-09-01T20:02:50Z</time>
  <course>30.92</course>
  <speed>0.03</speed>
  <fix>3d</fix>
</trkpt>
<trkpt lat="-27.2744378" lon="151.2900638">
  <ele>361.19</ele>
  <time>2026-09-01T20:02:50Z</time>
  <course>10.91</course>
  <speed>0.0</speed>
  <fix>3d</fix>
</trkpt>
<trkpt lat="-27.2744377" lon="151.2900639">
  <ele>360.77</ele>
  <time>2026-09-01T20:02:50Z</time>
  <course>30.92</course>
  <speed>0.03</speed>
  <fix>3d</fix>
</trkpt>
<trkpt lat="-27.2744378" lon="151.2900638">
  <ele>361.33</ele>
  <time>2026-09-01T20:02:50Z</time>
  <course>10.92</course>
  <speed>0.0</speed>
  <fix>3d</fix>
</trkpt>
<trkpt lat="-27.2744376" lon="151.2900639">
  <ele>361.06</ele>
  <time>2026-09-01T20:02:50Z</time>
  <course>41.03</course>
  <speed>0.02</speed>
  <fix>3d</fix>
</trkpt>
<trkpt lat="-27.2744378" lon="151.2900638">
  <ele>361.48</ele>
  <time>2026-09-01T20:02:50Z</time>
  <course>10.94</course>
  <speed>0.01</speed>
  <fix>3d</fix>
</trkpt>
<trkpt lat="-27.2744376" lon="151.2900639">
  <ele>361.06</ele>
  <time>2026-09-01T20:02:50Z</time>
  <course>41.03</course>
  <speed>0.02</speed>
  <fix>3d</fix>
</trkpt>
<trkpt lat="-27.2744378" lon="151.2900639">
  <ele>361.62</ele>
  <time>2026-09-01T20:02:50Z</time>
  <course>10.96</course>
  <speed>0.01</speed>
  <fix>3d</fix>
</trkpt>
<trkpt lat="-27.2744376" lon="151.290064">
  <ele>361.35</ele>
  <time>2026-09-01T20:02:50Z</time>
  <course>61.29</course>
  <speed>0.01</speed>
  <fix>3d</fix>
</trkpt>
<trkpt lat="-27.2744378" lon="151.2900639">
  <ele>361.77</ele>
  <time>2026-09-01T20:02:50Z</time>
  <course>10.99</course>
  <speed>0.01</speed>
  <fix>3d</fix>
</trkpt>
<trkpt lat="-27.2744376" lon="151.290064">
  <ele>361.35</ele>
  <time>2026-09-01T20:02:50Z</time>
  <course>61.29</course>
  <speed>0.01</speed>
  <fix>3d</fix>
</trkpt>
<trkpt lat="-27.2744378" lon="151.2900639">
  <ele>361.91</ele>
  <time>2026-09-01T20:02:50Z</time>
  <course>11.01</course>
  <speed>0.02</speed>
  <fix>3d</fix>
</trkpt>
<trkpt lat="-27.2744376" lon="151.290064">
  <ele>361.64</ele>
  <time>2026-09-01T20:02:50Z</time>
  <course>99.09</course>
  <speed>0.01</speed>
  <fix>3d</fix>
</trkpt>
<trkpt lat="-27.2744378" lon="151.2900639">
  <ele>362.06</ele>
  <time>2026-09-01T20:02:50Z</time>
  <course>11.04</course>
  <speed>0.02</speed>
  <fix>3d</fix>
</trkpt>
<trkpt lat="-27.2744376" lon="151.290064">
  <ele>361.64</ele>
  <time>2026-09-01T20:02:50Z</time>
  <course>99.09</course>
  <speed>0.01</speed>
  <fix>3d</fix>
</trkpt>
<trkpt lat="-27.2744378" lon="151.2900639">
  <ele>362.2</ele>
  <time>2026-09-01T20:02:50Z</time>
  <course>11.06</course>
  <speed>0.03</speed>
  <fix>3d</fix>
</trkpt>
<trkpt lat="-27.2744376" lon="151.290064">
  <ele>361.93</ele>
  <time>2026-09-01T20:02:50Z</time>
  <course>140.61</course>
  <speed>0.01</speed>
  <fix>3d</fix>
</trkpt>
<trkpt lat="-27.2744378" lon="151.2900639">
  <ele>362.34</ele>
  <time>2026-09-01T20:02:50Z</time>
  <course>11.07</course>
  <speed>0.03</speed>
  <fix>3d</fix>
</trkpt>
<trkpt lat="-27.2744376" lon="151.290064">
  <ele>361.93</ele>
  <time>2026-09-01T20:02:50Z</time>
  <course>140.61</course>
  <speed>0.01</speed>
  <fix>3d</fix>
</trkpt>
<trkpt lat="-27.2744378" lon="151.2900639">
  <ele>362.49</ele>
  <time>2026-09-01T20:02:50Z</time>
  <course>11.08</course>
  <speed>0.03</speed>
  <fix>3d</fix>
</trkpt>
<trkpt lat="-27.2744376" lon="151.2900641">
  <ele>362.22</ele>
  <time>2026-09-01T20:02:50Z</time>
  <course>165.23</course>
  <speed>0.02</speed>
  <fix>3d</fix>
</trkpt>
<trkpt lat="-27.2744378" lon="151.2900639">
  <ele>362.63</ele>
  <time>2026-09-01T20:02:50Z</time>
  <course>11.07</course>
  <speed>0.04</speed>
  <fix>3d</fix>
</trkpt>
<trkpt lat="-27.2744376" lon="151.2900641">
  <ele>362.22</ele>
  <time>2026-09-01T20:02:50Z</time>
  <course>165.23</course>
  <speed>0.02</speed>
  <fix>3d</fix>
</trkpt>
<trkpt lat="-27.2744378" lon="151.2900639">
  <ele>362.77</ele>
  <time>2026-09-01T20:02:50Z</time>
  <course>11.06</course>
  <speed>0.04</speed>
  <fix>3d</fix>
</trkpt>
<trkpt lat="-27.2744376" lon="151.2900641">
  <ele>362.51</ele>
  <time>2026-09-01T20:02:50Z</time>
  <course>176.71</course>
  <speed>0.02</speed>
  <fix>3d</fix>
</trkpt>
<trkpt lat="-27.2744378" lon="151.2900639">
  <ele>362.92</ele>
  <time>2026-09-01T20:02:50Z</time>
  <course>11.04</course>
  <speed>0.04</speed>
  <fix>3d</fix>
</trkpt>
<trkpt lat="-27.2744376" lon="151.2900641">
  <ele>362.51</ele>
  <time>2026-09-01T20:02:50Z</time>
  <course>176.71</course>
  <speed>0.02</speed>
  <fix>3d</fix>
</trkpt>
<trkpt lat="-27.2744378" lon="151.2900639">
  <ele>363.06</ele>
  <time>2026-09-01T20:02:50Z</time>
  <course>11.01</course>
  <speed>0.04</speed>
  <fix>3d</fix>
</trkpt>
<trkpt lat="-27.2744376" lon="151.2900641">
  <ele>362.79</ele>
  <time>2026-09-01T20:02:50Z</time>
  <course>181.36</course>
  <speed>0.03</speed>
  <fix>3d</fix>
</trkpt>
<trkpt lat="-27.2744378" lon="151.2900639">
  <ele>363.21</ele>
  <time>2026-09-01T20:02:50Z</time>
  <course>10.98</course>
  <speed>0.05</speed>
  <fix>3d</fix>
</trkpt>
<trkpt lat="-27.2744376" lon="151.2900641">
  <ele>362.79</ele>
  <time>2026-09-01T20:02:50Z</time>
  <course>181.36</course>
  <speed>0.03</speed>
  <fix>3d</fix>
</trkpt>
<trkpt lat="-27.2744379" lon="151.2900639">
  <ele>363.35</ele>
  <time>2026-09-01T20:02:50Z</time>
  <course>10.96</course>
  <speed>0.05</speed>
  <fix>3d</fix>
</trkpt>
<trkpt lat="-27.2744377" lon="151.2900641">
  <ele>363.08</ele>
  <time>2026-09-01T20:02:50Z</time>
  <course>183.21</course>
  <speed>0.03</speed>
  <fix>3d</fix>
</trkpt>
<trkpt lat="-27.2744379" lon="151.290064">
  <ele>363.5</ele>
  <time>2026-09-01T20:02:50Z</time>
  <course>10.94</course>
  <speed>0.05</speed>
  <fix>3d</fix>
</trkpt>
<trkpt lat="-27.2744377" lon="151.2900641">
  <ele>363.08</ele>
  <time>2026-09-01T20:02:50Z</time>
  <course>183.21</course>
  <speed>0.03</speed>
  <fix>3d</fix>
</trkpt>
<trkpt lat="-27.2744379" lon="151.290064">
  <ele>363.64</ele>
  <time>2026-09-01T20:02:50Z</time>
  <course>10.93</course>
  <speed>0.05</speed>
  <fix>3d</fix>
</trkpt>
<trkpt lat="-27.2744378" lon="151.2900641">
  <ele>363.36</ele>
  <time>2026-09-01T20:02:50Z</time>
  <course>184.77</course>
  <speed>0.04</speed>
  <fix>3d</fix>
</trkpt>
<trkpt lat="-27.274438" lon="151.290064">
  <ele>363.79</ele>
  <time>2026-09-01T20:02:50Z</time>
  <course>10.91</course>
  <speed>0.05</speed>
  <fix>3d</fix>
</trkpt>
<trkpt lat="-27.2744378" lon="151.2900641">
  <ele>363.36</ele>
  <time>2026-09-01T20:02:50Z</time>
  <course>184.77</course>
  <speed>0.04</speed>
  <fix>3d</fix>
</trkpt>
<trkpt lat="-27.274438" lon="151.290064">
  <ele>363.93</ele>
  <time>2026-09-01T20:02:50Z</time>
  <course>10.9</course>
  <speed>0.05</speed>
  <fix>3d</fix>
</trkpt>
<trkpt lat="-27.2744378" lon="151.2900641">
  <ele>363.65</ele>
  <time>2026-09-01T20:02:50Z</time>
  <course>185.93</course>
  <speed>0.04</speed>
  <fix>3d</fix>
</trkpt>
<trkpt lat="-27.274438" lon="151.290064">
  <ele>364.07</ele>
  <time>2026-09-01T20:02:50Z</time>
  <course>10.88</course>
  <speed>0.05</speed>
  <fix>3d</fix>
</trkpt>
<trkpt lat="-27.2744378" lon="151.2900641">
  <ele>363.65</ele>
  <time>2026-09-01T20:02:50Z</time>
  <course>185.93</course>
  <speed>0.04</speed>
  <fix>3d</fix>
</trkpt>
<trkpt lat="-27.2744381" lon="151.290064">
  <ele>364.22</ele>
  <time>2026-09-01T20:02:50Z</time>
  <course>10.86</course>
  <speed>0.05</speed>
  <fix>3d</fix>
</trkpt>
<trkpt lat="-27.2744379" lon="151.2900641">
  <ele>363.93</ele>
  <time>2026-09-01T20:02:50Z</time>
  <course>186.23</course>
  <speed>0.05</speed>
  <fix>3d</fix>
</trkpt>
<trkpt lat="-27.2744381" lon="151.290064">
  <ele>364.36</ele>
  <time>2026-09-01T20:02:50Z</time>
  <course>10.84</course>
  <speed>0.05</speed>
  <fix>3d</fix>
</trkpt>
<trkpt lat="-27.2744379" lon="151.2900641">
  <ele>363.93</ele>
  <time>2026-09-01T20:02:50Z</time>
  <course>186.23</course>
  <speed>0.05</speed>
  <fix>3d</fix>
</trkpt>
<trkpt lat="-27.2744382" lon="151.290064">
  <ele>364.5</ele>
  <time>2026-09-01T20:02:50Z</time>
  <course>10.82</course>
  <speed>0.05</speed>
  <fix>3d</fix>
</trkpt>
<trkpt lat="-27.274438" lon="151.2900641">
  <ele>364.21</ele>
  <time>2026-09-01T20:02:50Z</time>
  <course>185.95</course>
  <speed>0.05</speed>
  <fix>3d</fix>
</trkpt>
<trkpt lat="-27.2744382" lon="151.290064">
  <ele>364.65</ele>
  <time>2026-09-01T20:02:50Z</time>
  <course>10.82</course>
  <speed>0.06</speed>
  <fix>3d</fix>
</trkpt>
<trkpt lat="-27.274438" lon="151.2900641">
  <ele>364.21</ele>
  <time>2026-09-01T20:02:50Z</time>
  <course>185.95</course>
  <speed>0.05</speed>
  <fix>3d</fix>
</trkpt>
<trkpt lat="-27.2744382" lon="151.290064">
  <ele>364.79</ele>
  <time>2026-09-01T20:02:50Z</time>
  <course>10.82</course>
  <speed>0.05</speed>
  <fix>3d</fix>
</trkpt>
<trkpt lat="-27.2744381" lon="151.2900641">
  <ele>364.5</ele>
  <time>2026-09-01T20:02:50Z</time>
  <course>186.15</course>
  <speed>0.05</speed>
  <fix>3d</fix>
</trkpt>
<trkpt lat="-27.2744383" lon="151.290064">
  <ele>364.93</ele>
  <time>2026-09-01T20:02:50Z</time>
  <course>10.81</course>
  <speed>0.06</speed>
  <fix>3d</fix>
</trkpt>
<trkpt lat="-27.2744381" lon="151.2900641">
  <ele>364.5</ele>
  <time>2026-09-01T20:02:50Z</time>
  <course>186.15</course>
  <speed>0.05</speed>
  <fix>3d</fix>
</trkpt>
<trkpt lat="-27.2744383" lon="151.290064">
  <ele>365.08</ele>
  <time>2026-09-01T20:02:50Z</time>
  <course>10.8</course>
  <speed>0.05</speed>
  <fix>3d</fix>
</trkpt>
<trkpt lat="-27.2744382" lon="151.2900641">
  <ele>364.78</ele>
  <time>2026-09-01T20:02:50Z</time>
  <course>186.78</course>
  <speed>0.05</speed>
  <fix>3d</fix>
</trkpt>
<trkpt lat="-27.2744384" lon="151.290064">
  <ele>365.22</ele>
  <time>2026-09-01T20:02:50Z</time>
  <course>10.78</course>
  <speed>0.05</speed>
  <fix>3d</fix>
</trkpt>
<trkpt lat="-27.2744382" lon="151.2900641">
  <ele>364.78</ele>
  <time>2026-09-01T20:02:50Z</time>
  <course>186.78</course>
  <speed>0.05</speed>
  <fix>3d</fix>
</trkpt>
<trkpt lat="-27.2744384" lon="151.290064">
  <ele>365.36</ele>
  <time>2026-09-01T20:02:50Z</time>
  <course>10.76</course>
  <speed>0.05</speed>
  <fix>3d</fix>
</trkpt>
<trkpt lat="-27.2744383" lon="151.2900641">
  <ele>365.07</ele>
  <time>2026-09-01T20:02:50Z</time>
  <course>187.38</course>
  <speed>0.05</speed>
  <fix>3d</fix>
</trkpt>
<trkpt lat="-27.2744385" lon="151.290064">
  <ele>365.5</ele>
  <time>2026-09-01T20:02:50Z</time>
  <course>10.74</course>
  <speed>0.05</speed>
  <fix>3d</fix>
</trkpt>
<trkpt lat="-27.2744383" lon="151.2900641">
  <ele>365.07</ele>
  <time>2026-09-01T20:02:50Z</time>
  <course>187.38</course>
  <speed>0.05</speed>
  <fix>3d</fix>
</trkpt>
<trkpt lat="-27.2744385" lon="151.290064">
  <ele>365.65</ele>
  <time>2026-09-01T20:02:50Z</time>
  <course>10.72</course>
  <speed>0.05</speed>
  <fix>3d</fix>
</trkpt>
<trkpt lat="-27.2744384" lon="151.2900641">
  <ele>365.36</ele>
  <time>2026-09-01T20:02:50Z</time>
  <course>187.45</course>
  <speed>0.05</speed>
  <fix>3d</fix>
</trkpt>
<trkpt lat="-27.2744385" lon="151.290064">
  <ele>365.79</ele>
  <time>2026-09-01T20:02:50Z</time>
  <course>10.71</course>
  <speed>0.05</speed>
  <fix>3d</fix>
</trkpt>
<trkpt lat="-27.2744384" lon="151.2900641">
  <ele>365.36</ele>
  <time>2026-09-01T20:02:50Z</time>
  <course>187.45</course>
  <speed>0.05</speed>
  <fix>3d</fix>
</trkpt>
<trkpt lat="-27.2744386" lon="151.290064">
  <ele>365.94</ele>
  <time>2026-09-01T20:02:50Z</time>
  <course>10.72</course>
  <speed>0.05</speed>
  <fix>3d</fix>
</trkpt>
<trkpt lat="-27.2744385" lon="151.2900641">
  <ele>365.64</ele>
  <time>2026-09-01T20:02:50Z</time>
  <course>187.14</course>
  <speed>0.05</speed>
  <fix>3d</fix>
</trkpt>
<trkpt lat="-27.2744386" lon="151.290064">
  <ele>366.08</ele>
  <time>2026-09-01T20:02:50Z</time>
  <course>10.74</course>
  <speed>0.05</speed>
  <fix>3d</fix>
</trkpt>
<trkpt lat="-27.2744385" lon="151.2900641">
  <ele>365.64</ele>
  <time>2026-09-01T20:02:50Z</time>
  <course>187.14</course>
  <speed>0.05</speed>
  <fix>3d</fix>
</trkpt>
<trkpt lat="-27.2744387" lon="151.290064">
  <ele>366.23</ele>
  <time>2026-09-01T20:02:50Z</time>
  <course>10.76</course>
  <speed>0.05</speed>
  <fix>3d</fix>
</trkpt>
<trkpt lat="-27.2744386" lon="151.290064">
  <ele>365.93</ele>
  <time>2026-09-01T20:02:50Z</time>
  <course>187.31</course>
  <speed>0.04</speed>
  <fix>3d</fix>
</trkpt>
<trkpt lat="-27.2744387" lon="151.290064">
  <ele>366.37</ele>
  <time>2026-09-01T20:02:50Z</time>
  <course>10.76</course>
  <speed>0.05</speed>
  <fix>3d</fix>
</trkpt>
<trkpt lat="-27.2744386" lon="151.290064">
  <ele>365.93</ele>
  <time>2026-09-01T20:02:50Z</time>
  <course>187.31</course>
  <speed>0.04</speed>
  <fix>3d</fix>
</trkpt>
<trkpt lat="-27.2744388" lon="151.290064">
  <ele>366.51</ele>
  <time>2026-09-01T20:02:50Z</time>
  <course>10.76</course>
  <speed>0.04</speed>
  <fix>3d</fix>
</trkpt>
<trkpt lat="-27.2744387" lon="151.290064">
  <ele>366.21</ele>
  <time>2026-09-01T20:02:50Z</time>
  <course>187.84</course>
  <speed>0.04</speed>
  <fix>3d</fix>
</trkpt>
<trkpt lat="-27.2744388" lon="151.290064">
  <ele>366.65</ele>
  <time>2026-09-01T20:02:50Z</time>
  <course>10.74</course>
  <speed>0.04</speed>
  <fix>3d</fix>
</trkpt>
<trkpt lat="-27.2744387" lon="151.290064">
  <ele>366.21</ele>
  <time>2026-09-01T20:02:50Z</time>
  <course>187.84</course>
  <speed>0.04</speed>
  <fix>3d</fix>
</trkpt>
<trkpt lat="-27.2744388" lon="151.290064">
  <ele>366.8</ele>
  <time>2026-09-01T20:02:50Z</time>
  <course>10.71</course>
  <speed>0.04</speed>
  <fix>3d</fix>
</trkpt>
<trkpt lat="-27.2744388" lon="151.290064">
  <ele>366.5</ele>
  <time>2026-09-01T20:02:50Z</time>
  <course>188.19</course>
  <speed>0.04</speed>
  <fix>3d</fix>
</trkpt>
<trkpt lat="-27.2744389" lon="151.290064">
  <ele>366.95</ele>
  <time>2026-09-01T20:02:50Z</time>
  <course>10.69</course>
  <speed>0.04</speed>
  <fix>3d</fix>
</trkpt>
<trkpt lat="-27.2744388" lon="151.290064">
  <ele>366.5</ele>
  <time>2026-09-01T20:02:50Z</time>
  <course>188.19</course>
  <speed>0.04</speed>
  <fix>3d</fix>
</trkpt>
<trkpt lat="-27.2744389" lon="151.290064">
  <ele>367.09</ele>
  <time>2026-09-01T20:02:50Z</time>
  <course>10.67</course>
  <speed>0.04</speed>
  <fix>3d</fix>
</trkpt>
<trkpt lat="-27.2744389" lon="151.290064">
  <ele>366.78</ele>
  <time>2026-09-01T20:02:50Z</time>
  <course>187.53</course>
  <speed>0.04</speed>
  <fix>3d</fix>
</trkpt>
<trkpt lat="-27.2744389" lon="151.290064">
  <ele>367.24</ele>
  <time>2026-09-01T20:02:50Z</time>
  <course>10.67</course>
  <speed>0.03</speed>
  <fix>3d</fix>
</trkpt>
<trkpt lat="-27.2744389" lon="151.290064">
  <ele>366.78</ele>
  <time>2026-09-01T20:02:50Z</time>
  <course>187.53</course>
  <speed>0.04</speed>
  <fix>3d</fix>
</trkpt>
<trkpt lat="-27.274439" lon="151.290064">
  <ele>367.38</ele>
  <time>2026-09-01T20:02:50Z</time>
  <course>10.69</course>
  <speed>0.03</speed>
  <fix>3d</fix>
</trkpt>
<trkpt lat="-27.2744389" lon="151.290064">
  <ele>367.07</ele>
  <time>2026-09-01T20:02:50Z</time>
  <course>186.58</course>
  <speed>0.03</speed>
  <fix>3d</fix>
</trkpt>
<trkpt lat="-27.274439" lon="151.290064">
  <ele>367.52</ele>
  <time>2026-09-01T20:02:50Z</time>
  <course>10.71</course>
  <speed>0.03</speed>
  <fix>3d</fix>
</trkpt>
<trkpt lat="-27.2744389" lon="151.290064">
  <ele>367.07</ele>
  <time>2026-09-01T20:02:50Z</time>
  <course>186.58</course>
  <speed>0.03</speed>
  <fix>3d</fix>
</trkpt>
<trkpt lat="-27.274439" lon="151.290064">
  <ele>367.67</ele>
  <time>2026-09-01T20:02:50Z</time>
  <course>10.72</course>
  <speed>0.03</speed>
  <fix>3d</fix>
</trkpt>
<trkpt lat="-27.274439" lon="151.290064">
  <ele>367.36</ele>
  <time>2026-09-01T20:02:50Z</time>
  <course>187.16</course>
  <speed>0.03</speed>
  <fix>3d</fix>
</trkpt>
<trkpt lat="-27.274439" lon="151.290064">
  <ele>367.81</ele>
  <time>2026-09-01T20:02:50Z</time>
  <course>10.72</course>
  <speed>0.02</speed>
  <fix>3d</fix>
</trkpt>
<trkpt lat="-27.274439" lon="151.290064">
  <ele>367.36</ele>
  <time>2026-09-01T20:02:50Z</time>
  <course>187.16</course>
  <speed>0.03</speed>
  <fix>3d</fix>
</trkpt>
<trkpt lat="-27.2744391" lon="151.290064">
  <ele>367.95</ele>
  <time>2026-09-01T20:02:50Z</time>
  <course>10.71</course>
  <speed>0.02</speed>
  <fix>3d</fix>
</trkpt>
<trkpt lat="-27.274439" lon="151.290064">
  <ele>367.64</ele>
  <time>2026-09-01T20:02:50Z</time>
  <course>187.26</course>
  <speed>0.02</speed>
  <fix>3d</fix>
</trkpt>
<trkpt lat="-27.2744391" lon="151.290064">
  <ele>368.09</ele>
  <time>2026-09-01T20:02:50Z</time>
  <course>10.7</course>
  <speed>0.02</speed>
  <fix>3d</fix>
</trkpt>
<trkpt lat="-27.274439" lon="151.290064">
  <ele>367.64</ele>
  <time>2026-09-01T20:02:50Z</time>
  <course>187.26</course>
  <speed>0.02</speed>
  <fix>3d</fix>
</trkpt>
<trkpt lat="-27.2744391" lon="151.290064">
  <ele>368.23</ele>
  <time>2026-09-01T20:02:50Z</time>
  <course>10.69</course>
  <speed>0.02</speed>
  <fix>3d</fix>
</trkpt>
<trkpt lat="-27.2744391" lon="151.290064">
  <ele>367.93</ele>
  <time>2026-09-01T20:02:50Z</time>
  <course>185.4</course>
  <speed>0.02</speed>
  <fix>3d</fix>
</trkpt>
<trkpt lat="-27.2744391" lon="151.290064">
  <ele>368.37</ele>
  <time>2026-09-01T20:02:50Z</time>
  <course>10.68</course>
  <speed>0.02</speed>
  <fix>3d</fix>
</trkpt>
<trkpt lat="-27.2744391" lon="151.290064">
  <ele>367.93</ele>
  <time>2026-09-01T20:02:50Z</time>
  <course>185.4</course>
  <speed>0.02</speed>
  <fix>3d</fix>
</trkpt>
<trkpt lat="-27.2744391" lon="151.290064">
  <ele>368.51</ele>
  <time>2026-09-01T20:02:50Z</time>
  <course>10.68</course>
  <speed>0.01</speed>
  <fix>3d</fix>
</trkpt>
<trkpt lat="-27.2744391" lon="151.290064">
  <ele>368.21</ele>
  <time>2026-09-01T20:02:50Z</time>
  <course>184.7</course>
  <speed>0.01</speed>
  <fix>3d</fix>
</trkpt>
<trkpt lat="-27.2744391" lon="151.290064">
  <ele>368.65</ele>
  <time>2026-09-01T20:02:50Z</time>
  <course>10.68</course>
  <speed>0.01</speed>
  <fix>3d</fix>
</trkpt>
<trkpt lat="-27.2744391" lon="151.290064">
  <ele>368.21</ele>
  <time>2026-09-01T20:02:50Z</time>
  <course>184.7</course>
  <speed>0.01</speed>
  <fix>3d</fix>
</trkpt>
<trkpt lat="-27.2744391" lon="151.290064">
  <ele>368.79</ele>
  <time>2026-09-01T20:02:50Z</time>
  <course>10.68</course>
  <speed>0.01</speed>
  <fix>3d</fix>
</trkpt>
<trkpt lat="-27.2744392" lon="151.290064">
  <ele>368.5</ele>
  <time>2026-09-01T20:02:50Z</time>
  <course>184.34</course>
  <speed>0.01</speed>
  <fix>3d</fix>
</trkpt>
<trkpt lat="-27.2744392" lon="151.290064">
  <ele>368.94</ele>
  <time>2026-09-01T20:02:50Z</time>
  <course>10.67</course>
  <speed>0.01</speed>
  <fix>3d</fix>
</trkpt>
<trkpt lat="-27.2744392" lon="151.290064">
  <ele>368.5</ele>
  <time>2026-09-01T20:02:50Z</time>
  <course>184.34</course>
  <speed>0.01</speed>
  <fix>3d</fix>
</trkpt>
<trkpt lat="-27.2744392" lon="151.290064">
  <ele>369.08</ele>
  <time>2026-09-01T20:02:50Z</time>
  <course>10.68</course>
  <speed>0.01</speed>
  <fix>3d</fix>
</trkpt>
<trkpt lat="-27.2744392" lon="151.290064">
  <ele>368.78</ele>
  <time>2026-09-01T20:02:50Z</time>
  <course>182.19</course>
  <speed>0.0</speed>
  <fix>3d</fix>
</trkpt>
<trkpt lat="-27.2744392" lon="151.290064">
  <ele>369.23</ele>
  <time>2026-09-01T20:02:50Z</time>
  <course>10.68</course>
  <speed>0.01</speed>
  <fix>3d</fix>
</trkpt>
<trkpt lat="-27.2744392" lon="151.290064">
  <ele>368.78</ele>
  <time>2026-09-01T20:02:50Z</time>
  <course>182.19</course>
  <speed>0.0</speed>
  <fix>3d</fix>
</trkpt>
<trkpt lat="-27.2744392" lon="151.290064">
  <ele>369.37</ele>
  <time>2026-09-01T20:02:50Z</time>
  <course>10.68</course>
  <speed>0.01</speed>
  <fix>3d</fix>
</trkpt>
<trkpt lat="-27.2744392" lon="151.290064">
  <ele>369.07</ele>
  <time>2026-09-01T20:02:50Z</time>
  <course>178.1</course>
  <speed>0.0</speed>
  <fix>3d</fix>
</trkpt>
<trkpt lat="-27.2744392" lon="151.290064">
  <ele>369.51</ele>
  <time>2026-09-01T20:02:50Z</time>
  <course>10.68</course>
  <speed>0.0</speed>
  <fix>3d</fix>
</trkpt>
<trkpt lat="-27.2744392" lon="151.290064">
  <ele>369.07</ele>
  <time>2026-09-01T20:02:50Z</time>
  <course>178.1</course>
  <speed>0.0</speed>
  <fix>3d</fix>
</trkpt>
<trkpt lat="-27.2744392" lon="151.290064">
  <ele>369.66</ele>
  <time>2026-09-01T20:02:50Z</time>
  <course>10.68</course>
  <speed>0.0</speed>
  <fix>3d</fix>
</trkpt>
<trkpt lat="-27.2744392" lon="151.290064">
  <ele>369.36</ele>
  <time>2026-09-01T20:02:50Z</time>
  <course>133.31</course>
  <speed>0.0</speed>
  <fix>3d</fix>
</trkpt>
<trkpt lat="-27.2744392" lon="151.290064">
  <ele>369.8</ele>
  <time>2026-09-01T20:02:50Z</time>
  <course>10.69</course>
  <speed>0.0</speed>
  <fix>3d</fix>
</trkpt>
<trkpt lat="-27.2744392" lon="151.290064">
  <ele>369.36</ele>
  <time>2026-09-01T20:02:50Z</time>
  <course>133.31</course>
  <speed>0.0</speed>
  <fix>3d</fix>
</trkpt>
<trkpt lat="-27.2744392" lon="151.290064">
  <ele>369.95</ele>
  <time>2026-09-01T20:02:50Z</time>
  <course>10.68</course>
  <speed>0.0</speed>
  <fix>3d</fix>
</trkpt>
<trkpt lat="-27.2744392" lon="151.290064">
  <ele>369.65</ele>
  <time>2026-09-01T20:02:50Z</time>
  <course>16.64</course>
  <speed>0.0</speed>
  <fix>3d</fix>
</trkpt>
<trkpt lat="-27.2744392" lon="151.290064">
  <ele>370.09</ele>
  <time>2026-09-01T20:02:50Z</time>
  <course>10.67</course>
  <speed>0.0</speed>
  <fix>3d</fix>
</trkpt>
<trkpt lat="-27.2744392" lon="151.290064">
  <ele>369.65</ele>
  <time>2026-09-01T20:02:50Z</time>
  <course>16.64</course>
  <speed>0.0</speed>
  <fix>3d</fix>
</trkpt>
<trkpt lat="-27.2744392" lon="151.290064">
  <ele>370.24</ele>
  <time>2026-09-01T20:02:50Z</time>
  <course>10.66</course>
  <speed>0.0</speed>
  <fix>3d</fix>
</trkpt>
<trkpt lat="-27.2744392" lon="151.290064">
  <ele>369.93</ele>
  <time>2026-09-01T20:02:50Z</time>
  <course>5.62</course>
  <speed>0.0</speed>
  <fix>3d</fix>
</trkpt>
<trkpt lat="-27.2744392" lon="151.290064">
  <ele>370.38</ele>
  <time>2026-09-01T20:02:50Z</time>
  <course>10.65</course>
  <speed>0.01</speed>
  <fix>3d</fix>
</trkpt>
<trkpt lat="-27.2744392" lon="151.290064">
  <ele>369.93</ele>
  <time>2026-09-01T20:02:50Z</time>
  <course>5.62</course>
  <speed>0.0</speed>
  <fix>3d</fix>
</trkpt>
<trkpt lat="-27.2744392" lon="151.290064">
  <ele>370.52</ele>
  <time>2026-09-01T20:02:50Z</time>
  <course>10.64</course>
  <speed>0.01</speed>
  <fix>3d</fix>
</trkpt>
<trkpt lat="-27.2744392" lon="151.290064">
  <ele>370.22</ele>
  <time>2026-09-01T20:02:50Z</time>
  <course>3.51</course>
  <speed>0.01</speed>
  <fix>3d</fix>
</trkpt>
<trkpt lat="-27.2744392" lon="151.290064">
  <ele>370.67</ele>
  <time>2026-09-01T20:02:50Z</time>
  <course>10.63</course>
  <speed>0.01</speed>
  <fix>3d</fix>
</trkpt>
<trkpt lat="-27.2744392" lon="151.290064">
  <ele>370.22</ele>
  <time>2026-09-01T20:02:50Z</time>
  <course>3.51</course>
  <speed>0.01</speed>
  <fix>3d</fix>
</trkpt>
<trkpt lat="-27.2744392" lon="151.290064">
  <ele>370.81</ele>
  <time>2026-09-01T20:02:50Z</time>
  <course>10.63</course>
  <speed>0.01</speed>
  <fix>3d</fix>
</trkpt>
<trkpt lat="-27.2744392" lon="151.290064">
  <ele>370.51</ele>
  <time>2026-09-01T20:02:50Z</time>
  <course>1.75</course>
  <speed>0.01</speed>
  <fix>3d</fix>
</trkpt>
<trkpt lat="-27.2744392" lon="151.290064">
  <ele>370.96</ele>
  <time>2026-09-01T20:02:50Z</time>
  <course>10.62</course>
  <speed>0.01</speed>
  <fix>3d</fix>
</trkpt>
<trkpt lat="-27.2744392" lon="151.290064">
  <ele>370.51</ele>
  <time>2026-09-01T20:02:50Z</time>
  <course>1.75</course>
  <speed>0.01</speed>
  <fix>3d</fix>
</trkpt>
<trkpt lat="-27.2744392" lon="151.290064">
  <ele>371.1</ele>
  <time>2026-09-01T20:02:50Z</time>
  <course>10.62</course>
  <speed>0.01</speed>
  <fix>3d</fix>
</trkpt>
<trkpt lat="-27.2744392" lon="151.290064">
  <ele>370.8</ele>
  <time>2026-09-01T20:02:50Z</time>
  <course>0.26</course>
  <speed>0.01</speed>
  <fix>3d</fix>
</trkpt>
<trkpt lat="-27.2744392" lon="151.290064">
  <ele>371.25</ele>
  <time>2026-09-01T20:02:50Z</time>
  <course>10.62</course>
  <speed>0.01</speed>
  <fix>3d</fix>
</trkpt>
<trkpt lat="-27.2744392" lon="151.290064">
  <ele>370.8</ele>
  <time>2026-09-01T20:02:50Z</time>
  <course>0.26</course>
  <speed>0.01</speed>
  <fix>3d</fix>
</trkpt>
<trkpt lat="-27.2744392" lon="151.290064">
  <ele>371.4</ele>
  <time>2026-09-01T20:02:50Z</time>
  <course>10.62</course>
  <speed>0.01</speed>
  <fix>3d</fix>
</trkpt>
<trkpt lat="-27.2744392" lon="151.290064">
  <ele>371.09</ele>
  <time>2026-09-01T20:02:50Z</time>
  <course>358.52</course>
  <speed>0.01</speed>
  <fix>3d</fix>
</trkpt>
<trkpt lat="-27.2744392" lon="151.290064">
  <ele>371.54</ele>
  <time>2026-09-01T20:02:50Z</time>
  <course>10.61</course>
  <speed>0.01</speed>
  <fix>3d</fix>
</trkpt>
<trkpt lat="-27.2744392" lon="151.290064">
  <ele>371.09</ele>
  <time>2026-09-01T20:02:50Z</time>
  <course>358.52</course>
  <speed>0.01</speed>
  <fix>3d</fix>
</trkpt>
<trkpt lat="-27.2744392" lon="151.290064">
  <ele>371.69</ele>
  <time>2026-09-01T20:02:50Z</time>
  <course>10.6</course>
  <speed>0.01</speed>
  <fix>3d</fix>
</trkpt>
<trkpt lat="-27.2744392" lon="151.290064">
  <ele>371.38</ele>
  <time>2026-09-01T20:02:50Z</time>
  <course>356.37</course>
  <speed>0.01</speed>
  <fix>3d</fix>
</trkpt>
<trkpt lat="-27.2744392" lon="151.290064">
  <ele>371.83</ele>
  <time>2026-09-01T20:02:50Z</time>
  <course>10.59</course>
  <speed>0.01</speed>
  <fix>3d</fix>
</trkpt>
<trkpt lat="-27.2744392" lon="151.290064">
  <ele>371.38</ele>
  <time>2026-09-01T20:02:50Z</time>
  <course>356.37</course>
  <speed>0.01</speed>
  <fix>3d</fix>
</trkpt>
<trkpt lat="-27.2744392" lon="151.290064">
  <ele>371.98</ele>
  <time>2026-09-01T20:02:50Z</time>
  <course>10.58</course>
  <speed>0.01</speed>
  <fix>3d</fix>
</trkpt>
<trkpt lat="-27.2744391" lon="151.290064">
  <ele>371.67</ele>
  <time>2026-09-01T20:02:50Z</time>
  <course>355.58</course>
  <speed>0.02</speed>
  <fix>3d</fix>
</trkpt>
<trkpt lat="-27.2744392" lon="151.290064">
  <ele>372.12</ele>
  <time>2026-09-01T20:02:51Z</time>
  <course>10.58</course>
  <speed>0.01</speed>
  <fix>3d</fix>
</trkpt>
<trkpt lat="-27.2744391" lon="151.290064">
  <ele>371.67</ele>
  <time>2026-09-01T20:02:51Z</time>
  <course>355.58</course>
  <speed>0.02</speed>
  <fix>3d</fix>
</trkpt>
<trkpt lat="-27.2744392" lon="151.290064">
  <ele>372.26</ele>
  <time>2026-09-01T20:02:51Z</time>
  <course>10.58</course>
  <speed>0.0</speed>
  <fix>3d</fix>
</trkpt>
<trkpt lat="-27.2744391" lon="151.290064">
  <ele>371.96</ele>
  <time>2026-09-01T20:02:51Z</time>
  <course>354.48</course>
  <speed>0.02</speed>
  <fix>3d</fix>
</trkpt>
<trkpt lat="-27.2744392" lon="151.290064">
  <ele>372.4</ele>
  <time>2026-09-01T20:02:51Z</time>
  <course>10.58</course>
  <speed>0.0</speed>
  <fix>3d</fix>
</trkpt>
<trkpt lat="-27.2744391" lon="151.290064">
  <ele>371.96</ele>
  <time>2026-09-01T20:02:51Z</time>
  <course>354.48</course>
  <speed>0.02</speed>
  <fix>3d</fix>
</trkpt>
<trkpt lat="-27.2744391" lon="151.290064">
  <ele>372.55</ele>
  <time>2026-09-01T20:02:51Z</time>
  <course>10.57</course>
  <speed>0.0</speed>
  <fix>3d</fix>
</trkpt>
<trkpt lat="-27.274439" lon="151.290064">
  <ele>372.24</ele>
  <time>2026-09-01T20:02:51Z</time>
  <course>351.94</course>
  <speed>0.02</speed>
  <fix>3d</fix>
</trkpt>
<trkpt lat="-27.2744391" lon="151.290064">
  <ele>372.69</ele>
  <time>2026-09-01T20:02:51Z</time>
  <course>10.56</course>
  <speed>0.0</speed>
  <fix>3d</fix>
</trkpt>
<trkpt lat="-27.274439" lon="151.290064">
  <ele>372.24</ele>
  <time>2026-09-01T20:02:51Z</time>
  <course>351.94</course>
  <speed>0.02</speed>
  <fix>3d</fix>
</trkpt>
<trkpt lat="-27.2744391" lon="151.290064">
  <ele>372.83</ele>
  <time>2026-09-01T20:02:51Z</time>
  <course>10.55</course>
  <speed>0.0</speed>
  <fix>3d</fix>
</trkpt>
<trkpt lat="-27.274439" lon="151.290064">
  <ele>372.53</ele>
  <time>2026-09-01T20:02:51Z</time>
  <course>350.64</course>
  <speed>0.02</speed>
  <fix>3d</fix>
</trkpt>
<trkpt lat="-27.2744391" lon="151.290064">
  <ele>372.97</ele>
  <time>2026-09-01T20:02:51Z</time>
  <course>10.54</course>
  <speed>0.01</speed>
  <fix>3d</fix>
</trkpt>
<trkpt lat="-27.274439" lon="151.290064">
  <ele>372.53</ele>
  <time>2026-09-01T20:02:51Z</time>
  <course>350.64</course>
  <speed>0.02</speed>
  <fix>3d</fix>
</trkpt>
<trkpt lat="-27.2744391" lon="151.290064">
  <ele>373.12</ele>
  <time>2026-09-01T20:02:51Z</time>
  <course>10.53</course>
  <speed>0.01</speed>
  <fix>3d</fix>
</trkpt>
<trkpt lat="-27.274439" lon="151.290064">
  <ele>372.81</ele>
  <time>2026-09-01T20:02:51Z</time>
  <course>350.56</course>
  <speed>0.02</speed>
  <fix>3d</fix>
</trkpt>
<trkpt lat="-27.2744391" lon="151.290064">
  <ele>373.26</ele>
  <time>2026-09-01T20:02:51Z</time>
  <course>10.52</course>
  <speed>0.0</speed>
  <fix>3d</fix>
</trkpt>
<trkpt lat="-27.274439" lon="151.290064">
  <ele>372.81</ele>
  <time>2026-09-01T20:02:51Z</time>
  <course>350.56</course>
  <speed>0.02</speed>
  <fix>3d</fix>
</trkpt>
<trkpt lat="-27.2744391" lon="151.290064">
  <ele>373.4</ele>
  <time>2026-09-01T20:02:51Z</time>
  <course>10.53</course>
  <speed>0.0</speed>
  <fix>3d</fix>
</trkpt>
<trkpt lat="-27.2744389" lon="151.2900639">
  <ele>373.09</ele>
  <time>2026-09-01T20:02:51Z</time>
  <course>349.46</course>
  <speed>0.02</speed>
  <fix>3d</fix>
</trkpt>
<trkpt lat="-27.274439" lon="151.290064">
  <ele>373.54</ele>
  <time>2026-09-01T20:02:51Z</time>
  <course>10.53</course>
  <speed>0.0</speed>
  <fix>3d</fix>
</trkpt>
<trkpt lat="-27.2744389" lon="151.2900639">
  <ele>373.09</ele>
  <time>2026-09-01T20:02:51Z</time>
  <course>349.46</course>
  <speed>0.02</speed>
  <fix>3d</fix>
</trkpt>
<trkpt lat="-27.274439" lon="151.290064">
  <ele>373.68</ele>
  <time>2026-09-01T20:02:51Z</time>
  <course>10.53</course>
  <speed>0.0</speed>
  <fix>3d</fix>
</trkpt>
<trkpt lat="-27.2744389" lon="151.2900639">
  <ele>373.38</ele>
  <time>2026-09-01T20:02:51Z</time>
  <course>348.25</course>
  <speed>0.02</speed>
  <fix>3d</fix>
</trkpt>
<trkpt lat="-27.274439" lon="151.290064">
  <ele>373.82</ele>
  <time>2026-09-01T20:02:51Z</time>
  <course>10.53</course>
  <speed>0.0</speed>
  <fix>3d</fix>
</trkpt>
<trkpt lat="-27.2744389" lon="151.2900639">
  <ele>373.38</ele>
  <time>2026-09-01T20:02:51Z</time>
  <course>348.25</course>
  <speed>0.02</speed>
  <fix>3d</fix>
</trkpt>
<trkpt lat="-27.274439" lon="151.290064">
  <ele>373.97</ele>
  <time>2026-09-01T20:02:51Z</time>
  <course>10.53</course>
  <speed>0.0</speed>
  <fix>3d</fix>
</trkpt>
<trkpt lat="-27.2744388" lon="151.2900639">
  <ele>373.67</ele>
  <time>2026-09-01T20:02:51Z</time>
  <course>347.31</course>
  <speed>0.02</speed>
  <fix>3d</fix>
</trkpt>
<trkpt lat="-27.274439" lon="151.290064">
  <ele>374.11</ele>
  <time>2026-09-01T20:02:51Z</time>
  <course>10.53</course>
  <speed>0.0</speed>
  <fix>3d</fix>
</trkpt>
<trkpt lat="-27.2744388" lon="151.2900639">
  <ele>373.67</ele>
  <time>2026-09-01T20:02:51Z</time>
  <course>347.31</course>
  <speed>0.02</speed>
  <fix>3d</fix>
</trkpt>
<trkpt lat="-27.274439" lon="151.290064">
  <ele>374.25</ele>
  <time>2026-09-01T20:02:51Z</time>
  <course>10.54</course>
  <speed>0.0</speed>
  <fix>3d</fix>
</trkpt>
<trkpt lat="-27.2744388" lon="151.2900639">
  <ele>373.96</ele>
  <time>2026-09-01T20:02:51Z</time>
  <course>345.46</course>
  <speed>0.02</speed>
  <fix>3d</fix>
</trkpt>
<trkpt lat="-27.2744389" lon="151.290064">
  <ele>374.39</ele>
  <time>2026-09-01T20:02:51Z</time>
  <course>10.54</course>
  <speed>0.0</speed>
  <fix>3d</fix>
</trkpt>
<trkpt lat="-27.2744388" lon="151.2900639">
  <ele>373.96</ele>
  <time>2026-09-01T20:02:51Z</time>
  <course>345.46</course>
  <speed>0.02</speed>
  <fix>3d</fix>
</trkpt>
<trkpt lat="-27.2744389" lon="151.290064">
  <ele>374.54</ele>
  <time>2026-09-01T20:02:51Z</time>
  <course>10.54</course>
  <speed>0.0</speed>
  <fix>3d</fix>
</trkpt>
<trkpt lat="-27.2744388" lon="151.2900639">
  <ele>374.24</ele>
  <time>2026-09-01T20:02:51Z</time>
  <course>343.83</course>
  <speed>0.02</speed>
  <fix>3d</fix>
</trkpt>
<trkpt lat="-27.2744389" lon="151.290064">
  <ele>374.69</ele>
  <time>2026-09-01T20:02:51Z</time>
  <course>10.53</course>
  <speed>0.0</speed>
  <fix>3d</fix>
</trkpt>
<trkpt lat="-27.2744388" lon="151.2900639">
  <ele>374.24</ele>
  <time>2026-09-01T20:02:51Z</time>
  <course>343.83</course>
  <speed>0.02</speed>
  <fix>3d</fix>
</trkpt>
<trkpt lat="-27.2744389" lon="151.290064">
  <ele>374.83</ele>
  <time>2026-09-01T20:02:51Z</time>
  <course>10.53</course>
  <speed>0.0</speed>
  <fix>3d</fix>
</trkpt>
<trkpt lat="-27.2744387" lon="151.2900639">
  <ele>374.54</ele>
  <time>2026-09-01T20:02:51Z</time>
  <course>343.03</course>
  <speed>0.02</speed>
  <fix>3d</fix>
</trkpt>
<trkpt lat="-27.2744389" lon="151.290064">
  <ele>374.98</ele>
  <time>2026-09-01T20:02:51Z</time>
  <course>10.52</course>
  <speed>0.0</speed>
  <fix>3d</fix>
</trkpt>
<trkpt lat="-27.2744387" lon="151.2900639">
  <ele>374.54</ele>
  <time>2026-09-01T20:02:51Z</time>
  <course>343.03</course>
  <speed>0.02</speed>
  <fix>3d</fix>
</trkpt>
<trkpt lat="-27.2744389" lon="151.290064">
  <ele>375.12</ele>
  <time>2026-09-01T20:02:51Z</time>
  <course>10.51</course>
  <speed>0.0</speed>
  <fix>3d</fix>
</trkpt>
<trkpt lat="-27.2744387" lon="151.2900639">
  <ele>374.83</ele>
  <time>2026-09-01T20:02:51Z</time>
  <course>344.2</course>
  <speed>0.01</speed>
  <fix>3d</fix>
</trkpt>
<trkpt lat="-27.2744388" lon="151.290064">
  <ele>375.27</ele>
  <time>2026-09-01T20:02:51Z</time>
  <course>10.52</course>
  <speed>0.0</speed>
  <fix>3d</fix>
</trkpt>
<trkpt lat="-27.2744387" lon="151.2900639">
  <ele>374.83</ele>
  <time>2026-09-01T20:02:51Z</time>
  <course>344.2</course>
  <speed>0.01</speed>
  <fix>3d</fix>
</trkpt>
<trkpt lat="-27.2744388" lon="151.290064">
  <ele>375.41</ele>
  <time>2026-09-01T20:02:51Z</time>
  <course>10.52</course>
  <speed>0.0</speed>
  <fix>3d</fix>
</trkpt>
<trkpt lat="-27.2744387" lon="151.2900639">
  <ele>375.12</ele>
  <time>2026-09-01T20:02:51Z</time>
  <course>346.21</course>
  <speed>0.01</speed>
  <fix>3d</fix>
</trkpt>
<trkpt lat="-27.2744388" lon="151.290064">
  <ele>375.55</ele>
  <time>2026-09-01T20:02:51Z</time>
  <course>10.52</course>
  <speed>0.0</speed>
  <fix>3d</fix>
</trkpt>
<trkpt lat="-27.2744387" lon="151.2900639">
  <ele>375.12</ele>
  <time>2026-09-01T20:02:51Z</time>
  <course>346.21</course>
  <speed>0.01</speed>
  <fix>3d</fix>
</trkpt>
<trkpt lat="-27.2744388" lon="151.290064">
  <ele>375.69</ele>
  <time>2026-09-01T20:02:51Z</time>
  <course>10.53</course>
  <speed>0.0</speed>
  <fix>3d</fix>
</trkpt>
<trkpt lat="-27.2744386" lon="151.2900639">
  <ele>375.41</ele>
  <time>2026-09-01T20:02:51Z</time>
  <course>345.41</course>
  <speed>0.01</speed>
  <fix>3d</fix>
</trkpt>
<trkpt lat="-27.2744388" lon="151.290064">
  <ele>375.83</ele>
  <time>2026-09-01T20:02:51Z</time>
  <course>10.55</course>
  <speed>0.0</speed>
  <fix>3d</fix>
</trkpt>
<trkpt lat="-27.2744386" lon="151.2900639">
  <ele>375.41</ele>
  <time>2026-09-01T20:02:51Z</time>
  <course>345.41</course>
  <speed>0.01</speed>
  <fix>3d</fix>
</trkpt>
<trkpt lat="-27.2744388" lon="151.290064">
  <ele>375.98</ele>
  <time>2026-09-01T20:02:51Z</time>
  <course>10.56</course>
  <speed>0.0</speed>
  <fix>3d</fix>
</trkpt>
<trkpt lat="-27.2744386" lon="151.2900638">
  <ele>375.7</ele>
  <time>2026-09-01T20:02:51Z</time>
  <course>342.15</course>
  <speed>0.01</speed>
  <fix>3d</fix>
</trkpt>
<trkpt lat="-27.2744388" lon="151.290064">
  <ele>376.12</ele>
  <time>2026-09-01T20:02:51Z</time>
  <course>10.56</course>
  <speed>0.0</speed>
  <fix>3d</fix>
</trkpt>
<trkpt lat="-27.2744386" lon="151.2900638">
  <ele>375.7</ele>
  <time>2026-09-01T20:02:51Z</time>
  <course>342.15</course>
  <speed>0.01</speed>
  <fix>3d</fix>
</trkpt>
<trkpt lat="-27.2744388" lon="151.290064">
  <ele>376.27</ele>
  <time>2026-09-01T20:02:51Z</time>
  <course>10.56</course>
  <speed>0.0</speed>
  <fix>3d</fix>
</trkpt>
<trkpt lat="-27.2744386" lon="151.2900637">
  <ele>375.98</ele>
  <time>2026-09-01T20:02:51Z</time>
  <course>340.46</course>
  <speed>0.01</speed>
  <fix>3d</fix>
</trkpt>
<trkpt lat="-27.2744387" lon="151.290064">
  <ele>376.41</ele>
  <time>2026-09-01T20:02:51Z</time>
  <course>10.56</course>
  <speed>0.0</speed>
  <fix>3d</fix>
</trkpt>
<trkpt lat="-27.2744386" lon="151.2900637">
  <ele>375.98</ele>
  <time>2026-09-01T20:02:51Z</time>
  <course>340.46</course>
  <speed>0.01</speed>
  <fix>3d</fix>
</trkpt>
<trkpt lat="-27.2744387" lon="151.290064">
  <ele>376.56</ele>
  <time>2026-09-01T20:02:51Z</time>
  <course>10.56</course>
  <speed>0.0</speed>
  <fix>3d</fix>
</trkpt>
<trkpt lat="-27.2744386" lon="151.2900637">
  <ele>376.27</ele>
  <time>2026-09-01T20:02:51Z</time>
  <course>342.53</course>
  <speed>0.01</speed>
  <fix>3d</fix>
</trkpt>
<trkpt lat="-27.2744387" lon="151.290064">
  <ele>376.7</ele>
  <time>2026-09-01T20:02:51Z</time>
  <course>10.57</course>
  <speed>0.0</speed>
  <fix>3d</fix>
</trkpt>
<trkpt lat="-27.2744386" lon="151.2900637">
  <ele>376.27</ele>
  <time>2026-09-01T20:02:51Z</time>
  <course>342.53</course>
  <speed>0.01</speed>
  <fix>3d</fix>
</trkpt>
<trkpt lat="-27.2744387" lon="151.290064">
  <ele>376.85</ele>
  <time>2026-09-01T20:02:51Z</time>
  <course>10.58</course>
  <speed>0.0</speed>
  <fix>3d</fix>
</trkpt>
<trkpt lat="-27.2744385" lon="151.2900637">
  <ele>376.56</ele>
  <time>2026-09-01T20:02:51Z</time>
  <course>345.71</course>
  <speed>0.01</speed>
  <fix>3d</fix>
</trkpt>
<trkpt lat="-27.2744387" lon="151.2900639">
  <ele>376.99</ele>
  <time>2026-09-01T20:02:51Z</time>
  <course>10.6</course>
  <speed>0.0</speed>
  <fix>3d</fix>
</trkpt>
<trkpt lat="-27.2744385" lon="151.2900637">
  <ele>376.56</ele>
  <time>2026-09-01T20:02:51Z</time>
  <course>345.71</course>
  <speed>0.01</speed>
  <fix>3d</fix>
</trkpt>
<trkpt lat="-27.2744387" lon="151.2900639">
  <ele>377.14</ele>
  <time>2026-09-01T20:02:51Z</time>
  <course>10.62</course>
  <speed>0.01</speed>
  <fix>3d</fix>
</trkpt>
<trkpt lat="-27.2744385" lon="151.2900637">
  <ele>376.85</ele>
  <time>2026-09-01T20:02:51Z</time>
  <course>345.06</course>
  <speed>0.0</speed>
  <fix>3d</fix>
</trkpt>
<trkpt lat="-27.2744387" lon="151.2900639">
  <ele>377.29</ele>
  <time>2026-09-01T20:02:51Z</time>
  <course>10.64</course>
  <speed>0.01</speed>
  <fix>3d</fix>
</trkpt>
<trkpt lat="-27.2744385" lon="151.2900637">
  <ele>376.85</ele>
  <time>2026-09-01T20:02:51Z</time>
  <course>345.06</course>
  <speed>0.0</speed>
  <fix>3d</fix>
</trkpt>
<trkpt lat="-27.2744387" lon="151.2900639">
  <ele>377.43</ele>
  <time>2026-09-01T20:02:51Z</time>
  <course>10.65</course>
  <speed>0.01</speed>
  <fix>3d</fix>
</trkpt>
<trkpt lat="-27.2744385" lon="151.2900637">
  <ele>377.14</ele>
  <time>2026-09-01T20:02:51Z</time>
  <course>341.21</course>
  <speed>0.0</speed>
  <fix>3d</fix>
</trkpt>
<trkpt lat="-27.2744387" lon="151.2900639">
  <ele>377.57</ele>
  <time>2026-09-01T20:02:51Z</time>
  <course>10.66</course>
  <speed>0.01</speed>
  <fix>3d</fix>
</trkpt>
<trkpt lat="-27.2744385" lon="151.2900637">
  <ele>377.14</ele>
  <time>2026-09-01T20:02:51Z</time>
  <course>341.21</course>
  <speed>0.0</speed>
  <fix>3d</fix>
</trkpt>
<trkpt lat="-27.2744387" lon="151.2900639">
  <ele>377.72</ele>
  <time>2026-09-01T20:02:51Z</time>
  <course>10.66</course>
  <speed>0.01</speed>
  <fix>3d</fix>
</trkpt>
<trkpt lat="-27.2744385" lon="151.2900637">
  <ele>377.43</ele>
  <time>2026-09-01T20:02:51Z</time>
  <course>333.66</course>
  <speed>0.0</speed>
  <fix>3d</fix>
</trkpt>
<trkpt lat="-27.2744387" lon="151.2900639">
  <ele>377.86</ele>
  <time>2026-09-01T20:02:51Z</time>
  <course>10.65</course>
  <speed>0.01</speed>
  <fix>3d</fix>
</trkpt>
<trkpt lat="-27.2744385" lon="151.2900637">
  <ele>377.43</ele>
  <time>2026-09-01T20:02:51Z</time>
  <course>333.66</course>
  <speed>0.0</speed>
  <fix>3d</fix>
</trkpt>
<trkpt lat="-27.2744387" lon="151.2900639">
  <ele>378.0</ele>
  <time>2026-09-01T20:02:51Z</time>
  <course>10.64</course>
  <speed>0.01</speed>
  <fix>3d</fix>
</trkpt>
<trkpt lat="-27.2744385" lon="151.2900637">
  <ele>377.72</ele>
  <time>2026-09-01T20:02:51Z</time>
  <course>318.4</course>
  <speed>0.0</speed>
  <fix>3d</fix>
</trkpt>
<trkpt lat="-27.2744387" lon="151.2900639">
  <ele>378.14</ele>
  <time>2026-09-01T20:02:51Z</time>
  <course>10.63</course>
  <speed>0.01</speed>
  <fix>3d</fix>
</trkpt>
<trkpt lat="-27.2744385" lon="151.2900637">
  <ele>377.72</ele>
  <time>2026-09-01T20:02:51Z</time>
  <course>318.4</course>
  <speed>0.0</speed>
  <fix>3d</fix>
</trkpt>
<trkpt lat="-27.2744387" lon="151.2900639">
  <ele>378.29</ele>
  <time>2026-09-01T20:02:51Z</time>
  <course>10.62</course>
  <speed>0.01</speed>
  <fix>3d</fix>
</trkpt>
<trkpt lat="-27.2744385" lon="151.2900637">
  <ele>378.01</ele>
  <time>2026-09-01T20:02:51Z</time>
  <course>305.87</course>
  <speed>0.0</speed>
  <fix>3d</fix>
</trkpt>
<trkpt lat="-27.2744387" lon="151.2900638">
  <ele>378.43</ele>
  <time>2026-09-01T20:02:51Z</time>
  <course>10.62</course>
  <speed>0.01</speed>
  <fix>3d</fix>
</trkpt>
<trkpt lat="-27.2744385" lon="151.2900637">
  <ele>378.01</ele>
  <time>2026-09-01T20:02:51Z</time>
  <course>305.87</course>
  <speed>0.0</speed>
  <fix>3d</fix>
</trkpt>
<trkpt lat="-27.2744387" lon="151.2900638">
  <ele>378.57</ele>
  <time>2026-09-01T20:02:51Z</time>
  <course>10.62</course>
  <speed>0.01</speed>
  <fix>3d</fix>
</trkpt>
<trkpt lat="-27.2744385" lon="151.2900637">
  <ele>378.3</ele>
  <time>2026-09-01T20:02:51Z</time>
  <course>283.35</course>
  <speed>0.0</speed>
  <fix>3d</fix>
</trkpt>
<trkpt lat="-27.2744387" lon="151.2900638">
  <ele>378.71</ele>
  <time>2026-09-01T20:02:51Z</time>
  <course>10.62</course>
  <speed>0.01</speed>
  <fix>3d</fix>
</trkpt>
<trkpt lat="-27.2744385" lon="151.2900637">
  <ele>378.3</ele>
  <time>2026-09-01T20:02:51Z</time>
  <course>283.35</course>
  <speed>0.0</speed>
  <fix>3d</fix>
</trkpt>
<trkpt lat="-27.2744387" lon="151.2900638">
  <ele>378.85</ele>
  <time>2026-09-01T20:02:51Z</time>
  <course>10.64</course>
  <speed>0.01</speed>
  <fix>3d</fix>
</trkpt>
<trkpt lat="-27.2744385" lon="151.2900637">
  <ele>378.58</ele>
  <time>2026-09-01T20:02:51Z</time>
  <course>238.3</course>
  <speed>0.0</speed>
  <fix>3d</fix>
</trkpt>
<trkpt lat="-27.2744387" lon="151.2900638">
  <ele>378.99</ele>
  <time>2026-09-01T20:02:51Z</time>
  <course>10.65</course>
  <speed>0.01</speed>
  <fix>3d</fix>
</trkpt>
<trkpt lat="-27.2744385" lon="151.2900637">
  <ele>378.58</ele>
  <time>2026-09-01T20:02:51Z</time>
  <course>238.3</course>
  <speed>0.0</speed>
  <fix>3d</fix>
</trkpt>
<trkpt lat="-27.2744387" lon="151.2900638">
  <ele>379.14</ele>
  <time>2026-09-01T20:02:51Z</time>
  <course>10.66</course>
  <speed>0.01</speed>
  <fix>3d</fix>
</trkpt>
<trkpt lat="-27.2744385" lon="151.2900637">
  <ele>378.87</ele>
  <time>2026-09-01T20:02:51Z</time>
  <course>216.69</course>
  <speed>0.0</speed>
  <fix>3d</fix>
</trkpt>
<trkpt lat="-27.2744387" lon="151.2900638">
  <ele>379.28</ele>
  <time>2026-09-01T20:02:51Z</time>
  <course>10.67</course>
  <speed>0.01</speed>
  <fix>3d</fix>
</trkpt>
<trkpt lat="-27.2744385" lon="151.2900637">
  <ele>378.87</ele>
  <time>2026-09-01T20:02:51Z</time>
  <course>216.69</course>
  <speed>0.0</speed>
  <fix>3d</fix>
</trkpt>
<trkpt lat="-27.2744387" lon="151.2900638">
  <ele>379.42</ele>
  <time>2026-09-01T20:02:51Z</time>
  <course>10.69</course>
  <speed>0.01</speed>
  <fix>3d</fix>
</trkpt>
<trkpt lat="-27.2744385" lon="151.2900637">
  <ele>379.16</ele>
  <time>2026-09-01T20:02:51Z</time>
  <course>214.33</course>
  <speed>0.0</speed>
  <fix>3d</fix>
</trkpt>
<trkpt lat="-27.2744387" lon="151.2900638">
  <ele>379.57</ele>
  <time>2026-09-01T20:02:51Z</time>
  <course>10.69</course>
  <speed>0.01</speed>
  <fix>3d</fix>
</trkpt>
<trkpt lat="-27.2744385" lon="151.2900637">
  <ele>379.16</ele>
  <time>2026-09-01T20:02:51Z</time>
  <course>214.33</course>
  <speed>0.0</speed>
  <fix>3d</fix>
</trkpt>
<trkpt lat="-27.2744387" lon="151.2900638">
  <ele>379.71</ele>
  <time>2026-09-01T20:02:51Z</time>
  <course>10.7</course>
  <speed>0.01</speed>
  <fix>3d</fix>
</trkpt>
<trkpt lat="-27.2744385" lon="151.2900637">
  <ele>379.45</ele>
  <time>2026-09-01T20:02:51Z</time>
  <course>215.62</course>
  <speed>0.0</speed>
  <fix>3d</fix>
</trkpt>
<trkpt lat="-27.2744387" lon="151.2900638">
  <ele>379.86</ele>
  <time>2026-09-01T20:02:51Z</time>
  <course>10.69</course>
  <speed>0.01</speed>
  <fix>3d</fix>
</trkpt>
<trkpt lat="-27.2744385" lon="151.2900637">
  <ele>379.45</ele>
  <time>2026-09-01T20:02:51Z</time>
  <course>215.62</course>
  <speed>0.0</speed>
  <fix>3d</fix>
</trkpt>
<trkpt lat="-27.2744387" lon="151.2900638">
  <ele>380.01</ele>
  <time>2026-09-01T20:02:51Z</time>
  <course>10.69</course>
  <speed>0.01</speed>
  <fix>3d</fix>
</trkpt>
<trkpt lat="-27.2744385" lon="151.2900637">
  <ele>379.74</ele>
  <time>2026-09-01T20:02:51Z</time>
  <course>210.45</course>
  <speed>0.0</speed>
  <fix>3d</fix>
</trkpt>
<trkpt lat="-27.2744387" lon="151.2900638">
  <ele>380.16</ele>
  <time>2026-09-01T20:02:51Z</time>
  <course>10.68</course>
  <speed>0.01</speed>
  <fix>3d</fix>
</trkpt>
<trkpt lat="-27.2744385" lon="151.2900637">
  <ele>379.74</ele>
  <time>2026-09-01T20:02:51Z</time>
  <course>210.45</course>
  <speed>0.0</speed>
  <fix>3d</fix>
</trkpt>
<trkpt lat="-27.2744387" lon="151.2900638">
  <ele>380.31</ele>
  <time>2026-09-01T20:02:51Z</time>
  <course>10.68</course>
  <speed>0.01</speed>
  <fix>3d</fix>
</trkpt>
<trkpt lat="-27.2744385" lon="151.2900637">
  <ele>380.03</ele>
  <time>2026-09-01T20:02:51Z</time>
  <course>203.69</course>
  <speed>0.0</speed>
  <fix>3d</fix>
</trkpt>
<trkpt lat="-27.2744387" lon="151.2900638">
  <ele>380.45</ele>
  <time>2026-09-01T20:02:51Z</time>
  <course>10.69</course>
  <speed>0.01</speed>
  <fix>3d</fix>
</trkpt>
<trkpt lat="-27.2744385" lon="151.2900637">
  <ele>380.03</ele>
  <time>2026-09-01T20:02:51Z</time>
  <course>203.69</course>
  <speed>0.0</speed>
  <fix>3d</fix>
</trkpt>
<trkpt lat="-27.2744387" lon="151.2900638">
  <ele>380.6</ele>
  <time>2026-09-01T20:02:51Z</time>
  <course>10.69</course>
  <speed>0.01</speed>
  <fix>3d</fix>
</trkpt>
<trkpt lat="-27.2744385" lon="151.2900637">
  <ele>380.32</ele>
  <time>2026-09-01T20:02:51Z</time>
  <course>196.53</course>
  <speed>0.0</speed>
  <fix>3d</fix>
</trkpt>
<trkpt lat="-27.2744387" lon="151.2900638">
  <ele>380.74</ele>
  <time>2026-09-01T20:02:51Z</time>
  <course>10.7</course>
  <speed>0.01</speed>
  <fix>3d</fix>
</trkpt>
<trkpt lat="-27.2744385" lon="151.2900637">
  <ele>380.32</ele>
  <time>2026-09-01T20:02:51Z</time>
  <course>196.53</course>
  <speed>0.0</speed>
  <fix>3d</fix>
</trkpt>
<trkpt lat="-27.2744387" lon="151.2900638">
  <ele>380.89</ele>
  <time>2026-09-01T20:02:51Z</time>
  <course>10.7</course>
  <speed>0.01</speed>
  <fix>3d</fix>
</trkpt>
<trkpt lat="-27.2744385" lon="151.2900637">
  <ele>380.61</ele>
  <time>2026-09-01T20:02:51Z</time>
  <course>197.78</course>
  <speed>0.0</speed>
  <fix>3d</fix>
</trkpt>
<trkpt lat="-27.2744387" lon="151.2900638">
  <ele>381.03</ele>
  <time>2026-09-01T20:02:51Z</time>
  <course>10.7</course>
  <speed>0.01</speed>
  <fix>3d</fix>
</trkpt>
<trkpt lat="-27.2744385" lon="151.2900637">
  <ele>380.61</ele>
  <time>2026-09-01T20:02:51Z</time>
  <course>197.78</course>
  <speed>0.0</speed>
  <fix>3d</fix>
</trkpt>
<trkpt lat="-27.2744387" lon="151.2900638">
  <ele>381.17</ele>
  <time>2026-09-01T20:02:51Z</time>
  <course>10.7</course>
  <speed>0.01</speed>
  <fix>3d</fix>
</trkpt>
<trkpt lat="-27.2744385" lon="151.2900637">
  <ele>380.9</ele>
  <time>2026-09-01T20:02:51Z</time>
  <course>194.54</course>
  <speed>0.0</speed>
  <fix>3d</fix>
</trkpt>
<trkpt lat="-27.2744387" lon="151.2900638">
  <ele>381.32</ele>
  <time>2026-09-01T20:02:51Z</time>
  <course>10.7</course>
  <speed>0.02</speed>
  <fix>3d</fix>
</trkpt>
<trkpt lat="-27.2744385" lon="151.2900637">
  <ele>380.9</ele>
  <time>2026-09-01T20:02:51Z</time>
  <course>194.54</course>
  <speed>0.0</speed>
  <fix>3d</fix>
</trkpt>
<trkpt lat="-27.2744387" lon="151.2900638">
  <ele>381.46</ele>
  <time>2026-09-01T20:02:51Z</time>
  <course>10.7</course>
  <speed>0.02</speed>
  <fix>3d</fix>
</trkpt>
<trkpt lat="-27.2744385" lon="151.2900637">
  <ele>381.18</ele>
  <time>2026-09-01T20:02:51Z</time>
  <course>184.57</course>
  <speed>0.0</speed>
  <fix>3d</fix>
</trkpt>
<trkpt lat="-27.2744387" lon="151.2900638">
  <ele>381.6</ele>
  <time>2026-09-01T20:02:51Z</time>
  <course>10.71</course>
  <speed>0.02</speed>
  <fix>3d</fix>
</trkpt>
<trkpt lat="-27.2744385" lon="151.2900637">
  <ele>381.18</ele>
  <time>2026-09-01T20:02:51Z</time>
  <course>184.57</course>
  <speed>0.0</speed>
  <fix>3d</fix>
</trkpt>
<trkpt lat="-27.2744387" lon="151.2900638">
  <ele>381.74</ele>
  <time>2026-09-01T20:02:51Z</time>
  <course>10.72</course>
  <speed>0.02</speed>
  <fix>3d</fix>
</trkpt>
<trkpt lat="-27.2744385" lon="151.2900637">
  <ele>381.46</ele>
  <time>2026-09-01T20:02:51Z</time>
  <course>184.77</course>
  <speed>0.0</speed>
  <fix>3d</fix>
</trkpt>
<trkpt lat="-27.2744387" lon="151.2900638">
  <ele>381.89</ele>
  <time>2026-09-01T20:02:51Z</time>
  <course>10.72</course>
  <speed>0.02</speed>
  <fix>3d</fix>
</trkpt>
<trkpt lat="-27.2744385" lon="151.2900637">
  <ele>381.46</ele>
  <time>2026-09-01T20:02:51Z</time>
  <course>184.77</course>
  <speed>0.0</speed>
  <fix>3d</fix>
</trkpt>
<trkpt lat="-27.2744387" lon="151.2900638">
  <ele>382.03</ele>
  <time>2026-09-01T20:02:51Z</time>
  <course>10.72</course>
  <speed>0.02</speed>
  <fix>3d</fix>
</trkpt>
<trkpt lat="-27.2744385" lon="151.2900637">
  <ele>381.75</ele>
  <time>2026-09-01T20:02:51Z</time>
  <course>189.56</course>
  <speed>0.0</speed>
  <fix>3d</fix>
</trkpt>
<trkpt lat="-27.2744387" lon="151.2900638">
  <ele>382.17</ele>
  <time>2026-09-01T20:02:51Z</time>
  <course>10.72</course>
  <speed>0.02</speed>
  <fix>3d</fix>
</trkpt>
<trkpt lat="-27.2744385" lon="151.2900637">
  <ele>381.75</ele>
  <time>2026-09-01T20:02:51Z</time>
  <course>189.56</course>
  <speed>0.0</speed>
  <fix>3d</fix>
</trkpt>
<trkpt lat="-27.2744387" lon="151.2900638">
  <ele>382.32</ele>
  <time>2026-09-01T20:02:51Z</time>
  <course>10.72</course>
  <speed>0.02</speed>
  <fix>3d</fix>
</trkpt>
<trkpt lat="-27.2744385" lon="151.2900637">
  <ele>382.03</ele>
  <time>2026-09-01T20:02:51Z</time>
  <course>192.41</course>
  <speed>0.0</speed>
  <fix>3d</fix>
</trkpt>
<trkpt lat="-27.2744387" lon="151.2900638">
  <ele>382.46</ele>
  <time>2026-09-01T20:02:51Z</time>
  <course>10.71</course>
  <speed>0.02</speed>
  <fix>3d</fix>
</trkpt>
<trkpt lat="-27.2744385" lon="151.2900637">
  <ele>382.03</ele>
  <time>2026-09-01T20:02:51Z</time>
  <course>192.41</course>
  <speed>0.0</speed>
  <fix>3d</fix>
</trkpt>
<trkpt lat="-27.2744387" lon="151.2900638">
  <ele>382.61</ele>
  <time>2026-09-01T20:02:51Z</time>
  <course>10.7</course>
  <speed>0.02</speed>
  <fix>3d</fix>
</trkpt>
<trkpt lat="-27.2744385" lon="151.2900637">
  <ele>382.32</ele>
  <time>2026-09-01T20:02:51Z</time>
  <course>192.78</course>
  <speed>0.0</speed>
  <fix>3d</fix>
</trkpt>
<trkpt lat="-27.2744387" lon="151.2900638">
  <ele>382.75</ele>
  <time>2026-09-01T20:02:51Z</time>
  <course>10.68</course>
  <speed>0.022360679774997897</speed>
  <fix>3d</fix>
</trkpt>
<trkpt lat="-27.2744385" lon="151.2900637">
  <ele>382.32</ele>
  <time>2026-09-01T20:02:51Z</time>
  <course>192.78</course>
  <speed>0.0</speed>
  <fix>3d</fix>
</trkpt>
<trkpt lat="-27.2744387" lon="151.2900638">
  <ele>382.9</ele>
  <time>2026-09-01T20:02:51Z</time>
  <course>10.68</course>
  <speed>0.022360679774997897</speed>
  <fix>3d</fix>
</trkpt>
<trkpt lat="-27.2744385" lon="151.2900637">
  <ele>382.61</ele>
  <time>2026-09-01T20:02:51Z</time>
  <course>189.24</course>
  <speed>0.0</speed>
  <fix>3d</fix>
</trkpt>
<trkpt lat="-27.2744387" lon="151.2900638">
  <ele>383.04</ele>
  <time>2026-09-01T20:02:51Z</time>
  <course>10.69</course>
  <speed>0.022360679774997897</speed>
  <fix>3d</fix>
</trkpt>
<trkpt lat="-27.2744385" lon="151.2900637">
  <ele>382.61</ele>
  <time>2026-09-01T20:02:51Z</time>
  <course>189.24</course>
  <speed>0.0</speed>
  <fix>3d</fix>
</trkpt>
<trkpt lat="-27.2744387" lon="151.2900638">
  <ele>383.19</ele>
  <time>2026-09-01T20:02:51Z</time>
  <course>10.71</course>
  <speed>0.022360679774997897</speed>
  <fix>3d</fix>
</trkpt>
<trkpt lat="-27.2744385" lon="151.2900637">
  <ele>382.89</ele>
  <time>2026-09-01T20:02:51Z</time>
  <course>185.91</course>
  <speed>0.0</speed>
  <fix>3d</fix>
</trkpt>
<trkpt lat="-27.2744387" lon="151.2900638">
  <ele>383.33</ele>
  <time>2026-09-01T20:02:51Z</time>
  <course>10.72</course>
  <speed>0.02</speed>
  <fix>3d</fix>
</trkpt>
<trkpt lat="-27.2744385" lon="151.2900637">
  <ele>382.89</ele>
  <time>2026-09-01T20:02:51Z</time>
  <course>185.91</course>
  <speed>0.0</speed>
  <fix>3d</fix>
</trkpt>
<trkpt lat="-27.2744387" lon="151.2900638">
  <ele>383.48</ele>
  <time>2026-09-01T20:02:51Z</time>
  <course>10.73</course>
  <speed>0.02</speed>
  <fix>3d</fix>
</trkpt>
<trkpt lat="-27.2744385" lon="151.2900637">
  <ele>383.18</ele>
  <time>2026-09-01T20:02:51Z</time>
  <course>187.74</course>
  <speed>0.0</speed>
  <fix>3d</fix>
</trkpt>
<trkpt lat="-27.2744387" lon="151.2900638">
  <ele>383.62</ele>
  <time>2026-09-01T20:02:51Z</time>
  <course>10.73</course>
  <speed>0.022360679774997897</speed>
  <fix>3d</fix>
</trkpt>
<trkpt lat="-27.2744385" lon="151.2900637">
  <ele>383.18</ele>
  <time>2026-09-01T20:02:51Z</time>
  <course>187.74</course>
  <speed>0.0</speed>
  <fix>3d</fix>
</trkpt>
<trkpt lat="-27.2744387" lon="151.2900638">
  <ele>383.76</ele>
  <time>2026-09-01T20:02:51Z</time>
  <course>10.72</course>
  <speed>0.022360679774997897</speed>
  <fix>3d</fix>
</trkpt>
<trkpt lat="-27.2744385" lon="151.2900637">
  <ele>383.46</ele>
  <time>2026-09-01T20:02:51Z</time>
  <course>189.65</course>
  <speed>0.01</speed>
  <fix>3d</fix>
</trkpt>
<trkpt lat="-27.2744387" lon="151.2900638">
  <ele>383.9</ele>
  <time>2026-09-01T20:02:51Z</time>
  <course>10.72</course>
  <speed>0.022360679774997897</speed>
  <fix>3d</fix>
</trkpt>
<trkpt lat="-27.2744385" lon="151.2900637">
  <ele>383.46</ele>
  <time>2026-09-01T20:02:51Z</time>
  <course>189.65</course>
  <speed>0.01</speed>
  <fix>3d</fix>
</trkpt>
<trkpt lat="-27.2744387" lon="151.2900638">
  <ele>384.05</ele>
  <time>2026-09-01T20:02:51Z</time>
  <course>10.72</course>
  <speed>0.02</speed>
  <fix>3d</fix>
</trkpt>
<trkpt lat="-27.2744385" lon="151.2900637">
  <ele>383.75</ele>
  <time>2026-09-01T20:02:51Z</time>
  <course>188.82</course>
  <speed>0.01</speed>
  <fix>3d</fix>
</trkpt>
<trkpt lat="-27.2744387" lon="151.2900638">
  <ele>384.19</ele>
  <time>2026-09-01T20:02:51Z</time>
  <course>10.71</course>
  <speed>0.02</speed>
  <fix>3d</fix>
</trkpt>
<trkpt lat="-27.2744385" lon="151.2900637">
  <ele>383.75</ele>
  <time>2026-09-01T20:02:51Z</time>
  <course>188.82</course>
  <speed>0.01</speed>
  <fix>3d</fix>
</trkpt>
<trkpt lat="-27.2744387" lon="151.2900638">
  <ele>384.33</ele>
  <time>2026-09-01T20:02:51Z</time>
  <course>10.71</course>
  <speed>0.02</speed>
  <fix>3d</fix>
</trkpt>
<trkpt lat="-27.2744386" lon="151.2900637">
  <ele>384.03</ele>
  <time>2026-09-01T20:02:51Z</time>
  <course>189.3</course>
  <speed>0.01</speed>
  <fix>3d</fix>
</trkpt>
<trkpt lat="-27.2744387" lon="151.2900638">
  <ele>384.47</ele>
  <time>2026-09-01T20:02:51Z</time>
  <course>10.71</course>
  <speed>0.02</speed>
  <fix>3d</fix>
</trkpt>
<trkpt lat="-27.2744386" lon="151.2900637">
  <ele>384.03</ele>
  <time>2026-09-01T20:02:51Z</time>
  <course>189.3</course>
  <speed>0.01</speed>
  <fix>3d</fix>
</trkpt>
<trkpt lat="-27.2744387" lon="151.2900638">
  <ele>384.61</ele>
  <time>2026-09-01T20:02:51Z</time>
  <course>10.7</course>
  <speed>0.02</speed>
  <fix>3d</fix>
</trkpt>
<trkpt lat="-27.2744386" lon="151.2900637">
  <ele>384.31</ele>
  <time>2026-09-01T20:02:51Z</time>
  <course>191.56</course>
  <speed>0.01</speed>
  <fix>3d</fix>
</trkpt>
<trkpt lat="-27.2744387" lon="151.2900638">
  <ele>384.75</ele>
  <time>2026-09-01T20:02:51Z</time>
  <course>10.69</course>
  <speed>0.022360679774997897</speed>
  <fix>3d</fix>
</trkpt>
<trkpt lat="-27.2744386" lon="151.2900637">
  <ele>384.31</ele>
  <time>2026-09-01T20:02:51Z</time>
  <course>191.56</course>
  <speed>0.01</speed>
  <fix>3d</fix>
</trkpt>
<trkpt lat="-27.2744387" lon="151.2900638">
  <ele>384.89</ele>
  <time>2026-09-01T20:02:51Z</time>
  <course>10.68</course>
  <speed>0.022360679774997897</speed>
  <fix>3d</fix>
</trkpt>
<trkpt lat="-27.2744386" lon="151.2900637">
  <ele>384.59</ele>
  <time>2026-09-01T20:02:51Z</time>
  <course>192.79</course>
  <speed>0.01</speed>
  <fix>3d</fix>
</trkpt>
<trkpt lat="-27.2744387" lon="151.2900638">
  <ele>385.03</ele>
  <time>2026-09-01T20:02:51Z</time>
  <course>10.67</course>
  <speed>0.022360679774997897</speed>
  <fix>3d</fix>
</trkpt>
<trkpt lat="-27.2744386" lon="151.2900637">
  <ele>384.59</ele>
  <time>2026-09-01T20:02:51Z</time>
  <course>192.79</course>
  <speed>0.01</speed>
  <fix>3d</fix>
</trkpt>
<trkpt lat="-27.2744387" lon="151.2900638">
  <ele>385.18</ele>
  <time>2026-09-01T20:02:51Z</time>
  <course>10.67</course>
  <speed>0.022360679774997897</speed>
  <fix>3d</fix>
</trkpt>
<trkpt lat="-27.2744386" lon="151.2900637">
  <ele>384.88</ele>
  <time>2026-09-01T20:02:51Z</time>
  <course>193.66</course>
  <speed>0.01</speed>
  <fix>3d</fix>
</trkpt>
<trkpt lat="-27.2744387" lon="151.2900638">
  <ele>385.32</ele>
  <time>2026-09-01T20:02:51Z</time>
  <course>10.67</course>
  <speed>0.022360679774997897</speed>
  <fix>3d</fix>
</trkpt>
<trkpt lat="-27.2744386" lon="151.2900637">
  <ele>384.88</ele>
  <time>2026-09-01T20:02:51Z</time>
  <course>193.66</course>
  <speed>0.01</speed>
  <fix>3d</fix>
</trkpt>
<trkpt lat="-27.2744387" lon="151.2900638">
  <ele>385.47</ele>
  <time>2026-09-01T20:02:51Z</time>
  <course>10.66</course>
  <speed>0.01</speed>
  <fix>3d</fix>
</trkpt>
<trkpt lat="-27.2744386" lon="151.2900637">
  <ele>385.16</ele>
  <time>2026-09-01T20:02:51Z</time>
  <course>197.2</course>
  <speed>0.0</speed>
  <fix>3d</fix>
</trkpt>
<trkpt lat="-27.2744387" lon="151.2900638">
  <ele>385.61</ele>
  <time>2026-09-01T20:02:51Z</time>
  <course>10.66</course>
  <speed>0.01414213562373095</speed>
  <fix>3d</fix>
</trkpt>
<trkpt lat="-27.2744386" lon="151.2900637">
  <ele>385.16</ele>
  <time>2026-09-01T20:02:51Z</time>
  <course>197.2</course>
  <speed>0.0</speed>
  <fix>3d</fix>
</trkpt>
<trkpt lat="-27.2744387" lon="151.2900638">
  <ele>385.75</ele>
  <time>2026-09-01T20:02:51Z</time>
  <course>10.64</course>
  <speed>0.01414213562373095</speed>
  <fix>3d</fix>
</trkpt>
<trkpt lat="-27.2744387" lon="151.2900637">
  <ele>385.45</ele>
  <time>2026-09-01T20:02:51Z</time>
  <course>201.85</course>
  <speed>0.0</speed>
  <fix>3d</fix>
</trkpt>
<trkpt lat="-27.2744387" lon="151.2900638">
  <ele>385.9</ele>
  <time>2026-09-01T20:02:51Z</time>
  <course>10.63</course>
  <speed>0.01414213562373095</speed>
  <fix>3d</fix>
</trkpt>
<trkpt lat="-27.2744387" lon="151.2900637">
  <ele>385.45</ele>
  <time>2026-09-01T20:02:51Z</time>
  <course>201.85</course>
  <speed>0.0</speed>
  <fix>3d</fix>
</trkpt>
<trkpt lat="-27.2744387" lon="151.2900638">
  <ele>386.04</ele>
  <time>2026-09-01T20:02:51Z</time>
  <course>10.63</course>
  <speed>0.01414213562373095</speed>
  <fix>3d</fix>
</trkpt>
<trkpt lat="-27.2744387" lon="151.2900637">
  <ele>385.74</ele>
  <time>2026-09-01T20:02:51Z</time>
  <course>201.17</course>
  <speed>0.0</speed>
  <fix>3d</fix>
</trkpt>
<trkpt lat="-27.2744388" lon="151.2900638">
  <ele>386.18</ele>
  <time>2026-09-01T20:02:51Z</time>
  <course>10.63</course>
  <speed>0.01414213562373095</speed>
  <fix>3d</fix>
</trkpt>
<trkpt lat="-27.2744387" lon="151.2900637">
  <ele>385.74</ele>
  <time>2026-09-01T20:02:51Z</time>
  <course>201.17</course>
  <speed>0.0</speed>
  <fix>3d</fix>
</trkpt>
<trkpt lat="-27.2744388" lon="151.2900638">
  <ele>386.33</ele>
  <time>2026-09-01T20:02:51Z</time>
  <course>10.63</course>
  <speed>0.01414213562373095</speed>
  <fix>3d</fix>
</trkpt>
<trkpt lat="-27.2744387" lon="151.2900637">
  <ele>386.03</ele>
  <time>2026-09-01T20:02:51Z</time>
  <course>197.28</course>
  <speed>0.0</speed>
  <fix>3d</fix>
</trkpt>
<trkpt lat="-27.2744388" lon="151.2900638">
  <ele>386.47</ele>
  <time>2026-09-01T20:02:51Z</time>
  <course>10.64</course>
  <speed>0.01414213562373095</speed>
  <fix>3d</fix>
</trkpt>
<trkpt lat="-27.2744387" lon="151.2900637">
  <ele>386.03</ele>
  <time>2026-09-01T20:02:51Z</time>
  <course>197.28</course>
  <speed>0.0</speed>
  <fix>3d</fix>
</trkpt>
<trkpt lat="-27.2744388" lon="151.2900638">
  <ele>386.61</ele>
  <time>2026-09-01T20:02:51Z</time>
  <course>10.66</course>
  <speed>0.01414213562373095</speed>
  <fix>3d</fix>
</trkpt>
<trkpt lat="-27.2744387" lon="151.2900637">
  <ele>386.31</ele>
  <time>2026-09-01T20:02:51Z</time>
  <course>196.77</course>
  <speed>0.0</speed>
  <fix>3d</fix>
</trkpt>
<trkpt lat="-27.2744388" lon="151.2900638">
  <ele>386.76</ele>
  <time>2026-09-01T20:02:51Z</time>
  <course>10.67</course>
  <speed>0.01414213562373095</speed>
  <fix>3d</fix>
</trkpt>
<trkpt lat="-27.2744387" lon="151.2900637">
  <ele>386.31</ele>
  <time>2026-09-01T20:02:51Z</time>
  <course>196.77</course>
  <speed>0.0</speed>
  <fix>3d</fix>
</trkpt>
<trkpt lat="-27.2744388" lon="151.2900638">
  <ele>386.9</ele>
  <time>2026-09-01T20:02:51Z</time>
  <course>10.69</course>
  <speed>0.01414213562373095</speed>
  <fix>3d</fix>
</trkpt>
<trkpt lat="-27.2744387" lon="151.2900637">
  <ele>386.6</ele>
  <time>2026-09-01T20:02:51Z</time>
  <course>196.0</course>
  <speed>0.0</speed>
  <fix>3d</fix>
</trkpt>
<trkpt lat="-27.2744388" lon="151.2900638">
  <ele>387.05</ele>
  <time>2026-09-01T20:02:51Z</time>
  <course>10.71</course>
  <speed>0.01414213562373095</speed>
  <fix>3d</fix>
</trkpt>
<trkpt lat="-27.2744387" lon="151.2900637">
  <ele>386.6</ele>
  <time>2026-09-01T20:02:51Z</time>
  <course>196.0</course>
  <speed>0.0</speed>
  <fix>3d</fix>
</trkpt>
<trkpt lat="-27.2744388" lon="151.2900638">
  <ele>387.19</ele>
  <time>2026-09-01T20:02:51Z</time>
  <course>10.72</course>
  <speed>0.01414213562373095</speed>
  <fix>3d</fix>
</trkpt>
<trkpt lat="-27.2744387" lon="151.2900637">
  <ele>386.89</ele>
  <time>2026-09-01T20:02:51Z</time>
  <course>199.28</course>
  <speed>0.0</speed>
  <fix>3d</fix>
</trkpt>
<trkpt lat="-27.2744388" lon="151.2900638">
  <ele>387.34</ele>
  <time>2026-09-01T20:02:51Z</time>
  <course>10.72</course>
  <speed>0.01414213562373095</speed>
  <fix>3d</fix>
</trkpt>
<trkpt lat="-27.2744387" lon="151.2900637">
  <ele>386.89</ele>
  <time>2026-09-01T20:02:51Z</time>
  <course>199.28</course>
  <speed>0.0</speed>
  <fix>3d</fix>
</trkpt>
<trkpt lat="-27.2744388" lon="151.2900638">
  <ele>387.48</ele>
  <time>2026-09-01T20:02:51Z</time>
  <course>10.73</course>
  <speed>0.01414213562373095</speed>
  <fix>3d</fix>
</trkpt>
<trkpt lat="-27.2744387" lon="151.2900637">
  <ele>387.18</ele>
  <time>2026-09-01T20:02:51Z</time>
  <course>210.19</course>
  <speed>0.0</speed>
  <fix>3d</fix>
</trkpt>
<trkpt lat="-27.2744388" lon="151.2900638">
  <ele>387.62</ele>
  <time>2026-09-01T20:02:51Z</time>
  <course>10.72</course>
  <speed>0.01414213562373095</speed>
  <fix>3d</fix>
</trkpt>
<trkpt lat="-27.2744387" lon="151.2900637">
  <ele>387.18</ele>
  <time>2026-09-01T20:02:51Z</time>
  <course>210.19</course>
  <speed>0.0</speed>
  <fix>3d</fix>
</trkpt>
<trkpt lat="-27.2744388" lon="151.2900638">
  <ele>387.77</ele>
  <time>2026-09-01T20:02:51Z</time>
  <course>10.71</course>
  <speed>0.01414213562373095</speed>
  <fix>3d</fix>
</trkpt>
<trkpt lat="-27.2744387" lon="151.2900637">
  <ele>387.47</ele>
  <time>2026-09-01T20:02:51Z</time>
  <course>241.27</course>
  <speed>0.0</speed>
  <fix>3d</fix>
</trkpt>
<trkpt lat="-27.2744388" lon="151.2900638">
  <ele>387.91</ele>
  <time>2026-09-01T20:02:51Z</time>
  <course>10.7</course>
  <speed>0.01414213562373095</speed>
  <fix>3d</fix>
</trkpt>
<trkpt lat="-27.2744387" lon="151.2900637">
  <ele>387.47</ele>
  <time>2026-09-01T20:02:51Z</time>
  <course>241.27</course>
  <speed>0.0</speed>
  <fix>3d</fix>
</trkpt>
<trkpt lat="-27.2744388" lon="151.2900638">
  <ele>388.05</ele>
  <time>2026-09-01T20:02:51Z</time>
  <course>10.69</course>
  <speed>0.01414213562373095</speed>
  <fix>3d</fix>
</trkpt>
<trkpt lat="-27.2744387" lon="151.2900637">
  <ele>387.76</ele>
  <time>2026-09-01T20:02:51Z</time>
  <course>322.36</course>
  <speed>0.0</speed>
  <fix>3d</fix>
</trkpt>
<trkpt lat="-27.2744388" lon="151.2900638">
  <ele>388.2</ele>
  <time>2026-09-01T20:02:51Z</time>
  <course>10.68</course>
  <speed>0.01414213562373095</speed>
  <fix>3d</fix>
</trkpt>
<trkpt lat="-27.2744387" lon="151.2900637">
  <ele>387.76</ele>
  <time>2026-09-01T20:02:51Z</time>
  <course>322.36</course>
  <speed>0.0</speed>
  <fix>3d</fix>
</trkpt>
<trkpt lat="-27.2744388" lon="151.2900638">
  <ele>388.34</ele>
  <time>2026-09-01T20:02:51Z</time>
  <course>10.67</course>
  <speed>0.01414213562373095</speed>
  <fix>3d</fix>
</trkpt>
<trkpt lat="-27.2744387" lon="151.2900637">
  <ele>388.04</ele>
  <time>2026-09-01T20:02:51Z</time>
  <course>331.86</course>
  <speed>0.0</speed>
  <fix>3d</fix>
</trkpt>
<trkpt lat="-27.2744388" lon="151.2900638">
  <ele>388.48</ele>
  <time>2026-09-01T20:02:51Z</time>
  <course>10.66</course>
  <speed>0.01414213562373095</speed>
  <fix>3d</fix>
</trkpt>
<trkpt lat="-27.2744387" lon="151.2900637">
  <ele>388.04</ele>
  <time>2026-09-01T20:02:51Z</time>
  <course>331.86</course>
  <speed>0.0</speed>
  <fix>3d</fix>
</trkpt>
<trkpt lat="-27.2744388" lon="151.2900638">
  <ele>388.62</ele>
  <time>2026-09-01T20:02:51Z</time>
  <course>10.65</course>
  <speed>0.01414213562373095</speed>
  <fix>3d</fix>
</trkpt>
<trkpt lat="-27.2744387" lon="151.2900637">
  <ele>388.33</ele>
  <time>2026-09-01T20:02:51Z</time>
  <course>329.29</course>
  <speed>0.0</speed>
  <fix>3d</fix>
</trkpt>
<trkpt lat="-27.2744388" lon="151.2900638">
  <ele>388.76</ele>
  <time>2026-09-01T20:02:51Z</time>
  <course>10.64</course>
  <speed>0.01414213562373095</speed>
  <fix>3d</fix>
</trkpt>
<trkpt lat="-27.2744387" lon="151.2900637">
  <ele>388.33</ele>
  <time>2026-09-01T20:02:51Z</time>
  <course>329.29</course>
  <speed>0.0</speed>
  <fix>3d</fix>
</trkpt>
<trkpt lat="-27.2744388" lon="151.2900638">
  <ele>388.91</ele>
  <time>2026-09-01T20:02:51Z</time>
  <course>10.63</course>
  <speed>0.01414213562373095</speed>
  <fix>3d</fix>
</trkpt>
<trkpt lat="-27.2744387" lon="151.2900637">
  <ele>388.62</ele>
  <time>2026-09-01T20:02:51Z</time>
  <course>332.83</course>
  <speed>0.0</speed>
  <fix>3d</fix>
</trkpt>
<trkpt lat="-27.2744388" lon="151.2900638">
  <ele>389.05</ele>
  <time>2026-09-01T20:02:51Z</time>
  <course>10.63</course>
  <speed>0.01414213562373095</speed>
  <fix>3d</fix>
</trkpt>
<trkpt lat="-27.2744387" lon="151.2900637">
  <ele>388.62</ele>
  <time>2026-09-01T20:02:51Z</time>
  <course>332.83</course>
  <speed>0.0</speed>
  <fix>3d</fix>
</trkpt>
<trkpt lat="-27.2744388" lon="151.2900638">
  <ele>389.19</ele>
  <time>2026-09-01T20:02:51Z</time>
  <course>10.63</course>
  <speed>0.01414213562373095</speed>
  <fix>3d</fix>
</trkpt>
<trkpt lat="-27.2744387" lon="151.2900637">
  <ele>388.9</ele>
  <time>2026-09-01T20:02:51Z</time>
  <course>338.58</course>
  <speed>0.0</speed>
  <fix>3d</fix>
</trkpt>
<trkpt lat="-27.2744388" lon="151.2900638">
  <ele>389.34</ele>
  <time>2026-09-01T20:02:51Z</time>
  <course>10.64</course>
  <speed>0.01414213562373095</speed>
  <fix>3d</fix>
</trkpt>
<trkpt lat="-27.2744387" lon="151.2900637">
  <ele>388.9</ele>
  <time>2026-09-01T20:02:51Z</time>
  <course>338.58</course>
  <speed>0.0</speed>
  <fix>3d</fix>
</trkpt>
<trkpt lat="-27.2744388" lon="151.2900638">
  <ele>389.48</ele>
  <time>2026-09-01T20:02:51Z</time>
  <course>10.66</course>
  <speed>0.01414213562373095</speed>
  <fix>3d</fix>
</trkpt>
<trkpt lat="-27.2744387" lon="151.2900637">
  <ele>389.19</ele>
  <time>2026-09-01T20:02:51Z</time>
  <course>335.08</course>
  <speed>0.0</speed>
  <fix>3d</fix>
</trkpt>
<trkpt lat="-27.2744388" lon="151.2900638">
  <ele>389.63</ele>
  <time>2026-09-01T20:02:51Z</time>
  <course>10.66</course>
  <speed>0.01414213562373095</speed>
  <fix>3d</fix>
</trkpt>
<trkpt lat="-27.2744387" lon="151.2900637">
  <ele>389.19</ele>
  <time>2026-09-01T20:02:51Z</time>
  <course>335.08</course>
  <speed>0.0</speed>
  <fix>3d</fix>
</trkpt>
<trkpt lat="-27.2744388" lon="151.2900638">
  <ele>389.77</ele>
  <time>2026-09-01T20:02:51Z</time>
  <course>10.66</course>
  <speed>0.01414213562373095</speed>
  <fix>3d</fix>
</trkpt>
<trkpt lat="-27.2744387" lon="151.2900637">
  <ele>389.48</ele>
  <time>2026-09-01T20:02:51Z</time>
  <course>329.98</course>
  <speed>0.0</speed>
  <fix>3d</fix>
</trkpt>
<trkpt lat="-27.2744388" lon="151.2900638">
  <ele>389.92</ele>
  <time>2026-09-01T20:02:51Z</time>
  <course>10.65</course>
  <speed>0.01414213562373095</speed>
  <fix>3d</fix>
</trkpt>
<trkpt lat="-27.2744387" lon="151.2900637">
  <ele>389.48</ele>
  <time>2026-09-01T20:02:51Z</time>
  <course>329.98</course>
  <speed>0.0</speed>
  <fix>3d</fix>
</trkpt>
<trkpt lat="-27.2744388" lon="151.2900638">
  <ele>390.06</ele>
  <time>2026-09-01T20:02:51Z</time>
  <course>10.64</course>
  <speed>0.01414213562373095</speed>
  <fix>3d</fix>
</trkpt>
<trkpt lat="-27.2744387" lon="151.2900637">
  <ele>389.77</ele>
  <time>2026-09-01T20:02:51Z</time>
  <course>335.09</course>
  <speed>0.0</speed>
  <fix>3d</fix>
</trkpt>
<trkpt lat="-27.2744388" lon="151.2900638">
  <ele>390.21</ele>
  <time>2026-09-01T20:02:51Z</time>
  <course>10.63</course>
  <speed>0.01414213562373095</speed>
  <fix>3d</fix>
</trkpt>
<trkpt lat="-27.2744387" lon="151.2900637">
  <ele>389.77</ele>
  <time>2026-09-01T20:02:51Z</time>
  <course>335.09</course>
  <speed>0.0</speed>
  <fix>3d</fix>
</trkpt>
<trkpt lat="-27.2744388" lon="151.2900638">
  <ele>390.35</ele>
  <time>2026-09-01T20:02:51Z</time>
  <course>10.63</course>
  <speed>0.01414213562373095</speed>
  <fix>3d</fix>
</trkpt>
<trkpt lat="-27.2744387" lon="151.2900637">
  <ele>390.06</ele>
  <time>2026-09-01T20:02:51Z</time>
  <course>346.07</course>
  <speed>0.0</speed>
  <fix>3d</fix>
</trkpt>
<trkpt lat="-27.2744388" lon="151.2900638">
  <ele>390.49</ele>
  <time>2026-09-01T20:02:51Z</time>
  <course>10.64</course>
  <speed>0.01414213562373095</speed>
  <fix>3d</fix>
</trkpt>
<trkpt lat="-27.2744387" lon="151.2900637">
  <ele>390.06</ele>
  <time>2026-09-01T20:02:51Z</time>
  <course>346.07</course>
  <speed>0.0</speed>
  <fix>3d</fix>
</trkpt>
<trkpt lat="-27.2744388" lon="151.2900638">
  <ele>390.64</ele>
  <time>2026-09-01T20:02:51Z</time>
  <course>10.64</course>
  <speed>0.01414213562373095</speed>
  <fix>3d</fix>
</trkpt>
<trkpt lat="-27.2744387" lon="151.2900636">
  <ele>390.35</ele>
  <time>2026-09-01T20:02:51Z</time>
  <course>348.85</course>
  <speed>0.0</speed>
  <fix>3d</fix>
</trkpt>
<trkpt lat="-27.2744388" lon="151.2900638">
  <ele>390.78</ele>
  <time>2026-09-01T20:02:51Z</time>
  <course>10.64</course>
  <speed>0.01414213562373095</speed>
  <fix>3d</fix>
</trkpt>
<trkpt lat="-27.2744387" lon="151.2900636">
  <ele>390.35</ele>
  <time>2026-09-01T20:02:51Z</time>
  <course>348.85</course>
  <speed>0.0</speed>
  <fix>3d</fix>
</trkpt>
<trkpt lat="-27.2744388" lon="151.2900638">
  <ele>390.92</ele>
  <time>2026-09-01T20:02:51Z</time>
  <course>10.64</course>
  <speed>0.01414213562373095</speed>
  <fix>3d</fix>
</trkpt>
<trkpt lat="-27.2744387" lon="151.2900636">
  <ele>390.64</ele>
  <time>2026-09-01T20:02:51Z</time>
  <course>344.59</course>
  <speed>0.0</speed>
  <fix>3d</fix>
</trkpt>
<trkpt lat="-27.2744388" lon="151.2900638">
  <ele>391.07</ele>
  <time>2026-09-01T20:02:51Z</time>
  <course>10.64</course>
  <speed>0.01414213562373095</speed>
  <fix>3d</fix>
</trkpt>
<trkpt lat="-27.2744387" lon="151.2900636">
  <ele>390.64</ele>
  <time>2026-09-01T20:02:51Z</time>
  <course>344.59</course>
  <speed>0.0</speed>
  <fix>3d</fix>
</trkpt>
<trkpt lat="-27.2744388" lon="151.2900638">
  <ele>391.21</ele>
  <time>2026-09-01T20:02:51Z</time>
  <course>10.64</course>
  <speed>0.01414213562373095</speed>
  <fix>3d</fix>
</trkpt>
<trkpt lat="-27.2744387" lon="151.2900636">
  <ele>390.93</ele>
  <time>2026-09-01T20:02:51Z</time>
  <course>340.18</course>
  <speed>0.0</speed>
  <fix>3d</fix>
</trkpt>
<trkpt lat="-27.2744388" lon="151.2900638">
  <ele>391.36</ele>
  <time>2026-09-01T20:02:51Z</time>
  <course>10.64</course>
  <speed>0.01414213562373095</speed>
  <fix>3d</fix>
</trkpt>
<trkpt lat="-27.2744387" lon="151.2900636">
  <ele>390.93</ele>
  <time>2026-09-01T20:02:51Z</time>
  <course>340.18</course>
  <speed>0.0</speed>
  <fix>3d</fix>
</trkpt>
<trkpt lat="-27.2744388" lon="151.2900638">
  <ele>391.5</ele>
  <time>2026-09-01T20:02:51Z</time>
  <course>10.65</course>
  <speed>0.01414213562373095</speed>
  <fix>3d</fix>
</trkpt>
<trkpt lat="-27.2744387" lon="151.2900636">
  <ele>391.21</ele>
  <time>2026-09-01T20:02:51Z</time>
  <course>336.96</course>
  <speed>0.0</speed>
  <fix>3d</fix>
</trkpt>
<trkpt lat="-27.2744388" lon="151.2900638">
  <ele>391.65</ele>
  <time>2026-09-01T20:02:51Z</time>
  <course>10.65</course>
  <speed>0.01414213562373095</speed>
  <fix>3d</fix>
</trkpt>
<trkpt lat="-27.2744387" lon="151.2900636">
  <ele>391.21</ele>
  <time>2026-09-01T20:02:51Z</time>
  <course>336.96</course>
  <speed>0.0</speed>
  <fix>3d</fix>
</trkpt>
<trkpt lat="-27.2744388" lon="151.2900638">
  <ele>391.79</ele>
  <time>2026-09-01T20:02:51Z</time>
  <course>10.65</course>
  <speed>0.01414213562373095</speed>
  <fix>3d</fix>
</trkpt>
<trkpt lat="-27.2744387" lon="151.2900636">
  <ele>391.5</ele>
  <time>2026-09-01T20:02:51Z</time>
  <course>336.71</course>
  <speed>0.0</speed>
  <fix>3d</fix>
</trkpt>
<trkpt lat="-27.2744388" lon="151.2900638">
  <ele>391.94</ele>
  <time>2026-09-01T20:02:51Z</time>
  <course>10.64</course>
  <speed>0.01414213562373095</speed>
  <fix>3d</fix>
</trkpt>
<trkpt lat="-27.2744387" lon="151.2900636">
  <ele>391.5</ele>
  <time>2026-09-01T20:02:51Z</time>
  <course>336.71</course>
  <speed>0.0</speed>
  <fix>3d</fix>
</trkpt>
<trkpt lat="-27.2744388" lon="151.2900638">
  <ele>392.09</ele>
  <time>2026-09-01T20:02:51Z</time>
  <course>10.64</course>
  <speed>0.01414213562373095</speed>
  <fix>3d</fix>
</trkpt>
<trkpt lat="-27.2744387" lon="151.2900636">
  <ele>391.79</ele>
  <time>2026-09-01T20:02:51Z</time>
  <course>341.78</course>
  <speed>0.0</speed>
  <fix>3d</fix>
</trkpt>
<trkpt lat="-27.2744388" lon="151.2900638">
  <ele>392.23</ele>
  <time>2026-09-01T20:02:51Z</time>
  <course>10.64</course>
  <speed>0.01414213562373095</speed>
  <fix>3d</fix>
</trkpt>
<trkpt lat="-27.2744387" lon="151.2900636">
  <ele>391.79</ele>
  <time>2026-09-01T20:02:51Z</time>
  <course>341.78</course>
  <speed>0.0</speed>
  <fix>3d</fix>
</trkpt>
<trkpt lat="-27.2744388" lon="151.2900638">
  <ele>392.38</ele>
  <time>2026-09-01T20:02:51Z</time>
  <course>10.65</course>
  <speed>0.01414213562373095</speed>
  <fix>3d</fix>
</trkpt>
<trkpt lat="-27.2744387" lon="151.2900636">
  <ele>392.08</ele>
  <time>2026-09-01T20:02:51Z</time>
  <course>351.69</course>
  <speed>0.0</speed>
  <fix>3d</fix>
</trkpt>
<trkpt lat="-27.2744388" lon="151.2900638">
  <ele>392.52</ele>
  <time>2026-09-01T20:02:51Z</time>
  <course>10.66</course>
  <speed>0.01414213562373095</speed>
  <fix>3d</fix>
</trkpt>
<trkpt lat="-27.2744387" lon="151.2900636">
  <ele>392.08</ele>
  <time>2026-09-01T20:02:51Z</time>
  <course>351.69</course>
  <speed>0.0</speed>
  <fix>3d</fix>
</trkpt>
<trkpt lat="-27.2744388" lon="151.2900638">
  <ele>392.66</ele>
  <time>2026-09-01T20:02:51Z</time>
  <course>10.69</course>
  <speed>0.01414213562373095</speed>
  <fix>3d</fix>
</trkpt>
<trkpt lat="-27.2744387" lon="151.2900636">
  <ele>392.36</ele>
  <time>2026-09-01T20:02:51Z</time>
  <course>358.54</course>
  <speed>0.0</speed>
  <fix>3d</fix>
</trkpt>
<trkpt lat="-27.2744388" lon="151.2900638">
  <ele>392.8</ele>
  <time>2026-09-01T20:02:51Z</time>
  <course>10.71</course>
  <speed>0.01414213562373095</speed>
  <fix>3d</fix>
</trkpt>
<trkpt lat="-27.2744387" lon="151.2900636">
  <ele>392.36</ele>
  <time>2026-09-01T20:02:51Z</time>
  <course>358.54</course>
  <speed>0.0</speed>
  <fix>3d</fix>
</trkpt>
<trkpt lat="-27.2744388" lon="151.2900638">
  <ele>392.94</ele>
  <time>2026-09-01T20:02:51Z</time>
  <course>10.72</course>
  <speed>0.01414213562373095</speed>
  <fix>3d</fix>
</trkpt>
<trkpt lat="-27.2744386" lon="151.2900636">
  <ele>392.65</ele>
  <time>2026-09-01T20:02:51Z</time>
  <course>358.83</course>
  <speed>0.0</speed>
  <fix>3d</fix>
</trkpt>
<trkpt lat="-27.2744388" lon="151.2900638">
  <ele>393.08</ele>
  <time>2026-09-01T20:02:51Z</time>
  <course>10.73</course>
  <speed>0.01414213562373095</speed>
  <fix>3d</fix>
</trkpt>
<trkpt lat="-27.2744386" lon="151.2900636">
  <ele>392.65</ele>
  <time>2026-09-01T20:02:51Z</time>
  <course>358.83</course>
  <speed>0.0</speed>
  <fix>3d</fix>
</trkpt>
<trkpt lat="-27.2744388" lon="151.2900638">
  <ele>393.23</ele>
  <time>2026-09-01T20:02:51Z</time>
  <course>10.72</course>
  <speed>0.01414213562373095</speed>
  <fix>3d</fix>
</trkpt>
<trkpt lat="-27.2744386" lon="151.2900636">
  <ele>392.94</ele>
  <time>2026-09-01T20:02:51Z</time>
  <course>357.83</course>
  <speed>0.0</speed>
  <fix>3d</fix>
</trkpt>
<trkpt lat="-27.2744388" lon="151.2900638">
  <ele>393.37</ele>
  <time>2026-09-01T20:02:51Z</time>
  <course>10.72</course>
  <speed>0.01414213562373095</speed>
  <fix>3d</fix>
</trkpt>
<trkpt lat="-27.2744386" lon="151.2900636">
  <ele>392.94</ele>
  <time>2026-09-01T20:02:51Z</time>
  <course>357.83</course>
  <speed>0.0</speed>
  <fix>3d</fix>
</trkpt>
<trkpt lat="-27.2744388" lon="151.2900638">
  <ele>393.51</ele>
  <time>2026-09-01T20:02:51Z</time>
  <course>10.71</course>
  <speed>0.01414213562373095</speed>
  <fix>3d</fix>
</trkpt>
<trkpt lat="-27.2744386" lon="151.2900636">
  <ele>393.22</ele>
  <time>2026-09-01T20:02:51Z</time>
  <course>359.32</course>
  <speed>0.0</speed>
  <fix>3d</fix>
</trkpt>
<trkpt lat="-27.2744388" lon="151.2900638">
  <ele>393.65</ele>
  <time>2026-09-01T20:02:51Z</time>
  <course>10.7</course>
  <speed>0.01414213562373095</speed>
  <fix>3d</fix>
</trkpt>
<trkpt lat="-27.2744386" lon="151.2900636">
  <ele>393.22</ele>
  <time>2026-09-01T20:02:51Z</time>
  <course>359.32</course>
  <speed>0.0</speed>
  <fix>3d</fix>
</trkpt>
<trkpt lat="-27.2744388" lon="151.2900638">
  <ele>393.79</ele>
  <time>2026-09-01T20:02:51Z</time>
  <course>10.69</course>
  <speed>0.01414213562373095</speed>
  <fix>3d</fix>
</trkpt>
<trkpt lat="-27.2744386" lon="151.2900636">
  <ele>393.51</ele>
  <time>2026-09-01T20:02:51Z</time>
  <course>3.51</course>
  <speed>0.0</speed>
  <fix>3d</fix>
</trkpt>
<trkpt lat="-27.2744388" lon="151.2900638">
  <ele>393.94</ele>
  <time>2026-09-01T20:02:51Z</time>
  <course>10.68</course>
  <speed>0.01414213562373095</speed>
  <fix>3d</fix>
</trkpt>
<trkpt lat="-27.2744386" lon="151.2900636">
  <ele>393.51</ele>
  <time>2026-09-01T20:02:51Z</time>
  <course>3.51</course>
  <speed>0.0</speed>
  <fix>3d</fix>
</trkpt>
<trkpt lat="-27.2744388" lon="151.2900638">
  <ele>393.94</ele>
  <time>2026-09-01T20:02:51Z</time>
  <course>10.68</course>
  <speed>0.01414213562373095</speed>
  <fix>3d</fix>
</trkpt>
<trkpt lat="-27.2744388" lon="151.2900638">
  <ele>394.08</ele>
  <time>2026-09-01T20:02:51Z</time>
  <course>10.57</course>
  <speed>0.01414213562373095</speed>
  <fix>3d</fix>
</trkpt>
<trkpt lat="-27.2744386" lon="151.2900636">
  <ele>393.79</ele>
  <time>2026-09-01T20:02:51Z</time>
  <course>6.5</course>
  <speed>0.0</speed>
  <fix>3d</fix>
</trkpt>
<trkpt lat="-27.2744387" lon="151.2900638">
  <ele>394.18</ele>
  <time>2026-09-01T20:02:51Z</time>
  <course>10.27</course>
  <speed>0.07280109889280519</speed>
  <fix>3d</fix>
</trkpt>
<trkpt lat="-27.2744386" lon="151.2900636">
  <ele>393.79</ele>
  <time>2026-09-01T20:02:51Z</time>
  <course>6.5</course>
  <speed>0.0</speed>
  <fix>3d</fix>
</trkpt>
<trkpt lat="-27.2744386" lon="151.2900638">
  <ele>394.05</ele>
  <time>2026-09-01T20:02:51Z</time>
  <course>10.0</course>
  <speed>0.11401754250991379</speed>
  <fix>3d</fix>
</trkpt>
<trkpt lat="-27.2744385" lon="151.2900636">
  <ele>394.06</ele>
  <time>2026-09-01T20:02:51Z</time>
  <course>7.09</course>
  <speed>0.05</speed>
  <fix>3d</fix>
</trkpt>
<trkpt lat="-27.2744385" lon="151.2900638">
  <ele>393.98</ele>
  <time>2026-09-01T20:02:51Z</time>
  <course>9.73</course>
  <speed>0.11401754250991379</speed>
  <fix>3d</fix>
</trkpt>
<trkpt lat="-27.2744385" lon="151.2900636">
  <ele>394.06</ele>
  <time>2026-09-01T20:02:51Z</time>
  <course>7.09</course>
  <speed>0.05</speed>
  <fix>3d</fix>
</trkpt>
<trkpt lat="-27.2744384" lon="151.2900638">
  <ele>393.77</ele>
  <time>2026-09-01T20:02:51Z</time>
  <course>9.42</course>
  <speed>0.1264911064067352</speed>
  <fix>3d</fix>
</trkpt>
<trkpt lat="-27.2744384" lon="151.2900636">
  <ele>394.14</ele>
  <time>2026-09-01T20:02:51Z</time>
  <course>7.31</course>
  <speed>0.12</speed>
  <fix>3d</fix>
</trkpt>
<trkpt lat="-27.2744382" lon="151.2900638">
  <ele>393.44</ele>
  <time>2026-09-01T20:02:51Z</time>
  <course>8.93</course>
  <speed>0.13</speed>
  <fix>3d</fix>
</trkpt>
<trkpt lat="-27.2744384" lon="151.2900636">
  <ele>394.14</ele>
  <time>2026-09-01T20:02:51Z</time>
  <course>7.31</course>
  <speed>0.12</speed>
  <fix>3d</fix>
</trkpt>
<trkpt lat="-27.2744381" lon="151.2900638">
  <ele>393.03</ele>
  <time>2026-09-01T20:02:51Z</time>
  <course>8.19</course>
  <speed>0.15652475842498528</speed>
  <fix>3d</fix>
</trkpt>
<trkpt lat="-27.2744381" lon="151.2900636">
  <ele>393.87</ele>
  <time>2026-09-01T20:02:51Z</time>
  <course>10.99</course>
  <speed>0.15</speed>
  <fix>3d</fix>
</trkpt>
<trkpt lat="-27.2744379" lon="151.2900639">
  <ele>392.56</ele>
  <time>2026-09-01T20:02:51Z</time>
  <course>7.29</course>
  <speed>0.18384776310850234</speed>
  <fix>3d</fix>
</trkpt>
<trkpt lat="-27.2744381" lon="151.2900636">
  <ele>393.87</ele>
  <time>2026-09-01T20:02:51Z</time>
  <course>10.99</course>
  <speed>0.15</speed>
  <fix>3d</fix>
</trkpt>
<trkpt lat="-27.2744377" lon="151.2900639">
  <ele>392.05</ele>
  <time>2026-09-01T20:02:51Z</time>
  <course>6.38</course>
  <speed>0.21189620100417092</speed>
  <fix>3d</fix>
</trkpt>
<trkpt lat="-27.2744378" lon="151.2900636">
  <ele>393.28</ele>
  <time>2026-09-01T20:02:51Z</time>
  <course>15.32</course>
  <speed>0.18</speed>
  <fix>3d</fix>
</trkpt>
<trkpt lat="-27.2744375" lon="151.290064">
  <ele>391.49</ele>
  <time>2026-09-01T20:02:51Z</time>
  <course>5.53</course>
  <speed>0.2692582403567252</speed>
  <fix>3d</fix>
</trkpt>
<trkpt lat="-27.2744378" lon="151.2900636">
  <ele>393.28</ele>
  <time>2026-09-01T20:02:51Z</time>
  <course>15.32</course>
  <speed>0.18</speed>
  <fix>3d</fix>
</trkpt>
<trkpt lat="-27.2744372" lon="151.2900641">
  <ele>390.9</ele>
  <time>2026-09-01T20:02:51Z</time>
  <course>4.74</course>
  <speed>0.356931365951495</speed>
  <fix>3d</fix>
</trkpt>
<trkpt lat="-27.2744375" lon="151.2900637">
  <ele>392.45</ele>
  <time>2026-09-01T20:02:51Z</time>
  <course>12.59</course>
  <speed>0.24</speed>
  <fix>3d</fix>
</trkpt>
<trkpt lat="-27.2744368" lon="151.2900641">
  <ele>390.26</ele>
  <time>2026-09-01T20:02:51Z</time>
  <course>4.0</course>
  <speed>0.47675989764240867</speed>
  <fix>3d</fix>
</trkpt>
<trkpt lat="-27.2744375" lon="151.2900637">
  <ele>392.45</ele>
  <time>2026-09-01T20:02:51Z</time>
  <course>12.59</course>
  <speed>0.24</speed>
  <fix>3d</fix>
</trkpt>
<trkpt lat="-27.2744363" lon="151.2900642">
  <ele>389.57</ele>
  <time>2026-09-01T20:02:51Z</time>
  <course>3.29</course>
  <speed>0.6053098380168622</speed>
  <fix>3d</fix>
</trkpt>
<trkpt lat="-27.2744369" lon="151.2900638">
  <ele>391.42</ele>
  <time>2026-09-01T20:02:51Z</time>
  <course>7.11</course>
  <speed>0.39</speed>
  <fix>3d</fix>
</trkpt>
<trkpt lat="-27.2744357" lon="151.2900642">
  <ele>388.8</ele>
  <time>2026-09-01T20:02:51Z</time>
  <course>2.58</course>
  <speed>0.7951100552753688</speed>
  <fix>3d</fix>
</trkpt>
<trkpt lat="-27.2744369" lon="151.2900638">
  <ele>391.42</ele>
  <time>2026-09-01T20:02:51Z</time>
  <course>7.11</course>
  <speed>0.39</speed>
  <fix>3d</fix>
</trkpt>
<trkpt lat="-27.2744345" lon="151.2900643">
  <ele>387.99</ele>
  <time>2026-09-01T20:02:51Z</time>
  <course>1.81</course>
  <speed>1.7149344010777787</speed>
  <fix>3d</fix>
</trkpt>
<trkpt lat="-27.274436" lon="151.2900639">
  <ele>390.18</ele>
  <time>2026-09-01T20:02:51Z</time>
  <course>4.09</course>
  <speed>0.64</speed>
  <fix>3d</fix>
</trkpt>
<trkpt lat="-27.2744327" lon="151.2900644">
  <ele>387.09</ele>
  <time>2026-09-01T20:02:51Z</time>
  <course>0.73</course>
  <speed>2.2144299492194377</speed>
  <fix>3d</fix>
</trkpt>
<trkpt lat="-27.274436" lon="151.2900639">
  <ele>390.18</ele>
  <time>2026-09-01T20:02:51Z</time>
  <course>4.09</course>
  <speed>0.64</speed>
  <fix>3d</fix>
</trkpt>
<trkpt lat="-27.2744307" lon="151.2900645">
  <ele>386.13</ele>
  <time>2026-09-01T20:02:51Z</time>
  <course>358.79</course>
  <speed>2.2842942017174583</speed>
  <fix>3d</fix>
</trkpt>
<trkpt lat="-27.274434" lon="151.290064">
  <ele>388.69</ele>
  <time>2026-09-01T20:02:51Z</time>
  <course>1.75</course>
  <speed>1.51</speed>
  <fix>3d</fix>
</trkpt>
<trkpt lat="-27.2744287" lon="151.2900646">
  <ele>385.06</ele>
  <time>2026-09-01T20:02:51Z</time>
  <course>356.99</course>
  <speed>2.1339634486091836</speed>
  <fix>3d</fix>
</trkpt>
<trkpt lat="-27.274434" lon="151.290064">
  <ele>388.69</ele>
  <time>2026-09-01T20:02:51Z</time>
  <course>1.75</course>
  <speed>1.51</speed>
  <fix>3d</fix>
</trkpt>
<trkpt lat="-27.2744269" lon="151.2900647">
  <ele>383.91</ele>
  <time>2026-09-01T20:02:51Z</time>
  <course>357.5</course>
  <speed>2.083458662896867</speed>
  <fix>3d</fix>
</trkpt>
<trkpt lat="-27.2744304" lon="151.2900641">
  <ele>386.9</ele>
  <time>2026-09-01T20:02:51Z</time>
  <course>1.15</course>
  <speed>2.19</speed>
  <fix>3d</fix>
</trkpt>
<trkpt lat="-27.2744249" lon="151.2900647">
  <ele>382.67</ele>
  <time>2026-09-01T20:02:51Z</time>
  <course>357.79</course>
  <speed>2.4324884377936926</speed>
  <fix>3d</fix>
</trkpt>
<trkpt lat="-27.2744304" lon="151.2900641">
  <ele>386.9</ele>
  <time>2026-09-01T20:02:51Z</time>
  <course>1.15</course>
  <speed>2.19</speed>
  <fix>3d</fix>
</trkpt>
<trkpt lat="-27.2744223" lon="151.2900647">
  <ele>381.37</ele>
  <time>2026-09-01T20:02:51Z</time>
  <course>357.5</course>
  <speed>3.280381075424012</speed>
  <fix>3d</fix>
</trkpt>
<trkpt lat="-27.2744264" lon="151.2900642">
  <ele>384.76</ele>
  <time>2026-09-01T20:02:51Z</time>
  <course>0.78</course>
  <speed>2.3</speed>
  <fix>3d</fix>
</trkpt>
<trkpt lat="-27.2744188" lon="151.2900647">
  <ele>380.0</ele>
  <time>2026-09-01T20:02:51Z</time>
  <course>357.2</course>
  <speed>4.510277153346566</speed>
  <fix>3d</fix>
</trkpt>
<trkpt lat="-27.2744264" lon="151.2900642">
  <ele>384.76</ele>
  <time>2026-09-01T20:02:51Z</time>
  <course>0.78</course>
  <speed>2.3</speed>
  <fix>3d</fix>
</trkpt>
<trkpt lat="-27.2744141" lon="151.2900646">
  <ele>378.61</ele>
  <time>2026-09-01T20:02:51Z</time>
  <course>357.02</course>
  <speed>5.903388857258177</speed>
  <fix>3d</fix>
</trkpt>
<trkpt lat="-27.2744215" lon="151.2900642">
  <ele>382.29</ele>
  <time>2026-09-01T20:02:51Z</time>
  <course>358.68</course>
  <speed>3.46</speed>
  <fix>3d</fix>
</trkpt>
<trkpt lat="-27.2744082" lon="151.2900642">
  <ele>377.2</ele>
  <time>2026-09-01T20:02:51Z</time>
  <course>357.01</course>
  <speed>7.258932428394688</speed>
  <fix>3d</fix>
</trkpt>
<trkpt lat="-27.2744215" lon="151.2900642">
  <ele>382.29</ele>
  <time>2026-09-01T20:02:51Z</time>
  <course>358.68</course>
  <speed>3.46</speed>
  <fix>3d</fix>
</trkpt>
<trkpt lat="-27.2744011" lon="151.2900636">
  <ele>375.81</ele>
  <time>2026-09-01T20:02:51Z</time>
  <course>356.96</course>
  <speed>8.535853794436735</speed>
  <fix>3d</fix>
</trkpt>
<trkpt lat="-27.2744132" lon="151.2900638">
  <ele>379.6</ele>
  <time>2026-09-01T20:02:51Z</time>
  <course>356.5</course>
  <speed>5.86</speed>
  <fix>3d</fix>
</trkpt>
<trkpt lat="-27.2743929" lon="151.2900629">
  <ele>374.41</ele>
  <time>2026-09-01T20:02:51Z</time>
  <course>356.9</course>
  <speed>9.780961097969872</speed>
  <fix>3d</fix>
</trkpt>
<trkpt lat="-27.2744132" lon="151.2900638">
  <ele>379.6</ele>
  <time>2026-09-01T20:02:51Z</time>
  <course>356.5</course>
  <speed>5.86</speed>
  <fix>3d</fix>
</trkpt>
<trkpt lat="-27.2743837" lon="151.290062">
  <ele>373.04</ele>
  <time>2026-09-01T20:02:51Z</time>
  <course>356.78</course>
  <speed>11.025538535599974</speed>
  <fix>3d</fix>
</trkpt>
<trkpt lat="-27.2744003" lon="151.2900628">
  <ele>376.84</ele>
  <time>2026-09-01T20:02:51Z</time>
  <course>355.46</course>
  <speed>8.51</speed>
  <fix>3d</fix>
</trkpt>
<trkpt lat="-27.2743733" lon="151.2900611">
  <ele>371.7</ele>
  <time>2026-09-01T20:02:51Z</time>
  <course>356.66</course>
  <speed>12.276750384364748</speed>
  <fix>3d</fix>
</trkpt>
<trkpt lat="-27.2744003" lon="151.2900628">
  <ele>376.84</ele>
  <time>2026-09-01T20:02:51Z</time>
  <course>355.46</course>
  <speed>8.51</speed>
  <fix>3d</fix>
</trkpt>
<trkpt lat="-27.2743617" lon="151.29006">
  <ele>370.43</ele>
  <time>2026-09-01T20:02:51Z</time>
  <course>356.53</course>
  <speed>13.498066528210625</speed>
  <fix>3d</fix>
</trkpt>
<trkpt lat="-27.2743828" lon="151.2900613">
  <ele>374.12</ele>
  <time>2026-09-01T20:02:51Z</time>
  <course>355.39</course>
  <speed>11.04</speed>
  <fix>3d</fix>
</trkpt>
<trkpt lat="-26.9720619" lon="149.6127921">
  <ele>339.29</ele>
  <time>2026-09-01T20:02:52Z</time>
  <course>310.27</course>
  <speed>0.0</speed>
  <fix>3d</fix>
</trkpt>
<trkpt lat="-26.9720619" lon="149.6127921">
  <ele>339.29</ele>
  <time>2026-09-01T20:02:52Z</time>
  <course>310.27</course>
  <speed>0.0</speed>
  <fix>3d</fix>
</trkpt>
<trkpt lat="-27.274439" lon="151.290064">
  <ele>-0.01</ele>
  <time>2026-09-01T20:02:52Z</time>
  <course>0.22</course>
  <speed>0.0</speed>
  <fix>3d</fix>
</trkpt>
<trkpt lat="-27.274439" lon="151.290064">
  <ele>343.1</ele>
  <time>2026-09-01T20:02:52Z</time>
  <course>294.58</course>
  <speed>0.0</speed>
  <fix>3d</fix>
</trkpt>
<trkpt lat="-27.274439" lon="151.290064">
  <ele>0.02</ele>
  <time>2026-09-01T20:02:52Z</time>
  <course>1.2</course>
  <speed>0.0</speed>
  <fix>3d</fix>
</trkpt>
<trkpt lat="-27.274439" lon="151.290064">
  <ele>343.1</ele>
  <time>2026-09-01T20:02:52Z</time>
  <course>294.58</course>
  <speed>0.0</speed>
  <fix>3d</fix>
</trkpt>
<trkpt lat="-27.274439" lon="151.290064">
  <ele>-0.08</ele>
  <time>2026-09-01T20:02:52Z</time>
  <course>2.1</course>
  <speed>0.0</speed>
  <fix>3d</fix>
</trkpt>
<trkpt lat="-27.274439" lon="151.290064">
  <ele>343.1</ele>
  <time>2026-09-01T20:02:52Z</time>
  <course>273.33</course>
  <speed>0.0</speed>
  <fix>3d</fix>
</trkpt>
<trkpt lat="-27.274439" lon="151.290064">
  <ele>0.22</ele>
  <time>2026-09-01T20:02:52Z</time>
  <course>2.92</course>
  <speed>0.0</speed>
  <fix>3d</fix>
</trkpt>
<trkpt lat="-27.274439" lon="151.290064">
  <ele>343.1</ele>
  <time>2026-09-01T20:02:52Z</time>
  <course>273.33</course>
  <speed>0.0</speed>
  <fix>3d</fix>
</trkpt>
<trkpt lat="-27.274439" lon="151.290064">
  <ele>0.09</ele>
  <time>2026-09-01T20:02:52Z</time>
  <course>3.66</course>
  <speed>0.0</speed>
  <fix>3d</fix>
</trkpt>
<trkpt lat="-27.274439" lon="151.290064">
  <ele>343.1</ele>
  <time>2026-09-01T20:02:52Z</time>
  <course>270.44</course>
  <speed>0.0</speed>
  <fix>3d</fix>
</trkpt>
<trkpt lat="-27.274439" lon="151.290064">
  <ele>0.08</ele>
  <time>2026-09-01T20:02:52Z</time>
  <course>4.34</course>
  <speed>0.0</speed>
  <fix>3d</fix>
</trkpt>
<trkpt lat="-27.274439" lon="151.290064">
  <ele>343.1</ele>
  <time>2026-09-01T20:02:52Z</time>
  <course>270.44</course>
  <speed>0.0</speed>
  <fix>3d</fix>
</trkpt>
<trkpt lat="-27.274439" lon="151.290064">
  <ele>0.09</ele>
  <time>2026-09-01T20:02:52Z</time>
  <course>4.95</course>
  <speed>0.0</speed>
  <fix>3d</fix>
</trkpt>
<trkpt lat="-27.274439" lon="151.290064">
  <ele>343.1</ele>
  <time>2026-09-01T20:02:52Z</time>
  <course>270.05</course>
  <speed>0.0</speed>
  <fix>3d</fix>
</trkpt>
<trkpt lat="-27.274439" lon="151.290064">
  <ele>-0.05</ele>
  <time>2026-09-01T20:02:52Z</time>
  <course>5.5</course>
  <speed>0.0</speed>
  <fix>3d</fix>
</trkpt>
<trkpt lat="-27.274439" lon="151.290064">
  <ele>343.1</ele>
  <time>2026-09-01T20:02:52Z</time>
  <course>270.05</course>
  <speed>0.0</speed>
  <fix>3d</fix>
</trkpt>
<trkpt lat="-27.274439" lon="151.290064">
  <ele>343.06</ele>
  <time>2026-09-01T20:02:52Z</time>
  <course>5.98</course>
  <speed>0.0</speed>
  <fix>3d</fix>
</trkpt>
<trkpt lat="-27.274439" lon="151.290064">
  <ele>343.1</ele>
  <time>2026-09-01T20:02:52Z</time>
  <course>270.0</course>
  <speed>0.0</speed>
  <fix>3d</fix>
</trkpt>
<trkpt lat="-27.274439" lon="151.290064">
  <ele>343.18</ele>
  <time>2026-09-01T20:02:52Z</time>
  <course>6.44</course>
  <speed>0.0</speed>
  <fix>3d</fix>
</trkpt>
<trkpt lat="-27.274439" lon="151.290064">
  <ele>343.1</ele>
  <time>2026-09-01T20:02:52Z</time>
  <course>270.0</course>
  <speed>0.0</speed>
  <fix>3d</fix>
</trkpt>
<trkpt lat="-27.274439" lon="151.290064">
  <ele>342.91</ele>
  <time>2026-09-01T20:02:52Z</time>
  <course>6.85</course>
  <speed>0.0</speed>
  <fix>3d</fix>
</trkpt>
<trkpt lat="-27.274439" lon="151.290064">
  <ele>343.1</ele>
  <time>2026-09-01T20:02:52Z</time>
  <course>270.0</course>
  <speed>0.0</speed>
  <fix>3d</fix>
</trkpt>
<trkpt lat="-27.274439" lon="151.290064">
  <ele>343.06</ele>
  <time>2026-09-01T20:02:52Z</time>
  <course>7.22</course>
  <speed>0.0</speed>
  <fix>3d</fix>
</trkpt>
<trkpt lat="-27.274439" lon="151.290064">
  <ele>343.1</ele>
  <time>2026-09-01T20:02:52Z</time>
  <course>270.0</course>
  <speed>0.0</speed>
  <fix>3d</fix>
</trkpt>
<trkpt lat="-27.274439" lon="151.290064">
  <ele>343.13</ele>
  <time>2026-09-01T20:02:52Z</time>
  <course>7.56</course>
  <speed>0.0</speed>
  <fix>3d</fix>
</trkpt>
<trkpt lat="-27.274439" lon="151.290064">
  <ele>343.1</ele>
  <time>2026-09-01T20:02:52Z</time>
  <course>270.0</course>
  <speed>0.0</speed>
  <fix>3d</fix>
</trkpt>
<trkpt lat="-27.274439" lon="151.290064">
  <ele>343.04</ele>
  <time>2026-09-01T20:02:52Z</time>
  <course>7.87</course>
  <speed>0.0</speed>
  <fix>3d</fix>
</trkpt>
<trkpt lat="-27.274439" lon="151.290064">
  <ele>343.1</ele>
  <time>2026-09-01T20:02:52Z</time>
  <course>270.0</course>
  <speed>0.0</speed>
  <fix>3d</fix>
</trkpt>
<trkpt lat="-27.274439" lon="151.290064">
  <ele>342.88</ele>
  <time>2026-09-01T20:02:52Z</time>
  <course>8.14</course>
  <speed>0.0</speed>
  <fix>3d</fix>
</trkpt>
<trkpt lat="-27.274439" lon="151.290064">
  <ele>343.1</ele>
  <time>2026-09-01T20:02:52Z</time>
  <course>270.0</course>
  <speed>0.0</speed>
  <fix>3d</fix>
</trkpt>
<trkpt lat="-27.274439" lon="151.290064">
  <ele>343.02</ele>
  <time>2026-09-01T20:02:52Z</time>
  <course>8.39</course>
  <speed>0.0</speed>
  <fix>3d</fix>
</trkpt>
<trkpt lat="-27.274439" lon="151.290064">
  <ele>343.1</ele>
  <time>2026-09-01T20:02:52Z</time>
  <course>270.0</course>
  <speed>0.0</speed>
  <fix>3d</fix>
</trkpt>
<trkpt lat="-27.274439" lon="151.290064">
  <ele>343.23</ele>
  <time>2026-09-01T20:02:52Z</time>
  <course>8.63</course>
  <speed>0.0</speed>
  <fix>3d</fix>
</trkpt>
<trkpt lat="-27.274439" lon="151.290064">
  <ele>343.1</ele>
  <time>2026-09-01T20:02:52Z</time>
  <course>270.0</course>
  <speed>0.0</speed>
  <fix>3d</fix>
</trkpt>
<trkpt lat="-27.274439" lon="151.290064">
  <ele>343.17</ele>
  <time>2026-09-01T20:02:52Z</time>
  <course>8.83</course>
  <speed>0.0</speed>
  <fix>3d</fix>
</trkpt>
<trkpt lat="-27.274439" lon="151.290064">
  <ele>343.1</ele>
  <time>2026-09-01T20:02:52Z</time>
  <course>270.0</course>
  <speed>0.0</speed>
  <fix>3d</fix>
</trkpt>
<trkpt lat="-27.274439" lon="151.290064">
  <ele>343.04</ele>
  <time>2026-09-01T20:02:52Z</time>
  <course>9.01</course>
  <speed>0.0</speed>
  <fix>3d</fix>
</trkpt>
<trkpt lat="-27.274439" lon="151.290064">
  <ele>343.1</ele>
  <time>2026-09-01T20:02:52Z</time>
  <course>270.0</course>
  <speed>0.0</speed>
  <fix>3d</fix>
</trkpt>
<trkpt lat="-27.274439" lon="151.290064">
  <ele>342.89</ele>
  <time>2026-09-01T20:02:52Z</time>
  <course>9.18</course>
  <speed>0.0</speed>
  <fix>3d</fix>
</trkpt>
<trkpt lat="-27.274439" lon="151.290064">
  <ele>343.1</ele>
  <time>2026-09-01T20:02:52Z</time>
  <course>270.0</course>
  <speed>0.0</speed>
  <fix>3d</fix>
</trkpt>
<trkpt lat="-27.274439" lon="151.290064">
  <ele>343.08</ele>
  <time>2026-09-01T20:02:52Z</time>
  <course>9.33</course>
  <speed>0.0</speed>
  <fix>3d</fix>
</trkpt>
<trkpt lat="-27.274439" lon="151.290064">
  <ele>343.1</ele>
  <time>2026-09-01T20:02:52Z</time>
  <course>270.0</course>
  <speed>0.0</speed>
  <fix>3d</fix>
</trkpt>
<trkpt lat="-27.274439" lon="151.290064">
  <ele>343.19</ele>
  <time>2026-09-01T20:02:52Z</time>
  <course>9.47</course>
  <speed>0.0</speed>
  <fix>3d</fix>
</trkpt>
<trkpt lat="-27.274439" lon="151.290064">
  <ele>343.1</ele>
  <time>2026-09-01T20:02:52Z</time>
  <course>270.0</course>
  <speed>0.0</speed>
  <fix>3d</fix>
</trkpt>
<trkpt lat="-27.274439" lon="151.290064">
  <ele>342.88</ele>
  <time>2026-09-01T20:02:52Z</time>
  <course>9.59</course>
  <speed>0.0</speed>
  <fix>3d</fix>
</trkpt>
<trkpt lat="-27.274439" lon="151.290064">
  <ele>343.1</ele>
  <time>2026-09-01T20:02:52Z</time>
  <course>270.0</course>
  <speed>0.0</speed>
  <fix>3d</fix>
</trkpt>
<trkpt lat="-27.274439" lon="151.290064">
  <ele>343.17</ele>
  <time>2026-09-01T20:02:52Z</time>
  <course>9.7</course>
  <speed>0.0</speed>
  <fix>3d</fix>
</trkpt>
<trkpt lat="-27.274439" lon="151.290064">
  <ele>343.1</ele>
  <time>2026-09-01T20:02:52Z</time>
  <course>270.0</course>
  <speed>0.0</speed>
  <fix>3d</fix>
</trkpt>
<trkpt lat="-27.274439" lon="151.290064">
  <ele>342.89</ele>
  <time>2026-09-01T20:02:52Z</time>
  <course>9.8</course>
  <speed>0.0</speed>
  <fix>3d</fix>
</trkpt>
<trkpt lat="-27.274439" lon="151.290064">
  <ele>343.1</ele>
  <time>2026-09-01T20:02:52Z</time>
  <course>270.0</course>
  <speed>0.0</speed>
  <fix>3d</fix>
</trkpt>
<trkpt lat="-27.274439" lon="151.290064">
  <ele>342.99</ele>
  <time>2026-09-01T20:02:52Z</time>
  <course>9.9</course>
  <speed>0.0</speed>
  <fix>3d</fix>
</trkpt>
<trkpt lat="-27.274439" lon="151.290064">
  <ele>343.1</ele>
  <time>2026-09-01T20:02:52Z</time>
  <course>270.0</course>
  <speed>0.0</speed>
  <fix>3d</fix>
</trkpt>
<trkpt lat="-27.274439" lon="151.290064">
  <ele>342.87</ele>
  <time>2026-09-01T20:02:52Z</time>
  <course>9.98</course>
  <speed>0.0</speed>
  <fix>3d</fix>
</trkpt>
<trkpt lat="-27.274439" lon="151.290064">
  <ele>343.1</ele>
  <time>2026-09-01T20:02:52Z</time>
  <course>270.0</course>
  <speed>0.0</speed>
  <fix>3d</fix>
</trkpt>
<trkpt lat="-27.274439" lon="151.290064">
  <ele>343.09</ele>
  <time>2026-09-01T20:02:52Z</time>
  <course>10.06</course>
  <speed>0.0</speed>
  <fix>3d</fix>
</trkpt>
<trkpt lat="-27.274439" lon="151.290064">
  <ele>343.1</ele>
  <time>2026-09-01T20:02:52Z</time>
  <course>270.0</course>
  <speed>0.0</speed>
  <fix>3d</fix>
</trkpt>
<trkpt lat="-27.274439" lon="151.290064">
  <ele>343.18</ele>
  <time>2026-09-01T20:02:52Z</time>
  <course>10.13</course>
  <speed>0.0</speed>
  <fix>3d</fix>
</trkpt>
<trkpt lat="-27.274439" lon="151.290064">
  <ele>343.1</ele>
  <time>2026-09-01T20:02:52Z</time>
  <course>270.0</course>
  <speed>0.0</speed>
  <fix>3d</fix>
</trkpt>
<trkpt lat="-27.274439" lon="151.290064">
  <ele>343.05</ele>
  <time>2026-09-01T20:02:52Z</time>
  <course>10.2</course>
  <speed>0.0</speed>
  <fix>3d</fix>
</trkpt>
<trkpt lat="-27.274439" lon="151.290064">
  <ele>343.1</ele>
  <time>2026-09-01T20:02:52Z</time>
  <course>270.0</course>
  <speed>0.0</speed>
  <fix>3d</fix>
</trkpt>
<trkpt lat="-27.274439" lon="151.290064">
  <ele>342.96</ele>
  <time>2026-09-01T20:02:52Z</time>
  <course>10.25</course>
  <speed>0.0</speed>
  <fix>3d</fix>
</trkpt>
<trkpt lat="-27.274439" lon="151.290064">
  <ele>343.1</ele>
  <time>2026-09-01T20:02:52Z</time>
  <course>270.0</course>
  <speed>0.0</speed>
  <fix>3d</fix>
</trkpt>
<trkpt lat="-27.274439" lon="151.290064">
  <ele>343.1</ele>
  <time>2026-09-01T20:02:52Z</time>
  <course>10.31</course>
  <speed>0.0</speed>
  <fix>3d</fix>
</trkpt>
<trkpt lat="-27.274439" lon="151.290064">
  <ele>343.1</ele>
  <time>2026-09-01T20:02:52Z</time>
  <course>270.0</course>
  <speed>0.0</speed>
  <fix>3d</fix>
</trkpt>
<trkpt lat="-27.274439" lon="151.290064">
  <ele>343.22</ele>
  <time>2026-09-01T20:02:52Z</time>
  <course>10.35</course>
  <speed>0.0</speed>
  <fix>3d</fix>
</trkpt>
<trkpt lat="-27.274439" lon="151.290064">
  <ele>343.1</ele>
  <time>2026-09-01T20:02:52Z</time>
  <course>270.0</course>
  <speed>0.0</speed>
  <fix>3d</fix>
</trkpt>
<trkpt lat="-27.274439" lon="151.290064">
  <ele>343.17</ele>
  <time>2026-09-01T20:02:52Z</time>
  <course>10.4</course>
  <speed>0.0</speed>
  <fix>3d</fix>
</trkpt>
<trkpt lat="-27.274439" lon="151.290064">
  <ele>343.1</ele>
  <time>2026-09-01T20:02:52Z</time>
  <course>270.0</course>
  <speed>0.0</speed>
  <fix>3d</fix>
</trkpt>
<trkpt lat="-27.274439" lon="151.290064">
  <ele>343.08</ele>
  <time>2026-09-01T20:02:52Z</time>
  <course>10.44</course>
  <speed>0.0</speed>
  <fix>3d</fix>
</trkpt>
<trkpt lat="-27.274439" lon="151.290064">
  <ele>343.1</ele>
  <time>2026-09-01T20:02:52Z</time>
  <course>270.0</course>
  <speed>0.0</speed>
  <fix>3d</fix>
</trkpt>
<trkpt lat="-27.274439" lon="151.290064">
  <ele>343.04</ele>
  <time>2026-09-01T20:02:52Z</time>
  <course>10.47</course>
  <speed>0.0</speed>
  <fix>3d</fix>
</trkpt>
<trkpt lat="-27.274439" lon="151.290064">
  <ele>343.1</ele>
  <time>2026-09-01T20:02:52Z</time>
  <course>270.0</course>
  <speed>0.0</speed>
  <fix>3d</fix>
</trkpt>
<trkpt lat="-27.274439" lon="151.290064">
  <ele>343.18</ele>
  <time>2026-09-01T20:02:52Z</time>
  <course>10.5</course>
  <speed>0.0</speed>
  <fix>3d</fix>
</trkpt>
<trkpt lat="-27.274439" lon="151.290064">
  <ele>343.1</ele>
  <time>2026-09-01T20:02:52Z</time>
  <course>270.0</course>
  <speed>0.0</speed>
  <fix>3d</fix>
</trkpt>
<trkpt lat="-27.274439" lon="151.290064">
  <ele>343.12</ele>
  <time>2026-09-01T20:02:52Z</time>
  <course>10.53</course>
  <speed>0.0</speed>
  <fix>3d</fix>
</trkpt>
<trkpt lat="-27.274439" lon="151.290064">
  <ele>343.1</ele>
  <time>2026-09-01T20:02:52Z</time>
  <course>270.0</course>
  <speed>0.0</speed>
  <fix>3d</fix>
</trkpt>
<trkpt lat="-27.274439" lon="151.290064">
  <ele>343.04</ele>
  <time>2026-09-01T20:02:52Z</time>
  <course>10.56</course>
  <speed>0.0</speed>
  <fix>3d</fix>
</trkpt>
<trkpt lat="-27.274439" lon="151.290064">
  <ele>343.1</ele>
  <time>2026-09-01T20:02:52Z</time>
  <course>270.0</course>
  <speed>0.0</speed>
  <fix>3d</fix>
</trkpt>
<trkpt lat="-27.274439" lon="151.290064">
  <ele>343.07</ele>
  <time>2026-09-01T20:02:52Z</time>
  <course>10.58</course>
  <speed>0.0</speed>
  <fix>3d</fix>
</trkpt>
<trkpt lat="-27.274439" lon="151.290064">
  <ele>343.1</ele>
  <time>2026-09-01T20:02:52Z</time>
  <course>270.0</course>
  <speed>0.0</speed>
  <fix>3d</fix>
</trkpt>
<trkpt lat="-27.274439" lon="151.290064">
  <ele>343.04</ele>
  <time>2026-09-01T20:02:52Z</time>
  <course>10.6</course>
  <speed>0.0</speed>
  <fix>3d</fix>
</trkpt>
<trkpt lat="-27.274439" lon="151.290064">
  <ele>343.1</ele>
  <time>2026-09-01T20:02:52Z</time>
  <course>270.0</course>
  <speed>0.0</speed>
  <fix>3d</fix>
</trkpt>
<trkpt lat="-27.274439" lon="151.290064">
  <ele>343.01</ele>
  <time>2026-09-01T20:02:52Z</time>
  <course>10.62</course>
  <speed>0.0</speed>
  <fix>3d</fix>
</trkpt>
<trkpt lat="-27.274439" lon="151.290064">
  <ele>343.1</ele>
  <time>2026-09-01T20:02:52Z</time>
  <course>270.0</course>
  <speed>0.0</speed>
  <fix>3d</fix>
</trkpt>
<trkpt lat="-27.274439" lon="151.290064">
  <ele>343.2</ele>
  <time>2026-09-01T20:02:52Z</time>
  <course>10.64</course>
  <speed>0.0</speed>
  <fix>3d</fix>
</trkpt>
<trkpt lat="-27.274439" lon="151.290064">
  <ele>343.1</ele>
  <time>2026-09-01T20:02:52Z</time>
  <course>270.0</course>
  <speed>0.0</speed>
  <fix>3d</fix>
</trkpt>
<trkpt lat="-27.274439" lon="151.290064">
  <ele>343.24</ele>
  <time>2026-09-01T20:02:52Z</time>
  <course>10.65</course>
  <speed>0.0</speed>
  <fix>3d</fix>
</trkpt>
<trkpt lat="-27.274439" lon="151.290064">
  <ele>343.1</ele>
  <time>2026-09-01T20:02:52Z</time>
  <course>270.0</course>
  <speed>0.0</speed>
  <fix>3d</fix>
</trkpt>
<trkpt lat="-27.274439" lon="151.290064">
  <ele>342.88</ele>
  <time>2026-09-01T20:02:52Z</time>
  <course>10.67</course>
  <speed>0.0</speed>
  <fix>3d</fix>
</trkpt>
<trkpt lat="-27.274439" lon="151.290064">
  <ele>343.1</ele>
  <time>2026-09-01T20:02:52Z</time>
  <course>270.0</course>
  <speed>0.0</speed>
  <fix>3d</fix>
</trkpt>
<trkpt lat="-27.274439" lon="151.290064">
  <ele>343.21</ele>
  <time>2026-09-01T20:02:52Z</time>
  <course>10.68</course>
  <speed>0.0</speed>
  <fix>3d</fix>
</trkpt>
<trkpt lat="-27.274439" lon="151.290064">
  <ele>343.1</ele>
  <time>2026-09-01T20:02:52Z</time>
  <course>270.0</course>
  <speed>0.0</speed>
  <fix>3d</fix>
</trkpt>
<trkpt lat="-27.274439" lon="151.290064">
  <ele>343.02</ele>
  <time>2026-09-01T20:02:52Z</time>
  <course>10.69</course>
  <speed>0.0</speed>
  <fix>3d</fix>
</trkpt>
<trkpt lat="-27.274439" lon="151.290064">
  <ele>343.1</ele>
  <time>2026-09-01T20:02:52Z</time>
  <course>270.0</course>
  <speed>0.0</speed>
  <fix>3d</fix>
</trkpt>
<trkpt lat="-27.274439" lon="151.290064">
  <ele>342.93</ele>
  <time>2026-09-01T20:02:52Z</time>
  <course>10.7</course>
  <speed>0.0</speed>
  <fix>3d</fix>
</trkpt>
<trkpt lat="-27.274439" lon="151.290064">
  <ele>343.1</ele>
  <time>2026-09-01T20:02:52Z</time>
  <course>270.0</course>
  <speed>0.0</speed>
  <fix>3d</fix>
</trkpt>
<trkpt lat="-27.274439" lon="151.290064">
  <ele>343.07</ele>
  <time>2026-09-01T20:02:52Z</time>
  <course>10.71</course>
  <speed>0.0</speed>
  <fix>3d</fix>
</trkpt>
<trkpt lat="-27.274439" lon="151.290064">
  <ele>343.1</ele>
  <time>2026-09-01T20:02:52Z</time>
  <course>270.0</course>
  <speed>0.0</speed>
  <fix>3d</fix>
</trkpt>
<trkpt lat="-27.274439" lon="151.290064">
  <ele>342.94</ele>
  <time>2026-09-01T20:02:52Z</time>
  <course>10.72</course>
  <speed>0.0</speed>
  <fix>3d</fix>
</trkpt>
<trkpt lat="-27.274439" lon="151.290064">
  <ele>343.1</ele>
  <time>2026-09-01T20:02:52Z</time>
  <course>270.0</course>
  <speed>0.0</speed>
  <fix>3d</fix>
</trkpt>
<trkpt lat="-27.274439" lon="151.290064">
  <ele>343.11</ele>
  <time>2026-09-01T20:02:52Z</time>
  <course>10.73</course>
  <speed>0.0</speed>
  <fix>3d</fix>
</trkpt>
<trkpt lat="-27.274439" lon="151.290064">
  <ele>343.1</ele>
  <time>2026-09-01T20:02:52Z</time>
  <course>270.0</course>
  <speed>0.0</speed>
  <fix>3d</fix>
</trkpt>
<trkpt lat="-27.274439" lon="151.290064">
  <ele>343.24</ele>
  <time>2026-09-01T20:02:52Z</time>
  <course>10.73</course>
  <speed>0.0</speed>
  <fix>3d</fix>
</trkpt>
<trkpt lat="-27.274439" lon="151.290064">
  <ele>343.1</ele>
  <time>2026-09-01T20:02:52Z</time>
  <course>270.0</course>
  <speed>0.0</speed>
  <fix>3d</fix>
</trkpt>
<trkpt lat="-27.274439" lon="151.290064">
  <ele>343.18</ele>
  <time>2026-09-01T20:02:52Z</time>
  <course>10.74</course>
  <speed>0.0</speed>
  <fix>3d</fix>
</trkpt>
<trkpt lat="-27.274439" lon="151.290064">
  <ele>343.1</ele>
  <time>2026-09-01T20:02:52Z</time>
  <course>270.0</course>
  <speed>0.0</speed>
  <fix>3d</fix>
</trkpt>
<trkpt lat="-27.274439" lon="151.290064">
  <ele>342.89</ele>
  <time>2026-09-01T20:02:52Z</time>
  <course>10.75</course>
  <speed>0.0</speed>
  <fix>3d</fix>
</trkpt>
<trkpt lat="-27.274439" lon="151.290064">
  <ele>343.1</ele>
  <time>2026-09-01T20:02:52Z</time>
  <course>270.0</course>
  <speed>0.0</speed>
  <fix>3d</fix>
</trkpt>
<trkpt lat="-27.274439" lon="151.290064">
  <ele>343.23</ele>
  <time>2026-09-01T20:02:52Z</time>
  <course>10.75</course>
  <speed>0.0</speed>
  <fix>3d</fix>
</trkpt>
<trkpt lat="-27.274439" lon="151.290064">
  <ele>343.1</ele>
  <time>2026-09-01T20:02:52Z</time>
  <course>270.0</course>
  <speed>0.0</speed>
  <fix>3d</fix>
</trkpt>
<trkpt lat="-27.274439" lon="151.290064">
  <ele>343.23</ele>
  <time>2026-09-01T20:02:52Z</time>
  <course>10.76</course>
  <speed>0.0</speed>
  <fix>3d</fix>
</trkpt>
<trkpt lat="-27.274439" lon="151.290064">
  <ele>343.1</ele>
  <time>2026-09-01T20:02:52Z</time>
  <course>270.0</course>
  <speed>0.0</speed>
  <fix>3d</fix>
</trkpt>
<trkpt lat="-27.274439" lon="151.290064">
  <ele>342.99</ele>
  <time>2026-09-01T20:02:52Z</time>
  <course>10.76</course>
  <speed>0.0</speed>
  <fix>3d</fix>
</trkpt>
<trkpt lat="-27.274439" lon="151.290064">
  <ele>343.1</ele>
  <time>2026-09-01T20:02:52Z</time>
  <course>270.0</course>
  <speed>0.0</speed>
  <fix>3d</fix>
</trkpt>
<trkpt lat="-27.274439" lon="151.290064">
  <ele>343.13</ele>
  <time>2026-09-01T20:02:52Z</time>
  <course>10.76</course>
  <speed>0.0</speed>
  <fix>3d</fix>
</trkpt>
<trkpt lat="-27.274439" lon="151.290064">
  <ele>343.1</ele>
  <time>2026-09-01T20:02:52Z</time>
  <course>270.0</course>
  <speed>0.0</speed>
  <fix>3d</fix>
</trkpt>
<trkpt lat="-27.274439" lon="151.290064">
  <ele>343.07</ele>
  <time>2026-09-01T20:02:52Z</time>
  <course>10.77</course>
  <speed>0.0</speed>
  <fix>3d</fix>
</trkpt>
<trkpt lat="-27.274439" lon="151.290064">
  <ele>343.1</ele>
  <time>2026-09-01T20:02:52Z</time>
  <course>270.0</course>
  <speed>0.0</speed>
  <fix>3d</fix>
</trkpt>
<trkpt lat="-27.274439" lon="151.290064">
  <ele>343.19</ele>
  <time>2026-09-01T20:02:52Z</time>
  <course>10.77</course>
  <speed>0.0</speed>
  <fix>3d</fix>
</trkpt>
<trkpt lat="-27.274439" lon="151.290064">
  <ele>343.1</ele>
  <time>2026-09-01T20:02:52Z</time>
  <course>270.0</course>
  <speed>0.0</speed>
  <fix>3d</fix>
</trkpt>
<trkpt lat="-27.274439" lon="151.290064">
  <ele>342.93</ele>
  <time>2026-09-01T20:02:52Z</time>
  <course>10.77</course>
  <speed>0.0</speed>
  <fix>3d</fix>
</trkpt>
<trkpt lat="-27.274439" lon="151.290064">
  <ele>343.1</ele>
  <time>2026-09-01T20:02:52Z</time>
  <course>270.0</course>
  <speed>0.0</speed>
  <fix>3d</fix>
</trkpt>
<trkpt lat="-27.274439" lon="151.290064">
  <ele>343.19</ele>
  <time>2026-09-01T20:02:52Z</time>
  <course>10.78</course>
  <speed>0.0</speed>
  <fix>3d</fix>
</trkpt>
<trkpt lat="-27.274439" lon="151.290064">
  <ele>343.1</ele>
  <time>2026-09-01T20:02:52Z</time>
  <course>270.0</course>
  <speed>0.0</speed>
  <fix>3d</fix>
</trkpt>
<trkpt lat="-27.274439" lon="151.290064">
  <ele>343.1</ele>
  <time>2026-09-01T20:02:52Z</time>
  <course>10.78</course>
  <speed>0.0</speed>
  <fix>3d</fix>
</trkpt>
<trkpt lat="-27.274439" lon="151.290064">
  <ele>343.1</ele>
  <time>2026-09-01T20:02:52Z</time>
  <course>270.0</course>
  <speed>0.0</speed>
  <fix>3d</fix>
</trkpt>
<trkpt lat="-27.274439" lon="151.290064">
  <ele>343.01</ele>
  <time>2026-09-01T20:02:52Z</time>
  <course>10.78</course>
  <speed>0.0</speed>
  <fix>3d</fix>
</trkpt>
<trkpt lat="-27.274439" lon="151.290064">
  <ele>343.1</ele>
  <time>2026-09-01T20:02:52Z</time>
  <course>270.0</course>
  <speed>0.0</speed>
  <fix>3d</fix>
</trkpt>
<trkpt lat="-27.274439" lon="151.290064">
  <ele>343.11</ele>
  <time>2026-09-01T20:02:52Z</time>
  <course>10.78</course>
  <speed>0.0</speed>
  <fix>3d</fix>
</trkpt>
<trkpt lat="-27.274439" lon="151.290064">
  <ele>343.1</ele>
  <time>2026-09-01T20:02:52Z</time>
  <course>270.0</course>
  <speed>0.0</speed>
  <fix>3d</fix>
</trkpt>
<trkpt lat="-27.274439" lon="151.290064">
  <ele>342.96</ele>
  <time>2026-09-01T20:02:52Z</time>
  <course>10.78</course>
  <speed>0.0</speed>
  <fix>3d</fix>
</trkpt>
<trkpt lat="-27.274439" lon="151.290064">
  <ele>343.1</ele>
  <time>2026-09-01T20:02:52Z</time>
  <course>270.0</course>
  <speed>0.0</speed>
  <fix>3d</fix>
</trkpt>
<trkpt lat="-27.274439" lon="151.290064">
  <ele>343.19</ele>
  <time>2026-09-01T20:02:52Z</time>
  <course>10.79</course>
  <speed>0.0</speed>
  <fix>3d</fix>
</trkpt>
<trkpt lat="-27.274439" lon="151.290064">
  <ele>343.1</ele>
  <time>2026-09-01T20:02:52Z</time>
  <course>270.0</course>
  <speed>0.0</speed>
  <fix>3d</fix>
</trkpt>
<trkpt lat="-27.274439" lon="151.290064">
  <ele>343.0</ele>
  <time>2026-09-01T20:02:52Z</time>
  <course>10.79</course>
  <speed>0.0</speed>
  <fix>3d</fix>
</trkpt>
<trkpt lat="-27.274439" lon="151.290064">
  <ele>343.1</ele>
  <time>2026-09-01T20:02:52Z</time>
  <course>270.0</course>
  <speed>0.0</speed>
  <fix>3d</fix>
</trkpt>
<trkpt lat="-27.274439" lon="151.290064">
  <ele>343.2</ele>
  <time>2026-09-01T20:02:52Z</time>
  <course>10.79</course>
  <speed>0.0</speed>
  <fix>3d</fix>
</trkpt>
<trkpt lat="-27.274439" lon="151.290064">
  <ele>343.1</ele>
  <time>2026-09-01T20:02:52Z</time>
  <course>270.0</course>
  <speed>0.0</speed>
  <fix>3d</fix>
</trkpt>
<trkpt lat="-27.274439" lon="151.290064">
  <ele>343.2</ele>
  <time>2026-09-01T20:02:52Z</time>
  <course>10.79</course>
  <speed>0.0</speed>
  <fix>3d</fix>
</trkpt>
<trkpt lat="-27.274439" lon="151.290064">
  <ele>343.1</ele>
  <time>2026-09-01T20:02:52Z</time>
  <course>270.0</course>
  <speed>0.0</speed>
  <fix>3d</fix>
</trkpt>
<trkpt lat="-27.274439" lon="151.290064">
  <ele>343.13</ele>
  <time>2026-09-01T20:02:52Z</time>
  <course>10.79</course>
  <speed>0.0</speed>
  <fix>3d</fix>
</trkpt>
<trkpt lat="-27.274439" lon="151.290064">
  <ele>343.1</ele>
  <time>2026-09-01T20:02:52Z</time>
  <course>270.0</course>
  <speed>0.0</speed>
  <fix>3d</fix>
</trkpt>
<trkpt lat="-27.274439" lon="151.290064">
  <ele>343.1</ele>
  <time>2026-09-01T20:02:52Z</time>
  <course>10.79</course>
  <speed>0.0</speed>
  <fix>3d</fix>
</trkpt>
<trkpt lat="-27.274439" lon="151.290064">
  <ele>343.1</ele>
  <time>2026-09-01T20:02:52Z</time>
  <course>270.0</course>
  <speed>0.0</speed>
  <fix>3d</fix>
</trkpt>
<trkpt lat="-27.274439" lon="151.290064">
  <ele>343.12</ele>
  <time>2026-09-01T20:02:52Z</time>
  <course>10.79</course>
  <speed>0.0</speed>
  <fix>3d</fix>
</trkpt>
<trkpt lat="-27.274439" lon="151.290064">
  <ele>343.1</ele>
  <time>2026-09-01T20:02:52Z</time>
  <course>270.0</course>
  <speed>0.0</speed>
  <fix>3d</fix>
</trkpt>
<trkpt lat="-27.274439" lon="151.290064">
  <ele>342.94</ele>
  <time>2026-09-01T20:02:52Z</time>
  <course>10.79</course>
  <speed>0.0</speed>
  <fix>3d</fix>
</trkpt>
<trkpt lat="-27.274439" lon="151.290064">
  <ele>343.1</ele>
  <time>2026-09-01T20:02:52Z</time>
  <course>270.0</course>
  <speed>0.0</speed>
  <fix>3d</fix>
</trkpt>
<trkpt lat="-27.274439" lon="151.290064">
  <ele>343.25</ele>
  <time>2026-09-01T20:02:52Z</time>
  <course>10.79</course>
  <speed>0.0</speed>
  <fix>3d</fix>
</trkpt>
<trkpt lat="-27.274439" lon="151.290064">
  <ele>343.1</ele>
  <time>2026-09-01T20:02:52Z</time>
  <course>270.0</course>
  <speed>0.0</speed>
  <fix>3d</fix>
</trkpt>
<trkpt lat="-27.274439" lon="151.290064">
  <ele>342.93</ele>
  <time>2026-09-01T20:02:52Z</time>
  <course>10.79</course>
  <speed>0.0</speed>
  <fix>3d</fix>
</trkpt>
<trkpt lat="-27.274439" lon="151.290064">
  <ele>343.1</ele>
  <time>2026-09-01T20:02:52Z</time>
  <course>270.0</course>
  <speed>0.0</speed>
  <fix>3d</fix>
</trkpt>
<trkpt lat="-27.274439" lon="151.290064">
  <ele>343.08</ele>
  <time>2026-09-01T20:02:52Z</time>
  <course>10.79</course>
  <speed>0.0</speed>
  <fix>3d</fix>
</trkpt>
<trkpt lat="-27.274439" lon="151.290064">
  <ele>343.1</ele>
  <time>2026-09-01T20:02:52Z</time>
  <course>270.0</course>
  <speed>0.0</speed>
  <fix>3d</fix>
</trkpt>
<trkpt lat="-27.274439" lon="151.290064">
  <ele>343.23</ele>
  <time>2026-09-01T20:02:52Z</time>
  <course>10.8</course>
  <speed>0.0</speed>
  <fix>3d</fix>
</trkpt>
<trkpt lat="-27.274439" lon="151.290064">
  <ele>343.1</ele>
  <time>2026-09-01T20:02:52Z</time>
  <course>270.0</course>
  <speed>0.0</speed>
  <fix>3d</fix>
</trkpt>
<trkpt lat="-27.274439" lon="151.290064">
  <ele>343.01</ele>
  <time>2026-09-01T20:02:52Z</time>
  <course>10.8</course>
  <speed>0.0</speed>
  <fix>3d</fix>
</trkpt>
<trkpt lat="-27.274439" lon="151.290064">
  <ele>343.1</ele>
  <time>2026-09-01T20:02:52Z</time>
  <course>270.0</course>
  <speed>0.0</speed>
  <fix>3d</fix>
</trkpt>
<trkpt lat="-27.274439" lon="151.290064">
  <ele>343.1</ele>
  <time>2026-09-01T20:02:52Z</time>
  <course>10.8</course>
  <speed>0.0</speed>
  <fix>3d</fix>
</trkpt>
<trkpt lat="-27.274439" lon="151.290064">
  <ele>343.1</ele>
  <time>2026-09-01T20:02:52Z</time>
  <course>270.0</course>
  <speed>0.0</speed>
  <fix>3d</fix>
</trkpt>
<trkpt lat="-27.274439" lon="151.290064">
  <ele>342.99</ele>
  <time>2026-09-01T20:02:52Z</time>
  <course>10.8</course>
  <speed>0.0</speed>
  <fix>3d</fix>
</trkpt>
<trkpt lat="-27.274439" lon="151.290064">
  <ele>343.1</ele>
  <time>2026-09-01T20:02:52Z</time>
  <course>270.0</course>
  <speed>0.0</speed>
  <fix>3d</fix>
</trkpt>
<trkpt lat="-27.274439" lon="151.290064">
  <ele>342.87</ele>
  <time>2026-09-01T20:02:52Z</time>
  <course>10.8</course>
  <speed>0.0</speed>
  <fix>3d</fix>
</trkpt>
<trkpt lat="-27.274439" lon="151.290064">
  <ele>343.1</ele>
  <time>2026-09-01T20:02:52Z</time>
  <course>270.0</course>
  <speed>0.0</speed>
  <fix>3d</fix>
</trkpt>
<trkpt lat="-27.274439" lon="151.290064">
  <ele>343.1</ele>
  <time>2026-09-01T20:02:52Z</time>
  <course>10.8</course>
  <speed>0.0</speed>
  <fix>3d</fix>
</trkpt>
<trkpt lat="-27.274439" lon="151.290064">
  <ele>343.1</ele>
  <time>2026-09-01T20:02:52Z</time>
  <course>270.0</course>
  <speed>0.0</speed>
  <fix>3d</fix>
</trkpt>
<trkpt lat="-27.274439" lon="151.290064">
  <ele>342.99</ele>
  <time>2026-09-01T20:02:52Z</time>
  <course>10.8</course>
  <speed>0.0</speed>
  <fix>3d</fix>
</trkpt>
<trkpt lat="-27.274439" lon="151.290064">
  <ele>343.1</ele>
  <time>2026-09-01T20:02:52Z</time>
  <course>270.0</course>
  <speed>0.0</speed>
  <fix>3d</fix>
</trkpt>
<trkpt lat="-27.274439" lon="151.290064">
  <ele>342.91</ele>
  <time>2026-09-01T20:02:52Z</time>
  <course>10.8</course>
  <speed>0.0</speed>
  <fix>3d</fix>
</trkpt>
<trkpt lat="-27.274439" lon="151.290064">
  <ele>343.1</ele>
  <time>2026-09-01T20:02:52Z</time>
  <course>270.0</course>
  <speed>0.0</speed>
  <fix>3d</fix>
</trkpt>
<trkpt lat="-27.274439" lon="151.290064">
  <ele>342.9</ele>
  <time>2026-09-01T20:02:52Z</time>
  <course>10.8</course>
  <speed>0.0</speed>
  <fix>3d</fix>
</trkpt>
<trkpt lat="-27.274439" lon="151.290064">
  <ele>343.1</ele>
  <time>2026-09-01T20:02:52Z</time>
  <course>270.0</course>
  <speed>0.0</speed>
  <fix>3d</fix>
</trkpt>
<trkpt lat="-27.274439" lon="151.290064">
  <ele>342.87</ele>
  <time>2026-09-01T20:02:52Z</time>
  <course>10.8</course>
  <speed>0.0</speed>
  <fix>3d</fix>
</trkpt>
<trkpt lat="-27.274439" lon="151.290064">
  <ele>343.1</ele>
  <time>2026-09-01T20:02:52Z</time>
  <course>270.0</course>
  <speed>0.0</speed>
  <fix>3d</fix>
</trkpt>
<trkpt lat="-27.274439" lon="151.290064">
  <ele>343.12</ele>
  <time>2026-09-01T20:02:52Z</time>
  <course>10.8</course>
  <speed>0.0</speed>
  <fix>3d</fix>
</trkpt>
<trkpt lat="-27.274439" lon="151.290064">
  <ele>343.1</ele>
  <time>2026-09-01T20:02:52Z</time>
  <course>270.0</course>
  <speed>0.0</speed>
  <fix>3d</fix>
</trkpt>
<trkpt lat="-27.274439" lon="151.290064">
  <ele>342.99</ele>
  <time>2026-09-01T20:02:52Z</time>
  <course>10.8</course>
  <speed>0.0</speed>
  <fix>3d</fix>
</trkpt>
<trkpt lat="-27.274439" lon="151.290064">
  <ele>343.1</ele>
  <time>2026-09-01T20:02:52Z</time>
  <course>270.0</course>
  <speed>0.0</speed>
  <fix>3d</fix>
</trkpt>
<trkpt lat="-27.274439" lon="151.290064">
  <ele>343.13</ele>
  <time>2026-09-01T20:02:52Z</time>
  <course>10.8</course>
  <speed>0.0</speed>
  <fix>3d</fix>
</trkpt>
<trkpt lat="-27.274439" lon="151.290064">
  <ele>343.1</ele>
  <time>2026-09-01T20:02:52Z</time>
  <course>270.0</course>
  <speed>0.0</speed>
  <fix>3d</fix>
</trkpt>
<trkpt lat="-27.274439" lon="151.290064">
  <ele>343.0</ele>
  <time>2026-09-01T20:02:52Z</time>
  <course>10.8</course>
  <speed>0.0</speed>
  <fix>3d</fix>
</trkpt>
<trkpt lat="-27.274439" lon="151.290064">
  <ele>343.1</ele>
  <time>2026-09-01T20:02:52Z</time>
  <course>270.0</course>
  <speed>0.0</speed>
  <fix>3d</fix>
</trkpt>
<trkpt lat="-27.274439" lon="151.290064">
  <ele>343.17</ele>
  <time>2026-09-01T20:02:52Z</time>
  <course>10.8</course>
  <speed>0.0</speed>
  <fix>3d</fix>
</trkpt>
<trkpt lat="-27.274439" lon="151.290064">
  <ele>343.1</ele>
  <time>2026-09-01T20:02:52Z</time>
  <course>270.0</course>
  <speed>0.0</speed>
  <fix>3d</fix>
</trkpt>
<trkpt lat="-27.274439" lon="151.290064">
  <ele>343.0</ele>
  <time>2026-09-01T20:02:52Z</time>
  <course>10.8</course>
  <speed>0.0</speed>
  <fix>3d</fix>
</trkpt>
<trkpt lat="-27.274439" lon="151.290064">
  <ele>343.1</ele>
  <time>2026-09-01T20:02:52Z</time>
  <course>270.0</course>
  <speed>0.0</speed>
  <fix>3d</fix>
</trkpt>
<trkpt lat="-27.274439" lon="151.290064">
  <ele>342.99</ele>
  <time>2026-09-01T20:02:52Z</time>
  <course>10.8</course>
  <speed>0.0</speed>
  <fix>3d</fix>
</trkpt>
<trkpt lat="-27.274439" lon="151.290064">
  <ele>343.1</ele>
  <time>2026-09-01T20:02:52Z</time>
  <course>270.0</course>
  <speed>0.0</speed>
  <fix>3d</fix>
</trkpt>
<trkpt lat="-27.274439" lon="151.290064">
  <ele>343.17</ele>
  <time>2026-09-01T20:02:52Z</time>
  <course>10.8</course>
  <speed>0.0</speed>
  <fix>3d</fix>
</trkpt>
<trkpt lat="-27.274439" lon="151.290064">
  <ele>343.1</ele>
  <time>2026-09-01T20:02:52Z</time>
  <course>270.0</course>
  <speed>0.0</speed>
  <fix>3d</fix>
</trkpt>
<trkpt lat="-27.274439" lon="151.290064">
  <ele>343.16</ele>
  <time>2026-09-01T20:02:52Z</time>
  <course>10.8</course>
  <speed>0.0</speed>
  <fix>3d</fix>
</trkpt>
<trkpt lat="-27.274439" lon="151.290064">
  <ele>343.1</ele>
  <time>2026-09-01T20:02:52Z</time>
  <course>270.0</course>
  <speed>0.0</speed>
  <fix>3d</fix>
</trkpt>
<trkpt lat="-27.274439" lon="151.290064">
  <ele>342.87</ele>
  <time>2026-09-01T20:02:52Z</time>
  <course>10.8</course>
  <speed>0.0</speed>
  <fix>3d</fix>
</trkpt>
<trkpt lat="-27.274439" lon="151.290064">
  <ele>343.1</ele>
  <time>2026-09-01T20:02:52Z</time>
  <course>270.0</course>
  <speed>0.0</speed>
  <fix>3d</fix>
</trkpt>
<trkpt lat="-27.274439" lon="151.290064">
  <ele>343.19</ele>
  <time>2026-09-01T20:02:52Z</time>
  <course>10.8</course>
  <speed>0.0</speed>
  <fix>3d</fix>
</trkpt>
<trkpt lat="-27.274439" lon="151.290064">
  <ele>343.1</ele>
  <time>2026-09-01T20:02:52Z</time>
  <course>270.0</course>
  <speed>0.0</speed>
  <fix>3d</fix>
</trkpt>
<trkpt lat="-27.274439" lon="151.290064">
  <ele>343.16</ele>
  <time>2026-09-01T20:02:52Z</time>
  <course>10.8</course>
  <speed>0.0</speed>
  <fix>3d</fix>
</trkpt>
<trkpt lat="-27.274439" lon="151.290064">
  <ele>343.1</ele>
  <time>2026-09-01T20:02:52Z</time>
  <course>270.0</course>
  <speed>0.0</speed>
  <fix>3d</fix>
</trkpt>
<trkpt lat="-27.274439" lon="151.290064">
  <ele>343.21</ele>
  <time>2026-09-01T20:02:52Z</time>
  <course>10.8</course>
  <speed>0.0</speed>
  <fix>3d</fix>
</trkpt>
<trkpt lat="-27.274439" lon="151.290064">
  <ele>343.1</ele>
  <time>2026-09-01T20:02:52Z</time>
  <course>270.0</course>
  <speed>0.0</speed>
  <fix>3d</fix>
</trkpt>
<trkpt lat="-27.274439" lon="151.290064">
  <ele>343.22</ele>
  <time>2026-09-01T20:02:52Z</time>
  <course>10.8</course>
  <speed>0.0</speed>
  <fix>3d</fix>
</trkpt>
<trkpt lat="-27.274439" lon="151.290064">
  <ele>343.1</ele>
  <time>2026-09-01T20:02:52Z</time>
  <course>270.0</course>
  <speed>0.0</speed>
  <fix>3d</fix>
</trkpt>
<trkpt lat="-27.274439" lon="151.290064">
  <ele>343.24</ele>
  <time>2026-09-01T20:02:52Z</time>
  <course>10.8</course>
  <speed>0.0</speed>
  <fix>3d</fix>
</trkpt>
<trkpt lat="-27.274439" lon="151.290064">
  <ele>343.1</ele>
  <time>2026-09-01T20:02:52Z</time>
  <course>270.0</course>
  <speed>0.0</speed>
  <fix>3d</fix>
</trkpt>
<trkpt lat="-27.274439" lon="151.290064">
  <ele>343.0</ele>
  <time>2026-09-01T20:02:52Z</time>
  <course>10.8</course>
  <speed>0.0</speed>
  <fix>3d</fix>
</trkpt>
<trkpt lat="-27.274439" lon="151.290064">
  <ele>343.1</ele>
  <time>2026-09-01T20:02:52Z</time>
  <course>270.0</course>
  <speed>0.0</speed>
  <fix>3d</fix>
</trkpt>
<trkpt lat="-27.274439" lon="151.290064">
  <ele>343.1</ele>
  <time>2026-09-01T20:02:52Z</time>
  <course>10.8</course>
  <speed>0.0</speed>
  <fix>3d</fix>
</trkpt>
<trkpt lat="-27.274439" lon="151.290064">
  <ele>343.1</ele>
  <time>2026-09-01T20:02:52Z</time>
  <course>270.0</course>
  <speed>0.0</speed>
  <fix>3d</fix>
</trkpt>
<trkpt lat="-27.274439" lon="151.290064">
  <ele>343.05</ele>
  <time>2026-09-01T20:02:52Z</time>
  <course>10.8</course>
  <speed>0.0</speed>
  <fix>3d</fix>
</trkpt>
<trkpt lat="-27.274439" lon="151.290064">
  <ele>343.1</ele>
  <time>2026-09-01T20:02:52Z</time>
  <course>270.0</course>
  <speed>0.0</speed>
  <fix>3d</fix>
</trkpt>
<trkpt lat="-27.274439" lon="151.290064">
  <ele>342.87</ele>
  <time>2026-09-01T20:02:52Z</time>
  <course>10.8</course>
  <speed>0.0</speed>
  <fix>3d</fix>
</trkpt>
<trkpt lat="-27.274439" lon="151.290064">
  <ele>343.1</ele>
  <time>2026-09-01T20:02:52Z</time>
  <course>270.0</course>
  <speed>0.0</speed>
  <fix>3d</fix>
</trkpt>
<trkpt lat="-27.274439" lon="151.290064">
  <ele>342.92</ele>
  <time>2026-09-01T20:02:52Z</time>
  <course>10.8</course>
  <speed>0.0</speed>
  <fix>3d</fix>
</trkpt>
<trkpt lat="-27.274439" lon="151.290064">
  <ele>343.1</ele>
  <time>2026-09-01T20:02:52Z</time>
  <course>270.0</course>
  <speed>0.0</speed>
  <fix>3d</fix>
</trkpt>
<trkpt lat="-27.274439" lon="151.290064">
  <ele>342.96</ele>
  <time>2026-09-01T20:02:52Z</time>
  <course>10.8</course>
  <speed>0.0</speed>
  <fix>3d</fix>
</trkpt>
<trkpt lat="-27.274439" lon="151.290064">
  <ele>343.1</ele>
  <time>2026-09-01T20:02:52Z</time>
  <course>270.0</course>
  <speed>0.0</speed>
  <fix>3d</fix>
</trkpt>
<trkpt lat="-27.274439" lon="151.290064">
  <ele>343.15</ele>
  <time>2026-09-01T20:02:52Z</time>
  <course>10.8</course>
  <speed>0.0</speed>
  <fix>3d</fix>
</trkpt>
<trkpt lat="-27.274439" lon="151.290064">
  <ele>343.1</ele>
  <time>2026-09-01T20:02:52Z</time>
  <course>270.0</course>
  <speed>0.0</speed>
  <fix>3d</fix>
</trkpt>
<trkpt lat="-27.274439" lon="151.290064">
  <ele>343.16</ele>
  <time>2026-09-01T20:02:52Z</time>
  <course>10.8</course>
  <speed>0.0</speed>
  <fix>3d</fix>
</trkpt>
<trkpt lat="-27.274439" lon="151.290064">
  <ele>343.1</ele>
  <time>2026-09-01T20:02:52Z</time>
  <course>270.0</course>
  <speed>0.0</speed>
  <fix>3d</fix>
</trkpt>
<trkpt lat="-27.274439" lon="151.290064">
  <ele>343.2</ele>
  <time>2026-09-01T20:02:52Z</time>
  <course>10.81</course>
  <speed>0.0</speed>
  <fix>3d</fix>
</trkpt>
<trkpt lat="-27.274439" lon="151.290064">
  <ele>343.1</ele>
  <time>2026-09-01T20:02:52Z</time>
  <course>270.0</course>
  <speed>0.0</speed>
  <fix>3d</fix>
</trkpt>
<trkpt lat="-27.274439" lon="151.290064">
  <ele>343.13</ele>
  <time>2026-09-01T20:02:52Z</time>
  <course>10.82</course>
  <speed>0.0</speed>
  <fix>3d</fix>
</trkpt>
<trkpt lat="-27.274439" lon="151.290064">
  <ele>343.1</ele>
  <time>2026-09-01T20:02:52Z</time>
  <course>270.0</course>
  <speed>0.0</speed>
  <fix>3d</fix>
</trkpt>
<trkpt lat="-27.274439" lon="151.290064">
  <ele>343.09</ele>
  <time>2026-09-01T20:02:52Z</time>
  <course>10.71</course>
  <speed>0.0</speed>
  <fix>3d</fix>
</trkpt>
<trkpt lat="-27.274439" lon="151.290064">
  <ele>343.1</ele>
  <time>2026-09-01T20:02:52Z</time>
  <course>270.0</course>
  <speed>0.0</speed>
  <fix>3d</fix>
</trkpt>
<trkpt lat="-27.274439" lon="151.290064">
  <ele>343.09</ele>
  <time>2026-09-01T20:02:52Z</time>
  <course>10.71</course>
  <speed>0.0</speed>
  <fix>3d</fix>
</trkpt>
<trkpt lat="-27.274439" lon="151.290064">
  <ele>343.1</ele>
  <time>2026-09-01T20:02:52Z</time>
  <course>270.0</course>
  <speed>0.0</speed>
  <fix>3d</fix>
</trkpt>
<trkpt lat="-27.274439" lon="151.290064">
  <ele>343.1</ele>
  <time>2026-09-01T20:02:52Z</time>
  <course>10.71</course>
  <speed>0.0</speed>
  <fix>3d</fix>
</trkpt>
<trkpt lat="-27.274439" lon="151.290064">
  <ele>343.1</ele>
  <time>2026-09-01T20:02:52Z</time>
  <course>270.0</course>
  <speed>0.0</speed>
  <fix>3d</fix>
</trkpt>
<trkpt lat="-27.274439" lon="151.290064">
  <ele>343.1</ele>
  <time>2026-09-01T20:02:52Z</time>
  <course>10.71</course>
  <speed>0.0</speed>
  <fix>3d</fix>
</trkpt>
<trkpt lat="-27.274439" lon="151.290064">
  <ele>343.1</ele>
  <time>2026-09-01T20:02:52Z</time>
  <course>270.0</course>
  <speed>0.0</speed>
  <fix>3d</fix>
</trkpt>
<trkpt lat="-27.274439" lon="151.290064">
  <ele>343.1</ele>
  <time>2026-09-01T20:02:52Z</time>
  <course>10.71</course>
  <speed>0.0</speed>
  <fix>3d</fix>
</trkpt>
<trkpt lat="-27.274439" lon="151.290064">
  <ele>343.1</ele>
  <time>2026-09-01T20:02:52Z</time>
  <course>270.0</course>
  <speed>0.0</speed>
  <fix>3d</fix>
</trkpt>
<trkpt lat="-27.274439" lon="151.290064">
  <ele>343.1</ele>
  <time>2026-09-01T20:02:52Z</time>
  <course>10.71</course>
  <speed>0.0</speed>
  <fix>3d</fix>
</trkpt>
<trkpt lat="-27.274439" lon="151.290064">
  <ele>343.1</ele>
  <time>2026-09-01T20:02:52Z</time>
  <course>270.0</course>
  <speed>0.0</speed>
  <fix>3d</fix>
</trkpt>
<trkpt lat="-27.274439" lon="151.290064">
  <ele>343.1</ele>
  <time>2026-09-01T20:02:52Z</time>
  <course>10.71</course>
  <speed>0.0</speed>
  <fix>3d</fix>
</trkpt>
<trkpt lat="-27.274439" lon="151.290064">
  <ele>343.1</ele>
  <time>2026-09-01T20:02:52Z</time>
  <course>270.0</course>
  <speed>0.0</speed>
  <fix>3d</fix>
</trkpt>
<trkpt lat="-27.274439" lon="151.290064">
  <ele>343.11</ele>
  <time>2026-09-01T20:02:52Z</time>
  <course>10.71</course>
  <speed>0.0</speed>
  <fix>3d</fix>
</trkpt>
<trkpt lat="-27.274439" lon="151.290064">
  <ele>343.1</ele>
  <time>2026-09-01T20:02:52Z</time>
  <course>270.0</course>
  <speed>0.0</speed>
  <fix>3d</fix>
</trkpt>
<trkpt lat="-27.274439" lon="151.290064">
  <ele>343.11</ele>
  <time>2026-09-01T20:02:53Z</time>
  <course>10.71</course>
  <speed>0.0</speed>
  <fix>3d</fix>
</trkpt>
<trkpt lat="-27.274439" lon="151.290064">
  <ele>343.1</ele>
  <time>2026-09-01T20:02:53Z</time>
  <course>270.0</course>
  <speed>0.0</speed>
  <fix>3d</fix>
</trkpt>
<trkpt lat="-27.274439" lon="151.290064">
  <ele>343.11</ele>
  <time>2026-09-01T20:02:53Z</time>
  <course>10.71</course>
  <speed>0.0</speed>
  <fix>3d</fix>
</trkpt>
<trkpt lat="-27.274439" lon="151.290064">
  <ele>343.1</ele>
  <time>2026-09-01T20:02:53Z</time>
  <course>270.0</course>
  <speed>0.0</speed>
  <fix>3d</fix>
</trkpt>
<trkpt lat="-27.274439" lon="151.290064">
  <ele>343.12</ele>
  <time>2026-09-01T20:02:53Z</time>
  <course>10.71</course>
  <speed>0.0</speed>
  <fix>3d</fix>
</trkpt>
<trkpt lat="-27.274439" lon="151.290064">
  <ele>343.1</ele>
  <time>2026-09-01T20:02:53Z</time>
  <course>270.0</course>
  <speed>0.0</speed>
  <fix>3d</fix>
</trkpt>
<trkpt lat="-27.274439" lon="151.290064">
  <ele>343.12</ele>
  <time>2026-09-01T20:02:53Z</time>
  <course>10.71</course>
  <speed>0.0</speed>
  <fix>3d</fix>
</trkpt>
<trkpt lat="-27.274439" lon="151.290064">
  <ele>343.1</ele>
  <time>2026-09-01T20:02:53Z</time>
  <course>270.0</course>
  <speed>0.0</speed>
  <fix>3d</fix>
</trkpt>
<trkpt lat="-27.274439" lon="151.290064">
  <ele>343.1</ele>
  <time>2026-09-01T20:02:53Z</time>
  <course>10.71</course>
  <speed>0.0</speed>
  <fix>3d</fix>
</trkpt>
<trkpt lat="-27.274439" lon="151.290064">
  <ele>343.1</ele>
  <time>2026-09-01T20:02:53Z</time>
  <course>270.0</course>
  <speed>0.0</speed>
  <fix>3d</fix>
</trkpt>
<trkpt lat="-27.274439" lon="151.290064">
  <ele>343.1</ele>
  <time>2026-09-01T20:02:53Z</time>
  <course>10.71</course>
  <speed>0.0</speed>
  <fix>3d</fix>
</trkpt>
<trkpt lat="-27.274439" lon="151.290064">
  <ele>343.1</ele>
  <time>2026-09-01T20:02:53Z</time>
  <course>270.0</course>
  <speed>0.0</speed>
  <fix>3d</fix>
</trkpt>
<trkpt lat="-27.274439" lon="151.290064">
  <ele>343.1</ele>
  <time>2026-09-01T20:02:53Z</time>
  <course>10.71</course>
  <speed>0.0</speed>
  <fix>3d</fix>
</trkpt>
<trkpt lat="-27.274439" lon="151.290064">
  <ele>343.1</ele>
  <time>2026-09-01T20:02:53Z</time>
  <course>270.0</course>
  <speed>0.0</speed>
  <fix>3d</fix>
</trkpt>
<trkpt lat="-27.274439" lon="151.290064">
  <ele>343.09</ele>
  <time>2026-09-01T20:02:53Z</time>
  <course>10.71</course>
  <speed>0.0</speed>
  <fix>3d</fix>
</trkpt>
<trkpt lat="-27.274439" lon="151.290064">
  <ele>343.1</ele>
  <time>2026-09-01T20:02:53Z</time>
  <course>270.0</course>
  <speed>0.0</speed>
  <fix>3d</fix>
</trkpt>
<trkpt lat="-27.274439" lon="151.290064">
  <ele>343.09</ele>
  <time>2026-09-01T20:02:53Z</time>
  <course>10.71</course>
  <speed>0.0</speed>
  <fix>3d</fix>
</trkpt>
<trkpt lat="-27.274439" lon="151.290064">
  <ele>343.1</ele>
  <time>2026-09-01T20:02:53Z</time>
  <course>270.0</course>
  <speed>0.0</speed>
  <fix>3d</fix>
</trkpt>
<trkpt lat="-27.274439" lon="151.290064">
  <ele>343.09</ele>
  <time>2026-09-01T20:02:53Z</time>
  <course>10.71</course>
  <speed>0.0</speed>
  <fix>3d</fix>
</trkpt>
<trkpt lat="-27.274439" lon="151.290064">
  <ele>343.1</ele>
  <time>2026-09-01T20:02:53Z</time>
  <course>270.0</course>
  <speed>0.0</speed>
  <fix>3d</fix>
</trkpt>
<trkpt lat="-27.274439" lon="151.290064">
  <ele>343.1</ele>
  <time>2026-09-01T20:02:53Z</time>
  <course>10.71</course>
  <speed>0.0</speed>
  <fix>3d</fix>
</trkpt>
<trkpt lat="-27.274439" lon="151.290064">
  <ele>343.1</ele>
  <time>2026-09-01T20:02:53Z</time>
  <course>270.0</course>
  <speed>0.0</speed>
  <fix>3d</fix>
</trkpt>
<trkpt lat="-27.274439" lon="151.290064">
  <ele>343.1</ele>
  <time>2026-09-01T20:02:53Z</time>
  <course>10.71</course>
  <speed>0.0</speed>
  <fix>3d</fix>
</trkpt>
<trkpt lat="-27.274439" lon="151.290064">
  <ele>343.1</ele>
  <time>2026-09-01T20:02:53Z</time>
  <course>270.0</course>
  <speed>0.0</speed>
  <fix>3d</fix>
</trkpt>
<trkpt lat="-27.274439" lon="151.290064">
  <ele>343.09</ele>
  <time>2026-09-01T20:02:53Z</time>
  <course>10.71</course>
  <speed>0.0</speed>
  <fix>3d</fix>
</trkpt>
<trkpt lat="-27.274439" lon="151.290064">
  <ele>343.1</ele>
  <time>2026-09-01T20:02:53Z</time>
  <course>270.0</course>
  <speed>0.0</speed>
  <fix>3d</fix>
</trkpt>
<trkpt lat="-27.274439" lon="151.290064">
  <ele>343.09</ele>
  <time>2026-09-01T20:02:53Z</time>
  <course>10.71</course>
  <speed>0.0</speed>
  <fix>3d</fix>
</trkpt>
<trkpt lat="-27.274439" lon="151.290064">
  <ele>343.1</ele>
  <time>2026-09-01T20:02:53Z</time>
  <course>270.0</course>
  <speed>0.0</speed>
  <fix>3d</fix>
</trkpt>
<trkpt lat="-27.274439" lon="151.290064">
  <ele>343.09</ele>
  <time>2026-09-01T20:02:53Z</time>
  <course>10.71</course>
  <speed>0.0</speed>
  <fix>3d</fix>
</trkpt>
<trkpt lat="-27.274439" lon="151.290064">
  <ele>343.1</ele>
  <time>2026-09-01T20:02:53Z</time>
  <course>270.0</course>
  <speed>0.0</speed>
  <fix>3d</fix>
</trkpt>
<trkpt lat="-27.274439" lon="151.290064">
  <ele>343.09</ele>
  <time>2026-09-01T20:02:53Z</time>
  <course>10.71</course>
  <speed>0.0</speed>
  <fix>3d</fix>
</trkpt>
<trkpt lat="-27.274439" lon="151.290064">
  <ele>343.1</ele>
  <time>2026-09-01T20:02:53Z</time>
  <course>270.0</course>
  <speed>0.0</speed>
  <fix>3d</fix>
</trkpt>
<trkpt lat="-27.274439" lon="151.290064">
  <ele>343.09</ele>
  <time>2026-09-01T20:02:53Z</time>
  <course>10.71</course>
  <speed>0.0</speed>
  <fix>3d</fix>
</trkpt>
<trkpt lat="-27.274439" lon="151.290064">
  <ele>343.1</ele>
  <time>2026-09-01T20:02:53Z</time>
  <course>270.0</course>
  <speed>0.0</speed>
  <fix>3d</fix>
</trkpt>
<trkpt lat="-27.274439" lon="151.290064">
  <ele>343.09</ele>
  <time>2026-09-01T20:02:53Z</time>
  <course>10.71</course>
  <speed>0.0</speed>
  <fix>3d</fix>
</trkpt>
<trkpt lat="-27.274439" lon="151.290064">
  <ele>343.1</ele>
  <time>2026-09-01T20:02:53Z</time>
  <course>270.0</course>
  <speed>0.0</speed>
  <fix>3d</fix>
</trkpt>
<trkpt lat="-27.274439" lon="151.290064">
  <ele>343.09</ele>
  <time>2026-09-01T20:02:53Z</time>
  <course>10.71</course>
  <speed>0.0</speed>
  <fix>3d</fix>
</trkpt>
<trkpt lat="-27.274439" lon="151.290064">
  <ele>343.1</ele>
  <time>2026-09-01T20:02:53Z</time>
  <course>270.0</course>
  <speed>0.0</speed>
  <fix>3d</fix>
</trkpt>
<trkpt lat="-27.274439" lon="151.290064">
  <ele>343.09</ele>
  <time>2026-09-01T20:02:53Z</time>
  <course>10.71</course>
  <speed>0.0</speed>
  <fix>3d</fix>
</trkpt>
<trkpt lat="-27.274439" lon="151.290064">
  <ele>343.1</ele>
  <time>2026-09-01T20:02:53Z</time>
  <course>270.0</course>
  <speed>0.0</speed>
  <fix>3d</fix>
</trkpt>
<trkpt lat="-27.274439" lon="151.290064">
  <ele>343.1</ele>
  <time>2026-09-01T20:02:53Z</time>
  <course>10.71</course>
  <speed>0.0</speed>
  <fix>3d</fix>
</trkpt>
<trkpt lat="-27.274439" lon="151.290064">
  <ele>343.1</ele>
  <time>2026-09-01T20:02:53Z</time>
  <course>270.0</course>
  <speed>0.0</speed>
  <fix>3d</fix>
</trkpt>
<trkpt lat="-27.274439" lon="151.290064">
  <ele>343.1</ele>
  <time>2026-09-01T20:02:53Z</time>
  <course>10.71</course>
  <speed>0.0</speed>
  <fix>3d</fix>
</trkpt>
<trkpt lat="-27.274439" lon="151.290064">
  <ele>343.1</ele>
  <time>2026-09-01T20:02:53Z</time>
  <course>270.0</course>
  <speed>0.0</speed>
  <fix>3d</fix>
</trkpt>
<trkpt lat="-27.274439" lon="151.290064">
  <ele>343.1</ele>
  <time>2026-09-01T20:02:53Z</time>
  <course>10.71</course>
  <speed>0.0</speed>
  <fix>3d</fix>
</trkpt>
<trkpt lat="-27.274439" lon="151.290064">
  <ele>343.1</ele>
  <time>2026-09-01T20:02:53Z</time>
  <course>270.0</course>
  <speed>0.0</speed>
  <fix>3d</fix>
</trkpt>
<trkpt lat="-27.274439" lon="151.290064">
  <ele>343.1</ele>
  <time>2026-09-01T20:02:53Z</time>
  <course>10.71</course>
  <speed>0.0</speed>
  <fix>3d</fix>
</trkpt>
<trkpt lat="-27.274439" lon="151.290064">
  <ele>343.1</ele>
  <time>2026-09-01T20:02:53Z</time>
  <course>270.0</course>
  <speed>0.0</speed>
  <fix>3d</fix>
</trkpt>
<trkpt lat="-27.274439" lon="151.290064">
  <ele>343.1</ele>
  <time>2026-09-01T20:02:53Z</time>
  <course>10.71</course>
  <speed>0.0</speed>
  <fix>3d</fix>
</trkpt>
<trkpt lat="-27.274439" lon="151.290064">
  <ele>343.1</ele>
  <time>2026-09-01T20:02:53Z</time>
  <course>270.0</course>
  <speed>0.0</speed>
  <fix>3d</fix>
</trkpt>
<trkpt lat="-27.274439" lon="151.290064">
  <ele>343.1</ele>
  <time>2026-09-01T20:02:53Z</time>
  <course>10.71</course>
  <speed>0.0</speed>
  <fix>3d</fix>
</trkpt>
<trkpt lat="-27.274439" lon="151.290064">
  <ele>343.1</ele>
  <time>2026-09-01T20:02:53Z</time>
  <course>270.0</course>
  <speed>0.0</speed>
  <fix>3d</fix>
</trkpt>
<trkpt lat="-27.274439" lon="151.290064">
  <ele>343.09</ele>
  <time>2026-09-01T20:02:53Z</time>
  <course>10.71</course>
  <speed>0.0</speed>
  <fix>3d</fix>
</trkpt>
<trkpt lat="-27.274439" lon="151.290064">
  <ele>343.1</ele>
  <time>2026-09-01T20:02:53Z</time>
  <course>270.0</course>
  <speed>0.0</speed>
  <fix>3d</fix>
</trkpt>
<trkpt lat="-27.274439" lon="151.290064">
  <ele>343.09</ele>
  <time>2026-09-01T20:02:53Z</time>
  <course>10.71</course>
  <speed>0.0</speed>
  <fix>3d</fix>
</trkpt>
<trkpt lat="-27.274439" lon="151.290064">
  <ele>343.1</ele>
  <time>2026-09-01T20:02:53Z</time>
  <course>270.0</course>
  <speed>0.0</speed>
  <fix>3d</fix>
</trkpt>
<trkpt lat="-27.274439" lon="151.290064">
  <ele>343.09</ele>
  <time>2026-09-01T20:02:53Z</time>
  <course>10.71</course>
  <speed>0.0</speed>
  <fix>3d</fix>
</trkpt>
<trkpt lat="-27.274439" lon="151.290064">
  <ele>343.1</ele>
  <time>2026-09-01T20:02:53Z</time>
  <course>270.0</course>
  <speed>0.0</speed>
  <fix>3d</fix>
</trkpt>
<trkpt lat="-27.274439" lon="151.290064">
  <ele>343.09</ele>
  <time>2026-09-01T20:02:53Z</time>
  <course>10.71</course>
  <speed>0.0</speed>
  <fix>3d</fix>
</trkpt>
<trkpt lat="-27.274439" lon="151.290064">
  <ele>343.1</ele>
  <time>2026-09-01T20:02:53Z</time>
  <course>270.0</course>
  <speed>0.0</speed>
  <fix>3d</fix>
</trkpt>
<trkpt lat="-27.274439" lon="151.290064">
  <ele>343.09</ele>
  <time>2026-09-01T20:02:53Z</time>
  <course>10.71</course>
  <speed>0.0</speed>
  <fix>3d</fix>
</trkpt>
<trkpt lat="-27.274439" lon="151.290064">
  <ele>343.1</ele>
  <time>2026-09-01T20:02:53Z</time>
  <course>116.25</course>
  <speed>0.0</speed>
  <fix>3d</fix>
</trkpt>
<trkpt lat="-27.274439" lon="151.290064">
  <ele>343.08</ele>
  <time>2026-09-01T20:02:53Z</time>
  <course>10.71</course>
  <speed>0.0</speed>
  <fix>3d</fix>
</trkpt>
<trkpt lat="-27.274439" lon="151.290064">
  <ele>343.1</ele>
  <time>2026-09-01T20:02:53Z</time>
  <course>116.25</course>
  <speed>0.0</speed>
  <fix>3d</fix>
</trkpt>
<trkpt lat="-27.274439" lon="151.290064">
  <ele>343.08</ele>
  <time>2026-09-01T20:02:53Z</time>
  <course>10.71</course>
  <speed>0.0</speed>
  <fix>3d</fix>
</trkpt>
<trkpt lat="-27.274439" lon="151.290064">
  <ele>343.08</ele>
  <time>2026-09-01T20:02:53Z</time>
  <course>10.71</course>
  <speed>0.0</speed>
  <fix>3d</fix>
</trkpt>
<trkpt lat="-27.274439" lon="151.290064">
  <ele>343.1</ele>
  <time>2026-09-01T20:02:53Z</time>
  <course>120.15</course>
  <speed>0.0</speed>
  <fix>3d</fix>
</trkpt>
<trkpt lat="-27.274439" lon="151.290064">
  <ele>343.08</ele>
  <time>2026-09-01T20:02:53Z</time>
  <course>10.71</course>
  <speed>0.0</speed>
  <fix>3d</fix>
</trkpt>
<trkpt lat="-27.274439" lon="151.290064">
  <ele>343.08</ele>
  <time>2026-09-01T20:02:53Z</time>
  <course>10.71</course>
  <speed>0.0</speed>
  <fix>3d</fix>
</trkpt>
<trkpt lat="-27.274439" lon="151.290064">
  <ele>343.1</ele>
  <time>2026-09-01T20:02:53Z</time>
  <course>120.15</course>
  <speed>0.0</speed>
  <fix>3d</fix>
</trkpt>
<trkpt lat="-27.274439" lon="151.290064">
  <ele>343.08</ele>
  <time>2026-09-01T20:02:53Z</time>
  <course>10.71</course>
  <speed>0.0</speed>
  <fix>3d</fix>
</trkpt>
<trkpt lat="-27.274439" lon="151.290064">
  <ele>343.08</ele>
  <time>2026-09-01T20:02:53Z</time>
  <course>10.71</course>
  <speed>0.0</speed>
  <fix>3d</fix>
</trkpt>
<trkpt lat="-27.274439" lon="151.290064">
  <ele>343.1</ele>
  <time>2026-09-01T20:02:53Z</time>
  <course>111.11</course>
  <speed>0.0</speed>
  <fix>3d</fix>
</trkpt>
<trkpt lat="-27.274439" lon="151.290064">
  <ele>343.08</ele>
  <time>2026-09-01T20:02:53Z</time>
  <course>10.71</course>
  <speed>0.0</speed>
  <fix>3d</fix>
</trkpt>
<trkpt lat="-27.274439" lon="151.290064">
  <ele>343.08</ele>
  <time>2026-09-01T20:02:53Z</time>
  <course>10.71</course>
  <speed>0.0</speed>
  <fix>3d</fix>
</trkpt>
<trkpt lat="-27.274439" lon="151.290064">
  <ele>343.1</ele>
  <time>2026-09-01T20:02:53Z</time>
  <course>111.11</course>
  <speed>0.0</speed>
  <fix>3d</fix>
</trkpt>
<trkpt lat="-27.274439" lon="151.290064">
  <ele>343.08</ele>
  <time>2026-09-01T20:02:53Z</time>
  <course>10.71</course>
  <speed>0.0</speed>
  <fix>3d</fix>
</trkpt>
<trkpt lat="-27.274439" lon="151.290064">
  <ele>343.08</ele>
  <time>2026-09-01T20:02:53Z</time>
  <course>10.71</course>
  <speed>0.0</speed>
  <fix>3d</fix>
</trkpt>
<trkpt lat="-27.274439" lon="151.290064">
  <ele>343.1</ele>
  <time>2026-09-01T20:02:53Z</time>
  <course>329.57</course>
  <speed>0.0</speed>
  <fix>3d</fix>
</trkpt>
<trkpt lat="-27.274439" lon="151.290064">
  <ele>343.08</ele>
  <time>2026-09-01T20:02:53Z</time>
  <course>10.71</course>
  <speed>0.0</speed>
  <fix>3d</fix>
</trkpt>
<trkpt lat="-27.274439" lon="151.290064">
  <ele>343.08</ele>
  <time>2026-09-01T20:02:53Z</time>
  <course>10.71</course>
  <speed>0.0</speed>
  <fix>3d</fix>
</trkpt>
<trkpt lat="-27.274439" lon="151.290064">
  <ele>343.1</ele>
  <time>2026-09-01T20:02:53Z</time>
  <course>329.57</course>
  <speed>0.0</speed>
  <fix>3d</fix>
</trkpt>
<trkpt lat="-27.274439" lon="151.290064">
  <ele>343.08</ele>
  <time>2026-09-01T20:02:53Z</time>
  <course>10.71</course>
  <speed>0.0</speed>
  <fix>3d</fix>
</trkpt>
<trkpt lat="-27.274439" lon="151.290064">
  <ele>343.08</ele>
  <time>2026-09-01T20:02:53Z</time>
  <course>10.71</course>
  <speed>0.0</speed>
  <fix>3d</fix>
</trkpt>
<trkpt lat="-27.274439" lon="151.290064">
  <ele>343.1</ele>
  <time>2026-09-01T20:02:53Z</time>
  <course>299.13</course>
  <speed>0.0</speed>
  <fix>3d</fix>
</trkpt>
<trkpt lat="-27.274439" lon="151.290064">
  <ele>343.07</ele>
  <time>2026-09-01T20:02:53Z</time>
  <course>10.71</course>
  <speed>0.0</speed>
  <fix>3d</fix>
</trkpt>
<trkpt lat="-27.274439" lon="151.290064">
  <ele>343.08</ele>
  <time>2026-09-01T20:02:53Z</time>
  <course>10.71</course>
  <speed>0.0</speed>
  <fix>3d</fix>
</trkpt>
<trkpt lat="-27.274439" lon="151.290064">
  <ele>343.1</ele>
  <time>2026-09-01T20:02:53Z</time>
  <course>299.13</course>
  <speed>0.0</speed>
  <fix>3d</fix>
</trkpt>
<trkpt lat="-27.274439" lon="151.290064">
  <ele>343.08</ele>
  <time>2026-09-01T20:02:53Z</time>
  <course>10.71</course>
  <speed>0.0</speed>
  <fix>3d</fix>
</trkpt>
<trkpt lat="-27.274439" lon="151.290064">
  <ele>343.09</ele>
  <time>2026-09-01T20:02:53Z</time>
  <course>10.71</course>
  <speed>0.0</speed>
  <fix>3d</fix>
</trkpt>
<trkpt lat="-27.274439" lon="151.290064">
  <ele>343.1</ele>
  <time>2026-09-01T20:02:53Z</time>
  <course>7.42</course>
  <speed>0.0</speed>
  <fix>3d</fix>
</trkpt>
<trkpt lat="-27.274439" lon="151.290064">
  <ele>343.09</ele>
  <time>2026-09-01T20:02:53Z</time>
  <course>10.71</course>
  <speed>0.0</speed>
  <fix>3d</fix>
</trkpt>
<trkpt lat="-27.274439" lon="151.290064">
  <ele>343.12</ele>
  <time>2026-09-01T20:02:53Z</time>
  <course>10.71</course>
  <speed>0.0</speed>
  <fix>3d</fix>
</trkpt>
<trkpt lat="-27.274439" lon="151.290064">
  <ele>343.1</ele>
  <time>2026-09-01T20:02:53Z</time>
  <course>7.42</course>
  <speed>0.0</speed>
  <fix>3d</fix>
</trkpt>
<trkpt lat="-27.274439" lon="151.290064">
  <ele>343.12</ele>
  <time>2026-09-01T20:02:53Z</time>
  <course>10.71</course>
  <speed>0.0</speed>
  <fix>3d</fix>
</trkpt>
<trkpt lat="-27.274439" lon="151.290064">
  <ele>343.16</ele>
  <time>2026-09-01T20:02:53Z</time>
  <course>10.71</course>
  <speed>0.0</speed>
  <fix>3d</fix>
</trkpt>
<trkpt lat="-27.274439" lon="151.290064">
  <ele>343.12</ele>
  <time>2026-09-01T20:02:53Z</time>
  <course>7.92</course>
  <speed>0.0</speed>
  <fix>3d</fix>
</trkpt>
<trkpt lat="-27.274439" lon="151.290064">
  <ele>343.17</ele>
  <time>2026-09-01T20:02:53Z</time>
  <course>10.71</course>
  <speed>0.0</speed>
  <fix>3d</fix>
</trkpt>
<trkpt lat="-27.274439" lon="151.290064">
  <ele>343.21</ele>
  <time>2026-09-01T20:02:53Z</time>
  <course>10.71</course>
  <speed>0.0</speed>
  <fix>3d</fix>
</trkpt>
<trkpt lat="-27.274439" lon="151.290064">
  <ele>343.12</ele>
  <time>2026-09-01T20:02:53Z</time>
  <course>7.92</course>
  <speed>0.0</speed>
  <fix>3d</fix>
</trkpt>
<trkpt lat="-27.274439" lon="151.290064">
  <ele>343.21</ele>
  <time>2026-09-01T20:02:53Z</time>
  <course>10.71</course>
  <speed>0.0</speed>
  <fix>3d</fix>
</trkpt>
<trkpt lat="-27.274439" lon="151.290064">
  <ele>343.32</ele>
  <time>2026-09-01T20:02:53Z</time>
  <course>10.71</course>
  <speed>0.03</speed>
  <fix>3d</fix>
</trkpt>
<trkpt lat="-27.274439" lon="151.290064">
  <ele>343.19</ele>
  <time>2026-09-01T20:02:53Z</time>
  <course>7.25</course>
  <speed>0.0</speed>
  <fix>3d</fix>
</trkpt>
<trkpt lat="-27.274439" lon="151.290064">
  <ele>343.32</ele>
  <time>2026-09-01T20:02:53Z</time>
  <course>10.71</course>
  <speed>0.03</speed>
  <fix>3d</fix>
</trkpt>
<trkpt lat="-27.274439" lon="151.290064">
  <ele>343.49</ele>
  <time>2026-09-01T20:02:53Z</time>
  <course>10.71</course>
  <speed>0.06082762530298219</speed>
  <fix>3d</fix>
</trkpt>
<trkpt lat="-27.274439" lon="151.290064">
  <ele>343.19</ele>
  <time>2026-09-01T20:02:53Z</time>
  <course>7.25</course>
  <speed>0.0</speed>
  <fix>3d</fix>
</trkpt>
<trkpt lat="-27.274439" lon="151.290064">
  <ele>343.54</ele>
  <time>2026-09-01T20:02:53Z</time>
  <course>10.71</course>
  <speed>0.07071067811865475</speed>
  <fix>3d</fix>
</trkpt>
<trkpt lat="-27.2744389" lon="151.290064">
  <ele>343.7</ele>
  <time>2026-09-01T20:02:53Z</time>
  <course>10.71</course>
  <speed>0.09055385138137417</speed>
  <fix>3d</fix>
</trkpt>
<trkpt lat="-27.274439" lon="151.290064">
  <ele>343.38</ele>
  <time>2026-09-01T20:02:53Z</time>
  <course>6.8</course>
  <speed>0.03</speed>
  <fix>3d</fix>
</trkpt>
<trkpt lat="-27.2744389" lon="151.290064">
  <ele>343.76</ele>
  <time>2026-09-01T20:02:53Z</time>
  <course>10.71</course>
  <speed>0.1004987562112089</speed>
  <fix>3d</fix>
</trkpt>
<trkpt lat="-27.2744388" lon="151.290064">
  <ele>343.93</ele>
  <time>2026-09-01T20:02:53Z</time>
  <course>10.71</course>
  <speed>0.13152946437965907</speed>
  <fix>3d</fix>
</trkpt>
<trkpt lat="-27.274439" lon="151.290064">
  <ele>343.38</ele>
  <time>2026-09-01T20:02:53Z</time>
  <course>6.8</course>
  <speed>0.03</speed>
  <fix>3d</fix>
</trkpt>
<trkpt lat="-27.2744388" lon="151.290064">
  <ele>343.99</ele>
  <time>2026-09-01T20:02:53Z</time>
  <course>10.71</course>
  <speed>0.13152946437965907</speed>
  <fix>3d</fix>
</trkpt>
<trkpt lat="-27.2744387" lon="151.290064">
  <ele>344.16</ele>
  <time>2026-09-01T20:02:53Z</time>
  <course>10.7</course>
  <speed>0.15132745950421556</speed>
  <fix>3d</fix>
</trkpt>
<trkpt lat="-27.2744389" lon="151.290064">
  <ele>343.74</ele>
  <time>2026-09-01T20:02:53Z</time>
  <course>6.85</course>
  <speed>0.09</speed>
  <fix>3d</fix>
</trkpt>
<trkpt lat="-27.2744387" lon="151.290064">
  <ele>344.21</ele>
  <time>2026-09-01T20:02:53Z</time>
  <course>10.7</course>
  <speed>0.16124515496597097</speed>
  <fix>3d</fix>
</trkpt>
<trkpt lat="-27.2744385" lon="151.290064">
  <ele>344.39</ele>
  <time>2026-09-01T20:02:53Z</time>
  <course>10.7</course>
  <speed>0.1824828759089466</speed>
  <fix>3d</fix>
</trkpt>
<trkpt lat="-27.2744389" lon="151.290064">
  <ele>343.74</ele>
  <time>2026-09-01T20:02:53Z</time>
  <course>6.85</course>
  <speed>0.09</speed>
  <fix>3d</fix>
</trkpt>
<trkpt lat="-27.2744385" lon="151.2900641">
  <ele>344.44</ele>
  <time>2026-09-01T20:02:53Z</time>
  <course>10.69</course>
  <speed>0.1824828759089466</speed>
  <fix>3d</fix>
</trkpt>
<trkpt lat="-27.2744384" lon="151.2900641">
  <ele>344.62</ele>
  <time>2026-09-01T20:02:53Z</time>
  <course>10.69</course>
  <speed>0.20223748416156684</speed>
  <fix>3d</fix>
</trkpt>
<trkpt lat="-27.2744387" lon="151.290064">
  <ele>344.2</ele>
  <time>2026-09-01T20:02:53Z</time>
  <course>6.96</course>
  <speed>0.16</speed>
  <fix>3d</fix>
</trkpt>
<trkpt lat="-27.2744383" lon="151.2900641">
  <ele>344.68</ele>
  <time>2026-09-01T20:02:53Z</time>
  <course>10.69</course>
  <speed>0.20223748416156684</speed>
  <fix>3d</fix>
</trkpt>
<trkpt lat="-27.2744382" lon="151.2900641">
  <ele>344.85</ele>
  <time>2026-09-01T20:02:53Z</time>
  <course>10.68</course>
  <speed>0.2220360331117452</speed>
  <fix>3d</fix>
</trkpt>
<trkpt lat="-27.2744387" lon="151.290064">
  <ele>344.2</ele>
  <time>2026-09-01T20:02:53Z</time>
  <course>6.96</course>
  <speed>0.16</speed>
  <fix>3d</fix>
</trkpt>
<trkpt lat="-27.2744381" lon="151.2900641">
  <ele>344.9</ele>
  <time>2026-09-01T20:02:53Z</time>
  <course>10.68</course>
  <speed>0.2220360331117452</speed>
  <fix>3d</fix>
</trkpt>
<trkpt lat="-27.274438" lon="151.2900641">
  <ele>345.07</ele>
  <time>2026-09-01T20:02:53Z</time>
  <course>10.66</course>
  <speed>0.23194827009486402</speed>
  <fix>3d</fix>
</trkpt>
<trkpt lat="-27.2744384" lon="151.290064">
  <ele>344.66</ele>
  <time>2026-09-01T20:02:53Z</time>
  <course>7.04</course>
  <speed>0.2</speed>
  <fix>3d</fix>
</trkpt>
<trkpt lat="-27.2744379" lon="151.2900641">
  <ele>345.14</ele>
  <time>2026-09-01T20:02:53Z</time>
  <course>10.66</course>
  <speed>0.23345235059857505</speed>
  <fix>3d</fix>
</trkpt>
<trkpt lat="-27.2744378" lon="151.2900642">
  <ele>345.3</ele>
  <time>2026-09-01T20:02:53Z</time>
  <course>10.66</course>
  <speed>0.24331050121192876</speed>
  <fix>3d</fix>
</trkpt>
<trkpt lat="-27.2744384" lon="151.290064">
  <ele>344.66</ele>
  <time>2026-09-01T20:02:53Z</time>
  <course>7.04</course>
  <speed>0.2</speed>
  <fix>3d</fix>
</trkpt>
<trkpt lat="-27.2744377" lon="151.2900642">
  <ele>345.35</ele>
  <time>2026-09-01T20:02:53Z</time>
  <course>10.66</course>
  <speed>0.24331050121192876</speed>
  <fix>3d</fix>
</trkpt>
<trkpt lat="-27.2744376" lon="151.2900642">
  <ele>345.52</ele>
  <time>2026-09-01T20:02:53Z</time>
  <course>10.66</course>
  <speed>0.24331050121192876</speed>
  <fix>3d</fix>
</trkpt>
<trkpt lat="-27.2744379" lon="151.2900641">
  <ele>345.12</ele>
  <time>2026-09-01T20:02:53Z</time>
  <course>7.15</course>
  <speed>0.24</speed>
  <fix>3d</fix>
</trkpt>
<trkpt lat="-27.2744376" lon="151.2900642">
  <ele>345.53</ele>
  <time>2026-09-01T20:02:53Z</time>
  <course>10.66</course>
  <speed>0.24331050121192876</speed>
  <fix>3d</fix>
</trkpt>
<trkpt lat="-27.2744373" lon="151.2900642">
  <ele>345.73</ele>
  <time>2026-09-01T20:02:53Z</time>
  <course>10.66</course>
  <speed>0.24331050121192876</speed>
  <fix>3d</fix>
</trkpt>
<trkpt lat="-27.2744379" lon="151.2900641">
  <ele>345.12</ele>
  <time>2026-09-01T20:02:53Z</time>
  <course>7.15</course>
  <speed>0.24</speed>
  <fix>3d</fix>
</trkpt>
<trkpt lat="-27.2744373" lon="151.2900642">
  <ele>345.73</ele>
  <time>2026-09-01T20:02:53Z</time>
  <course>10.66</course>
  <speed>0.24331050121192876</speed>
  <fix>3d</fix>
</trkpt>
<trkpt lat="-27.2744371" lon="151.2900642">
  <ele>345.92</ele>
  <time>2026-09-01T20:02:53Z</time>
  <course>10.66</course>
  <speed>0.24186773244895649</speed>
  <fix>3d</fix>
</trkpt>
<trkpt lat="-27.2744375" lon="151.2900641">
  <ele>345.56</ele>
  <time>2026-09-01T20:02:53Z</time>
  <course>7.29</course>
  <speed>0.25</speed>
  <fix>3d</fix>
</trkpt>
<trkpt lat="-27.2744371" lon="151.2900642">
  <ele>345.97</ele>
  <time>2026-09-01T20:02:53Z</time>
  <course>10.66</course>
  <speed>0.24186773244895649</speed>
  <fix>3d</fix>
</trkpt>
<trkpt lat="-27.2744369" lon="151.2900643">
  <ele>346.11</ele>
  <time>2026-09-01T20:02:53Z</time>
  <course>10.66</course>
  <speed>0.23194827009486402</speed>
  <fix>3d</fix>
</trkpt>
<trkpt lat="-27.2744375" lon="151.2900641">
  <ele>345.56</ele>
  <time>2026-09-01T20:02:53Z</time>
  <course>7.29</course>
  <speed>0.25</speed>
  <fix>3d</fix>
</trkpt>
<trkpt lat="-27.2744369" lon="151.2900643">
  <ele>346.15</ele>
  <time>2026-09-01T20:02:53Z</time>
  <course>10.66</course>
  <speed>0.23194827009486402</speed>
  <fix>3d</fix>
</trkpt>
<trkpt lat="-27.2744367" lon="151.2900643">
  <ele>346.29</ele>
  <time>2026-09-01T20:02:53Z</time>
  <course>10.66</course>
  <speed>0.2220360331117452</speed>
  <fix>3d</fix>
</trkpt>
<trkpt lat="-27.2744371" lon="151.2900642">
  <ele>345.96</ele>
  <time>2026-09-01T20:02:53Z</time>
  <course>7.47</course>
  <speed>0.25</speed>
  <fix>3d</fix>
</trkpt>
<trkpt lat="-27.2744367" lon="151.2900643">
  <ele>346.32</ele>
  <time>2026-09-01T20:02:53Z</time>
  <course>10.66</course>
  <speed>0.2220360331117452</speed>
  <fix>3d</fix>
</trkpt>
<trkpt lat="-27.2744365" lon="151.2900643">
  <ele>346.45</ele>
  <time>2026-09-01T20:02:53Z</time>
  <course>10.66</course>
  <speed>0.20223748416156684</speed>
  <fix>3d</fix>
</trkpt>
<trkpt lat="-27.2744371" lon="151.2900642">
  <ele>345.96</ele>
  <time>2026-09-01T20:02:53Z</time>
  <course>7.47</course>
  <speed>0.25</speed>
  <fix>3d</fix>
</trkpt>
<trkpt lat="-27.2744365" lon="151.2900643">
  <ele>346.49</ele>
  <time>2026-09-01T20:02:53Z</time>
  <course>10.66</course>
  <speed>0.20223748416156684</speed>
  <fix>3d</fix>
</trkpt>
<trkpt lat="-27.2744363" lon="151.2900643">
  <ele>346.61</ele>
  <time>2026-09-01T20:02:53Z</time>
  <course>10.67</course>
  <speed>0.191049731745428</speed>
  <fix>3d</fix>
</trkpt>
<trkpt lat="-27.2744367" lon="151.2900642">
  <ele>346.32</ele>
  <time>2026-09-01T20:02:53Z</time>
  <course>7.71</course>
  <speed>0.23</speed>
  <fix>3d</fix>
</trkpt>
<trkpt lat="-27.2744363" lon="151.2900643">
  <ele>346.65</ele>
  <time>2026-09-01T20:02:53Z</time>
  <course>10.67</course>
  <speed>0.18110770276274835</speed>
  <fix>3d</fix>
</trkpt>
<trkpt lat="-27.2744362" lon="151.2900643">
  <ele>346.76</ele>
  <time>2026-09-01T20:02:53Z</time>
  <course>10.67</course>
  <speed>0.1711724276862369</speed>
  <fix>3d</fix>
</trkpt>
<trkpt lat="-27.2744367" lon="151.2900642">
  <ele>346.32</ele>
  <time>2026-09-01T20:02:53Z</time>
  <course>7.71</course>
  <speed>0.23</speed>
  <fix>3d</fix>
</trkpt>
<trkpt lat="-27.2744361" lon="151.2900643">
  <ele>346.8</ele>
  <time>2026-09-01T20:02:53Z</time>
  <course>10.67</course>
  <speed>0.16124515496597097</speed>
  <fix>3d</fix>
</trkpt>
<trkpt lat="-27.274436" lon="151.2900644">
  <ele>346.91</ele>
  <time>2026-09-01T20:02:53Z</time>
  <course>10.68</course>
  <speed>0.15132745950421556</speed>
  <fix>3d</fix>
</trkpt>
<trkpt lat="-27.2744363" lon="151.2900643">
  <ele>346.64</ele>
  <time>2026-09-01T20:02:53Z</time>
  <course>8.1</course>
  <speed>0.2</speed>
  <fix>3d</fix>
</trkpt>
<trkpt lat="-27.274436" lon="151.2900644">
  <ele>346.95</ele>
  <time>2026-09-01T20:02:53Z</time>
  <course>10.68</course>
  <speed>0.1414213562373095</speed>
  <fix>3d</fix>
</trkpt>
<trkpt lat="-27.2744359" lon="151.2900644">
  <ele>347.05</ele>
  <time>2026-09-01T20:02:53Z</time>
  <course>10.69</course>
  <speed>0.130384048104053</speed>
  <fix>3d</fix>
</trkpt>
<trkpt lat="-27.2744363" lon="151.2900643">
  <ele>346.64</ele>
  <time>2026-09-01T20:02:53Z</time>
  <course>8.1</course>
  <speed>0.2</speed>
  <fix>3d</fix>
</trkpt>
<trkpt lat="-27.2744359" lon="151.2900644">
  <ele>347.08</ele>
  <time>2026-09-01T20:02:53Z</time>
  <course>10.69</course>
  <speed>0.12041594578792296</speed>
  <fix>3d</fix>
</trkpt>
<trkpt lat="-27.2744358" lon="151.2900644">
  <ele>347.19</ele>
  <time>2026-09-01T20:02:53Z</time>
  <course>10.7</course>
  <speed>0.1004987562112089</speed>
  <fix>3d</fix>
</trkpt>
<trkpt lat="-27.2744359" lon="151.2900644">
  <ele>346.93</ele>
  <time>2026-09-01T20:02:53Z</time>
  <course>8.82</course>
  <speed>0.16</speed>
  <fix>3d</fix>
</trkpt>
<trkpt lat="-27.2744357" lon="151.2900644">
  <ele>347.22</ele>
  <time>2026-09-01T20:02:53Z</time>
  <course>10.7</course>
  <speed>0.1004987562112089</speed>
  <fix>3d</fix>
</trkpt>
<trkpt lat="-27.2744357" lon="151.2900644">
  <ele>347.32</ele>
  <time>2026-09-01T20:02:53Z</time>
  <course>10.7</course>
  <speed>0.08062257748298549</speed>
  <fix>3d</fix>
</trkpt>
<trkpt lat="-27.2744359" lon="151.2900644">
  <ele>346.93</ele>
  <time>2026-09-01T20:02:53Z</time>
  <course>8.82</course>
  <speed>0.16</speed>
  <fix>3d</fix>
</trkpt>
<trkpt lat="-27.2744357" lon="151.2900644">
  <ele>347.33</ele>
  <time>2026-09-01T20:02:53Z</time>
  <course>10.7</course>
  <speed>0.08062257748298549</speed>
  <fix>3d</fix>
</trkpt>
<trkpt lat="-27.2744356" lon="151.2900644">
  <ele>347.46</ele>
  <time>2026-09-01T20:02:53Z</time>
  <course>10.71</course>
  <speed>0.06</speed>
  <fix>3d</fix>
</trkpt>
<trkpt lat="-27.2744357" lon="151.2900644">
  <ele>347.2</ele>
  <time>2026-09-01T20:02:53Z</time>
  <course>10.23</course>
  <speed>0.12</speed>
  <fix>3d</fix>
</trkpt>
<trkpt lat="-27.2744356" lon="151.2900644">
  <ele>347.46</ele>
  <time>2026-09-01T20:02:53Z</time>
  <course>10.71</course>
  <speed>0.06</speed>
  <fix>3d</fix>
</trkpt>
<trkpt lat="-27.2744355" lon="151.2900644">
  <ele>347.59</ele>
  <time>2026-09-01T20:02:53Z</time>
  <course>10.72</course>
  <speed>0.04</speed>
  <fix>3d</fix>
</trkpt>
<trkpt lat="-27.2744357" lon="151.2900644">
  <ele>347.2</ele>
  <time>2026-09-01T20:02:53Z</time>
  <course>10.23</course>
  <speed>0.12</speed>
  <fix>3d</fix>
</trkpt>
<trkpt lat="-27.2744355" lon="151.2900644">
  <ele>347.63</ele>
  <time>2026-09-01T20:02:53Z</time>
  <course>10.72</course>
  <speed>0.03</speed>
  <fix>3d</fix>
</trkpt>
<trkpt lat="-27.2744355" lon="151.2900644">
  <ele>347.72</ele>
  <time>2026-09-01T20:02:53Z</time>
  <course>10.73</course>
  <speed>0.02</speed>
  <fix>3d</fix>
</trkpt>
<trkpt lat="-27.2744355" lon="151.2900645">
  <ele>347.46</ele>
  <time>2026-09-01T20:02:53Z</time>
  <course>13.35</course>
  <speed>0.07</speed>
  <fix>3d</fix>
</trkpt>
<trkpt lat="-27.2744355" lon="151.2900644">
  <ele>347.76</ele>
  <time>2026-09-01T20:02:53Z</time>
  <course>10.73</course>
  <speed>0.01</speed>
  <fix>3d</fix>
</trkpt>
<trkpt lat="-27.2744355" lon="151.2900644">
  <ele>347.85</ele>
  <time>2026-09-01T20:02:53Z</time>
  <course>10.74</course>
  <speed>0.0</speed>
  <fix>3d</fix>
</trkpt>
<trkpt lat="-27.2744355" lon="151.2900645">
  <ele>347.46</ele>
  <time>2026-09-01T20:02:53Z</time>
  <course>13.35</course>
  <speed>0.07</speed>
  <fix>3d</fix>
</trkpt>
<trkpt lat="-27.2744355" lon="151.2900644">
  <ele>347.86</ele>
  <time>2026-09-01T20:02:53Z</time>
  <course>10.74</course>
  <speed>0.0</speed>
  <fix>3d</fix>
</trkpt>
<trkpt lat="-27.2744355" lon="151.2900644">
  <ele>347.98</ele>
  <time>2026-09-01T20:02:53Z</time>
  <course>10.76</course>
  <speed>0.01</speed>
  <fix>3d</fix>
</trkpt>
<trkpt lat="-27.2744354" lon="151.2900645">
  <ele>347.72</ele>
  <time>2026-09-01T20:02:53Z</time>
  <course>24.03</course>
  <speed>0.03</speed>
  <fix>3d</fix>
</trkpt>
<trkpt lat="-27.2744355" lon="151.2900644">
  <ele>348.01</ele>
  <time>2026-09-01T20:02:53Z</time>
  <course>10.77</course>
  <speed>0.02</speed>
  <fix>3d</fix>
</trkpt>
<trkpt lat="-27.2744355" lon="151.2900645">
  <ele>348.12</ele>
  <time>2026-09-01T20:02:53Z</time>
  <course>10.8</course>
  <speed>0.03</speed>
  <fix>3d</fix>
</trkpt>
<trkpt lat="-27.2744354" lon="151.2900645">
  <ele>347.72</ele>
  <time>2026-09-01T20:02:53Z</time>
  <course>24.03</course>
  <speed>0.03</speed>
  <fix>3d</fix>
</trkpt>
<trkpt lat="-27.2744355" lon="151.2900645">
  <ele>348.15</ele>
  <time>2026-09-01T20:02:53Z</time>
  <course>10.82</course>
  <speed>0.03</speed>
  <fix>3d</fix>
</trkpt>
<trkpt lat="-27.2744355" lon="151.2900645">
  <ele>348.25</ele>
  <time>2026-09-01T20:02:53Z</time>
  <course>10.88</course>
  <speed>0.0412310562561766</speed>
  <fix>3d</fix>
</trkpt>
<trkpt lat="-27.2744354" lon="151.2900645">
  <ele>347.97</ele>
  <time>2026-09-01T20:02:53Z</time>
  <course>147.92</course>
  <speed>0.01</speed>
  <fix>3d</fix>
</trkpt>
<trkpt lat="-27.2744355" lon="151.2900645">
  <ele>348.28</ele>
  <time>2026-09-01T20:02:53Z</time>
  <course>10.91</course>
  <speed>0.05099019513592785</speed>
  <fix>3d</fix>
</trkpt>
<trkpt lat="-27.2744355" lon="151.2900645">
  <ele>348.39</ele>
  <time>2026-09-01T20:02:53Z</time>
  <course>10.99</course>
  <speed>0.06082762530298219</speed>
  <fix>3d</fix>
</trkpt>
<trkpt lat="-27.2744354" lon="151.2900645">
  <ele>347.97</ele>
  <time>2026-09-01T20:02:53Z</time>
  <course>147.92</course>
  <speed>0.01</speed>
  <fix>3d</fix>
</trkpt>
<trkpt lat="-27.2744355" lon="151.2900645">
  <ele>348.42</ele>
  <time>2026-09-01T20:02:53Z</time>
  <course>11.0</course>
  <speed>0.06082762530298219</speed>
  <fix>3d</fix>
</trkpt>
<trkpt lat="-27.2744355" lon="151.2900645">
  <ele>348.53</ele>
  <time>2026-09-01T20:02:53Z</time>
  <course>11.04</course>
  <speed>0.07071067811865475</speed>
  <fix>3d</fix>
</trkpt>
<trkpt lat="-27.2744354" lon="151.2900645">
  <ele>348.24</ele>
  <time>2026-09-01T20:02:53Z</time>
  <course>181.61</course>
  <speed>0.04</speed>
  <fix>3d</fix>
</trkpt>
<trkpt lat="-27.2744355" lon="151.2900645">
  <ele>348.56</ele>
  <time>2026-09-01T20:02:53Z</time>
  <course>11.04</course>
  <speed>0.08062257748298549</speed>
  <fix>3d</fix>
</trkpt>
<trkpt lat="-27.2744356" lon="151.2900645">
  <ele>348.67</ele>
  <time>2026-09-01T20:02:53Z</time>
  <course>11.04</course>
  <speed>0.08062257748298549</speed>
  <fix>3d</fix>
</trkpt>
<trkpt lat="-27.2744354" lon="151.2900645">
  <ele>348.24</ele>
  <time>2026-09-01T20:02:53Z</time>
  <course>181.61</course>
  <speed>0.04</speed>
  <fix>3d</fix>
</trkpt>
<trkpt lat="-27.2744356" lon="151.2900645">
  <ele>348.7</ele>
  <time>2026-09-01T20:02:53Z</time>
  <course>11.04</course>
  <speed>0.09055385138137417</speed>
  <fix>3d</fix>
</trkpt>
<trkpt lat="-27.2744357" lon="151.2900645">
  <ele>348.81</ele>
  <time>2026-09-01T20:02:53Z</time>
  <course>11.02</course>
  <speed>0.09055385138137417</speed>
  <fix>3d</fix>
</trkpt>
<trkpt lat="-27.2744355" lon="151.2900645">
  <ele>348.52</ele>
  <time>2026-09-01T20:02:53Z</time>
  <course>186.07</course>
  <speed>0.07</speed>
  <fix>3d</fix>
</trkpt>
<trkpt lat="-27.2744357" lon="151.2900645">
  <ele>348.81</ele>
  <time>2026-09-01T20:02:53Z</time>
  <course>11.02</course>
  <speed>0.09055385138137417</speed>
  <fix>3d</fix>
</trkpt>
<trkpt lat="-27.2744357" lon="151.2900645">
  <ele>348.95</ele>
  <time>2026-09-01T20:02:53Z</time>
  <course>10.98</course>
  <speed>0.1004987562112089</speed>
  <fix>3d</fix>
</trkpt>
<trkpt lat="-27.2744355" lon="151.2900645">
  <ele>348.52</ele>
  <time>2026-09-01T20:02:53Z</time>
  <course>186.07</course>
  <speed>0.07</speed>
  <fix>3d</fix>
</trkpt>
<trkpt lat="-27.2744358" lon="151.2900645">
  <ele>348.96</ele>
  <time>2026-09-01T20:02:53Z</time>
  <course>10.98</course>
  <speed>0.1004987562112089</speed>
  <fix>3d</fix>
</trkpt>
<trkpt lat="-27.2744358" lon="151.2900645">
  <ele>349.09</ele>
  <time>2026-09-01T20:02:53Z</time>
  <course>10.93</course>
  <speed>0.1118033988749895</speed>
  <fix>3d</fix>
</trkpt>
<trkpt lat="-27.2744355" lon="151.2900645">
  <ele>348.8</ele>
  <time>2026-09-01T20:02:53Z</time>
  <course>186.55</course>
  <speed>0.09</speed>
  <fix>3d</fix>
</trkpt>
<trkpt lat="-27.2744359" lon="151.2900645">
  <ele>349.13</ele>
  <time>2026-09-01T20:02:53Z</time>
  <course>10.92</course>
  <speed>0.1118033988749895</speed>
  <fix>3d</fix>
</trkpt>
<trkpt lat="-27.2744359" lon="151.2900645">
  <ele>349.24</ele>
  <time>2026-09-01T20:02:53Z</time>
  <course>10.88</course>
  <speed>0.1118033988749895</speed>
  <fix>3d</fix>
</trkpt>
<trkpt lat="-27.2744355" lon="151.2900645">
  <ele>348.8</ele>
  <time>2026-09-01T20:02:53Z</time>
  <course>186.55</course>
  <speed>0.09</speed>
  <fix>3d</fix>
</trkpt>
<trkpt lat="-27.2744359" lon="151.2900644">
  <ele>349.27</ele>
  <time>2026-09-01T20:02:53Z</time>
  <course>10.87</course>
  <speed>0.1118033988749895</speed>
  <fix>3d</fix>
</trkpt>
<trkpt lat="-27.274436" lon="151.2900644">
  <ele>349.38</ele>
  <time>2026-09-01T20:02:53Z</time>
  <course>10.85</course>
  <speed>0.12165525060596438</speed>
  <fix>3d</fix>
</trkpt>
<trkpt lat="-27.2744358" lon="151.2900645">
  <ele>349.08</ele>
  <time>2026-09-01T20:02:53Z</time>
  <course>186.71</course>
  <speed>0.11</speed>
  <fix>3d</fix>
</trkpt>
<trkpt lat="-27.274436" lon="151.2900644">
  <ele>349.42</ele>
  <time>2026-09-01T20:02:53Z</time>
  <course>10.85</course>
  <speed>0.12165525060596438</speed>
  <fix>3d</fix>
</trkpt>
<trkpt lat="-27.2744361" lon="151.2900644">
  <ele>349.52</ele>
  <time>2026-09-01T20:02:53Z</time>
  <course>10.83</course>
  <speed>0.12165525060596438</speed>
  <fix>3d</fix>
</trkpt>
<trkpt lat="-27.2744358" lon="151.2900645">
  <ele>349.08</ele>
  <time>2026-09-01T20:02:53Z</time>
  <course>186.71</course>
  <speed>0.11</speed>
  <fix>3d</fix>
</trkpt>
<trkpt lat="-27.2744361" lon="151.2900644">
  <ele>349.56</ele>
  <time>2026-09-01T20:02:53Z</time>
  <course>10.83</course>
  <speed>0.12165525060596438</speed>
  <fix>3d</fix>
</trkpt>
<trkpt lat="-27.2744362" lon="151.2900644">
  <ele>349.67</ele>
  <time>2026-09-01T20:02:53Z</time>
  <course>10.82</course>
  <speed>0.12165525060596438</speed>
  <fix>3d</fix>
</trkpt>
<trkpt lat="-27.274436" lon="151.2900645">
  <ele>349.38</ele>
  <time>2026-09-01T20:02:53Z</time>
  <course>186.83</course>
  <speed>0.12</speed>
  <fix>3d</fix>
</trkpt>
<trkpt lat="-27.2744363" lon="151.2900644">
  <ele>349.71</ele>
  <time>2026-09-01T20:02:53Z</time>
  <course>10.82</course>
  <speed>0.13152946437965907</speed>
  <fix>3d</fix>
</trkpt>
<trkpt lat="-27.2744363" lon="151.2900644">
  <ele>349.81</ele>
  <time>2026-09-01T20:02:53Z</time>
  <course>10.82</course>
  <speed>0.13152946437965907</speed>
  <fix>3d</fix>
</trkpt>
<trkpt lat="-27.274436" lon="151.2900645">
  <ele>349.38</ele>
  <time>2026-09-01T20:02:53Z</time>
  <course>186.83</course>
  <speed>0.12</speed>
  <fix>3d</fix>
</trkpt>
<trkpt lat="-27.2744364" lon="151.2900644">
  <ele>349.85</ele>
  <time>2026-09-01T20:02:53Z</time>
  <course>10.82</course>
  <speed>0.13152946437965907</speed>
  <fix>3d</fix>
</trkpt>
<trkpt lat="-27.2744365" lon="151.2900644">
  <ele>349.96</ele>
  <time>2026-09-01T20:02:53Z</time>
  <course>10.82</course>
  <speed>0.13152946437965907</speed>
  <fix>3d</fix>
</trkpt>
<trkpt lat="-27.2744363" lon="151.2900645">
  <ele>349.67</ele>
  <time>2026-09-01T20:02:53Z</time>
  <course>187.22</course>
  <speed>0.13</speed>
  <fix>3d</fix>
</trkpt>
<trkpt lat="-27.2744365" lon="151.2900644">
  <ele>350.0</ele>
  <time>2026-09-01T20:02:53Z</time>
  <course>10.81</course>
  <speed>0.13152946437965907</speed>
  <fix>3d</fix>
</trkpt>
<trkpt lat="-27.2744366" lon="151.2900644">
  <ele>350.11</ele>
  <time>2026-09-01T20:02:53Z</time>
  <course>10.82</course>
  <speed>0.13152946437965907</speed>
  <fix>3d</fix>
</trkpt>
<trkpt lat="-27.2744363" lon="151.2900645">
  <ele>349.67</ele>
  <time>2026-09-01T20:02:53Z</time>
  <course>187.22</course>
  <speed>0.13</speed>
  <fix>3d</fix>
</trkpt>
<trkpt lat="-27.2744366" lon="151.2900644">
  <ele>350.14</ele>
  <time>2026-09-01T20:02:53Z</time>
  <course>10.82</course>
  <speed>0.13152946437965907</speed>
  <fix>3d</fix>
</trkpt>
<trkpt lat="-27.2744367" lon="151.2900644">
  <ele>350.25</ele>
  <time>2026-09-01T20:02:53Z</time>
  <course>10.82</course>
  <speed>0.13152946437965907</speed>
  <fix>3d</fix>
</trkpt>
<trkpt lat="-27.2744365" lon="151.2900645">
  <ele>349.96</ele>
  <time>2026-09-01T20:02:53Z</time>
  <course>187.46</course>
  <speed>0.14</speed>
  <fix>3d</fix>
</trkpt>
<trkpt lat="-27.2744367" lon="151.2900644">
  <ele>350.29</ele>
  <time>2026-09-01T20:02:53Z</time>
  <course>10.82</course>
  <speed>0.130384048104053</speed>
  <fix>3d</fix>
</trkpt>
<trkpt lat="-27.2744368" lon="151.2900644">
  <ele>350.4</ele>
  <time>2026-09-01T20:02:53Z</time>
  <course>10.81</course>
  <speed>0.130384048104053</speed>
  <fix>3d</fix>
</trkpt>
<trkpt lat="-27.2744365" lon="151.2900645">
  <ele>349.96</ele>
  <time>2026-09-01T20:02:53Z</time>
  <course>187.46</course>
  <speed>0.14</speed>
  <fix>3d</fix>
</trkpt>
<trkpt lat="-27.2744368" lon="151.2900644">
  <ele>350.41</ele>
  <time>2026-09-01T20:02:53Z</time>
  <course>10.81</course>
  <speed>0.140356688476182</speed>
  <fix>3d</fix>
</trkpt>
<trkpt lat="-27.2744369" lon="151.2900644">
  <ele>350.55</ele>
  <time>2026-09-01T20:02:53Z</time>
  <course>10.8</course>
  <speed>0.140356688476182</speed>
  <fix>3d</fix>
</trkpt>
<trkpt lat="-27.2744367" lon="151.2900644">
  <ele>350.26</ele>
  <time>2026-09-01T20:02:53Z</time>
  <course>187.54</course>
  <speed>0.14</speed>
  <fix>3d</fix>
</trkpt>
<trkpt lat="-27.274437" lon="151.2900644">
  <ele>350.55</ele>
  <time>2026-09-01T20:02:53Z</time>
  <course>10.8</course>
  <speed>0.140356688476182</speed>
  <fix>3d</fix>
</trkpt>
<trkpt lat="-27.2744371" lon="151.2900644">
  <ele>350.7</ele>
  <time>2026-09-01T20:02:53Z</time>
  <course>10.78</course>
  <speed>0.130384048104053</speed>
  <fix>3d</fix>
</trkpt>
<trkpt lat="-27.2744367" lon="151.2900644">
  <ele>350.26</ele>
  <time>2026-09-01T20:02:53Z</time>
  <course>187.54</course>
  <speed>0.14</speed>
  <fix>3d</fix>
</trkpt>
<trkpt lat="-27.2744371" lon="151.2900644">
  <ele>350.73</ele>
  <time>2026-09-01T20:02:53Z</time>
  <course>10.78</course>
  <speed>0.130384048104053</speed>
  <fix>3d</fix>
</trkpt>
<trkpt lat="-27.2744372" lon="151.2900644">
  <ele>350.85</ele>
  <time>2026-09-01T20:02:53Z</time>
  <course>10.76</course>
  <speed>0.130384048104053</speed>
  <fix>3d</fix>
</trkpt>
<trkpt lat="-27.274437" lon="151.2900644">
  <ele>350.55</ele>
  <time>2026-09-01T20:02:53Z</time>
  <course>187.66</course>
  <speed>0.14</speed>
  <fix>3d</fix>
</trkpt>
<trkpt lat="-27.2744372" lon="151.2900644">
  <ele>350.89</ele>
  <time>2026-09-01T20:02:53Z</time>
  <course>10.75</course>
  <speed>0.130384048104053</speed>
  <fix>3d</fix>
</trkpt>
<trkpt lat="-27.2744373" lon="151.2900644">
  <ele>350.99</ele>
  <time>2026-09-01T20:02:53Z</time>
  <course>10.73</course>
  <speed>0.13</speed>
  <fix>3d</fix>
</trkpt>
<trkpt lat="-27.274437" lon="151.2900644">
  <ele>350.55</ele>
  <time>2026-09-01T20:02:53Z</time>
  <course>187.66</course>
  <speed>0.14</speed>
  <fix>3d</fix>
</trkpt>
<trkpt lat="-27.2744373" lon="151.2900644">
  <ele>351.03</ele>
  <time>2026-09-01T20:02:53Z</time>
  <course>10.73</course>
  <speed>0.130384048104053</speed>
  <fix>3d</fix>
</trkpt>
<trkpt lat="-27.2744374" lon="151.2900644">
  <ele>351.14</ele>
  <time>2026-09-01T20:02:53Z</time>
  <course>10.71</course>
  <speed>0.13</speed>
  <fix>3d</fix>
</trkpt>
<trkpt lat="-27.2744373" lon="151.2900644">
  <ele>350.84</ele>
  <time>2026-09-01T20:02:53Z</time>
  <course>187.87</course>
  <speed>0.14</speed>
  <fix>3d</fix>
</trkpt>
<trkpt lat="-27.2744375" lon="151.2900644">
  <ele>351.18</ele>
  <time>2026-09-01T20:02:53Z</time>
  <course>10.7</course>
  <speed>0.13</speed>
  <fix>3d</fix>
</trkpt>
<trkpt lat="-27.2744376" lon="151.2900644">
  <ele>351.28</ele>
  <time>2026-09-01T20:02:53Z</time>
  <course>10.68</course>
  <speed>0.13</speed>
  <fix>3d</fix>
</trkpt>
<trkpt lat="-27.2744373" lon="151.2900644">
  <ele>350.84</ele>
  <time>2026-09-01T20:02:53Z</time>
  <course>187.87</course>
  <speed>0.14</speed>
  <fix>3d</fix>
</trkpt>
<trkpt lat="-27.2744376" lon="151.2900643">
  <ele>351.32</ele>
  <time>2026-09-01T20:02:53Z</time>
  <course>10.68</course>
  <speed>0.130384048104053</speed>
  <fix>3d</fix>
</trkpt>
<trkpt lat="-27.2744377" lon="151.2900643">
  <ele>351.43</ele>
  <time>2026-09-01T20:02:53Z</time>
  <course>10.65</course>
  <speed>0.130384048104053</speed>
  <fix>3d</fix>
</trkpt>
<trkpt lat="-27.2744375" lon="151.2900643">
  <ele>351.13</ele>
  <time>2026-09-01T20:02:53Z</time>
  <course>188.22</course>
  <speed>0.14</speed>
  <fix>3d</fix>
</trkpt>
<trkpt lat="-27.2744377" lon="151.2900643">
  <ele>351.43</ele>
  <time>2026-09-01T20:02:53Z</time>
  <course>10.65</course>
  <speed>0.130384048104053</speed>
  <fix>3d</fix>
</trkpt>
<trkpt lat="-27.2744378" lon="151.2900643">
  <ele>351.57</ele>
  <time>2026-09-01T20:02:53Z</time>
  <course>10.61</course>
  <speed>0.130384048104053</speed>
  <fix>3d</fix>
</trkpt>
<trkpt lat="-27.2744375" lon="151.2900643">
  <ele>351.13</ele>
  <time>2026-09-01T20:02:53Z</time>
  <course>188.22</course>
  <speed>0.14</speed>
  <fix>3d</fix>
</trkpt>
<trkpt lat="-27.2744378" lon="151.2900643">
  <ele>351.58</ele>
  <time>2026-09-01T20:02:53Z</time>
  <course>10.61</course>
  <speed>0.130384048104053</speed>
  <fix>3d</fix>
</trkpt>
<trkpt lat="-27.2744379" lon="151.2900643">
  <ele>351.71</ele>
  <time>2026-09-01T20:02:53Z</time>
  <course>10.58</course>
  <speed>0.13</speed>
  <fix>3d</fix>
</trkpt>
<trkpt lat="-27.2744378" lon="151.2900642">
  <ele>351.42</ele>
  <time>2026-09-01T20:02:53Z</time>
  <course>188.38</course>
  <speed>0.13</speed>
  <fix>3d</fix>
</trkpt>
<trkpt lat="-27.274438" lon="151.2900643">
  <ele>351.75</ele>
  <time>2026-09-01T20:02:53Z</time>
  <course>10.58</course>
  <speed>0.13</speed>
  <fix>3d</fix>
</trkpt>
<trkpt lat="-27.2744381" lon="151.2900643">
  <ele>351.86</ele>
  <time>2026-09-01T20:02:53Z</time>
  <course>10.57</course>
  <speed>0.12</speed>
  <fix>3d</fix>
</trkpt>
<trkpt lat="-27.2744378" lon="151.2900642">
  <ele>351.42</ele>
  <time>2026-09-01T20:02:53Z</time>
  <course>188.38</course>
  <speed>0.13</speed>
  <fix>3d</fix>
</trkpt>
<trkpt lat="-27.2744381" lon="151.2900643">
  <ele>351.89</ele>
  <time>2026-09-01T20:02:53Z</time>
  <course>10.57</course>
  <speed>0.12</speed>
  <fix>3d</fix>
</trkpt>
<trkpt lat="-27.2744382" lon="151.2900643">
  <ele>352.0</ele>
  <time>2026-09-01T20:02:53Z</time>
  <course>10.57</course>
  <speed>0.12</speed>
  <fix>3d</fix>
</trkpt>
<trkpt lat="-27.274438" lon="151.2900642">
  <ele>351.71</ele>
  <time>2026-09-01T20:02:53Z</time>
  <course>188.33</course>
  <speed>0.13</speed>
  <fix>3d</fix>
</trkpt>
<trkpt lat="-27.2744382" lon="151.2900643">
  <ele>352.0</ele>
  <time>2026-09-01T20:02:53Z</time>
  <course>10.57</course>
  <speed>0.12</speed>
  <fix>3d</fix>
</trkpt>
<trkpt lat="-27.2744383" lon="151.2900643">
  <ele>352.14</ele>
  <time>2026-09-01T20:02:53Z</time>
  <course>10.58</course>
  <speed>0.12</speed>
  <fix>3d</fix>
</trkpt>
<trkpt lat="-27.274438" lon="151.2900642">
  <ele>351.71</ele>
  <time>2026-09-01T20:02:53Z</time>
  <course>188.33</course>
  <speed>0.13</speed>
  <fix>3d</fix>
</trkpt>
<trkpt lat="-27.2744383" lon="151.2900643">
  <ele>352.15</ele>
  <time>2026-09-01T20:02:53Z</time>
  <course>10.58</course>
  <speed>0.12</speed>
  <fix>3d</fix>
</trkpt>
<trkpt lat="-27.2744384" lon="151.2900643">
  <ele>352.28</ele>
  <time>2026-09-01T20:02:53Z</time>
  <course>10.58</course>
  <speed>0.11</speed>
  <fix>3d</fix>
</trkpt>
<trkpt lat="-27.2744383" lon="151.2900642">
  <ele>351.99</ele>
  <time>2026-09-01T20:02:53Z</time>
  <course>188.58</course>
  <speed>0.12</speed>
  <fix>3d</fix>
</trkpt>
<trkpt lat="-27.2744384" lon="151.2900643">
  <ele>352.32</ele>
  <time>2026-09-01T20:02:53Z</time>
  <course>10.57</course>
  <speed>0.11</speed>
  <fix>3d</fix>
</trkpt>
<trkpt lat="-27.2744385" lon="151.2900642">
  <ele>352.43</ele>
  <time>2026-09-01T20:02:53Z</time>
  <course>10.55</course>
  <speed>0.11</speed>
  <fix>3d</fix>
</trkpt>
<trkpt lat="-27.2744383" lon="151.2900642">
  <ele>351.99</ele>
  <time>2026-09-01T20:02:53Z</time>
  <course>188.58</course>
  <speed>0.12</speed>
  <fix>3d</fix>
</trkpt>
<trkpt lat="-27.2744385" lon="151.2900642">
  <ele>352.46</ele>
  <time>2026-09-01T20:02:53Z</time>
  <course>10.55</course>
  <speed>0.11</speed>
  <fix>3d</fix>
</trkpt>
<trkpt lat="-27.2744386" lon="151.2900642">
  <ele>352.57</ele>
  <time>2026-09-01T20:02:53Z</time>
  <course>10.52</course>
  <speed>0.11</speed>
  <fix>3d</fix>
</trkpt>
<trkpt lat="-27.2744385" lon="151.2900642">
  <ele>352.28</ele>
  <time>2026-09-01T20:02:53Z</time>
  <course>189.06</course>
  <speed>0.12</speed>
  <fix>3d</fix>
</trkpt>
<trkpt lat="-27.2744386" lon="151.2900642">
  <ele>352.61</ele>
  <time>2026-09-01T20:02:53Z</time>
  <course>10.51</course>
  <speed>0.11</speed>
  <fix>3d</fix>
</trkpt>
<trkpt lat="-27.2744387" lon="151.2900642">
  <ele>352.72</ele>
  <time>2026-09-01T20:02:53Z</time>
  <course>10.49</course>
  <speed>0.1</speed>
  <fix>3d</fix>
</trkpt>
<trkpt lat="-27.2744385" lon="151.2900642">
  <ele>352.28</ele>
  <time>2026-09-01T20:02:53Z</time>
  <course>189.06</course>
  <speed>0.12</speed>
  <fix>3d</fix>
</trkpt>
<trkpt lat="-27.2744387" lon="151.2900642">
  <ele>352.75</ele>
  <time>2026-09-01T20:02:53Z</time>
  <course>10.48</course>
  <speed>0.1</speed>
  <fix>3d</fix>
</trkpt>
<trkpt lat="-27.2744388" lon="151.2900642">
  <ele>352.86</ele>
  <time>2026-09-01T20:02:53Z</time>
  <course>10.45</course>
  <speed>0.1</speed>
  <fix>3d</fix>
</trkpt>
<trkpt lat="-27.2744387" lon="151.2900641">
  <ele>352.56</ele>
  <time>2026-09-01T20:02:53Z</time>
  <course>189.53</course>
  <speed>0.11</speed>
  <fix>3d</fix>
</trkpt>
<trkpt lat="-27.2744388" lon="151.2900642">
  <ele>352.9</ele>
  <time>2026-09-01T20:02:53Z</time>
  <course>10.44</course>
  <speed>0.1</speed>
  <fix>3d</fix>
</trkpt>
<trkpt lat="-27.2744389" lon="151.2900642">
  <ele>353.0</ele>
  <time>2026-09-01T20:02:53Z</time>
  <course>10.42</course>
  <speed>0.09</speed>
  <fix>3d</fix>
</trkpt>
<trkpt lat="-27.2744387" lon="151.2900641">
  <ele>352.56</ele>
  <time>2026-09-01T20:02:53Z</time>
  <course>189.53</course>
  <speed>0.11</speed>
  <fix>3d</fix>
</trkpt>
<trkpt lat="-27.2744389" lon="151.2900642">
  <ele>353.04</ele>
  <time>2026-09-01T20:02:53Z</time>
  <course>10.41</course>
  <speed>0.09</speed>
  <fix>3d</fix>
</trkpt>
<trkpt lat="-27.274439" lon="151.2900642">
  <ele>353.15</ele>
  <time>2026-09-01T20:02:53Z</time>
  <course>10.39</course>
  <speed>0.09</speed>
  <fix>3d</fix>
</trkpt>
<trkpt lat="-27.2744389" lon="151.2900641">
  <ele>352.84</ele>
  <time>2026-09-01T20:02:53Z</time>
  <course>189.77</course>
  <speed>0.1</speed>
  <fix>3d</fix>
</trkpt>
<trkpt lat="-27.274439" lon="151.2900642">
  <ele>353.19</ele>
  <time>2026-09-01T20:02:53Z</time>
  <course>10.39</course>
  <speed>0.09</speed>
  <fix>3d</fix>
</trkpt>
<trkpt lat="-27.2744391" lon="151.2900642">
  <ele>353.29</ele>
  <time>2026-09-01T20:02:53Z</time>
  <course>10.39</course>
  <speed>0.08</speed>
  <fix>3d</fix>
</trkpt>
<trkpt lat="-27.2744389" lon="151.2900641">
  <ele>352.84</ele>
  <time>2026-09-01T20:02:53Z</time>
  <course>189.77</course>
  <speed>0.1</speed>
  <fix>3d</fix>
</trkpt>
<trkpt lat="-27.2744391" lon="151.2900642">
  <ele>353.33</ele>
  <time>2026-09-01T20:02:53Z</time>
  <course>10.39</course>
  <speed>0.08</speed>
  <fix>3d</fix>
</trkpt>
<trkpt lat="-27.2744391" lon="151.2900642">
  <ele>353.43</ele>
  <time>2026-09-01T20:02:53Z</time>
  <course>10.39</course>
  <speed>0.08</speed>
  <fix>3d</fix>
</trkpt>
<trkpt lat="-27.2744391" lon="151.2900641">
  <ele>353.13</ele>
  <time>2026-09-01T20:02:53Z</time>
  <course>189.99</course>
  <speed>0.08</speed>
  <fix>3d</fix>
</trkpt>
<trkpt lat="-27.2744392" lon="151.2900642">
  <ele>353.47</ele>
  <time>2026-09-01T20:02:53Z</time>
  <course>10.39</course>
  <speed>0.08</speed>
  <fix>3d</fix>
</trkpt>
<trkpt lat="-27.2744392" lon="151.2900642">
  <ele>353.58</ele>
  <time>2026-09-01T20:02:53Z</time>
  <course>10.4</course>
  <speed>0.07</speed>
  <fix>3d</fix>
</trkpt>
<trkpt lat="-27.2744391" lon="151.2900641">
  <ele>353.13</ele>
  <time>2026-09-01T20:02:53Z</time>
  <course>189.99</course>
  <speed>0.08</speed>
  <fix>3d</fix>
</trkpt>
<trkpt lat="-27.2744392" lon="151.2900642">
  <ele>353.58</ele>
  <time>2026-09-01T20:02:53Z</time>
  <course>10.4</course>
  <speed>0.07071067811865475</speed>
  <fix>3d</fix>
</trkpt>
<trkpt lat="-27.2744393" lon="151.2900642">
  <ele>353.72</ele>
  <time>2026-09-01T20:02:53Z</time>
  <course>10.4</course>
  <speed>0.07</speed>
  <fix>3d</fix>
</trkpt>
<trkpt lat="-27.2744392" lon="151.290064">
  <ele>353.41</ele>
  <time>2026-09-01T20:02:53Z</time>
  <course>190.81</course>
  <speed>0.07</speed>
  <fix>3d</fix>
</trkpt>
<trkpt lat="-27.2744393" lon="151.2900642">
  <ele>353.73</ele>
  <time>2026-09-01T20:02:53Z</time>
  <course>10.4</course>
  <speed>0.07</speed>
  <fix>3d</fix>
</trkpt>
<trkpt lat="-27.2744393" lon="151.2900642">
  <ele>353.86</ele>
  <time>2026-09-01T20:02:53Z</time>
  <course>10.4</course>
  <speed>0.06</speed>
  <fix>3d</fix>
</trkpt>
<trkpt lat="-27.2744392" lon="151.290064">
  <ele>353.41</ele>
  <time>2026-09-01T20:02:53Z</time>
  <course>190.81</course>
  <speed>0.07</speed>
  <fix>3d</fix>
</trkpt>
<trkpt lat="-27.2744394" lon="151.2900642">
  <ele>353.9</ele>
  <time>2026-09-01T20:02:53Z</time>
  <course>10.39</course>
  <speed>0.06082762530298219</speed>
  <fix>3d</fix>
</trkpt>
<trkpt lat="-27.2744394" lon="151.2900642">
  <ele>354.0</ele>
  <time>2026-09-01T20:02:53Z</time>
  <course>10.37</course>
  <speed>0.06082762530298219</speed>
  <fix>3d</fix>
</trkpt>
<trkpt lat="-27.2744393" lon="151.290064">
  <ele>353.7</ele>
  <time>2026-09-01T20:02:53Z</time>
  <course>192.03</course>
  <speed>0.06</speed>
  <fix>3d</fix>
</trkpt>
<trkpt lat="-27.2744394" lon="151.2900642">
  <ele>354.04</ele>
  <time>2026-09-01T20:02:53Z</time>
  <course>10.37</course>
  <speed>0.06082762530298219</speed>
  <fix>3d</fix>
</trkpt>
<trkpt lat="-27.2744394" lon="151.2900642">
  <ele>354.15</ele>
  <time>2026-09-01T20:02:53Z</time>
  <course>10.35</course>
  <speed>0.05099019513592785</speed>
  <fix>3d</fix>
</trkpt>
<trkpt lat="-27.2744393" lon="151.290064">
  <ele>353.7</ele>
  <time>2026-09-01T20:02:53Z</time>
  <course>192.03</course>
  <speed>0.06</speed>
  <fix>3d</fix>
</trkpt>
<trkpt lat="-27.2744395" lon="151.2900642">
  <ele>354.18</ele>
  <time>2026-09-01T20:02:53Z</time>
  <course>10.34</course>
  <speed>0.05099019513592785</speed>
  <fix>3d</fix>
</trkpt>
<trkpt lat="-27.2744395" lon="151.2900642">
  <ele>354.29</ele>
  <time>2026-09-01T20:02:53Z</time>
  <course>10.31</course>
  <speed>0.05099019513592785</speed>
  <fix>3d</fix>
</trkpt>
<trkpt lat="-27.2744394" lon="151.290064">
  <ele>353.99</ele>
  <time>2026-09-01T20:02:53Z</time>
  <course>192.9</course>
  <speed>0.05</speed>
  <fix>3d</fix>
</trkpt>
<trkpt lat="-27.2744395" lon="151.2900642">
  <ele>354.33</ele>
  <time>2026-09-01T20:02:53Z</time>
  <course>10.31</course>
  <speed>0.05099019513592785</speed>
  <fix>3d</fix>
</trkpt>
<trkpt lat="-27.2744395" lon="151.2900642">
  <ele>354.43</ele>
  <time>2026-09-01T20:02:53Z</time>
  <course>10.3</course>
  <speed>0.0412310562561766</speed>
  <fix>3d</fix>
</trkpt>
<trkpt lat="-27.2744394" lon="151.290064">
  <ele>353.99</ele>
  <time>2026-09-01T20:02:53Z</time>
  <course>192.9</course>
  <speed>0.05</speed>
  <fix>3d</fix>
</trkpt>
<trkpt lat="-27.2744395" lon="151.2900642">
  <ele>354.47</ele>
  <time>2026-09-01T20:02:53Z</time>
  <course>10.3</course>
  <speed>0.0412310562561766</speed>
  <fix>3d</fix>
</trkpt>
<trkpt lat="-27.2744396" lon="151.2900642">
  <ele>354.58</ele>
  <time>2026-09-01T20:02:53Z</time>
  <course>10.3</course>
  <speed>0.0412310562561766</speed>
  <fix>3d</fix>
</trkpt>
<trkpt lat="-27.2744395" lon="151.290064">
  <ele>354.28</ele>
  <time>2026-09-01T20:02:53Z</time>
  <course>193.81</course>
  <speed>0.04</speed>
  <fix>3d</fix>
</trkpt>
<trkpt lat="-27.2744396" lon="151.2900642">
  <ele>354.61</ele>
  <time>2026-09-01T20:02:53Z</time>
  <course>10.3</course>
  <speed>0.0412310562561766</speed>
  <fix>3d</fix>
</trkpt>
<trkpt lat="-27.2744396" lon="151.2900642">
  <ele>354.72</ele>
  <time>2026-09-01T20:02:53Z</time>
  <course>10.31</course>
  <speed>0.0316227766016838</speed>
  <fix>3d</fix>
</trkpt>
<trkpt lat="-27.2744395" lon="151.290064">
  <ele>354.28</ele>
  <time>2026-09-01T20:02:53Z</time>
  <course>193.81</course>
  <speed>0.04</speed>
  <fix>3d</fix>
</trkpt>
<trkpt lat="-27.2744396" lon="151.2900642">
  <ele>354.76</ele>
  <time>2026-09-01T20:02:53Z</time>
  <course>10.32</course>
  <speed>0.0316227766016838</speed>
  <fix>3d</fix>
</trkpt>
<trkpt lat="-27.2744396" lon="151.2900642">
  <ele>354.86</ele>
  <time>2026-09-01T20:02:53Z</time>
  <course>10.33</course>
  <speed>0.0316227766016838</speed>
  <fix>3d</fix>
</trkpt>
<trkpt lat="-27.2744396" lon="151.2900639">
  <ele>354.56</ele>
  <time>2026-09-01T20:02:53Z</time>
  <course>195.89</course>
  <speed>0.03</speed>
  <fix>3d</fix>
</trkpt>
<trkpt lat="-27.2744396" lon="151.2900642">
  <ele>354.9</ele>
  <time>2026-09-01T20:02:53Z</time>
  <course>10.33</course>
  <speed>0.0316227766016838</speed>
  <fix>3d</fix>
</trkpt>
<trkpt lat="-27.2744396" lon="151.2900641">
  <ele>355.01</ele>
  <time>2026-09-01T20:02:53Z</time>
  <course>10.35</course>
  <speed>0.022360679774997897</speed>
  <fix>3d</fix>
</trkpt>
<trkpt lat="-27.2744396" lon="151.2900639">
  <ele>354.56</ele>
  <time>2026-09-01T20:02:53Z</time>
  <course>195.89</course>
  <speed>0.03</speed>
  <fix>3d</fix>
</trkpt>
<trkpt lat="-27.2744396" lon="151.2900642">
  <ele>355.01</ele>
  <time>2026-09-01T20:02:53Z</time>
  <course>10.36</course>
  <speed>0.022360679774997897</speed>
  <fix>3d</fix>
</trkpt>
<trkpt lat="-27.2744397" lon="151.2900641">
  <ele>355.15</ele>
  <time>2026-09-01T20:02:53Z</time>
  <course>10.38</course>
  <speed>0.022360679774997897</speed>
  <fix>3d</fix>
</trkpt>
<trkpt lat="-27.2744396" lon="151.2900639">
  <ele>354.85</ele>
  <time>2026-09-01T20:02:53Z</time>
  <course>202.29</course>
  <speed>0.02</speed>
  <fix>3d</fix>
</trkpt>
<trkpt lat="-27.2744397" lon="151.2900641">
  <ele>355.16</ele>
  <time>2026-09-01T20:02:53Z</time>
  <course>10.38</course>
  <speed>0.022360679774997897</speed>
  <fix>3d</fix>
</trkpt>
<trkpt lat="-27.2744397" lon="151.2900641">
  <ele>355.3</ele>
  <time>2026-09-01T20:02:53Z</time>
  <course>10.41</course>
  <speed>0.01414213562373095</speed>
  <fix>3d</fix>
</trkpt>
<trkpt lat="-27.2744396" lon="151.2900639">
  <ele>354.85</ele>
  <time>2026-09-01T20:02:53Z</time>
  <course>202.29</course>
  <speed>0.02</speed>
  <fix>3d</fix>
</trkpt>
<trkpt lat="-27.2744397" lon="151.2900641">
  <ele>355.33</ele>
  <time>2026-09-01T20:02:53Z</time>
  <course>10.41</course>
  <speed>0.01414213562373095</speed>
  <fix>3d</fix>
</trkpt>
<trkpt lat="-27.2744397" lon="151.2900641">
  <ele>355.44</ele>
  <time>2026-09-01T20:02:53Z</time>
  <course>10.43</course>
  <speed>0.01414213562373095</speed>
  <fix>3d</fix>
</trkpt>
<trkpt lat="-27.2744397" lon="151.2900639">
  <ele>355.14</ele>
  <time>2026-09-01T20:02:53Z</time>
  <course>218.91</course>
  <speed>0.01</speed>
  <fix>3d</fix>
</trkpt>
<trkpt lat="-27.2744397" lon="151.2900641">
  <ele>355.49</ele>
  <time>2026-09-01T20:02:53Z</time>
  <course>10.43</course>
  <speed>0.01414213562373095</speed>
  <fix>3d</fix>
</trkpt>
<trkpt lat="-27.2744397" lon="151.2900641">
  <ele>355.58</ele>
  <time>2026-09-01T20:02:53Z</time>
  <course>10.45</course>
  <speed>0.01414213562373095</speed>
  <fix>3d</fix>
</trkpt>
<trkpt lat="-27.2744397" lon="151.2900639">
  <ele>355.14</ele>
  <time>2026-09-01T20:02:53Z</time>
  <course>218.91</course>
  <speed>0.01</speed>
  <fix>3d</fix>
</trkpt>
<trkpt lat="-27.2744397" lon="151.2900641">
  <ele>355.62</ele>
  <time>2026-09-01T20:02:53Z</time>
  <course>10.45</course>
  <speed>0.01414213562373095</speed>
  <fix>3d</fix>
</trkpt>
<trkpt lat="-27.2744397" lon="151.2900641">
  <ele>355.72</ele>
  <time>2026-09-01T20:02:53Z</time>
  <course>10.46</course>
  <speed>0.0</speed>
  <fix>3d</fix>
</trkpt>
<trkpt lat="-27.2744397" lon="151.2900639">
  <ele>355.43</ele>
  <time>2026-09-01T20:02:53Z</time>
  <course>258.35</course>
  <speed>0.0</speed>
  <fix>3d</fix>
</trkpt>
<trkpt lat="-27.2744397" lon="151.2900641">
  <ele>355.76</ele>
  <time>2026-09-01T20:02:53Z</time>
  <course>10.46</course>
  <speed>0.0</speed>
  <fix>3d</fix>
</trkpt>
<trkpt lat="-27.2744397" lon="151.2900641">
  <ele>355.87</ele>
  <time>2026-09-01T20:02:53Z</time>
  <course>10.47</course>
  <speed>0.0</speed>
  <fix>3d</fix>
</trkpt>
<trkpt lat="-27.2744397" lon="151.2900639">
  <ele>355.43</ele>
  <time>2026-09-01T20:02:53Z</time>
  <course>258.35</course>
  <speed>0.0</speed>
  <fix>3d</fix>
</trkpt>
<trkpt lat="-27.2744397" lon="151.2900641">
  <ele>355.9</ele>
  <time>2026-09-01T20:02:53Z</time>
  <course>10.47</course>
  <speed>0.0</speed>
  <fix>3d</fix>
</trkpt>
<trkpt lat="-27.2744397" lon="151.2900641">
  <ele>356.01</ele>
  <time>2026-09-01T20:02:53Z</time>
  <course>10.47</course>
  <speed>0.0</speed>
  <fix>3d</fix>
</trkpt>
<trkpt lat="-27.2744397" lon="151.2900639">
  <ele>355.71</ele>
  <time>2026-09-01T20:02:53Z</time>
  <course>303.94</course>
  <speed>0.01</speed>
  <fix>3d</fix>
</trkpt>
<trkpt lat="-27.2744397" lon="151.2900641">
  <ele>356.05</ele>
  <time>2026-09-01T20:02:53Z</time>
  <course>10.47</course>
  <speed>0.0</speed>
  <fix>3d</fix>
</trkpt>
<trkpt lat="-27.2744397" lon="151.2900641">
  <ele>356.16</ele>
  <time>2026-09-01T20:02:53Z</time>
  <course>10.47</course>
  <speed>0.0</speed>
  <fix>3d</fix>
</trkpt>
<trkpt lat="-27.2744397" lon="151.2900639">
  <ele>355.71</ele>
  <time>2026-09-01T20:02:53Z</time>
  <course>303.94</course>
  <speed>0.01</speed>
  <fix>3d</fix>
</trkpt>
<trkpt lat="-27.2744397" lon="151.2900641">
  <ele>356.16</ele>
  <time>2026-09-01T20:02:53Z</time>
  <course>10.47</course>
  <speed>0.0</speed>
  <fix>3d</fix>
</trkpt>
<trkpt lat="-27.2744397" lon="151.290064">
  <ele>356.3</ele>
  <time>2026-09-01T20:02:53Z</time>
  <course>10.47</course>
  <speed>0.0</speed>
  <fix>3d</fix>
</trkpt>
<trkpt lat="-27.2744397" lon="151.2900638">
  <ele>356.0</ele>
  <time>2026-09-01T20:02:53Z</time>
  <course>325.66</course>
  <speed>0.01</speed>
  <fix>3d</fix>
</trkpt>
<trkpt lat="-27.2744397" lon="151.290064">
  <ele>356.34</ele>
  <time>2026-09-01T20:02:53Z</time>
  <course>10.47</course>
  <speed>0.0</speed>
  <fix>3d</fix>
</trkpt>
<trkpt lat="-27.2744396" lon="151.290064">
  <ele>356.45</ele>
  <time>2026-09-01T20:02:53Z</time>
  <course>10.47</course>
  <speed>0.0</speed>
  <fix>3d</fix>
</trkpt>
<trkpt lat="-27.2744397" lon="151.2900638">
  <ele>356.0</ele>
  <time>2026-09-01T20:02:53Z</time>
  <course>325.66</course>
  <speed>0.01</speed>
  <fix>3d</fix>
</trkpt>
<trkpt lat="-27.2744396" lon="151.290064">
  <ele>356.48</ele>
  <time>2026-09-01T20:02:53Z</time>
  <course>10.47</course>
  <speed>0.0</speed>
  <fix>3d</fix>
</trkpt>
<trkpt lat="-27.2744396" lon="151.290064">
  <ele>356.59</ele>
  <time>2026-09-01T20:02:53Z</time>
  <course>10.47</course>
  <speed>0.01</speed>
  <fix>3d</fix>
</trkpt>
<trkpt lat="-27.2744397" lon="151.2900637">
  <ele>356.29</ele>
  <time>2026-09-01T20:02:53Z</time>
  <course>336.52</course>
  <speed>0.02</speed>
  <fix>3d</fix>
</trkpt>
<trkpt lat="-27.2744396" lon="151.290064">
  <ele>356.6</ele>
  <time>2026-09-01T20:02:53Z</time>
  <course>10.47</course>
  <speed>0.01</speed>
  <fix>3d</fix>
</trkpt>
<trkpt lat="-27.2744396" lon="151.290064">
  <ele>356.73</ele>
  <time>2026-09-01T20:02:53Z</time>
  <course>10.47</course>
  <speed>0.01</speed>
  <fix>3d</fix>
</trkpt>
<trkpt lat="-27.2744397" lon="151.2900637">
  <ele>356.29</ele>
  <time>2026-09-01T20:02:53Z</time>
  <course>336.52</course>
  <speed>0.02</speed>
  <fix>3d</fix>
</trkpt>
<trkpt lat="-27.2744396" lon="151.290064">
  <ele>356.74</ele>
  <time>2026-09-01T20:02:53Z</time>
  <course>10.47</course>
  <speed>0.01</speed>
  <fix>3d</fix>
</trkpt>
<trkpt lat="-27.2744396" lon="151.290064">
  <ele>356.88</ele>
  <time>2026-09-01T20:02:53Z</time>
  <course>10.47</course>
  <speed>0.01</speed>
  <fix>3d</fix>
</trkpt>
<trkpt lat="-27.2744397" lon="151.2900637">
  <ele>356.58</ele>
  <time>2026-09-01T20:02:53Z</time>
  <course>343.7</course>
  <speed>0.02</speed>
  <fix>3d</fix>
</trkpt>
<trkpt lat="-27.2744396" lon="151.290064">
  <ele>356.91</ele>
  <time>2026-09-01T20:02:53Z</time>
  <course>10.47</course>
  <speed>0.01</speed>
  <fix>3d</fix>
</trkpt>
<trkpt lat="-27.2744396" lon="151.2900639">
  <ele>357.02</ele>
  <time>2026-09-01T20:02:53Z</time>
  <course>10.48</course>
  <speed>0.01</speed>
  <fix>3d</fix>
</trkpt>
<trkpt lat="-27.2744397" lon="151.2900637">
  <ele>356.58</ele>
  <time>2026-09-01T20:02:53Z</time>
  <course>343.7</course>
  <speed>0.02</speed>
  <fix>3d</fix>
</trkpt>
<trkpt lat="-27.2744396" lon="151.2900639">
  <ele>357.06</ele>
  <time>2026-09-01T20:02:53Z</time>
  <course>10.48</course>
  <speed>0.01</speed>
  <fix>3d</fix>
</trkpt>
<trkpt lat="-27.2744396" lon="151.2900639">
  <ele>357.16</ele>
  <time>2026-09-01T20:02:53Z</time>
  <course>10.49</course>
  <speed>0.01</speed>
  <fix>3d</fix>
</trkpt>
<trkpt lat="-27.2744396" lon="151.2900637">
  <ele>356.86</ele>
  <time>2026-09-01T20:02:53Z</time>
  <course>349.03</course>
  <speed>0.03</speed>
  <fix>3d</fix>
</trkpt>
<trkpt lat="-27.2744396" lon="151.2900639">
  <ele>357.2</ele>
  <time>2026-09-01T20:02:53Z</time>
  <course>10.5</course>
  <speed>0.01</speed>
  <fix>3d</fix>
</trkpt>
<trkpt lat="-27.2744396" lon="151.2900639">
  <ele>357.31</ele>
  <time>2026-09-01T20:02:53Z</time>
  <course>10.51</course>
  <speed>0.02</speed>
  <fix>3d</fix>
</trkpt>
<trkpt lat="-27.2744396" lon="151.2900637">
  <ele>356.86</ele>
  <time>2026-09-01T20:02:53Z</time>
  <course>349.03</course>
  <speed>0.03</speed>
  <fix>3d</fix>
</trkpt>
<trkpt lat="-27.2744396" lon="151.2900639">
  <ele>357.34</ele>
  <time>2026-09-01T20:02:53Z</time>
  <course>10.52</course>
  <speed>0.02</speed>
  <fix>3d</fix>
</trkpt>
<trkpt lat="-27.2744396" lon="151.2900639">
  <ele>357.45</ele>
  <time>2026-09-01T20:02:53Z</time>
  <course>10.53</course>
  <speed>0.02</speed>
  <fix>3d</fix>
</trkpt>
<trkpt lat="-27.2744395" lon="151.2900637">
  <ele>357.15</ele>
  <time>2026-09-01T20:02:53Z</time>
  <course>352.75</course>
  <speed>0.03</speed>
  <fix>3d</fix>
</trkpt>
<trkpt lat="-27.2744396" lon="151.2900639">
  <ele>357.49</ele>
  <time>2026-09-01T20:02:53Z</time>
  <course>10.54</course>
  <speed>0.02</speed>
  <fix>3d</fix>
</trkpt>
<trkpt lat="-27.2744396" lon="151.2900639">
  <ele>357.59</ele>
  <time>2026-09-01T20:02:53Z</time>
  <course>10.56</course>
  <speed>0.02</speed>
  <fix>3d</fix>
</trkpt>
<trkpt lat="-27.2744395" lon="151.2900637">
  <ele>357.15</ele>
  <time>2026-09-01T20:02:53Z</time>
  <course>352.75</course>
  <speed>0.03</speed>
  <fix>3d</fix>
</trkpt>
<trkpt lat="-27.2744396" lon="151.2900639">
  <ele>357.62</ele>
  <time>2026-09-01T20:02:53Z</time>
  <course>10.56</course>
  <speed>0.02</speed>
  <fix>3d</fix>
</trkpt>
<trkpt lat="-27.2744395" lon="151.2900639">
  <ele>357.73</ele>
  <time>2026-09-01T20:02:53Z</time>
  <course>10.58</course>
  <speed>0.02</speed>
  <fix>3d</fix>
</trkpt>
<trkpt lat="-27.2744395" lon="151.2900637">
  <ele>357.44</ele>
  <time>2026-09-01T20:02:53Z</time>
  <course>354.93</course>
  <speed>0.04</speed>
  <fix>3d</fix>
</trkpt>
<trkpt lat="-27.2744395" lon="151.2900639">
  <ele>357.77</ele>
  <time>2026-09-01T20:02:53Z</time>
  <course>10.59</course>
  <speed>0.02</speed>
  <fix>3d</fix>
</trkpt>
<trkpt lat="-27.2744395" lon="151.2900638">
  <ele>357.87</ele>
  <time>2026-09-01T20:02:53Z</time>
  <course>10.6</course>
  <speed>0.02</speed>
  <fix>3d</fix>
</trkpt>
<trkpt lat="-27.2744395" lon="151.2900637">
  <ele>357.44</ele>
  <time>2026-09-01T20:02:53Z</time>
  <course>354.93</course>
  <speed>0.04</speed>
  <fix>3d</fix>
</trkpt>
<trkpt lat="-27.2744395" lon="151.2900638">
  <ele>357.91</ele>
  <time>2026-09-01T20:02:53Z</time>
  <course>10.61</course>
  <speed>0.02</speed>
  <fix>3d</fix>
</trkpt>
<trkpt lat="-27.2744395" lon="151.2900638">
  <ele>358.01</ele>
  <time>2026-09-01T20:02:53Z</time>
  <course>10.62</course>
  <speed>0.02</speed>
  <fix>3d</fix>
</trkpt>
<trkpt lat="-27.2744394" lon="151.2900637">
  <ele>357.72</ele>
  <time>2026-09-01T20:02:53Z</time>
  <course>356.43</course>
  <speed>0.04</speed>
  <fix>3d</fix>
</trkpt>
<trkpt lat="-27.2744395" lon="151.2900638">
  <ele>358.02</ele>
  <time>2026-09-01T20:02:53Z</time>
  <course>10.62</course>
  <speed>0.02</speed>
  <fix>3d</fix>
</trkpt>
<trkpt lat="-27.2744394" lon="151.2900638">
  <ele>358.16</ele>
  <time>2026-09-01T20:02:53Z</time>
  <course>10.63</course>
  <speed>0.02</speed>
  <fix>3d</fix>
</trkpt>
<trkpt lat="-27.2744394" lon="151.2900637">
  <ele>357.72</ele>
  <time>2026-09-01T20:02:53Z</time>
  <course>356.43</course>
  <speed>0.04</speed>
  <fix>3d</fix>
</trkpt>
<trkpt lat="-27.2744394" lon="151.2900638">
  <ele>358.16</ele>
  <time>2026-09-01T20:02:53Z</time>
  <course>10.63</course>
  <speed>0.02</speed>
  <fix>3d</fix>
</trkpt>
<trkpt lat="-27.2744394" lon="151.2900638">
  <ele>358.3</ele>
  <time>2026-09-01T20:02:53Z</time>
  <course>10.64</course>
  <speed>0.02</speed>
  <fix>3d</fix>
</trkpt>
<trkpt lat="-27.2744393" lon="151.2900637">
  <ele>358.01</ele>
  <time>2026-09-01T20:02:53Z</time>
  <course>358.46</course>
  <speed>0.04</speed>
  <fix>3d</fix>
</trkpt>
<trkpt lat="-27.2744394" lon="151.2900638">
  <ele>358.34</ele>
  <time>2026-09-01T20:02:53Z</time>
  <course>10.64</course>
  <speed>0.02</speed>
  <fix>3d</fix>
</trkpt>
<trkpt lat="-27.2744394" lon="151.2900638">
  <ele>358.45</ele>
  <time>2026-09-01T20:02:53Z</time>
  <course>10.65</course>
  <speed>0.02</speed>
  <fix>3d</fix>
</trkpt>
<trkpt lat="-27.2744393" lon="151.2900637">
  <ele>358.01</ele>
  <time>2026-09-01T20:02:53Z</time>
  <course>358.46</course>
  <speed>0.04</speed>
  <fix>3d</fix>
</trkpt>
<trkpt lat="-27.2744393" lon="151.2900638">
  <ele>358.48</ele>
  <time>2026-09-01T20:02:53Z</time>
  <course>10.65</course>
  <speed>0.02</speed>
  <fix>3d</fix>
</trkpt>
<trkpt lat="-27.2744393" lon="151.2900638">
  <ele>358.59</ele>
  <time>2026-09-01T20:02:53Z</time>
  <course>10.66</course>
  <speed>0.02</speed>
  <fix>3d</fix>
</trkpt>
<trkpt lat="-27.2744392" lon="151.2900637">
  <ele>358.3</ele>
  <time>2026-09-01T20:02:53Z</time>
  <course>1.1</course>
  <speed>0.04</speed>
  <fix>3d</fix>
</trkpt>
<trkpt lat="-27.2744393" lon="151.2900638">
  <ele>358.63</ele>
  <time>2026-09-01T20:02:53Z</time>
  <course>10.66</course>
  <speed>0.02</speed>
  <fix>3d</fix>
</trkpt>
<trkpt lat="-27.2744393" lon="151.2900638">
  <ele>358.74</ele>
  <time>2026-09-01T20:02:53Z</time>
  <course>10.67</course>
  <speed>0.02</speed>
  <fix>3d</fix>
</trkpt>
<trkpt lat="-27.2744392" lon="151.2900637">
  <ele>358.3</ele>
  <time>2026-09-01T20:02:53Z</time>
  <course>1.1</course>
  <speed>0.04</speed>
  <fix>3d</fix>
</trkpt>
<trkpt lat="-27.2744393" lon="151.2900638">
  <ele>358.77</ele>
  <time>2026-09-01T20:02:53Z</time>
  <course>10.67</course>
  <speed>0.02</speed>
  <fix>3d</fix>
</trkpt>
<trkpt lat="-27.2744392" lon="151.2900638">
  <ele>358.88</ele>
  <time>2026-09-01T20:02:53Z</time>
  <course>10.68</course>
  <speed>0.02</speed>
  <fix>3d</fix>
</trkpt>
<trkpt lat="-27.2744391" lon="151.2900637">
  <ele>358.59</ele>
  <time>2026-09-01T20:02:53Z</time>
  <course>3.79</course>
  <speed>0.04</speed>
  <fix>3d</fix>
</trkpt>
<trkpt lat="-27.2744392" lon="151.2900638">
  <ele>358.92</ele>
  <time>2026-09-01T20:02:53Z</time>
  <course>10.68</course>
  <speed>0.02</speed>
  <fix>3d</fix>
</trkpt>
<trkpt lat="-27.2744392" lon="151.2900638">
  <ele>359.03</ele>
  <time>2026-09-01T20:02:53Z</time>
  <course>10.69</course>
  <speed>0.02</speed>
  <fix>3d</fix>
</trkpt>
<trkpt lat="-27.2744391" lon="151.2900637">
  <ele>358.59</ele>
  <time>2026-09-01T20:02:53Z</time>
  <course>3.79</course>
  <speed>0.04</speed>
  <fix>3d</fix>
</trkpt>
<trkpt lat="-27.2744392" lon="151.2900638">
  <ele>359.07</ele>
  <time>2026-09-01T20:02:53Z</time>
  <course>10.7</course>
  <speed>0.02</speed>
  <fix>3d</fix>
</trkpt>
<trkpt lat="-27.2744392" lon="151.2900638">
  <ele>359.18</ele>
  <time>2026-09-01T20:02:53Z</time>
  <course>10.7</course>
  <speed>0.02</speed>
  <fix>3d</fix>
</trkpt>
<trkpt lat="-27.2744391" lon="151.2900637">
  <ele>358.88</ele>
  <time>2026-09-01T20:02:53Z</time>
  <course>5.6</course>
  <speed>0.04</speed>
  <fix>3d</fix>
</trkpt>
<trkpt lat="-27.2744391" lon="151.2900638">
  <ele>359.22</ele>
  <time>2026-09-01T20:02:53Z</time>
  <course>10.71</course>
  <speed>0.02</speed>
  <fix>3d</fix>
</trkpt>
<trkpt lat="-27.2744391" lon="151.2900638">
  <ele>359.32</ele>
  <time>2026-09-01T20:02:53Z</time>
  <course>10.71</course>
  <speed>0.02</speed>
  <fix>3d</fix>
</trkpt>
<trkpt lat="-27.2744391" lon="151.2900637">
  <ele>358.88</ele>
  <time>2026-09-01T20:02:53Z</time>
  <course>5.6</course>
  <speed>0.04</speed>
  <fix>3d</fix>
</trkpt>
<trkpt lat="-27.2744391" lon="151.2900638">
  <ele>359.36</ele>
  <time>2026-09-01T20:02:53Z</time>
  <course>10.72</course>
  <speed>0.02</speed>
  <fix>3d</fix>
</trkpt>
<trkpt lat="-27.2744391" lon="151.2900638">
  <ele>359.47</ele>
  <time>2026-09-01T20:02:53Z</time>
  <course>10.72</course>
  <speed>0.02</speed>
  <fix>3d</fix>
</trkpt>
<trkpt lat="-27.274439" lon="151.2900637">
  <ele>359.16</ele>
  <time>2026-09-01T20:02:53Z</time>
  <course>7.08</course>
  <speed>0.04</speed>
  <fix>3d</fix>
</trkpt>
<trkpt lat="-27.2744391" lon="151.2900638">
  <ele>359.5</ele>
  <time>2026-09-01T20:02:53Z</time>
  <course>10.73</course>
  <speed>0.02</speed>
  <fix>3d</fix>
</trkpt>
<trkpt lat="-27.274439" lon="151.2900638">
  <ele>359.61</ele>
  <time>2026-09-01T20:02:53Z</time>
  <course>10.73</course>
  <speed>0.02</speed>
  <fix>3d</fix>
</trkpt>
<trkpt lat="-27.274439" lon="151.2900637">
  <ele>359.16</ele>
  <time>2026-09-01T20:02:53Z</time>
  <course>7.08</course>
  <speed>0.04</speed>
  <fix>3d</fix>
</trkpt>
<trkpt lat="-27.274439" lon="151.2900638">
  <ele>359.61</ele>
  <time>2026-09-01T20:02:53Z</time>
  <course>10.73</course>
  <speed>0.02</speed>
  <fix>3d</fix>
</trkpt>
<trkpt lat="-27.274439" lon="151.2900638">
  <ele>359.75</ele>
  <time>2026-09-01T20:02:53Z</time>
  <course>10.74</course>
  <speed>0.02</speed>
  <fix>3d</fix>
</trkpt>
<trkpt lat="-27.2744389" lon="151.2900637">
  <ele>359.45</ele>
  <time>2026-09-01T20:02:53Z</time>
  <course>8.82</course>
  <speed>0.04</speed>
  <fix>3d</fix>
</trkpt>
<trkpt lat="-27.274439" lon="151.2900638">
  <ele>359.76</ele>
  <time>2026-09-01T20:02:53Z</time>
  <course>10.74</course>
  <speed>0.02</speed>
  <fix>3d</fix>
</trkpt>
<trkpt lat="-27.274439" lon="151.2900638">
  <ele>359.9</ele>
  <time>2026-09-01T20:02:53Z</time>
  <course>10.75</course>
  <speed>0.02</speed>
  <fix>3d</fix>
</trkpt>
<trkpt lat="-27.2744389" lon="151.2900637">
  <ele>359.45</ele>
  <time>2026-09-01T20:02:53Z</time>
  <course>8.82</course>
  <speed>0.04</speed>
  <fix>3d</fix>
</trkpt>
<trkpt lat="-27.274439" lon="151.2900638">
  <ele>359.94</ele>
  <time>2026-09-01T20:02:53Z</time>
  <course>10.75</course>
  <speed>0.02</speed>
  <fix>3d</fix>
</trkpt>
<trkpt lat="-27.2744389" lon="151.2900638">
  <ele>360.04</ele>
  <time>2026-09-01T20:02:53Z</time>
  <course>10.75</course>
  <speed>0.02</speed>
  <fix>3d</fix>
</trkpt>
<trkpt lat="-27.2744388" lon="151.2900637">
  <ele>359.74</ele>
  <time>2026-09-01T20:02:53Z</time>
  <course>10.59</course>
  <speed>0.04</speed>
  <fix>3d</fix>
</trkpt>
<trkpt lat="-27.2744389" lon="151.2900638">
  <ele>360.08</ele>
  <time>2026-09-01T20:02:53Z</time>
  <course>10.75</course>
  <speed>0.02</speed>
  <fix>3d</fix>
</trkpt>
<trkpt lat="-27.2744389" lon="151.2900638">
  <ele>360.18</ele>
  <time>2026-09-01T20:02:53Z</time>
  <course>10.76</course>
  <speed>0.01</speed>
  <fix>3d</fix>
</trkpt>
<trkpt lat="-27.2744388" lon="151.2900637">
  <ele>359.74</ele>
  <time>2026-09-01T20:02:53Z</time>
  <course>10.59</course>
  <speed>0.04</speed>
  <fix>3d</fix>
</trkpt>
<trkpt lat="-27.2744389" lon="151.2900638">
  <ele>360.23</ele>
  <time>2026-09-01T20:02:53Z</time>
  <course>10.76</course>
  <speed>0.01</speed>
  <fix>3d</fix>
</trkpt>
<trkpt lat="-27.2744389" lon="151.2900638">
  <ele>360.33</ele>
  <time>2026-09-01T20:02:53Z</time>
  <course>10.76</course>
  <speed>0.01</speed>
  <fix>3d</fix>
</trkpt>
<trkpt lat="-27.2744388" lon="151.2900637">
  <ele>360.03</ele>
  <time>2026-09-01T20:02:53Z</time>
  <course>12.86</course>
  <speed>0.03</speed>
  <fix>3d</fix>
</trkpt>
<trkpt lat="-27.2744389" lon="151.2900638">
  <ele>360.33</ele>
  <time>2026-09-01T20:02:53Z</time>
  <course>10.77</course>
  <speed>0.01</speed>
  <fix>3d</fix>
</trkpt>
<trkpt lat="-27.2744388" lon="151.2900638">
  <ele>360.47</ele>
  <time>2026-09-01T20:02:53Z</time>
  <course>10.77</course>
  <speed>0.01</speed>
  <fix>3d</fix>
</trkpt>
<trkpt lat="-27.2744388" lon="151.2900637">
  <ele>360.03</ele>
  <time>2026-09-01T20:02:53Z</time>
  <course>12.86</course>
  <speed>0.03</speed>
  <fix>3d</fix>
</trkpt>
<trkpt lat="-27.2744388" lon="151.2900638">
  <ele>360.5</ele>
  <time>2026-09-01T20:02:53Z</time>
  <course>10.77</course>
  <speed>0.01</speed>
  <fix>3d</fix>
</trkpt>
<trkpt lat="-27.2744388" lon="151.2900638">
  <ele>360.61</ele>
  <time>2026-09-01T20:02:53Z</time>
  <course>10.78</course>
  <speed>0.01</speed>
  <fix>3d</fix>
</trkpt>
<trkpt lat="-27.2744387" lon="151.2900637">
  <ele>360.32</ele>
  <time>2026-09-01T20:02:53Z</time>
  <course>16.03</course>
  <speed>0.03</speed>
  <fix>3d</fix>
</trkpt>
<trkpt lat="-27.2744388" lon="151.2900638">
  <ele>360.61</ele>
  <time>2026-09-01T20:02:53Z</time>
  <course>10.78</course>
  <speed>0.01</speed>
  <fix>3d</fix>
</trkpt>
<trkpt lat="-27.2744388" lon="151.2900638">
  <ele>360.74</ele>
  <time>2026-09-01T20:02:53Z</time>
  <course>10.79</course>
  <speed>0.01</speed>
  <fix>3d</fix>
</trkpt>
<trkpt lat="-27.2744387" lon="151.2900637">
  <ele>360.32</ele>
  <time>2026-09-01T20:02:53Z</time>
  <course>16.03</course>
  <speed>0.03</speed>
  <fix>3d</fix>
</trkpt>
<trkpt lat="-27.2744388" lon="151.2900638">
  <ele>360.75</ele>
  <time>2026-09-01T20:02:53Z</time>
  <course>10.79</course>
  <speed>0.01</speed>
  <fix>3d</fix>
</trkpt>
<trkpt lat="-27.2744388" lon="151.2900638">
  <ele>360.88</ele>
  <time>2026-09-01T20:02:53Z</time>
  <course>10.81</course>
  <speed>0.0</speed>
  <fix>3d</fix>
</trkpt>
<trkpt lat="-27.2744387" lon="151.2900637">
  <ele>360.6</ele>
  <time>2026-09-01T20:02:53Z</time>
  <course>19.73</course>
  <speed>0.02</speed>
  <fix>3d</fix>
</trkpt>
<trkpt lat="-27.2744388" lon="151.2900638">
  <ele>360.92</ele>
  <time>2026-09-01T20:02:53Z</time>
  <course>10.81</course>
  <speed>0.0</speed>
  <fix>3d</fix>
</trkpt>
<trkpt lat="-27.2744388" lon="151.2900638">
  <ele>361.02</ele>
  <time>2026-09-01T20:02:53Z</time>
  <course>10.82</course>
  <speed>0.0</speed>
  <fix>3d</fix>
</trkpt>
<trkpt lat="-27.2744387" lon="151.2900637">
  <ele>360.6</ele>
  <time>2026-09-01T20:02:53Z</time>
  <course>19.73</course>
  <speed>0.02</speed>
  <fix>3d</fix>
</trkpt>
<trkpt lat="-27.2744387" lon="151.2900638">
  <ele>361.06</ele>
  <time>2026-09-01T20:02:53Z</time>
  <course>10.82</course>
  <speed>0.0</speed>
  <fix>3d</fix>
</trkpt>
<trkpt lat="-27.2744387" lon="151.2900638">
  <ele>361.17</ele>
  <time>2026-09-01T20:02:53Z</time>
  <course>10.83</course>
  <speed>0.0</speed>
  <fix>3d</fix>
</trkpt>
<trkpt lat="-27.2744386" lon="151.2900637">
  <ele>360.89</ele>
  <time>2026-09-01T20:02:53Z</time>
  <course>23.7</course>
  <speed>0.02</speed>
  <fix>3d</fix>
</trkpt>
<trkpt lat="-27.2744387" lon="151.2900638">
  <ele>361.17</ele>
  <time>2026-09-01T20:02:53Z</time>
  <course>10.83</course>
  <speed>0.0</speed>
  <fix>3d</fix>
</trkpt>
<trkpt lat="-27.2744387" lon="151.2900638">
  <ele>361.31</ele>
  <time>2026-09-01T20:02:53Z</time>
  <course>10.85</course>
  <speed>0.0</speed>
  <fix>3d</fix>
</trkpt>
<trkpt lat="-27.2744386" lon="151.2900637">
  <ele>360.89</ele>
  <time>2026-09-01T20:02:53Z</time>
  <course>23.7</course>
  <speed>0.02</speed>
  <fix>3d</fix>
</trkpt>
<trkpt lat="-27.2744387" lon="151.2900638">
  <ele>361.31</ele>
  <time>2026-09-01T20:02:53Z</time>
  <course>10.85</course>
  <speed>0.0</speed>
  <fix>3d</fix>
</trkpt>
<trkpt lat="-27.2744387" lon="151.2900638">
  <ele>361.45</ele>
  <time>2026-09-01T20:02:53Z</time>
  <course>10.85</course>
  <speed>0.0</speed>
  <fix>3d</fix>
</trkpt>
<trkpt lat="-27.2744386" lon="151.2900637">
  <ele>361.17</ele>
  <time>2026-09-01T20:02:53Z</time>
  <course>29.19</course>
  <speed>0.02</speed>
  <fix>3d</fix>
</trkpt>
<trkpt lat="-27.2744387" lon="151.2900638">
  <ele>361.5</ele>
  <time>2026-09-01T20:02:53Z</time>
  <course>10.85</course>
  <speed>0.0</speed>
  <fix>3d</fix>
</trkpt>
<trkpt lat="-27.2744387" lon="151.2900638">
  <ele>361.6</ele>
  <time>2026-09-01T20:02:53Z</time>
  <course>10.85</course>
  <speed>0.0</speed>
  <fix>3d</fix>
</trkpt>
<trkpt lat="-27.2744386" lon="151.2900637">
  <ele>361.17</ele>
  <time>2026-09-01T20:02:53Z</time>
  <course>29.19</course>
  <speed>0.02</speed>
  <fix>3d</fix>
</trkpt>
<trkpt lat="-27.2744387" lon="151.2900638">
  <ele>361.63</ele>
  <time>2026-09-01T20:02:53Z</time>
  <course>10.85</course>
  <speed>0.0</speed>
  <fix>3d</fix>
</trkpt>
<trkpt lat="-27.2744387" lon="151.2900638">
  <ele>361.74</ele>
  <time>2026-09-01T20:02:53Z</time>
  <course>10.86</course>
  <speed>0.0</speed>
  <fix>3d</fix>
</trkpt>
<trkpt lat="-27.2744386" lon="151.2900637">
  <ele>361.46</ele>
  <time>2026-09-01T20:02:53Z</time>
  <course>36.74</course>
  <speed>0.01</speed>
  <fix>3d</fix>
</trkpt>
<trkpt lat="-27.2744387" lon="151.2900638">
  <ele>361.79</ele>
  <time>2026-09-01T20:02:53Z</time>
  <course>10.86</course>
  <speed>0.0</speed>
  <fix>3d</fix>
</trkpt>
<trkpt lat="-27.2744387" lon="151.2900638">
  <ele>361.88</ele>
  <time>2026-09-01T20:02:53Z</time>
  <course>10.86</course>
  <speed>0.0</speed>
  <fix>3d</fix>
</trkpt>
<trkpt lat="-27.2744386" lon="151.2900637">
  <ele>361.46</ele>
  <time>2026-09-01T20:02:53Z</time>
  <course>36.74</course>
  <speed>0.01</speed>
  <fix>3d</fix>
</trkpt>
<trkpt lat="-27.2744387" lon="151.2900638">
  <ele>361.92</ele>
  <time>2026-09-01T20:02:53Z</time>
  <course>10.86</course>
  <speed>0.0</speed>
  <fix>3d</fix>
</trkpt>
<trkpt lat="-27.2744387" lon="151.2900638">
  <ele>362.03</ele>
  <time>2026-09-01T20:02:53Z</time>
  <course>10.86</course>
  <speed>0.0</speed>
  <fix>3d</fix>
</trkpt>
<trkpt lat="-27.2744385" lon="151.2900638">
  <ele>361.75</ele>
  <time>2026-09-01T20:02:53Z</time>
  <course>46.04</course>
  <speed>0.01</speed>
  <fix>3d</fix>
</trkpt>
<trkpt lat="-27.2744387" lon="151.2900638">
  <ele>362.05</ele>
  <time>2026-09-01T20:02:53Z</time>
  <course>10.86</course>
  <speed>0.0</speed>
  <fix>3d</fix>
</trkpt>
<trkpt lat="-27.2744387" lon="151.2900638">
  <ele>362.17</ele>
  <time>2026-09-01T20:02:53Z</time>
  <course>10.87</course>
  <speed>0.0</speed>
  <fix>3d</fix>
</trkpt>
<trkpt lat="-27.2744385" lon="151.2900638">
  <ele>361.75</ele>
  <time>2026-09-01T20:02:53Z</time>
  <course>46.04</course>
  <speed>0.01</speed>
  <fix>3d</fix>
</trkpt>
<trkpt lat="-27.2744387" lon="151.2900638">
  <ele>362.23</ele>
  <time>2026-09-01T20:02:53Z</time>
  <course>10.87</course>
  <speed>0.0</speed>
  <fix>3d</fix>
</trkpt>
<trkpt lat="-27.2744387" lon="151.2900638">
  <ele>362.32</ele>
  <time>2026-09-01T20:02:53Z</time>
  <course>10.88</course>
  <speed>0.0</speed>
  <fix>3d</fix>
</trkpt>
<trkpt lat="-27.2744385" lon="151.2900639">
  <ele>362.04</ele>
  <time>2026-09-01T20:02:53Z</time>
  <course>56.99</course>
  <speed>0.01</speed>
  <fix>3d</fix>
</trkpt>
<trkpt lat="-27.2744387" lon="151.2900638">
  <ele>362.36</ele>
  <time>2026-09-01T20:02:53Z</time>
  <course>10.89</course>
  <speed>0.0</speed>
  <fix>3d</fix>
</trkpt>
<trkpt lat="-27.2744387" lon="151.2900638">
  <ele>362.46</ele>
  <time>2026-09-01T20:02:53Z</time>
  <course>10.9</course>
  <speed>0.0</speed>
  <fix>3d</fix>
</trkpt>
<trkpt lat="-27.2744385" lon="151.2900639">
  <ele>362.04</ele>
  <time>2026-09-01T20:02:53Z</time>
  <course>56.99</course>
  <speed>0.01</speed>
  <fix>3d</fix>
</trkpt>
<trkpt lat="-27.2744387" lon="151.2900638">
  <ele>362.5</ele>
  <time>2026-09-01T20:02:53Z</time>
  <course>10.91</course>
  <speed>0.0</speed>
  <fix>3d</fix>
</trkpt>
<trkpt lat="-27.2744387" lon="151.2900638">
  <ele>362.61</ele>
  <time>2026-09-01T20:02:53Z</time>
  <course>10.92</course>
  <speed>0.01</speed>
  <fix>3d</fix>
</trkpt>
<trkpt lat="-27.2744385" lon="151.2900639">
  <ele>362.34</ele>
  <time>2026-09-01T20:02:53Z</time>
  <course>68.27</course>
  <speed>0.01</speed>
  <fix>3d</fix>
</trkpt>
<trkpt lat="-27.2744386" lon="151.2900638">
  <ele>362.66</ele>
  <time>2026-09-01T20:02:53Z</time>
  <course>10.92</course>
  <speed>0.01</speed>
  <fix>3d</fix>
</trkpt>
<trkpt lat="-27.2744386" lon="151.2900638">
  <ele>362.76</ele>
  <time>2026-09-01T20:02:53Z</time>
  <course>10.94</course>
  <speed>0.01</speed>
  <fix>3d</fix>
</trkpt>
<trkpt lat="-27.2744385" lon="151.2900639">
  <ele>362.34</ele>
  <time>2026-09-01T20:02:53Z</time>
  <course>68.27</course>
  <speed>0.01</speed>
  <fix>3d</fix>
</trkpt>
<trkpt lat="-27.2744386" lon="151.2900638">
  <ele>362.76</ele>
  <time>2026-09-01T20:02:53Z</time>
  <course>10.94</course>
  <speed>0.01</speed>
  <fix>3d</fix>
</trkpt>
<trkpt lat="-27.2744386" lon="151.2900638">
  <ele>362.9</ele>
  <time>2026-09-01T20:02:53Z</time>
  <course>10.94</course>
  <speed>0.01</speed>
  <fix>3d</fix>
</trkpt>
<trkpt lat="-27.2744385" lon="151.2900639">
  <ele>362.63</ele>
  <time>2026-09-01T20:02:53Z</time>
  <course>78.25</course>
  <speed>0.0</speed>
  <fix>3d</fix>
</trkpt>
<trkpt lat="-27.2744386" lon="151.2900638">
  <ele>362.91</ele>
  <time>2026-09-01T20:02:53Z</time>
  <course>10.94</course>
  <speed>0.01</speed>
  <fix>3d</fix>
</trkpt>
<trkpt lat="-27.2744386" lon="151.2900638">
  <ele>363.05</ele>
  <time>2026-09-01T20:02:53Z</time>
  <course>10.94</course>
  <speed>0.01</speed>
  <fix>3d</fix>
</trkpt>
<trkpt lat="-27.2744385" lon="151.2900639">
  <ele>362.63</ele>
  <time>2026-09-01T20:02:53Z</time>
  <course>78.25</course>
  <speed>0.0</speed>
  <fix>3d</fix>
</trkpt>
<trkpt lat="-27.2744386" lon="151.2900638">
  <ele>363.09</ele>
  <time>2026-09-01T20:02:53Z</time>
  <course>10.94</course>
  <speed>0.01</speed>
  <fix>3d</fix>
</trkpt>
<trkpt lat="-27.2744386" lon="151.2900638">
  <ele>363.2</ele>
  <time>2026-09-01T20:02:53Z</time>
  <course>10.93</course>
  <speed>0.01</speed>
  <fix>3d</fix>
</trkpt>
<trkpt lat="-27.2744385" lon="151.2900639">
  <ele>362.92</ele>
  <time>2026-09-01T20:02:53Z</time>
  <course>89.18</course>
  <speed>0.0</speed>
  <fix>3d</fix>
</trkpt>
<trkpt lat="-27.2744386" lon="151.2900638">
  <ele>363.23</ele>
  <time>2026-09-01T20:02:53Z</time>
  <course>10.93</course>
  <speed>0.01</speed>
  <fix>3d</fix>
</trkpt>
<trkpt lat="-27.2744386" lon="151.2900638">
  <ele>363.34</ele>
  <time>2026-09-01T20:02:53Z</time>
  <course>10.92</course>
  <speed>0.01</speed>
  <fix>3d</fix>
</trkpt>
<trkpt lat="-27.2744385" lon="151.2900639">
  <ele>362.92</ele>
  <time>2026-09-01T20:02:53Z</time>
  <course>89.18</course>
  <speed>0.0</speed>
  <fix>3d</fix>
</trkpt>
<trkpt lat="-27.2744386" lon="151.2900638">
  <ele>363.39</ele>
  <time>2026-09-01T20:02:53Z</time>
  <course>10.92</course>
  <speed>0.01</speed>
  <fix>3d</fix>
</trkpt>
<trkpt lat="-27.2744386" lon="151.2900638">
  <ele>363.49</ele>
  <time>2026-09-01T20:02:53Z</time>
  <course>10.91</course>
  <speed>0.01</speed>
  <fix>3d</fix>
</trkpt>
<trkpt lat="-27.2744385" lon="151.2900639">
  <ele>363.21</ele>
  <time>2026-09-01T20:02:53Z</time>
  <course>102.03</course>
  <speed>0.0</speed>
  <fix>3d</fix>
</trkpt>
<trkpt lat="-27.2744386" lon="151.2900638">
  <ele>363.53</ele>
  <time>2026-09-01T20:02:53Z</time>
  <course>10.91</course>
  <speed>0.01</speed>
  <fix>3d</fix>
</trkpt>
<trkpt lat="-27.2744386" lon="151.2900638">
  <ele>363.63</ele>
  <time>2026-09-01T20:02:53Z</time>
  <course>10.9</course>
  <speed>0.01</speed>
  <fix>3d</fix>
</trkpt>
<trkpt lat="-27.2744385" lon="151.2900639">
  <ele>363.21</ele>
  <time>2026-09-01T20:02:53Z</time>
  <course>102.03</course>
  <speed>0.0</speed>
  <fix>3d</fix>
</trkpt>
<trkpt lat="-27.2744386" lon="151.2900638">
  <ele>363.68</ele>
  <time>2026-09-01T20:02:53Z</time>
  <course>10.9</course>
  <speed>0.01</speed>
  <fix>3d</fix>
</trkpt>
<trkpt lat="-27.2744387" lon="151.2900638">
  <ele>363.77</ele>
  <time>2026-09-01T20:02:53Z</time>
  <course>10.89</course>
  <speed>0.01</speed>
  <fix>3d</fix>
</trkpt>
<trkpt lat="-27.2744385" lon="151.290064">
  <ele>363.5</ele>
  <time>2026-09-01T20:02:53Z</time>
  <course>118.95</course>
  <speed>0.0</speed>
  <fix>3d</fix>
</trkpt>
<trkpt lat="-27.2744387" lon="151.2900638">
  <ele>363.82</ele>
  <time>2026-09-01T20:02:53Z</time>
  <course>10.89</course>
  <speed>0.01</speed>
  <fix>3d</fix>
</trkpt>
<trkpt lat="-27.2744387" lon="151.2900638">
  <ele>363.92</ele>
  <time>2026-09-01T20:02:53Z</time>
  <course>10.89</course>
  <speed>0.01</speed>
  <fix>3d</fix>
</trkpt>
<trkpt lat="-27.2744385" lon="151.290064">
  <ele>363.5</ele>
  <time>2026-09-01T20:02:53Z</time>
  <course>118.95</course>
  <speed>0.0</speed>
  <fix>3d</fix>
</trkpt>
<trkpt lat="-27.2744387" lon="151.2900639">
  <ele>363.96</ele>
  <time>2026-09-01T20:02:53Z</time>
  <course>10.89</course>
  <speed>0.01</speed>
  <fix>3d</fix>
</trkpt>
<trkpt lat="-27.2744387" lon="151.2900639">
  <ele>364.06</ele>
  <time>2026-09-01T20:02:53Z</time>
  <course>10.88</course>
  <speed>0.01</speed>
  <fix>3d</fix>
</trkpt>
<trkpt lat="-27.2744385" lon="151.290064">
  <ele>363.79</ele>
  <time>2026-09-01T20:02:53Z</time>
  <course>140.1</course>
  <speed>0.0</speed>
  <fix>3d</fix>
</trkpt>
<trkpt lat="-27.2744387" lon="151.2900639">
  <ele>364.1</ele>
  <time>2026-09-01T20:02:53Z</time>
  <course>10.88</course>
  <speed>0.01</speed>
  <fix>3d</fix>
</trkpt>
<trkpt lat="-27.2744387" lon="151.2900639">
  <ele>364.21</ele>
  <time>2026-09-01T20:02:53Z</time>
  <course>10.87</course>
  <speed>0.02</speed>
  <fix>3d</fix>
</trkpt>
<trkpt lat="-27.2744385" lon="151.290064">
  <ele>363.79</ele>
  <time>2026-09-01T20:02:53Z</time>
  <course>140.1</course>
  <speed>0.0</speed>
  <fix>3d</fix>
</trkpt>
<trkpt lat="-27.2744387" lon="151.2900639">
  <ele>364.23</ele>
  <time>2026-09-01T20:02:53Z</time>
  <course>10.87</course>
  <speed>0.02</speed>
  <fix>3d</fix>
</trkpt>
<trkpt lat="-27.2744387" lon="151.2900639">
  <ele>364.35</ele>
  <time>2026-09-01T20:02:53Z</time>
  <course>10.87</course>
  <speed>0.02</speed>
  <fix>3d</fix>
</trkpt>
<trkpt lat="-27.2744385" lon="151.290064">
  <ele>364.08</ele>
  <time>2026-09-01T20:02:53Z</time>
  <course>154.88</course>
  <speed>0.01</speed>
  <fix>3d</fix>
</trkpt>
<trkpt lat="-27.2744387" lon="151.2900639">
  <ele>364.36</ele>
  <time>2026-09-01T20:02:53Z</time>
  <course>10.87</course>
  <speed>0.02</speed>
  <fix>3d</fix>
</trkpt>
<trkpt lat="-27.2744387" lon="151.2900639">
  <ele>364.49</ele>
  <time>2026-09-01T20:02:53Z</time>
  <course>10.86</course>
  <speed>0.02</speed>
  <fix>3d</fix>
</trkpt>
<trkpt lat="-27.2744385" lon="151.290064">
  <ele>364.08</ele>
  <time>2026-09-01T20:02:53Z</time>
  <course>154.88</course>
  <speed>0.01</speed>
  <fix>3d</fix>
</trkpt>
<trkpt lat="-27.2744387" lon="151.2900639">
  <ele>364.5</ele>
  <time>2026-09-01T20:02:53Z</time>
  <course>10.86</course>
  <speed>0.02</speed>
  <fix>3d</fix>
</trkpt>
<trkpt lat="-27.2744387" lon="151.2900639">
  <ele>364.64</ele>
  <time>2026-09-01T20:02:53Z</time>
  <course>10.86</course>
  <speed>0.02</speed>
  <fix>3d</fix>
</trkpt>
<trkpt lat="-27.2744385" lon="151.290064">
  <ele>364.36</ele>
  <time>2026-09-01T20:02:53Z</time>
  <course>163.04</course>
  <speed>0.01</speed>
  <fix>3d</fix>
</trkpt>
<trkpt lat="-27.2744387" lon="151.2900639">
  <ele>364.67</ele>
  <time>2026-09-01T20:02:53Z</time>
  <course>10.86</course>
  <speed>0.02</speed>
  <fix>3d</fix>
</trkpt>
<trkpt lat="-27.2744387" lon="151.2900639">
  <ele>364.79</ele>
  <time>2026-09-01T20:02:53Z</time>
  <course>10.86</course>
  <speed>0.02</speed>
  <fix>3d</fix>
</trkpt>
<trkpt lat="-27.2744385" lon="151.290064">
  <ele>364.36</ele>
  <time>2026-09-01T20:02:53Z</time>
  <course>163.04</course>
  <speed>0.01</speed>
  <fix>3d</fix>
</trkpt>
<trkpt lat="-27.2744387" lon="151.2900639">
  <ele>364.79</ele>
  <time>2026-09-01T20:02:53Z</time>
  <course>10.86</course>
  <speed>0.02</speed>
  <fix>3d</fix>
</trkpt>
<trkpt lat="-27.2744387" lon="151.2900639">
  <ele>364.93</ele>
  <time>2026-09-01T20:02:53Z</time>
  <course>10.85</course>
  <speed>0.02</speed>
  <fix>3d</fix>
</trkpt>
<trkpt lat="-27.2744385" lon="151.290064">
  <ele>364.65</ele>
  <time>2026-09-01T20:02:53Z</time>
  <course>170.75</course>
  <speed>0.01</speed>
  <fix>3d</fix>
</trkpt>
<trkpt lat="-27.2744387" lon="151.2900639">
  <ele>364.94</ele>
  <time>2026-09-01T20:02:53Z</time>
  <course>10.85</course>
  <speed>0.02</speed>
  <fix>3d</fix>
</trkpt>
<trkpt lat="-27.2744387" lon="151.2900639">
  <ele>365.07</ele>
  <time>2026-09-01T20:02:53Z</time>
  <course>10.84</course>
  <speed>0.02</speed>
  <fix>3d</fix>
</trkpt>
<trkpt lat="-27.2744385" lon="151.290064">
  <ele>364.65</ele>
  <time>2026-09-01T20:02:53Z</time>
  <course>170.75</course>
  <speed>0.01</speed>
  <fix>3d</fix>
</trkpt>
<trkpt lat="-27.2744387" lon="151.2900639">
  <ele>365.11</ele>
  <time>2026-09-01T20:02:53Z</time>
  <course>10.84</course>
  <speed>0.02</speed>
  <fix>3d</fix>
</trkpt>
<trkpt lat="-27.2744387" lon="151.2900639">
  <ele>365.22</ele>
  <time>2026-09-01T20:02:53Z</time>
  <course>10.83</course>
  <speed>0.02</speed>
  <fix>3d</fix>
</trkpt>
<trkpt lat="-27.2744385" lon="151.290064">
  <ele>364.94</ele>
  <time>2026-09-01T20:02:53Z</time>
  <course>177.1</course>
  <speed>0.01</speed>
  <fix>3d</fix>
</trkpt>
<trkpt lat="-27.2744387" lon="151.2900639">
  <ele>365.26</ele>
  <time>2026-09-01T20:02:53Z</time>
  <course>10.82</course>
  <speed>0.02</speed>
  <fix>3d</fix>
</trkpt>
<trkpt lat="-27.2744387" lon="151.2900639">
  <ele>365.36</ele>
  <time>2026-09-01T20:02:53Z</time>
  <course>10.81</course>
  <speed>0.02</speed>
  <fix>3d</fix>
</trkpt>
<trkpt lat="-27.2744385" lon="151.290064">
  <ele>364.94</ele>
  <time>2026-09-01T20:02:53Z</time>
  <course>177.1</course>
  <speed>0.01</speed>
  <fix>3d</fix>
</trkpt>
<trkpt lat="-27.2744387" lon="151.2900639">
  <ele>365.4</ele>
  <time>2026-09-01T20:02:53Z</time>
  <course>10.81</course>
  <speed>0.02</speed>
  <fix>3d</fix>
</trkpt>
<trkpt lat="-27.2744387" lon="151.2900639">
  <ele>365.51</ele>
  <time>2026-09-01T20:02:53Z</time>
  <course>10.8</course>
  <speed>0.02</speed>
  <fix>3d</fix>
</trkpt>
<trkpt lat="-27.2744385" lon="151.290064">
  <ele>365.22</ele>
  <time>2026-09-01T20:02:53Z</time>
  <course>180.28</course>
  <speed>0.01</speed>
  <fix>3d</fix>
</trkpt>
<trkpt lat="-27.2744387" lon="151.2900639">
  <ele>365.55</ele>
  <time>2026-09-01T20:02:53Z</time>
  <course>10.79</course>
  <speed>0.02</speed>
  <fix>3d</fix>
</trkpt>
<trkpt lat="-27.2744387" lon="151.2900639">
  <ele>365.65</ele>
  <time>2026-09-01T20:02:53Z</time>
  <course>10.78</course>
  <speed>0.02</speed>
  <fix>3d</fix>
</trkpt>
<trkpt lat="-27.2744385" lon="151.290064">
  <ele>365.22</ele>
  <time>2026-09-01T20:02:53Z</time>
  <course>180.28</course>
  <speed>0.01</speed>
  <fix>3d</fix>
</trkpt>
<trkpt lat="-27.2744387" lon="151.2900639">
  <ele>365.69</ele>
  <time>2026-09-01T20:02:53Z</time>
  <course>10.78</course>
  <speed>0.02</speed>
  <fix>3d</fix>
</trkpt>
<trkpt lat="-27.2744387" lon="151.2900639">
  <ele>365.79</ele>
  <time>2026-09-01T20:02:53Z</time>
  <course>10.77</course>
  <speed>0.02</speed>
  <fix>3d</fix>
</trkpt>
<trkpt lat="-27.2744386" lon="151.290064">
  <ele>365.51</ele>
  <time>2026-09-01T20:02:53Z</time>
  <course>181.22</course>
  <speed>0.01</speed>
  <fix>3d</fix>
</trkpt>
<trkpt lat="-27.2744387" lon="151.2900639">
  <ele>365.83</ele>
  <time>2026-09-01T20:02:53Z</time>
  <course>10.76</course>
  <speed>0.02</speed>
  <fix>3d</fix>
</trkpt>
<trkpt lat="-27.2744387" lon="151.2900639">
  <ele>365.94</ele>
  <time>2026-09-01T20:02:53Z</time>
  <course>10.76</course>
  <speed>0.02</speed>
  <fix>3d</fix>
</trkpt>
<trkpt lat="-27.2744386" lon="151.290064">
  <ele>365.51</ele>
  <time>2026-09-01T20:02:53Z</time>
  <course>181.22</course>
  <speed>0.01</speed>
  <fix>3d</fix>
</trkpt>
<trkpt lat="-27.2744387" lon="151.2900639">
  <ele>365.94</ele>
  <time>2026-09-01T20:02:53Z</time>
  <course>10.76</course>
  <speed>0.02</speed>
  <fix>3d</fix>
</trkpt>
<trkpt lat="-27.2744387" lon="151.2900639">
  <ele>366.08</ele>
  <time>2026-09-01T20:02:53Z</time>
  <course>10.76</course>
  <speed>0.02</speed>
  <fix>3d</fix>
</trkpt>
<trkpt lat="-27.2744386" lon="151.290064">
  <ele>365.79</ele>
  <time>2026-09-01T20:02:53Z</time>
  <course>180.7</course>
  <speed>0.01</speed>
  <fix>3d</fix>
</trkpt>
<trkpt lat="-27.2744387" lon="151.2900639">
  <ele>366.08</ele>
  <time>2026-09-01T20:02:53Z</time>
  <course>10.76</course>
  <speed>0.02</speed>
  <fix>3d</fix>
</trkpt>
<trkpt lat="-27.2744387" lon="151.2900639">
  <ele>366.22</ele>
  <time>2026-09-01T20:02:53Z</time>
  <course>10.76</course>
  <speed>0.02</speed>
  <fix>3d</fix>
</trkpt>
<trkpt lat="-27.2744386" lon="151.290064">
  <ele>365.79</ele>
  <time>2026-09-01T20:02:53Z</time>
  <course>180.7</course>
  <speed>0.01</speed>
  <fix>3d</fix>
</trkpt>
<trkpt lat="-27.2744387" lon="151.2900639">
  <ele>366.26</ele>
  <time>2026-09-01T20:02:53Z</time>
  <course>10.76</course>
  <speed>0.02</speed>
  <fix>3d</fix>
</trkpt>
<trkpt lat="-27.2744387" lon="151.2900639">
  <ele>366.37</ele>
  <time>2026-09-01T20:02:53Z</time>
  <course>10.77</course>
  <speed>0.02</speed>
  <fix>3d</fix>
</trkpt>
<trkpt lat="-27.2744386" lon="151.290064">
  <ele>366.08</ele>
  <time>2026-09-01T20:02:53Z</time>
  <course>180.6</course>
  <speed>0.01</speed>
  <fix>3d</fix>
</trkpt>
<trkpt lat="-27.2744387" lon="151.2900639">
  <ele>366.4</ele>
  <time>2026-09-01T20:02:53Z</time>
  <course>10.78</course>
  <speed>0.02</speed>
  <fix>3d</fix>
</trkpt>
<trkpt lat="-27.2744387" lon="151.290064">
  <ele>366.51</ele>
  <time>2026-09-01T20:02:53Z</time>
  <course>10.79</course>
  <speed>0.02</speed>
  <fix>3d</fix>
</trkpt>
<trkpt lat="-27.2744386" lon="151.290064">
  <ele>366.08</ele>
  <time>2026-09-01T20:02:53Z</time>
  <course>180.6</course>
  <speed>0.01</speed>
  <fix>3d</fix>
</trkpt>
<trkpt lat="-27.2744387" lon="151.290064">
  <ele>366.51</ele>
  <time>2026-09-01T20:02:53Z</time>
  <course>10.79</course>
  <speed>0.02</speed>
  <fix>3d</fix>
</trkpt>
<trkpt lat="-27.2744387" lon="151.290064">
  <ele>366.65</ele>
  <time>2026-09-01T20:02:53Z</time>
  <course>10.8</course>
  <speed>0.02</speed>
  <fix>3d</fix>
</trkpt>
<trkpt lat="-27.2744387" lon="151.290064">
  <ele>366.36</ele>
  <time>2026-09-01T20:02:53Z</time>
  <course>181.74</course>
  <speed>0.01</speed>
  <fix>3d</fix>
</trkpt>
<trkpt lat="-27.2744387" lon="151.290064">
  <ele>366.69</ele>
  <time>2026-09-01T20:02:53Z</time>
  <course>10.8</course>
  <speed>0.02</speed>
  <fix>3d</fix>
</trkpt>
<trkpt lat="-27.2744387" lon="151.290064">
  <ele>366.79</ele>
  <time>2026-09-01T20:02:53Z</time>
  <course>10.8</course>
  <speed>0.02</speed>
  <fix>3d</fix>
</trkpt>
<trkpt lat="-27.2744387" lon="151.290064">
  <ele>366.36</ele>
  <time>2026-09-01T20:02:53Z</time>
  <course>181.74</course>
  <speed>0.01</speed>
  <fix>3d</fix>
</trkpt>
<trkpt lat="-27.2744387" lon="151.290064">
  <ele>366.83</ele>
  <time>2026-09-01T20:02:53Z</time>
  <course>10.8</course>
  <speed>0.02</speed>
  <fix>3d</fix>
</trkpt>
<trkpt lat="-27.2744388" lon="151.290064">
  <ele>366.94</ele>
  <time>2026-09-01T20:02:53Z</time>
  <course>10.79</course>
  <speed>0.02</speed>
  <fix>3d</fix>
</trkpt>
<trkpt lat="-27.2744387" lon="151.290064">
  <ele>366.65</ele>
  <time>2026-09-01T20:02:53Z</time>
  <course>182.22</course>
  <speed>0.01</speed>
  <fix>3d</fix>
</trkpt>
<trkpt lat="-27.2744388" lon="151.290064">
  <ele>366.97</ele>
  <time>2026-09-01T20:02:53Z</time>
  <course>10.79</course>
  <speed>0.02</speed>
  <fix>3d</fix>
</trkpt>
<trkpt lat="-27.2744388" lon="151.290064">
  <ele>367.08</ele>
  <time>2026-09-01T20:02:53Z</time>
  <course>10.78</course>
  <speed>0.02</speed>
  <fix>3d</fix>
</trkpt>
<trkpt lat="-27.2744387" lon="151.290064">
  <ele>366.65</ele>
  <time>2026-09-01T20:02:53Z</time>
  <course>182.22</course>
  <speed>0.01</speed>
  <fix>3d</fix>
</trkpt>
<trkpt lat="-27.2744388" lon="151.290064">
  <ele>367.11</ele>
  <time>2026-09-01T20:02:53Z</time>
  <course>10.78</course>
  <speed>0.02</speed>
  <fix>3d</fix>
</trkpt>
<trkpt lat="-27.2744388" lon="151.290064">
  <ele>367.22</ele>
  <time>2026-09-01T20:02:53Z</time>
  <course>10.78</course>
  <speed>0.02</speed>
  <fix>3d</fix>
</trkpt>
<trkpt lat="-27.2744387" lon="151.290064">
  <ele>366.93</ele>
  <time>2026-09-01T20:02:53Z</time>
  <course>182.93</course>
  <speed>0.01</speed>
  <fix>3d</fix>
</trkpt>
<trkpt lat="-27.2744388" lon="151.290064">
  <ele>367.26</ele>
  <time>2026-09-01T20:02:53Z</time>
  <course>10.77</course>
  <speed>0.02</speed>
  <fix>3d</fix>
</trkpt>
<trkpt lat="-27.2744388" lon="151.290064">
  <ele>367.37</ele>
  <time>2026-09-01T20:02:53Z</time>
  <course>10.77</course>
  <speed>0.02</speed>
  <fix>3d</fix>
</trkpt>
<trkpt lat="-27.2744387" lon="151.290064">
  <ele>366.93</ele>
  <time>2026-09-01T20:02:53Z</time>
  <course>182.93</course>
  <speed>0.01</speed>
  <fix>3d</fix>
</trkpt>
<trkpt lat="-27.2744388" lon="151.290064">
  <ele>367.4</ele>
  <time>2026-09-01T20:02:53Z</time>
  <course>10.76</course>
  <speed>0.02</speed>
  <fix>3d</fix>
</trkpt>
<trkpt lat="-27.2744388" lon="151.290064">
  <ele>367.51</ele>
  <time>2026-09-01T20:02:53Z</time>
  <course>10.75</course>
  <speed>0.02</speed>
  <fix>3d</fix>
</trkpt>
<trkpt lat="-27.2744388" lon="151.290064">
  <ele>367.21</ele>
  <time>2026-09-01T20:02:53Z</time>
  <course>185.36</course>
  <speed>0.01</speed>
  <fix>3d</fix>
</trkpt>
<trkpt lat="-27.2744388" lon="151.290064">
  <ele>367.52</ele>
  <time>2026-09-01T20:02:53Z</time>
  <course>10.75</course>
  <speed>0.02</speed>
  <fix>3d</fix>
</trkpt>
<trkpt lat="-27.2744388" lon="151.290064">
  <ele>367.66</ele>
  <time>2026-09-01T20:02:53Z</time>
  <course>10.74</course>
  <speed>0.02</speed>
  <fix>3d</fix>
</trkpt>
<trkpt lat="-27.2744388" lon="151.290064">
  <ele>367.21</ele>
  <time>2026-09-01T20:02:53Z</time>
  <course>185.36</course>
  <speed>0.01</speed>
  <fix>3d</fix>
</trkpt>
<trkpt lat="-27.2744388" lon="151.290064">
  <ele>367.66</ele>
  <time>2026-09-01T20:02:53Z</time>
  <course>10.74</course>
  <speed>0.02</speed>
  <fix>3d</fix>
</trkpt>
<trkpt lat="-27.2744388" lon="151.290064">
  <ele>367.8</ele>
  <time>2026-09-01T20:02:54Z</time>
  <course>10.72</course>
  <speed>0.02</speed>
  <fix>3d</fix>
</trkpt>
<trkpt lat="-27.2744388" lon="151.290064">
  <ele>367.5</ele>
  <time>2026-09-01T20:02:54Z</time>
  <course>188.11</course>
  <speed>0.01</speed>
  <fix>3d</fix>
</trkpt>
<trkpt lat="-27.2744388" lon="151.290064">
  <ele>367.84</ele>
  <time>2026-09-01T20:02:54Z</time>
  <course>10.71</course>
  <speed>0.02</speed>
  <fix>3d</fix>
</trkpt>
<trkpt lat="-27.2744389" lon="151.290064">
  <ele>367.94</ele>
  <time>2026-09-01T20:02:54Z</time>
  <course>10.69</course>
  <speed>0.02</speed>
  <fix>3d</fix>
</trkpt>
<trkpt lat="-27.2744388" lon="151.290064">
  <ele>367.5</ele>
  <time>2026-09-01T20:02:54Z</time>
  <course>188.11</course>
  <speed>0.01</speed>
  <fix>3d</fix>
</trkpt>
<trkpt lat="-27.2744389" lon="151.290064">
  <ele>367.98</ele>
  <time>2026-09-01T20:02:54Z</time>
  <course>10.68</course>
  <speed>0.02</speed>
  <fix>3d</fix>
</trkpt>
<trkpt lat="-27.2744389" lon="151.290064">
  <ele>368.09</ele>
  <time>2026-09-01T20:02:54Z</time>
  <course>10.66</course>
  <speed>0.02</speed>
  <fix>3d</fix>
</trkpt>
<trkpt lat="-27.2744388" lon="151.290064">
  <ele>367.78</ele>
  <time>2026-09-01T20:02:54Z</time>
  <course>189.97</course>
  <speed>0.01</speed>
  <fix>3d</fix>
</trkpt>
<trkpt lat="-27.2744389" lon="151.290064">
  <ele>368.13</ele>
  <time>2026-09-01T20:02:54Z</time>
  <course>10.66</course>
  <speed>0.02</speed>
  <fix>3d</fix>
</trkpt>
<trkpt lat="-27.2744389" lon="151.290064">
  <ele>368.23</ele>
  <time>2026-09-01T20:02:54Z</time>
  <course>10.64</course>
  <speed>0.02</speed>
  <fix>3d</fix>
</trkpt>
<trkpt lat="-27.2744388" lon="151.290064">
  <ele>367.78</ele>
  <time>2026-09-01T20:02:54Z</time>
  <course>189.97</course>
  <speed>0.01</speed>
  <fix>3d</fix>
</trkpt>
<trkpt lat="-27.2744389" lon="151.290064">
  <ele>368.26</ele>
  <time>2026-09-01T20:02:54Z</time>
  <course>10.63</course>
  <speed>0.02</speed>
  <fix>3d</fix>
</trkpt>
<trkpt lat="-27.2744389" lon="151.290064">
  <ele>368.37</ele>
  <time>2026-09-01T20:02:54Z</time>
  <course>10.62</course>
  <speed>0.02</speed>
  <fix>3d</fix>
</trkpt>
<trkpt lat="-27.2744389" lon="151.290064">
  <ele>368.07</ele>
  <time>2026-09-01T20:02:54Z</time>
  <course>188.47</course>
  <speed>0.01</speed>
  <fix>3d</fix>
</trkpt>
<trkpt lat="-27.2744389" lon="151.290064">
  <ele>368.41</ele>
  <time>2026-09-01T20:02:54Z</time>
  <course>10.62</course>
  <speed>0.02</speed>
  <fix>3d</fix>
</trkpt>
<trkpt lat="-27.2744389" lon="151.290064">
  <ele>368.52</ele>
  <time>2026-09-01T20:02:54Z</time>
  <course>10.62</course>
  <speed>0.02</speed>
  <fix>3d</fix>
</trkpt>
<trkpt lat="-27.2744389" lon="151.290064">
  <ele>368.07</ele>
  <time>2026-09-01T20:02:54Z</time>
  <course>188.47</course>
  <speed>0.01</speed>
  <fix>3d</fix>
</trkpt>
<trkpt lat="-27.2744389" lon="151.290064">
  <ele>368.56</ele>
  <time>2026-09-01T20:02:54Z</time>
  <course>10.62</course>
  <speed>0.02</speed>
  <fix>3d</fix>
</trkpt>
<trkpt lat="-27.2744389" lon="151.290064">
  <ele>368.67</ele>
  <time>2026-09-01T20:02:54Z</time>
  <course>10.62</course>
  <speed>0.02</speed>
  <fix>3d</fix>
</trkpt>
<trkpt lat="-27.2744389" lon="151.290064">
  <ele>368.36</ele>
  <time>2026-09-01T20:02:54Z</time>
  <course>186.61</course>
  <speed>0.01</speed>
  <fix>3d</fix>
</trkpt>
<trkpt lat="-27.2744389" lon="151.290064">
  <ele>368.7</ele>
  <time>2026-09-01T20:02:54Z</time>
  <course>10.62</course>
  <speed>0.02</speed>
  <fix>3d</fix>
</trkpt>
<trkpt lat="-27.2744389" lon="151.290064">
  <ele>368.81</ele>
  <time>2026-09-01T20:02:54Z</time>
  <course>10.63</course>
  <speed>0.02</speed>
  <fix>3d</fix>
</trkpt>
<trkpt lat="-27.2744389" lon="151.290064">
  <ele>368.36</ele>
  <time>2026-09-01T20:02:54Z</time>
  <course>186.61</course>
  <speed>0.01</speed>
  <fix>3d</fix>
</trkpt>
<trkpt lat="-27.2744389" lon="151.290064">
  <ele>368.85</ele>
  <time>2026-09-01T20:02:54Z</time>
  <course>10.64</course>
  <speed>0.02</speed>
  <fix>3d</fix>
</trkpt>
<trkpt lat="-27.274439" lon="151.290064">
  <ele>368.96</ele>
  <time>2026-09-01T20:02:54Z</time>
  <course>10.66</course>
  <speed>0.02</speed>
  <fix>3d</fix>
</trkpt>
<trkpt lat="-27.2744389" lon="151.290064">
  <ele>368.65</ele>
  <time>2026-09-01T20:02:54Z</time>
  <course>186.96</course>
  <speed>0.01</speed>
  <fix>3d</fix>
</trkpt>
<trkpt lat="-27.274439" lon="151.290064">
  <ele>368.96</ele>
  <time>2026-09-01T20:02:54Z</time>
  <course>10.66</course>
  <speed>0.02</speed>
  <fix>3d</fix>
</trkpt>
<trkpt lat="-27.274439" lon="151.290064">
  <ele>369.1</ele>
  <time>2026-09-01T20:02:54Z</time>
  <course>10.68</course>
  <speed>0.01</speed>
  <fix>3d</fix>
</trkpt>
<trkpt lat="-27.2744389" lon="151.290064">
  <ele>368.65</ele>
  <time>2026-09-01T20:02:54Z</time>
  <course>186.96</course>
  <speed>0.01</speed>
  <fix>3d</fix>
</trkpt>
<trkpt lat="-27.274439" lon="151.290064">
  <ele>369.1</ele>
  <time>2026-09-01T20:02:54Z</time>
  <course>10.68</course>
  <speed>0.01</speed>
  <fix>3d</fix>
</trkpt>
<trkpt lat="-27.274439" lon="151.290064">
  <ele>369.24</ele>
  <time>2026-09-01T20:02:54Z</time>
  <course>10.69</course>
  <speed>0.01</speed>
  <fix>3d</fix>
</trkpt>
<trkpt lat="-27.2744389" lon="151.290064">
  <ele>368.93</ele>
  <time>2026-09-01T20:02:54Z</time>
  <course>188.72</course>
  <speed>0.01</speed>
  <fix>3d</fix>
</trkpt>
<trkpt lat="-27.274439" lon="151.290064">
  <ele>369.29</ele>
  <time>2026-09-01T20:02:54Z</time>
  <course>10.69</course>
  <speed>0.01</speed>
  <fix>3d</fix>
</trkpt>
<trkpt lat="-27.274439" lon="151.290064">
  <ele>369.39</ele>
  <time>2026-09-01T20:02:54Z</time>
  <course>10.69</course>
  <speed>0.01</speed>
  <fix>3d</fix>
</trkpt>
<trkpt lat="-27.2744389" lon="151.290064">
  <ele>368.93</ele>
  <time>2026-09-01T20:02:54Z</time>
  <course>188.72</course>
  <speed>0.01</speed>
  <fix>3d</fix>
</trkpt>
<trkpt lat="-27.274439" lon="151.290064">
  <ele>369.42</ele>
  <time>2026-09-01T20:02:54Z</time>
  <course>10.69</course>
  <speed>0.01</speed>
  <fix>3d</fix>
</trkpt>
<trkpt lat="-27.274439" lon="151.290064">
  <ele>369.53</ele>
  <time>2026-09-01T20:02:54Z</time>
  <course>10.69</course>
  <speed>0.01</speed>
  <fix>3d</fix>
</trkpt>
<trkpt lat="-27.274439" lon="151.290064">
  <ele>369.21</ele>
  <time>2026-09-01T20:02:54Z</time>
  <course>190.7</course>
  <speed>0.01</speed>
  <fix>3d</fix>
</trkpt>
<trkpt lat="-27.274439" lon="151.290064">
  <ele>369.57</ele>
  <time>2026-09-01T20:02:54Z</time>
  <course>10.69</course>
  <speed>0.01</speed>
  <fix>3d</fix>
</trkpt>
<trkpt lat="-27.274439" lon="151.290064">
  <ele>369.67</ele>
  <time>2026-09-01T20:02:54Z</time>
  <course>10.68</course>
  <speed>0.01</speed>
  <fix>3d</fix>
</trkpt>
<trkpt lat="-27.274439" lon="151.290064">
  <ele>369.21</ele>
  <time>2026-09-01T20:02:54Z</time>
  <course>190.7</course>
  <speed>0.01</speed>
  <fix>3d</fix>
</trkpt>
<trkpt lat="-27.274439" lon="151.290064">
  <ele>369.71</ele>
  <time>2026-09-01T20:02:54Z</time>
  <course>10.68</course>
  <speed>0.01</speed>
  <fix>3d</fix>
</trkpt>
<trkpt lat="-27.274439" lon="151.290064">
  <ele>369.81</ele>
  <time>2026-09-01T20:02:54Z</time>
  <course>10.67</course>
  <speed>0.01</speed>
  <fix>3d</fix>
</trkpt>
<trkpt lat="-27.274439" lon="151.290064">
  <ele>369.5</ele>
  <time>2026-09-01T20:02:54Z</time>
  <course>193.05</course>
  <speed>0.0</speed>
  <fix>3d</fix>
</trkpt>
<trkpt lat="-27.274439" lon="151.290064">
  <ele>369.85</ele>
  <time>2026-09-01T20:02:54Z</time>
  <course>10.67</course>
  <speed>0.01</speed>
  <fix>3d</fix>
</trkpt>
<trkpt lat="-27.274439" lon="151.290064">
  <ele>369.95</ele>
  <time>2026-09-01T20:02:54Z</time>
  <course>10.66</course>
  <speed>0.01</speed>
  <fix>3d</fix>
</trkpt>
<trkpt lat="-27.274439" lon="151.290064">
  <ele>369.5</ele>
  <time>2026-09-01T20:02:54Z</time>
  <course>193.05</course>
  <speed>0.0</speed>
  <fix>3d</fix>
</trkpt>
<trkpt lat="-27.274439" lon="151.290064">
  <ele>369.98</ele>
  <time>2026-09-01T20:02:54Z</time>
  <course>10.66</course>
  <speed>0.01</speed>
  <fix>3d</fix>
</trkpt>
<trkpt lat="-27.274439" lon="151.290064">
  <ele>370.09</ele>
  <time>2026-09-01T20:02:54Z</time>
  <course>10.65</course>
  <speed>0.01</speed>
  <fix>3d</fix>
</trkpt>
<trkpt lat="-27.274439" lon="151.290064">
  <ele>369.78</ele>
  <time>2026-09-01T20:02:54Z</time>
  <course>199.38</course>
  <speed>0.0</speed>
  <fix>3d</fix>
</trkpt>
<trkpt lat="-27.274439" lon="151.290064">
  <ele>370.13</ele>
  <time>2026-09-01T20:02:54Z</time>
  <course>10.65</course>
  <speed>0.01</speed>
  <fix>3d</fix>
</trkpt>
<trkpt lat="-27.274439" lon="151.290064">
  <ele>370.23</ele>
  <time>2026-09-01T20:02:54Z</time>
  <course>10.64</course>
  <speed>0.01</speed>
  <fix>3d</fix>
</trkpt>
<trkpt lat="-27.274439" lon="151.290064">
  <ele>369.78</ele>
  <time>2026-09-01T20:02:54Z</time>
  <course>199.38</course>
  <speed>0.0</speed>
  <fix>3d</fix>
</trkpt>
<trkpt lat="-27.274439" lon="151.290064">
  <ele>370.26</ele>
  <time>2026-09-01T20:02:54Z</time>
  <course>10.63</course>
  <speed>0.01</speed>
  <fix>3d</fix>
</trkpt>
<trkpt lat="-27.274439" lon="151.290064">
  <ele>370.37</ele>
  <time>2026-09-01T20:02:54Z</time>
  <course>10.62</course>
  <speed>0.01</speed>
  <fix>3d</fix>
</trkpt>
<trkpt lat="-27.274439" lon="151.290064">
  <ele>370.07</ele>
  <time>2026-09-01T20:02:54Z</time>
  <course>207.71</course>
  <speed>0.0</speed>
  <fix>3d</fix>
</trkpt>
<trkpt lat="-27.274439" lon="151.290064">
  <ele>370.41</ele>
  <time>2026-09-01T20:02:54Z</time>
  <course>10.62</course>
  <speed>0.01</speed>
  <fix>3d</fix>
</trkpt>
<trkpt lat="-27.274439" lon="151.290064">
  <ele>370.51</ele>
  <time>2026-09-01T20:02:54Z</time>
  <course>10.61</course>
  <speed>0.01</speed>
  <fix>3d</fix>
</trkpt>
<trkpt lat="-27.274439" lon="151.290064">
  <ele>370.07</ele>
  <time>2026-09-01T20:02:54Z</time>
  <course>207.71</course>
  <speed>0.0</speed>
  <fix>3d</fix>
</trkpt>
<trkpt lat="-27.274439" lon="151.290064">
  <ele>370.52</ele>
  <time>2026-09-01T20:02:54Z</time>
  <course>10.61</course>
  <speed>0.01</speed>
  <fix>3d</fix>
</trkpt>
<trkpt lat="-27.274439" lon="151.290064">
  <ele>370.65</ele>
  <time>2026-09-01T20:02:54Z</time>
  <course>10.61</course>
  <speed>0.0</speed>
  <fix>3d</fix>
</trkpt>
<trkpt lat="-27.274439" lon="151.290064">
  <ele>370.36</ele>
  <time>2026-09-01T20:02:54Z</time>
  <course>225.4</course>
  <speed>0.0</speed>
  <fix>3d</fix>
</trkpt>
<trkpt lat="-27.274439" lon="151.290064">
  <ele>370.66</ele>
  <time>2026-09-01T20:02:54Z</time>
  <course>10.6</course>
  <speed>0.0</speed>
  <fix>3d</fix>
</trkpt>
<trkpt lat="-27.274439" lon="151.290064">
  <ele>370.8</ele>
  <time>2026-09-01T20:02:54Z</time>
  <course>10.6</course>
  <speed>0.0</speed>
  <fix>3d</fix>
</trkpt>
<trkpt lat="-27.274439" lon="151.290064">
  <ele>370.36</ele>
  <time>2026-09-01T20:02:54Z</time>
  <course>225.4</course>
  <speed>0.0</speed>
  <fix>3d</fix>
</trkpt>
<trkpt lat="-27.274439" lon="151.290064">
  <ele>370.84</ele>
  <time>2026-09-01T20:02:54Z</time>
  <course>10.59</course>
  <speed>0.0</speed>
  <fix>3d</fix>
</trkpt>
<trkpt lat="-27.274439" lon="151.290064">
  <ele>370.94</ele>
  <time>2026-09-01T20:02:54Z</time>
  <course>10.59</course>
  <speed>0.0</speed>
  <fix>3d</fix>
</trkpt>
<trkpt lat="-27.274439" lon="151.290064">
  <ele>370.65</ele>
  <time>2026-09-01T20:02:54Z</time>
  <course>261.58</course>
  <speed>0.0</speed>
  <fix>3d</fix>
</trkpt>
<trkpt lat="-27.274439" lon="151.290064">
  <ele>370.98</ele>
  <time>2026-09-01T20:02:54Z</time>
  <course>10.59</course>
  <speed>0.0</speed>
  <fix>3d</fix>
</trkpt>
<trkpt lat="-27.274439" lon="151.290064">
  <ele>371.09</ele>
  <time>2026-09-01T20:02:54Z</time>
  <course>10.59</course>
  <speed>0.0</speed>
  <fix>3d</fix>
</trkpt>
<trkpt lat="-27.274439" lon="151.290064">
  <ele>370.65</ele>
  <time>2026-09-01T20:02:54Z</time>
  <course>261.58</course>
  <speed>0.0</speed>
  <fix>3d</fix>
</trkpt>
<trkpt lat="-27.274439" lon="151.290064">
  <ele>371.13</ele>
  <time>2026-09-01T20:02:54Z</time>
  <course>10.59</course>
  <speed>0.0</speed>
  <fix>3d</fix>
</trkpt>
<trkpt lat="-27.274439" lon="151.290064">
  <ele>371.23</ele>
  <time>2026-09-01T20:02:54Z</time>
  <course>10.58</course>
  <speed>0.0</speed>
  <fix>3d</fix>
</trkpt>
<trkpt lat="-27.274439" lon="151.290064">
  <ele>370.93</ele>
  <time>2026-09-01T20:02:54Z</time>
  <course>293.8</course>
  <speed>0.0</speed>
  <fix>3d</fix>
</trkpt>
<trkpt lat="-27.274439" lon="151.290064">
  <ele>371.27</ele>
  <time>2026-09-01T20:02:54Z</time>
  <course>10.58</course>
  <speed>0.0</speed>
  <fix>3d</fix>
</trkpt>
<trkpt lat="-27.274439" lon="151.290064">
  <ele>371.38</ele>
  <time>2026-09-01T20:02:54Z</time>
  <course>10.58</course>
  <speed>0.0</speed>
  <fix>3d</fix>
</trkpt>
<trkpt lat="-27.274439" lon="151.290064">
  <ele>370.93</ele>
  <time>2026-09-01T20:02:54Z</time>
  <course>293.8</course>
  <speed>0.0</speed>
  <fix>3d</fix>
</trkpt>
<trkpt lat="-27.274439" lon="151.290064">
  <ele>371.42</ele>
  <time>2026-09-01T20:02:54Z</time>
  <course>10.58</course>
  <speed>0.0</speed>
  <fix>3d</fix>
</trkpt>
<trkpt lat="-27.274439" lon="151.290064">
  <ele>371.53</ele>
  <time>2026-09-01T20:02:54Z</time>
  <course>10.57</course>
  <speed>0.0</speed>
  <fix>3d</fix>
</trkpt>
<trkpt lat="-27.274439" lon="151.290064">
  <ele>371.22</ele>
  <time>2026-09-01T20:02:54Z</time>
  <course>313.74</course>
  <speed>0.0</speed>
  <fix>3d</fix>
</trkpt>
<trkpt lat="-27.274439" lon="151.290064">
  <ele>371.56</ele>
  <time>2026-09-01T20:02:54Z</time>
  <course>10.57</course>
  <speed>0.0</speed>
  <fix>3d</fix>
</trkpt>
<trkpt lat="-27.274439" lon="151.290064">
  <ele>371.67</ele>
  <time>2026-09-01T20:02:54Z</time>
  <course>10.57</course>
  <speed>0.0</speed>
  <fix>3d</fix>
</trkpt>
<trkpt lat="-27.274439" lon="151.290064">
  <ele>371.22</ele>
  <time>2026-09-01T20:02:54Z</time>
  <course>313.74</course>
  <speed>0.0</speed>
  <fix>3d</fix>
</trkpt>
<trkpt lat="-27.274439" lon="151.290064">
  <ele>371.71</ele>
  <time>2026-09-01T20:02:54Z</time>
  <course>10.57</course>
  <speed>0.0</speed>
  <fix>3d</fix>
</trkpt>
<trkpt lat="-27.274439" lon="151.290064">
  <ele>371.81</ele>
  <time>2026-09-01T20:02:54Z</time>
  <course>10.57</course>
  <speed>0.0</speed>
  <fix>3d</fix>
</trkpt>
<trkpt lat="-27.274439" lon="151.290064">
  <ele>371.51</ele>
  <time>2026-09-01T20:02:54Z</time>
  <course>328.42</course>
  <speed>0.0</speed>
  <fix>3d</fix>
</trkpt>
<trkpt lat="-27.274439" lon="151.290064">
  <ele>371.85</ele>
  <time>2026-09-01T20:02:54Z</time>
  <course>10.58</course>
  <speed>0.0</speed>
  <fix>3d</fix>
</trkpt>
<trkpt lat="-27.274439" lon="151.290064">
  <ele>371.96</ele>
  <time>2026-09-01T20:02:54Z</time>
  <course>10.58</course>
  <speed>0.0</speed>
  <fix>3d</fix>
</trkpt>
<trkpt lat="-27.274439" lon="151.290064">
  <ele>371.51</ele>
  <time>2026-09-01T20:02:54Z</time>
  <course>328.42</course>
  <speed>0.0</speed>
  <fix>3d</fix>
</trkpt>
<trkpt lat="-27.274439" lon="151.290064">
  <ele>371.96</ele>
  <time>2026-09-01T20:02:54Z</time>
  <course>10.58</course>
  <speed>0.0</speed>
  <fix>3d</fix>
</trkpt>
<trkpt lat="-27.274439" lon="151.290064">
  <ele>372.1</ele>
  <time>2026-09-01T20:02:54Z</time>
  <course>10.58</course>
  <speed>0.0</speed>
  <fix>3d</fix>
</trkpt>
<trkpt lat="-27.274439" lon="151.290064">
  <ele>371.8</ele>
  <time>2026-09-01T20:02:54Z</time>
  <course>335.37</course>
  <speed>0.0</speed>
  <fix>3d</fix>
</trkpt>
<trkpt lat="-27.274439" lon="151.290064">
  <ele>372.1</ele>
  <time>2026-09-01T20:02:54Z</time>
  <course>10.58</course>
  <speed>0.0</speed>
  <fix>3d</fix>
</trkpt>
<trkpt lat="-27.274439" lon="151.290064">
  <ele>372.24</ele>
  <time>2026-09-01T20:02:54Z</time>
  <course>10.59</course>
  <speed>0.0</speed>
  <fix>3d</fix>
</trkpt>
<trkpt lat="-27.274439" lon="151.290064">
  <ele>371.8</ele>
  <time>2026-09-01T20:02:54Z</time>
  <course>335.37</course>
  <speed>0.0</speed>
  <fix>3d</fix>
</trkpt>
<trkpt lat="-27.274439" lon="151.290064">
  <ele>372.28</ele>
  <time>2026-09-01T20:02:54Z</time>
  <course>10.59</course>
  <speed>0.0</speed>
  <fix>3d</fix>
</trkpt>
<trkpt lat="-27.274439" lon="151.290064">
  <ele>372.39</ele>
  <time>2026-09-01T20:02:54Z</time>
  <course>10.59</course>
  <speed>0.0</speed>
  <fix>3d</fix>
</trkpt>
<trkpt lat="-27.274439" lon="151.290064">
  <ele>372.09</ele>
  <time>2026-09-01T20:02:54Z</time>
  <course>336.88</course>
  <speed>0.0</speed>
  <fix>3d</fix>
</trkpt>
<trkpt lat="-27.274439" lon="151.290064">
  <ele>372.43</ele>
  <time>2026-09-01T20:02:54Z</time>
  <course>10.58</course>
  <speed>0.0</speed>
  <fix>3d</fix>
</trkpt>
<trkpt lat="-27.274439" lon="151.290064">
  <ele>372.53</ele>
  <time>2026-09-01T20:02:54Z</time>
  <course>10.58</course>
  <speed>0.0</speed>
  <fix>3d</fix>
</trkpt>
<trkpt lat="-27.274439" lon="151.290064">
  <ele>372.09</ele>
  <time>2026-09-01T20:02:54Z</time>
  <course>336.88</course>
  <speed>0.0</speed>
  <fix>3d</fix>
</trkpt>
<trkpt lat="-27.274439" lon="151.290064">
  <ele>372.54</ele>
  <time>2026-09-01T20:02:54Z</time>
  <course>10.58</course>
  <speed>0.0</speed>
  <fix>3d</fix>
</trkpt>
<trkpt lat="-27.274439" lon="151.290064">
  <ele>372.68</ele>
  <time>2026-09-01T20:02:54Z</time>
  <course>10.58</course>
  <speed>0.0</speed>
  <fix>3d</fix>
</trkpt>
<trkpt lat="-27.274439" lon="151.290064">
  <ele>372.38</ele>
  <time>2026-09-01T20:02:54Z</time>
  <course>336.06</course>
  <speed>0.01</speed>
  <fix>3d</fix>
</trkpt>
<trkpt lat="-27.274439" lon="151.290064">
  <ele>372.68</ele>
  <time>2026-09-01T20:02:54Z</time>
  <course>10.58</course>
  <speed>0.0</speed>
  <fix>3d</fix>
</trkpt>
<trkpt lat="-27.274439" lon="151.290064">
  <ele>372.82</ele>
  <time>2026-09-01T20:02:54Z</time>
  <course>10.57</course>
  <speed>0.0</speed>
  <fix>3d</fix>
</trkpt>
<trkpt lat="-27.274439" lon="151.290064">
  <ele>372.38</ele>
  <time>2026-09-01T20:02:54Z</time>
  <course>336.06</course>
  <speed>0.01</speed>
  <fix>3d</fix>
</trkpt>
<trkpt lat="-27.274439" lon="151.290064">
  <ele>372.86</ele>
  <time>2026-09-01T20:02:54Z</time>
  <course>10.57</course>
  <speed>0.0</speed>
  <fix>3d</fix>
</trkpt>
<trkpt lat="-27.274439" lon="151.290064">
  <ele>372.97</ele>
  <time>2026-09-01T20:02:54Z</time>
  <course>10.57</course>
  <speed>0.0</speed>
  <fix>3d</fix>
</trkpt>
<trkpt lat="-27.274439" lon="151.290064">
  <ele>372.67</ele>
  <time>2026-09-01T20:02:54Z</time>
  <course>333.97</course>
  <speed>0.01</speed>
  <fix>3d</fix>
</trkpt>
<trkpt lat="-27.274439" lon="151.290064">
  <ele>373.01</ele>
  <time>2026-09-01T20:02:54Z</time>
  <course>10.57</course>
  <speed>0.0</speed>
  <fix>3d</fix>
</trkpt>
<trkpt lat="-27.274439" lon="151.290064">
  <ele>373.12</ele>
  <time>2026-09-01T20:02:54Z</time>
  <course>10.56</course>
  <speed>0.0</speed>
  <fix>3d</fix>
</trkpt>
<trkpt lat="-27.274439" lon="151.290064">
  <ele>372.67</ele>
  <time>2026-09-01T20:02:54Z</time>
  <course>333.97</course>
  <speed>0.01</speed>
  <fix>3d</fix>
</trkpt>
<trkpt lat="-27.274439" lon="151.290064">
  <ele>373.16</ele>
  <time>2026-09-01T20:02:54Z</time>
  <course>10.56</course>
  <speed>0.0</speed>
  <fix>3d</fix>
</trkpt>
<trkpt lat="-27.274439" lon="151.290064">
  <ele>373.26</ele>
  <time>2026-09-01T20:02:54Z</time>
  <course>10.55</course>
  <speed>0.0</speed>
  <fix>3d</fix>
</trkpt>
<trkpt lat="-27.274439" lon="151.290064">
  <ele>372.96</ele>
  <time>2026-09-01T20:02:54Z</time>
  <course>334.58</course>
  <speed>0.01</speed>
  <fix>3d</fix>
</trkpt>
<trkpt lat="-27.274439" lon="151.290064">
  <ele>373.41</ele>
  <time>2026-09-01T20:02:54Z</time>
  <course>10.55</course>
  <speed>0.0</speed>
  <fix>3d</fix>
</trkpt>
<trkpt lat="-27.274439" lon="151.290064">
  <ele>372.96</ele>
  <time>2026-09-01T20:02:54Z</time>
  <course>334.58</course>
  <speed>0.01</speed>
  <fix>3d</fix>
</trkpt>
<trkpt lat="-27.274439" lon="151.290064">
  <ele>373.55</ele>
  <time>2026-09-01T20:02:54Z</time>
  <course>10.55</course>
  <speed>0.0</speed>
  <fix>3d</fix>
</trkpt>
<trkpt lat="-27.274439" lon="151.290064">
  <ele>373.24</ele>
  <time>2026-09-01T20:02:54Z</time>
  <course>337.09</course>
  <speed>0.01</speed>
  <fix>3d</fix>
</trkpt>
<trkpt lat="-27.274439" lon="151.290064">
  <ele>373.68</ele>
  <time>2026-09-01T20:02:54Z</time>
  <course>10.55</course>
  <speed>0.0</speed>
  <fix>3d</fix>
</trkpt>
<trkpt lat="-27.274439" lon="151.290064">
  <ele>373.24</ele>
  <time>2026-09-01T20:02:54Z</time>
  <course>337.09</course>
  <speed>0.01</speed>
  <fix>3d</fix>
</trkpt>
<trkpt lat="-27.274439" lon="151.290064">
  <ele>373.81</ele>
  <time>2026-09-01T20:02:54Z</time>
  <course>10.55</course>
  <speed>0.0</speed>
  <fix>3d</fix>
</trkpt>
<trkpt lat="-27.274439" lon="151.2900639">
  <ele>373.53</ele>
  <time>2026-09-01T20:02:54Z</time>
  <course>337.74</course>
  <speed>0.01</speed>
  <fix>3d</fix>
</trkpt>
<trkpt lat="-27.274439" lon="151.290064">
  <ele>373.93</ele>
  <time>2026-09-01T20:02:54Z</time>
  <course>10.56</course>
  <speed>0.0</speed>
  <fix>3d</fix>
</trkpt>
<trkpt lat="-27.274439" lon="151.2900639">
  <ele>373.53</ele>
  <time>2026-09-01T20:02:54Z</time>
  <course>337.74</course>
  <speed>0.01</speed>
  <fix>3d</fix>
</trkpt>
<trkpt lat="-27.274439" lon="151.290064">
  <ele>374.03</ele>
  <time>2026-09-01T20:02:54Z</time>
  <course>10.56</course>
  <speed>0.01</speed>
  <fix>3d</fix>
</trkpt>
<trkpt lat="-27.274439" lon="151.2900639">
  <ele>373.79</ele>
  <time>2026-09-01T20:02:54Z</time>
  <course>330.3</course>
  <speed>0.01</speed>
  <fix>3d</fix>
</trkpt>
<trkpt lat="-27.274439" lon="151.290064">
  <ele>374.11</ele>
  <time>2026-09-01T20:02:54Z</time>
  <course>10.56</course>
  <speed>0.02</speed>
  <fix>3d</fix>
</trkpt>
<trkpt lat="-27.274439" lon="151.2900639">
  <ele>373.79</ele>
  <time>2026-09-01T20:02:54Z</time>
  <course>330.3</course>
  <speed>0.01</speed>
  <fix>3d</fix>
</trkpt>
<trkpt lat="-27.274439" lon="151.290064">
  <ele>374.17</ele>
  <time>2026-09-01T20:02:54Z</time>
  <course>10.53</course>
  <speed>0.03</speed>
  <fix>3d</fix>
</trkpt>
<trkpt lat="-27.274439" lon="151.2900639">
  <ele>374.0</ele>
  <time>2026-09-01T20:02:54Z</time>
  <course>276.11</course>
  <speed>0.0</speed>
  <fix>3d</fix>
</trkpt>
<trkpt lat="-27.274439" lon="151.290064">
  <ele>374.22</ele>
  <time>2026-09-01T20:02:54Z</time>
  <course>10.46</course>
  <speed>0.04</speed>
  <fix>3d</fix>
</trkpt>
<trkpt lat="-27.274439" lon="151.2900639">
  <ele>374.0</ele>
  <time>2026-09-01T20:02:54Z</time>
  <course>276.11</course>
  <speed>0.0</speed>
  <fix>3d</fix>
</trkpt>
<trkpt lat="-27.2744391" lon="151.290064">
  <ele>374.25</ele>
  <time>2026-09-01T20:02:54Z</time>
  <course>10.4</course>
  <speed>0.05</speed>
  <fix>3d</fix>
</trkpt>
<trkpt lat="-27.274439" lon="151.2900639">
  <ele>374.15</ele>
  <time>2026-09-01T20:02:54Z</time>
  <course>201.83</course>
  <speed>0.01</speed>
  <fix>3d</fix>
</trkpt>
<trkpt lat="-27.2744391" lon="151.290064">
  <ele>374.27</ele>
  <time>2026-09-01T20:02:54Z</time>
  <course>10.37</course>
  <speed>0.06</speed>
  <fix>3d</fix>
</trkpt>
<trkpt lat="-27.274439" lon="151.2900639">
  <ele>374.15</ele>
  <time>2026-09-01T20:02:54Z</time>
  <course>201.83</course>
  <speed>0.01</speed>
  <fix>3d</fix>
</trkpt>
<trkpt lat="-27.2744392" lon="151.290064">
  <ele>374.27</ele>
  <time>2026-09-01T20:02:54Z</time>
  <course>10.39</course>
  <speed>0.07</speed>
  <fix>3d</fix>
</trkpt>
<trkpt lat="-27.274439" lon="151.2900639">
  <ele>374.23</ele>
  <time>2026-09-01T20:02:54Z</time>
  <course>191.07</course>
  <speed>0.03</speed>
  <fix>3d</fix>
</trkpt>
<trkpt lat="-27.2744392" lon="151.290064">
  <ele>374.26</ele>
  <time>2026-09-01T20:02:54Z</time>
  <course>10.46</course>
  <speed>0.08</speed>
  <fix>3d</fix>
</trkpt>
<trkpt lat="-27.274439" lon="151.2900639">
  <ele>374.23</ele>
  <time>2026-09-01T20:02:54Z</time>
  <course>191.07</course>
  <speed>0.03</speed>
  <fix>3d</fix>
</trkpt>
<trkpt lat="-27.2744393" lon="151.290064">
  <ele>374.24</ele>
  <time>2026-09-01T20:02:54Z</time>
  <course>10.55</course>
  <speed>0.09</speed>
  <fix>3d</fix>
</trkpt>
<trkpt lat="-27.274439" lon="151.2900639">
  <ele>374.26</ele>
  <time>2026-09-01T20:02:54Z</time>
  <course>192.21</course>
  <speed>0.05</speed>
  <fix>3d</fix>
</trkpt>
<trkpt lat="-27.2744394" lon="151.290064">
  <ele>374.21</ele>
  <time>2026-09-01T20:02:54Z</time>
  <course>10.63</course>
  <speed>0.09055385138137417</speed>
  <fix>3d</fix>
</trkpt>
<trkpt lat="-27.274439" lon="151.2900639">
  <ele>374.26</ele>
  <time>2026-09-01T20:02:54Z</time>
  <course>192.21</course>
  <speed>0.05</speed>
  <fix>3d</fix>
</trkpt>
<trkpt lat="-27.2744394" lon="151.290064">
  <ele>374.16</ele>
  <time>2026-09-01T20:02:54Z</time>
  <course>10.66</course>
  <speed>0.1</speed>
  <fix>3d</fix>
</trkpt>
<trkpt lat="-27.2744391" lon="151.2900638">
  <ele>374.24</ele>
  <time>2026-09-01T20:02:54Z</time>
  <course>193.22</course>
  <speed>0.07</speed>
  <fix>3d</fix>
</trkpt>
<trkpt lat="-27.2744395" lon="151.2900639">
  <ele>374.1</ele>
  <time>2026-09-01T20:02:54Z</time>
  <course>10.62</course>
  <speed>0.1</speed>
  <fix>3d</fix>
</trkpt>
<trkpt lat="-27.2744391" lon="151.2900638">
  <ele>374.24</ele>
  <time>2026-09-01T20:02:54Z</time>
  <course>193.22</course>
  <speed>0.07</speed>
  <fix>3d</fix>
</trkpt>
<trkpt lat="-27.2744396" lon="151.2900639">
  <ele>374.03</ele>
  <time>2026-09-01T20:02:54Z</time>
  <course>10.51</course>
  <speed>0.1</speed>
  <fix>3d</fix>
</trkpt>
<trkpt lat="-27.2744393" lon="151.2900637">
  <ele>374.16</ele>
  <time>2026-09-01T20:02:54Z</time>
  <course>191.18</course>
  <speed>0.08</speed>
  <fix>3d</fix>
</trkpt>
<trkpt lat="-27.2744397" lon="151.2900639">
  <ele>373.95</ele>
  <time>2026-09-01T20:02:54Z</time>
  <course>10.41</course>
  <speed>0.1</speed>
  <fix>3d</fix>
</trkpt>
<trkpt lat="-27.2744393" lon="151.2900637">
  <ele>374.16</ele>
  <time>2026-09-01T20:02:54Z</time>
  <course>191.18</course>
  <speed>0.08</speed>
  <fix>3d</fix>
</trkpt>
<trkpt lat="-27.2744397" lon="151.2900639">
  <ele>373.85</ele>
  <time>2026-09-01T20:02:54Z</time>
  <course>10.33</course>
  <speed>0.1</speed>
  <fix>3d</fix>
</trkpt>
<trkpt lat="-27.2744394" lon="151.2900637">
  <ele>374.04</ele>
  <time>2026-09-01T20:02:54Z</time>
  <course>188.12</course>
  <speed>0.09</speed>
  <fix>3d</fix>
</trkpt>
<trkpt lat="-27.2744398" lon="151.2900639">
  <ele>373.75</ele>
  <time>2026-09-01T20:02:54Z</time>
  <course>10.29</course>
  <speed>0.1</speed>
  <fix>3d</fix>
</trkpt>
<trkpt lat="-27.2744394" lon="151.2900637">
  <ele>374.04</ele>
  <time>2026-09-01T20:02:54Z</time>
  <course>188.12</course>
  <speed>0.09</speed>
  <fix>3d</fix>
</trkpt>
<trkpt lat="-27.2744399" lon="151.2900639">
  <ele>373.65</ele>
  <time>2026-09-01T20:02:54Z</time>
  <course>10.29</course>
  <speed>0.09</speed>
  <fix>3d</fix>
</trkpt>
<trkpt lat="-27.2744396" lon="151.2900637">
  <ele>373.87</ele>
  <time>2026-09-01T20:02:54Z</time>
  <course>186.72</course>
  <speed>0.08</speed>
  <fix>3d</fix>
</trkpt>
<trkpt lat="-27.2744399" lon="151.2900638">
  <ele>373.54</ele>
  <time>2026-09-01T20:02:54Z</time>
  <course>10.31</course>
  <speed>0.09</speed>
  <fix>3d</fix>
</trkpt>
<trkpt lat="-27.2744396" lon="151.2900637">
  <ele>373.87</ele>
  <time>2026-09-01T20:02:54Z</time>
  <course>186.72</course>
  <speed>0.08</speed>
  <fix>3d</fix>
</trkpt>
<trkpt lat="-27.27444" lon="151.2900638">
  <ele>373.42</ele>
  <time>2026-09-01T20:02:54Z</time>
  <course>10.35</course>
  <speed>0.08</speed>
  <fix>3d</fix>
</trkpt>
<trkpt lat="-27.2744397" lon="151.2900637">
  <ele>373.67</ele>
  <time>2026-09-01T20:02:54Z</time>
  <course>186.18</course>
  <speed>0.08</speed>
  <fix>3d</fix>
</trkpt>
<trkpt lat="-27.2744401" lon="151.2900638">
  <ele>373.3</ele>
  <time>2026-09-01T20:02:54Z</time>
  <course>10.4</course>
  <speed>0.08</speed>
  <fix>3d</fix>
</trkpt>
<trkpt lat="-27.2744397" lon="151.2900637">
  <ele>373.67</ele>
  <time>2026-09-01T20:02:54Z</time>
  <course>186.18</course>
  <speed>0.08</speed>
  <fix>3d</fix>
</trkpt>
<trkpt lat="-27.2744401" lon="151.2900638">
  <ele>373.18</ele>
  <time>2026-09-01T20:02:54Z</time>
  <course>10.44</course>
  <speed>0.07</speed>
  <fix>3d</fix>
</trkpt>
<trkpt lat="-27.2744399" lon="151.2900637">
  <ele>373.45</ele>
  <time>2026-09-01T20:02:54Z</time>
  <course>185.69</course>
  <speed>0.07</speed>
  <fix>3d</fix>
</trkpt>
<trkpt lat="-27.2744402" lon="151.2900638">
  <ele>373.06</ele>
  <time>2026-09-01T20:02:54Z</time>
  <course>10.48</course>
  <speed>0.07</speed>
  <fix>3d</fix>
</trkpt>
<trkpt lat="-27.2744399" lon="151.2900637">
  <ele>373.45</ele>
  <time>2026-09-01T20:02:54Z</time>
  <course>185.69</course>
  <speed>0.07</speed>
  <fix>3d</fix>
</trkpt>
<trkpt lat="-27.2744402" lon="151.2900638">
  <ele>372.94</ele>
  <time>2026-09-01T20:02:54Z</time>
  <course>10.5</course>
  <speed>0.06</speed>
  <fix>3d</fix>
</trkpt>
<trkpt lat="-27.27444" lon="151.2900637">
  <ele>373.22</ele>
  <time>2026-09-01T20:02:54Z</time>
  <course>185.33</course>
  <speed>0.06</speed>
  <fix>3d</fix>
</trkpt>
<trkpt lat="-27.2744402" lon="151.2900638">
  <ele>372.83</ele>
  <time>2026-09-01T20:02:54Z</time>
  <course>10.51</course>
  <speed>0.06</speed>
  <fix>3d</fix>
</trkpt>
<trkpt lat="-27.27444" lon="151.2900637">
  <ele>373.22</ele>
  <time>2026-09-01T20:02:54Z</time>
  <course>185.33</course>
  <speed>0.06</speed>
  <fix>3d</fix>
</trkpt>
<trkpt lat="-27.2744403" lon="151.2900638">
  <ele>372.71</ele>
  <time>2026-09-01T20:02:54Z</time>
  <course>10.51</course>
  <speed>0.05</speed>
  <fix>3d</fix>
</trkpt>
<trkpt lat="-27.2744401" lon="151.2900637">
  <ele>372.99</ele>
  <time>2026-09-01T20:02:54Z</time>
  <course>184.83</course>
  <speed>0.05</speed>
  <fix>3d</fix>
</trkpt>
<trkpt lat="-27.2744403" lon="151.2900638">
  <ele>372.6</ele>
  <time>2026-09-01T20:02:54Z</time>
  <course>10.5</course>
  <speed>0.05</speed>
  <fix>3d</fix>
</trkpt>
<trkpt lat="-27.2744401" lon="151.2900637">
  <ele>372.99</ele>
  <time>2026-09-01T20:02:54Z</time>
  <course>184.83</course>
  <speed>0.05</speed>
  <fix>3d</fix>
</trkpt>
<trkpt lat="-27.2744403" lon="151.2900638">
  <ele>372.48</ele>
  <time>2026-09-01T20:02:54Z</time>
  <course>10.48</course>
  <speed>0.04</speed>
  <fix>3d</fix>
</trkpt>
<trkpt lat="-27.2744402" lon="151.2900637">
  <ele>372.77</ele>
  <time>2026-09-01T20:02:54Z</time>
  <course>183.89</course>
  <speed>0.04</speed>
  <fix>3d</fix>
</trkpt>
<trkpt lat="-27.2744404" lon="151.2900638">
  <ele>372.37</ele>
  <time>2026-09-01T20:02:54Z</time>
  <course>10.46</course>
  <speed>0.04</speed>
  <fix>3d</fix>
</trkpt>
<trkpt lat="-27.2744402" lon="151.2900637">
  <ele>372.77</ele>
  <time>2026-09-01T20:02:54Z</time>
  <course>183.89</course>
  <speed>0.04</speed>
  <fix>3d</fix>
</trkpt>
<trkpt lat="-27.2744404" lon="151.2900638">
  <ele>372.27</ele>
  <time>2026-09-01T20:02:54Z</time>
  <course>10.45</course>
  <speed>0.03</speed>
  <fix>3d</fix>
</trkpt>
<trkpt lat="-27.2744402" lon="151.2900637">
  <ele>372.55</ele>
  <time>2026-09-01T20:02:54Z</time>
  <course>182.67</course>
  <speed>0.03</speed>
  <fix>3d</fix>
</trkpt>
<trkpt lat="-27.2744404" lon="151.2900638">
  <ele>372.16</ele>
  <time>2026-09-01T20:02:54Z</time>
  <course>10.43</course>
  <speed>0.0316227766016838</speed>
  <fix>3d</fix>
</trkpt>
<trkpt lat="-27.2744402" lon="151.2900637">
  <ele>372.55</ele>
  <time>2026-09-01T20:02:54Z</time>
  <course>182.67</course>
  <speed>0.03</speed>
  <fix>3d</fix>
</trkpt>
<trkpt lat="-27.2744404" lon="151.2900638">
  <ele>372.05</ele>
  <time>2026-09-01T20:02:54Z</time>
  <course>10.42</course>
  <speed>0.022360679774997897</speed>
  <fix>3d</fix>
</trkpt>
<trkpt lat="-27.2744403" lon="151.2900637">
  <ele>372.33</ele>
  <time>2026-09-01T20:02:54Z</time>
  <course>180.02</course>
  <speed>0.02</speed>
  <fix>3d</fix>
</trkpt>
<trkpt lat="-27.2744404" lon="151.2900638">
  <ele>371.94</ele>
  <time>2026-09-01T20:02:54Z</time>
  <course>10.4</course>
  <speed>0.022360679774997897</speed>
  <fix>3d</fix>
</trkpt>
<trkpt lat="-27.2744403" lon="151.2900637">
  <ele>372.33</ele>
  <time>2026-09-01T20:02:54Z</time>
  <course>180.02</course>
  <speed>0.02</speed>
  <fix>3d</fix>
</trkpt>
<trkpt lat="-27.2744404" lon="151.2900638">
  <ele>371.84</ele>
  <time>2026-09-01T20:02:54Z</time>
  <course>10.39</course>
  <speed>0.022360679774997897</speed>
  <fix>3d</fix>
</trkpt>
<trkpt lat="-27.2744403" lon="151.2900637">
  <ele>372.12</ele>
  <time>2026-09-01T20:02:54Z</time>
  <course>174.33</course>
  <speed>0.01</speed>
  <fix>3d</fix>
</trkpt>
<trkpt lat="-27.2744404" lon="151.2900638">
  <ele>371.73</ele>
  <time>2026-09-01T20:02:54Z</time>
  <course>10.37</course>
  <speed>0.01414213562373095</speed>
  <fix>3d</fix>
</trkpt>
<trkpt lat="-27.2744403" lon="151.2900637">
  <ele>372.12</ele>
  <time>2026-09-01T20:02:54Z</time>
  <course>174.33</course>
  <speed>0.01</speed>
  <fix>3d</fix>
</trkpt>
<trkpt lat="-27.2744404" lon="151.2900638">
  <ele>371.63</ele>
  <time>2026-09-01T20:02:54Z</time>
  <course>10.36</course>
  <speed>0.01414213562373095</speed>
  <fix>3d</fix>
</trkpt>
<trkpt lat="-27.2744404" lon="151.2900637">
  <ele>371.91</ele>
  <time>2026-09-01T20:02:54Z</time>
  <course>160.23</course>
  <speed>0.0</speed>
  <fix>3d</fix>
</trkpt>
<trkpt lat="-27.2744404" lon="151.2900638">
  <ele>371.52</ele>
  <time>2026-09-01T20:02:54Z</time>
  <course>10.37</course>
  <speed>0.01</speed>
  <fix>3d</fix>
</trkpt>
<trkpt lat="-27.2744404" lon="151.2900637">
  <ele>371.91</ele>
  <time>2026-09-01T20:02:54Z</time>
  <course>160.23</course>
  <speed>0.0</speed>
  <fix>3d</fix>
</trkpt>
<trkpt lat="-27.2744404" lon="151.2900638">
  <ele>371.41</ele>
  <time>2026-09-01T20:02:54Z</time>
  <course>10.4</course>
  <speed>0.01</speed>
  <fix>3d</fix>
</trkpt>
<trkpt lat="-27.2744404" lon="151.2900637">
  <ele>371.7</ele>
  <time>2026-09-01T20:02:54Z</time>
  <course>93.29</course>
  <speed>0.0</speed>
  <fix>3d</fix>
</trkpt>
<trkpt lat="-27.2744404" lon="151.2900638">
  <ele>371.29</ele>
  <time>2026-09-01T20:02:54Z</time>
  <course>10.44</course>
  <speed>0.01</speed>
  <fix>3d</fix>
</trkpt>
<trkpt lat="-27.2744404" lon="151.2900637">
  <ele>371.7</ele>
  <time>2026-09-01T20:02:54Z</time>
  <course>93.29</course>
  <speed>0.0</speed>
  <fix>3d</fix>
</trkpt>
<trkpt lat="-27.2744404" lon="151.2900638">
  <ele>371.18</ele>
  <time>2026-09-01T20:02:54Z</time>
  <course>10.49</course>
  <speed>0.01</speed>
  <fix>3d</fix>
</trkpt>
<trkpt lat="-27.2744404" lon="151.2900637">
  <ele>371.49</ele>
  <time>2026-09-01T20:02:54Z</time>
  <course>16.15</course>
  <speed>0.0</speed>
  <fix>3d</fix>
</trkpt>
<trkpt lat="-27.2744404" lon="151.2900638">
  <ele>371.07</ele>
  <time>2026-09-01T20:02:54Z</time>
  <course>10.52</course>
  <speed>0.01</speed>
  <fix>3d</fix>
</trkpt>
<trkpt lat="-27.2744404" lon="151.2900637">
  <ele>371.49</ele>
  <time>2026-09-01T20:02:54Z</time>
  <course>16.15</course>
  <speed>0.0</speed>
  <fix>3d</fix>
</trkpt>
<trkpt lat="-27.2744404" lon="151.2900638">
  <ele>370.96</ele>
  <time>2026-09-01T20:02:54Z</time>
  <course>10.55</course>
  <speed>0.01</speed>
  <fix>3d</fix>
</trkpt>
<trkpt lat="-27.2744404" lon="151.2900637">
  <ele>371.27</ele>
  <time>2026-09-01T20:02:54Z</time>
  <course>1.86</course>
  <speed>0.01</speed>
  <fix>3d</fix>
</trkpt>
<trkpt lat="-27.2744404" lon="151.2900638">
  <ele>370.84</ele>
  <time>2026-09-01T20:02:54Z</time>
  <course>10.57</course>
  <speed>0.01</speed>
  <fix>3d</fix>
</trkpt>
<trkpt lat="-27.2744404" lon="151.2900637">
  <ele>371.27</ele>
  <time>2026-09-01T20:02:54Z</time>
  <course>1.86</course>
  <speed>0.01</speed>
  <fix>3d</fix>
</trkpt>
<trkpt lat="-27.2744404" lon="151.2900638">
  <ele>370.73</ele>
  <time>2026-09-01T20:02:54Z</time>
  <course>10.58</course>
  <speed>0.01</speed>
  <fix>3d</fix>
</trkpt>
<trkpt lat="-27.2744404" lon="151.2900637">
  <ele>371.05</ele>
  <time>2026-09-01T20:02:54Z</time>
  <course>357.21</course>
  <speed>0.02</speed>
  <fix>3d</fix>
</trkpt>
<trkpt lat="-27.2744404" lon="151.2900638">
  <ele>370.61</ele>
  <time>2026-09-01T20:02:54Z</time>
  <course>10.58</course>
  <speed>0.01</speed>
  <fix>3d</fix>
</trkpt>
<trkpt lat="-27.2744404" lon="151.2900637">
  <ele>371.05</ele>
  <time>2026-09-01T20:02:54Z</time>
  <course>357.21</course>
  <speed>0.02</speed>
  <fix>3d</fix>
</trkpt>
<trkpt lat="-27.2744404" lon="151.2900638">
  <ele>370.5</ele>
  <time>2026-09-01T20:02:54Z</time>
  <course>10.57</course>
  <speed>0.02</speed>
  <fix>3d</fix>
</trkpt>
<trkpt lat="-27.2744403" lon="151.2900637">
  <ele>370.83</ele>
  <time>2026-09-01T20:02:54Z</time>
  <course>355.04</course>
  <speed>0.02</speed>
  <fix>3d</fix>
</trkpt>
<trkpt lat="-27.2744404" lon="151.2900638">
  <ele>370.38</ele>
  <time>2026-09-01T20:02:54Z</time>
  <course>10.55</course>
  <speed>0.02</speed>
  <fix>3d</fix>
</trkpt>
<trkpt lat="-27.2744403" lon="151.2900637">
  <ele>370.83</ele>
  <time>2026-09-01T20:02:54Z</time>
  <course>355.04</course>
  <speed>0.02</speed>
  <fix>3d</fix>
</trkpt>
<trkpt lat="-27.2744403" lon="151.2900638">
  <ele>370.27</ele>
  <time>2026-09-01T20:02:54Z</time>
  <course>10.54</course>
  <speed>0.02</speed>
  <fix>3d</fix>
</trkpt>
<trkpt lat="-27.2744403" lon="151.2900637">
  <ele>370.61</ele>
  <time>2026-09-01T20:02:54Z</time>
  <course>353.77</course>
  <speed>0.03</speed>
  <fix>3d</fix>
</trkpt>
<trkpt lat="-27.2744403" lon="151.2900638">
  <ele>370.15</ele>
  <time>2026-09-01T20:02:54Z</time>
  <course>10.53</course>
  <speed>0.02</speed>
  <fix>3d</fix>
</trkpt>
<trkpt lat="-27.2744403" lon="151.2900637">
  <ele>370.61</ele>
  <time>2026-09-01T20:02:54Z</time>
  <course>353.77</course>
  <speed>0.03</speed>
  <fix>3d</fix>
</trkpt>
<trkpt lat="-27.2744403" lon="151.2900638">
  <ele>370.04</ele>
  <time>2026-09-01T20:02:54Z</time>
  <course>10.52</course>
  <speed>0.03</speed>
  <fix>3d</fix>
</trkpt>
<trkpt lat="-27.2744402" lon="151.2900637">
  <ele>370.38</ele>
  <time>2026-09-01T20:02:54Z</time>
  <course>352.91</course>
  <speed>0.04</speed>
  <fix>3d</fix>
</trkpt>
<trkpt lat="-27.2744402" lon="151.2900638">
  <ele>369.92</ele>
  <time>2026-09-01T20:02:54Z</time>
  <course>10.52</course>
  <speed>0.03</speed>
  <fix>3d</fix>
</trkpt>
<trkpt lat="-27.2744402" lon="151.2900637">
  <ele>370.38</ele>
  <time>2026-09-01T20:02:54Z</time>
  <course>352.91</course>
  <speed>0.04</speed>
  <fix>3d</fix>
</trkpt>
<trkpt lat="-27.2744402" lon="151.2900638">
  <ele>369.81</ele>
  <time>2026-09-01T20:02:54Z</time>
  <course>10.52</course>
  <speed>0.03</speed>
  <fix>3d</fix>
</trkpt>
<trkpt lat="-27.2744401" lon="151.2900637">
  <ele>370.15</ele>
  <time>2026-09-01T20:02:54Z</time>
  <course>352.29</course>
  <speed>0.04</speed>
  <fix>3d</fix>
</trkpt>
<trkpt lat="-27.2744401" lon="151.2900638">
  <ele>369.7</ele>
  <time>2026-09-01T20:02:54Z</time>
  <course>10.52</course>
  <speed>0.03</speed>
  <fix>3d</fix>
</trkpt>
<trkpt lat="-27.2744401" lon="151.2900637">
  <ele>370.15</ele>
  <time>2026-09-01T20:02:54Z</time>
  <course>352.29</course>
  <speed>0.04</speed>
  <fix>3d</fix>
</trkpt>
<trkpt lat="-27.2744401" lon="151.2900638">
  <ele>369.59</ele>
  <time>2026-09-01T20:02:54Z</time>
  <course>10.53</course>
  <speed>0.03</speed>
  <fix>3d</fix>
</trkpt>
<trkpt lat="-27.27444" lon="151.2900637">
  <ele>369.93</ele>
  <time>2026-09-01T20:02:54Z</time>
  <course>351.83</course>
  <speed>0.05</speed>
  <fix>3d</fix>
</trkpt>
<trkpt lat="-27.27444" lon="151.2900638">
  <ele>369.48</ele>
  <time>2026-09-01T20:02:54Z</time>
  <course>10.53</course>
  <speed>0.03</speed>
  <fix>3d</fix>
</trkpt>
<trkpt lat="-27.27444" lon="151.2900637">
  <ele>369.93</ele>
  <time>2026-09-01T20:02:54Z</time>
  <course>351.83</course>
  <speed>0.05</speed>
  <fix>3d</fix>
</trkpt>
<trkpt lat="-27.27444" lon="151.2900638">
  <ele>369.37</ele>
  <time>2026-09-01T20:02:54Z</time>
  <course>10.54</course>
  <speed>0.04</speed>
  <fix>3d</fix>
</trkpt>
<trkpt lat="-27.2744399" lon="151.2900636">
  <ele>369.71</ele>
  <time>2026-09-01T20:02:54Z</time>
  <course>351.62</course>
  <speed>0.05</speed>
  <fix>3d</fix>
</trkpt>
<trkpt lat="-27.2744399" lon="151.2900638">
  <ele>369.26</ele>
  <time>2026-09-01T20:02:54Z</time>
  <course>10.54</course>
  <speed>0.04</speed>
  <fix>3d</fix>
</trkpt>
<trkpt lat="-27.2744399" lon="151.2900636">
  <ele>369.71</ele>
  <time>2026-09-01T20:02:54Z</time>
  <course>351.62</course>
  <speed>0.05</speed>
  <fix>3d</fix>
</trkpt>
<trkpt lat="-27.2744399" lon="151.2900638">
  <ele>369.14</ele>
  <time>2026-09-01T20:02:54Z</time>
  <course>10.55</course>
  <speed>0.04</speed>
  <fix>3d</fix>
</trkpt>
<trkpt lat="-27.2744398" lon="151.2900636">
  <ele>369.49</ele>
  <time>2026-09-01T20:02:54Z</time>
  <course>351.65</course>
  <speed>0.05</speed>
  <fix>3d</fix>
</trkpt>
<trkpt lat="-27.2744398" lon="151.2900638">
  <ele>369.03</ele>
  <time>2026-09-01T20:02:54Z</time>
  <course>10.55</course>
  <speed>0.04</speed>
  <fix>3d</fix>
</trkpt>
<trkpt lat="-27.2744398" lon="151.2900636">
  <ele>369.49</ele>
  <time>2026-09-01T20:02:54Z</time>
  <course>351.65</course>
  <speed>0.05</speed>
  <fix>3d</fix>
</trkpt>
<trkpt lat="-27.2744398" lon="151.2900638">
  <ele>368.92</ele>
  <time>2026-09-01T20:02:54Z</time>
  <course>10.56</course>
  <speed>0.04</speed>
  <fix>3d</fix>
</trkpt>
<trkpt lat="-27.2744397" lon="151.2900636">
  <ele>369.26</ele>
  <time>2026-09-01T20:02:54Z</time>
  <course>351.87</course>
  <speed>0.06</speed>
  <fix>3d</fix>
</trkpt>
<trkpt lat="-27.2744397" lon="151.2900638">
  <ele>368.8</ele>
  <time>2026-09-01T20:02:54Z</time>
  <course>10.56</course>
  <speed>0.04</speed>
  <fix>3d</fix>
</trkpt>
<trkpt lat="-27.2744397" lon="151.2900636">
  <ele>369.26</ele>
  <time>2026-09-01T20:02:54Z</time>
  <course>351.87</course>
  <speed>0.06</speed>
  <fix>3d</fix>
</trkpt>
<trkpt lat="-27.2744397" lon="151.2900637">
  <ele>368.69</ele>
  <time>2026-09-01T20:02:54Z</time>
  <course>10.56</course>
  <speed>0.04</speed>
  <fix>3d</fix>
</trkpt>
<trkpt lat="-27.2744396" lon="151.2900636">
  <ele>369.03</ele>
  <time>2026-09-01T20:02:54Z</time>
  <course>352.07</course>
  <speed>0.06</speed>
  <fix>3d</fix>
</trkpt>
<trkpt lat="-27.2744396" lon="151.2900637">
  <ele>368.57</ele>
  <time>2026-09-01T20:02:54Z</time>
  <course>10.57</course>
  <speed>0.04</speed>
  <fix>3d</fix>
</trkpt>
<trkpt lat="-27.2744396" lon="151.2900636">
  <ele>369.03</ele>
  <time>2026-09-01T20:02:54Z</time>
  <course>352.07</course>
  <speed>0.06</speed>
  <fix>3d</fix>
</trkpt>
<trkpt lat="-27.2744396" lon="151.2900637">
  <ele>368.46</ele>
  <time>2026-09-01T20:02:54Z</time>
  <course>10.57</course>
  <speed>0.04</speed>
  <fix>3d</fix>
</trkpt>
<trkpt lat="-27.2744395" lon="151.2900636">
  <ele>368.8</ele>
  <time>2026-09-01T20:02:54Z</time>
  <course>352.09</course>
  <speed>0.06</speed>
  <fix>3d</fix>
</trkpt>
<trkpt lat="-27.2744395" lon="151.2900637">
  <ele>368.34</ele>
  <time>2026-09-01T20:02:54Z</time>
  <course>10.57</course>
  <speed>0.04</speed>
  <fix>3d</fix>
</trkpt>
<trkpt lat="-27.2744395" lon="151.2900636">
  <ele>368.8</ele>
  <time>2026-09-01T20:02:54Z</time>
  <course>352.09</course>
  <speed>0.06</speed>
  <fix>3d</fix>
</trkpt>
<trkpt lat="-27.2744395" lon="151.2900637">
  <ele>368.23</ele>
  <time>2026-09-01T20:02:54Z</time>
  <course>10.57</course>
  <speed>0.04</speed>
  <fix>3d</fix>
</trkpt>
<trkpt lat="-27.2744394" lon="151.2900636">
  <ele>368.58</ele>
  <time>2026-09-01T20:02:54Z</time>
  <course>352.5</course>
  <speed>0.06</speed>
  <fix>3d</fix>
</trkpt>
<trkpt lat="-27.2744394" lon="151.2900637">
  <ele>368.11</ele>
  <time>2026-09-01T20:02:54Z</time>
  <course>10.58</course>
  <speed>0.04</speed>
  <fix>3d</fix>
</trkpt>
<trkpt lat="-27.2744394" lon="151.2900636">
  <ele>368.58</ele>
  <time>2026-09-01T20:02:54Z</time>
  <course>352.5</course>
  <speed>0.06</speed>
  <fix>3d</fix>
</trkpt>
<trkpt lat="-27.2744394" lon="151.2900637">
  <ele>368.0</ele>
  <time>2026-09-01T20:02:54Z</time>
  <course>10.59</course>
  <speed>0.04</speed>
  <fix>3d</fix>
</trkpt>
<trkpt lat="-27.2744393" lon="151.2900635">
  <ele>368.35</ele>
  <time>2026-09-01T20:02:54Z</time>
  <course>353.62</course>
  <speed>0.06</speed>
  <fix>3d</fix>
</trkpt>
<trkpt lat="-27.2744393" lon="151.2900637">
  <ele>367.88</ele>
  <time>2026-09-01T20:02:54Z</time>
  <course>10.61</course>
  <speed>0.03</speed>
  <fix>3d</fix>
</trkpt>
<trkpt lat="-27.2744393" lon="151.2900635">
  <ele>368.35</ele>
  <time>2026-09-01T20:02:54Z</time>
  <course>353.62</course>
  <speed>0.06</speed>
  <fix>3d</fix>
</trkpt>
<trkpt lat="-27.2744393" lon="151.2900637">
  <ele>367.77</ele>
  <time>2026-09-01T20:02:54Z</time>
  <course>10.62</course>
  <speed>0.03</speed>
  <fix>3d</fix>
</trkpt>
<trkpt lat="-27.2744392" lon="151.2900635">
  <ele>368.12</ele>
  <time>2026-09-01T20:02:54Z</time>
  <course>355.01</course>
  <speed>0.05</speed>
  <fix>3d</fix>
</trkpt>
<trkpt lat="-27.2744392" lon="151.2900637">
  <ele>367.66</ele>
  <time>2026-09-01T20:02:54Z</time>
  <course>10.63</course>
  <speed>0.03</speed>
  <fix>3d</fix>
</trkpt>
<trkpt lat="-27.2744392" lon="151.2900635">
  <ele>368.12</ele>
  <time>2026-09-01T20:02:54Z</time>
  <course>355.01</course>
  <speed>0.05</speed>
  <fix>3d</fix>
</trkpt>
<trkpt lat="-27.2744392" lon="151.2900637">
  <ele>367.54</ele>
  <time>2026-09-01T20:02:54Z</time>
  <course>10.64</course>
  <speed>0.03</speed>
  <fix>3d</fix>
</trkpt>
<trkpt lat="-27.2744391" lon="151.2900635">
  <ele>367.89</ele>
  <time>2026-09-01T20:02:54Z</time>
  <course>356.05</course>
  <speed>0.05</speed>
  <fix>3d</fix>
</trkpt>
<trkpt lat="-27.2744391" lon="151.2900637">
  <ele>367.43</ele>
  <time>2026-09-01T20:02:54Z</time>
  <course>10.65</course>
  <speed>0.03</speed>
  <fix>3d</fix>
</trkpt>
<trkpt lat="-27.2744391" lon="151.2900635">
  <ele>367.89</ele>
  <time>2026-09-01T20:02:54Z</time>
  <course>356.05</course>
  <speed>0.05</speed>
  <fix>3d</fix>
</trkpt>
<trkpt lat="-27.2744391" lon="151.2900637">
  <ele>367.31</ele>
  <time>2026-09-01T20:02:54Z</time>
  <course>10.65</course>
  <speed>0.03</speed>
  <fix>3d</fix>
</trkpt>
<trkpt lat="-27.274439" lon="151.2900635">
  <ele>367.66</ele>
  <time>2026-09-01T20:02:54Z</time>
  <course>356.69</course>
  <speed>0.05</speed>
  <fix>3d</fix>
</trkpt>
<trkpt lat="-27.274439" lon="151.2900637">
  <ele>367.2</ele>
  <time>2026-09-01T20:02:54Z</time>
  <course>10.64</course>
  <speed>0.02</speed>
  <fix>3d</fix>
</trkpt>
<trkpt lat="-27.274439" lon="151.2900635">
  <ele>367.66</ele>
  <time>2026-09-01T20:02:54Z</time>
  <course>356.69</course>
  <speed>0.05</speed>
  <fix>3d</fix>
</trkpt>
<trkpt lat="-27.274439" lon="151.2900637">
  <ele>367.09</ele>
  <time>2026-09-01T20:02:54Z</time>
  <course>10.64</course>
  <speed>0.02</speed>
  <fix>3d</fix>
</trkpt>
<trkpt lat="-27.2744389" lon="151.2900635">
  <ele>367.43</ele>
  <time>2026-09-01T20:02:54Z</time>
  <course>357.32</course>
  <speed>0.04</speed>
  <fix>3d</fix>
</trkpt>
<trkpt lat="-27.274439" lon="151.2900637">
  <ele>366.97</ele>
  <time>2026-09-01T20:02:54Z</time>
  <course>10.65</course>
  <speed>0.02</speed>
  <fix>3d</fix>
</trkpt>
<trkpt lat="-27.2744389" lon="151.2900635">
  <ele>367.43</ele>
  <time>2026-09-01T20:02:54Z</time>
  <course>357.32</course>
  <speed>0.04</speed>
  <fix>3d</fix>
</trkpt>
<trkpt lat="-27.2744389" lon="151.2900637">
  <ele>366.86</ele>
  <time>2026-09-01T20:02:54Z</time>
  <course>10.65</course>
  <speed>0.02</speed>
  <fix>3d</fix>
</trkpt>
<trkpt lat="-27.2744388" lon="151.2900635">
  <ele>367.2</ele>
  <time>2026-09-01T20:02:54Z</time>
  <course>358.28</course>
  <speed>0.04</speed>
  <fix>3d</fix>
</trkpt>
<trkpt lat="-27.2744389" lon="151.2900637">
  <ele>366.75</ele>
  <time>2026-09-01T20:02:54Z</time>
  <course>10.66</course>
  <speed>0.022360679774997897</speed>
  <fix>3d</fix>
</trkpt>
<trkpt lat="-27.2744388" lon="151.2900635">
  <ele>367.2</ele>
  <time>2026-09-01T20:02:54Z</time>
  <course>358.28</course>
  <speed>0.04</speed>
  <fix>3d</fix>
</trkpt>
<trkpt lat="-27.2744389" lon="151.2900636">
  <ele>366.63</ele>
  <time>2026-09-01T20:02:54Z</time>
  <course>10.67</course>
  <speed>0.022360679774997897</speed>
  <fix>3d</fix>
</trkpt>
<trkpt lat="-27.2744387" lon="151.2900635">
  <ele>366.97</ele>
  <time>2026-09-01T20:02:54Z</time>
  <course>359.55</course>
  <speed>0.04</speed>
  <fix>3d</fix>
</trkpt>
<trkpt lat="-27.2744388" lon="151.2900637">
  <ele>366.51</ele>
  <time>2026-09-01T20:02:54Z</time>
  <course>10.68</course>
  <speed>0.01414213562373095</speed>
  <fix>3d</fix>
</trkpt>
<trkpt lat="-27.2744387" lon="151.2900635">
  <ele>366.97</ele>
  <time>2026-09-01T20:02:54Z</time>
  <course>359.55</course>
  <speed>0.04</speed>
  <fix>3d</fix>
</trkpt>
<trkpt lat="-27.2744388" lon="151.2900636">
  <ele>366.4</ele>
  <time>2026-09-01T20:02:54Z</time>
  <course>10.69</course>
  <speed>0.01414213562373095</speed>
  <fix>3d</fix>
</trkpt>
<trkpt lat="-27.2744387" lon="151.2900635">
  <ele>366.74</ele>
  <time>2026-09-01T20:02:54Z</time>
  <course>0.57</course>
  <speed>0.03</speed>
  <fix>3d</fix>
</trkpt>
<trkpt lat="-27.2744388" lon="151.2900636">
  <ele>366.28</ele>
  <time>2026-09-01T20:02:54Z</time>
  <course>10.69</course>
  <speed>0.01414213562373095</speed>
  <fix>3d</fix>
</trkpt>
<trkpt lat="-27.2744387" lon="151.2900635">
  <ele>366.74</ele>
  <time>2026-09-01T20:02:54Z</time>
  <course>0.57</course>
  <speed>0.03</speed>
  <fix>3d</fix>
</trkpt>
<trkpt lat="-27.2744387" lon="151.2900636">
  <ele>366.16</ele>
  <time>2026-09-01T20:02:54Z</time>
  <course>10.7</course>
  <speed>0.01414213562373095</speed>
  <fix>3d</fix>
</trkpt>
<trkpt lat="-27.2744386" lon="151.2900635">
  <ele>366.51</ele>
  <time>2026-09-01T20:02:54Z</time>
  <course>1.35</course>
  <speed>0.03</speed>
  <fix>3d</fix>
</trkpt>
<trkpt lat="-27.2744387" lon="151.2900636">
  <ele>366.05</ele>
  <time>2026-09-01T20:02:54Z</time>
  <course>10.71</course>
  <speed>0.01414213562373095</speed>
  <fix>3d</fix>
</trkpt>
<trkpt lat="-27.2744386" lon="151.2900635">
  <ele>366.51</ele>
  <time>2026-09-01T20:02:54Z</time>
  <course>1.35</course>
  <speed>0.03</speed>
  <fix>3d</fix>
</trkpt>
<trkpt lat="-27.2744387" lon="151.2900636">
  <ele>365.93</ele>
  <time>2026-09-01T20:02:54Z</time>
  <course>10.72</course>
  <speed>0.01</speed>
  <fix>3d</fix>
</trkpt>
<trkpt lat="-27.2744386" lon="151.2900635">
  <ele>366.28</ele>
  <time>2026-09-01T20:02:54Z</time>
  <course>2.75</course>
  <speed>0.02</speed>
  <fix>3d</fix>
</trkpt>
<trkpt lat="-27.2744387" lon="151.2900636">
  <ele>365.81</ele>
  <time>2026-09-01T20:02:54Z</time>
  <course>10.73</course>
  <speed>0.01</speed>
  <fix>3d</fix>
</trkpt>
<trkpt lat="-27.2744386" lon="151.2900635">
  <ele>366.28</ele>
  <time>2026-09-01T20:02:54Z</time>
  <course>2.75</course>
  <speed>0.02</speed>
  <fix>3d</fix>
</trkpt>
<trkpt lat="-27.2744387" lon="151.2900636">
  <ele>365.7</ele>
  <time>2026-09-01T20:02:54Z</time>
  <course>10.75</course>
  <speed>0.01</speed>
  <fix>3d</fix>
</trkpt>
<trkpt lat="-27.2744385" lon="151.2900635">
  <ele>366.05</ele>
  <time>2026-09-01T20:02:54Z</time>
  <course>4.42</course>
  <speed>0.02</speed>
  <fix>3d</fix>
</trkpt>
<trkpt lat="-27.2744386" lon="151.2900636">
  <ele>365.58</ele>
  <time>2026-09-01T20:02:54Z</time>
  <course>10.76</course>
  <speed>0.01</speed>
  <fix>3d</fix>
</trkpt>
<trkpt lat="-27.2744385" lon="151.2900635">
  <ele>366.05</ele>
  <time>2026-09-01T20:02:54Z</time>
  <course>4.42</course>
  <speed>0.02</speed>
  <fix>3d</fix>
</trkpt>
<trkpt lat="-27.2744386" lon="151.2900636">
  <ele>365.47</ele>
  <time>2026-09-01T20:02:54Z</time>
  <course>10.76</course>
  <speed>0.01</speed>
  <fix>3d</fix>
</trkpt>
<trkpt lat="-27.2744385" lon="151.2900635">
  <ele>365.81</ele>
  <time>2026-09-01T20:02:54Z</time>
  <course>5.74</course>
  <speed>0.02</speed>
  <fix>3d</fix>
</trkpt>
<trkpt lat="-27.2744386" lon="151.2900636">
  <ele>365.35</ele>
  <time>2026-09-01T20:02:54Z</time>
  <course>10.77</course>
  <speed>0.01</speed>
  <fix>3d</fix>
</trkpt>
<trkpt lat="-27.2744385" lon="151.2900635">
  <ele>365.81</ele>
  <time>2026-09-01T20:02:54Z</time>
  <course>5.74</course>
  <speed>0.02</speed>
  <fix>3d</fix>
</trkpt>
<trkpt lat="-27.2744386" lon="151.2900636">
  <ele>365.24</ele>
  <time>2026-09-01T20:02:54Z</time>
  <course>10.78</course>
  <speed>0.01</speed>
  <fix>3d</fix>
</trkpt>
<trkpt lat="-27.2744384" lon="151.2900635">
  <ele>365.59</ele>
  <time>2026-09-01T20:02:54Z</time>
  <course>6.98</course>
  <speed>0.01</speed>
  <fix>3d</fix>
</trkpt>
<trkpt lat="-27.2744386" lon="151.2900636">
  <ele>365.12</ele>
  <time>2026-09-01T20:02:54Z</time>
  <course>10.79</course>
  <speed>0.01</speed>
  <fix>3d</fix>
</trkpt>
<trkpt lat="-27.2744384" lon="151.2900635">
  <ele>365.59</ele>
  <time>2026-09-01T20:02:54Z</time>
  <course>6.98</course>
  <speed>0.01</speed>
  <fix>3d</fix>
</trkpt>
<trkpt lat="-27.2744386" lon="151.2900636">
  <ele>365.0</ele>
  <time>2026-09-01T20:02:54Z</time>
  <course>10.81</course>
  <speed>0.0</speed>
  <fix>3d</fix>
</trkpt>
<trkpt lat="-27.2744384" lon="151.2900635">
  <ele>365.36</ele>
  <time>2026-09-01T20:02:54Z</time>
  <course>7.89</course>
  <speed>0.01</speed>
  <fix>3d</fix>
</trkpt>
<trkpt lat="-27.2744386" lon="151.2900636">
  <ele>364.89</ele>
  <time>2026-09-01T20:02:54Z</time>
  <course>10.83</course>
  <speed>0.0</speed>
  <fix>3d</fix>
</trkpt>
<trkpt lat="-27.2744384" lon="151.2900635">
  <ele>365.36</ele>
  <time>2026-09-01T20:02:54Z</time>
  <course>7.89</course>
  <speed>0.01</speed>
  <fix>3d</fix>
</trkpt>
<trkpt lat="-27.2744386" lon="151.2900636">
  <ele>364.77</ele>
  <time>2026-09-01T20:02:54Z</time>
  <course>10.85</course>
  <speed>0.01</speed>
  <fix>3d</fix>
</trkpt>
<trkpt lat="-27.2744384" lon="151.2900635">
  <ele>365.13</ele>
  <time>2026-09-01T20:02:54Z</time>
  <course>8.11</course>
  <speed>0.01</speed>
  <fix>3d</fix>
</trkpt>
<trkpt lat="-27.2744386" lon="151.2900636">
  <ele>364.66</ele>
  <time>2026-09-01T20:02:54Z</time>
  <course>10.86</course>
  <speed>0.01</speed>
  <fix>3d</fix>
</trkpt>
<trkpt lat="-27.2744384" lon="151.2900635">
  <ele>365.13</ele>
  <time>2026-09-01T20:02:54Z</time>
  <course>8.11</course>
  <speed>0.01</speed>
  <fix>3d</fix>
</trkpt>
<trkpt lat="-27.2744386" lon="151.2900636">
  <ele>364.54</ele>
  <time>2026-09-01T20:02:54Z</time>
  <course>10.87</course>
  <speed>0.01</speed>
  <fix>3d</fix>
</trkpt>
<trkpt lat="-27.2744384" lon="151.2900635">
  <ele>364.9</ele>
  <time>2026-09-01T20:02:54Z</time>
  <course>7.71</course>
  <speed>0.0</speed>
  <fix>3d</fix>
</trkpt>
<trkpt lat="-27.2744386" lon="151.2900636">
  <ele>364.43</ele>
  <time>2026-09-01T20:02:54Z</time>
  <course>10.88</course>
  <speed>0.01</speed>
  <fix>3d</fix>
</trkpt>
<trkpt lat="-27.2744384" lon="151.2900635">
  <ele>364.9</ele>
  <time>2026-09-01T20:02:54Z</time>
  <course>7.71</course>
  <speed>0.0</speed>
  <fix>3d</fix>
</trkpt>
<trkpt lat="-27.2744386" lon="151.2900636">
  <ele>364.32</ele>
  <time>2026-09-01T20:02:54Z</time>
  <course>10.9</course>
  <speed>0.01</speed>
  <fix>3d</fix>
</trkpt>
<trkpt lat="-27.2744384" lon="151.2900635">
  <ele>364.67</ele>
  <time>2026-09-01T20:02:54Z</time>
  <course>1.09</course>
  <speed>0.0</speed>
  <fix>3d</fix>
</trkpt>
<trkpt lat="-27.2744386" lon="151.2900636">
  <ele>364.2</ele>
  <time>2026-09-01T20:02:54Z</time>
  <course>10.93</course>
  <speed>0.01</speed>
  <fix>3d</fix>
</trkpt>
<trkpt lat="-27.2744384" lon="151.2900635">
  <ele>364.67</ele>
  <time>2026-09-01T20:02:54Z</time>
  <course>1.09</course>
  <speed>0.0</speed>
  <fix>3d</fix>
</trkpt>
<trkpt lat="-27.2744386" lon="151.2900636">
  <ele>364.09</ele>
  <time>2026-09-01T20:02:54Z</time>
  <course>10.95</course>
  <speed>0.01</speed>
  <fix>3d</fix>
</trkpt>
<trkpt lat="-27.2744384" lon="151.2900635">
  <ele>364.45</ele>
  <time>2026-09-01T20:02:54Z</time>
  <course>330.39</course>
  <speed>0.0</speed>
  <fix>3d</fix>
</trkpt>
<trkpt lat="-27.2744386" lon="151.2900636">
  <ele>363.98</ele>
  <time>2026-09-01T20:02:54Z</time>
  <course>10.97</course>
  <speed>0.01</speed>
  <fix>3d</fix>
</trkpt>
<trkpt lat="-27.2744384" lon="151.2900635">
  <ele>364.45</ele>
  <time>2026-09-01T20:02:54Z</time>
  <course>330.39</course>
  <speed>0.0</speed>
  <fix>3d</fix>
</trkpt>
<trkpt lat="-27.2744386" lon="151.2900636">
  <ele>363.86</ele>
  <time>2026-09-01T20:02:54Z</time>
  <course>10.99</course>
  <speed>0.01</speed>
  <fix>3d</fix>
</trkpt>
<trkpt lat="-27.2744384" lon="151.2900635">
  <ele>364.22</ele>
  <time>2026-09-01T20:02:54Z</time>
  <course>254.38</course>
  <speed>0.0</speed>
  <fix>3d</fix>
</trkpt>
<trkpt lat="-27.2744386" lon="151.2900636">
  <ele>363.75</ele>
  <time>2026-09-01T20:02:54Z</time>
  <course>10.99</course>
  <speed>0.02</speed>
  <fix>3d</fix>
</trkpt>
<trkpt lat="-27.2744384" lon="151.2900635">
  <ele>364.22</ele>
  <time>2026-09-01T20:02:54Z</time>
  <course>254.38</course>
  <speed>0.0</speed>
  <fix>3d</fix>
</trkpt>
<trkpt lat="-27.2744386" lon="151.2900636">
  <ele>363.64</ele>
  <time>2026-09-01T20:02:54Z</time>
  <course>10.99</course>
  <speed>0.02</speed>
  <fix>3d</fix>
</trkpt>
<trkpt lat="-27.2744384" lon="151.2900635">
  <ele>363.99</ele>
  <time>2026-09-01T20:02:54Z</time>
  <course>221.71</course>
  <speed>0.0</speed>
  <fix>3d</fix>
</trkpt>
<trkpt lat="-27.2744386" lon="151.2900636">
  <ele>363.52</ele>
  <time>2026-09-01T20:02:54Z</time>
  <course>10.97</course>
  <speed>0.02</speed>
  <fix>3d</fix>
</trkpt>
<trkpt lat="-27.2744384" lon="151.2900635">
  <ele>363.99</ele>
  <time>2026-09-01T20:02:54Z</time>
  <course>221.71</course>
  <speed>0.0</speed>
  <fix>3d</fix>
</trkpt>
<trkpt lat="-27.2744386" lon="151.2900636">
  <ele>363.4</ele>
  <time>2026-09-01T20:02:54Z</time>
  <course>10.95</course>
  <speed>0.02</speed>
  <fix>3d</fix>
</trkpt>
<trkpt lat="-27.2744384" lon="151.2900635">
  <ele>363.76</ele>
  <time>2026-09-01T20:02:54Z</time>
  <course>206.14</course>
  <speed>0.0</speed>
  <fix>3d</fix>
</trkpt>
<trkpt lat="-27.2744386" lon="151.2900636">
  <ele>363.29</ele>
  <time>2026-09-01T20:02:54Z</time>
  <course>10.93</course>
  <speed>0.02</speed>
  <fix>3d</fix>
</trkpt>
<trkpt lat="-27.2744384" lon="151.2900635">
  <ele>363.76</ele>
  <time>2026-09-01T20:02:54Z</time>
  <course>206.14</course>
  <speed>0.0</speed>
  <fix>3d</fix>
</trkpt>
<trkpt lat="-27.2744386" lon="151.2900636">
  <ele>363.17</ele>
  <time>2026-09-01T20:02:54Z</time>
  <course>10.92</course>
  <speed>0.02</speed>
  <fix>3d</fix>
</trkpt>
<trkpt lat="-27.2744384" lon="151.2900635">
  <ele>363.53</ele>
  <time>2026-09-01T20:02:54Z</time>
  <course>202.02</course>
  <speed>0.0</speed>
  <fix>3d</fix>
</trkpt>
<trkpt lat="-27.2744386" lon="151.2900636">
  <ele>363.06</ele>
  <time>2026-09-01T20:02:54Z</time>
  <course>10.92</course>
  <speed>0.02</speed>
  <fix>3d</fix>
</trkpt>
<trkpt lat="-27.2744384" lon="151.2900635">
  <ele>363.53</ele>
  <time>2026-09-01T20:02:54Z</time>
  <course>202.02</course>
  <speed>0.0</speed>
  <fix>3d</fix>
</trkpt>
<trkpt lat="-27.2744386" lon="151.2900636">
  <ele>362.94</ele>
  <time>2026-09-01T20:02:54Z</time>
  <course>10.93</course>
  <speed>0.02</speed>
  <fix>3d</fix>
</trkpt>
<trkpt lat="-27.2744384" lon="151.2900635">
  <ele>363.3</ele>
  <time>2026-09-01T20:02:54Z</time>
  <course>203.64</course>
  <speed>0.0</speed>
  <fix>3d</fix>
</trkpt>
<trkpt lat="-27.2744386" lon="151.2900636">
  <ele>362.82</ele>
  <time>2026-09-01T20:02:54Z</time>
  <course>10.95</course>
  <speed>0.02</speed>
  <fix>3d</fix>
</trkpt>
<trkpt lat="-27.2744384" lon="151.2900635">
  <ele>363.3</ele>
  <time>2026-09-01T20:02:54Z</time>
  <course>203.64</course>
  <speed>0.0</speed>
  <fix>3d</fix>
</trkpt>
<trkpt lat="-27.2744386" lon="151.2900636">
  <ele>362.71</ele>
  <time>2026-09-01T20:02:54Z</time>
  <course>10.97</course>
  <speed>0.02</speed>
  <fix>3d</fix>
</trkpt>
<trkpt lat="-27.2744384" lon="151.2900635">
  <ele>363.07</ele>
  <time>2026-09-01T20:02:54Z</time>
  <course>211.81</course>
  <speed>0.0</speed>
  <fix>3d</fix>
</trkpt>
<trkpt lat="-27.2744386" lon="151.2900636">
  <ele>362.59</ele>
  <time>2026-09-01T20:02:54Z</time>
  <course>11.0</course>
  <speed>0.02</speed>
  <fix>3d</fix>
</trkpt>
<trkpt lat="-27.2744384" lon="151.2900635">
  <ele>363.07</ele>
  <time>2026-09-01T20:02:54Z</time>
  <course>211.81</course>
  <speed>0.0</speed>
  <fix>3d</fix>
</trkpt>
<trkpt lat="-27.2744386" lon="151.2900636">
  <ele>362.47</ele>
  <time>2026-09-01T20:02:54Z</time>
  <course>11.02</course>
  <speed>0.02</speed>
  <fix>3d</fix>
</trkpt>
<trkpt lat="-27.2744384" lon="151.2900635">
  <ele>362.84</ele>
  <time>2026-09-01T20:02:54Z</time>
  <course>217.56</course>
  <speed>0.0</speed>
  <fix>3d</fix>
</trkpt>
<trkpt lat="-27.2744386" lon="151.2900636">
  <ele>362.35</ele>
  <time>2026-09-01T20:02:54Z</time>
  <course>11.04</course>
  <speed>0.02</speed>
  <fix>3d</fix>
</trkpt>
<trkpt lat="-27.2744384" lon="151.2900635">
  <ele>362.84</ele>
  <time>2026-09-01T20:02:54Z</time>
  <course>217.56</course>
  <speed>0.0</speed>
  <fix>3d</fix>
</trkpt>
<trkpt lat="-27.2744386" lon="151.2900636">
  <ele>362.24</ele>
  <time>2026-09-01T20:02:54Z</time>
  <course>11.04</course>
  <speed>0.02</speed>
  <fix>3d</fix>
</trkpt>
<trkpt lat="-27.2744384" lon="151.2900635">
  <ele>362.61</ele>
  <time>2026-09-01T20:02:54Z</time>
  <course>216.74</course>
  <speed>0.0</speed>
  <fix>3d</fix>
</trkpt>
<trkpt lat="-27.2744386" lon="151.2900636">
  <ele>362.13</ele>
  <time>2026-09-01T20:02:54Z</time>
  <course>11.03</course>
  <speed>0.02</speed>
  <fix>3d</fix>
</trkpt>
<trkpt lat="-27.2744384" lon="151.2900635">
  <ele>362.61</ele>
  <time>2026-09-01T20:02:54Z</time>
  <course>216.74</course>
  <speed>0.0</speed>
  <fix>3d</fix>
</trkpt>
<trkpt lat="-27.2744386" lon="151.2900636">
  <ele>362.01</ele>
  <time>2026-09-01T20:02:54Z</time>
  <course>11.01</course>
  <speed>0.02</speed>
  <fix>3d</fix>
</trkpt>
<trkpt lat="-27.2744384" lon="151.2900635">
  <ele>362.39</ele>
  <time>2026-09-01T20:02:54Z</time>
  <course>211.52</course>
  <speed>0.0</speed>
  <fix>3d</fix>
</trkpt>
<trkpt lat="-27.2744386" lon="151.2900636">
  <ele>361.9</ele>
  <time>2026-09-01T20:02:54Z</time>
  <course>10.98</course>
  <speed>0.02</speed>
  <fix>3d</fix>
</trkpt>
<trkpt lat="-27.2744384" lon="151.2900635">
  <ele>362.39</ele>
  <time>2026-09-01T20:02:54Z</time>
  <course>211.52</course>
  <speed>0.0</speed>
  <fix>3d</fix>
</trkpt>
<trkpt lat="-27.2744386" lon="151.2900636">
  <ele>361.79</ele>
  <time>2026-09-01T20:02:54Z</time>
  <course>10.96</course>
  <speed>0.02</speed>
  <fix>3d</fix>
</trkpt>
<trkpt lat="-27.2744384" lon="151.2900635">
  <ele>362.16</ele>
  <time>2026-09-01T20:02:54Z</time>
  <course>206.76</course>
  <speed>0.0</speed>
  <fix>3d</fix>
</trkpt>
<trkpt lat="-27.2744386" lon="151.2900636">
  <ele>361.68</ele>
  <time>2026-09-01T20:02:54Z</time>
  <course>10.94</course>
  <speed>0.02</speed>
  <fix>3d</fix>
</trkpt>
<trkpt lat="-27.2744384" lon="151.2900635">
  <ele>362.16</ele>
  <time>2026-09-01T20:02:54Z</time>
  <course>206.76</course>
  <speed>0.0</speed>
  <fix>3d</fix>
</trkpt>
<trkpt lat="-27.2744386" lon="151.2900636">
  <ele>361.56</ele>
  <time>2026-09-01T20:02:54Z</time>
  <course>10.94</course>
  <speed>0.02</speed>
  <fix>3d</fix>
</trkpt>
<trkpt lat="-27.2744384" lon="151.2900635">
  <ele>361.93</ele>
  <time>2026-09-01T20:02:54Z</time>
  <course>206.36</course>
  <speed>0.0</speed>
  <fix>3d</fix>
</trkpt>
<trkpt lat="-27.2744386" lon="151.2900636">
  <ele>361.45</ele>
  <time>2026-09-01T20:02:54Z</time>
  <course>10.95</course>
  <speed>0.02</speed>
  <fix>3d</fix>
</trkpt>
<trkpt lat="-27.2744384" lon="151.2900635">
  <ele>361.93</ele>
  <time>2026-09-01T20:02:54Z</time>
  <course>206.36</course>
  <speed>0.0</speed>
  <fix>3d</fix>
</trkpt>
<trkpt lat="-27.2744386" lon="151.2900636">
  <ele>361.33</ele>
  <time>2026-09-01T20:02:54Z</time>
  <course>10.97</course>
  <speed>0.02</speed>
  <fix>3d</fix>
</trkpt>
<trkpt lat="-27.2744384" lon="151.2900635">
  <ele>361.7</ele>
  <time>2026-09-01T20:02:54Z</time>
  <course>207.61</course>
  <speed>0.0</speed>
  <fix>3d</fix>
</trkpt>
<trkpt lat="-27.2744386" lon="151.2900636">
  <ele>361.22</ele>
  <time>2026-09-01T20:02:54Z</time>
  <course>10.99</course>
  <speed>0.02</speed>
  <fix>3d</fix>
</trkpt>
<trkpt lat="-27.2744384" lon="151.2900635">
  <ele>361.7</ele>
  <time>2026-09-01T20:02:54Z</time>
  <course>207.61</course>
  <speed>0.0</speed>
  <fix>3d</fix>
</trkpt>
<trkpt lat="-27.2744386" lon="151.2900636">
  <ele>361.11</ele>
  <time>2026-09-01T20:02:54Z</time>
  <course>11.01</course>
  <speed>0.02</speed>
  <fix>3d</fix>
</trkpt>
<trkpt lat="-27.2744384" lon="151.2900635">
  <ele>361.47</ele>
  <time>2026-09-01T20:02:54Z</time>
  <course>207.98</course>
  <speed>0.0</speed>
  <fix>3d</fix>
</trkpt>
<trkpt lat="-27.2744386" lon="151.2900636">
  <ele>360.99</ele>
  <time>2026-09-01T20:02:54Z</time>
  <course>11.02</course>
  <speed>0.02</speed>
  <fix>3d</fix>
</trkpt>
<trkpt lat="-27.2744384" lon="151.2900635">
  <ele>361.47</ele>
  <time>2026-09-01T20:02:54Z</time>
  <course>207.98</course>
  <speed>0.0</speed>
  <fix>3d</fix>
</trkpt>
<trkpt lat="-27.2744386" lon="151.2900636">
  <ele>360.87</ele>
  <time>2026-09-01T20:02:54Z</time>
  <course>11.02</course>
  <speed>0.022360679774997897</speed>
  <fix>3d</fix>
</trkpt>
<trkpt lat="-27.2744384" lon="151.2900635">
  <ele>361.25</ele>
  <time>2026-09-01T20:02:54Z</time>
  <course>207.46</course>
  <speed>0.0</speed>
  <fix>3d</fix>
</trkpt>
<trkpt lat="-27.2744386" lon="151.2900636">
  <ele>360.76</ele>
  <time>2026-09-01T20:02:54Z</time>
  <course>11.01</course>
  <speed>0.022360679774997897</speed>
  <fix>3d</fix>
</trkpt>
<trkpt lat="-27.2744384" lon="151.2900635">
  <ele>361.25</ele>
  <time>2026-09-01T20:02:54Z</time>
  <course>207.46</course>
  <speed>0.0</speed>
  <fix>3d</fix>
</trkpt>
<trkpt lat="-27.2744386" lon="151.2900636">
  <ele>360.65</ele>
  <time>2026-09-01T20:02:54Z</time>
  <course>11.0</course>
  <speed>0.022360679774997897</speed>
  <fix>3d</fix>
</trkpt>
<trkpt lat="-27.2744384" lon="151.2900634">
  <ele>361.02</ele>
  <time>2026-09-01T20:02:54Z</time>
  <course>205.65</course>
  <speed>0.0</speed>
  <fix>3d</fix>
</trkpt>
<trkpt lat="-27.2744386" lon="151.2900636">
  <ele>360.53</ele>
  <time>2026-09-01T20:02:54Z</time>
  <course>10.99</course>
  <speed>0.02</speed>
  <fix>3d</fix>
</trkpt>
<trkpt lat="-27.2744384" lon="151.2900634">
  <ele>361.02</ele>
  <time>2026-09-01T20:02:54Z</time>
  <course>205.65</course>
  <speed>0.0</speed>
  <fix>3d</fix>
</trkpt>
<trkpt lat="-27.2744386" lon="151.2900636">
  <ele>360.42</ele>
  <time>2026-09-01T20:02:54Z</time>
  <course>10.99</course>
  <speed>0.02</speed>
  <fix>3d</fix>
</trkpt>
<trkpt lat="-27.2744384" lon="151.2900633">
  <ele>360.79</ele>
  <time>2026-09-01T20:02:54Z</time>
  <course>204.77</course>
  <speed>0.0</speed>
  <fix>3d</fix>
</trkpt>
<trkpt lat="-27.2744386" lon="151.2900636">
  <ele>360.31</ele>
  <time>2026-09-01T20:02:54Z</time>
  <course>10.99</course>
  <speed>0.02</speed>
  <fix>3d</fix>
</trkpt>
<trkpt lat="-27.2744384" lon="151.2900633">
  <ele>360.79</ele>
  <time>2026-09-01T20:02:54Z</time>
  <course>204.77</course>
  <speed>0.0</speed>
  <fix>3d</fix>
</trkpt>
<trkpt lat="-27.2744386" lon="151.2900636">
  <ele>360.19</ele>
  <time>2026-09-01T20:02:54Z</time>
  <course>10.99</course>
  <speed>0.02</speed>
  <fix>3d</fix>
</trkpt>
<trkpt lat="-27.2744384" lon="151.2900633">
  <ele>360.56</ele>
  <time>2026-09-01T20:02:54Z</time>
  <course>207.55</course>
  <speed>0.0</speed>
  <fix>3d</fix>
</trkpt>
<trkpt lat="-27.2744386" lon="151.2900636">
  <ele>360.08</ele>
  <time>2026-09-01T20:02:54Z</time>
  <course>10.99</course>
  <speed>0.02</speed>
  <fix>3d</fix>
</trkpt>
<trkpt lat="-27.2744384" lon="151.2900633">
  <ele>360.56</ele>
  <time>2026-09-01T20:02:54Z</time>
  <course>207.55</course>
  <speed>0.0</speed>
  <fix>3d</fix>
</trkpt>
<trkpt lat="-27.2744386" lon="151.2900635">
  <ele>359.97</ele>
  <time>2026-09-01T20:02:54Z</time>
  <course>10.98</course>
  <speed>0.02</speed>
  <fix>3d</fix>
</trkpt>
<trkpt lat="-27.2744384" lon="151.2900633">
  <ele>360.33</ele>
  <time>2026-09-01T20:02:54Z</time>
  <course>208.04</course>
  <speed>0.0</speed>
  <fix>3d</fix>
</trkpt>
<trkpt lat="-27.2744386" lon="151.2900635">
  <ele>359.85</ele>
  <time>2026-09-01T20:02:54Z</time>
  <course>10.97</course>
  <speed>0.02</speed>
  <fix>3d</fix>
</trkpt>
<trkpt lat="-27.2744384" lon="151.2900633">
  <ele>360.33</ele>
  <time>2026-09-01T20:02:54Z</time>
  <course>208.04</course>
  <speed>0.0</speed>
  <fix>3d</fix>
</trkpt>
<trkpt lat="-27.2744386" lon="151.2900635">
  <ele>359.74</ele>
  <time>2026-09-01T20:02:54Z</time>
  <course>10.97</course>
  <speed>0.02</speed>
  <fix>3d</fix>
</trkpt>
<trkpt lat="-27.2744385" lon="151.2900633">
  <ele>360.1</ele>
  <time>2026-09-01T20:02:54Z</time>
  <course>207.98</course>
  <speed>0.0</speed>
  <fix>3d</fix>
</trkpt>
<trkpt lat="-27.2744386" lon="151.2900635">
  <ele>359.62</ele>
  <time>2026-09-01T20:02:54Z</time>
  <course>10.99</course>
  <speed>0.02</speed>
  <fix>3d</fix>
</trkpt>
<trkpt lat="-27.2744385" lon="151.2900633">
  <ele>360.1</ele>
  <time>2026-09-01T20:02:54Z</time>
  <course>207.98</course>
  <speed>0.0</speed>
  <fix>3d</fix>
</trkpt>
<trkpt lat="-27.2744386" lon="151.2900635">
  <ele>359.51</ele>
  <time>2026-09-01T20:02:54Z</time>
  <course>11.02</course>
  <speed>0.01</speed>
  <fix>3d</fix>
</trkpt>
<trkpt lat="-27.2744385" lon="151.2900633">
  <ele>359.87</ele>
  <time>2026-09-01T20:02:54Z</time>
  <course>213.31</course>
  <speed>0.0</speed>
  <fix>3d</fix>
</trkpt>
<trkpt lat="-27.2744386" lon="151.2900635">
  <ele>359.39</ele>
  <time>2026-09-01T20:02:54Z</time>
  <course>11.05</course>
  <speed>0.01</speed>
  <fix>3d</fix>
</trkpt>
<trkpt lat="-27.2744385" lon="151.2900633">
  <ele>359.87</ele>
  <time>2026-09-01T20:02:54Z</time>
  <course>213.31</course>
  <speed>0.0</speed>
  <fix>3d</fix>
</trkpt>
<trkpt lat="-27.2744386" lon="151.2900635">
  <ele>359.27</ele>
  <time>2026-09-01T20:02:54Z</time>
  <course>11.07</course>
  <speed>0.01</speed>
  <fix>3d</fix>
</trkpt>
<trkpt lat="-27.2744385" lon="151.2900633">
  <ele>359.64</ele>
  <time>2026-09-01T20:02:54Z</time>
  <course>222.03</course>
  <speed>0.0</speed>
  <fix>3d</fix>
</trkpt>
<trkpt lat="-27.2744386" lon="151.2900635">
  <ele>359.15</ele>
  <time>2026-09-01T20:02:54Z</time>
  <course>11.09</course>
  <speed>0.01</speed>
  <fix>3d</fix>
</trkpt>
<trkpt lat="-27.2744385" lon="151.2900633">
  <ele>359.64</ele>
  <time>2026-09-01T20:02:54Z</time>
  <course>222.03</course>
  <speed>0.0</speed>
  <fix>3d</fix>
</trkpt>
<trkpt lat="-27.2744386" lon="151.2900635">
  <ele>359.04</ele>
  <time>2026-09-01T20:02:54Z</time>
  <course>11.1</course>
  <speed>0.01414213562373095</speed>
  <fix>3d</fix>
</trkpt>
<trkpt lat="-27.2744385" lon="151.2900633">
  <ele>359.41</ele>
  <time>2026-09-01T20:02:54Z</time>
  <course>228.46</course>
  <speed>0.0</speed>
  <fix>3d</fix>
</trkpt>
<trkpt lat="-27.2744386" lon="151.2900635">
  <ele>358.92</ele>
  <time>2026-09-01T20:02:54Z</time>
  <course>11.1</course>
  <speed>0.01414213562373095</speed>
  <fix>3d</fix>
</trkpt>
<trkpt lat="-27.2744385" lon="151.2900633">
  <ele>359.41</ele>
  <time>2026-09-01T20:02:54Z</time>
  <course>228.46</course>
  <speed>0.0</speed>
  <fix>3d</fix>
</trkpt>
<trkpt lat="-27.2744386" lon="151.2900635">
  <ele>358.81</ele>
  <time>2026-09-01T20:02:54Z</time>
  <course>11.09</course>
  <speed>0.01414213562373095</speed>
  <fix>3d</fix>
</trkpt>
<trkpt lat="-27.2744385" lon="151.2900633">
  <ele>359.17</ele>
  <time>2026-09-01T20:02:54Z</time>
  <course>229.39</course>
  <speed>0.0</speed>
  <fix>3d</fix>
</trkpt>
<trkpt lat="-27.2744386" lon="151.2900635">
  <ele>358.69</ele>
  <time>2026-09-01T20:02:54Z</time>
  <course>11.07</course>
  <speed>0.01</speed>
  <fix>3d</fix>
</trkpt>
<trkpt lat="-27.2744385" lon="151.2900633">
  <ele>359.17</ele>
  <time>2026-09-01T20:02:54Z</time>
  <course>229.39</course>
  <speed>0.0</speed>
  <fix>3d</fix>
</trkpt>
<trkpt lat="-27.2744386" lon="151.2900635">
  <ele>358.57</ele>
  <time>2026-09-01T20:02:54Z</time>
  <course>11.07</course>
  <speed>0.01</speed>
  <fix>3d</fix>
</trkpt>
<trkpt lat="-27.2744385" lon="151.2900633">
  <ele>358.94</ele>
  <time>2026-09-01T20:02:54Z</time>
  <course>230.9</course>
  <speed>0.0</speed>
  <fix>3d</fix>
</trkpt>
<trkpt lat="-27.2744386" lon="151.2900635">
  <ele>358.46</ele>
  <time>2026-09-01T20:02:54Z</time>
  <course>11.07</course>
  <speed>0.01</speed>
  <fix>3d</fix>
</trkpt>
<trkpt lat="-27.2744385" lon="151.2900633">
  <ele>358.94</ele>
  <time>2026-09-01T20:02:54Z</time>
  <course>230.9</course>
  <speed>0.0</speed>
  <fix>3d</fix>
</trkpt>
<trkpt lat="-27.2744386" lon="151.2900634">
  <ele>358.34</ele>
  <time>2026-09-01T20:02:55Z</time>
  <course>11.07</course>
  <speed>0.01</speed>
  <fix>3d</fix>
</trkpt>
<trkpt lat="-27.2744385" lon="151.2900633">
  <ele>358.71</ele>
  <time>2026-09-01T20:02:55Z</time>
  <course>237.51</course>
  <speed>0.0</speed>
  <fix>3d</fix>
</trkpt>
<trkpt lat="-27.2744386" lon="151.2900634">
  <ele>358.22</ele>
  <time>2026-09-01T20:02:55Z</time>
  <course>11.1</course>
  <speed>0.01</speed>
  <fix>3d</fix>
</trkpt>
<trkpt lat="-27.2744385" lon="151.2900633">
  <ele>358.71</ele>
  <time>2026-09-01T20:02:55Z</time>
  <course>237.51</course>
  <speed>0.0</speed>
  <fix>3d</fix>
</trkpt>
<trkpt lat="-27.2744386" lon="151.2900634">
  <ele>358.11</ele>
  <time>2026-09-01T20:02:55Z</time>
  <course>11.12</course>
  <speed>0.01</speed>
  <fix>3d</fix>
</trkpt>
<trkpt lat="-27.2744385" lon="151.2900633">
  <ele>358.48</ele>
  <time>2026-09-01T20:02:55Z</time>
  <course>245.64</course>
  <speed>0.0</speed>
  <fix>3d</fix>
</trkpt>
<trkpt lat="-27.2744386" lon="151.2900634">
  <ele>358.0</ele>
  <time>2026-09-01T20:02:55Z</time>
  <course>11.14</course>
  <speed>0.01</speed>
  <fix>3d</fix>
</trkpt>
<trkpt lat="-27.2744385" lon="151.2900633">
  <ele>358.48</ele>
  <time>2026-09-01T20:02:55Z</time>
  <course>245.64</course>
  <speed>0.0</speed>
  <fix>3d</fix>
</trkpt>
<trkpt lat="-27.2744386" lon="151.2900634">
  <ele>357.88</ele>
  <time>2026-09-01T20:02:55Z</time>
  <course>11.15</course>
  <speed>0.01</speed>
  <fix>3d</fix>
</trkpt>
<trkpt lat="-27.2744385" lon="151.2900632">
  <ele>358.25</ele>
  <time>2026-09-01T20:02:55Z</time>
  <course>248.49</course>
  <speed>0.0</speed>
  <fix>3d</fix>
</trkpt>
<trkpt lat="-27.2744386" lon="151.2900634">
  <ele>357.76</ele>
  <time>2026-09-01T20:02:55Z</time>
  <course>11.14</course>
  <speed>0.01414213562373095</speed>
  <fix>3d</fix>
</trkpt>
<trkpt lat="-27.2744385" lon="151.2900632">
  <ele>358.25</ele>
  <time>2026-09-01T20:02:55Z</time>
  <course>248.49</course>
  <speed>0.0</speed>
  <fix>3d</fix>
</trkpt>
<trkpt lat="-27.2744386" lon="151.2900634">
  <ele>357.65</ele>
  <time>2026-09-01T20:02:55Z</time>
  <course>11.13</course>
  <speed>0.01414213562373095</speed>
  <fix>3d</fix>
</trkpt>
<trkpt lat="-27.2744385" lon="151.2900632">
  <ele>358.03</ele>
  <time>2026-09-01T20:02:55Z</time>
  <course>247.76</course>
  <speed>0.0</speed>
  <fix>3d</fix>
</trkpt>
<trkpt lat="-27.2744386" lon="151.2900634">
  <ele>357.53</ele>
  <time>2026-09-01T20:02:55Z</time>
  <course>11.13</course>
  <speed>0.01</speed>
  <fix>3d</fix>
</trkpt>
<trkpt lat="-27.2744385" lon="151.2900632">
  <ele>358.03</ele>
  <time>2026-09-01T20:02:55Z</time>
  <course>247.76</course>
  <speed>0.0</speed>
  <fix>3d</fix>
</trkpt>
<trkpt lat="-27.2744386" lon="151.2900634">
  <ele>357.42</ele>
  <time>2026-09-01T20:02:55Z</time>
  <course>11.12</course>
  <speed>0.01</speed>
  <fix>3d</fix>
</trkpt>
<trkpt lat="-27.2744385" lon="151.2900632">
  <ele>357.8</ele>
  <time>2026-09-01T20:02:55Z</time>
  <course>248.96</course>
  <speed>0.0</speed>
  <fix>3d</fix>
</trkpt>
<trkpt lat="-27.2744386" lon="151.2900634">
  <ele>357.3</ele>
  <time>2026-09-01T20:02:55Z</time>
  <course>11.13</course>
  <speed>0.01</speed>
  <fix>3d</fix>
</trkpt>
<trkpt lat="-27.2744385" lon="151.2900632">
  <ele>357.8</ele>
  <time>2026-09-01T20:02:55Z</time>
  <course>248.96</course>
  <speed>0.0</speed>
  <fix>3d</fix>
</trkpt>
<trkpt lat="-27.2744386" lon="151.2900634">
  <ele>357.3</ele>
  <time>2026-09-01T20:02:55Z</time>
  <course>11.13</course>
  <speed>0.01414213562373095</speed>
  <fix>3d</fix>
</trkpt>
<trkpt lat="-27.2744386" lon="151.2900634">
  <ele>357.19</ele>
  <time>2026-09-01T20:02:55Z</time>
  <course>11.02</course>
  <speed>0.01</speed>
  <fix>3d</fix>
</trkpt>
<trkpt lat="-27.2744385" lon="151.2900632">
  <ele>357.57</ele>
  <time>2026-09-01T20:02:55Z</time>
  <course>257.13</course>
  <speed>0.0</speed>
  <fix>3d</fix>
</trkpt>
<trkpt lat="-27.2744386" lon="151.2900634">
  <ele>357.04</ele>
  <time>2026-09-01T20:02:55Z</time>
  <course>10.7</course>
  <speed>0.07615773105863909</speed>
  <fix>3d</fix>
</trkpt>
<trkpt lat="-27.2744385" lon="151.2900632">
  <ele>357.57</ele>
  <time>2026-09-01T20:02:55Z</time>
  <course>257.13</course>
  <speed>0.0</speed>
  <fix>3d</fix>
</trkpt>
<trkpt lat="-27.2744385" lon="151.2900634">
  <ele>357.32</ele>
  <time>2026-09-01T20:02:55Z</time>
  <course>10.37</course>
  <speed>0.11704699910719625</speed>
  <fix>3d</fix>
</trkpt>
<trkpt lat="-27.2744385" lon="151.2900632">
  <ele>357.33</ele>
  <time>2026-09-01T20:02:55Z</time>
  <course>3.57</course>
  <speed>0.04</speed>
  <fix>3d</fix>
</trkpt>
<trkpt lat="-27.2744384" lon="151.2900634">
  <ele>357.35</ele>
  <time>2026-09-01T20:02:55Z</time>
  <course>9.97</course>
  <speed>0.1392838827718412</speed>
  <fix>3d</fix>
</trkpt>
<trkpt lat="-27.2744385" lon="151.2900632">
  <ele>357.33</ele>
  <time>2026-09-01T20:02:55Z</time>
  <course>3.57</course>
  <speed>0.04</speed>
  <fix>3d</fix>
</trkpt>
<trkpt lat="-27.2744383" lon="151.2900634">
  <ele>357.23</ele>
  <time>2026-09-01T20:02:55Z</time>
  <course>9.49</course>
  <speed>0.1708800749063506</speed>
  <fix>3d</fix>
</trkpt>
<trkpt lat="-27.2744384" lon="151.2900632">
  <ele>356.92</ele>
  <time>2026-09-01T20:02:55Z</time>
  <course>10.09</course>
  <speed>0.12</speed>
  <fix>3d</fix>
</trkpt>
<trkpt lat="-27.2744381" lon="151.2900634">
  <ele>357.01</ele>
  <time>2026-09-01T20:02:55Z</time>
  <course>8.96</course>
  <speed>0.19924858845171275</speed>
  <fix>3d</fix>
</trkpt>
<trkpt lat="-27.2744384" lon="151.2900632">
  <ele>356.92</ele>
  <time>2026-09-01T20:02:55Z</time>
  <course>10.09</course>
  <speed>0.12</speed>
  <fix>3d</fix>
</trkpt>
<trkpt lat="-27.2744379" lon="151.2900635">
  <ele>356.66</ele>
  <time>2026-09-01T20:02:55Z</time>
  <course>8.42</course>
  <speed>0.25</speed>
  <fix>3d</fix>
</trkpt>
<trkpt lat="-27.2744382" lon="151.2900632">
  <ele>356.25</ele>
  <time>2026-09-01T20:02:55Z</time>
  <course>11.37</course>
  <speed>0.18</speed>
  <fix>3d</fix>
</trkpt>
<trkpt lat="-27.2744376" lon="151.2900635">
  <ele>356.26</ele>
  <time>2026-09-01T20:02:55Z</time>
  <course>7.89</course>
  <speed>0.327566787083184</speed>
  <fix>3d</fix>
</trkpt>
<trkpt lat="-27.2744382" lon="151.2900632">
  <ele>356.25</ele>
  <time>2026-09-01T20:02:55Z</time>
  <course>11.37</course>
  <speed>0.18</speed>
  <fix>3d</fix>
</trkpt>
<trkpt lat="-27.2744373" lon="151.2900636">
  <ele>355.77</ele>
  <time>2026-09-01T20:02:55Z</time>
  <course>7.4</course>
  <speed>0.4373785545725808</speed>
  <fix>3d</fix>
</trkpt>
<trkpt lat="-27.2744378" lon="151.2900633">
  <ele>355.36</ele>
  <time>2026-09-01T20:02:55Z</time>
  <course>9.1</course>
  <speed>0.27</speed>
  <fix>3d</fix>
</trkpt>
<trkpt lat="-27.2744368" lon="151.2900637">
  <ele>355.24</ele>
  <time>2026-09-01T20:02:55Z</time>
  <course>6.92</course>
  <speed>0.5671860364994893</speed>
  <fix>3d</fix>
</trkpt>
<trkpt lat="-27.2744378" lon="151.2900633">
  <ele>355.36</ele>
  <time>2026-09-01T20:02:55Z</time>
  <course>9.1</course>
  <speed>0.27</speed>
  <fix>3d</fix>
</trkpt>
<trkpt lat="-27.2744363" lon="151.2900637">
  <ele>354.61</ele>
  <time>2026-09-01T20:02:55Z</time>
  <course>6.45</course>
  <speed>0.6873136110975833</speed>
  <fix>3d</fix>
</trkpt>
<trkpt lat="-27.2744371" lon="151.2900634">
  <ele>354.27</ele>
  <time>2026-09-01T20:02:55Z</time>
  <course>6.36</course>
  <speed>0.45</speed>
  <fix>3d</fix>
</trkpt>
<trkpt lat="-27.2744354" lon="151.2900639">
  <ele>353.94</ele>
  <time>2026-09-01T20:02:55Z</time>
  <course>6.0</course>
  <speed>1.4091131963046828</speed>
  <fix>3d</fix>
</trkpt>
<trkpt lat="-27.2744371" lon="151.2900634">
  <ele>354.27</ele>
  <time>2026-09-01T20:02:55Z</time>
  <course>6.36</course>
  <speed>0.45</speed>
  <fix>3d</fix>
</trkpt>
<trkpt lat="-27.2744337" lon="151.290064">
  <ele>353.17</ele>
  <time>2026-09-01T20:02:55Z</time>
  <course>5.6</course>
  <speed>2.101547049199708</speed>
  <fix>3d</fix>
</trkpt>
<trkpt lat="-27.274436" lon="151.2900635">
  <ele>352.96</ele>
  <time>2026-09-01T20:02:55Z</time>
  <course>4.29</course>
  <speed>0.98</speed>
  <fix>3d</fix>
</trkpt>
<trkpt lat="-27.2744317" lon="151.2900642">
  <ele>352.35</ele>
  <time>2026-09-01T20:02:55Z</time>
  <course>5.16</course>
  <speed>2.3313729860320507</speed>
  <fix>3d</fix>
</trkpt>
<trkpt lat="-27.274436" lon="151.2900635">
  <ele>352.96</ele>
  <time>2026-09-01T20:02:55Z</time>
  <course>4.29</course>
  <speed>0.98</speed>
  <fix>3d</fix>
</trkpt>
<trkpt lat="-27.2744296" lon="151.2900644">
  <ele>351.41</ele>
  <time>2026-09-01T20:02:55Z</time>
  <course>4.36</course>
  <speed>2.2408257406590097</speed>
  <fix>3d</fix>
</trkpt>
<trkpt lat="-27.2744335" lon="151.2900637">
  <ele>351.38</ele>
  <time>2026-09-01T20:02:55Z</time>
  <course>3.38</course>
  <speed>1.86</speed>
  <fix>3d</fix>
</trkpt>
<trkpt lat="-27.2744277" lon="151.2900646">
  <ele>350.39</ele>
  <time>2026-09-01T20:02:55Z</time>
  <course>4.0</course>
  <speed>2.1294130646729865</speed>
  <fix>3d</fix>
</trkpt>
<trkpt lat="-27.2744335" lon="151.2900637">
  <ele>351.38</ele>
  <time>2026-09-01T20:02:55Z</time>
  <course>3.38</course>
  <speed>1.86</speed>
  <fix>3d</fix>
</trkpt>
<trkpt lat="-27.2744257" lon="151.2900647">
  <ele>349.26</ele>
  <time>2026-09-01T20:02:55Z</time>
  <course>4.05</course>
  <speed>2.3095670589961226</speed>
  <fix>3d</fix>
</trkpt>
<trkpt lat="-27.2744296" lon="151.290064">
  <ele>349.48</ele>
  <time>2026-09-01T20:02:55Z</time>
  <course>3.14</course>
  <speed>2.24</speed>
  <fix>3d</fix>
</trkpt>
<trkpt lat="-27.2744234" lon="151.2900649">
  <ele>348.08</ele>
  <time>2026-09-01T20:02:55Z</time>
  <course>3.97</course>
  <speed>2.9705386716890256</speed>
  <fix>3d</fix>
</trkpt>
<trkpt lat="-27.2744296" lon="151.290064">
  <ele>349.48</ele>
  <time>2026-09-01T20:02:55Z</time>
  <course>3.14</course>
  <speed>2.24</speed>
  <fix>3d</fix>
</trkpt>
<trkpt lat="-27.2744202" lon="151.2900651">
  <ele>346.79</ele>
  <time>2026-09-01T20:02:55Z</time>
  <course>3.79</course>
  <speed>4.100987685911773</speed>
  <fix>3d</fix>
</trkpt>
<trkpt lat="-27.2744255" lon="151.2900642">
  <ele>347.24</ele>
  <time>2026-09-01T20:02:55Z</time>
  <course>2.94</course>
  <speed>2.54</speed>
  <fix>3d</fix>
</trkpt>
<trkpt lat="-27.2744159" lon="151.2900654">
  <ele>345.5</ele>
  <time>2026-09-01T20:02:55Z</time>
  <course>3.65</course>
  <speed>5.4625451943210495</speed>
  <fix>3d</fix>
</trkpt>
<trkpt lat="-27.2744255" lon="151.2900642">
  <ele>347.24</ele>
  <time>2026-09-01T20:02:55Z</time>
  <course>2.94</course>
  <speed>2.54</speed>
  <fix>3d</fix>
</trkpt>
<trkpt lat="-27.2744126" lon="151.2900655">
  <ele>344.63</ele>
  <time>2026-09-01T20:02:55Z</time>
  <course>3.26</course>
  <speed>1.201499063670047</speed>
  <fix>3d</fix>
</trkpt>
<trkpt lat="-27.2744197" lon="151.2900645">
  <ele>344.69</ele>
  <time>2026-09-01T20:02:55Z</time>
  <course>2.47</course>
  <speed>4.18</speed>
  <fix>3d</fix>
</trkpt>
<trkpt lat="-27.2744129" lon="151.2900653">
  <ele>344.75</ele>
  <time>2026-09-01T20:02:55Z</time>
  <course>3.11</course>
  <speed>1.4757371039585607</speed>
  <fix>3d</fix>
</trkpt>
<trkpt lat="-27.2744197" lon="151.2900645">
  <ele>344.69</ele>
  <time>2026-09-01T20:02:55Z</time>
  <course>2.47</course>
  <speed>4.18</speed>
  <fix>3d</fix>
</trkpt>
<trkpt lat="-27.2744142" lon="151.2900652">
  <ele>345.1</ele>
  <time>2026-09-01T20:02:55Z</time>
  <course>3.02</course>
  <speed>1.6160754932861274</speed>
  <fix>3d</fix>
</trkpt>
<trkpt lat="-27.2744143" lon="151.2900647">
  <ele>342.9</ele>
  <time>2026-09-01T20:02:55Z</time>
  <course>2.31</course>
  <speed>2.04</speed>
  <fix>3d</fix>
</trkpt>
<trkpt lat="-27.2744151" lon="151.290065">
  <ele>345.38</ele>
  <time>2026-09-01T20:02:55Z</time>
  <course>3.02</course>
  <speed>0.754254598925323</speed>
  <fix>3d</fix>
</trkpt>
<trkpt lat="-27.2744143" lon="151.2900647">
  <ele>342.9</ele>
  <time>2026-09-01T20:02:55Z</time>
  <course>2.31</course>
  <speed>2.04</speed>
  <fix>3d</fix>
</trkpt>
<trkpt lat="-27.2744151" lon="151.290065">
  <ele>345.43</ele>
  <time>2026-09-01T20:02:55Z</time>
  <course>3.02</course>
  <speed>0.03</speed>
  <fix>3d</fix>
</trkpt>
<trkpt lat="-27.2744139" lon="151.2900648">
  <ele>342.79</ele>
  <time>2026-09-01T20:02:55Z</time>
  <course>182.26</course>
  <speed>1.03</speed>
  <fix>3d</fix>
</trkpt>
<trkpt lat="-27.2744148" lon="151.2900649">
  <ele>345.4</ele>
  <time>2026-09-01T20:02:55Z</time>
  <course>3.03</course>
  <speed>0.29017236257093815</speed>
  <fix>3d</fix>
</trkpt>
<trkpt lat="-27.2744139" lon="151.2900648">
  <ele>342.79</ele>
  <time>2026-09-01T20:02:55Z</time>
  <course>182.26</course>
  <speed>1.03</speed>
  <fix>3d</fix>
</trkpt>
<trkpt lat="-27.2744145" lon="151.2900649">
  <ele>345.35</ele>
  <time>2026-09-01T20:02:55Z</time>
  <course>3.05</course>
  <speed>0.24020824298928628</speed>
  <fix>3d</fix>
</trkpt>
<trkpt lat="-27.2744152" lon="151.2900647">
  <ele>343.15</ele>
  <time>2026-09-01T20:02:55Z</time>
  <course>182.25</course>
  <speed>0.23</speed>
  <fix>3d</fix>
</trkpt>
<trkpt lat="-27.2744143" lon="151.2900649">
  <ele>345.36</ele>
  <time>2026-09-01T20:02:55Z</time>
  <course>3.08</course>
  <speed>0.11045361017187261</speed>
  <fix>3d</fix>
</trkpt>
<trkpt lat="-27.2744152" lon="151.2900647">
  <ele>343.15</ele>
  <time>2026-09-01T20:02:55Z</time>
  <course>182.25</course>
  <speed>0.23</speed>
  <fix>3d</fix>
</trkpt>
<trkpt lat="-27.2744143" lon="151.2900649">
  <ele>345.37</ele>
  <time>2026-09-01T20:02:55Z</time>
  <course>3.11</course>
  <speed>0.0282842712474619</speed>
  <fix>3d</fix>
</trkpt>
<trkpt lat="-27.2744151" lon="151.2900647">
  <ele>343.12</ele>
  <time>2026-09-01T20:02:55Z</time>
  <course>2.26</course>
  <speed>0.16</speed>
  <fix>3d</fix>
</trkpt>
<trkpt lat="-26.9720619" lon="149.6127921">
  <ele>339.29</ele>
  <time>2026-09-01T20:02:56Z</time>
  <course>310.27</course>
  <speed>0.0</speed>
  <fix>3d</fix>
</trkpt>
<trkpt lat="-26.9720619" lon="149.6127921">
  <ele>339.29</ele>
  <time>2026-09-01T20:02:56Z</time>
  <course>310.27</course>
  <speed>0.0</speed>
  <fix>3d</fix>
</trkpt>
<trkpt lat="-27.274439" lon="151.290064">
  <ele>-0.01</ele>
  <time>2026-09-01T20:02:56Z</time>
  <course>0.22</course>
  <speed>0.0</speed>
  <fix>3d</fix>
</trkpt>
<trkpt lat="-27.274439" lon="151.290064">
  <ele>343.1</ele>
  <time>2026-09-01T20:02:56Z</time>
  <course>294.58</course>
  <speed>0.0</speed>
  <fix>3d</fix>
</trkpt>
<trkpt lat="-27.274439" lon="151.290064">
  <ele>0.02</ele>
  <time>2026-09-01T20:02:56Z</time>
  <course>1.2</course>
  <speed>0.0</speed>
  <fix>3d</fix>
</trkpt>
<trkpt lat="-27.274439" lon="151.290064">
  <ele>343.1</ele>
  <time>2026-09-01T20:02:56Z</time>
  <course>294.58</course>
  <speed>0.0</speed>
  <fix>3d</fix>
</trkpt>
<trkpt lat="-27.274439" lon="151.290064">
  <ele>-0.08</ele>
  <time>2026-09-01T20:02:56Z</time>
  <course>2.1</course>
  <speed>0.0</speed>
  <fix>3d</fix>
</trkpt>
<trkpt lat="-27.274439" lon="151.290064">
  <ele>343.1</ele>
  <time>2026-09-01T20:02:56Z</time>
  <course>273.33</course>
  <speed>0.0</speed>
  <fix>3d</fix>
</trkpt>
<trkpt lat="-27.274439" lon="151.290064">
  <ele>0.22</ele>
  <time>2026-09-01T20:02:56Z</time>
  <course>2.92</course>
  <speed>0.0</speed>
  <fix>3d</fix>
</trkpt>
<trkpt lat="-27.274439" lon="151.290064">
  <ele>343.1</ele>
  <time>2026-09-01T20:02:56Z</time>
  <course>273.33</course>
  <speed>0.0</speed>
  <fix>3d</fix>
</trkpt>
<trkpt lat="-27.274439" lon="151.290064">
  <ele>0.09</ele>
  <time>2026-09-01T20:02:56Z</time>
  <course>3.66</course>
  <speed>0.0</speed>
  <fix>3d</fix>
</trkpt>
<trkpt lat="-27.274439" lon="151.290064">
  <ele>343.1</ele>
  <time>2026-09-01T20:02:56Z</time>
  <course>270.44</course>
  <speed>0.0</speed>
  <fix>3d</fix>
</trkpt>
<trkpt lat="-27.274439" lon="151.290064">
  <ele>0.08</ele>
  <time>2026-09-01T20:02:56Z</time>
  <course>4.34</course>
  <speed>0.0</speed>
  <fix>3d</fix>
</trkpt>
<trkpt lat="-27.274439" lon="151.290064">
  <ele>343.1</ele>
  <time>2026-09-01T20:02:56Z</time>
  <course>270.44</course>
  <speed>0.0</speed>
  <fix>3d</fix>
</trkpt>
<trkpt lat="-27.274439" lon="151.290064">
  <ele>0.09</ele>
  <time>2026-09-01T20:02:56Z</time>
  <course>4.95</course>
  <speed>0.0</speed>
  <fix>3d</fix>
</trkpt>
<trkpt lat="-27.274439" lon="151.290064">
  <ele>343.1</ele>
  <time>2026-09-01T20:02:56Z</time>
  <course>270.05</course>
  <speed>0.0</speed>
  <fix>3d</fix>
</trkpt>
<trkpt lat="-27.274439" lon="151.290064">
  <ele>-0.05</ele>
  <time>2026-09-01T20:02:56Z</time>
  <course>5.5</course>
  <speed>0.0</speed>
  <fix>3d</fix>
</trkpt>
<trkpt lat="-27.274439" lon="151.290064">
  <ele>343.1</ele>
  <time>2026-09-01T20:02:56Z</time>
  <course>270.05</course>
  <speed>0.0</speed>
  <fix>3d</fix>
</trkpt>
<trkpt lat="-27.274439" lon="151.290064">
  <ele>343.06</ele>
  <time>2026-09-01T20:02:56Z</time>
  <course>5.98</course>
  <speed>0.0</speed>
  <fix>3d</fix>
</trkpt>
<trkpt lat="-27.274439" lon="151.290064">
  <ele>343.1</ele>
  <time>2026-09-01T20:02:56Z</time>
  <course>270.0</course>
  <speed>0.0</speed>
  <fix>3d</fix>
</trkpt>
<trkpt lat="-27.274439" lon="151.290064">
  <ele>343.18</ele>
  <time>2026-09-01T20:02:56Z</time>
  <course>6.44</course>
  <speed>0.0</speed>
  <fix>3d</fix>
</trkpt>
<trkpt lat="-27.274439" lon="151.290064">
  <ele>343.1</ele>
  <time>2026-09-01T20:02:56Z</time>
  <course>270.0</course>
  <speed>0.0</speed>
  <fix>3d</fix>
</trkpt>
<trkpt lat="-27.274439" lon="151.290064">
  <ele>342.91</ele>
  <time>2026-09-01T20:02:56Z</time>
  <course>6.85</course>
  <speed>0.0</speed>
  <fix>3d</fix>
</trkpt>
<trkpt lat="-27.274439" lon="151.290064">
  <ele>343.1</ele>
  <time>2026-09-01T20:02:56Z</time>
  <course>270.0</course>
  <speed>0.0</speed>
  <fix>3d</fix>
</trkpt>
<trkpt lat="-27.274439" lon="151.290064">
  <ele>343.06</ele>
  <time>2026-09-01T20:02:56Z</time>
  <course>7.22</course>
  <speed>0.0</speed>
  <fix>3d</fix>
</trkpt>
<trkpt lat="-27.274439" lon="151.290064">
  <ele>343.1</ele>
  <time>2026-09-01T20:02:56Z</time>
  <course>270.0</course>
  <speed>0.0</speed>
  <fix>3d</fix>
</trkpt>
<trkpt lat="-27.274439" lon="151.290064">
  <ele>343.13</ele>
  <time>2026-09-01T20:02:56Z</time>
  <course>7.56</course>
  <speed>0.0</speed>
  <fix>3d</fix>
</trkpt>
<trkpt lat="-27.274439" lon="151.290064">
  <ele>343.1</ele>
  <time>2026-09-01T20:02:56Z</time>
  <course>270.0</course>
  <speed>0.0</speed>
  <fix>3d</fix>
</trkpt>
<trkpt lat="-27.274439" lon="151.290064">
  <ele>343.04</ele>
  <time>2026-09-01T20:02:56Z</time>
  <course>7.87</course>
  <speed>0.0</speed>
  <fix>3d</fix>
</trkpt>
<trkpt lat="-27.274439" lon="151.290064">
  <ele>343.1</ele>
  <time>2026-09-01T20:02:56Z</time>
  <course>270.0</course>
  <speed>0.0</speed>
  <fix>3d</fix>
</trkpt>
<trkpt lat="-27.274439" lon="151.290064">
  <ele>342.88</ele>
  <time>2026-09-01T20:02:56Z</time>
  <course>8.14</course>
  <speed>0.0</speed>
  <fix>3d</fix>
</trkpt>
<trkpt lat="-27.274439" lon="151.290064">
  <ele>343.1</ele>
  <time>2026-09-01T20:02:56Z</time>
  <course>270.0</course>
  <speed>0.0</speed>
  <fix>3d</fix>
</trkpt>
<trkpt lat="-27.274439" lon="151.290064">
  <ele>343.02</ele>
  <time>2026-09-01T20:02:56Z</time>
  <course>8.39</course>
  <speed>0.0</speed>
  <fix>3d</fix>
</trkpt>
<trkpt lat="-27.274439" lon="151.290064">
  <ele>343.1</ele>
  <time>2026-09-01T20:02:56Z</time>
  <course>270.0</course>
  <speed>0.0</speed>
  <fix>3d</fix>
</trkpt>
<trkpt lat="-27.274439" lon="151.290064">
  <ele>343.23</ele>
  <time>2026-09-01T20:02:56Z</time>
  <course>8.63</course>
  <speed>0.0</speed>
  <fix>3d</fix>
</trkpt>
<trkpt lat="-27.274439" lon="151.290064">
  <ele>343.1</ele>
  <time>2026-09-01T20:02:56Z</time>
  <course>270.0</course>
  <speed>0.0</speed>
  <fix>3d</fix>
</trkpt>
<trkpt lat="-27.274439" lon="151.290064">
  <ele>343.17</ele>
  <time>2026-09-01T20:02:56Z</time>
  <course>8.83</course>
  <speed>0.0</speed>
  <fix>3d</fix>
</trkpt>
<trkpt lat="-27.274439" lon="151.290064">
  <ele>343.1</ele>
  <time>2026-09-01T20:02:56Z</time>
  <course>270.0</course>
  <speed>0.0</speed>
  <fix>3d</fix>
</trkpt>
<trkpt lat="-27.274439" lon="151.290064">
  <ele>343.04</ele>
  <time>2026-09-01T20:02:56Z</time>
  <course>9.01</course>
  <speed>0.0</speed>
  <fix>3d</fix>
</trkpt>
<trkpt lat="-27.274439" lon="151.290064">
  <ele>343.1</ele>
  <time>2026-09-01T20:02:56Z</time>
  <course>270.0</course>
  <speed>0.0</speed>
  <fix>3d</fix>
</trkpt>
<trkpt lat="-27.274439" lon="151.290064">
  <ele>342.89</ele>
  <time>2026-09-01T20:02:56Z</time>
  <course>9.18</course>
  <speed>0.0</speed>
  <fix>3d</fix>
</trkpt>
<trkpt lat="-27.274439" lon="151.290064">
  <ele>343.1</ele>
  <time>2026-09-01T20:02:56Z</time>
  <course>270.0</course>
  <speed>0.0</speed>
  <fix>3d</fix>
</trkpt>
<trkpt lat="-27.274439" lon="151.290064">
  <ele>343.08</ele>
  <time>2026-09-01T20:02:56Z</time>
  <course>9.33</course>
  <speed>0.0</speed>
  <fix>3d</fix>
</trkpt>
<trkpt lat="-27.274439" lon="151.290064">
  <ele>343.1</ele>
  <time>2026-09-01T20:02:56Z</time>
  <course>270.0</course>
  <speed>0.0</speed>
  <fix>3d</fix>
</trkpt>
<trkpt lat="-27.274439" lon="151.290064">
  <ele>343.19</ele>
  <time>2026-09-01T20:02:56Z</time>
  <course>9.47</course>
  <speed>0.0</speed>
  <fix>3d</fix>
</trkpt>
<trkpt lat="-27.274439" lon="151.290064">
  <ele>343.1</ele>
  <time>2026-09-01T20:02:56Z</time>
  <course>270.0</course>
  <speed>0.0</speed>
  <fix>3d</fix>
</trkpt>
<trkpt lat="-27.274439" lon="151.290064">
  <ele>342.88</ele>
  <time>2026-09-01T20:02:56Z</time>
  <course>9.59</course>
  <speed>0.0</speed>
  <fix>3d</fix>
</trkpt>
<trkpt lat="-27.274439" lon="151.290064">
  <ele>343.1</ele>
  <time>2026-09-01T20:02:56Z</time>
  <course>270.0</course>
  <speed>0.0</speed>
  <fix>3d</fix>
</trkpt>
<trkpt lat="-27.274439" lon="151.290064">
  <ele>343.17</ele>
  <time>2026-09-01T20:02:56Z</time>
  <course>9.7</course>
  <speed>0.0</speed>
  <fix>3d</fix>
</trkpt>
<trkpt lat="-27.274439" lon="151.290064">
  <ele>343.1</ele>
  <time>2026-09-01T20:02:56Z</time>
  <course>270.0</course>
  <speed>0.0</speed>
  <fix>3d</fix>
</trkpt>
<trkpt lat="-27.274439" lon="151.290064">
  <ele>342.89</ele>
  <time>2026-09-01T20:02:56Z</time>
  <course>9.8</course>
  <speed>0.0</speed>
  <fix>3d</fix>
</trkpt>
<trkpt lat="-27.274439" lon="151.290064">
  <ele>343.1</ele>
  <time>2026-09-01T20:02:56Z</time>
  <course>270.0</course>
  <speed>0.0</speed>
  <fix>3d</fix>
</trkpt>
<trkpt lat="-27.274439" lon="151.290064">
  <ele>342.99</ele>
  <time>2026-09-01T20:02:56Z</time>
  <course>9.9</course>
  <speed>0.0</speed>
  <fix>3d</fix>
</trkpt>
<trkpt lat="-27.274439" lon="151.290064">
  <ele>343.1</ele>
  <time>2026-09-01T20:02:56Z</time>
  <course>270.0</course>
  <speed>0.0</speed>
  <fix>3d</fix>
</trkpt>
<trkpt lat="-27.274439" lon="151.290064">
  <ele>342.87</ele>
  <time>2026-09-01T20:02:56Z</time>
  <course>9.98</course>
  <speed>0.0</speed>
  <fix>3d</fix>
</trkpt>
<trkpt lat="-27.274439" lon="151.290064">
  <ele>343.1</ele>
  <time>2026-09-01T20:02:56Z</time>
  <course>270.0</course>
  <speed>0.0</speed>
  <fix>3d</fix>
</trkpt>
<trkpt lat="-27.274439" lon="151.290064">
  <ele>343.09</ele>
  <time>2026-09-01T20:02:56Z</time>
  <course>10.06</course>
  <speed>0.0</speed>
  <fix>3d</fix>
</trkpt>
<trkpt lat="-27.274439" lon="151.290064">
  <ele>343.1</ele>
  <time>2026-09-01T20:02:56Z</time>
  <course>270.0</course>
  <speed>0.0</speed>
  <fix>3d</fix>
</trkpt>
<trkpt lat="-27.274439" lon="151.290064">
  <ele>343.18</ele>
  <time>2026-09-01T20:02:56Z</time>
  <course>10.13</course>
  <speed>0.0</speed>
  <fix>3d</fix>
</trkpt>
<trkpt lat="-27.274439" lon="151.290064">
  <ele>343.1</ele>
  <time>2026-09-01T20:02:56Z</time>
  <course>270.0</course>
  <speed>0.0</speed>
  <fix>3d</fix>
</trkpt>
<trkpt lat="-27.274439" lon="151.290064">
  <ele>343.05</ele>
  <time>2026-09-01T20:02:56Z</time>
  <course>10.2</course>
  <speed>0.0</speed>
  <fix>3d</fix>
</trkpt>
<trkpt lat="-27.274439" lon="151.290064">
  <ele>343.1</ele>
  <time>2026-09-01T20:02:56Z</time>
  <course>270.0</course>
  <speed>0.0</speed>
  <fix>3d</fix>
</trkpt>
<trkpt lat="-27.274439" lon="151.290064">
  <ele>342.96</ele>
  <time>2026-09-01T20:02:56Z</time>
  <course>10.25</course>
  <speed>0.0</speed>
  <fix>3d</fix>
</trkpt>
<trkpt lat="-27.274439" lon="151.290064">
  <ele>343.1</ele>
  <time>2026-09-01T20:02:56Z</time>
  <course>270.0</course>
  <speed>0.0</speed>
  <fix>3d</fix>
</trkpt>
<trkpt lat="-27.274439" lon="151.290064">
  <ele>343.1</ele>
  <time>2026-09-01T20:02:56Z</time>
  <course>10.31</course>
  <speed>0.0</speed>
  <fix>3d</fix>
</trkpt>
<trkpt lat="-27.274439" lon="151.290064">
  <ele>343.1</ele>
  <time>2026-09-01T20:02:56Z</time>
  <course>270.0</course>
  <speed>0.0</speed>
  <fix>3d</fix>
</trkpt>
<trkpt lat="-27.274439" lon="151.290064">
  <ele>343.22</ele>
  <time>2026-09-01T20:02:56Z</time>
  <course>10.35</course>
  <speed>0.0</speed>
  <fix>3d</fix>
</trkpt>
<trkpt lat="-27.274439" lon="151.290064">
  <ele>343.1</ele>
  <time>2026-09-01T20:02:56Z</time>
  <course>270.0</course>
  <speed>0.0</speed>
  <fix>3d</fix>
</trkpt>
<trkpt lat="-27.274439" lon="151.290064">
  <ele>343.17</ele>
  <time>2026-09-01T20:02:56Z</time>
  <course>10.4</course>
  <speed>0.0</speed>
  <fix>3d</fix>
</trkpt>
<trkpt lat="-27.274439" lon="151.290064">
  <ele>343.1</ele>
  <time>2026-09-01T20:02:56Z</time>
  <course>270.0</course>
  <speed>0.0</speed>
  <fix>3d</fix>
</trkpt>
<trkpt lat="-27.274439" lon="151.290064">
  <ele>343.08</ele>
  <time>2026-09-01T20:02:56Z</time>
  <course>10.44</course>
  <speed>0.0</speed>
  <fix>3d</fix>
</trkpt>
<trkpt lat="-27.274439" lon="151.290064">
  <ele>343.1</ele>
  <time>2026-09-01T20:02:56Z</time>
  <course>270.0</course>
  <speed>0.0</speed>
  <fix>3d</fix>
</trkpt>
<trkpt lat="-27.274439" lon="151.290064">
  <ele>343.04</ele>
  <time>2026-09-01T20:02:56Z</time>
  <course>10.47</course>
  <speed>0.0</speed>
  <fix>3d</fix>
</trkpt>
<trkpt lat="-27.274439" lon="151.290064">
  <ele>343.1</ele>
  <time>2026-09-01T20:02:56Z</time>
  <course>270.0</course>
  <speed>0.0</speed>
  <fix>3d</fix>
</trkpt>
<trkpt lat="-27.274439" lon="151.290064">
  <ele>343.18</ele>
  <time>2026-09-01T20:02:56Z</time>
  <course>10.5</course>
  <speed>0.0</speed>
  <fix>3d</fix>
</trkpt>
<trkpt lat="-27.274439" lon="151.290064">
  <ele>343.1</ele>
  <time>2026-09-01T20:02:56Z</time>
  <course>270.0</course>
  <speed>0.0</speed>
  <fix>3d</fix>
</trkpt>
<trkpt lat="-27.274439" lon="151.290064">
  <ele>343.12</ele>
  <time>2026-09-01T20:02:56Z</time>
  <course>10.53</course>
  <speed>0.0</speed>
  <fix>3d</fix>
</trkpt>
<trkpt lat="-27.274439" lon="151.290064">
  <ele>343.1</ele>
  <time>2026-09-01T20:02:56Z</time>
  <course>270.0</course>
  <speed>0.0</speed>
  <fix>3d</fix>
</trkpt>
<trkpt lat="-27.274439" lon="151.290064">
  <ele>343.04</ele>
  <time>2026-09-01T20:02:56Z</time>
  <course>10.56</course>
  <speed>0.0</speed>
  <fix>3d</fix>
</trkpt>
<trkpt lat="-27.274439" lon="151.290064">
  <ele>343.1</ele>
  <time>2026-09-01T20:02:56Z</time>
  <course>270.0</course>
  <speed>0.0</speed>
  <fix>3d</fix>
</trkpt>
<trkpt lat="-27.274439" lon="151.290064">
  <ele>343.07</ele>
  <time>2026-09-01T20:02:56Z</time>
  <course>10.58</course>
  <speed>0.0</speed>
  <fix>3d</fix>
</trkpt>
<trkpt lat="-27.274439" lon="151.290064">
  <ele>343.1</ele>
  <time>2026-09-01T20:02:56Z</time>
  <course>270.0</course>
  <speed>0.0</speed>
  <fix>3d</fix>
</trkpt>
<trkpt lat="-27.274439" lon="151.290064">
  <ele>343.04</ele>
  <time>2026-09-01T20:02:56Z</time>
  <course>10.6</course>
  <speed>0.0</speed>
  <fix>3d</fix>
</trkpt>
<trkpt lat="-27.274439" lon="151.290064">
  <ele>343.1</ele>
  <time>2026-09-01T20:02:56Z</time>
  <course>270.0</course>
  <speed>0.0</speed>
  <fix>3d</fix>
</trkpt>
<trkpt lat="-27.274439" lon="151.290064">
  <ele>343.01</ele>
  <time>2026-09-01T20:02:56Z</time>
  <course>10.62</course>
  <speed>0.0</speed>
  <fix>3d</fix>
</trkpt>
<trkpt lat="-27.274439" lon="151.290064">
  <ele>343.1</ele>
  <time>2026-09-01T20:02:56Z</time>
  <course>270.0</course>
  <speed>0.0</speed>
  <fix>3d</fix>
</trkpt>
<trkpt lat="-27.274439" lon="151.290064">
  <ele>343.2</ele>
  <time>2026-09-01T20:02:56Z</time>
  <course>10.64</course>
  <speed>0.0</speed>
  <fix>3d</fix>
</trkpt>
<trkpt lat="-27.274439" lon="151.290064">
  <ele>343.1</ele>
  <time>2026-09-01T20:02:56Z</time>
  <course>270.0</course>
  <speed>0.0</speed>
  <fix>3d</fix>
</trkpt>
<trkpt lat="-27.274439" lon="151.290064">
  <ele>343.24</ele>
  <time>2026-09-01T20:02:56Z</time>
  <course>10.65</course>
  <speed>0.0</speed>
  <fix>3d</fix>
</trkpt>
<trkpt lat="-27.274439" lon="151.290064">
  <ele>343.1</ele>
  <time>2026-09-01T20:02:56Z</time>
  <course>270.0</course>
  <speed>0.0</speed>
  <fix>3d</fix>
</trkpt>
<trkpt lat="-27.274439" lon="151.290064">
  <ele>342.88</ele>
  <time>2026-09-01T20:02:56Z</time>
  <course>10.67</course>
  <speed>0.0</speed>
  <fix>3d</fix>
</trkpt>
<trkpt lat="-27.274439" lon="151.290064">
  <ele>343.1</ele>
  <time>2026-09-01T20:02:56Z</time>
  <course>270.0</course>
  <speed>0.0</speed>
  <fix>3d</fix>
</trkpt>
<trkpt lat="-27.274439" lon="151.290064">
  <ele>343.21</ele>
  <time>2026-09-01T20:02:56Z</time>
  <course>10.68</course>
  <speed>0.0</speed>
  <fix>3d</fix>
</trkpt>
<trkpt lat="-27.274439" lon="151.290064">
  <ele>343.1</ele>
  <time>2026-09-01T20:02:56Z</time>
  <course>270.0</course>
  <speed>0.0</speed>
  <fix>3d</fix>
</trkpt>
<trkpt lat="-27.274439" lon="151.290064">
  <ele>343.02</ele>
  <time>2026-09-01T20:02:56Z</time>
  <course>10.69</course>
  <speed>0.0</speed>
  <fix>3d</fix>
</trkpt>
<trkpt lat="-27.274439" lon="151.290064">
  <ele>343.1</ele>
  <time>2026-09-01T20:02:56Z</time>
  <course>270.0</course>
  <speed>0.0</speed>
  <fix>3d</fix>
</trkpt>
<trkpt lat="-27.274439" lon="151.290064">
  <ele>342.93</ele>
  <time>2026-09-01T20:02:56Z</time>
  <course>10.7</course>
  <speed>0.0</speed>
  <fix>3d</fix>
</trkpt>
<trkpt lat="-27.274439" lon="151.290064">
  <ele>343.1</ele>
  <time>2026-09-01T20:02:56Z</time>
  <course>270.0</course>
  <speed>0.0</speed>
  <fix>3d</fix>
</trkpt>
<trkpt lat="-27.274439" lon="151.290064">
  <ele>343.07</ele>
  <time>2026-09-01T20:02:56Z</time>
  <course>10.71</course>
  <speed>0.0</speed>
  <fix>3d</fix>
</trkpt>
<trkpt lat="-27.274439" lon="151.290064">
  <ele>343.1</ele>
  <time>2026-09-01T20:02:56Z</time>
  <course>270.0</course>
  <speed>0.0</speed>
  <fix>3d</fix>
</trkpt>
<trkpt lat="-27.274439" lon="151.290064">
  <ele>342.94</ele>
  <time>2026-09-01T20:02:56Z</time>
  <course>10.72</course>
  <speed>0.0</speed>
  <fix>3d</fix>
</trkpt>
<trkpt lat="-27.274439" lon="151.290064">
  <ele>343.1</ele>
  <time>2026-09-01T20:02:56Z</time>
  <course>270.0</course>
  <speed>0.0</speed>
  <fix>3d</fix>
</trkpt>
<trkpt lat="-27.274439" lon="151.290064">
  <ele>343.11</ele>
  <time>2026-09-01T20:02:56Z</time>
  <course>10.73</course>
  <speed>0.0</speed>
  <fix>3d</fix>
</trkpt>
<trkpt lat="-27.274439" lon="151.290064">
  <ele>343.1</ele>
  <time>2026-09-01T20:02:56Z</time>
  <course>270.0</course>
  <speed>0.0</speed>
  <fix>3d</fix>
</trkpt>
<trkpt lat="-27.274439" lon="151.290064">
  <ele>343.24</ele>
  <time>2026-09-01T20:02:56Z</time>
  <course>10.73</course>
  <speed>0.0</speed>
  <fix>3d</fix>
</trkpt>
<trkpt lat="-27.274439" lon="151.290064">
  <ele>343.1</ele>
  <time>2026-09-01T20:02:56Z</time>
  <course>270.0</course>
  <speed>0.0</speed>
  <fix>3d</fix>
</trkpt>
<trkpt lat="-27.274439" lon="151.290064">
  <ele>343.18</ele>
  <time>2026-09-01T20:02:56Z</time>
  <course>10.74</course>
  <speed>0.0</speed>
  <fix>3d</fix>
</trkpt>
<trkpt lat="-27.274439" lon="151.290064">
  <ele>343.1</ele>
  <time>2026-09-01T20:02:56Z</time>
  <course>270.0</course>
  <speed>0.0</speed>
  <fix>3d</fix>
</trkpt>
<trkpt lat="-27.274439" lon="151.290064">
  <ele>342.89</ele>
  <time>2026-09-01T20:02:56Z</time>
  <course>10.75</course>
  <speed>0.0</speed>
  <fix>3d</fix>
</trkpt>
<trkpt lat="-27.274439" lon="151.290064">
  <ele>343.1</ele>
  <time>2026-09-01T20:02:56Z</time>
  <course>270.0</course>
  <speed>0.0</speed>
  <fix>3d</fix>
</trkpt>
<trkpt lat="-27.274439" lon="151.290064">
  <ele>343.23</ele>
  <time>2026-09-01T20:02:56Z</time>
  <course>10.75</course>
  <speed>0.0</speed>
  <fix>3d</fix>
</trkpt>
<trkpt lat="-27.274439" lon="151.290064">
  <ele>343.1</ele>
  <time>2026-09-01T20:02:56Z</time>
  <course>270.0</course>
  <speed>0.0</speed>
  <fix>3d</fix>
</trkpt>
<trkpt lat="-27.274439" lon="151.290064">
  <ele>343.23</ele>
  <time>2026-09-01T20:02:56Z</time>
  <course>10.76</course>
  <speed>0.0</speed>
  <fix>3d</fix>
</trkpt>
<trkpt lat="-27.274439" lon="151.290064">
  <ele>343.1</ele>
  <time>2026-09-01T20:02:56Z</time>
  <course>270.0</course>
  <speed>0.0</speed>
  <fix>3d</fix>
</trkpt>
<trkpt lat="-27.274439" lon="151.290064">
  <ele>342.99</ele>
  <time>2026-09-01T20:02:56Z</time>
  <course>10.76</course>
  <speed>0.0</speed>
  <fix>3d</fix>
</trkpt>
<trkpt lat="-27.274439" lon="151.290064">
  <ele>343.1</ele>
  <time>2026-09-01T20:02:56Z</time>
  <course>270.0</course>
  <speed>0.0</speed>
  <fix>3d</fix>
</trkpt>
<trkpt lat="-27.274439" lon="151.290064">
  <ele>343.13</ele>
  <time>2026-09-01T20:02:56Z</time>
  <course>10.76</course>
  <speed>0.0</speed>
  <fix>3d</fix>
</trkpt>
<trkpt lat="-27.274439" lon="151.290064">
  <ele>343.1</ele>
  <time>2026-09-01T20:02:56Z</time>
  <course>270.0</course>
  <speed>0.0</speed>
  <fix>3d</fix>
</trkpt>
<trkpt lat="-27.274439" lon="151.290064">
  <ele>343.07</ele>
  <time>2026-09-01T20:02:56Z</time>
  <course>10.77</course>
  <speed>0.0</speed>
  <fix>3d</fix>
</trkpt>
<trkpt lat="-27.274439" lon="151.290064">
  <ele>343.1</ele>
  <time>2026-09-01T20:02:56Z</time>
  <course>270.0</course>
  <speed>0.0</speed>
  <fix>3d</fix>
</trkpt>
<trkpt lat="-27.274439" lon="151.290064">
  <ele>343.19</ele>
  <time>2026-09-01T20:02:56Z</time>
  <course>10.77</course>
  <speed>0.0</speed>
  <fix>3d</fix>
</trkpt>
<trkpt lat="-27.274439" lon="151.290064">
  <ele>343.1</ele>
  <time>2026-09-01T20:02:56Z</time>
  <course>270.0</course>
  <speed>0.0</speed>
  <fix>3d</fix>
</trkpt>
<trkpt lat="-27.274439" lon="151.290064">
  <ele>342.93</ele>
  <time>2026-09-01T20:02:56Z</time>
  <course>10.77</course>
  <speed>0.0</speed>
  <fix>3d</fix>
</trkpt>
<trkpt lat="-27.274439" lon="151.290064">
  <ele>343.1</ele>
  <time>2026-09-01T20:02:56Z</time>
  <course>270.0</course>
  <speed>0.0</speed>
  <fix>3d</fix>
</trkpt>
<trkpt lat="-27.274439" lon="151.290064">
  <ele>343.19</ele>
  <time>2026-09-01T20:02:56Z</time>
  <course>10.78</course>
  <speed>0.0</speed>
  <fix>3d</fix>
</trkpt>
<trkpt lat="-27.274439" lon="151.290064">
  <ele>343.1</ele>
  <time>2026-09-01T20:02:56Z</time>
  <course>270.0</course>
  <speed>0.0</speed>
  <fix>3d</fix>
</trkpt>
<trkpt lat="-27.274439" lon="151.290064">
  <ele>343.1</ele>
  <time>2026-09-01T20:02:56Z</time>
  <course>10.78</course>
  <speed>0.0</speed>
  <fix>3d</fix>
</trkpt>
<trkpt lat="-27.274439" lon="151.290064">
  <ele>343.1</ele>
  <time>2026-09-01T20:02:56Z</time>
  <course>270.0</course>
  <speed>0.0</speed>
  <fix>3d</fix>
</trkpt>
<trkpt lat="-27.274439" lon="151.290064">
  <ele>343.01</ele>
  <time>2026-09-01T20:02:56Z</time>
  <course>10.78</course>
  <speed>0.0</speed>
  <fix>3d</fix>
</trkpt>
<trkpt lat="-27.274439" lon="151.290064">
  <ele>343.1</ele>
  <time>2026-09-01T20:02:56Z</time>
  <course>270.0</course>
  <speed>0.0</speed>
  <fix>3d</fix>
</trkpt>
<trkpt lat="-27.274439" lon="151.290064">
  <ele>343.11</ele>
  <time>2026-09-01T20:02:56Z</time>
  <course>10.78</course>
  <speed>0.0</speed>
  <fix>3d</fix>
</trkpt>
<trkpt lat="-27.274439" lon="151.290064">
  <ele>343.1</ele>
  <time>2026-09-01T20:02:56Z</time>
  <course>270.0</course>
  <speed>0.0</speed>
  <fix>3d</fix>
</trkpt>
<trkpt lat="-27.274439" lon="151.290064">
  <ele>342.96</ele>
  <time>2026-09-01T20:02:56Z</time>
  <course>10.78</course>
  <speed>0.0</speed>
  <fix>3d</fix>
</trkpt>
<trkpt lat="-27.274439" lon="151.290064">
  <ele>343.1</ele>
  <time>2026-09-01T20:02:56Z</time>
  <course>270.0</course>
  <speed>0.0</speed>
  <fix>3d</fix>
</trkpt>
<trkpt lat="-27.274439" lon="151.290064">
  <ele>343.19</ele>
  <time>2026-09-01T20:02:56Z</time>
  <course>10.79</course>
  <speed>0.0</speed>
  <fix>3d</fix>
</trkpt>
<trkpt lat="-27.274439" lon="151.290064">
  <ele>343.1</ele>
  <time>2026-09-01T20:02:56Z</time>
  <course>270.0</course>
  <speed>0.0</speed>
  <fix>3d</fix>
</trkpt>
<trkpt lat="-27.274439" lon="151.290064">
  <ele>343.0</ele>
  <time>2026-09-01T20:02:56Z</time>
  <course>10.79</course>
  <speed>0.0</speed>
  <fix>3d</fix>
</trkpt>
<trkpt lat="-27.274439" lon="151.290064">
  <ele>343.1</ele>
  <time>2026-09-01T20:02:56Z</time>
  <course>270.0</course>
  <speed>0.0</speed>
  <fix>3d</fix>
</trkpt>
<trkpt lat="-27.274439" lon="151.290064">
  <ele>343.2</ele>
  <time>2026-09-01T20:02:56Z</time>
  <course>10.79</course>
  <speed>0.0</speed>
  <fix>3d</fix>
</trkpt>
<trkpt lat="-27.274439" lon="151.290064">
  <ele>343.1</ele>
  <time>2026-09-01T20:02:56Z</time>
  <course>270.0</course>
  <speed>0.0</speed>
  <fix>3d</fix>
</trkpt>
<trkpt lat="-27.274439" lon="151.290064">
  <ele>343.2</ele>
  <time>2026-09-01T20:02:56Z</time>
  <course>10.79</course>
  <speed>0.0</speed>
  <fix>3d</fix>
</trkpt>
<trkpt lat="-27.274439" lon="151.290064">
  <ele>343.1</ele>
  <time>2026-09-01T20:02:56Z</time>
  <course>270.0</course>
  <speed>0.0</speed>
  <fix>3d</fix>
</trkpt>
<trkpt lat="-27.274439" lon="151.290064">
  <ele>343.13</ele>
  <time>2026-09-01T20:02:56Z</time>
  <course>10.79</course>
  <speed>0.0</speed>
  <fix>3d</fix>
</trkpt>
<trkpt lat="-27.274439" lon="151.290064">
  <ele>343.1</ele>
  <time>2026-09-01T20:02:56Z</time>
  <course>270.0</course>
  <speed>0.0</speed>
  <fix>3d</fix>
</trkpt>
<trkpt lat="-27.274439" lon="151.290064">
  <ele>343.1</ele>
  <time>2026-09-01T20:02:56Z</time>
  <course>10.79</course>
  <speed>0.0</speed>
  <fix>3d</fix>
</trkpt>
<trkpt lat="-27.274439" lon="151.290064">
  <ele>343.1</ele>
  <time>2026-09-01T20:02:56Z</time>
  <course>270.0</course>
  <speed>0.0</speed>
  <fix>3d</fix>
</trkpt>
<trkpt lat="-27.274439" lon="151.290064">
  <ele>343.12</ele>
  <time>2026-09-01T20:02:56Z</time>
  <course>10.79</course>
  <speed>0.0</speed>
  <fix>3d</fix>
</trkpt>
<trkpt lat="-27.274439" lon="151.290064">
  <ele>343.1</ele>
  <time>2026-09-01T20:02:56Z</time>
  <course>270.0</course>
  <speed>0.0</speed>
  <fix>3d</fix>
</trkpt>
<trkpt lat="-27.274439" lon="151.290064">
  <ele>342.94</ele>
  <time>2026-09-01T20:02:56Z</time>
  <course>10.79</course>
  <speed>0.0</speed>
  <fix>3d</fix>
</trkpt>
<trkpt lat="-27.274439" lon="151.290064">
  <ele>343.1</ele>
  <time>2026-09-01T20:02:56Z</time>
  <course>270.0</course>
  <speed>0.0</speed>
  <fix>3d</fix>
</trkpt>
<trkpt lat="-27.274439" lon="151.290064">
  <ele>343.25</ele>
  <time>2026-09-01T20:02:56Z</time>
  <course>10.79</course>
  <speed>0.0</speed>
  <fix>3d</fix>
</trkpt>
<trkpt lat="-27.274439" lon="151.290064">
  <ele>343.1</ele>
  <time>2026-09-01T20:02:56Z</time>
  <course>270.0</course>
  <speed>0.0</speed>
  <fix>3d</fix>
</trkpt>
<trkpt lat="-27.274439" lon="151.290064">
  <ele>342.93</ele>
  <time>2026-09-01T20:02:56Z</time>
  <course>10.79</course>
  <speed>0.0</speed>
  <fix>3d</fix>
</trkpt>
<trkpt lat="-27.274439" lon="151.290064">
  <ele>343.1</ele>
  <time>2026-09-01T20:02:56Z</time>
  <course>270.0</course>
  <speed>0.0</speed>
  <fix>3d</fix>
</trkpt>
<trkpt lat="-27.274439" lon="151.290064">
  <ele>343.08</ele>
  <time>2026-09-01T20:02:56Z</time>
  <course>10.79</course>
  <speed>0.0</speed>
  <fix>3d</fix>
</trkpt>
<trkpt lat="-27.274439" lon="151.290064">
  <ele>343.1</ele>
  <time>2026-09-01T20:02:56Z</time>
  <course>270.0</course>
  <speed>0.0</speed>
  <fix>3d</fix>
</trkpt>
<trkpt lat="-27.274439" lon="151.290064">
  <ele>343.23</ele>
  <time>2026-09-01T20:02:56Z</time>
  <course>10.8</course>
  <speed>0.0</speed>
  <fix>3d</fix>
</trkpt>
<trkpt lat="-27.274439" lon="151.290064">
  <ele>343.1</ele>
  <time>2026-09-01T20:02:56Z</time>
  <course>270.0</course>
  <speed>0.0</speed>
  <fix>3d</fix>
</trkpt>
<trkpt lat="-27.274439" lon="151.290064">
  <ele>343.01</ele>
  <time>2026-09-01T20:02:56Z</time>
  <course>10.8</course>
  <speed>0.0</speed>
  <fix>3d</fix>
</trkpt>
<trkpt lat="-27.274439" lon="151.290064">
  <ele>343.1</ele>
  <time>2026-09-01T20:02:56Z</time>
  <course>270.0</course>
  <speed>0.0</speed>
  <fix>3d</fix>
</trkpt>
<trkpt lat="-27.274439" lon="151.290064">
  <ele>343.1</ele>
  <time>2026-09-01T20:02:56Z</time>
  <course>10.8</course>
  <speed>0.0</speed>
  <fix>3d</fix>
</trkpt>
<trkpt lat="-27.274439" lon="151.290064">
  <ele>343.1</ele>
  <time>2026-09-01T20:02:56Z</time>
  <course>270.0</course>
  <speed>0.0</speed>
  <fix>3d</fix>
</trkpt>
<trkpt lat="-27.274439" lon="151.290064">
  <ele>342.99</ele>
  <time>2026-09-01T20:02:56Z</time>
  <course>10.8</course>
  <speed>0.0</speed>
  <fix>3d</fix>
</trkpt>
<trkpt lat="-27.274439" lon="151.290064">
  <ele>343.1</ele>
  <time>2026-09-01T20:02:56Z</time>
  <course>270.0</course>
  <speed>0.0</speed>
  <fix>3d</fix>
</trkpt>
<trkpt lat="-27.274439" lon="151.290064">
  <ele>342.87</ele>
  <time>2026-09-01T20:02:56Z</time>
  <course>10.8</course>
  <speed>0.0</speed>
  <fix>3d</fix>
</trkpt>
<trkpt lat="-27.274439" lon="151.290064">
  <ele>343.1</ele>
  <time>2026-09-01T20:02:56Z</time>
  <course>270.0</course>
  <speed>0.0</speed>
  <fix>3d</fix>
</trkpt>
<trkpt lat="-27.274439" lon="151.290064">
  <ele>343.1</ele>
  <time>2026-09-01T20:02:56Z</time>
  <course>10.8</course>
  <speed>0.0</speed>
  <fix>3d</fix>
</trkpt>
<trkpt lat="-27.274439" lon="151.290064">
  <ele>343.1</ele>
  <time>2026-09-01T20:02:56Z</time>
  <course>270.0</course>
  <speed>0.0</speed>
  <fix>3d</fix>
</trkpt>
<trkpt lat="-27.274439" lon="151.290064">
  <ele>342.99</ele>
  <time>2026-09-01T20:02:56Z</time>
  <course>10.8</course>
  <speed>0.0</speed>
  <fix>3d</fix>
</trkpt>
<trkpt lat="-27.274439" lon="151.290064">
  <ele>343.1</ele>
  <time>2026-09-01T20:02:56Z</time>
  <course>270.0</course>
  <speed>0.0</speed>
  <fix>3d</fix>
</trkpt>
<trkpt lat="-27.274439" lon="151.290064">
  <ele>342.91</ele>
  <time>2026-09-01T20:02:56Z</time>
  <course>10.8</course>
  <speed>0.0</speed>
  <fix>3d</fix>
</trkpt>
<trkpt lat="-27.274439" lon="151.290064">
  <ele>343.1</ele>
  <time>2026-09-01T20:02:56Z</time>
  <course>270.0</course>
  <speed>0.0</speed>
  <fix>3d</fix>
</trkpt>
<trkpt lat="-27.274439" lon="151.290064">
  <ele>342.9</ele>
  <time>2026-09-01T20:02:56Z</time>
  <course>10.8</course>
  <speed>0.0</speed>
  <fix>3d</fix>
</trkpt>
<trkpt lat="-27.274439" lon="151.290064">
  <ele>343.1</ele>
  <time>2026-09-01T20:02:56Z</time>
  <course>270.0</course>
  <speed>0.0</speed>
  <fix>3d</fix>
</trkpt>
<trkpt lat="-27.274439" lon="151.290064">
  <ele>342.87</ele>
  <time>2026-09-01T20:02:56Z</time>
  <course>10.8</course>
  <speed>0.0</speed>
  <fix>3d</fix>
</trkpt>
<trkpt lat="-27.274439" lon="151.290064">
  <ele>343.1</ele>
  <time>2026-09-01T20:02:56Z</time>
  <course>270.0</course>
  <speed>0.0</speed>
  <fix>3d</fix>
</trkpt>
<trkpt lat="-27.274439" lon="151.290064">
  <ele>343.12</ele>
  <time>2026-09-01T20:02:56Z</time>
  <course>10.8</course>
  <speed>0.0</speed>
  <fix>3d</fix>
</trkpt>
<trkpt lat="-27.274439" lon="151.290064">
  <ele>343.1</ele>
  <time>2026-09-01T20:02:56Z</time>
  <course>270.0</course>
  <speed>0.0</speed>
  <fix>3d</fix>
</trkpt>
<trkpt lat="-27.274439" lon="151.290064">
  <ele>342.99</ele>
  <time>2026-09-01T20:02:56Z</time>
  <course>10.8</course>
  <speed>0.0</speed>
  <fix>3d</fix>
</trkpt>
<trkpt lat="-27.274439" lon="151.290064">
  <ele>343.1</ele>
  <time>2026-09-01T20:02:56Z</time>
  <course>270.0</course>
  <speed>0.0</speed>
  <fix>3d</fix>
</trkpt>
<trkpt lat="-27.274439" lon="151.290064">
  <ele>343.13</ele>
  <time>2026-09-01T20:02:56Z</time>
  <course>10.8</course>
  <speed>0.0</speed>
  <fix>3d</fix>
</trkpt>
<trkpt lat="-27.274439" lon="151.290064">
  <ele>343.1</ele>
  <time>2026-09-01T20:02:56Z</time>
  <course>270.0</course>
  <speed>0.0</speed>
  <fix>3d</fix>
</trkpt>
<trkpt lat="-27.274439" lon="151.290064">
  <ele>343.0</ele>
  <time>2026-09-01T20:02:56Z</time>
  <course>10.8</course>
  <speed>0.0</speed>
  <fix>3d</fix>
</trkpt>
<trkpt lat="-27.274439" lon="151.290064">
  <ele>343.1</ele>
  <time>2026-09-01T20:02:56Z</time>
  <course>270.0</course>
  <speed>0.0</speed>
  <fix>3d</fix>
</trkpt>
<trkpt lat="-27.274439" lon="151.290064">
  <ele>343.17</ele>
  <time>2026-09-01T20:02:56Z</time>
  <course>10.8</course>
  <speed>0.0</speed>
  <fix>3d</fix>
</trkpt>
<trkpt lat="-27.274439" lon="151.290064">
  <ele>343.1</ele>
  <time>2026-09-01T20:02:56Z</time>
  <course>270.0</course>
  <speed>0.0</speed>
  <fix>3d</fix>
</trkpt>
<trkpt lat="-27.274439" lon="151.290064">
  <ele>343.0</ele>
  <time>2026-09-01T20:02:56Z</time>
  <course>10.8</course>
  <speed>0.0</speed>
  <fix>3d</fix>
</trkpt>
<trkpt lat="-27.274439" lon="151.290064">
  <ele>343.1</ele>
  <time>2026-09-01T20:02:56Z</time>
  <course>270.0</course>
  <speed>0.0</speed>
  <fix>3d</fix>
</trkpt>
<trkpt lat="-27.274439" lon="151.290064">
  <ele>342.99</ele>
  <time>2026-09-01T20:02:56Z</time>
  <course>10.8</course>
  <speed>0.0</speed>
  <fix>3d</fix>
</trkpt>
<trkpt lat="-27.274439" lon="151.290064">
  <ele>343.1</ele>
  <time>2026-09-01T20:02:56Z</time>
  <course>270.0</course>
  <speed>0.0</speed>
  <fix>3d</fix>
</trkpt>
<trkpt lat="-27.274439" lon="151.290064">
  <ele>343.17</ele>
  <time>2026-09-01T20:02:56Z</time>
  <course>10.8</course>
  <speed>0.0</speed>
  <fix>3d</fix>
</trkpt>
<trkpt lat="-27.274439" lon="151.290064">
  <ele>343.1</ele>
  <time>2026-09-01T20:02:56Z</time>
  <course>270.0</course>
  <speed>0.0</speed>
  <fix>3d</fix>
</trkpt>
<trkpt lat="-27.274439" lon="151.290064">
  <ele>343.16</ele>
  <time>2026-09-01T20:02:56Z</time>
  <course>10.8</course>
  <speed>0.0</speed>
  <fix>3d</fix>
</trkpt>
<trkpt lat="-27.274439" lon="151.290064">
  <ele>343.1</ele>
  <time>2026-09-01T20:02:56Z</time>
  <course>270.0</course>
  <speed>0.0</speed>
  <fix>3d</fix>
</trkpt>
<trkpt lat="-27.274439" lon="151.290064">
  <ele>342.87</ele>
  <time>2026-09-01T20:02:56Z</time>
  <course>10.8</course>
  <speed>0.0</speed>
  <fix>3d</fix>
</trkpt>
<trkpt lat="-27.274439" lon="151.290064">
  <ele>343.1</ele>
  <time>2026-09-01T20:02:56Z</time>
  <course>270.0</course>
  <speed>0.0</speed>
  <fix>3d</fix>
</trkpt>
<trkpt lat="-27.274439" lon="151.290064">
  <ele>343.19</ele>
  <time>2026-09-01T20:02:56Z</time>
  <course>10.8</course>
  <speed>0.0</speed>
  <fix>3d</fix>
</trkpt>
<trkpt lat="-27.274439" lon="151.290064">
  <ele>343.1</ele>
  <time>2026-09-01T20:02:56Z</time>
  <course>270.0</course>
  <speed>0.0</speed>
  <fix>3d</fix>
</trkpt>
<trkpt lat="-27.274439" lon="151.290064">
  <ele>343.16</ele>
  <time>2026-09-01T20:02:56Z</time>
  <course>10.8</course>
  <speed>0.0</speed>
  <fix>3d</fix>
</trkpt>
<trkpt lat="-27.274439" lon="151.290064">
  <ele>343.1</ele>
  <time>2026-09-01T20:02:56Z</time>
  <course>270.0</course>
  <speed>0.0</speed>
  <fix>3d</fix>
</trkpt>
<trkpt lat="-27.274439" lon="151.290064">
  <ele>343.21</ele>
  <time>2026-09-01T20:02:56Z</time>
  <course>10.8</course>
  <speed>0.0</speed>
  <fix>3d</fix>
</trkpt>
<trkpt lat="-27.274439" lon="151.290064">
  <ele>343.1</ele>
  <time>2026-09-01T20:02:56Z</time>
  <course>270.0</course>
  <speed>0.0</speed>
  <fix>3d</fix>
</trkpt>
<trkpt lat="-27.274439" lon="151.290064">
  <ele>343.22</ele>
  <time>2026-09-01T20:02:56Z</time>
  <course>10.8</course>
  <speed>0.0</speed>
  <fix>3d</fix>
</trkpt>
<trkpt lat="-27.274439" lon="151.290064">
  <ele>343.1</ele>
  <time>2026-09-01T20:02:56Z</time>
  <course>270.0</course>
  <speed>0.0</speed>
  <fix>3d</fix>
</trkpt>
<trkpt lat="-27.274439" lon="151.290064">
  <ele>343.24</ele>
  <time>2026-09-01T20:02:56Z</time>
  <course>10.8</course>
  <speed>0.0</speed>
  <fix>3d</fix>
</trkpt>
<trkpt lat="-27.274439" lon="151.290064">
  <ele>343.1</ele>
  <time>2026-09-01T20:02:56Z</time>
  <course>270.0</course>
  <speed>0.0</speed>
  <fix>3d</fix>
</trkpt>
<trkpt lat="-27.274439" lon="151.290064">
  <ele>343.0</ele>
  <time>2026-09-01T20:02:56Z</time>
  <course>10.8</course>
  <speed>0.0</speed>
  <fix>3d</fix>
</trkpt>
<trkpt lat="-27.274439" lon="151.290064">
  <ele>343.1</ele>
  <time>2026-09-01T20:02:56Z</time>
  <course>270.0</course>
  <speed>0.0</speed>
  <fix>3d</fix>
</trkpt>
<trkpt lat="-27.274439" lon="151.290064">
  <ele>343.1</ele>
  <time>2026-09-01T20:02:56Z</time>
  <course>10.8</course>
  <speed>0.0</speed>
  <fix>3d</fix>
</trkpt>
<trkpt lat="-27.274439" lon="151.290064">
  <ele>343.1</ele>
  <time>2026-09-01T20:02:56Z</time>
  <course>270.0</course>
  <speed>0.0</speed>
  <fix>3d</fix>
</trkpt>
<trkpt lat="-27.274439" lon="151.290064">
  <ele>343.05</ele>
  <time>2026-09-01T20:02:56Z</time>
  <course>10.8</course>
  <speed>0.0</speed>
  <fix>3d</fix>
</trkpt>
<trkpt lat="-27.274439" lon="151.290064">
  <ele>343.1</ele>
  <time>2026-09-01T20:02:56Z</time>
  <course>270.0</course>
  <speed>0.0</speed>
  <fix>3d</fix>
</trkpt>
<trkpt lat="-27.274439" lon="151.290064">
  <ele>342.87</ele>
  <time>2026-09-01T20:02:56Z</time>
  <course>10.8</course>
  <speed>0.0</speed>
  <fix>3d</fix>
</trkpt>
<trkpt lat="-27.274439" lon="151.290064">
  <ele>343.1</ele>
  <time>2026-09-01T20:02:56Z</time>
  <course>270.0</course>
  <speed>0.0</speed>
  <fix>3d</fix>
</trkpt>
<trkpt lat="-27.274439" lon="151.290064">
  <ele>342.92</ele>
  <time>2026-09-01T20:02:56Z</time>
  <course>10.8</course>
  <speed>0.0</speed>
  <fix>3d</fix>
</trkpt>
<trkpt lat="-27.274439" lon="151.290064">
  <ele>343.1</ele>
  <time>2026-09-01T20:02:56Z</time>
  <course>270.0</course>
  <speed>0.0</speed>
  <fix>3d</fix>
</trkpt>
<trkpt lat="-27.274439" lon="151.290064">
  <ele>342.96</ele>
  <time>2026-09-01T20:02:56Z</time>
  <course>10.8</course>
  <speed>0.0</speed>
  <fix>3d</fix>
</trkpt>
<trkpt lat="-27.274439" lon="151.290064">
  <ele>343.1</ele>
  <time>2026-09-01T20:02:56Z</time>
  <course>270.0</course>
  <speed>0.0</speed>
  <fix>3d</fix>
</trkpt>
<trkpt lat="-27.274439" lon="151.290064">
  <ele>343.15</ele>
  <time>2026-09-01T20:02:56Z</time>
  <course>10.8</course>
  <speed>0.0</speed>
  <fix>3d</fix>
</trkpt>
<trkpt lat="-27.274439" lon="151.290064">
  <ele>343.1</ele>
  <time>2026-09-01T20:02:56Z</time>
  <course>270.0</course>
  <speed>0.0</speed>
  <fix>3d</fix>
</trkpt>
<trkpt lat="-27.274439" lon="151.290064">
  <ele>343.16</ele>
  <time>2026-09-01T20:02:56Z</time>
  <course>10.8</course>
  <speed>0.0</speed>
  <fix>3d</fix>
</trkpt>
<trkpt lat="-27.274439" lon="151.290064">
  <ele>343.1</ele>
  <time>2026-09-01T20:02:56Z</time>
  <course>270.0</course>
  <speed>0.0</speed>
  <fix>3d</fix>
</trkpt>
<trkpt lat="-27.274439" lon="151.290064">
  <ele>343.2</ele>
  <time>2026-09-01T20:02:56Z</time>
  <course>10.81</course>
  <speed>0.0</speed>
  <fix>3d</fix>
</trkpt>
<trkpt lat="-27.274439" lon="151.290064">
  <ele>343.1</ele>
  <time>2026-09-01T20:02:56Z</time>
  <course>270.0</course>
  <speed>0.0</speed>
  <fix>3d</fix>
</trkpt>
<trkpt lat="-27.274439" lon="151.290064">
  <ele>343.13</ele>
  <time>2026-09-01T20:02:56Z</time>
  <course>10.82</course>
  <speed>0.0</speed>
  <fix>3d</fix>
</trkpt>
<trkpt lat="-27.274439" lon="151.290064">
  <ele>343.1</ele>
  <time>2026-09-01T20:02:56Z</time>
  <course>270.0</course>
  <speed>0.0</speed>
  <fix>3d</fix>
</trkpt>
<trkpt lat="-27.274439" lon="151.290064">
  <ele>343.09</ele>
  <time>2026-09-01T20:02:56Z</time>
  <course>10.71</course>
  <speed>0.0</speed>
  <fix>3d</fix>
</trkpt>
<trkpt lat="-27.274439" lon="151.290064">
  <ele>343.1</ele>
  <time>2026-09-01T20:02:56Z</time>
  <course>270.0</course>
  <speed>0.0</speed>
  <fix>3d</fix>
</trkpt>
<trkpt lat="-27.274439" lon="151.290064">
  <ele>343.09</ele>
  <time>2026-09-01T20:02:56Z</time>
  <course>10.71</course>
  <speed>0.0</speed>
  <fix>3d</fix>
</trkpt>
<trkpt lat="-27.274439" lon="151.290064">
  <ele>343.1</ele>
  <time>2026-09-01T20:02:56Z</time>
  <course>270.0</course>
  <speed>0.0</speed>
  <fix>3d</fix>
</trkpt>
<trkpt lat="-27.274439" lon="151.290064">
  <ele>343.1</ele>
  <time>2026-09-01T20:02:56Z</time>
  <course>10.71</course>
  <speed>0.0</speed>
  <fix>3d</fix>
</trkpt>
<trkpt lat="-27.274439" lon="151.290064">
  <ele>343.1</ele>
  <time>2026-09-01T20:02:56Z</time>
  <course>270.0</course>
  <speed>0.0</speed>
  <fix>3d</fix>
</trkpt>
<trkpt lat="-27.274439" lon="151.290064">
  <ele>343.1</ele>
  <time>2026-09-01T20:02:56Z</time>
  <course>10.71</course>
  <speed>0.0</speed>
  <fix>3d</fix>
</trkpt>
<trkpt lat="-27.274439" lon="151.290064">
  <ele>343.1</ele>
  <time>2026-09-01T20:02:56Z</time>
  <course>270.0</course>
  <speed>0.0</speed>
  <fix>3d</fix>
</trkpt>
<trkpt lat="-27.274439" lon="151.290064">
  <ele>343.1</ele>
  <time>2026-09-01T20:02:56Z</time>
  <course>10.71</course>
  <speed>0.0</speed>
  <fix>3d</fix>
</trkpt>
<trkpt lat="-27.274439" lon="151.290064">
  <ele>343.1</ele>
  <time>2026-09-01T20:02:56Z</time>
  <course>270.0</course>
  <speed>0.0</speed>
  <fix>3d</fix>
</trkpt>
<trkpt lat="-27.274439" lon="151.290064">
  <ele>343.1</ele>
  <time>2026-09-01T20:02:56Z</time>
  <course>10.71</course>
  <speed>0.0</speed>
  <fix>3d</fix>
</trkpt>
<trkpt lat="-27.274439" lon="151.290064">
  <ele>343.1</ele>
  <time>2026-09-01T20:02:56Z</time>
  <course>270.0</course>
  <speed>0.0</speed>
  <fix>3d</fix>
</trkpt>
<trkpt lat="-27.274439" lon="151.290064">
  <ele>343.1</ele>
  <time>2026-09-01T20:02:56Z</time>
  <course>10.71</course>
  <speed>0.0</speed>
  <fix>3d</fix>
</trkpt>
<trkpt lat="-27.274439" lon="151.290064">
  <ele>343.1</ele>
  <time>2026-09-01T20:02:56Z</time>
  <course>270.0</course>
  <speed>0.0</speed>
  <fix>3d</fix>
</trkpt>
<trkpt lat="-27.274439" lon="151.290064">
  <ele>343.11</ele>
  <time>2026-09-01T20:02:56Z</time>
  <course>10.71</course>
  <speed>0.0</speed>
  <fix>3d</fix>
</trkpt>
<trkpt lat="-27.274439" lon="151.290064">
  <ele>343.1</ele>
  <time>2026-09-01T20:02:56Z</time>
  <course>270.0</course>
  <speed>0.0</speed>
  <fix>3d</fix>
</trkpt>
<trkpt lat="-27.274439" lon="151.290064">
  <ele>343.11</ele>
  <time>2026-09-01T20:02:56Z</time>
  <course>10.71</course>
  <speed>0.0</speed>
  <fix>3d</fix>
</trkpt>
<trkpt lat="-27.274439" lon="151.290064">
  <ele>343.1</ele>
  <time>2026-09-01T20:02:56Z</time>
  <course>270.0</course>
  <speed>0.0</speed>
  <fix>3d</fix>
</trkpt>
<trkpt lat="-27.274439" lon="151.290064">
  <ele>343.11</ele>
  <time>2026-09-01T20:02:56Z</time>
  <course>10.71</course>
  <speed>0.0</speed>
  <fix>3d</fix>
</trkpt>
<trkpt lat="-27.274439" lon="151.290064">
  <ele>343.1</ele>
  <time>2026-09-01T20:02:56Z</time>
  <course>270.0</course>
  <speed>0.0</speed>
  <fix>3d</fix>
</trkpt>
<trkpt lat="-27.274439" lon="151.290064">
  <ele>343.12</ele>
  <time>2026-09-01T20:02:56Z</time>
  <course>10.71</course>
  <speed>0.0</speed>
  <fix>3d</fix>
</trkpt>
<trkpt lat="-27.274439" lon="151.290064">
  <ele>343.1</ele>
  <time>2026-09-01T20:02:56Z</time>
  <course>270.0</course>
  <speed>0.0</speed>
  <fix>3d</fix>
</trkpt>
<trkpt lat="-27.274439" lon="151.290064">
  <ele>343.12</ele>
  <time>2026-09-01T20:02:56Z</time>
  <course>10.71</course>
  <speed>0.0</speed>
  <fix>3d</fix>
</trkpt>
<trkpt lat="-27.274439" lon="151.290064">
  <ele>343.1</ele>
  <time>2026-09-01T20:02:56Z</time>
  <course>270.0</course>
  <speed>0.0</speed>
  <fix>3d</fix>
</trkpt>
<trkpt lat="-27.274439" lon="151.290064">
  <ele>343.1</ele>
  <time>2026-09-01T20:02:56Z</time>
  <course>10.71</course>
  <speed>0.0</speed>
  <fix>3d</fix>
</trkpt>
<trkpt lat="-27.274439" lon="151.290064">
  <ele>343.1</ele>
  <time>2026-09-01T20:02:56Z</time>
  <course>270.0</course>
  <speed>0.0</speed>
  <fix>3d</fix>
</trkpt>
<trkpt lat="-27.274439" lon="151.290064">
  <ele>343.1</ele>
  <time>2026-09-01T20:02:56Z</time>
  <course>10.71</course>
  <speed>0.0</speed>
  <fix>3d</fix>
</trkpt>
<trkpt lat="-27.274439" lon="151.290064">
  <ele>343.1</ele>
  <time>2026-09-01T20:02:56Z</time>
  <course>270.0</course>
  <speed>0.0</speed>
  <fix>3d</fix>
</trkpt>
<trkpt lat="-27.274439" lon="151.290064">
  <ele>343.1</ele>
  <time>2026-09-01T20:02:56Z</time>
  <course>10.71</course>
  <speed>0.0</speed>
  <fix>3d</fix>
</trkpt>
<trkpt lat="-27.274439" lon="151.290064">
  <ele>343.1</ele>
  <time>2026-09-01T20:02:56Z</time>
  <course>270.0</course>
  <speed>0.0</speed>
  <fix>3d</fix>
</trkpt>
<trkpt lat="-27.274439" lon="151.290064">
  <ele>343.09</ele>
  <time>2026-09-01T20:02:56Z</time>
  <course>10.71</course>
  <speed>0.0</speed>
  <fix>3d</fix>
</trkpt>
<trkpt lat="-27.274439" lon="151.290064">
  <ele>343.1</ele>
  <time>2026-09-01T20:02:56Z</time>
  <course>270.0</course>
  <speed>0.0</speed>
  <fix>3d</fix>
</trkpt>
<trkpt lat="-27.274439" lon="151.290064">
  <ele>343.09</ele>
  <time>2026-09-01T20:02:56Z</time>
  <course>10.71</course>
  <speed>0.0</speed>
  <fix>3d</fix>
</trkpt>
<trkpt lat="-27.274439" lon="151.290064">
  <ele>343.1</ele>
  <time>2026-09-01T20:02:56Z</time>
  <course>270.0</course>
  <speed>0.0</speed>
  <fix>3d</fix>
</trkpt>
<trkpt lat="-27.274439" lon="151.290064">
  <ele>343.09</ele>
  <time>2026-09-01T20:02:56Z</time>
  <course>10.71</course>
  <speed>0.0</speed>
  <fix>3d</fix>
</trkpt>
<trkpt lat="-27.274439" lon="151.290064">
  <ele>343.1</ele>
  <time>2026-09-01T20:02:56Z</time>
  <course>270.0</course>
  <speed>0.0</speed>
  <fix>3d</fix>
</trkpt>
<trkpt lat="-27.274439" lon="151.290064">
  <ele>343.1</ele>
  <time>2026-09-01T20:02:56Z</time>
  <course>10.71</course>
  <speed>0.0</speed>
  <fix>3d</fix>
</trkpt>
<trkpt lat="-27.274439" lon="151.290064">
  <ele>343.1</ele>
  <time>2026-09-01T20:02:56Z</time>
  <course>270.0</course>
  <speed>0.0</speed>
  <fix>3d</fix>
</trkpt>
<trkpt lat="-27.274439" lon="151.290064">
  <ele>343.1</ele>
  <time>2026-09-01T20:02:56Z</time>
  <course>10.71</course>
  <speed>0.0</speed>
  <fix>3d</fix>
</trkpt>
<trkpt lat="-27.274439" lon="151.290064">
  <ele>343.1</ele>
  <time>2026-09-01T20:02:56Z</time>
  <course>270.0</course>
  <speed>0.0</speed>
  <fix>3d</fix>
</trkpt>
<trkpt lat="-27.274439" lon="151.290064">
  <ele>343.09</ele>
  <time>2026-09-01T20:02:56Z</time>
  <course>10.71</course>
  <speed>0.0</speed>
  <fix>3d</fix>
</trkpt>
<trkpt lat="-27.274439" lon="151.290064">
  <ele>343.1</ele>
  <time>2026-09-01T20:02:56Z</time>
  <course>270.0</course>
  <speed>0.0</speed>
  <fix>3d</fix>
</trkpt>
<trkpt lat="-27.274439" lon="151.290064">
  <ele>343.09</ele>
  <time>2026-09-01T20:02:56Z</time>
  <course>10.71</course>
  <speed>0.0</speed>
  <fix>3d</fix>
</trkpt>
<trkpt lat="-27.274439" lon="151.290064">
  <ele>343.1</ele>
  <time>2026-09-01T20:02:56Z</time>
  <course>270.0</course>
  <speed>0.0</speed>
  <fix>3d</fix>
</trkpt>
<trkpt lat="-27.274439" lon="151.290064">
  <ele>343.09</ele>
  <time>2026-09-01T20:02:56Z</time>
  <course>10.71</course>
  <speed>0.0</speed>
  <fix>3d</fix>
</trkpt>
<trkpt lat="-27.274439" lon="151.290064">
  <ele>343.1</ele>
  <time>2026-09-01T20:02:56Z</time>
  <course>270.0</course>
  <speed>0.0</speed>
  <fix>3d</fix>
</trkpt>
<trkpt lat="-27.274439" lon="151.290064">
  <ele>343.09</ele>
  <time>2026-09-01T20:02:56Z</time>
  <course>10.71</course>
  <speed>0.0</speed>
  <fix>3d</fix>
</trkpt>
<trkpt lat="-27.274439" lon="151.290064">
  <ele>343.1</ele>
  <time>2026-09-01T20:02:56Z</time>
  <course>270.0</course>
  <speed>0.0</speed>
  <fix>3d</fix>
</trkpt>
<trkpt lat="-27.274439" lon="151.290064">
  <ele>343.09</ele>
  <time>2026-09-01T20:02:56Z</time>
  <course>10.71</course>
  <speed>0.0</speed>
  <fix>3d</fix>
</trkpt>
<trkpt lat="-27.274439" lon="151.290064">
  <ele>343.1</ele>
  <time>2026-09-01T20:02:56Z</time>
  <course>270.0</course>
  <speed>0.0</speed>
  <fix>3d</fix>
</trkpt>
<trkpt lat="-27.274439" lon="151.290064">
  <ele>343.09</ele>
  <time>2026-09-01T20:02:56Z</time>
  <course>10.71</course>
  <speed>0.0</speed>
  <fix>3d</fix>
</trkpt>
<trkpt lat="-27.274439" lon="151.290064">
  <ele>343.1</ele>
  <time>2026-09-01T20:02:56Z</time>
  <course>270.0</course>
  <speed>0.0</speed>
  <fix>3d</fix>
</trkpt>
<trkpt lat="-27.274439" lon="151.290064">
  <ele>343.09</ele>
  <time>2026-09-01T20:02:56Z</time>
  <course>10.71</course>
  <speed>0.0</speed>
  <fix>3d</fix>
</trkpt>
<trkpt lat="-27.274439" lon="151.290064">
  <ele>343.1</ele>
  <time>2026-09-01T20:02:56Z</time>
  <course>270.0</course>
  <speed>0.0</speed>
  <fix>3d</fix>
</trkpt>
<trkpt lat="-27.274439" lon="151.290064">
  <ele>343.09</ele>
  <time>2026-09-01T20:02:56Z</time>
  <course>10.71</course>
  <speed>0.0</speed>
  <fix>3d</fix>
</trkpt>
<trkpt lat="-27.274439" lon="151.290064">
  <ele>343.1</ele>
  <time>2026-09-01T20:02:56Z</time>
  <course>270.0</course>
  <speed>0.0</speed>
  <fix>3d</fix>
</trkpt>
<trkpt lat="-27.274439" lon="151.290064">
  <ele>343.1</ele>
  <time>2026-09-01T20:02:56Z</time>
  <course>10.71</course>
  <speed>0.0</speed>
  <fix>3d</fix>
</trkpt>
<trkpt lat="-27.274439" lon="151.290064">
  <ele>343.1</ele>
  <time>2026-09-01T20:02:56Z</time>
  <course>270.0</course>
  <speed>0.0</speed>
  <fix>3d</fix>
</trkpt>
<trkpt lat="-27.274439" lon="151.290064">
  <ele>343.09</ele>
  <time>2026-09-01T20:02:56Z</time>
  <course>10.71</course>
  <speed>0.0</speed>
  <fix>3d</fix>
</trkpt>
<trkpt lat="-27.274439" lon="151.290064">
  <ele>343.1</ele>
  <time>2026-09-01T20:02:56Z</time>
  <course>270.0</course>
  <speed>0.0</speed>
  <fix>3d</fix>
</trkpt>
<trkpt lat="-27.274439" lon="151.290064">
  <ele>343.09</ele>
  <time>2026-09-01T20:02:56Z</time>
  <course>10.71</course>
  <speed>0.0</speed>
  <fix>3d</fix>
</trkpt>
<trkpt lat="-27.274439" lon="151.290064">
  <ele>343.1</ele>
  <time>2026-09-01T20:02:56Z</time>
  <course>270.0</course>
  <speed>0.0</speed>
  <fix>3d</fix>
</trkpt>
<trkpt lat="-27.274439" lon="151.290064">
  <ele>343.09</ele>
  <time>2026-09-01T20:02:56Z</time>
  <course>10.71</course>
  <speed>0.0</speed>
  <fix>3d</fix>
</trkpt>
<trkpt lat="-27.274439" lon="151.290064">
  <ele>343.1</ele>
  <time>2026-09-01T20:02:56Z</time>
  <course>270.0</course>
  <speed>0.0</speed>
  <fix>3d</fix>
</trkpt>
<trkpt lat="-27.274439" lon="151.290064">
  <ele>343.09</ele>
  <time>2026-09-01T20:02:56Z</time>
  <course>10.71</course>
  <speed>0.0</speed>
  <fix>3d</fix>
</trkpt>
<trkpt lat="-27.274439" lon="151.290064">
  <ele>343.1</ele>
  <time>2026-09-01T20:02:56Z</time>
  <course>270.0</course>
  <speed>0.0</speed>
  <fix>3d</fix>
</trkpt>
<trkpt lat="-27.274439" lon="151.290064">
  <ele>343.09</ele>
  <time>2026-09-01T20:02:56Z</time>
  <course>10.71</course>
  <speed>0.0</speed>
  <fix>3d</fix>
</trkpt>
<trkpt lat="-27.274439" lon="151.290064">
  <ele>343.1</ele>
  <time>2026-09-01T20:02:56Z</time>
  <course>270.0</course>
  <speed>0.0</speed>
  <fix>3d</fix>
</trkpt>
<trkpt lat="-27.274439" lon="151.290064">
  <ele>343.09</ele>
  <time>2026-09-01T20:02:56Z</time>
  <course>10.71</course>
  <speed>0.0</speed>
  <fix>3d</fix>
</trkpt>
<trkpt lat="-27.274439" lon="151.290064">
  <ele>343.1</ele>
  <time>2026-09-01T20:02:56Z</time>
  <course>270.0</course>
  <speed>0.0</speed>
  <fix>3d</fix>
</trkpt>
<trkpt lat="-27.274439" lon="151.290064">
  <ele>343.09</ele>
  <time>2026-09-01T20:02:56Z</time>
  <course>10.71</course>
  <speed>0.0</speed>
  <fix>3d</fix>
</trkpt>
<trkpt lat="-27.274439" lon="151.290064">
  <ele>343.1</ele>
  <time>2026-09-01T20:02:56Z</time>
  <course>270.0</course>
  <speed>0.0</speed>
  <fix>3d</fix>
</trkpt>
<trkpt lat="-27.274439" lon="151.290064">
  <ele>343.09</ele>
  <time>2026-09-01T20:02:56Z</time>
  <course>10.71</course>
  <speed>0.0</speed>
  <fix>3d</fix>
</trkpt>
<trkpt lat="-27.274439" lon="151.290064">
  <ele>343.1</ele>
  <time>2026-09-01T20:02:56Z</time>
  <course>270.0</course>
  <speed>0.0</speed>
  <fix>3d</fix>
</trkpt>
<trkpt lat="-27.274439" lon="151.290064">
  <ele>343.08</ele>
  <time>2026-09-01T20:02:56Z</time>
  <course>10.71</course>
  <speed>0.0</speed>
  <fix>3d</fix>
</trkpt>
<trkpt lat="-27.274439" lon="151.290064">
  <ele>343.1</ele>
  <time>2026-09-01T20:02:56Z</time>
  <course>270.0</course>
  <speed>0.0</speed>
  <fix>3d</fix>
</trkpt>
<trkpt lat="-27.274439" lon="151.290064">
  <ele>343.08</ele>
  <time>2026-09-01T20:02:56Z</time>
  <course>10.71</course>
  <speed>0.0</speed>
  <fix>3d</fix>
</trkpt>
<trkpt lat="-27.274439" lon="151.290064">
  <ele>343.1</ele>
  <time>2026-09-01T20:02:56Z</time>
  <course>116.25</course>
  <speed>0.0</speed>
  <fix>3d</fix>
</trkpt>
<trkpt lat="-27.274439" lon="151.290064">
  <ele>343.08</ele>
  <time>2026-09-01T20:02:56Z</time>
  <course>10.71</course>
  <speed>0.0</speed>
  <fix>3d</fix>
</trkpt>
<trkpt lat="-27.274439" lon="151.290064">
  <ele>343.1</ele>
  <time>2026-09-01T20:02:56Z</time>
  <course>116.25</course>
  <speed>0.0</speed>
  <fix>3d</fix>
</trkpt>
<trkpt lat="-27.274439" lon="151.290064">
  <ele>343.08</ele>
  <time>2026-09-01T20:02:56Z</time>
  <course>10.71</course>
  <speed>0.0</speed>
  <fix>3d</fix>
</trkpt>
<trkpt lat="-27.274439" lon="151.290064">
  <ele>343.08</ele>
  <time>2026-09-01T20:02:56Z</time>
  <course>10.71</course>
  <speed>0.0</speed>
  <fix>3d</fix>
</trkpt>
<trkpt lat="-27.274439" lon="151.290064">
  <ele>343.1</ele>
  <time>2026-09-01T20:02:56Z</time>
  <course>124.42</course>
  <speed>0.0</speed>
  <fix>3d</fix>
</trkpt>
<trkpt lat="-27.274439" lon="151.290064">
  <ele>343.08</ele>
  <time>2026-09-01T20:02:56Z</time>
  <course>10.71</course>
  <speed>0.0</speed>
  <fix>3d</fix>
</trkpt>
<trkpt lat="-27.274439" lon="151.290064">
  <ele>343.08</ele>
  <time>2026-09-01T20:02:56Z</time>
  <course>10.71</course>
  <speed>0.0</speed>
  <fix>3d</fix>
</trkpt>
<trkpt lat="-27.274439" lon="151.290064">
  <ele>343.1</ele>
  <time>2026-09-01T20:02:56Z</time>
  <course>124.42</course>
  <speed>0.0</speed>
  <fix>3d</fix>
</trkpt>
<trkpt lat="-27.274439" lon="151.290064">
  <ele>343.08</ele>
  <time>2026-09-01T20:02:56Z</time>
  <course>10.71</course>
  <speed>0.0</speed>
  <fix>3d</fix>
</trkpt>
<trkpt lat="-27.274439" lon="151.290064">
  <ele>343.08</ele>
  <time>2026-09-01T20:02:56Z</time>
  <course>10.71</course>
  <speed>0.0</speed>
  <fix>3d</fix>
</trkpt>
<trkpt lat="-27.274439" lon="151.290064">
  <ele>343.1</ele>
  <time>2026-09-01T20:02:56Z</time>
  <course>118.41</course>
  <speed>0.0</speed>
  <fix>3d</fix>
</trkpt>
<trkpt lat="-27.274439" lon="151.290064">
  <ele>343.08</ele>
  <time>2026-09-01T20:02:56Z</time>
  <course>10.71</course>
  <speed>0.0</speed>
  <fix>3d</fix>
</trkpt>
<trkpt lat="-27.274439" lon="151.290064">
  <ele>343.08</ele>
  <time>2026-09-01T20:02:56Z</time>
  <course>10.71</course>
  <speed>0.0</speed>
  <fix>3d</fix>
</trkpt>
<trkpt lat="-27.274439" lon="151.290064">
  <ele>343.1</ele>
  <time>2026-09-01T20:02:56Z</time>
  <course>118.41</course>
  <speed>0.0</speed>
  <fix>3d</fix>
</trkpt>
<trkpt lat="-27.274439" lon="151.290064">
  <ele>343.08</ele>
  <time>2026-09-01T20:02:56Z</time>
  <course>10.71</course>
  <speed>0.0</speed>
  <fix>3d</fix>
</trkpt>
<trkpt lat="-27.274439" lon="151.290064">
  <ele>343.08</ele>
  <time>2026-09-01T20:02:56Z</time>
  <course>10.71</course>
  <speed>0.0</speed>
  <fix>3d</fix>
</trkpt>
<trkpt lat="-27.274439" lon="151.290064">
  <ele>343.1</ele>
  <time>2026-09-01T20:02:56Z</time>
  <course>306.83</course>
  <speed>0.0</speed>
  <fix>3d</fix>
</trkpt>
<trkpt lat="-27.274439" lon="151.290064">
  <ele>343.08</ele>
  <time>2026-09-01T20:02:56Z</time>
  <course>10.71</course>
  <speed>0.0</speed>
  <fix>3d</fix>
</trkpt>
<trkpt lat="-27.274439" lon="151.290064">
  <ele>343.07</ele>
  <time>2026-09-01T20:02:56Z</time>
  <course>10.71</course>
  <speed>0.0</speed>
  <fix>3d</fix>
</trkpt>
<trkpt lat="-27.274439" lon="151.290064">
  <ele>343.1</ele>
  <time>2026-09-01T20:02:56Z</time>
  <course>306.83</course>
  <speed>0.0</speed>
  <fix>3d</fix>
</trkpt>
<trkpt lat="-27.274439" lon="151.290064">
  <ele>343.07</ele>
  <time>2026-09-01T20:02:56Z</time>
  <course>10.71</course>
  <speed>0.0</speed>
  <fix>3d</fix>
</trkpt>
<trkpt lat="-27.274439" lon="151.290064">
  <ele>343.07</ele>
  <time>2026-09-01T20:02:56Z</time>
  <course>10.71</course>
  <speed>0.0</speed>
  <fix>3d</fix>
</trkpt>
<trkpt lat="-27.274439" lon="151.290064">
  <ele>343.1</ele>
  <time>2026-09-01T20:02:56Z</time>
  <course>294.3</course>
  <speed>0.0</speed>
  <fix>3d</fix>
</trkpt>
<trkpt lat="-27.274439" lon="151.290064">
  <ele>343.07</ele>
  <time>2026-09-01T20:02:56Z</time>
  <course>10.71</course>
  <speed>0.0</speed>
  <fix>3d</fix>
</trkpt>
<trkpt lat="-27.274439" lon="151.290064">
  <ele>343.07</ele>
  <time>2026-09-01T20:02:56Z</time>
  <course>10.71</course>
  <speed>0.0</speed>
  <fix>3d</fix>
</trkpt>
<trkpt lat="-27.274439" lon="151.290064">
  <ele>343.1</ele>
  <time>2026-09-01T20:02:56Z</time>
  <course>294.3</course>
  <speed>0.0</speed>
  <fix>3d</fix>
</trkpt>
<trkpt lat="-27.274439" lon="151.290064">
  <ele>343.07</ele>
  <time>2026-09-01T20:02:56Z</time>
  <course>10.71</course>
  <speed>0.0</speed>
  <fix>3d</fix>
</trkpt>
<trkpt lat="-27.274439" lon="151.290064">
  <ele>343.09</ele>
  <time>2026-09-01T20:02:56Z</time>
  <course>10.71</course>
  <speed>0.0</speed>
  <fix>3d</fix>
</trkpt>
<trkpt lat="-27.274439" lon="151.290064">
  <ele>343.1</ele>
  <time>2026-09-01T20:02:56Z</time>
  <course>7.23</course>
  <speed>0.0</speed>
  <fix>3d</fix>
</trkpt>
<trkpt lat="-27.274439" lon="151.290064">
  <ele>343.09</ele>
  <time>2026-09-01T20:02:56Z</time>
  <course>10.71</course>
  <speed>0.0</speed>
  <fix>3d</fix>
</trkpt>
<trkpt lat="-27.274439" lon="151.290064">
  <ele>343.11</ele>
  <time>2026-09-01T20:02:56Z</time>
  <course>10.71</course>
  <speed>0.0</speed>
  <fix>3d</fix>
</trkpt>
<trkpt lat="-27.274439" lon="151.290064">
  <ele>343.1</ele>
  <time>2026-09-01T20:02:56Z</time>
  <course>7.23</course>
  <speed>0.0</speed>
  <fix>3d</fix>
</trkpt>
<trkpt lat="-27.274439" lon="151.290064">
  <ele>343.12</ele>
  <time>2026-09-01T20:02:56Z</time>
  <course>10.71</course>
  <speed>0.0</speed>
  <fix>3d</fix>
</trkpt>
<trkpt lat="-27.274439" lon="151.290064">
  <ele>343.15</ele>
  <time>2026-09-01T20:02:56Z</time>
  <course>10.71</course>
  <speed>0.0</speed>
  <fix>3d</fix>
</trkpt>
<trkpt lat="-27.274439" lon="151.290064">
  <ele>343.12</ele>
  <time>2026-09-01T20:02:56Z</time>
  <course>7.93</course>
  <speed>0.0</speed>
  <fix>3d</fix>
</trkpt>
<trkpt lat="-27.274439" lon="151.290064">
  <ele>343.16</ele>
  <time>2026-09-01T20:02:56Z</time>
  <course>10.71</course>
  <speed>0.0</speed>
  <fix>3d</fix>
</trkpt>
<trkpt lat="-27.274439" lon="151.290064">
  <ele>343.21</ele>
  <time>2026-09-01T20:02:56Z</time>
  <course>10.71</course>
  <speed>0.0</speed>
  <fix>3d</fix>
</trkpt>
<trkpt lat="-27.274439" lon="151.290064">
  <ele>343.12</ele>
  <time>2026-09-01T20:02:56Z</time>
  <course>7.93</course>
  <speed>0.0</speed>
  <fix>3d</fix>
</trkpt>
<trkpt lat="-27.274439" lon="151.290064">
  <ele>343.21</ele>
  <time>2026-09-01T20:02:56Z</time>
  <course>10.71</course>
  <speed>0.0</speed>
  <fix>3d</fix>
</trkpt>
<trkpt lat="-27.274439" lon="151.290064">
  <ele>343.31</ele>
  <time>2026-09-01T20:02:56Z</time>
  <course>10.71</course>
  <speed>0.03</speed>
  <fix>3d</fix>
</trkpt>
<trkpt lat="-27.274439" lon="151.290064">
  <ele>343.19</ele>
  <time>2026-09-01T20:02:56Z</time>
  <course>7.25</course>
  <speed>0.0</speed>
  <fix>3d</fix>
</trkpt>
<trkpt lat="-27.274439" lon="151.290064">
  <ele>343.32</ele>
  <time>2026-09-01T20:02:56Z</time>
  <course>10.71</course>
  <speed>0.03</speed>
  <fix>3d</fix>
</trkpt>
<trkpt lat="-27.274439" lon="151.290064">
  <ele>343.49</ele>
  <time>2026-09-01T20:02:56Z</time>
  <course>10.71</course>
  <speed>0.06082762530298219</speed>
  <fix>3d</fix>
</trkpt>
<trkpt lat="-27.274439" lon="151.290064">
  <ele>343.19</ele>
  <time>2026-09-01T20:02:56Z</time>
  <course>7.25</course>
  <speed>0.0</speed>
  <fix>3d</fix>
</trkpt>
<trkpt lat="-27.274439" lon="151.290064">
  <ele>343.54</ele>
  <time>2026-09-01T20:02:56Z</time>
  <course>10.71</course>
  <speed>0.07071067811865475</speed>
  <fix>3d</fix>
</trkpt>
<trkpt lat="-27.2744389" lon="151.290064">
  <ele>343.7</ele>
  <time>2026-09-01T20:02:56Z</time>
  <course>10.71</course>
  <speed>0.09055385138137417</speed>
  <fix>3d</fix>
</trkpt>
<trkpt lat="-27.274439" lon="151.290064">
  <ele>343.38</ele>
  <time>2026-09-01T20:02:56Z</time>
  <course>6.88</course>
  <speed>0.03</speed>
  <fix>3d</fix>
</trkpt>
<trkpt lat="-27.2744389" lon="151.290064">
  <ele>343.76</ele>
  <time>2026-09-01T20:02:56Z</time>
  <course>10.71</course>
  <speed>0.1019803902718557</speed>
  <fix>3d</fix>
</trkpt>
<trkpt lat="-27.2744388" lon="151.290064">
  <ele>343.93</ele>
  <time>2026-09-01T20:02:56Z</time>
  <course>10.71</course>
  <speed>0.13152946437965907</speed>
  <fix>3d</fix>
</trkpt>
<trkpt lat="-27.274439" lon="151.290064">
  <ele>343.38</ele>
  <time>2026-09-01T20:02:56Z</time>
  <course>6.88</course>
  <speed>0.03</speed>
  <fix>3d</fix>
</trkpt>
<trkpt lat="-27.2744388" lon="151.290064">
  <ele>343.98</ele>
  <time>2026-09-01T20:02:56Z</time>
  <course>10.71</course>
  <speed>0.13152946437965907</speed>
  <fix>3d</fix>
</trkpt>
<trkpt lat="-27.2744387" lon="151.290064">
  <ele>344.16</ele>
  <time>2026-09-01T20:02:56Z</time>
  <course>10.71</course>
  <speed>0.15132745950421556</speed>
  <fix>3d</fix>
</trkpt>
<trkpt lat="-27.2744389" lon="151.290064">
  <ele>343.74</ele>
  <time>2026-09-01T20:02:56Z</time>
  <course>6.93</course>
  <speed>0.09</speed>
  <fix>3d</fix>
</trkpt>
<trkpt lat="-27.2744387" lon="151.290064">
  <ele>344.21</ele>
  <time>2026-09-01T20:02:56Z</time>
  <course>10.7</course>
  <speed>0.16124515496597097</speed>
  <fix>3d</fix>
</trkpt>
<trkpt lat="-27.2744385" lon="151.290064">
  <ele>344.38</ele>
  <time>2026-09-01T20:02:56Z</time>
  <course>10.7</course>
  <speed>0.1824828759089466</speed>
  <fix>3d</fix>
</trkpt>
<trkpt lat="-27.2744389" lon="151.290064">
  <ele>343.74</ele>
  <time>2026-09-01T20:02:56Z</time>
  <course>6.93</course>
  <speed>0.09</speed>
  <fix>3d</fix>
</trkpt>
<trkpt lat="-27.2744385" lon="151.2900641">
  <ele>344.44</ele>
  <time>2026-09-01T20:02:56Z</time>
  <course>10.7</course>
  <speed>0.1824828759089466</speed>
  <fix>3d</fix>
</trkpt>
<trkpt lat="-27.2744384" lon="151.2900641">
  <ele>344.61</ele>
  <time>2026-09-01T20:02:56Z</time>
  <course>10.69</course>
  <speed>0.20223748416156684</speed>
  <fix>3d</fix>
</trkpt>
<trkpt lat="-27.2744387" lon="151.290064">
  <ele>344.2</ele>
  <time>2026-09-01T20:02:56Z</time>
  <course>7.01</course>
  <speed>0.16</speed>
  <fix>3d</fix>
</trkpt>
<trkpt lat="-27.2744383" lon="151.2900641">
  <ele>344.67</ele>
  <time>2026-09-01T20:02:56Z</time>
  <course>10.69</course>
  <speed>0.20223748416156684</speed>
  <fix>3d</fix>
</trkpt>
<trkpt lat="-27.2744382" lon="151.2900641">
  <ele>344.84</ele>
  <time>2026-09-01T20:02:56Z</time>
  <course>10.69</course>
  <speed>0.2220360331117452</speed>
  <fix>3d</fix>
</trkpt>
<trkpt lat="-27.2744387" lon="151.290064">
  <ele>344.2</ele>
  <time>2026-09-01T20:02:56Z</time>
  <course>7.01</course>
  <speed>0.16</speed>
  <fix>3d</fix>
</trkpt>
<trkpt lat="-27.2744381" lon="151.2900641">
  <ele>344.9</ele>
  <time>2026-09-01T20:02:56Z</time>
  <course>10.68</course>
  <speed>0.2220360331117452</speed>
  <fix>3d</fix>
</trkpt>
<trkpt lat="-27.274438" lon="151.2900641">
  <ele>345.07</ele>
  <time>2026-09-01T20:02:56Z</time>
  <course>10.66</course>
  <speed>0.23194827009486402</speed>
  <fix>3d</fix>
</trkpt>
<trkpt lat="-27.2744384" lon="151.290064">
  <ele>344.66</ele>
  <time>2026-09-01T20:02:56Z</time>
  <course>7.08</course>
  <speed>0.2</speed>
  <fix>3d</fix>
</trkpt>
<trkpt lat="-27.2744379" lon="151.2900641">
  <ele>345.13</ele>
  <time>2026-09-01T20:02:56Z</time>
  <course>10.66</course>
  <speed>0.23194827009486402</speed>
  <fix>3d</fix>
</trkpt>
<trkpt lat="-27.2744378" lon="151.2900642">
  <ele>345.29</ele>
  <time>2026-09-01T20:02:56Z</time>
  <course>10.66</course>
  <speed>0.24331050121192876</speed>
  <fix>3d</fix>
</trkpt>
<trkpt lat="-27.2744384" lon="151.290064">
  <ele>344.66</ele>
  <time>2026-09-01T20:02:56Z</time>
  <course>7.08</course>
  <speed>0.2</speed>
  <fix>3d</fix>
</trkpt>
<trkpt lat="-27.2744377" lon="151.2900642">
  <ele>345.35</ele>
  <time>2026-09-01T20:02:56Z</time>
  <course>10.66</course>
  <speed>0.24331050121192876</speed>
  <fix>3d</fix>
</trkpt>
<trkpt lat="-27.2744376" lon="151.2900642">
  <ele>345.51</ele>
  <time>2026-09-01T20:02:56Z</time>
  <course>10.66</course>
  <speed>0.24331050121192876</speed>
  <fix>3d</fix>
</trkpt>
<trkpt lat="-27.2744379" lon="151.2900641">
  <ele>345.12</ele>
  <time>2026-09-01T20:02:56Z</time>
  <course>7.16</course>
  <speed>0.24</speed>
  <fix>3d</fix>
</trkpt>
<trkpt lat="-27.2744376" lon="151.2900642">
  <ele>345.52</ele>
  <time>2026-09-01T20:02:56Z</time>
  <course>10.66</course>
  <speed>0.24331050121192876</speed>
  <fix>3d</fix>
</trkpt>
<trkpt lat="-27.2744373" lon="151.2900642">
  <ele>345.72</ele>
  <time>2026-09-01T20:02:56Z</time>
  <course>10.66</course>
  <speed>0.24331050121192876</speed>
  <fix>3d</fix>
</trkpt>
<trkpt lat="-27.2744379" lon="151.2900641">
  <ele>345.12</ele>
  <time>2026-09-01T20:02:56Z</time>
  <course>7.16</course>
  <speed>0.24</speed>
  <fix>3d</fix>
</trkpt>
<trkpt lat="-27.2744373" lon="151.2900642">
  <ele>345.73</ele>
  <time>2026-09-01T20:02:56Z</time>
  <course>10.66</course>
  <speed>0.24331050121192876</speed>
  <fix>3d</fix>
</trkpt>
<trkpt lat="-27.2744371" lon="151.2900642">
  <ele>345.92</ele>
  <time>2026-09-01T20:02:56Z</time>
  <course>10.65</course>
  <speed>0.24186773244895649</speed>
  <fix>3d</fix>
</trkpt>
<trkpt lat="-27.2744375" lon="151.2900641">
  <ele>345.56</ele>
  <time>2026-09-01T20:02:56Z</time>
  <course>7.26</course>
  <speed>0.25</speed>
  <fix>3d</fix>
</trkpt>
<trkpt lat="-27.2744371" lon="151.2900642">
  <ele>345.97</ele>
  <time>2026-09-01T20:02:56Z</time>
  <course>10.65</course>
  <speed>0.24186773244895649</speed>
  <fix>3d</fix>
</trkpt>
<trkpt lat="-27.2744369" lon="151.2900643">
  <ele>346.1</ele>
  <time>2026-09-01T20:02:56Z</time>
  <course>10.66</course>
  <speed>0.23194827009486402</speed>
  <fix>3d</fix>
</trkpt>
<trkpt lat="-27.2744375" lon="151.2900641">
  <ele>345.56</ele>
  <time>2026-09-01T20:02:56Z</time>
  <course>7.26</course>
  <speed>0.25</speed>
  <fix>3d</fix>
</trkpt>
<trkpt lat="-27.2744368" lon="151.2900643">
  <ele>346.15</ele>
  <time>2026-09-01T20:02:56Z</time>
  <course>10.66</course>
  <speed>0.23194827009486402</speed>
  <fix>3d</fix>
</trkpt>
<trkpt lat="-27.2744367" lon="151.2900643">
  <ele>346.28</ele>
  <time>2026-09-01T20:02:56Z</time>
  <course>10.66</course>
  <speed>0.2220360331117452</speed>
  <fix>3d</fix>
</trkpt>
<trkpt lat="-27.2744371" lon="151.2900642">
  <ele>345.95</ele>
  <time>2026-09-01T20:02:56Z</time>
  <course>7.43</course>
  <speed>0.25</speed>
  <fix>3d</fix>
</trkpt>
<trkpt lat="-27.2744366" lon="151.2900643">
  <ele>346.33</ele>
  <time>2026-09-01T20:02:56Z</time>
  <course>10.66</course>
  <speed>0.2220360331117452</speed>
  <fix>3d</fix>
</trkpt>
<trkpt lat="-27.2744365" lon="151.2900643">
  <ele>346.45</ele>
  <time>2026-09-01T20:02:56Z</time>
  <course>10.66</course>
  <speed>0.20223748416156684</speed>
  <fix>3d</fix>
</trkpt>
<trkpt lat="-27.2744371" lon="151.2900642">
  <ele>345.95</ele>
  <time>2026-09-01T20:02:56Z</time>
  <course>7.43</course>
  <speed>0.25</speed>
  <fix>3d</fix>
</trkpt>
<trkpt lat="-27.2744365" lon="151.2900643">
  <ele>346.49</ele>
  <time>2026-09-01T20:02:56Z</time>
  <course>10.66</course>
  <speed>0.20223748416156684</speed>
  <fix>3d</fix>
</trkpt>
<trkpt lat="-27.2744363" lon="151.2900643">
  <ele>346.61</ele>
  <time>2026-09-01T20:02:56Z</time>
  <course>10.66</course>
  <speed>0.191049731745428</speed>
  <fix>3d</fix>
</trkpt>
<trkpt lat="-27.2744367" lon="151.2900642">
  <ele>346.31</ele>
  <time>2026-09-01T20:02:56Z</time>
  <course>7.66</course>
  <speed>0.23</speed>
  <fix>3d</fix>
</trkpt>
<trkpt lat="-27.2744363" lon="151.2900643">
  <ele>346.65</ele>
  <time>2026-09-01T20:02:56Z</time>
  <course>10.66</course>
  <speed>0.18110770276274835</speed>
  <fix>3d</fix>
</trkpt>
<trkpt lat="-27.2744362" lon="151.2900643">
  <ele>346.76</ele>
  <time>2026-09-01T20:02:56Z</time>
  <course>10.67</course>
  <speed>0.1711724276862369</speed>
  <fix>3d</fix>
</trkpt>
<trkpt lat="-27.2744367" lon="151.2900642">
  <ele>346.31</ele>
  <time>2026-09-01T20:02:56Z</time>
  <course>7.66</course>
  <speed>0.23</speed>
  <fix>3d</fix>
</trkpt>
<trkpt lat="-27.2744361" lon="151.2900643">
  <ele>346.79</ele>
  <time>2026-09-01T20:02:56Z</time>
  <course>10.67</course>
  <speed>0.16124515496597097</speed>
  <fix>3d</fix>
</trkpt>
<trkpt lat="-27.274436" lon="151.2900644">
  <ele>346.9</ele>
  <time>2026-09-01T20:02:56Z</time>
  <course>10.68</course>
  <speed>0.15132745950421556</speed>
  <fix>3d</fix>
</trkpt>
<trkpt lat="-27.2744363" lon="151.2900643">
  <ele>346.64</ele>
  <time>2026-09-01T20:02:56Z</time>
  <course>8.01</course>
  <speed>0.2</speed>
  <fix>3d</fix>
</trkpt>
<trkpt lat="-27.274436" lon="151.2900644">
  <ele>346.94</ele>
  <time>2026-09-01T20:02:56Z</time>
  <course>10.68</course>
  <speed>0.1414213562373095</speed>
  <fix>3d</fix>
</trkpt>
<trkpt lat="-27.2744359" lon="151.2900644">
  <ele>347.04</ele>
  <time>2026-09-01T20:02:56Z</time>
  <course>10.68</course>
  <speed>0.130384048104053</speed>
  <fix>3d</fix>
</trkpt>
<trkpt lat="-27.2744363" lon="151.2900643">
  <ele>346.64</ele>
  <time>2026-09-01T20:02:56Z</time>
  <course>8.01</course>
  <speed>0.2</speed>
  <fix>3d</fix>
</trkpt>
<trkpt lat="-27.2744359" lon="151.2900644">
  <ele>347.08</ele>
  <time>2026-09-01T20:02:56Z</time>
  <course>10.68</course>
  <speed>0.12041594578792296</speed>
  <fix>3d</fix>
</trkpt>
<trkpt lat="-27.2744358" lon="151.2900644">
  <ele>347.18</ele>
  <time>2026-09-01T20:02:56Z</time>
  <course>10.69</course>
  <speed>0.1004987562112089</speed>
  <fix>3d</fix>
</trkpt>
<trkpt lat="-27.2744359" lon="151.2900644">
  <ele>346.93</ele>
  <time>2026-09-01T20:02:56Z</time>
  <course>8.72</course>
  <speed>0.16</speed>
  <fix>3d</fix>
</trkpt>
<trkpt lat="-27.2744358" lon="151.2900644">
  <ele>347.19</ele>
  <time>2026-09-01T20:02:56Z</time>
  <course>10.69</course>
  <speed>0.1004987562112089</speed>
  <fix>3d</fix>
</trkpt>
<trkpt lat="-27.2744357" lon="151.2900644">
  <ele>347.32</ele>
  <time>2026-09-01T20:02:56Z</time>
  <course>10.7</course>
  <speed>0.08062257748298549</speed>
  <fix>3d</fix>
</trkpt>
<trkpt lat="-27.2744359" lon="151.2900644">
  <ele>346.93</ele>
  <time>2026-09-01T20:02:56Z</time>
  <course>8.72</course>
  <speed>0.16</speed>
  <fix>3d</fix>
</trkpt>
<trkpt lat="-27.2744357" lon="151.2900644">
  <ele>347.32</ele>
  <time>2026-09-01T20:02:56Z</time>
  <course>10.7</course>
  <speed>0.08062257748298549</speed>
  <fix>3d</fix>
</trkpt>
<trkpt lat="-27.2744356" lon="151.2900644">
  <ele>347.45</ele>
  <time>2026-09-01T20:02:56Z</time>
  <course>10.71</course>
  <speed>0.06</speed>
  <fix>3d</fix>
</trkpt>
<trkpt lat="-27.2744357" lon="151.2900644">
  <ele>347.2</ele>
  <time>2026-09-01T20:02:56Z</time>
  <course>10.18</course>
  <speed>0.12</speed>
  <fix>3d</fix>
</trkpt>
<trkpt lat="-27.2744356" lon="151.2900644">
  <ele>347.46</ele>
  <time>2026-09-01T20:02:56Z</time>
  <course>10.71</course>
  <speed>0.06</speed>
  <fix>3d</fix>
</trkpt>
<trkpt lat="-27.2744355" lon="151.2900644">
  <ele>347.59</ele>
  <time>2026-09-01T20:02:56Z</time>
  <course>10.72</course>
  <speed>0.04</speed>
  <fix>3d</fix>
</trkpt>
<trkpt lat="-27.2744357" lon="151.2900644">
  <ele>347.2</ele>
  <time>2026-09-01T20:02:56Z</time>
  <course>10.18</course>
  <speed>0.12</speed>
  <fix>3d</fix>
</trkpt>
<trkpt lat="-27.2744355" lon="151.2900644">
  <ele>347.62</ele>
  <time>2026-09-01T20:02:56Z</time>
  <course>10.72</course>
  <speed>0.03</speed>
  <fix>3d</fix>
</trkpt>
<trkpt lat="-27.2744355" lon="151.2900644">
  <ele>347.72</ele>
  <time>2026-09-01T20:02:57Z</time>
  <course>10.73</course>
  <speed>0.02</speed>
  <fix>3d</fix>
</trkpt>
<trkpt lat="-27.2744355" lon="151.2900645">
  <ele>347.46</ele>
  <time>2026-09-01T20:02:57Z</time>
  <course>13.33</course>
  <speed>0.07</speed>
  <fix>3d</fix>
</trkpt>
<trkpt lat="-27.2744355" lon="151.2900644">
  <ele>347.75</ele>
  <time>2026-09-01T20:02:57Z</time>
  <course>10.73</course>
  <speed>0.01</speed>
  <fix>3d</fix>
</trkpt>
<trkpt lat="-27.2744355" lon="151.2900644">
  <ele>347.85</ele>
  <time>2026-09-01T20:02:57Z</time>
  <course>10.74</course>
  <speed>0.0</speed>
  <fix>3d</fix>
</trkpt>
<trkpt lat="-27.2744355" lon="151.2900645">
  <ele>347.46</ele>
  <time>2026-09-01T20:02:57Z</time>
  <course>13.33</course>
  <speed>0.07</speed>
  <fix>3d</fix>
</trkpt>
<trkpt lat="-27.2744355" lon="151.2900644">
  <ele>347.88</ele>
  <time>2026-09-01T20:02:57Z</time>
  <course>10.75</course>
  <speed>0.0</speed>
  <fix>3d</fix>
</trkpt>
<trkpt lat="-27.2744355" lon="151.2900644">
  <ele>347.98</ele>
  <time>2026-09-01T20:02:57Z</time>
  <course>10.77</course>
  <speed>0.01</speed>
  <fix>3d</fix>
</trkpt>
<trkpt lat="-27.2744354" lon="151.2900645">
  <ele>347.72</ele>
  <time>2026-09-01T20:02:57Z</time>
  <course>24.05</course>
  <speed>0.03</speed>
  <fix>3d</fix>
</trkpt>
<trkpt lat="-27.2744355" lon="151.2900644">
  <ele>348.02</ele>
  <time>2026-09-01T20:02:57Z</time>
  <course>10.78</course>
  <speed>0.02</speed>
  <fix>3d</fix>
</trkpt>
<trkpt lat="-27.2744355" lon="151.2900645">
  <ele>348.11</ele>
  <time>2026-09-01T20:02:57Z</time>
  <course>10.8</course>
  <speed>0.03</speed>
  <fix>3d</fix>
</trkpt>
<trkpt lat="-27.2744354" lon="151.2900645">
  <ele>347.72</ele>
  <time>2026-09-01T20:02:57Z</time>
  <course>24.05</course>
  <speed>0.03</speed>
  <fix>3d</fix>
</trkpt>
<trkpt lat="-27.2744355" lon="151.2900645">
  <ele>348.15</ele>
  <time>2026-09-01T20:02:57Z</time>
  <course>10.82</course>
  <speed>0.03</speed>
  <fix>3d</fix>
</trkpt>
<trkpt lat="-27.2744355" lon="151.2900645">
  <ele>348.25</ele>
  <time>2026-09-01T20:02:57Z</time>
  <course>10.88</course>
  <speed>0.0412310562561766</speed>
  <fix>3d</fix>
</trkpt>
<trkpt lat="-27.2744354" lon="151.2900645">
  <ele>347.97</ele>
  <time>2026-09-01T20:02:57Z</time>
  <course>148.7</course>
  <speed>0.01</speed>
  <fix>3d</fix>
</trkpt>
<trkpt lat="-27.2744355" lon="151.2900645">
  <ele>348.28</ele>
  <time>2026-09-01T20:02:57Z</time>
  <course>10.91</course>
  <speed>0.05099019513592785</speed>
  <fix>3d</fix>
</trkpt>
<trkpt lat="-27.2744355" lon="151.2900645">
  <ele>348.38</ele>
  <time>2026-09-01T20:02:57Z</time>
  <course>10.99</course>
  <speed>0.06082762530298219</speed>
  <fix>3d</fix>
</trkpt>
<trkpt lat="-27.2744354" lon="151.2900645">
  <ele>347.97</ele>
  <time>2026-09-01T20:02:57Z</time>
  <course>148.7</course>
  <speed>0.01</speed>
  <fix>3d</fix>
</trkpt>
<trkpt lat="-27.2744355" lon="151.2900645">
  <ele>348.42</ele>
  <time>2026-09-01T20:02:57Z</time>
  <course>11.01</course>
  <speed>0.06082762530298219</speed>
  <fix>3d</fix>
</trkpt>
<trkpt lat="-27.2744355" lon="151.2900645">
  <ele>348.52</ele>
  <time>2026-09-01T20:02:57Z</time>
  <course>11.04</course>
  <speed>0.07071067811865475</speed>
  <fix>3d</fix>
</trkpt>
<trkpt lat="-27.2744354" lon="151.2900645">
  <ele>348.24</ele>
  <time>2026-09-01T20:02:57Z</time>
  <course>181.47</course>
  <speed>0.04</speed>
  <fix>3d</fix>
</trkpt>
<trkpt lat="-27.2744355" lon="151.2900645">
  <ele>348.56</ele>
  <time>2026-09-01T20:02:57Z</time>
  <course>11.04</course>
  <speed>0.08062257748298549</speed>
  <fix>3d</fix>
</trkpt>
<trkpt lat="-27.2744356" lon="151.2900645">
  <ele>348.66</ele>
  <time>2026-09-01T20:02:57Z</time>
  <course>11.05</course>
  <speed>0.08062257748298549</speed>
  <fix>3d</fix>
</trkpt>
<trkpt lat="-27.2744354" lon="151.2900645">
  <ele>348.24</ele>
  <time>2026-09-01T20:02:57Z</time>
  <course>181.47</course>
  <speed>0.04</speed>
  <fix>3d</fix>
</trkpt>
<trkpt lat="-27.2744356" lon="151.2900645">
  <ele>348.7</ele>
  <time>2026-09-01T20:02:57Z</time>
  <course>11.05</course>
  <speed>0.09055385138137417</speed>
  <fix>3d</fix>
</trkpt>
<trkpt lat="-27.2744357" lon="151.2900645">
  <ele>348.81</ele>
  <time>2026-09-01T20:02:57Z</time>
  <course>11.02</course>
  <speed>0.09055385138137417</speed>
  <fix>3d</fix>
</trkpt>
<trkpt lat="-27.2744355" lon="151.2900645">
  <ele>348.52</ele>
  <time>2026-09-01T20:02:57Z</time>
  <course>186.26</course>
  <speed>0.07</speed>
  <fix>3d</fix>
</trkpt>
<trkpt lat="-27.2744357" lon="151.2900645">
  <ele>348.81</ele>
  <time>2026-09-01T20:02:57Z</time>
  <course>11.02</course>
  <speed>0.09055385138137417</speed>
  <fix>3d</fix>
</trkpt>
<trkpt lat="-27.2744358" lon="151.2900645">
  <ele>348.95</ele>
  <time>2026-09-01T20:02:57Z</time>
  <course>10.98</course>
  <speed>0.1004987562112089</speed>
  <fix>3d</fix>
</trkpt>
<trkpt lat="-27.2744355" lon="151.2900645">
  <ele>348.52</ele>
  <time>2026-09-01T20:02:57Z</time>
  <course>186.26</course>
  <speed>0.07</speed>
  <fix>3d</fix>
</trkpt>
<trkpt lat="-27.2744358" lon="151.2900645">
  <ele>348.99</ele>
  <time>2026-09-01T20:02:57Z</time>
  <course>10.97</course>
  <speed>0.1004987562112089</speed>
  <fix>3d</fix>
</trkpt>
<trkpt lat="-27.2744358" lon="151.2900645">
  <ele>349.09</ele>
  <time>2026-09-01T20:02:57Z</time>
  <course>10.93</course>
  <speed>0.11045361017187261</speed>
  <fix>3d</fix>
</trkpt>
<trkpt lat="-27.2744355" lon="151.2900645">
  <ele>348.8</ele>
  <time>2026-09-01T20:02:57Z</time>
  <course>186.64</course>
  <speed>0.09</speed>
  <fix>3d</fix>
</trkpt>
<trkpt lat="-27.2744359" lon="151.2900645">
  <ele>349.13</ele>
  <time>2026-09-01T20:02:57Z</time>
  <course>10.92</course>
  <speed>0.11045361017187261</speed>
  <fix>3d</fix>
</trkpt>
<trkpt lat="-27.2744359" lon="151.2900645">
  <ele>349.23</ele>
  <time>2026-09-01T20:02:57Z</time>
  <course>10.89</course>
  <speed>0.1118033988749895</speed>
  <fix>3d</fix>
</trkpt>
<trkpt lat="-27.2744355" lon="151.2900645">
  <ele>348.8</ele>
  <time>2026-09-01T20:02:57Z</time>
  <course>186.64</course>
  <speed>0.09</speed>
  <fix>3d</fix>
</trkpt>
<trkpt lat="-27.2744359" lon="151.2900645">
  <ele>349.27</ele>
  <time>2026-09-01T20:02:57Z</time>
  <course>10.89</course>
  <speed>0.1118033988749895</speed>
  <fix>3d</fix>
</trkpt>
<trkpt lat="-27.274436" lon="151.2900644">
  <ele>349.38</ele>
  <time>2026-09-01T20:02:57Z</time>
  <course>10.87</course>
  <speed>0.12041594578792296</speed>
  <fix>3d</fix>
</trkpt>
<trkpt lat="-27.2744358" lon="151.2900645">
  <ele>349.08</ele>
  <time>2026-09-01T20:02:57Z</time>
  <course>186.74</course>
  <speed>0.11</speed>
  <fix>3d</fix>
</trkpt>
<trkpt lat="-27.274436" lon="151.2900644">
  <ele>349.41</ele>
  <time>2026-09-01T20:02:57Z</time>
  <course>10.87</course>
  <speed>0.12165525060596438</speed>
  <fix>3d</fix>
</trkpt>
<trkpt lat="-27.2744361" lon="151.2900644">
  <ele>349.52</ele>
  <time>2026-09-01T20:02:57Z</time>
  <course>10.85</course>
  <speed>0.12041594578792296</speed>
  <fix>3d</fix>
</trkpt>
<trkpt lat="-27.2744358" lon="151.2900645">
  <ele>349.08</ele>
  <time>2026-09-01T20:02:57Z</time>
  <course>186.74</course>
  <speed>0.11</speed>
  <fix>3d</fix>
</trkpt>
<trkpt lat="-27.2744361" lon="151.2900644">
  <ele>349.56</ele>
  <time>2026-09-01T20:02:57Z</time>
  <course>10.85</course>
  <speed>0.12165525060596438</speed>
  <fix>3d</fix>
</trkpt>
<trkpt lat="-27.2744362" lon="151.2900644">
  <ele>349.67</ele>
  <time>2026-09-01T20:02:57Z</time>
  <course>10.83</course>
  <speed>0.12165525060596438</speed>
  <fix>3d</fix>
</trkpt>
<trkpt lat="-27.274436" lon="151.2900645">
  <ele>349.37</ele>
  <time>2026-09-01T20:02:57Z</time>
  <course>187.1</course>
  <speed>0.12</speed>
  <fix>3d</fix>
</trkpt>
<trkpt lat="-27.2744363" lon="151.2900644">
  <ele>349.7</ele>
  <time>2026-09-01T20:02:57Z</time>
  <course>10.83</course>
  <speed>0.13152946437965907</speed>
  <fix>3d</fix>
</trkpt>
<trkpt lat="-27.2744363" lon="151.2900644">
  <ele>349.81</ele>
  <time>2026-09-01T20:02:57Z</time>
  <course>10.81</course>
  <speed>0.13152946437965907</speed>
  <fix>3d</fix>
</trkpt>
<trkpt lat="-27.274436" lon="151.2900645">
  <ele>349.37</ele>
  <time>2026-09-01T20:02:57Z</time>
  <course>187.1</course>
  <speed>0.12</speed>
  <fix>3d</fix>
</trkpt>
<trkpt lat="-27.2744364" lon="151.2900644">
  <ele>349.84</ele>
  <time>2026-09-01T20:02:57Z</time>
  <course>10.81</course>
  <speed>0.130384048104053</speed>
  <fix>3d</fix>
</trkpt>
<trkpt lat="-27.2744365" lon="151.2900644">
  <ele>349.95</ele>
  <time>2026-09-01T20:02:57Z</time>
  <course>10.79</course>
  <speed>0.13152946437965907</speed>
  <fix>3d</fix>
</trkpt>
<trkpt lat="-27.2744363" lon="151.2900645">
  <ele>349.66</ele>
  <time>2026-09-01T20:02:57Z</time>
  <course>187.29</course>
  <speed>0.13</speed>
  <fix>3d</fix>
</trkpt>
<trkpt lat="-27.2744365" lon="151.2900644">
  <ele>349.99</ele>
  <time>2026-09-01T20:02:57Z</time>
  <course>10.79</course>
  <speed>0.13152946437965907</speed>
  <fix>3d</fix>
</trkpt>
<trkpt lat="-27.2744366" lon="151.2900644">
  <ele>350.1</ele>
  <time>2026-09-01T20:02:57Z</time>
  <course>10.78</course>
  <speed>0.130384048104053</speed>
  <fix>3d</fix>
</trkpt>
<trkpt lat="-27.2744363" lon="151.2900645">
  <ele>349.66</ele>
  <time>2026-09-01T20:02:57Z</time>
  <course>187.29</course>
  <speed>0.13</speed>
  <fix>3d</fix>
</trkpt>
<trkpt lat="-27.2744366" lon="151.2900644">
  <ele>350.13</ele>
  <time>2026-09-01T20:02:57Z</time>
  <course>10.78</course>
  <speed>0.130384048104053</speed>
  <fix>3d</fix>
</trkpt>
<trkpt lat="-27.2744367" lon="151.2900644">
  <ele>350.25</ele>
  <time>2026-09-01T20:02:57Z</time>
  <course>10.78</course>
  <speed>0.130384048104053</speed>
  <fix>3d</fix>
</trkpt>
<trkpt lat="-27.2744365" lon="151.2900645">
  <ele>349.96</ele>
  <time>2026-09-01T20:02:57Z</time>
  <course>187.4</course>
  <speed>0.14</speed>
  <fix>3d</fix>
</trkpt>
<trkpt lat="-27.2744367" lon="151.2900644">
  <ele>350.29</ele>
  <time>2026-09-01T20:02:57Z</time>
  <course>10.78</course>
  <speed>0.130384048104053</speed>
  <fix>3d</fix>
</trkpt>
<trkpt lat="-27.2744368" lon="151.2900644">
  <ele>350.4</ele>
  <time>2026-09-01T20:02:57Z</time>
  <course>10.77</course>
  <speed>0.130384048104053</speed>
  <fix>3d</fix>
</trkpt>
<trkpt lat="-27.2744365" lon="151.2900645">
  <ele>349.96</ele>
  <time>2026-09-01T20:02:57Z</time>
  <course>187.4</course>
  <speed>0.14</speed>
  <fix>3d</fix>
</trkpt>
<trkpt lat="-27.2744368" lon="151.2900644">
  <ele>350.4</ele>
  <time>2026-09-01T20:02:57Z</time>
  <course>10.77</course>
  <speed>0.130384048104053</speed>
  <fix>3d</fix>
</trkpt>
<trkpt lat="-27.2744369" lon="151.2900644">
  <ele>350.54</ele>
  <time>2026-09-01T20:02:57Z</time>
  <course>10.77</course>
  <speed>0.130384048104053</speed>
  <fix>3d</fix>
</trkpt>
<trkpt lat="-27.2744367" lon="151.2900644">
  <ele>350.25</ele>
  <time>2026-09-01T20:02:57Z</time>
  <course>187.53</course>
  <speed>0.14</speed>
  <fix>3d</fix>
</trkpt>
<trkpt lat="-27.274437" lon="151.2900644">
  <ele>350.55</ele>
  <time>2026-09-01T20:02:57Z</time>
  <course>10.77</course>
  <speed>0.130384048104053</speed>
  <fix>3d</fix>
</trkpt>
<trkpt lat="-27.2744371" lon="151.2900644">
  <ele>350.69</ele>
  <time>2026-09-01T20:02:57Z</time>
  <course>10.76</course>
  <speed>0.130384048104053</speed>
  <fix>3d</fix>
</trkpt>
<trkpt lat="-27.2744367" lon="151.2900644">
  <ele>350.25</ele>
  <time>2026-09-01T20:02:57Z</time>
  <course>187.53</course>
  <speed>0.14</speed>
  <fix>3d</fix>
</trkpt>
<trkpt lat="-27.2744371" lon="151.2900644">
  <ele>350.73</ele>
  <time>2026-09-01T20:02:57Z</time>
  <course>10.76</course>
  <speed>0.130384048104053</speed>
  <fix>3d</fix>
</trkpt>
<trkpt lat="-27.2744372" lon="151.2900644">
  <ele>350.84</ele>
  <time>2026-09-01T20:02:57Z</time>
  <course>10.75</course>
  <speed>0.130384048104053</speed>
  <fix>3d</fix>
</trkpt>
<trkpt lat="-27.274437" lon="151.2900644">
  <ele>350.54</ele>
  <time>2026-09-01T20:02:57Z</time>
  <course>187.65</course>
  <speed>0.14</speed>
  <fix>3d</fix>
</trkpt>
<trkpt lat="-27.2744372" lon="151.2900644">
  <ele>350.89</ele>
  <time>2026-09-01T20:02:57Z</time>
  <course>10.75</course>
  <speed>0.130384048104053</speed>
  <fix>3d</fix>
</trkpt>
<trkpt lat="-27.2744373" lon="151.2900644">
  <ele>350.99</ele>
  <time>2026-09-01T20:02:57Z</time>
  <course>10.74</course>
  <speed>0.130384048104053</speed>
  <fix>3d</fix>
</trkpt>
<trkpt lat="-27.274437" lon="151.2900644">
  <ele>350.54</ele>
  <time>2026-09-01T20:02:57Z</time>
  <course>187.65</course>
  <speed>0.14</speed>
  <fix>3d</fix>
</trkpt>
<trkpt lat="-27.2744374" lon="151.2900644">
  <ele>351.03</ele>
  <time>2026-09-01T20:02:57Z</time>
  <course>10.74</course>
  <speed>0.13</speed>
  <fix>3d</fix>
</trkpt>
<trkpt lat="-27.2744374" lon="151.2900644">
  <ele>351.14</ele>
  <time>2026-09-01T20:02:57Z</time>
  <course>10.73</course>
  <speed>0.130384048104053</speed>
  <fix>3d</fix>
</trkpt>
<trkpt lat="-27.2744373" lon="151.2900644">
  <ele>350.84</ele>
  <time>2026-09-01T20:02:57Z</time>
  <course>187.83</course>
  <speed>0.14</speed>
  <fix>3d</fix>
</trkpt>
<trkpt lat="-27.2744375" lon="151.2900643">
  <ele>351.17</ele>
  <time>2026-09-01T20:02:57Z</time>
  <course>10.73</course>
  <speed>0.130384048104053</speed>
  <fix>3d</fix>
</trkpt>
<trkpt lat="-27.2744376" lon="151.2900643">
  <ele>351.28</ele>
  <time>2026-09-01T20:02:57Z</time>
  <course>10.71</course>
  <speed>0.13</speed>
  <fix>3d</fix>
</trkpt>
<trkpt lat="-27.2744373" lon="151.2900644">
  <ele>350.84</ele>
  <time>2026-09-01T20:02:57Z</time>
  <course>187.83</course>
  <speed>0.14</speed>
  <fix>3d</fix>
</trkpt>
<trkpt lat="-27.2744376" lon="151.2900643">
  <ele>351.28</ele>
  <time>2026-09-01T20:02:57Z</time>
  <course>10.71</course>
  <speed>0.13</speed>
  <fix>3d</fix>
</trkpt>
<trkpt lat="-27.2744377" lon="151.2900643">
  <ele>351.42</ele>
  <time>2026-09-01T20:02:57Z</time>
  <course>10.67</course>
  <speed>0.13</speed>
  <fix>3d</fix>
</trkpt>
<trkpt lat="-27.2744375" lon="151.2900643">
  <ele>351.13</ele>
  <time>2026-09-01T20:02:57Z</time>
  <course>188.19</course>
  <speed>0.14</speed>
  <fix>3d</fix>
</trkpt>
<trkpt lat="-27.2744377" lon="151.2900643">
  <ele>351.43</ele>
  <time>2026-09-01T20:02:57Z</time>
  <course>10.67</course>
  <speed>0.13</speed>
  <fix>3d</fix>
</trkpt>
<trkpt lat="-27.2744378" lon="151.2900643">
  <ele>351.56</ele>
  <time>2026-09-01T20:02:57Z</time>
  <course>10.63</course>
  <speed>0.13</speed>
  <fix>3d</fix>
</trkpt>
<trkpt lat="-27.2744375" lon="151.2900643">
  <ele>351.13</ele>
  <time>2026-09-01T20:02:57Z</time>
  <course>188.19</course>
  <speed>0.14</speed>
  <fix>3d</fix>
</trkpt>
<trkpt lat="-27.2744378" lon="151.2900643">
  <ele>351.57</ele>
  <time>2026-09-01T20:02:57Z</time>
  <course>10.63</course>
  <speed>0.13</speed>
  <fix>3d</fix>
</trkpt>
<trkpt lat="-27.2744379" lon="151.2900643">
  <ele>351.71</ele>
  <time>2026-09-01T20:02:57Z</time>
  <course>10.59</course>
  <speed>0.13</speed>
  <fix>3d</fix>
</trkpt>
<trkpt lat="-27.2744378" lon="151.2900642">
  <ele>351.41</ele>
  <time>2026-09-01T20:02:57Z</time>
  <course>188.49</course>
  <speed>0.13</speed>
  <fix>3d</fix>
</trkpt>
<trkpt lat="-27.274438" lon="151.2900643">
  <ele>351.75</ele>
  <time>2026-09-01T20:02:57Z</time>
  <course>10.58</course>
  <speed>0.12</speed>
  <fix>3d</fix>
</trkpt>
<trkpt lat="-27.2744381" lon="151.2900643">
  <ele>351.85</ele>
  <time>2026-09-01T20:02:57Z</time>
  <course>10.57</course>
  <speed>0.12041594578792296</speed>
  <fix>3d</fix>
</trkpt>
<trkpt lat="-27.2744378" lon="151.2900642">
  <ele>351.41</ele>
  <time>2026-09-01T20:02:57Z</time>
  <course>188.49</course>
  <speed>0.13</speed>
  <fix>3d</fix>
</trkpt>
<trkpt lat="-27.2744381" lon="151.2900643">
  <ele>351.89</ele>
  <time>2026-09-01T20:02:57Z</time>
  <course>10.56</course>
  <speed>0.12041594578792296</speed>
  <fix>3d</fix>
</trkpt>
<trkpt lat="-27.2744382" lon="151.2900643">
  <ele>351.99</ele>
  <time>2026-09-01T20:02:57Z</time>
  <course>10.54</course>
  <speed>0.12</speed>
  <fix>3d</fix>
</trkpt>
<trkpt lat="-27.274438" lon="151.2900642">
  <ele>351.7</ele>
  <time>2026-09-01T20:02:57Z</time>
  <course>188.54</course>
  <speed>0.13</speed>
  <fix>3d</fix>
</trkpt>
<trkpt lat="-27.2744382" lon="151.2900643">
  <ele>352.0</ele>
  <time>2026-09-01T20:02:57Z</time>
  <course>10.54</course>
  <speed>0.12</speed>
  <fix>3d</fix>
</trkpt>
<trkpt lat="-27.2744383" lon="151.2900643">
  <ele>352.14</ele>
  <time>2026-09-01T20:02:57Z</time>
  <course>10.52</course>
  <speed>0.12041594578792296</speed>
  <fix>3d</fix>
</trkpt>
<trkpt lat="-27.274438" lon="151.2900642">
  <ele>351.7</ele>
  <time>2026-09-01T20:02:57Z</time>
  <course>188.54</course>
  <speed>0.13</speed>
  <fix>3d</fix>
</trkpt>
<trkpt lat="-27.2744383" lon="151.2900643">
  <ele>352.14</ele>
  <time>2026-09-01T20:02:57Z</time>
  <course>10.52</course>
  <speed>0.12041594578792296</speed>
  <fix>3d</fix>
</trkpt>
<trkpt lat="-27.2744384" lon="151.2900642">
  <ele>352.28</ele>
  <time>2026-09-01T20:02:57Z</time>
  <course>10.51</course>
  <speed>0.11</speed>
  <fix>3d</fix>
</trkpt>
<trkpt lat="-27.2744383" lon="151.2900642">
  <ele>351.99</ele>
  <time>2026-09-01T20:02:57Z</time>
  <course>188.57</course>
  <speed>0.12</speed>
  <fix>3d</fix>
</trkpt>
<trkpt lat="-27.2744384" lon="151.2900642">
  <ele>352.32</ele>
  <time>2026-09-01T20:02:57Z</time>
  <course>10.52</course>
  <speed>0.11045361017187261</speed>
  <fix>3d</fix>
</trkpt>
<trkpt lat="-27.2744385" lon="151.2900642">
  <ele>352.42</ele>
  <time>2026-09-01T20:02:57Z</time>
  <course>10.52</course>
  <speed>0.11045361017187261</speed>
  <fix>3d</fix>
</trkpt>
<trkpt lat="-27.2744383" lon="151.2900642">
  <ele>351.99</ele>
  <time>2026-09-01T20:02:57Z</time>
  <course>188.57</course>
  <speed>0.12</speed>
  <fix>3d</fix>
</trkpt>
<trkpt lat="-27.2744385" lon="151.2900642">
  <ele>352.46</ele>
  <time>2026-09-01T20:02:57Z</time>
  <course>10.52</course>
  <speed>0.11</speed>
  <fix>3d</fix>
</trkpt>
<trkpt lat="-27.2744386" lon="151.2900642">
  <ele>352.57</ele>
  <time>2026-09-01T20:02:57Z</time>
  <course>10.53</course>
  <speed>0.1</speed>
  <fix>3d</fix>
</trkpt>
<trkpt lat="-27.2744385" lon="151.2900642">
  <ele>352.27</ele>
  <time>2026-09-01T20:02:57Z</time>
  <course>188.69</course>
  <speed>0.12</speed>
  <fix>3d</fix>
</trkpt>
<trkpt lat="-27.2744386" lon="151.2900642">
  <ele>352.61</ele>
  <time>2026-09-01T20:02:57Z</time>
  <course>10.54</course>
  <speed>0.1</speed>
  <fix>3d</fix>
</trkpt>
<trkpt lat="-27.2744387" lon="151.2900642">
  <ele>352.71</ele>
  <time>2026-09-01T20:02:57Z</time>
  <course>10.55</course>
  <speed>0.1004987562112089</speed>
  <fix>3d</fix>
</trkpt>
<trkpt lat="-27.2744385" lon="151.2900642">
  <ele>352.27</ele>
  <time>2026-09-01T20:02:57Z</time>
  <course>188.69</course>
  <speed>0.12</speed>
  <fix>3d</fix>
</trkpt>
<trkpt lat="-27.2744387" lon="151.2900642">
  <ele>352.74</ele>
  <time>2026-09-01T20:02:57Z</time>
  <course>10.55</course>
  <speed>0.1</speed>
  <fix>3d</fix>
</trkpt>
<trkpt lat="-27.2744388" lon="151.2900642">
  <ele>352.85</ele>
  <time>2026-09-01T20:02:57Z</time>
  <course>10.55</course>
  <speed>0.1</speed>
  <fix>3d</fix>
</trkpt>
<trkpt lat="-27.2744387" lon="151.2900641">
  <ele>352.56</ele>
  <time>2026-09-01T20:02:57Z</time>
  <course>188.79</course>
  <speed>0.11</speed>
  <fix>3d</fix>
</trkpt>
<trkpt lat="-27.2744388" lon="151.2900642">
  <ele>352.89</ele>
  <time>2026-09-01T20:02:57Z</time>
  <course>10.55</course>
  <speed>0.09055385138137417</speed>
  <fix>3d</fix>
</trkpt>
<trkpt lat="-27.2744389" lon="151.2900642">
  <ele>353.0</ele>
  <time>2026-09-01T20:02:57Z</time>
  <course>10.55</course>
  <speed>0.09</speed>
  <fix>3d</fix>
</trkpt>
<trkpt lat="-27.2744387" lon="151.2900641">
  <ele>352.56</ele>
  <time>2026-09-01T20:02:57Z</time>
  <course>188.79</course>
  <speed>0.11</speed>
  <fix>3d</fix>
</trkpt>
<trkpt lat="-27.2744389" lon="151.2900642">
  <ele>353.04</ele>
  <time>2026-09-01T20:02:57Z</time>
  <course>10.55</course>
  <speed>0.09</speed>
  <fix>3d</fix>
</trkpt>
<trkpt lat="-27.274439" lon="151.2900642">
  <ele>353.14</ele>
  <time>2026-09-01T20:02:57Z</time>
  <course>10.55</course>
  <speed>0.09055385138137417</speed>
  <fix>3d</fix>
</trkpt>
<trkpt lat="-27.2744389" lon="151.2900641">
  <ele>352.84</ele>
  <time>2026-09-01T20:02:57Z</time>
  <course>188.79</course>
  <speed>0.1</speed>
  <fix>3d</fix>
</trkpt>
<trkpt lat="-27.274439" lon="151.2900641">
  <ele>353.18</ele>
  <time>2026-09-01T20:02:57Z</time>
  <course>10.55</course>
  <speed>0.09</speed>
  <fix>3d</fix>
</trkpt>
<trkpt lat="-27.2744391" lon="151.2900641">
  <ele>353.29</ele>
  <time>2026-09-01T20:02:57Z</time>
  <course>10.55</course>
  <speed>0.08062257748298549</speed>
  <fix>3d</fix>
</trkpt>
<trkpt lat="-27.2744389" lon="151.2900641">
  <ele>352.84</ele>
  <time>2026-09-01T20:02:57Z</time>
  <course>188.79</course>
  <speed>0.1</speed>
  <fix>3d</fix>
</trkpt>
<trkpt lat="-27.2744391" lon="151.2900641">
  <ele>353.29</ele>
  <time>2026-09-01T20:02:57Z</time>
  <course>10.55</course>
  <speed>0.08</speed>
  <fix>3d</fix>
</trkpt>
<trkpt lat="-27.2744391" lon="151.2900641">
  <ele>353.43</ele>
  <time>2026-09-01T20:02:57Z</time>
  <course>10.54</course>
  <speed>0.08</speed>
  <fix>3d</fix>
</trkpt>
<trkpt lat="-27.2744391" lon="151.2900641">
  <ele>353.13</ele>
  <time>2026-09-01T20:02:57Z</time>
  <course>189.05</course>
  <speed>0.09</speed>
  <fix>3d</fix>
</trkpt>
<trkpt lat="-27.2744392" lon="151.2900641">
  <ele>353.47</ele>
  <time>2026-09-01T20:02:57Z</time>
  <course>10.54</course>
  <speed>0.08</speed>
  <fix>3d</fix>
</trkpt>
<trkpt lat="-27.2744392" lon="151.2900641">
  <ele>353.57</ele>
  <time>2026-09-01T20:02:57Z</time>
  <course>10.53</course>
  <speed>0.07</speed>
  <fix>3d</fix>
</trkpt>
<trkpt lat="-27.2744391" lon="151.2900641">
  <ele>353.13</ele>
  <time>2026-09-01T20:02:57Z</time>
  <course>189.05</course>
  <speed>0.09</speed>
  <fix>3d</fix>
</trkpt>
<trkpt lat="-27.2744392" lon="151.2900641">
  <ele>353.58</ele>
  <time>2026-09-01T20:02:57Z</time>
  <course>10.53</course>
  <speed>0.07</speed>
  <fix>3d</fix>
</trkpt>
<trkpt lat="-27.2744393" lon="151.2900641">
  <ele>353.72</ele>
  <time>2026-09-01T20:02:57Z</time>
  <course>10.53</course>
  <speed>0.07</speed>
  <fix>3d</fix>
</trkpt>
<trkpt lat="-27.2744392" lon="151.290064">
  <ele>353.41</ele>
  <time>2026-09-01T20:02:57Z</time>
  <course>189.28</course>
  <speed>0.07</speed>
  <fix>3d</fix>
</trkpt>
<trkpt lat="-27.2744393" lon="151.2900641">
  <ele>353.72</ele>
  <time>2026-09-01T20:02:57Z</time>
  <course>10.52</course>
  <speed>0.07</speed>
  <fix>3d</fix>
</trkpt>
<trkpt lat="-27.2744393" lon="151.2900641">
  <ele>353.86</ele>
  <time>2026-09-01T20:02:57Z</time>
  <course>10.52</course>
  <speed>0.06</speed>
  <fix>3d</fix>
</trkpt>
<trkpt lat="-27.2744392" lon="151.290064">
  <ele>353.41</ele>
  <time>2026-09-01T20:02:57Z</time>
  <course>189.28</course>
  <speed>0.07</speed>
  <fix>3d</fix>
</trkpt>
<trkpt lat="-27.2744394" lon="151.2900641">
  <ele>353.89</ele>
  <time>2026-09-01T20:02:57Z</time>
  <course>10.52</course>
  <speed>0.06</speed>
  <fix>3d</fix>
</trkpt>
<trkpt lat="-27.2744394" lon="151.2900641">
  <ele>354.0</ele>
  <time>2026-09-01T20:02:57Z</time>
  <course>10.52</course>
  <speed>0.06</speed>
  <fix>3d</fix>
</trkpt>
<trkpt lat="-27.2744393" lon="151.290064">
  <ele>353.7</ele>
  <time>2026-09-01T20:02:57Z</time>
  <course>189.27</course>
  <speed>0.06</speed>
  <fix>3d</fix>
</trkpt>
<trkpt lat="-27.2744394" lon="151.2900641">
  <ele>354.04</ele>
  <time>2026-09-01T20:02:57Z</time>
  <course>10.52</course>
  <speed>0.05</speed>
  <fix>3d</fix>
</trkpt>
<trkpt lat="-27.2744394" lon="151.2900641">
  <ele>354.14</ele>
  <time>2026-09-01T20:02:57Z</time>
  <course>10.53</course>
  <speed>0.05</speed>
  <fix>3d</fix>
</trkpt>
<trkpt lat="-27.2744393" lon="151.290064">
  <ele>353.7</ele>
  <time>2026-09-01T20:02:57Z</time>
  <course>189.27</course>
  <speed>0.06</speed>
  <fix>3d</fix>
</trkpt>
<trkpt lat="-27.2744395" lon="151.2900641">
  <ele>354.18</ele>
  <time>2026-09-01T20:02:57Z</time>
  <course>10.53</course>
  <speed>0.05</speed>
  <fix>3d</fix>
</trkpt>
<trkpt lat="-27.2744395" lon="151.2900641">
  <ele>354.28</ele>
  <time>2026-09-01T20:02:57Z</time>
  <course>10.53</course>
  <speed>0.04</speed>
  <fix>3d</fix>
</trkpt>
<trkpt lat="-27.2744394" lon="151.290064">
  <ele>353.98</ele>
  <time>2026-09-01T20:02:57Z</time>
  <course>189.88</course>
  <speed>0.05</speed>
  <fix>3d</fix>
</trkpt>
<trkpt lat="-27.2744395" lon="151.2900641">
  <ele>354.32</ele>
  <time>2026-09-01T20:02:57Z</time>
  <course>10.53</course>
  <speed>0.04</speed>
  <fix>3d</fix>
</trkpt>
<trkpt lat="-27.2744395" lon="151.2900641">
  <ele>354.43</ele>
  <time>2026-09-01T20:02:57Z</time>
  <course>10.52</course>
  <speed>0.04</speed>
  <fix>3d</fix>
</trkpt>
<trkpt lat="-27.2744394" lon="151.290064">
  <ele>353.98</ele>
  <time>2026-09-01T20:02:57Z</time>
  <course>189.88</course>
  <speed>0.05</speed>
  <fix>3d</fix>
</trkpt>
<trkpt lat="-27.2744395" lon="151.2900641">
  <ele>354.46</ele>
  <time>2026-09-01T20:02:57Z</time>
  <course>10.52</course>
  <speed>0.04</speed>
  <fix>3d</fix>
</trkpt>
<trkpt lat="-27.2744396" lon="151.2900641">
  <ele>354.57</ele>
  <time>2026-09-01T20:02:57Z</time>
  <course>10.51</course>
  <speed>0.03</speed>
  <fix>3d</fix>
</trkpt>
<trkpt lat="-27.2744395" lon="151.290064">
  <ele>354.27</ele>
  <time>2026-09-01T20:02:57Z</time>
  <course>191.08</course>
  <speed>0.04</speed>
  <fix>3d</fix>
</trkpt>
<trkpt lat="-27.2744396" lon="151.2900641">
  <ele>354.61</ele>
  <time>2026-09-01T20:02:57Z</time>
  <course>10.5</course>
  <speed>0.03</speed>
  <fix>3d</fix>
</trkpt>
<trkpt lat="-27.2744396" lon="151.2900641">
  <ele>354.71</ele>
  <time>2026-09-01T20:02:57Z</time>
  <course>10.5</course>
  <speed>0.03</speed>
  <fix>3d</fix>
</trkpt>
<trkpt lat="-27.2744395" lon="151.290064">
  <ele>354.27</ele>
  <time>2026-09-01T20:02:57Z</time>
  <course>191.08</course>
  <speed>0.04</speed>
  <fix>3d</fix>
</trkpt>
<trkpt lat="-27.2744396" lon="151.2900641">
  <ele>354.75</ele>
  <time>2026-09-01T20:02:57Z</time>
  <course>10.5</course>
  <speed>0.0316227766016838</speed>
  <fix>3d</fix>
</trkpt>
<trkpt lat="-27.2744396" lon="151.2900641">
  <ele>354.86</ele>
  <time>2026-09-01T20:02:57Z</time>
  <course>10.5</course>
  <speed>0.022360679774997897</speed>
  <fix>3d</fix>
</trkpt>
<trkpt lat="-27.2744396" lon="151.290064">
  <ele>354.56</ele>
  <time>2026-09-01T20:02:57Z</time>
  <course>192.63</course>
  <speed>0.03</speed>
  <fix>3d</fix>
</trkpt>
<trkpt lat="-27.2744396" lon="151.2900641">
  <ele>354.9</ele>
  <time>2026-09-01T20:02:57Z</time>
  <course>10.5</course>
  <speed>0.022360679774997897</speed>
  <fix>3d</fix>
</trkpt>
<trkpt lat="-27.2744396" lon="151.2900641">
  <ele>355.0</ele>
  <time>2026-09-01T20:02:57Z</time>
  <course>10.51</course>
  <speed>0.022360679774997897</speed>
  <fix>3d</fix>
</trkpt>
<trkpt lat="-27.2744396" lon="151.290064">
  <ele>354.56</ele>
  <time>2026-09-01T20:02:57Z</time>
  <course>192.63</course>
  <speed>0.03</speed>
  <fix>3d</fix>
</trkpt>
<trkpt lat="-27.2744396" lon="151.2900641">
  <ele>355.01</ele>
  <time>2026-09-01T20:02:57Z</time>
  <course>10.51</course>
  <speed>0.022360679774997897</speed>
  <fix>3d</fix>
</trkpt>
<trkpt lat="-27.2744396" lon="151.2900641">
  <ele>355.15</ele>
  <time>2026-09-01T20:02:57Z</time>
  <course>10.52</course>
  <speed>0.02</speed>
  <fix>3d</fix>
</trkpt>
<trkpt lat="-27.2744396" lon="151.2900639">
  <ele>354.84</ele>
  <time>2026-09-01T20:02:57Z</time>
  <course>198.35</course>
  <speed>0.02</speed>
  <fix>3d</fix>
</trkpt>
<trkpt lat="-27.2744396" lon="151.2900641">
  <ele>355.15</ele>
  <time>2026-09-01T20:02:57Z</time>
  <course>10.52</course>
  <speed>0.02</speed>
  <fix>3d</fix>
</trkpt>
<trkpt lat="-27.2744397" lon="151.2900641">
  <ele>355.29</ele>
  <time>2026-09-01T20:02:57Z</time>
  <course>10.52</course>
  <speed>0.01</speed>
  <fix>3d</fix>
</trkpt>
<trkpt lat="-27.2744396" lon="151.2900639">
  <ele>354.84</ele>
  <time>2026-09-01T20:02:57Z</time>
  <course>198.35</course>
  <speed>0.02</speed>
  <fix>3d</fix>
</trkpt>
<trkpt lat="-27.2744397" lon="151.2900641">
  <ele>355.32</ele>
  <time>2026-09-01T20:02:57Z</time>
  <course>10.52</course>
  <speed>0.01</speed>
  <fix>3d</fix>
</trkpt>
<trkpt lat="-27.2744397" lon="151.2900641">
  <ele>355.43</ele>
  <time>2026-09-01T20:02:57Z</time>
  <course>10.51</course>
  <speed>0.01</speed>
  <fix>3d</fix>
</trkpt>
<trkpt lat="-27.2744397" lon="151.2900639">
  <ele>355.13</ele>
  <time>2026-09-01T20:02:57Z</time>
  <course>218.82</course>
  <speed>0.01</speed>
  <fix>3d</fix>
</trkpt>
<trkpt lat="-27.2744397" lon="151.2900641">
  <ele>355.47</ele>
  <time>2026-09-01T20:02:57Z</time>
  <course>10.5</course>
  <speed>0.01</speed>
  <fix>3d</fix>
</trkpt>
<trkpt lat="-27.2744397" lon="151.2900641">
  <ele>355.58</ele>
  <time>2026-09-01T20:02:57Z</time>
  <course>10.49</course>
  <speed>0.0</speed>
  <fix>3d</fix>
</trkpt>
<trkpt lat="-27.2744397" lon="151.2900639">
  <ele>355.13</ele>
  <time>2026-09-01T20:02:57Z</time>
  <course>218.82</course>
  <speed>0.01</speed>
  <fix>3d</fix>
</trkpt>
<trkpt lat="-27.2744397" lon="151.2900641">
  <ele>355.61</ele>
  <time>2026-09-01T20:02:57Z</time>
  <course>10.48</course>
  <speed>0.0</speed>
  <fix>3d</fix>
</trkpt>
<trkpt lat="-27.2744397" lon="151.2900641">
  <ele>355.72</ele>
  <time>2026-09-01T20:02:57Z</time>
  <course>10.46</course>
  <speed>0.0</speed>
  <fix>3d</fix>
</trkpt>
<trkpt lat="-27.2744397" lon="151.2900639">
  <ele>355.42</ele>
  <time>2026-09-01T20:02:57Z</time>
  <course>269.73</course>
  <speed>0.0</speed>
  <fix>3d</fix>
</trkpt>
<trkpt lat="-27.2744397" lon="151.2900641">
  <ele>355.76</ele>
  <time>2026-09-01T20:02:57Z</time>
  <course>10.46</course>
  <speed>0.0</speed>
  <fix>3d</fix>
</trkpt>
<trkpt lat="-27.2744397" lon="151.2900641">
  <ele>355.86</ele>
  <time>2026-09-01T20:02:57Z</time>
  <course>10.46</course>
  <speed>0.0</speed>
  <fix>3d</fix>
</trkpt>
<trkpt lat="-27.2744397" lon="151.2900639">
  <ele>355.42</ele>
  <time>2026-09-01T20:02:57Z</time>
  <course>269.73</course>
  <speed>0.0</speed>
  <fix>3d</fix>
</trkpt>
<trkpt lat="-27.2744397" lon="151.2900641">
  <ele>355.9</ele>
  <time>2026-09-01T20:02:57Z</time>
  <course>10.46</course>
  <speed>0.0</speed>
  <fix>3d</fix>
</trkpt>
<trkpt lat="-27.2744397" lon="151.2900641">
  <ele>356.01</ele>
  <time>2026-09-01T20:02:57Z</time>
  <course>10.46</course>
  <speed>0.0</speed>
  <fix>3d</fix>
</trkpt>
<trkpt lat="-27.2744397" lon="151.2900639">
  <ele>355.71</ele>
  <time>2026-09-01T20:02:57Z</time>
  <course>314.2</course>
  <speed>0.01</speed>
  <fix>3d</fix>
</trkpt>
<trkpt lat="-27.2744397" lon="151.2900641">
  <ele>356.05</ele>
  <time>2026-09-01T20:02:57Z</time>
  <course>10.46</course>
  <speed>0.0</speed>
  <fix>3d</fix>
</trkpt>
<trkpt lat="-27.2744397" lon="151.2900641">
  <ele>356.15</ele>
  <time>2026-09-01T20:02:57Z</time>
  <course>10.46</course>
  <speed>0.0</speed>
  <fix>3d</fix>
</trkpt>
<trkpt lat="-27.2744397" lon="151.2900639">
  <ele>355.71</ele>
  <time>2026-09-01T20:02:57Z</time>
  <course>314.2</course>
  <speed>0.01</speed>
  <fix>3d</fix>
</trkpt>
<trkpt lat="-27.2744397" lon="151.290064">
  <ele>356.19</ele>
  <time>2026-09-01T20:02:57Z</time>
  <course>10.46</course>
  <speed>0.0</speed>
  <fix>3d</fix>
</trkpt>
<trkpt lat="-27.2744396" lon="151.290064">
  <ele>356.3</ele>
  <time>2026-09-01T20:02:57Z</time>
  <course>10.47</course>
  <speed>0.0</speed>
  <fix>3d</fix>
</trkpt>
<trkpt lat="-27.2744397" lon="151.2900639">
  <ele>356.0</ele>
  <time>2026-09-01T20:02:57Z</time>
  <course>331.74</course>
  <speed>0.01</speed>
  <fix>3d</fix>
</trkpt>
<trkpt lat="-27.2744396" lon="151.290064">
  <ele>356.34</ele>
  <time>2026-09-01T20:02:57Z</time>
  <course>10.47</course>
  <speed>0.0</speed>
  <fix>3d</fix>
</trkpt>
<trkpt lat="-27.2744396" lon="151.290064">
  <ele>356.44</ele>
  <time>2026-09-01T20:02:57Z</time>
  <course>10.48</course>
  <speed>0.0</speed>
  <fix>3d</fix>
</trkpt>
<trkpt lat="-27.2744397" lon="151.2900639">
  <ele>356.0</ele>
  <time>2026-09-01T20:02:57Z</time>
  <course>331.74</course>
  <speed>0.01</speed>
  <fix>3d</fix>
</trkpt>
<trkpt lat="-27.2744396" lon="151.290064">
  <ele>356.48</ele>
  <time>2026-09-01T20:02:57Z</time>
  <course>10.48</course>
  <speed>0.0</speed>
  <fix>3d</fix>
</trkpt>
<trkpt lat="-27.2744396" lon="151.290064">
  <ele>356.59</ele>
  <time>2026-09-01T20:02:57Z</time>
  <course>10.49</course>
  <speed>0.01</speed>
  <fix>3d</fix>
</trkpt>
<trkpt lat="-27.2744397" lon="151.2900639">
  <ele>356.28</ele>
  <time>2026-09-01T20:02:57Z</time>
  <course>340.43</course>
  <speed>0.02</speed>
  <fix>3d</fix>
</trkpt>
<trkpt lat="-27.2744396" lon="151.290064">
  <ele>356.59</ele>
  <time>2026-09-01T20:02:57Z</time>
  <course>10.49</course>
  <speed>0.01</speed>
  <fix>3d</fix>
</trkpt>
<trkpt lat="-27.2744396" lon="151.290064">
  <ele>356.73</ele>
  <time>2026-09-01T20:02:57Z</time>
  <course>10.5</course>
  <speed>0.01</speed>
  <fix>3d</fix>
</trkpt>
<trkpt lat="-27.2744397" lon="151.2900639">
  <ele>356.28</ele>
  <time>2026-09-01T20:02:57Z</time>
  <course>340.43</course>
  <speed>0.02</speed>
  <fix>3d</fix>
</trkpt>
<trkpt lat="-27.2744396" lon="151.290064">
  <ele>356.73</ele>
  <time>2026-09-01T20:02:57Z</time>
  <course>10.5</course>
  <speed>0.01</speed>
  <fix>3d</fix>
</trkpt>
<trkpt lat="-27.2744396" lon="151.290064">
  <ele>356.87</ele>
  <time>2026-09-01T20:02:57Z</time>
  <course>10.5</course>
  <speed>0.01</speed>
  <fix>3d</fix>
</trkpt>
<trkpt lat="-27.2744397" lon="151.2900639">
  <ele>356.57</ele>
  <time>2026-09-01T20:02:57Z</time>
  <course>345.29</course>
  <speed>0.02</speed>
  <fix>3d</fix>
</trkpt>
<trkpt lat="-27.2744396" lon="151.290064">
  <ele>356.9</ele>
  <time>2026-09-01T20:02:57Z</time>
  <course>10.5</course>
  <speed>0.01</speed>
  <fix>3d</fix>
</trkpt>
<trkpt lat="-27.2744396" lon="151.290064">
  <ele>357.02</ele>
  <time>2026-09-01T20:02:57Z</time>
  <course>10.51</course>
  <speed>0.01</speed>
  <fix>3d</fix>
</trkpt>
<trkpt lat="-27.2744397" lon="151.2900639">
  <ele>356.57</ele>
  <time>2026-09-01T20:02:57Z</time>
  <course>345.29</course>
  <speed>0.02</speed>
  <fix>3d</fix>
</trkpt>
<trkpt lat="-27.2744396" lon="151.290064">
  <ele>357.05</ele>
  <time>2026-09-01T20:02:57Z</time>
  <course>10.51</course>
  <speed>0.01</speed>
  <fix>3d</fix>
</trkpt>
<trkpt lat="-27.2744396" lon="151.290064">
  <ele>357.16</ele>
  <time>2026-09-01T20:02:57Z</time>
  <course>10.52</course>
  <speed>0.01</speed>
  <fix>3d</fix>
</trkpt>
<trkpt lat="-27.2744396" lon="151.2900638">
  <ele>356.86</ele>
  <time>2026-09-01T20:02:57Z</time>
  <course>347.68</course>
  <speed>0.03</speed>
  <fix>3d</fix>
</trkpt>
<trkpt lat="-27.2744396" lon="151.290064">
  <ele>357.2</ele>
  <time>2026-09-01T20:02:57Z</time>
  <course>10.52</course>
  <speed>0.01</speed>
  <fix>3d</fix>
</trkpt>
<trkpt lat="-27.2744396" lon="151.290064">
  <ele>357.3</ele>
  <time>2026-09-01T20:02:57Z</time>
  <course>10.52</course>
  <speed>0.01</speed>
  <fix>3d</fix>
</trkpt>
<trkpt lat="-27.2744396" lon="151.2900638">
  <ele>356.86</ele>
  <time>2026-09-01T20:02:57Z</time>
  <course>347.68</course>
  <speed>0.03</speed>
  <fix>3d</fix>
</trkpt>
<trkpt lat="-27.2744396" lon="151.290064">
  <ele>357.33</ele>
  <time>2026-09-01T20:02:57Z</time>
  <course>10.52</course>
  <speed>0.01</speed>
  <fix>3d</fix>
</trkpt>
<trkpt lat="-27.2744396" lon="151.290064">
  <ele>357.44</ele>
  <time>2026-09-01T20:02:57Z</time>
  <course>10.52</course>
  <speed>0.02</speed>
  <fix>3d</fix>
</trkpt>
<trkpt lat="-27.2744396" lon="151.2900637">
  <ele>357.14</ele>
  <time>2026-09-01T20:02:57Z</time>
  <course>349.02</course>
  <speed>0.03</speed>
  <fix>3d</fix>
</trkpt>
<trkpt lat="-27.2744396" lon="151.290064">
  <ele>357.48</ele>
  <time>2026-09-01T20:02:57Z</time>
  <course>10.52</course>
  <speed>0.02</speed>
  <fix>3d</fix>
</trkpt>
<trkpt lat="-27.2744396" lon="151.290064">
  <ele>357.58</ele>
  <time>2026-09-01T20:02:57Z</time>
  <course>10.52</course>
  <speed>0.02</speed>
  <fix>3d</fix>
</trkpt>
<trkpt lat="-27.2744396" lon="151.2900637">
  <ele>357.14</ele>
  <time>2026-09-01T20:02:57Z</time>
  <course>349.02</course>
  <speed>0.03</speed>
  <fix>3d</fix>
</trkpt>
<trkpt lat="-27.2744396" lon="151.290064">
  <ele>357.62</ele>
  <time>2026-09-01T20:02:57Z</time>
  <course>10.52</course>
  <speed>0.02</speed>
  <fix>3d</fix>
</trkpt>
<trkpt lat="-27.2744395" lon="151.290064">
  <ele>357.73</ele>
  <time>2026-09-01T20:02:57Z</time>
  <course>10.52</course>
  <speed>0.02</speed>
  <fix>3d</fix>
</trkpt>
<trkpt lat="-27.2744395" lon="151.2900637">
  <ele>357.43</ele>
  <time>2026-09-01T20:02:57Z</time>
  <course>350.2</course>
  <speed>0.03</speed>
  <fix>3d</fix>
</trkpt>
<trkpt lat="-27.2744395" lon="151.290064">
  <ele>357.76</ele>
  <time>2026-09-01T20:02:57Z</time>
  <course>10.53</course>
  <speed>0.02</speed>
  <fix>3d</fix>
</trkpt>
<trkpt lat="-27.2744395" lon="151.2900639">
  <ele>357.87</ele>
  <time>2026-09-01T20:02:57Z</time>
  <course>10.53</course>
  <speed>0.02</speed>
  <fix>3d</fix>
</trkpt>
<trkpt lat="-27.2744395" lon="151.2900637">
  <ele>357.43</ele>
  <time>2026-09-01T20:02:57Z</time>
  <course>350.2</course>
  <speed>0.03</speed>
  <fix>3d</fix>
</trkpt>
<trkpt lat="-27.2744395" lon="151.2900639">
  <ele>357.91</ele>
  <time>2026-09-01T20:02:57Z</time>
  <course>10.53</course>
  <speed>0.02</speed>
  <fix>3d</fix>
</trkpt>
<trkpt lat="-27.2744395" lon="151.2900639">
  <ele>358.01</ele>
  <time>2026-09-01T20:02:57Z</time>
  <course>10.53</course>
  <speed>0.02</speed>
  <fix>3d</fix>
</trkpt>
<trkpt lat="-27.2744394" lon="151.2900637">
  <ele>357.72</ele>
  <time>2026-09-01T20:02:57Z</time>
  <course>351.94</course>
  <speed>0.04</speed>
  <fix>3d</fix>
</trkpt>
<trkpt lat="-27.2744395" lon="151.2900639">
  <ele>358.01</ele>
  <time>2026-09-01T20:02:57Z</time>
  <course>10.54</course>
  <speed>0.02</speed>
  <fix>3d</fix>
</trkpt>
<trkpt lat="-27.2744395" lon="151.2900639">
  <ele>358.15</ele>
  <time>2026-09-01T20:02:57Z</time>
  <course>10.54</course>
  <speed>0.02</speed>
  <fix>3d</fix>
</trkpt>
<trkpt lat="-27.2744394" lon="151.2900637">
  <ele>357.72</ele>
  <time>2026-09-01T20:02:57Z</time>
  <course>351.94</course>
  <speed>0.04</speed>
  <fix>3d</fix>
</trkpt>
<trkpt lat="-27.2744395" lon="151.2900639">
  <ele>358.16</ele>
  <time>2026-09-01T20:02:57Z</time>
  <course>10.54</course>
  <speed>0.02</speed>
  <fix>3d</fix>
</trkpt>
<trkpt lat="-27.2744394" lon="151.2900639">
  <ele>358.3</ele>
  <time>2026-09-01T20:02:57Z</time>
  <course>10.55</course>
  <speed>0.02</speed>
  <fix>3d</fix>
</trkpt>
<trkpt lat="-27.2744393" lon="151.2900637">
  <ele>358.01</ele>
  <time>2026-09-01T20:02:57Z</time>
  <course>354.34</course>
  <speed>0.04</speed>
  <fix>3d</fix>
</trkpt>
<trkpt lat="-27.2744394" lon="151.2900639">
  <ele>358.44</ele>
  <time>2026-09-01T20:02:57Z</time>
  <course>10.56</course>
  <speed>0.02</speed>
  <fix>3d</fix>
</trkpt>
<trkpt lat="-27.2744393" lon="151.2900637">
  <ele>358.01</ele>
  <time>2026-09-01T20:02:57Z</time>
  <course>354.34</course>
  <speed>0.04</speed>
  <fix>3d</fix>
</trkpt>
<trkpt lat="-27.2744393" lon="151.2900639">
  <ele>358.58</ele>
  <time>2026-09-01T20:02:57Z</time>
  <course>10.57</course>
  <speed>0.02</speed>
  <fix>3d</fix>
</trkpt>
<trkpt lat="-27.2744392" lon="151.2900637">
  <ele>358.29</ele>
  <time>2026-09-01T20:02:57Z</time>
  <course>356.61</course>
  <speed>0.04</speed>
  <fix>3d</fix>
</trkpt>
<trkpt lat="-27.2744393" lon="151.2900639">
  <ele>358.72</ele>
  <time>2026-09-01T20:02:57Z</time>
  <course>10.59</course>
  <speed>0.02</speed>
  <fix>3d</fix>
</trkpt>
<trkpt lat="-27.2744392" lon="151.2900637">
  <ele>358.29</ele>
  <time>2026-09-01T20:02:57Z</time>
  <course>356.61</course>
  <speed>0.04</speed>
  <fix>3d</fix>
</trkpt>
<trkpt lat="-27.2744393" lon="151.2900639">
  <ele>358.85</ele>
  <time>2026-09-01T20:02:57Z</time>
  <course>10.61</course>
  <speed>0.02</speed>
  <fix>3d</fix>
</trkpt>
<trkpt lat="-27.2744392" lon="151.2900637">
  <ele>358.58</ele>
  <time>2026-09-01T20:02:57Z</time>
  <course>358.37</course>
  <speed>0.04</speed>
  <fix>3d</fix>
</trkpt>
<trkpt lat="-27.2744392" lon="151.2900639">
  <ele>358.96</ele>
  <time>2026-09-01T20:02:57Z</time>
  <course>10.63</course>
  <speed>0.01</speed>
  <fix>3d</fix>
</trkpt>
<trkpt lat="-27.2744392" lon="151.2900637">
  <ele>358.58</ele>
  <time>2026-09-01T20:02:57Z</time>
  <course>358.37</course>
  <speed>0.04</speed>
  <fix>3d</fix>
</trkpt>
<trkpt lat="-27.2744392" lon="151.2900639">
  <ele>359.06</ele>
  <time>2026-09-01T20:02:57Z</time>
  <course>10.64</course>
  <speed>0.01</speed>
  <fix>3d</fix>
</trkpt>
<trkpt lat="-27.2744391" lon="151.2900637">
  <ele>358.84</ele>
  <time>2026-09-01T20:02:57Z</time>
  <course>359.41</course>
  <speed>0.04</speed>
  <fix>3d</fix>
</trkpt>
<trkpt lat="-27.2744392" lon="151.2900638">
  <ele>359.15</ele>
  <time>2026-09-01T20:02:57Z</time>
  <course>10.66</course>
  <speed>0.0</speed>
  <fix>3d</fix>
</trkpt>
<trkpt lat="-27.2744391" lon="151.2900637">
  <ele>358.84</ele>
  <time>2026-09-01T20:02:57Z</time>
  <course>359.41</course>
  <speed>0.04</speed>
  <fix>3d</fix>
</trkpt>
<trkpt lat="-27.2744392" lon="151.2900638">
  <ele>359.21</ele>
  <time>2026-09-01T20:02:57Z</time>
  <course>10.68</course>
  <speed>0.0</speed>
  <fix>3d</fix>
</trkpt>
<trkpt lat="-27.274439" lon="151.2900637">
  <ele>359.05</ele>
  <time>2026-09-01T20:02:57Z</time>
  <course>358.56</course>
  <speed>0.03</speed>
  <fix>3d</fix>
</trkpt>
<trkpt lat="-27.2744391" lon="151.2900638">
  <ele>359.27</ele>
  <time>2026-09-01T20:02:57Z</time>
  <course>10.69</course>
  <speed>0.01</speed>
  <fix>3d</fix>
</trkpt>
<trkpt lat="-27.274439" lon="151.2900637">
  <ele>359.05</ele>
  <time>2026-09-01T20:02:57Z</time>
  <course>358.56</course>
  <speed>0.03</speed>
  <fix>3d</fix>
</trkpt>
<trkpt lat="-27.2744391" lon="151.2900638">
  <ele>359.31</ele>
  <time>2026-09-01T20:02:57Z</time>
  <course>10.7</course>
  <speed>0.02</speed>
  <fix>3d</fix>
</trkpt>
<trkpt lat="-27.274439" lon="151.2900637">
  <ele>359.2</ele>
  <time>2026-09-01T20:02:57Z</time>
  <course>349.91</course>
  <speed>0.01</speed>
  <fix>3d</fix>
</trkpt>
<trkpt lat="-27.2744391" lon="151.2900638">
  <ele>359.35</ele>
  <time>2026-09-01T20:02:57Z</time>
  <course>10.68</course>
  <speed>0.04</speed>
  <fix>3d</fix>
</trkpt>
<trkpt lat="-27.274439" lon="151.2900637">
  <ele>359.2</ele>
  <time>2026-09-01T20:02:57Z</time>
  <course>349.91</course>
  <speed>0.01</speed>
  <fix>3d</fix>
</trkpt>
<trkpt lat="-27.2744391" lon="151.2900638">
  <ele>359.38</ele>
  <time>2026-09-01T20:02:57Z</time>
  <course>10.66</course>
  <speed>0.05</speed>
  <fix>3d</fix>
</trkpt>
<trkpt lat="-27.274439" lon="151.2900637">
  <ele>359.3</ele>
  <time>2026-09-01T20:02:57Z</time>
  <course>197.22</course>
  <speed>0.01</speed>
  <fix>3d</fix>
</trkpt>
<trkpt lat="-27.2744391" lon="151.2900638">
  <ele>359.43</ele>
  <time>2026-09-01T20:02:57Z</time>
  <course>10.67</course>
  <speed>0.06</speed>
  <fix>3d</fix>
</trkpt>
<trkpt lat="-27.274439" lon="151.2900637">
  <ele>359.3</ele>
  <time>2026-09-01T20:02:57Z</time>
  <course>197.22</course>
  <speed>0.01</speed>
  <fix>3d</fix>
</trkpt>
<trkpt lat="-27.2744392" lon="151.2900638">
  <ele>359.48</ele>
  <time>2026-09-01T20:02:57Z</time>
  <course>10.69</course>
  <speed>0.07</speed>
  <fix>3d</fix>
</trkpt>
<trkpt lat="-27.274439" lon="151.2900637">
  <ele>359.38</ele>
  <time>2026-09-01T20:02:57Z</time>
  <course>188.14</course>
  <speed>0.03</speed>
  <fix>3d</fix>
</trkpt>
<trkpt lat="-27.2744392" lon="151.2900638">
  <ele>359.54</ele>
  <time>2026-09-01T20:02:57Z</time>
  <course>10.71</course>
  <speed>0.07</speed>
  <fix>3d</fix>
</trkpt>
<trkpt lat="-27.274439" lon="151.2900637">
  <ele>359.38</ele>
  <time>2026-09-01T20:02:57Z</time>
  <course>188.14</course>
  <speed>0.03</speed>
  <fix>3d</fix>
</trkpt>
<trkpt lat="-27.2744393" lon="151.2900637">
  <ele>359.61</ele>
  <time>2026-09-01T20:02:57Z</time>
  <course>10.74</course>
  <speed>0.08062257748298549</speed>
  <fix>3d</fix>
</trkpt>
<trkpt lat="-27.2744391" lon="151.2900637">
  <ele>359.48</ele>
  <time>2026-09-01T20:02:57Z</time>
  <course>188.19</course>
  <speed>0.05</speed>
  <fix>3d</fix>
</trkpt>
<trkpt lat="-27.2744393" lon="151.2900637">
  <ele>359.7</ele>
  <time>2026-09-01T20:02:57Z</time>
  <course>10.77</course>
  <speed>0.08062257748298549</speed>
  <fix>3d</fix>
</trkpt>
<trkpt lat="-27.2744391" lon="151.2900637">
  <ele>359.48</ele>
  <time>2026-09-01T20:02:57Z</time>
  <course>188.19</course>
  <speed>0.05</speed>
  <fix>3d</fix>
</trkpt>
<trkpt lat="-27.2744394" lon="151.2900637">
  <ele>359.8</ele>
  <time>2026-09-01T20:02:57Z</time>
  <course>10.79</course>
  <speed>0.07071067811865475</speed>
  <fix>3d</fix>
</trkpt>
<trkpt lat="-27.2744391" lon="151.2900637">
  <ele>359.62</ele>
  <time>2026-09-01T20:02:57Z</time>
  <course>188.13</course>
  <speed>0.06</speed>
  <fix>3d</fix>
</trkpt>
<trkpt lat="-27.2744394" lon="151.2900637">
  <ele>359.91</ele>
  <time>2026-09-01T20:02:57Z</time>
  <course>10.8</course>
  <speed>0.07071067811865475</speed>
  <fix>3d</fix>
</trkpt>
<trkpt lat="-27.2744391" lon="151.2900637">
  <ele>359.62</ele>
  <time>2026-09-01T20:02:57Z</time>
  <course>188.13</course>
  <speed>0.06</speed>
  <fix>3d</fix>
</trkpt>
<trkpt lat="-27.2744395" lon="151.2900637">
  <ele>360.04</ele>
  <time>2026-09-01T20:02:57Z</time>
  <course>10.81</course>
  <speed>0.06082762530298219</speed>
  <fix>3d</fix>
</trkpt>
<trkpt lat="-27.2744392" lon="151.2900637">
  <ele>359.81</ele>
  <time>2026-09-01T20:02:57Z</time>
  <course>187.73</course>
  <speed>0.06</speed>
  <fix>3d</fix>
</trkpt>
<trkpt lat="-27.2744395" lon="151.2900637">
  <ele>360.18</ele>
  <time>2026-09-01T20:02:57Z</time>
  <course>10.81</course>
  <speed>0.05</speed>
  <fix>3d</fix>
</trkpt>
<trkpt lat="-27.2744392" lon="151.2900637">
  <ele>359.81</ele>
  <time>2026-09-01T20:02:57Z</time>
  <course>187.73</course>
  <speed>0.06</speed>
  <fix>3d</fix>
</trkpt>
<trkpt lat="-27.2744395" lon="151.2900637">
  <ele>360.33</ele>
  <time>2026-09-01T20:02:57Z</time>
  <course>10.81</course>
  <speed>0.03</speed>
  <fix>3d</fix>
</trkpt>
<trkpt lat="-27.2744393" lon="151.2900637">
  <ele>360.06</ele>
  <time>2026-09-01T20:02:57Z</time>
  <course>187.02</course>
  <speed>0.04</speed>
  <fix>3d</fix>
</trkpt>
<trkpt lat="-27.2744395" lon="151.2900637">
  <ele>360.49</ele>
  <time>2026-09-01T20:02:57Z</time>
  <course>10.81</course>
  <speed>0.02</speed>
  <fix>3d</fix>
</trkpt>
<trkpt lat="-27.2744393" lon="151.2900637">
  <ele>360.06</ele>
  <time>2026-09-01T20:02:57Z</time>
  <course>187.02</course>
  <speed>0.04</speed>
  <fix>3d</fix>
</trkpt>
<trkpt lat="-27.2744395" lon="151.2900637">
  <ele>360.65</ele>
  <time>2026-09-01T20:02:57Z</time>
  <course>10.81</course>
  <speed>0.0</speed>
  <fix>3d</fix>
</trkpt>
<trkpt lat="-27.2744394" lon="151.2900637">
  <ele>360.35</ele>
  <time>2026-09-01T20:02:57Z</time>
  <course>185.07</course>
  <speed>0.02</speed>
  <fix>3d</fix>
</trkpt>
<trkpt lat="-27.2744395" lon="151.2900637">
  <ele>360.81</ele>
  <time>2026-09-01T20:02:57Z</time>
  <course>10.81</course>
  <speed>0.0</speed>
  <fix>3d</fix>
</trkpt>
<trkpt lat="-27.2744394" lon="151.2900637">
  <ele>360.35</ele>
  <time>2026-09-01T20:02:57Z</time>
  <course>185.07</course>
  <speed>0.02</speed>
  <fix>3d</fix>
</trkpt>
<trkpt lat="-27.2744395" lon="151.2900637">
  <ele>360.97</ele>
  <time>2026-09-01T20:02:57Z</time>
  <course>10.8</course>
  <speed>0.01</speed>
  <fix>3d</fix>
</trkpt>
<trkpt lat="-27.2744395" lon="151.2900637">
  <ele>360.67</ele>
  <time>2026-09-01T20:02:57Z</time>
  <course>78.8</course>
  <speed>0.0</speed>
  <fix>3d</fix>
</trkpt>
<trkpt lat="-27.2744395" lon="151.2900637">
  <ele>361.14</ele>
  <time>2026-09-01T20:02:57Z</time>
  <course>10.79</course>
  <speed>0.022360679774997897</speed>
  <fix>3d</fix>
</trkpt>
<trkpt lat="-27.2744395" lon="151.2900637">
  <ele>360.67</ele>
  <time>2026-09-01T20:02:57Z</time>
  <course>78.8</course>
  <speed>0.0</speed>
  <fix>3d</fix>
</trkpt>
<trkpt lat="-27.2744394" lon="151.2900637">
  <ele>361.3</ele>
  <time>2026-09-01T20:02:57Z</time>
  <course>10.78</course>
  <speed>0.0316227766016838</speed>
  <fix>3d</fix>
</trkpt>
<trkpt lat="-27.2744395" lon="151.2900637">
  <ele>361.0</ele>
  <time>2026-09-01T20:02:57Z</time>
  <course>14.71</course>
  <speed>0.02</speed>
  <fix>3d</fix>
</trkpt>
<trkpt lat="-27.2744394" lon="151.2900637">
  <ele>361.47</ele>
  <time>2026-09-01T20:02:57Z</time>
  <course>10.77</course>
  <speed>0.0412310562561766</speed>
  <fix>3d</fix>
</trkpt>
<trkpt lat="-27.2744395" lon="151.2900637">
  <ele>361.0</ele>
  <time>2026-09-01T20:02:57Z</time>
  <course>14.71</course>
  <speed>0.02</speed>
  <fix>3d</fix>
</trkpt>
<trkpt lat="-27.2744394" lon="151.2900637">
  <ele>361.63</ele>
  <time>2026-09-01T20:02:57Z</time>
  <course>10.76</course>
  <speed>0.05099019513592785</speed>
  <fix>3d</fix>
</trkpt>
<trkpt lat="-27.2744394" lon="151.2900637">
  <ele>361.33</ele>
  <time>2026-09-01T20:02:57Z</time>
  <course>12.55</course>
  <speed>0.04</speed>
  <fix>3d</fix>
</trkpt>
<trkpt lat="-27.2744394" lon="151.2900637">
  <ele>361.79</ele>
  <time>2026-09-01T20:02:57Z</time>
  <course>10.76</course>
  <speed>0.05099019513592785</speed>
  <fix>3d</fix>
</trkpt>
<trkpt lat="-27.2744394" lon="151.2900637">
  <ele>361.33</ele>
  <time>2026-09-01T20:02:57Z</time>
  <course>12.55</course>
  <speed>0.04</speed>
  <fix>3d</fix>
</trkpt>
<trkpt lat="-27.2744393" lon="151.2900637">
  <ele>361.94</ele>
  <time>2026-09-01T20:02:57Z</time>
  <course>10.76</course>
  <speed>0.05099019513592785</speed>
  <fix>3d</fix>
</trkpt>
<trkpt lat="-27.2744393" lon="151.2900637">
  <ele>361.66</ele>
  <time>2026-09-01T20:02:57Z</time>
  <course>11.93</course>
  <speed>0.06</speed>
  <fix>3d</fix>
</trkpt>
<trkpt lat="-27.2744392" lon="151.2900637">
  <ele>362.09</ele>
  <time>2026-09-01T20:02:57Z</time>
  <course>10.76</course>
  <speed>0.05099019513592785</speed>
  <fix>3d</fix>
</trkpt>
<trkpt lat="-27.2744393" lon="151.2900637">
  <ele>361.66</ele>
  <time>2026-09-01T20:02:57Z</time>
  <course>11.93</course>
  <speed>0.06</speed>
  <fix>3d</fix>
</trkpt>
<trkpt lat="-27.2744392" lon="151.2900637">
  <ele>362.24</ele>
  <time>2026-09-01T20:02:57Z</time>
  <course>10.76</course>
  <speed>0.05099019513592785</speed>
  <fix>3d</fix>
</trkpt>
<trkpt lat="-27.2744392" lon="151.2900637">
  <ele>361.97</ele>
  <time>2026-09-01T20:02:57Z</time>
  <course>11.76</course>
  <speed>0.06</speed>
  <fix>3d</fix>
</trkpt>
<trkpt lat="-27.2744391" lon="151.2900638">
  <ele>362.39</ele>
  <time>2026-09-01T20:02:57Z</time>
  <course>10.77</course>
  <speed>0.05099019513592785</speed>
  <fix>3d</fix>
</trkpt>
<trkpt lat="-27.2744392" lon="151.2900637">
  <ele>361.97</ele>
  <time>2026-09-01T20:02:57Z</time>
  <course>11.76</course>
  <speed>0.06</speed>
  <fix>3d</fix>
</trkpt>
<trkpt lat="-27.2744391" lon="151.2900638">
  <ele>362.53</ele>
  <time>2026-09-01T20:02:57Z</time>
  <course>10.77</course>
  <speed>0.05099019513592785</speed>
  <fix>3d</fix>
</trkpt>
<trkpt lat="-27.2744391" lon="151.2900637">
  <ele>362.27</ele>
  <time>2026-09-01T20:02:57Z</time>
  <course>11.62</course>
  <speed>0.07</speed>
  <fix>3d</fix>
</trkpt>
<trkpt lat="-27.274439" lon="151.2900638">
  <ele>362.67</ele>
  <time>2026-09-01T20:02:57Z</time>
  <course>10.77</course>
  <speed>0.05099019513592785</speed>
  <fix>3d</fix>
</trkpt>
<trkpt lat="-27.2744391" lon="151.2900637">
  <ele>362.27</ele>
  <time>2026-09-01T20:02:57Z</time>
  <course>11.62</course>
  <speed>0.07</speed>
  <fix>3d</fix>
</trkpt>
<trkpt lat="-27.274439" lon="151.2900638">
  <ele>362.81</ele>
  <time>2026-09-01T20:02:57Z</time>
  <course>10.77</course>
  <speed>0.05099019513592785</speed>
  <fix>3d</fix>
</trkpt>
<trkpt lat="-27.274439" lon="151.2900637">
  <ele>362.56</ele>
  <time>2026-09-01T20:02:57Z</time>
  <course>11.74</course>
  <speed>0.06</speed>
  <fix>3d</fix>
</trkpt>
<trkpt lat="-27.2744389" lon="151.2900638">
  <ele>362.95</ele>
  <time>2026-09-01T20:02:57Z</time>
  <course>10.77</course>
  <speed>0.0412310562561766</speed>
  <fix>3d</fix>
</trkpt>
<trkpt lat="-27.274439" lon="151.2900637">
  <ele>362.56</ele>
  <time>2026-09-01T20:02:57Z</time>
  <course>11.74</course>
  <speed>0.06</speed>
  <fix>3d</fix>
</trkpt>
<trkpt lat="-27.2744389" lon="151.2900638">
  <ele>363.09</ele>
  <time>2026-09-01T20:02:57Z</time>
  <course>10.77</course>
  <speed>0.0412310562561766</speed>
  <fix>3d</fix>
</trkpt>
<trkpt lat="-27.2744389" lon="151.2900637">
  <ele>362.83</ele>
  <time>2026-09-01T20:02:57Z</time>
  <course>12.5</course>
  <speed>0.06</speed>
  <fix>3d</fix>
</trkpt>
<trkpt lat="-27.2744388" lon="151.2900638">
  <ele>363.22</ele>
  <time>2026-09-01T20:02:57Z</time>
  <course>10.77</course>
  <speed>0.0412310562561766</speed>
  <fix>3d</fix>
</trkpt>
<trkpt lat="-27.2744389" lon="151.2900637">
  <ele>362.83</ele>
  <time>2026-09-01T20:02:57Z</time>
  <course>12.5</course>
  <speed>0.06</speed>
  <fix>3d</fix>
</trkpt>
<trkpt lat="-27.2744388" lon="151.2900638">
  <ele>363.36</ele>
  <time>2026-09-01T20:02:57Z</time>
  <course>10.77</course>
  <speed>0.0316227766016838</speed>
  <fix>3d</fix>
</trkpt>
<trkpt lat="-27.2744387" lon="151.2900637">
  <ele>363.11</ele>
  <time>2026-09-01T20:02:57Z</time>
  <course>13.75</course>
  <speed>0.05</speed>
  <fix>3d</fix>
</trkpt>
<trkpt lat="-27.2744387" lon="151.2900638">
  <ele>363.5</ele>
  <time>2026-09-01T20:02:57Z</time>
  <course>10.77</course>
  <speed>0.0316227766016838</speed>
  <fix>3d</fix>
</trkpt>
<trkpt lat="-27.2744387" lon="151.2900637">
  <ele>363.11</ele>
  <time>2026-09-01T20:02:57Z</time>
  <course>13.75</course>
  <speed>0.05</speed>
  <fix>3d</fix>
</trkpt>
<trkpt lat="-27.2744387" lon="151.2900638">
  <ele>363.64</ele>
  <time>2026-09-01T20:02:57Z</time>
  <course>10.78</course>
  <speed>0.022360679774997897</speed>
  <fix>3d</fix>
</trkpt>
<trkpt lat="-27.2744387" lon="151.2900637">
  <ele>363.38</ele>
  <time>2026-09-01T20:02:57Z</time>
  <course>15.32</course>
  <speed>0.04</speed>
  <fix>3d</fix>
</trkpt>
<trkpt lat="-27.2744387" lon="151.2900638">
  <ele>363.78</ele>
  <time>2026-09-01T20:02:57Z</time>
  <course>10.79</course>
  <speed>0.022360679774997897</speed>
  <fix>3d</fix>
</trkpt>
<trkpt lat="-27.2744387" lon="151.2900637">
  <ele>363.38</ele>
  <time>2026-09-01T20:02:57Z</time>
  <course>15.32</course>
  <speed>0.04</speed>
  <fix>3d</fix>
</trkpt>
<trkpt lat="-27.2744386" lon="151.2900638">
  <ele>363.92</ele>
  <time>2026-09-01T20:02:57Z</time>
  <course>10.79</course>
  <speed>0.022360679774997897</speed>
  <fix>3d</fix>
</trkpt>
<trkpt lat="-27.2744386" lon="151.2900638">
  <ele>363.65</ele>
  <time>2026-09-01T20:02:57Z</time>
  <course>17.08</course>
  <speed>0.04</speed>
  <fix>3d</fix>
</trkpt>
<trkpt lat="-27.2744386" lon="151.2900638">
  <ele>364.06</ele>
  <time>2026-09-01T20:02:57Z</time>
  <course>10.8</course>
  <speed>0.022360679774997897</speed>
  <fix>3d</fix>
</trkpt>
<trkpt lat="-27.2744386" lon="151.2900638">
  <ele>363.65</ele>
  <time>2026-09-01T20:02:57Z</time>
  <course>17.08</course>
  <speed>0.04</speed>
  <fix>3d</fix>
</trkpt>
<trkpt lat="-27.2744386" lon="151.2900638">
  <ele>364.21</ele>
  <time>2026-09-01T20:02:57Z</time>
  <course>10.8</course>
  <speed>0.01414213562373095</speed>
  <fix>3d</fix>
</trkpt>
<trkpt lat="-27.2744385" lon="151.2900639">
  <ele>363.94</ele>
  <time>2026-09-01T20:02:57Z</time>
  <course>19.14</course>
  <speed>0.03</speed>
  <fix>3d</fix>
</trkpt>
<trkpt lat="-27.2744386" lon="151.2900638">
  <ele>364.35</ele>
  <time>2026-09-01T20:02:57Z</time>
  <course>10.81</course>
  <speed>0.01414213562373095</speed>
  <fix>3d</fix>
</trkpt>
<trkpt lat="-27.2744385" lon="151.2900639">
  <ele>363.94</ele>
  <time>2026-09-01T20:02:57Z</time>
  <course>19.14</course>
  <speed>0.03</speed>
  <fix>3d</fix>
</trkpt>
<trkpt lat="-27.2744385" lon="151.2900638">
  <ele>364.49</ele>
  <time>2026-09-01T20:02:57Z</time>
  <course>10.81</course>
  <speed>0.01414213562373095</speed>
  <fix>3d</fix>
</trkpt>
<trkpt lat="-27.2744385" lon="151.2900639">
  <ele>364.21</ele>
  <time>2026-09-01T20:02:57Z</time>
  <course>21.62</course>
  <speed>0.03</speed>
  <fix>3d</fix>
</trkpt>
<trkpt lat="-27.2744385" lon="151.2900639">
  <ele>364.63</ele>
  <time>2026-09-01T20:02:57Z</time>
  <course>10.81</course>
  <speed>0.0</speed>
  <fix>3d</fix>
</trkpt>
<trkpt lat="-27.2744385" lon="151.2900639">
  <ele>364.21</ele>
  <time>2026-09-01T20:02:57Z</time>
  <course>21.62</course>
  <speed>0.03</speed>
  <fix>3d</fix>
</trkpt>
<trkpt lat="-27.2744385" lon="151.2900639">
  <ele>364.78</ele>
  <time>2026-09-01T20:02:57Z</time>
  <course>10.81</course>
  <speed>0.0</speed>
  <fix>3d</fix>
</trkpt>
<trkpt lat="-27.2744384" lon="151.2900639">
  <ele>364.5</ele>
  <time>2026-09-01T20:02:57Z</time>
  <course>24.61</course>
  <speed>0.02</speed>
  <fix>3d</fix>
</trkpt>
<trkpt lat="-27.2744385" lon="151.2900639">
  <ele>364.92</ele>
  <time>2026-09-01T20:02:57Z</time>
  <course>10.82</course>
  <speed>0.0</speed>
  <fix>3d</fix>
</trkpt>
<trkpt lat="-27.2744384" lon="151.2900639">
  <ele>364.5</ele>
  <time>2026-09-01T20:02:57Z</time>
  <course>24.61</course>
  <speed>0.02</speed>
  <fix>3d</fix>
</trkpt>
<trkpt lat="-27.2744385" lon="151.2900639">
  <ele>365.06</ele>
  <time>2026-09-01T20:02:57Z</time>
  <course>10.83</course>
  <speed>0.0</speed>
  <fix>3d</fix>
</trkpt>
<trkpt lat="-27.2744384" lon="151.2900639">
  <ele>364.78</ele>
  <time>2026-09-01T20:02:57Z</time>
  <course>27.23</course>
  <speed>0.02</speed>
  <fix>3d</fix>
</trkpt>
<trkpt lat="-27.2744385" lon="151.2900639">
  <ele>365.21</ele>
  <time>2026-09-01T20:02:57Z</time>
  <course>10.83</course>
  <speed>0.0</speed>
  <fix>3d</fix>
</trkpt>
<trkpt lat="-27.2744384" lon="151.2900639">
  <ele>364.78</ele>
  <time>2026-09-01T20:02:57Z</time>
  <course>27.23</course>
  <speed>0.02</speed>
  <fix>3d</fix>
</trkpt>
<trkpt lat="-27.2744385" lon="151.2900639">
  <ele>365.35</ele>
  <time>2026-09-01T20:02:57Z</time>
  <course>10.83</course>
  <speed>0.0</speed>
  <fix>3d</fix>
</trkpt>
<trkpt lat="-27.2744384" lon="151.2900639">
  <ele>365.07</ele>
  <time>2026-09-01T20:02:57Z</time>
  <course>29.33</course>
  <speed>0.01</speed>
  <fix>3d</fix>
</trkpt>
<trkpt lat="-27.2744385" lon="151.2900639">
  <ele>365.5</ele>
  <time>2026-09-01T20:02:57Z</time>
  <course>10.83</course>
  <speed>0.0</speed>
  <fix>3d</fix>
</trkpt>
<trkpt lat="-27.2744384" lon="151.2900639">
  <ele>365.07</ele>
  <time>2026-09-01T20:02:57Z</time>
  <course>29.33</course>
  <speed>0.01</speed>
  <fix>3d</fix>
</trkpt>
<trkpt lat="-27.2744384" lon="151.2900639">
  <ele>365.64</ele>
  <time>2026-09-01T20:02:57Z</time>
  <course>10.83</course>
  <speed>0.0</speed>
  <fix>3d</fix>
</trkpt>
<trkpt lat="-27.2744383" lon="151.290064">
  <ele>365.35</ele>
  <time>2026-09-01T20:02:57Z</time>
  <course>33.25</course>
  <speed>0.01</speed>
  <fix>3d</fix>
</trkpt>
<trkpt lat="-27.2744384" lon="151.2900639">
  <ele>365.78</ele>
  <time>2026-09-01T20:02:57Z</time>
  <course>10.83</course>
  <speed>0.0</speed>
  <fix>3d</fix>
</trkpt>
<trkpt lat="-27.2744383" lon="151.290064">
  <ele>365.35</ele>
  <time>2026-09-01T20:02:57Z</time>
  <course>33.25</course>
  <speed>0.01</speed>
  <fix>3d</fix>
</trkpt>
<trkpt lat="-27.2744384" lon="151.2900639">
  <ele>365.93</ele>
  <time>2026-09-01T20:02:57Z</time>
  <course>10.82</course>
  <speed>0.0</speed>
  <fix>3d</fix>
</trkpt>
<trkpt lat="-27.2744383" lon="151.290064">
  <ele>365.64</ele>
  <time>2026-09-01T20:02:57Z</time>
  <course>38.37</course>
  <speed>0.01</speed>
  <fix>3d</fix>
</trkpt>
<trkpt lat="-27.2744384" lon="151.2900639">
  <ele>366.07</ele>
  <time>2026-09-01T20:02:57Z</time>
  <course>10.81</course>
  <speed>0.0</speed>
  <fix>3d</fix>
</trkpt>
<trkpt lat="-27.2744383" lon="151.290064">
  <ele>365.64</ele>
  <time>2026-09-01T20:02:57Z</time>
  <course>38.37</course>
  <speed>0.01</speed>
  <fix>3d</fix>
</trkpt>
<trkpt lat="-27.2744384" lon="151.2900639">
  <ele>366.22</ele>
  <time>2026-09-01T20:02:57Z</time>
  <course>10.8</course>
  <speed>0.01</speed>
  <fix>3d</fix>
</trkpt>
<trkpt lat="-27.2744383" lon="151.290064">
  <ele>365.93</ele>
  <time>2026-09-01T20:02:57Z</time>
  <course>47.98</course>
  <speed>0.0</speed>
  <fix>3d</fix>
</trkpt>
<trkpt lat="-27.2744384" lon="151.290064">
  <ele>366.36</ele>
  <time>2026-09-01T20:02:57Z</time>
  <course>10.79</course>
  <speed>0.01</speed>
  <fix>3d</fix>
</trkpt>
<trkpt lat="-27.2744383" lon="151.290064">
  <ele>365.93</ele>
  <time>2026-09-01T20:02:57Z</time>
  <course>47.98</course>
  <speed>0.0</speed>
  <fix>3d</fix>
</trkpt>
<trkpt lat="-27.2744384" lon="151.290064">
  <ele>366.51</ele>
  <time>2026-09-01T20:02:57Z</time>
  <course>10.79</course>
  <speed>0.01</speed>
  <fix>3d</fix>
</trkpt>
<trkpt lat="-27.2744383" lon="151.290064">
  <ele>366.21</ele>
  <time>2026-09-01T20:02:57Z</time>
  <course>79.53</course>
  <speed>0.0</speed>
  <fix>3d</fix>
</trkpt>
<trkpt lat="-27.2744384" lon="151.290064">
  <ele>366.65</ele>
  <time>2026-09-01T20:02:57Z</time>
  <course>10.79</course>
  <speed>0.01</speed>
  <fix>3d</fix>
</trkpt>
<trkpt lat="-27.2744383" lon="151.290064">
  <ele>366.21</ele>
  <time>2026-09-01T20:02:57Z</time>
  <course>79.53</course>
  <speed>0.0</speed>
  <fix>3d</fix>
</trkpt>
<trkpt lat="-27.2744384" lon="151.290064">
  <ele>366.8</ele>
  <time>2026-09-01T20:02:57Z</time>
  <course>10.79</course>
  <speed>0.01</speed>
  <fix>3d</fix>
</trkpt>
<trkpt lat="-27.2744383" lon="151.290064">
  <ele>366.5</ele>
  <time>2026-09-01T20:02:57Z</time>
  <course>132.19</course>
  <speed>0.0</speed>
  <fix>3d</fix>
</trkpt>
<trkpt lat="-27.2744384" lon="151.290064">
  <ele>366.94</ele>
  <time>2026-09-01T20:02:57Z</time>
  <course>10.79</course>
  <speed>0.02</speed>
  <fix>3d</fix>
</trkpt>
<trkpt lat="-27.2744383" lon="151.290064">
  <ele>366.5</ele>
  <time>2026-09-01T20:02:57Z</time>
  <course>132.19</course>
  <speed>0.0</speed>
  <fix>3d</fix>
</trkpt>
<trkpt lat="-27.2744384" lon="151.290064">
  <ele>367.08</ele>
  <time>2026-09-01T20:02:57Z</time>
  <course>10.79</course>
  <speed>0.02</speed>
  <fix>3d</fix>
</trkpt>
<trkpt lat="-27.2744383" lon="151.290064">
  <ele>366.78</ele>
  <time>2026-09-01T20:02:57Z</time>
  <course>159.63</course>
  <speed>0.0</speed>
  <fix>3d</fix>
</trkpt>
<trkpt lat="-27.2744384" lon="151.290064">
  <ele>367.22</ele>
  <time>2026-09-01T20:02:57Z</time>
  <course>10.8</course>
  <speed>0.02</speed>
  <fix>3d</fix>
</trkpt>
<trkpt lat="-27.2744383" lon="151.290064">
  <ele>366.78</ele>
  <time>2026-09-01T20:02:57Z</time>
  <course>159.63</course>
  <speed>0.0</speed>
  <fix>3d</fix>
</trkpt>
<trkpt lat="-27.2744384" lon="151.290064">
  <ele>367.37</ele>
  <time>2026-09-01T20:02:57Z</time>
  <course>10.8</course>
  <speed>0.02</speed>
  <fix>3d</fix>
</trkpt>
<trkpt lat="-27.2744383" lon="151.290064">
  <ele>367.07</ele>
  <time>2026-09-01T20:02:57Z</time>
  <course>171.25</course>
  <speed>0.01</speed>
  <fix>3d</fix>
</trkpt>
<trkpt lat="-27.2744384" lon="151.290064">
  <ele>367.51</ele>
  <time>2026-09-01T20:02:57Z</time>
  <course>10.79</course>
  <speed>0.02</speed>
  <fix>3d</fix>
</trkpt>
<trkpt lat="-27.2744383" lon="151.290064">
  <ele>367.07</ele>
  <time>2026-09-01T20:02:57Z</time>
  <course>171.25</course>
  <speed>0.01</speed>
  <fix>3d</fix>
</trkpt>
<trkpt lat="-27.2744384" lon="151.290064">
  <ele>367.66</ele>
  <time>2026-09-01T20:02:57Z</time>
  <course>10.79</course>
  <speed>0.02</speed>
  <fix>3d</fix>
</trkpt>
<trkpt lat="-27.2744383" lon="151.290064">
  <ele>367.36</ele>
  <time>2026-09-01T20:02:57Z</time>
  <course>175.79</course>
  <speed>0.01</speed>
  <fix>3d</fix>
</trkpt>
<trkpt lat="-27.2744384" lon="151.290064">
  <ele>367.8</ele>
  <time>2026-09-01T20:02:57Z</time>
  <course>10.78</course>
  <speed>0.02</speed>
  <fix>3d</fix>
</trkpt>
<trkpt lat="-27.2744383" lon="151.290064">
  <ele>367.36</ele>
  <time>2026-09-01T20:02:57Z</time>
  <course>175.79</course>
  <speed>0.01</speed>
  <fix>3d</fix>
</trkpt>
<trkpt lat="-27.2744384" lon="151.290064">
  <ele>367.95</ele>
  <time>2026-09-01T20:02:57Z</time>
  <course>10.78</course>
  <speed>0.02</speed>
  <fix>3d</fix>
</trkpt>
<trkpt lat="-27.2744383" lon="151.290064">
  <ele>367.64</ele>
  <time>2026-09-01T20:02:57Z</time>
  <course>177.15</course>
  <speed>0.01</speed>
  <fix>3d</fix>
</trkpt>
<trkpt lat="-27.2744384" lon="151.290064">
  <ele>368.09</ele>
  <time>2026-09-01T20:02:57Z</time>
  <course>10.78</course>
  <speed>0.02</speed>
  <fix>3d</fix>
</trkpt>
<trkpt lat="-27.2744383" lon="151.290064">
  <ele>367.64</ele>
  <time>2026-09-01T20:02:57Z</time>
  <course>177.15</course>
  <speed>0.01</speed>
  <fix>3d</fix>
</trkpt>
<trkpt lat="-27.2744384" lon="151.290064">
  <ele>368.23</ele>
  <time>2026-09-01T20:02:57Z</time>
  <course>10.77</course>
  <speed>0.02</speed>
  <fix>3d</fix>
</trkpt>
<trkpt lat="-27.2744383" lon="151.290064">
  <ele>367.92</ele>
  <time>2026-09-01T20:02:57Z</time>
  <course>178.78</course>
  <speed>0.01</speed>
  <fix>3d</fix>
</trkpt>
<trkpt lat="-27.2744384" lon="151.290064">
  <ele>368.37</ele>
  <time>2026-09-01T20:02:57Z</time>
  <course>10.76</course>
  <speed>0.02</speed>
  <fix>3d</fix>
</trkpt>
<trkpt lat="-27.2744383" lon="151.290064">
  <ele>367.92</ele>
  <time>2026-09-01T20:02:57Z</time>
  <course>178.78</course>
  <speed>0.01</speed>
  <fix>3d</fix>
</trkpt>
<trkpt lat="-27.2744384" lon="151.290064">
  <ele>368.52</ele>
  <time>2026-09-01T20:02:57Z</time>
  <course>10.76</course>
  <speed>0.02</speed>
  <fix>3d</fix>
</trkpt>
<trkpt lat="-27.2744383" lon="151.290064">
  <ele>368.21</ele>
  <time>2026-09-01T20:02:57Z</time>
  <course>179.58</course>
  <speed>0.01</speed>
  <fix>3d</fix>
</trkpt>
<trkpt lat="-27.2744385" lon="151.290064">
  <ele>368.66</ele>
  <time>2026-09-01T20:02:57Z</time>
  <course>10.76</course>
  <speed>0.02</speed>
  <fix>3d</fix>
</trkpt>
<trkpt lat="-27.2744383" lon="151.290064">
  <ele>368.21</ele>
  <time>2026-09-01T20:02:57Z</time>
  <course>179.58</course>
  <speed>0.01</speed>
  <fix>3d</fix>
</trkpt>
<trkpt lat="-27.2744385" lon="151.290064">
  <ele>368.66</ele>
  <time>2026-09-01T20:02:57Z</time>
  <course>10.76</course>
  <speed>0.02</speed>
  <fix>3d</fix>
</trkpt>
<trkpt lat="-27.2744384" lon="151.290064">
  <ele>368.8</ele>
  <time>2026-09-01T20:02:57Z</time>
  <course>10.65</course>
  <speed>0.0</speed>
  <fix>3d</fix>
</trkpt>
<trkpt lat="-27.2744383" lon="151.290064">
  <ele>368.49</ele>
  <time>2026-09-01T20:02:57Z</time>
  <course>180.02</course>
  <speed>0.01</speed>
  <fix>3d</fix>
</trkpt>
<trkpt lat="-27.2744384" lon="151.290064">
  <ele>368.89</ele>
  <time>2026-09-01T20:02:57Z</time>
  <course>10.34</course>
  <speed>0.06082762530298219</speed>
  <fix>3d</fix>
</trkpt>
<trkpt lat="-27.2744383" lon="151.290064">
  <ele>368.49</ele>
  <time>2026-09-01T20:02:57Z</time>
  <course>180.02</course>
  <speed>0.01</speed>
  <fix>3d</fix>
</trkpt>
<trkpt lat="-27.2744384" lon="151.290064">
  <ele>368.74</ele>
  <time>2026-09-01T20:02:57Z</time>
  <course>10.04</course>
  <speed>0.09219544457292887</speed>
  <fix>3d</fix>
</trkpt>
<trkpt lat="-27.2744383" lon="151.290064">
  <ele>368.76</ele>
  <time>2026-09-01T20:02:57Z</time>
  <course>10.35</course>
  <speed>0.02</speed>
  <fix>3d</fix>
</trkpt>
<trkpt lat="-27.2744383" lon="151.290064">
  <ele>368.67</ele>
  <time>2026-09-01T20:02:57Z</time>
  <course>9.75</course>
  <speed>0.1019803902718557</speed>
  <fix>3d</fix>
</trkpt>
<trkpt lat="-27.2744383" lon="151.290064">
  <ele>368.76</ele>
  <time>2026-09-01T20:02:57Z</time>
  <course>10.35</course>
  <speed>0.02</speed>
  <fix>3d</fix>
</trkpt>
<trkpt lat="-27.2744382" lon="151.2900641">
  <ele>368.46</ele>
  <time>2026-09-01T20:02:57Z</time>
  <course>9.38</course>
  <speed>0.1044030650891055</speed>
  <fix>3d</fix>
</trkpt>
<trkpt lat="-27.2744383" lon="151.290064">
  <ele>368.83</ele>
  <time>2026-09-01T20:02:57Z</time>
  <course>8.44</course>
  <speed>0.09</speed>
  <fix>3d</fix>
</trkpt>
<trkpt lat="-27.2744381" lon="151.2900641">
  <ele>368.12</ele>
  <time>2026-09-01T20:02:57Z</time>
  <course>8.79</course>
  <speed>0.12083045973594572</speed>
  <fix>3d</fix>
</trkpt>
<trkpt lat="-27.2744383" lon="151.290064">
  <ele>368.83</ele>
  <time>2026-09-01T20:02:57Z</time>
  <course>8.44</course>
  <speed>0.09</speed>
  <fix>3d</fix>
</trkpt>
<trkpt lat="-27.274438" lon="151.2900642">
  <ele>367.72</ele>
  <time>2026-09-01T20:02:57Z</time>
  <course>7.91</course>
  <speed>0.147648230602334</speed>
  <fix>3d</fix>
</trkpt>
<trkpt lat="-27.2744381" lon="151.2900641">
  <ele>368.56</ele>
  <time>2026-09-01T20:02:57Z</time>
  <course>14.21</course>
  <speed>0.12</speed>
  <fix>3d</fix>
</trkpt>
<trkpt lat="-27.2744378" lon="151.2900642">
  <ele>367.23</ele>
  <time>2026-09-01T20:02:57Z</time>
  <course>6.86</course>
  <speed>0.17464249196572978</speed>
  <fix>3d</fix>
</trkpt>
<trkpt lat="-27.2744381" lon="151.2900641">
  <ele>368.56</ele>
  <time>2026-09-01T20:02:57Z</time>
  <course>14.21</course>
  <speed>0.12</speed>
  <fix>3d</fix>
</trkpt>
<trkpt lat="-27.2744377" lon="151.2900643">
  <ele>366.73</ele>
  <time>2026-09-01T20:02:57Z</time>
  <course>5.84</course>
  <speed>0.21189620100417092</speed>
  <fix>3d</fix>
</trkpt>
<trkpt lat="-27.2744379" lon="151.2900641">
  <ele>367.97</ele>
  <time>2026-09-01T20:02:57Z</time>
  <course>19.61</course>
  <speed>0.16</speed>
  <fix>3d</fix>
</trkpt>
<trkpt lat="-27.2744374" lon="151.2900644">
  <ele>366.17</ele>
  <time>2026-09-01T20:02:57Z</time>
  <course>4.87</course>
  <speed>0.2692582403567252</speed>
  <fix>3d</fix>
</trkpt>
<trkpt lat="-27.2744379" lon="151.2900641">
  <ele>367.97</ele>
  <time>2026-09-01T20:02:57Z</time>
  <course>19.61</course>
  <speed>0.16</speed>
  <fix>3d</fix>
</trkpt>
<trkpt lat="-27.2744372" lon="151.2900644">
  <ele>365.58</ele>
  <time>2026-09-01T20:02:57Z</time>
  <course>3.98</course>
  <speed>0.356931365951495</speed>
  <fix>3d</fix>
</trkpt>
<trkpt lat="-27.2744376" lon="151.2900642">
  <ele>367.14</ele>
  <time>2026-09-01T20:02:57Z</time>
  <course>15.04</course>
  <speed>0.23</speed>
  <fix>3d</fix>
</trkpt>
<trkpt lat="-27.2744368" lon="151.2900645">
  <ele>364.94</ele>
  <time>2026-09-01T20:02:57Z</time>
  <course>3.17</course>
  <speed>0.4751841748206689</speed>
  <fix>3d</fix>
</trkpt>
<trkpt lat="-27.2744376" lon="151.2900642">
  <ele>367.14</ele>
  <time>2026-09-01T20:02:57Z</time>
  <course>15.04</course>
  <speed>0.23</speed>
  <fix>3d</fix>
</trkpt>
<trkpt lat="-27.2744363" lon="151.2900645">
  <ele>364.24</ele>
  <time>2026-09-01T20:02:57Z</time>
  <course>2.39</course>
  <speed>0.6040695324215583</speed>
  <fix>3d</fix>
</trkpt>
<trkpt lat="-27.274437" lon="151.2900644">
  <ele>366.11</ele>
  <time>2026-09-01T20:02:57Z</time>
  <course>7.52</course>
  <speed>0.38</speed>
  <fix>3d</fix>
</trkpt>
<trkpt lat="-27.2744357" lon="151.2900646">
  <ele>363.48</ele>
  <time>2026-09-01T20:02:57Z</time>
  <course>1.65</course>
  <speed>0.8429116205154606</speed>
  <fix>3d</fix>
</trkpt>
<trkpt lat="-27.274437" lon="151.2900644">
  <ele>366.11</ele>
  <time>2026-09-01T20:02:57Z</time>
  <course>7.52</course>
  <speed>0.38</speed>
  <fix>3d</fix>
</trkpt>
<trkpt lat="-27.2744345" lon="151.2900647">
  <ele>362.67</ele>
  <time>2026-09-01T20:02:57Z</time>
  <course>0.95</course>
  <speed>1.7513994404475526</speed>
  <fix>3d</fix>
</trkpt>
<trkpt lat="-27.2744361" lon="151.2900645">
  <ele>364.87</ele>
  <time>2026-09-01T20:02:57Z</time>
  <course>3.25</course>
  <speed>0.64</speed>
  <fix>3d</fix>
</trkpt>
<trkpt lat="-27.2744327" lon="151.2900647">
  <ele>361.78</ele>
  <time>2026-09-01T20:02:57Z</time>
  <course>0.18</course>
  <speed>2.2111083193728884</speed>
  <fix>3d</fix>
</trkpt>
<trkpt lat="-27.2744361" lon="151.2900645">
  <ele>364.87</ele>
  <time>2026-09-01T20:02:57Z</time>
  <course>3.25</course>
  <speed>0.64</speed>
  <fix>3d</fix>
</trkpt>
<trkpt lat="-27.2744307" lon="151.2900648">
  <ele>360.81</ele>
  <time>2026-09-01T20:02:57Z</time>
  <course>358.91</course>
  <speed>2.2507998578283233</speed>
  <fix>3d</fix>
</trkpt>
<trkpt lat="-27.2744341" lon="151.2900645">
  <ele>363.38</ele>
  <time>2026-09-01T20:02:57Z</time>
  <course>0.06</course>
  <speed>1.5</speed>
  <fix>3d</fix>
</trkpt>
<trkpt lat="-27.2744288" lon="151.2900648">
  <ele>359.75</ele>
  <time>2026-09-01T20:02:57Z</time>
  <course>357.75</course>
  <speed>2.090861066642162</speed>
  <fix>3d</fix>
</trkpt>
<trkpt lat="-27.2744341" lon="151.2900645">
  <ele>363.38</ele>
  <time>2026-09-01T20:02:57Z</time>
  <course>0.06</course>
  <speed>1.5</speed>
  <fix>3d</fix>
</trkpt>
<trkpt lat="-27.274427" lon="151.2900648">
  <ele>358.6</ele>
  <time>2026-09-01T20:02:57Z</time>
  <course>358.04</course>
  <speed>2.060606706773517</speed>
  <fix>3d</fix>
</trkpt>
<trkpt lat="-27.2744306" lon="151.2900645">
  <ele>361.59</ele>
  <time>2026-09-01T20:02:57Z</time>
  <course>359.25</course>
  <speed>2.16</speed>
  <fix>3d</fix>
</trkpt>
<trkpt lat="-27.274425" lon="151.2900648">
  <ele>357.36</ele>
  <time>2026-09-01T20:02:57Z</time>
  <course>358.15</course>
  <speed>2.440184419260151</speed>
  <fix>3d</fix>
</trkpt>
<trkpt lat="-27.2744306" lon="151.2900645">
  <ele>361.59</ele>
  <time>2026-09-01T20:02:57Z</time>
  <course>359.25</course>
  <speed>2.16</speed>
  <fix>3d</fix>
</trkpt>
<trkpt lat="-27.2744225" lon="151.2900647">
  <ele>356.05</ele>
  <time>2026-09-01T20:02:57Z</time>
  <course>357.94</course>
  <speed>3.3200150602068055</speed>
  <fix>3d</fix>
</trkpt>
<trkpt lat="-27.2744267" lon="151.2900645">
  <ele>359.44</ele>
  <time>2026-09-01T20:02:57Z</time>
  <course>358.94</course>
  <speed>2.27</speed>
  <fix>3d</fix>
</trkpt>
<trkpt lat="-27.274419" lon="151.2900646">
  <ele>354.69</ele>
  <time>2026-09-01T20:02:57Z</time>
  <course>357.72</course>
  <speed>4.570886128531316</speed>
  <fix>3d</fix>
</trkpt>
<trkpt lat="-27.2744267" lon="151.2900645">
  <ele>359.44</ele>
  <time>2026-09-01T20:02:57Z</time>
  <course>358.94</course>
  <speed>2.27</speed>
  <fix>3d</fix>
</trkpt>
<trkpt lat="-27.2744142" lon="151.2900645">
  <ele>353.31</ele>
  <time>2026-09-01T20:02:57Z</time>
  <course>357.53</course>
  <speed>5.963354760535382</speed>
  <fix>3d</fix>
</trkpt>
<trkpt lat="-27.2744218" lon="151.2900643">
  <ele>356.97</ele>
  <time>2026-09-01T20:02:57Z</time>
  <course>357.65</course>
  <speed>3.47</speed>
  <fix>3d</fix>
</trkpt>
<trkpt lat="-27.2744083" lon="151.2900641">
  <ele>351.91</ele>
  <time>2026-09-01T20:02:57Z</time>
  <course>357.44</course>
  <speed>7.317000751674145</speed>
  <fix>3d</fix>
</trkpt>
<trkpt lat="-27.2744218" lon="151.2900643">
  <ele>356.97</ele>
  <time>2026-09-01T20:02:57Z</time>
  <course>357.65</course>
  <speed>3.47</speed>
  <fix>3d</fix>
</trkpt>
<trkpt lat="-27.2744012" lon="151.2900636">
  <ele>350.5</ele>
  <time>2026-09-01T20:02:57Z</time>
  <course>357.28</course>
  <speed>8.601261535379562</speed>
  <fix>3d</fix>
</trkpt>
<trkpt lat="-27.2744134" lon="151.2900638">
  <ele>354.28</ele>
  <time>2026-09-01T20:02:57Z</time>
  <course>356.42</course>
  <speed>5.9</speed>
  <fix>3d</fix>
</trkpt>
<trkpt lat="-27.274393" lon="151.290063">
  <ele>349.11</ele>
  <time>2026-09-01T20:02:57Z</time>
  <course>357.13</course>
  <speed>9.845374548487223</speed>
  <fix>3d</fix>
</trkpt>
<trkpt lat="-27.2744134" lon="151.2900638">
  <ele>354.28</ele>
  <time>2026-09-01T20:02:57Z</time>
  <course>356.42</course>
  <speed>5.9</speed>
  <fix>3d</fix>
</trkpt>
<trkpt lat="-27.2743837" lon="151.2900622">
  <ele>347.74</ele>
  <time>2026-09-01T20:02:57Z</time>
  <course>356.94</course>
  <speed>11.089066687508016</speed>
  <fix>3d</fix>
</trkpt>
<trkpt lat="-27.2744004" lon="151.2900628">
  <ele>351.51</ele>
  <time>2026-09-01T20:02:57Z</time>
  <course>355.84</course>
  <speed>8.56</speed>
  <fix>3d</fix>
</trkpt>
<trkpt lat="-27.2743736" lon="151.2900614">
  <ele>346.44</ele>
  <time>2026-09-01T20:02:57Z</time>
  <course>356.79</course>
  <speed>12.301678747227957</speed>
  <fix>3d</fix>
</trkpt>
<trkpt lat="-27.2744004" lon="151.2900628">
  <ele>351.51</ele>
  <time>2026-09-01T20:02:57Z</time>
  <course>355.84</course>
  <speed>8.56</speed>
  <fix>3d</fix>
</trkpt>
<trkpt lat="-27.2743617" lon="151.2900604">
  <ele>345.14</ele>
  <time>2026-09-01T20:02:57Z</time>
  <course>356.64</course>
  <speed>13.534260230984183</speed>
  <fix>3d</fix>
</trkpt>
<trkpt lat="-27.2743827" lon="151.2900614">
  <ele>348.8</ele>
  <time>2026-09-01T20:02:57Z</time>
  <course>355.8</course>
  <speed>11.09</speed>
  <fix>3d</fix>
</trkpt>
<trkpt lat="-26.9720619" lon="149.6127921">
  <ele>339.29</ele>
  <time>2026-09-01T20:02:58Z</time>
  <course>310.27</course>
  <speed>0.0</speed>
  <fix>3d</fix>
</trkpt>
<trkpt lat="-26.9720619" lon="149.6127921">
  <ele>339.29</ele>
  <time>2026-09-01T20:02:58Z</time>
  <course>310.27</course>
  <speed>0.0</speed>
  <fix>3d</fix>
</trkpt>
<trkpt lat="-27.274439" lon="151.290064">
  <ele>-0.01</ele>
  <time>2026-09-01T20:02:58Z</time>
  <course>0.22</course>
  <speed>0.0</speed>
  <fix>3d</fix>
</trkpt>
<trkpt lat="-27.274439" lon="151.290064">
  <ele>343.1</ele>
  <time>2026-09-01T20:02:58Z</time>
  <course>294.58</course>
  <speed>0.0</speed>
  <fix>3d</fix>
</trkpt>
<trkpt lat="-27.274439" lon="151.290064">
  <ele>0.02</ele>
  <time>2026-09-01T20:02:58Z</time>
  <course>1.2</course>
  <speed>0.0</speed>
  <fix>3d</fix>
</trkpt>
<trkpt lat="-27.274439" lon="151.290064">
  <ele>343.1</ele>
  <time>2026-09-01T20:02:58Z</time>
  <course>294.58</course>
  <speed>0.0</speed>
  <fix>3d</fix>
</trkpt>
<trkpt lat="-27.274439" lon="151.290064">
  <ele>-0.08</ele>
  <time>2026-09-01T20:02:58Z</time>
  <course>2.1</course>
  <speed>0.0</speed>
  <fix>3d</fix>
</trkpt>
<trkpt lat="-27.274439" lon="151.290064">
  <ele>343.1</ele>
  <time>2026-09-01T20:02:58Z</time>
  <course>273.33</course>
  <speed>0.0</speed>
  <fix>3d</fix>
</trkpt>
<trkpt lat="-27.274439" lon="151.290064">
  <ele>0.22</ele>
  <time>2026-09-01T20:02:58Z</time>
  <course>2.92</course>
  <speed>0.0</speed>
  <fix>3d</fix>
</trkpt>
<trkpt lat="-27.274439" lon="151.290064">
  <ele>343.1</ele>
  <time>2026-09-01T20:02:58Z</time>
  <course>273.33</course>
  <speed>0.0</speed>
  <fix>3d</fix>
</trkpt>
<trkpt lat="-27.274439" lon="151.290064">
  <ele>0.09</ele>
  <time>2026-09-01T20:02:58Z</time>
  <course>3.66</course>
  <speed>0.0</speed>
  <fix>3d</fix>
</trkpt>
<trkpt lat="-27.274439" lon="151.290064">
  <ele>343.1</ele>
  <time>2026-09-01T20:02:58Z</time>
  <course>270.44</course>
  <speed>0.0</speed>
  <fix>3d</fix>
</trkpt>
<trkpt lat="-27.274439" lon="151.290064">
  <ele>0.08</ele>
  <time>2026-09-01T20:02:58Z</time>
  <course>4.34</course>
  <speed>0.0</speed>
  <fix>3d</fix>
</trkpt>
<trkpt lat="-27.274439" lon="151.290064">
  <ele>343.1</ele>
  <time>2026-09-01T20:02:58Z</time>
  <course>270.44</course>
  <speed>0.0</speed>
  <fix>3d</fix>
</trkpt>
<trkpt lat="-27.274439" lon="151.290064">
  <ele>0.09</ele>
  <time>2026-09-01T20:02:58Z</time>
  <course>4.95</course>
  <speed>0.0</speed>
  <fix>3d</fix>
</trkpt>
<trkpt lat="-27.274439" lon="151.290064">
  <ele>343.1</ele>
  <time>2026-09-01T20:02:58Z</time>
  <course>270.05</course>
  <speed>0.0</speed>
  <fix>3d</fix>
</trkpt>
<trkpt lat="-27.274439" lon="151.290064">
  <ele>-0.05</ele>
  <time>2026-09-01T20:02:58Z</time>
  <course>5.5</course>
  <speed>0.0</speed>
  <fix>3d</fix>
</trkpt>
<trkpt lat="-27.274439" lon="151.290064">
  <ele>343.1</ele>
  <time>2026-09-01T20:02:58Z</time>
  <course>270.05</course>
  <speed>0.0</speed>
  <fix>3d</fix>
</trkpt>
<trkpt lat="-27.274439" lon="151.290064">
  <ele>343.06</ele>
  <time>2026-09-01T20:02:58Z</time>
  <course>5.98</course>
  <speed>0.0</speed>
  <fix>3d</fix>
</trkpt>
<trkpt lat="-27.274439" lon="151.290064">
  <ele>343.1</ele>
  <time>2026-09-01T20:02:58Z</time>
  <course>270.0</course>
  <speed>0.0</speed>
  <fix>3d</fix>
</trkpt>
<trkpt lat="-27.274439" lon="151.290064">
  <ele>343.18</ele>
  <time>2026-09-01T20:02:58Z</time>
  <course>6.44</course>
  <speed>0.0</speed>
  <fix>3d</fix>
</trkpt>
<trkpt lat="-27.274439" lon="151.290064">
  <ele>343.1</ele>
  <time>2026-09-01T20:02:58Z</time>
  <course>270.0</course>
  <speed>0.0</speed>
  <fix>3d</fix>
</trkpt>
<trkpt lat="-27.274439" lon="151.290064">
  <ele>342.91</ele>
  <time>2026-09-01T20:02:58Z</time>
  <course>6.85</course>
  <speed>0.0</speed>
  <fix>3d</fix>
</trkpt>
<trkpt lat="-27.274439" lon="151.290064">
  <ele>343.1</ele>
  <time>2026-09-01T20:02:58Z</time>
  <course>270.0</course>
  <speed>0.0</speed>
  <fix>3d</fix>
</trkpt>
<trkpt lat="-27.274439" lon="151.290064">
  <ele>343.06</ele>
  <time>2026-09-01T20:02:58Z</time>
  <course>7.22</course>
  <speed>0.0</speed>
  <fix>3d</fix>
</trkpt>
<trkpt lat="-27.274439" lon="151.290064">
  <ele>343.1</ele>
  <time>2026-09-01T20:02:58Z</time>
  <course>270.0</course>
  <speed>0.0</speed>
  <fix>3d</fix>
</trkpt>
<trkpt lat="-27.274439" lon="151.290064">
  <ele>343.13</ele>
  <time>2026-09-01T20:02:58Z</time>
  <course>7.56</course>
  <speed>0.0</speed>
  <fix>3d</fix>
</trkpt>
<trkpt lat="-27.274439" lon="151.290064">
  <ele>343.1</ele>
  <time>2026-09-01T20:02:58Z</time>
  <course>270.0</course>
  <speed>0.0</speed>
  <fix>3d</fix>
</trkpt>
<trkpt lat="-27.274439" lon="151.290064">
  <ele>343.04</ele>
  <time>2026-09-01T20:02:58Z</time>
  <course>7.87</course>
  <speed>0.0</speed>
  <fix>3d</fix>
</trkpt>
<trkpt lat="-27.274439" lon="151.290064">
  <ele>343.1</ele>
  <time>2026-09-01T20:02:58Z</time>
  <course>270.0</course>
  <speed>0.0</speed>
  <fix>3d</fix>
</trkpt>
<trkpt lat="-27.274439" lon="151.290064">
  <ele>342.88</ele>
  <time>2026-09-01T20:02:58Z</time>
  <course>8.14</course>
  <speed>0.0</speed>
  <fix>3d</fix>
</trkpt>
<trkpt lat="-27.274439" lon="151.290064">
  <ele>343.1</ele>
  <time>2026-09-01T20:02:58Z</time>
  <course>270.0</course>
  <speed>0.0</speed>
  <fix>3d</fix>
</trkpt>
<trkpt lat="-27.274439" lon="151.290064">
  <ele>343.02</ele>
  <time>2026-09-01T20:02:58Z</time>
  <course>8.39</course>
  <speed>0.0</speed>
  <fix>3d</fix>
</trkpt>
<trkpt lat="-27.274439" lon="151.290064">
  <ele>343.1</ele>
  <time>2026-09-01T20:02:58Z</time>
  <course>270.0</course>
  <speed>0.0</speed>
  <fix>3d</fix>
</trkpt>
<trkpt lat="-27.274439" lon="151.290064">
  <ele>343.23</ele>
  <time>2026-09-01T20:02:58Z</time>
  <course>8.63</course>
  <speed>0.0</speed>
  <fix>3d</fix>
</trkpt>
<trkpt lat="-27.274439" lon="151.290064">
  <ele>343.1</ele>
  <time>2026-09-01T20:02:58Z</time>
  <course>270.0</course>
  <speed>0.0</speed>
  <fix>3d</fix>
</trkpt>
<trkpt lat="-27.274439" lon="151.290064">
  <ele>343.17</ele>
  <time>2026-09-01T20:02:58Z</time>
  <course>8.83</course>
  <speed>0.0</speed>
  <fix>3d</fix>
</trkpt>
<trkpt lat="-27.274439" lon="151.290064">
  <ele>343.1</ele>
  <time>2026-09-01T20:02:58Z</time>
  <course>270.0</course>
  <speed>0.0</speed>
  <fix>3d</fix>
</trkpt>
<trkpt lat="-27.274439" lon="151.290064">
  <ele>343.04</ele>
  <time>2026-09-01T20:02:58Z</time>
  <course>9.01</course>
  <speed>0.0</speed>
  <fix>3d</fix>
</trkpt>
<trkpt lat="-27.274439" lon="151.290064">
  <ele>343.1</ele>
  <time>2026-09-01T20:02:58Z</time>
  <course>270.0</course>
  <speed>0.0</speed>
  <fix>3d</fix>
</trkpt>
<trkpt lat="-27.274439" lon="151.290064">
  <ele>342.89</ele>
  <time>2026-09-01T20:02:58Z</time>
  <course>9.18</course>
  <speed>0.0</speed>
  <fix>3d</fix>
</trkpt>
<trkpt lat="-27.274439" lon="151.290064">
  <ele>343.1</ele>
  <time>2026-09-01T20:02:58Z</time>
  <course>270.0</course>
  <speed>0.0</speed>
  <fix>3d</fix>
</trkpt>
<trkpt lat="-27.274439" lon="151.290064">
  <ele>343.08</ele>
  <time>2026-09-01T20:02:58Z</time>
  <course>9.33</course>
  <speed>0.0</speed>
  <fix>3d</fix>
</trkpt>
<trkpt lat="-27.274439" lon="151.290064">
  <ele>343.1</ele>
  <time>2026-09-01T20:02:58Z</time>
  <course>270.0</course>
  <speed>0.0</speed>
  <fix>3d</fix>
</trkpt>
<trkpt lat="-27.274439" lon="151.290064">
  <ele>343.19</ele>
  <time>2026-09-01T20:02:58Z</time>
  <course>9.47</course>
  <speed>0.0</speed>
  <fix>3d</fix>
</trkpt>
<trkpt lat="-27.274439" lon="151.290064">
  <ele>343.1</ele>
  <time>2026-09-01T20:02:58Z</time>
  <course>270.0</course>
  <speed>0.0</speed>
  <fix>3d</fix>
</trkpt>
<trkpt lat="-27.274439" lon="151.290064">
  <ele>342.88</ele>
  <time>2026-09-01T20:02:58Z</time>
  <course>9.59</course>
  <speed>0.0</speed>
  <fix>3d</fix>
</trkpt>
<trkpt lat="-27.274439" lon="151.290064">
  <ele>343.1</ele>
  <time>2026-09-01T20:02:58Z</time>
  <course>270.0</course>
  <speed>0.0</speed>
  <fix>3d</fix>
</trkpt>
<trkpt lat="-27.274439" lon="151.290064">
  <ele>343.17</ele>
  <time>2026-09-01T20:02:58Z</time>
  <course>9.7</course>
  <speed>0.0</speed>
  <fix>3d</fix>
</trkpt>
<trkpt lat="-27.274439" lon="151.290064">
  <ele>343.1</ele>
  <time>2026-09-01T20:02:58Z</time>
  <course>270.0</course>
  <speed>0.0</speed>
  <fix>3d</fix>
</trkpt>
<trkpt lat="-27.274439" lon="151.290064">
  <ele>342.89</ele>
  <time>2026-09-01T20:02:58Z</time>
  <course>9.8</course>
  <speed>0.0</speed>
  <fix>3d</fix>
</trkpt>
<trkpt lat="-27.274439" lon="151.290064">
  <ele>343.1</ele>
  <time>2026-09-01T20:02:58Z</time>
  <course>270.0</course>
  <speed>0.0</speed>
  <fix>3d</fix>
</trkpt>
<trkpt lat="-27.274439" lon="151.290064">
  <ele>342.99</ele>
  <time>2026-09-01T20:02:58Z</time>
  <course>9.9</course>
  <speed>0.0</speed>
  <fix>3d</fix>
</trkpt>
<trkpt lat="-27.274439" lon="151.290064">
  <ele>343.1</ele>
  <time>2026-09-01T20:02:58Z</time>
  <course>270.0</course>
  <speed>0.0</speed>
  <fix>3d</fix>
</trkpt>
<trkpt lat="-27.274439" lon="151.290064">
  <ele>342.87</ele>
  <time>2026-09-01T20:02:58Z</time>
  <course>9.98</course>
  <speed>0.0</speed>
  <fix>3d</fix>
</trkpt>
<trkpt lat="-27.274439" lon="151.290064">
  <ele>343.1</ele>
  <time>2026-09-01T20:02:58Z</time>
  <course>270.0</course>
  <speed>0.0</speed>
  <fix>3d</fix>
</trkpt>
<trkpt lat="-27.274439" lon="151.290064">
  <ele>343.09</ele>
  <time>2026-09-01T20:02:58Z</time>
  <course>10.06</course>
  <speed>0.0</speed>
  <fix>3d</fix>
</trkpt>
<trkpt lat="-27.274439" lon="151.290064">
  <ele>343.1</ele>
  <time>2026-09-01T20:02:58Z</time>
  <course>270.0</course>
  <speed>0.0</speed>
  <fix>3d</fix>
</trkpt>
<trkpt lat="-27.274439" lon="151.290064">
  <ele>343.18</ele>
  <time>2026-09-01T20:02:58Z</time>
  <course>10.13</course>
  <speed>0.0</speed>
  <fix>3d</fix>
</trkpt>
<trkpt lat="-27.274439" lon="151.290064">
  <ele>343.1</ele>
  <time>2026-09-01T20:02:58Z</time>
  <course>270.0</course>
  <speed>0.0</speed>
  <fix>3d</fix>
</trkpt>
<trkpt lat="-27.274439" lon="151.290064">
  <ele>343.05</ele>
  <time>2026-09-01T20:02:58Z</time>
  <course>10.2</course>
  <speed>0.0</speed>
  <fix>3d</fix>
</trkpt>
<trkpt lat="-27.274439" lon="151.290064">
  <ele>343.1</ele>
  <time>2026-09-01T20:02:58Z</time>
  <course>270.0</course>
  <speed>0.0</speed>
  <fix>3d</fix>
</trkpt>
<trkpt lat="-27.274439" lon="151.290064">
  <ele>342.96</ele>
  <time>2026-09-01T20:02:58Z</time>
  <course>10.25</course>
  <speed>0.0</speed>
  <fix>3d</fix>
</trkpt>
<trkpt lat="-27.274439" lon="151.290064">
  <ele>343.1</ele>
  <time>2026-09-01T20:02:58Z</time>
  <course>270.0</course>
  <speed>0.0</speed>
  <fix>3d</fix>
</trkpt>
<trkpt lat="-27.274439" lon="151.290064">
  <ele>343.1</ele>
  <time>2026-09-01T20:02:58Z</time>
  <course>10.31</course>
  <speed>0.0</speed>
  <fix>3d</fix>
</trkpt>
<trkpt lat="-27.274439" lon="151.290064">
  <ele>343.1</ele>
  <time>2026-09-01T20:02:58Z</time>
  <course>270.0</course>
  <speed>0.0</speed>
  <fix>3d</fix>
</trkpt>
<trkpt lat="-27.274439" lon="151.290064">
  <ele>343.22</ele>
  <time>2026-09-01T20:02:58Z</time>
  <course>10.35</course>
  <speed>0.0</speed>
  <fix>3d</fix>
</trkpt>
<trkpt lat="-27.274439" lon="151.290064">
  <ele>343.1</ele>
  <time>2026-09-01T20:02:58Z</time>
  <course>270.0</course>
  <speed>0.0</speed>
  <fix>3d</fix>
</trkpt>
<trkpt lat="-27.274439" lon="151.290064">
  <ele>343.17</ele>
  <time>2026-09-01T20:02:58Z</time>
  <course>10.4</course>
  <speed>0.0</speed>
  <fix>3d</fix>
</trkpt>
<trkpt lat="-27.274439" lon="151.290064">
  <ele>343.1</ele>
  <time>2026-09-01T20:02:58Z</time>
  <course>270.0</course>
  <speed>0.0</speed>
  <fix>3d</fix>
</trkpt>
<trkpt lat="-27.274439" lon="151.290064">
  <ele>343.08</ele>
  <time>2026-09-01T20:02:58Z</time>
  <course>10.44</course>
  <speed>0.0</speed>
  <fix>3d</fix>
</trkpt>
<trkpt lat="-27.274439" lon="151.290064">
  <ele>343.1</ele>
  <time>2026-09-01T20:02:58Z</time>
  <course>270.0</course>
  <speed>0.0</speed>
  <fix>3d</fix>
</trkpt>
<trkpt lat="-27.274439" lon="151.290064">
  <ele>343.04</ele>
  <time>2026-09-01T20:02:58Z</time>
  <course>10.47</course>
  <speed>0.0</speed>
  <fix>3d</fix>
</trkpt>
<trkpt lat="-27.274439" lon="151.290064">
  <ele>343.1</ele>
  <time>2026-09-01T20:02:58Z</time>
  <course>270.0</course>
  <speed>0.0</speed>
  <fix>3d</fix>
</trkpt>
<trkpt lat="-27.274439" lon="151.290064">
  <ele>343.18</ele>
  <time>2026-09-01T20:02:58Z</time>
  <course>10.5</course>
  <speed>0.0</speed>
  <fix>3d</fix>
</trkpt>
<trkpt lat="-27.274439" lon="151.290064">
  <ele>343.1</ele>
  <time>2026-09-01T20:02:58Z</time>
  <course>270.0</course>
  <speed>0.0</speed>
  <fix>3d</fix>
</trkpt>
<trkpt lat="-27.274439" lon="151.290064">
  <ele>343.12</ele>
  <time>2026-09-01T20:02:58Z</time>
  <course>10.53</course>
  <speed>0.0</speed>
  <fix>3d</fix>
</trkpt>
<trkpt lat="-27.274439" lon="151.290064">
  <ele>343.1</ele>
  <time>2026-09-01T20:02:58Z</time>
  <course>270.0</course>
  <speed>0.0</speed>
  <fix>3d</fix>
</trkpt>
<trkpt lat="-27.274439" lon="151.290064">
  <ele>343.04</ele>
  <time>2026-09-01T20:02:58Z</time>
  <course>10.56</course>
  <speed>0.0</speed>
  <fix>3d</fix>
</trkpt>
<trkpt lat="-27.274439" lon="151.290064">
  <ele>343.1</ele>
  <time>2026-09-01T20:02:58Z</time>
  <course>270.0</course>
  <speed>0.0</speed>
  <fix>3d</fix>
</trkpt>
<trkpt lat="-27.274439" lon="151.290064">
  <ele>343.07</ele>
  <time>2026-09-01T20:02:58Z</time>
  <course>10.58</course>
  <speed>0.0</speed>
  <fix>3d</fix>
</trkpt>
<trkpt lat="-27.274439" lon="151.290064">
  <ele>343.1</ele>
  <time>2026-09-01T20:02:58Z</time>
  <course>270.0</course>
  <speed>0.0</speed>
  <fix>3d</fix>
</trkpt>
<trkpt lat="-27.274439" lon="151.290064">
  <ele>343.04</ele>
  <time>2026-09-01T20:02:58Z</time>
  <course>10.6</course>
  <speed>0.0</speed>
  <fix>3d</fix>
</trkpt>
<trkpt lat="-27.274439" lon="151.290064">
  <ele>343.1</ele>
  <time>2026-09-01T20:02:58Z</time>
  <course>270.0</course>
  <speed>0.0</speed>
  <fix>3d</fix>
</trkpt>
<trkpt lat="-27.274439" lon="151.290064">
  <ele>343.01</ele>
  <time>2026-09-01T20:02:58Z</time>
  <course>10.62</course>
  <speed>0.0</speed>
  <fix>3d</fix>
</trkpt>
<trkpt lat="-27.274439" lon="151.290064">
  <ele>343.1</ele>
  <time>2026-09-01T20:02:58Z</time>
  <course>270.0</course>
  <speed>0.0</speed>
  <fix>3d</fix>
</trkpt>
<trkpt lat="-27.274439" lon="151.290064">
  <ele>343.2</ele>
  <time>2026-09-01T20:02:58Z</time>
  <course>10.64</course>
  <speed>0.0</speed>
  <fix>3d</fix>
</trkpt>
<trkpt lat="-27.274439" lon="151.290064">
  <ele>343.1</ele>
  <time>2026-09-01T20:02:58Z</time>
  <course>270.0</course>
  <speed>0.0</speed>
  <fix>3d</fix>
</trkpt>
<trkpt lat="-27.274439" lon="151.290064">
  <ele>343.24</ele>
  <time>2026-09-01T20:02:58Z</time>
  <course>10.65</course>
  <speed>0.0</speed>
  <fix>3d</fix>
</trkpt>
<trkpt lat="-27.274439" lon="151.290064">
  <ele>343.1</ele>
  <time>2026-09-01T20:02:59Z</time>
  <course>270.0</course>
  <speed>0.0</speed>
  <fix>3d</fix>
</trkpt>
<trkpt lat="-27.274439" lon="151.290064">
  <ele>342.88</ele>
  <time>2026-09-01T20:02:59Z</time>
  <course>10.67</course>
  <speed>0.0</speed>
  <fix>3d</fix>
</trkpt>
<trkpt lat="-27.274439" lon="151.290064">
  <ele>343.1</ele>
  <time>2026-09-01T20:02:59Z</time>
  <course>270.0</course>
  <speed>0.0</speed>
  <fix>3d</fix>
</trkpt>
<trkpt lat="-27.274439" lon="151.290064">
  <ele>343.21</ele>
  <time>2026-09-01T20:02:59Z</time>
  <course>10.68</course>
  <speed>0.0</speed>
  <fix>3d</fix>
</trkpt>
<trkpt lat="-27.274439" lon="151.290064">
  <ele>343.1</ele>
  <time>2026-09-01T20:02:59Z</time>
  <course>270.0</course>
  <speed>0.0</speed>
  <fix>3d</fix>
</trkpt>
<trkpt lat="-27.274439" lon="151.290064">
  <ele>343.02</ele>
  <time>2026-09-01T20:02:59Z</time>
  <course>10.69</course>
  <speed>0.0</speed>
  <fix>3d</fix>
</trkpt>
<trkpt lat="-27.274439" lon="151.290064">
  <ele>343.1</ele>
  <time>2026-09-01T20:02:59Z</time>
  <course>270.0</course>
  <speed>0.0</speed>
  <fix>3d</fix>
</trkpt>
<trkpt lat="-27.274439" lon="151.290064">
  <ele>342.93</ele>
  <time>2026-09-01T20:02:59Z</time>
  <course>10.7</course>
  <speed>0.0</speed>
  <fix>3d</fix>
</trkpt>
<trkpt lat="-27.274439" lon="151.290064">
  <ele>343.1</ele>
  <time>2026-09-01T20:02:59Z</time>
  <course>270.0</course>
  <speed>0.0</speed>
  <fix>3d</fix>
</trkpt>
<trkpt lat="-27.274439" lon="151.290064">
  <ele>343.07</ele>
  <time>2026-09-01T20:02:59Z</time>
  <course>10.71</course>
  <speed>0.0</speed>
  <fix>3d</fix>
</trkpt>
<trkpt lat="-27.274439" lon="151.290064">
  <ele>343.1</ele>
  <time>2026-09-01T20:02:59Z</time>
  <course>270.0</course>
  <speed>0.0</speed>
  <fix>3d</fix>
</trkpt>
<trkpt lat="-27.274439" lon="151.290064">
  <ele>342.94</ele>
  <time>2026-09-01T20:02:59Z</time>
  <course>10.72</course>
  <speed>0.0</speed>
  <fix>3d</fix>
</trkpt>
<trkpt lat="-27.274439" lon="151.290064">
  <ele>343.1</ele>
  <time>2026-09-01T20:02:59Z</time>
  <course>270.0</course>
  <speed>0.0</speed>
  <fix>3d</fix>
</trkpt>
<trkpt lat="-27.274439" lon="151.290064">
  <ele>343.11</ele>
  <time>2026-09-01T20:02:59Z</time>
  <course>10.73</course>
  <speed>0.0</speed>
  <fix>3d</fix>
</trkpt>
<trkpt lat="-27.274439" lon="151.290064">
  <ele>343.1</ele>
  <time>2026-09-01T20:02:59Z</time>
  <course>270.0</course>
  <speed>0.0</speed>
  <fix>3d</fix>
</trkpt>
<trkpt lat="-27.274439" lon="151.290064">
  <ele>343.24</ele>
  <time>2026-09-01T20:02:59Z</time>
  <course>10.73</course>
  <speed>0.0</speed>
  <fix>3d</fix>
</trkpt>
<trkpt lat="-27.274439" lon="151.290064">
  <ele>343.1</ele>
  <time>2026-09-01T20:02:59Z</time>
  <course>270.0</course>
  <speed>0.0</speed>
  <fix>3d</fix>
</trkpt>
<trkpt lat="-27.274439" lon="151.290064">
  <ele>343.18</ele>
  <time>2026-09-01T20:02:59Z</time>
  <course>10.74</course>
  <speed>0.0</speed>
  <fix>3d</fix>
</trkpt>
<trkpt lat="-27.274439" lon="151.290064">
  <ele>343.1</ele>
  <time>2026-09-01T20:02:59Z</time>
  <course>270.0</course>
  <speed>0.0</speed>
  <fix>3d</fix>
</trkpt>
<trkpt lat="-27.274439" lon="151.290064">
  <ele>342.89</ele>
  <time>2026-09-01T20:02:59Z</time>
  <course>10.75</course>
  <speed>0.0</speed>
  <fix>3d</fix>
</trkpt>
<trkpt lat="-27.274439" lon="151.290064">
  <ele>343.1</ele>
  <time>2026-09-01T20:02:59Z</time>
  <course>270.0</course>
  <speed>0.0</speed>
  <fix>3d</fix>
</trkpt>
<trkpt lat="-27.274439" lon="151.290064">
  <ele>343.23</ele>
  <time>2026-09-01T20:02:59Z</time>
  <course>10.75</course>
  <speed>0.0</speed>
  <fix>3d</fix>
</trkpt>
<trkpt lat="-27.274439" lon="151.290064">
  <ele>343.1</ele>
  <time>2026-09-01T20:02:59Z</time>
  <course>270.0</course>
  <speed>0.0</speed>
  <fix>3d</fix>
</trkpt>
<trkpt lat="-27.274439" lon="151.290064">
  <ele>343.23</ele>
  <time>2026-09-01T20:02:59Z</time>
  <course>10.76</course>
  <speed>0.0</speed>
  <fix>3d</fix>
</trkpt>
<trkpt lat="-27.274439" lon="151.290064">
  <ele>343.1</ele>
  <time>2026-09-01T20:02:59Z</time>
  <course>270.0</course>
  <speed>0.0</speed>
  <fix>3d</fix>
</trkpt>
<trkpt lat="-27.274439" lon="151.290064">
  <ele>342.99</ele>
  <time>2026-09-01T20:02:59Z</time>
  <course>10.76</course>
  <speed>0.0</speed>
  <fix>3d</fix>
</trkpt>
<trkpt lat="-27.274439" lon="151.290064">
  <ele>343.1</ele>
  <time>2026-09-01T20:02:59Z</time>
  <course>270.0</course>
  <speed>0.0</speed>
  <fix>3d</fix>
</trkpt>
<trkpt lat="-27.274439" lon="151.290064">
  <ele>343.13</ele>
  <time>2026-09-01T20:02:59Z</time>
  <course>10.76</course>
  <speed>0.0</speed>
  <fix>3d</fix>
</trkpt>
<trkpt lat="-27.274439" lon="151.290064">
  <ele>343.1</ele>
  <time>2026-09-01T20:02:59Z</time>
  <course>270.0</course>
  <speed>0.0</speed>
  <fix>3d</fix>
</trkpt>
<trkpt lat="-27.274439" lon="151.290064">
  <ele>343.07</ele>
  <time>2026-09-01T20:02:59Z</time>
  <course>10.77</course>
  <speed>0.0</speed>
  <fix>3d</fix>
</trkpt>
<trkpt lat="-27.274439" lon="151.290064">
  <ele>343.1</ele>
  <time>2026-09-01T20:02:59Z</time>
  <course>270.0</course>
  <speed>0.0</speed>
  <fix>3d</fix>
</trkpt>
<trkpt lat="-27.274439" lon="151.290064">
  <ele>343.19</ele>
  <time>2026-09-01T20:02:59Z</time>
  <course>10.77</course>
  <speed>0.0</speed>
  <fix>3d</fix>
</trkpt>
<trkpt lat="-27.274439" lon="151.290064">
  <ele>343.1</ele>
  <time>2026-09-01T20:02:59Z</time>
  <course>270.0</course>
  <speed>0.0</speed>
  <fix>3d</fix>
</trkpt>
<trkpt lat="-27.274439" lon="151.290064">
  <ele>342.93</ele>
  <time>2026-09-01T20:02:59Z</time>
  <course>10.77</course>
  <speed>0.0</speed>
  <fix>3d</fix>
</trkpt>
<trkpt lat="-27.274439" lon="151.290064">
  <ele>343.1</ele>
  <time>2026-09-01T20:02:59Z</time>
  <course>270.0</course>
  <speed>0.0</speed>
  <fix>3d</fix>
</trkpt>
<trkpt lat="-27.274439" lon="151.290064">
  <ele>343.19</ele>
  <time>2026-09-01T20:02:59Z</time>
  <course>10.78</course>
  <speed>0.0</speed>
  <fix>3d</fix>
</trkpt>
<trkpt lat="-27.274439" lon="151.290064">
  <ele>343.1</ele>
  <time>2026-09-01T20:02:59Z</time>
  <course>270.0</course>
  <speed>0.0</speed>
  <fix>3d</fix>
</trkpt>
<trkpt lat="-27.274439" lon="151.290064">
  <ele>343.1</ele>
  <time>2026-09-01T20:02:59Z</time>
  <course>10.78</course>
  <speed>0.0</speed>
  <fix>3d</fix>
</trkpt>
<trkpt lat="-27.274439" lon="151.290064">
  <ele>343.1</ele>
  <time>2026-09-01T20:02:59Z</time>
  <course>270.0</course>
  <speed>0.0</speed>
  <fix>3d</fix>
</trkpt>
<trkpt lat="-27.274439" lon="151.290064">
  <ele>343.01</ele>
  <time>2026-09-01T20:02:59Z</time>
  <course>10.78</course>
  <speed>0.0</speed>
  <fix>3d</fix>
</trkpt>
<trkpt lat="-27.274439" lon="151.290064">
  <ele>343.1</ele>
  <time>2026-09-01T20:02:59Z</time>
  <course>270.0</course>
  <speed>0.0</speed>
  <fix>3d</fix>
</trkpt>
<trkpt lat="-27.274439" lon="151.290064">
  <ele>343.11</ele>
  <time>2026-09-01T20:02:59Z</time>
  <course>10.78</course>
  <speed>0.0</speed>
  <fix>3d</fix>
</trkpt>
<trkpt lat="-27.274439" lon="151.290064">
  <ele>343.1</ele>
  <time>2026-09-01T20:02:59Z</time>
  <course>270.0</course>
  <speed>0.0</speed>
  <fix>3d</fix>
</trkpt>
<trkpt lat="-27.274439" lon="151.290064">
  <ele>342.96</ele>
  <time>2026-09-01T20:02:59Z</time>
  <course>10.78</course>
  <speed>0.0</speed>
  <fix>3d</fix>
</trkpt>
<trkpt lat="-27.274439" lon="151.290064">
  <ele>343.1</ele>
  <time>2026-09-01T20:02:59Z</time>
  <course>270.0</course>
  <speed>0.0</speed>
  <fix>3d</fix>
</trkpt>
<trkpt lat="-27.274439" lon="151.290064">
  <ele>343.19</ele>
  <time>2026-09-01T20:02:59Z</time>
  <course>10.79</course>
  <speed>0.0</speed>
  <fix>3d</fix>
</trkpt>
<trkpt lat="-27.274439" lon="151.290064">
  <ele>343.1</ele>
  <time>2026-09-01T20:02:59Z</time>
  <course>270.0</course>
  <speed>0.0</speed>
  <fix>3d</fix>
</trkpt>
<trkpt lat="-27.274439" lon="151.290064">
  <ele>343.0</ele>
  <time>2026-09-01T20:02:59Z</time>
  <course>10.79</course>
  <speed>0.0</speed>
  <fix>3d</fix>
</trkpt>
<trkpt lat="-27.274439" lon="151.290064">
  <ele>343.1</ele>
  <time>2026-09-01T20:02:59Z</time>
  <course>270.0</course>
  <speed>0.0</speed>
  <fix>3d</fix>
</trkpt>
<trkpt lat="-27.274439" lon="151.290064">
  <ele>343.2</ele>
  <time>2026-09-01T20:02:59Z</time>
  <course>10.79</course>
  <speed>0.0</speed>
  <fix>3d</fix>
</trkpt>
<trkpt lat="-27.274439" lon="151.290064">
  <ele>343.1</ele>
  <time>2026-09-01T20:02:59Z</time>
  <course>270.0</course>
  <speed>0.0</speed>
  <fix>3d</fix>
</trkpt>
<trkpt lat="-27.274439" lon="151.290064">
  <ele>343.2</ele>
  <time>2026-09-01T20:02:59Z</time>
  <course>10.79</course>
  <speed>0.0</speed>
  <fix>3d</fix>
</trkpt>
<trkpt lat="-27.274439" lon="151.290064">
  <ele>343.1</ele>
  <time>2026-09-01T20:02:59Z</time>
  <course>270.0</course>
  <speed>0.0</speed>
  <fix>3d</fix>
</trkpt>
<trkpt lat="-27.274439" lon="151.290064">
  <ele>343.13</ele>
  <time>2026-09-01T20:02:59Z</time>
  <course>10.79</course>
  <speed>0.0</speed>
  <fix>3d</fix>
</trkpt>
<trkpt lat="-27.274439" lon="151.290064">
  <ele>343.1</ele>
  <time>2026-09-01T20:02:59Z</time>
  <course>270.0</course>
  <speed>0.0</speed>
  <fix>3d</fix>
</trkpt>
<trkpt lat="-27.274439" lon="151.290064">
  <ele>343.1</ele>
  <time>2026-09-01T20:02:59Z</time>
  <course>10.79</course>
  <speed>0.0</speed>
  <fix>3d</fix>
</trkpt>
<trkpt lat="-27.274439" lon="151.290064">
  <ele>343.1</ele>
  <time>2026-09-01T20:02:59Z</time>
  <course>270.0</course>
  <speed>0.0</speed>
  <fix>3d</fix>
</trkpt>
<trkpt lat="-27.274439" lon="151.290064">
  <ele>343.12</ele>
  <time>2026-09-01T20:02:59Z</time>
  <course>10.79</course>
  <speed>0.0</speed>
  <fix>3d</fix>
</trkpt>
<trkpt lat="-27.274439" lon="151.290064">
  <ele>343.1</ele>
  <time>2026-09-01T20:02:59Z</time>
  <course>270.0</course>
  <speed>0.0</speed>
  <fix>3d</fix>
</trkpt>
<trkpt lat="-27.274439" lon="151.290064">
  <ele>342.94</ele>
  <time>2026-09-01T20:02:59Z</time>
  <course>10.79</course>
  <speed>0.0</speed>
  <fix>3d</fix>
</trkpt>
<trkpt lat="-27.274439" lon="151.290064">
  <ele>343.1</ele>
  <time>2026-09-01T20:02:59Z</time>
  <course>270.0</course>
  <speed>0.0</speed>
  <fix>3d</fix>
</trkpt>
<trkpt lat="-27.274439" lon="151.290064">
  <ele>343.25</ele>
  <time>2026-09-01T20:02:59Z</time>
  <course>10.79</course>
  <speed>0.0</speed>
  <fix>3d</fix>
</trkpt>
<trkpt lat="-27.274439" lon="151.290064">
  <ele>343.1</ele>
  <time>2026-09-01T20:02:59Z</time>
  <course>270.0</course>
  <speed>0.0</speed>
  <fix>3d</fix>
</trkpt>
<trkpt lat="-27.274439" lon="151.290064">
  <ele>342.93</ele>
  <time>2026-09-01T20:02:59Z</time>
  <course>10.79</course>
  <speed>0.0</speed>
  <fix>3d</fix>
</trkpt>
<trkpt lat="-27.274439" lon="151.290064">
  <ele>343.1</ele>
  <time>2026-09-01T20:02:59Z</time>
  <course>270.0</course>
  <speed>0.0</speed>
  <fix>3d</fix>
</trkpt>
<trkpt lat="-27.274439" lon="151.290064">
  <ele>343.08</ele>
  <time>2026-09-01T20:02:59Z</time>
  <course>10.79</course>
  <speed>0.0</speed>
  <fix>3d</fix>
</trkpt>
<trkpt lat="-27.274439" lon="151.290064">
  <ele>343.1</ele>
  <time>2026-09-01T20:02:59Z</time>
  <course>270.0</course>
  <speed>0.0</speed>
  <fix>3d</fix>
</trkpt>
<trkpt lat="-27.274439" lon="151.290064">
  <ele>343.23</ele>
  <time>2026-09-01T20:02:59Z</time>
  <course>10.8</course>
  <speed>0.0</speed>
  <fix>3d</fix>
</trkpt>
<trkpt lat="-27.274439" lon="151.290064">
  <ele>343.1</ele>
  <time>2026-09-01T20:02:59Z</time>
  <course>270.0</course>
  <speed>0.0</speed>
  <fix>3d</fix>
</trkpt>
<trkpt lat="-27.274439" lon="151.290064">
  <ele>343.01</ele>
  <time>2026-09-01T20:02:59Z</time>
  <course>10.8</course>
  <speed>0.0</speed>
  <fix>3d</fix>
</trkpt>
<trkpt lat="-27.274439" lon="151.290064">
  <ele>343.1</ele>
  <time>2026-09-01T20:02:59Z</time>
  <course>270.0</course>
  <speed>0.0</speed>
  <fix>3d</fix>
</trkpt>
<trkpt lat="-27.274439" lon="151.290064">
  <ele>343.1</ele>
  <time>2026-09-01T20:02:59Z</time>
  <course>10.8</course>
  <speed>0.0</speed>
  <fix>3d</fix>
</trkpt>
<trkpt lat="-27.274439" lon="151.290064">
  <ele>343.1</ele>
  <time>2026-09-01T20:02:59Z</time>
  <course>270.0</course>
  <speed>0.0</speed>
  <fix>3d</fix>
</trkpt>
<trkpt lat="-27.274439" lon="151.290064">
  <ele>342.99</ele>
  <time>2026-09-01T20:02:59Z</time>
  <course>10.8</course>
  <speed>0.0</speed>
  <fix>3d</fix>
</trkpt>
<trkpt lat="-27.274439" lon="151.290064">
  <ele>343.1</ele>
  <time>2026-09-01T20:02:59Z</time>
  <course>270.0</course>
  <speed>0.0</speed>
  <fix>3d</fix>
</trkpt>
<trkpt lat="-27.274439" lon="151.290064">
  <ele>342.87</ele>
  <time>2026-09-01T20:02:59Z</time>
  <course>10.8</course>
  <speed>0.0</speed>
  <fix>3d</fix>
</trkpt>
<trkpt lat="-27.274439" lon="151.290064">
  <ele>343.1</ele>
  <time>2026-09-01T20:02:59Z</time>
  <course>270.0</course>
  <speed>0.0</speed>
  <fix>3d</fix>
</trkpt>
<trkpt lat="-27.274439" lon="151.290064">
  <ele>343.1</ele>
  <time>2026-09-01T20:02:59Z</time>
  <course>10.8</course>
  <speed>0.0</speed>
  <fix>3d</fix>
</trkpt>
<trkpt lat="-27.274439" lon="151.290064">
  <ele>343.1</ele>
  <time>2026-09-01T20:02:59Z</time>
  <course>270.0</course>
  <speed>0.0</speed>
  <fix>3d</fix>
</trkpt>
<trkpt lat="-27.274439" lon="151.290064">
  <ele>342.99</ele>
  <time>2026-09-01T20:02:59Z</time>
  <course>10.8</course>
  <speed>0.0</speed>
  <fix>3d</fix>
</trkpt>
<trkpt lat="-27.274439" lon="151.290064">
  <ele>343.1</ele>
  <time>2026-09-01T20:02:59Z</time>
  <course>270.0</course>
  <speed>0.0</speed>
  <fix>3d</fix>
</trkpt>
<trkpt lat="-27.274439" lon="151.290064">
  <ele>342.91</ele>
  <time>2026-09-01T20:02:59Z</time>
  <course>10.8</course>
  <speed>0.0</speed>
  <fix>3d</fix>
</trkpt>
<trkpt lat="-27.274439" lon="151.290064">
  <ele>343.1</ele>
  <time>2026-09-01T20:02:59Z</time>
  <course>270.0</course>
  <speed>0.0</speed>
  <fix>3d</fix>
</trkpt>
<trkpt lat="-27.274439" lon="151.290064">
  <ele>342.9</ele>
  <time>2026-09-01T20:02:59Z</time>
  <course>10.8</course>
  <speed>0.0</speed>
  <fix>3d</fix>
</trkpt>
<trkpt lat="-27.274439" lon="151.290064">
  <ele>343.1</ele>
  <time>2026-09-01T20:02:59Z</time>
  <course>270.0</course>
  <speed>0.0</speed>
  <fix>3d</fix>
</trkpt>
<trkpt lat="-27.274439" lon="151.290064">
  <ele>342.87</ele>
  <time>2026-09-01T20:02:59Z</time>
  <course>10.8</course>
  <speed>0.0</speed>
  <fix>3d</fix>
</trkpt>
<trkpt lat="-27.274439" lon="151.290064">
  <ele>343.1</ele>
  <time>2026-09-01T20:02:59Z</time>
  <course>270.0</course>
  <speed>0.0</speed>
  <fix>3d</fix>
</trkpt>
<trkpt lat="-27.274439" lon="151.290064">
  <ele>343.12</ele>
  <time>2026-09-01T20:02:59Z</time>
  <course>10.8</course>
  <speed>0.0</speed>
  <fix>3d</fix>
</trkpt>
<trkpt lat="-27.274439" lon="151.290064">
  <ele>343.1</ele>
  <time>2026-09-01T20:02:59Z</time>
  <course>270.0</course>
  <speed>0.0</speed>
  <fix>3d</fix>
</trkpt>
<trkpt lat="-27.274439" lon="151.290064">
  <ele>342.99</ele>
  <time>2026-09-01T20:02:59Z</time>
  <course>10.8</course>
  <speed>0.0</speed>
  <fix>3d</fix>
</trkpt>
<trkpt lat="-27.274439" lon="151.290064">
  <ele>343.1</ele>
  <time>2026-09-01T20:02:59Z</time>
  <course>270.0</course>
  <speed>0.0</speed>
  <fix>3d</fix>
</trkpt>
<trkpt lat="-27.274439" lon="151.290064">
  <ele>343.13</ele>
  <time>2026-09-01T20:02:59Z</time>
  <course>10.8</course>
  <speed>0.0</speed>
  <fix>3d</fix>
</trkpt>
<trkpt lat="-27.274439" lon="151.290064">
  <ele>343.1</ele>
  <time>2026-09-01T20:02:59Z</time>
  <course>270.0</course>
  <speed>0.0</speed>
  <fix>3d</fix>
</trkpt>
<trkpt lat="-27.274439" lon="151.290064">
  <ele>343.0</ele>
  <time>2026-09-01T20:02:59Z</time>
  <course>10.8</course>
  <speed>0.0</speed>
  <fix>3d</fix>
</trkpt>
<trkpt lat="-27.274439" lon="151.290064">
  <ele>343.1</ele>
  <time>2026-09-01T20:02:59Z</time>
  <course>270.0</course>
  <speed>0.0</speed>
  <fix>3d</fix>
</trkpt>
<trkpt lat="-27.274439" lon="151.290064">
  <ele>343.17</ele>
  <time>2026-09-01T20:02:59Z</time>
  <course>10.8</course>
  <speed>0.0</speed>
  <fix>3d</fix>
</trkpt>
<trkpt lat="-27.274439" lon="151.290064">
  <ele>343.1</ele>
  <time>2026-09-01T20:02:59Z</time>
  <course>270.0</course>
  <speed>0.0</speed>
  <fix>3d</fix>
</trkpt>
<trkpt lat="-27.274439" lon="151.290064">
  <ele>343.0</ele>
  <time>2026-09-01T20:02:59Z</time>
  <course>10.8</course>
  <speed>0.0</speed>
  <fix>3d</fix>
</trkpt>
<trkpt lat="-27.274439" lon="151.290064">
  <ele>343.1</ele>
  <time>2026-09-01T20:02:59Z</time>
  <course>270.0</course>
  <speed>0.0</speed>
  <fix>3d</fix>
</trkpt>
<trkpt lat="-27.274439" lon="151.290064">
  <ele>342.99</ele>
  <time>2026-09-01T20:02:59Z</time>
  <course>10.8</course>
  <speed>0.0</speed>
  <fix>3d</fix>
</trkpt>
<trkpt lat="-27.274439" lon="151.290064">
  <ele>343.1</ele>
  <time>2026-09-01T20:02:59Z</time>
  <course>270.0</course>
  <speed>0.0</speed>
  <fix>3d</fix>
</trkpt>
<trkpt lat="-27.274439" lon="151.290064">
  <ele>343.17</ele>
  <time>2026-09-01T20:02:59Z</time>
  <course>10.8</course>
  <speed>0.0</speed>
  <fix>3d</fix>
</trkpt>
<trkpt lat="-27.274439" lon="151.290064">
  <ele>343.1</ele>
  <time>2026-09-01T20:02:59Z</time>
  <course>270.0</course>
  <speed>0.0</speed>
  <fix>3d</fix>
</trkpt>
<trkpt lat="-27.274439" lon="151.290064">
  <ele>343.16</ele>
  <time>2026-09-01T20:02:59Z</time>
  <course>10.8</course>
  <speed>0.0</speed>
  <fix>3d</fix>
</trkpt>
<trkpt lat="-27.274439" lon="151.290064">
  <ele>343.1</ele>
  <time>2026-09-01T20:02:59Z</time>
  <course>270.0</course>
  <speed>0.0</speed>
  <fix>3d</fix>
</trkpt>
<trkpt lat="-27.274439" lon="151.290064">
  <ele>342.87</ele>
  <time>2026-09-01T20:02:59Z</time>
  <course>10.8</course>
  <speed>0.0</speed>
  <fix>3d</fix>
</trkpt>
<trkpt lat="-27.274439" lon="151.290064">
  <ele>343.1</ele>
  <time>2026-09-01T20:02:59Z</time>
  <course>270.0</course>
  <speed>0.0</speed>
  <fix>3d</fix>
</trkpt>
<trkpt lat="-27.274439" lon="151.290064">
  <ele>343.19</ele>
  <time>2026-09-01T20:02:59Z</time>
  <course>10.8</course>
  <speed>0.0</speed>
  <fix>3d</fix>
</trkpt>
<trkpt lat="-27.274439" lon="151.290064">
  <ele>343.1</ele>
  <time>2026-09-01T20:02:59Z</time>
  <course>270.0</course>
  <speed>0.0</speed>
  <fix>3d</fix>
</trkpt>
<trkpt lat="-27.274439" lon="151.290064">
  <ele>343.16</ele>
  <time>2026-09-01T20:02:59Z</time>
  <course>10.8</course>
  <speed>0.0</speed>
  <fix>3d</fix>
</trkpt>
<trkpt lat="-27.274439" lon="151.290064">
  <ele>343.1</ele>
  <time>2026-09-01T20:02:59Z</time>
  <course>270.0</course>
  <speed>0.0</speed>
  <fix>3d</fix>
</trkpt>
<trkpt lat="-27.274439" lon="151.290064">
  <ele>343.21</ele>
  <time>2026-09-01T20:02:59Z</time>
  <course>10.8</course>
  <speed>0.0</speed>
  <fix>3d</fix>
</trkpt>
<trkpt lat="-27.274439" lon="151.290064">
  <ele>343.1</ele>
  <time>2026-09-01T20:02:59Z</time>
  <course>270.0</course>
  <speed>0.0</speed>
  <fix>3d</fix>
</trkpt>
<trkpt lat="-27.274439" lon="151.290064">
  <ele>343.22</ele>
  <time>2026-09-01T20:02:59Z</time>
  <course>10.8</course>
  <speed>0.0</speed>
  <fix>3d</fix>
</trkpt>
<trkpt lat="-27.274439" lon="151.290064">
  <ele>343.1</ele>
  <time>2026-09-01T20:02:59Z</time>
  <course>270.0</course>
  <speed>0.0</speed>
  <fix>3d</fix>
</trkpt>
<trkpt lat="-27.274439" lon="151.290064">
  <ele>343.24</ele>
  <time>2026-09-01T20:02:59Z</time>
  <course>10.8</course>
  <speed>0.0</speed>
  <fix>3d</fix>
</trkpt>
<trkpt lat="-27.274439" lon="151.290064">
  <ele>343.1</ele>
  <time>2026-09-01T20:02:59Z</time>
  <course>270.0</course>
  <speed>0.0</speed>
  <fix>3d</fix>
</trkpt>
<trkpt lat="-27.274439" lon="151.290064">
  <ele>343.0</ele>
  <time>2026-09-01T20:02:59Z</time>
  <course>10.8</course>
  <speed>0.0</speed>
  <fix>3d</fix>
</trkpt>
<trkpt lat="-27.274439" lon="151.290064">
  <ele>343.1</ele>
  <time>2026-09-01T20:02:59Z</time>
  <course>270.0</course>
  <speed>0.0</speed>
  <fix>3d</fix>
</trkpt>
<trkpt lat="-27.274439" lon="151.290064">
  <ele>343.1</ele>
  <time>2026-09-01T20:02:59Z</time>
  <course>10.8</course>
  <speed>0.0</speed>
  <fix>3d</fix>
</trkpt>
<trkpt lat="-27.274439" lon="151.290064">
  <ele>343.1</ele>
  <time>2026-09-01T20:02:59Z</time>
  <course>270.0</course>
  <speed>0.0</speed>
  <fix>3d</fix>
</trkpt>
<trkpt lat="-27.274439" lon="151.290064">
  <ele>343.05</ele>
  <time>2026-09-01T20:02:59Z</time>
  <course>10.8</course>
  <speed>0.0</speed>
  <fix>3d</fix>
</trkpt>
<trkpt lat="-27.274439" lon="151.290064">
  <ele>343.1</ele>
  <time>2026-09-01T20:02:59Z</time>
  <course>270.0</course>
  <speed>0.0</speed>
  <fix>3d</fix>
</trkpt>
<trkpt lat="-27.274439" lon="151.290064">
  <ele>342.87</ele>
  <time>2026-09-01T20:02:59Z</time>
  <course>10.8</course>
  <speed>0.0</speed>
  <fix>3d</fix>
</trkpt>
<trkpt lat="-27.274439" lon="151.290064">
  <ele>343.1</ele>
  <time>2026-09-01T20:02:59Z</time>
  <course>270.0</course>
  <speed>0.0</speed>
  <fix>3d</fix>
</trkpt>
<trkpt lat="-27.274439" lon="151.290064">
  <ele>342.92</ele>
  <time>2026-09-01T20:02:59Z</time>
  <course>10.8</course>
  <speed>0.0</speed>
  <fix>3d</fix>
</trkpt>
<trkpt lat="-27.274439" lon="151.290064">
  <ele>343.1</ele>
  <time>2026-09-01T20:02:59Z</time>
  <course>270.0</course>
  <speed>0.0</speed>
  <fix>3d</fix>
</trkpt>
<trkpt lat="-27.274439" lon="151.290064">
  <ele>342.96</ele>
  <time>2026-09-01T20:02:59Z</time>
  <course>10.8</course>
  <speed>0.0</speed>
  <fix>3d</fix>
</trkpt>
<trkpt lat="-27.274439" lon="151.290064">
  <ele>343.1</ele>
  <time>2026-09-01T20:02:59Z</time>
  <course>270.0</course>
  <speed>0.0</speed>
  <fix>3d</fix>
</trkpt>
<trkpt lat="-27.274439" lon="151.290064">
  <ele>343.15</ele>
  <time>2026-09-01T20:02:59Z</time>
  <course>10.8</course>
  <speed>0.0</speed>
  <fix>3d</fix>
</trkpt>
<trkpt lat="-27.274439" lon="151.290064">
  <ele>343.1</ele>
  <time>2026-09-01T20:02:59Z</time>
  <course>270.0</course>
  <speed>0.0</speed>
  <fix>3d</fix>
</trkpt>
<trkpt lat="-27.274439" lon="151.290064">
  <ele>343.16</ele>
  <time>2026-09-01T20:02:59Z</time>
  <course>10.8</course>
  <speed>0.0</speed>
  <fix>3d</fix>
</trkpt>
<trkpt lat="-27.274439" lon="151.290064">
  <ele>343.1</ele>
  <time>2026-09-01T20:02:59Z</time>
  <course>270.0</course>
  <speed>0.0</speed>
  <fix>3d</fix>
</trkpt>
<trkpt lat="-27.274439" lon="151.290064">
  <ele>343.2</ele>
  <time>2026-09-01T20:02:59Z</time>
  <course>10.81</course>
  <speed>0.0</speed>
  <fix>3d</fix>
</trkpt>
<trkpt lat="-27.274439" lon="151.290064">
  <ele>343.1</ele>
  <time>2026-09-01T20:02:59Z</time>
  <course>270.0</course>
  <speed>0.0</speed>
  <fix>3d</fix>
</trkpt>
<trkpt lat="-27.274439" lon="151.290064">
  <ele>343.13</ele>
  <time>2026-09-01T20:02:59Z</time>
  <course>10.82</course>
  <speed>0.0</speed>
  <fix>3d</fix>
</trkpt>
<trkpt lat="-27.274439" lon="151.290064">
  <ele>343.1</ele>
  <time>2026-09-01T20:02:59Z</time>
  <course>270.0</course>
  <speed>0.0</speed>
  <fix>3d</fix>
</trkpt>
<trkpt lat="-27.274439" lon="151.290064">
  <ele>343.09</ele>
  <time>2026-09-01T20:02:59Z</time>
  <course>10.71</course>
  <speed>0.0</speed>
  <fix>3d</fix>
</trkpt>
<trkpt lat="-27.274439" lon="151.290064">
  <ele>343.1</ele>
  <time>2026-09-01T20:02:59Z</time>
  <course>270.0</course>
  <speed>0.0</speed>
  <fix>3d</fix>
</trkpt>
<trkpt lat="-27.274439" lon="151.290064">
  <ele>343.09</ele>
  <time>2026-09-01T20:02:59Z</time>
  <course>10.71</course>
  <speed>0.0</speed>
  <fix>3d</fix>
</trkpt>
<trkpt lat="-27.274439" lon="151.290064">
  <ele>343.1</ele>
  <time>2026-09-01T20:02:59Z</time>
  <course>270.0</course>
  <speed>0.0</speed>
  <fix>3d</fix>
</trkpt>
<trkpt lat="-27.274439" lon="151.290064">
  <ele>343.1</ele>
  <time>2026-09-01T20:02:59Z</time>
  <course>10.71</course>
  <speed>0.0</speed>
  <fix>3d</fix>
</trkpt>
<trkpt lat="-27.274439" lon="151.290064">
  <ele>343.1</ele>
  <time>2026-09-01T20:02:59Z</time>
  <course>270.0</course>
  <speed>0.0</speed>
  <fix>3d</fix>
</trkpt>
<trkpt lat="-27.274439" lon="151.290064">
  <ele>343.1</ele>
  <time>2026-09-01T20:02:59Z</time>
  <course>10.71</course>
  <speed>0.0</speed>
  <fix>3d</fix>
</trkpt>
<trkpt lat="-27.274439" lon="151.290064">
  <ele>343.1</ele>
  <time>2026-09-01T20:02:59Z</time>
  <course>270.0</course>
  <speed>0.0</speed>
  <fix>3d</fix>
</trkpt>
<trkpt lat="-27.274439" lon="151.290064">
  <ele>343.1</ele>
  <time>2026-09-01T20:02:59Z</time>
  <course>10.71</course>
  <speed>0.0</speed>
  <fix>3d</fix>
</trkpt>
<trkpt lat="-27.274439" lon="151.290064">
  <ele>343.1</ele>
  <time>2026-09-01T20:02:59Z</time>
  <course>270.0</course>
  <speed>0.0</speed>
  <fix>3d</fix>
</trkpt>
<trkpt lat="-27.274439" lon="151.290064">
  <ele>343.1</ele>
  <time>2026-09-01T20:02:59Z</time>
  <course>10.71</course>
  <speed>0.0</speed>
  <fix>3d</fix>
</trkpt>
<trkpt lat="-27.274439" lon="151.290064">
  <ele>343.1</ele>
  <time>2026-09-01T20:02:59Z</time>
  <course>270.0</course>
  <speed>0.0</speed>
  <fix>3d</fix>
</trkpt>
<trkpt lat="-27.274439" lon="151.290064">
  <ele>343.1</ele>
  <time>2026-09-01T20:02:59Z</time>
  <course>10.71</course>
  <speed>0.0</speed>
  <fix>3d</fix>
</trkpt>
<trkpt lat="-27.274439" lon="151.290064">
  <ele>343.1</ele>
  <time>2026-09-01T20:02:59Z</time>
  <course>270.0</course>
  <speed>0.0</speed>
  <fix>3d</fix>
</trkpt>
<trkpt lat="-27.274439" lon="151.290064">
  <ele>343.11</ele>
  <time>2026-09-01T20:02:59Z</time>
  <course>10.71</course>
  <speed>0.0</speed>
  <fix>3d</fix>
</trkpt>
<trkpt lat="-27.274439" lon="151.290064">
  <ele>343.1</ele>
  <time>2026-09-01T20:02:59Z</time>
  <course>270.0</course>
  <speed>0.0</speed>
  <fix>3d</fix>
</trkpt>
<trkpt lat="-27.274439" lon="151.290064">
  <ele>343.11</ele>
  <time>2026-09-01T20:02:59Z</time>
  <course>10.71</course>
  <speed>0.0</speed>
  <fix>3d</fix>
</trkpt>
<trkpt lat="-27.274439" lon="151.290064">
  <ele>343.1</ele>
  <time>2026-09-01T20:02:59Z</time>
  <course>270.0</course>
  <speed>0.0</speed>
  <fix>3d</fix>
</trkpt>
<trkpt lat="-27.274439" lon="151.290064">
  <ele>343.11</ele>
  <time>2026-09-01T20:02:59Z</time>
  <course>10.71</course>
  <speed>0.0</speed>
  <fix>3d</fix>
</trkpt>
<trkpt lat="-27.274439" lon="151.290064">
  <ele>343.1</ele>
  <time>2026-09-01T20:02:59Z</time>
  <course>270.0</course>
  <speed>0.0</speed>
  <fix>3d</fix>
</trkpt>
<trkpt lat="-27.274439" lon="151.290064">
  <ele>343.12</ele>
  <time>2026-09-01T20:02:59Z</time>
  <course>10.71</course>
  <speed>0.0</speed>
  <fix>3d</fix>
</trkpt>
<trkpt lat="-27.274439" lon="151.290064">
  <ele>343.1</ele>
  <time>2026-09-01T20:02:59Z</time>
  <course>270.0</course>
  <speed>0.0</speed>
  <fix>3d</fix>
</trkpt>
<trkpt lat="-27.274439" lon="151.290064">
  <ele>343.12</ele>
  <time>2026-09-01T20:02:59Z</time>
  <course>10.71</course>
  <speed>0.0</speed>
  <fix>3d</fix>
</trkpt>
<trkpt lat="-27.274439" lon="151.290064">
  <ele>343.1</ele>
  <time>2026-09-01T20:02:59Z</time>
  <course>270.0</course>
  <speed>0.0</speed>
  <fix>3d</fix>
</trkpt>
<trkpt lat="-27.274439" lon="151.290064">
  <ele>343.1</ele>
  <time>2026-09-01T20:02:59Z</time>
  <course>10.71</course>
  <speed>0.0</speed>
  <fix>3d</fix>
</trkpt>
<trkpt lat="-27.274439" lon="151.290064">
  <ele>343.1</ele>
  <time>2026-09-01T20:02:59Z</time>
  <course>270.0</course>
  <speed>0.0</speed>
  <fix>3d</fix>
</trkpt>
<trkpt lat="-27.274439" lon="151.290064">
  <ele>343.1</ele>
  <time>2026-09-01T20:02:59Z</time>
  <course>10.71</course>
  <speed>0.0</speed>
  <fix>3d</fix>
</trkpt>
<trkpt lat="-27.274439" lon="151.290064">
  <ele>343.1</ele>
  <time>2026-09-01T20:02:59Z</time>
  <course>270.0</course>
  <speed>0.0</speed>
  <fix>3d</fix>
</trkpt>
<trkpt lat="-27.274439" lon="151.290064">
  <ele>343.1</ele>
  <time>2026-09-01T20:02:59Z</time>
  <course>10.71</course>
  <speed>0.0</speed>
  <fix>3d</fix>
</trkpt>
<trkpt lat="-27.274439" lon="151.290064">
  <ele>343.1</ele>
  <time>2026-09-01T20:02:59Z</time>
  <course>270.0</course>
  <speed>0.0</speed>
  <fix>3d</fix>
</trkpt>
<trkpt lat="-27.274439" lon="151.290064">
  <ele>343.09</ele>
  <time>2026-09-01T20:02:59Z</time>
  <course>10.71</course>
  <speed>0.0</speed>
  <fix>3d</fix>
</trkpt>
<trkpt lat="-27.274439" lon="151.290064">
  <ele>343.1</ele>
  <time>2026-09-01T20:02:59Z</time>
  <course>270.0</course>
  <speed>0.0</speed>
  <fix>3d</fix>
</trkpt>
<trkpt lat="-27.274439" lon="151.290064">
  <ele>343.09</ele>
  <time>2026-09-01T20:02:59Z</time>
  <course>10.71</course>
  <speed>0.0</speed>
  <fix>3d</fix>
</trkpt>
<trkpt lat="-27.274439" lon="151.290064">
  <ele>343.1</ele>
  <time>2026-09-01T20:02:59Z</time>
  <course>270.0</course>
  <speed>0.0</speed>
  <fix>3d</fix>
</trkpt>
<trkpt lat="-27.274439" lon="151.290064">
  <ele>343.09</ele>
  <time>2026-09-01T20:02:59Z</time>
  <course>10.71</course>
  <speed>0.0</speed>
  <fix>3d</fix>
</trkpt>
<trkpt lat="-27.274439" lon="151.290064">
  <ele>343.1</ele>
  <time>2026-09-01T20:02:59Z</time>
  <course>270.0</course>
  <speed>0.0</speed>
  <fix>3d</fix>
</trkpt>
<trkpt lat="-27.274439" lon="151.290064">
  <ele>343.1</ele>
  <time>2026-09-01T20:02:59Z</time>
  <course>10.71</course>
  <speed>0.0</speed>
  <fix>3d</fix>
</trkpt>
<trkpt lat="-27.274439" lon="151.290064">
  <ele>343.1</ele>
  <time>2026-09-01T20:02:59Z</time>
  <course>270.0</course>
  <speed>0.0</speed>
  <fix>3d</fix>
</trkpt>
<trkpt lat="-27.274439" lon="151.290064">
  <ele>343.1</ele>
  <time>2026-09-01T20:02:59Z</time>
  <course>10.71</course>
  <speed>0.0</speed>
  <fix>3d</fix>
</trkpt>
<trkpt lat="-27.274439" lon="151.290064">
  <ele>343.1</ele>
  <time>2026-09-01T20:02:59Z</time>
  <course>270.0</course>
  <speed>0.0</speed>
  <fix>3d</fix>
</trkpt>
<trkpt lat="-27.274439" lon="151.290064">
  <ele>343.09</ele>
  <time>2026-09-01T20:02:59Z</time>
  <course>10.71</course>
  <speed>0.0</speed>
  <fix>3d</fix>
</trkpt>
<trkpt lat="-27.274439" lon="151.290064">
  <ele>343.1</ele>
  <time>2026-09-01T20:02:59Z</time>
  <course>270.0</course>
  <speed>0.0</speed>
  <fix>3d</fix>
</trkpt>
<trkpt lat="-27.274439" lon="151.290064">
  <ele>343.09</ele>
  <time>2026-09-01T20:02:59Z</time>
  <course>10.71</course>
  <speed>0.0</speed>
  <fix>3d</fix>
</trkpt>
<trkpt lat="-27.274439" lon="151.290064">
  <ele>343.1</ele>
  <time>2026-09-01T20:02:59Z</time>
  <course>270.0</course>
  <speed>0.0</speed>
  <fix>3d</fix>
</trkpt>
<trkpt lat="-27.274439" lon="151.290064">
  <ele>343.09</ele>
  <time>2026-09-01T20:02:59Z</time>
  <course>10.71</course>
  <speed>0.0</speed>
  <fix>3d</fix>
</trkpt>
<trkpt lat="-27.274439" lon="151.290064">
  <ele>343.1</ele>
  <time>2026-09-01T20:02:59Z</time>
  <course>270.0</course>
  <speed>0.0</speed>
  <fix>3d</fix>
</trkpt>
<trkpt lat="-27.274439" lon="151.290064">
  <ele>343.09</ele>
  <time>2026-09-01T20:02:59Z</time>
  <course>10.71</course>
  <speed>0.0</speed>
  <fix>3d</fix>
</trkpt>
<trkpt lat="-27.274439" lon="151.290064">
  <ele>343.1</ele>
  <time>2026-09-01T20:02:59Z</time>
  <course>270.0</course>
  <speed>0.0</speed>
  <fix>3d</fix>
</trkpt>
<trkpt lat="-27.274439" lon="151.290064">
  <ele>343.09</ele>
  <time>2026-09-01T20:02:59Z</time>
  <course>10.71</course>
  <speed>0.0</speed>
  <fix>3d</fix>
</trkpt>
<trkpt lat="-27.274439" lon="151.290064">
  <ele>343.1</ele>
  <time>2026-09-01T20:02:59Z</time>
  <course>270.0</course>
  <speed>0.0</speed>
  <fix>3d</fix>
</trkpt>
<trkpt lat="-27.274439" lon="151.290064">
  <ele>343.09</ele>
  <time>2026-09-01T20:02:59Z</time>
  <course>10.71</course>
  <speed>0.0</speed>
  <fix>3d</fix>
</trkpt>
<trkpt lat="-27.274439" lon="151.290064">
  <ele>343.1</ele>
  <time>2026-09-01T20:02:59Z</time>
  <course>270.0</course>
  <speed>0.0</speed>
  <fix>3d</fix>
</trkpt>
<trkpt lat="-27.274439" lon="151.290064">
  <ele>343.09</ele>
  <time>2026-09-01T20:02:59Z</time>
  <course>10.71</course>
  <speed>0.0</speed>
  <fix>3d</fix>
</trkpt>
<trkpt lat="-27.274439" lon="151.290064">
  <ele>343.1</ele>
  <time>2026-09-01T20:02:59Z</time>
  <course>270.0</course>
  <speed>0.0</speed>
  <fix>3d</fix>
</trkpt>
<trkpt lat="-27.274439" lon="151.290064">
  <ele>343.09</ele>
  <time>2026-09-01T20:02:59Z</time>
  <course>10.71</course>
  <speed>0.0</speed>
  <fix>3d</fix>
</trkpt>
<trkpt lat="-27.274439" lon="151.290064">
  <ele>343.1</ele>
  <time>2026-09-01T20:02:59Z</time>
  <course>270.0</course>
  <speed>0.0</speed>
  <fix>3d</fix>
</trkpt>
<trkpt lat="-27.274439" lon="151.290064">
  <ele>343.1</ele>
  <time>2026-09-01T20:02:59Z</time>
  <course>10.71</course>
  <speed>0.0</speed>
  <fix>3d</fix>
</trkpt>
<trkpt lat="-27.274439" lon="151.290064">
  <ele>343.1</ele>
  <time>2026-09-01T20:02:59Z</time>
  <course>270.0</course>
  <speed>0.0</speed>
  <fix>3d</fix>
</trkpt>
<trkpt lat="-27.274439" lon="151.290064">
  <ele>343.1</ele>
  <time>2026-09-01T20:02:59Z</time>
  <course>10.71</course>
  <speed>0.0</speed>
  <fix>3d</fix>
</trkpt>
<trkpt lat="-27.274439" lon="151.290064">
  <ele>343.1</ele>
  <time>2026-09-01T20:02:59Z</time>
  <course>270.0</course>
  <speed>0.0</speed>
  <fix>3d</fix>
</trkpt>
<trkpt lat="-27.274439" lon="151.290064">
  <ele>343.1</ele>
  <time>2026-09-01T20:02:59Z</time>
  <course>10.71</course>
  <speed>0.0</speed>
  <fix>3d</fix>
</trkpt>
<trkpt lat="-27.274439" lon="151.290064">
  <ele>343.1</ele>
  <time>2026-09-01T20:02:59Z</time>
  <course>270.0</course>
  <speed>0.0</speed>
  <fix>3d</fix>
</trkpt>
<trkpt lat="-27.274439" lon="151.290064">
  <ele>343.1</ele>
  <time>2026-09-01T20:02:59Z</time>
  <course>10.71</course>
  <speed>0.0</speed>
  <fix>3d</fix>
</trkpt>
<trkpt lat="-27.274439" lon="151.290064">
  <ele>343.1</ele>
  <time>2026-09-01T20:02:59Z</time>
  <course>270.0</course>
  <speed>0.0</speed>
  <fix>3d</fix>
</trkpt>
<trkpt lat="-27.274439" lon="151.290064">
  <ele>343.1</ele>
  <time>2026-09-01T20:02:59Z</time>
  <course>10.71</course>
  <speed>0.0</speed>
  <fix>3d</fix>
</trkpt>
<trkpt lat="-27.274439" lon="151.290064">
  <ele>343.1</ele>
  <time>2026-09-01T20:02:59Z</time>
  <course>270.0</course>
  <speed>0.0</speed>
  <fix>3d</fix>
</trkpt>
<trkpt lat="-27.274439" lon="151.290064">
  <ele>343.1</ele>
  <time>2026-09-01T20:02:59Z</time>
  <course>10.71</course>
  <speed>0.0</speed>
  <fix>3d</fix>
</trkpt>
<trkpt lat="-27.274439" lon="151.290064">
  <ele>343.1</ele>
  <time>2026-09-01T20:02:59Z</time>
  <course>270.0</course>
  <speed>0.0</speed>
  <fix>3d</fix>
</trkpt>
<trkpt lat="-27.274439" lon="151.290064">
  <ele>343.09</ele>
  <time>2026-09-01T20:02:59Z</time>
  <course>10.71</course>
  <speed>0.0</speed>
  <fix>3d</fix>
</trkpt>
<trkpt lat="-27.274439" lon="151.290064">
  <ele>343.1</ele>
  <time>2026-09-01T20:02:59Z</time>
  <course>270.0</course>
  <speed>0.0</speed>
  <fix>3d</fix>
</trkpt>
<trkpt lat="-27.274439" lon="151.290064">
  <ele>343.09</ele>
  <time>2026-09-01T20:02:59Z</time>
  <course>10.71</course>
  <speed>0.0</speed>
  <fix>3d</fix>
</trkpt>
<trkpt lat="-27.274439" lon="151.290064">
  <ele>343.1</ele>
  <time>2026-09-01T20:02:59Z</time>
  <course>270.0</course>
  <speed>0.0</speed>
  <fix>3d</fix>
</trkpt>
<trkpt lat="-27.274439" lon="151.290064">
  <ele>343.09</ele>
  <time>2026-09-01T20:02:59Z</time>
  <course>10.71</course>
  <speed>0.0</speed>
  <fix>3d</fix>
</trkpt>
<trkpt lat="-27.274439" lon="151.290064">
  <ele>343.1</ele>
  <time>2026-09-01T20:02:59Z</time>
  <course>270.0</course>
  <speed>0.0</speed>
  <fix>3d</fix>
</trkpt>
<trkpt lat="-27.274439" lon="151.290064">
  <ele>343.09</ele>
  <time>2026-09-01T20:02:59Z</time>
  <course>10.71</course>
  <speed>0.0</speed>
  <fix>3d</fix>
</trkpt>
<trkpt lat="-27.274439" lon="151.290064">
  <ele>343.1</ele>
  <time>2026-09-01T20:02:59Z</time>
  <course>270.0</course>
  <speed>0.0</speed>
  <fix>3d</fix>
</trkpt>
<trkpt lat="-27.274439" lon="151.290064">
  <ele>343.09</ele>
  <time>2026-09-01T20:02:59Z</time>
  <course>10.71</course>
  <speed>0.0</speed>
  <fix>3d</fix>
</trkpt>
<trkpt lat="-27.274439" lon="151.290064">
  <ele>343.1</ele>
  <time>2026-09-01T20:02:59Z</time>
  <course>116.25</course>
  <speed>0.0</speed>
  <fix>3d</fix>
</trkpt>
<trkpt lat="-27.274439" lon="151.290064">
  <ele>343.08</ele>
  <time>2026-09-01T20:02:59Z</time>
  <course>10.71</course>
  <speed>0.0</speed>
  <fix>3d</fix>
</trkpt>
<trkpt lat="-27.274439" lon="151.290064">
  <ele>343.1</ele>
  <time>2026-09-01T20:02:59Z</time>
  <course>116.25</course>
  <speed>0.0</speed>
  <fix>3d</fix>
</trkpt>
<trkpt lat="-27.274439" lon="151.290064">
  <ele>343.08</ele>
  <time>2026-09-01T20:02:59Z</time>
  <course>10.71</course>
  <speed>0.0</speed>
  <fix>3d</fix>
</trkpt>
<trkpt lat="-27.274439" lon="151.290064">
  <ele>343.08</ele>
  <time>2026-09-01T20:02:59Z</time>
  <course>10.71</course>
  <speed>0.0</speed>
  <fix>3d</fix>
</trkpt>
<trkpt lat="-27.274439" lon="151.290064">
  <ele>343.1</ele>
  <time>2026-09-01T20:02:59Z</time>
  <course>120.15</course>
  <speed>0.0</speed>
  <fix>3d</fix>
</trkpt>
<trkpt lat="-27.274439" lon="151.290064">
  <ele>343.08</ele>
  <time>2026-09-01T20:02:59Z</time>
  <course>10.71</course>
  <speed>0.0</speed>
  <fix>3d</fix>
</trkpt>
<trkpt lat="-27.274439" lon="151.290064">
  <ele>343.08</ele>
  <time>2026-09-01T20:02:59Z</time>
  <course>10.71</course>
  <speed>0.0</speed>
  <fix>3d</fix>
</trkpt>
<trkpt lat="-27.274439" lon="151.290064">
  <ele>343.1</ele>
  <time>2026-09-01T20:02:59Z</time>
  <course>120.15</course>
  <speed>0.0</speed>
  <fix>3d</fix>
</trkpt>
<trkpt lat="-27.274439" lon="151.290064">
  <ele>343.08</ele>
  <time>2026-09-01T20:02:59Z</time>
  <course>10.71</course>
  <speed>0.0</speed>
  <fix>3d</fix>
</trkpt>
<trkpt lat="-27.274439" lon="151.290064">
  <ele>343.08</ele>
  <time>2026-09-01T20:02:59Z</time>
  <course>10.71</course>
  <speed>0.0</speed>
  <fix>3d</fix>
</trkpt>
<trkpt lat="-27.274439" lon="151.290064">
  <ele>343.1</ele>
  <time>2026-09-01T20:02:59Z</time>
  <course>111.11</course>
  <speed>0.0</speed>
  <fix>3d</fix>
</trkpt>
<trkpt lat="-27.274439" lon="151.290064">
  <ele>343.08</ele>
  <time>2026-09-01T20:02:59Z</time>
  <course>10.71</course>
  <speed>0.0</speed>
  <fix>3d</fix>
</trkpt>
<trkpt lat="-27.274439" lon="151.290064">
  <ele>343.08</ele>
  <time>2026-09-01T20:02:59Z</time>
  <course>10.71</course>
  <speed>0.0</speed>
  <fix>3d</fix>
</trkpt>
<trkpt lat="-27.274439" lon="151.290064">
  <ele>343.1</ele>
  <time>2026-09-01T20:02:59Z</time>
  <course>111.11</course>
  <speed>0.0</speed>
  <fix>3d</fix>
</trkpt>
<trkpt lat="-27.274439" lon="151.290064">
  <ele>343.08</ele>
  <time>2026-09-01T20:02:59Z</time>
  <course>10.71</course>
  <speed>0.0</speed>
  <fix>3d</fix>
</trkpt>
<trkpt lat="-27.274439" lon="151.290064">
  <ele>343.08</ele>
  <time>2026-09-01T20:02:59Z</time>
  <course>10.71</course>
  <speed>0.0</speed>
  <fix>3d</fix>
</trkpt>
<trkpt lat="-27.274439" lon="151.290064">
  <ele>343.1</ele>
  <time>2026-09-01T20:02:59Z</time>
  <course>329.57</course>
  <speed>0.0</speed>
  <fix>3d</fix>
</trkpt>
<trkpt lat="-27.274439" lon="151.290064">
  <ele>343.08</ele>
  <time>2026-09-01T20:02:59Z</time>
  <course>10.71</course>
  <speed>0.0</speed>
  <fix>3d</fix>
</trkpt>
<trkpt lat="-27.274439" lon="151.290064">
  <ele>343.08</ele>
  <time>2026-09-01T20:02:59Z</time>
  <course>10.71</course>
  <speed>0.0</speed>
  <fix>3d</fix>
</trkpt>
<trkpt lat="-27.274439" lon="151.290064">
  <ele>343.1</ele>
  <time>2026-09-01T20:02:59Z</time>
  <course>329.57</course>
  <speed>0.0</speed>
  <fix>3d</fix>
</trkpt>
<trkpt lat="-27.274439" lon="151.290064">
  <ele>343.08</ele>
  <time>2026-09-01T20:02:59Z</time>
  <course>10.71</course>
  <speed>0.0</speed>
  <fix>3d</fix>
</trkpt>
<trkpt lat="-27.274439" lon="151.290064">
  <ele>343.08</ele>
  <time>2026-09-01T20:02:59Z</time>
  <course>10.71</course>
  <speed>0.0</speed>
  <fix>3d</fix>
</trkpt>
<trkpt lat="-27.274439" lon="151.290064">
  <ele>343.1</ele>
  <time>2026-09-01T20:02:59Z</time>
  <course>299.13</course>
  <speed>0.0</speed>
  <fix>3d</fix>
</trkpt>
<trkpt lat="-27.274439" lon="151.290064">
  <ele>343.07</ele>
  <time>2026-09-01T20:02:59Z</time>
  <course>10.71</course>
  <speed>0.0</speed>
  <fix>3d</fix>
</trkpt>
<trkpt lat="-27.274439" lon="151.290064">
  <ele>343.08</ele>
  <time>2026-09-01T20:02:59Z</time>
  <course>10.71</course>
  <speed>0.0</speed>
  <fix>3d</fix>
</trkpt>
<trkpt lat="-27.274439" lon="151.290064">
  <ele>343.1</ele>
  <time>2026-09-01T20:02:59Z</time>
  <course>299.13</course>
  <speed>0.0</speed>
  <fix>3d</fix>
</trkpt>
<trkpt lat="-27.274439" lon="151.290064">
  <ele>343.08</ele>
  <time>2026-09-01T20:02:59Z</time>
  <course>10.71</course>
  <speed>0.0</speed>
  <fix>3d</fix>
</trkpt>
<trkpt lat="-27.274439" lon="151.290064">
  <ele>343.09</ele>
  <time>2026-09-01T20:02:59Z</time>
  <course>10.71</course>
  <speed>0.0</speed>
  <fix>3d</fix>
</trkpt>
<trkpt lat="-27.274439" lon="151.290064">
  <ele>343.1</ele>
  <time>2026-09-01T20:02:59Z</time>
  <course>7.42</course>
  <speed>0.0</speed>
  <fix>3d</fix>
</trkpt>
<trkpt lat="-27.274439" lon="151.290064">
  <ele>343.09</ele>
  <time>2026-09-01T20:02:59Z</time>
  <course>10.71</course>
  <speed>0.0</speed>
  <fix>3d</fix>
</trkpt>
<trkpt lat="-27.274439" lon="151.290064">
  <ele>343.12</ele>
  <time>2026-09-01T20:02:59Z</time>
  <course>10.71</course>
  <speed>0.0</speed>
  <fix>3d</fix>
</trkpt>
<trkpt lat="-27.274439" lon="151.290064">
  <ele>343.1</ele>
  <time>2026-09-01T20:02:59Z</time>
  <course>7.42</course>
  <speed>0.0</speed>
  <fix>3d</fix>
</trkpt>
<trkpt lat="-27.274439" lon="151.290064">
  <ele>343.13</ele>
  <time>2026-09-01T20:02:59Z</time>
  <course>10.71</course>
  <speed>0.0</speed>
  <fix>3d</fix>
</trkpt>
<trkpt lat="-27.274439" lon="151.290064">
  <ele>343.16</ele>
  <time>2026-09-01T20:02:59Z</time>
  <course>10.71</course>
  <speed>0.0</speed>
  <fix>3d</fix>
</trkpt>
<trkpt lat="-27.274439" lon="151.290064">
  <ele>343.12</ele>
  <time>2026-09-01T20:02:59Z</time>
  <course>7.92</course>
  <speed>0.0</speed>
  <fix>3d</fix>
</trkpt>
<trkpt lat="-27.274439" lon="151.290064">
  <ele>343.17</ele>
  <time>2026-09-01T20:02:59Z</time>
  <course>10.71</course>
  <speed>0.0</speed>
  <fix>3d</fix>
</trkpt>
<trkpt lat="-27.274439" lon="151.290064">
  <ele>343.21</ele>
  <time>2026-09-01T20:02:59Z</time>
  <course>10.71</course>
  <speed>0.0</speed>
  <fix>3d</fix>
</trkpt>
<trkpt lat="-27.274439" lon="151.290064">
  <ele>343.12</ele>
  <time>2026-09-01T20:02:59Z</time>
  <course>7.92</course>
  <speed>0.0</speed>
  <fix>3d</fix>
</trkpt>
<trkpt lat="-27.274439" lon="151.290064">
  <ele>343.21</ele>
  <time>2026-09-01T20:02:59Z</time>
  <course>10.71</course>
  <speed>0.0</speed>
  <fix>3d</fix>
</trkpt>
<trkpt lat="-27.274439" lon="151.290064">
  <ele>343.32</ele>
  <time>2026-09-01T20:02:59Z</time>
  <course>10.71</course>
  <speed>0.03</speed>
  <fix>3d</fix>
</trkpt>
<trkpt lat="-27.274439" lon="151.290064">
  <ele>343.19</ele>
  <time>2026-09-01T20:02:59Z</time>
  <course>7.25</course>
  <speed>0.0</speed>
  <fix>3d</fix>
</trkpt>
<trkpt lat="-27.274439" lon="151.290064">
  <ele>343.32</ele>
  <time>2026-09-01T20:02:59Z</time>
  <course>10.71</course>
  <speed>0.03</speed>
  <fix>3d</fix>
</trkpt>
<trkpt lat="-27.274439" lon="151.290064">
  <ele>343.49</ele>
  <time>2026-09-01T20:02:59Z</time>
  <course>10.71</course>
  <speed>0.06082762530298219</speed>
  <fix>3d</fix>
</trkpt>
<trkpt lat="-27.274439" lon="151.290064">
  <ele>343.19</ele>
  <time>2026-09-01T20:02:59Z</time>
  <course>7.25</course>
  <speed>0.0</speed>
  <fix>3d</fix>
</trkpt>
<trkpt lat="-27.274439" lon="151.290064">
  <ele>343.54</ele>
  <time>2026-09-01T20:02:59Z</time>
  <course>10.71</course>
  <speed>0.07071067811865475</speed>
  <fix>3d</fix>
</trkpt>
<trkpt lat="-27.2744389" lon="151.290064">
  <ele>343.7</ele>
  <time>2026-09-01T20:02:59Z</time>
  <course>10.71</course>
  <speed>0.09055385138137417</speed>
  <fix>3d</fix>
</trkpt>
<trkpt lat="-27.274439" lon="151.290064">
  <ele>343.38</ele>
  <time>2026-09-01T20:02:59Z</time>
  <course>6.8</course>
  <speed>0.03</speed>
  <fix>3d</fix>
</trkpt>
<trkpt lat="-27.2744389" lon="151.290064">
  <ele>343.76</ele>
  <time>2026-09-01T20:02:59Z</time>
  <course>10.71</course>
  <speed>0.1004987562112089</speed>
  <fix>3d</fix>
</trkpt>
<trkpt lat="-27.2744388" lon="151.290064">
  <ele>343.93</ele>
  <time>2026-09-01T20:02:59Z</time>
  <course>10.71</course>
  <speed>0.13152946437965907</speed>
  <fix>3d</fix>
</trkpt>
<trkpt lat="-27.274439" lon="151.290064">
  <ele>343.38</ele>
  <time>2026-09-01T20:02:59Z</time>
  <course>6.8</course>
  <speed>0.03</speed>
  <fix>3d</fix>
</trkpt>
<trkpt lat="-27.2744388" lon="151.290064">
  <ele>343.99</ele>
  <time>2026-09-01T20:02:59Z</time>
  <course>10.71</course>
  <speed>0.13152946437965907</speed>
  <fix>3d</fix>
</trkpt>
<trkpt lat="-27.2744387" lon="151.290064">
  <ele>344.16</ele>
  <time>2026-09-01T20:02:59Z</time>
  <course>10.7</course>
  <speed>0.15132745950421556</speed>
  <fix>3d</fix>
</trkpt>
<trkpt lat="-27.2744389" lon="151.290064">
  <ele>343.74</ele>
  <time>2026-09-01T20:02:59Z</time>
  <course>6.85</course>
  <speed>0.09</speed>
  <fix>3d</fix>
</trkpt>
<trkpt lat="-27.2744386" lon="151.290064">
  <ele>344.23</ele>
  <time>2026-09-01T20:02:59Z</time>
  <course>10.7</course>
  <speed>0.16124515496597097</speed>
  <fix>3d</fix>
</trkpt>
<trkpt lat="-27.2744385" lon="151.290064">
  <ele>344.39</ele>
  <time>2026-09-01T20:02:59Z</time>
  <course>10.7</course>
  <speed>0.1824828759089466</speed>
  <fix>3d</fix>
</trkpt>
<trkpt lat="-27.2744389" lon="151.290064">
  <ele>343.74</ele>
  <time>2026-09-01T20:02:59Z</time>
  <course>6.85</course>
  <speed>0.09</speed>
  <fix>3d</fix>
</trkpt>
<trkpt lat="-27.2744385" lon="151.2900641">
  <ele>344.47</ele>
  <time>2026-09-01T20:02:59Z</time>
  <course>10.69</course>
  <speed>0.1824828759089466</speed>
  <fix>3d</fix>
</trkpt>
<trkpt lat="-27.2744384" lon="151.2900641">
  <ele>344.62</ele>
  <time>2026-09-01T20:02:59Z</time>
  <course>10.69</course>
  <speed>0.20223748416156684</speed>
  <fix>3d</fix>
</trkpt>
<trkpt lat="-27.2744387" lon="151.290064">
  <ele>344.2</ele>
  <time>2026-09-01T20:02:59Z</time>
  <course>6.96</course>
  <speed>0.16</speed>
  <fix>3d</fix>
</trkpt>
<trkpt lat="-27.2744383" lon="151.2900641">
  <ele>344.69</ele>
  <time>2026-09-01T20:02:59Z</time>
  <course>10.69</course>
  <speed>0.20223748416156684</speed>
  <fix>3d</fix>
</trkpt>
<trkpt lat="-27.2744382" lon="151.2900641">
  <ele>344.85</ele>
  <time>2026-09-01T20:02:59Z</time>
  <course>10.68</course>
  <speed>0.2220360331117452</speed>
  <fix>3d</fix>
</trkpt>
<trkpt lat="-27.2744387" lon="151.290064">
  <ele>344.2</ele>
  <time>2026-09-01T20:02:59Z</time>
  <course>6.96</course>
  <speed>0.16</speed>
  <fix>3d</fix>
</trkpt>
<trkpt lat="-27.2744381" lon="151.2900641">
  <ele>344.9</ele>
  <time>2026-09-01T20:02:59Z</time>
  <course>10.68</course>
  <speed>0.2220360331117452</speed>
  <fix>3d</fix>
</trkpt>
<trkpt lat="-27.274438" lon="151.2900641">
  <ele>345.07</ele>
  <time>2026-09-01T20:02:59Z</time>
  <course>10.66</course>
  <speed>0.23194827009486402</speed>
  <fix>3d</fix>
</trkpt>
<trkpt lat="-27.2744384" lon="151.290064">
  <ele>344.66</ele>
  <time>2026-09-01T20:02:59Z</time>
  <course>7.04</course>
  <speed>0.2</speed>
  <fix>3d</fix>
</trkpt>
<trkpt lat="-27.2744379" lon="151.2900641">
  <ele>345.15</ele>
  <time>2026-09-01T20:02:59Z</time>
  <course>10.66</course>
  <speed>0.23345235059857505</speed>
  <fix>3d</fix>
</trkpt>
<trkpt lat="-27.2744378" lon="151.2900642">
  <ele>345.3</ele>
  <time>2026-09-01T20:02:59Z</time>
  <course>10.66</course>
  <speed>0.24331050121192876</speed>
  <fix>3d</fix>
</trkpt>
<trkpt lat="-27.2744384" lon="151.290064">
  <ele>344.66</ele>
  <time>2026-09-01T20:02:59Z</time>
  <course>7.04</course>
  <speed>0.2</speed>
  <fix>3d</fix>
</trkpt>
<trkpt lat="-27.2744377" lon="151.2900642">
  <ele>345.36</ele>
  <time>2026-09-01T20:02:59Z</time>
  <course>10.66</course>
  <speed>0.24331050121192876</speed>
  <fix>3d</fix>
</trkpt>
<trkpt lat="-27.2744376" lon="151.2900642">
  <ele>345.52</ele>
  <time>2026-09-01T20:02:59Z</time>
  <course>10.66</course>
  <speed>0.24331050121192876</speed>
  <fix>3d</fix>
</trkpt>
<trkpt lat="-27.2744379" lon="151.2900641">
  <ele>345.12</ele>
  <time>2026-09-01T20:02:59Z</time>
  <course>7.15</course>
  <speed>0.24</speed>
  <fix>3d</fix>
</trkpt>
<trkpt lat="-27.2744376" lon="151.2900642">
  <ele>345.53</ele>
  <time>2026-09-01T20:02:59Z</time>
  <course>10.66</course>
  <speed>0.24331050121192876</speed>
  <fix>3d</fix>
</trkpt>
<trkpt lat="-27.2744373" lon="151.2900642">
  <ele>345.73</ele>
  <time>2026-09-01T20:02:59Z</time>
  <course>10.66</course>
  <speed>0.24331050121192876</speed>
  <fix>3d</fix>
</trkpt>
<trkpt lat="-27.2744379" lon="151.2900641">
  <ele>345.12</ele>
  <time>2026-09-01T20:02:59Z</time>
  <course>7.15</course>
  <speed>0.24</speed>
  <fix>3d</fix>
</trkpt>
<trkpt lat="-27.2744373" lon="151.2900642">
  <ele>345.73</ele>
  <time>2026-09-01T20:02:59Z</time>
  <course>10.66</course>
  <speed>0.24331050121192876</speed>
  <fix>3d</fix>
</trkpt>
<trkpt lat="-27.2744371" lon="151.2900642">
  <ele>345.92</ele>
  <time>2026-09-01T20:02:59Z</time>
  <course>10.66</course>
  <speed>0.24186773244895649</speed>
  <fix>3d</fix>
</trkpt>
<trkpt lat="-27.2744375" lon="151.2900641">
  <ele>345.56</ele>
  <time>2026-09-01T20:02:59Z</time>
  <course>7.3</course>
  <speed>0.25</speed>
  <fix>3d</fix>
</trkpt>
<trkpt lat="-27.2744371" lon="151.2900642">
  <ele>345.97</ele>
  <time>2026-09-01T20:02:59Z</time>
  <course>10.66</course>
  <speed>0.24186773244895649</speed>
  <fix>3d</fix>
</trkpt>
<trkpt lat="-27.2744369" lon="151.2900643">
  <ele>346.11</ele>
  <time>2026-09-01T20:02:59Z</time>
  <course>10.66</course>
  <speed>0.23194827009486402</speed>
  <fix>3d</fix>
</trkpt>
<trkpt lat="-27.2744375" lon="151.2900641">
  <ele>345.56</ele>
  <time>2026-09-01T20:02:59Z</time>
  <course>7.3</course>
  <speed>0.25</speed>
  <fix>3d</fix>
</trkpt>
<trkpt lat="-27.2744368" lon="151.2900643">
  <ele>346.16</ele>
  <time>2026-09-01T20:02:59Z</time>
  <course>10.66</course>
  <speed>0.23194827009486402</speed>
  <fix>3d</fix>
</trkpt>
<trkpt lat="-27.2744367" lon="151.2900643">
  <ele>346.29</ele>
  <time>2026-09-01T20:02:59Z</time>
  <course>10.66</course>
  <speed>0.2220360331117452</speed>
  <fix>3d</fix>
</trkpt>
<trkpt lat="-27.2744371" lon="151.2900642">
  <ele>345.96</ele>
  <time>2026-09-01T20:02:59Z</time>
  <course>7.47</course>
  <speed>0.25</speed>
  <fix>3d</fix>
</trkpt>
<trkpt lat="-27.2744366" lon="151.2900643">
  <ele>346.33</ele>
  <time>2026-09-01T20:02:59Z</time>
  <course>10.66</course>
  <speed>0.2220360331117452</speed>
  <fix>3d</fix>
</trkpt>
<trkpt lat="-27.2744365" lon="151.2900643">
  <ele>346.45</ele>
  <time>2026-09-01T20:02:59Z</time>
  <course>10.66</course>
  <speed>0.20223748416156684</speed>
  <fix>3d</fix>
</trkpt>
<trkpt lat="-27.2744371" lon="151.2900642">
  <ele>345.96</ele>
  <time>2026-09-01T20:02:59Z</time>
  <course>7.47</course>
  <speed>0.25</speed>
  <fix>3d</fix>
</trkpt>
<trkpt lat="-27.2744365" lon="151.2900643">
  <ele>346.5</ele>
  <time>2026-09-01T20:02:59Z</time>
  <course>10.66</course>
  <speed>0.20223748416156684</speed>
  <fix>3d</fix>
</trkpt>
<trkpt lat="-27.2744363" lon="151.2900643">
  <ele>346.61</ele>
  <time>2026-09-01T20:02:59Z</time>
  <course>10.66</course>
  <speed>0.191049731745428</speed>
  <fix>3d</fix>
</trkpt>
<trkpt lat="-27.2744367" lon="151.2900642">
  <ele>346.32</ele>
  <time>2026-09-01T20:02:59Z</time>
  <course>7.69</course>
  <speed>0.23</speed>
  <fix>3d</fix>
</trkpt>
<trkpt lat="-27.2744363" lon="151.2900643">
  <ele>346.65</ele>
  <time>2026-09-01T20:02:59Z</time>
  <course>10.66</course>
  <speed>0.18110770276274835</speed>
  <fix>3d</fix>
</trkpt>
<trkpt lat="-27.2744362" lon="151.2900643">
  <ele>346.76</ele>
  <time>2026-09-01T20:02:59Z</time>
  <course>10.67</course>
  <speed>0.1711724276862369</speed>
  <fix>3d</fix>
</trkpt>
<trkpt lat="-27.2744367" lon="151.2900642">
  <ele>346.32</ele>
  <time>2026-09-01T20:02:59Z</time>
  <course>7.69</course>
  <speed>0.23</speed>
  <fix>3d</fix>
</trkpt>
<trkpt lat="-27.2744361" lon="151.2900643">
  <ele>346.8</ele>
  <time>2026-09-01T20:02:59Z</time>
  <course>10.67</course>
  <speed>0.16124515496597097</speed>
  <fix>3d</fix>
</trkpt>
<trkpt lat="-27.274436" lon="151.2900644">
  <ele>346.91</ele>
  <time>2026-09-01T20:02:59Z</time>
  <course>10.67</course>
  <speed>0.15132745950421556</speed>
  <fix>3d</fix>
</trkpt>
<trkpt lat="-27.2744363" lon="151.2900643">
  <ele>346.64</ele>
  <time>2026-09-01T20:02:59Z</time>
  <course>8.01</course>
  <speed>0.2</speed>
  <fix>3d</fix>
</trkpt>
<trkpt lat="-27.274436" lon="151.2900644">
  <ele>346.95</ele>
  <time>2026-09-01T20:02:59Z</time>
  <course>10.67</course>
  <speed>0.140356688476182</speed>
  <fix>3d</fix>
</trkpt>
<trkpt lat="-27.2744359" lon="151.2900644">
  <ele>347.05</ele>
  <time>2026-09-01T20:02:59Z</time>
  <course>10.68</course>
  <speed>0.130384048104053</speed>
  <fix>3d</fix>
</trkpt>
<trkpt lat="-27.2744363" lon="151.2900643">
  <ele>346.64</ele>
  <time>2026-09-01T20:02:59Z</time>
  <course>8.01</course>
  <speed>0.2</speed>
  <fix>3d</fix>
</trkpt>
<trkpt lat="-27.2744358" lon="151.2900644">
  <ele>347.1</ele>
  <time>2026-09-01T20:02:59Z</time>
  <course>10.68</course>
  <speed>0.12041594578792296</speed>
  <fix>3d</fix>
</trkpt>
<trkpt lat="-27.2744358" lon="151.2900644">
  <ele>347.19</ele>
  <time>2026-09-01T20:02:59Z</time>
  <course>10.69</course>
  <speed>0.1004987562112089</speed>
  <fix>3d</fix>
</trkpt>
<trkpt lat="-27.2744359" lon="151.2900644">
  <ele>346.93</ele>
  <time>2026-09-01T20:02:59Z</time>
  <course>8.67</course>
  <speed>0.16</speed>
  <fix>3d</fix>
</trkpt>
<trkpt lat="-27.2744357" lon="151.2900644">
  <ele>347.23</ele>
  <time>2026-09-01T20:02:59Z</time>
  <course>10.69</course>
  <speed>0.1004987562112089</speed>
  <fix>3d</fix>
</trkpt>
<trkpt lat="-27.2744357" lon="151.2900644">
  <ele>347.32</ele>
  <time>2026-09-01T20:02:59Z</time>
  <course>10.7</course>
  <speed>0.08062257748298549</speed>
  <fix>3d</fix>
</trkpt>
<trkpt lat="-27.2744359" lon="151.2900644">
  <ele>346.93</ele>
  <time>2026-09-01T20:02:59Z</time>
  <course>8.67</course>
  <speed>0.16</speed>
  <fix>3d</fix>
</trkpt>
<trkpt lat="-27.2744357" lon="151.2900644">
  <ele>347.33</ele>
  <time>2026-09-01T20:02:59Z</time>
  <course>10.7</course>
  <speed>0.08062257748298549</speed>
  <fix>3d</fix>
</trkpt>
<trkpt lat="-27.2744356" lon="151.2900644">
  <ele>347.46</ele>
  <time>2026-09-01T20:02:59Z</time>
  <course>10.7</course>
  <speed>0.06</speed>
  <fix>3d</fix>
</trkpt>
<trkpt lat="-27.2744357" lon="151.2900644">
  <ele>347.2</ele>
  <time>2026-09-01T20:02:59Z</time>
  <course>10.09</course>
  <speed>0.12</speed>
  <fix>3d</fix>
</trkpt>
<trkpt lat="-27.2744356" lon="151.2900644">
  <ele>347.46</ele>
  <time>2026-09-01T20:02:59Z</time>
  <course>10.7</course>
  <speed>0.06</speed>
  <fix>3d</fix>
</trkpt>
<trkpt lat="-27.2744355" lon="151.2900644">
  <ele>347.59</ele>
  <time>2026-09-01T20:02:59Z</time>
  <course>10.71</course>
  <speed>0.04</speed>
  <fix>3d</fix>
</trkpt>
<trkpt lat="-27.2744357" lon="151.2900644">
  <ele>347.2</ele>
  <time>2026-09-01T20:02:59Z</time>
  <course>10.09</course>
  <speed>0.12</speed>
  <fix>3d</fix>
</trkpt>
<trkpt lat="-27.2744355" lon="151.2900644">
  <ele>347.63</ele>
  <time>2026-09-01T20:02:59Z</time>
  <course>10.72</course>
  <speed>0.03</speed>
  <fix>3d</fix>
</trkpt>
<trkpt lat="-27.2744355" lon="151.2900644">
  <ele>347.72</ele>
  <time>2026-09-01T20:02:59Z</time>
  <course>10.73</course>
  <speed>0.02</speed>
  <fix>3d</fix>
</trkpt>
<trkpt lat="-27.2744355" lon="151.2900645">
  <ele>347.46</ele>
  <time>2026-09-01T20:02:59Z</time>
  <course>13.26</course>
  <speed>0.07</speed>
  <fix>3d</fix>
</trkpt>
<trkpt lat="-27.2744355" lon="151.2900644">
  <ele>347.76</ele>
  <time>2026-09-01T20:02:59Z</time>
  <course>10.73</course>
  <speed>0.01</speed>
  <fix>3d</fix>
</trkpt>
<trkpt lat="-27.2744355" lon="151.2900644">
  <ele>347.85</ele>
  <time>2026-09-01T20:02:59Z</time>
  <course>10.74</course>
  <speed>0.0</speed>
  <fix>3d</fix>
</trkpt>
<trkpt lat="-27.2744355" lon="151.2900645">
  <ele>347.46</ele>
  <time>2026-09-01T20:02:59Z</time>
  <course>13.26</course>
  <speed>0.07</speed>
  <fix>3d</fix>
</trkpt>
<trkpt lat="-27.2744355" lon="151.2900644">
  <ele>347.89</ele>
  <time>2026-09-01T20:02:59Z</time>
  <course>10.75</course>
  <speed>0.0</speed>
  <fix>3d</fix>
</trkpt>
<trkpt lat="-27.2744355" lon="151.2900644">
  <ele>347.98</ele>
  <time>2026-09-01T20:02:59Z</time>
  <course>10.76</course>
  <speed>0.01</speed>
  <fix>3d</fix>
</trkpt>
<trkpt lat="-27.2744354" lon="151.2900645">
  <ele>347.72</ele>
  <time>2026-09-01T20:02:59Z</time>
  <course>24.03</course>
  <speed>0.03</speed>
  <fix>3d</fix>
</trkpt>
<trkpt lat="-27.2744355" lon="151.2900644">
  <ele>348.02</ele>
  <time>2026-09-01T20:02:59Z</time>
  <course>10.77</course>
  <speed>0.02</speed>
  <fix>3d</fix>
</trkpt>
<trkpt lat="-27.2744355" lon="151.2900645">
  <ele>348.12</ele>
  <time>2026-09-01T20:02:59Z</time>
  <course>10.8</course>
  <speed>0.03</speed>
  <fix>3d</fix>
</trkpt>
<trkpt lat="-27.2744354" lon="151.2900645">
  <ele>347.72</ele>
  <time>2026-09-01T20:02:59Z</time>
  <course>24.03</course>
  <speed>0.03</speed>
  <fix>3d</fix>
</trkpt>
<trkpt lat="-27.2744355" lon="151.2900645">
  <ele>348.15</ele>
  <time>2026-09-01T20:02:59Z</time>
  <course>10.82</course>
  <speed>0.03</speed>
  <fix>3d</fix>
</trkpt>
<trkpt lat="-27.2744355" lon="151.2900645">
  <ele>348.25</ele>
  <time>2026-09-01T20:02:59Z</time>
  <course>10.88</course>
  <speed>0.0412310562561766</speed>
  <fix>3d</fix>
</trkpt>
<trkpt lat="-27.2744354" lon="151.2900645">
  <ele>347.97</ele>
  <time>2026-09-01T20:02:59Z</time>
  <course>148.03</course>
  <speed>0.01</speed>
  <fix>3d</fix>
</trkpt>
<trkpt lat="-27.2744355" lon="151.2900645">
  <ele>348.29</ele>
  <time>2026-09-01T20:02:59Z</time>
  <course>10.91</course>
  <speed>0.05099019513592785</speed>
  <fix>3d</fix>
</trkpt>
<trkpt lat="-27.2744355" lon="151.2900645">
  <ele>348.39</ele>
  <time>2026-09-01T20:02:59Z</time>
  <course>10.99</course>
  <speed>0.06082762530298219</speed>
  <fix>3d</fix>
</trkpt>
<trkpt lat="-27.2744354" lon="151.2900645">
  <ele>347.97</ele>
  <time>2026-09-01T20:02:59Z</time>
  <course>148.03</course>
  <speed>0.01</speed>
  <fix>3d</fix>
</trkpt>
<trkpt lat="-27.2744355" lon="151.2900645">
  <ele>348.42</ele>
  <time>2026-09-01T20:02:59Z</time>
  <course>11.01</course>
  <speed>0.06082762530298219</speed>
  <fix>3d</fix>
</trkpt>
<trkpt lat="-27.2744355" lon="151.2900645">
  <ele>348.53</ele>
  <time>2026-09-01T20:02:59Z</time>
  <course>11.04</course>
  <speed>0.07071067811865475</speed>
  <fix>3d</fix>
</trkpt>
<trkpt lat="-27.2744354" lon="151.2900645">
  <ele>348.24</ele>
  <time>2026-09-01T20:02:59Z</time>
  <course>181.72</course>
  <speed>0.04</speed>
  <fix>3d</fix>
</trkpt>
<trkpt lat="-27.2744355" lon="151.2900645">
  <ele>348.56</ele>
  <time>2026-09-01T20:02:59Z</time>
  <course>11.05</course>
  <speed>0.08062257748298549</speed>
  <fix>3d</fix>
</trkpt>
<trkpt lat="-27.2744356" lon="151.2900645">
  <ele>348.67</ele>
  <time>2026-09-01T20:02:59Z</time>
  <course>11.05</course>
  <speed>0.08062257748298549</speed>
  <fix>3d</fix>
</trkpt>
<trkpt lat="-27.2744354" lon="151.2900645">
  <ele>348.24</ele>
  <time>2026-09-01T20:02:59Z</time>
  <course>181.72</course>
  <speed>0.04</speed>
  <fix>3d</fix>
</trkpt>
<trkpt lat="-27.2744356" lon="151.2900645">
  <ele>348.71</ele>
  <time>2026-09-01T20:02:59Z</time>
  <course>11.04</course>
  <speed>0.09055385138137417</speed>
  <fix>3d</fix>
</trkpt>
<trkpt lat="-27.2744357" lon="151.2900645">
  <ele>348.81</ele>
  <time>2026-09-01T20:02:59Z</time>
  <course>11.02</course>
  <speed>0.09055385138137417</speed>
  <fix>3d</fix>
</trkpt>
<trkpt lat="-27.2744355" lon="151.2900645">
  <ele>348.52</ele>
  <time>2026-09-01T20:02:59Z</time>
  <course>186.29</course>
  <speed>0.07</speed>
  <fix>3d</fix>
</trkpt>
<trkpt lat="-27.2744357" lon="151.2900645">
  <ele>348.81</ele>
  <time>2026-09-01T20:02:59Z</time>
  <course>11.02</course>
  <speed>0.09055385138137417</speed>
  <fix>3d</fix>
</trkpt>
<trkpt lat="-27.2744357" lon="151.2900645">
  <ele>348.95</ele>
  <time>2026-09-01T20:02:59Z</time>
  <course>10.98</course>
  <speed>0.1004987562112089</speed>
  <fix>3d</fix>
</trkpt>
<trkpt lat="-27.2744355" lon="151.2900645">
  <ele>348.52</ele>
  <time>2026-09-01T20:02:59Z</time>
  <course>186.29</course>
  <speed>0.07</speed>
  <fix>3d</fix>
</trkpt>
<trkpt lat="-27.2744358" lon="151.2900645">
  <ele>348.99</ele>
  <time>2026-09-01T20:02:59Z</time>
  <course>10.97</course>
  <speed>0.1004987562112089</speed>
  <fix>3d</fix>
</trkpt>
<trkpt lat="-27.2744358" lon="151.2900645">
  <ele>349.09</ele>
  <time>2026-09-01T20:02:59Z</time>
  <course>10.93</course>
  <speed>0.11045361017187261</speed>
  <fix>3d</fix>
</trkpt>
<trkpt lat="-27.2744355" lon="151.2900645">
  <ele>348.8</ele>
  <time>2026-09-01T20:02:59Z</time>
  <course>186.62</course>
  <speed>0.09</speed>
  <fix>3d</fix>
</trkpt>
<trkpt lat="-27.2744358" lon="151.2900645">
  <ele>349.1</ele>
  <time>2026-09-01T20:02:59Z</time>
  <course>10.93</course>
  <speed>0.11045361017187261</speed>
  <fix>3d</fix>
</trkpt>
<trkpt lat="-27.2744359" lon="151.2900645">
  <ele>349.24</ele>
  <time>2026-09-01T20:02:59Z</time>
  <course>10.88</course>
  <speed>0.11045361017187261</speed>
  <fix>3d</fix>
</trkpt>
<trkpt lat="-27.2744355" lon="151.2900645">
  <ele>348.8</ele>
  <time>2026-09-01T20:02:59Z</time>
  <course>186.62</course>
  <speed>0.09</speed>
  <fix>3d</fix>
</trkpt>
<trkpt lat="-27.2744359" lon="151.2900645">
  <ele>349.28</ele>
  <time>2026-09-01T20:02:59Z</time>
  <course>10.87</course>
  <speed>0.11045361017187261</speed>
  <fix>3d</fix>
</trkpt>
<trkpt lat="-27.274436" lon="151.2900645">
  <ele>349.38</ele>
  <time>2026-09-01T20:02:59Z</time>
  <course>10.85</course>
  <speed>0.12041594578792296</speed>
  <fix>3d</fix>
</trkpt>
<trkpt lat="-27.2744358" lon="151.2900645">
  <ele>349.08</ele>
  <time>2026-09-01T20:02:59Z</time>
  <course>186.93</course>
  <speed>0.11</speed>
  <fix>3d</fix>
</trkpt>
<trkpt lat="-27.274436" lon="151.2900645">
  <ele>349.42</ele>
  <time>2026-09-01T20:02:59Z</time>
  <course>10.84</course>
  <speed>0.12041594578792296</speed>
  <fix>3d</fix>
</trkpt>
<trkpt lat="-27.2744361" lon="151.2900644">
  <ele>349.52</ele>
  <time>2026-09-01T20:02:59Z</time>
  <course>10.82</course>
  <speed>0.12041594578792296</speed>
  <fix>3d</fix>
</trkpt>
<trkpt lat="-27.2744358" lon="151.2900645">
  <ele>349.08</ele>
  <time>2026-09-01T20:02:59Z</time>
  <course>186.93</course>
  <speed>0.11</speed>
  <fix>3d</fix>
</trkpt>
<trkpt lat="-27.2744361" lon="151.2900644">
  <ele>349.56</ele>
  <time>2026-09-01T20:02:59Z</time>
  <course>10.82</course>
  <speed>0.12041594578792296</speed>
  <fix>3d</fix>
</trkpt>
<trkpt lat="-27.2744362" lon="151.2900644">
  <ele>349.67</ele>
  <time>2026-09-01T20:02:59Z</time>
  <course>10.8</course>
  <speed>0.130384048104053</speed>
  <fix>3d</fix>
</trkpt>
<trkpt lat="-27.274436" lon="151.2900645">
  <ele>349.38</ele>
  <time>2026-09-01T20:02:59Z</time>
  <course>187.18</course>
  <speed>0.12</speed>
  <fix>3d</fix>
</trkpt>
<trkpt lat="-27.2744363" lon="151.2900644">
  <ele>349.71</ele>
  <time>2026-09-01T20:02:59Z</time>
  <course>10.79</course>
  <speed>0.130384048104053</speed>
  <fix>3d</fix>
</trkpt>
<trkpt lat="-27.2744363" lon="151.2900644">
  <ele>349.81</ele>
  <time>2026-09-01T20:02:59Z</time>
  <course>10.78</course>
  <speed>0.130384048104053</speed>
  <fix>3d</fix>
</trkpt>
<trkpt lat="-27.274436" lon="151.2900645">
  <ele>349.38</ele>
  <time>2026-09-01T20:02:59Z</time>
  <course>187.18</course>
  <speed>0.12</speed>
  <fix>3d</fix>
</trkpt>
<trkpt lat="-27.2744364" lon="151.2900644">
  <ele>349.85</ele>
  <time>2026-09-01T20:02:59Z</time>
  <course>10.78</course>
  <speed>0.130384048104053</speed>
  <fix>3d</fix>
</trkpt>
<trkpt lat="-27.2744365" lon="151.2900644">
  <ele>349.96</ele>
  <time>2026-09-01T20:02:59Z</time>
  <course>10.77</course>
  <speed>0.130384048104053</speed>
  <fix>3d</fix>
</trkpt>
<trkpt lat="-27.2744363" lon="151.2900645">
  <ele>349.67</ele>
  <time>2026-09-01T20:02:59Z</time>
  <course>187.47</course>
  <speed>0.13</speed>
  <fix>3d</fix>
</trkpt>
<trkpt lat="-27.2744365" lon="151.2900644">
  <ele>350.0</ele>
  <time>2026-09-01T20:02:59Z</time>
  <course>10.77</course>
  <speed>0.130384048104053</speed>
  <fix>3d</fix>
</trkpt>
<trkpt lat="-27.2744366" lon="151.2900644">
  <ele>350.11</ele>
  <time>2026-09-01T20:02:59Z</time>
  <course>10.76</course>
  <speed>0.130384048104053</speed>
  <fix>3d</fix>
</trkpt>
<trkpt lat="-27.2744363" lon="151.2900645">
  <ele>349.67</ele>
  <time>2026-09-01T20:02:59Z</time>
  <course>187.47</course>
  <speed>0.13</speed>
  <fix>3d</fix>
</trkpt>
<trkpt lat="-27.2744366" lon="151.2900644">
  <ele>350.14</ele>
  <time>2026-09-01T20:02:59Z</time>
  <course>10.75</course>
  <speed>0.130384048104053</speed>
  <fix>3d</fix>
</trkpt>
<trkpt lat="-27.2744367" lon="151.2900644">
  <ele>350.25</ele>
  <time>2026-09-01T20:02:59Z</time>
  <course>10.75</course>
  <speed>0.130384048104053</speed>
  <fix>3d</fix>
</trkpt>
<trkpt lat="-27.2744365" lon="151.2900645">
  <ele>349.96</ele>
  <time>2026-09-01T20:02:59Z</time>
  <course>187.52</course>
  <speed>0.14</speed>
  <fix>3d</fix>
</trkpt>
<trkpt lat="-27.2744367" lon="151.2900644">
  <ele>350.29</ele>
  <time>2026-09-01T20:02:59Z</time>
  <course>10.75</course>
  <speed>0.130384048104053</speed>
  <fix>3d</fix>
</trkpt>
<trkpt lat="-27.2744368" lon="151.2900644">
  <ele>350.4</ele>
  <time>2026-09-01T20:02:59Z</time>
  <course>10.75</course>
  <speed>0.130384048104053</speed>
  <fix>3d</fix>
</trkpt>
<trkpt lat="-27.2744365" lon="151.2900645">
  <ele>349.96</ele>
  <time>2026-09-01T20:02:59Z</time>
  <course>187.52</course>
  <speed>0.14</speed>
  <fix>3d</fix>
</trkpt>
<trkpt lat="-27.2744368" lon="151.2900644">
  <ele>350.41</ele>
  <time>2026-09-01T20:02:59Z</time>
  <course>10.75</course>
  <speed>0.130384048104053</speed>
  <fix>3d</fix>
</trkpt>
<trkpt lat="-27.2744369" lon="151.2900644">
  <ele>350.55</ele>
  <time>2026-09-01T20:02:59Z</time>
  <course>10.75</course>
  <speed>0.130384048104053</speed>
  <fix>3d</fix>
</trkpt>
<trkpt lat="-27.2744367" lon="151.2900644">
  <ele>350.26</ele>
  <time>2026-09-01T20:02:59Z</time>
  <course>187.59</course>
  <speed>0.14</speed>
  <fix>3d</fix>
</trkpt>
<trkpt lat="-27.274437" lon="151.2900644">
  <ele>350.55</ele>
  <time>2026-09-01T20:02:59Z</time>
  <course>10.75</course>
  <speed>0.130384048104053</speed>
  <fix>3d</fix>
</trkpt>
<trkpt lat="-27.2744371" lon="151.2900644">
  <ele>350.7</ele>
  <time>2026-09-01T20:02:59Z</time>
  <course>10.74</course>
  <speed>0.14</speed>
  <fix>3d</fix>
</trkpt>
<trkpt lat="-27.2744367" lon="151.2900644">
  <ele>350.26</ele>
  <time>2026-09-01T20:02:59Z</time>
  <course>187.59</course>
  <speed>0.14</speed>
  <fix>3d</fix>
</trkpt>
<trkpt lat="-27.2744371" lon="151.2900644">
  <ele>350.74</ele>
  <time>2026-09-01T20:02:59Z</time>
  <course>10.74</course>
  <speed>0.14</speed>
  <fix>3d</fix>
</trkpt>
<trkpt lat="-27.2744372" lon="151.2900644">
  <ele>350.85</ele>
  <time>2026-09-01T20:02:59Z</time>
  <course>10.73</course>
  <speed>0.14</speed>
  <fix>3d</fix>
</trkpt>
<trkpt lat="-27.274437" lon="151.2900644">
  <ele>350.55</ele>
  <time>2026-09-01T20:02:59Z</time>
  <course>187.94</course>
  <speed>0.14</speed>
  <fix>3d</fix>
</trkpt>
<trkpt lat="-27.2744372" lon="151.2900644">
  <ele>350.89</ele>
  <time>2026-09-01T20:02:59Z</time>
  <course>10.72</course>
  <speed>0.13</speed>
  <fix>3d</fix>
</trkpt>
<trkpt lat="-27.2744373" lon="151.2900644">
  <ele>350.99</ele>
  <time>2026-09-01T20:02:59Z</time>
  <course>10.71</course>
  <speed>0.13</speed>
  <fix>3d</fix>
</trkpt>
<trkpt lat="-27.274437" lon="151.2900644">
  <ele>350.55</ele>
  <time>2026-09-01T20:02:59Z</time>
  <course>187.94</course>
  <speed>0.14</speed>
  <fix>3d</fix>
</trkpt>
<trkpt lat="-27.2744374" lon="151.2900644">
  <ele>351.04</ele>
  <time>2026-09-01T20:02:59Z</time>
  <course>10.71</course>
  <speed>0.13</speed>
  <fix>3d</fix>
</trkpt>
<trkpt lat="-27.2744374" lon="151.2900644">
  <ele>351.14</ele>
  <time>2026-09-01T20:02:59Z</time>
  <course>10.69</course>
  <speed>0.13</speed>
  <fix>3d</fix>
</trkpt>
<trkpt lat="-27.2744373" lon="151.2900643">
  <ele>350.84</ele>
  <time>2026-09-01T20:02:59Z</time>
  <course>188.3</course>
  <speed>0.14</speed>
  <fix>3d</fix>
</trkpt>
<trkpt lat="-27.2744375" lon="151.2900644">
  <ele>351.19</ele>
  <time>2026-09-01T20:02:59Z</time>
  <course>10.68</course>
  <speed>0.13</speed>
  <fix>3d</fix>
</trkpt>
<trkpt lat="-27.2744376" lon="151.2900644">
  <ele>351.28</ele>
  <time>2026-09-01T20:02:59Z</time>
  <course>10.66</course>
  <speed>0.13</speed>
  <fix>3d</fix>
</trkpt>
<trkpt lat="-27.2744373" lon="151.2900643">
  <ele>350.84</ele>
  <time>2026-09-01T20:02:59Z</time>
  <course>188.3</course>
  <speed>0.14</speed>
  <fix>3d</fix>
</trkpt>
<trkpt lat="-27.2744376" lon="151.2900644">
  <ele>351.29</ele>
  <time>2026-09-01T20:02:59Z</time>
  <course>10.66</course>
  <speed>0.13</speed>
  <fix>3d</fix>
</trkpt>
<trkpt lat="-27.2744377" lon="151.2900644">
  <ele>351.43</ele>
  <time>2026-09-01T20:02:59Z</time>
  <course>10.61</course>
  <speed>0.13</speed>
  <fix>3d</fix>
</trkpt>
<trkpt lat="-27.2744375" lon="151.2900642">
  <ele>351.13</ele>
  <time>2026-09-01T20:02:59Z</time>
  <course>188.6</course>
  <speed>0.14</speed>
  <fix>3d</fix>
</trkpt>
<trkpt lat="-27.2744377" lon="151.2900644">
  <ele>351.43</ele>
  <time>2026-09-01T20:02:59Z</time>
  <course>10.61</course>
  <speed>0.13</speed>
  <fix>3d</fix>
</trkpt>
<trkpt lat="-27.2744378" lon="151.2900643">
  <ele>351.57</ele>
  <time>2026-09-01T20:02:59Z</time>
  <course>10.56</course>
  <speed>0.13</speed>
  <fix>3d</fix>
</trkpt>
<trkpt lat="-27.2744375" lon="151.2900642">
  <ele>351.13</ele>
  <time>2026-09-01T20:02:59Z</time>
  <course>188.6</course>
  <speed>0.14</speed>
  <fix>3d</fix>
</trkpt>
<trkpt lat="-27.2744378" lon="151.2900643">
  <ele>351.58</ele>
  <time>2026-09-01T20:02:59Z</time>
  <course>10.56</course>
  <speed>0.13</speed>
  <fix>3d</fix>
</trkpt>
<trkpt lat="-27.2744379" lon="151.2900643">
  <ele>351.71</ele>
  <time>2026-09-01T20:02:59Z</time>
  <course>10.52</course>
  <speed>0.13</speed>
  <fix>3d</fix>
</trkpt>
<trkpt lat="-27.2744378" lon="151.2900642">
  <ele>351.42</ele>
  <time>2026-09-01T20:02:59Z</time>
  <course>188.83</course>
  <speed>0.13</speed>
  <fix>3d</fix>
</trkpt>
<trkpt lat="-27.274438" lon="151.2900643">
  <ele>351.76</ele>
  <time>2026-09-01T20:02:59Z</time>
  <course>10.5</course>
  <speed>0.13</speed>
  <fix>3d</fix>
</trkpt>
<trkpt lat="-27.2744381" lon="151.2900643">
  <ele>351.86</ele>
  <time>2026-09-01T20:02:59Z</time>
  <course>10.48</course>
  <speed>0.12</speed>
  <fix>3d</fix>
</trkpt>
<trkpt lat="-27.2744378" lon="151.2900642">
  <ele>351.42</ele>
  <time>2026-09-01T20:02:59Z</time>
  <course>188.83</course>
  <speed>0.13</speed>
  <fix>3d</fix>
</trkpt>
<trkpt lat="-27.2744381" lon="151.2900643">
  <ele>351.89</ele>
  <time>2026-09-01T20:02:59Z</time>
  <course>10.47</course>
  <speed>0.12</speed>
  <fix>3d</fix>
</trkpt>
<trkpt lat="-27.2744382" lon="151.2900643">
  <ele>352.0</ele>
  <time>2026-09-01T20:02:59Z</time>
  <course>10.44</course>
  <speed>0.12</speed>
  <fix>3d</fix>
</trkpt>
<trkpt lat="-27.274438" lon="151.2900642">
  <ele>351.71</ele>
  <time>2026-09-01T20:02:59Z</time>
  <course>188.97</course>
  <speed>0.13</speed>
  <fix>3d</fix>
</trkpt>
<trkpt lat="-27.2744382" lon="151.2900643">
  <ele>352.0</ele>
  <time>2026-09-01T20:02:59Z</time>
  <course>10.44</course>
  <speed>0.12</speed>
  <fix>3d</fix>
</trkpt>
<trkpt lat="-27.2744383" lon="151.2900643">
  <ele>352.14</ele>
  <time>2026-09-01T20:03:00Z</time>
  <course>10.42</course>
  <speed>0.12</speed>
  <fix>3d</fix>
</trkpt>
<trkpt lat="-27.274438" lon="151.2900642">
  <ele>351.71</ele>
  <time>2026-09-01T20:03:00Z</time>
  <course>188.97</course>
  <speed>0.13</speed>
  <fix>3d</fix>
</trkpt>
<trkpt lat="-27.2744383" lon="151.2900643">
  <ele>352.15</ele>
  <time>2026-09-01T20:03:00Z</time>
  <course>10.42</course>
  <speed>0.12</speed>
  <fix>3d</fix>
</trkpt>
<trkpt lat="-27.2744384" lon="151.2900643">
  <ele>352.28</ele>
  <time>2026-09-01T20:03:00Z</time>
  <course>10.42</course>
  <speed>0.11</speed>
  <fix>3d</fix>
</trkpt>
<trkpt lat="-27.2744383" lon="151.2900642">
  <ele>351.99</ele>
  <time>2026-09-01T20:03:00Z</time>
  <course>188.85</course>
  <speed>0.12</speed>
  <fix>3d</fix>
</trkpt>
<trkpt lat="-27.2744384" lon="151.2900643">
  <ele>352.32</ele>
  <time>2026-09-01T20:03:00Z</time>
  <course>10.42</course>
  <speed>0.11</speed>
  <fix>3d</fix>
</trkpt>
<trkpt lat="-27.2744385" lon="151.2900642">
  <ele>352.43</ele>
  <time>2026-09-01T20:03:00Z</time>
  <course>10.43</course>
  <speed>0.11</speed>
  <fix>3d</fix>
</trkpt>
<trkpt lat="-27.2744383" lon="151.2900642">
  <ele>351.99</ele>
  <time>2026-09-01T20:03:00Z</time>
  <course>188.85</course>
  <speed>0.12</speed>
  <fix>3d</fix>
</trkpt>
<trkpt lat="-27.2744385" lon="151.2900642">
  <ele>352.47</ele>
  <time>2026-09-01T20:03:00Z</time>
  <course>10.43</course>
  <speed>0.11</speed>
  <fix>3d</fix>
</trkpt>
<trkpt lat="-27.2744386" lon="151.2900642">
  <ele>352.57</ele>
  <time>2026-09-01T20:03:00Z</time>
  <course>10.45</course>
  <speed>0.1</speed>
  <fix>3d</fix>
</trkpt>
<trkpt lat="-27.2744385" lon="151.2900641">
  <ele>352.28</ele>
  <time>2026-09-01T20:03:00Z</time>
  <course>188.72</course>
  <speed>0.11</speed>
  <fix>3d</fix>
</trkpt>
<trkpt lat="-27.2744386" lon="151.2900642">
  <ele>352.61</ele>
  <time>2026-09-01T20:03:00Z</time>
  <course>10.46</course>
  <speed>0.1</speed>
  <fix>3d</fix>
</trkpt>
<trkpt lat="-27.2744387" lon="151.2900642">
  <ele>352.72</ele>
  <time>2026-09-01T20:03:00Z</time>
  <course>10.48</course>
  <speed>0.1</speed>
  <fix>3d</fix>
</trkpt>
<trkpt lat="-27.2744385" lon="151.2900641">
  <ele>352.28</ele>
  <time>2026-09-01T20:03:00Z</time>
  <course>188.72</course>
  <speed>0.11</speed>
  <fix>3d</fix>
</trkpt>
<trkpt lat="-27.2744387" lon="151.2900642">
  <ele>352.75</ele>
  <time>2026-09-01T20:03:00Z</time>
  <course>10.49</course>
  <speed>0.1</speed>
  <fix>3d</fix>
</trkpt>
<trkpt lat="-27.2744388" lon="151.2900642">
  <ele>352.86</ele>
  <time>2026-09-01T20:03:00Z</time>
  <course>10.51</course>
  <speed>0.1</speed>
  <fix>3d</fix>
</trkpt>
<trkpt lat="-27.2744387" lon="151.2900641">
  <ele>352.56</ele>
  <time>2026-09-01T20:03:00Z</time>
  <course>188.98</course>
  <speed>0.1</speed>
  <fix>3d</fix>
</trkpt>
<trkpt lat="-27.2744388" lon="151.2900642">
  <ele>352.9</ele>
  <time>2026-09-01T20:03:00Z</time>
  <course>10.52</course>
  <speed>0.09</speed>
  <fix>3d</fix>
</trkpt>
<trkpt lat="-27.2744389" lon="151.2900642">
  <ele>353.0</ele>
  <time>2026-09-01T20:03:00Z</time>
  <course>10.53</course>
  <speed>0.09</speed>
  <fix>3d</fix>
</trkpt>
<trkpt lat="-27.2744387" lon="151.2900641">
  <ele>352.56</ele>
  <time>2026-09-01T20:03:00Z</time>
  <course>188.98</course>
  <speed>0.1</speed>
  <fix>3d</fix>
</trkpt>
<trkpt lat="-27.2744389" lon="151.2900642">
  <ele>353.04</ele>
  <time>2026-09-01T20:03:00Z</time>
  <course>10.53</course>
  <speed>0.09</speed>
  <fix>3d</fix>
</trkpt>
<trkpt lat="-27.274439" lon="151.2900642">
  <ele>353.15</ele>
  <time>2026-09-01T20:03:00Z</time>
  <course>10.54</course>
  <speed>0.09</speed>
  <fix>3d</fix>
</trkpt>
<trkpt lat="-27.2744389" lon="151.2900641">
  <ele>352.84</ele>
  <time>2026-09-01T20:03:00Z</time>
  <course>189.37</course>
  <speed>0.09</speed>
  <fix>3d</fix>
</trkpt>
<trkpt lat="-27.274439" lon="151.2900642">
  <ele>353.2</ele>
  <time>2026-09-01T20:03:00Z</time>
  <course>10.54</course>
  <speed>0.09</speed>
  <fix>3d</fix>
</trkpt>
<trkpt lat="-27.2744391" lon="151.2900642">
  <ele>353.29</ele>
  <time>2026-09-01T20:03:00Z</time>
  <course>10.53</course>
  <speed>0.08</speed>
  <fix>3d</fix>
</trkpt>
<trkpt lat="-27.2744389" lon="151.2900641">
  <ele>352.84</ele>
  <time>2026-09-01T20:03:00Z</time>
  <course>189.37</course>
  <speed>0.09</speed>
  <fix>3d</fix>
</trkpt>
<trkpt lat="-27.2744391" lon="151.2900642">
  <ele>353.3</ele>
  <time>2026-09-01T20:03:00Z</time>
  <course>10.53</course>
  <speed>0.08</speed>
  <fix>3d</fix>
</trkpt>
<trkpt lat="-27.2744391" lon="151.2900641">
  <ele>353.43</ele>
  <time>2026-09-01T20:03:00Z</time>
  <course>10.52</course>
  <speed>0.08</speed>
  <fix>3d</fix>
</trkpt>
<trkpt lat="-27.274439" lon="151.290064">
  <ele>353.13</ele>
  <time>2026-09-01T20:03:00Z</time>
  <course>189.84</course>
  <speed>0.08</speed>
  <fix>3d</fix>
</trkpt>
<trkpt lat="-27.2744392" lon="151.2900641">
  <ele>353.48</ele>
  <time>2026-09-01T20:03:00Z</time>
  <course>10.51</course>
  <speed>0.08</speed>
  <fix>3d</fix>
</trkpt>
<trkpt lat="-27.2744392" lon="151.2900641">
  <ele>353.58</ele>
  <time>2026-09-01T20:03:00Z</time>
  <course>10.49</course>
  <speed>0.07</speed>
  <fix>3d</fix>
</trkpt>
<trkpt lat="-27.274439" lon="151.290064">
  <ele>353.13</ele>
  <time>2026-09-01T20:03:00Z</time>
  <course>189.84</course>
  <speed>0.08</speed>
  <fix>3d</fix>
</trkpt>
<trkpt lat="-27.2744392" lon="151.2900641">
  <ele>353.58</ele>
  <time>2026-09-01T20:03:00Z</time>
  <course>10.49</course>
  <speed>0.07</speed>
  <fix>3d</fix>
</trkpt>
<trkpt lat="-27.2744393" lon="151.2900641">
  <ele>353.72</ele>
  <time>2026-09-01T20:03:00Z</time>
  <course>10.46</course>
  <speed>0.07</speed>
  <fix>3d</fix>
</trkpt>
<trkpt lat="-27.2744391" lon="151.290064">
  <ele>353.41</ele>
  <time>2026-09-01T20:03:00Z</time>
  <course>190.19</course>
  <speed>0.07</speed>
  <fix>3d</fix>
</trkpt>
<trkpt lat="-27.2744393" lon="151.2900641">
  <ele>353.73</ele>
  <time>2026-09-01T20:03:00Z</time>
  <course>10.46</course>
  <speed>0.07</speed>
  <fix>3d</fix>
</trkpt>
<trkpt lat="-27.2744393" lon="151.2900641">
  <ele>353.86</ele>
  <time>2026-09-01T20:03:00Z</time>
  <course>10.44</course>
  <speed>0.06</speed>
  <fix>3d</fix>
</trkpt>
<trkpt lat="-27.2744391" lon="151.290064">
  <ele>353.41</ele>
  <time>2026-09-01T20:03:00Z</time>
  <course>190.19</course>
  <speed>0.07</speed>
  <fix>3d</fix>
</trkpt>
<trkpt lat="-27.2744393" lon="151.2900641">
  <ele>353.9</ele>
  <time>2026-09-01T20:03:00Z</time>
  <course>10.44</course>
  <speed>0.06</speed>
  <fix>3d</fix>
</trkpt>
<trkpt lat="-27.2744394" lon="151.2900641">
  <ele>354.0</ele>
  <time>2026-09-01T20:03:00Z</time>
  <course>10.43</course>
  <speed>0.06</speed>
  <fix>3d</fix>
</trkpt>
<trkpt lat="-27.2744393" lon="151.290064">
  <ele>353.7</ele>
  <time>2026-09-01T20:03:00Z</time>
  <course>190.53</course>
  <speed>0.06</speed>
  <fix>3d</fix>
</trkpt>
<trkpt lat="-27.2744394" lon="151.2900641">
  <ele>354.04</ele>
  <time>2026-09-01T20:03:00Z</time>
  <course>10.43</course>
  <speed>0.05</speed>
  <fix>3d</fix>
</trkpt>
<trkpt lat="-27.2744394" lon="151.2900641">
  <ele>354.15</ele>
  <time>2026-09-01T20:03:00Z</time>
  <course>10.43</course>
  <speed>0.05</speed>
  <fix>3d</fix>
</trkpt>
<trkpt lat="-27.2744393" lon="151.290064">
  <ele>353.7</ele>
  <time>2026-09-01T20:03:00Z</time>
  <course>190.53</course>
  <speed>0.06</speed>
  <fix>3d</fix>
</trkpt>
<trkpt lat="-27.2744394" lon="151.2900641">
  <ele>354.19</ele>
  <time>2026-09-01T20:03:00Z</time>
  <course>10.43</course>
  <speed>0.05</speed>
  <fix>3d</fix>
</trkpt>
<trkpt lat="-27.2744395" lon="151.2900641">
  <ele>354.29</ele>
  <time>2026-09-01T20:03:00Z</time>
  <course>10.44</course>
  <speed>0.05</speed>
  <fix>3d</fix>
</trkpt>
<trkpt lat="-27.2744394" lon="151.290064">
  <ele>353.99</ele>
  <time>2026-09-01T20:03:00Z</time>
  <course>191.15</course>
  <speed>0.05</speed>
  <fix>3d</fix>
</trkpt>
<trkpt lat="-27.2744395" lon="151.2900641">
  <ele>354.34</ele>
  <time>2026-09-01T20:03:00Z</time>
  <course>10.44</course>
  <speed>0.04</speed>
  <fix>3d</fix>
</trkpt>
<trkpt lat="-27.2744395" lon="151.2900641">
  <ele>354.43</ele>
  <time>2026-09-01T20:03:00Z</time>
  <course>10.45</course>
  <speed>0.04</speed>
  <fix>3d</fix>
</trkpt>
<trkpt lat="-27.2744394" lon="151.290064">
  <ele>353.99</ele>
  <time>2026-09-01T20:03:00Z</time>
  <course>191.15</course>
  <speed>0.05</speed>
  <fix>3d</fix>
</trkpt>
<trkpt lat="-27.2744395" lon="151.2900641">
  <ele>354.47</ele>
  <time>2026-09-01T20:03:00Z</time>
  <course>10.45</course>
  <speed>0.04</speed>
  <fix>3d</fix>
</trkpt>
<trkpt lat="-27.2744395" lon="151.2900641">
  <ele>354.58</ele>
  <time>2026-09-01T20:03:00Z</time>
  <course>10.45</course>
  <speed>0.04</speed>
  <fix>3d</fix>
</trkpt>
<trkpt lat="-27.2744395" lon="151.2900639">
  <ele>354.28</ele>
  <time>2026-09-01T20:03:00Z</time>
  <course>191.93</course>
  <speed>0.04</speed>
  <fix>3d</fix>
</trkpt>
<trkpt lat="-27.2744395" lon="151.2900641">
  <ele>354.61</ele>
  <time>2026-09-01T20:03:00Z</time>
  <course>10.45</course>
  <speed>0.04</speed>
  <fix>3d</fix>
</trkpt>
<trkpt lat="-27.2744396" lon="151.2900641">
  <ele>354.72</ele>
  <time>2026-09-01T20:03:00Z</time>
  <course>10.46</course>
  <speed>0.03</speed>
  <fix>3d</fix>
</trkpt>
<trkpt lat="-27.2744395" lon="151.2900639">
  <ele>354.28</ele>
  <time>2026-09-01T20:03:00Z</time>
  <course>191.93</course>
  <speed>0.04</speed>
  <fix>3d</fix>
</trkpt>
<trkpt lat="-27.2744396" lon="151.2900641">
  <ele>354.76</ele>
  <time>2026-09-01T20:03:00Z</time>
  <course>10.46</course>
  <speed>0.03</speed>
  <fix>3d</fix>
</trkpt>
<trkpt lat="-27.2744396" lon="151.290064">
  <ele>354.86</ele>
  <time>2026-09-01T20:03:00Z</time>
  <course>10.46</course>
  <speed>0.03</speed>
  <fix>3d</fix>
</trkpt>
<trkpt lat="-27.2744396" lon="151.2900639">
  <ele>354.56</ele>
  <time>2026-09-01T20:03:00Z</time>
  <course>193.58</course>
  <speed>0.03</speed>
  <fix>3d</fix>
</trkpt>
<trkpt lat="-27.2744396" lon="151.290064">
  <ele>354.9</ele>
  <time>2026-09-01T20:03:00Z</time>
  <course>10.46</course>
  <speed>0.03</speed>
  <fix>3d</fix>
</trkpt>
<trkpt lat="-27.2744396" lon="151.290064">
  <ele>355.01</ele>
  <time>2026-09-01T20:03:00Z</time>
  <course>10.46</course>
  <speed>0.02</speed>
  <fix>3d</fix>
</trkpt>
<trkpt lat="-27.2744396" lon="151.2900639">
  <ele>354.56</ele>
  <time>2026-09-01T20:03:00Z</time>
  <course>193.58</course>
  <speed>0.03</speed>
  <fix>3d</fix>
</trkpt>
<trkpt lat="-27.2744396" lon="151.290064">
  <ele>355.01</ele>
  <time>2026-09-01T20:03:00Z</time>
  <course>10.46</course>
  <speed>0.02</speed>
  <fix>3d</fix>
</trkpt>
<trkpt lat="-27.2744396" lon="151.290064">
  <ele>355.15</ele>
  <time>2026-09-01T20:03:00Z</time>
  <course>10.47</course>
  <speed>0.02</speed>
  <fix>3d</fix>
</trkpt>
<trkpt lat="-27.2744396" lon="151.2900639">
  <ele>354.85</ele>
  <time>2026-09-01T20:03:00Z</time>
  <course>196.31</course>
  <speed>0.02</speed>
  <fix>3d</fix>
</trkpt>
<trkpt lat="-27.2744396" lon="151.290064">
  <ele>355.16</ele>
  <time>2026-09-01T20:03:00Z</time>
  <course>10.47</course>
  <speed>0.02</speed>
  <fix>3d</fix>
</trkpt>
<trkpt lat="-27.2744397" lon="151.290064">
  <ele>355.3</ele>
  <time>2026-09-01T20:03:00Z</time>
  <course>10.49</course>
  <speed>0.01</speed>
  <fix>3d</fix>
</trkpt>
<trkpt lat="-27.2744396" lon="151.2900639">
  <ele>354.85</ele>
  <time>2026-09-01T20:03:00Z</time>
  <course>196.31</course>
  <speed>0.02</speed>
  <fix>3d</fix>
</trkpt>
<trkpt lat="-27.2744397" lon="151.290064">
  <ele>355.3</ele>
  <time>2026-09-01T20:03:00Z</time>
  <course>10.49</course>
  <speed>0.01</speed>
  <fix>3d</fix>
</trkpt>
<trkpt lat="-27.2744397" lon="151.290064">
  <ele>355.44</ele>
  <time>2026-09-01T20:03:00Z</time>
  <course>10.51</course>
  <speed>0.01</speed>
  <fix>3d</fix>
</trkpt>
<trkpt lat="-27.2744397" lon="151.2900639">
  <ele>355.14</ele>
  <time>2026-09-01T20:03:00Z</time>
  <course>204.58</course>
  <speed>0.01</speed>
  <fix>3d</fix>
</trkpt>
<trkpt lat="-27.2744397" lon="151.290064">
  <ele>355.44</ele>
  <time>2026-09-01T20:03:00Z</time>
  <course>10.51</course>
  <speed>0.01</speed>
  <fix>3d</fix>
</trkpt>
<trkpt lat="-27.2744397" lon="151.290064">
  <ele>355.58</ele>
  <time>2026-09-01T20:03:00Z</time>
  <course>10.53</course>
  <speed>0.0</speed>
  <fix>3d</fix>
</trkpt>
<trkpt lat="-27.2744397" lon="151.2900639">
  <ele>355.14</ele>
  <time>2026-09-01T20:03:00Z</time>
  <course>204.58</course>
  <speed>0.01</speed>
  <fix>3d</fix>
</trkpt>
<trkpt lat="-27.2744397" lon="151.290064">
  <ele>355.62</ele>
  <time>2026-09-01T20:03:00Z</time>
  <course>10.53</course>
  <speed>0.0</speed>
  <fix>3d</fix>
</trkpt>
<trkpt lat="-27.2744397" lon="151.290064">
  <ele>355.72</ele>
  <time>2026-09-01T20:03:00Z</time>
  <course>10.54</course>
  <speed>0.0</speed>
  <fix>3d</fix>
</trkpt>
<trkpt lat="-27.2744397" lon="151.2900639">
  <ele>355.43</ele>
  <time>2026-09-01T20:03:00Z</time>
  <course>242.46</course>
  <speed>0.0</speed>
  <fix>3d</fix>
</trkpt>
<trkpt lat="-27.2744397" lon="151.290064">
  <ele>355.77</ele>
  <time>2026-09-01T20:03:00Z</time>
  <course>10.55</course>
  <speed>0.0</speed>
  <fix>3d</fix>
</trkpt>
<trkpt lat="-27.2744397" lon="151.290064">
  <ele>355.87</ele>
  <time>2026-09-01T20:03:00Z</time>
  <course>10.56</course>
  <speed>0.0</speed>
  <fix>3d</fix>
</trkpt>
<trkpt lat="-27.2744397" lon="151.2900639">
  <ele>355.43</ele>
  <time>2026-09-01T20:03:00Z</time>
  <course>242.46</course>
  <speed>0.0</speed>
  <fix>3d</fix>
</trkpt>
<trkpt lat="-27.2744397" lon="151.290064">
  <ele>355.91</ele>
  <time>2026-09-01T20:03:00Z</time>
  <course>10.56</course>
  <speed>0.0</speed>
  <fix>3d</fix>
</trkpt>
<trkpt lat="-27.2744397" lon="151.290064">
  <ele>356.01</ele>
  <time>2026-09-01T20:03:00Z</time>
  <course>10.56</course>
  <speed>0.0</speed>
  <fix>3d</fix>
</trkpt>
<trkpt lat="-27.2744397" lon="151.2900639">
  <ele>355.71</ele>
  <time>2026-09-01T20:03:00Z</time>
  <course>321.95</course>
  <speed>0.0</speed>
  <fix>3d</fix>
</trkpt>
<trkpt lat="-27.2744397" lon="151.290064">
  <ele>356.05</ele>
  <time>2026-09-01T20:03:00Z</time>
  <course>10.57</course>
  <speed>0.0</speed>
  <fix>3d</fix>
</trkpt>
<trkpt lat="-27.2744397" lon="151.290064">
  <ele>356.16</ele>
  <time>2026-09-01T20:03:00Z</time>
  <course>10.57</course>
  <speed>0.0</speed>
  <fix>3d</fix>
</trkpt>
<trkpt lat="-27.2744397" lon="151.2900639">
  <ele>355.71</ele>
  <time>2026-09-01T20:03:00Z</time>
  <course>321.95</course>
  <speed>0.0</speed>
  <fix>3d</fix>
</trkpt>
<trkpt lat="-27.2744397" lon="151.290064">
  <ele>356.2</ele>
  <time>2026-09-01T20:03:00Z</time>
  <course>10.58</course>
  <speed>0.0</speed>
  <fix>3d</fix>
</trkpt>
<trkpt lat="-27.2744396" lon="151.290064">
  <ele>356.3</ele>
  <time>2026-09-01T20:03:00Z</time>
  <course>10.59</course>
  <speed>0.0</speed>
  <fix>3d</fix>
</trkpt>
<trkpt lat="-27.2744397" lon="151.2900639">
  <ele>356.0</ele>
  <time>2026-09-01T20:03:00Z</time>
  <course>344.95</course>
  <speed>0.01</speed>
  <fix>3d</fix>
</trkpt>
<trkpt lat="-27.2744396" lon="151.290064">
  <ele>356.34</ele>
  <time>2026-09-01T20:03:00Z</time>
  <course>10.59</course>
  <speed>0.0</speed>
  <fix>3d</fix>
</trkpt>
<trkpt lat="-27.2744396" lon="151.290064">
  <ele>356.45</ele>
  <time>2026-09-01T20:03:00Z</time>
  <course>10.6</course>
  <speed>0.0</speed>
  <fix>3d</fix>
</trkpt>
<trkpt lat="-27.2744397" lon="151.2900639">
  <ele>356.0</ele>
  <time>2026-09-01T20:03:00Z</time>
  <course>344.95</course>
  <speed>0.01</speed>
  <fix>3d</fix>
</trkpt>
<trkpt lat="-27.2744396" lon="151.290064">
  <ele>356.49</ele>
  <time>2026-09-01T20:03:00Z</time>
  <course>10.6</course>
  <speed>0.0</speed>
  <fix>3d</fix>
</trkpt>
<trkpt lat="-27.2744396" lon="151.290064">
  <ele>356.59</ele>
  <time>2026-09-01T20:03:00Z</time>
  <course>10.61</course>
  <speed>0.01</speed>
  <fix>3d</fix>
</trkpt>
<trkpt lat="-27.2744397" lon="151.2900639">
  <ele>356.29</ele>
  <time>2026-09-01T20:03:00Z</time>
  <course>350.57</course>
  <speed>0.02</speed>
  <fix>3d</fix>
</trkpt>
<trkpt lat="-27.2744396" lon="151.290064">
  <ele>356.6</ele>
  <time>2026-09-01T20:03:00Z</time>
  <course>10.61</course>
  <speed>0.01</speed>
  <fix>3d</fix>
</trkpt>
<trkpt lat="-27.2744396" lon="151.290064">
  <ele>356.73</ele>
  <time>2026-09-01T20:03:00Z</time>
  <course>10.62</course>
  <speed>0.01</speed>
  <fix>3d</fix>
</trkpt>
<trkpt lat="-27.2744397" lon="151.2900639">
  <ele>356.29</ele>
  <time>2026-09-01T20:03:00Z</time>
  <course>350.57</course>
  <speed>0.02</speed>
  <fix>3d</fix>
</trkpt>
<trkpt lat="-27.2744396" lon="151.290064">
  <ele>356.74</ele>
  <time>2026-09-01T20:03:00Z</time>
  <course>10.62</course>
  <speed>0.01</speed>
  <fix>3d</fix>
</trkpt>
<trkpt lat="-27.2744396" lon="151.290064">
  <ele>356.88</ele>
  <time>2026-09-01T20:03:00Z</time>
  <course>10.62</course>
  <speed>0.01</speed>
  <fix>3d</fix>
</trkpt>
<trkpt lat="-27.2744397" lon="151.2900639">
  <ele>356.58</ele>
  <time>2026-09-01T20:03:00Z</time>
  <course>352.8</course>
  <speed>0.02</speed>
  <fix>3d</fix>
</trkpt>
<trkpt lat="-27.2744396" lon="151.290064">
  <ele>356.92</ele>
  <time>2026-09-01T20:03:00Z</time>
  <course>10.62</course>
  <speed>0.01</speed>
  <fix>3d</fix>
</trkpt>
<trkpt lat="-27.2744396" lon="151.290064">
  <ele>357.02</ele>
  <time>2026-09-01T20:03:00Z</time>
  <course>10.62</course>
  <speed>0.01</speed>
  <fix>3d</fix>
</trkpt>
<trkpt lat="-27.2744397" lon="151.2900639">
  <ele>356.58</ele>
  <time>2026-09-01T20:03:00Z</time>
  <course>352.8</course>
  <speed>0.02</speed>
  <fix>3d</fix>
</trkpt>
<trkpt lat="-27.2744396" lon="151.290064">
  <ele>357.06</ele>
  <time>2026-09-01T20:03:00Z</time>
  <course>10.62</course>
  <speed>0.01</speed>
  <fix>3d</fix>
</trkpt>
<trkpt lat="-27.2744396" lon="151.290064">
  <ele>357.16</ele>
  <time>2026-09-01T20:03:00Z</time>
  <course>10.62</course>
  <speed>0.01</speed>
  <fix>3d</fix>
</trkpt>
<trkpt lat="-27.2744396" lon="151.2900639">
  <ele>356.86</ele>
  <time>2026-09-01T20:03:00Z</time>
  <course>354.79</course>
  <speed>0.03</speed>
  <fix>3d</fix>
</trkpt>
<trkpt lat="-27.2744396" lon="151.290064">
  <ele>357.2</ele>
  <time>2026-09-01T20:03:00Z</time>
  <course>10.62</course>
  <speed>0.01</speed>
  <fix>3d</fix>
</trkpt>
<trkpt lat="-27.2744396" lon="151.290064">
  <ele>357.31</ele>
  <time>2026-09-01T20:03:00Z</time>
  <course>10.61</course>
  <speed>0.01</speed>
  <fix>3d</fix>
</trkpt>
<trkpt lat="-27.2744396" lon="151.2900639">
  <ele>356.86</ele>
  <time>2026-09-01T20:03:00Z</time>
  <course>354.79</course>
  <speed>0.03</speed>
  <fix>3d</fix>
</trkpt>
<trkpt lat="-27.2744396" lon="151.290064">
  <ele>357.35</ele>
  <time>2026-09-01T20:03:00Z</time>
  <course>10.61</course>
  <speed>0.01</speed>
  <fix>3d</fix>
</trkpt>
<trkpt lat="-27.2744396" lon="151.290064">
  <ele>357.45</ele>
  <time>2026-09-01T20:03:00Z</time>
  <course>10.61</course>
  <speed>0.02</speed>
  <fix>3d</fix>
</trkpt>
<trkpt lat="-27.2744396" lon="151.2900639">
  <ele>357.15</ele>
  <time>2026-09-01T20:03:00Z</time>
  <course>355.72</course>
  <speed>0.03</speed>
  <fix>3d</fix>
</trkpt>
<trkpt lat="-27.2744396" lon="151.290064">
  <ele>357.45</ele>
  <time>2026-09-01T20:03:00Z</time>
  <course>10.61</course>
  <speed>0.02</speed>
  <fix>3d</fix>
</trkpt>
<trkpt lat="-27.2744396" lon="151.290064">
  <ele>357.59</ele>
  <time>2026-09-01T20:03:00Z</time>
  <course>10.6</course>
  <speed>0.02</speed>
  <fix>3d</fix>
</trkpt>
<trkpt lat="-27.2744396" lon="151.2900639">
  <ele>357.15</ele>
  <time>2026-09-01T20:03:00Z</time>
  <course>355.72</course>
  <speed>0.03</speed>
  <fix>3d</fix>
</trkpt>
<trkpt lat="-27.2744396" lon="151.290064">
  <ele>357.63</ele>
  <time>2026-09-01T20:03:00Z</time>
  <course>10.6</course>
  <speed>0.02</speed>
  <fix>3d</fix>
</trkpt>
<trkpt lat="-27.2744395" lon="151.290064">
  <ele>357.73</ele>
  <time>2026-09-01T20:03:00Z</time>
  <course>10.6</course>
  <speed>0.02</speed>
  <fix>3d</fix>
</trkpt>
<trkpt lat="-27.2744395" lon="151.2900638">
  <ele>357.44</ele>
  <time>2026-09-01T20:03:00Z</time>
  <course>355.76</course>
  <speed>0.03</speed>
  <fix>3d</fix>
</trkpt>
<trkpt lat="-27.2744395" lon="151.290064">
  <ele>357.77</ele>
  <time>2026-09-01T20:03:00Z</time>
  <course>10.6</course>
  <speed>0.02</speed>
  <fix>3d</fix>
</trkpt>
<trkpt lat="-27.2744395" lon="151.290064">
  <ele>357.87</ele>
  <time>2026-09-01T20:03:00Z</time>
  <course>10.6</course>
  <speed>0.02</speed>
  <fix>3d</fix>
</trkpt>
<trkpt lat="-27.2744395" lon="151.2900638">
  <ele>357.44</ele>
  <time>2026-09-01T20:03:00Z</time>
  <course>355.76</course>
  <speed>0.03</speed>
  <fix>3d</fix>
</trkpt>
<trkpt lat="-27.2744395" lon="151.290064">
  <ele>357.92</ele>
  <time>2026-09-01T20:03:00Z</time>
  <course>10.6</course>
  <speed>0.02</speed>
  <fix>3d</fix>
</trkpt>
<trkpt lat="-27.2744395" lon="151.290064">
  <ele>358.01</ele>
  <time>2026-09-01T20:03:00Z</time>
  <course>10.6</course>
  <speed>0.02</speed>
  <fix>3d</fix>
</trkpt>
<trkpt lat="-27.2744394" lon="151.2900637">
  <ele>357.72</ele>
  <time>2026-09-01T20:03:00Z</time>
  <course>356.08</course>
  <speed>0.04</speed>
  <fix>3d</fix>
</trkpt>
<trkpt lat="-27.2744395" lon="151.290064">
  <ele>358.02</ele>
  <time>2026-09-01T20:03:00Z</time>
  <course>10.6</course>
  <speed>0.02</speed>
  <fix>3d</fix>
</trkpt>
<trkpt lat="-27.2744395" lon="151.2900639">
  <ele>358.16</ele>
  <time>2026-09-01T20:03:00Z</time>
  <course>10.59</course>
  <speed>0.02</speed>
  <fix>3d</fix>
</trkpt>
<trkpt lat="-27.2744394" lon="151.2900637">
  <ele>357.72</ele>
  <time>2026-09-01T20:03:00Z</time>
  <course>356.08</course>
  <speed>0.04</speed>
  <fix>3d</fix>
</trkpt>
<trkpt lat="-27.2744395" lon="151.2900639">
  <ele>358.16</ele>
  <time>2026-09-01T20:03:00Z</time>
  <course>10.59</course>
  <speed>0.02</speed>
  <fix>3d</fix>
</trkpt>
<trkpt lat="-27.2744394" lon="151.2900639">
  <ele>358.3</ele>
  <time>2026-09-01T20:03:00Z</time>
  <course>10.59</course>
  <speed>0.02</speed>
  <fix>3d</fix>
</trkpt>
<trkpt lat="-27.2744394" lon="151.2900637">
  <ele>358.01</ele>
  <time>2026-09-01T20:03:00Z</time>
  <course>356.75</course>
  <speed>0.04</speed>
  <fix>3d</fix>
</trkpt>
<trkpt lat="-27.2744394" lon="151.2900639">
  <ele>358.36</ele>
  <time>2026-09-01T20:03:00Z</time>
  <course>10.59</course>
  <speed>0.02</speed>
  <fix>3d</fix>
</trkpt>
<trkpt lat="-27.2744394" lon="151.2900639">
  <ele>358.45</ele>
  <time>2026-09-01T20:03:00Z</time>
  <course>10.59</course>
  <speed>0.02</speed>
  <fix>3d</fix>
</trkpt>
<trkpt lat="-27.2744394" lon="151.2900637">
  <ele>358.01</ele>
  <time>2026-09-01T20:03:00Z</time>
  <course>356.75</course>
  <speed>0.04</speed>
  <fix>3d</fix>
</trkpt>
<trkpt lat="-27.2744394" lon="151.2900639">
  <ele>358.48</ele>
  <time>2026-09-01T20:03:00Z</time>
  <course>10.59</course>
  <speed>0.02</speed>
  <fix>3d</fix>
</trkpt>
<trkpt lat="-27.2744394" lon="151.2900639">
  <ele>358.59</ele>
  <time>2026-09-01T20:03:00Z</time>
  <course>10.59</course>
  <speed>0.02</speed>
  <fix>3d</fix>
</trkpt>
<trkpt lat="-27.2744393" lon="151.2900637">
  <ele>358.3</ele>
  <time>2026-09-01T20:03:00Z</time>
  <course>357.19</course>
  <speed>0.04</speed>
  <fix>3d</fix>
</trkpt>
<trkpt lat="-27.2744393" lon="151.2900639">
  <ele>358.63</ele>
  <time>2026-09-01T20:03:00Z</time>
  <course>10.59</course>
  <speed>0.02</speed>
  <fix>3d</fix>
</trkpt>
<trkpt lat="-27.2744393" lon="151.2900639">
  <ele>358.74</ele>
  <time>2026-09-01T20:03:00Z</time>
  <course>10.6</course>
  <speed>0.02</speed>
  <fix>3d</fix>
</trkpt>
<trkpt lat="-27.2744393" lon="151.2900637">
  <ele>358.3</ele>
  <time>2026-09-01T20:03:00Z</time>
  <course>357.19</course>
  <speed>0.04</speed>
  <fix>3d</fix>
</trkpt>
<trkpt lat="-27.2744393" lon="151.2900639">
  <ele>358.77</ele>
  <time>2026-09-01T20:03:00Z</time>
  <course>10.6</course>
  <speed>0.02</speed>
  <fix>3d</fix>
</trkpt>
<trkpt lat="-27.2744393" lon="151.2900639">
  <ele>358.88</ele>
  <time>2026-09-01T20:03:00Z</time>
  <course>10.6</course>
  <speed>0.02</speed>
  <fix>3d</fix>
</trkpt>
<trkpt lat="-27.2744392" lon="151.2900637">
  <ele>358.59</ele>
  <time>2026-09-01T20:03:00Z</time>
  <course>357.68</course>
  <speed>0.04</speed>
  <fix>3d</fix>
</trkpt>
<trkpt lat="-27.2744393" lon="151.2900639">
  <ele>358.92</ele>
  <time>2026-09-01T20:03:00Z</time>
  <course>10.6</course>
  <speed>0.02</speed>
  <fix>3d</fix>
</trkpt>
<trkpt lat="-27.2744392" lon="151.2900639">
  <ele>359.03</ele>
  <time>2026-09-01T20:03:00Z</time>
  <course>10.6</course>
  <speed>0.02</speed>
  <fix>3d</fix>
</trkpt>
<trkpt lat="-27.2744392" lon="151.2900637">
  <ele>358.59</ele>
  <time>2026-09-01T20:03:00Z</time>
  <course>357.68</course>
  <speed>0.04</speed>
  <fix>3d</fix>
</trkpt>
<trkpt lat="-27.2744392" lon="151.2900639">
  <ele>359.07</ele>
  <time>2026-09-01T20:03:00Z</time>
  <course>10.61</course>
  <speed>0.02</speed>
  <fix>3d</fix>
</trkpt>
<trkpt lat="-27.2744392" lon="151.2900639">
  <ele>359.18</ele>
  <time>2026-09-01T20:03:00Z</time>
  <course>10.61</course>
  <speed>0.02</speed>
  <fix>3d</fix>
</trkpt>
<trkpt lat="-27.2744391" lon="151.2900637">
  <ele>358.88</ele>
  <time>2026-09-01T20:03:00Z</time>
  <course>359.26</course>
  <speed>0.04</speed>
  <fix>3d</fix>
</trkpt>
<trkpt lat="-27.2744392" lon="151.2900639">
  <ele>359.21</ele>
  <time>2026-09-01T20:03:00Z</time>
  <course>10.61</course>
  <speed>0.02</speed>
  <fix>3d</fix>
</trkpt>
<trkpt lat="-27.2744392" lon="151.2900638">
  <ele>359.32</ele>
  <time>2026-09-01T20:03:00Z</time>
  <course>10.62</course>
  <speed>0.02</speed>
  <fix>3d</fix>
</trkpt>
<trkpt lat="-27.2744391" lon="151.2900637">
  <ele>358.88</ele>
  <time>2026-09-01T20:03:00Z</time>
  <course>359.26</course>
  <speed>0.04</speed>
  <fix>3d</fix>
</trkpt>
<trkpt lat="-27.2744392" lon="151.2900638">
  <ele>359.36</ele>
  <time>2026-09-01T20:03:00Z</time>
  <course>10.62</course>
  <speed>0.02</speed>
  <fix>3d</fix>
</trkpt>
<trkpt lat="-27.2744391" lon="151.2900638">
  <ele>359.47</ele>
  <time>2026-09-01T20:03:00Z</time>
  <course>10.63</course>
  <speed>0.02</speed>
  <fix>3d</fix>
</trkpt>
<trkpt lat="-27.274439" lon="151.2900637">
  <ele>359.16</ele>
  <time>2026-09-01T20:03:00Z</time>
  <course>1.42</course>
  <speed>0.04</speed>
  <fix>3d</fix>
</trkpt>
<trkpt lat="-27.2744391" lon="151.2900638">
  <ele>359.51</ele>
  <time>2026-09-01T20:03:00Z</time>
  <course>10.64</course>
  <speed>0.02</speed>
  <fix>3d</fix>
</trkpt>
<trkpt lat="-27.2744391" lon="151.2900638">
  <ele>359.61</ele>
  <time>2026-09-01T20:03:00Z</time>
  <course>10.64</course>
  <speed>0.02</speed>
  <fix>3d</fix>
</trkpt>
<trkpt lat="-27.274439" lon="151.2900637">
  <ele>359.16</ele>
  <time>2026-09-01T20:03:00Z</time>
  <course>1.42</course>
  <speed>0.04</speed>
  <fix>3d</fix>
</trkpt>
<trkpt lat="-27.2744391" lon="151.2900638">
  <ele>359.61</ele>
  <time>2026-09-01T20:03:00Z</time>
  <course>10.64</course>
  <speed>0.02</speed>
  <fix>3d</fix>
</trkpt>
<trkpt lat="-27.274439" lon="151.2900638">
  <ele>359.75</ele>
  <time>2026-09-01T20:03:00Z</time>
  <course>10.66</course>
  <speed>0.02</speed>
  <fix>3d</fix>
</trkpt>
<trkpt lat="-27.2744389" lon="151.2900637">
  <ele>359.45</ele>
  <time>2026-09-01T20:03:00Z</time>
  <course>3.28</course>
  <speed>0.04</speed>
  <fix>3d</fix>
</trkpt>
<trkpt lat="-27.274439" lon="151.2900638">
  <ele>359.76</ele>
  <time>2026-09-01T20:03:00Z</time>
  <course>10.66</course>
  <speed>0.02</speed>
  <fix>3d</fix>
</trkpt>
<trkpt lat="-27.274439" lon="151.2900638">
  <ele>359.9</ele>
  <time>2026-09-01T20:03:00Z</time>
  <course>10.67</course>
  <speed>0.02</speed>
  <fix>3d</fix>
</trkpt>
<trkpt lat="-27.2744389" lon="151.2900637">
  <ele>359.45</ele>
  <time>2026-09-01T20:03:00Z</time>
  <course>3.28</course>
  <speed>0.04</speed>
  <fix>3d</fix>
</trkpt>
<trkpt lat="-27.274439" lon="151.2900638">
  <ele>359.93</ele>
  <time>2026-09-01T20:03:00Z</time>
  <course>10.67</course>
  <speed>0.02</speed>
  <fix>3d</fix>
</trkpt>
<trkpt lat="-27.274439" lon="151.2900638">
  <ele>360.04</ele>
  <time>2026-09-01T20:03:00Z</time>
  <course>10.68</course>
  <speed>0.01</speed>
  <fix>3d</fix>
</trkpt>
<trkpt lat="-27.2744389" lon="151.2900637">
  <ele>359.74</ele>
  <time>2026-09-01T20:03:00Z</time>
  <course>5.4</course>
  <speed>0.04</speed>
  <fix>3d</fix>
</trkpt>
<trkpt lat="-27.274439" lon="151.2900638">
  <ele>360.08</ele>
  <time>2026-09-01T20:03:00Z</time>
  <course>10.68</course>
  <speed>0.01</speed>
  <fix>3d</fix>
</trkpt>
<trkpt lat="-27.2744389" lon="151.2900638">
  <ele>360.18</ele>
  <time>2026-09-01T20:03:00Z</time>
  <course>10.69</course>
  <speed>0.01</speed>
  <fix>3d</fix>
</trkpt>
<trkpt lat="-27.2744389" lon="151.2900637">
  <ele>359.74</ele>
  <time>2026-09-01T20:03:00Z</time>
  <course>5.4</course>
  <speed>0.04</speed>
  <fix>3d</fix>
</trkpt>
<trkpt lat="-27.2744389" lon="151.2900638">
  <ele>360.22</ele>
  <time>2026-09-01T20:03:00Z</time>
  <course>10.69</course>
  <speed>0.01</speed>
  <fix>3d</fix>
</trkpt>
<trkpt lat="-27.2744389" lon="151.2900638">
  <ele>360.33</ele>
  <time>2026-09-01T20:03:00Z</time>
  <course>10.7</course>
  <speed>0.01</speed>
  <fix>3d</fix>
</trkpt>
<trkpt lat="-27.2744388" lon="151.2900637">
  <ele>360.03</ele>
  <time>2026-09-01T20:03:00Z</time>
  <course>8.19</course>
  <speed>0.03</speed>
  <fix>3d</fix>
</trkpt>
<trkpt lat="-27.2744389" lon="151.2900638">
  <ele>360.36</ele>
  <time>2026-09-01T20:03:00Z</time>
  <course>10.71</course>
  <speed>0.01</speed>
  <fix>3d</fix>
</trkpt>
<trkpt lat="-27.2744389" lon="151.2900638">
  <ele>360.47</ele>
  <time>2026-09-01T20:03:00Z</time>
  <course>10.72</course>
  <speed>0.01</speed>
  <fix>3d</fix>
</trkpt>
<trkpt lat="-27.2744388" lon="151.2900637">
  <ele>360.03</ele>
  <time>2026-09-01T20:03:00Z</time>
  <course>8.19</course>
  <speed>0.03</speed>
  <fix>3d</fix>
</trkpt>
<trkpt lat="-27.2744389" lon="151.2900638">
  <ele>360.49</ele>
  <time>2026-09-01T20:03:00Z</time>
  <course>10.72</course>
  <speed>0.01</speed>
  <fix>3d</fix>
</trkpt>
<trkpt lat="-27.2744389" lon="151.2900638">
  <ele>360.61</ele>
  <time>2026-09-01T20:03:00Z</time>
  <course>10.74</course>
  <speed>0.01</speed>
  <fix>3d</fix>
</trkpt>
<trkpt lat="-27.2744387" lon="151.2900637">
  <ele>360.32</ele>
  <time>2026-09-01T20:03:00Z</time>
  <course>10.51</course>
  <speed>0.03</speed>
  <fix>3d</fix>
</trkpt>
<trkpt lat="-27.2744388" lon="151.2900638">
  <ele>360.64</ele>
  <time>2026-09-01T20:03:00Z</time>
  <course>10.74</course>
  <speed>0.01</speed>
  <fix>3d</fix>
</trkpt>
<trkpt lat="-27.2744388" lon="151.2900638">
  <ele>360.74</ele>
  <time>2026-09-01T20:03:00Z</time>
  <course>10.75</course>
  <speed>0.01</speed>
  <fix>3d</fix>
</trkpt>
<trkpt lat="-27.2744387" lon="151.2900637">
  <ele>360.32</ele>
  <time>2026-09-01T20:03:00Z</time>
  <course>10.51</course>
  <speed>0.03</speed>
  <fix>3d</fix>
</trkpt>
<trkpt lat="-27.2744388" lon="151.2900638">
  <ele>360.78</ele>
  <time>2026-09-01T20:03:00Z</time>
  <course>10.76</course>
  <speed>0.01</speed>
  <fix>3d</fix>
</trkpt>
<trkpt lat="-27.2744388" lon="151.2900638">
  <ele>360.88</ele>
  <time>2026-09-01T20:03:00Z</time>
  <course>10.77</course>
  <speed>0.01</speed>
  <fix>3d</fix>
</trkpt>
<trkpt lat="-27.2744387" lon="151.2900637">
  <ele>360.6</ele>
  <time>2026-09-01T20:03:00Z</time>
  <course>11.91</course>
  <speed>0.03</speed>
  <fix>3d</fix>
</trkpt>
<trkpt lat="-27.2744388" lon="151.2900638">
  <ele>360.92</ele>
  <time>2026-09-01T20:03:00Z</time>
  <course>10.77</course>
  <speed>0.0</speed>
  <fix>3d</fix>
</trkpt>
<trkpt lat="-27.2744388" lon="151.2900638">
  <ele>361.02</ele>
  <time>2026-09-01T20:03:00Z</time>
  <course>10.77</course>
  <speed>0.0</speed>
  <fix>3d</fix>
</trkpt>
<trkpt lat="-27.2744387" lon="151.2900637">
  <ele>360.6</ele>
  <time>2026-09-01T20:03:00Z</time>
  <course>11.91</course>
  <speed>0.03</speed>
  <fix>3d</fix>
</trkpt>
<trkpt lat="-27.2744388" lon="151.2900638">
  <ele>361.06</ele>
  <time>2026-09-01T20:03:00Z</time>
  <course>10.78</course>
  <speed>0.0</speed>
  <fix>3d</fix>
</trkpt>
<trkpt lat="-27.2744388" lon="151.2900638">
  <ele>361.17</ele>
  <time>2026-09-01T20:03:00Z</time>
  <course>10.78</course>
  <speed>0.0</speed>
  <fix>3d</fix>
</trkpt>
<trkpt lat="-27.2744386" lon="151.2900637">
  <ele>360.89</ele>
  <time>2026-09-01T20:03:00Z</time>
  <course>13.93</course>
  <speed>0.02</speed>
  <fix>3d</fix>
</trkpt>
<trkpt lat="-27.2744388" lon="151.2900638">
  <ele>361.17</ele>
  <time>2026-09-01T20:03:00Z</time>
  <course>10.78</course>
  <speed>0.0</speed>
  <fix>3d</fix>
</trkpt>
<trkpt lat="-27.2744387" lon="151.2900638">
  <ele>361.31</ele>
  <time>2026-09-01T20:03:00Z</time>
  <course>10.78</course>
  <speed>0.0</speed>
  <fix>3d</fix>
</trkpt>
<trkpt lat="-27.2744386" lon="151.2900637">
  <ele>360.89</ele>
  <time>2026-09-01T20:03:00Z</time>
  <course>13.93</course>
  <speed>0.02</speed>
  <fix>3d</fix>
</trkpt>
<trkpt lat="-27.2744387" lon="151.2900638">
  <ele>361.31</ele>
  <time>2026-09-01T20:03:00Z</time>
  <course>10.78</course>
  <speed>0.0</speed>
  <fix>3d</fix>
</trkpt>
<trkpt lat="-27.2744387" lon="151.2900638">
  <ele>361.45</ele>
  <time>2026-09-01T20:03:00Z</time>
  <course>10.79</course>
  <speed>0.0</speed>
  <fix>3d</fix>
</trkpt>
<trkpt lat="-27.2744386" lon="151.2900637">
  <ele>361.17</ele>
  <time>2026-09-01T20:03:00Z</time>
  <course>17.0</course>
  <speed>0.02</speed>
  <fix>3d</fix>
</trkpt>
<trkpt lat="-27.2744387" lon="151.2900638">
  <ele>361.49</ele>
  <time>2026-09-01T20:03:00Z</time>
  <course>10.79</course>
  <speed>0.0</speed>
  <fix>3d</fix>
</trkpt>
<trkpt lat="-27.2744387" lon="151.2900638">
  <ele>361.6</ele>
  <time>2026-09-01T20:03:00Z</time>
  <course>10.8</course>
  <speed>0.0</speed>
  <fix>3d</fix>
</trkpt>
<trkpt lat="-27.2744386" lon="151.2900637">
  <ele>361.17</ele>
  <time>2026-09-01T20:03:00Z</time>
  <course>17.0</course>
  <speed>0.02</speed>
  <fix>3d</fix>
</trkpt>
<trkpt lat="-27.2744387" lon="151.2900638">
  <ele>361.63</ele>
  <time>2026-09-01T20:03:00Z</time>
  <course>10.8</course>
  <speed>0.0</speed>
  <fix>3d</fix>
</trkpt>
<trkpt lat="-27.2744387" lon="151.2900638">
  <ele>361.74</ele>
  <time>2026-09-01T20:03:00Z</time>
  <course>10.81</course>
  <speed>0.0</speed>
  <fix>3d</fix>
</trkpt>
<trkpt lat="-27.2744386" lon="151.2900637">
  <ele>361.46</ele>
  <time>2026-09-01T20:03:00Z</time>
  <course>20.57</course>
  <speed>0.01</speed>
  <fix>3d</fix>
</trkpt>
<trkpt lat="-27.2744387" lon="151.2900638">
  <ele>361.78</ele>
  <time>2026-09-01T20:03:00Z</time>
  <course>10.81</course>
  <speed>0.0</speed>
  <fix>3d</fix>
</trkpt>
<trkpt lat="-27.2744387" lon="151.2900638">
  <ele>361.88</ele>
  <time>2026-09-01T20:03:00Z</time>
  <course>10.82</course>
  <speed>0.0</speed>
  <fix>3d</fix>
</trkpt>
<trkpt lat="-27.2744386" lon="151.2900637">
  <ele>361.46</ele>
  <time>2026-09-01T20:03:00Z</time>
  <course>20.57</course>
  <speed>0.01</speed>
  <fix>3d</fix>
</trkpt>
<trkpt lat="-27.2744387" lon="151.2900638">
  <ele>361.92</ele>
  <time>2026-09-01T20:03:00Z</time>
  <course>10.82</course>
  <speed>0.0</speed>
  <fix>3d</fix>
</trkpt>
<trkpt lat="-27.2744387" lon="151.2900638">
  <ele>362.03</ele>
  <time>2026-09-01T20:03:00Z</time>
  <course>10.82</course>
  <speed>0.0</speed>
  <fix>3d</fix>
</trkpt>
<trkpt lat="-27.2744385" lon="151.2900637">
  <ele>361.75</ele>
  <time>2026-09-01T20:03:00Z</time>
  <course>26.08</course>
  <speed>0.01</speed>
  <fix>3d</fix>
</trkpt>
<trkpt lat="-27.2744387" lon="151.2900638">
  <ele>362.07</ele>
  <time>2026-09-01T20:03:00Z</time>
  <course>10.83</course>
  <speed>0.0</speed>
  <fix>3d</fix>
</trkpt>
<trkpt lat="-27.2744387" lon="151.2900638">
  <ele>362.17</ele>
  <time>2026-09-01T20:03:00Z</time>
  <course>10.83</course>
  <speed>0.0</speed>
  <fix>3d</fix>
</trkpt>
<trkpt lat="-27.2744385" lon="151.2900637">
  <ele>361.75</ele>
  <time>2026-09-01T20:03:00Z</time>
  <course>26.08</course>
  <speed>0.01</speed>
  <fix>3d</fix>
</trkpt>
<trkpt lat="-27.2744387" lon="151.2900638">
  <ele>362.21</ele>
  <time>2026-09-01T20:03:00Z</time>
  <course>10.83</course>
  <speed>0.0</speed>
  <fix>3d</fix>
</trkpt>
<trkpt lat="-27.2744386" lon="151.2900638">
  <ele>362.32</ele>
  <time>2026-09-01T20:03:00Z</time>
  <course>10.83</course>
  <speed>0.0</speed>
  <fix>3d</fix>
</trkpt>
<trkpt lat="-27.2744385" lon="151.2900637">
  <ele>362.04</ele>
  <time>2026-09-01T20:03:00Z</time>
  <course>34.72</course>
  <speed>0.01</speed>
  <fix>3d</fix>
</trkpt>
<trkpt lat="-27.2744386" lon="151.2900638">
  <ele>362.36</ele>
  <time>2026-09-01T20:03:00Z</time>
  <course>10.84</course>
  <speed>0.0</speed>
  <fix>3d</fix>
</trkpt>
<trkpt lat="-27.2744386" lon="151.2900638">
  <ele>362.46</ele>
  <time>2026-09-01T20:03:00Z</time>
  <course>10.84</course>
  <speed>0.0</speed>
  <fix>3d</fix>
</trkpt>
<trkpt lat="-27.2744385" lon="151.2900637">
  <ele>362.04</ele>
  <time>2026-09-01T20:03:00Z</time>
  <course>34.72</course>
  <speed>0.01</speed>
  <fix>3d</fix>
</trkpt>
<trkpt lat="-27.2744386" lon="151.2900638">
  <ele>362.5</ele>
  <time>2026-09-01T20:03:00Z</time>
  <course>10.84</course>
  <speed>0.0</speed>
  <fix>3d</fix>
</trkpt>
<trkpt lat="-27.2744386" lon="151.2900638">
  <ele>362.61</ele>
  <time>2026-09-01T20:03:00Z</time>
  <course>10.85</course>
  <speed>0.0</speed>
  <fix>3d</fix>
</trkpt>
<trkpt lat="-27.2744385" lon="151.2900638">
  <ele>362.34</ele>
  <time>2026-09-01T20:03:00Z</time>
  <course>43.42</course>
  <speed>0.01</speed>
  <fix>3d</fix>
</trkpt>
<trkpt lat="-27.2744386" lon="151.2900638">
  <ele>362.65</ele>
  <time>2026-09-01T20:03:00Z</time>
  <course>10.85</course>
  <speed>0.0</speed>
  <fix>3d</fix>
</trkpt>
<trkpt lat="-27.2744386" lon="151.2900638">
  <ele>362.76</ele>
  <time>2026-09-01T20:03:00Z</time>
  <course>10.85</course>
  <speed>0.0</speed>
  <fix>3d</fix>
</trkpt>
<trkpt lat="-27.2744385" lon="151.2900638">
  <ele>362.34</ele>
  <time>2026-09-01T20:03:00Z</time>
  <course>43.42</course>
  <speed>0.01</speed>
  <fix>3d</fix>
</trkpt>
<trkpt lat="-27.2744386" lon="151.2900638">
  <ele>362.76</ele>
  <time>2026-09-01T20:03:00Z</time>
  <course>10.85</course>
  <speed>0.0</speed>
  <fix>3d</fix>
</trkpt>
<trkpt lat="-27.2744386" lon="151.2900638">
  <ele>362.9</ele>
  <time>2026-09-01T20:03:00Z</time>
  <course>10.85</course>
  <speed>0.0</speed>
  <fix>3d</fix>
</trkpt>
<trkpt lat="-27.2744385" lon="151.2900639">
  <ele>362.63</ele>
  <time>2026-09-01T20:03:00Z</time>
  <course>52.54</course>
  <speed>0.0</speed>
  <fix>3d</fix>
</trkpt>
<trkpt lat="-27.2744386" lon="151.2900638">
  <ele>362.91</ele>
  <time>2026-09-01T20:03:00Z</time>
  <course>10.85</course>
  <speed>0.0</speed>
  <fix>3d</fix>
</trkpt>
<trkpt lat="-27.2744386" lon="151.2900638">
  <ele>363.05</ele>
  <time>2026-09-01T20:03:00Z</time>
  <course>10.85</course>
  <speed>0.01</speed>
  <fix>3d</fix>
</trkpt>
<trkpt lat="-27.2744385" lon="151.2900639">
  <ele>362.63</ele>
  <time>2026-09-01T20:03:00Z</time>
  <course>52.54</course>
  <speed>0.0</speed>
  <fix>3d</fix>
</trkpt>
<trkpt lat="-27.2744386" lon="151.2900638">
  <ele>363.09</ele>
  <time>2026-09-01T20:03:00Z</time>
  <course>10.85</course>
  <speed>0.01</speed>
  <fix>3d</fix>
</trkpt>
<trkpt lat="-27.2744386" lon="151.2900638">
  <ele>363.2</ele>
  <time>2026-09-01T20:03:00Z</time>
  <course>10.86</course>
  <speed>0.01</speed>
  <fix>3d</fix>
</trkpt>
<trkpt lat="-27.2744385" lon="151.2900639">
  <ele>362.92</ele>
  <time>2026-09-01T20:03:00Z</time>
  <course>64.82</course>
  <speed>0.0</speed>
  <fix>3d</fix>
</trkpt>
<trkpt lat="-27.2744386" lon="151.2900638">
  <ele>363.34</ele>
  <time>2026-09-01T20:03:00Z</time>
  <course>10.86</course>
  <speed>0.01</speed>
  <fix>3d</fix>
</trkpt>
<trkpt lat="-27.2744385" lon="151.2900639">
  <ele>362.92</ele>
  <time>2026-09-01T20:03:00Z</time>
  <course>64.82</course>
  <speed>0.0</speed>
  <fix>3d</fix>
</trkpt>
<trkpt lat="-27.2744386" lon="151.2900638">
  <ele>363.48</ele>
  <time>2026-09-01T20:03:00Z</time>
  <course>10.86</course>
  <speed>0.01</speed>
  <fix>3d</fix>
</trkpt>
<trkpt lat="-27.2744385" lon="151.2900639">
  <ele>363.21</ele>
  <time>2026-09-01T20:03:00Z</time>
  <course>80.17</course>
  <speed>0.0</speed>
  <fix>3d</fix>
</trkpt>
<trkpt lat="-27.2744386" lon="151.2900638">
  <ele>363.62</ele>
  <time>2026-09-01T20:03:00Z</time>
  <course>10.87</course>
  <speed>0.01</speed>
  <fix>3d</fix>
</trkpt>
<trkpt lat="-27.2744385" lon="151.2900639">
  <ele>363.21</ele>
  <time>2026-09-01T20:03:00Z</time>
  <course>80.17</course>
  <speed>0.0</speed>
  <fix>3d</fix>
</trkpt>
<trkpt lat="-27.2744386" lon="151.2900638">
  <ele>363.75</ele>
  <time>2026-09-01T20:03:00Z</time>
  <course>10.87</course>
  <speed>0.01</speed>
  <fix>3d</fix>
</trkpt>
<trkpt lat="-27.2744385" lon="151.2900639">
  <ele>363.5</ele>
  <time>2026-09-01T20:03:00Z</time>
  <course>105.48</course>
  <speed>0.0</speed>
  <fix>3d</fix>
</trkpt>
<trkpt lat="-27.2744386" lon="151.2900638">
  <ele>363.87</ele>
  <time>2026-09-01T20:03:00Z</time>
  <course>10.87</course>
  <speed>0.02</speed>
  <fix>3d</fix>
</trkpt>
<trkpt lat="-27.2744385" lon="151.2900639">
  <ele>363.5</ele>
  <time>2026-09-01T20:03:00Z</time>
  <course>105.48</course>
  <speed>0.0</speed>
  <fix>3d</fix>
</trkpt>
<trkpt lat="-27.2744386" lon="151.2900638">
  <ele>363.97</ele>
  <time>2026-09-01T20:03:00Z</time>
  <course>10.88</course>
  <speed>0.02</speed>
  <fix>3d</fix>
</trkpt>
<trkpt lat="-27.2744385" lon="151.2900639">
  <ele>363.76</ele>
  <time>2026-09-01T20:03:00Z</time>
  <course>149.29</course>
  <speed>0.0</speed>
  <fix>3d</fix>
</trkpt>
<trkpt lat="-27.2744386" lon="151.2900638">
  <ele>364.05</ele>
  <time>2026-09-01T20:03:00Z</time>
  <course>10.92</course>
  <speed>0.03</speed>
  <fix>3d</fix>
</trkpt>
<trkpt lat="-27.2744385" lon="151.2900639">
  <ele>363.76</ele>
  <time>2026-09-01T20:03:00Z</time>
  <course>149.29</course>
  <speed>0.0</speed>
  <fix>3d</fix>
</trkpt>
<trkpt lat="-27.2744386" lon="151.2900638">
  <ele>364.12</ele>
  <time>2026-09-01T20:03:00Z</time>
  <course>10.94</course>
  <speed>0.04</speed>
  <fix>3d</fix>
</trkpt>
<trkpt lat="-27.2744385" lon="151.2900639">
  <ele>363.98</ele>
  <time>2026-09-01T20:03:00Z</time>
  <course>179.77</course>
  <speed>0.01</speed>
  <fix>3d</fix>
</trkpt>
<trkpt lat="-27.2744386" lon="151.2900638">
  <ele>364.17</ele>
  <time>2026-09-01T20:03:00Z</time>
  <course>10.95</course>
  <speed>0.05</speed>
  <fix>3d</fix>
</trkpt>
<trkpt lat="-27.2744385" lon="151.2900639">
  <ele>363.98</ele>
  <time>2026-09-01T20:03:00Z</time>
  <course>179.77</course>
  <speed>0.01</speed>
  <fix>3d</fix>
</trkpt>
<trkpt lat="-27.2744387" lon="151.2900638">
  <ele>364.2</ele>
  <time>2026-09-01T20:03:00Z</time>
  <course>10.94</course>
  <speed>0.07</speed>
  <fix>3d</fix>
</trkpt>
<trkpt lat="-27.2744385" lon="151.2900639">
  <ele>364.13</ele>
  <time>2026-09-01T20:03:00Z</time>
  <course>187.42</course>
  <speed>0.03</speed>
  <fix>3d</fix>
</trkpt>
<trkpt lat="-27.2744387" lon="151.2900638">
  <ele>364.23</ele>
  <time>2026-09-01T20:03:00Z</time>
  <course>10.91</course>
  <speed>0.08</speed>
  <fix>3d</fix>
</trkpt>
<trkpt lat="-27.2744385" lon="151.2900639">
  <ele>364.13</ele>
  <time>2026-09-01T20:03:00Z</time>
  <course>187.42</course>
  <speed>0.03</speed>
  <fix>3d</fix>
</trkpt>
<trkpt lat="-27.2744388" lon="151.2900638">
  <ele>364.23</ele>
  <time>2026-09-01T20:03:00Z</time>
  <course>10.86</course>
  <speed>0.09055385138137417</speed>
  <fix>3d</fix>
</trkpt>
<trkpt lat="-27.2744385" lon="151.2900639">
  <ele>364.21</ele>
  <time>2026-09-01T20:03:00Z</time>
  <course>188.05</course>
  <speed>0.06</speed>
  <fix>3d</fix>
</trkpt>
<trkpt lat="-27.2744389" lon="151.2900638">
  <ele>364.23</ele>
  <time>2026-09-01T20:03:00Z</time>
  <course>10.8</course>
  <speed>0.1004987562112089</speed>
  <fix>3d</fix>
</trkpt>
<trkpt lat="-27.2744385" lon="151.2900639">
  <ele>364.21</ele>
  <time>2026-09-01T20:03:00Z</time>
  <course>188.05</course>
  <speed>0.06</speed>
  <fix>3d</fix>
</trkpt>
<trkpt lat="-27.2744389" lon="151.2900638">
  <ele>364.21</ele>
  <time>2026-09-01T20:03:00Z</time>
  <course>10.74</course>
  <speed>0.11045361017187261</speed>
  <fix>3d</fix>
</trkpt>
<trkpt lat="-27.2744387" lon="151.2900639">
  <ele>364.24</ele>
  <time>2026-09-01T20:03:00Z</time>
  <course>187.59</course>
  <speed>0.08</speed>
  <fix>3d</fix>
</trkpt>
<trkpt lat="-27.274439" lon="151.2900638">
  <ele>364.18</ele>
  <time>2026-09-01T20:03:00Z</time>
  <course>10.71</course>
  <speed>0.12041594578792296</speed>
  <fix>3d</fix>
</trkpt>
<trkpt lat="-27.2744387" lon="151.2900639">
  <ele>364.24</ele>
  <time>2026-09-01T20:03:00Z</time>
  <course>187.59</course>
  <speed>0.08</speed>
  <fix>3d</fix>
</trkpt>
<trkpt lat="-27.2744391" lon="151.2900638">
  <ele>364.14</ele>
  <time>2026-09-01T20:03:00Z</time>
  <course>10.72</course>
  <speed>0.12041594578792296</speed>
  <fix>3d</fix>
</trkpt>
<trkpt lat="-27.2744389" lon="151.2900639">
  <ele>364.21</ele>
  <time>2026-09-01T20:03:00Z</time>
  <course>187.56</course>
  <speed>0.1</speed>
  <fix>3d</fix>
</trkpt>
<trkpt lat="-27.2744392" lon="151.2900638">
  <ele>364.08</ele>
  <time>2026-09-01T20:03:00Z</time>
  <course>10.74</course>
  <speed>0.12041594578792296</speed>
  <fix>3d</fix>
</trkpt>
<trkpt lat="-27.2744389" lon="151.2900639">
  <ele>364.21</ele>
  <time>2026-09-01T20:03:00Z</time>
  <course>187.56</course>
  <speed>0.1</speed>
  <fix>3d</fix>
</trkpt>
<trkpt lat="-27.2744393" lon="151.2900638">
  <ele>364.01</ele>
  <time>2026-09-01T20:03:00Z</time>
  <course>10.76</course>
  <speed>0.12041594578792296</speed>
  <fix>3d</fix>
</trkpt>
<trkpt lat="-27.2744391" lon="151.2900639">
  <ele>364.14</ele>
  <time>2026-09-01T20:03:00Z</time>
  <course>188.26</course>
  <speed>0.11</speed>
  <fix>3d</fix>
</trkpt>
<trkpt lat="-27.2744394" lon="151.2900638">
  <ele>363.92</ele>
  <time>2026-09-01T20:03:00Z</time>
  <course>10.78</course>
  <speed>0.12041594578792296</speed>
  <fix>3d</fix>
</trkpt>
<trkpt lat="-27.2744391" lon="151.2900639">
  <ele>364.14</ele>
  <time>2026-09-01T20:03:00Z</time>
  <course>188.26</course>
  <speed>0.11</speed>
  <fix>3d</fix>
</trkpt>
<trkpt lat="-27.2744395" lon="151.2900638">
  <ele>363.83</ele>
  <time>2026-09-01T20:03:00Z</time>
  <course>10.79</course>
  <speed>0.12041594578792296</speed>
  <fix>3d</fix>
</trkpt>
<trkpt lat="-27.2744393" lon="151.2900639">
  <ele>364.01</ele>
  <time>2026-09-01T20:03:00Z</time>
  <course>188.69</course>
  <speed>0.12</speed>
  <fix>3d</fix>
</trkpt>
<trkpt lat="-27.2744396" lon="151.2900638">
  <ele>363.73</ele>
  <time>2026-09-01T20:03:00Z</time>
  <course>10.79</course>
  <speed>0.12041594578792296</speed>
  <fix>3d</fix>
</trkpt>
<trkpt lat="-27.2744393" lon="151.2900639">
  <ele>364.01</ele>
  <time>2026-09-01T20:03:00Z</time>
  <course>188.69</course>
  <speed>0.12</speed>
  <fix>3d</fix>
</trkpt>
<trkpt lat="-27.2744397" lon="151.2900638">
  <ele>363.62</ele>
  <time>2026-09-01T20:03:00Z</time>
  <course>10.79</course>
  <speed>0.11045361017187261</speed>
  <fix>3d</fix>
</trkpt>
<trkpt lat="-27.2744395" lon="151.2900638">
  <ele>363.84</ele>
  <time>2026-09-01T20:03:00Z</time>
  <course>188.79</course>
  <speed>0.11</speed>
  <fix>3d</fix>
</trkpt>
<trkpt lat="-27.2744398" lon="151.2900638">
  <ele>363.5</ele>
  <time>2026-09-01T20:03:00Z</time>
  <course>10.77</course>
  <speed>0.11045361017187261</speed>
  <fix>3d</fix>
</trkpt>
<trkpt lat="-27.2744395" lon="151.2900638">
  <ele>363.84</ele>
  <time>2026-09-01T20:03:00Z</time>
  <course>188.79</course>
  <speed>0.11</speed>
  <fix>3d</fix>
</trkpt>
<trkpt lat="-27.2744399" lon="151.2900638">
  <ele>363.38</ele>
  <time>2026-09-01T20:03:00Z</time>
  <course>10.75</course>
  <speed>0.1004987562112089</speed>
  <fix>3d</fix>
</trkpt>
<trkpt lat="-27.2744397" lon="151.2900637">
  <ele>363.63</ele>
  <time>2026-09-01T20:03:00Z</time>
  <course>188.73</course>
  <speed>0.11</speed>
  <fix>3d</fix>
</trkpt>
<trkpt lat="-27.27444" lon="151.2900638">
  <ele>363.27</ele>
  <time>2026-09-01T20:03:00Z</time>
  <course>10.74</course>
  <speed>0.09055385138137417</speed>
  <fix>3d</fix>
</trkpt>
<trkpt lat="-27.2744397" lon="151.2900637">
  <ele>363.63</ele>
  <time>2026-09-01T20:03:00Z</time>
  <course>188.73</course>
  <speed>0.11</speed>
  <fix>3d</fix>
</trkpt>
<trkpt lat="-27.2744401" lon="151.2900637">
  <ele>363.15</ele>
  <time>2026-09-01T20:03:00Z</time>
  <course>10.72</course>
  <speed>0.09055385138137417</speed>
  <fix>3d</fix>
</trkpt>
<trkpt lat="-27.2744399" lon="151.2900637">
  <ele>363.4</ele>
  <time>2026-09-01T20:03:00Z</time>
  <course>188.69</course>
  <speed>0.09</speed>
  <fix>3d</fix>
</trkpt>
<trkpt lat="-27.2744401" lon="151.2900637">
  <ele>363.03</ele>
  <time>2026-09-01T20:03:00Z</time>
  <course>10.72</course>
  <speed>0.08062257748298549</speed>
  <fix>3d</fix>
</trkpt>
<trkpt lat="-27.2744399" lon="151.2900637">
  <ele>363.4</ele>
  <time>2026-09-01T20:03:00Z</time>
  <course>188.69</course>
  <speed>0.09</speed>
  <fix>3d</fix>
</trkpt>
<trkpt lat="-27.2744402" lon="151.2900637">
  <ele>362.91</ele>
  <time>2026-09-01T20:03:00Z</time>
  <course>10.72</course>
  <speed>0.08</speed>
  <fix>3d</fix>
</trkpt>
<trkpt lat="-27.27444" lon="151.2900637">
  <ele>363.17</ele>
  <time>2026-09-01T20:03:00Z</time>
  <course>188.82</course>
  <speed>0.08</speed>
  <fix>3d</fix>
</trkpt>
<trkpt lat="-27.2744403" lon="151.2900637">
  <ele>362.79</ele>
  <time>2026-09-01T20:03:00Z</time>
  <course>10.73</course>
  <speed>0.07071067811865475</speed>
  <fix>3d</fix>
</trkpt>
<trkpt lat="-27.27444" lon="151.2900637">
  <ele>363.17</ele>
  <time>2026-09-01T20:03:00Z</time>
  <course>188.82</course>
  <speed>0.08</speed>
  <fix>3d</fix>
</trkpt>
<trkpt lat="-27.2744403" lon="151.2900637">
  <ele>362.68</ele>
  <time>2026-09-01T20:03:00Z</time>
  <course>10.73</course>
  <speed>0.06082762530298219</speed>
  <fix>3d</fix>
</trkpt>
<trkpt lat="-27.2744402" lon="151.2900637">
  <ele>362.94</ele>
  <time>2026-09-01T20:03:00Z</time>
  <course>188.82</course>
  <speed>0.07</speed>
  <fix>3d</fix>
</trkpt>
<trkpt lat="-27.2744404" lon="151.2900637">
  <ele>362.57</ele>
  <time>2026-09-01T20:03:00Z</time>
  <course>10.73</course>
  <speed>0.06082762530298219</speed>
  <fix>3d</fix>
</trkpt>
<trkpt lat="-27.2744402" lon="151.2900637">
  <ele>362.94</ele>
  <time>2026-09-01T20:03:00Z</time>
  <course>188.82</course>
  <speed>0.07</speed>
  <fix>3d</fix>
</trkpt>
<trkpt lat="-27.2744404" lon="151.2900637">
  <ele>362.45</ele>
  <time>2026-09-01T20:03:00Z</time>
  <course>10.73</course>
  <speed>0.05</speed>
  <fix>3d</fix>
</trkpt>
<trkpt lat="-27.2744403" lon="151.2900637">
  <ele>362.71</ele>
  <time>2026-09-01T20:03:00Z</time>
  <course>188.82</course>
  <speed>0.06</speed>
  <fix>3d</fix>
</trkpt>
<trkpt lat="-27.2744405" lon="151.2900637">
  <ele>362.34</ele>
  <time>2026-09-01T20:03:00Z</time>
  <course>10.73</course>
  <speed>0.05099019513592785</speed>
  <fix>3d</fix>
</trkpt>
<trkpt lat="-27.2744403" lon="151.2900637">
  <ele>362.71</ele>
  <time>2026-09-01T20:03:00Z</time>
  <course>188.82</course>
  <speed>0.06</speed>
  <fix>3d</fix>
</trkpt>
<trkpt lat="-27.2744405" lon="151.2900637">
  <ele>362.22</ele>
  <time>2026-09-01T20:03:00Z</time>
  <course>10.72</course>
  <speed>0.04</speed>
  <fix>3d</fix>
</trkpt>
<trkpt lat="-27.2744404" lon="151.2900637">
  <ele>362.49</ele>
  <time>2026-09-01T20:03:00Z</time>
  <course>188.9</course>
  <speed>0.05</speed>
  <fix>3d</fix>
</trkpt>
<trkpt lat="-27.2744405" lon="151.2900637">
  <ele>362.11</ele>
  <time>2026-09-01T20:03:00Z</time>
  <course>10.72</course>
  <speed>0.04</speed>
  <fix>3d</fix>
</trkpt>
<trkpt lat="-27.2744404" lon="151.2900637">
  <ele>362.49</ele>
  <time>2026-09-01T20:03:00Z</time>
  <course>188.9</course>
  <speed>0.05</speed>
  <fix>3d</fix>
</trkpt>
<trkpt lat="-27.2744406" lon="151.2900637">
  <ele>362.01</ele>
  <time>2026-09-01T20:03:00Z</time>
  <course>10.73</course>
  <speed>0.03</speed>
  <fix>3d</fix>
</trkpt>
<trkpt lat="-27.2744405" lon="151.2900637">
  <ele>362.27</ele>
  <time>2026-09-01T20:03:00Z</time>
  <course>189.05</course>
  <speed>0.04</speed>
  <fix>3d</fix>
</trkpt>
<trkpt lat="-27.2744406" lon="151.2900637">
  <ele>361.9</ele>
  <time>2026-09-01T20:03:00Z</time>
  <course>10.74</course>
  <speed>0.03</speed>
  <fix>3d</fix>
</trkpt>
<trkpt lat="-27.2744405" lon="151.2900637">
  <ele>362.27</ele>
  <time>2026-09-01T20:03:00Z</time>
  <course>189.05</course>
  <speed>0.04</speed>
  <fix>3d</fix>
</trkpt>
<trkpt lat="-27.2744406" lon="151.2900637">
  <ele>361.79</ele>
  <time>2026-09-01T20:03:00Z</time>
  <course>10.74</course>
  <speed>0.02</speed>
  <fix>3d</fix>
</trkpt>
<trkpt lat="-27.2744405" lon="151.2900637">
  <ele>362.05</ele>
  <time>2026-09-01T20:03:00Z</time>
  <course>189.54</course>
  <speed>0.03</speed>
  <fix>3d</fix>
</trkpt>
<trkpt lat="-27.2744406" lon="151.2900637">
  <ele>361.69</ele>
  <time>2026-09-01T20:03:00Z</time>
  <course>10.74</course>
  <speed>0.02</speed>
  <fix>3d</fix>
</trkpt>
<trkpt lat="-27.2744405" lon="151.2900637">
  <ele>362.05</ele>
  <time>2026-09-01T20:03:00Z</time>
  <course>189.54</course>
  <speed>0.03</speed>
  <fix>3d</fix>
</trkpt>
<trkpt lat="-27.2744406" lon="151.2900637">
  <ele>361.58</ele>
  <time>2026-09-01T20:03:00Z</time>
  <course>10.73</course>
  <speed>0.01</speed>
  <fix>3d</fix>
</trkpt>
<trkpt lat="-27.2744406" lon="151.2900637">
  <ele>361.84</ele>
  <time>2026-09-01T20:03:00Z</time>
  <course>189.65</course>
  <speed>0.02</speed>
  <fix>3d</fix>
</trkpt>
<trkpt lat="-27.2744406" lon="151.2900637">
  <ele>361.47</ele>
  <time>2026-09-01T20:03:00Z</time>
  <course>10.72</course>
  <speed>0.01</speed>
  <fix>3d</fix>
</trkpt>
<trkpt lat="-27.2744406" lon="151.2900637">
  <ele>361.84</ele>
  <time>2026-09-01T20:03:00Z</time>
  <course>189.65</course>
  <speed>0.02</speed>
  <fix>3d</fix>
</trkpt>
<trkpt lat="-27.2744406" lon="151.2900637">
  <ele>361.36</ele>
  <time>2026-09-01T20:03:00Z</time>
  <course>10.71</course>
  <speed>0.0</speed>
  <fix>3d</fix>
</trkpt>
<trkpt lat="-27.2744406" lon="151.2900637">
  <ele>361.62</ele>
  <time>2026-09-01T20:03:00Z</time>
  <course>190.26</course>
  <speed>0.01</speed>
  <fix>3d</fix>
</trkpt>
<trkpt lat="-27.2744406" lon="151.2900637">
  <ele>361.25</ele>
  <time>2026-09-01T20:03:00Z</time>
  <course>10.7</course>
  <speed>0.0</speed>
  <fix>3d</fix>
</trkpt>
<trkpt lat="-27.2744406" lon="151.2900637">
  <ele>361.62</ele>
  <time>2026-09-01T20:03:00Z</time>
  <course>190.26</course>
  <speed>0.01</speed>
  <fix>3d</fix>
</trkpt>
<trkpt lat="-27.2744406" lon="151.2900637">
  <ele>361.14</ele>
  <time>2026-09-01T20:03:00Z</time>
  <course>10.69</course>
  <speed>0.0</speed>
  <fix>3d</fix>
</trkpt>
<trkpt lat="-27.2744407" lon="151.2900636">
  <ele>361.4</ele>
  <time>2026-09-01T20:03:00Z</time>
  <course>195.33</course>
  <speed>0.0</speed>
  <fix>3d</fix>
</trkpt>
<trkpt lat="-27.2744406" lon="151.2900637">
  <ele>361.03</ele>
  <time>2026-09-01T20:03:00Z</time>
  <course>10.69</course>
  <speed>0.0</speed>
  <fix>3d</fix>
</trkpt>
<trkpt lat="-27.2744407" lon="151.2900636">
  <ele>361.4</ele>
  <time>2026-09-01T20:03:00Z</time>
  <course>195.33</course>
  <speed>0.0</speed>
  <fix>3d</fix>
</trkpt>
<trkpt lat="-27.2744406" lon="151.2900637">
  <ele>360.91</ele>
  <time>2026-09-01T20:03:00Z</time>
  <course>10.68</course>
  <speed>0.01</speed>
  <fix>3d</fix>
</trkpt>
<trkpt lat="-27.2744407" lon="151.2900636">
  <ele>361.19</ele>
  <time>2026-09-01T20:03:00Z</time>
  <course>6.11</course>
  <speed>0.0</speed>
  <fix>3d</fix>
</trkpt>
<trkpt lat="-27.2744406" lon="151.2900637">
  <ele>360.8</ele>
  <time>2026-09-01T20:03:00Z</time>
  <course>10.67</course>
  <speed>0.01414213562373095</speed>
  <fix>3d</fix>
</trkpt>
<trkpt lat="-27.2744407" lon="151.2900636">
  <ele>361.19</ele>
  <time>2026-09-01T20:03:00Z</time>
  <course>6.11</course>
  <speed>0.0</speed>
  <fix>3d</fix>
</trkpt>
<trkpt lat="-27.2744406" lon="151.2900637">
  <ele>360.68</ele>
  <time>2026-09-01T20:03:00Z</time>
  <course>10.65</course>
  <speed>0.01414213562373095</speed>
  <fix>3d</fix>
</trkpt>
<trkpt lat="-27.2744407" lon="151.2900637">
  <ele>360.96</ele>
  <time>2026-09-01T20:03:00Z</time>
  <course>7.83</course>
  <speed>0.01</speed>
  <fix>3d</fix>
</trkpt>
<trkpt lat="-27.2744406" lon="151.2900637">
  <ele>360.56</ele>
  <time>2026-09-01T20:03:00Z</time>
  <course>10.65</course>
  <speed>0.01414213562373095</speed>
  <fix>3d</fix>
</trkpt>
<trkpt lat="-27.2744407" lon="151.2900637">
  <ele>360.96</ele>
  <time>2026-09-01T20:03:00Z</time>
  <course>7.83</course>
  <speed>0.01</speed>
  <fix>3d</fix>
</trkpt>
<trkpt lat="-27.2744406" lon="151.2900637">
  <ele>360.44</ele>
  <time>2026-09-01T20:03:00Z</time>
  <course>10.64</course>
  <speed>0.022360679774997897</speed>
  <fix>3d</fix>
</trkpt>
<trkpt lat="-27.2744407" lon="151.2900637">
  <ele>360.74</ele>
  <time>2026-09-01T20:03:00Z</time>
  <course>7.51</course>
  <speed>0.02</speed>
  <fix>3d</fix>
</trkpt>
<trkpt lat="-27.2744406" lon="151.2900637">
  <ele>360.33</ele>
  <time>2026-09-01T20:03:00Z</time>
  <course>10.63</course>
  <speed>0.022360679774997897</speed>
  <fix>3d</fix>
</trkpt>
<trkpt lat="-27.2744407" lon="151.2900637">
  <ele>360.74</ele>
  <time>2026-09-01T20:03:00Z</time>
  <course>7.51</course>
  <speed>0.02</speed>
  <fix>3d</fix>
</trkpt>
<trkpt lat="-27.2744406" lon="151.2900637">
  <ele>360.21</ele>
  <time>2026-09-01T20:03:00Z</time>
  <course>10.63</course>
  <speed>0.022360679774997897</speed>
  <fix>3d</fix>
</trkpt>
<trkpt lat="-27.2744406" lon="151.2900637">
  <ele>360.52</ele>
  <time>2026-09-01T20:03:00Z</time>
  <course>7.02</course>
  <speed>0.03</speed>
  <fix>3d</fix>
</trkpt>
<trkpt lat="-27.2744406" lon="151.2900637">
  <ele>360.09</ele>
  <time>2026-09-01T20:03:00Z</time>
  <course>10.62</course>
  <speed>0.0316227766016838</speed>
  <fix>3d</fix>
</trkpt>
<trkpt lat="-27.2744406" lon="151.2900637">
  <ele>360.52</ele>
  <time>2026-09-01T20:03:00Z</time>
  <course>7.02</course>
  <speed>0.03</speed>
  <fix>3d</fix>
</trkpt>
<trkpt lat="-27.2744406" lon="151.2900637">
  <ele>359.98</ele>
  <time>2026-09-01T20:03:00Z</time>
  <course>10.62</course>
  <speed>0.0316227766016838</speed>
  <fix>3d</fix>
</trkpt>
<trkpt lat="-27.2744406" lon="151.2900637">
  <ele>360.29</ele>
  <time>2026-09-01T20:03:00Z</time>
  <course>6.41</course>
  <speed>0.03</speed>
  <fix>3d</fix>
</trkpt>
<trkpt lat="-27.2744405" lon="151.2900637">
  <ele>359.87</ele>
  <time>2026-09-01T20:03:00Z</time>
  <course>10.62</course>
  <speed>0.0316227766016838</speed>
  <fix>3d</fix>
</trkpt>
<trkpt lat="-27.2744406" lon="151.2900637">
  <ele>360.29</ele>
  <time>2026-09-01T20:03:00Z</time>
  <course>6.41</course>
  <speed>0.03</speed>
  <fix>3d</fix>
</trkpt>
<trkpt lat="-27.2744405" lon="151.2900637">
  <ele>359.75</ele>
  <time>2026-09-01T20:03:00Z</time>
  <course>10.62</course>
  <speed>0.03605551275463989</speed>
  <fix>3d</fix>
</trkpt>
<trkpt lat="-27.2744405" lon="151.2900637">
  <ele>360.06</ele>
  <time>2026-09-01T20:03:00Z</time>
  <course>5.53</course>
  <speed>0.04</speed>
  <fix>3d</fix>
</trkpt>
<trkpt lat="-27.2744405" lon="151.2900638">
  <ele>359.64</ele>
  <time>2026-09-01T20:03:00Z</time>
  <course>10.61</course>
  <speed>0.044721359549995794</speed>
  <fix>3d</fix>
</trkpt>
<trkpt lat="-27.2744405" lon="151.2900637">
  <ele>360.06</ele>
  <time>2026-09-01T20:03:00Z</time>
  <course>5.53</course>
  <speed>0.04</speed>
  <fix>3d</fix>
</trkpt>
<trkpt lat="-27.2744404" lon="151.2900638">
  <ele>359.53</ele>
  <time>2026-09-01T20:03:00Z</time>
  <course>10.61</course>
  <speed>0.044721359549995794</speed>
  <fix>3d</fix>
</trkpt>
<trkpt lat="-27.2744404" lon="151.2900637">
  <ele>359.84</ele>
  <time>2026-09-01T20:03:00Z</time>
  <course>4.35</course>
  <speed>0.05</speed>
  <fix>3d</fix>
</trkpt>
<trkpt lat="-27.2744404" lon="151.2900638">
  <ele>359.41</ele>
  <time>2026-09-01T20:03:00Z</time>
  <course>10.6</course>
  <speed>0.044721359549995794</speed>
  <fix>3d</fix>
</trkpt>
<trkpt lat="-27.2744404" lon="151.2900637">
  <ele>359.84</ele>
  <time>2026-09-01T20:03:00Z</time>
  <course>4.35</course>
  <speed>0.05</speed>
  <fix>3d</fix>
</trkpt>
<trkpt lat="-27.2744403" lon="151.2900638">
  <ele>359.3</ele>
  <time>2026-09-01T20:03:00Z</time>
  <course>10.6</course>
  <speed>0.044721359549995794</speed>
  <fix>3d</fix>
</trkpt>
<trkpt lat="-27.2744403" lon="151.2900637">
  <ele>359.62</ele>
  <time>2026-09-01T20:03:00Z</time>
  <course>3.39</course>
  <speed>0.05</speed>
  <fix>3d</fix>
</trkpt>
<trkpt lat="-27.2744403" lon="151.2900638">
  <ele>359.18</ele>
  <time>2026-09-01T20:03:00Z</time>
  <course>10.59</course>
  <speed>0.044721359549995794</speed>
  <fix>3d</fix>
</trkpt>
<trkpt lat="-27.2744403" lon="151.2900637">
  <ele>359.62</ele>
  <time>2026-09-01T20:03:00Z</time>
  <course>3.39</course>
  <speed>0.05</speed>
  <fix>3d</fix>
</trkpt>
<trkpt lat="-27.2744402" lon="151.2900638">
  <ele>359.07</ele>
  <time>2026-09-01T20:03:00Z</time>
  <course>10.58</course>
  <speed>0.044721359549995794</speed>
  <fix>3d</fix>
</trkpt>
<trkpt lat="-27.2744402" lon="151.2900637">
  <ele>359.39</ele>
  <time>2026-09-01T20:03:00Z</time>
  <course>2.99</course>
  <speed>0.05</speed>
  <fix>3d</fix>
</trkpt>
<trkpt lat="-27.2744402" lon="151.2900638">
  <ele>358.96</ele>
  <time>2026-09-01T20:03:00Z</time>
  <course>10.58</course>
  <speed>0.053851648071345036</speed>
  <fix>3d</fix>
</trkpt>
<trkpt lat="-27.2744402" lon="151.2900637">
  <ele>359.39</ele>
  <time>2026-09-01T20:03:00Z</time>
  <course>2.99</course>
  <speed>0.05</speed>
  <fix>3d</fix>
</trkpt>
<trkpt lat="-27.2744401" lon="151.2900638">
  <ele>358.84</ele>
  <time>2026-09-01T20:03:00Z</time>
  <course>10.58</course>
  <speed>0.053851648071345036</speed>
  <fix>3d</fix>
</trkpt>
<trkpt lat="-27.2744401" lon="151.2900637">
  <ele>359.16</ele>
  <time>2026-09-01T20:03:00Z</time>
  <course>2.7</course>
  <speed>0.06</speed>
  <fix>3d</fix>
</trkpt>
<trkpt lat="-27.2744401" lon="151.2900638">
  <ele>358.73</ele>
  <time>2026-09-01T20:03:00Z</time>
  <course>10.58</course>
  <speed>0.053851648071345036</speed>
  <fix>3d</fix>
</trkpt>
<trkpt lat="-27.2744401" lon="151.2900637">
  <ele>359.16</ele>
  <time>2026-09-01T20:03:00Z</time>
  <course>2.7</course>
  <speed>0.06</speed>
  <fix>3d</fix>
</trkpt>
<trkpt lat="-27.27444" lon="151.2900638">
  <ele>358.62</ele>
  <time>2026-09-01T20:03:00Z</time>
  <course>10.58</course>
  <speed>0.053851648071345036</speed>
  <fix>3d</fix>
</trkpt>
<trkpt lat="-27.27444" lon="151.2900637">
  <ele>358.94</ele>
  <time>2026-09-01T20:03:00Z</time>
  <course>2.25</course>
  <speed>0.06</speed>
  <fix>3d</fix>
</trkpt>
<trkpt lat="-27.2744399" lon="151.2900638">
  <ele>358.5</ele>
  <time>2026-09-01T20:03:00Z</time>
  <course>10.58</course>
  <speed>0.053851648071345036</speed>
  <fix>3d</fix>
</trkpt>
<trkpt lat="-27.27444" lon="151.2900637">
  <ele>358.94</ele>
  <time>2026-09-01T20:03:00Z</time>
  <course>2.25</course>
  <speed>0.06</speed>
  <fix>3d</fix>
</trkpt>
<trkpt lat="-27.2744399" lon="151.2900638">
  <ele>358.39</ele>
  <time>2026-09-01T20:03:00Z</time>
  <course>10.58</course>
  <speed>0.053851648071345036</speed>
  <fix>3d</fix>
</trkpt>
<trkpt lat="-27.2744398" lon="151.2900637">
  <ele>358.71</ele>
  <time>2026-09-01T20:03:00Z</time>
  <course>1.79</course>
  <speed>0.06</speed>
  <fix>3d</fix>
</trkpt>
<trkpt lat="-27.2744398" lon="151.2900638">
  <ele>358.28</ele>
  <time>2026-09-01T20:03:00Z</time>
  <course>10.58</course>
  <speed>0.053851648071345036</speed>
  <fix>3d</fix>
</trkpt>
<trkpt lat="-27.2744398" lon="151.2900637">
  <ele>358.71</ele>
  <time>2026-09-01T20:03:00Z</time>
  <course>1.79</course>
  <speed>0.06</speed>
  <fix>3d</fix>
</trkpt>
<trkpt lat="-27.2744398" lon="151.2900638">
  <ele>358.17</ele>
  <time>2026-09-01T20:03:00Z</time>
  <course>10.58</course>
  <speed>0.05099019513592785</speed>
  <fix>3d</fix>
</trkpt>
<trkpt lat="-27.2744397" lon="151.2900637">
  <ele>358.49</ele>
  <time>2026-09-01T20:03:00Z</time>
  <course>1.35</course>
  <speed>0.06</speed>
  <fix>3d</fix>
</trkpt>
<trkpt lat="-27.2744397" lon="151.2900638">
  <ele>358.06</ele>
  <time>2026-09-01T20:03:00Z</time>
  <course>10.57</course>
  <speed>0.05099019513592785</speed>
  <fix>3d</fix>
</trkpt>
<trkpt lat="-27.2744397" lon="151.2900637">
  <ele>358.49</ele>
  <time>2026-09-01T20:03:00Z</time>
  <course>1.35</course>
  <speed>0.06</speed>
  <fix>3d</fix>
</trkpt>
<trkpt lat="-27.2744396" lon="151.2900638">
  <ele>357.94</ele>
  <time>2026-09-01T20:03:00Z</time>
  <course>10.57</course>
  <speed>0.05099019513592785</speed>
  <fix>3d</fix>
</trkpt>
<trkpt lat="-27.2744396" lon="151.2900637">
  <ele>358.27</ele>
  <time>2026-09-01T20:03:00Z</time>
  <course>1.04</course>
  <speed>0.06</speed>
  <fix>3d</fix>
</trkpt>
<trkpt lat="-27.2744396" lon="151.2900638">
  <ele>357.83</ele>
  <time>2026-09-01T20:03:00Z</time>
  <course>10.57</course>
  <speed>0.0412310562561766</speed>
  <fix>3d</fix>
</trkpt>
<trkpt lat="-27.2744396" lon="151.2900637">
  <ele>358.27</ele>
  <time>2026-09-01T20:03:00Z</time>
  <course>1.04</course>
  <speed>0.06</speed>
  <fix>3d</fix>
</trkpt>
<trkpt lat="-27.2744395" lon="151.2900638">
  <ele>357.71</ele>
  <time>2026-09-01T20:03:00Z</time>
  <course>10.57</course>
  <speed>0.0412310562561766</speed>
  <fix>3d</fix>
</trkpt>
<trkpt lat="-27.2744395" lon="151.2900637">
  <ele>358.04</ele>
  <time>2026-09-01T20:03:00Z</time>
  <course>0.89</course>
  <speed>0.06</speed>
  <fix>3d</fix>
</trkpt>
<trkpt lat="-27.2744395" lon="151.2900638">
  <ele>357.6</ele>
  <time>2026-09-01T20:03:00Z</time>
  <course>10.57</course>
  <speed>0.0412310562561766</speed>
  <fix>3d</fix>
</trkpt>
<trkpt lat="-27.2744395" lon="151.2900637">
  <ele>358.04</ele>
  <time>2026-09-01T20:03:00Z</time>
  <course>0.89</course>
  <speed>0.06</speed>
  <fix>3d</fix>
</trkpt>
<trkpt lat="-27.2744394" lon="151.2900638">
  <ele>357.48</ele>
  <time>2026-09-01T20:03:00Z</time>
  <course>10.57</course>
  <speed>0.0412310562561766</speed>
  <fix>3d</fix>
</trkpt>
<trkpt lat="-27.2744394" lon="151.2900637">
  <ele>357.81</ele>
  <time>2026-09-01T20:03:00Z</time>
  <course>0.69</course>
  <speed>0.06</speed>
  <fix>3d</fix>
</trkpt>
<trkpt lat="-27.2744394" lon="151.2900638">
  <ele>357.37</ele>
  <time>2026-09-01T20:03:00Z</time>
  <course>10.57</course>
  <speed>0.0412310562561766</speed>
  <fix>3d</fix>
</trkpt>
<trkpt lat="-27.2744394" lon="151.2900637">
  <ele>357.81</ele>
  <time>2026-09-01T20:03:00Z</time>
  <course>0.69</course>
  <speed>0.06</speed>
  <fix>3d</fix>
</trkpt>
<trkpt lat="-27.2744393" lon="151.2900638">
  <ele>357.25</ele>
  <time>2026-09-01T20:03:00Z</time>
  <course>10.57</course>
  <speed>0.0412310562561766</speed>
  <fix>3d</fix>
</trkpt>
<trkpt lat="-27.2744392" lon="151.2900637">
  <ele>357.58</ele>
  <time>2026-09-01T20:03:00Z</time>
  <course>0.69</course>
  <speed>0.06</speed>
  <fix>3d</fix>
</trkpt>
<trkpt lat="-27.2744393" lon="151.2900638">
  <ele>357.13</ele>
  <time>2026-09-01T20:03:00Z</time>
  <course>10.58</course>
  <speed>0.0412310562561766</speed>
  <fix>3d</fix>
</trkpt>
<trkpt lat="-27.2744392" lon="151.2900637">
  <ele>357.58</ele>
  <time>2026-09-01T20:03:00Z</time>
  <course>0.69</course>
  <speed>0.06</speed>
  <fix>3d</fix>
</trkpt>
<trkpt lat="-27.2744392" lon="151.2900638">
  <ele>357.02</ele>
  <time>2026-09-01T20:03:00Z</time>
  <course>10.58</course>
  <speed>0.0316227766016838</speed>
  <fix>3d</fix>
</trkpt>
<trkpt lat="-27.2744391" lon="151.2900637">
  <ele>357.36</ele>
  <time>2026-09-01T20:03:00Z</time>
  <course>0.93</course>
  <speed>0.05</speed>
  <fix>3d</fix>
</trkpt>
<trkpt lat="-27.2744392" lon="151.2900638">
  <ele>356.9</ele>
  <time>2026-09-01T20:03:00Z</time>
  <course>10.58</course>
  <speed>0.0316227766016838</speed>
  <fix>3d</fix>
</trkpt>
<trkpt lat="-27.2744391" lon="151.2900637">
  <ele>357.36</ele>
  <time>2026-09-01T20:03:00Z</time>
  <course>0.93</course>
  <speed>0.05</speed>
  <fix>3d</fix>
</trkpt>
<trkpt lat="-27.2744391" lon="151.2900638">
  <ele>356.78</ele>
  <time>2026-09-01T20:03:00Z</time>
  <course>10.58</course>
  <speed>0.0316227766016838</speed>
  <fix>3d</fix>
</trkpt>
<trkpt lat="-27.274439" lon="151.2900637">
  <ele>357.13</ele>
  <time>2026-09-01T20:03:00Z</time>
  <course>0.85</course>
  <speed>0.05</speed>
  <fix>3d</fix>
</trkpt>
<trkpt lat="-27.2744391" lon="151.2900638">
  <ele>356.67</ele>
  <time>2026-09-01T20:03:00Z</time>
  <course>10.58</course>
  <speed>0.0316227766016838</speed>
  <fix>3d</fix>
</trkpt>
<trkpt lat="-27.274439" lon="151.2900637">
  <ele>357.13</ele>
  <time>2026-09-01T20:03:00Z</time>
  <course>0.85</course>
  <speed>0.05</speed>
  <fix>3d</fix>
</trkpt>
<trkpt lat="-27.274439" lon="151.2900638">
  <ele>356.55</ele>
  <time>2026-09-01T20:03:00Z</time>
  <course>10.58</course>
  <speed>0.0316227766016838</speed>
  <fix>3d</fix>
</trkpt>
<trkpt lat="-27.2744389" lon="151.2900637">
  <ele>356.9</ele>
  <time>2026-09-01T20:03:00Z</time>
  <course>0.8</course>
  <speed>0.05</speed>
  <fix>3d</fix>
</trkpt>
<trkpt lat="-27.274439" lon="151.2900638">
  <ele>356.43</ele>
  <time>2026-09-01T20:03:00Z</time>
  <course>10.59</course>
  <speed>0.022360679774997897</speed>
  <fix>3d</fix>
</trkpt>
<trkpt lat="-27.2744389" lon="151.2900637">
  <ele>356.9</ele>
  <time>2026-09-01T20:03:00Z</time>
  <course>0.8</course>
  <speed>0.05</speed>
  <fix>3d</fix>
</trkpt>
<trkpt lat="-27.2744389" lon="151.2900638">
  <ele>356.32</ele>
  <time>2026-09-01T20:03:00Z</time>
  <course>10.59</course>
  <speed>0.022360679774997897</speed>
  <fix>3d</fix>
</trkpt>
<trkpt lat="-27.2744389" lon="151.2900637">
  <ele>356.67</ele>
  <time>2026-09-01T20:03:00Z</time>
  <course>1.03</course>
  <speed>0.04</speed>
  <fix>3d</fix>
</trkpt>
<trkpt lat="-27.2744389" lon="151.2900638">
  <ele>356.2</ele>
  <time>2026-09-01T20:03:00Z</time>
  <course>10.6</course>
  <speed>0.022360679774997897</speed>
  <fix>3d</fix>
</trkpt>
<trkpt lat="-27.2744389" lon="151.2900637">
  <ele>356.67</ele>
  <time>2026-09-01T20:03:00Z</time>
  <course>1.03</course>
  <speed>0.04</speed>
  <fix>3d</fix>
</trkpt>
<trkpt lat="-27.2744389" lon="151.2900638">
  <ele>356.09</ele>
  <time>2026-09-01T20:03:00Z</time>
  <course>10.6</course>
  <speed>0.022360679774997897</speed>
  <fix>3d</fix>
</trkpt>
<trkpt lat="-27.2744388" lon="151.2900637">
  <ele>356.44</ele>
  <time>2026-09-01T20:03:00Z</time>
  <course>1.29</course>
  <speed>0.04</speed>
  <fix>3d</fix>
</trkpt>
<trkpt lat="-27.2744388" lon="151.2900638">
  <ele>355.97</ele>
  <time>2026-09-01T20:03:00Z</time>
  <course>10.61</course>
  <speed>0.022360679774997897</speed>
  <fix>3d</fix>
</trkpt>
<trkpt lat="-27.2744388" lon="151.2900637">
  <ele>356.44</ele>
  <time>2026-09-01T20:03:00Z</time>
  <course>1.29</course>
  <speed>0.04</speed>
  <fix>3d</fix>
</trkpt>
<trkpt lat="-27.2744388" lon="151.2900638">
  <ele>355.86</ele>
  <time>2026-09-01T20:03:00Z</time>
  <course>10.62</course>
  <speed>0.01414213562373095</speed>
  <fix>3d</fix>
</trkpt>
<trkpt lat="-27.2744387" lon="151.2900637">
  <ele>356.21</ele>
  <time>2026-09-01T20:03:00Z</time>
  <course>1.79</course>
  <speed>0.03</speed>
  <fix>3d</fix>
</trkpt>
<trkpt lat="-27.2744388" lon="151.2900638">
  <ele>355.75</ele>
  <time>2026-09-01T20:03:00Z</time>
  <course>10.62</course>
  <speed>0.01414213562373095</speed>
  <fix>3d</fix>
</trkpt>
<trkpt lat="-27.2744387" lon="151.2900637">
  <ele>356.21</ele>
  <time>2026-09-01T20:03:00Z</time>
  <course>1.79</course>
  <speed>0.03</speed>
  <fix>3d</fix>
</trkpt>
<trkpt lat="-27.2744388" lon="151.2900638">
  <ele>355.64</ele>
  <time>2026-09-01T20:03:00Z</time>
  <course>10.62</course>
  <speed>0.01414213562373095</speed>
  <fix>3d</fix>
</trkpt>
<trkpt lat="-27.2744386" lon="151.2900637">
  <ele>355.99</ele>
  <time>2026-09-01T20:03:00Z</time>
  <course>2.42</course>
  <speed>0.03</speed>
  <fix>3d</fix>
</trkpt>
<trkpt lat="-27.2744387" lon="151.2900638">
  <ele>355.52</ele>
  <time>2026-09-01T20:03:00Z</time>
  <course>10.62</course>
  <speed>0.01414213562373095</speed>
  <fix>3d</fix>
</trkpt>
<trkpt lat="-27.2744386" lon="151.2900637">
  <ele>355.99</ele>
  <time>2026-09-01T20:03:00Z</time>
  <course>2.42</course>
  <speed>0.03</speed>
  <fix>3d</fix>
</trkpt>
<trkpt lat="-27.2744387" lon="151.2900638">
  <ele>355.41</ele>
  <time>2026-09-01T20:03:00Z</time>
  <course>10.61</course>
  <speed>0.01</speed>
  <fix>3d</fix>
</trkpt>
<trkpt lat="-27.2744386" lon="151.2900637">
  <ele>355.77</ele>
  <time>2026-09-01T20:03:00Z</time>
  <course>3.05</course>
  <speed>0.02</speed>
  <fix>3d</fix>
</trkpt>
<trkpt lat="-27.2744387" lon="151.2900638">
  <ele>355.29</ele>
  <time>2026-09-01T20:03:00Z</time>
  <course>10.61</course>
  <speed>0.01</speed>
  <fix>3d</fix>
</trkpt>
<trkpt lat="-27.2744386" lon="151.2900637">
  <ele>355.77</ele>
  <time>2026-09-01T20:03:00Z</time>
  <course>3.05</course>
  <speed>0.02</speed>
  <fix>3d</fix>
</trkpt>
<trkpt lat="-27.2744387" lon="151.2900638">
  <ele>355.18</ele>
  <time>2026-09-01T20:03:00Z</time>
  <course>10.62</course>
  <speed>0.01</speed>
  <fix>3d</fix>
</trkpt>
<trkpt lat="-27.2744385" lon="151.2900637">
  <ele>355.54</ele>
  <time>2026-09-01T20:03:00Z</time>
  <course>4.03</course>
  <speed>0.02</speed>
  <fix>3d</fix>
</trkpt>
<trkpt lat="-27.2744387" lon="151.2900638">
  <ele>355.06</ele>
  <time>2026-09-01T20:03:00Z</time>
  <course>10.62</course>
  <speed>0.01</speed>
  <fix>3d</fix>
</trkpt>
<trkpt lat="-27.2744385" lon="151.2900637">
  <ele>355.54</ele>
  <time>2026-09-01T20:03:00Z</time>
  <course>4.03</course>
  <speed>0.02</speed>
  <fix>3d</fix>
</trkpt>
<trkpt lat="-27.2744386" lon="151.2900638">
  <ele>354.95</ele>
  <time>2026-09-01T20:03:00Z</time>
  <course>10.62</course>
  <speed>0.01</speed>
  <fix>3d</fix>
</trkpt>
<trkpt lat="-27.2744385" lon="151.2900637">
  <ele>355.32</ele>
  <time>2026-09-01T20:03:00Z</time>
  <course>5.43</course>
  <speed>0.01</speed>
  <fix>3d</fix>
</trkpt>
<trkpt lat="-27.2744386" lon="151.2900638">
  <ele>354.83</ele>
  <time>2026-09-01T20:03:00Z</time>
  <course>10.62</course>
  <speed>0.01</speed>
  <fix>3d</fix>
</trkpt>
<trkpt lat="-27.2744385" lon="151.2900637">
  <ele>355.32</ele>
  <time>2026-09-01T20:03:00Z</time>
  <course>5.43</course>
  <speed>0.01</speed>
  <fix>3d</fix>
</trkpt>
<trkpt lat="-27.2744386" lon="151.2900638">
  <ele>354.71</ele>
  <time>2026-09-01T20:03:00Z</time>
  <course>10.63</course>
  <speed>0.01</speed>
  <fix>3d</fix>
</trkpt>
<trkpt lat="-27.2744385" lon="151.2900637">
  <ele>355.09</ele>
  <time>2026-09-01T20:03:00Z</time>
  <course>7.33</course>
  <speed>0.01</speed>
  <fix>3d</fix>
</trkpt>
<trkpt lat="-27.2744386" lon="151.2900638">
  <ele>354.6</ele>
  <time>2026-09-01T20:03:00Z</time>
  <course>10.64</course>
  <speed>0.01</speed>
  <fix>3d</fix>
</trkpt>
<trkpt lat="-27.2744385" lon="151.2900637">
  <ele>355.09</ele>
  <time>2026-09-01T20:03:00Z</time>
  <course>7.33</course>
  <speed>0.01</speed>
  <fix>3d</fix>
</trkpt>
<trkpt lat="-27.2744386" lon="151.2900638">
  <ele>354.49</ele>
  <time>2026-09-01T20:03:00Z</time>
  <course>10.65</course>
  <speed>0.01414213562373095</speed>
  <fix>3d</fix>
</trkpt>
<trkpt lat="-27.2744385" lon="151.2900637">
  <ele>354.87</ele>
  <time>2026-09-01T20:03:00Z</time>
  <course>10.41</course>
  <speed>0.0</speed>
  <fix>3d</fix>
</trkpt>
<trkpt lat="-27.2744386" lon="151.2900638">
  <ele>354.38</ele>
  <time>2026-09-01T20:03:00Z</time>
  <course>10.66</course>
  <speed>0.01414213562373095</speed>
  <fix>3d</fix>
</trkpt>
<trkpt lat="-27.2744385" lon="151.2900637">
  <ele>354.87</ele>
  <time>2026-09-01T20:03:00Z</time>
  <course>10.41</course>
  <speed>0.0</speed>
  <fix>3d</fix>
</trkpt>
<trkpt lat="-27.2744386" lon="151.2900638">
  <ele>354.26</ele>
  <time>2026-09-01T20:03:00Z</time>
  <course>10.69</course>
  <speed>0.01414213562373095</speed>
  <fix>3d</fix>
</trkpt>
<trkpt lat="-27.2744385" lon="151.2900637">
  <ele>354.64</ele>
  <time>2026-09-01T20:03:00Z</time>
  <course>11.71</course>
  <speed>0.0</speed>
  <fix>3d</fix>
</trkpt>
<trkpt lat="-27.2744386" lon="151.2900638">
  <ele>354.15</ele>
  <time>2026-09-01T20:03:00Z</time>
  <course>10.7</course>
  <speed>0.01414213562373095</speed>
  <fix>3d</fix>
</trkpt>
<trkpt lat="-27.2744385" lon="151.2900637">
  <ele>354.64</ele>
  <time>2026-09-01T20:03:00Z</time>
  <course>11.71</course>
  <speed>0.0</speed>
  <fix>3d</fix>
</trkpt>
<trkpt lat="-27.2744386" lon="151.2900638">
  <ele>354.04</ele>
  <time>2026-09-01T20:03:00Z</time>
  <course>10.71</course>
  <speed>0.01414213562373095</speed>
  <fix>3d</fix>
</trkpt>
<trkpt lat="-27.2744385" lon="151.2900637">
  <ele>354.41</ele>
  <time>2026-09-01T20:03:00Z</time>
  <course>14.13</course>
  <speed>0.0</speed>
  <fix>3d</fix>
</trkpt>
<trkpt lat="-27.2744386" lon="151.2900638">
  <ele>353.92</ele>
  <time>2026-09-01T20:03:00Z</time>
  <course>10.71</course>
  <speed>0.01414213562373095</speed>
  <fix>3d</fix>
</trkpt>
<trkpt lat="-27.2744385" lon="151.2900637">
  <ele>354.41</ele>
  <time>2026-09-01T20:03:00Z</time>
  <course>14.13</course>
  <speed>0.0</speed>
  <fix>3d</fix>
</trkpt>
<trkpt lat="-27.2744386" lon="151.2900638">
  <ele>353.81</ele>
  <time>2026-09-01T20:03:00Z</time>
  <course>10.71</course>
  <speed>0.01</speed>
  <fix>3d</fix>
</trkpt>
<trkpt lat="-27.2744385" lon="151.2900637">
  <ele>354.19</ele>
  <time>2026-09-01T20:03:00Z</time>
  <course>129.89</course>
  <speed>0.0</speed>
  <fix>3d</fix>
</trkpt>
<trkpt lat="-27.2744386" lon="151.2900638">
  <ele>353.7</ele>
  <time>2026-09-01T20:03:00Z</time>
  <course>10.71</course>
  <speed>0.01</speed>
  <fix>3d</fix>
</trkpt>
<trkpt lat="-27.2744385" lon="151.2900637">
  <ele>354.19</ele>
  <time>2026-09-01T20:03:00Z</time>
  <course>129.89</course>
  <speed>0.0</speed>
  <fix>3d</fix>
</trkpt>
<trkpt lat="-27.2744386" lon="151.2900638">
  <ele>353.59</ele>
  <time>2026-09-01T20:03:01Z</time>
  <course>10.72</course>
  <speed>0.01</speed>
  <fix>3d</fix>
</trkpt>
<trkpt lat="-27.2744385" lon="151.2900637">
  <ele>353.96</ele>
  <time>2026-09-01T20:03:01Z</time>
  <course>179.38</course>
  <speed>0.0</speed>
  <fix>3d</fix>
</trkpt>
<trkpt lat="-27.2744386" lon="151.2900638">
  <ele>353.47</ele>
  <time>2026-09-01T20:03:01Z</time>
  <course>10.73</course>
  <speed>0.02</speed>
  <fix>3d</fix>
</trkpt>
<trkpt lat="-27.2744385" lon="151.2900637">
  <ele>353.96</ele>
  <time>2026-09-01T20:03:01Z</time>
  <course>179.38</course>
  <speed>0.0</speed>
  <fix>3d</fix>
</trkpt>
<trkpt lat="-27.2744386" lon="151.2900638">
  <ele>353.35</ele>
  <time>2026-09-01T20:03:01Z</time>
  <course>10.74</course>
  <speed>0.02</speed>
  <fix>3d</fix>
</trkpt>
<trkpt lat="-27.2744385" lon="151.2900637">
  <ele>353.73</ele>
  <time>2026-09-01T20:03:01Z</time>
  <course>189.72</course>
  <speed>0.0</speed>
  <fix>3d</fix>
</trkpt>
<trkpt lat="-27.2744386" lon="151.2900638">
  <ele>353.24</ele>
  <time>2026-09-01T20:03:01Z</time>
  <course>10.74</course>
  <speed>0.02</speed>
  <fix>3d</fix>
</trkpt>
<trkpt lat="-27.2744385" lon="151.2900637">
  <ele>353.73</ele>
  <time>2026-09-01T20:03:01Z</time>
  <course>189.72</course>
  <speed>0.0</speed>
  <fix>3d</fix>
</trkpt>
<trkpt lat="-27.2744386" lon="151.2900638">
  <ele>353.12</ele>
  <time>2026-09-01T20:03:01Z</time>
  <course>10.73</course>
  <speed>0.02</speed>
  <fix>3d</fix>
</trkpt>
<trkpt lat="-27.2744385" lon="151.2900637">
  <ele>353.5</ele>
  <time>2026-09-01T20:03:01Z</time>
  <course>186.31</course>
  <speed>0.0</speed>
  <fix>3d</fix>
</trkpt>
<trkpt lat="-27.2744386" lon="151.2900638">
  <ele>353.01</ele>
  <time>2026-09-01T20:03:01Z</time>
  <course>10.73</course>
  <speed>0.02</speed>
  <fix>3d</fix>
</trkpt>
<trkpt lat="-27.2744385" lon="151.2900637">
  <ele>353.5</ele>
  <time>2026-09-01T20:03:01Z</time>
  <course>186.31</course>
  <speed>0.0</speed>
  <fix>3d</fix>
</trkpt>
<trkpt lat="-27.2744386" lon="151.2900638">
  <ele>352.89</ele>
  <time>2026-09-01T20:03:01Z</time>
  <course>10.74</course>
  <speed>0.01</speed>
  <fix>3d</fix>
</trkpt>
<trkpt lat="-27.2744385" lon="151.2900637">
  <ele>353.27</ele>
  <time>2026-09-01T20:03:01Z</time>
  <course>187.15</course>
  <speed>0.0</speed>
  <fix>3d</fix>
</trkpt>
<trkpt lat="-27.2744386" lon="151.2900638">
  <ele>352.77</ele>
  <time>2026-09-01T20:03:01Z</time>
  <course>10.76</course>
  <speed>0.01</speed>
  <fix>3d</fix>
</trkpt>
<trkpt lat="-27.2744385" lon="151.2900637">
  <ele>353.27</ele>
  <time>2026-09-01T20:03:01Z</time>
  <course>187.15</course>
  <speed>0.0</speed>
  <fix>3d</fix>
</trkpt>
<trkpt lat="-27.2744386" lon="151.2900638">
  <ele>352.66</ele>
  <time>2026-09-01T20:03:01Z</time>
  <course>10.79</course>
  <speed>0.01</speed>
  <fix>3d</fix>
</trkpt>
<trkpt lat="-27.2744385" lon="151.2900637">
  <ele>353.04</ele>
  <time>2026-09-01T20:03:01Z</time>
  <course>196.15</course>
  <speed>0.0</speed>
  <fix>3d</fix>
</trkpt>
<trkpt lat="-27.2744386" lon="151.2900638">
  <ele>352.65</ele>
  <time>2026-09-01T20:03:01Z</time>
  <course>10.79</course>
  <speed>0.01</speed>
  <fix>3d</fix>
</trkpt>
<trkpt lat="-27.2744386" lon="151.2900638">
  <ele>352.54</ele>
  <time>2026-09-01T20:03:01Z</time>
  <course>10.83</course>
  <speed>0.0</speed>
  <fix>3d</fix>
</trkpt>
<trkpt lat="-27.2744385" lon="151.2900637">
  <ele>353.04</ele>
  <time>2026-09-01T20:03:01Z</time>
  <course>196.15</course>
  <speed>0.0</speed>
  <fix>3d</fix>
</trkpt>
<trkpt lat="-27.2744386" lon="151.2900638">
  <ele>352.38</ele>
  <time>2026-09-01T20:03:01Z</time>
  <course>10.86</course>
  <speed>0.03</speed>
  <fix>3d</fix>
</trkpt>
<trkpt lat="-27.2744385" lon="151.2900637">
  <ele>352.81</ele>
  <time>2026-09-01T20:03:01Z</time>
  <course>318.46</course>
  <speed>0.0</speed>
  <fix>3d</fix>
</trkpt>
<trkpt lat="-27.2744386" lon="151.2900638">
  <ele>352.15</ele>
  <time>2026-09-01T20:03:01Z</time>
  <course>10.89</course>
  <speed>0.06082762530298219</speed>
  <fix>3d</fix>
</trkpt>
<trkpt lat="-27.2744385" lon="151.2900637">
  <ele>352.81</ele>
  <time>2026-09-01T20:03:01Z</time>
  <course>318.46</course>
  <speed>0.0</speed>
  <fix>3d</fix>
</trkpt>
<trkpt lat="-27.2744385" lon="151.2900638">
  <ele>351.84</ele>
  <time>2026-09-01T20:03:01Z</time>
  <course>10.93</course>
  <speed>0.09219544457292887</speed>
  <fix>3d</fix>
</trkpt>
<trkpt lat="-27.2744384" lon="151.2900637">
  <ele>352.51</ele>
  <time>2026-09-01T20:03:01Z</time>
  <course>6.9</course>
  <speed>0.04</speed>
  <fix>3d</fix>
</trkpt>
<trkpt lat="-27.2744384" lon="151.2900638">
  <ele>351.46</ele>
  <time>2026-09-01T20:03:01Z</time>
  <course>10.95</course>
  <speed>0.12165525060596438</speed>
  <fix>3d</fix>
</trkpt>
<trkpt lat="-27.2744384" lon="151.2900637">
  <ele>352.51</ele>
  <time>2026-09-01T20:03:01Z</time>
  <course>6.9</course>
  <speed>0.04</speed>
  <fix>3d</fix>
</trkpt>
<trkpt lat="-27.2744383" lon="151.2900638">
  <ele>351.04</ele>
  <time>2026-09-01T20:03:01Z</time>
  <course>10.93</course>
  <speed>0.16278820596099705</speed>
  <fix>3d</fix>
</trkpt>
<trkpt lat="-27.2744383" lon="151.2900637">
  <ele>351.98</ele>
  <time>2026-09-01T20:03:01Z</time>
  <course>8.17</course>
  <speed>0.11</speed>
  <fix>3d</fix>
</trkpt>
<trkpt lat="-27.2744381" lon="151.2900638">
  <ele>350.57</ele>
  <time>2026-09-01T20:03:01Z</time>
  <course>10.88</course>
  <speed>0.21377558326431947</speed>
  <fix>3d</fix>
</trkpt>
<trkpt lat="-27.2744383" lon="151.2900637">
  <ele>351.98</ele>
  <time>2026-09-01T20:03:01Z</time>
  <course>8.17</course>
  <speed>0.11</speed>
  <fix>3d</fix>
</trkpt>
<trkpt lat="-27.2744378" lon="151.2900638">
  <ele>350.05</ele>
  <time>2026-09-01T20:03:01Z</time>
  <course>10.8</course>
  <speed>0.29614185789921693</speed>
  <fix>3d</fix>
</trkpt>
<trkpt lat="-27.274438" lon="151.2900637">
  <ele>351.19</ele>
  <time>2026-09-01T20:03:01Z</time>
  <course>8.87</course>
  <speed>0.18</speed>
  <fix>3d</fix>
</trkpt>
<trkpt lat="-27.2744375" lon="151.2900639">
  <ele>349.49</ele>
  <time>2026-09-01T20:03:01Z</time>
  <course>10.72</course>
  <speed>0.4079215610874228</speed>
  <fix>3d</fix>
</trkpt>
<trkpt lat="-27.274438" lon="151.2900637">
  <ele>351.19</ele>
  <time>2026-09-01T20:03:01Z</time>
  <course>8.87</course>
  <speed>0.18</speed>
  <fix>3d</fix>
</trkpt>
<trkpt lat="-27.2744371" lon="151.290064">
  <ele>350.19</ele>
  <time>2026-09-01T20:03:01Z</time>
  <course>10.65</course>
  <speed>0.539351462406472</speed>
  <fix>3d</fix>
</trkpt>
<trkpt lat="-27.2744376" lon="151.2900638">
  <ele>350.2</ele>
  <time>2026-09-01T20:03:01Z</time>
  <course>8.58</course>
  <speed>0.32</speed>
  <fix>3d</fix>
</trkpt>
<trkpt lat="-27.2744365" lon="151.2900641">
  <ele>350.18</ele>
  <time>2026-09-01T20:03:01Z</time>
  <course>10.61</course>
  <speed>0.6609841147864296</speed>
  <fix>3d</fix>
</trkpt>
<trkpt lat="-27.2744376" lon="151.2900638">
  <ele>350.2</ele>
  <time>2026-09-01T20:03:01Z</time>
  <course>8.58</course>
  <speed>0.32</speed>
  <fix>3d</fix>
</trkpt>
<trkpt lat="-27.2744356" lon="151.2900643">
  <ele>350.07</ele>
  <time>2026-09-01T20:03:01Z</time>
  <course>10.67</course>
  <speed>1.4187670703818862</speed>
  <fix>3d</fix>
</trkpt>
<trkpt lat="-27.2744368" lon="151.2900639">
  <ele>349.0</ele>
  <time>2026-09-01T20:03:01Z</time>
  <course>7.91</course>
  <speed>0.54</speed>
  <fix>3d</fix>
</trkpt>
<trkpt lat="-27.274434" lon="151.2900645">
  <ele>349.84</ele>
  <time>2026-09-01T20:03:01Z</time>
  <course>11.21</course>
  <speed>2.0847062143141417</speed>
  <fix>3d</fix>
</trkpt>
<trkpt lat="-27.2744368" lon="151.2900639">
  <ele>349.0</ele>
  <time>2026-09-01T20:03:01Z</time>
  <course>7.91</course>
  <speed>0.54</speed>
  <fix>3d</fix>
</trkpt>
<trkpt lat="-27.274432" lon="151.2900649">
  <ele>349.5</ele>
  <time>2026-09-01T20:03:01Z</time>
  <course>12.61</course>
  <speed>2.2869411885748177</speed>
  <fix>3d</fix>
</trkpt>
<trkpt lat="-27.2744351" lon="151.2900641">
  <ele>347.56</ele>
  <time>2026-09-01T20:03:01Z</time>
  <course>6.64</course>
  <speed>1.37</speed>
  <fix>3d</fix>
</trkpt>
<trkpt lat="-27.27443" lon="151.2900652">
  <ele>349.05</ele>
  <time>2026-09-01T20:03:01Z</time>
  <course>14.77</course>
  <speed>2.1767177125203903</speed>
  <fix>3d</fix>
</trkpt>
<trkpt lat="-27.2744351" lon="151.2900641">
  <ele>347.56</ele>
  <time>2026-09-01T20:03:01Z</time>
  <course>6.64</course>
  <speed>1.37</speed>
  <fix>3d</fix>
</trkpt>
<trkpt lat="-27.2744281" lon="151.2900655">
  <ele>348.34</ele>
  <time>2026-09-01T20:03:01Z</time>
  <course>14.63</course>
  <speed>2.073306537876153</speed>
  <fix>3d</fix>
</trkpt>
<trkpt lat="-27.2744318" lon="151.2900645">
  <ele>345.83</ele>
  <time>2026-09-01T20:03:01Z</time>
  <course>6.26</course>
  <speed>2.14</speed>
  <fix>3d</fix>
</trkpt>
<trkpt lat="-27.2744264" lon="151.2900657">
  <ele>347.7</ele>
  <time>2026-09-01T20:03:01Z</time>
  <course>12.79</course>
  <speed>1.0804628637764464</speed>
  <fix>3d</fix>
</trkpt>
<trkpt lat="-27.2744318" lon="151.2900645">
  <ele>345.83</ele>
  <time>2026-09-01T20:03:01Z</time>
  <course>6.26</course>
  <speed>2.14</speed>
  <fix>3d</fix>
</trkpt>
<trkpt lat="-27.2744263" lon="151.2900656">
  <ele>347.81</ele>
  <time>2026-09-01T20:03:01Z</time>
  <course>13.14</course>
  <speed>0.5119570294468082</speed>
  <fix>3d</fix>
</trkpt>
<trkpt lat="-27.2744281" lon="151.290065">
  <ele>343.8</ele>
  <time>2026-09-01T20:03:01Z</time>
  <course>6.18</course>
  <speed>1.77</speed>
  <fix>3d</fix>
</trkpt>
<trkpt lat="-27.2744269" lon="151.2900655">
  <ele>348.48</ele>
  <time>2026-09-01T20:03:01Z</time>
  <course>13.3</course>
  <speed>0.9374433316206372</speed>
  <fix>3d</fix>
</trkpt>
<trkpt lat="-27.2744281" lon="151.290065">
  <ele>343.8</ele>
  <time>2026-09-01T20:03:01Z</time>
  <course>6.18</course>
  <speed>1.77</speed>
  <fix>3d</fix>
</trkpt>
<trkpt lat="-27.2744275" lon="151.2900653">
  <ele>348.95</ele>
  <time>2026-09-01T20:03:01Z</time>
  <course>13.46</course>
  <speed>0.6844705983459041</speed>
  <fix>3d</fix>
</trkpt>
<trkpt lat="-27.2744263" lon="151.2900652">
  <ele>342.72</ele>
  <time>2026-09-01T20:03:01Z</time>
  <course>6.1</course>
  <speed>0.35</speed>
  <fix>3d</fix>
</trkpt>
<trkpt lat="-27.2744278" lon="151.2900652">
  <ele>349.34</ele>
  <time>2026-09-01T20:03:01Z</time>
  <course>13.62</course>
  <speed>0.3420526275297414</speed>
  <fix>3d</fix>
</trkpt>
<trkpt lat="-27.2744263" lon="151.2900652">
  <ele>342.72</ele>
  <time>2026-09-01T20:03:01Z</time>
  <course>6.1</course>
  <speed>0.35</speed>
  <fix>3d</fix>
</trkpt>
<trkpt lat="-27.2744279" lon="151.2900652">
  <ele>349.49</ele>
  <time>2026-09-01T20:03:01Z</time>
  <course>13.74</course>
  <speed>0.1615549442140351</speed>
  <fix>3d</fix>
</trkpt>
<trkpt lat="-27.2744266" lon="151.2900652">
  <ele>342.96</ele>
  <time>2026-09-01T20:03:01Z</time>
  <course>186.1</course>
  <speed>0.37</speed>
  <fix>3d</fix>
</trkpt>
<trkpt lat="-27.2744279" lon="151.2900651">
  <ele>349.68</ele>
  <time>2026-09-01T20:03:01Z</time>
  <course>13.8</course>
  <speed>0.1341640786499874</speed>
  <fix>3d</fix>
</trkpt>
<trkpt lat="-27.2744266" lon="151.2900652">
  <ele>342.96</ele>
  <time>2026-09-01T20:03:01Z</time>
  <course>186.1</course>
  <speed>0.37</speed>
  <fix>3d</fix>
</trkpt>
<trkpt lat="-27.2744279" lon="151.2900651">
  <ele>349.9</ele>
  <time>2026-09-01T20:03:01Z</time>
  <course>13.82</course>
  <speed>0.18027756377319945</speed>
  <fix>3d</fix>
</trkpt>
<trkpt lat="-27.2744269" lon="151.2900651">
  <ele>343.16</ele>
  <time>2026-09-01T20:03:01Z</time>
  <course>186.11</course>
  <speed>0.0</speed>
  <fix>3d</fix>
</trkpt>
<trkpt lat="-27.2744279" lon="151.290065">
  <ele>350.21</ele>
  <time>2026-09-01T20:03:01Z</time>
  <course>13.83</course>
  <speed>0.22135943621178655</speed>
  <fix>3d</fix>
</trkpt>
<trkpt lat="-27.2744269" lon="151.2900651">
  <ele>343.16</ele>
  <time>2026-09-01T20:03:01Z</time>
  <course>186.11</course>
  <speed>0.0</speed>
  <fix>3d</fix>
</trkpt>
<trkpt lat="-27.274428" lon="151.2900649">
  <ele>350.53</ele>
  <time>2026-09-01T20:03:01Z</time>
  <course>13.84</course>
  <speed>0.2308679276123039</speed>
  <fix>3d</fix>
</trkpt>
<trkpt lat="-27.2744268" lon="151.2900651">
  <ele>343.1</ele>
  <time>2026-09-01T20:03:01Z</time>
  <course>6.1</course>
  <speed>0.05</speed>
  <fix>3d</fix>
</trkpt>
<trkpt lat="20.9309901" lon="-155.1474817">
  <ele>163.51</ele>
  <time>2026-09-01T20:03:02Z</time>
  <course>178.93</course>
  <speed>0.0</speed>
  <fix>3d</fix>
</trkpt>
<trkpt lat="20.9309901" lon="-155.1474817">
  <ele>163.51</ele>
  <time>2026-09-01T20:03:02Z</time>
  <course>178.93</course>
  <speed>0.0</speed>
  <fix>3d</fix>
</trkpt>
<trkpt lat="21.1656422" lon="-156.8868015">
  <ele>-0.01</ele>
  <time>2026-09-01T20:03:02Z</time>
  <course>353.0</course>
  <speed>0.0</speed>
  <fix>3d</fix>
</trkpt>
<trkpt lat="21.1656422" lon="-156.8868015">
  <ele>165.35</ele>
  <time>2026-09-01T20:03:02Z</time>
  <course>179.96</course>
  <speed>0.0</speed>
  <fix>3d</fix>
</trkpt>
<trkpt lat="21.1656422" lon="-156.8868015">
  <ele>0.01</ele>
  <time>2026-09-01T20:03:02Z</time>
  <course>353.9</course>
  <speed>0.0</speed>
  <fix>3d</fix>
</trkpt>
<trkpt lat="21.1656422" lon="-156.8868015">
  <ele>165.35</ele>
  <time>2026-09-01T20:03:02Z</time>
  <course>179.96</course>
  <speed>0.0</speed>
  <fix>3d</fix>
</trkpt>
<trkpt lat="21.1656422" lon="-156.8868015">
  <ele>-0.07</ele>
  <time>2026-09-01T20:03:02Z</time>
  <course>354.71</course>
  <speed>0.0</speed>
  <fix>3d</fix>
</trkpt>
<trkpt lat="21.1656422" lon="-156.8868015">
  <ele>165.35</ele>
  <time>2026-09-01T20:03:02Z</time>
  <course>180.69</course>
  <speed>0.0</speed>
  <fix>3d</fix>
</trkpt>
<trkpt lat="21.1656422" lon="-156.8868015">
  <ele>0.22</ele>
  <time>2026-09-01T20:03:02Z</time>
  <course>355.46</course>
  <speed>0.0</speed>
  <fix>3d</fix>
</trkpt>
<trkpt lat="21.1656422" lon="-156.8868015">
  <ele>165.35</ele>
  <time>2026-09-01T20:03:02Z</time>
  <course>180.69</course>
  <speed>0.0</speed>
  <fix>3d</fix>
</trkpt>
<trkpt lat="21.1656422" lon="-156.8868015">
  <ele>0.1</ele>
  <time>2026-09-01T20:03:02Z</time>
  <course>356.14</course>
  <speed>0.0</speed>
  <fix>3d</fix>
</trkpt>
<trkpt lat="21.1656422" lon="-156.8868015">
  <ele>165.35</ele>
  <time>2026-09-01T20:03:02Z</time>
  <course>180.77</course>
  <speed>0.0</speed>
  <fix>3d</fix>
</trkpt>
<trkpt lat="21.1656422" lon="-156.8868015">
  <ele>0.08</ele>
  <time>2026-09-01T20:03:02Z</time>
  <course>356.76</course>
  <speed>0.0</speed>
  <fix>3d</fix>
</trkpt>
<trkpt lat="21.1656422" lon="-156.8868015">
  <ele>165.35</ele>
  <time>2026-09-01T20:03:02Z</time>
  <course>180.77</course>
  <speed>0.0</speed>
  <fix>3d</fix>
</trkpt>
<trkpt lat="21.1656422" lon="-156.8868015">
  <ele>0.09</ele>
  <time>2026-09-01T20:03:02Z</time>
  <course>357.33</course>
  <speed>0.0</speed>
  <fix>3d</fix>
</trkpt>
<trkpt lat="21.1656422" lon="-156.8868015">
  <ele>165.35</ele>
  <time>2026-09-01T20:03:02Z</time>
  <course>180.78</course>
  <speed>0.0</speed>
  <fix>3d</fix>
</trkpt>
<trkpt lat="21.1656422" lon="-156.8868015">
  <ele>-0.05</ele>
  <time>2026-09-01T20:03:02Z</time>
  <course>357.83</course>
  <speed>0.0</speed>
  <fix>3d</fix>
</trkpt>
<trkpt lat="21.1656422" lon="-156.8868015">
  <ele>165.35</ele>
  <time>2026-09-01T20:03:02Z</time>
  <course>180.78</course>
  <speed>0.0</speed>
  <fix>3d</fix>
</trkpt>
<trkpt lat="21.1656422" lon="-156.8868015">
  <ele>165.31</ele>
  <time>2026-09-01T20:03:02Z</time>
  <course>358.28</course>
  <speed>0.0</speed>
  <fix>3d</fix>
</trkpt>
<trkpt lat="21.1656422" lon="-156.8868015">
  <ele>165.35</ele>
  <time>2026-09-01T20:03:02Z</time>
  <course>180.78</course>
  <speed>0.0</speed>
  <fix>3d</fix>
</trkpt>
<trkpt lat="21.1656422" lon="-156.8868015">
  <ele>165.43</ele>
  <time>2026-09-01T20:03:02Z</time>
  <course>358.7</course>
  <speed>0.0</speed>
  <fix>3d</fix>
</trkpt>
<trkpt lat="21.1656422" lon="-156.8868015">
  <ele>165.35</ele>
  <time>2026-09-01T20:03:02Z</time>
  <course>180.78</course>
  <speed>0.0</speed>
  <fix>3d</fix>
</trkpt>
<trkpt lat="21.1656422" lon="-156.8868015">
  <ele>165.16</ele>
  <time>2026-09-01T20:03:02Z</time>
  <course>359.08</course>
  <speed>0.0</speed>
  <fix>3d</fix>
</trkpt>
<trkpt lat="21.1656422" lon="-156.8868015">
  <ele>165.35</ele>
  <time>2026-09-01T20:03:02Z</time>
  <course>180.78</course>
  <speed>0.0</speed>
  <fix>3d</fix>
</trkpt>
<trkpt lat="21.1656422" lon="-156.8868015">
  <ele>165.31</ele>
  <time>2026-09-01T20:03:02Z</time>
  <course>359.43</course>
  <speed>0.0</speed>
  <fix>3d</fix>
</trkpt>
<trkpt lat="21.1656422" lon="-156.8868015">
  <ele>165.35</ele>
  <time>2026-09-01T20:03:02Z</time>
  <course>180.78</course>
  <speed>0.0</speed>
  <fix>3d</fix>
</trkpt>
<trkpt lat="21.1656422" lon="-156.8868015">
  <ele>165.38</ele>
  <time>2026-09-01T20:03:02Z</time>
  <course>359.74</course>
  <speed>0.0</speed>
  <fix>3d</fix>
</trkpt>
<trkpt lat="21.1656422" lon="-156.8868015">
  <ele>165.35</ele>
  <time>2026-09-01T20:03:02Z</time>
  <course>180.78</course>
  <speed>0.0</speed>
  <fix>3d</fix>
</trkpt>
<trkpt lat="21.1656422" lon="-156.8868015">
  <ele>165.29</ele>
  <time>2026-09-01T20:03:02Z</time>
  <course>0.02</course>
  <speed>0.0</speed>
  <fix>3d</fix>
</trkpt>
<trkpt lat="21.1656422" lon="-156.8868015">
  <ele>165.35</ele>
  <time>2026-09-01T20:03:02Z</time>
  <course>180.78</course>
  <speed>0.0</speed>
  <fix>3d</fix>
</trkpt>
<trkpt lat="21.1656422" lon="-156.8868015">
  <ele>165.13</ele>
  <time>2026-09-01T20:03:02Z</time>
  <course>0.27</course>
  <speed>0.0</speed>
  <fix>3d</fix>
</trkpt>
<trkpt lat="21.1656422" lon="-156.8868015">
  <ele>165.35</ele>
  <time>2026-09-01T20:03:02Z</time>
  <course>180.78</course>
  <speed>0.0</speed>
  <fix>3d</fix>
</trkpt>
<trkpt lat="21.1656422" lon="-156.8868015">
  <ele>165.27</ele>
  <time>2026-09-01T20:03:02Z</time>
  <course>0.5</course>
  <speed>0.0</speed>
  <fix>3d</fix>
</trkpt>
<trkpt lat="21.1656422" lon="-156.8868015">
  <ele>165.35</ele>
  <time>2026-09-01T20:03:02Z</time>
  <course>180.78</course>
  <speed>0.0</speed>
  <fix>3d</fix>
</trkpt>
<trkpt lat="21.1656422" lon="-156.8868015">
  <ele>165.48</ele>
  <time>2026-09-01T20:03:02Z</time>
  <course>0.72</course>
  <speed>0.0</speed>
  <fix>3d</fix>
</trkpt>
<trkpt lat="21.1656422" lon="-156.8868015">
  <ele>165.35</ele>
  <time>2026-09-01T20:03:02Z</time>
  <course>180.78</course>
  <speed>0.0</speed>
  <fix>3d</fix>
</trkpt>
<trkpt lat="21.1656422" lon="-156.8868015">
  <ele>165.42</ele>
  <time>2026-09-01T20:03:02Z</time>
  <course>0.9</course>
  <speed>0.0</speed>
  <fix>3d</fix>
</trkpt>
<trkpt lat="21.1656422" lon="-156.8868015">
  <ele>165.35</ele>
  <time>2026-09-01T20:03:02Z</time>
  <course>180.78</course>
  <speed>0.0</speed>
  <fix>3d</fix>
</trkpt>
<trkpt lat="21.1656422" lon="-156.8868015">
  <ele>165.29</ele>
  <time>2026-09-01T20:03:02Z</time>
  <course>1.07</course>
  <speed>0.0</speed>
  <fix>3d</fix>
</trkpt>
<trkpt lat="21.1656422" lon="-156.8868015">
  <ele>165.35</ele>
  <time>2026-09-01T20:03:02Z</time>
  <course>180.78</course>
  <speed>0.0</speed>
  <fix>3d</fix>
</trkpt>
<trkpt lat="21.1656422" lon="-156.8868015">
  <ele>165.13</ele>
  <time>2026-09-01T20:03:02Z</time>
  <course>1.22</course>
  <speed>0.0</speed>
  <fix>3d</fix>
</trkpt>
<trkpt lat="21.1656422" lon="-156.8868015">
  <ele>165.35</ele>
  <time>2026-09-01T20:03:02Z</time>
  <course>180.78</course>
  <speed>0.0</speed>
  <fix>3d</fix>
</trkpt>
<trkpt lat="21.1656422" lon="-156.8868015">
  <ele>165.33</ele>
  <time>2026-09-01T20:03:02Z</time>
  <course>1.36</course>
  <speed>0.0</speed>
  <fix>3d</fix>
</trkpt>
<trkpt lat="21.1656422" lon="-156.8868015">
  <ele>165.35</ele>
  <time>2026-09-01T20:03:02Z</time>
  <course>180.78</course>
  <speed>0.0</speed>
  <fix>3d</fix>
</trkpt>
<trkpt lat="21.1656422" lon="-156.8868015">
  <ele>165.44</ele>
  <time>2026-09-01T20:03:02Z</time>
  <course>1.48</course>
  <speed>0.0</speed>
  <fix>3d</fix>
</trkpt>
<trkpt lat="21.1656422" lon="-156.8868015">
  <ele>165.35</ele>
  <time>2026-09-01T20:03:02Z</time>
  <course>180.78</course>
  <speed>0.0</speed>
  <fix>3d</fix>
</trkpt>
<trkpt lat="21.1656422" lon="-156.8868015">
  <ele>165.13</ele>
  <time>2026-09-01T20:03:02Z</time>
  <course>1.6</course>
  <speed>0.0</speed>
  <fix>3d</fix>
</trkpt>
<trkpt lat="21.1656422" lon="-156.8868015">
  <ele>165.35</ele>
  <time>2026-09-01T20:03:02Z</time>
  <course>180.78</course>
  <speed>0.0</speed>
  <fix>3d</fix>
</trkpt>
<trkpt lat="21.1656422" lon="-156.8868015">
  <ele>165.42</ele>
  <time>2026-09-01T20:03:02Z</time>
  <course>1.7</course>
  <speed>0.0</speed>
  <fix>3d</fix>
</trkpt>
<trkpt lat="21.1656422" lon="-156.8868015">
  <ele>165.35</ele>
  <time>2026-09-01T20:03:02Z</time>
  <course>180.78</course>
  <speed>0.0</speed>
  <fix>3d</fix>
</trkpt>
<trkpt lat="21.1656422" lon="-156.8868015">
  <ele>165.14</ele>
  <time>2026-09-01T20:03:02Z</time>
  <course>1.79</course>
  <speed>0.0</speed>
  <fix>3d</fix>
</trkpt>
<trkpt lat="21.1656422" lon="-156.8868015">
  <ele>165.35</ele>
  <time>2026-09-01T20:03:02Z</time>
  <course>180.78</course>
  <speed>0.0</speed>
  <fix>3d</fix>
</trkpt>
<trkpt lat="21.1656422" lon="-156.8868015">
  <ele>165.23</ele>
  <time>2026-09-01T20:03:02Z</time>
  <course>1.87</course>
  <speed>0.0</speed>
  <fix>3d</fix>
</trkpt>
<trkpt lat="21.1656422" lon="-156.8868015">
  <ele>165.35</ele>
  <time>2026-09-01T20:03:02Z</time>
  <course>180.78</course>
  <speed>0.0</speed>
  <fix>3d</fix>
</trkpt>
<trkpt lat="21.1656422" lon="-156.8868015">
  <ele>165.12</ele>
  <time>2026-09-01T20:03:02Z</time>
  <course>1.95</course>
  <speed>0.0</speed>
  <fix>3d</fix>
</trkpt>
<trkpt lat="21.1656422" lon="-156.8868015">
  <ele>165.35</ele>
  <time>2026-09-01T20:03:02Z</time>
  <course>180.78</course>
  <speed>0.0</speed>
  <fix>3d</fix>
</trkpt>
<trkpt lat="21.1656422" lon="-156.8868015">
  <ele>165.34</ele>
  <time>2026-09-01T20:03:02Z</time>
  <course>2.02</course>
  <speed>0.0</speed>
  <fix>3d</fix>
</trkpt>
<trkpt lat="21.1656422" lon="-156.8868015">
  <ele>165.35</ele>
  <time>2026-09-01T20:03:02Z</time>
  <course>180.78</course>
  <speed>0.0</speed>
  <fix>3d</fix>
</trkpt>
<trkpt lat="21.1656422" lon="-156.8868015">
  <ele>165.43</ele>
  <time>2026-09-01T20:03:02Z</time>
  <course>2.09</course>
  <speed>0.0</speed>
  <fix>3d</fix>
</trkpt>
<trkpt lat="21.1656422" lon="-156.8868015">
  <ele>165.35</ele>
  <time>2026-09-01T20:03:02Z</time>
  <course>180.78</course>
  <speed>0.0</speed>
  <fix>3d</fix>
</trkpt>
<trkpt lat="21.1656422" lon="-156.8868015">
  <ele>165.3</ele>
  <time>2026-09-01T20:03:02Z</time>
  <course>2.15</course>
  <speed>0.0</speed>
  <fix>3d</fix>
</trkpt>
<trkpt lat="21.1656422" lon="-156.8868015">
  <ele>165.35</ele>
  <time>2026-09-01T20:03:02Z</time>
  <course>180.78</course>
  <speed>0.0</speed>
  <fix>3d</fix>
</trkpt>
<trkpt lat="21.1656422" lon="-156.8868015">
  <ele>165.2</ele>
  <time>2026-09-01T20:03:02Z</time>
  <course>2.2</course>
  <speed>0.0</speed>
  <fix>3d</fix>
</trkpt>
<trkpt lat="21.1656422" lon="-156.8868015">
  <ele>165.35</ele>
  <time>2026-09-01T20:03:02Z</time>
  <course>180.78</course>
  <speed>0.0</speed>
  <fix>3d</fix>
</trkpt>
<trkpt lat="21.1656422" lon="-156.8868015">
  <ele>165.35</ele>
  <time>2026-09-01T20:03:02Z</time>
  <course>2.25</course>
  <speed>0.0</speed>
  <fix>3d</fix>
</trkpt>
<trkpt lat="21.1656422" lon="-156.8868015">
  <ele>165.35</ele>
  <time>2026-09-01T20:03:02Z</time>
  <course>180.78</course>
  <speed>0.0</speed>
  <fix>3d</fix>
</trkpt>
<trkpt lat="21.1656422" lon="-156.8868015">
  <ele>165.46</ele>
  <time>2026-09-01T20:03:02Z</time>
  <course>2.29</course>
  <speed>0.0</speed>
  <fix>3d</fix>
</trkpt>
<trkpt lat="21.1656422" lon="-156.8868015">
  <ele>165.35</ele>
  <time>2026-09-01T20:03:02Z</time>
  <course>180.78</course>
  <speed>0.0</speed>
  <fix>3d</fix>
</trkpt>
<trkpt lat="21.1656422" lon="-156.8868015">
  <ele>165.42</ele>
  <time>2026-09-01T20:03:02Z</time>
  <course>2.33</course>
  <speed>0.0</speed>
  <fix>3d</fix>
</trkpt>
<trkpt lat="21.1656422" lon="-156.8868015">
  <ele>165.35</ele>
  <time>2026-09-01T20:03:02Z</time>
  <course>180.78</course>
  <speed>0.0</speed>
  <fix>3d</fix>
</trkpt>
<trkpt lat="21.1656422" lon="-156.8868015">
  <ele>165.32</ele>
  <time>2026-09-01T20:03:02Z</time>
  <course>2.37</course>
  <speed>0.0</speed>
  <fix>3d</fix>
</trkpt>
<trkpt lat="21.1656422" lon="-156.8868015">
  <ele>165.35</ele>
  <time>2026-09-01T20:03:02Z</time>
  <course>180.78</course>
  <speed>0.0</speed>
  <fix>3d</fix>
</trkpt>
<trkpt lat="21.1656422" lon="-156.8868015">
  <ele>165.3</ele>
  <time>2026-09-01T20:03:02Z</time>
  <course>2.4</course>
  <speed>0.0</speed>
  <fix>3d</fix>
</trkpt>
<trkpt lat="21.1656422" lon="-156.8868015">
  <ele>165.35</ele>
  <time>2026-09-01T20:03:02Z</time>
  <course>180.78</course>
  <speed>0.0</speed>
  <fix>3d</fix>
</trkpt>
<trkpt lat="21.1656422" lon="-156.8868015">
  <ele>165.43</ele>
  <time>2026-09-01T20:03:02Z</time>
  <course>2.43</course>
  <speed>0.0</speed>
  <fix>3d</fix>
</trkpt>
<trkpt lat="21.1656422" lon="-156.8868015">
  <ele>165.35</ele>
  <time>2026-09-01T20:03:02Z</time>
  <course>180.78</course>
  <speed>0.0</speed>
  <fix>3d</fix>
</trkpt>
<trkpt lat="21.1656422" lon="-156.8868015">
  <ele>165.36</ele>
  <time>2026-09-01T20:03:02Z</time>
  <course>2.46</course>
  <speed>0.0</speed>
  <fix>3d</fix>
</trkpt>
<trkpt lat="21.1656422" lon="-156.8868015">
  <ele>165.35</ele>
  <time>2026-09-01T20:03:02Z</time>
  <course>180.78</course>
  <speed>0.0</speed>
  <fix>3d</fix>
</trkpt>
<trkpt lat="21.1656422" lon="-156.8868015">
  <ele>165.29</ele>
  <time>2026-09-01T20:03:02Z</time>
  <course>2.48</course>
  <speed>0.0</speed>
  <fix>3d</fix>
</trkpt>
<trkpt lat="21.1656422" lon="-156.8868015">
  <ele>165.35</ele>
  <time>2026-09-01T20:03:02Z</time>
  <course>180.78</course>
  <speed>0.0</speed>
  <fix>3d</fix>
</trkpt>
<trkpt lat="21.1656422" lon="-156.8868015">
  <ele>165.32</ele>
  <time>2026-09-01T20:03:02Z</time>
  <course>2.5</course>
  <speed>0.0</speed>
  <fix>3d</fix>
</trkpt>
<trkpt lat="21.1656422" lon="-156.8868015">
  <ele>165.35</ele>
  <time>2026-09-01T20:03:02Z</time>
  <course>180.78</course>
  <speed>0.0</speed>
  <fix>3d</fix>
</trkpt>
<trkpt lat="21.1656422" lon="-156.8868015">
  <ele>165.3</ele>
  <time>2026-09-01T20:03:02Z</time>
  <course>2.52</course>
  <speed>0.0</speed>
  <fix>3d</fix>
</trkpt>
<trkpt lat="21.1656422" lon="-156.8868015">
  <ele>165.35</ele>
  <time>2026-09-01T20:03:02Z</time>
  <course>180.78</course>
  <speed>0.0</speed>
  <fix>3d</fix>
</trkpt>
<trkpt lat="21.1656422" lon="-156.8868015">
  <ele>165.26</ele>
  <time>2026-09-01T20:03:02Z</time>
  <course>2.54</course>
  <speed>0.0</speed>
  <fix>3d</fix>
</trkpt>
<trkpt lat="21.1656422" lon="-156.8868015">
  <ele>165.35</ele>
  <time>2026-09-01T20:03:02Z</time>
  <course>180.78</course>
  <speed>0.0</speed>
  <fix>3d</fix>
</trkpt>
<trkpt lat="21.1656422" lon="-156.8868015">
  <ele>165.45</ele>
  <time>2026-09-01T20:03:02Z</time>
  <course>2.56</course>
  <speed>0.0</speed>
  <fix>3d</fix>
</trkpt>
<trkpt lat="21.1656422" lon="-156.8868015">
  <ele>165.35</ele>
  <time>2026-09-01T20:03:02Z</time>
  <course>180.78</course>
  <speed>0.0</speed>
  <fix>3d</fix>
</trkpt>
<trkpt lat="21.1656422" lon="-156.8868015">
  <ele>165.49</ele>
  <time>2026-09-01T20:03:02Z</time>
  <course>2.57</course>
  <speed>0.0</speed>
  <fix>3d</fix>
</trkpt>
<trkpt lat="21.1656422" lon="-156.8868015">
  <ele>165.35</ele>
  <time>2026-09-01T20:03:02Z</time>
  <course>180.78</course>
  <speed>0.0</speed>
  <fix>3d</fix>
</trkpt>
<trkpt lat="21.1656422" lon="-156.8868015">
  <ele>165.13</ele>
  <time>2026-09-01T20:03:02Z</time>
  <course>2.58</course>
  <speed>0.0</speed>
  <fix>3d</fix>
</trkpt>
<trkpt lat="21.1656422" lon="-156.8868015">
  <ele>165.35</ele>
  <time>2026-09-01T20:03:02Z</time>
  <course>180.78</course>
  <speed>0.0</speed>
  <fix>3d</fix>
</trkpt>
<trkpt lat="21.1656422" lon="-156.8868015">
  <ele>165.46</ele>
  <time>2026-09-01T20:03:02Z</time>
  <course>2.6</course>
  <speed>0.0</speed>
  <fix>3d</fix>
</trkpt>
<trkpt lat="21.1656422" lon="-156.8868015">
  <ele>165.35</ele>
  <time>2026-09-01T20:03:02Z</time>
  <course>180.78</course>
  <speed>0.0</speed>
  <fix>3d</fix>
</trkpt>
<trkpt lat="21.1656422" lon="-156.8868015">
  <ele>165.27</ele>
  <time>2026-09-01T20:03:02Z</time>
  <course>2.61</course>
  <speed>0.0</speed>
  <fix>3d</fix>
</trkpt>
<trkpt lat="21.1656422" lon="-156.8868015">
  <ele>165.35</ele>
  <time>2026-09-01T20:03:02Z</time>
  <course>180.78</course>
  <speed>0.0</speed>
  <fix>3d</fix>
</trkpt>
<trkpt lat="21.1656422" lon="-156.8868015">
  <ele>165.18</ele>
  <time>2026-09-01T20:03:02Z</time>
  <course>2.62</course>
  <speed>0.0</speed>
  <fix>3d</fix>
</trkpt>
<trkpt lat="21.1656422" lon="-156.8868015">
  <ele>165.35</ele>
  <time>2026-09-01T20:03:02Z</time>
  <course>180.78</course>
  <speed>0.0</speed>
  <fix>3d</fix>
</trkpt>
<trkpt lat="21.1656422" lon="-156.8868015">
  <ele>165.32</ele>
  <time>2026-09-01T20:03:02Z</time>
  <course>2.63</course>
  <speed>0.0</speed>
  <fix>3d</fix>
</trkpt>
<trkpt lat="21.1656422" lon="-156.8868015">
  <ele>165.35</ele>
  <time>2026-09-01T20:03:02Z</time>
  <course>180.78</course>
  <speed>0.0</speed>
  <fix>3d</fix>
</trkpt>
<trkpt lat="21.1656422" lon="-156.8868015">
  <ele>165.19</ele>
  <time>2026-09-01T20:03:02Z</time>
  <course>2.63</course>
  <speed>0.0</speed>
  <fix>3d</fix>
</trkpt>
<trkpt lat="21.1656422" lon="-156.8868015">
  <ele>165.35</ele>
  <time>2026-09-01T20:03:02Z</time>
  <course>180.78</course>
  <speed>0.0</speed>
  <fix>3d</fix>
</trkpt>
<trkpt lat="21.1656422" lon="-156.8868015">
  <ele>165.35</ele>
  <time>2026-09-01T20:03:02Z</time>
  <course>2.64</course>
  <speed>0.0</speed>
  <fix>3d</fix>
</trkpt>
<trkpt lat="21.1656422" lon="-156.8868015">
  <ele>165.35</ele>
  <time>2026-09-01T20:03:02Z</time>
  <course>180.78</course>
  <speed>0.0</speed>
  <fix>3d</fix>
</trkpt>
<trkpt lat="21.1656422" lon="-156.8868015">
  <ele>165.49</ele>
  <time>2026-09-01T20:03:02Z</time>
  <course>2.65</course>
  <speed>0.0</speed>
  <fix>3d</fix>
</trkpt>
<trkpt lat="21.1656422" lon="-156.8868015">
  <ele>165.35</ele>
  <time>2026-09-01T20:03:02Z</time>
  <course>180.78</course>
  <speed>0.0</speed>
  <fix>3d</fix>
</trkpt>
<trkpt lat="21.1656422" lon="-156.8868015">
  <ele>165.43</ele>
  <time>2026-09-01T20:03:02Z</time>
  <course>2.65</course>
  <speed>0.0</speed>
  <fix>3d</fix>
</trkpt>
<trkpt lat="21.1656422" lon="-156.8868015">
  <ele>165.35</ele>
  <time>2026-09-01T20:03:02Z</time>
  <course>180.78</course>
  <speed>0.0</speed>
  <fix>3d</fix>
</trkpt>
<trkpt lat="21.1656422" lon="-156.8868015">
  <ele>165.14</ele>
  <time>2026-09-01T20:03:02Z</time>
  <course>2.66</course>
  <speed>0.0</speed>
  <fix>3d</fix>
</trkpt>
<trkpt lat="21.1656422" lon="-156.8868015">
  <ele>165.35</ele>
  <time>2026-09-01T20:03:02Z</time>
  <course>180.78</course>
  <speed>0.0</speed>
  <fix>3d</fix>
</trkpt>
<trkpt lat="21.1656422" lon="-156.8868015">
  <ele>165.48</ele>
  <time>2026-09-01T20:03:02Z</time>
  <course>2.66</course>
  <speed>0.0</speed>
  <fix>3d</fix>
</trkpt>
<trkpt lat="21.1656422" lon="-156.8868015">
  <ele>165.35</ele>
  <time>2026-09-01T20:03:02Z</time>
  <course>180.78</course>
  <speed>0.0</speed>
  <fix>3d</fix>
</trkpt>
<trkpt lat="21.1656422" lon="-156.8868015">
  <ele>165.47</ele>
  <time>2026-09-01T20:03:02Z</time>
  <course>2.67</course>
  <speed>0.0</speed>
  <fix>3d</fix>
</trkpt>
<trkpt lat="21.1656422" lon="-156.8868015">
  <ele>165.35</ele>
  <time>2026-09-01T20:03:02Z</time>
  <course>180.78</course>
  <speed>0.0</speed>
  <fix>3d</fix>
</trkpt>
<trkpt lat="21.1656422" lon="-156.8868015">
  <ele>165.23</ele>
  <time>2026-09-01T20:03:02Z</time>
  <course>2.67</course>
  <speed>0.0</speed>
  <fix>3d</fix>
</trkpt>
<trkpt lat="21.1656422" lon="-156.8868015">
  <ele>165.35</ele>
  <time>2026-09-01T20:03:02Z</time>
  <course>180.78</course>
  <speed>0.0</speed>
  <fix>3d</fix>
</trkpt>
<trkpt lat="21.1656422" lon="-156.8868015">
  <ele>165.38</ele>
  <time>2026-09-01T20:03:02Z</time>
  <course>2.68</course>
  <speed>0.0</speed>
  <fix>3d</fix>
</trkpt>
<trkpt lat="21.1656422" lon="-156.8868015">
  <ele>165.35</ele>
  <time>2026-09-01T20:03:02Z</time>
  <course>180.78</course>
  <speed>0.0</speed>
  <fix>3d</fix>
</trkpt>
<trkpt lat="21.1656422" lon="-156.8868015">
  <ele>165.32</ele>
  <time>2026-09-01T20:03:02Z</time>
  <course>2.68</course>
  <speed>0.0</speed>
  <fix>3d</fix>
</trkpt>
<trkpt lat="21.1656422" lon="-156.8868015">
  <ele>165.35</ele>
  <time>2026-09-01T20:03:02Z</time>
  <course>180.78</course>
  <speed>0.0</speed>
  <fix>3d</fix>
</trkpt>
<trkpt lat="21.1656422" lon="-156.8868015">
  <ele>165.45</ele>
  <time>2026-09-01T20:03:02Z</time>
  <course>2.68</course>
  <speed>0.0</speed>
  <fix>3d</fix>
</trkpt>
<trkpt lat="21.1656422" lon="-156.8868015">
  <ele>165.35</ele>
  <time>2026-09-01T20:03:02Z</time>
  <course>180.78</course>
  <speed>0.0</speed>
  <fix>3d</fix>
</trkpt>
<trkpt lat="21.1656422" lon="-156.8868015">
  <ele>165.18</ele>
  <time>2026-09-01T20:03:02Z</time>
  <course>2.69</course>
  <speed>0.0</speed>
  <fix>3d</fix>
</trkpt>
<trkpt lat="21.1656422" lon="-156.8868015">
  <ele>165.35</ele>
  <time>2026-09-01T20:03:02Z</time>
  <course>180.78</course>
  <speed>0.0</speed>
  <fix>3d</fix>
</trkpt>
<trkpt lat="21.1656422" lon="-156.8868015">
  <ele>165.44</ele>
  <time>2026-09-01T20:03:02Z</time>
  <course>2.69</course>
  <speed>0.0</speed>
  <fix>3d</fix>
</trkpt>
<trkpt lat="21.1656422" lon="-156.8868015">
  <ele>165.35</ele>
  <time>2026-09-01T20:03:02Z</time>
  <course>180.78</course>
  <speed>0.0</speed>
  <fix>3d</fix>
</trkpt>
<trkpt lat="21.1656422" lon="-156.8868015">
  <ele>165.35</ele>
  <time>2026-09-01T20:03:02Z</time>
  <course>2.69</course>
  <speed>0.0</speed>
  <fix>3d</fix>
</trkpt>
<trkpt lat="21.1656422" lon="-156.8868015">
  <ele>165.35</ele>
  <time>2026-09-01T20:03:02Z</time>
  <course>180.78</course>
  <speed>0.0</speed>
  <fix>3d</fix>
</trkpt>
<trkpt lat="21.1656422" lon="-156.8868015">
  <ele>165.26</ele>
  <time>2026-09-01T20:03:02Z</time>
  <course>2.69</course>
  <speed>0.0</speed>
  <fix>3d</fix>
</trkpt>
<trkpt lat="21.1656422" lon="-156.8868015">
  <ele>165.35</ele>
  <time>2026-09-01T20:03:02Z</time>
  <course>180.78</course>
  <speed>0.0</speed>
  <fix>3d</fix>
</trkpt>
<trkpt lat="21.1656422" lon="-156.8868015">
  <ele>165.36</ele>
  <time>2026-09-01T20:03:02Z</time>
  <course>2.69</course>
  <speed>0.0</speed>
  <fix>3d</fix>
</trkpt>
<trkpt lat="21.1656422" lon="-156.8868015">
  <ele>165.35</ele>
  <time>2026-09-01T20:03:02Z</time>
  <course>180.78</course>
  <speed>0.0</speed>
  <fix>3d</fix>
</trkpt>
<trkpt lat="21.1656422" lon="-156.8868015">
  <ele>165.21</ele>
  <time>2026-09-01T20:03:02Z</time>
  <course>2.7</course>
  <speed>0.0</speed>
  <fix>3d</fix>
</trkpt>
<trkpt lat="21.1656422" lon="-156.8868015">
  <ele>165.35</ele>
  <time>2026-09-01T20:03:02Z</time>
  <course>180.78</course>
  <speed>0.0</speed>
  <fix>3d</fix>
</trkpt>
<trkpt lat="21.1656422" lon="-156.8868015">
  <ele>165.44</ele>
  <time>2026-09-01T20:03:02Z</time>
  <course>2.7</course>
  <speed>0.0</speed>
  <fix>3d</fix>
</trkpt>
<trkpt lat="21.1656422" lon="-156.8868015">
  <ele>165.35</ele>
  <time>2026-09-01T20:03:02Z</time>
  <course>180.78</course>
  <speed>0.0</speed>
  <fix>3d</fix>
</trkpt>
<trkpt lat="21.1656422" lon="-156.8868015">
  <ele>165.25</ele>
  <time>2026-09-01T20:03:02Z</time>
  <course>2.7</course>
  <speed>0.0</speed>
  <fix>3d</fix>
</trkpt>
<trkpt lat="21.1656422" lon="-156.8868015">
  <ele>165.35</ele>
  <time>2026-09-01T20:03:02Z</time>
  <course>180.78</course>
  <speed>0.0</speed>
  <fix>3d</fix>
</trkpt>
<trkpt lat="21.1656422" lon="-156.8868015">
  <ele>165.45</ele>
  <time>2026-09-01T20:03:02Z</time>
  <course>2.7</course>
  <speed>0.0</speed>
  <fix>3d</fix>
</trkpt>
<trkpt lat="21.1656422" lon="-156.8868015">
  <ele>165.35</ele>
  <time>2026-09-01T20:03:02Z</time>
  <course>180.78</course>
  <speed>0.0</speed>
  <fix>3d</fix>
</trkpt>
<trkpt lat="21.1656422" lon="-156.8868015">
  <ele>165.45</ele>
  <time>2026-09-01T20:03:02Z</time>
  <course>2.7</course>
  <speed>0.0</speed>
  <fix>3d</fix>
</trkpt>
<trkpt lat="21.1656422" lon="-156.8868015">
  <ele>165.35</ele>
  <time>2026-09-01T20:03:02Z</time>
  <course>180.78</course>
  <speed>0.0</speed>
  <fix>3d</fix>
</trkpt>
<trkpt lat="21.1656422" lon="-156.8868015">
  <ele>165.38</ele>
  <time>2026-09-01T20:03:02Z</time>
  <course>2.7</course>
  <speed>0.0</speed>
  <fix>3d</fix>
</trkpt>
<trkpt lat="21.1656422" lon="-156.8868015">
  <ele>165.35</ele>
  <time>2026-09-01T20:03:02Z</time>
  <course>180.78</course>
  <speed>0.0</speed>
  <fix>3d</fix>
</trkpt>
<trkpt lat="21.1656422" lon="-156.8868015">
  <ele>165.35</ele>
  <time>2026-09-01T20:03:02Z</time>
  <course>2.7</course>
  <speed>0.0</speed>
  <fix>3d</fix>
</trkpt>
<trkpt lat="21.1656422" lon="-156.8868015">
  <ele>165.35</ele>
  <time>2026-09-01T20:03:02Z</time>
  <course>180.78</course>
  <speed>0.0</speed>
  <fix>3d</fix>
</trkpt>
<trkpt lat="21.1656422" lon="-156.8868015">
  <ele>165.37</ele>
  <time>2026-09-01T20:03:02Z</time>
  <course>2.7</course>
  <speed>0.0</speed>
  <fix>3d</fix>
</trkpt>
<trkpt lat="21.1656422" lon="-156.8868015">
  <ele>165.35</ele>
  <time>2026-09-01T20:03:02Z</time>
  <course>180.78</course>
  <speed>0.0</speed>
  <fix>3d</fix>
</trkpt>
<trkpt lat="21.1656422" lon="-156.8868015">
  <ele>165.19</ele>
  <time>2026-09-01T20:03:02Z</time>
  <course>2.71</course>
  <speed>0.0</speed>
  <fix>3d</fix>
</trkpt>
<trkpt lat="21.1656422" lon="-156.8868015">
  <ele>165.35</ele>
  <time>2026-09-01T20:03:02Z</time>
  <course>180.78</course>
  <speed>0.0</speed>
  <fix>3d</fix>
</trkpt>
<trkpt lat="21.1656422" lon="-156.8868015">
  <ele>165.5</ele>
  <time>2026-09-01T20:03:02Z</time>
  <course>2.71</course>
  <speed>0.0</speed>
  <fix>3d</fix>
</trkpt>
<trkpt lat="21.1656422" lon="-156.8868015">
  <ele>165.35</ele>
  <time>2026-09-01T20:03:02Z</time>
  <course>180.78</course>
  <speed>0.0</speed>
  <fix>3d</fix>
</trkpt>
<trkpt lat="21.1656422" lon="-156.8868015">
  <ele>165.17</ele>
  <time>2026-09-01T20:03:02Z</time>
  <course>2.71</course>
  <speed>0.0</speed>
  <fix>3d</fix>
</trkpt>
<trkpt lat="21.1656422" lon="-156.8868015">
  <ele>165.35</ele>
  <time>2026-09-01T20:03:02Z</time>
  <course>180.78</course>
  <speed>0.0</speed>
  <fix>3d</fix>
</trkpt>
<trkpt lat="21.1656422" lon="-156.8868015">
  <ele>165.33</ele>
  <time>2026-09-01T20:03:02Z</time>
  <course>2.71</course>
  <speed>0.0</speed>
  <fix>3d</fix>
</trkpt>
<trkpt lat="21.1656422" lon="-156.8868015">
  <ele>165.35</ele>
  <time>2026-09-01T20:03:02Z</time>
  <course>180.78</course>
  <speed>0.0</speed>
  <fix>3d</fix>
</trkpt>
<trkpt lat="21.1656422" lon="-156.8868015">
  <ele>165.48</ele>
  <time>2026-09-01T20:03:02Z</time>
  <course>2.71</course>
  <speed>0.0</speed>
  <fix>3d</fix>
</trkpt>
<trkpt lat="21.1656422" lon="-156.8868015">
  <ele>165.35</ele>
  <time>2026-09-01T20:03:02Z</time>
  <course>180.78</course>
  <speed>0.0</speed>
  <fix>3d</fix>
</trkpt>
<trkpt lat="21.1656422" lon="-156.8868015">
  <ele>165.26</ele>
  <time>2026-09-01T20:03:02Z</time>
  <course>2.71</course>
  <speed>0.0</speed>
  <fix>3d</fix>
</trkpt>
<trkpt lat="21.1656422" lon="-156.8868015">
  <ele>165.35</ele>
  <time>2026-09-01T20:03:02Z</time>
  <course>180.78</course>
  <speed>0.0</speed>
  <fix>3d</fix>
</trkpt>
<trkpt lat="21.1656422" lon="-156.8868015">
  <ele>165.35</ele>
  <time>2026-09-01T20:03:02Z</time>
  <course>2.71</course>
  <speed>0.0</speed>
  <fix>3d</fix>
</trkpt>
<trkpt lat="21.1656422" lon="-156.8868015">
  <ele>165.35</ele>
  <time>2026-09-01T20:03:02Z</time>
  <course>180.78</course>
  <speed>0.0</speed>
  <fix>3d</fix>
</trkpt>
<trkpt lat="21.1656422" lon="-156.8868015">
  <ele>165.24</ele>
  <time>2026-09-01T20:03:02Z</time>
  <course>2.71</course>
  <speed>0.0</speed>
  <fix>3d</fix>
</trkpt>
<trkpt lat="21.1656422" lon="-156.8868015">
  <ele>165.35</ele>
  <time>2026-09-01T20:03:02Z</time>
  <course>180.78</course>
  <speed>0.0</speed>
  <fix>3d</fix>
</trkpt>
<trkpt lat="21.1656422" lon="-156.8868015">
  <ele>165.12</ele>
  <time>2026-09-01T20:03:02Z</time>
  <course>2.71</course>
  <speed>0.0</speed>
  <fix>3d</fix>
</trkpt>
<trkpt lat="21.1656422" lon="-156.8868015">
  <ele>165.35</ele>
  <time>2026-09-01T20:03:02Z</time>
  <course>180.78</course>
  <speed>0.0</speed>
  <fix>3d</fix>
</trkpt>
<trkpt lat="21.1656422" lon="-156.8868015">
  <ele>165.36</ele>
  <time>2026-09-01T20:03:02Z</time>
  <course>2.71</course>
  <speed>0.0</speed>
  <fix>3d</fix>
</trkpt>
<trkpt lat="21.1656422" lon="-156.8868015">
  <ele>165.35</ele>
  <time>2026-09-01T20:03:02Z</time>
  <course>180.78</course>
  <speed>0.0</speed>
  <fix>3d</fix>
</trkpt>
<trkpt lat="21.1656422" lon="-156.8868015">
  <ele>165.24</ele>
  <time>2026-09-01T20:03:02Z</time>
  <course>2.71</course>
  <speed>0.0</speed>
  <fix>3d</fix>
</trkpt>
<trkpt lat="21.1656422" lon="-156.8868015">
  <ele>165.35</ele>
  <time>2026-09-01T20:03:02Z</time>
  <course>180.78</course>
  <speed>0.0</speed>
  <fix>3d</fix>
</trkpt>
<trkpt lat="21.1656422" lon="-156.8868015">
  <ele>165.16</ele>
  <time>2026-09-01T20:03:02Z</time>
  <course>2.71</course>
  <speed>0.0</speed>
  <fix>3d</fix>
</trkpt>
<trkpt lat="21.1656422" lon="-156.8868015">
  <ele>165.35</ele>
  <time>2026-09-01T20:03:02Z</time>
  <course>180.78</course>
  <speed>0.0</speed>
  <fix>3d</fix>
</trkpt>
<trkpt lat="21.1656422" lon="-156.8868015">
  <ele>165.15</ele>
  <time>2026-09-01T20:03:02Z</time>
  <course>2.72</course>
  <speed>0.0</speed>
  <fix>3d</fix>
</trkpt>
<trkpt lat="21.1656422" lon="-156.8868015">
  <ele>165.35</ele>
  <time>2026-09-01T20:03:02Z</time>
  <course>180.78</course>
  <speed>0.0</speed>
  <fix>3d</fix>
</trkpt>
<trkpt lat="21.1656422" lon="-156.8868015">
  <ele>165.12</ele>
  <time>2026-09-01T20:03:02Z</time>
  <course>2.72</course>
  <speed>0.0</speed>
  <fix>3d</fix>
</trkpt>
<trkpt lat="21.1656422" lon="-156.8868015">
  <ele>165.35</ele>
  <time>2026-09-01T20:03:02Z</time>
  <course>180.78</course>
  <speed>0.0</speed>
  <fix>3d</fix>
</trkpt>
<trkpt lat="21.1656422" lon="-156.8868015">
  <ele>165.37</ele>
  <time>2026-09-01T20:03:02Z</time>
  <course>2.72</course>
  <speed>0.0</speed>
  <fix>3d</fix>
</trkpt>
<trkpt lat="21.1656422" lon="-156.8868015">
  <ele>165.35</ele>
  <time>2026-09-01T20:03:02Z</time>
  <course>180.78</course>
  <speed>0.0</speed>
  <fix>3d</fix>
</trkpt>
<trkpt lat="21.1656422" lon="-156.8868015">
  <ele>165.24</ele>
  <time>2026-09-01T20:03:02Z</time>
  <course>2.72</course>
  <speed>0.0</speed>
  <fix>3d</fix>
</trkpt>
<trkpt lat="21.1656422" lon="-156.8868015">
  <ele>165.35</ele>
  <time>2026-09-01T20:03:02Z</time>
  <course>180.78</course>
  <speed>0.0</speed>
  <fix>3d</fix>
</trkpt>
<trkpt lat="21.1656422" lon="-156.8868015">
  <ele>165.38</ele>
  <time>2026-09-01T20:03:02Z</time>
  <course>2.72</course>
  <speed>0.0</speed>
  <fix>3d</fix>
</trkpt>
<trkpt lat="21.1656422" lon="-156.8868015">
  <ele>165.35</ele>
  <time>2026-09-01T20:03:02Z</time>
  <course>180.78</course>
  <speed>0.0</speed>
  <fix>3d</fix>
</trkpt>
<trkpt lat="21.1656422" lon="-156.8868015">
  <ele>165.25</ele>
  <time>2026-09-01T20:03:02Z</time>
  <course>2.72</course>
  <speed>0.0</speed>
  <fix>3d</fix>
</trkpt>
<trkpt lat="21.1656422" lon="-156.8868015">
  <ele>165.35</ele>
  <time>2026-09-01T20:03:02Z</time>
  <course>180.78</course>
  <speed>0.0</speed>
  <fix>3d</fix>
</trkpt>
<trkpt lat="21.1656422" lon="-156.8868015">
  <ele>165.41</ele>
  <time>2026-09-01T20:03:02Z</time>
  <course>2.72</course>
  <speed>0.0</speed>
  <fix>3d</fix>
</trkpt>
<trkpt lat="21.1656422" lon="-156.8868015">
  <ele>165.35</ele>
  <time>2026-09-01T20:03:02Z</time>
  <course>180.78</course>
  <speed>0.0</speed>
  <fix>3d</fix>
</trkpt>
<trkpt lat="21.1656422" lon="-156.8868015">
  <ele>165.24</ele>
  <time>2026-09-01T20:03:02Z</time>
  <course>2.72</course>
  <speed>0.0</speed>
  <fix>3d</fix>
</trkpt>
<trkpt lat="21.1656422" lon="-156.8868015">
  <ele>165.35</ele>
  <time>2026-09-01T20:03:02Z</time>
  <course>180.78</course>
  <speed>0.0</speed>
  <fix>3d</fix>
</trkpt>
<trkpt lat="21.1656422" lon="-156.8868015">
  <ele>165.24</ele>
  <time>2026-09-01T20:03:02Z</time>
  <course>2.72</course>
  <speed>0.0</speed>
  <fix>3d</fix>
</trkpt>
<trkpt lat="21.1656422" lon="-156.8868015">
  <ele>165.35</ele>
  <time>2026-09-01T20:03:02Z</time>
  <course>180.78</course>
  <speed>0.0</speed>
  <fix>3d</fix>
</trkpt>
<trkpt lat="21.1656422" lon="-156.8868015">
  <ele>165.42</ele>
  <time>2026-09-01T20:03:02Z</time>
  <course>2.72</course>
  <speed>0.0</speed>
  <fix>3d</fix>
</trkpt>
<trkpt lat="21.1656422" lon="-156.8868015">
  <ele>165.35</ele>
  <time>2026-09-01T20:03:02Z</time>
  <course>180.78</course>
  <speed>0.0</speed>
  <fix>3d</fix>
</trkpt>
<trkpt lat="21.1656422" lon="-156.8868015">
  <ele>165.41</ele>
  <time>2026-09-01T20:03:02Z</time>
  <course>2.72</course>
  <speed>0.0</speed>
  <fix>3d</fix>
</trkpt>
<trkpt lat="21.1656422" lon="-156.8868015">
  <ele>165.35</ele>
  <time>2026-09-01T20:03:02Z</time>
  <course>180.78</course>
  <speed>0.0</speed>
  <fix>3d</fix>
</trkpt>
<trkpt lat="21.1656422" lon="-156.8868015">
  <ele>165.12</ele>
  <time>2026-09-01T20:03:02Z</time>
  <course>2.72</course>
  <speed>0.0</speed>
  <fix>3d</fix>
</trkpt>
<trkpt lat="21.1656422" lon="-156.8868015">
  <ele>165.35</ele>
  <time>2026-09-01T20:03:02Z</time>
  <course>180.78</course>
  <speed>0.0</speed>
  <fix>3d</fix>
</trkpt>
<trkpt lat="21.1656422" lon="-156.8868015">
  <ele>165.44</ele>
  <time>2026-09-01T20:03:02Z</time>
  <course>2.72</course>
  <speed>0.0</speed>
  <fix>3d</fix>
</trkpt>
<trkpt lat="21.1656422" lon="-156.8868015">
  <ele>165.35</ele>
  <time>2026-09-01T20:03:02Z</time>
  <course>180.78</course>
  <speed>0.0</speed>
  <fix>3d</fix>
</trkpt>
<trkpt lat="21.1656422" lon="-156.8868015">
  <ele>165.41</ele>
  <time>2026-09-01T20:03:02Z</time>
  <course>2.72</course>
  <speed>0.0</speed>
  <fix>3d</fix>
</trkpt>
<trkpt lat="21.1656422" lon="-156.8868015">
  <ele>165.35</ele>
  <time>2026-09-01T20:03:02Z</time>
  <course>180.78</course>
  <speed>0.0</speed>
  <fix>3d</fix>
</trkpt>
<trkpt lat="21.1656422" lon="-156.8868015">
  <ele>165.46</ele>
  <time>2026-09-01T20:03:02Z</time>
  <course>2.72</course>
  <speed>0.0</speed>
  <fix>3d</fix>
</trkpt>
<trkpt lat="21.1656422" lon="-156.8868015">
  <ele>165.35</ele>
  <time>2026-09-01T20:03:02Z</time>
  <course>180.78</course>
  <speed>0.0</speed>
  <fix>3d</fix>
</trkpt>
<trkpt lat="21.1656422" lon="-156.8868015">
  <ele>165.47</ele>
  <time>2026-09-01T20:03:02Z</time>
  <course>2.72</course>
  <speed>0.0</speed>
  <fix>3d</fix>
</trkpt>
<trkpt lat="21.1656422" lon="-156.8868015">
  <ele>165.35</ele>
  <time>2026-09-01T20:03:02Z</time>
  <course>180.78</course>
  <speed>0.0</speed>
  <fix>3d</fix>
</trkpt>
<trkpt lat="21.1656422" lon="-156.8868015">
  <ele>165.49</ele>
  <time>2026-09-01T20:03:02Z</time>
  <course>2.72</course>
  <speed>0.0</speed>
  <fix>3d</fix>
</trkpt>
<trkpt lat="21.1656422" lon="-156.8868015">
  <ele>165.35</ele>
  <time>2026-09-01T20:03:02Z</time>
  <course>180.78</course>
  <speed>0.0</speed>
  <fix>3d</fix>
</trkpt>
<trkpt lat="21.1656422" lon="-156.8868015">
  <ele>165.25</ele>
  <time>2026-09-01T20:03:02Z</time>
  <course>2.72</course>
  <speed>0.0</speed>
  <fix>3d</fix>
</trkpt>
<trkpt lat="21.1656422" lon="-156.8868015">
  <ele>165.35</ele>
  <time>2026-09-01T20:03:02Z</time>
  <course>180.78</course>
  <speed>0.0</speed>
  <fix>3d</fix>
</trkpt>
<trkpt lat="21.1656422" lon="-156.8868015">
  <ele>165.35</ele>
  <time>2026-09-01T20:03:02Z</time>
  <course>2.72</course>
  <speed>0.0</speed>
  <fix>3d</fix>
</trkpt>
<trkpt lat="21.1656422" lon="-156.8868015">
  <ele>165.35</ele>
  <time>2026-09-01T20:03:02Z</time>
  <course>180.78</course>
  <speed>0.0</speed>
  <fix>3d</fix>
</trkpt>
<trkpt lat="21.1656422" lon="-156.8868015">
  <ele>165.3</ele>
  <time>2026-09-01T20:03:02Z</time>
  <course>2.72</course>
  <speed>0.0</speed>
  <fix>3d</fix>
</trkpt>
<trkpt lat="21.1656422" lon="-156.8868015">
  <ele>165.35</ele>
  <time>2026-09-01T20:03:02Z</time>
  <course>180.78</course>
  <speed>0.0</speed>
  <fix>3d</fix>
</trkpt>
<trkpt lat="21.1656422" lon="-156.8868015">
  <ele>165.12</ele>
  <time>2026-09-01T20:03:02Z</time>
  <course>2.72</course>
  <speed>0.0</speed>
  <fix>3d</fix>
</trkpt>
<trkpt lat="21.1656422" lon="-156.8868015">
  <ele>165.35</ele>
  <time>2026-09-01T20:03:02Z</time>
  <course>180.78</course>
  <speed>0.0</speed>
  <fix>3d</fix>
</trkpt>
<trkpt lat="21.1656422" lon="-156.8868015">
  <ele>165.17</ele>
  <time>2026-09-01T20:03:02Z</time>
  <course>2.72</course>
  <speed>0.0</speed>
  <fix>3d</fix>
</trkpt>
<trkpt lat="21.1656422" lon="-156.8868015">
  <ele>165.35</ele>
  <time>2026-09-01T20:03:02Z</time>
  <course>180.78</course>
  <speed>0.0</speed>
  <fix>3d</fix>
</trkpt>
<trkpt lat="21.1656422" lon="-156.8868015">
  <ele>165.21</ele>
  <time>2026-09-01T20:03:02Z</time>
  <course>2.72</course>
  <speed>0.0</speed>
  <fix>3d</fix>
</trkpt>
<trkpt lat="21.1656422" lon="-156.8868015">
  <ele>165.35</ele>
  <time>2026-09-01T20:03:02Z</time>
  <course>180.78</course>
  <speed>0.0</speed>
  <fix>3d</fix>
</trkpt>
<trkpt lat="21.1656422" lon="-156.8868015">
  <ele>165.4</ele>
  <time>2026-09-01T20:03:02Z</time>
  <course>2.72</course>
  <speed>0.0</speed>
  <fix>3d</fix>
</trkpt>
<trkpt lat="21.1656422" lon="-156.8868015">
  <ele>165.35</ele>
  <time>2026-09-01T20:03:02Z</time>
  <course>180.78</course>
  <speed>0.0</speed>
  <fix>3d</fix>
</trkpt>
<trkpt lat="21.1656422" lon="-156.8868015">
  <ele>165.41</ele>
  <time>2026-09-01T20:03:02Z</time>
  <course>2.72</course>
  <speed>0.0</speed>
  <fix>3d</fix>
</trkpt>
<trkpt lat="21.1656422" lon="-156.8868015">
  <ele>165.35</ele>
  <time>2026-09-01T20:03:02Z</time>
  <course>180.78</course>
  <speed>0.0</speed>
  <fix>3d</fix>
</trkpt>
<trkpt lat="21.1656422" lon="-156.8868015">
  <ele>165.44</ele>
  <time>2026-09-01T20:03:02Z</time>
  <course>2.73</course>
  <speed>0.0</speed>
  <fix>3d</fix>
</trkpt>
<trkpt lat="21.1656422" lon="-156.8868015">
  <ele>165.35</ele>
  <time>2026-09-01T20:03:02Z</time>
  <course>180.78</course>
  <speed>0.0</speed>
  <fix>3d</fix>
</trkpt>
<trkpt lat="21.1656422" lon="-156.8868015">
  <ele>165.38</ele>
  <time>2026-09-01T20:03:02Z</time>
  <course>2.73</course>
  <speed>0.0</speed>
  <fix>3d</fix>
</trkpt>
<trkpt lat="21.1656422" lon="-156.8868015">
  <ele>165.35</ele>
  <time>2026-09-01T20:03:02Z</time>
  <course>180.78</course>
  <speed>0.0</speed>
  <fix>3d</fix>
</trkpt>
<trkpt lat="21.1656422" lon="-156.8868015">
  <ele>165.34</ele>
  <time>2026-09-01T20:03:02Z</time>
  <course>2.7</course>
  <speed>0.0</speed>
  <fix>3d</fix>
</trkpt>
<trkpt lat="21.1656422" lon="-156.8868015">
  <ele>165.35</ele>
  <time>2026-09-01T20:03:02Z</time>
  <course>180.78</course>
  <speed>0.0</speed>
  <fix>3d</fix>
</trkpt>
<trkpt lat="21.1656422" lon="-156.8868015">
  <ele>165.34</ele>
  <time>2026-09-01T20:03:02Z</time>
  <course>2.7</course>
  <speed>0.0</speed>
  <fix>3d</fix>
</trkpt>
<trkpt lat="21.1656422" lon="-156.8868015">
  <ele>165.35</ele>
  <time>2026-09-01T20:03:02Z</time>
  <course>180.78</course>
  <speed>0.0</speed>
  <fix>3d</fix>
</trkpt>
<trkpt lat="21.1656422" lon="-156.8868015">
  <ele>165.35</ele>
  <time>2026-09-01T20:03:02Z</time>
  <course>2.7</course>
  <speed>0.0</speed>
  <fix>3d</fix>
</trkpt>
<trkpt lat="21.1656422" lon="-156.8868015">
  <ele>165.35</ele>
  <time>2026-09-01T20:03:02Z</time>
  <course>180.78</course>
  <speed>0.0</speed>
  <fix>3d</fix>
</trkpt>
<trkpt lat="21.1656422" lon="-156.8868015">
  <ele>165.35</ele>
  <time>2026-09-01T20:03:02Z</time>
  <course>2.7</course>
  <speed>0.0</speed>
  <fix>3d</fix>
</trkpt>
<trkpt lat="21.1656422" lon="-156.8868015">
  <ele>165.35</ele>
  <time>2026-09-01T20:03:02Z</time>
  <course>180.78</course>
  <speed>0.0</speed>
  <fix>3d</fix>
</trkpt>
<trkpt lat="21.1656422" lon="-156.8868015">
  <ele>165.35</ele>
  <time>2026-09-01T20:03:02Z</time>
  <course>2.7</course>
  <speed>0.0</speed>
  <fix>3d</fix>
</trkpt>
<trkpt lat="21.1656422" lon="-156.8868015">
  <ele>165.35</ele>
  <time>2026-09-01T20:03:02Z</time>
  <course>180.78</course>
  <speed>0.0</speed>
  <fix>3d</fix>
</trkpt>
<trkpt lat="21.1656422" lon="-156.8868015">
  <ele>165.35</ele>
  <time>2026-09-01T20:03:02Z</time>
  <course>2.7</course>
  <speed>0.0</speed>
  <fix>3d</fix>
</trkpt>
<trkpt lat="21.1656422" lon="-156.8868015">
  <ele>165.35</ele>
  <time>2026-09-01T20:03:02Z</time>
  <course>180.78</course>
  <speed>0.0</speed>
  <fix>3d</fix>
</trkpt>
<trkpt lat="21.1656422" lon="-156.8868015">
  <ele>165.35</ele>
  <time>2026-09-01T20:03:02Z</time>
  <course>2.7</course>
  <speed>0.0</speed>
  <fix>3d</fix>
</trkpt>
<trkpt lat="21.1656422" lon="-156.8868015">
  <ele>165.35</ele>
  <time>2026-09-01T20:03:02Z</time>
  <course>180.78</course>
  <speed>0.0</speed>
  <fix>3d</fix>
</trkpt>
<trkpt lat="21.1656422" lon="-156.8868015">
  <ele>165.36</ele>
  <time>2026-09-01T20:03:02Z</time>
  <course>2.7</course>
  <speed>0.0</speed>
  <fix>3d</fix>
</trkpt>
<trkpt lat="21.1656422" lon="-156.8868015">
  <ele>165.35</ele>
  <time>2026-09-01T20:03:02Z</time>
  <course>180.78</course>
  <speed>0.0</speed>
  <fix>3d</fix>
</trkpt>
<trkpt lat="21.1656422" lon="-156.8868015">
  <ele>165.36</ele>
  <time>2026-09-01T20:03:02Z</time>
  <course>2.7</course>
  <speed>0.0</speed>
  <fix>3d</fix>
</trkpt>
<trkpt lat="21.1656422" lon="-156.8868015">
  <ele>165.35</ele>
  <time>2026-09-01T20:03:02Z</time>
  <course>180.78</course>
  <speed>0.0</speed>
  <fix>3d</fix>
</trkpt>
<trkpt lat="21.1656422" lon="-156.8868015">
  <ele>165.36</ele>
  <time>2026-09-01T20:03:02Z</time>
  <course>2.7</course>
  <speed>0.0</speed>
  <fix>3d</fix>
</trkpt>
<trkpt lat="21.1656422" lon="-156.8868015">
  <ele>165.35</ele>
  <time>2026-09-01T20:03:02Z</time>
  <course>180.78</course>
  <speed>0.0</speed>
  <fix>3d</fix>
</trkpt>
<trkpt lat="21.1656422" lon="-156.8868015">
  <ele>165.37</ele>
  <time>2026-09-01T20:03:02Z</time>
  <course>2.7</course>
  <speed>0.0</speed>
  <fix>3d</fix>
</trkpt>
<trkpt lat="21.1656422" lon="-156.8868015">
  <ele>165.35</ele>
  <time>2026-09-01T20:03:02Z</time>
  <course>180.78</course>
  <speed>0.0</speed>
  <fix>3d</fix>
</trkpt>
<trkpt lat="21.1656422" lon="-156.8868015">
  <ele>165.37</ele>
  <time>2026-09-01T20:03:02Z</time>
  <course>2.7</course>
  <speed>0.0</speed>
  <fix>3d</fix>
</trkpt>
<trkpt lat="21.1656422" lon="-156.8868015">
  <ele>165.35</ele>
  <time>2026-09-01T20:03:02Z</time>
  <course>180.78</course>
  <speed>0.0</speed>
  <fix>3d</fix>
</trkpt>
<trkpt lat="21.1656422" lon="-156.8868015">
  <ele>165.35</ele>
  <time>2026-09-01T20:03:02Z</time>
  <course>2.7</course>
  <speed>0.0</speed>
  <fix>3d</fix>
</trkpt>
<trkpt lat="21.1656422" lon="-156.8868015">
  <ele>165.35</ele>
  <time>2026-09-01T20:03:02Z</time>
  <course>180.78</course>
  <speed>0.0</speed>
  <fix>3d</fix>
</trkpt>
<trkpt lat="21.1656422" lon="-156.8868015">
  <ele>165.35</ele>
  <time>2026-09-01T20:03:02Z</time>
  <course>2.7</course>
  <speed>0.0</speed>
  <fix>3d</fix>
</trkpt>
<trkpt lat="21.1656422" lon="-156.8868015">
  <ele>165.35</ele>
  <time>2026-09-01T20:03:02Z</time>
  <course>180.78</course>
  <speed>0.0</speed>
  <fix>3d</fix>
</trkpt>
<trkpt lat="21.1656422" lon="-156.8868015">
  <ele>165.35</ele>
  <time>2026-09-01T20:03:02Z</time>
  <course>2.7</course>
  <speed>0.0</speed>
  <fix>3d</fix>
</trkpt>
<trkpt lat="21.1656422" lon="-156.8868015">
  <ele>165.35</ele>
  <time>2026-09-01T20:03:02Z</time>
  <course>180.78</course>
  <speed>0.0</speed>
  <fix>3d</fix>
</trkpt>
<trkpt lat="21.1656422" lon="-156.8868015">
  <ele>165.34</ele>
  <time>2026-09-01T20:03:02Z</time>
  <course>2.7</course>
  <speed>0.0</speed>
  <fix>3d</fix>
</trkpt>
<trkpt lat="21.1656422" lon="-156.8868015">
  <ele>165.35</ele>
  <time>2026-09-01T20:03:02Z</time>
  <course>180.78</course>
  <speed>0.0</speed>
  <fix>3d</fix>
</trkpt>
<trkpt lat="21.1656422" lon="-156.8868015">
  <ele>165.34</ele>
  <time>2026-09-01T20:03:02Z</time>
  <course>2.7</course>
  <speed>0.0</speed>
  <fix>3d</fix>
</trkpt>
<trkpt lat="21.1656422" lon="-156.8868015">
  <ele>165.35</ele>
  <time>2026-09-01T20:03:02Z</time>
  <course>180.78</course>
  <speed>0.0</speed>
  <fix>3d</fix>
</trkpt>
<trkpt lat="21.1656422" lon="-156.8868015">
  <ele>165.34</ele>
  <time>2026-09-01T20:03:02Z</time>
  <course>2.7</course>
  <speed>0.0</speed>
  <fix>3d</fix>
</trkpt>
<trkpt lat="21.1656422" lon="-156.8868015">
  <ele>165.35</ele>
  <time>2026-09-01T20:03:02Z</time>
  <course>180.78</course>
  <speed>0.0</speed>
  <fix>3d</fix>
</trkpt>
<trkpt lat="21.1656422" lon="-156.8868015">
  <ele>165.34</ele>
  <time>2026-09-01T20:03:02Z</time>
  <course>2.7</course>
  <speed>0.0</speed>
  <fix>3d</fix>
</trkpt>
<trkpt lat="21.1656422" lon="-156.8868015">
  <ele>165.35</ele>
  <time>2026-09-01T20:03:02Z</time>
  <course>180.78</course>
  <speed>0.0</speed>
  <fix>3d</fix>
</trkpt>
<trkpt lat="21.1656422" lon="-156.8868015">
  <ele>165.34</ele>
  <time>2026-09-01T20:03:02Z</time>
  <course>2.7</course>
  <speed>0.0</speed>
  <fix>3d</fix>
</trkpt>
<trkpt lat="21.1656422" lon="-156.8868015">
  <ele>165.35</ele>
  <time>2026-09-01T20:03:02Z</time>
  <course>180.78</course>
  <speed>0.0</speed>
  <fix>3d</fix>
</trkpt>
<trkpt lat="21.1656422" lon="-156.8868015">
  <ele>165.34</ele>
  <time>2026-09-01T20:03:02Z</time>
  <course>2.7</course>
  <speed>0.0</speed>
  <fix>3d</fix>
</trkpt>
<trkpt lat="21.1656422" lon="-156.8868015">
  <ele>165.35</ele>
  <time>2026-09-01T20:03:02Z</time>
  <course>180.78</course>
  <speed>0.0</speed>
  <fix>3d</fix>
</trkpt>
<trkpt lat="21.1656422" lon="-156.8868015">
  <ele>165.34</ele>
  <time>2026-09-01T20:03:02Z</time>
  <course>2.7</course>
  <speed>0.0</speed>
  <fix>3d</fix>
</trkpt>
<trkpt lat="21.1656422" lon="-156.8868015">
  <ele>165.35</ele>
  <time>2026-09-01T20:03:02Z</time>
  <course>180.78</course>
  <speed>0.0</speed>
  <fix>3d</fix>
</trkpt>
<trkpt lat="21.1656422" lon="-156.8868015">
  <ele>165.34</ele>
  <time>2026-09-01T20:03:02Z</time>
  <course>2.7</course>
  <speed>0.0</speed>
  <fix>3d</fix>
</trkpt>
<trkpt lat="21.1656422" lon="-156.8868015">
  <ele>165.35</ele>
  <time>2026-09-01T20:03:02Z</time>
  <course>180.78</course>
  <speed>0.0</speed>
  <fix>3d</fix>
</trkpt>
<trkpt lat="21.1656422" lon="-156.8868015">
  <ele>165.34</ele>
  <time>2026-09-01T20:03:02Z</time>
  <course>2.71</course>
  <speed>0.0</speed>
  <fix>3d</fix>
</trkpt>
<trkpt lat="21.1656422" lon="-156.8868015">
  <ele>165.35</ele>
  <time>2026-09-01T20:03:02Z</time>
  <course>180.78</course>
  <speed>0.0</speed>
  <fix>3d</fix>
</trkpt>
<trkpt lat="21.1656422" lon="-156.8868015">
  <ele>165.34</ele>
  <time>2026-09-01T20:03:02Z</time>
  <course>2.71</course>
  <speed>0.0</speed>
  <fix>3d</fix>
</trkpt>
<trkpt lat="21.1656422" lon="-156.8868015">
  <ele>165.35</ele>
  <time>2026-09-01T20:03:02Z</time>
  <course>180.78</course>
  <speed>0.0</speed>
  <fix>3d</fix>
</trkpt>
<trkpt lat="21.1656422" lon="-156.8868015">
  <ele>165.34</ele>
  <time>2026-09-01T20:03:02Z</time>
  <course>2.71</course>
  <speed>0.0</speed>
  <fix>3d</fix>
</trkpt>
<trkpt lat="21.1656422" lon="-156.8868015">
  <ele>165.35</ele>
  <time>2026-09-01T20:03:02Z</time>
  <course>180.78</course>
  <speed>0.0</speed>
  <fix>3d</fix>
</trkpt>
<trkpt lat="21.1656422" lon="-156.8868015">
  <ele>165.34</ele>
  <time>2026-09-01T20:03:02Z</time>
  <course>2.71</course>
  <speed>0.0</speed>
  <fix>3d</fix>
</trkpt>
<trkpt lat="21.1656422" lon="-156.8868015">
  <ele>165.35</ele>
  <time>2026-09-01T20:03:02Z</time>
  <course>180.78</course>
  <speed>0.0</speed>
  <fix>3d</fix>
</trkpt>
<trkpt lat="21.1656422" lon="-156.8868015">
  <ele>165.34</ele>
  <time>2026-09-01T20:03:02Z</time>
  <course>2.71</course>
  <speed>0.0</speed>
  <fix>3d</fix>
</trkpt>
<trkpt lat="21.1656422" lon="-156.8868015">
  <ele>165.35</ele>
  <time>2026-09-01T20:03:02Z</time>
  <course>180.78</course>
  <speed>0.0</speed>
  <fix>3d</fix>
</trkpt>
<trkpt lat="21.1656422" lon="-156.8868015">
  <ele>165.35</ele>
  <time>2026-09-01T20:03:02Z</time>
  <course>2.71</course>
  <speed>0.0</speed>
  <fix>3d</fix>
</trkpt>
<trkpt lat="21.1656422" lon="-156.8868015">
  <ele>165.35</ele>
  <time>2026-09-01T20:03:02Z</time>
  <course>180.78</course>
  <speed>0.0</speed>
  <fix>3d</fix>
</trkpt>
<trkpt lat="21.1656422" lon="-156.8868015">
  <ele>165.35</ele>
  <time>2026-09-01T20:03:02Z</time>
  <course>2.71</course>
  <speed>0.0</speed>
  <fix>3d</fix>
</trkpt>
<trkpt lat="21.1656422" lon="-156.8868015">
  <ele>165.35</ele>
  <time>2026-09-01T20:03:02Z</time>
  <course>180.78</course>
  <speed>0.0</speed>
  <fix>3d</fix>
</trkpt>
<trkpt lat="21.1656422" lon="-156.8868015">
  <ele>165.35</ele>
  <time>2026-09-01T20:03:02Z</time>
  <course>2.71</course>
  <speed>0.0</speed>
  <fix>3d</fix>
</trkpt>
<trkpt lat="21.1656422" lon="-156.8868015">
  <ele>165.35</ele>
  <time>2026-09-01T20:03:02Z</time>
  <course>180.78</course>
  <speed>0.0</speed>
  <fix>3d</fix>
</trkpt>
<trkpt lat="21.1656422" lon="-156.8868015">
  <ele>165.35</ele>
  <time>2026-09-01T20:03:02Z</time>
  <course>2.71</course>
  <speed>0.0</speed>
  <fix>3d</fix>
</trkpt>
<trkpt lat="21.1656422" lon="-156.8868015">
  <ele>165.35</ele>
  <time>2026-09-01T20:03:02Z</time>
  <course>180.78</course>
  <speed>0.0</speed>
  <fix>3d</fix>
</trkpt>
<trkpt lat="21.1656422" lon="-156.8868015">
  <ele>165.35</ele>
  <time>2026-09-01T20:03:02Z</time>
  <course>2.71</course>
  <speed>0.0</speed>
  <fix>3d</fix>
</trkpt>
<trkpt lat="21.1656422" lon="-156.8868015">
  <ele>165.35</ele>
  <time>2026-09-01T20:03:02Z</time>
  <course>180.78</course>
  <speed>0.0</speed>
  <fix>3d</fix>
</trkpt>
<trkpt lat="21.1656422" lon="-156.8868015">
  <ele>165.34</ele>
  <time>2026-09-01T20:03:02Z</time>
  <course>2.71</course>
  <speed>0.0</speed>
  <fix>3d</fix>
</trkpt>
<trkpt lat="21.1656422" lon="-156.8868015">
  <ele>165.35</ele>
  <time>2026-09-01T20:03:02Z</time>
  <course>180.78</course>
  <speed>0.0</speed>
  <fix>3d</fix>
</trkpt>
<trkpt lat="21.1656422" lon="-156.8868015">
  <ele>165.34</ele>
  <time>2026-09-01T20:03:02Z</time>
  <course>2.71</course>
  <speed>0.0</speed>
  <fix>3d</fix>
</trkpt>
<trkpt lat="21.1656422" lon="-156.8868015">
  <ele>165.35</ele>
  <time>2026-09-01T20:03:02Z</time>
  <course>180.78</course>
  <speed>0.0</speed>
  <fix>3d</fix>
</trkpt>
<trkpt lat="21.1656422" lon="-156.8868015">
  <ele>165.34</ele>
  <time>2026-09-01T20:03:02Z</time>
  <course>2.71</course>
  <speed>0.0</speed>
  <fix>3d</fix>
</trkpt>
<trkpt lat="21.1656422" lon="-156.8868015">
  <ele>165.35</ele>
  <time>2026-09-01T20:03:02Z</time>
  <course>180.78</course>
  <speed>0.0</speed>
  <fix>3d</fix>
</trkpt>
<trkpt lat="21.1656422" lon="-156.8868015">
  <ele>165.34</ele>
  <time>2026-09-01T20:03:02Z</time>
  <course>2.71</course>
  <speed>0.0</speed>
  <fix>3d</fix>
</trkpt>
<trkpt lat="21.1656422" lon="-156.8868015">
  <ele>165.35</ele>
  <time>2026-09-01T20:03:02Z</time>
  <course>180.78</course>
  <speed>0.0</speed>
  <fix>3d</fix>
</trkpt>
<trkpt lat="21.1656422" lon="-156.8868015">
  <ele>165.34</ele>
  <time>2026-09-01T20:03:02Z</time>
  <course>2.71</course>
  <speed>0.0</speed>
  <fix>3d</fix>
</trkpt>
<trkpt lat="21.1656422" lon="-156.8868015">
  <ele>165.35</ele>
  <time>2026-09-01T20:03:02Z</time>
  <course>180.78</course>
  <speed>0.0</speed>
  <fix>3d</fix>
</trkpt>
<trkpt lat="21.1656422" lon="-156.8868015">
  <ele>165.33</ele>
  <time>2026-09-01T20:03:03Z</time>
  <course>2.71</course>
  <speed>0.0</speed>
  <fix>3d</fix>
</trkpt>
<trkpt lat="21.1656422" lon="-156.8868015">
  <ele>165.35</ele>
  <time>2026-09-01T20:03:03Z</time>
  <course>108.32</course>
  <speed>0.0</speed>
  <fix>3d</fix>
</trkpt>
<trkpt lat="21.1656422" lon="-156.8868015">
  <ele>165.33</ele>
  <time>2026-09-01T20:03:03Z</time>
  <course>2.71</course>
  <speed>0.0</speed>
  <fix>3d</fix>
</trkpt>
<trkpt lat="21.1656422" lon="-156.8868015">
  <ele>165.35</ele>
  <time>2026-09-01T20:03:03Z</time>
  <course>108.32</course>
  <speed>0.0</speed>
  <fix>3d</fix>
</trkpt>
<trkpt lat="21.1656422" lon="-156.8868015">
  <ele>165.33</ele>
  <time>2026-09-01T20:03:03Z</time>
  <course>2.71</course>
  <speed>0.0</speed>
  <fix>3d</fix>
</trkpt>
<trkpt lat="21.1656422" lon="-156.8868015">
  <ele>165.33</ele>
  <time>2026-09-01T20:03:03Z</time>
  <course>2.71</course>
  <speed>0.0</speed>
  <fix>3d</fix>
</trkpt>
<trkpt lat="21.1656422" lon="-156.8868015">
  <ele>165.35</ele>
  <time>2026-09-01T20:03:03Z</time>
  <course>114.98</course>
  <speed>0.0</speed>
  <fix>3d</fix>
</trkpt>
<trkpt lat="21.1656422" lon="-156.8868015">
  <ele>165.33</ele>
  <time>2026-09-01T20:03:03Z</time>
  <course>2.71</course>
  <speed>0.0</speed>
  <fix>3d</fix>
</trkpt>
<trkpt lat="21.1656422" lon="-156.8868015">
  <ele>165.33</ele>
  <time>2026-09-01T20:03:03Z</time>
  <course>2.71</course>
  <speed>0.0</speed>
  <fix>3d</fix>
</trkpt>
<trkpt lat="21.1656422" lon="-156.8868015">
  <ele>165.35</ele>
  <time>2026-09-01T20:03:03Z</time>
  <course>114.98</course>
  <speed>0.0</speed>
  <fix>3d</fix>
</trkpt>
<trkpt lat="21.1656422" lon="-156.8868015">
  <ele>165.33</ele>
  <time>2026-09-01T20:03:03Z</time>
  <course>2.71</course>
  <speed>0.0</speed>
  <fix>3d</fix>
</trkpt>
<trkpt lat="21.1656422" lon="-156.8868015">
  <ele>165.33</ele>
  <time>2026-09-01T20:03:03Z</time>
  <course>2.71</course>
  <speed>0.0</speed>
  <fix>3d</fix>
</trkpt>
<trkpt lat="21.1656422" lon="-156.8868015">
  <ele>165.35</ele>
  <time>2026-09-01T20:03:03Z</time>
  <course>103.01</course>
  <speed>0.0</speed>
  <fix>3d</fix>
</trkpt>
<trkpt lat="21.1656422" lon="-156.8868015">
  <ele>165.33</ele>
  <time>2026-09-01T20:03:03Z</time>
  <course>2.71</course>
  <speed>0.0</speed>
  <fix>3d</fix>
</trkpt>
<trkpt lat="21.1656422" lon="-156.8868015">
  <ele>165.33</ele>
  <time>2026-09-01T20:03:03Z</time>
  <course>2.71</course>
  <speed>0.0</speed>
  <fix>3d</fix>
</trkpt>
<trkpt lat="21.1656422" lon="-156.8868015">
  <ele>165.35</ele>
  <time>2026-09-01T20:03:03Z</time>
  <course>103.01</course>
  <speed>0.0</speed>
  <fix>3d</fix>
</trkpt>
<trkpt lat="21.1656422" lon="-156.8868015">
  <ele>165.33</ele>
  <time>2026-09-01T20:03:03Z</time>
  <course>2.71</course>
  <speed>0.0</speed>
  <fix>3d</fix>
</trkpt>
<trkpt lat="21.1656422" lon="-156.8868015">
  <ele>165.33</ele>
  <time>2026-09-01T20:03:03Z</time>
  <course>2.71</course>
  <speed>0.0</speed>
  <fix>3d</fix>
</trkpt>
<trkpt lat="21.1656422" lon="-156.8868015">
  <ele>165.35</ele>
  <time>2026-09-01T20:03:03Z</time>
  <course>339.31</course>
  <speed>0.0</speed>
  <fix>3d</fix>
</trkpt>
<trkpt lat="21.1656422" lon="-156.8868015">
  <ele>165.33</ele>
  <time>2026-09-01T20:03:03Z</time>
  <course>2.71</course>
  <speed>0.0</speed>
  <fix>3d</fix>
</trkpt>
<trkpt lat="21.1656422" lon="-156.8868015">
  <ele>165.33</ele>
  <time>2026-09-01T20:03:03Z</time>
  <course>2.71</course>
  <speed>0.0</speed>
  <fix>3d</fix>
</trkpt>
<trkpt lat="21.1656422" lon="-156.8868015">
  <ele>165.35</ele>
  <time>2026-09-01T20:03:03Z</time>
  <course>339.31</course>
  <speed>0.0</speed>
  <fix>3d</fix>
</trkpt>
<trkpt lat="21.1656422" lon="-156.8868015">
  <ele>165.33</ele>
  <time>2026-09-01T20:03:03Z</time>
  <course>2.71</course>
  <speed>0.0</speed>
  <fix>3d</fix>
</trkpt>
<trkpt lat="21.1656422" lon="-156.8868015">
  <ele>165.32</ele>
  <time>2026-09-01T20:03:03Z</time>
  <course>2.71</course>
  <speed>0.0</speed>
  <fix>3d</fix>
</trkpt>
<trkpt lat="21.1656422" lon="-156.8868015">
  <ele>165.35</ele>
  <time>2026-09-01T20:03:03Z</time>
  <course>277.27</course>
  <speed>0.0</speed>
  <fix>3d</fix>
</trkpt>
<trkpt lat="21.1656422" lon="-156.8868015">
  <ele>165.32</ele>
  <time>2026-09-01T20:03:03Z</time>
  <course>2.71</course>
  <speed>0.0</speed>
  <fix>3d</fix>
</trkpt>
<trkpt lat="21.1656422" lon="-156.8868015">
  <ele>165.32</ele>
  <time>2026-09-01T20:03:03Z</time>
  <course>2.71</course>
  <speed>0.0</speed>
  <fix>3d</fix>
</trkpt>
<trkpt lat="21.1656422" lon="-156.8868015">
  <ele>165.35</ele>
  <time>2026-09-01T20:03:03Z</time>
  <course>277.27</course>
  <speed>0.0</speed>
  <fix>3d</fix>
</trkpt>
<trkpt lat="21.1656422" lon="-156.8868015">
  <ele>165.33</ele>
  <time>2026-09-01T20:03:03Z</time>
  <course>2.71</course>
  <speed>0.0</speed>
  <fix>3d</fix>
</trkpt>
<trkpt lat="21.1656422" lon="-156.8868015">
  <ele>165.34</ele>
  <time>2026-09-01T20:03:03Z</time>
  <course>2.71</course>
  <speed>0.0</speed>
  <fix>3d</fix>
</trkpt>
<trkpt lat="21.1656422" lon="-156.8868015">
  <ele>165.35</ele>
  <time>2026-09-01T20:03:03Z</time>
  <course>359.31</course>
  <speed>0.0</speed>
  <fix>3d</fix>
</trkpt>
<trkpt lat="21.1656422" lon="-156.8868015">
  <ele>165.34</ele>
  <time>2026-09-01T20:03:03Z</time>
  <course>2.71</course>
  <speed>0.0</speed>
  <fix>3d</fix>
</trkpt>
<trkpt lat="21.1656422" lon="-156.8868015">
  <ele>165.36</ele>
  <time>2026-09-01T20:03:03Z</time>
  <course>2.71</course>
  <speed>0.0</speed>
  <fix>3d</fix>
</trkpt>
<trkpt lat="21.1656422" lon="-156.8868015">
  <ele>165.35</ele>
  <time>2026-09-01T20:03:03Z</time>
  <course>359.31</course>
  <speed>0.0</speed>
  <fix>3d</fix>
</trkpt>
<trkpt lat="21.1656422" lon="-156.8868015">
  <ele>165.37</ele>
  <time>2026-09-01T20:03:03Z</time>
  <course>2.71</course>
  <speed>0.0</speed>
  <fix>3d</fix>
</trkpt>
<trkpt lat="21.1656422" lon="-156.8868015">
  <ele>165.4</ele>
  <time>2026-09-01T20:03:03Z</time>
  <course>2.71</course>
  <speed>0.0</speed>
  <fix>3d</fix>
</trkpt>
<trkpt lat="21.1656422" lon="-156.8868015">
  <ele>165.37</ele>
  <time>2026-09-01T20:03:03Z</time>
  <course>359.92</course>
  <speed>0.0</speed>
  <fix>3d</fix>
</trkpt>
<trkpt lat="21.1656422" lon="-156.8868015">
  <ele>165.41</ele>
  <time>2026-09-01T20:03:03Z</time>
  <course>2.71</course>
  <speed>0.0</speed>
  <fix>3d</fix>
</trkpt>
<trkpt lat="21.1656422" lon="-156.8868015">
  <ele>165.46</ele>
  <time>2026-09-01T20:03:03Z</time>
  <course>2.71</course>
  <speed>0.0</speed>
  <fix>3d</fix>
</trkpt>
<trkpt lat="21.1656422" lon="-156.8868015">
  <ele>165.37</ele>
  <time>2026-09-01T20:03:03Z</time>
  <course>359.92</course>
  <speed>0.0</speed>
  <fix>3d</fix>
</trkpt>
<trkpt lat="21.1656422" lon="-156.8868015">
  <ele>165.46</ele>
  <time>2026-09-01T20:03:03Z</time>
  <course>2.71</course>
  <speed>0.0</speed>
  <fix>3d</fix>
</trkpt>
<trkpt lat="21.1656422" lon="-156.8868015">
  <ele>165.57</ele>
  <time>2026-09-01T20:03:03Z</time>
  <course>2.71</course>
  <speed>0.03</speed>
  <fix>3d</fix>
</trkpt>
<trkpt lat="21.1656422" lon="-156.8868015">
  <ele>165.44</ele>
  <time>2026-09-01T20:03:03Z</time>
  <course>359.37</course>
  <speed>0.0</speed>
  <fix>3d</fix>
</trkpt>
<trkpt lat="21.1656422" lon="-156.8868015">
  <ele>165.57</ele>
  <time>2026-09-01T20:03:03Z</time>
  <course>2.71</course>
  <speed>0.03</speed>
  <fix>3d</fix>
</trkpt>
<trkpt lat="21.1656422" lon="-156.8868015">
  <ele>165.75</ele>
  <time>2026-09-01T20:03:03Z</time>
  <course>2.71</course>
  <speed>0.06</speed>
  <fix>3d</fix>
</trkpt>
<trkpt lat="21.1656422" lon="-156.8868015">
  <ele>165.44</ele>
  <time>2026-09-01T20:03:03Z</time>
  <course>359.37</course>
  <speed>0.0</speed>
  <fix>3d</fix>
</trkpt>
<trkpt lat="21.1656422" lon="-156.8868015">
  <ele>165.78</ele>
  <time>2026-09-01T20:03:03Z</time>
  <course>2.71</course>
  <speed>0.07</speed>
  <fix>3d</fix>
</trkpt>
<trkpt lat="21.1656423" lon="-156.8868015">
  <ele>165.97</ele>
  <time>2026-09-01T20:03:03Z</time>
  <course>2.71</course>
  <speed>0.1</speed>
  <fix>3d</fix>
</trkpt>
<trkpt lat="21.1656422" lon="-156.8868015">
  <ele>165.63</ele>
  <time>2026-09-01T20:03:03Z</time>
  <course>358.85</course>
  <speed>0.03</speed>
  <fix>3d</fix>
</trkpt>
<trkpt lat="21.1656423" lon="-156.8868015">
  <ele>166.0</ele>
  <time>2026-09-01T20:03:03Z</time>
  <course>2.71</course>
  <speed>0.11</speed>
  <fix>3d</fix>
</trkpt>
<trkpt lat="21.1656424" lon="-156.8868015">
  <ele>166.21</ele>
  <time>2026-09-01T20:03:03Z</time>
  <course>2.71</course>
  <speed>0.14</speed>
  <fix>3d</fix>
</trkpt>
<trkpt lat="21.1656422" lon="-156.8868015">
  <ele>165.63</ele>
  <time>2026-09-01T20:03:03Z</time>
  <course>358.85</course>
  <speed>0.03</speed>
  <fix>3d</fix>
</trkpt>
<trkpt lat="21.1656424" lon="-156.8868015">
  <ele>166.25</ele>
  <time>2026-09-01T20:03:03Z</time>
  <course>2.71</course>
  <speed>0.15</speed>
  <fix>3d</fix>
</trkpt>
<trkpt lat="21.1656426" lon="-156.8868015">
  <ele>166.44</ele>
  <time>2026-09-01T20:03:03Z</time>
  <course>2.7</course>
  <speed>0.17</speed>
  <fix>3d</fix>
</trkpt>
<trkpt lat="21.1656423" lon="-156.8868015">
  <ele>166.0</ele>
  <time>2026-09-01T20:03:03Z</time>
  <course>358.92</course>
  <speed>0.1</speed>
  <fix>3d</fix>
</trkpt>
<trkpt lat="21.1656426" lon="-156.8868015">
  <ele>166.49</ele>
  <time>2026-09-01T20:03:03Z</time>
  <course>2.7</course>
  <speed>0.18</speed>
  <fix>3d</fix>
</trkpt>
<trkpt lat="21.1656427" lon="-156.8868015">
  <ele>166.68</ele>
  <time>2026-09-01T20:03:03Z</time>
  <course>2.7</course>
  <speed>0.2</speed>
  <fix>3d</fix>
</trkpt>
<trkpt lat="21.1656423" lon="-156.8868015">
  <ele>166.0</ele>
  <time>2026-09-01T20:03:03Z</time>
  <course>358.92</course>
  <speed>0.1</speed>
  <fix>3d</fix>
</trkpt>
<trkpt lat="21.1656427" lon="-156.8868015">
  <ele>166.69</ele>
  <time>2026-09-01T20:03:03Z</time>
  <course>2.7</course>
  <speed>0.2</speed>
  <fix>3d</fix>
</trkpt>
<trkpt lat="21.1656429" lon="-156.8868015">
  <ele>166.92</ele>
  <time>2026-09-01T20:03:03Z</time>
  <course>2.69</course>
  <speed>0.22</speed>
  <fix>3d</fix>
</trkpt>
<trkpt lat="21.1656425" lon="-156.8868015">
  <ele>166.48</ele>
  <time>2026-09-01T20:03:03Z</time>
  <course>359.05</course>
  <speed>0.17</speed>
  <fix>3d</fix>
</trkpt>
<trkpt lat="21.1656429" lon="-156.8868015">
  <ele>166.96</ele>
  <time>2026-09-01T20:03:03Z</time>
  <course>2.69</course>
  <speed>0.23</speed>
  <fix>3d</fix>
</trkpt>
<trkpt lat="21.1656431" lon="-156.8868015">
  <ele>167.16</ele>
  <time>2026-09-01T20:03:03Z</time>
  <course>2.68</course>
  <speed>0.24</speed>
  <fix>3d</fix>
</trkpt>
<trkpt lat="21.1656425" lon="-156.8868015">
  <ele>166.48</ele>
  <time>2026-09-01T20:03:03Z</time>
  <course>359.05</course>
  <speed>0.17</speed>
  <fix>3d</fix>
</trkpt>
<trkpt lat="21.1656431" lon="-156.8868015">
  <ele>167.21</ele>
  <time>2026-09-01T20:03:03Z</time>
  <course>2.68</course>
  <speed>0.25</speed>
  <fix>3d</fix>
</trkpt>
<trkpt lat="21.1656433" lon="-156.8868015">
  <ele>167.4</ele>
  <time>2026-09-01T20:03:03Z</time>
  <course>2.6</course>
  <speed>0.26</speed>
  <fix>3d</fix>
</trkpt>
<trkpt lat="21.165643" lon="-156.8868015">
  <ele>166.97</ele>
  <time>2026-09-01T20:03:03Z</time>
  <course>359.14</course>
  <speed>0.23</speed>
  <fix>3d</fix>
</trkpt>
<trkpt lat="21.1656434" lon="-156.8868015">
  <ele>167.45</ele>
  <time>2026-09-01T20:03:03Z</time>
  <course>2.57</course>
  <speed>0.26</speed>
  <fix>3d</fix>
</trkpt>
<trkpt lat="21.1656436" lon="-156.8868015">
  <ele>167.63</ele>
  <time>2026-09-01T20:03:03Z</time>
  <course>2.49</course>
  <speed>0.27</speed>
  <fix>3d</fix>
</trkpt>
<trkpt lat="21.165643" lon="-156.8868015">
  <ele>166.97</ele>
  <time>2026-09-01T20:03:03Z</time>
  <course>359.14</course>
  <speed>0.23</speed>
  <fix>3d</fix>
</trkpt>
<trkpt lat="21.1656436" lon="-156.8868015">
  <ele>167.67</ele>
  <time>2026-09-01T20:03:03Z</time>
  <course>2.49</course>
  <speed>0.27</speed>
  <fix>3d</fix>
</trkpt>
<trkpt lat="21.1656438" lon="-156.8868015">
  <ele>167.86</ele>
  <time>2026-09-01T20:03:03Z</time>
  <course>2.51</course>
  <speed>0.27</speed>
  <fix>3d</fix>
</trkpt>
<trkpt lat="21.1656434" lon="-156.8868015">
  <ele>167.45</ele>
  <time>2026-09-01T20:03:03Z</time>
  <course>359.22</course>
  <speed>0.26</speed>
  <fix>3d</fix>
</trkpt>
<trkpt lat="21.1656438" lon="-156.8868015">
  <ele>167.87</ele>
  <time>2026-09-01T20:03:03Z</time>
  <course>2.51</course>
  <speed>0.27</speed>
  <fix>3d</fix>
</trkpt>
<trkpt lat="21.1656441" lon="-156.8868015">
  <ele>168.08</ele>
  <time>2026-09-01T20:03:03Z</time>
  <course>2.59</course>
  <speed>0.27</speed>
  <fix>3d</fix>
</trkpt>
<trkpt lat="21.1656434" lon="-156.8868015">
  <ele>167.45</ele>
  <time>2026-09-01T20:03:03Z</time>
  <course>359.22</course>
  <speed>0.26</speed>
  <fix>3d</fix>
</trkpt>
<trkpt lat="21.1656441" lon="-156.8868015">
  <ele>168.08</ele>
  <time>2026-09-01T20:03:03Z</time>
  <course>2.59</course>
  <speed>0.27</speed>
  <fix>3d</fix>
</trkpt>
<trkpt lat="21.1656443" lon="-156.8868015">
  <ele>168.28</ele>
  <time>2026-09-01T20:03:03Z</time>
  <course>2.67</course>
  <speed>0.27</speed>
  <fix>3d</fix>
</trkpt>
<trkpt lat="21.1656439" lon="-156.8868015">
  <ele>167.9</ele>
  <time>2026-09-01T20:03:03Z</time>
  <course>359.29</course>
  <speed>0.28</speed>
  <fix>3d</fix>
</trkpt>
<trkpt lat="21.1656444" lon="-156.8868015">
  <ele>168.32</ele>
  <time>2026-09-01T20:03:03Z</time>
  <course>2.69</course>
  <speed>0.26</speed>
  <fix>3d</fix>
</trkpt>
<trkpt lat="21.1656446" lon="-156.8868015">
  <ele>168.47</ele>
  <time>2026-09-01T20:03:03Z</time>
  <course>2.73</course>
  <speed>0.26</speed>
  <fix>3d</fix>
</trkpt>
<trkpt lat="21.1656439" lon="-156.8868015">
  <ele>167.9</ele>
  <time>2026-09-01T20:03:03Z</time>
  <course>359.29</course>
  <speed>0.28</speed>
  <fix>3d</fix>
</trkpt>
<trkpt lat="21.1656446" lon="-156.8868015">
  <ele>168.5</ele>
  <time>2026-09-01T20:03:03Z</time>
  <course>2.74</course>
  <speed>0.25</speed>
  <fix>3d</fix>
</trkpt>
<trkpt lat="21.1656448" lon="-156.8868015">
  <ele>168.64</ele>
  <time>2026-09-01T20:03:03Z</time>
  <course>2.77</course>
  <speed>0.24</speed>
  <fix>3d</fix>
</trkpt>
<trkpt lat="21.1656444" lon="-156.8868015">
  <ele>168.31</ele>
  <time>2026-09-01T20:03:03Z</time>
  <course>359.37</course>
  <speed>0.27</speed>
  <fix>3d</fix>
</trkpt>
<trkpt lat="21.1656448" lon="-156.8868015">
  <ele>168.68</ele>
  <time>2026-09-01T20:03:03Z</time>
  <course>2.77</course>
  <speed>0.24</speed>
  <fix>3d</fix>
</trkpt>
<trkpt lat="21.165645" lon="-156.8868015">
  <ele>168.81</ele>
  <time>2026-09-01T20:03:03Z</time>
  <course>2.77</course>
  <speed>0.23</speed>
  <fix>3d</fix>
</trkpt>
<trkpt lat="21.1656444" lon="-156.8868015">
  <ele>168.31</ele>
  <time>2026-09-01T20:03:03Z</time>
  <course>359.37</course>
  <speed>0.27</speed>
  <fix>3d</fix>
</trkpt>
<trkpt lat="21.165645" lon="-156.8868015">
  <ele>168.84</ele>
  <time>2026-09-01T20:03:03Z</time>
  <course>2.77</course>
  <speed>0.22</speed>
  <fix>3d</fix>
</trkpt>
<trkpt lat="21.1656452" lon="-156.8868015">
  <ele>168.97</ele>
  <time>2026-09-01T20:03:03Z</time>
  <course>2.77</course>
  <speed>0.21</speed>
  <fix>3d</fix>
</trkpt>
<trkpt lat="21.1656448" lon="-156.8868015">
  <ele>168.68</ele>
  <time>2026-09-01T20:03:03Z</time>
  <course>359.51</course>
  <speed>0.25</speed>
  <fix>3d</fix>
</trkpt>
<trkpt lat="21.1656452" lon="-156.8868015">
  <ele>169.0</ele>
  <time>2026-09-01T20:03:03Z</time>
  <course>2.76</course>
  <speed>0.2</speed>
  <fix>3d</fix>
</trkpt>
<trkpt lat="21.1656454" lon="-156.8868015">
  <ele>169.12</ele>
  <time>2026-09-01T20:03:03Z</time>
  <course>2.75</course>
  <speed>0.18</speed>
  <fix>3d</fix>
</trkpt>
<trkpt lat="21.1656448" lon="-156.8868015">
  <ele>168.68</ele>
  <time>2026-09-01T20:03:03Z</time>
  <course>359.51</course>
  <speed>0.25</speed>
  <fix>3d</fix>
</trkpt>
<trkpt lat="21.1656454" lon="-156.8868015">
  <ele>169.15</ele>
  <time>2026-09-01T20:03:03Z</time>
  <course>2.75</course>
  <speed>0.18</speed>
  <fix>3d</fix>
</trkpt>
<trkpt lat="21.1656455" lon="-156.8868015">
  <ele>169.26</ele>
  <time>2026-09-01T20:03:03Z</time>
  <course>2.73</course>
  <speed>0.16</speed>
  <fix>3d</fix>
</trkpt>
<trkpt lat="21.1656453" lon="-156.8868015">
  <ele>169.0</ele>
  <time>2026-09-01T20:03:03Z</time>
  <course>359.76</course>
  <speed>0.22</speed>
  <fix>3d</fix>
</trkpt>
<trkpt lat="21.1656456" lon="-156.8868015">
  <ele>169.29</ele>
  <time>2026-09-01T20:03:03Z</time>
  <course>2.73</course>
  <speed>0.15</speed>
  <fix>3d</fix>
</trkpt>
<trkpt lat="21.1656457" lon="-156.8868015">
  <ele>169.4</ele>
  <time>2026-09-01T20:03:03Z</time>
  <course>2.72</course>
  <speed>0.13</speed>
  <fix>3d</fix>
</trkpt>
<trkpt lat="21.1656453" lon="-156.8868015">
  <ele>169.0</ele>
  <time>2026-09-01T20:03:03Z</time>
  <course>359.76</course>
  <speed>0.22</speed>
  <fix>3d</fix>
</trkpt>
<trkpt lat="21.1656457" lon="-156.8868015">
  <ele>169.42</ele>
  <time>2026-09-01T20:03:03Z</time>
  <course>2.72</course>
  <speed>0.13</speed>
  <fix>3d</fix>
</trkpt>
<trkpt lat="21.1656458" lon="-156.8868015">
  <ele>169.54</ele>
  <time>2026-09-01T20:03:03Z</time>
  <course>2.71</course>
  <speed>0.11</speed>
  <fix>3d</fix>
</trkpt>
<trkpt lat="21.1656456" lon="-156.8868015">
  <ele>169.29</ele>
  <time>2026-09-01T20:03:03Z</time>
  <course>0.26</course>
  <speed>0.17</speed>
  <fix>3d</fix>
</trkpt>
<trkpt lat="21.1656458" lon="-156.8868015">
  <ele>169.57</ele>
  <time>2026-09-01T20:03:03Z</time>
  <course>2.71</course>
  <speed>0.1</speed>
  <fix>3d</fix>
</trkpt>
<trkpt lat="21.1656459" lon="-156.8868015">
  <ele>169.67</ele>
  <time>2026-09-01T20:03:03Z</time>
  <course>2.7</course>
  <speed>0.08</speed>
  <fix>3d</fix>
</trkpt>
<trkpt lat="21.1656456" lon="-156.8868015">
  <ele>169.29</ele>
  <time>2026-09-01T20:03:03Z</time>
  <course>0.26</course>
  <speed>0.17</speed>
  <fix>3d</fix>
</trkpt>
<trkpt lat="21.1656459" lon="-156.8868015">
  <ele>169.67</ele>
  <time>2026-09-01T20:03:03Z</time>
  <course>2.7</course>
  <speed>0.08</speed>
  <fix>3d</fix>
</trkpt>
<trkpt lat="21.165646" lon="-156.8868015">
  <ele>169.8</ele>
  <time>2026-09-01T20:03:03Z</time>
  <course>2.7</course>
  <speed>0.06</speed>
  <fix>3d</fix>
</trkpt>
<trkpt lat="21.1656459" lon="-156.8868015">
  <ele>169.55</ele>
  <time>2026-09-01T20:03:03Z</time>
  <course>1.3</course>
  <speed>0.12</speed>
  <fix>3d</fix>
</trkpt>
<trkpt lat="21.165646" lon="-156.8868015">
  <ele>169.81</ele>
  <time>2026-09-01T20:03:03Z</time>
  <course>2.7</course>
  <speed>0.06</speed>
  <fix>3d</fix>
</trkpt>
<trkpt lat="21.165646" lon="-156.8868015">
  <ele>169.93</ele>
  <time>2026-09-01T20:03:03Z</time>
  <course>2.71</course>
  <speed>0.03</speed>
  <fix>3d</fix>
</trkpt>
<trkpt lat="21.1656459" lon="-156.8868015">
  <ele>169.55</ele>
  <time>2026-09-01T20:03:03Z</time>
  <course>1.3</course>
  <speed>0.12</speed>
  <fix>3d</fix>
</trkpt>
<trkpt lat="21.165646" lon="-156.8868015">
  <ele>169.96</ele>
  <time>2026-09-01T20:03:03Z</time>
  <course>2.71</course>
  <speed>0.03</speed>
  <fix>3d</fix>
</trkpt>
<trkpt lat="21.1656461" lon="-156.8868015">
  <ele>170.06</ele>
  <time>2026-09-01T20:03:03Z</time>
  <course>2.73</course>
  <speed>0.01</speed>
  <fix>3d</fix>
</trkpt>
<trkpt lat="21.1656461" lon="-156.8868015">
  <ele>169.8</ele>
  <time>2026-09-01T20:03:03Z</time>
  <course>3.89</course>
  <speed>0.07</speed>
  <fix>3d</fix>
</trkpt>
<trkpt lat="21.1656461" lon="-156.8868015">
  <ele>170.09</ele>
  <time>2026-09-01T20:03:03Z</time>
  <course>2.73</course>
  <speed>0.0</speed>
  <fix>3d</fix>
</trkpt>
<trkpt lat="21.1656461" lon="-156.8868015">
  <ele>170.19</ele>
  <time>2026-09-01T20:03:03Z</time>
  <course>2.74</course>
  <speed>0.01</speed>
  <fix>3d</fix>
</trkpt>
<trkpt lat="21.1656461" lon="-156.8868015">
  <ele>169.8</ele>
  <time>2026-09-01T20:03:03Z</time>
  <course>3.89</course>
  <speed>0.07</speed>
  <fix>3d</fix>
</trkpt>
<trkpt lat="21.1656461" lon="-156.8868015">
  <ele>170.21</ele>
  <time>2026-09-01T20:03:03Z</time>
  <course>2.75</course>
  <speed>0.01</speed>
  <fix>3d</fix>
</trkpt>
<trkpt lat="21.1656461" lon="-156.8868015">
  <ele>170.32</ele>
  <time>2026-09-01T20:03:03Z</time>
  <course>2.77</course>
  <speed>0.03</speed>
  <fix>3d</fix>
</trkpt>
<trkpt lat="21.1656461" lon="-156.8868015">
  <ele>170.06</ele>
  <time>2026-09-01T20:03:03Z</time>
  <course>17.06</course>
  <speed>0.02</speed>
  <fix>3d</fix>
</trkpt>
<trkpt lat="21.1656461" lon="-156.8868015">
  <ele>170.34</ele>
  <time>2026-09-01T20:03:03Z</time>
  <course>2.78</course>
  <speed>0.03</speed>
  <fix>3d</fix>
</trkpt>
<trkpt lat="21.1656461" lon="-156.8868015">
  <ele>170.45</ele>
  <time>2026-09-01T20:03:03Z</time>
  <course>2.82</course>
  <speed>0.05</speed>
  <fix>3d</fix>
</trkpt>
<trkpt lat="21.1656461" lon="-156.8868015">
  <ele>170.06</ele>
  <time>2026-09-01T20:03:03Z</time>
  <course>17.06</course>
  <speed>0.02</speed>
  <fix>3d</fix>
</trkpt>
<trkpt lat="21.1656461" lon="-156.8868015">
  <ele>170.47</ele>
  <time>2026-09-01T20:03:03Z</time>
  <course>2.84</course>
  <speed>0.05</speed>
  <fix>3d</fix>
</trkpt>
<trkpt lat="21.1656461" lon="-156.8868015">
  <ele>170.58</ele>
  <time>2026-09-01T20:03:03Z</time>
  <course>2.92</course>
  <speed>0.06</speed>
  <fix>3d</fix>
</trkpt>
<trkpt lat="21.1656461" lon="-156.8868015">
  <ele>170.31</ele>
  <time>2026-09-01T20:03:03Z</time>
  <course>167.59</course>
  <speed>0.02</speed>
  <fix>3d</fix>
</trkpt>
<trkpt lat="21.1656461" lon="-156.8868015">
  <ele>170.6</ele>
  <time>2026-09-01T20:03:03Z</time>
  <course>2.94</course>
  <speed>0.07</speed>
  <fix>3d</fix>
</trkpt>
<trkpt lat="21.165646" lon="-156.8868015">
  <ele>170.71</ele>
  <time>2026-09-01T20:03:03Z</time>
  <course>2.99</course>
  <speed>0.08</speed>
  <fix>3d</fix>
</trkpt>
<trkpt lat="21.1656461" lon="-156.8868015">
  <ele>170.31</ele>
  <time>2026-09-01T20:03:03Z</time>
  <course>167.59</course>
  <speed>0.02</speed>
  <fix>3d</fix>
</trkpt>
<trkpt lat="21.165646" lon="-156.8868015">
  <ele>170.74</ele>
  <time>2026-09-01T20:03:03Z</time>
  <course>2.99</course>
  <speed>0.08</speed>
  <fix>3d</fix>
</trkpt>
<trkpt lat="21.1656459" lon="-156.8868015">
  <ele>170.85</ele>
  <time>2026-09-01T20:03:03Z</time>
  <course>3.01</course>
  <speed>0.09</speed>
  <fix>3d</fix>
</trkpt>
<trkpt lat="21.1656461" lon="-156.8868015">
  <ele>170.57</ele>
  <time>2026-09-01T20:03:03Z</time>
  <course>177.18</course>
  <speed>0.06</speed>
  <fix>3d</fix>
</trkpt>
<trkpt lat="21.1656459" lon="-156.8868015">
  <ele>170.88</ele>
  <time>2026-09-01T20:03:03Z</time>
  <course>3.01</course>
  <speed>0.1</speed>
  <fix>3d</fix>
</trkpt>
<trkpt lat="21.1656459" lon="-156.8868015">
  <ele>170.99</ele>
  <time>2026-09-01T20:03:03Z</time>
  <course>3.01</course>
  <speed>0.11</speed>
  <fix>3d</fix>
</trkpt>
<trkpt lat="21.1656461" lon="-156.8868015">
  <ele>170.57</ele>
  <time>2026-09-01T20:03:03Z</time>
  <course>177.18</course>
  <speed>0.06</speed>
  <fix>3d</fix>
</trkpt>
<trkpt lat="21.1656458" lon="-156.8868015">
  <ele>171.02</ele>
  <time>2026-09-01T20:03:03Z</time>
  <course>3.0</course>
  <speed>0.11</speed>
  <fix>3d</fix>
</trkpt>
<trkpt lat="21.1656458" lon="-156.8868015">
  <ele>171.13</ele>
  <time>2026-09-01T20:03:03Z</time>
  <course>2.98</course>
  <speed>0.11</speed>
  <fix>3d</fix>
</trkpt>
<trkpt lat="21.165646" lon="-156.8868015">
  <ele>170.85</ele>
  <time>2026-09-01T20:03:03Z</time>
  <course>178.63</course>
  <speed>0.09</speed>
  <fix>3d</fix>
</trkpt>
<trkpt lat="21.1656458" lon="-156.8868015">
  <ele>171.14</ele>
  <time>2026-09-01T20:03:03Z</time>
  <course>2.98</course>
  <speed>0.12</speed>
  <fix>3d</fix>
</trkpt>
<trkpt lat="21.1656457" lon="-156.8868015">
  <ele>171.28</ele>
  <time>2026-09-01T20:03:03Z</time>
  <course>2.95</course>
  <speed>0.12</speed>
  <fix>3d</fix>
</trkpt>
<trkpt lat="21.165646" lon="-156.8868015">
  <ele>170.85</ele>
  <time>2026-09-01T20:03:03Z</time>
  <course>178.63</course>
  <speed>0.09</speed>
  <fix>3d</fix>
</trkpt>
<trkpt lat="21.1656456" lon="-156.8868015">
  <ele>171.31</ele>
  <time>2026-09-01T20:03:03Z</time>
  <course>2.94</course>
  <speed>0.12</speed>
  <fix>3d</fix>
</trkpt>
<trkpt lat="21.1656456" lon="-156.8868015">
  <ele>171.42</ele>
  <time>2026-09-01T20:03:03Z</time>
  <course>2.92</course>
  <speed>0.13</speed>
  <fix>3d</fix>
</trkpt>
<trkpt lat="21.1656459" lon="-156.8868015">
  <ele>171.13</ele>
  <time>2026-09-01T20:03:03Z</time>
  <course>179.01</course>
  <speed>0.11</speed>
  <fix>3d</fix>
</trkpt>
<trkpt lat="21.1656456" lon="-156.8868015">
  <ele>171.42</ele>
  <time>2026-09-01T20:03:03Z</time>
  <course>2.92</course>
  <speed>0.13</speed>
  <fix>3d</fix>
</trkpt>
<trkpt lat="21.1656455" lon="-156.8868015">
  <ele>171.56</ele>
  <time>2026-09-01T20:03:03Z</time>
  <course>2.9</course>
  <speed>0.13</speed>
  <fix>3d</fix>
</trkpt>
<trkpt lat="21.1656459" lon="-156.8868015">
  <ele>171.13</ele>
  <time>2026-09-01T20:03:03Z</time>
  <course>179.01</course>
  <speed>0.11</speed>
  <fix>3d</fix>
</trkpt>
<trkpt lat="21.1656454" lon="-156.8868015">
  <ele>171.6</ele>
  <time>2026-09-01T20:03:03Z</time>
  <course>2.89</course>
  <speed>0.13</speed>
  <fix>3d</fix>
</trkpt>
<trkpt lat="21.1656453" lon="-156.8868015">
  <ele>171.71</ele>
  <time>2026-09-01T20:03:03Z</time>
  <course>2.87</course>
  <speed>0.14</speed>
  <fix>3d</fix>
</trkpt>
<trkpt lat="21.1656456" lon="-156.8868015">
  <ele>171.41</ele>
  <time>2026-09-01T20:03:03Z</time>
  <course>179.36</course>
  <speed>0.13</speed>
  <fix>3d</fix>
</trkpt>
<trkpt lat="21.1656453" lon="-156.8868015">
  <ele>171.74</ele>
  <time>2026-09-01T20:03:03Z</time>
  <course>2.87</course>
  <speed>0.14</speed>
  <fix>3d</fix>
</trkpt>
<trkpt lat="21.1656452" lon="-156.8868015">
  <ele>171.85</ele>
  <time>2026-09-01T20:03:03Z</time>
  <course>2.85</course>
  <speed>0.140356688476182</speed>
  <fix>3d</fix>
</trkpt>
<trkpt lat="21.1656456" lon="-156.8868015">
  <ele>171.41</ele>
  <time>2026-09-01T20:03:03Z</time>
  <course>179.36</course>
  <speed>0.13</speed>
  <fix>3d</fix>
</trkpt>
<trkpt lat="21.1656452" lon="-156.8868015">
  <ele>171.88</ele>
  <time>2026-09-01T20:03:03Z</time>
  <course>2.84</course>
  <speed>0.140356688476182</speed>
  <fix>3d</fix>
</trkpt>
<trkpt lat="21.1656451" lon="-156.8868015">
  <ele>172.0</ele>
  <time>2026-09-01T20:03:03Z</time>
  <course>2.82</course>
  <speed>0.14</speed>
  <fix>3d</fix>
</trkpt>
<trkpt lat="21.1656454" lon="-156.8868015">
  <ele>171.7</ele>
  <time>2026-09-01T20:03:03Z</time>
  <course>179.44</course>
  <speed>0.14</speed>
  <fix>3d</fix>
</trkpt>
<trkpt lat="21.1656451" lon="-156.8868015">
  <ele>172.04</ele>
  <time>2026-09-01T20:03:03Z</time>
  <course>2.81</course>
  <speed>0.14</speed>
  <fix>3d</fix>
</trkpt>
<trkpt lat="21.165645" lon="-156.8868015">
  <ele>172.14</ele>
  <time>2026-09-01T20:03:03Z</time>
  <course>2.8</course>
  <speed>0.15</speed>
  <fix>3d</fix>
</trkpt>
<trkpt lat="21.1656454" lon="-156.8868015">
  <ele>171.7</ele>
  <time>2026-09-01T20:03:03Z</time>
  <course>179.44</course>
  <speed>0.14</speed>
  <fix>3d</fix>
</trkpt>
<trkpt lat="21.1656449" lon="-156.8868015">
  <ele>172.18</ele>
  <time>2026-09-01T20:03:03Z</time>
  <course>2.79</course>
  <speed>0.15</speed>
  <fix>3d</fix>
</trkpt>
<trkpt lat="21.1656448" lon="-156.8868015">
  <ele>172.29</ele>
  <time>2026-09-01T20:03:03Z</time>
  <course>2.78</course>
  <speed>0.15</speed>
  <fix>3d</fix>
</trkpt>
<trkpt lat="21.1656451" lon="-156.8868015">
  <ele>172.0</ele>
  <time>2026-09-01T20:03:03Z</time>
  <course>179.39</course>
  <speed>0.15</speed>
  <fix>3d</fix>
</trkpt>
<trkpt lat="21.1656448" lon="-156.8868015">
  <ele>172.33</ele>
  <time>2026-09-01T20:03:03Z</time>
  <course>2.78</course>
  <speed>0.15</speed>
  <fix>3d</fix>
</trkpt>
<trkpt lat="21.1656447" lon="-156.8868015">
  <ele>172.43</ele>
  <time>2026-09-01T20:03:03Z</time>
  <course>2.79</course>
  <speed>0.15</speed>
  <fix>3d</fix>
</trkpt>
<trkpt lat="21.1656451" lon="-156.8868015">
  <ele>172.0</ele>
  <time>2026-09-01T20:03:03Z</time>
  <course>179.39</course>
  <speed>0.15</speed>
  <fix>3d</fix>
</trkpt>
<trkpt lat="21.1656447" lon="-156.8868015">
  <ele>172.47</ele>
  <time>2026-09-01T20:03:03Z</time>
  <course>2.79</course>
  <speed>0.15</speed>
  <fix>3d</fix>
</trkpt>
<trkpt lat="21.1656446" lon="-156.8868015">
  <ele>172.58</ele>
  <time>2026-09-01T20:03:03Z</time>
  <course>2.81</course>
  <speed>0.15</speed>
  <fix>3d</fix>
</trkpt>
<trkpt lat="21.1656448" lon="-156.8868015">
  <ele>172.29</ele>
  <time>2026-09-01T20:03:03Z</time>
  <course>179.34</course>
  <speed>0.15</speed>
  <fix>3d</fix>
</trkpt>
<trkpt lat="21.1656446" lon="-156.8868015">
  <ele>172.61</ele>
  <time>2026-09-01T20:03:03Z</time>
  <course>2.81</course>
  <speed>0.15</speed>
  <fix>3d</fix>
</trkpt>
<trkpt lat="21.1656444" lon="-156.8868015">
  <ele>172.73</ele>
  <time>2026-09-01T20:03:03Z</time>
  <course>2.83</course>
  <speed>0.15</speed>
  <fix>3d</fix>
</trkpt>
<trkpt lat="21.1656448" lon="-156.8868015">
  <ele>172.29</ele>
  <time>2026-09-01T20:03:03Z</time>
  <course>179.34</course>
  <speed>0.15</speed>
  <fix>3d</fix>
</trkpt>
<trkpt lat="21.1656444" lon="-156.8868015">
  <ele>172.74</ele>
  <time>2026-09-01T20:03:03Z</time>
  <course>2.83</course>
  <speed>0.15</speed>
  <fix>3d</fix>
</trkpt>
<trkpt lat="21.1656443" lon="-156.8868015">
  <ele>172.88</ele>
  <time>2026-09-01T20:03:03Z</time>
  <course>2.83</course>
  <speed>0.15</speed>
  <fix>3d</fix>
</trkpt>
<trkpt lat="21.1656445" lon="-156.8868015">
  <ele>172.59</ele>
  <time>2026-09-01T20:03:03Z</time>
  <course>179.55</course>
  <speed>0.15</speed>
  <fix>3d</fix>
</trkpt>
<trkpt lat="21.1656443" lon="-156.8868015">
  <ele>172.89</ele>
  <time>2026-09-01T20:03:03Z</time>
  <course>2.83</course>
  <speed>0.15</speed>
  <fix>3d</fix>
</trkpt>
<trkpt lat="21.1656442" lon="-156.8868015">
  <ele>173.03</ele>
  <time>2026-09-01T20:03:03Z</time>
  <course>2.83</course>
  <speed>0.15</speed>
  <fix>3d</fix>
</trkpt>
<trkpt lat="21.1656445" lon="-156.8868015">
  <ele>172.59</ele>
  <time>2026-09-01T20:03:03Z</time>
  <course>179.55</course>
  <speed>0.15</speed>
  <fix>3d</fix>
</trkpt>
<trkpt lat="21.1656441" lon="-156.8868015">
  <ele>173.07</ele>
  <time>2026-09-01T20:03:03Z</time>
  <course>2.82</course>
  <speed>0.15033296378372907</speed>
  <fix>3d</fix>
</trkpt>
<trkpt lat="21.165644" lon="-156.8868015">
  <ele>173.18</ele>
  <time>2026-09-01T20:03:03Z</time>
  <course>2.8</course>
  <speed>0.15033296378372907</speed>
  <fix>3d</fix>
</trkpt>
<trkpt lat="21.1656442" lon="-156.8868015">
  <ele>172.88</ele>
  <time>2026-09-01T20:03:03Z</time>
  <course>179.88</course>
  <speed>0.15</speed>
  <fix>3d</fix>
</trkpt>
<trkpt lat="21.165644" lon="-156.8868015">
  <ele>173.22</ele>
  <time>2026-09-01T20:03:03Z</time>
  <course>2.79</course>
  <speed>0.15033296378372907</speed>
  <fix>3d</fix>
</trkpt>
<trkpt lat="21.1656439" lon="-156.8868015">
  <ele>173.33</ele>
  <time>2026-09-01T20:03:03Z</time>
  <course>2.77</course>
  <speed>0.15033296378372907</speed>
  <fix>3d</fix>
</trkpt>
<trkpt lat="21.1656442" lon="-156.8868015">
  <ele>172.88</ele>
  <time>2026-09-01T20:03:03Z</time>
  <course>179.88</course>
  <speed>0.15</speed>
  <fix>3d</fix>
</trkpt>
<trkpt lat="21.1656439" lon="-156.8868015">
  <ele>173.33</ele>
  <time>2026-09-01T20:03:03Z</time>
  <course>2.77</course>
  <speed>0.15033296378372907</speed>
  <fix>3d</fix>
</trkpt>
<trkpt lat="21.1656438" lon="-156.8868015">
  <ele>173.47</ele>
  <time>2026-09-01T20:03:03Z</time>
  <course>2.75</course>
  <speed>0.140356688476182</speed>
  <fix>3d</fix>
</trkpt>
<trkpt lat="21.165644" lon="-156.8868015">
  <ele>173.17</ele>
  <time>2026-09-01T20:03:03Z</time>
  <course>180.03</course>
  <speed>0.15</speed>
  <fix>3d</fix>
</trkpt>
<trkpt lat="21.1656438" lon="-156.8868015">
  <ele>173.48</ele>
  <time>2026-09-01T20:03:03Z</time>
  <course>2.75</course>
  <speed>0.140356688476182</speed>
  <fix>3d</fix>
</trkpt>
<trkpt lat="21.1656436" lon="-156.8868015">
  <ele>173.61</ele>
  <time>2026-09-01T20:03:03Z</time>
  <course>2.73</course>
  <speed>0.14</speed>
  <fix>3d</fix>
</trkpt>
<trkpt lat="21.165644" lon="-156.8868015">
  <ele>173.17</ele>
  <time>2026-09-01T20:03:03Z</time>
  <course>180.03</course>
  <speed>0.15</speed>
  <fix>3d</fix>
</trkpt>
<trkpt lat="21.1656436" lon="-156.8868015">
  <ele>173.62</ele>
  <time>2026-09-01T20:03:03Z</time>
  <course>2.73</course>
  <speed>0.14</speed>
  <fix>3d</fix>
</trkpt>
<trkpt lat="21.1656435" lon="-156.8868015">
  <ele>173.76</ele>
  <time>2026-09-01T20:03:03Z</time>
  <course>2.68</course>
  <speed>0.14</speed>
  <fix>3d</fix>
</trkpt>
<trkpt lat="21.1656437" lon="-156.8868015">
  <ele>173.46</ele>
  <time>2026-09-01T20:03:03Z</time>
  <course>180.34</course>
  <speed>0.15</speed>
  <fix>3d</fix>
</trkpt>
<trkpt lat="21.1656435" lon="-156.8868015">
  <ele>173.76</ele>
  <time>2026-09-01T20:03:03Z</time>
  <course>2.68</course>
  <speed>0.14</speed>
  <fix>3d</fix>
</trkpt>
<trkpt lat="21.1656434" lon="-156.8868015">
  <ele>173.9</ele>
  <time>2026-09-01T20:03:03Z</time>
  <course>2.62</course>
  <speed>0.14</speed>
  <fix>3d</fix>
</trkpt>
<trkpt lat="21.1656437" lon="-156.8868015">
  <ele>173.46</ele>
  <time>2026-09-01T20:03:03Z</time>
  <course>180.34</course>
  <speed>0.15</speed>
  <fix>3d</fix>
</trkpt>
<trkpt lat="21.1656434" lon="-156.8868015">
  <ele>173.91</ele>
  <time>2026-09-01T20:03:03Z</time>
  <course>2.62</course>
  <speed>0.14</speed>
  <fix>3d</fix>
</trkpt>
<trkpt lat="21.1656432" lon="-156.8868015">
  <ele>174.04</ele>
  <time>2026-09-01T20:03:03Z</time>
  <course>2.58</course>
  <speed>0.13</speed>
  <fix>3d</fix>
</trkpt>
<trkpt lat="21.1656434" lon="-156.8868015">
  <ele>173.75</ele>
  <time>2026-09-01T20:03:03Z</time>
  <course>180.4</course>
  <speed>0.14</speed>
  <fix>3d</fix>
</trkpt>
<trkpt lat="21.1656432" lon="-156.8868015">
  <ele>174.08</ele>
  <time>2026-09-01T20:03:03Z</time>
  <course>2.57</course>
  <speed>0.13</speed>
  <fix>3d</fix>
</trkpt>
<trkpt lat="21.1656431" lon="-156.8868015">
  <ele>174.19</ele>
  <time>2026-09-01T20:03:03Z</time>
  <course>2.55</course>
  <speed>0.13</speed>
  <fix>3d</fix>
</trkpt>
<trkpt lat="21.1656434" lon="-156.8868015">
  <ele>173.75</ele>
  <time>2026-09-01T20:03:03Z</time>
  <course>180.4</course>
  <speed>0.14</speed>
  <fix>3d</fix>
</trkpt>
<trkpt lat="21.1656431" lon="-156.8868015">
  <ele>174.23</ele>
  <time>2026-09-01T20:03:03Z</time>
  <course>2.55</course>
  <speed>0.13</speed>
  <fix>3d</fix>
</trkpt>
<trkpt lat="21.165643" lon="-156.8868015">
  <ele>174.33</ele>
  <time>2026-09-01T20:03:03Z</time>
  <course>2.54</course>
  <speed>0.130384048104053</speed>
  <fix>3d</fix>
</trkpt>
<trkpt lat="21.1656431" lon="-156.8868015">
  <ele>174.04</ele>
  <time>2026-09-01T20:03:03Z</time>
  <course>180.12</course>
  <speed>0.14</speed>
  <fix>3d</fix>
</trkpt>
<trkpt lat="21.165643" lon="-156.8868015">
  <ele>174.33</ele>
  <time>2026-09-01T20:03:03Z</time>
  <course>2.54</course>
  <speed>0.130384048104053</speed>
  <fix>3d</fix>
</trkpt>
<trkpt lat="21.1656429" lon="-156.8868015">
  <ele>174.47</ele>
  <time>2026-09-01T20:03:03Z</time>
  <course>2.56</course>
  <speed>0.12041594578792296</speed>
  <fix>3d</fix>
</trkpt>
<trkpt lat="21.1656431" lon="-156.8868015">
  <ele>174.04</ele>
  <time>2026-09-01T20:03:03Z</time>
  <course>180.12</course>
  <speed>0.14</speed>
  <fix>3d</fix>
</trkpt>
<trkpt lat="21.1656429" lon="-156.8868015">
  <ele>174.48</ele>
  <time>2026-09-01T20:03:03Z</time>
  <course>2.56</course>
  <speed>0.12041594578792296</speed>
  <fix>3d</fix>
</trkpt>
<trkpt lat="21.1656428" lon="-156.8868015">
  <ele>174.61</ele>
  <time>2026-09-01T20:03:03Z</time>
  <course>2.59</course>
  <speed>0.12165525060596438</speed>
  <fix>3d</fix>
</trkpt>
<trkpt lat="21.1656429" lon="-156.8868015">
  <ele>174.32</ele>
  <time>2026-09-01T20:03:03Z</time>
  <course>180.17</course>
  <speed>0.13</speed>
  <fix>3d</fix>
</trkpt>
<trkpt lat="21.1656427" lon="-156.8868015">
  <ele>174.65</ele>
  <time>2026-09-01T20:03:03Z</time>
  <course>2.6</course>
  <speed>0.12165525060596438</speed>
  <fix>3d</fix>
</trkpt>
<trkpt lat="21.1656426" lon="-156.8868015">
  <ele>174.76</ele>
  <time>2026-09-01T20:03:03Z</time>
  <course>2.61</course>
  <speed>0.11045361017187261</speed>
  <fix>3d</fix>
</trkpt>
<trkpt lat="21.1656429" lon="-156.8868015">
  <ele>174.32</ele>
  <time>2026-09-01T20:03:03Z</time>
  <course>180.17</course>
  <speed>0.13</speed>
  <fix>3d</fix>
</trkpt>
<trkpt lat="21.1656426" lon="-156.8868015">
  <ele>174.79</ele>
  <time>2026-09-01T20:03:03Z</time>
  <course>2.62</course>
  <speed>0.11045361017187261</speed>
  <fix>3d</fix>
</trkpt>
<trkpt lat="21.1656425" lon="-156.8868015">
  <ele>174.9</ele>
  <time>2026-09-01T20:03:03Z</time>
  <course>2.61</course>
  <speed>0.11045361017187261</speed>
  <fix>3d</fix>
</trkpt>
<trkpt lat="21.1656427" lon="-156.8868015">
  <ele>174.61</ele>
  <time>2026-09-01T20:03:03Z</time>
  <course>180.75</course>
  <speed>0.12</speed>
  <fix>3d</fix>
</trkpt>
<trkpt lat="21.1656425" lon="-156.8868015">
  <ele>174.94</ele>
  <time>2026-09-01T20:03:03Z</time>
  <course>2.61</course>
  <speed>0.11045361017187261</speed>
  <fix>3d</fix>
</trkpt>
<trkpt lat="21.1656424" lon="-156.8868015">
  <ele>175.05</ele>
  <time>2026-09-01T20:03:03Z</time>
  <course>2.58</course>
  <speed>0.1004987562112089</speed>
  <fix>3d</fix>
</trkpt>
<trkpt lat="21.1656427" lon="-156.8868015">
  <ele>174.61</ele>
  <time>2026-09-01T20:03:03Z</time>
  <course>180.75</course>
  <speed>0.12</speed>
  <fix>3d</fix>
</trkpt>
<trkpt lat="21.1656424" lon="-156.8868015">
  <ele>175.07</ele>
  <time>2026-09-01T20:03:03Z</time>
  <course>2.58</course>
  <speed>0.1004987562112089</speed>
  <fix>3d</fix>
</trkpt>
<trkpt lat="21.1656423" lon="-156.8868015">
  <ele>175.19</ele>
  <time>2026-09-01T20:03:03Z</time>
  <course>2.53</course>
  <speed>0.1004987562112089</speed>
  <fix>3d</fix>
</trkpt>
<trkpt lat="21.1656424" lon="-156.8868015">
  <ele>174.89</ele>
  <time>2026-09-01T20:03:03Z</time>
  <course>181.42</course>
  <speed>0.11</speed>
  <fix>3d</fix>
</trkpt>
<trkpt lat="21.1656423" lon="-156.8868015">
  <ele>175.22</ele>
  <time>2026-09-01T20:03:03Z</time>
  <course>2.52</course>
  <speed>0.1004987562112089</speed>
  <fix>3d</fix>
</trkpt>
<trkpt lat="21.1656422" lon="-156.8868015">
  <ele>175.33</ele>
  <time>2026-09-01T20:03:03Z</time>
  <course>2.48</course>
  <speed>0.09055385138137417</speed>
  <fix>3d</fix>
</trkpt>
<trkpt lat="21.1656424" lon="-156.8868015">
  <ele>174.89</ele>
  <time>2026-09-01T20:03:03Z</time>
  <course>181.42</course>
  <speed>0.11</speed>
  <fix>3d</fix>
</trkpt>
<trkpt lat="21.1656422" lon="-156.8868015">
  <ele>175.37</ele>
  <time>2026-09-01T20:03:03Z</time>
  <course>2.47</course>
  <speed>0.09055385138137417</speed>
  <fix>3d</fix>
</trkpt>
<trkpt lat="21.1656422" lon="-156.8868015">
  <ele>175.48</ele>
  <time>2026-09-01T20:03:03Z</time>
  <course>2.44</course>
  <speed>0.09055385138137417</speed>
  <fix>3d</fix>
</trkpt>
<trkpt lat="21.1656423" lon="-156.8868015">
  <ele>175.18</ele>
  <time>2026-09-01T20:03:03Z</time>
  <course>181.67</course>
  <speed>0.1</speed>
  <fix>3d</fix>
</trkpt>
<trkpt lat="21.1656421" lon="-156.8868015">
  <ele>175.52</ele>
  <time>2026-09-01T20:03:03Z</time>
  <course>2.43</course>
  <speed>0.09055385138137417</speed>
  <fix>3d</fix>
</trkpt>
<trkpt lat="21.1656421" lon="-156.8868015">
  <ele>175.62</ele>
  <time>2026-09-01T20:03:03Z</time>
  <course>2.41</course>
  <speed>0.08062257748298549</speed>
  <fix>3d</fix>
</trkpt>
<trkpt lat="21.1656423" lon="-156.8868015">
  <ele>175.18</ele>
  <time>2026-09-01T20:03:03Z</time>
  <course>181.67</course>
  <speed>0.1</speed>
  <fix>3d</fix>
</trkpt>
<trkpt lat="21.1656421" lon="-156.8868015">
  <ele>175.63</ele>
  <time>2026-09-01T20:03:03Z</time>
  <course>2.41</course>
  <speed>0.08062257748298549</speed>
  <fix>3d</fix>
</trkpt>
<trkpt lat="21.165642" lon="-156.8868015">
  <ele>175.77</ele>
  <time>2026-09-01T20:03:03Z</time>
  <course>2.39</course>
  <speed>0.08062257748298549</speed>
  <fix>3d</fix>
</trkpt>
<trkpt lat="21.1656421" lon="-156.8868015">
  <ele>175.46</ele>
  <time>2026-09-01T20:03:03Z</time>
  <course>181.7</course>
  <speed>0.09</speed>
  <fix>3d</fix>
</trkpt>
<trkpt lat="21.165642" lon="-156.8868015">
  <ele>175.8</ele>
  <time>2026-09-01T20:03:03Z</time>
  <course>2.38</course>
  <speed>0.08062257748298549</speed>
  <fix>3d</fix>
</trkpt>
<trkpt lat="21.1656419" lon="-156.8868014">
  <ele>175.91</ele>
  <time>2026-09-01T20:03:03Z</time>
  <course>2.39</course>
  <speed>0.07071067811865475</speed>
  <fix>3d</fix>
</trkpt>
<trkpt lat="21.1656421" lon="-156.8868015">
  <ele>175.46</ele>
  <time>2026-09-01T20:03:03Z</time>
  <course>181.7</course>
  <speed>0.09</speed>
  <fix>3d</fix>
</trkpt>
<trkpt lat="21.1656419" lon="-156.8868014">
  <ele>175.91</ele>
  <time>2026-09-01T20:03:03Z</time>
  <course>2.39</course>
  <speed>0.07071067811865475</speed>
  <fix>3d</fix>
</trkpt>
<trkpt lat="21.1656419" lon="-156.8868014">
  <ele>176.05</ele>
  <time>2026-09-01T20:03:03Z</time>
  <course>2.39</course>
  <speed>0.07071067811865475</speed>
  <fix>3d</fix>
</trkpt>
<trkpt lat="21.1656419" lon="-156.8868015">
  <ele>175.75</ele>
  <time>2026-09-01T20:03:03Z</time>
  <course>182.02</course>
  <speed>0.07</speed>
  <fix>3d</fix>
</trkpt>
<trkpt lat="21.1656419" lon="-156.8868014">
  <ele>176.06</ele>
  <time>2026-09-01T20:03:03Z</time>
  <course>2.39</course>
  <speed>0.07071067811865475</speed>
  <fix>3d</fix>
</trkpt>
<trkpt lat="21.1656418" lon="-156.8868014">
  <ele>176.19</ele>
  <time>2026-09-01T20:03:03Z</time>
  <course>2.42</course>
  <speed>0.06082762530298219</speed>
  <fix>3d</fix>
</trkpt>
<trkpt lat="21.1656419" lon="-156.8868015">
  <ele>175.75</ele>
  <time>2026-09-01T20:03:03Z</time>
  <course>182.02</course>
  <speed>0.07</speed>
  <fix>3d</fix>
</trkpt>
<trkpt lat="21.1656418" lon="-156.8868014">
  <ele>176.23</ele>
  <time>2026-09-01T20:03:03Z</time>
  <course>2.42</course>
  <speed>0.06082762530298219</speed>
  <fix>3d</fix>
</trkpt>
<trkpt lat="21.1656417" lon="-156.8868014">
  <ele>176.33</ele>
  <time>2026-09-01T20:03:03Z</time>
  <course>2.44</course>
  <speed>0.06082762530298219</speed>
  <fix>3d</fix>
</trkpt>
<trkpt lat="21.1656418" lon="-156.8868015">
  <ele>176.04</ele>
  <time>2026-09-01T20:03:03Z</time>
  <course>182.49</course>
  <speed>0.06</speed>
  <fix>3d</fix>
</trkpt>
<trkpt lat="21.1656417" lon="-156.8868014">
  <ele>176.37</ele>
  <time>2026-09-01T20:03:03Z</time>
  <course>2.45</course>
  <speed>0.05099019513592785</speed>
  <fix>3d</fix>
</trkpt>
<trkpt lat="21.1656417" lon="-156.8868014">
  <ele>176.48</ele>
  <time>2026-09-01T20:03:03Z</time>
  <course>2.46</course>
  <speed>0.05099019513592785</speed>
  <fix>3d</fix>
</trkpt>
<trkpt lat="21.1656418" lon="-156.8868015">
  <ele>176.04</ele>
  <time>2026-09-01T20:03:03Z</time>
  <course>182.49</course>
  <speed>0.06</speed>
  <fix>3d</fix>
</trkpt>
<trkpt lat="21.1656417" lon="-156.8868014">
  <ele>176.51</ele>
  <time>2026-09-01T20:03:03Z</time>
  <course>2.46</course>
  <speed>0.05099019513592785</speed>
  <fix>3d</fix>
</trkpt>
<trkpt lat="21.1656416" lon="-156.8868014">
  <ele>176.62</ele>
  <time>2026-09-01T20:03:03Z</time>
  <course>2.46</course>
  <speed>0.05099019513592785</speed>
  <fix>3d</fix>
</trkpt>
<trkpt lat="21.1656417" lon="-156.8868015">
  <ele>176.32</ele>
  <time>2026-09-01T20:03:03Z</time>
  <course>183.01</course>
  <speed>0.05</speed>
  <fix>3d</fix>
</trkpt>
<trkpt lat="21.1656416" lon="-156.8868014">
  <ele>176.66</ele>
  <time>2026-09-01T20:03:03Z</time>
  <course>2.46</course>
  <speed>0.0412310562561766</speed>
  <fix>3d</fix>
</trkpt>
<trkpt lat="21.1656416" lon="-156.8868014">
  <ele>176.76</ele>
  <time>2026-09-01T20:03:03Z</time>
  <course>2.46</course>
  <speed>0.0412310562561766</speed>
  <fix>3d</fix>
</trkpt>
<trkpt lat="21.1656417" lon="-156.8868015">
  <ele>176.32</ele>
  <time>2026-09-01T20:03:03Z</time>
  <course>183.01</course>
  <speed>0.05</speed>
  <fix>3d</fix>
</trkpt>
<trkpt lat="21.1656416" lon="-156.8868014">
  <ele>176.8</ele>
  <time>2026-09-01T20:03:03Z</time>
  <course>2.46</course>
  <speed>0.0412310562561766</speed>
  <fix>3d</fix>
</trkpt>
<trkpt lat="21.1656416" lon="-156.8868014">
  <ele>176.91</ele>
  <time>2026-09-01T20:03:03Z</time>
  <course>2.46</course>
  <speed>0.0412310562561766</speed>
  <fix>3d</fix>
</trkpt>
<trkpt lat="21.1656416" lon="-156.8868015">
  <ele>176.61</ele>
  <time>2026-09-01T20:03:03Z</time>
  <course>184.37</course>
  <speed>0.04</speed>
  <fix>3d</fix>
</trkpt>
<trkpt lat="21.1656416" lon="-156.8868014">
  <ele>176.95</ele>
  <time>2026-09-01T20:03:03Z</time>
  <course>2.46</course>
  <speed>0.0316227766016838</speed>
  <fix>3d</fix>
</trkpt>
<trkpt lat="21.1656415" lon="-156.8868014">
  <ele>177.05</ele>
  <time>2026-09-01T20:03:03Z</time>
  <course>2.46</course>
  <speed>0.0316227766016838</speed>
  <fix>3d</fix>
</trkpt>
<trkpt lat="21.1656416" lon="-156.8868015">
  <ele>176.61</ele>
  <time>2026-09-01T20:03:03Z</time>
  <course>184.37</course>
  <speed>0.04</speed>
  <fix>3d</fix>
</trkpt>
<trkpt lat="21.1656415" lon="-156.8868014">
  <ele>177.09</ele>
  <time>2026-09-01T20:03:03Z</time>
  <course>2.46</course>
  <speed>0.0316227766016838</speed>
  <fix>3d</fix>
</trkpt>
<trkpt lat="21.1656415" lon="-156.8868015">
  <ele>177.19</ele>
  <time>2026-09-01T20:03:03Z</time>
  <course>2.46</course>
  <speed>0.0316227766016838</speed>
  <fix>3d</fix>
</trkpt>
<trkpt lat="21.1656416" lon="-156.8868015">
  <ele>176.89</ele>
  <time>2026-09-01T20:03:03Z</time>
  <course>186.85</course>
  <speed>0.03</speed>
  <fix>3d</fix>
</trkpt>
<trkpt lat="21.1656415" lon="-156.8868015">
  <ele>177.23</ele>
  <time>2026-09-01T20:03:03Z</time>
  <course>2.46</course>
  <speed>0.022360679774997897</speed>
  <fix>3d</fix>
</trkpt>
<trkpt lat="21.1656415" lon="-156.8868015">
  <ele>177.34</ele>
  <time>2026-09-01T20:03:03Z</time>
  <course>2.46</course>
  <speed>0.022360679774997897</speed>
  <fix>3d</fix>
</trkpt>
<trkpt lat="21.1656416" lon="-156.8868015">
  <ele>176.89</ele>
  <time>2026-09-01T20:03:03Z</time>
  <course>186.85</course>
  <speed>0.03</speed>
  <fix>3d</fix>
</trkpt>
<trkpt lat="21.1656415" lon="-156.8868015">
  <ele>177.34</ele>
  <time>2026-09-01T20:03:03Z</time>
  <course>2.46</course>
  <speed>0.022360679774997897</speed>
  <fix>3d</fix>
</trkpt>
<trkpt lat="21.1656415" lon="-156.8868015">
  <ele>177.48</ele>
  <time>2026-09-01T20:03:03Z</time>
  <course>2.46</course>
  <speed>0.01414213562373095</speed>
  <fix>3d</fix>
</trkpt>
<trkpt lat="21.1656415" lon="-156.8868015">
  <ele>177.18</ele>
  <time>2026-09-01T20:03:03Z</time>
  <course>192.36</course>
  <speed>0.02</speed>
  <fix>3d</fix>
</trkpt>
<trkpt lat="21.1656415" lon="-156.8868015">
  <ele>177.49</ele>
  <time>2026-09-01T20:03:03Z</time>
  <course>2.46</course>
  <speed>0.01414213562373095</speed>
  <fix>3d</fix>
</trkpt>
<trkpt lat="21.1656415" lon="-156.8868015">
  <ele>177.63</ele>
  <time>2026-09-01T20:03:03Z</time>
  <course>2.47</course>
  <speed>0.01414213562373095</speed>
  <fix>3d</fix>
</trkpt>
<trkpt lat="21.1656415" lon="-156.8868015">
  <ele>177.18</ele>
  <time>2026-09-01T20:03:03Z</time>
  <course>192.36</course>
  <speed>0.02</speed>
  <fix>3d</fix>
</trkpt>
<trkpt lat="21.1656415" lon="-156.8868015">
  <ele>177.63</ele>
  <time>2026-09-01T20:03:03Z</time>
  <course>2.47</course>
  <speed>0.01414213562373095</speed>
  <fix>3d</fix>
</trkpt>
<trkpt lat="21.1656415" lon="-156.8868015">
  <ele>177.77</ele>
  <time>2026-09-01T20:03:03Z</time>
  <course>2.48</course>
  <speed>0.0</speed>
  <fix>3d</fix>
</trkpt>
<trkpt lat="21.1656415" lon="-156.8868015">
  <ele>177.47</ele>
  <time>2026-09-01T20:03:03Z</time>
  <course>210.53</course>
  <speed>0.01</speed>
  <fix>3d</fix>
</trkpt>
<trkpt lat="21.1656415" lon="-156.8868015">
  <ele>177.77</ele>
  <time>2026-09-01T20:03:03Z</time>
  <course>2.48</course>
  <speed>0.0</speed>
  <fix>3d</fix>
</trkpt>
<trkpt lat="21.1656415" lon="-156.8868015">
  <ele>177.91</ele>
  <time>2026-09-01T20:03:03Z</time>
  <course>2.49</course>
  <speed>0.0</speed>
  <fix>3d</fix>
</trkpt>
<trkpt lat="21.1656415" lon="-156.8868015">
  <ele>177.47</ele>
  <time>2026-09-01T20:03:03Z</time>
  <course>210.53</course>
  <speed>0.01</speed>
  <fix>3d</fix>
</trkpt>
<trkpt lat="21.1656415" lon="-156.8868015">
  <ele>177.95</ele>
  <time>2026-09-01T20:03:03Z</time>
  <course>2.5</course>
  <speed>0.0</speed>
  <fix>3d</fix>
</trkpt>
<trkpt lat="21.1656415" lon="-156.8868015">
  <ele>178.05</ele>
  <time>2026-09-01T20:03:03Z</time>
  <course>2.5</course>
  <speed>0.0</speed>
  <fix>3d</fix>
</trkpt>
<trkpt lat="21.1656415" lon="-156.8868015">
  <ele>177.76</ele>
  <time>2026-09-01T20:03:03Z</time>
  <course>282.58</course>
  <speed>0.0</speed>
  <fix>3d</fix>
</trkpt>
<trkpt lat="21.1656415" lon="-156.8868015">
  <ele>178.09</ele>
  <time>2026-09-01T20:03:03Z</time>
  <course>2.51</course>
  <speed>0.0</speed>
  <fix>3d</fix>
</trkpt>
<trkpt lat="21.1656415" lon="-156.8868015">
  <ele>178.2</ele>
  <time>2026-09-01T20:03:03Z</time>
  <course>2.52</course>
  <speed>0.0</speed>
  <fix>3d</fix>
</trkpt>
<trkpt lat="21.1656415" lon="-156.8868015">
  <ele>177.76</ele>
  <time>2026-09-01T20:03:03Z</time>
  <course>282.58</course>
  <speed>0.0</speed>
  <fix>3d</fix>
</trkpt>
<trkpt lat="21.1656415" lon="-156.8868015">
  <ele>178.24</ele>
  <time>2026-09-01T20:03:03Z</time>
  <course>2.52</course>
  <speed>0.0</speed>
  <fix>3d</fix>
</trkpt>
<trkpt lat="21.1656415" lon="-156.8868015">
  <ele>178.34</ele>
  <time>2026-09-01T20:03:03Z</time>
  <course>2.52</course>
  <speed>0.0</speed>
  <fix>3d</fix>
</trkpt>
<trkpt lat="21.1656415" lon="-156.8868015">
  <ele>178.05</ele>
  <time>2026-09-01T20:03:03Z</time>
  <course>325.09</course>
  <speed>0.01</speed>
  <fix>3d</fix>
</trkpt>
<trkpt lat="21.1656415" lon="-156.8868015">
  <ele>178.38</ele>
  <time>2026-09-01T20:03:03Z</time>
  <course>2.53</course>
  <speed>0.0</speed>
  <fix>3d</fix>
</trkpt>
<trkpt lat="21.1656415" lon="-156.8868015">
  <ele>178.49</ele>
  <time>2026-09-01T20:03:03Z</time>
  <course>2.53</course>
  <speed>0.0</speed>
  <fix>3d</fix>
</trkpt>
<trkpt lat="21.1656415" lon="-156.8868015">
  <ele>178.05</ele>
  <time>2026-09-01T20:03:03Z</time>
  <course>325.09</course>
  <speed>0.01</speed>
  <fix>3d</fix>
</trkpt>
<trkpt lat="21.1656415" lon="-156.8868015">
  <ele>178.54</ele>
  <time>2026-09-01T20:03:03Z</time>
  <course>2.54</course>
  <speed>0.0</speed>
  <fix>3d</fix>
</trkpt>
<trkpt lat="21.1656415" lon="-156.8868015">
  <ele>178.63</ele>
  <time>2026-09-01T20:03:03Z</time>
  <course>2.54</course>
  <speed>0.01</speed>
  <fix>3d</fix>
</trkpt>
<trkpt lat="21.1656415" lon="-156.8868015">
  <ele>178.33</ele>
  <time>2026-09-01T20:03:03Z</time>
  <course>336.72</course>
  <speed>0.01</speed>
  <fix>3d</fix>
</trkpt>
<trkpt lat="21.1656415" lon="-156.8868015">
  <ele>178.67</ele>
  <time>2026-09-01T20:03:03Z</time>
  <course>2.55</course>
  <speed>0.01</speed>
  <fix>3d</fix>
</trkpt>
<trkpt lat="21.1656415" lon="-156.8868015">
  <ele>178.78</ele>
  <time>2026-09-01T20:03:03Z</time>
  <course>2.56</course>
  <speed>0.01</speed>
  <fix>3d</fix>
</trkpt>
<trkpt lat="21.1656415" lon="-156.8868015">
  <ele>178.33</ele>
  <time>2026-09-01T20:03:03Z</time>
  <course>336.72</course>
  <speed>0.01</speed>
  <fix>3d</fix>
</trkpt>
<trkpt lat="21.1656415" lon="-156.8868015">
  <ele>178.81</ele>
  <time>2026-09-01T20:03:03Z</time>
  <course>2.57</course>
  <speed>0.01</speed>
  <fix>3d</fix>
</trkpt>
<trkpt lat="21.1656415" lon="-156.8868015">
  <ele>178.92</ele>
  <time>2026-09-01T20:03:03Z</time>
  <course>2.58</course>
  <speed>0.01</speed>
  <fix>3d</fix>
</trkpt>
<trkpt lat="21.1656416" lon="-156.8868016">
  <ele>178.62</ele>
  <time>2026-09-01T20:03:03Z</time>
  <course>342.6</course>
  <speed>0.02</speed>
  <fix>3d</fix>
</trkpt>
<trkpt lat="21.1656415" lon="-156.8868015">
  <ele>178.93</ele>
  <time>2026-09-01T20:03:03Z</time>
  <course>2.58</course>
  <speed>0.01</speed>
  <fix>3d</fix>
</trkpt>
<trkpt lat="21.1656415" lon="-156.8868015">
  <ele>179.06</ele>
  <time>2026-09-01T20:03:03Z</time>
  <course>2.59</course>
  <speed>0.01</speed>
  <fix>3d</fix>
</trkpt>
<trkpt lat="21.1656416" lon="-156.8868016">
  <ele>178.62</ele>
  <time>2026-09-01T20:03:03Z</time>
  <course>342.6</course>
  <speed>0.02</speed>
  <fix>3d</fix>
</trkpt>
<trkpt lat="21.1656415" lon="-156.8868015">
  <ele>179.07</ele>
  <time>2026-09-01T20:03:03Z</time>
  <course>2.59</course>
  <speed>0.01</speed>
  <fix>3d</fix>
</trkpt>
<trkpt lat="21.1656415" lon="-156.8868015">
  <ele>179.21</ele>
  <time>2026-09-01T20:03:03Z</time>
  <course>2.59</course>
  <speed>0.01</speed>
  <fix>3d</fix>
</trkpt>
<trkpt lat="21.1656416" lon="-156.8868017">
  <ele>178.91</ele>
  <time>2026-09-01T20:03:03Z</time>
  <course>344.97</course>
  <speed>0.03</speed>
  <fix>3d</fix>
</trkpt>
<trkpt lat="21.1656415" lon="-156.8868015">
  <ele>179.25</ele>
  <time>2026-09-01T20:03:03Z</time>
  <course>2.59</course>
  <speed>0.01</speed>
  <fix>3d</fix>
</trkpt>
<trkpt lat="21.1656416" lon="-156.8868015">
  <ele>179.35</ele>
  <time>2026-09-01T20:03:03Z</time>
  <course>2.59</course>
  <speed>0.02</speed>
  <fix>3d</fix>
</trkpt>
<trkpt lat="21.1656416" lon="-156.8868017">
  <ele>178.91</ele>
  <time>2026-09-01T20:03:03Z</time>
  <course>344.97</course>
  <speed>0.03</speed>
  <fix>3d</fix>
</trkpt>
<trkpt lat="21.1656416" lon="-156.8868015">
  <ele>179.39</ele>
  <time>2026-09-01T20:03:03Z</time>
  <course>2.59</course>
  <speed>0.02</speed>
  <fix>3d</fix>
</trkpt>
<trkpt lat="21.1656416" lon="-156.8868015">
  <ele>179.49</ele>
  <time>2026-09-01T20:03:03Z</time>
  <course>2.59</course>
  <speed>0.02</speed>
  <fix>3d</fix>
</trkpt>
<trkpt lat="21.1656416" lon="-156.8868017">
  <ele>179.2</ele>
  <time>2026-09-01T20:03:03Z</time>
  <course>346.07</course>
  <speed>0.03</speed>
  <fix>3d</fix>
</trkpt>
<trkpt lat="21.1656416" lon="-156.8868015">
  <ele>179.53</ele>
  <time>2026-09-01T20:03:03Z</time>
  <course>2.59</course>
  <speed>0.02</speed>
  <fix>3d</fix>
</trkpt>
<trkpt lat="21.1656416" lon="-156.8868015">
  <ele>179.64</ele>
  <time>2026-09-01T20:03:03Z</time>
  <course>2.6</course>
  <speed>0.02</speed>
  <fix>3d</fix>
</trkpt>
<trkpt lat="21.1656416" lon="-156.8868017">
  <ele>179.2</ele>
  <time>2026-09-01T20:03:03Z</time>
  <course>346.07</course>
  <speed>0.03</speed>
  <fix>3d</fix>
</trkpt>
<trkpt lat="21.1656416" lon="-156.8868015">
  <ele>179.67</ele>
  <time>2026-09-01T20:03:03Z</time>
  <course>2.6</course>
  <speed>0.02</speed>
  <fix>3d</fix>
</trkpt>
<trkpt lat="21.1656416" lon="-156.8868015">
  <ele>179.78</ele>
  <time>2026-09-01T20:03:03Z</time>
  <course>2.6</course>
  <speed>0.02</speed>
  <fix>3d</fix>
</trkpt>
<trkpt lat="21.1656416" lon="-156.8868017">
  <ele>179.48</ele>
  <time>2026-09-01T20:03:03Z</time>
  <course>347.69</course>
  <speed>0.03</speed>
  <fix>3d</fix>
</trkpt>
<trkpt lat="21.1656416" lon="-156.8868015">
  <ele>179.78</ele>
  <time>2026-09-01T20:03:03Z</time>
  <course>2.6</course>
  <speed>0.02</speed>
  <fix>3d</fix>
</trkpt>
<trkpt lat="21.1656417" lon="-156.8868015">
  <ele>179.92</ele>
  <time>2026-09-01T20:03:03Z</time>
  <course>2.61</course>
  <speed>0.02</speed>
  <fix>3d</fix>
</trkpt>
<trkpt lat="21.1656416" lon="-156.8868017">
  <ele>179.48</ele>
  <time>2026-09-01T20:03:03Z</time>
  <course>347.69</course>
  <speed>0.03</speed>
  <fix>3d</fix>
</trkpt>
<trkpt lat="21.1656417" lon="-156.8868015">
  <ele>179.96</ele>
  <time>2026-09-01T20:03:03Z</time>
  <course>2.61</course>
  <speed>0.02</speed>
  <fix>3d</fix>
</trkpt>
<trkpt lat="21.1656417" lon="-156.8868015">
  <ele>180.06</ele>
  <time>2026-09-01T20:03:03Z</time>
  <course>2.62</course>
  <speed>0.02</speed>
  <fix>3d</fix>
</trkpt>
<trkpt lat="21.1656417" lon="-156.8868017">
  <ele>179.77</ele>
  <time>2026-09-01T20:03:03Z</time>
  <course>349.63</course>
  <speed>0.03</speed>
  <fix>3d</fix>
</trkpt>
<trkpt lat="21.1656417" lon="-156.8868016">
  <ele>180.1</ele>
  <time>2026-09-01T20:03:03Z</time>
  <course>2.62</course>
  <speed>0.02</speed>
  <fix>3d</fix>
</trkpt>
<trkpt lat="21.1656417" lon="-156.8868016">
  <ele>180.2</ele>
  <time>2026-09-01T20:03:03Z</time>
  <course>2.63</course>
  <speed>0.02</speed>
  <fix>3d</fix>
</trkpt>
<trkpt lat="21.1656417" lon="-156.8868017">
  <ele>179.77</ele>
  <time>2026-09-01T20:03:03Z</time>
  <course>349.63</course>
  <speed>0.03</speed>
  <fix>3d</fix>
</trkpt>
<trkpt lat="21.1656417" lon="-156.8868016">
  <ele>180.25</ele>
  <time>2026-09-01T20:03:03Z</time>
  <course>2.63</course>
  <speed>0.02</speed>
  <fix>3d</fix>
</trkpt>
<trkpt lat="21.1656417" lon="-156.8868016">
  <ele>180.34</ele>
  <time>2026-09-01T20:03:03Z</time>
  <course>2.64</course>
  <speed>0.02</speed>
  <fix>3d</fix>
</trkpt>
<trkpt lat="21.1656418" lon="-156.8868017">
  <ele>180.06</ele>
  <time>2026-09-01T20:03:03Z</time>
  <course>351.59</course>
  <speed>0.04</speed>
  <fix>3d</fix>
</trkpt>
<trkpt lat="21.1656417" lon="-156.8868016">
  <ele>180.35</ele>
  <time>2026-09-01T20:03:03Z</time>
  <course>2.64</course>
  <speed>0.02</speed>
  <fix>3d</fix>
</trkpt>
<trkpt lat="21.1656418" lon="-156.8868016">
  <ele>180.49</ele>
  <time>2026-09-01T20:03:03Z</time>
  <course>2.65</course>
  <speed>0.02</speed>
  <fix>3d</fix>
</trkpt>
<trkpt lat="21.1656418" lon="-156.8868017">
  <ele>180.06</ele>
  <time>2026-09-01T20:03:03Z</time>
  <course>351.59</course>
  <speed>0.04</speed>
  <fix>3d</fix>
</trkpt>
<trkpt lat="21.1656418" lon="-156.8868016">
  <ele>180.5</ele>
  <time>2026-09-01T20:03:03Z</time>
  <course>2.65</course>
  <speed>0.02</speed>
  <fix>3d</fix>
</trkpt>
<trkpt lat="21.1656418" lon="-156.8868016">
  <ele>180.63</ele>
  <time>2026-09-01T20:03:03Z</time>
  <course>2.66</course>
  <speed>0.02</speed>
  <fix>3d</fix>
</trkpt>
<trkpt lat="21.1656418" lon="-156.8868017">
  <ele>180.34</ele>
  <time>2026-09-01T20:03:03Z</time>
  <course>353.74</course>
  <speed>0.04</speed>
  <fix>3d</fix>
</trkpt>
<trkpt lat="21.1656418" lon="-156.8868016">
  <ele>180.67</ele>
  <time>2026-09-01T20:03:03Z</time>
  <course>2.66</course>
  <speed>0.02</speed>
  <fix>3d</fix>
</trkpt>
<trkpt lat="21.1656418" lon="-156.8868016">
  <ele>180.78</ele>
  <time>2026-09-01T20:03:03Z</time>
  <course>2.66</course>
  <speed>0.02</speed>
  <fix>3d</fix>
</trkpt>
<trkpt lat="21.1656418" lon="-156.8868017">
  <ele>180.34</ele>
  <time>2026-09-01T20:03:03Z</time>
  <course>353.74</course>
  <speed>0.04</speed>
  <fix>3d</fix>
</trkpt>
<trkpt lat="21.1656418" lon="-156.8868016">
  <ele>180.81</ele>
  <time>2026-09-01T20:03:03Z</time>
  <course>2.66</course>
  <speed>0.02</speed>
  <fix>3d</fix>
</trkpt>
<trkpt lat="21.1656419" lon="-156.8868016">
  <ele>180.92</ele>
  <time>2026-09-01T20:03:03Z</time>
  <course>2.67</course>
  <speed>0.02</speed>
  <fix>3d</fix>
</trkpt>
<trkpt lat="21.1656419" lon="-156.8868017">
  <ele>180.63</ele>
  <time>2026-09-01T20:03:03Z</time>
  <course>356.07</course>
  <speed>0.04</speed>
  <fix>3d</fix>
</trkpt>
<trkpt lat="21.1656419" lon="-156.8868016">
  <ele>180.96</ele>
  <time>2026-09-01T20:03:03Z</time>
  <course>2.67</course>
  <speed>0.02</speed>
  <fix>3d</fix>
</trkpt>
<trkpt lat="21.1656419" lon="-156.8868016">
  <ele>181.07</ele>
  <time>2026-09-01T20:03:03Z</time>
  <course>2.68</course>
  <speed>0.02</speed>
  <fix>3d</fix>
</trkpt>
<trkpt lat="21.1656419" lon="-156.8868017">
  <ele>180.63</ele>
  <time>2026-09-01T20:03:03Z</time>
  <course>356.07</course>
  <speed>0.04</speed>
  <fix>3d</fix>
</trkpt>
<trkpt lat="21.1656419" lon="-156.8868016">
  <ele>181.11</ele>
  <time>2026-09-01T20:03:03Z</time>
  <course>2.69</course>
  <speed>0.02</speed>
  <fix>3d</fix>
</trkpt>
<trkpt lat="21.1656419" lon="-156.8868016">
  <ele>181.21</ele>
  <time>2026-09-01T20:03:03Z</time>
  <course>2.7</course>
  <speed>0.02</speed>
  <fix>3d</fix>
</trkpt>
<trkpt lat="21.165642" lon="-156.8868017">
  <ele>180.92</ele>
  <time>2026-09-01T20:03:03Z</time>
  <course>358.38</course>
  <speed>0.04</speed>
  <fix>3d</fix>
</trkpt>
<trkpt lat="21.1656419" lon="-156.8868016">
  <ele>181.26</ele>
  <time>2026-09-01T20:03:03Z</time>
  <course>2.7</course>
  <speed>0.02</speed>
  <fix>3d</fix>
</trkpt>
<trkpt lat="21.165642" lon="-156.8868016">
  <ele>181.36</ele>
  <time>2026-09-01T20:03:03Z</time>
  <course>2.72</course>
  <speed>0.02</speed>
  <fix>3d</fix>
</trkpt>
<trkpt lat="21.165642" lon="-156.8868017">
  <ele>180.92</ele>
  <time>2026-09-01T20:03:03Z</time>
  <course>358.38</course>
  <speed>0.04</speed>
  <fix>3d</fix>
</trkpt>
<trkpt lat="21.165642" lon="-156.8868016">
  <ele>181.4</ele>
  <time>2026-09-01T20:03:03Z</time>
  <course>2.72</course>
  <speed>0.02</speed>
  <fix>3d</fix>
</trkpt>
<trkpt lat="21.165642" lon="-156.8868016">
  <ele>181.51</ele>
  <time>2026-09-01T20:03:03Z</time>
  <course>2.74</course>
  <speed>0.02</speed>
  <fix>3d</fix>
</trkpt>
<trkpt lat="21.1656421" lon="-156.8868017">
  <ele>181.21</ele>
  <time>2026-09-01T20:03:03Z</time>
  <course>0.27</course>
  <speed>0.04</speed>
  <fix>3d</fix>
</trkpt>
<trkpt lat="21.165642" lon="-156.8868016">
  <ele>181.55</ele>
  <time>2026-09-01T20:03:03Z</time>
  <course>2.74</course>
  <speed>0.02</speed>
  <fix>3d</fix>
</trkpt>
<trkpt lat="21.165642" lon="-156.8868016">
  <ele>181.65</ele>
  <time>2026-09-01T20:03:03Z</time>
  <course>2.75</course>
  <speed>0.02</speed>
  <fix>3d</fix>
</trkpt>
<trkpt lat="21.1656421" lon="-156.8868017">
  <ele>181.21</ele>
  <time>2026-09-01T20:03:03Z</time>
  <course>0.27</course>
  <speed>0.04</speed>
  <fix>3d</fix>
</trkpt>
<trkpt lat="21.165642" lon="-156.8868016">
  <ele>181.69</ele>
  <time>2026-09-01T20:03:03Z</time>
  <course>2.75</course>
  <speed>0.02</speed>
  <fix>3d</fix>
</trkpt>
<trkpt lat="21.1656421" lon="-156.8868016">
  <ele>181.8</ele>
  <time>2026-09-01T20:03:03Z</time>
  <course>2.76</course>
  <speed>0.02</speed>
  <fix>3d</fix>
</trkpt>
<trkpt lat="21.1656421" lon="-156.8868017">
  <ele>181.5</ele>
  <time>2026-09-01T20:03:03Z</time>
  <course>1.09</course>
  <speed>0.04</speed>
  <fix>3d</fix>
</trkpt>
<trkpt lat="21.1656421" lon="-156.8868016">
  <ele>181.8</ele>
  <time>2026-09-01T20:03:03Z</time>
  <course>2.76</course>
  <speed>0.02</speed>
  <fix>3d</fix>
</trkpt>
<trkpt lat="21.1656421" lon="-156.8868016">
  <ele>181.94</ele>
  <time>2026-09-01T20:03:03Z</time>
  <course>2.76</course>
  <speed>0.02</speed>
  <fix>3d</fix>
</trkpt>
<trkpt lat="21.1656421" lon="-156.8868017">
  <ele>181.5</ele>
  <time>2026-09-01T20:03:03Z</time>
  <course>1.09</course>
  <speed>0.04</speed>
  <fix>3d</fix>
</trkpt>
<trkpt lat="21.1656421" lon="-156.8868016">
  <ele>181.94</ele>
  <time>2026-09-01T20:03:03Z</time>
  <course>2.76</course>
  <speed>0.02</speed>
  <fix>3d</fix>
</trkpt>
<trkpt lat="21.1656421" lon="-156.8868016">
  <ele>182.08</ele>
  <time>2026-09-01T20:03:03Z</time>
  <course>2.77</course>
  <speed>0.02</speed>
  <fix>3d</fix>
</trkpt>
<trkpt lat="21.1656422" lon="-156.8868017">
  <ele>181.79</ele>
  <time>2026-09-01T20:03:03Z</time>
  <course>1.71</course>
  <speed>0.04</speed>
  <fix>3d</fix>
</trkpt>
<trkpt lat="21.1656421" lon="-156.8868016">
  <ele>182.09</ele>
  <time>2026-09-01T20:03:03Z</time>
  <course>2.77</course>
  <speed>0.02</speed>
  <fix>3d</fix>
</trkpt>
<trkpt lat="21.1656422" lon="-156.8868016">
  <ele>182.23</ele>
  <time>2026-09-01T20:03:03Z</time>
  <course>2.77</course>
  <speed>0.02</speed>
  <fix>3d</fix>
</trkpt>
<trkpt lat="21.1656422" lon="-156.8868017">
  <ele>181.79</ele>
  <time>2026-09-01T20:03:03Z</time>
  <course>1.71</course>
  <speed>0.04</speed>
  <fix>3d</fix>
</trkpt>
<trkpt lat="21.1656422" lon="-156.8868016">
  <ele>182.27</ele>
  <time>2026-09-01T20:03:03Z</time>
  <course>2.77</course>
  <speed>0.02</speed>
  <fix>3d</fix>
</trkpt>
<trkpt lat="21.1656422" lon="-156.8868016">
  <ele>182.37</ele>
  <time>2026-09-01T20:03:03Z</time>
  <course>2.77</course>
  <speed>0.01</speed>
  <fix>3d</fix>
</trkpt>
<trkpt lat="21.1656423" lon="-156.8868017">
  <ele>182.08</ele>
  <time>2026-09-01T20:03:03Z</time>
  <course>3.03</course>
  <speed>0.04</speed>
  <fix>3d</fix>
</trkpt>
<trkpt lat="21.1656422" lon="-156.8868016">
  <ele>182.41</ele>
  <time>2026-09-01T20:03:03Z</time>
  <course>2.78</course>
  <speed>0.01</speed>
  <fix>3d</fix>
</trkpt>
<trkpt lat="21.1656422" lon="-156.8868016">
  <ele>182.51</ele>
  <time>2026-09-01T20:03:03Z</time>
  <course>2.78</course>
  <speed>0.01</speed>
  <fix>3d</fix>
</trkpt>
<trkpt lat="21.1656423" lon="-156.8868017">
  <ele>182.08</ele>
  <time>2026-09-01T20:03:03Z</time>
  <course>3.03</course>
  <speed>0.04</speed>
  <fix>3d</fix>
</trkpt>
<trkpt lat="21.1656422" lon="-156.8868016">
  <ele>182.55</ele>
  <time>2026-09-01T20:03:03Z</time>
  <course>2.78</course>
  <speed>0.01</speed>
  <fix>3d</fix>
</trkpt>
<trkpt lat="21.1656423" lon="-156.8868016">
  <ele>182.66</ele>
  <time>2026-09-01T20:03:03Z</time>
  <course>2.78</course>
  <speed>0.01</speed>
  <fix>3d</fix>
</trkpt>
<trkpt lat="21.1656424" lon="-156.8868017">
  <ele>182.36</ele>
  <time>2026-09-01T20:03:03Z</time>
  <course>4.66</course>
  <speed>0.03</speed>
  <fix>3d</fix>
</trkpt>
<trkpt lat="21.1656423" lon="-156.8868016">
  <ele>182.69</ele>
  <time>2026-09-01T20:03:03Z</time>
  <course>2.78</course>
  <speed>0.01</speed>
  <fix>3d</fix>
</trkpt>
<trkpt lat="21.1656423" lon="-156.8868016">
  <ele>182.8</ele>
  <time>2026-09-01T20:03:03Z</time>
  <course>2.78</course>
  <speed>0.01</speed>
  <fix>3d</fix>
</trkpt>
<trkpt lat="21.1656424" lon="-156.8868017">
  <ele>182.36</ele>
  <time>2026-09-01T20:03:03Z</time>
  <course>4.66</course>
  <speed>0.03</speed>
  <fix>3d</fix>
</trkpt>
<trkpt lat="21.1656423" lon="-156.8868016">
  <ele>182.83</ele>
  <time>2026-09-01T20:03:03Z</time>
  <course>2.78</course>
  <speed>0.01</speed>
  <fix>3d</fix>
</trkpt>
<trkpt lat="21.1656423" lon="-156.8868016">
  <ele>182.94</ele>
  <time>2026-09-01T20:03:03Z</time>
  <course>2.78</course>
  <speed>0.01</speed>
  <fix>3d</fix>
</trkpt>
<trkpt lat="21.1656424" lon="-156.8868017">
  <ele>182.65</ele>
  <time>2026-09-01T20:03:03Z</time>
  <course>5.95</course>
  <speed>0.03</speed>
  <fix>3d</fix>
</trkpt>
<trkpt lat="21.1656423" lon="-156.8868016">
  <ele>182.98</ele>
  <time>2026-09-01T20:03:03Z</time>
  <course>2.78</course>
  <speed>0.01</speed>
  <fix>3d</fix>
</trkpt>
<trkpt lat="21.1656423" lon="-156.8868016">
  <ele>183.07</ele>
  <time>2026-09-01T20:03:03Z</time>
  <course>2.79</course>
  <speed>0.01</speed>
  <fix>3d</fix>
</trkpt>
<trkpt lat="21.1656424" lon="-156.8868017">
  <ele>182.65</ele>
  <time>2026-09-01T20:03:03Z</time>
  <course>5.95</course>
  <speed>0.03</speed>
  <fix>3d</fix>
</trkpt>
<trkpt lat="21.1656423" lon="-156.8868016">
  <ele>183.11</ele>
  <time>2026-09-01T20:03:03Z</time>
  <course>2.79</course>
  <speed>0.01</speed>
  <fix>3d</fix>
</trkpt>
<trkpt lat="21.1656424" lon="-156.8868016">
  <ele>183.21</ele>
  <time>2026-09-01T20:03:03Z</time>
  <course>2.79</course>
  <speed>0.0</speed>
  <fix>3d</fix>
</trkpt>
<trkpt lat="21.1656425" lon="-156.8868017">
  <ele>182.94</ele>
  <time>2026-09-01T20:03:03Z</time>
  <course>6.23</course>
  <speed>0.03</speed>
  <fix>3d</fix>
</trkpt>
<trkpt lat="21.1656424" lon="-156.8868016">
  <ele>183.25</ele>
  <time>2026-09-01T20:03:03Z</time>
  <course>2.79</course>
  <speed>0.0</speed>
  <fix>3d</fix>
</trkpt>
<trkpt lat="21.1656424" lon="-156.8868016">
  <ele>183.35</ele>
  <time>2026-09-01T20:03:03Z</time>
  <course>2.79</course>
  <speed>0.0</speed>
  <fix>3d</fix>
</trkpt>
<trkpt lat="21.1656425" lon="-156.8868017">
  <ele>182.94</ele>
  <time>2026-09-01T20:03:03Z</time>
  <course>6.23</course>
  <speed>0.03</speed>
  <fix>3d</fix>
</trkpt>
<trkpt lat="21.1656424" lon="-156.8868016">
  <ele>183.39</ele>
  <time>2026-09-01T20:03:03Z</time>
  <course>2.79</course>
  <speed>0.0</speed>
  <fix>3d</fix>
</trkpt>
<trkpt lat="21.1656424" lon="-156.8868016">
  <ele>183.5</ele>
  <time>2026-09-01T20:03:03Z</time>
  <course>2.79</course>
  <speed>0.0</speed>
  <fix>3d</fix>
</trkpt>
<trkpt lat="21.1656425" lon="-156.8868017">
  <ele>183.22</ele>
  <time>2026-09-01T20:03:03Z</time>
  <course>6.26</course>
  <speed>0.02</speed>
  <fix>3d</fix>
</trkpt>
<trkpt lat="21.1656424" lon="-156.8868016">
  <ele>183.5</ele>
  <time>2026-09-01T20:03:03Z</time>
  <course>2.79</course>
  <speed>0.0</speed>
  <fix>3d</fix>
</trkpt>
<trkpt lat="21.1656424" lon="-156.8868016">
  <ele>183.64</ele>
  <time>2026-09-01T20:03:03Z</time>
  <course>2.79</course>
  <speed>0.0</speed>
  <fix>3d</fix>
</trkpt>
<trkpt lat="21.1656425" lon="-156.8868017">
  <ele>183.22</ele>
  <time>2026-09-01T20:03:03Z</time>
  <course>6.26</course>
  <speed>0.02</speed>
  <fix>3d</fix>
</trkpt>
<trkpt lat="21.1656424" lon="-156.8868016">
  <ele>183.64</ele>
  <time>2026-09-01T20:03:03Z</time>
  <course>2.79</course>
  <speed>0.0</speed>
  <fix>3d</fix>
</trkpt>
<trkpt lat="21.1656424" lon="-156.8868016">
  <ele>183.78</ele>
  <time>2026-09-01T20:03:03Z</time>
  <course>2.79</course>
  <speed>0.0</speed>
  <fix>3d</fix>
</trkpt>
<trkpt lat="21.1656425" lon="-156.8868017">
  <ele>183.51</ele>
  <time>2026-09-01T20:03:03Z</time>
  <course>6.96</course>
  <speed>0.02</speed>
  <fix>3d</fix>
</trkpt>
<trkpt lat="21.1656424" lon="-156.8868016">
  <ele>183.82</ele>
  <time>2026-09-01T20:03:03Z</time>
  <course>2.79</course>
  <speed>0.0</speed>
  <fix>3d</fix>
</trkpt>
<trkpt lat="21.1656425" lon="-156.8868016">
  <ele>183.93</ele>
  <time>2026-09-01T20:03:03Z</time>
  <course>2.79</course>
  <speed>0.0</speed>
  <fix>3d</fix>
</trkpt>
<trkpt lat="21.1656425" lon="-156.8868017">
  <ele>183.51</ele>
  <time>2026-09-01T20:03:03Z</time>
  <course>6.96</course>
  <speed>0.02</speed>
  <fix>3d</fix>
</trkpt>
<trkpt lat="21.1656425" lon="-156.8868016">
  <ele>183.93</ele>
  <time>2026-09-01T20:03:03Z</time>
  <course>2.79</course>
  <speed>0.0</speed>
  <fix>3d</fix>
</trkpt>
<trkpt lat="21.1656425" lon="-156.8868016">
  <ele>184.07</ele>
  <time>2026-09-01T20:03:03Z</time>
  <course>2.79</course>
  <speed>0.0</speed>
  <fix>3d</fix>
</trkpt>
<trkpt lat="21.1656426" lon="-156.8868017">
  <ele>183.8</ele>
  <time>2026-09-01T20:03:03Z</time>
  <course>8.87</course>
  <speed>0.01</speed>
  <fix>3d</fix>
</trkpt>
<trkpt lat="21.1656425" lon="-156.8868016">
  <ele>184.12</ele>
  <time>2026-09-01T20:03:03Z</time>
  <course>2.79</course>
  <speed>0.0</speed>
  <fix>3d</fix>
</trkpt>
<trkpt lat="21.1656425" lon="-156.8868016">
  <ele>184.21</ele>
  <time>2026-09-01T20:03:03Z</time>
  <course>2.79</course>
  <speed>0.0</speed>
  <fix>3d</fix>
</trkpt>
<trkpt lat="21.1656426" lon="-156.8868017">
  <ele>183.8</ele>
  <time>2026-09-01T20:03:03Z</time>
  <course>8.87</course>
  <speed>0.01</speed>
  <fix>3d</fix>
</trkpt>
<trkpt lat="21.1656425" lon="-156.8868016">
  <ele>184.26</ele>
  <time>2026-09-01T20:03:03Z</time>
  <course>2.79</course>
  <speed>0.0</speed>
  <fix>3d</fix>
</trkpt>
<trkpt lat="21.1656425" lon="-156.8868016">
  <ele>184.36</ele>
  <time>2026-09-01T20:03:03Z</time>
  <course>2.8</course>
  <speed>0.0</speed>
  <fix>3d</fix>
</trkpt>
<trkpt lat="21.1656427" lon="-156.8868017">
  <ele>184.09</ele>
  <time>2026-09-01T20:03:03Z</time>
  <course>13.82</course>
  <speed>0.01</speed>
  <fix>3d</fix>
</trkpt>
<trkpt lat="21.1656425" lon="-156.8868016">
  <ele>184.4</ele>
  <time>2026-09-01T20:03:03Z</time>
  <course>2.8</course>
  <speed>0.0</speed>
  <fix>3d</fix>
</trkpt>
<trkpt lat="21.1656425" lon="-156.8868016">
  <ele>184.5</ele>
  <time>2026-09-01T20:03:03Z</time>
  <course>2.81</course>
  <speed>0.0</speed>
  <fix>3d</fix>
</trkpt>
<trkpt lat="21.1656427" lon="-156.8868017">
  <ele>184.09</ele>
  <time>2026-09-01T20:03:03Z</time>
  <course>13.82</course>
  <speed>0.01</speed>
  <fix>3d</fix>
</trkpt>
<trkpt lat="21.1656425" lon="-156.8868016">
  <ele>184.54</ele>
  <time>2026-09-01T20:03:03Z</time>
  <course>2.82</course>
  <speed>0.0</speed>
  <fix>3d</fix>
</trkpt>
<trkpt lat="21.1656425" lon="-156.8868016">
  <ele>184.65</ele>
  <time>2026-09-01T20:03:03Z</time>
  <course>2.82</course>
  <speed>0.0</speed>
  <fix>3d</fix>
</trkpt>
<trkpt lat="21.1656427" lon="-156.8868017">
  <ele>184.38</ele>
  <time>2026-09-01T20:03:03Z</time>
  <course>18.9</course>
  <speed>0.01</speed>
  <fix>3d</fix>
</trkpt>
<trkpt lat="21.1656425" lon="-156.8868016">
  <ele>184.69</ele>
  <time>2026-09-01T20:03:03Z</time>
  <course>2.82</course>
  <speed>0.0</speed>
  <fix>3d</fix>
</trkpt>
<trkpt lat="21.1656425" lon="-156.8868016">
  <ele>184.79</ele>
  <time>2026-09-01T20:03:03Z</time>
  <course>2.83</course>
  <speed>0.0</speed>
  <fix>3d</fix>
</trkpt>
<trkpt lat="21.1656427" lon="-156.8868017">
  <ele>184.38</ele>
  <time>2026-09-01T20:03:03Z</time>
  <course>18.9</course>
  <speed>0.01</speed>
  <fix>3d</fix>
</trkpt>
<trkpt lat="21.1656425" lon="-156.8868016">
  <ele>184.83</ele>
  <time>2026-09-01T20:03:03Z</time>
  <course>2.83</course>
  <speed>0.0</speed>
  <fix>3d</fix>
</trkpt>
<trkpt lat="21.1656425" lon="-156.8868016">
  <ele>184.94</ele>
  <time>2026-09-01T20:03:03Z</time>
  <course>2.83</course>
  <speed>0.0</speed>
  <fix>3d</fix>
</trkpt>
<trkpt lat="21.1656427" lon="-156.8868017">
  <ele>184.67</ele>
  <time>2026-09-01T20:03:03Z</time>
  <course>21.0</course>
  <speed>0.01</speed>
  <fix>3d</fix>
</trkpt>
<trkpt lat="21.1656425" lon="-156.8868016">
  <ele>184.99</ele>
  <time>2026-09-01T20:03:03Z</time>
  <course>2.83</course>
  <speed>0.0</speed>
  <fix>3d</fix>
</trkpt>
<trkpt lat="21.1656425" lon="-156.8868016">
  <ele>185.09</ele>
  <time>2026-09-01T20:03:03Z</time>
  <course>2.83</course>
  <speed>0.0</speed>
  <fix>3d</fix>
</trkpt>
<trkpt lat="21.1656427" lon="-156.8868017">
  <ele>184.67</ele>
  <time>2026-09-01T20:03:03Z</time>
  <course>21.0</course>
  <speed>0.01</speed>
  <fix>3d</fix>
</trkpt>
<trkpt lat="21.1656425" lon="-156.8868016">
  <ele>185.09</ele>
  <time>2026-09-01T20:03:03Z</time>
  <course>2.83</course>
  <speed>0.0</speed>
  <fix>3d</fix>
</trkpt>
<trkpt lat="21.1656426" lon="-156.8868016">
  <ele>185.23</ele>
  <time>2026-09-01T20:03:03Z</time>
  <course>2.82</course>
  <speed>0.0</speed>
  <fix>3d</fix>
</trkpt>
<trkpt lat="21.1656427" lon="-156.8868017">
  <ele>184.96</ele>
  <time>2026-09-01T20:03:03Z</time>
  <course>25.45</course>
  <speed>0.0</speed>
  <fix>3d</fix>
</trkpt>
<trkpt lat="21.1656426" lon="-156.8868016">
  <ele>185.24</ele>
  <time>2026-09-01T20:03:03Z</time>
  <course>2.82</course>
  <speed>0.0</speed>
  <fix>3d</fix>
</trkpt>
<trkpt lat="21.1656426" lon="-156.8868016">
  <ele>185.38</ele>
  <time>2026-09-01T20:03:03Z</time>
  <course>2.81</course>
  <speed>0.01</speed>
  <fix>3d</fix>
</trkpt>
<trkpt lat="21.1656427" lon="-156.8868017">
  <ele>184.96</ele>
  <time>2026-09-01T20:03:03Z</time>
  <course>25.45</course>
  <speed>0.0</speed>
  <fix>3d</fix>
</trkpt>
<trkpt lat="21.1656426" lon="-156.8868016">
  <ele>185.43</ele>
  <time>2026-09-01T20:03:03Z</time>
  <course>2.81</course>
  <speed>0.01</speed>
  <fix>3d</fix>
</trkpt>
<trkpt lat="21.1656426" lon="-156.8868016">
  <ele>185.53</ele>
  <time>2026-09-01T20:03:03Z</time>
  <course>2.81</course>
  <speed>0.01</speed>
  <fix>3d</fix>
</trkpt>
<trkpt lat="21.1656428" lon="-156.8868017">
  <ele>185.25</ele>
  <time>2026-09-01T20:03:03Z</time>
  <course>38.48</course>
  <speed>0.0</speed>
  <fix>3d</fix>
</trkpt>
<trkpt lat="21.1656426" lon="-156.8868016">
  <ele>185.67</ele>
  <time>2026-09-01T20:03:03Z</time>
  <course>2.81</course>
  <speed>0.01</speed>
  <fix>3d</fix>
</trkpt>
<trkpt lat="21.1656428" lon="-156.8868017">
  <ele>185.25</ele>
  <time>2026-09-01T20:03:03Z</time>
  <course>38.48</course>
  <speed>0.0</speed>
  <fix>3d</fix>
</trkpt>
<trkpt lat="21.1656426" lon="-156.8868016">
  <ele>185.81</ele>
  <time>2026-09-01T20:03:03Z</time>
  <course>2.81</course>
  <speed>0.01</speed>
  <fix>3d</fix>
</trkpt>
<trkpt lat="21.1656428" lon="-156.8868017">
  <ele>185.54</ele>
  <time>2026-09-01T20:03:03Z</time>
  <course>69.77</course>
  <speed>0.0</speed>
  <fix>3d</fix>
</trkpt>
<trkpt lat="21.1656426" lon="-156.8868016">
  <ele>185.95</ele>
  <time>2026-09-01T20:03:03Z</time>
  <course>2.82</course>
  <speed>0.01</speed>
  <fix>3d</fix>
</trkpt>
<trkpt lat="21.1656428" lon="-156.8868017">
  <ele>185.54</ele>
  <time>2026-09-01T20:03:03Z</time>
  <course>69.77</course>
  <speed>0.0</speed>
  <fix>3d</fix>
</trkpt>
<trkpt lat="21.1656426" lon="-156.8868016">
  <ele>186.08</ele>
  <time>2026-09-01T20:03:03Z</time>
  <course>2.83</course>
  <speed>0.01</speed>
  <fix>3d</fix>
</trkpt>
<trkpt lat="21.1656428" lon="-156.8868017">
  <ele>185.83</ele>
  <time>2026-09-01T20:03:03Z</time>
  <course>119.63</course>
  <speed>0.0</speed>
  <fix>3d</fix>
</trkpt>
<trkpt lat="21.1656426" lon="-156.8868016">
  <ele>186.2</ele>
  <time>2026-09-01T20:03:03Z</time>
  <course>2.84</course>
  <speed>0.02</speed>
  <fix>3d</fix>
</trkpt>
<trkpt lat="21.1656428" lon="-156.8868017">
  <ele>185.83</ele>
  <time>2026-09-01T20:03:03Z</time>
  <course>119.63</course>
  <speed>0.0</speed>
  <fix>3d</fix>
</trkpt>
<trkpt lat="21.1656426" lon="-156.8868016">
  <ele>186.3</ele>
  <time>2026-09-01T20:03:03Z</time>
  <course>2.85</course>
  <speed>0.02</speed>
  <fix>3d</fix>
</trkpt>
<trkpt lat="21.1656428" lon="-156.8868017">
  <ele>186.09</ele>
  <time>2026-09-01T20:03:03Z</time>
  <course>157.76</course>
  <speed>0.0</speed>
  <fix>3d</fix>
</trkpt>
<trkpt lat="21.1656426" lon="-156.8868016">
  <ele>186.38</ele>
  <time>2026-09-01T20:03:03Z</time>
  <course>2.89</course>
  <speed>0.03</speed>
  <fix>3d</fix>
</trkpt>
<trkpt lat="21.1656428" lon="-156.8868017">
  <ele>186.09</ele>
  <time>2026-09-01T20:03:03Z</time>
  <course>157.76</course>
  <speed>0.0</speed>
  <fix>3d</fix>
</trkpt>
<trkpt lat="21.1656426" lon="-156.8868016">
  <ele>186.45</ele>
  <time>2026-09-01T20:03:03Z</time>
  <course>2.92</course>
  <speed>0.04</speed>
  <fix>3d</fix>
</trkpt>
<trkpt lat="21.1656428" lon="-156.8868017">
  <ele>186.31</ele>
  <time>2026-09-01T20:03:03Z</time>
  <course>175.2</course>
  <speed>0.02</speed>
  <fix>3d</fix>
</trkpt>
<trkpt lat="21.1656426" lon="-156.8868016">
  <ele>186.5</ele>
  <time>2026-09-01T20:03:03Z</time>
  <course>2.93</course>
  <speed>0.06</speed>
  <fix>3d</fix>
</trkpt>
<trkpt lat="21.1656428" lon="-156.8868017">
  <ele>186.31</ele>
  <time>2026-09-01T20:03:03Z</time>
  <course>175.2</course>
  <speed>0.02</speed>
  <fix>3d</fix>
</trkpt>
<trkpt lat="21.1656426" lon="-156.8868016">
  <ele>186.54</ele>
  <time>2026-09-01T20:03:03Z</time>
  <course>2.93</course>
  <speed>0.07</speed>
  <fix>3d</fix>
</trkpt>
<trkpt lat="21.1656427" lon="-156.8868017">
  <ele>186.46</ele>
  <time>2026-09-01T20:03:03Z</time>
  <course>179.82</course>
  <speed>0.04</speed>
  <fix>3d</fix>
</trkpt>
<trkpt lat="21.1656425" lon="-156.8868016">
  <ele>186.56</ele>
  <time>2026-09-01T20:03:03Z</time>
  <course>2.92</course>
  <speed>0.08</speed>
  <fix>3d</fix>
</trkpt>
<trkpt lat="21.1656427" lon="-156.8868017">
  <ele>186.46</ele>
  <time>2026-09-01T20:03:03Z</time>
  <course>179.82</course>
  <speed>0.04</speed>
  <fix>3d</fix>
</trkpt>
<trkpt lat="21.1656424" lon="-156.8868016">
  <ele>186.56</ele>
  <time>2026-09-01T20:03:03Z</time>
  <course>2.88</course>
  <speed>0.09</speed>
  <fix>3d</fix>
</trkpt>
<trkpt lat="21.1656426" lon="-156.8868017">
  <ele>186.55</ele>
  <time>2026-09-01T20:03:03Z</time>
  <course>180.18</course>
  <speed>0.06</speed>
  <fix>3d</fix>
</trkpt>
<trkpt lat="21.1656423" lon="-156.8868016">
  <ele>186.56</ele>
  <time>2026-09-01T20:03:03Z</time>
  <course>2.84</course>
  <speed>0.11</speed>
  <fix>3d</fix>
</trkpt>
<trkpt lat="21.1656426" lon="-156.8868017">
  <ele>186.55</ele>
  <time>2026-09-01T20:03:03Z</time>
  <course>180.18</course>
  <speed>0.06</speed>
  <fix>3d</fix>
</trkpt>
<trkpt lat="21.1656423" lon="-156.8868016">
  <ele>186.55</ele>
  <time>2026-09-01T20:03:03Z</time>
  <course>2.79</course>
  <speed>0.12</speed>
  <fix>3d</fix>
</trkpt>
<trkpt lat="21.1656425" lon="-156.8868017">
  <ele>186.58</ele>
  <time>2026-09-01T20:03:03Z</time>
  <course>179.65</course>
  <speed>0.09</speed>
  <fix>3d</fix>
</trkpt>
<trkpt lat="21.1656422" lon="-156.8868016">
  <ele>186.53</ele>
  <time>2026-09-01T20:03:03Z</time>
  <course>2.75</course>
  <speed>0.12</speed>
  <fix>3d</fix>
</trkpt>
<trkpt lat="21.1656425" lon="-156.8868017">
  <ele>186.58</ele>
  <time>2026-09-01T20:03:03Z</time>
  <course>179.65</course>
  <speed>0.09</speed>
  <fix>3d</fix>
</trkpt>
<trkpt lat="21.1656421" lon="-156.8868016">
  <ele>186.51</ele>
  <time>2026-09-01T20:03:03Z</time>
  <course>2.71</course>
  <speed>0.07</speed>
  <fix>3d</fix>
</trkpt>
<trkpt lat="21.1656424" lon="-156.8868017">
  <ele>186.56</ele>
  <time>2026-09-01T20:03:03Z</time>
  <course>179.11</course>
  <speed>0.1</speed>
  <fix>3d</fix>
</trkpt>
<trkpt lat="21.1656421" lon="-156.8868016">
  <ele>186.49</ele>
  <time>2026-09-01T20:03:03Z</time>
  <course>2.64</course>
  <speed>0.02</speed>
  <fix>3d</fix>
</trkpt>
<trkpt lat="21.1656424" lon="-156.8868017">
  <ele>186.56</ele>
  <time>2026-09-01T20:03:03Z</time>
  <course>179.11</course>
  <speed>0.1</speed>
  <fix>3d</fix>
</trkpt>
<trkpt lat="21.1656422" lon="-156.8868016">
  <ele>186.47</ele>
  <time>2026-09-01T20:03:03Z</time>
  <course>2.53</course>
  <speed>0.18027756377319945</speed>
  <fix>3d</fix>
</trkpt>
<trkpt lat="21.1656422" lon="-156.8868017">
  <ele>186.52</ele>
  <time>2026-09-01T20:03:03Z</time>
  <course>177.14</course>
  <speed>0.04</speed>
  <fix>3d</fix>
</trkpt>
<trkpt lat="21.1656424" lon="-156.8868016">
  <ele>186.46</ele>
  <time>2026-09-01T20:03:03Z</time>
  <course>2.45</course>
  <speed>0.4001249804748511</speed>
  <fix>3d</fix>
</trkpt>
<trkpt lat="21.1656422" lon="-156.8868017">
  <ele>186.52</ele>
  <time>2026-09-01T20:03:03Z</time>
  <course>177.14</course>
  <speed>0.04</speed>
  <fix>3d</fix>
</trkpt>
<trkpt lat="21.1656429" lon="-156.8868016">
  <ele>186.46</ele>
  <time>2026-09-01T20:03:03Z</time>
  <course>2.41</course>
  <speed>0.6900724599634447</speed>
  <fix>3d</fix>
</trkpt>
<trkpt lat="21.1656423" lon="-156.8868017">
  <ele>186.48</ele>
  <time>2026-09-01T20:03:03Z</time>
  <course>359.52</course>
  <speed>0.21</speed>
  <fix>3d</fix>
</trkpt>
<trkpt lat="21.1656437" lon="-156.8868016">
  <ele>186.49</ele>
  <time>2026-09-01T20:03:03Z</time>
  <course>2.39</course>
  <speed>1.0400480758118829</speed>
  <fix>3d</fix>
</trkpt>
<trkpt lat="21.1656423" lon="-156.8868017">
  <ele>186.48</ele>
  <time>2026-09-01T20:03:03Z</time>
  <course>359.52</course>
  <speed>0.21</speed>
  <fix>3d</fix>
</trkpt>
<trkpt lat="21.1656448" lon="-156.8868016">
  <ele>186.54</ele>
  <time>2026-09-01T20:03:03Z</time>
  <course>2.33</course>
  <speed>1.4500344823486093</speed>
  <fix>3d</fix>
</trkpt>
<trkpt lat="21.165643" lon="-156.8868017">
  <ele>186.48</ele>
  <time>2026-09-01T20:03:03Z</time>
  <course>358.52</course>
  <speed>0.71</speed>
  <fix>3d</fix>
</trkpt>
<trkpt lat="21.1656463" lon="-156.8868016">
  <ele>186.62</ele>
  <time>2026-09-01T20:03:03Z</time>
  <course>2.22</course>
  <speed>1.9300259065618783</speed>
  <fix>3d</fix>
</trkpt>
<trkpt lat="21.165643" lon="-156.8868017">
  <ele>186.48</ele>
  <time>2026-09-01T20:03:03Z</time>
  <course>358.52</course>
  <speed>0.71</speed>
  <fix>3d</fix>
</trkpt>
<trkpt lat="21.1656483" lon="-156.8868016">
  <ele>186.72</ele>
  <time>2026-09-01T20:03:03Z</time>
  <course>1.98</course>
  <speed>2.480020161208372</speed>
  <fix>3d</fix>
</trkpt>
<trkpt lat="21.1656449" lon="-156.8868017">
  <ele>186.56</ele>
  <time>2026-09-01T20:03:03Z</time>
  <course>358.2</course>
  <speed>1.47</speed>
  <fix>3d</fix>
</trkpt>
<trkpt lat="21.1656507" lon="-156.8868016">
  <ele>186.86</ele>
  <time>2026-09-01T20:03:03Z</time>
  <course>1.72</course>
  <speed>3.07001628660175</speed>
  <fix>3d</fix>
</trkpt>
<trkpt lat="21.1656449" lon="-156.8868017">
  <ele>186.56</ele>
  <time>2026-09-01T20:03:03Z</time>
  <course>358.2</course>
  <speed>1.47</speed>
  <fix>3d</fix>
</trkpt>
<trkpt lat="21.1656537" lon="-156.8868017">
  <ele>187.02</ele>
  <time>2026-09-01T20:03:03Z</time>
  <course>1.46</course>
  <speed>3.69</speed>
  <fix>3d</fix>
</trkpt>
<trkpt lat="21.1656485" lon="-156.8868018">
  <ele>186.75</ele>
  <time>2026-09-01T20:03:03Z</time>
  <course>358.26</course>
  <speed>2.49</speed>
  <fix>3d</fix>
</trkpt>
<trkpt lat="21.1656573" lon="-156.8868017">
  <ele>187.21</ele>
  <time>2026-09-01T20:03:03Z</time>
  <course>1.22</course>
  <speed>4.34</speed>
  <fix>3d</fix>
</trkpt>
<trkpt lat="21.1656485" lon="-156.8868018">
  <ele>186.75</ele>
  <time>2026-09-01T20:03:03Z</time>
  <course>358.26</course>
  <speed>2.49</speed>
  <fix>3d</fix>
</trkpt>
<trkpt lat="21.1656615" lon="-156.8868018">
  <ele>187.41</ele>
  <time>2026-09-01T20:03:03Z</time>
  <course>0.94</course>
  <speed>5.01000998002998</speed>
  <fix>3d</fix>
</trkpt>
<trkpt lat="21.165654" lon="-156.886802">
  <ele>187.04</ele>
  <time>2026-09-01T20:03:03Z</time>
  <course>358.4</course>
  <speed>3.69</speed>
  <fix>3d</fix>
</trkpt>
<trkpt lat="21.1656663" lon="-156.8868019">
  <ele>187.63</ele>
  <time>2026-09-01T20:03:03Z</time>
  <course>0.76</course>
  <speed>5.690035149276321</speed>
  <fix>3d</fix>
</trkpt>
<trkpt lat="21.165654" lon="-156.886802">
  <ele>187.04</ele>
  <time>2026-09-01T20:03:03Z</time>
  <course>358.4</course>
  <speed>3.69</speed>
  <fix>3d</fix>
</trkpt>
<trkpt lat="21.1656717" lon="-156.886802">
  <ele>187.85</ele>
  <time>2026-09-01T20:03:03Z</time>
  <course>0.48</course>
  <speed>6.390125194391734</speed>
  <fix>3d</fix>
</trkpt>
<trkpt lat="21.1656618" lon="-156.8868021">
  <ele>187.43</ele>
  <time>2026-09-01T20:03:03Z</time>
  <course>358.57</course>
  <speed>5.01</speed>
  <fix>3d</fix>
</trkpt>
<trkpt lat="21.1656777" lon="-156.8868021">
  <ele>188.08</ele>
  <time>2026-09-01T20:03:03Z</time>
  <course>0.26</course>
  <speed>7.080176551471015</speed>
  <fix>3d</fix>
</trkpt>
<trkpt lat="21.1656618" lon="-156.8868021">
  <ele>187.43</ele>
  <time>2026-09-01T20:03:03Z</time>
  <course>358.57</course>
  <speed>5.01</speed>
  <fix>3d</fix>
</trkpt>
<trkpt lat="21.1656845" lon="-156.8868023">
  <ele>188.32</ele>
  <time>2026-09-01T20:03:04Z</time>
  <course>359.99</course>
  <speed>7.7803149036526795</speed>
  <fix>3d</fix>
</trkpt>
<trkpt lat="21.1656721" lon="-156.8868024">
  <ele>187.87</ele>
  <time>2026-09-01T20:03:04Z</time>
  <course>358.8</course>
  <speed>6.39</speed>
  <fix>3d</fix>
</trkpt>
<trkpt lat="21.1656917" lon="-156.8868025">
  <ele>188.55</ele>
  <time>2026-09-01T20:03:04Z</time>
  <course>359.76</course>
  <speed>8.450378689739294</speed>
  <fix>3d</fix>
</trkpt>
<trkpt lat="21.1656721" lon="-156.8868024">
  <ele>187.87</ele>
  <time>2026-09-01T20:03:04Z</time>
  <course>358.8</course>
  <speed>6.39</speed>
  <fix>3d</fix>
</trkpt>
<trkpt lat="21.1656995" lon="-156.8868027">
  <ele>188.78</ele>
  <time>2026-09-01T20:03:04Z</time>
  <course>359.78</course>
  <speed>9.100549433962765</speed>
  <fix>3d</fix>
</trkpt>
<trkpt lat="21.1656848" lon="-156.8868027">
  <ele>188.33</ele>
  <time>2026-09-01T20:03:04Z</time>
  <course>358.97</course>
  <speed>7.77</speed>
  <fix>3d</fix>
</trkpt>
<trkpt lat="21.1657079" lon="-156.8868028">
  <ele>189.02</ele>
  <time>2026-09-01T20:03:04Z</time>
  <course>359.86</course>
  <speed>9.730513861045573</speed>
  <fix>3d</fix>
</trkpt>
<trkpt lat="21.1656848" lon="-156.8868027">
  <ele>188.33</ele>
  <time>2026-09-01T20:03:04Z</time>
  <course>358.97</course>
  <speed>7.77</speed>
  <fix>3d</fix>
</trkpt>
<trkpt lat="21.1657169" lon="-156.886803">
  <ele>189.27</ele>
  <time>2026-09-01T20:03:04Z</time>
  <course>359.81</course>
  <speed>10.3404835476877</speed>
  <fix>3d</fix>
</trkpt>
<trkpt lat="21.1656999" lon="-156.8868029">
  <ele>188.79</ele>
  <time>2026-09-01T20:03:04Z</time>
  <course>359.08</course>
  <speed>9.1</speed>
  <fix>3d</fix>
</trkpt>
<trkpt lat="21.1657265" lon="-156.8868032">
  <ele>189.51</ele>
  <time>2026-09-01T20:03:04Z</time>
  <course>359.63</course>
  <speed>10.94055300247661</speed>
  <fix>3d</fix>
</trkpt>
<trkpt lat="21.1656999" lon="-156.8868029">
  <ele>188.79</ele>
  <time>2026-09-01T20:03:04Z</time>
  <course>359.08</course>
  <speed>9.1</speed>
  <fix>3d</fix>
</trkpt>
<trkpt lat="21.1657365" lon="-156.8868033">
  <ele>189.77</ele>
  <time>2026-09-01T20:03:04Z</time>
  <course>359.55</course>
  <speed>11.510625526008566</speed>
  <fix>3d</fix>
</trkpt>
<trkpt lat="21.1657175" lon="-156.8868032">
  <ele>189.26</ele>
  <time>2026-09-01T20:03:04Z</time>
  <course>359.21</course>
  <speed>10.35</speed>
  <fix>3d</fix>
</trkpt>
<trkpt lat="21.1657471" lon="-156.8868035">
  <ele>190.02</ele>
  <time>2026-09-01T20:03:04Z</time>
  <course>359.56</course>
  <speed>12.080596011786836</speed>
  <fix>3d</fix>
</trkpt>
<trkpt lat="21.1657175" lon="-156.8868032">
  <ele>189.26</ele>
  <time>2026-09-01T20:03:04Z</time>
  <course>359.21</course>
  <speed>10.35</speed>
  <fix>3d</fix>
</trkpt>
<trkpt lat="21.1657581" lon="-156.8868037">
  <ele>190.28</ele>
  <time>2026-09-01T20:03:04Z</time>
  <course>359.68</course>
  <speed>12.61057096249016</speed>
  <fix>3d</fix>
</trkpt>
<trkpt lat="21.1657372" lon="-156.8868035">
  <ele>189.76</ele>
  <time>2026-09-01T20:03:04Z</time>
  <course>359.31</course>
  <speed>11.53</speed>
  <fix>3d</fix>
</trkpt>
<trkpt lat="21.1657696" lon="-156.8868038">
  <ele>190.54</ele>
  <time>2026-09-01T20:03:04Z</time>
  <course>359.71</course>
  <speed>13.140547933781146</speed>
  <fix>3d</fix>
</trkpt>
<trkpt lat="21.1657372" lon="-156.8868035">
  <ele>189.76</ele>
  <time>2026-09-01T20:03:04Z</time>
  <course>359.31</course>
  <speed>11.53</speed>
  <fix>3d</fix>
</trkpt>
<trkpt lat="21.1657816" lon="-156.8868039">
  <ele>190.81</ele>
  <time>2026-09-01T20:03:04Z</time>
  <course>359.66</course>
  <speed>13.660527076214885</speed>
  <fix>3d</fix>
</trkpt>
<trkpt lat="21.1657589" lon="-156.8868038">
  <ele>190.26</ele>
  <time>2026-09-01T20:03:04Z</time>
  <course>359.4</course>
  <speed>12.65</speed>
  <fix>3d</fix>
</trkpt>
<trkpt lat="21.1657941" lon="-156.8868041">
  <ele>191.08</ele>
  <time>2026-09-01T20:03:04Z</time>
  <course>359.49</course>
  <speed>14.150508824773759</speed>
  <fix>3d</fix>
</trkpt>
<trkpt lat="21.1657589" lon="-156.8868038">
  <ele>190.26</ele>
  <time>2026-09-01T20:03:04Z</time>
  <course>359.4</course>
  <speed>12.65</speed>
  <fix>3d</fix>
</trkpt>
<trkpt lat="21.165807" lon="-156.8868042">
  <ele>191.35</ele>
  <time>2026-09-01T20:03:04Z</time>
  <course>359.47</course>
  <speed>14.590493480345344</speed>
  <fix>3d</fix>
</trkpt>
<trkpt lat="21.1657826" lon="-156.886804">
  <ele>190.78</ele>
  <time>2026-09-01T20:03:04Z</time>
  <course>359.48</course>
  <speed>13.7</speed>
  <fix>3d</fix>
</trkpt>
<trkpt lat="21.1658199" lon="-156.8868043">
  <ele>191.62</ele>
  <time>2026-09-01T20:03:04Z</time>
  <course>359.46</course>
  <speed>14.980480633143918</speed>
  <fix>3d</fix>
</trkpt>
<trkpt lat="21.1657826" lon="-156.886804">
  <ele>190.78</ele>
  <time>2026-09-01T20:03:04Z</time>
  <course>359.48</course>
  <speed>13.7</speed>
  <fix>3d</fix>
</trkpt>
<trkpt lat="21.1658334" lon="-156.8868044">
  <ele>191.88</ele>
  <time>2026-09-01T20:03:04Z</time>
  <course>359.41</course>
  <speed>15.340469353966977</speed>
  <fix>3d</fix>
</trkpt>
<trkpt lat="21.165808" lon="-156.8868043">
  <ele>191.31</ele>
  <time>2026-09-01T20:03:04Z</time>
  <course>359.53</course>
  <speed>14.63</speed>
  <fix>3d</fix>
</trkpt>
<trkpt lat="21.1658473" lon="-156.8868046">
  <ele>192.15</ele>
  <time>2026-09-01T20:03:04Z</time>
  <course>359.33</course>
  <speed>15.660459763365825</speed>
  <fix>3d</fix>
</trkpt>
<trkpt lat="21.165808" lon="-156.8868043">
  <ele>191.31</ele>
  <time>2026-09-01T20:03:04Z</time>
  <course>359.53</course>
  <speed>14.63</speed>
  <fix>3d</fix>
</trkpt>
<trkpt lat="21.1658615" lon="-156.8868047">
  <ele>192.42</ele>
  <time>2026-09-01T20:03:04Z</time>
  <course>359.31</course>
  <speed>15.950451404270664</speed>
  <fix>3d</fix>
</trkpt>
<trkpt lat="21.165835" lon="-156.8868044">
  <ele>191.85</ele>
  <time>2026-09-01T20:03:04Z</time>
  <course>359.55</course>
  <speed>15.41</speed>
  <fix>3d</fix>
</trkpt>
<trkpt lat="21.1658759" lon="-156.8868048">
  <ele>192.69</ele>
  <time>2026-09-01T20:03:04Z</time>
  <course>359.4</course>
  <speed>16.210444164180082</speed>
  <fix>3d</fix>
</trkpt>
<trkpt lat="21.165835" lon="-156.8868044">
  <ele>191.85</ele>
  <time>2026-09-01T20:03:04Z</time>
  <course>359.55</course>
  <speed>15.41</speed>
  <fix>3d</fix>
</trkpt>
<trkpt lat="21.1658908" lon="-156.8868049">
  <ele>192.95</ele>
  <time>2026-09-01T20:03:04Z</time>
  <course>359.48</course>
  <speed>16.460367553611917</speed>
  <fix>3d</fix>
</trkpt>
<trkpt lat="21.1658634" lon="-156.8868047">
  <ele>192.39</ele>
  <time>2026-09-01T20:03:04Z</time>
  <course>359.57</course>
  <speed>16.03</speed>
  <fix>3d</fix>
</trkpt>
<trkpt lat="21.1659057" lon="-156.886805">
  <ele>193.21</ele>
  <time>2026-09-01T20:03:04Z</time>
  <course>359.54</course>
  <speed>16.70029939851379</speed>
  <fix>3d</fix>
</trkpt>
<trkpt lat="21.1658634" lon="-156.8868047">
  <ele>192.39</ele>
  <time>2026-09-01T20:03:04Z</time>
  <course>359.57</course>
  <speed>16.03</speed>
  <fix>3d</fix>
</trkpt>
<trkpt lat="21.1659208" lon="-156.8868051">
  <ele>193.47</ele>
  <time>2026-09-01T20:03:04Z</time>
  <course>359.56</course>
  <speed>16.920295505693744</speed>
  <fix>3d</fix>
</trkpt>
<trkpt lat="21.1658927" lon="-156.8868049">
  <ele>192.92</ele>
  <time>2026-09-01T20:03:04Z</time>
  <course>359.61</course>
  <speed>16.55</speed>
  <fix>3d</fix>
</trkpt>
<trkpt lat="21.1659366" lon="-156.8868052">
  <ele>193.73</ele>
  <time>2026-09-01T20:03:04Z</time>
  <course>359.6</course>
  <speed>17.140236287752863</speed>
  <fix>3d</fix>
</trkpt>
<trkpt lat="21.1658927" lon="-156.8868049">
  <ele>192.92</ele>
  <time>2026-09-01T20:03:04Z</time>
  <course>359.61</course>
  <speed>16.55</speed>
  <fix>3d</fix>
</trkpt>
<trkpt lat="21.1659519" lon="-156.8868053">
  <ele>193.98</ele>
  <time>2026-09-01T20:03:04Z</time>
  <course>359.63</course>
  <speed>17.34018454342398</speed>
  <fix>3d</fix>
</trkpt>
<trkpt lat="21.1659228" lon="-156.8868052">
  <ele>193.43</ele>
  <time>2026-09-01T20:03:04Z</time>
  <course>359.65</course>
  <speed>17.01</speed>
  <fix>3d</fix>
</trkpt>
<trkpt lat="21.1659675" lon="-156.8868054">
  <ele>194.22</ele>
  <time>2026-09-01T20:03:04Z</time>
  <course>359.66</course>
  <speed>17.5301825432595</speed>
  <fix>3d</fix>
</trkpt>
<trkpt lat="21.1659228" lon="-156.8868052">
  <ele>193.43</ele>
  <time>2026-09-01T20:03:04Z</time>
  <course>359.65</course>
  <speed>17.01</speed>
  <fix>3d</fix>
</trkpt>
<trkpt lat="21.1659833" lon="-156.8868054">
  <ele>194.47</ele>
  <time>2026-09-01T20:03:04Z</time>
  <course>359.62</course>
  <speed>17.710138339380638</speed>
  <fix>3d</fix>
</trkpt>
<trkpt lat="21.1659538" lon="-156.8868053">
  <ele>193.94</ele>
  <time>2026-09-01T20:03:04Z</time>
  <course>359.7</course>
  <speed>17.43</speed>
  <fix>3d</fix>
</trkpt>
<trkpt lat="21.1659992" lon="-156.8868055">
  <ele>194.7</ele>
  <time>2026-09-01T20:03:04Z</time>
  <course>359.64</course>
  <speed>17.890136947491488</speed>
  <fix>3d</fix>
</trkpt>
<trkpt lat="21.1659538" lon="-156.8868053">
  <ele>193.94</ele>
  <time>2026-09-01T20:03:04Z</time>
  <course>359.7</course>
  <speed>17.43</speed>
  <fix>3d</fix>
</trkpt>
<trkpt lat="21.1660154" lon="-156.8868056">
  <ele>194.93</ele>
  <time>2026-09-01T20:03:04Z</time>
  <course>359.68</course>
  <speed>18.050099722716215</speed>
  <fix>3d</fix>
</trkpt>
<trkpt lat="21.1659854" lon="-156.8868054">
  <ele>194.42</ele>
  <time>2026-09-01T20:03:04Z</time>
  <course>359.74</course>
  <speed>17.81</speed>
  <fix>3d</fix>
</trkpt>
<trkpt lat="21.1660317" lon="-156.8868056">
  <ele>195.16</ele>
  <time>2026-09-01T20:03:04Z</time>
  <course>359.71</course>
  <speed>18.21006864347304</speed>
  <fix>3d</fix>
</trkpt>
<trkpt lat="21.1659854" lon="-156.8868054">
  <ele>194.42</ele>
  <time>2026-09-01T20:03:04Z</time>
  <course>359.74</course>
  <speed>17.81</speed>
  <fix>3d</fix>
</trkpt>
<trkpt lat="21.1660481" lon="-156.8868057">
  <ele>195.38</ele>
  <time>2026-09-01T20:03:04Z</time>
  <course>359.73</course>
  <speed>18.360043572933044</speed>
  <fix>3d</fix>
</trkpt>
<trkpt lat="21.1660178" lon="-156.8868056">
  <ele>194.88</ele>
  <time>2026-09-01T20:03:04Z</time>
  <course>359.78</course>
  <speed>18.16</speed>
  <fix>3d</fix>
</trkpt>
<trkpt lat="21.1660647" lon="-156.8868057">
  <ele>195.59</ele>
  <time>2026-09-01T20:03:04Z</time>
  <course>359.77</course>
  <speed>18.51002431116718</speed>
  <fix>3d</fix>
</trkpt>
<trkpt lat="21.1660178" lon="-156.8868056">
  <ele>194.88</ele>
  <time>2026-09-01T20:03:04Z</time>
  <course>359.78</course>
  <speed>18.16</speed>
  <fix>3d</fix>
</trkpt>
<trkpt lat="21.1660813" lon="-156.8868057">
  <ele>195.8</ele>
  <time>2026-09-01T20:03:04Z</time>
  <course>359.82</course>
  <speed>18.660010718110534</speed>
  <fix>3d</fix>
</trkpt>
<trkpt lat="21.1660507" lon="-156.8868057">
  <ele>195.32</ele>
  <time>2026-09-01T20:03:04Z</time>
  <course>359.83</course>
  <speed>18.48</speed>
  <fix>3d</fix>
</trkpt>
<trkpt lat="21.1660982" lon="-156.8868057">
  <ele>196.01</ele>
  <time>2026-09-01T20:03:04Z</time>
  <course>359.82</course>
  <speed>18.81001063263921</speed>
  <fix>3d</fix>
</trkpt>
<trkpt lat="21.1660507" lon="-156.8868057">
  <ele>195.32</ele>
  <time>2026-09-01T20:03:04Z</time>
  <course>359.83</course>
  <speed>18.48</speed>
  <fix>3d</fix>
</trkpt>
<trkpt lat="21.1661152" lon="-156.8868058">
  <ele>196.21</ele>
  <time>2026-09-01T20:03:04Z</time>
  <course>359.8</course>
  <speed>18.960002637130618</speed>
  <fix>3d</fix>
</trkpt>
<trkpt lat="21.1660842" lon="-156.8868058">
  <ele>195.75</ele>
  <time>2026-09-01T20:03:04Z</time>
  <course>359.88</course>
  <speed>18.78</speed>
  <fix>3d</fix>
</trkpt>
<trkpt lat="21.1661323" lon="-156.8868058">
  <ele>196.41</ele>
  <time>2026-09-01T20:03:04Z</time>
  <course>359.81</course>
  <speed>19.12</speed>
  <fix>3d</fix>
</trkpt>
<trkpt lat="21.1660842" lon="-156.8868058">
  <ele>195.75</ele>
  <time>2026-09-01T20:03:04Z</time>
  <course>359.88</course>
  <speed>18.78</speed>
  <fix>3d</fix>
</trkpt>
<trkpt lat="21.1661496" lon="-156.8868058">
  <ele>196.61</ele>
  <time>2026-09-01T20:03:04Z</time>
  <course>359.85</course>
  <speed>19.27</speed>
  <fix>3d</fix>
</trkpt>
<trkpt lat="21.1661182" lon="-156.8868058">
  <ele>196.16</ele>
  <time>2026-09-01T20:03:04Z</time>
  <course>359.92</course>
  <speed>19.09</speed>
  <fix>3d</fix>
</trkpt>
<trkpt lat="21.166167" lon="-156.8868058">
  <ele>196.81</ele>
  <time>2026-09-01T20:03:04Z</time>
  <course>359.89</course>
  <speed>19.43</speed>
  <fix>3d</fix>
</trkpt>
<trkpt lat="21.1661182" lon="-156.8868058">
  <ele>196.16</ele>
  <time>2026-09-01T20:03:04Z</time>
  <course>359.92</course>
  <speed>19.09</speed>
  <fix>3d</fix>
</trkpt>
<trkpt lat="21.1661845" lon="-156.8868058">
  <ele>197.0</ele>
  <time>2026-09-01T20:03:04Z</time>
  <course>359.86</course>
  <speed>19.58000255362598</speed>
  <fix>3d</fix>
</trkpt>
<trkpt lat="21.1661528" lon="-156.8868059">
  <ele>196.56</ele>
  <time>2026-09-01T20:03:04Z</time>
  <course>359.96</course>
  <speed>19.4</speed>
  <fix>3d</fix>
</trkpt>
<trkpt lat="21.1662022" lon="-156.8868058">
  <ele>197.19</ele>
  <time>2026-09-01T20:03:04Z</time>
  <course>359.87</course>
  <speed>19.740002532927903</speed>
  <fix>3d</fix>
</trkpt>
<trkpt lat="21.1661528" lon="-156.8868059">
  <ele>196.56</ele>
  <time>2026-09-01T20:03:04Z</time>
  <course>359.96</course>
  <speed>19.4</speed>
  <fix>3d</fix>
</trkpt>
<trkpt lat="21.1662201" lon="-156.8868058">
  <ele>197.38</ele>
  <time>2026-09-01T20:03:04Z</time>
  <course>359.82</course>
  <speed>19.900002512562654</speed>
  <fix>3d</fix>
</trkpt>
<trkpt lat="21.1661879" lon="-156.886806">
  <ele>196.94</ele>
  <time>2026-09-01T20:03:04Z</time>
  <course>359.99</course>
  <speed>19.71</speed>
  <fix>3d</fix>
</trkpt>
<trkpt lat="21.1662381" lon="-156.8868058">
  <ele>197.56</ele>
  <time>2026-09-01T20:03:04Z</time>
  <course>359.83</course>
  <speed>20.06000249252228</speed>
  <fix>3d</fix>
</trkpt>
<trkpt lat="21.1661879" lon="-156.886806">
  <ele>196.94</ele>
  <time>2026-09-01T20:03:04Z</time>
  <course>359.99</course>
  <speed>19.71</speed>
  <fix>3d</fix>
</trkpt>
<trkpt lat="21.1662562" lon="-156.8868058">
  <ele>197.73</ele>
  <time>2026-09-01T20:03:04Z</time>
  <course>359.84</course>
  <speed>20.230002471576714</speed>
  <fix>3d</fix>
</trkpt>
<trkpt lat="21.1662237" lon="-156.886806">
  <ele>197.31</ele>
  <time>2026-09-01T20:03:04Z</time>
  <course>0.0</course>
  <speed>20.03</speed>
  <fix>3d</fix>
</trkpt>
<trkpt lat="21.1662741" lon="-156.8868057">
  <ele>197.9</ele>
  <time>2026-09-01T20:03:04Z</time>
  <course>359.84</course>
  <speed>20.390002452182294</speed>
  <fix>3d</fix>
</trkpt>
<trkpt lat="21.1662237" lon="-156.886806">
  <ele>197.31</ele>
  <time>2026-09-01T20:03:04Z</time>
  <course>0.0</course>
  <speed>20.03</speed>
  <fix>3d</fix>
</trkpt>
<trkpt lat="21.1662932" lon="-156.8868057">
  <ele>198.07</ele>
  <time>2026-09-01T20:03:04Z</time>
  <course>359.87</course>
  <speed>20.56000243190647</speed>
  <fix>3d</fix>
</trkpt>
<trkpt lat="21.16626" lon="-156.886806">
  <ele>197.67</ele>
  <time>2026-09-01T20:03:04Z</time>
  <course>0.0</course>
  <speed>20.35</speed>
  <fix>3d</fix>
</trkpt>
<trkpt lat="21.1663116" lon="-156.8868057">
  <ele>198.23</ele>
  <time>2026-09-01T20:03:04Z</time>
  <course>359.91</course>
  <speed>20.720009652507407</speed>
  <fix>3d</fix>
</trkpt>
<trkpt lat="21.16626" lon="-156.886806">
  <ele>197.67</ele>
  <time>2026-09-01T20:03:04Z</time>
  <course>0.0</course>
  <speed>20.35</speed>
  <fix>3d</fix>
</trkpt>
<trkpt lat="21.1663304" lon="-156.8868058">
  <ele>198.4</ele>
  <time>2026-09-01T20:03:04Z</time>
  <course>359.9</course>
  <speed>20.880009578541863</speed>
  <fix>3d</fix>
</trkpt>
<trkpt lat="21.1662969" lon="-156.886806">
  <ele>198.01</ele>
  <time>2026-09-01T20:03:04Z</time>
  <course>0.0</course>
  <speed>20.67</speed>
  <fix>3d</fix>
</trkpt>
<trkpt lat="21.1663493" lon="-156.8868058">
  <ele>198.56</ele>
  <time>2026-09-01T20:03:04Z</time>
  <course>359.89</course>
  <speed>21.050009501185503</speed>
  <fix>3d</fix>
</trkpt>
<trkpt lat="21.1662969" lon="-156.886806">
  <ele>198.01</ele>
  <time>2026-09-01T20:03:04Z</time>
  <course>0.0</course>
  <speed>20.67</speed>
  <fix>3d</fix>
</trkpt>
<trkpt lat="21.1663684" lon="-156.8868058">
  <ele>198.72</ele>
  <time>2026-09-01T20:03:04Z</time>
  <course>359.93</course>
  <speed>21.210009429512283</speed>
  <fix>3d</fix>
</trkpt>
<trkpt lat="21.1663343" lon="-156.886806">
  <ele>198.34</ele>
  <time>2026-09-01T20:03:04Z</time>
  <course>0.01</course>
  <speed>20.99</speed>
  <fix>3d</fix>
</trkpt>
<trkpt lat="21.1663878" lon="-156.8868058">
  <ele>198.88</ele>
  <time>2026-09-01T20:03:04Z</time>
  <course>359.86</course>
  <speed>21.370009358912316</speed>
  <fix>3d</fix>
</trkpt>
<trkpt lat="21.1663343" lon="-156.886806">
  <ele>198.34</ele>
  <time>2026-09-01T20:03:04Z</time>
  <course>0.01</course>
  <speed>20.99</speed>
  <fix>3d</fix>
</trkpt>
<trkpt lat="21.1664072" lon="-156.8868058">
  <ele>199.03</ele>
  <time>2026-09-01T20:03:04Z</time>
  <course>359.8</course>
  <speed>21.52000232341995</speed>
  <fix>3d</fix>
</trkpt>
<trkpt lat="21.1663723" lon="-156.886806">
  <ele>198.67</ele>
  <time>2026-09-01T20:03:04Z</time>
  <course>0.01</course>
  <speed>21.31</speed>
  <fix>3d</fix>
</trkpt>
<trkpt lat="21.1664267" lon="-156.8868058">
  <ele>199.19</ele>
  <time>2026-09-01T20:03:04Z</time>
  <course>359.75</course>
  <speed>21.67000230733721</speed>
  <fix>3d</fix>
</trkpt>
<trkpt lat="21.1663723" lon="-156.886806">
  <ele>198.67</ele>
  <time>2026-09-01T20:03:04Z</time>
  <course>0.01</course>
  <speed>21.31</speed>
  <fix>3d</fix>
</trkpt>
<trkpt lat="21.1664463" lon="-156.8868058">
  <ele>199.35</ele>
  <time>2026-09-01T20:03:04Z</time>
  <course>359.78</course>
  <speed>21.82</speed>
  <fix>3d</fix>
</trkpt>
<trkpt lat="21.1664109" lon="-156.886806">
  <ele>198.98</ele>
  <time>2026-09-01T20:03:04Z</time>
  <course>359.99</course>
  <speed>21.61</speed>
  <fix>3d</fix>
</trkpt>
<trkpt lat="21.1664661" lon="-156.8868058">
  <ele>199.52</ele>
  <time>2026-09-01T20:03:04Z</time>
  <course>359.82</course>
  <speed>21.96</speed>
  <fix>3d</fix>
</trkpt>
<trkpt lat="21.1664109" lon="-156.886806">
  <ele>198.98</ele>
  <time>2026-09-01T20:03:04Z</time>
  <course>359.99</course>
  <speed>21.61</speed>
  <fix>3d</fix>
</trkpt>
<trkpt lat="21.166486" lon="-156.8868058">
  <ele>199.68</ele>
  <time>2026-09-01T20:03:04Z</time>
  <course>359.81</course>
  <speed>22.11</speed>
  <fix>3d</fix>
</trkpt>
<trkpt lat="21.1664499" lon="-156.886806">
  <ele>199.31</ele>
  <time>2026-09-01T20:03:04Z</time>
  <course>359.97</course>
  <speed>21.9</speed>
  <fix>3d</fix>
</trkpt>
<trkpt lat="21.1665061" lon="-156.8868058">
  <ele>199.85</ele>
  <time>2026-09-01T20:03:04Z</time>
  <course>359.73</course>
  <speed>22.24</speed>
  <fix>3d</fix>
</trkpt>
<trkpt lat="21.1664499" lon="-156.886806">
  <ele>199.31</ele>
  <time>2026-09-01T20:03:04Z</time>
  <course>359.97</course>
  <speed>21.9</speed>
  <fix>3d</fix>
</trkpt>
<trkpt lat="21.1665262" lon="-156.8868058">
  <ele>200.03</ele>
  <time>2026-09-01T20:03:04Z</time>
  <course>359.76</course>
  <speed>22.37</speed>
  <fix>3d</fix>
</trkpt>
<trkpt lat="21.1664895" lon="-156.886806">
  <ele>199.65</ele>
  <time>2026-09-01T20:03:04Z</time>
  <course>359.95</course>
  <speed>22.17</speed>
  <fix>3d</fix>
</trkpt>
<trkpt lat="21.1665465" lon="-156.8868058">
  <ele>200.21</ele>
  <time>2026-09-01T20:03:04Z</time>
  <course>359.85</course>
  <speed>22.50000222222211</speed>
  <fix>3d</fix>
</trkpt>
<trkpt lat="21.1664895" lon="-156.886806">
  <ele>199.65</ele>
  <time>2026-09-01T20:03:04Z</time>
  <course>359.95</course>
  <speed>22.17</speed>
  <fix>3d</fix>
</trkpt>
<trkpt lat="21.1665669" lon="-156.8868059">
  <ele>200.4</ele>
  <time>2026-09-01T20:03:04Z</time>
  <course>359.95</course>
  <speed>22.63</speed>
  <fix>3d</fix>
</trkpt>
<trkpt lat="21.1665296" lon="-156.886806">
  <ele>200.01</ele>
  <time>2026-09-01T20:03:04Z</time>
  <course>359.94</course>
  <speed>22.44</speed>
  <fix>3d</fix>
</trkpt>
<trkpt lat="21.1665874" lon="-156.8868059">
  <ele>200.6</ele>
  <time>2026-09-01T20:03:04Z</time>
  <course>359.96</course>
  <speed>22.75</speed>
  <fix>3d</fix>
</trkpt>
<trkpt lat="21.1665296" lon="-156.886806">
  <ele>200.01</ele>
  <time>2026-09-01T20:03:04Z</time>
  <course>359.94</course>
  <speed>22.44</speed>
  <fix>3d</fix>
</trkpt>
<trkpt lat="21.166608" lon="-156.8868059">
  <ele>200.8</ele>
  <time>2026-09-01T20:03:04Z</time>
  <course>359.88</course>
  <speed>22.87</speed>
  <fix>3d</fix>
</trkpt>
<trkpt lat="21.1665701" lon="-156.886806">
  <ele>200.38</ele>
  <time>2026-09-01T20:03:04Z</time>
  <course>359.94</course>
  <speed>22.68</speed>
  <fix>3d</fix>
</trkpt>
<trkpt lat="21.1666286" lon="-156.8868059">
  <ele>201.01</ele>
  <time>2026-09-01T20:03:04Z</time>
  <course>359.8</course>
  <speed>22.98</speed>
  <fix>3d</fix>
</trkpt>
<trkpt lat="21.1665701" lon="-156.886806">
  <ele>200.38</ele>
  <time>2026-09-01T20:03:04Z</time>
  <course>359.94</course>
  <speed>22.68</speed>
  <fix>3d</fix>
</trkpt>
<trkpt lat="21.1666494" lon="-156.8868059">
  <ele>201.22</ele>
  <time>2026-09-01T20:03:04Z</time>
  <course>359.78</course>
  <speed>23.09</speed>
  <fix>3d</fix>
</trkpt>
<trkpt lat="21.1666111" lon="-156.8868061">
  <ele>200.78</ele>
  <time>2026-09-01T20:03:04Z</time>
  <course>359.96</course>
  <speed>22.91</speed>
  <fix>3d</fix>
</trkpt>
<trkpt lat="21.1666703" lon="-156.8868059">
  <ele>201.44</ele>
  <time>2026-09-01T20:03:04Z</time>
  <course>359.69</course>
  <speed>23.200002155172314</speed>
  <fix>3d</fix>
</trkpt>
<trkpt lat="21.1666111" lon="-156.8868061">
  <ele>200.78</ele>
  <time>2026-09-01T20:03:04Z</time>
  <course>359.96</course>
  <speed>22.91</speed>
  <fix>3d</fix>
</trkpt>
<trkpt lat="21.1666913" lon="-156.886806">
  <ele>201.66</ele>
  <time>2026-09-01T20:03:04Z</time>
  <course>359.7</course>
  <speed>23.300002145922647</speed>
  <fix>3d</fix>
</trkpt>
<trkpt lat="21.1666526" lon="-156.8868061">
  <ele>201.2</ele>
  <time>2026-09-01T20:03:04Z</time>
  <course>359.94</course>
  <speed>23.12</speed>
  <fix>3d</fix>
</trkpt>
<trkpt lat="21.1667123" lon="-156.886806">
  <ele>201.89</ele>
  <time>2026-09-01T20:03:04Z</time>
  <course>359.78</course>
  <speed>23.390008550661115</speed>
  <fix>3d</fix>
</trkpt>
<trkpt lat="21.1666526" lon="-156.8868061">
  <ele>201.2</ele>
  <time>2026-09-01T20:03:04Z</time>
  <course>359.94</course>
  <speed>23.12</speed>
  <fix>3d</fix>
</trkpt>
<trkpt lat="21.1667334" lon="-156.886806">
  <ele>202.12</ele>
  <time>2026-09-01T20:03:04Z</time>
  <course>359.86</course>
  <speed>23.49000212856525</speed>
  <fix>3d</fix>
</trkpt>
<trkpt lat="21.1666943" lon="-156.8868061">
  <ele>201.65</ele>
  <time>2026-09-01T20:03:04Z</time>
  <course>359.91</course>
  <speed>23.32</speed>
  <fix>3d</fix>
</trkpt>
<trkpt lat="21.1667546" lon="-156.8868061">
  <ele>202.36</ele>
  <time>2026-09-01T20:03:04Z</time>
  <course>359.87</course>
  <speed>23.58000212044096</speed>
  <fix>3d</fix>
</trkpt>
<trkpt lat="21.1666943" lon="-156.8868061">
  <ele>201.65</ele>
  <time>2026-09-01T20:03:04Z</time>
  <course>359.91</course>
  <speed>23.32</speed>
  <fix>3d</fix>
</trkpt>
<trkpt lat="21.1667759" lon="-156.8868061">
  <ele>202.6</ele>
  <time>2026-09-01T20:03:04Z</time>
  <course>359.87</course>
  <speed>23.67000211237844</speed>
  <fix>3d</fix>
</trkpt>
<trkpt lat="21.1667363" lon="-156.8868062">
  <ele>202.11</ele>
  <time>2026-09-01T20:03:04Z</time>
  <course>359.9</course>
  <speed>23.51</speed>
  <fix>3d</fix>
</trkpt>
<trkpt lat="21.1667973" lon="-156.8868061">
  <ele>202.84</ele>
  <time>2026-09-01T20:03:04Z</time>
  <course>359.91</course>
  <speed>23.77</speed>
  <fix>3d</fix>
</trkpt>
<trkpt lat="21.1667363" lon="-156.8868062">
  <ele>202.11</ele>
  <time>2026-09-01T20:03:04Z</time>
  <course>359.9</course>
  <speed>23.51</speed>
  <fix>3d</fix>
</trkpt>
<trkpt lat="21.1668189" lon="-156.8868061">
  <ele>203.09</ele>
  <time>2026-09-01T20:03:04Z</time>
  <course>359.89</course>
  <speed>23.86</speed>
  <fix>3d</fix>
</trkpt>
<trkpt lat="21.1667788" lon="-156.8868063">
  <ele>202.59</ele>
  <time>2026-09-01T20:03:04Z</time>
  <course>359.91</course>
  <speed>23.69</speed>
  <fix>3d</fix>
</trkpt>
<trkpt lat="21.1668404" lon="-156.8868062">
  <ele>203.33</ele>
  <time>2026-09-01T20:03:04Z</time>
  <course>359.86</course>
  <speed>23.94</speed>
  <fix>3d</fix>
</trkpt>
<trkpt lat="21.1667788" lon="-156.8868063">
  <ele>202.59</ele>
  <time>2026-09-01T20:03:04Z</time>
  <course>359.91</course>
  <speed>23.69</speed>
  <fix>3d</fix>
</trkpt>
<trkpt lat="21.1668621" lon="-156.8868062">
  <ele>203.58</ele>
  <time>2026-09-01T20:03:04Z</time>
  <course>359.9</course>
  <speed>24.03</speed>
  <fix>3d</fix>
</trkpt>
<trkpt lat="21.1668214" lon="-156.8868063">
  <ele>203.08</ele>
  <time>2026-09-01T20:03:04Z</time>
  <course>359.94</course>
  <speed>23.86</speed>
  <fix>3d</fix>
</trkpt>
<trkpt lat="21.1668837" lon="-156.8868062">
  <ele>203.82</ele>
  <time>2026-09-01T20:03:04Z</time>
  <course>359.91</course>
  <speed>24.13</speed>
  <fix>3d</fix>
</trkpt>
<trkpt lat="21.1668214" lon="-156.8868063">
  <ele>203.08</ele>
  <time>2026-09-01T20:03:04Z</time>
  <course>359.94</course>
  <speed>23.86</speed>
  <fix>3d</fix>
</trkpt>
<trkpt lat="21.1669055" lon="-156.8868062">
  <ele>204.06</ele>
  <time>2026-09-01T20:03:04Z</time>
  <course>359.9</course>
  <speed>24.22</speed>
  <fix>3d</fix>
</trkpt>
<trkpt lat="21.1668645" lon="-156.8868063">
  <ele>203.57</ele>
  <time>2026-09-01T20:03:04Z</time>
  <course>359.95</course>
  <speed>24.03</speed>
  <fix>3d</fix>
</trkpt>
<trkpt lat="21.1669274" lon="-156.8868062">
  <ele>204.3</ele>
  <time>2026-09-01T20:03:04Z</time>
  <course>359.96</course>
  <speed>24.32</speed>
  <fix>3d</fix>
</trkpt>
<trkpt lat="21.1668645" lon="-156.8868063">
  <ele>203.57</ele>
  <time>2026-09-01T20:03:04Z</time>
  <course>359.95</course>
  <speed>24.03</speed>
  <fix>3d</fix>
</trkpt>
<trkpt lat="21.1669493" lon="-156.8868062">
  <ele>204.52</ele>
  <time>2026-09-01T20:03:04Z</time>
  <course>0.0</course>
  <speed>24.41</speed>
  <fix>3d</fix>
</trkpt>
<trkpt lat="21.1669078" lon="-156.8868064">
  <ele>204.06</ele>
  <time>2026-09-01T20:03:04Z</time>
  <course>359.96</course>
  <speed>24.21</speed>
  <fix>3d</fix>
</trkpt>
<trkpt lat="21.1669713" lon="-156.8868062">
  <ele>204.74</ele>
  <time>2026-09-01T20:03:04Z</time>
  <course>359.99</course>
  <speed>24.510002039983597</speed>
  <fix>3d</fix>
</trkpt>
<trkpt lat="21.1669078" lon="-156.8868064">
  <ele>204.06</ele>
  <time>2026-09-01T20:03:04Z</time>
  <course>359.96</course>
  <speed>24.21</speed>
  <fix>3d</fix>
</trkpt>
<trkpt lat="21.1669935" lon="-156.8868062">
  <ele>204.95</ele>
  <time>2026-09-01T20:03:04Z</time>
  <course>359.93</course>
  <speed>24.61000203169435</speed>
  <fix>3d</fix>
</trkpt>
<trkpt lat="21.1669515" lon="-156.8868065">
  <ele>204.52</ele>
  <time>2026-09-01T20:03:04Z</time>
  <course>359.97</course>
  <speed>24.4</speed>
  <fix>3d</fix>
</trkpt>
<trkpt lat="21.1670156" lon="-156.8868062">
  <ele>205.15</ele>
  <time>2026-09-01T20:03:04Z</time>
  <course>359.97</course>
  <speed>24.7100020234722</speed>
  <fix>3d</fix>
</trkpt>
<trkpt lat="21.1669515" lon="-156.8868065">
  <ele>204.52</ele>
  <time>2026-09-01T20:03:04Z</time>
  <course>359.97</course>
  <speed>24.4</speed>
  <fix>3d</fix>
</trkpt>
<trkpt lat="21.1670378" lon="-156.8868062">
  <ele>205.34</ele>
  <time>2026-09-01T20:03:04Z</time>
  <course>0.03</course>
  <speed>24.810008061264305</speed>
  <fix>3d</fix>
</trkpt>
<trkpt lat="21.1669955" lon="-156.8868065">
  <ele>204.94</ele>
  <time>2026-09-01T20:03:04Z</time>
  <course>0.0</course>
  <speed>24.59</speed>
  <fix>3d</fix>
</trkpt>
<trkpt lat="21.1670601" lon="-156.8868062">
  <ele>205.52</ele>
  <time>2026-09-01T20:03:04Z</time>
  <course>0.05</course>
  <speed>24.910008028902762</speed>
  <fix>3d</fix>
</trkpt>
<trkpt lat="21.1669955" lon="-156.8868065">
  <ele>204.94</ele>
  <time>2026-09-01T20:03:04Z</time>
  <course>0.0</course>
  <speed>24.59</speed>
  <fix>3d</fix>
</trkpt>
<trkpt lat="21.1670824" lon="-156.8868062">
  <ele>205.67</ele>
  <time>2026-09-01T20:03:04Z</time>
  <course>0.0</course>
  <speed>25.03000799041023</speed>
  <fix>3d</fix>
</trkpt>
<trkpt lat="21.1670399" lon="-156.8868065">
  <ele>205.33</ele>
  <time>2026-09-01T20:03:04Z</time>
  <course>0.02</course>
  <speed>24.79</speed>
  <fix>3d</fix>
</trkpt>
<trkpt lat="21.1671049" lon="-156.8868062">
  <ele>205.8</ele>
  <time>2026-09-01T20:03:04Z</time>
  <course>0.01</course>
  <speed>25.150007952285023</speed>
  <fix>3d</fix>
</trkpt>
<trkpt lat="21.1670399" lon="-156.8868065">
  <ele>205.33</ele>
  <time>2026-09-01T20:03:04Z</time>
  <course>0.02</course>
  <speed>24.79</speed>
  <fix>3d</fix>
</trkpt>
<trkpt lat="21.1671274" lon="-156.8868062">
  <ele>205.91</ele>
  <time>2026-09-01T20:03:04Z</time>
  <course>0.08</course>
  <speed>25.27001780767081</speed>
  <fix>3d</fix>
</trkpt>
<trkpt lat="21.1670847" lon="-156.8868065">
  <ele>205.66</ele>
  <time>2026-09-01T20:03:04Z</time>
  <course>0.04</course>
  <speed>25.01</speed>
  <fix>3d</fix>
</trkpt>
<trkpt lat="21.1671501" lon="-156.8868062">
  <ele>206.01</ele>
  <time>2026-09-01T20:03:04Z</time>
  <course>359.99</course>
  <speed>25.390031508448352</speed>
  <fix>3d</fix>
</trkpt>
<trkpt lat="21.1670847" lon="-156.8868065">
  <ele>205.66</ele>
  <time>2026-09-01T20:03:04Z</time>
  <course>0.04</course>
  <speed>25.01</speed>
  <fix>3d</fix>
</trkpt>
<trkpt lat="21.1671728" lon="-156.8868062">
  <ele>206.1</ele>
  <time>2026-09-01T20:03:04Z</time>
  <course>359.92</course>
  <speed>25.520017633222746</speed>
  <fix>3d</fix>
</trkpt>
<trkpt lat="21.1671299" lon="-156.8868065">
  <ele>205.9</ele>
  <time>2026-09-01T20:03:04Z</time>
  <course>0.06</course>
  <speed>25.26</speed>
  <fix>3d</fix>
</trkpt>
<trkpt lat="21.1671957" lon="-156.8868062">
  <ele>206.19</ele>
  <time>2026-09-01T20:03:04Z</time>
  <course>359.77</course>
  <speed>25.65</speed>
  <fix>3d</fix>
</trkpt>
<trkpt lat="21.1671299" lon="-156.8868065">
  <ele>205.9</ele>
  <time>2026-09-01T20:03:04Z</time>
  <course>0.06</course>
  <speed>25.26</speed>
  <fix>3d</fix>
</trkpt>
<trkpt lat="21.1672187" lon="-156.8868062">
  <ele>206.27</ele>
  <time>2026-09-01T20:03:04Z</time>
  <course>359.52</course>
  <speed>25.760048524799018</speed>
  <fix>3d</fix>
</trkpt>
<trkpt lat="21.1671755" lon="-156.8868064">
  <ele>206.1</ele>
  <time>2026-09-01T20:03:04Z</time>
  <course>0.05</course>
  <speed>25.52</speed>
  <fix>3d</fix>
</trkpt>
<trkpt lat="21.1672418" lon="-156.8868063">
  <ele>206.36</ele>
  <time>2026-09-01T20:03:04Z</time>
  <course>359.38</course>
  <speed>25.84043536784936</speed>
  <fix>3d</fix>
</trkpt>
<trkpt lat="21.1671755" lon="-156.8868064">
  <ele>206.1</ele>
  <time>2026-09-01T20:03:04Z</time>
  <course>0.05</course>
  <speed>25.52</speed>
  <fix>3d</fix>
</trkpt>
<trkpt lat="21.1672649" lon="-156.8868066">
  <ele>206.44</ele>
  <time>2026-09-01T20:03:04Z</time>
  <course>359.16</course>
  <speed>25.871739408087738</speed>
  <fix>3d</fix>
</trkpt>
<trkpt lat="21.1672215" lon="-156.8868064">
  <ele>206.27</ele>
  <time>2026-09-01T20:03:04Z</time>
  <course>359.84</course>
  <speed>25.75</speed>
  <fix>3d</fix>
</trkpt>
<trkpt lat="21.1672879" lon="-156.886807">
  <ele>206.53</ele>
  <time>2026-09-01T20:03:04Z</time>
  <course>358.9</course>
  <speed>25.87464009411532</speed>
  <fix>3d</fix>
</trkpt>
<trkpt lat="21.1672215" lon="-156.8868064">
  <ele>206.27</ele>
  <time>2026-09-01T20:03:04Z</time>
  <course>359.84</course>
  <speed>25.75</speed>
  <fix>3d</fix>
</trkpt>
<trkpt lat="21.167311" lon="-156.8868075">
  <ele>206.62</ele>
  <time>2026-09-01T20:03:04Z</time>
  <course>358.65</course>
  <speed>25.860025135331945</speed>
  <fix>3d</fix>
</trkpt>
<trkpt lat="21.1672679" lon="-156.8868067">
  <ele>206.44</ele>
  <time>2026-09-01T20:03:04Z</time>
  <course>359.29</course>
  <speed>25.87</speed>
  <fix>3d</fix>
</trkpt>
<trkpt lat="21.1673342" lon="-156.8868084">
  <ele>206.72</ele>
  <time>2026-09-01T20:03:04Z</time>
  <course>358.34</course>
  <speed>25.85895782896132</speed>
  <fix>3d</fix>
</trkpt>
<trkpt lat="21.1672679" lon="-156.8868067">
  <ele>206.44</ele>
  <time>2026-09-01T20:03:04Z</time>
  <course>359.29</course>
  <speed>25.87</speed>
  <fix>3d</fix>
</trkpt>
<trkpt lat="21.1673573" lon="-156.8868095">
  <ele>206.81</ele>
  <time>2026-09-01T20:03:04Z</time>
  <course>357.96</course>
  <speed>25.861695613397046</speed>
  <fix>3d</fix>
</trkpt>
<trkpt lat="21.1673144" lon="-156.8868077">
  <ele>206.62</ele>
  <time>2026-09-01T20:03:04Z</time>
  <course>358.37</course>
  <speed>25.89</speed>
  <fix>3d</fix>
</trkpt>
<trkpt lat="21.1673807" lon="-156.8868109">
  <ele>206.89</ele>
  <time>2026-09-01T20:03:04Z</time>
  <course>357.45</course>
  <speed>25.86890991132019</speed>
  <fix>3d</fix>
</trkpt>
<trkpt lat="21.1673144" lon="-156.8868077">
  <ele>206.62</ele>
  <time>2026-09-01T20:03:04Z</time>
  <course>358.37</course>
  <speed>25.89</speed>
  <fix>3d</fix>
</trkpt>
<trkpt lat="21.1674038" lon="-156.8868125">
  <ele>206.97</ele>
  <time>2026-09-01T20:03:04Z</time>
  <course>356.79</course>
  <speed>25.893530079925373</speed>
  <fix>3d</fix>
</trkpt>
<trkpt lat="21.1673609" lon="-156.8868096">
  <ele>206.81</ele>
  <time>2026-09-01T20:03:04Z</time>
  <course>357.15</course>
  <speed>25.9</speed>
  <fix>3d</fix>
</trkpt>
<trkpt lat="21.167427" lon="-156.8868146">
  <ele>207.05</ele>
  <time>2026-09-01T20:03:04Z</time>
  <course>356.06</course>
  <speed>25.92581724844947</speed>
  <fix>3d</fix>
</trkpt>
<trkpt lat="21.1673609" lon="-156.8868096">
  <ele>206.81</ele>
  <time>2026-09-01T20:03:04Z</time>
  <course>357.15</course>
  <speed>25.9</speed>
  <fix>3d</fix>
</trkpt>
<trkpt lat="21.1674503" lon="-156.886817">
  <ele>207.12</ele>
  <time>2026-09-01T20:03:04Z</time>
  <course>355.34</course>
  <speed>25.956089844196484</speed>
  <fix>3d</fix>
</trkpt>
<trkpt lat="21.1674074" lon="-156.8868127">
  <ele>206.98</ele>
  <time>2026-09-01T20:03:04Z</time>
  <course>355.67</course>
  <speed>25.93</speed>
  <fix>3d</fix>
</trkpt>
<trkpt lat="21.1674735" lon="-156.8868199">
  <ele>207.18</ele>
  <time>2026-09-01T20:03:04Z</time>
  <course>354.42</course>
  <speed>26.006387676876617</speed>
  <fix>3d</fix>
</trkpt>
<trkpt lat="21.1674074" lon="-156.8868127">
  <ele>206.98</ele>
  <time>2026-09-01T20:03:04Z</time>
  <course>355.67</course>
  <speed>25.93</speed>
  <fix>3d</fix>
</trkpt>
<trkpt lat="21.1674966" lon="-156.8868231">
  <ele>207.24</ele>
  <time>2026-09-01T20:03:04Z</time>
  <course>353.38</course>
  <speed>26.052642860178313</speed>
  <fix>3d</fix>
</trkpt>
<trkpt lat="21.1674538" lon="-156.8868172">
  <ele>207.12</ele>
  <time>2026-09-01T20:03:04Z</time>
  <course>353.93</course>
  <speed>26.0</speed>
  <fix>3d</fix>
</trkpt>
<trkpt lat="21.1675198" lon="-156.8868269">
  <ele>207.29</ele>
  <time>2026-09-01T20:03:04Z</time>
  <course>352.3</course>
  <speed>26.11485783993472</speed>
  <fix>3d</fix>
</trkpt>
<trkpt lat="21.1674538" lon="-156.8868172">
  <ele>207.12</ele>
  <time>2026-09-01T20:03:04Z</time>
  <course>353.93</course>
  <speed>26.0</speed>
  <fix>3d</fix>
</trkpt>
<trkpt lat="21.1675429" lon="-156.8868312">
  <ele>207.34</ele>
  <time>2026-09-01T20:03:04Z</time>
  <course>351.03</course>
  <speed>26.181262383620847</speed>
  <fix>3d</fix>
</trkpt>
<trkpt lat="21.1675003" lon="-156.8868234">
  <ele>207.23</ele>
  <time>2026-09-01T20:03:04Z</time>
  <course>351.85</course>
  <speed>26.1</speed>
  <fix>3d</fix>
</trkpt>
<trkpt lat="21.167566" lon="-156.8868362">
  <ele>207.39</ele>
  <time>2026-09-01T20:03:04Z</time>
  <course>349.62</course>
  <speed>26.225363677173288</speed>
  <fix>3d</fix>
</trkpt>
<trkpt lat="21.1675003" lon="-156.8868234">
  <ele>207.23</ele>
  <time>2026-09-01T20:03:04Z</time>
  <course>351.85</course>
  <speed>26.1</speed>
  <fix>3d</fix>
</trkpt>
<trkpt lat="21.167589" lon="-156.8868417">
  <ele>207.44</ele>
  <time>2026-09-01T20:03:04Z</time>
  <course>348.62</course>
  <speed>26.250579041232594</speed>
  <fix>3d</fix>
</trkpt>
<trkpt lat="21.1675467" lon="-156.8868316">
  <ele>207.34</ele>
  <time>2026-09-01T20:03:04Z</time>
  <course>349.31</course>
  <speed>26.21</speed>
  <fix>3d</fix>
</trkpt>
<trkpt lat="21.1676119" lon="-156.8868479">
  <ele>207.48</ele>
  <time>2026-09-01T20:03:04Z</time>
  <course>347.63</course>
  <speed>26.218476309656136</speed>
  <fix>3d</fix>
</trkpt>
<trkpt lat="21.1675467" lon="-156.8868316">
  <ele>207.34</ele>
  <time>2026-09-01T20:03:04Z</time>
  <course>349.31</course>
  <speed>26.21</speed>
  <fix>3d</fix>
</trkpt>
<trkpt lat="21.1676346" lon="-156.8868546">
  <ele>207.51</ele>
  <time>2026-09-01T20:03:04Z</time>
  <course>346.11</course>
  <speed>26.127613744848574</speed>
  <fix>3d</fix>
</trkpt>
<trkpt lat="21.1675929" lon="-156.8868422">
  <ele>207.44</ele>
  <time>2026-09-01T20:03:04Z</time>
  <course>346.53</course>
  <speed>26.27</speed>
  <fix>3d</fix>
</trkpt>
<trkpt lat="21.1676571" lon="-156.8868618">
  <ele>207.56</ele>
  <time>2026-09-01T20:03:04Z</time>
  <course>344.54</course>
  <speed>25.96307570377593</speed>
  <fix>3d</fix>
</trkpt>
<trkpt lat="21.1675929" lon="-156.8868422">
  <ele>207.44</ele>
  <time>2026-09-01T20:03:04Z</time>
  <course>346.53</course>
  <speed>26.27</speed>
  <fix>3d</fix>
</trkpt>
<trkpt lat="21.1676792" lon="-156.8868694">
  <ele>207.66</ele>
  <time>2026-09-01T20:03:04Z</time>
  <course>343.09</course>
  <speed>25.71882773378289</speed>
  <fix>3d</fix>
</trkpt>
<trkpt lat="21.1676384" lon="-156.8868552">
  <ele>207.53</ele>
  <time>2026-09-01T20:03:04Z</time>
  <course>343.85</course>
  <speed>26.15</speed>
  <fix>3d</fix>
</trkpt>
<trkpt lat="21.167701" lon="-156.8868773">
  <ele>207.8</ele>
  <time>2026-09-01T20:03:04Z</time>
  <course>341.99</course>
  <speed>25.37189192787956</speed>
  <fix>3d</fix>
</trkpt>
<trkpt lat="21.1676384" lon="-156.8868552">
  <ele>207.53</ele>
  <time>2026-09-01T20:03:04Z</time>
  <course>343.85</course>
  <speed>26.15</speed>
  <fix>3d</fix>
</trkpt>
<trkpt lat="21.1677225" lon="-156.8868851">
  <ele>208.02</ele>
  <time>2026-09-01T20:03:04Z</time>
  <course>341.38</course>
  <speed>24.920032102708056</speed>
  <fix>3d</fix>
</trkpt>
<trkpt lat="21.1676829" lon="-156.88687">
  <ele>207.68</ele>
  <time>2026-09-01T20:03:04Z</time>
  <course>341.77</course>
  <speed>25.73</speed>
  <fix>3d</fix>
</trkpt>
<trkpt lat="21.1677433" lon="-156.8868927">
  <ele>208.29</ele>
  <time>2026-09-01T20:03:04Z</time>
  <course>341.17</course>
  <speed>24.38470217164852</speed>
  <fix>3d</fix>
</trkpt>
<trkpt lat="21.1676829" lon="-156.88687">
  <ele>207.68</ele>
  <time>2026-09-01T20:03:04Z</time>
  <course>341.77</course>
  <speed>25.73</speed>
  <fix>3d</fix>
</trkpt>
<trkpt lat="21.1677639" lon="-156.8869">
  <ele>208.62</ele>
  <time>2026-09-01T20:03:04Z</time>
  <course>341.3</course>
  <speed>23.818316481229314</speed>
  <fix>3d</fix>
</trkpt>
<trkpt lat="21.1677261" lon="-156.8868857">
  <ele>208.04</ele>
  <time>2026-09-01T20:03:04Z</time>
  <course>341.0</course>
  <speed>24.95</speed>
  <fix>3d</fix>
</trkpt>
<trkpt lat="21.1677841" lon="-156.886907">
  <ele>209.0</ele>
  <time>2026-09-01T20:03:04Z</time>
  <course>341.63</course>
  <speed>23.23459704836733</speed>
  <fix>3d</fix>
</trkpt>
<trkpt lat="21.1677261" lon="-156.8868857">
  <ele>208.04</ele>
  <time>2026-09-01T20:03:04Z</time>
  <course>341.0</course>
  <speed>24.95</speed>
  <fix>3d</fix>
</trkpt>
<trkpt lat="21.1678039" lon="-156.8869137">
  <ele>209.42</ele>
  <time>2026-09-01T20:03:04Z</time>
  <course>342.06</course>
  <speed>22.661740886348515</speed>
  <fix>3d</fix>
</trkpt>
<trkpt lat="21.1677677" lon="-156.8869009">
  <ele>208.63</ele>
  <time>2026-09-01T20:03:04Z</time>
  <course>341.47</course>
  <speed>23.88</speed>
  <fix>3d</fix>
</trkpt>
<trkpt lat="21.1678231" lon="-156.8869201">
  <ele>209.86</ele>
  <time>2026-09-01T20:03:04Z</time>
  <course>342.51</course>
  <speed>22.089601626104532</speed>
  <fix>3d</fix>
</trkpt>
<trkpt lat="21.1677677" lon="-156.8869009">
  <ele>208.63</ele>
  <time>2026-09-01T20:03:04Z</time>
  <course>341.47</course>
  <speed>23.88</speed>
  <fix>3d</fix>
</trkpt>
<trkpt lat="21.1678422" lon="-156.8869263">
  <ele>210.33</ele>
  <time>2026-09-01T20:03:04Z</time>
  <course>342.95</course>
  <speed>21.510873994331334</speed>
  <fix>3d</fix>
</trkpt>
<trkpt lat="21.1678074" lon="-156.8869148">
  <ele>209.42</ele>
  <time>2026-09-01T20:03:04Z</time>
  <course>342.35</course>
  <speed>22.72</speed>
  <fix>3d</fix>
</trkpt>
<trkpt lat="21.1678605" lon="-156.8869322">
  <ele>210.82</ele>
  <time>2026-09-01T20:03:04Z</time>
  <course>343.32</course>
  <speed>20.950849624776556</speed>
  <fix>3d</fix>
</trkpt>
<trkpt lat="21.1678074" lon="-156.8869148">
  <ele>209.42</ele>
  <time>2026-09-01T20:03:04Z</time>
  <course>342.35</course>
  <speed>22.72</speed>
  <fix>3d</fix>
</trkpt>
<trkpt lat="21.1678784" lon="-156.8869378">
  <ele>211.33</ele>
  <time>2026-09-01T20:03:04Z</time>
  <course>343.63</course>
  <speed>20.383201416853048</speed>
  <fix>3d</fix>
</trkpt>
<trkpt lat="21.1678454" lon="-156.8869275">
  <ele>210.32</ele>
  <time>2026-09-01T20:03:04Z</time>
  <course>343.07</course>
  <speed>21.57</speed>
  <fix>3d</fix>
</trkpt>
<trkpt lat="21.1678959" lon="-156.8869433">
  <ele>211.85</ele>
  <time>2026-09-01T20:03:04Z</time>
  <course>343.87</course>
  <speed>19.818466136409246</speed>
  <fix>3d</fix>
</trkpt>
<trkpt lat="21.1678454" lon="-156.8869275">
  <ele>210.32</ele>
  <time>2026-09-01T20:03:04Z</time>
  <course>343.07</course>
  <speed>21.57</speed>
  <fix>3d</fix>
</trkpt>
<trkpt lat="21.1679128" lon="-156.8869486">
  <ele>212.38</ele>
  <time>2026-09-01T20:03:04Z</time>
  <course>344.06</course>
  <speed>19.259348379423432</speed>
  <fix>3d</fix>
</trkpt>
<trkpt lat="21.1678816" lon="-156.8869391">
  <ele>211.31</ele>
  <time>2026-09-01T20:03:04Z</time>
  <course>343.54</course>
  <speed>20.42</speed>
  <fix>3d</fix>
</trkpt>
<trkpt lat="21.1679293" lon="-156.8869537">
  <ele>212.93</ele>
  <time>2026-09-01T20:03:04Z</time>
  <course>344.2</course>
  <speed>18.690652744085746</speed>
  <fix>3d</fix>
</trkpt>
<trkpt lat="21.1678816" lon="-156.8869391">
  <ele>211.31</ele>
  <time>2026-09-01T20:03:04Z</time>
  <course>343.54</course>
  <speed>20.42</speed>
  <fix>3d</fix>
</trkpt>
<trkpt lat="21.1679453" lon="-156.8869587">
  <ele>213.48</ele>
  <time>2026-09-01T20:03:04Z</time>
  <course>344.31</course>
  <speed>18.117858593111933</speed>
  <fix>3d</fix>
</trkpt>
<trkpt lat="21.1679158" lon="-156.8869498">
  <ele>212.35</ele>
  <time>2026-09-01T20:03:04Z</time>
  <course>343.79</course>
  <speed>19.28</speed>
  <fix>3d</fix>
</trkpt>
<trkpt lat="21.1679608" lon="-156.8869635">
  <ele>214.04</ele>
  <time>2026-09-01T20:03:04Z</time>
  <course>344.39</course>
  <speed>17.551937215019883</speed>
  <fix>3d</fix>
</trkpt>
<trkpt lat="21.1679158" lon="-156.8869498">
  <ele>212.35</ele>
  <time>2026-09-01T20:03:04Z</time>
  <course>343.79</course>
  <speed>19.28</speed>
  <fix>3d</fix>
</trkpt>
<trkpt lat="21.1679758" lon="-156.8869681">
  <ele>214.61</ele>
  <time>2026-09-01T20:03:04Z</time>
  <course>344.45</course>
  <speed>16.9791460327073</speed>
  <fix>3d</fix>
</trkpt>
<trkpt lat="21.1679481" lon="-156.8869598">
  <ele>213.43</ele>
  <time>2026-09-01T20:03:04Z</time>
  <course>343.93</course>
  <speed>18.13</speed>
  <fix>3d</fix>
</trkpt>
<trkpt lat="21.1679903" lon="-156.8869726">
  <ele>215.19</ele>
  <time>2026-09-01T20:03:04Z</time>
  <course>344.5</course>
  <speed>16.40909503903247</speed>
  <fix>3d</fix>
</trkpt>
<trkpt lat="21.1679481" lon="-156.8869598">
  <ele>213.43</ele>
  <time>2026-09-01T20:03:04Z</time>
  <course>343.93</course>
  <speed>18.13</speed>
  <fix>3d</fix>
</trkpt>
<trkpt lat="21.1680044" lon="-156.886977">
  <ele>215.77</ele>
  <time>2026-09-01T20:03:04Z</time>
  <course>344.53</course>
  <speed>15.836303230236531</speed>
  <fix>3d</fix>
</trkpt>
<trkpt lat="21.1679785" lon="-156.8869692">
  <ele>214.56</ele>
  <time>2026-09-01T20:03:04Z</time>
  <course>344.01</course>
  <speed>16.97</speed>
  <fix>3d</fix>
</trkpt>
<trkpt lat="21.1680179" lon="-156.8869811">
  <ele>216.35</ele>
  <time>2026-09-01T20:03:04Z</time>
  <course>344.56</course>
  <speed>15.263512046707993</speed>
  <fix>3d</fix>
</trkpt>
<trkpt lat="21.1679785" lon="-156.8869692">
  <ele>214.56</ele>
  <time>2026-09-01T20:03:04Z</time>
  <course>344.01</course>
  <speed>16.97</speed>
  <fix>3d</fix>
</trkpt>
<trkpt lat="21.1680309" lon="-156.8869851">
  <ele>216.93</ele>
  <time>2026-09-01T20:03:04Z</time>
  <course>344.58</course>
  <speed>14.703077909063802</speed>
  <fix>3d</fix>
</trkpt>
<trkpt lat="21.1680068" lon="-156.8869778">
  <ele>215.7</ele>
  <time>2026-09-01T20:03:04Z</time>
  <course>344.05</course>
  <speed>15.82</speed>
  <fix>3d</fix>
</trkpt>
<trkpt lat="21.1680434" lon="-156.886989">
  <ele>217.51</ele>
  <time>2026-09-01T20:03:04Z</time>
  <course>344.59</course>
  <speed>14.133028691685304</speed>
  <fix>3d</fix>
</trkpt>
<trkpt lat="21.1680068" lon="-156.8869778">
  <ele>215.7</ele>
  <time>2026-09-01T20:03:04Z</time>
  <course>344.05</course>
  <speed>15.82</speed>
  <fix>3d</fix>
</trkpt>
<trkpt lat="21.1680554" lon="-156.8869927">
  <ele>218.08</ele>
  <time>2026-09-01T20:03:04Z</time>
  <course>344.59</course>
  <speed>13.572597393277384</speed>
  <fix>3d</fix>
</trkpt>
<trkpt lat="21.1680331" lon="-156.8869859">
  <ele>216.85</ele>
  <time>2026-09-01T20:03:04Z</time>
  <course>344.06</course>
  <speed>14.68</speed>
  <fix>3d</fix>
</trkpt>
<trkpt lat="21.168067" lon="-156.8869962">
  <ele>218.65</ele>
  <time>2026-09-01T20:03:04Z</time>
  <course>344.59</course>
  <speed>13.0149222049154</speed>
  <fix>3d</fix>
</trkpt>
<trkpt lat="21.1680331" lon="-156.8869859">
  <ele>216.85</ele>
  <time>2026-09-01T20:03:04Z</time>
  <course>344.06</course>
  <speed>14.68</speed>
  <fix>3d</fix>
</trkpt>
<trkpt lat="21.1680779" lon="-156.8869996">
  <ele>219.2</ele>
  <time>2026-09-01T20:03:04Z</time>
  <course>344.58</course>
  <speed>12.466872101694152</speed>
  <fix>3d</fix>
</trkpt>
<trkpt lat="21.1680574" lon="-156.8869934">
  <ele>217.98</ele>
  <time>2026-09-01T20:03:04Z</time>
  <course>344.04</course>
  <speed>13.54</speed>
  <fix>3d</fix>
</trkpt>
<trkpt lat="21.1680885" lon="-156.8870029">
  <ele>219.75</ele>
  <time>2026-09-01T20:03:04Z</time>
  <course>344.56</course>
  <speed>11.916060590648238</speed>
  <fix>3d</fix>
</trkpt>
<trkpt lat="21.1680574" lon="-156.8869934">
  <ele>217.98</ele>
  <time>2026-09-01T20:03:04Z</time>
  <course>344.04</course>
  <speed>13.54</speed>
  <fix>3d</fix>
</trkpt>
<trkpt lat="21.1680986" lon="-156.887006">
  <ele>220.29</ele>
  <time>2026-09-01T20:03:04Z</time>
  <course>344.54</course>
  <speed>11.387238471200996</speed>
  <fix>3d</fix>
</trkpt>
<trkpt lat="21.1680799" lon="-156.8870002">
  <ele>219.11</ele>
  <time>2026-09-01T20:03:04Z</time>
  <course>344.0</course>
  <speed>12.42</speed>
  <fix>3d</fix>
</trkpt>
<trkpt lat="21.1681082" lon="-156.887009">
  <ele>220.81</ele>
  <time>2026-09-01T20:03:04Z</time>
  <course>344.52</course>
  <speed>10.87080953747236</speed>
  <fix>3d</fix>
</trkpt>
<trkpt lat="21.1680799" lon="-156.8870002">
  <ele>219.11</ele>
  <time>2026-09-01T20:03:04Z</time>
  <course>344.0</course>
  <speed>12.42</speed>
  <fix>3d</fix>
</trkpt>
<trkpt lat="21.1681175" lon="-156.8870119">
  <ele>221.32</ele>
  <time>2026-09-01T20:03:04Z</time>
  <course>344.5</course>
  <speed>10.373601110511238</speed>
  <fix>3d</fix>
</trkpt>
<trkpt lat="21.1681005" lon="-156.8870066">
  <ele>220.18</ele>
  <time>2026-09-01T20:03:04Z</time>
  <course>343.93</course>
  <speed>11.34</speed>
  <fix>3d</fix>
</trkpt>
<trkpt lat="21.1681263" lon="-156.8870147">
  <ele>221.79</ele>
  <time>2026-09-01T20:03:04Z</time>
  <course>344.48</course>
  <speed>9.91760051625392</speed>
  <fix>3d</fix>
</trkpt>
<trkpt lat="21.1681005" lon="-156.8870066">
  <ele>220.18</ele>
  <time>2026-09-01T20:03:04Z</time>
  <course>343.93</course>
  <speed>11.34</speed>
  <fix>3d</fix>
</trkpt>
<trkpt lat="21.1681347" lon="-156.8870173">
  <ele>222.24</ele>
  <time>2026-09-01T20:03:04Z</time>
  <course>344.45</course>
  <speed>9.483612181020478</speed>
  <fix>3d</fix>
</trkpt>
<trkpt lat="21.1681192" lon="-156.8870124">
  <ele>221.18</ele>
  <time>2026-09-01T20:03:04Z</time>
  <course>343.83</course>
  <speed>10.34</speed>
  <fix>3d</fix>
</trkpt>
<trkpt lat="21.1681427" lon="-156.8870198">
  <ele>222.66</ele>
  <time>2026-09-01T20:03:04Z</time>
  <course>344.43</course>
  <speed>9.059232859354042</speed>
  <fix>3d</fix>
</trkpt>
<trkpt lat="21.1681192" lon="-156.8870124">
  <ele>221.18</ele>
  <time>2026-09-01T20:03:04Z</time>
  <course>343.83</course>
  <speed>10.34</speed>
  <fix>3d</fix>
</trkpt>
<trkpt lat="21.1681504" lon="-156.8870222">
  <ele>223.05</ele>
  <time>2026-09-01T20:03:04Z</time>
  <course>344.41</course>
  <speed>8.666469869560501</speed>
  <fix>3d</fix>
</trkpt>
<trkpt lat="21.1681362" lon="-156.8870177">
  <ele>222.1</ele>
  <time>2026-09-01T20:03:04Z</time>
  <course>343.73</course>
  <speed>9.42</speed>
  <fix>3d</fix>
</trkpt>
<trkpt lat="21.1681578" lon="-156.8870245">
  <ele>223.4</ele>
  <time>2026-09-01T20:03:04Z</time>
  <course>344.39</course>
  <speed>8.292894548949722</speed>
  <fix>3d</fix>
</trkpt>
<trkpt lat="21.1681362" lon="-156.8870177">
  <ele>222.1</ele>
  <time>2026-09-01T20:03:04Z</time>
  <course>343.73</course>
  <speed>9.42</speed>
  <fix>3d</fix>
</trkpt>
<trkpt lat="21.1681648" lon="-156.8870268">
  <ele>223.72</ele>
  <time>2026-09-01T20:03:04Z</time>
  <course>344.37</course>
  <speed>7.928909130517262</speed>
  <fix>3d</fix>
</trkpt>
<trkpt lat="21.1681517" lon="-156.8870226">
  <ele>222.89</ele>
  <time>2026-09-01T20:03:04Z</time>
  <course>343.61</course>
  <speed>8.6</speed>
  <fix>3d</fix>
</trkpt>
<trkpt lat="21.1681715" lon="-156.8870289">
  <ele>224.01</ele>
  <time>2026-09-01T20:03:04Z</time>
  <course>344.35</course>
  <speed>7.58981554453071</speed>
  <fix>3d</fix>
</trkpt>
<trkpt lat="21.1681517" lon="-156.8870226">
  <ele>222.89</ele>
  <time>2026-09-01T20:03:04Z</time>
  <course>343.61</course>
  <speed>8.6</speed>
  <fix>3d</fix>
</trkpt>
<trkpt lat="21.1681779" lon="-156.8870309">
  <ele>224.27</ele>
  <time>2026-09-01T20:03:04Z</time>
  <course>344.34</course>
  <speed>7.257451343274718</speed>
  <fix>3d</fix>
</trkpt>
<trkpt lat="21.1681658" lon="-156.8870271">
  <ele>223.56</ele>
  <time>2026-09-01T20:03:04Z</time>
  <course>343.48</course>
  <speed>7.86</speed>
  <fix>3d</fix>
</trkpt>
<trkpt lat="21.168184" lon="-156.8870329">
  <ele>224.49</ele>
  <time>2026-09-01T20:03:04Z</time>
  <course>344.33</course>
  <speed>6.95670180473477</speed>
  <fix>3d</fix>
</trkpt>
<trkpt lat="21.1681658" lon="-156.8870271">
  <ele>223.56</ele>
  <time>2026-09-01T20:03:04Z</time>
  <course>343.48</course>
  <speed>7.86</speed>
  <fix>3d</fix>
</trkpt>
<trkpt lat="21.1681899" lon="-156.8870348">
  <ele>224.67</ele>
  <time>2026-09-01T20:03:04Z</time>
  <course>344.33</course>
  <speed>6.678001197963355</speed>
  <fix>3d</fix>
</trkpt>
<trkpt lat="21.1681789" lon="-156.8870313">
  <ele>224.1</ele>
  <time>2026-09-01T20:03:04Z</time>
  <course>343.34</course>
  <speed>7.19</speed>
  <fix>3d</fix>
</trkpt>
<trkpt lat="21.1681955" lon="-156.8870366">
  <ele>224.82</ele>
  <time>2026-09-01T20:03:04Z</time>
  <course>344.33</course>
  <speed>6.428016801471508</speed>
  <fix>3d</fix>
</trkpt>
<trkpt lat="21.1681789" lon="-156.8870313">
  <ele>224.1</ele>
  <time>2026-09-01T20:03:04Z</time>
  <course>343.34</course>
  <speed>7.19</speed>
  <fix>3d</fix>
</trkpt>
<trkpt lat="21.1682009" lon="-156.8870384">
  <ele>224.93</ele>
  <time>2026-09-01T20:03:04Z</time>
  <course>344.33</course>
  <speed>6.2000806446368095</speed>
  <fix>3d</fix>
</trkpt>
<trkpt lat="21.1681907" lon="-156.8870351">
  <ele>224.5</ele>
  <time>2026-09-01T20:03:04Z</time>
  <course>343.2</course>
  <speed>6.6</speed>
  <fix>3d</fix>
</trkpt>
<trkpt lat="21.1682062" lon="-156.8870401">
  <ele>225.02</ele>
  <time>2026-09-01T20:03:04Z</time>
  <course>344.34</course>
  <speed>5.991276992428242</speed>
  <fix>3d</fix>
</trkpt>
<trkpt lat="21.1681907" lon="-156.8870351">
  <ele>224.5</ele>
  <time>2026-09-01T20:03:04Z</time>
  <course>343.2</course>
  <speed>6.6</speed>
  <fix>3d</fix>
</trkpt>
<trkpt lat="21.1682112" lon="-156.8870418">
  <ele>225.06</ele>
  <time>2026-09-01T20:03:04Z</time>
  <course>344.35</course>
  <speed>5.804524097632811</speed>
  <fix>3d</fix>
</trkpt>
<trkpt lat="21.1682016" lon="-156.8870385">
  <ele>224.76</ele>
  <time>2026-09-01T20:03:04Z</time>
  <course>343.07</course>
  <speed>6.11</speed>
  <fix>3d</fix>
</trkpt>
<trkpt lat="21.1682161" lon="-156.8870434">
  <ele>225.08</ele>
  <time>2026-09-01T20:03:04Z</time>
  <course>344.36</course>
  <speed>5.649389347531288</speed>
  <fix>3d</fix>
</trkpt>
<trkpt lat="21.1682016" lon="-156.8870385">
  <ele>224.76</ele>
  <time>2026-09-01T20:03:04Z</time>
  <course>343.07</course>
  <speed>6.11</speed>
  <fix>3d</fix>
</trkpt>
<trkpt lat="21.1682209" lon="-156.8870449">
  <ele>225.04</ele>
  <time>2026-09-01T20:03:04Z</time>
  <course>344.38</course>
  <speed>5.491320424087453</speed>
  <fix>3d</fix>
</trkpt>
<trkpt lat="21.1682117" lon="-156.8870419">
  <ele>224.89</ele>
  <time>2026-09-01T20:03:04Z</time>
  <course>342.95</course>
  <speed>5.72</speed>
  <fix>3d</fix>
</trkpt>
<trkpt lat="21.1682255" lon="-156.8870465">
  <ele>224.93</ele>
  <time>2026-09-01T20:03:04Z</time>
  <course>344.38</course>
  <speed>5.292078986560953</speed>
  <fix>3d</fix>
</trkpt>
<trkpt lat="21.1682117" lon="-156.8870419">
  <ele>224.89</ele>
  <time>2026-09-01T20:03:04Z</time>
  <course>342.95</course>
  <speed>5.72</speed>
  <fix>3d</fix>
</trkpt>
<trkpt lat="21.1682299" lon="-156.8870479">
  <ele>224.75</ele>
  <time>2026-09-01T20:03:04Z</time>
  <course>344.37</course>
  <speed>5.042102735962447</speed>
  <fix>3d</fix>
</trkpt>
<trkpt lat="21.1682213" lon="-156.8870451">
  <ele>224.85</ele>
  <time>2026-09-01T20:03:04Z</time>
  <course>342.88</course>
  <speed>5.37</speed>
  <fix>3d</fix>
</trkpt>
<trkpt lat="21.1682341" lon="-156.8870493">
  <ele>224.49</ele>
  <time>2026-09-01T20:03:04Z</time>
  <course>344.38</course>
  <speed>4.719343174637759</speed>
  <fix>3d</fix>
</trkpt>
<trkpt lat="21.1682213" lon="-156.8870451">
  <ele>224.85</ele>
  <time>2026-09-01T20:03:04Z</time>
  <course>342.88</course>
  <speed>5.37</speed>
  <fix>3d</fix>
</trkpt>
<trkpt lat="21.1682379" lon="-156.8870506">
  <ele>224.2</ele>
  <time>2026-09-01T20:03:04Z</time>
  <course>344.48</course>
  <speed>4.323806193621541</speed>
  <fix>3d</fix>
</trkpt>
<trkpt lat="21.1682302" lon="-156.887048">
  <ele>224.57</ele>
  <time>2026-09-01T20:03:04Z</time>
  <course>342.83</course>
  <speed>4.92</speed>
  <fix>3d</fix>
</trkpt>
<trkpt lat="21.1682414" lon="-156.8870517">
  <ele>223.87</ele>
  <time>2026-09-01T20:03:04Z</time>
  <course>344.72</course>
  <speed>3.8555025612752485</speed>
  <fix>3d</fix>
</trkpt>
<trkpt lat="21.1682302" lon="-156.887048">
  <ele>224.57</ele>
  <time>2026-09-01T20:03:04Z</time>
  <course>342.83</course>
  <speed>4.92</speed>
  <fix>3d</fix>
</trkpt>
<trkpt lat="21.1682445" lon="-156.8870527">
  <ele>223.53</ele>
  <time>2026-09-01T20:03:04Z</time>
  <course>345.08</course>
  <speed>3.355607247578298</speed>
  <fix>3d</fix>
</trkpt>
<trkpt lat="21.168238" lon="-156.8870506">
  <ele>224.05</ele>
  <time>2026-09-01T20:03:04Z</time>
  <course>342.7</course>
  <speed>4.21</speed>
  <fix>3d</fix>
</trkpt>
<trkpt lat="21.1682471" lon="-156.8870536">
  <ele>223.19</ele>
  <time>2026-09-01T20:03:04Z</time>
  <course>345.52</course>
  <speed>2.843184833949422</speed>
  <fix>3d</fix>
</trkpt>
<trkpt lat="21.168238" lon="-156.8870506">
  <ele>224.05</ele>
  <time>2026-09-01T20:03:04Z</time>
  <course>342.7</course>
  <speed>4.21</speed>
  <fix>3d</fix>
</trkpt>
<trkpt lat="21.1682493" lon="-156.8870544">
  <ele>222.85</ele>
  <time>2026-09-01T20:03:04Z</time>
  <course>345.98</course>
  <speed>2.3433522995913356</speed>
  <fix>3d</fix>
</trkpt>
<trkpt lat="21.1682445" lon="-156.8870528">
  <ele>223.4</ele>
  <time>2026-09-01T20:03:04Z</time>
  <course>342.4</course>
  <speed>3.28</speed>
  <fix>3d</fix>
</trkpt>
<trkpt lat="21.168251" lon="-156.887055">
  <ele>222.54</ele>
  <time>2026-09-01T20:03:04Z</time>
  <course>346.43</course>
  <speed>1.884728097100481</speed>
  <fix>3d</fix>
</trkpt>
<trkpt lat="21.1682445" lon="-156.8870528">
  <ele>223.4</ele>
  <time>2026-09-01T20:03:04Z</time>
  <course>342.4</course>
  <speed>3.28</speed>
  <fix>3d</fix>
</trkpt>
<trkpt lat="21.1682524" lon="-156.8870555">
  <ele>222.24</ele>
  <time>2026-09-01T20:03:04Z</time>
  <course>346.84</course>
  <speed>1.4546477236774544</speed>
  <fix>3d</fix>
</trkpt>
<trkpt lat="21.1682492" lon="-156.8870544">
  <ele>222.75</ele>
  <time>2026-09-01T20:03:04Z</time>
  <course>341.96</course>
  <speed>2.3</speed>
  <fix>3d</fix>
</trkpt>
<trkpt lat="21.1682535" lon="-156.8870559">
  <ele>221.98</ele>
  <time>2026-09-01T20:03:04Z</time>
  <course>347.18</course>
  <speed>1.0530432089900206</speed>
  <fix>3d</fix>
</trkpt>
<trkpt lat="21.1682492" lon="-156.8870544">
  <ele>222.75</ele>
  <time>2026-09-01T20:03:04Z</time>
  <course>341.96</course>
  <speed>2.3</speed>
  <fix>3d</fix>
</trkpt>
<trkpt lat="21.1682542" lon="-156.8870561">
  <ele>221.73</ele>
  <time>2026-09-01T20:03:04Z</time>
  <course>347.38</course>
  <speed>0.6896375859826667</speed>
  <fix>3d</fix>
</trkpt>
<trkpt lat="21.1682524" lon="-156.8870555">
  <ele>222.16</ele>
  <time>2026-09-01T20:03:04Z</time>
  <course>341.46</course>
  <speed>1.4</speed>
  <fix>3d</fix>
</trkpt>
<trkpt lat="21.1682546" lon="-156.8870563">
  <ele>221.52</ele>
  <time>2026-09-01T20:03:04Z</time>
  <course>347.58</course>
  <speed>0.35735136770411274</speed>
  <fix>3d</fix>
</trkpt>
<trkpt lat="21.1682524" lon="-156.8870555">
  <ele>222.16</ele>
  <time>2026-09-01T20:03:04Z</time>
  <course>341.46</course>
  <speed>1.4</speed>
  <fix>3d</fix>
</trkpt>
<trkpt lat="21.1682548" lon="-156.8870564">
  <ele>221.33</ele>
  <time>2026-09-01T20:03:04Z</time>
  <course>348.15</course>
  <speed>0.05830951894845301</speed>
  <fix>3d</fix>
</trkpt>
<trkpt lat="21.1682541" lon="-156.8870562">
  <ele>221.65</ele>
  <time>2026-09-01T20:03:04Z</time>
  <course>340.59</course>
  <speed>0.63</speed>
  <fix>3d</fix>
</trkpt>
<trkpt lat="21.1682547" lon="-156.8870564">
  <ele>221.17</ele>
  <time>2026-09-01T20:03:04Z</time>
  <course>349.02</course>
  <speed>0.19026297590440447</speed>
  <fix>3d</fix>
</trkpt>
<trkpt lat="21.1682541" lon="-156.8870562">
  <ele>221.65</ele>
  <time>2026-09-01T20:03:04Z</time>
  <course>340.59</course>
  <speed>0.63</speed>
  <fix>3d</fix>
</trkpt>
<trkpt lat="21.1682545" lon="-156.8870563">
  <ele>221.02</ele>
  <time>2026-09-01T20:03:04Z</time>
  <course>350.08</course>
  <speed>0.4242640687119285</speed>
  <fix>3d</fix>
</trkpt>
<trkpt lat="21.1682546" lon="-156.8870564">
  <ele>221.26</ele>
  <time>2026-09-01T20:03:04Z</time>
  <course>261.25</course>
  <speed>0.04</speed>
  <fix>3d</fix>
</trkpt>
<trkpt lat="21.168254" lon="-156.8870563">
  <ele>220.91</ele>
  <time>2026-09-01T20:03:04Z</time>
  <course>351.05</course>
  <speed>0.608276253029822</speed>
  <fix>3d</fix>
</trkpt>
<trkpt lat="21.1682546" lon="-156.8870564">
  <ele>221.26</ele>
  <time>2026-09-01T20:03:04Z</time>
  <course>261.25</course>
  <speed>0.04</speed>
  <fix>3d</fix>
</trkpt>
<trkpt lat="21.1682534" lon="-156.8870562">
  <ele>220.81</ele>
  <time>2026-09-01T20:03:04Z</time>
  <course>351.73</course>
  <speed>0.7550496672405067</speed>
  <fix>3d</fix>
</trkpt>
<trkpt lat="21.1682541" lon="-156.8870564">
  <ele>220.97</ele>
  <time>2026-09-01T20:03:04Z</time>
  <course>172.15</course>
  <speed>0.48</speed>
  <fix>3d</fix>
</trkpt>
<trkpt lat="21.1682526" lon="-156.8870561">
  <ele>220.72</ele>
  <time>2026-09-01T20:03:04Z</time>
  <course>352.11</course>
  <speed>0.863481325796916</speed>
  <fix>3d</fix>
</trkpt>
<trkpt lat="21.1682541" lon="-156.8870564">
  <ele>220.97</ele>
  <time>2026-09-01T20:03:04Z</time>
  <course>172.15</course>
  <speed>0.48</speed>
  <fix>3d</fix>
</trkpt>
<trkpt lat="21.1682518" lon="-156.8870558">
  <ele>220.65</ele>
  <time>2026-09-01T20:03:04Z</time>
  <course>352.25</course>
  <speed>0.9289241088485108</speed>
  <fix>3d</fix>
</trkpt>
<trkpt lat="21.168253" lon="-156.8870562">
  <ele>220.76</ele>
  <time>2026-09-01T20:03:04Z</time>
  <course>169.01</course>
  <speed>0.82</speed>
  <fix>3d</fix>
</trkpt>
<trkpt lat="21.1682509" lon="-156.8870556">
  <ele>220.58</ele>
  <time>2026-09-01T20:03:04Z</time>
  <course>352.21</course>
  <speed>0.978008179924892</speed>
  <fix>3d</fix>
</trkpt>
<trkpt lat="21.168253" lon="-156.8870562">
  <ele>220.76</ele>
  <time>2026-09-01T20:03:04Z</time>
  <course>169.01</course>
  <speed>0.82</speed>
  <fix>3d</fix>
</trkpt>
<trkpt lat="21.16825" lon="-156.8870553">
  <ele>220.52</ele>
  <time>2026-09-01T20:03:04Z</time>
  <course>352.08</course>
  <speed>1.002845950283492</speed>
  <fix>3d</fix>
</trkpt>
<trkpt lat="21.1682515" lon="-156.8870559">
  <ele>220.62</ele>
  <time>2026-09-01T20:03:04Z</time>
  <course>166.63</course>
  <speed>1.0</speed>
  <fix>3d</fix>
</trkpt>
<trkpt lat="21.1682491" lon="-156.8870551">
  <ele>220.46</ele>
  <time>2026-09-01T20:03:04Z</time>
  <course>351.91</course>
  <speed>1.0088111815399352</speed>
  <fix>3d</fix>
</trkpt>
<trkpt lat="21.1682515" lon="-156.8870559">
  <ele>220.62</ele>
  <time>2026-09-01T20:03:04Z</time>
  <course>166.63</course>
  <speed>1.0</speed>
  <fix>3d</fix>
</trkpt>
<trkpt lat="21.1682482" lon="-156.8870548">
  <ele>220.39</ele>
  <time>2026-09-01T20:03:04Z</time>
  <course>351.74</course>
  <speed>1.0151354589413177</speed>
  <fix>3d</fix>
</trkpt>
<trkpt lat="21.1682496" lon="-156.8870554">
  <ele>220.5</ele>
  <time>2026-09-01T20:03:04Z</time>
  <course>164.68</course>
  <speed>1.07</speed>
  <fix>3d</fix>
</trkpt>
<trkpt lat="21.1682473" lon="-156.8870544">
  <ele>220.33</ele>
  <time>2026-09-01T20:03:04Z</time>
  <course>351.6</course>
  <speed>1.0090094152187086</speed>
  <fix>3d</fix>
</trkpt>
<trkpt lat="21.1682496" lon="-156.8870554">
  <ele>220.5</ele>
  <time>2026-09-01T20:03:04Z</time>
  <course>164.68</course>
  <speed>1.07</speed>
  <fix>3d</fix>
</trkpt>
<trkpt lat="21.1682464" lon="-156.8870541">
  <ele>220.25</ele>
  <time>2026-09-01T20:03:04Z</time>
  <course>351.5</course>
  <speed>1.0124228365658294</speed>
  <fix>3d</fix>
</trkpt>
<trkpt lat="21.1682477" lon="-156.8870547">
  <ele>220.38</ele>
  <time>2026-09-01T20:03:04Z</time>
  <course>163.21</course>
  <speed>1.09</speed>
  <fix>3d</fix>
</trkpt>
<trkpt lat="21.1682455" lon="-156.8870538">
  <ele>220.18</ele>
  <time>2026-09-01T20:03:04Z</time>
  <course>351.46</course>
  <speed>0.9936800289831733</speed>
  <fix>3d</fix>
</trkpt>
<trkpt lat="21.1682477" lon="-156.8870547">
  <ele>220.38</ele>
  <time>2026-09-01T20:03:04Z</time>
  <course>163.21</course>
  <speed>1.09</speed>
  <fix>3d</fix>
</trkpt>
<trkpt lat="21.1682447" lon="-156.8870535">
  <ele>220.09</ele>
  <time>2026-09-01T20:03:04Z</time>
  <course>351.49</course>
  <speed>0.9843271813782245</speed>
  <fix>3d</fix>
</trkpt>
<trkpt lat="21.1682459" lon="-156.8870542">
  <ele>220.25</ele>
  <time>2026-09-01T20:03:04Z</time>
  <course>162.32</course>
  <speed>1.07</speed>
  <fix>3d</fix>
</trkpt>
<trkpt lat="21.1682438" lon="-156.8870531">
  <ele>220.0</ele>
  <time>2026-09-01T20:03:04Z</time>
  <course>351.57</course>
  <speed>0.9714422267947797</speed>
  <fix>3d</fix>
</trkpt>
<trkpt lat="21.1682459" lon="-156.8870542">
  <ele>220.25</ele>
  <time>2026-09-01T20:03:04Z</time>
  <course>162.32</course>
  <speed>1.07</speed>
  <fix>3d</fix>
</trkpt>
<trkpt lat="21.1682429" lon="-156.8870528">
  <ele>219.9</ele>
  <time>2026-09-01T20:03:04Z</time>
  <course>351.72</course>
  <speed>0.9620810776644555</speed>
  <fix>3d</fix>
</trkpt>
<trkpt lat="21.1682441" lon="-156.8870536">
  <ele>220.09</ele>
  <time>2026-09-01T20:03:04Z</time>
  <course>162.03</course>
  <speed>1.05</speed>
  <fix>3d</fix>
</trkpt>
<trkpt lat="21.1682421" lon="-156.8870525">
  <ele>219.79</ele>
  <time>2026-09-01T20:03:04Z</time>
  <course>351.92</course>
  <speed>0.9492101980067429</speed>
  <fix>3d</fix>
</trkpt>
<trkpt lat="21.1682441" lon="-156.8870536">
  <ele>220.09</ele>
  <time>2026-09-01T20:03:04Z</time>
  <course>162.03</course>
  <speed>1.05</speed>
  <fix>3d</fix>
</trkpt>
<trkpt lat="21.1682412" lon="-156.8870522">
  <ele>219.68</ele>
  <time>2026-09-01T20:03:04Z</time>
  <course>352.15</course>
  <speed>0.9269843580125827</speed>
  <fix>3d</fix>
</trkpt>
<trkpt lat="21.1682423" lon="-156.8870529">
  <ele>219.91</ele>
  <time>2026-09-01T20:03:04Z</time>
  <course>162.3</course>
  <speed>1.01</speed>
  <fix>3d</fix>
</trkpt>
<trkpt lat="21.1682404" lon="-156.8870519">
  <ele>219.56</ele>
  <time>2026-09-01T20:03:05Z</time>
  <course>352.39</course>
  <speed>0.914166286842826</speed>
  <fix>3d</fix>
</trkpt>
<trkpt lat="21.1682423" lon="-156.8870529">
  <ele>219.91</ele>
  <time>2026-09-01T20:03:05Z</time>
  <course>162.3</course>
  <speed>1.01</speed>
  <fix>3d</fix>
</trkpt>
<trkpt lat="21.1682395" lon="-156.8870517">
  <ele>219.44</ele>
  <time>2026-09-01T20:03:05Z</time>
  <course>352.64</course>
  <speed>0.9013878188659973</speed>
  <fix>3d</fix>
</trkpt>
<trkpt lat="21.1682406" lon="-156.8870524">
  <ele>219.69</ele>
  <time>2026-09-01T20:03:05Z</time>
  <course>163.02</course>
  <speed>0.98</speed>
  <fix>3d</fix>
</trkpt>
<trkpt lat="21.1682387" lon="-156.8870514">
  <ele>219.31</ele>
  <time>2026-09-01T20:03:05Z</time>
  <course>352.87</course>
  <speed>0.8854377448471462</speed>
  <fix>3d</fix>
</trkpt>
<trkpt lat="21.1682406" lon="-156.8870524">
  <ele>219.69</ele>
  <time>2026-09-01T20:03:05Z</time>
  <course>163.02</course>
  <speed>0.98</speed>
  <fix>3d</fix>
</trkpt>
<trkpt lat="21.1682379" lon="-156.8870512">
  <ele>219.19</ele>
  <time>2026-09-01T20:03:05Z</time>
  <course>353.07</course>
  <speed>0.8728115489611719</speed>
  <fix>3d</fix>
</trkpt>
<trkpt lat="21.1682389" lon="-156.8870518">
  <ele>219.46</ele>
  <time>2026-09-01T20:03:05Z</time>
  <course>164.03</course>
  <speed>0.94</speed>
  <fix>3d</fix>
</trkpt>
<trkpt lat="21.1682372" lon="-156.8870509">
  <ele>219.06</ele>
  <time>2026-09-01T20:03:05Z</time>
  <course>353.22</course>
  <speed>0.8507055894961546</speed>
  <fix>3d</fix>
</trkpt>
<trkpt lat="21.1682389" lon="-156.8870518">
  <ele>219.46</ele>
  <time>2026-09-01T20:03:05Z</time>
  <course>164.03</course>
  <speed>0.94</speed>
  <fix>3d</fix>
</trkpt>
<trkpt lat="21.1682364" lon="-156.8870507">
  <ele>218.93</ele>
  <time>2026-09-01T20:03:05Z</time>
  <course>353.31</course>
  <speed>0.8381527307120105</speed>
  <fix>3d</fix>
</trkpt>
<trkpt lat="21.1682373" lon="-156.8870514">
  <ele>219.22</ele>
  <time>2026-09-01T20:03:05Z</time>
  <course>165.16</course>
  <speed>0.9</speed>
  <fix>3d</fix>
</trkpt>
<trkpt lat="21.1682356" lon="-156.8870505">
  <ele>218.8</ele>
  <time>2026-09-01T20:03:05Z</time>
  <course>353.34</course>
  <speed>0.8256512580987205</speed>
  <fix>3d</fix>
</trkpt>
<trkpt lat="21.1682373" lon="-156.8870514">
  <ele>219.22</ele>
  <time>2026-09-01T20:03:05Z</time>
  <course>165.16</course>
  <speed>0.9</speed>
  <fix>3d</fix>
</trkpt>
<trkpt lat="21.1682348" lon="-156.8870503">
  <ele>218.68</ele>
  <time>2026-09-01T20:03:05Z</time>
  <course>353.3</course>
  <speed>0.8132035415564789</speed>
  <fix>3d</fix>
</trkpt>
<trkpt lat="21.1682357" lon="-156.8870509">
  <ele>218.97</ele>
  <time>2026-09-01T20:03:05Z</time>
  <course>166.31</course>
  <speed>0.87</speed>
  <fix>3d</fix>
</trkpt>
<trkpt lat="21.1682341" lon="-156.8870501">
  <ele>218.55</ele>
  <time>2026-09-01T20:03:05Z</time>
  <course>353.21</course>
  <speed>0.800812087820857</speed>
  <fix>3d</fix>
</trkpt>
<trkpt lat="21.1682357" lon="-156.8870509">
  <ele>218.97</ele>
  <time>2026-09-01T20:03:05Z</time>
  <course>166.31</course>
  <speed>0.87</speed>
  <fix>3d</fix>
</trkpt>
<trkpt lat="21.1682334" lon="-156.88705">
  <ele>218.42</ele>
  <time>2026-09-01T20:03:05Z</time>
  <course>353.04</course>
  <speed>0.7788452991448301</speed>
  <fix>3d</fix>
</trkpt>
<trkpt lat="21.1682343" lon="-156.8870506">
  <ele>218.73</ele>
  <time>2026-09-01T20:03:05Z</time>
  <course>167.43</course>
  <speed>0.83</speed>
  <fix>3d</fix>
</trkpt>
<trkpt lat="21.1682327" lon="-156.8870498">
  <ele>218.3</ele>
  <time>2026-09-01T20:03:05Z</time>
  <course>352.83</course>
  <speed>0.766550715869472</speed>
  <fix>3d</fix>
</trkpt>
<trkpt lat="21.1682343" lon="-156.8870506">
  <ele>218.73</ele>
  <time>2026-09-01T20:03:05Z</time>
  <course>167.43</course>
  <speed>0.83</speed>
  <fix>3d</fix>
</trkpt>
<trkpt lat="21.1682319" lon="-156.8870497">
  <ele>218.18</ele>
  <time>2026-09-01T20:03:05Z</time>
  <course>352.57</course>
  <speed>0.7543208866258443</speed>
  <fix>3d</fix>
</trkpt>
<trkpt lat="21.1682329" lon="-156.8870502">
  <ele>218.48</ele>
  <time>2026-09-01T20:03:05Z</time>
  <course>168.56</course>
  <speed>0.79</speed>
  <fix>3d</fix>
</trkpt>
<trkpt lat="21.1682313" lon="-156.8870495">
  <ele>218.06</ele>
  <time>2026-09-01T20:03:05Z</time>
  <course>352.27</course>
  <speed>0.7324616030891995</speed>
  <fix>3d</fix>
</trkpt>
<trkpt lat="21.1682329" lon="-156.8870502">
  <ele>218.48</ele>
  <time>2026-09-01T20:03:05Z</time>
  <course>168.56</course>
  <speed>0.79</speed>
  <fix>3d</fix>
</trkpt>
<trkpt lat="21.1682306" lon="-156.8870494">
  <ele>217.94</ele>
  <time>2026-09-01T20:03:05Z</time>
  <course>351.95</course>
  <speed>0.7180529228406496</speed>
  <fix>3d</fix>
</trkpt>
<trkpt lat="21.1682314" lon="-156.8870499">
  <ele>218.25</ele>
  <time>2026-09-01T20:03:05Z</time>
  <course>169.73</course>
  <speed>0.76</speed>
  <fix>3d</fix>
</trkpt>
<trkpt lat="21.1682299" lon="-156.8870493">
  <ele>217.82</ele>
  <time>2026-09-01T20:03:05Z</time>
  <course>351.62</course>
  <speed>0.6963476143421474</speed>
  <fix>3d</fix>
</trkpt>
<trkpt lat="21.1682314" lon="-156.8870499">
  <ele>218.25</ele>
  <time>2026-09-01T20:03:05Z</time>
  <course>169.73</course>
  <speed>0.76</speed>
  <fix>3d</fix>
</trkpt>
<trkpt lat="21.1682293" lon="-156.8870492">
  <ele>217.71</ele>
  <time>2026-09-01T20:03:05Z</time>
  <course>351.28</course>
  <speed>0.6844705983459041</speed>
  <fix>3d</fix>
</trkpt>
<trkpt lat="21.1682301" lon="-156.8870496">
  <ele>218.02</ele>
  <time>2026-09-01T20:03:05Z</time>
  <course>170.98</course>
  <speed>0.72</speed>
  <fix>3d</fix>
</trkpt>
<trkpt lat="21.1682287" lon="-156.8870491">
  <ele>217.59</ele>
  <time>2026-09-01T20:03:05Z</time>
  <course>350.94</course>
  <speed>0.6649060083951716</speed>
  <fix>3d</fix>
</trkpt>
<trkpt lat="21.1682301" lon="-156.8870496">
  <ele>218.02</ele>
  <time>2026-09-01T20:03:05Z</time>
  <course>170.98</course>
  <speed>0.72</speed>
  <fix>3d</fix>
</trkpt>
<trkpt lat="21.1682281" lon="-156.887049">
  <ele>217.48</ele>
  <time>2026-09-01T20:03:05Z</time>
  <course>350.44</course>
  <speed>0.6453681120105021</speed>
  <fix>3d</fix>
</trkpt>
<trkpt lat="21.1682289" lon="-156.8870495">
  <ele>217.79</ele>
  <time>2026-09-01T20:03:05Z</time>
  <course>172.11</course>
  <speed>0.68</speed>
  <fix>3d</fix>
</trkpt>
<trkpt lat="21.1682275" lon="-156.8870489">
  <ele>217.36</ele>
  <time>2026-09-01T20:03:05Z</time>
  <course>349.82</course>
  <speed>0.6258594091327541</speed>
  <fix>3d</fix>
</trkpt>
<trkpt lat="21.1682289" lon="-156.8870495">
  <ele>217.79</ele>
  <time>2026-09-01T20:03:05Z</time>
  <course>172.11</course>
  <speed>0.68</speed>
  <fix>3d</fix>
</trkpt>
<trkpt lat="21.1682269" lon="-156.8870488">
  <ele>217.25</ele>
  <time>2026-09-01T20:03:05Z</time>
  <course>349.12</course>
  <speed>0.5990826320300063</speed>
  <fix>3d</fix>
</trkpt>
<trkpt lat="21.1682277" lon="-156.8870493">
  <ele>217.57</ele>
  <time>2026-09-01T20:03:05Z</time>
  <course>172.06</course>
  <speed>0.63</speed>
  <fix>3d</fix>
</trkpt>
<trkpt lat="21.1682264" lon="-156.8870487">
  <ele>217.14</ele>
  <time>2026-09-01T20:03:05Z</time>
  <course>348.43</course>
  <speed>0.5797413216254298</speed>
  <fix>3d</fix>
</trkpt>
<trkpt lat="21.1682277" lon="-156.8870493">
  <ele>217.57</ele>
  <time>2026-09-01T20:03:05Z</time>
  <course>172.06</course>
  <speed>0.63</speed>
  <fix>3d</fix>
</trkpt>
<trkpt lat="21.1682259" lon="-156.8870486">
  <ele>217.03</ele>
  <time>2026-09-01T20:03:05Z</time>
  <course>347.84</course>
  <speed>0.5508175741568164</speed>
  <fix>3d</fix>
</trkpt>
<trkpt lat="21.1682266" lon="-156.8870491">
  <ele>217.35</ele>
  <time>2026-09-01T20:03:05Z</time>
  <course>170.79</course>
  <speed>0.58</speed>
  <fix>3d</fix>
</trkpt>
<trkpt lat="21.1682254" lon="-156.8870485">
  <ele>216.92</ele>
  <time>2026-09-01T20:03:05Z</time>
  <course>347.43</course>
  <speed>0.5316013544000805</speed>
  <fix>3d</fix>
</trkpt>
<trkpt lat="21.1682266" lon="-156.8870491">
  <ele>217.35</ele>
  <time>2026-09-01T20:03:05Z</time>
  <course>170.79</course>
  <speed>0.58</speed>
  <fix>3d</fix>
</trkpt>
<trkpt lat="21.1682249" lon="-156.8870484">
  <ele>216.81</ele>
  <time>2026-09-01T20:03:05Z</time>
  <course>347.23</course>
  <speed>0.5</speed>
  <fix>3d</fix>
</trkpt>
<trkpt lat="21.1682257" lon="-156.887049">
  <ele>217.14</ele>
  <time>2026-09-01T20:03:05Z</time>
  <course>169.57</course>
  <speed>0.53</speed>
  <fix>3d</fix>
</trkpt>
<trkpt lat="21.1682245" lon="-156.8870483">
  <ele>216.7</ele>
  <time>2026-09-01T20:03:05Z</time>
  <course>347.23</course>
  <speed>0.4808326112068523</speed>
  <fix>3d</fix>
</trkpt>
<trkpt lat="21.1682257" lon="-156.887049">
  <ele>217.14</ele>
  <time>2026-09-01T20:03:05Z</time>
  <course>169.57</course>
  <speed>0.53</speed>
  <fix>3d</fix>
</trkpt>
<trkpt lat="21.1682241" lon="-156.8870482">
  <ele>216.58</ele>
  <time>2026-09-01T20:03:05Z</time>
  <course>347.41</course>
  <speed>0.44922154890432403</speed>
  <fix>3d</fix>
</trkpt>
<trkpt lat="21.1682247" lon="-156.8870488">
  <ele>216.92</ele>
  <time>2026-09-01T20:03:05Z</time>
  <course>169.01</course>
  <speed>0.47</speed>
  <fix>3d</fix>
</trkpt>
<trkpt lat="21.1682237" lon="-156.8870482">
  <ele>216.47</ele>
  <time>2026-09-01T20:03:05Z</time>
  <course>347.72</course>
  <speed>0.417612260356422</speed>
  <fix>3d</fix>
</trkpt>
<trkpt lat="21.1682247" lon="-156.8870488">
  <ele>216.92</ele>
  <time>2026-09-01T20:03:05Z</time>
  <course>169.01</course>
  <speed>0.47</speed>
  <fix>3d</fix>
</trkpt>
<trkpt lat="21.1682233" lon="-156.8870481">
  <ele>216.35</ele>
  <time>2026-09-01T20:03:05Z</time>
  <course>348.09</course>
  <speed>0.38600518131237566</speed>
  <fix>3d</fix>
</trkpt>
<trkpt lat="21.168224" lon="-156.8870486">
  <ele>216.7</ele>
  <time>2026-09-01T20:03:05Z</time>
  <course>169.4</course>
  <speed>0.41</speed>
  <fix>3d</fix>
</trkpt>
<trkpt lat="21.168223" lon="-156.8870481">
  <ele>216.24</ele>
  <time>2026-09-01T20:03:05Z</time>
  <course>348.44</course>
  <speed>0.354400902933387</speed>
  <fix>3d</fix>
</trkpt>
<trkpt lat="21.168224" lon="-156.8870486">
  <ele>216.7</ele>
  <time>2026-09-01T20:03:05Z</time>
  <course>169.4</course>
  <speed>0.41</speed>
  <fix>3d</fix>
</trkpt>
<trkpt lat="21.1682227" lon="-156.887048">
  <ele>216.13</ele>
  <time>2026-09-01T20:03:05Z</time>
  <course>348.71</course>
  <speed>0.32280024783137945</speed>
  <fix>3d</fix>
</trkpt>
<trkpt lat="21.1682232" lon="-156.8870485">
  <ele>216.48</ele>
  <time>2026-09-01T20:03:05Z</time>
  <course>170.49</course>
  <speed>0.35</speed>
  <fix>3d</fix>
</trkpt>
<trkpt lat="21.1682225" lon="-156.887048">
  <ele>216.01</ele>
  <time>2026-09-01T20:03:05Z</time>
  <course>348.87</course>
  <speed>0.29120439557122074</speed>
  <fix>3d</fix>
</trkpt>
<trkpt lat="21.1682232" lon="-156.8870485">
  <ele>216.48</ele>
  <time>2026-09-01T20:03:05Z</time>
  <course>170.49</course>
  <speed>0.35</speed>
  <fix>3d</fix>
</trkpt>
<trkpt lat="21.1682222" lon="-156.887048">
  <ele>215.89</ele>
  <time>2026-09-01T20:03:05Z</time>
  <course>348.93</course>
  <speed>0.2596150997149434</speed>
  <fix>3d</fix>
</trkpt>
<trkpt lat="21.1682227" lon="-156.8870484">
  <ele>216.26</ele>
  <time>2026-09-01T20:03:05Z</time>
  <course>171.89</course>
  <speed>0.28</speed>
  <fix>3d</fix>
</trkpt>
<trkpt lat="21.168222" lon="-156.8870479">
  <ele>215.78</ele>
  <time>2026-09-01T20:03:05Z</time>
  <course>348.88</course>
  <speed>0.22135943621178655</speed>
  <fix>3d</fix>
</trkpt>
<trkpt lat="21.1682227" lon="-156.8870484">
  <ele>216.26</ele>
  <time>2026-09-01T20:03:05Z</time>
  <course>171.89</course>
  <speed>0.28</speed>
  <fix>3d</fix>
</trkpt>
<trkpt lat="21.1682218" lon="-156.8870479">
  <ele>215.67</ele>
  <time>2026-09-01T20:03:05Z</time>
  <course>348.75</course>
  <speed>0.18973665961010278</speed>
  <fix>3d</fix>
</trkpt>
<trkpt lat="21.1682222" lon="-156.8870483">
  <ele>216.04</ele>
  <time>2026-09-01T20:03:05Z</time>
  <course>173.48</course>
  <speed>0.21</speed>
  <fix>3d</fix>
</trkpt>
<trkpt lat="21.1682217" lon="-156.8870479">
  <ele>215.56</ele>
  <time>2026-09-01T20:03:05Z</time>
  <course>348.59</course>
  <speed>0.14866068747318506</speed>
  <fix>3d</fix>
</trkpt>
<trkpt lat="21.1682222" lon="-156.8870483">
  <ele>216.04</ele>
  <time>2026-09-01T20:03:05Z</time>
  <course>173.48</course>
  <speed>0.21</speed>
  <fix>3d</fix>
</trkpt>
<trkpt lat="21.1682216" lon="-156.8870479">
  <ele>215.45</ele>
  <time>2026-09-01T20:03:05Z</time>
  <course>348.43</course>
  <speed>0.11704699910719625</speed>
  <fix>3d</fix>
</trkpt>
<trkpt lat="21.168222" lon="-156.8870483">
  <ele>215.82</ele>
  <time>2026-09-01T20:03:05Z</time>
  <course>176.03</course>
  <speed>0.14</speed>
  <fix>3d</fix>
</trkpt>
<trkpt lat="21.1682215" lon="-156.8870479">
  <ele>215.34</ele>
  <time>2026-09-01T20:03:05Z</time>
  <course>348.28</course>
  <speed>0.08062257748298549</speed>
  <fix>3d</fix>
</trkpt>
<trkpt lat="21.168222" lon="-156.8870483">
  <ele>215.82</ele>
  <time>2026-09-01T20:03:05Z</time>
  <course>176.03</course>
  <speed>0.14</speed>
  <fix>3d</fix>
</trkpt>
<trkpt lat="21.1682215" lon="-156.8870479">
  <ele>215.23</ele>
  <time>2026-09-01T20:03:05Z</time>
  <course>348.01</course>
  <speed>0.05</speed>
  <fix>3d</fix>
</trkpt>
<trkpt lat="21.1682217" lon="-156.8870483">
  <ele>215.59</ele>
  <time>2026-09-01T20:03:05Z</time>
  <course>182.85</course>
  <speed>0.06</speed>
  <fix>3d</fix>
</trkpt>
<trkpt lat="21.1682215" lon="-156.8870479">
  <ele>215.12</ele>
  <time>2026-09-01T20:03:05Z</time>
  <course>347.62</course>
  <speed>0.05</speed>
  <fix>3d</fix>
</trkpt>
<trkpt lat="21.1682217" lon="-156.8870483">
  <ele>215.59</ele>
  <time>2026-09-01T20:03:05Z</time>
  <course>182.85</course>
  <speed>0.06</speed>
  <fix>3d</fix>
</trkpt>
<trkpt lat="21.1682216" lon="-156.8870479">
  <ele>215.01</ele>
  <time>2026-09-01T20:03:05Z</time>
  <course>347.19</course>
  <speed>0.07211102550927978</speed>
  <fix>3d</fix>
</trkpt>
<trkpt lat="21.1682217" lon="-156.8870483">
  <ele>215.37</ele>
  <time>2026-09-01T20:03:05Z</time>
  <course>342.2</course>
  <speed>0.0</speed>
  <fix>3d</fix>
</trkpt>
<trkpt lat="21.1682216" lon="-156.8870479">
  <ele>214.9</ele>
  <time>2026-09-01T20:03:05Z</time>
  <course>346.81</course>
  <speed>0.09219544457292887</speed>
  <fix>3d</fix>
</trkpt>
<trkpt lat="21.1682217" lon="-156.8870483">
  <ele>215.37</ele>
  <time>2026-09-01T20:03:05Z</time>
  <course>342.2</course>
  <speed>0.0</speed>
  <fix>3d</fix>
</trkpt>
<trkpt lat="21.1682218" lon="-156.8870479">
  <ele>214.79</ele>
  <time>2026-09-01T20:03:05Z</time>
  <course>346.52</course>
  <speed>0.12529964086141668</speed>
  <fix>3d</fix>
</trkpt>
<trkpt lat="21.1682217" lon="-156.8870483">
  <ele>215.15</ele>
  <time>2026-09-01T20:03:05Z</time>
  <course>6.23</course>
  <speed>0.08</speed>
  <fix>3d</fix>
</trkpt>
<trkpt lat="21.1682219" lon="-156.8870479">
  <ele>214.67</ele>
  <time>2026-09-01T20:03:05Z</time>
  <course>346.35</course>
  <speed>0.16552945357246848</speed>
  <fix>3d</fix>
</trkpt>
<trkpt lat="21.1682217" lon="-156.8870483">
  <ele>215.15</ele>
  <time>2026-09-01T20:03:05Z</time>
  <course>6.23</course>
  <speed>0.08</speed>
  <fix>3d</fix>
</trkpt>
<trkpt lat="21.168222" lon="-156.8870479">
  <ele>214.56</ele>
  <time>2026-09-01T20:03:05Z</time>
  <course>346.28</course>
  <speed>0.20248456731316586</speed>
  <fix>3d</fix>
</trkpt>
<trkpt lat="21.1682219" lon="-156.8870483">
  <ele>214.92</ele>
  <time>2026-09-01T20:03:05Z</time>
  <course>6.75</course>
  <speed>0.16</speed>
  <fix>3d</fix>
</trkpt>
<trkpt lat="21.1682222" lon="-156.8870478">
  <ele>214.45</ele>
  <time>2026-09-01T20:03:05Z</time>
  <course>346.31</course>
  <speed>0.2308679276123039</speed>
  <fix>3d</fix>
</trkpt>
<trkpt lat="21.1682219" lon="-156.8870483">
  <ele>214.92</ele>
  <time>2026-09-01T20:03:05Z</time>
  <course>6.75</course>
  <speed>0.16</speed>
  <fix>3d</fix>
</trkpt>
<trkpt lat="21.1682224" lon="-156.8870478">
  <ele>214.33</ele>
  <time>2026-09-01T20:03:05Z</time>
  <course>346.39</course>
  <speed>0.2596150997149434</speed>
  <fix>3d</fix>
</trkpt>
<trkpt lat="21.1682223" lon="-156.8870482">
  <ele>214.69</ele>
  <time>2026-09-01T20:03:05Z</time>
  <course>6.39</course>
  <speed>0.24</speed>
  <fix>3d</fix>
</trkpt>
<trkpt lat="21.1682227" lon="-156.8870478">
  <ele>214.22</ele>
  <time>2026-09-01T20:03:05Z</time>
  <course>346.51</course>
  <speed>0.29832867780352595</speed>
  <fix>3d</fix>
</trkpt>
<trkpt lat="21.1682223" lon="-156.8870482">
  <ele>214.69</ele>
  <time>2026-09-01T20:03:05Z</time>
  <course>6.39</course>
  <speed>0.24</speed>
  <fix>3d</fix>
</trkpt>
<trkpt lat="21.168223" lon="-156.8870478">
  <ele>214.1</ele>
  <time>2026-09-01T20:03:05Z</time>
  <course>346.63</course>
  <speed>0.327566787083184</speed>
  <fix>3d</fix>
</trkpt>
<trkpt lat="21.1682228" lon="-156.8870481">
  <ele>214.47</ele>
  <time>2026-09-01T20:03:05Z</time>
  <course>5.81</course>
  <speed>0.31</speed>
  <fix>3d</fix>
</trkpt>
<trkpt lat="21.1682234" lon="-156.8870477">
  <ele>213.99</ele>
  <time>2026-09-01T20:03:05Z</time>
  <course>346.74</course>
  <speed>0.356931365951495</speed>
  <fix>3d</fix>
</trkpt>
<trkpt lat="21.1682228" lon="-156.8870481">
  <ele>214.47</ele>
  <time>2026-09-01T20:03:05Z</time>
  <course>5.81</course>
  <speed>0.31</speed>
  <fix>3d</fix>
</trkpt>
<trkpt lat="21.1682237" lon="-156.8870477">
  <ele>213.87</ele>
  <time>2026-09-01T20:03:05Z</time>
  <course>346.82</course>
  <speed>0.38639358172723315</speed>
  <fix>3d</fix>
</trkpt>
<trkpt lat="21.1682234" lon="-156.8870481">
  <ele>214.24</ele>
  <time>2026-09-01T20:03:05Z</time>
  <course>5.07</course>
  <speed>0.37</speed>
  <fix>3d</fix>
</trkpt>
<trkpt lat="21.1682241" lon="-156.8870477">
  <ele>213.76</ele>
  <time>2026-09-01T20:03:05Z</time>
  <course>346.86</course>
  <speed>0.4159326868617084</speed>
  <fix>3d</fix>
</trkpt>
<trkpt lat="21.1682234" lon="-156.8870481">
  <ele>214.24</ele>
  <time>2026-09-01T20:03:05Z</time>
  <course>5.07</course>
  <speed>0.37</speed>
  <fix>3d</fix>
</trkpt>
<trkpt lat="21.1682245" lon="-156.8870476">
  <ele>213.64</ele>
  <time>2026-09-01T20:03:05Z</time>
  <course>346.87</course>
  <speed>0.4341658669218482</speed>
  <fix>3d</fix>
</trkpt>
<trkpt lat="21.1682241" lon="-156.887048">
  <ele>214.01</ele>
  <time>2026-09-01T20:03:05Z</time>
  <course>4.17</course>
  <speed>0.43</speed>
  <fix>3d</fix>
</trkpt>
<trkpt lat="21.168225" lon="-156.8870476">
  <ele>213.53</ele>
  <time>2026-09-01T20:03:05Z</time>
  <course>346.86</course>
  <speed>0.46389654018972803</speed>
  <fix>3d</fix>
</trkpt>
<trkpt lat="21.1682241" lon="-156.887048">
  <ele>214.01</ele>
  <time>2026-09-01T20:03:05Z</time>
  <course>4.17</course>
  <speed>0.43</speed>
  <fix>3d</fix>
</trkpt>
<trkpt lat="21.1682254" lon="-156.8870476">
  <ele>213.41</ele>
  <time>2026-09-01T20:03:05Z</time>
  <course>346.83</course>
  <speed>0.4825971404805462</speed>
  <fix>3d</fix>
</trkpt>
<trkpt lat="21.168225" lon="-156.887048">
  <ele>213.78</ele>
  <time>2026-09-01T20:03:05Z</time>
  <course>3.18</course>
  <speed>0.49</speed>
  <fix>3d</fix>
</trkpt>
<trkpt lat="21.1682259" lon="-156.8870476">
  <ele>213.3</ele>
  <time>2026-09-01T20:03:05Z</time>
  <course>346.79</course>
  <speed>0.5024937810560445</speed>
  <fix>3d</fix>
</trkpt>
<trkpt lat="21.168225" lon="-156.887048">
  <ele>213.78</ele>
  <time>2026-09-01T20:03:05Z</time>
  <course>3.18</course>
  <speed>0.49</speed>
  <fix>3d</fix>
</trkpt>
<trkpt lat="21.1682264" lon="-156.8870476">
  <ele>213.18</ele>
  <time>2026-09-01T20:03:05Z</time>
  <course>346.75</course>
  <speed>0.521536192416212</speed>
  <fix>3d</fix>
</trkpt>
<trkpt lat="21.1682259" lon="-156.887048">
  <ele>213.55</ele>
  <time>2026-09-01T20:03:05Z</time>
  <course>2.13</course>
  <speed>0.53</speed>
  <fix>3d</fix>
</trkpt>
<trkpt lat="21.1682269" lon="-156.8870476">
  <ele>213.06</ele>
  <time>2026-09-01T20:03:05Z</time>
  <course>346.72</course>
  <speed>0.5315072906367324</speed>
  <fix>3d</fix>
</trkpt>
<trkpt lat="21.1682259" lon="-156.887048">
  <ele>213.55</ele>
  <time>2026-09-01T20:03:05Z</time>
  <course>2.13</course>
  <speed>0.53</speed>
  <fix>3d</fix>
</trkpt>
<trkpt lat="21.1682275" lon="-156.8870476">
  <ele>212.95</ele>
  <time>2026-09-01T20:03:05Z</time>
  <course>346.7</course>
  <speed>0.5408326913195984</speed>
  <fix>3d</fix>
</trkpt>
<trkpt lat="21.1682269" lon="-156.8870479">
  <ele>213.32</ele>
  <time>2026-09-01T20:03:05Z</time>
  <course>1.09</course>
  <speed>0.57</speed>
  <fix>3d</fix>
</trkpt>
<trkpt lat="21.168228" lon="-156.8870476">
  <ele>212.83</ele>
  <time>2026-09-01T20:03:05Z</time>
  <course>346.68</course>
  <speed>0.560357029044876</speed>
  <fix>3d</fix>
</trkpt>
<trkpt lat="21.1682269" lon="-156.8870479">
  <ele>213.32</ele>
  <time>2026-09-01T20:03:05Z</time>
  <course>1.09</course>
  <speed>0.57</speed>
  <fix>3d</fix>
</trkpt>
<trkpt lat="21.1682286" lon="-156.8870476">
  <ele>212.72</ele>
  <time>2026-09-01T20:03:05Z</time>
  <course>346.68</course>
  <speed>0.560357029044876</speed>
  <fix>3d</fix>
</trkpt>
<trkpt lat="21.168228" lon="-156.8870479">
  <ele>213.09</ele>
  <time>2026-09-01T20:03:05Z</time>
  <course>0.09</course>
  <speed>0.6</speed>
  <fix>3d</fix>
</trkpt>
<trkpt lat="21.1682291" lon="-156.8870476">
  <ele>212.6</ele>
  <time>2026-09-01T20:03:05Z</time>
  <course>346.67</course>
  <speed>0.570087712549569</speed>
  <fix>3d</fix>
</trkpt>
<trkpt lat="21.168228" lon="-156.8870479">
  <ele>213.09</ele>
  <time>2026-09-01T20:03:05Z</time>
  <course>0.09</course>
  <speed>0.6</speed>
  <fix>3d</fix>
</trkpt>
<trkpt lat="21.1682297" lon="-156.8870477">
  <ele>212.49</ele>
  <time>2026-09-01T20:03:05Z</time>
  <course>346.67</course>
  <speed>0.570087712549569</speed>
  <fix>3d</fix>
</trkpt>
<trkpt lat="21.168229" lon="-156.8870479">
  <ele>212.86</ele>
  <time>2026-09-01T20:03:05Z</time>
  <course>359.1</course>
  <speed>0.62</speed>
  <fix>3d</fix>
</trkpt>
<trkpt lat="21.1682302" lon="-156.8870477">
  <ele>212.37</ele>
  <time>2026-09-01T20:03:05Z</time>
  <course>346.67</course>
  <speed>0.57</speed>
  <fix>3d</fix>
</trkpt>
<trkpt lat="21.168229" lon="-156.8870479">
  <ele>212.86</ele>
  <time>2026-09-01T20:03:05Z</time>
  <course>359.1</course>
  <speed>0.62</speed>
  <fix>3d</fix>
</trkpt>
<trkpt lat="21.1682308" lon="-156.8870477">
  <ele>212.26</ele>
  <time>2026-09-01T20:03:05Z</time>
  <course>346.67</course>
  <speed>0.57</speed>
  <fix>3d</fix>
</trkpt>
<trkpt lat="21.1682302" lon="-156.8870479">
  <ele>212.64</ele>
  <time>2026-09-01T20:03:05Z</time>
  <course>358.1</course>
  <speed>0.63</speed>
  <fix>3d</fix>
</trkpt>
<trkpt lat="21.1682313" lon="-156.8870477">
  <ele>212.15</ele>
  <time>2026-09-01T20:03:05Z</time>
  <course>346.68</course>
  <speed>0.57</speed>
  <fix>3d</fix>
</trkpt>
<trkpt lat="21.1682302" lon="-156.8870479">
  <ele>212.64</ele>
  <time>2026-09-01T20:03:05Z</time>
  <course>358.1</course>
  <speed>0.63</speed>
  <fix>3d</fix>
</trkpt>
<trkpt lat="21.1682319" lon="-156.8870477">
  <ele>212.03</ele>
  <time>2026-09-01T20:03:05Z</time>
  <course>346.67</course>
  <speed>0.5600892785976178</speed>
  <fix>3d</fix>
</trkpt>
<trkpt lat="21.1682313" lon="-156.8870479">
  <ele>212.41</ele>
  <time>2026-09-01T20:03:05Z</time>
  <course>357.09</course>
  <speed>0.62</speed>
  <fix>3d</fix>
</trkpt>
<trkpt lat="21.1682324" lon="-156.8870477">
  <ele>211.92</ele>
  <time>2026-09-01T20:03:05Z</time>
  <course>346.67</course>
  <speed>0.5500909015790026</speed>
  <fix>3d</fix>
</trkpt>
<trkpt lat="21.1682313" lon="-156.8870479">
  <ele>212.41</ele>
  <time>2026-09-01T20:03:05Z</time>
  <course>357.09</course>
  <speed>0.62</speed>
  <fix>3d</fix>
</trkpt>
<trkpt lat="21.168233" lon="-156.8870478">
  <ele>211.81</ele>
  <time>2026-09-01T20:03:05Z</time>
  <course>346.66</course>
  <speed>0.5403702434442519</speed>
  <fix>3d</fix>
</trkpt>
<trkpt lat="21.1682324" lon="-156.887048">
  <ele>212.19</ele>
  <time>2026-09-01T20:03:05Z</time>
  <course>356.04</course>
  <speed>0.61</speed>
  <fix>3d</fix>
</trkpt>
<trkpt lat="21.1682335" lon="-156.8870478">
  <ele>211.69</ele>
  <time>2026-09-01T20:03:05Z</time>
  <course>346.65</course>
  <speed>0.5303772242470448</speed>
  <fix>3d</fix>
</trkpt>
<trkpt lat="21.1682324" lon="-156.887048">
  <ele>212.19</ele>
  <time>2026-09-01T20:03:05Z</time>
  <course>356.04</course>
  <speed>0.61</speed>
  <fix>3d</fix>
</trkpt>
<trkpt lat="21.168234" lon="-156.8870479">
  <ele>211.58</ele>
  <time>2026-09-01T20:03:05Z</time>
  <course>346.64</course>
  <speed>0.5208646657242167</speed>
  <fix>3d</fix>
</trkpt>
<trkpt lat="21.1682335" lon="-156.887048">
  <ele>211.96</ele>
  <time>2026-09-01T20:03:05Z</time>
  <course>354.94</course>
  <speed>0.59</speed>
  <fix>3d</fix>
</trkpt>
<trkpt lat="21.1682345" lon="-156.8870479">
  <ele>211.47</ele>
  <time>2026-09-01T20:03:05Z</time>
  <course>346.64</course>
  <speed>0.5015974481593781</speed>
  <fix>3d</fix>
</trkpt>
<trkpt lat="21.1682335" lon="-156.887048">
  <ele>211.96</ele>
  <time>2026-09-01T20:03:05Z</time>
  <course>354.94</course>
  <speed>0.59</speed>
  <fix>3d</fix>
</trkpt>
<trkpt lat="21.168235" lon="-156.887048">
  <ele>211.35</ele>
  <time>2026-09-01T20:03:05Z</time>
  <course>346.63</course>
  <speed>0.48166378315169184</speed>
  <fix>3d</fix>
</trkpt>
<trkpt lat="21.1682345" lon="-156.8870481">
  <ele>211.73</ele>
  <time>2026-09-01T20:03:05Z</time>
  <course>353.72</course>
  <speed>0.57</speed>
  <fix>3d</fix>
</trkpt>
<trkpt lat="21.1682355" lon="-156.8870481">
  <ele>211.24</ele>
  <time>2026-09-01T20:03:05Z</time>
  <course>346.61</course>
  <speed>0.4617358552246078</speed>
  <fix>3d</fix>
</trkpt>
<trkpt lat="21.1682345" lon="-156.8870481">
  <ele>211.73</ele>
  <time>2026-09-01T20:03:05Z</time>
  <course>353.72</course>
  <speed>0.57</speed>
  <fix>3d</fix>
</trkpt>
<trkpt lat="21.1682359" lon="-156.8870481">
  <ele>211.12</ele>
  <time>2026-09-01T20:03:05Z</time>
  <course>346.6</course>
  <speed>0.4428317965096906</speed>
  <fix>3d</fix>
</trkpt>
<trkpt lat="21.1682356" lon="-156.8870483">
  <ele>211.51</ele>
  <time>2026-09-01T20:03:05Z</time>
  <course>352.33</course>
  <speed>0.53</speed>
  <fix>3d</fix>
</trkpt>
<trkpt lat="21.1682364" lon="-156.8870482">
  <ele>211.01</ele>
  <time>2026-09-01T20:03:05Z</time>
  <course>346.58</course>
  <speed>0.422965719651132</speed>
  <fix>3d</fix>
</trkpt>
<trkpt lat="21.1682356" lon="-156.8870483">
  <ele>211.51</ele>
  <time>2026-09-01T20:03:05Z</time>
  <course>352.33</course>
  <speed>0.53</speed>
  <fix>3d</fix>
</trkpt>
<trkpt lat="21.1682368" lon="-156.8870483">
  <ele>210.89</ele>
  <time>2026-09-01T20:03:05Z</time>
  <course>346.56</course>
  <speed>0.4044749683231337</speed>
  <fix>3d</fix>
</trkpt>
<trkpt lat="21.1682365" lon="-156.8870484">
  <ele>211.28</ele>
  <time>2026-09-01T20:03:05Z</time>
  <course>350.75</course>
  <speed>0.49</speed>
  <fix>3d</fix>
</trkpt>
<trkpt lat="21.1682372" lon="-156.8870484">
  <ele>210.77</ele>
  <time>2026-09-01T20:03:05Z</time>
  <course>346.55</course>
  <speed>0.37483329627982626</speed>
  <fix>3d</fix>
</trkpt>
<trkpt lat="21.1682365" lon="-156.8870484">
  <ele>211.28</ele>
  <time>2026-09-01T20:03:05Z</time>
  <course>350.75</course>
  <speed>0.49</speed>
  <fix>3d</fix>
</trkpt>
<trkpt lat="21.1682376" lon="-156.8870485">
  <ele>210.66</ele>
  <time>2026-09-01T20:03:05Z</time>
  <course>346.54</course>
  <speed>0.35510561809129404</speed>
  <fix>3d</fix>
</trkpt>
<trkpt lat="21.1682374" lon="-156.8870485">
  <ele>211.05</ele>
  <time>2026-09-01T20:03:05Z</time>
  <course>348.88</course>
  <speed>0.45</speed>
  <fix>3d</fix>
</trkpt>
<trkpt lat="21.1682379" lon="-156.8870486">
  <ele>210.54</ele>
  <time>2026-09-01T20:03:05Z</time>
  <course>346.53</course>
  <speed>0.327566787083184</speed>
  <fix>3d</fix>
</trkpt>
<trkpt lat="21.1682374" lon="-156.8870485">
  <ele>211.05</ele>
  <time>2026-09-01T20:03:05Z</time>
  <course>348.88</course>
  <speed>0.45</speed>
  <fix>3d</fix>
</trkpt>
<trkpt lat="21.1682382" lon="-156.8870486">
  <ele>210.43</ele>
  <time>2026-09-01T20:03:05Z</time>
  <course>346.52</course>
  <speed>0.3080584360149873</speed>
  <fix>3d</fix>
</trkpt>
<trkpt lat="21.1682381" lon="-156.8870488">
  <ele>210.82</ele>
  <time>2026-09-01T20:03:05Z</time>
  <course>346.7</course>
  <speed>0.4</speed>
  <fix>3d</fix>
</trkpt>
<trkpt lat="21.1682385" lon="-156.8870487">
  <ele>210.31</ele>
  <time>2026-09-01T20:03:05Z</time>
  <course>346.5</course>
  <speed>0.27892651361962706</speed>
  <fix>3d</fix>
</trkpt>
<trkpt lat="21.1682381" lon="-156.8870488">
  <ele>210.82</ele>
  <time>2026-09-01T20:03:05Z</time>
  <course>346.7</course>
  <speed>0.4</speed>
  <fix>3d</fix>
</trkpt>
<trkpt lat="21.1682388" lon="-156.8870488">
  <ele>210.19</ele>
  <time>2026-09-01T20:03:05Z</time>
  <course>346.48</course>
  <speed>0.2596150997149434</speed>
  <fix>3d</fix>
</trkpt>
<trkpt lat="21.1682387" lon="-156.887049">
  <ele>210.6</ele>
  <time>2026-09-01T20:03:05Z</time>
  <course>344.19</course>
  <speed>0.35</speed>
  <fix>3d</fix>
</trkpt>
<trkpt lat="21.1682391" lon="-156.8870489">
  <ele>210.08</ele>
  <time>2026-09-01T20:03:05Z</time>
  <course>346.46</course>
  <speed>0.2308679276123039</speed>
  <fix>3d</fix>
</trkpt>
<trkpt lat="21.1682387" lon="-156.887049">
  <ele>210.6</ele>
  <time>2026-09-01T20:03:05Z</time>
  <course>344.19</course>
  <speed>0.35</speed>
  <fix>3d</fix>
</trkpt>
<trkpt lat="21.1682393" lon="-156.887049">
  <ele>209.97</ele>
  <time>2026-09-01T20:03:05Z</time>
  <course>346.44</course>
  <speed>0.21189620100417092</speed>
  <fix>3d</fix>
</trkpt>
<trkpt lat="21.1682393" lon="-156.8870491">
  <ele>210.37</ele>
  <time>2026-09-01T20:03:05Z</time>
  <course>341.18</course>
  <speed>0.3</speed>
  <fix>3d</fix>
</trkpt>
<trkpt lat="21.1682395" lon="-156.8870491">
  <ele>209.86</ele>
  <time>2026-09-01T20:03:05Z</time>
  <course>346.41</course>
  <speed>0.18384776310850234</speed>
  <fix>3d</fix>
</trkpt>
<trkpt lat="21.1682393" lon="-156.8870491">
  <ele>210.37</ele>
  <time>2026-09-01T20:03:05Z</time>
  <course>341.18</course>
  <speed>0.3</speed>
  <fix>3d</fix>
</trkpt>
<trkpt lat="21.1682397" lon="-156.8870492">
  <ele>209.75</ele>
  <time>2026-09-01T20:03:05Z</time>
  <course>346.39</course>
  <speed>0.16552945357246848</speed>
  <fix>3d</fix>
</trkpt>
<trkpt lat="21.1682397" lon="-156.8870494">
  <ele>210.14</ele>
  <time>2026-09-01T20:03:05Z</time>
  <course>337.33</course>
  <speed>0.25</speed>
  <fix>3d</fix>
</trkpt>
<trkpt lat="21.1682399" lon="-156.8870493">
  <ele>209.64</ele>
  <time>2026-09-01T20:03:05Z</time>
  <course>346.35</course>
  <speed>0.13892443989449804</speed>
  <fix>3d</fix>
</trkpt>
<trkpt lat="21.1682397" lon="-156.8870494">
  <ele>210.14</ele>
  <time>2026-09-01T20:03:05Z</time>
  <course>337.33</course>
  <speed>0.25</speed>
  <fix>3d</fix>
</trkpt>
<trkpt lat="21.16824" lon="-156.8870494">
  <ele>209.52</ele>
  <time>2026-09-01T20:03:05Z</time>
  <course>346.32</course>
  <speed>0.12206555615733702</speed>
  <fix>3d</fix>
</trkpt>
<trkpt lat="21.1682402" lon="-156.8870495">
  <ele>209.92</ele>
  <time>2026-09-01T20:03:05Z</time>
  <course>332.28</course>
  <speed>0.2</speed>
  <fix>3d</fix>
</trkpt>
<trkpt lat="21.1682401" lon="-156.8870495">
  <ele>209.41</ele>
  <time>2026-09-01T20:03:05Z</time>
  <course>346.27</course>
  <speed>0.1</speed>
  <fix>3d</fix>
</trkpt>
<trkpt lat="21.1682402" lon="-156.8870495">
  <ele>209.92</ele>
  <time>2026-09-01T20:03:05Z</time>
  <course>332.28</course>
  <speed>0.2</speed>
  <fix>3d</fix>
</trkpt>
<trkpt lat="21.1682402" lon="-156.8870496">
  <ele>209.3</ele>
  <time>2026-09-01T20:03:05Z</time>
  <course>346.21</course>
  <speed>0.0848528137423857</speed>
  <fix>3d</fix>
</trkpt>
<trkpt lat="21.1682405" lon="-156.8870496">
  <ele>209.69</ele>
  <time>2026-09-01T20:03:05Z</time>
  <course>325.54</course>
  <speed>0.16</speed>
  <fix>3d</fix>
</trkpt>
<trkpt lat="21.1682403" lon="-156.8870497">
  <ele>209.19</ele>
  <time>2026-09-01T20:03:05Z</time>
  <course>346.14</course>
  <speed>0.06403124237432849</speed>
  <fix>3d</fix>
</trkpt>
<trkpt lat="21.1682405" lon="-156.8870496">
  <ele>209.69</ele>
  <time>2026-09-01T20:03:05Z</time>
  <course>325.54</course>
  <speed>0.16</speed>
  <fix>3d</fix>
</trkpt>
<trkpt lat="21.1682404" lon="-156.8870497">
  <ele>209.07</ele>
  <time>2026-09-01T20:03:05Z</time>
  <course>346.05</course>
  <speed>0.053851648071345036</speed>
  <fix>3d</fix>
</trkpt>
<trkpt lat="21.1682406" lon="-156.8870499">
  <ele>209.46</ele>
  <time>2026-09-01T20:03:05Z</time>
  <course>316.44</course>
  <speed>0.12</speed>
  <fix>3d</fix>
</trkpt>
<trkpt lat="21.1682404" lon="-156.8870498">
  <ele>208.96</ele>
  <time>2026-09-01T20:03:05Z</time>
  <course>345.94</course>
  <speed>0.04</speed>
  <fix>3d</fix>
</trkpt>
<trkpt lat="21.1682406" lon="-156.8870499">
  <ele>209.46</ele>
  <time>2026-09-01T20:03:05Z</time>
  <course>316.44</course>
  <speed>0.12</speed>
  <fix>3d</fix>
</trkpt>
<trkpt lat="21.1682405" lon="-156.8870499">
  <ele>208.84</ele>
  <time>2026-09-01T20:03:05Z</time>
  <course>345.8</course>
  <speed>0.03</speed>
  <fix>3d</fix>
</trkpt>
<trkpt lat="21.1682408" lon="-156.88705">
  <ele>209.24</ele>
  <time>2026-09-01T20:03:05Z</time>
  <course>303.76</course>
  <speed>0.08</speed>
  <fix>3d</fix>
</trkpt>
<trkpt lat="21.1682405" lon="-156.8870499">
  <ele>208.73</ele>
  <time>2026-09-01T20:03:05Z</time>
  <course>345.63</course>
  <speed>0.0282842712474619</speed>
  <fix>3d</fix>
</trkpt>
<trkpt lat="21.1682408" lon="-156.88705">
  <ele>209.24</ele>
  <time>2026-09-01T20:03:05Z</time>
  <course>303.76</course>
  <speed>0.08</speed>
  <fix>3d</fix>
</trkpt>
<trkpt lat="21.1682405" lon="-156.88705">
  <ele>208.61</ele>
  <time>2026-09-01T20:03:05Z</time>
  <course>345.43</course>
  <speed>0.0316227766016838</speed>
  <fix>3d</fix>
</trkpt>
<trkpt lat="21.1682408" lon="-156.8870501">
  <ele>209.01</ele>
  <time>2026-09-01T20:03:05Z</time>
  <course>284.02</course>
  <speed>0.05</speed>
  <fix>3d</fix>
</trkpt>
<trkpt lat="21.1682405" lon="-156.88705">
  <ele>208.5</ele>
  <time>2026-09-01T20:03:05Z</time>
  <course>345.19</course>
  <speed>0.04</speed>
  <fix>3d</fix>
</trkpt>
<trkpt lat="21.1682408" lon="-156.8870501">
  <ele>209.01</ele>
  <time>2026-09-01T20:03:05Z</time>
  <course>284.02</course>
  <speed>0.05</speed>
  <fix>3d</fix>
</trkpt>
<trkpt lat="21.1682405" lon="-156.88705">
  <ele>208.38</ele>
  <time>2026-09-01T20:03:05Z</time>
  <course>344.93</course>
  <speed>0.05099019513592785</speed>
  <fix>3d</fix>
</trkpt>
<trkpt lat="21.1682408" lon="-156.8870502">
  <ele>208.78</ele>
  <time>2026-09-01T20:03:05Z</time>
  <course>246.02</course>
  <speed>0.03</speed>
  <fix>3d</fix>
</trkpt>
<trkpt lat="21.1682405" lon="-156.88705">
  <ele>208.27</ele>
  <time>2026-09-01T20:03:05Z</time>
  <course>344.66</course>
  <speed>0.0670820393249937</speed>
  <fix>3d</fix>
</trkpt>
<trkpt lat="21.1682408" lon="-156.8870502">
  <ele>208.78</ele>
  <time>2026-09-01T20:03:05Z</time>
  <course>246.02</course>
  <speed>0.03</speed>
  <fix>3d</fix>
</trkpt>
<trkpt lat="21.1682405" lon="-156.88705">
  <ele>208.15</ele>
  <time>2026-09-01T20:03:05Z</time>
  <course>344.4</course>
  <speed>0.07211102550927978</speed>
  <fix>3d</fix>
</trkpt>
<trkpt lat="21.1682408" lon="-156.8870503">
  <ele>208.54</ele>
  <time>2026-09-01T20:03:05Z</time>
  <course>185.74</course>
  <speed>0.03</speed>
  <fix>3d</fix>
</trkpt>
<trkpt lat="21.1682405" lon="-156.88705">
  <ele>208.04</ele>
  <time>2026-09-01T20:03:05Z</time>
  <course>344.25</course>
  <speed>0.08602325267042626</speed>
  <fix>3d</fix>
</trkpt>
<trkpt lat="21.1682408" lon="-156.8870503">
  <ele>208.54</ele>
  <time>2026-09-01T20:03:05Z</time>
  <course>185.74</course>
  <speed>0.03</speed>
  <fix>3d</fix>
</trkpt>
<trkpt lat="21.1682404" lon="-156.8870499">
  <ele>207.92</ele>
  <time>2026-09-01T20:03:05Z</time>
  <course>344.28</course>
  <speed>0.09433981132056603</speed>
  <fix>3d</fix>
</trkpt>
<trkpt lat="21.1682408" lon="-156.8870503">
  <ele>208.31</ele>
  <time>2026-09-01T20:03:05Z</time>
  <course>157.31</course>
  <speed>0.05</speed>
  <fix>3d</fix>
</trkpt>
<trkpt lat="21.1682404" lon="-156.8870499">
  <ele>207.8</ele>
  <time>2026-09-01T20:03:05Z</time>
  <course>344.45</course>
  <speed>0.10295630140987001</speed>
  <fix>3d</fix>
</trkpt>
<trkpt lat="21.1682408" lon="-156.8870503">
  <ele>208.31</ele>
  <time>2026-09-01T20:03:05Z</time>
  <course>157.31</course>
  <speed>0.05</speed>
  <fix>3d</fix>
</trkpt>
<trkpt lat="21.1682403" lon="-156.88705">
  <ele>207.69</ele>
  <time>2026-09-01T20:03:05Z</time>
  <course>344.7</course>
  <speed>0.10295630140987001</speed>
  <fix>3d</fix>
</trkpt>
<trkpt lat="21.1682407" lon="-156.8870503">
  <ele>208.08</ele>
  <time>2026-09-01T20:03:05Z</time>
  <course>152.7</course>
  <speed>0.07</speed>
  <fix>3d</fix>
</trkpt>
<trkpt lat="21.1682402" lon="-156.8870499">
  <ele>207.57</ele>
  <time>2026-09-01T20:03:05Z</time>
  <course>344.98</course>
  <speed>0.1118033988749895</speed>
  <fix>3d</fix>
</trkpt>
<trkpt lat="21.1682407" lon="-156.8870503">
  <ele>208.08</ele>
  <time>2026-09-01T20:03:05Z</time>
  <course>152.7</course>
  <speed>0.07</speed>
  <fix>3d</fix>
</trkpt>
<trkpt lat="21.1682402" lon="-156.8870499">
  <ele>207.45</ele>
  <time>2026-09-01T20:03:05Z</time>
  <course>345.23</course>
  <speed>0.11661903789690602</speed>
  <fix>3d</fix>
</trkpt>
<trkpt lat="21.1682405" lon="-156.8870502">
  <ele>207.85</ele>
  <time>2026-09-01T20:03:05Z</time>
  <course>154.21</course>
  <speed>0.09</speed>
  <fix>3d</fix>
</trkpt>
<trkpt lat="21.1682401" lon="-156.8870499">
  <ele>207.33</ele>
  <time>2026-09-01T20:03:05Z</time>
  <course>345.42</course>
  <speed>0.12529964086141668</speed>
  <fix>3d</fix>
</trkpt>
<trkpt lat="21.1682405" lon="-156.8870502">
  <ele>207.85</ele>
  <time>2026-09-01T20:03:05Z</time>
  <course>154.21</course>
  <speed>0.09</speed>
  <fix>3d</fix>
</trkpt>
<trkpt lat="21.16824" lon="-156.8870498">
  <ele>207.22</ele>
  <time>2026-09-01T20:03:05Z</time>
  <course>345.54</course>
  <speed>0.12529964086141668</speed>
  <fix>3d</fix>
</trkpt>
<trkpt lat="21.1682404" lon="-156.8870501">
  <ele>207.62</ele>
  <time>2026-09-01T20:03:05Z</time>
  <course>155.51</course>
  <speed>0.1</speed>
  <fix>3d</fix>
</trkpt>
<trkpt lat="21.16824" lon="-156.8870498">
  <ele>207.1</ele>
  <time>2026-09-01T20:03:05Z</time>
  <course>345.59</course>
  <speed>0.12529964086141668</speed>
  <fix>3d</fix>
</trkpt>
<trkpt lat="21.1682404" lon="-156.8870501">
  <ele>207.62</ele>
  <time>2026-09-01T20:03:05Z</time>
  <course>155.51</course>
  <speed>0.1</speed>
  <fix>3d</fix>
</trkpt>
<trkpt lat="21.1682399" lon="-156.8870498">
  <ele>206.99</ele>
  <time>2026-09-01T20:03:05Z</time>
  <course>345.56</course>
  <speed>0.12529964086141668</speed>
  <fix>3d</fix>
</trkpt>
<trkpt lat="21.1682402" lon="-156.88705">
  <ele>207.39</ele>
  <time>2026-09-01T20:03:05Z</time>
  <course>156.3</course>
  <speed>0.11</speed>
  <fix>3d</fix>
</trkpt>
<trkpt lat="21.1682398" lon="-156.8870497">
  <ele>206.87</ele>
  <time>2026-09-01T20:03:05Z</time>
  <course>345.48</course>
  <speed>0.12529964086141668</speed>
  <fix>3d</fix>
</trkpt>
<trkpt lat="21.1682402" lon="-156.88705">
  <ele>207.39</ele>
  <time>2026-09-01T20:03:05Z</time>
  <course>156.3</course>
  <speed>0.11</speed>
  <fix>3d</fix>
</trkpt>
<trkpt lat="21.1682397" lon="-156.8870497">
  <ele>206.76</ele>
  <time>2026-09-01T20:03:05Z</time>
  <course>345.36</course>
  <speed>0.1341640786499874</speed>
  <fix>3d</fix>
</trkpt>
<trkpt lat="21.1682399" lon="-156.8870499">
  <ele>207.16</ele>
  <time>2026-09-01T20:03:05Z</time>
  <course>156.39</course>
  <speed>0.12</speed>
  <fix>3d</fix>
</trkpt>
<trkpt lat="21.1682396" lon="-156.8870496">
  <ele>206.65</ele>
  <time>2026-09-01T20:03:05Z</time>
  <course>345.23</course>
  <speed>0.1341640786499874</speed>
  <fix>3d</fix>
</trkpt>
<trkpt lat="21.1682399" lon="-156.8870499">
  <ele>207.16</ele>
  <time>2026-09-01T20:03:05Z</time>
  <course>156.39</course>
  <speed>0.12</speed>
  <fix>3d</fix>
</trkpt>
<trkpt lat="21.1682395" lon="-156.8870496">
  <ele>206.53</ele>
  <time>2026-09-01T20:03:05Z</time>
  <course>345.1</course>
  <speed>0.1341640786499874</speed>
  <fix>3d</fix>
</trkpt>
<trkpt lat="21.1682397" lon="-156.8870498">
  <ele>206.93</ele>
  <time>2026-09-01T20:03:05Z</time>
  <course>156.09</course>
  <speed>0.12</speed>
  <fix>3d</fix>
</trkpt>
<trkpt lat="21.1682394" lon="-156.8870495">
  <ele>206.42</ele>
  <time>2026-09-01T20:03:05Z</time>
  <course>345.0</course>
  <speed>0.1341640786499874</speed>
  <fix>3d</fix>
</trkpt>
<trkpt lat="21.1682397" lon="-156.8870498">
  <ele>206.93</ele>
  <time>2026-09-01T20:03:05Z</time>
  <course>156.09</course>
  <speed>0.12</speed>
  <fix>3d</fix>
</trkpt>
<trkpt lat="21.1682393" lon="-156.8870495">
  <ele>206.3</ele>
  <time>2026-09-01T20:03:05Z</time>
  <course>344.92</course>
  <speed>0.12529964086141668</speed>
  <fix>3d</fix>
</trkpt>
<trkpt lat="21.1682396" lon="-156.8870497">
  <ele>206.7</ele>
  <time>2026-09-01T20:03:05Z</time>
  <course>155.51</course>
  <speed>0.12</speed>
  <fix>3d</fix>
</trkpt>
<trkpt lat="21.1682392" lon="-156.8870494">
  <ele>206.19</ele>
  <time>2026-09-01T20:03:05Z</time>
  <course>344.86</course>
  <speed>0.130384048104053</speed>
  <fix>3d</fix>
</trkpt>
<trkpt lat="21.1682396" lon="-156.8870497">
  <ele>206.7</ele>
  <time>2026-09-01T20:03:05Z</time>
  <course>155.51</course>
  <speed>0.12</speed>
  <fix>3d</fix>
</trkpt>
<trkpt lat="21.1682391" lon="-156.8870494">
  <ele>206.07</ele>
  <time>2026-09-01T20:03:05Z</time>
  <course>344.82</course>
  <speed>0.130384048104053</speed>
  <fix>3d</fix>
</trkpt>
<trkpt lat="21.1682393" lon="-156.8870496">
  <ele>206.47</ele>
  <time>2026-09-01T20:03:05Z</time>
  <course>154.68</course>
  <speed>0.12</speed>
  <fix>3d</fix>
</trkpt>
<trkpt lat="21.168239" lon="-156.8870493">
  <ele>205.96</ele>
  <time>2026-09-01T20:03:05Z</time>
  <course>344.79</course>
  <speed>0.130384048104053</speed>
  <fix>3d</fix>
</trkpt>
<trkpt lat="21.1682393" lon="-156.8870496">
  <ele>206.47</ele>
  <time>2026-09-01T20:03:05Z</time>
  <course>154.68</course>
  <speed>0.12</speed>
  <fix>3d</fix>
</trkpt>
<trkpt lat="21.1682389" lon="-156.8870493">
  <ele>205.84</ele>
  <time>2026-09-01T20:03:05Z</time>
  <course>344.78</course>
  <speed>0.130384048104053</speed>
  <fix>3d</fix>
</trkpt>
<trkpt lat="21.1682392" lon="-156.8870495">
  <ele>206.24</ele>
  <time>2026-09-01T20:03:05Z</time>
  <course>153.72</course>
  <speed>0.12</speed>
  <fix>3d</fix>
</trkpt>
<trkpt lat="21.1682388" lon="-156.8870492">
  <ele>205.73</ele>
  <time>2026-09-01T20:03:05Z</time>
  <course>344.77</course>
  <speed>0.12206555615733702</speed>
  <fix>3d</fix>
</trkpt>
<trkpt lat="21.1682392" lon="-156.8870495">
  <ele>206.24</ele>
  <time>2026-09-01T20:03:05Z</time>
  <course>153.72</course>
  <speed>0.12</speed>
  <fix>3d</fix>
</trkpt>
<trkpt lat="21.1682388" lon="-156.8870492">
  <ele>205.62</ele>
  <time>2026-09-01T20:03:05Z</time>
  <course>344.77</course>
  <speed>0.12206555615733702</speed>
  <fix>3d</fix>
</trkpt>
<trkpt lat="21.168239" lon="-156.8870494">
  <ele>206.01</ele>
  <time>2026-09-01T20:03:05Z</time>
  <course>152.59</course>
  <speed>0.11</speed>
  <fix>3d</fix>
</trkpt>
<trkpt lat="21.1682387" lon="-156.8870491">
  <ele>205.5</ele>
  <time>2026-09-01T20:03:05Z</time>
  <course>344.77</course>
  <speed>0.11401754250991379</speed>
  <fix>3d</fix>
</trkpt>
<trkpt lat="21.168239" lon="-156.8870494">
  <ele>206.01</ele>
  <time>2026-09-01T20:03:05Z</time>
  <course>152.59</course>
  <speed>0.11</speed>
  <fix>3d</fix>
</trkpt>
<trkpt lat="21.1682386" lon="-156.8870491">
  <ele>205.38</ele>
  <time>2026-09-01T20:03:05Z</time>
  <course>344.75</course>
  <speed>0.11401754250991379</speed>
  <fix>3d</fix>
</trkpt>
<trkpt lat="21.1682388" lon="-156.8870493">
  <ele>205.78</ele>
  <time>2026-09-01T20:03:05Z</time>
  <course>151.36</course>
  <speed>0.11</speed>
  <fix>3d</fix>
</trkpt>
<trkpt lat="21.1682385" lon="-156.887049">
  <ele>205.27</ele>
  <time>2026-09-01T20:03:05Z</time>
  <course>344.71</course>
  <speed>0.11401754250991379</speed>
  <fix>3d</fix>
</trkpt>
<trkpt lat="21.1682388" lon="-156.8870493">
  <ele>205.78</ele>
  <time>2026-09-01T20:03:05Z</time>
  <course>151.36</course>
  <speed>0.11</speed>
  <fix>3d</fix>
</trkpt>
<trkpt lat="21.1682385" lon="-156.887049">
  <ele>205.15</ele>
  <time>2026-09-01T20:03:05Z</time>
  <course>344.65</course>
  <speed>0.1063014581273465</speed>
  <fix>3d</fix>
</trkpt>
<trkpt lat="21.1682386" lon="-156.8870492">
  <ele>205.54</ele>
  <time>2026-09-01T20:03:05Z</time>
  <course>149.58</course>
  <speed>0.1</speed>
  <fix>3d</fix>
</trkpt>
<trkpt lat="21.1682384" lon="-156.8870489">
  <ele>205.04</ele>
  <time>2026-09-01T20:03:05Z</time>
  <course>344.6</course>
  <speed>0.1063014581273465</speed>
  <fix>3d</fix>
</trkpt>
<trkpt lat="21.1682386" lon="-156.8870492">
  <ele>205.54</ele>
  <time>2026-09-01T20:03:05Z</time>
  <course>149.58</course>
  <speed>0.1</speed>
  <fix>3d</fix>
</trkpt>
<trkpt lat="21.1682383" lon="-156.8870489">
  <ele>204.92</ele>
  <time>2026-09-01T20:03:05Z</time>
  <course>344.56</course>
  <speed>0.09219544457292887</speed>
  <fix>3d</fix>
</trkpt>
<trkpt lat="21.1682385" lon="-156.8870491">
  <ele>205.31</ele>
  <time>2026-09-01T20:03:05Z</time>
  <course>147.85</course>
  <speed>0.09</speed>
  <fix>3d</fix>
</trkpt>
<trkpt lat="21.1682383" lon="-156.8870488">
  <ele>204.81</ele>
  <time>2026-09-01T20:03:05Z</time>
  <course>344.55</course>
  <speed>0.09219544457292887</speed>
  <fix>3d</fix>
</trkpt>
<trkpt lat="21.1682385" lon="-156.8870491">
  <ele>205.31</ele>
  <time>2026-09-01T20:03:05Z</time>
  <course>147.85</course>
  <speed>0.09</speed>
  <fix>3d</fix>
</trkpt>
<trkpt lat="21.1682382" lon="-156.8870488">
  <ele>204.69</ele>
  <time>2026-09-01T20:03:05Z</time>
  <course>344.57</course>
  <speed>0.09219544457292887</speed>
  <fix>3d</fix>
</trkpt>
<trkpt lat="21.1682383" lon="-156.887049">
  <ele>205.08</ele>
  <time>2026-09-01T20:03:05Z</time>
  <course>147.26</course>
  <speed>0.08</speed>
  <fix>3d</fix>
</trkpt>
<trkpt lat="21.1682381" lon="-156.8870487">
  <ele>204.58</ele>
  <time>2026-09-01T20:03:05Z</time>
  <course>344.61</course>
  <speed>0.07810249675906654</speed>
  <fix>3d</fix>
</trkpt>
<trkpt lat="21.1682383" lon="-156.887049">
  <ele>205.08</ele>
  <time>2026-09-01T20:03:05Z</time>
  <course>147.26</course>
  <speed>0.08</speed>
  <fix>3d</fix>
</trkpt>
<trkpt lat="21.1682381" lon="-156.8870487">
  <ele>204.46</ele>
  <time>2026-09-01T20:03:05Z</time>
  <course>344.67</course>
  <speed>0.07810249675906654</speed>
  <fix>3d</fix>
</trkpt>
<trkpt lat="21.1682382" lon="-156.8870489">
  <ele>204.85</ele>
  <time>2026-09-01T20:03:05Z</time>
  <course>148.14</course>
  <speed>0.07</speed>
  <fix>3d</fix>
</trkpt>
<trkpt lat="21.168238" lon="-156.8870487">
  <ele>204.35</ele>
  <time>2026-09-01T20:03:05Z</time>
  <course>344.75</course>
  <speed>0.06403124237432849</speed>
  <fix>3d</fix>
</trkpt>
<trkpt lat="21.1682382" lon="-156.8870489">
  <ele>204.85</ele>
  <time>2026-09-01T20:03:05Z</time>
  <course>148.14</course>
  <speed>0.07</speed>
  <fix>3d</fix>
</trkpt>
<trkpt lat="21.168238" lon="-156.8870487">
  <ele>204.23</ele>
  <time>2026-09-01T20:03:05Z</time>
  <course>344.86</course>
  <speed>0.05830951894845301</speed>
  <fix>3d</fix>
</trkpt>
<trkpt lat="21.1682381" lon="-156.8870489">
  <ele>204.62</ele>
  <time>2026-09-01T20:03:05Z</time>
  <course>152.06</course>
  <speed>0.06</speed>
  <fix>3d</fix>
</trkpt>
<trkpt lat="21.168238" lon="-156.8870487">
  <ele>204.12</ele>
  <time>2026-09-01T20:03:05Z</time>
  <course>344.97</course>
  <speed>0.053851648071345036</speed>
  <fix>3d</fix>
</trkpt>
<trkpt lat="21.1682381" lon="-156.8870489">
  <ele>204.62</ele>
  <time>2026-09-01T20:03:05Z</time>
  <course>152.06</course>
  <speed>0.06</speed>
  <fix>3d</fix>
</trkpt>
<trkpt lat="21.1682379" lon="-156.8870487">
  <ele>204.0</ele>
  <time>2026-09-01T20:03:05Z</time>
  <course>345.1</course>
  <speed>0.05099019513592785</speed>
  <fix>3d</fix>
</trkpt>
<trkpt lat="21.168238" lon="-156.8870489">
  <ele>204.39</ele>
  <time>2026-09-01T20:03:05Z</time>
  <course>162.37</course>
  <speed>0.05</speed>
  <fix>3d</fix>
</trkpt>
<trkpt lat="21.1682379" lon="-156.8870487">
  <ele>203.89</ele>
  <time>2026-09-01T20:03:05Z</time>
  <course>345.25</course>
  <speed>0.05</speed>
  <fix>3d</fix>
</trkpt>
<trkpt lat="21.168238" lon="-156.8870489">
  <ele>204.39</ele>
  <time>2026-09-01T20:03:05Z</time>
  <course>162.37</course>
  <speed>0.05</speed>
  <fix>3d</fix>
</trkpt>
<trkpt lat="21.1682378" lon="-156.8870487">
  <ele>203.77</ele>
  <time>2026-09-01T20:03:05Z</time>
  <course>345.4</course>
  <speed>0.05</speed>
  <fix>3d</fix>
</trkpt>
<trkpt lat="21.1682379" lon="-156.8870489">
  <ele>204.15</ele>
  <time>2026-09-01T20:03:05Z</time>
  <course>182.36</course>
  <speed>0.04</speed>
  <fix>3d</fix>
</trkpt>
<trkpt lat="21.1682378" lon="-156.8870487">
  <ele>203.66</ele>
  <time>2026-09-01T20:03:05Z</time>
  <course>345.55</course>
  <speed>0.05099019513592785</speed>
  <fix>3d</fix>
</trkpt>
<trkpt lat="21.1682379" lon="-156.8870489">
  <ele>204.15</ele>
  <time>2026-09-01T20:03:05Z</time>
  <course>182.36</course>
  <speed>0.04</speed>
  <fix>3d</fix>
</trkpt>
<trkpt lat="21.1682377" lon="-156.8870487">
  <ele>203.54</ele>
  <time>2026-09-01T20:03:05Z</time>
  <course>345.69</course>
  <speed>0.044721359549995794</speed>
  <fix>3d</fix>
</trkpt>
<trkpt lat="21.1682378" lon="-156.8870489">
  <ele>203.92</ele>
  <time>2026-09-01T20:03:05Z</time>
  <course>207.78</course>
  <speed>0.05</speed>
  <fix>3d</fix>
</trkpt>
<trkpt lat="21.1682377" lon="-156.8870487">
  <ele>203.43</ele>
  <time>2026-09-01T20:03:05Z</time>
  <course>345.81</course>
  <speed>0.05</speed>
  <fix>3d</fix>
</trkpt>
<trkpt lat="21.1682378" lon="-156.8870489">
  <ele>203.92</ele>
  <time>2026-09-01T20:03:05Z</time>
  <course>207.78</course>
  <speed>0.05</speed>
  <fix>3d</fix>
</trkpt>
<trkpt lat="21.1682377" lon="-156.8870488">
  <ele>203.31</ele>
  <time>2026-09-01T20:03:05Z</time>
  <course>345.92</course>
  <speed>0.06403124237432849</speed>
  <fix>3d</fix>
</trkpt>
<trkpt lat="21.1682377" lon="-156.8870489">
  <ele>203.69</ele>
  <time>2026-09-01T20:03:05Z</time>
  <course>227.53</course>
  <speed>0.06</speed>
  <fix>3d</fix>
</trkpt>
<trkpt lat="21.1682376" lon="-156.8870489">
  <ele>203.2</ele>
  <time>2026-09-01T20:03:05Z</time>
  <course>346.01</course>
  <speed>0.07211102550927978</speed>
  <fix>3d</fix>
</trkpt>
<trkpt lat="21.1682377" lon="-156.8870489">
  <ele>203.69</ele>
  <time>2026-09-01T20:03:05Z</time>
  <course>227.53</course>
  <speed>0.06</speed>
  <fix>3d</fix>
</trkpt>
<trkpt lat="21.1682376" lon="-156.8870489">
  <ele>203.09</ele>
  <time>2026-09-01T20:03:05Z</time>
  <course>346.08</course>
  <speed>0.08062257748298549</speed>
  <fix>3d</fix>
</trkpt>
<trkpt lat="21.1682377" lon="-156.8870489">
  <ele>203.45</ele>
  <time>2026-09-01T20:03:05Z</time>
  <course>239.46</course>
  <speed>0.08</speed>
  <fix>3d</fix>
</trkpt>
<trkpt lat="21.1682376" lon="-156.887049">
  <ele>202.97</ele>
  <time>2026-09-01T20:03:05Z</time>
  <course>346.12</course>
  <speed>0.08944271909999159</speed>
  <fix>3d</fix>
</trkpt>
<trkpt lat="21.1682377" lon="-156.8870489">
  <ele>203.45</ele>
  <time>2026-09-01T20:03:05Z</time>
  <course>239.46</course>
  <speed>0.08</speed>
  <fix>3d</fix>
</trkpt>
<trkpt lat="21.1682375" lon="-156.8870491">
  <ele>202.86</ele>
  <time>2026-09-01T20:03:05Z</time>
  <course>346.15</course>
  <speed>0.08944271909999159</speed>
  <fix>3d</fix>
</trkpt>
<trkpt lat="21.1682376" lon="-156.8870491">
  <ele>203.22</ele>
  <time>2026-09-01T20:03:05Z</time>
  <course>246.59</course>
  <speed>0.09</speed>
  <fix>3d</fix>
</trkpt>
<trkpt lat="21.1682375" lon="-156.8870492">
  <ele>202.74</ele>
  <time>2026-09-01T20:03:05Z</time>
  <course>346.17</course>
  <speed>0.09848857801796104</speed>
  <fix>3d</fix>
</trkpt>
<trkpt lat="21.1682376" lon="-156.8870491">
  <ele>203.22</ele>
  <time>2026-09-01T20:03:05Z</time>
  <course>246.59</course>
  <speed>0.09</speed>
  <fix>3d</fix>
</trkpt>
<trkpt lat="21.1682375" lon="-156.8870493">
  <ele>202.62</ele>
  <time>2026-09-01T20:03:05Z</time>
  <course>346.18</course>
  <speed>0.10770329614269007</speed>
  <fix>3d</fix>
</trkpt>
<trkpt lat="21.1682375" lon="-156.8870493">
  <ele>202.99</ele>
  <time>2026-09-01T20:03:05Z</time>
  <course>251.18</course>
  <speed>0.11</speed>
  <fix>3d</fix>
</trkpt>
<trkpt lat="21.1682374" lon="-156.8870495">
  <ele>202.51</ele>
  <time>2026-09-01T20:03:05Z</time>
  <course>346.19</course>
  <speed>0.11704699910719625</speed>
  <fix>3d</fix>
</trkpt>
<trkpt lat="21.1682375" lon="-156.8870493">
  <ele>202.99</ele>
  <time>2026-09-01T20:03:05Z</time>
  <course>251.18</course>
  <speed>0.11</speed>
  <fix>3d</fix>
</trkpt>
<trkpt lat="21.1682374" lon="-156.8870496">
  <ele>202.39</ele>
  <time>2026-09-01T20:03:05Z</time>
  <course>346.19</course>
  <speed>0.11704699910719625</speed>
  <fix>3d</fix>
</trkpt>
<trkpt lat="21.1682375" lon="-156.8870495">
  <ele>202.76</ele>
  <time>2026-09-01T20:03:05Z</time>
  <course>254.27</course>
  <speed>0.13</speed>
  <fix>3d</fix>
</trkpt>
<trkpt lat="21.1682374" lon="-156.8870497">
  <ele>202.26</ele>
  <time>2026-09-01T20:03:05Z</time>
  <course>346.21</course>
  <speed>0.1264911064067352</speed>
  <fix>3d</fix>
</trkpt>
<trkpt lat="21.1682375" lon="-156.8870495">
  <ele>202.76</ele>
  <time>2026-09-01T20:03:05Z</time>
  <course>254.27</course>
  <speed>0.13</speed>
  <fix>3d</fix>
</trkpt>
<trkpt lat="21.1682373" lon="-156.8870498">
  <ele>202.15</ele>
  <time>2026-09-01T20:03:05Z</time>
  <course>346.22</course>
  <speed>0.12369316876852982</speed>
  <fix>3d</fix>
</trkpt>
<trkpt lat="21.1682374" lon="-156.8870498">
  <ele>202.53</ele>
  <time>2026-09-01T20:03:05Z</time>
  <course>256.78</course>
  <speed>0.14</speed>
  <fix>3d</fix>
</trkpt>
<trkpt lat="21.1682373" lon="-156.88705">
  <ele>202.03</ele>
  <time>2026-09-01T20:03:05Z</time>
  <course>346.24</course>
  <speed>0.12369316876852982</speed>
  <fix>3d</fix>
</trkpt>
<trkpt lat="21.1682374" lon="-156.8870498">
  <ele>202.53</ele>
  <time>2026-09-01T20:03:05Z</time>
  <course>256.78</course>
  <speed>0.14</speed>
  <fix>3d</fix>
</trkpt>
<trkpt lat="21.1682373" lon="-156.8870501">
  <ele>201.92</ele>
  <time>2026-09-01T20:03:05Z</time>
  <course>346.26</course>
  <speed>0.13341664064126335</speed>
  <fix>3d</fix>
</trkpt>
<trkpt lat="21.1682374" lon="-156.88705">
  <ele>202.29</ele>
  <time>2026-09-01T20:03:05Z</time>
  <course>259.1</course>
  <speed>0.15</speed>
  <fix>3d</fix>
</trkpt>
<trkpt lat="21.1682373" lon="-156.8870503">
  <ele>201.8</ele>
  <time>2026-09-01T20:03:05Z</time>
  <course>346.29</course>
  <speed>0.13341664064126335</speed>
  <fix>3d</fix>
</trkpt>
<trkpt lat="21.1682374" lon="-156.88705">
  <ele>202.29</ele>
  <time>2026-09-01T20:03:05Z</time>
  <course>259.1</course>
  <speed>0.15</speed>
  <fix>3d</fix>
</trkpt>
<trkpt lat="21.1682372" lon="-156.8870504">
  <ele>201.69</ele>
  <time>2026-09-01T20:03:05Z</time>
  <course>346.32</course>
  <speed>0.13341664064126335</speed>
  <fix>3d</fix>
</trkpt>
<trkpt lat="21.1682373" lon="-156.8870503">
  <ele>202.06</ele>
  <time>2026-09-01T20:03:05Z</time>
  <course>261.17</course>
  <speed>0.15</speed>
  <fix>3d</fix>
</trkpt>
<trkpt lat="21.1682372" lon="-156.8870505">
  <ele>201.57</ele>
  <time>2026-09-01T20:03:05Z</time>
  <course>346.35</course>
  <speed>0.13152946437965907</speed>
  <fix>3d</fix>
</trkpt>
<trkpt lat="21.1682373" lon="-156.8870503">
  <ele>202.06</ele>
  <time>2026-09-01T20:03:05Z</time>
  <course>261.17</course>
  <speed>0.15</speed>
  <fix>3d</fix>
</trkpt>
<trkpt lat="21.1682372" lon="-156.8870507">
  <ele>201.46</ele>
  <time>2026-09-01T20:03:05Z</time>
  <course>346.38</course>
  <speed>0.13152946437965907</speed>
  <fix>3d</fix>
</trkpt>
<trkpt lat="21.1682372" lon="-156.8870506">
  <ele>201.83</ele>
  <time>2026-09-01T20:03:05Z</time>
  <course>263.08</course>
  <speed>0.15</speed>
  <fix>3d</fix>
</trkpt>
<trkpt lat="21.1682372" lon="-156.8870508">
  <ele>201.34</ele>
  <time>2026-09-01T20:03:05Z</time>
  <course>346.41</course>
  <speed>0.13152946437965907</speed>
  <fix>3d</fix>
</trkpt>
<trkpt lat="21.1682372" lon="-156.8870506">
  <ele>201.83</ele>
  <time>2026-09-01T20:03:05Z</time>
  <course>263.08</course>
  <speed>0.15</speed>
  <fix>3d</fix>
</trkpt>
<trkpt lat="21.1682372" lon="-156.887051">
  <ele>201.23</ele>
  <time>2026-09-01T20:03:05Z</time>
  <course>346.43</course>
  <speed>0.12165525060596438</speed>
  <fix>3d</fix>
</trkpt>
<trkpt lat="21.1682372" lon="-156.8870509">
  <ele>201.6</ele>
  <time>2026-09-01T20:03:05Z</time>
  <course>264.85</course>
  <speed>0.15</speed>
  <fix>3d</fix>
</trkpt>
<trkpt lat="21.1682372" lon="-156.8870511">
  <ele>201.12</ele>
  <time>2026-09-01T20:03:05Z</time>
  <course>346.45</course>
  <speed>0.12165525060596438</speed>
  <fix>3d</fix>
</trkpt>
<trkpt lat="21.1682372" lon="-156.8870509">
  <ele>201.6</ele>
  <time>2026-09-01T20:03:05Z</time>
  <course>264.85</course>
  <speed>0.15</speed>
  <fix>3d</fix>
</trkpt>
<trkpt lat="21.1682372" lon="-156.8870513">
  <ele>201.0</ele>
  <time>2026-09-01T20:03:05Z</time>
  <course>346.47</course>
  <speed>0.12041594578792296</speed>
  <fix>3d</fix>
</trkpt>
<trkpt lat="21.1682372" lon="-156.8870512">
  <ele>201.37</ele>
  <time>2026-09-01T20:03:05Z</time>
  <course>266.64</course>
  <speed>0.15</speed>
  <fix>3d</fix>
</trkpt>
<trkpt lat="21.1682371" lon="-156.8870514">
  <ele>200.89</ele>
  <time>2026-09-01T20:03:05Z</time>
  <course>346.49</course>
  <speed>0.11045361017187261</speed>
  <fix>3d</fix>
</trkpt>
<trkpt lat="21.1682372" lon="-156.8870512">
  <ele>201.37</ele>
  <time>2026-09-01T20:03:05Z</time>
  <course>266.64</course>
  <speed>0.15</speed>
  <fix>3d</fix>
</trkpt>
<trkpt lat="21.1682371" lon="-156.8870515">
  <ele>200.78</ele>
  <time>2026-09-01T20:03:05Z</time>
  <course>346.5</course>
  <speed>0.11045361017187261</speed>
  <fix>3d</fix>
</trkpt>
<trkpt lat="21.1682372" lon="-156.8870515">
  <ele>201.14</ele>
  <time>2026-09-01T20:03:05Z</time>
  <course>268.53</course>
  <speed>0.14</speed>
  <fix>3d</fix>
</trkpt>
<trkpt lat="21.1682371" lon="-156.8870516">
  <ele>200.66</ele>
  <time>2026-09-01T20:03:05Z</time>
  <course>346.52</course>
  <speed>0.1004987562112089</speed>
  <fix>3d</fix>
</trkpt>
<trkpt lat="21.1682372" lon="-156.8870515">
  <ele>201.14</ele>
  <time>2026-09-01T20:03:05Z</time>
  <course>268.53</course>
  <speed>0.14</speed>
  <fix>3d</fix>
</trkpt>
<trkpt lat="21.1682371" lon="-156.8870518">
  <ele>200.55</ele>
  <time>2026-09-01T20:03:05Z</time>
  <course>346.54</course>
  <speed>0.1</speed>
  <fix>3d</fix>
</trkpt>
<trkpt lat="21.1682372" lon="-156.8870518">
  <ele>200.91</ele>
  <time>2026-09-01T20:03:05Z</time>
  <course>270.55</course>
  <speed>0.14</speed>
  <fix>3d</fix>
</trkpt>
<trkpt lat="21.1682371" lon="-156.8870519">
  <ele>200.43</ele>
  <time>2026-09-01T20:03:05Z</time>
  <course>346.56</course>
  <speed>0.09</speed>
  <fix>3d</fix>
</trkpt>
<trkpt lat="21.1682372" lon="-156.8870518">
  <ele>200.91</ele>
  <time>2026-09-01T20:03:05Z</time>
  <course>270.55</course>
  <speed>0.14</speed>
  <fix>3d</fix>
</trkpt>
<trkpt lat="21.1682372" lon="-156.887052">
  <ele>200.32</ele>
  <time>2026-09-01T20:03:05Z</time>
  <course>346.58</course>
  <speed>0.08</speed>
  <fix>3d</fix>
</trkpt>
<trkpt lat="21.1682372" lon="-156.8870521">
  <ele>200.69</ele>
  <time>2026-09-01T20:03:05Z</time>
  <course>273.09</course>
  <speed>0.13</speed>
  <fix>3d</fix>
</trkpt>
<trkpt lat="21.1682372" lon="-156.8870521">
  <ele>200.2</ele>
  <time>2026-09-01T20:03:05Z</time>
  <course>346.6</course>
  <speed>0.08</speed>
  <fix>3d</fix>
</trkpt>
<trkpt lat="21.1682372" lon="-156.8870521">
  <ele>200.69</ele>
  <time>2026-09-01T20:03:05Z</time>
  <course>273.09</course>
  <speed>0.13</speed>
  <fix>3d</fix>
</trkpt>
<trkpt lat="21.1682372" lon="-156.8870522">
  <ele>200.08</ele>
  <time>2026-09-01T20:03:05Z</time>
  <course>346.62</course>
  <speed>0.07</speed>
  <fix>3d</fix>
</trkpt>
<trkpt lat="21.1682372" lon="-156.8870523">
  <ele>200.45</ele>
  <time>2026-09-01T20:03:05Z</time>
  <course>276.27</course>
  <speed>0.11</speed>
  <fix>3d</fix>
</trkpt>
<trkpt lat="21.1682372" lon="-156.8870523">
  <ele>199.96</ele>
  <time>2026-09-01T20:03:05Z</time>
  <course>346.65</course>
  <speed>0.06</speed>
  <fix>3d</fix>
</trkpt>
<trkpt lat="21.1682372" lon="-156.8870523">
  <ele>200.45</ele>
  <time>2026-09-01T20:03:05Z</time>
  <course>276.27</course>
  <speed>0.11</speed>
  <fix>3d</fix>
</trkpt>
<trkpt lat="21.1682372" lon="-156.8870524">
  <ele>199.84</ele>
  <time>2026-09-01T20:03:05Z</time>
  <course>346.68</course>
  <speed>0.05</speed>
  <fix>3d</fix>
</trkpt>
<trkpt lat="21.1682372" lon="-156.8870526">
  <ele>200.22</ele>
  <time>2026-09-01T20:03:05Z</time>
  <course>280.04</course>
  <speed>0.1</speed>
  <fix>3d</fix>
</trkpt>
<trkpt lat="21.1682372" lon="-156.8870525">
  <ele>199.73</ele>
  <time>2026-09-01T20:03:05Z</time>
  <course>346.7</course>
  <speed>0.05</speed>
  <fix>3d</fix>
</trkpt>
<trkpt lat="21.1682372" lon="-156.8870526">
  <ele>200.22</ele>
  <time>2026-09-01T20:03:05Z</time>
  <course>280.04</course>
  <speed>0.1</speed>
  <fix>3d</fix>
</trkpt>
<trkpt lat="21.1682372" lon="-156.8870525">
  <ele>199.61</ele>
  <time>2026-09-01T20:03:05Z</time>
  <course>346.74</course>
  <speed>0.04</speed>
  <fix>3d</fix>
</trkpt>
<trkpt lat="21.1682372" lon="-156.8870527">
  <ele>200.0</ele>
  <time>2026-09-01T20:03:05Z</time>
  <course>284.4</course>
  <speed>0.08</speed>
  <fix>3d</fix>
</trkpt>
<trkpt lat="21.1682372" lon="-156.8870526">
  <ele>199.5</ele>
  <time>2026-09-01T20:03:06Z</time>
  <course>346.77</course>
  <speed>0.03</speed>
  <fix>3d</fix>
</trkpt>
<trkpt lat="21.1682372" lon="-156.8870527">
  <ele>200.0</ele>
  <time>2026-09-01T20:03:06Z</time>
  <course>284.4</course>
  <speed>0.08</speed>
  <fix>3d</fix>
</trkpt>
<trkpt lat="21.1682372" lon="-156.8870527">
  <ele>199.39</ele>
  <time>2026-09-01T20:03:06Z</time>
  <course>346.82</course>
  <speed>0.02</speed>
  <fix>3d</fix>
</trkpt>
<trkpt lat="21.1682372" lon="-156.8870528">
  <ele>199.77</ele>
  <time>2026-09-01T20:03:06Z</time>
  <course>289.91</course>
  <speed>0.07</speed>
  <fix>3d</fix>
</trkpt>
<trkpt lat="21.1682372" lon="-156.8870527">
  <ele>199.27</ele>
  <time>2026-09-01T20:03:06Z</time>
  <course>346.87</course>
  <speed>0.022360679774997897</speed>
  <fix>3d</fix>
</trkpt>
<trkpt lat="21.1682372" lon="-156.8870528">
  <ele>199.77</ele>
  <time>2026-09-01T20:03:06Z</time>
  <course>289.91</course>
  <speed>0.07</speed>
  <fix>3d</fix>
</trkpt>
<trkpt lat="21.1682372" lon="-156.8870528">
  <ele>199.16</ele>
  <time>2026-09-01T20:03:06Z</time>
  <course>346.92</course>
  <speed>0.01414213562373095</speed>
  <fix>3d</fix>
</trkpt>
<trkpt lat="21.1682372" lon="-156.887053">
  <ele>199.54</ele>
  <time>2026-09-01T20:03:06Z</time>
  <course>297.19</course>
  <speed>0.06</speed>
  <fix>3d</fix>
</trkpt>
<trkpt lat="21.1682372" lon="-156.8870528">
  <ele>199.05</ele>
  <time>2026-09-01T20:03:06Z</time>
  <course>346.99</course>
  <speed>0.01414213562373095</speed>
  <fix>3d</fix>
</trkpt>
<trkpt lat="21.1682372" lon="-156.887053">
  <ele>199.54</ele>
  <time>2026-09-01T20:03:06Z</time>
  <course>297.19</course>
  <speed>0.06</speed>
  <fix>3d</fix>
</trkpt>
<trkpt lat="21.1682372" lon="-156.8870528">
  <ele>198.94</ele>
  <time>2026-09-01T20:03:06Z</time>
  <course>347.06</course>
  <speed>0.01</speed>
  <fix>3d</fix>
</trkpt>
<trkpt lat="21.1682373" lon="-156.8870531">
  <ele>199.31</ele>
  <time>2026-09-01T20:03:06Z</time>
  <course>306.3</course>
  <speed>0.05</speed>
  <fix>3d</fix>
</trkpt>
<trkpt lat="21.1682373" lon="-156.8870529">
  <ele>198.82</ele>
  <time>2026-09-01T20:03:06Z</time>
  <course>347.14</course>
  <speed>0.01</speed>
  <fix>3d</fix>
</trkpt>
<trkpt lat="21.1682373" lon="-156.8870531">
  <ele>199.31</ele>
  <time>2026-09-01T20:03:06Z</time>
  <course>306.3</course>
  <speed>0.05</speed>
  <fix>3d</fix>
</trkpt>
<trkpt lat="21.1682373" lon="-156.8870529">
  <ele>198.71</ele>
  <time>2026-09-01T20:03:06Z</time>
  <course>347.22</course>
  <speed>0.01</speed>
  <fix>3d</fix>
</trkpt>
<trkpt lat="21.1682374" lon="-156.8870532">
  <ele>199.08</ele>
  <time>2026-09-01T20:03:06Z</time>
  <course>316.72</course>
  <speed>0.04</speed>
  <fix>3d</fix>
</trkpt>
<trkpt lat="21.1682373" lon="-156.8870529">
  <ele>198.6</ele>
  <time>2026-09-01T20:03:06Z</time>
  <course>347.31</course>
  <speed>0.01</speed>
  <fix>3d</fix>
</trkpt>
<trkpt lat="21.1682374" lon="-156.8870532">
  <ele>199.08</ele>
  <time>2026-09-01T20:03:06Z</time>
  <course>316.72</course>
  <speed>0.04</speed>
  <fix>3d</fix>
</trkpt>
<trkpt lat="21.1682373" lon="-156.8870529">
  <ele>198.48</ele>
  <time>2026-09-01T20:03:06Z</time>
  <course>347.4</course>
  <speed>0.01414213562373095</speed>
  <fix>3d</fix>
</trkpt>
<trkpt lat="21.1682375" lon="-156.8870532">
  <ele>198.85</ele>
  <time>2026-09-01T20:03:06Z</time>
  <course>327.19</course>
  <speed>0.04</speed>
  <fix>3d</fix>
</trkpt>
<trkpt lat="21.1682374" lon="-156.887053">
  <ele>198.37</ele>
  <time>2026-09-01T20:03:06Z</time>
  <course>347.48</course>
  <speed>0.01414213562373095</speed>
  <fix>3d</fix>
</trkpt>
<trkpt lat="21.1682375" lon="-156.8870532">
  <ele>198.85</ele>
  <time>2026-09-01T20:03:06Z</time>
  <course>327.19</course>
  <speed>0.04</speed>
  <fix>3d</fix>
</trkpt>
<trkpt lat="21.1682374" lon="-156.887053">
  <ele>198.25</ele>
  <time>2026-09-01T20:03:06Z</time>
  <course>347.56</course>
  <speed>0.01414213562373095</speed>
  <fix>3d</fix>
</trkpt>
<trkpt lat="21.1682375" lon="-156.8870533">
  <ele>198.63</ele>
  <time>2026-09-01T20:03:06Z</time>
  <course>336.59</course>
  <speed>0.04</speed>
  <fix>3d</fix>
</trkpt>
<trkpt lat="21.1682374" lon="-156.887053">
  <ele>198.13</ele>
  <time>2026-09-01T20:03:06Z</time>
  <course>347.64</course>
  <speed>0.01414213562373095</speed>
  <fix>3d</fix>
</trkpt>
<trkpt lat="21.1682375" lon="-156.8870533">
  <ele>198.63</ele>
  <time>2026-09-01T20:03:06Z</time>
  <course>336.59</course>
  <speed>0.04</speed>
  <fix>3d</fix>
</trkpt>
<trkpt lat="21.1682375" lon="-156.887053">
  <ele>198.02</ele>
  <time>2026-09-01T20:03:06Z</time>
  <course>347.7</course>
  <speed>0.01414213562373095</speed>
  <fix>3d</fix>
</trkpt>
<trkpt lat="21.1682376" lon="-156.8870533">
  <ele>198.4</ele>
  <time>2026-09-01T20:03:06Z</time>
  <course>344.34</course>
  <speed>0.04</speed>
  <fix>3d</fix>
</trkpt>
<trkpt lat="21.1682375" lon="-156.887053">
  <ele>197.9</ele>
  <time>2026-09-01T20:03:06Z</time>
  <course>347.76</course>
  <speed>0.022360679774997897</speed>
  <fix>3d</fix>
</trkpt>
<trkpt lat="21.1682376" lon="-156.8870533">
  <ele>198.4</ele>
  <time>2026-09-01T20:03:06Z</time>
  <course>344.34</course>
  <speed>0.04</speed>
  <fix>3d</fix>
</trkpt>
<trkpt lat="21.1682375" lon="-156.887053">
  <ele>197.79</ele>
  <time>2026-09-01T20:03:06Z</time>
  <course>347.81</course>
  <speed>0.022360679774997897</speed>
  <fix>3d</fix>
</trkpt>
<trkpt lat="21.1682377" lon="-156.8870533">
  <ele>198.16</ele>
  <time>2026-09-01T20:03:06Z</time>
  <course>350.78</course>
  <speed>0.03</speed>
  <fix>3d</fix>
</trkpt>
<trkpt lat="21.1682375" lon="-156.887053">
  <ele>197.67</ele>
  <time>2026-09-01T20:03:06Z</time>
  <course>347.85</course>
  <speed>0.022360679774997897</speed>
  <fix>3d</fix>
</trkpt>
<trkpt lat="21.1682377" lon="-156.8870533">
  <ele>198.16</ele>
  <time>2026-09-01T20:03:06Z</time>
  <course>350.78</course>
  <speed>0.03</speed>
  <fix>3d</fix>
</trkpt>
<trkpt lat="21.1682376" lon="-156.887053">
  <ele>197.56</ele>
  <time>2026-09-01T20:03:06Z</time>
  <course>347.89</course>
  <speed>0.022360679774997897</speed>
  <fix>3d</fix>
</trkpt>
<trkpt lat="21.1682377" lon="-156.8870533">
  <ele>197.93</ele>
  <time>2026-09-01T20:03:06Z</time>
  <course>356.17</course>
  <speed>0.03</speed>
  <fix>3d</fix>
</trkpt>
<trkpt lat="21.1682376" lon="-156.887053">
  <ele>197.44</ele>
  <time>2026-09-01T20:03:06Z</time>
  <course>347.92</course>
  <speed>0.022360679774997897</speed>
  <fix>3d</fix>
</trkpt>
<trkpt lat="21.1682377" lon="-156.8870533">
  <ele>197.93</ele>
  <time>2026-09-01T20:03:06Z</time>
  <course>356.17</course>
  <speed>0.03</speed>
  <fix>3d</fix>
</trkpt>
<trkpt lat="21.1682376" lon="-156.887053">
  <ele>197.32</ele>
  <time>2026-09-01T20:03:06Z</time>
  <course>347.95</course>
  <speed>0.022360679774997897</speed>
  <fix>3d</fix>
</trkpt>
<trkpt lat="21.1682378" lon="-156.8870533">
  <ele>197.7</ele>
  <time>2026-09-01T20:03:06Z</time>
  <course>0.6</course>
  <speed>0.03</speed>
  <fix>3d</fix>
</trkpt>
<trkpt lat="21.1682377" lon="-156.887053">
  <ele>197.21</ele>
  <time>2026-09-01T20:03:06Z</time>
  <course>347.98</course>
  <speed>0.02</speed>
  <fix>3d</fix>
</trkpt>
<trkpt lat="21.1682378" lon="-156.8870533">
  <ele>197.7</ele>
  <time>2026-09-01T20:03:06Z</time>
  <course>0.6</course>
  <speed>0.03</speed>
  <fix>3d</fix>
</trkpt>
<trkpt lat="21.1682377" lon="-156.887053">
  <ele>197.1</ele>
  <time>2026-09-01T20:03:06Z</time>
  <course>348.01</course>
  <speed>0.02</speed>
  <fix>3d</fix>
</trkpt>
<trkpt lat="21.1682378" lon="-156.8870533">
  <ele>197.47</ele>
  <time>2026-09-01T20:03:06Z</time>
  <course>4.81</course>
  <speed>0.03</speed>
  <fix>3d</fix>
</trkpt>
<trkpt lat="21.1682377" lon="-156.887053">
  <ele>196.98</ele>
  <time>2026-09-01T20:03:06Z</time>
  <course>348.04</course>
  <speed>0.03</speed>
  <fix>3d</fix>
</trkpt>
<trkpt lat="21.1682378" lon="-156.8870533">
  <ele>197.47</ele>
  <time>2026-09-01T20:03:06Z</time>
  <course>4.81</course>
  <speed>0.03</speed>
  <fix>3d</fix>
</trkpt>
<trkpt lat="21.1682377" lon="-156.887053">
  <ele>196.87</ele>
  <time>2026-09-01T20:03:06Z</time>
  <course>348.07</course>
  <speed>0.03</speed>
  <fix>3d</fix>
</trkpt>
<trkpt lat="21.1682379" lon="-156.8870533">
  <ele>197.24</ele>
  <time>2026-09-01T20:03:06Z</time>
  <course>9.21</course>
  <speed>0.03</speed>
  <fix>3d</fix>
</trkpt>
<trkpt lat="21.1682378" lon="-156.887053">
  <ele>196.75</ele>
  <time>2026-09-01T20:03:06Z</time>
  <course>348.11</course>
  <speed>0.03</speed>
  <fix>3d</fix>
</trkpt>
<trkpt lat="21.1682379" lon="-156.8870533">
  <ele>197.24</ele>
  <time>2026-09-01T20:03:06Z</time>
  <course>9.21</course>
  <speed>0.03</speed>
  <fix>3d</fix>
</trkpt>
<trkpt lat="21.1682378" lon="-156.887053">
  <ele>196.64</ele>
  <time>2026-09-01T20:03:06Z</time>
  <course>348.13</course>
  <speed>0.03</speed>
  <fix>3d</fix>
</trkpt>
<trkpt lat="21.168238" lon="-156.8870533">
  <ele>197.01</ele>
  <time>2026-09-01T20:03:06Z</time>
  <course>13.13</course>
  <speed>0.03</speed>
  <fix>3d</fix>
</trkpt>
<trkpt lat="21.1682378" lon="-156.887053">
  <ele>196.52</ele>
  <time>2026-09-01T20:03:06Z</time>
  <course>348.16</course>
  <speed>0.03</speed>
  <fix>3d</fix>
</trkpt>
<trkpt lat="21.168238" lon="-156.8870533">
  <ele>197.01</ele>
  <time>2026-09-01T20:03:06Z</time>
  <course>13.13</course>
  <speed>0.03</speed>
  <fix>3d</fix>
</trkpt>
<trkpt lat="21.1682378" lon="-156.887053">
  <ele>196.41</ele>
  <time>2026-09-01T20:03:06Z</time>
  <course>348.18</course>
  <speed>0.03</speed>
  <fix>3d</fix>
</trkpt>
<trkpt lat="21.168238" lon="-156.8870533">
  <ele>196.78</ele>
  <time>2026-09-01T20:03:06Z</time>
  <course>16.35</course>
  <speed>0.02</speed>
  <fix>3d</fix>
</trkpt>
<trkpt lat="21.1682378" lon="-156.887053">
  <ele>196.29</ele>
  <time>2026-09-01T20:03:06Z</time>
  <course>348.2</course>
  <speed>0.03</speed>
  <fix>3d</fix>
</trkpt>
<trkpt lat="21.168238" lon="-156.8870533">
  <ele>196.78</ele>
  <time>2026-09-01T20:03:06Z</time>
  <course>16.35</course>
  <speed>0.02</speed>
  <fix>3d</fix>
</trkpt>
<trkpt lat="21.1682379" lon="-156.887053">
  <ele>196.18</ele>
  <time>2026-09-01T20:03:06Z</time>
  <course>348.23</course>
  <speed>0.03</speed>
  <fix>3d</fix>
</trkpt>
<trkpt lat="21.1682381" lon="-156.8870533">
  <ele>196.55</ele>
  <time>2026-09-01T20:03:06Z</time>
  <course>20.1</course>
  <speed>0.02</speed>
  <fix>3d</fix>
</trkpt>
<trkpt lat="21.1682379" lon="-156.887053">
  <ele>196.06</ele>
  <time>2026-09-01T20:03:06Z</time>
  <course>348.26</course>
  <speed>0.03</speed>
  <fix>3d</fix>
</trkpt>
<trkpt lat="21.1682381" lon="-156.8870533">
  <ele>196.55</ele>
  <time>2026-09-01T20:03:06Z</time>
  <course>20.1</course>
  <speed>0.02</speed>
  <fix>3d</fix>
</trkpt>
<trkpt lat="21.1682379" lon="-156.887053">
  <ele>195.95</ele>
  <time>2026-09-01T20:03:06Z</time>
  <course>348.28</course>
  <speed>0.03</speed>
  <fix>3d</fix>
</trkpt>
<trkpt lat="21.1682381" lon="-156.8870533">
  <ele>196.32</ele>
  <time>2026-09-01T20:03:06Z</time>
  <course>24.27</course>
  <speed>0.02</speed>
  <fix>3d</fix>
</trkpt>
<trkpt lat="21.1682379" lon="-156.887053">
  <ele>195.83</ele>
  <time>2026-09-01T20:03:06Z</time>
  <course>348.31</course>
  <speed>0.03</speed>
  <fix>3d</fix>
</trkpt>
<trkpt lat="21.1682381" lon="-156.8870533">
  <ele>196.32</ele>
  <time>2026-09-01T20:03:06Z</time>
  <course>24.27</course>
  <speed>0.02</speed>
  <fix>3d</fix>
</trkpt>
<trkpt lat="21.1682379" lon="-156.887053">
  <ele>195.72</ele>
  <time>2026-09-01T20:03:06Z</time>
  <course>348.34</course>
  <speed>0.03</speed>
  <fix>3d</fix>
</trkpt>
<trkpt lat="21.1682381" lon="-156.8870533">
  <ele>196.1</ele>
  <time>2026-09-01T20:03:06Z</time>
  <course>27.82</course>
  <speed>0.02</speed>
  <fix>3d</fix>
</trkpt>
<trkpt lat="21.168238" lon="-156.887053">
  <ele>195.61</ele>
  <time>2026-09-01T20:03:06Z</time>
  <course>348.36</course>
  <speed>0.03</speed>
  <fix>3d</fix>
</trkpt>
<trkpt lat="21.1682381" lon="-156.8870533">
  <ele>196.1</ele>
  <time>2026-09-01T20:03:06Z</time>
  <course>27.82</course>
  <speed>0.02</speed>
  <fix>3d</fix>
</trkpt>
<trkpt lat="21.168238" lon="-156.887053">
  <ele>195.49</ele>
  <time>2026-09-01T20:03:06Z</time>
  <course>348.39</course>
  <speed>0.03</speed>
  <fix>3d</fix>
</trkpt>
<trkpt lat="21.1682382" lon="-156.8870533">
  <ele>195.87</ele>
  <time>2026-09-01T20:03:06Z</time>
  <course>31.38</course>
  <speed>0.02</speed>
  <fix>3d</fix>
</trkpt>
<trkpt lat="21.168238" lon="-156.887053">
  <ele>195.38</ele>
  <time>2026-09-01T20:03:06Z</time>
  <course>348.42</course>
  <speed>0.03</speed>
  <fix>3d</fix>
</trkpt>
<trkpt lat="21.1682382" lon="-156.8870533">
  <ele>195.87</ele>
  <time>2026-09-01T20:03:06Z</time>
  <course>31.38</course>
  <speed>0.02</speed>
  <fix>3d</fix>
</trkpt>
<trkpt lat="21.168238" lon="-156.887053">
  <ele>195.27</ele>
  <time>2026-09-01T20:03:06Z</time>
  <course>348.44</course>
  <speed>0.03</speed>
  <fix>3d</fix>
</trkpt>
<trkpt lat="21.1682383" lon="-156.8870533">
  <ele>195.64</ele>
  <time>2026-09-01T20:03:06Z</time>
  <course>34.68</course>
  <speed>0.01</speed>
  <fix>3d</fix>
</trkpt>
<trkpt lat="21.168238" lon="-156.887053">
  <ele>195.15</ele>
  <time>2026-09-01T20:03:06Z</time>
  <course>348.46</course>
  <speed>0.03</speed>
  <fix>3d</fix>
</trkpt>
<trkpt lat="21.1682383" lon="-156.8870533">
  <ele>195.64</ele>
  <time>2026-09-01T20:03:06Z</time>
  <course>34.68</course>
  <speed>0.01</speed>
  <fix>3d</fix>
</trkpt>
<trkpt lat="21.168238" lon="-156.887053">
  <ele>195.04</ele>
  <time>2026-09-01T20:03:06Z</time>
  <course>348.47</course>
  <speed>0.03</speed>
  <fix>3d</fix>
</trkpt>
<trkpt lat="21.1682383" lon="-156.8870533">
  <ele>195.41</ele>
  <time>2026-09-01T20:03:06Z</time>
  <course>37.94</course>
  <speed>0.01</speed>
  <fix>3d</fix>
</trkpt>
<trkpt lat="21.1682381" lon="-156.887053">
  <ele>194.92</ele>
  <time>2026-09-01T20:03:06Z</time>
  <course>348.49</course>
  <speed>0.03</speed>
  <fix>3d</fix>
</trkpt>
<trkpt lat="21.1682383" lon="-156.8870533">
  <ele>195.41</ele>
  <time>2026-09-01T20:03:06Z</time>
  <course>37.94</course>
  <speed>0.01</speed>
  <fix>3d</fix>
</trkpt>
<trkpt lat="21.1682381" lon="-156.887053">
  <ele>194.81</ele>
  <time>2026-09-01T20:03:06Z</time>
  <course>348.51</course>
  <speed>0.0316227766016838</speed>
  <fix>3d</fix>
</trkpt>
<trkpt lat="21.1682383" lon="-156.8870533">
  <ele>195.18</ele>
  <time>2026-09-01T20:03:06Z</time>
  <course>42.3</course>
  <speed>0.01</speed>
  <fix>3d</fix>
</trkpt>
<trkpt lat="21.1682381" lon="-156.887053">
  <ele>194.69</ele>
  <time>2026-09-01T20:03:06Z</time>
  <course>348.52</course>
  <speed>0.0316227766016838</speed>
  <fix>3d</fix>
</trkpt>
<trkpt lat="21.1682383" lon="-156.8870533">
  <ele>195.18</ele>
  <time>2026-09-01T20:03:06Z</time>
  <course>42.3</course>
  <speed>0.01</speed>
  <fix>3d</fix>
</trkpt>
<trkpt lat="21.1682381" lon="-156.887053">
  <ele>194.58</ele>
  <time>2026-09-01T20:03:06Z</time>
  <course>348.54</course>
  <speed>0.022360679774997897</speed>
  <fix>3d</fix>
</trkpt>
<trkpt lat="21.1682383" lon="-156.8870532">
  <ele>194.95</ele>
  <time>2026-09-01T20:03:06Z</time>
  <course>48.38</course>
  <speed>0.01</speed>
  <fix>3d</fix>
</trkpt>
<trkpt lat="21.1682381" lon="-156.887053">
  <ele>194.46</ele>
  <time>2026-09-01T20:03:06Z</time>
  <course>348.57</course>
  <speed>0.022360679774997897</speed>
  <fix>3d</fix>
</trkpt>
<trkpt lat="21.1682383" lon="-156.8870532">
  <ele>194.95</ele>
  <time>2026-09-01T20:03:06Z</time>
  <course>48.38</course>
  <speed>0.01</speed>
  <fix>3d</fix>
</trkpt>
<trkpt lat="21.1682381" lon="-156.887053">
  <ele>194.35</ele>
  <time>2026-09-01T20:03:06Z</time>
  <course>348.6</course>
  <speed>0.022360679774997897</speed>
  <fix>3d</fix>
</trkpt>
<trkpt lat="21.1682383" lon="-156.8870532">
  <ele>194.72</ele>
  <time>2026-09-01T20:03:06Z</time>
  <course>57.5</course>
  <speed>0.01</speed>
  <fix>3d</fix>
</trkpt>
<trkpt lat="21.1682381" lon="-156.887053">
  <ele>194.23</ele>
  <time>2026-09-01T20:03:06Z</time>
  <course>348.63</course>
  <speed>0.022360679774997897</speed>
  <fix>3d</fix>
</trkpt>
<trkpt lat="21.1682383" lon="-156.8870532">
  <ele>194.72</ele>
  <time>2026-09-01T20:03:06Z</time>
  <course>57.5</course>
  <speed>0.01</speed>
  <fix>3d</fix>
</trkpt>
<trkpt lat="21.1682381" lon="-156.887053">
  <ele>194.12</ele>
  <time>2026-09-01T20:03:06Z</time>
  <course>348.65</course>
  <speed>0.022360679774997897</speed>
  <fix>3d</fix>
</trkpt>
<trkpt lat="21.1682384" lon="-156.8870532">
  <ele>194.48</ele>
  <time>2026-09-01T20:03:06Z</time>
  <course>68.23</course>
  <speed>0.01</speed>
  <fix>3d</fix>
</trkpt>
<trkpt lat="21.1682381" lon="-156.887053">
  <ele>194.01</ele>
  <time>2026-09-01T20:03:06Z</time>
  <course>348.67</course>
  <speed>0.022360679774997897</speed>
  <fix>3d</fix>
</trkpt>
<trkpt lat="21.1682384" lon="-156.8870532">
  <ele>194.48</ele>
  <time>2026-09-01T20:03:06Z</time>
  <course>68.23</course>
  <speed>0.01</speed>
  <fix>3d</fix>
</trkpt>
<trkpt lat="21.1682381" lon="-156.887053">
  <ele>193.89</ele>
  <time>2026-09-01T20:03:06Z</time>
  <course>348.69</course>
  <speed>0.022360679774997897</speed>
  <fix>3d</fix>
</trkpt>
<trkpt lat="21.1682384" lon="-156.8870532">
  <ele>194.25</ele>
  <time>2026-09-01T20:03:06Z</time>
  <course>79.71</course>
  <speed>0.0</speed>
  <fix>3d</fix>
</trkpt>
<trkpt lat="21.1682381" lon="-156.887053">
  <ele>193.78</ele>
  <time>2026-09-01T20:03:06Z</time>
  <course>348.71</course>
  <speed>0.022360679774997897</speed>
  <fix>3d</fix>
</trkpt>
<trkpt lat="21.1682384" lon="-156.8870532">
  <ele>194.25</ele>
  <time>2026-09-01T20:03:06Z</time>
  <course>79.71</course>
  <speed>0.0</speed>
  <fix>3d</fix>
</trkpt>
<trkpt lat="21.1682381" lon="-156.887053">
  <ele>193.66</ele>
  <time>2026-09-01T20:03:06Z</time>
  <course>348.73</course>
  <speed>0.022360679774997897</speed>
  <fix>3d</fix>
</trkpt>
<trkpt lat="21.1682384" lon="-156.8870532">
  <ele>194.02</ele>
  <time>2026-09-01T20:03:06Z</time>
  <course>93.22</course>
  <speed>0.0</speed>
  <fix>3d</fix>
</trkpt>
<trkpt lat="21.1682381" lon="-156.887053">
  <ele>193.55</ele>
  <time>2026-09-01T20:03:06Z</time>
  <course>348.75</course>
  <speed>0.0282842712474619</speed>
  <fix>3d</fix>
</trkpt>
<trkpt lat="21.1682384" lon="-156.8870532">
  <ele>194.02</ele>
  <time>2026-09-01T20:03:06Z</time>
  <course>93.22</course>
  <speed>0.0</speed>
  <fix>3d</fix>
</trkpt>
<trkpt lat="21.1682381" lon="-156.887053">
  <ele>193.43</ele>
  <time>2026-09-01T20:03:06Z</time>
  <course>348.76</course>
  <speed>0.0282842712474619</speed>
  <fix>3d</fix>
</trkpt>
<trkpt lat="21.1682384" lon="-156.8870531">
  <ele>193.79</ele>
  <time>2026-09-01T20:03:06Z</time>
  <course>106.21</course>
  <speed>0.0</speed>
  <fix>3d</fix>
</trkpt>
<trkpt lat="21.1682381" lon="-156.887053">
  <ele>193.32</ele>
  <time>2026-09-01T20:03:06Z</time>
  <course>348.78</course>
  <speed>0.0282842712474619</speed>
  <fix>3d</fix>
</trkpt>
<trkpt lat="21.1682384" lon="-156.8870531">
  <ele>193.79</ele>
  <time>2026-09-01T20:03:06Z</time>
  <course>106.21</course>
  <speed>0.0</speed>
  <fix>3d</fix>
</trkpt>
<trkpt lat="21.1682381" lon="-156.887053">
  <ele>193.2</ele>
  <time>2026-09-01T20:03:06Z</time>
  <course>348.78</course>
  <speed>0.0282842712474619</speed>
  <fix>3d</fix>
</trkpt>
<trkpt lat="21.1682384" lon="-156.8870531">
  <ele>193.56</ele>
  <time>2026-09-01T20:03:06Z</time>
  <course>116.72</course>
  <speed>0.01</speed>
  <fix>3d</fix>
</trkpt>
<trkpt lat="21.1682381" lon="-156.887053">
  <ele>193.08</ele>
  <time>2026-09-01T20:03:06Z</time>
  <course>348.78</course>
  <speed>0.0282842712474619</speed>
  <fix>3d</fix>
</trkpt>
<trkpt lat="21.1682384" lon="-156.8870531">
  <ele>193.56</ele>
  <time>2026-09-01T20:03:06Z</time>
  <course>116.72</course>
  <speed>0.01</speed>
  <fix>3d</fix>
</trkpt>
<trkpt lat="21.1682381" lon="-156.8870529">
  <ele>192.97</ele>
  <time>2026-09-01T20:03:06Z</time>
  <course>348.78</course>
  <speed>0.0282842712474619</speed>
  <fix>3d</fix>
</trkpt>
<trkpt lat="21.1682384" lon="-156.8870531">
  <ele>193.33</ele>
  <time>2026-09-01T20:03:06Z</time>
  <course>125.48</course>
  <speed>0.01</speed>
  <fix>3d</fix>
</trkpt>
<trkpt lat="21.1682381" lon="-156.8870529">
  <ele>192.85</ele>
  <time>2026-09-01T20:03:06Z</time>
  <course>348.78</course>
  <speed>0.0282842712474619</speed>
  <fix>3d</fix>
</trkpt>
<trkpt lat="21.1682384" lon="-156.8870531">
  <ele>193.33</ele>
  <time>2026-09-01T20:03:06Z</time>
  <course>125.48</course>
  <speed>0.01</speed>
  <fix>3d</fix>
</trkpt>
<trkpt lat="21.1682381" lon="-156.8870529">
  <ele>192.74</ele>
  <time>2026-09-01T20:03:06Z</time>
  <course>348.77</course>
  <speed>0.0282842712474619</speed>
  <fix>3d</fix>
</trkpt>
<trkpt lat="21.1682384" lon="-156.8870531">
  <ele>193.1</ele>
  <time>2026-09-01T20:03:06Z</time>
  <course>131.14</course>
  <speed>0.01</speed>
  <fix>3d</fix>
</trkpt>
<trkpt lat="21.1682382" lon="-156.8870529">
  <ele>192.62</ele>
  <time>2026-09-01T20:03:06Z</time>
  <course>348.75</course>
  <speed>0.0282842712474619</speed>
  <fix>3d</fix>
</trkpt>
<trkpt lat="21.1682384" lon="-156.8870531">
  <ele>193.1</ele>
  <time>2026-09-01T20:03:06Z</time>
  <course>131.14</course>
  <speed>0.01</speed>
  <fix>3d</fix>
</trkpt>
<trkpt lat="21.1682382" lon="-156.8870529">
  <ele>192.5</ele>
  <time>2026-09-01T20:03:06Z</time>
  <course>348.73</course>
  <speed>0.03605551275463989</speed>
  <fix>3d</fix>
</trkpt>
<trkpt lat="21.1682384" lon="-156.8870531">
  <ele>192.86</ele>
  <time>2026-09-01T20:03:06Z</time>
  <course>131.74</course>
  <speed>0.01</speed>
  <fix>3d</fix>
</trkpt>
<trkpt lat="21.1682382" lon="-156.8870529">
  <ele>192.39</ele>
  <time>2026-09-01T20:03:06Z</time>
  <course>348.7</course>
  <speed>0.03605551275463989</speed>
  <fix>3d</fix>
</trkpt>
<trkpt lat="21.1682384" lon="-156.8870531">
  <ele>192.86</ele>
  <time>2026-09-01T20:03:06Z</time>
  <course>131.74</course>
  <speed>0.01</speed>
  <fix>3d</fix>
</trkpt>
<trkpt lat="21.1682382" lon="-156.8870529">
  <ele>192.27</ele>
  <time>2026-09-01T20:03:06Z</time>
  <course>348.66</course>
  <speed>0.03605551275463989</speed>
  <fix>3d</fix>
</trkpt>
<trkpt lat="21.1682384" lon="-156.8870531">
  <ele>192.63</ele>
  <time>2026-09-01T20:03:06Z</time>
  <course>126.89</course>
  <speed>0.01</speed>
  <fix>3d</fix>
</trkpt>
<trkpt lat="21.1682382" lon="-156.8870529">
  <ele>192.15</ele>
  <time>2026-09-01T20:03:06Z</time>
  <course>348.61</course>
  <speed>0.03605551275463989</speed>
  <fix>3d</fix>
</trkpt>
<trkpt lat="21.1682384" lon="-156.8870531">
  <ele>192.63</ele>
  <time>2026-09-01T20:03:06Z</time>
  <course>126.89</course>
  <speed>0.01</speed>
  <fix>3d</fix>
</trkpt>
<trkpt lat="21.1682382" lon="-156.8870529">
  <ele>192.04</ele>
  <time>2026-09-01T20:03:06Z</time>
  <course>348.57</course>
  <speed>0.044721359549995794</speed>
  <fix>3d</fix>
</trkpt>
<trkpt lat="21.1682384" lon="-156.887053">
  <ele>192.4</ele>
  <time>2026-09-01T20:03:06Z</time>
  <course>119.0</course>
  <speed>0.01</speed>
  <fix>3d</fix>
</trkpt>
<trkpt lat="21.1682382" lon="-156.8870528">
  <ele>191.92</ele>
  <time>2026-09-01T20:03:06Z</time>
  <course>348.53</course>
  <speed>0.044721359549995794</speed>
  <fix>3d</fix>
</trkpt>
<trkpt lat="21.1682384" lon="-156.887053">
  <ele>192.4</ele>
  <time>2026-09-01T20:03:06Z</time>
  <course>119.0</course>
  <speed>0.01</speed>
  <fix>3d</fix>
</trkpt>
<trkpt lat="21.1682382" lon="-156.8870528">
  <ele>191.8</ele>
  <time>2026-09-01T20:03:06Z</time>
  <course>348.49</course>
  <speed>0.044721359549995794</speed>
  <fix>3d</fix>
</trkpt>
<trkpt lat="21.1682384" lon="-156.8870529">
  <ele>192.17</ele>
  <time>2026-09-01T20:03:06Z</time>
  <course>111.98</course>
  <speed>0.02</speed>
  <fix>3d</fix>
</trkpt>
<trkpt lat="21.1682382" lon="-156.8870528">
  <ele>191.69</ele>
  <time>2026-09-01T20:03:06Z</time>
  <course>348.45</course>
  <speed>0.053851648071345036</speed>
  <fix>3d</fix>
</trkpt>
<trkpt lat="21.1682384" lon="-156.8870529">
  <ele>192.17</ele>
  <time>2026-09-01T20:03:06Z</time>
  <course>111.98</course>
  <speed>0.02</speed>
  <fix>3d</fix>
</trkpt>
<trkpt lat="21.1682382" lon="-156.8870527">
  <ele>191.57</ele>
  <time>2026-09-01T20:03:06Z</time>
  <course>348.41</course>
  <speed>0.053851648071345036</speed>
  <fix>3d</fix>
</trkpt>
<trkpt lat="21.1682384" lon="-156.8870529">
  <ele>191.94</ele>
  <time>2026-09-01T20:03:06Z</time>
  <course>107.25</course>
  <speed>0.02</speed>
  <fix>3d</fix>
</trkpt>
<trkpt lat="21.1682382" lon="-156.8870527">
  <ele>191.46</ele>
  <time>2026-09-01T20:03:06Z</time>
  <course>348.39</course>
  <speed>0.053851648071345036</speed>
  <fix>3d</fix>
</trkpt>
<trkpt lat="21.1682384" lon="-156.8870529">
  <ele>191.94</ele>
  <time>2026-09-01T20:03:06Z</time>
  <course>107.25</course>
  <speed>0.02</speed>
  <fix>3d</fix>
</trkpt>
<trkpt lat="21.1682382" lon="-156.8870527">
  <ele>191.35</ele>
  <time>2026-09-01T20:03:06Z</time>
  <course>348.36</course>
  <speed>0.0632455532033676</speed>
  <fix>3d</fix>
</trkpt>
<trkpt lat="21.1682383" lon="-156.8870528">
  <ele>191.71</ele>
  <time>2026-09-01T20:03:06Z</time>
  <course>104.37</course>
  <speed>0.03</speed>
  <fix>3d</fix>
</trkpt>
<trkpt lat="21.1682382" lon="-156.8870526">
  <ele>191.23</ele>
  <time>2026-09-01T20:03:06Z</time>
  <course>348.34</course>
  <speed>0.0632455532033676</speed>
  <fix>3d</fix>
</trkpt>
<trkpt lat="21.1682383" lon="-156.8870528">
  <ele>191.71</ele>
  <time>2026-09-01T20:03:06Z</time>
  <course>104.37</course>
  <speed>0.03</speed>
  <fix>3d</fix>
</trkpt>
<trkpt lat="21.1682382" lon="-156.8870526">
  <ele>191.11</ele>
  <time>2026-09-01T20:03:06Z</time>
  <course>348.32</course>
  <speed>0.0632455532033676</speed>
  <fix>3d</fix>
</trkpt>
<trkpt lat="21.1682383" lon="-156.8870528">
  <ele>191.49</ele>
  <time>2026-09-01T20:03:06Z</time>
  <course>102.55</course>
  <speed>0.03</speed>
  <fix>3d</fix>
</trkpt>
<trkpt lat="21.1682382" lon="-156.8870525">
  <ele>191.0</ele>
  <time>2026-09-01T20:03:06Z</time>
  <course>348.3</course>
  <speed>0.07280109889280519</speed>
  <fix>3d</fix>
</trkpt>
<trkpt lat="21.1682383" lon="-156.8870528">
  <ele>191.49</ele>
  <time>2026-09-01T20:03:06Z</time>
  <course>102.55</course>
  <speed>0.03</speed>
  <fix>3d</fix>
</trkpt>
<trkpt lat="21.1682382" lon="-156.8870525">
  <ele>190.88</ele>
  <time>2026-09-01T20:03:06Z</time>
  <course>348.27</course>
  <speed>0.07071067811865475</speed>
  <fix>3d</fix>
</trkpt>
<trkpt lat="21.1682383" lon="-156.8870527">
  <ele>191.26</ele>
  <time>2026-09-01T20:03:06Z</time>
  <course>100.93</course>
  <speed>0.04</speed>
  <fix>3d</fix>
</trkpt>
<trkpt lat="21.1682382" lon="-156.8870524">
  <ele>190.77</ele>
  <time>2026-09-01T20:03:06Z</time>
  <course>348.25</course>
  <speed>0.07071067811865475</speed>
  <fix>3d</fix>
</trkpt>
<trkpt lat="21.1682383" lon="-156.8870527">
  <ele>191.26</ele>
  <time>2026-09-01T20:03:06Z</time>
  <course>100.93</course>
  <speed>0.04</speed>
  <fix>3d</fix>
</trkpt>
<trkpt lat="21.1682382" lon="-156.8870524">
  <ele>190.66</ele>
  <time>2026-09-01T20:03:06Z</time>
  <course>348.22</course>
  <speed>0.07071067811865475</speed>
  <fix>3d</fix>
</trkpt>
<trkpt lat="21.1682383" lon="-156.8870526">
  <ele>191.03</ele>
  <time>2026-09-01T20:03:06Z</time>
  <course>99.15</course>
  <speed>0.05</speed>
  <fix>3d</fix>
</trkpt>
<trkpt lat="21.1682382" lon="-156.8870523">
  <ele>190.55</ele>
  <time>2026-09-01T20:03:06Z</time>
  <course>348.21</course>
  <speed>0.08062257748298549</speed>
  <fix>3d</fix>
</trkpt>
<trkpt lat="21.1682383" lon="-156.8870526">
  <ele>191.03</ele>
  <time>2026-09-01T20:03:06Z</time>
  <course>99.15</course>
  <speed>0.05</speed>
  <fix>3d</fix>
</trkpt>
<trkpt lat="21.1682382" lon="-156.8870522">
  <ele>190.44</ele>
  <time>2026-09-01T20:03:06Z</time>
  <course>348.19</course>
  <speed>0.08062257748298549</speed>
  <fix>3d</fix>
</trkpt>
<trkpt lat="21.1682383" lon="-156.8870525">
  <ele>190.8</ele>
  <time>2026-09-01T20:03:06Z</time>
  <course>97.55</course>
  <speed>0.05</speed>
  <fix>3d</fix>
</trkpt>
<trkpt lat="21.1682382" lon="-156.8870522">
  <ele>190.32</ele>
  <time>2026-09-01T20:03:06Z</time>
  <course>348.18</course>
  <speed>0.08062257748298549</speed>
  <fix>3d</fix>
</trkpt>
<trkpt lat="21.1682383" lon="-156.8870525">
  <ele>190.8</ele>
  <time>2026-09-01T20:03:06Z</time>
  <course>97.55</course>
  <speed>0.05</speed>
  <fix>3d</fix>
</trkpt>
<trkpt lat="21.1682382" lon="-156.8870521">
  <ele>190.21</ele>
  <time>2026-09-01T20:03:06Z</time>
  <course>348.17</course>
  <speed>0.08062257748298549</speed>
  <fix>3d</fix>
</trkpt>
<trkpt lat="21.1682383" lon="-156.8870524">
  <ele>190.58</ele>
  <time>2026-09-01T20:03:06Z</time>
  <course>96.55</course>
  <speed>0.05</speed>
  <fix>3d</fix>
</trkpt>
<trkpt lat="21.1682382" lon="-156.8870521">
  <ele>190.1</ele>
  <time>2026-09-01T20:03:06Z</time>
  <course>348.16</course>
  <speed>0.08062257748298549</speed>
  <fix>3d</fix>
</trkpt>
<trkpt lat="21.1682383" lon="-156.8870524">
  <ele>190.58</ele>
  <time>2026-09-01T20:03:06Z</time>
  <course>96.55</course>
  <speed>0.05</speed>
  <fix>3d</fix>
</trkpt>
<trkpt lat="21.1682382" lon="-156.887052">
  <ele>189.98</ele>
  <time>2026-09-01T20:03:06Z</time>
  <course>348.16</course>
  <speed>0.08062257748298549</speed>
  <fix>3d</fix>
</trkpt>
<trkpt lat="21.1682383" lon="-156.8870523">
  <ele>190.35</ele>
  <time>2026-09-01T20:03:06Z</time>
  <course>95.69</course>
  <speed>0.06</speed>
  <fix>3d</fix>
</trkpt>
<trkpt lat="21.1682382" lon="-156.8870519">
  <ele>189.87</ele>
  <time>2026-09-01T20:03:06Z</time>
  <course>348.15</course>
  <speed>0.08062257748298549</speed>
  <fix>3d</fix>
</trkpt>
<trkpt lat="21.1682383" lon="-156.8870523">
  <ele>190.35</ele>
  <time>2026-09-01T20:03:06Z</time>
  <course>95.69</course>
  <speed>0.06</speed>
  <fix>3d</fix>
</trkpt>
<trkpt lat="21.1682382" lon="-156.8870519">
  <ele>189.75</ele>
  <time>2026-09-01T20:03:06Z</time>
  <course>348.15</course>
  <speed>0.08062257748298549</speed>
  <fix>3d</fix>
</trkpt>
<trkpt lat="21.1682382" lon="-156.8870522">
  <ele>190.12</ele>
  <time>2026-09-01T20:03:06Z</time>
  <course>94.89</course>
  <speed>0.06</speed>
  <fix>3d</fix>
</trkpt>
<trkpt lat="21.1682382" lon="-156.8870518">
  <ele>189.64</ele>
  <time>2026-09-01T20:03:06Z</time>
  <course>348.14</course>
  <speed>0.08062257748298549</speed>
  <fix>3d</fix>
</trkpt>
<trkpt lat="21.1682382" lon="-156.8870522">
  <ele>190.12</ele>
  <time>2026-09-01T20:03:06Z</time>
  <course>94.89</course>
  <speed>0.06</speed>
  <fix>3d</fix>
</trkpt>
<trkpt lat="21.1682382" lon="-156.8870518">
  <ele>189.53</ele>
  <time>2026-09-01T20:03:06Z</time>
  <course>348.14</course>
  <speed>0.08062257748298549</speed>
  <fix>3d</fix>
</trkpt>
<trkpt lat="21.1682381" lon="-156.8870521">
  <ele>189.89</ele>
  <time>2026-09-01T20:03:06Z</time>
  <course>94.75</course>
  <speed>0.06</speed>
  <fix>3d</fix>
</trkpt>
<trkpt lat="21.1682382" lon="-156.8870517">
  <ele>189.41</ele>
  <time>2026-09-01T20:03:06Z</time>
  <course>348.14</course>
  <speed>0.08062257748298549</speed>
  <fix>3d</fix>
</trkpt>
<trkpt lat="21.1682381" lon="-156.8870521">
  <ele>189.89</ele>
  <time>2026-09-01T20:03:06Z</time>
  <course>94.75</course>
  <speed>0.06</speed>
  <fix>3d</fix>
</trkpt>
<trkpt lat="21.1682381" lon="-156.8870517">
  <ele>189.3</ele>
  <time>2026-09-01T20:03:06Z</time>
  <course>348.13</course>
  <speed>0.08062257748298549</speed>
  <fix>3d</fix>
</trkpt>
<trkpt lat="21.1682381" lon="-156.8870519">
  <ele>189.66</ele>
  <time>2026-09-01T20:03:06Z</time>
  <course>94.89</course>
  <speed>0.05</speed>
  <fix>3d</fix>
</trkpt>
<trkpt lat="21.1682381" lon="-156.8870516">
  <ele>189.18</ele>
  <time>2026-09-01T20:03:06Z</time>
  <course>348.12</course>
  <speed>0.07071067811865475</speed>
  <fix>3d</fix>
</trkpt>
<trkpt lat="21.1682381" lon="-156.8870519">
  <ele>189.66</ele>
  <time>2026-09-01T20:03:06Z</time>
  <course>94.89</course>
  <speed>0.05</speed>
  <fix>3d</fix>
</trkpt>
<trkpt lat="21.1682381" lon="-156.8870516">
  <ele>189.07</ele>
  <time>2026-09-01T20:03:06Z</time>
  <course>348.1</course>
  <speed>0.07071067811865475</speed>
  <fix>3d</fix>
</trkpt>
<trkpt lat="21.1682381" lon="-156.8870518">
  <ele>189.43</ele>
  <time>2026-09-01T20:03:06Z</time>
  <course>94.75</course>
  <speed>0.05</speed>
  <fix>3d</fix>
</trkpt>
<trkpt lat="21.1682381" lon="-156.8870515">
  <ele>188.95</ele>
  <time>2026-09-01T20:03:06Z</time>
  <course>348.08</course>
  <speed>0.07071067811865475</speed>
  <fix>3d</fix>
</trkpt>
<trkpt lat="21.1682381" lon="-156.8870518">
  <ele>189.43</ele>
  <time>2026-09-01T20:03:06Z</time>
  <course>94.75</course>
  <speed>0.05</speed>
  <fix>3d</fix>
</trkpt>
<trkpt lat="21.1682381" lon="-156.8870515">
  <ele>188.84</ele>
  <time>2026-09-01T20:03:06Z</time>
  <course>348.06</course>
  <speed>0.07071067811865475</speed>
  <fix>3d</fix>
</trkpt>
<trkpt lat="21.1682381" lon="-156.8870517">
  <ele>189.2</ele>
  <time>2026-09-01T20:03:06Z</time>
  <course>94.24</course>
  <speed>0.05</speed>
  <fix>3d</fix>
</trkpt>
<trkpt lat="21.1682381" lon="-156.8870514">
  <ele>188.72</ele>
  <time>2026-09-01T20:03:06Z</time>
  <course>348.04</course>
  <speed>0.07071067811865475</speed>
  <fix>3d</fix>
</trkpt>
<trkpt lat="21.1682381" lon="-156.8870517">
  <ele>189.2</ele>
  <time>2026-09-01T20:03:06Z</time>
  <course>94.24</course>
  <speed>0.05</speed>
  <fix>3d</fix>
</trkpt>
<trkpt lat="21.1682381" lon="-156.8870514">
  <ele>188.6</ele>
  <time>2026-09-01T20:03:06Z</time>
  <course>348.01</course>
  <speed>0.06082762530298219</speed>
  <fix>3d</fix>
</trkpt>
<trkpt lat="21.1682381" lon="-156.8870516">
  <ele>188.96</ele>
  <time>2026-09-01T20:03:06Z</time>
  <course>92.95</course>
  <speed>0.04</speed>
  <fix>3d</fix>
</trkpt>
<trkpt lat="21.1682381" lon="-156.8870513">
  <ele>188.48</ele>
  <time>2026-09-01T20:03:06Z</time>
  <course>347.98</course>
  <speed>0.06082762530298219</speed>
  <fix>3d</fix>
</trkpt>
<trkpt lat="21.1682381" lon="-156.8870516">
  <ele>188.96</ele>
  <time>2026-09-01T20:03:06Z</time>
  <course>92.95</course>
  <speed>0.04</speed>
  <fix>3d</fix>
</trkpt>
<trkpt lat="21.1682381" lon="-156.8870513">
  <ele>188.36</ele>
  <time>2026-09-01T20:03:06Z</time>
  <course>347.96</course>
  <speed>0.06082762530298219</speed>
  <fix>3d</fix>
</trkpt>
<trkpt lat="21.1682381" lon="-156.8870515">
  <ele>188.73</ele>
  <time>2026-09-01T20:03:06Z</time>
  <course>90.98</course>
  <speed>0.04</speed>
  <fix>3d</fix>
</trkpt>
<trkpt lat="21.1682381" lon="-156.8870512">
  <ele>188.25</ele>
  <time>2026-09-01T20:03:06Z</time>
  <course>347.94</course>
  <speed>0.06082762530298219</speed>
  <fix>3d</fix>
</trkpt>
<trkpt lat="21.1682381" lon="-156.8870515">
  <ele>188.73</ele>
  <time>2026-09-01T20:03:06Z</time>
  <course>90.98</course>
  <speed>0.04</speed>
  <fix>3d</fix>
</trkpt>
<trkpt lat="21.1682381" lon="-156.8870512">
  <ele>188.13</ele>
  <time>2026-09-01T20:03:06Z</time>
  <course>347.91</course>
  <speed>0.06082762530298219</speed>
  <fix>3d</fix>
</trkpt>
<trkpt lat="21.1682381" lon="-156.8870514">
  <ele>188.5</ele>
  <time>2026-09-01T20:03:06Z</time>
  <course>88.89</course>
  <speed>0.03</speed>
  <fix>3d</fix>
</trkpt>
<trkpt lat="21.1682381" lon="-156.8870512">
  <ele>188.02</ele>
  <time>2026-09-01T20:03:06Z</time>
  <course>347.89</course>
  <speed>0.06082762530298219</speed>
  <fix>3d</fix>
</trkpt>
<trkpt lat="21.1682381" lon="-156.8870514">
  <ele>188.5</ele>
  <time>2026-09-01T20:03:06Z</time>
  <course>88.89</course>
  <speed>0.03</speed>
  <fix>3d</fix>
</trkpt>
<trkpt lat="21.1682381" lon="-156.8870511">
  <ele>187.9</ele>
  <time>2026-09-01T20:03:06Z</time>
  <course>347.85</course>
  <speed>0.05099019513592785</speed>
  <fix>3d</fix>
</trkpt>
<trkpt lat="21.1682381" lon="-156.8870514">
  <ele>188.27</ele>
  <time>2026-09-01T20:03:06Z</time>
  <course>86.47</course>
  <speed>0.03</speed>
  <fix>3d</fix>
</trkpt>
<trkpt lat="21.1682381" lon="-156.8870511">
  <ele>187.79</ele>
  <time>2026-09-01T20:03:06Z</time>
  <course>347.82</course>
  <speed>0.05099019513592785</speed>
  <fix>3d</fix>
</trkpt>
<trkpt lat="21.1682381" lon="-156.8870514">
  <ele>188.27</ele>
  <time>2026-09-01T20:03:06Z</time>
  <course>86.47</course>
  <speed>0.03</speed>
  <fix>3d</fix>
</trkpt>
<trkpt lat="21.1682381" lon="-156.8870511">
  <ele>187.67</ele>
  <time>2026-09-01T20:03:06Z</time>
  <course>347.79</course>
  <speed>0.05099019513592785</speed>
  <fix>3d</fix>
</trkpt>
<trkpt lat="21.1682381" lon="-156.8870513">
  <ele>188.04</ele>
  <time>2026-09-01T20:03:06Z</time>
  <course>83.92</course>
  <speed>0.03</speed>
  <fix>3d</fix>
</trkpt>
<trkpt lat="21.1682381" lon="-156.887051">
  <ele>187.56</ele>
  <time>2026-09-01T20:03:06Z</time>
  <course>347.77</course>
  <speed>0.05099019513592785</speed>
  <fix>3d</fix>
</trkpt>
<trkpt lat="21.1682381" lon="-156.8870513">
  <ele>188.04</ele>
  <time>2026-09-01T20:03:06Z</time>
  <course>83.92</course>
  <speed>0.03</speed>
  <fix>3d</fix>
</trkpt>
<trkpt lat="21.1682381" lon="-156.887051">
  <ele>187.45</ele>
  <time>2026-09-01T20:03:06Z</time>
  <course>347.74</course>
  <speed>0.05099019513592785</speed>
  <fix>3d</fix>
</trkpt>
<trkpt lat="21.1682381" lon="-156.8870513">
  <ele>187.81</ele>
  <time>2026-09-01T20:03:06Z</time>
  <course>81.8</course>
  <speed>0.02</speed>
  <fix>3d</fix>
</trkpt>
<trkpt lat="21.1682381" lon="-156.887051">
  <ele>187.33</ele>
  <time>2026-09-01T20:03:06Z</time>
  <course>347.72</course>
  <speed>0.0412310562561766</speed>
  <fix>3d</fix>
</trkpt>
<trkpt lat="21.1682381" lon="-156.8870513">
  <ele>187.81</ele>
  <time>2026-09-01T20:03:06Z</time>
  <course>81.8</course>
  <speed>0.02</speed>
  <fix>3d</fix>
</trkpt>
<trkpt lat="21.1682381" lon="-156.887051">
  <ele>187.22</ele>
  <time>2026-09-01T20:03:06Z</time>
  <course>347.7</course>
  <speed>0.0412310562561766</speed>
  <fix>3d</fix>
</trkpt>
<trkpt lat="21.1682381" lon="-156.8870512">
  <ele>187.58</ele>
  <time>2026-09-01T20:03:06Z</time>
  <course>79.18</course>
  <speed>0.02</speed>
  <fix>3d</fix>
</trkpt>
<trkpt lat="21.1682381" lon="-156.8870509">
  <ele>187.1</ele>
  <time>2026-09-01T20:03:06Z</time>
  <course>347.69</course>
  <speed>0.0412310562561766</speed>
  <fix>3d</fix>
</trkpt>
<trkpt lat="21.1682381" lon="-156.8870512">
  <ele>187.58</ele>
  <time>2026-09-01T20:03:06Z</time>
  <course>79.18</course>
  <speed>0.02</speed>
  <fix>3d</fix>
</trkpt>
<trkpt lat="21.1682381" lon="-156.8870509">
  <ele>186.99</ele>
  <time>2026-09-01T20:03:06Z</time>
  <course>347.66</course>
  <speed>0.0412310562561766</speed>
  <fix>3d</fix>
</trkpt>
<trkpt lat="21.1682381" lon="-156.8870512">
  <ele>187.35</ele>
  <time>2026-09-01T20:03:06Z</time>
  <course>73.98</course>
  <speed>0.02</speed>
  <fix>3d</fix>
</trkpt>
<trkpt lat="21.1682381" lon="-156.8870509">
  <ele>186.88</ele>
  <time>2026-09-01T20:03:06Z</time>
  <course>347.64</course>
  <speed>0.0412310562561766</speed>
  <fix>3d</fix>
</trkpt>
<trkpt lat="21.1682381" lon="-156.8870512">
  <ele>187.35</ele>
  <time>2026-09-01T20:03:06Z</time>
  <course>73.98</course>
  <speed>0.02</speed>
  <fix>3d</fix>
</trkpt>
<trkpt lat="21.1682381" lon="-156.8870509">
  <ele>186.76</ele>
  <time>2026-09-01T20:03:06Z</time>
  <course>347.61</course>
  <speed>0.04</speed>
  <fix>3d</fix>
</trkpt>
<trkpt lat="21.1682381" lon="-156.8870512">
  <ele>187.12</ele>
  <time>2026-09-01T20:03:06Z</time>
  <course>67.26</course>
  <speed>0.01</speed>
  <fix>3d</fix>
</trkpt>
<trkpt lat="21.1682381" lon="-156.8870509">
  <ele>186.65</ele>
  <time>2026-09-01T20:03:06Z</time>
  <course>347.59</course>
  <speed>0.04</speed>
  <fix>3d</fix>
</trkpt>
<trkpt lat="21.1682381" lon="-156.8870512">
  <ele>187.12</ele>
  <time>2026-09-01T20:03:06Z</time>
  <course>67.26</course>
  <speed>0.01</speed>
  <fix>3d</fix>
</trkpt>
<trkpt lat="21.1682381" lon="-156.8870509">
  <ele>186.53</ele>
  <time>2026-09-01T20:03:06Z</time>
  <course>347.55</course>
  <speed>0.04</speed>
  <fix>3d</fix>
</trkpt>
<trkpt lat="21.1682381" lon="-156.8870511">
  <ele>186.9</ele>
  <time>2026-09-01T20:03:06Z</time>
  <course>61.43</course>
  <speed>0.01</speed>
  <fix>3d</fix>
</trkpt>
<trkpt lat="21.1682381" lon="-156.8870509">
  <ele>186.42</ele>
  <time>2026-09-01T20:03:06Z</time>
  <course>347.52</course>
  <speed>0.04</speed>
  <fix>3d</fix>
</trkpt>
<trkpt lat="21.1682381" lon="-156.8870511">
  <ele>186.9</ele>
  <time>2026-09-01T20:03:06Z</time>
  <course>61.43</course>
  <speed>0.01</speed>
  <fix>3d</fix>
</trkpt>
<trkpt lat="21.1682381" lon="-156.8870508">
  <ele>186.3</ele>
  <time>2026-09-01T20:03:06Z</time>
  <course>347.49</course>
  <speed>0.03</speed>
  <fix>3d</fix>
</trkpt>
<trkpt lat="21.1682381" lon="-156.887051">
  <ele>186.67</ele>
  <time>2026-09-01T20:03:06Z</time>
  <course>55.16</course>
  <speed>0.01</speed>
  <fix>3d</fix>
</trkpt>
<trkpt lat="21.1682381" lon="-156.8870508">
  <ele>186.18</ele>
  <time>2026-09-01T20:03:06Z</time>
  <course>347.46</course>
  <speed>0.03</speed>
  <fix>3d</fix>
</trkpt>
<trkpt lat="21.1682381" lon="-156.887051">
  <ele>186.67</ele>
  <time>2026-09-01T20:03:06Z</time>
  <course>55.16</course>
  <speed>0.01</speed>
  <fix>3d</fix>
</trkpt>
<trkpt lat="21.1682381" lon="-156.8870508">
  <ele>186.07</ele>
  <time>2026-09-01T20:03:06Z</time>
  <course>347.43</course>
  <speed>0.03</speed>
  <fix>3d</fix>
</trkpt>
<trkpt lat="21.1682381" lon="-156.887051">
  <ele>186.44</ele>
  <time>2026-09-01T20:03:06Z</time>
  <course>48.06</course>
  <speed>0.01</speed>
  <fix>3d</fix>
</trkpt>
<trkpt lat="21.1682381" lon="-156.8870508">
  <ele>185.95</ele>
  <time>2026-09-01T20:03:06Z</time>
  <course>347.4</course>
  <speed>0.03</speed>
  <fix>3d</fix>
</trkpt>
<trkpt lat="21.1682381" lon="-156.887051">
  <ele>186.44</ele>
  <time>2026-09-01T20:03:06Z</time>
  <course>48.06</course>
  <speed>0.01</speed>
  <fix>3d</fix>
</trkpt>
<trkpt lat="21.1682381" lon="-156.8870508">
  <ele>185.84</ele>
  <time>2026-09-01T20:03:06Z</time>
  <course>347.37</course>
  <speed>0.03</speed>
  <fix>3d</fix>
</trkpt>
<trkpt lat="21.1682381" lon="-156.887051">
  <ele>186.21</ele>
  <time>2026-09-01T20:03:06Z</time>
  <course>41.4</course>
  <speed>0.01</speed>
  <fix>3d</fix>
</trkpt>
<trkpt lat="21.1682381" lon="-156.8870508">
  <ele>185.73</ele>
  <time>2026-09-01T20:03:06Z</time>
  <course>347.35</course>
  <speed>0.03</speed>
  <fix>3d</fix>
</trkpt>
<trkpt lat="21.1682381" lon="-156.887051">
  <ele>186.21</ele>
  <time>2026-09-01T20:03:06Z</time>
  <course>41.4</course>
  <speed>0.01</speed>
  <fix>3d</fix>
</trkpt>
<trkpt lat="21.1682381" lon="-156.8870508">
  <ele>185.61</ele>
  <time>2026-09-01T20:03:06Z</time>
  <course>347.33</course>
  <speed>0.03</speed>
  <fix>3d</fix>
</trkpt>
<trkpt lat="21.1682382" lon="-156.887051">
  <ele>185.98</ele>
  <time>2026-09-01T20:03:06Z</time>
  <course>36.29</course>
  <speed>0.01</speed>
  <fix>3d</fix>
</trkpt>
<trkpt lat="21.1682381" lon="-156.8870508">
  <ele>185.5</ele>
  <time>2026-09-01T20:03:06Z</time>
  <course>347.31</course>
  <speed>0.03</speed>
  <fix>3d</fix>
</trkpt>
<trkpt lat="21.1682382" lon="-156.887051">
  <ele>185.98</ele>
  <time>2026-09-01T20:03:06Z</time>
  <course>36.29</course>
  <speed>0.01</speed>
  <fix>3d</fix>
</trkpt>
<trkpt lat="21.1682381" lon="-156.8870508">
  <ele>185.38</ele>
  <time>2026-09-01T20:03:06Z</time>
  <course>347.29</course>
  <speed>0.03</speed>
  <fix>3d</fix>
</trkpt>
<trkpt lat="21.1682383" lon="-156.8870509">
  <ele>185.75</ele>
  <time>2026-09-01T20:03:06Z</time>
  <course>33.12</course>
  <speed>0.01</speed>
  <fix>3d</fix>
</trkpt>
<trkpt lat="21.1682381" lon="-156.8870507">
  <ele>185.27</ele>
  <time>2026-09-01T20:03:06Z</time>
  <course>347.27</course>
  <speed>0.03</speed>
  <fix>3d</fix>
</trkpt>
<trkpt lat="21.1682383" lon="-156.8870509">
  <ele>185.75</ele>
  <time>2026-09-01T20:03:06Z</time>
  <course>33.12</course>
  <speed>0.01</speed>
  <fix>3d</fix>
</trkpt>
<trkpt lat="21.1682381" lon="-156.8870507">
  <ele>185.15</ele>
  <time>2026-09-01T20:03:06Z</time>
  <course>347.25</course>
  <speed>0.03</speed>
  <fix>3d</fix>
</trkpt>
<trkpt lat="21.1682383" lon="-156.8870509">
  <ele>185.52</ele>
  <time>2026-09-01T20:03:06Z</time>
  <course>29.61</course>
  <speed>0.01</speed>
  <fix>3d</fix>
</trkpt>
<trkpt lat="21.1682381" lon="-156.8870507">
  <ele>185.04</ele>
  <time>2026-09-01T20:03:06Z</time>
  <course>347.23</course>
  <speed>0.03</speed>
  <fix>3d</fix>
</trkpt>
<trkpt lat="21.1682383" lon="-156.8870509">
  <ele>185.52</ele>
  <time>2026-09-01T20:03:06Z</time>
  <course>29.61</course>
  <speed>0.01</speed>
  <fix>3d</fix>
</trkpt>
<trkpt lat="21.1682381" lon="-156.8870507">
  <ele>184.92</ele>
  <time>2026-09-01T20:03:06Z</time>
  <course>347.21</course>
  <speed>0.03</speed>
  <fix>3d</fix>
</trkpt>
<trkpt lat="21.1682383" lon="-156.8870509">
  <ele>185.29</ele>
  <time>2026-09-01T20:03:06Z</time>
  <course>24.77</course>
  <speed>0.01</speed>
  <fix>3d</fix>
</trkpt>
<trkpt lat="21.1682381" lon="-156.8870507">
  <ele>184.8</ele>
  <time>2026-09-01T20:03:06Z</time>
  <course>347.19</course>
  <speed>0.03</speed>
  <fix>3d</fix>
</trkpt>
<trkpt lat="21.1682383" lon="-156.8870509">
  <ele>185.29</ele>
  <time>2026-09-01T20:03:06Z</time>
  <course>24.77</course>
  <speed>0.01</speed>
  <fix>3d</fix>
</trkpt>
<trkpt lat="21.1682381" lon="-156.8870507">
  <ele>184.69</ele>
  <time>2026-09-01T20:03:06Z</time>
  <course>347.15</course>
  <speed>0.03</speed>
  <fix>3d</fix>
</trkpt>
<trkpt lat="21.1682383" lon="-156.8870509">
  <ele>185.06</ele>
  <time>2026-09-01T20:03:06Z</time>
  <course>21.14</course>
  <speed>0.01</speed>
  <fix>3d</fix>
</trkpt>
<trkpt lat="21.1682381" lon="-156.8870507">
  <ele>184.58</ele>
  <time>2026-09-01T20:03:06Z</time>
  <course>347.13</course>
  <speed>0.03</speed>
  <fix>3d</fix>
</trkpt>
<trkpt lat="21.1682383" lon="-156.8870509">
  <ele>185.06</ele>
  <time>2026-09-01T20:03:06Z</time>
  <course>21.14</course>
  <speed>0.01</speed>
  <fix>3d</fix>
</trkpt>
<trkpt lat="21.1682382" lon="-156.8870507">
  <ele>184.46</ele>
  <time>2026-09-01T20:03:06Z</time>
  <course>347.11</course>
  <speed>0.03</speed>
  <fix>3d</fix>
</trkpt>
<trkpt lat="21.1682384" lon="-156.8870509">
  <ele>184.83</ele>
  <time>2026-09-01T20:03:06Z</time>
  <course>18.72</course>
  <speed>0.01</speed>
  <fix>3d</fix>
</trkpt>
<trkpt lat="21.1682382" lon="-156.8870507">
  <ele>184.34</ele>
  <time>2026-09-01T20:03:06Z</time>
  <course>347.1</course>
  <speed>0.03</speed>
  <fix>3d</fix>
</trkpt>
<trkpt lat="21.1682384" lon="-156.8870509">
  <ele>184.83</ele>
  <time>2026-09-01T20:03:06Z</time>
  <course>18.72</course>
  <speed>0.01</speed>
  <fix>3d</fix>
</trkpt>
<trkpt lat="21.1682382" lon="-156.8870507">
  <ele>184.23</ele>
  <time>2026-09-01T20:03:06Z</time>
  <course>347.1</course>
  <speed>0.03</speed>
  <fix>3d</fix>
</trkpt>
<trkpt lat="21.1682384" lon="-156.8870509">
  <ele>184.6</ele>
  <time>2026-09-01T20:03:06Z</time>
  <course>16.25</course>
  <speed>0.01</speed>
  <fix>3d</fix>
</trkpt>
<trkpt lat="21.1682382" lon="-156.8870507">
  <ele>184.12</ele>
  <time>2026-09-01T20:03:06Z</time>
  <course>347.1</course>
  <speed>0.03</speed>
  <fix>3d</fix>
</trkpt>
<trkpt lat="21.1682384" lon="-156.8870509">
  <ele>184.6</ele>
  <time>2026-09-01T20:03:06Z</time>
  <course>16.25</course>
  <speed>0.01</speed>
  <fix>3d</fix>
</trkpt>
<trkpt lat="21.1682382" lon="-156.8870507">
  <ele>184.0</ele>
  <time>2026-09-01T20:03:06Z</time>
  <course>347.1</course>
  <speed>0.03</speed>
  <fix>3d</fix>
</trkpt>
<trkpt lat="21.1682384" lon="-156.8870509">
  <ele>184.37</ele>
  <time>2026-09-01T20:03:06Z</time>
  <course>13.59</course>
  <speed>0.01</speed>
  <fix>3d</fix>
</trkpt>
<trkpt lat="21.1682382" lon="-156.8870507">
  <ele>183.88</ele>
  <time>2026-09-01T20:03:06Z</time>
  <course>347.1</course>
  <speed>0.03</speed>
  <fix>3d</fix>
</trkpt>
<trkpt lat="21.1682384" lon="-156.8870509">
  <ele>184.37</ele>
  <time>2026-09-01T20:03:06Z</time>
  <course>13.59</course>
  <speed>0.01</speed>
  <fix>3d</fix>
</trkpt>
<trkpt lat="21.1682382" lon="-156.8870507">
  <ele>183.77</ele>
  <time>2026-09-01T20:03:06Z</time>
  <course>347.1</course>
  <speed>0.02</speed>
  <fix>3d</fix>
</trkpt>
<trkpt lat="21.1682384" lon="-156.8870509">
  <ele>184.14</ele>
  <time>2026-09-01T20:03:06Z</time>
  <course>9.8</course>
  <speed>0.01</speed>
  <fix>3d</fix>
</trkpt>
<trkpt lat="21.1682382" lon="-156.8870507">
  <ele>183.65</ele>
  <time>2026-09-01T20:03:06Z</time>
  <course>347.11</course>
  <speed>0.02</speed>
  <fix>3d</fix>
</trkpt>
<trkpt lat="21.1682384" lon="-156.8870509">
  <ele>184.14</ele>
  <time>2026-09-01T20:03:06Z</time>
  <course>9.8</course>
  <speed>0.01</speed>
  <fix>3d</fix>
</trkpt>
<trkpt lat="21.1682383" lon="-156.8870507">
  <ele>183.54</ele>
  <time>2026-09-01T20:03:06Z</time>
  <course>347.11</course>
  <speed>0.02</speed>
  <fix>3d</fix>
</trkpt>
<trkpt lat="21.1682384" lon="-156.8870509">
  <ele>183.91</ele>
  <time>2026-09-01T20:03:06Z</time>
  <course>2.89</course>
  <speed>0.01</speed>
  <fix>3d</fix>
</trkpt>
<trkpt lat="21.1682383" lon="-156.8870507">
  <ele>183.42</ele>
  <time>2026-09-01T20:03:06Z</time>
  <course>347.11</course>
  <speed>0.02</speed>
  <fix>3d</fix>
</trkpt>
<trkpt lat="21.1682384" lon="-156.8870509">
  <ele>183.91</ele>
  <time>2026-09-01T20:03:06Z</time>
  <course>2.89</course>
  <speed>0.01</speed>
  <fix>3d</fix>
</trkpt>
<trkpt lat="21.1682383" lon="-156.8870507">
  <ele>183.31</ele>
  <time>2026-09-01T20:03:06Z</time>
  <course>347.11</course>
  <speed>0.02</speed>
  <fix>3d</fix>
</trkpt>
<trkpt lat="21.1682384" lon="-156.8870509">
  <ele>183.68</ele>
  <time>2026-09-01T20:03:06Z</time>
  <course>351.1</course>
  <speed>0.0</speed>
  <fix>3d</fix>
</trkpt>
<trkpt lat="21.1682383" lon="-156.8870507">
  <ele>183.19</ele>
  <time>2026-09-01T20:03:06Z</time>
  <course>347.11</course>
  <speed>0.02</speed>
  <fix>3d</fix>
</trkpt>
<trkpt lat="21.1682384" lon="-156.8870509">
  <ele>183.68</ele>
  <time>2026-09-01T20:03:06Z</time>
  <course>351.1</course>
  <speed>0.0</speed>
  <fix>3d</fix>
</trkpt>
<trkpt lat="21.1682383" lon="-156.8870507">
  <ele>183.08</ele>
  <time>2026-09-01T20:03:06Z</time>
  <course>347.11</course>
  <speed>0.022360679774997897</speed>
  <fix>3d</fix>
</trkpt>
<trkpt lat="21.1682384" lon="-156.8870509">
  <ele>183.45</ele>
  <time>2026-09-01T20:03:06Z</time>
  <course>333.94</course>
  <speed>0.0</speed>
  <fix>3d</fix>
</trkpt>
<trkpt lat="21.1682383" lon="-156.8870507">
  <ele>182.97</ele>
  <time>2026-09-01T20:03:06Z</time>
  <course>347.11</course>
  <speed>0.022360679774997897</speed>
  <fix>3d</fix>
</trkpt>
<trkpt lat="21.1682384" lon="-156.8870509">
  <ele>183.45</ele>
  <time>2026-09-01T20:03:06Z</time>
  <course>333.94</course>
  <speed>0.0</speed>
  <fix>3d</fix>
</trkpt>
<trkpt lat="21.1682383" lon="-156.8870507">
  <ele>182.85</ele>
  <time>2026-09-01T20:03:06Z</time>
  <course>347.1</course>
  <speed>0.01414213562373095</speed>
  <fix>3d</fix>
</trkpt>
<trkpt lat="21.1682384" lon="-156.8870509">
  <ele>183.22</ele>
  <time>2026-09-01T20:03:06Z</time>
  <course>314.08</course>
  <speed>0.0</speed>
  <fix>3d</fix>
</trkpt>
<trkpt lat="21.1682383" lon="-156.8870507">
  <ele>182.74</ele>
  <time>2026-09-01T20:03:06Z</time>
  <course>347.1</course>
  <speed>0.01414213562373095</speed>
  <fix>3d</fix>
</trkpt>
<trkpt lat="21.1682384" lon="-156.8870509">
  <ele>183.22</ele>
  <time>2026-09-01T20:03:06Z</time>
  <course>314.08</course>
  <speed>0.0</speed>
  <fix>3d</fix>
</trkpt>
<trkpt lat="21.1682383" lon="-156.8870507">
  <ele>182.63</ele>
  <time>2026-09-01T20:03:06Z</time>
  <course>347.1</course>
  <speed>0.01414213562373095</speed>
  <fix>3d</fix>
</trkpt>
<trkpt lat="21.1682384" lon="-156.8870509">
  <ele>182.99</ele>
  <time>2026-09-01T20:03:06Z</time>
  <course>297.23</course>
  <speed>0.0</speed>
  <fix>3d</fix>
</trkpt>
<trkpt lat="21.1682383" lon="-156.8870507">
  <ele>182.51</ele>
  <time>2026-09-01T20:03:06Z</time>
  <course>347.1</course>
  <speed>0.01414213562373095</speed>
  <fix>3d</fix>
</trkpt>
<trkpt lat="21.1682384" lon="-156.8870509">
  <ele>182.99</ele>
  <time>2026-09-01T20:03:06Z</time>
  <course>297.23</course>
  <speed>0.0</speed>
  <fix>3d</fix>
</trkpt>
<trkpt lat="21.1682383" lon="-156.8870507">
  <ele>182.4</ele>
  <time>2026-09-01T20:03:06Z</time>
  <course>347.1</course>
  <speed>0.01414213562373095</speed>
  <fix>3d</fix>
</trkpt>
<trkpt lat="21.1682384" lon="-156.8870509">
  <ele>182.77</ele>
  <time>2026-09-01T20:03:06Z</time>
  <course>286.3</course>
  <speed>0.01</speed>
  <fix>3d</fix>
</trkpt>
<trkpt lat="21.1682383" lon="-156.8870507">
  <ele>182.28</ele>
  <time>2026-09-01T20:03:06Z</time>
  <course>347.1</course>
  <speed>0.01414213562373095</speed>
  <fix>3d</fix>
</trkpt>
<trkpt lat="21.1682384" lon="-156.8870509">
  <ele>182.77</ele>
  <time>2026-09-01T20:03:06Z</time>
  <course>286.3</course>
  <speed>0.01</speed>
  <fix>3d</fix>
</trkpt>
<trkpt lat="21.1682383" lon="-156.8870507">
  <ele>182.17</ele>
  <time>2026-09-01T20:03:06Z</time>
  <course>347.1</course>
  <speed>0.01414213562373095</speed>
  <fix>3d</fix>
</trkpt>
<trkpt lat="21.1682384" lon="-156.8870509">
  <ele>182.54</ele>
  <time>2026-09-01T20:03:06Z</time>
  <course>280.5</course>
  <speed>0.01</speed>
  <fix>3d</fix>
</trkpt>
<trkpt lat="21.1682383" lon="-156.8870507">
  <ele>182.06</ele>
  <time>2026-09-01T20:03:06Z</time>
  <course>347.08</course>
  <speed>0.01414213562373095</speed>
  <fix>3d</fix>
</trkpt>
<trkpt lat="21.1682384" lon="-156.8870509">
  <ele>182.54</ele>
  <time>2026-09-01T20:03:06Z</time>
  <course>280.5</course>
  <speed>0.01</speed>
  <fix>3d</fix>
</trkpt>
<trkpt lat="21.1682383" lon="-156.8870507">
  <ele>181.94</ele>
  <time>2026-09-01T20:03:06Z</time>
  <course>347.06</course>
  <speed>0.01414213562373095</speed>
  <fix>3d</fix>
</trkpt>
<trkpt lat="21.1682384" lon="-156.8870509">
  <ele>182.31</ele>
  <time>2026-09-01T20:03:06Z</time>
  <course>277.71</course>
  <speed>0.01</speed>
  <fix>3d</fix>
</trkpt>
<trkpt lat="21.1682383" lon="-156.8870507">
  <ele>181.83</ele>
  <time>2026-09-01T20:03:06Z</time>
  <course>347.04</course>
  <speed>0.01414213562373095</speed>
  <fix>3d</fix>
</trkpt>
<trkpt lat="21.1682384" lon="-156.8870509">
  <ele>182.31</ele>
  <time>2026-09-01T20:03:06Z</time>
  <course>277.71</course>
  <speed>0.01</speed>
  <fix>3d</fix>
</trkpt>
<trkpt lat="21.1682383" lon="-156.8870507">
  <ele>181.72</ele>
  <time>2026-09-01T20:03:06Z</time>
  <course>347.01</course>
  <speed>0.022360679774997897</speed>
  <fix>3d</fix>
</trkpt>
<trkpt lat="21.1682384" lon="-156.8870509">
  <ele>182.08</ele>
  <time>2026-09-01T20:03:06Z</time>
  <course>276.67</course>
  <speed>0.0</speed>
  <fix>3d</fix>
</trkpt>
<trkpt lat="21.1682383" lon="-156.8870507">
  <ele>181.6</ele>
  <time>2026-09-01T20:03:06Z</time>
  <course>346.99</course>
  <speed>0.022360679774997897</speed>
  <fix>3d</fix>
</trkpt>
<trkpt lat="21.1682384" lon="-156.8870509">
  <ele>182.08</ele>
  <time>2026-09-01T20:03:06Z</time>
  <course>276.67</course>
  <speed>0.0</speed>
  <fix>3d</fix>
</trkpt>
<trkpt lat="21.1682383" lon="-156.8870507">
  <ele>181.48</ele>
  <time>2026-09-01T20:03:06Z</time>
  <course>346.96</course>
  <speed>0.01414213562373095</speed>
  <fix>3d</fix>
</trkpt>
<trkpt lat="21.1682384" lon="-156.8870509">
  <ele>181.85</ele>
  <time>2026-09-01T20:03:06Z</time>
  <course>276.6</course>
  <speed>0.0</speed>
  <fix>3d</fix>
</trkpt>
<trkpt lat="21.1682383" lon="-156.8870507">
  <ele>181.37</ele>
  <time>2026-09-01T20:03:06Z</time>
  <course>346.94</course>
  <speed>0.01414213562373095</speed>
  <fix>3d</fix>
</trkpt>
<trkpt lat="21.1682384" lon="-156.8870509">
  <ele>181.85</ele>
  <time>2026-09-01T20:03:06Z</time>
  <course>276.6</course>
  <speed>0.0</speed>
  <fix>3d</fix>
</trkpt>
<trkpt lat="21.1682383" lon="-156.8870507">
  <ele>181.25</ele>
  <time>2026-09-01T20:03:06Z</time>
  <course>346.93</course>
  <speed>0.01414213562373095</speed>
  <fix>3d</fix>
</trkpt>
<trkpt lat="21.1682384" lon="-156.8870509">
  <ele>181.62</ele>
  <time>2026-09-01T20:03:06Z</time>
  <course>278.87</course>
  <speed>0.0</speed>
  <fix>3d</fix>
</trkpt>
<trkpt lat="21.1682383" lon="-156.8870507">
  <ele>181.14</ele>
  <time>2026-09-01T20:03:06Z</time>
  <course>346.92</course>
  <speed>0.01414213562373095</speed>
  <fix>3d</fix>
</trkpt>
<trkpt lat="21.1682384" lon="-156.8870509">
  <ele>181.62</ele>
  <time>2026-09-01T20:03:06Z</time>
  <course>278.87</course>
  <speed>0.0</speed>
  <fix>3d</fix>
</trkpt>
<trkpt lat="21.1682383" lon="-156.8870507">
  <ele>181.02</ele>
  <time>2026-09-01T20:03:06Z</time>
  <course>346.92</course>
  <speed>0.01414213562373095</speed>
  <fix>3d</fix>
</trkpt>
<trkpt lat="21.1682385" lon="-156.8870509">
  <ele>181.39</ele>
  <time>2026-09-01T20:03:06Z</time>
  <course>285.25</course>
  <speed>0.0</speed>
  <fix>3d</fix>
</trkpt>
<trkpt lat="21.1682383" lon="-156.8870507">
  <ele>180.91</ele>
  <time>2026-09-01T20:03:06Z</time>
  <course>346.92</course>
  <speed>0.01414213562373095</speed>
  <fix>3d</fix>
</trkpt>
<trkpt lat="21.1682385" lon="-156.8870509">
  <ele>181.39</ele>
  <time>2026-09-01T20:03:06Z</time>
  <course>285.25</course>
  <speed>0.0</speed>
  <fix>3d</fix>
</trkpt>
<trkpt lat="21.1682383" lon="-156.8870507">
  <ele>180.79</ele>
  <time>2026-09-01T20:03:06Z</time>
  <course>346.93</course>
  <speed>0.01414213562373095</speed>
  <fix>3d</fix>
</trkpt>
<trkpt lat="21.1682386" lon="-156.8870509">
  <ele>181.15</ele>
  <time>2026-09-01T20:03:06Z</time>
  <course>291.32</course>
  <speed>0.0</speed>
  <fix>3d</fix>
</trkpt>
<trkpt lat="21.1682383" lon="-156.8870507">
  <ele>180.68</ele>
  <time>2026-09-01T20:03:06Z</time>
  <course>346.96</course>
  <speed>0.01414213562373095</speed>
  <fix>3d</fix>
</trkpt>
<trkpt lat="21.1682386" lon="-156.8870509">
  <ele>181.15</ele>
  <time>2026-09-01T20:03:06Z</time>
  <course>291.32</course>
  <speed>0.0</speed>
  <fix>3d</fix>
</trkpt>
<trkpt lat="21.1682383" lon="-156.8870507">
  <ele>180.56</ele>
  <time>2026-09-01T20:03:06Z</time>
  <course>346.97</course>
  <speed>0.01414213562373095</speed>
  <fix>3d</fix>
</trkpt>
<trkpt lat="21.1682386" lon="-156.887051">
  <ele>180.92</ele>
  <time>2026-09-01T20:03:06Z</time>
  <course>289.99</course>
  <speed>0.0</speed>
  <fix>3d</fix>
</trkpt>
<trkpt lat="21.1682383" lon="-156.8870507">
  <ele>180.45</ele>
  <time>2026-09-01T20:03:06Z</time>
  <course>346.97</course>
  <speed>0.01414213562373095</speed>
  <fix>3d</fix>
</trkpt>
<trkpt lat="21.1682386" lon="-156.887051">
  <ele>180.92</ele>
  <time>2026-09-01T20:03:06Z</time>
  <course>289.99</course>
  <speed>0.0</speed>
  <fix>3d</fix>
</trkpt>
<trkpt lat="21.1682383" lon="-156.8870508">
  <ele>180.33</ele>
  <time>2026-09-01T20:03:06Z</time>
  <course>346.96</course>
  <speed>0.01</speed>
  <fix>3d</fix>
</trkpt>
<trkpt lat="21.1682386" lon="-156.887051">
  <ele>180.69</ele>
  <time>2026-09-01T20:03:06Z</time>
  <course>285.97</course>
  <speed>0.0</speed>
  <fix>3d</fix>
</trkpt>
<trkpt lat="21.1682383" lon="-156.8870508">
  <ele>180.21</ele>
  <time>2026-09-01T20:03:06Z</time>
  <course>346.96</course>
  <speed>0.01</speed>
  <fix>3d</fix>
</trkpt>
<trkpt lat="21.1682386" lon="-156.887051">
  <ele>180.69</ele>
  <time>2026-09-01T20:03:06Z</time>
  <course>285.97</course>
  <speed>0.0</speed>
  <fix>3d</fix>
</trkpt>
<trkpt lat="21.1682383" lon="-156.8870508">
  <ele>180.1</ele>
  <time>2026-09-01T20:03:06Z</time>
  <course>346.96</course>
  <speed>0.01</speed>
  <fix>3d</fix>
</trkpt>
<trkpt lat="21.1682386" lon="-156.887051">
  <ele>180.46</ele>
  <time>2026-09-01T20:03:06Z</time>
  <course>283.65</course>
  <speed>0.0</speed>
  <fix>3d</fix>
</trkpt>
<trkpt lat="21.1682383" lon="-156.8870508">
  <ele>179.98</ele>
  <time>2026-09-01T20:03:06Z</time>
  <course>346.97</course>
  <speed>0.01</speed>
  <fix>3d</fix>
</trkpt>
<trkpt lat="21.1682386" lon="-156.887051">
  <ele>180.46</ele>
  <time>2026-09-01T20:03:06Z</time>
  <course>283.65</course>
  <speed>0.0</speed>
  <fix>3d</fix>
</trkpt>
<trkpt lat="21.1682384" lon="-156.8870508">
  <ele>179.86</ele>
  <time>2026-09-01T20:03:06Z</time>
  <course>346.98</course>
  <speed>0.01</speed>
  <fix>3d</fix>
</trkpt>
<trkpt lat="21.1682386" lon="-156.887051">
  <ele>180.23</ele>
  <time>2026-09-01T20:03:06Z</time>
  <course>279.44</course>
  <speed>0.0</speed>
  <fix>3d</fix>
</trkpt>
<trkpt lat="21.1682384" lon="-156.8870508">
  <ele>179.75</ele>
  <time>2026-09-01T20:03:06Z</time>
  <course>347.0</course>
  <speed>0.01</speed>
  <fix>3d</fix>
</trkpt>
<trkpt lat="21.1682386" lon="-156.887051">
  <ele>180.23</ele>
  <time>2026-09-01T20:03:06Z</time>
  <course>279.44</course>
  <speed>0.0</speed>
  <fix>3d</fix>
</trkpt>
<trkpt lat="21.1682384" lon="-156.8870508">
  <ele>179.63</ele>
  <time>2026-09-01T20:03:06Z</time>
  <course>347.02</course>
  <speed>0.01</speed>
  <fix>3d</fix>
</trkpt>
<trkpt lat="21.1682386" lon="-156.887051">
  <ele>180.0</ele>
  <time>2026-09-01T20:03:06Z</time>
  <course>273.88</course>
  <speed>0.0</speed>
  <fix>3d</fix>
</trkpt>
<trkpt lat="21.1682384" lon="-156.8870508">
  <ele>179.51</ele>
  <time>2026-09-01T20:03:06Z</time>
  <course>347.03</course>
  <speed>0.01</speed>
  <fix>3d</fix>
</trkpt>
<trkpt lat="21.1682386" lon="-156.887051">
  <ele>180.0</ele>
  <time>2026-09-01T20:03:06Z</time>
  <course>273.88</course>
  <speed>0.0</speed>
  <fix>3d</fix>
</trkpt>
<trkpt lat="21.1682384" lon="-156.8870508">
  <ele>179.39</ele>
  <time>2026-09-01T20:03:07Z</time>
  <course>347.04</course>
  <speed>0.01</speed>
  <fix>3d</fix>
</trkpt>
<trkpt lat="21.1682386" lon="-156.8870511">
  <ele>179.77</ele>
  <time>2026-09-01T20:03:07Z</time>
  <course>268.83</course>
  <speed>0.0</speed>
  <fix>3d</fix>
</trkpt>
<trkpt lat="21.1682384" lon="-156.8870509">
  <ele>179.28</ele>
  <time>2026-09-01T20:03:07Z</time>
  <course>347.06</course>
  <speed>0.01</speed>
  <fix>3d</fix>
</trkpt>
<trkpt lat="21.1682386" lon="-156.8870511">
  <ele>179.77</ele>
  <time>2026-09-01T20:03:07Z</time>
  <course>268.83</course>
  <speed>0.0</speed>
  <fix>3d</fix>
</trkpt>
<trkpt lat="21.1682384" lon="-156.8870509">
  <ele>179.17</ele>
  <time>2026-09-01T20:03:07Z</time>
  <course>347.06</course>
  <speed>0.01</speed>
  <fix>3d</fix>
</trkpt>
<trkpt lat="21.1682386" lon="-156.8870512">
  <ele>179.54</ele>
  <time>2026-09-01T20:03:07Z</time>
  <course>262.83</course>
  <speed>0.0</speed>
  <fix>3d</fix>
</trkpt>
<trkpt lat="21.1682384" lon="-156.8870509">
  <ele>179.05</ele>
  <time>2026-09-01T20:03:07Z</time>
  <course>347.06</course>
  <speed>0.01414213562373095</speed>
  <fix>3d</fix>
</trkpt>
<trkpt lat="21.1682386" lon="-156.8870512">
  <ele>179.54</ele>
  <time>2026-09-01T20:03:07Z</time>
  <course>262.83</course>
  <speed>0.0</speed>
  <fix>3d</fix>
</trkpt>
<trkpt lat="21.1682384" lon="-156.8870509">
  <ele>178.94</ele>
  <time>2026-09-01T20:03:07Z</time>
  <course>347.06</course>
  <speed>0.01</speed>
  <fix>3d</fix>
</trkpt>
<trkpt lat="21.1682386" lon="-156.8870512">
  <ele>179.31</ele>
  <time>2026-09-01T20:03:07Z</time>
  <course>255.11</course>
  <speed>0.0</speed>
  <fix>3d</fix>
</trkpt>
<trkpt lat="21.1682384" lon="-156.8870509">
  <ele>178.83</ele>
  <time>2026-09-01T20:03:07Z</time>
  <course>347.06</course>
  <speed>0.01414213562373095</speed>
  <fix>3d</fix>
</trkpt>
<trkpt lat="21.1682386" lon="-156.8870512">
  <ele>179.31</ele>
  <time>2026-09-01T20:03:07Z</time>
  <course>255.11</course>
  <speed>0.0</speed>
  <fix>3d</fix>
</trkpt>
<trkpt lat="21.1682384" lon="-156.8870509">
  <ele>178.71</ele>
  <time>2026-09-01T20:03:07Z</time>
  <course>347.04</course>
  <speed>0.022360679774997897</speed>
  <fix>3d</fix>
</trkpt>
<trkpt lat="21.1682386" lon="-156.8870512">
  <ele>179.08</ele>
  <time>2026-09-01T20:03:07Z</time>
  <course>246.53</course>
  <speed>0.0</speed>
  <fix>3d</fix>
</trkpt>
<trkpt lat="21.1682384" lon="-156.8870509">
  <ele>178.6</ele>
  <time>2026-09-01T20:03:07Z</time>
  <course>347.03</course>
  <speed>0.022360679774997897</speed>
  <fix>3d</fix>
</trkpt>
<trkpt lat="21.1682386" lon="-156.8870512">
  <ele>179.08</ele>
  <time>2026-09-01T20:03:07Z</time>
  <course>246.53</course>
  <speed>0.0</speed>
  <fix>3d</fix>
</trkpt>
<trkpt lat="21.1682384" lon="-156.8870509">
  <ele>178.49</ele>
  <time>2026-09-01T20:03:07Z</time>
  <course>347.01</course>
  <speed>0.022360679774997897</speed>
  <fix>3d</fix>
</trkpt>
<trkpt lat="21.1682386" lon="-156.8870512">
  <ele>178.86</ele>
  <time>2026-09-01T20:03:07Z</time>
  <course>236.98</course>
  <speed>0.01</speed>
  <fix>3d</fix>
</trkpt>
<trkpt lat="21.1682384" lon="-156.8870509">
  <ele>178.37</ele>
  <time>2026-09-01T20:03:07Z</time>
  <course>347.0</course>
  <speed>0.022360679774997897</speed>
  <fix>3d</fix>
</trkpt>
<trkpt lat="21.1682386" lon="-156.8870512">
  <ele>178.86</ele>
  <time>2026-09-01T20:03:07Z</time>
  <course>236.98</course>
  <speed>0.01</speed>
  <fix>3d</fix>
</trkpt>
<trkpt lat="21.1682384" lon="-156.887051">
  <ele>178.26</ele>
  <time>2026-09-01T20:03:07Z</time>
  <course>347.0</course>
  <speed>0.022360679774997897</speed>
  <fix>3d</fix>
</trkpt>
<trkpt lat="21.1682386" lon="-156.8870512">
  <ele>178.63</ele>
  <time>2026-09-01T20:03:07Z</time>
  <course>230.04</course>
  <speed>0.01</speed>
  <fix>3d</fix>
</trkpt>
<trkpt lat="21.1682384" lon="-156.887051">
  <ele>178.15</ele>
  <time>2026-09-01T20:03:07Z</time>
  <course>346.99</course>
  <speed>0.022360679774997897</speed>
  <fix>3d</fix>
</trkpt>
<trkpt lat="21.1682386" lon="-156.8870512">
  <ele>178.63</ele>
  <time>2026-09-01T20:03:07Z</time>
  <course>230.04</course>
  <speed>0.01</speed>
  <fix>3d</fix>
</trkpt>
<trkpt lat="21.1682384" lon="-156.887051">
  <ele>178.03</ele>
  <time>2026-09-01T20:03:07Z</time>
  <course>346.99</course>
  <speed>0.022360679774997897</speed>
  <fix>3d</fix>
</trkpt>
<trkpt lat="21.1682386" lon="-156.8870512">
  <ele>178.4</ele>
  <time>2026-09-01T20:03:07Z</time>
  <course>223.61</course>
  <speed>0.01</speed>
  <fix>3d</fix>
</trkpt>
<trkpt lat="21.1682384" lon="-156.887051">
  <ele>177.91</ele>
  <time>2026-09-01T20:03:07Z</time>
  <course>346.99</course>
  <speed>0.022360679774997897</speed>
  <fix>3d</fix>
</trkpt>
<trkpt lat="21.1682386" lon="-156.8870512">
  <ele>178.4</ele>
  <time>2026-09-01T20:03:07Z</time>
  <course>223.61</course>
  <speed>0.01</speed>
  <fix>3d</fix>
</trkpt>
<trkpt lat="21.1682384" lon="-156.887051">
  <ele>177.8</ele>
  <time>2026-09-01T20:03:07Z</time>
  <course>347.0</course>
  <speed>0.022360679774997897</speed>
  <fix>3d</fix>
</trkpt>
<trkpt lat="21.1682386" lon="-156.8870513">
  <ele>178.17</ele>
  <time>2026-09-01T20:03:07Z</time>
  <course>217.6</course>
  <speed>0.01</speed>
  <fix>3d</fix>
</trkpt>
<trkpt lat="21.1682384" lon="-156.887051">
  <ele>177.69</ele>
  <time>2026-09-01T20:03:07Z</time>
  <course>347.01</course>
  <speed>0.0282842712474619</speed>
  <fix>3d</fix>
</trkpt>
<trkpt lat="21.1682386" lon="-156.8870513">
  <ele>178.17</ele>
  <time>2026-09-01T20:03:07Z</time>
  <course>217.6</course>
  <speed>0.01</speed>
  <fix>3d</fix>
</trkpt>
<trkpt lat="21.1682384" lon="-156.887051">
  <ele>177.57</ele>
  <time>2026-09-01T20:03:07Z</time>
  <course>347.01</course>
  <speed>0.0282842712474619</speed>
  <fix>3d</fix>
</trkpt>
<trkpt lat="21.1682386" lon="-156.8870513">
  <ele>177.94</ele>
  <time>2026-09-01T20:03:07Z</time>
  <course>213.22</course>
  <speed>0.01</speed>
  <fix>3d</fix>
</trkpt>
<trkpt lat="21.1682384" lon="-156.887051">
  <ele>177.46</ele>
  <time>2026-09-01T20:03:07Z</time>
  <course>346.99</course>
  <speed>0.03605551275463989</speed>
  <fix>3d</fix>
</trkpt>
<trkpt lat="21.1682386" lon="-156.8870513">
  <ele>177.94</ele>
  <time>2026-09-01T20:03:07Z</time>
  <course>213.22</course>
  <speed>0.01</speed>
  <fix>3d</fix>
</trkpt>
<trkpt lat="21.1682384" lon="-156.887051">
  <ele>177.35</ele>
  <time>2026-09-01T20:03:07Z</time>
  <course>346.97</course>
  <speed>0.03605551275463989</speed>
  <fix>3d</fix>
</trkpt>
<trkpt lat="21.1682386" lon="-156.8870513">
  <ele>177.71</ele>
  <time>2026-09-01T20:03:07Z</time>
  <course>208.45</course>
  <speed>0.01</speed>
  <fix>3d</fix>
</trkpt>
<trkpt lat="21.1682384" lon="-156.887051">
  <ele>177.23</ele>
  <time>2026-09-01T20:03:07Z</time>
  <course>346.94</course>
  <speed>0.03605551275463989</speed>
  <fix>3d</fix>
</trkpt>
<trkpt lat="21.1682386" lon="-156.8870513">
  <ele>177.71</ele>
  <time>2026-09-01T20:03:07Z</time>
  <course>208.45</course>
  <speed>0.01</speed>
  <fix>3d</fix>
</trkpt>
<trkpt lat="21.1682384" lon="-156.887051">
  <ele>177.12</ele>
  <time>2026-09-01T20:03:07Z</time>
  <course>346.9</course>
  <speed>0.03605551275463989</speed>
  <fix>3d</fix>
</trkpt>
<trkpt lat="21.1682385" lon="-156.8870513">
  <ele>177.48</ele>
  <time>2026-09-01T20:03:07Z</time>
  <course>203.62</course>
  <speed>0.01</speed>
  <fix>3d</fix>
</trkpt>
<trkpt lat="21.1682384" lon="-156.887051">
  <ele>177.01</ele>
  <time>2026-09-01T20:03:07Z</time>
  <course>346.88</course>
  <speed>0.0282842712474619</speed>
  <fix>3d</fix>
</trkpt>
<trkpt lat="21.1682385" lon="-156.8870513">
  <ele>177.48</ele>
  <time>2026-09-01T20:03:07Z</time>
  <course>203.62</course>
  <speed>0.01</speed>
  <fix>3d</fix>
</trkpt>
<trkpt lat="21.1682384" lon="-156.887051">
  <ele>176.89</ele>
  <time>2026-09-01T20:03:07Z</time>
  <course>346.87</course>
  <speed>0.03605551275463989</speed>
  <fix>3d</fix>
</trkpt>
<trkpt lat="21.1682384" lon="-156.8870513">
  <ele>177.25</ele>
  <time>2026-09-01T20:03:07Z</time>
  <course>202.48</course>
  <speed>0.01</speed>
  <fix>3d</fix>
</trkpt>
<trkpt lat="21.1682384" lon="-156.887051">
  <ele>176.78</ele>
  <time>2026-09-01T20:03:07Z</time>
  <course>346.88</course>
  <speed>0.03605551275463989</speed>
  <fix>3d</fix>
</trkpt>
<trkpt lat="21.1682384" lon="-156.8870513">
  <ele>177.25</ele>
  <time>2026-09-01T20:03:07Z</time>
  <course>202.48</course>
  <speed>0.01</speed>
  <fix>3d</fix>
</trkpt>
<trkpt lat="21.1682384" lon="-156.887051">
  <ele>176.66</ele>
  <time>2026-09-01T20:03:07Z</time>
  <course>346.88</course>
  <speed>0.03605551275463989</speed>
  <fix>3d</fix>
</trkpt>
<trkpt lat="21.1682384" lon="-156.8870513">
  <ele>177.02</ele>
  <time>2026-09-01T20:03:07Z</time>
  <course>203.72</course>
  <speed>0.01</speed>
  <fix>3d</fix>
</trkpt>
<trkpt lat="21.1682384" lon="-156.887051">
  <ele>176.55</ele>
  <time>2026-09-01T20:03:07Z</time>
  <course>346.88</course>
  <speed>0.03605551275463989</speed>
  <fix>3d</fix>
</trkpt>
<trkpt lat="21.1682384" lon="-156.8870513">
  <ele>177.02</ele>
  <time>2026-09-01T20:03:07Z</time>
  <course>203.72</course>
  <speed>0.01</speed>
  <fix>3d</fix>
</trkpt>
<trkpt lat="21.1682384" lon="-156.887051">
  <ele>176.43</ele>
  <time>2026-09-01T20:03:07Z</time>
  <course>346.87</course>
  <speed>0.0282842712474619</speed>
  <fix>3d</fix>
</trkpt>
<trkpt lat="21.1682384" lon="-156.8870513">
  <ele>176.79</ele>
  <time>2026-09-01T20:03:07Z</time>
  <course>203.22</course>
  <speed>0.01</speed>
  <fix>3d</fix>
</trkpt>
<trkpt lat="21.1682383" lon="-156.887051">
  <ele>176.32</ele>
  <time>2026-09-01T20:03:07Z</time>
  <course>346.87</course>
  <speed>0.0282842712474619</speed>
  <fix>3d</fix>
</trkpt>
<trkpt lat="21.1682384" lon="-156.8870513">
  <ele>176.79</ele>
  <time>2026-09-01T20:03:07Z</time>
  <course>203.22</course>
  <speed>0.01</speed>
  <fix>3d</fix>
</trkpt>
<trkpt lat="21.1682383" lon="-156.887051">
  <ele>176.2</ele>
  <time>2026-09-01T20:03:07Z</time>
  <course>346.88</course>
  <speed>0.0282842712474619</speed>
  <fix>3d</fix>
</trkpt>
<trkpt lat="21.1682384" lon="-156.8870513">
  <ele>176.56</ele>
  <time>2026-09-01T20:03:07Z</time>
  <course>202.61</course>
  <speed>0.01</speed>
  <fix>3d</fix>
</trkpt>
<trkpt lat="21.1682383" lon="-156.887051">
  <ele>176.08</ele>
  <time>2026-09-01T20:03:07Z</time>
  <course>346.89</course>
  <speed>0.03605551275463989</speed>
  <fix>3d</fix>
</trkpt>
<trkpt lat="21.1682384" lon="-156.8870513">
  <ele>176.56</ele>
  <time>2026-09-01T20:03:07Z</time>
  <course>202.61</course>
  <speed>0.01</speed>
  <fix>3d</fix>
</trkpt>
<trkpt lat="21.1682383" lon="-156.887051">
  <ele>175.96</ele>
  <time>2026-09-01T20:03:07Z</time>
  <course>346.89</course>
  <speed>0.0282842712474619</speed>
  <fix>3d</fix>
</trkpt>
<trkpt lat="21.1682384" lon="-156.8870514">
  <ele>176.33</ele>
  <time>2026-09-01T20:03:07Z</time>
  <course>203.22</course>
  <speed>0.01</speed>
  <fix>3d</fix>
</trkpt>
<trkpt lat="21.1682383" lon="-156.887051">
  <ele>175.85</ele>
  <time>2026-09-01T20:03:07Z</time>
  <course>346.9</course>
  <speed>0.0282842712474619</speed>
  <fix>3d</fix>
</trkpt>
<trkpt lat="21.1682384" lon="-156.8870514">
  <ele>176.33</ele>
  <time>2026-09-01T20:03:07Z</time>
  <course>203.22</course>
  <speed>0.01</speed>
  <fix>3d</fix>
</trkpt>
<trkpt lat="21.1682383" lon="-156.887051">
  <ele>175.73</ele>
  <time>2026-09-01T20:03:07Z</time>
  <course>346.9</course>
  <speed>0.0282842712474619</speed>
  <fix>3d</fix>
</trkpt>
<trkpt lat="21.1682384" lon="-156.8870514">
  <ele>176.1</ele>
  <time>2026-09-01T20:03:07Z</time>
  <course>206.08</course>
  <speed>0.01</speed>
  <fix>3d</fix>
</trkpt>
<trkpt lat="21.1682383" lon="-156.887051">
  <ele>175.61</ele>
  <time>2026-09-01T20:03:07Z</time>
  <course>346.89</course>
  <speed>0.0282842712474619</speed>
  <fix>3d</fix>
</trkpt>
<trkpt lat="21.1682384" lon="-156.8870514">
  <ele>176.1</ele>
  <time>2026-09-01T20:03:07Z</time>
  <course>206.08</course>
  <speed>0.01</speed>
  <fix>3d</fix>
</trkpt>
<trkpt lat="21.1682383" lon="-156.887051">
  <ele>175.49</ele>
  <time>2026-09-01T20:03:07Z</time>
  <course>346.89</course>
  <speed>0.0282842712474619</speed>
  <fix>3d</fix>
</trkpt>
<trkpt lat="21.1682384" lon="-156.8870514">
  <ele>175.87</ele>
  <time>2026-09-01T20:03:07Z</time>
  <course>210.51</course>
  <speed>0.01</speed>
  <fix>3d</fix>
</trkpt>
<trkpt lat="21.1682383" lon="-156.887051">
  <ele>175.38</ele>
  <time>2026-09-01T20:03:07Z</time>
  <course>346.9</course>
  <speed>0.0316227766016838</speed>
  <fix>3d</fix>
</trkpt>
<trkpt lat="21.1682384" lon="-156.8870514">
  <ele>175.87</ele>
  <time>2026-09-01T20:03:07Z</time>
  <course>210.51</course>
  <speed>0.01</speed>
  <fix>3d</fix>
</trkpt>
<trkpt lat="21.1682383" lon="-156.8870511">
  <ele>175.26</ele>
  <time>2026-09-01T20:03:07Z</time>
  <course>346.9</course>
  <speed>0.0316227766016838</speed>
  <fix>3d</fix>
</trkpt>
<trkpt lat="21.1682384" lon="-156.8870514">
  <ele>175.63</ele>
  <time>2026-09-01T20:03:07Z</time>
  <course>215.7</course>
  <speed>0.01</speed>
  <fix>3d</fix>
</trkpt>
<trkpt lat="21.1682383" lon="-156.8870511">
  <ele>175.14</ele>
  <time>2026-09-01T20:03:07Z</time>
  <course>346.9</course>
  <speed>0.0316227766016838</speed>
  <fix>3d</fix>
</trkpt>
<trkpt lat="21.1682384" lon="-156.8870514">
  <ele>175.63</ele>
  <time>2026-09-01T20:03:07Z</time>
  <course>215.7</course>
  <speed>0.01</speed>
  <fix>3d</fix>
</trkpt>
<trkpt lat="21.1682383" lon="-156.8870511">
  <ele>175.03</ele>
  <time>2026-09-01T20:03:07Z</time>
  <course>346.9</course>
  <speed>0.0316227766016838</speed>
  <fix>3d</fix>
</trkpt>
<trkpt lat="21.1682383" lon="-156.8870514">
  <ele>175.4</ele>
  <time>2026-09-01T20:03:07Z</time>
  <course>217.89</course>
  <speed>0.01</speed>
  <fix>3d</fix>
</trkpt>
<trkpt lat="21.1682383" lon="-156.8870511">
  <ele>174.91</ele>
  <time>2026-09-01T20:03:07Z</time>
  <course>346.89</course>
  <speed>0.0316227766016838</speed>
  <fix>3d</fix>
</trkpt>
<trkpt lat="21.1682383" lon="-156.8870514">
  <ele>175.4</ele>
  <time>2026-09-01T20:03:07Z</time>
  <course>217.89</course>
  <speed>0.01</speed>
  <fix>3d</fix>
</trkpt>
<trkpt lat="21.1682383" lon="-156.8870511">
  <ele>174.8</ele>
  <time>2026-09-01T20:03:07Z</time>
  <course>346.88</course>
  <speed>0.0316227766016838</speed>
  <fix>3d</fix>
</trkpt>
<trkpt lat="21.1682383" lon="-156.8870514">
  <ele>175.18</ele>
  <time>2026-09-01T20:03:07Z</time>
  <course>218.53</course>
  <speed>0.01</speed>
  <fix>3d</fix>
</trkpt>
<trkpt lat="21.1682382" lon="-156.8870511">
  <ele>174.68</ele>
  <time>2026-09-01T20:03:07Z</time>
  <course>346.87</course>
  <speed>0.0316227766016838</speed>
  <fix>3d</fix>
</trkpt>
<trkpt lat="21.1682383" lon="-156.8870514">
  <ele>175.18</ele>
  <time>2026-09-01T20:03:07Z</time>
  <course>218.53</course>
  <speed>0.01</speed>
  <fix>3d</fix>
</trkpt>
<trkpt lat="21.1682382" lon="-156.8870511">
  <ele>174.57</ele>
  <time>2026-09-01T20:03:07Z</time>
  <course>346.88</course>
  <speed>0.0316227766016838</speed>
  <fix>3d</fix>
</trkpt>
<trkpt lat="21.1682383" lon="-156.8870514">
  <ele>174.95</ele>
  <time>2026-09-01T20:03:07Z</time>
  <course>224.19</course>
  <speed>0.0</speed>
  <fix>3d</fix>
</trkpt>
<trkpt lat="21.1682382" lon="-156.8870511">
  <ele>174.46</ele>
  <time>2026-09-01T20:03:07Z</time>
  <course>346.88</course>
  <speed>0.0316227766016838</speed>
  <fix>3d</fix>
</trkpt>
<trkpt lat="21.1682383" lon="-156.8870514">
  <ele>174.95</ele>
  <time>2026-09-01T20:03:07Z</time>
  <course>224.19</course>
  <speed>0.0</speed>
  <fix>3d</fix>
</trkpt>
<trkpt lat="21.1682382" lon="-156.8870511">
  <ele>174.34</ele>
  <time>2026-09-01T20:03:07Z</time>
  <course>346.88</course>
  <speed>0.0316227766016838</speed>
  <fix>3d</fix>
</trkpt>
<trkpt lat="21.1682383" lon="-156.8870514">
  <ele>174.72</ele>
  <time>2026-09-01T20:03:07Z</time>
  <course>229.57</course>
  <speed>0.0</speed>
  <fix>3d</fix>
</trkpt>
<trkpt lat="21.1682382" lon="-156.8870511">
  <ele>174.23</ele>
  <time>2026-09-01T20:03:07Z</time>
  <course>346.88</course>
  <speed>0.0316227766016838</speed>
  <fix>3d</fix>
</trkpt>
<trkpt lat="21.1682383" lon="-156.8870514">
  <ele>174.72</ele>
  <time>2026-09-01T20:03:07Z</time>
  <course>229.57</course>
  <speed>0.0</speed>
  <fix>3d</fix>
</trkpt>
<trkpt lat="21.1682382" lon="-156.8870511">
  <ele>174.12</ele>
  <time>2026-09-01T20:03:07Z</time>
  <course>346.88</course>
  <speed>0.0316227766016838</speed>
  <fix>3d</fix>
</trkpt>
<trkpt lat="21.1682383" lon="-156.8870514">
  <ele>174.5</ele>
  <time>2026-09-01T20:03:07Z</time>
  <course>231.6</course>
  <speed>0.0</speed>
  <fix>3d</fix>
</trkpt>
<trkpt lat="21.1682382" lon="-156.8870511">
  <ele>174.0</ele>
  <time>2026-09-01T20:03:07Z</time>
  <course>346.87</course>
  <speed>0.0316227766016838</speed>
  <fix>3d</fix>
</trkpt>
<trkpt lat="21.1682383" lon="-156.8870514">
  <ele>174.5</ele>
  <time>2026-09-01T20:03:07Z</time>
  <course>231.6</course>
  <speed>0.0</speed>
  <fix>3d</fix>
</trkpt>
<trkpt lat="21.1682382" lon="-156.8870511">
  <ele>173.89</ele>
  <time>2026-09-01T20:03:07Z</time>
  <course>346.85</course>
  <speed>0.0316227766016838</speed>
  <fix>3d</fix>
</trkpt>
<trkpt lat="21.1682383" lon="-156.8870514">
  <ele>174.27</ele>
  <time>2026-09-01T20:03:07Z</time>
  <course>232.21</course>
  <speed>0.0</speed>
  <fix>3d</fix>
</trkpt>
<trkpt lat="21.1682382" lon="-156.8870511">
  <ele>173.77</ele>
  <time>2026-09-01T20:03:07Z</time>
  <course>346.83</course>
  <speed>0.0316227766016838</speed>
  <fix>3d</fix>
</trkpt>
<trkpt lat="21.1682383" lon="-156.8870514">
  <ele>174.27</ele>
  <time>2026-09-01T20:03:07Z</time>
  <course>232.21</course>
  <speed>0.0</speed>
  <fix>3d</fix>
</trkpt>
<trkpt lat="21.1682382" lon="-156.8870511">
  <ele>173.66</ele>
  <time>2026-09-01T20:03:07Z</time>
  <course>346.82</course>
  <speed>0.0316227766016838</speed>
  <fix>3d</fix>
</trkpt>
<trkpt lat="21.1682383" lon="-156.8870514">
  <ele>174.05</ele>
  <time>2026-09-01T20:03:07Z</time>
  <course>232.96</course>
  <speed>0.0</speed>
  <fix>3d</fix>
</trkpt>
<trkpt lat="21.1682382" lon="-156.8870511">
  <ele>173.55</ele>
  <time>2026-09-01T20:03:07Z</time>
  <course>346.81</course>
  <speed>0.0316227766016838</speed>
  <fix>3d</fix>
</trkpt>
<trkpt lat="21.1682383" lon="-156.8870514">
  <ele>174.05</ele>
  <time>2026-09-01T20:03:07Z</time>
  <course>232.96</course>
  <speed>0.0</speed>
  <fix>3d</fix>
</trkpt>
<trkpt lat="21.1682382" lon="-156.8870511">
  <ele>173.43</ele>
  <time>2026-09-01T20:03:07Z</time>
  <course>346.82</course>
  <speed>0.0316227766016838</speed>
  <fix>3d</fix>
</trkpt>
<trkpt lat="21.1682383" lon="-156.8870514">
  <ele>173.82</ele>
  <time>2026-09-01T20:03:07Z</time>
  <course>235.93</course>
  <speed>0.0</speed>
  <fix>3d</fix>
</trkpt>
<trkpt lat="21.1682382" lon="-156.8870511">
  <ele>173.32</ele>
  <time>2026-09-01T20:03:07Z</time>
  <course>346.83</course>
  <speed>0.0316227766016838</speed>
  <fix>3d</fix>
</trkpt>
<trkpt lat="21.1682383" lon="-156.8870514">
  <ele>173.82</ele>
  <time>2026-09-01T20:03:07Z</time>
  <course>235.93</course>
  <speed>0.0</speed>
  <fix>3d</fix>
</trkpt>
<trkpt lat="21.1682382" lon="-156.8870511">
  <ele>173.21</ele>
  <time>2026-09-01T20:03:07Z</time>
  <course>346.85</course>
  <speed>0.022360679774997897</speed>
  <fix>3d</fix>
</trkpt>
<trkpt lat="21.1682383" lon="-156.8870514">
  <ele>173.59</ele>
  <time>2026-09-01T20:03:07Z</time>
  <course>239.78</course>
  <speed>0.0</speed>
  <fix>3d</fix>
</trkpt>
<trkpt lat="21.1682382" lon="-156.8870511">
  <ele>173.09</ele>
  <time>2026-09-01T20:03:07Z</time>
  <course>346.88</course>
  <speed>0.0316227766016838</speed>
  <fix>3d</fix>
</trkpt>
<trkpt lat="21.1682383" lon="-156.8870514">
  <ele>173.59</ele>
  <time>2026-09-01T20:03:07Z</time>
  <course>239.78</course>
  <speed>0.0</speed>
  <fix>3d</fix>
</trkpt>
<trkpt lat="21.1682382" lon="-156.8870511">
  <ele>172.98</ele>
  <time>2026-09-01T20:03:07Z</time>
  <course>346.9</course>
  <speed>0.0316227766016838</speed>
  <fix>3d</fix>
</trkpt>
<trkpt lat="21.1682383" lon="-156.8870514">
  <ele>173.36</ele>
  <time>2026-09-01T20:03:07Z</time>
  <course>243.92</course>
  <speed>0.0</speed>
  <fix>3d</fix>
</trkpt>
<trkpt lat="21.1682382" lon="-156.8870511">
  <ele>172.87</ele>
  <time>2026-09-01T20:03:07Z</time>
  <course>346.91</course>
  <speed>0.0316227766016838</speed>
  <fix>3d</fix>
</trkpt>
<trkpt lat="21.1682383" lon="-156.8870514">
  <ele>173.36</ele>
  <time>2026-09-01T20:03:07Z</time>
  <course>243.92</course>
  <speed>0.0</speed>
  <fix>3d</fix>
</trkpt>
<trkpt lat="21.1682382" lon="-156.8870511">
  <ele>172.75</ele>
  <time>2026-09-01T20:03:07Z</time>
  <course>346.91</course>
  <speed>0.0316227766016838</speed>
  <fix>3d</fix>
</trkpt>
<trkpt lat="21.1682383" lon="-156.8870515">
  <ele>173.13</ele>
  <time>2026-09-01T20:03:07Z</time>
  <course>249.34</course>
  <speed>0.0</speed>
  <fix>3d</fix>
</trkpt>
<trkpt lat="21.1682382" lon="-156.8870511">
  <ele>172.63</ele>
  <time>2026-09-01T20:03:07Z</time>
  <course>346.9</course>
  <speed>0.022360679774997897</speed>
  <fix>3d</fix>
</trkpt>
<trkpt lat="21.1682383" lon="-156.8870515">
  <ele>173.13</ele>
  <time>2026-09-01T20:03:07Z</time>
  <course>249.34</course>
  <speed>0.0</speed>
  <fix>3d</fix>
</trkpt>
<trkpt lat="21.1682382" lon="-156.8870511">
  <ele>172.52</ele>
  <time>2026-09-01T20:03:07Z</time>
  <course>346.9</course>
  <speed>0.022360679774997897</speed>
  <fix>3d</fix>
</trkpt>
<trkpt lat="21.1682383" lon="-156.8870516">
  <ele>172.9</ele>
  <time>2026-09-01T20:03:07Z</time>
  <course>255.12</course>
  <speed>0.0</speed>
  <fix>3d</fix>
</trkpt>
<trkpt lat="21.1682382" lon="-156.8870511">
  <ele>172.4</ele>
  <time>2026-09-01T20:03:07Z</time>
  <course>346.9</course>
  <speed>0.0316227766016838</speed>
  <fix>3d</fix>
</trkpt>
<trkpt lat="21.1682383" lon="-156.8870516">
  <ele>172.9</ele>
  <time>2026-09-01T20:03:07Z</time>
  <course>255.12</course>
  <speed>0.0</speed>
  <fix>3d</fix>
</trkpt>
<trkpt lat="21.1682382" lon="-156.8870511">
  <ele>172.28</ele>
  <time>2026-09-01T20:03:07Z</time>
  <course>346.9</course>
  <speed>0.022360679774997897</speed>
  <fix>3d</fix>
</trkpt>
<trkpt lat="21.1682382" lon="-156.8870516">
  <ele>172.67</ele>
  <time>2026-09-01T20:03:07Z</time>
  <course>261.4</course>
  <speed>0.0</speed>
  <fix>3d</fix>
</trkpt>
<trkpt lat="21.1682382" lon="-156.8870511">
  <ele>172.17</ele>
  <time>2026-09-01T20:03:07Z</time>
  <course>346.91</course>
  <speed>0.022360679774997897</speed>
  <fix>3d</fix>
</trkpt>
<trkpt lat="21.1682382" lon="-156.8870516">
  <ele>172.67</ele>
  <time>2026-09-01T20:03:07Z</time>
  <course>261.4</course>
  <speed>0.0</speed>
  <fix>3d</fix>
</trkpt>
<trkpt lat="21.1682382" lon="-156.8870512">
  <ele>172.05</ele>
  <time>2026-09-01T20:03:07Z</time>
  <course>346.92</course>
  <speed>0.022360679774997897</speed>
  <fix>3d</fix>
</trkpt>
<trkpt lat="21.1682381" lon="-156.8870516">
  <ele>172.44</ele>
  <time>2026-09-01T20:03:07Z</time>
  <course>264.51</course>
  <speed>0.0</speed>
  <fix>3d</fix>
</trkpt>
<trkpt lat="21.1682382" lon="-156.8870512">
  <ele>171.94</ele>
  <time>2026-09-01T20:03:07Z</time>
  <course>346.94</course>
  <speed>0.022360679774997897</speed>
  <fix>3d</fix>
</trkpt>
<trkpt lat="21.1682381" lon="-156.8870516">
  <ele>172.44</ele>
  <time>2026-09-01T20:03:07Z</time>
  <course>264.51</course>
  <speed>0.0</speed>
  <fix>3d</fix>
</trkpt>
<trkpt lat="21.1682382" lon="-156.8870512">
  <ele>171.83</ele>
  <time>2026-09-01T20:03:07Z</time>
  <course>346.95</course>
  <speed>0.01414213562373095</speed>
  <fix>3d</fix>
</trkpt>
<trkpt lat="21.1682381" lon="-156.8870516">
  <ele>172.21</ele>
  <time>2026-09-01T20:03:07Z</time>
  <course>264.31</course>
  <speed>0.0</speed>
  <fix>3d</fix>
</trkpt>
<trkpt lat="21.1682382" lon="-156.8870512">
  <ele>171.71</ele>
  <time>2026-09-01T20:03:07Z</time>
  <course>346.97</course>
  <speed>0.01414213562373095</speed>
  <fix>3d</fix>
</trkpt>
<trkpt lat="21.1682381" lon="-156.8870516">
  <ele>172.21</ele>
  <time>2026-09-01T20:03:07Z</time>
  <course>264.31</course>
  <speed>0.0</speed>
  <fix>3d</fix>
</trkpt>
<trkpt lat="21.1682381" lon="-156.8870513">
  <ele>171.6</ele>
  <time>2026-09-01T20:03:07Z</time>
  <course>347.0</course>
  <speed>0.01414213562373095</speed>
  <fix>3d</fix>
</trkpt>
<trkpt lat="21.1682381" lon="-156.8870516">
  <ele>171.98</ele>
  <time>2026-09-01T20:03:07Z</time>
  <course>265.35</course>
  <speed>0.0</speed>
  <fix>3d</fix>
</trkpt>
<trkpt lat="21.1682381" lon="-156.8870513">
  <ele>171.49</ele>
  <time>2026-09-01T20:03:07Z</time>
  <course>347.03</course>
  <speed>0.01414213562373095</speed>
  <fix>3d</fix>
</trkpt>
<trkpt lat="21.1682381" lon="-156.8870516">
  <ele>171.98</ele>
  <time>2026-09-01T20:03:07Z</time>
  <course>265.35</course>
  <speed>0.0</speed>
  <fix>3d</fix>
</trkpt>
<trkpt lat="21.1682381" lon="-156.8870513">
  <ele>171.37</ele>
  <time>2026-09-01T20:03:07Z</time>
  <course>347.07</course>
  <speed>0.01414213562373095</speed>
  <fix>3d</fix>
</trkpt>
<trkpt lat="21.1682381" lon="-156.8870516">
  <ele>171.75</ele>
  <time>2026-09-01T20:03:07Z</time>
  <course>268.91</course>
  <speed>0.01</speed>
  <fix>3d</fix>
</trkpt>
<trkpt lat="21.1682381" lon="-156.8870513">
  <ele>171.26</ele>
  <time>2026-09-01T20:03:07Z</time>
  <course>347.1</course>
  <speed>0.01414213562373095</speed>
  <fix>3d</fix>
</trkpt>
<trkpt lat="21.1682381" lon="-156.8870516">
  <ele>171.75</ele>
  <time>2026-09-01T20:03:07Z</time>
  <course>268.91</course>
  <speed>0.01</speed>
  <fix>3d</fix>
</trkpt>
<trkpt lat="21.1682381" lon="-156.8870513">
  <ele>171.14</ele>
  <time>2026-09-01T20:03:07Z</time>
  <course>347.12</course>
  <speed>0.01414213562373095</speed>
  <fix>3d</fix>
</trkpt>
<trkpt lat="21.1682381" lon="-156.8870517">
  <ele>171.52</ele>
  <time>2026-09-01T20:03:07Z</time>
  <course>273.98</course>
  <speed>0.01</speed>
  <fix>3d</fix>
</trkpt>
<trkpt lat="21.1682381" lon="-156.8870513">
  <ele>171.03</ele>
  <time>2026-09-01T20:03:07Z</time>
  <course>347.13</course>
  <speed>0.01414213562373095</speed>
  <fix>3d</fix>
</trkpt>
<trkpt lat="21.1682381" lon="-156.8870517">
  <ele>171.52</ele>
  <time>2026-09-01T20:03:07Z</time>
  <course>273.98</course>
  <speed>0.01</speed>
  <fix>3d</fix>
</trkpt>
<trkpt lat="21.1682381" lon="-156.8870514">
  <ele>170.92</ele>
  <time>2026-09-01T20:03:07Z</time>
  <course>347.12</course>
  <speed>0.01414213562373095</speed>
  <fix>3d</fix>
</trkpt>
<trkpt lat="21.1682381" lon="-156.8870517">
  <ele>171.29</ele>
  <time>2026-09-01T20:03:07Z</time>
  <course>279.07</course>
  <speed>0.01</speed>
  <fix>3d</fix>
</trkpt>
<trkpt lat="21.1682381" lon="-156.8870514">
  <ele>170.81</ele>
  <time>2026-09-01T20:03:07Z</time>
  <course>347.1</course>
  <speed>0.01414213562373095</speed>
  <fix>3d</fix>
</trkpt>
<trkpt lat="21.1682381" lon="-156.8870517">
  <ele>171.29</ele>
  <time>2026-09-01T20:03:07Z</time>
  <course>279.07</course>
  <speed>0.01</speed>
  <fix>3d</fix>
</trkpt>
<trkpt lat="21.1682381" lon="-156.8870514">
  <ele>170.69</ele>
  <time>2026-09-01T20:03:07Z</time>
  <course>347.09</course>
  <speed>0.01414213562373095</speed>
  <fix>3d</fix>
</trkpt>
<trkpt lat="21.1682381" lon="-156.8870517">
  <ele>171.06</ele>
  <time>2026-09-01T20:03:07Z</time>
  <course>288.56</course>
  <speed>0.01</speed>
  <fix>3d</fix>
</trkpt>
<trkpt lat="21.1682381" lon="-156.8870514">
  <ele>170.58</ele>
  <time>2026-09-01T20:03:07Z</time>
  <course>347.08</course>
  <speed>0.01414213562373095</speed>
  <fix>3d</fix>
</trkpt>
<trkpt lat="21.1682381" lon="-156.8870517">
  <ele>171.06</ele>
  <time>2026-09-01T20:03:07Z</time>
  <course>288.56</course>
  <speed>0.01</speed>
  <fix>3d</fix>
</trkpt>
<trkpt lat="21.1682381" lon="-156.8870514">
  <ele>170.46</ele>
  <time>2026-09-01T20:03:07Z</time>
  <course>347.07</course>
  <speed>0.01414213562373095</speed>
  <fix>3d</fix>
</trkpt>
<trkpt lat="21.1682381" lon="-156.8870517">
  <ele>170.83</ele>
  <time>2026-09-01T20:03:07Z</time>
  <course>304.47</course>
  <speed>0.0</speed>
  <fix>3d</fix>
</trkpt>
<trkpt lat="21.1682381" lon="-156.8870514">
  <ele>170.34</ele>
  <time>2026-09-01T20:03:07Z</time>
  <course>347.06</course>
  <speed>0.01414213562373095</speed>
  <fix>3d</fix>
</trkpt>
<trkpt lat="21.1682381" lon="-156.8870517">
  <ele>170.83</ele>
  <time>2026-09-01T20:03:07Z</time>
  <course>304.47</course>
  <speed>0.0</speed>
  <fix>3d</fix>
</trkpt>
<trkpt lat="21.1682381" lon="-156.8870514">
  <ele>170.23</ele>
  <time>2026-09-01T20:03:07Z</time>
  <course>347.06</course>
  <speed>0.01414213562373095</speed>
  <fix>3d</fix>
</trkpt>
<trkpt lat="21.1682381" lon="-156.8870517">
  <ele>170.6</ele>
  <time>2026-09-01T20:03:07Z</time>
  <course>324.78</course>
  <speed>0.0</speed>
  <fix>3d</fix>
</trkpt>
<trkpt lat="21.1682381" lon="-156.8870514">
  <ele>170.11</ele>
  <time>2026-09-01T20:03:07Z</time>
  <course>347.07</course>
  <speed>0.022360679774997897</speed>
  <fix>3d</fix>
</trkpt>
<trkpt lat="21.1682381" lon="-156.8870517">
  <ele>170.6</ele>
  <time>2026-09-01T20:03:07Z</time>
  <course>324.78</course>
  <speed>0.0</speed>
  <fix>3d</fix>
</trkpt>
<trkpt lat="21.1682381" lon="-156.8870514">
  <ele>170.0</ele>
  <time>2026-09-01T20:03:07Z</time>
  <course>347.08</course>
  <speed>0.022360679774997897</speed>
  <fix>3d</fix>
</trkpt>
<trkpt lat="21.1682381" lon="-156.8870517">
  <ele>170.37</ele>
  <time>2026-09-01T20:03:07Z</time>
  <course>344.13</course>
  <speed>0.0</speed>
  <fix>3d</fix>
</trkpt>
<trkpt lat="21.1682381" lon="-156.8870514">
  <ele>169.88</ele>
  <time>2026-09-01T20:03:07Z</time>
  <course>347.09</course>
  <speed>0.022360679774997897</speed>
  <fix>3d</fix>
</trkpt>
<trkpt lat="21.1682381" lon="-156.8870517">
  <ele>170.37</ele>
  <time>2026-09-01T20:03:07Z</time>
  <course>344.13</course>
  <speed>0.0</speed>
  <fix>3d</fix>
</trkpt>
<trkpt lat="21.1682381" lon="-156.8870514">
  <ele>169.76</ele>
  <time>2026-09-01T20:03:07Z</time>
  <course>347.11</course>
  <speed>0.022360679774997897</speed>
  <fix>3d</fix>
</trkpt>
<trkpt lat="21.1682381" lon="-156.8870518">
  <ele>170.14</ele>
  <time>2026-09-01T20:03:07Z</time>
  <course>359.83</course>
  <speed>0.01</speed>
  <fix>3d</fix>
</trkpt>
<trkpt lat="21.1682381" lon="-156.8870514">
  <ele>169.65</ele>
  <time>2026-09-01T20:03:07Z</time>
  <course>347.12</course>
  <speed>0.022360679774997897</speed>
  <fix>3d</fix>
</trkpt>
<trkpt lat="21.1682381" lon="-156.8870518">
  <ele>170.14</ele>
  <time>2026-09-01T20:03:07Z</time>
  <course>359.83</course>
  <speed>0.01</speed>
  <fix>3d</fix>
</trkpt>
<trkpt lat="21.1682381" lon="-156.8870515">
  <ele>169.53</ele>
  <time>2026-09-01T20:03:07Z</time>
  <course>347.12</course>
  <speed>0.022360679774997897</speed>
  <fix>3d</fix>
</trkpt>
<trkpt lat="21.1682381" lon="-156.8870517">
  <ele>169.91</ele>
  <time>2026-09-01T20:03:07Z</time>
  <course>12.59</course>
  <speed>0.01</speed>
  <fix>3d</fix>
</trkpt>
<trkpt lat="21.1682381" lon="-156.8870515">
  <ele>169.42</ele>
  <time>2026-09-01T20:03:07Z</time>
  <course>347.11</course>
  <speed>0.02</speed>
  <fix>3d</fix>
</trkpt>
<trkpt lat="21.1682381" lon="-156.8870517">
  <ele>169.91</ele>
  <time>2026-09-01T20:03:07Z</time>
  <course>12.59</course>
  <speed>0.01</speed>
  <fix>3d</fix>
</trkpt>
<trkpt lat="21.1682381" lon="-156.8870515">
  <ele>169.3</ele>
  <time>2026-09-01T20:03:07Z</time>
  <course>347.1</course>
  <speed>0.02</speed>
  <fix>3d</fix>
</trkpt>
<trkpt lat="21.1682382" lon="-156.8870517">
  <ele>169.67</ele>
  <time>2026-09-01T20:03:07Z</time>
  <course>20.81</course>
  <speed>0.01</speed>
  <fix>3d</fix>
</trkpt>
<trkpt lat="21.1682381" lon="-156.8870515">
  <ele>169.19</ele>
  <time>2026-09-01T20:03:07Z</time>
  <course>347.09</course>
  <speed>0.03</speed>
  <fix>3d</fix>
</trkpt>
<trkpt lat="21.1682382" lon="-156.8870517">
  <ele>169.67</ele>
  <time>2026-09-01T20:03:07Z</time>
  <course>20.81</course>
  <speed>0.01</speed>
  <fix>3d</fix>
</trkpt>
<trkpt lat="21.1682381" lon="-156.8870515">
  <ele>169.08</ele>
  <time>2026-09-01T20:03:07Z</time>
  <course>347.08</course>
  <speed>0.03</speed>
  <fix>3d</fix>
</trkpt>
<trkpt lat="21.1682383" lon="-156.8870517">
  <ele>169.44</ele>
  <time>2026-09-01T20:03:07Z</time>
  <course>25.91</course>
  <speed>0.01</speed>
  <fix>3d</fix>
</trkpt>
<trkpt lat="21.1682381" lon="-156.8870515">
  <ele>168.96</ele>
  <time>2026-09-01T20:03:07Z</time>
  <course>347.08</course>
  <speed>0.03</speed>
  <fix>3d</fix>
</trkpt>
<trkpt lat="21.1682383" lon="-156.8870517">
  <ele>169.44</ele>
  <time>2026-09-01T20:03:07Z</time>
  <course>25.91</course>
  <speed>0.01</speed>
  <fix>3d</fix>
</trkpt>
<trkpt lat="21.1682381" lon="-156.8870515">
  <ele>168.85</ele>
  <time>2026-09-01T20:03:07Z</time>
  <course>347.09</course>
  <speed>0.03</speed>
  <fix>3d</fix>
</trkpt>
<trkpt lat="21.1682383" lon="-156.8870517">
  <ele>169.21</ele>
  <time>2026-09-01T20:03:07Z</time>
  <course>30.18</course>
  <speed>0.01</speed>
  <fix>3d</fix>
</trkpt>
<trkpt lat="21.1682381" lon="-156.8870515">
  <ele>168.73</ele>
  <time>2026-09-01T20:03:07Z</time>
  <course>347.1</course>
  <speed>0.03</speed>
  <fix>3d</fix>
</trkpt>
<trkpt lat="21.1682383" lon="-156.8870517">
  <ele>169.21</ele>
  <time>2026-09-01T20:03:07Z</time>
  <course>30.18</course>
  <speed>0.01</speed>
  <fix>3d</fix>
</trkpt>
<trkpt lat="21.1682381" lon="-156.8870515">
  <ele>168.62</ele>
  <time>2026-09-01T20:03:07Z</time>
  <course>347.12</course>
  <speed>0.03</speed>
  <fix>3d</fix>
</trkpt>
<trkpt lat="21.1682383" lon="-156.8870517">
  <ele>168.98</ele>
  <time>2026-09-01T20:03:07Z</time>
  <course>34.82</course>
  <speed>0.01</speed>
  <fix>3d</fix>
</trkpt>
<trkpt lat="21.1682381" lon="-156.8870515">
  <ele>168.5</ele>
  <time>2026-09-01T20:03:07Z</time>
  <course>347.14</course>
  <speed>0.03</speed>
  <fix>3d</fix>
</trkpt>
<trkpt lat="21.1682383" lon="-156.8870517">
  <ele>168.98</ele>
  <time>2026-09-01T20:03:07Z</time>
  <course>34.82</course>
  <speed>0.01</speed>
  <fix>3d</fix>
</trkpt>
<trkpt lat="21.1682381" lon="-156.8870515">
  <ele>168.39</ele>
  <time>2026-09-01T20:03:07Z</time>
  <course>347.17</course>
  <speed>0.03</speed>
  <fix>3d</fix>
</trkpt>
<trkpt lat="21.1682383" lon="-156.8870517">
  <ele>168.75</ele>
  <time>2026-09-01T20:03:07Z</time>
  <course>38.63</course>
  <speed>0.01</speed>
  <fix>3d</fix>
</trkpt>
<trkpt lat="21.1682381" lon="-156.8870515">
  <ele>168.27</ele>
  <time>2026-09-01T20:03:07Z</time>
  <course>347.19</course>
  <speed>0.03</speed>
  <fix>3d</fix>
</trkpt>
<trkpt lat="21.1682383" lon="-156.8870517">
  <ele>168.75</ele>
  <time>2026-09-01T20:03:07Z</time>
  <course>38.63</course>
  <speed>0.01</speed>
  <fix>3d</fix>
</trkpt>
<trkpt lat="21.1682381" lon="-156.8870515">
  <ele>168.15</ele>
  <time>2026-09-01T20:03:07Z</time>
  <course>347.2</course>
  <speed>0.03</speed>
  <fix>3d</fix>
</trkpt>
<trkpt lat="21.1682384" lon="-156.8870517">
  <ele>168.52</ele>
  <time>2026-09-01T20:03:07Z</time>
  <course>39.68</course>
  <speed>0.01</speed>
  <fix>3d</fix>
</trkpt>
<trkpt lat="21.1682381" lon="-156.8870514">
  <ele>168.04</ele>
  <time>2026-09-01T20:03:07Z</time>
  <course>347.2</course>
  <speed>0.03</speed>
  <fix>3d</fix>
</trkpt>
<trkpt lat="21.1682384" lon="-156.8870517">
  <ele>168.52</ele>
  <time>2026-09-01T20:03:07Z</time>
  <course>39.68</course>
  <speed>0.01</speed>
  <fix>3d</fix>
</trkpt>
<trkpt lat="21.1682382" lon="-156.8870514">
  <ele>167.92</ele>
  <time>2026-09-01T20:03:07Z</time>
  <course>347.19</course>
  <speed>0.03</speed>
  <fix>3d</fix>
</trkpt>
<trkpt lat="21.1682384" lon="-156.8870517">
  <ele>168.29</ele>
  <time>2026-09-01T20:03:07Z</time>
  <course>38.73</course>
  <speed>0.01</speed>
  <fix>3d</fix>
</trkpt>
<trkpt lat="21.1682382" lon="-156.8870514">
  <ele>167.81</ele>
  <time>2026-09-01T20:03:07Z</time>
  <course>347.17</course>
  <speed>0.03</speed>
  <fix>3d</fix>
</trkpt>
<trkpt lat="21.1682384" lon="-156.8870517">
  <ele>168.29</ele>
  <time>2026-09-01T20:03:07Z</time>
  <course>38.73</course>
  <speed>0.01</speed>
  <fix>3d</fix>
</trkpt>
<trkpt lat="21.1682382" lon="-156.8870514">
  <ele>167.69</ele>
  <time>2026-09-01T20:03:07Z</time>
  <course>347.15</course>
  <speed>0.03</speed>
  <fix>3d</fix>
</trkpt>
<trkpt lat="21.1682384" lon="-156.8870517">
  <ele>168.06</ele>
  <time>2026-09-01T20:03:07Z</time>
  <course>38.37</course>
  <speed>0.01</speed>
  <fix>3d</fix>
</trkpt>
<trkpt lat="21.1682382" lon="-156.8870514">
  <ele>167.58</ele>
  <time>2026-09-01T20:03:07Z</time>
  <course>347.15</course>
  <speed>0.03</speed>
  <fix>3d</fix>
</trkpt>
<trkpt lat="21.1682384" lon="-156.8870517">
  <ele>168.06</ele>
  <time>2026-09-01T20:03:07Z</time>
  <course>38.37</course>
  <speed>0.01</speed>
  <fix>3d</fix>
</trkpt>
<trkpt lat="21.1682382" lon="-156.8870514">
  <ele>167.46</ele>
  <time>2026-09-01T20:03:07Z</time>
  <course>347.15</course>
  <speed>0.03</speed>
  <fix>3d</fix>
</trkpt>
<trkpt lat="21.1682384" lon="-156.8870517">
  <ele>167.83</ele>
  <time>2026-09-01T20:03:07Z</time>
  <course>38.69</course>
  <speed>0.01</speed>
  <fix>3d</fix>
</trkpt>
<trkpt lat="21.1682382" lon="-156.8870514">
  <ele>167.35</ele>
  <time>2026-09-01T20:03:07Z</time>
  <course>347.16</course>
  <speed>0.02</speed>
  <fix>3d</fix>
</trkpt>
<trkpt lat="21.1682384" lon="-156.8870517">
  <ele>167.83</ele>
  <time>2026-09-01T20:03:07Z</time>
  <course>38.69</course>
  <speed>0.01</speed>
  <fix>3d</fix>
</trkpt>
<trkpt lat="21.1682382" lon="-156.8870514">
  <ele>167.23</ele>
  <time>2026-09-01T20:03:07Z</time>
  <course>347.18</course>
  <speed>0.022360679774997897</speed>
  <fix>3d</fix>
</trkpt>
<trkpt lat="21.1682384" lon="-156.8870517">
  <ele>167.6</ele>
  <time>2026-09-01T20:03:07Z</time>
  <course>38.77</course>
  <speed>0.01</speed>
  <fix>3d</fix>
</trkpt>
<trkpt lat="21.1682382" lon="-156.8870514">
  <ele>167.12</ele>
  <time>2026-09-01T20:03:07Z</time>
  <course>347.2</course>
  <speed>0.022360679774997897</speed>
  <fix>3d</fix>
</trkpt>
<trkpt lat="21.1682384" lon="-156.8870517">
  <ele>167.6</ele>
  <time>2026-09-01T20:03:07Z</time>
  <course>38.77</course>
  <speed>0.01</speed>
  <fix>3d</fix>
</trkpt>
<trkpt lat="21.1682382" lon="-156.8870514">
  <ele>167.0</ele>
  <time>2026-09-01T20:03:07Z</time>
  <course>347.23</course>
  <speed>0.022360679774997897</speed>
  <fix>3d</fix>
</trkpt>
<trkpt lat="21.1682384" lon="-156.8870516">
  <ele>167.37</ele>
  <time>2026-09-01T20:03:07Z</time>
  <course>37.99</course>
  <speed>0.01</speed>
  <fix>3d</fix>
</trkpt>
<trkpt lat="21.1682382" lon="-156.8870514">
  <ele>166.89</ele>
  <time>2026-09-01T20:03:07Z</time>
  <course>347.26</course>
  <speed>0.022360679774997897</speed>
  <fix>3d</fix>
</trkpt>
<trkpt lat="21.1682384" lon="-156.8870516">
  <ele>167.37</ele>
  <time>2026-09-01T20:03:07Z</time>
  <course>37.99</course>
  <speed>0.01</speed>
  <fix>3d</fix>
</trkpt>
<trkpt lat="21.1682382" lon="-156.8870514">
  <ele>166.77</ele>
  <time>2026-09-01T20:03:07Z</time>
  <course>347.3</course>
  <speed>0.022360679774997897</speed>
  <fix>3d</fix>
</trkpt>
<trkpt lat="21.1682384" lon="-156.8870516">
  <ele>167.14</ele>
  <time>2026-09-01T20:03:07Z</time>
  <course>37.48</course>
  <speed>0.0</speed>
  <fix>3d</fix>
</trkpt>
<trkpt lat="21.1682382" lon="-156.8870514">
  <ele>166.66</ele>
  <time>2026-09-01T20:03:07Z</time>
  <course>347.34</course>
  <speed>0.022360679774997897</speed>
  <fix>3d</fix>
</trkpt>
<trkpt lat="21.1682384" lon="-156.8870516">
  <ele>167.14</ele>
  <time>2026-09-01T20:03:07Z</time>
  <course>37.48</course>
  <speed>0.0</speed>
  <fix>3d</fix>
</trkpt>
<trkpt lat="21.1682382" lon="-156.8870514">
  <ele>166.54</ele>
  <time>2026-09-01T20:03:07Z</time>
  <course>347.37</course>
  <speed>0.022360679774997897</speed>
  <fix>3d</fix>
</trkpt>
<trkpt lat="21.1682384" lon="-156.8870516">
  <ele>166.9</ele>
  <time>2026-09-01T20:03:07Z</time>
  <course>32.42</course>
  <speed>0.0</speed>
  <fix>3d</fix>
</trkpt>
<trkpt lat="21.1682382" lon="-156.8870514">
  <ele>166.43</ele>
  <time>2026-09-01T20:03:07Z</time>
  <course>347.41</course>
  <speed>0.022360679774997897</speed>
  <fix>3d</fix>
</trkpt>
<trkpt lat="21.1682384" lon="-156.8870516">
  <ele>166.9</ele>
  <time>2026-09-01T20:03:07Z</time>
  <course>32.42</course>
  <speed>0.0</speed>
  <fix>3d</fix>
</trkpt>
<trkpt lat="21.1682382" lon="-156.8870514">
  <ele>166.31</ele>
  <time>2026-09-01T20:03:07Z</time>
  <course>347.44</course>
  <speed>0.01414213562373095</speed>
  <fix>3d</fix>
</trkpt>
<trkpt lat="21.1682384" lon="-156.8870516">
  <ele>166.67</ele>
  <time>2026-09-01T20:03:07Z</time>
  <course>1.42</course>
  <speed>0.0</speed>
  <fix>3d</fix>
</trkpt>
<trkpt lat="21.1682382" lon="-156.8870514">
  <ele>166.19</ele>
  <time>2026-09-01T20:03:07Z</time>
  <course>347.48</course>
  <speed>0.01414213562373095</speed>
  <fix>3d</fix>
</trkpt>
<trkpt lat="21.1682384" lon="-156.8870516">
  <ele>166.67</ele>
  <time>2026-09-01T20:03:07Z</time>
  <course>1.42</course>
  <speed>0.0</speed>
  <fix>3d</fix>
</trkpt>
<trkpt lat="21.1682382" lon="-156.8870515">
  <ele>166.08</ele>
  <time>2026-09-01T20:03:07Z</time>
  <course>347.53</course>
  <speed>0.022360679774997897</speed>
  <fix>3d</fix>
</trkpt>
<trkpt lat="21.1682384" lon="-156.8870516">
  <ele>166.45</ele>
  <time>2026-09-01T20:03:07Z</time>
  <course>291.42</course>
  <speed>0.0</speed>
  <fix>3d</fix>
</trkpt>
<trkpt lat="21.1682382" lon="-156.8870515">
  <ele>165.96</ele>
  <time>2026-09-01T20:03:07Z</time>
  <course>347.6</course>
  <speed>0.02</speed>
  <fix>3d</fix>
</trkpt>
<trkpt lat="21.1682384" lon="-156.8870516">
  <ele>166.45</ele>
  <time>2026-09-01T20:03:07Z</time>
  <course>291.42</course>
  <speed>0.0</speed>
  <fix>3d</fix>
</trkpt>
<trkpt lat="21.1682382" lon="-156.8870515">
  <ele>165.85</ele>
  <time>2026-09-01T20:03:07Z</time>
  <course>347.64</course>
  <speed>0.02</speed>
  <fix>3d</fix>
</trkpt>
<trkpt lat="21.1682384" lon="-156.8870516">
  <ele>166.22</ele>
  <time>2026-09-01T20:03:07Z</time>
  <course>267.28</course>
  <speed>0.01</speed>
  <fix>3d</fix>
</trkpt>
<trkpt lat="21.1682382" lon="-156.8870515">
  <ele>165.73</ele>
  <time>2026-09-01T20:03:07Z</time>
  <course>347.62</course>
  <speed>0.02</speed>
  <fix>3d</fix>
</trkpt>
<trkpt lat="21.1682384" lon="-156.8870516">
  <ele>166.22</ele>
  <time>2026-09-01T20:03:07Z</time>
  <course>267.28</course>
  <speed>0.01</speed>
  <fix>3d</fix>
</trkpt>
<trkpt lat="21.1682382" lon="-156.8870515">
  <ele>165.62</ele>
  <time>2026-09-01T20:03:07Z</time>
  <course>347.56</course>
  <speed>0.02</speed>
  <fix>3d</fix>
</trkpt>
<trkpt lat="21.1682384" lon="-156.8870517">
  <ele>165.99</ele>
  <time>2026-09-01T20:03:07Z</time>
  <course>262.69</course>
  <speed>0.01</speed>
  <fix>3d</fix>
</trkpt>
<trkpt lat="21.1682382" lon="-156.8870515">
  <ele>165.51</ele>
  <time>2026-09-01T20:03:07Z</time>
  <course>347.5</course>
  <speed>0.02</speed>
  <fix>3d</fix>
</trkpt>
<trkpt lat="21.1682384" lon="-156.8870517">
  <ele>165.99</ele>
  <time>2026-09-01T20:03:07Z</time>
  <course>262.69</course>
  <speed>0.01</speed>
  <fix>3d</fix>
</trkpt>
<trkpt lat="21.1682382" lon="-156.8870515">
  <ele>165.39</ele>
  <time>2026-09-01T20:03:07Z</time>
  <course>347.44</course>
  <speed>0.02</speed>
  <fix>3d</fix>
</trkpt>
<trkpt lat="21.1682384" lon="-156.8870517">
  <ele>165.76</ele>
  <time>2026-09-01T20:03:07Z</time>
  <course>261.23</course>
  <speed>0.01</speed>
  <fix>3d</fix>
</trkpt>
<trkpt lat="21.1682382" lon="-156.8870515">
  <ele>165.28</ele>
  <time>2026-09-01T20:03:07Z</time>
  <course>347.39</course>
  <speed>0.02</speed>
  <fix>3d</fix>
</trkpt>
<trkpt lat="21.1682384" lon="-156.8870517">
  <ele>165.76</ele>
  <time>2026-09-01T20:03:07Z</time>
  <course>261.23</course>
  <speed>0.01</speed>
  <fix>3d</fix>
</trkpt>
<trkpt lat="21.1682382" lon="-156.8870515">
  <ele>165.16</ele>
  <time>2026-09-01T20:03:07Z</time>
  <course>347.35</course>
  <speed>0.02</speed>
  <fix>3d</fix>
</trkpt>
<trkpt lat="21.1682384" lon="-156.8870517">
  <ele>165.53</ele>
  <time>2026-09-01T20:03:07Z</time>
  <course>259.65</course>
  <speed>0.01</speed>
  <fix>3d</fix>
</trkpt>
<trkpt lat="21.1682382" lon="-156.8870515">
  <ele>165.05</ele>
  <time>2026-09-01T20:03:07Z</time>
  <course>347.34</course>
  <speed>0.02</speed>
  <fix>3d</fix>
</trkpt>
<trkpt lat="21.1682384" lon="-156.8870517">
  <ele>165.53</ele>
  <time>2026-09-01T20:03:07Z</time>
  <course>259.65</course>
  <speed>0.01</speed>
  <fix>3d</fix>
</trkpt>
<trkpt lat="21.1682382" lon="-156.8870515">
  <ele>164.93</ele>
  <time>2026-09-01T20:03:07Z</time>
  <course>347.35</course>
  <speed>0.02</speed>
  <fix>3d</fix>
</trkpt>
<trkpt lat="21.1682384" lon="-156.8870517">
  <ele>165.3</ele>
  <time>2026-09-01T20:03:07Z</time>
  <course>258.14</course>
  <speed>0.01</speed>
  <fix>3d</fix>
</trkpt>
<trkpt lat="21.1682382" lon="-156.8870515">
  <ele>164.82</ele>
  <time>2026-09-01T20:03:07Z</time>
  <course>347.37</course>
  <speed>0.02</speed>
  <fix>3d</fix>
</trkpt>
<trkpt lat="21.1682384" lon="-156.8870517">
  <ele>165.3</ele>
  <time>2026-09-01T20:03:07Z</time>
  <course>258.14</course>
  <speed>0.01</speed>
  <fix>3d</fix>
</trkpt>
<trkpt lat="21.1682382" lon="-156.8870515">
  <ele>164.7</ele>
  <time>2026-09-01T20:03:07Z</time>
  <course>347.4</course>
  <speed>0.02</speed>
  <fix>3d</fix>
</trkpt>
<trkpt lat="21.1682384" lon="-156.8870517">
  <ele>165.07</ele>
  <time>2026-09-01T20:03:07Z</time>
  <course>257.68</course>
  <speed>0.01</speed>
  <fix>3d</fix>
</trkpt>
<trkpt lat="21.1682382" lon="-156.8870515">
  <ele>164.59</ele>
  <time>2026-09-01T20:03:07Z</time>
  <course>347.44</course>
  <speed>0.022360679774997897</speed>
  <fix>3d</fix>
</trkpt>
<trkpt lat="21.1682384" lon="-156.8870517">
  <ele>165.07</ele>
  <time>2026-09-01T20:03:07Z</time>
  <course>257.68</course>
  <speed>0.01</speed>
  <fix>3d</fix>
</trkpt>
<trkpt lat="21.1682382" lon="-156.8870515">
  <ele>164.48</ele>
  <time>2026-09-01T20:03:07Z</time>
  <course>347.47</course>
  <speed>0.02</speed>
  <fix>3d</fix>
</trkpt>
<trkpt lat="21.1682384" lon="-156.8870517">
  <ele>164.84</ele>
  <time>2026-09-01T20:03:07Z</time>
  <course>256.6</course>
  <speed>0.01</speed>
  <fix>3d</fix>
</trkpt>
<trkpt lat="21.1682382" lon="-156.8870515">
  <ele>164.36</ele>
  <time>2026-09-01T20:03:07Z</time>
  <course>347.49</course>
  <speed>0.022360679774997897</speed>
  <fix>3d</fix>
</trkpt>
<trkpt lat="21.1682384" lon="-156.8870517">
  <ele>164.84</ele>
  <time>2026-09-01T20:03:07Z</time>
  <course>256.6</course>
  <speed>0.01</speed>
  <fix>3d</fix>
</trkpt>
<trkpt lat="21.1682382" lon="-156.8870516">
  <ele>164.25</ele>
  <time>2026-09-01T20:03:07Z</time>
  <course>347.5</course>
  <speed>0.022360679774997897</speed>
  <fix>3d</fix>
</trkpt>
<trkpt lat="21.1682384" lon="-156.8870517">
  <ele>164.61</ele>
  <time>2026-09-01T20:03:07Z</time>
  <course>255.12</course>
  <speed>0.01</speed>
  <fix>3d</fix>
</trkpt>
<trkpt lat="21.1682382" lon="-156.8870516">
  <ele>164.13</ele>
  <time>2026-09-01T20:03:07Z</time>
  <course>347.51</course>
  <speed>0.022360679774997897</speed>
  <fix>3d</fix>
</trkpt>
<trkpt lat="21.1682384" lon="-156.8870517">
  <ele>164.61</ele>
  <time>2026-09-01T20:03:07Z</time>
  <course>255.12</course>
  <speed>0.01</speed>
  <fix>3d</fix>
</trkpt>
<trkpt lat="21.1682382" lon="-156.8870516">
  <ele>164.01</ele>
  <time>2026-09-01T20:03:07Z</time>
  <course>347.52</course>
  <speed>0.022360679774997897</speed>
  <fix>3d</fix>
</trkpt>
<trkpt lat="21.1682384" lon="-156.8870518">
  <ele>164.38</ele>
  <time>2026-09-01T20:03:07Z</time>
  <course>254.47</course>
  <speed>0.01</speed>
  <fix>3d</fix>
</trkpt>
<trkpt lat="21.1682382" lon="-156.8870516">
  <ele>163.9</ele>
  <time>2026-09-01T20:03:07Z</time>
  <course>347.54</course>
  <speed>0.022360679774997897</speed>
  <fix>3d</fix>
</trkpt>
<trkpt lat="21.1682384" lon="-156.8870518">
  <ele>164.38</ele>
  <time>2026-09-01T20:03:07Z</time>
  <course>254.47</course>
  <speed>0.01</speed>
  <fix>3d</fix>
</trkpt>
<trkpt lat="21.1682382" lon="-156.8870516">
  <ele>163.78</ele>
  <time>2026-09-01T20:03:07Z</time>
  <course>347.55</course>
  <speed>0.022360679774997897</speed>
  <fix>3d</fix>
</trkpt>
<trkpt lat="21.1682384" lon="-156.8870518">
  <ele>164.15</ele>
  <time>2026-09-01T20:03:07Z</time>
  <course>254.76</course>
  <speed>0.01</speed>
  <fix>3d</fix>
</trkpt>
<trkpt lat="21.1682382" lon="-156.8870516">
  <ele>163.67</ele>
  <time>2026-09-01T20:03:07Z</time>
  <course>347.56</course>
  <speed>0.022360679774997897</speed>
  <fix>3d</fix>
</trkpt>
<trkpt lat="21.1682384" lon="-156.8870518">
  <ele>164.15</ele>
  <time>2026-09-01T20:03:07Z</time>
  <course>254.76</course>
  <speed>0.01</speed>
  <fix>3d</fix>
</trkpt>
<trkpt lat="21.1682382" lon="-156.8870516">
  <ele>163.55</ele>
  <time>2026-09-01T20:03:07Z</time>
  <course>347.57</course>
  <speed>0.022360679774997897</speed>
  <fix>3d</fix>
</trkpt>
<trkpt lat="21.1682384" lon="-156.8870518">
  <ele>163.92</ele>
  <time>2026-09-01T20:03:07Z</time>
  <course>255.62</course>
  <speed>0.01</speed>
  <fix>3d</fix>
</trkpt>
<trkpt lat="21.1682382" lon="-156.8870516">
  <ele>163.44</ele>
  <time>2026-09-01T20:03:07Z</time>
  <course>347.58</course>
  <speed>0.022360679774997897</speed>
  <fix>3d</fix>
</trkpt>
<trkpt lat="21.1682384" lon="-156.8870518">
  <ele>163.92</ele>
  <time>2026-09-01T20:03:07Z</time>
  <course>255.62</course>
  <speed>0.01</speed>
  <fix>3d</fix>
</trkpt>
<trkpt lat="21.1682382" lon="-156.8870516">
  <ele>163.32</ele>
  <time>2026-09-01T20:03:07Z</time>
  <course>347.58</course>
  <speed>0.022360679774997897</speed>
  <fix>3d</fix>
</trkpt>
<trkpt lat="21.1682384" lon="-156.8870519">
  <ele>163.69</ele>
  <time>2026-09-01T20:03:07Z</time>
  <course>255.5</course>
  <speed>0.01</speed>
  <fix>3d</fix>
</trkpt>
<trkpt lat="21.1682382" lon="-156.8870516">
  <ele>163.21</ele>
  <time>2026-09-01T20:03:07Z</time>
  <course>347.58</course>
  <speed>0.022360679774997897</speed>
  <fix>3d</fix>
</trkpt>
<trkpt lat="21.1682384" lon="-156.8870519">
  <ele>163.69</ele>
  <time>2026-09-01T20:03:07Z</time>
  <course>255.5</course>
  <speed>0.01</speed>
  <fix>3d</fix>
</trkpt>
<trkpt lat="21.1682382" lon="-156.8870516">
  <ele>163.1</ele>
  <time>2026-09-01T20:03:07Z</time>
  <course>347.58</course>
  <speed>0.022360679774997897</speed>
  <fix>3d</fix>
</trkpt>
<trkpt lat="21.1682384" lon="-156.8870519">
  <ele>163.46</ele>
  <time>2026-09-01T20:03:07Z</time>
  <course>254.51</course>
  <speed>0.01</speed>
  <fix>3d</fix>
</trkpt>
<trkpt lat="21.1682382" lon="-156.8870516">
  <ele>162.98</ele>
  <time>2026-09-01T20:03:07Z</time>
  <course>347.58</course>
  <speed>0.022360679774997897</speed>
  <fix>3d</fix>
</trkpt>
<trkpt lat="21.1682384" lon="-156.8870519">
  <ele>163.46</ele>
  <time>2026-09-01T20:03:07Z</time>
  <course>254.51</course>
  <speed>0.01</speed>
  <fix>3d</fix>
</trkpt>
<trkpt lat="21.1682382" lon="-156.8870516">
  <ele>162.87</ele>
  <time>2026-09-01T20:03:07Z</time>
  <course>347.59</course>
  <speed>0.022360679774997897</speed>
  <fix>3d</fix>
</trkpt>
<trkpt lat="21.1682384" lon="-156.8870519">
  <ele>163.23</ele>
  <time>2026-09-01T20:03:07Z</time>
  <course>252.71</course>
  <speed>0.01</speed>
  <fix>3d</fix>
</trkpt>
<trkpt lat="21.1682382" lon="-156.8870517">
  <ele>162.76</ele>
  <time>2026-09-01T20:03:07Z</time>
  <course>347.6</course>
  <speed>0.022360679774997897</speed>
  <fix>3d</fix>
</trkpt>
<trkpt lat="21.1682384" lon="-156.8870519">
  <ele>163.23</ele>
  <time>2026-09-01T20:03:07Z</time>
  <course>252.71</course>
  <speed>0.01</speed>
  <fix>3d</fix>
</trkpt>
<trkpt lat="21.1682382" lon="-156.8870517">
  <ele>162.64</ele>
  <time>2026-09-01T20:03:07Z</time>
  <course>347.63</course>
  <speed>0.022360679774997897</speed>
  <fix>3d</fix>
</trkpt>
<trkpt lat="21.1682384" lon="-156.8870519">
  <ele>163.0</ele>
  <time>2026-09-01T20:03:07Z</time>
  <course>249.98</course>
  <speed>0.01</speed>
  <fix>3d</fix>
</trkpt>
<trkpt lat="21.1682382" lon="-156.8870517">
  <ele>162.53</ele>
  <time>2026-09-01T20:03:07Z</time>
  <course>347.66</course>
  <speed>0.022360679774997897</speed>
  <fix>3d</fix>
</trkpt>
<trkpt lat="21.1682384" lon="-156.8870519">
  <ele>163.0</ele>
  <time>2026-09-01T20:03:07Z</time>
  <course>249.98</course>
  <speed>0.01</speed>
  <fix>3d</fix>
</trkpt>
<trkpt lat="21.1682382" lon="-156.8870517">
  <ele>162.42</ele>
  <time>2026-09-01T20:03:07Z</time>
  <course>347.67</course>
  <speed>0.022360679774997897</speed>
  <fix>3d</fix>
</trkpt>
<trkpt lat="21.1682384" lon="-156.8870519">
  <ele>162.77</ele>
  <time>2026-09-01T20:03:07Z</time>
  <course>247.4</course>
  <speed>0.02</speed>
  <fix>3d</fix>
</trkpt>
<trkpt lat="21.1682382" lon="-156.8870517">
  <ele>162.3</ele>
  <time>2026-09-01T20:03:07Z</time>
  <course>347.67</course>
  <speed>0.022360679774997897</speed>
  <fix>3d</fix>
</trkpt>
<trkpt lat="21.1682384" lon="-156.8870519">
  <ele>162.77</ele>
  <time>2026-09-01T20:03:07Z</time>
  <course>247.4</course>
  <speed>0.02</speed>
  <fix>3d</fix>
</trkpt>
<trkpt lat="21.1682382" lon="-156.8870517">
  <ele>162.19</ele>
  <time>2026-09-01T20:03:07Z</time>
  <course>347.67</course>
  <speed>0.022360679774997897</speed>
  <fix>3d</fix>
</trkpt>
<trkpt lat="21.1682384" lon="-156.887052">
  <ele>162.54</ele>
  <time>2026-09-01T20:03:07Z</time>
  <course>245.92</course>
  <speed>0.02</speed>
  <fix>3d</fix>
</trkpt>
<trkpt lat="21.1682382" lon="-156.8870517">
  <ele>162.07</ele>
  <time>2026-09-01T20:03:07Z</time>
  <course>347.67</course>
  <speed>0.022360679774997897</speed>
  <fix>3d</fix>
</trkpt>
<trkpt lat="21.1682384" lon="-156.887052">
  <ele>162.54</ele>
  <time>2026-09-01T20:03:07Z</time>
  <course>245.92</course>
  <speed>0.02</speed>
  <fix>3d</fix>
</trkpt>
<trkpt lat="21.1682382" lon="-156.8870517">
  <ele>161.95</ele>
  <time>2026-09-01T20:03:07Z</time>
  <course>347.67</course>
  <speed>0.022360679774997897</speed>
  <fix>3d</fix>
</trkpt>
<trkpt lat="21.1682384" lon="-156.8870521">
  <ele>162.31</ele>
  <time>2026-09-01T20:03:07Z</time>
  <course>245.77</course>
  <speed>0.02</speed>
  <fix>3d</fix>
</trkpt>
<trkpt lat="21.1682382" lon="-156.8870518">
  <ele>161.83</ele>
  <time>2026-09-01T20:03:07Z</time>
  <course>347.67</course>
  <speed>0.022360679774997897</speed>
  <fix>3d</fix>
</trkpt>
<trkpt lat="21.1682384" lon="-156.8870521">
  <ele>162.31</ele>
  <time>2026-09-01T20:03:07Z</time>
  <course>245.77</course>
  <speed>0.02</speed>
  <fix>3d</fix>
</trkpt>
<trkpt lat="21.1682382" lon="-156.8870518">
  <ele>161.72</ele>
  <time>2026-09-01T20:03:07Z</time>
  <course>347.69</course>
  <speed>0.022360679774997897</speed>
  <fix>3d</fix>
</trkpt>
<trkpt lat="21.1682384" lon="-156.8870521">
  <ele>162.07</ele>
  <time>2026-09-01T20:03:07Z</time>
  <course>245.84</course>
  <speed>0.02</speed>
  <fix>3d</fix>
</trkpt>
<trkpt lat="21.1682382" lon="-156.8870518">
  <ele>161.6</ele>
  <time>2026-09-01T20:03:07Z</time>
  <course>347.71</course>
  <speed>0.022360679774997897</speed>
  <fix>3d</fix>
</trkpt>
<trkpt lat="21.1682384" lon="-156.8870521">
  <ele>162.07</ele>
  <time>2026-09-01T20:03:07Z</time>
  <course>245.84</course>
  <speed>0.02</speed>
  <fix>3d</fix>
</trkpt>
<trkpt lat="21.1682382" lon="-156.8870518">
  <ele>161.48</ele>
  <time>2026-09-01T20:03:07Z</time>
  <course>347.73</course>
  <speed>0.022360679774997897</speed>
  <fix>3d</fix>
</trkpt>
<trkpt lat="21.1682384" lon="-156.8870522">
  <ele>161.84</ele>
  <time>2026-09-01T20:03:07Z</time>
  <course>245.47</course>
  <speed>0.02</speed>
  <fix>3d</fix>
</trkpt>
<trkpt lat="21.1682382" lon="-156.8870519">
  <ele>161.37</ele>
  <time>2026-09-01T20:03:07Z</time>
  <course>347.75</course>
  <speed>0.022360679774997897</speed>
  <fix>3d</fix>
</trkpt>
<trkpt lat="21.1682384" lon="-156.8870522">
  <ele>161.84</ele>
  <time>2026-09-01T20:03:07Z</time>
  <course>245.47</course>
  <speed>0.02</speed>
  <fix>3d</fix>
</trkpt>
<trkpt lat="21.1682382" lon="-156.8870519">
  <ele>161.25</ele>
  <time>2026-09-01T20:03:07Z</time>
  <course>347.78</course>
  <speed>0.022360679774997897</speed>
  <fix>3d</fix>
</trkpt>
<trkpt lat="21.1682384" lon="-156.8870522">
  <ele>161.61</ele>
  <time>2026-09-01T20:03:07Z</time>
  <course>245.52</course>
  <speed>0.02</speed>
  <fix>3d</fix>
</trkpt>
<trkpt lat="21.1682382" lon="-156.8870519">
  <ele>161.13</ele>
  <time>2026-09-01T20:03:07Z</time>
  <course>347.8</course>
  <speed>0.022360679774997897</speed>
  <fix>3d</fix>
</trkpt>
<trkpt lat="21.1682384" lon="-156.8870522">
  <ele>161.61</ele>
  <time>2026-09-01T20:03:07Z</time>
  <course>245.52</course>
  <speed>0.02</speed>
  <fix>3d</fix>
</trkpt>
<trkpt lat="21.1682382" lon="-156.8870519">
  <ele>161.02</ele>
  <time>2026-09-01T20:03:07Z</time>
  <course>347.82</course>
  <speed>0.022360679774997897</speed>
  <fix>3d</fix>
</trkpt>
<trkpt lat="21.1682384" lon="-156.8870522">
  <ele>161.38</ele>
  <time>2026-09-01T20:03:07Z</time>
  <course>245.72</course>
  <speed>0.02</speed>
  <fix>3d</fix>
</trkpt>
<trkpt lat="21.1682382" lon="-156.8870519">
  <ele>160.9</ele>
  <time>2026-09-01T20:03:07Z</time>
  <course>347.85</course>
  <speed>0.022360679774997897</speed>
  <fix>3d</fix>
</trkpt>
<trkpt lat="21.1682384" lon="-156.8870522">
  <ele>161.38</ele>
  <time>2026-09-01T20:03:07Z</time>
  <course>245.72</course>
  <speed>0.02</speed>
  <fix>3d</fix>
</trkpt>
<trkpt lat="21.1682382" lon="-156.8870519">
  <ele>160.79</ele>
  <time>2026-09-01T20:03:07Z</time>
  <course>347.89</course>
  <speed>0.02</speed>
  <fix>3d</fix>
</trkpt>
<trkpt lat="21.1682384" lon="-156.8870523">
  <ele>161.15</ele>
  <time>2026-09-01T20:03:07Z</time>
  <course>245.45</course>
  <speed>0.02</speed>
  <fix>3d</fix>
</trkpt>
<trkpt lat="21.1682382" lon="-156.887052">
  <ele>160.67</ele>
  <time>2026-09-01T20:03:07Z</time>
  <course>347.93</course>
  <speed>0.02</speed>
  <fix>3d</fix>
</trkpt>
<trkpt lat="21.1682384" lon="-156.8870523">
  <ele>161.15</ele>
  <time>2026-09-01T20:03:07Z</time>
  <course>245.45</course>
  <speed>0.02</speed>
  <fix>3d</fix>
</trkpt>
<trkpt lat="21.1682382" lon="-156.887052">
  <ele>160.55</ele>
  <time>2026-09-01T20:03:07Z</time>
  <course>347.95</course>
  <speed>0.02</speed>
  <fix>3d</fix>
</trkpt>
<trkpt lat="21.1682384" lon="-156.8870523">
  <ele>160.92</ele>
  <time>2026-09-01T20:03:07Z</time>
  <course>245.62</course>
  <speed>0.02</speed>
  <fix>3d</fix>
</trkpt>
<trkpt lat="21.1682382" lon="-156.887052">
  <ele>160.44</ele>
  <time>2026-09-01T20:03:07Z</time>
  <course>347.97</course>
  <speed>0.02</speed>
  <fix>3d</fix>
</trkpt>
<trkpt lat="21.1682384" lon="-156.8870523">
  <ele>160.92</ele>
  <time>2026-09-01T20:03:07Z</time>
  <course>245.62</course>
  <speed>0.02</speed>
  <fix>3d</fix>
</trkpt>
<trkpt lat="21.1682382" lon="-156.887052">
  <ele>160.32</ele>
  <time>2026-09-01T20:03:07Z</time>
  <course>347.98</course>
  <speed>0.02</speed>
  <fix>3d</fix>
</trkpt>
<trkpt lat="21.1682384" lon="-156.8870523">
  <ele>160.69</ele>
  <time>2026-09-01T20:03:07Z</time>
  <course>246.1</course>
  <speed>0.02</speed>
  <fix>3d</fix>
</trkpt>
<trkpt lat="21.1682382" lon="-156.8870521">
  <ele>160.21</ele>
  <time>2026-09-01T20:03:07Z</time>
  <course>348.0</course>
  <speed>0.02</speed>
  <fix>3d</fix>
</trkpt>
<trkpt lat="21.1682384" lon="-156.8870523">
  <ele>160.69</ele>
  <time>2026-09-01T20:03:07Z</time>
  <course>246.1</course>
  <speed>0.02</speed>
  <fix>3d</fix>
</trkpt>
<trkpt lat="21.1682382" lon="-156.8870521">
  <ele>160.09</ele>
  <time>2026-09-01T20:03:07Z</time>
  <course>348.03</course>
  <speed>0.02</speed>
  <fix>3d</fix>
</trkpt>
<trkpt lat="21.1682383" lon="-156.8870524">
  <ele>160.46</ele>
  <time>2026-09-01T20:03:07Z</time>
  <course>246.25</course>
  <speed>0.02</speed>
  <fix>3d</fix>
</trkpt>
<trkpt lat="21.1682382" lon="-156.8870521">
  <ele>159.98</ele>
  <time>2026-09-01T20:03:07Z</time>
  <course>348.05</course>
  <speed>0.02</speed>
  <fix>3d</fix>
</trkpt>
<trkpt lat="21.1682383" lon="-156.8870524">
  <ele>160.46</ele>
  <time>2026-09-01T20:03:07Z</time>
  <course>246.25</course>
  <speed>0.02</speed>
  <fix>3d</fix>
</trkpt>
<trkpt lat="21.1682382" lon="-156.8870521">
  <ele>159.87</ele>
  <time>2026-09-01T20:03:07Z</time>
  <course>348.04</course>
  <speed>0.022360679774997897</speed>
  <fix>3d</fix>
</trkpt>
<trkpt lat="21.1682383" lon="-156.8870524">
  <ele>160.24</ele>
  <time>2026-09-01T20:03:07Z</time>
  <course>245.0</course>
  <speed>0.02</speed>
  <fix>3d</fix>
</trkpt>
<trkpt lat="21.1682382" lon="-156.8870521">
  <ele>159.75</ele>
  <time>2026-09-01T20:03:07Z</time>
  <course>347.99</course>
  <speed>0.022360679774997897</speed>
  <fix>3d</fix>
</trkpt>
<trkpt lat="21.1682383" lon="-156.8870524">
  <ele>160.24</ele>
  <time>2026-09-01T20:03:07Z</time>
  <course>245.0</course>
  <speed>0.02</speed>
  <fix>3d</fix>
</trkpt>
<trkpt lat="21.1682382" lon="-156.8870522">
  <ele>159.64</ele>
  <time>2026-09-01T20:03:07Z</time>
  <course>347.89</course>
  <speed>0.0282842712474619</speed>
  <fix>3d</fix>
</trkpt>
<trkpt lat="21.1682383" lon="-156.8870524">
  <ele>160.01</ele>
  <time>2026-09-01T20:03:07Z</time>
  <course>239.63</course>
  <speed>0.02</speed>
  <fix>3d</fix>
</trkpt>
<trkpt lat="21.1682382" lon="-156.8870522">
  <ele>159.52</ele>
  <time>2026-09-01T20:03:07Z</time>
  <course>347.74</course>
  <speed>0.022360679774997897</speed>
  <fix>3d</fix>
</trkpt>
<trkpt lat="21.1682383" lon="-156.8870524">
  <ele>160.01</ele>
  <time>2026-09-01T20:03:07Z</time>
  <course>239.63</course>
  <speed>0.02</speed>
  <fix>3d</fix>
</trkpt>
<trkpt lat="21.1682382" lon="-156.8870522">
  <ele>159.41</ele>
  <time>2026-09-01T20:03:07Z</time>
  <course>347.55</course>
  <speed>0.0316227766016838</speed>
  <fix>3d</fix>
</trkpt>
<trkpt lat="21.1682383" lon="-156.8870525">
  <ele>159.78</ele>
  <time>2026-09-01T20:03:07Z</time>
  <course>218.8</course>
  <speed>0.01</speed>
  <fix>3d</fix>
</trkpt>
<trkpt lat="21.1682382" lon="-156.8870521">
  <ele>159.3</ele>
  <time>2026-09-01T20:03:08Z</time>
  <course>347.36</course>
  <speed>0.0412310562561766</speed>
  <fix>3d</fix>
</trkpt>
<trkpt lat="21.1682383" lon="-156.8870525">
  <ele>159.78</ele>
  <time>2026-09-01T20:03:08Z</time>
  <course>218.8</course>
  <speed>0.01</speed>
  <fix>3d</fix>
</trkpt>
<trkpt lat="21.1682382" lon="-156.8870521">
  <ele>159.19</ele>
  <time>2026-09-01T20:03:08Z</time>
  <course>347.17</course>
  <speed>0.05099019513592785</speed>
  <fix>3d</fix>
</trkpt>
<trkpt lat="21.1682383" lon="-156.8870525">
  <ele>159.56</ele>
  <time>2026-09-01T20:03:08Z</time>
  <course>133.74</course>
  <speed>0.01</speed>
  <fix>3d</fix>
</trkpt>
<trkpt lat="21.1682382" lon="-156.8870522">
  <ele>159.08</ele>
  <time>2026-09-01T20:03:08Z</time>
  <course>347.02</course>
  <speed>0.06082762530298219</speed>
  <fix>3d</fix>
</trkpt>
<trkpt lat="21.1682383" lon="-156.8870525">
  <ele>159.56</ele>
  <time>2026-09-01T20:03:08Z</time>
  <course>133.74</course>
  <speed>0.01</speed>
  <fix>3d</fix>
</trkpt>
<trkpt lat="21.1682382" lon="-156.8870522">
  <ele>158.97</ele>
  <time>2026-09-01T20:03:08Z</time>
  <course>346.92</course>
  <speed>0.07071067811865475</speed>
  <fix>3d</fix>
</trkpt>
<trkpt lat="21.1682383" lon="-156.8870524">
  <ele>159.33</ele>
  <time>2026-09-01T20:03:08Z</time>
  <course>100.52</course>
  <speed>0.02</speed>
  <fix>3d</fix>
</trkpt>
<trkpt lat="21.1682382" lon="-156.8870521">
  <ele>158.85</ele>
  <time>2026-09-01T20:03:08Z</time>
  <course>346.86</course>
  <speed>0.07071067811865475</speed>
  <fix>3d</fix>
</trkpt>
<trkpt lat="21.1682383" lon="-156.8870524">
  <ele>159.33</ele>
  <time>2026-09-01T20:03:08Z</time>
  <course>100.52</course>
  <speed>0.02</speed>
  <fix>3d</fix>
</trkpt>
<trkpt lat="21.1682382" lon="-156.8870521">
  <ele>158.74</ele>
  <time>2026-09-01T20:03:08Z</time>
  <course>346.84</course>
  <speed>0.08</speed>
  <fix>3d</fix>
</trkpt>
<trkpt lat="21.1682383" lon="-156.8870524">
  <ele>159.1</ele>
  <time>2026-09-01T20:03:08Z</time>
  <course>92.33</course>
  <speed>0.04</speed>
  <fix>3d</fix>
</trkpt>
<trkpt lat="21.1682382" lon="-156.887052">
  <ele>158.63</ele>
  <time>2026-09-01T20:03:08Z</time>
  <course>346.86</course>
  <speed>0.09</speed>
  <fix>3d</fix>
</trkpt>
<trkpt lat="21.1682383" lon="-156.8870524">
  <ele>159.1</ele>
  <time>2026-09-01T20:03:08Z</time>
  <course>92.33</course>
  <speed>0.04</speed>
  <fix>3d</fix>
</trkpt>
<trkpt lat="21.1682382" lon="-156.887052">
  <ele>158.51</ele>
  <time>2026-09-01T20:03:08Z</time>
  <course>346.9</course>
  <speed>0.09</speed>
  <fix>3d</fix>
</trkpt>
<trkpt lat="21.1682383" lon="-156.8870524">
  <ele>158.87</ele>
  <time>2026-09-01T20:03:08Z</time>
  <course>89.02</course>
  <speed>0.05</speed>
  <fix>3d</fix>
</trkpt>
<trkpt lat="21.1682382" lon="-156.8870519">
  <ele>158.4</ele>
  <time>2026-09-01T20:03:08Z</time>
  <course>346.94</course>
  <speed>0.1</speed>
  <fix>3d</fix>
</trkpt>
<trkpt lat="21.1682383" lon="-156.8870524">
  <ele>158.87</ele>
  <time>2026-09-01T20:03:08Z</time>
  <course>89.02</course>
  <speed>0.05</speed>
  <fix>3d</fix>
</trkpt>
<trkpt lat="21.1682382" lon="-156.8870518">
  <ele>158.28</ele>
  <time>2026-09-01T20:03:08Z</time>
  <course>346.98</course>
  <speed>0.1</speed>
  <fix>3d</fix>
</trkpt>
<trkpt lat="21.1682383" lon="-156.8870523">
  <ele>158.64</ele>
  <time>2026-09-01T20:03:08Z</time>
  <course>87.4</course>
  <speed>0.06</speed>
  <fix>3d</fix>
</trkpt>
<trkpt lat="21.1682382" lon="-156.8870518">
  <ele>158.17</ele>
  <time>2026-09-01T20:03:08Z</time>
  <course>347.03</course>
  <speed>0.1</speed>
  <fix>3d</fix>
</trkpt>
<trkpt lat="21.1682383" lon="-156.8870523">
  <ele>158.64</ele>
  <time>2026-09-01T20:03:08Z</time>
  <course>87.4</course>
  <speed>0.06</speed>
  <fix>3d</fix>
</trkpt>
<trkpt lat="21.1682382" lon="-156.8870517">
  <ele>158.05</ele>
  <time>2026-09-01T20:03:08Z</time>
  <course>347.05</course>
  <speed>0.1</speed>
  <fix>3d</fix>
</trkpt>
<trkpt lat="21.1682383" lon="-156.8870522">
  <ele>158.41</ele>
  <time>2026-09-01T20:03:08Z</time>
  <course>86.36</course>
  <speed>0.07</speed>
  <fix>3d</fix>
</trkpt>
<trkpt lat="21.1682382" lon="-156.8870516">
  <ele>157.94</ele>
  <time>2026-09-01T20:03:08Z</time>
  <course>347.06</course>
  <speed>0.11</speed>
  <fix>3d</fix>
</trkpt>
<trkpt lat="21.1682383" lon="-156.8870522">
  <ele>158.41</ele>
  <time>2026-09-01T20:03:08Z</time>
  <course>86.36</course>
  <speed>0.07</speed>
  <fix>3d</fix>
</trkpt>
<trkpt lat="21.1682382" lon="-156.8870516">
  <ele>157.82</ele>
  <time>2026-09-01T20:03:08Z</time>
  <course>347.06</course>
  <speed>0.11</speed>
  <fix>3d</fix>
</trkpt>
<trkpt lat="21.1682383" lon="-156.887052">
  <ele>158.17</ele>
  <time>2026-09-01T20:03:08Z</time>
  <course>85.47</course>
  <speed>0.08</speed>
  <fix>3d</fix>
</trkpt>
<trkpt lat="21.1682382" lon="-156.8870515">
  <ele>157.7</ele>
  <time>2026-09-01T20:03:08Z</time>
  <course>347.05</course>
  <speed>0.11</speed>
  <fix>3d</fix>
</trkpt>
<trkpt lat="21.1682383" lon="-156.887052">
  <ele>158.17</ele>
  <time>2026-09-01T20:03:08Z</time>
  <course>85.47</course>
  <speed>0.08</speed>
  <fix>3d</fix>
</trkpt>
<trkpt lat="21.1682382" lon="-156.8870514">
  <ele>157.58</ele>
  <time>2026-09-01T20:03:08Z</time>
  <course>347.04</course>
  <speed>0.11</speed>
  <fix>3d</fix>
</trkpt>
<trkpt lat="21.1682383" lon="-156.8870519">
  <ele>157.94</ele>
  <time>2026-09-01T20:03:08Z</time>
  <course>84.74</course>
  <speed>0.08</speed>
  <fix>3d</fix>
</trkpt>
<trkpt lat="21.1682382" lon="-156.8870513">
  <ele>157.46</ele>
  <time>2026-09-01T20:03:08Z</time>
  <course>347.02</course>
  <speed>0.11</speed>
  <fix>3d</fix>
</trkpt>
<trkpt lat="21.1682383" lon="-156.8870519">
  <ele>157.94</ele>
  <time>2026-09-01T20:03:08Z</time>
  <course>84.74</course>
  <speed>0.08</speed>
  <fix>3d</fix>
</trkpt>
<trkpt lat="21.1682382" lon="-156.8870513">
  <ele>157.35</ele>
  <time>2026-09-01T20:03:08Z</time>
  <course>347.01</course>
  <speed>0.11</speed>
  <fix>3d</fix>
</trkpt>
<trkpt lat="21.1682383" lon="-156.8870517">
  <ele>157.7</ele>
  <time>2026-09-01T20:03:08Z</time>
  <course>84.44</course>
  <speed>0.09</speed>
  <fix>3d</fix>
</trkpt>
<trkpt lat="21.1682382" lon="-156.8870512">
  <ele>157.23</ele>
  <time>2026-09-01T20:03:08Z</time>
  <course>346.99</course>
  <speed>0.11</speed>
  <fix>3d</fix>
</trkpt>
<trkpt lat="21.1682383" lon="-156.8870517">
  <ele>157.7</ele>
  <time>2026-09-01T20:03:08Z</time>
  <course>84.44</course>
  <speed>0.09</speed>
  <fix>3d</fix>
</trkpt>
<trkpt lat="21.1682382" lon="-156.8870511">
  <ele>157.11</ele>
  <time>2026-09-01T20:03:08Z</time>
  <course>346.98</course>
  <speed>0.11</speed>
  <fix>3d</fix>
</trkpt>
<trkpt lat="21.1682383" lon="-156.8870514">
  <ele>157.47</ele>
  <time>2026-09-01T20:03:08Z</time>
  <course>84.6</course>
  <speed>0.09</speed>
  <fix>3d</fix>
</trkpt>
<trkpt lat="21.1682382" lon="-156.887051">
  <ele>157.0</ele>
  <time>2026-09-01T20:03:08Z</time>
  <course>346.97</course>
  <speed>0.11</speed>
  <fix>3d</fix>
</trkpt>
<trkpt lat="21.1682383" lon="-156.8870514">
  <ele>157.47</ele>
  <time>2026-09-01T20:03:08Z</time>
  <course>84.6</course>
  <speed>0.09</speed>
  <fix>3d</fix>
</trkpt>
<trkpt lat="21.1682382" lon="-156.8870509">
  <ele>156.88</ele>
  <time>2026-09-01T20:03:08Z</time>
  <course>346.96</course>
  <speed>0.11</speed>
  <fix>3d</fix>
</trkpt>
<trkpt lat="21.1682383" lon="-156.8870513">
  <ele>157.24</ele>
  <time>2026-09-01T20:03:08Z</time>
  <course>84.8</course>
  <speed>0.09</speed>
  <fix>3d</fix>
</trkpt>
<trkpt lat="21.1682382" lon="-156.8870508">
  <ele>156.76</ele>
  <time>2026-09-01T20:03:08Z</time>
  <course>346.96</course>
  <speed>0.1</speed>
  <fix>3d</fix>
</trkpt>
<trkpt lat="21.1682383" lon="-156.8870513">
  <ele>157.24</ele>
  <time>2026-09-01T20:03:08Z</time>
  <course>84.8</course>
  <speed>0.09</speed>
  <fix>3d</fix>
</trkpt>
<trkpt lat="21.1682382" lon="-156.8870508">
  <ele>156.65</ele>
  <time>2026-09-01T20:03:08Z</time>
  <course>346.95</course>
  <speed>0.1</speed>
  <fix>3d</fix>
</trkpt>
<trkpt lat="21.1682383" lon="-156.8870511">
  <ele>157.01</ele>
  <time>2026-09-01T20:03:08Z</time>
  <course>84.62</course>
  <speed>0.08</speed>
  <fix>3d</fix>
</trkpt>
<trkpt lat="21.1682382" lon="-156.8870507">
  <ele>156.53</ele>
  <time>2026-09-01T20:03:08Z</time>
  <course>346.94</course>
  <speed>0.1</speed>
  <fix>3d</fix>
</trkpt>
<trkpt lat="21.1682383" lon="-156.8870511">
  <ele>157.01</ele>
  <time>2026-09-01T20:03:08Z</time>
  <course>84.62</course>
  <speed>0.08</speed>
  <fix>3d</fix>
</trkpt>
<trkpt lat="21.1682382" lon="-156.8870506">
  <ele>156.41</ele>
  <time>2026-09-01T20:03:08Z</time>
  <course>346.93</course>
  <speed>0.1</speed>
  <fix>3d</fix>
</trkpt>
<trkpt lat="21.1682383" lon="-156.8870509">
  <ele>156.78</ele>
  <time>2026-09-01T20:03:08Z</time>
  <course>84.31</course>
  <speed>0.08</speed>
  <fix>3d</fix>
</trkpt>
<trkpt lat="21.1682382" lon="-156.8870505">
  <ele>156.3</ele>
  <time>2026-09-01T20:03:08Z</time>
  <course>346.92</course>
  <speed>0.09</speed>
  <fix>3d</fix>
</trkpt>
<trkpt lat="21.1682383" lon="-156.8870509">
  <ele>156.78</ele>
  <time>2026-09-01T20:03:08Z</time>
  <course>84.31</course>
  <speed>0.08</speed>
  <fix>3d</fix>
</trkpt>
<trkpt lat="21.1682382" lon="-156.8870505">
  <ele>156.19</ele>
  <time>2026-09-01T20:03:08Z</time>
  <course>346.91</course>
  <speed>0.09</speed>
  <fix>3d</fix>
</trkpt>
<trkpt lat="21.1682383" lon="-156.8870508">
  <ele>156.55</ele>
  <time>2026-09-01T20:03:08Z</time>
  <course>84.34</course>
  <speed>0.07</speed>
  <fix>3d</fix>
</trkpt>
<trkpt lat="21.1682382" lon="-156.8870504">
  <ele>156.07</ele>
  <time>2026-09-01T20:03:08Z</time>
  <course>346.9</course>
  <speed>0.08062257748298549</speed>
  <fix>3d</fix>
</trkpt>
<trkpt lat="21.1682383" lon="-156.8870508">
  <ele>156.55</ele>
  <time>2026-09-01T20:03:08Z</time>
  <course>84.34</course>
  <speed>0.07</speed>
  <fix>3d</fix>
</trkpt>
<trkpt lat="21.1682382" lon="-156.8870503">
  <ele>155.96</ele>
  <time>2026-09-01T20:03:08Z</time>
  <course>346.9</course>
  <speed>0.08062257748298549</speed>
  <fix>3d</fix>
</trkpt>
<trkpt lat="21.1682383" lon="-156.8870506">
  <ele>156.33</ele>
  <time>2026-09-01T20:03:08Z</time>
  <course>84.76</course>
  <speed>0.07</speed>
  <fix>3d</fix>
</trkpt>
<trkpt lat="21.1682382" lon="-156.8870503">
  <ele>155.84</ele>
  <time>2026-09-01T20:03:08Z</time>
  <course>346.9</course>
  <speed>0.07071067811865475</speed>
  <fix>3d</fix>
</trkpt>
<trkpt lat="21.1682383" lon="-156.8870506">
  <ele>156.33</ele>
  <time>2026-09-01T20:03:08Z</time>
  <course>84.76</course>
  <speed>0.07</speed>
  <fix>3d</fix>
</trkpt>
<trkpt lat="21.1682382" lon="-156.8870502">
  <ele>155.73</ele>
  <time>2026-09-01T20:03:08Z</time>
  <course>346.9</course>
  <speed>0.07071067811865475</speed>
  <fix>3d</fix>
</trkpt>
<trkpt lat="21.1682383" lon="-156.8870505">
  <ele>156.1</ele>
  <time>2026-09-01T20:03:08Z</time>
  <course>85.16</course>
  <speed>0.06</speed>
  <fix>3d</fix>
</trkpt>
<trkpt lat="21.1682382" lon="-156.8870502">
  <ele>155.62</ele>
  <time>2026-09-01T20:03:08Z</time>
  <course>346.9</course>
  <speed>0.06082762530298219</speed>
  <fix>3d</fix>
</trkpt>
<trkpt lat="21.1682383" lon="-156.8870505">
  <ele>156.1</ele>
  <time>2026-09-01T20:03:08Z</time>
  <course>85.16</course>
  <speed>0.06</speed>
  <fix>3d</fix>
</trkpt>
<trkpt lat="21.1682382" lon="-156.8870502">
  <ele>155.5</ele>
  <time>2026-09-01T20:03:08Z</time>
  <course>346.91</course>
  <speed>0.06082762530298219</speed>
  <fix>3d</fix>
</trkpt>
<trkpt lat="21.1682383" lon="-156.8870504">
  <ele>155.88</ele>
  <time>2026-09-01T20:03:08Z</time>
  <course>85.38</course>
  <speed>0.05</speed>
  <fix>3d</fix>
</trkpt>
<trkpt lat="21.1682382" lon="-156.8870501">
  <ele>155.39</ele>
  <time>2026-09-01T20:03:08Z</time>
  <course>346.92</course>
  <speed>0.05099019513592785</speed>
  <fix>3d</fix>
</trkpt>
<trkpt lat="21.1682383" lon="-156.8870504">
  <ele>155.88</ele>
  <time>2026-09-01T20:03:08Z</time>
  <course>85.38</course>
  <speed>0.05</speed>
  <fix>3d</fix>
</trkpt>
<trkpt lat="21.1682382" lon="-156.8870501">
  <ele>155.28</ele>
  <time>2026-09-01T20:03:08Z</time>
  <course>346.93</course>
  <speed>0.05099019513592785</speed>
  <fix>3d</fix>
</trkpt>
<trkpt lat="21.1682383" lon="-156.8870503">
  <ele>155.65</ele>
  <time>2026-09-01T20:03:08Z</time>
  <course>85.37</course>
  <speed>0.04</speed>
  <fix>3d</fix>
</trkpt>
<trkpt lat="21.1682382" lon="-156.8870501">
  <ele>155.16</ele>
  <time>2026-09-01T20:03:08Z</time>
  <course>346.94</course>
  <speed>0.0412310562561766</speed>
  <fix>3d</fix>
</trkpt>
<trkpt lat="21.1682383" lon="-156.8870503">
  <ele>155.65</ele>
  <time>2026-09-01T20:03:08Z</time>
  <course>85.37</course>
  <speed>0.04</speed>
  <fix>3d</fix>
</trkpt>
<trkpt lat="21.1682382" lon="-156.88705">
  <ele>155.05</ele>
  <time>2026-09-01T20:03:08Z</time>
  <course>346.96</course>
  <speed>0.0316227766016838</speed>
  <fix>3d</fix>
</trkpt>
<trkpt lat="21.1682383" lon="-156.8870503">
  <ele>155.42</ele>
  <time>2026-09-01T20:03:08Z</time>
  <course>84.87</course>
  <speed>0.02</speed>
  <fix>3d</fix>
</trkpt>
<trkpt lat="21.1682382" lon="-156.88705">
  <ele>154.93</ele>
  <time>2026-09-01T20:03:08Z</time>
  <course>346.97</course>
  <speed>0.0316227766016838</speed>
  <fix>3d</fix>
</trkpt>
<trkpt lat="21.1682383" lon="-156.8870503">
  <ele>155.42</ele>
  <time>2026-09-01T20:03:08Z</time>
  <course>84.87</course>
  <speed>0.02</speed>
  <fix>3d</fix>
</trkpt>
<trkpt lat="21.1682382" lon="-156.88705">
  <ele>154.82</ele>
  <time>2026-09-01T20:03:08Z</time>
  <course>346.98</course>
  <speed>0.022360679774997897</speed>
  <fix>3d</fix>
</trkpt>
<trkpt lat="21.1682383" lon="-156.8870503">
  <ele>155.19</ele>
  <time>2026-09-01T20:03:08Z</time>
  <course>83.66</course>
  <speed>0.01</speed>
  <fix>3d</fix>
</trkpt>
<trkpt lat="21.1682382" lon="-156.88705">
  <ele>154.7</ele>
  <time>2026-09-01T20:03:08Z</time>
  <course>346.98</course>
  <speed>0.022360679774997897</speed>
  <fix>3d</fix>
</trkpt>
<trkpt lat="21.1682383" lon="-156.8870503">
  <ele>155.19</ele>
  <time>2026-09-01T20:03:08Z</time>
  <course>83.66</course>
  <speed>0.01</speed>
  <fix>3d</fix>
</trkpt>
<trkpt lat="21.1682382" lon="-156.88705">
  <ele>154.59</ele>
  <time>2026-09-01T20:03:08Z</time>
  <course>347.0</course>
  <speed>0.01414213562373095</speed>
  <fix>3d</fix>
</trkpt>
<trkpt lat="21.1682383" lon="-156.8870502">
  <ele>154.96</ele>
  <time>2026-09-01T20:03:08Z</time>
  <course>76.51</course>
  <speed>0.0</speed>
  <fix>3d</fix>
</trkpt>
<trkpt lat="21.1682382" lon="-156.88705">
  <ele>154.47</ele>
  <time>2026-09-01T20:03:08Z</time>
  <course>346.98</course>
  <speed>0.01414213562373095</speed>
  <fix>3d</fix>
</trkpt>
<trkpt lat="21.1682383" lon="-156.8870502">
  <ele>154.96</ele>
  <time>2026-09-01T20:03:08Z</time>
  <course>76.51</course>
  <speed>0.0</speed>
  <fix>3d</fix>
</trkpt>
<trkpt lat="21.1682382" lon="-156.88705">
  <ele>154.36</ele>
  <time>2026-09-01T20:03:08Z</time>
  <course>346.87</course>
  <speed>0.01414213562373095</speed>
  <fix>3d</fix>
</trkpt>
<trkpt lat="21.1682383" lon="-156.8870502">
  <ele>154.73</ele>
  <time>2026-09-01T20:03:08Z</time>
  <course>277.45</course>
  <speed>0.0</speed>
  <fix>3d</fix>
</trkpt>
<trkpt lat="21.1682382" lon="-156.88705">
  <ele>154.24</ele>
  <time>2026-09-01T20:03:08Z</time>
  <course>346.71</course>
  <speed>0.01414213562373095</speed>
  <fix>3d</fix>
</trkpt>
<trkpt lat="21.1682383" lon="-156.8870502">
  <ele>154.73</ele>
  <time>2026-09-01T20:03:08Z</time>
  <course>277.45</course>
  <speed>0.0</speed>
  <fix>3d</fix>
</trkpt>
<trkpt lat="21.1682382" lon="-156.88705">
  <ele>154.13</ele>
  <time>2026-09-01T20:03:08Z</time>
  <course>346.53</course>
  <speed>0.01414213562373095</speed>
  <fix>3d</fix>
</trkpt>
<trkpt lat="21.1682383" lon="-156.8870503">
  <ele>154.51</ele>
  <time>2026-09-01T20:03:08Z</time>
  <course>283.24</course>
  <speed>0.0</speed>
  <fix>3d</fix>
</trkpt>
<trkpt lat="21.1682382" lon="-156.88705">
  <ele>154.01</ele>
  <time>2026-09-01T20:03:08Z</time>
  <course>346.36</course>
  <speed>0.01414213562373095</speed>
  <fix>3d</fix>
</trkpt>
<trkpt lat="21.1682383" lon="-156.8870503">
  <ele>154.51</ele>
  <time>2026-09-01T20:03:08Z</time>
  <course>283.24</course>
  <speed>0.0</speed>
  <fix>3d</fix>
</trkpt>
<trkpt lat="21.1682382" lon="-156.88705">
  <ele>153.9</ele>
  <time>2026-09-01T20:03:08Z</time>
  <course>346.22</course>
  <speed>0.01414213562373095</speed>
  <fix>3d</fix>
</trkpt>
<trkpt lat="21.1682383" lon="-156.8870503">
  <ele>154.28</ele>
  <time>2026-09-01T20:03:08Z</time>
  <course>302.24</course>
  <speed>0.0</speed>
  <fix>3d</fix>
</trkpt>
<trkpt lat="21.1682382" lon="-156.88705">
  <ele>153.78</ele>
  <time>2026-09-01T20:03:08Z</time>
  <course>346.12</course>
  <speed>0.01414213562373095</speed>
  <fix>3d</fix>
</trkpt>
<trkpt lat="21.1682383" lon="-156.8870503">
  <ele>154.28</ele>
  <time>2026-09-01T20:03:08Z</time>
  <course>302.24</course>
  <speed>0.0</speed>
  <fix>3d</fix>
</trkpt>
<trkpt lat="21.1682382" lon="-156.88705">
  <ele>153.67</ele>
  <time>2026-09-01T20:03:08Z</time>
  <course>346.07</course>
  <speed>0.01414213562373095</speed>
  <fix>3d</fix>
</trkpt>
<trkpt lat="21.1682383" lon="-156.8870503">
  <ele>154.05</ele>
  <time>2026-09-01T20:03:08Z</time>
  <course>321.03</course>
  <speed>0.0</speed>
  <fix>3d</fix>
</trkpt>
<trkpt lat="21.1682382" lon="-156.88705">
  <ele>153.55</ele>
  <time>2026-09-01T20:03:08Z</time>
  <course>346.07</course>
  <speed>0.01414213562373095</speed>
  <fix>3d</fix>
</trkpt>
<trkpt lat="21.1682383" lon="-156.8870503">
  <ele>154.05</ele>
  <time>2026-09-01T20:03:08Z</time>
  <course>321.03</course>
  <speed>0.0</speed>
  <fix>3d</fix>
</trkpt>
<trkpt lat="21.1682382" lon="-156.88705">
  <ele>153.44</ele>
  <time>2026-09-01T20:03:08Z</time>
  <course>346.09</course>
  <speed>0.01414213562373095</speed>
  <fix>3d</fix>
</trkpt>
<trkpt lat="21.1682384" lon="-156.8870503">
  <ele>153.82</ele>
  <time>2026-09-01T20:03:08Z</time>
  <course>333.97</course>
  <speed>0.0</speed>
  <fix>3d</fix>
</trkpt>
<trkpt lat="21.1682382" lon="-156.88705">
  <ele>153.33</ele>
  <time>2026-09-01T20:03:08Z</time>
  <course>346.12</course>
  <speed>0.022360679774997897</speed>
  <fix>3d</fix>
</trkpt>
<trkpt lat="21.1682384" lon="-156.8870503">
  <ele>153.82</ele>
  <time>2026-09-01T20:03:08Z</time>
  <course>333.97</course>
  <speed>0.0</speed>
  <fix>3d</fix>
</trkpt>
<trkpt lat="21.1682382" lon="-156.88705">
  <ele>153.21</ele>
  <time>2026-09-01T20:03:08Z</time>
  <course>346.15</course>
  <speed>0.02</speed>
  <fix>3d</fix>
</trkpt>
<trkpt lat="21.1682384" lon="-156.8870503">
  <ele>153.59</ele>
  <time>2026-09-01T20:03:08Z</time>
  <course>341.77</course>
  <speed>0.01</speed>
  <fix>3d</fix>
</trkpt>
<trkpt lat="21.1682382" lon="-156.88705">
  <ele>153.1</ele>
  <time>2026-09-01T20:03:08Z</time>
  <course>346.18</course>
  <speed>0.02</speed>
  <fix>3d</fix>
</trkpt>
<trkpt lat="21.1682384" lon="-156.8870503">
  <ele>153.59</ele>
  <time>2026-09-01T20:03:08Z</time>
  <course>341.77</course>
  <speed>0.01</speed>
  <fix>3d</fix>
</trkpt>
<trkpt lat="21.1682382" lon="-156.88705">
  <ele>152.99</ele>
  <time>2026-09-01T20:03:08Z</time>
  <course>346.2</course>
  <speed>0.02</speed>
  <fix>3d</fix>
</trkpt>
<trkpt lat="21.1682384" lon="-156.8870503">
  <ele>153.36</ele>
  <time>2026-09-01T20:03:08Z</time>
  <course>346.99</course>
  <speed>0.01</speed>
  <fix>3d</fix>
</trkpt>
<trkpt lat="21.1682382" lon="-156.88705">
  <ele>152.87</ele>
  <time>2026-09-01T20:03:08Z</time>
  <course>346.21</course>
  <speed>0.02</speed>
  <fix>3d</fix>
</trkpt>
<trkpt lat="21.1682384" lon="-156.8870503">
  <ele>153.36</ele>
  <time>2026-09-01T20:03:08Z</time>
  <course>346.99</course>
  <speed>0.01</speed>
  <fix>3d</fix>
</trkpt>
<trkpt lat="21.1682382" lon="-156.88705">
  <ele>152.76</ele>
  <time>2026-09-01T20:03:08Z</time>
  <course>346.21</course>
  <speed>0.02</speed>
  <fix>3d</fix>
</trkpt>
<trkpt lat="21.1682384" lon="-156.8870503">
  <ele>153.13</ele>
  <time>2026-09-01T20:03:08Z</time>
  <course>350.18</course>
  <speed>0.01</speed>
  <fix>3d</fix>
</trkpt>
<trkpt lat="21.1682382" lon="-156.88705">
  <ele>152.64</ele>
  <time>2026-09-01T20:03:08Z</time>
  <course>346.21</course>
  <speed>0.02</speed>
  <fix>3d</fix>
</trkpt>
<trkpt lat="21.1682384" lon="-156.8870503">
  <ele>153.13</ele>
  <time>2026-09-01T20:03:08Z</time>
  <course>350.18</course>
  <speed>0.01</speed>
  <fix>3d</fix>
</trkpt>
<trkpt lat="21.1682382" lon="-156.88705">
  <ele>152.53</ele>
  <time>2026-09-01T20:03:08Z</time>
  <course>346.2</course>
  <speed>0.02</speed>
  <fix>3d</fix>
</trkpt>
<trkpt lat="21.1682384" lon="-156.8870503">
  <ele>152.9</ele>
  <time>2026-09-01T20:03:08Z</time>
  <course>351.58</course>
  <speed>0.01</speed>
  <fix>3d</fix>
</trkpt>
<trkpt lat="21.1682382" lon="-156.88705">
  <ele>152.41</ele>
  <time>2026-09-01T20:03:08Z</time>
  <course>346.19</course>
  <speed>0.02</speed>
  <fix>3d</fix>
</trkpt>
<trkpt lat="21.1682384" lon="-156.8870503">
  <ele>152.9</ele>
  <time>2026-09-01T20:03:08Z</time>
  <course>351.58</course>
  <speed>0.01</speed>
  <fix>3d</fix>
</trkpt>
<trkpt lat="21.1682383" lon="-156.88705">
  <ele>152.29</ele>
  <time>2026-09-01T20:03:08Z</time>
  <course>346.18</course>
  <speed>0.02</speed>
  <fix>3d</fix>
</trkpt>
<trkpt lat="21.1682384" lon="-156.8870503">
  <ele>152.67</ele>
  <time>2026-09-01T20:03:08Z</time>
  <course>351.66</course>
  <speed>0.01</speed>
  <fix>3d</fix>
</trkpt>
<trkpt lat="21.1682383" lon="-156.88705">
  <ele>152.17</ele>
  <time>2026-09-01T20:03:08Z</time>
  <course>346.17</course>
  <speed>0.02</speed>
  <fix>3d</fix>
</trkpt>
<trkpt lat="21.1682384" lon="-156.8870503">
  <ele>152.67</ele>
  <time>2026-09-01T20:03:08Z</time>
  <course>351.66</course>
  <speed>0.01</speed>
  <fix>3d</fix>
</trkpt>
<trkpt lat="21.1682383" lon="-156.88705">
  <ele>152.06</ele>
  <time>2026-09-01T20:03:08Z</time>
  <course>346.15</course>
  <speed>0.02</speed>
  <fix>3d</fix>
</trkpt>
<trkpt lat="21.1682384" lon="-156.8870503">
  <ele>152.44</ele>
  <time>2026-09-01T20:03:08Z</time>
  <course>350.49</course>
  <speed>0.01</speed>
  <fix>3d</fix>
</trkpt>
<trkpt lat="21.1682383" lon="-156.88705">
  <ele>151.94</ele>
  <time>2026-09-01T20:03:08Z</time>
  <course>346.13</course>
  <speed>0.02</speed>
  <fix>3d</fix>
</trkpt>
<trkpt lat="21.1682384" lon="-156.8870503">
  <ele>152.44</ele>
  <time>2026-09-01T20:03:08Z</time>
  <course>350.49</course>
  <speed>0.01</speed>
  <fix>3d</fix>
</trkpt>
<trkpt lat="21.1682383" lon="-156.88705">
  <ele>151.83</ele>
  <time>2026-09-01T20:03:08Z</time>
  <course>346.09</course>
  <speed>0.02</speed>
  <fix>3d</fix>
</trkpt>
<trkpt lat="21.1682384" lon="-156.8870503">
  <ele>152.21</ele>
  <time>2026-09-01T20:03:08Z</time>
  <course>349.32</course>
  <speed>0.01</speed>
  <fix>3d</fix>
</trkpt>
<trkpt lat="21.1682383" lon="-156.88705">
  <ele>151.71</ele>
  <time>2026-09-01T20:03:08Z</time>
  <course>346.06</course>
  <speed>0.02</speed>
  <fix>3d</fix>
</trkpt>
<trkpt lat="21.1682384" lon="-156.8870503">
  <ele>152.21</ele>
  <time>2026-09-01T20:03:08Z</time>
  <course>349.32</course>
  <speed>0.01</speed>
  <fix>3d</fix>
</trkpt>
<trkpt lat="21.1682383" lon="-156.88705">
  <ele>151.6</ele>
  <time>2026-09-01T20:03:08Z</time>
  <course>346.03</course>
  <speed>0.02</speed>
  <fix>3d</fix>
</trkpt>
<trkpt lat="21.1682385" lon="-156.8870503">
  <ele>151.98</ele>
  <time>2026-09-01T20:03:08Z</time>
  <course>348.93</course>
  <speed>0.01</speed>
  <fix>3d</fix>
</trkpt>
<trkpt lat="21.1682383" lon="-156.88705">
  <ele>151.48</ele>
  <time>2026-09-01T20:03:08Z</time>
  <course>346.01</course>
  <speed>0.02</speed>
  <fix>3d</fix>
</trkpt>
<trkpt lat="21.1682385" lon="-156.8870503">
  <ele>151.98</ele>
  <time>2026-09-01T20:03:08Z</time>
  <course>348.93</course>
  <speed>0.01</speed>
  <fix>3d</fix>
</trkpt>
<trkpt lat="21.1682383" lon="-156.88705">
  <ele>151.37</ele>
  <time>2026-09-01T20:03:08Z</time>
  <course>345.99</course>
  <speed>0.02</speed>
  <fix>3d</fix>
</trkpt>
<trkpt lat="21.1682386" lon="-156.8870503">
  <ele>151.75</ele>
  <time>2026-09-01T20:03:08Z</time>
  <course>348.39</course>
  <speed>0.01</speed>
  <fix>3d</fix>
</trkpt>
<trkpt lat="21.1682383" lon="-156.88705">
  <ele>151.26</ele>
  <time>2026-09-01T20:03:08Z</time>
  <course>345.98</course>
  <speed>0.02</speed>
  <fix>3d</fix>
</trkpt>
<trkpt lat="21.1682386" lon="-156.8870503">
  <ele>151.75</ele>
  <time>2026-09-01T20:03:08Z</time>
  <course>348.39</course>
  <speed>0.01</speed>
  <fix>3d</fix>
</trkpt>
<trkpt lat="21.1682384" lon="-156.88705">
  <ele>151.14</ele>
  <time>2026-09-01T20:03:08Z</time>
  <course>345.97</course>
  <speed>0.02</speed>
  <fix>3d</fix>
</trkpt>
<trkpt lat="21.1682386" lon="-156.8870503">
  <ele>151.52</ele>
  <time>2026-09-01T20:03:08Z</time>
  <course>347.61</course>
  <speed>0.01</speed>
  <fix>3d</fix>
</trkpt>
<trkpt lat="21.1682384" lon="-156.88705">
  <ele>151.03</ele>
  <time>2026-09-01T20:03:08Z</time>
  <course>345.97</course>
  <speed>0.02</speed>
  <fix>3d</fix>
</trkpt>
<trkpt lat="21.1682386" lon="-156.8870503">
  <ele>151.52</ele>
  <time>2026-09-01T20:03:08Z</time>
  <course>347.61</course>
  <speed>0.01</speed>
  <fix>3d</fix>
</trkpt>
<trkpt lat="21.1682384" lon="-156.88705">
  <ele>150.92</ele>
  <time>2026-09-01T20:03:08Z</time>
  <course>345.96</course>
  <speed>0.02</speed>
  <fix>3d</fix>
</trkpt>
<trkpt lat="21.1682386" lon="-156.8870503">
  <ele>151.3</ele>
  <time>2026-09-01T20:03:08Z</time>
  <course>346.38</course>
  <speed>0.01</speed>
  <fix>3d</fix>
</trkpt>
<trkpt lat="21.1682384" lon="-156.88705">
  <ele>150.8</ele>
  <time>2026-09-01T20:03:08Z</time>
  <course>345.95</course>
  <speed>0.02</speed>
  <fix>3d</fix>
</trkpt>
<trkpt lat="21.1682386" lon="-156.8870503">
  <ele>151.3</ele>
  <time>2026-09-01T20:03:08Z</time>
  <course>346.38</course>
  <speed>0.01</speed>
  <fix>3d</fix>
</trkpt>
<trkpt lat="21.1682384" lon="-156.88705">
  <ele>150.69</ele>
  <time>2026-09-01T20:03:08Z</time>
  <course>345.94</course>
  <speed>0.02</speed>
  <fix>3d</fix>
</trkpt>
<trkpt lat="21.1682386" lon="-156.8870503">
  <ele>151.07</ele>
  <time>2026-09-01T20:03:08Z</time>
  <course>344.41</course>
  <speed>0.01</speed>
  <fix>3d</fix>
</trkpt>
<trkpt lat="21.1682384" lon="-156.88705">
  <ele>150.58</ele>
  <time>2026-09-01T20:03:08Z</time>
  <course>345.94</course>
  <speed>0.02</speed>
  <fix>3d</fix>
</trkpt>
<trkpt lat="21.1682386" lon="-156.8870503">
  <ele>151.07</ele>
  <time>2026-09-01T20:03:08Z</time>
  <course>344.41</course>
  <speed>0.01</speed>
  <fix>3d</fix>
</trkpt>
<trkpt lat="21.1682384" lon="-156.88705">
  <ele>150.46</ele>
  <time>2026-09-01T20:03:08Z</time>
  <course>345.92</course>
  <speed>0.02</speed>
  <fix>3d</fix>
</trkpt>
<trkpt lat="21.1682386" lon="-156.8870503">
  <ele>150.84</ele>
  <time>2026-09-01T20:03:08Z</time>
  <course>342.76</course>
  <speed>0.01</speed>
  <fix>3d</fix>
</trkpt>
<trkpt lat="21.1682384" lon="-156.88705">
  <ele>150.35</ele>
  <time>2026-09-01T20:03:08Z</time>
  <course>345.91</course>
  <speed>0.02</speed>
  <fix>3d</fix>
</trkpt>
<trkpt lat="21.1682386" lon="-156.8870503">
  <ele>150.84</ele>
  <time>2026-09-01T20:03:08Z</time>
  <course>342.76</course>
  <speed>0.01</speed>
  <fix>3d</fix>
</trkpt>
<trkpt lat="21.1682384" lon="-156.88705">
  <ele>150.23</ele>
  <time>2026-09-01T20:03:08Z</time>
  <course>345.89</course>
  <speed>0.02</speed>
  <fix>3d</fix>
</trkpt>
<trkpt lat="21.1682387" lon="-156.8870503">
  <ele>150.61</ele>
  <time>2026-09-01T20:03:08Z</time>
  <course>342.21</course>
  <speed>0.01</speed>
  <fix>3d</fix>
</trkpt>
<trkpt lat="21.1682385" lon="-156.88705">
  <ele>150.12</ele>
  <time>2026-09-01T20:03:08Z</time>
  <course>345.87</course>
  <speed>0.02</speed>
  <fix>3d</fix>
</trkpt>
<trkpt lat="21.1682387" lon="-156.8870503">
  <ele>150.61</ele>
  <time>2026-09-01T20:03:08Z</time>
  <course>342.21</course>
  <speed>0.01</speed>
  <fix>3d</fix>
</trkpt>
<trkpt lat="21.1682385" lon="-156.88705">
  <ele>150.0</ele>
  <time>2026-09-01T20:03:08Z</time>
  <course>345.86</course>
  <speed>0.02</speed>
  <fix>3d</fix>
</trkpt>
<trkpt lat="21.1682387" lon="-156.8870503">
  <ele>150.38</ele>
  <time>2026-09-01T20:03:08Z</time>
  <course>341.89</course>
  <speed>0.01</speed>
  <fix>3d</fix>
</trkpt>
<trkpt lat="21.1682385" lon="-156.88705">
  <ele>149.88</ele>
  <time>2026-09-01T20:03:08Z</time>
  <course>345.84</course>
  <speed>0.02</speed>
  <fix>3d</fix>
</trkpt>
<trkpt lat="21.1682387" lon="-156.8870503">
  <ele>150.38</ele>
  <time>2026-09-01T20:03:08Z</time>
  <course>341.89</course>
  <speed>0.01</speed>
  <fix>3d</fix>
</trkpt>
<trkpt lat="21.1682385" lon="-156.88705">
  <ele>149.76</ele>
  <time>2026-09-01T20:03:08Z</time>
  <course>345.76</course>
  <speed>0.02</speed>
  <fix>3d</fix>
</trkpt>
<trkpt lat="21.1682387" lon="-156.8870503">
  <ele>150.15</ele>
  <time>2026-09-01T20:03:08Z</time>
  <course>341.79</course>
  <speed>0.0</speed>
  <fix>3d</fix>
</trkpt>
<trkpt lat="21.1682385" lon="-156.88705">
  <ele>149.76</ele>
  <time>2026-09-01T20:03:08Z</time>
  <course>345.75</course>
  <speed>0.02</speed>
  <fix>3d</fix>
</trkpt>
<trkpt lat="21.1682385" lon="-156.88705">
  <ele>149.65</ele>
  <time>2026-09-01T20:03:08Z</time>
  <course>345.39</course>
  <speed>0.0316227766016838</speed>
  <fix>3d</fix>
</trkpt>
<trkpt lat="21.1682387" lon="-156.8870503">
  <ele>150.15</ele>
  <time>2026-09-01T20:03:08Z</time>
  <course>341.79</course>
  <speed>0.0</speed>
  <fix>3d</fix>
</trkpt>
<trkpt lat="21.1682386" lon="-156.8870501">
  <ele>149.49</ele>
  <time>2026-09-01T20:03:08Z</time>
  <course>344.94</course>
  <speed>0.12</speed>
  <fix>3d</fix>
</trkpt>
<trkpt lat="21.1682387" lon="-156.8870503">
  <ele>149.92</ele>
  <time>2026-09-01T20:03:08Z</time>
  <course>342.3</course>
  <speed>0.03</speed>
  <fix>3d</fix>
</trkpt>
<trkpt lat="21.1682388" lon="-156.8870501">
  <ele>149.25</ele>
  <time>2026-09-01T20:03:08Z</time>
  <course>344.47</course>
  <speed>0.18027756377319945</speed>
  <fix>3d</fix>
</trkpt>
<trkpt lat="21.1682387" lon="-156.8870503">
  <ele>149.92</ele>
  <time>2026-09-01T20:03:08Z</time>
  <course>342.3</course>
  <speed>0.03</speed>
  <fix>3d</fix>
</trkpt>
<trkpt lat="21.168239" lon="-156.8870501">
  <ele>148.94</ele>
  <time>2026-09-01T20:03:08Z</time>
  <course>343.95</course>
  <speed>0.2109502310972899</speed>
  <fix>3d</fix>
</trkpt>
<trkpt lat="21.1682389" lon="-156.8870503">
  <ele>149.61</ele>
  <time>2026-09-01T20:03:08Z</time>
  <course>344.42</course>
  <speed>0.12</speed>
  <fix>3d</fix>
</trkpt>
<trkpt lat="21.1682392" lon="-156.8870502">
  <ele>148.57</ele>
  <time>2026-09-01T20:03:08Z</time>
  <course>343.39</course>
  <speed>0.2308679276123039</speed>
  <fix>3d</fix>
</trkpt>
<trkpt lat="21.1682389" lon="-156.8870503">
  <ele>149.61</ele>
  <time>2026-09-01T20:03:08Z</time>
  <course>344.42</course>
  <speed>0.12</speed>
  <fix>3d</fix>
</trkpt>
<trkpt lat="21.1682394" lon="-156.8870502">
  <ele>149.07</ele>
  <time>2026-09-01T20:03:08Z</time>
  <course>342.82</course>
  <speed>0.261725046566048</speed>
  <fix>3d</fix>
</trkpt>
<trkpt lat="21.1682392" lon="-156.8870504">
  <ele>149.08</ele>
  <time>2026-09-01T20:03:08Z</time>
  <course>345.56</course>
  <speed>0.22</speed>
  <fix>3d</fix>
</trkpt>
<trkpt lat="21.1682397" lon="-156.8870503">
  <ele>149.03</ele>
  <time>2026-09-01T20:03:08Z</time>
  <course>342.31</course>
  <speed>0.304138126514911</speed>
  <fix>3d</fix>
</trkpt>
<trkpt lat="21.1682392" lon="-156.8870504">
  <ele>149.08</ele>
  <time>2026-09-01T20:03:08Z</time>
  <course>345.56</course>
  <speed>0.22</speed>
  <fix>3d</fix>
</trkpt>
<trkpt lat="21.16824" lon="-156.8870504">
  <ele>148.82</ele>
  <time>2026-09-01T20:03:08Z</time>
  <course>341.85</course>
  <speed>0.378549864614954</speed>
  <fix>3d</fix>
</trkpt>
<trkpt lat="21.1682396" lon="-156.8870505">
  <ele>148.3</ele>
  <time>2026-09-01T20:03:08Z</time>
  <course>344.83</course>
  <speed>0.28</speed>
  <fix>3d</fix>
</trkpt>
<trkpt lat="-26.9720619" lon="149.6127921">
  <ele>339.29</ele>
  <time>2026-09-01T20:03:09Z</time>
  <course>310.27</course>
  <speed>0.0</speed>
  <fix>3d</fix>
</trkpt>
<trkpt lat="-26.9720619" lon="149.6127921">
  <ele>339.29</ele>
  <time>2026-09-01T20:03:09Z</time>
  <course>310.27</course>
  <speed>0.0</speed>
  <fix>3d</fix>
</trkpt>
<trkpt lat="-27.274439" lon="151.290064">
  <ele>-0.01</ele>
  <time>2026-09-01T20:03:09Z</time>
  <course>0.18</course>
  <speed>0.0</speed>
  <fix>3d</fix>
</trkpt>
<trkpt lat="-27.274439" lon="151.290064">
  <ele>343.1</ele>
  <time>2026-09-01T20:03:09Z</time>
  <course>294.58</course>
  <speed>0.0</speed>
  <fix>3d</fix>
</trkpt>
<trkpt lat="-27.274439" lon="151.290064">
  <ele>0.02</ele>
  <time>2026-09-01T20:03:09Z</time>
  <course>1.17</course>
  <speed>0.0</speed>
  <fix>3d</fix>
</trkpt>
<trkpt lat="-27.274439" lon="151.290064">
  <ele>343.1</ele>
  <time>2026-09-01T20:03:09Z</time>
  <course>294.58</course>
  <speed>0.0</speed>
  <fix>3d</fix>
</trkpt>
<trkpt lat="-27.274439" lon="151.290064">
  <ele>-0.08</ele>
  <time>2026-09-01T20:03:09Z</time>
  <course>2.07</course>
  <speed>0.0</speed>
  <fix>3d</fix>
</trkpt>
<trkpt lat="-27.274439" lon="151.290064">
  <ele>343.1</ele>
  <time>2026-09-01T20:03:09Z</time>
  <course>273.33</course>
  <speed>0.0</speed>
  <fix>3d</fix>
</trkpt>
<trkpt lat="-27.274439" lon="151.290064">
  <ele>0.22</ele>
  <time>2026-09-01T20:03:09Z</time>
  <course>2.89</course>
  <speed>0.0</speed>
  <fix>3d</fix>
</trkpt>
<trkpt lat="-27.274439" lon="151.290064">
  <ele>343.1</ele>
  <time>2026-09-01T20:03:09Z</time>
  <course>273.33</course>
  <speed>0.0</speed>
  <fix>3d</fix>
</trkpt>
<trkpt lat="-27.274439" lon="151.290064">
  <ele>0.09</ele>
  <time>2026-09-01T20:03:09Z</time>
  <course>3.63</course>
  <speed>0.0</speed>
  <fix>3d</fix>
</trkpt>
<trkpt lat="-27.274439" lon="151.290064">
  <ele>343.1</ele>
  <time>2026-09-01T20:03:09Z</time>
  <course>270.44</course>
  <speed>0.0</speed>
  <fix>3d</fix>
</trkpt>
<trkpt lat="-27.274439" lon="151.290064">
  <ele>0.08</ele>
  <time>2026-09-01T20:03:09Z</time>
  <course>4.31</course>
  <speed>0.0</speed>
  <fix>3d</fix>
</trkpt>
<trkpt lat="-27.274439" lon="151.290064">
  <ele>343.1</ele>
  <time>2026-09-01T20:03:09Z</time>
  <course>270.44</course>
  <speed>0.0</speed>
  <fix>3d</fix>
</trkpt>
<trkpt lat="-27.274439" lon="151.290064">
  <ele>0.09</ele>
  <time>2026-09-01T20:03:09Z</time>
  <course>4.93</course>
  <speed>0.0</speed>
  <fix>3d</fix>
</trkpt>
<trkpt lat="-27.274439" lon="151.290064">
  <ele>343.1</ele>
  <time>2026-09-01T20:03:09Z</time>
  <course>270.05</course>
  <speed>0.0</speed>
  <fix>3d</fix>
</trkpt>
<trkpt lat="-27.274439" lon="151.290064">
  <ele>-0.05</ele>
  <time>2026-09-01T20:03:09Z</time>
  <course>5.48</course>
  <speed>0.0</speed>
  <fix>3d</fix>
</trkpt>
<trkpt lat="-27.274439" lon="151.290064">
  <ele>343.1</ele>
  <time>2026-09-01T20:03:09Z</time>
  <course>270.05</course>
  <speed>0.0</speed>
  <fix>3d</fix>
</trkpt>
<trkpt lat="-27.274439" lon="151.290064">
  <ele>343.06</ele>
  <time>2026-09-01T20:03:09Z</time>
  <course>5.96</course>
  <speed>0.0</speed>
  <fix>3d</fix>
</trkpt>
<trkpt lat="-27.274439" lon="151.290064">
  <ele>343.1</ele>
  <time>2026-09-01T20:03:09Z</time>
  <course>270.0</course>
  <speed>0.0</speed>
  <fix>3d</fix>
</trkpt>
<trkpt lat="-27.274439" lon="151.290064">
  <ele>343.18</ele>
  <time>2026-09-01T20:03:09Z</time>
  <course>6.42</course>
  <speed>0.0</speed>
  <fix>3d</fix>
</trkpt>
<trkpt lat="-27.274439" lon="151.290064">
  <ele>343.1</ele>
  <time>2026-09-01T20:03:09Z</time>
  <course>270.0</course>
  <speed>0.0</speed>
  <fix>3d</fix>
</trkpt>
<trkpt lat="-27.274439" lon="151.290064">
  <ele>342.91</ele>
  <time>2026-09-01T20:03:09Z</time>
  <course>6.84</course>
  <speed>0.0</speed>
  <fix>3d</fix>
</trkpt>
<trkpt lat="-27.274439" lon="151.290064">
  <ele>343.1</ele>
  <time>2026-09-01T20:03:09Z</time>
  <course>270.0</course>
  <speed>0.0</speed>
  <fix>3d</fix>
</trkpt>
<trkpt lat="-27.274439" lon="151.290064">
  <ele>343.06</ele>
  <time>2026-09-01T20:03:09Z</time>
  <course>7.21</course>
  <speed>0.0</speed>
  <fix>3d</fix>
</trkpt>
<trkpt lat="-27.274439" lon="151.290064">
  <ele>343.1</ele>
  <time>2026-09-01T20:03:09Z</time>
  <course>270.0</course>
  <speed>0.0</speed>
  <fix>3d</fix>
</trkpt>
<trkpt lat="-27.274439" lon="151.290064">
  <ele>343.13</ele>
  <time>2026-09-01T20:03:09Z</time>
  <course>7.55</course>
  <speed>0.0</speed>
  <fix>3d</fix>
</trkpt>
<trkpt lat="-27.274439" lon="151.290064">
  <ele>343.1</ele>
  <time>2026-09-01T20:03:09Z</time>
  <course>270.0</course>
  <speed>0.0</speed>
  <fix>3d</fix>
</trkpt>
<trkpt lat="-27.274439" lon="151.290064">
  <ele>343.04</ele>
  <time>2026-09-01T20:03:09Z</time>
  <course>7.86</course>
  <speed>0.0</speed>
  <fix>3d</fix>
</trkpt>
<trkpt lat="-27.274439" lon="151.290064">
  <ele>343.1</ele>
  <time>2026-09-01T20:03:09Z</time>
  <course>270.0</course>
  <speed>0.0</speed>
  <fix>3d</fix>
</trkpt>
<trkpt lat="-27.274439" lon="151.290064">
  <ele>342.88</ele>
  <time>2026-09-01T20:03:09Z</time>
  <course>8.13</course>
  <speed>0.0</speed>
  <fix>3d</fix>
</trkpt>
<trkpt lat="-27.274439" lon="151.290064">
  <ele>343.1</ele>
  <time>2026-09-01T20:03:09Z</time>
  <course>270.0</course>
  <speed>0.0</speed>
  <fix>3d</fix>
</trkpt>
<trkpt lat="-27.274439" lon="151.290064">
  <ele>343.02</ele>
  <time>2026-09-01T20:03:09Z</time>
  <course>8.38</course>
  <speed>0.0</speed>
  <fix>3d</fix>
</trkpt>
<trkpt lat="-27.274439" lon="151.290064">
  <ele>343.1</ele>
  <time>2026-09-01T20:03:09Z</time>
  <course>270.0</course>
  <speed>0.0</speed>
  <fix>3d</fix>
</trkpt>
<trkpt lat="-27.274439" lon="151.290064">
  <ele>343.23</ele>
  <time>2026-09-01T20:03:09Z</time>
  <course>8.62</course>
  <speed>0.0</speed>
  <fix>3d</fix>
</trkpt>
<trkpt lat="-27.274439" lon="151.290064">
  <ele>343.1</ele>
  <time>2026-09-01T20:03:09Z</time>
  <course>270.0</course>
  <speed>0.0</speed>
  <fix>3d</fix>
</trkpt>
<trkpt lat="-27.274439" lon="151.290064">
  <ele>343.17</ele>
  <time>2026-09-01T20:03:09Z</time>
  <course>8.82</course>
  <speed>0.0</speed>
  <fix>3d</fix>
</trkpt>
<trkpt lat="-27.274439" lon="151.290064">
  <ele>343.1</ele>
  <time>2026-09-01T20:03:09Z</time>
  <course>270.0</course>
  <speed>0.0</speed>
  <fix>3d</fix>
</trkpt>
<trkpt lat="-27.274439" lon="151.290064">
  <ele>343.04</ele>
  <time>2026-09-01T20:03:09Z</time>
  <course>9.0</course>
  <speed>0.0</speed>
  <fix>3d</fix>
</trkpt>
<trkpt lat="-27.274439" lon="151.290064">
  <ele>343.1</ele>
  <time>2026-09-01T20:03:09Z</time>
  <course>270.0</course>
  <speed>0.0</speed>
  <fix>3d</fix>
</trkpt>
<trkpt lat="-27.274439" lon="151.290064">
  <ele>342.89</ele>
  <time>2026-09-01T20:03:09Z</time>
  <course>9.17</course>
  <speed>0.0</speed>
  <fix>3d</fix>
</trkpt>
<trkpt lat="-27.274439" lon="151.290064">
  <ele>343.1</ele>
  <time>2026-09-01T20:03:09Z</time>
  <course>270.0</course>
  <speed>0.0</speed>
  <fix>3d</fix>
</trkpt>
<trkpt lat="-27.274439" lon="151.290064">
  <ele>343.08</ele>
  <time>2026-09-01T20:03:09Z</time>
  <course>9.32</course>
  <speed>0.0</speed>
  <fix>3d</fix>
</trkpt>
<trkpt lat="-27.274439" lon="151.290064">
  <ele>343.1</ele>
  <time>2026-09-01T20:03:09Z</time>
  <course>270.0</course>
  <speed>0.0</speed>
  <fix>3d</fix>
</trkpt>
<trkpt lat="-27.274439" lon="151.290064">
  <ele>343.19</ele>
  <time>2026-09-01T20:03:09Z</time>
  <course>9.46</course>
  <speed>0.0</speed>
  <fix>3d</fix>
</trkpt>
<trkpt lat="-27.274439" lon="151.290064">
  <ele>343.1</ele>
  <time>2026-09-01T20:03:09Z</time>
  <course>270.0</course>
  <speed>0.0</speed>
  <fix>3d</fix>
</trkpt>
<trkpt lat="-27.274439" lon="151.290064">
  <ele>342.88</ele>
  <time>2026-09-01T20:03:09Z</time>
  <course>9.59</course>
  <speed>0.0</speed>
  <fix>3d</fix>
</trkpt>
<trkpt lat="-27.274439" lon="151.290064">
  <ele>343.1</ele>
  <time>2026-09-01T20:03:09Z</time>
  <course>270.0</course>
  <speed>0.0</speed>
  <fix>3d</fix>
</trkpt>
<trkpt lat="-27.274439" lon="151.290064">
  <ele>343.17</ele>
  <time>2026-09-01T20:03:09Z</time>
  <course>9.7</course>
  <speed>0.0</speed>
  <fix>3d</fix>
</trkpt>
<trkpt lat="-27.274439" lon="151.290064">
  <ele>343.1</ele>
  <time>2026-09-01T20:03:09Z</time>
  <course>270.0</course>
  <speed>0.0</speed>
  <fix>3d</fix>
</trkpt>
<trkpt lat="-27.274439" lon="151.290064">
  <ele>342.89</ele>
  <time>2026-09-01T20:03:09Z</time>
  <course>9.8</course>
  <speed>0.0</speed>
  <fix>3d</fix>
</trkpt>
<trkpt lat="-27.274439" lon="151.290064">
  <ele>343.1</ele>
  <time>2026-09-01T20:03:09Z</time>
  <course>270.0</course>
  <speed>0.0</speed>
  <fix>3d</fix>
</trkpt>
<trkpt lat="-27.274439" lon="151.290064">
  <ele>342.99</ele>
  <time>2026-09-01T20:03:09Z</time>
  <course>9.89</course>
  <speed>0.0</speed>
  <fix>3d</fix>
</trkpt>
<trkpt lat="-27.274439" lon="151.290064">
  <ele>343.1</ele>
  <time>2026-09-01T20:03:09Z</time>
  <course>270.0</course>
  <speed>0.0</speed>
  <fix>3d</fix>
</trkpt>
<trkpt lat="-27.274439" lon="151.290064">
  <ele>342.87</ele>
  <time>2026-09-01T20:03:09Z</time>
  <course>9.98</course>
  <speed>0.0</speed>
  <fix>3d</fix>
</trkpt>
<trkpt lat="-27.274439" lon="151.290064">
  <ele>343.1</ele>
  <time>2026-09-01T20:03:09Z</time>
  <course>270.0</course>
  <speed>0.0</speed>
  <fix>3d</fix>
</trkpt>
<trkpt lat="-27.274439" lon="151.290064">
  <ele>343.09</ele>
  <time>2026-09-01T20:03:09Z</time>
  <course>10.06</course>
  <speed>0.0</speed>
  <fix>3d</fix>
</trkpt>
<trkpt lat="-27.274439" lon="151.290064">
  <ele>343.1</ele>
  <time>2026-09-01T20:03:09Z</time>
  <course>270.0</course>
  <speed>0.0</speed>
  <fix>3d</fix>
</trkpt>
<trkpt lat="-27.274439" lon="151.290064">
  <ele>343.18</ele>
  <time>2026-09-01T20:03:09Z</time>
  <course>10.13</course>
  <speed>0.0</speed>
  <fix>3d</fix>
</trkpt>
<trkpt lat="-27.274439" lon="151.290064">
  <ele>343.1</ele>
  <time>2026-09-01T20:03:09Z</time>
  <course>270.0</course>
  <speed>0.0</speed>
  <fix>3d</fix>
</trkpt>
<trkpt lat="-27.274439" lon="151.290064">
  <ele>343.05</ele>
  <time>2026-09-01T20:03:09Z</time>
  <course>10.19</course>
  <speed>0.0</speed>
  <fix>3d</fix>
</trkpt>
<trkpt lat="-27.274439" lon="151.290064">
  <ele>343.1</ele>
  <time>2026-09-01T20:03:09Z</time>
  <course>270.0</course>
  <speed>0.0</speed>
  <fix>3d</fix>
</trkpt>
<trkpt lat="-27.274439" lon="151.290064">
  <ele>342.96</ele>
  <time>2026-09-01T20:03:09Z</time>
  <course>10.25</course>
  <speed>0.0</speed>
  <fix>3d</fix>
</trkpt>
<trkpt lat="-27.274439" lon="151.290064">
  <ele>343.1</ele>
  <time>2026-09-01T20:03:09Z</time>
  <course>270.0</course>
  <speed>0.0</speed>
  <fix>3d</fix>
</trkpt>
<trkpt lat="-27.274439" lon="151.290064">
  <ele>343.1</ele>
  <time>2026-09-01T20:03:09Z</time>
  <course>10.3</course>
  <speed>0.0</speed>
  <fix>3d</fix>
</trkpt>
<trkpt lat="-27.274439" lon="151.290064">
  <ele>343.1</ele>
  <time>2026-09-01T20:03:09Z</time>
  <course>270.0</course>
  <speed>0.0</speed>
  <fix>3d</fix>
</trkpt>
<trkpt lat="-27.274439" lon="151.290064">
  <ele>343.22</ele>
  <time>2026-09-01T20:03:09Z</time>
  <course>10.35</course>
  <speed>0.0</speed>
  <fix>3d</fix>
</trkpt>
<trkpt lat="-27.274439" lon="151.290064">
  <ele>343.1</ele>
  <time>2026-09-01T20:03:09Z</time>
  <course>270.0</course>
  <speed>0.0</speed>
  <fix>3d</fix>
</trkpt>
<trkpt lat="-27.274439" lon="151.290064">
  <ele>343.17</ele>
  <time>2026-09-01T20:03:09Z</time>
  <course>10.39</course>
  <speed>0.0</speed>
  <fix>3d</fix>
</trkpt>
<trkpt lat="-27.274439" lon="151.290064">
  <ele>343.1</ele>
  <time>2026-09-01T20:03:09Z</time>
  <course>270.0</course>
  <speed>0.0</speed>
  <fix>3d</fix>
</trkpt>
<trkpt lat="-27.274439" lon="151.290064">
  <ele>343.08</ele>
  <time>2026-09-01T20:03:09Z</time>
  <course>10.43</course>
  <speed>0.0</speed>
  <fix>3d</fix>
</trkpt>
<trkpt lat="-27.274439" lon="151.290064">
  <ele>343.1</ele>
  <time>2026-09-01T20:03:09Z</time>
  <course>270.0</course>
  <speed>0.0</speed>
  <fix>3d</fix>
</trkpt>
<trkpt lat="-27.274439" lon="151.290064">
  <ele>343.04</ele>
  <time>2026-09-01T20:03:09Z</time>
  <course>10.47</course>
  <speed>0.0</speed>
  <fix>3d</fix>
</trkpt>
<trkpt lat="-27.274439" lon="151.290064">
  <ele>343.1</ele>
  <time>2026-09-01T20:03:09Z</time>
  <course>270.0</course>
  <speed>0.0</speed>
  <fix>3d</fix>
</trkpt>
<trkpt lat="-27.274439" lon="151.290064">
  <ele>343.18</ele>
  <time>2026-09-01T20:03:09Z</time>
  <course>10.5</course>
  <speed>0.0</speed>
  <fix>3d</fix>
</trkpt>
<trkpt lat="-27.274439" lon="151.290064">
  <ele>343.1</ele>
  <time>2026-09-01T20:03:09Z</time>
  <course>270.0</course>
  <speed>0.0</speed>
  <fix>3d</fix>
</trkpt>
<trkpt lat="-27.274439" lon="151.290064">
  <ele>343.12</ele>
  <time>2026-09-01T20:03:09Z</time>
  <course>10.53</course>
  <speed>0.0</speed>
  <fix>3d</fix>
</trkpt>
<trkpt lat="-27.274439" lon="151.290064">
  <ele>343.1</ele>
  <time>2026-09-01T20:03:09Z</time>
  <course>270.0</course>
  <speed>0.0</speed>
  <fix>3d</fix>
</trkpt>
<trkpt lat="-27.274439" lon="151.290064">
  <ele>343.04</ele>
  <time>2026-09-01T20:03:09Z</time>
  <course>10.55</course>
  <speed>0.0</speed>
  <fix>3d</fix>
</trkpt>
<trkpt lat="-27.274439" lon="151.290064">
  <ele>343.1</ele>
  <time>2026-09-01T20:03:09Z</time>
  <course>270.0</course>
  <speed>0.0</speed>
  <fix>3d</fix>
</trkpt>
<trkpt lat="-27.274439" lon="151.290064">
  <ele>343.07</ele>
  <time>2026-09-01T20:03:09Z</time>
  <course>10.58</course>
  <speed>0.0</speed>
  <fix>3d</fix>
</trkpt>
<trkpt lat="-27.274439" lon="151.290064">
  <ele>343.1</ele>
  <time>2026-09-01T20:03:09Z</time>
  <course>270.0</course>
  <speed>0.0</speed>
  <fix>3d</fix>
</trkpt>
<trkpt lat="-27.274439" lon="151.290064">
  <ele>343.04</ele>
  <time>2026-09-01T20:03:09Z</time>
  <course>10.6</course>
  <speed>0.0</speed>
  <fix>3d</fix>
</trkpt>
<trkpt lat="-27.274439" lon="151.290064">
  <ele>343.1</ele>
  <time>2026-09-01T20:03:09Z</time>
  <course>270.0</course>
  <speed>0.0</speed>
  <fix>3d</fix>
</trkpt>
<trkpt lat="-27.274439" lon="151.290064">
  <ele>343.01</ele>
  <time>2026-09-01T20:03:09Z</time>
  <course>10.62</course>
  <speed>0.0</speed>
  <fix>3d</fix>
</trkpt>
<trkpt lat="-27.274439" lon="151.290064">
  <ele>343.1</ele>
  <time>2026-09-01T20:03:09Z</time>
  <course>270.0</course>
  <speed>0.0</speed>
  <fix>3d</fix>
</trkpt>
<trkpt lat="-27.274439" lon="151.290064">
  <ele>343.2</ele>
  <time>2026-09-01T20:03:09Z</time>
  <course>10.64</course>
  <speed>0.0</speed>
  <fix>3d</fix>
</trkpt>
<trkpt lat="-27.274439" lon="151.290064">
  <ele>343.1</ele>
  <time>2026-09-01T20:03:09Z</time>
  <course>270.0</course>
  <speed>0.0</speed>
  <fix>3d</fix>
</trkpt>
<trkpt lat="-27.274439" lon="151.290064">
  <ele>343.24</ele>
  <time>2026-09-01T20:03:09Z</time>
  <course>10.65</course>
  <speed>0.0</speed>
  <fix>3d</fix>
</trkpt>
<trkpt lat="-27.274439" lon="151.290064">
  <ele>343.1</ele>
  <time>2026-09-01T20:03:09Z</time>
  <course>270.0</course>
  <speed>0.0</speed>
  <fix>3d</fix>
</trkpt>
<trkpt lat="-27.274439" lon="151.290064">
  <ele>342.88</ele>
  <time>2026-09-01T20:03:09Z</time>
  <course>10.67</course>
  <speed>0.0</speed>
  <fix>3d</fix>
</trkpt>
<trkpt lat="-27.274439" lon="151.290064">
  <ele>343.1</ele>
  <time>2026-09-01T20:03:09Z</time>
  <course>270.0</course>
  <speed>0.0</speed>
  <fix>3d</fix>
</trkpt>
<trkpt lat="-27.274439" lon="151.290064">
  <ele>343.21</ele>
  <time>2026-09-01T20:03:09Z</time>
  <course>10.68</course>
  <speed>0.0</speed>
  <fix>3d</fix>
</trkpt>
<trkpt lat="-27.274439" lon="151.290064">
  <ele>343.1</ele>
  <time>2026-09-01T20:03:09Z</time>
  <course>270.0</course>
  <speed>0.0</speed>
  <fix>3d</fix>
</trkpt>
<trkpt lat="-27.274439" lon="151.290064">
  <ele>343.02</ele>
  <time>2026-09-01T20:03:09Z</time>
  <course>10.69</course>
  <speed>0.0</speed>
  <fix>3d</fix>
</trkpt>
<trkpt lat="-27.274439" lon="151.290064">
  <ele>343.1</ele>
  <time>2026-09-01T20:03:09Z</time>
  <course>270.0</course>
  <speed>0.0</speed>
  <fix>3d</fix>
</trkpt>
<trkpt lat="-27.274439" lon="151.290064">
  <ele>342.93</ele>
  <time>2026-09-01T20:03:09Z</time>
  <course>10.7</course>
  <speed>0.0</speed>
  <fix>3d</fix>
</trkpt>
<trkpt lat="-27.274439" lon="151.290064">
  <ele>343.1</ele>
  <time>2026-09-01T20:03:09Z</time>
  <course>270.0</course>
  <speed>0.0</speed>
  <fix>3d</fix>
</trkpt>
<trkpt lat="-27.274439" lon="151.290064">
  <ele>343.07</ele>
  <time>2026-09-01T20:03:09Z</time>
  <course>10.71</course>
  <speed>0.0</speed>
  <fix>3d</fix>
</trkpt>
<trkpt lat="-27.274439" lon="151.290064">
  <ele>343.1</ele>
  <time>2026-09-01T20:03:09Z</time>
  <course>270.0</course>
  <speed>0.0</speed>
  <fix>3d</fix>
</trkpt>
<trkpt lat="-27.274439" lon="151.290064">
  <ele>342.94</ele>
  <time>2026-09-01T20:03:09Z</time>
  <course>10.72</course>
  <speed>0.0</speed>
  <fix>3d</fix>
</trkpt>
<trkpt lat="-27.274439" lon="151.290064">
  <ele>343.1</ele>
  <time>2026-09-01T20:03:09Z</time>
  <course>270.0</course>
  <speed>0.0</speed>
  <fix>3d</fix>
</trkpt>
<trkpt lat="-27.274439" lon="151.290064">
  <ele>343.11</ele>
  <time>2026-09-01T20:03:09Z</time>
  <course>10.73</course>
  <speed>0.0</speed>
  <fix>3d</fix>
</trkpt>
<trkpt lat="-27.274439" lon="151.290064">
  <ele>343.1</ele>
  <time>2026-09-01T20:03:09Z</time>
  <course>270.0</course>
  <speed>0.0</speed>
  <fix>3d</fix>
</trkpt>
<trkpt lat="-27.274439" lon="151.290064">
  <ele>343.24</ele>
  <time>2026-09-01T20:03:09Z</time>
  <course>10.73</course>
  <speed>0.0</speed>
  <fix>3d</fix>
</trkpt>
<trkpt lat="-27.274439" lon="151.290064">
  <ele>343.1</ele>
  <time>2026-09-01T20:03:09Z</time>
  <course>270.0</course>
  <speed>0.0</speed>
  <fix>3d</fix>
</trkpt>
<trkpt lat="-27.274439" lon="151.290064">
  <ele>343.18</ele>
  <time>2026-09-01T20:03:09Z</time>
  <course>10.74</course>
  <speed>0.0</speed>
  <fix>3d</fix>
</trkpt>
<trkpt lat="-27.274439" lon="151.290064">
  <ele>343.1</ele>
  <time>2026-09-01T20:03:09Z</time>
  <course>270.0</course>
  <speed>0.0</speed>
  <fix>3d</fix>
</trkpt>
<trkpt lat="-27.274439" lon="151.290064">
  <ele>342.89</ele>
  <time>2026-09-01T20:03:09Z</time>
  <course>10.75</course>
  <speed>0.0</speed>
  <fix>3d</fix>
</trkpt>
<trkpt lat="-27.274439" lon="151.290064">
  <ele>343.1</ele>
  <time>2026-09-01T20:03:09Z</time>
  <course>270.0</course>
  <speed>0.0</speed>
  <fix>3d</fix>
</trkpt>
<trkpt lat="-27.274439" lon="151.290064">
  <ele>343.23</ele>
  <time>2026-09-01T20:03:09Z</time>
  <course>10.75</course>
  <speed>0.0</speed>
  <fix>3d</fix>
</trkpt>
<trkpt lat="-27.274439" lon="151.290064">
  <ele>343.1</ele>
  <time>2026-09-01T20:03:09Z</time>
  <course>270.0</course>
  <speed>0.0</speed>
  <fix>3d</fix>
</trkpt>
<trkpt lat="-27.274439" lon="151.290064">
  <ele>343.23</ele>
  <time>2026-09-01T20:03:09Z</time>
  <course>10.76</course>
  <speed>0.0</speed>
  <fix>3d</fix>
</trkpt>
<trkpt lat="-27.274439" lon="151.290064">
  <ele>343.1</ele>
  <time>2026-09-01T20:03:09Z</time>
  <course>270.0</course>
  <speed>0.0</speed>
  <fix>3d</fix>
</trkpt>
<trkpt lat="-27.274439" lon="151.290064">
  <ele>342.99</ele>
  <time>2026-09-01T20:03:09Z</time>
  <course>10.76</course>
  <speed>0.0</speed>
  <fix>3d</fix>
</trkpt>
<trkpt lat="-27.274439" lon="151.290064">
  <ele>343.1</ele>
  <time>2026-09-01T20:03:09Z</time>
  <course>270.0</course>
  <speed>0.0</speed>
  <fix>3d</fix>
</trkpt>
<trkpt lat="-27.274439" lon="151.290064">
  <ele>343.13</ele>
  <time>2026-09-01T20:03:09Z</time>
  <course>10.76</course>
  <speed>0.0</speed>
  <fix>3d</fix>
</trkpt>
<trkpt lat="-27.274439" lon="151.290064">
  <ele>343.1</ele>
  <time>2026-09-01T20:03:09Z</time>
  <course>270.0</course>
  <speed>0.0</speed>
  <fix>3d</fix>
</trkpt>
<trkpt lat="-27.274439" lon="151.290064">
  <ele>343.07</ele>
  <time>2026-09-01T20:03:09Z</time>
  <course>10.77</course>
  <speed>0.0</speed>
  <fix>3d</fix>
</trkpt>
<trkpt lat="-27.274439" lon="151.290064">
  <ele>343.1</ele>
  <time>2026-09-01T20:03:09Z</time>
  <course>270.0</course>
  <speed>0.0</speed>
  <fix>3d</fix>
</trkpt>
<trkpt lat="-27.274439" lon="151.290064">
  <ele>343.19</ele>
  <time>2026-09-01T20:03:09Z</time>
  <course>10.77</course>
  <speed>0.0</speed>
  <fix>3d</fix>
</trkpt>
<trkpt lat="-27.274439" lon="151.290064">
  <ele>343.1</ele>
  <time>2026-09-01T20:03:09Z</time>
  <course>270.0</course>
  <speed>0.0</speed>
  <fix>3d</fix>
</trkpt>
<trkpt lat="-27.274439" lon="151.290064">
  <ele>342.93</ele>
  <time>2026-09-01T20:03:09Z</time>
  <course>10.77</course>
  <speed>0.0</speed>
  <fix>3d</fix>
</trkpt>
<trkpt lat="-27.274439" lon="151.290064">
  <ele>343.1</ele>
  <time>2026-09-01T20:03:09Z</time>
  <course>270.0</course>
  <speed>0.0</speed>
  <fix>3d</fix>
</trkpt>
<trkpt lat="-27.274439" lon="151.290064">
  <ele>343.19</ele>
  <time>2026-09-01T20:03:09Z</time>
  <course>10.78</course>
  <speed>0.0</speed>
  <fix>3d</fix>
</trkpt>
<trkpt lat="-27.274439" lon="151.290064">
  <ele>343.1</ele>
  <time>2026-09-01T20:03:09Z</time>
  <course>270.0</course>
  <speed>0.0</speed>
  <fix>3d</fix>
</trkpt>
<trkpt lat="-27.274439" lon="151.290064">
  <ele>343.1</ele>
  <time>2026-09-01T20:03:09Z</time>
  <course>10.78</course>
  <speed>0.0</speed>
  <fix>3d</fix>
</trkpt>
<trkpt lat="-27.274439" lon="151.290064">
  <ele>343.1</ele>
  <time>2026-09-01T20:03:09Z</time>
  <course>270.0</course>
  <speed>0.0</speed>
  <fix>3d</fix>
</trkpt>
<trkpt lat="-27.274439" lon="151.290064">
  <ele>343.01</ele>
  <time>2026-09-01T20:03:09Z</time>
  <course>10.78</course>
  <speed>0.0</speed>
  <fix>3d</fix>
</trkpt>
<trkpt lat="-27.274439" lon="151.290064">
  <ele>343.1</ele>
  <time>2026-09-01T20:03:09Z</time>
  <course>270.0</course>
  <speed>0.0</speed>
  <fix>3d</fix>
</trkpt>
<trkpt lat="-27.274439" lon="151.290064">
  <ele>343.11</ele>
  <time>2026-09-01T20:03:10Z</time>
  <course>10.78</course>
  <speed>0.0</speed>
  <fix>3d</fix>
</trkpt>
<trkpt lat="-27.274439" lon="151.290064">
  <ele>343.1</ele>
  <time>2026-09-01T20:03:10Z</time>
  <course>270.0</course>
  <speed>0.0</speed>
  <fix>3d</fix>
</trkpt>
<trkpt lat="-27.274439" lon="151.290064">
  <ele>342.96</ele>
  <time>2026-09-01T20:03:10Z</time>
  <course>10.78</course>
  <speed>0.0</speed>
  <fix>3d</fix>
</trkpt>
<trkpt lat="-27.274439" lon="151.290064">
  <ele>343.1</ele>
  <time>2026-09-01T20:03:10Z</time>
  <course>270.0</course>
  <speed>0.0</speed>
  <fix>3d</fix>
</trkpt>
<trkpt lat="-27.274439" lon="151.290064">
  <ele>343.19</ele>
  <time>2026-09-01T20:03:10Z</time>
  <course>10.79</course>
  <speed>0.0</speed>
  <fix>3d</fix>
</trkpt>
<trkpt lat="-27.274439" lon="151.290064">
  <ele>343.1</ele>
  <time>2026-09-01T20:03:10Z</time>
  <course>270.0</course>
  <speed>0.0</speed>
  <fix>3d</fix>
</trkpt>
<trkpt lat="-27.274439" lon="151.290064">
  <ele>343.0</ele>
  <time>2026-09-01T20:03:10Z</time>
  <course>10.79</course>
  <speed>0.0</speed>
  <fix>3d</fix>
</trkpt>
<trkpt lat="-27.274439" lon="151.290064">
  <ele>343.1</ele>
  <time>2026-09-01T20:03:10Z</time>
  <course>270.0</course>
  <speed>0.0</speed>
  <fix>3d</fix>
</trkpt>
<trkpt lat="-27.274439" lon="151.290064">
  <ele>343.2</ele>
  <time>2026-09-01T20:03:10Z</time>
  <course>10.79</course>
  <speed>0.0</speed>
  <fix>3d</fix>
</trkpt>
<trkpt lat="-27.274439" lon="151.290064">
  <ele>343.1</ele>
  <time>2026-09-01T20:03:10Z</time>
  <course>270.0</course>
  <speed>0.0</speed>
  <fix>3d</fix>
</trkpt>
<trkpt lat="-27.274439" lon="151.290064">
  <ele>343.2</ele>
  <time>2026-09-01T20:03:10Z</time>
  <course>10.79</course>
  <speed>0.0</speed>
  <fix>3d</fix>
</trkpt>
<trkpt lat="-27.274439" lon="151.290064">
  <ele>343.1</ele>
  <time>2026-09-01T20:03:10Z</time>
  <course>270.0</course>
  <speed>0.0</speed>
  <fix>3d</fix>
</trkpt>
<trkpt lat="-27.274439" lon="151.290064">
  <ele>343.13</ele>
  <time>2026-09-01T20:03:10Z</time>
  <course>10.79</course>
  <speed>0.0</speed>
  <fix>3d</fix>
</trkpt>
<trkpt lat="-27.274439" lon="151.290064">
  <ele>343.1</ele>
  <time>2026-09-01T20:03:10Z</time>
  <course>270.0</course>
  <speed>0.0</speed>
  <fix>3d</fix>
</trkpt>
<trkpt lat="-27.274439" lon="151.290064">
  <ele>343.1</ele>
  <time>2026-09-01T20:03:10Z</time>
  <course>10.79</course>
  <speed>0.0</speed>
  <fix>3d</fix>
</trkpt>
<trkpt lat="-27.274439" lon="151.290064">
  <ele>343.1</ele>
  <time>2026-09-01T20:03:10Z</time>
  <course>270.0</course>
  <speed>0.0</speed>
  <fix>3d</fix>
</trkpt>
<trkpt lat="-27.274439" lon="151.290064">
  <ele>343.12</ele>
  <time>2026-09-01T20:03:10Z</time>
  <course>10.79</course>
  <speed>0.0</speed>
  <fix>3d</fix>
</trkpt>
<trkpt lat="-27.274439" lon="151.290064">
  <ele>343.1</ele>
  <time>2026-09-01T20:03:10Z</time>
  <course>270.0</course>
  <speed>0.0</speed>
  <fix>3d</fix>
</trkpt>
<trkpt lat="-27.274439" lon="151.290064">
  <ele>342.94</ele>
  <time>2026-09-01T20:03:10Z</time>
  <course>10.79</course>
  <speed>0.0</speed>
  <fix>3d</fix>
</trkpt>
<trkpt lat="-27.274439" lon="151.290064">
  <ele>343.1</ele>
  <time>2026-09-01T20:03:10Z</time>
  <course>270.0</course>
  <speed>0.0</speed>
  <fix>3d</fix>
</trkpt>
<trkpt lat="-27.274439" lon="151.290064">
  <ele>343.25</ele>
  <time>2026-09-01T20:03:10Z</time>
  <course>10.79</course>
  <speed>0.0</speed>
  <fix>3d</fix>
</trkpt>
<trkpt lat="-27.274439" lon="151.290064">
  <ele>343.1</ele>
  <time>2026-09-01T20:03:10Z</time>
  <course>270.0</course>
  <speed>0.0</speed>
  <fix>3d</fix>
</trkpt>
<trkpt lat="-27.274439" lon="151.290064">
  <ele>342.93</ele>
  <time>2026-09-01T20:03:10Z</time>
  <course>10.79</course>
  <speed>0.0</speed>
  <fix>3d</fix>
</trkpt>
<trkpt lat="-27.274439" lon="151.290064">
  <ele>343.1</ele>
  <time>2026-09-01T20:03:10Z</time>
  <course>270.0</course>
  <speed>0.0</speed>
  <fix>3d</fix>
</trkpt>
<trkpt lat="-27.274439" lon="151.290064">
  <ele>343.08</ele>
  <time>2026-09-01T20:03:10Z</time>
  <course>10.8</course>
  <speed>0.0</speed>
  <fix>3d</fix>
</trkpt>
<trkpt lat="-27.274439" lon="151.290064">
  <ele>343.1</ele>
  <time>2026-09-01T20:03:10Z</time>
  <course>270.0</course>
  <speed>0.0</speed>
  <fix>3d</fix>
</trkpt>
<trkpt lat="-27.274439" lon="151.290064">
  <ele>343.23</ele>
  <time>2026-09-01T20:03:10Z</time>
  <course>10.8</course>
  <speed>0.0</speed>
  <fix>3d</fix>
</trkpt>
<trkpt lat="-27.274439" lon="151.290064">
  <ele>343.1</ele>
  <time>2026-09-01T20:03:10Z</time>
  <course>270.0</course>
  <speed>0.0</speed>
  <fix>3d</fix>
</trkpt>
<trkpt lat="-27.274439" lon="151.290064">
  <ele>343.01</ele>
  <time>2026-09-01T20:03:10Z</time>
  <course>10.8</course>
  <speed>0.0</speed>
  <fix>3d</fix>
</trkpt>
<trkpt lat="-27.274439" lon="151.290064">
  <ele>343.1</ele>
  <time>2026-09-01T20:03:10Z</time>
  <course>270.0</course>
  <speed>0.0</speed>
  <fix>3d</fix>
</trkpt>
<trkpt lat="-27.274439" lon="151.290064">
  <ele>343.1</ele>
  <time>2026-09-01T20:03:10Z</time>
  <course>10.8</course>
  <speed>0.0</speed>
  <fix>3d</fix>
</trkpt>
<trkpt lat="-27.274439" lon="151.290064">
  <ele>343.1</ele>
  <time>2026-09-01T20:03:10Z</time>
  <course>270.0</course>
  <speed>0.0</speed>
  <fix>3d</fix>
</trkpt>
<trkpt lat="-27.274439" lon="151.290064">
  <ele>342.99</ele>
  <time>2026-09-01T20:03:10Z</time>
  <course>10.8</course>
  <speed>0.0</speed>
  <fix>3d</fix>
</trkpt>
<trkpt lat="-27.274439" lon="151.290064">
  <ele>343.1</ele>
  <time>2026-09-01T20:03:10Z</time>
  <course>270.0</course>
  <speed>0.0</speed>
  <fix>3d</fix>
</trkpt>
<trkpt lat="-27.274439" lon="151.290064">
  <ele>342.87</ele>
  <time>2026-09-01T20:03:10Z</time>
  <course>10.8</course>
  <speed>0.0</speed>
  <fix>3d</fix>
</trkpt>
<trkpt lat="-27.274439" lon="151.290064">
  <ele>343.1</ele>
  <time>2026-09-01T20:03:10Z</time>
  <course>270.0</course>
  <speed>0.0</speed>
  <fix>3d</fix>
</trkpt>
<trkpt lat="-27.274439" lon="151.290064">
  <ele>343.1</ele>
  <time>2026-09-01T20:03:10Z</time>
  <course>10.8</course>
  <speed>0.0</speed>
  <fix>3d</fix>
</trkpt>
<trkpt lat="-27.274439" lon="151.290064">
  <ele>343.1</ele>
  <time>2026-09-01T20:03:10Z</time>
  <course>270.0</course>
  <speed>0.0</speed>
  <fix>3d</fix>
</trkpt>
<trkpt lat="-27.274439" lon="151.290064">
  <ele>342.99</ele>
  <time>2026-09-01T20:03:10Z</time>
  <course>10.8</course>
  <speed>0.0</speed>
  <fix>3d</fix>
</trkpt>
<trkpt lat="-27.274439" lon="151.290064">
  <ele>343.1</ele>
  <time>2026-09-01T20:03:10Z</time>
  <course>270.0</course>
  <speed>0.0</speed>
  <fix>3d</fix>
</trkpt>
<trkpt lat="-27.274439" lon="151.290064">
  <ele>342.91</ele>
  <time>2026-09-01T20:03:10Z</time>
  <course>10.8</course>
  <speed>0.0</speed>
  <fix>3d</fix>
</trkpt>
<trkpt lat="-27.274439" lon="151.290064">
  <ele>343.1</ele>
  <time>2026-09-01T20:03:10Z</time>
  <course>270.0</course>
  <speed>0.0</speed>
  <fix>3d</fix>
</trkpt>
<trkpt lat="-27.274439" lon="151.290064">
  <ele>342.9</ele>
  <time>2026-09-01T20:03:10Z</time>
  <course>10.8</course>
  <speed>0.0</speed>
  <fix>3d</fix>
</trkpt>
<trkpt lat="-27.274439" lon="151.290064">
  <ele>343.1</ele>
  <time>2026-09-01T20:03:10Z</time>
  <course>270.0</course>
  <speed>0.0</speed>
  <fix>3d</fix>
</trkpt>
<trkpt lat="-27.274439" lon="151.290064">
  <ele>342.87</ele>
  <time>2026-09-01T20:03:10Z</time>
  <course>10.8</course>
  <speed>0.0</speed>
  <fix>3d</fix>
</trkpt>
<trkpt lat="-27.274439" lon="151.290064">
  <ele>343.1</ele>
  <time>2026-09-01T20:03:10Z</time>
  <course>270.0</course>
  <speed>0.0</speed>
  <fix>3d</fix>
</trkpt>
<trkpt lat="-27.274439" lon="151.290064">
  <ele>343.12</ele>
  <time>2026-09-01T20:03:10Z</time>
  <course>10.8</course>
  <speed>0.0</speed>
  <fix>3d</fix>
</trkpt>
<trkpt lat="-27.274439" lon="151.290064">
  <ele>343.1</ele>
  <time>2026-09-01T20:03:10Z</time>
  <course>270.0</course>
  <speed>0.0</speed>
  <fix>3d</fix>
</trkpt>
<trkpt lat="-27.274439" lon="151.290064">
  <ele>342.99</ele>
  <time>2026-09-01T20:03:10Z</time>
  <course>10.8</course>
  <speed>0.0</speed>
  <fix>3d</fix>
</trkpt>
<trkpt lat="-27.274439" lon="151.290064">
  <ele>343.1</ele>
  <time>2026-09-01T20:03:10Z</time>
  <course>270.0</course>
  <speed>0.0</speed>
  <fix>3d</fix>
</trkpt>
<trkpt lat="-27.274439" lon="151.290064">
  <ele>343.13</ele>
  <time>2026-09-01T20:03:10Z</time>
  <course>10.8</course>
  <speed>0.0</speed>
  <fix>3d</fix>
</trkpt>
<trkpt lat="-27.274439" lon="151.290064">
  <ele>343.1</ele>
  <time>2026-09-01T20:03:10Z</time>
  <course>270.0</course>
  <speed>0.0</speed>
  <fix>3d</fix>
</trkpt>
<trkpt lat="-27.274439" lon="151.290064">
  <ele>343.0</ele>
  <time>2026-09-01T20:03:10Z</time>
  <course>10.8</course>
  <speed>0.0</speed>
  <fix>3d</fix>
</trkpt>
<trkpt lat="-27.274439" lon="151.290064">
  <ele>343.1</ele>
  <time>2026-09-01T20:03:10Z</time>
  <course>270.0</course>
  <speed>0.0</speed>
  <fix>3d</fix>
</trkpt>
<trkpt lat="-27.274439" lon="151.290064">
  <ele>343.17</ele>
  <time>2026-09-01T20:03:10Z</time>
  <course>10.8</course>
  <speed>0.0</speed>
  <fix>3d</fix>
</trkpt>
<trkpt lat="-27.274439" lon="151.290064">
  <ele>343.1</ele>
  <time>2026-09-01T20:03:10Z</time>
  <course>270.0</course>
  <speed>0.0</speed>
  <fix>3d</fix>
</trkpt>
<trkpt lat="-27.274439" lon="151.290064">
  <ele>343.0</ele>
  <time>2026-09-01T20:03:10Z</time>
  <course>10.8</course>
  <speed>0.0</speed>
  <fix>3d</fix>
</trkpt>
<trkpt lat="-27.274439" lon="151.290064">
  <ele>343.1</ele>
  <time>2026-09-01T20:03:10Z</time>
  <course>270.0</course>
  <speed>0.0</speed>
  <fix>3d</fix>
</trkpt>
<trkpt lat="-27.274439" lon="151.290064">
  <ele>342.99</ele>
  <time>2026-09-01T20:03:10Z</time>
  <course>10.8</course>
  <speed>0.0</speed>
  <fix>3d</fix>
</trkpt>
<trkpt lat="-27.274439" lon="151.290064">
  <ele>343.1</ele>
  <time>2026-09-01T20:03:10Z</time>
  <course>270.0</course>
  <speed>0.0</speed>
  <fix>3d</fix>
</trkpt>
<trkpt lat="-27.274439" lon="151.290064">
  <ele>343.17</ele>
  <time>2026-09-01T20:03:10Z</time>
  <course>10.8</course>
  <speed>0.0</speed>
  <fix>3d</fix>
</trkpt>
<trkpt lat="-27.274439" lon="151.290064">
  <ele>343.1</ele>
  <time>2026-09-01T20:03:10Z</time>
  <course>270.0</course>
  <speed>0.0</speed>
  <fix>3d</fix>
</trkpt>
<trkpt lat="-27.274439" lon="151.290064">
  <ele>343.16</ele>
  <time>2026-09-01T20:03:10Z</time>
  <course>10.8</course>
  <speed>0.0</speed>
  <fix>3d</fix>
</trkpt>
<trkpt lat="-27.274439" lon="151.290064">
  <ele>343.1</ele>
  <time>2026-09-01T20:03:10Z</time>
  <course>270.0</course>
  <speed>0.0</speed>
  <fix>3d</fix>
</trkpt>
<trkpt lat="-27.274439" lon="151.290064">
  <ele>342.87</ele>
  <time>2026-09-01T20:03:10Z</time>
  <course>10.8</course>
  <speed>0.0</speed>
  <fix>3d</fix>
</trkpt>
<trkpt lat="-27.274439" lon="151.290064">
  <ele>343.1</ele>
  <time>2026-09-01T20:03:10Z</time>
  <course>270.0</course>
  <speed>0.0</speed>
  <fix>3d</fix>
</trkpt>
<trkpt lat="-27.274439" lon="151.290064">
  <ele>343.19</ele>
  <time>2026-09-01T20:03:10Z</time>
  <course>10.8</course>
  <speed>0.0</speed>
  <fix>3d</fix>
</trkpt>
<trkpt lat="-27.274439" lon="151.290064">
  <ele>343.1</ele>
  <time>2026-09-01T20:03:10Z</time>
  <course>270.0</course>
  <speed>0.0</speed>
  <fix>3d</fix>
</trkpt>
<trkpt lat="-27.274439" lon="151.290064">
  <ele>343.16</ele>
  <time>2026-09-01T20:03:10Z</time>
  <course>10.8</course>
  <speed>0.0</speed>
  <fix>3d</fix>
</trkpt>
<trkpt lat="-27.274439" lon="151.290064">
  <ele>343.1</ele>
  <time>2026-09-01T20:03:10Z</time>
  <course>270.0</course>
  <speed>0.0</speed>
  <fix>3d</fix>
</trkpt>
<trkpt lat="-27.274439" lon="151.290064">
  <ele>343.21</ele>
  <time>2026-09-01T20:03:10Z</time>
  <course>10.8</course>
  <speed>0.0</speed>
  <fix>3d</fix>
</trkpt>
<trkpt lat="-27.274439" lon="151.290064">
  <ele>343.1</ele>
  <time>2026-09-01T20:03:10Z</time>
  <course>270.0</course>
  <speed>0.0</speed>
  <fix>3d</fix>
</trkpt>
<trkpt lat="-27.274439" lon="151.290064">
  <ele>343.22</ele>
  <time>2026-09-01T20:03:10Z</time>
  <course>10.8</course>
  <speed>0.0</speed>
  <fix>3d</fix>
</trkpt>
<trkpt lat="-27.274439" lon="151.290064">
  <ele>343.1</ele>
  <time>2026-09-01T20:03:10Z</time>
  <course>270.0</course>
  <speed>0.0</speed>
  <fix>3d</fix>
</trkpt>
<trkpt lat="-27.274439" lon="151.290064">
  <ele>343.24</ele>
  <time>2026-09-01T20:03:10Z</time>
  <course>10.8</course>
  <speed>0.0</speed>
  <fix>3d</fix>
</trkpt>
<trkpt lat="-27.274439" lon="151.290064">
  <ele>343.1</ele>
  <time>2026-09-01T20:03:10Z</time>
  <course>270.0</course>
  <speed>0.0</speed>
  <fix>3d</fix>
</trkpt>
<trkpt lat="-27.274439" lon="151.290064">
  <ele>343.0</ele>
  <time>2026-09-01T20:03:10Z</time>
  <course>10.8</course>
  <speed>0.0</speed>
  <fix>3d</fix>
</trkpt>
<trkpt lat="-27.274439" lon="151.290064">
  <ele>343.1</ele>
  <time>2026-09-01T20:03:10Z</time>
  <course>270.0</course>
  <speed>0.0</speed>
  <fix>3d</fix>
</trkpt>
<trkpt lat="-27.274439" lon="151.290064">
  <ele>343.1</ele>
  <time>2026-09-01T20:03:10Z</time>
  <course>10.8</course>
  <speed>0.0</speed>
  <fix>3d</fix>
</trkpt>
<trkpt lat="-27.274439" lon="151.290064">
  <ele>343.1</ele>
  <time>2026-09-01T20:03:10Z</time>
  <course>270.0</course>
  <speed>0.0</speed>
  <fix>3d</fix>
</trkpt>
<trkpt lat="-27.274439" lon="151.290064">
  <ele>343.05</ele>
  <time>2026-09-01T20:03:10Z</time>
  <course>10.8</course>
  <speed>0.0</speed>
  <fix>3d</fix>
</trkpt>
<trkpt lat="-27.274439" lon="151.290064">
  <ele>343.1</ele>
  <time>2026-09-01T20:03:10Z</time>
  <course>270.0</course>
  <speed>0.0</speed>
  <fix>3d</fix>
</trkpt>
<trkpt lat="-27.274439" lon="151.290064">
  <ele>342.87</ele>
  <time>2026-09-01T20:03:10Z</time>
  <course>10.8</course>
  <speed>0.0</speed>
  <fix>3d</fix>
</trkpt>
<trkpt lat="-27.274439" lon="151.290064">
  <ele>343.1</ele>
  <time>2026-09-01T20:03:10Z</time>
  <course>270.0</course>
  <speed>0.0</speed>
  <fix>3d</fix>
</trkpt>
<trkpt lat="-27.274439" lon="151.290064">
  <ele>342.92</ele>
  <time>2026-09-01T20:03:10Z</time>
  <course>10.8</course>
  <speed>0.0</speed>
  <fix>3d</fix>
</trkpt>
<trkpt lat="-27.274439" lon="151.290064">
  <ele>343.1</ele>
  <time>2026-09-01T20:03:10Z</time>
  <course>270.0</course>
  <speed>0.0</speed>
  <fix>3d</fix>
</trkpt>
<trkpt lat="-27.274439" lon="151.290064">
  <ele>342.96</ele>
  <time>2026-09-01T20:03:10Z</time>
  <course>10.8</course>
  <speed>0.0</speed>
  <fix>3d</fix>
</trkpt>
<trkpt lat="-27.274439" lon="151.290064">
  <ele>343.1</ele>
  <time>2026-09-01T20:03:10Z</time>
  <course>270.0</course>
  <speed>0.0</speed>
  <fix>3d</fix>
</trkpt>
<trkpt lat="-27.274439" lon="151.290064">
  <ele>343.15</ele>
  <time>2026-09-01T20:03:10Z</time>
  <course>10.8</course>
  <speed>0.0</speed>
  <fix>3d</fix>
</trkpt>
<trkpt lat="-27.274439" lon="151.290064">
  <ele>343.1</ele>
  <time>2026-09-01T20:03:10Z</time>
  <course>270.0</course>
  <speed>0.0</speed>
  <fix>3d</fix>
</trkpt>
<trkpt lat="-27.274439" lon="151.290064">
  <ele>343.16</ele>
  <time>2026-09-01T20:03:10Z</time>
  <course>10.8</course>
  <speed>0.0</speed>
  <fix>3d</fix>
</trkpt>
<trkpt lat="-27.274439" lon="151.290064">
  <ele>343.1</ele>
  <time>2026-09-01T20:03:10Z</time>
  <course>270.0</course>
  <speed>0.0</speed>
  <fix>3d</fix>
</trkpt>
<trkpt lat="-27.274439" lon="151.290064">
  <ele>343.2</ele>
  <time>2026-09-01T20:03:10Z</time>
  <course>10.81</course>
  <speed>0.0</speed>
  <fix>3d</fix>
</trkpt>
<trkpt lat="-27.274439" lon="151.290064">
  <ele>343.1</ele>
  <time>2026-09-01T20:03:10Z</time>
  <course>270.0</course>
  <speed>0.0</speed>
  <fix>3d</fix>
</trkpt>
<trkpt lat="-27.274439" lon="151.290064">
  <ele>343.13</ele>
  <time>2026-09-01T20:03:10Z</time>
  <course>10.82</course>
  <speed>0.0</speed>
  <fix>3d</fix>
</trkpt>
<trkpt lat="-27.274439" lon="151.290064">
  <ele>343.1</ele>
  <time>2026-09-01T20:03:10Z</time>
  <course>270.0</course>
  <speed>0.0</speed>
  <fix>3d</fix>
</trkpt>
<trkpt lat="-27.274439" lon="151.290064">
  <ele>343.09</ele>
  <time>2026-09-01T20:03:10Z</time>
  <course>10.71</course>
  <speed>0.0</speed>
  <fix>3d</fix>
</trkpt>
<trkpt lat="-27.274439" lon="151.290064">
  <ele>343.1</ele>
  <time>2026-09-01T20:03:10Z</time>
  <course>270.0</course>
  <speed>0.0</speed>
  <fix>3d</fix>
</trkpt>
<trkpt lat="-27.274439" lon="151.290064">
  <ele>343.09</ele>
  <time>2026-09-01T20:03:10Z</time>
  <course>10.71</course>
  <speed>0.0</speed>
  <fix>3d</fix>
</trkpt>
<trkpt lat="-27.274439" lon="151.290064">
  <ele>343.1</ele>
  <time>2026-09-01T20:03:10Z</time>
  <course>270.0</course>
  <speed>0.0</speed>
  <fix>3d</fix>
</trkpt>
<trkpt lat="-27.274439" lon="151.290064">
  <ele>343.1</ele>
  <time>2026-09-01T20:03:10Z</time>
  <course>10.71</course>
  <speed>0.0</speed>
  <fix>3d</fix>
</trkpt>
<trkpt lat="-27.274439" lon="151.290064">
  <ele>343.1</ele>
  <time>2026-09-01T20:03:10Z</time>
  <course>270.0</course>
  <speed>0.0</speed>
  <fix>3d</fix>
</trkpt>
<trkpt lat="-27.274439" lon="151.290064">
  <ele>343.1</ele>
  <time>2026-09-01T20:03:10Z</time>
  <course>10.71</course>
  <speed>0.0</speed>
  <fix>3d</fix>
</trkpt>
<trkpt lat="-27.274439" lon="151.290064">
  <ele>343.1</ele>
  <time>2026-09-01T20:03:10Z</time>
  <course>270.0</course>
  <speed>0.0</speed>
  <fix>3d</fix>
</trkpt>
<trkpt lat="-27.274439" lon="151.290064">
  <ele>343.1</ele>
  <time>2026-09-01T20:03:10Z</time>
  <course>10.71</course>
  <speed>0.0</speed>
  <fix>3d</fix>
</trkpt>
<trkpt lat="-27.274439" lon="151.290064">
  <ele>343.1</ele>
  <time>2026-09-01T20:03:10Z</time>
  <course>270.0</course>
  <speed>0.0</speed>
  <fix>3d</fix>
</trkpt>
<trkpt lat="-27.274439" lon="151.290064">
  <ele>343.1</ele>
  <time>2026-09-01T20:03:10Z</time>
  <course>10.71</course>
  <speed>0.0</speed>
  <fix>3d</fix>
</trkpt>
<trkpt lat="-27.274439" lon="151.290064">
  <ele>343.1</ele>
  <time>2026-09-01T20:03:10Z</time>
  <course>270.0</course>
  <speed>0.0</speed>
  <fix>3d</fix>
</trkpt>
<trkpt lat="-27.274439" lon="151.290064">
  <ele>343.1</ele>
  <time>2026-09-01T20:03:10Z</time>
  <course>10.71</course>
  <speed>0.0</speed>
  <fix>3d</fix>
</trkpt>
<trkpt lat="-27.274439" lon="151.290064">
  <ele>343.1</ele>
  <time>2026-09-01T20:03:10Z</time>
  <course>270.0</course>
  <speed>0.0</speed>
  <fix>3d</fix>
</trkpt>
<trkpt lat="-27.274439" lon="151.290064">
  <ele>343.11</ele>
  <time>2026-09-01T20:03:10Z</time>
  <course>10.71</course>
  <speed>0.0</speed>
  <fix>3d</fix>
</trkpt>
<trkpt lat="-27.274439" lon="151.290064">
  <ele>343.1</ele>
  <time>2026-09-01T20:03:10Z</time>
  <course>270.0</course>
  <speed>0.0</speed>
  <fix>3d</fix>
</trkpt>
<trkpt lat="-27.274439" lon="151.290064">
  <ele>343.11</ele>
  <time>2026-09-01T20:03:10Z</time>
  <course>10.71</course>
  <speed>0.0</speed>
  <fix>3d</fix>
</trkpt>
<trkpt lat="-27.274439" lon="151.290064">
  <ele>343.1</ele>
  <time>2026-09-01T20:03:10Z</time>
  <course>270.0</course>
  <speed>0.0</speed>
  <fix>3d</fix>
</trkpt>
<trkpt lat="-27.274439" lon="151.290064">
  <ele>343.11</ele>
  <time>2026-09-01T20:03:10Z</time>
  <course>10.71</course>
  <speed>0.0</speed>
  <fix>3d</fix>
</trkpt>
<trkpt lat="-27.274439" lon="151.290064">
  <ele>343.1</ele>
  <time>2026-09-01T20:03:10Z</time>
  <course>270.0</course>
  <speed>0.0</speed>
  <fix>3d</fix>
</trkpt>
<trkpt lat="-27.274439" lon="151.290064">
  <ele>343.12</ele>
  <time>2026-09-01T20:03:10Z</time>
  <course>10.71</course>
  <speed>0.0</speed>
  <fix>3d</fix>
</trkpt>
<trkpt lat="-27.274439" lon="151.290064">
  <ele>343.1</ele>
  <time>2026-09-01T20:03:10Z</time>
  <course>270.0</course>
  <speed>0.0</speed>
  <fix>3d</fix>
</trkpt>
<trkpt lat="-27.274439" lon="151.290064">
  <ele>343.12</ele>
  <time>2026-09-01T20:03:10Z</time>
  <course>10.71</course>
  <speed>0.0</speed>
  <fix>3d</fix>
</trkpt>
<trkpt lat="-27.274439" lon="151.290064">
  <ele>343.1</ele>
  <time>2026-09-01T20:03:10Z</time>
  <course>270.0</course>
  <speed>0.0</speed>
  <fix>3d</fix>
</trkpt>
<trkpt lat="-27.274439" lon="151.290064">
  <ele>343.1</ele>
  <time>2026-09-01T20:03:10Z</time>
  <course>10.71</course>
  <speed>0.0</speed>
  <fix>3d</fix>
</trkpt>
<trkpt lat="-27.274439" lon="151.290064">
  <ele>343.1</ele>
  <time>2026-09-01T20:03:10Z</time>
  <course>270.0</course>
  <speed>0.0</speed>
  <fix>3d</fix>
</trkpt>
<trkpt lat="-27.274439" lon="151.290064">
  <ele>343.1</ele>
  <time>2026-09-01T20:03:10Z</time>
  <course>10.71</course>
  <speed>0.0</speed>
  <fix>3d</fix>
</trkpt>
<trkpt lat="-27.274439" lon="151.290064">
  <ele>343.1</ele>
  <time>2026-09-01T20:03:10Z</time>
  <course>270.0</course>
  <speed>0.0</speed>
  <fix>3d</fix>
</trkpt>
<trkpt lat="-27.274439" lon="151.290064">
  <ele>343.1</ele>
  <time>2026-09-01T20:03:10Z</time>
  <course>10.71</course>
  <speed>0.0</speed>
  <fix>3d</fix>
</trkpt>
<trkpt lat="-27.274439" lon="151.290064">
  <ele>343.1</ele>
  <time>2026-09-01T20:03:10Z</time>
  <course>270.0</course>
  <speed>0.0</speed>
  <fix>3d</fix>
</trkpt>
<trkpt lat="-27.274439" lon="151.290064">
  <ele>343.09</ele>
  <time>2026-09-01T20:03:10Z</time>
  <course>10.71</course>
  <speed>0.0</speed>
  <fix>3d</fix>
</trkpt>
<trkpt lat="-27.274439" lon="151.290064">
  <ele>343.1</ele>
  <time>2026-09-01T20:03:10Z</time>
  <course>270.0</course>
  <speed>0.0</speed>
  <fix>3d</fix>
</trkpt>
<trkpt lat="-27.274439" lon="151.290064">
  <ele>343.09</ele>
  <time>2026-09-01T20:03:10Z</time>
  <course>10.71</course>
  <speed>0.0</speed>
  <fix>3d</fix>
</trkpt>
<trkpt lat="-27.274439" lon="151.290064">
  <ele>343.1</ele>
  <time>2026-09-01T20:03:10Z</time>
  <course>270.0</course>
  <speed>0.0</speed>
  <fix>3d</fix>
</trkpt>
<trkpt lat="-27.274439" lon="151.290064">
  <ele>343.09</ele>
  <time>2026-09-01T20:03:10Z</time>
  <course>10.71</course>
  <speed>0.0</speed>
  <fix>3d</fix>
</trkpt>
<trkpt lat="-27.274439" lon="151.290064">
  <ele>343.1</ele>
  <time>2026-09-01T20:03:10Z</time>
  <course>270.0</course>
  <speed>0.0</speed>
  <fix>3d</fix>
</trkpt>
<trkpt lat="-27.274439" lon="151.290064">
  <ele>343.1</ele>
  <time>2026-09-01T20:03:10Z</time>
  <course>10.71</course>
  <speed>0.0</speed>
  <fix>3d</fix>
</trkpt>
<trkpt lat="-27.274439" lon="151.290064">
  <ele>343.1</ele>
  <time>2026-09-01T20:03:10Z</time>
  <course>270.0</course>
  <speed>0.0</speed>
  <fix>3d</fix>
</trkpt>
<trkpt lat="-27.274439" lon="151.290064">
  <ele>343.1</ele>
  <time>2026-09-01T20:03:10Z</time>
  <course>10.71</course>
  <speed>0.0</speed>
  <fix>3d</fix>
</trkpt>
<trkpt lat="-27.274439" lon="151.290064">
  <ele>343.1</ele>
  <time>2026-09-01T20:03:10Z</time>
  <course>270.0</course>
  <speed>0.0</speed>
  <fix>3d</fix>
</trkpt>
<trkpt lat="-27.274439" lon="151.290064">
  <ele>343.09</ele>
  <time>2026-09-01T20:03:10Z</time>
  <course>10.71</course>
  <speed>0.0</speed>
  <fix>3d</fix>
</trkpt>
<trkpt lat="-27.274439" lon="151.290064">
  <ele>343.1</ele>
  <time>2026-09-01T20:03:10Z</time>
  <course>270.0</course>
  <speed>0.0</speed>
  <fix>3d</fix>
</trkpt>
<trkpt lat="-27.274439" lon="151.290064">
  <ele>343.09</ele>
  <time>2026-09-01T20:03:10Z</time>
  <course>10.71</course>
  <speed>0.0</speed>
  <fix>3d</fix>
</trkpt>
<trkpt lat="-27.274439" lon="151.290064">
  <ele>343.1</ele>
  <time>2026-09-01T20:03:10Z</time>
  <course>270.0</course>
  <speed>0.0</speed>
  <fix>3d</fix>
</trkpt>
<trkpt lat="-27.274439" lon="151.290064">
  <ele>343.09</ele>
  <time>2026-09-01T20:03:10Z</time>
  <course>10.71</course>
  <speed>0.0</speed>
  <fix>3d</fix>
</trkpt>
<trkpt lat="-27.274439" lon="151.290064">
  <ele>343.1</ele>
  <time>2026-09-01T20:03:10Z</time>
  <course>270.0</course>
  <speed>0.0</speed>
  <fix>3d</fix>
</trkpt>
<trkpt lat="-27.274439" lon="151.290064">
  <ele>343.09</ele>
  <time>2026-09-01T20:03:10Z</time>
  <course>10.71</course>
  <speed>0.0</speed>
  <fix>3d</fix>
</trkpt>
<trkpt lat="-27.274439" lon="151.290064">
  <ele>343.1</ele>
  <time>2026-09-01T20:03:10Z</time>
  <course>270.0</course>
  <speed>0.0</speed>
  <fix>3d</fix>
</trkpt>
<trkpt lat="-27.274439" lon="151.290064">
  <ele>343.09</ele>
  <time>2026-09-01T20:03:10Z</time>
  <course>10.71</course>
  <speed>0.0</speed>
  <fix>3d</fix>
</trkpt>
<trkpt lat="-27.274439" lon="151.290064">
  <ele>343.1</ele>
  <time>2026-09-01T20:03:10Z</time>
  <course>270.0</course>
  <speed>0.0</speed>
  <fix>3d</fix>
</trkpt>
<trkpt lat="-27.274439" lon="151.290064">
  <ele>343.09</ele>
  <time>2026-09-01T20:03:10Z</time>
  <course>10.71</course>
  <speed>0.0</speed>
  <fix>3d</fix>
</trkpt>
<trkpt lat="-27.274439" lon="151.290064">
  <ele>343.1</ele>
  <time>2026-09-01T20:03:10Z</time>
  <course>270.0</course>
  <speed>0.0</speed>
  <fix>3d</fix>
</trkpt>
<trkpt lat="-27.274439" lon="151.290064">
  <ele>343.09</ele>
  <time>2026-09-01T20:03:10Z</time>
  <course>10.71</course>
  <speed>0.0</speed>
  <fix>3d</fix>
</trkpt>
<trkpt lat="-27.274439" lon="151.290064">
  <ele>343.1</ele>
  <time>2026-09-01T20:03:10Z</time>
  <course>270.0</course>
  <speed>0.0</speed>
  <fix>3d</fix>
</trkpt>
<trkpt lat="-27.274439" lon="151.290064">
  <ele>343.09</ele>
  <time>2026-09-01T20:03:10Z</time>
  <course>10.71</course>
  <speed>0.0</speed>
  <fix>3d</fix>
</trkpt>
<trkpt lat="-27.274439" lon="151.290064">
  <ele>343.1</ele>
  <time>2026-09-01T20:03:10Z</time>
  <course>270.0</course>
  <speed>0.0</speed>
  <fix>3d</fix>
</trkpt>
<trkpt lat="-27.274439" lon="151.290064">
  <ele>343.1</ele>
  <time>2026-09-01T20:03:10Z</time>
  <course>10.71</course>
  <speed>0.0</speed>
  <fix>3d</fix>
</trkpt>
<trkpt lat="-27.274439" lon="151.290064">
  <ele>343.1</ele>
  <time>2026-09-01T20:03:10Z</time>
  <course>270.0</course>
  <speed>0.0</speed>
  <fix>3d</fix>
</trkpt>
<trkpt lat="-27.274439" lon="151.290064">
  <ele>343.1</ele>
  <time>2026-09-01T20:03:10Z</time>
  <course>10.71</course>
  <speed>0.0</speed>
  <fix>3d</fix>
</trkpt>
<trkpt lat="-27.274439" lon="151.290064">
  <ele>343.1</ele>
  <time>2026-09-01T20:03:10Z</time>
  <course>270.0</course>
  <speed>0.0</speed>
  <fix>3d</fix>
</trkpt>
<trkpt lat="-27.274439" lon="151.290064">
  <ele>343.1</ele>
  <time>2026-09-01T20:03:10Z</time>
  <course>10.71</course>
  <speed>0.0</speed>
  <fix>3d</fix>
</trkpt>
<trkpt lat="-27.274439" lon="151.290064">
  <ele>343.1</ele>
  <time>2026-09-01T20:03:10Z</time>
  <course>270.0</course>
  <speed>0.0</speed>
  <fix>3d</fix>
</trkpt>
<trkpt lat="-27.274439" lon="151.290064">
  <ele>343.1</ele>
  <time>2026-09-01T20:03:10Z</time>
  <course>10.71</course>
  <speed>0.0</speed>
  <fix>3d</fix>
</trkpt>
<trkpt lat="-27.274439" lon="151.290064">
  <ele>343.1</ele>
  <time>2026-09-01T20:03:10Z</time>
  <course>270.0</course>
  <speed>0.0</speed>
  <fix>3d</fix>
</trkpt>
<trkpt lat="-27.274439" lon="151.290064">
  <ele>343.11</ele>
  <time>2026-09-01T20:03:10Z</time>
  <course>10.71</course>
  <speed>0.0</speed>
  <fix>3d</fix>
</trkpt>
<trkpt lat="-27.274439" lon="151.290064">
  <ele>343.1</ele>
  <time>2026-09-01T20:03:10Z</time>
  <course>270.0</course>
  <speed>0.0</speed>
  <fix>3d</fix>
</trkpt>
<trkpt lat="-27.274439" lon="151.290064">
  <ele>343.11</ele>
  <time>2026-09-01T20:03:10Z</time>
  <course>10.71</course>
  <speed>0.0</speed>
  <fix>3d</fix>
</trkpt>
<trkpt lat="-27.274439" lon="151.290064">
  <ele>343.1</ele>
  <time>2026-09-01T20:03:10Z</time>
  <course>270.0</course>
  <speed>0.0</speed>
  <fix>3d</fix>
</trkpt>
<trkpt lat="-27.274439" lon="151.290064">
  <ele>343.11</ele>
  <time>2026-09-01T20:03:10Z</time>
  <course>10.71</course>
  <speed>0.0</speed>
  <fix>3d</fix>
</trkpt>
<trkpt lat="-27.274439" lon="151.290064">
  <ele>343.1</ele>
  <time>2026-09-01T20:03:10Z</time>
  <course>270.0</course>
  <speed>0.0</speed>
  <fix>3d</fix>
</trkpt>
<trkpt lat="-27.274439" lon="151.290064">
  <ele>343.11</ele>
  <time>2026-09-01T20:03:10Z</time>
  <course>10.71</course>
  <speed>0.0</speed>
  <fix>3d</fix>
</trkpt>
<trkpt lat="-27.274439" lon="151.290064">
  <ele>343.1</ele>
  <time>2026-09-01T20:03:10Z</time>
  <course>270.0</course>
  <speed>0.0</speed>
  <fix>3d</fix>
</trkpt>
<trkpt lat="-27.274439" lon="151.290064">
  <ele>343.12</ele>
  <time>2026-09-01T20:03:10Z</time>
  <course>10.71</course>
  <speed>0.0</speed>
  <fix>3d</fix>
</trkpt>
<trkpt lat="-27.274439" lon="151.290064">
  <ele>343.1</ele>
  <time>2026-09-01T20:03:10Z</time>
  <course>270.0</course>
  <speed>0.0</speed>
  <fix>3d</fix>
</trkpt>
<trkpt lat="-27.274439" lon="151.290064">
  <ele>343.12</ele>
  <time>2026-09-01T20:03:10Z</time>
  <course>10.71</course>
  <speed>0.0</speed>
  <fix>3d</fix>
</trkpt>
<trkpt lat="-27.274439" lon="151.290064">
  <ele>343.1</ele>
  <time>2026-09-01T20:03:10Z</time>
  <course>270.0</course>
  <speed>0.0</speed>
  <fix>3d</fix>
</trkpt>
<trkpt lat="-27.274439" lon="151.290064">
  <ele>343.12</ele>
  <time>2026-09-01T20:03:10Z</time>
  <course>10.71</course>
  <speed>0.0</speed>
  <fix>3d</fix>
</trkpt>
<trkpt lat="-27.274439" lon="151.290064">
  <ele>343.1</ele>
  <time>2026-09-01T20:03:10Z</time>
  <course>270.0</course>
  <speed>0.0</speed>
  <fix>3d</fix>
</trkpt>
<trkpt lat="-27.274439" lon="151.290064">
  <ele>343.12</ele>
  <time>2026-09-01T20:03:10Z</time>
  <course>10.71</course>
  <speed>0.0</speed>
  <fix>3d</fix>
</trkpt>
<trkpt lat="-27.274439" lon="151.290064">
  <ele>343.1</ele>
  <time>2026-09-01T20:03:10Z</time>
  <course>270.0</course>
  <speed>0.0</speed>
  <fix>3d</fix>
</trkpt>
<trkpt lat="-27.274439" lon="151.290064">
  <ele>343.12</ele>
  <time>2026-09-01T20:03:10Z</time>
  <course>10.71</course>
  <speed>0.0</speed>
  <fix>3d</fix>
</trkpt>
<trkpt lat="-27.274439" lon="151.290064">
  <ele>343.1</ele>
  <time>2026-09-01T20:03:10Z</time>
  <course>270.0</course>
  <speed>0.0</speed>
  <fix>3d</fix>
</trkpt>
<trkpt lat="-27.274439" lon="151.290064">
  <ele>343.13</ele>
  <time>2026-09-01T20:03:10Z</time>
  <course>10.71</course>
  <speed>0.0</speed>
  <fix>3d</fix>
</trkpt>
<trkpt lat="-27.274439" lon="151.290064">
  <ele>343.1</ele>
  <time>2026-09-01T20:03:10Z</time>
  <course>270.0</course>
  <speed>0.0</speed>
  <fix>3d</fix>
</trkpt>
<trkpt lat="-27.274439" lon="151.290064">
  <ele>343.13</ele>
  <time>2026-09-01T20:03:10Z</time>
  <course>10.71</course>
  <speed>0.0</speed>
  <fix>3d</fix>
</trkpt>
<trkpt lat="-27.274439" lon="151.290064">
  <ele>343.1</ele>
  <time>2026-09-01T20:03:10Z</time>
  <course>270.0</course>
  <speed>0.0</speed>
  <fix>3d</fix>
</trkpt>
<trkpt lat="-27.274439" lon="151.290064">
  <ele>343.13</ele>
  <time>2026-09-01T20:03:10Z</time>
  <course>10.71</course>
  <speed>0.0</speed>
  <fix>3d</fix>
</trkpt>
<trkpt lat="-27.274439" lon="151.290064">
  <ele>343.1</ele>
  <time>2026-09-01T20:03:10Z</time>
  <course>270.0</course>
  <speed>0.0</speed>
  <fix>3d</fix>
</trkpt>
<trkpt lat="-27.274439" lon="151.290064">
  <ele>343.13</ele>
  <time>2026-09-01T20:03:10Z</time>
  <course>10.71</course>
  <speed>0.0</speed>
  <fix>3d</fix>
</trkpt>
<trkpt lat="-27.274439" lon="151.290064">
  <ele>343.1</ele>
  <time>2026-09-01T20:03:10Z</time>
  <course>270.0</course>
  <speed>0.0</speed>
  <fix>3d</fix>
</trkpt>
<trkpt lat="-27.274439" lon="151.290064">
  <ele>343.14</ele>
  <time>2026-09-01T20:03:10Z</time>
  <course>10.71</course>
  <speed>0.0</speed>
  <fix>3d</fix>
</trkpt>
<trkpt lat="-27.274439" lon="151.290064">
  <ele>343.1</ele>
  <time>2026-09-01T20:03:10Z</time>
  <course>270.0</course>
  <speed>0.0</speed>
  <fix>3d</fix>
</trkpt>
<trkpt lat="-27.274439" lon="151.290064">
  <ele>343.14</ele>
  <time>2026-09-01T20:03:10Z</time>
  <course>10.71</course>
  <speed>0.0</speed>
  <fix>3d</fix>
</trkpt>
<trkpt lat="-27.274439" lon="151.290064">
  <ele>343.1</ele>
  <time>2026-09-01T20:03:10Z</time>
  <course>270.0</course>
  <speed>0.0</speed>
  <fix>3d</fix>
</trkpt>
<trkpt lat="-27.274439" lon="151.290064">
  <ele>343.14</ele>
  <time>2026-09-01T20:03:10Z</time>
  <course>10.71</course>
  <speed>0.0</speed>
  <fix>3d</fix>
</trkpt>
<trkpt lat="-27.274439" lon="151.290064">
  <ele>343.1</ele>
  <time>2026-09-01T20:03:10Z</time>
  <course>270.0</course>
  <speed>0.0</speed>
  <fix>3d</fix>
</trkpt>
<trkpt lat="-27.274439" lon="151.290064">
  <ele>343.14</ele>
  <time>2026-09-01T20:03:10Z</time>
  <course>10.71</course>
  <speed>0.0</speed>
  <fix>3d</fix>
</trkpt>
<trkpt lat="-27.274439" lon="151.290064">
  <ele>343.1</ele>
  <time>2026-09-01T20:03:10Z</time>
  <course>270.0</course>
  <speed>0.0</speed>
  <fix>3d</fix>
</trkpt>
<trkpt lat="-27.274439" lon="151.290064">
  <ele>343.14</ele>
  <time>2026-09-01T20:03:10Z</time>
  <course>10.71</course>
  <speed>0.0</speed>
  <fix>3d</fix>
</trkpt>
<trkpt lat="-27.274439" lon="151.290064">
  <ele>343.1</ele>
  <time>2026-09-01T20:03:10Z</time>
  <course>270.0</course>
  <speed>0.0</speed>
  <fix>3d</fix>
</trkpt>
<trkpt lat="-27.274439" lon="151.290064">
  <ele>343.14</ele>
  <time>2026-09-01T20:03:10Z</time>
  <course>10.71</course>
  <speed>0.0</speed>
  <fix>3d</fix>
</trkpt>
<trkpt lat="-27.274439" lon="151.290064">
  <ele>343.1</ele>
  <time>2026-09-01T20:03:10Z</time>
  <course>270.0</course>
  <speed>0.0</speed>
  <fix>3d</fix>
</trkpt>
<trkpt lat="-27.274439" lon="151.290064">
  <ele>343.14</ele>
  <time>2026-09-01T20:03:10Z</time>
  <course>10.71</course>
  <speed>0.0</speed>
  <fix>3d</fix>
</trkpt>
<trkpt lat="-27.274439" lon="151.290064">
  <ele>343.1</ele>
  <time>2026-09-01T20:03:10Z</time>
  <course>270.0</course>
  <speed>0.0</speed>
  <fix>3d</fix>
</trkpt>
<trkpt lat="-27.274439" lon="151.290064">
  <ele>343.14</ele>
  <time>2026-09-01T20:03:10Z</time>
  <course>10.71</course>
  <speed>0.0</speed>
  <fix>3d</fix>
</trkpt>
<trkpt lat="-27.274439" lon="151.290064">
  <ele>343.1</ele>
  <time>2026-09-01T20:03:10Z</time>
  <course>270.0</course>
  <speed>0.0</speed>
  <fix>3d</fix>
</trkpt>
<trkpt lat="-27.274439" lon="151.290064">
  <ele>343.13</ele>
  <time>2026-09-01T20:03:10Z</time>
  <course>10.71</course>
  <speed>0.0</speed>
  <fix>3d</fix>
</trkpt>
<trkpt lat="-27.274439" lon="151.290064">
  <ele>343.1</ele>
  <time>2026-09-01T20:03:10Z</time>
  <course>270.0</course>
  <speed>0.0</speed>
  <fix>3d</fix>
</trkpt>
<trkpt lat="-27.274439" lon="151.290064">
  <ele>343.13</ele>
  <time>2026-09-01T20:03:10Z</time>
  <course>10.71</course>
  <speed>0.0</speed>
  <fix>3d</fix>
</trkpt>
<trkpt lat="-27.274439" lon="151.290064">
  <ele>343.1</ele>
  <time>2026-09-01T20:03:10Z</time>
  <course>270.0</course>
  <speed>0.0</speed>
  <fix>3d</fix>
</trkpt>
<trkpt lat="-27.274439" lon="151.290064">
  <ele>343.13</ele>
  <time>2026-09-01T20:03:10Z</time>
  <course>10.71</course>
  <speed>0.0</speed>
  <fix>3d</fix>
</trkpt>
<trkpt lat="-27.274439" lon="151.290064">
  <ele>343.1</ele>
  <time>2026-09-01T20:03:10Z</time>
  <course>270.0</course>
  <speed>0.0</speed>
  <fix>3d</fix>
</trkpt>
<trkpt lat="-27.274439" lon="151.290064">
  <ele>343.13</ele>
  <time>2026-09-01T20:03:10Z</time>
  <course>10.71</course>
  <speed>0.0</speed>
  <fix>3d</fix>
</trkpt>
<trkpt lat="-27.274439" lon="151.290064">
  <ele>343.1</ele>
  <time>2026-09-01T20:03:10Z</time>
  <course>270.0</course>
  <speed>0.0</speed>
  <fix>3d</fix>
</trkpt>
<trkpt lat="-27.274439" lon="151.290064">
  <ele>343.13</ele>
  <time>2026-09-01T20:03:10Z</time>
  <course>10.71</course>
  <speed>0.0</speed>
  <fix>3d</fix>
</trkpt>
<trkpt lat="-27.274439" lon="151.290064">
  <ele>343.1</ele>
  <time>2026-09-01T20:03:10Z</time>
  <course>270.0</course>
  <speed>0.0</speed>
  <fix>3d</fix>
</trkpt>
<trkpt lat="-27.274439" lon="151.290064">
  <ele>343.13</ele>
  <time>2026-09-01T20:03:10Z</time>
  <course>10.71</course>
  <speed>0.0</speed>
  <fix>3d</fix>
</trkpt>
<trkpt lat="-27.274439" lon="151.290064">
  <ele>343.1</ele>
  <time>2026-09-01T20:03:10Z</time>
  <course>270.0</course>
  <speed>0.0</speed>
  <fix>3d</fix>
</trkpt>
<trkpt lat="-27.274439" lon="151.290064">
  <ele>343.13</ele>
  <time>2026-09-01T20:03:10Z</time>
  <course>10.71</course>
  <speed>0.0</speed>
  <fix>3d</fix>
</trkpt>
<trkpt lat="-27.274439" lon="151.290064">
  <ele>343.1</ele>
  <time>2026-09-01T20:03:10Z</time>
  <course>270.0</course>
  <speed>0.0</speed>
  <fix>3d</fix>
</trkpt>
<trkpt lat="-27.274439" lon="151.290064">
  <ele>343.13</ele>
  <time>2026-09-01T20:03:10Z</time>
  <course>10.71</course>
  <speed>0.0</speed>
  <fix>3d</fix>
</trkpt>
<trkpt lat="-27.274439" lon="151.290064">
  <ele>343.1</ele>
  <time>2026-09-01T20:03:10Z</time>
  <course>270.0</course>
  <speed>0.0</speed>
  <fix>3d</fix>
</trkpt>
<trkpt lat="-27.274439" lon="151.290064">
  <ele>343.14</ele>
  <time>2026-09-01T20:03:10Z</time>
  <course>10.71</course>
  <speed>0.0</speed>
  <fix>3d</fix>
</trkpt>
<trkpt lat="-27.274439" lon="151.290064">
  <ele>343.1</ele>
  <time>2026-09-01T20:03:10Z</time>
  <course>270.0</course>
  <speed>0.0</speed>
  <fix>3d</fix>
</trkpt>
<trkpt lat="-27.274439" lon="151.290064">
  <ele>343.14</ele>
  <time>2026-09-01T20:03:10Z</time>
  <course>10.71</course>
  <speed>0.0</speed>
  <fix>3d</fix>
</trkpt>
<trkpt lat="-27.274439" lon="151.290064">
  <ele>343.1</ele>
  <time>2026-09-01T20:03:10Z</time>
  <course>270.0</course>
  <speed>0.0</speed>
  <fix>3d</fix>
</trkpt>
<trkpt lat="-27.274439" lon="151.290064">
  <ele>343.14</ele>
  <time>2026-09-01T20:03:10Z</time>
  <course>10.71</course>
  <speed>0.0</speed>
  <fix>3d</fix>
</trkpt>
<trkpt lat="-27.274439" lon="151.290064">
  <ele>343.1</ele>
  <time>2026-09-01T20:03:10Z</time>
  <course>270.0</course>
  <speed>0.0</speed>
  <fix>3d</fix>
</trkpt>
<trkpt lat="-27.274439" lon="151.290064">
  <ele>343.14</ele>
  <time>2026-09-01T20:03:10Z</time>
  <course>10.71</course>
  <speed>0.0</speed>
  <fix>3d</fix>
</trkpt>
<trkpt lat="-27.274439" lon="151.290064">
  <ele>343.1</ele>
  <time>2026-09-01T20:03:10Z</time>
  <course>270.0</course>
  <speed>0.0</speed>
  <fix>3d</fix>
</trkpt>
<trkpt lat="-27.274439" lon="151.290064">
  <ele>343.14</ele>
  <time>2026-09-01T20:03:10Z</time>
  <course>10.71</course>
  <speed>0.0</speed>
  <fix>3d</fix>
</trkpt>
<trkpt lat="-27.274439" lon="151.290064">
  <ele>343.1</ele>
  <time>2026-09-01T20:03:10Z</time>
  <course>270.0</course>
  <speed>0.0</speed>
  <fix>3d</fix>
</trkpt>
<trkpt lat="-27.274439" lon="151.290064">
  <ele>343.14</ele>
  <time>2026-09-01T20:03:10Z</time>
  <course>10.71</course>
  <speed>0.0</speed>
  <fix>3d</fix>
</trkpt>
<trkpt lat="-27.274439" lon="151.290064">
  <ele>343.1</ele>
  <time>2026-09-01T20:03:10Z</time>
  <course>270.0</course>
  <speed>0.0</speed>
  <fix>3d</fix>
</trkpt>
<trkpt lat="-27.274439" lon="151.290064">
  <ele>343.15</ele>
  <time>2026-09-01T20:03:10Z</time>
  <course>10.71</course>
  <speed>0.0</speed>
  <fix>3d</fix>
</trkpt>
<trkpt lat="-27.274439" lon="151.290064">
  <ele>343.1</ele>
  <time>2026-09-01T20:03:10Z</time>
  <course>270.0</course>
  <speed>0.0</speed>
  <fix>3d</fix>
</trkpt>
<trkpt lat="-27.274439" lon="151.290064">
  <ele>343.15</ele>
  <time>2026-09-01T20:03:10Z</time>
  <course>10.71</course>
  <speed>0.0</speed>
  <fix>3d</fix>
</trkpt>
<trkpt lat="-27.274439" lon="151.290064">
  <ele>343.1</ele>
  <time>2026-09-01T20:03:10Z</time>
  <course>270.0</course>
  <speed>0.0</speed>
  <fix>3d</fix>
</trkpt>
<trkpt lat="-27.274439" lon="151.290064">
  <ele>343.15</ele>
  <time>2026-09-01T20:03:10Z</time>
  <course>10.71</course>
  <speed>0.0</speed>
  <fix>3d</fix>
</trkpt>
<trkpt lat="-27.274439" lon="151.290064">
  <ele>343.1</ele>
  <time>2026-09-01T20:03:10Z</time>
  <course>270.0</course>
  <speed>0.0</speed>
  <fix>3d</fix>
</trkpt>
<trkpt lat="-27.274439" lon="151.290064">
  <ele>343.15</ele>
  <time>2026-09-01T20:03:10Z</time>
  <course>10.71</course>
  <speed>0.0</speed>
  <fix>3d</fix>
</trkpt>
<trkpt lat="-27.274439" lon="151.290064">
  <ele>343.1</ele>
  <time>2026-09-01T20:03:10Z</time>
  <course>270.0</course>
  <speed>0.0</speed>
  <fix>3d</fix>
</trkpt>
<trkpt lat="-27.274439" lon="151.290064">
  <ele>343.15</ele>
  <time>2026-09-01T20:03:10Z</time>
  <course>10.71</course>
  <speed>0.0</speed>
  <fix>3d</fix>
</trkpt>
<trkpt lat="-27.274439" lon="151.290064">
  <ele>343.1</ele>
  <time>2026-09-01T20:03:10Z</time>
  <course>270.0</course>
  <speed>0.0</speed>
  <fix>3d</fix>
</trkpt>
<trkpt lat="-27.274439" lon="151.290064">
  <ele>343.1</ele>
  <time>2026-09-01T20:03:10Z</time>
  <course>10.71</course>
  <speed>0.0</speed>
  <fix>3d</fix>
</trkpt>
<trkpt lat="-27.274439" lon="151.290064">
  <ele>343.1</ele>
  <time>2026-09-01T20:03:10Z</time>
  <course>270.0</course>
  <speed>0.0</speed>
  <fix>3d</fix>
</trkpt>
<trkpt lat="-27.274439" lon="151.290064">
  <ele>343.1</ele>
  <time>2026-09-01T20:03:10Z</time>
  <course>10.71</course>
  <speed>0.0</speed>
  <fix>3d</fix>
</trkpt>
<trkpt lat="-27.274439" lon="151.290064">
  <ele>343.1</ele>
  <time>2026-09-01T20:03:10Z</time>
  <course>270.0</course>
  <speed>0.0</speed>
  <fix>3d</fix>
</trkpt>
<trkpt lat="-27.274439" lon="151.290064">
  <ele>343.1</ele>
  <time>2026-09-01T20:03:10Z</time>
  <course>10.71</course>
  <speed>0.0</speed>
  <fix>3d</fix>
</trkpt>
<trkpt lat="-27.274439" lon="151.290064">
  <ele>343.1</ele>
  <time>2026-09-01T20:03:10Z</time>
  <course>270.0</course>
  <speed>0.0</speed>
  <fix>3d</fix>
</trkpt>
<trkpt lat="-27.274439" lon="151.290064">
  <ele>343.1</ele>
  <time>2026-09-01T20:03:10Z</time>
  <course>10.71</course>
  <speed>0.0</speed>
  <fix>3d</fix>
</trkpt>
<trkpt lat="-27.274439" lon="151.290064">
  <ele>343.1</ele>
  <time>2026-09-01T20:03:10Z</time>
  <course>270.0</course>
  <speed>0.0</speed>
  <fix>3d</fix>
</trkpt>
<trkpt lat="-27.274439" lon="151.290064">
  <ele>343.09</ele>
  <time>2026-09-01T20:03:10Z</time>
  <course>10.71</course>
  <speed>0.0</speed>
  <fix>3d</fix>
</trkpt>
<trkpt lat="-27.274439" lon="151.290064">
  <ele>343.1</ele>
  <time>2026-09-01T20:03:10Z</time>
  <course>270.0</course>
  <speed>0.0</speed>
  <fix>3d</fix>
</trkpt>
<trkpt lat="-27.274439" lon="151.290064">
  <ele>343.09</ele>
  <time>2026-09-01T20:03:10Z</time>
  <course>10.71</course>
  <speed>0.0</speed>
  <fix>3d</fix>
</trkpt>
<trkpt lat="-27.274439" lon="151.290064">
  <ele>343.1</ele>
  <time>2026-09-01T20:03:10Z</time>
  <course>270.0</course>
  <speed>0.0</speed>
  <fix>3d</fix>
</trkpt>
<trkpt lat="-27.274439" lon="151.290064">
  <ele>343.08</ele>
  <time>2026-09-01T20:03:10Z</time>
  <course>10.71</course>
  <speed>0.0</speed>
  <fix>3d</fix>
</trkpt>
<trkpt lat="-27.274439" lon="151.290064">
  <ele>343.1</ele>
  <time>2026-09-01T20:03:10Z</time>
  <course>270.0</course>
  <speed>0.0</speed>
  <fix>3d</fix>
</trkpt>
<trkpt lat="-27.274439" lon="151.290064">
  <ele>343.08</ele>
  <time>2026-09-01T20:03:10Z</time>
  <course>10.71</course>
  <speed>0.0</speed>
  <fix>3d</fix>
</trkpt>
<trkpt lat="-27.274439" lon="151.290064">
  <ele>343.1</ele>
  <time>2026-09-01T20:03:10Z</time>
  <course>270.0</course>
  <speed>0.0</speed>
  <fix>3d</fix>
</trkpt>
<trkpt lat="-27.274439" lon="151.290064">
  <ele>343.07</ele>
  <time>2026-09-01T20:03:10Z</time>
  <course>10.71</course>
  <speed>0.0</speed>
  <fix>3d</fix>
</trkpt>
<trkpt lat="-27.274439" lon="151.290064">
  <ele>343.1</ele>
  <time>2026-09-01T20:03:10Z</time>
  <course>270.0</course>
  <speed>0.0</speed>
  <fix>3d</fix>
</trkpt>
<trkpt lat="-27.274439" lon="151.290064">
  <ele>343.07</ele>
  <time>2026-09-01T20:03:10Z</time>
  <course>10.71</course>
  <speed>0.0</speed>
  <fix>3d</fix>
</trkpt>
<trkpt lat="-27.274439" lon="151.290064">
  <ele>343.1</ele>
  <time>2026-09-01T20:03:10Z</time>
  <course>270.0</course>
  <speed>0.0</speed>
  <fix>3d</fix>
</trkpt>
<trkpt lat="-27.274439" lon="151.290064">
  <ele>343.06</ele>
  <time>2026-09-01T20:03:10Z</time>
  <course>10.71</course>
  <speed>0.0</speed>
  <fix>3d</fix>
</trkpt>
<trkpt lat="-27.274439" lon="151.290064">
  <ele>343.1</ele>
  <time>2026-09-01T20:03:10Z</time>
  <course>270.0</course>
  <speed>0.0</speed>
  <fix>3d</fix>
</trkpt>
<trkpt lat="-27.274439" lon="151.290064">
  <ele>343.06</ele>
  <time>2026-09-01T20:03:10Z</time>
  <course>10.71</course>
  <speed>0.0</speed>
  <fix>3d</fix>
</trkpt>
<trkpt lat="-27.274439" lon="151.290064">
  <ele>343.1</ele>
  <time>2026-09-01T20:03:10Z</time>
  <course>270.0</course>
  <speed>0.0</speed>
  <fix>3d</fix>
</trkpt>
<trkpt lat="-27.274439" lon="151.290064">
  <ele>343.05</ele>
  <time>2026-09-01T20:03:10Z</time>
  <course>10.71</course>
  <speed>0.0</speed>
  <fix>3d</fix>
</trkpt>
<trkpt lat="-27.274439" lon="151.290064">
  <ele>343.1</ele>
  <time>2026-09-01T20:03:10Z</time>
  <course>270.0</course>
  <speed>0.0</speed>
  <fix>3d</fix>
</trkpt>
<trkpt lat="-27.274439" lon="151.290064">
  <ele>343.05</ele>
  <time>2026-09-01T20:03:10Z</time>
  <course>10.71</course>
  <speed>0.0</speed>
  <fix>3d</fix>
</trkpt>
<trkpt lat="-27.274439" lon="151.290064">
  <ele>343.1</ele>
  <time>2026-09-01T20:03:10Z</time>
  <course>270.0</course>
  <speed>0.0</speed>
  <fix>3d</fix>
</trkpt>
<trkpt lat="-27.274439" lon="151.290064">
  <ele>343.04</ele>
  <time>2026-09-01T20:03:10Z</time>
  <course>10.71</course>
  <speed>0.0</speed>
  <fix>3d</fix>
</trkpt>
<trkpt lat="-27.274439" lon="151.290064">
  <ele>343.1</ele>
  <time>2026-09-01T20:03:10Z</time>
  <course>270.0</course>
  <speed>0.0</speed>
  <fix>3d</fix>
</trkpt>
<trkpt lat="-27.274439" lon="151.290064">
  <ele>343.03</ele>
  <time>2026-09-01T20:03:10Z</time>
  <course>10.71</course>
  <speed>0.0</speed>
  <fix>3d</fix>
</trkpt>
<trkpt lat="-27.274439" lon="151.290064">
  <ele>343.1</ele>
  <time>2026-09-01T20:03:10Z</time>
  <course>270.0</course>
  <speed>0.0</speed>
  <fix>3d</fix>
</trkpt>
<trkpt lat="-27.274439" lon="151.290064">
  <ele>343.03</ele>
  <time>2026-09-01T20:03:10Z</time>
  <course>10.71</course>
  <speed>0.0</speed>
  <fix>3d</fix>
</trkpt>
<trkpt lat="-27.274439" lon="151.290064">
  <ele>343.1</ele>
  <time>2026-09-01T20:03:10Z</time>
  <course>270.0</course>
  <speed>0.0</speed>
  <fix>3d</fix>
</trkpt>
<trkpt lat="-27.274439" lon="151.290064">
  <ele>343.02</ele>
  <time>2026-09-01T20:03:10Z</time>
  <course>10.71</course>
  <speed>0.0</speed>
  <fix>3d</fix>
</trkpt>
<trkpt lat="-27.274439" lon="151.290064">
  <ele>343.1</ele>
  <time>2026-09-01T20:03:10Z</time>
  <course>270.0</course>
  <speed>0.0</speed>
  <fix>3d</fix>
</trkpt>
<trkpt lat="-27.274439" lon="151.290064">
  <ele>343.02</ele>
  <time>2026-09-01T20:03:10Z</time>
  <course>10.71</course>
  <speed>0.0</speed>
  <fix>3d</fix>
</trkpt>
<trkpt lat="-27.274439" lon="151.290064">
  <ele>343.1</ele>
  <time>2026-09-01T20:03:10Z</time>
  <course>270.0</course>
  <speed>0.0</speed>
  <fix>3d</fix>
</trkpt>
<trkpt lat="-27.274439" lon="151.290064">
  <ele>343.01</ele>
  <time>2026-09-01T20:03:10Z</time>
  <course>10.71</course>
  <speed>0.0</speed>
  <fix>3d</fix>
</trkpt>
<trkpt lat="-27.274439" lon="151.290064">
  <ele>343.1</ele>
  <time>2026-09-01T20:03:10Z</time>
  <course>270.0</course>
  <speed>0.0</speed>
  <fix>3d</fix>
</trkpt>
<trkpt lat="-27.274439" lon="151.290064">
  <ele>343.0</ele>
  <time>2026-09-01T20:03:10Z</time>
  <course>10.71</course>
  <speed>0.0</speed>
  <fix>3d</fix>
</trkpt>
<trkpt lat="-27.274439" lon="151.290064">
  <ele>343.1</ele>
  <time>2026-09-01T20:03:10Z</time>
  <course>270.0</course>
  <speed>0.0</speed>
  <fix>3d</fix>
</trkpt>
<trkpt lat="-27.274439" lon="151.290064">
  <ele>343.0</ele>
  <time>2026-09-01T20:03:10Z</time>
  <course>10.71</course>
  <speed>0.0</speed>
  <fix>3d</fix>
</trkpt>
<trkpt lat="-27.274439" lon="151.290064">
  <ele>343.1</ele>
  <time>2026-09-01T20:03:10Z</time>
  <course>270.0</course>
  <speed>0.0</speed>
  <fix>3d</fix>
</trkpt>
<trkpt lat="-27.274439" lon="151.290064">
  <ele>342.99</ele>
  <time>2026-09-01T20:03:10Z</time>
  <course>10.71</course>
  <speed>0.0</speed>
  <fix>3d</fix>
</trkpt>
<trkpt lat="-27.274439" lon="151.290064">
  <ele>343.1</ele>
  <time>2026-09-01T20:03:10Z</time>
  <course>270.0</course>
  <speed>0.0</speed>
  <fix>3d</fix>
</trkpt>
<trkpt lat="-27.274439" lon="151.290064">
  <ele>342.99</ele>
  <time>2026-09-01T20:03:10Z</time>
  <course>10.71</course>
  <speed>0.0</speed>
  <fix>3d</fix>
</trkpt>
<trkpt lat="-27.274439" lon="151.290064">
  <ele>343.1</ele>
  <time>2026-09-01T20:03:10Z</time>
  <course>270.0</course>
  <speed>0.0</speed>
  <fix>3d</fix>
</trkpt>
<trkpt lat="-27.274439" lon="151.290064">
  <ele>342.99</ele>
  <time>2026-09-01T20:03:10Z</time>
  <course>10.71</course>
  <speed>0.0</speed>
  <fix>3d</fix>
</trkpt>
<trkpt lat="-27.274439" lon="151.290064">
  <ele>343.1</ele>
  <time>2026-09-01T20:03:10Z</time>
  <course>270.0</course>
  <speed>0.0</speed>
  <fix>3d</fix>
</trkpt>
<trkpt lat="-27.274439" lon="151.290064">
  <ele>342.99</ele>
  <time>2026-09-01T20:03:10Z</time>
  <course>10.71</course>
  <speed>0.0</speed>
  <fix>3d</fix>
</trkpt>
<trkpt lat="-27.274439" lon="151.290064">
  <ele>343.1</ele>
  <time>2026-09-01T20:03:10Z</time>
  <course>270.0</course>
  <speed>0.0</speed>
  <fix>3d</fix>
</trkpt>
<trkpt lat="-27.274439" lon="151.290064">
  <ele>342.99</ele>
  <time>2026-09-01T20:03:10Z</time>
  <course>10.71</course>
  <speed>0.0</speed>
  <fix>3d</fix>
</trkpt>
<trkpt lat="-27.274439" lon="151.290064">
  <ele>343.1</ele>
  <time>2026-09-01T20:03:10Z</time>
  <course>270.0</course>
  <speed>0.0</speed>
  <fix>3d</fix>
</trkpt>
<trkpt lat="-27.274439" lon="151.290064">
  <ele>342.98</ele>
  <time>2026-09-01T20:03:10Z</time>
  <course>10.71</course>
  <speed>0.0</speed>
  <fix>3d</fix>
</trkpt>
<trkpt lat="-27.274439" lon="151.290064">
  <ele>343.1</ele>
  <time>2026-09-01T20:03:10Z</time>
  <course>270.0</course>
  <speed>0.0</speed>
  <fix>3d</fix>
</trkpt>
<trkpt lat="-27.274439" lon="151.290064">
  <ele>342.98</ele>
  <time>2026-09-01T20:03:10Z</time>
  <course>10.71</course>
  <speed>0.0</speed>
  <fix>3d</fix>
</trkpt>
<trkpt lat="-27.274439" lon="151.290064">
  <ele>343.1</ele>
  <time>2026-09-01T20:03:10Z</time>
  <course>270.0</course>
  <speed>0.0</speed>
  <fix>3d</fix>
</trkpt>
<trkpt lat="-27.274439" lon="151.290064">
  <ele>342.98</ele>
  <time>2026-09-01T20:03:10Z</time>
  <course>10.71</course>
  <speed>0.0</speed>
  <fix>3d</fix>
</trkpt>
<trkpt lat="-27.274439" lon="151.290064">
  <ele>343.1</ele>
  <time>2026-09-01T20:03:10Z</time>
  <course>270.0</course>
  <speed>0.0</speed>
  <fix>3d</fix>
</trkpt>
<trkpt lat="-27.274439" lon="151.290064">
  <ele>342.98</ele>
  <time>2026-09-01T20:03:10Z</time>
  <course>10.71</course>
  <speed>0.0</speed>
  <fix>3d</fix>
</trkpt>
<trkpt lat="-27.274439" lon="151.290064">
  <ele>343.1</ele>
  <time>2026-09-01T20:03:10Z</time>
  <course>270.0</course>
  <speed>0.0</speed>
  <fix>3d</fix>
</trkpt>
<trkpt lat="-27.274439" lon="151.290064">
  <ele>342.97</ele>
  <time>2026-09-01T20:03:10Z</time>
  <course>10.71</course>
  <speed>0.0</speed>
  <fix>3d</fix>
</trkpt>
<trkpt lat="-27.274439" lon="151.290064">
  <ele>343.1</ele>
  <time>2026-09-01T20:03:10Z</time>
  <course>270.0</course>
  <speed>0.0</speed>
  <fix>3d</fix>
</trkpt>
<trkpt lat="-27.274439" lon="151.290064">
  <ele>342.97</ele>
  <time>2026-09-01T20:03:10Z</time>
  <course>10.71</course>
  <speed>0.0</speed>
  <fix>3d</fix>
</trkpt>
<trkpt lat="-27.274439" lon="151.290064">
  <ele>343.1</ele>
  <time>2026-09-01T20:03:10Z</time>
  <course>270.0</course>
  <speed>0.0</speed>
  <fix>3d</fix>
</trkpt>
<trkpt lat="-27.274439" lon="151.290064">
  <ele>342.97</ele>
  <time>2026-09-01T20:03:10Z</time>
  <course>10.71</course>
  <speed>0.0</speed>
  <fix>3d</fix>
</trkpt>
<trkpt lat="-27.274439" lon="151.290064">
  <ele>343.1</ele>
  <time>2026-09-01T20:03:10Z</time>
  <course>270.0</course>
  <speed>0.0</speed>
  <fix>3d</fix>
</trkpt>
<trkpt lat="-27.274439" lon="151.290064">
  <ele>342.96</ele>
  <time>2026-09-01T20:03:10Z</time>
  <course>10.71</course>
  <speed>0.0</speed>
  <fix>3d</fix>
</trkpt>
<trkpt lat="-27.274439" lon="151.290064">
  <ele>343.1</ele>
  <time>2026-09-01T20:03:10Z</time>
  <course>270.0</course>
  <speed>0.0</speed>
  <fix>3d</fix>
</trkpt>
<trkpt lat="-27.274439" lon="151.290064">
  <ele>342.96</ele>
  <time>2026-09-01T20:03:10Z</time>
  <course>10.71</course>
  <speed>0.0</speed>
  <fix>3d</fix>
</trkpt>
<trkpt lat="-27.274439" lon="151.290064">
  <ele>343.1</ele>
  <time>2026-09-01T20:03:10Z</time>
  <course>270.0</course>
  <speed>0.0</speed>
  <fix>3d</fix>
</trkpt>
<trkpt lat="-27.274439" lon="151.290064">
  <ele>342.96</ele>
  <time>2026-09-01T20:03:10Z</time>
  <course>10.71</course>
  <speed>0.0</speed>
  <fix>3d</fix>
</trkpt>
<trkpt lat="-27.274439" lon="151.290064">
  <ele>343.1</ele>
  <time>2026-09-01T20:03:10Z</time>
  <course>270.0</course>
  <speed>0.0</speed>
  <fix>3d</fix>
</trkpt>
<trkpt lat="-27.274439" lon="151.290064">
  <ele>342.96</ele>
  <time>2026-09-01T20:03:10Z</time>
  <course>10.71</course>
  <speed>0.0</speed>
  <fix>3d</fix>
</trkpt>
<trkpt lat="-27.274439" lon="151.290064">
  <ele>343.1</ele>
  <time>2026-09-01T20:03:10Z</time>
  <course>270.0</course>
  <speed>0.0</speed>
  <fix>3d</fix>
</trkpt>
<trkpt lat="-27.274439" lon="151.290064">
  <ele>342.96</ele>
  <time>2026-09-01T20:03:10Z</time>
  <course>10.71</course>
  <speed>0.0</speed>
  <fix>3d</fix>
</trkpt>
<trkpt lat="-27.274439" lon="151.290064">
  <ele>343.1</ele>
  <time>2026-09-01T20:03:10Z</time>
  <course>270.0</course>
  <speed>0.0</speed>
  <fix>3d</fix>
</trkpt>
<trkpt lat="-27.274439" lon="151.290064">
  <ele>342.96</ele>
  <time>2026-09-01T20:03:10Z</time>
  <course>10.71</course>
  <speed>0.0</speed>
  <fix>3d</fix>
</trkpt>
<trkpt lat="-27.274439" lon="151.290064">
  <ele>343.1</ele>
  <time>2026-09-01T20:03:10Z</time>
  <course>270.0</course>
  <speed>0.0</speed>
  <fix>3d</fix>
</trkpt>
<trkpt lat="-27.274439" lon="151.290064">
  <ele>342.95</ele>
  <time>2026-09-01T20:03:10Z</time>
  <course>10.71</course>
  <speed>0.0</speed>
  <fix>3d</fix>
</trkpt>
<trkpt lat="-27.274439" lon="151.290064">
  <ele>343.1</ele>
  <time>2026-09-01T20:03:10Z</time>
  <course>270.0</course>
  <speed>0.0</speed>
  <fix>3d</fix>
</trkpt>
<trkpt lat="-27.274439" lon="151.290064">
  <ele>342.95</ele>
  <time>2026-09-01T20:03:10Z</time>
  <course>10.7</course>
  <speed>0.0</speed>
  <fix>3d</fix>
</trkpt>
<trkpt lat="-27.274439" lon="151.290064">
  <ele>343.1</ele>
  <time>2026-09-01T20:03:10Z</time>
  <course>270.0</course>
  <speed>0.0</speed>
  <fix>3d</fix>
</trkpt>
<trkpt lat="-27.274439" lon="151.290064">
  <ele>342.95</ele>
  <time>2026-09-01T20:03:10Z</time>
  <course>10.7</course>
  <speed>0.0</speed>
  <fix>3d</fix>
</trkpt>
<trkpt lat="-27.274439" lon="151.290064">
  <ele>343.1</ele>
  <time>2026-09-01T20:03:10Z</time>
  <course>270.0</course>
  <speed>0.0</speed>
  <fix>3d</fix>
</trkpt>
<trkpt lat="-27.274439" lon="151.290064">
  <ele>342.95</ele>
  <time>2026-09-01T20:03:10Z</time>
  <course>10.7</course>
  <speed>0.0</speed>
  <fix>3d</fix>
</trkpt>
<trkpt lat="-27.274439" lon="151.290064">
  <ele>343.1</ele>
  <time>2026-09-01T20:03:10Z</time>
  <course>270.0</course>
  <speed>0.0</speed>
  <fix>3d</fix>
</trkpt>
<trkpt lat="-27.274439" lon="151.290064">
  <ele>342.95</ele>
  <time>2026-09-01T20:03:10Z</time>
  <course>10.7</course>
  <speed>0.0</speed>
  <fix>3d</fix>
</trkpt>
<trkpt lat="-27.274439" lon="151.290064">
  <ele>343.1</ele>
  <time>2026-09-01T20:03:10Z</time>
  <course>270.0</course>
  <speed>0.0</speed>
  <fix>3d</fix>
</trkpt>
<trkpt lat="-27.274439" lon="151.290064">
  <ele>342.95</ele>
  <time>2026-09-01T20:03:10Z</time>
  <course>10.7</course>
  <speed>0.0</speed>
  <fix>3d</fix>
</trkpt>
<trkpt lat="-27.274439" lon="151.290064">
  <ele>343.1</ele>
  <time>2026-09-01T20:03:10Z</time>
  <course>270.0</course>
  <speed>0.0</speed>
  <fix>3d</fix>
</trkpt>
<trkpt lat="-27.274439" lon="151.290064">
  <ele>342.94</ele>
  <time>2026-09-01T20:03:10Z</time>
  <course>10.7</course>
  <speed>0.0</speed>
  <fix>3d</fix>
</trkpt>
<trkpt lat="-27.274439" lon="151.290064">
  <ele>343.1</ele>
  <time>2026-09-01T20:03:10Z</time>
  <course>270.0</course>
  <speed>0.0</speed>
  <fix>3d</fix>
</trkpt>
<trkpt lat="-27.274439" lon="151.290064">
  <ele>342.94</ele>
  <time>2026-09-01T20:03:10Z</time>
  <course>10.7</course>
  <speed>0.0</speed>
  <fix>3d</fix>
</trkpt>
<trkpt lat="-27.274439" lon="151.290064">
  <ele>343.1</ele>
  <time>2026-09-01T20:03:10Z</time>
  <course>270.0</course>
  <speed>0.0</speed>
  <fix>3d</fix>
</trkpt>
<trkpt lat="-27.274439" lon="151.290064">
  <ele>342.94</ele>
  <time>2026-09-01T20:03:10Z</time>
  <course>10.7</course>
  <speed>0.0</speed>
  <fix>3d</fix>
</trkpt>
<trkpt lat="-27.274439" lon="151.290064">
  <ele>343.1</ele>
  <time>2026-09-01T20:03:10Z</time>
  <course>270.0</course>
  <speed>0.0</speed>
  <fix>3d</fix>
</trkpt>
<trkpt lat="-27.274439" lon="151.290064">
  <ele>342.94</ele>
  <time>2026-09-01T20:03:10Z</time>
  <course>10.7</course>
  <speed>0.0</speed>
  <fix>3d</fix>
</trkpt>
<trkpt lat="-27.274439" lon="151.290064">
  <ele>343.1</ele>
  <time>2026-09-01T20:03:10Z</time>
  <course>270.0</course>
  <speed>0.0</speed>
  <fix>3d</fix>
</trkpt>
<trkpt lat="-27.274439" lon="151.290064">
  <ele>342.94</ele>
  <time>2026-09-01T20:03:10Z</time>
  <course>10.7</course>
  <speed>0.0</speed>
  <fix>3d</fix>
</trkpt>
<trkpt lat="-27.274439" lon="151.290064">
  <ele>343.1</ele>
  <time>2026-09-01T20:03:10Z</time>
  <course>270.0</course>
  <speed>0.0</speed>
  <fix>3d</fix>
</trkpt>
<trkpt lat="-27.274439" lon="151.290064">
  <ele>342.93</ele>
  <time>2026-09-01T20:03:10Z</time>
  <course>10.7</course>
  <speed>0.0</speed>
  <fix>3d</fix>
</trkpt>
<trkpt lat="-27.274439" lon="151.290064">
  <ele>343.1</ele>
  <time>2026-09-01T20:03:10Z</time>
  <course>270.0</course>
  <speed>0.0</speed>
  <fix>3d</fix>
</trkpt>
<trkpt lat="-27.274439" lon="151.290064">
  <ele>342.93</ele>
  <time>2026-09-01T20:03:10Z</time>
  <course>10.7</course>
  <speed>0.0</speed>
  <fix>3d</fix>
</trkpt>
<trkpt lat="-27.274439" lon="151.290064">
  <ele>343.1</ele>
  <time>2026-09-01T20:03:10Z</time>
  <course>270.0</course>
  <speed>0.0</speed>
  <fix>3d</fix>
</trkpt>
<trkpt lat="-27.274439" lon="151.290064">
  <ele>342.93</ele>
  <time>2026-09-01T20:03:10Z</time>
  <course>10.7</course>
  <speed>0.0</speed>
  <fix>3d</fix>
</trkpt>
<trkpt lat="-27.274439" lon="151.290064">
  <ele>343.1</ele>
  <time>2026-09-01T20:03:10Z</time>
  <course>270.0</course>
  <speed>0.0</speed>
  <fix>3d</fix>
</trkpt>
<trkpt lat="-27.274439" lon="151.290064">
  <ele>342.93</ele>
  <time>2026-09-01T20:03:10Z</time>
  <course>10.7</course>
  <speed>0.0</speed>
  <fix>3d</fix>
</trkpt>
<trkpt lat="-27.274439" lon="151.290064">
  <ele>343.1</ele>
  <time>2026-09-01T20:03:10Z</time>
  <course>270.0</course>
  <speed>0.0</speed>
  <fix>3d</fix>
</trkpt>
<trkpt lat="-27.274439" lon="151.290064">
  <ele>342.93</ele>
  <time>2026-09-01T20:03:10Z</time>
  <course>10.7</course>
  <speed>0.0</speed>
  <fix>3d</fix>
</trkpt>
<trkpt lat="-27.274439" lon="151.290064">
  <ele>343.1</ele>
  <time>2026-09-01T20:03:10Z</time>
  <course>270.0</course>
  <speed>0.0</speed>
  <fix>3d</fix>
</trkpt>
<trkpt lat="-27.274439" lon="151.290064">
  <ele>342.93</ele>
  <time>2026-09-01T20:03:10Z</time>
  <course>10.7</course>
  <speed>0.0</speed>
  <fix>3d</fix>
</trkpt>
<trkpt lat="-27.274439" lon="151.290064">
  <ele>343.1</ele>
  <time>2026-09-01T20:03:10Z</time>
  <course>270.0</course>
  <speed>0.0</speed>
  <fix>3d</fix>
</trkpt>
<trkpt lat="-27.274439" lon="151.290064">
  <ele>342.93</ele>
  <time>2026-09-01T20:03:10Z</time>
  <course>10.7</course>
  <speed>0.01</speed>
  <fix>3d</fix>
</trkpt>
<trkpt lat="-27.274439" lon="151.290064">
  <ele>343.1</ele>
  <time>2026-09-01T20:03:10Z</time>
  <course>270.0</course>
  <speed>0.0</speed>
  <fix>3d</fix>
</trkpt>
<trkpt lat="-27.274439" lon="151.290064">
  <ele>342.93</ele>
  <time>2026-09-01T20:03:10Z</time>
  <course>10.7</course>
  <speed>0.01</speed>
  <fix>3d</fix>
</trkpt>
<trkpt lat="-27.274439" lon="151.290064">
  <ele>343.1</ele>
  <time>2026-09-01T20:03:10Z</time>
  <course>270.0</course>
  <speed>0.0</speed>
  <fix>3d</fix>
</trkpt>
<trkpt lat="-27.274439" lon="151.290064">
  <ele>342.92</ele>
  <time>2026-09-01T20:03:10Z</time>
  <course>10.7</course>
  <speed>0.01</speed>
  <fix>3d</fix>
</trkpt>
<trkpt lat="-27.274439" lon="151.290064">
  <ele>343.1</ele>
  <time>2026-09-01T20:03:10Z</time>
  <course>270.0</course>
  <speed>0.0</speed>
  <fix>3d</fix>
</trkpt>
<trkpt lat="-27.274439" lon="151.290064">
  <ele>343.09</ele>
  <time>2026-09-01T20:03:10Z</time>
  <course>10.7</course>
  <speed>0.01</speed>
  <fix>3d</fix>
</trkpt>
<trkpt lat="-27.274439" lon="151.290064">
  <ele>343.1</ele>
  <time>2026-09-01T20:03:10Z</time>
  <course>270.0</course>
  <speed>0.0</speed>
  <fix>3d</fix>
</trkpt>
<trkpt lat="-27.274439" lon="151.290064">
  <ele>343.09</ele>
  <time>2026-09-01T20:03:10Z</time>
  <course>10.7</course>
  <speed>0.01</speed>
  <fix>3d</fix>
</trkpt>
<trkpt lat="-27.274439" lon="151.290064">
  <ele>343.1</ele>
  <time>2026-09-01T20:03:10Z</time>
  <course>270.0</course>
  <speed>0.0</speed>
  <fix>3d</fix>
</trkpt>
<trkpt lat="-27.274439" lon="151.290064">
  <ele>343.09</ele>
  <time>2026-09-01T20:03:10Z</time>
  <course>10.7</course>
  <speed>0.01</speed>
  <fix>3d</fix>
</trkpt>
<trkpt lat="-27.274439" lon="151.290064">
  <ele>343.1</ele>
  <time>2026-09-01T20:03:10Z</time>
  <course>270.0</course>
  <speed>0.0</speed>
  <fix>3d</fix>
</trkpt>
<trkpt lat="-27.274439" lon="151.290064">
  <ele>343.09</ele>
  <time>2026-09-01T20:03:10Z</time>
  <course>10.7</course>
  <speed>0.01</speed>
  <fix>3d</fix>
</trkpt>
<trkpt lat="-27.274439" lon="151.290064">
  <ele>343.1</ele>
  <time>2026-09-01T20:03:10Z</time>
  <course>270.0</course>
  <speed>0.0</speed>
  <fix>3d</fix>
</trkpt>
<trkpt lat="-27.274439" lon="151.290064">
  <ele>343.09</ele>
  <time>2026-09-01T20:03:10Z</time>
  <course>10.7</course>
  <speed>0.01</speed>
  <fix>3d</fix>
</trkpt>
<trkpt lat="-27.274439" lon="151.290064">
  <ele>343.1</ele>
  <time>2026-09-01T20:03:10Z</time>
  <course>270.0</course>
  <speed>0.0</speed>
  <fix>3d</fix>
</trkpt>
<trkpt lat="-27.274439" lon="151.290064">
  <ele>343.08</ele>
  <time>2026-09-01T20:03:10Z</time>
  <course>10.7</course>
  <speed>0.01</speed>
  <fix>3d</fix>
</trkpt>
<trkpt lat="-27.274439" lon="151.290064">
  <ele>343.1</ele>
  <time>2026-09-01T20:03:10Z</time>
  <course>270.0</course>
  <speed>0.0</speed>
  <fix>3d</fix>
</trkpt>
<trkpt lat="-27.274439" lon="151.290064">
  <ele>343.08</ele>
  <time>2026-09-01T20:03:10Z</time>
  <course>10.7</course>
  <speed>0.01</speed>
  <fix>3d</fix>
</trkpt>
<trkpt lat="-27.274439" lon="151.290064">
  <ele>343.1</ele>
  <time>2026-09-01T20:03:10Z</time>
  <course>270.0</course>
  <speed>0.0</speed>
  <fix>3d</fix>
</trkpt>
<trkpt lat="-27.274439" lon="151.290064">
  <ele>343.07</ele>
  <time>2026-09-01T20:03:10Z</time>
  <course>10.7</course>
  <speed>0.01</speed>
  <fix>3d</fix>
</trkpt>
<trkpt lat="-27.274439" lon="151.290064">
  <ele>343.1</ele>
  <time>2026-09-01T20:03:10Z</time>
  <course>270.0</course>
  <speed>0.0</speed>
  <fix>3d</fix>
</trkpt>
<trkpt lat="-27.274439" lon="151.290064">
  <ele>343.07</ele>
  <time>2026-09-01T20:03:10Z</time>
  <course>10.7</course>
  <speed>0.01</speed>
  <fix>3d</fix>
</trkpt>
<trkpt lat="-27.274439" lon="151.290064">
  <ele>343.1</ele>
  <time>2026-09-01T20:03:10Z</time>
  <course>270.0</course>
  <speed>0.0</speed>
  <fix>3d</fix>
</trkpt>
<trkpt lat="-27.274439" lon="151.290064">
  <ele>343.07</ele>
  <time>2026-09-01T20:03:10Z</time>
  <course>10.7</course>
  <speed>0.01</speed>
  <fix>3d</fix>
</trkpt>
<trkpt lat="-27.274439" lon="151.290064">
  <ele>343.1</ele>
  <time>2026-09-01T20:03:10Z</time>
  <course>270.0</course>
  <speed>0.0</speed>
  <fix>3d</fix>
</trkpt>
<trkpt lat="-27.274439" lon="151.290064">
  <ele>343.06</ele>
  <time>2026-09-01T20:03:10Z</time>
  <course>10.7</course>
  <speed>0.01</speed>
  <fix>3d</fix>
</trkpt>
<trkpt lat="-27.274439" lon="151.290064">
  <ele>343.1</ele>
  <time>2026-09-01T20:03:10Z</time>
  <course>270.0</course>
  <speed>0.0</speed>
  <fix>3d</fix>
</trkpt>
<trkpt lat="-27.274439" lon="151.290064">
  <ele>343.06</ele>
  <time>2026-09-01T20:03:10Z</time>
  <course>10.7</course>
  <speed>0.01</speed>
  <fix>3d</fix>
</trkpt>
<trkpt lat="-27.274439" lon="151.290064">
  <ele>343.1</ele>
  <time>2026-09-01T20:03:10Z</time>
  <course>270.0</course>
  <speed>0.0</speed>
  <fix>3d</fix>
</trkpt>
<trkpt lat="-27.274439" lon="151.290064">
  <ele>343.05</ele>
  <time>2026-09-01T20:03:10Z</time>
  <course>10.7</course>
  <speed>0.01</speed>
  <fix>3d</fix>
</trkpt>
<trkpt lat="-27.274439" lon="151.290064">
  <ele>343.1</ele>
  <time>2026-09-01T20:03:10Z</time>
  <course>270.0</course>
  <speed>0.0</speed>
  <fix>3d</fix>
</trkpt>
<trkpt lat="-27.274439" lon="151.290064">
  <ele>343.05</ele>
  <time>2026-09-01T20:03:10Z</time>
  <course>10.7</course>
  <speed>0.01</speed>
  <fix>3d</fix>
</trkpt>
<trkpt lat="-27.274439" lon="151.290064">
  <ele>343.1</ele>
  <time>2026-09-01T20:03:10Z</time>
  <course>270.0</course>
  <speed>0.0</speed>
  <fix>3d</fix>
</trkpt>
<trkpt lat="-27.274439" lon="151.290064">
  <ele>343.04</ele>
  <time>2026-09-01T20:03:10Z</time>
  <course>10.7</course>
  <speed>0.01</speed>
  <fix>3d</fix>
</trkpt>
<trkpt lat="-27.274439" lon="151.290064">
  <ele>343.1</ele>
  <time>2026-09-01T20:03:10Z</time>
  <course>270.0</course>
  <speed>0.0</speed>
  <fix>3d</fix>
</trkpt>
<trkpt lat="-27.274439" lon="151.290064">
  <ele>343.04</ele>
  <time>2026-09-01T20:03:10Z</time>
  <course>10.7</course>
  <speed>0.01</speed>
  <fix>3d</fix>
</trkpt>
<trkpt lat="-27.274439" lon="151.290064">
  <ele>343.1</ele>
  <time>2026-09-01T20:03:10Z</time>
  <course>270.0</course>
  <speed>0.0</speed>
  <fix>3d</fix>
</trkpt>
<trkpt lat="-27.274439" lon="151.290064">
  <ele>343.03</ele>
  <time>2026-09-01T20:03:10Z</time>
  <course>10.7</course>
  <speed>0.01</speed>
  <fix>3d</fix>
</trkpt>
<trkpt lat="-27.274439" lon="151.290064">
  <ele>343.1</ele>
  <time>2026-09-01T20:03:10Z</time>
  <course>270.0</course>
  <speed>0.0</speed>
  <fix>3d</fix>
</trkpt>
<trkpt lat="-27.274439" lon="151.290064">
  <ele>343.03</ele>
  <time>2026-09-01T20:03:10Z</time>
  <course>10.7</course>
  <speed>0.01</speed>
  <fix>3d</fix>
</trkpt>
<trkpt lat="-27.274439" lon="151.290064">
  <ele>343.1</ele>
  <time>2026-09-01T20:03:10Z</time>
  <course>270.0</course>
  <speed>0.0</speed>
  <fix>3d</fix>
</trkpt>
<trkpt lat="-27.274439" lon="151.290064">
  <ele>343.03</ele>
  <time>2026-09-01T20:03:10Z</time>
  <course>10.7</course>
  <speed>0.01</speed>
  <fix>3d</fix>
</trkpt>
<trkpt lat="-27.274439" lon="151.290064">
  <ele>343.1</ele>
  <time>2026-09-01T20:03:10Z</time>
  <course>270.0</course>
  <speed>0.0</speed>
  <fix>3d</fix>
</trkpt>
<trkpt lat="-27.274439" lon="151.290064">
  <ele>343.02</ele>
  <time>2026-09-01T20:03:10Z</time>
  <course>10.7</course>
  <speed>0.01</speed>
  <fix>3d</fix>
</trkpt>
<trkpt lat="-27.274439" lon="151.290064">
  <ele>343.1</ele>
  <time>2026-09-01T20:03:10Z</time>
  <course>270.0</course>
  <speed>0.0</speed>
  <fix>3d</fix>
</trkpt>
<trkpt lat="-27.274439" lon="151.290064">
  <ele>343.02</ele>
  <time>2026-09-01T20:03:10Z</time>
  <course>10.7</course>
  <speed>0.01</speed>
  <fix>3d</fix>
</trkpt>
<trkpt lat="-27.274439" lon="151.290064">
  <ele>343.1</ele>
  <time>2026-09-01T20:03:10Z</time>
  <course>270.0</course>
  <speed>0.0</speed>
  <fix>3d</fix>
</trkpt>
<trkpt lat="-27.274439" lon="151.290064">
  <ele>343.02</ele>
  <time>2026-09-01T20:03:10Z</time>
  <course>10.7</course>
  <speed>0.01</speed>
  <fix>3d</fix>
</trkpt>
<trkpt lat="-27.274439" lon="151.290064">
  <ele>343.1</ele>
  <time>2026-09-01T20:03:10Z</time>
  <course>270.0</course>
  <speed>0.0</speed>
  <fix>3d</fix>
</trkpt>
<trkpt lat="-27.274439" lon="151.290064">
  <ele>343.02</ele>
  <time>2026-09-01T20:03:10Z</time>
  <course>10.7</course>
  <speed>0.01</speed>
  <fix>3d</fix>
</trkpt>
<trkpt lat="-27.274439" lon="151.290064">
  <ele>343.1</ele>
  <time>2026-09-01T20:03:10Z</time>
  <course>270.0</course>
  <speed>0.0</speed>
  <fix>3d</fix>
</trkpt>
<trkpt lat="-27.274439" lon="151.290064">
  <ele>343.02</ele>
  <time>2026-09-01T20:03:10Z</time>
  <course>10.7</course>
  <speed>0.01</speed>
  <fix>3d</fix>
</trkpt>
<trkpt lat="-27.274439" lon="151.290064">
  <ele>343.1</ele>
  <time>2026-09-01T20:03:10Z</time>
  <course>270.0</course>
  <speed>0.0</speed>
  <fix>3d</fix>
</trkpt>
<trkpt lat="-27.274439" lon="151.290064">
  <ele>343.02</ele>
  <time>2026-09-01T20:03:10Z</time>
  <course>10.7</course>
  <speed>0.01</speed>
  <fix>3d</fix>
</trkpt>
<trkpt lat="-27.274439" lon="151.290064">
  <ele>343.1</ele>
  <time>2026-09-01T20:03:10Z</time>
  <course>270.0</course>
  <speed>0.0</speed>
  <fix>3d</fix>
</trkpt>
<trkpt lat="-27.274439" lon="151.290064">
  <ele>343.02</ele>
  <time>2026-09-01T20:03:10Z</time>
  <course>10.7</course>
  <speed>0.01</speed>
  <fix>3d</fix>
</trkpt>
<trkpt lat="-27.274439" lon="151.290064">
  <ele>343.1</ele>
  <time>2026-09-01T20:03:10Z</time>
  <course>270.0</course>
  <speed>0.0</speed>
  <fix>3d</fix>
</trkpt>
<trkpt lat="-27.274439" lon="151.290064">
  <ele>343.01</ele>
  <time>2026-09-01T20:03:10Z</time>
  <course>10.7</course>
  <speed>0.01</speed>
  <fix>3d</fix>
</trkpt>
<trkpt lat="-27.274439" lon="151.290064">
  <ele>343.1</ele>
  <time>2026-09-01T20:03:10Z</time>
  <course>270.0</course>
  <speed>0.0</speed>
  <fix>3d</fix>
</trkpt>
<trkpt lat="-27.274439" lon="151.290064">
  <ele>343.01</ele>
  <time>2026-09-01T20:03:10Z</time>
  <course>10.7</course>
  <speed>0.01</speed>
  <fix>3d</fix>
</trkpt>
<trkpt lat="-27.274439" lon="151.290064">
  <ele>343.1</ele>
  <time>2026-09-01T20:03:10Z</time>
  <course>270.0</course>
  <speed>0.0</speed>
  <fix>3d</fix>
</trkpt>
<trkpt lat="-27.274439" lon="151.290064">
  <ele>343.01</ele>
  <time>2026-09-01T20:03:10Z</time>
  <course>10.7</course>
  <speed>0.01</speed>
  <fix>3d</fix>
</trkpt>
<trkpt lat="-27.274439" lon="151.290064">
  <ele>343.1</ele>
  <time>2026-09-01T20:03:10Z</time>
  <course>270.0</course>
  <speed>0.0</speed>
  <fix>3d</fix>
</trkpt>
<trkpt lat="-27.274439" lon="151.290064">
  <ele>343.01</ele>
  <time>2026-09-01T20:03:10Z</time>
  <course>10.7</course>
  <speed>0.01</speed>
  <fix>3d</fix>
</trkpt>
<trkpt lat="-27.274439" lon="151.290064">
  <ele>343.1</ele>
  <time>2026-09-01T20:03:10Z</time>
  <course>270.0</course>
  <speed>0.0</speed>
  <fix>3d</fix>
</trkpt>
<trkpt lat="-27.274439" lon="151.290064">
  <ele>343.01</ele>
  <time>2026-09-01T20:03:10Z</time>
  <course>10.7</course>
  <speed>0.01</speed>
  <fix>3d</fix>
</trkpt>
<trkpt lat="-27.274439" lon="151.290064">
  <ele>343.1</ele>
  <time>2026-09-01T20:03:10Z</time>
  <course>270.0</course>
  <speed>0.0</speed>
  <fix>3d</fix>
</trkpt>
<trkpt lat="-27.274439" lon="151.290064">
  <ele>343.0</ele>
  <time>2026-09-01T20:03:10Z</time>
  <course>10.7</course>
  <speed>0.01</speed>
  <fix>3d</fix>
</trkpt>
<trkpt lat="-27.274439" lon="151.290064">
  <ele>343.1</ele>
  <time>2026-09-01T20:03:10Z</time>
  <course>270.0</course>
  <speed>0.0</speed>
  <fix>3d</fix>
</trkpt>
<trkpt lat="-27.274439" lon="151.290064">
  <ele>343.0</ele>
  <time>2026-09-01T20:03:10Z</time>
  <course>10.7</course>
  <speed>0.01</speed>
  <fix>3d</fix>
</trkpt>
<trkpt lat="-27.274439" lon="151.290064">
  <ele>343.1</ele>
  <time>2026-09-01T20:03:10Z</time>
  <course>270.0</course>
  <speed>0.0</speed>
  <fix>3d</fix>
</trkpt>
<trkpt lat="-27.274439" lon="151.290064">
  <ele>343.0</ele>
  <time>2026-09-01T20:03:10Z</time>
  <course>10.7</course>
  <speed>0.01</speed>
  <fix>3d</fix>
</trkpt>
<trkpt lat="-27.274439" lon="151.290064">
  <ele>343.1</ele>
  <time>2026-09-01T20:03:10Z</time>
  <course>270.0</course>
  <speed>0.0</speed>
  <fix>3d</fix>
</trkpt>
<trkpt lat="-27.274439" lon="151.290064">
  <ele>342.99</ele>
  <time>2026-09-01T20:03:10Z</time>
  <course>10.7</course>
  <speed>0.01</speed>
  <fix>3d</fix>
</trkpt>
<trkpt lat="-27.274439" lon="151.290064">
  <ele>343.1</ele>
  <time>2026-09-01T20:03:10Z</time>
  <course>270.0</course>
  <speed>0.0</speed>
  <fix>3d</fix>
</trkpt>
<trkpt lat="-27.274439" lon="151.290064">
  <ele>342.99</ele>
  <time>2026-09-01T20:03:10Z</time>
  <course>10.7</course>
  <speed>0.01</speed>
  <fix>3d</fix>
</trkpt>
<trkpt lat="-27.274439" lon="151.290064">
  <ele>343.1</ele>
  <time>2026-09-01T20:03:10Z</time>
  <course>270.0</course>
  <speed>0.0</speed>
  <fix>3d</fix>
</trkpt>
<trkpt lat="-27.274439" lon="151.290064">
  <ele>342.98</ele>
  <time>2026-09-01T20:03:10Z</time>
  <course>10.7</course>
  <speed>0.01</speed>
  <fix>3d</fix>
</trkpt>
<trkpt lat="-27.274439" lon="151.290064">
  <ele>343.1</ele>
  <time>2026-09-01T20:03:10Z</time>
  <course>270.0</course>
  <speed>0.0</speed>
  <fix>3d</fix>
</trkpt>
<trkpt lat="-27.274439" lon="151.290064">
  <ele>342.98</ele>
  <time>2026-09-01T20:03:10Z</time>
  <course>10.7</course>
  <speed>0.01</speed>
  <fix>3d</fix>
</trkpt>
<trkpt lat="-27.274439" lon="151.290064">
  <ele>343.1</ele>
  <time>2026-09-01T20:03:10Z</time>
  <course>270.0</course>
  <speed>0.0</speed>
  <fix>3d</fix>
</trkpt>
<trkpt lat="-27.274439" lon="151.290064">
  <ele>342.97</ele>
  <time>2026-09-01T20:03:10Z</time>
  <course>10.7</course>
  <speed>0.01</speed>
  <fix>3d</fix>
</trkpt>
<trkpt lat="-27.274439" lon="151.290064">
  <ele>343.1</ele>
  <time>2026-09-01T20:03:10Z</time>
  <course>270.0</course>
  <speed>0.0</speed>
  <fix>3d</fix>
</trkpt>
<trkpt lat="-27.274439" lon="151.290064">
  <ele>342.97</ele>
  <time>2026-09-01T20:03:10Z</time>
  <course>10.7</course>
  <speed>0.01</speed>
  <fix>3d</fix>
</trkpt>
<trkpt lat="-27.274439" lon="151.290064">
  <ele>343.1</ele>
  <time>2026-09-01T20:03:10Z</time>
  <course>270.0</course>
  <speed>0.0</speed>
  <fix>3d</fix>
</trkpt>
<trkpt lat="-27.274439" lon="151.290064">
  <ele>342.97</ele>
  <time>2026-09-01T20:03:10Z</time>
  <course>10.7</course>
  <speed>0.01</speed>
  <fix>3d</fix>
</trkpt>
<trkpt lat="-27.274439" lon="151.290064">
  <ele>343.1</ele>
  <time>2026-09-01T20:03:10Z</time>
  <course>270.0</course>
  <speed>0.0</speed>
  <fix>3d</fix>
</trkpt>
<trkpt lat="-27.274439" lon="151.290064">
  <ele>342.96</ele>
  <time>2026-09-01T20:03:10Z</time>
  <course>10.7</course>
  <speed>0.01</speed>
  <fix>3d</fix>
</trkpt>
<trkpt lat="-27.274439" lon="151.290064">
  <ele>343.1</ele>
  <time>2026-09-01T20:03:10Z</time>
  <course>270.0</course>
  <speed>0.0</speed>
  <fix>3d</fix>
</trkpt>
<trkpt lat="-27.274439" lon="151.290064">
  <ele>342.96</ele>
  <time>2026-09-01T20:03:10Z</time>
  <course>10.7</course>
  <speed>0.01</speed>
  <fix>3d</fix>
</trkpt>
<trkpt lat="-27.274439" lon="151.290064">
  <ele>343.1</ele>
  <time>2026-09-01T20:03:10Z</time>
  <course>270.0</course>
  <speed>0.0</speed>
  <fix>3d</fix>
</trkpt>
<trkpt lat="-27.274439" lon="151.290064">
  <ele>342.96</ele>
  <time>2026-09-01T20:03:10Z</time>
  <course>10.7</course>
  <speed>0.01</speed>
  <fix>3d</fix>
</trkpt>
<trkpt lat="-27.274439" lon="151.290064">
  <ele>343.1</ele>
  <time>2026-09-01T20:03:10Z</time>
  <course>270.0</course>
  <speed>0.0</speed>
  <fix>3d</fix>
</trkpt>
<trkpt lat="-27.274439" lon="151.290064">
  <ele>342.96</ele>
  <time>2026-09-01T20:03:10Z</time>
  <course>10.7</course>
  <speed>0.01</speed>
  <fix>3d</fix>
</trkpt>
<trkpt lat="-27.274439" lon="151.290064">
  <ele>343.1</ele>
  <time>2026-09-01T20:03:10Z</time>
  <course>270.0</course>
  <speed>0.0</speed>
  <fix>3d</fix>
</trkpt>
<trkpt lat="-27.274439" lon="151.290064">
  <ele>342.95</ele>
  <time>2026-09-01T20:03:10Z</time>
  <course>10.7</course>
  <speed>0.01</speed>
  <fix>3d</fix>
</trkpt>
<trkpt lat="-27.274439" lon="151.290064">
  <ele>343.1</ele>
  <time>2026-09-01T20:03:10Z</time>
  <course>270.0</course>
  <speed>0.0</speed>
  <fix>3d</fix>
</trkpt>
<trkpt lat="-27.274439" lon="151.290064">
  <ele>342.95</ele>
  <time>2026-09-01T20:03:10Z</time>
  <course>10.7</course>
  <speed>0.01</speed>
  <fix>3d</fix>
</trkpt>
<trkpt lat="-27.274439" lon="151.290064">
  <ele>343.1</ele>
  <time>2026-09-01T20:03:10Z</time>
  <course>270.0</course>
  <speed>0.0</speed>
  <fix>3d</fix>
</trkpt>
<trkpt lat="-27.274439" lon="151.290064">
  <ele>342.95</ele>
  <time>2026-09-01T20:03:10Z</time>
  <course>10.7</course>
  <speed>0.01</speed>
  <fix>3d</fix>
</trkpt>
<trkpt lat="-27.274439" lon="151.290064">
  <ele>343.1</ele>
  <time>2026-09-01T20:03:10Z</time>
  <course>270.0</course>
  <speed>0.0</speed>
  <fix>3d</fix>
</trkpt>
<trkpt lat="-27.274439" lon="151.290064">
  <ele>342.95</ele>
  <time>2026-09-01T20:03:10Z</time>
  <course>10.7</course>
  <speed>0.01</speed>
  <fix>3d</fix>
</trkpt>
<trkpt lat="-27.274439" lon="151.290064">
  <ele>343.1</ele>
  <time>2026-09-01T20:03:10Z</time>
  <course>270.0</course>
  <speed>0.0</speed>
  <fix>3d</fix>
</trkpt>
<trkpt lat="-27.274439" lon="151.290064">
  <ele>342.95</ele>
  <time>2026-09-01T20:03:10Z</time>
  <course>10.7</course>
  <speed>0.01</speed>
  <fix>3d</fix>
</trkpt>
<trkpt lat="-27.274439" lon="151.290064">
  <ele>343.1</ele>
  <time>2026-09-01T20:03:10Z</time>
  <course>270.0</course>
  <speed>0.0</speed>
  <fix>3d</fix>
</trkpt>
<trkpt lat="-27.274439" lon="151.290064">
  <ele>342.95</ele>
  <time>2026-09-01T20:03:10Z</time>
  <course>10.7</course>
  <speed>0.01</speed>
  <fix>3d</fix>
</trkpt>
<trkpt lat="-27.274439" lon="151.290064">
  <ele>343.1</ele>
  <time>2026-09-01T20:03:10Z</time>
  <course>270.0</course>
  <speed>0.0</speed>
  <fix>3d</fix>
</trkpt>
<trkpt lat="-27.2744391" lon="151.290064">
  <ele>342.95</ele>
  <time>2026-09-01T20:03:10Z</time>
  <course>10.7</course>
  <speed>0.01</speed>
  <fix>3d</fix>
</trkpt>
<trkpt lat="-27.274439" lon="151.290064">
  <ele>343.1</ele>
  <time>2026-09-01T20:03:10Z</time>
  <course>270.0</course>
  <speed>0.0</speed>
  <fix>3d</fix>
</trkpt>
<trkpt lat="-27.2744391" lon="151.290064">
  <ele>342.95</ele>
  <time>2026-09-01T20:03:10Z</time>
  <course>10.7</course>
  <speed>0.01</speed>
  <fix>3d</fix>
</trkpt>
<trkpt lat="-27.274439" lon="151.290064">
  <ele>343.1</ele>
  <time>2026-09-01T20:03:10Z</time>
  <course>270.0</course>
  <speed>0.0</speed>
  <fix>3d</fix>
</trkpt>
<trkpt lat="-27.2744391" lon="151.290064">
  <ele>342.95</ele>
  <time>2026-09-01T20:03:10Z</time>
  <course>10.7</course>
  <speed>0.01</speed>
  <fix>3d</fix>
</trkpt>
<trkpt lat="-27.274439" lon="151.290064">
  <ele>343.1</ele>
  <time>2026-09-01T20:03:10Z</time>
  <course>270.0</course>
  <speed>0.0</speed>
  <fix>3d</fix>
</trkpt>
<trkpt lat="-27.2744391" lon="151.290064">
  <ele>342.95</ele>
  <time>2026-09-01T20:03:10Z</time>
  <course>10.7</course>
  <speed>0.01</speed>
  <fix>3d</fix>
</trkpt>
<trkpt lat="-27.274439" lon="151.290064">
  <ele>343.1</ele>
  <time>2026-09-01T20:03:10Z</time>
  <course>270.0</course>
  <speed>0.0</speed>
  <fix>3d</fix>
</trkpt>
<trkpt lat="-27.2744391" lon="151.290064">
  <ele>342.95</ele>
  <time>2026-09-01T20:03:10Z</time>
  <course>10.7</course>
  <speed>0.01</speed>
  <fix>3d</fix>
</trkpt>
<trkpt lat="-27.274439" lon="151.290064">
  <ele>343.1</ele>
  <time>2026-09-01T20:03:10Z</time>
  <course>270.0</course>
  <speed>0.0</speed>
  <fix>3d</fix>
</trkpt>
<trkpt lat="-27.2744391" lon="151.290064">
  <ele>342.95</ele>
  <time>2026-09-01T20:03:10Z</time>
  <course>10.7</course>
  <speed>0.01</speed>
  <fix>3d</fix>
</trkpt>
<trkpt lat="-27.274439" lon="151.290064">
  <ele>343.1</ele>
  <time>2026-09-01T20:03:10Z</time>
  <course>270.0</course>
  <speed>0.0</speed>
  <fix>3d</fix>
</trkpt>
<trkpt lat="-27.2744391" lon="151.290064">
  <ele>342.95</ele>
  <time>2026-09-01T20:03:10Z</time>
  <course>10.7</course>
  <speed>0.01</speed>
  <fix>3d</fix>
</trkpt>
<trkpt lat="-27.274439" lon="151.290064">
  <ele>343.1</ele>
  <time>2026-09-01T20:03:10Z</time>
  <course>270.0</course>
  <speed>0.0</speed>
  <fix>3d</fix>
</trkpt>
<trkpt lat="-27.2744391" lon="151.290064">
  <ele>342.95</ele>
  <time>2026-09-01T20:03:10Z</time>
  <course>10.7</course>
  <speed>0.01</speed>
  <fix>3d</fix>
</trkpt>
<trkpt lat="-27.274439" lon="151.290064">
  <ele>343.1</ele>
  <time>2026-09-01T20:03:10Z</time>
  <course>270.0</course>
  <speed>0.0</speed>
  <fix>3d</fix>
</trkpt>
<trkpt lat="-27.2744391" lon="151.290064">
  <ele>342.95</ele>
  <time>2026-09-01T20:03:10Z</time>
  <course>10.7</course>
  <speed>0.01</speed>
  <fix>3d</fix>
</trkpt>
<trkpt lat="-27.274439" lon="151.290064">
  <ele>343.1</ele>
  <time>2026-09-01T20:03:10Z</time>
  <course>270.0</course>
  <speed>0.0</speed>
  <fix>3d</fix>
</trkpt>
<trkpt lat="-27.2744391" lon="151.290064">
  <ele>343.1</ele>
  <time>2026-09-01T20:03:10Z</time>
  <course>10.7</course>
  <speed>0.01</speed>
  <fix>3d</fix>
</trkpt>
<trkpt lat="-27.274439" lon="151.290064">
  <ele>343.1</ele>
  <time>2026-09-01T20:03:10Z</time>
  <course>270.0</course>
  <speed>0.0</speed>
  <fix>3d</fix>
</trkpt>
<trkpt lat="-27.2744391" lon="151.290064">
  <ele>343.09</ele>
  <time>2026-09-01T20:03:10Z</time>
  <course>10.7</course>
  <speed>0.01</speed>
  <fix>3d</fix>
</trkpt>
<trkpt lat="-27.274439" lon="151.290064">
  <ele>343.1</ele>
  <time>2026-09-01T20:03:10Z</time>
  <course>270.0</course>
  <speed>0.0</speed>
  <fix>3d</fix>
</trkpt>
<trkpt lat="-27.2744391" lon="151.290064">
  <ele>343.09</ele>
  <time>2026-09-01T20:03:10Z</time>
  <course>10.7</course>
  <speed>0.01</speed>
  <fix>3d</fix>
</trkpt>
<trkpt lat="-27.274439" lon="151.290064">
  <ele>343.1</ele>
  <time>2026-09-01T20:03:10Z</time>
  <course>270.0</course>
  <speed>0.0</speed>
  <fix>3d</fix>
</trkpt>
<trkpt lat="-27.2744391" lon="151.290064">
  <ele>343.09</ele>
  <time>2026-09-01T20:03:10Z</time>
  <course>10.71</course>
  <speed>0.01414213562373095</speed>
  <fix>3d</fix>
</trkpt>
<trkpt lat="-27.274439" lon="151.290064">
  <ele>343.1</ele>
  <time>2026-09-01T20:03:10Z</time>
  <course>270.0</course>
  <speed>0.0</speed>
  <fix>3d</fix>
</trkpt>
<trkpt lat="-27.2744391" lon="151.290064">
  <ele>343.09</ele>
  <time>2026-09-01T20:03:10Z</time>
  <course>10.71</course>
  <speed>0.01</speed>
  <fix>3d</fix>
</trkpt>
<trkpt lat="-27.274439" lon="151.290064">
  <ele>343.1</ele>
  <time>2026-09-01T20:03:10Z</time>
  <course>270.0</course>
  <speed>0.0</speed>
  <fix>3d</fix>
</trkpt>
<trkpt lat="-27.2744391" lon="151.290064">
  <ele>343.09</ele>
  <time>2026-09-01T20:03:10Z</time>
  <course>10.71</course>
  <speed>0.01414213562373095</speed>
  <fix>3d</fix>
</trkpt>
<trkpt lat="-27.274439" lon="151.290064">
  <ele>343.1</ele>
  <time>2026-09-01T20:03:10Z</time>
  <course>270.0</course>
  <speed>0.0</speed>
  <fix>3d</fix>
</trkpt>
<trkpt lat="-27.2744391" lon="151.290064">
  <ele>343.09</ele>
  <time>2026-09-01T20:03:10Z</time>
  <course>10.71</course>
  <speed>0.01414213562373095</speed>
  <fix>3d</fix>
</trkpt>
<trkpt lat="-27.274439" lon="151.290064">
  <ele>343.1</ele>
  <time>2026-09-01T20:03:10Z</time>
  <course>270.0</course>
  <speed>0.0</speed>
  <fix>3d</fix>
</trkpt>
<trkpt lat="-27.2744391" lon="151.290064">
  <ele>343.09</ele>
  <time>2026-09-01T20:03:11Z</time>
  <course>10.71</course>
  <speed>0.01414213562373095</speed>
  <fix>3d</fix>
</trkpt>
<trkpt lat="-27.274439" lon="151.290064">
  <ele>343.1</ele>
  <time>2026-09-01T20:03:11Z</time>
  <course>270.0</course>
  <speed>0.0</speed>
  <fix>3d</fix>
</trkpt>
<trkpt lat="-27.2744391" lon="151.290064">
  <ele>343.09</ele>
  <time>2026-09-01T20:03:11Z</time>
  <course>10.71</course>
  <speed>0.01414213562373095</speed>
  <fix>3d</fix>
</trkpt>
<trkpt lat="-27.274439" lon="151.290064">
  <ele>343.1</ele>
  <time>2026-09-01T20:03:11Z</time>
  <course>270.0</course>
  <speed>0.0</speed>
  <fix>3d</fix>
</trkpt>
<trkpt lat="-27.2744391" lon="151.290064">
  <ele>343.09</ele>
  <time>2026-09-01T20:03:11Z</time>
  <course>10.71</course>
  <speed>0.01414213562373095</speed>
  <fix>3d</fix>
</trkpt>
<trkpt lat="-27.274439" lon="151.290064">
  <ele>343.1</ele>
  <time>2026-09-01T20:03:11Z</time>
  <course>270.0</course>
  <speed>0.0</speed>
  <fix>3d</fix>
</trkpt>
<trkpt lat="-27.2744391" lon="151.290064">
  <ele>343.08</ele>
  <time>2026-09-01T20:03:11Z</time>
  <course>10.71</course>
  <speed>0.01414213562373095</speed>
  <fix>3d</fix>
</trkpt>
<trkpt lat="-27.274439" lon="151.290064">
  <ele>343.1</ele>
  <time>2026-09-01T20:03:11Z</time>
  <course>270.0</course>
  <speed>0.0</speed>
  <fix>3d</fix>
</trkpt>
<trkpt lat="-27.2744391" lon="151.290064">
  <ele>343.08</ele>
  <time>2026-09-01T20:03:11Z</time>
  <course>10.71</course>
  <speed>0.01414213562373095</speed>
  <fix>3d</fix>
</trkpt>
<trkpt lat="-27.274439" lon="151.290064">
  <ele>343.1</ele>
  <time>2026-09-01T20:03:11Z</time>
  <course>270.0</course>
  <speed>0.0</speed>
  <fix>3d</fix>
</trkpt>
<trkpt lat="-27.2744391" lon="151.290064">
  <ele>343.08</ele>
  <time>2026-09-01T20:03:11Z</time>
  <course>10.71</course>
  <speed>0.01414213562373095</speed>
  <fix>3d</fix>
</trkpt>
<trkpt lat="-27.274439" lon="151.290064">
  <ele>343.1</ele>
  <time>2026-09-01T20:03:11Z</time>
  <course>270.0</course>
  <speed>0.0</speed>
  <fix>3d</fix>
</trkpt>
<trkpt lat="-27.2744391" lon="151.290064">
  <ele>343.08</ele>
  <time>2026-09-01T20:03:11Z</time>
  <course>10.71</course>
  <speed>0.01414213562373095</speed>
  <fix>3d</fix>
</trkpt>
<trkpt lat="-27.274439" lon="151.290064">
  <ele>343.1</ele>
  <time>2026-09-01T20:03:11Z</time>
  <course>270.0</course>
  <speed>0.0</speed>
  <fix>3d</fix>
</trkpt>
<trkpt lat="-27.2744391" lon="151.290064">
  <ele>343.08</ele>
  <time>2026-09-01T20:03:11Z</time>
  <course>10.71</course>
  <speed>0.01414213562373095</speed>
  <fix>3d</fix>
</trkpt>
<trkpt lat="-27.274439" lon="151.290064">
  <ele>343.1</ele>
  <time>2026-09-01T20:03:11Z</time>
  <course>270.0</course>
  <speed>0.0</speed>
  <fix>3d</fix>
</trkpt>
<trkpt lat="-27.2744391" lon="151.290064">
  <ele>343.07</ele>
  <time>2026-09-01T20:03:11Z</time>
  <course>10.71</course>
  <speed>0.01414213562373095</speed>
  <fix>3d</fix>
</trkpt>
<trkpt lat="-27.274439" lon="151.290064">
  <ele>343.1</ele>
  <time>2026-09-01T20:03:11Z</time>
  <course>270.0</course>
  <speed>0.0</speed>
  <fix>3d</fix>
</trkpt>
<trkpt lat="-27.2744391" lon="151.290064">
  <ele>343.07</ele>
  <time>2026-09-01T20:03:11Z</time>
  <course>10.71</course>
  <speed>0.01414213562373095</speed>
  <fix>3d</fix>
</trkpt>
<trkpt lat="-27.274439" lon="151.290064">
  <ele>343.1</ele>
  <time>2026-09-01T20:03:11Z</time>
  <course>270.0</course>
  <speed>0.0</speed>
  <fix>3d</fix>
</trkpt>
<trkpt lat="-27.2744391" lon="151.290064">
  <ele>343.07</ele>
  <time>2026-09-01T20:03:11Z</time>
  <course>10.71</course>
  <speed>0.01414213562373095</speed>
  <fix>3d</fix>
</trkpt>
<trkpt lat="-27.274439" lon="151.290064">
  <ele>343.1</ele>
  <time>2026-09-01T20:03:11Z</time>
  <course>270.0</course>
  <speed>0.0</speed>
  <fix>3d</fix>
</trkpt>
<trkpt lat="-27.2744391" lon="151.290064">
  <ele>343.07</ele>
  <time>2026-09-01T20:03:11Z</time>
  <course>10.71</course>
  <speed>0.01414213562373095</speed>
  <fix>3d</fix>
</trkpt>
<trkpt lat="-27.274439" lon="151.290064">
  <ele>343.1</ele>
  <time>2026-09-01T20:03:11Z</time>
  <course>270.0</course>
  <speed>0.0</speed>
  <fix>3d</fix>
</trkpt>
<trkpt lat="-27.2744391" lon="151.290064">
  <ele>343.07</ele>
  <time>2026-09-01T20:03:11Z</time>
  <course>10.71</course>
  <speed>0.01414213562373095</speed>
  <fix>3d</fix>
</trkpt>
<trkpt lat="-27.274439" lon="151.290064">
  <ele>343.1</ele>
  <time>2026-09-01T20:03:11Z</time>
  <course>270.0</course>
  <speed>0.0</speed>
  <fix>3d</fix>
</trkpt>
<trkpt lat="-27.2744391" lon="151.290064">
  <ele>343.07</ele>
  <time>2026-09-01T20:03:11Z</time>
  <course>10.71</course>
  <speed>0.01414213562373095</speed>
  <fix>3d</fix>
</trkpt>
<trkpt lat="-27.274439" lon="151.290064">
  <ele>343.1</ele>
  <time>2026-09-01T20:03:11Z</time>
  <course>270.0</course>
  <speed>0.0</speed>
  <fix>3d</fix>
</trkpt>
<trkpt lat="-27.2744391" lon="151.290064">
  <ele>343.07</ele>
  <time>2026-09-01T20:03:11Z</time>
  <course>10.71</course>
  <speed>0.01414213562373095</speed>
  <fix>3d</fix>
</trkpt>
<trkpt lat="-27.274439" lon="151.290064">
  <ele>343.1</ele>
  <time>2026-09-01T20:03:11Z</time>
  <course>270.0</course>
  <speed>0.0</speed>
  <fix>3d</fix>
</trkpt>
<trkpt lat="-27.2744391" lon="151.290064">
  <ele>343.07</ele>
  <time>2026-09-01T20:03:11Z</time>
  <course>10.71</course>
  <speed>0.01414213562373095</speed>
  <fix>3d</fix>
</trkpt>
<trkpt lat="-27.274439" lon="151.290064">
  <ele>343.1</ele>
  <time>2026-09-01T20:03:11Z</time>
  <course>270.0</course>
  <speed>0.0</speed>
  <fix>3d</fix>
</trkpt>
<trkpt lat="-27.2744391" lon="151.290064">
  <ele>343.07</ele>
  <time>2026-09-01T20:03:11Z</time>
  <course>10.71</course>
  <speed>0.01414213562373095</speed>
  <fix>3d</fix>
</trkpt>
<trkpt lat="-27.274439" lon="151.290064">
  <ele>343.1</ele>
  <time>2026-09-01T20:03:11Z</time>
  <course>270.0</course>
  <speed>0.0</speed>
  <fix>3d</fix>
</trkpt>
<trkpt lat="-27.2744391" lon="151.290064">
  <ele>343.07</ele>
  <time>2026-09-01T20:03:11Z</time>
  <course>10.71</course>
  <speed>0.01414213562373095</speed>
  <fix>3d</fix>
</trkpt>
<trkpt lat="-27.274439" lon="151.290064">
  <ele>343.1</ele>
  <time>2026-09-01T20:03:11Z</time>
  <course>270.0</course>
  <speed>0.0</speed>
  <fix>3d</fix>
</trkpt>
<trkpt lat="-27.2744391" lon="151.290064">
  <ele>343.06</ele>
  <time>2026-09-01T20:03:11Z</time>
  <course>10.71</course>
  <speed>0.01414213562373095</speed>
  <fix>3d</fix>
</trkpt>
<trkpt lat="-27.274439" lon="151.290064">
  <ele>343.1</ele>
  <time>2026-09-01T20:03:11Z</time>
  <course>270.0</course>
  <speed>0.0</speed>
  <fix>3d</fix>
</trkpt>
<trkpt lat="-27.2744391" lon="151.290064">
  <ele>343.06</ele>
  <time>2026-09-01T20:03:11Z</time>
  <course>10.71</course>
  <speed>0.01414213562373095</speed>
  <fix>3d</fix>
</trkpt>
<trkpt lat="-27.274439" lon="151.290064">
  <ele>343.1</ele>
  <time>2026-09-01T20:03:11Z</time>
  <course>270.0</course>
  <speed>0.0</speed>
  <fix>3d</fix>
</trkpt>
<trkpt lat="-27.2744391" lon="151.290064">
  <ele>343.06</ele>
  <time>2026-09-01T20:03:11Z</time>
  <course>10.71</course>
  <speed>0.01414213562373095</speed>
  <fix>3d</fix>
</trkpt>
<trkpt lat="-27.274439" lon="151.290064">
  <ele>343.1</ele>
  <time>2026-09-01T20:03:11Z</time>
  <course>270.0</course>
  <speed>0.0</speed>
  <fix>3d</fix>
</trkpt>
<trkpt lat="-27.2744391" lon="151.290064">
  <ele>343.06</ele>
  <time>2026-09-01T20:03:11Z</time>
  <course>10.71</course>
  <speed>0.01414213562373095</speed>
  <fix>3d</fix>
</trkpt>
<trkpt lat="-27.274439" lon="151.290064">
  <ele>343.1</ele>
  <time>2026-09-01T20:03:11Z</time>
  <course>270.0</course>
  <speed>0.0</speed>
  <fix>3d</fix>
</trkpt>
<trkpt lat="-27.2744391" lon="151.290064">
  <ele>343.06</ele>
  <time>2026-09-01T20:03:11Z</time>
  <course>10.71</course>
  <speed>0.01414213562373095</speed>
  <fix>3d</fix>
</trkpt>
<trkpt lat="-27.274439" lon="151.290064">
  <ele>343.1</ele>
  <time>2026-09-01T20:03:11Z</time>
  <course>270.0</course>
  <speed>0.0</speed>
  <fix>3d</fix>
</trkpt>
<trkpt lat="-27.2744391" lon="151.290064">
  <ele>343.06</ele>
  <time>2026-09-01T20:03:11Z</time>
  <course>10.71</course>
  <speed>0.01414213562373095</speed>
  <fix>3d</fix>
</trkpt>
<trkpt lat="-27.274439" lon="151.290064">
  <ele>343.1</ele>
  <time>2026-09-01T20:03:11Z</time>
  <course>270.0</course>
  <speed>0.0</speed>
  <fix>3d</fix>
</trkpt>
<trkpt lat="-27.2744391" lon="151.290064">
  <ele>343.07</ele>
  <time>2026-09-01T20:03:11Z</time>
  <course>10.71</course>
  <speed>0.01414213562373095</speed>
  <fix>3d</fix>
</trkpt>
<trkpt lat="-27.274439" lon="151.290064">
  <ele>343.1</ele>
  <time>2026-09-01T20:03:11Z</time>
  <course>270.0</course>
  <speed>0.0</speed>
  <fix>3d</fix>
</trkpt>
<trkpt lat="-27.2744391" lon="151.290064">
  <ele>343.07</ele>
  <time>2026-09-01T20:03:11Z</time>
  <course>10.71</course>
  <speed>0.01414213562373095</speed>
  <fix>3d</fix>
</trkpt>
<trkpt lat="-27.274439" lon="151.290064">
  <ele>343.1</ele>
  <time>2026-09-01T20:03:11Z</time>
  <course>270.0</course>
  <speed>0.0</speed>
  <fix>3d</fix>
</trkpt>
<trkpt lat="-27.2744391" lon="151.2900641">
  <ele>343.07</ele>
  <time>2026-09-01T20:03:11Z</time>
  <course>10.71</course>
  <speed>0.01414213562373095</speed>
  <fix>3d</fix>
</trkpt>
<trkpt lat="-27.274439" lon="151.290064">
  <ele>343.1</ele>
  <time>2026-09-01T20:03:11Z</time>
  <course>270.0</course>
  <speed>0.0</speed>
  <fix>3d</fix>
</trkpt>
<trkpt lat="-27.2744391" lon="151.290064">
  <ele>343.07</ele>
  <time>2026-09-01T20:03:11Z</time>
  <course>10.71</course>
  <speed>0.01414213562373095</speed>
  <fix>3d</fix>
</trkpt>
<trkpt lat="-27.274439" lon="151.290064">
  <ele>343.1</ele>
  <time>2026-09-01T20:03:11Z</time>
  <course>270.0</course>
  <speed>0.0</speed>
  <fix>3d</fix>
</trkpt>
<trkpt lat="-27.2744391" lon="151.2900641">
  <ele>343.07</ele>
  <time>2026-09-01T20:03:11Z</time>
  <course>10.71</course>
  <speed>0.01414213562373095</speed>
  <fix>3d</fix>
</trkpt>
<trkpt lat="-27.274439" lon="151.290064">
  <ele>343.1</ele>
  <time>2026-09-01T20:03:11Z</time>
  <course>270.0</course>
  <speed>0.0</speed>
  <fix>3d</fix>
</trkpt>
<trkpt lat="-27.2744391" lon="151.290064">
  <ele>343.06</ele>
  <time>2026-09-01T20:03:11Z</time>
  <course>10.71</course>
  <speed>0.01414213562373095</speed>
  <fix>3d</fix>
</trkpt>
<trkpt lat="-27.274439" lon="151.290064">
  <ele>343.1</ele>
  <time>2026-09-01T20:03:11Z</time>
  <course>270.0</course>
  <speed>0.0</speed>
  <fix>3d</fix>
</trkpt>
<trkpt lat="-27.2744391" lon="151.2900641">
  <ele>343.06</ele>
  <time>2026-09-01T20:03:11Z</time>
  <course>10.71</course>
  <speed>0.01414213562373095</speed>
  <fix>3d</fix>
</trkpt>
<trkpt lat="-27.274439" lon="151.290064">
  <ele>343.1</ele>
  <time>2026-09-01T20:03:11Z</time>
  <course>270.0</course>
  <speed>0.0</speed>
  <fix>3d</fix>
</trkpt>
<trkpt lat="-27.2744391" lon="151.290064">
  <ele>343.06</ele>
  <time>2026-09-01T20:03:11Z</time>
  <course>10.71</course>
  <speed>0.01414213562373095</speed>
  <fix>3d</fix>
</trkpt>
<trkpt lat="-27.274439" lon="151.290064">
  <ele>343.1</ele>
  <time>2026-09-01T20:03:11Z</time>
  <course>270.0</course>
  <speed>0.0</speed>
  <fix>3d</fix>
</trkpt>
<trkpt lat="-27.2744391" lon="151.2900641">
  <ele>343.06</ele>
  <time>2026-09-01T20:03:11Z</time>
  <course>10.71</course>
  <speed>0.01414213562373095</speed>
  <fix>3d</fix>
</trkpt>
<trkpt lat="-27.274439" lon="151.290064">
  <ele>343.1</ele>
  <time>2026-09-01T20:03:11Z</time>
  <course>270.0</course>
  <speed>0.0</speed>
  <fix>3d</fix>
</trkpt>
<trkpt lat="-27.2744391" lon="151.2900641">
  <ele>343.05</ele>
  <time>2026-09-01T20:03:11Z</time>
  <course>10.71</course>
  <speed>0.01414213562373095</speed>
  <fix>3d</fix>
</trkpt>
<trkpt lat="-27.274439" lon="151.290064">
  <ele>343.1</ele>
  <time>2026-09-01T20:03:11Z</time>
  <course>270.0</course>
  <speed>0.0</speed>
  <fix>3d</fix>
</trkpt>
<trkpt lat="-27.2744391" lon="151.2900641">
  <ele>343.05</ele>
  <time>2026-09-01T20:03:11Z</time>
  <course>10.71</course>
  <speed>0.01414213562373095</speed>
  <fix>3d</fix>
</trkpt>
<trkpt lat="-27.274439" lon="151.290064">
  <ele>343.1</ele>
  <time>2026-09-01T20:03:11Z</time>
  <course>270.0</course>
  <speed>0.0</speed>
  <fix>3d</fix>
</trkpt>
<trkpt lat="-27.2744391" lon="151.2900641">
  <ele>343.05</ele>
  <time>2026-09-01T20:03:11Z</time>
  <course>10.71</course>
  <speed>0.01414213562373095</speed>
  <fix>3d</fix>
</trkpt>
<trkpt lat="-27.274439" lon="151.290064">
  <ele>343.1</ele>
  <time>2026-09-01T20:03:11Z</time>
  <course>270.0</course>
  <speed>0.0</speed>
  <fix>3d</fix>
</trkpt>
<trkpt lat="-27.2744391" lon="151.2900641">
  <ele>343.04</ele>
  <time>2026-09-01T20:03:11Z</time>
  <course>10.71</course>
  <speed>0.01414213562373095</speed>
  <fix>3d</fix>
</trkpt>
<trkpt lat="-27.274439" lon="151.290064">
  <ele>343.1</ele>
  <time>2026-09-01T20:03:11Z</time>
  <course>270.0</course>
  <speed>0.0</speed>
  <fix>3d</fix>
</trkpt>
<trkpt lat="-27.2744391" lon="151.2900641">
  <ele>343.04</ele>
  <time>2026-09-01T20:03:11Z</time>
  <course>10.71</course>
  <speed>0.01414213562373095</speed>
  <fix>3d</fix>
</trkpt>
<trkpt lat="-27.274439" lon="151.290064">
  <ele>343.1</ele>
  <time>2026-09-01T20:03:11Z</time>
  <course>270.0</course>
  <speed>0.0</speed>
  <fix>3d</fix>
</trkpt>
<trkpt lat="-27.2744391" lon="151.2900641">
  <ele>343.04</ele>
  <time>2026-09-01T20:03:11Z</time>
  <course>10.71</course>
  <speed>0.01414213562373095</speed>
  <fix>3d</fix>
</trkpt>
<trkpt lat="-27.274439" lon="151.290064">
  <ele>343.1</ele>
  <time>2026-09-01T20:03:11Z</time>
  <course>270.0</course>
  <speed>0.0</speed>
  <fix>3d</fix>
</trkpt>
<trkpt lat="-27.2744391" lon="151.2900641">
  <ele>343.04</ele>
  <time>2026-09-01T20:03:11Z</time>
  <course>10.71</course>
  <speed>0.01414213562373095</speed>
  <fix>3d</fix>
</trkpt>
<trkpt lat="-27.274439" lon="151.290064">
  <ele>343.1</ele>
  <time>2026-09-01T20:03:11Z</time>
  <course>270.0</course>
  <speed>0.0</speed>
  <fix>3d</fix>
</trkpt>
<trkpt lat="-27.2744391" lon="151.2900641">
  <ele>343.04</ele>
  <time>2026-09-01T20:03:11Z</time>
  <course>10.71</course>
  <speed>0.01414213562373095</speed>
  <fix>3d</fix>
</trkpt>
<trkpt lat="-27.274439" lon="151.290064">
  <ele>343.1</ele>
  <time>2026-09-01T20:03:11Z</time>
  <course>270.0</course>
  <speed>0.0</speed>
  <fix>3d</fix>
</trkpt>
<trkpt lat="-27.2744391" lon="151.2900641">
  <ele>343.04</ele>
  <time>2026-09-01T20:03:11Z</time>
  <course>10.71</course>
  <speed>0.01414213562373095</speed>
  <fix>3d</fix>
</trkpt>
<trkpt lat="-27.274439" lon="151.290064">
  <ele>343.1</ele>
  <time>2026-09-01T20:03:11Z</time>
  <course>270.0</course>
  <speed>0.0</speed>
  <fix>3d</fix>
</trkpt>
<trkpt lat="-27.2744391" lon="151.2900641">
  <ele>343.04</ele>
  <time>2026-09-01T20:03:11Z</time>
  <course>10.71</course>
  <speed>0.01414213562373095</speed>
  <fix>3d</fix>
</trkpt>
<trkpt lat="-27.274439" lon="151.290064">
  <ele>343.1</ele>
  <time>2026-09-01T20:03:11Z</time>
  <course>270.0</course>
  <speed>0.0</speed>
  <fix>3d</fix>
</trkpt>
<trkpt lat="-27.2744391" lon="151.2900641">
  <ele>343.04</ele>
  <time>2026-09-01T20:03:11Z</time>
  <course>10.71</course>
  <speed>0.01414213562373095</speed>
  <fix>3d</fix>
</trkpt>
<trkpt lat="-27.274439" lon="151.290064">
  <ele>343.1</ele>
  <time>2026-09-01T20:03:11Z</time>
  <course>270.0</course>
  <speed>0.0</speed>
  <fix>3d</fix>
</trkpt>
<trkpt lat="-27.2744391" lon="151.2900641">
  <ele>343.04</ele>
  <time>2026-09-01T20:03:11Z</time>
  <course>10.71</course>
  <speed>0.01414213562373095</speed>
  <fix>3d</fix>
</trkpt>
<trkpt lat="-27.274439" lon="151.290064">
  <ele>343.1</ele>
  <time>2026-09-01T20:03:11Z</time>
  <course>270.0</course>
  <speed>0.0</speed>
  <fix>3d</fix>
</trkpt>
<trkpt lat="-27.2744391" lon="151.2900641">
  <ele>343.04</ele>
  <time>2026-09-01T20:03:11Z</time>
  <course>10.71</course>
  <speed>0.01414213562373095</speed>
  <fix>3d</fix>
</trkpt>
<trkpt lat="-27.274439" lon="151.290064">
  <ele>343.1</ele>
  <time>2026-09-01T20:03:11Z</time>
  <course>270.0</course>
  <speed>0.0</speed>
  <fix>3d</fix>
</trkpt>
<trkpt lat="-27.2744391" lon="151.2900641">
  <ele>343.03</ele>
  <time>2026-09-01T20:03:11Z</time>
  <course>10.71</course>
  <speed>0.01414213562373095</speed>
  <fix>3d</fix>
</trkpt>
<trkpt lat="-27.274439" lon="151.290064">
  <ele>343.1</ele>
  <time>2026-09-01T20:03:11Z</time>
  <course>270.0</course>
  <speed>0.0</speed>
  <fix>3d</fix>
</trkpt>
<trkpt lat="-27.2744391" lon="151.2900641">
  <ele>343.03</ele>
  <time>2026-09-01T20:03:11Z</time>
  <course>10.71</course>
  <speed>0.01414213562373095</speed>
  <fix>3d</fix>
</trkpt>
<trkpt lat="-27.274439" lon="151.290064">
  <ele>343.1</ele>
  <time>2026-09-01T20:03:11Z</time>
  <course>270.0</course>
  <speed>0.0</speed>
  <fix>3d</fix>
</trkpt>
<trkpt lat="-27.2744391" lon="151.2900641">
  <ele>343.03</ele>
  <time>2026-09-01T20:03:11Z</time>
  <course>10.72</course>
  <speed>0.01414213562373095</speed>
  <fix>3d</fix>
</trkpt>
<trkpt lat="-27.274439" lon="151.290064">
  <ele>343.1</ele>
  <time>2026-09-01T20:03:11Z</time>
  <course>270.0</course>
  <speed>0.0</speed>
  <fix>3d</fix>
</trkpt>
<trkpt lat="-27.2744391" lon="151.2900641">
  <ele>343.03</ele>
  <time>2026-09-01T20:03:11Z</time>
  <course>10.72</course>
  <speed>0.01414213562373095</speed>
  <fix>3d</fix>
</trkpt>
<trkpt lat="-27.274439" lon="151.290064">
  <ele>343.1</ele>
  <time>2026-09-01T20:03:11Z</time>
  <course>270.0</course>
  <speed>0.0</speed>
  <fix>3d</fix>
</trkpt>
<trkpt lat="-27.2744391" lon="151.2900641">
  <ele>343.03</ele>
  <time>2026-09-01T20:03:11Z</time>
  <course>10.72</course>
  <speed>0.01414213562373095</speed>
  <fix>3d</fix>
</trkpt>
<trkpt lat="-27.274439" lon="151.290064">
  <ele>343.1</ele>
  <time>2026-09-01T20:03:11Z</time>
  <course>270.0</course>
  <speed>0.0</speed>
  <fix>3d</fix>
</trkpt>
<trkpt lat="-27.2744391" lon="151.2900641">
  <ele>343.03</ele>
  <time>2026-09-01T20:03:11Z</time>
  <course>10.72</course>
  <speed>0.01414213562373095</speed>
  <fix>3d</fix>
</trkpt>
<trkpt lat="-27.274439" lon="151.290064">
  <ele>343.1</ele>
  <time>2026-09-01T20:03:11Z</time>
  <course>270.0</course>
  <speed>0.0</speed>
  <fix>3d</fix>
</trkpt>
<trkpt lat="-27.2744391" lon="151.2900641">
  <ele>343.03</ele>
  <time>2026-09-01T20:03:11Z</time>
  <course>10.72</course>
  <speed>0.01414213562373095</speed>
  <fix>3d</fix>
</trkpt>
<trkpt lat="-27.274439" lon="151.290064">
  <ele>343.1</ele>
  <time>2026-09-01T20:03:11Z</time>
  <course>270.0</course>
  <speed>0.0</speed>
  <fix>3d</fix>
</trkpt>
<trkpt lat="-27.2744391" lon="151.2900641">
  <ele>343.1</ele>
  <time>2026-09-01T20:03:11Z</time>
  <course>10.72</course>
  <speed>0.01414213562373095</speed>
  <fix>3d</fix>
</trkpt>
<trkpt lat="-27.274439" lon="151.290064">
  <ele>343.1</ele>
  <time>2026-09-01T20:03:11Z</time>
  <course>270.0</course>
  <speed>0.0</speed>
  <fix>3d</fix>
</trkpt>
<trkpt lat="-27.2744391" lon="151.2900641">
  <ele>343.09</ele>
  <time>2026-09-01T20:03:11Z</time>
  <course>10.72</course>
  <speed>0.01414213562373095</speed>
  <fix>3d</fix>
</trkpt>
<trkpt lat="-27.274439" lon="151.290064">
  <ele>343.1</ele>
  <time>2026-09-01T20:03:11Z</time>
  <course>270.0</course>
  <speed>0.0</speed>
  <fix>3d</fix>
</trkpt>
<trkpt lat="-27.2744391" lon="151.2900641">
  <ele>343.09</ele>
  <time>2026-09-01T20:03:11Z</time>
  <course>10.72</course>
  <speed>0.01414213562373095</speed>
  <fix>3d</fix>
</trkpt>
<trkpt lat="-27.274439" lon="151.290064">
  <ele>343.1</ele>
  <time>2026-09-01T20:03:11Z</time>
  <course>270.0</course>
  <speed>0.0</speed>
  <fix>3d</fix>
</trkpt>
<trkpt lat="-27.2744391" lon="151.2900641">
  <ele>343.09</ele>
  <time>2026-09-01T20:03:11Z</time>
  <course>10.72</course>
  <speed>0.01414213562373095</speed>
  <fix>3d</fix>
</trkpt>
<trkpt lat="-27.274439" lon="151.290064">
  <ele>343.1</ele>
  <time>2026-09-01T20:03:11Z</time>
  <course>270.0</course>
  <speed>0.0</speed>
  <fix>3d</fix>
</trkpt>
<trkpt lat="-27.2744391" lon="151.2900641">
  <ele>343.09</ele>
  <time>2026-09-01T20:03:11Z</time>
  <course>10.72</course>
  <speed>0.01414213562373095</speed>
  <fix>3d</fix>
</trkpt>
<trkpt lat="-27.274439" lon="151.290064">
  <ele>343.1</ele>
  <time>2026-09-01T20:03:11Z</time>
  <course>270.0</course>
  <speed>0.0</speed>
  <fix>3d</fix>
</trkpt>
<trkpt lat="-27.2744391" lon="151.2900641">
  <ele>343.09</ele>
  <time>2026-09-01T20:03:11Z</time>
  <course>10.72</course>
  <speed>0.01414213562373095</speed>
  <fix>3d</fix>
</trkpt>
<trkpt lat="-27.274439" lon="151.290064">
  <ele>343.1</ele>
  <time>2026-09-01T20:03:11Z</time>
  <course>270.0</course>
  <speed>0.0</speed>
  <fix>3d</fix>
</trkpt>
<trkpt lat="-27.2744391" lon="151.2900641">
  <ele>343.08</ele>
  <time>2026-09-01T20:03:11Z</time>
  <course>10.72</course>
  <speed>0.01414213562373095</speed>
  <fix>3d</fix>
</trkpt>
<trkpt lat="-27.274439" lon="151.290064">
  <ele>343.1</ele>
  <time>2026-09-01T20:03:11Z</time>
  <course>270.0</course>
  <speed>0.0</speed>
  <fix>3d</fix>
</trkpt>
<trkpt lat="-27.2744391" lon="151.2900641">
  <ele>343.08</ele>
  <time>2026-09-01T20:03:11Z</time>
  <course>10.72</course>
  <speed>0.01414213562373095</speed>
  <fix>3d</fix>
</trkpt>
<trkpt lat="-27.274439" lon="151.290064">
  <ele>343.1</ele>
  <time>2026-09-01T20:03:11Z</time>
  <course>270.0</course>
  <speed>0.0</speed>
  <fix>3d</fix>
</trkpt>
<trkpt lat="-27.2744391" lon="151.2900641">
  <ele>343.07</ele>
  <time>2026-09-01T20:03:11Z</time>
  <course>10.72</course>
  <speed>0.01414213562373095</speed>
  <fix>3d</fix>
</trkpt>
<trkpt lat="-27.274439" lon="151.290064">
  <ele>343.1</ele>
  <time>2026-09-01T20:03:11Z</time>
  <course>270.0</course>
  <speed>0.0</speed>
  <fix>3d</fix>
</trkpt>
<trkpt lat="-27.2744391" lon="151.2900641">
  <ele>343.07</ele>
  <time>2026-09-01T20:03:11Z</time>
  <course>10.72</course>
  <speed>0.01414213562373095</speed>
  <fix>3d</fix>
</trkpt>
<trkpt lat="-27.274439" lon="151.290064">
  <ele>343.1</ele>
  <time>2026-09-01T20:03:11Z</time>
  <course>270.0</course>
  <speed>0.0</speed>
  <fix>3d</fix>
</trkpt>
<trkpt lat="-27.2744391" lon="151.2900641">
  <ele>343.07</ele>
  <time>2026-09-01T20:03:11Z</time>
  <course>10.72</course>
  <speed>0.01414213562373095</speed>
  <fix>3d</fix>
</trkpt>
<trkpt lat="-27.274439" lon="151.290064">
  <ele>343.1</ele>
  <time>2026-09-01T20:03:11Z</time>
  <course>270.0</course>
  <speed>0.0</speed>
  <fix>3d</fix>
</trkpt>
<trkpt lat="-27.2744391" lon="151.2900641">
  <ele>343.06</ele>
  <time>2026-09-01T20:03:11Z</time>
  <course>10.72</course>
  <speed>0.01414213562373095</speed>
  <fix>3d</fix>
</trkpt>
<trkpt lat="-27.274439" lon="151.290064">
  <ele>343.1</ele>
  <time>2026-09-01T20:03:11Z</time>
  <course>270.0</course>
  <speed>0.0</speed>
  <fix>3d</fix>
</trkpt>
<trkpt lat="-27.2744391" lon="151.2900641">
  <ele>343.06</ele>
  <time>2026-09-01T20:03:11Z</time>
  <course>10.72</course>
  <speed>0.01414213562373095</speed>
  <fix>3d</fix>
</trkpt>
<trkpt lat="-27.274439" lon="151.290064">
  <ele>343.1</ele>
  <time>2026-09-01T20:03:11Z</time>
  <course>270.0</course>
  <speed>0.0</speed>
  <fix>3d</fix>
</trkpt>
<trkpt lat="-27.2744391" lon="151.2900641">
  <ele>343.05</ele>
  <time>2026-09-01T20:03:11Z</time>
  <course>10.72</course>
  <speed>0.01414213562373095</speed>
  <fix>3d</fix>
</trkpt>
<trkpt lat="-27.274439" lon="151.290064">
  <ele>343.1</ele>
  <time>2026-09-01T20:03:11Z</time>
  <course>270.0</course>
  <speed>0.0</speed>
  <fix>3d</fix>
</trkpt>
<trkpt lat="-27.2744391" lon="151.2900641">
  <ele>343.05</ele>
  <time>2026-09-01T20:03:11Z</time>
  <course>10.72</course>
  <speed>0.01414213562373095</speed>
  <fix>3d</fix>
</trkpt>
<trkpt lat="-27.274439" lon="151.290064">
  <ele>343.1</ele>
  <time>2026-09-01T20:03:11Z</time>
  <course>270.0</course>
  <speed>0.0</speed>
  <fix>3d</fix>
</trkpt>
<trkpt lat="-27.2744391" lon="151.2900641">
  <ele>343.05</ele>
  <time>2026-09-01T20:03:11Z</time>
  <course>10.72</course>
  <speed>0.01414213562373095</speed>
  <fix>3d</fix>
</trkpt>
<trkpt lat="-27.274439" lon="151.290064">
  <ele>343.1</ele>
  <time>2026-09-01T20:03:11Z</time>
  <course>270.0</course>
  <speed>0.0</speed>
  <fix>3d</fix>
</trkpt>
<trkpt lat="-27.2744391" lon="151.2900641">
  <ele>343.04</ele>
  <time>2026-09-01T20:03:11Z</time>
  <course>10.72</course>
  <speed>0.01414213562373095</speed>
  <fix>3d</fix>
</trkpt>
<trkpt lat="-27.274439" lon="151.290064">
  <ele>343.1</ele>
  <time>2026-09-01T20:03:11Z</time>
  <course>270.0</course>
  <speed>0.0</speed>
  <fix>3d</fix>
</trkpt>
<trkpt lat="-27.2744391" lon="151.2900641">
  <ele>343.04</ele>
  <time>2026-09-01T20:03:11Z</time>
  <course>10.72</course>
  <speed>0.01414213562373095</speed>
  <fix>3d</fix>
</trkpt>
<trkpt lat="-27.274439" lon="151.290064">
  <ele>343.1</ele>
  <time>2026-09-01T20:03:11Z</time>
  <course>270.0</course>
  <speed>0.0</speed>
  <fix>3d</fix>
</trkpt>
<trkpt lat="-27.2744391" lon="151.2900641">
  <ele>343.03</ele>
  <time>2026-09-01T20:03:11Z</time>
  <course>10.72</course>
  <speed>0.01414213562373095</speed>
  <fix>3d</fix>
</trkpt>
<trkpt lat="-27.274439" lon="151.290064">
  <ele>343.1</ele>
  <time>2026-09-01T20:03:11Z</time>
  <course>270.0</course>
  <speed>0.0</speed>
  <fix>3d</fix>
</trkpt>
<trkpt lat="-27.2744391" lon="151.2900641">
  <ele>343.03</ele>
  <time>2026-09-01T20:03:11Z</time>
  <course>10.72</course>
  <speed>0.01414213562373095</speed>
  <fix>3d</fix>
</trkpt>
<trkpt lat="-27.274439" lon="151.290064">
  <ele>343.1</ele>
  <time>2026-09-01T20:03:11Z</time>
  <course>270.0</course>
  <speed>0.0</speed>
  <fix>3d</fix>
</trkpt>
<trkpt lat="-27.2744391" lon="151.2900641">
  <ele>343.02</ele>
  <time>2026-09-01T20:03:11Z</time>
  <course>10.72</course>
  <speed>0.01414213562373095</speed>
  <fix>3d</fix>
</trkpt>
<trkpt lat="-27.274439" lon="151.290064">
  <ele>343.1</ele>
  <time>2026-09-01T20:03:11Z</time>
  <course>270.0</course>
  <speed>0.0</speed>
  <fix>3d</fix>
</trkpt>
<trkpt lat="-27.2744391" lon="151.2900641">
  <ele>343.02</ele>
  <time>2026-09-01T20:03:11Z</time>
  <course>10.72</course>
  <speed>0.01414213562373095</speed>
  <fix>3d</fix>
</trkpt>
<trkpt lat="-27.274439" lon="151.290064">
  <ele>343.1</ele>
  <time>2026-09-01T20:03:11Z</time>
  <course>270.0</course>
  <speed>0.0</speed>
  <fix>3d</fix>
</trkpt>
<trkpt lat="-27.2744391" lon="151.2900641">
  <ele>343.02</ele>
  <time>2026-09-01T20:03:11Z</time>
  <course>10.72</course>
  <speed>0.01414213562373095</speed>
  <fix>3d</fix>
</trkpt>
<trkpt lat="-27.274439" lon="151.290064">
  <ele>343.1</ele>
  <time>2026-09-01T20:03:11Z</time>
  <course>270.0</course>
  <speed>0.0</speed>
  <fix>3d</fix>
</trkpt>
<trkpt lat="-27.2744391" lon="151.2900641">
  <ele>343.02</ele>
  <time>2026-09-01T20:03:11Z</time>
  <course>10.72</course>
  <speed>0.01414213562373095</speed>
  <fix>3d</fix>
</trkpt>
<trkpt lat="-27.274439" lon="151.290064">
  <ele>343.1</ele>
  <time>2026-09-01T20:03:11Z</time>
  <course>270.0</course>
  <speed>0.0</speed>
  <fix>3d</fix>
</trkpt>
<trkpt lat="-27.2744391" lon="151.2900641">
  <ele>343.02</ele>
  <time>2026-09-01T20:03:11Z</time>
  <course>10.72</course>
  <speed>0.01414213562373095</speed>
  <fix>3d</fix>
</trkpt>
<trkpt lat="-27.274439" lon="151.290064">
  <ele>343.1</ele>
  <time>2026-09-01T20:03:11Z</time>
  <course>270.0</course>
  <speed>0.0</speed>
  <fix>3d</fix>
</trkpt>
<trkpt lat="-27.2744391" lon="151.2900641">
  <ele>343.02</ele>
  <time>2026-09-01T20:03:11Z</time>
  <course>10.72</course>
  <speed>0.01414213562373095</speed>
  <fix>3d</fix>
</trkpt>
<trkpt lat="-27.274439" lon="151.290064">
  <ele>343.1</ele>
  <time>2026-09-01T20:03:11Z</time>
  <course>270.0</course>
  <speed>0.0</speed>
  <fix>3d</fix>
</trkpt>
<trkpt lat="-27.2744391" lon="151.2900641">
  <ele>343.01</ele>
  <time>2026-09-01T20:03:11Z</time>
  <course>10.72</course>
  <speed>0.01414213562373095</speed>
  <fix>3d</fix>
</trkpt>
<trkpt lat="-27.274439" lon="151.290064">
  <ele>343.1</ele>
  <time>2026-09-01T20:03:11Z</time>
  <course>270.0</course>
  <speed>0.0</speed>
  <fix>3d</fix>
</trkpt>
<trkpt lat="-27.2744391" lon="151.2900641">
  <ele>343.01</ele>
  <time>2026-09-01T20:03:11Z</time>
  <course>10.72</course>
  <speed>0.01414213562373095</speed>
  <fix>3d</fix>
</trkpt>
<trkpt lat="-27.274439" lon="151.290064">
  <ele>343.1</ele>
  <time>2026-09-01T20:03:11Z</time>
  <course>270.0</course>
  <speed>0.0</speed>
  <fix>3d</fix>
</trkpt>
<trkpt lat="-27.2744391" lon="151.2900641">
  <ele>343.0</ele>
  <time>2026-09-01T20:03:11Z</time>
  <course>10.72</course>
  <speed>0.01414213562373095</speed>
  <fix>3d</fix>
</trkpt>
<trkpt lat="-27.274439" lon="151.290064">
  <ele>343.1</ele>
  <time>2026-09-01T20:03:11Z</time>
  <course>270.0</course>
  <speed>0.0</speed>
  <fix>3d</fix>
</trkpt>
<trkpt lat="-27.2744391" lon="151.2900641">
  <ele>343.0</ele>
  <time>2026-09-01T20:03:11Z</time>
  <course>10.73</course>
  <speed>0.01414213562373095</speed>
  <fix>3d</fix>
</trkpt>
<trkpt lat="-27.274439" lon="151.290064">
  <ele>343.1</ele>
  <time>2026-09-01T20:03:11Z</time>
  <course>270.0</course>
  <speed>0.0</speed>
  <fix>3d</fix>
</trkpt>
<trkpt lat="-27.2744391" lon="151.2900641">
  <ele>343.0</ele>
  <time>2026-09-01T20:03:11Z</time>
  <course>10.73</course>
  <speed>0.01414213562373095</speed>
  <fix>3d</fix>
</trkpt>
<trkpt lat="-27.274439" lon="151.290064">
  <ele>343.1</ele>
  <time>2026-09-01T20:03:11Z</time>
  <course>270.0</course>
  <speed>0.0</speed>
  <fix>3d</fix>
</trkpt>
<trkpt lat="-27.2744391" lon="151.2900641">
  <ele>342.99</ele>
  <time>2026-09-01T20:03:11Z</time>
  <course>10.73</course>
  <speed>0.01414213562373095</speed>
  <fix>3d</fix>
</trkpt>
<trkpt lat="-27.274439" lon="151.290064">
  <ele>343.1</ele>
  <time>2026-09-01T20:03:11Z</time>
  <course>270.0</course>
  <speed>0.0</speed>
  <fix>3d</fix>
</trkpt>
<trkpt lat="-27.2744391" lon="151.2900641">
  <ele>342.99</ele>
  <time>2026-09-01T20:03:11Z</time>
  <course>10.73</course>
  <speed>0.01414213562373095</speed>
  <fix>3d</fix>
</trkpt>
<trkpt lat="-27.274439" lon="151.290064">
  <ele>343.1</ele>
  <time>2026-09-01T20:03:11Z</time>
  <course>270.0</course>
  <speed>0.0</speed>
  <fix>3d</fix>
</trkpt>
<trkpt lat="-27.2744391" lon="151.2900641">
  <ele>342.99</ele>
  <time>2026-09-01T20:03:11Z</time>
  <course>10.73</course>
  <speed>0.01414213562373095</speed>
  <fix>3d</fix>
</trkpt>
<trkpt lat="-27.274439" lon="151.290064">
  <ele>343.1</ele>
  <time>2026-09-01T20:03:11Z</time>
  <course>270.0</course>
  <speed>0.0</speed>
  <fix>3d</fix>
</trkpt>
<trkpt lat="-27.2744391" lon="151.2900641">
  <ele>342.99</ele>
  <time>2026-09-01T20:03:11Z</time>
  <course>10.73</course>
  <speed>0.01414213562373095</speed>
  <fix>3d</fix>
</trkpt>
<trkpt lat="-27.274439" lon="151.290064">
  <ele>343.1</ele>
  <time>2026-09-01T20:03:11Z</time>
  <course>270.0</course>
  <speed>0.0</speed>
  <fix>3d</fix>
</trkpt>
<trkpt lat="-27.2744391" lon="151.2900641">
  <ele>342.99</ele>
  <time>2026-09-01T20:03:11Z</time>
  <course>10.73</course>
  <speed>0.01414213562373095</speed>
  <fix>3d</fix>
</trkpt>
<trkpt lat="-27.274439" lon="151.290064">
  <ele>343.1</ele>
  <time>2026-09-01T20:03:11Z</time>
  <course>270.0</course>
  <speed>0.0</speed>
  <fix>3d</fix>
</trkpt>
<trkpt lat="-27.2744391" lon="151.2900641">
  <ele>342.98</ele>
  <time>2026-09-01T20:03:11Z</time>
  <course>10.73</course>
  <speed>0.01414213562373095</speed>
  <fix>3d</fix>
</trkpt>
<trkpt lat="-27.274439" lon="151.290064">
  <ele>343.1</ele>
  <time>2026-09-01T20:03:11Z</time>
  <course>270.0</course>
  <speed>0.0</speed>
  <fix>3d</fix>
</trkpt>
<trkpt lat="-27.2744391" lon="151.2900641">
  <ele>342.98</ele>
  <time>2026-09-01T20:03:11Z</time>
  <course>10.73</course>
  <speed>0.01414213562373095</speed>
  <fix>3d</fix>
</trkpt>
<trkpt lat="-27.274439" lon="151.290064">
  <ele>343.1</ele>
  <time>2026-09-01T20:03:11Z</time>
  <course>270.0</course>
  <speed>0.0</speed>
  <fix>3d</fix>
</trkpt>
<trkpt lat="-27.2744391" lon="151.2900641">
  <ele>342.98</ele>
  <time>2026-09-01T20:03:11Z</time>
  <course>10.73</course>
  <speed>0.01414213562373095</speed>
  <fix>3d</fix>
</trkpt>
<trkpt lat="-27.274439" lon="151.290064">
  <ele>343.1</ele>
  <time>2026-09-01T20:03:11Z</time>
  <course>270.0</course>
  <speed>0.0</speed>
  <fix>3d</fix>
</trkpt>
<trkpt lat="-27.2744391" lon="151.2900641">
  <ele>342.98</ele>
  <time>2026-09-01T20:03:11Z</time>
  <course>10.73</course>
  <speed>0.01414213562373095</speed>
  <fix>3d</fix>
</trkpt>
<trkpt lat="-27.274439" lon="151.290064">
  <ele>343.1</ele>
  <time>2026-09-01T20:03:11Z</time>
  <course>270.0</course>
  <speed>0.0</speed>
  <fix>3d</fix>
</trkpt>
<trkpt lat="-27.2744391" lon="151.2900641">
  <ele>342.98</ele>
  <time>2026-09-01T20:03:11Z</time>
  <course>10.73</course>
  <speed>0.01414213562373095</speed>
  <fix>3d</fix>
</trkpt>
<trkpt lat="-27.274439" lon="151.290064">
  <ele>343.1</ele>
  <time>2026-09-01T20:03:11Z</time>
  <course>270.0</course>
  <speed>0.0</speed>
  <fix>3d</fix>
</trkpt>
<trkpt lat="-27.2744391" lon="151.2900641">
  <ele>342.98</ele>
  <time>2026-09-01T20:03:11Z</time>
  <course>10.73</course>
  <speed>0.01414213562373095</speed>
  <fix>3d</fix>
</trkpt>
<trkpt lat="-27.274439" lon="151.290064">
  <ele>343.1</ele>
  <time>2026-09-01T20:03:11Z</time>
  <course>270.0</course>
  <speed>0.0</speed>
  <fix>3d</fix>
</trkpt>
<trkpt lat="-27.2744391" lon="151.2900641">
  <ele>342.98</ele>
  <time>2026-09-01T20:03:11Z</time>
  <course>10.73</course>
  <speed>0.01414213562373095</speed>
  <fix>3d</fix>
</trkpt>
<trkpt lat="-27.274439" lon="151.290064">
  <ele>343.1</ele>
  <time>2026-09-01T20:03:11Z</time>
  <course>270.0</course>
  <speed>0.0</speed>
  <fix>3d</fix>
</trkpt>
<trkpt lat="-27.2744391" lon="151.2900641">
  <ele>342.98</ele>
  <time>2026-09-01T20:03:11Z</time>
  <course>10.73</course>
  <speed>0.01414213562373095</speed>
  <fix>3d</fix>
</trkpt>
<trkpt lat="-27.274439" lon="151.290064">
  <ele>343.1</ele>
  <time>2026-09-01T20:03:11Z</time>
  <course>270.0</course>
  <speed>0.0</speed>
  <fix>3d</fix>
</trkpt>
<trkpt lat="-27.2744391" lon="151.2900641">
  <ele>342.98</ele>
  <time>2026-09-01T20:03:11Z</time>
  <course>10.73</course>
  <speed>0.01414213562373095</speed>
  <fix>3d</fix>
</trkpt>
<trkpt lat="-27.274439" lon="151.290064">
  <ele>343.1</ele>
  <time>2026-09-01T20:03:11Z</time>
  <course>270.0</course>
  <speed>0.0</speed>
  <fix>3d</fix>
</trkpt>
<trkpt lat="-27.2744391" lon="151.2900641">
  <ele>342.98</ele>
  <time>2026-09-01T20:03:11Z</time>
  <course>10.73</course>
  <speed>0.01414213562373095</speed>
  <fix>3d</fix>
</trkpt>
<trkpt lat="-27.274439" lon="151.290064">
  <ele>343.1</ele>
  <time>2026-09-01T20:03:11Z</time>
  <course>270.0</course>
  <speed>0.0</speed>
  <fix>3d</fix>
</trkpt>
<trkpt lat="-27.2744391" lon="151.2900641">
  <ele>342.98</ele>
  <time>2026-09-01T20:03:11Z</time>
  <course>10.73</course>
  <speed>0.01414213562373095</speed>
  <fix>3d</fix>
</trkpt>
<trkpt lat="-27.274439" lon="151.290064">
  <ele>343.1</ele>
  <time>2026-09-01T20:03:11Z</time>
  <course>270.0</course>
  <speed>0.0</speed>
  <fix>3d</fix>
</trkpt>
<trkpt lat="-27.2744391" lon="151.2900641">
  <ele>342.97</ele>
  <time>2026-09-01T20:03:11Z</time>
  <course>10.73</course>
  <speed>0.01414213562373095</speed>
  <fix>3d</fix>
</trkpt>
<trkpt lat="-27.274439" lon="151.290064">
  <ele>343.1</ele>
  <time>2026-09-01T20:03:11Z</time>
  <course>270.0</course>
  <speed>0.0</speed>
  <fix>3d</fix>
</trkpt>
<trkpt lat="-27.2744391" lon="151.2900641">
  <ele>342.97</ele>
  <time>2026-09-01T20:03:11Z</time>
  <course>10.73</course>
  <speed>0.01414213562373095</speed>
  <fix>3d</fix>
</trkpt>
<trkpt lat="-27.274439" lon="151.290064">
  <ele>343.1</ele>
  <time>2026-09-01T20:03:11Z</time>
  <course>270.0</course>
  <speed>0.0</speed>
  <fix>3d</fix>
</trkpt>
<trkpt lat="-27.2744391" lon="151.2900641">
  <ele>342.97</ele>
  <time>2026-09-01T20:03:11Z</time>
  <course>10.73</course>
  <speed>0.01414213562373095</speed>
  <fix>3d</fix>
</trkpt>
<trkpt lat="-27.274439" lon="151.290064">
  <ele>343.1</ele>
  <time>2026-09-01T20:03:11Z</time>
  <course>270.0</course>
  <speed>0.0</speed>
  <fix>3d</fix>
</trkpt>
<trkpt lat="-27.2744391" lon="151.2900641">
  <ele>342.96</ele>
  <time>2026-09-01T20:03:11Z</time>
  <course>10.73</course>
  <speed>0.01414213562373095</speed>
  <fix>3d</fix>
</trkpt>
<trkpt lat="-27.274439" lon="151.290064">
  <ele>343.1</ele>
  <time>2026-09-01T20:03:11Z</time>
  <course>270.0</course>
  <speed>0.0</speed>
  <fix>3d</fix>
</trkpt>
<trkpt lat="-27.2744391" lon="151.2900641">
  <ele>342.96</ele>
  <time>2026-09-01T20:03:11Z</time>
  <course>10.73</course>
  <speed>0.01414213562373095</speed>
  <fix>3d</fix>
</trkpt>
<trkpt lat="-27.274439" lon="151.290064">
  <ele>343.1</ele>
  <time>2026-09-01T20:03:11Z</time>
  <course>270.0</course>
  <speed>0.0</speed>
  <fix>3d</fix>
</trkpt>
<trkpt lat="-27.2744391" lon="151.2900641">
  <ele>342.96</ele>
  <time>2026-09-01T20:03:11Z</time>
  <course>10.73</course>
  <speed>0.01414213562373095</speed>
  <fix>3d</fix>
</trkpt>
<trkpt lat="-27.274439" lon="151.290064">
  <ele>343.1</ele>
  <time>2026-09-01T20:03:11Z</time>
  <course>270.0</course>
  <speed>0.0</speed>
  <fix>3d</fix>
</trkpt>
<trkpt lat="-27.2744391" lon="151.2900641">
  <ele>342.96</ele>
  <time>2026-09-01T20:03:11Z</time>
  <course>10.73</course>
  <speed>0.01414213562373095</speed>
  <fix>3d</fix>
</trkpt>
<trkpt lat="-27.274439" lon="151.290064">
  <ele>343.1</ele>
  <time>2026-09-01T20:03:11Z</time>
  <course>270.0</course>
  <speed>0.0</speed>
  <fix>3d</fix>
</trkpt>
<trkpt lat="-27.2744391" lon="151.2900641">
  <ele>342.95</ele>
  <time>2026-09-01T20:03:11Z</time>
  <course>10.73</course>
  <speed>0.01414213562373095</speed>
  <fix>3d</fix>
</trkpt>
<trkpt lat="-27.274439" lon="151.290064">
  <ele>343.1</ele>
  <time>2026-09-01T20:03:11Z</time>
  <course>270.0</course>
  <speed>0.0</speed>
  <fix>3d</fix>
</trkpt>
<trkpt lat="-27.2744391" lon="151.2900641">
  <ele>342.95</ele>
  <time>2026-09-01T20:03:11Z</time>
  <course>10.73</course>
  <speed>0.01414213562373095</speed>
  <fix>3d</fix>
</trkpt>
<trkpt lat="-27.274439" lon="151.290064">
  <ele>343.1</ele>
  <time>2026-09-01T20:03:11Z</time>
  <course>270.0</course>
  <speed>0.0</speed>
  <fix>3d</fix>
</trkpt>
<trkpt lat="-27.2744391" lon="151.2900641">
  <ele>342.95</ele>
  <time>2026-09-01T20:03:11Z</time>
  <course>10.73</course>
  <speed>0.01414213562373095</speed>
  <fix>3d</fix>
</trkpt>
<trkpt lat="-27.274439" lon="151.290064">
  <ele>343.1</ele>
  <time>2026-09-01T20:03:11Z</time>
  <course>270.0</course>
  <speed>0.0</speed>
  <fix>3d</fix>
</trkpt>
<trkpt lat="-27.2744391" lon="151.2900641">
  <ele>342.95</ele>
  <time>2026-09-01T20:03:11Z</time>
  <course>10.73</course>
  <speed>0.01414213562373095</speed>
  <fix>3d</fix>
</trkpt>
<trkpt lat="-27.274439" lon="151.290064">
  <ele>343.1</ele>
  <time>2026-09-01T20:03:11Z</time>
  <course>270.0</course>
  <speed>0.0</speed>
  <fix>3d</fix>
</trkpt>
<trkpt lat="-27.2744391" lon="151.2900641">
  <ele>342.95</ele>
  <time>2026-09-01T20:03:11Z</time>
  <course>10.73</course>
  <speed>0.01414213562373095</speed>
  <fix>3d</fix>
</trkpt>
<trkpt lat="-27.274439" lon="151.290064">
  <ele>343.1</ele>
  <time>2026-09-01T20:03:11Z</time>
  <course>270.0</course>
  <speed>0.0</speed>
  <fix>3d</fix>
</trkpt>
<trkpt lat="-27.2744391" lon="151.2900641">
  <ele>342.95</ele>
  <time>2026-09-01T20:03:11Z</time>
  <course>10.73</course>
  <speed>0.01414213562373095</speed>
  <fix>3d</fix>
</trkpt>
<trkpt lat="-27.274439" lon="151.290064">
  <ele>343.1</ele>
  <time>2026-09-01T20:03:11Z</time>
  <course>270.0</course>
  <speed>0.0</speed>
  <fix>3d</fix>
</trkpt>
<trkpt lat="-27.2744391" lon="151.2900641">
  <ele>343.1</ele>
  <time>2026-09-01T20:03:11Z</time>
  <course>10.73</course>
  <speed>0.01414213562373095</speed>
  <fix>3d</fix>
</trkpt>
<trkpt lat="-27.274439" lon="151.290064">
  <ele>343.1</ele>
  <time>2026-09-01T20:03:11Z</time>
  <course>270.0</course>
  <speed>0.0</speed>
  <fix>3d</fix>
</trkpt>
<trkpt lat="-27.2744391" lon="151.2900641">
  <ele>343.09</ele>
  <time>2026-09-01T20:03:11Z</time>
  <course>10.74</course>
  <speed>0.01414213562373095</speed>
  <fix>3d</fix>
</trkpt>
<trkpt lat="-27.274439" lon="151.290064">
  <ele>343.1</ele>
  <time>2026-09-01T20:03:11Z</time>
  <course>270.0</course>
  <speed>0.0</speed>
  <fix>3d</fix>
</trkpt>
<trkpt lat="-27.2744391" lon="151.2900641">
  <ele>343.09</ele>
  <time>2026-09-01T20:03:11Z</time>
  <course>10.74</course>
  <speed>0.01414213562373095</speed>
  <fix>3d</fix>
</trkpt>
<trkpt lat="-27.274439" lon="151.290064">
  <ele>343.1</ele>
  <time>2026-09-01T20:03:11Z</time>
  <course>270.0</course>
  <speed>0.0</speed>
  <fix>3d</fix>
</trkpt>
<trkpt lat="-27.2744391" lon="151.2900641">
  <ele>343.09</ele>
  <time>2026-09-01T20:03:11Z</time>
  <course>10.74</course>
  <speed>0.01414213562373095</speed>
  <fix>3d</fix>
</trkpt>
<trkpt lat="-27.274439" lon="151.290064">
  <ele>343.1</ele>
  <time>2026-09-01T20:03:11Z</time>
  <course>270.0</course>
  <speed>0.0</speed>
  <fix>3d</fix>
</trkpt>
<trkpt lat="-27.2744391" lon="151.2900641">
  <ele>343.09</ele>
  <time>2026-09-01T20:03:11Z</time>
  <course>10.74</course>
  <speed>0.01414213562373095</speed>
  <fix>3d</fix>
</trkpt>
<trkpt lat="-27.274439" lon="151.290064">
  <ele>343.1</ele>
  <time>2026-09-01T20:03:11Z</time>
  <course>270.0</course>
  <speed>0.0</speed>
  <fix>3d</fix>
</trkpt>
<trkpt lat="-27.2744391" lon="151.2900641">
  <ele>343.09</ele>
  <time>2026-09-01T20:03:11Z</time>
  <course>10.74</course>
  <speed>0.01414213562373095</speed>
  <fix>3d</fix>
</trkpt>
<trkpt lat="-27.274439" lon="151.290064">
  <ele>343.1</ele>
  <time>2026-09-01T20:03:11Z</time>
  <course>270.0</course>
  <speed>0.0</speed>
  <fix>3d</fix>
</trkpt>
<trkpt lat="-27.2744391" lon="151.2900641">
  <ele>343.08</ele>
  <time>2026-09-01T20:03:11Z</time>
  <course>10.74</course>
  <speed>0.01414213562373095</speed>
  <fix>3d</fix>
</trkpt>
<trkpt lat="-27.274439" lon="151.290064">
  <ele>343.1</ele>
  <time>2026-09-01T20:03:11Z</time>
  <course>270.0</course>
  <speed>0.0</speed>
  <fix>3d</fix>
</trkpt>
<trkpt lat="-27.2744391" lon="151.2900641">
  <ele>343.08</ele>
  <time>2026-09-01T20:03:11Z</time>
  <course>10.74</course>
  <speed>0.01414213562373095</speed>
  <fix>3d</fix>
</trkpt>
<trkpt lat="-27.274439" lon="151.290064">
  <ele>343.1</ele>
  <time>2026-09-01T20:03:11Z</time>
  <course>270.0</course>
  <speed>0.0</speed>
  <fix>3d</fix>
</trkpt>
<trkpt lat="-27.2744391" lon="151.2900641">
  <ele>343.08</ele>
  <time>2026-09-01T20:03:11Z</time>
  <course>10.74</course>
  <speed>0.01414213562373095</speed>
  <fix>3d</fix>
</trkpt>
<trkpt lat="-27.274439" lon="151.290064">
  <ele>343.1</ele>
  <time>2026-09-01T20:03:11Z</time>
  <course>270.0</course>
  <speed>0.0</speed>
  <fix>3d</fix>
</trkpt>
<trkpt lat="-27.2744391" lon="151.2900641">
  <ele>343.07</ele>
  <time>2026-09-01T20:03:11Z</time>
  <course>10.74</course>
  <speed>0.01414213562373095</speed>
  <fix>3d</fix>
</trkpt>
<trkpt lat="-27.274439" lon="151.290064">
  <ele>343.1</ele>
  <time>2026-09-01T20:03:11Z</time>
  <course>270.0</course>
  <speed>0.0</speed>
  <fix>3d</fix>
</trkpt>
<trkpt lat="-27.2744391" lon="151.2900641">
  <ele>343.07</ele>
  <time>2026-09-01T20:03:11Z</time>
  <course>10.74</course>
  <speed>0.01414213562373095</speed>
  <fix>3d</fix>
</trkpt>
<trkpt lat="-27.274439" lon="151.290064">
  <ele>343.1</ele>
  <time>2026-09-01T20:03:11Z</time>
  <course>270.0</course>
  <speed>0.0</speed>
  <fix>3d</fix>
</trkpt>
<trkpt lat="-27.2744391" lon="151.2900641">
  <ele>343.07</ele>
  <time>2026-09-01T20:03:11Z</time>
  <course>10.74</course>
  <speed>0.01414213562373095</speed>
  <fix>3d</fix>
</trkpt>
<trkpt lat="-27.274439" lon="151.290064">
  <ele>343.1</ele>
  <time>2026-09-01T20:03:11Z</time>
  <course>270.0</course>
  <speed>0.0</speed>
  <fix>3d</fix>
</trkpt>
<trkpt lat="-27.2744391" lon="151.2900641">
  <ele>343.07</ele>
  <time>2026-09-01T20:03:11Z</time>
  <course>10.74</course>
  <speed>0.01414213562373095</speed>
  <fix>3d</fix>
</trkpt>
<trkpt lat="-27.274439" lon="151.290064">
  <ele>343.1</ele>
  <time>2026-09-01T20:03:11Z</time>
  <course>270.0</course>
  <speed>0.0</speed>
  <fix>3d</fix>
</trkpt>
<trkpt lat="-27.2744391" lon="151.2900641">
  <ele>343.06</ele>
  <time>2026-09-01T20:03:11Z</time>
  <course>10.74</course>
  <speed>0.01414213562373095</speed>
  <fix>3d</fix>
</trkpt>
<trkpt lat="-27.274439" lon="151.290064">
  <ele>343.1</ele>
  <time>2026-09-01T20:03:11Z</time>
  <course>270.0</course>
  <speed>0.0</speed>
  <fix>3d</fix>
</trkpt>
<trkpt lat="-27.2744391" lon="151.2900641">
  <ele>343.06</ele>
  <time>2026-09-01T20:03:11Z</time>
  <course>10.74</course>
  <speed>0.01414213562373095</speed>
  <fix>3d</fix>
</trkpt>
<trkpt lat="-27.274439" lon="151.290064">
  <ele>343.1</ele>
  <time>2026-09-01T20:03:11Z</time>
  <course>270.0</course>
  <speed>0.0</speed>
  <fix>3d</fix>
</trkpt>
<trkpt lat="-27.2744391" lon="151.2900641">
  <ele>343.06</ele>
  <time>2026-09-01T20:03:11Z</time>
  <course>10.74</course>
  <speed>0.01414213562373095</speed>
  <fix>3d</fix>
</trkpt>
<trkpt lat="-27.274439" lon="151.290064">
  <ele>343.1</ele>
  <time>2026-09-01T20:03:11Z</time>
  <course>270.0</course>
  <speed>0.0</speed>
  <fix>3d</fix>
</trkpt>
<trkpt lat="-27.2744391" lon="151.2900641">
  <ele>343.06</ele>
  <time>2026-09-01T20:03:11Z</time>
  <course>10.74</course>
  <speed>0.01414213562373095</speed>
  <fix>3d</fix>
</trkpt>
<trkpt lat="-27.274439" lon="151.290064">
  <ele>343.1</ele>
  <time>2026-09-01T20:03:11Z</time>
  <course>270.0</course>
  <speed>0.0</speed>
  <fix>3d</fix>
</trkpt>
<trkpt lat="-27.2744391" lon="151.2900641">
  <ele>343.06</ele>
  <time>2026-09-01T20:03:11Z</time>
  <course>10.74</course>
  <speed>0.022360679774997897</speed>
  <fix>3d</fix>
</trkpt>
<trkpt lat="-27.274439" lon="151.290064">
  <ele>343.1</ele>
  <time>2026-09-01T20:03:11Z</time>
  <course>270.0</course>
  <speed>0.0</speed>
  <fix>3d</fix>
</trkpt>
<trkpt lat="-27.2744391" lon="151.2900641">
  <ele>343.06</ele>
  <time>2026-09-01T20:03:11Z</time>
  <course>10.74</course>
  <speed>0.01414213562373095</speed>
  <fix>3d</fix>
</trkpt>
<trkpt lat="-27.274439" lon="151.290064">
  <ele>343.1</ele>
  <time>2026-09-01T20:03:11Z</time>
  <course>270.0</course>
  <speed>0.0</speed>
  <fix>3d</fix>
</trkpt>
<trkpt lat="-27.2744391" lon="151.2900641">
  <ele>343.06</ele>
  <time>2026-09-01T20:03:11Z</time>
  <course>10.74</course>
  <speed>0.022360679774997897</speed>
  <fix>3d</fix>
</trkpt>
<trkpt lat="-27.274439" lon="151.290064">
  <ele>343.1</ele>
  <time>2026-09-01T20:03:11Z</time>
  <course>270.0</course>
  <speed>0.0</speed>
  <fix>3d</fix>
</trkpt>
<trkpt lat="-27.2744391" lon="151.2900641">
  <ele>343.06</ele>
  <time>2026-09-01T20:03:11Z</time>
  <course>10.74</course>
  <speed>0.022360679774997897</speed>
  <fix>3d</fix>
</trkpt>
<trkpt lat="-27.274439" lon="151.290064">
  <ele>343.1</ele>
  <time>2026-09-01T20:03:11Z</time>
  <course>270.0</course>
  <speed>0.0</speed>
  <fix>3d</fix>
</trkpt>
<trkpt lat="-27.2744391" lon="151.2900641">
  <ele>343.06</ele>
  <time>2026-09-01T20:03:11Z</time>
  <course>10.74</course>
  <speed>0.022360679774997897</speed>
  <fix>3d</fix>
</trkpt>
<trkpt lat="-27.274439" lon="151.290064">
  <ele>343.1</ele>
  <time>2026-09-01T20:03:11Z</time>
  <course>270.0</course>
  <speed>0.0</speed>
  <fix>3d</fix>
</trkpt>
<trkpt lat="-27.2744391" lon="151.2900641">
  <ele>343.06</ele>
  <time>2026-09-01T20:03:11Z</time>
  <course>10.74</course>
  <speed>0.022360679774997897</speed>
  <fix>3d</fix>
</trkpt>
<trkpt lat="-27.274439" lon="151.290064">
  <ele>343.1</ele>
  <time>2026-09-01T20:03:11Z</time>
  <course>270.0</course>
  <speed>0.0</speed>
  <fix>3d</fix>
</trkpt>
<trkpt lat="-27.2744391" lon="151.2900641">
  <ele>343.06</ele>
  <time>2026-09-01T20:03:11Z</time>
  <course>10.74</course>
  <speed>0.022360679774997897</speed>
  <fix>3d</fix>
</trkpt>
<trkpt lat="-27.274439" lon="151.290064">
  <ele>343.1</ele>
  <time>2026-09-01T20:03:11Z</time>
  <course>270.0</course>
  <speed>0.0</speed>
  <fix>3d</fix>
</trkpt>
<trkpt lat="-27.2744391" lon="151.2900641">
  <ele>343.06</ele>
  <time>2026-09-01T20:03:11Z</time>
  <course>10.74</course>
  <speed>0.022360679774997897</speed>
  <fix>3d</fix>
</trkpt>
<trkpt lat="-27.274439" lon="151.290064">
  <ele>343.1</ele>
  <time>2026-09-01T20:03:11Z</time>
  <course>270.0</course>
  <speed>0.0</speed>
  <fix>3d</fix>
</trkpt>
<trkpt lat="-27.2744391" lon="151.2900641">
  <ele>343.06</ele>
  <time>2026-09-01T20:03:11Z</time>
  <course>10.74</course>
  <speed>0.022360679774997897</speed>
  <fix>3d</fix>
</trkpt>
<trkpt lat="-27.274439" lon="151.290064">
  <ele>343.1</ele>
  <time>2026-09-01T20:03:11Z</time>
  <course>270.0</course>
  <speed>0.0</speed>
  <fix>3d</fix>
</trkpt>
<trkpt lat="-27.2744391" lon="151.2900641">
  <ele>343.06</ele>
  <time>2026-09-01T20:03:11Z</time>
  <course>10.74</course>
  <speed>0.022360679774997897</speed>
  <fix>3d</fix>
</trkpt>
<trkpt lat="-27.274439" lon="151.290064">
  <ele>343.1</ele>
  <time>2026-09-01T20:03:11Z</time>
  <course>270.0</course>
  <speed>0.0</speed>
  <fix>3d</fix>
</trkpt>
<trkpt lat="-27.2744391" lon="151.2900641">
  <ele>343.06</ele>
  <time>2026-09-01T20:03:11Z</time>
  <course>10.74</course>
  <speed>0.022360679774997897</speed>
  <fix>3d</fix>
</trkpt>
<trkpt lat="-27.274439" lon="151.290064">
  <ele>343.1</ele>
  <time>2026-09-01T20:03:11Z</time>
  <course>270.0</course>
  <speed>0.0</speed>
  <fix>3d</fix>
</trkpt>
<trkpt lat="-27.2744391" lon="151.2900641">
  <ele>343.05</ele>
  <time>2026-09-01T20:03:11Z</time>
  <course>10.75</course>
  <speed>0.022360679774997897</speed>
  <fix>3d</fix>
</trkpt>
<trkpt lat="-27.274439" lon="151.290064">
  <ele>343.1</ele>
  <time>2026-09-01T20:03:11Z</time>
  <course>270.0</course>
  <speed>0.0</speed>
  <fix>3d</fix>
</trkpt>
<trkpt lat="-27.2744391" lon="151.2900641">
  <ele>343.05</ele>
  <time>2026-09-01T20:03:11Z</time>
  <course>10.75</course>
  <speed>0.022360679774997897</speed>
  <fix>3d</fix>
</trkpt>
<trkpt lat="-27.274439" lon="151.290064">
  <ele>343.1</ele>
  <time>2026-09-01T20:03:11Z</time>
  <course>270.0</course>
  <speed>0.0</speed>
  <fix>3d</fix>
</trkpt>
<trkpt lat="-27.2744391" lon="151.2900641">
  <ele>343.05</ele>
  <time>2026-09-01T20:03:11Z</time>
  <course>10.75</course>
  <speed>0.022360679774997897</speed>
  <fix>3d</fix>
</trkpt>
<trkpt lat="-27.274439" lon="151.290064">
  <ele>343.1</ele>
  <time>2026-09-01T20:03:11Z</time>
  <course>270.0</course>
  <speed>0.0</speed>
  <fix>3d</fix>
</trkpt>
<trkpt lat="-27.2744391" lon="151.2900641">
  <ele>343.04</ele>
  <time>2026-09-01T20:03:11Z</time>
  <course>10.75</course>
  <speed>0.022360679774997897</speed>
  <fix>3d</fix>
</trkpt>
<trkpt lat="-27.274439" lon="151.290064">
  <ele>343.1</ele>
  <time>2026-09-01T20:03:11Z</time>
  <course>270.0</course>
  <speed>0.0</speed>
  <fix>3d</fix>
</trkpt>
<trkpt lat="-27.2744391" lon="151.2900641">
  <ele>343.04</ele>
  <time>2026-09-01T20:03:11Z</time>
  <course>10.75</course>
  <speed>0.022360679774997897</speed>
  <fix>3d</fix>
</trkpt>
<trkpt lat="-27.274439" lon="151.290064">
  <ele>343.1</ele>
  <time>2026-09-01T20:03:11Z</time>
  <course>270.0</course>
  <speed>0.0</speed>
  <fix>3d</fix>
</trkpt>
<trkpt lat="-27.2744391" lon="151.2900641">
  <ele>343.04</ele>
  <time>2026-09-01T20:03:11Z</time>
  <course>10.75</course>
  <speed>0.022360679774997897</speed>
  <fix>3d</fix>
</trkpt>
<trkpt lat="-27.274439" lon="151.290064">
  <ele>343.1</ele>
  <time>2026-09-01T20:03:11Z</time>
  <course>270.0</course>
  <speed>0.0</speed>
  <fix>3d</fix>
</trkpt>
<trkpt lat="-27.2744391" lon="151.2900641">
  <ele>343.04</ele>
  <time>2026-09-01T20:03:11Z</time>
  <course>10.75</course>
  <speed>0.022360679774997897</speed>
  <fix>3d</fix>
</trkpt>
<trkpt lat="-27.274439" lon="151.290064">
  <ele>343.1</ele>
  <time>2026-09-01T20:03:11Z</time>
  <course>270.0</course>
  <speed>0.0</speed>
  <fix>3d</fix>
</trkpt>
<trkpt lat="-27.2744391" lon="151.2900641">
  <ele>343.04</ele>
  <time>2026-09-01T20:03:11Z</time>
  <course>10.75</course>
  <speed>0.022360679774997897</speed>
  <fix>3d</fix>
</trkpt>
<trkpt lat="-27.274439" lon="151.290064">
  <ele>343.1</ele>
  <time>2026-09-01T20:03:11Z</time>
  <course>270.0</course>
  <speed>0.0</speed>
  <fix>3d</fix>
</trkpt>
<trkpt lat="-27.2744391" lon="151.2900641">
  <ele>343.03</ele>
  <time>2026-09-01T20:03:11Z</time>
  <course>10.75</course>
  <speed>0.022360679774997897</speed>
  <fix>3d</fix>
</trkpt>
<trkpt lat="-27.274439" lon="151.290064">
  <ele>343.1</ele>
  <time>2026-09-01T20:03:11Z</time>
  <course>270.0</course>
  <speed>0.0</speed>
  <fix>3d</fix>
</trkpt>
<trkpt lat="-27.2744391" lon="151.2900641">
  <ele>343.03</ele>
  <time>2026-09-01T20:03:11Z</time>
  <course>10.75</course>
  <speed>0.022360679774997897</speed>
  <fix>3d</fix>
</trkpt>
<trkpt lat="-27.274439" lon="151.290064">
  <ele>343.1</ele>
  <time>2026-09-01T20:03:11Z</time>
  <course>270.0</course>
  <speed>0.0</speed>
  <fix>3d</fix>
</trkpt>
<trkpt lat="-27.2744391" lon="151.2900641">
  <ele>343.03</ele>
  <time>2026-09-01T20:03:11Z</time>
  <course>10.75</course>
  <speed>0.022360679774997897</speed>
  <fix>3d</fix>
</trkpt>
<trkpt lat="-27.274439" lon="151.290064">
  <ele>343.1</ele>
  <time>2026-09-01T20:03:11Z</time>
  <course>270.0</course>
  <speed>0.0</speed>
  <fix>3d</fix>
</trkpt>
<trkpt lat="-27.2744391" lon="151.2900641">
  <ele>343.03</ele>
  <time>2026-09-01T20:03:11Z</time>
  <course>10.75</course>
  <speed>0.022360679774997897</speed>
  <fix>3d</fix>
</trkpt>
<trkpt lat="-27.274439" lon="151.290064">
  <ele>343.1</ele>
  <time>2026-09-01T20:03:11Z</time>
  <course>270.0</course>
  <speed>0.0</speed>
  <fix>3d</fix>
</trkpt>
<trkpt lat="-27.2744391" lon="151.2900641">
  <ele>343.03</ele>
  <time>2026-09-01T20:03:11Z</time>
  <course>10.75</course>
  <speed>0.022360679774997897</speed>
  <fix>3d</fix>
</trkpt>
<trkpt lat="-27.274439" lon="151.290064">
  <ele>343.1</ele>
  <time>2026-09-01T20:03:11Z</time>
  <course>270.0</course>
  <speed>0.0</speed>
  <fix>3d</fix>
</trkpt>
<trkpt lat="-27.2744391" lon="151.2900641">
  <ele>343.02</ele>
  <time>2026-09-01T20:03:11Z</time>
  <course>10.75</course>
  <speed>0.022360679774997897</speed>
  <fix>3d</fix>
</trkpt>
<trkpt lat="-27.274439" lon="151.290064">
  <ele>343.1</ele>
  <time>2026-09-01T20:03:11Z</time>
  <course>270.0</course>
  <speed>0.0</speed>
  <fix>3d</fix>
</trkpt>
<trkpt lat="-27.2744391" lon="151.2900641">
  <ele>343.02</ele>
  <time>2026-09-01T20:03:11Z</time>
  <course>10.75</course>
  <speed>0.022360679774997897</speed>
  <fix>3d</fix>
</trkpt>
<trkpt lat="-27.274439" lon="151.290064">
  <ele>343.1</ele>
  <time>2026-09-01T20:03:11Z</time>
  <course>270.0</course>
  <speed>0.0</speed>
  <fix>3d</fix>
</trkpt>
<trkpt lat="-27.2744391" lon="151.2900641">
  <ele>343.02</ele>
  <time>2026-09-01T20:03:11Z</time>
  <course>10.75</course>
  <speed>0.022360679774997897</speed>
  <fix>3d</fix>
</trkpt>
<trkpt lat="-27.274439" lon="151.290064">
  <ele>343.1</ele>
  <time>2026-09-01T20:03:11Z</time>
  <course>270.0</course>
  <speed>0.0</speed>
  <fix>3d</fix>
</trkpt>
<trkpt lat="-27.2744391" lon="151.2900641">
  <ele>343.02</ele>
  <time>2026-09-01T20:03:11Z</time>
  <course>10.75</course>
  <speed>0.022360679774997897</speed>
  <fix>3d</fix>
</trkpt>
<trkpt lat="-27.274439" lon="151.290064">
  <ele>343.1</ele>
  <time>2026-09-01T20:03:11Z</time>
  <course>270.0</course>
  <speed>0.0</speed>
  <fix>3d</fix>
</trkpt>
<trkpt lat="-27.2744391" lon="151.2900641">
  <ele>343.02</ele>
  <time>2026-09-01T20:03:11Z</time>
  <course>10.75</course>
  <speed>0.022360679774997897</speed>
  <fix>3d</fix>
</trkpt>
<trkpt lat="-27.274439" lon="151.290064">
  <ele>343.1</ele>
  <time>2026-09-01T20:03:11Z</time>
  <course>270.0</course>
  <speed>0.0</speed>
  <fix>3d</fix>
</trkpt>
<trkpt lat="-27.2744391" lon="151.2900641">
  <ele>343.02</ele>
  <time>2026-09-01T20:03:11Z</time>
  <course>10.75</course>
  <speed>0.022360679774997897</speed>
  <fix>3d</fix>
</trkpt>
<trkpt lat="-27.274439" lon="151.290064">
  <ele>343.1</ele>
  <time>2026-09-01T20:03:11Z</time>
  <course>270.0</course>
  <speed>0.0</speed>
  <fix>3d</fix>
</trkpt>
<trkpt lat="-27.2744391" lon="151.2900641">
  <ele>343.02</ele>
  <time>2026-09-01T20:03:11Z</time>
  <course>10.75</course>
  <speed>0.022360679774997897</speed>
  <fix>3d</fix>
</trkpt>
<trkpt lat="-27.274439" lon="151.290064">
  <ele>343.1</ele>
  <time>2026-09-01T20:03:11Z</time>
  <course>270.0</course>
  <speed>0.0</speed>
  <fix>3d</fix>
</trkpt>
<trkpt lat="-27.2744391" lon="151.2900641">
  <ele>343.02</ele>
  <time>2026-09-01T20:03:11Z</time>
  <course>10.75</course>
  <speed>0.022360679774997897</speed>
  <fix>3d</fix>
</trkpt>
<trkpt lat="-27.274439" lon="151.290064">
  <ele>343.1</ele>
  <time>2026-09-01T20:03:11Z</time>
  <course>270.0</course>
  <speed>0.0</speed>
  <fix>3d</fix>
</trkpt>
<trkpt lat="-27.2744391" lon="151.2900641">
  <ele>343.02</ele>
  <time>2026-09-01T20:03:11Z</time>
  <course>10.75</course>
  <speed>0.022360679774997897</speed>
  <fix>3d</fix>
</trkpt>
<trkpt lat="-27.274439" lon="151.290064">
  <ele>343.1</ele>
  <time>2026-09-01T20:03:11Z</time>
  <course>270.0</course>
  <speed>0.0</speed>
  <fix>3d</fix>
</trkpt>
<trkpt lat="-27.2744391" lon="151.2900641">
  <ele>343.01</ele>
  <time>2026-09-01T20:03:11Z</time>
  <course>10.75</course>
  <speed>0.022360679774997897</speed>
  <fix>3d</fix>
</trkpt>
<trkpt lat="-27.274439" lon="151.290064">
  <ele>343.1</ele>
  <time>2026-09-01T20:03:11Z</time>
  <course>270.0</course>
  <speed>0.0</speed>
  <fix>3d</fix>
</trkpt>
<trkpt lat="-27.2744391" lon="151.2900641">
  <ele>343.01</ele>
  <time>2026-09-01T20:03:11Z</time>
  <course>10.76</course>
  <speed>0.022360679774997897</speed>
  <fix>3d</fix>
</trkpt>
<trkpt lat="-27.274439" lon="151.290064">
  <ele>343.1</ele>
  <time>2026-09-01T20:03:11Z</time>
  <course>270.0</course>
  <speed>0.0</speed>
  <fix>3d</fix>
</trkpt>
<trkpt lat="-27.2744391" lon="151.2900641">
  <ele>343.01</ele>
  <time>2026-09-01T20:03:11Z</time>
  <course>10.76</course>
  <speed>0.022360679774997897</speed>
  <fix>3d</fix>
</trkpt>
<trkpt lat="-27.274439" lon="151.290064">
  <ele>343.1</ele>
  <time>2026-09-01T20:03:11Z</time>
  <course>270.0</course>
  <speed>0.0</speed>
  <fix>3d</fix>
</trkpt>
<trkpt lat="-27.2744391" lon="151.2900641">
  <ele>343.01</ele>
  <time>2026-09-01T20:03:11Z</time>
  <course>10.76</course>
  <speed>0.022360679774997897</speed>
  <fix>3d</fix>
</trkpt>
<trkpt lat="-27.274439" lon="151.290064">
  <ele>343.1</ele>
  <time>2026-09-01T20:03:11Z</time>
  <course>270.0</course>
  <speed>0.0</speed>
  <fix>3d</fix>
</trkpt>
<trkpt lat="-27.2744391" lon="151.2900641">
  <ele>343.01</ele>
  <time>2026-09-01T20:03:11Z</time>
  <course>10.76</course>
  <speed>0.022360679774997897</speed>
  <fix>3d</fix>
</trkpt>
<trkpt lat="-27.274439" lon="151.290064">
  <ele>343.1</ele>
  <time>2026-09-01T20:03:11Z</time>
  <course>270.0</course>
  <speed>0.0</speed>
  <fix>3d</fix>
</trkpt>
<trkpt lat="-27.2744391" lon="151.2900641">
  <ele>343.01</ele>
  <time>2026-09-01T20:03:11Z</time>
  <course>10.76</course>
  <speed>0.022360679774997897</speed>
  <fix>3d</fix>
</trkpt>
<trkpt lat="-27.274439" lon="151.290064">
  <ele>343.1</ele>
  <time>2026-09-01T20:03:11Z</time>
  <course>270.0</course>
  <speed>0.0</speed>
  <fix>3d</fix>
</trkpt>
<trkpt lat="-27.2744391" lon="151.2900641">
  <ele>343.01</ele>
  <time>2026-09-01T20:03:11Z</time>
  <course>10.76</course>
  <speed>0.022360679774997897</speed>
  <fix>3d</fix>
</trkpt>
<trkpt lat="-27.274439" lon="151.290064">
  <ele>343.1</ele>
  <time>2026-09-01T20:03:11Z</time>
  <course>270.0</course>
  <speed>0.0</speed>
  <fix>3d</fix>
</trkpt>
<trkpt lat="-27.2744391" lon="151.2900641">
  <ele>343.01</ele>
  <time>2026-09-01T20:03:11Z</time>
  <course>10.76</course>
  <speed>0.022360679774997897</speed>
  <fix>3d</fix>
</trkpt>
<trkpt lat="-27.274439" lon="151.290064">
  <ele>343.1</ele>
  <time>2026-09-01T20:03:11Z</time>
  <course>270.0</course>
  <speed>0.0</speed>
  <fix>3d</fix>
</trkpt>
<trkpt lat="-27.2744391" lon="151.2900641">
  <ele>343.0</ele>
  <time>2026-09-01T20:03:11Z</time>
  <course>10.76</course>
  <speed>0.022360679774997897</speed>
  <fix>3d</fix>
</trkpt>
<trkpt lat="-27.274439" lon="151.290064">
  <ele>343.1</ele>
  <time>2026-09-01T20:03:11Z</time>
  <course>270.0</course>
  <speed>0.0</speed>
  <fix>3d</fix>
</trkpt>
<trkpt lat="-27.2744391" lon="151.2900641">
  <ele>343.0</ele>
  <time>2026-09-01T20:03:11Z</time>
  <course>10.76</course>
  <speed>0.022360679774997897</speed>
  <fix>3d</fix>
</trkpt>
<trkpt lat="-27.274439" lon="151.290064">
  <ele>343.1</ele>
  <time>2026-09-01T20:03:11Z</time>
  <course>270.0</course>
  <speed>0.0</speed>
  <fix>3d</fix>
</trkpt>
<trkpt lat="-27.2744391" lon="151.2900641">
  <ele>343.09</ele>
  <time>2026-09-01T20:03:11Z</time>
  <course>10.76</course>
  <speed>0.022360679774997897</speed>
  <fix>3d</fix>
</trkpt>
<trkpt lat="-27.274439" lon="151.290064">
  <ele>343.1</ele>
  <time>2026-09-01T20:03:11Z</time>
  <course>270.0</course>
  <speed>0.0</speed>
  <fix>3d</fix>
</trkpt>
<trkpt lat="-27.2744391" lon="151.2900641">
  <ele>343.09</ele>
  <time>2026-09-01T20:03:11Z</time>
  <course>10.76</course>
  <speed>0.022360679774997897</speed>
  <fix>3d</fix>
</trkpt>
<trkpt lat="-27.274439" lon="151.290064">
  <ele>343.1</ele>
  <time>2026-09-01T20:03:11Z</time>
  <course>270.0</course>
  <speed>0.0</speed>
  <fix>3d</fix>
</trkpt>
<trkpt lat="-27.2744391" lon="151.2900641">
  <ele>343.09</ele>
  <time>2026-09-01T20:03:11Z</time>
  <course>10.76</course>
  <speed>0.022360679774997897</speed>
  <fix>3d</fix>
</trkpt>
<trkpt lat="-27.274439" lon="151.290064">
  <ele>343.1</ele>
  <time>2026-09-01T20:03:11Z</time>
  <course>270.0</course>
  <speed>0.0</speed>
  <fix>3d</fix>
</trkpt>
<trkpt lat="-27.2744391" lon="151.2900641">
  <ele>343.09</ele>
  <time>2026-09-01T20:03:11Z</time>
  <course>10.76</course>
  <speed>0.022360679774997897</speed>
  <fix>3d</fix>
</trkpt>
<trkpt lat="-27.274439" lon="151.290064">
  <ele>343.1</ele>
  <time>2026-09-01T20:03:11Z</time>
  <course>270.0</course>
  <speed>0.0</speed>
  <fix>3d</fix>
</trkpt>
<trkpt lat="-27.2744391" lon="151.2900641">
  <ele>343.09</ele>
  <time>2026-09-01T20:03:11Z</time>
  <course>10.76</course>
  <speed>0.022360679774997897</speed>
  <fix>3d</fix>
</trkpt>
<trkpt lat="-27.274439" lon="151.290064">
  <ele>343.1</ele>
  <time>2026-09-01T20:03:11Z</time>
  <course>270.0</course>
  <speed>0.0</speed>
  <fix>3d</fix>
</trkpt>
<trkpt lat="-27.2744391" lon="151.2900641">
  <ele>343.1</ele>
  <time>2026-09-01T20:03:11Z</time>
  <course>10.76</course>
  <speed>0.022360679774997897</speed>
  <fix>3d</fix>
</trkpt>
<trkpt lat="-27.274439" lon="151.290064">
  <ele>343.1</ele>
  <time>2026-09-01T20:03:11Z</time>
  <course>270.0</course>
  <speed>0.0</speed>
  <fix>3d</fix>
</trkpt>
<trkpt lat="-27.2744391" lon="151.2900641">
  <ele>343.1</ele>
  <time>2026-09-01T20:03:11Z</time>
  <course>10.76</course>
  <speed>0.022360679774997897</speed>
  <fix>3d</fix>
</trkpt>
<trkpt lat="-27.274439" lon="151.290064">
  <ele>343.1</ele>
  <time>2026-09-01T20:03:11Z</time>
  <course>270.0</course>
  <speed>0.0</speed>
  <fix>3d</fix>
</trkpt>
<trkpt lat="-27.2744391" lon="151.2900641">
  <ele>343.1</ele>
  <time>2026-09-01T20:03:11Z</time>
  <course>10.76</course>
  <speed>0.022360679774997897</speed>
  <fix>3d</fix>
</trkpt>
<trkpt lat="-27.274439" lon="151.290064">
  <ele>343.1</ele>
  <time>2026-09-01T20:03:11Z</time>
  <course>270.0</course>
  <speed>0.0</speed>
  <fix>3d</fix>
</trkpt>
<trkpt lat="-27.2744391" lon="151.2900641">
  <ele>343.11</ele>
  <time>2026-09-01T20:03:11Z</time>
  <course>10.76</course>
  <speed>0.022360679774997897</speed>
  <fix>3d</fix>
</trkpt>
<trkpt lat="-27.274439" lon="151.290064">
  <ele>343.1</ele>
  <time>2026-09-01T20:03:11Z</time>
  <course>270.0</course>
  <speed>0.0</speed>
  <fix>3d</fix>
</trkpt>
<trkpt lat="-27.2744391" lon="151.2900641">
  <ele>343.11</ele>
  <time>2026-09-01T20:03:11Z</time>
  <course>10.76</course>
  <speed>0.022360679774997897</speed>
  <fix>3d</fix>
</trkpt>
<trkpt lat="-27.274439" lon="151.290064">
  <ele>343.1</ele>
  <time>2026-09-01T20:03:11Z</time>
  <course>270.0</course>
  <speed>0.0</speed>
  <fix>3d</fix>
</trkpt>
<trkpt lat="-27.2744391" lon="151.2900641">
  <ele>343.12</ele>
  <time>2026-09-01T20:03:11Z</time>
  <course>10.76</course>
  <speed>0.022360679774997897</speed>
  <fix>3d</fix>
</trkpt>
<trkpt lat="-27.274439" lon="151.290064">
  <ele>343.1</ele>
  <time>2026-09-01T20:03:11Z</time>
  <course>270.0</course>
  <speed>0.0</speed>
  <fix>3d</fix>
</trkpt>
<trkpt lat="-27.2744391" lon="151.2900641">
  <ele>343.12</ele>
  <time>2026-09-01T20:03:11Z</time>
  <course>10.76</course>
  <speed>0.022360679774997897</speed>
  <fix>3d</fix>
</trkpt>
<trkpt lat="-27.274439" lon="151.290064">
  <ele>343.1</ele>
  <time>2026-09-01T20:03:11Z</time>
  <course>270.0</course>
  <speed>0.0</speed>
  <fix>3d</fix>
</trkpt>
<trkpt lat="-27.2744391" lon="151.2900641">
  <ele>343.12</ele>
  <time>2026-09-01T20:03:11Z</time>
  <course>10.77</course>
  <speed>0.022360679774997897</speed>
  <fix>3d</fix>
</trkpt>
<trkpt lat="-27.274439" lon="151.290064">
  <ele>343.1</ele>
  <time>2026-09-01T20:03:11Z</time>
  <course>270.0</course>
  <speed>0.0</speed>
  <fix>3d</fix>
</trkpt>
<trkpt lat="-27.2744391" lon="151.2900641">
  <ele>343.13</ele>
  <time>2026-09-01T20:03:11Z</time>
  <course>10.77</course>
  <speed>0.022360679774997897</speed>
  <fix>3d</fix>
</trkpt>
<trkpt lat="-27.274439" lon="151.290064">
  <ele>343.1</ele>
  <time>2026-09-01T20:03:11Z</time>
  <course>270.0</course>
  <speed>0.0</speed>
  <fix>3d</fix>
</trkpt>
<trkpt lat="-27.2744391" lon="151.2900641">
  <ele>343.13</ele>
  <time>2026-09-01T20:03:11Z</time>
  <course>10.77</course>
  <speed>0.022360679774997897</speed>
  <fix>3d</fix>
</trkpt>
<trkpt lat="-27.274439" lon="151.290064">
  <ele>343.1</ele>
  <time>2026-09-01T20:03:11Z</time>
  <course>270.0</course>
  <speed>0.0</speed>
  <fix>3d</fix>
</trkpt>
<trkpt lat="-27.2744391" lon="151.2900641">
  <ele>343.13</ele>
  <time>2026-09-01T20:03:11Z</time>
  <course>10.77</course>
  <speed>0.022360679774997897</speed>
  <fix>3d</fix>
</trkpt>
<trkpt lat="-27.274439" lon="151.290064">
  <ele>343.1</ele>
  <time>2026-09-01T20:03:11Z</time>
  <course>270.0</course>
  <speed>0.0</speed>
  <fix>3d</fix>
</trkpt>
<trkpt lat="-27.2744391" lon="151.2900641">
  <ele>343.14</ele>
  <time>2026-09-01T20:03:11Z</time>
  <course>10.77</course>
  <speed>0.022360679774997897</speed>
  <fix>3d</fix>
</trkpt>
<trkpt lat="-27.274439" lon="151.290064">
  <ele>343.1</ele>
  <time>2026-09-01T20:03:11Z</time>
  <course>270.0</course>
  <speed>0.0</speed>
  <fix>3d</fix>
</trkpt>
<trkpt lat="-27.2744391" lon="151.2900641">
  <ele>343.14</ele>
  <time>2026-09-01T20:03:11Z</time>
  <course>10.77</course>
  <speed>0.022360679774997897</speed>
  <fix>3d</fix>
</trkpt>
<trkpt lat="-27.274439" lon="151.290064">
  <ele>343.1</ele>
  <time>2026-09-01T20:03:11Z</time>
  <course>270.0</course>
  <speed>0.0</speed>
  <fix>3d</fix>
</trkpt>
<trkpt lat="-27.2744391" lon="151.2900641">
  <ele>343.14</ele>
  <time>2026-09-01T20:03:11Z</time>
  <course>10.77</course>
  <speed>0.022360679774997897</speed>
  <fix>3d</fix>
</trkpt>
<trkpt lat="-27.274439" lon="151.290064">
  <ele>343.1</ele>
  <time>2026-09-01T20:03:11Z</time>
  <course>270.0</course>
  <speed>0.0</speed>
  <fix>3d</fix>
</trkpt>
<trkpt lat="-27.2744391" lon="151.2900641">
  <ele>343.15</ele>
  <time>2026-09-01T20:03:11Z</time>
  <course>10.77</course>
  <speed>0.022360679774997897</speed>
  <fix>3d</fix>
</trkpt>
<trkpt lat="-27.274439" lon="151.290064">
  <ele>343.1</ele>
  <time>2026-09-01T20:03:11Z</time>
  <course>270.0</course>
  <speed>0.0</speed>
  <fix>3d</fix>
</trkpt>
<trkpt lat="-27.2744391" lon="151.2900641">
  <ele>343.15</ele>
  <time>2026-09-01T20:03:11Z</time>
  <course>10.77</course>
  <speed>0.022360679774997897</speed>
  <fix>3d</fix>
</trkpt>
<trkpt lat="-27.274439" lon="151.290064">
  <ele>343.1</ele>
  <time>2026-09-01T20:03:11Z</time>
  <course>270.0</course>
  <speed>0.0</speed>
  <fix>3d</fix>
</trkpt>
<trkpt lat="-27.2744391" lon="151.2900641">
  <ele>343.16</ele>
  <time>2026-09-01T20:03:11Z</time>
  <course>10.77</course>
  <speed>0.022360679774997897</speed>
  <fix>3d</fix>
</trkpt>
<trkpt lat="-27.274439" lon="151.290064">
  <ele>343.1</ele>
  <time>2026-09-01T20:03:11Z</time>
  <course>270.0</course>
  <speed>0.0</speed>
  <fix>3d</fix>
</trkpt>
<trkpt lat="-27.2744391" lon="151.2900641">
  <ele>343.16</ele>
  <time>2026-09-01T20:03:11Z</time>
  <course>10.77</course>
  <speed>0.022360679774997897</speed>
  <fix>3d</fix>
</trkpt>
<trkpt lat="-27.274439" lon="151.290064">
  <ele>343.1</ele>
  <time>2026-09-01T20:03:11Z</time>
  <course>270.0</course>
  <speed>0.0</speed>
  <fix>3d</fix>
</trkpt>
<trkpt lat="-27.2744391" lon="151.2900641">
  <ele>343.17</ele>
  <time>2026-09-01T20:03:11Z</time>
  <course>10.77</course>
  <speed>0.022360679774997897</speed>
  <fix>3d</fix>
</trkpt>
<trkpt lat="-27.274439" lon="151.290064">
  <ele>343.1</ele>
  <time>2026-09-01T20:03:11Z</time>
  <course>270.0</course>
  <speed>0.0</speed>
  <fix>3d</fix>
</trkpt>
<trkpt lat="-27.2744391" lon="151.2900641">
  <ele>343.17</ele>
  <time>2026-09-01T20:03:11Z</time>
  <course>10.77</course>
  <speed>0.022360679774997897</speed>
  <fix>3d</fix>
</trkpt>
<trkpt lat="-27.274439" lon="151.290064">
  <ele>343.1</ele>
  <time>2026-09-01T20:03:11Z</time>
  <course>270.0</course>
  <speed>0.0</speed>
  <fix>3d</fix>
</trkpt>
<trkpt lat="-27.2744391" lon="151.2900641">
  <ele>343.18</ele>
  <time>2026-09-01T20:03:11Z</time>
  <course>10.77</course>
  <speed>0.022360679774997897</speed>
  <fix>3d</fix>
</trkpt>
<trkpt lat="-27.274439" lon="151.290064">
  <ele>343.1</ele>
  <time>2026-09-01T20:03:11Z</time>
  <course>270.0</course>
  <speed>0.0</speed>
  <fix>3d</fix>
</trkpt>
<trkpt lat="-27.2744391" lon="151.2900641">
  <ele>343.18</ele>
  <time>2026-09-01T20:03:11Z</time>
  <course>10.77</course>
  <speed>0.022360679774997897</speed>
  <fix>3d</fix>
</trkpt>
<trkpt lat="-27.274439" lon="151.290064">
  <ele>343.1</ele>
  <time>2026-09-01T20:03:11Z</time>
  <course>270.0</course>
  <speed>0.0</speed>
  <fix>3d</fix>
</trkpt>
<trkpt lat="-27.2744391" lon="151.2900641">
  <ele>343.18</ele>
  <time>2026-09-01T20:03:11Z</time>
  <course>10.77</course>
  <speed>0.022360679774997897</speed>
  <fix>3d</fix>
</trkpt>
<trkpt lat="-27.274439" lon="151.290064">
  <ele>343.1</ele>
  <time>2026-09-01T20:03:11Z</time>
  <course>270.0</course>
  <speed>0.0</speed>
  <fix>3d</fix>
</trkpt>
<trkpt lat="-27.2744391" lon="151.2900641">
  <ele>343.19</ele>
  <time>2026-09-01T20:03:11Z</time>
  <course>10.77</course>
  <speed>0.022360679774997897</speed>
  <fix>3d</fix>
</trkpt>
<trkpt lat="-27.274439" lon="151.290064">
  <ele>343.1</ele>
  <time>2026-09-01T20:03:11Z</time>
  <course>270.0</course>
  <speed>0.0</speed>
  <fix>3d</fix>
</trkpt>
<trkpt lat="-27.2744391" lon="151.2900641">
  <ele>343.19</ele>
  <time>2026-09-01T20:03:11Z</time>
  <course>10.77</course>
  <speed>0.022360679774997897</speed>
  <fix>3d</fix>
</trkpt>
<trkpt lat="-27.274439" lon="151.290064">
  <ele>343.1</ele>
  <time>2026-09-01T20:03:11Z</time>
  <course>270.0</course>
  <speed>0.0</speed>
  <fix>3d</fix>
</trkpt>
<trkpt lat="-27.2744391" lon="151.2900641">
  <ele>343.19</ele>
  <time>2026-09-01T20:03:11Z</time>
  <course>10.77</course>
  <speed>0.022360679774997897</speed>
  <fix>3d</fix>
</trkpt>
<trkpt lat="-27.274439" lon="151.290064">
  <ele>343.1</ele>
  <time>2026-09-01T20:03:11Z</time>
  <course>270.0</course>
  <speed>0.0</speed>
  <fix>3d</fix>
</trkpt>
<trkpt lat="-27.2744391" lon="151.2900641">
  <ele>343.19</ele>
  <time>2026-09-01T20:03:11Z</time>
  <course>10.77</course>
  <speed>0.022360679774997897</speed>
  <fix>3d</fix>
</trkpt>
<trkpt lat="-27.274439" lon="151.290064">
  <ele>343.1</ele>
  <time>2026-09-01T20:03:11Z</time>
  <course>270.0</course>
  <speed>0.0</speed>
  <fix>3d</fix>
</trkpt>
<trkpt lat="-27.2744391" lon="151.2900641">
  <ele>343.19</ele>
  <time>2026-09-01T20:03:11Z</time>
  <course>10.77</course>
  <speed>0.022360679774997897</speed>
  <fix>3d</fix>
</trkpt>
<trkpt lat="-27.274439" lon="151.290064">
  <ele>343.1</ele>
  <time>2026-09-01T20:03:11Z</time>
  <course>270.0</course>
  <speed>0.0</speed>
  <fix>3d</fix>
</trkpt>
<trkpt lat="-27.2744391" lon="151.2900641">
  <ele>343.19</ele>
  <time>2026-09-01T20:03:11Z</time>
  <course>10.77</course>
  <speed>0.022360679774997897</speed>
  <fix>3d</fix>
</trkpt>
<trkpt lat="-27.274439" lon="151.290064">
  <ele>343.1</ele>
  <time>2026-09-01T20:03:11Z</time>
  <course>270.0</course>
  <speed>0.0</speed>
  <fix>3d</fix>
</trkpt>
<trkpt lat="-27.2744391" lon="151.2900641">
  <ele>343.2</ele>
  <time>2026-09-01T20:03:11Z</time>
  <course>10.78</course>
  <speed>0.022360679774997897</speed>
  <fix>3d</fix>
</trkpt>
<trkpt lat="-27.274439" lon="151.290064">
  <ele>343.1</ele>
  <time>2026-09-01T20:03:11Z</time>
  <course>270.0</course>
  <speed>0.0</speed>
  <fix>3d</fix>
</trkpt>
<trkpt lat="-27.2744391" lon="151.2900641">
  <ele>343.2</ele>
  <time>2026-09-01T20:03:11Z</time>
  <course>10.78</course>
  <speed>0.022360679774997897</speed>
  <fix>3d</fix>
</trkpt>
<trkpt lat="-27.274439" lon="151.290064">
  <ele>343.1</ele>
  <time>2026-09-01T20:03:11Z</time>
  <course>270.0</course>
  <speed>0.0</speed>
  <fix>3d</fix>
</trkpt>
<trkpt lat="-27.2744391" lon="151.2900641">
  <ele>343.2</ele>
  <time>2026-09-01T20:03:11Z</time>
  <course>10.78</course>
  <speed>0.022360679774997897</speed>
  <fix>3d</fix>
</trkpt>
<trkpt lat="-27.274439" lon="151.290064">
  <ele>343.1</ele>
  <time>2026-09-01T20:03:11Z</time>
  <course>270.0</course>
  <speed>0.0</speed>
  <fix>3d</fix>
</trkpt>
<trkpt lat="-27.2744391" lon="151.2900641">
  <ele>343.2</ele>
  <time>2026-09-01T20:03:11Z</time>
  <course>10.78</course>
  <speed>0.022360679774997897</speed>
  <fix>3d</fix>
</trkpt>
<trkpt lat="-27.274439" lon="151.290064">
  <ele>343.1</ele>
  <time>2026-09-01T20:03:11Z</time>
  <course>270.0</course>
  <speed>0.0</speed>
  <fix>3d</fix>
</trkpt>
<trkpt lat="-27.2744391" lon="151.2900641">
  <ele>343.2</ele>
  <time>2026-09-01T20:03:11Z</time>
  <course>10.78</course>
  <speed>0.022360679774997897</speed>
  <fix>3d</fix>
</trkpt>
<trkpt lat="-27.274439" lon="151.290064">
  <ele>343.1</ele>
  <time>2026-09-01T20:03:11Z</time>
  <course>270.0</course>
  <speed>0.0</speed>
  <fix>3d</fix>
</trkpt>
<trkpt lat="-27.2744391" lon="151.2900641">
  <ele>343.2</ele>
  <time>2026-09-01T20:03:11Z</time>
  <course>10.78</course>
  <speed>0.022360679774997897</speed>
  <fix>3d</fix>
</trkpt>
<trkpt lat="-27.274439" lon="151.290064">
  <ele>343.1</ele>
  <time>2026-09-01T20:03:11Z</time>
  <course>270.0</course>
  <speed>0.0</speed>
  <fix>3d</fix>
</trkpt>
<trkpt lat="-27.2744391" lon="151.2900641">
  <ele>343.2</ele>
  <time>2026-09-01T20:03:11Z</time>
  <course>10.78</course>
  <speed>0.022360679774997897</speed>
  <fix>3d</fix>
</trkpt>
<trkpt lat="-27.274439" lon="151.290064">
  <ele>343.1</ele>
  <time>2026-09-01T20:03:11Z</time>
  <course>270.0</course>
  <speed>0.0</speed>
  <fix>3d</fix>
</trkpt>
<trkpt lat="-27.2744391" lon="151.2900641">
  <ele>343.2</ele>
  <time>2026-09-01T20:03:11Z</time>
  <course>10.78</course>
  <speed>0.022360679774997897</speed>
  <fix>3d</fix>
</trkpt>
<trkpt lat="-27.274439" lon="151.290064">
  <ele>343.1</ele>
  <time>2026-09-01T20:03:11Z</time>
  <course>270.0</course>
  <speed>0.0</speed>
  <fix>3d</fix>
</trkpt>
<trkpt lat="-27.2744391" lon="151.2900641">
  <ele>343.2</ele>
  <time>2026-09-01T20:03:11Z</time>
  <course>10.78</course>
  <speed>0.022360679774997897</speed>
  <fix>3d</fix>
</trkpt>
<trkpt lat="-27.274439" lon="151.290064">
  <ele>343.1</ele>
  <time>2026-09-01T20:03:11Z</time>
  <course>270.0</course>
  <speed>0.0</speed>
  <fix>3d</fix>
</trkpt>
<trkpt lat="-27.2744391" lon="151.2900641">
  <ele>343.2</ele>
  <time>2026-09-01T20:03:11Z</time>
  <course>10.78</course>
  <speed>0.022360679774997897</speed>
  <fix>3d</fix>
</trkpt>
<trkpt lat="-27.274439" lon="151.290064">
  <ele>343.1</ele>
  <time>2026-09-01T20:03:11Z</time>
  <course>270.0</course>
  <speed>0.0</speed>
  <fix>3d</fix>
</trkpt>
<trkpt lat="-27.2744391" lon="151.2900641">
  <ele>343.2</ele>
  <time>2026-09-01T20:03:11Z</time>
  <course>10.78</course>
  <speed>0.022360679774997897</speed>
  <fix>3d</fix>
</trkpt>
<trkpt lat="-27.274439" lon="151.290064">
  <ele>343.1</ele>
  <time>2026-09-01T20:03:11Z</time>
  <course>270.0</course>
  <speed>0.0</speed>
  <fix>3d</fix>
</trkpt>
<trkpt lat="-27.2744391" lon="151.2900641">
  <ele>343.2</ele>
  <time>2026-09-01T20:03:11Z</time>
  <course>10.78</course>
  <speed>0.022360679774997897</speed>
  <fix>3d</fix>
</trkpt>
<trkpt lat="-27.274439" lon="151.290064">
  <ele>343.1</ele>
  <time>2026-09-01T20:03:11Z</time>
  <course>270.0</course>
  <speed>0.0</speed>
  <fix>3d</fix>
</trkpt>
<trkpt lat="-27.2744391" lon="151.2900641">
  <ele>343.2</ele>
  <time>2026-09-01T20:03:11Z</time>
  <course>10.78</course>
  <speed>0.022360679774997897</speed>
  <fix>3d</fix>
</trkpt>
<trkpt lat="-27.274439" lon="151.290064">
  <ele>343.1</ele>
  <time>2026-09-01T20:03:11Z</time>
  <course>270.0</course>
  <speed>0.0</speed>
  <fix>3d</fix>
</trkpt>
<trkpt lat="-27.2744391" lon="151.2900641">
  <ele>343.2</ele>
  <time>2026-09-01T20:03:12Z</time>
  <course>10.78</course>
  <speed>0.022360679774997897</speed>
  <fix>3d</fix>
</trkpt>
<trkpt lat="-27.274439" lon="151.290064">
  <ele>343.1</ele>
  <time>2026-09-01T20:03:12Z</time>
  <course>270.0</course>
  <speed>0.0</speed>
  <fix>3d</fix>
</trkpt>
<trkpt lat="-27.2744391" lon="151.2900641">
  <ele>343.2</ele>
  <time>2026-09-01T20:03:12Z</time>
  <course>10.78</course>
  <speed>0.022360679774997897</speed>
  <fix>3d</fix>
</trkpt>
<trkpt lat="-27.274439" lon="151.290064">
  <ele>343.1</ele>
  <time>2026-09-01T20:03:12Z</time>
  <course>270.0</course>
  <speed>0.0</speed>
  <fix>3d</fix>
</trkpt>
<trkpt lat="-27.2744391" lon="151.2900641">
  <ele>343.2</ele>
  <time>2026-09-01T20:03:12Z</time>
  <course>10.78</course>
  <speed>0.022360679774997897</speed>
  <fix>3d</fix>
</trkpt>
<trkpt lat="-27.274439" lon="151.290064">
  <ele>343.1</ele>
  <time>2026-09-01T20:03:12Z</time>
  <course>270.0</course>
  <speed>0.0</speed>
  <fix>3d</fix>
</trkpt>
<trkpt lat="-27.2744391" lon="151.2900641">
  <ele>343.2</ele>
  <time>2026-09-01T20:03:12Z</time>
  <course>10.78</course>
  <speed>0.022360679774997897</speed>
  <fix>3d</fix>
</trkpt>
<trkpt lat="-27.274439" lon="151.290064">
  <ele>343.1</ele>
  <time>2026-09-01T20:03:12Z</time>
  <course>270.0</course>
  <speed>0.0</speed>
  <fix>3d</fix>
</trkpt>
<trkpt lat="-27.2744391" lon="151.2900641">
  <ele>343.2</ele>
  <time>2026-09-01T20:03:12Z</time>
  <course>10.78</course>
  <speed>0.022360679774997897</speed>
  <fix>3d</fix>
</trkpt>
<trkpt lat="-27.274439" lon="151.290064">
  <ele>343.1</ele>
  <time>2026-09-01T20:03:12Z</time>
  <course>270.0</course>
  <speed>0.0</speed>
  <fix>3d</fix>
</trkpt>
<trkpt lat="-27.2744391" lon="151.2900641">
  <ele>343.2</ele>
  <time>2026-09-01T20:03:12Z</time>
  <course>10.79</course>
  <speed>0.022360679774997897</speed>
  <fix>3d</fix>
</trkpt>
<trkpt lat="-27.274439" lon="151.290064">
  <ele>343.1</ele>
  <time>2026-09-01T20:03:12Z</time>
  <course>270.0</course>
  <speed>0.0</speed>
  <fix>3d</fix>
</trkpt>
<trkpt lat="-27.2744391" lon="151.2900641">
  <ele>343.2</ele>
  <time>2026-09-01T20:03:12Z</time>
  <course>10.79</course>
  <speed>0.022360679774997897</speed>
  <fix>3d</fix>
</trkpt>
<trkpt lat="-27.274439" lon="151.290064">
  <ele>343.1</ele>
  <time>2026-09-01T20:03:12Z</time>
  <course>270.0</course>
  <speed>0.0</speed>
  <fix>3d</fix>
</trkpt>
<trkpt lat="-27.2744391" lon="151.2900641">
  <ele>343.2</ele>
  <time>2026-09-01T20:03:12Z</time>
  <course>10.79</course>
  <speed>0.022360679774997897</speed>
  <fix>3d</fix>
</trkpt>
<trkpt lat="-27.274439" lon="151.290064">
  <ele>343.1</ele>
  <time>2026-09-01T20:03:12Z</time>
  <course>270.0</course>
  <speed>0.0</speed>
  <fix>3d</fix>
</trkpt>
<trkpt lat="-27.2744391" lon="151.2900641">
  <ele>343.2</ele>
  <time>2026-09-01T20:03:12Z</time>
  <course>10.79</course>
  <speed>0.022360679774997897</speed>
  <fix>3d</fix>
</trkpt>
<trkpt lat="-27.274439" lon="151.290064">
  <ele>343.1</ele>
  <time>2026-09-01T20:03:12Z</time>
  <course>270.0</course>
  <speed>0.0</speed>
  <fix>3d</fix>
</trkpt>
<trkpt lat="-27.2744391" lon="151.2900641">
  <ele>343.2</ele>
  <time>2026-09-01T20:03:12Z</time>
  <course>10.79</course>
  <speed>0.022360679774997897</speed>
  <fix>3d</fix>
</trkpt>
<trkpt lat="-27.274439" lon="151.290064">
  <ele>343.1</ele>
  <time>2026-09-01T20:03:12Z</time>
  <course>270.0</course>
  <speed>0.0</speed>
  <fix>3d</fix>
</trkpt>
<trkpt lat="-27.2744391" lon="151.2900641">
  <ele>343.19</ele>
  <time>2026-09-01T20:03:12Z</time>
  <course>10.79</course>
  <speed>0.022360679774997897</speed>
  <fix>3d</fix>
</trkpt>
<trkpt lat="-27.274439" lon="151.290064">
  <ele>343.1</ele>
  <time>2026-09-01T20:03:12Z</time>
  <course>270.0</course>
  <speed>0.0</speed>
  <fix>3d</fix>
</trkpt>
<trkpt lat="-27.2744391" lon="151.2900641">
  <ele>343.19</ele>
  <time>2026-09-01T20:03:12Z</time>
  <course>10.79</course>
  <speed>0.022360679774997897</speed>
  <fix>3d</fix>
</trkpt>
<trkpt lat="-27.274439" lon="151.290064">
  <ele>343.1</ele>
  <time>2026-09-01T20:03:12Z</time>
  <course>270.0</course>
  <speed>0.0</speed>
  <fix>3d</fix>
</trkpt>
<trkpt lat="-27.2744391" lon="151.2900641">
  <ele>343.19</ele>
  <time>2026-09-01T20:03:12Z</time>
  <course>10.79</course>
  <speed>0.022360679774997897</speed>
  <fix>3d</fix>
</trkpt>
<trkpt lat="-27.274439" lon="151.290064">
  <ele>343.1</ele>
  <time>2026-09-01T20:03:12Z</time>
  <course>270.0</course>
  <speed>0.0</speed>
  <fix>3d</fix>
</trkpt>
<trkpt lat="-27.2744391" lon="151.2900641">
  <ele>343.09</ele>
  <time>2026-09-01T20:03:12Z</time>
  <course>10.79</course>
  <speed>0.022360679774997897</speed>
  <fix>3d</fix>
</trkpt>
<trkpt lat="-27.274439" lon="151.290064">
  <ele>343.1</ele>
  <time>2026-09-01T20:03:12Z</time>
  <course>270.0</course>
  <speed>0.0</speed>
  <fix>3d</fix>
</trkpt>
<trkpt lat="-27.2744391" lon="151.2900641">
  <ele>343.1</ele>
  <time>2026-09-01T20:03:12Z</time>
  <course>10.79</course>
  <speed>0.022360679774997897</speed>
  <fix>3d</fix>
</trkpt>
<trkpt lat="-27.274439" lon="151.290064">
  <ele>343.1</ele>
  <time>2026-09-01T20:03:12Z</time>
  <course>270.0</course>
  <speed>0.0</speed>
  <fix>3d</fix>
</trkpt>
<trkpt lat="-27.2744391" lon="151.2900641">
  <ele>343.1</ele>
  <time>2026-09-01T20:03:12Z</time>
  <course>10.79</course>
  <speed>0.022360679774997897</speed>
  <fix>3d</fix>
</trkpt>
<trkpt lat="-27.274439" lon="151.290064">
  <ele>343.1</ele>
  <time>2026-09-01T20:03:12Z</time>
  <course>270.0</course>
  <speed>0.0</speed>
  <fix>3d</fix>
</trkpt>
<trkpt lat="-27.2744391" lon="151.2900641">
  <ele>343.1</ele>
  <time>2026-09-01T20:03:12Z</time>
  <course>10.79</course>
  <speed>0.022360679774997897</speed>
  <fix>3d</fix>
</trkpt>
<trkpt lat="-27.274439" lon="151.290064">
  <ele>343.1</ele>
  <time>2026-09-01T20:03:12Z</time>
  <course>270.0</course>
  <speed>0.0</speed>
  <fix>3d</fix>
</trkpt>
<trkpt lat="-27.2744391" lon="151.2900641">
  <ele>343.1</ele>
  <time>2026-09-01T20:03:12Z</time>
  <course>10.79</course>
  <speed>0.022360679774997897</speed>
  <fix>3d</fix>
</trkpt>
<trkpt lat="-27.274439" lon="151.290064">
  <ele>343.1</ele>
  <time>2026-09-01T20:03:12Z</time>
  <course>270.0</course>
  <speed>0.0</speed>
  <fix>3d</fix>
</trkpt>
<trkpt lat="-27.2744391" lon="151.2900641">
  <ele>343.1</ele>
  <time>2026-09-01T20:03:12Z</time>
  <course>10.79</course>
  <speed>0.022360679774997897</speed>
  <fix>3d</fix>
</trkpt>
<trkpt lat="-27.274439" lon="151.290064">
  <ele>343.1</ele>
  <time>2026-09-01T20:03:12Z</time>
  <course>270.0</course>
  <speed>0.0</speed>
  <fix>3d</fix>
</trkpt>
<trkpt lat="-27.2744391" lon="151.2900641">
  <ele>343.11</ele>
  <time>2026-09-01T20:03:12Z</time>
  <course>10.79</course>
  <speed>0.022360679774997897</speed>
  <fix>3d</fix>
</trkpt>
<trkpt lat="-27.274439" lon="151.290064">
  <ele>343.1</ele>
  <time>2026-09-01T20:03:12Z</time>
  <course>270.0</course>
  <speed>0.0</speed>
  <fix>3d</fix>
</trkpt>
<trkpt lat="-27.2744391" lon="151.2900641">
  <ele>343.11</ele>
  <time>2026-09-01T20:03:12Z</time>
  <course>10.8</course>
  <speed>0.022360679774997897</speed>
  <fix>3d</fix>
</trkpt>
<trkpt lat="-27.274439" lon="151.290064">
  <ele>343.1</ele>
  <time>2026-09-01T20:03:12Z</time>
  <course>270.0</course>
  <speed>0.0</speed>
  <fix>3d</fix>
</trkpt>
<trkpt lat="-27.2744391" lon="151.2900641">
  <ele>343.11</ele>
  <time>2026-09-01T20:03:12Z</time>
  <course>10.8</course>
  <speed>0.022360679774997897</speed>
  <fix>3d</fix>
</trkpt>
<trkpt lat="-27.274439" lon="151.290064">
  <ele>343.1</ele>
  <time>2026-09-01T20:03:12Z</time>
  <course>270.0</course>
  <speed>0.0</speed>
  <fix>3d</fix>
</trkpt>
<trkpt lat="-27.2744391" lon="151.2900641">
  <ele>343.11</ele>
  <time>2026-09-01T20:03:12Z</time>
  <course>10.8</course>
  <speed>0.022360679774997897</speed>
  <fix>3d</fix>
</trkpt>
<trkpt lat="-27.274439" lon="151.290064">
  <ele>343.1</ele>
  <time>2026-09-01T20:03:12Z</time>
  <course>270.0</course>
  <speed>0.0</speed>
  <fix>3d</fix>
</trkpt>
<trkpt lat="-27.2744391" lon="151.2900641">
  <ele>343.12</ele>
  <time>2026-09-01T20:03:12Z</time>
  <course>10.8</course>
  <speed>0.022360679774997897</speed>
  <fix>3d</fix>
</trkpt>
<trkpt lat="-27.274439" lon="151.290064">
  <ele>343.1</ele>
  <time>2026-09-01T20:03:12Z</time>
  <course>270.0</course>
  <speed>0.0</speed>
  <fix>3d</fix>
</trkpt>
<trkpt lat="-27.2744391" lon="151.2900641">
  <ele>343.12</ele>
  <time>2026-09-01T20:03:12Z</time>
  <course>10.8</course>
  <speed>0.022360679774997897</speed>
  <fix>3d</fix>
</trkpt>
<trkpt lat="-27.274439" lon="151.290064">
  <ele>343.1</ele>
  <time>2026-09-01T20:03:12Z</time>
  <course>270.0</course>
  <speed>0.0</speed>
  <fix>3d</fix>
</trkpt>
<trkpt lat="-27.2744391" lon="151.2900641">
  <ele>343.12</ele>
  <time>2026-09-01T20:03:12Z</time>
  <course>10.8</course>
  <speed>0.022360679774997897</speed>
  <fix>3d</fix>
</trkpt>
<trkpt lat="-27.274439" lon="151.290064">
  <ele>343.1</ele>
  <time>2026-09-01T20:03:12Z</time>
  <course>270.0</course>
  <speed>0.0</speed>
  <fix>3d</fix>
</trkpt>
<trkpt lat="-27.2744391" lon="151.2900641">
  <ele>343.12</ele>
  <time>2026-09-01T20:03:12Z</time>
  <course>10.8</course>
  <speed>0.022360679774997897</speed>
  <fix>3d</fix>
</trkpt>
<trkpt lat="-27.274439" lon="151.290064">
  <ele>343.1</ele>
  <time>2026-09-01T20:03:12Z</time>
  <course>270.0</course>
  <speed>0.0</speed>
  <fix>3d</fix>
</trkpt>
<trkpt lat="-27.2744391" lon="151.2900641">
  <ele>343.12</ele>
  <time>2026-09-01T20:03:12Z</time>
  <course>10.8</course>
  <speed>0.022360679774997897</speed>
  <fix>3d</fix>
</trkpt>
<trkpt lat="-27.274439" lon="151.290064">
  <ele>343.1</ele>
  <time>2026-09-01T20:03:12Z</time>
  <course>270.0</course>
  <speed>0.0</speed>
  <fix>3d</fix>
</trkpt>
<trkpt lat="-27.2744391" lon="151.2900641">
  <ele>343.12</ele>
  <time>2026-09-01T20:03:12Z</time>
  <course>10.8</course>
  <speed>0.022360679774997897</speed>
  <fix>3d</fix>
</trkpt>
<trkpt lat="-27.274439" lon="151.290064">
  <ele>343.1</ele>
  <time>2026-09-01T20:03:12Z</time>
  <course>270.0</course>
  <speed>0.0</speed>
  <fix>3d</fix>
</trkpt>
<trkpt lat="-27.2744391" lon="151.2900641">
  <ele>343.11</ele>
  <time>2026-09-01T20:03:12Z</time>
  <course>10.8</course>
  <speed>0.022360679774997897</speed>
  <fix>3d</fix>
</trkpt>
<trkpt lat="-27.274439" lon="151.290064">
  <ele>343.1</ele>
  <time>2026-09-01T20:03:12Z</time>
  <course>270.0</course>
  <speed>0.0</speed>
  <fix>3d</fix>
</trkpt>
<trkpt lat="-27.2744391" lon="151.2900641">
  <ele>343.11</ele>
  <time>2026-09-01T20:03:12Z</time>
  <course>10.8</course>
  <speed>0.022360679774997897</speed>
  <fix>3d</fix>
</trkpt>
<trkpt lat="-27.274439" lon="151.290064">
  <ele>343.1</ele>
  <time>2026-09-01T20:03:12Z</time>
  <course>270.0</course>
  <speed>0.0</speed>
  <fix>3d</fix>
</trkpt>
<trkpt lat="-27.2744391" lon="151.2900641">
  <ele>343.11</ele>
  <time>2026-09-01T20:03:12Z</time>
  <course>10.8</course>
  <speed>0.022360679774997897</speed>
  <fix>3d</fix>
</trkpt>
<trkpt lat="-27.274439" lon="151.290064">
  <ele>343.1</ele>
  <time>2026-09-01T20:03:12Z</time>
  <course>270.0</course>
  <speed>0.0</speed>
  <fix>3d</fix>
</trkpt>
<trkpt lat="-27.2744391" lon="151.2900641">
  <ele>343.11</ele>
  <time>2026-09-01T20:03:12Z</time>
  <course>10.8</course>
  <speed>0.022360679774997897</speed>
  <fix>3d</fix>
</trkpt>
<trkpt lat="-27.274439" lon="151.290064">
  <ele>343.1</ele>
  <time>2026-09-01T20:03:12Z</time>
  <course>270.0</course>
  <speed>0.0</speed>
  <fix>3d</fix>
</trkpt>
<trkpt lat="-27.2744391" lon="151.2900641">
  <ele>343.11</ele>
  <time>2026-09-01T20:03:12Z</time>
  <course>10.8</course>
  <speed>0.022360679774997897</speed>
  <fix>3d</fix>
</trkpt>
<trkpt lat="-27.274439" lon="151.290064">
  <ele>343.1</ele>
  <time>2026-09-01T20:03:12Z</time>
  <course>270.0</course>
  <speed>0.0</speed>
  <fix>3d</fix>
</trkpt>
<trkpt lat="-27.2744391" lon="151.2900641">
  <ele>343.11</ele>
  <time>2026-09-01T20:03:12Z</time>
  <course>10.8</course>
  <speed>0.022360679774997897</speed>
  <fix>3d</fix>
</trkpt>
<trkpt lat="-27.274439" lon="151.290064">
  <ele>343.1</ele>
  <time>2026-09-01T20:03:12Z</time>
  <course>270.0</course>
  <speed>0.0</speed>
  <fix>3d</fix>
</trkpt>
<trkpt lat="-27.2744391" lon="151.2900641">
  <ele>343.11</ele>
  <time>2026-09-01T20:03:12Z</time>
  <course>10.8</course>
  <speed>0.022360679774997897</speed>
  <fix>3d</fix>
</trkpt>
<trkpt lat="-27.274439" lon="151.290064">
  <ele>343.1</ele>
  <time>2026-09-01T20:03:12Z</time>
  <course>270.0</course>
  <speed>0.0</speed>
  <fix>3d</fix>
</trkpt>
<trkpt lat="-27.2744391" lon="151.2900641">
  <ele>343.11</ele>
  <time>2026-09-01T20:03:12Z</time>
  <course>10.8</course>
  <speed>0.022360679774997897</speed>
  <fix>3d</fix>
</trkpt>
<trkpt lat="-27.274439" lon="151.290064">
  <ele>343.1</ele>
  <time>2026-09-01T20:03:12Z</time>
  <course>270.0</course>
  <speed>0.0</speed>
  <fix>3d</fix>
</trkpt>
<trkpt lat="-27.2744391" lon="151.2900641">
  <ele>343.1</ele>
  <time>2026-09-01T20:03:12Z</time>
  <course>10.81</course>
  <speed>0.022360679774997897</speed>
  <fix>3d</fix>
</trkpt>
<trkpt lat="-27.274439" lon="151.290064">
  <ele>343.1</ele>
  <time>2026-09-01T20:03:12Z</time>
  <course>270.0</course>
  <speed>0.0</speed>
  <fix>3d</fix>
</trkpt>
<trkpt lat="-27.2744391" lon="151.2900641">
  <ele>343.1</ele>
  <time>2026-09-01T20:03:12Z</time>
  <course>10.81</course>
  <speed>0.022360679774997897</speed>
  <fix>3d</fix>
</trkpt>
<trkpt lat="-27.274439" lon="151.290064">
  <ele>343.1</ele>
  <time>2026-09-01T20:03:12Z</time>
  <course>270.0</course>
  <speed>0.0</speed>
  <fix>3d</fix>
</trkpt>
<trkpt lat="-27.2744391" lon="151.2900641">
  <ele>343.1</ele>
  <time>2026-09-01T20:03:12Z</time>
  <course>10.81</course>
  <speed>0.022360679774997897</speed>
  <fix>3d</fix>
</trkpt>
<trkpt lat="-27.274439" lon="151.290064">
  <ele>343.1</ele>
  <time>2026-09-01T20:03:12Z</time>
  <course>270.0</course>
  <speed>0.0</speed>
  <fix>3d</fix>
</trkpt>
<trkpt lat="-27.2744391" lon="151.2900641">
  <ele>343.1</ele>
  <time>2026-09-01T20:03:12Z</time>
  <course>10.81</course>
  <speed>0.022360679774997897</speed>
  <fix>3d</fix>
</trkpt>
<trkpt lat="-27.274439" lon="151.290064">
  <ele>343.1</ele>
  <time>2026-09-01T20:03:12Z</time>
  <course>270.0</course>
  <speed>0.0</speed>
  <fix>3d</fix>
</trkpt>
<trkpt lat="-27.2744391" lon="151.2900641">
  <ele>343.1</ele>
  <time>2026-09-01T20:03:12Z</time>
  <course>10.81</course>
  <speed>0.022360679774997897</speed>
  <fix>3d</fix>
</trkpt>
<trkpt lat="-27.274439" lon="151.290064">
  <ele>343.1</ele>
  <time>2026-09-01T20:03:12Z</time>
  <course>270.0</course>
  <speed>0.0</speed>
  <fix>3d</fix>
</trkpt>
<trkpt lat="-27.2744392" lon="151.2900641">
  <ele>343.1</ele>
  <time>2026-09-01T20:03:12Z</time>
  <course>10.81</course>
  <speed>0.022360679774997897</speed>
  <fix>3d</fix>
</trkpt>
<trkpt lat="-27.274439" lon="151.290064">
  <ele>343.1</ele>
  <time>2026-09-01T20:03:12Z</time>
  <course>270.0</course>
  <speed>0.0</speed>
  <fix>3d</fix>
</trkpt>
<trkpt lat="-27.2744391" lon="151.2900641">
  <ele>343.1</ele>
  <time>2026-09-01T20:03:12Z</time>
  <course>10.81</course>
  <speed>0.022360679774997897</speed>
  <fix>3d</fix>
</trkpt>
<trkpt lat="-27.274439" lon="151.290064">
  <ele>343.1</ele>
  <time>2026-09-01T20:03:12Z</time>
  <course>270.0</course>
  <speed>0.0</speed>
  <fix>3d</fix>
</trkpt>
<trkpt lat="-27.2744392" lon="151.2900641">
  <ele>343.1</ele>
  <time>2026-09-01T20:03:12Z</time>
  <course>10.81</course>
  <speed>0.022360679774997897</speed>
  <fix>3d</fix>
</trkpt>
<trkpt lat="-27.274439" lon="151.290064">
  <ele>343.1</ele>
  <time>2026-09-01T20:03:12Z</time>
  <course>270.0</course>
  <speed>0.0</speed>
  <fix>3d</fix>
</trkpt>
<trkpt lat="-27.2744391" lon="151.2900641">
  <ele>343.09</ele>
  <time>2026-09-01T20:03:12Z</time>
  <course>10.81</course>
  <speed>0.022360679774997897</speed>
  <fix>3d</fix>
</trkpt>
<trkpt lat="-27.274439" lon="151.290064">
  <ele>343.1</ele>
  <time>2026-09-01T20:03:12Z</time>
  <course>270.0</course>
  <speed>0.0</speed>
  <fix>3d</fix>
</trkpt>
<trkpt lat="-27.2744392" lon="151.2900641">
  <ele>343.09</ele>
  <time>2026-09-01T20:03:12Z</time>
  <course>10.81</course>
  <speed>0.022360679774997897</speed>
  <fix>3d</fix>
</trkpt>
<trkpt lat="-27.274439" lon="151.290064">
  <ele>343.1</ele>
  <time>2026-09-01T20:03:12Z</time>
  <course>270.0</course>
  <speed>0.0</speed>
  <fix>3d</fix>
</trkpt>
<trkpt lat="-27.2744391" lon="151.2900641">
  <ele>343.09</ele>
  <time>2026-09-01T20:03:12Z</time>
  <course>10.81</course>
  <speed>0.022360679774997897</speed>
  <fix>3d</fix>
</trkpt>
<trkpt lat="-27.274439" lon="151.290064">
  <ele>343.1</ele>
  <time>2026-09-01T20:03:12Z</time>
  <course>270.0</course>
  <speed>0.0</speed>
  <fix>3d</fix>
</trkpt>
<trkpt lat="-27.2744392" lon="151.2900641">
  <ele>343.09</ele>
  <time>2026-09-01T20:03:12Z</time>
  <course>10.81</course>
  <speed>0.022360679774997897</speed>
  <fix>3d</fix>
</trkpt>
<trkpt lat="-27.274439" lon="151.290064">
  <ele>343.1</ele>
  <time>2026-09-01T20:03:12Z</time>
  <course>270.0</course>
  <speed>0.0</speed>
  <fix>3d</fix>
</trkpt>
<trkpt lat="-27.2744391" lon="151.2900641">
  <ele>343.09</ele>
  <time>2026-09-01T20:03:12Z</time>
  <course>10.81</course>
  <speed>0.022360679774997897</speed>
  <fix>3d</fix>
</trkpt>
<trkpt lat="-27.274439" lon="151.290064">
  <ele>343.1</ele>
  <time>2026-09-01T20:03:12Z</time>
  <course>270.0</course>
  <speed>0.0</speed>
  <fix>3d</fix>
</trkpt>
<trkpt lat="-27.2744392" lon="151.2900641">
  <ele>343.09</ele>
  <time>2026-09-01T20:03:12Z</time>
  <course>10.81</course>
  <speed>0.022360679774997897</speed>
  <fix>3d</fix>
</trkpt>
<trkpt lat="-27.274439" lon="151.290064">
  <ele>343.1</ele>
  <time>2026-09-01T20:03:12Z</time>
  <course>270.0</course>
  <speed>0.0</speed>
  <fix>3d</fix>
</trkpt>
<trkpt lat="-27.2744391" lon="151.2900641">
  <ele>343.09</ele>
  <time>2026-09-01T20:03:12Z</time>
  <course>10.81</course>
  <speed>0.022360679774997897</speed>
  <fix>3d</fix>
</trkpt>
<trkpt lat="-27.274439" lon="151.290064">
  <ele>343.1</ele>
  <time>2026-09-01T20:03:12Z</time>
  <course>270.0</course>
  <speed>0.0</speed>
  <fix>3d</fix>
</trkpt>
<trkpt lat="-27.2744392" lon="151.2900641">
  <ele>343.09</ele>
  <time>2026-09-01T20:03:12Z</time>
  <course>10.81</course>
  <speed>0.022360679774997897</speed>
  <fix>3d</fix>
</trkpt>
<trkpt lat="-27.274439" lon="151.290064">
  <ele>343.1</ele>
  <time>2026-09-01T20:03:12Z</time>
  <course>270.0</course>
  <speed>0.0</speed>
  <fix>3d</fix>
</trkpt>
<trkpt lat="-27.2744391" lon="151.2900641">
  <ele>343.09</ele>
  <time>2026-09-01T20:03:12Z</time>
  <course>10.81</course>
  <speed>0.022360679774997897</speed>
  <fix>3d</fix>
</trkpt>
<trkpt lat="-27.274439" lon="151.290064">
  <ele>343.1</ele>
  <time>2026-09-01T20:03:12Z</time>
  <course>270.0</course>
  <speed>0.0</speed>
  <fix>3d</fix>
</trkpt>
<trkpt lat="-27.2744392" lon="151.2900641">
  <ele>343.09</ele>
  <time>2026-09-01T20:03:12Z</time>
  <course>10.81</course>
  <speed>0.022360679774997897</speed>
  <fix>3d</fix>
</trkpt>
<trkpt lat="-27.274439" lon="151.290064">
  <ele>343.1</ele>
  <time>2026-09-01T20:03:12Z</time>
  <course>270.0</course>
  <speed>0.0</speed>
  <fix>3d</fix>
</trkpt>
<trkpt lat="-27.2744391" lon="151.2900641">
  <ele>343.08</ele>
  <time>2026-09-01T20:03:12Z</time>
  <course>10.82</course>
  <speed>0.022360679774997897</speed>
  <fix>3d</fix>
</trkpt>
<trkpt lat="-27.274439" lon="151.290064">
  <ele>343.1</ele>
  <time>2026-09-01T20:03:12Z</time>
  <course>270.0</course>
  <speed>0.0</speed>
  <fix>3d</fix>
</trkpt>
<trkpt lat="-27.2744392" lon="151.2900641">
  <ele>343.08</ele>
  <time>2026-09-01T20:03:12Z</time>
  <course>10.82</course>
  <speed>0.022360679774997897</speed>
  <fix>3d</fix>
</trkpt>
<trkpt lat="-27.274439" lon="151.290064">
  <ele>343.1</ele>
  <time>2026-09-01T20:03:12Z</time>
  <course>270.0</course>
  <speed>0.0</speed>
  <fix>3d</fix>
</trkpt>
<trkpt lat="-27.2744391" lon="151.2900641">
  <ele>343.08</ele>
  <time>2026-09-01T20:03:12Z</time>
  <course>10.82</course>
  <speed>0.022360679774997897</speed>
  <fix>3d</fix>
</trkpt>
<trkpt lat="-27.274439" lon="151.290064">
  <ele>343.1</ele>
  <time>2026-09-01T20:03:12Z</time>
  <course>270.0</course>
  <speed>0.0</speed>
  <fix>3d</fix>
</trkpt>
<trkpt lat="-27.2744392" lon="151.2900641">
  <ele>343.08</ele>
  <time>2026-09-01T20:03:12Z</time>
  <course>10.82</course>
  <speed>0.022360679774997897</speed>
  <fix>3d</fix>
</trkpt>
<trkpt lat="-27.274439" lon="151.290064">
  <ele>343.1</ele>
  <time>2026-09-01T20:03:12Z</time>
  <course>270.0</course>
  <speed>0.0</speed>
  <fix>3d</fix>
</trkpt>
<trkpt lat="-27.2744391" lon="151.2900641">
  <ele>343.07</ele>
  <time>2026-09-01T20:03:12Z</time>
  <course>10.82</course>
  <speed>0.022360679774997897</speed>
  <fix>3d</fix>
</trkpt>
<trkpt lat="-27.274439" lon="151.290064">
  <ele>343.1</ele>
  <time>2026-09-01T20:03:12Z</time>
  <course>270.0</course>
  <speed>0.0</speed>
  <fix>3d</fix>
</trkpt>
<trkpt lat="-27.2744392" lon="151.2900641">
  <ele>343.07</ele>
  <time>2026-09-01T20:03:12Z</time>
  <course>10.82</course>
  <speed>0.022360679774997897</speed>
  <fix>3d</fix>
</trkpt>
<trkpt lat="-27.274439" lon="151.290064">
  <ele>343.1</ele>
  <time>2026-09-01T20:03:12Z</time>
  <course>270.0</course>
  <speed>0.0</speed>
  <fix>3d</fix>
</trkpt>
<trkpt lat="-27.2744391" lon="151.2900641">
  <ele>343.07</ele>
  <time>2026-09-01T20:03:12Z</time>
  <course>10.82</course>
  <speed>0.022360679774997897</speed>
  <fix>3d</fix>
</trkpt>
<trkpt lat="-27.274439" lon="151.290064">
  <ele>343.1</ele>
  <time>2026-09-01T20:03:12Z</time>
  <course>270.0</course>
  <speed>0.0</speed>
  <fix>3d</fix>
</trkpt>
<trkpt lat="-27.2744392" lon="151.2900641">
  <ele>343.07</ele>
  <time>2026-09-01T20:03:12Z</time>
  <course>10.82</course>
  <speed>0.022360679774997897</speed>
  <fix>3d</fix>
</trkpt>
<trkpt lat="-27.274439" lon="151.290064">
  <ele>343.1</ele>
  <time>2026-09-01T20:03:12Z</time>
  <course>270.0</course>
  <speed>0.0</speed>
  <fix>3d</fix>
</trkpt>
<trkpt lat="-27.2744391" lon="151.2900641">
  <ele>343.07</ele>
  <time>2026-09-01T20:03:12Z</time>
  <course>10.82</course>
  <speed>0.022360679774997897</speed>
  <fix>3d</fix>
</trkpt>
<trkpt lat="-27.274439" lon="151.290064">
  <ele>343.1</ele>
  <time>2026-09-01T20:03:12Z</time>
  <course>270.0</course>
  <speed>0.0</speed>
  <fix>3d</fix>
</trkpt>
<trkpt lat="-27.2744392" lon="151.2900641">
  <ele>343.07</ele>
  <time>2026-09-01T20:03:12Z</time>
  <course>10.82</course>
  <speed>0.022360679774997897</speed>
  <fix>3d</fix>
</trkpt>
<trkpt lat="-27.274439" lon="151.290064">
  <ele>343.1</ele>
  <time>2026-09-01T20:03:12Z</time>
  <course>270.0</course>
  <speed>0.0</speed>
  <fix>3d</fix>
</trkpt>
<trkpt lat="-27.2744391" lon="151.2900641">
  <ele>343.07</ele>
  <time>2026-09-01T20:03:12Z</time>
  <course>10.82</course>
  <speed>0.022360679774997897</speed>
  <fix>3d</fix>
</trkpt>
<trkpt lat="-27.274439" lon="151.290064">
  <ele>343.1</ele>
  <time>2026-09-01T20:03:12Z</time>
  <course>270.0</course>
  <speed>0.0</speed>
  <fix>3d</fix>
</trkpt>
<trkpt lat="-27.2744392" lon="151.2900641">
  <ele>343.07</ele>
  <time>2026-09-01T20:03:12Z</time>
  <course>10.82</course>
  <speed>0.022360679774997897</speed>
  <fix>3d</fix>
</trkpt>
<trkpt lat="-27.274439" lon="151.290064">
  <ele>343.1</ele>
  <time>2026-09-01T20:03:12Z</time>
  <course>270.0</course>
  <speed>0.0</speed>
  <fix>3d</fix>
</trkpt>
<trkpt lat="-27.2744391" lon="151.2900641">
  <ele>343.07</ele>
  <time>2026-09-01T20:03:12Z</time>
  <course>10.82</course>
  <speed>0.022360679774997897</speed>
  <fix>3d</fix>
</trkpt>
<trkpt lat="-27.274439" lon="151.290064">
  <ele>343.1</ele>
  <time>2026-09-01T20:03:12Z</time>
  <course>270.0</course>
  <speed>0.0</speed>
  <fix>3d</fix>
</trkpt>
<trkpt lat="-27.2744392" lon="151.2900641">
  <ele>343.07</ele>
  <time>2026-09-01T20:03:12Z</time>
  <course>10.82</course>
  <speed>0.022360679774997897</speed>
  <fix>3d</fix>
</trkpt>
<trkpt lat="-27.274439" lon="151.290064">
  <ele>343.1</ele>
  <time>2026-09-01T20:03:12Z</time>
  <course>270.0</course>
  <speed>0.0</speed>
  <fix>3d</fix>
</trkpt>
<trkpt lat="-27.2744391" lon="151.2900641">
  <ele>343.07</ele>
  <time>2026-09-01T20:03:12Z</time>
  <course>10.83</course>
  <speed>0.022360679774997897</speed>
  <fix>3d</fix>
</trkpt>
<trkpt lat="-27.274439" lon="151.290064">
  <ele>343.1</ele>
  <time>2026-09-01T20:03:12Z</time>
  <course>270.0</course>
  <speed>0.0</speed>
  <fix>3d</fix>
</trkpt>
<trkpt lat="-27.2744392" lon="151.2900641">
  <ele>343.08</ele>
  <time>2026-09-01T20:03:12Z</time>
  <course>10.83</course>
  <speed>0.022360679774997897</speed>
  <fix>3d</fix>
</trkpt>
<trkpt lat="-27.274439" lon="151.290064">
  <ele>343.1</ele>
  <time>2026-09-01T20:03:12Z</time>
  <course>270.0</course>
  <speed>0.0</speed>
  <fix>3d</fix>
</trkpt>
<trkpt lat="-27.2744391" lon="151.2900641">
  <ele>343.08</ele>
  <time>2026-09-01T20:03:12Z</time>
  <course>10.83</course>
  <speed>0.022360679774997897</speed>
  <fix>3d</fix>
</trkpt>
<trkpt lat="-27.274439" lon="151.290064">
  <ele>343.1</ele>
  <time>2026-09-01T20:03:12Z</time>
  <course>270.0</course>
  <speed>0.0</speed>
  <fix>3d</fix>
</trkpt>
<trkpt lat="-27.2744392" lon="151.2900641">
  <ele>343.08</ele>
  <time>2026-09-01T20:03:12Z</time>
  <course>10.83</course>
  <speed>0.022360679774997897</speed>
  <fix>3d</fix>
</trkpt>
<trkpt lat="-27.274439" lon="151.290064">
  <ele>343.1</ele>
  <time>2026-09-01T20:03:12Z</time>
  <course>270.0</course>
  <speed>0.0</speed>
  <fix>3d</fix>
</trkpt>
<trkpt lat="-27.2744391" lon="151.2900641">
  <ele>343.09</ele>
  <time>2026-09-01T20:03:12Z</time>
  <course>10.83</course>
  <speed>0.022360679774997897</speed>
  <fix>3d</fix>
</trkpt>
<trkpt lat="-27.274439" lon="151.290064">
  <ele>343.1</ele>
  <time>2026-09-01T20:03:12Z</time>
  <course>270.0</course>
  <speed>0.0</speed>
  <fix>3d</fix>
</trkpt>
<trkpt lat="-27.2744392" lon="151.2900641">
  <ele>343.09</ele>
  <time>2026-09-01T20:03:12Z</time>
  <course>10.83</course>
  <speed>0.022360679774997897</speed>
  <fix>3d</fix>
</trkpt>
<trkpt lat="-27.274439" lon="151.290064">
  <ele>343.1</ele>
  <time>2026-09-01T20:03:12Z</time>
  <course>270.0</course>
  <speed>0.0</speed>
  <fix>3d</fix>
</trkpt>
<trkpt lat="-27.2744391" lon="151.2900641">
  <ele>343.09</ele>
  <time>2026-09-01T20:03:12Z</time>
  <course>10.83</course>
  <speed>0.022360679774997897</speed>
  <fix>3d</fix>
</trkpt>
<trkpt lat="-27.274439" lon="151.290064">
  <ele>343.1</ele>
  <time>2026-09-01T20:03:12Z</time>
  <course>270.0</course>
  <speed>0.0</speed>
  <fix>3d</fix>
</trkpt>
<trkpt lat="-27.2744392" lon="151.2900641">
  <ele>343.09</ele>
  <time>2026-09-01T20:03:12Z</time>
  <course>10.83</course>
  <speed>0.022360679774997897</speed>
  <fix>3d</fix>
</trkpt>
<trkpt lat="-27.274439" lon="151.290064">
  <ele>343.1</ele>
  <time>2026-09-01T20:03:12Z</time>
  <course>270.0</course>
  <speed>0.0</speed>
  <fix>3d</fix>
</trkpt>
<trkpt lat="-27.2744391" lon="151.2900641">
  <ele>343.1</ele>
  <time>2026-09-01T20:03:12Z</time>
  <course>10.83</course>
  <speed>0.022360679774997897</speed>
  <fix>3d</fix>
</trkpt>
<trkpt lat="-27.274439" lon="151.290064">
  <ele>343.1</ele>
  <time>2026-09-01T20:03:12Z</time>
  <course>270.0</course>
  <speed>0.0</speed>
  <fix>3d</fix>
</trkpt>
<trkpt lat="-27.2744392" lon="151.2900641">
  <ele>343.1</ele>
  <time>2026-09-01T20:03:12Z</time>
  <course>10.83</course>
  <speed>0.022360679774997897</speed>
  <fix>3d</fix>
</trkpt>
<trkpt lat="-27.274439" lon="151.290064">
  <ele>343.1</ele>
  <time>2026-09-01T20:03:12Z</time>
  <course>270.0</course>
  <speed>0.0</speed>
  <fix>3d</fix>
</trkpt>
<trkpt lat="-27.2744391" lon="151.2900641">
  <ele>343.1</ele>
  <time>2026-09-01T20:03:12Z</time>
  <course>10.83</course>
  <speed>0.022360679774997897</speed>
  <fix>3d</fix>
</trkpt>
<trkpt lat="-27.274439" lon="151.290064">
  <ele>343.1</ele>
  <time>2026-09-01T20:03:12Z</time>
  <course>270.0</course>
  <speed>0.0</speed>
  <fix>3d</fix>
</trkpt>
<trkpt lat="-27.2744392" lon="151.2900641">
  <ele>343.1</ele>
  <time>2026-09-01T20:03:12Z</time>
  <course>10.83</course>
  <speed>0.022360679774997897</speed>
  <fix>3d</fix>
</trkpt>
<trkpt lat="-27.274439" lon="151.290064">
  <ele>343.1</ele>
  <time>2026-09-01T20:03:12Z</time>
  <course>270.0</course>
  <speed>0.0</speed>
  <fix>3d</fix>
</trkpt>
<trkpt lat="-27.2744391" lon="151.2900641">
  <ele>343.1</ele>
  <time>2026-09-01T20:03:12Z</time>
  <course>10.83</course>
  <speed>0.022360679774997897</speed>
  <fix>3d</fix>
</trkpt>
<trkpt lat="-27.274439" lon="151.290064">
  <ele>343.1</ele>
  <time>2026-09-01T20:03:12Z</time>
  <course>270.0</course>
  <speed>0.0</speed>
  <fix>3d</fix>
</trkpt>
<trkpt lat="-27.2744392" lon="151.2900641">
  <ele>343.1</ele>
  <time>2026-09-01T20:03:12Z</time>
  <course>10.83</course>
  <speed>0.022360679774997897</speed>
  <fix>3d</fix>
</trkpt>
<trkpt lat="-27.274439" lon="151.290064">
  <ele>343.1</ele>
  <time>2026-09-01T20:03:12Z</time>
  <course>270.0</course>
  <speed>0.0</speed>
  <fix>3d</fix>
</trkpt>
<trkpt lat="-27.2744392" lon="151.2900641">
  <ele>343.1</ele>
  <time>2026-09-01T20:03:12Z</time>
  <course>10.83</course>
  <speed>0.022360679774997897</speed>
  <fix>3d</fix>
</trkpt>
<trkpt lat="-27.274439" lon="151.290064">
  <ele>343.1</ele>
  <time>2026-09-01T20:03:12Z</time>
  <course>270.0</course>
  <speed>0.0</speed>
  <fix>3d</fix>
</trkpt>
<trkpt lat="-27.2744392" lon="151.2900641">
  <ele>343.1</ele>
  <time>2026-09-01T20:03:12Z</time>
  <course>10.83</course>
  <speed>0.022360679774997897</speed>
  <fix>3d</fix>
</trkpt>
<trkpt lat="-27.274439" lon="151.290064">
  <ele>343.1</ele>
  <time>2026-09-01T20:03:12Z</time>
  <course>270.0</course>
  <speed>0.0</speed>
  <fix>3d</fix>
</trkpt>
<trkpt lat="-27.2744392" lon="151.2900641">
  <ele>343.1</ele>
  <time>2026-09-01T20:03:12Z</time>
  <course>10.84</course>
  <speed>0.022360679774997897</speed>
  <fix>3d</fix>
</trkpt>
<trkpt lat="-27.274439" lon="151.290064">
  <ele>343.1</ele>
  <time>2026-09-01T20:03:12Z</time>
  <course>270.0</course>
  <speed>0.0</speed>
  <fix>3d</fix>
</trkpt>
<trkpt lat="-27.2744392" lon="151.2900641">
  <ele>343.1</ele>
  <time>2026-09-01T20:03:12Z</time>
  <course>10.84</course>
  <speed>0.022360679774997897</speed>
  <fix>3d</fix>
</trkpt>
<trkpt lat="-27.274439" lon="151.290064">
  <ele>343.1</ele>
  <time>2026-09-01T20:03:12Z</time>
  <course>270.0</course>
  <speed>0.0</speed>
  <fix>3d</fix>
</trkpt>
<trkpt lat="-27.2744392" lon="151.2900641">
  <ele>343.1</ele>
  <time>2026-09-01T20:03:12Z</time>
  <course>10.84</course>
  <speed>0.022360679774997897</speed>
  <fix>3d</fix>
</trkpt>
<trkpt lat="-27.274439" lon="151.290064">
  <ele>343.1</ele>
  <time>2026-09-01T20:03:12Z</time>
  <course>270.0</course>
  <speed>0.0</speed>
  <fix>3d</fix>
</trkpt>
<trkpt lat="-27.2744392" lon="151.2900641">
  <ele>343.1</ele>
  <time>2026-09-01T20:03:12Z</time>
  <course>10.84</course>
  <speed>0.022360679774997897</speed>
  <fix>3d</fix>
</trkpt>
<trkpt lat="-27.274439" lon="151.290064">
  <ele>343.1</ele>
  <time>2026-09-01T20:03:12Z</time>
  <course>270.0</course>
  <speed>0.0</speed>
  <fix>3d</fix>
</trkpt>
<trkpt lat="-27.2744392" lon="151.2900641">
  <ele>343.1</ele>
  <time>2026-09-01T20:03:12Z</time>
  <course>10.84</course>
  <speed>0.022360679774997897</speed>
  <fix>3d</fix>
</trkpt>
<trkpt lat="-27.274439" lon="151.290064">
  <ele>343.1</ele>
  <time>2026-09-01T20:03:12Z</time>
  <course>270.0</course>
  <speed>0.0</speed>
  <fix>3d</fix>
</trkpt>
<trkpt lat="-27.2744392" lon="151.2900641">
  <ele>343.1</ele>
  <time>2026-09-01T20:03:12Z</time>
  <course>10.84</course>
  <speed>0.022360679774997897</speed>
  <fix>3d</fix>
</trkpt>
<trkpt lat="-27.274439" lon="151.290064">
  <ele>343.1</ele>
  <time>2026-09-01T20:03:12Z</time>
  <course>270.0</course>
  <speed>0.0</speed>
  <fix>3d</fix>
</trkpt>
<trkpt lat="-27.2744392" lon="151.2900641">
  <ele>343.1</ele>
  <time>2026-09-01T20:03:12Z</time>
  <course>10.84</course>
  <speed>0.022360679774997897</speed>
  <fix>3d</fix>
</trkpt>
<trkpt lat="-27.274439" lon="151.290064">
  <ele>343.1</ele>
  <time>2026-09-01T20:03:12Z</time>
  <course>270.0</course>
  <speed>0.0</speed>
  <fix>3d</fix>
</trkpt>
<trkpt lat="-27.2744392" lon="151.2900641">
  <ele>343.11</ele>
  <time>2026-09-01T20:03:12Z</time>
  <course>10.84</course>
  <speed>0.022360679774997897</speed>
  <fix>3d</fix>
</trkpt>
<trkpt lat="-27.274439" lon="151.290064">
  <ele>343.1</ele>
  <time>2026-09-01T20:03:12Z</time>
  <course>270.0</course>
  <speed>0.0</speed>
  <fix>3d</fix>
</trkpt>
<trkpt lat="-27.2744392" lon="151.2900641">
  <ele>343.11</ele>
  <time>2026-09-01T20:03:12Z</time>
  <course>10.84</course>
  <speed>0.022360679774997897</speed>
  <fix>3d</fix>
</trkpt>
<trkpt lat="-27.274439" lon="151.290064">
  <ele>343.1</ele>
  <time>2026-09-01T20:03:12Z</time>
  <course>270.0</course>
  <speed>0.0</speed>
  <fix>3d</fix>
</trkpt>
<trkpt lat="-27.2744392" lon="151.2900641">
  <ele>343.11</ele>
  <time>2026-09-01T20:03:12Z</time>
  <course>10.84</course>
  <speed>0.022360679774997897</speed>
  <fix>3d</fix>
</trkpt>
<trkpt lat="-27.274439" lon="151.290064">
  <ele>343.1</ele>
  <time>2026-09-01T20:03:12Z</time>
  <course>270.0</course>
  <speed>0.0</speed>
  <fix>3d</fix>
</trkpt>
<trkpt lat="-27.2744392" lon="151.2900641">
  <ele>343.11</ele>
  <time>2026-09-01T20:03:12Z</time>
  <course>10.84</course>
  <speed>0.022360679774997897</speed>
  <fix>3d</fix>
</trkpt>
<trkpt lat="-27.274439" lon="151.290064">
  <ele>343.1</ele>
  <time>2026-09-01T20:03:12Z</time>
  <course>270.0</course>
  <speed>0.0</speed>
  <fix>3d</fix>
</trkpt>
<trkpt lat="-27.2744392" lon="151.2900641">
  <ele>343.11</ele>
  <time>2026-09-01T20:03:12Z</time>
  <course>10.84</course>
  <speed>0.022360679774997897</speed>
  <fix>3d</fix>
</trkpt>
<trkpt lat="-27.274439" lon="151.290064">
  <ele>343.1</ele>
  <time>2026-09-01T20:03:12Z</time>
  <course>270.0</course>
  <speed>0.0</speed>
  <fix>3d</fix>
</trkpt>
<trkpt lat="-27.2744392" lon="151.2900641">
  <ele>343.11</ele>
  <time>2026-09-01T20:03:12Z</time>
  <course>10.84</course>
  <speed>0.022360679774997897</speed>
  <fix>3d</fix>
</trkpt>
<trkpt lat="-27.274439" lon="151.290064">
  <ele>343.1</ele>
  <time>2026-09-01T20:03:12Z</time>
  <course>270.0</course>
  <speed>0.0</speed>
  <fix>3d</fix>
</trkpt>
<trkpt lat="-27.2744392" lon="151.2900641">
  <ele>343.12</ele>
  <time>2026-09-01T20:03:12Z</time>
  <course>10.84</course>
  <speed>0.022360679774997897</speed>
  <fix>3d</fix>
</trkpt>
<trkpt lat="-27.274439" lon="151.290064">
  <ele>343.1</ele>
  <time>2026-09-01T20:03:12Z</time>
  <course>270.0</course>
  <speed>0.0</speed>
  <fix>3d</fix>
</trkpt>
<trkpt lat="-27.2744392" lon="151.2900641">
  <ele>343.12</ele>
  <time>2026-09-01T20:03:12Z</time>
  <course>10.84</course>
  <speed>0.022360679774997897</speed>
  <fix>3d</fix>
</trkpt>
<trkpt lat="-27.274439" lon="151.290064">
  <ele>343.1</ele>
  <time>2026-09-01T20:03:12Z</time>
  <course>270.0</course>
  <speed>0.0</speed>
  <fix>3d</fix>
</trkpt>
<trkpt lat="-27.2744392" lon="151.2900641">
  <ele>343.12</ele>
  <time>2026-09-01T20:03:12Z</time>
  <course>10.85</course>
  <speed>0.022360679774997897</speed>
  <fix>3d</fix>
</trkpt>
<trkpt lat="-27.274439" lon="151.290064">
  <ele>343.1</ele>
  <time>2026-09-01T20:03:12Z</time>
  <course>270.0</course>
  <speed>0.0</speed>
  <fix>3d</fix>
</trkpt>
<trkpt lat="-27.2744392" lon="151.2900641">
  <ele>343.12</ele>
  <time>2026-09-01T20:03:12Z</time>
  <course>10.85</course>
  <speed>0.022360679774997897</speed>
  <fix>3d</fix>
</trkpt>
<trkpt lat="-27.274439" lon="151.290064">
  <ele>343.1</ele>
  <time>2026-09-01T20:03:12Z</time>
  <course>270.0</course>
  <speed>0.0</speed>
  <fix>3d</fix>
</trkpt>
<trkpt lat="-27.2744392" lon="151.2900641">
  <ele>343.12</ele>
  <time>2026-09-01T20:03:12Z</time>
  <course>10.85</course>
  <speed>0.022360679774997897</speed>
  <fix>3d</fix>
</trkpt>
<trkpt lat="-27.274439" lon="151.290064">
  <ele>343.1</ele>
  <time>2026-09-01T20:03:12Z</time>
  <course>270.0</course>
  <speed>0.0</speed>
  <fix>3d</fix>
</trkpt>
<trkpt lat="-27.2744392" lon="151.2900641">
  <ele>343.12</ele>
  <time>2026-09-01T20:03:12Z</time>
  <course>10.85</course>
  <speed>0.022360679774997897</speed>
  <fix>3d</fix>
</trkpt>
<trkpt lat="-27.274439" lon="151.290064">
  <ele>343.1</ele>
  <time>2026-09-01T20:03:12Z</time>
  <course>270.0</course>
  <speed>0.0</speed>
  <fix>3d</fix>
</trkpt>
<trkpt lat="-27.2744392" lon="151.2900641">
  <ele>343.12</ele>
  <time>2026-09-01T20:03:12Z</time>
  <course>10.85</course>
  <speed>0.022360679774997897</speed>
  <fix>3d</fix>
</trkpt>
<trkpt lat="-27.274439" lon="151.290064">
  <ele>343.1</ele>
  <time>2026-09-01T20:03:12Z</time>
  <course>270.0</course>
  <speed>0.0</speed>
  <fix>3d</fix>
</trkpt>
<trkpt lat="-27.2744392" lon="151.2900641">
  <ele>343.12</ele>
  <time>2026-09-01T20:03:12Z</time>
  <course>10.85</course>
  <speed>0.022360679774997897</speed>
  <fix>3d</fix>
</trkpt>
<trkpt lat="-27.274439" lon="151.290064">
  <ele>343.1</ele>
  <time>2026-09-01T20:03:12Z</time>
  <course>270.0</course>
  <speed>0.0</speed>
  <fix>3d</fix>
</trkpt>
<trkpt lat="-27.2744392" lon="151.2900641">
  <ele>343.13</ele>
  <time>2026-09-01T20:03:12Z</time>
  <course>10.85</course>
  <speed>0.022360679774997897</speed>
  <fix>3d</fix>
</trkpt>
<trkpt lat="-27.274439" lon="151.290064">
  <ele>343.1</ele>
  <time>2026-09-01T20:03:12Z</time>
  <course>270.0</course>
  <speed>0.0</speed>
  <fix>3d</fix>
</trkpt>
<trkpt lat="-27.2744392" lon="151.2900641">
  <ele>343.13</ele>
  <time>2026-09-01T20:03:12Z</time>
  <course>10.85</course>
  <speed>0.022360679774997897</speed>
  <fix>3d</fix>
</trkpt>
<trkpt lat="-27.274439" lon="151.290064">
  <ele>343.1</ele>
  <time>2026-09-01T20:03:12Z</time>
  <course>270.0</course>
  <speed>0.0</speed>
  <fix>3d</fix>
</trkpt>
<trkpt lat="-27.2744392" lon="151.2900641">
  <ele>343.13</ele>
  <time>2026-09-01T20:03:12Z</time>
  <course>10.85</course>
  <speed>0.022360679774997897</speed>
  <fix>3d</fix>
</trkpt>
<trkpt lat="-27.274439" lon="151.290064">
  <ele>343.1</ele>
  <time>2026-09-01T20:03:12Z</time>
  <course>270.0</course>
  <speed>0.0</speed>
  <fix>3d</fix>
</trkpt>
<trkpt lat="-27.2744391" lon="151.2900641">
  <ele>343.13</ele>
  <time>2026-09-01T20:03:12Z</time>
  <course>10.85</course>
  <speed>0.022360679774997897</speed>
  <fix>3d</fix>
</trkpt>
<trkpt lat="-27.274439" lon="151.290064">
  <ele>343.1</ele>
  <time>2026-09-01T20:03:12Z</time>
  <course>270.0</course>
  <speed>0.0</speed>
  <fix>3d</fix>
</trkpt>
<trkpt lat="-27.2744392" lon="151.2900641">
  <ele>343.13</ele>
  <time>2026-09-01T20:03:12Z</time>
  <course>10.85</course>
  <speed>0.022360679774997897</speed>
  <fix>3d</fix>
</trkpt>
<trkpt lat="-27.274439" lon="151.290064">
  <ele>343.1</ele>
  <time>2026-09-01T20:03:12Z</time>
  <course>270.0</course>
  <speed>0.0</speed>
  <fix>3d</fix>
</trkpt>
<trkpt lat="-27.2744391" lon="151.2900641">
  <ele>343.13</ele>
  <time>2026-09-01T20:03:12Z</time>
  <course>10.85</course>
  <speed>0.022360679774997897</speed>
  <fix>3d</fix>
</trkpt>
<trkpt lat="-27.274439" lon="151.290064">
  <ele>343.1</ele>
  <time>2026-09-01T20:03:12Z</time>
  <course>270.0</course>
  <speed>0.0</speed>
  <fix>3d</fix>
</trkpt>
<trkpt lat="-27.2744392" lon="151.2900641">
  <ele>343.14</ele>
  <time>2026-09-01T20:03:12Z</time>
  <course>10.85</course>
  <speed>0.022360679774997897</speed>
  <fix>3d</fix>
</trkpt>
<trkpt lat="-27.274439" lon="151.290064">
  <ele>343.1</ele>
  <time>2026-09-01T20:03:12Z</time>
  <course>270.0</course>
  <speed>0.0</speed>
  <fix>3d</fix>
</trkpt>
<trkpt lat="-27.2744391" lon="151.2900641">
  <ele>343.14</ele>
  <time>2026-09-01T20:03:12Z</time>
  <course>10.86</course>
  <speed>0.022360679774997897</speed>
  <fix>3d</fix>
</trkpt>
<trkpt lat="-27.274439" lon="151.290064">
  <ele>343.1</ele>
  <time>2026-09-01T20:03:12Z</time>
  <course>270.0</course>
  <speed>0.0</speed>
  <fix>3d</fix>
</trkpt>
<trkpt lat="-27.2744392" lon="151.2900641">
  <ele>343.14</ele>
  <time>2026-09-01T20:03:12Z</time>
  <course>10.86</course>
  <speed>0.022360679774997897</speed>
  <fix>3d</fix>
</trkpt>
<trkpt lat="-27.274439" lon="151.290064">
  <ele>343.1</ele>
  <time>2026-09-01T20:03:12Z</time>
  <course>270.0</course>
  <speed>0.0</speed>
  <fix>3d</fix>
</trkpt>
<trkpt lat="-27.2744392" lon="151.2900641">
  <ele>343.14</ele>
  <time>2026-09-01T20:03:12Z</time>
  <course>10.86</course>
  <speed>0.022360679774997897</speed>
  <fix>3d</fix>
</trkpt>
<trkpt lat="-27.274439" lon="151.290064">
  <ele>343.1</ele>
  <time>2026-09-01T20:03:12Z</time>
  <course>270.0</course>
  <speed>0.0</speed>
  <fix>3d</fix>
</trkpt>
<trkpt lat="-27.2744392" lon="151.2900641">
  <ele>343.14</ele>
  <time>2026-09-01T20:03:12Z</time>
  <course>10.86</course>
  <speed>0.022360679774997897</speed>
  <fix>3d</fix>
</trkpt>
<trkpt lat="-27.274439" lon="151.290064">
  <ele>343.1</ele>
  <time>2026-09-01T20:03:12Z</time>
  <course>270.0</course>
  <speed>0.0</speed>
  <fix>3d</fix>
</trkpt>
<trkpt lat="-27.2744392" lon="151.2900641">
  <ele>343.14</ele>
  <time>2026-09-01T20:03:12Z</time>
  <course>10.86</course>
  <speed>0.022360679774997897</speed>
  <fix>3d</fix>
</trkpt>
<trkpt lat="-27.274439" lon="151.290064">
  <ele>343.1</ele>
  <time>2026-09-01T20:03:12Z</time>
  <course>270.0</course>
  <speed>0.0</speed>
  <fix>3d</fix>
</trkpt>
<trkpt lat="-27.2744392" lon="151.2900641">
  <ele>343.14</ele>
  <time>2026-09-01T20:03:12Z</time>
  <course>10.86</course>
  <speed>0.022360679774997897</speed>
  <fix>3d</fix>
</trkpt>
<trkpt lat="-27.274439" lon="151.290064">
  <ele>343.1</ele>
  <time>2026-09-01T20:03:12Z</time>
  <course>270.0</course>
  <speed>0.0</speed>
  <fix>3d</fix>
</trkpt>
<trkpt lat="-27.2744391" lon="151.2900641">
  <ele>343.15</ele>
  <time>2026-09-01T20:03:12Z</time>
  <course>10.86</course>
  <speed>0.022360679774997897</speed>
  <fix>3d</fix>
</trkpt>
<trkpt lat="-27.274439" lon="151.290064">
  <ele>343.1</ele>
  <time>2026-09-01T20:03:12Z</time>
  <course>270.0</course>
  <speed>0.0</speed>
  <fix>3d</fix>
</trkpt>
<trkpt lat="-27.2744392" lon="151.2900641">
  <ele>343.15</ele>
  <time>2026-09-01T20:03:12Z</time>
  <course>10.86</course>
  <speed>0.022360679774997897</speed>
  <fix>3d</fix>
</trkpt>
<trkpt lat="-27.274439" lon="151.290064">
  <ele>343.1</ele>
  <time>2026-09-01T20:03:12Z</time>
  <course>270.0</course>
  <speed>0.0</speed>
  <fix>3d</fix>
</trkpt>
<trkpt lat="-27.2744391" lon="151.2900641">
  <ele>343.15</ele>
  <time>2026-09-01T20:03:12Z</time>
  <course>10.86</course>
  <speed>0.022360679774997897</speed>
  <fix>3d</fix>
</trkpt>
<trkpt lat="-27.274439" lon="151.290064">
  <ele>343.1</ele>
  <time>2026-09-01T20:03:12Z</time>
  <course>270.0</course>
  <speed>0.0</speed>
  <fix>3d</fix>
</trkpt>
<trkpt lat="-27.2744392" lon="151.2900641">
  <ele>343.15</ele>
  <time>2026-09-01T20:03:12Z</time>
  <course>10.86</course>
  <speed>0.022360679774997897</speed>
  <fix>3d</fix>
</trkpt>
<trkpt lat="-27.274439" lon="151.290064">
  <ele>343.1</ele>
  <time>2026-09-01T20:03:12Z</time>
  <course>270.0</course>
  <speed>0.0</speed>
  <fix>3d</fix>
</trkpt>
<trkpt lat="-27.2744391" lon="151.2900641">
  <ele>343.16</ele>
  <time>2026-09-01T20:03:12Z</time>
  <course>10.86</course>
  <speed>0.022360679774997897</speed>
  <fix>3d</fix>
</trkpt>
<trkpt lat="-27.274439" lon="151.290064">
  <ele>343.1</ele>
  <time>2026-09-01T20:03:12Z</time>
  <course>270.0</course>
  <speed>0.0</speed>
  <fix>3d</fix>
</trkpt>
<trkpt lat="-27.2744392" lon="151.2900641">
  <ele>343.16</ele>
  <time>2026-09-01T20:03:12Z</time>
  <course>10.86</course>
  <speed>0.022360679774997897</speed>
  <fix>3d</fix>
</trkpt>
<trkpt lat="-27.274439" lon="151.290064">
  <ele>343.1</ele>
  <time>2026-09-01T20:03:12Z</time>
  <course>270.0</course>
  <speed>0.0</speed>
  <fix>3d</fix>
</trkpt>
<trkpt lat="-27.2744392" lon="151.2900641">
  <ele>343.16</ele>
  <time>2026-09-01T20:03:12Z</time>
  <course>10.86</course>
  <speed>0.022360679774997897</speed>
  <fix>3d</fix>
</trkpt>
<trkpt lat="-27.274439" lon="151.290064">
  <ele>343.1</ele>
  <time>2026-09-01T20:03:12Z</time>
  <course>270.0</course>
  <speed>0.0</speed>
  <fix>3d</fix>
</trkpt>
<trkpt lat="-27.2744392" lon="151.2900641">
  <ele>343.16</ele>
  <time>2026-09-01T20:03:12Z</time>
  <course>10.86</course>
  <speed>0.022360679774997897</speed>
  <fix>3d</fix>
</trkpt>
<trkpt lat="-27.274439" lon="151.290064">
  <ele>343.1</ele>
  <time>2026-09-01T20:03:12Z</time>
  <course>270.0</course>
  <speed>0.0</speed>
  <fix>3d</fix>
</trkpt>
<trkpt lat="-27.2744392" lon="151.2900641">
  <ele>343.16</ele>
  <time>2026-09-01T20:03:12Z</time>
  <course>10.87</course>
  <speed>0.022360679774997897</speed>
  <fix>3d</fix>
</trkpt>
<trkpt lat="-27.274439" lon="151.290064">
  <ele>343.1</ele>
  <time>2026-09-01T20:03:12Z</time>
  <course>270.0</course>
  <speed>0.0</speed>
  <fix>3d</fix>
</trkpt>
<trkpt lat="-27.2744392" lon="151.2900641">
  <ele>343.16</ele>
  <time>2026-09-01T20:03:12Z</time>
  <course>10.87</course>
  <speed>0.022360679774997897</speed>
  <fix>3d</fix>
</trkpt>
<trkpt lat="-27.274439" lon="151.290064">
  <ele>343.1</ele>
  <time>2026-09-01T20:03:12Z</time>
  <course>270.0</course>
  <speed>0.0</speed>
  <fix>3d</fix>
</trkpt>
<trkpt lat="-27.2744392" lon="151.2900641">
  <ele>343.15</ele>
  <time>2026-09-01T20:03:12Z</time>
  <course>10.87</course>
  <speed>0.022360679774997897</speed>
  <fix>3d</fix>
</trkpt>
<trkpt lat="-27.274439" lon="151.290064">
  <ele>343.1</ele>
  <time>2026-09-01T20:03:12Z</time>
  <course>270.0</course>
  <speed>0.0</speed>
  <fix>3d</fix>
</trkpt>
<trkpt lat="-27.2744392" lon="151.2900641">
  <ele>343.15</ele>
  <time>2026-09-01T20:03:12Z</time>
  <course>10.87</course>
  <speed>0.022360679774997897</speed>
  <fix>3d</fix>
</trkpt>
<trkpt lat="-27.274439" lon="151.290064">
  <ele>343.1</ele>
  <time>2026-09-01T20:03:12Z</time>
  <course>270.0</course>
  <speed>0.0</speed>
  <fix>3d</fix>
</trkpt>
<trkpt lat="-27.2744392" lon="151.2900641">
  <ele>343.15</ele>
  <time>2026-09-01T20:03:12Z</time>
  <course>10.87</course>
  <speed>0.022360679774997897</speed>
  <fix>3d</fix>
</trkpt>
<trkpt lat="-27.274439" lon="151.290064">
  <ele>343.1</ele>
  <time>2026-09-01T20:03:12Z</time>
  <course>270.0</course>
  <speed>0.0</speed>
  <fix>3d</fix>
</trkpt>
<trkpt lat="-27.2744392" lon="151.2900641">
  <ele>343.15</ele>
  <time>2026-09-01T20:03:12Z</time>
  <course>10.87</course>
  <speed>0.022360679774997897</speed>
  <fix>3d</fix>
</trkpt>
<trkpt lat="-27.274439" lon="151.290064">
  <ele>343.1</ele>
  <time>2026-09-01T20:03:12Z</time>
  <course>270.0</course>
  <speed>0.0</speed>
  <fix>3d</fix>
</trkpt>
<trkpt lat="-27.2744392" lon="151.2900641">
  <ele>343.1</ele>
  <time>2026-09-01T20:03:12Z</time>
  <course>10.87</course>
  <speed>0.022360679774997897</speed>
  <fix>3d</fix>
</trkpt>
<trkpt lat="-27.274439" lon="151.290064">
  <ele>343.1</ele>
  <time>2026-09-01T20:03:12Z</time>
  <course>270.0</course>
  <speed>0.0</speed>
  <fix>3d</fix>
</trkpt>
<trkpt lat="-27.2744392" lon="151.2900641">
  <ele>343.1</ele>
  <time>2026-09-01T20:03:12Z</time>
  <course>10.87</course>
  <speed>0.022360679774997897</speed>
  <fix>3d</fix>
</trkpt>
<trkpt lat="-27.274439" lon="151.290064">
  <ele>343.1</ele>
  <time>2026-09-01T20:03:12Z</time>
  <course>270.0</course>
  <speed>0.0</speed>
  <fix>3d</fix>
</trkpt>
<trkpt lat="-27.2744392" lon="151.2900641">
  <ele>343.1</ele>
  <time>2026-09-01T20:03:12Z</time>
  <course>10.87</course>
  <speed>0.022360679774997897</speed>
  <fix>3d</fix>
</trkpt>
<trkpt lat="-27.274439" lon="151.290064">
  <ele>343.1</ele>
  <time>2026-09-01T20:03:12Z</time>
  <course>270.0</course>
  <speed>0.0</speed>
  <fix>3d</fix>
</trkpt>
<trkpt lat="-27.2744392" lon="151.2900641">
  <ele>343.1</ele>
  <time>2026-09-01T20:03:12Z</time>
  <course>10.87</course>
  <speed>0.022360679774997897</speed>
  <fix>3d</fix>
</trkpt>
<trkpt lat="-27.274439" lon="151.290064">
  <ele>343.1</ele>
  <time>2026-09-01T20:03:12Z</time>
  <course>270.0</course>
  <speed>0.0</speed>
  <fix>3d</fix>
</trkpt>
<trkpt lat="-27.2744392" lon="151.2900641">
  <ele>343.1</ele>
  <time>2026-09-01T20:03:12Z</time>
  <course>10.87</course>
  <speed>0.022360679774997897</speed>
  <fix>3d</fix>
</trkpt>
<trkpt lat="-27.274439" lon="151.290064">
  <ele>343.1</ele>
  <time>2026-09-01T20:03:12Z</time>
  <course>270.0</course>
  <speed>0.0</speed>
  <fix>3d</fix>
</trkpt>
<trkpt lat="-27.2744392" lon="151.2900641">
  <ele>343.1</ele>
  <time>2026-09-01T20:03:12Z</time>
  <course>10.87</course>
  <speed>0.022360679774997897</speed>
  <fix>3d</fix>
</trkpt>
<trkpt lat="-27.274439" lon="151.290064">
  <ele>343.1</ele>
  <time>2026-09-01T20:03:12Z</time>
  <course>270.0</course>
  <speed>0.0</speed>
  <fix>3d</fix>
</trkpt>
<trkpt lat="-27.2744392" lon="151.2900641">
  <ele>343.1</ele>
  <time>2026-09-01T20:03:12Z</time>
  <course>10.87</course>
  <speed>0.022360679774997897</speed>
  <fix>3d</fix>
</trkpt>
<trkpt lat="-27.274439" lon="151.290064">
  <ele>343.1</ele>
  <time>2026-09-01T20:03:12Z</time>
  <course>270.0</course>
  <speed>0.0</speed>
  <fix>3d</fix>
</trkpt>
<trkpt lat="-27.2744392" lon="151.2900641">
  <ele>343.1</ele>
  <time>2026-09-01T20:03:12Z</time>
  <course>10.88</course>
  <speed>0.022360679774997897</speed>
  <fix>3d</fix>
</trkpt>
<trkpt lat="-27.274439" lon="151.290064">
  <ele>343.1</ele>
  <time>2026-09-01T20:03:12Z</time>
  <course>270.0</course>
  <speed>0.0</speed>
  <fix>3d</fix>
</trkpt>
<trkpt lat="-27.2744392" lon="151.2900641">
  <ele>343.1</ele>
  <time>2026-09-01T20:03:12Z</time>
  <course>10.88</course>
  <speed>0.022360679774997897</speed>
  <fix>3d</fix>
</trkpt>
<trkpt lat="-27.274439" lon="151.290064">
  <ele>343.1</ele>
  <time>2026-09-01T20:03:12Z</time>
  <course>270.0</course>
  <speed>0.0</speed>
  <fix>3d</fix>
</trkpt>
<trkpt lat="-27.2744392" lon="151.2900641">
  <ele>343.1</ele>
  <time>2026-09-01T20:03:12Z</time>
  <course>10.88</course>
  <speed>0.022360679774997897</speed>
  <fix>3d</fix>
</trkpt>
<trkpt lat="-27.274439" lon="151.290064">
  <ele>343.1</ele>
  <time>2026-09-01T20:03:12Z</time>
  <course>270.0</course>
  <speed>0.0</speed>
  <fix>3d</fix>
</trkpt>
<trkpt lat="-27.2744392" lon="151.2900641">
  <ele>343.1</ele>
  <time>2026-09-01T20:03:12Z</time>
  <course>10.88</course>
  <speed>0.022360679774997897</speed>
  <fix>3d</fix>
</trkpt>
<trkpt lat="-27.274439" lon="151.290064">
  <ele>343.1</ele>
  <time>2026-09-01T20:03:12Z</time>
  <course>270.0</course>
  <speed>0.0</speed>
  <fix>3d</fix>
</trkpt>
<trkpt lat="-27.2744392" lon="151.2900641">
  <ele>343.11</ele>
  <time>2026-09-01T20:03:12Z</time>
  <course>10.88</course>
  <speed>0.022360679774997897</speed>
  <fix>3d</fix>
</trkpt>
<trkpt lat="-27.274439" lon="151.290064">
  <ele>343.1</ele>
  <time>2026-09-01T20:03:12Z</time>
  <course>270.0</course>
  <speed>0.0</speed>
  <fix>3d</fix>
</trkpt>
<trkpt lat="-27.2744392" lon="151.2900641">
  <ele>343.11</ele>
  <time>2026-09-01T20:03:12Z</time>
  <course>10.88</course>
  <speed>0.022360679774997897</speed>
  <fix>3d</fix>
</trkpt>
<trkpt lat="-27.274439" lon="151.290064">
  <ele>343.1</ele>
  <time>2026-09-01T20:03:12Z</time>
  <course>270.0</course>
  <speed>0.0</speed>
  <fix>3d</fix>
</trkpt>
<trkpt lat="-27.2744392" lon="151.2900641">
  <ele>343.11</ele>
  <time>2026-09-01T20:03:12Z</time>
  <course>10.88</course>
  <speed>0.022360679774997897</speed>
  <fix>3d</fix>
</trkpt>
<trkpt lat="-27.274439" lon="151.290064">
  <ele>343.1</ele>
  <time>2026-09-01T20:03:12Z</time>
  <course>270.0</course>
  <speed>0.0</speed>
  <fix>3d</fix>
</trkpt>
<trkpt lat="-27.2744392" lon="151.2900641">
  <ele>343.11</ele>
  <time>2026-09-01T20:03:12Z</time>
  <course>10.88</course>
  <speed>0.022360679774997897</speed>
  <fix>3d</fix>
</trkpt>
<trkpt lat="-27.274439" lon="151.290064">
  <ele>343.1</ele>
  <time>2026-09-01T20:03:12Z</time>
  <course>270.0</course>
  <speed>0.0</speed>
  <fix>3d</fix>
</trkpt>
<trkpt lat="-27.2744392" lon="151.2900641">
  <ele>343.1</ele>
  <time>2026-09-01T20:03:12Z</time>
  <course>10.88</course>
  <speed>0.022360679774997897</speed>
  <fix>3d</fix>
</trkpt>
<trkpt lat="-27.274439" lon="151.290064">
  <ele>343.1</ele>
  <time>2026-09-01T20:03:12Z</time>
  <course>270.0</course>
  <speed>0.0</speed>
  <fix>3d</fix>
</trkpt>
<trkpt lat="-27.2744392" lon="151.2900641">
  <ele>343.1</ele>
  <time>2026-09-01T20:03:12Z</time>
  <course>10.88</course>
  <speed>0.022360679774997897</speed>
  <fix>3d</fix>
</trkpt>
<trkpt lat="-27.274439" lon="151.290064">
  <ele>343.1</ele>
  <time>2026-09-01T20:03:12Z</time>
  <course>270.0</course>
  <speed>0.0</speed>
  <fix>3d</fix>
</trkpt>
<trkpt lat="-27.2744392" lon="151.2900641">
  <ele>343.1</ele>
  <time>2026-09-01T20:03:12Z</time>
  <course>10.88</course>
  <speed>0.022360679774997897</speed>
  <fix>3d</fix>
</trkpt>
<trkpt lat="-27.274439" lon="151.290064">
  <ele>343.1</ele>
  <time>2026-09-01T20:03:12Z</time>
  <course>270.0</course>
  <speed>0.0</speed>
  <fix>3d</fix>
</trkpt>
<trkpt lat="-27.2744392" lon="151.2900641">
  <ele>343.1</ele>
  <time>2026-09-01T20:03:12Z</time>
  <course>10.88</course>
  <speed>0.022360679774997897</speed>
  <fix>3d</fix>
</trkpt>
<trkpt lat="-27.274439" lon="151.290064">
  <ele>343.1</ele>
  <time>2026-09-01T20:03:12Z</time>
  <course>270.0</course>
  <speed>0.0</speed>
  <fix>3d</fix>
</trkpt>
<trkpt lat="-27.2744392" lon="151.2900641">
  <ele>343.1</ele>
  <time>2026-09-01T20:03:12Z</time>
  <course>10.88</course>
  <speed>0.022360679774997897</speed>
  <fix>3d</fix>
</trkpt>
<trkpt lat="-27.274439" lon="151.290064">
  <ele>343.1</ele>
  <time>2026-09-01T20:03:12Z</time>
  <course>270.0</course>
  <speed>0.0</speed>
  <fix>3d</fix>
</trkpt>
<trkpt lat="-27.2744392" lon="151.2900641">
  <ele>343.1</ele>
  <time>2026-09-01T20:03:12Z</time>
  <course>10.89</course>
  <speed>0.022360679774997897</speed>
  <fix>3d</fix>
</trkpt>
<trkpt lat="-27.274439" lon="151.290064">
  <ele>343.1</ele>
  <time>2026-09-01T20:03:12Z</time>
  <course>270.0</course>
  <speed>0.0</speed>
  <fix>3d</fix>
</trkpt>
<trkpt lat="-27.2744392" lon="151.2900641">
  <ele>343.1</ele>
  <time>2026-09-01T20:03:12Z</time>
  <course>10.89</course>
  <speed>0.022360679774997897</speed>
  <fix>3d</fix>
</trkpt>
<trkpt lat="-27.274439" lon="151.290064">
  <ele>343.1</ele>
  <time>2026-09-01T20:03:12Z</time>
  <course>270.0</course>
  <speed>0.0</speed>
  <fix>3d</fix>
</trkpt>
<trkpt lat="-27.2744392" lon="151.2900641">
  <ele>343.1</ele>
  <time>2026-09-01T20:03:12Z</time>
  <course>10.89</course>
  <speed>0.022360679774997897</speed>
  <fix>3d</fix>
</trkpt>
<trkpt lat="-27.274439" lon="151.290064">
  <ele>343.1</ele>
  <time>2026-09-01T20:03:12Z</time>
  <course>270.0</course>
  <speed>0.0</speed>
  <fix>3d</fix>
</trkpt>
<trkpt lat="-27.2744392" lon="151.2900641">
  <ele>343.1</ele>
  <time>2026-09-01T20:03:12Z</time>
  <course>10.89</course>
  <speed>0.022360679774997897</speed>
  <fix>3d</fix>
</trkpt>
<trkpt lat="-27.274439" lon="151.290064">
  <ele>343.1</ele>
  <time>2026-09-01T20:03:12Z</time>
  <course>270.0</course>
  <speed>0.0</speed>
  <fix>3d</fix>
</trkpt>
<trkpt lat="-27.2744392" lon="151.2900641">
  <ele>343.11</ele>
  <time>2026-09-01T20:03:12Z</time>
  <course>10.89</course>
  <speed>0.022360679774997897</speed>
  <fix>3d</fix>
</trkpt>
<trkpt lat="-27.274439" lon="151.290064">
  <ele>343.1</ele>
  <time>2026-09-01T20:03:12Z</time>
  <course>270.0</course>
  <speed>0.0</speed>
  <fix>3d</fix>
</trkpt>
<trkpt lat="-27.2744392" lon="151.2900641">
  <ele>343.11</ele>
  <time>2026-09-01T20:03:12Z</time>
  <course>10.89</course>
  <speed>0.022360679774997897</speed>
  <fix>3d</fix>
</trkpt>
<trkpt lat="-27.274439" lon="151.290064">
  <ele>343.1</ele>
  <time>2026-09-01T20:03:12Z</time>
  <course>270.0</course>
  <speed>0.0</speed>
  <fix>3d</fix>
</trkpt>
<trkpt lat="-27.2744392" lon="151.2900641">
  <ele>343.11</ele>
  <time>2026-09-01T20:03:12Z</time>
  <course>10.89</course>
  <speed>0.022360679774997897</speed>
  <fix>3d</fix>
</trkpt>
<trkpt lat="-27.274439" lon="151.290064">
  <ele>343.1</ele>
  <time>2026-09-01T20:03:12Z</time>
  <course>270.0</course>
  <speed>0.0</speed>
  <fix>3d</fix>
</trkpt>
<trkpt lat="-27.2744392" lon="151.2900641">
  <ele>343.11</ele>
  <time>2026-09-01T20:03:12Z</time>
  <course>10.89</course>
  <speed>0.022360679774997897</speed>
  <fix>3d</fix>
</trkpt>
<trkpt lat="-27.274439" lon="151.290064">
  <ele>343.1</ele>
  <time>2026-09-01T20:03:12Z</time>
  <course>270.0</course>
  <speed>0.0</speed>
  <fix>3d</fix>
</trkpt>
<trkpt lat="-27.2744392" lon="151.2900641">
  <ele>343.11</ele>
  <time>2026-09-01T20:03:12Z</time>
  <course>10.89</course>
  <speed>0.022360679774997897</speed>
  <fix>3d</fix>
</trkpt>
<trkpt lat="-27.274439" lon="151.290064">
  <ele>343.1</ele>
  <time>2026-09-01T20:03:12Z</time>
  <course>270.0</course>
  <speed>0.0</speed>
  <fix>3d</fix>
</trkpt>
<trkpt lat="-27.2744392" lon="151.2900641">
  <ele>343.12</ele>
  <time>2026-09-01T20:03:12Z</time>
  <course>10.89</course>
  <speed>0.022360679774997897</speed>
  <fix>3d</fix>
</trkpt>
<trkpt lat="-27.274439" lon="151.290064">
  <ele>343.1</ele>
  <time>2026-09-01T20:03:12Z</time>
  <course>270.0</course>
  <speed>0.0</speed>
  <fix>3d</fix>
</trkpt>
<trkpt lat="-27.2744392" lon="151.2900641">
  <ele>343.12</ele>
  <time>2026-09-01T20:03:12Z</time>
  <course>10.89</course>
  <speed>0.022360679774997897</speed>
  <fix>3d</fix>
</trkpt>
<trkpt lat="-27.274439" lon="151.290064">
  <ele>343.1</ele>
  <time>2026-09-01T20:03:12Z</time>
  <course>270.0</course>
  <speed>0.0</speed>
  <fix>3d</fix>
</trkpt>
<trkpt lat="-27.2744392" lon="151.2900641">
  <ele>343.12</ele>
  <time>2026-09-01T20:03:12Z</time>
  <course>10.89</course>
  <speed>0.022360679774997897</speed>
  <fix>3d</fix>
</trkpt>
<trkpt lat="-27.274439" lon="151.290064">
  <ele>343.1</ele>
  <time>2026-09-01T20:03:12Z</time>
  <course>270.0</course>
  <speed>0.0</speed>
  <fix>3d</fix>
</trkpt>
<trkpt lat="-27.2744392" lon="151.2900641">
  <ele>343.12</ele>
  <time>2026-09-01T20:03:12Z</time>
  <course>10.9</course>
  <speed>0.022360679774997897</speed>
  <fix>3d</fix>
</trkpt>
<trkpt lat="-27.274439" lon="151.290064">
  <ele>343.1</ele>
  <time>2026-09-01T20:03:12Z</time>
  <course>270.0</course>
  <speed>0.0</speed>
  <fix>3d</fix>
</trkpt>
<trkpt lat="-27.2744392" lon="151.2900641">
  <ele>343.12</ele>
  <time>2026-09-01T20:03:12Z</time>
  <course>10.9</course>
  <speed>0.022360679774997897</speed>
  <fix>3d</fix>
</trkpt>
<trkpt lat="-27.274439" lon="151.290064">
  <ele>343.1</ele>
  <time>2026-09-01T20:03:12Z</time>
  <course>270.0</course>
  <speed>0.0</speed>
  <fix>3d</fix>
</trkpt>
<trkpt lat="-27.2744392" lon="151.2900641">
  <ele>343.12</ele>
  <time>2026-09-01T20:03:12Z</time>
  <course>10.9</course>
  <speed>0.022360679774997897</speed>
  <fix>3d</fix>
</trkpt>
<trkpt lat="-27.274439" lon="151.290064">
  <ele>343.1</ele>
  <time>2026-09-01T20:03:12Z</time>
  <course>270.0</course>
  <speed>0.0</speed>
  <fix>3d</fix>
</trkpt>
<trkpt lat="-27.2744392" lon="151.2900641">
  <ele>343.12</ele>
  <time>2026-09-01T20:03:12Z</time>
  <course>10.9</course>
  <speed>0.022360679774997897</speed>
  <fix>3d</fix>
</trkpt>
<trkpt lat="-27.274439" lon="151.290064">
  <ele>343.1</ele>
  <time>2026-09-01T20:03:12Z</time>
  <course>270.0</course>
  <speed>0.0</speed>
  <fix>3d</fix>
</trkpt>
<trkpt lat="-27.2744392" lon="151.2900641">
  <ele>343.12</ele>
  <time>2026-09-01T20:03:12Z</time>
  <course>10.9</course>
  <speed>0.022360679774997897</speed>
  <fix>3d</fix>
</trkpt>
<trkpt lat="-27.274439" lon="151.290064">
  <ele>343.1</ele>
  <time>2026-09-01T20:03:12Z</time>
  <course>270.0</course>
  <speed>0.0</speed>
  <fix>3d</fix>
</trkpt>
<trkpt lat="-27.2744392" lon="151.2900641">
  <ele>343.12</ele>
  <time>2026-09-01T20:03:12Z</time>
  <course>10.9</course>
  <speed>0.022360679774997897</speed>
  <fix>3d</fix>
</trkpt>
<trkpt lat="-27.274439" lon="151.290064">
  <ele>343.1</ele>
  <time>2026-09-01T20:03:12Z</time>
  <course>270.0</course>
  <speed>0.0</speed>
  <fix>3d</fix>
</trkpt>
<trkpt lat="-27.2744392" lon="151.2900641">
  <ele>343.12</ele>
  <time>2026-09-01T20:03:12Z</time>
  <course>10.9</course>
  <speed>0.022360679774997897</speed>
  <fix>3d</fix>
</trkpt>
<trkpt lat="-27.274439" lon="151.290064">
  <ele>343.1</ele>
  <time>2026-09-01T20:03:12Z</time>
  <course>270.0</course>
  <speed>0.0</speed>
  <fix>3d</fix>
</trkpt>
<trkpt lat="-27.2744392" lon="151.2900641">
  <ele>343.12</ele>
  <time>2026-09-01T20:03:12Z</time>
  <course>10.9</course>
  <speed>0.022360679774997897</speed>
  <fix>3d</fix>
</trkpt>
<trkpt lat="-27.274439" lon="151.290064">
  <ele>343.1</ele>
  <time>2026-09-01T20:03:12Z</time>
  <course>270.0</course>
  <speed>0.0</speed>
  <fix>3d</fix>
</trkpt>
<trkpt lat="-27.2744392" lon="151.2900641">
  <ele>343.12</ele>
  <time>2026-09-01T20:03:12Z</time>
  <course>10.9</course>
  <speed>0.022360679774997897</speed>
  <fix>3d</fix>
</trkpt>
<trkpt lat="-27.274439" lon="151.290064">
  <ele>343.1</ele>
  <time>2026-09-01T20:03:12Z</time>
  <course>270.0</course>
  <speed>0.0</speed>
  <fix>3d</fix>
</trkpt>
<trkpt lat="-27.2744392" lon="151.2900641">
  <ele>343.12</ele>
  <time>2026-09-01T20:03:12Z</time>
  <course>10.9</course>
  <speed>0.022360679774997897</speed>
  <fix>3d</fix>
</trkpt>
<trkpt lat="-27.274439" lon="151.290064">
  <ele>343.1</ele>
  <time>2026-09-01T20:03:12Z</time>
  <course>270.0</course>
  <speed>0.0</speed>
  <fix>3d</fix>
</trkpt>
<trkpt lat="-27.2744392" lon="151.2900641">
  <ele>343.12</ele>
  <time>2026-09-01T20:03:12Z</time>
  <course>10.9</course>
  <speed>0.022360679774997897</speed>
  <fix>3d</fix>
</trkpt>
<trkpt lat="-27.274439" lon="151.290064">
  <ele>343.1</ele>
  <time>2026-09-01T20:03:12Z</time>
  <course>270.0</course>
  <speed>0.0</speed>
  <fix>3d</fix>
</trkpt>
<trkpt lat="-27.2744392" lon="151.2900641">
  <ele>343.13</ele>
  <time>2026-09-01T20:03:12Z</time>
  <course>10.9</course>
  <speed>0.022360679774997897</speed>
  <fix>3d</fix>
</trkpt>
<trkpt lat="-27.274439" lon="151.290064">
  <ele>343.1</ele>
  <time>2026-09-01T20:03:12Z</time>
  <course>270.0</course>
  <speed>0.0</speed>
  <fix>3d</fix>
</trkpt>
<trkpt lat="-27.2744392" lon="151.2900641">
  <ele>343.13</ele>
  <time>2026-09-01T20:03:12Z</time>
  <course>10.9</course>
  <speed>0.022360679774997897</speed>
  <fix>3d</fix>
</trkpt>
<trkpt lat="-27.274439" lon="151.290064">
  <ele>343.1</ele>
  <time>2026-09-01T20:03:12Z</time>
  <course>270.0</course>
  <speed>0.0</speed>
  <fix>3d</fix>
</trkpt>
<trkpt lat="-27.2744392" lon="151.2900641">
  <ele>343.12</ele>
  <time>2026-09-01T20:03:12Z</time>
  <course>10.91</course>
  <speed>0.022360679774997897</speed>
  <fix>3d</fix>
</trkpt>
<trkpt lat="-27.274439" lon="151.290064">
  <ele>343.1</ele>
  <time>2026-09-01T20:03:12Z</time>
  <course>270.0</course>
  <speed>0.0</speed>
  <fix>3d</fix>
</trkpt>
<trkpt lat="-27.2744392" lon="151.2900641">
  <ele>343.13</ele>
  <time>2026-09-01T20:03:12Z</time>
  <course>10.91</course>
  <speed>0.022360679774997897</speed>
  <fix>3d</fix>
</trkpt>
<trkpt lat="-27.274439" lon="151.290064">
  <ele>343.1</ele>
  <time>2026-09-01T20:03:12Z</time>
  <course>270.0</course>
  <speed>0.0</speed>
  <fix>3d</fix>
</trkpt>
<trkpt lat="-27.2744392" lon="151.2900641">
  <ele>343.13</ele>
  <time>2026-09-01T20:03:12Z</time>
  <course>10.91</course>
  <speed>0.022360679774997897</speed>
  <fix>3d</fix>
</trkpt>
<trkpt lat="-27.274439" lon="151.290064">
  <ele>343.1</ele>
  <time>2026-09-01T20:03:12Z</time>
  <course>270.0</course>
  <speed>0.0</speed>
  <fix>3d</fix>
</trkpt>
<trkpt lat="-27.2744392" lon="151.2900641">
  <ele>343.13</ele>
  <time>2026-09-01T20:03:12Z</time>
  <course>10.91</course>
  <speed>0.022360679774997897</speed>
  <fix>3d</fix>
</trkpt>
<trkpt lat="-27.274439" lon="151.290064">
  <ele>343.1</ele>
  <time>2026-09-01T20:03:12Z</time>
  <course>270.0</course>
  <speed>0.0</speed>
  <fix>3d</fix>
</trkpt>
<trkpt lat="-27.2744392" lon="151.2900641">
  <ele>343.13</ele>
  <time>2026-09-01T20:03:12Z</time>
  <course>10.91</course>
  <speed>0.022360679774997897</speed>
  <fix>3d</fix>
</trkpt>
<trkpt lat="-27.274439" lon="151.290064">
  <ele>343.1</ele>
  <time>2026-09-01T20:03:12Z</time>
  <course>270.0</course>
  <speed>0.0</speed>
  <fix>3d</fix>
</trkpt>
<trkpt lat="-27.2744392" lon="151.2900641">
  <ele>343.12</ele>
  <time>2026-09-01T20:03:12Z</time>
  <course>10.91</course>
  <speed>0.022360679774997897</speed>
  <fix>3d</fix>
</trkpt>
<trkpt lat="-27.274439" lon="151.290064">
  <ele>343.1</ele>
  <time>2026-09-01T20:03:12Z</time>
  <course>270.0</course>
  <speed>0.0</speed>
  <fix>3d</fix>
</trkpt>
<trkpt lat="-27.2744392" lon="151.2900641">
  <ele>343.12</ele>
  <time>2026-09-01T20:03:12Z</time>
  <course>10.91</course>
  <speed>0.022360679774997897</speed>
  <fix>3d</fix>
</trkpt>
<trkpt lat="-27.274439" lon="151.290064">
  <ele>343.1</ele>
  <time>2026-09-01T20:03:12Z</time>
  <course>270.0</course>
  <speed>0.0</speed>
  <fix>3d</fix>
</trkpt>
<trkpt lat="-27.2744392" lon="151.2900641">
  <ele>343.12</ele>
  <time>2026-09-01T20:03:12Z</time>
  <course>10.91</course>
  <speed>0.022360679774997897</speed>
  <fix>3d</fix>
</trkpt>
<trkpt lat="-27.274439" lon="151.290064">
  <ele>343.1</ele>
  <time>2026-09-01T20:03:12Z</time>
  <course>270.0</course>
  <speed>0.0</speed>
  <fix>3d</fix>
</trkpt>
<trkpt lat="-27.2744392" lon="151.2900641">
  <ele>343.12</ele>
  <time>2026-09-01T20:03:12Z</time>
  <course>10.91</course>
  <speed>0.022360679774997897</speed>
  <fix>3d</fix>
</trkpt>
<trkpt lat="-27.274439" lon="151.290064">
  <ele>343.1</ele>
  <time>2026-09-01T20:03:12Z</time>
  <course>270.0</course>
  <speed>0.0</speed>
  <fix>3d</fix>
</trkpt>
<trkpt lat="-27.2744392" lon="151.2900641">
  <ele>343.13</ele>
  <time>2026-09-01T20:03:12Z</time>
  <course>10.91</course>
  <speed>0.022360679774997897</speed>
  <fix>3d</fix>
</trkpt>
<trkpt lat="-27.274439" lon="151.290064">
  <ele>343.1</ele>
  <time>2026-09-01T20:03:12Z</time>
  <course>270.0</course>
  <speed>0.0</speed>
  <fix>3d</fix>
</trkpt>
<trkpt lat="-27.2744392" lon="151.2900641">
  <ele>343.13</ele>
  <time>2026-09-01T20:03:12Z</time>
  <course>10.91</course>
  <speed>0.022360679774997897</speed>
  <fix>3d</fix>
</trkpt>
<trkpt lat="-27.274439" lon="151.290064">
  <ele>343.1</ele>
  <time>2026-09-01T20:03:12Z</time>
  <course>270.0</course>
  <speed>0.0</speed>
  <fix>3d</fix>
</trkpt>
<trkpt lat="-27.2744392" lon="151.2900641">
  <ele>343.13</ele>
  <time>2026-09-01T20:03:12Z</time>
  <course>10.91</course>
  <speed>0.022360679774997897</speed>
  <fix>3d</fix>
</trkpt>
<trkpt lat="-27.274439" lon="151.290064">
  <ele>343.1</ele>
  <time>2026-09-01T20:03:12Z</time>
  <course>270.0</course>
  <speed>0.0</speed>
  <fix>3d</fix>
</trkpt>
<trkpt lat="-27.2744392" lon="151.2900641">
  <ele>343.13</ele>
  <time>2026-09-01T20:03:12Z</time>
  <course>10.92</course>
  <speed>0.022360679774997897</speed>
  <fix>3d</fix>
</trkpt>
<trkpt lat="-27.274439" lon="151.290064">
  <ele>343.1</ele>
  <time>2026-09-01T20:03:12Z</time>
  <course>270.0</course>
  <speed>0.0</speed>
  <fix>3d</fix>
</trkpt>
<trkpt lat="-27.2744392" lon="151.2900641">
  <ele>343.14</ele>
  <time>2026-09-01T20:03:12Z</time>
  <course>10.92</course>
  <speed>0.022360679774997897</speed>
  <fix>3d</fix>
</trkpt>
<trkpt lat="-27.274439" lon="151.290064">
  <ele>343.1</ele>
  <time>2026-09-01T20:03:12Z</time>
  <course>270.0</course>
  <speed>0.0</speed>
  <fix>3d</fix>
</trkpt>
<trkpt lat="-27.2744392" lon="151.2900641">
  <ele>343.14</ele>
  <time>2026-09-01T20:03:12Z</time>
  <course>10.92</course>
  <speed>0.022360679774997897</speed>
  <fix>3d</fix>
</trkpt>
<trkpt lat="-27.274439" lon="151.290064">
  <ele>343.1</ele>
  <time>2026-09-01T20:03:12Z</time>
  <course>270.0</course>
  <speed>0.0</speed>
  <fix>3d</fix>
</trkpt>
<trkpt lat="-27.2744392" lon="151.2900641">
  <ele>343.1</ele>
  <time>2026-09-01T20:03:12Z</time>
  <course>10.92</course>
  <speed>0.022360679774997897</speed>
  <fix>3d</fix>
</trkpt>
<trkpt lat="-27.274439" lon="151.290064">
  <ele>343.1</ele>
  <time>2026-09-01T20:03:12Z</time>
  <course>270.0</course>
  <speed>0.0</speed>
  <fix>3d</fix>
</trkpt>
<trkpt lat="-27.2744392" lon="151.2900641">
  <ele>343.1</ele>
  <time>2026-09-01T20:03:12Z</time>
  <course>10.92</course>
  <speed>0.022360679774997897</speed>
  <fix>3d</fix>
</trkpt>
<trkpt lat="-27.274439" lon="151.290064">
  <ele>343.1</ele>
  <time>2026-09-01T20:03:12Z</time>
  <course>270.0</course>
  <speed>0.0</speed>
  <fix>3d</fix>
</trkpt>
<trkpt lat="-27.2744392" lon="151.2900641">
  <ele>343.1</ele>
  <time>2026-09-01T20:03:12Z</time>
  <course>10.92</course>
  <speed>0.022360679774997897</speed>
  <fix>3d</fix>
</trkpt>
<trkpt lat="-27.274439" lon="151.290064">
  <ele>343.1</ele>
  <time>2026-09-01T20:03:12Z</time>
  <course>270.0</course>
  <speed>0.0</speed>
  <fix>3d</fix>
</trkpt>
<trkpt lat="-27.2744392" lon="151.2900641">
  <ele>343.1</ele>
  <time>2026-09-01T20:03:12Z</time>
  <course>10.92</course>
  <speed>0.022360679774997897</speed>
  <fix>3d</fix>
</trkpt>
<trkpt lat="-27.274439" lon="151.290064">
  <ele>343.1</ele>
  <time>2026-09-01T20:03:12Z</time>
  <course>270.0</course>
  <speed>0.0</speed>
  <fix>3d</fix>
</trkpt>
<trkpt lat="-27.2744392" lon="151.2900641">
  <ele>343.1</ele>
  <time>2026-09-01T20:03:12Z</time>
  <course>10.92</course>
  <speed>0.022360679774997897</speed>
  <fix>3d</fix>
</trkpt>
<trkpt lat="-27.274439" lon="151.290064">
  <ele>343.1</ele>
  <time>2026-09-01T20:03:12Z</time>
  <course>270.0</course>
  <speed>0.0</speed>
  <fix>3d</fix>
</trkpt>
<trkpt lat="-27.2744392" lon="151.2900641">
  <ele>343.1</ele>
  <time>2026-09-01T20:03:12Z</time>
  <course>10.92</course>
  <speed>0.022360679774997897</speed>
  <fix>3d</fix>
</trkpt>
<trkpt lat="-27.274439" lon="151.290064">
  <ele>343.1</ele>
  <time>2026-09-01T20:03:12Z</time>
  <course>270.0</course>
  <speed>0.0</speed>
  <fix>3d</fix>
</trkpt>
<trkpt lat="-27.2744392" lon="151.2900641">
  <ele>343.1</ele>
  <time>2026-09-01T20:03:12Z</time>
  <course>10.92</course>
  <speed>0.022360679774997897</speed>
  <fix>3d</fix>
</trkpt>
<trkpt lat="-27.274439" lon="151.290064">
  <ele>343.1</ele>
  <time>2026-09-01T20:03:12Z</time>
  <course>270.0</course>
  <speed>0.0</speed>
  <fix>3d</fix>
</trkpt>
<trkpt lat="-27.2744392" lon="151.2900641">
  <ele>343.1</ele>
  <time>2026-09-01T20:03:12Z</time>
  <course>10.92</course>
  <speed>0.022360679774997897</speed>
  <fix>3d</fix>
</trkpt>
<trkpt lat="-27.274439" lon="151.290064">
  <ele>343.1</ele>
  <time>2026-09-01T20:03:12Z</time>
  <course>270.0</course>
  <speed>0.0</speed>
  <fix>3d</fix>
</trkpt>
<trkpt lat="-27.2744392" lon="151.2900641">
  <ele>343.11</ele>
  <time>2026-09-01T20:03:12Z</time>
  <course>10.92</course>
  <speed>0.022360679774997897</speed>
  <fix>3d</fix>
</trkpt>
<trkpt lat="-27.274439" lon="151.290064">
  <ele>343.1</ele>
  <time>2026-09-01T20:03:12Z</time>
  <course>270.0</course>
  <speed>0.0</speed>
  <fix>3d</fix>
</trkpt>
<trkpt lat="-27.2744392" lon="151.2900641">
  <ele>343.11</ele>
  <time>2026-09-01T20:03:12Z</time>
  <course>10.93</course>
  <speed>0.022360679774997897</speed>
  <fix>3d</fix>
</trkpt>
<trkpt lat="-27.274439" lon="151.290064">
  <ele>343.1</ele>
  <time>2026-09-01T20:03:12Z</time>
  <course>270.0</course>
  <speed>0.0</speed>
  <fix>3d</fix>
</trkpt>
<trkpt lat="-27.2744392" lon="151.2900641">
  <ele>343.11</ele>
  <time>2026-09-01T20:03:12Z</time>
  <course>10.93</course>
  <speed>0.022360679774997897</speed>
  <fix>3d</fix>
</trkpt>
<trkpt lat="-27.274439" lon="151.290064">
  <ele>343.1</ele>
  <time>2026-09-01T20:03:12Z</time>
  <course>270.0</course>
  <speed>0.0</speed>
  <fix>3d</fix>
</trkpt>
<trkpt lat="-27.2744392" lon="151.2900641">
  <ele>343.11</ele>
  <time>2026-09-01T20:03:12Z</time>
  <course>10.93</course>
  <speed>0.022360679774997897</speed>
  <fix>3d</fix>
</trkpt>
<trkpt lat="-27.274439" lon="151.290064">
  <ele>343.1</ele>
  <time>2026-09-01T20:03:12Z</time>
  <course>270.0</course>
  <speed>0.0</speed>
  <fix>3d</fix>
</trkpt>
<trkpt lat="-27.2744392" lon="151.2900641">
  <ele>343.11</ele>
  <time>2026-09-01T20:03:12Z</time>
  <course>10.93</course>
  <speed>0.022360679774997897</speed>
  <fix>3d</fix>
</trkpt>
<trkpt lat="-27.274439" lon="151.290064">
  <ele>343.1</ele>
  <time>2026-09-01T20:03:12Z</time>
  <course>270.0</course>
  <speed>0.0</speed>
  <fix>3d</fix>
</trkpt>
<trkpt lat="-27.2744392" lon="151.2900641">
  <ele>343.11</ele>
  <time>2026-09-01T20:03:12Z</time>
  <course>10.93</course>
  <speed>0.022360679774997897</speed>
  <fix>3d</fix>
</trkpt>
<trkpt lat="-27.274439" lon="151.290064">
  <ele>343.1</ele>
  <time>2026-09-01T20:03:12Z</time>
  <course>270.0</course>
  <speed>0.0</speed>
  <fix>3d</fix>
</trkpt>
<trkpt lat="-27.2744392" lon="151.2900641">
  <ele>343.11</ele>
  <time>2026-09-01T20:03:12Z</time>
  <course>10.93</course>
  <speed>0.022360679774997897</speed>
  <fix>3d</fix>
</trkpt>
<trkpt lat="-27.274439" lon="151.290064">
  <ele>343.1</ele>
  <time>2026-09-01T20:03:12Z</time>
  <course>270.0</course>
  <speed>0.0</speed>
  <fix>3d</fix>
</trkpt>
<trkpt lat="-27.2744392" lon="151.2900641">
  <ele>343.11</ele>
  <time>2026-09-01T20:03:12Z</time>
  <course>10.93</course>
  <speed>0.022360679774997897</speed>
  <fix>3d</fix>
</trkpt>
<trkpt lat="-27.274439" lon="151.290064">
  <ele>343.1</ele>
  <time>2026-09-01T20:03:12Z</time>
  <course>270.0</course>
  <speed>0.0</speed>
  <fix>3d</fix>
</trkpt>
<trkpt lat="-27.2744392" lon="151.2900641">
  <ele>343.11</ele>
  <time>2026-09-01T20:03:12Z</time>
  <course>10.93</course>
  <speed>0.022360679774997897</speed>
  <fix>3d</fix>
</trkpt>
<trkpt lat="-27.274439" lon="151.290064">
  <ele>343.1</ele>
  <time>2026-09-01T20:03:12Z</time>
  <course>270.0</course>
  <speed>0.0</speed>
  <fix>3d</fix>
</trkpt>
<trkpt lat="-27.2744392" lon="151.2900641">
  <ele>343.11</ele>
  <time>2026-09-01T20:03:12Z</time>
  <course>10.93</course>
  <speed>0.022360679774997897</speed>
  <fix>3d</fix>
</trkpt>
<trkpt lat="-27.274439" lon="151.290064">
  <ele>343.1</ele>
  <time>2026-09-01T20:03:12Z</time>
  <course>270.0</course>
  <speed>0.0</speed>
  <fix>3d</fix>
</trkpt>
<trkpt lat="-27.2744392" lon="151.2900641">
  <ele>343.11</ele>
  <time>2026-09-01T20:03:12Z</time>
  <course>10.93</course>
  <speed>0.022360679774997897</speed>
  <fix>3d</fix>
</trkpt>
<trkpt lat="-27.274439" lon="151.290064">
  <ele>343.1</ele>
  <time>2026-09-01T20:03:12Z</time>
  <course>270.0</course>
  <speed>0.0</speed>
  <fix>3d</fix>
</trkpt>
<trkpt lat="-27.2744392" lon="151.2900641">
  <ele>343.11</ele>
  <time>2026-09-01T20:03:12Z</time>
  <course>10.93</course>
  <speed>0.022360679774997897</speed>
  <fix>3d</fix>
</trkpt>
<trkpt lat="-27.274439" lon="151.290064">
  <ele>343.1</ele>
  <time>2026-09-01T20:03:12Z</time>
  <course>270.0</course>
  <speed>0.0</speed>
  <fix>3d</fix>
</trkpt>
<trkpt lat="-27.2744392" lon="151.2900641">
  <ele>343.11</ele>
  <time>2026-09-01T20:03:12Z</time>
  <course>10.93</course>
  <speed>0.022360679774997897</speed>
  <fix>3d</fix>
</trkpt>
<trkpt lat="-27.274439" lon="151.290064">
  <ele>343.1</ele>
  <time>2026-09-01T20:03:12Z</time>
  <course>270.0</course>
  <speed>0.0</speed>
  <fix>3d</fix>
</trkpt>
<trkpt lat="-27.2744392" lon="151.2900641">
  <ele>343.11</ele>
  <time>2026-09-01T20:03:12Z</time>
  <course>10.94</course>
  <speed>0.022360679774997897</speed>
  <fix>3d</fix>
</trkpt>
<trkpt lat="-27.274439" lon="151.290064">
  <ele>343.1</ele>
  <time>2026-09-01T20:03:12Z</time>
  <course>270.0</course>
  <speed>0.0</speed>
  <fix>3d</fix>
</trkpt>
<trkpt lat="-27.2744392" lon="151.2900641">
  <ele>343.11</ele>
  <time>2026-09-01T20:03:12Z</time>
  <course>10.94</course>
  <speed>0.022360679774997897</speed>
  <fix>3d</fix>
</trkpt>
<trkpt lat="-27.274439" lon="151.290064">
  <ele>343.1</ele>
  <time>2026-09-01T20:03:12Z</time>
  <course>270.0</course>
  <speed>0.0</speed>
  <fix>3d</fix>
</trkpt>
<trkpt lat="-27.2744392" lon="151.2900641">
  <ele>343.1</ele>
  <time>2026-09-01T20:03:12Z</time>
  <course>10.94</course>
  <speed>0.022360679774997897</speed>
  <fix>3d</fix>
</trkpt>
<trkpt lat="-27.274439" lon="151.290064">
  <ele>343.1</ele>
  <time>2026-09-01T20:03:12Z</time>
  <course>270.0</course>
  <speed>0.0</speed>
  <fix>3d</fix>
</trkpt>
<trkpt lat="-27.2744392" lon="151.2900641">
  <ele>343.1</ele>
  <time>2026-09-01T20:03:12Z</time>
  <course>10.94</course>
  <speed>0.022360679774997897</speed>
  <fix>3d</fix>
</trkpt>
<trkpt lat="-27.274439" lon="151.290064">
  <ele>343.1</ele>
  <time>2026-09-01T20:03:12Z</time>
  <course>270.0</course>
  <speed>0.0</speed>
  <fix>3d</fix>
</trkpt>
<trkpt lat="-27.2744392" lon="151.2900641">
  <ele>343.1</ele>
  <time>2026-09-01T20:03:12Z</time>
  <course>10.94</course>
  <speed>0.022360679774997897</speed>
  <fix>3d</fix>
</trkpt>
<trkpt lat="-27.274439" lon="151.290064">
  <ele>343.1</ele>
  <time>2026-09-01T20:03:12Z</time>
  <course>270.0</course>
  <speed>0.0</speed>
  <fix>3d</fix>
</trkpt>
<trkpt lat="-27.2744392" lon="151.2900641">
  <ele>343.1</ele>
  <time>2026-09-01T20:03:12Z</time>
  <course>10.94</course>
  <speed>0.022360679774997897</speed>
  <fix>3d</fix>
</trkpt>
<trkpt lat="-27.274439" lon="151.290064">
  <ele>343.1</ele>
  <time>2026-09-01T20:03:12Z</time>
  <course>270.0</course>
  <speed>0.0</speed>
  <fix>3d</fix>
</trkpt>
<trkpt lat="-27.2744392" lon="151.2900641">
  <ele>343.09</ele>
  <time>2026-09-01T20:03:12Z</time>
  <course>10.94</course>
  <speed>0.022360679774997897</speed>
  <fix>3d</fix>
</trkpt>
<trkpt lat="-27.274439" lon="151.290064">
  <ele>343.1</ele>
  <time>2026-09-01T20:03:12Z</time>
  <course>270.0</course>
  <speed>0.0</speed>
  <fix>3d</fix>
</trkpt>
<trkpt lat="-27.2744392" lon="151.2900641">
  <ele>343.09</ele>
  <time>2026-09-01T20:03:12Z</time>
  <course>10.94</course>
  <speed>0.022360679774997897</speed>
  <fix>3d</fix>
</trkpt>
<trkpt lat="-27.274439" lon="151.290064">
  <ele>343.1</ele>
  <time>2026-09-01T20:03:12Z</time>
  <course>270.0</course>
  <speed>0.0</speed>
  <fix>3d</fix>
</trkpt>
<trkpt lat="-27.2744392" lon="151.2900641">
  <ele>343.09</ele>
  <time>2026-09-01T20:03:12Z</time>
  <course>10.94</course>
  <speed>0.022360679774997897</speed>
  <fix>3d</fix>
</trkpt>
<trkpt lat="-27.274439" lon="151.290064">
  <ele>343.1</ele>
  <time>2026-09-01T20:03:12Z</time>
  <course>270.0</course>
  <speed>0.0</speed>
  <fix>3d</fix>
</trkpt>
<trkpt lat="-27.2744392" lon="151.2900641">
  <ele>343.09</ele>
  <time>2026-09-01T20:03:12Z</time>
  <course>10.94</course>
  <speed>0.022360679774997897</speed>
  <fix>3d</fix>
</trkpt>
<trkpt lat="-27.274439" lon="151.290064">
  <ele>343.1</ele>
  <time>2026-09-01T20:03:12Z</time>
  <course>270.0</course>
  <speed>0.0</speed>
  <fix>3d</fix>
</trkpt>
<trkpt lat="-27.2744392" lon="151.2900641">
  <ele>343.09</ele>
  <time>2026-09-01T20:03:12Z</time>
  <course>10.94</course>
  <speed>0.022360679774997897</speed>
  <fix>3d</fix>
</trkpt>
<trkpt lat="-27.274439" lon="151.290064">
  <ele>343.1</ele>
  <time>2026-09-01T20:03:12Z</time>
  <course>270.0</course>
  <speed>0.0</speed>
  <fix>3d</fix>
</trkpt>
<trkpt lat="-27.2744392" lon="151.2900641">
  <ele>343.09</ele>
  <time>2026-09-01T20:03:12Z</time>
  <course>10.95</course>
  <speed>0.022360679774997897</speed>
  <fix>3d</fix>
</trkpt>
<trkpt lat="-27.274439" lon="151.290064">
  <ele>343.1</ele>
  <time>2026-09-01T20:03:12Z</time>
  <course>270.0</course>
  <speed>0.0</speed>
  <fix>3d</fix>
</trkpt>
<trkpt lat="-27.2744392" lon="151.2900641">
  <ele>343.09</ele>
  <time>2026-09-01T20:03:12Z</time>
  <course>10.95</course>
  <speed>0.022360679774997897</speed>
  <fix>3d</fix>
</trkpt>
<trkpt lat="-27.274439" lon="151.290064">
  <ele>343.1</ele>
  <time>2026-09-01T20:03:12Z</time>
  <course>270.0</course>
  <speed>0.0</speed>
  <fix>3d</fix>
</trkpt>
<trkpt lat="-27.2744392" lon="151.2900641">
  <ele>343.09</ele>
  <time>2026-09-01T20:03:12Z</time>
  <course>10.95</course>
  <speed>0.022360679774997897</speed>
  <fix>3d</fix>
</trkpt>
<trkpt lat="-27.274439" lon="151.290064">
  <ele>343.1</ele>
  <time>2026-09-01T20:03:12Z</time>
  <course>270.0</course>
  <speed>0.0</speed>
  <fix>3d</fix>
</trkpt>
<trkpt lat="-27.2744392" lon="151.2900641">
  <ele>343.08</ele>
  <time>2026-09-01T20:03:12Z</time>
  <course>10.95</course>
  <speed>0.022360679774997897</speed>
  <fix>3d</fix>
</trkpt>
<trkpt lat="-27.274439" lon="151.290064">
  <ele>343.1</ele>
  <time>2026-09-01T20:03:12Z</time>
  <course>270.0</course>
  <speed>0.0</speed>
  <fix>3d</fix>
</trkpt>
<trkpt lat="-27.2744392" lon="151.2900641">
  <ele>343.08</ele>
  <time>2026-09-01T20:03:12Z</time>
  <course>10.95</course>
  <speed>0.022360679774997897</speed>
  <fix>3d</fix>
</trkpt>
<trkpt lat="-27.274439" lon="151.290064">
  <ele>343.1</ele>
  <time>2026-09-01T20:03:12Z</time>
  <course>270.0</course>
  <speed>0.0</speed>
  <fix>3d</fix>
</trkpt>
<trkpt lat="-27.2744392" lon="151.2900641">
  <ele>343.08</ele>
  <time>2026-09-01T20:03:12Z</time>
  <course>10.95</course>
  <speed>0.022360679774997897</speed>
  <fix>3d</fix>
</trkpt>
<trkpt lat="-27.274439" lon="151.290064">
  <ele>343.1</ele>
  <time>2026-09-01T20:03:12Z</time>
  <course>270.0</course>
  <speed>0.0</speed>
  <fix>3d</fix>
</trkpt>
<trkpt lat="-27.2744392" lon="151.2900641">
  <ele>343.09</ele>
  <time>2026-09-01T20:03:12Z</time>
  <course>10.95</course>
  <speed>0.022360679774997897</speed>
  <fix>3d</fix>
</trkpt>
<trkpt lat="-27.274439" lon="151.290064">
  <ele>343.1</ele>
  <time>2026-09-01T20:03:12Z</time>
  <course>270.0</course>
  <speed>0.0</speed>
  <fix>3d</fix>
</trkpt>
<trkpt lat="-27.2744392" lon="151.2900641">
  <ele>343.09</ele>
  <time>2026-09-01T20:03:12Z</time>
  <course>10.95</course>
  <speed>0.022360679774997897</speed>
  <fix>3d</fix>
</trkpt>
<trkpt lat="-27.274439" lon="151.290064">
  <ele>343.1</ele>
  <time>2026-09-01T20:03:12Z</time>
  <course>270.0</course>
  <speed>0.0</speed>
  <fix>3d</fix>
</trkpt>
<trkpt lat="-27.2744392" lon="151.2900641">
  <ele>343.09</ele>
  <time>2026-09-01T20:03:12Z</time>
  <course>10.95</course>
  <speed>0.022360679774997897</speed>
  <fix>3d</fix>
</trkpt>
<trkpt lat="-27.274439" lon="151.290064">
  <ele>343.1</ele>
  <time>2026-09-01T20:03:12Z</time>
  <course>270.0</course>
  <speed>0.0</speed>
  <fix>3d</fix>
</trkpt>
<trkpt lat="-27.2744392" lon="151.2900641">
  <ele>343.09</ele>
  <time>2026-09-01T20:03:12Z</time>
  <course>10.95</course>
  <speed>0.022360679774997897</speed>
  <fix>3d</fix>
</trkpt>
<trkpt lat="-27.274439" lon="151.290064">
  <ele>343.1</ele>
  <time>2026-09-01T20:03:12Z</time>
  <course>270.0</course>
  <speed>0.0</speed>
  <fix>3d</fix>
</trkpt>
<trkpt lat="-27.2744392" lon="151.2900641">
  <ele>343.09</ele>
  <time>2026-09-01T20:03:12Z</time>
  <course>10.95</course>
  <speed>0.022360679774997897</speed>
  <fix>3d</fix>
</trkpt>
<trkpt lat="-27.274439" lon="151.290064">
  <ele>343.1</ele>
  <time>2026-09-01T20:03:12Z</time>
  <course>270.0</course>
  <speed>0.0</speed>
  <fix>3d</fix>
</trkpt>
<trkpt lat="-27.2744392" lon="151.2900641">
  <ele>343.09</ele>
  <time>2026-09-01T20:03:12Z</time>
  <course>10.95</course>
  <speed>0.022360679774997897</speed>
  <fix>3d</fix>
</trkpt>
<trkpt lat="-27.274439" lon="151.290064">
  <ele>343.1</ele>
  <time>2026-09-01T20:03:12Z</time>
  <course>270.0</course>
  <speed>0.0</speed>
  <fix>3d</fix>
</trkpt>
<trkpt lat="-27.2744392" lon="151.2900641">
  <ele>343.09</ele>
  <time>2026-09-01T20:03:12Z</time>
  <course>10.96</course>
  <speed>0.022360679774997897</speed>
  <fix>3d</fix>
</trkpt>
<trkpt lat="-27.274439" lon="151.290064">
  <ele>343.1</ele>
  <time>2026-09-01T20:03:12Z</time>
  <course>270.0</course>
  <speed>0.0</speed>
  <fix>3d</fix>
</trkpt>
<trkpt lat="-27.2744392" lon="151.2900641">
  <ele>343.09</ele>
  <time>2026-09-01T20:03:12Z</time>
  <course>10.96</course>
  <speed>0.022360679774997897</speed>
  <fix>3d</fix>
</trkpt>
<trkpt lat="-27.274439" lon="151.290064">
  <ele>343.1</ele>
  <time>2026-09-01T20:03:12Z</time>
  <course>270.0</course>
  <speed>0.0</speed>
  <fix>3d</fix>
</trkpt>
<trkpt lat="-27.2744392" lon="151.2900641">
  <ele>343.09</ele>
  <time>2026-09-01T20:03:12Z</time>
  <course>10.96</course>
  <speed>0.022360679774997897</speed>
  <fix>3d</fix>
</trkpt>
<trkpt lat="-27.274439" lon="151.290064">
  <ele>343.1</ele>
  <time>2026-09-01T20:03:12Z</time>
  <course>270.0</course>
  <speed>0.0</speed>
  <fix>3d</fix>
</trkpt>
<trkpt lat="-27.2744392" lon="151.2900641">
  <ele>343.09</ele>
  <time>2026-09-01T20:03:12Z</time>
  <course>10.96</course>
  <speed>0.022360679774997897</speed>
  <fix>3d</fix>
</trkpt>
<trkpt lat="-27.274439" lon="151.290064">
  <ele>343.1</ele>
  <time>2026-09-01T20:03:12Z</time>
  <course>270.0</course>
  <speed>0.0</speed>
  <fix>3d</fix>
</trkpt>
<trkpt lat="-27.2744392" lon="151.2900641">
  <ele>343.09</ele>
  <time>2026-09-01T20:03:12Z</time>
  <course>10.96</course>
  <speed>0.022360679774997897</speed>
  <fix>3d</fix>
</trkpt>
<trkpt lat="-27.274439" lon="151.290064">
  <ele>343.1</ele>
  <time>2026-09-01T20:03:12Z</time>
  <course>270.0</course>
  <speed>0.0</speed>
  <fix>3d</fix>
</trkpt>
<trkpt lat="-27.2744392" lon="151.2900641">
  <ele>343.09</ele>
  <time>2026-09-01T20:03:12Z</time>
  <course>10.96</course>
  <speed>0.022360679774997897</speed>
  <fix>3d</fix>
</trkpt>
<trkpt lat="-27.274439" lon="151.290064">
  <ele>343.1</ele>
  <time>2026-09-01T20:03:12Z</time>
  <course>270.0</course>
  <speed>0.0</speed>
  <fix>3d</fix>
</trkpt>
<trkpt lat="-27.2744392" lon="151.2900641">
  <ele>343.1</ele>
  <time>2026-09-01T20:03:12Z</time>
  <course>10.96</course>
  <speed>0.022360679774997897</speed>
  <fix>3d</fix>
</trkpt>
<trkpt lat="-27.274439" lon="151.290064">
  <ele>343.1</ele>
  <time>2026-09-01T20:03:12Z</time>
  <course>270.0</course>
  <speed>0.0</speed>
  <fix>3d</fix>
</trkpt>
<trkpt lat="-27.2744392" lon="151.2900641">
  <ele>343.1</ele>
  <time>2026-09-01T20:03:12Z</time>
  <course>10.96</course>
  <speed>0.022360679774997897</speed>
  <fix>3d</fix>
</trkpt>
<trkpt lat="-27.274439" lon="151.290064">
  <ele>343.1</ele>
  <time>2026-09-01T20:03:12Z</time>
  <course>270.0</course>
  <speed>0.0</speed>
  <fix>3d</fix>
</trkpt>
<trkpt lat="-27.2744392" lon="151.2900641">
  <ele>343.1</ele>
  <time>2026-09-01T20:03:13Z</time>
  <course>10.96</course>
  <speed>0.022360679774997897</speed>
  <fix>3d</fix>
</trkpt>
<trkpt lat="-27.274439" lon="151.290064">
  <ele>343.1</ele>
  <time>2026-09-01T20:03:13Z</time>
  <course>270.0</course>
  <speed>0.0</speed>
  <fix>3d</fix>
</trkpt>
<trkpt lat="-27.2744392" lon="151.2900641">
  <ele>343.1</ele>
  <time>2026-09-01T20:03:13Z</time>
  <course>10.96</course>
  <speed>0.022360679774997897</speed>
  <fix>3d</fix>
</trkpt>
<trkpt lat="-27.274439" lon="151.290064">
  <ele>343.1</ele>
  <time>2026-09-01T20:03:13Z</time>
  <course>270.0</course>
  <speed>0.0</speed>
  <fix>3d</fix>
</trkpt>
<trkpt lat="-27.2744392" lon="151.2900641">
  <ele>343.1</ele>
  <time>2026-09-01T20:03:13Z</time>
  <course>10.96</course>
  <speed>0.022360679774997897</speed>
  <fix>3d</fix>
</trkpt>
<trkpt lat="-27.274439" lon="151.290064">
  <ele>343.1</ele>
  <time>2026-09-01T20:03:13Z</time>
  <course>270.0</course>
  <speed>0.0</speed>
  <fix>3d</fix>
</trkpt>
<trkpt lat="-27.2744392" lon="151.2900641">
  <ele>343.1</ele>
  <time>2026-09-01T20:03:13Z</time>
  <course>10.97</course>
  <speed>0.022360679774997897</speed>
  <fix>3d</fix>
</trkpt>
<trkpt lat="-27.274439" lon="151.290064">
  <ele>343.1</ele>
  <time>2026-09-01T20:03:13Z</time>
  <course>270.0</course>
  <speed>0.0</speed>
  <fix>3d</fix>
</trkpt>
<trkpt lat="-27.2744392" lon="151.2900641">
  <ele>343.1</ele>
  <time>2026-09-01T20:03:13Z</time>
  <course>10.97</course>
  <speed>0.022360679774997897</speed>
  <fix>3d</fix>
</trkpt>
<trkpt lat="-27.274439" lon="151.290064">
  <ele>343.1</ele>
  <time>2026-09-01T20:03:13Z</time>
  <course>270.0</course>
  <speed>0.0</speed>
  <fix>3d</fix>
</trkpt>
<trkpt lat="-27.2744392" lon="151.2900641">
  <ele>343.09</ele>
  <time>2026-09-01T20:03:13Z</time>
  <course>10.97</course>
  <speed>0.022360679774997897</speed>
  <fix>3d</fix>
</trkpt>
<trkpt lat="-27.274439" lon="151.290064">
  <ele>343.1</ele>
  <time>2026-09-01T20:03:13Z</time>
  <course>270.0</course>
  <speed>0.0</speed>
  <fix>3d</fix>
</trkpt>
<trkpt lat="-27.2744392" lon="151.2900641">
  <ele>343.09</ele>
  <time>2026-09-01T20:03:13Z</time>
  <course>10.97</course>
  <speed>0.022360679774997897</speed>
  <fix>3d</fix>
</trkpt>
<trkpt lat="-27.274439" lon="151.290064">
  <ele>343.1</ele>
  <time>2026-09-01T20:03:13Z</time>
  <course>270.0</course>
  <speed>0.0</speed>
  <fix>3d</fix>
</trkpt>
<trkpt lat="-27.2744392" lon="151.2900641">
  <ele>343.09</ele>
  <time>2026-09-01T20:03:13Z</time>
  <course>10.97</course>
  <speed>0.022360679774997897</speed>
  <fix>3d</fix>
</trkpt>
<trkpt lat="-27.274439" lon="151.290064">
  <ele>343.1</ele>
  <time>2026-09-01T20:03:13Z</time>
  <course>270.0</course>
  <speed>0.0</speed>
  <fix>3d</fix>
</trkpt>
<trkpt lat="-27.2744392" lon="151.2900641">
  <ele>343.09</ele>
  <time>2026-09-01T20:03:13Z</time>
  <course>10.97</course>
  <speed>0.022360679774997897</speed>
  <fix>3d</fix>
</trkpt>
<trkpt lat="-27.274439" lon="151.290064">
  <ele>343.1</ele>
  <time>2026-09-01T20:03:13Z</time>
  <course>270.0</course>
  <speed>0.0</speed>
  <fix>3d</fix>
</trkpt>
<trkpt lat="-27.2744392" lon="151.2900641">
  <ele>343.1</ele>
  <time>2026-09-01T20:03:13Z</time>
  <course>10.97</course>
  <speed>0.022360679774997897</speed>
  <fix>3d</fix>
</trkpt>
<trkpt lat="-27.274439" lon="151.290064">
  <ele>343.1</ele>
  <time>2026-09-01T20:03:13Z</time>
  <course>270.0</course>
  <speed>0.0</speed>
  <fix>3d</fix>
</trkpt>
<trkpt lat="-27.2744392" lon="151.2900641">
  <ele>343.09</ele>
  <time>2026-09-01T20:03:13Z</time>
  <course>10.97</course>
  <speed>0.022360679774997897</speed>
  <fix>3d</fix>
</trkpt>
<trkpt lat="-27.274439" lon="151.290064">
  <ele>343.1</ele>
  <time>2026-09-01T20:03:13Z</time>
  <course>270.0</course>
  <speed>0.0</speed>
  <fix>3d</fix>
</trkpt>
<trkpt lat="-27.2744392" lon="151.2900641">
  <ele>343.09</ele>
  <time>2026-09-01T20:03:13Z</time>
  <course>10.97</course>
  <speed>0.022360679774997897</speed>
  <fix>3d</fix>
</trkpt>
<trkpt lat="-27.274439" lon="151.290064">
  <ele>343.1</ele>
  <time>2026-09-01T20:03:13Z</time>
  <course>270.0</course>
  <speed>0.0</speed>
  <fix>3d</fix>
</trkpt>
<trkpt lat="-27.2744392" lon="151.2900641">
  <ele>343.09</ele>
  <time>2026-09-01T20:03:13Z</time>
  <course>10.97</course>
  <speed>0.022360679774997897</speed>
  <fix>3d</fix>
</trkpt>
<trkpt lat="-27.274439" lon="151.290064">
  <ele>343.1</ele>
  <time>2026-09-01T20:03:13Z</time>
  <course>270.0</course>
  <speed>0.0</speed>
  <fix>3d</fix>
</trkpt>
<trkpt lat="-27.2744392" lon="151.2900641">
  <ele>343.09</ele>
  <time>2026-09-01T20:03:13Z</time>
  <course>10.97</course>
  <speed>0.022360679774997897</speed>
  <fix>3d</fix>
</trkpt>
<trkpt lat="-27.274439" lon="151.290064">
  <ele>343.1</ele>
  <time>2026-09-01T20:03:13Z</time>
  <course>270.0</course>
  <speed>0.0</speed>
  <fix>3d</fix>
</trkpt>
<trkpt lat="-27.2744392" lon="151.2900641">
  <ele>343.09</ele>
  <time>2026-09-01T20:03:13Z</time>
  <course>10.97</course>
  <speed>0.022360679774997897</speed>
  <fix>3d</fix>
</trkpt>
<trkpt lat="-27.274439" lon="151.290064">
  <ele>343.1</ele>
  <time>2026-09-01T20:03:13Z</time>
  <course>270.0</course>
  <speed>0.0</speed>
  <fix>3d</fix>
</trkpt>
<trkpt lat="-27.2744392" lon="151.2900641">
  <ele>343.09</ele>
  <time>2026-09-01T20:03:13Z</time>
  <course>10.98</course>
  <speed>0.022360679774997897</speed>
  <fix>3d</fix>
</trkpt>
<trkpt lat="-27.274439" lon="151.290064">
  <ele>343.1</ele>
  <time>2026-09-01T20:03:13Z</time>
  <course>270.0</course>
  <speed>0.0</speed>
  <fix>3d</fix>
</trkpt>
<trkpt lat="-27.2744392" lon="151.2900641">
  <ele>343.09</ele>
  <time>2026-09-01T20:03:13Z</time>
  <course>10.98</course>
  <speed>0.022360679774997897</speed>
  <fix>3d</fix>
</trkpt>
<trkpt lat="-27.274439" lon="151.290064">
  <ele>343.1</ele>
  <time>2026-09-01T20:03:13Z</time>
  <course>270.0</course>
  <speed>0.0</speed>
  <fix>3d</fix>
</trkpt>
<trkpt lat="-27.2744392" lon="151.2900641">
  <ele>343.09</ele>
  <time>2026-09-01T20:03:13Z</time>
  <course>10.98</course>
  <speed>0.022360679774997897</speed>
  <fix>3d</fix>
</trkpt>
<trkpt lat="-27.274439" lon="151.290064">
  <ele>343.1</ele>
  <time>2026-09-01T20:03:13Z</time>
  <course>270.0</course>
  <speed>0.0</speed>
  <fix>3d</fix>
</trkpt>
<trkpt lat="-27.2744392" lon="151.2900641">
  <ele>343.08</ele>
  <time>2026-09-01T20:03:13Z</time>
  <course>10.98</course>
  <speed>0.022360679774997897</speed>
  <fix>3d</fix>
</trkpt>
<trkpt lat="-27.274439" lon="151.290064">
  <ele>343.1</ele>
  <time>2026-09-01T20:03:13Z</time>
  <course>270.0</course>
  <speed>0.0</speed>
  <fix>3d</fix>
</trkpt>
<trkpt lat="-27.2744392" lon="151.2900641">
  <ele>343.08</ele>
  <time>2026-09-01T20:03:13Z</time>
  <course>10.98</course>
  <speed>0.022360679774997897</speed>
  <fix>3d</fix>
</trkpt>
<trkpt lat="-27.274439" lon="151.290064">
  <ele>343.1</ele>
  <time>2026-09-01T20:03:13Z</time>
  <course>270.0</course>
  <speed>0.0</speed>
  <fix>3d</fix>
</trkpt>
<trkpt lat="-27.2744392" lon="151.2900641">
  <ele>343.08</ele>
  <time>2026-09-01T20:03:13Z</time>
  <course>10.98</course>
  <speed>0.022360679774997897</speed>
  <fix>3d</fix>
</trkpt>
<trkpt lat="-27.274439" lon="151.290064">
  <ele>343.1</ele>
  <time>2026-09-01T20:03:13Z</time>
  <course>270.0</course>
  <speed>0.0</speed>
  <fix>3d</fix>
</trkpt>
<trkpt lat="-27.2744392" lon="151.2900641">
  <ele>343.08</ele>
  <time>2026-09-01T20:03:13Z</time>
  <course>10.98</course>
  <speed>0.022360679774997897</speed>
  <fix>3d</fix>
</trkpt>
<trkpt lat="-27.274439" lon="151.290064">
  <ele>343.1</ele>
  <time>2026-09-01T20:03:13Z</time>
  <course>270.0</course>
  <speed>0.0</speed>
  <fix>3d</fix>
</trkpt>
<trkpt lat="-27.2744392" lon="151.2900641">
  <ele>343.08</ele>
  <time>2026-09-01T20:03:13Z</time>
  <course>10.98</course>
  <speed>0.022360679774997897</speed>
  <fix>3d</fix>
</trkpt>
<trkpt lat="-27.274439" lon="151.290064">
  <ele>343.1</ele>
  <time>2026-09-01T20:03:13Z</time>
  <course>270.0</course>
  <speed>0.0</speed>
  <fix>3d</fix>
</trkpt>
<trkpt lat="-27.2744392" lon="151.2900641">
  <ele>343.08</ele>
  <time>2026-09-01T20:03:13Z</time>
  <course>10.98</course>
  <speed>0.022360679774997897</speed>
  <fix>3d</fix>
</trkpt>
<trkpt lat="-27.274439" lon="151.290064">
  <ele>343.1</ele>
  <time>2026-09-01T20:03:13Z</time>
  <course>270.0</course>
  <speed>0.0</speed>
  <fix>3d</fix>
</trkpt>
<trkpt lat="-27.2744392" lon="151.2900641">
  <ele>343.07</ele>
  <time>2026-09-01T20:03:13Z</time>
  <course>10.98</course>
  <speed>0.022360679774997897</speed>
  <fix>3d</fix>
</trkpt>
<trkpt lat="-27.274439" lon="151.290064">
  <ele>343.1</ele>
  <time>2026-09-01T20:03:13Z</time>
  <course>270.0</course>
  <speed>0.0</speed>
  <fix>3d</fix>
</trkpt>
<trkpt lat="-27.2744392" lon="151.2900641">
  <ele>343.07</ele>
  <time>2026-09-01T20:03:13Z</time>
  <course>10.98</course>
  <speed>0.022360679774997897</speed>
  <fix>3d</fix>
</trkpt>
<trkpt lat="-27.274439" lon="151.290064">
  <ele>343.1</ele>
  <time>2026-09-01T20:03:13Z</time>
  <course>270.0</course>
  <speed>0.0</speed>
  <fix>3d</fix>
</trkpt>
<trkpt lat="-27.2744392" lon="151.2900641">
  <ele>343.07</ele>
  <time>2026-09-01T20:03:13Z</time>
  <course>10.99</course>
  <speed>0.022360679774997897</speed>
  <fix>3d</fix>
</trkpt>
<trkpt lat="-27.274439" lon="151.290064">
  <ele>343.1</ele>
  <time>2026-09-01T20:03:13Z</time>
  <course>270.0</course>
  <speed>0.0</speed>
  <fix>3d</fix>
</trkpt>
<trkpt lat="-27.2744392" lon="151.2900641">
  <ele>343.07</ele>
  <time>2026-09-01T20:03:13Z</time>
  <course>10.99</course>
  <speed>0.022360679774997897</speed>
  <fix>3d</fix>
</trkpt>
<trkpt lat="-27.274439" lon="151.290064">
  <ele>343.1</ele>
  <time>2026-09-01T20:03:13Z</time>
  <course>270.0</course>
  <speed>0.0</speed>
  <fix>3d</fix>
</trkpt>
<trkpt lat="-27.2744392" lon="151.2900641">
  <ele>343.07</ele>
  <time>2026-09-01T20:03:13Z</time>
  <course>10.99</course>
  <speed>0.022360679774997897</speed>
  <fix>3d</fix>
</trkpt>
<trkpt lat="-27.274439" lon="151.290064">
  <ele>343.1</ele>
  <time>2026-09-01T20:03:13Z</time>
  <course>270.0</course>
  <speed>0.0</speed>
  <fix>3d</fix>
</trkpt>
<trkpt lat="-27.2744392" lon="151.2900641">
  <ele>343.07</ele>
  <time>2026-09-01T20:03:13Z</time>
  <course>10.99</course>
  <speed>0.022360679774997897</speed>
  <fix>3d</fix>
</trkpt>
<trkpt lat="-27.274439" lon="151.290064">
  <ele>343.1</ele>
  <time>2026-09-01T20:03:13Z</time>
  <course>270.0</course>
  <speed>0.0</speed>
  <fix>3d</fix>
</trkpt>
<trkpt lat="-27.2744392" lon="151.2900641">
  <ele>343.07</ele>
  <time>2026-09-01T20:03:13Z</time>
  <course>10.99</course>
  <speed>0.022360679774997897</speed>
  <fix>3d</fix>
</trkpt>
<trkpt lat="-27.274439" lon="151.290064">
  <ele>343.1</ele>
  <time>2026-09-01T20:03:13Z</time>
  <course>270.0</course>
  <speed>0.0</speed>
  <fix>3d</fix>
</trkpt>
<trkpt lat="-27.2744392" lon="151.2900641">
  <ele>343.07</ele>
  <time>2026-09-01T20:03:13Z</time>
  <course>10.99</course>
  <speed>0.022360679774997897</speed>
  <fix>3d</fix>
</trkpt>
<trkpt lat="-27.274439" lon="151.290064">
  <ele>343.1</ele>
  <time>2026-09-01T20:03:13Z</time>
  <course>270.0</course>
  <speed>0.0</speed>
  <fix>3d</fix>
</trkpt>
<trkpt lat="-27.2744392" lon="151.2900641">
  <ele>343.07</ele>
  <time>2026-09-01T20:03:13Z</time>
  <course>10.99</course>
  <speed>0.022360679774997897</speed>
  <fix>3d</fix>
</trkpt>
<trkpt lat="-27.274439" lon="151.290064">
  <ele>343.1</ele>
  <time>2026-09-01T20:03:13Z</time>
  <course>270.0</course>
  <speed>0.0</speed>
  <fix>3d</fix>
</trkpt>
<trkpt lat="-27.2744392" lon="151.2900641">
  <ele>343.07</ele>
  <time>2026-09-01T20:03:13Z</time>
  <course>10.99</course>
  <speed>0.022360679774997897</speed>
  <fix>3d</fix>
</trkpt>
<trkpt lat="-27.274439" lon="151.290064">
  <ele>343.1</ele>
  <time>2026-09-01T20:03:13Z</time>
  <course>270.0</course>
  <speed>0.0</speed>
  <fix>3d</fix>
</trkpt>
<trkpt lat="-27.2744392" lon="151.2900641">
  <ele>343.06</ele>
  <time>2026-09-01T20:03:13Z</time>
  <course>10.99</course>
  <speed>0.022360679774997897</speed>
  <fix>3d</fix>
</trkpt>
<trkpt lat="-27.274439" lon="151.290064">
  <ele>343.1</ele>
  <time>2026-09-01T20:03:13Z</time>
  <course>270.0</course>
  <speed>0.0</speed>
  <fix>3d</fix>
</trkpt>
<trkpt lat="-27.2744392" lon="151.2900641">
  <ele>343.06</ele>
  <time>2026-09-01T20:03:13Z</time>
  <course>10.99</course>
  <speed>0.022360679774997897</speed>
  <fix>3d</fix>
</trkpt>
<trkpt lat="-27.274439" lon="151.290064">
  <ele>343.1</ele>
  <time>2026-09-01T20:03:13Z</time>
  <course>270.0</course>
  <speed>0.0</speed>
  <fix>3d</fix>
</trkpt>
<trkpt lat="-27.2744392" lon="151.2900641">
  <ele>343.06</ele>
  <time>2026-09-01T20:03:13Z</time>
  <course>10.99</course>
  <speed>0.022360679774997897</speed>
  <fix>3d</fix>
</trkpt>
<trkpt lat="-27.274439" lon="151.290064">
  <ele>343.1</ele>
  <time>2026-09-01T20:03:13Z</time>
  <course>270.0</course>
  <speed>0.0</speed>
  <fix>3d</fix>
</trkpt>
<trkpt lat="-27.2744392" lon="151.2900641">
  <ele>343.06</ele>
  <time>2026-09-01T20:03:13Z</time>
  <course>11.0</course>
  <speed>0.022360679774997897</speed>
  <fix>3d</fix>
</trkpt>
<trkpt lat="-27.274439" lon="151.290064">
  <ele>343.1</ele>
  <time>2026-09-01T20:03:13Z</time>
  <course>270.0</course>
  <speed>0.0</speed>
  <fix>3d</fix>
</trkpt>
<trkpt lat="-27.2744392" lon="151.2900641">
  <ele>343.06</ele>
  <time>2026-09-01T20:03:13Z</time>
  <course>11.0</course>
  <speed>0.022360679774997897</speed>
  <fix>3d</fix>
</trkpt>
<trkpt lat="-27.274439" lon="151.290064">
  <ele>343.1</ele>
  <time>2026-09-01T20:03:13Z</time>
  <course>270.0</course>
  <speed>0.0</speed>
  <fix>3d</fix>
</trkpt>
<trkpt lat="-27.2744392" lon="151.2900641">
  <ele>343.06</ele>
  <time>2026-09-01T20:03:13Z</time>
  <course>11.0</course>
  <speed>0.022360679774997897</speed>
  <fix>3d</fix>
</trkpt>
<trkpt lat="-27.274439" lon="151.290064">
  <ele>343.1</ele>
  <time>2026-09-01T20:03:13Z</time>
  <course>270.0</course>
  <speed>0.0</speed>
  <fix>3d</fix>
</trkpt>
<trkpt lat="-27.2744392" lon="151.2900641">
  <ele>343.06</ele>
  <time>2026-09-01T20:03:13Z</time>
  <course>11.0</course>
  <speed>0.022360679774997897</speed>
  <fix>3d</fix>
</trkpt>
<trkpt lat="-27.274439" lon="151.290064">
  <ele>343.1</ele>
  <time>2026-09-01T20:03:13Z</time>
  <course>270.0</course>
  <speed>0.0</speed>
  <fix>3d</fix>
</trkpt>
<trkpt lat="-27.2744392" lon="151.2900641">
  <ele>343.05</ele>
  <time>2026-09-01T20:03:13Z</time>
  <course>11.0</course>
  <speed>0.022360679774997897</speed>
  <fix>3d</fix>
</trkpt>
<trkpt lat="-27.274439" lon="151.290064">
  <ele>343.1</ele>
  <time>2026-09-01T20:03:13Z</time>
  <course>270.0</course>
  <speed>0.0</speed>
  <fix>3d</fix>
</trkpt>
<trkpt lat="-27.2744392" lon="151.2900641">
  <ele>343.05</ele>
  <time>2026-09-01T20:03:13Z</time>
  <course>11.0</course>
  <speed>0.022360679774997897</speed>
  <fix>3d</fix>
</trkpt>
<trkpt lat="-27.274439" lon="151.290064">
  <ele>343.1</ele>
  <time>2026-09-01T20:03:13Z</time>
  <course>270.0</course>
  <speed>0.0</speed>
  <fix>3d</fix>
</trkpt>
<trkpt lat="-27.2744392" lon="151.2900641">
  <ele>343.05</ele>
  <time>2026-09-01T20:03:13Z</time>
  <course>11.0</course>
  <speed>0.022360679774997897</speed>
  <fix>3d</fix>
</trkpt>
<trkpt lat="-27.274439" lon="151.290064">
  <ele>343.1</ele>
  <time>2026-09-01T20:03:13Z</time>
  <course>270.0</course>
  <speed>0.0</speed>
  <fix>3d</fix>
</trkpt>
<trkpt lat="-27.2744392" lon="151.2900641">
  <ele>343.05</ele>
  <time>2026-09-01T20:03:13Z</time>
  <course>11.0</course>
  <speed>0.022360679774997897</speed>
  <fix>3d</fix>
</trkpt>
<trkpt lat="-27.274439" lon="151.290064">
  <ele>343.1</ele>
  <time>2026-09-01T20:03:13Z</time>
  <course>270.0</course>
  <speed>0.0</speed>
  <fix>3d</fix>
</trkpt>
<trkpt lat="-27.2744392" lon="151.2900641">
  <ele>343.05</ele>
  <time>2026-09-01T20:03:13Z</time>
  <course>11.0</course>
  <speed>0.022360679774997897</speed>
  <fix>3d</fix>
</trkpt>
<trkpt lat="-27.274439" lon="151.290064">
  <ele>343.1</ele>
  <time>2026-09-01T20:03:13Z</time>
  <course>270.0</course>
  <speed>0.0</speed>
  <fix>3d</fix>
</trkpt>
<trkpt lat="-27.2744392" lon="151.2900641">
  <ele>343.05</ele>
  <time>2026-09-01T20:03:13Z</time>
  <course>11.0</course>
  <speed>0.022360679774997897</speed>
  <fix>3d</fix>
</trkpt>
<trkpt lat="-27.274439" lon="151.290064">
  <ele>343.1</ele>
  <time>2026-09-01T20:03:13Z</time>
  <course>270.0</course>
  <speed>0.0</speed>
  <fix>3d</fix>
</trkpt>
<trkpt lat="-27.2744392" lon="151.2900641">
  <ele>343.05</ele>
  <time>2026-09-01T20:03:13Z</time>
  <course>11.0</course>
  <speed>0.022360679774997897</speed>
  <fix>3d</fix>
</trkpt>
<trkpt lat="-27.274439" lon="151.290064">
  <ele>343.1</ele>
  <time>2026-09-01T20:03:13Z</time>
  <course>270.0</course>
  <speed>0.0</speed>
  <fix>3d</fix>
</trkpt>
<trkpt lat="-27.2744392" lon="151.2900641">
  <ele>343.05</ele>
  <time>2026-09-01T20:03:13Z</time>
  <course>11.01</course>
  <speed>0.022360679774997897</speed>
  <fix>3d</fix>
</trkpt>
<trkpt lat="-27.274439" lon="151.290064">
  <ele>343.1</ele>
  <time>2026-09-01T20:03:13Z</time>
  <course>270.0</course>
  <speed>0.0</speed>
  <fix>3d</fix>
</trkpt>
<trkpt lat="-27.2744392" lon="151.2900641">
  <ele>343.04</ele>
  <time>2026-09-01T20:03:13Z</time>
  <course>11.01</course>
  <speed>0.022360679774997897</speed>
  <fix>3d</fix>
</trkpt>
<trkpt lat="-27.274439" lon="151.290064">
  <ele>343.1</ele>
  <time>2026-09-01T20:03:13Z</time>
  <course>270.0</course>
  <speed>0.0</speed>
  <fix>3d</fix>
</trkpt>
<trkpt lat="-27.2744392" lon="151.2900641">
  <ele>343.04</ele>
  <time>2026-09-01T20:03:13Z</time>
  <course>11.01</course>
  <speed>0.022360679774997897</speed>
  <fix>3d</fix>
</trkpt>
<trkpt lat="-27.274439" lon="151.290064">
  <ele>343.1</ele>
  <time>2026-09-01T20:03:13Z</time>
  <course>270.0</course>
  <speed>0.0</speed>
  <fix>3d</fix>
</trkpt>
<trkpt lat="-27.2744392" lon="151.2900641">
  <ele>343.04</ele>
  <time>2026-09-01T20:03:13Z</time>
  <course>11.01</course>
  <speed>0.022360679774997897</speed>
  <fix>3d</fix>
</trkpt>
<trkpt lat="-27.274439" lon="151.290064">
  <ele>343.1</ele>
  <time>2026-09-01T20:03:13Z</time>
  <course>270.0</course>
  <speed>0.0</speed>
  <fix>3d</fix>
</trkpt>
<trkpt lat="-27.2744392" lon="151.2900641">
  <ele>343.04</ele>
  <time>2026-09-01T20:03:13Z</time>
  <course>11.01</course>
  <speed>0.022360679774997897</speed>
  <fix>3d</fix>
</trkpt>
<trkpt lat="-27.274439" lon="151.290064">
  <ele>343.1</ele>
  <time>2026-09-01T20:03:13Z</time>
  <course>270.0</course>
  <speed>0.0</speed>
  <fix>3d</fix>
</trkpt>
<trkpt lat="-27.2744392" lon="151.2900641">
  <ele>343.04</ele>
  <time>2026-09-01T20:03:13Z</time>
  <course>11.01</course>
  <speed>0.022360679774997897</speed>
  <fix>3d</fix>
</trkpt>
<trkpt lat="-27.274439" lon="151.290064">
  <ele>343.1</ele>
  <time>2026-09-01T20:03:13Z</time>
  <course>270.0</course>
  <speed>0.0</speed>
  <fix>3d</fix>
</trkpt>
<trkpt lat="-27.2744392" lon="151.2900641">
  <ele>343.04</ele>
  <time>2026-09-01T20:03:13Z</time>
  <course>11.01</course>
  <speed>0.022360679774997897</speed>
  <fix>3d</fix>
</trkpt>
<trkpt lat="-27.274439" lon="151.290064">
  <ele>343.1</ele>
  <time>2026-09-01T20:03:13Z</time>
  <course>270.0</course>
  <speed>0.0</speed>
  <fix>3d</fix>
</trkpt>
<trkpt lat="-27.2744392" lon="151.2900641">
  <ele>343.04</ele>
  <time>2026-09-01T20:03:13Z</time>
  <course>11.01</course>
  <speed>0.022360679774997897</speed>
  <fix>3d</fix>
</trkpt>
<trkpt lat="-27.274439" lon="151.290064">
  <ele>343.1</ele>
  <time>2026-09-01T20:03:13Z</time>
  <course>270.0</course>
  <speed>0.0</speed>
  <fix>3d</fix>
</trkpt>
<trkpt lat="-27.2744392" lon="151.2900641">
  <ele>343.04</ele>
  <time>2026-09-01T20:03:13Z</time>
  <course>11.01</course>
  <speed>0.022360679774997897</speed>
  <fix>3d</fix>
</trkpt>
<trkpt lat="-27.274439" lon="151.290064">
  <ele>343.1</ele>
  <time>2026-09-01T20:03:13Z</time>
  <course>270.0</course>
  <speed>0.0</speed>
  <fix>3d</fix>
</trkpt>
<trkpt lat="-27.2744392" lon="151.2900641">
  <ele>343.04</ele>
  <time>2026-09-01T20:03:13Z</time>
  <course>11.02</course>
  <speed>0.022360679774997897</speed>
  <fix>3d</fix>
</trkpt>
<trkpt lat="-27.274439" lon="151.290064">
  <ele>343.1</ele>
  <time>2026-09-01T20:03:13Z</time>
  <course>270.0</course>
  <speed>0.0</speed>
  <fix>3d</fix>
</trkpt>
<trkpt lat="-27.2744392" lon="151.2900641">
  <ele>343.04</ele>
  <time>2026-09-01T20:03:13Z</time>
  <course>11.02</course>
  <speed>0.022360679774997897</speed>
  <fix>3d</fix>
</trkpt>
<trkpt lat="-27.274439" lon="151.290064">
  <ele>343.1</ele>
  <time>2026-09-01T20:03:13Z</time>
  <course>270.0</course>
  <speed>0.0</speed>
  <fix>3d</fix>
</trkpt>
<trkpt lat="-27.2744392" lon="151.2900641">
  <ele>343.04</ele>
  <time>2026-09-01T20:03:13Z</time>
  <course>11.02</course>
  <speed>0.022360679774997897</speed>
  <fix>3d</fix>
</trkpt>
<trkpt lat="-27.274439" lon="151.290064">
  <ele>343.1</ele>
  <time>2026-09-01T20:03:13Z</time>
  <course>270.0</course>
  <speed>0.0</speed>
  <fix>3d</fix>
</trkpt>
<trkpt lat="-27.2744392" lon="151.2900641">
  <ele>343.04</ele>
  <time>2026-09-01T20:03:13Z</time>
  <course>11.02</course>
  <speed>0.022360679774997897</speed>
  <fix>3d</fix>
</trkpt>
<trkpt lat="-27.274439" lon="151.290064">
  <ele>343.1</ele>
  <time>2026-09-01T20:03:13Z</time>
  <course>270.0</course>
  <speed>0.0</speed>
  <fix>3d</fix>
</trkpt>
<trkpt lat="-27.2744392" lon="151.2900641">
  <ele>343.04</ele>
  <time>2026-09-01T20:03:13Z</time>
  <course>11.02</course>
  <speed>0.022360679774997897</speed>
  <fix>3d</fix>
</trkpt>
<trkpt lat="-27.274439" lon="151.290064">
  <ele>343.1</ele>
  <time>2026-09-01T20:03:13Z</time>
  <course>270.0</course>
  <speed>0.0</speed>
  <fix>3d</fix>
</trkpt>
<trkpt lat="-27.2744392" lon="151.2900641">
  <ele>343.04</ele>
  <time>2026-09-01T20:03:13Z</time>
  <course>11.02</course>
  <speed>0.022360679774997897</speed>
  <fix>3d</fix>
</trkpt>
<trkpt lat="-27.274439" lon="151.290064">
  <ele>343.1</ele>
  <time>2026-09-01T20:03:13Z</time>
  <course>270.0</course>
  <speed>0.0</speed>
  <fix>3d</fix>
</trkpt>
<trkpt lat="-27.2744392" lon="151.2900641">
  <ele>343.04</ele>
  <time>2026-09-01T20:03:13Z</time>
  <course>11.02</course>
  <speed>0.022360679774997897</speed>
  <fix>3d</fix>
</trkpt>
<trkpt lat="-27.274439" lon="151.290064">
  <ele>343.1</ele>
  <time>2026-09-01T20:03:13Z</time>
  <course>270.0</course>
  <speed>0.0</speed>
  <fix>3d</fix>
</trkpt>
<trkpt lat="-27.2744392" lon="151.2900641">
  <ele>343.05</ele>
  <time>2026-09-01T20:03:13Z</time>
  <course>11.02</course>
  <speed>0.022360679774997897</speed>
  <fix>3d</fix>
</trkpt>
<trkpt lat="-27.274439" lon="151.290064">
  <ele>343.1</ele>
  <time>2026-09-01T20:03:13Z</time>
  <course>270.0</course>
  <speed>0.0</speed>
  <fix>3d</fix>
</trkpt>
<trkpt lat="-27.2744392" lon="151.2900641">
  <ele>343.05</ele>
  <time>2026-09-01T20:03:13Z</time>
  <course>11.02</course>
  <speed>0.022360679774997897</speed>
  <fix>3d</fix>
</trkpt>
<trkpt lat="-27.274439" lon="151.290064">
  <ele>343.1</ele>
  <time>2026-09-01T20:03:13Z</time>
  <course>270.0</course>
  <speed>0.0</speed>
  <fix>3d</fix>
</trkpt>
<trkpt lat="-27.2744392" lon="151.2900641">
  <ele>343.05</ele>
  <time>2026-09-01T20:03:13Z</time>
  <course>11.02</course>
  <speed>0.022360679774997897</speed>
  <fix>3d</fix>
</trkpt>
<trkpt lat="-27.274439" lon="151.290064">
  <ele>343.1</ele>
  <time>2026-09-01T20:03:13Z</time>
  <course>270.0</course>
  <speed>0.0</speed>
  <fix>3d</fix>
</trkpt>
<trkpt lat="-27.2744392" lon="151.2900641">
  <ele>343.05</ele>
  <time>2026-09-01T20:03:13Z</time>
  <course>11.02</course>
  <speed>0.022360679774997897</speed>
  <fix>3d</fix>
</trkpt>
<trkpt lat="-27.274439" lon="151.290064">
  <ele>343.1</ele>
  <time>2026-09-01T20:03:13Z</time>
  <course>270.0</course>
  <speed>0.0</speed>
  <fix>3d</fix>
</trkpt>
<trkpt lat="-27.2744392" lon="151.2900641">
  <ele>343.1</ele>
  <time>2026-09-01T20:03:13Z</time>
  <course>11.03</course>
  <speed>0.022360679774997897</speed>
  <fix>3d</fix>
</trkpt>
<trkpt lat="-27.274439" lon="151.290064">
  <ele>343.1</ele>
  <time>2026-09-01T20:03:13Z</time>
  <course>270.0</course>
  <speed>0.0</speed>
  <fix>3d</fix>
</trkpt>
<trkpt lat="-27.2744392" lon="151.2900641">
  <ele>343.1</ele>
  <time>2026-09-01T20:03:13Z</time>
  <course>11.03</course>
  <speed>0.022360679774997897</speed>
  <fix>3d</fix>
</trkpt>
<trkpt lat="-27.274439" lon="151.290064">
  <ele>343.1</ele>
  <time>2026-09-01T20:03:13Z</time>
  <course>270.0</course>
  <speed>0.0</speed>
  <fix>3d</fix>
</trkpt>
<trkpt lat="-27.2744392" lon="151.2900641">
  <ele>343.09</ele>
  <time>2026-09-01T20:03:13Z</time>
  <course>11.03</course>
  <speed>0.022360679774997897</speed>
  <fix>3d</fix>
</trkpt>
<trkpt lat="-27.274439" lon="151.290064">
  <ele>343.1</ele>
  <time>2026-09-01T20:03:13Z</time>
  <course>270.0</course>
  <speed>0.0</speed>
  <fix>3d</fix>
</trkpt>
<trkpt lat="-27.2744392" lon="151.2900641">
  <ele>343.09</ele>
  <time>2026-09-01T20:03:13Z</time>
  <course>11.03</course>
  <speed>0.022360679774997897</speed>
  <fix>3d</fix>
</trkpt>
<trkpt lat="-27.274439" lon="151.290064">
  <ele>343.1</ele>
  <time>2026-09-01T20:03:13Z</time>
  <course>270.0</course>
  <speed>0.0</speed>
  <fix>3d</fix>
</trkpt>
<trkpt lat="-27.2744392" lon="151.2900641">
  <ele>343.09</ele>
  <time>2026-09-01T20:03:13Z</time>
  <course>11.03</course>
  <speed>0.022360679774997897</speed>
  <fix>3d</fix>
</trkpt>
<trkpt lat="-27.274439" lon="151.290064">
  <ele>343.1</ele>
  <time>2026-09-01T20:03:13Z</time>
  <course>270.0</course>
  <speed>0.0</speed>
  <fix>3d</fix>
</trkpt>
<trkpt lat="-27.2744392" lon="151.2900641">
  <ele>343.09</ele>
  <time>2026-09-01T20:03:13Z</time>
  <course>11.03</course>
  <speed>0.022360679774997897</speed>
  <fix>3d</fix>
</trkpt>
<trkpt lat="-27.274439" lon="151.290064">
  <ele>343.1</ele>
  <time>2026-09-01T20:03:13Z</time>
  <course>270.0</course>
  <speed>0.0</speed>
  <fix>3d</fix>
</trkpt>
<trkpt lat="-27.2744392" lon="151.2900641">
  <ele>343.09</ele>
  <time>2026-09-01T20:03:13Z</time>
  <course>11.03</course>
  <speed>0.022360679774997897</speed>
  <fix>3d</fix>
</trkpt>
<trkpt lat="-27.274439" lon="151.290064">
  <ele>343.1</ele>
  <time>2026-09-01T20:03:13Z</time>
  <course>270.0</course>
  <speed>0.0</speed>
  <fix>3d</fix>
</trkpt>
<trkpt lat="-27.2744392" lon="151.2900641">
  <ele>343.09</ele>
  <time>2026-09-01T20:03:13Z</time>
  <course>11.03</course>
  <speed>0.022360679774997897</speed>
  <fix>3d</fix>
</trkpt>
<trkpt lat="-27.274439" lon="151.290064">
  <ele>343.1</ele>
  <time>2026-09-01T20:03:13Z</time>
  <course>270.0</course>
  <speed>0.0</speed>
  <fix>3d</fix>
</trkpt>
<trkpt lat="-27.2744392" lon="151.2900641">
  <ele>343.09</ele>
  <time>2026-09-01T20:03:13Z</time>
  <course>11.03</course>
  <speed>0.022360679774997897</speed>
  <fix>3d</fix>
</trkpt>
<trkpt lat="-27.274439" lon="151.290064">
  <ele>343.1</ele>
  <time>2026-09-01T20:03:13Z</time>
  <course>270.0</course>
  <speed>0.0</speed>
  <fix>3d</fix>
</trkpt>
<trkpt lat="-27.2744392" lon="151.2900641">
  <ele>343.08</ele>
  <time>2026-09-01T20:03:13Z</time>
  <course>11.03</course>
  <speed>0.022360679774997897</speed>
  <fix>3d</fix>
</trkpt>
<trkpt lat="-27.274439" lon="151.290064">
  <ele>343.1</ele>
  <time>2026-09-01T20:03:13Z</time>
  <course>270.0</course>
  <speed>0.0</speed>
  <fix>3d</fix>
</trkpt>
<trkpt lat="-27.2744392" lon="151.2900641">
  <ele>343.08</ele>
  <time>2026-09-01T20:03:13Z</time>
  <course>11.03</course>
  <speed>0.022360679774997897</speed>
  <fix>3d</fix>
</trkpt>
<trkpt lat="-27.274439" lon="151.290064">
  <ele>343.1</ele>
  <time>2026-09-01T20:03:13Z</time>
  <course>270.0</course>
  <speed>0.0</speed>
  <fix>3d</fix>
</trkpt>
<trkpt lat="-27.2744392" lon="151.2900641">
  <ele>343.07</ele>
  <time>2026-09-01T20:03:13Z</time>
  <course>11.04</course>
  <speed>0.022360679774997897</speed>
  <fix>3d</fix>
</trkpt>
<trkpt lat="-27.274439" lon="151.290064">
  <ele>343.1</ele>
  <time>2026-09-01T20:03:13Z</time>
  <course>270.0</course>
  <speed>0.0</speed>
  <fix>3d</fix>
</trkpt>
<trkpt lat="-27.2744392" lon="151.2900641">
  <ele>343.07</ele>
  <time>2026-09-01T20:03:13Z</time>
  <course>11.04</course>
  <speed>0.022360679774997897</speed>
  <fix>3d</fix>
</trkpt>
<trkpt lat="-27.274439" lon="151.290064">
  <ele>343.1</ele>
  <time>2026-09-01T20:03:13Z</time>
  <course>270.0</course>
  <speed>0.0</speed>
  <fix>3d</fix>
</trkpt>
<trkpt lat="-27.2744392" lon="151.2900641">
  <ele>343.06</ele>
  <time>2026-09-01T20:03:13Z</time>
  <course>11.04</course>
  <speed>0.022360679774997897</speed>
  <fix>3d</fix>
</trkpt>
<trkpt lat="-27.274439" lon="151.290064">
  <ele>343.1</ele>
  <time>2026-09-01T20:03:13Z</time>
  <course>270.0</course>
  <speed>0.0</speed>
  <fix>3d</fix>
</trkpt>
<trkpt lat="-27.2744392" lon="151.2900641">
  <ele>343.06</ele>
  <time>2026-09-01T20:03:13Z</time>
  <course>11.04</course>
  <speed>0.022360679774997897</speed>
  <fix>3d</fix>
</trkpt>
<trkpt lat="-27.274439" lon="151.290064">
  <ele>343.1</ele>
  <time>2026-09-01T20:03:13Z</time>
  <course>270.0</course>
  <speed>0.0</speed>
  <fix>3d</fix>
</trkpt>
<trkpt lat="-27.2744392" lon="151.2900641">
  <ele>343.05</ele>
  <time>2026-09-01T20:03:13Z</time>
  <course>11.04</course>
  <speed>0.022360679774997897</speed>
  <fix>3d</fix>
</trkpt>
<trkpt lat="-27.274439" lon="151.290064">
  <ele>343.1</ele>
  <time>2026-09-01T20:03:13Z</time>
  <course>270.0</course>
  <speed>0.0</speed>
  <fix>3d</fix>
</trkpt>
<trkpt lat="-27.2744392" lon="151.2900641">
  <ele>343.05</ele>
  <time>2026-09-01T20:03:13Z</time>
  <course>11.04</course>
  <speed>0.022360679774997897</speed>
  <fix>3d</fix>
</trkpt>
<trkpt lat="-27.274439" lon="151.290064">
  <ele>343.1</ele>
  <time>2026-09-01T20:03:13Z</time>
  <course>270.0</course>
  <speed>0.0</speed>
  <fix>3d</fix>
</trkpt>
<trkpt lat="-27.2744392" lon="151.2900641">
  <ele>343.05</ele>
  <time>2026-09-01T20:03:13Z</time>
  <course>11.04</course>
  <speed>0.022360679774997897</speed>
  <fix>3d</fix>
</trkpt>
<trkpt lat="-27.274439" lon="151.290064">
  <ele>343.1</ele>
  <time>2026-09-01T20:03:13Z</time>
  <course>270.0</course>
  <speed>0.0</speed>
  <fix>3d</fix>
</trkpt>
<trkpt lat="-27.2744392" lon="151.2900641">
  <ele>343.05</ele>
  <time>2026-09-01T20:03:13Z</time>
  <course>11.04</course>
  <speed>0.022360679774997897</speed>
  <fix>3d</fix>
</trkpt>
<trkpt lat="-27.274439" lon="151.290064">
  <ele>343.1</ele>
  <time>2026-09-01T20:03:13Z</time>
  <course>270.0</course>
  <speed>0.0</speed>
  <fix>3d</fix>
</trkpt>
<trkpt lat="-27.2744392" lon="151.2900641">
  <ele>343.05</ele>
  <time>2026-09-01T20:03:13Z</time>
  <course>11.04</course>
  <speed>0.022360679774997897</speed>
  <fix>3d</fix>
</trkpt>
<trkpt lat="-27.274439" lon="151.290064">
  <ele>343.1</ele>
  <time>2026-09-01T20:03:13Z</time>
  <course>270.0</course>
  <speed>0.0</speed>
  <fix>3d</fix>
</trkpt>
<trkpt lat="-27.2744392" lon="151.2900641">
  <ele>343.05</ele>
  <time>2026-09-01T20:03:13Z</time>
  <course>11.04</course>
  <speed>0.022360679774997897</speed>
  <fix>3d</fix>
</trkpt>
<trkpt lat="-27.274439" lon="151.290064">
  <ele>343.1</ele>
  <time>2026-09-01T20:03:13Z</time>
  <course>270.0</course>
  <speed>0.0</speed>
  <fix>3d</fix>
</trkpt>
<trkpt lat="-27.2744392" lon="151.2900641">
  <ele>343.05</ele>
  <time>2026-09-01T20:03:13Z</time>
  <course>11.04</course>
  <speed>0.022360679774997897</speed>
  <fix>3d</fix>
</trkpt>
<trkpt lat="-27.274439" lon="151.290064">
  <ele>343.1</ele>
  <time>2026-09-01T20:03:13Z</time>
  <course>270.0</course>
  <speed>0.0</speed>
  <fix>3d</fix>
</trkpt>
<trkpt lat="-27.2744392" lon="151.2900641">
  <ele>343.04</ele>
  <time>2026-09-01T20:03:13Z</time>
  <course>11.05</course>
  <speed>0.022360679774997897</speed>
  <fix>3d</fix>
</trkpt>
<trkpt lat="-27.274439" lon="151.290064">
  <ele>343.1</ele>
  <time>2026-09-01T20:03:13Z</time>
  <course>270.0</course>
  <speed>0.0</speed>
  <fix>3d</fix>
</trkpt>
<trkpt lat="-27.2744392" lon="151.2900641">
  <ele>343.04</ele>
  <time>2026-09-01T20:03:13Z</time>
  <course>11.05</course>
  <speed>0.022360679774997897</speed>
  <fix>3d</fix>
</trkpt>
<trkpt lat="-27.274439" lon="151.290064">
  <ele>343.1</ele>
  <time>2026-09-01T20:03:13Z</time>
  <course>270.0</course>
  <speed>0.0</speed>
  <fix>3d</fix>
</trkpt>
<trkpt lat="-27.2744392" lon="151.2900641">
  <ele>343.04</ele>
  <time>2026-09-01T20:03:13Z</time>
  <course>11.05</course>
  <speed>0.022360679774997897</speed>
  <fix>3d</fix>
</trkpt>
<trkpt lat="-27.274439" lon="151.290064">
  <ele>343.1</ele>
  <time>2026-09-01T20:03:13Z</time>
  <course>270.0</course>
  <speed>0.0</speed>
  <fix>3d</fix>
</trkpt>
<trkpt lat="-27.2744392" lon="151.2900641">
  <ele>343.04</ele>
  <time>2026-09-01T20:03:13Z</time>
  <course>11.05</course>
  <speed>0.022360679774997897</speed>
  <fix>3d</fix>
</trkpt>
<trkpt lat="-27.274439" lon="151.290064">
  <ele>343.1</ele>
  <time>2026-09-01T20:03:13Z</time>
  <course>270.0</course>
  <speed>0.0</speed>
  <fix>3d</fix>
</trkpt>
<trkpt lat="-27.2744392" lon="151.2900641">
  <ele>343.04</ele>
  <time>2026-09-01T20:03:13Z</time>
  <course>11.05</course>
  <speed>0.022360679774997897</speed>
  <fix>3d</fix>
</trkpt>
<trkpt lat="-27.274439" lon="151.290064">
  <ele>343.1</ele>
  <time>2026-09-01T20:03:13Z</time>
  <course>270.0</course>
  <speed>0.0</speed>
  <fix>3d</fix>
</trkpt>
<trkpt lat="-27.2744392" lon="151.2900641">
  <ele>343.04</ele>
  <time>2026-09-01T20:03:13Z</time>
  <course>11.05</course>
  <speed>0.022360679774997897</speed>
  <fix>3d</fix>
</trkpt>
<trkpt lat="-27.274439" lon="151.290064">
  <ele>343.1</ele>
  <time>2026-09-01T20:03:13Z</time>
  <course>270.0</course>
  <speed>0.0</speed>
  <fix>3d</fix>
</trkpt>
<trkpt lat="-27.2744392" lon="151.2900641">
  <ele>343.03</ele>
  <time>2026-09-01T20:03:13Z</time>
  <course>11.05</course>
  <speed>0.022360679774997897</speed>
  <fix>3d</fix>
</trkpt>
<trkpt lat="-27.274439" lon="151.290064">
  <ele>343.1</ele>
  <time>2026-09-01T20:03:13Z</time>
  <course>270.0</course>
  <speed>0.0</speed>
  <fix>3d</fix>
</trkpt>
<trkpt lat="-27.2744392" lon="151.2900641">
  <ele>343.03</ele>
  <time>2026-09-01T20:03:13Z</time>
  <course>11.05</course>
  <speed>0.022360679774997897</speed>
  <fix>3d</fix>
</trkpt>
<trkpt lat="-27.274439" lon="151.290064">
  <ele>343.1</ele>
  <time>2026-09-01T20:03:13Z</time>
  <course>270.0</course>
  <speed>0.0</speed>
  <fix>3d</fix>
</trkpt>
<trkpt lat="-27.2744392" lon="151.2900641">
  <ele>343.03</ele>
  <time>2026-09-01T20:03:13Z</time>
  <course>11.05</course>
  <speed>0.022360679774997897</speed>
  <fix>3d</fix>
</trkpt>
<trkpt lat="-27.274439" lon="151.290064">
  <ele>343.1</ele>
  <time>2026-09-01T20:03:13Z</time>
  <course>270.0</course>
  <speed>0.0</speed>
  <fix>3d</fix>
</trkpt>
<trkpt lat="-27.2744392" lon="151.2900641">
  <ele>343.03</ele>
  <time>2026-09-01T20:03:13Z</time>
  <course>11.05</course>
  <speed>0.022360679774997897</speed>
  <fix>3d</fix>
</trkpt>
<trkpt lat="-27.274439" lon="151.290064">
  <ele>343.1</ele>
  <time>2026-09-01T20:03:13Z</time>
  <course>270.0</course>
  <speed>0.0</speed>
  <fix>3d</fix>
</trkpt>
<trkpt lat="-27.2744392" lon="151.2900641">
  <ele>343.03</ele>
  <time>2026-09-01T20:03:13Z</time>
  <course>11.05</course>
  <speed>0.022360679774997897</speed>
  <fix>3d</fix>
</trkpt>
<trkpt lat="-27.274439" lon="151.290064">
  <ele>343.1</ele>
  <time>2026-09-01T20:03:13Z</time>
  <course>270.0</course>
  <speed>0.0</speed>
  <fix>3d</fix>
</trkpt>
<trkpt lat="-27.2744392" lon="151.2900641">
  <ele>343.03</ele>
  <time>2026-09-01T20:03:13Z</time>
  <course>11.06</course>
  <speed>0.022360679774997897</speed>
  <fix>3d</fix>
</trkpt>
<trkpt lat="-27.274439" lon="151.290064">
  <ele>343.1</ele>
  <time>2026-09-01T20:03:13Z</time>
  <course>270.0</course>
  <speed>0.0</speed>
  <fix>3d</fix>
</trkpt>
<trkpt lat="-27.2744392" lon="151.2900641">
  <ele>343.03</ele>
  <time>2026-09-01T20:03:13Z</time>
  <course>11.06</course>
  <speed>0.022360679774997897</speed>
  <fix>3d</fix>
</trkpt>
<trkpt lat="-27.274439" lon="151.290064">
  <ele>343.1</ele>
  <time>2026-09-01T20:03:13Z</time>
  <course>270.0</course>
  <speed>0.0</speed>
  <fix>3d</fix>
</trkpt>
<trkpt lat="-27.2744392" lon="151.2900641">
  <ele>343.03</ele>
  <time>2026-09-01T20:03:13Z</time>
  <course>11.06</course>
  <speed>0.022360679774997897</speed>
  <fix>3d</fix>
</trkpt>
<trkpt lat="-27.274439" lon="151.290064">
  <ele>343.1</ele>
  <time>2026-09-01T20:03:13Z</time>
  <course>270.0</course>
  <speed>0.0</speed>
  <fix>3d</fix>
</trkpt>
<trkpt lat="-27.2744392" lon="151.2900641">
  <ele>343.03</ele>
  <time>2026-09-01T20:03:13Z</time>
  <course>11.06</course>
  <speed>0.022360679774997897</speed>
  <fix>3d</fix>
</trkpt>
<trkpt lat="-27.274439" lon="151.290064">
  <ele>343.1</ele>
  <time>2026-09-01T20:03:13Z</time>
  <course>270.0</course>
  <speed>0.0</speed>
  <fix>3d</fix>
</trkpt>
<trkpt lat="-27.2744392" lon="151.2900641">
  <ele>343.03</ele>
  <time>2026-09-01T20:03:13Z</time>
  <course>11.06</course>
  <speed>0.022360679774997897</speed>
  <fix>3d</fix>
</trkpt>
<trkpt lat="-27.274439" lon="151.290064">
  <ele>343.1</ele>
  <time>2026-09-01T20:03:13Z</time>
  <course>270.0</course>
  <speed>0.0</speed>
  <fix>3d</fix>
</trkpt>
<trkpt lat="-27.2744392" lon="151.2900641">
  <ele>343.03</ele>
  <time>2026-09-01T20:03:13Z</time>
  <course>11.06</course>
  <speed>0.022360679774997897</speed>
  <fix>3d</fix>
</trkpt>
<trkpt lat="-27.274439" lon="151.290064">
  <ele>343.1</ele>
  <time>2026-09-01T20:03:13Z</time>
  <course>270.0</course>
  <speed>0.0</speed>
  <fix>3d</fix>
</trkpt>
<trkpt lat="-27.2744392" lon="151.2900641">
  <ele>343.04</ele>
  <time>2026-09-01T20:03:13Z</time>
  <course>11.06</course>
  <speed>0.022360679774997897</speed>
  <fix>3d</fix>
</trkpt>
<trkpt lat="-27.274439" lon="151.290064">
  <ele>343.1</ele>
  <time>2026-09-01T20:03:13Z</time>
  <course>270.0</course>
  <speed>0.0</speed>
  <fix>3d</fix>
</trkpt>
<trkpt lat="-27.2744392" lon="151.2900641">
  <ele>343.03</ele>
  <time>2026-09-01T20:03:13Z</time>
  <course>11.06</course>
  <speed>0.022360679774997897</speed>
  <fix>3d</fix>
</trkpt>
<trkpt lat="-27.274439" lon="151.290064">
  <ele>343.1</ele>
  <time>2026-09-01T20:03:13Z</time>
  <course>270.0</course>
  <speed>0.0</speed>
  <fix>3d</fix>
</trkpt>
<trkpt lat="-27.2744392" lon="151.2900641">
  <ele>343.03</ele>
  <time>2026-09-01T20:03:13Z</time>
  <course>11.06</course>
  <speed>0.022360679774997897</speed>
  <fix>3d</fix>
</trkpt>
<trkpt lat="-27.274439" lon="151.290064">
  <ele>343.1</ele>
  <time>2026-09-01T20:03:13Z</time>
  <course>270.0</course>
  <speed>0.0</speed>
  <fix>3d</fix>
</trkpt>
<trkpt lat="-27.2744392" lon="151.2900641">
  <ele>343.03</ele>
  <time>2026-09-01T20:03:13Z</time>
  <course>11.06</course>
  <speed>0.022360679774997897</speed>
  <fix>3d</fix>
</trkpt>
<trkpt lat="-27.274439" lon="151.290064">
  <ele>343.1</ele>
  <time>2026-09-01T20:03:13Z</time>
  <course>270.0</course>
  <speed>0.0</speed>
  <fix>3d</fix>
</trkpt>
<trkpt lat="-27.2744392" lon="151.2900641">
  <ele>343.03</ele>
  <time>2026-09-01T20:03:13Z</time>
  <course>11.07</course>
  <speed>0.022360679774997897</speed>
  <fix>3d</fix>
</trkpt>
<trkpt lat="-27.274439" lon="151.290064">
  <ele>343.1</ele>
  <time>2026-09-01T20:03:13Z</time>
  <course>270.0</course>
  <speed>0.0</speed>
  <fix>3d</fix>
</trkpt>
<trkpt lat="-27.2744392" lon="151.2900641">
  <ele>343.03</ele>
  <time>2026-09-01T20:03:13Z</time>
  <course>11.07</course>
  <speed>0.022360679774997897</speed>
  <fix>3d</fix>
</trkpt>
<trkpt lat="-27.274439" lon="151.290064">
  <ele>343.1</ele>
  <time>2026-09-01T20:03:13Z</time>
  <course>270.0</course>
  <speed>0.0</speed>
  <fix>3d</fix>
</trkpt>
<trkpt lat="-27.2744392" lon="151.2900641">
  <ele>343.03</ele>
  <time>2026-09-01T20:03:13Z</time>
  <course>11.07</course>
  <speed>0.022360679774997897</speed>
  <fix>3d</fix>
</trkpt>
<trkpt lat="-27.274439" lon="151.290064">
  <ele>343.1</ele>
  <time>2026-09-01T20:03:13Z</time>
  <course>270.0</course>
  <speed>0.0</speed>
  <fix>3d</fix>
</trkpt>
<trkpt lat="-27.2744392" lon="151.2900641">
  <ele>343.02</ele>
  <time>2026-09-01T20:03:13Z</time>
  <course>11.07</course>
  <speed>0.022360679774997897</speed>
  <fix>3d</fix>
</trkpt>
<trkpt lat="-27.274439" lon="151.290064">
  <ele>343.1</ele>
  <time>2026-09-01T20:03:13Z</time>
  <course>270.0</course>
  <speed>0.0</speed>
  <fix>3d</fix>
</trkpt>
<trkpt lat="-27.2744392" lon="151.2900641">
  <ele>343.02</ele>
  <time>2026-09-01T20:03:13Z</time>
  <course>11.07</course>
  <speed>0.022360679774997897</speed>
  <fix>3d</fix>
</trkpt>
<trkpt lat="-27.274439" lon="151.290064">
  <ele>343.1</ele>
  <time>2026-09-01T20:03:13Z</time>
  <course>270.0</course>
  <speed>0.0</speed>
  <fix>3d</fix>
</trkpt>
<trkpt lat="-27.2744392" lon="151.2900641">
  <ele>343.02</ele>
  <time>2026-09-01T20:03:13Z</time>
  <course>11.07</course>
  <speed>0.022360679774997897</speed>
  <fix>3d</fix>
</trkpt>
<trkpt lat="-27.274439" lon="151.290064">
  <ele>343.1</ele>
  <time>2026-09-01T20:03:13Z</time>
  <course>270.0</course>
  <speed>0.0</speed>
  <fix>3d</fix>
</trkpt>
<trkpt lat="-27.2744392" lon="151.2900641">
  <ele>343.01</ele>
  <time>2026-09-01T20:03:13Z</time>
  <course>11.07</course>
  <speed>0.022360679774997897</speed>
  <fix>3d</fix>
</trkpt>
<trkpt lat="-27.274439" lon="151.290064">
  <ele>343.1</ele>
  <time>2026-09-01T20:03:13Z</time>
  <course>270.0</course>
  <speed>0.0</speed>
  <fix>3d</fix>
</trkpt>
<trkpt lat="-27.2744392" lon="151.2900641">
  <ele>343.01</ele>
  <time>2026-09-01T20:03:13Z</time>
  <course>11.07</course>
  <speed>0.022360679774997897</speed>
  <fix>3d</fix>
</trkpt>
<trkpt lat="-27.274439" lon="151.290064">
  <ele>343.1</ele>
  <time>2026-09-01T20:03:13Z</time>
  <course>270.0</course>
  <speed>0.0</speed>
  <fix>3d</fix>
</trkpt>
<trkpt lat="-27.2744392" lon="151.2900641">
  <ele>343.01</ele>
  <time>2026-09-01T20:03:13Z</time>
  <course>11.07</course>
  <speed>0.022360679774997897</speed>
  <fix>3d</fix>
</trkpt>
<trkpt lat="-27.274439" lon="151.290064">
  <ele>343.1</ele>
  <time>2026-09-01T20:03:13Z</time>
  <course>270.0</course>
  <speed>0.0</speed>
  <fix>3d</fix>
</trkpt>
<trkpt lat="-27.2744392" lon="151.2900641">
  <ele>343.01</ele>
  <time>2026-09-01T20:03:13Z</time>
  <course>11.07</course>
  <speed>0.022360679774997897</speed>
  <fix>3d</fix>
</trkpt>
<trkpt lat="-27.274439" lon="151.290064">
  <ele>343.1</ele>
  <time>2026-09-01T20:03:13Z</time>
  <course>270.0</course>
  <speed>0.0</speed>
  <fix>3d</fix>
</trkpt>
<trkpt lat="-27.2744392" lon="151.2900641">
  <ele>343.0</ele>
  <time>2026-09-01T20:03:13Z</time>
  <course>11.08</course>
  <speed>0.022360679774997897</speed>
  <fix>3d</fix>
</trkpt>
<trkpt lat="-27.274439" lon="151.290064">
  <ele>343.1</ele>
  <time>2026-09-01T20:03:13Z</time>
  <course>270.0</course>
  <speed>0.0</speed>
  <fix>3d</fix>
</trkpt>
<trkpt lat="-27.2744392" lon="151.2900641">
  <ele>343.0</ele>
  <time>2026-09-01T20:03:13Z</time>
  <course>11.08</course>
  <speed>0.022360679774997897</speed>
  <fix>3d</fix>
</trkpt>
<trkpt lat="-27.274439" lon="151.290064">
  <ele>343.1</ele>
  <time>2026-09-01T20:03:13Z</time>
  <course>270.0</course>
  <speed>0.0</speed>
  <fix>3d</fix>
</trkpt>
<trkpt lat="-27.2744392" lon="151.2900641">
  <ele>343.0</ele>
  <time>2026-09-01T20:03:13Z</time>
  <course>11.08</course>
  <speed>0.022360679774997897</speed>
  <fix>3d</fix>
</trkpt>
<trkpt lat="-27.274439" lon="151.290064">
  <ele>343.1</ele>
  <time>2026-09-01T20:03:13Z</time>
  <course>270.0</course>
  <speed>0.0</speed>
  <fix>3d</fix>
</trkpt>
<trkpt lat="-27.2744392" lon="151.2900641">
  <ele>342.99</ele>
  <time>2026-09-01T20:03:13Z</time>
  <course>11.08</course>
  <speed>0.022360679774997897</speed>
  <fix>3d</fix>
</trkpt>
<trkpt lat="-27.274439" lon="151.290064">
  <ele>343.1</ele>
  <time>2026-09-01T20:03:13Z</time>
  <course>270.0</course>
  <speed>0.0</speed>
  <fix>3d</fix>
</trkpt>
<trkpt lat="-27.2744392" lon="151.2900641">
  <ele>342.99</ele>
  <time>2026-09-01T20:03:13Z</time>
  <course>11.08</course>
  <speed>0.022360679774997897</speed>
  <fix>3d</fix>
</trkpt>
<trkpt lat="-27.274439" lon="151.290064">
  <ele>343.1</ele>
  <time>2026-09-01T20:03:13Z</time>
  <course>270.0</course>
  <speed>0.0</speed>
  <fix>3d</fix>
</trkpt>
<trkpt lat="-27.2744392" lon="151.2900641">
  <ele>342.99</ele>
  <time>2026-09-01T20:03:13Z</time>
  <course>11.08</course>
  <speed>0.022360679774997897</speed>
  <fix>3d</fix>
</trkpt>
<trkpt lat="-27.274439" lon="151.290064">
  <ele>343.1</ele>
  <time>2026-09-01T20:03:13Z</time>
  <course>270.0</course>
  <speed>0.0</speed>
  <fix>3d</fix>
</trkpt>
<trkpt lat="-27.2744392" lon="151.2900641">
  <ele>342.99</ele>
  <time>2026-09-01T20:03:13Z</time>
  <course>11.08</course>
  <speed>0.022360679774997897</speed>
  <fix>3d</fix>
</trkpt>
<trkpt lat="-27.274439" lon="151.290064">
  <ele>343.1</ele>
  <time>2026-09-01T20:03:13Z</time>
  <course>270.0</course>
  <speed>0.0</speed>
  <fix>3d</fix>
</trkpt>
<trkpt lat="-27.2744392" lon="151.2900641">
  <ele>343.09</ele>
  <time>2026-09-01T20:03:13Z</time>
  <course>11.08</course>
  <speed>0.022360679774997897</speed>
  <fix>3d</fix>
</trkpt>
<trkpt lat="-27.274439" lon="151.290064">
  <ele>343.1</ele>
  <time>2026-09-01T20:03:13Z</time>
  <course>270.0</course>
  <speed>0.0</speed>
  <fix>3d</fix>
</trkpt>
<trkpt lat="-27.2744392" lon="151.2900641">
  <ele>343.09</ele>
  <time>2026-09-01T20:03:13Z</time>
  <course>11.08</course>
  <speed>0.022360679774997897</speed>
  <fix>3d</fix>
</trkpt>
<trkpt lat="-27.274439" lon="151.290064">
  <ele>343.1</ele>
  <time>2026-09-01T20:03:13Z</time>
  <course>270.0</course>
  <speed>0.0</speed>
  <fix>3d</fix>
</trkpt>
<trkpt lat="-27.2744392" lon="151.2900641">
  <ele>343.09</ele>
  <time>2026-09-01T20:03:13Z</time>
  <course>11.08</course>
  <speed>0.022360679774997897</speed>
  <fix>3d</fix>
</trkpt>
<trkpt lat="-27.274439" lon="151.290064">
  <ele>343.1</ele>
  <time>2026-09-01T20:03:13Z</time>
  <course>270.0</course>
  <speed>0.0</speed>
  <fix>3d</fix>
</trkpt>
<trkpt lat="-27.2744392" lon="151.2900641">
  <ele>343.09</ele>
  <time>2026-09-01T20:03:13Z</time>
  <course>11.09</course>
  <speed>0.022360679774997897</speed>
  <fix>3d</fix>
</trkpt>
<trkpt lat="-27.274439" lon="151.290064">
  <ele>343.1</ele>
  <time>2026-09-01T20:03:13Z</time>
  <course>270.0</course>
  <speed>0.0</speed>
  <fix>3d</fix>
</trkpt>
<trkpt lat="-27.2744392" lon="151.2900641">
  <ele>343.09</ele>
  <time>2026-09-01T20:03:13Z</time>
  <course>11.09</course>
  <speed>0.022360679774997897</speed>
  <fix>3d</fix>
</trkpt>
<trkpt lat="-27.274439" lon="151.290064">
  <ele>343.1</ele>
  <time>2026-09-01T20:03:13Z</time>
  <course>270.0</course>
  <speed>0.0</speed>
  <fix>3d</fix>
</trkpt>
<trkpt lat="-27.2744392" lon="151.2900641">
  <ele>343.08</ele>
  <time>2026-09-01T20:03:13Z</time>
  <course>11.09</course>
  <speed>0.022360679774997897</speed>
  <fix>3d</fix>
</trkpt>
<trkpt lat="-27.274439" lon="151.290064">
  <ele>343.1</ele>
  <time>2026-09-01T20:03:13Z</time>
  <course>270.0</course>
  <speed>0.0</speed>
  <fix>3d</fix>
</trkpt>
<trkpt lat="-27.2744392" lon="151.2900641">
  <ele>343.08</ele>
  <time>2026-09-01T20:03:13Z</time>
  <course>11.09</course>
  <speed>0.022360679774997897</speed>
  <fix>3d</fix>
</trkpt>
<trkpt lat="-27.274439" lon="151.290064">
  <ele>343.1</ele>
  <time>2026-09-01T20:03:13Z</time>
  <course>270.0</course>
  <speed>0.0</speed>
  <fix>3d</fix>
</trkpt>
<trkpt lat="-27.2744392" lon="151.2900641">
  <ele>343.08</ele>
  <time>2026-09-01T20:03:13Z</time>
  <course>11.09</course>
  <speed>0.022360679774997897</speed>
  <fix>3d</fix>
</trkpt>
<trkpt lat="-27.274439" lon="151.290064">
  <ele>343.1</ele>
  <time>2026-09-01T20:03:13Z</time>
  <course>270.0</course>
  <speed>0.0</speed>
  <fix>3d</fix>
</trkpt>
<trkpt lat="-27.2744392" lon="151.2900641">
  <ele>343.08</ele>
  <time>2026-09-01T20:03:13Z</time>
  <course>11.09</course>
  <speed>0.022360679774997897</speed>
  <fix>3d</fix>
</trkpt>
<trkpt lat="-27.274439" lon="151.290064">
  <ele>343.1</ele>
  <time>2026-09-01T20:03:13Z</time>
  <course>270.0</course>
  <speed>0.0</speed>
  <fix>3d</fix>
</trkpt>
<trkpt lat="-27.2744392" lon="151.2900641">
  <ele>343.08</ele>
  <time>2026-09-01T20:03:13Z</time>
  <course>11.09</course>
  <speed>0.022360679774997897</speed>
  <fix>3d</fix>
</trkpt>
<trkpt lat="-27.274439" lon="151.290064">
  <ele>343.1</ele>
  <time>2026-09-01T20:03:13Z</time>
  <course>270.0</course>
  <speed>0.0</speed>
  <fix>3d</fix>
</trkpt>
<trkpt lat="-27.2744392" lon="151.2900641">
  <ele>343.08</ele>
  <time>2026-09-01T20:03:13Z</time>
  <course>11.09</course>
  <speed>0.022360679774997897</speed>
  <fix>3d</fix>
</trkpt>
<trkpt lat="-27.274439" lon="151.290064">
  <ele>343.1</ele>
  <time>2026-09-01T20:03:13Z</time>
  <course>270.0</course>
  <speed>0.0</speed>
  <fix>3d</fix>
</trkpt>
<trkpt lat="-27.2744392" lon="151.2900641">
  <ele>343.08</ele>
  <time>2026-09-01T20:03:13Z</time>
  <course>11.09</course>
  <speed>0.022360679774997897</speed>
  <fix>3d</fix>
</trkpt>
<trkpt lat="-27.274439" lon="151.290064">
  <ele>343.1</ele>
  <time>2026-09-01T20:03:13Z</time>
  <course>270.0</course>
  <speed>0.0</speed>
  <fix>3d</fix>
</trkpt>
<trkpt lat="-27.2744392" lon="151.2900641">
  <ele>343.08</ele>
  <time>2026-09-01T20:03:13Z</time>
  <course>11.09</course>
  <speed>0.022360679774997897</speed>
  <fix>3d</fix>
</trkpt>
<trkpt lat="-27.274439" lon="151.290064">
  <ele>343.1</ele>
  <time>2026-09-01T20:03:13Z</time>
  <course>270.0</course>
  <speed>0.0</speed>
  <fix>3d</fix>
</trkpt>
<trkpt lat="-27.2744392" lon="151.2900641">
  <ele>343.08</ele>
  <time>2026-09-01T20:03:13Z</time>
  <course>11.1</course>
  <speed>0.022360679774997897</speed>
  <fix>3d</fix>
</trkpt>
<trkpt lat="-27.274439" lon="151.290064">
  <ele>343.1</ele>
  <time>2026-09-01T20:03:13Z</time>
  <course>270.0</course>
  <speed>0.0</speed>
  <fix>3d</fix>
</trkpt>
<trkpt lat="-27.2744392" lon="151.2900641">
  <ele>343.08</ele>
  <time>2026-09-01T20:03:13Z</time>
  <course>11.1</course>
  <speed>0.022360679774997897</speed>
  <fix>3d</fix>
</trkpt>
<trkpt lat="-27.274439" lon="151.290064">
  <ele>343.1</ele>
  <time>2026-09-01T20:03:13Z</time>
  <course>270.0</course>
  <speed>0.0</speed>
  <fix>3d</fix>
</trkpt>
<trkpt lat="-27.2744392" lon="151.2900641">
  <ele>343.08</ele>
  <time>2026-09-01T20:03:13Z</time>
  <course>11.1</course>
  <speed>0.022360679774997897</speed>
  <fix>3d</fix>
</trkpt>
<trkpt lat="-27.274439" lon="151.290064">
  <ele>343.1</ele>
  <time>2026-09-01T20:03:13Z</time>
  <course>270.0</course>
  <speed>0.0</speed>
  <fix>3d</fix>
</trkpt>
<trkpt lat="-27.2744392" lon="151.2900641">
  <ele>343.08</ele>
  <time>2026-09-01T20:03:13Z</time>
  <course>11.1</course>
  <speed>0.022360679774997897</speed>
  <fix>3d</fix>
</trkpt>
<trkpt lat="-27.274439" lon="151.290064">
  <ele>343.1</ele>
  <time>2026-09-01T20:03:13Z</time>
  <course>270.0</course>
  <speed>0.0</speed>
  <fix>3d</fix>
</trkpt>
<trkpt lat="-27.2744392" lon="151.2900641">
  <ele>343.07</ele>
  <time>2026-09-01T20:03:13Z</time>
  <course>11.1</course>
  <speed>0.022360679774997897</speed>
  <fix>3d</fix>
</trkpt>
<trkpt lat="-27.274439" lon="151.290064">
  <ele>343.1</ele>
  <time>2026-09-01T20:03:13Z</time>
  <course>270.0</course>
  <speed>0.0</speed>
  <fix>3d</fix>
</trkpt>
<trkpt lat="-27.2744392" lon="151.2900641">
  <ele>343.07</ele>
  <time>2026-09-01T20:03:13Z</time>
  <course>11.1</course>
  <speed>0.022360679774997897</speed>
  <fix>3d</fix>
</trkpt>
<trkpt lat="-27.274439" lon="151.290064">
  <ele>343.1</ele>
  <time>2026-09-01T20:03:13Z</time>
  <course>270.0</course>
  <speed>0.0</speed>
  <fix>3d</fix>
</trkpt>
<trkpt lat="-27.2744392" lon="151.2900641">
  <ele>343.07</ele>
  <time>2026-09-01T20:03:13Z</time>
  <course>11.1</course>
  <speed>0.022360679774997897</speed>
  <fix>3d</fix>
</trkpt>
<trkpt lat="-27.274439" lon="151.290064">
  <ele>343.1</ele>
  <time>2026-09-01T20:03:13Z</time>
  <course>270.0</course>
  <speed>0.0</speed>
  <fix>3d</fix>
</trkpt>
<trkpt lat="-27.2744392" lon="151.2900641">
  <ele>343.07</ele>
  <time>2026-09-01T20:03:13Z</time>
  <course>11.1</course>
  <speed>0.022360679774997897</speed>
  <fix>3d</fix>
</trkpt>
<trkpt lat="-27.274439" lon="151.290064">
  <ele>343.1</ele>
  <time>2026-09-01T20:03:13Z</time>
  <course>270.0</course>
  <speed>0.0</speed>
  <fix>3d</fix>
</trkpt>
<trkpt lat="-27.2744392" lon="151.2900641">
  <ele>343.07</ele>
  <time>2026-09-01T20:03:13Z</time>
  <course>11.1</course>
  <speed>0.022360679774997897</speed>
  <fix>3d</fix>
</trkpt>
<trkpt lat="-27.274439" lon="151.290064">
  <ele>343.1</ele>
  <time>2026-09-01T20:03:13Z</time>
  <course>270.0</course>
  <speed>0.0</speed>
  <fix>3d</fix>
</trkpt>
<trkpt lat="-27.2744392" lon="151.2900641">
  <ele>343.07</ele>
  <time>2026-09-01T20:03:13Z</time>
  <course>11.1</course>
  <speed>0.022360679774997897</speed>
  <fix>3d</fix>
</trkpt>
<trkpt lat="-27.274439" lon="151.290064">
  <ele>343.1</ele>
  <time>2026-09-01T20:03:13Z</time>
  <course>270.0</course>
  <speed>0.0</speed>
  <fix>3d</fix>
</trkpt>
<trkpt lat="-27.2744392" lon="151.2900641">
  <ele>343.07</ele>
  <time>2026-09-01T20:03:13Z</time>
  <course>11.11</course>
  <speed>0.022360679774997897</speed>
  <fix>3d</fix>
</trkpt>
<trkpt lat="-27.274439" lon="151.290064">
  <ele>343.1</ele>
  <time>2026-09-01T20:03:13Z</time>
  <course>270.0</course>
  <speed>0.0</speed>
  <fix>3d</fix>
</trkpt>
<trkpt lat="-27.2744392" lon="151.2900641">
  <ele>343.07</ele>
  <time>2026-09-01T20:03:13Z</time>
  <course>11.11</course>
  <speed>0.022360679774997897</speed>
  <fix>3d</fix>
</trkpt>
<trkpt lat="-27.274439" lon="151.290064">
  <ele>343.1</ele>
  <time>2026-09-01T20:03:13Z</time>
  <course>270.0</course>
  <speed>0.0</speed>
  <fix>3d</fix>
</trkpt>
<trkpt lat="-27.2744392" lon="151.2900641">
  <ele>343.07</ele>
  <time>2026-09-01T20:03:13Z</time>
  <course>11.11</course>
  <speed>0.022360679774997897</speed>
  <fix>3d</fix>
</trkpt>
<trkpt lat="-27.274439" lon="151.290064">
  <ele>343.1</ele>
  <time>2026-09-01T20:03:13Z</time>
  <course>270.0</course>
  <speed>0.0</speed>
  <fix>3d</fix>
</trkpt>
<trkpt lat="-27.2744392" lon="151.2900641">
  <ele>343.07</ele>
  <time>2026-09-01T20:03:13Z</time>
  <course>11.11</course>
  <speed>0.022360679774997897</speed>
  <fix>3d</fix>
</trkpt>
<trkpt lat="-27.274439" lon="151.290064">
  <ele>343.1</ele>
  <time>2026-09-01T20:03:13Z</time>
  <course>270.0</course>
  <speed>0.0</speed>
  <fix>3d</fix>
</trkpt>
<trkpt lat="-27.2744392" lon="151.2900641">
  <ele>343.07</ele>
  <time>2026-09-01T20:03:13Z</time>
  <course>11.11</course>
  <speed>0.022360679774997897</speed>
  <fix>3d</fix>
</trkpt>
<trkpt lat="-27.274439" lon="151.290064">
  <ele>343.1</ele>
  <time>2026-09-01T20:03:13Z</time>
  <course>270.0</course>
  <speed>0.0</speed>
  <fix>3d</fix>
</trkpt>
<trkpt lat="-27.2744392" lon="151.2900641">
  <ele>343.08</ele>
  <time>2026-09-01T20:03:13Z</time>
  <course>11.11</course>
  <speed>0.022360679774997897</speed>
  <fix>3d</fix>
</trkpt>
<trkpt lat="-27.274439" lon="151.290064">
  <ele>343.1</ele>
  <time>2026-09-01T20:03:13Z</time>
  <course>270.0</course>
  <speed>0.0</speed>
  <fix>3d</fix>
</trkpt>
<trkpt lat="-27.2744392" lon="151.2900641">
  <ele>343.08</ele>
  <time>2026-09-01T20:03:13Z</time>
  <course>11.11</course>
  <speed>0.022360679774997897</speed>
  <fix>3d</fix>
</trkpt>
<trkpt lat="-27.274439" lon="151.290064">
  <ele>343.1</ele>
  <time>2026-09-01T20:03:13Z</time>
  <course>270.0</course>
  <speed>0.0</speed>
  <fix>3d</fix>
</trkpt>
<trkpt lat="-27.2744392" lon="151.2900641">
  <ele>343.08</ele>
  <time>2026-09-01T20:03:13Z</time>
  <course>11.11</course>
  <speed>0.022360679774997897</speed>
  <fix>3d</fix>
</trkpt>
<trkpt lat="-27.274439" lon="151.290064">
  <ele>343.1</ele>
  <time>2026-09-01T20:03:13Z</time>
  <course>270.0</course>
  <speed>0.0</speed>
  <fix>3d</fix>
</trkpt>
<trkpt lat="-27.2744392" lon="151.2900641">
  <ele>343.08</ele>
  <time>2026-09-01T20:03:13Z</time>
  <course>11.11</course>
  <speed>0.022360679774997897</speed>
  <fix>3d</fix>
</trkpt>
<trkpt lat="-27.274439" lon="151.290064">
  <ele>343.1</ele>
  <time>2026-09-01T20:03:13Z</time>
  <course>270.0</course>
  <speed>0.0</speed>
  <fix>3d</fix>
</trkpt>
<trkpt lat="-27.2744392" lon="151.2900641">
  <ele>343.08</ele>
  <time>2026-09-01T20:03:13Z</time>
  <course>11.11</course>
  <speed>0.022360679774997897</speed>
  <fix>3d</fix>
</trkpt>
<trkpt lat="-27.274439" lon="151.290064">
  <ele>343.1</ele>
  <time>2026-09-01T20:03:13Z</time>
  <course>270.0</course>
  <speed>0.0</speed>
  <fix>3d</fix>
</trkpt>
<trkpt lat="-27.2744392" lon="151.2900641">
  <ele>343.08</ele>
  <time>2026-09-01T20:03:13Z</time>
  <course>11.11</course>
  <speed>0.022360679774997897</speed>
  <fix>3d</fix>
</trkpt>
<trkpt lat="-27.274439" lon="151.290064">
  <ele>343.1</ele>
  <time>2026-09-01T20:03:13Z</time>
  <course>270.0</course>
  <speed>0.0</speed>
  <fix>3d</fix>
</trkpt>
<trkpt lat="-27.2744392" lon="151.2900641">
  <ele>343.08</ele>
  <time>2026-09-01T20:03:13Z</time>
  <course>11.12</course>
  <speed>0.022360679774997897</speed>
  <fix>3d</fix>
</trkpt>
<trkpt lat="-27.274439" lon="151.290064">
  <ele>343.1</ele>
  <time>2026-09-01T20:03:13Z</time>
  <course>270.0</course>
  <speed>0.0</speed>
  <fix>3d</fix>
</trkpt>
<trkpt lat="-27.2744392" lon="151.2900641">
  <ele>343.08</ele>
  <time>2026-09-01T20:03:13Z</time>
  <course>11.12</course>
  <speed>0.022360679774997897</speed>
  <fix>3d</fix>
</trkpt>
<trkpt lat="-27.274439" lon="151.290064">
  <ele>343.1</ele>
  <time>2026-09-01T20:03:13Z</time>
  <course>270.0</course>
  <speed>0.0</speed>
  <fix>3d</fix>
</trkpt>
<trkpt lat="-27.2744392" lon="151.2900641">
  <ele>343.08</ele>
  <time>2026-09-01T20:03:13Z</time>
  <course>11.12</course>
  <speed>0.022360679774997897</speed>
  <fix>3d</fix>
</trkpt>
<trkpt lat="-27.274439" lon="151.290064">
  <ele>343.1</ele>
  <time>2026-09-01T20:03:13Z</time>
  <course>270.0</course>
  <speed>0.0</speed>
  <fix>3d</fix>
</trkpt>
<trkpt lat="-27.2744392" lon="151.2900641">
  <ele>343.08</ele>
  <time>2026-09-01T20:03:13Z</time>
  <course>11.12</course>
  <speed>0.022360679774997897</speed>
  <fix>3d</fix>
</trkpt>
<trkpt lat="-27.274439" lon="151.290064">
  <ele>343.1</ele>
  <time>2026-09-01T20:03:13Z</time>
  <course>270.0</course>
  <speed>0.0</speed>
  <fix>3d</fix>
</trkpt>
<trkpt lat="-27.2744392" lon="151.2900641">
  <ele>343.08</ele>
  <time>2026-09-01T20:03:13Z</time>
  <course>11.12</course>
  <speed>0.022360679774997897</speed>
  <fix>3d</fix>
</trkpt>
<trkpt lat="-27.274439" lon="151.290064">
  <ele>343.1</ele>
  <time>2026-09-01T20:03:13Z</time>
  <course>270.0</course>
  <speed>0.0</speed>
  <fix>3d</fix>
</trkpt>
<trkpt lat="-27.2744392" lon="151.2900641">
  <ele>343.08</ele>
  <time>2026-09-01T20:03:13Z</time>
  <course>11.12</course>
  <speed>0.022360679774997897</speed>
  <fix>3d</fix>
</trkpt>
<trkpt lat="-27.274439" lon="151.290064">
  <ele>343.1</ele>
  <time>2026-09-01T20:03:13Z</time>
  <course>270.0</course>
  <speed>0.0</speed>
  <fix>3d</fix>
</trkpt>
<trkpt lat="-27.2744392" lon="151.2900641">
  <ele>343.08</ele>
  <time>2026-09-01T20:03:13Z</time>
  <course>11.12</course>
  <speed>0.022360679774997897</speed>
  <fix>3d</fix>
</trkpt>
<trkpt lat="-27.274439" lon="151.290064">
  <ele>343.1</ele>
  <time>2026-09-01T20:03:13Z</time>
  <course>270.0</course>
  <speed>0.0</speed>
  <fix>3d</fix>
</trkpt>
<trkpt lat="-27.2744392" lon="151.2900641">
  <ele>343.08</ele>
  <time>2026-09-01T20:03:13Z</time>
  <course>11.12</course>
  <speed>0.022360679774997897</speed>
  <fix>3d</fix>
</trkpt>
<trkpt lat="-27.274439" lon="151.290064">
  <ele>343.1</ele>
  <time>2026-09-01T20:03:13Z</time>
  <course>270.0</course>
  <speed>0.0</speed>
  <fix>3d</fix>
</trkpt>
<trkpt lat="-27.2744392" lon="151.2900641">
  <ele>343.08</ele>
  <time>2026-09-01T20:03:13Z</time>
  <course>11.12</course>
  <speed>0.022360679774997897</speed>
  <fix>3d</fix>
</trkpt>
<trkpt lat="-27.274439" lon="151.290064">
  <ele>343.1</ele>
  <time>2026-09-01T20:03:13Z</time>
  <course>270.0</course>
  <speed>0.0</speed>
  <fix>3d</fix>
</trkpt>
<trkpt lat="-27.2744392" lon="151.2900641">
  <ele>343.08</ele>
  <time>2026-09-01T20:03:13Z</time>
  <course>11.12</course>
  <speed>0.022360679774997897</speed>
  <fix>3d</fix>
</trkpt>
<trkpt lat="-27.274439" lon="151.290064">
  <ele>343.1</ele>
  <time>2026-09-01T20:03:13Z</time>
  <course>270.0</course>
  <speed>0.0</speed>
  <fix>3d</fix>
</trkpt>
<trkpt lat="-27.2744392" lon="151.2900641">
  <ele>343.08</ele>
  <time>2026-09-01T20:03:13Z</time>
  <course>11.13</course>
  <speed>0.022360679774997897</speed>
  <fix>3d</fix>
</trkpt>
<trkpt lat="-27.274439" lon="151.290064">
  <ele>343.1</ele>
  <time>2026-09-01T20:03:13Z</time>
  <course>270.0</course>
  <speed>0.0</speed>
  <fix>3d</fix>
</trkpt>
<trkpt lat="-27.2744392" lon="151.2900641">
  <ele>343.08</ele>
  <time>2026-09-01T20:03:13Z</time>
  <course>11.13</course>
  <speed>0.022360679774997897</speed>
  <fix>3d</fix>
</trkpt>
<trkpt lat="-27.274439" lon="151.290064">
  <ele>343.1</ele>
  <time>2026-09-01T20:03:13Z</time>
  <course>270.0</course>
  <speed>0.0</speed>
  <fix>3d</fix>
</trkpt>
<trkpt lat="-27.2744392" lon="151.2900641">
  <ele>343.08</ele>
  <time>2026-09-01T20:03:13Z</time>
  <course>11.13</course>
  <speed>0.022360679774997897</speed>
  <fix>3d</fix>
</trkpt>
<trkpt lat="-27.274439" lon="151.290064">
  <ele>343.1</ele>
  <time>2026-09-01T20:03:13Z</time>
  <course>270.0</course>
  <speed>0.0</speed>
  <fix>3d</fix>
</trkpt>
<trkpt lat="-27.2744392" lon="151.2900641">
  <ele>343.08</ele>
  <time>2026-09-01T20:03:13Z</time>
  <course>11.13</course>
  <speed>0.022360679774997897</speed>
  <fix>3d</fix>
</trkpt>
<trkpt lat="-27.274439" lon="151.290064">
  <ele>343.1</ele>
  <time>2026-09-01T20:03:13Z</time>
  <course>270.0</course>
  <speed>0.0</speed>
  <fix>3d</fix>
</trkpt>
<trkpt lat="-27.2744392" lon="151.2900641">
  <ele>343.08</ele>
  <time>2026-09-01T20:03:13Z</time>
  <course>11.13</course>
  <speed>0.022360679774997897</speed>
  <fix>3d</fix>
</trkpt>
<trkpt lat="-27.274439" lon="151.290064">
  <ele>343.1</ele>
  <time>2026-09-01T20:03:13Z</time>
  <course>270.0</course>
  <speed>0.0</speed>
  <fix>3d</fix>
</trkpt>
<trkpt lat="-27.2744392" lon="151.2900641">
  <ele>343.08</ele>
  <time>2026-09-01T20:03:13Z</time>
  <course>11.13</course>
  <speed>0.022360679774997897</speed>
  <fix>3d</fix>
</trkpt>
<trkpt lat="-27.274439" lon="151.290064">
  <ele>343.1</ele>
  <time>2026-09-01T20:03:13Z</time>
  <course>270.0</course>
  <speed>0.0</speed>
  <fix>3d</fix>
</trkpt>
<trkpt lat="-27.2744392" lon="151.2900641">
  <ele>343.08</ele>
  <time>2026-09-01T20:03:13Z</time>
  <course>11.13</course>
  <speed>0.022360679774997897</speed>
  <fix>3d</fix>
</trkpt>
<trkpt lat="-27.274439" lon="151.290064">
  <ele>343.1</ele>
  <time>2026-09-01T20:03:13Z</time>
  <course>270.0</course>
  <speed>0.0</speed>
  <fix>3d</fix>
</trkpt>
<trkpt lat="-27.2744392" lon="151.2900641">
  <ele>343.09</ele>
  <time>2026-09-01T20:03:13Z</time>
  <course>11.13</course>
  <speed>0.022360679774997897</speed>
  <fix>3d</fix>
</trkpt>
<trkpt lat="-27.274439" lon="151.290064">
  <ele>343.1</ele>
  <time>2026-09-01T20:03:13Z</time>
  <course>270.0</course>
  <speed>0.0</speed>
  <fix>3d</fix>
</trkpt>
<trkpt lat="-27.2744392" lon="151.2900641">
  <ele>343.08</ele>
  <time>2026-09-01T20:03:13Z</time>
  <course>11.13</course>
  <speed>0.022360679774997897</speed>
  <fix>3d</fix>
</trkpt>
<trkpt lat="-27.274439" lon="151.290064">
  <ele>343.1</ele>
  <time>2026-09-01T20:03:13Z</time>
  <course>270.0</course>
  <speed>0.0</speed>
  <fix>3d</fix>
</trkpt>
<trkpt lat="-27.2744392" lon="151.2900641">
  <ele>343.08</ele>
  <time>2026-09-01T20:03:13Z</time>
  <course>11.13</course>
  <speed>0.022360679774997897</speed>
  <fix>3d</fix>
</trkpt>
<trkpt lat="-27.274439" lon="151.290064">
  <ele>343.1</ele>
  <time>2026-09-01T20:03:13Z</time>
  <course>270.0</course>
  <speed>0.0</speed>
  <fix>3d</fix>
</trkpt>
<trkpt lat="-27.2744392" lon="151.2900641">
  <ele>343.08</ele>
  <time>2026-09-01T20:03:13Z</time>
  <course>11.14</course>
  <speed>0.022360679774997897</speed>
  <fix>3d</fix>
</trkpt>
<trkpt lat="-27.274439" lon="151.290064">
  <ele>343.1</ele>
  <time>2026-09-01T20:03:13Z</time>
  <course>270.0</course>
  <speed>0.0</speed>
  <fix>3d</fix>
</trkpt>
<trkpt lat="-27.2744392" lon="151.2900641">
  <ele>343.08</ele>
  <time>2026-09-01T20:03:13Z</time>
  <course>11.14</course>
  <speed>0.022360679774997897</speed>
  <fix>3d</fix>
</trkpt>
<trkpt lat="-27.274439" lon="151.290064">
  <ele>343.1</ele>
  <time>2026-09-01T20:03:13Z</time>
  <course>270.0</course>
  <speed>0.0</speed>
  <fix>3d</fix>
</trkpt>
<trkpt lat="-27.2744392" lon="151.2900641">
  <ele>343.08</ele>
  <time>2026-09-01T20:03:13Z</time>
  <course>11.14</course>
  <speed>0.022360679774997897</speed>
  <fix>3d</fix>
</trkpt>
<trkpt lat="-27.274439" lon="151.290064">
  <ele>343.1</ele>
  <time>2026-09-01T20:03:13Z</time>
  <course>270.0</course>
  <speed>0.0</speed>
  <fix>3d</fix>
</trkpt>
<trkpt lat="-27.2744392" lon="151.2900641">
  <ele>343.08</ele>
  <time>2026-09-01T20:03:13Z</time>
  <course>11.14</course>
  <speed>0.022360679774997897</speed>
  <fix>3d</fix>
</trkpt>
<trkpt lat="-27.274439" lon="151.290064">
  <ele>343.1</ele>
  <time>2026-09-01T20:03:13Z</time>
  <course>270.0</course>
  <speed>0.0</speed>
  <fix>3d</fix>
</trkpt>
<trkpt lat="-27.2744392" lon="151.2900641">
  <ele>343.08</ele>
  <time>2026-09-01T20:03:13Z</time>
  <course>11.14</course>
  <speed>0.022360679774997897</speed>
  <fix>3d</fix>
</trkpt>
<trkpt lat="-27.274439" lon="151.290064">
  <ele>343.1</ele>
  <time>2026-09-01T20:03:13Z</time>
  <course>270.0</course>
  <speed>0.0</speed>
  <fix>3d</fix>
</trkpt>
<trkpt lat="-27.2744392" lon="151.2900641">
  <ele>343.08</ele>
  <time>2026-09-01T20:03:13Z</time>
  <course>11.14</course>
  <speed>0.022360679774997897</speed>
  <fix>3d</fix>
</trkpt>
<trkpt lat="-27.274439" lon="151.290064">
  <ele>343.1</ele>
  <time>2026-09-01T20:03:13Z</time>
  <course>270.0</course>
  <speed>0.0</speed>
  <fix>3d</fix>
</trkpt>
<trkpt lat="-27.2744392" lon="151.2900641">
  <ele>343.1</ele>
  <time>2026-09-01T20:03:13Z</time>
  <course>11.14</course>
  <speed>0.022360679774997897</speed>
  <fix>3d</fix>
</trkpt>
<trkpt lat="-27.274439" lon="151.290064">
  <ele>343.1</ele>
  <time>2026-09-01T20:03:13Z</time>
  <course>270.0</course>
  <speed>0.0</speed>
  <fix>3d</fix>
</trkpt>
<trkpt lat="-27.2744392" lon="151.2900641">
  <ele>343.09</ele>
  <time>2026-09-01T20:03:13Z</time>
  <course>11.14</course>
  <speed>0.022360679774997897</speed>
  <fix>3d</fix>
</trkpt>
<trkpt lat="-27.274439" lon="151.290064">
  <ele>343.1</ele>
  <time>2026-09-01T20:03:13Z</time>
  <course>270.0</course>
  <speed>0.0</speed>
  <fix>3d</fix>
</trkpt>
<trkpt lat="-27.2744392" lon="151.2900641">
  <ele>343.09</ele>
  <time>2026-09-01T20:03:13Z</time>
  <course>11.14</course>
  <speed>0.022360679774997897</speed>
  <fix>3d</fix>
</trkpt>
<trkpt lat="-27.274439" lon="151.290064">
  <ele>343.1</ele>
  <time>2026-09-01T20:03:13Z</time>
  <course>270.0</course>
  <speed>0.0</speed>
  <fix>3d</fix>
</trkpt>
<trkpt lat="-27.2744392" lon="151.2900641">
  <ele>343.1</ele>
  <time>2026-09-01T20:03:13Z</time>
  <course>11.15</course>
  <speed>0.022360679774997897</speed>
  <fix>3d</fix>
</trkpt>
<trkpt lat="-27.274439" lon="151.290064">
  <ele>343.1</ele>
  <time>2026-09-01T20:03:13Z</time>
  <course>270.0</course>
  <speed>0.0</speed>
  <fix>3d</fix>
</trkpt>
<trkpt lat="-27.2744392" lon="151.2900641">
  <ele>343.1</ele>
  <time>2026-09-01T20:03:13Z</time>
  <course>11.15</course>
  <speed>0.022360679774997897</speed>
  <fix>3d</fix>
</trkpt>
<trkpt lat="-27.274439" lon="151.290064">
  <ele>343.1</ele>
  <time>2026-09-01T20:03:13Z</time>
  <course>270.0</course>
  <speed>0.0</speed>
  <fix>3d</fix>
</trkpt>
<trkpt lat="-27.2744392" lon="151.2900641">
  <ele>343.1</ele>
  <time>2026-09-01T20:03:13Z</time>
  <course>11.15</course>
  <speed>0.022360679774997897</speed>
  <fix>3d</fix>
</trkpt>
<trkpt lat="-27.274439" lon="151.290064">
  <ele>343.1</ele>
  <time>2026-09-01T20:03:13Z</time>
  <course>270.0</course>
  <speed>0.0</speed>
  <fix>3d</fix>
</trkpt>
<trkpt lat="-27.2744392" lon="151.2900641">
  <ele>343.11</ele>
  <time>2026-09-01T20:03:13Z</time>
  <course>11.15</course>
  <speed>0.022360679774997897</speed>
  <fix>3d</fix>
</trkpt>
<trkpt lat="-27.274439" lon="151.290064">
  <ele>343.1</ele>
  <time>2026-09-01T20:03:13Z</time>
  <course>270.0</course>
  <speed>0.0</speed>
  <fix>3d</fix>
</trkpt>
<trkpt lat="-27.2744392" lon="151.2900641">
  <ele>343.11</ele>
  <time>2026-09-01T20:03:13Z</time>
  <course>11.15</course>
  <speed>0.022360679774997897</speed>
  <fix>3d</fix>
</trkpt>
<trkpt lat="-27.274439" lon="151.290064">
  <ele>343.1</ele>
  <time>2026-09-01T20:03:13Z</time>
  <course>270.0</course>
  <speed>0.0</speed>
  <fix>3d</fix>
</trkpt>
<trkpt lat="-27.2744392" lon="151.2900641">
  <ele>343.11</ele>
  <time>2026-09-01T20:03:13Z</time>
  <course>11.15</course>
  <speed>0.022360679774997897</speed>
  <fix>3d</fix>
</trkpt>
<trkpt lat="-27.274439" lon="151.290064">
  <ele>343.1</ele>
  <time>2026-09-01T20:03:13Z</time>
  <course>270.0</course>
  <speed>0.0</speed>
  <fix>3d</fix>
</trkpt>
<trkpt lat="-27.2744392" lon="151.2900641">
  <ele>343.12</ele>
  <time>2026-09-01T20:03:13Z</time>
  <course>11.15</course>
  <speed>0.022360679774997897</speed>
  <fix>3d</fix>
</trkpt>
<trkpt lat="-27.274439" lon="151.290064">
  <ele>343.1</ele>
  <time>2026-09-01T20:03:13Z</time>
  <course>270.0</course>
  <speed>0.0</speed>
  <fix>3d</fix>
</trkpt>
<trkpt lat="-27.2744392" lon="151.2900641">
  <ele>343.12</ele>
  <time>2026-09-01T20:03:13Z</time>
  <course>11.15</course>
  <speed>0.022360679774997897</speed>
  <fix>3d</fix>
</trkpt>
<trkpt lat="-27.274439" lon="151.290064">
  <ele>343.1</ele>
  <time>2026-09-01T20:03:13Z</time>
  <course>270.0</course>
  <speed>0.0</speed>
  <fix>3d</fix>
</trkpt>
<trkpt lat="-27.2744392" lon="151.2900641">
  <ele>343.13</ele>
  <time>2026-09-01T20:03:13Z</time>
  <course>11.15</course>
  <speed>0.022360679774997897</speed>
  <fix>3d</fix>
</trkpt>
<trkpt lat="-27.274439" lon="151.290064">
  <ele>343.1</ele>
  <time>2026-09-01T20:03:13Z</time>
  <course>270.0</course>
  <speed>0.0</speed>
  <fix>3d</fix>
</trkpt>
<trkpt lat="-27.2744392" lon="151.2900641">
  <ele>343.13</ele>
  <time>2026-09-01T20:03:13Z</time>
  <course>11.15</course>
  <speed>0.022360679774997897</speed>
  <fix>3d</fix>
</trkpt>
<trkpt lat="-27.274439" lon="151.290064">
  <ele>343.1</ele>
  <time>2026-09-01T20:03:13Z</time>
  <course>270.0</course>
  <speed>0.0</speed>
  <fix>3d</fix>
</trkpt>
<trkpt lat="-27.2744392" lon="151.2900641">
  <ele>343.13</ele>
  <time>2026-09-01T20:03:13Z</time>
  <course>11.16</course>
  <speed>0.022360679774997897</speed>
  <fix>3d</fix>
</trkpt>
<trkpt lat="-27.274439" lon="151.290064">
  <ele>343.1</ele>
  <time>2026-09-01T20:03:13Z</time>
  <course>270.0</course>
  <speed>0.0</speed>
  <fix>3d</fix>
</trkpt>
<trkpt lat="-27.2744392" lon="151.2900641">
  <ele>343.14</ele>
  <time>2026-09-01T20:03:13Z</time>
  <course>11.16</course>
  <speed>0.022360679774997897</speed>
  <fix>3d</fix>
</trkpt>
<trkpt lat="-27.274439" lon="151.290064">
  <ele>343.1</ele>
  <time>2026-09-01T20:03:13Z</time>
  <course>270.0</course>
  <speed>0.0</speed>
  <fix>3d</fix>
</trkpt>
<trkpt lat="-27.2744392" lon="151.2900641">
  <ele>343.14</ele>
  <time>2026-09-01T20:03:13Z</time>
  <course>11.16</course>
  <speed>0.022360679774997897</speed>
  <fix>3d</fix>
</trkpt>
<trkpt lat="-27.274439" lon="151.290064">
  <ele>343.1</ele>
  <time>2026-09-01T20:03:13Z</time>
  <course>270.0</course>
  <speed>0.0</speed>
  <fix>3d</fix>
</trkpt>
<trkpt lat="-27.2744392" lon="151.2900641">
  <ele>343.15</ele>
  <time>2026-09-01T20:03:13Z</time>
  <course>11.16</course>
  <speed>0.022360679774997897</speed>
  <fix>3d</fix>
</trkpt>
<trkpt lat="-27.274439" lon="151.290064">
  <ele>343.1</ele>
  <time>2026-09-01T20:03:13Z</time>
  <course>270.0</course>
  <speed>0.0</speed>
  <fix>3d</fix>
</trkpt>
<trkpt lat="-27.2744392" lon="151.2900641">
  <ele>343.15</ele>
  <time>2026-09-01T20:03:13Z</time>
  <course>11.16</course>
  <speed>0.022360679774997897</speed>
  <fix>3d</fix>
</trkpt>
<trkpt lat="-27.274439" lon="151.290064">
  <ele>343.1</ele>
  <time>2026-09-01T20:03:13Z</time>
  <course>270.0</course>
  <speed>0.0</speed>
  <fix>3d</fix>
</trkpt>
<trkpt lat="-27.2744392" lon="151.2900641">
  <ele>343.15</ele>
  <time>2026-09-01T20:03:13Z</time>
  <course>11.16</course>
  <speed>0.022360679774997897</speed>
  <fix>3d</fix>
</trkpt>
<trkpt lat="-27.274439" lon="151.290064">
  <ele>343.1</ele>
  <time>2026-09-01T20:03:13Z</time>
  <course>270.0</course>
  <speed>0.0</speed>
  <fix>3d</fix>
</trkpt>
<trkpt lat="-27.2744392" lon="151.2900641">
  <ele>343.16</ele>
  <time>2026-09-01T20:03:13Z</time>
  <course>11.16</course>
  <speed>0.022360679774997897</speed>
  <fix>3d</fix>
</trkpt>
<trkpt lat="-27.274439" lon="151.290064">
  <ele>343.1</ele>
  <time>2026-09-01T20:03:13Z</time>
  <course>270.0</course>
  <speed>0.0</speed>
  <fix>3d</fix>
</trkpt>
<trkpt lat="-27.2744392" lon="151.2900641">
  <ele>343.16</ele>
  <time>2026-09-01T20:03:13Z</time>
  <course>11.16</course>
  <speed>0.022360679774997897</speed>
  <fix>3d</fix>
</trkpt>
<trkpt lat="-27.274439" lon="151.290064">
  <ele>343.1</ele>
  <time>2026-09-01T20:03:13Z</time>
  <course>270.0</course>
  <speed>0.0</speed>
  <fix>3d</fix>
</trkpt>
<trkpt lat="-27.2744392" lon="151.2900641">
  <ele>343.16</ele>
  <time>2026-09-01T20:03:13Z</time>
  <course>11.16</course>
  <speed>0.022360679774997897</speed>
  <fix>3d</fix>
</trkpt>
<trkpt lat="-27.274439" lon="151.290064">
  <ele>343.1</ele>
  <time>2026-09-01T20:03:13Z</time>
  <course>270.0</course>
  <speed>0.0</speed>
  <fix>3d</fix>
</trkpt>
<trkpt lat="-27.2744392" lon="151.2900641">
  <ele>343.17</ele>
  <time>2026-09-01T20:03:13Z</time>
  <course>11.17</course>
  <speed>0.022360679774997897</speed>
  <fix>3d</fix>
</trkpt>
<trkpt lat="-27.274439" lon="151.290064">
  <ele>343.1</ele>
  <time>2026-09-01T20:03:13Z</time>
  <course>270.0</course>
  <speed>0.0</speed>
  <fix>3d</fix>
</trkpt>
<trkpt lat="-27.2744392" lon="151.2900641">
  <ele>343.17</ele>
  <time>2026-09-01T20:03:13Z</time>
  <course>11.17</course>
  <speed>0.022360679774997897</speed>
  <fix>3d</fix>
</trkpt>
<trkpt lat="-27.274439" lon="151.290064">
  <ele>343.1</ele>
  <time>2026-09-01T20:03:13Z</time>
  <course>270.0</course>
  <speed>0.0</speed>
  <fix>3d</fix>
</trkpt>
<trkpt lat="-27.2744392" lon="151.2900641">
  <ele>343.17</ele>
  <time>2026-09-01T20:03:13Z</time>
  <course>11.17</course>
  <speed>0.022360679774997897</speed>
  <fix>3d</fix>
</trkpt>
<trkpt lat="-27.274439" lon="151.290064">
  <ele>343.1</ele>
  <time>2026-09-01T20:03:13Z</time>
  <course>270.0</course>
  <speed>0.0</speed>
  <fix>3d</fix>
</trkpt>
<trkpt lat="-27.2744392" lon="151.2900641">
  <ele>343.18</ele>
  <time>2026-09-01T20:03:13Z</time>
  <course>11.17</course>
  <speed>0.022360679774997897</speed>
  <fix>3d</fix>
</trkpt>
<trkpt lat="-27.274439" lon="151.290064">
  <ele>343.1</ele>
  <time>2026-09-01T20:03:13Z</time>
  <course>270.0</course>
  <speed>0.0</speed>
  <fix>3d</fix>
</trkpt>
<trkpt lat="-27.2744392" lon="151.2900641">
  <ele>343.18</ele>
  <time>2026-09-01T20:03:13Z</time>
  <course>11.17</course>
  <speed>0.022360679774997897</speed>
  <fix>3d</fix>
</trkpt>
<trkpt lat="-27.274439" lon="151.290064">
  <ele>343.1</ele>
  <time>2026-09-01T20:03:13Z</time>
  <course>270.0</course>
  <speed>0.0</speed>
  <fix>3d</fix>
</trkpt>
<trkpt lat="-27.2744392" lon="151.2900641">
  <ele>343.18</ele>
  <time>2026-09-01T20:03:13Z</time>
  <course>11.17</course>
  <speed>0.022360679774997897</speed>
  <fix>3d</fix>
</trkpt>
<trkpt lat="-27.274439" lon="151.290064">
  <ele>343.1</ele>
  <time>2026-09-01T20:03:13Z</time>
  <course>270.0</course>
  <speed>0.0</speed>
  <fix>3d</fix>
</trkpt>
<trkpt lat="-27.2744392" lon="151.2900641">
  <ele>343.19</ele>
  <time>2026-09-01T20:03:13Z</time>
  <course>11.17</course>
  <speed>0.022360679774997897</speed>
  <fix>3d</fix>
</trkpt>
<trkpt lat="-27.274439" lon="151.290064">
  <ele>343.1</ele>
  <time>2026-09-01T20:03:13Z</time>
  <course>270.0</course>
  <speed>0.0</speed>
  <fix>3d</fix>
</trkpt>
<trkpt lat="-27.2744392" lon="151.2900641">
  <ele>343.19</ele>
  <time>2026-09-01T20:03:13Z</time>
  <course>11.17</course>
  <speed>0.022360679774997897</speed>
  <fix>3d</fix>
</trkpt>
<trkpt lat="-27.274439" lon="151.290064">
  <ele>343.1</ele>
  <time>2026-09-01T20:03:13Z</time>
  <course>270.0</course>
  <speed>0.0</speed>
  <fix>3d</fix>
</trkpt>
<trkpt lat="-27.2744392" lon="151.2900641">
  <ele>343.19</ele>
  <time>2026-09-01T20:03:13Z</time>
  <course>11.17</course>
  <speed>0.022360679774997897</speed>
  <fix>3d</fix>
</trkpt>
<trkpt lat="-27.274439" lon="151.290064">
  <ele>343.1</ele>
  <time>2026-09-01T20:03:13Z</time>
  <course>270.0</course>
  <speed>0.0</speed>
  <fix>3d</fix>
</trkpt>
<trkpt lat="-27.2744392" lon="151.2900641">
  <ele>343.2</ele>
  <time>2026-09-01T20:03:13Z</time>
  <course>11.17</course>
  <speed>0.022360679774997897</speed>
  <fix>3d</fix>
</trkpt>
<trkpt lat="-27.274439" lon="151.290064">
  <ele>343.1</ele>
  <time>2026-09-01T20:03:13Z</time>
  <course>270.0</course>
  <speed>0.0</speed>
  <fix>3d</fix>
</trkpt>
<trkpt lat="-27.2744392" lon="151.2900641">
  <ele>343.2</ele>
  <time>2026-09-01T20:03:13Z</time>
  <course>11.17</course>
  <speed>0.022360679774997897</speed>
  <fix>3d</fix>
</trkpt>
<trkpt lat="-27.274439" lon="151.290064">
  <ele>343.1</ele>
  <time>2026-09-01T20:03:13Z</time>
  <course>270.0</course>
  <speed>0.0</speed>
  <fix>3d</fix>
</trkpt>
<trkpt lat="-27.2744392" lon="151.2900641">
  <ele>343.2</ele>
  <time>2026-09-01T20:03:13Z</time>
  <course>11.18</course>
  <speed>0.022360679774997897</speed>
  <fix>3d</fix>
</trkpt>
<trkpt lat="-27.274439" lon="151.290064">
  <ele>343.1</ele>
  <time>2026-09-01T20:03:13Z</time>
  <course>270.0</course>
  <speed>0.0</speed>
  <fix>3d</fix>
</trkpt>
<trkpt lat="-27.2744392" lon="151.2900641">
  <ele>343.2</ele>
  <time>2026-09-01T20:03:13Z</time>
  <course>11.18</course>
  <speed>0.022360679774997897</speed>
  <fix>3d</fix>
</trkpt>
<trkpt lat="-27.274439" lon="151.290064">
  <ele>343.1</ele>
  <time>2026-09-01T20:03:13Z</time>
  <course>270.0</course>
  <speed>0.0</speed>
  <fix>3d</fix>
</trkpt>
<trkpt lat="-27.2744392" lon="151.2900641">
  <ele>343.21</ele>
  <time>2026-09-01T20:03:13Z</time>
  <course>11.18</course>
  <speed>0.022360679774997897</speed>
  <fix>3d</fix>
</trkpt>
<trkpt lat="-27.274439" lon="151.290064">
  <ele>343.1</ele>
  <time>2026-09-01T20:03:13Z</time>
  <course>270.0</course>
  <speed>0.0</speed>
  <fix>3d</fix>
</trkpt>
<trkpt lat="-27.2744392" lon="151.2900641">
  <ele>343.21</ele>
  <time>2026-09-01T20:03:13Z</time>
  <course>11.18</course>
  <speed>0.022360679774997897</speed>
  <fix>3d</fix>
</trkpt>
<trkpt lat="-27.274439" lon="151.290064">
  <ele>343.1</ele>
  <time>2026-09-01T20:03:13Z</time>
  <course>270.0</course>
  <speed>0.0</speed>
  <fix>3d</fix>
</trkpt>
<trkpt lat="-27.2744392" lon="151.2900641">
  <ele>343.21</ele>
  <time>2026-09-01T20:03:13Z</time>
  <course>11.18</course>
  <speed>0.022360679774997897</speed>
  <fix>3d</fix>
</trkpt>
<trkpt lat="-27.274439" lon="151.290064">
  <ele>343.1</ele>
  <time>2026-09-01T20:03:13Z</time>
  <course>270.0</course>
  <speed>0.0</speed>
  <fix>3d</fix>
</trkpt>
<trkpt lat="-27.2744392" lon="151.2900641">
  <ele>343.22</ele>
  <time>2026-09-01T20:03:13Z</time>
  <course>11.18</course>
  <speed>0.022360679774997897</speed>
  <fix>3d</fix>
</trkpt>
<trkpt lat="-27.274439" lon="151.290064">
  <ele>343.1</ele>
  <time>2026-09-01T20:03:13Z</time>
  <course>270.0</course>
  <speed>0.0</speed>
  <fix>3d</fix>
</trkpt>
<trkpt lat="-27.2744392" lon="151.2900641">
  <ele>343.22</ele>
  <time>2026-09-01T20:03:13Z</time>
  <course>11.18</course>
  <speed>0.022360679774997897</speed>
  <fix>3d</fix>
</trkpt>
<trkpt lat="-27.274439" lon="151.290064">
  <ele>343.1</ele>
  <time>2026-09-01T20:03:13Z</time>
  <course>270.0</course>
  <speed>0.0</speed>
  <fix>3d</fix>
</trkpt>
<trkpt lat="-27.2744392" lon="151.2900641">
  <ele>343.23</ele>
  <time>2026-09-01T20:03:13Z</time>
  <course>11.18</course>
  <speed>0.022360679774997897</speed>
  <fix>3d</fix>
</trkpt>
<trkpt lat="-27.274439" lon="151.290064">
  <ele>343.1</ele>
  <time>2026-09-01T20:03:13Z</time>
  <course>270.0</course>
  <speed>0.0</speed>
  <fix>3d</fix>
</trkpt>
<trkpt lat="-27.2744392" lon="151.2900641">
  <ele>343.23</ele>
  <time>2026-09-01T20:03:13Z</time>
  <course>11.18</course>
  <speed>0.022360679774997897</speed>
  <fix>3d</fix>
</trkpt>
<trkpt lat="-27.274439" lon="151.290064">
  <ele>343.1</ele>
  <time>2026-09-01T20:03:13Z</time>
  <course>270.0</course>
  <speed>0.0</speed>
  <fix>3d</fix>
</trkpt>
<trkpt lat="-27.2744392" lon="151.2900641">
  <ele>343.23</ele>
  <time>2026-09-01T20:03:13Z</time>
  <course>11.19</course>
  <speed>0.022360679774997897</speed>
  <fix>3d</fix>
</trkpt>
<trkpt lat="-27.274439" lon="151.290064">
  <ele>343.1</ele>
  <time>2026-09-01T20:03:13Z</time>
  <course>270.0</course>
  <speed>0.0</speed>
  <fix>3d</fix>
</trkpt>
<trkpt lat="-27.2744392" lon="151.2900641">
  <ele>343.23</ele>
  <time>2026-09-01T20:03:13Z</time>
  <course>11.19</course>
  <speed>0.022360679774997897</speed>
  <fix>3d</fix>
</trkpt>
<trkpt lat="-27.274439" lon="151.290064">
  <ele>343.1</ele>
  <time>2026-09-01T20:03:13Z</time>
  <course>270.0</course>
  <speed>0.0</speed>
  <fix>3d</fix>
</trkpt>
<trkpt lat="-27.2744392" lon="151.2900641">
  <ele>343.24</ele>
  <time>2026-09-01T20:03:13Z</time>
  <course>11.19</course>
  <speed>0.022360679774997897</speed>
  <fix>3d</fix>
</trkpt>
<trkpt lat="-27.274439" lon="151.290064">
  <ele>343.1</ele>
  <time>2026-09-01T20:03:13Z</time>
  <course>270.0</course>
  <speed>0.0</speed>
  <fix>3d</fix>
</trkpt>
<trkpt lat="-27.2744392" lon="151.2900641">
  <ele>343.24</ele>
  <time>2026-09-01T20:03:13Z</time>
  <course>11.19</course>
  <speed>0.022360679774997897</speed>
  <fix>3d</fix>
</trkpt>
<trkpt lat="-27.274439" lon="151.290064">
  <ele>343.1</ele>
  <time>2026-09-01T20:03:13Z</time>
  <course>270.0</course>
  <speed>0.0</speed>
  <fix>3d</fix>
</trkpt>
<trkpt lat="-27.2744392" lon="151.2900641">
  <ele>343.24</ele>
  <time>2026-09-01T20:03:13Z</time>
  <course>11.19</course>
  <speed>0.022360679774997897</speed>
  <fix>3d</fix>
</trkpt>
<trkpt lat="-27.274439" lon="151.290064">
  <ele>343.1</ele>
  <time>2026-09-01T20:03:13Z</time>
  <course>270.0</course>
  <speed>0.0</speed>
  <fix>3d</fix>
</trkpt>
<trkpt lat="-27.2744392" lon="151.2900641">
  <ele>343.24</ele>
  <time>2026-09-01T20:03:14Z</time>
  <course>11.19</course>
  <speed>0.022360679774997897</speed>
  <fix>3d</fix>
</trkpt>
<trkpt lat="-27.274439" lon="151.290064">
  <ele>343.1</ele>
  <time>2026-09-01T20:03:14Z</time>
  <course>270.0</course>
  <speed>0.0</speed>
  <fix>3d</fix>
</trkpt>
<trkpt lat="-27.2744392" lon="151.2900641">
  <ele>343.24</ele>
  <time>2026-09-01T20:03:14Z</time>
  <course>11.19</course>
  <speed>0.022360679774997897</speed>
  <fix>3d</fix>
</trkpt>
<trkpt lat="-27.274439" lon="151.290064">
  <ele>343.1</ele>
  <time>2026-09-01T20:03:14Z</time>
  <course>270.0</course>
  <speed>0.0</speed>
  <fix>3d</fix>
</trkpt>
<trkpt lat="-27.2744392" lon="151.2900641">
  <ele>343.24</ele>
  <time>2026-09-01T20:03:14Z</time>
  <course>11.19</course>
  <speed>0.022360679774997897</speed>
  <fix>3d</fix>
</trkpt>
<trkpt lat="-27.274439" lon="151.290064">
  <ele>343.1</ele>
  <time>2026-09-01T20:03:14Z</time>
  <course>270.0</course>
  <speed>0.0</speed>
  <fix>3d</fix>
</trkpt>
<trkpt lat="-27.2744392" lon="151.2900641">
  <ele>343.24</ele>
  <time>2026-09-01T20:03:14Z</time>
  <course>11.19</course>
  <speed>0.022360679774997897</speed>
  <fix>3d</fix>
</trkpt>
<trkpt lat="-27.274439" lon="151.290064">
  <ele>343.1</ele>
  <time>2026-09-01T20:03:14Z</time>
  <course>270.0</course>
  <speed>0.0</speed>
  <fix>3d</fix>
</trkpt>
<trkpt lat="-27.2744392" lon="151.2900641">
  <ele>343.24</ele>
  <time>2026-09-01T20:03:14Z</time>
  <course>11.19</course>
  <speed>0.022360679774997897</speed>
  <fix>3d</fix>
</trkpt>
<trkpt lat="-27.274439" lon="151.290064">
  <ele>343.1</ele>
  <time>2026-09-01T20:03:14Z</time>
  <course>270.0</course>
  <speed>0.0</speed>
  <fix>3d</fix>
</trkpt>
<trkpt lat="-27.2744392" lon="151.2900641">
  <ele>343.24</ele>
  <time>2026-09-01T20:03:14Z</time>
  <course>11.2</course>
  <speed>0.022360679774997897</speed>
  <fix>3d</fix>
</trkpt>
<trkpt lat="-27.274439" lon="151.290064">
  <ele>343.1</ele>
  <time>2026-09-01T20:03:14Z</time>
  <course>270.0</course>
  <speed>0.0</speed>
  <fix>3d</fix>
</trkpt>
<trkpt lat="-27.2744392" lon="151.2900641">
  <ele>343.24</ele>
  <time>2026-09-01T20:03:14Z</time>
  <course>11.2</course>
  <speed>0.022360679774997897</speed>
  <fix>3d</fix>
</trkpt>
<trkpt lat="-27.274439" lon="151.290064">
  <ele>343.1</ele>
  <time>2026-09-01T20:03:14Z</time>
  <course>270.0</course>
  <speed>0.0</speed>
  <fix>3d</fix>
</trkpt>
<trkpt lat="-27.2744392" lon="151.2900641">
  <ele>343.24</ele>
  <time>2026-09-01T20:03:14Z</time>
  <course>11.2</course>
  <speed>0.022360679774997897</speed>
  <fix>3d</fix>
</trkpt>
<trkpt lat="-27.274439" lon="151.290064">
  <ele>343.1</ele>
  <time>2026-09-01T20:03:14Z</time>
  <course>270.0</course>
  <speed>0.0</speed>
  <fix>3d</fix>
</trkpt>
<trkpt lat="-27.2744392" lon="151.2900641">
  <ele>343.24</ele>
  <time>2026-09-01T20:03:14Z</time>
  <course>11.2</course>
  <speed>0.022360679774997897</speed>
  <fix>3d</fix>
</trkpt>
<trkpt lat="-27.274439" lon="151.290064">
  <ele>343.1</ele>
  <time>2026-09-01T20:03:14Z</time>
  <course>270.0</course>
  <speed>0.0</speed>
  <fix>3d</fix>
</trkpt>
<trkpt lat="-27.2744392" lon="151.2900641">
  <ele>343.24</ele>
  <time>2026-09-01T20:03:14Z</time>
  <course>11.2</course>
  <speed>0.022360679774997897</speed>
  <fix>3d</fix>
</trkpt>
<trkpt lat="-27.274439" lon="151.290064">
  <ele>343.1</ele>
  <time>2026-09-01T20:03:14Z</time>
  <course>270.0</course>
  <speed>0.0</speed>
  <fix>3d</fix>
</trkpt>
<trkpt lat="-27.2744392" lon="151.2900641">
  <ele>343.24</ele>
  <time>2026-09-01T20:03:14Z</time>
  <course>11.2</course>
  <speed>0.022360679774997897</speed>
  <fix>3d</fix>
</trkpt>
<trkpt lat="-27.274439" lon="151.290064">
  <ele>343.1</ele>
  <time>2026-09-01T20:03:14Z</time>
  <course>270.0</course>
  <speed>0.0</speed>
  <fix>3d</fix>
</trkpt>
<trkpt lat="-27.2744392" lon="151.2900641">
  <ele>343.24</ele>
  <time>2026-09-01T20:03:14Z</time>
  <course>11.2</course>
  <speed>0.022360679774997897</speed>
  <fix>3d</fix>
</trkpt>
<trkpt lat="-27.274439" lon="151.290064">
  <ele>343.1</ele>
  <time>2026-09-01T20:03:14Z</time>
  <course>270.0</course>
  <speed>0.0</speed>
  <fix>3d</fix>
</trkpt>
<trkpt lat="-27.2744392" lon="151.2900641">
  <ele>343.24</ele>
  <time>2026-09-01T20:03:14Z</time>
  <course>11.2</course>
  <speed>0.022360679774997897</speed>
  <fix>3d</fix>
</trkpt>
<trkpt lat="-27.274439" lon="151.290064">
  <ele>343.1</ele>
  <time>2026-09-01T20:03:14Z</time>
  <course>270.0</course>
  <speed>0.0</speed>
  <fix>3d</fix>
</trkpt>
<trkpt lat="-27.2744392" lon="151.2900641">
  <ele>343.1</ele>
  <time>2026-09-01T20:03:14Z</time>
  <course>11.2</course>
  <speed>0.022360679774997897</speed>
  <fix>3d</fix>
</trkpt>
<trkpt lat="-27.274439" lon="151.290064">
  <ele>343.1</ele>
  <time>2026-09-01T20:03:14Z</time>
  <course>270.0</course>
  <speed>0.0</speed>
  <fix>3d</fix>
</trkpt>
<trkpt lat="-27.2744392" lon="151.2900641">
  <ele>343.1</ele>
  <time>2026-09-01T20:03:14Z</time>
  <course>11.21</course>
  <speed>0.022360679774997897</speed>
  <fix>3d</fix>
</trkpt>
<trkpt lat="-27.274439" lon="151.290064">
  <ele>343.1</ele>
  <time>2026-09-01T20:03:14Z</time>
  <course>270.0</course>
  <speed>0.0</speed>
  <fix>3d</fix>
</trkpt>
<trkpt lat="-27.2744392" lon="151.2900641">
  <ele>343.1</ele>
  <time>2026-09-01T20:03:14Z</time>
  <course>11.21</course>
  <speed>0.022360679774997897</speed>
  <fix>3d</fix>
</trkpt>
<trkpt lat="-27.274439" lon="151.290064">
  <ele>343.1</ele>
  <time>2026-09-01T20:03:14Z</time>
  <course>270.0</course>
  <speed>0.0</speed>
  <fix>3d</fix>
</trkpt>
<trkpt lat="-27.2744392" lon="151.2900641">
  <ele>343.1</ele>
  <time>2026-09-01T20:03:14Z</time>
  <course>11.21</course>
  <speed>0.022360679774997897</speed>
  <fix>3d</fix>
</trkpt>
<trkpt lat="-27.274439" lon="151.290064">
  <ele>343.1</ele>
  <time>2026-09-01T20:03:14Z</time>
  <course>270.0</course>
  <speed>0.0</speed>
  <fix>3d</fix>
</trkpt>
<trkpt lat="-27.2744392" lon="151.2900641">
  <ele>343.1</ele>
  <time>2026-09-01T20:03:14Z</time>
  <course>11.21</course>
  <speed>0.022360679774997897</speed>
  <fix>3d</fix>
</trkpt>
<trkpt lat="-27.274439" lon="151.290064">
  <ele>343.1</ele>
  <time>2026-09-01T20:03:14Z</time>
  <course>270.0</course>
  <speed>0.0</speed>
  <fix>3d</fix>
</trkpt>
<trkpt lat="-27.2744392" lon="151.2900641">
  <ele>343.1</ele>
  <time>2026-09-01T20:03:14Z</time>
  <course>11.21</course>
  <speed>0.022360679774997897</speed>
  <fix>3d</fix>
</trkpt>
<trkpt lat="-27.274439" lon="151.290064">
  <ele>343.1</ele>
  <time>2026-09-01T20:03:14Z</time>
  <course>270.0</course>
  <speed>0.0</speed>
  <fix>3d</fix>
</trkpt>
<trkpt lat="-27.2744392" lon="151.2900641">
  <ele>343.1</ele>
  <time>2026-09-01T20:03:14Z</time>
  <course>11.21</course>
  <speed>0.022360679774997897</speed>
  <fix>3d</fix>
</trkpt>
<trkpt lat="-27.274439" lon="151.290064">
  <ele>343.1</ele>
  <time>2026-09-01T20:03:14Z</time>
  <course>270.0</course>
  <speed>0.0</speed>
  <fix>3d</fix>
</trkpt>
<trkpt lat="-27.2744392" lon="151.2900641">
  <ele>343.09</ele>
  <time>2026-09-01T20:03:14Z</time>
  <course>11.21</course>
  <speed>0.022360679774997897</speed>
  <fix>3d</fix>
</trkpt>
<trkpt lat="-27.274439" lon="151.290064">
  <ele>343.1</ele>
  <time>2026-09-01T20:03:14Z</time>
  <course>270.0</course>
  <speed>0.0</speed>
  <fix>3d</fix>
</trkpt>
<trkpt lat="-27.2744392" lon="151.2900641">
  <ele>343.09</ele>
  <time>2026-09-01T20:03:14Z</time>
  <course>11.21</course>
  <speed>0.022360679774997897</speed>
  <fix>3d</fix>
</trkpt>
<trkpt lat="-27.274439" lon="151.290064">
  <ele>343.1</ele>
  <time>2026-09-01T20:03:14Z</time>
  <course>270.0</course>
  <speed>0.0</speed>
  <fix>3d</fix>
</trkpt>
<trkpt lat="-27.2744392" lon="151.2900641">
  <ele>343.09</ele>
  <time>2026-09-01T20:03:14Z</time>
  <course>11.21</course>
  <speed>0.022360679774997897</speed>
  <fix>3d</fix>
</trkpt>
<trkpt lat="-27.274439" lon="151.290064">
  <ele>343.1</ele>
  <time>2026-09-01T20:03:14Z</time>
  <course>270.0</course>
  <speed>0.0</speed>
  <fix>3d</fix>
</trkpt>
<trkpt lat="-27.2744392" lon="151.2900641">
  <ele>343.09</ele>
  <time>2026-09-01T20:03:14Z</time>
  <course>11.21</course>
  <speed>0.022360679774997897</speed>
  <fix>3d</fix>
</trkpt>
<trkpt lat="-27.274439" lon="151.290064">
  <ele>343.1</ele>
  <time>2026-09-01T20:03:14Z</time>
  <course>270.0</course>
  <speed>0.0</speed>
  <fix>3d</fix>
</trkpt>
<trkpt lat="-27.2744392" lon="151.2900641">
  <ele>343.1</ele>
  <time>2026-09-01T20:03:14Z</time>
  <course>11.22</course>
  <speed>0.022360679774997897</speed>
  <fix>3d</fix>
</trkpt>
<trkpt lat="-27.274439" lon="151.290064">
  <ele>343.1</ele>
  <time>2026-09-01T20:03:14Z</time>
  <course>270.0</course>
  <speed>0.0</speed>
  <fix>3d</fix>
</trkpt>
<trkpt lat="-27.2744392" lon="151.2900641">
  <ele>343.1</ele>
  <time>2026-09-01T20:03:14Z</time>
  <course>11.22</course>
  <speed>0.022360679774997897</speed>
  <fix>3d</fix>
</trkpt>
<trkpt lat="-27.274439" lon="151.290064">
  <ele>343.1</ele>
  <time>2026-09-01T20:03:14Z</time>
  <course>270.0</course>
  <speed>0.0</speed>
  <fix>3d</fix>
</trkpt>
<trkpt lat="-27.2744392" lon="151.2900641">
  <ele>343.1</ele>
  <time>2026-09-01T20:03:14Z</time>
  <course>11.22</course>
  <speed>0.022360679774997897</speed>
  <fix>3d</fix>
</trkpt>
<trkpt lat="-27.274439" lon="151.290064">
  <ele>343.1</ele>
  <time>2026-09-01T20:03:14Z</time>
  <course>270.0</course>
  <speed>0.0</speed>
  <fix>3d</fix>
</trkpt>
<trkpt lat="-27.2744392" lon="151.2900641">
  <ele>343.1</ele>
  <time>2026-09-01T20:03:14Z</time>
  <course>11.22</course>
  <speed>0.022360679774997897</speed>
  <fix>3d</fix>
</trkpt>
<trkpt lat="-27.274439" lon="151.290064">
  <ele>343.1</ele>
  <time>2026-09-01T20:03:14Z</time>
  <course>270.0</course>
  <speed>0.0</speed>
  <fix>3d</fix>
</trkpt>
<trkpt lat="-27.2744392" lon="151.2900641">
  <ele>343.1</ele>
  <time>2026-09-01T20:03:14Z</time>
  <course>11.22</course>
  <speed>0.022360679774997897</speed>
  <fix>3d</fix>
</trkpt>
<trkpt lat="-27.274439" lon="151.290064">
  <ele>343.1</ele>
  <time>2026-09-01T20:03:14Z</time>
  <course>270.0</course>
  <speed>0.0</speed>
  <fix>3d</fix>
</trkpt>
<trkpt lat="-27.2744392" lon="151.2900641">
  <ele>343.1</ele>
  <time>2026-09-01T20:03:14Z</time>
  <course>11.22</course>
  <speed>0.022360679774997897</speed>
  <fix>3d</fix>
</trkpt>
<trkpt lat="-27.274439" lon="151.290064">
  <ele>343.1</ele>
  <time>2026-09-01T20:03:14Z</time>
  <course>270.0</course>
  <speed>0.0</speed>
  <fix>3d</fix>
</trkpt>
<trkpt lat="-27.2744392" lon="151.2900641">
  <ele>343.1</ele>
  <time>2026-09-01T20:03:14Z</time>
  <course>11.22</course>
  <speed>0.022360679774997897</speed>
  <fix>3d</fix>
</trkpt>
<trkpt lat="-27.274439" lon="151.290064">
  <ele>343.1</ele>
  <time>2026-09-01T20:03:14Z</time>
  <course>270.0</course>
  <speed>0.0</speed>
  <fix>3d</fix>
</trkpt>
<trkpt lat="-27.2744392" lon="151.2900641">
  <ele>343.11</ele>
  <time>2026-09-01T20:03:14Z</time>
  <course>11.22</course>
  <speed>0.022360679774997897</speed>
  <fix>3d</fix>
</trkpt>
<trkpt lat="-27.274439" lon="151.290064">
  <ele>343.1</ele>
  <time>2026-09-01T20:03:14Z</time>
  <course>270.0</course>
  <speed>0.0</speed>
  <fix>3d</fix>
</trkpt>
<trkpt lat="-27.2744392" lon="151.2900641">
  <ele>343.11</ele>
  <time>2026-09-01T20:03:14Z</time>
  <course>11.22</course>
  <speed>0.022360679774997897</speed>
  <fix>3d</fix>
</trkpt>
<trkpt lat="-27.274439" lon="151.290064">
  <ele>343.1</ele>
  <time>2026-09-01T20:03:14Z</time>
  <course>270.0</course>
  <speed>0.0</speed>
  <fix>3d</fix>
</trkpt>
<trkpt lat="-27.2744392" lon="151.2900641">
  <ele>343.11</ele>
  <time>2026-09-01T20:03:14Z</time>
  <course>11.23</course>
  <speed>0.022360679774997897</speed>
  <fix>3d</fix>
</trkpt>
<trkpt lat="-27.274439" lon="151.290064">
  <ele>343.1</ele>
  <time>2026-09-01T20:03:14Z</time>
  <course>270.0</course>
  <speed>0.0</speed>
  <fix>3d</fix>
</trkpt>
<trkpt lat="-27.2744392" lon="151.2900641">
  <ele>343.11</ele>
  <time>2026-09-01T20:03:14Z</time>
  <course>11.23</course>
  <speed>0.022360679774997897</speed>
  <fix>3d</fix>
</trkpt>
<trkpt lat="-27.274439" lon="151.290064">
  <ele>343.1</ele>
  <time>2026-09-01T20:03:14Z</time>
  <course>270.0</course>
  <speed>0.0</speed>
  <fix>3d</fix>
</trkpt>
<trkpt lat="-27.2744392" lon="151.2900641">
  <ele>343.11</ele>
  <time>2026-09-01T20:03:14Z</time>
  <course>11.23</course>
  <speed>0.022360679774997897</speed>
  <fix>3d</fix>
</trkpt>
<trkpt lat="-27.274439" lon="151.290064">
  <ele>343.1</ele>
  <time>2026-09-01T20:03:14Z</time>
  <course>270.0</course>
  <speed>0.0</speed>
  <fix>3d</fix>
</trkpt>
<trkpt lat="-27.2744392" lon="151.2900641">
  <ele>343.11</ele>
  <time>2026-09-01T20:03:14Z</time>
  <course>11.23</course>
  <speed>0.022360679774997897</speed>
  <fix>3d</fix>
</trkpt>
<trkpt lat="-27.274439" lon="151.290064">
  <ele>343.1</ele>
  <time>2026-09-01T20:03:14Z</time>
  <course>270.0</course>
  <speed>0.0</speed>
  <fix>3d</fix>
</trkpt>
<trkpt lat="-27.2744392" lon="151.2900641">
  <ele>343.11</ele>
  <time>2026-09-01T20:03:14Z</time>
  <course>11.23</course>
  <speed>0.022360679774997897</speed>
  <fix>3d</fix>
</trkpt>
<trkpt lat="-27.274439" lon="151.290064">
  <ele>343.1</ele>
  <time>2026-09-01T20:03:14Z</time>
  <course>270.0</course>
  <speed>0.0</speed>
  <fix>3d</fix>
</trkpt>
<trkpt lat="-27.2744392" lon="151.2900641">
  <ele>343.1</ele>
  <time>2026-09-01T20:03:14Z</time>
  <course>11.23</course>
  <speed>0.022360679774997897</speed>
  <fix>3d</fix>
</trkpt>
<trkpt lat="-27.274439" lon="151.290064">
  <ele>343.1</ele>
  <time>2026-09-01T20:03:14Z</time>
  <course>270.0</course>
  <speed>0.0</speed>
  <fix>3d</fix>
</trkpt>
<trkpt lat="-27.2744392" lon="151.2900641">
  <ele>343.1</ele>
  <time>2026-09-01T20:03:14Z</time>
  <course>11.23</course>
  <speed>0.022360679774997897</speed>
  <fix>3d</fix>
</trkpt>
<trkpt lat="-27.274439" lon="151.290064">
  <ele>343.1</ele>
  <time>2026-09-01T20:03:14Z</time>
  <course>270.0</course>
  <speed>0.0</speed>
  <fix>3d</fix>
</trkpt>
<trkpt lat="-27.2744392" lon="151.2900641">
  <ele>343.1</ele>
  <time>2026-09-01T20:03:14Z</time>
  <course>11.23</course>
  <speed>0.022360679774997897</speed>
  <fix>3d</fix>
</trkpt>
<trkpt lat="-27.274439" lon="151.290064">
  <ele>343.1</ele>
  <time>2026-09-01T20:03:14Z</time>
  <course>270.0</course>
  <speed>0.0</speed>
  <fix>3d</fix>
</trkpt>
<trkpt lat="-27.2744392" lon="151.2900641">
  <ele>343.1</ele>
  <time>2026-09-01T20:03:14Z</time>
  <course>11.23</course>
  <speed>0.022360679774997897</speed>
  <fix>3d</fix>
</trkpt>
<trkpt lat="-27.274439" lon="151.290064">
  <ele>343.1</ele>
  <time>2026-09-01T20:03:14Z</time>
  <course>270.0</course>
  <speed>0.0</speed>
  <fix>3d</fix>
</trkpt>
<trkpt lat="-27.2744392" lon="151.2900641">
  <ele>343.09</ele>
  <time>2026-09-01T20:03:14Z</time>
  <course>11.23</course>
  <speed>0.022360679774997897</speed>
  <fix>3d</fix>
</trkpt>
<trkpt lat="-27.274439" lon="151.290064">
  <ele>343.1</ele>
  <time>2026-09-01T20:03:14Z</time>
  <course>270.0</course>
  <speed>0.0</speed>
  <fix>3d</fix>
</trkpt>
<trkpt lat="-27.2744392" lon="151.2900641">
  <ele>343.09</ele>
  <time>2026-09-01T20:03:14Z</time>
  <course>11.24</course>
  <speed>0.022360679774997897</speed>
  <fix>3d</fix>
</trkpt>
<trkpt lat="-27.274439" lon="151.290064">
  <ele>343.1</ele>
  <time>2026-09-01T20:03:14Z</time>
  <course>270.0</course>
  <speed>0.0</speed>
  <fix>3d</fix>
</trkpt>
<trkpt lat="-27.2744392" lon="151.2900641">
  <ele>343.09</ele>
  <time>2026-09-01T20:03:14Z</time>
  <course>11.24</course>
  <speed>0.022360679774997897</speed>
  <fix>3d</fix>
</trkpt>
<trkpt lat="-27.274439" lon="151.290064">
  <ele>343.1</ele>
  <time>2026-09-01T20:03:14Z</time>
  <course>270.0</course>
  <speed>0.0</speed>
  <fix>3d</fix>
</trkpt>
<trkpt lat="-27.2744392" lon="151.2900641">
  <ele>343.09</ele>
  <time>2026-09-01T20:03:14Z</time>
  <course>11.24</course>
  <speed>0.022360679774997897</speed>
  <fix>3d</fix>
</trkpt>
<trkpt lat="-27.274439" lon="151.290064">
  <ele>343.1</ele>
  <time>2026-09-01T20:03:14Z</time>
  <course>270.0</course>
  <speed>0.0</speed>
  <fix>3d</fix>
</trkpt>
<trkpt lat="-27.2744392" lon="151.2900641">
  <ele>343.09</ele>
  <time>2026-09-01T20:03:14Z</time>
  <course>11.24</course>
  <speed>0.022360679774997897</speed>
  <fix>3d</fix>
</trkpt>
<trkpt lat="-27.274439" lon="151.290064">
  <ele>343.1</ele>
  <time>2026-09-01T20:03:14Z</time>
  <course>270.0</course>
  <speed>0.0</speed>
  <fix>3d</fix>
</trkpt>
<trkpt lat="-27.2744392" lon="151.2900641">
  <ele>343.08</ele>
  <time>2026-09-01T20:03:14Z</time>
  <course>11.24</course>
  <speed>0.022360679774997897</speed>
  <fix>3d</fix>
</trkpt>
<trkpt lat="-27.274439" lon="151.290064">
  <ele>343.1</ele>
  <time>2026-09-01T20:03:14Z</time>
  <course>270.0</course>
  <speed>0.0</speed>
  <fix>3d</fix>
</trkpt>
<trkpt lat="-27.2744392" lon="151.2900641">
  <ele>343.08</ele>
  <time>2026-09-01T20:03:14Z</time>
  <course>11.24</course>
  <speed>0.022360679774997897</speed>
  <fix>3d</fix>
</trkpt>
<trkpt lat="-27.274439" lon="151.290064">
  <ele>343.1</ele>
  <time>2026-09-01T20:03:14Z</time>
  <course>270.0</course>
  <speed>0.0</speed>
  <fix>3d</fix>
</trkpt>
<trkpt lat="-27.2744392" lon="151.2900641">
  <ele>343.08</ele>
  <time>2026-09-01T20:03:14Z</time>
  <course>11.24</course>
  <speed>0.022360679774997897</speed>
  <fix>3d</fix>
</trkpt>
<trkpt lat="-27.274439" lon="151.290064">
  <ele>343.1</ele>
  <time>2026-09-01T20:03:14Z</time>
  <course>270.0</course>
  <speed>0.0</speed>
  <fix>3d</fix>
</trkpt>
<trkpt lat="-27.2744392" lon="151.2900641">
  <ele>343.08</ele>
  <time>2026-09-01T20:03:14Z</time>
  <course>11.24</course>
  <speed>0.022360679774997897</speed>
  <fix>3d</fix>
</trkpt>
<trkpt lat="-27.274439" lon="151.290064">
  <ele>343.1</ele>
  <time>2026-09-01T20:03:14Z</time>
  <course>270.0</course>
  <speed>0.0</speed>
  <fix>3d</fix>
</trkpt>
<trkpt lat="-27.2744392" lon="151.2900641">
  <ele>343.08</ele>
  <time>2026-09-01T20:03:14Z</time>
  <course>11.24</course>
  <speed>0.022360679774997897</speed>
  <fix>3d</fix>
</trkpt>
<trkpt lat="-27.274439" lon="151.290064">
  <ele>343.1</ele>
  <time>2026-09-01T20:03:14Z</time>
  <course>270.0</course>
  <speed>0.0</speed>
  <fix>3d</fix>
</trkpt>
<trkpt lat="-27.2744392" lon="151.2900641">
  <ele>343.08</ele>
  <time>2026-09-01T20:03:14Z</time>
  <course>11.25</course>
  <speed>0.022360679774997897</speed>
  <fix>3d</fix>
</trkpt>
<trkpt lat="-27.274439" lon="151.290064">
  <ele>343.1</ele>
  <time>2026-09-01T20:03:14Z</time>
  <course>270.0</course>
  <speed>0.0</speed>
  <fix>3d</fix>
</trkpt>
<trkpt lat="-27.2744392" lon="151.2900641">
  <ele>343.08</ele>
  <time>2026-09-01T20:03:14Z</time>
  <course>11.25</course>
  <speed>0.022360679774997897</speed>
  <fix>3d</fix>
</trkpt>
<trkpt lat="-27.274439" lon="151.290064">
  <ele>343.1</ele>
  <time>2026-09-01T20:03:14Z</time>
  <course>270.0</course>
  <speed>0.0</speed>
  <fix>3d</fix>
</trkpt>
<trkpt lat="-27.2744392" lon="151.2900641">
  <ele>343.08</ele>
  <time>2026-09-01T20:03:14Z</time>
  <course>11.25</course>
  <speed>0.022360679774997897</speed>
  <fix>3d</fix>
</trkpt>
<trkpt lat="-27.274439" lon="151.290064">
  <ele>343.1</ele>
  <time>2026-09-01T20:03:14Z</time>
  <course>270.0</course>
  <speed>0.0</speed>
  <fix>3d</fix>
</trkpt>
<trkpt lat="-27.2744392" lon="151.2900641">
  <ele>343.07</ele>
  <time>2026-09-01T20:03:14Z</time>
  <course>11.25</course>
  <speed>0.022360679774997897</speed>
  <fix>3d</fix>
</trkpt>
<trkpt lat="-27.274439" lon="151.290064">
  <ele>343.1</ele>
  <time>2026-09-01T20:03:14Z</time>
  <course>270.0</course>
  <speed>0.0</speed>
  <fix>3d</fix>
</trkpt>
<trkpt lat="-27.2744392" lon="151.2900641">
  <ele>343.07</ele>
  <time>2026-09-01T20:03:14Z</time>
  <course>11.25</course>
  <speed>0.022360679774997897</speed>
  <fix>3d</fix>
</trkpt>
<trkpt lat="-27.274439" lon="151.290064">
  <ele>343.1</ele>
  <time>2026-09-01T20:03:14Z</time>
  <course>270.0</course>
  <speed>0.0</speed>
  <fix>3d</fix>
</trkpt>
<trkpt lat="-27.2744392" lon="151.2900641">
  <ele>343.08</ele>
  <time>2026-09-01T20:03:14Z</time>
  <course>11.25</course>
  <speed>0.022360679774997897</speed>
  <fix>3d</fix>
</trkpt>
<trkpt lat="-27.274439" lon="151.290064">
  <ele>343.1</ele>
  <time>2026-09-01T20:03:14Z</time>
  <course>270.0</course>
  <speed>0.0</speed>
  <fix>3d</fix>
</trkpt>
<trkpt lat="-27.2744392" lon="151.2900641">
  <ele>343.07</ele>
  <time>2026-09-01T20:03:14Z</time>
  <course>11.25</course>
  <speed>0.022360679774997897</speed>
  <fix>3d</fix>
</trkpt>
<trkpt lat="-27.274439" lon="151.290064">
  <ele>343.1</ele>
  <time>2026-09-01T20:03:14Z</time>
  <course>270.0</course>
  <speed>0.0</speed>
  <fix>3d</fix>
</trkpt>
<trkpt lat="-27.2744392" lon="151.2900641">
  <ele>343.07</ele>
  <time>2026-09-01T20:03:14Z</time>
  <course>11.25</course>
  <speed>0.022360679774997897</speed>
  <fix>3d</fix>
</trkpt>
<trkpt lat="-27.274439" lon="151.290064">
  <ele>343.1</ele>
  <time>2026-09-01T20:03:14Z</time>
  <course>270.0</course>
  <speed>0.0</speed>
  <fix>3d</fix>
</trkpt>
<trkpt lat="-27.2744392" lon="151.2900641">
  <ele>343.07</ele>
  <time>2026-09-01T20:03:14Z</time>
  <course>11.25</course>
  <speed>0.022360679774997897</speed>
  <fix>3d</fix>
</trkpt>
<trkpt lat="-27.274439" lon="151.290064">
  <ele>343.1</ele>
  <time>2026-09-01T20:03:14Z</time>
  <course>270.0</course>
  <speed>0.0</speed>
  <fix>3d</fix>
</trkpt>
<trkpt lat="-27.2744392" lon="151.2900641">
  <ele>343.07</ele>
  <time>2026-09-01T20:03:14Z</time>
  <course>11.25</course>
  <speed>0.022360679774997897</speed>
  <fix>3d</fix>
</trkpt>
<trkpt lat="-27.274439" lon="151.290064">
  <ele>343.1</ele>
  <time>2026-09-01T20:03:14Z</time>
  <course>270.0</course>
  <speed>0.0</speed>
  <fix>3d</fix>
</trkpt>
<trkpt lat="-27.2744392" lon="151.2900641">
  <ele>343.07</ele>
  <time>2026-09-01T20:03:14Z</time>
  <course>11.26</course>
  <speed>0.022360679774997897</speed>
  <fix>3d</fix>
</trkpt>
<trkpt lat="-27.274439" lon="151.290064">
  <ele>343.1</ele>
  <time>2026-09-01T20:03:14Z</time>
  <course>270.0</course>
  <speed>0.0</speed>
  <fix>3d</fix>
</trkpt>
<trkpt lat="-27.2744392" lon="151.2900641">
  <ele>343.07</ele>
  <time>2026-09-01T20:03:14Z</time>
  <course>11.26</course>
  <speed>0.022360679774997897</speed>
  <fix>3d</fix>
</trkpt>
<trkpt lat="-27.274439" lon="151.290064">
  <ele>343.1</ele>
  <time>2026-09-01T20:03:14Z</time>
  <course>270.0</course>
  <speed>0.0</speed>
  <fix>3d</fix>
</trkpt>
<trkpt lat="-27.2744392" lon="151.2900641">
  <ele>343.07</ele>
  <time>2026-09-01T20:03:14Z</time>
  <course>11.26</course>
  <speed>0.022360679774997897</speed>
  <fix>3d</fix>
</trkpt>
<trkpt lat="-27.274439" lon="151.290064">
  <ele>343.1</ele>
  <time>2026-09-01T20:03:14Z</time>
  <course>270.0</course>
  <speed>0.0</speed>
  <fix>3d</fix>
</trkpt>
<trkpt lat="-27.2744392" lon="151.2900641">
  <ele>343.07</ele>
  <time>2026-09-01T20:03:14Z</time>
  <course>11.26</course>
  <speed>0.022360679774997897</speed>
  <fix>3d</fix>
</trkpt>
<trkpt lat="-27.274439" lon="151.290064">
  <ele>343.1</ele>
  <time>2026-09-01T20:03:14Z</time>
  <course>270.0</course>
  <speed>0.0</speed>
  <fix>3d</fix>
</trkpt>
<trkpt lat="-27.2744392" lon="151.2900641">
  <ele>343.07</ele>
  <time>2026-09-01T20:03:14Z</time>
  <course>11.26</course>
  <speed>0.022360679774997897</speed>
  <fix>3d</fix>
</trkpt>
<trkpt lat="-27.274439" lon="151.290064">
  <ele>343.1</ele>
  <time>2026-09-01T20:03:14Z</time>
  <course>270.0</course>
  <speed>0.0</speed>
  <fix>3d</fix>
</trkpt>
<trkpt lat="-27.2744392" lon="151.2900641">
  <ele>343.07</ele>
  <time>2026-09-01T20:03:14Z</time>
  <course>11.26</course>
  <speed>0.022360679774997897</speed>
  <fix>3d</fix>
</trkpt>
<trkpt lat="-27.274439" lon="151.290064">
  <ele>343.1</ele>
  <time>2026-09-01T20:03:14Z</time>
  <course>270.0</course>
  <speed>0.0</speed>
  <fix>3d</fix>
</trkpt>
<trkpt lat="-27.2744392" lon="151.2900641">
  <ele>343.07</ele>
  <time>2026-09-01T20:03:14Z</time>
  <course>11.26</course>
  <speed>0.022360679774997897</speed>
  <fix>3d</fix>
</trkpt>
<trkpt lat="-27.274439" lon="151.290064">
  <ele>343.1</ele>
  <time>2026-09-01T20:03:14Z</time>
  <course>270.0</course>
  <speed>0.0</speed>
  <fix>3d</fix>
</trkpt>
<trkpt lat="-27.2744392" lon="151.2900641">
  <ele>343.07</ele>
  <time>2026-09-01T20:03:14Z</time>
  <course>11.26</course>
  <speed>0.022360679774997897</speed>
  <fix>3d</fix>
</trkpt>
<trkpt lat="-27.274439" lon="151.290064">
  <ele>343.1</ele>
  <time>2026-09-01T20:03:14Z</time>
  <course>270.0</course>
  <speed>0.0</speed>
  <fix>3d</fix>
</trkpt>
<trkpt lat="-27.2744392" lon="151.2900641">
  <ele>343.07</ele>
  <time>2026-09-01T20:03:14Z</time>
  <course>11.26</course>
  <speed>0.022360679774997897</speed>
  <fix>3d</fix>
</trkpt>
<trkpt lat="-27.274439" lon="151.290064">
  <ele>343.1</ele>
  <time>2026-09-01T20:03:14Z</time>
  <course>270.0</course>
  <speed>0.0</speed>
  <fix>3d</fix>
</trkpt>
<trkpt lat="-27.2744392" lon="151.2900641">
  <ele>343.06</ele>
  <time>2026-09-01T20:03:14Z</time>
  <course>11.27</course>
  <speed>0.022360679774997897</speed>
  <fix>3d</fix>
</trkpt>
<trkpt lat="-27.274439" lon="151.290064">
  <ele>343.1</ele>
  <time>2026-09-01T20:03:14Z</time>
  <course>270.0</course>
  <speed>0.0</speed>
  <fix>3d</fix>
</trkpt>
<trkpt lat="-27.2744392" lon="151.2900641">
  <ele>343.06</ele>
  <time>2026-09-01T20:03:14Z</time>
  <course>11.27</course>
  <speed>0.022360679774997897</speed>
  <fix>3d</fix>
</trkpt>
<trkpt lat="-27.274439" lon="151.290064">
  <ele>343.1</ele>
  <time>2026-09-01T20:03:14Z</time>
  <course>270.0</course>
  <speed>0.0</speed>
  <fix>3d</fix>
</trkpt>
<trkpt lat="-27.2744392" lon="151.2900641">
  <ele>343.09</ele>
  <time>2026-09-01T20:03:14Z</time>
  <course>11.27</course>
  <speed>0.022360679774997897</speed>
  <fix>3d</fix>
</trkpt>
<trkpt lat="-27.274439" lon="151.290064">
  <ele>343.1</ele>
  <time>2026-09-01T20:03:14Z</time>
  <course>270.0</course>
  <speed>0.0</speed>
  <fix>3d</fix>
</trkpt>
<trkpt lat="-27.2744392" lon="151.2900641">
  <ele>343.09</ele>
  <time>2026-09-01T20:03:14Z</time>
  <course>11.27</course>
  <speed>0.022360679774997897</speed>
  <fix>3d</fix>
</trkpt>
<trkpt lat="-27.274439" lon="151.290064">
  <ele>343.1</ele>
  <time>2026-09-01T20:03:14Z</time>
  <course>270.0</course>
  <speed>0.0</speed>
  <fix>3d</fix>
</trkpt>
<trkpt lat="-27.2744392" lon="151.2900641">
  <ele>343.09</ele>
  <time>2026-09-01T20:03:14Z</time>
  <course>11.27</course>
  <speed>0.022360679774997897</speed>
  <fix>3d</fix>
</trkpt>
<trkpt lat="-27.274439" lon="151.290064">
  <ele>343.1</ele>
  <time>2026-09-01T20:03:14Z</time>
  <course>270.0</course>
  <speed>0.0</speed>
  <fix>3d</fix>
</trkpt>
<trkpt lat="-27.2744392" lon="151.2900641">
  <ele>343.09</ele>
  <time>2026-09-01T20:03:14Z</time>
  <course>11.27</course>
  <speed>0.022360679774997897</speed>
  <fix>3d</fix>
</trkpt>
<trkpt lat="-27.274439" lon="151.290064">
  <ele>343.1</ele>
  <time>2026-09-01T20:03:14Z</time>
  <course>270.0</course>
  <speed>0.0</speed>
  <fix>3d</fix>
</trkpt>
<trkpt lat="-27.2744392" lon="151.2900641">
  <ele>343.1</ele>
  <time>2026-09-01T20:03:14Z</time>
  <course>11.27</course>
  <speed>0.022360679774997897</speed>
  <fix>3d</fix>
</trkpt>
<trkpt lat="-27.274439" lon="151.290064">
  <ele>343.1</ele>
  <time>2026-09-01T20:03:14Z</time>
  <course>270.0</course>
  <speed>0.0</speed>
  <fix>3d</fix>
</trkpt>
<trkpt lat="-27.2744392" lon="151.2900641">
  <ele>343.1</ele>
  <time>2026-09-01T20:03:14Z</time>
  <course>11.27</course>
  <speed>0.022360679774997897</speed>
  <fix>3d</fix>
</trkpt>
<trkpt lat="-27.274439" lon="151.290064">
  <ele>343.1</ele>
  <time>2026-09-01T20:03:14Z</time>
  <course>270.0</course>
  <speed>0.0</speed>
  <fix>3d</fix>
</trkpt>
<trkpt lat="-27.2744392" lon="151.2900641">
  <ele>343.11</ele>
  <time>2026-09-01T20:03:14Z</time>
  <course>11.27</course>
  <speed>0.022360679774997897</speed>
  <fix>3d</fix>
</trkpt>
<trkpt lat="-27.274439" lon="151.290064">
  <ele>343.1</ele>
  <time>2026-09-01T20:03:14Z</time>
  <course>270.0</course>
  <speed>0.0</speed>
  <fix>3d</fix>
</trkpt>
<trkpt lat="-27.2744392" lon="151.2900641">
  <ele>343.11</ele>
  <time>2026-09-01T20:03:14Z</time>
  <course>11.27</course>
  <speed>0.022360679774997897</speed>
  <fix>3d</fix>
</trkpt>
<trkpt lat="-27.274439" lon="151.290064">
  <ele>343.1</ele>
  <time>2026-09-01T20:03:14Z</time>
  <course>270.0</course>
  <speed>0.0</speed>
  <fix>3d</fix>
</trkpt>
<trkpt lat="-27.2744392" lon="151.2900641">
  <ele>343.12</ele>
  <time>2026-09-01T20:03:14Z</time>
  <course>11.28</course>
  <speed>0.022360679774997897</speed>
  <fix>3d</fix>
</trkpt>
<trkpt lat="-27.274439" lon="151.290064">
  <ele>343.1</ele>
  <time>2026-09-01T20:03:14Z</time>
  <course>270.0</course>
  <speed>0.0</speed>
  <fix>3d</fix>
</trkpt>
<trkpt lat="-27.2744392" lon="151.2900641">
  <ele>343.12</ele>
  <time>2026-09-01T20:03:14Z</time>
  <course>11.28</course>
  <speed>0.022360679774997897</speed>
  <fix>3d</fix>
</trkpt>
<trkpt lat="-27.274439" lon="151.290064">
  <ele>343.1</ele>
  <time>2026-09-01T20:03:14Z</time>
  <course>270.0</course>
  <speed>0.0</speed>
  <fix>3d</fix>
</trkpt>
<trkpt lat="-27.2744392" lon="151.2900641">
  <ele>343.12</ele>
  <time>2026-09-01T20:03:14Z</time>
  <course>11.28</course>
  <speed>0.022360679774997897</speed>
  <fix>3d</fix>
</trkpt>
<trkpt lat="-27.274439" lon="151.290064">
  <ele>343.1</ele>
  <time>2026-09-01T20:03:14Z</time>
  <course>270.0</course>
  <speed>0.0</speed>
  <fix>3d</fix>
</trkpt>
<trkpt lat="-27.2744392" lon="151.2900641">
  <ele>343.12</ele>
  <time>2026-09-01T20:03:14Z</time>
  <course>11.28</course>
  <speed>0.022360679774997897</speed>
  <fix>3d</fix>
</trkpt>
<trkpt lat="-27.274439" lon="151.290064">
  <ele>343.1</ele>
  <time>2026-09-01T20:03:14Z</time>
  <course>270.0</course>
  <speed>0.0</speed>
  <fix>3d</fix>
</trkpt>
<trkpt lat="-27.2744392" lon="151.2900641">
  <ele>343.12</ele>
  <time>2026-09-01T20:03:14Z</time>
  <course>11.28</course>
  <speed>0.022360679774997897</speed>
  <fix>3d</fix>
</trkpt>
<trkpt lat="-27.274439" lon="151.290064">
  <ele>343.1</ele>
  <time>2026-09-01T20:03:14Z</time>
  <course>270.0</course>
  <speed>0.0</speed>
  <fix>3d</fix>
</trkpt>
<trkpt lat="-27.2744392" lon="151.2900641">
  <ele>343.13</ele>
  <time>2026-09-01T20:03:14Z</time>
  <course>11.28</course>
  <speed>0.022360679774997897</speed>
  <fix>3d</fix>
</trkpt>
<trkpt lat="-27.274439" lon="151.290064">
  <ele>343.1</ele>
  <time>2026-09-01T20:03:14Z</time>
  <course>270.0</course>
  <speed>0.0</speed>
  <fix>3d</fix>
</trkpt>
<trkpt lat="-27.2744392" lon="151.2900641">
  <ele>343.13</ele>
  <time>2026-09-01T20:03:14Z</time>
  <course>11.28</course>
  <speed>0.022360679774997897</speed>
  <fix>3d</fix>
</trkpt>
<trkpt lat="-27.274439" lon="151.290064">
  <ele>343.1</ele>
  <time>2026-09-01T20:03:14Z</time>
  <course>270.0</course>
  <speed>0.0</speed>
  <fix>3d</fix>
</trkpt>
<trkpt lat="-27.2744392" lon="151.2900641">
  <ele>343.13</ele>
  <time>2026-09-01T20:03:14Z</time>
  <course>11.28</course>
  <speed>0.022360679774997897</speed>
  <fix>3d</fix>
</trkpt>
<trkpt lat="-27.274439" lon="151.290064">
  <ele>343.1</ele>
  <time>2026-09-01T20:03:14Z</time>
  <course>270.0</course>
  <speed>0.0</speed>
  <fix>3d</fix>
</trkpt>
<trkpt lat="-27.2744392" lon="151.2900641">
  <ele>343.13</ele>
  <time>2026-09-01T20:03:14Z</time>
  <course>11.28</course>
  <speed>0.022360679774997897</speed>
  <fix>3d</fix>
</trkpt>
<trkpt lat="-27.274439" lon="151.290064">
  <ele>343.1</ele>
  <time>2026-09-01T20:03:14Z</time>
  <course>270.0</course>
  <speed>0.0</speed>
  <fix>3d</fix>
</trkpt>
<trkpt lat="-27.2744392" lon="151.2900641">
  <ele>343.14</ele>
  <time>2026-09-01T20:03:14Z</time>
  <course>11.28</course>
  <speed>0.022360679774997897</speed>
  <fix>3d</fix>
</trkpt>
<trkpt lat="-27.274439" lon="151.290064">
  <ele>343.1</ele>
  <time>2026-09-01T20:03:14Z</time>
  <course>270.0</course>
  <speed>0.0</speed>
  <fix>3d</fix>
</trkpt>
<trkpt lat="-27.2744392" lon="151.2900641">
  <ele>343.14</ele>
  <time>2026-09-01T20:03:14Z</time>
  <course>11.29</course>
  <speed>0.022360679774997897</speed>
  <fix>3d</fix>
</trkpt>
<trkpt lat="-27.274439" lon="151.290064">
  <ele>343.1</ele>
  <time>2026-09-01T20:03:14Z</time>
  <course>270.0</course>
  <speed>0.0</speed>
  <fix>3d</fix>
</trkpt>
<trkpt lat="-27.2744392" lon="151.2900641">
  <ele>343.15</ele>
  <time>2026-09-01T20:03:14Z</time>
  <course>11.29</course>
  <speed>0.022360679774997897</speed>
  <fix>3d</fix>
</trkpt>
<trkpt lat="-27.274439" lon="151.290064">
  <ele>343.1</ele>
  <time>2026-09-01T20:03:14Z</time>
  <course>270.0</course>
  <speed>0.0</speed>
  <fix>3d</fix>
</trkpt>
<trkpt lat="-27.2744392" lon="151.2900641">
  <ele>343.15</ele>
  <time>2026-09-01T20:03:14Z</time>
  <course>11.29</course>
  <speed>0.022360679774997897</speed>
  <fix>3d</fix>
</trkpt>
<trkpt lat="-27.274439" lon="151.290064">
  <ele>343.1</ele>
  <time>2026-09-01T20:03:14Z</time>
  <course>270.0</course>
  <speed>0.0</speed>
  <fix>3d</fix>
</trkpt>
<trkpt lat="-27.2744392" lon="151.2900641">
  <ele>343.15</ele>
  <time>2026-09-01T20:03:14Z</time>
  <course>11.29</course>
  <speed>0.022360679774997897</speed>
  <fix>3d</fix>
</trkpt>
<trkpt lat="-27.274439" lon="151.290064">
  <ele>343.1</ele>
  <time>2026-09-01T20:03:14Z</time>
  <course>270.0</course>
  <speed>0.0</speed>
  <fix>3d</fix>
</trkpt>
<trkpt lat="-27.2744392" lon="151.2900641">
  <ele>343.16</ele>
  <time>2026-09-01T20:03:14Z</time>
  <course>11.29</course>
  <speed>0.022360679774997897</speed>
  <fix>3d</fix>
</trkpt>
<trkpt lat="-27.274439" lon="151.290064">
  <ele>343.1</ele>
  <time>2026-09-01T20:03:14Z</time>
  <course>270.0</course>
  <speed>0.0</speed>
  <fix>3d</fix>
</trkpt>
<trkpt lat="-27.2744392" lon="151.2900641">
  <ele>343.16</ele>
  <time>2026-09-01T20:03:14Z</time>
  <course>11.29</course>
  <speed>0.022360679774997897</speed>
  <fix>3d</fix>
</trkpt>
<trkpt lat="-27.274439" lon="151.290064">
  <ele>343.1</ele>
  <time>2026-09-01T20:03:14Z</time>
  <course>270.0</course>
  <speed>0.0</speed>
  <fix>3d</fix>
</trkpt>
<trkpt lat="-27.2744392" lon="151.2900641">
  <ele>343.16</ele>
  <time>2026-09-01T20:03:14Z</time>
  <course>11.29</course>
  <speed>0.022360679774997897</speed>
  <fix>3d</fix>
</trkpt>
<trkpt lat="-27.274439" lon="151.290064">
  <ele>343.1</ele>
  <time>2026-09-01T20:03:14Z</time>
  <course>270.0</course>
  <speed>0.0</speed>
  <fix>3d</fix>
</trkpt>
<trkpt lat="-27.2744392" lon="151.2900641">
  <ele>343.17</ele>
  <time>2026-09-01T20:03:14Z</time>
  <course>11.29</course>
  <speed>0.022360679774997897</speed>
  <fix>3d</fix>
</trkpt>
<trkpt lat="-27.274439" lon="151.290064">
  <ele>343.1</ele>
  <time>2026-09-01T20:03:14Z</time>
  <course>270.0</course>
  <speed>0.0</speed>
  <fix>3d</fix>
</trkpt>
<trkpt lat="-27.2744392" lon="151.2900641">
  <ele>343.17</ele>
  <time>2026-09-01T20:03:14Z</time>
  <course>11.29</course>
  <speed>0.022360679774997897</speed>
  <fix>3d</fix>
</trkpt>
<trkpt lat="-27.274439" lon="151.290064">
  <ele>343.1</ele>
  <time>2026-09-01T20:03:14Z</time>
  <course>270.0</course>
  <speed>0.0</speed>
  <fix>3d</fix>
</trkpt>
<trkpt lat="-27.2744392" lon="151.2900641">
  <ele>343.18</ele>
  <time>2026-09-01T20:03:14Z</time>
  <course>11.29</course>
  <speed>0.022360679774997897</speed>
  <fix>3d</fix>
</trkpt>
<trkpt lat="-27.274439" lon="151.290064">
  <ele>343.1</ele>
  <time>2026-09-01T20:03:14Z</time>
  <course>270.0</course>
  <speed>0.0</speed>
  <fix>3d</fix>
</trkpt>
<trkpt lat="-27.2744392" lon="151.2900641">
  <ele>343.18</ele>
  <time>2026-09-01T20:03:14Z</time>
  <course>11.3</course>
  <speed>0.022360679774997897</speed>
  <fix>3d</fix>
</trkpt>
<trkpt lat="-27.274439" lon="151.290064">
  <ele>343.1</ele>
  <time>2026-09-01T20:03:14Z</time>
  <course>270.0</course>
  <speed>0.0</speed>
  <fix>3d</fix>
</trkpt>
<trkpt lat="-27.2744392" lon="151.2900641">
  <ele>343.18</ele>
  <time>2026-09-01T20:03:14Z</time>
  <course>11.3</course>
  <speed>0.022360679774997897</speed>
  <fix>3d</fix>
</trkpt>
<trkpt lat="-27.274439" lon="151.290064">
  <ele>343.1</ele>
  <time>2026-09-01T20:03:14Z</time>
  <course>270.0</course>
  <speed>0.0</speed>
  <fix>3d</fix>
</trkpt>
<trkpt lat="-27.2744392" lon="151.2900641">
  <ele>343.18</ele>
  <time>2026-09-01T20:03:14Z</time>
  <course>11.3</course>
  <speed>0.022360679774997897</speed>
  <fix>3d</fix>
</trkpt>
<trkpt lat="-27.274439" lon="151.290064">
  <ele>343.1</ele>
  <time>2026-09-01T20:03:14Z</time>
  <course>270.0</course>
  <speed>0.0</speed>
  <fix>3d</fix>
</trkpt>
<trkpt lat="-27.2744392" lon="151.2900641">
  <ele>343.18</ele>
  <time>2026-09-01T20:03:14Z</time>
  <course>11.3</course>
  <speed>0.022360679774997897</speed>
  <fix>3d</fix>
</trkpt>
<trkpt lat="-27.274439" lon="151.290064">
  <ele>343.1</ele>
  <time>2026-09-01T20:03:14Z</time>
  <course>270.0</course>
  <speed>0.0</speed>
  <fix>3d</fix>
</trkpt>
<trkpt lat="-27.2744392" lon="151.2900641">
  <ele>343.18</ele>
  <time>2026-09-01T20:03:14Z</time>
  <course>11.3</course>
  <speed>0.022360679774997897</speed>
  <fix>3d</fix>
</trkpt>
<trkpt lat="-27.274439" lon="151.290064">
  <ele>343.1</ele>
  <time>2026-09-01T20:03:14Z</time>
  <course>270.0</course>
  <speed>0.0</speed>
  <fix>3d</fix>
</trkpt>
<trkpt lat="-27.2744392" lon="151.2900641">
  <ele>343.18</ele>
  <time>2026-09-01T20:03:14Z</time>
  <course>11.3</course>
  <speed>0.022360679774997897</speed>
  <fix>3d</fix>
</trkpt>
<trkpt lat="-27.274439" lon="151.290064">
  <ele>343.1</ele>
  <time>2026-09-01T20:03:14Z</time>
  <course>270.0</course>
  <speed>0.0</speed>
  <fix>3d</fix>
</trkpt>
<trkpt lat="-27.2744392" lon="151.2900641">
  <ele>343.18</ele>
  <time>2026-09-01T20:03:14Z</time>
  <course>11.3</course>
  <speed>0.022360679774997897</speed>
  <fix>3d</fix>
</trkpt>
<trkpt lat="-27.274439" lon="151.290064">
  <ele>343.1</ele>
  <time>2026-09-01T20:03:14Z</time>
  <course>270.0</course>
  <speed>0.0</speed>
  <fix>3d</fix>
</trkpt>
<trkpt lat="-27.2744392" lon="151.2900641">
  <ele>343.18</ele>
  <time>2026-09-01T20:03:14Z</time>
  <course>11.3</course>
  <speed>0.022360679774997897</speed>
  <fix>3d</fix>
</trkpt>
<trkpt lat="-27.274439" lon="151.290064">
  <ele>343.1</ele>
  <time>2026-09-01T20:03:14Z</time>
  <course>270.0</course>
  <speed>0.0</speed>
  <fix>3d</fix>
</trkpt>
<trkpt lat="-27.2744392" lon="151.2900641">
  <ele>343.18</ele>
  <time>2026-09-01T20:03:14Z</time>
  <course>11.3</course>
  <speed>0.022360679774997897</speed>
  <fix>3d</fix>
</trkpt>
<trkpt lat="-27.274439" lon="151.290064">
  <ele>343.1</ele>
  <time>2026-09-01T20:03:14Z</time>
  <course>270.0</course>
  <speed>0.0</speed>
  <fix>3d</fix>
</trkpt>
<trkpt lat="-27.2744392" lon="151.2900641">
  <ele>343.18</ele>
  <time>2026-09-01T20:03:14Z</time>
  <course>11.31</course>
  <speed>0.022360679774997897</speed>
  <fix>3d</fix>
</trkpt>
<trkpt lat="-27.274439" lon="151.290064">
  <ele>343.1</ele>
  <time>2026-09-01T20:03:14Z</time>
  <course>270.0</course>
  <speed>0.0</speed>
  <fix>3d</fix>
</trkpt>
<trkpt lat="-27.2744392" lon="151.2900641">
  <ele>343.18</ele>
  <time>2026-09-01T20:03:14Z</time>
  <course>11.31</course>
  <speed>0.022360679774997897</speed>
  <fix>3d</fix>
</trkpt>
<trkpt lat="-27.274439" lon="151.290064">
  <ele>343.1</ele>
  <time>2026-09-01T20:03:14Z</time>
  <course>270.0</course>
  <speed>0.0</speed>
  <fix>3d</fix>
</trkpt>
<trkpt lat="-27.2744392" lon="151.2900641">
  <ele>343.19</ele>
  <time>2026-09-01T20:03:14Z</time>
  <course>11.31</course>
  <speed>0.022360679774997897</speed>
  <fix>3d</fix>
</trkpt>
<trkpt lat="-27.274439" lon="151.290064">
  <ele>343.1</ele>
  <time>2026-09-01T20:03:14Z</time>
  <course>270.0</course>
  <speed>0.0</speed>
  <fix>3d</fix>
</trkpt>
<trkpt lat="-27.2744392" lon="151.2900641">
  <ele>343.19</ele>
  <time>2026-09-01T20:03:14Z</time>
  <course>11.31</course>
  <speed>0.022360679774997897</speed>
  <fix>3d</fix>
</trkpt>
<trkpt lat="-27.274439" lon="151.290064">
  <ele>343.1</ele>
  <time>2026-09-01T20:03:14Z</time>
  <course>270.0</course>
  <speed>0.0</speed>
  <fix>3d</fix>
</trkpt>
<trkpt lat="-27.2744392" lon="151.2900641">
  <ele>343.19</ele>
  <time>2026-09-01T20:03:14Z</time>
  <course>11.31</course>
  <speed>0.022360679774997897</speed>
  <fix>3d</fix>
</trkpt>
<trkpt lat="-27.274439" lon="151.290064">
  <ele>343.1</ele>
  <time>2026-09-01T20:03:14Z</time>
  <course>270.0</course>
  <speed>0.0</speed>
  <fix>3d</fix>
</trkpt>
<trkpt lat="-27.2744392" lon="151.2900641">
  <ele>343.19</ele>
  <time>2026-09-01T20:03:14Z</time>
  <course>11.31</course>
  <speed>0.022360679774997897</speed>
  <fix>3d</fix>
</trkpt>
<trkpt lat="-27.274439" lon="151.290064">
  <ele>343.1</ele>
  <time>2026-09-01T20:03:14Z</time>
  <course>270.0</course>
  <speed>0.0</speed>
  <fix>3d</fix>
</trkpt>
<trkpt lat="-27.2744392" lon="151.2900641">
  <ele>343.2</ele>
  <time>2026-09-01T20:03:14Z</time>
  <course>11.31</course>
  <speed>0.022360679774997897</speed>
  <fix>3d</fix>
</trkpt>
<trkpt lat="-27.274439" lon="151.290064">
  <ele>343.1</ele>
  <time>2026-09-01T20:03:14Z</time>
  <course>270.0</course>
  <speed>0.0</speed>
  <fix>3d</fix>
</trkpt>
<trkpt lat="-27.2744392" lon="151.2900641">
  <ele>343.2</ele>
  <time>2026-09-01T20:03:14Z</time>
  <course>11.31</course>
  <speed>0.022360679774997897</speed>
  <fix>3d</fix>
</trkpt>
<trkpt lat="-27.274439" lon="151.290064">
  <ele>343.1</ele>
  <time>2026-09-01T20:03:14Z</time>
  <course>270.0</course>
  <speed>0.0</speed>
  <fix>3d</fix>
</trkpt>
<trkpt lat="-27.2744392" lon="151.2900641">
  <ele>343.2</ele>
  <time>2026-09-01T20:03:14Z</time>
  <course>11.31</course>
  <speed>0.022360679774997897</speed>
  <fix>3d</fix>
</trkpt>
<trkpt lat="-27.274439" lon="151.290064">
  <ele>343.1</ele>
  <time>2026-09-01T20:03:14Z</time>
  <course>270.0</course>
  <speed>0.0</speed>
  <fix>3d</fix>
</trkpt>
<trkpt lat="-27.2744392" lon="151.2900641">
  <ele>343.2</ele>
  <time>2026-09-01T20:03:14Z</time>
  <course>11.31</course>
  <speed>0.022360679774997897</speed>
  <fix>3d</fix>
</trkpt>
<trkpt lat="-27.274439" lon="151.290064">
  <ele>343.1</ele>
  <time>2026-09-01T20:03:14Z</time>
  <course>270.0</course>
  <speed>0.0</speed>
  <fix>3d</fix>
</trkpt>
<trkpt lat="-27.2744392" lon="151.2900641">
  <ele>343.2</ele>
  <time>2026-09-01T20:03:14Z</time>
  <course>11.31</course>
  <speed>0.022360679774997897</speed>
  <fix>3d</fix>
</trkpt>
<trkpt lat="-27.274439" lon="151.290064">
  <ele>343.1</ele>
  <time>2026-09-01T20:03:14Z</time>
  <course>270.0</course>
  <speed>0.0</speed>
  <fix>3d</fix>
</trkpt>
<trkpt lat="-27.2744392" lon="151.2900641">
  <ele>343.2</ele>
  <time>2026-09-01T20:03:14Z</time>
  <course>11.32</course>
  <speed>0.022360679774997897</speed>
  <fix>3d</fix>
</trkpt>
<trkpt lat="-27.274439" lon="151.290064">
  <ele>343.1</ele>
  <time>2026-09-01T20:03:14Z</time>
  <course>270.0</course>
  <speed>0.0</speed>
  <fix>3d</fix>
</trkpt>
<trkpt lat="-27.2744392" lon="151.2900641">
  <ele>343.21</ele>
  <time>2026-09-01T20:03:14Z</time>
  <course>11.32</course>
  <speed>0.022360679774997897</speed>
  <fix>3d</fix>
</trkpt>
<trkpt lat="-27.274439" lon="151.290064">
  <ele>343.1</ele>
  <time>2026-09-01T20:03:14Z</time>
  <course>270.0</course>
  <speed>0.0</speed>
  <fix>3d</fix>
</trkpt>
<trkpt lat="-27.2744392" lon="151.2900641">
  <ele>343.21</ele>
  <time>2026-09-01T20:03:14Z</time>
  <course>11.32</course>
  <speed>0.022360679774997897</speed>
  <fix>3d</fix>
</trkpt>
<trkpt lat="-27.274439" lon="151.290064">
  <ele>343.1</ele>
  <time>2026-09-01T20:03:14Z</time>
  <course>270.0</course>
  <speed>0.0</speed>
  <fix>3d</fix>
</trkpt>
<trkpt lat="-27.2744392" lon="151.2900641">
  <ele>343.21</ele>
  <time>2026-09-01T20:03:14Z</time>
  <course>11.32</course>
  <speed>0.022360679774997897</speed>
  <fix>3d</fix>
</trkpt>
<trkpt lat="-27.274439" lon="151.290064">
  <ele>343.1</ele>
  <time>2026-09-01T20:03:14Z</time>
  <course>270.0</course>
  <speed>0.0</speed>
  <fix>3d</fix>
</trkpt>
<trkpt lat="-27.2744392" lon="151.2900641">
  <ele>343.21</ele>
  <time>2026-09-01T20:03:14Z</time>
  <course>11.32</course>
  <speed>0.022360679774997897</speed>
  <fix>3d</fix>
</trkpt>
<trkpt lat="-27.274439" lon="151.290064">
  <ele>343.1</ele>
  <time>2026-09-01T20:03:14Z</time>
  <course>270.0</course>
  <speed>0.0</speed>
  <fix>3d</fix>
</trkpt>
<trkpt lat="-27.2744392" lon="151.2900641">
  <ele>343.21</ele>
  <time>2026-09-01T20:03:14Z</time>
  <course>11.32</course>
  <speed>0.022360679774997897</speed>
  <fix>3d</fix>
</trkpt>
<trkpt lat="-27.274439" lon="151.290064">
  <ele>343.1</ele>
  <time>2026-09-01T20:03:14Z</time>
  <course>270.0</course>
  <speed>0.0</speed>
  <fix>3d</fix>
</trkpt>
<trkpt lat="-27.2744392" lon="151.2900641">
  <ele>343.21</ele>
  <time>2026-09-01T20:03:14Z</time>
  <course>11.32</course>
  <speed>0.022360679774997897</speed>
  <fix>3d</fix>
</trkpt>
<trkpt lat="-27.274439" lon="151.290064">
  <ele>343.1</ele>
  <time>2026-09-01T20:03:14Z</time>
  <course>270.0</course>
  <speed>0.0</speed>
  <fix>3d</fix>
</trkpt>
<trkpt lat="-27.2744392" lon="151.2900641">
  <ele>343.22</ele>
  <time>2026-09-01T20:03:14Z</time>
  <course>11.32</course>
  <speed>0.022360679774997897</speed>
  <fix>3d</fix>
</trkpt>
<trkpt lat="-27.274439" lon="151.290064">
  <ele>343.1</ele>
  <time>2026-09-01T20:03:14Z</time>
  <course>270.0</course>
  <speed>0.0</speed>
  <fix>3d</fix>
</trkpt>
<trkpt lat="-27.2744392" lon="151.2900641">
  <ele>343.22</ele>
  <time>2026-09-01T20:03:14Z</time>
  <course>11.32</course>
  <speed>0.022360679774997897</speed>
  <fix>3d</fix>
</trkpt>
<trkpt lat="-27.274439" lon="151.290064">
  <ele>343.1</ele>
  <time>2026-09-01T20:03:14Z</time>
  <course>270.0</course>
  <speed>0.0</speed>
  <fix>3d</fix>
</trkpt>
<trkpt lat="-27.2744392" lon="151.2900641">
  <ele>343.22</ele>
  <time>2026-09-01T20:03:14Z</time>
  <course>11.33</course>
  <speed>0.022360679774997897</speed>
  <fix>3d</fix>
</trkpt>
<trkpt lat="-27.274439" lon="151.290064">
  <ele>343.1</ele>
  <time>2026-09-01T20:03:14Z</time>
  <course>270.0</course>
  <speed>0.0</speed>
  <fix>3d</fix>
</trkpt>
<trkpt lat="-27.2744392" lon="151.2900641">
  <ele>343.22</ele>
  <time>2026-09-01T20:03:14Z</time>
  <course>11.33</course>
  <speed>0.022360679774997897</speed>
  <fix>3d</fix>
</trkpt>
<trkpt lat="-27.274439" lon="151.290064">
  <ele>343.1</ele>
  <time>2026-09-01T20:03:14Z</time>
  <course>270.0</course>
  <speed>0.0</speed>
  <fix>3d</fix>
</trkpt>
<trkpt lat="-27.2744392" lon="151.2900641">
  <ele>343.22</ele>
  <time>2026-09-01T20:03:14Z</time>
  <course>11.33</course>
  <speed>0.022360679774997897</speed>
  <fix>3d</fix>
</trkpt>
<trkpt lat="-27.274439" lon="151.290064">
  <ele>343.1</ele>
  <time>2026-09-01T20:03:14Z</time>
  <course>270.0</course>
  <speed>0.0</speed>
  <fix>3d</fix>
</trkpt>
<trkpt lat="-27.2744392" lon="151.2900641">
  <ele>343.1</ele>
  <time>2026-09-01T20:03:14Z</time>
  <course>11.33</course>
  <speed>0.022360679774997897</speed>
  <fix>3d</fix>
</trkpt>
<trkpt lat="-27.274439" lon="151.290064">
  <ele>343.1</ele>
  <time>2026-09-01T20:03:14Z</time>
  <course>270.0</course>
  <speed>0.0</speed>
  <fix>3d</fix>
</trkpt>
<trkpt lat="-27.2744392" lon="151.2900641">
  <ele>343.1</ele>
  <time>2026-09-01T20:03:14Z</time>
  <course>11.33</course>
  <speed>0.022360679774997897</speed>
  <fix>3d</fix>
</trkpt>
<trkpt lat="-27.274439" lon="151.290064">
  <ele>343.1</ele>
  <time>2026-09-01T20:03:14Z</time>
  <course>270.0</course>
  <speed>0.0</speed>
  <fix>3d</fix>
</trkpt>
<trkpt lat="-27.2744392" lon="151.2900641">
  <ele>343.1</ele>
  <time>2026-09-01T20:03:14Z</time>
  <course>11.33</course>
  <speed>0.022360679774997897</speed>
  <fix>3d</fix>
</trkpt>
<trkpt lat="-27.274439" lon="151.290064">
  <ele>343.1</ele>
  <time>2026-09-01T20:03:14Z</time>
  <course>270.0</course>
  <speed>0.0</speed>
  <fix>3d</fix>
</trkpt>
<trkpt lat="-27.2744392" lon="151.2900641">
  <ele>343.1</ele>
  <time>2026-09-01T20:03:14Z</time>
  <course>11.33</course>
  <speed>0.022360679774997897</speed>
  <fix>3d</fix>
</trkpt>
<trkpt lat="-27.274439" lon="151.290064">
  <ele>343.1</ele>
  <time>2026-09-01T20:03:14Z</time>
  <course>270.0</course>
  <speed>0.0</speed>
  <fix>3d</fix>
</trkpt>
<trkpt lat="-27.2744392" lon="151.2900641">
  <ele>343.1</ele>
  <time>2026-09-01T20:03:14Z</time>
  <course>11.33</course>
  <speed>0.022360679774997897</speed>
  <fix>3d</fix>
</trkpt>
<trkpt lat="-27.274439" lon="151.290064">
  <ele>343.1</ele>
  <time>2026-09-01T20:03:14Z</time>
  <course>270.0</course>
  <speed>0.0</speed>
  <fix>3d</fix>
</trkpt>
<trkpt lat="-27.2744392" lon="151.2900641">
  <ele>343.1</ele>
  <time>2026-09-01T20:03:14Z</time>
  <course>11.33</course>
  <speed>0.022360679774997897</speed>
  <fix>3d</fix>
</trkpt>
<trkpt lat="-27.274439" lon="151.290064">
  <ele>343.1</ele>
  <time>2026-09-01T20:03:14Z</time>
  <course>270.0</course>
  <speed>0.0</speed>
  <fix>3d</fix>
</trkpt>
<trkpt lat="-27.2744392" lon="151.2900641">
  <ele>343.1</ele>
  <time>2026-09-01T20:03:14Z</time>
  <course>11.33</course>
  <speed>0.022360679774997897</speed>
  <fix>3d</fix>
</trkpt>
<trkpt lat="-27.274439" lon="151.290064">
  <ele>343.1</ele>
  <time>2026-09-01T20:03:14Z</time>
  <course>270.0</course>
  <speed>0.0</speed>
  <fix>3d</fix>
</trkpt>
<trkpt lat="-27.2744392" lon="151.2900641">
  <ele>343.1</ele>
  <time>2026-09-01T20:03:14Z</time>
  <course>11.33</course>
  <speed>0.022360679774997897</speed>
  <fix>3d</fix>
</trkpt>
<trkpt lat="-27.274439" lon="151.290064">
  <ele>343.1</ele>
  <time>2026-09-01T20:03:14Z</time>
  <course>270.0</course>
  <speed>0.0</speed>
  <fix>3d</fix>
</trkpt>
<trkpt lat="-27.2744392" lon="151.2900641">
  <ele>343.1</ele>
  <time>2026-09-01T20:03:14Z</time>
  <course>11.34</course>
  <speed>0.022360679774997897</speed>
  <fix>3d</fix>
</trkpt>
<trkpt lat="-27.274439" lon="151.290064">
  <ele>343.1</ele>
  <time>2026-09-01T20:03:14Z</time>
  <course>270.0</course>
  <speed>0.0</speed>
  <fix>3d</fix>
</trkpt>
<trkpt lat="-27.2744392" lon="151.2900641">
  <ele>343.1</ele>
  <time>2026-09-01T20:03:14Z</time>
  <course>11.34</course>
  <speed>0.022360679774997897</speed>
  <fix>3d</fix>
</trkpt>
<trkpt lat="-27.274439" lon="151.290064">
  <ele>343.1</ele>
  <time>2026-09-01T20:03:14Z</time>
  <course>270.0</course>
  <speed>0.0</speed>
  <fix>3d</fix>
</trkpt>
<trkpt lat="-27.2744392" lon="151.2900641">
  <ele>343.1</ele>
  <time>2026-09-01T20:03:14Z</time>
  <course>11.34</course>
  <speed>0.022360679774997897</speed>
  <fix>3d</fix>
</trkpt>
<trkpt lat="-27.274439" lon="151.290064">
  <ele>343.1</ele>
  <time>2026-09-01T20:03:14Z</time>
  <course>270.0</course>
  <speed>0.0</speed>
  <fix>3d</fix>
</trkpt>
<trkpt lat="-27.2744392" lon="151.2900641">
  <ele>343.1</ele>
  <time>2026-09-01T20:03:14Z</time>
  <course>11.34</course>
  <speed>0.022360679774997897</speed>
  <fix>3d</fix>
</trkpt>
<trkpt lat="-27.274439" lon="151.290064">
  <ele>343.1</ele>
  <time>2026-09-01T20:03:14Z</time>
  <course>270.0</course>
  <speed>0.0</speed>
  <fix>3d</fix>
</trkpt>
<trkpt lat="-27.2744392" lon="151.2900641">
  <ele>343.1</ele>
  <time>2026-09-01T20:03:14Z</time>
  <course>11.34</course>
  <speed>0.022360679774997897</speed>
  <fix>3d</fix>
</trkpt>
<trkpt lat="-27.274439" lon="151.290064">
  <ele>343.1</ele>
  <time>2026-09-01T20:03:14Z</time>
  <course>270.0</course>
  <speed>0.0</speed>
  <fix>3d</fix>
</trkpt>
<trkpt lat="-27.2744392" lon="151.2900641">
  <ele>343.1</ele>
  <time>2026-09-01T20:03:14Z</time>
  <course>11.34</course>
  <speed>0.022360679774997897</speed>
  <fix>3d</fix>
</trkpt>
<trkpt lat="-27.274439" lon="151.290064">
  <ele>343.1</ele>
  <time>2026-09-01T20:03:14Z</time>
  <course>270.0</course>
  <speed>0.0</speed>
  <fix>3d</fix>
</trkpt>
<trkpt lat="-27.2744392" lon="151.2900641">
  <ele>343.1</ele>
  <time>2026-09-01T20:03:14Z</time>
  <course>11.34</course>
  <speed>0.022360679774997897</speed>
  <fix>3d</fix>
</trkpt>
<trkpt lat="-27.274439" lon="151.290064">
  <ele>343.1</ele>
  <time>2026-09-01T20:03:14Z</time>
  <course>270.0</course>
  <speed>0.0</speed>
  <fix>3d</fix>
</trkpt>
<trkpt lat="-27.2744392" lon="151.2900641">
  <ele>343.1</ele>
  <time>2026-09-01T20:03:14Z</time>
  <course>11.34</course>
  <speed>0.022360679774997897</speed>
  <fix>3d</fix>
</trkpt>
<trkpt lat="-27.274439" lon="151.290064">
  <ele>343.1</ele>
  <time>2026-09-01T20:03:14Z</time>
  <course>270.0</course>
  <speed>0.0</speed>
  <fix>3d</fix>
</trkpt>
<trkpt lat="-27.2744392" lon="151.2900641">
  <ele>343.1</ele>
  <time>2026-09-01T20:03:14Z</time>
  <course>11.34</course>
  <speed>0.022360679774997897</speed>
  <fix>3d</fix>
</trkpt>
<trkpt lat="-27.274439" lon="151.290064">
  <ele>343.1</ele>
  <time>2026-09-01T20:03:14Z</time>
  <course>270.0</course>
  <speed>0.0</speed>
  <fix>3d</fix>
</trkpt>
<trkpt lat="-27.2744392" lon="151.2900641">
  <ele>343.1</ele>
  <time>2026-09-01T20:03:14Z</time>
  <course>11.34</course>
  <speed>0.022360679774997897</speed>
  <fix>3d</fix>
</trkpt>
<trkpt lat="-27.274439" lon="151.290064">
  <ele>343.1</ele>
  <time>2026-09-01T20:03:14Z</time>
  <course>270.0</course>
  <speed>0.0</speed>
  <fix>3d</fix>
</trkpt>
<trkpt lat="-27.2744392" lon="151.2900641">
  <ele>343.1</ele>
  <time>2026-09-01T20:03:14Z</time>
  <course>11.35</course>
  <speed>0.022360679774997897</speed>
  <fix>3d</fix>
</trkpt>
<trkpt lat="-27.274439" lon="151.290064">
  <ele>343.1</ele>
  <time>2026-09-01T20:03:14Z</time>
  <course>270.0</course>
  <speed>0.0</speed>
  <fix>3d</fix>
</trkpt>
<trkpt lat="-27.2744392" lon="151.2900641">
  <ele>343.1</ele>
  <time>2026-09-01T20:03:14Z</time>
  <course>11.35</course>
  <speed>0.022360679774997897</speed>
  <fix>3d</fix>
</trkpt>
<trkpt lat="-27.274439" lon="151.290064">
  <ele>343.1</ele>
  <time>2026-09-01T20:03:14Z</time>
  <course>270.0</course>
  <speed>0.0</speed>
  <fix>3d</fix>
</trkpt>
<trkpt lat="-27.2744392" lon="151.2900641">
  <ele>343.1</ele>
  <time>2026-09-01T20:03:14Z</time>
  <course>11.35</course>
  <speed>0.022360679774997897</speed>
  <fix>3d</fix>
</trkpt>
<trkpt lat="-27.274439" lon="151.290064">
  <ele>343.1</ele>
  <time>2026-09-01T20:03:14Z</time>
  <course>270.0</course>
  <speed>0.0</speed>
  <fix>3d</fix>
</trkpt>
<trkpt lat="-27.2744392" lon="151.2900641">
  <ele>343.1</ele>
  <time>2026-09-01T20:03:14Z</time>
  <course>11.35</course>
  <speed>0.022360679774997897</speed>
  <fix>3d</fix>
</trkpt>
<trkpt lat="-27.274439" lon="151.290064">
  <ele>343.1</ele>
  <time>2026-09-01T20:03:14Z</time>
  <course>270.0</course>
  <speed>0.0</speed>
  <fix>3d</fix>
</trkpt>
<trkpt lat="-27.2744392" lon="151.2900641">
  <ele>343.1</ele>
  <time>2026-09-01T20:03:14Z</time>
  <course>11.35</course>
  <speed>0.022360679774997897</speed>
  <fix>3d</fix>
</trkpt>
<trkpt lat="-27.274439" lon="151.290064">
  <ele>343.1</ele>
  <time>2026-09-01T20:03:14Z</time>
  <course>270.0</course>
  <speed>0.0</speed>
  <fix>3d</fix>
</trkpt>
<trkpt lat="-27.2744392" lon="151.2900641">
  <ele>343.1</ele>
  <time>2026-09-01T20:03:14Z</time>
  <course>11.35</course>
  <speed>0.022360679774997897</speed>
  <fix>3d</fix>
</trkpt>
<trkpt lat="-27.274439" lon="151.290064">
  <ele>343.1</ele>
  <time>2026-09-01T20:03:14Z</time>
  <course>270.0</course>
  <speed>0.0</speed>
  <fix>3d</fix>
</trkpt>
<trkpt lat="-27.2744392" lon="151.2900641">
  <ele>343.1</ele>
  <time>2026-09-01T20:03:14Z</time>
  <course>11.35</course>
  <speed>0.022360679774997897</speed>
  <fix>3d</fix>
</trkpt>
<trkpt lat="-27.274439" lon="151.290064">
  <ele>343.1</ele>
  <time>2026-09-01T20:03:14Z</time>
  <course>270.0</course>
  <speed>0.0</speed>
  <fix>3d</fix>
</trkpt>
<trkpt lat="-27.2744392" lon="151.2900641">
  <ele>343.1</ele>
  <time>2026-09-01T20:03:14Z</time>
  <course>11.35</course>
  <speed>0.022360679774997897</speed>
  <fix>3d</fix>
</trkpt>
<trkpt lat="-27.274439" lon="151.290064">
  <ele>343.1</ele>
  <time>2026-09-01T20:03:14Z</time>
  <course>270.0</course>
  <speed>0.0</speed>
  <fix>3d</fix>
</trkpt>
<trkpt lat="-27.2744392" lon="151.2900641">
  <ele>343.1</ele>
  <time>2026-09-01T20:03:14Z</time>
  <course>11.35</course>
  <speed>0.022360679774997897</speed>
  <fix>3d</fix>
</trkpt>
<trkpt lat="-27.274439" lon="151.290064">
  <ele>343.1</ele>
  <time>2026-09-01T20:03:14Z</time>
  <course>270.0</course>
  <speed>0.0</speed>
  <fix>3d</fix>
</trkpt>
<trkpt lat="-27.2744392" lon="151.2900641">
  <ele>343.1</ele>
  <time>2026-09-01T20:03:14Z</time>
  <course>11.35</course>
  <speed>0.022360679774997897</speed>
  <fix>3d</fix>
</trkpt>
<trkpt lat="-27.274439" lon="151.290064">
  <ele>343.1</ele>
  <time>2026-09-01T20:03:14Z</time>
  <course>270.0</course>
  <speed>0.0</speed>
  <fix>3d</fix>
</trkpt>
<trkpt lat="-27.2744392" lon="151.2900641">
  <ele>343.1</ele>
  <time>2026-09-01T20:03:14Z</time>
  <course>11.36</course>
  <speed>0.022360679774997897</speed>
  <fix>3d</fix>
</trkpt>
<trkpt lat="-27.274439" lon="151.290064">
  <ele>343.1</ele>
  <time>2026-09-01T20:03:14Z</time>
  <course>270.0</course>
  <speed>0.0</speed>
  <fix>3d</fix>
</trkpt>
<trkpt lat="-27.2744392" lon="151.2900641">
  <ele>343.1</ele>
  <time>2026-09-01T20:03:14Z</time>
  <course>11.36</course>
  <speed>0.022360679774997897</speed>
  <fix>3d</fix>
</trkpt>
<trkpt lat="-27.274439" lon="151.290064">
  <ele>343.1</ele>
  <time>2026-09-01T20:03:14Z</time>
  <course>270.0</course>
  <speed>0.0</speed>
  <fix>3d</fix>
</trkpt>
<trkpt lat="-27.2744392" lon="151.2900641">
  <ele>343.1</ele>
  <time>2026-09-01T20:03:14Z</time>
  <course>11.36</course>
  <speed>0.022360679774997897</speed>
  <fix>3d</fix>
</trkpt>
<trkpt lat="-27.274439" lon="151.290064">
  <ele>343.1</ele>
  <time>2026-09-01T20:03:14Z</time>
  <course>270.0</course>
  <speed>0.0</speed>
  <fix>3d</fix>
</trkpt>
<trkpt lat="-27.2744392" lon="151.2900641">
  <ele>343.1</ele>
  <time>2026-09-01T20:03:14Z</time>
  <course>11.36</course>
  <speed>0.022360679774997897</speed>
  <fix>3d</fix>
</trkpt>
<trkpt lat="-27.274439" lon="151.290064">
  <ele>343.1</ele>
  <time>2026-09-01T20:03:14Z</time>
  <course>270.0</course>
  <speed>0.0</speed>
  <fix>3d</fix>
</trkpt>
<trkpt lat="-27.2744392" lon="151.2900641">
  <ele>343.1</ele>
  <time>2026-09-01T20:03:14Z</time>
  <course>11.36</course>
  <speed>0.022360679774997897</speed>
  <fix>3d</fix>
</trkpt>
<trkpt lat="-27.274439" lon="151.290064">
  <ele>343.1</ele>
  <time>2026-09-01T20:03:14Z</time>
  <course>270.0</course>
  <speed>0.0</speed>
  <fix>3d</fix>
</trkpt>
<trkpt lat="-27.2744392" lon="151.2900641">
  <ele>343.1</ele>
  <time>2026-09-01T20:03:14Z</time>
  <course>11.36</course>
  <speed>0.022360679774997897</speed>
  <fix>3d</fix>
</trkpt>
<trkpt lat="-27.274439" lon="151.290064">
  <ele>343.1</ele>
  <time>2026-09-01T20:03:14Z</time>
  <course>270.0</course>
  <speed>0.0</speed>
  <fix>3d</fix>
</trkpt>
<trkpt lat="-27.2744392" lon="151.2900641">
  <ele>343.1</ele>
  <time>2026-09-01T20:03:14Z</time>
  <course>11.36</course>
  <speed>0.022360679774997897</speed>
  <fix>3d</fix>
</trkpt>
<trkpt lat="-27.274439" lon="151.290064">
  <ele>343.1</ele>
  <time>2026-09-01T20:03:14Z</time>
  <course>270.0</course>
  <speed>0.0</speed>
  <fix>3d</fix>
</trkpt>
<trkpt lat="-27.2744392" lon="151.2900641">
  <ele>343.11</ele>
  <time>2026-09-01T20:03:14Z</time>
  <course>11.36</course>
  <speed>0.022360679774997897</speed>
  <fix>3d</fix>
</trkpt>
<trkpt lat="-27.274439" lon="151.290064">
  <ele>343.1</ele>
  <time>2026-09-01T20:03:14Z</time>
  <course>270.0</course>
  <speed>0.0</speed>
  <fix>3d</fix>
</trkpt>
<trkpt lat="-27.2744392" lon="151.2900641">
  <ele>343.11</ele>
  <time>2026-09-01T20:03:14Z</time>
  <course>11.36</course>
  <speed>0.022360679774997897</speed>
  <fix>3d</fix>
</trkpt>
<trkpt lat="-27.274439" lon="151.290064">
  <ele>343.1</ele>
  <time>2026-09-01T20:03:14Z</time>
  <course>270.0</course>
  <speed>0.0</speed>
  <fix>3d</fix>
</trkpt>
<trkpt lat="-27.2744392" lon="151.2900641">
  <ele>343.11</ele>
  <time>2026-09-01T20:03:14Z</time>
  <course>11.36</course>
  <speed>0.022360679774997897</speed>
  <fix>3d</fix>
</trkpt>
<trkpt lat="-27.274439" lon="151.290064">
  <ele>343.1</ele>
  <time>2026-09-01T20:03:14Z</time>
  <course>270.0</course>
  <speed>0.0</speed>
  <fix>3d</fix>
</trkpt>
<trkpt lat="-27.2744392" lon="151.2900641">
  <ele>343.11</ele>
  <time>2026-09-01T20:03:14Z</time>
  <course>11.37</course>
  <speed>0.022360679774997897</speed>
  <fix>3d</fix>
</trkpt>
<trkpt lat="-27.274439" lon="151.290064">
  <ele>343.1</ele>
  <time>2026-09-01T20:03:14Z</time>
  <course>270.0</course>
  <speed>0.0</speed>
  <fix>3d</fix>
</trkpt>
<trkpt lat="-27.2744392" lon="151.2900641">
  <ele>343.11</ele>
  <time>2026-09-01T20:03:14Z</time>
  <course>11.37</course>
  <speed>0.022360679774997897</speed>
  <fix>3d</fix>
</trkpt>
<trkpt lat="-27.274439" lon="151.290064">
  <ele>343.1</ele>
  <time>2026-09-01T20:03:14Z</time>
  <course>270.0</course>
  <speed>0.0</speed>
  <fix>3d</fix>
</trkpt>
<trkpt lat="-27.2744392" lon="151.2900641">
  <ele>343.11</ele>
  <time>2026-09-01T20:03:14Z</time>
  <course>11.37</course>
  <speed>0.022360679774997897</speed>
  <fix>3d</fix>
</trkpt>
<trkpt lat="-27.274439" lon="151.290064">
  <ele>343.1</ele>
  <time>2026-09-01T20:03:14Z</time>
  <course>270.0</course>
  <speed>0.0</speed>
  <fix>3d</fix>
</trkpt>
<trkpt lat="-27.2744392" lon="151.2900641">
  <ele>343.11</ele>
  <time>2026-09-01T20:03:14Z</time>
  <course>11.37</course>
  <speed>0.022360679774997897</speed>
  <fix>3d</fix>
</trkpt>
<trkpt lat="-27.274439" lon="151.290064">
  <ele>343.1</ele>
  <time>2026-09-01T20:03:14Z</time>
  <course>270.0</course>
  <speed>0.0</speed>
  <fix>3d</fix>
</trkpt>
<trkpt lat="-27.2744392" lon="151.2900641">
  <ele>343.11</ele>
  <time>2026-09-01T20:03:14Z</time>
  <course>11.37</course>
  <speed>0.022360679774997897</speed>
  <fix>3d</fix>
</trkpt>
<trkpt lat="-27.274439" lon="151.290064">
  <ele>343.1</ele>
  <time>2026-09-01T20:03:14Z</time>
  <course>270.0</course>
  <speed>0.0</speed>
  <fix>3d</fix>
</trkpt>
<trkpt lat="-27.2744392" lon="151.2900641">
  <ele>343.11</ele>
  <time>2026-09-01T20:03:14Z</time>
  <course>11.37</course>
  <speed>0.022360679774997897</speed>
  <fix>3d</fix>
</trkpt>
<trkpt lat="-27.274439" lon="151.290064">
  <ele>343.1</ele>
  <time>2026-09-01T20:03:14Z</time>
  <course>270.0</course>
  <speed>0.0</speed>
  <fix>3d</fix>
</trkpt>
<trkpt lat="-27.2744392" lon="151.2900641">
  <ele>343.11</ele>
  <time>2026-09-01T20:03:14Z</time>
  <course>11.37</course>
  <speed>0.022360679774997897</speed>
  <fix>3d</fix>
</trkpt>
<trkpt lat="-27.274439" lon="151.290064">
  <ele>343.1</ele>
  <time>2026-09-01T20:03:14Z</time>
  <course>270.0</course>
  <speed>0.0</speed>
  <fix>3d</fix>
</trkpt>
<trkpt lat="-27.2744392" lon="151.2900641">
  <ele>343.11</ele>
  <time>2026-09-01T20:03:14Z</time>
  <course>11.37</course>
  <speed>0.022360679774997897</speed>
  <fix>3d</fix>
</trkpt>
<trkpt lat="-27.274439" lon="151.290064">
  <ele>343.1</ele>
  <time>2026-09-01T20:03:14Z</time>
  <course>270.0</course>
  <speed>0.0</speed>
  <fix>3d</fix>
</trkpt>
<trkpt lat="-27.2744392" lon="151.2900641">
  <ele>343.11</ele>
  <time>2026-09-01T20:03:14Z</time>
  <course>11.37</course>
  <speed>0.022360679774997897</speed>
  <fix>3d</fix>
</trkpt>
<trkpt lat="-27.274439" lon="151.290064">
  <ele>343.1</ele>
  <time>2026-09-01T20:03:14Z</time>
  <course>270.0</course>
  <speed>0.0</speed>
  <fix>3d</fix>
</trkpt>
<trkpt lat="-27.2744392" lon="151.2900641">
  <ele>343.11</ele>
  <time>2026-09-01T20:03:14Z</time>
  <course>11.37</course>
  <speed>0.022360679774997897</speed>
  <fix>3d</fix>
</trkpt>
<trkpt lat="-27.274439" lon="151.290064">
  <ele>343.1</ele>
  <time>2026-09-01T20:03:14Z</time>
  <course>270.0</course>
  <speed>0.0</speed>
  <fix>3d</fix>
</trkpt>
<trkpt lat="-27.2744392" lon="151.2900641">
  <ele>343.11</ele>
  <time>2026-09-01T20:03:14Z</time>
  <course>11.37</course>
  <speed>0.022360679774997897</speed>
  <fix>3d</fix>
</trkpt>
<trkpt lat="-27.274439" lon="151.290064">
  <ele>343.1</ele>
  <time>2026-09-01T20:03:14Z</time>
  <course>270.0</course>
  <speed>0.0</speed>
  <fix>3d</fix>
</trkpt>
<trkpt lat="-27.2744392" lon="151.2900641">
  <ele>343.11</ele>
  <time>2026-09-01T20:03:14Z</time>
  <course>11.38</course>
  <speed>0.022360679774997897</speed>
  <fix>3d</fix>
</trkpt>
<trkpt lat="-27.274439" lon="151.290064">
  <ele>343.1</ele>
  <time>2026-09-01T20:03:14Z</time>
  <course>270.0</course>
  <speed>0.0</speed>
  <fix>3d</fix>
</trkpt>
<trkpt lat="-27.2744392" lon="151.2900641">
  <ele>343.11</ele>
  <time>2026-09-01T20:03:14Z</time>
  <course>11.38</course>
  <speed>0.022360679774997897</speed>
  <fix>3d</fix>
</trkpt>
<trkpt lat="-27.274439" lon="151.290064">
  <ele>343.1</ele>
  <time>2026-09-01T20:03:14Z</time>
  <course>270.0</course>
  <speed>0.0</speed>
  <fix>3d</fix>
</trkpt>
<trkpt lat="-27.2744392" lon="151.2900641">
  <ele>343.12</ele>
  <time>2026-09-01T20:03:14Z</time>
  <course>11.38</course>
  <speed>0.022360679774997897</speed>
  <fix>3d</fix>
</trkpt>
<trkpt lat="-27.274439" lon="151.290064">
  <ele>343.1</ele>
  <time>2026-09-01T20:03:14Z</time>
  <course>270.0</course>
  <speed>0.0</speed>
  <fix>3d</fix>
</trkpt>
<trkpt lat="-27.2744392" lon="151.2900641">
  <ele>343.12</ele>
  <time>2026-09-01T20:03:14Z</time>
  <course>11.38</course>
  <speed>0.022360679774997897</speed>
  <fix>3d</fix>
</trkpt>
<trkpt lat="-27.274439" lon="151.290064">
  <ele>343.1</ele>
  <time>2026-09-01T20:03:14Z</time>
  <course>270.0</course>
  <speed>0.0</speed>
  <fix>3d</fix>
</trkpt>
<trkpt lat="-27.2744392" lon="151.2900641">
  <ele>343.12</ele>
  <time>2026-09-01T20:03:14Z</time>
  <course>11.38</course>
  <speed>0.022360679774997897</speed>
  <fix>3d</fix>
</trkpt>
<trkpt lat="-27.274439" lon="151.290064">
  <ele>343.1</ele>
  <time>2026-09-01T20:03:14Z</time>
  <course>270.0</course>
  <speed>0.0</speed>
  <fix>3d</fix>
</trkpt>
<trkpt lat="-27.2744392" lon="151.2900641">
  <ele>343.12</ele>
  <time>2026-09-01T20:03:14Z</time>
  <course>11.38</course>
  <speed>0.022360679774997897</speed>
  <fix>3d</fix>
</trkpt>
<trkpt lat="-27.274439" lon="151.290064">
  <ele>343.1</ele>
  <time>2026-09-01T20:03:14Z</time>
  <course>270.0</course>
  <speed>0.0</speed>
  <fix>3d</fix>
</trkpt>
<trkpt lat="-27.2744392" lon="151.2900641">
  <ele>343.13</ele>
  <time>2026-09-01T20:03:15Z</time>
  <course>11.38</course>
  <speed>0.022360679774997897</speed>
  <fix>3d</fix>
</trkpt>
<trkpt lat="-27.274439" lon="151.290064">
  <ele>343.1</ele>
  <time>2026-09-01T20:03:15Z</time>
  <course>270.0</course>
  <speed>0.0</speed>
  <fix>3d</fix>
</trkpt>
<trkpt lat="-27.2744392" lon="151.2900641">
  <ele>343.13</ele>
  <time>2026-09-01T20:03:15Z</time>
  <course>11.38</course>
  <speed>0.022360679774997897</speed>
  <fix>3d</fix>
</trkpt>
<trkpt lat="-27.274439" lon="151.290064">
  <ele>343.1</ele>
  <time>2026-09-01T20:03:15Z</time>
  <course>270.0</course>
  <speed>0.0</speed>
  <fix>3d</fix>
</trkpt>
<trkpt lat="-27.2744392" lon="151.2900641">
  <ele>343.13</ele>
  <time>2026-09-01T20:03:15Z</time>
  <course>11.38</course>
  <speed>0.022360679774997897</speed>
  <fix>3d</fix>
</trkpt>
<trkpt lat="-27.274439" lon="151.290064">
  <ele>343.1</ele>
  <time>2026-09-01T20:03:15Z</time>
  <course>270.0</course>
  <speed>0.0</speed>
  <fix>3d</fix>
</trkpt>
<trkpt lat="-27.2744392" lon="151.2900641">
  <ele>343.13</ele>
  <time>2026-09-01T20:03:15Z</time>
  <course>11.38</course>
  <speed>0.022360679774997897</speed>
  <fix>3d</fix>
</trkpt>
<trkpt lat="-27.274439" lon="151.290064">
  <ele>343.1</ele>
  <time>2026-09-01T20:03:15Z</time>
  <course>270.0</course>
  <speed>0.0</speed>
  <fix>3d</fix>
</trkpt>
<trkpt lat="-27.2744392" lon="151.2900641">
  <ele>343.13</ele>
  <time>2026-09-01T20:03:15Z</time>
  <course>11.38</course>
  <speed>0.022360679774997897</speed>
  <fix>3d</fix>
</trkpt>
<trkpt lat="-27.274439" lon="151.290064">
  <ele>343.1</ele>
  <time>2026-09-01T20:03:15Z</time>
  <course>270.0</course>
  <speed>0.0</speed>
  <fix>3d</fix>
</trkpt>
<trkpt lat="-27.2744392" lon="151.2900641">
  <ele>343.1</ele>
  <time>2026-09-01T20:03:15Z</time>
  <course>11.39</course>
  <speed>0.022360679774997897</speed>
  <fix>3d</fix>
</trkpt>
<trkpt lat="-27.274439" lon="151.290064">
  <ele>343.1</ele>
  <time>2026-09-01T20:03:15Z</time>
  <course>270.0</course>
  <speed>0.0</speed>
  <fix>3d</fix>
</trkpt>
<trkpt lat="-27.2744392" lon="151.2900641">
  <ele>343.09</ele>
  <time>2026-09-01T20:03:15Z</time>
  <course>11.39</course>
  <speed>0.022360679774997897</speed>
  <fix>3d</fix>
</trkpt>
<trkpt lat="-27.274439" lon="151.290064">
  <ele>343.1</ele>
  <time>2026-09-01T20:03:15Z</time>
  <course>270.0</course>
  <speed>0.0</speed>
  <fix>3d</fix>
</trkpt>
<trkpt lat="-27.2744392" lon="151.2900641">
  <ele>343.1</ele>
  <time>2026-09-01T20:03:15Z</time>
  <course>11.39</course>
  <speed>0.022360679774997897</speed>
  <fix>3d</fix>
</trkpt>
<trkpt lat="-27.274439" lon="151.290064">
  <ele>343.1</ele>
  <time>2026-09-01T20:03:15Z</time>
  <course>270.0</course>
  <speed>0.0</speed>
  <fix>3d</fix>
</trkpt>
<trkpt lat="-27.2744392" lon="151.2900641">
  <ele>343.1</ele>
  <time>2026-09-01T20:03:15Z</time>
  <course>11.39</course>
  <speed>0.022360679774997897</speed>
  <fix>3d</fix>
</trkpt>
<trkpt lat="-27.274439" lon="151.290064">
  <ele>343.1</ele>
  <time>2026-09-01T20:03:15Z</time>
  <course>270.0</course>
  <speed>0.0</speed>
  <fix>3d</fix>
</trkpt>
<trkpt lat="-27.2744392" lon="151.2900641">
  <ele>343.1</ele>
  <time>2026-09-01T20:03:15Z</time>
  <course>11.39</course>
  <speed>0.022360679774997897</speed>
  <fix>3d</fix>
</trkpt>
<trkpt lat="-27.274439" lon="151.290064">
  <ele>343.1</ele>
  <time>2026-09-01T20:03:15Z</time>
  <course>270.0</course>
  <speed>0.0</speed>
  <fix>3d</fix>
</trkpt>
<trkpt lat="-27.2744392" lon="151.2900641">
  <ele>343.11</ele>
  <time>2026-09-01T20:03:15Z</time>
  <course>11.39</course>
  <speed>0.022360679774997897</speed>
  <fix>3d</fix>
</trkpt>
<trkpt lat="-27.274439" lon="151.290064">
  <ele>343.1</ele>
  <time>2026-09-01T20:03:15Z</time>
  <course>270.0</course>
  <speed>0.0</speed>
  <fix>3d</fix>
</trkpt>
<trkpt lat="-27.2744392" lon="151.2900641">
  <ele>343.11</ele>
  <time>2026-09-01T20:03:15Z</time>
  <course>11.39</course>
  <speed>0.022360679774997897</speed>
  <fix>3d</fix>
</trkpt>
<trkpt lat="-27.274439" lon="151.290064">
  <ele>343.1</ele>
  <time>2026-09-01T20:03:15Z</time>
  <course>270.0</course>
  <speed>0.0</speed>
  <fix>3d</fix>
</trkpt>
<trkpt lat="-27.2744392" lon="151.2900641">
  <ele>343.11</ele>
  <time>2026-09-01T20:03:15Z</time>
  <course>11.39</course>
  <speed>0.022360679774997897</speed>
  <fix>3d</fix>
</trkpt>
<trkpt lat="-27.274439" lon="151.290064">
  <ele>343.1</ele>
  <time>2026-09-01T20:03:15Z</time>
  <course>270.0</course>
  <speed>0.0</speed>
  <fix>3d</fix>
</trkpt>
<trkpt lat="-27.2744392" lon="151.2900641">
  <ele>343.12</ele>
  <time>2026-09-01T20:03:15Z</time>
  <course>11.39</course>
  <speed>0.022360679774997897</speed>
  <fix>3d</fix>
</trkpt>
<trkpt lat="-27.274439" lon="151.290064">
  <ele>343.1</ele>
  <time>2026-09-01T20:03:15Z</time>
  <course>270.0</course>
  <speed>0.0</speed>
  <fix>3d</fix>
</trkpt>
<trkpt lat="-27.2744392" lon="151.2900641">
  <ele>343.12</ele>
  <time>2026-09-01T20:03:15Z</time>
  <course>11.39</course>
  <speed>0.022360679774997897</speed>
  <fix>3d</fix>
</trkpt>
<trkpt lat="-27.274439" lon="151.290064">
  <ele>343.1</ele>
  <time>2026-09-01T20:03:15Z</time>
  <course>270.0</course>
  <speed>0.0</speed>
  <fix>3d</fix>
</trkpt>
<trkpt lat="-27.2744392" lon="151.2900641">
  <ele>343.12</ele>
  <time>2026-09-01T20:03:15Z</time>
  <course>11.39</course>
  <speed>0.022360679774997897</speed>
  <fix>3d</fix>
</trkpt>
<trkpt lat="-27.274439" lon="151.290064">
  <ele>343.1</ele>
  <time>2026-09-01T20:03:15Z</time>
  <course>270.0</course>
  <speed>0.0</speed>
  <fix>3d</fix>
</trkpt>
<trkpt lat="-27.2744392" lon="151.2900641">
  <ele>343.13</ele>
  <time>2026-09-01T20:03:15Z</time>
  <course>11.4</course>
  <speed>0.022360679774997897</speed>
  <fix>3d</fix>
</trkpt>
<trkpt lat="-27.274439" lon="151.290064">
  <ele>343.1</ele>
  <time>2026-09-01T20:03:15Z</time>
  <course>270.0</course>
  <speed>0.0</speed>
  <fix>3d</fix>
</trkpt>
<trkpt lat="-27.2744392" lon="151.2900641">
  <ele>343.13</ele>
  <time>2026-09-01T20:03:15Z</time>
  <course>11.4</course>
  <speed>0.022360679774997897</speed>
  <fix>3d</fix>
</trkpt>
<trkpt lat="-27.274439" lon="151.290064">
  <ele>343.1</ele>
  <time>2026-09-01T20:03:15Z</time>
  <course>270.0</course>
  <speed>0.0</speed>
  <fix>3d</fix>
</trkpt>
<trkpt lat="-27.2744392" lon="151.2900641">
  <ele>343.13</ele>
  <time>2026-09-01T20:03:15Z</time>
  <course>11.4</course>
  <speed>0.022360679774997897</speed>
  <fix>3d</fix>
</trkpt>
<trkpt lat="-27.274439" lon="151.290064">
  <ele>343.1</ele>
  <time>2026-09-01T20:03:15Z</time>
  <course>270.0</course>
  <speed>0.0</speed>
  <fix>3d</fix>
</trkpt>
<trkpt lat="-27.2744392" lon="151.2900641">
  <ele>343.13</ele>
  <time>2026-09-01T20:03:15Z</time>
  <course>11.4</course>
  <speed>0.022360679774997897</speed>
  <fix>3d</fix>
</trkpt>
<trkpt lat="-27.274439" lon="151.290064">
  <ele>343.1</ele>
  <time>2026-09-01T20:03:15Z</time>
  <course>270.0</course>
  <speed>0.0</speed>
  <fix>3d</fix>
</trkpt>
<trkpt lat="-27.2744392" lon="151.2900641">
  <ele>343.13</ele>
  <time>2026-09-01T20:03:15Z</time>
  <course>11.4</course>
  <speed>0.022360679774997897</speed>
  <fix>3d</fix>
</trkpt>
<trkpt lat="-27.274439" lon="151.290064">
  <ele>343.1</ele>
  <time>2026-09-01T20:03:15Z</time>
  <course>270.0</course>
  <speed>0.0</speed>
  <fix>3d</fix>
</trkpt>
<trkpt lat="-27.2744392" lon="151.2900641">
  <ele>343.14</ele>
  <time>2026-09-01T20:03:15Z</time>
  <course>11.4</course>
  <speed>0.022360679774997897</speed>
  <fix>3d</fix>
</trkpt>
<trkpt lat="-27.274439" lon="151.290064">
  <ele>343.1</ele>
  <time>2026-09-01T20:03:15Z</time>
  <course>270.0</course>
  <speed>0.0</speed>
  <fix>3d</fix>
</trkpt>
<trkpt lat="-27.2744392" lon="151.2900641">
  <ele>343.14</ele>
  <time>2026-09-01T20:03:15Z</time>
  <course>11.4</course>
  <speed>0.022360679774997897</speed>
  <fix>3d</fix>
</trkpt>
<trkpt lat="-27.274439" lon="151.290064">
  <ele>343.1</ele>
  <time>2026-09-01T20:03:15Z</time>
  <course>270.0</course>
  <speed>0.0</speed>
  <fix>3d</fix>
</trkpt>
<trkpt lat="-27.2744392" lon="151.2900641">
  <ele>343.15</ele>
  <time>2026-09-01T20:03:15Z</time>
  <course>11.4</course>
  <speed>0.022360679774997897</speed>
  <fix>3d</fix>
</trkpt>
<trkpt lat="-27.274439" lon="151.290064">
  <ele>343.1</ele>
  <time>2026-09-01T20:03:15Z</time>
  <course>270.0</course>
  <speed>0.0</speed>
  <fix>3d</fix>
</trkpt>
<trkpt lat="-27.2744392" lon="151.2900641">
  <ele>343.15</ele>
  <time>2026-09-01T20:03:15Z</time>
  <course>11.4</course>
  <speed>0.022360679774997897</speed>
  <fix>3d</fix>
</trkpt>
<trkpt lat="-27.274439" lon="151.290064">
  <ele>343.1</ele>
  <time>2026-09-01T20:03:15Z</time>
  <course>270.0</course>
  <speed>0.0</speed>
  <fix>3d</fix>
</trkpt>
<trkpt lat="-27.2744392" lon="151.2900641">
  <ele>343.15</ele>
  <time>2026-09-01T20:03:15Z</time>
  <course>11.4</course>
  <speed>0.022360679774997897</speed>
  <fix>3d</fix>
</trkpt>
<trkpt lat="-27.274439" lon="151.290064">
  <ele>343.1</ele>
  <time>2026-09-01T20:03:15Z</time>
  <course>270.0</course>
  <speed>0.0</speed>
  <fix>3d</fix>
</trkpt>
<trkpt lat="-27.2744392" lon="151.2900641">
  <ele>343.15</ele>
  <time>2026-09-01T20:03:15Z</time>
  <course>11.4</course>
  <speed>0.022360679774997897</speed>
  <fix>3d</fix>
</trkpt>
<trkpt lat="-27.274439" lon="151.290064">
  <ele>343.1</ele>
  <time>2026-09-01T20:03:15Z</time>
  <course>270.0</course>
  <speed>0.0</speed>
  <fix>3d</fix>
</trkpt>
<trkpt lat="-27.2744392" lon="151.2900641">
  <ele>343.16</ele>
  <time>2026-09-01T20:03:15Z</time>
  <course>11.41</course>
  <speed>0.022360679774997897</speed>
  <fix>3d</fix>
</trkpt>
<trkpt lat="-27.274439" lon="151.290064">
  <ele>343.1</ele>
  <time>2026-09-01T20:03:15Z</time>
  <course>270.0</course>
  <speed>0.0</speed>
  <fix>3d</fix>
</trkpt>
<trkpt lat="-27.2744392" lon="151.2900641">
  <ele>343.16</ele>
  <time>2026-09-01T20:03:15Z</time>
  <course>11.41</course>
  <speed>0.022360679774997897</speed>
  <fix>3d</fix>
</trkpt>
<trkpt lat="-27.274439" lon="151.290064">
  <ele>343.1</ele>
  <time>2026-09-01T20:03:15Z</time>
  <course>270.0</course>
  <speed>0.0</speed>
  <fix>3d</fix>
</trkpt>
<trkpt lat="-27.2744392" lon="151.2900641">
  <ele>343.16</ele>
  <time>2026-09-01T20:03:15Z</time>
  <course>11.41</course>
  <speed>0.022360679774997897</speed>
  <fix>3d</fix>
</trkpt>
<trkpt lat="-27.274439" lon="151.290064">
  <ele>343.1</ele>
  <time>2026-09-01T20:03:15Z</time>
  <course>270.0</course>
  <speed>0.0</speed>
  <fix>3d</fix>
</trkpt>
<trkpt lat="-27.2744392" lon="151.2900641">
  <ele>343.17</ele>
  <time>2026-09-01T20:03:15Z</time>
  <course>11.41</course>
  <speed>0.022360679774997897</speed>
  <fix>3d</fix>
</trkpt>
<trkpt lat="-27.274439" lon="151.290064">
  <ele>343.1</ele>
  <time>2026-09-01T20:03:15Z</time>
  <course>270.0</course>
  <speed>0.0</speed>
  <fix>3d</fix>
</trkpt>
<trkpt lat="-27.2744392" lon="151.2900641">
  <ele>343.17</ele>
  <time>2026-09-01T20:03:15Z</time>
  <course>11.41</course>
  <speed>0.022360679774997897</speed>
  <fix>3d</fix>
</trkpt>
<trkpt lat="-27.274439" lon="151.290064">
  <ele>343.1</ele>
  <time>2026-09-01T20:03:15Z</time>
  <course>270.0</course>
  <speed>0.0</speed>
  <fix>3d</fix>
</trkpt>
<trkpt lat="-27.2744392" lon="151.2900641">
  <ele>343.18</ele>
  <time>2026-09-01T20:03:15Z</time>
  <course>11.41</course>
  <speed>0.022360679774997897</speed>
  <fix>3d</fix>
</trkpt>
<trkpt lat="-27.274439" lon="151.290064">
  <ele>343.1</ele>
  <time>2026-09-01T20:03:15Z</time>
  <course>270.0</course>
  <speed>0.0</speed>
  <fix>3d</fix>
</trkpt>
<trkpt lat="-27.2744392" lon="151.2900641">
  <ele>343.18</ele>
  <time>2026-09-01T20:03:15Z</time>
  <course>11.41</course>
  <speed>0.022360679774997897</speed>
  <fix>3d</fix>
</trkpt>
<trkpt lat="-27.274439" lon="151.290064">
  <ele>343.1</ele>
  <time>2026-09-01T20:03:15Z</time>
  <course>270.0</course>
  <speed>0.0</speed>
  <fix>3d</fix>
</trkpt>
<trkpt lat="-27.2744392" lon="151.2900641">
  <ele>343.18</ele>
  <time>2026-09-01T20:03:15Z</time>
  <course>11.41</course>
  <speed>0.022360679774997897</speed>
  <fix>3d</fix>
</trkpt>
<trkpt lat="-27.274439" lon="151.290064">
  <ele>343.1</ele>
  <time>2026-09-01T20:03:15Z</time>
  <course>270.0</course>
  <speed>0.0</speed>
  <fix>3d</fix>
</trkpt>
<trkpt lat="-27.2744392" lon="151.2900641">
  <ele>343.19</ele>
  <time>2026-09-01T20:03:15Z</time>
  <course>11.41</course>
  <speed>0.022360679774997897</speed>
  <fix>3d</fix>
</trkpt>
<trkpt lat="-27.274439" lon="151.290064">
  <ele>343.1</ele>
  <time>2026-09-01T20:03:15Z</time>
  <course>270.0</course>
  <speed>0.0</speed>
  <fix>3d</fix>
</trkpt>
<trkpt lat="-27.2744392" lon="151.2900641">
  <ele>343.19</ele>
  <time>2026-09-01T20:03:15Z</time>
  <course>11.41</course>
  <speed>0.022360679774997897</speed>
  <fix>3d</fix>
</trkpt>
<trkpt lat="-27.274439" lon="151.290064">
  <ele>343.1</ele>
  <time>2026-09-01T20:03:15Z</time>
  <course>270.0</course>
  <speed>0.0</speed>
  <fix>3d</fix>
</trkpt>
<trkpt lat="-27.2744392" lon="151.2900641">
  <ele>343.19</ele>
  <time>2026-09-01T20:03:15Z</time>
  <course>11.41</course>
  <speed>0.022360679774997897</speed>
  <fix>3d</fix>
</trkpt>
<trkpt lat="-27.274439" lon="151.290064">
  <ele>343.1</ele>
  <time>2026-09-01T20:03:15Z</time>
  <course>270.0</course>
  <speed>0.0</speed>
  <fix>3d</fix>
</trkpt>
<trkpt lat="-27.2744392" lon="151.2900641">
  <ele>343.2</ele>
  <time>2026-09-01T20:03:15Z</time>
  <course>11.42</course>
  <speed>0.022360679774997897</speed>
  <fix>3d</fix>
</trkpt>
<trkpt lat="-27.274439" lon="151.290064">
  <ele>343.1</ele>
  <time>2026-09-01T20:03:15Z</time>
  <course>270.0</course>
  <speed>0.0</speed>
  <fix>3d</fix>
</trkpt>
<trkpt lat="-27.2744392" lon="151.2900641">
  <ele>343.2</ele>
  <time>2026-09-01T20:03:15Z</time>
  <course>11.42</course>
  <speed>0.022360679774997897</speed>
  <fix>3d</fix>
</trkpt>
<trkpt lat="-27.274439" lon="151.290064">
  <ele>343.1</ele>
  <time>2026-09-01T20:03:15Z</time>
  <course>270.0</course>
  <speed>0.0</speed>
  <fix>3d</fix>
</trkpt>
<trkpt lat="-27.2744392" lon="151.2900641">
  <ele>343.2</ele>
  <time>2026-09-01T20:03:15Z</time>
  <course>11.42</course>
  <speed>0.022360679774997897</speed>
  <fix>3d</fix>
</trkpt>
<trkpt lat="-27.274439" lon="151.290064">
  <ele>343.1</ele>
  <time>2026-09-01T20:03:15Z</time>
  <course>270.0</course>
  <speed>0.0</speed>
  <fix>3d</fix>
</trkpt>
<trkpt lat="-27.2744392" lon="151.2900641">
  <ele>343.21</ele>
  <time>2026-09-01T20:03:15Z</time>
  <course>11.42</course>
  <speed>0.022360679774997897</speed>
  <fix>3d</fix>
</trkpt>
<trkpt lat="-27.274439" lon="151.290064">
  <ele>343.1</ele>
  <time>2026-09-01T20:03:15Z</time>
  <course>270.0</course>
  <speed>0.0</speed>
  <fix>3d</fix>
</trkpt>
<trkpt lat="-27.2744392" lon="151.2900641">
  <ele>343.21</ele>
  <time>2026-09-01T20:03:15Z</time>
  <course>11.42</course>
  <speed>0.022360679774997897</speed>
  <fix>3d</fix>
</trkpt>
<trkpt lat="-27.274439" lon="151.290064">
  <ele>343.1</ele>
  <time>2026-09-01T20:03:15Z</time>
  <course>270.0</course>
  <speed>0.0</speed>
  <fix>3d</fix>
</trkpt>
<trkpt lat="-27.2744392" lon="151.2900641">
  <ele>343.22</ele>
  <time>2026-09-01T20:03:15Z</time>
  <course>11.42</course>
  <speed>0.022360679774997897</speed>
  <fix>3d</fix>
</trkpt>
<trkpt lat="-27.274439" lon="151.290064">
  <ele>343.1</ele>
  <time>2026-09-01T20:03:15Z</time>
  <course>270.0</course>
  <speed>0.0</speed>
  <fix>3d</fix>
</trkpt>
<trkpt lat="-27.2744392" lon="151.2900641">
  <ele>343.22</ele>
  <time>2026-09-01T20:03:15Z</time>
  <course>11.42</course>
  <speed>0.022360679774997897</speed>
  <fix>3d</fix>
</trkpt>
<trkpt lat="-27.274439" lon="151.290064">
  <ele>343.1</ele>
  <time>2026-09-01T20:03:15Z</time>
  <course>270.0</course>
  <speed>0.0</speed>
  <fix>3d</fix>
</trkpt>
<trkpt lat="-27.2744392" lon="151.2900641">
  <ele>343.23</ele>
  <time>2026-09-01T20:03:15Z</time>
  <course>11.42</course>
  <speed>0.022360679774997897</speed>
  <fix>3d</fix>
</trkpt>
<trkpt lat="-27.274439" lon="151.290064">
  <ele>343.1</ele>
  <time>2026-09-01T20:03:15Z</time>
  <course>270.0</course>
  <speed>0.0</speed>
  <fix>3d</fix>
</trkpt>
<trkpt lat="-27.2744392" lon="151.2900641">
  <ele>343.23</ele>
  <time>2026-09-01T20:03:15Z</time>
  <course>11.42</course>
  <speed>0.022360679774997897</speed>
  <fix>3d</fix>
</trkpt>
<trkpt lat="-27.274439" lon="151.290064">
  <ele>343.1</ele>
  <time>2026-09-01T20:03:15Z</time>
  <course>270.0</course>
  <speed>0.0</speed>
  <fix>3d</fix>
</trkpt>
<trkpt lat="-27.2744392" lon="151.2900641">
  <ele>343.24</ele>
  <time>2026-09-01T20:03:15Z</time>
  <course>11.42</course>
  <speed>0.022360679774997897</speed>
  <fix>3d</fix>
</trkpt>
<trkpt lat="-27.274439" lon="151.290064">
  <ele>343.1</ele>
  <time>2026-09-01T20:03:15Z</time>
  <course>270.0</course>
  <speed>0.0</speed>
  <fix>3d</fix>
</trkpt>
<trkpt lat="-27.2744392" lon="151.2900641">
  <ele>343.24</ele>
  <time>2026-09-01T20:03:15Z</time>
  <course>11.43</course>
  <speed>0.022360679774997897</speed>
  <fix>3d</fix>
</trkpt>
<trkpt lat="-27.274439" lon="151.290064">
  <ele>343.1</ele>
  <time>2026-09-01T20:03:15Z</time>
  <course>270.0</course>
  <speed>0.0</speed>
  <fix>3d</fix>
</trkpt>
<trkpt lat="-27.2744392" lon="151.2900641">
  <ele>343.25</ele>
  <time>2026-09-01T20:03:15Z</time>
  <course>11.43</course>
  <speed>0.022360679774997897</speed>
  <fix>3d</fix>
</trkpt>
<trkpt lat="-27.274439" lon="151.290064">
  <ele>343.1</ele>
  <time>2026-09-01T20:03:15Z</time>
  <course>270.0</course>
  <speed>0.0</speed>
  <fix>3d</fix>
</trkpt>
<trkpt lat="-27.2744392" lon="151.2900641">
  <ele>343.25</ele>
  <time>2026-09-01T20:03:15Z</time>
  <course>11.43</course>
  <speed>0.022360679774997897</speed>
  <fix>3d</fix>
</trkpt>
<trkpt lat="-27.274439" lon="151.290064">
  <ele>343.1</ele>
  <time>2026-09-01T20:03:15Z</time>
  <course>270.0</course>
  <speed>0.0</speed>
  <fix>3d</fix>
</trkpt>
<trkpt lat="-27.2744392" lon="151.2900641">
  <ele>343.25</ele>
  <time>2026-09-01T20:03:15Z</time>
  <course>11.43</course>
  <speed>0.022360679774997897</speed>
  <fix>3d</fix>
</trkpt>
<trkpt lat="-27.274439" lon="151.290064">
  <ele>343.1</ele>
  <time>2026-09-01T20:03:15Z</time>
  <course>270.0</course>
  <speed>0.0</speed>
  <fix>3d</fix>
</trkpt>
<trkpt lat="-27.2744392" lon="151.2900641">
  <ele>343.26</ele>
  <time>2026-09-01T20:03:15Z</time>
  <course>11.43</course>
  <speed>0.022360679774997897</speed>
  <fix>3d</fix>
</trkpt>
<trkpt lat="-27.274439" lon="151.290064">
  <ele>343.1</ele>
  <time>2026-09-01T20:03:15Z</time>
  <course>270.0</course>
  <speed>0.0</speed>
  <fix>3d</fix>
</trkpt>
<trkpt lat="-27.2744392" lon="151.2900641">
  <ele>343.26</ele>
  <time>2026-09-01T20:03:15Z</time>
  <course>11.43</course>
  <speed>0.022360679774997897</speed>
  <fix>3d</fix>
</trkpt>
<trkpt lat="-27.274439" lon="151.290064">
  <ele>343.1</ele>
  <time>2026-09-01T20:03:15Z</time>
  <course>270.0</course>
  <speed>0.0</speed>
  <fix>3d</fix>
</trkpt>
<trkpt lat="-27.2744392" lon="151.2900641">
  <ele>343.26</ele>
  <time>2026-09-01T20:03:15Z</time>
  <course>11.43</course>
  <speed>0.022360679774997897</speed>
  <fix>3d</fix>
</trkpt>
<trkpt lat="-27.274439" lon="151.290064">
  <ele>343.1</ele>
  <time>2026-09-01T20:03:15Z</time>
  <course>270.0</course>
  <speed>0.0</speed>
  <fix>3d</fix>
</trkpt>
<trkpt lat="-27.2744392" lon="151.2900641">
  <ele>343.26</ele>
  <time>2026-09-01T20:03:15Z</time>
  <course>11.43</course>
  <speed>0.022360679774997897</speed>
  <fix>3d</fix>
</trkpt>
<trkpt lat="-27.274439" lon="151.290064">
  <ele>343.1</ele>
  <time>2026-09-01T20:03:15Z</time>
  <course>270.0</course>
  <speed>0.0</speed>
  <fix>3d</fix>
</trkpt>
<trkpt lat="-27.2744392" lon="151.2900641">
  <ele>343.26</ele>
  <time>2026-09-01T20:03:15Z</time>
  <course>11.43</course>
  <speed>0.022360679774997897</speed>
  <fix>3d</fix>
</trkpt>
<trkpt lat="-27.274439" lon="151.290064">
  <ele>343.1</ele>
  <time>2026-09-01T20:03:15Z</time>
  <course>270.0</course>
  <speed>0.0</speed>
  <fix>3d</fix>
</trkpt>
<trkpt lat="-27.2744392" lon="151.2900641">
  <ele>343.26</ele>
  <time>2026-09-01T20:03:15Z</time>
  <course>11.43</course>
  <speed>0.022360679774997897</speed>
  <fix>3d</fix>
</trkpt>
<trkpt lat="-27.274439" lon="151.290064">
  <ele>343.1</ele>
  <time>2026-09-01T20:03:15Z</time>
  <course>270.0</course>
  <speed>0.0</speed>
  <fix>3d</fix>
</trkpt>
<trkpt lat="-27.2744392" lon="151.2900641">
  <ele>343.26</ele>
  <time>2026-09-01T20:03:15Z</time>
  <course>11.43</course>
  <speed>0.022360679774997897</speed>
  <fix>3d</fix>
</trkpt>
<trkpt lat="-27.274439" lon="151.290064">
  <ele>343.1</ele>
  <time>2026-09-01T20:03:15Z</time>
  <course>270.0</course>
  <speed>0.0</speed>
  <fix>3d</fix>
</trkpt>
<trkpt lat="-27.2744392" lon="151.2900641">
  <ele>343.26</ele>
  <time>2026-09-01T20:03:15Z</time>
  <course>11.43</course>
  <speed>0.022360679774997897</speed>
  <fix>3d</fix>
</trkpt>
<trkpt lat="-27.274439" lon="151.290064">
  <ele>343.1</ele>
  <time>2026-09-01T20:03:15Z</time>
  <course>270.0</course>
  <speed>0.0</speed>
  <fix>3d</fix>
</trkpt>
<trkpt lat="-27.2744392" lon="151.2900641">
  <ele>343.26</ele>
  <time>2026-09-01T20:03:15Z</time>
  <course>11.44</course>
  <speed>0.022360679774997897</speed>
  <fix>3d</fix>
</trkpt>
<trkpt lat="-27.274439" lon="151.290064">
  <ele>343.1</ele>
  <time>2026-09-01T20:03:15Z</time>
  <course>270.0</course>
  <speed>0.0</speed>
  <fix>3d</fix>
</trkpt>
<trkpt lat="-27.2744392" lon="151.2900641">
  <ele>343.26</ele>
  <time>2026-09-01T20:03:15Z</time>
  <course>11.44</course>
  <speed>0.022360679774997897</speed>
  <fix>3d</fix>
</trkpt>
<trkpt lat="-27.274439" lon="151.290064">
  <ele>343.1</ele>
  <time>2026-09-01T20:03:15Z</time>
  <course>270.0</course>
  <speed>0.0</speed>
  <fix>3d</fix>
</trkpt>
<trkpt lat="-27.2744392" lon="151.2900641">
  <ele>343.26</ele>
  <time>2026-09-01T20:03:15Z</time>
  <course>11.44</course>
  <speed>0.022360679774997897</speed>
  <fix>3d</fix>
</trkpt>
<trkpt lat="-27.274439" lon="151.290064">
  <ele>343.1</ele>
  <time>2026-09-01T20:03:15Z</time>
  <course>270.0</course>
  <speed>0.0</speed>
  <fix>3d</fix>
</trkpt>
<trkpt lat="-27.2744392" lon="151.2900641">
  <ele>343.26</ele>
  <time>2026-09-01T20:03:15Z</time>
  <course>11.44</course>
  <speed>0.022360679774997897</speed>
  <fix>3d</fix>
</trkpt>
<trkpt lat="-27.274439" lon="151.290064">
  <ele>343.1</ele>
  <time>2026-09-01T20:03:15Z</time>
  <course>270.0</course>
  <speed>0.0</speed>
  <fix>3d</fix>
</trkpt>
<trkpt lat="-27.2744392" lon="151.2900641">
  <ele>343.26</ele>
  <time>2026-09-01T20:03:15Z</time>
  <course>11.44</course>
  <speed>0.022360679774997897</speed>
  <fix>3d</fix>
</trkpt>
<trkpt lat="-27.274439" lon="151.290064">
  <ele>343.1</ele>
  <time>2026-09-01T20:03:15Z</time>
  <course>270.0</course>
  <speed>0.0</speed>
  <fix>3d</fix>
</trkpt>
<trkpt lat="-27.2744392" lon="151.2900641">
  <ele>343.1</ele>
  <time>2026-09-01T20:03:15Z</time>
  <course>11.44</course>
  <speed>0.022360679774997897</speed>
  <fix>3d</fix>
</trkpt>
<trkpt lat="-27.274439" lon="151.290064">
  <ele>343.1</ele>
  <time>2026-09-01T20:03:15Z</time>
  <course>270.0</course>
  <speed>0.0</speed>
  <fix>3d</fix>
</trkpt>
<trkpt lat="-27.2744392" lon="151.2900641">
  <ele>343.1</ele>
  <time>2026-09-01T20:03:15Z</time>
  <course>11.44</course>
  <speed>0.022360679774997897</speed>
  <fix>3d</fix>
</trkpt>
<trkpt lat="-27.274439" lon="151.290064">
  <ele>343.1</ele>
  <time>2026-09-01T20:03:15Z</time>
  <course>270.0</course>
  <speed>0.0</speed>
  <fix>3d</fix>
</trkpt>
<trkpt lat="-27.2744392" lon="151.2900641">
  <ele>343.1</ele>
  <time>2026-09-01T20:03:15Z</time>
  <course>11.44</course>
  <speed>0.022360679774997897</speed>
  <fix>3d</fix>
</trkpt>
<trkpt lat="-27.274439" lon="151.290064">
  <ele>343.1</ele>
  <time>2026-09-01T20:03:15Z</time>
  <course>270.0</course>
  <speed>0.0</speed>
  <fix>3d</fix>
</trkpt>
<trkpt lat="-27.2744392" lon="151.2900641">
  <ele>343.1</ele>
  <time>2026-09-01T20:03:15Z</time>
  <course>11.44</course>
  <speed>0.022360679774997897</speed>
  <fix>3d</fix>
</trkpt>
<trkpt lat="-27.274439" lon="151.290064">
  <ele>343.1</ele>
  <time>2026-09-01T20:03:15Z</time>
  <course>270.0</course>
  <speed>0.0</speed>
  <fix>3d</fix>
</trkpt>
<trkpt lat="-27.2744392" lon="151.2900641">
  <ele>343.1</ele>
  <time>2026-09-01T20:03:15Z</time>
  <course>11.44</course>
  <speed>0.022360679774997897</speed>
  <fix>3d</fix>
</trkpt>
<trkpt lat="-27.274439" lon="151.290064">
  <ele>343.1</ele>
  <time>2026-09-01T20:03:15Z</time>
  <course>270.0</course>
  <speed>0.0</speed>
  <fix>3d</fix>
</trkpt>
<trkpt lat="-27.2744392" lon="151.2900641">
  <ele>343.1</ele>
  <time>2026-09-01T20:03:15Z</time>
  <course>11.44</course>
  <speed>0.022360679774997897</speed>
  <fix>3d</fix>
</trkpt>
<trkpt lat="-27.274439" lon="151.290064">
  <ele>343.1</ele>
  <time>2026-09-01T20:03:15Z</time>
  <course>270.0</course>
  <speed>0.0</speed>
  <fix>3d</fix>
</trkpt>
<trkpt lat="-27.2744392" lon="151.2900641">
  <ele>343.11</ele>
  <time>2026-09-01T20:03:15Z</time>
  <course>11.45</course>
  <speed>0.022360679774997897</speed>
  <fix>3d</fix>
</trkpt>
<trkpt lat="-27.274439" lon="151.290064">
  <ele>343.1</ele>
  <time>2026-09-01T20:03:15Z</time>
  <course>270.0</course>
  <speed>0.0</speed>
  <fix>3d</fix>
</trkpt>
<trkpt lat="-27.2744392" lon="151.2900641">
  <ele>343.11</ele>
  <time>2026-09-01T20:03:15Z</time>
  <course>11.45</course>
  <speed>0.022360679774997897</speed>
  <fix>3d</fix>
</trkpt>
<trkpt lat="-27.274439" lon="151.290064">
  <ele>343.1</ele>
  <time>2026-09-01T20:03:15Z</time>
  <course>270.0</course>
  <speed>0.0</speed>
  <fix>3d</fix>
</trkpt>
<trkpt lat="-27.2744392" lon="151.2900641">
  <ele>343.12</ele>
  <time>2026-09-01T20:03:15Z</time>
  <course>11.45</course>
  <speed>0.022360679774997897</speed>
  <fix>3d</fix>
</trkpt>
<trkpt lat="-27.274439" lon="151.290064">
  <ele>343.1</ele>
  <time>2026-09-01T20:03:15Z</time>
  <course>270.0</course>
  <speed>0.0</speed>
  <fix>3d</fix>
</trkpt>
<trkpt lat="-27.2744392" lon="151.2900641">
  <ele>343.12</ele>
  <time>2026-09-01T20:03:15Z</time>
  <course>11.45</course>
  <speed>0.022360679774997897</speed>
  <fix>3d</fix>
</trkpt>
<trkpt lat="-27.274439" lon="151.290064">
  <ele>343.1</ele>
  <time>2026-09-01T20:03:15Z</time>
  <course>270.0</course>
  <speed>0.0</speed>
  <fix>3d</fix>
</trkpt>
<trkpt lat="-27.2744392" lon="151.2900641">
  <ele>343.12</ele>
  <time>2026-09-01T20:03:15Z</time>
  <course>11.45</course>
  <speed>0.022360679774997897</speed>
  <fix>3d</fix>
</trkpt>
<trkpt lat="-27.274439" lon="151.290064">
  <ele>343.1</ele>
  <time>2026-09-01T20:03:15Z</time>
  <course>270.0</course>
  <speed>0.0</speed>
  <fix>3d</fix>
</trkpt>
<trkpt lat="-27.2744392" lon="151.2900641">
  <ele>343.13</ele>
  <time>2026-09-01T20:03:15Z</time>
  <course>11.45</course>
  <speed>0.022360679774997897</speed>
  <fix>3d</fix>
</trkpt>
<trkpt lat="-27.274439" lon="151.290064">
  <ele>343.1</ele>
  <time>2026-09-01T20:03:15Z</time>
  <course>270.0</course>
  <speed>0.0</speed>
  <fix>3d</fix>
</trkpt>
<trkpt lat="-27.2744392" lon="151.2900641">
  <ele>343.13</ele>
  <time>2026-09-01T20:03:15Z</time>
  <course>11.45</course>
  <speed>0.022360679774997897</speed>
  <fix>3d</fix>
</trkpt>
<trkpt lat="-27.274439" lon="151.290064">
  <ele>343.1</ele>
  <time>2026-09-01T20:03:15Z</time>
  <course>270.0</course>
  <speed>0.0</speed>
  <fix>3d</fix>
</trkpt>
<trkpt lat="-27.2744392" lon="151.2900641">
  <ele>343.13</ele>
  <time>2026-09-01T20:03:15Z</time>
  <course>11.45</course>
  <speed>0.022360679774997897</speed>
  <fix>3d</fix>
</trkpt>
<trkpt lat="-27.274439" lon="151.290064">
  <ele>343.1</ele>
  <time>2026-09-01T20:03:15Z</time>
  <course>270.0</course>
  <speed>0.0</speed>
  <fix>3d</fix>
</trkpt>
<trkpt lat="-27.2744392" lon="151.2900641">
  <ele>343.13</ele>
  <time>2026-09-01T20:03:15Z</time>
  <course>11.45</course>
  <speed>0.022360679774997897</speed>
  <fix>3d</fix>
</trkpt>
<trkpt lat="-27.274439" lon="151.290064">
  <ele>343.1</ele>
  <time>2026-09-01T20:03:15Z</time>
  <course>270.0</course>
  <speed>0.0</speed>
  <fix>3d</fix>
</trkpt>
<trkpt lat="-27.2744392" lon="151.2900641">
  <ele>343.14</ele>
  <time>2026-09-01T20:03:15Z</time>
  <course>11.45</course>
  <speed>0.022360679774997897</speed>
  <fix>3d</fix>
</trkpt>
<trkpt lat="-27.274439" lon="151.290064">
  <ele>343.1</ele>
  <time>2026-09-01T20:03:15Z</time>
  <course>270.0</course>
  <speed>0.0</speed>
  <fix>3d</fix>
</trkpt>
<trkpt lat="-27.2744392" lon="151.2900641">
  <ele>343.14</ele>
  <time>2026-09-01T20:03:15Z</time>
  <course>11.45</course>
  <speed>0.022360679774997897</speed>
  <fix>3d</fix>
</trkpt>
<trkpt lat="-27.274439" lon="151.290064">
  <ele>343.1</ele>
  <time>2026-09-01T20:03:15Z</time>
  <course>270.0</course>
  <speed>0.0</speed>
  <fix>3d</fix>
</trkpt>
<trkpt lat="-27.2744392" lon="151.2900641">
  <ele>343.14</ele>
  <time>2026-09-01T20:03:15Z</time>
  <course>11.46</course>
  <speed>0.022360679774997897</speed>
  <fix>3d</fix>
</trkpt>
<trkpt lat="-27.274439" lon="151.290064">
  <ele>343.1</ele>
  <time>2026-09-01T20:03:15Z</time>
  <course>270.0</course>
  <speed>0.0</speed>
  <fix>3d</fix>
</trkpt>
<trkpt lat="-27.2744392" lon="151.2900641">
  <ele>343.15</ele>
  <time>2026-09-01T20:03:15Z</time>
  <course>11.46</course>
  <speed>0.022360679774997897</speed>
  <fix>3d</fix>
</trkpt>
<trkpt lat="-27.274439" lon="151.290064">
  <ele>343.1</ele>
  <time>2026-09-01T20:03:15Z</time>
  <course>270.0</course>
  <speed>0.0</speed>
  <fix>3d</fix>
</trkpt>
<trkpt lat="-27.2744392" lon="151.2900641">
  <ele>343.15</ele>
  <time>2026-09-01T20:03:15Z</time>
  <course>11.46</course>
  <speed>0.022360679774997897</speed>
  <fix>3d</fix>
</trkpt>
<trkpt lat="-27.274439" lon="151.290064">
  <ele>343.1</ele>
  <time>2026-09-01T20:03:15Z</time>
  <course>270.0</course>
  <speed>0.0</speed>
  <fix>3d</fix>
</trkpt>
<trkpt lat="-27.2744392" lon="151.2900641">
  <ele>343.15</ele>
  <time>2026-09-01T20:03:15Z</time>
  <course>11.46</course>
  <speed>0.022360679774997897</speed>
  <fix>3d</fix>
</trkpt>
<trkpt lat="-27.274439" lon="151.290064">
  <ele>343.1</ele>
  <time>2026-09-01T20:03:15Z</time>
  <course>270.0</course>
  <speed>0.0</speed>
  <fix>3d</fix>
</trkpt>
<trkpt lat="-27.2744392" lon="151.2900641">
  <ele>343.15</ele>
  <time>2026-09-01T20:03:15Z</time>
  <course>11.46</course>
  <speed>0.022360679774997897</speed>
  <fix>3d</fix>
</trkpt>
<trkpt lat="-27.274439" lon="151.290064">
  <ele>343.1</ele>
  <time>2026-09-01T20:03:15Z</time>
  <course>270.0</course>
  <speed>0.0</speed>
  <fix>3d</fix>
</trkpt>
<trkpt lat="-27.2744392" lon="151.2900641">
  <ele>343.15</ele>
  <time>2026-09-01T20:03:15Z</time>
  <course>11.46</course>
  <speed>0.022360679774997897</speed>
  <fix>3d</fix>
</trkpt>
<trkpt lat="-27.274439" lon="151.290064">
  <ele>343.1</ele>
  <time>2026-09-01T20:03:15Z</time>
  <course>270.0</course>
  <speed>0.0</speed>
  <fix>3d</fix>
</trkpt>
<trkpt lat="-27.2744392" lon="151.2900641">
  <ele>343.15</ele>
  <time>2026-09-01T20:03:15Z</time>
  <course>11.46</course>
  <speed>0.022360679774997897</speed>
  <fix>3d</fix>
</trkpt>
<trkpt lat="-27.274439" lon="151.290064">
  <ele>343.1</ele>
  <time>2026-09-01T20:03:15Z</time>
  <course>270.0</course>
  <speed>0.0</speed>
  <fix>3d</fix>
</trkpt>
<trkpt lat="-27.2744392" lon="151.2900641">
  <ele>343.16</ele>
  <time>2026-09-01T20:03:15Z</time>
  <course>11.46</course>
  <speed>0.022360679774997897</speed>
  <fix>3d</fix>
</trkpt>
<trkpt lat="-27.274439" lon="151.290064">
  <ele>343.1</ele>
  <time>2026-09-01T20:03:15Z</time>
  <course>270.0</course>
  <speed>0.0</speed>
  <fix>3d</fix>
</trkpt>
<trkpt lat="-27.2744392" lon="151.2900641">
  <ele>343.16</ele>
  <time>2026-09-01T20:03:15Z</time>
  <course>11.46</course>
  <speed>0.022360679774997897</speed>
  <fix>3d</fix>
</trkpt>
<trkpt lat="-27.274439" lon="151.290064">
  <ele>343.1</ele>
  <time>2026-09-01T20:03:15Z</time>
  <course>270.0</course>
  <speed>0.0</speed>
  <fix>3d</fix>
</trkpt>
<trkpt lat="-27.2744392" lon="151.2900641">
  <ele>343.16</ele>
  <time>2026-09-01T20:03:15Z</time>
  <course>11.46</course>
  <speed>0.022360679774997897</speed>
  <fix>3d</fix>
</trkpt>
<trkpt lat="-27.274439" lon="151.290064">
  <ele>343.1</ele>
  <time>2026-09-01T20:03:15Z</time>
  <course>270.0</course>
  <speed>0.0</speed>
  <fix>3d</fix>
</trkpt>
<trkpt lat="-27.2744392" lon="151.2900641">
  <ele>343.16</ele>
  <time>2026-09-01T20:03:15Z</time>
  <course>11.46</course>
  <speed>0.022360679774997897</speed>
  <fix>3d</fix>
</trkpt>
<trkpt lat="-27.274439" lon="151.290064">
  <ele>343.1</ele>
  <time>2026-09-01T20:03:15Z</time>
  <course>270.0</course>
  <speed>0.0</speed>
  <fix>3d</fix>
</trkpt>
<trkpt lat="-27.2744392" lon="151.2900641">
  <ele>343.16</ele>
  <time>2026-09-01T20:03:15Z</time>
  <course>11.47</course>
  <speed>0.022360679774997897</speed>
  <fix>3d</fix>
</trkpt>
<trkpt lat="-27.274439" lon="151.290064">
  <ele>343.1</ele>
  <time>2026-09-01T20:03:15Z</time>
  <course>270.0</course>
  <speed>0.0</speed>
  <fix>3d</fix>
</trkpt>
<trkpt lat="-27.2744392" lon="151.2900641">
  <ele>343.17</ele>
  <time>2026-09-01T20:03:15Z</time>
  <course>11.47</course>
  <speed>0.022360679774997897</speed>
  <fix>3d</fix>
</trkpt>
<trkpt lat="-27.274439" lon="151.290064">
  <ele>343.1</ele>
  <time>2026-09-01T20:03:15Z</time>
  <course>270.0</course>
  <speed>0.0</speed>
  <fix>3d</fix>
</trkpt>
<trkpt lat="-27.2744392" lon="151.2900641">
  <ele>343.17</ele>
  <time>2026-09-01T20:03:15Z</time>
  <course>11.47</course>
  <speed>0.022360679774997897</speed>
  <fix>3d</fix>
</trkpt>
<trkpt lat="-27.274439" lon="151.290064">
  <ele>343.1</ele>
  <time>2026-09-01T20:03:15Z</time>
  <course>270.0</course>
  <speed>0.0</speed>
  <fix>3d</fix>
</trkpt>
<trkpt lat="-27.2744392" lon="151.2900641">
  <ele>343.17</ele>
  <time>2026-09-01T20:03:15Z</time>
  <course>11.47</course>
  <speed>0.022360679774997897</speed>
  <fix>3d</fix>
</trkpt>
<trkpt lat="-27.274439" lon="151.290064">
  <ele>343.1</ele>
  <time>2026-09-01T20:03:15Z</time>
  <course>270.0</course>
  <speed>0.0</speed>
  <fix>3d</fix>
</trkpt>
<trkpt lat="-27.2744392" lon="151.2900641">
  <ele>343.17</ele>
  <time>2026-09-01T20:03:15Z</time>
  <course>11.47</course>
  <speed>0.022360679774997897</speed>
  <fix>3d</fix>
</trkpt>
<trkpt lat="-27.274439" lon="151.290064">
  <ele>343.1</ele>
  <time>2026-09-01T20:03:15Z</time>
  <course>270.0</course>
  <speed>0.0</speed>
  <fix>3d</fix>
</trkpt>
<trkpt lat="-27.2744392" lon="151.2900641">
  <ele>343.17</ele>
  <time>2026-09-01T20:03:15Z</time>
  <course>11.47</course>
  <speed>0.022360679774997897</speed>
  <fix>3d</fix>
</trkpt>
<trkpt lat="-27.274439" lon="151.290064">
  <ele>343.1</ele>
  <time>2026-09-01T20:03:15Z</time>
  <course>270.0</course>
  <speed>0.0</speed>
  <fix>3d</fix>
</trkpt>
<trkpt lat="-27.2744392" lon="151.2900641">
  <ele>343.18</ele>
  <time>2026-09-01T20:03:15Z</time>
  <course>11.47</course>
  <speed>0.022360679774997897</speed>
  <fix>3d</fix>
</trkpt>
<trkpt lat="-27.274439" lon="151.290064">
  <ele>343.1</ele>
  <time>2026-09-01T20:03:15Z</time>
  <course>270.0</course>
  <speed>0.0</speed>
  <fix>3d</fix>
</trkpt>
<trkpt lat="-27.2744392" lon="151.2900641">
  <ele>343.18</ele>
  <time>2026-09-01T20:03:15Z</time>
  <course>11.47</course>
  <speed>0.022360679774997897</speed>
  <fix>3d</fix>
</trkpt>
<trkpt lat="-27.274439" lon="151.290064">
  <ele>343.1</ele>
  <time>2026-09-01T20:03:15Z</time>
  <course>270.0</course>
  <speed>0.0</speed>
  <fix>3d</fix>
</trkpt>
<trkpt lat="-27.2744392" lon="151.2900641">
  <ele>343.18</ele>
  <time>2026-09-01T20:03:15Z</time>
  <course>11.47</course>
  <speed>0.022360679774997897</speed>
  <fix>3d</fix>
</trkpt>
<trkpt lat="-27.274439" lon="151.290064">
  <ele>343.1</ele>
  <time>2026-09-01T20:03:15Z</time>
  <course>270.0</course>
  <speed>0.0</speed>
  <fix>3d</fix>
</trkpt>
<trkpt lat="-27.2744392" lon="151.2900641">
  <ele>343.19</ele>
  <time>2026-09-01T20:03:15Z</time>
  <course>11.47</course>
  <speed>0.022360679774997897</speed>
  <fix>3d</fix>
</trkpt>
<trkpt lat="-27.274439" lon="151.290064">
  <ele>343.1</ele>
  <time>2026-09-01T20:03:15Z</time>
  <course>270.0</course>
  <speed>0.0</speed>
  <fix>3d</fix>
</trkpt>
<trkpt lat="-27.2744392" lon="151.2900641">
  <ele>343.19</ele>
  <time>2026-09-01T20:03:15Z</time>
  <course>11.47</course>
  <speed>0.022360679774997897</speed>
  <fix>3d</fix>
</trkpt>
<trkpt lat="-27.274439" lon="151.290064">
  <ele>343.1</ele>
  <time>2026-09-01T20:03:15Z</time>
  <course>270.0</course>
  <speed>0.0</speed>
  <fix>3d</fix>
</trkpt>
<trkpt lat="-27.2744392" lon="151.2900641">
  <ele>343.19</ele>
  <time>2026-09-01T20:03:15Z</time>
  <course>11.47</course>
  <speed>0.022360679774997897</speed>
  <fix>3d</fix>
</trkpt>
<trkpt lat="-27.274439" lon="151.290064">
  <ele>343.1</ele>
  <time>2026-09-01T20:03:15Z</time>
  <course>270.0</course>
  <speed>0.0</speed>
  <fix>3d</fix>
</trkpt>
<trkpt lat="-27.2744392" lon="151.2900641">
  <ele>343.19</ele>
  <time>2026-09-01T20:03:15Z</time>
  <course>11.48</course>
  <speed>0.022360679774997897</speed>
  <fix>3d</fix>
</trkpt>
<trkpt lat="-27.274439" lon="151.290064">
  <ele>343.1</ele>
  <time>2026-09-01T20:03:15Z</time>
  <course>270.0</course>
  <speed>0.0</speed>
  <fix>3d</fix>
</trkpt>
<trkpt lat="-27.2744392" lon="151.2900641">
  <ele>343.2</ele>
  <time>2026-09-01T20:03:15Z</time>
  <course>11.48</course>
  <speed>0.022360679774997897</speed>
  <fix>3d</fix>
</trkpt>
<trkpt lat="-27.274439" lon="151.290064">
  <ele>343.1</ele>
  <time>2026-09-01T20:03:15Z</time>
  <course>270.0</course>
  <speed>0.0</speed>
  <fix>3d</fix>
</trkpt>
<trkpt lat="-27.2744392" lon="151.2900641">
  <ele>343.2</ele>
  <time>2026-09-01T20:03:15Z</time>
  <course>11.48</course>
  <speed>0.022360679774997897</speed>
  <fix>3d</fix>
</trkpt>
<trkpt lat="-27.274439" lon="151.290064">
  <ele>343.1</ele>
  <time>2026-09-01T20:03:15Z</time>
  <course>270.0</course>
  <speed>0.0</speed>
  <fix>3d</fix>
</trkpt>
<trkpt lat="-27.2744392" lon="151.2900641">
  <ele>343.2</ele>
  <time>2026-09-01T20:03:15Z</time>
  <course>11.48</course>
  <speed>0.022360679774997897</speed>
  <fix>3d</fix>
</trkpt>
<trkpt lat="-27.274439" lon="151.290064">
  <ele>343.1</ele>
  <time>2026-09-01T20:03:15Z</time>
  <course>270.0</course>
  <speed>0.0</speed>
  <fix>3d</fix>
</trkpt>
<trkpt lat="-27.2744392" lon="151.2900641">
  <ele>343.2</ele>
  <time>2026-09-01T20:03:15Z</time>
  <course>11.48</course>
  <speed>0.022360679774997897</speed>
  <fix>3d</fix>
</trkpt>
<trkpt lat="-27.274439" lon="151.290064">
  <ele>343.1</ele>
  <time>2026-09-01T20:03:15Z</time>
  <course>270.0</course>
  <speed>0.0</speed>
  <fix>3d</fix>
</trkpt>
<trkpt lat="-27.2744392" lon="151.2900641">
  <ele>343.21</ele>
  <time>2026-09-01T20:03:15Z</time>
  <course>11.48</course>
  <speed>0.022360679774997897</speed>
  <fix>3d</fix>
</trkpt>
<trkpt lat="-27.274439" lon="151.290064">
  <ele>343.1</ele>
  <time>2026-09-01T20:03:15Z</time>
  <course>270.0</course>
  <speed>0.0</speed>
  <fix>3d</fix>
</trkpt>
<trkpt lat="-27.2744392" lon="151.2900641">
  <ele>343.21</ele>
  <time>2026-09-01T20:03:15Z</time>
  <course>11.48</course>
  <speed>0.022360679774997897</speed>
  <fix>3d</fix>
</trkpt>
<trkpt lat="-27.274439" lon="151.290064">
  <ele>343.1</ele>
  <time>2026-09-01T20:03:15Z</time>
  <course>270.0</course>
  <speed>0.0</speed>
  <fix>3d</fix>
</trkpt>
<trkpt lat="-27.2744392" lon="151.2900641">
  <ele>343.21</ele>
  <time>2026-09-01T20:03:15Z</time>
  <course>11.48</course>
  <speed>0.022360679774997897</speed>
  <fix>3d</fix>
</trkpt>
<trkpt lat="-27.274439" lon="151.290064">
  <ele>343.1</ele>
  <time>2026-09-01T20:03:15Z</time>
  <course>270.0</course>
  <speed>0.0</speed>
  <fix>3d</fix>
</trkpt>
<trkpt lat="-27.2744392" lon="151.2900641">
  <ele>343.21</ele>
  <time>2026-09-01T20:03:15Z</time>
  <course>11.48</course>
  <speed>0.022360679774997897</speed>
  <fix>3d</fix>
</trkpt>
<trkpt lat="-27.274439" lon="151.290064">
  <ele>343.1</ele>
  <time>2026-09-01T20:03:15Z</time>
  <course>270.0</course>
  <speed>0.0</speed>
  <fix>3d</fix>
</trkpt>
<trkpt lat="-27.2744392" lon="151.2900641">
  <ele>343.21</ele>
  <time>2026-09-01T20:03:15Z</time>
  <course>11.48</course>
  <speed>0.022360679774997897</speed>
  <fix>3d</fix>
</trkpt>
<trkpt lat="-27.274439" lon="151.290064">
  <ele>343.1</ele>
  <time>2026-09-01T20:03:15Z</time>
  <course>270.0</course>
  <speed>0.0</speed>
  <fix>3d</fix>
</trkpt>
<trkpt lat="-27.2744392" lon="151.2900641">
  <ele>343.21</ele>
  <time>2026-09-01T20:03:15Z</time>
  <course>11.48</course>
  <speed>0.022360679774997897</speed>
  <fix>3d</fix>
</trkpt>
<trkpt lat="-27.274439" lon="151.290064">
  <ele>343.1</ele>
  <time>2026-09-01T20:03:15Z</time>
  <course>270.0</course>
  <speed>0.0</speed>
  <fix>3d</fix>
</trkpt>
<trkpt lat="-27.2744392" lon="151.2900641">
  <ele>343.22</ele>
  <time>2026-09-01T20:03:15Z</time>
  <course>11.48</course>
  <speed>0.022360679774997897</speed>
  <fix>3d</fix>
</trkpt>
<trkpt lat="-27.274439" lon="151.290064">
  <ele>343.1</ele>
  <time>2026-09-01T20:03:15Z</time>
  <course>270.0</course>
  <speed>0.0</speed>
  <fix>3d</fix>
</trkpt>
<trkpt lat="-27.2744392" lon="151.2900641">
  <ele>343.22</ele>
  <time>2026-09-01T20:03:15Z</time>
  <course>11.49</course>
  <speed>0.022360679774997897</speed>
  <fix>3d</fix>
</trkpt>
<trkpt lat="-27.274439" lon="151.290064">
  <ele>343.1</ele>
  <time>2026-09-01T20:03:15Z</time>
  <course>270.0</course>
  <speed>0.0</speed>
  <fix>3d</fix>
</trkpt>
<trkpt lat="-27.2744392" lon="151.2900641">
  <ele>343.23</ele>
  <time>2026-09-01T20:03:15Z</time>
  <course>11.49</course>
  <speed>0.022360679774997897</speed>
  <fix>3d</fix>
</trkpt>
<trkpt lat="-27.274439" lon="151.290064">
  <ele>343.1</ele>
  <time>2026-09-01T20:03:15Z</time>
  <course>270.0</course>
  <speed>0.0</speed>
  <fix>3d</fix>
</trkpt>
<trkpt lat="-27.2744392" lon="151.2900641">
  <ele>343.23</ele>
  <time>2026-09-01T20:03:15Z</time>
  <course>11.49</course>
  <speed>0.022360679774997897</speed>
  <fix>3d</fix>
</trkpt>
<trkpt lat="-27.274439" lon="151.290064">
  <ele>343.1</ele>
  <time>2026-09-01T20:03:15Z</time>
  <course>270.0</course>
  <speed>0.0</speed>
  <fix>3d</fix>
</trkpt>
<trkpt lat="-27.2744392" lon="151.2900641">
  <ele>343.23</ele>
  <time>2026-09-01T20:03:15Z</time>
  <course>11.49</course>
  <speed>0.022360679774997897</speed>
  <fix>3d</fix>
</trkpt>
<trkpt lat="-27.274439" lon="151.290064">
  <ele>343.1</ele>
  <time>2026-09-01T20:03:15Z</time>
  <course>270.0</course>
  <speed>0.0</speed>
  <fix>3d</fix>
</trkpt>
<trkpt lat="-27.2744392" lon="151.2900641">
  <ele>343.23</ele>
  <time>2026-09-01T20:03:15Z</time>
  <course>11.49</course>
  <speed>0.022360679774997897</speed>
  <fix>3d</fix>
</trkpt>
<trkpt lat="-27.274439" lon="151.290064">
  <ele>343.1</ele>
  <time>2026-09-01T20:03:15Z</time>
  <course>270.0</course>
  <speed>0.0</speed>
  <fix>3d</fix>
</trkpt>
<trkpt lat="-27.2744392" lon="151.2900641">
  <ele>343.23</ele>
  <time>2026-09-01T20:03:15Z</time>
  <course>11.49</course>
  <speed>0.022360679774997897</speed>
  <fix>3d</fix>
</trkpt>
<trkpt lat="-27.274439" lon="151.290064">
  <ele>343.1</ele>
  <time>2026-09-01T20:03:15Z</time>
  <course>270.0</course>
  <speed>0.0</speed>
  <fix>3d</fix>
</trkpt>
<trkpt lat="-27.2744392" lon="151.2900641">
  <ele>343.24</ele>
  <time>2026-09-01T20:03:15Z</time>
  <course>11.49</course>
  <speed>0.022360679774997897</speed>
  <fix>3d</fix>
</trkpt>
<trkpt lat="-27.274439" lon="151.290064">
  <ele>343.1</ele>
  <time>2026-09-01T20:03:15Z</time>
  <course>270.0</course>
  <speed>0.0</speed>
  <fix>3d</fix>
</trkpt>
<trkpt lat="-27.2744392" lon="151.2900641">
  <ele>343.24</ele>
  <time>2026-09-01T20:03:15Z</time>
  <course>11.49</course>
  <speed>0.022360679774997897</speed>
  <fix>3d</fix>
</trkpt>
<trkpt lat="-27.274439" lon="151.290064">
  <ele>343.1</ele>
  <time>2026-09-01T20:03:15Z</time>
  <course>270.0</course>
  <speed>0.0</speed>
  <fix>3d</fix>
</trkpt>
<trkpt lat="-27.2744392" lon="151.2900641">
  <ele>343.1</ele>
  <time>2026-09-01T20:03:15Z</time>
  <course>11.49</course>
  <speed>0.022360679774997897</speed>
  <fix>3d</fix>
</trkpt>
<trkpt lat="-27.274439" lon="151.290064">
  <ele>343.1</ele>
  <time>2026-09-01T20:03:15Z</time>
  <course>270.0</course>
  <speed>0.0</speed>
  <fix>3d</fix>
</trkpt>
<trkpt lat="-27.2744392" lon="151.2900641">
  <ele>343.1</ele>
  <time>2026-09-01T20:03:15Z</time>
  <course>11.49</course>
  <speed>0.022360679774997897</speed>
  <fix>3d</fix>
</trkpt>
<trkpt lat="-27.274439" lon="151.290064">
  <ele>343.1</ele>
  <time>2026-09-01T20:03:15Z</time>
  <course>270.0</course>
  <speed>0.0</speed>
  <fix>3d</fix>
</trkpt>
<trkpt lat="-27.2744392" lon="151.2900641">
  <ele>343.1</ele>
  <time>2026-09-01T20:03:15Z</time>
  <course>11.49</course>
  <speed>0.022360679774997897</speed>
  <fix>3d</fix>
</trkpt>
<trkpt lat="-27.274439" lon="151.290064">
  <ele>343.1</ele>
  <time>2026-09-01T20:03:15Z</time>
  <course>270.0</course>
  <speed>0.0</speed>
  <fix>3d</fix>
</trkpt>
<trkpt lat="-27.2744392" lon="151.2900641">
  <ele>343.1</ele>
  <time>2026-09-01T20:03:15Z</time>
  <course>11.49</course>
  <speed>0.022360679774997897</speed>
  <fix>3d</fix>
</trkpt>
<trkpt lat="-27.274439" lon="151.290064">
  <ele>343.1</ele>
  <time>2026-09-01T20:03:15Z</time>
  <course>270.0</course>
  <speed>0.0</speed>
  <fix>3d</fix>
</trkpt>
<trkpt lat="-27.2744392" lon="151.2900641">
  <ele>343.11</ele>
  <time>2026-09-01T20:03:15Z</time>
  <course>11.5</course>
  <speed>0.022360679774997897</speed>
  <fix>3d</fix>
</trkpt>
<trkpt lat="-27.274439" lon="151.290064">
  <ele>343.1</ele>
  <time>2026-09-01T20:03:15Z</time>
  <course>270.0</course>
  <speed>0.0</speed>
  <fix>3d</fix>
</trkpt>
<trkpt lat="-27.2744392" lon="151.2900641">
  <ele>343.11</ele>
  <time>2026-09-01T20:03:15Z</time>
  <course>11.5</course>
  <speed>0.022360679774997897</speed>
  <fix>3d</fix>
</trkpt>
<trkpt lat="-27.274439" lon="151.290064">
  <ele>343.1</ele>
  <time>2026-09-01T20:03:15Z</time>
  <course>270.0</course>
  <speed>0.0</speed>
  <fix>3d</fix>
</trkpt>
<trkpt lat="-27.2744392" lon="151.2900641">
  <ele>343.12</ele>
  <time>2026-09-01T20:03:15Z</time>
  <course>11.5</course>
  <speed>0.022360679774997897</speed>
  <fix>3d</fix>
</trkpt>
<trkpt lat="-27.274439" lon="151.290064">
  <ele>343.1</ele>
  <time>2026-09-01T20:03:15Z</time>
  <course>270.0</course>
  <speed>0.0</speed>
  <fix>3d</fix>
</trkpt>
<trkpt lat="-27.2744392" lon="151.2900641">
  <ele>343.12</ele>
  <time>2026-09-01T20:03:15Z</time>
  <course>11.5</course>
  <speed>0.022360679774997897</speed>
  <fix>3d</fix>
</trkpt>
<trkpt lat="-27.274439" lon="151.290064">
  <ele>343.1</ele>
  <time>2026-09-01T20:03:15Z</time>
  <course>270.0</course>
  <speed>0.0</speed>
  <fix>3d</fix>
</trkpt>
<trkpt lat="-27.2744392" lon="151.2900641">
  <ele>343.13</ele>
  <time>2026-09-01T20:03:15Z</time>
  <course>11.5</course>
  <speed>0.022360679774997897</speed>
  <fix>3d</fix>
</trkpt>
<trkpt lat="-27.274439" lon="151.290064">
  <ele>343.1</ele>
  <time>2026-09-01T20:03:15Z</time>
  <course>270.0</course>
  <speed>0.0</speed>
  <fix>3d</fix>
</trkpt>
<trkpt lat="-27.2744392" lon="151.2900641">
  <ele>343.13</ele>
  <time>2026-09-01T20:03:15Z</time>
  <course>11.5</course>
  <speed>0.022360679774997897</speed>
  <fix>3d</fix>
</trkpt>
<trkpt lat="-27.274439" lon="151.290064">
  <ele>343.1</ele>
  <time>2026-09-01T20:03:15Z</time>
  <course>270.0</course>
  <speed>0.0</speed>
  <fix>3d</fix>
</trkpt>
<trkpt lat="-27.2744392" lon="151.2900641">
  <ele>343.14</ele>
  <time>2026-09-01T20:03:15Z</time>
  <course>11.5</course>
  <speed>0.022360679774997897</speed>
  <fix>3d</fix>
</trkpt>
<trkpt lat="-27.274439" lon="151.290064">
  <ele>343.1</ele>
  <time>2026-09-01T20:03:15Z</time>
  <course>270.0</course>
  <speed>0.0</speed>
  <fix>3d</fix>
</trkpt>
<trkpt lat="-27.2744392" lon="151.2900641">
  <ele>343.15</ele>
  <time>2026-09-01T20:03:15Z</time>
  <course>11.5</course>
  <speed>0.022360679774997897</speed>
  <fix>3d</fix>
</trkpt>
<trkpt lat="-27.274439" lon="151.290064">
  <ele>343.1</ele>
  <time>2026-09-01T20:03:15Z</time>
  <course>270.0</course>
  <speed>0.0</speed>
  <fix>3d</fix>
</trkpt>
<trkpt lat="-27.2744392" lon="151.2900641">
  <ele>343.16</ele>
  <time>2026-09-01T20:03:15Z</time>
  <course>11.5</course>
  <speed>0.022360679774997897</speed>
  <fix>3d</fix>
</trkpt>
<trkpt lat="-27.274439" lon="151.290064">
  <ele>343.1</ele>
  <time>2026-09-01T20:03:15Z</time>
  <course>270.0</course>
  <speed>0.0</speed>
  <fix>3d</fix>
</trkpt>
<trkpt lat="-27.2744392" lon="151.2900641">
  <ele>343.16</ele>
  <time>2026-09-01T20:03:15Z</time>
  <course>11.5</course>
  <speed>0.022360679774997897</speed>
  <fix>3d</fix>
</trkpt>
<trkpt lat="-27.274439" lon="151.290064">
  <ele>343.1</ele>
  <time>2026-09-01T20:03:15Z</time>
  <course>270.0</course>
  <speed>0.0</speed>
  <fix>3d</fix>
</trkpt>
<trkpt lat="-27.2744392" lon="151.2900641">
  <ele>343.17</ele>
  <time>2026-09-01T20:03:15Z</time>
  <course>11.5</course>
  <speed>0.022360679774997897</speed>
  <fix>3d</fix>
</trkpt>
<trkpt lat="-27.274439" lon="151.290064">
  <ele>343.1</ele>
  <time>2026-09-01T20:03:15Z</time>
  <course>270.0</course>
  <speed>0.0</speed>
  <fix>3d</fix>
</trkpt>
<trkpt lat="-27.2744392" lon="151.2900641">
  <ele>343.18</ele>
  <time>2026-09-01T20:03:15Z</time>
  <course>11.5</course>
  <speed>0.022360679774997897</speed>
  <fix>3d</fix>
</trkpt>
<trkpt lat="-27.274439" lon="151.290064">
  <ele>343.1</ele>
  <time>2026-09-01T20:03:15Z</time>
  <course>270.0</course>
  <speed>0.0</speed>
  <fix>3d</fix>
</trkpt>
<trkpt lat="-27.2744392" lon="151.2900641">
  <ele>343.18</ele>
  <time>2026-09-01T20:03:15Z</time>
  <course>11.51</course>
  <speed>0.022360679774997897</speed>
  <fix>3d</fix>
</trkpt>
<trkpt lat="-27.274439" lon="151.290064">
  <ele>343.1</ele>
  <time>2026-09-01T20:03:15Z</time>
  <course>270.0</course>
  <speed>0.0</speed>
  <fix>3d</fix>
</trkpt>
<trkpt lat="-27.2744392" lon="151.2900641">
  <ele>343.19</ele>
  <time>2026-09-01T20:03:15Z</time>
  <course>11.51</course>
  <speed>0.022360679774997897</speed>
  <fix>3d</fix>
</trkpt>
<trkpt lat="-27.274439" lon="151.290064">
  <ele>343.1</ele>
  <time>2026-09-01T20:03:15Z</time>
  <course>270.0</course>
  <speed>0.0</speed>
  <fix>3d</fix>
</trkpt>
<trkpt lat="-27.2744392" lon="151.2900641">
  <ele>343.2</ele>
  <time>2026-09-01T20:03:15Z</time>
  <course>11.51</course>
  <speed>0.022360679774997897</speed>
  <fix>3d</fix>
</trkpt>
<trkpt lat="-27.274439" lon="151.290064">
  <ele>343.1</ele>
  <time>2026-09-01T20:03:15Z</time>
  <course>270.0</course>
  <speed>0.0</speed>
  <fix>3d</fix>
</trkpt>
<trkpt lat="-27.2744392" lon="151.2900641">
  <ele>343.2</ele>
  <time>2026-09-01T20:03:15Z</time>
  <course>11.51</course>
  <speed>0.022360679774997897</speed>
  <fix>3d</fix>
</trkpt>
<trkpt lat="-27.274439" lon="151.290064">
  <ele>343.1</ele>
  <time>2026-09-01T20:03:15Z</time>
  <course>270.0</course>
  <speed>0.0</speed>
  <fix>3d</fix>
</trkpt>
<trkpt lat="-27.2744392" lon="151.2900641">
  <ele>343.21</ele>
  <time>2026-09-01T20:03:15Z</time>
  <course>11.51</course>
  <speed>0.022360679774997897</speed>
  <fix>3d</fix>
</trkpt>
<trkpt lat="-27.274439" lon="151.290064">
  <ele>343.1</ele>
  <time>2026-09-01T20:03:15Z</time>
  <course>270.0</course>
  <speed>0.0</speed>
  <fix>3d</fix>
</trkpt>
<trkpt lat="-27.2744392" lon="151.2900641">
  <ele>343.21</ele>
  <time>2026-09-01T20:03:15Z</time>
  <course>11.51</course>
  <speed>0.022360679774997897</speed>
  <fix>3d</fix>
</trkpt>
<trkpt lat="-27.274439" lon="151.290064">
  <ele>343.1</ele>
  <time>2026-09-01T20:03:15Z</time>
  <course>270.0</course>
  <speed>0.0</speed>
  <fix>3d</fix>
</trkpt>
<trkpt lat="-27.2744392" lon="151.2900641">
  <ele>343.22</ele>
  <time>2026-09-01T20:03:15Z</time>
  <course>11.51</course>
  <speed>0.022360679774997897</speed>
  <fix>3d</fix>
</trkpt>
<trkpt lat="-27.274439" lon="151.290064">
  <ele>343.1</ele>
  <time>2026-09-01T20:03:15Z</time>
  <course>270.0</course>
  <speed>0.0</speed>
  <fix>3d</fix>
</trkpt>
<trkpt lat="-27.2744392" lon="151.2900641">
  <ele>343.22</ele>
  <time>2026-09-01T20:03:15Z</time>
  <course>11.51</course>
  <speed>0.022360679774997897</speed>
  <fix>3d</fix>
</trkpt>
<trkpt lat="-27.274439" lon="151.290064">
  <ele>343.1</ele>
  <time>2026-09-01T20:03:15Z</time>
  <course>270.0</course>
  <speed>0.0</speed>
  <fix>3d</fix>
</trkpt>
<trkpt lat="-27.2744392" lon="151.2900641">
  <ele>343.23</ele>
  <time>2026-09-01T20:03:15Z</time>
  <course>11.51</course>
  <speed>0.022360679774997897</speed>
  <fix>3d</fix>
</trkpt>
<trkpt lat="-27.274439" lon="151.290064">
  <ele>343.1</ele>
  <time>2026-09-01T20:03:15Z</time>
  <course>270.0</course>
  <speed>0.0</speed>
  <fix>3d</fix>
</trkpt>
<trkpt lat="-27.2744392" lon="151.2900641">
  <ele>343.23</ele>
  <time>2026-09-01T20:03:15Z</time>
  <course>11.51</course>
  <speed>0.022360679774997897</speed>
  <fix>3d</fix>
</trkpt>
<trkpt lat="-27.274439" lon="151.290064">
  <ele>343.1</ele>
  <time>2026-09-01T20:03:15Z</time>
  <course>270.0</course>
  <speed>0.0</speed>
  <fix>3d</fix>
</trkpt>
<trkpt lat="-27.2744392" lon="151.2900641">
  <ele>343.24</ele>
  <time>2026-09-01T20:03:15Z</time>
  <course>11.51</course>
  <speed>0.022360679774997897</speed>
  <fix>3d</fix>
</trkpt>
<trkpt lat="-27.274439" lon="151.290064">
  <ele>343.1</ele>
  <time>2026-09-01T20:03:15Z</time>
  <course>270.0</course>
  <speed>0.0</speed>
  <fix>3d</fix>
</trkpt>
<trkpt lat="-27.2744392" lon="151.2900641">
  <ele>343.25</ele>
  <time>2026-09-01T20:03:15Z</time>
  <course>11.51</course>
  <speed>0.022360679774997897</speed>
  <fix>3d</fix>
</trkpt>
<trkpt lat="-27.274439" lon="151.290064">
  <ele>343.1</ele>
  <time>2026-09-01T20:03:15Z</time>
  <course>270.0</course>
  <speed>0.0</speed>
  <fix>3d</fix>
</trkpt>
<trkpt lat="-27.2744392" lon="151.2900641">
  <ele>343.25</ele>
  <time>2026-09-01T20:03:15Z</time>
  <course>11.52</course>
  <speed>0.022360679774997897</speed>
  <fix>3d</fix>
</trkpt>
<trkpt lat="-27.274439" lon="151.290064">
  <ele>343.1</ele>
  <time>2026-09-01T20:03:15Z</time>
  <course>270.0</course>
  <speed>0.0</speed>
  <fix>3d</fix>
</trkpt>
<trkpt lat="-27.2744392" lon="151.2900641">
  <ele>343.26</ele>
  <time>2026-09-01T20:03:15Z</time>
  <course>11.52</course>
  <speed>0.022360679774997897</speed>
  <fix>3d</fix>
</trkpt>
<trkpt lat="-27.274439" lon="151.290064">
  <ele>343.1</ele>
  <time>2026-09-01T20:03:15Z</time>
  <course>270.0</course>
  <speed>0.0</speed>
  <fix>3d</fix>
</trkpt>
<trkpt lat="-27.2744392" lon="151.2900641">
  <ele>343.26</ele>
  <time>2026-09-01T20:03:15Z</time>
  <course>11.52</course>
  <speed>0.022360679774997897</speed>
  <fix>3d</fix>
</trkpt>
<trkpt lat="-27.274439" lon="151.290064">
  <ele>343.1</ele>
  <time>2026-09-01T20:03:15Z</time>
  <course>270.0</course>
  <speed>0.0</speed>
  <fix>3d</fix>
</trkpt>
<trkpt lat="-27.2744392" lon="151.2900641">
  <ele>343.26</ele>
  <time>2026-09-01T20:03:15Z</time>
  <course>11.52</course>
  <speed>0.022360679774997897</speed>
  <fix>3d</fix>
</trkpt>
<trkpt lat="-27.274439" lon="151.290064">
  <ele>343.1</ele>
  <time>2026-09-01T20:03:15Z</time>
  <course>270.0</course>
  <speed>0.0</speed>
  <fix>3d</fix>
</trkpt>
<trkpt lat="-27.2744392" lon="151.2900641">
  <ele>343.26</ele>
  <time>2026-09-01T20:03:15Z</time>
  <course>11.52</course>
  <speed>0.022360679774997897</speed>
  <fix>3d</fix>
</trkpt>
<trkpt lat="-27.274439" lon="151.290064">
  <ele>343.1</ele>
  <time>2026-09-01T20:03:15Z</time>
  <course>270.0</course>
  <speed>0.0</speed>
  <fix>3d</fix>
</trkpt>
<trkpt lat="-27.2744392" lon="151.2900641">
  <ele>343.27</ele>
  <time>2026-09-01T20:03:15Z</time>
  <course>11.52</course>
  <speed>0.022360679774997897</speed>
  <fix>3d</fix>
</trkpt>
<trkpt lat="-27.274439" lon="151.290064">
  <ele>343.1</ele>
  <time>2026-09-01T20:03:15Z</time>
  <course>270.0</course>
  <speed>0.0</speed>
  <fix>3d</fix>
</trkpt>
<trkpt lat="-27.2744392" lon="151.2900641">
  <ele>343.27</ele>
  <time>2026-09-01T20:03:15Z</time>
  <course>11.52</course>
  <speed>0.022360679774997897</speed>
  <fix>3d</fix>
</trkpt>
<trkpt lat="-27.274439" lon="151.290064">
  <ele>343.1</ele>
  <time>2026-09-01T20:03:15Z</time>
  <course>270.0</course>
  <speed>0.0</speed>
  <fix>3d</fix>
</trkpt>
<trkpt lat="-27.2744392" lon="151.2900641">
  <ele>343.27</ele>
  <time>2026-09-01T20:03:15Z</time>
  <course>11.52</course>
  <speed>0.022360679774997897</speed>
  <fix>3d</fix>
</trkpt>
<trkpt lat="-27.274439" lon="151.290064">
  <ele>343.1</ele>
  <time>2026-09-01T20:03:15Z</time>
  <course>270.0</course>
  <speed>0.0</speed>
  <fix>3d</fix>
</trkpt>
<trkpt lat="-27.2744392" lon="151.2900641">
  <ele>343.27</ele>
  <time>2026-09-01T20:03:15Z</time>
  <course>11.52</course>
  <speed>0.022360679774997897</speed>
  <fix>3d</fix>
</trkpt>
<trkpt lat="-27.274439" lon="151.290064">
  <ele>343.1</ele>
  <time>2026-09-01T20:03:15Z</time>
  <course>270.0</course>
  <speed>0.0</speed>
  <fix>3d</fix>
</trkpt>
<trkpt lat="-27.2744392" lon="151.2900641">
  <ele>343.27</ele>
  <time>2026-09-01T20:03:15Z</time>
  <course>11.52</course>
  <speed>0.022360679774997897</speed>
  <fix>3d</fix>
</trkpt>
<trkpt lat="-27.274439" lon="151.290064">
  <ele>343.1</ele>
  <time>2026-09-01T20:03:15Z</time>
  <course>270.0</course>
  <speed>0.0</speed>
  <fix>3d</fix>
</trkpt>
<trkpt lat="-27.2744392" lon="151.2900641">
  <ele>343.27</ele>
  <time>2026-09-01T20:03:15Z</time>
  <course>11.52</course>
  <speed>0.022360679774997897</speed>
  <fix>3d</fix>
</trkpt>
<trkpt lat="-27.274439" lon="151.290064">
  <ele>343.1</ele>
  <time>2026-09-01T20:03:15Z</time>
  <course>270.0</course>
  <speed>0.0</speed>
  <fix>3d</fix>
</trkpt>
<trkpt lat="-27.2744392" lon="151.2900641">
  <ele>343.27</ele>
  <time>2026-09-01T20:03:15Z</time>
  <course>11.52</course>
  <speed>0.022360679774997897</speed>
  <fix>3d</fix>
</trkpt>
<trkpt lat="-27.274439" lon="151.290064">
  <ele>343.1</ele>
  <time>2026-09-01T20:03:15Z</time>
  <course>270.0</course>
  <speed>0.0</speed>
  <fix>3d</fix>
</trkpt>
<trkpt lat="-27.2744392" lon="151.2900641">
  <ele>343.27</ele>
  <time>2026-09-01T20:03:15Z</time>
  <course>11.53</course>
  <speed>0.022360679774997897</speed>
  <fix>3d</fix>
</trkpt>
<trkpt lat="-27.274439" lon="151.290064">
  <ele>343.1</ele>
  <time>2026-09-01T20:03:15Z</time>
  <course>270.0</course>
  <speed>0.0</speed>
  <fix>3d</fix>
</trkpt>
<trkpt lat="-27.2744392" lon="151.2900641">
  <ele>343.28</ele>
  <time>2026-09-01T20:03:15Z</time>
  <course>11.53</course>
  <speed>0.022360679774997897</speed>
  <fix>3d</fix>
</trkpt>
<trkpt lat="-27.274439" lon="151.290064">
  <ele>343.1</ele>
  <time>2026-09-01T20:03:15Z</time>
  <course>270.0</course>
  <speed>0.0</speed>
  <fix>3d</fix>
</trkpt>
<trkpt lat="-27.2744392" lon="151.2900641">
  <ele>343.28</ele>
  <time>2026-09-01T20:03:15Z</time>
  <course>11.53</course>
  <speed>0.022360679774997897</speed>
  <fix>3d</fix>
</trkpt>
<trkpt lat="-27.274439" lon="151.290064">
  <ele>343.1</ele>
  <time>2026-09-01T20:03:15Z</time>
  <course>270.0</course>
  <speed>0.0</speed>
  <fix>3d</fix>
</trkpt>
<trkpt lat="-27.2744392" lon="151.2900641">
  <ele>343.28</ele>
  <time>2026-09-01T20:03:15Z</time>
  <course>11.53</course>
  <speed>0.022360679774997897</speed>
  <fix>3d</fix>
</trkpt>
<trkpt lat="-27.274439" lon="151.290064">
  <ele>343.1</ele>
  <time>2026-09-01T20:03:15Z</time>
  <course>270.0</course>
  <speed>0.0</speed>
  <fix>3d</fix>
</trkpt>
<trkpt lat="-27.2744392" lon="151.2900641">
  <ele>343.29</ele>
  <time>2026-09-01T20:03:15Z</time>
  <course>11.53</course>
  <speed>0.022360679774997897</speed>
  <fix>3d</fix>
</trkpt>
<trkpt lat="-27.274439" lon="151.290064">
  <ele>343.1</ele>
  <time>2026-09-01T20:03:15Z</time>
  <course>270.0</course>
  <speed>0.0</speed>
  <fix>3d</fix>
</trkpt>
<trkpt lat="-27.2744392" lon="151.2900641">
  <ele>343.29</ele>
  <time>2026-09-01T20:03:15Z</time>
  <course>11.53</course>
  <speed>0.022360679774997897</speed>
  <fix>3d</fix>
</trkpt>
<trkpt lat="-27.274439" lon="151.290064">
  <ele>343.1</ele>
  <time>2026-09-01T20:03:15Z</time>
  <course>270.0</course>
  <speed>0.0</speed>
  <fix>3d</fix>
</trkpt>
<trkpt lat="-27.2744392" lon="151.2900641">
  <ele>343.29</ele>
  <time>2026-09-01T20:03:15Z</time>
  <course>11.53</course>
  <speed>0.022360679774997897</speed>
  <fix>3d</fix>
</trkpt>
<trkpt lat="-27.274439" lon="151.290064">
  <ele>343.1</ele>
  <time>2026-09-01T20:03:15Z</time>
  <course>270.0</course>
  <speed>0.0</speed>
  <fix>3d</fix>
</trkpt>
<trkpt lat="-27.2744392" lon="151.2900641">
  <ele>343.29</ele>
  <time>2026-09-01T20:03:15Z</time>
  <course>11.53</course>
  <speed>0.022360679774997897</speed>
  <fix>3d</fix>
</trkpt>
<trkpt lat="-27.274439" lon="151.290064">
  <ele>343.1</ele>
  <time>2026-09-01T20:03:15Z</time>
  <course>270.0</course>
  <speed>0.0</speed>
  <fix>3d</fix>
</trkpt>
<trkpt lat="-27.2744392" lon="151.2900641">
  <ele>343.3</ele>
  <time>2026-09-01T20:03:15Z</time>
  <course>11.53</course>
  <speed>0.022360679774997897</speed>
  <fix>3d</fix>
</trkpt>
<trkpt lat="-27.274439" lon="151.290064">
  <ele>343.1</ele>
  <time>2026-09-01T20:03:15Z</time>
  <course>270.0</course>
  <speed>0.0</speed>
  <fix>3d</fix>
</trkpt>
<trkpt lat="-27.2744392" lon="151.2900641">
  <ele>343.3</ele>
  <time>2026-09-01T20:03:15Z</time>
  <course>11.53</course>
  <speed>0.022360679774997897</speed>
  <fix>3d</fix>
</trkpt>
<trkpt lat="-27.274439" lon="151.290064">
  <ele>343.1</ele>
  <time>2026-09-01T20:03:15Z</time>
  <course>270.0</course>
  <speed>0.0</speed>
  <fix>3d</fix>
</trkpt>
<trkpt lat="-27.2744392" lon="151.2900641">
  <ele>343.3</ele>
  <time>2026-09-01T20:03:15Z</time>
  <course>11.53</course>
  <speed>0.022360679774997897</speed>
  <fix>3d</fix>
</trkpt>
<trkpt lat="-27.274439" lon="151.290064">
  <ele>343.1</ele>
  <time>2026-09-01T20:03:15Z</time>
  <course>270.0</course>
  <speed>0.0</speed>
  <fix>3d</fix>
</trkpt>
<trkpt lat="-27.2744392" lon="151.2900641">
  <ele>343.3</ele>
  <time>2026-09-01T20:03:15Z</time>
  <course>11.53</course>
  <speed>0.022360679774997897</speed>
  <fix>3d</fix>
</trkpt>
<trkpt lat="-27.274439" lon="151.290064">
  <ele>343.1</ele>
  <time>2026-09-01T20:03:15Z</time>
  <course>270.0</course>
  <speed>0.0</speed>
  <fix>3d</fix>
</trkpt>
<trkpt lat="-27.2744392" lon="151.2900641">
  <ele>343.3</ele>
  <time>2026-09-01T20:03:15Z</time>
  <course>11.53</course>
  <speed>0.022360679774997897</speed>
  <fix>3d</fix>
</trkpt>
<trkpt lat="-27.274439" lon="151.290064">
  <ele>343.1</ele>
  <time>2026-09-01T20:03:15Z</time>
  <course>270.0</course>
  <speed>0.0</speed>
  <fix>3d</fix>
</trkpt>
<trkpt lat="-27.2744392" lon="151.2900641">
  <ele>343.31</ele>
  <time>2026-09-01T20:03:15Z</time>
  <course>11.54</course>
  <speed>0.022360679774997897</speed>
  <fix>3d</fix>
</trkpt>
<trkpt lat="-27.274439" lon="151.290064">
  <ele>343.1</ele>
  <time>2026-09-01T20:03:15Z</time>
  <course>270.0</course>
  <speed>0.0</speed>
  <fix>3d</fix>
</trkpt>
<trkpt lat="-27.2744392" lon="151.2900641">
  <ele>343.31</ele>
  <time>2026-09-01T20:03:15Z</time>
  <course>11.54</course>
  <speed>0.022360679774997897</speed>
  <fix>3d</fix>
</trkpt>
<trkpt lat="-27.274439" lon="151.290064">
  <ele>343.1</ele>
  <time>2026-09-01T20:03:15Z</time>
  <course>270.0</course>
  <speed>0.0</speed>
  <fix>3d</fix>
</trkpt>
<trkpt lat="-27.2744392" lon="151.2900641">
  <ele>343.31</ele>
  <time>2026-09-01T20:03:15Z</time>
  <course>11.54</course>
  <speed>0.022360679774997897</speed>
  <fix>3d</fix>
</trkpt>
<trkpt lat="-27.274439" lon="151.290064">
  <ele>343.1</ele>
  <time>2026-09-01T20:03:15Z</time>
  <course>270.0</course>
  <speed>0.0</speed>
  <fix>3d</fix>
</trkpt>
<trkpt lat="-27.2744392" lon="151.2900641">
  <ele>343.31</ele>
  <time>2026-09-01T20:03:15Z</time>
  <course>11.54</course>
  <speed>0.022360679774997897</speed>
  <fix>3d</fix>
</trkpt>
<trkpt lat="-27.274439" lon="151.290064">
  <ele>343.1</ele>
  <time>2026-09-01T20:03:15Z</time>
  <course>270.0</course>
  <speed>0.0</speed>
  <fix>3d</fix>
</trkpt>
<trkpt lat="-27.2744392" lon="151.2900641">
  <ele>343.31</ele>
  <time>2026-09-01T20:03:15Z</time>
  <course>11.54</course>
  <speed>0.022360679774997897</speed>
  <fix>3d</fix>
</trkpt>
<trkpt lat="-27.274439" lon="151.290064">
  <ele>343.1</ele>
  <time>2026-09-01T20:03:15Z</time>
  <course>270.0</course>
  <speed>0.0</speed>
  <fix>3d</fix>
</trkpt>
<trkpt lat="-27.2744392" lon="151.2900641">
  <ele>343.31</ele>
  <time>2026-09-01T20:03:15Z</time>
  <course>11.54</course>
  <speed>0.022360679774997897</speed>
  <fix>3d</fix>
</trkpt>
<trkpt lat="-27.274439" lon="151.290064">
  <ele>343.1</ele>
  <time>2026-09-01T20:03:15Z</time>
  <course>270.0</course>
  <speed>0.0</speed>
  <fix>3d</fix>
</trkpt>
<trkpt lat="-27.2744392" lon="151.2900641">
  <ele>343.31</ele>
  <time>2026-09-01T20:03:15Z</time>
  <course>11.54</course>
  <speed>0.022360679774997897</speed>
  <fix>3d</fix>
</trkpt>
<trkpt lat="-27.274439" lon="151.290064">
  <ele>343.1</ele>
  <time>2026-09-01T20:03:15Z</time>
  <course>270.0</course>
  <speed>0.0</speed>
  <fix>3d</fix>
</trkpt>
<trkpt lat="-27.2744392" lon="151.2900641">
  <ele>343.1</ele>
  <time>2026-09-01T20:03:15Z</time>
  <course>11.54</course>
  <speed>0.022360679774997897</speed>
  <fix>3d</fix>
</trkpt>
<trkpt lat="-27.274439" lon="151.290064">
  <ele>343.1</ele>
  <time>2026-09-01T20:03:15Z</time>
  <course>270.0</course>
  <speed>0.0</speed>
  <fix>3d</fix>
</trkpt>
<trkpt lat="-27.2744392" lon="151.2900641">
  <ele>343.1</ele>
  <time>2026-09-01T20:03:15Z</time>
  <course>11.54</course>
  <speed>0.022360679774997897</speed>
  <fix>3d</fix>
</trkpt>
<trkpt lat="-27.274439" lon="151.290064">
  <ele>343.1</ele>
  <time>2026-09-01T20:03:15Z</time>
  <course>270.0</course>
  <speed>0.0</speed>
  <fix>3d</fix>
</trkpt>
<trkpt lat="-27.2744392" lon="151.2900641">
  <ele>343.1</ele>
  <time>2026-09-01T20:03:15Z</time>
  <course>11.54</course>
  <speed>0.022360679774997897</speed>
  <fix>3d</fix>
</trkpt>
<trkpt lat="-27.274439" lon="151.290064">
  <ele>343.1</ele>
  <time>2026-09-01T20:03:15Z</time>
  <course>270.0</course>
  <speed>0.0</speed>
  <fix>3d</fix>
</trkpt>
<trkpt lat="-27.2744392" lon="151.2900641">
  <ele>343.1</ele>
  <time>2026-09-01T20:03:15Z</time>
  <course>11.54</course>
  <speed>0.022360679774997897</speed>
  <fix>3d</fix>
</trkpt>
<trkpt lat="-27.274439" lon="151.290064">
  <ele>343.1</ele>
  <time>2026-09-01T20:03:15Z</time>
  <course>270.0</course>
  <speed>0.0</speed>
  <fix>3d</fix>
</trkpt>
<trkpt lat="-27.2744392" lon="151.2900641">
  <ele>343.1</ele>
  <time>2026-09-01T20:03:15Z</time>
  <course>11.54</course>
  <speed>0.022360679774997897</speed>
  <fix>3d</fix>
</trkpt>
<trkpt lat="-27.274439" lon="151.290064">
  <ele>343.1</ele>
  <time>2026-09-01T20:03:15Z</time>
  <course>270.0</course>
  <speed>0.0</speed>
  <fix>3d</fix>
</trkpt>
<trkpt lat="-27.2744392" lon="151.2900641">
  <ele>343.11</ele>
  <time>2026-09-01T20:03:15Z</time>
  <course>11.54</course>
  <speed>0.022360679774997897</speed>
  <fix>3d</fix>
</trkpt>
<trkpt lat="-27.274439" lon="151.290064">
  <ele>343.1</ele>
  <time>2026-09-01T20:03:15Z</time>
  <course>270.0</course>
  <speed>0.0</speed>
  <fix>3d</fix>
</trkpt>
<trkpt lat="-27.2744392" lon="151.2900641">
  <ele>343.11</ele>
  <time>2026-09-01T20:03:15Z</time>
  <course>11.55</course>
  <speed>0.022360679774997897</speed>
  <fix>3d</fix>
</trkpt>
<trkpt lat="-27.274439" lon="151.290064">
  <ele>343.1</ele>
  <time>2026-09-01T20:03:15Z</time>
  <course>270.0</course>
  <speed>0.0</speed>
  <fix>3d</fix>
</trkpt>
<trkpt lat="-27.2744392" lon="151.2900641">
  <ele>343.12</ele>
  <time>2026-09-01T20:03:15Z</time>
  <course>11.55</course>
  <speed>0.022360679774997897</speed>
  <fix>3d</fix>
</trkpt>
<trkpt lat="-27.274439" lon="151.290064">
  <ele>343.1</ele>
  <time>2026-09-01T20:03:15Z</time>
  <course>270.0</course>
  <speed>0.0</speed>
  <fix>3d</fix>
</trkpt>
<trkpt lat="-27.2744392" lon="151.2900641">
  <ele>343.12</ele>
  <time>2026-09-01T20:03:15Z</time>
  <course>11.55</course>
  <speed>0.022360679774997897</speed>
  <fix>3d</fix>
</trkpt>
<trkpt lat="-27.274439" lon="151.290064">
  <ele>343.1</ele>
  <time>2026-09-01T20:03:15Z</time>
  <course>270.0</course>
  <speed>0.0</speed>
  <fix>3d</fix>
</trkpt>
<trkpt lat="-27.2744392" lon="151.2900641">
  <ele>343.13</ele>
  <time>2026-09-01T20:03:15Z</time>
  <course>11.55</course>
  <speed>0.022360679774997897</speed>
  <fix>3d</fix>
</trkpt>
<trkpt lat="-27.274439" lon="151.290064">
  <ele>343.1</ele>
  <time>2026-09-01T20:03:15Z</time>
  <course>270.0</course>
  <speed>0.0</speed>
  <fix>3d</fix>
</trkpt>
<trkpt lat="-27.2744392" lon="151.2900641">
  <ele>343.13</ele>
  <time>2026-09-01T20:03:15Z</time>
  <course>11.55</course>
  <speed>0.022360679774997897</speed>
  <fix>3d</fix>
</trkpt>
<trkpt lat="-27.274439" lon="151.290064">
  <ele>343.1</ele>
  <time>2026-09-01T20:03:15Z</time>
  <course>270.0</course>
  <speed>0.0</speed>
  <fix>3d</fix>
</trkpt>
<trkpt lat="-27.2744392" lon="151.2900641">
  <ele>343.13</ele>
  <time>2026-09-01T20:03:15Z</time>
  <course>11.55</course>
  <speed>0.022360679774997897</speed>
  <fix>3d</fix>
</trkpt>
<trkpt lat="-27.274439" lon="151.290064">
  <ele>343.1</ele>
  <time>2026-09-01T20:03:15Z</time>
  <course>270.0</course>
  <speed>0.0</speed>
  <fix>3d</fix>
</trkpt>
<trkpt lat="-27.2744392" lon="151.2900641">
  <ele>343.14</ele>
  <time>2026-09-01T20:03:15Z</time>
  <course>11.55</course>
  <speed>0.022360679774997897</speed>
  <fix>3d</fix>
</trkpt>
<trkpt lat="-27.274439" lon="151.290064">
  <ele>343.1</ele>
  <time>2026-09-01T20:03:15Z</time>
  <course>270.0</course>
  <speed>0.0</speed>
  <fix>3d</fix>
</trkpt>
<trkpt lat="-27.2744392" lon="151.2900641">
  <ele>343.14</ele>
  <time>2026-09-01T20:03:15Z</time>
  <course>11.55</course>
  <speed>0.022360679774997897</speed>
  <fix>3d</fix>
</trkpt>
<trkpt lat="-27.274439" lon="151.290064">
  <ele>343.1</ele>
  <time>2026-09-01T20:03:15Z</time>
  <course>270.0</course>
  <speed>0.0</speed>
  <fix>3d</fix>
</trkpt>
<trkpt lat="-27.2744392" lon="151.2900641">
  <ele>343.14</ele>
  <time>2026-09-01T20:03:15Z</time>
  <course>11.55</course>
  <speed>0.022360679774997897</speed>
  <fix>3d</fix>
</trkpt>
<trkpt lat="-27.274439" lon="151.290064">
  <ele>343.1</ele>
  <time>2026-09-01T20:03:15Z</time>
  <course>270.0</course>
  <speed>0.0</speed>
  <fix>3d</fix>
</trkpt>
<trkpt lat="-27.2744392" lon="151.2900641">
  <ele>343.15</ele>
  <time>2026-09-01T20:03:15Z</time>
  <course>11.55</course>
  <speed>0.022360679774997897</speed>
  <fix>3d</fix>
</trkpt>
<trkpt lat="-27.274439" lon="151.290064">
  <ele>343.1</ele>
  <time>2026-09-01T20:03:15Z</time>
  <course>270.0</course>
  <speed>0.0</speed>
  <fix>3d</fix>
</trkpt>
<trkpt lat="-27.2744392" lon="151.2900641">
  <ele>343.15</ele>
  <time>2026-09-01T20:03:15Z</time>
  <course>11.55</course>
  <speed>0.022360679774997897</speed>
  <fix>3d</fix>
</trkpt>
<trkpt lat="-27.274439" lon="151.290064">
  <ele>343.1</ele>
  <time>2026-09-01T20:03:15Z</time>
  <course>270.0</course>
  <speed>0.0</speed>
  <fix>3d</fix>
</trkpt>
<trkpt lat="-26.9720619" lon="149.6127921">
  <ele>339.29</ele>
  <time>2026-09-01T20:03:16Z</time>
  <course>310.27</course>
  <speed>0.0</speed>
  <fix>3d</fix>
</trkpt>
<trkpt lat="-26.9720619" lon="149.6127921">
  <ele>339.29</ele>
  <time>2026-09-01T20:03:16Z</time>
  <course>310.27</course>
  <speed>0.0</speed>
  <fix>3d</fix>
</trkpt>
<trkpt lat="-27.274439" lon="151.290064">
  <ele>-0.01</ele>
  <time>2026-09-01T20:03:16Z</time>
  <course>0.22</course>
  <speed>0.0</speed>
  <fix>3d</fix>
</trkpt>
<trkpt lat="-27.274439" lon="151.290064">
  <ele>343.1</ele>
  <time>2026-09-01T20:03:16Z</time>
  <course>294.58</course>
  <speed>0.0</speed>
  <fix>3d</fix>
</trkpt>
<trkpt lat="-27.274439" lon="151.290064">
  <ele>0.02</ele>
  <time>2026-09-01T20:03:16Z</time>
  <course>1.2</course>
  <speed>0.0</speed>
  <fix>3d</fix>
</trkpt>
<trkpt lat="-27.274439" lon="151.290064">
  <ele>343.1</ele>
  <time>2026-09-01T20:03:16Z</time>
  <course>294.58</course>
  <speed>0.0</speed>
  <fix>3d</fix>
</trkpt>
<trkpt lat="-27.274439" lon="151.290064">
  <ele>-0.08</ele>
  <time>2026-09-01T20:03:16Z</time>
  <course>2.1</course>
  <speed>0.0</speed>
  <fix>3d</fix>
</trkpt>
<trkpt lat="-27.274439" lon="151.290064">
  <ele>343.1</ele>
  <time>2026-09-01T20:03:16Z</time>
  <course>273.33</course>
  <speed>0.0</speed>
  <fix>3d</fix>
</trkpt>
<trkpt lat="-27.274439" lon="151.290064">
  <ele>0.22</ele>
  <time>2026-09-01T20:03:16Z</time>
  <course>2.92</course>
  <speed>0.0</speed>
  <fix>3d</fix>
</trkpt>
<trkpt lat="-27.274439" lon="151.290064">
  <ele>343.1</ele>
  <time>2026-09-01T20:03:16Z</time>
  <course>273.33</course>
  <speed>0.0</speed>
  <fix>3d</fix>
</trkpt>
<trkpt lat="-27.274439" lon="151.290064">
  <ele>0.09</ele>
  <time>2026-09-01T20:03:16Z</time>
  <course>3.66</course>
  <speed>0.0</speed>
  <fix>3d</fix>
</trkpt>
<trkpt lat="-27.274439" lon="151.290064">
  <ele>343.1</ele>
  <time>2026-09-01T20:03:16Z</time>
  <course>270.44</course>
  <speed>0.0</speed>
  <fix>3d</fix>
</trkpt>
<trkpt lat="-27.274439" lon="151.290064">
  <ele>0.08</ele>
  <time>2026-09-01T20:03:16Z</time>
  <course>4.34</course>
  <speed>0.0</speed>
  <fix>3d</fix>
</trkpt>
<trkpt lat="-27.274439" lon="151.290064">
  <ele>343.1</ele>
  <time>2026-09-01T20:03:16Z</time>
  <course>270.44</course>
  <speed>0.0</speed>
  <fix>3d</fix>
</trkpt>
<trkpt lat="-27.274439" lon="151.290064">
  <ele>0.09</ele>
  <time>2026-09-01T20:03:16Z</time>
  <course>4.95</course>
  <speed>0.0</speed>
  <fix>3d</fix>
</trkpt>
<trkpt lat="-27.274439" lon="151.290064">
  <ele>343.1</ele>
  <time>2026-09-01T20:03:16Z</time>
  <course>270.05</course>
  <speed>0.0</speed>
  <fix>3d</fix>
</trkpt>
<trkpt lat="-27.274439" lon="151.290064">
  <ele>-0.05</ele>
  <time>2026-09-01T20:03:16Z</time>
  <course>5.5</course>
  <speed>0.0</speed>
  <fix>3d</fix>
</trkpt>
<trkpt lat="-27.274439" lon="151.290064">
  <ele>343.1</ele>
  <time>2026-09-01T20:03:16Z</time>
  <course>270.05</course>
  <speed>0.0</speed>
  <fix>3d</fix>
</trkpt>
<trkpt lat="-27.274439" lon="151.290064">
  <ele>343.06</ele>
  <time>2026-09-01T20:03:16Z</time>
  <course>5.98</course>
  <speed>0.0</speed>
  <fix>3d</fix>
</trkpt>
<trkpt lat="-27.274439" lon="151.290064">
  <ele>343.1</ele>
  <time>2026-09-01T20:03:16Z</time>
  <course>270.0</course>
  <speed>0.0</speed>
  <fix>3d</fix>
</trkpt>
<trkpt lat="-27.274439" lon="151.290064">
  <ele>343.18</ele>
  <time>2026-09-01T20:03:16Z</time>
  <course>6.44</course>
  <speed>0.0</speed>
  <fix>3d</fix>
</trkpt>
<trkpt lat="-27.274439" lon="151.290064">
  <ele>343.1</ele>
  <time>2026-09-01T20:03:16Z</time>
  <course>270.0</course>
  <speed>0.0</speed>
  <fix>3d</fix>
</trkpt>
<trkpt lat="-27.274439" lon="151.290064">
  <ele>342.91</ele>
  <time>2026-09-01T20:03:16Z</time>
  <course>6.85</course>
  <speed>0.0</speed>
  <fix>3d</fix>
</trkpt>
<trkpt lat="-27.274439" lon="151.290064">
  <ele>343.1</ele>
  <time>2026-09-01T20:03:16Z</time>
  <course>270.0</course>
  <speed>0.0</speed>
  <fix>3d</fix>
</trkpt>
<trkpt lat="-27.274439" lon="151.290064">
  <ele>343.06</ele>
  <time>2026-09-01T20:03:16Z</time>
  <course>7.22</course>
  <speed>0.0</speed>
  <fix>3d</fix>
</trkpt>
<trkpt lat="-27.274439" lon="151.290064">
  <ele>343.1</ele>
  <time>2026-09-01T20:03:16Z</time>
  <course>270.0</course>
  <speed>0.0</speed>
  <fix>3d</fix>
</trkpt>
<trkpt lat="-27.274439" lon="151.290064">
  <ele>343.13</ele>
  <time>2026-09-01T20:03:16Z</time>
  <course>7.56</course>
  <speed>0.0</speed>
  <fix>3d</fix>
</trkpt>
<trkpt lat="-27.274439" lon="151.290064">
  <ele>343.1</ele>
  <time>2026-09-01T20:03:16Z</time>
  <course>270.0</course>
  <speed>0.0</speed>
  <fix>3d</fix>
</trkpt>
<trkpt lat="-27.274439" lon="151.290064">
  <ele>343.04</ele>
  <time>2026-09-01T20:03:16Z</time>
  <course>7.87</course>
  <speed>0.0</speed>
  <fix>3d</fix>
</trkpt>
<trkpt lat="-27.274439" lon="151.290064">
  <ele>343.1</ele>
  <time>2026-09-01T20:03:16Z</time>
  <course>270.0</course>
  <speed>0.0</speed>
  <fix>3d</fix>
</trkpt>
<trkpt lat="-27.274439" lon="151.290064">
  <ele>342.88</ele>
  <time>2026-09-01T20:03:16Z</time>
  <course>8.14</course>
  <speed>0.0</speed>
  <fix>3d</fix>
</trkpt>
<trkpt lat="-27.274439" lon="151.290064">
  <ele>343.1</ele>
  <time>2026-09-01T20:03:16Z</time>
  <course>270.0</course>
  <speed>0.0</speed>
  <fix>3d</fix>
</trkpt>
<trkpt lat="-27.274439" lon="151.290064">
  <ele>343.02</ele>
  <time>2026-09-01T20:03:16Z</time>
  <course>8.39</course>
  <speed>0.0</speed>
  <fix>3d</fix>
</trkpt>
<trkpt lat="-27.274439" lon="151.290064">
  <ele>343.1</ele>
  <time>2026-09-01T20:03:16Z</time>
  <course>270.0</course>
  <speed>0.0</speed>
  <fix>3d</fix>
</trkpt>
<trkpt lat="-27.274439" lon="151.290064">
  <ele>343.23</ele>
  <time>2026-09-01T20:03:16Z</time>
  <course>8.63</course>
  <speed>0.0</speed>
  <fix>3d</fix>
</trkpt>
<trkpt lat="-27.274439" lon="151.290064">
  <ele>343.1</ele>
  <time>2026-09-01T20:03:16Z</time>
  <course>270.0</course>
  <speed>0.0</speed>
  <fix>3d</fix>
</trkpt>
<trkpt lat="-27.274439" lon="151.290064">
  <ele>343.17</ele>
  <time>2026-09-01T20:03:16Z</time>
  <course>8.83</course>
  <speed>0.0</speed>
  <fix>3d</fix>
</trkpt>
<trkpt lat="-27.274439" lon="151.290064">
  <ele>343.1</ele>
  <time>2026-09-01T20:03:16Z</time>
  <course>270.0</course>
  <speed>0.0</speed>
  <fix>3d</fix>
</trkpt>
<trkpt lat="-27.274439" lon="151.290064">
  <ele>343.04</ele>
  <time>2026-09-01T20:03:16Z</time>
  <course>9.01</course>
  <speed>0.0</speed>
  <fix>3d</fix>
</trkpt>
<trkpt lat="-27.274439" lon="151.290064">
  <ele>343.1</ele>
  <time>2026-09-01T20:03:16Z</time>
  <course>270.0</course>
  <speed>0.0</speed>
  <fix>3d</fix>
</trkpt>
<trkpt lat="-27.274439" lon="151.290064">
  <ele>342.89</ele>
  <time>2026-09-01T20:03:16Z</time>
  <course>9.18</course>
  <speed>0.0</speed>
  <fix>3d</fix>
</trkpt>
<trkpt lat="-27.274439" lon="151.290064">
  <ele>343.1</ele>
  <time>2026-09-01T20:03:16Z</time>
  <course>270.0</course>
  <speed>0.0</speed>
  <fix>3d</fix>
</trkpt>
<trkpt lat="-27.274439" lon="151.290064">
  <ele>343.08</ele>
  <time>2026-09-01T20:03:16Z</time>
  <course>9.33</course>
  <speed>0.0</speed>
  <fix>3d</fix>
</trkpt>
<trkpt lat="-27.274439" lon="151.290064">
  <ele>343.1</ele>
  <time>2026-09-01T20:03:16Z</time>
  <course>270.0</course>
  <speed>0.0</speed>
  <fix>3d</fix>
</trkpt>
<trkpt lat="-27.274439" lon="151.290064">
  <ele>343.19</ele>
  <time>2026-09-01T20:03:16Z</time>
  <course>9.47</course>
  <speed>0.0</speed>
  <fix>3d</fix>
</trkpt>
<trkpt lat="-27.274439" lon="151.290064">
  <ele>343.1</ele>
  <time>2026-09-01T20:03:16Z</time>
  <course>270.0</course>
  <speed>0.0</speed>
  <fix>3d</fix>
</trkpt>
<trkpt lat="-27.274439" lon="151.290064">
  <ele>342.88</ele>
  <time>2026-09-01T20:03:16Z</time>
  <course>9.59</course>
  <speed>0.0</speed>
  <fix>3d</fix>
</trkpt>
<trkpt lat="-27.274439" lon="151.290064">
  <ele>343.1</ele>
  <time>2026-09-01T20:03:16Z</time>
  <course>270.0</course>
  <speed>0.0</speed>
  <fix>3d</fix>
</trkpt>
<trkpt lat="-27.274439" lon="151.290064">
  <ele>343.17</ele>
  <time>2026-09-01T20:03:16Z</time>
  <course>9.7</course>
  <speed>0.0</speed>
  <fix>3d</fix>
</trkpt>
<trkpt lat="-27.274439" lon="151.290064">
  <ele>343.1</ele>
  <time>2026-09-01T20:03:16Z</time>
  <course>270.0</course>
  <speed>0.0</speed>
  <fix>3d</fix>
</trkpt>
<trkpt lat="-27.274439" lon="151.290064">
  <ele>342.89</ele>
  <time>2026-09-01T20:03:16Z</time>
  <course>9.8</course>
  <speed>0.0</speed>
  <fix>3d</fix>
</trkpt>
<trkpt lat="-27.274439" lon="151.290064">
  <ele>343.1</ele>
  <time>2026-09-01T20:03:16Z</time>
  <course>270.0</course>
  <speed>0.0</speed>
  <fix>3d</fix>
</trkpt>
<trkpt lat="-27.274439" lon="151.290064">
  <ele>342.99</ele>
  <time>2026-09-01T20:03:16Z</time>
  <course>9.9</course>
  <speed>0.0</speed>
  <fix>3d</fix>
</trkpt>
<trkpt lat="-27.274439" lon="151.290064">
  <ele>343.1</ele>
  <time>2026-09-01T20:03:16Z</time>
  <course>270.0</course>
  <speed>0.0</speed>
  <fix>3d</fix>
</trkpt>
<trkpt lat="-27.274439" lon="151.290064">
  <ele>342.87</ele>
  <time>2026-09-01T20:03:16Z</time>
  <course>9.98</course>
  <speed>0.0</speed>
  <fix>3d</fix>
</trkpt>
<trkpt lat="-27.274439" lon="151.290064">
  <ele>343.1</ele>
  <time>2026-09-01T20:03:16Z</time>
  <course>270.0</course>
  <speed>0.0</speed>
  <fix>3d</fix>
</trkpt>
<trkpt lat="-27.274439" lon="151.290064">
  <ele>343.09</ele>
  <time>2026-09-01T20:03:16Z</time>
  <course>10.06</course>
  <speed>0.0</speed>
  <fix>3d</fix>
</trkpt>
<trkpt lat="-27.274439" lon="151.290064">
  <ele>343.1</ele>
  <time>2026-09-01T20:03:16Z</time>
  <course>270.0</course>
  <speed>0.0</speed>
  <fix>3d</fix>
</trkpt>
<trkpt lat="-27.274439" lon="151.290064">
  <ele>343.18</ele>
  <time>2026-09-01T20:03:16Z</time>
  <course>10.13</course>
  <speed>0.0</speed>
  <fix>3d</fix>
</trkpt>
<trkpt lat="-27.274439" lon="151.290064">
  <ele>343.1</ele>
  <time>2026-09-01T20:03:16Z</time>
  <course>270.0</course>
  <speed>0.0</speed>
  <fix>3d</fix>
</trkpt>
<trkpt lat="-27.274439" lon="151.290064">
  <ele>343.05</ele>
  <time>2026-09-01T20:03:16Z</time>
  <course>10.2</course>
  <speed>0.0</speed>
  <fix>3d</fix>
</trkpt>
<trkpt lat="-27.274439" lon="151.290064">
  <ele>343.1</ele>
  <time>2026-09-01T20:03:16Z</time>
  <course>270.0</course>
  <speed>0.0</speed>
  <fix>3d</fix>
</trkpt>
<trkpt lat="-27.274439" lon="151.290064">
  <ele>342.96</ele>
  <time>2026-09-01T20:03:16Z</time>
  <course>10.25</course>
  <speed>0.0</speed>
  <fix>3d</fix>
</trkpt>
<trkpt lat="-27.274439" lon="151.290064">
  <ele>343.1</ele>
  <time>2026-09-01T20:03:16Z</time>
  <course>270.0</course>
  <speed>0.0</speed>
  <fix>3d</fix>
</trkpt>
<trkpt lat="-27.274439" lon="151.290064">
  <ele>343.1</ele>
  <time>2026-09-01T20:03:16Z</time>
  <course>10.31</course>
  <speed>0.0</speed>
  <fix>3d</fix>
</trkpt>
<trkpt lat="-27.274439" lon="151.290064">
  <ele>343.1</ele>
  <time>2026-09-01T20:03:16Z</time>
  <course>270.0</course>
  <speed>0.0</speed>
  <fix>3d</fix>
</trkpt>
<trkpt lat="-27.274439" lon="151.290064">
  <ele>343.22</ele>
  <time>2026-09-01T20:03:16Z</time>
  <course>10.35</course>
  <speed>0.0</speed>
  <fix>3d</fix>
</trkpt>
<trkpt lat="-27.274439" lon="151.290064">
  <ele>343.1</ele>
  <time>2026-09-01T20:03:16Z</time>
  <course>270.0</course>
  <speed>0.0</speed>
  <fix>3d</fix>
</trkpt>
<trkpt lat="-27.274439" lon="151.290064">
  <ele>343.17</ele>
  <time>2026-09-01T20:03:16Z</time>
  <course>10.4</course>
  <speed>0.0</speed>
  <fix>3d</fix>
</trkpt>
<trkpt lat="-27.274439" lon="151.290064">
  <ele>343.1</ele>
  <time>2026-09-01T20:03:16Z</time>
  <course>270.0</course>
  <speed>0.0</speed>
  <fix>3d</fix>
</trkpt>
<trkpt lat="-27.274439" lon="151.290064">
  <ele>343.08</ele>
  <time>2026-09-01T20:03:16Z</time>
  <course>10.44</course>
  <speed>0.0</speed>
  <fix>3d</fix>
</trkpt>
<trkpt lat="-27.274439" lon="151.290064">
  <ele>343.1</ele>
  <time>2026-09-01T20:03:16Z</time>
  <course>270.0</course>
  <speed>0.0</speed>
  <fix>3d</fix>
</trkpt>
<trkpt lat="-27.274439" lon="151.290064">
  <ele>343.04</ele>
  <time>2026-09-01T20:03:16Z</time>
  <course>10.47</course>
  <speed>0.0</speed>
  <fix>3d</fix>
</trkpt>
<trkpt lat="-27.274439" lon="151.290064">
  <ele>343.1</ele>
  <time>2026-09-01T20:03:16Z</time>
  <course>270.0</course>
  <speed>0.0</speed>
  <fix>3d</fix>
</trkpt>
<trkpt lat="-27.274439" lon="151.290064">
  <ele>343.18</ele>
  <time>2026-09-01T20:03:16Z</time>
  <course>10.5</course>
  <speed>0.0</speed>
  <fix>3d</fix>
</trkpt>
<trkpt lat="-27.274439" lon="151.290064">
  <ele>343.1</ele>
  <time>2026-09-01T20:03:16Z</time>
  <course>270.0</course>
  <speed>0.0</speed>
  <fix>3d</fix>
</trkpt>
<trkpt lat="-27.274439" lon="151.290064">
  <ele>343.12</ele>
  <time>2026-09-01T20:03:16Z</time>
  <course>10.53</course>
  <speed>0.0</speed>
  <fix>3d</fix>
</trkpt>
<trkpt lat="-27.274439" lon="151.290064">
  <ele>343.1</ele>
  <time>2026-09-01T20:03:16Z</time>
  <course>270.0</course>
  <speed>0.0</speed>
  <fix>3d</fix>
</trkpt>
<trkpt lat="-27.274439" lon="151.290064">
  <ele>343.04</ele>
  <time>2026-09-01T20:03:16Z</time>
  <course>10.56</course>
  <speed>0.0</speed>
  <fix>3d</fix>
</trkpt>
<trkpt lat="-27.274439" lon="151.290064">
  <ele>343.1</ele>
  <time>2026-09-01T20:03:16Z</time>
  <course>270.0</course>
  <speed>0.0</speed>
  <fix>3d</fix>
</trkpt>
<trkpt lat="-27.274439" lon="151.290064">
  <ele>343.07</ele>
  <time>2026-09-01T20:03:16Z</time>
  <course>10.58</course>
  <speed>0.0</speed>
  <fix>3d</fix>
</trkpt>
<trkpt lat="-27.274439" lon="151.290064">
  <ele>343.1</ele>
  <time>2026-09-01T20:03:16Z</time>
  <course>270.0</course>
  <speed>0.0</speed>
  <fix>3d</fix>
</trkpt>
<trkpt lat="-27.274439" lon="151.290064">
  <ele>343.04</ele>
  <time>2026-09-01T20:03:16Z</time>
  <course>10.6</course>
  <speed>0.0</speed>
  <fix>3d</fix>
</trkpt>
<trkpt lat="-27.274439" lon="151.290064">
  <ele>343.1</ele>
  <time>2026-09-01T20:03:16Z</time>
  <course>270.0</course>
  <speed>0.0</speed>
  <fix>3d</fix>
</trkpt>
<trkpt lat="-27.274439" lon="151.290064">
  <ele>343.01</ele>
  <time>2026-09-01T20:03:16Z</time>
  <course>10.62</course>
  <speed>0.0</speed>
  <fix>3d</fix>
</trkpt>
<trkpt lat="-27.274439" lon="151.290064">
  <ele>343.1</ele>
  <time>2026-09-01T20:03:16Z</time>
  <course>270.0</course>
  <speed>0.0</speed>
  <fix>3d</fix>
</trkpt>
<trkpt lat="-27.274439" lon="151.290064">
  <ele>343.2</ele>
  <time>2026-09-01T20:03:16Z</time>
  <course>10.64</course>
  <speed>0.0</speed>
  <fix>3d</fix>
</trkpt>
<trkpt lat="-27.274439" lon="151.290064">
  <ele>343.1</ele>
  <time>2026-09-01T20:03:16Z</time>
  <course>270.0</course>
  <speed>0.0</speed>
  <fix>3d</fix>
</trkpt>
<trkpt lat="-27.274439" lon="151.290064">
  <ele>343.24</ele>
  <time>2026-09-01T20:03:16Z</time>
  <course>10.65</course>
  <speed>0.0</speed>
  <fix>3d</fix>
</trkpt>
<trkpt lat="-27.274439" lon="151.290064">
  <ele>343.1</ele>
  <time>2026-09-01T20:03:16Z</time>
  <course>270.0</course>
  <speed>0.0</speed>
  <fix>3d</fix>
</trkpt>
<trkpt lat="-27.274439" lon="151.290064">
  <ele>342.88</ele>
  <time>2026-09-01T20:03:16Z</time>
  <course>10.67</course>
  <speed>0.0</speed>
  <fix>3d</fix>
</trkpt>
<trkpt lat="-27.274439" lon="151.290064">
  <ele>343.1</ele>
  <time>2026-09-01T20:03:16Z</time>
  <course>270.0</course>
  <speed>0.0</speed>
  <fix>3d</fix>
</trkpt>
<trkpt lat="-27.274439" lon="151.290064">
  <ele>343.21</ele>
  <time>2026-09-01T20:03:16Z</time>
  <course>10.68</course>
  <speed>0.0</speed>
  <fix>3d</fix>
</trkpt>
<trkpt lat="-27.274439" lon="151.290064">
  <ele>343.1</ele>
  <time>2026-09-01T20:03:16Z</time>
  <course>270.0</course>
  <speed>0.0</speed>
  <fix>3d</fix>
</trkpt>
<trkpt lat="-27.274439" lon="151.290064">
  <ele>343.02</ele>
  <time>2026-09-01T20:03:16Z</time>
  <course>10.69</course>
  <speed>0.0</speed>
  <fix>3d</fix>
</trkpt>
<trkpt lat="-27.274439" lon="151.290064">
  <ele>343.1</ele>
  <time>2026-09-01T20:03:16Z</time>
  <course>270.0</course>
  <speed>0.0</speed>
  <fix>3d</fix>
</trkpt>
<trkpt lat="-27.274439" lon="151.290064">
  <ele>342.93</ele>
  <time>2026-09-01T20:03:16Z</time>
  <course>10.7</course>
  <speed>0.0</speed>
  <fix>3d</fix>
</trkpt>
<trkpt lat="-27.274439" lon="151.290064">
  <ele>343.1</ele>
  <time>2026-09-01T20:03:16Z</time>
  <course>270.0</course>
  <speed>0.0</speed>
  <fix>3d</fix>
</trkpt>
<trkpt lat="-27.274439" lon="151.290064">
  <ele>343.07</ele>
  <time>2026-09-01T20:03:16Z</time>
  <course>10.71</course>
  <speed>0.0</speed>
  <fix>3d</fix>
</trkpt>
<trkpt lat="-27.274439" lon="151.290064">
  <ele>343.1</ele>
  <time>2026-09-01T20:03:16Z</time>
  <course>270.0</course>
  <speed>0.0</speed>
  <fix>3d</fix>
</trkpt>
<trkpt lat="-27.274439" lon="151.290064">
  <ele>342.94</ele>
  <time>2026-09-01T20:03:16Z</time>
  <course>10.72</course>
  <speed>0.0</speed>
  <fix>3d</fix>
</trkpt>
<trkpt lat="-27.274439" lon="151.290064">
  <ele>343.1</ele>
  <time>2026-09-01T20:03:16Z</time>
  <course>270.0</course>
  <speed>0.0</speed>
  <fix>3d</fix>
</trkpt>
<trkpt lat="-27.274439" lon="151.290064">
  <ele>343.11</ele>
  <time>2026-09-01T20:03:16Z</time>
  <course>10.73</course>
  <speed>0.0</speed>
  <fix>3d</fix>
</trkpt>
<trkpt lat="-27.274439" lon="151.290064">
  <ele>343.1</ele>
  <time>2026-09-01T20:03:16Z</time>
  <course>270.0</course>
  <speed>0.0</speed>
  <fix>3d</fix>
</trkpt>
<trkpt lat="-27.274439" lon="151.290064">
  <ele>343.24</ele>
  <time>2026-09-01T20:03:16Z</time>
  <course>10.73</course>
  <speed>0.0</speed>
  <fix>3d</fix>
</trkpt>
<trkpt lat="-27.274439" lon="151.290064">
  <ele>343.1</ele>
  <time>2026-09-01T20:03:16Z</time>
  <course>270.0</course>
  <speed>0.0</speed>
  <fix>3d</fix>
</trkpt>
<trkpt lat="-27.274439" lon="151.290064">
  <ele>343.18</ele>
  <time>2026-09-01T20:03:16Z</time>
  <course>10.74</course>
  <speed>0.0</speed>
  <fix>3d</fix>
</trkpt>
<trkpt lat="-27.274439" lon="151.290064">
  <ele>343.1</ele>
  <time>2026-09-01T20:03:16Z</time>
  <course>270.0</course>
  <speed>0.0</speed>
  <fix>3d</fix>
</trkpt>
<trkpt lat="-27.274439" lon="151.290064">
  <ele>342.89</ele>
  <time>2026-09-01T20:03:16Z</time>
  <course>10.75</course>
  <speed>0.0</speed>
  <fix>3d</fix>
</trkpt>
<trkpt lat="-27.274439" lon="151.290064">
  <ele>343.1</ele>
  <time>2026-09-01T20:03:16Z</time>
  <course>270.0</course>
  <speed>0.0</speed>
  <fix>3d</fix>
</trkpt>
<trkpt lat="-27.274439" lon="151.290064">
  <ele>343.23</ele>
  <time>2026-09-01T20:03:16Z</time>
  <course>10.75</course>
  <speed>0.0</speed>
  <fix>3d</fix>
</trkpt>
<trkpt lat="-27.274439" lon="151.290064">
  <ele>343.1</ele>
  <time>2026-09-01T20:03:16Z</time>
  <course>270.0</course>
  <speed>0.0</speed>
  <fix>3d</fix>
</trkpt>
<trkpt lat="-27.274439" lon="151.290064">
  <ele>343.23</ele>
  <time>2026-09-01T20:03:16Z</time>
  <course>10.76</course>
  <speed>0.0</speed>
  <fix>3d</fix>
</trkpt>
<trkpt lat="-27.274439" lon="151.290064">
  <ele>343.1</ele>
  <time>2026-09-01T20:03:16Z</time>
  <course>270.0</course>
  <speed>0.0</speed>
  <fix>3d</fix>
</trkpt>
<trkpt lat="-27.274439" lon="151.290064">
  <ele>342.99</ele>
  <time>2026-09-01T20:03:16Z</time>
  <course>10.76</course>
  <speed>0.0</speed>
  <fix>3d</fix>
</trkpt>
<trkpt lat="-27.274439" lon="151.290064">
  <ele>343.1</ele>
  <time>2026-09-01T20:03:16Z</time>
  <course>270.0</course>
  <speed>0.0</speed>
  <fix>3d</fix>
</trkpt>
<trkpt lat="-27.274439" lon="151.290064">
  <ele>343.13</ele>
  <time>2026-09-01T20:03:16Z</time>
  <course>10.76</course>
  <speed>0.0</speed>
  <fix>3d</fix>
</trkpt>
<trkpt lat="-27.274439" lon="151.290064">
  <ele>343.1</ele>
  <time>2026-09-01T20:03:16Z</time>
  <course>270.0</course>
  <speed>0.0</speed>
  <fix>3d</fix>
</trkpt>
<trkpt lat="-27.274439" lon="151.290064">
  <ele>343.07</ele>
  <time>2026-09-01T20:03:16Z</time>
  <course>10.77</course>
  <speed>0.0</speed>
  <fix>3d</fix>
</trkpt>
<trkpt lat="-27.274439" lon="151.290064">
  <ele>343.1</ele>
  <time>2026-09-01T20:03:16Z</time>
  <course>270.0</course>
  <speed>0.0</speed>
  <fix>3d</fix>
</trkpt>
<trkpt lat="-27.274439" lon="151.290064">
  <ele>343.19</ele>
  <time>2026-09-01T20:03:16Z</time>
  <course>10.77</course>
  <speed>0.0</speed>
  <fix>3d</fix>
</trkpt>
<trkpt lat="-27.274439" lon="151.290064">
  <ele>343.1</ele>
  <time>2026-09-01T20:03:16Z</time>
  <course>270.0</course>
  <speed>0.0</speed>
  <fix>3d</fix>
</trkpt>
<trkpt lat="-27.274439" lon="151.290064">
  <ele>342.93</ele>
  <time>2026-09-01T20:03:16Z</time>
  <course>10.77</course>
  <speed>0.0</speed>
  <fix>3d</fix>
</trkpt>
<trkpt lat="-27.274439" lon="151.290064">
  <ele>343.1</ele>
  <time>2026-09-01T20:03:16Z</time>
  <course>270.0</course>
  <speed>0.0</speed>
  <fix>3d</fix>
</trkpt>
<trkpt lat="-27.274439" lon="151.290064">
  <ele>343.19</ele>
  <time>2026-09-01T20:03:16Z</time>
  <course>10.78</course>
  <speed>0.0</speed>
  <fix>3d</fix>
</trkpt>
<trkpt lat="-27.274439" lon="151.290064">
  <ele>343.1</ele>
  <time>2026-09-01T20:03:16Z</time>
  <course>270.0</course>
  <speed>0.0</speed>
  <fix>3d</fix>
</trkpt>
<trkpt lat="-27.274439" lon="151.290064">
  <ele>343.1</ele>
  <time>2026-09-01T20:03:16Z</time>
  <course>10.78</course>
  <speed>0.0</speed>
  <fix>3d</fix>
</trkpt>
<trkpt lat="-27.274439" lon="151.290064">
  <ele>343.1</ele>
  <time>2026-09-01T20:03:16Z</time>
  <course>270.0</course>
  <speed>0.0</speed>
  <fix>3d</fix>
</trkpt>
<trkpt lat="-27.274439" lon="151.290064">
  <ele>343.01</ele>
  <time>2026-09-01T20:03:16Z</time>
  <course>10.78</course>
  <speed>0.0</speed>
  <fix>3d</fix>
</trkpt>
<trkpt lat="-27.274439" lon="151.290064">
  <ele>343.1</ele>
  <time>2026-09-01T20:03:16Z</time>
  <course>270.0</course>
  <speed>0.0</speed>
  <fix>3d</fix>
</trkpt>
<trkpt lat="-27.274439" lon="151.290064">
  <ele>343.11</ele>
  <time>2026-09-01T20:03:16Z</time>
  <course>10.78</course>
  <speed>0.0</speed>
  <fix>3d</fix>
</trkpt>
<trkpt lat="-27.274439" lon="151.290064">
  <ele>343.1</ele>
  <time>2026-09-01T20:03:16Z</time>
  <course>270.0</course>
  <speed>0.0</speed>
  <fix>3d</fix>
</trkpt>
<trkpt lat="-27.274439" lon="151.290064">
  <ele>342.96</ele>
  <time>2026-09-01T20:03:16Z</time>
  <course>10.78</course>
  <speed>0.0</speed>
  <fix>3d</fix>
</trkpt>
<trkpt lat="-27.274439" lon="151.290064">
  <ele>343.1</ele>
  <time>2026-09-01T20:03:16Z</time>
  <course>270.0</course>
  <speed>0.0</speed>
  <fix>3d</fix>
</trkpt>
<trkpt lat="-27.274439" lon="151.290064">
  <ele>343.19</ele>
  <time>2026-09-01T20:03:16Z</time>
  <course>10.79</course>
  <speed>0.0</speed>
  <fix>3d</fix>
</trkpt>
<trkpt lat="-27.274439" lon="151.290064">
  <ele>343.1</ele>
  <time>2026-09-01T20:03:16Z</time>
  <course>270.0</course>
  <speed>0.0</speed>
  <fix>3d</fix>
</trkpt>
<trkpt lat="-27.274439" lon="151.290064">
  <ele>343.0</ele>
  <time>2026-09-01T20:03:16Z</time>
  <course>10.79</course>
  <speed>0.0</speed>
  <fix>3d</fix>
</trkpt>
<trkpt lat="-27.274439" lon="151.290064">
  <ele>343.1</ele>
  <time>2026-09-01T20:03:16Z</time>
  <course>270.0</course>
  <speed>0.0</speed>
  <fix>3d</fix>
</trkpt>
<trkpt lat="-27.274439" lon="151.290064">
  <ele>343.2</ele>
  <time>2026-09-01T20:03:16Z</time>
  <course>10.79</course>
  <speed>0.0</speed>
  <fix>3d</fix>
</trkpt>
<trkpt lat="-27.274439" lon="151.290064">
  <ele>343.1</ele>
  <time>2026-09-01T20:03:16Z</time>
  <course>270.0</course>
  <speed>0.0</speed>
  <fix>3d</fix>
</trkpt>
<trkpt lat="-27.274439" lon="151.290064">
  <ele>343.2</ele>
  <time>2026-09-01T20:03:16Z</time>
  <course>10.79</course>
  <speed>0.0</speed>
  <fix>3d</fix>
</trkpt>
<trkpt lat="-27.274439" lon="151.290064">
  <ele>343.1</ele>
  <time>2026-09-01T20:03:16Z</time>
  <course>270.0</course>
  <speed>0.0</speed>
  <fix>3d</fix>
</trkpt>
<trkpt lat="-27.274439" lon="151.290064">
  <ele>343.13</ele>
  <time>2026-09-01T20:03:16Z</time>
  <course>10.79</course>
  <speed>0.0</speed>
  <fix>3d</fix>
</trkpt>
<trkpt lat="-27.274439" lon="151.290064">
  <ele>343.1</ele>
  <time>2026-09-01T20:03:16Z</time>
  <course>270.0</course>
  <speed>0.0</speed>
  <fix>3d</fix>
</trkpt>
<trkpt lat="-27.274439" lon="151.290064">
  <ele>343.1</ele>
  <time>2026-09-01T20:03:16Z</time>
  <course>10.79</course>
  <speed>0.0</speed>
  <fix>3d</fix>
</trkpt>
<trkpt lat="-27.274439" lon="151.290064">
  <ele>343.1</ele>
  <time>2026-09-01T20:03:16Z</time>
  <course>270.0</course>
  <speed>0.0</speed>
  <fix>3d</fix>
</trkpt>
<trkpt lat="-27.274439" lon="151.290064">
  <ele>343.12</ele>
  <time>2026-09-01T20:03:16Z</time>
  <course>10.79</course>
  <speed>0.0</speed>
  <fix>3d</fix>
</trkpt>
<trkpt lat="-27.274439" lon="151.290064">
  <ele>343.1</ele>
  <time>2026-09-01T20:03:16Z</time>
  <course>270.0</course>
  <speed>0.0</speed>
  <fix>3d</fix>
</trkpt>
<trkpt lat="-27.274439" lon="151.290064">
  <ele>342.94</ele>
  <time>2026-09-01T20:03:16Z</time>
  <course>10.79</course>
  <speed>0.0</speed>
  <fix>3d</fix>
</trkpt>
<trkpt lat="-27.274439" lon="151.290064">
  <ele>343.1</ele>
  <time>2026-09-01T20:03:16Z</time>
  <course>270.0</course>
  <speed>0.0</speed>
  <fix>3d</fix>
</trkpt>
<trkpt lat="-27.274439" lon="151.290064">
  <ele>343.25</ele>
  <time>2026-09-01T20:03:16Z</time>
  <course>10.79</course>
  <speed>0.0</speed>
  <fix>3d</fix>
</trkpt>
<trkpt lat="-27.274439" lon="151.290064">
  <ele>343.1</ele>
  <time>2026-09-01T20:03:16Z</time>
  <course>270.0</course>
  <speed>0.0</speed>
  <fix>3d</fix>
</trkpt>
<trkpt lat="-27.274439" lon="151.290064">
  <ele>342.93</ele>
  <time>2026-09-01T20:03:16Z</time>
  <course>10.79</course>
  <speed>0.0</speed>
  <fix>3d</fix>
</trkpt>
<trkpt lat="-27.274439" lon="151.290064">
  <ele>343.1</ele>
  <time>2026-09-01T20:03:16Z</time>
  <course>270.0</course>
  <speed>0.0</speed>
  <fix>3d</fix>
</trkpt>
<trkpt lat="-27.274439" lon="151.290064">
  <ele>343.08</ele>
  <time>2026-09-01T20:03:16Z</time>
  <course>10.79</course>
  <speed>0.0</speed>
  <fix>3d</fix>
</trkpt>
<trkpt lat="-27.274439" lon="151.290064">
  <ele>343.1</ele>
  <time>2026-09-01T20:03:16Z</time>
  <course>270.0</course>
  <speed>0.0</speed>
  <fix>3d</fix>
</trkpt>
<trkpt lat="-27.274439" lon="151.290064">
  <ele>343.23</ele>
  <time>2026-09-01T20:03:16Z</time>
  <course>10.8</course>
  <speed>0.0</speed>
  <fix>3d</fix>
</trkpt>
<trkpt lat="-27.274439" lon="151.290064">
  <ele>343.1</ele>
  <time>2026-09-01T20:03:16Z</time>
  <course>270.0</course>
  <speed>0.0</speed>
  <fix>3d</fix>
</trkpt>
<trkpt lat="-27.274439" lon="151.290064">
  <ele>343.01</ele>
  <time>2026-09-01T20:03:16Z</time>
  <course>10.8</course>
  <speed>0.0</speed>
  <fix>3d</fix>
</trkpt>
<trkpt lat="-27.274439" lon="151.290064">
  <ele>343.1</ele>
  <time>2026-09-01T20:03:16Z</time>
  <course>270.0</course>
  <speed>0.0</speed>
  <fix>3d</fix>
</trkpt>
<trkpt lat="-27.274439" lon="151.290064">
  <ele>343.1</ele>
  <time>2026-09-01T20:03:16Z</time>
  <course>10.8</course>
  <speed>0.0</speed>
  <fix>3d</fix>
</trkpt>
<trkpt lat="-27.274439" lon="151.290064">
  <ele>343.1</ele>
  <time>2026-09-01T20:03:16Z</time>
  <course>270.0</course>
  <speed>0.0</speed>
  <fix>3d</fix>
</trkpt>
<trkpt lat="-27.274439" lon="151.290064">
  <ele>342.99</ele>
  <time>2026-09-01T20:03:16Z</time>
  <course>10.8</course>
  <speed>0.0</speed>
  <fix>3d</fix>
</trkpt>
<trkpt lat="-27.274439" lon="151.290064">
  <ele>343.1</ele>
  <time>2026-09-01T20:03:16Z</time>
  <course>270.0</course>
  <speed>0.0</speed>
  <fix>3d</fix>
</trkpt>
<trkpt lat="-27.274439" lon="151.290064">
  <ele>342.87</ele>
  <time>2026-09-01T20:03:16Z</time>
  <course>10.8</course>
  <speed>0.0</speed>
  <fix>3d</fix>
</trkpt>
<trkpt lat="-27.274439" lon="151.290064">
  <ele>343.1</ele>
  <time>2026-09-01T20:03:16Z</time>
  <course>270.0</course>
  <speed>0.0</speed>
  <fix>3d</fix>
</trkpt>
<trkpt lat="-27.274439" lon="151.290064">
  <ele>343.1</ele>
  <time>2026-09-01T20:03:16Z</time>
  <course>10.8</course>
  <speed>0.0</speed>
  <fix>3d</fix>
</trkpt>
<trkpt lat="-27.274439" lon="151.290064">
  <ele>343.1</ele>
  <time>2026-09-01T20:03:16Z</time>
  <course>270.0</course>
  <speed>0.0</speed>
  <fix>3d</fix>
</trkpt>
<trkpt lat="-27.274439" lon="151.290064">
  <ele>342.99</ele>
  <time>2026-09-01T20:03:16Z</time>
  <course>10.8</course>
  <speed>0.0</speed>
  <fix>3d</fix>
</trkpt>
<trkpt lat="-27.274439" lon="151.290064">
  <ele>343.1</ele>
  <time>2026-09-01T20:03:16Z</time>
  <course>270.0</course>
  <speed>0.0</speed>
  <fix>3d</fix>
</trkpt>
<trkpt lat="-27.274439" lon="151.290064">
  <ele>342.91</ele>
  <time>2026-09-01T20:03:16Z</time>
  <course>10.8</course>
  <speed>0.0</speed>
  <fix>3d</fix>
</trkpt>
<trkpt lat="-27.274439" lon="151.290064">
  <ele>343.1</ele>
  <time>2026-09-01T20:03:16Z</time>
  <course>270.0</course>
  <speed>0.0</speed>
  <fix>3d</fix>
</trkpt>
<trkpt lat="-27.274439" lon="151.290064">
  <ele>342.9</ele>
  <time>2026-09-01T20:03:16Z</time>
  <course>10.8</course>
  <speed>0.0</speed>
  <fix>3d</fix>
</trkpt>
<trkpt lat="-27.274439" lon="151.290064">
  <ele>343.1</ele>
  <time>2026-09-01T20:03:16Z</time>
  <course>270.0</course>
  <speed>0.0</speed>
  <fix>3d</fix>
</trkpt>
<trkpt lat="-27.274439" lon="151.290064">
  <ele>342.87</ele>
  <time>2026-09-01T20:03:16Z</time>
  <course>10.8</course>
  <speed>0.0</speed>
  <fix>3d</fix>
</trkpt>
<trkpt lat="-27.274439" lon="151.290064">
  <ele>343.1</ele>
  <time>2026-09-01T20:03:16Z</time>
  <course>270.0</course>
  <speed>0.0</speed>
  <fix>3d</fix>
</trkpt>
<trkpt lat="-27.274439" lon="151.290064">
  <ele>343.12</ele>
  <time>2026-09-01T20:03:16Z</time>
  <course>10.8</course>
  <speed>0.0</speed>
  <fix>3d</fix>
</trkpt>
<trkpt lat="-27.274439" lon="151.290064">
  <ele>343.1</ele>
  <time>2026-09-01T20:03:16Z</time>
  <course>270.0</course>
  <speed>0.0</speed>
  <fix>3d</fix>
</trkpt>
<trkpt lat="-27.274439" lon="151.290064">
  <ele>342.99</ele>
  <time>2026-09-01T20:03:16Z</time>
  <course>10.8</course>
  <speed>0.0</speed>
  <fix>3d</fix>
</trkpt>
<trkpt lat="-27.274439" lon="151.290064">
  <ele>343.1</ele>
  <time>2026-09-01T20:03:16Z</time>
  <course>270.0</course>
  <speed>0.0</speed>
  <fix>3d</fix>
</trkpt>
<trkpt lat="-27.274439" lon="151.290064">
  <ele>343.13</ele>
  <time>2026-09-01T20:03:16Z</time>
  <course>10.8</course>
  <speed>0.0</speed>
  <fix>3d</fix>
</trkpt>
<trkpt lat="-27.274439" lon="151.290064">
  <ele>343.1</ele>
  <time>2026-09-01T20:03:16Z</time>
  <course>270.0</course>
  <speed>0.0</speed>
  <fix>3d</fix>
</trkpt>
<trkpt lat="-27.274439" lon="151.290064">
  <ele>343.0</ele>
  <time>2026-09-01T20:03:16Z</time>
  <course>10.8</course>
  <speed>0.0</speed>
  <fix>3d</fix>
</trkpt>
<trkpt lat="-27.274439" lon="151.290064">
  <ele>343.1</ele>
  <time>2026-09-01T20:03:16Z</time>
  <course>270.0</course>
  <speed>0.0</speed>
  <fix>3d</fix>
</trkpt>
<trkpt lat="-27.274439" lon="151.290064">
  <ele>343.17</ele>
  <time>2026-09-01T20:03:16Z</time>
  <course>10.8</course>
  <speed>0.0</speed>
  <fix>3d</fix>
</trkpt>
<trkpt lat="-27.274439" lon="151.290064">
  <ele>343.1</ele>
  <time>2026-09-01T20:03:16Z</time>
  <course>270.0</course>
  <speed>0.0</speed>
  <fix>3d</fix>
</trkpt>
<trkpt lat="-27.274439" lon="151.290064">
  <ele>343.0</ele>
  <time>2026-09-01T20:03:16Z</time>
  <course>10.8</course>
  <speed>0.0</speed>
  <fix>3d</fix>
</trkpt>
<trkpt lat="-27.274439" lon="151.290064">
  <ele>343.1</ele>
  <time>2026-09-01T20:03:16Z</time>
  <course>270.0</course>
  <speed>0.0</speed>
  <fix>3d</fix>
</trkpt>
<trkpt lat="-27.274439" lon="151.290064">
  <ele>342.99</ele>
  <time>2026-09-01T20:03:16Z</time>
  <course>10.8</course>
  <speed>0.0</speed>
  <fix>3d</fix>
</trkpt>
<trkpt lat="-27.274439" lon="151.290064">
  <ele>343.1</ele>
  <time>2026-09-01T20:03:16Z</time>
  <course>270.0</course>
  <speed>0.0</speed>
  <fix>3d</fix>
</trkpt>
<trkpt lat="-27.274439" lon="151.290064">
  <ele>343.17</ele>
  <time>2026-09-01T20:03:16Z</time>
  <course>10.8</course>
  <speed>0.0</speed>
  <fix>3d</fix>
</trkpt>
<trkpt lat="-27.274439" lon="151.290064">
  <ele>343.1</ele>
  <time>2026-09-01T20:03:16Z</time>
  <course>270.0</course>
  <speed>0.0</speed>
  <fix>3d</fix>
</trkpt>
<trkpt lat="-27.274439" lon="151.290064">
  <ele>343.16</ele>
  <time>2026-09-01T20:03:16Z</time>
  <course>10.8</course>
  <speed>0.0</speed>
  <fix>3d</fix>
</trkpt>
<trkpt lat="-27.274439" lon="151.290064">
  <ele>343.1</ele>
  <time>2026-09-01T20:03:16Z</time>
  <course>270.0</course>
  <speed>0.0</speed>
  <fix>3d</fix>
</trkpt>
<trkpt lat="-27.274439" lon="151.290064">
  <ele>342.87</ele>
  <time>2026-09-01T20:03:16Z</time>
  <course>10.8</course>
  <speed>0.0</speed>
  <fix>3d</fix>
</trkpt>
<trkpt lat="-27.274439" lon="151.290064">
  <ele>343.1</ele>
  <time>2026-09-01T20:03:16Z</time>
  <course>270.0</course>
  <speed>0.0</speed>
  <fix>3d</fix>
</trkpt>
<trkpt lat="-27.274439" lon="151.290064">
  <ele>343.19</ele>
  <time>2026-09-01T20:03:16Z</time>
  <course>10.8</course>
  <speed>0.0</speed>
  <fix>3d</fix>
</trkpt>
<trkpt lat="-27.274439" lon="151.290064">
  <ele>343.1</ele>
  <time>2026-09-01T20:03:16Z</time>
  <course>270.0</course>
  <speed>0.0</speed>
  <fix>3d</fix>
</trkpt>
<trkpt lat="-27.274439" lon="151.290064">
  <ele>343.16</ele>
  <time>2026-09-01T20:03:16Z</time>
  <course>10.8</course>
  <speed>0.0</speed>
  <fix>3d</fix>
</trkpt>
<trkpt lat="-27.274439" lon="151.290064">
  <ele>343.1</ele>
  <time>2026-09-01T20:03:16Z</time>
  <course>270.0</course>
  <speed>0.0</speed>
  <fix>3d</fix>
</trkpt>
<trkpt lat="-27.274439" lon="151.290064">
  <ele>343.21</ele>
  <time>2026-09-01T20:03:16Z</time>
  <course>10.8</course>
  <speed>0.0</speed>
  <fix>3d</fix>
</trkpt>
<trkpt lat="-27.274439" lon="151.290064">
  <ele>343.1</ele>
  <time>2026-09-01T20:03:16Z</time>
  <course>270.0</course>
  <speed>0.0</speed>
  <fix>3d</fix>
</trkpt>
<trkpt lat="-27.274439" lon="151.290064">
  <ele>343.22</ele>
  <time>2026-09-01T20:03:16Z</time>
  <course>10.8</course>
  <speed>0.0</speed>
  <fix>3d</fix>
</trkpt>
<trkpt lat="-27.274439" lon="151.290064">
  <ele>343.1</ele>
  <time>2026-09-01T20:03:16Z</time>
  <course>270.0</course>
  <speed>0.0</speed>
  <fix>3d</fix>
</trkpt>
<trkpt lat="-27.274439" lon="151.290064">
  <ele>343.24</ele>
  <time>2026-09-01T20:03:16Z</time>
  <course>10.8</course>
  <speed>0.0</speed>
  <fix>3d</fix>
</trkpt>
<trkpt lat="-27.274439" lon="151.290064">
  <ele>343.1</ele>
  <time>2026-09-01T20:03:16Z</time>
  <course>270.0</course>
  <speed>0.0</speed>
  <fix>3d</fix>
</trkpt>
<trkpt lat="-27.274439" lon="151.290064">
  <ele>343.0</ele>
  <time>2026-09-01T20:03:16Z</time>
  <course>10.8</course>
  <speed>0.0</speed>
  <fix>3d</fix>
</trkpt>
<trkpt lat="-27.274439" lon="151.290064">
  <ele>343.1</ele>
  <time>2026-09-01T20:03:16Z</time>
  <course>270.0</course>
  <speed>0.0</speed>
  <fix>3d</fix>
</trkpt>
<trkpt lat="-27.274439" lon="151.290064">
  <ele>343.1</ele>
  <time>2026-09-01T20:03:16Z</time>
  <course>10.8</course>
  <speed>0.0</speed>
  <fix>3d</fix>
</trkpt>
<trkpt lat="-27.274439" lon="151.290064">
  <ele>343.1</ele>
  <time>2026-09-01T20:03:16Z</time>
  <course>270.0</course>
  <speed>0.0</speed>
  <fix>3d</fix>
</trkpt>
<trkpt lat="-27.274439" lon="151.290064">
  <ele>343.05</ele>
  <time>2026-09-01T20:03:16Z</time>
  <course>10.8</course>
  <speed>0.0</speed>
  <fix>3d</fix>
</trkpt>
<trkpt lat="-27.274439" lon="151.290064">
  <ele>343.1</ele>
  <time>2026-09-01T20:03:16Z</time>
  <course>270.0</course>
  <speed>0.0</speed>
  <fix>3d</fix>
</trkpt>
<trkpt lat="-27.274439" lon="151.290064">
  <ele>342.87</ele>
  <time>2026-09-01T20:03:16Z</time>
  <course>10.8</course>
  <speed>0.0</speed>
  <fix>3d</fix>
</trkpt>
<trkpt lat="-27.274439" lon="151.290064">
  <ele>343.1</ele>
  <time>2026-09-01T20:03:16Z</time>
  <course>270.0</course>
  <speed>0.0</speed>
  <fix>3d</fix>
</trkpt>
<trkpt lat="-27.274439" lon="151.290064">
  <ele>342.92</ele>
  <time>2026-09-01T20:03:16Z</time>
  <course>10.8</course>
  <speed>0.0</speed>
  <fix>3d</fix>
</trkpt>
<trkpt lat="-27.274439" lon="151.290064">
  <ele>343.1</ele>
  <time>2026-09-01T20:03:16Z</time>
  <course>270.0</course>
  <speed>0.0</speed>
  <fix>3d</fix>
</trkpt>
<trkpt lat="-27.274439" lon="151.290064">
  <ele>342.96</ele>
  <time>2026-09-01T20:03:16Z</time>
  <course>10.8</course>
  <speed>0.0</speed>
  <fix>3d</fix>
</trkpt>
<trkpt lat="-27.274439" lon="151.290064">
  <ele>343.1</ele>
  <time>2026-09-01T20:03:16Z</time>
  <course>270.0</course>
  <speed>0.0</speed>
  <fix>3d</fix>
</trkpt>
<trkpt lat="-27.274439" lon="151.290064">
  <ele>343.15</ele>
  <time>2026-09-01T20:03:16Z</time>
  <course>10.8</course>
  <speed>0.0</speed>
  <fix>3d</fix>
</trkpt>
<trkpt lat="-27.274439" lon="151.290064">
  <ele>343.1</ele>
  <time>2026-09-01T20:03:16Z</time>
  <course>270.0</course>
  <speed>0.0</speed>
  <fix>3d</fix>
</trkpt>
<trkpt lat="-27.274439" lon="151.290064">
  <ele>343.16</ele>
  <time>2026-09-01T20:03:16Z</time>
  <course>10.8</course>
  <speed>0.0</speed>
  <fix>3d</fix>
</trkpt>
<trkpt lat="-27.274439" lon="151.290064">
  <ele>343.1</ele>
  <time>2026-09-01T20:03:16Z</time>
  <course>270.0</course>
  <speed>0.0</speed>
  <fix>3d</fix>
</trkpt>
<trkpt lat="-27.274439" lon="151.290064">
  <ele>343.2</ele>
  <time>2026-09-01T20:03:16Z</time>
  <course>10.81</course>
  <speed>0.0</speed>
  <fix>3d</fix>
</trkpt>
<trkpt lat="-27.274439" lon="151.290064">
  <ele>343.1</ele>
  <time>2026-09-01T20:03:16Z</time>
  <course>270.0</course>
  <speed>0.0</speed>
  <fix>3d</fix>
</trkpt>
<trkpt lat="-27.274439" lon="151.290064">
  <ele>343.13</ele>
  <time>2026-09-01T20:03:16Z</time>
  <course>10.82</course>
  <speed>0.0</speed>
  <fix>3d</fix>
</trkpt>
<trkpt lat="-27.274439" lon="151.290064">
  <ele>343.1</ele>
  <time>2026-09-01T20:03:16Z</time>
  <course>270.0</course>
  <speed>0.0</speed>
  <fix>3d</fix>
</trkpt>
<trkpt lat="-27.274439" lon="151.290064">
  <ele>343.09</ele>
  <time>2026-09-01T20:03:16Z</time>
  <course>10.71</course>
  <speed>0.0</speed>
  <fix>3d</fix>
</trkpt>
<trkpt lat="-27.274439" lon="151.290064">
  <ele>343.1</ele>
  <time>2026-09-01T20:03:16Z</time>
  <course>270.0</course>
  <speed>0.0</speed>
  <fix>3d</fix>
</trkpt>
<trkpt lat="-27.274439" lon="151.290064">
  <ele>343.09</ele>
  <time>2026-09-01T20:03:16Z</time>
  <course>10.71</course>
  <speed>0.0</speed>
  <fix>3d</fix>
</trkpt>
<trkpt lat="-27.274439" lon="151.290064">
  <ele>343.1</ele>
  <time>2026-09-01T20:03:16Z</time>
  <course>270.0</course>
  <speed>0.0</speed>
  <fix>3d</fix>
</trkpt>
<trkpt lat="-27.274439" lon="151.290064">
  <ele>343.1</ele>
  <time>2026-09-01T20:03:16Z</time>
  <course>10.71</course>
  <speed>0.0</speed>
  <fix>3d</fix>
</trkpt>
<trkpt lat="-27.274439" lon="151.290064">
  <ele>343.1</ele>
  <time>2026-09-01T20:03:16Z</time>
  <course>270.0</course>
  <speed>0.0</speed>
  <fix>3d</fix>
</trkpt>
<trkpt lat="-27.274439" lon="151.290064">
  <ele>343.1</ele>
  <time>2026-09-01T20:03:16Z</time>
  <course>10.71</course>
  <speed>0.0</speed>
  <fix>3d</fix>
</trkpt>
<trkpt lat="-27.274439" lon="151.290064">
  <ele>343.1</ele>
  <time>2026-09-01T20:03:16Z</time>
  <course>270.0</course>
  <speed>0.0</speed>
  <fix>3d</fix>
</trkpt>
<trkpt lat="-27.274439" lon="151.290064">
  <ele>343.1</ele>
  <time>2026-09-01T20:03:16Z</time>
  <course>10.71</course>
  <speed>0.0</speed>
  <fix>3d</fix>
</trkpt>
<trkpt lat="-27.274439" lon="151.290064">
  <ele>343.1</ele>
  <time>2026-09-01T20:03:16Z</time>
  <course>270.0</course>
  <speed>0.0</speed>
  <fix>3d</fix>
</trkpt>
<trkpt lat="-27.274439" lon="151.290064">
  <ele>343.1</ele>
  <time>2026-09-01T20:03:16Z</time>
  <course>10.71</course>
  <speed>0.0</speed>
  <fix>3d</fix>
</trkpt>
<trkpt lat="-27.274439" lon="151.290064">
  <ele>343.1</ele>
  <time>2026-09-01T20:03:16Z</time>
  <course>270.0</course>
  <speed>0.0</speed>
  <fix>3d</fix>
</trkpt>
<trkpt lat="-27.274439" lon="151.290064">
  <ele>343.1</ele>
  <time>2026-09-01T20:03:16Z</time>
  <course>10.71</course>
  <speed>0.0</speed>
  <fix>3d</fix>
</trkpt>
<trkpt lat="-27.274439" lon="151.290064">
  <ele>343.1</ele>
  <time>2026-09-01T20:03:16Z</time>
  <course>270.0</course>
  <speed>0.0</speed>
  <fix>3d</fix>
</trkpt>
<trkpt lat="-27.274439" lon="151.290064">
  <ele>343.11</ele>
  <time>2026-09-01T20:03:16Z</time>
  <course>10.71</course>
  <speed>0.0</speed>
  <fix>3d</fix>
</trkpt>
<trkpt lat="-27.274439" lon="151.290064">
  <ele>343.1</ele>
  <time>2026-09-01T20:03:16Z</time>
  <course>270.0</course>
  <speed>0.0</speed>
  <fix>3d</fix>
</trkpt>
<trkpt lat="-27.274439" lon="151.290064">
  <ele>343.11</ele>
  <time>2026-09-01T20:03:17Z</time>
  <course>10.71</course>
  <speed>0.0</speed>
  <fix>3d</fix>
</trkpt>
<trkpt lat="-27.274439" lon="151.290064">
  <ele>343.1</ele>
  <time>2026-09-01T20:03:17Z</time>
  <course>270.0</course>
  <speed>0.0</speed>
  <fix>3d</fix>
</trkpt>
<trkpt lat="-27.274439" lon="151.290064">
  <ele>343.11</ele>
  <time>2026-09-01T20:03:17Z</time>
  <course>10.71</course>
  <speed>0.0</speed>
  <fix>3d</fix>
</trkpt>
<trkpt lat="-27.274439" lon="151.290064">
  <ele>343.1</ele>
  <time>2026-09-01T20:03:17Z</time>
  <course>270.0</course>
  <speed>0.0</speed>
  <fix>3d</fix>
</trkpt>
<trkpt lat="-27.274439" lon="151.290064">
  <ele>343.12</ele>
  <time>2026-09-01T20:03:17Z</time>
  <course>10.71</course>
  <speed>0.0</speed>
  <fix>3d</fix>
</trkpt>
<trkpt lat="-27.274439" lon="151.290064">
  <ele>343.1</ele>
  <time>2026-09-01T20:03:17Z</time>
  <course>270.0</course>
  <speed>0.0</speed>
  <fix>3d</fix>
</trkpt>
<trkpt lat="-27.274439" lon="151.290064">
  <ele>343.12</ele>
  <time>2026-09-01T20:03:17Z</time>
  <course>10.71</course>
  <speed>0.0</speed>
  <fix>3d</fix>
</trkpt>
<trkpt lat="-27.274439" lon="151.290064">
  <ele>343.1</ele>
  <time>2026-09-01T20:03:17Z</time>
  <course>270.0</course>
  <speed>0.0</speed>
  <fix>3d</fix>
</trkpt>
<trkpt lat="-27.274439" lon="151.290064">
  <ele>343.1</ele>
  <time>2026-09-01T20:03:17Z</time>
  <course>10.71</course>
  <speed>0.0</speed>
  <fix>3d</fix>
</trkpt>
<trkpt lat="-27.274439" lon="151.290064">
  <ele>343.1</ele>
  <time>2026-09-01T20:03:17Z</time>
  <course>270.0</course>
  <speed>0.0</speed>
  <fix>3d</fix>
</trkpt>
<trkpt lat="-27.274439" lon="151.290064">
  <ele>343.1</ele>
  <time>2026-09-01T20:03:17Z</time>
  <course>10.71</course>
  <speed>0.0</speed>
  <fix>3d</fix>
</trkpt>
<trkpt lat="-27.274439" lon="151.290064">
  <ele>343.1</ele>
  <time>2026-09-01T20:03:17Z</time>
  <course>270.0</course>
  <speed>0.0</speed>
  <fix>3d</fix>
</trkpt>
<trkpt lat="-27.274439" lon="151.290064">
  <ele>343.1</ele>
  <time>2026-09-01T20:03:17Z</time>
  <course>10.71</course>
  <speed>0.0</speed>
  <fix>3d</fix>
</trkpt>
<trkpt lat="-27.274439" lon="151.290064">
  <ele>343.1</ele>
  <time>2026-09-01T20:03:17Z</time>
  <course>270.0</course>
  <speed>0.0</speed>
  <fix>3d</fix>
</trkpt>
<trkpt lat="-27.274439" lon="151.290064">
  <ele>343.09</ele>
  <time>2026-09-01T20:03:17Z</time>
  <course>10.71</course>
  <speed>0.0</speed>
  <fix>3d</fix>
</trkpt>
<trkpt lat="-27.274439" lon="151.290064">
  <ele>343.1</ele>
  <time>2026-09-01T20:03:17Z</time>
  <course>270.0</course>
  <speed>0.0</speed>
  <fix>3d</fix>
</trkpt>
<trkpt lat="-27.274439" lon="151.290064">
  <ele>343.09</ele>
  <time>2026-09-01T20:03:17Z</time>
  <course>10.71</course>
  <speed>0.0</speed>
  <fix>3d</fix>
</trkpt>
<trkpt lat="-27.274439" lon="151.290064">
  <ele>343.1</ele>
  <time>2026-09-01T20:03:17Z</time>
  <course>270.0</course>
  <speed>0.0</speed>
  <fix>3d</fix>
</trkpt>
<trkpt lat="-27.274439" lon="151.290064">
  <ele>343.09</ele>
  <time>2026-09-01T20:03:17Z</time>
  <course>10.71</course>
  <speed>0.0</speed>
  <fix>3d</fix>
</trkpt>
<trkpt lat="-27.274439" lon="151.290064">
  <ele>343.1</ele>
  <time>2026-09-01T20:03:17Z</time>
  <course>270.0</course>
  <speed>0.0</speed>
  <fix>3d</fix>
</trkpt>
<trkpt lat="-27.274439" lon="151.290064">
  <ele>343.1</ele>
  <time>2026-09-01T20:03:17Z</time>
  <course>10.71</course>
  <speed>0.0</speed>
  <fix>3d</fix>
</trkpt>
<trkpt lat="-27.274439" lon="151.290064">
  <ele>343.1</ele>
  <time>2026-09-01T20:03:17Z</time>
  <course>270.0</course>
  <speed>0.0</speed>
  <fix>3d</fix>
</trkpt>
<trkpt lat="-27.274439" lon="151.290064">
  <ele>343.1</ele>
  <time>2026-09-01T20:03:17Z</time>
  <course>10.71</course>
  <speed>0.0</speed>
  <fix>3d</fix>
</trkpt>
<trkpt lat="-27.274439" lon="151.290064">
  <ele>343.1</ele>
  <time>2026-09-01T20:03:17Z</time>
  <course>270.0</course>
  <speed>0.0</speed>
  <fix>3d</fix>
</trkpt>
<trkpt lat="-27.274439" lon="151.290064">
  <ele>343.09</ele>
  <time>2026-09-01T20:03:17Z</time>
  <course>10.71</course>
  <speed>0.0</speed>
  <fix>3d</fix>
</trkpt>
<trkpt lat="-27.274439" lon="151.290064">
  <ele>343.1</ele>
  <time>2026-09-01T20:03:17Z</time>
  <course>270.0</course>
  <speed>0.0</speed>
  <fix>3d</fix>
</trkpt>
<trkpt lat="-27.274439" lon="151.290064">
  <ele>343.09</ele>
  <time>2026-09-01T20:03:17Z</time>
  <course>10.71</course>
  <speed>0.0</speed>
  <fix>3d</fix>
</trkpt>
<trkpt lat="-27.274439" lon="151.290064">
  <ele>343.1</ele>
  <time>2026-09-01T20:03:17Z</time>
  <course>270.0</course>
  <speed>0.0</speed>
  <fix>3d</fix>
</trkpt>
<trkpt lat="-27.274439" lon="151.290064">
  <ele>343.09</ele>
  <time>2026-09-01T20:03:17Z</time>
  <course>10.71</course>
  <speed>0.0</speed>
  <fix>3d</fix>
</trkpt>
<trkpt lat="-27.274439" lon="151.290064">
  <ele>343.1</ele>
  <time>2026-09-01T20:03:17Z</time>
  <course>270.0</course>
  <speed>0.0</speed>
  <fix>3d</fix>
</trkpt>
<trkpt lat="-27.274439" lon="151.290064">
  <ele>343.09</ele>
  <time>2026-09-01T20:03:17Z</time>
  <course>10.71</course>
  <speed>0.0</speed>
  <fix>3d</fix>
</trkpt>
<trkpt lat="-27.274439" lon="151.290064">
  <ele>343.1</ele>
  <time>2026-09-01T20:03:17Z</time>
  <course>270.0</course>
  <speed>0.0</speed>
  <fix>3d</fix>
</trkpt>
<trkpt lat="-27.274439" lon="151.290064">
  <ele>343.09</ele>
  <time>2026-09-01T20:03:17Z</time>
  <course>10.71</course>
  <speed>0.0</speed>
  <fix>3d</fix>
</trkpt>
<trkpt lat="-27.274439" lon="151.290064">
  <ele>343.1</ele>
  <time>2026-09-01T20:03:17Z</time>
  <course>270.0</course>
  <speed>0.0</speed>
  <fix>3d</fix>
</trkpt>
<trkpt lat="-27.274439" lon="151.290064">
  <ele>343.09</ele>
  <time>2026-09-01T20:03:17Z</time>
  <course>10.71</course>
  <speed>0.0</speed>
  <fix>3d</fix>
</trkpt>
<trkpt lat="-27.274439" lon="151.290064">
  <ele>343.1</ele>
  <time>2026-09-01T20:03:17Z</time>
  <course>270.0</course>
  <speed>0.0</speed>
  <fix>3d</fix>
</trkpt>
<trkpt lat="-27.274439" lon="151.290064">
  <ele>343.09</ele>
  <time>2026-09-01T20:03:17Z</time>
  <course>10.71</course>
  <speed>0.0</speed>
  <fix>3d</fix>
</trkpt>
<trkpt lat="-27.274439" lon="151.290064">
  <ele>343.1</ele>
  <time>2026-09-01T20:03:17Z</time>
  <course>270.0</course>
  <speed>0.0</speed>
  <fix>3d</fix>
</trkpt>
<trkpt lat="-27.274439" lon="151.290064">
  <ele>343.09</ele>
  <time>2026-09-01T20:03:17Z</time>
  <course>10.71</course>
  <speed>0.0</speed>
  <fix>3d</fix>
</trkpt>
<trkpt lat="-27.274439" lon="151.290064">
  <ele>343.1</ele>
  <time>2026-09-01T20:03:17Z</time>
  <course>270.0</course>
  <speed>0.0</speed>
  <fix>3d</fix>
</trkpt>
<trkpt lat="-27.274439" lon="151.290064">
  <ele>343.1</ele>
  <time>2026-09-01T20:03:17Z</time>
  <course>10.71</course>
  <speed>0.0</speed>
  <fix>3d</fix>
</trkpt>
<trkpt lat="-27.274439" lon="151.290064">
  <ele>343.1</ele>
  <time>2026-09-01T20:03:17Z</time>
  <course>270.0</course>
  <speed>0.0</speed>
  <fix>3d</fix>
</trkpt>
<trkpt lat="-27.274439" lon="151.290064">
  <ele>343.1</ele>
  <time>2026-09-01T20:03:17Z</time>
  <course>10.71</course>
  <speed>0.0</speed>
  <fix>3d</fix>
</trkpt>
<trkpt lat="-27.274439" lon="151.290064">
  <ele>343.1</ele>
  <time>2026-09-01T20:03:17Z</time>
  <course>270.0</course>
  <speed>0.0</speed>
  <fix>3d</fix>
</trkpt>
<trkpt lat="-27.274439" lon="151.290064">
  <ele>343.1</ele>
  <time>2026-09-01T20:03:17Z</time>
  <course>10.71</course>
  <speed>0.0</speed>
  <fix>3d</fix>
</trkpt>
<trkpt lat="-27.274439" lon="151.290064">
  <ele>343.1</ele>
  <time>2026-09-01T20:03:17Z</time>
  <course>270.0</course>
  <speed>0.0</speed>
  <fix>3d</fix>
</trkpt>
<trkpt lat="-27.274439" lon="151.290064">
  <ele>343.1</ele>
  <time>2026-09-01T20:03:17Z</time>
  <course>10.71</course>
  <speed>0.0</speed>
  <fix>3d</fix>
</trkpt>
<trkpt lat="-27.274439" lon="151.290064">
  <ele>343.1</ele>
  <time>2026-09-01T20:03:17Z</time>
  <course>270.0</course>
  <speed>0.0</speed>
  <fix>3d</fix>
</trkpt>
<trkpt lat="-27.274439" lon="151.290064">
  <ele>343.11</ele>
  <time>2026-09-01T20:03:17Z</time>
  <course>10.71</course>
  <speed>0.0</speed>
  <fix>3d</fix>
</trkpt>
<trkpt lat="-27.274439" lon="151.290064">
  <ele>343.1</ele>
  <time>2026-09-01T20:03:17Z</time>
  <course>270.0</course>
  <speed>0.0</speed>
  <fix>3d</fix>
</trkpt>
<trkpt lat="-27.274439" lon="151.290064">
  <ele>343.11</ele>
  <time>2026-09-01T20:03:17Z</time>
  <course>10.71</course>
  <speed>0.0</speed>
  <fix>3d</fix>
</trkpt>
<trkpt lat="-27.274439" lon="151.290064">
  <ele>343.1</ele>
  <time>2026-09-01T20:03:17Z</time>
  <course>270.0</course>
  <speed>0.0</speed>
  <fix>3d</fix>
</trkpt>
<trkpt lat="-27.274439" lon="151.290064">
  <ele>343.11</ele>
  <time>2026-09-01T20:03:17Z</time>
  <course>10.71</course>
  <speed>0.0</speed>
  <fix>3d</fix>
</trkpt>
<trkpt lat="-27.274439" lon="151.290064">
  <ele>343.1</ele>
  <time>2026-09-01T20:03:17Z</time>
  <course>270.0</course>
  <speed>0.0</speed>
  <fix>3d</fix>
</trkpt>
<trkpt lat="-27.274439" lon="151.290064">
  <ele>343.11</ele>
  <time>2026-09-01T20:03:17Z</time>
  <course>10.71</course>
  <speed>0.0</speed>
  <fix>3d</fix>
</trkpt>
<trkpt lat="-27.274439" lon="151.290064">
  <ele>343.1</ele>
  <time>2026-09-01T20:03:17Z</time>
  <course>270.0</course>
  <speed>0.0</speed>
  <fix>3d</fix>
</trkpt>
<trkpt lat="-27.274439" lon="151.290064">
  <ele>343.12</ele>
  <time>2026-09-01T20:03:17Z</time>
  <course>10.71</course>
  <speed>0.0</speed>
  <fix>3d</fix>
</trkpt>
<trkpt lat="-27.274439" lon="151.290064">
  <ele>343.1</ele>
  <time>2026-09-01T20:03:17Z</time>
  <course>270.0</course>
  <speed>0.0</speed>
  <fix>3d</fix>
</trkpt>
<trkpt lat="-27.274439" lon="151.290064">
  <ele>343.12</ele>
  <time>2026-09-01T20:03:17Z</time>
  <course>10.71</course>
  <speed>0.0</speed>
  <fix>3d</fix>
</trkpt>
<trkpt lat="-27.274439" lon="151.290064">
  <ele>343.1</ele>
  <time>2026-09-01T20:03:17Z</time>
  <course>270.0</course>
  <speed>0.0</speed>
  <fix>3d</fix>
</trkpt>
<trkpt lat="-27.274439" lon="151.290064">
  <ele>343.12</ele>
  <time>2026-09-01T20:03:17Z</time>
  <course>10.71</course>
  <speed>0.0</speed>
  <fix>3d</fix>
</trkpt>
<trkpt lat="-27.274439" lon="151.290064">
  <ele>343.1</ele>
  <time>2026-09-01T20:03:17Z</time>
  <course>270.0</course>
  <speed>0.0</speed>
  <fix>3d</fix>
</trkpt>
<trkpt lat="-27.274439" lon="151.290064">
  <ele>343.12</ele>
  <time>2026-09-01T20:03:17Z</time>
  <course>10.71</course>
  <speed>0.0</speed>
  <fix>3d</fix>
</trkpt>
<trkpt lat="-27.274439" lon="151.290064">
  <ele>343.1</ele>
  <time>2026-09-01T20:03:17Z</time>
  <course>270.0</course>
  <speed>0.0</speed>
  <fix>3d</fix>
</trkpt>
<trkpt lat="-27.274439" lon="151.290064">
  <ele>343.12</ele>
  <time>2026-09-01T20:03:17Z</time>
  <course>10.71</course>
  <speed>0.0</speed>
  <fix>3d</fix>
</trkpt>
<trkpt lat="-27.274439" lon="151.290064">
  <ele>343.1</ele>
  <time>2026-09-01T20:03:17Z</time>
  <course>270.0</course>
  <speed>0.0</speed>
  <fix>3d</fix>
</trkpt>
<trkpt lat="-27.274439" lon="151.290064">
  <ele>343.13</ele>
  <time>2026-09-01T20:03:17Z</time>
  <course>10.71</course>
  <speed>0.0</speed>
  <fix>3d</fix>
</trkpt>
<trkpt lat="-27.274439" lon="151.290064">
  <ele>343.1</ele>
  <time>2026-09-01T20:03:17Z</time>
  <course>270.0</course>
  <speed>0.0</speed>
  <fix>3d</fix>
</trkpt>
<trkpt lat="-27.274439" lon="151.290064">
  <ele>343.13</ele>
  <time>2026-09-01T20:03:17Z</time>
  <course>10.71</course>
  <speed>0.0</speed>
  <fix>3d</fix>
</trkpt>
<trkpt lat="-27.274439" lon="151.290064">
  <ele>343.1</ele>
  <time>2026-09-01T20:03:17Z</time>
  <course>270.0</course>
  <speed>0.0</speed>
  <fix>3d</fix>
</trkpt>
<trkpt lat="-27.274439" lon="151.290064">
  <ele>343.13</ele>
  <time>2026-09-01T20:03:17Z</time>
  <course>10.71</course>
  <speed>0.0</speed>
  <fix>3d</fix>
</trkpt>
<trkpt lat="-27.274439" lon="151.290064">
  <ele>343.1</ele>
  <time>2026-09-01T20:03:17Z</time>
  <course>270.0</course>
  <speed>0.0</speed>
  <fix>3d</fix>
</trkpt>
<trkpt lat="-27.274439" lon="151.290064">
  <ele>343.13</ele>
  <time>2026-09-01T20:03:17Z</time>
  <course>10.71</course>
  <speed>0.0</speed>
  <fix>3d</fix>
</trkpt>
<trkpt lat="-27.274439" lon="151.290064">
  <ele>343.1</ele>
  <time>2026-09-01T20:03:17Z</time>
  <course>270.0</course>
  <speed>0.0</speed>
  <fix>3d</fix>
</trkpt>
<trkpt lat="-27.274439" lon="151.290064">
  <ele>343.14</ele>
  <time>2026-09-01T20:03:17Z</time>
  <course>10.71</course>
  <speed>0.0</speed>
  <fix>3d</fix>
</trkpt>
<trkpt lat="-27.274439" lon="151.290064">
  <ele>343.1</ele>
  <time>2026-09-01T20:03:17Z</time>
  <course>270.0</course>
  <speed>0.0</speed>
  <fix>3d</fix>
</trkpt>
<trkpt lat="-27.274439" lon="151.290064">
  <ele>343.14</ele>
  <time>2026-09-01T20:03:17Z</time>
  <course>10.71</course>
  <speed>0.0</speed>
  <fix>3d</fix>
</trkpt>
<trkpt lat="-27.274439" lon="151.290064">
  <ele>343.1</ele>
  <time>2026-09-01T20:03:17Z</time>
  <course>270.0</course>
  <speed>0.0</speed>
  <fix>3d</fix>
</trkpt>
<trkpt lat="-27.274439" lon="151.290064">
  <ele>343.14</ele>
  <time>2026-09-01T20:03:17Z</time>
  <course>10.71</course>
  <speed>0.0</speed>
  <fix>3d</fix>
</trkpt>
<trkpt lat="-27.274439" lon="151.290064">
  <ele>343.1</ele>
  <time>2026-09-01T20:03:17Z</time>
  <course>270.0</course>
  <speed>0.0</speed>
  <fix>3d</fix>
</trkpt>
<trkpt lat="-27.274439" lon="151.290064">
  <ele>343.14</ele>
  <time>2026-09-01T20:03:17Z</time>
  <course>10.71</course>
  <speed>0.0</speed>
  <fix>3d</fix>
</trkpt>
<trkpt lat="-27.274439" lon="151.290064">
  <ele>343.1</ele>
  <time>2026-09-01T20:03:17Z</time>
  <course>270.0</course>
  <speed>0.0</speed>
  <fix>3d</fix>
</trkpt>
<trkpt lat="-27.274439" lon="151.290064">
  <ele>343.14</ele>
  <time>2026-09-01T20:03:17Z</time>
  <course>10.71</course>
  <speed>0.0</speed>
  <fix>3d</fix>
</trkpt>
<trkpt lat="-27.274439" lon="151.290064">
  <ele>343.1</ele>
  <time>2026-09-01T20:03:17Z</time>
  <course>270.0</course>
  <speed>0.0</speed>
  <fix>3d</fix>
</trkpt>
<trkpt lat="-27.274439" lon="151.290064">
  <ele>343.14</ele>
  <time>2026-09-01T20:03:17Z</time>
  <course>10.71</course>
  <speed>0.0</speed>
  <fix>3d</fix>
</trkpt>
<trkpt lat="-27.274439" lon="151.290064">
  <ele>343.1</ele>
  <time>2026-09-01T20:03:17Z</time>
  <course>270.0</course>
  <speed>0.0</speed>
  <fix>3d</fix>
</trkpt>
<trkpt lat="-27.274439" lon="151.290064">
  <ele>343.14</ele>
  <time>2026-09-01T20:03:17Z</time>
  <course>10.71</course>
  <speed>0.0</speed>
  <fix>3d</fix>
</trkpt>
<trkpt lat="-27.274439" lon="151.290064">
  <ele>343.1</ele>
  <time>2026-09-01T20:03:17Z</time>
  <course>270.0</course>
  <speed>0.0</speed>
  <fix>3d</fix>
</trkpt>
<trkpt lat="-27.274439" lon="151.290064">
  <ele>343.14</ele>
  <time>2026-09-01T20:03:17Z</time>
  <course>10.71</course>
  <speed>0.0</speed>
  <fix>3d</fix>
</trkpt>
<trkpt lat="-27.274439" lon="151.290064">
  <ele>343.1</ele>
  <time>2026-09-01T20:03:17Z</time>
  <course>270.0</course>
  <speed>0.0</speed>
  <fix>3d</fix>
</trkpt>
<trkpt lat="-27.274439" lon="151.290064">
  <ele>343.13</ele>
  <time>2026-09-01T20:03:17Z</time>
  <course>10.71</course>
  <speed>0.0</speed>
  <fix>3d</fix>
</trkpt>
<trkpt lat="-27.274439" lon="151.290064">
  <ele>343.1</ele>
  <time>2026-09-01T20:03:17Z</time>
  <course>270.0</course>
  <speed>0.0</speed>
  <fix>3d</fix>
</trkpt>
<trkpt lat="-27.274439" lon="151.290064">
  <ele>343.13</ele>
  <time>2026-09-01T20:03:17Z</time>
  <course>10.71</course>
  <speed>0.0</speed>
  <fix>3d</fix>
</trkpt>
<trkpt lat="-27.274439" lon="151.290064">
  <ele>343.1</ele>
  <time>2026-09-01T20:03:17Z</time>
  <course>270.0</course>
  <speed>0.0</speed>
  <fix>3d</fix>
</trkpt>
<trkpt lat="-27.274439" lon="151.290064">
  <ele>343.13</ele>
  <time>2026-09-01T20:03:17Z</time>
  <course>10.71</course>
  <speed>0.0</speed>
  <fix>3d</fix>
</trkpt>
<trkpt lat="-27.274439" lon="151.290064">
  <ele>343.1</ele>
  <time>2026-09-01T20:03:17Z</time>
  <course>270.0</course>
  <speed>0.0</speed>
  <fix>3d</fix>
</trkpt>
<trkpt lat="-27.274439" lon="151.290064">
  <ele>343.13</ele>
  <time>2026-09-01T20:03:17Z</time>
  <course>10.71</course>
  <speed>0.0</speed>
  <fix>3d</fix>
</trkpt>
<trkpt lat="-27.274439" lon="151.290064">
  <ele>343.1</ele>
  <time>2026-09-01T20:03:17Z</time>
  <course>270.0</course>
  <speed>0.0</speed>
  <fix>3d</fix>
</trkpt>
<trkpt lat="-27.274439" lon="151.290064">
  <ele>343.13</ele>
  <time>2026-09-01T20:03:17Z</time>
  <course>10.71</course>
  <speed>0.0</speed>
  <fix>3d</fix>
</trkpt>
<trkpt lat="-27.274439" lon="151.290064">
  <ele>343.1</ele>
  <time>2026-09-01T20:03:17Z</time>
  <course>270.0</course>
  <speed>0.0</speed>
  <fix>3d</fix>
</trkpt>
<trkpt lat="-27.274439" lon="151.290064">
  <ele>343.13</ele>
  <time>2026-09-01T20:03:17Z</time>
  <course>10.71</course>
  <speed>0.0</speed>
  <fix>3d</fix>
</trkpt>
<trkpt lat="-27.274439" lon="151.290064">
  <ele>343.1</ele>
  <time>2026-09-01T20:03:17Z</time>
  <course>270.0</course>
  <speed>0.0</speed>
  <fix>3d</fix>
</trkpt>
<trkpt lat="-27.274439" lon="151.290064">
  <ele>343.13</ele>
  <time>2026-09-01T20:03:17Z</time>
  <course>10.71</course>
  <speed>0.0</speed>
  <fix>3d</fix>
</trkpt>
<trkpt lat="-27.274439" lon="151.290064">
  <ele>343.1</ele>
  <time>2026-09-01T20:03:17Z</time>
  <course>270.0</course>
  <speed>0.0</speed>
  <fix>3d</fix>
</trkpt>
<trkpt lat="-27.274439" lon="151.290064">
  <ele>343.13</ele>
  <time>2026-09-01T20:03:17Z</time>
  <course>10.71</course>
  <speed>0.0</speed>
  <fix>3d</fix>
</trkpt>
<trkpt lat="-27.274439" lon="151.290064">
  <ele>343.1</ele>
  <time>2026-09-01T20:03:17Z</time>
  <course>270.0</course>
  <speed>0.0</speed>
  <fix>3d</fix>
</trkpt>
<trkpt lat="-27.274439" lon="151.290064">
  <ele>343.14</ele>
  <time>2026-09-01T20:03:17Z</time>
  <course>10.71</course>
  <speed>0.0</speed>
  <fix>3d</fix>
</trkpt>
<trkpt lat="-27.274439" lon="151.290064">
  <ele>343.1</ele>
  <time>2026-09-01T20:03:17Z</time>
  <course>270.0</course>
  <speed>0.0</speed>
  <fix>3d</fix>
</trkpt>
<trkpt lat="-27.274439" lon="151.290064">
  <ele>343.14</ele>
  <time>2026-09-01T20:03:17Z</time>
  <course>10.71</course>
  <speed>0.0</speed>
  <fix>3d</fix>
</trkpt>
<trkpt lat="-27.274439" lon="151.290064">
  <ele>343.1</ele>
  <time>2026-09-01T20:03:17Z</time>
  <course>270.0</course>
  <speed>0.0</speed>
  <fix>3d</fix>
</trkpt>
<trkpt lat="-27.274439" lon="151.290064">
  <ele>343.14</ele>
  <time>2026-09-01T20:03:17Z</time>
  <course>10.71</course>
  <speed>0.0</speed>
  <fix>3d</fix>
</trkpt>
<trkpt lat="-27.274439" lon="151.290064">
  <ele>343.1</ele>
  <time>2026-09-01T20:03:17Z</time>
  <course>270.0</course>
  <speed>0.0</speed>
  <fix>3d</fix>
</trkpt>
<trkpt lat="-27.274439" lon="151.290064">
  <ele>343.14</ele>
  <time>2026-09-01T20:03:17Z</time>
  <course>10.71</course>
  <speed>0.0</speed>
  <fix>3d</fix>
</trkpt>
<trkpt lat="-27.274439" lon="151.290064">
  <ele>343.1</ele>
  <time>2026-09-01T20:03:17Z</time>
  <course>270.0</course>
  <speed>0.0</speed>
  <fix>3d</fix>
</trkpt>
<trkpt lat="-27.274439" lon="151.290064">
  <ele>343.14</ele>
  <time>2026-09-01T20:03:17Z</time>
  <course>10.71</course>
  <speed>0.0</speed>
  <fix>3d</fix>
</trkpt>
<trkpt lat="-27.274439" lon="151.290064">
  <ele>343.1</ele>
  <time>2026-09-01T20:03:17Z</time>
  <course>270.0</course>
  <speed>0.0</speed>
  <fix>3d</fix>
</trkpt>
<trkpt lat="-27.274439" lon="151.290064">
  <ele>343.14</ele>
  <time>2026-09-01T20:03:17Z</time>
  <course>10.71</course>
  <speed>0.0</speed>
  <fix>3d</fix>
</trkpt>
<trkpt lat="-27.274439" lon="151.290064">
  <ele>343.1</ele>
  <time>2026-09-01T20:03:17Z</time>
  <course>270.0</course>
  <speed>0.0</speed>
  <fix>3d</fix>
</trkpt>
<trkpt lat="-27.274439" lon="151.290064">
  <ele>343.15</ele>
  <time>2026-09-01T20:03:17Z</time>
  <course>10.71</course>
  <speed>0.0</speed>
  <fix>3d</fix>
</trkpt>
<trkpt lat="-27.274439" lon="151.290064">
  <ele>343.1</ele>
  <time>2026-09-01T20:03:17Z</time>
  <course>270.0</course>
  <speed>0.0</speed>
  <fix>3d</fix>
</trkpt>
<trkpt lat="-27.274439" lon="151.290064">
  <ele>343.15</ele>
  <time>2026-09-01T20:03:17Z</time>
  <course>10.71</course>
  <speed>0.0</speed>
  <fix>3d</fix>
</trkpt>
<trkpt lat="-27.274439" lon="151.290064">
  <ele>343.1</ele>
  <time>2026-09-01T20:03:17Z</time>
  <course>270.0</course>
  <speed>0.0</speed>
  <fix>3d</fix>
</trkpt>
<trkpt lat="-27.274439" lon="151.290064">
  <ele>343.15</ele>
  <time>2026-09-01T20:03:17Z</time>
  <course>10.71</course>
  <speed>0.0</speed>
  <fix>3d</fix>
</trkpt>
<trkpt lat="-27.274439" lon="151.290064">
  <ele>343.1</ele>
  <time>2026-09-01T20:03:17Z</time>
  <course>270.0</course>
  <speed>0.0</speed>
  <fix>3d</fix>
</trkpt>
<trkpt lat="-27.274439" lon="151.290064">
  <ele>343.15</ele>
  <time>2026-09-01T20:03:17Z</time>
  <course>10.71</course>
  <speed>0.0</speed>
  <fix>3d</fix>
</trkpt>
<trkpt lat="-27.274439" lon="151.290064">
  <ele>343.1</ele>
  <time>2026-09-01T20:03:17Z</time>
  <course>270.0</course>
  <speed>0.0</speed>
  <fix>3d</fix>
</trkpt>
<trkpt lat="-27.274439" lon="151.290064">
  <ele>343.15</ele>
  <time>2026-09-01T20:03:17Z</time>
  <course>10.71</course>
  <speed>0.0</speed>
  <fix>3d</fix>
</trkpt>
<trkpt lat="-27.274439" lon="151.290064">
  <ele>343.1</ele>
  <time>2026-09-01T20:03:17Z</time>
  <course>270.0</course>
  <speed>0.0</speed>
  <fix>3d</fix>
</trkpt>
<trkpt lat="-27.274439" lon="151.290064">
  <ele>343.1</ele>
  <time>2026-09-01T20:03:17Z</time>
  <course>10.71</course>
  <speed>0.0</speed>
  <fix>3d</fix>
</trkpt>
<trkpt lat="-27.274439" lon="151.290064">
  <ele>343.1</ele>
  <time>2026-09-01T20:03:17Z</time>
  <course>270.0</course>
  <speed>0.0</speed>
  <fix>3d</fix>
</trkpt>
<trkpt lat="-27.274439" lon="151.290064">
  <ele>343.1</ele>
  <time>2026-09-01T20:03:17Z</time>
  <course>10.71</course>
  <speed>0.0</speed>
  <fix>3d</fix>
</trkpt>
<trkpt lat="-27.274439" lon="151.290064">
  <ele>343.1</ele>
  <time>2026-09-01T20:03:17Z</time>
  <course>270.0</course>
  <speed>0.0</speed>
  <fix>3d</fix>
</trkpt>
<trkpt lat="-27.274439" lon="151.290064">
  <ele>343.1</ele>
  <time>2026-09-01T20:03:17Z</time>
  <course>10.71</course>
  <speed>0.0</speed>
  <fix>3d</fix>
</trkpt>
<trkpt lat="-27.274439" lon="151.290064">
  <ele>343.1</ele>
  <time>2026-09-01T20:03:17Z</time>
  <course>270.0</course>
  <speed>0.0</speed>
  <fix>3d</fix>
</trkpt>
<trkpt lat="-27.274439" lon="151.290064">
  <ele>343.1</ele>
  <time>2026-09-01T20:03:17Z</time>
  <course>10.71</course>
  <speed>0.0</speed>
  <fix>3d</fix>
</trkpt>
<trkpt lat="-27.274439" lon="151.290064">
  <ele>343.1</ele>
  <time>2026-09-01T20:03:17Z</time>
  <course>270.0</course>
  <speed>0.0</speed>
  <fix>3d</fix>
</trkpt>
<trkpt lat="-27.274439" lon="151.290064">
  <ele>343.09</ele>
  <time>2026-09-01T20:03:17Z</time>
  <course>10.71</course>
  <speed>0.0</speed>
  <fix>3d</fix>
</trkpt>
<trkpt lat="-27.274439" lon="151.290064">
  <ele>343.1</ele>
  <time>2026-09-01T20:03:17Z</time>
  <course>270.0</course>
  <speed>0.0</speed>
  <fix>3d</fix>
</trkpt>
<trkpt lat="-27.274439" lon="151.290064">
  <ele>343.09</ele>
  <time>2026-09-01T20:03:17Z</time>
  <course>10.71</course>
  <speed>0.0</speed>
  <fix>3d</fix>
</trkpt>
<trkpt lat="-27.274439" lon="151.290064">
  <ele>343.1</ele>
  <time>2026-09-01T20:03:17Z</time>
  <course>270.0</course>
  <speed>0.0</speed>
  <fix>3d</fix>
</trkpt>
<trkpt lat="-27.274439" lon="151.290064">
  <ele>343.08</ele>
  <time>2026-09-01T20:03:17Z</time>
  <course>10.71</course>
  <speed>0.0</speed>
  <fix>3d</fix>
</trkpt>
<trkpt lat="-27.274439" lon="151.290064">
  <ele>343.1</ele>
  <time>2026-09-01T20:03:17Z</time>
  <course>270.0</course>
  <speed>0.0</speed>
  <fix>3d</fix>
</trkpt>
<trkpt lat="-27.274439" lon="151.290064">
  <ele>343.08</ele>
  <time>2026-09-01T20:03:17Z</time>
  <course>10.71</course>
  <speed>0.0</speed>
  <fix>3d</fix>
</trkpt>
<trkpt lat="-27.274439" lon="151.290064">
  <ele>343.1</ele>
  <time>2026-09-01T20:03:17Z</time>
  <course>270.0</course>
  <speed>0.0</speed>
  <fix>3d</fix>
</trkpt>
<trkpt lat="-27.274439" lon="151.290064">
  <ele>343.07</ele>
  <time>2026-09-01T20:03:17Z</time>
  <course>10.71</course>
  <speed>0.0</speed>
  <fix>3d</fix>
</trkpt>
<trkpt lat="-27.274439" lon="151.290064">
  <ele>343.1</ele>
  <time>2026-09-01T20:03:17Z</time>
  <course>270.0</course>
  <speed>0.0</speed>
  <fix>3d</fix>
</trkpt>
<trkpt lat="-27.274439" lon="151.290064">
  <ele>343.07</ele>
  <time>2026-09-01T20:03:17Z</time>
  <course>10.71</course>
  <speed>0.0</speed>
  <fix>3d</fix>
</trkpt>
<trkpt lat="-27.274439" lon="151.290064">
  <ele>343.1</ele>
  <time>2026-09-01T20:03:17Z</time>
  <course>270.0</course>
  <speed>0.0</speed>
  <fix>3d</fix>
</trkpt>
<trkpt lat="-27.274439" lon="151.290064">
  <ele>343.06</ele>
  <time>2026-09-01T20:03:17Z</time>
  <course>10.71</course>
  <speed>0.0</speed>
  <fix>3d</fix>
</trkpt>
<trkpt lat="-27.274439" lon="151.290064">
  <ele>343.1</ele>
  <time>2026-09-01T20:03:17Z</time>
  <course>270.0</course>
  <speed>0.0</speed>
  <fix>3d</fix>
</trkpt>
<trkpt lat="-27.274439" lon="151.290064">
  <ele>343.06</ele>
  <time>2026-09-01T20:03:17Z</time>
  <course>10.71</course>
  <speed>0.0</speed>
  <fix>3d</fix>
</trkpt>
<trkpt lat="-27.274439" lon="151.290064">
  <ele>343.1</ele>
  <time>2026-09-01T20:03:17Z</time>
  <course>270.0</course>
  <speed>0.0</speed>
  <fix>3d</fix>
</trkpt>
<trkpt lat="-27.274439" lon="151.290064">
  <ele>343.05</ele>
  <time>2026-09-01T20:03:17Z</time>
  <course>10.71</course>
  <speed>0.0</speed>
  <fix>3d</fix>
</trkpt>
<trkpt lat="-27.274439" lon="151.290064">
  <ele>343.1</ele>
  <time>2026-09-01T20:03:17Z</time>
  <course>270.0</course>
  <speed>0.0</speed>
  <fix>3d</fix>
</trkpt>
<trkpt lat="-27.274439" lon="151.290064">
  <ele>343.05</ele>
  <time>2026-09-01T20:03:17Z</time>
  <course>10.71</course>
  <speed>0.0</speed>
  <fix>3d</fix>
</trkpt>
<trkpt lat="-27.274439" lon="151.290064">
  <ele>343.1</ele>
  <time>2026-09-01T20:03:17Z</time>
  <course>270.0</course>
  <speed>0.0</speed>
  <fix>3d</fix>
</trkpt>
<trkpt lat="-27.274439" lon="151.290064">
  <ele>343.04</ele>
  <time>2026-09-01T20:03:17Z</time>
  <course>10.71</course>
  <speed>0.0</speed>
  <fix>3d</fix>
</trkpt>
<trkpt lat="-27.274439" lon="151.290064">
  <ele>343.1</ele>
  <time>2026-09-01T20:03:17Z</time>
  <course>270.0</course>
  <speed>0.0</speed>
  <fix>3d</fix>
</trkpt>
<trkpt lat="-27.274439" lon="151.290064">
  <ele>343.03</ele>
  <time>2026-09-01T20:03:17Z</time>
  <course>10.71</course>
  <speed>0.0</speed>
  <fix>3d</fix>
</trkpt>
<trkpt lat="-27.274439" lon="151.290064">
  <ele>343.1</ele>
  <time>2026-09-01T20:03:17Z</time>
  <course>270.0</course>
  <speed>0.0</speed>
  <fix>3d</fix>
</trkpt>
<trkpt lat="-27.274439" lon="151.290064">
  <ele>343.03</ele>
  <time>2026-09-01T20:03:17Z</time>
  <course>10.71</course>
  <speed>0.0</speed>
  <fix>3d</fix>
</trkpt>
<trkpt lat="-27.274439" lon="151.290064">
  <ele>343.1</ele>
  <time>2026-09-01T20:03:17Z</time>
  <course>270.0</course>
  <speed>0.0</speed>
  <fix>3d</fix>
</trkpt>
<trkpt lat="-27.274439" lon="151.290064">
  <ele>343.02</ele>
  <time>2026-09-01T20:03:17Z</time>
  <course>10.71</course>
  <speed>0.0</speed>
  <fix>3d</fix>
</trkpt>
<trkpt lat="-27.274439" lon="151.290064">
  <ele>343.1</ele>
  <time>2026-09-01T20:03:17Z</time>
  <course>270.0</course>
  <speed>0.0</speed>
  <fix>3d</fix>
</trkpt>
<trkpt lat="-27.274439" lon="151.290064">
  <ele>343.02</ele>
  <time>2026-09-01T20:03:17Z</time>
  <course>10.71</course>
  <speed>0.0</speed>
  <fix>3d</fix>
</trkpt>
<trkpt lat="-27.274439" lon="151.290064">
  <ele>343.1</ele>
  <time>2026-09-01T20:03:17Z</time>
  <course>270.0</course>
  <speed>0.0</speed>
  <fix>3d</fix>
</trkpt>
<trkpt lat="-27.274439" lon="151.290064">
  <ele>343.01</ele>
  <time>2026-09-01T20:03:17Z</time>
  <course>10.71</course>
  <speed>0.0</speed>
  <fix>3d</fix>
</trkpt>
<trkpt lat="-27.274439" lon="151.290064">
  <ele>343.1</ele>
  <time>2026-09-01T20:03:17Z</time>
  <course>270.0</course>
  <speed>0.0</speed>
  <fix>3d</fix>
</trkpt>
<trkpt lat="-27.274439" lon="151.290064">
  <ele>343.0</ele>
  <time>2026-09-01T20:03:17Z</time>
  <course>10.71</course>
  <speed>0.0</speed>
  <fix>3d</fix>
</trkpt>
<trkpt lat="-27.274439" lon="151.290064">
  <ele>343.1</ele>
  <time>2026-09-01T20:03:17Z</time>
  <course>270.0</course>
  <speed>0.0</speed>
  <fix>3d</fix>
</trkpt>
<trkpt lat="-27.274439" lon="151.290064">
  <ele>343.0</ele>
  <time>2026-09-01T20:03:17Z</time>
  <course>10.71</course>
  <speed>0.0</speed>
  <fix>3d</fix>
</trkpt>
<trkpt lat="-27.274439" lon="151.290064">
  <ele>343.1</ele>
  <time>2026-09-01T20:03:17Z</time>
  <course>270.0</course>
  <speed>0.0</speed>
  <fix>3d</fix>
</trkpt>
<trkpt lat="-27.274439" lon="151.290064">
  <ele>342.99</ele>
  <time>2026-09-01T20:03:17Z</time>
  <course>10.71</course>
  <speed>0.0</speed>
  <fix>3d</fix>
</trkpt>
<trkpt lat="-27.274439" lon="151.290064">
  <ele>343.1</ele>
  <time>2026-09-01T20:03:17Z</time>
  <course>270.0</course>
  <speed>0.0</speed>
  <fix>3d</fix>
</trkpt>
<trkpt lat="-27.274439" lon="151.290064">
  <ele>342.99</ele>
  <time>2026-09-01T20:03:17Z</time>
  <course>10.71</course>
  <speed>0.0</speed>
  <fix>3d</fix>
</trkpt>
<trkpt lat="-27.274439" lon="151.290064">
  <ele>343.1</ele>
  <time>2026-09-01T20:03:17Z</time>
  <course>270.0</course>
  <speed>0.0</speed>
  <fix>3d</fix>
</trkpt>
<trkpt lat="-27.274439" lon="151.290064">
  <ele>342.99</ele>
  <time>2026-09-01T20:03:17Z</time>
  <course>10.71</course>
  <speed>0.0</speed>
  <fix>3d</fix>
</trkpt>
<trkpt lat="-27.274439" lon="151.290064">
  <ele>343.1</ele>
  <time>2026-09-01T20:03:17Z</time>
  <course>270.0</course>
  <speed>0.0</speed>
  <fix>3d</fix>
</trkpt>
<trkpt lat="-27.274439" lon="151.290064">
  <ele>342.99</ele>
  <time>2026-09-01T20:03:17Z</time>
  <course>10.71</course>
  <speed>0.0</speed>
  <fix>3d</fix>
</trkpt>
<trkpt lat="-27.274439" lon="151.290064">
  <ele>343.1</ele>
  <time>2026-09-01T20:03:17Z</time>
  <course>270.0</course>
  <speed>0.0</speed>
  <fix>3d</fix>
</trkpt>
<trkpt lat="-27.274439" lon="151.290064">
  <ele>342.99</ele>
  <time>2026-09-01T20:03:17Z</time>
  <course>10.71</course>
  <speed>0.0</speed>
  <fix>3d</fix>
</trkpt>
<trkpt lat="-27.274439" lon="151.290064">
  <ele>343.1</ele>
  <time>2026-09-01T20:03:17Z</time>
  <course>270.0</course>
  <speed>0.0</speed>
  <fix>3d</fix>
</trkpt>
<trkpt lat="-27.274439" lon="151.290064">
  <ele>342.98</ele>
  <time>2026-09-01T20:03:17Z</time>
  <course>10.71</course>
  <speed>0.0</speed>
  <fix>3d</fix>
</trkpt>
<trkpt lat="-27.274439" lon="151.290064">
  <ele>343.1</ele>
  <time>2026-09-01T20:03:17Z</time>
  <course>270.0</course>
  <speed>0.0</speed>
  <fix>3d</fix>
</trkpt>
<trkpt lat="-27.274439" lon="151.290064">
  <ele>342.98</ele>
  <time>2026-09-01T20:03:17Z</time>
  <course>10.71</course>
  <speed>0.0</speed>
  <fix>3d</fix>
</trkpt>
<trkpt lat="-27.274439" lon="151.290064">
  <ele>343.1</ele>
  <time>2026-09-01T20:03:17Z</time>
  <course>270.0</course>
  <speed>0.0</speed>
  <fix>3d</fix>
</trkpt>
<trkpt lat="-27.274439" lon="151.290064">
  <ele>342.98</ele>
  <time>2026-09-01T20:03:17Z</time>
  <course>10.71</course>
  <speed>0.0</speed>
  <fix>3d</fix>
</trkpt>
<trkpt lat="-27.274439" lon="151.290064">
  <ele>343.1</ele>
  <time>2026-09-01T20:03:17Z</time>
  <course>270.0</course>
  <speed>0.0</speed>
  <fix>3d</fix>
</trkpt>
<trkpt lat="-27.274439" lon="151.290064">
  <ele>342.98</ele>
  <time>2026-09-01T20:03:17Z</time>
  <course>10.71</course>
  <speed>0.0</speed>
  <fix>3d</fix>
</trkpt>
<trkpt lat="-27.274439" lon="151.290064">
  <ele>343.1</ele>
  <time>2026-09-01T20:03:17Z</time>
  <course>270.0</course>
  <speed>0.0</speed>
  <fix>3d</fix>
</trkpt>
<trkpt lat="-27.274439" lon="151.290064">
  <ele>342.97</ele>
  <time>2026-09-01T20:03:17Z</time>
  <course>10.71</course>
  <speed>0.0</speed>
  <fix>3d</fix>
</trkpt>
<trkpt lat="-27.274439" lon="151.290064">
  <ele>343.1</ele>
  <time>2026-09-01T20:03:17Z</time>
  <course>270.0</course>
  <speed>0.0</speed>
  <fix>3d</fix>
</trkpt>
<trkpt lat="-27.274439" lon="151.290064">
  <ele>342.97</ele>
  <time>2026-09-01T20:03:17Z</time>
  <course>10.71</course>
  <speed>0.0</speed>
  <fix>3d</fix>
</trkpt>
<trkpt lat="-27.274439" lon="151.290064">
  <ele>343.1</ele>
  <time>2026-09-01T20:03:17Z</time>
  <course>270.0</course>
  <speed>0.0</speed>
  <fix>3d</fix>
</trkpt>
<trkpt lat="-27.274439" lon="151.290064">
  <ele>342.97</ele>
  <time>2026-09-01T20:03:17Z</time>
  <course>10.71</course>
  <speed>0.0</speed>
  <fix>3d</fix>
</trkpt>
<trkpt lat="-27.274439" lon="151.290064">
  <ele>343.1</ele>
  <time>2026-09-01T20:03:17Z</time>
  <course>270.0</course>
  <speed>0.0</speed>
  <fix>3d</fix>
</trkpt>
<trkpt lat="-27.274439" lon="151.290064">
  <ele>342.96</ele>
  <time>2026-09-01T20:03:17Z</time>
  <course>10.71</course>
  <speed>0.0</speed>
  <fix>3d</fix>
</trkpt>
<trkpt lat="-27.274439" lon="151.290064">
  <ele>343.1</ele>
  <time>2026-09-01T20:03:17Z</time>
  <course>270.0</course>
  <speed>0.0</speed>
  <fix>3d</fix>
</trkpt>
<trkpt lat="-27.274439" lon="151.290064">
  <ele>342.96</ele>
  <time>2026-09-01T20:03:17Z</time>
  <course>10.71</course>
  <speed>0.0</speed>
  <fix>3d</fix>
</trkpt>
<trkpt lat="-27.274439" lon="151.290064">
  <ele>343.1</ele>
  <time>2026-09-01T20:03:17Z</time>
  <course>270.0</course>
  <speed>0.0</speed>
  <fix>3d</fix>
</trkpt>
<trkpt lat="-27.274439" lon="151.290064">
  <ele>342.96</ele>
  <time>2026-09-01T20:03:17Z</time>
  <course>10.71</course>
  <speed>0.0</speed>
  <fix>3d</fix>
</trkpt>
<trkpt lat="-27.274439" lon="151.290064">
  <ele>343.1</ele>
  <time>2026-09-01T20:03:17Z</time>
  <course>270.0</course>
  <speed>0.0</speed>
  <fix>3d</fix>
</trkpt>
<trkpt lat="-27.274439" lon="151.290064">
  <ele>342.96</ele>
  <time>2026-09-01T20:03:17Z</time>
  <course>10.71</course>
  <speed>0.0</speed>
  <fix>3d</fix>
</trkpt>
<trkpt lat="-27.274439" lon="151.290064">
  <ele>343.1</ele>
  <time>2026-09-01T20:03:17Z</time>
  <course>270.0</course>
  <speed>0.0</speed>
  <fix>3d</fix>
</trkpt>
<trkpt lat="-27.274439" lon="151.290064">
  <ele>342.96</ele>
  <time>2026-09-01T20:03:17Z</time>
  <course>10.71</course>
  <speed>0.0</speed>
  <fix>3d</fix>
</trkpt>
<trkpt lat="-27.274439" lon="151.290064">
  <ele>343.1</ele>
  <time>2026-09-01T20:03:17Z</time>
  <course>270.0</course>
  <speed>0.0</speed>
  <fix>3d</fix>
</trkpt>
<trkpt lat="-27.274439" lon="151.290064">
  <ele>342.96</ele>
  <time>2026-09-01T20:03:17Z</time>
  <course>10.71</course>
  <speed>0.0</speed>
  <fix>3d</fix>
</trkpt>
<trkpt lat="-27.274439" lon="151.290064">
  <ele>343.1</ele>
  <time>2026-09-01T20:03:17Z</time>
  <course>270.0</course>
  <speed>0.0</speed>
  <fix>3d</fix>
</trkpt>
<trkpt lat="-27.274439" lon="151.290064">
  <ele>342.95</ele>
  <time>2026-09-01T20:03:17Z</time>
  <course>10.71</course>
  <speed>0.0</speed>
  <fix>3d</fix>
</trkpt>
<trkpt lat="-27.274439" lon="151.290064">
  <ele>343.1</ele>
  <time>2026-09-01T20:03:17Z</time>
  <course>270.0</course>
  <speed>0.0</speed>
  <fix>3d</fix>
</trkpt>
<trkpt lat="-27.274439" lon="151.290064">
  <ele>342.95</ele>
  <time>2026-09-01T20:03:17Z</time>
  <course>10.7</course>
  <speed>0.0</speed>
  <fix>3d</fix>
</trkpt>
<trkpt lat="-27.274439" lon="151.290064">
  <ele>343.1</ele>
  <time>2026-09-01T20:03:17Z</time>
  <course>270.0</course>
  <speed>0.0</speed>
  <fix>3d</fix>
</trkpt>
<trkpt lat="-27.274439" lon="151.290064">
  <ele>342.95</ele>
  <time>2026-09-01T20:03:17Z</time>
  <course>10.7</course>
  <speed>0.0</speed>
  <fix>3d</fix>
</trkpt>
<trkpt lat="-27.274439" lon="151.290064">
  <ele>343.1</ele>
  <time>2026-09-01T20:03:17Z</time>
  <course>270.0</course>
  <speed>0.0</speed>
  <fix>3d</fix>
</trkpt>
<trkpt lat="-27.274439" lon="151.290064">
  <ele>342.95</ele>
  <time>2026-09-01T20:03:17Z</time>
  <course>10.7</course>
  <speed>0.0</speed>
  <fix>3d</fix>
</trkpt>
<trkpt lat="-27.274439" lon="151.290064">
  <ele>343.1</ele>
  <time>2026-09-01T20:03:17Z</time>
  <course>270.0</course>
  <speed>0.0</speed>
  <fix>3d</fix>
</trkpt>
<trkpt lat="-27.274439" lon="151.290064">
  <ele>342.95</ele>
  <time>2026-09-01T20:03:17Z</time>
  <course>10.7</course>
  <speed>0.0</speed>
  <fix>3d</fix>
</trkpt>
<trkpt lat="-27.274439" lon="151.290064">
  <ele>343.1</ele>
  <time>2026-09-01T20:03:17Z</time>
  <course>270.0</course>
  <speed>0.0</speed>
  <fix>3d</fix>
</trkpt>
<trkpt lat="-27.274439" lon="151.290064">
  <ele>342.95</ele>
  <time>2026-09-01T20:03:17Z</time>
  <course>10.7</course>
  <speed>0.0</speed>
  <fix>3d</fix>
</trkpt>
<trkpt lat="-27.274439" lon="151.290064">
  <ele>343.1</ele>
  <time>2026-09-01T20:03:17Z</time>
  <course>270.0</course>
  <speed>0.0</speed>
  <fix>3d</fix>
</trkpt>
<trkpt lat="-27.274439" lon="151.290064">
  <ele>342.94</ele>
  <time>2026-09-01T20:03:17Z</time>
  <course>10.7</course>
  <speed>0.0</speed>
  <fix>3d</fix>
</trkpt>
<trkpt lat="-27.274439" lon="151.290064">
  <ele>343.1</ele>
  <time>2026-09-01T20:03:17Z</time>
  <course>270.0</course>
  <speed>0.0</speed>
  <fix>3d</fix>
</trkpt>
<trkpt lat="-27.274439" lon="151.290064">
  <ele>342.94</ele>
  <time>2026-09-01T20:03:17Z</time>
  <course>10.7</course>
  <speed>0.0</speed>
  <fix>3d</fix>
</trkpt>
<trkpt lat="-27.274439" lon="151.290064">
  <ele>343.1</ele>
  <time>2026-09-01T20:03:17Z</time>
  <course>270.0</course>
  <speed>0.0</speed>
  <fix>3d</fix>
</trkpt>
<trkpt lat="-27.274439" lon="151.290064">
  <ele>342.94</ele>
  <time>2026-09-01T20:03:17Z</time>
  <course>10.7</course>
  <speed>0.0</speed>
  <fix>3d</fix>
</trkpt>
<trkpt lat="-27.274439" lon="151.290064">
  <ele>343.1</ele>
  <time>2026-09-01T20:03:17Z</time>
  <course>270.0</course>
  <speed>0.0</speed>
  <fix>3d</fix>
</trkpt>
<trkpt lat="-27.274439" lon="151.290064">
  <ele>342.94</ele>
  <time>2026-09-01T20:03:17Z</time>
  <course>10.7</course>
  <speed>0.0</speed>
  <fix>3d</fix>
</trkpt>
<trkpt lat="-27.274439" lon="151.290064">
  <ele>343.1</ele>
  <time>2026-09-01T20:03:17Z</time>
  <course>270.0</course>
  <speed>0.0</speed>
  <fix>3d</fix>
</trkpt>
<trkpt lat="-27.274439" lon="151.290064">
  <ele>342.94</ele>
  <time>2026-09-01T20:03:17Z</time>
  <course>10.7</course>
  <speed>0.0</speed>
  <fix>3d</fix>
</trkpt>
<trkpt lat="-27.274439" lon="151.290064">
  <ele>343.1</ele>
  <time>2026-09-01T20:03:17Z</time>
  <course>270.0</course>
  <speed>0.0</speed>
  <fix>3d</fix>
</trkpt>
<trkpt lat="-27.274439" lon="151.290064">
  <ele>342.93</ele>
  <time>2026-09-01T20:03:17Z</time>
  <course>10.7</course>
  <speed>0.0</speed>
  <fix>3d</fix>
</trkpt>
<trkpt lat="-27.274439" lon="151.290064">
  <ele>343.1</ele>
  <time>2026-09-01T20:03:17Z</time>
  <course>270.0</course>
  <speed>0.0</speed>
  <fix>3d</fix>
</trkpt>
<trkpt lat="-27.274439" lon="151.290064">
  <ele>342.93</ele>
  <time>2026-09-01T20:03:17Z</time>
  <course>10.7</course>
  <speed>0.0</speed>
  <fix>3d</fix>
</trkpt>
<trkpt lat="-27.274439" lon="151.290064">
  <ele>343.1</ele>
  <time>2026-09-01T20:03:17Z</time>
  <course>270.0</course>
  <speed>0.0</speed>
  <fix>3d</fix>
</trkpt>
<trkpt lat="-27.274439" lon="151.290064">
  <ele>342.93</ele>
  <time>2026-09-01T20:03:17Z</time>
  <course>10.7</course>
  <speed>0.0</speed>
  <fix>3d</fix>
</trkpt>
<trkpt lat="-27.274439" lon="151.290064">
  <ele>343.1</ele>
  <time>2026-09-01T20:03:17Z</time>
  <course>270.0</course>
  <speed>0.0</speed>
  <fix>3d</fix>
</trkpt>
<trkpt lat="-27.274439" lon="151.290064">
  <ele>342.93</ele>
  <time>2026-09-01T20:03:17Z</time>
  <course>10.7</course>
  <speed>0.0</speed>
  <fix>3d</fix>
</trkpt>
<trkpt lat="-27.274439" lon="151.290064">
  <ele>343.1</ele>
  <time>2026-09-01T20:03:17Z</time>
  <course>270.0</course>
  <speed>0.0</speed>
  <fix>3d</fix>
</trkpt>
<trkpt lat="-27.274439" lon="151.290064">
  <ele>342.93</ele>
  <time>2026-09-01T20:03:17Z</time>
  <course>10.7</course>
  <speed>0.0</speed>
  <fix>3d</fix>
</trkpt>
<trkpt lat="-27.274439" lon="151.290064">
  <ele>343.1</ele>
  <time>2026-09-01T20:03:17Z</time>
  <course>270.0</course>
  <speed>0.0</speed>
  <fix>3d</fix>
</trkpt>
<trkpt lat="-27.274439" lon="151.290064">
  <ele>342.93</ele>
  <time>2026-09-01T20:03:17Z</time>
  <course>10.7</course>
  <speed>0.0</speed>
  <fix>3d</fix>
</trkpt>
<trkpt lat="-27.274439" lon="151.290064">
  <ele>343.1</ele>
  <time>2026-09-01T20:03:17Z</time>
  <course>270.0</course>
  <speed>0.0</speed>
  <fix>3d</fix>
</trkpt>
<trkpt lat="-27.274439" lon="151.290064">
  <ele>342.93</ele>
  <time>2026-09-01T20:03:17Z</time>
  <course>10.7</course>
  <speed>0.01</speed>
  <fix>3d</fix>
</trkpt>
<trkpt lat="-27.274439" lon="151.290064">
  <ele>343.1</ele>
  <time>2026-09-01T20:03:17Z</time>
  <course>270.0</course>
  <speed>0.0</speed>
  <fix>3d</fix>
</trkpt>
<trkpt lat="-27.274439" lon="151.290064">
  <ele>342.93</ele>
  <time>2026-09-01T20:03:17Z</time>
  <course>10.7</course>
  <speed>0.01</speed>
  <fix>3d</fix>
</trkpt>
<trkpt lat="-27.274439" lon="151.290064">
  <ele>343.1</ele>
  <time>2026-09-01T20:03:17Z</time>
  <course>270.0</course>
  <speed>0.0</speed>
  <fix>3d</fix>
</trkpt>
<trkpt lat="-27.274439" lon="151.290064">
  <ele>342.92</ele>
  <time>2026-09-01T20:03:17Z</time>
  <course>10.7</course>
  <speed>0.01</speed>
  <fix>3d</fix>
</trkpt>
<trkpt lat="-27.274439" lon="151.290064">
  <ele>343.1</ele>
  <time>2026-09-01T20:03:17Z</time>
  <course>270.0</course>
  <speed>0.0</speed>
  <fix>3d</fix>
</trkpt>
<trkpt lat="-27.274439" lon="151.290064">
  <ele>343.09</ele>
  <time>2026-09-01T20:03:17Z</time>
  <course>10.7</course>
  <speed>0.01</speed>
  <fix>3d</fix>
</trkpt>
<trkpt lat="-27.274439" lon="151.290064">
  <ele>343.1</ele>
  <time>2026-09-01T20:03:17Z</time>
  <course>270.0</course>
  <speed>0.0</speed>
  <fix>3d</fix>
</trkpt>
<trkpt lat="-27.274439" lon="151.290064">
  <ele>343.09</ele>
  <time>2026-09-01T20:03:17Z</time>
  <course>10.7</course>
  <speed>0.01</speed>
  <fix>3d</fix>
</trkpt>
<trkpt lat="-27.274439" lon="151.290064">
  <ele>343.1</ele>
  <time>2026-09-01T20:03:17Z</time>
  <course>270.0</course>
  <speed>0.0</speed>
  <fix>3d</fix>
</trkpt>
<trkpt lat="-27.274439" lon="151.290064">
  <ele>343.09</ele>
  <time>2026-09-01T20:03:17Z</time>
  <course>10.7</course>
  <speed>0.01</speed>
  <fix>3d</fix>
</trkpt>
<trkpt lat="-27.274439" lon="151.290064">
  <ele>343.1</ele>
  <time>2026-09-01T20:03:17Z</time>
  <course>270.0</course>
  <speed>0.0</speed>
  <fix>3d</fix>
</trkpt>
<trkpt lat="-27.274439" lon="151.290064">
  <ele>343.09</ele>
  <time>2026-09-01T20:03:17Z</time>
  <course>10.7</course>
  <speed>0.01</speed>
  <fix>3d</fix>
</trkpt>
<trkpt lat="-27.274439" lon="151.290064">
  <ele>343.1</ele>
  <time>2026-09-01T20:03:17Z</time>
  <course>270.0</course>
  <speed>0.0</speed>
  <fix>3d</fix>
</trkpt>
<trkpt lat="-27.274439" lon="151.290064">
  <ele>343.09</ele>
  <time>2026-09-01T20:03:17Z</time>
  <course>10.7</course>
  <speed>0.01</speed>
  <fix>3d</fix>
</trkpt>
<trkpt lat="-27.274439" lon="151.290064">
  <ele>343.1</ele>
  <time>2026-09-01T20:03:17Z</time>
  <course>270.0</course>
  <speed>0.0</speed>
  <fix>3d</fix>
</trkpt>
<trkpt lat="-27.274439" lon="151.290064">
  <ele>343.08</ele>
  <time>2026-09-01T20:03:17Z</time>
  <course>10.7</course>
  <speed>0.01</speed>
  <fix>3d</fix>
</trkpt>
<trkpt lat="-27.274439" lon="151.290064">
  <ele>343.1</ele>
  <time>2026-09-01T20:03:17Z</time>
  <course>270.0</course>
  <speed>0.0</speed>
  <fix>3d</fix>
</trkpt>
<trkpt lat="-27.274439" lon="151.290064">
  <ele>343.08</ele>
  <time>2026-09-01T20:03:17Z</time>
  <course>10.7</course>
  <speed>0.01</speed>
  <fix>3d</fix>
</trkpt>
<trkpt lat="-27.274439" lon="151.290064">
  <ele>343.1</ele>
  <time>2026-09-01T20:03:17Z</time>
  <course>270.0</course>
  <speed>0.0</speed>
  <fix>3d</fix>
</trkpt>
<trkpt lat="-27.274439" lon="151.290064">
  <ele>343.07</ele>
  <time>2026-09-01T20:03:17Z</time>
  <course>10.7</course>
  <speed>0.01</speed>
  <fix>3d</fix>
</trkpt>
<trkpt lat="-27.274439" lon="151.290064">
  <ele>343.1</ele>
  <time>2026-09-01T20:03:17Z</time>
  <course>270.0</course>
  <speed>0.0</speed>
  <fix>3d</fix>
</trkpt>
<trkpt lat="-27.274439" lon="151.290064">
  <ele>343.07</ele>
  <time>2026-09-01T20:03:17Z</time>
  <course>10.7</course>
  <speed>0.01</speed>
  <fix>3d</fix>
</trkpt>
<trkpt lat="-27.274439" lon="151.290064">
  <ele>343.1</ele>
  <time>2026-09-01T20:03:17Z</time>
  <course>270.0</course>
  <speed>0.0</speed>
  <fix>3d</fix>
</trkpt>
<trkpt lat="-27.274439" lon="151.290064">
  <ele>343.07</ele>
  <time>2026-09-01T20:03:17Z</time>
  <course>10.7</course>
  <speed>0.01</speed>
  <fix>3d</fix>
</trkpt>
<trkpt lat="-27.274439" lon="151.290064">
  <ele>343.1</ele>
  <time>2026-09-01T20:03:17Z</time>
  <course>270.0</course>
  <speed>0.0</speed>
  <fix>3d</fix>
</trkpt>
<trkpt lat="-27.274439" lon="151.290064">
  <ele>343.06</ele>
  <time>2026-09-01T20:03:17Z</time>
  <course>10.7</course>
  <speed>0.01</speed>
  <fix>3d</fix>
</trkpt>
<trkpt lat="-27.274439" lon="151.290064">
  <ele>343.1</ele>
  <time>2026-09-01T20:03:17Z</time>
  <course>270.0</course>
  <speed>0.0</speed>
  <fix>3d</fix>
</trkpt>
<trkpt lat="-27.274439" lon="151.290064">
  <ele>343.06</ele>
  <time>2026-09-01T20:03:17Z</time>
  <course>10.7</course>
  <speed>0.01</speed>
  <fix>3d</fix>
</trkpt>
<trkpt lat="-27.274439" lon="151.290064">
  <ele>343.1</ele>
  <time>2026-09-01T20:03:17Z</time>
  <course>270.0</course>
  <speed>0.0</speed>
  <fix>3d</fix>
</trkpt>
<trkpt lat="-27.274439" lon="151.290064">
  <ele>343.05</ele>
  <time>2026-09-01T20:03:17Z</time>
  <course>10.7</course>
  <speed>0.01</speed>
  <fix>3d</fix>
</trkpt>
<trkpt lat="-27.274439" lon="151.290064">
  <ele>343.1</ele>
  <time>2026-09-01T20:03:17Z</time>
  <course>270.0</course>
  <speed>0.0</speed>
  <fix>3d</fix>
</trkpt>
<trkpt lat="-27.274439" lon="151.290064">
  <ele>343.05</ele>
  <time>2026-09-01T20:03:17Z</time>
  <course>10.7</course>
  <speed>0.01</speed>
  <fix>3d</fix>
</trkpt>
<trkpt lat="-27.274439" lon="151.290064">
  <ele>343.1</ele>
  <time>2026-09-01T20:03:17Z</time>
  <course>270.0</course>
  <speed>0.0</speed>
  <fix>3d</fix>
</trkpt>
<trkpt lat="-27.274439" lon="151.290064">
  <ele>343.04</ele>
  <time>2026-09-01T20:03:17Z</time>
  <course>10.7</course>
  <speed>0.01</speed>
  <fix>3d</fix>
</trkpt>
<trkpt lat="-27.274439" lon="151.290064">
  <ele>343.1</ele>
  <time>2026-09-01T20:03:17Z</time>
  <course>270.0</course>
  <speed>0.0</speed>
  <fix>3d</fix>
</trkpt>
<trkpt lat="-27.274439" lon="151.290064">
  <ele>343.04</ele>
  <time>2026-09-01T20:03:17Z</time>
  <course>10.7</course>
  <speed>0.01</speed>
  <fix>3d</fix>
</trkpt>
<trkpt lat="-27.274439" lon="151.290064">
  <ele>343.1</ele>
  <time>2026-09-01T20:03:17Z</time>
  <course>270.0</course>
  <speed>0.0</speed>
  <fix>3d</fix>
</trkpt>
<trkpt lat="-27.274439" lon="151.290064">
  <ele>343.03</ele>
  <time>2026-09-01T20:03:17Z</time>
  <course>10.7</course>
  <speed>0.01</speed>
  <fix>3d</fix>
</trkpt>
<trkpt lat="-27.274439" lon="151.290064">
  <ele>343.1</ele>
  <time>2026-09-01T20:03:17Z</time>
  <course>270.0</course>
  <speed>0.0</speed>
  <fix>3d</fix>
</trkpt>
<trkpt lat="-27.274439" lon="151.290064">
  <ele>343.03</ele>
  <time>2026-09-01T20:03:17Z</time>
  <course>10.7</course>
  <speed>0.01</speed>
  <fix>3d</fix>
</trkpt>
<trkpt lat="-27.274439" lon="151.290064">
  <ele>343.1</ele>
  <time>2026-09-01T20:03:17Z</time>
  <course>270.0</course>
  <speed>0.0</speed>
  <fix>3d</fix>
</trkpt>
<trkpt lat="-27.274439" lon="151.290064">
  <ele>343.03</ele>
  <time>2026-09-01T20:03:17Z</time>
  <course>10.7</course>
  <speed>0.01</speed>
  <fix>3d</fix>
</trkpt>
<trkpt lat="-27.274439" lon="151.290064">
  <ele>343.1</ele>
  <time>2026-09-01T20:03:17Z</time>
  <course>270.0</course>
  <speed>0.0</speed>
  <fix>3d</fix>
</trkpt>
<trkpt lat="-27.274439" lon="151.290064">
  <ele>343.02</ele>
  <time>2026-09-01T20:03:17Z</time>
  <course>10.7</course>
  <speed>0.01</speed>
  <fix>3d</fix>
</trkpt>
<trkpt lat="-27.274439" lon="151.290064">
  <ele>343.1</ele>
  <time>2026-09-01T20:03:17Z</time>
  <course>270.0</course>
  <speed>0.0</speed>
  <fix>3d</fix>
</trkpt>
<trkpt lat="-27.274439" lon="151.290064">
  <ele>343.02</ele>
  <time>2026-09-01T20:03:17Z</time>
  <course>10.7</course>
  <speed>0.01</speed>
  <fix>3d</fix>
</trkpt>
<trkpt lat="-27.274439" lon="151.290064">
  <ele>343.1</ele>
  <time>2026-09-01T20:03:17Z</time>
  <course>270.0</course>
  <speed>0.0</speed>
  <fix>3d</fix>
</trkpt>
<trkpt lat="-27.274439" lon="151.290064">
  <ele>343.02</ele>
  <time>2026-09-01T20:03:17Z</time>
  <course>10.7</course>
  <speed>0.01</speed>
  <fix>3d</fix>
</trkpt>
<trkpt lat="-27.274439" lon="151.290064">
  <ele>343.1</ele>
  <time>2026-09-01T20:03:17Z</time>
  <course>270.0</course>
  <speed>0.0</speed>
  <fix>3d</fix>
</trkpt>
<trkpt lat="-27.274439" lon="151.290064">
  <ele>343.02</ele>
  <time>2026-09-01T20:03:17Z</time>
  <course>10.7</course>
  <speed>0.01</speed>
  <fix>3d</fix>
</trkpt>
<trkpt lat="-27.274439" lon="151.290064">
  <ele>343.1</ele>
  <time>2026-09-01T20:03:17Z</time>
  <course>270.0</course>
  <speed>0.0</speed>
  <fix>3d</fix>
</trkpt>
<trkpt lat="-27.274439" lon="151.290064">
  <ele>343.02</ele>
  <time>2026-09-01T20:03:17Z</time>
  <course>10.7</course>
  <speed>0.01</speed>
  <fix>3d</fix>
</trkpt>
<trkpt lat="-27.274439" lon="151.290064">
  <ele>343.1</ele>
  <time>2026-09-01T20:03:17Z</time>
  <course>270.0</course>
  <speed>0.0</speed>
  <fix>3d</fix>
</trkpt>
<trkpt lat="-27.274439" lon="151.290064">
  <ele>343.02</ele>
  <time>2026-09-01T20:03:17Z</time>
  <course>10.7</course>
  <speed>0.01</speed>
  <fix>3d</fix>
</trkpt>
<trkpt lat="-27.274439" lon="151.290064">
  <ele>343.1</ele>
  <time>2026-09-01T20:03:17Z</time>
  <course>270.0</course>
  <speed>0.0</speed>
  <fix>3d</fix>
</trkpt>
<trkpt lat="-27.274439" lon="151.290064">
  <ele>343.02</ele>
  <time>2026-09-01T20:03:17Z</time>
  <course>10.7</course>
  <speed>0.01</speed>
  <fix>3d</fix>
</trkpt>
<trkpt lat="-27.274439" lon="151.290064">
  <ele>343.1</ele>
  <time>2026-09-01T20:03:17Z</time>
  <course>270.0</course>
  <speed>0.0</speed>
  <fix>3d</fix>
</trkpt>
<trkpt lat="-27.274439" lon="151.290064">
  <ele>343.01</ele>
  <time>2026-09-01T20:03:17Z</time>
  <course>10.7</course>
  <speed>0.01</speed>
  <fix>3d</fix>
</trkpt>
<trkpt lat="-27.274439" lon="151.290064">
  <ele>343.1</ele>
  <time>2026-09-01T20:03:17Z</time>
  <course>270.0</course>
  <speed>0.0</speed>
  <fix>3d</fix>
</trkpt>
<trkpt lat="-27.274439" lon="151.290064">
  <ele>343.01</ele>
  <time>2026-09-01T20:03:17Z</time>
  <course>10.7</course>
  <speed>0.01</speed>
  <fix>3d</fix>
</trkpt>
<trkpt lat="-27.274439" lon="151.290064">
  <ele>343.1</ele>
  <time>2026-09-01T20:03:17Z</time>
  <course>270.0</course>
  <speed>0.0</speed>
  <fix>3d</fix>
</trkpt>
<trkpt lat="-27.274439" lon="151.290064">
  <ele>343.01</ele>
  <time>2026-09-01T20:03:17Z</time>
  <course>10.7</course>
  <speed>0.01</speed>
  <fix>3d</fix>
</trkpt>
<trkpt lat="-27.274439" lon="151.290064">
  <ele>343.1</ele>
  <time>2026-09-01T20:03:17Z</time>
  <course>270.0</course>
  <speed>0.0</speed>
  <fix>3d</fix>
</trkpt>
<trkpt lat="-27.274439" lon="151.290064">
  <ele>343.01</ele>
  <time>2026-09-01T20:03:17Z</time>
  <course>10.7</course>
  <speed>0.01</speed>
  <fix>3d</fix>
</trkpt>
<trkpt lat="-27.274439" lon="151.290064">
  <ele>343.1</ele>
  <time>2026-09-01T20:03:17Z</time>
  <course>270.0</course>
  <speed>0.0</speed>
  <fix>3d</fix>
</trkpt>
<trkpt lat="-27.274439" lon="151.290064">
  <ele>343.01</ele>
  <time>2026-09-01T20:03:17Z</time>
  <course>10.7</course>
  <speed>0.01</speed>
  <fix>3d</fix>
</trkpt>
<trkpt lat="-27.274439" lon="151.290064">
  <ele>343.1</ele>
  <time>2026-09-01T20:03:17Z</time>
  <course>270.0</course>
  <speed>0.0</speed>
  <fix>3d</fix>
</trkpt>
<trkpt lat="-27.274439" lon="151.290064">
  <ele>343.0</ele>
  <time>2026-09-01T20:03:17Z</time>
  <course>10.7</course>
  <speed>0.01</speed>
  <fix>3d</fix>
</trkpt>
<trkpt lat="-27.274439" lon="151.290064">
  <ele>343.1</ele>
  <time>2026-09-01T20:03:17Z</time>
  <course>270.0</course>
  <speed>0.0</speed>
  <fix>3d</fix>
</trkpt>
<trkpt lat="-27.274439" lon="151.290064">
  <ele>343.0</ele>
  <time>2026-09-01T20:03:17Z</time>
  <course>10.7</course>
  <speed>0.01</speed>
  <fix>3d</fix>
</trkpt>
<trkpt lat="-27.274439" lon="151.290064">
  <ele>343.1</ele>
  <time>2026-09-01T20:03:17Z</time>
  <course>270.0</course>
  <speed>0.0</speed>
  <fix>3d</fix>
</trkpt>
<trkpt lat="-27.274439" lon="151.290064">
  <ele>343.0</ele>
  <time>2026-09-01T20:03:17Z</time>
  <course>10.7</course>
  <speed>0.01</speed>
  <fix>3d</fix>
</trkpt>
<trkpt lat="-27.274439" lon="151.290064">
  <ele>343.1</ele>
  <time>2026-09-01T20:03:17Z</time>
  <course>270.0</course>
  <speed>0.0</speed>
  <fix>3d</fix>
</trkpt>
<trkpt lat="-27.274439" lon="151.290064">
  <ele>342.99</ele>
  <time>2026-09-01T20:03:17Z</time>
  <course>10.7</course>
  <speed>0.01</speed>
  <fix>3d</fix>
</trkpt>
<trkpt lat="-27.274439" lon="151.290064">
  <ele>343.1</ele>
  <time>2026-09-01T20:03:17Z</time>
  <course>270.0</course>
  <speed>0.0</speed>
  <fix>3d</fix>
</trkpt>
<trkpt lat="-27.274439" lon="151.290064">
  <ele>342.99</ele>
  <time>2026-09-01T20:03:17Z</time>
  <course>10.7</course>
  <speed>0.01</speed>
  <fix>3d</fix>
</trkpt>
<trkpt lat="-27.274439" lon="151.290064">
  <ele>343.1</ele>
  <time>2026-09-01T20:03:17Z</time>
  <course>270.0</course>
  <speed>0.0</speed>
  <fix>3d</fix>
</trkpt>
<trkpt lat="-27.274439" lon="151.290064">
  <ele>342.98</ele>
  <time>2026-09-01T20:03:17Z</time>
  <course>10.7</course>
  <speed>0.01</speed>
  <fix>3d</fix>
</trkpt>
<trkpt lat="-27.274439" lon="151.290064">
  <ele>343.1</ele>
  <time>2026-09-01T20:03:17Z</time>
  <course>270.0</course>
  <speed>0.0</speed>
  <fix>3d</fix>
</trkpt>
<trkpt lat="-27.274439" lon="151.290064">
  <ele>342.98</ele>
  <time>2026-09-01T20:03:17Z</time>
  <course>10.7</course>
  <speed>0.01</speed>
  <fix>3d</fix>
</trkpt>
<trkpt lat="-27.274439" lon="151.290064">
  <ele>343.1</ele>
  <time>2026-09-01T20:03:17Z</time>
  <course>270.0</course>
  <speed>0.0</speed>
  <fix>3d</fix>
</trkpt>
<trkpt lat="-27.274439" lon="151.290064">
  <ele>342.97</ele>
  <time>2026-09-01T20:03:17Z</time>
  <course>10.7</course>
  <speed>0.01</speed>
  <fix>3d</fix>
</trkpt>
<trkpt lat="-27.274439" lon="151.290064">
  <ele>343.1</ele>
  <time>2026-09-01T20:03:17Z</time>
  <course>270.0</course>
  <speed>0.0</speed>
  <fix>3d</fix>
</trkpt>
<trkpt lat="-27.274439" lon="151.290064">
  <ele>342.97</ele>
  <time>2026-09-01T20:03:17Z</time>
  <course>10.7</course>
  <speed>0.01</speed>
  <fix>3d</fix>
</trkpt>
<trkpt lat="-27.274439" lon="151.290064">
  <ele>343.1</ele>
  <time>2026-09-01T20:03:17Z</time>
  <course>270.0</course>
  <speed>0.0</speed>
  <fix>3d</fix>
</trkpt>
<trkpt lat="-27.274439" lon="151.290064">
  <ele>342.97</ele>
  <time>2026-09-01T20:03:17Z</time>
  <course>10.7</course>
  <speed>0.01</speed>
  <fix>3d</fix>
</trkpt>
<trkpt lat="-27.274439" lon="151.290064">
  <ele>343.1</ele>
  <time>2026-09-01T20:03:17Z</time>
  <course>270.0</course>
  <speed>0.0</speed>
  <fix>3d</fix>
</trkpt>
<trkpt lat="-27.274439" lon="151.290064">
  <ele>342.96</ele>
  <time>2026-09-01T20:03:17Z</time>
  <course>10.7</course>
  <speed>0.01</speed>
  <fix>3d</fix>
</trkpt>
<trkpt lat="-27.274439" lon="151.290064">
  <ele>343.1</ele>
  <time>2026-09-01T20:03:17Z</time>
  <course>270.0</course>
  <speed>0.0</speed>
  <fix>3d</fix>
</trkpt>
<trkpt lat="-27.274439" lon="151.290064">
  <ele>342.96</ele>
  <time>2026-09-01T20:03:17Z</time>
  <course>10.7</course>
  <speed>0.01</speed>
  <fix>3d</fix>
</trkpt>
<trkpt lat="-27.274439" lon="151.290064">
  <ele>343.1</ele>
  <time>2026-09-01T20:03:17Z</time>
  <course>270.0</course>
  <speed>0.0</speed>
  <fix>3d</fix>
</trkpt>
<trkpt lat="-27.274439" lon="151.290064">
  <ele>342.96</ele>
  <time>2026-09-01T20:03:17Z</time>
  <course>10.7</course>
  <speed>0.01</speed>
  <fix>3d</fix>
</trkpt>
<trkpt lat="-27.274439" lon="151.290064">
  <ele>343.1</ele>
  <time>2026-09-01T20:03:17Z</time>
  <course>270.0</course>
  <speed>0.0</speed>
  <fix>3d</fix>
</trkpt>
<trkpt lat="-27.274439" lon="151.290064">
  <ele>342.96</ele>
  <time>2026-09-01T20:03:17Z</time>
  <course>10.7</course>
  <speed>0.01</speed>
  <fix>3d</fix>
</trkpt>
<trkpt lat="-27.274439" lon="151.290064">
  <ele>343.1</ele>
  <time>2026-09-01T20:03:17Z</time>
  <course>270.0</course>
  <speed>0.0</speed>
  <fix>3d</fix>
</trkpt>
<trkpt lat="-27.274439" lon="151.290064">
  <ele>342.95</ele>
  <time>2026-09-01T20:03:17Z</time>
  <course>10.7</course>
  <speed>0.01</speed>
  <fix>3d</fix>
</trkpt>
<trkpt lat="-27.274439" lon="151.290064">
  <ele>343.1</ele>
  <time>2026-09-01T20:03:17Z</time>
  <course>270.0</course>
  <speed>0.0</speed>
  <fix>3d</fix>
</trkpt>
<trkpt lat="-27.274439" lon="151.290064">
  <ele>342.95</ele>
  <time>2026-09-01T20:03:17Z</time>
  <course>10.7</course>
  <speed>0.01</speed>
  <fix>3d</fix>
</trkpt>
<trkpt lat="-27.274439" lon="151.290064">
  <ele>343.1</ele>
  <time>2026-09-01T20:03:17Z</time>
  <course>270.0</course>
  <speed>0.0</speed>
  <fix>3d</fix>
</trkpt>
<trkpt lat="-27.274439" lon="151.290064">
  <ele>342.95</ele>
  <time>2026-09-01T20:03:17Z</time>
  <course>10.7</course>
  <speed>0.01</speed>
  <fix>3d</fix>
</trkpt>
<trkpt lat="-27.274439" lon="151.290064">
  <ele>343.1</ele>
  <time>2026-09-01T20:03:17Z</time>
  <course>270.0</course>
  <speed>0.0</speed>
  <fix>3d</fix>
</trkpt>
<trkpt lat="-27.274439" lon="151.290064">
  <ele>342.95</ele>
  <time>2026-09-01T20:03:17Z</time>
  <course>10.7</course>
  <speed>0.01</speed>
  <fix>3d</fix>
</trkpt>
<trkpt lat="-27.274439" lon="151.290064">
  <ele>343.1</ele>
  <time>2026-09-01T20:03:17Z</time>
  <course>270.0</course>
  <speed>0.0</speed>
  <fix>3d</fix>
</trkpt>
<trkpt lat="-27.274439" lon="151.290064">
  <ele>342.95</ele>
  <time>2026-09-01T20:03:17Z</time>
  <course>10.7</course>
  <speed>0.01</speed>
  <fix>3d</fix>
</trkpt>
<trkpt lat="-27.274439" lon="151.290064">
  <ele>343.1</ele>
  <time>2026-09-01T20:03:17Z</time>
  <course>270.0</course>
  <speed>0.0</speed>
  <fix>3d</fix>
</trkpt>
<trkpt lat="-27.274439" lon="151.290064">
  <ele>342.95</ele>
  <time>2026-09-01T20:03:17Z</time>
  <course>10.7</course>
  <speed>0.01</speed>
  <fix>3d</fix>
</trkpt>
<trkpt lat="-27.274439" lon="151.290064">
  <ele>343.1</ele>
  <time>2026-09-01T20:03:17Z</time>
  <course>270.0</course>
  <speed>0.0</speed>
  <fix>3d</fix>
</trkpt>
<trkpt lat="-27.2744391" lon="151.290064">
  <ele>342.95</ele>
  <time>2026-09-01T20:03:17Z</time>
  <course>10.7</course>
  <speed>0.01</speed>
  <fix>3d</fix>
</trkpt>
<trkpt lat="-27.274439" lon="151.290064">
  <ele>343.1</ele>
  <time>2026-09-01T20:03:17Z</time>
  <course>270.0</course>
  <speed>0.0</speed>
  <fix>3d</fix>
</trkpt>
<trkpt lat="-27.2744391" lon="151.290064">
  <ele>342.95</ele>
  <time>2026-09-01T20:03:17Z</time>
  <course>10.7</course>
  <speed>0.01</speed>
  <fix>3d</fix>
</trkpt>
<trkpt lat="-27.274439" lon="151.290064">
  <ele>343.1</ele>
  <time>2026-09-01T20:03:17Z</time>
  <course>270.0</course>
  <speed>0.0</speed>
  <fix>3d</fix>
</trkpt>
<trkpt lat="-27.2744391" lon="151.290064">
  <ele>342.95</ele>
  <time>2026-09-01T20:03:17Z</time>
  <course>10.7</course>
  <speed>0.01</speed>
  <fix>3d</fix>
</trkpt>
<trkpt lat="-27.274439" lon="151.290064">
  <ele>343.1</ele>
  <time>2026-09-01T20:03:17Z</time>
  <course>270.0</course>
  <speed>0.0</speed>
  <fix>3d</fix>
</trkpt>
<trkpt lat="-27.2744391" lon="151.290064">
  <ele>342.95</ele>
  <time>2026-09-01T20:03:17Z</time>
  <course>10.7</course>
  <speed>0.01</speed>
  <fix>3d</fix>
</trkpt>
<trkpt lat="-27.274439" lon="151.290064">
  <ele>343.1</ele>
  <time>2026-09-01T20:03:17Z</time>
  <course>270.0</course>
  <speed>0.0</speed>
  <fix>3d</fix>
</trkpt>
<trkpt lat="-27.2744391" lon="151.290064">
  <ele>342.95</ele>
  <time>2026-09-01T20:03:17Z</time>
  <course>10.7</course>
  <speed>0.01</speed>
  <fix>3d</fix>
</trkpt>
<trkpt lat="-27.274439" lon="151.290064">
  <ele>343.1</ele>
  <time>2026-09-01T20:03:17Z</time>
  <course>270.0</course>
  <speed>0.0</speed>
  <fix>3d</fix>
</trkpt>
<trkpt lat="-27.2744391" lon="151.290064">
  <ele>342.95</ele>
  <time>2026-09-01T20:03:17Z</time>
  <course>10.7</course>
  <speed>0.01</speed>
  <fix>3d</fix>
</trkpt>
<trkpt lat="-27.274439" lon="151.290064">
  <ele>343.1</ele>
  <time>2026-09-01T20:03:17Z</time>
  <course>270.0</course>
  <speed>0.0</speed>
  <fix>3d</fix>
</trkpt>
<trkpt lat="-27.2744391" lon="151.290064">
  <ele>342.95</ele>
  <time>2026-09-01T20:03:17Z</time>
  <course>10.7</course>
  <speed>0.01</speed>
  <fix>3d</fix>
</trkpt>
<trkpt lat="-27.274439" lon="151.290064">
  <ele>343.1</ele>
  <time>2026-09-01T20:03:17Z</time>
  <course>270.0</course>
  <speed>0.0</speed>
  <fix>3d</fix>
</trkpt>
<trkpt lat="-27.2744391" lon="151.290064">
  <ele>342.95</ele>
  <time>2026-09-01T20:03:17Z</time>
  <course>10.7</course>
  <speed>0.01</speed>
  <fix>3d</fix>
</trkpt>
<trkpt lat="-27.274439" lon="151.290064">
  <ele>343.1</ele>
  <time>2026-09-01T20:03:17Z</time>
  <course>270.0</course>
  <speed>0.0</speed>
  <fix>3d</fix>
</trkpt>
<trkpt lat="-27.2744391" lon="151.290064">
  <ele>342.95</ele>
  <time>2026-09-01T20:03:17Z</time>
  <course>10.7</course>
  <speed>0.01</speed>
  <fix>3d</fix>
</trkpt>
<trkpt lat="-27.274439" lon="151.290064">
  <ele>343.1</ele>
  <time>2026-09-01T20:03:17Z</time>
  <course>270.0</course>
  <speed>0.0</speed>
  <fix>3d</fix>
</trkpt>
<trkpt lat="-27.2744391" lon="151.290064">
  <ele>343.1</ele>
  <time>2026-09-01T20:03:17Z</time>
  <course>10.7</course>
  <speed>0.01</speed>
  <fix>3d</fix>
</trkpt>
<trkpt lat="-27.274439" lon="151.290064">
  <ele>343.1</ele>
  <time>2026-09-01T20:03:17Z</time>
  <course>270.0</course>
  <speed>0.0</speed>
  <fix>3d</fix>
</trkpt>
<trkpt lat="-27.2744391" lon="151.290064">
  <ele>343.09</ele>
  <time>2026-09-01T20:03:17Z</time>
  <course>10.7</course>
  <speed>0.01</speed>
  <fix>3d</fix>
</trkpt>
<trkpt lat="-27.274439" lon="151.290064">
  <ele>343.1</ele>
  <time>2026-09-01T20:03:17Z</time>
  <course>270.0</course>
  <speed>0.0</speed>
  <fix>3d</fix>
</trkpt>
<trkpt lat="-27.2744391" lon="151.290064">
  <ele>343.09</ele>
  <time>2026-09-01T20:03:17Z</time>
  <course>10.7</course>
  <speed>0.01</speed>
  <fix>3d</fix>
</trkpt>
<trkpt lat="-27.274439" lon="151.290064">
  <ele>343.1</ele>
  <time>2026-09-01T20:03:17Z</time>
  <course>270.0</course>
  <speed>0.0</speed>
  <fix>3d</fix>
</trkpt>
<trkpt lat="-27.2744391" lon="151.290064">
  <ele>343.09</ele>
  <time>2026-09-01T20:03:17Z</time>
  <course>10.71</course>
  <speed>0.01414213562373095</speed>
  <fix>3d</fix>
</trkpt>
<trkpt lat="-27.274439" lon="151.290064">
  <ele>343.1</ele>
  <time>2026-09-01T20:03:17Z</time>
  <course>270.0</course>
  <speed>0.0</speed>
  <fix>3d</fix>
</trkpt>
<trkpt lat="-27.2744391" lon="151.290064">
  <ele>343.09</ele>
  <time>2026-09-01T20:03:17Z</time>
  <course>10.71</course>
  <speed>0.01</speed>
  <fix>3d</fix>
</trkpt>
<trkpt lat="-27.274439" lon="151.290064">
  <ele>343.1</ele>
  <time>2026-09-01T20:03:17Z</time>
  <course>270.0</course>
  <speed>0.0</speed>
  <fix>3d</fix>
</trkpt>
<trkpt lat="-27.2744391" lon="151.290064">
  <ele>343.09</ele>
  <time>2026-09-01T20:03:17Z</time>
  <course>10.71</course>
  <speed>0.01414213562373095</speed>
  <fix>3d</fix>
</trkpt>
<trkpt lat="-27.274439" lon="151.290064">
  <ele>343.1</ele>
  <time>2026-09-01T20:03:17Z</time>
  <course>270.0</course>
  <speed>0.0</speed>
  <fix>3d</fix>
</trkpt>
<trkpt lat="-27.2744391" lon="151.290064">
  <ele>343.09</ele>
  <time>2026-09-01T20:03:17Z</time>
  <course>10.71</course>
  <speed>0.01414213562373095</speed>
  <fix>3d</fix>
</trkpt>
<trkpt lat="-27.274439" lon="151.290064">
  <ele>343.1</ele>
  <time>2026-09-01T20:03:17Z</time>
  <course>270.0</course>
  <speed>0.0</speed>
  <fix>3d</fix>
</trkpt>
<trkpt lat="-27.2744391" lon="151.290064">
  <ele>343.09</ele>
  <time>2026-09-01T20:03:17Z</time>
  <course>10.71</course>
  <speed>0.01414213562373095</speed>
  <fix>3d</fix>
</trkpt>
<trkpt lat="-27.274439" lon="151.290064">
  <ele>343.1</ele>
  <time>2026-09-01T20:03:17Z</time>
  <course>270.0</course>
  <speed>0.0</speed>
  <fix>3d</fix>
</trkpt>
<trkpt lat="-27.2744391" lon="151.290064">
  <ele>343.09</ele>
  <time>2026-09-01T20:03:17Z</time>
  <course>10.71</course>
  <speed>0.01414213562373095</speed>
  <fix>3d</fix>
</trkpt>
<trkpt lat="-27.274439" lon="151.290064">
  <ele>343.1</ele>
  <time>2026-09-01T20:03:17Z</time>
  <course>270.0</course>
  <speed>0.0</speed>
  <fix>3d</fix>
</trkpt>
<trkpt lat="-27.2744391" lon="151.290064">
  <ele>343.09</ele>
  <time>2026-09-01T20:03:17Z</time>
  <course>10.71</course>
  <speed>0.01414213562373095</speed>
  <fix>3d</fix>
</trkpt>
<trkpt lat="-27.274439" lon="151.290064">
  <ele>343.1</ele>
  <time>2026-09-01T20:03:17Z</time>
  <course>270.0</course>
  <speed>0.0</speed>
  <fix>3d</fix>
</trkpt>
<trkpt lat="-27.2744391" lon="151.290064">
  <ele>343.08</ele>
  <time>2026-09-01T20:03:17Z</time>
  <course>10.71</course>
  <speed>0.01414213562373095</speed>
  <fix>3d</fix>
</trkpt>
<trkpt lat="-27.274439" lon="151.290064">
  <ele>343.1</ele>
  <time>2026-09-01T20:03:17Z</time>
  <course>270.0</course>
  <speed>0.0</speed>
  <fix>3d</fix>
</trkpt>
<trkpt lat="-27.2744391" lon="151.290064">
  <ele>343.08</ele>
  <time>2026-09-01T20:03:17Z</time>
  <course>10.71</course>
  <speed>0.01414213562373095</speed>
  <fix>3d</fix>
</trkpt>
<trkpt lat="-27.274439" lon="151.290064">
  <ele>343.1</ele>
  <time>2026-09-01T20:03:17Z</time>
  <course>270.0</course>
  <speed>0.0</speed>
  <fix>3d</fix>
</trkpt>
<trkpt lat="-27.2744391" lon="151.290064">
  <ele>343.08</ele>
  <time>2026-09-01T20:03:17Z</time>
  <course>10.71</course>
  <speed>0.01414213562373095</speed>
  <fix>3d</fix>
</trkpt>
<trkpt lat="-27.274439" lon="151.290064">
  <ele>343.1</ele>
  <time>2026-09-01T20:03:17Z</time>
  <course>270.0</course>
  <speed>0.0</speed>
  <fix>3d</fix>
</trkpt>
<trkpt lat="-27.2744391" lon="151.290064">
  <ele>343.08</ele>
  <time>2026-09-01T20:03:17Z</time>
  <course>10.71</course>
  <speed>0.01414213562373095</speed>
  <fix>3d</fix>
</trkpt>
<trkpt lat="-27.274439" lon="151.290064">
  <ele>343.1</ele>
  <time>2026-09-01T20:03:17Z</time>
  <course>270.0</course>
  <speed>0.0</speed>
  <fix>3d</fix>
</trkpt>
<trkpt lat="-27.2744391" lon="151.290064">
  <ele>343.08</ele>
  <time>2026-09-01T20:03:17Z</time>
  <course>10.71</course>
  <speed>0.01414213562373095</speed>
  <fix>3d</fix>
</trkpt>
<trkpt lat="-27.274439" lon="151.290064">
  <ele>343.1</ele>
  <time>2026-09-01T20:03:17Z</time>
  <course>270.0</course>
  <speed>0.0</speed>
  <fix>3d</fix>
</trkpt>
<trkpt lat="-27.2744391" lon="151.290064">
  <ele>343.07</ele>
  <time>2026-09-01T20:03:17Z</time>
  <course>10.71</course>
  <speed>0.01414213562373095</speed>
  <fix>3d</fix>
</trkpt>
<trkpt lat="-27.274439" lon="151.290064">
  <ele>343.1</ele>
  <time>2026-09-01T20:03:17Z</time>
  <course>270.0</course>
  <speed>0.0</speed>
  <fix>3d</fix>
</trkpt>
<trkpt lat="-27.2744391" lon="151.290064">
  <ele>343.07</ele>
  <time>2026-09-01T20:03:17Z</time>
  <course>10.71</course>
  <speed>0.01414213562373095</speed>
  <fix>3d</fix>
</trkpt>
<trkpt lat="-27.274439" lon="151.290064">
  <ele>343.1</ele>
  <time>2026-09-01T20:03:17Z</time>
  <course>270.0</course>
  <speed>0.0</speed>
  <fix>3d</fix>
</trkpt>
<trkpt lat="-27.2744391" lon="151.290064">
  <ele>343.07</ele>
  <time>2026-09-01T20:03:17Z</time>
  <course>10.71</course>
  <speed>0.01414213562373095</speed>
  <fix>3d</fix>
</trkpt>
<trkpt lat="-27.274439" lon="151.290064">
  <ele>343.1</ele>
  <time>2026-09-01T20:03:17Z</time>
  <course>270.0</course>
  <speed>0.0</speed>
  <fix>3d</fix>
</trkpt>
<trkpt lat="-27.2744391" lon="151.290064">
  <ele>343.07</ele>
  <time>2026-09-01T20:03:17Z</time>
  <course>10.71</course>
  <speed>0.01414213562373095</speed>
  <fix>3d</fix>
</trkpt>
<trkpt lat="-27.274439" lon="151.290064">
  <ele>343.1</ele>
  <time>2026-09-01T20:03:17Z</time>
  <course>270.0</course>
  <speed>0.0</speed>
  <fix>3d</fix>
</trkpt>
<trkpt lat="-27.2744391" lon="151.290064">
  <ele>343.07</ele>
  <time>2026-09-01T20:03:17Z</time>
  <course>10.71</course>
  <speed>0.01414213562373095</speed>
  <fix>3d</fix>
</trkpt>
<trkpt lat="-27.274439" lon="151.290064">
  <ele>343.1</ele>
  <time>2026-09-01T20:03:17Z</time>
  <course>270.0</course>
  <speed>0.0</speed>
  <fix>3d</fix>
</trkpt>
<trkpt lat="-27.2744391" lon="151.290064">
  <ele>343.07</ele>
  <time>2026-09-01T20:03:17Z</time>
  <course>10.71</course>
  <speed>0.01414213562373095</speed>
  <fix>3d</fix>
</trkpt>
<trkpt lat="-27.274439" lon="151.290064">
  <ele>343.1</ele>
  <time>2026-09-01T20:03:17Z</time>
  <course>270.0</course>
  <speed>0.0</speed>
  <fix>3d</fix>
</trkpt>
<trkpt lat="-27.2744391" lon="151.290064">
  <ele>343.07</ele>
  <time>2026-09-01T20:03:17Z</time>
  <course>10.71</course>
  <speed>0.01414213562373095</speed>
  <fix>3d</fix>
</trkpt>
<trkpt lat="-27.274439" lon="151.290064">
  <ele>343.1</ele>
  <time>2026-09-01T20:03:17Z</time>
  <course>270.0</course>
  <speed>0.0</speed>
  <fix>3d</fix>
</trkpt>
<trkpt lat="-27.2744391" lon="151.290064">
  <ele>343.07</ele>
  <time>2026-09-01T20:03:17Z</time>
  <course>10.71</course>
  <speed>0.01414213562373095</speed>
  <fix>3d</fix>
</trkpt>
<trkpt lat="-27.274439" lon="151.290064">
  <ele>343.1</ele>
  <time>2026-09-01T20:03:17Z</time>
  <course>270.0</course>
  <speed>0.0</speed>
  <fix>3d</fix>
</trkpt>
<trkpt lat="-27.2744391" lon="151.290064">
  <ele>343.07</ele>
  <time>2026-09-01T20:03:17Z</time>
  <course>10.71</course>
  <speed>0.01414213562373095</speed>
  <fix>3d</fix>
</trkpt>
<trkpt lat="-27.274439" lon="151.290064">
  <ele>343.1</ele>
  <time>2026-09-01T20:03:17Z</time>
  <course>270.0</course>
  <speed>0.0</speed>
  <fix>3d</fix>
</trkpt>
<trkpt lat="-27.2744391" lon="151.290064">
  <ele>343.07</ele>
  <time>2026-09-01T20:03:17Z</time>
  <course>10.71</course>
  <speed>0.01414213562373095</speed>
  <fix>3d</fix>
</trkpt>
<trkpt lat="-27.274439" lon="151.290064">
  <ele>343.1</ele>
  <time>2026-09-01T20:03:17Z</time>
  <course>270.0</course>
  <speed>0.0</speed>
  <fix>3d</fix>
</trkpt>
<trkpt lat="-27.2744391" lon="151.290064">
  <ele>343.06</ele>
  <time>2026-09-01T20:03:17Z</time>
  <course>10.71</course>
  <speed>0.01414213562373095</speed>
  <fix>3d</fix>
</trkpt>
<trkpt lat="-27.274439" lon="151.290064">
  <ele>343.1</ele>
  <time>2026-09-01T20:03:17Z</time>
  <course>270.0</course>
  <speed>0.0</speed>
  <fix>3d</fix>
</trkpt>
<trkpt lat="-27.2744391" lon="151.290064">
  <ele>343.06</ele>
  <time>2026-09-01T20:03:17Z</time>
  <course>10.71</course>
  <speed>0.01414213562373095</speed>
  <fix>3d</fix>
</trkpt>
<trkpt lat="-27.274439" lon="151.290064">
  <ele>343.1</ele>
  <time>2026-09-01T20:03:17Z</time>
  <course>270.0</course>
  <speed>0.0</speed>
  <fix>3d</fix>
</trkpt>
<trkpt lat="-27.2744391" lon="151.290064">
  <ele>343.06</ele>
  <time>2026-09-01T20:03:17Z</time>
  <course>10.71</course>
  <speed>0.01414213562373095</speed>
  <fix>3d</fix>
</trkpt>
<trkpt lat="-27.274439" lon="151.290064">
  <ele>343.1</ele>
  <time>2026-09-01T20:03:17Z</time>
  <course>270.0</course>
  <speed>0.0</speed>
  <fix>3d</fix>
</trkpt>
<trkpt lat="-27.2744391" lon="151.290064">
  <ele>343.06</ele>
  <time>2026-09-01T20:03:17Z</time>
  <course>10.71</course>
  <speed>0.01414213562373095</speed>
  <fix>3d</fix>
</trkpt>
<trkpt lat="-27.274439" lon="151.290064">
  <ele>343.1</ele>
  <time>2026-09-01T20:03:17Z</time>
  <course>270.0</course>
  <speed>0.0</speed>
  <fix>3d</fix>
</trkpt>
<trkpt lat="-27.2744391" lon="151.290064">
  <ele>343.06</ele>
  <time>2026-09-01T20:03:17Z</time>
  <course>10.71</course>
  <speed>0.01414213562373095</speed>
  <fix>3d</fix>
</trkpt>
<trkpt lat="-27.274439" lon="151.290064">
  <ele>343.1</ele>
  <time>2026-09-01T20:03:17Z</time>
  <course>270.0</course>
  <speed>0.0</speed>
  <fix>3d</fix>
</trkpt>
<trkpt lat="-27.2744391" lon="151.290064">
  <ele>343.06</ele>
  <time>2026-09-01T20:03:17Z</time>
  <course>10.71</course>
  <speed>0.01414213562373095</speed>
  <fix>3d</fix>
</trkpt>
<trkpt lat="-27.274439" lon="151.290064">
  <ele>343.1</ele>
  <time>2026-09-01T20:03:17Z</time>
  <course>270.0</course>
  <speed>0.0</speed>
  <fix>3d</fix>
</trkpt>
<trkpt lat="-27.2744391" lon="151.290064">
  <ele>343.07</ele>
  <time>2026-09-01T20:03:17Z</time>
  <course>10.71</course>
  <speed>0.01414213562373095</speed>
  <fix>3d</fix>
</trkpt>
<trkpt lat="-27.274439" lon="151.290064">
  <ele>343.1</ele>
  <time>2026-09-01T20:03:17Z</time>
  <course>270.0</course>
  <speed>0.0</speed>
  <fix>3d</fix>
</trkpt>
<trkpt lat="-27.2744391" lon="151.290064">
  <ele>343.07</ele>
  <time>2026-09-01T20:03:17Z</time>
  <course>10.71</course>
  <speed>0.01414213562373095</speed>
  <fix>3d</fix>
</trkpt>
<trkpt lat="-27.274439" lon="151.290064">
  <ele>343.1</ele>
  <time>2026-09-01T20:03:17Z</time>
  <course>270.0</course>
  <speed>0.0</speed>
  <fix>3d</fix>
</trkpt>
<trkpt lat="-27.2744391" lon="151.2900641">
  <ele>343.07</ele>
  <time>2026-09-01T20:03:17Z</time>
  <course>10.71</course>
  <speed>0.01414213562373095</speed>
  <fix>3d</fix>
</trkpt>
<trkpt lat="-27.274439" lon="151.290064">
  <ele>343.1</ele>
  <time>2026-09-01T20:03:17Z</time>
  <course>270.0</course>
  <speed>0.0</speed>
  <fix>3d</fix>
</trkpt>
<trkpt lat="-27.2744391" lon="151.290064">
  <ele>343.07</ele>
  <time>2026-09-01T20:03:17Z</time>
  <course>10.71</course>
  <speed>0.01414213562373095</speed>
  <fix>3d</fix>
</trkpt>
<trkpt lat="-27.274439" lon="151.290064">
  <ele>343.1</ele>
  <time>2026-09-01T20:03:17Z</time>
  <course>270.0</course>
  <speed>0.0</speed>
  <fix>3d</fix>
</trkpt>
<trkpt lat="-27.2744391" lon="151.2900641">
  <ele>343.07</ele>
  <time>2026-09-01T20:03:17Z</time>
  <course>10.71</course>
  <speed>0.01414213562373095</speed>
  <fix>3d</fix>
</trkpt>
<trkpt lat="-27.274439" lon="151.290064">
  <ele>343.1</ele>
  <time>2026-09-01T20:03:17Z</time>
  <course>270.0</course>
  <speed>0.0</speed>
  <fix>3d</fix>
</trkpt>
<trkpt lat="-27.2744391" lon="151.290064">
  <ele>343.06</ele>
  <time>2026-09-01T20:03:17Z</time>
  <course>10.71</course>
  <speed>0.01414213562373095</speed>
  <fix>3d</fix>
</trkpt>
<trkpt lat="-27.274439" lon="151.290064">
  <ele>343.1</ele>
  <time>2026-09-01T20:03:17Z</time>
  <course>270.0</course>
  <speed>0.0</speed>
  <fix>3d</fix>
</trkpt>
<trkpt lat="-27.2744391" lon="151.2900641">
  <ele>343.06</ele>
  <time>2026-09-01T20:03:17Z</time>
  <course>10.71</course>
  <speed>0.01414213562373095</speed>
  <fix>3d</fix>
</trkpt>
<trkpt lat="-27.274439" lon="151.290064">
  <ele>343.1</ele>
  <time>2026-09-01T20:03:17Z</time>
  <course>270.0</course>
  <speed>0.0</speed>
  <fix>3d</fix>
</trkpt>
<trkpt lat="-27.2744391" lon="151.290064">
  <ele>343.06</ele>
  <time>2026-09-01T20:03:17Z</time>
  <course>10.71</course>
  <speed>0.01414213562373095</speed>
  <fix>3d</fix>
</trkpt>
<trkpt lat="-27.274439" lon="151.290064">
  <ele>343.1</ele>
  <time>2026-09-01T20:03:17Z</time>
  <course>270.0</course>
  <speed>0.0</speed>
  <fix>3d</fix>
</trkpt>
<trkpt lat="-27.2744391" lon="151.2900641">
  <ele>343.06</ele>
  <time>2026-09-01T20:03:17Z</time>
  <course>10.71</course>
  <speed>0.01414213562373095</speed>
  <fix>3d</fix>
</trkpt>
<trkpt lat="-27.274439" lon="151.290064">
  <ele>343.1</ele>
  <time>2026-09-01T20:03:17Z</time>
  <course>270.0</course>
  <speed>0.0</speed>
  <fix>3d</fix>
</trkpt>
<trkpt lat="-27.2744391" lon="151.2900641">
  <ele>343.05</ele>
  <time>2026-09-01T20:03:17Z</time>
  <course>10.71</course>
  <speed>0.01414213562373095</speed>
  <fix>3d</fix>
</trkpt>
<trkpt lat="-27.274439" lon="151.290064">
  <ele>343.1</ele>
  <time>2026-09-01T20:03:17Z</time>
  <course>270.0</course>
  <speed>0.0</speed>
  <fix>3d</fix>
</trkpt>
<trkpt lat="-27.2744391" lon="151.2900641">
  <ele>343.05</ele>
  <time>2026-09-01T20:03:17Z</time>
  <course>10.71</course>
  <speed>0.01414213562373095</speed>
  <fix>3d</fix>
</trkpt>
<trkpt lat="-27.274439" lon="151.290064">
  <ele>343.1</ele>
  <time>2026-09-01T20:03:17Z</time>
  <course>270.0</course>
  <speed>0.0</speed>
  <fix>3d</fix>
</trkpt>
<trkpt lat="-27.2744391" lon="151.2900641">
  <ele>343.05</ele>
  <time>2026-09-01T20:03:17Z</time>
  <course>10.71</course>
  <speed>0.01414213562373095</speed>
  <fix>3d</fix>
</trkpt>
<trkpt lat="-27.274439" lon="151.290064">
  <ele>343.1</ele>
  <time>2026-09-01T20:03:17Z</time>
  <course>270.0</course>
  <speed>0.0</speed>
  <fix>3d</fix>
</trkpt>
<trkpt lat="-27.2744391" lon="151.2900641">
  <ele>343.04</ele>
  <time>2026-09-01T20:03:17Z</time>
  <course>10.71</course>
  <speed>0.01414213562373095</speed>
  <fix>3d</fix>
</trkpt>
<trkpt lat="-27.274439" lon="151.290064">
  <ele>343.1</ele>
  <time>2026-09-01T20:03:17Z</time>
  <course>270.0</course>
  <speed>0.0</speed>
  <fix>3d</fix>
</trkpt>
<trkpt lat="-27.2744391" lon="151.2900641">
  <ele>343.04</ele>
  <time>2026-09-01T20:03:17Z</time>
  <course>10.71</course>
  <speed>0.01414213562373095</speed>
  <fix>3d</fix>
</trkpt>
<trkpt lat="-27.274439" lon="151.290064">
  <ele>343.1</ele>
  <time>2026-09-01T20:03:17Z</time>
  <course>270.0</course>
  <speed>0.0</speed>
  <fix>3d</fix>
</trkpt>
<trkpt lat="-27.2744391" lon="151.2900641">
  <ele>343.04</ele>
  <time>2026-09-01T20:03:17Z</time>
  <course>10.71</course>
  <speed>0.01414213562373095</speed>
  <fix>3d</fix>
</trkpt>
<trkpt lat="-27.274439" lon="151.290064">
  <ele>343.1</ele>
  <time>2026-09-01T20:03:17Z</time>
  <course>270.0</course>
  <speed>0.0</speed>
  <fix>3d</fix>
</trkpt>
<trkpt lat="-27.2744391" lon="151.2900641">
  <ele>343.04</ele>
  <time>2026-09-01T20:03:17Z</time>
  <course>10.71</course>
  <speed>0.01414213562373095</speed>
  <fix>3d</fix>
</trkpt>
<trkpt lat="-27.274439" lon="151.290064">
  <ele>343.1</ele>
  <time>2026-09-01T20:03:17Z</time>
  <course>270.0</course>
  <speed>0.0</speed>
  <fix>3d</fix>
</trkpt>
<trkpt lat="-27.2744391" lon="151.2900641">
  <ele>343.04</ele>
  <time>2026-09-01T20:03:17Z</time>
  <course>10.71</course>
  <speed>0.01414213562373095</speed>
  <fix>3d</fix>
</trkpt>
<trkpt lat="-27.274439" lon="151.290064">
  <ele>343.1</ele>
  <time>2026-09-01T20:03:17Z</time>
  <course>270.0</course>
  <speed>0.0</speed>
  <fix>3d</fix>
</trkpt>
<trkpt lat="-27.2744391" lon="151.2900641">
  <ele>343.04</ele>
  <time>2026-09-01T20:03:17Z</time>
  <course>10.71</course>
  <speed>0.01414213562373095</speed>
  <fix>3d</fix>
</trkpt>
<trkpt lat="-27.274439" lon="151.290064">
  <ele>343.1</ele>
  <time>2026-09-01T20:03:17Z</time>
  <course>270.0</course>
  <speed>0.0</speed>
  <fix>3d</fix>
</trkpt>
<trkpt lat="-27.2744391" lon="151.2900641">
  <ele>343.04</ele>
  <time>2026-09-01T20:03:17Z</time>
  <course>10.71</course>
  <speed>0.01414213562373095</speed>
  <fix>3d</fix>
</trkpt>
<trkpt lat="-27.274439" lon="151.290064">
  <ele>343.1</ele>
  <time>2026-09-01T20:03:17Z</time>
  <course>270.0</course>
  <speed>0.0</speed>
  <fix>3d</fix>
</trkpt>
<trkpt lat="-27.2744391" lon="151.2900641">
  <ele>343.04</ele>
  <time>2026-09-01T20:03:17Z</time>
  <course>10.71</course>
  <speed>0.01414213562373095</speed>
  <fix>3d</fix>
</trkpt>
<trkpt lat="-27.274439" lon="151.290064">
  <ele>343.1</ele>
  <time>2026-09-01T20:03:17Z</time>
  <course>270.0</course>
  <speed>0.0</speed>
  <fix>3d</fix>
</trkpt>
<trkpt lat="-27.2744391" lon="151.2900641">
  <ele>343.04</ele>
  <time>2026-09-01T20:03:17Z</time>
  <course>10.71</course>
  <speed>0.01414213562373095</speed>
  <fix>3d</fix>
</trkpt>
<trkpt lat="-27.274439" lon="151.290064">
  <ele>343.1</ele>
  <time>2026-09-01T20:03:17Z</time>
  <course>270.0</course>
  <speed>0.0</speed>
  <fix>3d</fix>
</trkpt>
<trkpt lat="-27.2744391" lon="151.2900641">
  <ele>343.04</ele>
  <time>2026-09-01T20:03:17Z</time>
  <course>10.71</course>
  <speed>0.01414213562373095</speed>
  <fix>3d</fix>
</trkpt>
<trkpt lat="-27.274439" lon="151.290064">
  <ele>343.1</ele>
  <time>2026-09-01T20:03:17Z</time>
  <course>270.0</course>
  <speed>0.0</speed>
  <fix>3d</fix>
</trkpt>
<trkpt lat="-27.2744391" lon="151.2900641">
  <ele>343.03</ele>
  <time>2026-09-01T20:03:17Z</time>
  <course>10.71</course>
  <speed>0.01414213562373095</speed>
  <fix>3d</fix>
</trkpt>
<trkpt lat="-27.274439" lon="151.290064">
  <ele>343.1</ele>
  <time>2026-09-01T20:03:17Z</time>
  <course>270.0</course>
  <speed>0.0</speed>
  <fix>3d</fix>
</trkpt>
<trkpt lat="-27.2744391" lon="151.2900641">
  <ele>343.03</ele>
  <time>2026-09-01T20:03:17Z</time>
  <course>10.71</course>
  <speed>0.01414213562373095</speed>
  <fix>3d</fix>
</trkpt>
<trkpt lat="-27.274439" lon="151.290064">
  <ele>343.1</ele>
  <time>2026-09-01T20:03:17Z</time>
  <course>270.0</course>
  <speed>0.0</speed>
  <fix>3d</fix>
</trkpt>
<trkpt lat="-27.2744391" lon="151.2900641">
  <ele>343.03</ele>
  <time>2026-09-01T20:03:17Z</time>
  <course>10.72</course>
  <speed>0.01414213562373095</speed>
  <fix>3d</fix>
</trkpt>
<trkpt lat="-27.274439" lon="151.290064">
  <ele>343.1</ele>
  <time>2026-09-01T20:03:17Z</time>
  <course>270.0</course>
  <speed>0.0</speed>
  <fix>3d</fix>
</trkpt>
<trkpt lat="-27.2744391" lon="151.2900641">
  <ele>343.03</ele>
  <time>2026-09-01T20:03:17Z</time>
  <course>10.72</course>
  <speed>0.01414213562373095</speed>
  <fix>3d</fix>
</trkpt>
<trkpt lat="-27.274439" lon="151.290064">
  <ele>343.1</ele>
  <time>2026-09-01T20:03:17Z</time>
  <course>270.0</course>
  <speed>0.0</speed>
  <fix>3d</fix>
</trkpt>
<trkpt lat="-27.2744391" lon="151.2900641">
  <ele>343.03</ele>
  <time>2026-09-01T20:03:17Z</time>
  <course>10.72</course>
  <speed>0.01414213562373095</speed>
  <fix>3d</fix>
</trkpt>
<trkpt lat="-27.274439" lon="151.290064">
  <ele>343.1</ele>
  <time>2026-09-01T20:03:17Z</time>
  <course>270.0</course>
  <speed>0.0</speed>
  <fix>3d</fix>
</trkpt>
<trkpt lat="-27.2744391" lon="151.2900641">
  <ele>343.03</ele>
  <time>2026-09-01T20:03:17Z</time>
  <course>10.72</course>
  <speed>0.01414213562373095</speed>
  <fix>3d</fix>
</trkpt>
<trkpt lat="-27.274439" lon="151.290064">
  <ele>343.1</ele>
  <time>2026-09-01T20:03:17Z</time>
  <course>270.0</course>
  <speed>0.0</speed>
  <fix>3d</fix>
</trkpt>
<trkpt lat="-27.2744391" lon="151.2900641">
  <ele>343.03</ele>
  <time>2026-09-01T20:03:17Z</time>
  <course>10.72</course>
  <speed>0.01414213562373095</speed>
  <fix>3d</fix>
</trkpt>
<trkpt lat="-27.274439" lon="151.290064">
  <ele>343.1</ele>
  <time>2026-09-01T20:03:17Z</time>
  <course>270.0</course>
  <speed>0.0</speed>
  <fix>3d</fix>
</trkpt>
<trkpt lat="-27.2744391" lon="151.2900641">
  <ele>343.1</ele>
  <time>2026-09-01T20:03:17Z</time>
  <course>10.72</course>
  <speed>0.01414213562373095</speed>
  <fix>3d</fix>
</trkpt>
<trkpt lat="-27.274439" lon="151.290064">
  <ele>343.1</ele>
  <time>2026-09-01T20:03:17Z</time>
  <course>270.0</course>
  <speed>0.0</speed>
  <fix>3d</fix>
</trkpt>
<trkpt lat="-27.2744391" lon="151.2900641">
  <ele>343.09</ele>
  <time>2026-09-01T20:03:17Z</time>
  <course>10.72</course>
  <speed>0.01414213562373095</speed>
  <fix>3d</fix>
</trkpt>
<trkpt lat="-27.274439" lon="151.290064">
  <ele>343.1</ele>
  <time>2026-09-01T20:03:17Z</time>
  <course>270.0</course>
  <speed>0.0</speed>
  <fix>3d</fix>
</trkpt>
<trkpt lat="-27.2744391" lon="151.2900641">
  <ele>343.09</ele>
  <time>2026-09-01T20:03:17Z</time>
  <course>10.72</course>
  <speed>0.01414213562373095</speed>
  <fix>3d</fix>
</trkpt>
<trkpt lat="-27.274439" lon="151.290064">
  <ele>343.1</ele>
  <time>2026-09-01T20:03:18Z</time>
  <course>270.0</course>
  <speed>0.0</speed>
  <fix>3d</fix>
</trkpt>
<trkpt lat="-27.2744391" lon="151.2900641">
  <ele>343.09</ele>
  <time>2026-09-01T20:03:18Z</time>
  <course>10.72</course>
  <speed>0.01414213562373095</speed>
  <fix>3d</fix>
</trkpt>
<trkpt lat="-27.274439" lon="151.290064">
  <ele>343.1</ele>
  <time>2026-09-01T20:03:18Z</time>
  <course>270.0</course>
  <speed>0.0</speed>
  <fix>3d</fix>
</trkpt>
<trkpt lat="-27.2744391" lon="151.2900641">
  <ele>343.09</ele>
  <time>2026-09-01T20:03:18Z</time>
  <course>10.72</course>
  <speed>0.01414213562373095</speed>
  <fix>3d</fix>
</trkpt>
<trkpt lat="-27.274439" lon="151.290064">
  <ele>343.1</ele>
  <time>2026-09-01T20:03:18Z</time>
  <course>270.0</course>
  <speed>0.0</speed>
  <fix>3d</fix>
</trkpt>
<trkpt lat="-27.2744391" lon="151.2900641">
  <ele>343.09</ele>
  <time>2026-09-01T20:03:18Z</time>
  <course>10.72</course>
  <speed>0.01414213562373095</speed>
  <fix>3d</fix>
</trkpt>
<trkpt lat="-27.274439" lon="151.290064">
  <ele>343.1</ele>
  <time>2026-09-01T20:03:18Z</time>
  <course>270.0</course>
  <speed>0.0</speed>
  <fix>3d</fix>
</trkpt>
<trkpt lat="-27.2744391" lon="151.2900641">
  <ele>343.08</ele>
  <time>2026-09-01T20:03:18Z</time>
  <course>10.72</course>
  <speed>0.01414213562373095</speed>
  <fix>3d</fix>
</trkpt>
<trkpt lat="-27.274439" lon="151.290064">
  <ele>343.1</ele>
  <time>2026-09-01T20:03:18Z</time>
  <course>270.0</course>
  <speed>0.0</speed>
  <fix>3d</fix>
</trkpt>
<trkpt lat="-27.2744391" lon="151.2900641">
  <ele>343.08</ele>
  <time>2026-09-01T20:03:18Z</time>
  <course>10.72</course>
  <speed>0.01414213562373095</speed>
  <fix>3d</fix>
</trkpt>
<trkpt lat="-27.274439" lon="151.290064">
  <ele>343.1</ele>
  <time>2026-09-01T20:03:18Z</time>
  <course>270.0</course>
  <speed>0.0</speed>
  <fix>3d</fix>
</trkpt>
<trkpt lat="-27.2744391" lon="151.2900641">
  <ele>343.07</ele>
  <time>2026-09-01T20:03:18Z</time>
  <course>10.72</course>
  <speed>0.01414213562373095</speed>
  <fix>3d</fix>
</trkpt>
<trkpt lat="-27.274439" lon="151.290064">
  <ele>343.1</ele>
  <time>2026-09-01T20:03:18Z</time>
  <course>270.0</course>
  <speed>0.0</speed>
  <fix>3d</fix>
</trkpt>
<trkpt lat="-27.2744391" lon="151.2900641">
  <ele>343.07</ele>
  <time>2026-09-01T20:03:18Z</time>
  <course>10.72</course>
  <speed>0.01414213562373095</speed>
  <fix>3d</fix>
</trkpt>
<trkpt lat="-27.274439" lon="151.290064">
  <ele>343.1</ele>
  <time>2026-09-01T20:03:18Z</time>
  <course>270.0</course>
  <speed>0.0</speed>
  <fix>3d</fix>
</trkpt>
<trkpt lat="-27.2744391" lon="151.2900641">
  <ele>343.07</ele>
  <time>2026-09-01T20:03:18Z</time>
  <course>10.72</course>
  <speed>0.01414213562373095</speed>
  <fix>3d</fix>
</trkpt>
<trkpt lat="-27.274439" lon="151.290064">
  <ele>343.1</ele>
  <time>2026-09-01T20:03:18Z</time>
  <course>270.0</course>
  <speed>0.0</speed>
  <fix>3d</fix>
</trkpt>
<trkpt lat="-27.2744391" lon="151.2900641">
  <ele>343.06</ele>
  <time>2026-09-01T20:03:18Z</time>
  <course>10.72</course>
  <speed>0.01414213562373095</speed>
  <fix>3d</fix>
</trkpt>
<trkpt lat="-27.274439" lon="151.290064">
  <ele>343.1</ele>
  <time>2026-09-01T20:03:18Z</time>
  <course>270.0</course>
  <speed>0.0</speed>
  <fix>3d</fix>
</trkpt>
<trkpt lat="-27.2744391" lon="151.2900641">
  <ele>343.06</ele>
  <time>2026-09-01T20:03:18Z</time>
  <course>10.72</course>
  <speed>0.01414213562373095</speed>
  <fix>3d</fix>
</trkpt>
<trkpt lat="-27.274439" lon="151.290064">
  <ele>343.1</ele>
  <time>2026-09-01T20:03:18Z</time>
  <course>270.0</course>
  <speed>0.0</speed>
  <fix>3d</fix>
</trkpt>
<trkpt lat="-27.2744391" lon="151.2900641">
  <ele>343.05</ele>
  <time>2026-09-01T20:03:18Z</time>
  <course>10.72</course>
  <speed>0.01414213562373095</speed>
  <fix>3d</fix>
</trkpt>
<trkpt lat="-27.274439" lon="151.290064">
  <ele>343.1</ele>
  <time>2026-09-01T20:03:18Z</time>
  <course>270.0</course>
  <speed>0.0</speed>
  <fix>3d</fix>
</trkpt>
<trkpt lat="-27.2744391" lon="151.2900641">
  <ele>343.05</ele>
  <time>2026-09-01T20:03:18Z</time>
  <course>10.72</course>
  <speed>0.01414213562373095</speed>
  <fix>3d</fix>
</trkpt>
<trkpt lat="-27.274439" lon="151.290064">
  <ele>343.1</ele>
  <time>2026-09-01T20:03:18Z</time>
  <course>270.0</course>
  <speed>0.0</speed>
  <fix>3d</fix>
</trkpt>
<trkpt lat="-27.2744391" lon="151.2900641">
  <ele>343.05</ele>
  <time>2026-09-01T20:03:18Z</time>
  <course>10.72</course>
  <speed>0.01414213562373095</speed>
  <fix>3d</fix>
</trkpt>
<trkpt lat="-27.274439" lon="151.290064">
  <ele>343.1</ele>
  <time>2026-09-01T20:03:18Z</time>
  <course>270.0</course>
  <speed>0.0</speed>
  <fix>3d</fix>
</trkpt>
<trkpt lat="-27.2744391" lon="151.2900641">
  <ele>343.04</ele>
  <time>2026-09-01T20:03:18Z</time>
  <course>10.72</course>
  <speed>0.01414213562373095</speed>
  <fix>3d</fix>
</trkpt>
<trkpt lat="-27.274439" lon="151.290064">
  <ele>343.1</ele>
  <time>2026-09-01T20:03:18Z</time>
  <course>270.0</course>
  <speed>0.0</speed>
  <fix>3d</fix>
</trkpt>
<trkpt lat="-27.2744391" lon="151.2900641">
  <ele>343.04</ele>
  <time>2026-09-01T20:03:18Z</time>
  <course>10.72</course>
  <speed>0.01414213562373095</speed>
  <fix>3d</fix>
</trkpt>
<trkpt lat="-27.274439" lon="151.290064">
  <ele>343.1</ele>
  <time>2026-09-01T20:03:18Z</time>
  <course>270.0</course>
  <speed>0.0</speed>
  <fix>3d</fix>
</trkpt>
<trkpt lat="-27.2744391" lon="151.2900641">
  <ele>343.03</ele>
  <time>2026-09-01T20:03:18Z</time>
  <course>10.72</course>
  <speed>0.01414213562373095</speed>
  <fix>3d</fix>
</trkpt>
<trkpt lat="-27.274439" lon="151.290064">
  <ele>343.1</ele>
  <time>2026-09-01T20:03:18Z</time>
  <course>270.0</course>
  <speed>0.0</speed>
  <fix>3d</fix>
</trkpt>
<trkpt lat="-27.2744391" lon="151.2900641">
  <ele>343.03</ele>
  <time>2026-09-01T20:03:18Z</time>
  <course>10.72</course>
  <speed>0.01414213562373095</speed>
  <fix>3d</fix>
</trkpt>
<trkpt lat="-27.274439" lon="151.290064">
  <ele>343.1</ele>
  <time>2026-09-01T20:03:18Z</time>
  <course>270.0</course>
  <speed>0.0</speed>
  <fix>3d</fix>
</trkpt>
<trkpt lat="-27.2744391" lon="151.2900641">
  <ele>343.02</ele>
  <time>2026-09-01T20:03:18Z</time>
  <course>10.72</course>
  <speed>0.01414213562373095</speed>
  <fix>3d</fix>
</trkpt>
<trkpt lat="-27.274439" lon="151.290064">
  <ele>343.1</ele>
  <time>2026-09-01T20:03:18Z</time>
  <course>270.0</course>
  <speed>0.0</speed>
  <fix>3d</fix>
</trkpt>
<trkpt lat="-27.2744391" lon="151.2900641">
  <ele>343.02</ele>
  <time>2026-09-01T20:03:18Z</time>
  <course>10.72</course>
  <speed>0.01414213562373095</speed>
  <fix>3d</fix>
</trkpt>
<trkpt lat="-27.274439" lon="151.290064">
  <ele>343.1</ele>
  <time>2026-09-01T20:03:18Z</time>
  <course>270.0</course>
  <speed>0.0</speed>
  <fix>3d</fix>
</trkpt>
<trkpt lat="-27.2744391" lon="151.2900641">
  <ele>343.02</ele>
  <time>2026-09-01T20:03:18Z</time>
  <course>10.72</course>
  <speed>0.01414213562373095</speed>
  <fix>3d</fix>
</trkpt>
<trkpt lat="-27.274439" lon="151.290064">
  <ele>343.1</ele>
  <time>2026-09-01T20:03:18Z</time>
  <course>270.0</course>
  <speed>0.0</speed>
  <fix>3d</fix>
</trkpt>
<trkpt lat="-27.2744391" lon="151.2900641">
  <ele>343.02</ele>
  <time>2026-09-01T20:03:18Z</time>
  <course>10.72</course>
  <speed>0.01414213562373095</speed>
  <fix>3d</fix>
</trkpt>
<trkpt lat="-27.274439" lon="151.290064">
  <ele>343.1</ele>
  <time>2026-09-01T20:03:18Z</time>
  <course>270.0</course>
  <speed>0.0</speed>
  <fix>3d</fix>
</trkpt>
<trkpt lat="-27.2744391" lon="151.2900641">
  <ele>343.02</ele>
  <time>2026-09-01T20:03:18Z</time>
  <course>10.72</course>
  <speed>0.01414213562373095</speed>
  <fix>3d</fix>
</trkpt>
<trkpt lat="-27.274439" lon="151.290064">
  <ele>343.1</ele>
  <time>2026-09-01T20:03:18Z</time>
  <course>270.0</course>
  <speed>0.0</speed>
  <fix>3d</fix>
</trkpt>
<trkpt lat="-27.2744391" lon="151.2900641">
  <ele>343.02</ele>
  <time>2026-09-01T20:03:18Z</time>
  <course>10.72</course>
  <speed>0.01414213562373095</speed>
  <fix>3d</fix>
</trkpt>
<trkpt lat="-27.274439" lon="151.290064">
  <ele>343.1</ele>
  <time>2026-09-01T20:03:18Z</time>
  <course>270.0</course>
  <speed>0.0</speed>
  <fix>3d</fix>
</trkpt>
<trkpt lat="-27.2744391" lon="151.2900641">
  <ele>343.01</ele>
  <time>2026-09-01T20:03:18Z</time>
  <course>10.72</course>
  <speed>0.01414213562373095</speed>
  <fix>3d</fix>
</trkpt>
<trkpt lat="-27.274439" lon="151.290064">
  <ele>343.1</ele>
  <time>2026-09-01T20:03:18Z</time>
  <course>270.0</course>
  <speed>0.0</speed>
  <fix>3d</fix>
</trkpt>
<trkpt lat="-27.2744391" lon="151.2900641">
  <ele>343.01</ele>
  <time>2026-09-01T20:03:18Z</time>
  <course>10.72</course>
  <speed>0.01414213562373095</speed>
  <fix>3d</fix>
</trkpt>
<trkpt lat="-27.274439" lon="151.290064">
  <ele>343.1</ele>
  <time>2026-09-01T20:03:18Z</time>
  <course>270.0</course>
  <speed>0.0</speed>
  <fix>3d</fix>
</trkpt>
<trkpt lat="-27.2744391" lon="151.2900641">
  <ele>343.0</ele>
  <time>2026-09-01T20:03:18Z</time>
  <course>10.72</course>
  <speed>0.01414213562373095</speed>
  <fix>3d</fix>
</trkpt>
<trkpt lat="-27.274439" lon="151.290064">
  <ele>343.1</ele>
  <time>2026-09-01T20:03:18Z</time>
  <course>270.0</course>
  <speed>0.0</speed>
  <fix>3d</fix>
</trkpt>
<trkpt lat="-27.2744391" lon="151.2900641">
  <ele>343.0</ele>
  <time>2026-09-01T20:03:18Z</time>
  <course>10.73</course>
  <speed>0.01414213562373095</speed>
  <fix>3d</fix>
</trkpt>
<trkpt lat="-27.274439" lon="151.290064">
  <ele>343.1</ele>
  <time>2026-09-01T20:03:18Z</time>
  <course>270.0</course>
  <speed>0.0</speed>
  <fix>3d</fix>
</trkpt>
<trkpt lat="-27.2744391" lon="151.2900641">
  <ele>343.0</ele>
  <time>2026-09-01T20:03:18Z</time>
  <course>10.73</course>
  <speed>0.01414213562373095</speed>
  <fix>3d</fix>
</trkpt>
<trkpt lat="-27.274439" lon="151.290064">
  <ele>343.1</ele>
  <time>2026-09-01T20:03:18Z</time>
  <course>270.0</course>
  <speed>0.0</speed>
  <fix>3d</fix>
</trkpt>
<trkpt lat="-27.2744391" lon="151.2900641">
  <ele>342.99</ele>
  <time>2026-09-01T20:03:18Z</time>
  <course>10.73</course>
  <speed>0.01414213562373095</speed>
  <fix>3d</fix>
</trkpt>
<trkpt lat="-27.274439" lon="151.290064">
  <ele>343.1</ele>
  <time>2026-09-01T20:03:18Z</time>
  <course>270.0</course>
  <speed>0.0</speed>
  <fix>3d</fix>
</trkpt>
<trkpt lat="-27.2744391" lon="151.2900641">
  <ele>342.99</ele>
  <time>2026-09-01T20:03:18Z</time>
  <course>10.73</course>
  <speed>0.01414213562373095</speed>
  <fix>3d</fix>
</trkpt>
<trkpt lat="-27.274439" lon="151.290064">
  <ele>343.1</ele>
  <time>2026-09-01T20:03:18Z</time>
  <course>270.0</course>
  <speed>0.0</speed>
  <fix>3d</fix>
</trkpt>
<trkpt lat="-27.2744391" lon="151.2900641">
  <ele>342.99</ele>
  <time>2026-09-01T20:03:18Z</time>
  <course>10.73</course>
  <speed>0.01414213562373095</speed>
  <fix>3d</fix>
</trkpt>
<trkpt lat="-27.274439" lon="151.290064">
  <ele>343.1</ele>
  <time>2026-09-01T20:03:18Z</time>
  <course>270.0</course>
  <speed>0.0</speed>
  <fix>3d</fix>
</trkpt>
<trkpt lat="-27.2744391" lon="151.2900641">
  <ele>342.99</ele>
  <time>2026-09-01T20:03:18Z</time>
  <course>10.73</course>
  <speed>0.01414213562373095</speed>
  <fix>3d</fix>
</trkpt>
<trkpt lat="-27.274439" lon="151.290064">
  <ele>343.1</ele>
  <time>2026-09-01T20:03:18Z</time>
  <course>270.0</course>
  <speed>0.0</speed>
  <fix>3d</fix>
</trkpt>
<trkpt lat="-27.2744391" lon="151.2900641">
  <ele>342.99</ele>
  <time>2026-09-01T20:03:18Z</time>
  <course>10.73</course>
  <speed>0.01414213562373095</speed>
  <fix>3d</fix>
</trkpt>
<trkpt lat="-27.274439" lon="151.290064">
  <ele>343.1</ele>
  <time>2026-09-01T20:03:18Z</time>
  <course>270.0</course>
  <speed>0.0</speed>
  <fix>3d</fix>
</trkpt>
<trkpt lat="-27.2744391" lon="151.2900641">
  <ele>342.98</ele>
  <time>2026-09-01T20:03:18Z</time>
  <course>10.73</course>
  <speed>0.01414213562373095</speed>
  <fix>3d</fix>
</trkpt>
<trkpt lat="-27.274439" lon="151.290064">
  <ele>343.1</ele>
  <time>2026-09-01T20:03:18Z</time>
  <course>270.0</course>
  <speed>0.0</speed>
  <fix>3d</fix>
</trkpt>
<trkpt lat="-27.2744391" lon="151.2900641">
  <ele>342.98</ele>
  <time>2026-09-01T20:03:18Z</time>
  <course>10.73</course>
  <speed>0.01414213562373095</speed>
  <fix>3d</fix>
</trkpt>
<trkpt lat="-27.274439" lon="151.290064">
  <ele>343.1</ele>
  <time>2026-09-01T20:03:18Z</time>
  <course>270.0</course>
  <speed>0.0</speed>
  <fix>3d</fix>
</trkpt>
<trkpt lat="-27.2744391" lon="151.2900641">
  <ele>342.98</ele>
  <time>2026-09-01T20:03:18Z</time>
  <course>10.73</course>
  <speed>0.01414213562373095</speed>
  <fix>3d</fix>
</trkpt>
<trkpt lat="-27.274439" lon="151.290064">
  <ele>343.1</ele>
  <time>2026-09-01T20:03:18Z</time>
  <course>270.0</course>
  <speed>0.0</speed>
  <fix>3d</fix>
</trkpt>
<trkpt lat="-27.2744391" lon="151.2900641">
  <ele>342.98</ele>
  <time>2026-09-01T20:03:18Z</time>
  <course>10.73</course>
  <speed>0.01414213562373095</speed>
  <fix>3d</fix>
</trkpt>
<trkpt lat="-27.274439" lon="151.290064">
  <ele>343.1</ele>
  <time>2026-09-01T20:03:18Z</time>
  <course>270.0</course>
  <speed>0.0</speed>
  <fix>3d</fix>
</trkpt>
<trkpt lat="-27.2744391" lon="151.2900641">
  <ele>342.98</ele>
  <time>2026-09-01T20:03:18Z</time>
  <course>10.73</course>
  <speed>0.01414213562373095</speed>
  <fix>3d</fix>
</trkpt>
<trkpt lat="-27.274439" lon="151.290064">
  <ele>343.1</ele>
  <time>2026-09-01T20:03:18Z</time>
  <course>270.0</course>
  <speed>0.0</speed>
  <fix>3d</fix>
</trkpt>
<trkpt lat="-27.2744391" lon="151.2900641">
  <ele>342.98</ele>
  <time>2026-09-01T20:03:18Z</time>
  <course>10.73</course>
  <speed>0.01414213562373095</speed>
  <fix>3d</fix>
</trkpt>
<trkpt lat="-27.274439" lon="151.290064">
  <ele>343.1</ele>
  <time>2026-09-01T20:03:18Z</time>
  <course>270.0</course>
  <speed>0.0</speed>
  <fix>3d</fix>
</trkpt>
<trkpt lat="-27.2744391" lon="151.2900641">
  <ele>342.98</ele>
  <time>2026-09-01T20:03:18Z</time>
  <course>10.73</course>
  <speed>0.01414213562373095</speed>
  <fix>3d</fix>
</trkpt>
<trkpt lat="-27.274439" lon="151.290064">
  <ele>343.1</ele>
  <time>2026-09-01T20:03:18Z</time>
  <course>270.0</course>
  <speed>0.0</speed>
  <fix>3d</fix>
</trkpt>
<trkpt lat="-27.2744391" lon="151.2900641">
  <ele>342.98</ele>
  <time>2026-09-01T20:03:18Z</time>
  <course>10.73</course>
  <speed>0.01414213562373095</speed>
  <fix>3d</fix>
</trkpt>
<trkpt lat="-27.274439" lon="151.290064">
  <ele>343.1</ele>
  <time>2026-09-01T20:03:18Z</time>
  <course>270.0</course>
  <speed>0.0</speed>
  <fix>3d</fix>
</trkpt>
<trkpt lat="-27.2744391" lon="151.2900641">
  <ele>342.98</ele>
  <time>2026-09-01T20:03:18Z</time>
  <course>10.73</course>
  <speed>0.01414213562373095</speed>
  <fix>3d</fix>
</trkpt>
<trkpt lat="-27.274439" lon="151.290064">
  <ele>343.1</ele>
  <time>2026-09-01T20:03:18Z</time>
  <course>270.0</course>
  <speed>0.0</speed>
  <fix>3d</fix>
</trkpt>
<trkpt lat="-27.2744391" lon="151.2900641">
  <ele>342.98</ele>
  <time>2026-09-01T20:03:18Z</time>
  <course>10.73</course>
  <speed>0.01414213562373095</speed>
  <fix>3d</fix>
</trkpt>
<trkpt lat="-27.274439" lon="151.290064">
  <ele>343.1</ele>
  <time>2026-09-01T20:03:18Z</time>
  <course>270.0</course>
  <speed>0.0</speed>
  <fix>3d</fix>
</trkpt>
<trkpt lat="-27.2744391" lon="151.2900641">
  <ele>342.98</ele>
  <time>2026-09-01T20:03:18Z</time>
  <course>10.73</course>
  <speed>0.01414213562373095</speed>
  <fix>3d</fix>
</trkpt>
<trkpt lat="-27.274439" lon="151.290064">
  <ele>343.1</ele>
  <time>2026-09-01T20:03:18Z</time>
  <course>270.0</course>
  <speed>0.0</speed>
  <fix>3d</fix>
</trkpt>
<trkpt lat="-27.2744391" lon="151.2900641">
  <ele>342.97</ele>
  <time>2026-09-01T20:03:18Z</time>
  <course>10.73</course>
  <speed>0.01414213562373095</speed>
  <fix>3d</fix>
</trkpt>
<trkpt lat="-27.274439" lon="151.290064">
  <ele>343.1</ele>
  <time>2026-09-01T20:03:18Z</time>
  <course>270.0</course>
  <speed>0.0</speed>
  <fix>3d</fix>
</trkpt>
<trkpt lat="-27.2744391" lon="151.2900641">
  <ele>342.97</ele>
  <time>2026-09-01T20:03:18Z</time>
  <course>10.73</course>
  <speed>0.01414213562373095</speed>
  <fix>3d</fix>
</trkpt>
<trkpt lat="-27.274439" lon="151.290064">
  <ele>343.1</ele>
  <time>2026-09-01T20:03:18Z</time>
  <course>270.0</course>
  <speed>0.0</speed>
  <fix>3d</fix>
</trkpt>
<trkpt lat="-27.2744391" lon="151.2900641">
  <ele>342.97</ele>
  <time>2026-09-01T20:03:18Z</time>
  <course>10.73</course>
  <speed>0.01414213562373095</speed>
  <fix>3d</fix>
</trkpt>
<trkpt lat="-27.274439" lon="151.290064">
  <ele>343.1</ele>
  <time>2026-09-01T20:03:18Z</time>
  <course>270.0</course>
  <speed>0.0</speed>
  <fix>3d</fix>
</trkpt>
<trkpt lat="-27.2744391" lon="151.2900641">
  <ele>342.96</ele>
  <time>2026-09-01T20:03:18Z</time>
  <course>10.73</course>
  <speed>0.01414213562373095</speed>
  <fix>3d</fix>
</trkpt>
<trkpt lat="-27.274439" lon="151.290064">
  <ele>343.1</ele>
  <time>2026-09-01T20:03:18Z</time>
  <course>270.0</course>
  <speed>0.0</speed>
  <fix>3d</fix>
</trkpt>
<trkpt lat="-27.2744391" lon="151.2900641">
  <ele>342.96</ele>
  <time>2026-09-01T20:03:18Z</time>
  <course>10.73</course>
  <speed>0.01414213562373095</speed>
  <fix>3d</fix>
</trkpt>
<trkpt lat="-27.274439" lon="151.290064">
  <ele>343.1</ele>
  <time>2026-09-01T20:03:18Z</time>
  <course>270.0</course>
  <speed>0.0</speed>
  <fix>3d</fix>
</trkpt>
<trkpt lat="-27.2744391" lon="151.2900641">
  <ele>342.96</ele>
  <time>2026-09-01T20:03:18Z</time>
  <course>10.73</course>
  <speed>0.01414213562373095</speed>
  <fix>3d</fix>
</trkpt>
<trkpt lat="-27.274439" lon="151.290064">
  <ele>343.1</ele>
  <time>2026-09-01T20:03:18Z</time>
  <course>270.0</course>
  <speed>0.0</speed>
  <fix>3d</fix>
</trkpt>
<trkpt lat="-27.2744391" lon="151.2900641">
  <ele>342.96</ele>
  <time>2026-09-01T20:03:18Z</time>
  <course>10.73</course>
  <speed>0.01414213562373095</speed>
  <fix>3d</fix>
</trkpt>
<trkpt lat="-27.274439" lon="151.290064">
  <ele>343.1</ele>
  <time>2026-09-01T20:03:18Z</time>
  <course>270.0</course>
  <speed>0.0</speed>
  <fix>3d</fix>
</trkpt>
<trkpt lat="-27.2744391" lon="151.2900641">
  <ele>342.95</ele>
  <time>2026-09-01T20:03:18Z</time>
  <course>10.73</course>
  <speed>0.01414213562373095</speed>
  <fix>3d</fix>
</trkpt>
<trkpt lat="-27.274439" lon="151.290064">
  <ele>343.1</ele>
  <time>2026-09-01T20:03:18Z</time>
  <course>270.0</course>
  <speed>0.0</speed>
  <fix>3d</fix>
</trkpt>
<trkpt lat="-27.2744391" lon="151.2900641">
  <ele>342.95</ele>
  <time>2026-09-01T20:03:18Z</time>
  <course>10.73</course>
  <speed>0.01414213562373095</speed>
  <fix>3d</fix>
</trkpt>
<trkpt lat="-27.274439" lon="151.290064">
  <ele>343.1</ele>
  <time>2026-09-01T20:03:18Z</time>
  <course>270.0</course>
  <speed>0.0</speed>
  <fix>3d</fix>
</trkpt>
<trkpt lat="-27.2744391" lon="151.2900641">
  <ele>342.95</ele>
  <time>2026-09-01T20:03:18Z</time>
  <course>10.73</course>
  <speed>0.01414213562373095</speed>
  <fix>3d</fix>
</trkpt>
<trkpt lat="-27.274439" lon="151.290064">
  <ele>343.1</ele>
  <time>2026-09-01T20:03:18Z</time>
  <course>270.0</course>
  <speed>0.0</speed>
  <fix>3d</fix>
</trkpt>
<trkpt lat="-27.2744391" lon="151.2900641">
  <ele>342.95</ele>
  <time>2026-09-01T20:03:18Z</time>
  <course>10.73</course>
  <speed>0.01414213562373095</speed>
  <fix>3d</fix>
</trkpt>
<trkpt lat="-27.274439" lon="151.290064">
  <ele>343.1</ele>
  <time>2026-09-01T20:03:18Z</time>
  <course>270.0</course>
  <speed>0.0</speed>
  <fix>3d</fix>
</trkpt>
<trkpt lat="-27.2744391" lon="151.2900641">
  <ele>342.95</ele>
  <time>2026-09-01T20:03:18Z</time>
  <course>10.73</course>
  <speed>0.01414213562373095</speed>
  <fix>3d</fix>
</trkpt>
<trkpt lat="-27.274439" lon="151.290064">
  <ele>343.1</ele>
  <time>2026-09-01T20:03:18Z</time>
  <course>270.0</course>
  <speed>0.0</speed>
  <fix>3d</fix>
</trkpt>
<trkpt lat="-27.2744391" lon="151.2900641">
  <ele>342.95</ele>
  <time>2026-09-01T20:03:18Z</time>
  <course>10.73</course>
  <speed>0.01414213562373095</speed>
  <fix>3d</fix>
</trkpt>
<trkpt lat="-27.274439" lon="151.290064">
  <ele>343.1</ele>
  <time>2026-09-01T20:03:18Z</time>
  <course>270.0</course>
  <speed>0.0</speed>
  <fix>3d</fix>
</trkpt>
<trkpt lat="-27.2744391" lon="151.2900641">
  <ele>343.1</ele>
  <time>2026-09-01T20:03:18Z</time>
  <course>10.73</course>
  <speed>0.01414213562373095</speed>
  <fix>3d</fix>
</trkpt>
<trkpt lat="-27.274439" lon="151.290064">
  <ele>343.1</ele>
  <time>2026-09-01T20:03:18Z</time>
  <course>270.0</course>
  <speed>0.0</speed>
  <fix>3d</fix>
</trkpt>
<trkpt lat="-27.2744391" lon="151.2900641">
  <ele>343.09</ele>
  <time>2026-09-01T20:03:18Z</time>
  <course>10.74</course>
  <speed>0.01414213562373095</speed>
  <fix>3d</fix>
</trkpt>
<trkpt lat="-27.274439" lon="151.290064">
  <ele>343.1</ele>
  <time>2026-09-01T20:03:18Z</time>
  <course>270.0</course>
  <speed>0.0</speed>
  <fix>3d</fix>
</trkpt>
<trkpt lat="-27.2744391" lon="151.2900641">
  <ele>343.09</ele>
  <time>2026-09-01T20:03:18Z</time>
  <course>10.74</course>
  <speed>0.01414213562373095</speed>
  <fix>3d</fix>
</trkpt>
<trkpt lat="-27.274439" lon="151.290064">
  <ele>343.1</ele>
  <time>2026-09-01T20:03:18Z</time>
  <course>270.0</course>
  <speed>0.0</speed>
  <fix>3d</fix>
</trkpt>
<trkpt lat="-27.2744391" lon="151.2900641">
  <ele>343.09</ele>
  <time>2026-09-01T20:03:18Z</time>
  <course>10.74</course>
  <speed>0.01414213562373095</speed>
  <fix>3d</fix>
</trkpt>
<trkpt lat="-27.274439" lon="151.290064">
  <ele>343.1</ele>
  <time>2026-09-01T20:03:18Z</time>
  <course>270.0</course>
  <speed>0.0</speed>
  <fix>3d</fix>
</trkpt>
<trkpt lat="-27.2744391" lon="151.2900641">
  <ele>343.09</ele>
  <time>2026-09-01T20:03:18Z</time>
  <course>10.74</course>
  <speed>0.01414213562373095</speed>
  <fix>3d</fix>
</trkpt>
<trkpt lat="-27.274439" lon="151.290064">
  <ele>343.1</ele>
  <time>2026-09-01T20:03:18Z</time>
  <course>270.0</course>
  <speed>0.0</speed>
  <fix>3d</fix>
</trkpt>
<trkpt lat="-27.2744391" lon="151.2900641">
  <ele>343.09</ele>
  <time>2026-09-01T20:03:18Z</time>
  <course>10.74</course>
  <speed>0.01414213562373095</speed>
  <fix>3d</fix>
</trkpt>
<trkpt lat="-27.274439" lon="151.290064">
  <ele>343.1</ele>
  <time>2026-09-01T20:03:18Z</time>
  <course>270.0</course>
  <speed>0.0</speed>
  <fix>3d</fix>
</trkpt>
<trkpt lat="-27.2744391" lon="151.2900641">
  <ele>343.08</ele>
  <time>2026-09-01T20:03:18Z</time>
  <course>10.74</course>
  <speed>0.01414213562373095</speed>
  <fix>3d</fix>
</trkpt>
<trkpt lat="-27.274439" lon="151.290064">
  <ele>343.1</ele>
  <time>2026-09-01T20:03:18Z</time>
  <course>270.0</course>
  <speed>0.0</speed>
  <fix>3d</fix>
</trkpt>
<trkpt lat="-27.2744391" lon="151.2900641">
  <ele>343.08</ele>
  <time>2026-09-01T20:03:18Z</time>
  <course>10.74</course>
  <speed>0.01414213562373095</speed>
  <fix>3d</fix>
</trkpt>
<trkpt lat="-27.274439" lon="151.290064">
  <ele>343.1</ele>
  <time>2026-09-01T20:03:18Z</time>
  <course>270.0</course>
  <speed>0.0</speed>
  <fix>3d</fix>
</trkpt>
<trkpt lat="-27.2744391" lon="151.2900641">
  <ele>343.08</ele>
  <time>2026-09-01T20:03:18Z</time>
  <course>10.74</course>
  <speed>0.01414213562373095</speed>
  <fix>3d</fix>
</trkpt>
<trkpt lat="-27.274439" lon="151.290064">
  <ele>343.1</ele>
  <time>2026-09-01T20:03:18Z</time>
  <course>270.0</course>
  <speed>0.0</speed>
  <fix>3d</fix>
</trkpt>
<trkpt lat="-27.2744391" lon="151.2900641">
  <ele>343.07</ele>
  <time>2026-09-01T20:03:18Z</time>
  <course>10.74</course>
  <speed>0.01414213562373095</speed>
  <fix>3d</fix>
</trkpt>
<trkpt lat="-27.274439" lon="151.290064">
  <ele>343.1</ele>
  <time>2026-09-01T20:03:18Z</time>
  <course>270.0</course>
  <speed>0.0</speed>
  <fix>3d</fix>
</trkpt>
<trkpt lat="-27.2744391" lon="151.2900641">
  <ele>343.07</ele>
  <time>2026-09-01T20:03:18Z</time>
  <course>10.74</course>
  <speed>0.01414213562373095</speed>
  <fix>3d</fix>
</trkpt>
<trkpt lat="-27.274439" lon="151.290064">
  <ele>343.1</ele>
  <time>2026-09-01T20:03:18Z</time>
  <course>270.0</course>
  <speed>0.0</speed>
  <fix>3d</fix>
</trkpt>
<trkpt lat="-27.2744391" lon="151.2900641">
  <ele>343.07</ele>
  <time>2026-09-01T20:03:18Z</time>
  <course>10.74</course>
  <speed>0.01414213562373095</speed>
  <fix>3d</fix>
</trkpt>
<trkpt lat="-27.274439" lon="151.290064">
  <ele>343.1</ele>
  <time>2026-09-01T20:03:18Z</time>
  <course>270.0</course>
  <speed>0.0</speed>
  <fix>3d</fix>
</trkpt>
<trkpt lat="-27.2744391" lon="151.2900641">
  <ele>343.07</ele>
  <time>2026-09-01T20:03:18Z</time>
  <course>10.74</course>
  <speed>0.01414213562373095</speed>
  <fix>3d</fix>
</trkpt>
<trkpt lat="-27.274439" lon="151.290064">
  <ele>343.1</ele>
  <time>2026-09-01T20:03:18Z</time>
  <course>270.0</course>
  <speed>0.0</speed>
  <fix>3d</fix>
</trkpt>
<trkpt lat="-27.2744391" lon="151.2900641">
  <ele>343.06</ele>
  <time>2026-09-01T20:03:18Z</time>
  <course>10.74</course>
  <speed>0.01414213562373095</speed>
  <fix>3d</fix>
</trkpt>
<trkpt lat="-27.274439" lon="151.290064">
  <ele>343.1</ele>
  <time>2026-09-01T20:03:18Z</time>
  <course>270.0</course>
  <speed>0.0</speed>
  <fix>3d</fix>
</trkpt>
<trkpt lat="-27.2744391" lon="151.2900641">
  <ele>343.06</ele>
  <time>2026-09-01T20:03:18Z</time>
  <course>10.74</course>
  <speed>0.01414213562373095</speed>
  <fix>3d</fix>
</trkpt>
<trkpt lat="-27.274439" lon="151.290064">
  <ele>343.1</ele>
  <time>2026-09-01T20:03:18Z</time>
  <course>270.0</course>
  <speed>0.0</speed>
  <fix>3d</fix>
</trkpt>
<trkpt lat="-27.2744391" lon="151.2900641">
  <ele>343.06</ele>
  <time>2026-09-01T20:03:18Z</time>
  <course>10.74</course>
  <speed>0.01414213562373095</speed>
  <fix>3d</fix>
</trkpt>
<trkpt lat="-27.274439" lon="151.290064">
  <ele>343.1</ele>
  <time>2026-09-01T20:03:18Z</time>
  <course>270.0</course>
  <speed>0.0</speed>
  <fix>3d</fix>
</trkpt>
<trkpt lat="-27.2744391" lon="151.2900641">
  <ele>343.06</ele>
  <time>2026-09-01T20:03:18Z</time>
  <course>10.74</course>
  <speed>0.01414213562373095</speed>
  <fix>3d</fix>
</trkpt>
<trkpt lat="-27.274439" lon="151.290064">
  <ele>343.1</ele>
  <time>2026-09-01T20:03:18Z</time>
  <course>270.0</course>
  <speed>0.0</speed>
  <fix>3d</fix>
</trkpt>
<trkpt lat="-27.2744391" lon="151.2900641">
  <ele>343.06</ele>
  <time>2026-09-01T20:03:18Z</time>
  <course>10.74</course>
  <speed>0.022360679774997897</speed>
  <fix>3d</fix>
</trkpt>
<trkpt lat="-27.274439" lon="151.290064">
  <ele>343.1</ele>
  <time>2026-09-01T20:03:18Z</time>
  <course>270.0</course>
  <speed>0.0</speed>
  <fix>3d</fix>
</trkpt>
<trkpt lat="-27.2744391" lon="151.2900641">
  <ele>343.06</ele>
  <time>2026-09-01T20:03:18Z</time>
  <course>10.74</course>
  <speed>0.01414213562373095</speed>
  <fix>3d</fix>
</trkpt>
<trkpt lat="-27.274439" lon="151.290064">
  <ele>343.1</ele>
  <time>2026-09-01T20:03:18Z</time>
  <course>270.0</course>
  <speed>0.0</speed>
  <fix>3d</fix>
</trkpt>
<trkpt lat="-27.2744391" lon="151.2900641">
  <ele>343.06</ele>
  <time>2026-09-01T20:03:18Z</time>
  <course>10.74</course>
  <speed>0.022360679774997897</speed>
  <fix>3d</fix>
</trkpt>
<trkpt lat="-27.274439" lon="151.290064">
  <ele>343.1</ele>
  <time>2026-09-01T20:03:18Z</time>
  <course>270.0</course>
  <speed>0.0</speed>
  <fix>3d</fix>
</trkpt>
<trkpt lat="-27.2744391" lon="151.2900641">
  <ele>343.06</ele>
  <time>2026-09-01T20:03:18Z</time>
  <course>10.74</course>
  <speed>0.022360679774997897</speed>
  <fix>3d</fix>
</trkpt>
<trkpt lat="-27.274439" lon="151.290064">
  <ele>343.1</ele>
  <time>2026-09-01T20:03:18Z</time>
  <course>270.0</course>
  <speed>0.0</speed>
  <fix>3d</fix>
</trkpt>
<trkpt lat="-27.2744391" lon="151.2900641">
  <ele>343.06</ele>
  <time>2026-09-01T20:03:18Z</time>
  <course>10.74</course>
  <speed>0.022360679774997897</speed>
  <fix>3d</fix>
</trkpt>
<trkpt lat="-27.274439" lon="151.290064">
  <ele>343.1</ele>
  <time>2026-09-01T20:03:18Z</time>
  <course>270.0</course>
  <speed>0.0</speed>
  <fix>3d</fix>
</trkpt>
<trkpt lat="-27.2744391" lon="151.2900641">
  <ele>343.06</ele>
  <time>2026-09-01T20:03:18Z</time>
  <course>10.74</course>
  <speed>0.022360679774997897</speed>
  <fix>3d</fix>
</trkpt>
<trkpt lat="-27.274439" lon="151.290064">
  <ele>343.1</ele>
  <time>2026-09-01T20:03:18Z</time>
  <course>270.0</course>
  <speed>0.0</speed>
  <fix>3d</fix>
</trkpt>
<trkpt lat="-27.2744391" lon="151.2900641">
  <ele>343.06</ele>
  <time>2026-09-01T20:03:18Z</time>
  <course>10.74</course>
  <speed>0.022360679774997897</speed>
  <fix>3d</fix>
</trkpt>
<trkpt lat="-27.274439" lon="151.290064">
  <ele>343.1</ele>
  <time>2026-09-01T20:03:18Z</time>
  <course>270.0</course>
  <speed>0.0</speed>
  <fix>3d</fix>
</trkpt>
<trkpt lat="-27.2744391" lon="151.2900641">
  <ele>343.06</ele>
  <time>2026-09-01T20:03:18Z</time>
  <course>10.74</course>
  <speed>0.022360679774997897</speed>
  <fix>3d</fix>
</trkpt>
<trkpt lat="-27.274439" lon="151.290064">
  <ele>343.1</ele>
  <time>2026-09-01T20:03:18Z</time>
  <course>270.0</course>
  <speed>0.0</speed>
  <fix>3d</fix>
</trkpt>
<trkpt lat="-27.2744391" lon="151.2900641">
  <ele>343.06</ele>
  <time>2026-09-01T20:03:18Z</time>
  <course>10.74</course>
  <speed>0.022360679774997897</speed>
  <fix>3d</fix>
</trkpt>
<trkpt lat="-27.274439" lon="151.290064">
  <ele>343.1</ele>
  <time>2026-09-01T20:03:18Z</time>
  <course>270.0</course>
  <speed>0.0</speed>
  <fix>3d</fix>
</trkpt>
<trkpt lat="-27.2744391" lon="151.2900641">
  <ele>343.06</ele>
  <time>2026-09-01T20:03:18Z</time>
  <course>10.74</course>
  <speed>0.022360679774997897</speed>
  <fix>3d</fix>
</trkpt>
<trkpt lat="-27.274439" lon="151.290064">
  <ele>343.1</ele>
  <time>2026-09-01T20:03:18Z</time>
  <course>270.0</course>
  <speed>0.0</speed>
  <fix>3d</fix>
</trkpt>
<trkpt lat="-27.2744391" lon="151.2900641">
  <ele>343.06</ele>
  <time>2026-09-01T20:03:18Z</time>
  <course>10.74</course>
  <speed>0.022360679774997897</speed>
  <fix>3d</fix>
</trkpt>
<trkpt lat="-27.274439" lon="151.290064">
  <ele>343.1</ele>
  <time>2026-09-01T20:03:18Z</time>
  <course>270.0</course>
  <speed>0.0</speed>
  <fix>3d</fix>
</trkpt>
<trkpt lat="-27.2744391" lon="151.2900641">
  <ele>343.05</ele>
  <time>2026-09-01T20:03:18Z</time>
  <course>10.75</course>
  <speed>0.022360679774997897</speed>
  <fix>3d</fix>
</trkpt>
<trkpt lat="-27.274439" lon="151.290064">
  <ele>343.1</ele>
  <time>2026-09-01T20:03:18Z</time>
  <course>270.0</course>
  <speed>0.0</speed>
  <fix>3d</fix>
</trkpt>
<trkpt lat="-27.2744391" lon="151.2900641">
  <ele>343.05</ele>
  <time>2026-09-01T20:03:18Z</time>
  <course>10.75</course>
  <speed>0.022360679774997897</speed>
  <fix>3d</fix>
</trkpt>
<trkpt lat="-27.274439" lon="151.290064">
  <ele>343.1</ele>
  <time>2026-09-01T20:03:18Z</time>
  <course>270.0</course>
  <speed>0.0</speed>
  <fix>3d</fix>
</trkpt>
<trkpt lat="-27.2744391" lon="151.2900641">
  <ele>343.05</ele>
  <time>2026-09-01T20:03:18Z</time>
  <course>10.75</course>
  <speed>0.022360679774997897</speed>
  <fix>3d</fix>
</trkpt>
<trkpt lat="-27.274439" lon="151.290064">
  <ele>343.1</ele>
  <time>2026-09-01T20:03:18Z</time>
  <course>270.0</course>
  <speed>0.0</speed>
  <fix>3d</fix>
</trkpt>
<trkpt lat="-27.2744391" lon="151.2900641">
  <ele>343.04</ele>
  <time>2026-09-01T20:03:18Z</time>
  <course>10.75</course>
  <speed>0.022360679774997897</speed>
  <fix>3d</fix>
</trkpt>
<trkpt lat="-27.274439" lon="151.290064">
  <ele>343.1</ele>
  <time>2026-09-01T20:03:18Z</time>
  <course>270.0</course>
  <speed>0.0</speed>
  <fix>3d</fix>
</trkpt>
<trkpt lat="-27.2744391" lon="151.2900641">
  <ele>343.04</ele>
  <time>2026-09-01T20:03:18Z</time>
  <course>10.75</course>
  <speed>0.022360679774997897</speed>
  <fix>3d</fix>
</trkpt>
<trkpt lat="-27.274439" lon="151.290064">
  <ele>343.1</ele>
  <time>2026-09-01T20:03:18Z</time>
  <course>270.0</course>
  <speed>0.0</speed>
  <fix>3d</fix>
</trkpt>
<trkpt lat="-27.2744391" lon="151.2900641">
  <ele>343.04</ele>
  <time>2026-09-01T20:03:18Z</time>
  <course>10.75</course>
  <speed>0.022360679774997897</speed>
  <fix>3d</fix>
</trkpt>
<trkpt lat="-27.274439" lon="151.290064">
  <ele>343.1</ele>
  <time>2026-09-01T20:03:18Z</time>
  <course>270.0</course>
  <speed>0.0</speed>
  <fix>3d</fix>
</trkpt>
<trkpt lat="-27.2744391" lon="151.2900641">
  <ele>343.04</ele>
  <time>2026-09-01T20:03:18Z</time>
  <course>10.75</course>
  <speed>0.022360679774997897</speed>
  <fix>3d</fix>
</trkpt>
<trkpt lat="-27.274439" lon="151.290064">
  <ele>343.1</ele>
  <time>2026-09-01T20:03:18Z</time>
  <course>270.0</course>
  <speed>0.0</speed>
  <fix>3d</fix>
</trkpt>
<trkpt lat="-27.2744391" lon="151.2900641">
  <ele>343.04</ele>
  <time>2026-09-01T20:03:18Z</time>
  <course>10.75</course>
  <speed>0.022360679774997897</speed>
  <fix>3d</fix>
</trkpt>
<trkpt lat="-27.274439" lon="151.290064">
  <ele>343.1</ele>
  <time>2026-09-01T20:03:18Z</time>
  <course>270.0</course>
  <speed>0.0</speed>
  <fix>3d</fix>
</trkpt>
<trkpt lat="-27.2744391" lon="151.2900641">
  <ele>343.03</ele>
  <time>2026-09-01T20:03:18Z</time>
  <course>10.75</course>
  <speed>0.022360679774997897</speed>
  <fix>3d</fix>
</trkpt>
<trkpt lat="-27.274439" lon="151.290064">
  <ele>343.1</ele>
  <time>2026-09-01T20:03:18Z</time>
  <course>270.0</course>
  <speed>0.0</speed>
  <fix>3d</fix>
</trkpt>
<trkpt lat="-27.2744391" lon="151.2900641">
  <ele>343.03</ele>
  <time>2026-09-01T20:03:18Z</time>
  <course>10.75</course>
  <speed>0.022360679774997897</speed>
  <fix>3d</fix>
</trkpt>
<trkpt lat="-27.274439" lon="151.290064">
  <ele>343.1</ele>
  <time>2026-09-01T20:03:18Z</time>
  <course>270.0</course>
  <speed>0.0</speed>
  <fix>3d</fix>
</trkpt>
<trkpt lat="-27.2744391" lon="151.2900641">
  <ele>343.03</ele>
  <time>2026-09-01T20:03:18Z</time>
  <course>10.75</course>
  <speed>0.022360679774997897</speed>
  <fix>3d</fix>
</trkpt>
<trkpt lat="-27.274439" lon="151.290064">
  <ele>343.1</ele>
  <time>2026-09-01T20:03:18Z</time>
  <course>270.0</course>
  <speed>0.0</speed>
  <fix>3d</fix>
</trkpt>
<trkpt lat="-27.2744391" lon="151.2900641">
  <ele>343.03</ele>
  <time>2026-09-01T20:03:18Z</time>
  <course>10.75</course>
  <speed>0.022360679774997897</speed>
  <fix>3d</fix>
</trkpt>
<trkpt lat="-27.274439" lon="151.290064">
  <ele>343.1</ele>
  <time>2026-09-01T20:03:18Z</time>
  <course>270.0</course>
  <speed>0.0</speed>
  <fix>3d</fix>
</trkpt>
<trkpt lat="-27.2744391" lon="151.2900641">
  <ele>343.03</ele>
  <time>2026-09-01T20:03:18Z</time>
  <course>10.75</course>
  <speed>0.022360679774997897</speed>
  <fix>3d</fix>
</trkpt>
<trkpt lat="-27.274439" lon="151.290064">
  <ele>343.1</ele>
  <time>2026-09-01T20:03:18Z</time>
  <course>270.0</course>
  <speed>0.0</speed>
  <fix>3d</fix>
</trkpt>
<trkpt lat="-27.2744391" lon="151.2900641">
  <ele>343.02</ele>
  <time>2026-09-01T20:03:18Z</time>
  <course>10.75</course>
  <speed>0.022360679774997897</speed>
  <fix>3d</fix>
</trkpt>
<trkpt lat="-27.274439" lon="151.290064">
  <ele>343.1</ele>
  <time>2026-09-01T20:03:18Z</time>
  <course>270.0</course>
  <speed>0.0</speed>
  <fix>3d</fix>
</trkpt>
<trkpt lat="-27.2744391" lon="151.2900641">
  <ele>343.02</ele>
  <time>2026-09-01T20:03:18Z</time>
  <course>10.75</course>
  <speed>0.022360679774997897</speed>
  <fix>3d</fix>
</trkpt>
<trkpt lat="-27.274439" lon="151.290064">
  <ele>343.1</ele>
  <time>2026-09-01T20:03:18Z</time>
  <course>270.0</course>
  <speed>0.0</speed>
  <fix>3d</fix>
</trkpt>
<trkpt lat="-27.2744391" lon="151.2900641">
  <ele>343.02</ele>
  <time>2026-09-01T20:03:18Z</time>
  <course>10.75</course>
  <speed>0.022360679774997897</speed>
  <fix>3d</fix>
</trkpt>
<trkpt lat="-27.274439" lon="151.290064">
  <ele>343.1</ele>
  <time>2026-09-01T20:03:18Z</time>
  <course>270.0</course>
  <speed>0.0</speed>
  <fix>3d</fix>
</trkpt>
<trkpt lat="-27.2744391" lon="151.2900641">
  <ele>343.02</ele>
  <time>2026-09-01T20:03:18Z</time>
  <course>10.75</course>
  <speed>0.022360679774997897</speed>
  <fix>3d</fix>
</trkpt>
<trkpt lat="-27.274439" lon="151.290064">
  <ele>343.1</ele>
  <time>2026-09-01T20:03:18Z</time>
  <course>270.0</course>
  <speed>0.0</speed>
  <fix>3d</fix>
</trkpt>
<trkpt lat="-27.2744391" lon="151.2900641">
  <ele>343.02</ele>
  <time>2026-09-01T20:03:18Z</time>
  <course>10.75</course>
  <speed>0.022360679774997897</speed>
  <fix>3d</fix>
</trkpt>
<trkpt lat="-27.274439" lon="151.290064">
  <ele>343.1</ele>
  <time>2026-09-01T20:03:18Z</time>
  <course>270.0</course>
  <speed>0.0</speed>
  <fix>3d</fix>
</trkpt>
<trkpt lat="-27.2744391" lon="151.2900641">
  <ele>343.02</ele>
  <time>2026-09-01T20:03:18Z</time>
  <course>10.75</course>
  <speed>0.022360679774997897</speed>
  <fix>3d</fix>
</trkpt>
<trkpt lat="-27.274439" lon="151.290064">
  <ele>343.1</ele>
  <time>2026-09-01T20:03:18Z</time>
  <course>270.0</course>
  <speed>0.0</speed>
  <fix>3d</fix>
</trkpt>
<trkpt lat="-27.2744391" lon="151.2900641">
  <ele>343.02</ele>
  <time>2026-09-01T20:03:18Z</time>
  <course>10.75</course>
  <speed>0.022360679774997897</speed>
  <fix>3d</fix>
</trkpt>
<trkpt lat="-27.274439" lon="151.290064">
  <ele>343.1</ele>
  <time>2026-09-01T20:03:18Z</time>
  <course>270.0</course>
  <speed>0.0</speed>
  <fix>3d</fix>
</trkpt>
<trkpt lat="-27.2744391" lon="151.2900641">
  <ele>343.02</ele>
  <time>2026-09-01T20:03:18Z</time>
  <course>10.75</course>
  <speed>0.022360679774997897</speed>
  <fix>3d</fix>
</trkpt>
<trkpt lat="-27.274439" lon="151.290064">
  <ele>343.1</ele>
  <time>2026-09-01T20:03:18Z</time>
  <course>270.0</course>
  <speed>0.0</speed>
  <fix>3d</fix>
</trkpt>
<trkpt lat="-27.2744391" lon="151.2900641">
  <ele>343.02</ele>
  <time>2026-09-01T20:03:18Z</time>
  <course>10.75</course>
  <speed>0.022360679774997897</speed>
  <fix>3d</fix>
</trkpt>
<trkpt lat="-27.274439" lon="151.290064">
  <ele>343.1</ele>
  <time>2026-09-01T20:03:18Z</time>
  <course>270.0</course>
  <speed>0.0</speed>
  <fix>3d</fix>
</trkpt>
<trkpt lat="-27.2744391" lon="151.2900641">
  <ele>343.01</ele>
  <time>2026-09-01T20:03:18Z</time>
  <course>10.75</course>
  <speed>0.022360679774997897</speed>
  <fix>3d</fix>
</trkpt>
<trkpt lat="-27.274439" lon="151.290064">
  <ele>343.1</ele>
  <time>2026-09-01T20:03:18Z</time>
  <course>270.0</course>
  <speed>0.0</speed>
  <fix>3d</fix>
</trkpt>
<trkpt lat="-27.2744391" lon="151.2900641">
  <ele>343.01</ele>
  <time>2026-09-01T20:03:18Z</time>
  <course>10.76</course>
  <speed>0.022360679774997897</speed>
  <fix>3d</fix>
</trkpt>
<trkpt lat="-27.274439" lon="151.290064">
  <ele>343.1</ele>
  <time>2026-09-01T20:03:18Z</time>
  <course>270.0</course>
  <speed>0.0</speed>
  <fix>3d</fix>
</trkpt>
<trkpt lat="-27.2744391" lon="151.2900641">
  <ele>343.01</ele>
  <time>2026-09-01T20:03:18Z</time>
  <course>10.76</course>
  <speed>0.022360679774997897</speed>
  <fix>3d</fix>
</trkpt>
<trkpt lat="-27.274439" lon="151.290064">
  <ele>343.1</ele>
  <time>2026-09-01T20:03:18Z</time>
  <course>270.0</course>
  <speed>0.0</speed>
  <fix>3d</fix>
</trkpt>
<trkpt lat="-27.2744391" lon="151.2900641">
  <ele>343.01</ele>
  <time>2026-09-01T20:03:18Z</time>
  <course>10.76</course>
  <speed>0.022360679774997897</speed>
  <fix>3d</fix>
</trkpt>
<trkpt lat="-27.274439" lon="151.290064">
  <ele>343.1</ele>
  <time>2026-09-01T20:03:18Z</time>
  <course>270.0</course>
  <speed>0.0</speed>
  <fix>3d</fix>
</trkpt>
<trkpt lat="-27.2744391" lon="151.2900641">
  <ele>343.01</ele>
  <time>2026-09-01T20:03:18Z</time>
  <course>10.76</course>
  <speed>0.022360679774997897</speed>
  <fix>3d</fix>
</trkpt>
<trkpt lat="-27.274439" lon="151.290064">
  <ele>343.1</ele>
  <time>2026-09-01T20:03:18Z</time>
  <course>270.0</course>
  <speed>0.0</speed>
  <fix>3d</fix>
</trkpt>
<trkpt lat="-27.2744391" lon="151.2900641">
  <ele>343.01</ele>
  <time>2026-09-01T20:03:18Z</time>
  <course>10.76</course>
  <speed>0.022360679774997897</speed>
  <fix>3d</fix>
</trkpt>
<trkpt lat="-27.274439" lon="151.290064">
  <ele>343.1</ele>
  <time>2026-09-01T20:03:18Z</time>
  <course>270.0</course>
  <speed>0.0</speed>
  <fix>3d</fix>
</trkpt>
<trkpt lat="-27.2744391" lon="151.2900641">
  <ele>343.01</ele>
  <time>2026-09-01T20:03:18Z</time>
  <course>10.76</course>
  <speed>0.022360679774997897</speed>
  <fix>3d</fix>
</trkpt>
<trkpt lat="-27.274439" lon="151.290064">
  <ele>343.1</ele>
  <time>2026-09-01T20:03:18Z</time>
  <course>270.0</course>
  <speed>0.0</speed>
  <fix>3d</fix>
</trkpt>
<trkpt lat="-27.2744391" lon="151.2900641">
  <ele>343.01</ele>
  <time>2026-09-01T20:03:18Z</time>
  <course>10.76</course>
  <speed>0.022360679774997897</speed>
  <fix>3d</fix>
</trkpt>
<trkpt lat="-27.274439" lon="151.290064">
  <ele>343.1</ele>
  <time>2026-09-01T20:03:18Z</time>
  <course>270.0</course>
  <speed>0.0</speed>
  <fix>3d</fix>
</trkpt>
<trkpt lat="-27.2744391" lon="151.2900641">
  <ele>343.0</ele>
  <time>2026-09-01T20:03:18Z</time>
  <course>10.76</course>
  <speed>0.022360679774997897</speed>
  <fix>3d</fix>
</trkpt>
<trkpt lat="-27.274439" lon="151.290064">
  <ele>343.1</ele>
  <time>2026-09-01T20:03:18Z</time>
  <course>270.0</course>
  <speed>0.0</speed>
  <fix>3d</fix>
</trkpt>
<trkpt lat="-27.2744391" lon="151.2900641">
  <ele>343.0</ele>
  <time>2026-09-01T20:03:18Z</time>
  <course>10.76</course>
  <speed>0.022360679774997897</speed>
  <fix>3d</fix>
</trkpt>
<trkpt lat="-27.274439" lon="151.290064">
  <ele>343.1</ele>
  <time>2026-09-01T20:03:18Z</time>
  <course>270.0</course>
  <speed>0.0</speed>
  <fix>3d</fix>
</trkpt>
<trkpt lat="-27.2744391" lon="151.2900641">
  <ele>343.09</ele>
  <time>2026-09-01T20:03:18Z</time>
  <course>10.76</course>
  <speed>0.022360679774997897</speed>
  <fix>3d</fix>
</trkpt>
<trkpt lat="-27.274439" lon="151.290064">
  <ele>343.1</ele>
  <time>2026-09-01T20:03:18Z</time>
  <course>270.0</course>
  <speed>0.0</speed>
  <fix>3d</fix>
</trkpt>
<trkpt lat="-27.2744391" lon="151.2900641">
  <ele>343.09</ele>
  <time>2026-09-01T20:03:18Z</time>
  <course>10.76</course>
  <speed>0.022360679774997897</speed>
  <fix>3d</fix>
</trkpt>
<trkpt lat="-27.274439" lon="151.290064">
  <ele>343.1</ele>
  <time>2026-09-01T20:03:18Z</time>
  <course>270.0</course>
  <speed>0.0</speed>
  <fix>3d</fix>
</trkpt>
<trkpt lat="-27.2744391" lon="151.2900641">
  <ele>343.09</ele>
  <time>2026-09-01T20:03:18Z</time>
  <course>10.76</course>
  <speed>0.022360679774997897</speed>
  <fix>3d</fix>
</trkpt>
<trkpt lat="-27.274439" lon="151.290064">
  <ele>343.1</ele>
  <time>2026-09-01T20:03:18Z</time>
  <course>270.0</course>
  <speed>0.0</speed>
  <fix>3d</fix>
</trkpt>
<trkpt lat="-27.2744391" lon="151.2900641">
  <ele>343.09</ele>
  <time>2026-09-01T20:03:18Z</time>
  <course>10.76</course>
  <speed>0.022360679774997897</speed>
  <fix>3d</fix>
</trkpt>
<trkpt lat="-27.274439" lon="151.290064">
  <ele>343.1</ele>
  <time>2026-09-01T20:03:18Z</time>
  <course>270.0</course>
  <speed>0.0</speed>
  <fix>3d</fix>
</trkpt>
<trkpt lat="-27.2744391" lon="151.2900641">
  <ele>343.09</ele>
  <time>2026-09-01T20:03:18Z</time>
  <course>10.76</course>
  <speed>0.022360679774997897</speed>
  <fix>3d</fix>
</trkpt>
<trkpt lat="-27.274439" lon="151.290064">
  <ele>343.1</ele>
  <time>2026-09-01T20:03:18Z</time>
  <course>270.0</course>
  <speed>0.0</speed>
  <fix>3d</fix>
</trkpt>
<trkpt lat="-27.2744391" lon="151.2900641">
  <ele>343.1</ele>
  <time>2026-09-01T20:03:18Z</time>
  <course>10.76</course>
  <speed>0.022360679774997897</speed>
  <fix>3d</fix>
</trkpt>
<trkpt lat="-27.274439" lon="151.290064">
  <ele>343.1</ele>
  <time>2026-09-01T20:03:18Z</time>
  <course>270.0</course>
  <speed>0.0</speed>
  <fix>3d</fix>
</trkpt>
<trkpt lat="-27.2744391" lon="151.2900641">
  <ele>343.1</ele>
  <time>2026-09-01T20:03:18Z</time>
  <course>10.76</course>
  <speed>0.022360679774997897</speed>
  <fix>3d</fix>
</trkpt>
<trkpt lat="-27.274439" lon="151.290064">
  <ele>343.1</ele>
  <time>2026-09-01T20:03:18Z</time>
  <course>270.0</course>
  <speed>0.0</speed>
  <fix>3d</fix>
</trkpt>
<trkpt lat="-27.2744391" lon="151.2900641">
  <ele>343.1</ele>
  <time>2026-09-01T20:03:18Z</time>
  <course>10.76</course>
  <speed>0.022360679774997897</speed>
  <fix>3d</fix>
</trkpt>
<trkpt lat="-27.274439" lon="151.290064">
  <ele>343.1</ele>
  <time>2026-09-01T20:03:18Z</time>
  <course>270.0</course>
  <speed>0.0</speed>
  <fix>3d</fix>
</trkpt>
<trkpt lat="-27.2744391" lon="151.2900641">
  <ele>343.11</ele>
  <time>2026-09-01T20:03:18Z</time>
  <course>10.76</course>
  <speed>0.022360679774997897</speed>
  <fix>3d</fix>
</trkpt>
<trkpt lat="-27.274439" lon="151.290064">
  <ele>343.1</ele>
  <time>2026-09-01T20:03:18Z</time>
  <course>270.0</course>
  <speed>0.0</speed>
  <fix>3d</fix>
</trkpt>
<trkpt lat="-27.2744391" lon="151.2900641">
  <ele>343.11</ele>
  <time>2026-09-01T20:03:18Z</time>
  <course>10.76</course>
  <speed>0.022360679774997897</speed>
  <fix>3d</fix>
</trkpt>
<trkpt lat="-27.274439" lon="151.290064">
  <ele>343.1</ele>
  <time>2026-09-01T20:03:18Z</time>
  <course>270.0</course>
  <speed>0.0</speed>
  <fix>3d</fix>
</trkpt>
<trkpt lat="-27.2744391" lon="151.2900641">
  <ele>343.12</ele>
  <time>2026-09-01T20:03:18Z</time>
  <course>10.76</course>
  <speed>0.022360679774997897</speed>
  <fix>3d</fix>
</trkpt>
<trkpt lat="-27.274439" lon="151.290064">
  <ele>343.1</ele>
  <time>2026-09-01T20:03:18Z</time>
  <course>270.0</course>
  <speed>0.0</speed>
  <fix>3d</fix>
</trkpt>
<trkpt lat="-27.2744391" lon="151.2900641">
  <ele>343.12</ele>
  <time>2026-09-01T20:03:18Z</time>
  <course>10.76</course>
  <speed>0.022360679774997897</speed>
  <fix>3d</fix>
</trkpt>
<trkpt lat="-27.274439" lon="151.290064">
  <ele>343.1</ele>
  <time>2026-09-01T20:03:18Z</time>
  <course>270.0</course>
  <speed>0.0</speed>
  <fix>3d</fix>
</trkpt>
<trkpt lat="-27.2744391" lon="151.2900641">
  <ele>343.12</ele>
  <time>2026-09-01T20:03:18Z</time>
  <course>10.77</course>
  <speed>0.022360679774997897</speed>
  <fix>3d</fix>
</trkpt>
<trkpt lat="-27.274439" lon="151.290064">
  <ele>343.1</ele>
  <time>2026-09-01T20:03:18Z</time>
  <course>270.0</course>
  <speed>0.0</speed>
  <fix>3d</fix>
</trkpt>
<trkpt lat="-27.2744391" lon="151.2900641">
  <ele>343.13</ele>
  <time>2026-09-01T20:03:18Z</time>
  <course>10.77</course>
  <speed>0.022360679774997897</speed>
  <fix>3d</fix>
</trkpt>
<trkpt lat="-27.274439" lon="151.290064">
  <ele>343.1</ele>
  <time>2026-09-01T20:03:18Z</time>
  <course>270.0</course>
  <speed>0.0</speed>
  <fix>3d</fix>
</trkpt>
<trkpt lat="-27.2744391" lon="151.2900641">
  <ele>343.13</ele>
  <time>2026-09-01T20:03:18Z</time>
  <course>10.77</course>
  <speed>0.022360679774997897</speed>
  <fix>3d</fix>
</trkpt>
<trkpt lat="-27.274439" lon="151.290064">
  <ele>343.1</ele>
  <time>2026-09-01T20:03:18Z</time>
  <course>270.0</course>
  <speed>0.0</speed>
  <fix>3d</fix>
</trkpt>
<trkpt lat="-27.2744391" lon="151.2900641">
  <ele>343.13</ele>
  <time>2026-09-01T20:03:18Z</time>
  <course>10.77</course>
  <speed>0.022360679774997897</speed>
  <fix>3d</fix>
</trkpt>
<trkpt lat="-27.274439" lon="151.290064">
  <ele>343.1</ele>
  <time>2026-09-01T20:03:18Z</time>
  <course>270.0</course>
  <speed>0.0</speed>
  <fix>3d</fix>
</trkpt>
<trkpt lat="-27.2744391" lon="151.2900641">
  <ele>343.14</ele>
  <time>2026-09-01T20:03:18Z</time>
  <course>10.77</course>
  <speed>0.022360679774997897</speed>
  <fix>3d</fix>
</trkpt>
<trkpt lat="-27.274439" lon="151.290064">
  <ele>343.1</ele>
  <time>2026-09-01T20:03:18Z</time>
  <course>270.0</course>
  <speed>0.0</speed>
  <fix>3d</fix>
</trkpt>
<trkpt lat="-27.2744391" lon="151.2900641">
  <ele>343.14</ele>
  <time>2026-09-01T20:03:18Z</time>
  <course>10.77</course>
  <speed>0.022360679774997897</speed>
  <fix>3d</fix>
</trkpt>
<trkpt lat="-27.274439" lon="151.290064">
  <ele>343.1</ele>
  <time>2026-09-01T20:03:18Z</time>
  <course>270.0</course>
  <speed>0.0</speed>
  <fix>3d</fix>
</trkpt>
<trkpt lat="-27.2744391" lon="151.2900641">
  <ele>343.14</ele>
  <time>2026-09-01T20:03:18Z</time>
  <course>10.77</course>
  <speed>0.022360679774997897</speed>
  <fix>3d</fix>
</trkpt>
<trkpt lat="-27.274439" lon="151.290064">
  <ele>343.1</ele>
  <time>2026-09-01T20:03:18Z</time>
  <course>270.0</course>
  <speed>0.0</speed>
  <fix>3d</fix>
</trkpt>
<trkpt lat="-27.2744391" lon="151.2900641">
  <ele>343.15</ele>
  <time>2026-09-01T20:03:18Z</time>
  <course>10.77</course>
  <speed>0.022360679774997897</speed>
  <fix>3d</fix>
</trkpt>
<trkpt lat="-27.274439" lon="151.290064">
  <ele>343.1</ele>
  <time>2026-09-01T20:03:18Z</time>
  <course>270.0</course>
  <speed>0.0</speed>
  <fix>3d</fix>
</trkpt>
<trkpt lat="-27.2744391" lon="151.2900641">
  <ele>343.15</ele>
  <time>2026-09-01T20:03:18Z</time>
  <course>10.77</course>
  <speed>0.022360679774997897</speed>
  <fix>3d</fix>
</trkpt>
<trkpt lat="-27.274439" lon="151.290064">
  <ele>343.1</ele>
  <time>2026-09-01T20:03:18Z</time>
  <course>270.0</course>
  <speed>0.0</speed>
  <fix>3d</fix>
</trkpt>
<trkpt lat="-27.2744391" lon="151.2900641">
  <ele>343.16</ele>
  <time>2026-09-01T20:03:18Z</time>
  <course>10.77</course>
  <speed>0.022360679774997897</speed>
  <fix>3d</fix>
</trkpt>
<trkpt lat="-27.274439" lon="151.290064">
  <ele>343.1</ele>
  <time>2026-09-01T20:03:18Z</time>
  <course>270.0</course>
  <speed>0.0</speed>
  <fix>3d</fix>
</trkpt>
<trkpt lat="-27.2744391" lon="151.2900641">
  <ele>343.16</ele>
  <time>2026-09-01T20:03:18Z</time>
  <course>10.77</course>
  <speed>0.022360679774997897</speed>
  <fix>3d</fix>
</trkpt>
<trkpt lat="-27.274439" lon="151.290064">
  <ele>343.1</ele>
  <time>2026-09-01T20:03:18Z</time>
  <course>270.0</course>
  <speed>0.0</speed>
  <fix>3d</fix>
</trkpt>
<trkpt lat="-27.2744391" lon="151.2900641">
  <ele>343.17</ele>
  <time>2026-09-01T20:03:18Z</time>
  <course>10.77</course>
  <speed>0.022360679774997897</speed>
  <fix>3d</fix>
</trkpt>
<trkpt lat="-27.274439" lon="151.290064">
  <ele>343.1</ele>
  <time>2026-09-01T20:03:18Z</time>
  <course>270.0</course>
  <speed>0.0</speed>
  <fix>3d</fix>
</trkpt>
<trkpt lat="-27.2744391" lon="151.2900641">
  <ele>343.17</ele>
  <time>2026-09-01T20:03:18Z</time>
  <course>10.77</course>
  <speed>0.022360679774997897</speed>
  <fix>3d</fix>
</trkpt>
<trkpt lat="-27.274439" lon="151.290064">
  <ele>343.1</ele>
  <time>2026-09-01T20:03:18Z</time>
  <course>270.0</course>
  <speed>0.0</speed>
  <fix>3d</fix>
</trkpt>
<trkpt lat="-27.2744391" lon="151.2900641">
  <ele>343.18</ele>
  <time>2026-09-01T20:03:18Z</time>
  <course>10.77</course>
  <speed>0.022360679774997897</speed>
  <fix>3d</fix>
</trkpt>
<trkpt lat="-27.274439" lon="151.290064">
  <ele>343.1</ele>
  <time>2026-09-01T20:03:18Z</time>
  <course>270.0</course>
  <speed>0.0</speed>
  <fix>3d</fix>
</trkpt>
<trkpt lat="-27.2744391" lon="151.2900641">
  <ele>343.18</ele>
  <time>2026-09-01T20:03:18Z</time>
  <course>10.77</course>
  <speed>0.022360679774997897</speed>
  <fix>3d</fix>
</trkpt>
<trkpt lat="-27.274439" lon="151.290064">
  <ele>343.1</ele>
  <time>2026-09-01T20:03:18Z</time>
  <course>270.0</course>
  <speed>0.0</speed>
  <fix>3d</fix>
</trkpt>
<trkpt lat="-27.2744391" lon="151.2900641">
  <ele>343.18</ele>
  <time>2026-09-01T20:03:18Z</time>
  <course>10.77</course>
  <speed>0.022360679774997897</speed>
  <fix>3d</fix>
</trkpt>
<trkpt lat="-27.274439" lon="151.290064">
  <ele>343.1</ele>
  <time>2026-09-01T20:03:18Z</time>
  <course>270.0</course>
  <speed>0.0</speed>
  <fix>3d</fix>
</trkpt>
<trkpt lat="-27.2744391" lon="151.2900641">
  <ele>343.19</ele>
  <time>2026-09-01T20:03:18Z</time>
  <course>10.77</course>
  <speed>0.022360679774997897</speed>
  <fix>3d</fix>
</trkpt>
<trkpt lat="-27.274439" lon="151.290064">
  <ele>343.1</ele>
  <time>2026-09-01T20:03:18Z</time>
  <course>270.0</course>
  <speed>0.0</speed>
  <fix>3d</fix>
</trkpt>
<trkpt lat="-27.2744391" lon="151.2900641">
  <ele>343.19</ele>
  <time>2026-09-01T20:03:18Z</time>
  <course>10.77</course>
  <speed>0.022360679774997897</speed>
  <fix>3d</fix>
</trkpt>
<trkpt lat="-27.274439" lon="151.290064">
  <ele>343.1</ele>
  <time>2026-09-01T20:03:18Z</time>
  <course>270.0</course>
  <speed>0.0</speed>
  <fix>3d</fix>
</trkpt>
<trkpt lat="-27.2744391" lon="151.2900641">
  <ele>343.19</ele>
  <time>2026-09-01T20:03:18Z</time>
  <course>10.77</course>
  <speed>0.022360679774997897</speed>
  <fix>3d</fix>
</trkpt>
<trkpt lat="-27.274439" lon="151.290064">
  <ele>343.1</ele>
  <time>2026-09-01T20:03:18Z</time>
  <course>270.0</course>
  <speed>0.0</speed>
  <fix>3d</fix>
</trkpt>
<trkpt lat="-27.2744391" lon="151.2900641">
  <ele>343.19</ele>
  <time>2026-09-01T20:03:18Z</time>
  <course>10.77</course>
  <speed>0.022360679774997897</speed>
  <fix>3d</fix>
</trkpt>
<trkpt lat="-27.274439" lon="151.290064">
  <ele>343.1</ele>
  <time>2026-09-01T20:03:18Z</time>
  <course>270.0</course>
  <speed>0.0</speed>
  <fix>3d</fix>
</trkpt>
<trkpt lat="-27.2744391" lon="151.2900641">
  <ele>343.19</ele>
  <time>2026-09-01T20:03:18Z</time>
  <course>10.77</course>
  <speed>0.022360679774997897</speed>
  <fix>3d</fix>
</trkpt>
<trkpt lat="-27.274439" lon="151.290064">
  <ele>343.1</ele>
  <time>2026-09-01T20:03:18Z</time>
  <course>270.0</course>
  <speed>0.0</speed>
  <fix>3d</fix>
</trkpt>
<trkpt lat="-27.2744391" lon="151.2900641">
  <ele>343.19</ele>
  <time>2026-09-01T20:03:18Z</time>
  <course>10.77</course>
  <speed>0.022360679774997897</speed>
  <fix>3d</fix>
</trkpt>
<trkpt lat="-27.274439" lon="151.290064">
  <ele>343.1</ele>
  <time>2026-09-01T20:03:18Z</time>
  <course>270.0</course>
  <speed>0.0</speed>
  <fix>3d</fix>
</trkpt>
<trkpt lat="-27.2744391" lon="151.2900641">
  <ele>343.2</ele>
  <time>2026-09-01T20:03:18Z</time>
  <course>10.78</course>
  <speed>0.022360679774997897</speed>
  <fix>3d</fix>
</trkpt>
<trkpt lat="-27.274439" lon="151.290064">
  <ele>343.1</ele>
  <time>2026-09-01T20:03:18Z</time>
  <course>270.0</course>
  <speed>0.0</speed>
  <fix>3d</fix>
</trkpt>
<trkpt lat="-27.2744391" lon="151.2900641">
  <ele>343.2</ele>
  <time>2026-09-01T20:03:18Z</time>
  <course>10.78</course>
  <speed>0.022360679774997897</speed>
  <fix>3d</fix>
</trkpt>
<trkpt lat="-27.274439" lon="151.290064">
  <ele>343.1</ele>
  <time>2026-09-01T20:03:18Z</time>
  <course>270.0</course>
  <speed>0.0</speed>
  <fix>3d</fix>
</trkpt>
<trkpt lat="-27.2744391" lon="151.2900641">
  <ele>343.2</ele>
  <time>2026-09-01T20:03:18Z</time>
  <course>10.78</course>
  <speed>0.022360679774997897</speed>
  <fix>3d</fix>
</trkpt>
<trkpt lat="-27.274439" lon="151.290064">
  <ele>343.1</ele>
  <time>2026-09-01T20:03:18Z</time>
  <course>270.0</course>
  <speed>0.0</speed>
  <fix>3d</fix>
</trkpt>
<trkpt lat="-27.2744391" lon="151.2900641">
  <ele>343.2</ele>
  <time>2026-09-01T20:03:18Z</time>
  <course>10.78</course>
  <speed>0.022360679774997897</speed>
  <fix>3d</fix>
</trkpt>
<trkpt lat="-27.274439" lon="151.290064">
  <ele>343.1</ele>
  <time>2026-09-01T20:03:18Z</time>
  <course>270.0</course>
  <speed>0.0</speed>
  <fix>3d</fix>
</trkpt>
<trkpt lat="-27.2744391" lon="151.2900641">
  <ele>343.2</ele>
  <time>2026-09-01T20:03:18Z</time>
  <course>10.78</course>
  <speed>0.022360679774997897</speed>
  <fix>3d</fix>
</trkpt>
<trkpt lat="-27.274439" lon="151.290064">
  <ele>343.1</ele>
  <time>2026-09-01T20:03:18Z</time>
  <course>270.0</course>
  <speed>0.0</speed>
  <fix>3d</fix>
</trkpt>
<trkpt lat="-27.2744391" lon="151.2900641">
  <ele>343.2</ele>
  <time>2026-09-01T20:03:18Z</time>
  <course>10.78</course>
  <speed>0.022360679774997897</speed>
  <fix>3d</fix>
</trkpt>
<trkpt lat="-27.274439" lon="151.290064">
  <ele>343.1</ele>
  <time>2026-09-01T20:03:18Z</time>
  <course>270.0</course>
  <speed>0.0</speed>
  <fix>3d</fix>
</trkpt>
<trkpt lat="-27.2744391" lon="151.2900641">
  <ele>343.2</ele>
  <time>2026-09-01T20:03:18Z</time>
  <course>10.78</course>
  <speed>0.022360679774997897</speed>
  <fix>3d</fix>
</trkpt>
<trkpt lat="-27.274439" lon="151.290064">
  <ele>343.1</ele>
  <time>2026-09-01T20:03:18Z</time>
  <course>270.0</course>
  <speed>0.0</speed>
  <fix>3d</fix>
</trkpt>
<trkpt lat="-27.2744391" lon="151.2900641">
  <ele>343.2</ele>
  <time>2026-09-01T20:03:18Z</time>
  <course>10.78</course>
  <speed>0.022360679774997897</speed>
  <fix>3d</fix>
</trkpt>
<trkpt lat="-27.274439" lon="151.290064">
  <ele>343.1</ele>
  <time>2026-09-01T20:03:18Z</time>
  <course>270.0</course>
  <speed>0.0</speed>
  <fix>3d</fix>
</trkpt>
<trkpt lat="-27.2744391" lon="151.2900641">
  <ele>343.2</ele>
  <time>2026-09-01T20:03:18Z</time>
  <course>10.78</course>
  <speed>0.022360679774997897</speed>
  <fix>3d</fix>
</trkpt>
<trkpt lat="-27.274439" lon="151.290064">
  <ele>343.1</ele>
  <time>2026-09-01T20:03:18Z</time>
  <course>270.0</course>
  <speed>0.0</speed>
  <fix>3d</fix>
</trkpt>
<trkpt lat="-27.2744391" lon="151.2900641">
  <ele>343.2</ele>
  <time>2026-09-01T20:03:18Z</time>
  <course>10.78</course>
  <speed>0.022360679774997897</speed>
  <fix>3d</fix>
</trkpt>
<trkpt lat="-27.274439" lon="151.290064">
  <ele>343.1</ele>
  <time>2026-09-01T20:03:18Z</time>
  <course>270.0</course>
  <speed>0.0</speed>
  <fix>3d</fix>
</trkpt>
<trkpt lat="-27.2744391" lon="151.2900641">
  <ele>343.2</ele>
  <time>2026-09-01T20:03:18Z</time>
  <course>10.78</course>
  <speed>0.022360679774997897</speed>
  <fix>3d</fix>
</trkpt>
<trkpt lat="-27.274439" lon="151.290064">
  <ele>343.1</ele>
  <time>2026-09-01T20:03:18Z</time>
  <course>270.0</course>
  <speed>0.0</speed>
  <fix>3d</fix>
</trkpt>
<trkpt lat="-27.2744391" lon="151.2900641">
  <ele>343.2</ele>
  <time>2026-09-01T20:03:18Z</time>
  <course>10.78</course>
  <speed>0.022360679774997897</speed>
  <fix>3d</fix>
</trkpt>
<trkpt lat="-27.274439" lon="151.290064">
  <ele>343.1</ele>
  <time>2026-09-01T20:03:18Z</time>
  <course>270.0</course>
  <speed>0.0</speed>
  <fix>3d</fix>
</trkpt>
<trkpt lat="-27.2744391" lon="151.2900641">
  <ele>343.2</ele>
  <time>2026-09-01T20:03:18Z</time>
  <course>10.78</course>
  <speed>0.022360679774997897</speed>
  <fix>3d</fix>
</trkpt>
<trkpt lat="-27.274439" lon="151.290064">
  <ele>343.1</ele>
  <time>2026-09-01T20:03:18Z</time>
  <course>270.0</course>
  <speed>0.0</speed>
  <fix>3d</fix>
</trkpt>
<trkpt lat="-27.2744391" lon="151.2900641">
  <ele>343.2</ele>
  <time>2026-09-01T20:03:18Z</time>
  <course>10.78</course>
  <speed>0.022360679774997897</speed>
  <fix>3d</fix>
</trkpt>
<trkpt lat="-27.274439" lon="151.290064">
  <ele>343.1</ele>
  <time>2026-09-01T20:03:18Z</time>
  <course>270.0</course>
  <speed>0.0</speed>
  <fix>3d</fix>
</trkpt>
<trkpt lat="-27.2744391" lon="151.2900641">
  <ele>343.2</ele>
  <time>2026-09-01T20:03:18Z</time>
  <course>10.78</course>
  <speed>0.022360679774997897</speed>
  <fix>3d</fix>
</trkpt>
<trkpt lat="-27.274439" lon="151.290064">
  <ele>343.1</ele>
  <time>2026-09-01T20:03:18Z</time>
  <course>270.0</course>
  <speed>0.0</speed>
  <fix>3d</fix>
</trkpt>
<trkpt lat="-27.2744391" lon="151.2900641">
  <ele>343.2</ele>
  <time>2026-09-01T20:03:18Z</time>
  <course>10.78</course>
  <speed>0.022360679774997897</speed>
  <fix>3d</fix>
</trkpt>
<trkpt lat="-27.274439" lon="151.290064">
  <ele>343.1</ele>
  <time>2026-09-01T20:03:18Z</time>
  <course>270.0</course>
  <speed>0.0</speed>
  <fix>3d</fix>
</trkpt>
<trkpt lat="-27.2744391" lon="151.2900641">
  <ele>343.2</ele>
  <time>2026-09-01T20:03:18Z</time>
  <course>10.78</course>
  <speed>0.022360679774997897</speed>
  <fix>3d</fix>
</trkpt>
<trkpt lat="-27.274439" lon="151.290064">
  <ele>343.1</ele>
  <time>2026-09-01T20:03:18Z</time>
  <course>270.0</course>
  <speed>0.0</speed>
  <fix>3d</fix>
</trkpt>
<trkpt lat="-27.2744391" lon="151.2900641">
  <ele>343.2</ele>
  <time>2026-09-01T20:03:18Z</time>
  <course>10.78</course>
  <speed>0.022360679774997897</speed>
  <fix>3d</fix>
</trkpt>
<trkpt lat="-27.274439" lon="151.290064">
  <ele>343.1</ele>
  <time>2026-09-01T20:03:18Z</time>
  <course>270.0</course>
  <speed>0.0</speed>
  <fix>3d</fix>
</trkpt>
<trkpt lat="-27.2744391" lon="151.2900641">
  <ele>343.2</ele>
  <time>2026-09-01T20:03:18Z</time>
  <course>10.79</course>
  <speed>0.022360679774997897</speed>
  <fix>3d</fix>
</trkpt>
<trkpt lat="-27.274439" lon="151.290064">
  <ele>343.1</ele>
  <time>2026-09-01T20:03:18Z</time>
  <course>270.0</course>
  <speed>0.0</speed>
  <fix>3d</fix>
</trkpt>
<trkpt lat="-27.2744391" lon="151.2900641">
  <ele>343.2</ele>
  <time>2026-09-01T20:03:18Z</time>
  <course>10.79</course>
  <speed>0.022360679774997897</speed>
  <fix>3d</fix>
</trkpt>
<trkpt lat="-27.274439" lon="151.290064">
  <ele>343.1</ele>
  <time>2026-09-01T20:03:18Z</time>
  <course>270.0</course>
  <speed>0.0</speed>
  <fix>3d</fix>
</trkpt>
<trkpt lat="-27.2744391" lon="151.2900641">
  <ele>343.2</ele>
  <time>2026-09-01T20:03:18Z</time>
  <course>10.79</course>
  <speed>0.022360679774997897</speed>
  <fix>3d</fix>
</trkpt>
<trkpt lat="-27.274439" lon="151.290064">
  <ele>343.1</ele>
  <time>2026-09-01T20:03:18Z</time>
  <course>270.0</course>
  <speed>0.0</speed>
  <fix>3d</fix>
</trkpt>
<trkpt lat="-27.2744391" lon="151.2900641">
  <ele>343.2</ele>
  <time>2026-09-01T20:03:18Z</time>
  <course>10.79</course>
  <speed>0.022360679774997897</speed>
  <fix>3d</fix>
</trkpt>
<trkpt lat="-27.274439" lon="151.290064">
  <ele>343.1</ele>
  <time>2026-09-01T20:03:18Z</time>
  <course>270.0</course>
  <speed>0.0</speed>
  <fix>3d</fix>
</trkpt>
<trkpt lat="-27.2744391" lon="151.2900641">
  <ele>343.2</ele>
  <time>2026-09-01T20:03:18Z</time>
  <course>10.79</course>
  <speed>0.022360679774997897</speed>
  <fix>3d</fix>
</trkpt>
<trkpt lat="-27.274439" lon="151.290064">
  <ele>343.1</ele>
  <time>2026-09-01T20:03:18Z</time>
  <course>270.0</course>
  <speed>0.0</speed>
  <fix>3d</fix>
</trkpt>
<trkpt lat="-27.2744391" lon="151.2900641">
  <ele>343.19</ele>
  <time>2026-09-01T20:03:18Z</time>
  <course>10.79</course>
  <speed>0.022360679774997897</speed>
  <fix>3d</fix>
</trkpt>
<trkpt lat="-27.274439" lon="151.290064">
  <ele>343.1</ele>
  <time>2026-09-01T20:03:18Z</time>
  <course>270.0</course>
  <speed>0.0</speed>
  <fix>3d</fix>
</trkpt>
<trkpt lat="-27.2744391" lon="151.2900641">
  <ele>343.19</ele>
  <time>2026-09-01T20:03:18Z</time>
  <course>10.79</course>
  <speed>0.022360679774997897</speed>
  <fix>3d</fix>
</trkpt>
<trkpt lat="-27.274439" lon="151.290064">
  <ele>343.1</ele>
  <time>2026-09-01T20:03:18Z</time>
  <course>270.0</course>
  <speed>0.0</speed>
  <fix>3d</fix>
</trkpt>
<trkpt lat="-27.2744391" lon="151.2900641">
  <ele>343.19</ele>
  <time>2026-09-01T20:03:18Z</time>
  <course>10.79</course>
  <speed>0.022360679774997897</speed>
  <fix>3d</fix>
</trkpt>
<trkpt lat="-27.274439" lon="151.290064">
  <ele>343.1</ele>
  <time>2026-09-01T20:03:18Z</time>
  <course>270.0</course>
  <speed>0.0</speed>
  <fix>3d</fix>
</trkpt>
<trkpt lat="-27.2744391" lon="151.2900641">
  <ele>343.09</ele>
  <time>2026-09-01T20:03:18Z</time>
  <course>10.79</course>
  <speed>0.022360679774997897</speed>
  <fix>3d</fix>
</trkpt>
<trkpt lat="-27.274439" lon="151.290064">
  <ele>343.1</ele>
  <time>2026-09-01T20:03:18Z</time>
  <course>270.0</course>
  <speed>0.0</speed>
  <fix>3d</fix>
</trkpt>
<trkpt lat="-27.2744391" lon="151.2900641">
  <ele>343.1</ele>
  <time>2026-09-01T20:03:18Z</time>
  <course>10.79</course>
  <speed>0.022360679774997897</speed>
  <fix>3d</fix>
</trkpt>
<trkpt lat="-27.274439" lon="151.290064">
  <ele>343.1</ele>
  <time>2026-09-01T20:03:18Z</time>
  <course>270.0</course>
  <speed>0.0</speed>
  <fix>3d</fix>
</trkpt>
<trkpt lat="-27.2744391" lon="151.2900641">
  <ele>343.1</ele>
  <time>2026-09-01T20:03:18Z</time>
  <course>10.79</course>
  <speed>0.022360679774997897</speed>
  <fix>3d</fix>
</trkpt>
<trkpt lat="-27.274439" lon="151.290064">
  <ele>343.1</ele>
  <time>2026-09-01T20:03:18Z</time>
  <course>270.0</course>
  <speed>0.0</speed>
  <fix>3d</fix>
</trkpt>
<trkpt lat="-27.2744391" lon="151.2900641">
  <ele>343.1</ele>
  <time>2026-09-01T20:03:18Z</time>
  <course>10.79</course>
  <speed>0.022360679774997897</speed>
  <fix>3d</fix>
</trkpt>
<trkpt lat="-27.274439" lon="151.290064">
  <ele>343.1</ele>
  <time>2026-09-01T20:03:18Z</time>
  <course>270.0</course>
  <speed>0.0</speed>
  <fix>3d</fix>
</trkpt>
<trkpt lat="-27.2744391" lon="151.2900641">
  <ele>343.1</ele>
  <time>2026-09-01T20:03:18Z</time>
  <course>10.79</course>
  <speed>0.022360679774997897</speed>
  <fix>3d</fix>
</trkpt>
<trkpt lat="-27.274439" lon="151.290064">
  <ele>343.1</ele>
  <time>2026-09-01T20:03:18Z</time>
  <course>270.0</course>
  <speed>0.0</speed>
  <fix>3d</fix>
</trkpt>
<trkpt lat="-27.2744391" lon="151.2900641">
  <ele>343.1</ele>
  <time>2026-09-01T20:03:18Z</time>
  <course>10.79</course>
  <speed>0.022360679774997897</speed>
  <fix>3d</fix>
</trkpt>
<trkpt lat="-27.274439" lon="151.290064">
  <ele>343.1</ele>
  <time>2026-09-01T20:03:18Z</time>
  <course>270.0</course>
  <speed>0.0</speed>
  <fix>3d</fix>
</trkpt>
<trkpt lat="-27.2744391" lon="151.2900641">
  <ele>343.11</ele>
  <time>2026-09-01T20:03:18Z</time>
  <course>10.79</course>
  <speed>0.022360679774997897</speed>
  <fix>3d</fix>
</trkpt>
<trkpt lat="-27.274439" lon="151.290064">
  <ele>343.1</ele>
  <time>2026-09-01T20:03:18Z</time>
  <course>270.0</course>
  <speed>0.0</speed>
  <fix>3d</fix>
</trkpt>
<trkpt lat="-27.2744391" lon="151.2900641">
  <ele>343.11</ele>
  <time>2026-09-01T20:03:18Z</time>
  <course>10.8</course>
  <speed>0.022360679774997897</speed>
  <fix>3d</fix>
</trkpt>
<trkpt lat="-27.274439" lon="151.290064">
  <ele>343.1</ele>
  <time>2026-09-01T20:03:18Z</time>
  <course>270.0</course>
  <speed>0.0</speed>
  <fix>3d</fix>
</trkpt>
<trkpt lat="-27.2744391" lon="151.2900641">
  <ele>343.11</ele>
  <time>2026-09-01T20:03:18Z</time>
  <course>10.8</course>
  <speed>0.022360679774997897</speed>
  <fix>3d</fix>
</trkpt>
<trkpt lat="-27.274439" lon="151.290064">
  <ele>343.1</ele>
  <time>2026-09-01T20:03:18Z</time>
  <course>270.0</course>
  <speed>0.0</speed>
  <fix>3d</fix>
</trkpt>
<trkpt lat="-27.2744391" lon="151.2900641">
  <ele>343.11</ele>
  <time>2026-09-01T20:03:18Z</time>
  <course>10.8</course>
  <speed>0.022360679774997897</speed>
  <fix>3d</fix>
</trkpt>
<trkpt lat="-27.274439" lon="151.290064">
  <ele>343.1</ele>
  <time>2026-09-01T20:03:18Z</time>
  <course>270.0</course>
  <speed>0.0</speed>
  <fix>3d</fix>
</trkpt>
<trkpt lat="-27.2744391" lon="151.2900641">
  <ele>343.12</ele>
  <time>2026-09-01T20:03:18Z</time>
  <course>10.8</course>
  <speed>0.022360679774997897</speed>
  <fix>3d</fix>
</trkpt>
<trkpt lat="-27.274439" lon="151.290064">
  <ele>343.1</ele>
  <time>2026-09-01T20:03:18Z</time>
  <course>270.0</course>
  <speed>0.0</speed>
  <fix>3d</fix>
</trkpt>
<trkpt lat="-27.2744391" lon="151.2900641">
  <ele>343.12</ele>
  <time>2026-09-01T20:03:18Z</time>
  <course>10.8</course>
  <speed>0.022360679774997897</speed>
  <fix>3d</fix>
</trkpt>
<trkpt lat="-27.274439" lon="151.290064">
  <ele>343.1</ele>
  <time>2026-09-01T20:03:18Z</time>
  <course>270.0</course>
  <speed>0.0</speed>
  <fix>3d</fix>
</trkpt>
<trkpt lat="-27.2744391" lon="151.2900641">
  <ele>343.12</ele>
  <time>2026-09-01T20:03:18Z</time>
  <course>10.8</course>
  <speed>0.022360679774997897</speed>
  <fix>3d</fix>
</trkpt>
<trkpt lat="-27.274439" lon="151.290064">
  <ele>343.1</ele>
  <time>2026-09-01T20:03:18Z</time>
  <course>270.0</course>
  <speed>0.0</speed>
  <fix>3d</fix>
</trkpt>
<trkpt lat="-27.2744391" lon="151.2900641">
  <ele>343.12</ele>
  <time>2026-09-01T20:03:18Z</time>
  <course>10.8</course>
  <speed>0.022360679774997897</speed>
  <fix>3d</fix>
</trkpt>
<trkpt lat="-27.274439" lon="151.290064">
  <ele>343.1</ele>
  <time>2026-09-01T20:03:18Z</time>
  <course>270.0</course>
  <speed>0.0</speed>
  <fix>3d</fix>
</trkpt>
<trkpt lat="-27.2744391" lon="151.2900641">
  <ele>343.12</ele>
  <time>2026-09-01T20:03:18Z</time>
  <course>10.8</course>
  <speed>0.022360679774997897</speed>
  <fix>3d</fix>
</trkpt>
<trkpt lat="-27.274439" lon="151.290064">
  <ele>343.1</ele>
  <time>2026-09-01T20:03:18Z</time>
  <course>270.0</course>
  <speed>0.0</speed>
  <fix>3d</fix>
</trkpt>
<trkpt lat="-27.2744391" lon="151.2900641">
  <ele>343.12</ele>
  <time>2026-09-01T20:03:18Z</time>
  <course>10.8</course>
  <speed>0.022360679774997897</speed>
  <fix>3d</fix>
</trkpt>
<trkpt lat="-27.274439" lon="151.290064">
  <ele>343.1</ele>
  <time>2026-09-01T20:03:18Z</time>
  <course>270.0</course>
  <speed>0.0</speed>
  <fix>3d</fix>
</trkpt>
<trkpt lat="-27.2744391" lon="151.2900641">
  <ele>343.11</ele>
  <time>2026-09-01T20:03:18Z</time>
  <course>10.8</course>
  <speed>0.022360679774997897</speed>
  <fix>3d</fix>
</trkpt>
<trkpt lat="-27.274439" lon="151.290064">
  <ele>343.1</ele>
  <time>2026-09-01T20:03:18Z</time>
  <course>270.0</course>
  <speed>0.0</speed>
  <fix>3d</fix>
</trkpt>
<trkpt lat="-27.2744391" lon="151.2900641">
  <ele>343.11</ele>
  <time>2026-09-01T20:03:18Z</time>
  <course>10.8</course>
  <speed>0.022360679774997897</speed>
  <fix>3d</fix>
</trkpt>
<trkpt lat="-27.274439" lon="151.290064">
  <ele>343.1</ele>
  <time>2026-09-01T20:03:18Z</time>
  <course>270.0</course>
  <speed>0.0</speed>
  <fix>3d</fix>
</trkpt>
<trkpt lat="-27.2744391" lon="151.2900641">
  <ele>343.11</ele>
  <time>2026-09-01T20:03:18Z</time>
  <course>10.8</course>
  <speed>0.022360679774997897</speed>
  <fix>3d</fix>
</trkpt>
<trkpt lat="-27.274439" lon="151.290064">
  <ele>343.1</ele>
  <time>2026-09-01T20:03:18Z</time>
  <course>270.0</course>
  <speed>0.0</speed>
  <fix>3d</fix>
</trkpt>
<trkpt lat="-27.2744391" lon="151.2900641">
  <ele>343.11</ele>
  <time>2026-09-01T20:03:18Z</time>
  <course>10.8</course>
  <speed>0.022360679774997897</speed>
  <fix>3d</fix>
</trkpt>
<trkpt lat="-27.274439" lon="151.290064">
  <ele>343.1</ele>
  <time>2026-09-01T20:03:18Z</time>
  <course>270.0</course>
  <speed>0.0</speed>
  <fix>3d</fix>
</trkpt>
<trkpt lat="-27.2744391" lon="151.2900641">
  <ele>343.11</ele>
  <time>2026-09-01T20:03:18Z</time>
  <course>10.8</course>
  <speed>0.022360679774997897</speed>
  <fix>3d</fix>
</trkpt>
<trkpt lat="-27.274439" lon="151.290064">
  <ele>343.1</ele>
  <time>2026-09-01T20:03:18Z</time>
  <course>270.0</course>
  <speed>0.0</speed>
  <fix>3d</fix>
</trkpt>
<trkpt lat="-27.2744391" lon="151.2900641">
  <ele>343.11</ele>
  <time>2026-09-01T20:03:18Z</time>
  <course>10.8</course>
  <speed>0.022360679774997897</speed>
  <fix>3d</fix>
</trkpt>
<trkpt lat="-27.274439" lon="151.290064">
  <ele>343.1</ele>
  <time>2026-09-01T20:03:18Z</time>
  <course>270.0</course>
  <speed>0.0</speed>
  <fix>3d</fix>
</trkpt>
<trkpt lat="-27.2744391" lon="151.2900641">
  <ele>343.11</ele>
  <time>2026-09-01T20:03:18Z</time>
  <course>10.8</course>
  <speed>0.022360679774997897</speed>
  <fix>3d</fix>
</trkpt>
<trkpt lat="-27.274439" lon="151.290064">
  <ele>343.1</ele>
  <time>2026-09-01T20:03:18Z</time>
  <course>270.0</course>
  <speed>0.0</speed>
  <fix>3d</fix>
</trkpt>
<trkpt lat="-27.2744391" lon="151.2900641">
  <ele>343.11</ele>
  <time>2026-09-01T20:03:18Z</time>
  <course>10.8</course>
  <speed>0.022360679774997897</speed>
  <fix>3d</fix>
</trkpt>
<trkpt lat="-27.274439" lon="151.290064">
  <ele>343.1</ele>
  <time>2026-09-01T20:03:18Z</time>
  <course>270.0</course>
  <speed>0.0</speed>
  <fix>3d</fix>
</trkpt>
<trkpt lat="-27.2744391" lon="151.2900641">
  <ele>343.1</ele>
  <time>2026-09-01T20:03:18Z</time>
  <course>10.81</course>
  <speed>0.022360679774997897</speed>
  <fix>3d</fix>
</trkpt>
<trkpt lat="-27.274439" lon="151.290064">
  <ele>343.1</ele>
  <time>2026-09-01T20:03:18Z</time>
  <course>270.0</course>
  <speed>0.0</speed>
  <fix>3d</fix>
</trkpt>
<trkpt lat="-27.2744391" lon="151.2900641">
  <ele>343.1</ele>
  <time>2026-09-01T20:03:18Z</time>
  <course>10.81</course>
  <speed>0.022360679774997897</speed>
  <fix>3d</fix>
</trkpt>
<trkpt lat="-27.274439" lon="151.290064">
  <ele>343.1</ele>
  <time>2026-09-01T20:03:18Z</time>
  <course>270.0</course>
  <speed>0.0</speed>
  <fix>3d</fix>
</trkpt>
<trkpt lat="-27.2744391" lon="151.2900641">
  <ele>343.1</ele>
  <time>2026-09-01T20:03:18Z</time>
  <course>10.81</course>
  <speed>0.022360679774997897</speed>
  <fix>3d</fix>
</trkpt>
<trkpt lat="-27.274439" lon="151.290064">
  <ele>343.1</ele>
  <time>2026-09-01T20:03:18Z</time>
  <course>270.0</course>
  <speed>0.0</speed>
  <fix>3d</fix>
</trkpt>
<trkpt lat="-27.2744391" lon="151.2900641">
  <ele>343.1</ele>
  <time>2026-09-01T20:03:18Z</time>
  <course>10.81</course>
  <speed>0.022360679774997897</speed>
  <fix>3d</fix>
</trkpt>
<trkpt lat="-27.274439" lon="151.290064">
  <ele>343.1</ele>
  <time>2026-09-01T20:03:18Z</time>
  <course>270.0</course>
  <speed>0.0</speed>
  <fix>3d</fix>
</trkpt>
<trkpt lat="-27.2744391" lon="151.2900641">
  <ele>343.1</ele>
  <time>2026-09-01T20:03:18Z</time>
  <course>10.81</course>
  <speed>0.022360679774997897</speed>
  <fix>3d</fix>
</trkpt>
<trkpt lat="-27.274439" lon="151.290064">
  <ele>343.1</ele>
  <time>2026-09-01T20:03:18Z</time>
  <course>270.0</course>
  <speed>0.0</speed>
  <fix>3d</fix>
</trkpt>
<trkpt lat="-27.2744392" lon="151.2900641">
  <ele>343.1</ele>
  <time>2026-09-01T20:03:18Z</time>
  <course>10.81</course>
  <speed>0.022360679774997897</speed>
  <fix>3d</fix>
</trkpt>
<trkpt lat="-27.274439" lon="151.290064">
  <ele>343.1</ele>
  <time>2026-09-01T20:03:18Z</time>
  <course>270.0</course>
  <speed>0.0</speed>
  <fix>3d</fix>
</trkpt>
<trkpt lat="-27.2744391" lon="151.2900641">
  <ele>343.1</ele>
  <time>2026-09-01T20:03:18Z</time>
  <course>10.81</course>
  <speed>0.022360679774997897</speed>
  <fix>3d</fix>
</trkpt>
<trkpt lat="-27.274439" lon="151.290064">
  <ele>343.1</ele>
  <time>2026-09-01T20:03:18Z</time>
  <course>270.0</course>
  <speed>0.0</speed>
  <fix>3d</fix>
</trkpt>
<trkpt lat="-27.2744392" lon="151.2900641">
  <ele>343.1</ele>
  <time>2026-09-01T20:03:18Z</time>
  <course>10.81</course>
  <speed>0.022360679774997897</speed>
  <fix>3d</fix>
</trkpt>
<trkpt lat="-27.274439" lon="151.290064">
  <ele>343.1</ele>
  <time>2026-09-01T20:03:18Z</time>
  <course>270.0</course>
  <speed>0.0</speed>
  <fix>3d</fix>
</trkpt>
<trkpt lat="-27.2744391" lon="151.2900641">
  <ele>343.09</ele>
  <time>2026-09-01T20:03:18Z</time>
  <course>10.81</course>
  <speed>0.022360679774997897</speed>
  <fix>3d</fix>
</trkpt>
<trkpt lat="-27.274439" lon="151.290064">
  <ele>343.1</ele>
  <time>2026-09-01T20:03:18Z</time>
  <course>270.0</course>
  <speed>0.0</speed>
  <fix>3d</fix>
</trkpt>
<trkpt lat="-27.2744392" lon="151.2900641">
  <ele>343.09</ele>
  <time>2026-09-01T20:03:18Z</time>
  <course>10.81</course>
  <speed>0.022360679774997897</speed>
  <fix>3d</fix>
</trkpt>
<trkpt lat="-27.274439" lon="151.290064">
  <ele>343.1</ele>
  <time>2026-09-01T20:03:18Z</time>
  <course>270.0</course>
  <speed>0.0</speed>
  <fix>3d</fix>
</trkpt>
<trkpt lat="-27.2744391" lon="151.2900641">
  <ele>343.09</ele>
  <time>2026-09-01T20:03:18Z</time>
  <course>10.81</course>
  <speed>0.022360679774997897</speed>
  <fix>3d</fix>
</trkpt>
<trkpt lat="-27.274439" lon="151.290064">
  <ele>343.1</ele>
  <time>2026-09-01T20:03:18Z</time>
  <course>270.0</course>
  <speed>0.0</speed>
  <fix>3d</fix>
</trkpt>
<trkpt lat="-27.2744392" lon="151.2900641">
  <ele>343.09</ele>
  <time>2026-09-01T20:03:18Z</time>
  <course>10.81</course>
  <speed>0.022360679774997897</speed>
  <fix>3d</fix>
</trkpt>
<trkpt lat="-27.274439" lon="151.290064">
  <ele>343.1</ele>
  <time>2026-09-01T20:03:18Z</time>
  <course>270.0</course>
  <speed>0.0</speed>
  <fix>3d</fix>
</trkpt>
<trkpt lat="-27.2744391" lon="151.2900641">
  <ele>343.09</ele>
  <time>2026-09-01T20:03:18Z</time>
  <course>10.81</course>
  <speed>0.022360679774997897</speed>
  <fix>3d</fix>
</trkpt>
<trkpt lat="-27.274439" lon="151.290064">
  <ele>343.1</ele>
  <time>2026-09-01T20:03:18Z</time>
  <course>270.0</course>
  <speed>0.0</speed>
  <fix>3d</fix>
</trkpt>
<trkpt lat="-27.2744392" lon="151.2900641">
  <ele>343.09</ele>
  <time>2026-09-01T20:03:18Z</time>
  <course>10.81</course>
  <speed>0.022360679774997897</speed>
  <fix>3d</fix>
</trkpt>
<trkpt lat="-27.274439" lon="151.290064">
  <ele>343.1</ele>
  <time>2026-09-01T20:03:18Z</time>
  <course>270.0</course>
  <speed>0.0</speed>
  <fix>3d</fix>
</trkpt>
<trkpt lat="-27.2744391" lon="151.2900641">
  <ele>343.09</ele>
  <time>2026-09-01T20:03:18Z</time>
  <course>10.81</course>
  <speed>0.022360679774997897</speed>
  <fix>3d</fix>
</trkpt>
<trkpt lat="-27.274439" lon="151.290064">
  <ele>343.1</ele>
  <time>2026-09-01T20:03:18Z</time>
  <course>270.0</course>
  <speed>0.0</speed>
  <fix>3d</fix>
</trkpt>
<trkpt lat="-27.2744392" lon="151.2900641">
  <ele>343.09</ele>
  <time>2026-09-01T20:03:18Z</time>
  <course>10.81</course>
  <speed>0.022360679774997897</speed>
  <fix>3d</fix>
</trkpt>
<trkpt lat="-27.274439" lon="151.290064">
  <ele>343.1</ele>
  <time>2026-09-01T20:03:18Z</time>
  <course>270.0</course>
  <speed>0.0</speed>
  <fix>3d</fix>
</trkpt>
<trkpt lat="-27.2744391" lon="151.2900641">
  <ele>343.09</ele>
  <time>2026-09-01T20:03:18Z</time>
  <course>10.81</course>
  <speed>0.022360679774997897</speed>
  <fix>3d</fix>
</trkpt>
<trkpt lat="-27.274439" lon="151.290064">
  <ele>343.1</ele>
  <time>2026-09-01T20:03:18Z</time>
  <course>270.0</course>
  <speed>0.0</speed>
  <fix>3d</fix>
</trkpt>
<trkpt lat="-27.2744392" lon="151.2900641">
  <ele>343.09</ele>
  <time>2026-09-01T20:03:18Z</time>
  <course>10.81</course>
  <speed>0.022360679774997897</speed>
  <fix>3d</fix>
</trkpt>
<trkpt lat="-27.274439" lon="151.290064">
  <ele>343.1</ele>
  <time>2026-09-01T20:03:18Z</time>
  <course>270.0</course>
  <speed>0.0</speed>
  <fix>3d</fix>
</trkpt>
<trkpt lat="-27.2744391" lon="151.2900641">
  <ele>343.08</ele>
  <time>2026-09-01T20:03:18Z</time>
  <course>10.82</course>
  <speed>0.022360679774997897</speed>
  <fix>3d</fix>
</trkpt>
<trkpt lat="-27.274439" lon="151.290064">
  <ele>343.1</ele>
  <time>2026-09-01T20:03:18Z</time>
  <course>270.0</course>
  <speed>0.0</speed>
  <fix>3d</fix>
</trkpt>
<trkpt lat="-27.2744392" lon="151.2900641">
  <ele>343.08</ele>
  <time>2026-09-01T20:03:18Z</time>
  <course>10.82</course>
  <speed>0.022360679774997897</speed>
  <fix>3d</fix>
</trkpt>
<trkpt lat="-27.274439" lon="151.290064">
  <ele>343.1</ele>
  <time>2026-09-01T20:03:18Z</time>
  <course>270.0</course>
  <speed>0.0</speed>
  <fix>3d</fix>
</trkpt>
<trkpt lat="-27.2744391" lon="151.2900641">
  <ele>343.08</ele>
  <time>2026-09-01T20:03:18Z</time>
  <course>10.82</course>
  <speed>0.022360679774997897</speed>
  <fix>3d</fix>
</trkpt>
<trkpt lat="-27.274439" lon="151.290064">
  <ele>343.1</ele>
  <time>2026-09-01T20:03:18Z</time>
  <course>270.0</course>
  <speed>0.0</speed>
  <fix>3d</fix>
</trkpt>
<trkpt lat="-27.2744392" lon="151.2900641">
  <ele>343.08</ele>
  <time>2026-09-01T20:03:18Z</time>
  <course>10.82</course>
  <speed>0.022360679774997897</speed>
  <fix>3d</fix>
</trkpt>
<trkpt lat="-27.274439" lon="151.290064">
  <ele>343.1</ele>
  <time>2026-09-01T20:03:18Z</time>
  <course>270.0</course>
  <speed>0.0</speed>
  <fix>3d</fix>
</trkpt>
<trkpt lat="-27.2744391" lon="151.2900641">
  <ele>343.07</ele>
  <time>2026-09-01T20:03:18Z</time>
  <course>10.82</course>
  <speed>0.022360679774997897</speed>
  <fix>3d</fix>
</trkpt>
<trkpt lat="-27.274439" lon="151.290064">
  <ele>343.1</ele>
  <time>2026-09-01T20:03:18Z</time>
  <course>270.0</course>
  <speed>0.0</speed>
  <fix>3d</fix>
</trkpt>
<trkpt lat="-27.2744392" lon="151.2900641">
  <ele>343.07</ele>
  <time>2026-09-01T20:03:18Z</time>
  <course>10.82</course>
  <speed>0.022360679774997897</speed>
  <fix>3d</fix>
</trkpt>
<trkpt lat="-27.274439" lon="151.290064">
  <ele>343.1</ele>
  <time>2026-09-01T20:03:18Z</time>
  <course>270.0</course>
  <speed>0.0</speed>
  <fix>3d</fix>
</trkpt>
<trkpt lat="-27.2744391" lon="151.2900641">
  <ele>343.07</ele>
  <time>2026-09-01T20:03:18Z</time>
  <course>10.82</course>
  <speed>0.022360679774997897</speed>
  <fix>3d</fix>
</trkpt>
<trkpt lat="-27.274439" lon="151.290064">
  <ele>343.1</ele>
  <time>2026-09-01T20:03:18Z</time>
  <course>270.0</course>
  <speed>0.0</speed>
  <fix>3d</fix>
</trkpt>
<trkpt lat="-27.2744392" lon="151.2900641">
  <ele>343.07</ele>
  <time>2026-09-01T20:03:18Z</time>
  <course>10.82</course>
  <speed>0.022360679774997897</speed>
  <fix>3d</fix>
</trkpt>
<trkpt lat="-27.274439" lon="151.290064">
  <ele>343.1</ele>
  <time>2026-09-01T20:03:18Z</time>
  <course>270.0</course>
  <speed>0.0</speed>
  <fix>3d</fix>
</trkpt>
<trkpt lat="-27.2744391" lon="151.2900641">
  <ele>343.07</ele>
  <time>2026-09-01T20:03:18Z</time>
  <course>10.82</course>
  <speed>0.022360679774997897</speed>
  <fix>3d</fix>
</trkpt>
<trkpt lat="-27.274439" lon="151.290064">
  <ele>343.1</ele>
  <time>2026-09-01T20:03:18Z</time>
  <course>270.0</course>
  <speed>0.0</speed>
  <fix>3d</fix>
</trkpt>
<trkpt lat="-27.2744392" lon="151.2900641">
  <ele>343.07</ele>
  <time>2026-09-01T20:03:18Z</time>
  <course>10.82</course>
  <speed>0.022360679774997897</speed>
  <fix>3d</fix>
</trkpt>
<trkpt lat="-27.274439" lon="151.290064">
  <ele>343.1</ele>
  <time>2026-09-01T20:03:18Z</time>
  <course>270.0</course>
  <speed>0.0</speed>
  <fix>3d</fix>
</trkpt>
<trkpt lat="-27.2744391" lon="151.2900641">
  <ele>343.07</ele>
  <time>2026-09-01T20:03:18Z</time>
  <course>10.82</course>
  <speed>0.022360679774997897</speed>
  <fix>3d</fix>
</trkpt>
<trkpt lat="-27.274439" lon="151.290064">
  <ele>343.1</ele>
  <time>2026-09-01T20:03:18Z</time>
  <course>270.0</course>
  <speed>0.0</speed>
  <fix>3d</fix>
</trkpt>
<trkpt lat="-27.2744392" lon="151.2900641">
  <ele>343.07</ele>
  <time>2026-09-01T20:03:18Z</time>
  <course>10.82</course>
  <speed>0.022360679774997897</speed>
  <fix>3d</fix>
</trkpt>
<trkpt lat="-27.274439" lon="151.290064">
  <ele>343.1</ele>
  <time>2026-09-01T20:03:18Z</time>
  <course>270.0</course>
  <speed>0.0</speed>
  <fix>3d</fix>
</trkpt>
<trkpt lat="-27.2744391" lon="151.2900641">
  <ele>343.07</ele>
  <time>2026-09-01T20:03:18Z</time>
  <course>10.82</course>
  <speed>0.022360679774997897</speed>
  <fix>3d</fix>
</trkpt>
<trkpt lat="-27.274439" lon="151.290064">
  <ele>343.1</ele>
  <time>2026-09-01T20:03:18Z</time>
  <course>270.0</course>
  <speed>0.0</speed>
  <fix>3d</fix>
</trkpt>
<trkpt lat="-27.2744392" lon="151.2900641">
  <ele>343.07</ele>
  <time>2026-09-01T20:03:18Z</time>
  <course>10.82</course>
  <speed>0.022360679774997897</speed>
  <fix>3d</fix>
</trkpt>
<trkpt lat="-27.274439" lon="151.290064">
  <ele>343.1</ele>
  <time>2026-09-01T20:03:18Z</time>
  <course>270.0</course>
  <speed>0.0</speed>
  <fix>3d</fix>
</trkpt>
<trkpt lat="-27.2744391" lon="151.2900641">
  <ele>343.07</ele>
  <time>2026-09-01T20:03:18Z</time>
  <course>10.83</course>
  <speed>0.022360679774997897</speed>
  <fix>3d</fix>
</trkpt>
<trkpt lat="-27.274439" lon="151.290064">
  <ele>343.1</ele>
  <time>2026-09-01T20:03:18Z</time>
  <course>270.0</course>
  <speed>0.0</speed>
  <fix>3d</fix>
</trkpt>
<trkpt lat="-27.2744392" lon="151.2900641">
  <ele>343.08</ele>
  <time>2026-09-01T20:03:18Z</time>
  <course>10.83</course>
  <speed>0.022360679774997897</speed>
  <fix>3d</fix>
</trkpt>
<trkpt lat="-27.274439" lon="151.290064">
  <ele>343.1</ele>
  <time>2026-09-01T20:03:18Z</time>
  <course>270.0</course>
  <speed>0.0</speed>
  <fix>3d</fix>
</trkpt>
<trkpt lat="-27.2744391" lon="151.2900641">
  <ele>343.08</ele>
  <time>2026-09-01T20:03:18Z</time>
  <course>10.83</course>
  <speed>0.022360679774997897</speed>
  <fix>3d</fix>
</trkpt>
<trkpt lat="-27.274439" lon="151.290064">
  <ele>343.1</ele>
  <time>2026-09-01T20:03:18Z</time>
  <course>270.0</course>
  <speed>0.0</speed>
  <fix>3d</fix>
</trkpt>
<trkpt lat="-27.2744392" lon="151.2900641">
  <ele>343.08</ele>
  <time>2026-09-01T20:03:18Z</time>
  <course>10.83</course>
  <speed>0.022360679774997897</speed>
  <fix>3d</fix>
</trkpt>
<trkpt lat="-27.274439" lon="151.290064">
  <ele>343.1</ele>
  <time>2026-09-01T20:03:18Z</time>
  <course>270.0</course>
  <speed>0.0</speed>
  <fix>3d</fix>
</trkpt>
<trkpt lat="-27.2744391" lon="151.2900641">
  <ele>343.09</ele>
  <time>2026-09-01T20:03:18Z</time>
  <course>10.83</course>
  <speed>0.022360679774997897</speed>
  <fix>3d</fix>
</trkpt>
<trkpt lat="-27.274439" lon="151.290064">
  <ele>343.1</ele>
  <time>2026-09-01T20:03:18Z</time>
  <course>270.0</course>
  <speed>0.0</speed>
  <fix>3d</fix>
</trkpt>
<trkpt lat="-27.2744392" lon="151.2900641">
  <ele>343.09</ele>
  <time>2026-09-01T20:03:18Z</time>
  <course>10.83</course>
  <speed>0.022360679774997897</speed>
  <fix>3d</fix>
</trkpt>
<trkpt lat="-27.274439" lon="151.290064">
  <ele>343.1</ele>
  <time>2026-09-01T20:03:18Z</time>
  <course>270.0</course>
  <speed>0.0</speed>
  <fix>3d</fix>
</trkpt>
<trkpt lat="-27.2744391" lon="151.2900641">
  <ele>343.09</ele>
  <time>2026-09-01T20:03:18Z</time>
  <course>10.83</course>
  <speed>0.022360679774997897</speed>
  <fix>3d</fix>
</trkpt>
<trkpt lat="-27.274439" lon="151.290064">
  <ele>343.1</ele>
  <time>2026-09-01T20:03:18Z</time>
  <course>270.0</course>
  <speed>0.0</speed>
  <fix>3d</fix>
</trkpt>
<trkpt lat="-27.2744392" lon="151.2900641">
  <ele>343.09</ele>
  <time>2026-09-01T20:03:18Z</time>
  <course>10.83</course>
  <speed>0.022360679774997897</speed>
  <fix>3d</fix>
</trkpt>
<trkpt lat="-27.274439" lon="151.290064">
  <ele>343.1</ele>
  <time>2026-09-01T20:03:18Z</time>
  <course>270.0</course>
  <speed>0.0</speed>
  <fix>3d</fix>
</trkpt>
<trkpt lat="-27.2744391" lon="151.2900641">
  <ele>343.1</ele>
  <time>2026-09-01T20:03:18Z</time>
  <course>10.83</course>
  <speed>0.022360679774997897</speed>
  <fix>3d</fix>
</trkpt>
<trkpt lat="-27.274439" lon="151.290064">
  <ele>343.1</ele>
  <time>2026-09-01T20:03:18Z</time>
  <course>270.0</course>
  <speed>0.0</speed>
  <fix>3d</fix>
</trkpt>
<trkpt lat="-27.2744392" lon="151.2900641">
  <ele>343.1</ele>
  <time>2026-09-01T20:03:18Z</time>
  <course>10.83</course>
  <speed>0.022360679774997897</speed>
  <fix>3d</fix>
</trkpt>
<trkpt lat="-27.274439" lon="151.290064">
  <ele>343.1</ele>
  <time>2026-09-01T20:03:18Z</time>
  <course>270.0</course>
  <speed>0.0</speed>
  <fix>3d</fix>
</trkpt>
<trkpt lat="-27.2744391" lon="151.2900641">
  <ele>343.1</ele>
  <time>2026-09-01T20:03:18Z</time>
  <course>10.83</course>
  <speed>0.022360679774997897</speed>
  <fix>3d</fix>
</trkpt>
<trkpt lat="-27.274439" lon="151.290064">
  <ele>343.1</ele>
  <time>2026-09-01T20:03:18Z</time>
  <course>270.0</course>
  <speed>0.0</speed>
  <fix>3d</fix>
</trkpt>
<trkpt lat="-27.2744392" lon="151.2900641">
  <ele>343.1</ele>
  <time>2026-09-01T20:03:18Z</time>
  <course>10.83</course>
  <speed>0.022360679774997897</speed>
  <fix>3d</fix>
</trkpt>
<trkpt lat="-27.274439" lon="151.290064">
  <ele>343.1</ele>
  <time>2026-09-01T20:03:18Z</time>
  <course>270.0</course>
  <speed>0.0</speed>
  <fix>3d</fix>
</trkpt>
<trkpt lat="-27.2744391" lon="151.2900641">
  <ele>343.1</ele>
  <time>2026-09-01T20:03:19Z</time>
  <course>10.83</course>
  <speed>0.022360679774997897</speed>
  <fix>3d</fix>
</trkpt>
<trkpt lat="-27.274439" lon="151.290064">
  <ele>343.1</ele>
  <time>2026-09-01T20:03:19Z</time>
  <course>270.0</course>
  <speed>0.0</speed>
  <fix>3d</fix>
</trkpt>
<trkpt lat="-27.2744392" lon="151.2900641">
  <ele>343.1</ele>
  <time>2026-09-01T20:03:19Z</time>
  <course>10.83</course>
  <speed>0.022360679774997897</speed>
  <fix>3d</fix>
</trkpt>
<trkpt lat="-27.274439" lon="151.290064">
  <ele>343.1</ele>
  <time>2026-09-01T20:03:19Z</time>
  <course>270.0</course>
  <speed>0.0</speed>
  <fix>3d</fix>
</trkpt>
<trkpt lat="-27.2744392" lon="151.2900641">
  <ele>343.1</ele>
  <time>2026-09-01T20:03:19Z</time>
  <course>10.83</course>
  <speed>0.022360679774997897</speed>
  <fix>3d</fix>
</trkpt>
<trkpt lat="-27.274439" lon="151.290064">
  <ele>343.1</ele>
  <time>2026-09-01T20:03:19Z</time>
  <course>270.0</course>
  <speed>0.0</speed>
  <fix>3d</fix>
</trkpt>
<trkpt lat="-27.2744392" lon="151.2900641">
  <ele>343.1</ele>
  <time>2026-09-01T20:03:19Z</time>
  <course>10.83</course>
  <speed>0.022360679774997897</speed>
  <fix>3d</fix>
</trkpt>
<trkpt lat="-27.274439" lon="151.290064">
  <ele>343.1</ele>
  <time>2026-09-01T20:03:19Z</time>
  <course>270.0</course>
  <speed>0.0</speed>
  <fix>3d</fix>
</trkpt>
<trkpt lat="-27.2744392" lon="151.2900641">
  <ele>343.1</ele>
  <time>2026-09-01T20:03:19Z</time>
  <course>10.84</course>
  <speed>0.022360679774997897</speed>
  <fix>3d</fix>
</trkpt>
<trkpt lat="-27.274439" lon="151.290064">
  <ele>343.1</ele>
  <time>2026-09-01T20:03:19Z</time>
  <course>270.0</course>
  <speed>0.0</speed>
  <fix>3d</fix>
</trkpt>
<trkpt lat="-27.2744392" lon="151.2900641">
  <ele>343.1</ele>
  <time>2026-09-01T20:03:19Z</time>
  <course>10.84</course>
  <speed>0.022360679774997897</speed>
  <fix>3d</fix>
</trkpt>
<trkpt lat="-27.274439" lon="151.290064">
  <ele>343.1</ele>
  <time>2026-09-01T20:03:19Z</time>
  <course>270.0</course>
  <speed>0.0</speed>
  <fix>3d</fix>
</trkpt>
<trkpt lat="-27.2744392" lon="151.2900641">
  <ele>343.1</ele>
  <time>2026-09-01T20:03:19Z</time>
  <course>10.84</course>
  <speed>0.022360679774997897</speed>
  <fix>3d</fix>
</trkpt>
<trkpt lat="-27.274439" lon="151.290064">
  <ele>343.1</ele>
  <time>2026-09-01T20:03:19Z</time>
  <course>270.0</course>
  <speed>0.0</speed>
  <fix>3d</fix>
</trkpt>
<trkpt lat="-27.2744392" lon="151.2900641">
  <ele>343.1</ele>
  <time>2026-09-01T20:03:19Z</time>
  <course>10.84</course>
  <speed>0.022360679774997897</speed>
  <fix>3d</fix>
</trkpt>
<trkpt lat="-27.274439" lon="151.290064">
  <ele>343.1</ele>
  <time>2026-09-01T20:03:19Z</time>
  <course>270.0</course>
  <speed>0.0</speed>
  <fix>3d</fix>
</trkpt>
<trkpt lat="-27.2744392" lon="151.2900641">
  <ele>343.1</ele>
  <time>2026-09-01T20:03:19Z</time>
  <course>10.84</course>
  <speed>0.022360679774997897</speed>
  <fix>3d</fix>
</trkpt>
<trkpt lat="-27.274439" lon="151.290064">
  <ele>343.1</ele>
  <time>2026-09-01T20:03:19Z</time>
  <course>270.0</course>
  <speed>0.0</speed>
  <fix>3d</fix>
</trkpt>
<trkpt lat="-27.2744392" lon="151.2900641">
  <ele>343.1</ele>
  <time>2026-09-01T20:03:19Z</time>
  <course>10.84</course>
  <speed>0.022360679774997897</speed>
  <fix>3d</fix>
</trkpt>
<trkpt lat="-27.274439" lon="151.290064">
  <ele>343.1</ele>
  <time>2026-09-01T20:03:19Z</time>
  <course>270.0</course>
  <speed>0.0</speed>
  <fix>3d</fix>
</trkpt>
<trkpt lat="-27.2744392" lon="151.2900641">
  <ele>343.1</ele>
  <time>2026-09-01T20:03:19Z</time>
  <course>10.84</course>
  <speed>0.022360679774997897</speed>
  <fix>3d</fix>
</trkpt>
<trkpt lat="-27.274439" lon="151.290064">
  <ele>343.1</ele>
  <time>2026-09-01T20:03:19Z</time>
  <course>270.0</course>
  <speed>0.0</speed>
  <fix>3d</fix>
</trkpt>
<trkpt lat="-27.2744392" lon="151.2900641">
  <ele>343.11</ele>
  <time>2026-09-01T20:03:19Z</time>
  <course>10.84</course>
  <speed>0.022360679774997897</speed>
  <fix>3d</fix>
</trkpt>
<trkpt lat="-27.274439" lon="151.290064">
  <ele>343.1</ele>
  <time>2026-09-01T20:03:19Z</time>
  <course>270.0</course>
  <speed>0.0</speed>
  <fix>3d</fix>
</trkpt>
<trkpt lat="-27.2744392" lon="151.2900641">
  <ele>343.11</ele>
  <time>2026-09-01T20:03:19Z</time>
  <course>10.84</course>
  <speed>0.022360679774997897</speed>
  <fix>3d</fix>
</trkpt>
<trkpt lat="-27.274439" lon="151.290064">
  <ele>343.1</ele>
  <time>2026-09-01T20:03:19Z</time>
  <course>270.0</course>
  <speed>0.0</speed>
  <fix>3d</fix>
</trkpt>
<trkpt lat="-27.2744392" lon="151.2900641">
  <ele>343.11</ele>
  <time>2026-09-01T20:03:19Z</time>
  <course>10.84</course>
  <speed>0.022360679774997897</speed>
  <fix>3d</fix>
</trkpt>
<trkpt lat="-27.274439" lon="151.290064">
  <ele>343.1</ele>
  <time>2026-09-01T20:03:19Z</time>
  <course>270.0</course>
  <speed>0.0</speed>
  <fix>3d</fix>
</trkpt>
<trkpt lat="-27.2744392" lon="151.2900641">
  <ele>343.11</ele>
  <time>2026-09-01T20:03:19Z</time>
  <course>10.84</course>
  <speed>0.022360679774997897</speed>
  <fix>3d</fix>
</trkpt>
<trkpt lat="-27.274439" lon="151.290064">
  <ele>343.1</ele>
  <time>2026-09-01T20:03:19Z</time>
  <course>270.0</course>
  <speed>0.0</speed>
  <fix>3d</fix>
</trkpt>
<trkpt lat="-27.2744392" lon="151.2900641">
  <ele>343.11</ele>
  <time>2026-09-01T20:03:19Z</time>
  <course>10.84</course>
  <speed>0.022360679774997897</speed>
  <fix>3d</fix>
</trkpt>
<trkpt lat="-27.274439" lon="151.290064">
  <ele>343.1</ele>
  <time>2026-09-01T20:03:19Z</time>
  <course>270.0</course>
  <speed>0.0</speed>
  <fix>3d</fix>
</trkpt>
<trkpt lat="-27.2744392" lon="151.2900641">
  <ele>343.11</ele>
  <time>2026-09-01T20:03:19Z</time>
  <course>10.84</course>
  <speed>0.022360679774997897</speed>
  <fix>3d</fix>
</trkpt>
<trkpt lat="-27.274439" lon="151.290064">
  <ele>343.1</ele>
  <time>2026-09-01T20:03:19Z</time>
  <course>270.0</course>
  <speed>0.0</speed>
  <fix>3d</fix>
</trkpt>
<trkpt lat="-27.2744392" lon="151.2900641">
  <ele>343.12</ele>
  <time>2026-09-01T20:03:19Z</time>
  <course>10.84</course>
  <speed>0.022360679774997897</speed>
  <fix>3d</fix>
</trkpt>
<trkpt lat="-27.274439" lon="151.290064">
  <ele>343.1</ele>
  <time>2026-09-01T20:03:19Z</time>
  <course>270.0</course>
  <speed>0.0</speed>
  <fix>3d</fix>
</trkpt>
<trkpt lat="-27.2744392" lon="151.2900641">
  <ele>343.12</ele>
  <time>2026-09-01T20:03:19Z</time>
  <course>10.84</course>
  <speed>0.022360679774997897</speed>
  <fix>3d</fix>
</trkpt>
<trkpt lat="-27.274439" lon="151.290064">
  <ele>343.1</ele>
  <time>2026-09-01T20:03:19Z</time>
  <course>270.0</course>
  <speed>0.0</speed>
  <fix>3d</fix>
</trkpt>
<trkpt lat="-27.2744392" lon="151.2900641">
  <ele>343.12</ele>
  <time>2026-09-01T20:03:19Z</time>
  <course>10.85</course>
  <speed>0.022360679774997897</speed>
  <fix>3d</fix>
</trkpt>
<trkpt lat="-27.274439" lon="151.290064">
  <ele>343.1</ele>
  <time>2026-09-01T20:03:19Z</time>
  <course>270.0</course>
  <speed>0.0</speed>
  <fix>3d</fix>
</trkpt>
<trkpt lat="-27.2744392" lon="151.2900641">
  <ele>343.12</ele>
  <time>2026-09-01T20:03:19Z</time>
  <course>10.85</course>
  <speed>0.022360679774997897</speed>
  <fix>3d</fix>
</trkpt>
<trkpt lat="-27.274439" lon="151.290064">
  <ele>343.1</ele>
  <time>2026-09-01T20:03:19Z</time>
  <course>270.0</course>
  <speed>0.0</speed>
  <fix>3d</fix>
</trkpt>
<trkpt lat="-27.2744392" lon="151.2900641">
  <ele>343.12</ele>
  <time>2026-09-01T20:03:19Z</time>
  <course>10.85</course>
  <speed>0.022360679774997897</speed>
  <fix>3d</fix>
</trkpt>
<trkpt lat="-27.274439" lon="151.290064">
  <ele>343.1</ele>
  <time>2026-09-01T20:03:19Z</time>
  <course>270.0</course>
  <speed>0.0</speed>
  <fix>3d</fix>
</trkpt>
<trkpt lat="-27.2744392" lon="151.2900641">
  <ele>343.12</ele>
  <time>2026-09-01T20:03:19Z</time>
  <course>10.85</course>
  <speed>0.022360679774997897</speed>
  <fix>3d</fix>
</trkpt>
<trkpt lat="-27.274439" lon="151.290064">
  <ele>343.1</ele>
  <time>2026-09-01T20:03:19Z</time>
  <course>270.0</course>
  <speed>0.0</speed>
  <fix>3d</fix>
</trkpt>
<trkpt lat="-27.2744392" lon="151.2900641">
  <ele>343.12</ele>
  <time>2026-09-01T20:03:19Z</time>
  <course>10.85</course>
  <speed>0.022360679774997897</speed>
  <fix>3d</fix>
</trkpt>
<trkpt lat="-27.274439" lon="151.290064">
  <ele>343.1</ele>
  <time>2026-09-01T20:03:19Z</time>
  <course>270.0</course>
  <speed>0.0</speed>
  <fix>3d</fix>
</trkpt>
<trkpt lat="-27.2744392" lon="151.2900641">
  <ele>343.12</ele>
  <time>2026-09-01T20:03:19Z</time>
  <course>10.85</course>
  <speed>0.022360679774997897</speed>
  <fix>3d</fix>
</trkpt>
<trkpt lat="-27.274439" lon="151.290064">
  <ele>343.1</ele>
  <time>2026-09-01T20:03:19Z</time>
  <course>270.0</course>
  <speed>0.0</speed>
  <fix>3d</fix>
</trkpt>
<trkpt lat="-27.2744392" lon="151.2900641">
  <ele>343.13</ele>
  <time>2026-09-01T20:03:19Z</time>
  <course>10.85</course>
  <speed>0.022360679774997897</speed>
  <fix>3d</fix>
</trkpt>
<trkpt lat="-27.274439" lon="151.290064">
  <ele>343.1</ele>
  <time>2026-09-01T20:03:19Z</time>
  <course>270.0</course>
  <speed>0.0</speed>
  <fix>3d</fix>
</trkpt>
<trkpt lat="-27.2744392" lon="151.2900641">
  <ele>343.13</ele>
  <time>2026-09-01T20:03:19Z</time>
  <course>10.85</course>
  <speed>0.022360679774997897</speed>
  <fix>3d</fix>
</trkpt>
<trkpt lat="-27.274439" lon="151.290064">
  <ele>343.1</ele>
  <time>2026-09-01T20:03:19Z</time>
  <course>270.0</course>
  <speed>0.0</speed>
  <fix>3d</fix>
</trkpt>
<trkpt lat="-27.2744392" lon="151.2900641">
  <ele>343.13</ele>
  <time>2026-09-01T20:03:19Z</time>
  <course>10.85</course>
  <speed>0.022360679774997897</speed>
  <fix>3d</fix>
</trkpt>
<trkpt lat="-27.274439" lon="151.290064">
  <ele>343.1</ele>
  <time>2026-09-01T20:03:19Z</time>
  <course>270.0</course>
  <speed>0.0</speed>
  <fix>3d</fix>
</trkpt>
<trkpt lat="-27.2744391" lon="151.2900641">
  <ele>343.13</ele>
  <time>2026-09-01T20:03:19Z</time>
  <course>10.85</course>
  <speed>0.022360679774997897</speed>
  <fix>3d</fix>
</trkpt>
<trkpt lat="-27.274439" lon="151.290064">
  <ele>343.1</ele>
  <time>2026-09-01T20:03:19Z</time>
  <course>270.0</course>
  <speed>0.0</speed>
  <fix>3d</fix>
</trkpt>
<trkpt lat="-27.2744392" lon="151.2900641">
  <ele>343.13</ele>
  <time>2026-09-01T20:03:19Z</time>
  <course>10.85</course>
  <speed>0.022360679774997897</speed>
  <fix>3d</fix>
</trkpt>
<trkpt lat="-27.274439" lon="151.290064">
  <ele>343.1</ele>
  <time>2026-09-01T20:03:19Z</time>
  <course>270.0</course>
  <speed>0.0</speed>
  <fix>3d</fix>
</trkpt>
<trkpt lat="-27.2744391" lon="151.2900641">
  <ele>343.13</ele>
  <time>2026-09-01T20:03:19Z</time>
  <course>10.85</course>
  <speed>0.022360679774997897</speed>
  <fix>3d</fix>
</trkpt>
<trkpt lat="-27.274439" lon="151.290064">
  <ele>343.1</ele>
  <time>2026-09-01T20:03:19Z</time>
  <course>270.0</course>
  <speed>0.0</speed>
  <fix>3d</fix>
</trkpt>
<trkpt lat="-27.2744392" lon="151.2900641">
  <ele>343.14</ele>
  <time>2026-09-01T20:03:19Z</time>
  <course>10.85</course>
  <speed>0.022360679774997897</speed>
  <fix>3d</fix>
</trkpt>
<trkpt lat="-27.274439" lon="151.290064">
  <ele>343.1</ele>
  <time>2026-09-01T20:03:19Z</time>
  <course>270.0</course>
  <speed>0.0</speed>
  <fix>3d</fix>
</trkpt>
<trkpt lat="-27.2744391" lon="151.2900641">
  <ele>343.14</ele>
  <time>2026-09-01T20:03:19Z</time>
  <course>10.86</course>
  <speed>0.022360679774997897</speed>
  <fix>3d</fix>
</trkpt>
<trkpt lat="-27.274439" lon="151.290064">
  <ele>343.1</ele>
  <time>2026-09-01T20:03:19Z</time>
  <course>270.0</course>
  <speed>0.0</speed>
  <fix>3d</fix>
</trkpt>
<trkpt lat="-27.2744392" lon="151.2900641">
  <ele>343.14</ele>
  <time>2026-09-01T20:03:19Z</time>
  <course>10.86</course>
  <speed>0.022360679774997897</speed>
  <fix>3d</fix>
</trkpt>
<trkpt lat="-27.274439" lon="151.290064">
  <ele>343.1</ele>
  <time>2026-09-01T20:03:19Z</time>
  <course>270.0</course>
  <speed>0.0</speed>
  <fix>3d</fix>
</trkpt>
<trkpt lat="-27.2744392" lon="151.2900641">
  <ele>343.14</ele>
  <time>2026-09-01T20:03:19Z</time>
  <course>10.86</course>
  <speed>0.022360679774997897</speed>
  <fix>3d</fix>
</trkpt>
<trkpt lat="-27.274439" lon="151.290064">
  <ele>343.1</ele>
  <time>2026-09-01T20:03:19Z</time>
  <course>270.0</course>
  <speed>0.0</speed>
  <fix>3d</fix>
</trkpt>
<trkpt lat="-27.2744392" lon="151.2900641">
  <ele>343.14</ele>
  <time>2026-09-01T20:03:19Z</time>
  <course>10.86</course>
  <speed>0.022360679774997897</speed>
  <fix>3d</fix>
</trkpt>
<trkpt lat="-27.274439" lon="151.290064">
  <ele>343.1</ele>
  <time>2026-09-01T20:03:19Z</time>
  <course>270.0</course>
  <speed>0.0</speed>
  <fix>3d</fix>
</trkpt>
<trkpt lat="-27.2744392" lon="151.2900641">
  <ele>343.14</ele>
  <time>2026-09-01T20:03:19Z</time>
  <course>10.86</course>
  <speed>0.022360679774997897</speed>
  <fix>3d</fix>
</trkpt>
<trkpt lat="-27.274439" lon="151.290064">
  <ele>343.1</ele>
  <time>2026-09-01T20:03:19Z</time>
  <course>270.0</course>
  <speed>0.0</speed>
  <fix>3d</fix>
</trkpt>
<trkpt lat="-27.2744392" lon="151.2900641">
  <ele>343.14</ele>
  <time>2026-09-01T20:03:19Z</time>
  <course>10.86</course>
  <speed>0.022360679774997897</speed>
  <fix>3d</fix>
</trkpt>
<trkpt lat="-27.274439" lon="151.290064">
  <ele>343.1</ele>
  <time>2026-09-01T20:03:19Z</time>
  <course>270.0</course>
  <speed>0.0</speed>
  <fix>3d</fix>
</trkpt>
<trkpt lat="-27.2744391" lon="151.2900641">
  <ele>343.15</ele>
  <time>2026-09-01T20:03:19Z</time>
  <course>10.86</course>
  <speed>0.022360679774997897</speed>
  <fix>3d</fix>
</trkpt>
<trkpt lat="-27.274439" lon="151.290064">
  <ele>343.1</ele>
  <time>2026-09-01T20:03:19Z</time>
  <course>270.0</course>
  <speed>0.0</speed>
  <fix>3d</fix>
</trkpt>
<trkpt lat="-27.2744392" lon="151.2900641">
  <ele>343.15</ele>
  <time>2026-09-01T20:03:19Z</time>
  <course>10.86</course>
  <speed>0.022360679774997897</speed>
  <fix>3d</fix>
</trkpt>
<trkpt lat="-27.274439" lon="151.290064">
  <ele>343.1</ele>
  <time>2026-09-01T20:03:19Z</time>
  <course>270.0</course>
  <speed>0.0</speed>
  <fix>3d</fix>
</trkpt>
<trkpt lat="-27.2744391" lon="151.2900641">
  <ele>343.15</ele>
  <time>2026-09-01T20:03:19Z</time>
  <course>10.86</course>
  <speed>0.022360679774997897</speed>
  <fix>3d</fix>
</trkpt>
<trkpt lat="-27.274439" lon="151.290064">
  <ele>343.1</ele>
  <time>2026-09-01T20:03:19Z</time>
  <course>270.0</course>
  <speed>0.0</speed>
  <fix>3d</fix>
</trkpt>
<trkpt lat="-27.2744392" lon="151.2900641">
  <ele>343.15</ele>
  <time>2026-09-01T20:03:19Z</time>
  <course>10.86</course>
  <speed>0.022360679774997897</speed>
  <fix>3d</fix>
</trkpt>
<trkpt lat="-27.274439" lon="151.290064">
  <ele>343.1</ele>
  <time>2026-09-01T20:03:19Z</time>
  <course>270.0</course>
  <speed>0.0</speed>
  <fix>3d</fix>
</trkpt>
<trkpt lat="-27.2744391" lon="151.2900641">
  <ele>343.16</ele>
  <time>2026-09-01T20:03:19Z</time>
  <course>10.86</course>
  <speed>0.022360679774997897</speed>
  <fix>3d</fix>
</trkpt>
<trkpt lat="-27.274439" lon="151.290064">
  <ele>343.1</ele>
  <time>2026-09-01T20:03:19Z</time>
  <course>270.0</course>
  <speed>0.0</speed>
  <fix>3d</fix>
</trkpt>
<trkpt lat="-27.2744392" lon="151.2900641">
  <ele>343.16</ele>
  <time>2026-09-01T20:03:19Z</time>
  <course>10.86</course>
  <speed>0.022360679774997897</speed>
  <fix>3d</fix>
</trkpt>
<trkpt lat="-27.274439" lon="151.290064">
  <ele>343.1</ele>
  <time>2026-09-01T20:03:19Z</time>
  <course>270.0</course>
  <speed>0.0</speed>
  <fix>3d</fix>
</trkpt>
<trkpt lat="-27.2744392" lon="151.2900641">
  <ele>343.16</ele>
  <time>2026-09-01T20:03:19Z</time>
  <course>10.86</course>
  <speed>0.022360679774997897</speed>
  <fix>3d</fix>
</trkpt>
<trkpt lat="-27.274439" lon="151.290064">
  <ele>343.1</ele>
  <time>2026-09-01T20:03:19Z</time>
  <course>270.0</course>
  <speed>0.0</speed>
  <fix>3d</fix>
</trkpt>
<trkpt lat="-27.2744392" lon="151.2900641">
  <ele>343.16</ele>
  <time>2026-09-01T20:03:19Z</time>
  <course>10.86</course>
  <speed>0.022360679774997897</speed>
  <fix>3d</fix>
</trkpt>
<trkpt lat="-27.274439" lon="151.290064">
  <ele>343.1</ele>
  <time>2026-09-01T20:03:19Z</time>
  <course>270.0</course>
  <speed>0.0</speed>
  <fix>3d</fix>
</trkpt>
<trkpt lat="-27.2744392" lon="151.2900641">
  <ele>343.16</ele>
  <time>2026-09-01T20:03:19Z</time>
  <course>10.87</course>
  <speed>0.022360679774997897</speed>
  <fix>3d</fix>
</trkpt>
<trkpt lat="-27.274439" lon="151.290064">
  <ele>343.1</ele>
  <time>2026-09-01T20:03:19Z</time>
  <course>270.0</course>
  <speed>0.0</speed>
  <fix>3d</fix>
</trkpt>
<trkpt lat="-27.2744392" lon="151.2900641">
  <ele>343.16</ele>
  <time>2026-09-01T20:03:19Z</time>
  <course>10.87</course>
  <speed>0.022360679774997897</speed>
  <fix>3d</fix>
</trkpt>
<trkpt lat="-27.274439" lon="151.290064">
  <ele>343.1</ele>
  <time>2026-09-01T20:03:19Z</time>
  <course>270.0</course>
  <speed>0.0</speed>
  <fix>3d</fix>
</trkpt>
<trkpt lat="-27.2744392" lon="151.2900641">
  <ele>343.15</ele>
  <time>2026-09-01T20:03:19Z</time>
  <course>10.87</course>
  <speed>0.022360679774997897</speed>
  <fix>3d</fix>
</trkpt>
<trkpt lat="-27.274439" lon="151.290064">
  <ele>343.1</ele>
  <time>2026-09-01T20:03:19Z</time>
  <course>270.0</course>
  <speed>0.0</speed>
  <fix>3d</fix>
</trkpt>
<trkpt lat="-27.2744392" lon="151.2900641">
  <ele>343.15</ele>
  <time>2026-09-01T20:03:19Z</time>
  <course>10.87</course>
  <speed>0.022360679774997897</speed>
  <fix>3d</fix>
</trkpt>
<trkpt lat="-27.274439" lon="151.290064">
  <ele>343.1</ele>
  <time>2026-09-01T20:03:19Z</time>
  <course>270.0</course>
  <speed>0.0</speed>
  <fix>3d</fix>
</trkpt>
<trkpt lat="-27.2744392" lon="151.2900641">
  <ele>343.15</ele>
  <time>2026-09-01T20:03:19Z</time>
  <course>10.87</course>
  <speed>0.022360679774997897</speed>
  <fix>3d</fix>
</trkpt>
<trkpt lat="-27.274439" lon="151.290064">
  <ele>343.1</ele>
  <time>2026-09-01T20:03:19Z</time>
  <course>270.0</course>
  <speed>0.0</speed>
  <fix>3d</fix>
</trkpt>
<trkpt lat="-27.2744392" lon="151.2900641">
  <ele>343.15</ele>
  <time>2026-09-01T20:03:19Z</time>
  <course>10.87</course>
  <speed>0.022360679774997897</speed>
  <fix>3d</fix>
</trkpt>
<trkpt lat="-27.274439" lon="151.290064">
  <ele>343.1</ele>
  <time>2026-09-01T20:03:19Z</time>
  <course>270.0</course>
  <speed>0.0</speed>
  <fix>3d</fix>
</trkpt>
<trkpt lat="-27.2744392" lon="151.2900641">
  <ele>343.1</ele>
  <time>2026-09-01T20:03:19Z</time>
  <course>10.87</course>
  <speed>0.022360679774997897</speed>
  <fix>3d</fix>
</trkpt>
<trkpt lat="-27.274439" lon="151.290064">
  <ele>343.1</ele>
  <time>2026-09-01T20:03:19Z</time>
  <course>270.0</course>
  <speed>0.0</speed>
  <fix>3d</fix>
</trkpt>
<trkpt lat="-27.2744392" lon="151.2900641">
  <ele>343.1</ele>
  <time>2026-09-01T20:03:19Z</time>
  <course>10.87</course>
  <speed>0.022360679774997897</speed>
  <fix>3d</fix>
</trkpt>
<trkpt lat="-27.274439" lon="151.290064">
  <ele>343.1</ele>
  <time>2026-09-01T20:03:19Z</time>
  <course>270.0</course>
  <speed>0.0</speed>
  <fix>3d</fix>
</trkpt>
<trkpt lat="-27.2744392" lon="151.2900641">
  <ele>343.1</ele>
  <time>2026-09-01T20:03:19Z</time>
  <course>10.87</course>
  <speed>0.022360679774997897</speed>
  <fix>3d</fix>
</trkpt>
<trkpt lat="-27.274439" lon="151.290064">
  <ele>343.1</ele>
  <time>2026-09-01T20:03:19Z</time>
  <course>270.0</course>
  <speed>0.0</speed>
  <fix>3d</fix>
</trkpt>
<trkpt lat="-27.2744392" lon="151.2900641">
  <ele>343.1</ele>
  <time>2026-09-01T20:03:19Z</time>
  <course>10.87</course>
  <speed>0.022360679774997897</speed>
  <fix>3d</fix>
</trkpt>
<trkpt lat="-27.274439" lon="151.290064">
  <ele>343.1</ele>
  <time>2026-09-01T20:03:19Z</time>
  <course>270.0</course>
  <speed>0.0</speed>
  <fix>3d</fix>
</trkpt>
<trkpt lat="-27.2744392" lon="151.2900641">
  <ele>343.1</ele>
  <time>2026-09-01T20:03:19Z</time>
  <course>10.87</course>
  <speed>0.022360679774997897</speed>
  <fix>3d</fix>
</trkpt>
<trkpt lat="-27.274439" lon="151.290064">
  <ele>343.1</ele>
  <time>2026-09-01T20:03:19Z</time>
  <course>270.0</course>
  <speed>0.0</speed>
  <fix>3d</fix>
</trkpt>
<trkpt lat="-27.2744392" lon="151.2900641">
  <ele>343.1</ele>
  <time>2026-09-01T20:03:19Z</time>
  <course>10.87</course>
  <speed>0.022360679774997897</speed>
  <fix>3d</fix>
</trkpt>
<trkpt lat="-27.274439" lon="151.290064">
  <ele>343.1</ele>
  <time>2026-09-01T20:03:19Z</time>
  <course>270.0</course>
  <speed>0.0</speed>
  <fix>3d</fix>
</trkpt>
<trkpt lat="-27.2744392" lon="151.2900641">
  <ele>343.1</ele>
  <time>2026-09-01T20:03:19Z</time>
  <course>10.87</course>
  <speed>0.022360679774997897</speed>
  <fix>3d</fix>
</trkpt>
<trkpt lat="-27.274439" lon="151.290064">
  <ele>343.1</ele>
  <time>2026-09-01T20:03:19Z</time>
  <course>270.0</course>
  <speed>0.0</speed>
  <fix>3d</fix>
</trkpt>
<trkpt lat="-27.2744392" lon="151.2900641">
  <ele>343.1</ele>
  <time>2026-09-01T20:03:19Z</time>
  <course>10.88</course>
  <speed>0.022360679774997897</speed>
  <fix>3d</fix>
</trkpt>
<trkpt lat="-27.274439" lon="151.290064">
  <ele>343.1</ele>
  <time>2026-09-01T20:03:19Z</time>
  <course>270.0</course>
  <speed>0.0</speed>
  <fix>3d</fix>
</trkpt>
<trkpt lat="-27.2744392" lon="151.2900641">
  <ele>343.1</ele>
  <time>2026-09-01T20:03:19Z</time>
  <course>10.88</course>
  <speed>0.022360679774997897</speed>
  <fix>3d</fix>
</trkpt>
<trkpt lat="-27.274439" lon="151.290064">
  <ele>343.1</ele>
  <time>2026-09-01T20:03:19Z</time>
  <course>270.0</course>
  <speed>0.0</speed>
  <fix>3d</fix>
</trkpt>
<trkpt lat="-27.2744392" lon="151.2900641">
  <ele>343.1</ele>
  <time>2026-09-01T20:03:19Z</time>
  <course>10.88</course>
  <speed>0.022360679774997897</speed>
  <fix>3d</fix>
</trkpt>
<trkpt lat="-27.274439" lon="151.290064">
  <ele>343.1</ele>
  <time>2026-09-01T20:03:19Z</time>
  <course>270.0</course>
  <speed>0.0</speed>
  <fix>3d</fix>
</trkpt>
<trkpt lat="-27.2744392" lon="151.2900641">
  <ele>343.1</ele>
  <time>2026-09-01T20:03:19Z</time>
  <course>10.88</course>
  <speed>0.022360679774997897</speed>
  <fix>3d</fix>
</trkpt>
<trkpt lat="-27.274439" lon="151.290064">
  <ele>343.1</ele>
  <time>2026-09-01T20:03:19Z</time>
  <course>270.0</course>
  <speed>0.0</speed>
  <fix>3d</fix>
</trkpt>
<trkpt lat="-27.2744392" lon="151.2900641">
  <ele>343.11</ele>
  <time>2026-09-01T20:03:19Z</time>
  <course>10.88</course>
  <speed>0.022360679774997897</speed>
  <fix>3d</fix>
</trkpt>
<trkpt lat="-27.274439" lon="151.290064">
  <ele>343.1</ele>
  <time>2026-09-01T20:03:19Z</time>
  <course>270.0</course>
  <speed>0.0</speed>
  <fix>3d</fix>
</trkpt>
<trkpt lat="-27.2744392" lon="151.2900641">
  <ele>343.11</ele>
  <time>2026-09-01T20:03:19Z</time>
  <course>10.88</course>
  <speed>0.022360679774997897</speed>
  <fix>3d</fix>
</trkpt>
<trkpt lat="-27.274439" lon="151.290064">
  <ele>343.1</ele>
  <time>2026-09-01T20:03:19Z</time>
  <course>270.0</course>
  <speed>0.0</speed>
  <fix>3d</fix>
</trkpt>
<trkpt lat="-27.2744392" lon="151.2900641">
  <ele>343.11</ele>
  <time>2026-09-01T20:03:19Z</time>
  <course>10.88</course>
  <speed>0.022360679774997897</speed>
  <fix>3d</fix>
</trkpt>
<trkpt lat="-27.274439" lon="151.290064">
  <ele>343.1</ele>
  <time>2026-09-01T20:03:19Z</time>
  <course>270.0</course>
  <speed>0.0</speed>
  <fix>3d</fix>
</trkpt>
<trkpt lat="-27.2744392" lon="151.2900641">
  <ele>343.11</ele>
  <time>2026-09-01T20:03:19Z</time>
  <course>10.88</course>
  <speed>0.022360679774997897</speed>
  <fix>3d</fix>
</trkpt>
<trkpt lat="-27.274439" lon="151.290064">
  <ele>343.1</ele>
  <time>2026-09-01T20:03:19Z</time>
  <course>270.0</course>
  <speed>0.0</speed>
  <fix>3d</fix>
</trkpt>
<trkpt lat="-27.2744392" lon="151.2900641">
  <ele>343.1</ele>
  <time>2026-09-01T20:03:19Z</time>
  <course>10.88</course>
  <speed>0.022360679774997897</speed>
  <fix>3d</fix>
</trkpt>
<trkpt lat="-27.274439" lon="151.290064">
  <ele>343.1</ele>
  <time>2026-09-01T20:03:19Z</time>
  <course>270.0</course>
  <speed>0.0</speed>
  <fix>3d</fix>
</trkpt>
<trkpt lat="-27.2744392" lon="151.2900641">
  <ele>343.1</ele>
  <time>2026-09-01T20:03:19Z</time>
  <course>10.88</course>
  <speed>0.022360679774997897</speed>
  <fix>3d</fix>
</trkpt>
<trkpt lat="-27.274439" lon="151.290064">
  <ele>343.1</ele>
  <time>2026-09-01T20:03:19Z</time>
  <course>270.0</course>
  <speed>0.0</speed>
  <fix>3d</fix>
</trkpt>
<trkpt lat="-27.2744392" lon="151.2900641">
  <ele>343.1</ele>
  <time>2026-09-01T20:03:19Z</time>
  <course>10.88</course>
  <speed>0.022360679774997897</speed>
  <fix>3d</fix>
</trkpt>
<trkpt lat="-27.274439" lon="151.290064">
  <ele>343.1</ele>
  <time>2026-09-01T20:03:19Z</time>
  <course>270.0</course>
  <speed>0.0</speed>
  <fix>3d</fix>
</trkpt>
<trkpt lat="-27.2744392" lon="151.2900641">
  <ele>343.1</ele>
  <time>2026-09-01T20:03:19Z</time>
  <course>10.88</course>
  <speed>0.022360679774997897</speed>
  <fix>3d</fix>
</trkpt>
<trkpt lat="-27.274439" lon="151.290064">
  <ele>343.1</ele>
  <time>2026-09-01T20:03:19Z</time>
  <course>270.0</course>
  <speed>0.0</speed>
  <fix>3d</fix>
</trkpt>
<trkpt lat="-27.2744392" lon="151.2900641">
  <ele>343.1</ele>
  <time>2026-09-01T20:03:19Z</time>
  <course>10.88</course>
  <speed>0.022360679774997897</speed>
  <fix>3d</fix>
</trkpt>
<trkpt lat="-27.274439" lon="151.290064">
  <ele>343.1</ele>
  <time>2026-09-01T20:03:19Z</time>
  <course>270.0</course>
  <speed>0.0</speed>
  <fix>3d</fix>
</trkpt>
<trkpt lat="-27.2744392" lon="151.2900641">
  <ele>343.1</ele>
  <time>2026-09-01T20:03:19Z</time>
  <course>10.89</course>
  <speed>0.022360679774997897</speed>
  <fix>3d</fix>
</trkpt>
<trkpt lat="-27.274439" lon="151.290064">
  <ele>343.1</ele>
  <time>2026-09-01T20:03:19Z</time>
  <course>270.0</course>
  <speed>0.0</speed>
  <fix>3d</fix>
</trkpt>
<trkpt lat="-27.2744392" lon="151.2900641">
  <ele>343.1</ele>
  <time>2026-09-01T20:03:19Z</time>
  <course>10.89</course>
  <speed>0.022360679774997897</speed>
  <fix>3d</fix>
</trkpt>
<trkpt lat="-27.274439" lon="151.290064">
  <ele>343.1</ele>
  <time>2026-09-01T20:03:19Z</time>
  <course>270.0</course>
  <speed>0.0</speed>
  <fix>3d</fix>
</trkpt>
<trkpt lat="-27.2744392" lon="151.2900641">
  <ele>343.1</ele>
  <time>2026-09-01T20:03:19Z</time>
  <course>10.89</course>
  <speed>0.022360679774997897</speed>
  <fix>3d</fix>
</trkpt>
<trkpt lat="-27.274439" lon="151.290064">
  <ele>343.1</ele>
  <time>2026-09-01T20:03:19Z</time>
  <course>270.0</course>
  <speed>0.0</speed>
  <fix>3d</fix>
</trkpt>
<trkpt lat="-27.2744392" lon="151.2900641">
  <ele>343.1</ele>
  <time>2026-09-01T20:03:19Z</time>
  <course>10.89</course>
  <speed>0.022360679774997897</speed>
  <fix>3d</fix>
</trkpt>
<trkpt lat="-27.274439" lon="151.290064">
  <ele>343.1</ele>
  <time>2026-09-01T20:03:19Z</time>
  <course>270.0</course>
  <speed>0.0</speed>
  <fix>3d</fix>
</trkpt>
<trkpt lat="-27.2744392" lon="151.2900641">
  <ele>343.11</ele>
  <time>2026-09-01T20:03:19Z</time>
  <course>10.89</course>
  <speed>0.022360679774997897</speed>
  <fix>3d</fix>
</trkpt>
<trkpt lat="-27.274439" lon="151.290064">
  <ele>343.1</ele>
  <time>2026-09-01T20:03:19Z</time>
  <course>270.0</course>
  <speed>0.0</speed>
  <fix>3d</fix>
</trkpt>
<trkpt lat="-27.2744392" lon="151.2900641">
  <ele>343.11</ele>
  <time>2026-09-01T20:03:19Z</time>
  <course>10.89</course>
  <speed>0.022360679774997897</speed>
  <fix>3d</fix>
</trkpt>
<trkpt lat="-27.274439" lon="151.290064">
  <ele>343.1</ele>
  <time>2026-09-01T20:03:19Z</time>
  <course>270.0</course>
  <speed>0.0</speed>
  <fix>3d</fix>
</trkpt>
<trkpt lat="-27.2744392" lon="151.2900641">
  <ele>343.11</ele>
  <time>2026-09-01T20:03:19Z</time>
  <course>10.89</course>
  <speed>0.022360679774997897</speed>
  <fix>3d</fix>
</trkpt>
<trkpt lat="-27.274439" lon="151.290064">
  <ele>343.1</ele>
  <time>2026-09-01T20:03:19Z</time>
  <course>270.0</course>
  <speed>0.0</speed>
  <fix>3d</fix>
</trkpt>
<trkpt lat="-27.2744392" lon="151.2900641">
  <ele>343.11</ele>
  <time>2026-09-01T20:03:19Z</time>
  <course>10.89</course>
  <speed>0.022360679774997897</speed>
  <fix>3d</fix>
</trkpt>
<trkpt lat="-27.274439" lon="151.290064">
  <ele>343.1</ele>
  <time>2026-09-01T20:03:19Z</time>
  <course>270.0</course>
  <speed>0.0</speed>
  <fix>3d</fix>
</trkpt>
<trkpt lat="-27.2744392" lon="151.2900641">
  <ele>343.11</ele>
  <time>2026-09-01T20:03:19Z</time>
  <course>10.89</course>
  <speed>0.022360679774997897</speed>
  <fix>3d</fix>
</trkpt>
<trkpt lat="-27.274439" lon="151.290064">
  <ele>343.1</ele>
  <time>2026-09-01T20:03:19Z</time>
  <course>270.0</course>
  <speed>0.0</speed>
  <fix>3d</fix>
</trkpt>
<trkpt lat="-27.2744392" lon="151.2900641">
  <ele>343.12</ele>
  <time>2026-09-01T20:03:19Z</time>
  <course>10.89</course>
  <speed>0.022360679774997897</speed>
  <fix>3d</fix>
</trkpt>
<trkpt lat="-27.274439" lon="151.290064">
  <ele>343.1</ele>
  <time>2026-09-01T20:03:19Z</time>
  <course>270.0</course>
  <speed>0.0</speed>
  <fix>3d</fix>
</trkpt>
<trkpt lat="-27.2744392" lon="151.2900641">
  <ele>343.12</ele>
  <time>2026-09-01T20:03:19Z</time>
  <course>10.89</course>
  <speed>0.022360679774997897</speed>
  <fix>3d</fix>
</trkpt>
<trkpt lat="-27.274439" lon="151.290064">
  <ele>343.1</ele>
  <time>2026-09-01T20:03:19Z</time>
  <course>270.0</course>
  <speed>0.0</speed>
  <fix>3d</fix>
</trkpt>
<trkpt lat="-27.2744392" lon="151.2900641">
  <ele>343.12</ele>
  <time>2026-09-01T20:03:19Z</time>
  <course>10.89</course>
  <speed>0.022360679774997897</speed>
  <fix>3d</fix>
</trkpt>
<trkpt lat="-27.274439" lon="151.290064">
  <ele>343.1</ele>
  <time>2026-09-01T20:03:19Z</time>
  <course>270.0</course>
  <speed>0.0</speed>
  <fix>3d</fix>
</trkpt>
<trkpt lat="-27.2744392" lon="151.2900641">
  <ele>343.12</ele>
  <time>2026-09-01T20:03:19Z</time>
  <course>10.9</course>
  <speed>0.022360679774997897</speed>
  <fix>3d</fix>
</trkpt>
<trkpt lat="-27.274439" lon="151.290064">
  <ele>343.1</ele>
  <time>2026-09-01T20:03:19Z</time>
  <course>270.0</course>
  <speed>0.0</speed>
  <fix>3d</fix>
</trkpt>
<trkpt lat="-27.2744392" lon="151.2900641">
  <ele>343.12</ele>
  <time>2026-09-01T20:03:19Z</time>
  <course>10.9</course>
  <speed>0.022360679774997897</speed>
  <fix>3d</fix>
</trkpt>
<trkpt lat="-27.274439" lon="151.290064">
  <ele>343.1</ele>
  <time>2026-09-01T20:03:19Z</time>
  <course>270.0</course>
  <speed>0.0</speed>
  <fix>3d</fix>
</trkpt>
<trkpt lat="-27.2744392" lon="151.2900641">
  <ele>343.12</ele>
  <time>2026-09-01T20:03:19Z</time>
  <course>10.9</course>
  <speed>0.022360679774997897</speed>
  <fix>3d</fix>
</trkpt>
<trkpt lat="-27.274439" lon="151.290064">
  <ele>343.1</ele>
  <time>2026-09-01T20:03:19Z</time>
  <course>270.0</course>
  <speed>0.0</speed>
  <fix>3d</fix>
</trkpt>
<trkpt lat="-27.2744392" lon="151.2900641">
  <ele>343.12</ele>
  <time>2026-09-01T20:03:19Z</time>
  <course>10.9</course>
  <speed>0.022360679774997897</speed>
  <fix>3d</fix>
</trkpt>
<trkpt lat="-27.274439" lon="151.290064">
  <ele>343.1</ele>
  <time>2026-09-01T20:03:19Z</time>
  <course>270.0</course>
  <speed>0.0</speed>
  <fix>3d</fix>
</trkpt>
<trkpt lat="-27.2744392" lon="151.2900641">
  <ele>343.12</ele>
  <time>2026-09-01T20:03:19Z</time>
  <course>10.9</course>
  <speed>0.022360679774997897</speed>
  <fix>3d</fix>
</trkpt>
<trkpt lat="-27.274439" lon="151.290064">
  <ele>343.1</ele>
  <time>2026-09-01T20:03:19Z</time>
  <course>270.0</course>
  <speed>0.0</speed>
  <fix>3d</fix>
</trkpt>
<trkpt lat="-27.2744392" lon="151.2900641">
  <ele>343.12</ele>
  <time>2026-09-01T20:03:19Z</time>
  <course>10.9</course>
  <speed>0.022360679774997897</speed>
  <fix>3d</fix>
</trkpt>
<trkpt lat="-27.274439" lon="151.290064">
  <ele>343.1</ele>
  <time>2026-09-01T20:03:19Z</time>
  <course>270.0</course>
  <speed>0.0</speed>
  <fix>3d</fix>
</trkpt>
<trkpt lat="-27.2744392" lon="151.2900641">
  <ele>343.12</ele>
  <time>2026-09-01T20:03:19Z</time>
  <course>10.9</course>
  <speed>0.022360679774997897</speed>
  <fix>3d</fix>
</trkpt>
<trkpt lat="-27.274439" lon="151.290064">
  <ele>343.1</ele>
  <time>2026-09-01T20:03:19Z</time>
  <course>270.0</course>
  <speed>0.0</speed>
  <fix>3d</fix>
</trkpt>
<trkpt lat="-27.2744392" lon="151.2900641">
  <ele>343.12</ele>
  <time>2026-09-01T20:03:19Z</time>
  <course>10.9</course>
  <speed>0.022360679774997897</speed>
  <fix>3d</fix>
</trkpt>
<trkpt lat="-27.274439" lon="151.290064">
  <ele>343.1</ele>
  <time>2026-09-01T20:03:19Z</time>
  <course>270.0</course>
  <speed>0.0</speed>
  <fix>3d</fix>
</trkpt>
<trkpt lat="-27.2744392" lon="151.2900641">
  <ele>343.12</ele>
  <time>2026-09-01T20:03:19Z</time>
  <course>10.9</course>
  <speed>0.022360679774997897</speed>
  <fix>3d</fix>
</trkpt>
<trkpt lat="-27.274439" lon="151.290064">
  <ele>343.1</ele>
  <time>2026-09-01T20:03:19Z</time>
  <course>270.0</course>
  <speed>0.0</speed>
  <fix>3d</fix>
</trkpt>
<trkpt lat="-27.2744392" lon="151.2900641">
  <ele>343.12</ele>
  <time>2026-09-01T20:03:19Z</time>
  <course>10.9</course>
  <speed>0.022360679774997897</speed>
  <fix>3d</fix>
</trkpt>
<trkpt lat="-27.274439" lon="151.290064">
  <ele>343.1</ele>
  <time>2026-09-01T20:03:19Z</time>
  <course>270.0</course>
  <speed>0.0</speed>
  <fix>3d</fix>
</trkpt>
<trkpt lat="-27.2744392" lon="151.2900641">
  <ele>343.12</ele>
  <time>2026-09-01T20:03:19Z</time>
  <course>10.9</course>
  <speed>0.022360679774997897</speed>
  <fix>3d</fix>
</trkpt>
<trkpt lat="-27.274439" lon="151.290064">
  <ele>343.1</ele>
  <time>2026-09-01T20:03:19Z</time>
  <course>270.0</course>
  <speed>0.0</speed>
  <fix>3d</fix>
</trkpt>
<trkpt lat="-27.2744392" lon="151.2900641">
  <ele>343.13</ele>
  <time>2026-09-01T20:03:19Z</time>
  <course>10.9</course>
  <speed>0.022360679774997897</speed>
  <fix>3d</fix>
</trkpt>
<trkpt lat="-27.274439" lon="151.290064">
  <ele>343.1</ele>
  <time>2026-09-01T20:03:19Z</time>
  <course>270.0</course>
  <speed>0.0</speed>
  <fix>3d</fix>
</trkpt>
<trkpt lat="-27.2744392" lon="151.2900641">
  <ele>343.13</ele>
  <time>2026-09-01T20:03:19Z</time>
  <course>10.9</course>
  <speed>0.022360679774997897</speed>
  <fix>3d</fix>
</trkpt>
<trkpt lat="-27.274439" lon="151.290064">
  <ele>343.1</ele>
  <time>2026-09-01T20:03:19Z</time>
  <course>270.0</course>
  <speed>0.0</speed>
  <fix>3d</fix>
</trkpt>
<trkpt lat="-27.2744392" lon="151.2900641">
  <ele>343.12</ele>
  <time>2026-09-01T20:03:19Z</time>
  <course>10.91</course>
  <speed>0.022360679774997897</speed>
  <fix>3d</fix>
</trkpt>
<trkpt lat="-27.274439" lon="151.290064">
  <ele>343.1</ele>
  <time>2026-09-01T20:03:19Z</time>
  <course>270.0</course>
  <speed>0.0</speed>
  <fix>3d</fix>
</trkpt>
<trkpt lat="-27.2744392" lon="151.2900641">
  <ele>343.13</ele>
  <time>2026-09-01T20:03:19Z</time>
  <course>10.91</course>
  <speed>0.022360679774997897</speed>
  <fix>3d</fix>
</trkpt>
<trkpt lat="-27.274439" lon="151.290064">
  <ele>343.1</ele>
  <time>2026-09-01T20:03:19Z</time>
  <course>270.0</course>
  <speed>0.0</speed>
  <fix>3d</fix>
</trkpt>
<trkpt lat="-27.2744392" lon="151.2900641">
  <ele>343.13</ele>
  <time>2026-09-01T20:03:19Z</time>
  <course>10.91</course>
  <speed>0.022360679774997897</speed>
  <fix>3d</fix>
</trkpt>
<trkpt lat="-27.274439" lon="151.290064">
  <ele>343.1</ele>
  <time>2026-09-01T20:03:19Z</time>
  <course>270.0</course>
  <speed>0.0</speed>
  <fix>3d</fix>
</trkpt>
<trkpt lat="-27.2744392" lon="151.2900641">
  <ele>343.13</ele>
  <time>2026-09-01T20:03:19Z</time>
  <course>10.91</course>
  <speed>0.022360679774997897</speed>
  <fix>3d</fix>
</trkpt>
<trkpt lat="-27.274439" lon="151.290064">
  <ele>343.1</ele>
  <time>2026-09-01T20:03:19Z</time>
  <course>270.0</course>
  <speed>0.0</speed>
  <fix>3d</fix>
</trkpt>
<trkpt lat="-27.2744392" lon="151.2900641">
  <ele>343.13</ele>
  <time>2026-09-01T20:03:19Z</time>
  <course>10.91</course>
  <speed>0.022360679774997897</speed>
  <fix>3d</fix>
</trkpt>
<trkpt lat="-27.274439" lon="151.290064">
  <ele>343.1</ele>
  <time>2026-09-01T20:03:19Z</time>
  <course>270.0</course>
  <speed>0.0</speed>
  <fix>3d</fix>
</trkpt>
<trkpt lat="-27.2744392" lon="151.2900641">
  <ele>343.12</ele>
  <time>2026-09-01T20:03:19Z</time>
  <course>10.91</course>
  <speed>0.022360679774997897</speed>
  <fix>3d</fix>
</trkpt>
<trkpt lat="-27.274439" lon="151.290064">
  <ele>343.1</ele>
  <time>2026-09-01T20:03:19Z</time>
  <course>270.0</course>
  <speed>0.0</speed>
  <fix>3d</fix>
</trkpt>
<trkpt lat="-27.2744392" lon="151.2900641">
  <ele>343.12</ele>
  <time>2026-09-01T20:03:19Z</time>
  <course>10.91</course>
  <speed>0.022360679774997897</speed>
  <fix>3d</fix>
</trkpt>
<trkpt lat="-27.274439" lon="151.290064">
  <ele>343.1</ele>
  <time>2026-09-01T20:03:19Z</time>
  <course>270.0</course>
  <speed>0.0</speed>
  <fix>3d</fix>
</trkpt>
<trkpt lat="-27.2744392" lon="151.2900641">
  <ele>343.12</ele>
  <time>2026-09-01T20:03:19Z</time>
  <course>10.91</course>
  <speed>0.022360679774997897</speed>
  <fix>3d</fix>
</trkpt>
<trkpt lat="-27.274439" lon="151.290064">
  <ele>343.1</ele>
  <time>2026-09-01T20:03:19Z</time>
  <course>270.0</course>
  <speed>0.0</speed>
  <fix>3d</fix>
</trkpt>
<trkpt lat="-27.2744392" lon="151.2900641">
  <ele>343.12</ele>
  <time>2026-09-01T20:03:19Z</time>
  <course>10.91</course>
  <speed>0.022360679774997897</speed>
  <fix>3d</fix>
</trkpt>
<trkpt lat="-27.274439" lon="151.290064">
  <ele>343.1</ele>
  <time>2026-09-01T20:03:19Z</time>
  <course>270.0</course>
  <speed>0.0</speed>
  <fix>3d</fix>
</trkpt>
<trkpt lat="-27.2744392" lon="151.2900641">
  <ele>343.13</ele>
  <time>2026-09-01T20:03:19Z</time>
  <course>10.91</course>
  <speed>0.022360679774997897</speed>
  <fix>3d</fix>
</trkpt>
<trkpt lat="-27.274439" lon="151.290064">
  <ele>343.1</ele>
  <time>2026-09-01T20:03:19Z</time>
  <course>270.0</course>
  <speed>0.0</speed>
  <fix>3d</fix>
</trkpt>
<trkpt lat="-27.2744392" lon="151.2900641">
  <ele>343.13</ele>
  <time>2026-09-01T20:03:19Z</time>
  <course>10.91</course>
  <speed>0.022360679774997897</speed>
  <fix>3d</fix>
</trkpt>
<trkpt lat="-27.274439" lon="151.290064">
  <ele>343.1</ele>
  <time>2026-09-01T20:03:19Z</time>
  <course>270.0</course>
  <speed>0.0</speed>
  <fix>3d</fix>
</trkpt>
<trkpt lat="-27.2744392" lon="151.2900641">
  <ele>343.13</ele>
  <time>2026-09-01T20:03:19Z</time>
  <course>10.91</course>
  <speed>0.022360679774997897</speed>
  <fix>3d</fix>
</trkpt>
<trkpt lat="-27.274439" lon="151.290064">
  <ele>343.1</ele>
  <time>2026-09-01T20:03:19Z</time>
  <course>270.0</course>
  <speed>0.0</speed>
  <fix>3d</fix>
</trkpt>
<trkpt lat="-27.2744392" lon="151.2900641">
  <ele>343.13</ele>
  <time>2026-09-01T20:03:19Z</time>
  <course>10.92</course>
  <speed>0.022360679774997897</speed>
  <fix>3d</fix>
</trkpt>
<trkpt lat="-27.274439" lon="151.290064">
  <ele>343.1</ele>
  <time>2026-09-01T20:03:19Z</time>
  <course>270.0</course>
  <speed>0.0</speed>
  <fix>3d</fix>
</trkpt>
<trkpt lat="-27.2744392" lon="151.2900641">
  <ele>343.14</ele>
  <time>2026-09-01T20:03:19Z</time>
  <course>10.92</course>
  <speed>0.022360679774997897</speed>
  <fix>3d</fix>
</trkpt>
<trkpt lat="-27.274439" lon="151.290064">
  <ele>343.1</ele>
  <time>2026-09-01T20:03:19Z</time>
  <course>270.0</course>
  <speed>0.0</speed>
  <fix>3d</fix>
</trkpt>
<trkpt lat="-27.2744392" lon="151.2900641">
  <ele>343.14</ele>
  <time>2026-09-01T20:03:19Z</time>
  <course>10.92</course>
  <speed>0.022360679774997897</speed>
  <fix>3d</fix>
</trkpt>
<trkpt lat="-27.274439" lon="151.290064">
  <ele>343.1</ele>
  <time>2026-09-01T20:03:19Z</time>
  <course>270.0</course>
  <speed>0.0</speed>
  <fix>3d</fix>
</trkpt>
<trkpt lat="-27.2744392" lon="151.2900641">
  <ele>343.1</ele>
  <time>2026-09-01T20:03:19Z</time>
  <course>10.92</course>
  <speed>0.022360679774997897</speed>
  <fix>3d</fix>
</trkpt>
<trkpt lat="-27.274439" lon="151.290064">
  <ele>343.1</ele>
  <time>2026-09-01T20:03:19Z</time>
  <course>270.0</course>
  <speed>0.0</speed>
  <fix>3d</fix>
</trkpt>
<trkpt lat="-27.2744392" lon="151.2900641">
  <ele>343.1</ele>
  <time>2026-09-01T20:03:19Z</time>
  <course>10.92</course>
  <speed>0.022360679774997897</speed>
  <fix>3d</fix>
</trkpt>
<trkpt lat="-27.274439" lon="151.290064">
  <ele>343.1</ele>
  <time>2026-09-01T20:03:19Z</time>
  <course>270.0</course>
  <speed>0.0</speed>
  <fix>3d</fix>
</trkpt>
<trkpt lat="-27.2744392" lon="151.2900641">
  <ele>343.1</ele>
  <time>2026-09-01T20:03:19Z</time>
  <course>10.92</course>
  <speed>0.022360679774997897</speed>
  <fix>3d</fix>
</trkpt>
<trkpt lat="-27.274439" lon="151.290064">
  <ele>343.1</ele>
  <time>2026-09-01T20:03:19Z</time>
  <course>270.0</course>
  <speed>0.0</speed>
  <fix>3d</fix>
</trkpt>
<trkpt lat="-27.2744392" lon="151.2900641">
  <ele>343.1</ele>
  <time>2026-09-01T20:03:19Z</time>
  <course>10.92</course>
  <speed>0.022360679774997897</speed>
  <fix>3d</fix>
</trkpt>
<trkpt lat="-27.274439" lon="151.290064">
  <ele>343.1</ele>
  <time>2026-09-01T20:03:19Z</time>
  <course>270.0</course>
  <speed>0.0</speed>
  <fix>3d</fix>
</trkpt>
<trkpt lat="-27.2744392" lon="151.2900641">
  <ele>343.1</ele>
  <time>2026-09-01T20:03:19Z</time>
  <course>10.92</course>
  <speed>0.022360679774997897</speed>
  <fix>3d</fix>
</trkpt>
<trkpt lat="-27.274439" lon="151.290064">
  <ele>343.1</ele>
  <time>2026-09-01T20:03:19Z</time>
  <course>270.0</course>
  <speed>0.0</speed>
  <fix>3d</fix>
</trkpt>
<trkpt lat="-27.2744392" lon="151.2900641">
  <ele>343.1</ele>
  <time>2026-09-01T20:03:19Z</time>
  <course>10.92</course>
  <speed>0.022360679774997897</speed>
  <fix>3d</fix>
</trkpt>
<trkpt lat="-27.274439" lon="151.290064">
  <ele>343.1</ele>
  <time>2026-09-01T20:03:19Z</time>
  <course>270.0</course>
  <speed>0.0</speed>
  <fix>3d</fix>
</trkpt>
<trkpt lat="-27.2744392" lon="151.2900641">
  <ele>343.1</ele>
  <time>2026-09-01T20:03:19Z</time>
  <course>10.92</course>
  <speed>0.022360679774997897</speed>
  <fix>3d</fix>
</trkpt>
<trkpt lat="-27.274439" lon="151.290064">
  <ele>343.1</ele>
  <time>2026-09-01T20:03:19Z</time>
  <course>270.0</course>
  <speed>0.0</speed>
  <fix>3d</fix>
</trkpt>
<trkpt lat="-27.2744392" lon="151.2900641">
  <ele>343.1</ele>
  <time>2026-09-01T20:03:19Z</time>
  <course>10.92</course>
  <speed>0.022360679774997897</speed>
  <fix>3d</fix>
</trkpt>
<trkpt lat="-27.274439" lon="151.290064">
  <ele>343.1</ele>
  <time>2026-09-01T20:03:19Z</time>
  <course>270.0</course>
  <speed>0.0</speed>
  <fix>3d</fix>
</trkpt>
<trkpt lat="-27.2744392" lon="151.2900641">
  <ele>343.11</ele>
  <time>2026-09-01T20:03:19Z</time>
  <course>10.92</course>
  <speed>0.022360679774997897</speed>
  <fix>3d</fix>
</trkpt>
<trkpt lat="-27.274439" lon="151.290064">
  <ele>343.1</ele>
  <time>2026-09-01T20:03:19Z</time>
  <course>270.0</course>
  <speed>0.0</speed>
  <fix>3d</fix>
</trkpt>
<trkpt lat="-27.2744392" lon="151.2900641">
  <ele>343.11</ele>
  <time>2026-09-01T20:03:19Z</time>
  <course>10.93</course>
  <speed>0.022360679774997897</speed>
  <fix>3d</fix>
</trkpt>
<trkpt lat="-27.274439" lon="151.290064">
  <ele>343.1</ele>
  <time>2026-09-01T20:03:19Z</time>
  <course>270.0</course>
  <speed>0.0</speed>
  <fix>3d</fix>
</trkpt>
<trkpt lat="-27.2744392" lon="151.2900641">
  <ele>343.11</ele>
  <time>2026-09-01T20:03:19Z</time>
  <course>10.93</course>
  <speed>0.022360679774997897</speed>
  <fix>3d</fix>
</trkpt>
<trkpt lat="-27.274439" lon="151.290064">
  <ele>343.1</ele>
  <time>2026-09-01T20:03:19Z</time>
  <course>270.0</course>
  <speed>0.0</speed>
  <fix>3d</fix>
</trkpt>
<trkpt lat="-27.2744392" lon="151.2900641">
  <ele>343.11</ele>
  <time>2026-09-01T20:03:19Z</time>
  <course>10.93</course>
  <speed>0.022360679774997897</speed>
  <fix>3d</fix>
</trkpt>
<trkpt lat="-27.274439" lon="151.290064">
  <ele>343.1</ele>
  <time>2026-09-01T20:03:19Z</time>
  <course>270.0</course>
  <speed>0.0</speed>
  <fix>3d</fix>
</trkpt>
<trkpt lat="-27.2744392" lon="151.2900641">
  <ele>343.11</ele>
  <time>2026-09-01T20:03:19Z</time>
  <course>10.93</course>
  <speed>0.022360679774997897</speed>
  <fix>3d</fix>
</trkpt>
<trkpt lat="-27.274439" lon="151.290064">
  <ele>343.1</ele>
  <time>2026-09-01T20:03:19Z</time>
  <course>270.0</course>
  <speed>0.0</speed>
  <fix>3d</fix>
</trkpt>
<trkpt lat="-27.2744392" lon="151.2900641">
  <ele>343.11</ele>
  <time>2026-09-01T20:03:19Z</time>
  <course>10.93</course>
  <speed>0.022360679774997897</speed>
  <fix>3d</fix>
</trkpt>
<trkpt lat="-27.274439" lon="151.290064">
  <ele>343.1</ele>
  <time>2026-09-01T20:03:19Z</time>
  <course>270.0</course>
  <speed>0.0</speed>
  <fix>3d</fix>
</trkpt>
<trkpt lat="-27.2744392" lon="151.2900641">
  <ele>343.11</ele>
  <time>2026-09-01T20:03:19Z</time>
  <course>10.93</course>
  <speed>0.022360679774997897</speed>
  <fix>3d</fix>
</trkpt>
<trkpt lat="-27.274439" lon="151.290064">
  <ele>343.1</ele>
  <time>2026-09-01T20:03:19Z</time>
  <course>270.0</course>
  <speed>0.0</speed>
  <fix>3d</fix>
</trkpt>
<trkpt lat="-27.2744392" lon="151.2900641">
  <ele>343.11</ele>
  <time>2026-09-01T20:03:19Z</time>
  <course>10.93</course>
  <speed>0.022360679774997897</speed>
  <fix>3d</fix>
</trkpt>
<trkpt lat="-27.274439" lon="151.290064">
  <ele>343.1</ele>
  <time>2026-09-01T20:03:19Z</time>
  <course>270.0</course>
  <speed>0.0</speed>
  <fix>3d</fix>
</trkpt>
<trkpt lat="-27.2744392" lon="151.2900641">
  <ele>343.11</ele>
  <time>2026-09-01T20:03:19Z</time>
  <course>10.93</course>
  <speed>0.022360679774997897</speed>
  <fix>3d</fix>
</trkpt>
<trkpt lat="-27.274439" lon="151.290064">
  <ele>343.1</ele>
  <time>2026-09-01T20:03:19Z</time>
  <course>270.0</course>
  <speed>0.0</speed>
  <fix>3d</fix>
</trkpt>
<trkpt lat="-27.2744392" lon="151.2900641">
  <ele>343.11</ele>
  <time>2026-09-01T20:03:19Z</time>
  <course>10.93</course>
  <speed>0.022360679774997897</speed>
  <fix>3d</fix>
</trkpt>
<trkpt lat="-27.274439" lon="151.290064">
  <ele>343.1</ele>
  <time>2026-09-01T20:03:19Z</time>
  <course>270.0</course>
  <speed>0.0</speed>
  <fix>3d</fix>
</trkpt>
<trkpt lat="-27.2744392" lon="151.2900641">
  <ele>343.11</ele>
  <time>2026-09-01T20:03:19Z</time>
  <course>10.93</course>
  <speed>0.022360679774997897</speed>
  <fix>3d</fix>
</trkpt>
<trkpt lat="-27.274439" lon="151.290064">
  <ele>343.1</ele>
  <time>2026-09-01T20:03:19Z</time>
  <course>270.0</course>
  <speed>0.0</speed>
  <fix>3d</fix>
</trkpt>
<trkpt lat="-27.2744392" lon="151.2900641">
  <ele>343.11</ele>
  <time>2026-09-01T20:03:19Z</time>
  <course>10.93</course>
  <speed>0.022360679774997897</speed>
  <fix>3d</fix>
</trkpt>
<trkpt lat="-27.274439" lon="151.290064">
  <ele>343.1</ele>
  <time>2026-09-01T20:03:19Z</time>
  <course>270.0</course>
  <speed>0.0</speed>
  <fix>3d</fix>
</trkpt>
<trkpt lat="-27.2744392" lon="151.2900641">
  <ele>343.11</ele>
  <time>2026-09-01T20:03:19Z</time>
  <course>10.93</course>
  <speed>0.022360679774997897</speed>
  <fix>3d</fix>
</trkpt>
<trkpt lat="-27.274439" lon="151.290064">
  <ele>343.1</ele>
  <time>2026-09-01T20:03:19Z</time>
  <course>270.0</course>
  <speed>0.0</speed>
  <fix>3d</fix>
</trkpt>
<trkpt lat="-27.2744392" lon="151.2900641">
  <ele>343.11</ele>
  <time>2026-09-01T20:03:19Z</time>
  <course>10.94</course>
  <speed>0.022360679774997897</speed>
  <fix>3d</fix>
</trkpt>
<trkpt lat="-27.274439" lon="151.290064">
  <ele>343.1</ele>
  <time>2026-09-01T20:03:19Z</time>
  <course>270.0</course>
  <speed>0.0</speed>
  <fix>3d</fix>
</trkpt>
<trkpt lat="-27.2744392" lon="151.2900641">
  <ele>343.11</ele>
  <time>2026-09-01T20:03:19Z</time>
  <course>10.94</course>
  <speed>0.022360679774997897</speed>
  <fix>3d</fix>
</trkpt>
<trkpt lat="-27.274439" lon="151.290064">
  <ele>343.1</ele>
  <time>2026-09-01T20:03:19Z</time>
  <course>270.0</course>
  <speed>0.0</speed>
  <fix>3d</fix>
</trkpt>
<trkpt lat="-27.2744392" lon="151.2900641">
  <ele>343.1</ele>
  <time>2026-09-01T20:03:19Z</time>
  <course>10.94</course>
  <speed>0.022360679774997897</speed>
  <fix>3d</fix>
</trkpt>
<trkpt lat="-27.274439" lon="151.290064">
  <ele>343.1</ele>
  <time>2026-09-01T20:03:19Z</time>
  <course>270.0</course>
  <speed>0.0</speed>
  <fix>3d</fix>
</trkpt>
<trkpt lat="-27.2744392" lon="151.2900641">
  <ele>343.1</ele>
  <time>2026-09-01T20:03:19Z</time>
  <course>10.94</course>
  <speed>0.022360679774997897</speed>
  <fix>3d</fix>
</trkpt>
<trkpt lat="-27.274439" lon="151.290064">
  <ele>343.1</ele>
  <time>2026-09-01T20:03:19Z</time>
  <course>270.0</course>
  <speed>0.0</speed>
  <fix>3d</fix>
</trkpt>
<trkpt lat="-27.2744392" lon="151.2900641">
  <ele>343.1</ele>
  <time>2026-09-01T20:03:19Z</time>
  <course>10.94</course>
  <speed>0.022360679774997897</speed>
  <fix>3d</fix>
</trkpt>
<trkpt lat="-27.274439" lon="151.290064">
  <ele>343.1</ele>
  <time>2026-09-01T20:03:19Z</time>
  <course>270.0</course>
  <speed>0.0</speed>
  <fix>3d</fix>
</trkpt>
<trkpt lat="-27.2744392" lon="151.2900641">
  <ele>343.1</ele>
  <time>2026-09-01T20:03:19Z</time>
  <course>10.94</course>
  <speed>0.022360679774997897</speed>
  <fix>3d</fix>
</trkpt>
<trkpt lat="-27.274439" lon="151.290064">
  <ele>343.1</ele>
  <time>2026-09-01T20:03:19Z</time>
  <course>270.0</course>
  <speed>0.0</speed>
  <fix>3d</fix>
</trkpt>
<trkpt lat="-27.2744392" lon="151.2900641">
  <ele>343.09</ele>
  <time>2026-09-01T20:03:19Z</time>
  <course>10.94</course>
  <speed>0.022360679774997897</speed>
  <fix>3d</fix>
</trkpt>
<trkpt lat="-27.274439" lon="151.290064">
  <ele>343.1</ele>
  <time>2026-09-01T20:03:19Z</time>
  <course>270.0</course>
  <speed>0.0</speed>
  <fix>3d</fix>
</trkpt>
<trkpt lat="-27.2744392" lon="151.2900641">
  <ele>343.09</ele>
  <time>2026-09-01T20:03:19Z</time>
  <course>10.94</course>
  <speed>0.022360679774997897</speed>
  <fix>3d</fix>
</trkpt>
<trkpt lat="-27.274439" lon="151.290064">
  <ele>343.1</ele>
  <time>2026-09-01T20:03:19Z</time>
  <course>270.0</course>
  <speed>0.0</speed>
  <fix>3d</fix>
</trkpt>
<trkpt lat="-27.2744392" lon="151.2900641">
  <ele>343.09</ele>
  <time>2026-09-01T20:03:19Z</time>
  <course>10.94</course>
  <speed>0.022360679774997897</speed>
  <fix>3d</fix>
</trkpt>
<trkpt lat="-27.274439" lon="151.290064">
  <ele>343.1</ele>
  <time>2026-09-01T20:03:19Z</time>
  <course>270.0</course>
  <speed>0.0</speed>
  <fix>3d</fix>
</trkpt>
<trkpt lat="-27.2744392" lon="151.2900641">
  <ele>343.09</ele>
  <time>2026-09-01T20:03:19Z</time>
  <course>10.94</course>
  <speed>0.022360679774997897</speed>
  <fix>3d</fix>
</trkpt>
<trkpt lat="-27.274439" lon="151.290064">
  <ele>343.1</ele>
  <time>2026-09-01T20:03:19Z</time>
  <course>270.0</course>
  <speed>0.0</speed>
  <fix>3d</fix>
</trkpt>
<trkpt lat="-27.2744392" lon="151.2900641">
  <ele>343.09</ele>
  <time>2026-09-01T20:03:19Z</time>
  <course>10.94</course>
  <speed>0.022360679774997897</speed>
  <fix>3d</fix>
</trkpt>
<trkpt lat="-27.274439" lon="151.290064">
  <ele>343.1</ele>
  <time>2026-09-01T20:03:19Z</time>
  <course>270.0</course>
  <speed>0.0</speed>
  <fix>3d</fix>
</trkpt>
<trkpt lat="-27.2744392" lon="151.2900641">
  <ele>343.09</ele>
  <time>2026-09-01T20:03:19Z</time>
  <course>10.95</course>
  <speed>0.022360679774997897</speed>
  <fix>3d</fix>
</trkpt>
<trkpt lat="-27.274439" lon="151.290064">
  <ele>343.1</ele>
  <time>2026-09-01T20:03:19Z</time>
  <course>270.0</course>
  <speed>0.0</speed>
  <fix>3d</fix>
</trkpt>
<trkpt lat="-27.2744392" lon="151.2900641">
  <ele>343.09</ele>
  <time>2026-09-01T20:03:19Z</time>
  <course>10.95</course>
  <speed>0.022360679774997897</speed>
  <fix>3d</fix>
</trkpt>
<trkpt lat="-27.274439" lon="151.290064">
  <ele>343.1</ele>
  <time>2026-09-01T20:03:19Z</time>
  <course>270.0</course>
  <speed>0.0</speed>
  <fix>3d</fix>
</trkpt>
<trkpt lat="-27.2744392" lon="151.2900641">
  <ele>343.09</ele>
  <time>2026-09-01T20:03:19Z</time>
  <course>10.95</course>
  <speed>0.022360679774997897</speed>
  <fix>3d</fix>
</trkpt>
<trkpt lat="-27.274439" lon="151.290064">
  <ele>343.1</ele>
  <time>2026-09-01T20:03:19Z</time>
  <course>270.0</course>
  <speed>0.0</speed>
  <fix>3d</fix>
</trkpt>
<trkpt lat="-27.2744392" lon="151.2900641">
  <ele>343.08</ele>
  <time>2026-09-01T20:03:19Z</time>
  <course>10.95</course>
  <speed>0.022360679774997897</speed>
  <fix>3d</fix>
</trkpt>
<trkpt lat="-27.274439" lon="151.290064">
  <ele>343.1</ele>
  <time>2026-09-01T20:03:19Z</time>
  <course>270.0</course>
  <speed>0.0</speed>
  <fix>3d</fix>
</trkpt>
<trkpt lat="-27.2744392" lon="151.2900641">
  <ele>343.08</ele>
  <time>2026-09-01T20:03:19Z</time>
  <course>10.95</course>
  <speed>0.022360679774997897</speed>
  <fix>3d</fix>
</trkpt>
<trkpt lat="-27.274439" lon="151.290064">
  <ele>343.1</ele>
  <time>2026-09-01T20:03:19Z</time>
  <course>270.0</course>
  <speed>0.0</speed>
  <fix>3d</fix>
</trkpt>
<trkpt lat="-27.2744392" lon="151.2900641">
  <ele>343.08</ele>
  <time>2026-09-01T20:03:19Z</time>
  <course>10.95</course>
  <speed>0.022360679774997897</speed>
  <fix>3d</fix>
</trkpt>
<trkpt lat="-27.274439" lon="151.290064">
  <ele>343.1</ele>
  <time>2026-09-01T20:03:19Z</time>
  <course>270.0</course>
  <speed>0.0</speed>
  <fix>3d</fix>
</trkpt>
<trkpt lat="-27.2744392" lon="151.2900641">
  <ele>343.09</ele>
  <time>2026-09-01T20:03:19Z</time>
  <course>10.95</course>
  <speed>0.022360679774997897</speed>
  <fix>3d</fix>
</trkpt>
<trkpt lat="-27.274439" lon="151.290064">
  <ele>343.1</ele>
  <time>2026-09-01T20:03:19Z</time>
  <course>270.0</course>
  <speed>0.0</speed>
  <fix>3d</fix>
</trkpt>
<trkpt lat="-27.2744392" lon="151.2900641">
  <ele>343.09</ele>
  <time>2026-09-01T20:03:19Z</time>
  <course>10.95</course>
  <speed>0.022360679774997897</speed>
  <fix>3d</fix>
</trkpt>
<trkpt lat="-27.274439" lon="151.290064">
  <ele>343.1</ele>
  <time>2026-09-01T20:03:19Z</time>
  <course>270.0</course>
  <speed>0.0</speed>
  <fix>3d</fix>
</trkpt>
<trkpt lat="-27.2744392" lon="151.2900641">
  <ele>343.09</ele>
  <time>2026-09-01T20:03:19Z</time>
  <course>10.95</course>
  <speed>0.022360679774997897</speed>
  <fix>3d</fix>
</trkpt>
<trkpt lat="-27.274439" lon="151.290064">
  <ele>343.1</ele>
  <time>2026-09-01T20:03:19Z</time>
  <course>270.0</course>
  <speed>0.0</speed>
  <fix>3d</fix>
</trkpt>
<trkpt lat="-27.2744392" lon="151.2900641">
  <ele>343.09</ele>
  <time>2026-09-01T20:03:19Z</time>
  <course>10.95</course>
  <speed>0.022360679774997897</speed>
  <fix>3d</fix>
</trkpt>
<trkpt lat="-27.274439" lon="151.290064">
  <ele>343.1</ele>
  <time>2026-09-01T20:03:19Z</time>
  <course>270.0</course>
  <speed>0.0</speed>
  <fix>3d</fix>
</trkpt>
<trkpt lat="-27.2744392" lon="151.2900641">
  <ele>343.09</ele>
  <time>2026-09-01T20:03:19Z</time>
  <course>10.95</course>
  <speed>0.022360679774997897</speed>
  <fix>3d</fix>
</trkpt>
<trkpt lat="-27.274439" lon="151.290064">
  <ele>343.1</ele>
  <time>2026-09-01T20:03:19Z</time>
  <course>270.0</course>
  <speed>0.0</speed>
  <fix>3d</fix>
</trkpt>
<trkpt lat="-27.2744392" lon="151.2900641">
  <ele>343.09</ele>
  <time>2026-09-01T20:03:19Z</time>
  <course>10.95</course>
  <speed>0.022360679774997897</speed>
  <fix>3d</fix>
</trkpt>
<trkpt lat="-27.274439" lon="151.290064">
  <ele>343.1</ele>
  <time>2026-09-01T20:03:19Z</time>
  <course>270.0</course>
  <speed>0.0</speed>
  <fix>3d</fix>
</trkpt>
<trkpt lat="-27.2744392" lon="151.2900641">
  <ele>343.09</ele>
  <time>2026-09-01T20:03:19Z</time>
  <course>10.96</course>
  <speed>0.022360679774997897</speed>
  <fix>3d</fix>
</trkpt>
<trkpt lat="-27.274439" lon="151.290064">
  <ele>343.1</ele>
  <time>2026-09-01T20:03:19Z</time>
  <course>270.0</course>
  <speed>0.0</speed>
  <fix>3d</fix>
</trkpt>
<trkpt lat="-27.2744392" lon="151.2900641">
  <ele>343.09</ele>
  <time>2026-09-01T20:03:19Z</time>
  <course>10.96</course>
  <speed>0.022360679774997897</speed>
  <fix>3d</fix>
</trkpt>
<trkpt lat="-27.274439" lon="151.290064">
  <ele>343.1</ele>
  <time>2026-09-01T20:03:19Z</time>
  <course>270.0</course>
  <speed>0.0</speed>
  <fix>3d</fix>
</trkpt>
<trkpt lat="-27.2744392" lon="151.2900641">
  <ele>343.09</ele>
  <time>2026-09-01T20:03:19Z</time>
  <course>10.96</course>
  <speed>0.022360679774997897</speed>
  <fix>3d</fix>
</trkpt>
<trkpt lat="-27.274439" lon="151.290064">
  <ele>343.1</ele>
  <time>2026-09-01T20:03:19Z</time>
  <course>270.0</course>
  <speed>0.0</speed>
  <fix>3d</fix>
</trkpt>
<trkpt lat="-27.2744392" lon="151.2900641">
  <ele>343.09</ele>
  <time>2026-09-01T20:03:19Z</time>
  <course>10.96</course>
  <speed>0.022360679774997897</speed>
  <fix>3d</fix>
</trkpt>
<trkpt lat="-27.274439" lon="151.290064">
  <ele>343.1</ele>
  <time>2026-09-01T20:03:19Z</time>
  <course>270.0</course>
  <speed>0.0</speed>
  <fix>3d</fix>
</trkpt>
<trkpt lat="-27.2744392" lon="151.2900641">
  <ele>343.09</ele>
  <time>2026-09-01T20:03:19Z</time>
  <course>10.96</course>
  <speed>0.022360679774997897</speed>
  <fix>3d</fix>
</trkpt>
<trkpt lat="-27.274439" lon="151.290064">
  <ele>343.1</ele>
  <time>2026-09-01T20:03:19Z</time>
  <course>270.0</course>
  <speed>0.0</speed>
  <fix>3d</fix>
</trkpt>
<trkpt lat="-27.2744392" lon="151.2900641">
  <ele>343.09</ele>
  <time>2026-09-01T20:03:19Z</time>
  <course>10.96</course>
  <speed>0.022360679774997897</speed>
  <fix>3d</fix>
</trkpt>
<trkpt lat="-27.274439" lon="151.290064">
  <ele>343.1</ele>
  <time>2026-09-01T20:03:19Z</time>
  <course>270.0</course>
  <speed>0.0</speed>
  <fix>3d</fix>
</trkpt>
<trkpt lat="-27.2744392" lon="151.2900641">
  <ele>343.1</ele>
  <time>2026-09-01T20:03:19Z</time>
  <course>10.96</course>
  <speed>0.022360679774997897</speed>
  <fix>3d</fix>
</trkpt>
<trkpt lat="-27.274439" lon="151.290064">
  <ele>343.1</ele>
  <time>2026-09-01T20:03:19Z</time>
  <course>270.0</course>
  <speed>0.0</speed>
  <fix>3d</fix>
</trkpt>
<trkpt lat="-27.2744392" lon="151.2900641">
  <ele>343.1</ele>
  <time>2026-09-01T20:03:19Z</time>
  <course>10.96</course>
  <speed>0.022360679774997897</speed>
  <fix>3d</fix>
</trkpt>
<trkpt lat="-27.274439" lon="151.290064">
  <ele>343.1</ele>
  <time>2026-09-01T20:03:19Z</time>
  <course>270.0</course>
  <speed>0.0</speed>
  <fix>3d</fix>
</trkpt>
<trkpt lat="-27.2744392" lon="151.2900641">
  <ele>343.1</ele>
  <time>2026-09-01T20:03:19Z</time>
  <course>10.96</course>
  <speed>0.022360679774997897</speed>
  <fix>3d</fix>
</trkpt>
<trkpt lat="-27.274439" lon="151.290064">
  <ele>343.1</ele>
  <time>2026-09-01T20:03:19Z</time>
  <course>270.0</course>
  <speed>0.0</speed>
  <fix>3d</fix>
</trkpt>
<trkpt lat="-27.2744392" lon="151.2900641">
  <ele>343.1</ele>
  <time>2026-09-01T20:03:19Z</time>
  <course>10.96</course>
  <speed>0.022360679774997897</speed>
  <fix>3d</fix>
</trkpt>
<trkpt lat="-27.274439" lon="151.290064">
  <ele>343.1</ele>
  <time>2026-09-01T20:03:19Z</time>
  <course>270.0</course>
  <speed>0.0</speed>
  <fix>3d</fix>
</trkpt>
<trkpt lat="-27.2744392" lon="151.2900641">
  <ele>343.1</ele>
  <time>2026-09-01T20:03:19Z</time>
  <course>10.96</course>
  <speed>0.022360679774997897</speed>
  <fix>3d</fix>
</trkpt>
<trkpt lat="-27.274439" lon="151.290064">
  <ele>343.1</ele>
  <time>2026-09-01T20:03:19Z</time>
  <course>270.0</course>
  <speed>0.0</speed>
  <fix>3d</fix>
</trkpt>
<trkpt lat="-27.2744392" lon="151.2900641">
  <ele>343.1</ele>
  <time>2026-09-01T20:03:19Z</time>
  <course>10.97</course>
  <speed>0.022360679774997897</speed>
  <fix>3d</fix>
</trkpt>
<trkpt lat="-27.274439" lon="151.290064">
  <ele>343.1</ele>
  <time>2026-09-01T20:03:19Z</time>
  <course>270.0</course>
  <speed>0.0</speed>
  <fix>3d</fix>
</trkpt>
<trkpt lat="-27.2744392" lon="151.2900641">
  <ele>343.1</ele>
  <time>2026-09-01T20:03:19Z</time>
  <course>10.97</course>
  <speed>0.022360679774997897</speed>
  <fix>3d</fix>
</trkpt>
<trkpt lat="-27.274439" lon="151.290064">
  <ele>343.1</ele>
  <time>2026-09-01T20:03:19Z</time>
  <course>270.0</course>
  <speed>0.0</speed>
  <fix>3d</fix>
</trkpt>
<trkpt lat="-27.2744392" lon="151.2900641">
  <ele>343.09</ele>
  <time>2026-09-01T20:03:19Z</time>
  <course>10.97</course>
  <speed>0.022360679774997897</speed>
  <fix>3d</fix>
</trkpt>
<trkpt lat="-27.274439" lon="151.290064">
  <ele>343.1</ele>
  <time>2026-09-01T20:03:19Z</time>
  <course>270.0</course>
  <speed>0.0</speed>
  <fix>3d</fix>
</trkpt>
<trkpt lat="-27.2744392" lon="151.2900641">
  <ele>343.09</ele>
  <time>2026-09-01T20:03:19Z</time>
  <course>10.97</course>
  <speed>0.022360679774997897</speed>
  <fix>3d</fix>
</trkpt>
<trkpt lat="-27.274439" lon="151.290064">
  <ele>343.1</ele>
  <time>2026-09-01T20:03:19Z</time>
  <course>270.0</course>
  <speed>0.0</speed>
  <fix>3d</fix>
</trkpt>
<trkpt lat="-27.2744392" lon="151.2900641">
  <ele>343.09</ele>
  <time>2026-09-01T20:03:19Z</time>
  <course>10.97</course>
  <speed>0.022360679774997897</speed>
  <fix>3d</fix>
</trkpt>
<trkpt lat="-27.274439" lon="151.290064">
  <ele>343.1</ele>
  <time>2026-09-01T20:03:19Z</time>
  <course>270.0</course>
  <speed>0.0</speed>
  <fix>3d</fix>
</trkpt>
<trkpt lat="-27.2744392" lon="151.2900641">
  <ele>343.09</ele>
  <time>2026-09-01T20:03:19Z</time>
  <course>10.97</course>
  <speed>0.022360679774997897</speed>
  <fix>3d</fix>
</trkpt>
<trkpt lat="-27.274439" lon="151.290064">
  <ele>343.1</ele>
  <time>2026-09-01T20:03:19Z</time>
  <course>270.0</course>
  <speed>0.0</speed>
  <fix>3d</fix>
</trkpt>
<trkpt lat="-27.2744392" lon="151.2900641">
  <ele>343.1</ele>
  <time>2026-09-01T20:03:19Z</time>
  <course>10.97</course>
  <speed>0.022360679774997897</speed>
  <fix>3d</fix>
</trkpt>
<trkpt lat="-27.274439" lon="151.290064">
  <ele>343.1</ele>
  <time>2026-09-01T20:03:19Z</time>
  <course>270.0</course>
  <speed>0.0</speed>
  <fix>3d</fix>
</trkpt>
<trkpt lat="-27.2744392" lon="151.2900641">
  <ele>343.09</ele>
  <time>2026-09-01T20:03:19Z</time>
  <course>10.97</course>
  <speed>0.022360679774997897</speed>
  <fix>3d</fix>
</trkpt>
<trkpt lat="-27.274439" lon="151.290064">
  <ele>343.1</ele>
  <time>2026-09-01T20:03:19Z</time>
  <course>270.0</course>
  <speed>0.0</speed>
  <fix>3d</fix>
</trkpt>
<trkpt lat="-27.2744392" lon="151.2900641">
  <ele>343.09</ele>
  <time>2026-09-01T20:03:19Z</time>
  <course>10.97</course>
  <speed>0.022360679774997897</speed>
  <fix>3d</fix>
</trkpt>
<trkpt lat="-27.274439" lon="151.290064">
  <ele>343.1</ele>
  <time>2026-09-01T20:03:19Z</time>
  <course>270.0</course>
  <speed>0.0</speed>
  <fix>3d</fix>
</trkpt>
<trkpt lat="-27.2744392" lon="151.2900641">
  <ele>343.09</ele>
  <time>2026-09-01T20:03:19Z</time>
  <course>10.97</course>
  <speed>0.022360679774997897</speed>
  <fix>3d</fix>
</trkpt>
<trkpt lat="-27.274439" lon="151.290064">
  <ele>343.1</ele>
  <time>2026-09-01T20:03:19Z</time>
  <course>270.0</course>
  <speed>0.0</speed>
  <fix>3d</fix>
</trkpt>
<trkpt lat="-27.2744392" lon="151.2900641">
  <ele>343.09</ele>
  <time>2026-09-01T20:03:19Z</time>
  <course>10.97</course>
  <speed>0.022360679774997897</speed>
  <fix>3d</fix>
</trkpt>
<trkpt lat="-27.274439" lon="151.290064">
  <ele>343.1</ele>
  <time>2026-09-01T20:03:19Z</time>
  <course>270.0</course>
  <speed>0.0</speed>
  <fix>3d</fix>
</trkpt>
<trkpt lat="-27.2744392" lon="151.2900641">
  <ele>343.09</ele>
  <time>2026-09-01T20:03:19Z</time>
  <course>10.97</course>
  <speed>0.022360679774997897</speed>
  <fix>3d</fix>
</trkpt>
<trkpt lat="-27.274439" lon="151.290064">
  <ele>343.1</ele>
  <time>2026-09-01T20:03:19Z</time>
  <course>270.0</course>
  <speed>0.0</speed>
  <fix>3d</fix>
</trkpt>
<trkpt lat="-27.2744392" lon="151.2900641">
  <ele>343.09</ele>
  <time>2026-09-01T20:03:19Z</time>
  <course>10.98</course>
  <speed>0.022360679774997897</speed>
  <fix>3d</fix>
</trkpt>
<trkpt lat="-27.274439" lon="151.290064">
  <ele>343.1</ele>
  <time>2026-09-01T20:03:19Z</time>
  <course>270.0</course>
  <speed>0.0</speed>
  <fix>3d</fix>
</trkpt>
<trkpt lat="-27.2744392" lon="151.2900641">
  <ele>343.09</ele>
  <time>2026-09-01T20:03:19Z</time>
  <course>10.98</course>
  <speed>0.022360679774997897</speed>
  <fix>3d</fix>
</trkpt>
<trkpt lat="-27.274439" lon="151.290064">
  <ele>343.1</ele>
  <time>2026-09-01T20:03:19Z</time>
  <course>270.0</course>
  <speed>0.0</speed>
  <fix>3d</fix>
</trkpt>
<trkpt lat="-27.2744392" lon="151.2900641">
  <ele>343.09</ele>
  <time>2026-09-01T20:03:19Z</time>
  <course>10.98</course>
  <speed>0.022360679774997897</speed>
  <fix>3d</fix>
</trkpt>
<trkpt lat="-27.274439" lon="151.290064">
  <ele>343.1</ele>
  <time>2026-09-01T20:03:19Z</time>
  <course>270.0</course>
  <speed>0.0</speed>
  <fix>3d</fix>
</trkpt>
<trkpt lat="-27.2744392" lon="151.2900641">
  <ele>343.08</ele>
  <time>2026-09-01T20:03:19Z</time>
  <course>10.98</course>
  <speed>0.022360679774997897</speed>
  <fix>3d</fix>
</trkpt>
<trkpt lat="-27.274439" lon="151.290064">
  <ele>343.1</ele>
  <time>2026-09-01T20:03:19Z</time>
  <course>270.0</course>
  <speed>0.0</speed>
  <fix>3d</fix>
</trkpt>
<trkpt lat="-27.2744392" lon="151.2900641">
  <ele>343.08</ele>
  <time>2026-09-01T20:03:19Z</time>
  <course>10.98</course>
  <speed>0.022360679774997897</speed>
  <fix>3d</fix>
</trkpt>
<trkpt lat="-27.274439" lon="151.290064">
  <ele>343.1</ele>
  <time>2026-09-01T20:03:19Z</time>
  <course>270.0</course>
  <speed>0.0</speed>
  <fix>3d</fix>
</trkpt>
<trkpt lat="-27.2744392" lon="151.2900641">
  <ele>343.08</ele>
  <time>2026-09-01T20:03:19Z</time>
  <course>10.98</course>
  <speed>0.022360679774997897</speed>
  <fix>3d</fix>
</trkpt>
<trkpt lat="-27.274439" lon="151.290064">
  <ele>343.1</ele>
  <time>2026-09-01T20:03:19Z</time>
  <course>270.0</course>
  <speed>0.0</speed>
  <fix>3d</fix>
</trkpt>
<trkpt lat="-27.2744392" lon="151.2900641">
  <ele>343.08</ele>
  <time>2026-09-01T20:03:19Z</time>
  <course>10.98</course>
  <speed>0.022360679774997897</speed>
  <fix>3d</fix>
</trkpt>
<trkpt lat="-27.274439" lon="151.290064">
  <ele>343.1</ele>
  <time>2026-09-01T20:03:19Z</time>
  <course>270.0</course>
  <speed>0.0</speed>
  <fix>3d</fix>
</trkpt>
<trkpt lat="-27.2744392" lon="151.2900641">
  <ele>343.08</ele>
  <time>2026-09-01T20:03:19Z</time>
  <course>10.98</course>
  <speed>0.022360679774997897</speed>
  <fix>3d</fix>
</trkpt>
<trkpt lat="-27.274439" lon="151.290064">
  <ele>343.1</ele>
  <time>2026-09-01T20:03:19Z</time>
  <course>270.0</course>
  <speed>0.0</speed>
  <fix>3d</fix>
</trkpt>
<trkpt lat="-27.2744392" lon="151.2900641">
  <ele>343.08</ele>
  <time>2026-09-01T20:03:19Z</time>
  <course>10.98</course>
  <speed>0.022360679774997897</speed>
  <fix>3d</fix>
</trkpt>
<trkpt lat="-27.274439" lon="151.290064">
  <ele>343.1</ele>
  <time>2026-09-01T20:03:19Z</time>
  <course>270.0</course>
  <speed>0.0</speed>
  <fix>3d</fix>
</trkpt>
<trkpt lat="-27.2744392" lon="151.2900641">
  <ele>343.07</ele>
  <time>2026-09-01T20:03:19Z</time>
  <course>10.98</course>
  <speed>0.022360679774997897</speed>
  <fix>3d</fix>
</trkpt>
<trkpt lat="-27.274439" lon="151.290064">
  <ele>343.1</ele>
  <time>2026-09-01T20:03:19Z</time>
  <course>270.0</course>
  <speed>0.0</speed>
  <fix>3d</fix>
</trkpt>
<trkpt lat="-27.2744392" lon="151.2900641">
  <ele>343.07</ele>
  <time>2026-09-01T20:03:19Z</time>
  <course>10.98</course>
  <speed>0.022360679774997897</speed>
  <fix>3d</fix>
</trkpt>
<trkpt lat="-27.274439" lon="151.290064">
  <ele>343.1</ele>
  <time>2026-09-01T20:03:19Z</time>
  <course>270.0</course>
  <speed>0.0</speed>
  <fix>3d</fix>
</trkpt>
<trkpt lat="-27.2744392" lon="151.2900641">
  <ele>343.07</ele>
  <time>2026-09-01T20:03:19Z</time>
  <course>10.99</course>
  <speed>0.022360679774997897</speed>
  <fix>3d</fix>
</trkpt>
<trkpt lat="-27.274439" lon="151.290064">
  <ele>343.1</ele>
  <time>2026-09-01T20:03:19Z</time>
  <course>270.0</course>
  <speed>0.0</speed>
  <fix>3d</fix>
</trkpt>
<trkpt lat="-27.2744392" lon="151.2900641">
  <ele>343.07</ele>
  <time>2026-09-01T20:03:19Z</time>
  <course>10.99</course>
  <speed>0.022360679774997897</speed>
  <fix>3d</fix>
</trkpt>
<trkpt lat="-27.274439" lon="151.290064">
  <ele>343.1</ele>
  <time>2026-09-01T20:03:19Z</time>
  <course>270.0</course>
  <speed>0.0</speed>
  <fix>3d</fix>
</trkpt>
<trkpt lat="-27.2744392" lon="151.2900641">
  <ele>343.07</ele>
  <time>2026-09-01T20:03:19Z</time>
  <course>10.99</course>
  <speed>0.022360679774997897</speed>
  <fix>3d</fix>
</trkpt>
<trkpt lat="-27.274439" lon="151.290064">
  <ele>343.1</ele>
  <time>2026-09-01T20:03:19Z</time>
  <course>270.0</course>
  <speed>0.0</speed>
  <fix>3d</fix>
</trkpt>
<trkpt lat="-27.2744392" lon="151.2900641">
  <ele>343.07</ele>
  <time>2026-09-01T20:03:19Z</time>
  <course>10.99</course>
  <speed>0.022360679774997897</speed>
  <fix>3d</fix>
</trkpt>
<trkpt lat="-27.274439" lon="151.290064">
  <ele>343.1</ele>
  <time>2026-09-01T20:03:19Z</time>
  <course>270.0</course>
  <speed>0.0</speed>
  <fix>3d</fix>
</trkpt>
<trkpt lat="-27.2744392" lon="151.2900641">
  <ele>343.07</ele>
  <time>2026-09-01T20:03:19Z</time>
  <course>10.99</course>
  <speed>0.022360679774997897</speed>
  <fix>3d</fix>
</trkpt>
<trkpt lat="-27.274439" lon="151.290064">
  <ele>343.1</ele>
  <time>2026-09-01T20:03:19Z</time>
  <course>270.0</course>
  <speed>0.0</speed>
  <fix>3d</fix>
</trkpt>
<trkpt lat="-27.2744392" lon="151.2900641">
  <ele>343.07</ele>
  <time>2026-09-01T20:03:19Z</time>
  <course>10.99</course>
  <speed>0.022360679774997897</speed>
  <fix>3d</fix>
</trkpt>
<trkpt lat="-27.274439" lon="151.290064">
  <ele>343.1</ele>
  <time>2026-09-01T20:03:19Z</time>
  <course>270.0</course>
  <speed>0.0</speed>
  <fix>3d</fix>
</trkpt>
<trkpt lat="-27.2744392" lon="151.2900641">
  <ele>343.07</ele>
  <time>2026-09-01T20:03:19Z</time>
  <course>10.99</course>
  <speed>0.022360679774997897</speed>
  <fix>3d</fix>
</trkpt>
<trkpt lat="-27.274439" lon="151.290064">
  <ele>343.1</ele>
  <time>2026-09-01T20:03:19Z</time>
  <course>270.0</course>
  <speed>0.0</speed>
  <fix>3d</fix>
</trkpt>
<trkpt lat="-27.2744392" lon="151.2900641">
  <ele>343.07</ele>
  <time>2026-09-01T20:03:19Z</time>
  <course>10.99</course>
  <speed>0.022360679774997897</speed>
  <fix>3d</fix>
</trkpt>
<trkpt lat="-27.274439" lon="151.290064">
  <ele>343.1</ele>
  <time>2026-09-01T20:03:19Z</time>
  <course>270.0</course>
  <speed>0.0</speed>
  <fix>3d</fix>
</trkpt>
<trkpt lat="-27.2744392" lon="151.2900641">
  <ele>343.06</ele>
  <time>2026-09-01T20:03:19Z</time>
  <course>10.99</course>
  <speed>0.022360679774997897</speed>
  <fix>3d</fix>
</trkpt>
<trkpt lat="-27.274439" lon="151.290064">
  <ele>343.1</ele>
  <time>2026-09-01T20:03:19Z</time>
  <course>270.0</course>
  <speed>0.0</speed>
  <fix>3d</fix>
</trkpt>
<trkpt lat="-27.2744392" lon="151.2900641">
  <ele>343.06</ele>
  <time>2026-09-01T20:03:19Z</time>
  <course>10.99</course>
  <speed>0.022360679774997897</speed>
  <fix>3d</fix>
</trkpt>
<trkpt lat="-27.274439" lon="151.290064">
  <ele>343.1</ele>
  <time>2026-09-01T20:03:19Z</time>
  <course>270.0</course>
  <speed>0.0</speed>
  <fix>3d</fix>
</trkpt>
<trkpt lat="-27.2744392" lon="151.2900641">
  <ele>343.06</ele>
  <time>2026-09-01T20:03:19Z</time>
  <course>10.99</course>
  <speed>0.022360679774997897</speed>
  <fix>3d</fix>
</trkpt>
<trkpt lat="-27.274439" lon="151.290064">
  <ele>343.1</ele>
  <time>2026-09-01T20:03:19Z</time>
  <course>270.0</course>
  <speed>0.0</speed>
  <fix>3d</fix>
</trkpt>
<trkpt lat="-27.2744392" lon="151.2900641">
  <ele>343.06</ele>
  <time>2026-09-01T20:03:19Z</time>
  <course>11.0</course>
  <speed>0.022360679774997897</speed>
  <fix>3d</fix>
</trkpt>
<trkpt lat="-27.274439" lon="151.290064">
  <ele>343.1</ele>
  <time>2026-09-01T20:03:19Z</time>
  <course>270.0</course>
  <speed>0.0</speed>
  <fix>3d</fix>
</trkpt>
<trkpt lat="-27.2744392" lon="151.2900641">
  <ele>343.06</ele>
  <time>2026-09-01T20:03:19Z</time>
  <course>11.0</course>
  <speed>0.022360679774997897</speed>
  <fix>3d</fix>
</trkpt>
<trkpt lat="-27.274439" lon="151.290064">
  <ele>343.1</ele>
  <time>2026-09-01T20:03:19Z</time>
  <course>270.0</course>
  <speed>0.0</speed>
  <fix>3d</fix>
</trkpt>
<trkpt lat="-27.2744392" lon="151.2900641">
  <ele>343.06</ele>
  <time>2026-09-01T20:03:19Z</time>
  <course>11.0</course>
  <speed>0.022360679774997897</speed>
  <fix>3d</fix>
</trkpt>
<trkpt lat="-27.274439" lon="151.290064">
  <ele>343.1</ele>
  <time>2026-09-01T20:03:19Z</time>
  <course>270.0</course>
  <speed>0.0</speed>
  <fix>3d</fix>
</trkpt>
<trkpt lat="-27.2744392" lon="151.2900641">
  <ele>343.06</ele>
  <time>2026-09-01T20:03:19Z</time>
  <course>11.0</course>
  <speed>0.022360679774997897</speed>
  <fix>3d</fix>
</trkpt>
<trkpt lat="-27.274439" lon="151.290064">
  <ele>343.1</ele>
  <time>2026-09-01T20:03:19Z</time>
  <course>270.0</course>
  <speed>0.0</speed>
  <fix>3d</fix>
</trkpt>
<trkpt lat="-27.2744392" lon="151.2900641">
  <ele>343.05</ele>
  <time>2026-09-01T20:03:19Z</time>
  <course>11.0</course>
  <speed>0.022360679774997897</speed>
  <fix>3d</fix>
</trkpt>
<trkpt lat="-27.274439" lon="151.290064">
  <ele>343.1</ele>
  <time>2026-09-01T20:03:19Z</time>
  <course>270.0</course>
  <speed>0.0</speed>
  <fix>3d</fix>
</trkpt>
<trkpt lat="-27.2744392" lon="151.2900641">
  <ele>343.05</ele>
  <time>2026-09-01T20:03:19Z</time>
  <course>11.0</course>
  <speed>0.022360679774997897</speed>
  <fix>3d</fix>
</trkpt>
<trkpt lat="-27.274439" lon="151.290064">
  <ele>343.1</ele>
  <time>2026-09-01T20:03:19Z</time>
  <course>270.0</course>
  <speed>0.0</speed>
  <fix>3d</fix>
</trkpt>
<trkpt lat="-27.2744392" lon="151.2900641">
  <ele>343.05</ele>
  <time>2026-09-01T20:03:19Z</time>
  <course>11.0</course>
  <speed>0.022360679774997897</speed>
  <fix>3d</fix>
</trkpt>
<trkpt lat="-27.274439" lon="151.290064">
  <ele>343.1</ele>
  <time>2026-09-01T20:03:19Z</time>
  <course>270.0</course>
  <speed>0.0</speed>
  <fix>3d</fix>
</trkpt>
<trkpt lat="-27.2744392" lon="151.2900641">
  <ele>343.05</ele>
  <time>2026-09-01T20:03:19Z</time>
  <course>11.0</course>
  <speed>0.022360679774997897</speed>
  <fix>3d</fix>
</trkpt>
<trkpt lat="-27.274439" lon="151.290064">
  <ele>343.1</ele>
  <time>2026-09-01T20:03:19Z</time>
  <course>270.0</course>
  <speed>0.0</speed>
  <fix>3d</fix>
</trkpt>
<trkpt lat="-27.2744392" lon="151.2900641">
  <ele>343.05</ele>
  <time>2026-09-01T20:03:19Z</time>
  <course>11.0</course>
  <speed>0.022360679774997897</speed>
  <fix>3d</fix>
</trkpt>
<trkpt lat="-27.274439" lon="151.290064">
  <ele>343.1</ele>
  <time>2026-09-01T20:03:19Z</time>
  <course>270.0</course>
  <speed>0.0</speed>
  <fix>3d</fix>
</trkpt>
<trkpt lat="-27.2744392" lon="151.2900641">
  <ele>343.05</ele>
  <time>2026-09-01T20:03:19Z</time>
  <course>11.0</course>
  <speed>0.022360679774997897</speed>
  <fix>3d</fix>
</trkpt>
<trkpt lat="-27.274439" lon="151.290064">
  <ele>343.1</ele>
  <time>2026-09-01T20:03:19Z</time>
  <course>270.0</course>
  <speed>0.0</speed>
  <fix>3d</fix>
</trkpt>
<trkpt lat="-27.2744392" lon="151.2900641">
  <ele>343.05</ele>
  <time>2026-09-01T20:03:19Z</time>
  <course>11.0</course>
  <speed>0.022360679774997897</speed>
  <fix>3d</fix>
</trkpt>
<trkpt lat="-27.274439" lon="151.290064">
  <ele>343.1</ele>
  <time>2026-09-01T20:03:19Z</time>
  <course>270.0</course>
  <speed>0.0</speed>
  <fix>3d</fix>
</trkpt>
<trkpt lat="-27.2744392" lon="151.2900641">
  <ele>343.05</ele>
  <time>2026-09-01T20:03:19Z</time>
  <course>11.01</course>
  <speed>0.022360679774997897</speed>
  <fix>3d</fix>
</trkpt>
<trkpt lat="-27.274439" lon="151.290064">
  <ele>343.1</ele>
  <time>2026-09-01T20:03:19Z</time>
  <course>270.0</course>
  <speed>0.0</speed>
  <fix>3d</fix>
</trkpt>
<trkpt lat="-27.2744392" lon="151.2900641">
  <ele>343.04</ele>
  <time>2026-09-01T20:03:19Z</time>
  <course>11.01</course>
  <speed>0.022360679774997897</speed>
  <fix>3d</fix>
</trkpt>
<trkpt lat="-27.274439" lon="151.290064">
  <ele>343.1</ele>
  <time>2026-09-01T20:03:19Z</time>
  <course>270.0</course>
  <speed>0.0</speed>
  <fix>3d</fix>
</trkpt>
<trkpt lat="-27.2744392" lon="151.2900641">
  <ele>343.04</ele>
  <time>2026-09-01T20:03:19Z</time>
  <course>11.01</course>
  <speed>0.022360679774997897</speed>
  <fix>3d</fix>
</trkpt>
<trkpt lat="-27.274439" lon="151.290064">
  <ele>343.1</ele>
  <time>2026-09-01T20:03:19Z</time>
  <course>270.0</course>
  <speed>0.0</speed>
  <fix>3d</fix>
</trkpt>
<trkpt lat="-27.2744392" lon="151.2900641">
  <ele>343.04</ele>
  <time>2026-09-01T20:03:19Z</time>
  <course>11.01</course>
  <speed>0.022360679774997897</speed>
  <fix>3d</fix>
</trkpt>
<trkpt lat="-27.274439" lon="151.290064">
  <ele>343.1</ele>
  <time>2026-09-01T20:03:19Z</time>
  <course>270.0</course>
  <speed>0.0</speed>
  <fix>3d</fix>
</trkpt>
<trkpt lat="-27.2744392" lon="151.2900641">
  <ele>343.04</ele>
  <time>2026-09-01T20:03:19Z</time>
  <course>11.01</course>
  <speed>0.022360679774997897</speed>
  <fix>3d</fix>
</trkpt>
<trkpt lat="-27.274439" lon="151.290064">
  <ele>343.1</ele>
  <time>2026-09-01T20:03:19Z</time>
  <course>270.0</course>
  <speed>0.0</speed>
  <fix>3d</fix>
</trkpt>
<trkpt lat="-27.2744392" lon="151.2900641">
  <ele>343.04</ele>
  <time>2026-09-01T20:03:19Z</time>
  <course>11.01</course>
  <speed>0.022360679774997897</speed>
  <fix>3d</fix>
</trkpt>
<trkpt lat="-27.274439" lon="151.290064">
  <ele>343.1</ele>
  <time>2026-09-01T20:03:19Z</time>
  <course>270.0</course>
  <speed>0.0</speed>
  <fix>3d</fix>
</trkpt>
<trkpt lat="-27.2744392" lon="151.2900641">
  <ele>343.04</ele>
  <time>2026-09-01T20:03:19Z</time>
  <course>11.01</course>
  <speed>0.022360679774997897</speed>
  <fix>3d</fix>
</trkpt>
<trkpt lat="-27.274439" lon="151.290064">
  <ele>343.1</ele>
  <time>2026-09-01T20:03:19Z</time>
  <course>270.0</course>
  <speed>0.0</speed>
  <fix>3d</fix>
</trkpt>
<trkpt lat="-27.2744392" lon="151.2900641">
  <ele>343.04</ele>
  <time>2026-09-01T20:03:19Z</time>
  <course>11.01</course>
  <speed>0.022360679774997897</speed>
  <fix>3d</fix>
</trkpt>
<trkpt lat="-27.274439" lon="151.290064">
  <ele>343.1</ele>
  <time>2026-09-01T20:03:19Z</time>
  <course>270.0</course>
  <speed>0.0</speed>
  <fix>3d</fix>
</trkpt>
<trkpt lat="-27.2744392" lon="151.2900641">
  <ele>343.04</ele>
  <time>2026-09-01T20:03:19Z</time>
  <course>11.01</course>
  <speed>0.022360679774997897</speed>
  <fix>3d</fix>
</trkpt>
<trkpt lat="-27.274439" lon="151.290064">
  <ele>343.1</ele>
  <time>2026-09-01T20:03:19Z</time>
  <course>270.0</course>
  <speed>0.0</speed>
  <fix>3d</fix>
</trkpt>
<trkpt lat="-27.2744392" lon="151.2900641">
  <ele>343.04</ele>
  <time>2026-09-01T20:03:19Z</time>
  <course>11.02</course>
  <speed>0.022360679774997897</speed>
  <fix>3d</fix>
</trkpt>
<trkpt lat="-27.274439" lon="151.290064">
  <ele>343.1</ele>
  <time>2026-09-01T20:03:19Z</time>
  <course>270.0</course>
  <speed>0.0</speed>
  <fix>3d</fix>
</trkpt>
<trkpt lat="-27.2744392" lon="151.2900641">
  <ele>343.04</ele>
  <time>2026-09-01T20:03:19Z</time>
  <course>11.02</course>
  <speed>0.022360679774997897</speed>
  <fix>3d</fix>
</trkpt>
<trkpt lat="-27.274439" lon="151.290064">
  <ele>343.1</ele>
  <time>2026-09-01T20:03:19Z</time>
  <course>270.0</course>
  <speed>0.0</speed>
  <fix>3d</fix>
</trkpt>
<trkpt lat="-27.2744392" lon="151.2900641">
  <ele>343.04</ele>
  <time>2026-09-01T20:03:19Z</time>
  <course>11.02</course>
  <speed>0.022360679774997897</speed>
  <fix>3d</fix>
</trkpt>
<trkpt lat="-27.274439" lon="151.290064">
  <ele>343.1</ele>
  <time>2026-09-01T20:03:19Z</time>
  <course>270.0</course>
  <speed>0.0</speed>
  <fix>3d</fix>
</trkpt>
<trkpt lat="-27.2744392" lon="151.2900641">
  <ele>343.04</ele>
  <time>2026-09-01T20:03:19Z</time>
  <course>11.02</course>
  <speed>0.022360679774997897</speed>
  <fix>3d</fix>
</trkpt>
<trkpt lat="-27.274439" lon="151.290064">
  <ele>343.1</ele>
  <time>2026-09-01T20:03:19Z</time>
  <course>270.0</course>
  <speed>0.0</speed>
  <fix>3d</fix>
</trkpt>
<trkpt lat="-27.2744392" lon="151.2900641">
  <ele>343.04</ele>
  <time>2026-09-01T20:03:19Z</time>
  <course>11.02</course>
  <speed>0.022360679774997897</speed>
  <fix>3d</fix>
</trkpt>
<trkpt lat="-27.274439" lon="151.290064">
  <ele>343.1</ele>
  <time>2026-09-01T20:03:19Z</time>
  <course>270.0</course>
  <speed>0.0</speed>
  <fix>3d</fix>
</trkpt>
<trkpt lat="-27.2744392" lon="151.2900641">
  <ele>343.04</ele>
  <time>2026-09-01T20:03:19Z</time>
  <course>11.02</course>
  <speed>0.022360679774997897</speed>
  <fix>3d</fix>
</trkpt>
<trkpt lat="-27.274439" lon="151.290064">
  <ele>343.1</ele>
  <time>2026-09-01T20:03:19Z</time>
  <course>270.0</course>
  <speed>0.0</speed>
  <fix>3d</fix>
</trkpt>
<trkpt lat="-27.2744392" lon="151.2900641">
  <ele>343.04</ele>
  <time>2026-09-01T20:03:19Z</time>
  <course>11.02</course>
  <speed>0.022360679774997897</speed>
  <fix>3d</fix>
</trkpt>
<trkpt lat="-27.274439" lon="151.290064">
  <ele>343.1</ele>
  <time>2026-09-01T20:03:19Z</time>
  <course>270.0</course>
  <speed>0.0</speed>
  <fix>3d</fix>
</trkpt>
<trkpt lat="-27.2744392" lon="151.2900641">
  <ele>343.05</ele>
  <time>2026-09-01T20:03:19Z</time>
  <course>11.02</course>
  <speed>0.022360679774997897</speed>
  <fix>3d</fix>
</trkpt>
<trkpt lat="-27.274439" lon="151.290064">
  <ele>343.1</ele>
  <time>2026-09-01T20:03:19Z</time>
  <course>270.0</course>
  <speed>0.0</speed>
  <fix>3d</fix>
</trkpt>
<trkpt lat="-27.2744392" lon="151.2900641">
  <ele>343.05</ele>
  <time>2026-09-01T20:03:19Z</time>
  <course>11.02</course>
  <speed>0.022360679774997897</speed>
  <fix>3d</fix>
</trkpt>
<trkpt lat="-27.274439" lon="151.290064">
  <ele>343.1</ele>
  <time>2026-09-01T20:03:19Z</time>
  <course>270.0</course>
  <speed>0.0</speed>
  <fix>3d</fix>
</trkpt>
<trkpt lat="-27.2744392" lon="151.2900641">
  <ele>343.05</ele>
  <time>2026-09-01T20:03:19Z</time>
  <course>11.02</course>
  <speed>0.022360679774997897</speed>
  <fix>3d</fix>
</trkpt>
<trkpt lat="-27.274439" lon="151.290064">
  <ele>343.1</ele>
  <time>2026-09-01T20:03:19Z</time>
  <course>270.0</course>
  <speed>0.0</speed>
  <fix>3d</fix>
</trkpt>
<trkpt lat="-27.2744392" lon="151.2900641">
  <ele>343.05</ele>
  <time>2026-09-01T20:03:19Z</time>
  <course>11.02</course>
  <speed>0.022360679774997897</speed>
  <fix>3d</fix>
</trkpt>
<trkpt lat="-27.274439" lon="151.290064">
  <ele>343.1</ele>
  <time>2026-09-01T20:03:19Z</time>
  <course>270.0</course>
  <speed>0.0</speed>
  <fix>3d</fix>
</trkpt>
<trkpt lat="-27.2744392" lon="151.2900641">
  <ele>343.1</ele>
  <time>2026-09-01T20:03:19Z</time>
  <course>11.03</course>
  <speed>0.022360679774997897</speed>
  <fix>3d</fix>
</trkpt>
<trkpt lat="-27.274439" lon="151.290064">
  <ele>343.1</ele>
  <time>2026-09-01T20:03:19Z</time>
  <course>270.0</course>
  <speed>0.0</speed>
  <fix>3d</fix>
</trkpt>
<trkpt lat="-27.2744392" lon="151.2900641">
  <ele>343.1</ele>
  <time>2026-09-01T20:03:19Z</time>
  <course>11.03</course>
  <speed>0.022360679774997897</speed>
  <fix>3d</fix>
</trkpt>
<trkpt lat="-27.274439" lon="151.290064">
  <ele>343.1</ele>
  <time>2026-09-01T20:03:19Z</time>
  <course>270.0</course>
  <speed>0.0</speed>
  <fix>3d</fix>
</trkpt>
<trkpt lat="-27.2744392" lon="151.2900641">
  <ele>343.09</ele>
  <time>2026-09-01T20:03:19Z</time>
  <course>11.03</course>
  <speed>0.022360679774997897</speed>
  <fix>3d</fix>
</trkpt>
<trkpt lat="-27.274439" lon="151.290064">
  <ele>343.1</ele>
  <time>2026-09-01T20:03:19Z</time>
  <course>270.0</course>
  <speed>0.0</speed>
  <fix>3d</fix>
</trkpt>
<trkpt lat="-27.2744392" lon="151.2900641">
  <ele>343.09</ele>
  <time>2026-09-01T20:03:19Z</time>
  <course>11.03</course>
  <speed>0.022360679774997897</speed>
  <fix>3d</fix>
</trkpt>
<trkpt lat="-27.274439" lon="151.290064">
  <ele>343.1</ele>
  <time>2026-09-01T20:03:19Z</time>
  <course>270.0</course>
  <speed>0.0</speed>
  <fix>3d</fix>
</trkpt>
<trkpt lat="-27.2744392" lon="151.2900641">
  <ele>343.09</ele>
  <time>2026-09-01T20:03:19Z</time>
  <course>11.03</course>
  <speed>0.022360679774997897</speed>
  <fix>3d</fix>
</trkpt>
<trkpt lat="-27.274439" lon="151.290064">
  <ele>343.1</ele>
  <time>2026-09-01T20:03:19Z</time>
  <course>270.0</course>
  <speed>0.0</speed>
  <fix>3d</fix>
</trkpt>
<trkpt lat="-27.2744392" lon="151.2900641">
  <ele>343.09</ele>
  <time>2026-09-01T20:03:19Z</time>
  <course>11.03</course>
  <speed>0.022360679774997897</speed>
  <fix>3d</fix>
</trkpt>
<trkpt lat="-27.274439" lon="151.290064">
  <ele>343.1</ele>
  <time>2026-09-01T20:03:19Z</time>
  <course>270.0</course>
  <speed>0.0</speed>
  <fix>3d</fix>
</trkpt>
<trkpt lat="-27.2744392" lon="151.2900641">
  <ele>343.09</ele>
  <time>2026-09-01T20:03:19Z</time>
  <course>11.03</course>
  <speed>0.022360679774997897</speed>
  <fix>3d</fix>
</trkpt>
<trkpt lat="-27.274439" lon="151.290064">
  <ele>343.1</ele>
  <time>2026-09-01T20:03:19Z</time>
  <course>270.0</course>
  <speed>0.0</speed>
  <fix>3d</fix>
</trkpt>
<trkpt lat="-27.2744392" lon="151.2900641">
  <ele>343.09</ele>
  <time>2026-09-01T20:03:19Z</time>
  <course>11.03</course>
  <speed>0.022360679774997897</speed>
  <fix>3d</fix>
</trkpt>
<trkpt lat="-27.274439" lon="151.290064">
  <ele>343.1</ele>
  <time>2026-09-01T20:03:19Z</time>
  <course>270.0</course>
  <speed>0.0</speed>
  <fix>3d</fix>
</trkpt>
<trkpt lat="-27.2744392" lon="151.2900641">
  <ele>343.09</ele>
  <time>2026-09-01T20:03:19Z</time>
  <course>11.03</course>
  <speed>0.022360679774997897</speed>
  <fix>3d</fix>
</trkpt>
<trkpt lat="-27.274439" lon="151.290064">
  <ele>343.1</ele>
  <time>2026-09-01T20:03:19Z</time>
  <course>270.0</course>
  <speed>0.0</speed>
  <fix>3d</fix>
</trkpt>
<trkpt lat="-27.2744392" lon="151.2900641">
  <ele>343.08</ele>
  <time>2026-09-01T20:03:19Z</time>
  <course>11.03</course>
  <speed>0.022360679774997897</speed>
  <fix>3d</fix>
</trkpt>
<trkpt lat="-27.274439" lon="151.290064">
  <ele>343.1</ele>
  <time>2026-09-01T20:03:19Z</time>
  <course>270.0</course>
  <speed>0.0</speed>
  <fix>3d</fix>
</trkpt>
<trkpt lat="-27.2744392" lon="151.2900641">
  <ele>343.08</ele>
  <time>2026-09-01T20:03:19Z</time>
  <course>11.03</course>
  <speed>0.022360679774997897</speed>
  <fix>3d</fix>
</trkpt>
<trkpt lat="-27.274439" lon="151.290064">
  <ele>343.1</ele>
  <time>2026-09-01T20:03:19Z</time>
  <course>270.0</course>
  <speed>0.0</speed>
  <fix>3d</fix>
</trkpt>
<trkpt lat="-27.2744392" lon="151.2900641">
  <ele>343.07</ele>
  <time>2026-09-01T20:03:19Z</time>
  <course>11.04</course>
  <speed>0.022360679774997897</speed>
  <fix>3d</fix>
</trkpt>
<trkpt lat="-27.274439" lon="151.290064">
  <ele>343.1</ele>
  <time>2026-09-01T20:03:19Z</time>
  <course>270.0</course>
  <speed>0.0</speed>
  <fix>3d</fix>
</trkpt>
<trkpt lat="-27.2744392" lon="151.2900641">
  <ele>343.07</ele>
  <time>2026-09-01T20:03:19Z</time>
  <course>11.04</course>
  <speed>0.022360679774997897</speed>
  <fix>3d</fix>
</trkpt>
<trkpt lat="-27.274439" lon="151.290064">
  <ele>343.1</ele>
  <time>2026-09-01T20:03:19Z</time>
  <course>270.0</course>
  <speed>0.0</speed>
  <fix>3d</fix>
</trkpt>
<trkpt lat="-27.2744392" lon="151.2900641">
  <ele>343.06</ele>
  <time>2026-09-01T20:03:19Z</time>
  <course>11.04</course>
  <speed>0.022360679774997897</speed>
  <fix>3d</fix>
</trkpt>
<trkpt lat="-27.274439" lon="151.290064">
  <ele>343.1</ele>
  <time>2026-09-01T20:03:19Z</time>
  <course>270.0</course>
  <speed>0.0</speed>
  <fix>3d</fix>
</trkpt>
<trkpt lat="-27.2744392" lon="151.2900641">
  <ele>343.06</ele>
  <time>2026-09-01T20:03:19Z</time>
  <course>11.04</course>
  <speed>0.022360679774997897</speed>
  <fix>3d</fix>
</trkpt>
<trkpt lat="-27.274439" lon="151.290064">
  <ele>343.1</ele>
  <time>2026-09-01T20:03:19Z</time>
  <course>270.0</course>
  <speed>0.0</speed>
  <fix>3d</fix>
</trkpt>
<trkpt lat="-27.2744392" lon="151.2900641">
  <ele>343.05</ele>
  <time>2026-09-01T20:03:20Z</time>
  <course>11.04</course>
  <speed>0.022360679774997897</speed>
  <fix>3d</fix>
</trkpt>
<trkpt lat="-27.274439" lon="151.290064">
  <ele>343.1</ele>
  <time>2026-09-01T20:03:20Z</time>
  <course>270.0</course>
  <speed>0.0</speed>
  <fix>3d</fix>
</trkpt>
<trkpt lat="-27.2744392" lon="151.2900641">
  <ele>343.05</ele>
  <time>2026-09-01T20:03:20Z</time>
  <course>11.04</course>
  <speed>0.022360679774997897</speed>
  <fix>3d</fix>
</trkpt>
<trkpt lat="-27.274439" lon="151.290064">
  <ele>343.1</ele>
  <time>2026-09-01T20:03:20Z</time>
  <course>270.0</course>
  <speed>0.0</speed>
  <fix>3d</fix>
</trkpt>
<trkpt lat="-27.2744392" lon="151.2900641">
  <ele>343.05</ele>
  <time>2026-09-01T20:03:20Z</time>
  <course>11.04</course>
  <speed>0.022360679774997897</speed>
  <fix>3d</fix>
</trkpt>
<trkpt lat="-27.274439" lon="151.290064">
  <ele>343.1</ele>
  <time>2026-09-01T20:03:20Z</time>
  <course>270.0</course>
  <speed>0.0</speed>
  <fix>3d</fix>
</trkpt>
<trkpt lat="-27.2744392" lon="151.2900641">
  <ele>343.05</ele>
  <time>2026-09-01T20:03:20Z</time>
  <course>11.04</course>
  <speed>0.022360679774997897</speed>
  <fix>3d</fix>
</trkpt>
<trkpt lat="-27.274439" lon="151.290064">
  <ele>343.1</ele>
  <time>2026-09-01T20:03:20Z</time>
  <course>270.0</course>
  <speed>0.0</speed>
  <fix>3d</fix>
</trkpt>
<trkpt lat="-27.2744392" lon="151.2900641">
  <ele>343.05</ele>
  <time>2026-09-01T20:03:20Z</time>
  <course>11.04</course>
  <speed>0.022360679774997897</speed>
  <fix>3d</fix>
</trkpt>
<trkpt lat="-27.274439" lon="151.290064">
  <ele>343.1</ele>
  <time>2026-09-01T20:03:20Z</time>
  <course>270.0</course>
  <speed>0.0</speed>
  <fix>3d</fix>
</trkpt>
<trkpt lat="-27.2744392" lon="151.2900641">
  <ele>343.05</ele>
  <time>2026-09-01T20:03:20Z</time>
  <course>11.04</course>
  <speed>0.022360679774997897</speed>
  <fix>3d</fix>
</trkpt>
<trkpt lat="-27.274439" lon="151.290064">
  <ele>343.1</ele>
  <time>2026-09-01T20:03:20Z</time>
  <course>270.0</course>
  <speed>0.0</speed>
  <fix>3d</fix>
</trkpt>
<trkpt lat="-27.2744392" lon="151.2900641">
  <ele>343.05</ele>
  <time>2026-09-01T20:03:20Z</time>
  <course>11.04</course>
  <speed>0.022360679774997897</speed>
  <fix>3d</fix>
</trkpt>
<trkpt lat="-27.274439" lon="151.290064">
  <ele>343.1</ele>
  <time>2026-09-01T20:03:20Z</time>
  <course>270.0</course>
  <speed>0.0</speed>
  <fix>3d</fix>
</trkpt>
<trkpt lat="-27.2744392" lon="151.2900641">
  <ele>343.04</ele>
  <time>2026-09-01T20:03:20Z</time>
  <course>11.05</course>
  <speed>0.022360679774997897</speed>
  <fix>3d</fix>
</trkpt>
<trkpt lat="-27.274439" lon="151.290064">
  <ele>343.1</ele>
  <time>2026-09-01T20:03:20Z</time>
  <course>270.0</course>
  <speed>0.0</speed>
  <fix>3d</fix>
</trkpt>
<trkpt lat="-27.2744392" lon="151.2900641">
  <ele>343.04</ele>
  <time>2026-09-01T20:03:20Z</time>
  <course>11.05</course>
  <speed>0.022360679774997897</speed>
  <fix>3d</fix>
</trkpt>
<trkpt lat="-27.274439" lon="151.290064">
  <ele>343.1</ele>
  <time>2026-09-01T20:03:20Z</time>
  <course>270.0</course>
  <speed>0.0</speed>
  <fix>3d</fix>
</trkpt>
<trkpt lat="-27.2744392" lon="151.2900641">
  <ele>343.04</ele>
  <time>2026-09-01T20:03:20Z</time>
  <course>11.05</course>
  <speed>0.022360679774997897</speed>
  <fix>3d</fix>
</trkpt>
<trkpt lat="-27.274439" lon="151.290064">
  <ele>343.1</ele>
  <time>2026-09-01T20:03:20Z</time>
  <course>270.0</course>
  <speed>0.0</speed>
  <fix>3d</fix>
</trkpt>
<trkpt lat="-27.2744392" lon="151.2900641">
  <ele>343.04</ele>
  <time>2026-09-01T20:03:20Z</time>
  <course>11.05</course>
  <speed>0.022360679774997897</speed>
  <fix>3d</fix>
</trkpt>
<trkpt lat="-27.274439" lon="151.290064">
  <ele>343.1</ele>
  <time>2026-09-01T20:03:20Z</time>
  <course>270.0</course>
  <speed>0.0</speed>
  <fix>3d</fix>
</trkpt>
<trkpt lat="-27.2744392" lon="151.2900641">
  <ele>343.04</ele>
  <time>2026-09-01T20:03:20Z</time>
  <course>11.05</course>
  <speed>0.022360679774997897</speed>
  <fix>3d</fix>
</trkpt>
<trkpt lat="-27.274439" lon="151.290064">
  <ele>343.1</ele>
  <time>2026-09-01T20:03:20Z</time>
  <course>270.0</course>
  <speed>0.0</speed>
  <fix>3d</fix>
</trkpt>
<trkpt lat="-27.2744392" lon="151.2900641">
  <ele>343.04</ele>
  <time>2026-09-01T20:03:20Z</time>
  <course>11.05</course>
  <speed>0.022360679774997897</speed>
  <fix>3d</fix>
</trkpt>
<trkpt lat="-27.274439" lon="151.290064">
  <ele>343.1</ele>
  <time>2026-09-01T20:03:20Z</time>
  <course>270.0</course>
  <speed>0.0</speed>
  <fix>3d</fix>
</trkpt>
<trkpt lat="-27.2744392" lon="151.2900641">
  <ele>343.03</ele>
  <time>2026-09-01T20:03:20Z</time>
  <course>11.05</course>
  <speed>0.022360679774997897</speed>
  <fix>3d</fix>
</trkpt>
<trkpt lat="-27.274439" lon="151.290064">
  <ele>343.1</ele>
  <time>2026-09-01T20:03:20Z</time>
  <course>270.0</course>
  <speed>0.0</speed>
  <fix>3d</fix>
</trkpt>
<trkpt lat="-27.2744392" lon="151.2900641">
  <ele>343.03</ele>
  <time>2026-09-01T20:03:20Z</time>
  <course>11.05</course>
  <speed>0.022360679774997897</speed>
  <fix>3d</fix>
</trkpt>
<trkpt lat="-27.274439" lon="151.290064">
  <ele>343.1</ele>
  <time>2026-09-01T20:03:20Z</time>
  <course>270.0</course>
  <speed>0.0</speed>
  <fix>3d</fix>
</trkpt>
<trkpt lat="-27.2744392" lon="151.2900641">
  <ele>343.03</ele>
  <time>2026-09-01T20:03:20Z</time>
  <course>11.05</course>
  <speed>0.022360679774997897</speed>
  <fix>3d</fix>
</trkpt>
<trkpt lat="-27.274439" lon="151.290064">
  <ele>343.1</ele>
  <time>2026-09-01T20:03:20Z</time>
  <course>270.0</course>
  <speed>0.0</speed>
  <fix>3d</fix>
</trkpt>
<trkpt lat="-27.2744392" lon="151.2900641">
  <ele>343.03</ele>
  <time>2026-09-01T20:03:20Z</time>
  <course>11.05</course>
  <speed>0.022360679774997897</speed>
  <fix>3d</fix>
</trkpt>
<trkpt lat="-27.274439" lon="151.290064">
  <ele>343.1</ele>
  <time>2026-09-01T20:03:20Z</time>
  <course>270.0</course>
  <speed>0.0</speed>
  <fix>3d</fix>
</trkpt>
<trkpt lat="-27.2744392" lon="151.2900641">
  <ele>343.03</ele>
  <time>2026-09-01T20:03:20Z</time>
  <course>11.05</course>
  <speed>0.022360679774997897</speed>
  <fix>3d</fix>
</trkpt>
<trkpt lat="-27.274439" lon="151.290064">
  <ele>343.1</ele>
  <time>2026-09-01T20:03:20Z</time>
  <course>270.0</course>
  <speed>0.0</speed>
  <fix>3d</fix>
</trkpt>
<trkpt lat="-27.2744392" lon="151.2900641">
  <ele>343.03</ele>
  <time>2026-09-01T20:03:20Z</time>
  <course>11.06</course>
  <speed>0.022360679774997897</speed>
  <fix>3d</fix>
</trkpt>
<trkpt lat="-27.274439" lon="151.290064">
  <ele>343.1</ele>
  <time>2026-09-01T20:03:20Z</time>
  <course>270.0</course>
  <speed>0.0</speed>
  <fix>3d</fix>
</trkpt>
<trkpt lat="-27.2744392" lon="151.2900641">
  <ele>343.03</ele>
  <time>2026-09-01T20:03:20Z</time>
  <course>11.06</course>
  <speed>0.022360679774997897</speed>
  <fix>3d</fix>
</trkpt>
<trkpt lat="-27.274439" lon="151.290064">
  <ele>343.1</ele>
  <time>2026-09-01T20:03:20Z</time>
  <course>270.0</course>
  <speed>0.0</speed>
  <fix>3d</fix>
</trkpt>
<trkpt lat="-27.2744392" lon="151.2900641">
  <ele>343.03</ele>
  <time>2026-09-01T20:03:20Z</time>
  <course>11.06</course>
  <speed>0.022360679774997897</speed>
  <fix>3d</fix>
</trkpt>
<trkpt lat="-27.274439" lon="151.290064">
  <ele>343.1</ele>
  <time>2026-09-01T20:03:20Z</time>
  <course>270.0</course>
  <speed>0.0</speed>
  <fix>3d</fix>
</trkpt>
<trkpt lat="-27.2744392" lon="151.2900641">
  <ele>343.03</ele>
  <time>2026-09-01T20:03:20Z</time>
  <course>11.06</course>
  <speed>0.022360679774997897</speed>
  <fix>3d</fix>
</trkpt>
<trkpt lat="-27.274439" lon="151.290064">
  <ele>343.1</ele>
  <time>2026-09-01T20:03:20Z</time>
  <course>270.0</course>
  <speed>0.0</speed>
  <fix>3d</fix>
</trkpt>
<trkpt lat="-27.2744392" lon="151.2900641">
  <ele>343.03</ele>
  <time>2026-09-01T20:03:20Z</time>
  <course>11.06</course>
  <speed>0.022360679774997897</speed>
  <fix>3d</fix>
</trkpt>
<trkpt lat="-27.274439" lon="151.290064">
  <ele>343.1</ele>
  <time>2026-09-01T20:03:20Z</time>
  <course>270.0</course>
  <speed>0.0</speed>
  <fix>3d</fix>
</trkpt>
<trkpt lat="-27.2744392" lon="151.2900641">
  <ele>343.03</ele>
  <time>2026-09-01T20:03:20Z</time>
  <course>11.06</course>
  <speed>0.022360679774997897</speed>
  <fix>3d</fix>
</trkpt>
<trkpt lat="-27.274439" lon="151.290064">
  <ele>343.1</ele>
  <time>2026-09-01T20:03:20Z</time>
  <course>270.0</course>
  <speed>0.0</speed>
  <fix>3d</fix>
</trkpt>
<trkpt lat="-27.2744392" lon="151.2900641">
  <ele>343.04</ele>
  <time>2026-09-01T20:03:20Z</time>
  <course>11.06</course>
  <speed>0.022360679774997897</speed>
  <fix>3d</fix>
</trkpt>
<trkpt lat="-27.274439" lon="151.290064">
  <ele>343.1</ele>
  <time>2026-09-01T20:03:20Z</time>
  <course>270.0</course>
  <speed>0.0</speed>
  <fix>3d</fix>
</trkpt>
<trkpt lat="-27.2744392" lon="151.2900641">
  <ele>343.03</ele>
  <time>2026-09-01T20:03:20Z</time>
  <course>11.06</course>
  <speed>0.022360679774997897</speed>
  <fix>3d</fix>
</trkpt>
<trkpt lat="-27.274439" lon="151.290064">
  <ele>343.1</ele>
  <time>2026-09-01T20:03:20Z</time>
  <course>270.0</course>
  <speed>0.0</speed>
  <fix>3d</fix>
</trkpt>
<trkpt lat="-27.2744392" lon="151.2900641">
  <ele>343.03</ele>
  <time>2026-09-01T20:03:20Z</time>
  <course>11.06</course>
  <speed>0.022360679774997897</speed>
  <fix>3d</fix>
</trkpt>
<trkpt lat="-27.274439" lon="151.290064">
  <ele>343.1</ele>
  <time>2026-09-01T20:03:20Z</time>
  <course>270.0</course>
  <speed>0.0</speed>
  <fix>3d</fix>
</trkpt>
<trkpt lat="-27.2744392" lon="151.2900641">
  <ele>343.03</ele>
  <time>2026-09-01T20:03:20Z</time>
  <course>11.06</course>
  <speed>0.022360679774997897</speed>
  <fix>3d</fix>
</trkpt>
<trkpt lat="-27.274439" lon="151.290064">
  <ele>343.1</ele>
  <time>2026-09-01T20:03:20Z</time>
  <course>270.0</course>
  <speed>0.0</speed>
  <fix>3d</fix>
</trkpt>
<trkpt lat="-27.2744392" lon="151.2900641">
  <ele>343.03</ele>
  <time>2026-09-01T20:03:20Z</time>
  <course>11.07</course>
  <speed>0.022360679774997897</speed>
  <fix>3d</fix>
</trkpt>
<trkpt lat="-27.274439" lon="151.290064">
  <ele>343.1</ele>
  <time>2026-09-01T20:03:20Z</time>
  <course>270.0</course>
  <speed>0.0</speed>
  <fix>3d</fix>
</trkpt>
<trkpt lat="-27.2744392" lon="151.2900641">
  <ele>343.03</ele>
  <time>2026-09-01T20:03:20Z</time>
  <course>11.07</course>
  <speed>0.022360679774997897</speed>
  <fix>3d</fix>
</trkpt>
<trkpt lat="-27.274439" lon="151.290064">
  <ele>343.1</ele>
  <time>2026-09-01T20:03:20Z</time>
  <course>270.0</course>
  <speed>0.0</speed>
  <fix>3d</fix>
</trkpt>
<trkpt lat="-27.2744392" lon="151.2900641">
  <ele>343.03</ele>
  <time>2026-09-01T20:03:20Z</time>
  <course>11.07</course>
  <speed>0.022360679774997897</speed>
  <fix>3d</fix>
</trkpt>
<trkpt lat="-27.274439" lon="151.290064">
  <ele>343.1</ele>
  <time>2026-09-01T20:03:20Z</time>
  <course>270.0</course>
  <speed>0.0</speed>
  <fix>3d</fix>
</trkpt>
<trkpt lat="-27.2744392" lon="151.2900641">
  <ele>343.02</ele>
  <time>2026-09-01T20:03:20Z</time>
  <course>11.07</course>
  <speed>0.022360679774997897</speed>
  <fix>3d</fix>
</trkpt>
<trkpt lat="-27.274439" lon="151.290064">
  <ele>343.1</ele>
  <time>2026-09-01T20:03:20Z</time>
  <course>270.0</course>
  <speed>0.0</speed>
  <fix>3d</fix>
</trkpt>
<trkpt lat="-27.2744392" lon="151.2900641">
  <ele>343.02</ele>
  <time>2026-09-01T20:03:20Z</time>
  <course>11.07</course>
  <speed>0.022360679774997897</speed>
  <fix>3d</fix>
</trkpt>
<trkpt lat="-27.274439" lon="151.290064">
  <ele>343.1</ele>
  <time>2026-09-01T20:03:20Z</time>
  <course>270.0</course>
  <speed>0.0</speed>
  <fix>3d</fix>
</trkpt>
<trkpt lat="-27.2744392" lon="151.2900641">
  <ele>343.02</ele>
  <time>2026-09-01T20:03:20Z</time>
  <course>11.07</course>
  <speed>0.022360679774997897</speed>
  <fix>3d</fix>
</trkpt>
<trkpt lat="-27.274439" lon="151.290064">
  <ele>343.1</ele>
  <time>2026-09-01T20:03:20Z</time>
  <course>270.0</course>
  <speed>0.0</speed>
  <fix>3d</fix>
</trkpt>
<trkpt lat="-27.2744392" lon="151.2900641">
  <ele>343.01</ele>
  <time>2026-09-01T20:03:20Z</time>
  <course>11.07</course>
  <speed>0.022360679774997897</speed>
  <fix>3d</fix>
</trkpt>
<trkpt lat="-27.274439" lon="151.290064">
  <ele>343.1</ele>
  <time>2026-09-01T20:03:20Z</time>
  <course>270.0</course>
  <speed>0.0</speed>
  <fix>3d</fix>
</trkpt>
<trkpt lat="-27.2744392" lon="151.2900641">
  <ele>343.01</ele>
  <time>2026-09-01T20:03:20Z</time>
  <course>11.07</course>
  <speed>0.022360679774997897</speed>
  <fix>3d</fix>
</trkpt>
<trkpt lat="-27.274439" lon="151.290064">
  <ele>343.1</ele>
  <time>2026-09-01T20:03:20Z</time>
  <course>270.0</course>
  <speed>0.0</speed>
  <fix>3d</fix>
</trkpt>
<trkpt lat="-27.2744392" lon="151.2900641">
  <ele>343.01</ele>
  <time>2026-09-01T20:03:20Z</time>
  <course>11.07</course>
  <speed>0.022360679774997897</speed>
  <fix>3d</fix>
</trkpt>
<trkpt lat="-27.274439" lon="151.290064">
  <ele>343.1</ele>
  <time>2026-09-01T20:03:20Z</time>
  <course>270.0</course>
  <speed>0.0</speed>
  <fix>3d</fix>
</trkpt>
<trkpt lat="-27.2744392" lon="151.2900641">
  <ele>343.01</ele>
  <time>2026-09-01T20:03:20Z</time>
  <course>11.07</course>
  <speed>0.022360679774997897</speed>
  <fix>3d</fix>
</trkpt>
<trkpt lat="-27.274439" lon="151.290064">
  <ele>343.1</ele>
  <time>2026-09-01T20:03:20Z</time>
  <course>270.0</course>
  <speed>0.0</speed>
  <fix>3d</fix>
</trkpt>
<trkpt lat="-27.2744392" lon="151.2900641">
  <ele>343.0</ele>
  <time>2026-09-01T20:03:20Z</time>
  <course>11.08</course>
  <speed>0.022360679774997897</speed>
  <fix>3d</fix>
</trkpt>
<trkpt lat="-27.274439" lon="151.290064">
  <ele>343.1</ele>
  <time>2026-09-01T20:03:20Z</time>
  <course>270.0</course>
  <speed>0.0</speed>
  <fix>3d</fix>
</trkpt>
<trkpt lat="-27.2744392" lon="151.2900641">
  <ele>343.0</ele>
  <time>2026-09-01T20:03:20Z</time>
  <course>11.08</course>
  <speed>0.022360679774997897</speed>
  <fix>3d</fix>
</trkpt>
<trkpt lat="-27.274439" lon="151.290064">
  <ele>343.1</ele>
  <time>2026-09-01T20:03:20Z</time>
  <course>270.0</course>
  <speed>0.0</speed>
  <fix>3d</fix>
</trkpt>
<trkpt lat="-27.2744392" lon="151.2900641">
  <ele>343.0</ele>
  <time>2026-09-01T20:03:20Z</time>
  <course>11.08</course>
  <speed>0.022360679774997897</speed>
  <fix>3d</fix>
</trkpt>
<trkpt lat="-27.274439" lon="151.290064">
  <ele>343.1</ele>
  <time>2026-09-01T20:03:20Z</time>
  <course>270.0</course>
  <speed>0.0</speed>
  <fix>3d</fix>
</trkpt>
<trkpt lat="-27.2744392" lon="151.2900641">
  <ele>342.99</ele>
  <time>2026-09-01T20:03:20Z</time>
  <course>11.08</course>
  <speed>0.022360679774997897</speed>
  <fix>3d</fix>
</trkpt>
<trkpt lat="-27.274439" lon="151.290064">
  <ele>343.1</ele>
  <time>2026-09-01T20:03:20Z</time>
  <course>270.0</course>
  <speed>0.0</speed>
  <fix>3d</fix>
</trkpt>
<trkpt lat="-27.2744392" lon="151.2900641">
  <ele>342.99</ele>
  <time>2026-09-01T20:03:20Z</time>
  <course>11.08</course>
  <speed>0.022360679774997897</speed>
  <fix>3d</fix>
</trkpt>
<trkpt lat="-27.274439" lon="151.290064">
  <ele>343.1</ele>
  <time>2026-09-01T20:03:20Z</time>
  <course>270.0</course>
  <speed>0.0</speed>
  <fix>3d</fix>
</trkpt>
<trkpt lat="-27.2744392" lon="151.2900641">
  <ele>342.99</ele>
  <time>2026-09-01T20:03:20Z</time>
  <course>11.08</course>
  <speed>0.022360679774997897</speed>
  <fix>3d</fix>
</trkpt>
<trkpt lat="-27.274439" lon="151.290064">
  <ele>343.1</ele>
  <time>2026-09-01T20:03:20Z</time>
  <course>270.0</course>
  <speed>0.0</speed>
  <fix>3d</fix>
</trkpt>
<trkpt lat="-27.2744392" lon="151.2900641">
  <ele>342.99</ele>
  <time>2026-09-01T20:03:20Z</time>
  <course>11.08</course>
  <speed>0.022360679774997897</speed>
  <fix>3d</fix>
</trkpt>
<trkpt lat="-27.274439" lon="151.290064">
  <ele>343.1</ele>
  <time>2026-09-01T20:03:20Z</time>
  <course>270.0</course>
  <speed>0.0</speed>
  <fix>3d</fix>
</trkpt>
<trkpt lat="-27.2744392" lon="151.2900641">
  <ele>343.09</ele>
  <time>2026-09-01T20:03:20Z</time>
  <course>11.08</course>
  <speed>0.022360679774997897</speed>
  <fix>3d</fix>
</trkpt>
<trkpt lat="-27.274439" lon="151.290064">
  <ele>343.1</ele>
  <time>2026-09-01T20:03:20Z</time>
  <course>270.0</course>
  <speed>0.0</speed>
  <fix>3d</fix>
</trkpt>
<trkpt lat="-27.2744392" lon="151.2900641">
  <ele>343.09</ele>
  <time>2026-09-01T20:03:20Z</time>
  <course>11.08</course>
  <speed>0.022360679774997897</speed>
  <fix>3d</fix>
</trkpt>
<trkpt lat="-27.274439" lon="151.290064">
  <ele>343.1</ele>
  <time>2026-09-01T20:03:20Z</time>
  <course>270.0</course>
  <speed>0.0</speed>
  <fix>3d</fix>
</trkpt>
<trkpt lat="-27.2744392" lon="151.2900641">
  <ele>343.09</ele>
  <time>2026-09-01T20:03:20Z</time>
  <course>11.08</course>
  <speed>0.022360679774997897</speed>
  <fix>3d</fix>
</trkpt>
<trkpt lat="-27.274439" lon="151.290064">
  <ele>343.1</ele>
  <time>2026-09-01T20:03:20Z</time>
  <course>270.0</course>
  <speed>0.0</speed>
  <fix>3d</fix>
</trkpt>
<trkpt lat="-27.2744392" lon="151.2900641">
  <ele>343.09</ele>
  <time>2026-09-01T20:03:20Z</time>
  <course>11.09</course>
  <speed>0.022360679774997897</speed>
  <fix>3d</fix>
</trkpt>
<trkpt lat="-27.274439" lon="151.290064">
  <ele>343.1</ele>
  <time>2026-09-01T20:03:20Z</time>
  <course>270.0</course>
  <speed>0.0</speed>
  <fix>3d</fix>
</trkpt>
<trkpt lat="-27.2744392" lon="151.2900641">
  <ele>343.09</ele>
  <time>2026-09-01T20:03:20Z</time>
  <course>11.09</course>
  <speed>0.022360679774997897</speed>
  <fix>3d</fix>
</trkpt>
<trkpt lat="-27.274439" lon="151.290064">
  <ele>343.1</ele>
  <time>2026-09-01T20:03:20Z</time>
  <course>270.0</course>
  <speed>0.0</speed>
  <fix>3d</fix>
</trkpt>
<trkpt lat="-27.2744392" lon="151.2900641">
  <ele>343.08</ele>
  <time>2026-09-01T20:03:20Z</time>
  <course>11.09</course>
  <speed>0.022360679774997897</speed>
  <fix>3d</fix>
</trkpt>
<trkpt lat="-27.274439" lon="151.290064">
  <ele>343.1</ele>
  <time>2026-09-01T20:03:20Z</time>
  <course>270.0</course>
  <speed>0.0</speed>
  <fix>3d</fix>
</trkpt>
<trkpt lat="-27.2744392" lon="151.2900641">
  <ele>343.08</ele>
  <time>2026-09-01T20:03:20Z</time>
  <course>11.09</course>
  <speed>0.022360679774997897</speed>
  <fix>3d</fix>
</trkpt>
<trkpt lat="-27.274439" lon="151.290064">
  <ele>343.1</ele>
  <time>2026-09-01T20:03:20Z</time>
  <course>270.0</course>
  <speed>0.0</speed>
  <fix>3d</fix>
</trkpt>
<trkpt lat="-27.2744392" lon="151.2900641">
  <ele>343.08</ele>
  <time>2026-09-01T20:03:20Z</time>
  <course>11.09</course>
  <speed>0.022360679774997897</speed>
  <fix>3d</fix>
</trkpt>
<trkpt lat="-27.274439" lon="151.290064">
  <ele>343.1</ele>
  <time>2026-09-01T20:03:20Z</time>
  <course>270.0</course>
  <speed>0.0</speed>
  <fix>3d</fix>
</trkpt>
<trkpt lat="-27.2744392" lon="151.2900641">
  <ele>343.08</ele>
  <time>2026-09-01T20:03:20Z</time>
  <course>11.09</course>
  <speed>0.022360679774997897</speed>
  <fix>3d</fix>
</trkpt>
<trkpt lat="-27.274439" lon="151.290064">
  <ele>343.1</ele>
  <time>2026-09-01T20:03:20Z</time>
  <course>270.0</course>
  <speed>0.0</speed>
  <fix>3d</fix>
</trkpt>
<trkpt lat="-27.2744392" lon="151.2900641">
  <ele>343.08</ele>
  <time>2026-09-01T20:03:20Z</time>
  <course>11.09</course>
  <speed>0.022360679774997897</speed>
  <fix>3d</fix>
</trkpt>
<trkpt lat="-27.274439" lon="151.290064">
  <ele>343.1</ele>
  <time>2026-09-01T20:03:20Z</time>
  <course>270.0</course>
  <speed>0.0</speed>
  <fix>3d</fix>
</trkpt>
<trkpt lat="-27.2744392" lon="151.2900641">
  <ele>343.08</ele>
  <time>2026-09-01T20:03:20Z</time>
  <course>11.09</course>
  <speed>0.022360679774997897</speed>
  <fix>3d</fix>
</trkpt>
<trkpt lat="-27.274439" lon="151.290064">
  <ele>343.1</ele>
  <time>2026-09-01T20:03:20Z</time>
  <course>270.0</course>
  <speed>0.0</speed>
  <fix>3d</fix>
</trkpt>
<trkpt lat="-27.2744392" lon="151.2900641">
  <ele>343.08</ele>
  <time>2026-09-01T20:03:20Z</time>
  <course>11.09</course>
  <speed>0.022360679774997897</speed>
  <fix>3d</fix>
</trkpt>
<trkpt lat="-27.274439" lon="151.290064">
  <ele>343.1</ele>
  <time>2026-09-01T20:03:20Z</time>
  <course>270.0</course>
  <speed>0.0</speed>
  <fix>3d</fix>
</trkpt>
<trkpt lat="-27.2744392" lon="151.2900641">
  <ele>343.08</ele>
  <time>2026-09-01T20:03:20Z</time>
  <course>11.09</course>
  <speed>0.022360679774997897</speed>
  <fix>3d</fix>
</trkpt>
<trkpt lat="-27.274439" lon="151.290064">
  <ele>343.1</ele>
  <time>2026-09-01T20:03:20Z</time>
  <course>270.0</course>
  <speed>0.0</speed>
  <fix>3d</fix>
</trkpt>
<trkpt lat="-27.2744392" lon="151.2900641">
  <ele>343.08</ele>
  <time>2026-09-01T20:03:20Z</time>
  <course>11.1</course>
  <speed>0.022360679774997897</speed>
  <fix>3d</fix>
</trkpt>
<trkpt lat="-27.274439" lon="151.290064">
  <ele>343.1</ele>
  <time>2026-09-01T20:03:20Z</time>
  <course>270.0</course>
  <speed>0.0</speed>
  <fix>3d</fix>
</trkpt>
<trkpt lat="-27.2744392" lon="151.2900641">
  <ele>343.08</ele>
  <time>2026-09-01T20:03:20Z</time>
  <course>11.1</course>
  <speed>0.022360679774997897</speed>
  <fix>3d</fix>
</trkpt>
<trkpt lat="-27.274439" lon="151.290064">
  <ele>343.1</ele>
  <time>2026-09-01T20:03:20Z</time>
  <course>270.0</course>
  <speed>0.0</speed>
  <fix>3d</fix>
</trkpt>
<trkpt lat="-27.2744392" lon="151.2900641">
  <ele>343.08</ele>
  <time>2026-09-01T20:03:20Z</time>
  <course>11.1</course>
  <speed>0.022360679774997897</speed>
  <fix>3d</fix>
</trkpt>
<trkpt lat="-27.274439" lon="151.290064">
  <ele>343.1</ele>
  <time>2026-09-01T20:03:20Z</time>
  <course>270.0</course>
  <speed>0.0</speed>
  <fix>3d</fix>
</trkpt>
<trkpt lat="-27.2744392" lon="151.2900641">
  <ele>343.08</ele>
  <time>2026-09-01T20:03:20Z</time>
  <course>11.1</course>
  <speed>0.022360679774997897</speed>
  <fix>3d</fix>
</trkpt>
<trkpt lat="-27.274439" lon="151.290064">
  <ele>343.1</ele>
  <time>2026-09-01T20:03:20Z</time>
  <course>270.0</course>
  <speed>0.0</speed>
  <fix>3d</fix>
</trkpt>
<trkpt lat="-27.2744392" lon="151.2900641">
  <ele>343.07</ele>
  <time>2026-09-01T20:03:20Z</time>
  <course>11.1</course>
  <speed>0.022360679774997897</speed>
  <fix>3d</fix>
</trkpt>
<trkpt lat="-27.274439" lon="151.290064">
  <ele>343.1</ele>
  <time>2026-09-01T20:03:20Z</time>
  <course>270.0</course>
  <speed>0.0</speed>
  <fix>3d</fix>
</trkpt>
<trkpt lat="-27.2744392" lon="151.2900641">
  <ele>343.07</ele>
  <time>2026-09-01T20:03:20Z</time>
  <course>11.1</course>
  <speed>0.022360679774997897</speed>
  <fix>3d</fix>
</trkpt>
<trkpt lat="-27.274439" lon="151.290064">
  <ele>343.1</ele>
  <time>2026-09-01T20:03:20Z</time>
  <course>270.0</course>
  <speed>0.0</speed>
  <fix>3d</fix>
</trkpt>
<trkpt lat="-27.2744392" lon="151.2900641">
  <ele>343.07</ele>
  <time>2026-09-01T20:03:20Z</time>
  <course>11.1</course>
  <speed>0.022360679774997897</speed>
  <fix>3d</fix>
</trkpt>
<trkpt lat="-27.274439" lon="151.290064">
  <ele>343.1</ele>
  <time>2026-09-01T20:03:20Z</time>
  <course>270.0</course>
  <speed>0.0</speed>
  <fix>3d</fix>
</trkpt>
<trkpt lat="-27.2744392" lon="151.2900641">
  <ele>343.07</ele>
  <time>2026-09-01T20:03:20Z</time>
  <course>11.1</course>
  <speed>0.022360679774997897</speed>
  <fix>3d</fix>
</trkpt>
<trkpt lat="-27.274439" lon="151.290064">
  <ele>343.1</ele>
  <time>2026-09-01T20:03:20Z</time>
  <course>270.0</course>
  <speed>0.0</speed>
  <fix>3d</fix>
</trkpt>
<trkpt lat="-27.2744392" lon="151.2900641">
  <ele>343.07</ele>
  <time>2026-09-01T20:03:20Z</time>
  <course>11.1</course>
  <speed>0.022360679774997897</speed>
  <fix>3d</fix>
</trkpt>
<trkpt lat="-27.274439" lon="151.290064">
  <ele>343.1</ele>
  <time>2026-09-01T20:03:20Z</time>
  <course>270.0</course>
  <speed>0.0</speed>
  <fix>3d</fix>
</trkpt>
<trkpt lat="-27.2744392" lon="151.2900641">
  <ele>343.07</ele>
  <time>2026-09-01T20:03:20Z</time>
  <course>11.1</course>
  <speed>0.022360679774997897</speed>
  <fix>3d</fix>
</trkpt>
<trkpt lat="-27.274439" lon="151.290064">
  <ele>343.1</ele>
  <time>2026-09-01T20:03:20Z</time>
  <course>270.0</course>
  <speed>0.0</speed>
  <fix>3d</fix>
</trkpt>
<trkpt lat="-27.2744392" lon="151.2900641">
  <ele>343.07</ele>
  <time>2026-09-01T20:03:20Z</time>
  <course>11.11</course>
  <speed>0.022360679774997897</speed>
  <fix>3d</fix>
</trkpt>
<trkpt lat="-27.274439" lon="151.290064">
  <ele>343.1</ele>
  <time>2026-09-01T20:03:20Z</time>
  <course>270.0</course>
  <speed>0.0</speed>
  <fix>3d</fix>
</trkpt>
<trkpt lat="-27.2744392" lon="151.2900641">
  <ele>343.07</ele>
  <time>2026-09-01T20:03:20Z</time>
  <course>11.11</course>
  <speed>0.022360679774997897</speed>
  <fix>3d</fix>
</trkpt>
<trkpt lat="-27.274439" lon="151.290064">
  <ele>343.1</ele>
  <time>2026-09-01T20:03:20Z</time>
  <course>270.0</course>
  <speed>0.0</speed>
  <fix>3d</fix>
</trkpt>
<trkpt lat="-27.2744392" lon="151.2900641">
  <ele>343.07</ele>
  <time>2026-09-01T20:03:20Z</time>
  <course>11.11</course>
  <speed>0.022360679774997897</speed>
  <fix>3d</fix>
</trkpt>
<trkpt lat="-27.274439" lon="151.290064">
  <ele>343.1</ele>
  <time>2026-09-01T20:03:20Z</time>
  <course>270.0</course>
  <speed>0.0</speed>
  <fix>3d</fix>
</trkpt>
<trkpt lat="-27.2744392" lon="151.2900641">
  <ele>343.07</ele>
  <time>2026-09-01T20:03:20Z</time>
  <course>11.11</course>
  <speed>0.022360679774997897</speed>
  <fix>3d</fix>
</trkpt>
<trkpt lat="-27.274439" lon="151.290064">
  <ele>343.1</ele>
  <time>2026-09-01T20:03:20Z</time>
  <course>270.0</course>
  <speed>0.0</speed>
  <fix>3d</fix>
</trkpt>
<trkpt lat="-27.2744392" lon="151.2900641">
  <ele>343.07</ele>
  <time>2026-09-01T20:03:20Z</time>
  <course>11.11</course>
  <speed>0.022360679774997897</speed>
  <fix>3d</fix>
</trkpt>
<trkpt lat="-27.274439" lon="151.290064">
  <ele>343.1</ele>
  <time>2026-09-01T20:03:20Z</time>
  <course>270.0</course>
  <speed>0.0</speed>
  <fix>3d</fix>
</trkpt>
<trkpt lat="-27.2744392" lon="151.2900641">
  <ele>343.08</ele>
  <time>2026-09-01T20:03:20Z</time>
  <course>11.11</course>
  <speed>0.022360679774997897</speed>
  <fix>3d</fix>
</trkpt>
<trkpt lat="-27.274439" lon="151.290064">
  <ele>343.1</ele>
  <time>2026-09-01T20:03:20Z</time>
  <course>270.0</course>
  <speed>0.0</speed>
  <fix>3d</fix>
</trkpt>
<trkpt lat="-27.2744392" lon="151.2900641">
  <ele>343.08</ele>
  <time>2026-09-01T20:03:20Z</time>
  <course>11.11</course>
  <speed>0.022360679774997897</speed>
  <fix>3d</fix>
</trkpt>
<trkpt lat="-27.274439" lon="151.290064">
  <ele>343.1</ele>
  <time>2026-09-01T20:03:20Z</time>
  <course>270.0</course>
  <speed>0.0</speed>
  <fix>3d</fix>
</trkpt>
<trkpt lat="-27.2744392" lon="151.2900641">
  <ele>343.08</ele>
  <time>2026-09-01T20:03:20Z</time>
  <course>11.11</course>
  <speed>0.022360679774997897</speed>
  <fix>3d</fix>
</trkpt>
<trkpt lat="-27.274439" lon="151.290064">
  <ele>343.1</ele>
  <time>2026-09-01T20:03:20Z</time>
  <course>270.0</course>
  <speed>0.0</speed>
  <fix>3d</fix>
</trkpt>
<trkpt lat="-27.2744392" lon="151.2900641">
  <ele>343.08</ele>
  <time>2026-09-01T20:03:20Z</time>
  <course>11.11</course>
  <speed>0.022360679774997897</speed>
  <fix>3d</fix>
</trkpt>
<trkpt lat="-27.274439" lon="151.290064">
  <ele>343.1</ele>
  <time>2026-09-01T20:03:20Z</time>
  <course>270.0</course>
  <speed>0.0</speed>
  <fix>3d</fix>
</trkpt>
<trkpt lat="-27.2744392" lon="151.2900641">
  <ele>343.08</ele>
  <time>2026-09-01T20:03:20Z</time>
  <course>11.11</course>
  <speed>0.022360679774997897</speed>
  <fix>3d</fix>
</trkpt>
<trkpt lat="-27.274439" lon="151.290064">
  <ele>343.1</ele>
  <time>2026-09-01T20:03:20Z</time>
  <course>270.0</course>
  <speed>0.0</speed>
  <fix>3d</fix>
</trkpt>
<trkpt lat="-27.2744392" lon="151.2900641">
  <ele>343.08</ele>
  <time>2026-09-01T20:03:20Z</time>
  <course>11.11</course>
  <speed>0.022360679774997897</speed>
  <fix>3d</fix>
</trkpt>
<trkpt lat="-27.274439" lon="151.290064">
  <ele>343.1</ele>
  <time>2026-09-01T20:03:20Z</time>
  <course>270.0</course>
  <speed>0.0</speed>
  <fix>3d</fix>
</trkpt>
<trkpt lat="-27.2744392" lon="151.2900641">
  <ele>343.08</ele>
  <time>2026-09-01T20:03:20Z</time>
  <course>11.12</course>
  <speed>0.022360679774997897</speed>
  <fix>3d</fix>
</trkpt>
<trkpt lat="-27.274439" lon="151.290064">
  <ele>343.1</ele>
  <time>2026-09-01T20:03:20Z</time>
  <course>270.0</course>
  <speed>0.0</speed>
  <fix>3d</fix>
</trkpt>
<trkpt lat="-27.2744392" lon="151.2900641">
  <ele>343.08</ele>
  <time>2026-09-01T20:03:20Z</time>
  <course>11.12</course>
  <speed>0.022360679774997897</speed>
  <fix>3d</fix>
</trkpt>
<trkpt lat="-27.274439" lon="151.290064">
  <ele>343.1</ele>
  <time>2026-09-01T20:03:20Z</time>
  <course>270.0</course>
  <speed>0.0</speed>
  <fix>3d</fix>
</trkpt>
<trkpt lat="-27.2744392" lon="151.2900641">
  <ele>343.08</ele>
  <time>2026-09-01T20:03:20Z</time>
  <course>11.12</course>
  <speed>0.022360679774997897</speed>
  <fix>3d</fix>
</trkpt>
<trkpt lat="-27.274439" lon="151.290064">
  <ele>343.1</ele>
  <time>2026-09-01T20:03:20Z</time>
  <course>270.0</course>
  <speed>0.0</speed>
  <fix>3d</fix>
</trkpt>
<trkpt lat="-27.2744392" lon="151.2900641">
  <ele>343.08</ele>
  <time>2026-09-01T20:03:20Z</time>
  <course>11.12</course>
  <speed>0.022360679774997897</speed>
  <fix>3d</fix>
</trkpt>
<trkpt lat="-27.274439" lon="151.290064">
  <ele>343.1</ele>
  <time>2026-09-01T20:03:20Z</time>
  <course>270.0</course>
  <speed>0.0</speed>
  <fix>3d</fix>
</trkpt>
<trkpt lat="-27.2744392" lon="151.2900641">
  <ele>343.08</ele>
  <time>2026-09-01T20:03:20Z</time>
  <course>11.12</course>
  <speed>0.022360679774997897</speed>
  <fix>3d</fix>
</trkpt>
<trkpt lat="-27.274439" lon="151.290064">
  <ele>343.1</ele>
  <time>2026-09-01T20:03:20Z</time>
  <course>270.0</course>
  <speed>0.0</speed>
  <fix>3d</fix>
</trkpt>
<trkpt lat="-27.2744392" lon="151.2900641">
  <ele>343.08</ele>
  <time>2026-09-01T20:03:20Z</time>
  <course>11.12</course>
  <speed>0.022360679774997897</speed>
  <fix>3d</fix>
</trkpt>
<trkpt lat="-27.274439" lon="151.290064">
  <ele>343.1</ele>
  <time>2026-09-01T20:03:20Z</time>
  <course>270.0</course>
  <speed>0.0</speed>
  <fix>3d</fix>
</trkpt>
<trkpt lat="-27.2744392" lon="151.2900641">
  <ele>343.08</ele>
  <time>2026-09-01T20:03:20Z</time>
  <course>11.12</course>
  <speed>0.022360679774997897</speed>
  <fix>3d</fix>
</trkpt>
<trkpt lat="-27.274439" lon="151.290064">
  <ele>343.1</ele>
  <time>2026-09-01T20:03:20Z</time>
  <course>270.0</course>
  <speed>0.0</speed>
  <fix>3d</fix>
</trkpt>
<trkpt lat="-27.2744392" lon="151.2900641">
  <ele>343.08</ele>
  <time>2026-09-01T20:03:20Z</time>
  <course>11.12</course>
  <speed>0.022360679774997897</speed>
  <fix>3d</fix>
</trkpt>
<trkpt lat="-27.274439" lon="151.290064">
  <ele>343.1</ele>
  <time>2026-09-01T20:03:20Z</time>
  <course>270.0</course>
  <speed>0.0</speed>
  <fix>3d</fix>
</trkpt>
<trkpt lat="-27.2744392" lon="151.2900641">
  <ele>343.08</ele>
  <time>2026-09-01T20:03:20Z</time>
  <course>11.12</course>
  <speed>0.022360679774997897</speed>
  <fix>3d</fix>
</trkpt>
<trkpt lat="-27.274439" lon="151.290064">
  <ele>343.1</ele>
  <time>2026-09-01T20:03:20Z</time>
  <course>270.0</course>
  <speed>0.0</speed>
  <fix>3d</fix>
</trkpt>
<trkpt lat="-27.2744392" lon="151.2900641">
  <ele>343.08</ele>
  <time>2026-09-01T20:03:20Z</time>
  <course>11.12</course>
  <speed>0.022360679774997897</speed>
  <fix>3d</fix>
</trkpt>
<trkpt lat="-27.274439" lon="151.290064">
  <ele>343.1</ele>
  <time>2026-09-01T20:03:20Z</time>
  <course>270.0</course>
  <speed>0.0</speed>
  <fix>3d</fix>
</trkpt>
<trkpt lat="-27.2744392" lon="151.2900641">
  <ele>343.08</ele>
  <time>2026-09-01T20:03:20Z</time>
  <course>11.13</course>
  <speed>0.022360679774997897</speed>
  <fix>3d</fix>
</trkpt>
<trkpt lat="-27.274439" lon="151.290064">
  <ele>343.1</ele>
  <time>2026-09-01T20:03:20Z</time>
  <course>270.0</course>
  <speed>0.0</speed>
  <fix>3d</fix>
</trkpt>
<trkpt lat="-27.2744392" lon="151.2900641">
  <ele>343.08</ele>
  <time>2026-09-01T20:03:20Z</time>
  <course>11.13</course>
  <speed>0.022360679774997897</speed>
  <fix>3d</fix>
</trkpt>
<trkpt lat="-27.274439" lon="151.290064">
  <ele>343.1</ele>
  <time>2026-09-01T20:03:20Z</time>
  <course>270.0</course>
  <speed>0.0</speed>
  <fix>3d</fix>
</trkpt>
<trkpt lat="-27.2744392" lon="151.2900641">
  <ele>343.08</ele>
  <time>2026-09-01T20:03:20Z</time>
  <course>11.13</course>
  <speed>0.022360679774997897</speed>
  <fix>3d</fix>
</trkpt>
<trkpt lat="-27.274439" lon="151.290064">
  <ele>343.1</ele>
  <time>2026-09-01T20:03:20Z</time>
  <course>270.0</course>
  <speed>0.0</speed>
  <fix>3d</fix>
</trkpt>
<trkpt lat="-27.2744392" lon="151.2900641">
  <ele>343.08</ele>
  <time>2026-09-01T20:03:20Z</time>
  <course>11.13</course>
  <speed>0.022360679774997897</speed>
  <fix>3d</fix>
</trkpt>
<trkpt lat="-27.274439" lon="151.290064">
  <ele>343.1</ele>
  <time>2026-09-01T20:03:20Z</time>
  <course>270.0</course>
  <speed>0.0</speed>
  <fix>3d</fix>
</trkpt>
<trkpt lat="-27.2744392" lon="151.2900641">
  <ele>343.08</ele>
  <time>2026-09-01T20:03:20Z</time>
  <course>11.13</course>
  <speed>0.022360679774997897</speed>
  <fix>3d</fix>
</trkpt>
<trkpt lat="-27.274439" lon="151.290064">
  <ele>343.1</ele>
  <time>2026-09-01T20:03:20Z</time>
  <course>270.0</course>
  <speed>0.0</speed>
  <fix>3d</fix>
</trkpt>
<trkpt lat="-27.2744392" lon="151.2900641">
  <ele>343.08</ele>
  <time>2026-09-01T20:03:20Z</time>
  <course>11.13</course>
  <speed>0.022360679774997897</speed>
  <fix>3d</fix>
</trkpt>
<trkpt lat="-27.274439" lon="151.290064">
  <ele>343.1</ele>
  <time>2026-09-01T20:03:20Z</time>
  <course>270.0</course>
  <speed>0.0</speed>
  <fix>3d</fix>
</trkpt>
<trkpt lat="-27.2744392" lon="151.2900641">
  <ele>343.08</ele>
  <time>2026-09-01T20:03:20Z</time>
  <course>11.13</course>
  <speed>0.022360679774997897</speed>
  <fix>3d</fix>
</trkpt>
<trkpt lat="-27.274439" lon="151.290064">
  <ele>343.1</ele>
  <time>2026-09-01T20:03:20Z</time>
  <course>270.0</course>
  <speed>0.0</speed>
  <fix>3d</fix>
</trkpt>
<trkpt lat="-27.2744392" lon="151.2900641">
  <ele>343.09</ele>
  <time>2026-09-01T20:03:20Z</time>
  <course>11.13</course>
  <speed>0.022360679774997897</speed>
  <fix>3d</fix>
</trkpt>
<trkpt lat="-27.274439" lon="151.290064">
  <ele>343.1</ele>
  <time>2026-09-01T20:03:20Z</time>
  <course>270.0</course>
  <speed>0.0</speed>
  <fix>3d</fix>
</trkpt>
<trkpt lat="-27.2744392" lon="151.2900641">
  <ele>343.08</ele>
  <time>2026-09-01T20:03:20Z</time>
  <course>11.13</course>
  <speed>0.022360679774997897</speed>
  <fix>3d</fix>
</trkpt>
<trkpt lat="-27.274439" lon="151.290064">
  <ele>343.1</ele>
  <time>2026-09-01T20:03:20Z</time>
  <course>270.0</course>
  <speed>0.0</speed>
  <fix>3d</fix>
</trkpt>
<trkpt lat="-27.2744392" lon="151.2900641">
  <ele>343.08</ele>
  <time>2026-09-01T20:03:20Z</time>
  <course>11.13</course>
  <speed>0.022360679774997897</speed>
  <fix>3d</fix>
</trkpt>
<trkpt lat="-27.274439" lon="151.290064">
  <ele>343.1</ele>
  <time>2026-09-01T20:03:20Z</time>
  <course>270.0</course>
  <speed>0.0</speed>
  <fix>3d</fix>
</trkpt>
<trkpt lat="-27.2744392" lon="151.2900641">
  <ele>343.08</ele>
  <time>2026-09-01T20:03:20Z</time>
  <course>11.14</course>
  <speed>0.022360679774997897</speed>
  <fix>3d</fix>
</trkpt>
<trkpt lat="-27.274439" lon="151.290064">
  <ele>343.1</ele>
  <time>2026-09-01T20:03:20Z</time>
  <course>270.0</course>
  <speed>0.0</speed>
  <fix>3d</fix>
</trkpt>
<trkpt lat="-27.2744392" lon="151.2900641">
  <ele>343.08</ele>
  <time>2026-09-01T20:03:20Z</time>
  <course>11.14</course>
  <speed>0.022360679774997897</speed>
  <fix>3d</fix>
</trkpt>
<trkpt lat="-27.274439" lon="151.290064">
  <ele>343.1</ele>
  <time>2026-09-01T20:03:20Z</time>
  <course>270.0</course>
  <speed>0.0</speed>
  <fix>3d</fix>
</trkpt>
<trkpt lat="-27.2744392" lon="151.2900641">
  <ele>343.08</ele>
  <time>2026-09-01T20:03:20Z</time>
  <course>11.14</course>
  <speed>0.022360679774997897</speed>
  <fix>3d</fix>
</trkpt>
<trkpt lat="-27.274439" lon="151.290064">
  <ele>343.1</ele>
  <time>2026-09-01T20:03:20Z</time>
  <course>270.0</course>
  <speed>0.0</speed>
  <fix>3d</fix>
</trkpt>
<trkpt lat="-27.2744392" lon="151.2900641">
  <ele>343.08</ele>
  <time>2026-09-01T20:03:20Z</time>
  <course>11.14</course>
  <speed>0.022360679774997897</speed>
  <fix>3d</fix>
</trkpt>
<trkpt lat="-27.274439" lon="151.290064">
  <ele>343.1</ele>
  <time>2026-09-01T20:03:20Z</time>
  <course>270.0</course>
  <speed>0.0</speed>
  <fix>3d</fix>
</trkpt>
<trkpt lat="-27.2744392" lon="151.2900641">
  <ele>343.08</ele>
  <time>2026-09-01T20:03:20Z</time>
  <course>11.14</course>
  <speed>0.022360679774997897</speed>
  <fix>3d</fix>
</trkpt>
<trkpt lat="-27.274439" lon="151.290064">
  <ele>343.1</ele>
  <time>2026-09-01T20:03:20Z</time>
  <course>270.0</course>
  <speed>0.0</speed>
  <fix>3d</fix>
</trkpt>
<trkpt lat="-27.2744392" lon="151.2900641">
  <ele>343.08</ele>
  <time>2026-09-01T20:03:20Z</time>
  <course>11.14</course>
  <speed>0.022360679774997897</speed>
  <fix>3d</fix>
</trkpt>
<trkpt lat="-27.274439" lon="151.290064">
  <ele>343.1</ele>
  <time>2026-09-01T20:03:20Z</time>
  <course>270.0</course>
  <speed>0.0</speed>
  <fix>3d</fix>
</trkpt>
<trkpt lat="-27.2744392" lon="151.2900641">
  <ele>343.1</ele>
  <time>2026-09-01T20:03:20Z</time>
  <course>11.14</course>
  <speed>0.022360679774997897</speed>
  <fix>3d</fix>
</trkpt>
<trkpt lat="-27.274439" lon="151.290064">
  <ele>343.1</ele>
  <time>2026-09-01T20:03:20Z</time>
  <course>270.0</course>
  <speed>0.0</speed>
  <fix>3d</fix>
</trkpt>
<trkpt lat="-27.2744392" lon="151.2900641">
  <ele>343.09</ele>
  <time>2026-09-01T20:03:20Z</time>
  <course>11.14</course>
  <speed>0.022360679774997897</speed>
  <fix>3d</fix>
</trkpt>
<trkpt lat="-27.274439" lon="151.290064">
  <ele>343.1</ele>
  <time>2026-09-01T20:03:20Z</time>
  <course>270.0</course>
  <speed>0.0</speed>
  <fix>3d</fix>
</trkpt>
<trkpt lat="-27.2744392" lon="151.2900641">
  <ele>343.09</ele>
  <time>2026-09-01T20:03:20Z</time>
  <course>11.14</course>
  <speed>0.022360679774997897</speed>
  <fix>3d</fix>
</trkpt>
<trkpt lat="-27.274439" lon="151.290064">
  <ele>343.1</ele>
  <time>2026-09-01T20:03:20Z</time>
  <course>270.0</course>
  <speed>0.0</speed>
  <fix>3d</fix>
</trkpt>
<trkpt lat="-27.2744392" lon="151.2900641">
  <ele>343.1</ele>
  <time>2026-09-01T20:03:20Z</time>
  <course>11.15</course>
  <speed>0.022360679774997897</speed>
  <fix>3d</fix>
</trkpt>
<trkpt lat="-27.274439" lon="151.290064">
  <ele>343.1</ele>
  <time>2026-09-01T20:03:20Z</time>
  <course>270.0</course>
  <speed>0.0</speed>
  <fix>3d</fix>
</trkpt>
<trkpt lat="-27.2744392" lon="151.2900641">
  <ele>343.1</ele>
  <time>2026-09-01T20:03:20Z</time>
  <course>11.15</course>
  <speed>0.022360679774997897</speed>
  <fix>3d</fix>
</trkpt>
<trkpt lat="-27.274439" lon="151.290064">
  <ele>343.1</ele>
  <time>2026-09-01T20:03:20Z</time>
  <course>270.0</course>
  <speed>0.0</speed>
  <fix>3d</fix>
</trkpt>
<trkpt lat="-27.2744392" lon="151.2900641">
  <ele>343.1</ele>
  <time>2026-09-01T20:03:20Z</time>
  <course>11.15</course>
  <speed>0.022360679774997897</speed>
  <fix>3d</fix>
</trkpt>
<trkpt lat="-27.274439" lon="151.290064">
  <ele>343.1</ele>
  <time>2026-09-01T20:03:20Z</time>
  <course>270.0</course>
  <speed>0.0</speed>
  <fix>3d</fix>
</trkpt>
<trkpt lat="-27.2744392" lon="151.2900641">
  <ele>343.11</ele>
  <time>2026-09-01T20:03:20Z</time>
  <course>11.15</course>
  <speed>0.022360679774997897</speed>
  <fix>3d</fix>
</trkpt>
<trkpt lat="-27.274439" lon="151.290064">
  <ele>343.1</ele>
  <time>2026-09-01T20:03:20Z</time>
  <course>270.0</course>
  <speed>0.0</speed>
  <fix>3d</fix>
</trkpt>
<trkpt lat="-27.2744392" lon="151.2900641">
  <ele>343.11</ele>
  <time>2026-09-01T20:03:20Z</time>
  <course>11.15</course>
  <speed>0.022360679774997897</speed>
  <fix>3d</fix>
</trkpt>
<trkpt lat="-27.274439" lon="151.290064">
  <ele>343.1</ele>
  <time>2026-09-01T20:03:20Z</time>
  <course>270.0</course>
  <speed>0.0</speed>
  <fix>3d</fix>
</trkpt>
<trkpt lat="-27.2744392" lon="151.2900641">
  <ele>343.11</ele>
  <time>2026-09-01T20:03:20Z</time>
  <course>11.15</course>
  <speed>0.022360679774997897</speed>
  <fix>3d</fix>
</trkpt>
<trkpt lat="-27.274439" lon="151.290064">
  <ele>343.1</ele>
  <time>2026-09-01T20:03:20Z</time>
  <course>270.0</course>
  <speed>0.0</speed>
  <fix>3d</fix>
</trkpt>
<trkpt lat="-27.2744392" lon="151.2900641">
  <ele>343.12</ele>
  <time>2026-09-01T20:03:20Z</time>
  <course>11.15</course>
  <speed>0.022360679774997897</speed>
  <fix>3d</fix>
</trkpt>
<trkpt lat="-27.274439" lon="151.290064">
  <ele>343.1</ele>
  <time>2026-09-01T20:03:20Z</time>
  <course>270.0</course>
  <speed>0.0</speed>
  <fix>3d</fix>
</trkpt>
<trkpt lat="-27.2744392" lon="151.2900641">
  <ele>343.12</ele>
  <time>2026-09-01T20:03:20Z</time>
  <course>11.15</course>
  <speed>0.022360679774997897</speed>
  <fix>3d</fix>
</trkpt>
<trkpt lat="-27.274439" lon="151.290064">
  <ele>343.1</ele>
  <time>2026-09-01T20:03:20Z</time>
  <course>270.0</course>
  <speed>0.0</speed>
  <fix>3d</fix>
</trkpt>
<trkpt lat="-27.2744392" lon="151.2900641">
  <ele>343.13</ele>
  <time>2026-09-01T20:03:20Z</time>
  <course>11.15</course>
  <speed>0.022360679774997897</speed>
  <fix>3d</fix>
</trkpt>
<trkpt lat="-27.274439" lon="151.290064">
  <ele>343.1</ele>
  <time>2026-09-01T20:03:20Z</time>
  <course>270.0</course>
  <speed>0.0</speed>
  <fix>3d</fix>
</trkpt>
<trkpt lat="-27.2744392" lon="151.2900641">
  <ele>343.13</ele>
  <time>2026-09-01T20:03:20Z</time>
  <course>11.15</course>
  <speed>0.022360679774997897</speed>
  <fix>3d</fix>
</trkpt>
<trkpt lat="-27.274439" lon="151.290064">
  <ele>343.1</ele>
  <time>2026-09-01T20:03:20Z</time>
  <course>270.0</course>
  <speed>0.0</speed>
  <fix>3d</fix>
</trkpt>
<trkpt lat="-27.2744392" lon="151.2900641">
  <ele>343.13</ele>
  <time>2026-09-01T20:03:20Z</time>
  <course>11.16</course>
  <speed>0.022360679774997897</speed>
  <fix>3d</fix>
</trkpt>
<trkpt lat="-27.274439" lon="151.290064">
  <ele>343.1</ele>
  <time>2026-09-01T20:03:20Z</time>
  <course>270.0</course>
  <speed>0.0</speed>
  <fix>3d</fix>
</trkpt>
<trkpt lat="-27.2744392" lon="151.2900641">
  <ele>343.14</ele>
  <time>2026-09-01T20:03:20Z</time>
  <course>11.16</course>
  <speed>0.022360679774997897</speed>
  <fix>3d</fix>
</trkpt>
<trkpt lat="-27.274439" lon="151.290064">
  <ele>343.1</ele>
  <time>2026-09-01T20:03:20Z</time>
  <course>270.0</course>
  <speed>0.0</speed>
  <fix>3d</fix>
</trkpt>
<trkpt lat="-27.2744392" lon="151.2900641">
  <ele>343.14</ele>
  <time>2026-09-01T20:03:20Z</time>
  <course>11.16</course>
  <speed>0.022360679774997897</speed>
  <fix>3d</fix>
</trkpt>
<trkpt lat="-27.274439" lon="151.290064">
  <ele>343.1</ele>
  <time>2026-09-01T20:03:20Z</time>
  <course>270.0</course>
  <speed>0.0</speed>
  <fix>3d</fix>
</trkpt>
<trkpt lat="-27.2744392" lon="151.2900641">
  <ele>343.15</ele>
  <time>2026-09-01T20:03:20Z</time>
  <course>11.16</course>
  <speed>0.022360679774997897</speed>
  <fix>3d</fix>
</trkpt>
<trkpt lat="-27.274439" lon="151.290064">
  <ele>343.1</ele>
  <time>2026-09-01T20:03:20Z</time>
  <course>270.0</course>
  <speed>0.0</speed>
  <fix>3d</fix>
</trkpt>
<trkpt lat="-27.2744392" lon="151.2900641">
  <ele>343.15</ele>
  <time>2026-09-01T20:03:20Z</time>
  <course>11.16</course>
  <speed>0.022360679774997897</speed>
  <fix>3d</fix>
</trkpt>
<trkpt lat="-27.274439" lon="151.290064">
  <ele>343.1</ele>
  <time>2026-09-01T20:03:20Z</time>
  <course>270.0</course>
  <speed>0.0</speed>
  <fix>3d</fix>
</trkpt>
<trkpt lat="-27.2744392" lon="151.2900641">
  <ele>343.15</ele>
  <time>2026-09-01T20:03:20Z</time>
  <course>11.16</course>
  <speed>0.022360679774997897</speed>
  <fix>3d</fix>
</trkpt>
<trkpt lat="-27.274439" lon="151.290064">
  <ele>343.1</ele>
  <time>2026-09-01T20:03:20Z</time>
  <course>270.0</course>
  <speed>0.0</speed>
  <fix>3d</fix>
</trkpt>
<trkpt lat="-27.2744392" lon="151.2900641">
  <ele>343.16</ele>
  <time>2026-09-01T20:03:20Z</time>
  <course>11.16</course>
  <speed>0.022360679774997897</speed>
  <fix>3d</fix>
</trkpt>
<trkpt lat="-27.274439" lon="151.290064">
  <ele>343.1</ele>
  <time>2026-09-01T20:03:20Z</time>
  <course>270.0</course>
  <speed>0.0</speed>
  <fix>3d</fix>
</trkpt>
<trkpt lat="-27.2744392" lon="151.2900641">
  <ele>343.16</ele>
  <time>2026-09-01T20:03:20Z</time>
  <course>11.16</course>
  <speed>0.022360679774997897</speed>
  <fix>3d</fix>
</trkpt>
<trkpt lat="-27.274439" lon="151.290064">
  <ele>343.1</ele>
  <time>2026-09-01T20:03:20Z</time>
  <course>270.0</course>
  <speed>0.0</speed>
  <fix>3d</fix>
</trkpt>
<trkpt lat="-27.2744392" lon="151.2900641">
  <ele>343.16</ele>
  <time>2026-09-01T20:03:20Z</time>
  <course>11.16</course>
  <speed>0.022360679774997897</speed>
  <fix>3d</fix>
</trkpt>
<trkpt lat="-27.274439" lon="151.290064">
  <ele>343.1</ele>
  <time>2026-09-01T20:03:20Z</time>
  <course>270.0</course>
  <speed>0.0</speed>
  <fix>3d</fix>
</trkpt>
<trkpt lat="-27.2744392" lon="151.2900641">
  <ele>343.17</ele>
  <time>2026-09-01T20:03:20Z</time>
  <course>11.17</course>
  <speed>0.022360679774997897</speed>
  <fix>3d</fix>
</trkpt>
<trkpt lat="-27.274439" lon="151.290064">
  <ele>343.1</ele>
  <time>2026-09-01T20:03:20Z</time>
  <course>270.0</course>
  <speed>0.0</speed>
  <fix>3d</fix>
</trkpt>
<trkpt lat="-27.2744392" lon="151.2900641">
  <ele>343.17</ele>
  <time>2026-09-01T20:03:20Z</time>
  <course>11.17</course>
  <speed>0.022360679774997897</speed>
  <fix>3d</fix>
</trkpt>
<trkpt lat="-27.274439" lon="151.290064">
  <ele>343.1</ele>
  <time>2026-09-01T20:03:20Z</time>
  <course>270.0</course>
  <speed>0.0</speed>
  <fix>3d</fix>
</trkpt>
<trkpt lat="-27.2744392" lon="151.2900641">
  <ele>343.17</ele>
  <time>2026-09-01T20:03:20Z</time>
  <course>11.17</course>
  <speed>0.022360679774997897</speed>
  <fix>3d</fix>
</trkpt>
<trkpt lat="-27.274439" lon="151.290064">
  <ele>343.1</ele>
  <time>2026-09-01T20:03:20Z</time>
  <course>270.0</course>
  <speed>0.0</speed>
  <fix>3d</fix>
</trkpt>
<trkpt lat="-27.2744392" lon="151.2900641">
  <ele>343.18</ele>
  <time>2026-09-01T20:03:20Z</time>
  <course>11.17</course>
  <speed>0.022360679774997897</speed>
  <fix>3d</fix>
</trkpt>
<trkpt lat="-27.274439" lon="151.290064">
  <ele>343.1</ele>
  <time>2026-09-01T20:03:20Z</time>
  <course>270.0</course>
  <speed>0.0</speed>
  <fix>3d</fix>
</trkpt>
<trkpt lat="-27.2744392" lon="151.2900641">
  <ele>343.18</ele>
  <time>2026-09-01T20:03:20Z</time>
  <course>11.17</course>
  <speed>0.022360679774997897</speed>
  <fix>3d</fix>
</trkpt>
<trkpt lat="-27.274439" lon="151.290064">
  <ele>343.1</ele>
  <time>2026-09-01T20:03:20Z</time>
  <course>270.0</course>
  <speed>0.0</speed>
  <fix>3d</fix>
</trkpt>
<trkpt lat="-27.2744392" lon="151.2900641">
  <ele>343.18</ele>
  <time>2026-09-01T20:03:20Z</time>
  <course>11.17</course>
  <speed>0.022360679774997897</speed>
  <fix>3d</fix>
</trkpt>
<trkpt lat="-27.274439" lon="151.290064">
  <ele>343.1</ele>
  <time>2026-09-01T20:03:20Z</time>
  <course>270.0</course>
  <speed>0.0</speed>
  <fix>3d</fix>
</trkpt>
<trkpt lat="-27.2744392" lon="151.2900641">
  <ele>343.19</ele>
  <time>2026-09-01T20:03:20Z</time>
  <course>11.17</course>
  <speed>0.022360679774997897</speed>
  <fix>3d</fix>
</trkpt>
<trkpt lat="-27.274439" lon="151.290064">
  <ele>343.1</ele>
  <time>2026-09-01T20:03:20Z</time>
  <course>270.0</course>
  <speed>0.0</speed>
  <fix>3d</fix>
</trkpt>
<trkpt lat="-27.2744392" lon="151.2900641">
  <ele>343.19</ele>
  <time>2026-09-01T20:03:20Z</time>
  <course>11.17</course>
  <speed>0.022360679774997897</speed>
  <fix>3d</fix>
</trkpt>
<trkpt lat="-27.274439" lon="151.290064">
  <ele>343.1</ele>
  <time>2026-09-01T20:03:20Z</time>
  <course>270.0</course>
  <speed>0.0</speed>
  <fix>3d</fix>
</trkpt>
<trkpt lat="-27.2744392" lon="151.2900641">
  <ele>343.19</ele>
  <time>2026-09-01T20:03:20Z</time>
  <course>11.17</course>
  <speed>0.022360679774997897</speed>
  <fix>3d</fix>
</trkpt>
<trkpt lat="-27.274439" lon="151.290064">
  <ele>343.1</ele>
  <time>2026-09-01T20:03:20Z</time>
  <course>270.0</course>
  <speed>0.0</speed>
  <fix>3d</fix>
</trkpt>
<trkpt lat="-27.2744392" lon="151.2900641">
  <ele>343.2</ele>
  <time>2026-09-01T20:03:20Z</time>
  <course>11.17</course>
  <speed>0.022360679774997897</speed>
  <fix>3d</fix>
</trkpt>
<trkpt lat="-27.274439" lon="151.290064">
  <ele>343.1</ele>
  <time>2026-09-01T20:03:20Z</time>
  <course>270.0</course>
  <speed>0.0</speed>
  <fix>3d</fix>
</trkpt>
<trkpt lat="-27.2744392" lon="151.2900641">
  <ele>343.2</ele>
  <time>2026-09-01T20:03:20Z</time>
  <course>11.17</course>
  <speed>0.022360679774997897</speed>
  <fix>3d</fix>
</trkpt>
<trkpt lat="-27.274439" lon="151.290064">
  <ele>343.1</ele>
  <time>2026-09-01T20:03:20Z</time>
  <course>270.0</course>
  <speed>0.0</speed>
  <fix>3d</fix>
</trkpt>
<trkpt lat="-27.2744392" lon="151.2900641">
  <ele>343.2</ele>
  <time>2026-09-01T20:03:20Z</time>
  <course>11.18</course>
  <speed>0.022360679774997897</speed>
  <fix>3d</fix>
</trkpt>
<trkpt lat="-27.274439" lon="151.290064">
  <ele>343.1</ele>
  <time>2026-09-01T20:03:20Z</time>
  <course>270.0</course>
  <speed>0.0</speed>
  <fix>3d</fix>
</trkpt>
<trkpt lat="-27.2744392" lon="151.2900641">
  <ele>343.2</ele>
  <time>2026-09-01T20:03:20Z</time>
  <course>11.18</course>
  <speed>0.022360679774997897</speed>
  <fix>3d</fix>
</trkpt>
<trkpt lat="-27.274439" lon="151.290064">
  <ele>343.1</ele>
  <time>2026-09-01T20:03:20Z</time>
  <course>270.0</course>
  <speed>0.0</speed>
  <fix>3d</fix>
</trkpt>
<trkpt lat="-27.2744392" lon="151.2900641">
  <ele>343.21</ele>
  <time>2026-09-01T20:03:20Z</time>
  <course>11.18</course>
  <speed>0.022360679774997897</speed>
  <fix>3d</fix>
</trkpt>
<trkpt lat="-27.274439" lon="151.290064">
  <ele>343.1</ele>
  <time>2026-09-01T20:03:20Z</time>
  <course>270.0</course>
  <speed>0.0</speed>
  <fix>3d</fix>
</trkpt>
<trkpt lat="-27.2744392" lon="151.2900641">
  <ele>343.21</ele>
  <time>2026-09-01T20:03:20Z</time>
  <course>11.18</course>
  <speed>0.022360679774997897</speed>
  <fix>3d</fix>
</trkpt>
<trkpt lat="-27.274439" lon="151.290064">
  <ele>343.1</ele>
  <time>2026-09-01T20:03:20Z</time>
  <course>270.0</course>
  <speed>0.0</speed>
  <fix>3d</fix>
</trkpt>
<trkpt lat="-27.2744392" lon="151.2900641">
  <ele>343.21</ele>
  <time>2026-09-01T20:03:20Z</time>
  <course>11.18</course>
  <speed>0.022360679774997897</speed>
  <fix>3d</fix>
</trkpt>
<trkpt lat="-27.274439" lon="151.290064">
  <ele>343.1</ele>
  <time>2026-09-01T20:03:20Z</time>
  <course>270.0</course>
  <speed>0.0</speed>
  <fix>3d</fix>
</trkpt>
<trkpt lat="-27.2744392" lon="151.2900641">
  <ele>343.22</ele>
  <time>2026-09-01T20:03:20Z</time>
  <course>11.18</course>
  <speed>0.022360679774997897</speed>
  <fix>3d</fix>
</trkpt>
<trkpt lat="-27.274439" lon="151.290064">
  <ele>343.1</ele>
  <time>2026-09-01T20:03:20Z</time>
  <course>270.0</course>
  <speed>0.0</speed>
  <fix>3d</fix>
</trkpt>
<trkpt lat="-27.2744392" lon="151.2900641">
  <ele>343.22</ele>
  <time>2026-09-01T20:03:20Z</time>
  <course>11.18</course>
  <speed>0.022360679774997897</speed>
  <fix>3d</fix>
</trkpt>
<trkpt lat="-27.274439" lon="151.290064">
  <ele>343.1</ele>
  <time>2026-09-01T20:03:20Z</time>
  <course>270.0</course>
  <speed>0.0</speed>
  <fix>3d</fix>
</trkpt>
<trkpt lat="-27.2744392" lon="151.2900641">
  <ele>343.23</ele>
  <time>2026-09-01T20:03:20Z</time>
  <course>11.18</course>
  <speed>0.022360679774997897</speed>
  <fix>3d</fix>
</trkpt>
<trkpt lat="-27.274439" lon="151.290064">
  <ele>343.1</ele>
  <time>2026-09-01T20:03:20Z</time>
  <course>270.0</course>
  <speed>0.0</speed>
  <fix>3d</fix>
</trkpt>
<trkpt lat="-27.2744392" lon="151.2900641">
  <ele>343.23</ele>
  <time>2026-09-01T20:03:20Z</time>
  <course>11.18</course>
  <speed>0.022360679774997897</speed>
  <fix>3d</fix>
</trkpt>
<trkpt lat="-27.274439" lon="151.290064">
  <ele>343.1</ele>
  <time>2026-09-01T20:03:20Z</time>
  <course>270.0</course>
  <speed>0.0</speed>
  <fix>3d</fix>
</trkpt>
<trkpt lat="-27.2744392" lon="151.2900641">
  <ele>343.23</ele>
  <time>2026-09-01T20:03:20Z</time>
  <course>11.19</course>
  <speed>0.022360679774997897</speed>
  <fix>3d</fix>
</trkpt>
<trkpt lat="-27.274439" lon="151.290064">
  <ele>343.1</ele>
  <time>2026-09-01T20:03:20Z</time>
  <course>270.0</course>
  <speed>0.0</speed>
  <fix>3d</fix>
</trkpt>
<trkpt lat="-27.2744392" lon="151.2900641">
  <ele>343.23</ele>
  <time>2026-09-01T20:03:20Z</time>
  <course>11.19</course>
  <speed>0.022360679774997897</speed>
  <fix>3d</fix>
</trkpt>
<trkpt lat="-27.274439" lon="151.290064">
  <ele>343.1</ele>
  <time>2026-09-01T20:03:20Z</time>
  <course>270.0</course>
  <speed>0.0</speed>
  <fix>3d</fix>
</trkpt>
<trkpt lat="-27.2744392" lon="151.2900641">
  <ele>343.24</ele>
  <time>2026-09-01T20:03:20Z</time>
  <course>11.19</course>
  <speed>0.022360679774997897</speed>
  <fix>3d</fix>
</trkpt>
<trkpt lat="-27.274439" lon="151.290064">
  <ele>343.1</ele>
  <time>2026-09-01T20:03:20Z</time>
  <course>270.0</course>
  <speed>0.0</speed>
  <fix>3d</fix>
</trkpt>
<trkpt lat="-27.2744392" lon="151.2900641">
  <ele>343.24</ele>
  <time>2026-09-01T20:03:20Z</time>
  <course>11.19</course>
  <speed>0.022360679774997897</speed>
  <fix>3d</fix>
</trkpt>
<trkpt lat="-27.274439" lon="151.290064">
  <ele>343.1</ele>
  <time>2026-09-01T20:03:20Z</time>
  <course>270.0</course>
  <speed>0.0</speed>
  <fix>3d</fix>
</trkpt>
<trkpt lat="-27.2744392" lon="151.2900641">
  <ele>343.24</ele>
  <time>2026-09-01T20:03:20Z</time>
  <course>11.19</course>
  <speed>0.022360679774997897</speed>
  <fix>3d</fix>
</trkpt>
<trkpt lat="-27.274439" lon="151.290064">
  <ele>343.1</ele>
  <time>2026-09-01T20:03:20Z</time>
  <course>270.0</course>
  <speed>0.0</speed>
  <fix>3d</fix>
</trkpt>
<trkpt lat="-27.2744392" lon="151.2900641">
  <ele>343.24</ele>
  <time>2026-09-01T20:03:20Z</time>
  <course>11.19</course>
  <speed>0.022360679774997897</speed>
  <fix>3d</fix>
</trkpt>
<trkpt lat="-27.274439" lon="151.290064">
  <ele>343.1</ele>
  <time>2026-09-01T20:03:20Z</time>
  <course>270.0</course>
  <speed>0.0</speed>
  <fix>3d</fix>
</trkpt>
<trkpt lat="-27.2744392" lon="151.2900641">
  <ele>343.24</ele>
  <time>2026-09-01T20:03:20Z</time>
  <course>11.19</course>
  <speed>0.022360679774997897</speed>
  <fix>3d</fix>
</trkpt>
<trkpt lat="-27.274439" lon="151.290064">
  <ele>343.1</ele>
  <time>2026-09-01T20:03:20Z</time>
  <course>270.0</course>
  <speed>0.0</speed>
  <fix>3d</fix>
</trkpt>
<trkpt lat="-27.2744392" lon="151.2900641">
  <ele>343.24</ele>
  <time>2026-09-01T20:03:20Z</time>
  <course>11.19</course>
  <speed>0.022360679774997897</speed>
  <fix>3d</fix>
</trkpt>
<trkpt lat="-27.274439" lon="151.290064">
  <ele>343.1</ele>
  <time>2026-09-01T20:03:20Z</time>
  <course>270.0</course>
  <speed>0.0</speed>
  <fix>3d</fix>
</trkpt>
<trkpt lat="-27.2744392" lon="151.2900641">
  <ele>343.24</ele>
  <time>2026-09-01T20:03:20Z</time>
  <course>11.19</course>
  <speed>0.022360679774997897</speed>
  <fix>3d</fix>
</trkpt>
<trkpt lat="-27.274439" lon="151.290064">
  <ele>343.1</ele>
  <time>2026-09-01T20:03:20Z</time>
  <course>270.0</course>
  <speed>0.0</speed>
  <fix>3d</fix>
</trkpt>
<trkpt lat="-27.2744392" lon="151.2900641">
  <ele>343.24</ele>
  <time>2026-09-01T20:03:20Z</time>
  <course>11.19</course>
  <speed>0.022360679774997897</speed>
  <fix>3d</fix>
</trkpt>
<trkpt lat="-27.274439" lon="151.290064">
  <ele>343.1</ele>
  <time>2026-09-01T20:03:20Z</time>
  <course>270.0</course>
  <speed>0.0</speed>
  <fix>3d</fix>
</trkpt>
<trkpt lat="-27.2744392" lon="151.2900641">
  <ele>343.24</ele>
  <time>2026-09-01T20:03:20Z</time>
  <course>11.2</course>
  <speed>0.022360679774997897</speed>
  <fix>3d</fix>
</trkpt>
<trkpt lat="-27.274439" lon="151.290064">
  <ele>343.1</ele>
  <time>2026-09-01T20:03:20Z</time>
  <course>270.0</course>
  <speed>0.0</speed>
  <fix>3d</fix>
</trkpt>
<trkpt lat="-27.2744392" lon="151.2900641">
  <ele>343.24</ele>
  <time>2026-09-01T20:03:20Z</time>
  <course>11.2</course>
  <speed>0.022360679774997897</speed>
  <fix>3d</fix>
</trkpt>
<trkpt lat="-27.274439" lon="151.290064">
  <ele>343.1</ele>
  <time>2026-09-01T20:03:20Z</time>
  <course>270.0</course>
  <speed>0.0</speed>
  <fix>3d</fix>
</trkpt>
<trkpt lat="-27.2744392" lon="151.2900641">
  <ele>343.24</ele>
  <time>2026-09-01T20:03:20Z</time>
  <course>11.2</course>
  <speed>0.022360679774997897</speed>
  <fix>3d</fix>
</trkpt>
<trkpt lat="-27.274439" lon="151.290064">
  <ele>343.1</ele>
  <time>2026-09-01T20:03:20Z</time>
  <course>270.0</course>
  <speed>0.0</speed>
  <fix>3d</fix>
</trkpt>
<trkpt lat="-27.2744392" lon="151.2900641">
  <ele>343.24</ele>
  <time>2026-09-01T20:03:20Z</time>
  <course>11.2</course>
  <speed>0.022360679774997897</speed>
  <fix>3d</fix>
</trkpt>
<trkpt lat="-27.274439" lon="151.290064">
  <ele>343.1</ele>
  <time>2026-09-01T20:03:20Z</time>
  <course>270.0</course>
  <speed>0.0</speed>
  <fix>3d</fix>
</trkpt>
<trkpt lat="-27.2744392" lon="151.2900641">
  <ele>343.24</ele>
  <time>2026-09-01T20:03:20Z</time>
  <course>11.2</course>
  <speed>0.022360679774997897</speed>
  <fix>3d</fix>
</trkpt>
<trkpt lat="-27.274439" lon="151.290064">
  <ele>343.1</ele>
  <time>2026-09-01T20:03:20Z</time>
  <course>270.0</course>
  <speed>0.0</speed>
  <fix>3d</fix>
</trkpt>
<trkpt lat="-27.2744392" lon="151.2900641">
  <ele>343.24</ele>
  <time>2026-09-01T20:03:20Z</time>
  <course>11.2</course>
  <speed>0.022360679774997897</speed>
  <fix>3d</fix>
</trkpt>
<trkpt lat="-27.274439" lon="151.290064">
  <ele>343.1</ele>
  <time>2026-09-01T20:03:20Z</time>
  <course>270.0</course>
  <speed>0.0</speed>
  <fix>3d</fix>
</trkpt>
<trkpt lat="-27.2744392" lon="151.2900641">
  <ele>343.24</ele>
  <time>2026-09-01T20:03:20Z</time>
  <course>11.2</course>
  <speed>0.022360679774997897</speed>
  <fix>3d</fix>
</trkpt>
<trkpt lat="-27.274439" lon="151.290064">
  <ele>343.1</ele>
  <time>2026-09-01T20:03:20Z</time>
  <course>270.0</course>
  <speed>0.0</speed>
  <fix>3d</fix>
</trkpt>
<trkpt lat="-27.2744392" lon="151.2900641">
  <ele>343.24</ele>
  <time>2026-09-01T20:03:20Z</time>
  <course>11.2</course>
  <speed>0.022360679774997897</speed>
  <fix>3d</fix>
</trkpt>
<trkpt lat="-27.274439" lon="151.290064">
  <ele>343.1</ele>
  <time>2026-09-01T20:03:20Z</time>
  <course>270.0</course>
  <speed>0.0</speed>
  <fix>3d</fix>
</trkpt>
<trkpt lat="-27.2744392" lon="151.2900641">
  <ele>343.1</ele>
  <time>2026-09-01T20:03:20Z</time>
  <course>11.2</course>
  <speed>0.022360679774997897</speed>
  <fix>3d</fix>
</trkpt>
<trkpt lat="-27.274439" lon="151.290064">
  <ele>343.1</ele>
  <time>2026-09-01T20:03:20Z</time>
  <course>270.0</course>
  <speed>0.0</speed>
  <fix>3d</fix>
</trkpt>
<trkpt lat="-27.2744392" lon="151.2900641">
  <ele>343.1</ele>
  <time>2026-09-01T20:03:20Z</time>
  <course>11.21</course>
  <speed>0.022360679774997897</speed>
  <fix>3d</fix>
</trkpt>
<trkpt lat="-27.274439" lon="151.290064">
  <ele>343.1</ele>
  <time>2026-09-01T20:03:20Z</time>
  <course>270.0</course>
  <speed>0.0</speed>
  <fix>3d</fix>
</trkpt>
<trkpt lat="-27.2744392" lon="151.2900641">
  <ele>343.1</ele>
  <time>2026-09-01T20:03:20Z</time>
  <course>11.21</course>
  <speed>0.022360679774997897</speed>
  <fix>3d</fix>
</trkpt>
<trkpt lat="-27.274439" lon="151.290064">
  <ele>343.1</ele>
  <time>2026-09-01T20:03:20Z</time>
  <course>270.0</course>
  <speed>0.0</speed>
  <fix>3d</fix>
</trkpt>
<trkpt lat="-27.2744392" lon="151.2900641">
  <ele>343.1</ele>
  <time>2026-09-01T20:03:20Z</time>
  <course>11.21</course>
  <speed>0.022360679774997897</speed>
  <fix>3d</fix>
</trkpt>
<trkpt lat="-27.274439" lon="151.290064">
  <ele>343.1</ele>
  <time>2026-09-01T20:03:20Z</time>
  <course>270.0</course>
  <speed>0.0</speed>
  <fix>3d</fix>
</trkpt>
<trkpt lat="-27.2744392" lon="151.2900641">
  <ele>343.1</ele>
  <time>2026-09-01T20:03:20Z</time>
  <course>11.21</course>
  <speed>0.022360679774997897</speed>
  <fix>3d</fix>
</trkpt>
<trkpt lat="-27.274439" lon="151.290064">
  <ele>343.1</ele>
  <time>2026-09-01T20:03:20Z</time>
  <course>270.0</course>
  <speed>0.0</speed>
  <fix>3d</fix>
</trkpt>
<trkpt lat="-27.2744392" lon="151.2900641">
  <ele>343.1</ele>
  <time>2026-09-01T20:03:20Z</time>
  <course>11.21</course>
  <speed>0.022360679774997897</speed>
  <fix>3d</fix>
</trkpt>
<trkpt lat="-27.274439" lon="151.290064">
  <ele>343.1</ele>
  <time>2026-09-01T20:03:20Z</time>
  <course>270.0</course>
  <speed>0.0</speed>
  <fix>3d</fix>
</trkpt>
<trkpt lat="-27.2744392" lon="151.2900641">
  <ele>343.1</ele>
  <time>2026-09-01T20:03:20Z</time>
  <course>11.21</course>
  <speed>0.022360679774997897</speed>
  <fix>3d</fix>
</trkpt>
<trkpt lat="-27.274439" lon="151.290064">
  <ele>343.1</ele>
  <time>2026-09-01T20:03:20Z</time>
  <course>270.0</course>
  <speed>0.0</speed>
  <fix>3d</fix>
</trkpt>
<trkpt lat="-27.2744392" lon="151.2900641">
  <ele>343.09</ele>
  <time>2026-09-01T20:03:20Z</time>
  <course>11.21</course>
  <speed>0.022360679774997897</speed>
  <fix>3d</fix>
</trkpt>
<trkpt lat="-27.274439" lon="151.290064">
  <ele>343.1</ele>
  <time>2026-09-01T20:03:20Z</time>
  <course>270.0</course>
  <speed>0.0</speed>
  <fix>3d</fix>
</trkpt>
<trkpt lat="-27.2744392" lon="151.2900641">
  <ele>343.09</ele>
  <time>2026-09-01T20:03:20Z</time>
  <course>11.21</course>
  <speed>0.022360679774997897</speed>
  <fix>3d</fix>
</trkpt>
<trkpt lat="-27.274439" lon="151.290064">
  <ele>343.1</ele>
  <time>2026-09-01T20:03:20Z</time>
  <course>270.0</course>
  <speed>0.0</speed>
  <fix>3d</fix>
</trkpt>
<trkpt lat="-27.2744392" lon="151.2900641">
  <ele>343.09</ele>
  <time>2026-09-01T20:03:20Z</time>
  <course>11.21</course>
  <speed>0.022360679774997897</speed>
  <fix>3d</fix>
</trkpt>
<trkpt lat="-27.274439" lon="151.290064">
  <ele>343.1</ele>
  <time>2026-09-01T20:03:20Z</time>
  <course>270.0</course>
  <speed>0.0</speed>
  <fix>3d</fix>
</trkpt>
<trkpt lat="-27.2744392" lon="151.2900641">
  <ele>343.09</ele>
  <time>2026-09-01T20:03:20Z</time>
  <course>11.21</course>
  <speed>0.022360679774997897</speed>
  <fix>3d</fix>
</trkpt>
<trkpt lat="-27.274439" lon="151.290064">
  <ele>343.1</ele>
  <time>2026-09-01T20:03:20Z</time>
  <course>270.0</course>
  <speed>0.0</speed>
  <fix>3d</fix>
</trkpt>
<trkpt lat="-27.2744392" lon="151.2900641">
  <ele>343.1</ele>
  <time>2026-09-01T20:03:20Z</time>
  <course>11.22</course>
  <speed>0.022360679774997897</speed>
  <fix>3d</fix>
</trkpt>
<trkpt lat="-27.274439" lon="151.290064">
  <ele>343.1</ele>
  <time>2026-09-01T20:03:20Z</time>
  <course>270.0</course>
  <speed>0.0</speed>
  <fix>3d</fix>
</trkpt>
<trkpt lat="-27.2744392" lon="151.2900641">
  <ele>343.1</ele>
  <time>2026-09-01T20:03:20Z</time>
  <course>11.22</course>
  <speed>0.022360679774997897</speed>
  <fix>3d</fix>
</trkpt>
<trkpt lat="-27.274439" lon="151.290064">
  <ele>343.1</ele>
  <time>2026-09-01T20:03:20Z</time>
  <course>270.0</course>
  <speed>0.0</speed>
  <fix>3d</fix>
</trkpt>
<trkpt lat="-27.2744392" lon="151.2900641">
  <ele>343.1</ele>
  <time>2026-09-01T20:03:20Z</time>
  <course>11.22</course>
  <speed>0.022360679774997897</speed>
  <fix>3d</fix>
</trkpt>
<trkpt lat="-27.274439" lon="151.290064">
  <ele>343.1</ele>
  <time>2026-09-01T20:03:20Z</time>
  <course>270.0</course>
  <speed>0.0</speed>
  <fix>3d</fix>
</trkpt>
<trkpt lat="-27.2744392" lon="151.2900641">
  <ele>343.1</ele>
  <time>2026-09-01T20:03:20Z</time>
  <course>11.22</course>
  <speed>0.022360679774997897</speed>
  <fix>3d</fix>
</trkpt>
<trkpt lat="-27.274439" lon="151.290064">
  <ele>343.1</ele>
  <time>2026-09-01T20:03:20Z</time>
  <course>270.0</course>
  <speed>0.0</speed>
  <fix>3d</fix>
</trkpt>
<trkpt lat="-27.2744392" lon="151.2900641">
  <ele>343.1</ele>
  <time>2026-09-01T20:03:20Z</time>
  <course>11.22</course>
  <speed>0.022360679774997897</speed>
  <fix>3d</fix>
</trkpt>
<trkpt lat="-27.274439" lon="151.290064">
  <ele>343.1</ele>
  <time>2026-09-01T20:03:20Z</time>
  <course>270.0</course>
  <speed>0.0</speed>
  <fix>3d</fix>
</trkpt>
<trkpt lat="-27.2744392" lon="151.2900641">
  <ele>343.1</ele>
  <time>2026-09-01T20:03:20Z</time>
  <course>11.22</course>
  <speed>0.022360679774997897</speed>
  <fix>3d</fix>
</trkpt>
<trkpt lat="-27.274439" lon="151.290064">
  <ele>343.1</ele>
  <time>2026-09-01T20:03:20Z</time>
  <course>270.0</course>
  <speed>0.0</speed>
  <fix>3d</fix>
</trkpt>
<trkpt lat="-27.2744392" lon="151.2900641">
  <ele>343.1</ele>
  <time>2026-09-01T20:03:20Z</time>
  <course>11.22</course>
  <speed>0.022360679774997897</speed>
  <fix>3d</fix>
</trkpt>
<trkpt lat="-27.274439" lon="151.290064">
  <ele>343.1</ele>
  <time>2026-09-01T20:03:20Z</time>
  <course>270.0</course>
  <speed>0.0</speed>
  <fix>3d</fix>
</trkpt>
<trkpt lat="-27.2744392" lon="151.2900641">
  <ele>343.11</ele>
  <time>2026-09-01T20:03:20Z</time>
  <course>11.22</course>
  <speed>0.022360679774997897</speed>
  <fix>3d</fix>
</trkpt>
<trkpt lat="-27.274439" lon="151.290064">
  <ele>343.1</ele>
  <time>2026-09-01T20:03:20Z</time>
  <course>270.0</course>
  <speed>0.0</speed>
  <fix>3d</fix>
</trkpt>
<trkpt lat="-27.2744392" lon="151.2900641">
  <ele>343.11</ele>
  <time>2026-09-01T20:03:20Z</time>
  <course>11.22</course>
  <speed>0.022360679774997897</speed>
  <fix>3d</fix>
</trkpt>
<trkpt lat="-27.274439" lon="151.290064">
  <ele>343.1</ele>
  <time>2026-09-01T20:03:20Z</time>
  <course>270.0</course>
  <speed>0.0</speed>
  <fix>3d</fix>
</trkpt>
<trkpt lat="-27.2744392" lon="151.2900641">
  <ele>343.11</ele>
  <time>2026-09-01T20:03:20Z</time>
  <course>11.23</course>
  <speed>0.022360679774997897</speed>
  <fix>3d</fix>
</trkpt>
<trkpt lat="-27.274439" lon="151.290064">
  <ele>343.1</ele>
  <time>2026-09-01T20:03:20Z</time>
  <course>270.0</course>
  <speed>0.0</speed>
  <fix>3d</fix>
</trkpt>
<trkpt lat="-27.2744392" lon="151.2900641">
  <ele>343.11</ele>
  <time>2026-09-01T20:03:20Z</time>
  <course>11.23</course>
  <speed>0.022360679774997897</speed>
  <fix>3d</fix>
</trkpt>
<trkpt lat="-27.274439" lon="151.290064">
  <ele>343.1</ele>
  <time>2026-09-01T20:03:20Z</time>
  <course>270.0</course>
  <speed>0.0</speed>
  <fix>3d</fix>
</trkpt>
<trkpt lat="-27.2744392" lon="151.2900641">
  <ele>343.11</ele>
  <time>2026-09-01T20:03:20Z</time>
  <course>11.23</course>
  <speed>0.022360679774997897</speed>
  <fix>3d</fix>
</trkpt>
<trkpt lat="-27.274439" lon="151.290064">
  <ele>343.1</ele>
  <time>2026-09-01T20:03:20Z</time>
  <course>270.0</course>
  <speed>0.0</speed>
  <fix>3d</fix>
</trkpt>
<trkpt lat="-27.2744392" lon="151.2900641">
  <ele>343.11</ele>
  <time>2026-09-01T20:03:20Z</time>
  <course>11.23</course>
  <speed>0.022360679774997897</speed>
  <fix>3d</fix>
</trkpt>
<trkpt lat="-27.274439" lon="151.290064">
  <ele>343.1</ele>
  <time>2026-09-01T20:03:20Z</time>
  <course>270.0</course>
  <speed>0.0</speed>
  <fix>3d</fix>
</trkpt>
<trkpt lat="-27.2744392" lon="151.2900641">
  <ele>343.11</ele>
  <time>2026-09-01T20:03:20Z</time>
  <course>11.23</course>
  <speed>0.022360679774997897</speed>
  <fix>3d</fix>
</trkpt>
<trkpt lat="-27.274439" lon="151.290064">
  <ele>343.1</ele>
  <time>2026-09-01T20:03:20Z</time>
  <course>270.0</course>
  <speed>0.0</speed>
  <fix>3d</fix>
</trkpt>
<trkpt lat="-27.2744392" lon="151.2900641">
  <ele>343.1</ele>
  <time>2026-09-01T20:03:20Z</time>
  <course>11.23</course>
  <speed>0.022360679774997897</speed>
  <fix>3d</fix>
</trkpt>
<trkpt lat="-27.274439" lon="151.290064">
  <ele>343.1</ele>
  <time>2026-09-01T20:03:20Z</time>
  <course>270.0</course>
  <speed>0.0</speed>
  <fix>3d</fix>
</trkpt>
<trkpt lat="-27.2744392" lon="151.2900641">
  <ele>343.1</ele>
  <time>2026-09-01T20:03:20Z</time>
  <course>11.23</course>
  <speed>0.022360679774997897</speed>
  <fix>3d</fix>
</trkpt>
<trkpt lat="-27.274439" lon="151.290064">
  <ele>343.1</ele>
  <time>2026-09-01T20:03:20Z</time>
  <course>270.0</course>
  <speed>0.0</speed>
  <fix>3d</fix>
</trkpt>
<trkpt lat="-27.2744392" lon="151.2900641">
  <ele>343.1</ele>
  <time>2026-09-01T20:03:20Z</time>
  <course>11.23</course>
  <speed>0.022360679774997897</speed>
  <fix>3d</fix>
</trkpt>
<trkpt lat="-27.274439" lon="151.290064">
  <ele>343.1</ele>
  <time>2026-09-01T20:03:20Z</time>
  <course>270.0</course>
  <speed>0.0</speed>
  <fix>3d</fix>
</trkpt>
<trkpt lat="-27.2744392" lon="151.2900641">
  <ele>343.1</ele>
  <time>2026-09-01T20:03:20Z</time>
  <course>11.23</course>
  <speed>0.022360679774997897</speed>
  <fix>3d</fix>
</trkpt>
<trkpt lat="-27.274439" lon="151.290064">
  <ele>343.1</ele>
  <time>2026-09-01T20:03:20Z</time>
  <course>270.0</course>
  <speed>0.0</speed>
  <fix>3d</fix>
</trkpt>
<trkpt lat="-27.2744392" lon="151.2900641">
  <ele>343.09</ele>
  <time>2026-09-01T20:03:20Z</time>
  <course>11.23</course>
  <speed>0.022360679774997897</speed>
  <fix>3d</fix>
</trkpt>
<trkpt lat="-27.274439" lon="151.290064">
  <ele>343.1</ele>
  <time>2026-09-01T20:03:20Z</time>
  <course>270.0</course>
  <speed>0.0</speed>
  <fix>3d</fix>
</trkpt>
<trkpt lat="-27.2744392" lon="151.2900641">
  <ele>343.09</ele>
  <time>2026-09-01T20:03:20Z</time>
  <course>11.24</course>
  <speed>0.022360679774997897</speed>
  <fix>3d</fix>
</trkpt>
<trkpt lat="-27.274439" lon="151.290064">
  <ele>343.1</ele>
  <time>2026-09-01T20:03:20Z</time>
  <course>270.0</course>
  <speed>0.0</speed>
  <fix>3d</fix>
</trkpt>
<trkpt lat="-27.2744392" lon="151.2900641">
  <ele>343.09</ele>
  <time>2026-09-01T20:03:20Z</time>
  <course>11.24</course>
  <speed>0.022360679774997897</speed>
  <fix>3d</fix>
</trkpt>
<trkpt lat="-27.274439" lon="151.290064">
  <ele>343.1</ele>
  <time>2026-09-01T20:03:20Z</time>
  <course>270.0</course>
  <speed>0.0</speed>
  <fix>3d</fix>
</trkpt>
<trkpt lat="-27.2744392" lon="151.2900641">
  <ele>343.09</ele>
  <time>2026-09-01T20:03:20Z</time>
  <course>11.24</course>
  <speed>0.022360679774997897</speed>
  <fix>3d</fix>
</trkpt>
<trkpt lat="-27.274439" lon="151.290064">
  <ele>343.1</ele>
  <time>2026-09-01T20:03:20Z</time>
  <course>270.0</course>
  <speed>0.0</speed>
  <fix>3d</fix>
</trkpt>
<trkpt lat="-27.2744392" lon="151.2900641">
  <ele>343.09</ele>
  <time>2026-09-01T20:03:20Z</time>
  <course>11.24</course>
  <speed>0.022360679774997897</speed>
  <fix>3d</fix>
</trkpt>
<trkpt lat="-27.274439" lon="151.290064">
  <ele>343.1</ele>
  <time>2026-09-01T20:03:20Z</time>
  <course>270.0</course>
  <speed>0.0</speed>
  <fix>3d</fix>
</trkpt>
<trkpt lat="-27.2744392" lon="151.2900641">
  <ele>343.08</ele>
  <time>2026-09-01T20:03:20Z</time>
  <course>11.24</course>
  <speed>0.022360679774997897</speed>
  <fix>3d</fix>
</trkpt>
<trkpt lat="-27.274439" lon="151.290064">
  <ele>343.1</ele>
  <time>2026-09-01T20:03:20Z</time>
  <course>270.0</course>
  <speed>0.0</speed>
  <fix>3d</fix>
</trkpt>
<trkpt lat="-27.2744392" lon="151.2900641">
  <ele>343.08</ele>
  <time>2026-09-01T20:03:20Z</time>
  <course>11.24</course>
  <speed>0.022360679774997897</speed>
  <fix>3d</fix>
</trkpt>
<trkpt lat="-27.274439" lon="151.290064">
  <ele>343.1</ele>
  <time>2026-09-01T20:03:20Z</time>
  <course>270.0</course>
  <speed>0.0</speed>
  <fix>3d</fix>
</trkpt>
<trkpt lat="-27.2744392" lon="151.2900641">
  <ele>343.08</ele>
  <time>2026-09-01T20:03:20Z</time>
  <course>11.24</course>
  <speed>0.022360679774997897</speed>
  <fix>3d</fix>
</trkpt>
<trkpt lat="-27.274439" lon="151.290064">
  <ele>343.1</ele>
  <time>2026-09-01T20:03:20Z</time>
  <course>270.0</course>
  <speed>0.0</speed>
  <fix>3d</fix>
</trkpt>
<trkpt lat="-27.2744392" lon="151.2900641">
  <ele>343.08</ele>
  <time>2026-09-01T20:03:20Z</time>
  <course>11.24</course>
  <speed>0.022360679774997897</speed>
  <fix>3d</fix>
</trkpt>
<trkpt lat="-27.274439" lon="151.290064">
  <ele>343.1</ele>
  <time>2026-09-01T20:03:20Z</time>
  <course>270.0</course>
  <speed>0.0</speed>
  <fix>3d</fix>
</trkpt>
<trkpt lat="-27.2744392" lon="151.2900641">
  <ele>343.08</ele>
  <time>2026-09-01T20:03:20Z</time>
  <course>11.24</course>
  <speed>0.022360679774997897</speed>
  <fix>3d</fix>
</trkpt>
<trkpt lat="-27.274439" lon="151.290064">
  <ele>343.1</ele>
  <time>2026-09-01T20:03:20Z</time>
  <course>270.0</course>
  <speed>0.0</speed>
  <fix>3d</fix>
</trkpt>
<trkpt lat="-27.2744392" lon="151.2900641">
  <ele>343.08</ele>
  <time>2026-09-01T20:03:20Z</time>
  <course>11.25</course>
  <speed>0.022360679774997897</speed>
  <fix>3d</fix>
</trkpt>
<trkpt lat="-27.274439" lon="151.290064">
  <ele>343.1</ele>
  <time>2026-09-01T20:03:20Z</time>
  <course>270.0</course>
  <speed>0.0</speed>
  <fix>3d</fix>
</trkpt>
<trkpt lat="-27.2744392" lon="151.2900641">
  <ele>343.08</ele>
  <time>2026-09-01T20:03:20Z</time>
  <course>11.25</course>
  <speed>0.022360679774997897</speed>
  <fix>3d</fix>
</trkpt>
<trkpt lat="-27.274439" lon="151.290064">
  <ele>343.1</ele>
  <time>2026-09-01T20:03:20Z</time>
  <course>270.0</course>
  <speed>0.0</speed>
  <fix>3d</fix>
</trkpt>
<trkpt lat="-27.2744392" lon="151.2900641">
  <ele>343.08</ele>
  <time>2026-09-01T20:03:20Z</time>
  <course>11.25</course>
  <speed>0.022360679774997897</speed>
  <fix>3d</fix>
</trkpt>
<trkpt lat="-27.274439" lon="151.290064">
  <ele>343.1</ele>
  <time>2026-09-01T20:03:20Z</time>
  <course>270.0</course>
  <speed>0.0</speed>
  <fix>3d</fix>
</trkpt>
<trkpt lat="-27.2744392" lon="151.2900641">
  <ele>343.07</ele>
  <time>2026-09-01T20:03:20Z</time>
  <course>11.25</course>
  <speed>0.022360679774997897</speed>
  <fix>3d</fix>
</trkpt>
<trkpt lat="-27.274439" lon="151.290064">
  <ele>343.1</ele>
  <time>2026-09-01T20:03:20Z</time>
  <course>270.0</course>
  <speed>0.0</speed>
  <fix>3d</fix>
</trkpt>
<trkpt lat="-27.2744392" lon="151.2900641">
  <ele>343.07</ele>
  <time>2026-09-01T20:03:20Z</time>
  <course>11.25</course>
  <speed>0.022360679774997897</speed>
  <fix>3d</fix>
</trkpt>
<trkpt lat="-27.274439" lon="151.290064">
  <ele>343.1</ele>
  <time>2026-09-01T20:03:20Z</time>
  <course>270.0</course>
  <speed>0.0</speed>
  <fix>3d</fix>
</trkpt>
<trkpt lat="-27.2744392" lon="151.2900641">
  <ele>343.08</ele>
  <time>2026-09-01T20:03:20Z</time>
  <course>11.25</course>
  <speed>0.022360679774997897</speed>
  <fix>3d</fix>
</trkpt>
<trkpt lat="-27.274439" lon="151.290064">
  <ele>343.1</ele>
  <time>2026-09-01T20:03:20Z</time>
  <course>270.0</course>
  <speed>0.0</speed>
  <fix>3d</fix>
</trkpt>
<trkpt lat="-27.2744392" lon="151.2900641">
  <ele>343.07</ele>
  <time>2026-09-01T20:03:20Z</time>
  <course>11.25</course>
  <speed>0.022360679774997897</speed>
  <fix>3d</fix>
</trkpt>
<trkpt lat="-27.274439" lon="151.290064">
  <ele>343.1</ele>
  <time>2026-09-01T20:03:20Z</time>
  <course>270.0</course>
  <speed>0.0</speed>
  <fix>3d</fix>
</trkpt>
<trkpt lat="-27.2744392" lon="151.2900641">
  <ele>343.07</ele>
  <time>2026-09-01T20:03:20Z</time>
  <course>11.25</course>
  <speed>0.022360679774997897</speed>
  <fix>3d</fix>
</trkpt>
<trkpt lat="-27.274439" lon="151.290064">
  <ele>343.1</ele>
  <time>2026-09-01T20:03:20Z</time>
  <course>270.0</course>
  <speed>0.0</speed>
  <fix>3d</fix>
</trkpt>
<trkpt lat="-27.2744392" lon="151.2900641">
  <ele>343.07</ele>
  <time>2026-09-01T20:03:20Z</time>
  <course>11.25</course>
  <speed>0.022360679774997897</speed>
  <fix>3d</fix>
</trkpt>
<trkpt lat="-27.274439" lon="151.290064">
  <ele>343.1</ele>
  <time>2026-09-01T20:03:20Z</time>
  <course>270.0</course>
  <speed>0.0</speed>
  <fix>3d</fix>
</trkpt>
<trkpt lat="-27.2744392" lon="151.2900641">
  <ele>343.07</ele>
  <time>2026-09-01T20:03:20Z</time>
  <course>11.25</course>
  <speed>0.022360679774997897</speed>
  <fix>3d</fix>
</trkpt>
<trkpt lat="-27.274439" lon="151.290064">
  <ele>343.1</ele>
  <time>2026-09-01T20:03:20Z</time>
  <course>270.0</course>
  <speed>0.0</speed>
  <fix>3d</fix>
</trkpt>
<trkpt lat="-27.2744392" lon="151.2900641">
  <ele>343.07</ele>
  <time>2026-09-01T20:03:20Z</time>
  <course>11.26</course>
  <speed>0.022360679774997897</speed>
  <fix>3d</fix>
</trkpt>
<trkpt lat="-27.274439" lon="151.290064">
  <ele>343.1</ele>
  <time>2026-09-01T20:03:20Z</time>
  <course>270.0</course>
  <speed>0.0</speed>
  <fix>3d</fix>
</trkpt>
<trkpt lat="-27.2744392" lon="151.2900641">
  <ele>343.07</ele>
  <time>2026-09-01T20:03:20Z</time>
  <course>11.26</course>
  <speed>0.022360679774997897</speed>
  <fix>3d</fix>
</trkpt>
<trkpt lat="-27.274439" lon="151.290064">
  <ele>343.1</ele>
  <time>2026-09-01T20:03:20Z</time>
  <course>270.0</course>
  <speed>0.0</speed>
  <fix>3d</fix>
</trkpt>
<trkpt lat="-27.2744392" lon="151.2900641">
  <ele>343.07</ele>
  <time>2026-09-01T20:03:20Z</time>
  <course>11.26</course>
  <speed>0.022360679774997897</speed>
  <fix>3d</fix>
</trkpt>
<trkpt lat="-27.274439" lon="151.290064">
  <ele>343.1</ele>
  <time>2026-09-01T20:03:20Z</time>
  <course>270.0</course>
  <speed>0.0</speed>
  <fix>3d</fix>
</trkpt>
<trkpt lat="-27.2744392" lon="151.2900641">
  <ele>343.07</ele>
  <time>2026-09-01T20:03:20Z</time>
  <course>11.26</course>
  <speed>0.022360679774997897</speed>
  <fix>3d</fix>
</trkpt>
<trkpt lat="-27.274439" lon="151.290064">
  <ele>343.1</ele>
  <time>2026-09-01T20:03:20Z</time>
  <course>270.0</course>
  <speed>0.0</speed>
  <fix>3d</fix>
</trkpt>
<trkpt lat="-27.2744392" lon="151.2900641">
  <ele>343.07</ele>
  <time>2026-09-01T20:03:20Z</time>
  <course>11.26</course>
  <speed>0.022360679774997897</speed>
  <fix>3d</fix>
</trkpt>
<trkpt lat="-27.274439" lon="151.290064">
  <ele>343.1</ele>
  <time>2026-09-01T20:03:20Z</time>
  <course>270.0</course>
  <speed>0.0</speed>
  <fix>3d</fix>
</trkpt>
<trkpt lat="-27.2744392" lon="151.2900641">
  <ele>343.07</ele>
  <time>2026-09-01T20:03:20Z</time>
  <course>11.26</course>
  <speed>0.022360679774997897</speed>
  <fix>3d</fix>
</trkpt>
<trkpt lat="-27.274439" lon="151.290064">
  <ele>343.1</ele>
  <time>2026-09-01T20:03:20Z</time>
  <course>270.0</course>
  <speed>0.0</speed>
  <fix>3d</fix>
</trkpt>
<trkpt lat="-27.2744392" lon="151.2900641">
  <ele>343.07</ele>
  <time>2026-09-01T20:03:20Z</time>
  <course>11.26</course>
  <speed>0.022360679774997897</speed>
  <fix>3d</fix>
</trkpt>
<trkpt lat="-27.274439" lon="151.290064">
  <ele>343.1</ele>
  <time>2026-09-01T20:03:20Z</time>
  <course>270.0</course>
  <speed>0.0</speed>
  <fix>3d</fix>
</trkpt>
<trkpt lat="-27.2744392" lon="151.2900641">
  <ele>343.07</ele>
  <time>2026-09-01T20:03:20Z</time>
  <course>11.26</course>
  <speed>0.022360679774997897</speed>
  <fix>3d</fix>
</trkpt>
<trkpt lat="-27.274439" lon="151.290064">
  <ele>343.1</ele>
  <time>2026-09-01T20:03:20Z</time>
  <course>270.0</course>
  <speed>0.0</speed>
  <fix>3d</fix>
</trkpt>
<trkpt lat="-27.2744392" lon="151.2900641">
  <ele>343.07</ele>
  <time>2026-09-01T20:03:20Z</time>
  <course>11.26</course>
  <speed>0.022360679774997897</speed>
  <fix>3d</fix>
</trkpt>
<trkpt lat="-27.274439" lon="151.290064">
  <ele>343.1</ele>
  <time>2026-09-01T20:03:20Z</time>
  <course>270.0</course>
  <speed>0.0</speed>
  <fix>3d</fix>
</trkpt>
<trkpt lat="-27.2744392" lon="151.2900641">
  <ele>343.06</ele>
  <time>2026-09-01T20:03:20Z</time>
  <course>11.27</course>
  <speed>0.022360679774997897</speed>
  <fix>3d</fix>
</trkpt>
<trkpt lat="-27.274439" lon="151.290064">
  <ele>343.1</ele>
  <time>2026-09-01T20:03:20Z</time>
  <course>270.0</course>
  <speed>0.0</speed>
  <fix>3d</fix>
</trkpt>
<trkpt lat="-27.2744392" lon="151.2900641">
  <ele>343.06</ele>
  <time>2026-09-01T20:03:20Z</time>
  <course>11.27</course>
  <speed>0.022360679774997897</speed>
  <fix>3d</fix>
</trkpt>
<trkpt lat="-27.274439" lon="151.290064">
  <ele>343.1</ele>
  <time>2026-09-01T20:03:20Z</time>
  <course>270.0</course>
  <speed>0.0</speed>
  <fix>3d</fix>
</trkpt>
<trkpt lat="-27.2744392" lon="151.2900641">
  <ele>343.09</ele>
  <time>2026-09-01T20:03:20Z</time>
  <course>11.27</course>
  <speed>0.022360679774997897</speed>
  <fix>3d</fix>
</trkpt>
<trkpt lat="-27.274439" lon="151.290064">
  <ele>343.1</ele>
  <time>2026-09-01T20:03:20Z</time>
  <course>270.0</course>
  <speed>0.0</speed>
  <fix>3d</fix>
</trkpt>
<trkpt lat="-27.2744392" lon="151.2900641">
  <ele>343.09</ele>
  <time>2026-09-01T20:03:20Z</time>
  <course>11.27</course>
  <speed>0.022360679774997897</speed>
  <fix>3d</fix>
</trkpt>
<trkpt lat="-27.274439" lon="151.290064">
  <ele>343.1</ele>
  <time>2026-09-01T20:03:20Z</time>
  <course>270.0</course>
  <speed>0.0</speed>
  <fix>3d</fix>
</trkpt>
<trkpt lat="-27.2744392" lon="151.2900641">
  <ele>343.09</ele>
  <time>2026-09-01T20:03:20Z</time>
  <course>11.27</course>
  <speed>0.022360679774997897</speed>
  <fix>3d</fix>
</trkpt>
<trkpt lat="-27.274439" lon="151.290064">
  <ele>343.1</ele>
  <time>2026-09-01T20:03:20Z</time>
  <course>270.0</course>
  <speed>0.0</speed>
  <fix>3d</fix>
</trkpt>
<trkpt lat="-27.2744392" lon="151.2900641">
  <ele>343.09</ele>
  <time>2026-09-01T20:03:20Z</time>
  <course>11.27</course>
  <speed>0.022360679774997897</speed>
  <fix>3d</fix>
</trkpt>
<trkpt lat="-27.274439" lon="151.290064">
  <ele>343.1</ele>
  <time>2026-09-01T20:03:20Z</time>
  <course>270.0</course>
  <speed>0.0</speed>
  <fix>3d</fix>
</trkpt>
<trkpt lat="-27.2744392" lon="151.2900641">
  <ele>343.1</ele>
  <time>2026-09-01T20:03:20Z</time>
  <course>11.27</course>
  <speed>0.022360679774997897</speed>
  <fix>3d</fix>
</trkpt>
<trkpt lat="-27.274439" lon="151.290064">
  <ele>343.1</ele>
  <time>2026-09-01T20:03:20Z</time>
  <course>270.0</course>
  <speed>0.0</speed>
  <fix>3d</fix>
</trkpt>
<trkpt lat="-27.2744392" lon="151.2900641">
  <ele>343.1</ele>
  <time>2026-09-01T20:03:20Z</time>
  <course>11.27</course>
  <speed>0.022360679774997897</speed>
  <fix>3d</fix>
</trkpt>
<trkpt lat="-27.274439" lon="151.290064">
  <ele>343.1</ele>
  <time>2026-09-01T20:03:20Z</time>
  <course>270.0</course>
  <speed>0.0</speed>
  <fix>3d</fix>
</trkpt>
<trkpt lat="-27.2744392" lon="151.2900641">
  <ele>343.11</ele>
  <time>2026-09-01T20:03:20Z</time>
  <course>11.27</course>
  <speed>0.022360679774997897</speed>
  <fix>3d</fix>
</trkpt>
<trkpt lat="-27.274439" lon="151.290064">
  <ele>343.1</ele>
  <time>2026-09-01T20:03:20Z</time>
  <course>270.0</course>
  <speed>0.0</speed>
  <fix>3d</fix>
</trkpt>
<trkpt lat="-27.2744392" lon="151.2900641">
  <ele>343.11</ele>
  <time>2026-09-01T20:03:20Z</time>
  <course>11.27</course>
  <speed>0.022360679774997897</speed>
  <fix>3d</fix>
</trkpt>
<trkpt lat="-27.274439" lon="151.290064">
  <ele>343.1</ele>
  <time>2026-09-01T20:03:20Z</time>
  <course>270.0</course>
  <speed>0.0</speed>
  <fix>3d</fix>
</trkpt>
<trkpt lat="-27.2744392" lon="151.2900641">
  <ele>343.12</ele>
  <time>2026-09-01T20:03:20Z</time>
  <course>11.28</course>
  <speed>0.022360679774997897</speed>
  <fix>3d</fix>
</trkpt>
<trkpt lat="-27.274439" lon="151.290064">
  <ele>343.1</ele>
  <time>2026-09-01T20:03:20Z</time>
  <course>270.0</course>
  <speed>0.0</speed>
  <fix>3d</fix>
</trkpt>
<trkpt lat="-27.2744392" lon="151.2900641">
  <ele>343.12</ele>
  <time>2026-09-01T20:03:20Z</time>
  <course>11.28</course>
  <speed>0.022360679774997897</speed>
  <fix>3d</fix>
</trkpt>
<trkpt lat="-27.274439" lon="151.290064">
  <ele>343.1</ele>
  <time>2026-09-01T20:03:20Z</time>
  <course>270.0</course>
  <speed>0.0</speed>
  <fix>3d</fix>
</trkpt>
<trkpt lat="-27.2744392" lon="151.2900641">
  <ele>343.12</ele>
  <time>2026-09-01T20:03:20Z</time>
  <course>11.28</course>
  <speed>0.022360679774997897</speed>
  <fix>3d</fix>
</trkpt>
<trkpt lat="-27.274439" lon="151.290064">
  <ele>343.1</ele>
  <time>2026-09-01T20:03:20Z</time>
  <course>270.0</course>
  <speed>0.0</speed>
  <fix>3d</fix>
</trkpt>
<trkpt lat="-27.2744392" lon="151.2900641">
  <ele>343.12</ele>
  <time>2026-09-01T20:03:20Z</time>
  <course>11.28</course>
  <speed>0.022360679774997897</speed>
  <fix>3d</fix>
</trkpt>
<trkpt lat="-27.274439" lon="151.290064">
  <ele>343.1</ele>
  <time>2026-09-01T20:03:20Z</time>
  <course>270.0</course>
  <speed>0.0</speed>
  <fix>3d</fix>
</trkpt>
<trkpt lat="-27.2744392" lon="151.2900641">
  <ele>343.12</ele>
  <time>2026-09-01T20:03:20Z</time>
  <course>11.28</course>
  <speed>0.022360679774997897</speed>
  <fix>3d</fix>
</trkpt>
<trkpt lat="-27.274439" lon="151.290064">
  <ele>343.1</ele>
  <time>2026-09-01T20:03:20Z</time>
  <course>270.0</course>
  <speed>0.0</speed>
  <fix>3d</fix>
</trkpt>
<trkpt lat="-27.2744392" lon="151.2900641">
  <ele>343.13</ele>
  <time>2026-09-01T20:03:20Z</time>
  <course>11.28</course>
  <speed>0.022360679774997897</speed>
  <fix>3d</fix>
</trkpt>
<trkpt lat="-27.274439" lon="151.290064">
  <ele>343.1</ele>
  <time>2026-09-01T20:03:20Z</time>
  <course>270.0</course>
  <speed>0.0</speed>
  <fix>3d</fix>
</trkpt>
<trkpt lat="-27.2744392" lon="151.2900641">
  <ele>343.13</ele>
  <time>2026-09-01T20:03:20Z</time>
  <course>11.28</course>
  <speed>0.022360679774997897</speed>
  <fix>3d</fix>
</trkpt>
<trkpt lat="-27.274439" lon="151.290064">
  <ele>343.1</ele>
  <time>2026-09-01T20:03:20Z</time>
  <course>270.0</course>
  <speed>0.0</speed>
  <fix>3d</fix>
</trkpt>
<trkpt lat="-27.2744392" lon="151.2900641">
  <ele>343.13</ele>
  <time>2026-09-01T20:03:20Z</time>
  <course>11.28</course>
  <speed>0.022360679774997897</speed>
  <fix>3d</fix>
</trkpt>
<trkpt lat="-27.274439" lon="151.290064">
  <ele>343.1</ele>
  <time>2026-09-01T20:03:20Z</time>
  <course>270.0</course>
  <speed>0.0</speed>
  <fix>3d</fix>
</trkpt>
<trkpt lat="-27.2744392" lon="151.2900641">
  <ele>343.13</ele>
  <time>2026-09-01T20:03:20Z</time>
  <course>11.28</course>
  <speed>0.022360679774997897</speed>
  <fix>3d</fix>
</trkpt>
<trkpt lat="-27.274439" lon="151.290064">
  <ele>343.1</ele>
  <time>2026-09-01T20:03:20Z</time>
  <course>270.0</course>
  <speed>0.0</speed>
  <fix>3d</fix>
</trkpt>
<trkpt lat="-27.2744392" lon="151.2900641">
  <ele>343.14</ele>
  <time>2026-09-01T20:03:20Z</time>
  <course>11.28</course>
  <speed>0.022360679774997897</speed>
  <fix>3d</fix>
</trkpt>
<trkpt lat="-27.274439" lon="151.290064">
  <ele>343.1</ele>
  <time>2026-09-01T20:03:20Z</time>
  <course>270.0</course>
  <speed>0.0</speed>
  <fix>3d</fix>
</trkpt>
<trkpt lat="-27.2744392" lon="151.2900641">
  <ele>343.14</ele>
  <time>2026-09-01T20:03:20Z</time>
  <course>11.29</course>
  <speed>0.022360679774997897</speed>
  <fix>3d</fix>
</trkpt>
<trkpt lat="-27.274439" lon="151.290064">
  <ele>343.1</ele>
  <time>2026-09-01T20:03:20Z</time>
  <course>270.0</course>
  <speed>0.0</speed>
  <fix>3d</fix>
</trkpt>
<trkpt lat="-27.2744392" lon="151.2900641">
  <ele>343.15</ele>
  <time>2026-09-01T20:03:20Z</time>
  <course>11.29</course>
  <speed>0.022360679774997897</speed>
  <fix>3d</fix>
</trkpt>
<trkpt lat="-27.274439" lon="151.290064">
  <ele>343.1</ele>
  <time>2026-09-01T20:03:20Z</time>
  <course>270.0</course>
  <speed>0.0</speed>
  <fix>3d</fix>
</trkpt>
<trkpt lat="-27.2744392" lon="151.2900641">
  <ele>343.15</ele>
  <time>2026-09-01T20:03:20Z</time>
  <course>11.29</course>
  <speed>0.022360679774997897</speed>
  <fix>3d</fix>
</trkpt>
<trkpt lat="-27.274439" lon="151.290064">
  <ele>343.1</ele>
  <time>2026-09-01T20:03:20Z</time>
  <course>270.0</course>
  <speed>0.0</speed>
  <fix>3d</fix>
</trkpt>
<trkpt lat="-27.2744392" lon="151.2900641">
  <ele>343.15</ele>
  <time>2026-09-01T20:03:20Z</time>
  <course>11.29</course>
  <speed>0.022360679774997897</speed>
  <fix>3d</fix>
</trkpt>
<trkpt lat="-27.274439" lon="151.290064">
  <ele>343.1</ele>
  <time>2026-09-01T20:03:20Z</time>
  <course>270.0</course>
  <speed>0.0</speed>
  <fix>3d</fix>
</trkpt>
<trkpt lat="-27.2744392" lon="151.2900641">
  <ele>343.16</ele>
  <time>2026-09-01T20:03:20Z</time>
  <course>11.29</course>
  <speed>0.022360679774997897</speed>
  <fix>3d</fix>
</trkpt>
<trkpt lat="-27.274439" lon="151.290064">
  <ele>343.1</ele>
  <time>2026-09-01T20:03:20Z</time>
  <course>270.0</course>
  <speed>0.0</speed>
  <fix>3d</fix>
</trkpt>
<trkpt lat="-27.2744392" lon="151.2900641">
  <ele>343.16</ele>
  <time>2026-09-01T20:03:20Z</time>
  <course>11.29</course>
  <speed>0.022360679774997897</speed>
  <fix>3d</fix>
</trkpt>
<trkpt lat="-27.274439" lon="151.290064">
  <ele>343.1</ele>
  <time>2026-09-01T20:03:20Z</time>
  <course>270.0</course>
  <speed>0.0</speed>
  <fix>3d</fix>
</trkpt>
<trkpt lat="-27.2744392" lon="151.2900641">
  <ele>343.16</ele>
  <time>2026-09-01T20:03:21Z</time>
  <course>11.29</course>
  <speed>0.022360679774997897</speed>
  <fix>3d</fix>
</trkpt>
<trkpt lat="-27.274439" lon="151.290064">
  <ele>343.1</ele>
  <time>2026-09-01T20:03:21Z</time>
  <course>270.0</course>
  <speed>0.0</speed>
  <fix>3d</fix>
</trkpt>
<trkpt lat="-27.2744392" lon="151.2900641">
  <ele>343.17</ele>
  <time>2026-09-01T20:03:21Z</time>
  <course>11.29</course>
  <speed>0.022360679774997897</speed>
  <fix>3d</fix>
</trkpt>
<trkpt lat="-27.274439" lon="151.290064">
  <ele>343.1</ele>
  <time>2026-09-01T20:03:21Z</time>
  <course>270.0</course>
  <speed>0.0</speed>
  <fix>3d</fix>
</trkpt>
<trkpt lat="-27.2744392" lon="151.2900641">
  <ele>343.17</ele>
  <time>2026-09-01T20:03:21Z</time>
  <course>11.29</course>
  <speed>0.022360679774997897</speed>
  <fix>3d</fix>
</trkpt>
<trkpt lat="-27.274439" lon="151.290064">
  <ele>343.1</ele>
  <time>2026-09-01T20:03:21Z</time>
  <course>270.0</course>
  <speed>0.0</speed>
  <fix>3d</fix>
</trkpt>
<trkpt lat="-27.2744392" lon="151.2900641">
  <ele>343.18</ele>
  <time>2026-09-01T20:03:21Z</time>
  <course>11.29</course>
  <speed>0.022360679774997897</speed>
  <fix>3d</fix>
</trkpt>
<trkpt lat="-27.274439" lon="151.290064">
  <ele>343.1</ele>
  <time>2026-09-01T20:03:21Z</time>
  <course>270.0</course>
  <speed>0.0</speed>
  <fix>3d</fix>
</trkpt>
<trkpt lat="-27.2744392" lon="151.2900641">
  <ele>343.18</ele>
  <time>2026-09-01T20:03:21Z</time>
  <course>11.3</course>
  <speed>0.022360679774997897</speed>
  <fix>3d</fix>
</trkpt>
<trkpt lat="-27.274439" lon="151.290064">
  <ele>343.1</ele>
  <time>2026-09-01T20:03:21Z</time>
  <course>270.0</course>
  <speed>0.0</speed>
  <fix>3d</fix>
</trkpt>
<trkpt lat="-27.2744392" lon="151.2900641">
  <ele>343.18</ele>
  <time>2026-09-01T20:03:21Z</time>
  <course>11.3</course>
  <speed>0.022360679774997897</speed>
  <fix>3d</fix>
</trkpt>
<trkpt lat="-27.274439" lon="151.290064">
  <ele>343.1</ele>
  <time>2026-09-01T20:03:21Z</time>
  <course>270.0</course>
  <speed>0.0</speed>
  <fix>3d</fix>
</trkpt>
<trkpt lat="-27.2744392" lon="151.2900641">
  <ele>343.18</ele>
  <time>2026-09-01T20:03:21Z</time>
  <course>11.3</course>
  <speed>0.022360679774997897</speed>
  <fix>3d</fix>
</trkpt>
<trkpt lat="-27.274439" lon="151.290064">
  <ele>343.1</ele>
  <time>2026-09-01T20:03:21Z</time>
  <course>270.0</course>
  <speed>0.0</speed>
  <fix>3d</fix>
</trkpt>
<trkpt lat="-27.2744392" lon="151.2900641">
  <ele>343.18</ele>
  <time>2026-09-01T20:03:21Z</time>
  <course>11.3</course>
  <speed>0.022360679774997897</speed>
  <fix>3d</fix>
</trkpt>
<trkpt lat="-27.274439" lon="151.290064">
  <ele>343.1</ele>
  <time>2026-09-01T20:03:21Z</time>
  <course>270.0</course>
  <speed>0.0</speed>
  <fix>3d</fix>
</trkpt>
<trkpt lat="-27.2744392" lon="151.2900641">
  <ele>343.18</ele>
  <time>2026-09-01T20:03:21Z</time>
  <course>11.3</course>
  <speed>0.022360679774997897</speed>
  <fix>3d</fix>
</trkpt>
<trkpt lat="-27.274439" lon="151.290064">
  <ele>343.1</ele>
  <time>2026-09-01T20:03:21Z</time>
  <course>270.0</course>
  <speed>0.0</speed>
  <fix>3d</fix>
</trkpt>
<trkpt lat="-27.2744392" lon="151.2900641">
  <ele>343.18</ele>
  <time>2026-09-01T20:03:21Z</time>
  <course>11.3</course>
  <speed>0.022360679774997897</speed>
  <fix>3d</fix>
</trkpt>
<trkpt lat="-27.274439" lon="151.290064">
  <ele>343.1</ele>
  <time>2026-09-01T20:03:21Z</time>
  <course>270.0</course>
  <speed>0.0</speed>
  <fix>3d</fix>
</trkpt>
<trkpt lat="-27.2744392" lon="151.2900641">
  <ele>343.18</ele>
  <time>2026-09-01T20:03:21Z</time>
  <course>11.3</course>
  <speed>0.022360679774997897</speed>
  <fix>3d</fix>
</trkpt>
<trkpt lat="-27.274439" lon="151.290064">
  <ele>343.1</ele>
  <time>2026-09-01T20:03:21Z</time>
  <course>270.0</course>
  <speed>0.0</speed>
  <fix>3d</fix>
</trkpt>
<trkpt lat="-27.2744392" lon="151.2900641">
  <ele>343.18</ele>
  <time>2026-09-01T20:03:21Z</time>
  <course>11.3</course>
  <speed>0.022360679774997897</speed>
  <fix>3d</fix>
</trkpt>
<trkpt lat="-27.274439" lon="151.290064">
  <ele>343.1</ele>
  <time>2026-09-01T20:03:21Z</time>
  <course>270.0</course>
  <speed>0.0</speed>
  <fix>3d</fix>
</trkpt>
<trkpt lat="-27.2744392" lon="151.2900641">
  <ele>343.18</ele>
  <time>2026-09-01T20:03:21Z</time>
  <course>11.3</course>
  <speed>0.022360679774997897</speed>
  <fix>3d</fix>
</trkpt>
<trkpt lat="-27.274439" lon="151.290064">
  <ele>343.1</ele>
  <time>2026-09-01T20:03:21Z</time>
  <course>270.0</course>
  <speed>0.0</speed>
  <fix>3d</fix>
</trkpt>
<trkpt lat="-27.2744392" lon="151.2900641">
  <ele>343.18</ele>
  <time>2026-09-01T20:03:21Z</time>
  <course>11.31</course>
  <speed>0.022360679774997897</speed>
  <fix>3d</fix>
</trkpt>
<trkpt lat="-27.274439" lon="151.290064">
  <ele>343.1</ele>
  <time>2026-09-01T20:03:21Z</time>
  <course>270.0</course>
  <speed>0.0</speed>
  <fix>3d</fix>
</trkpt>
<trkpt lat="-27.2744392" lon="151.2900641">
  <ele>343.18</ele>
  <time>2026-09-01T20:03:21Z</time>
  <course>11.31</course>
  <speed>0.022360679774997897</speed>
  <fix>3d</fix>
</trkpt>
<trkpt lat="-27.274439" lon="151.290064">
  <ele>343.1</ele>
  <time>2026-09-01T20:03:21Z</time>
  <course>270.0</course>
  <speed>0.0</speed>
  <fix>3d</fix>
</trkpt>
<trkpt lat="-27.2744392" lon="151.2900641">
  <ele>343.19</ele>
  <time>2026-09-01T20:03:21Z</time>
  <course>11.31</course>
  <speed>0.022360679774997897</speed>
  <fix>3d</fix>
</trkpt>
<trkpt lat="-27.274439" lon="151.290064">
  <ele>343.1</ele>
  <time>2026-09-01T20:03:21Z</time>
  <course>270.0</course>
  <speed>0.0</speed>
  <fix>3d</fix>
</trkpt>
<trkpt lat="-27.2744392" lon="151.2900641">
  <ele>343.19</ele>
  <time>2026-09-01T20:03:21Z</time>
  <course>11.31</course>
  <speed>0.022360679774997897</speed>
  <fix>3d</fix>
</trkpt>
<trkpt lat="-27.274439" lon="151.290064">
  <ele>343.1</ele>
  <time>2026-09-01T20:03:21Z</time>
  <course>270.0</course>
  <speed>0.0</speed>
  <fix>3d</fix>
</trkpt>
<trkpt lat="-27.2744392" lon="151.2900641">
  <ele>343.19</ele>
  <time>2026-09-01T20:03:21Z</time>
  <course>11.31</course>
  <speed>0.022360679774997897</speed>
  <fix>3d</fix>
</trkpt>
<trkpt lat="-27.274439" lon="151.290064">
  <ele>343.1</ele>
  <time>2026-09-01T20:03:21Z</time>
  <course>270.0</course>
  <speed>0.0</speed>
  <fix>3d</fix>
</trkpt>
<trkpt lat="-27.2744392" lon="151.2900641">
  <ele>343.19</ele>
  <time>2026-09-01T20:03:21Z</time>
  <course>11.31</course>
  <speed>0.022360679774997897</speed>
  <fix>3d</fix>
</trkpt>
<trkpt lat="-27.274439" lon="151.290064">
  <ele>343.1</ele>
  <time>2026-09-01T20:03:21Z</time>
  <course>270.0</course>
  <speed>0.0</speed>
  <fix>3d</fix>
</trkpt>
<trkpt lat="-27.2744392" lon="151.2900641">
  <ele>343.2</ele>
  <time>2026-09-01T20:03:21Z</time>
  <course>11.31</course>
  <speed>0.022360679774997897</speed>
  <fix>3d</fix>
</trkpt>
<trkpt lat="-27.274439" lon="151.290064">
  <ele>343.1</ele>
  <time>2026-09-01T20:03:21Z</time>
  <course>270.0</course>
  <speed>0.0</speed>
  <fix>3d</fix>
</trkpt>
<trkpt lat="-27.2744392" lon="151.2900641">
  <ele>343.2</ele>
  <time>2026-09-01T20:03:21Z</time>
  <course>11.31</course>
  <speed>0.022360679774997897</speed>
  <fix>3d</fix>
</trkpt>
<trkpt lat="-27.274439" lon="151.290064">
  <ele>343.1</ele>
  <time>2026-09-01T20:03:21Z</time>
  <course>270.0</course>
  <speed>0.0</speed>
  <fix>3d</fix>
</trkpt>
<trkpt lat="-27.2744392" lon="151.2900641">
  <ele>343.2</ele>
  <time>2026-09-01T20:03:21Z</time>
  <course>11.31</course>
  <speed>0.022360679774997897</speed>
  <fix>3d</fix>
</trkpt>
<trkpt lat="-27.274439" lon="151.290064">
  <ele>343.1</ele>
  <time>2026-09-01T20:03:21Z</time>
  <course>270.0</course>
  <speed>0.0</speed>
  <fix>3d</fix>
</trkpt>
<trkpt lat="-27.2744392" lon="151.2900641">
  <ele>343.2</ele>
  <time>2026-09-01T20:03:21Z</time>
  <course>11.31</course>
  <speed>0.022360679774997897</speed>
  <fix>3d</fix>
</trkpt>
<trkpt lat="-27.274439" lon="151.290064">
  <ele>343.1</ele>
  <time>2026-09-01T20:03:21Z</time>
  <course>270.0</course>
  <speed>0.0</speed>
  <fix>3d</fix>
</trkpt>
<trkpt lat="-27.2744392" lon="151.2900641">
  <ele>343.2</ele>
  <time>2026-09-01T20:03:21Z</time>
  <course>11.31</course>
  <speed>0.022360679774997897</speed>
  <fix>3d</fix>
</trkpt>
<trkpt lat="-27.274439" lon="151.290064">
  <ele>343.1</ele>
  <time>2026-09-01T20:03:21Z</time>
  <course>270.0</course>
  <speed>0.0</speed>
  <fix>3d</fix>
</trkpt>
<trkpt lat="-27.2744392" lon="151.2900641">
  <ele>343.2</ele>
  <time>2026-09-01T20:03:21Z</time>
  <course>11.32</course>
  <speed>0.022360679774997897</speed>
  <fix>3d</fix>
</trkpt>
<trkpt lat="-27.274439" lon="151.290064">
  <ele>343.1</ele>
  <time>2026-09-01T20:03:21Z</time>
  <course>270.0</course>
  <speed>0.0</speed>
  <fix>3d</fix>
</trkpt>
<trkpt lat="-27.2744392" lon="151.2900641">
  <ele>343.21</ele>
  <time>2026-09-01T20:03:21Z</time>
  <course>11.32</course>
  <speed>0.022360679774997897</speed>
  <fix>3d</fix>
</trkpt>
<trkpt lat="-27.274439" lon="151.290064">
  <ele>343.1</ele>
  <time>2026-09-01T20:03:21Z</time>
  <course>270.0</course>
  <speed>0.0</speed>
  <fix>3d</fix>
</trkpt>
<trkpt lat="-27.2744392" lon="151.2900641">
  <ele>343.21</ele>
  <time>2026-09-01T20:03:21Z</time>
  <course>11.32</course>
  <speed>0.022360679774997897</speed>
  <fix>3d</fix>
</trkpt>
<trkpt lat="-27.274439" lon="151.290064">
  <ele>343.1</ele>
  <time>2026-09-01T20:03:21Z</time>
  <course>270.0</course>
  <speed>0.0</speed>
  <fix>3d</fix>
</trkpt>
<trkpt lat="-27.2744392" lon="151.2900641">
  <ele>343.21</ele>
  <time>2026-09-01T20:03:21Z</time>
  <course>11.32</course>
  <speed>0.022360679774997897</speed>
  <fix>3d</fix>
</trkpt>
<trkpt lat="-27.274439" lon="151.290064">
  <ele>343.1</ele>
  <time>2026-09-01T20:03:21Z</time>
  <course>270.0</course>
  <speed>0.0</speed>
  <fix>3d</fix>
</trkpt>
<trkpt lat="-27.2744392" lon="151.2900641">
  <ele>343.21</ele>
  <time>2026-09-01T20:03:21Z</time>
  <course>11.32</course>
  <speed>0.022360679774997897</speed>
  <fix>3d</fix>
</trkpt>
<trkpt lat="-27.274439" lon="151.290064">
  <ele>343.1</ele>
  <time>2026-09-01T20:03:21Z</time>
  <course>270.0</course>
  <speed>0.0</speed>
  <fix>3d</fix>
</trkpt>
<trkpt lat="-27.2744392" lon="151.2900641">
  <ele>343.21</ele>
  <time>2026-09-01T20:03:21Z</time>
  <course>11.32</course>
  <speed>0.022360679774997897</speed>
  <fix>3d</fix>
</trkpt>
<trkpt lat="-27.274439" lon="151.290064">
  <ele>343.1</ele>
  <time>2026-09-01T20:03:21Z</time>
  <course>270.0</course>
  <speed>0.0</speed>
  <fix>3d</fix>
</trkpt>
<trkpt lat="-27.2744392" lon="151.2900641">
  <ele>343.21</ele>
  <time>2026-09-01T20:03:21Z</time>
  <course>11.32</course>
  <speed>0.022360679774997897</speed>
  <fix>3d</fix>
</trkpt>
<trkpt lat="-27.274439" lon="151.290064">
  <ele>343.1</ele>
  <time>2026-09-01T20:03:21Z</time>
  <course>270.0</course>
  <speed>0.0</speed>
  <fix>3d</fix>
</trkpt>
<trkpt lat="-27.2744392" lon="151.2900641">
  <ele>343.22</ele>
  <time>2026-09-01T20:03:21Z</time>
  <course>11.32</course>
  <speed>0.022360679774997897</speed>
  <fix>3d</fix>
</trkpt>
<trkpt lat="-27.274439" lon="151.290064">
  <ele>343.1</ele>
  <time>2026-09-01T20:03:21Z</time>
  <course>270.0</course>
  <speed>0.0</speed>
  <fix>3d</fix>
</trkpt>
<trkpt lat="-27.2744392" lon="151.2900641">
  <ele>343.22</ele>
  <time>2026-09-01T20:03:21Z</time>
  <course>11.32</course>
  <speed>0.022360679774997897</speed>
  <fix>3d</fix>
</trkpt>
<trkpt lat="-27.274439" lon="151.290064">
  <ele>343.1</ele>
  <time>2026-09-01T20:03:21Z</time>
  <course>270.0</course>
  <speed>0.0</speed>
  <fix>3d</fix>
</trkpt>
<trkpt lat="-27.2744392" lon="151.2900641">
  <ele>343.22</ele>
  <time>2026-09-01T20:03:21Z</time>
  <course>11.33</course>
  <speed>0.022360679774997897</speed>
  <fix>3d</fix>
</trkpt>
<trkpt lat="-27.274439" lon="151.290064">
  <ele>343.1</ele>
  <time>2026-09-01T20:03:21Z</time>
  <course>270.0</course>
  <speed>0.0</speed>
  <fix>3d</fix>
</trkpt>
<trkpt lat="-27.2744392" lon="151.2900641">
  <ele>343.22</ele>
  <time>2026-09-01T20:03:21Z</time>
  <course>11.33</course>
  <speed>0.022360679774997897</speed>
  <fix>3d</fix>
</trkpt>
<trkpt lat="-27.274439" lon="151.290064">
  <ele>343.1</ele>
  <time>2026-09-01T20:03:21Z</time>
  <course>270.0</course>
  <speed>0.0</speed>
  <fix>3d</fix>
</trkpt>
<trkpt lat="-27.2744392" lon="151.2900641">
  <ele>343.22</ele>
  <time>2026-09-01T20:03:21Z</time>
  <course>11.33</course>
  <speed>0.022360679774997897</speed>
  <fix>3d</fix>
</trkpt>
<trkpt lat="-27.274439" lon="151.290064">
  <ele>343.1</ele>
  <time>2026-09-01T20:03:21Z</time>
  <course>270.0</course>
  <speed>0.0</speed>
  <fix>3d</fix>
</trkpt>
<trkpt lat="-27.2744392" lon="151.2900641">
  <ele>343.1</ele>
  <time>2026-09-01T20:03:21Z</time>
  <course>11.33</course>
  <speed>0.022360679774997897</speed>
  <fix>3d</fix>
</trkpt>
<trkpt lat="-27.274439" lon="151.290064">
  <ele>343.1</ele>
  <time>2026-09-01T20:03:21Z</time>
  <course>270.0</course>
  <speed>0.0</speed>
  <fix>3d</fix>
</trkpt>
<trkpt lat="-27.2744392" lon="151.2900641">
  <ele>343.1</ele>
  <time>2026-09-01T20:03:21Z</time>
  <course>11.33</course>
  <speed>0.022360679774997897</speed>
  <fix>3d</fix>
</trkpt>
<trkpt lat="-27.274439" lon="151.290064">
  <ele>343.1</ele>
  <time>2026-09-01T20:03:21Z</time>
  <course>270.0</course>
  <speed>0.0</speed>
  <fix>3d</fix>
</trkpt>
<trkpt lat="-27.2744392" lon="151.2900641">
  <ele>343.1</ele>
  <time>2026-09-01T20:03:21Z</time>
  <course>11.33</course>
  <speed>0.022360679774997897</speed>
  <fix>3d</fix>
</trkpt>
<trkpt lat="-27.274439" lon="151.290064">
  <ele>343.1</ele>
  <time>2026-09-01T20:03:21Z</time>
  <course>270.0</course>
  <speed>0.0</speed>
  <fix>3d</fix>
</trkpt>
<trkpt lat="-27.2744392" lon="151.2900641">
  <ele>343.1</ele>
  <time>2026-09-01T20:03:21Z</time>
  <course>11.33</course>
  <speed>0.022360679774997897</speed>
  <fix>3d</fix>
</trkpt>
<trkpt lat="-27.274439" lon="151.290064">
  <ele>343.1</ele>
  <time>2026-09-01T20:03:21Z</time>
  <course>270.0</course>
  <speed>0.0</speed>
  <fix>3d</fix>
</trkpt>
<trkpt lat="-27.2744392" lon="151.2900641">
  <ele>343.1</ele>
  <time>2026-09-01T20:03:21Z</time>
  <course>11.33</course>
  <speed>0.022360679774997897</speed>
  <fix>3d</fix>
</trkpt>
<trkpt lat="-27.274439" lon="151.290064">
  <ele>343.1</ele>
  <time>2026-09-01T20:03:21Z</time>
  <course>270.0</course>
  <speed>0.0</speed>
  <fix>3d</fix>
</trkpt>
<trkpt lat="-27.2744392" lon="151.2900641">
  <ele>343.1</ele>
  <time>2026-09-01T20:03:21Z</time>
  <course>11.33</course>
  <speed>0.022360679774997897</speed>
  <fix>3d</fix>
</trkpt>
<trkpt lat="-27.274439" lon="151.290064">
  <ele>343.1</ele>
  <time>2026-09-01T20:03:21Z</time>
  <course>270.0</course>
  <speed>0.0</speed>
  <fix>3d</fix>
</trkpt>
<trkpt lat="-27.2744392" lon="151.2900641">
  <ele>343.1</ele>
  <time>2026-09-01T20:03:21Z</time>
  <course>11.33</course>
  <speed>0.022360679774997897</speed>
  <fix>3d</fix>
</trkpt>
<trkpt lat="-27.274439" lon="151.290064">
  <ele>343.1</ele>
  <time>2026-09-01T20:03:21Z</time>
  <course>270.0</course>
  <speed>0.0</speed>
  <fix>3d</fix>
</trkpt>
<trkpt lat="-27.2744392" lon="151.2900641">
  <ele>343.1</ele>
  <time>2026-09-01T20:03:21Z</time>
  <course>11.33</course>
  <speed>0.022360679774997897</speed>
  <fix>3d</fix>
</trkpt>
<trkpt lat="-27.274439" lon="151.290064">
  <ele>343.1</ele>
  <time>2026-09-01T20:03:21Z</time>
  <course>270.0</course>
  <speed>0.0</speed>
  <fix>3d</fix>
</trkpt>
<trkpt lat="-27.2744392" lon="151.2900641">
  <ele>343.1</ele>
  <time>2026-09-01T20:03:21Z</time>
  <course>11.34</course>
  <speed>0.022360679774997897</speed>
  <fix>3d</fix>
</trkpt>
<trkpt lat="-27.274439" lon="151.290064">
  <ele>343.1</ele>
  <time>2026-09-01T20:03:21Z</time>
  <course>270.0</course>
  <speed>0.0</speed>
  <fix>3d</fix>
</trkpt>
<trkpt lat="-27.2744392" lon="151.2900641">
  <ele>343.1</ele>
  <time>2026-09-01T20:03:21Z</time>
  <course>11.34</course>
  <speed>0.022360679774997897</speed>
  <fix>3d</fix>
</trkpt>
<trkpt lat="-27.274439" lon="151.290064">
  <ele>343.1</ele>
  <time>2026-09-01T20:03:21Z</time>
  <course>270.0</course>
  <speed>0.0</speed>
  <fix>3d</fix>
</trkpt>
<trkpt lat="-27.2744392" lon="151.2900641">
  <ele>343.1</ele>
  <time>2026-09-01T20:03:21Z</time>
  <course>11.34</course>
  <speed>0.022360679774997897</speed>
  <fix>3d</fix>
</trkpt>
<trkpt lat="-27.274439" lon="151.290064">
  <ele>343.1</ele>
  <time>2026-09-01T20:03:21Z</time>
  <course>270.0</course>
  <speed>0.0</speed>
  <fix>3d</fix>
</trkpt>
<trkpt lat="-27.2744392" lon="151.2900641">
  <ele>343.1</ele>
  <time>2026-09-01T20:03:21Z</time>
  <course>11.34</course>
  <speed>0.022360679774997897</speed>
  <fix>3d</fix>
</trkpt>
<trkpt lat="-27.274439" lon="151.290064">
  <ele>343.1</ele>
  <time>2026-09-01T20:03:21Z</time>
  <course>270.0</course>
  <speed>0.0</speed>
  <fix>3d</fix>
</trkpt>
<trkpt lat="-27.2744392" lon="151.2900641">
  <ele>343.1</ele>
  <time>2026-09-01T20:03:21Z</time>
  <course>11.34</course>
  <speed>0.022360679774997897</speed>
  <fix>3d</fix>
</trkpt>
<trkpt lat="-27.274439" lon="151.290064">
  <ele>343.1</ele>
  <time>2026-09-01T20:03:21Z</time>
  <course>270.0</course>
  <speed>0.0</speed>
  <fix>3d</fix>
</trkpt>
<trkpt lat="-27.2744392" lon="151.2900641">
  <ele>343.1</ele>
  <time>2026-09-01T20:03:21Z</time>
  <course>11.34</course>
  <speed>0.022360679774997897</speed>
  <fix>3d</fix>
</trkpt>
<trkpt lat="-27.274439" lon="151.290064">
  <ele>343.1</ele>
  <time>2026-09-01T20:03:21Z</time>
  <course>270.0</course>
  <speed>0.0</speed>
  <fix>3d</fix>
</trkpt>
<trkpt lat="-27.2744392" lon="151.2900641">
  <ele>343.1</ele>
  <time>2026-09-01T20:03:21Z</time>
  <course>11.34</course>
  <speed>0.022360679774997897</speed>
  <fix>3d</fix>
</trkpt>
<trkpt lat="-27.274439" lon="151.290064">
  <ele>343.1</ele>
  <time>2026-09-01T20:03:21Z</time>
  <course>270.0</course>
  <speed>0.0</speed>
  <fix>3d</fix>
</trkpt>
<trkpt lat="-27.2744392" lon="151.2900641">
  <ele>343.1</ele>
  <time>2026-09-01T20:03:21Z</time>
  <course>11.34</course>
  <speed>0.022360679774997897</speed>
  <fix>3d</fix>
</trkpt>
<trkpt lat="-27.274439" lon="151.290064">
  <ele>343.1</ele>
  <time>2026-09-01T20:03:21Z</time>
  <course>270.0</course>
  <speed>0.0</speed>
  <fix>3d</fix>
</trkpt>
<trkpt lat="-27.2744392" lon="151.2900641">
  <ele>343.1</ele>
  <time>2026-09-01T20:03:21Z</time>
  <course>11.34</course>
  <speed>0.022360679774997897</speed>
  <fix>3d</fix>
</trkpt>
<trkpt lat="-27.274439" lon="151.290064">
  <ele>343.1</ele>
  <time>2026-09-01T20:03:21Z</time>
  <course>270.0</course>
  <speed>0.0</speed>
  <fix>3d</fix>
</trkpt>
<trkpt lat="-27.2744392" lon="151.2900641">
  <ele>343.1</ele>
  <time>2026-09-01T20:03:21Z</time>
  <course>11.34</course>
  <speed>0.022360679774997897</speed>
  <fix>3d</fix>
</trkpt>
<trkpt lat="-27.274439" lon="151.290064">
  <ele>343.1</ele>
  <time>2026-09-01T20:03:21Z</time>
  <course>270.0</course>
  <speed>0.0</speed>
  <fix>3d</fix>
</trkpt>
<trkpt lat="-27.2744392" lon="151.2900641">
  <ele>343.1</ele>
  <time>2026-09-01T20:03:21Z</time>
  <course>11.35</course>
  <speed>0.022360679774997897</speed>
  <fix>3d</fix>
</trkpt>
<trkpt lat="-27.274439" lon="151.290064">
  <ele>343.1</ele>
  <time>2026-09-01T20:03:21Z</time>
  <course>270.0</course>
  <speed>0.0</speed>
  <fix>3d</fix>
</trkpt>
<trkpt lat="-27.2744392" lon="151.2900641">
  <ele>343.1</ele>
  <time>2026-09-01T20:03:21Z</time>
  <course>11.35</course>
  <speed>0.022360679774997897</speed>
  <fix>3d</fix>
</trkpt>
<trkpt lat="-27.274439" lon="151.290064">
  <ele>343.1</ele>
  <time>2026-09-01T20:03:21Z</time>
  <course>270.0</course>
  <speed>0.0</speed>
  <fix>3d</fix>
</trkpt>
<trkpt lat="-27.2744392" lon="151.2900641">
  <ele>343.1</ele>
  <time>2026-09-01T20:03:21Z</time>
  <course>11.35</course>
  <speed>0.022360679774997897</speed>
  <fix>3d</fix>
</trkpt>
<trkpt lat="-27.274439" lon="151.290064">
  <ele>343.1</ele>
  <time>2026-09-01T20:03:21Z</time>
  <course>270.0</course>
  <speed>0.0</speed>
  <fix>3d</fix>
</trkpt>
<trkpt lat="-27.2744392" lon="151.2900641">
  <ele>343.1</ele>
  <time>2026-09-01T20:03:21Z</time>
  <course>11.35</course>
  <speed>0.022360679774997897</speed>
  <fix>3d</fix>
</trkpt>
<trkpt lat="-27.274439" lon="151.290064">
  <ele>343.1</ele>
  <time>2026-09-01T20:03:21Z</time>
  <course>270.0</course>
  <speed>0.0</speed>
  <fix>3d</fix>
</trkpt>
<trkpt lat="-27.2744392" lon="151.2900641">
  <ele>343.1</ele>
  <time>2026-09-01T20:03:21Z</time>
  <course>11.35</course>
  <speed>0.022360679774997897</speed>
  <fix>3d</fix>
</trkpt>
<trkpt lat="-27.274439" lon="151.290064">
  <ele>343.1</ele>
  <time>2026-09-01T20:03:21Z</time>
  <course>270.0</course>
  <speed>0.0</speed>
  <fix>3d</fix>
</trkpt>
<trkpt lat="-27.2744392" lon="151.2900641">
  <ele>343.1</ele>
  <time>2026-09-01T20:03:21Z</time>
  <course>11.35</course>
  <speed>0.022360679774997897</speed>
  <fix>3d</fix>
</trkpt>
<trkpt lat="-27.274439" lon="151.290064">
  <ele>343.1</ele>
  <time>2026-09-01T20:03:21Z</time>
  <course>270.0</course>
  <speed>0.0</speed>
  <fix>3d</fix>
</trkpt>
<trkpt lat="-27.2744392" lon="151.2900641">
  <ele>343.1</ele>
  <time>2026-09-01T20:03:21Z</time>
  <course>11.35</course>
  <speed>0.022360679774997897</speed>
  <fix>3d</fix>
</trkpt>
<trkpt lat="-27.274439" lon="151.290064">
  <ele>343.1</ele>
  <time>2026-09-01T20:03:21Z</time>
  <course>270.0</course>
  <speed>0.0</speed>
  <fix>3d</fix>
</trkpt>
<trkpt lat="-27.2744392" lon="151.2900641">
  <ele>343.1</ele>
  <time>2026-09-01T20:03:21Z</time>
  <course>11.35</course>
  <speed>0.022360679774997897</speed>
  <fix>3d</fix>
</trkpt>
<trkpt lat="-27.274439" lon="151.290064">
  <ele>343.1</ele>
  <time>2026-09-01T20:03:21Z</time>
  <course>270.0</course>
  <speed>0.0</speed>
  <fix>3d</fix>
</trkpt>
<trkpt lat="-27.2744392" lon="151.2900641">
  <ele>343.1</ele>
  <time>2026-09-01T20:03:21Z</time>
  <course>11.35</course>
  <speed>0.022360679774997897</speed>
  <fix>3d</fix>
</trkpt>
<trkpt lat="-27.274439" lon="151.290064">
  <ele>343.1</ele>
  <time>2026-09-01T20:03:21Z</time>
  <course>270.0</course>
  <speed>0.0</speed>
  <fix>3d</fix>
</trkpt>
<trkpt lat="-27.2744392" lon="151.2900641">
  <ele>343.1</ele>
  <time>2026-09-01T20:03:21Z</time>
  <course>11.35</course>
  <speed>0.022360679774997897</speed>
  <fix>3d</fix>
</trkpt>
<trkpt lat="-27.274439" lon="151.290064">
  <ele>343.1</ele>
  <time>2026-09-01T20:03:21Z</time>
  <course>270.0</course>
  <speed>0.0</speed>
  <fix>3d</fix>
</trkpt>
<trkpt lat="-27.2744392" lon="151.2900641">
  <ele>343.1</ele>
  <time>2026-09-01T20:03:21Z</time>
  <course>11.36</course>
  <speed>0.022360679774997897</speed>
  <fix>3d</fix>
</trkpt>
<trkpt lat="-27.274439" lon="151.290064">
  <ele>343.1</ele>
  <time>2026-09-01T20:03:21Z</time>
  <course>270.0</course>
  <speed>0.0</speed>
  <fix>3d</fix>
</trkpt>
<trkpt lat="-27.2744392" lon="151.2900641">
  <ele>343.1</ele>
  <time>2026-09-01T20:03:21Z</time>
  <course>11.36</course>
  <speed>0.022360679774997897</speed>
  <fix>3d</fix>
</trkpt>
<trkpt lat="-27.274439" lon="151.290064">
  <ele>343.1</ele>
  <time>2026-09-01T20:03:21Z</time>
  <course>270.0</course>
  <speed>0.0</speed>
  <fix>3d</fix>
</trkpt>
<trkpt lat="-27.2744392" lon="151.2900641">
  <ele>343.1</ele>
  <time>2026-09-01T20:03:21Z</time>
  <course>11.36</course>
  <speed>0.022360679774997897</speed>
  <fix>3d</fix>
</trkpt>
<trkpt lat="-27.274439" lon="151.290064">
  <ele>343.1</ele>
  <time>2026-09-01T20:03:21Z</time>
  <course>270.0</course>
  <speed>0.0</speed>
  <fix>3d</fix>
</trkpt>
<trkpt lat="-27.2744392" lon="151.2900641">
  <ele>343.1</ele>
  <time>2026-09-01T20:03:21Z</time>
  <course>11.36</course>
  <speed>0.022360679774997897</speed>
  <fix>3d</fix>
</trkpt>
<trkpt lat="-27.274439" lon="151.290064">
  <ele>343.1</ele>
  <time>2026-09-01T20:03:21Z</time>
  <course>270.0</course>
  <speed>0.0</speed>
  <fix>3d</fix>
</trkpt>
<trkpt lat="-27.2744392" lon="151.2900641">
  <ele>343.1</ele>
  <time>2026-09-01T20:03:21Z</time>
  <course>11.36</course>
  <speed>0.022360679774997897</speed>
  <fix>3d</fix>
</trkpt>
<trkpt lat="-27.274439" lon="151.290064">
  <ele>343.1</ele>
  <time>2026-09-01T20:03:21Z</time>
  <course>270.0</course>
  <speed>0.0</speed>
  <fix>3d</fix>
</trkpt>
<trkpt lat="-27.2744392" lon="151.2900641">
  <ele>343.1</ele>
  <time>2026-09-01T20:03:21Z</time>
  <course>11.36</course>
  <speed>0.022360679774997897</speed>
  <fix>3d</fix>
</trkpt>
<trkpt lat="-27.274439" lon="151.290064">
  <ele>343.1</ele>
  <time>2026-09-01T20:03:21Z</time>
  <course>270.0</course>
  <speed>0.0</speed>
  <fix>3d</fix>
</trkpt>
<trkpt lat="-27.2744392" lon="151.2900641">
  <ele>343.1</ele>
  <time>2026-09-01T20:03:21Z</time>
  <course>11.36</course>
  <speed>0.022360679774997897</speed>
  <fix>3d</fix>
</trkpt>
<trkpt lat="-27.274439" lon="151.290064">
  <ele>343.1</ele>
  <time>2026-09-01T20:03:21Z</time>
  <course>270.0</course>
  <speed>0.0</speed>
  <fix>3d</fix>
</trkpt>
<trkpt lat="-27.2744392" lon="151.2900641">
  <ele>343.11</ele>
  <time>2026-09-01T20:03:21Z</time>
  <course>11.36</course>
  <speed>0.022360679774997897</speed>
  <fix>3d</fix>
</trkpt>
<trkpt lat="-27.274439" lon="151.290064">
  <ele>343.1</ele>
  <time>2026-09-01T20:03:21Z</time>
  <course>270.0</course>
  <speed>0.0</speed>
  <fix>3d</fix>
</trkpt>
<trkpt lat="-27.2744392" lon="151.2900641">
  <ele>343.11</ele>
  <time>2026-09-01T20:03:21Z</time>
  <course>11.36</course>
  <speed>0.022360679774997897</speed>
  <fix>3d</fix>
</trkpt>
<trkpt lat="-27.274439" lon="151.290064">
  <ele>343.1</ele>
  <time>2026-09-01T20:03:21Z</time>
  <course>270.0</course>
  <speed>0.0</speed>
  <fix>3d</fix>
</trkpt>
<trkpt lat="-27.2744392" lon="151.2900641">
  <ele>343.11</ele>
  <time>2026-09-01T20:03:21Z</time>
  <course>11.36</course>
  <speed>0.022360679774997897</speed>
  <fix>3d</fix>
</trkpt>
<trkpt lat="-27.274439" lon="151.290064">
  <ele>343.1</ele>
  <time>2026-09-01T20:03:21Z</time>
  <course>270.0</course>
  <speed>0.0</speed>
  <fix>3d</fix>
</trkpt>
<trkpt lat="-27.2744392" lon="151.2900641">
  <ele>343.11</ele>
  <time>2026-09-01T20:03:21Z</time>
  <course>11.37</course>
  <speed>0.022360679774997897</speed>
  <fix>3d</fix>
</trkpt>
<trkpt lat="-27.274439" lon="151.290064">
  <ele>343.1</ele>
  <time>2026-09-01T20:03:21Z</time>
  <course>270.0</course>
  <speed>0.0</speed>
  <fix>3d</fix>
</trkpt>
<trkpt lat="-27.2744392" lon="151.2900641">
  <ele>343.11</ele>
  <time>2026-09-01T20:03:21Z</time>
  <course>11.37</course>
  <speed>0.022360679774997897</speed>
  <fix>3d</fix>
</trkpt>
<trkpt lat="-27.274439" lon="151.290064">
  <ele>343.1</ele>
  <time>2026-09-01T20:03:21Z</time>
  <course>270.0</course>
  <speed>0.0</speed>
  <fix>3d</fix>
</trkpt>
<trkpt lat="-27.2744392" lon="151.2900641">
  <ele>343.11</ele>
  <time>2026-09-01T20:03:21Z</time>
  <course>11.37</course>
  <speed>0.022360679774997897</speed>
  <fix>3d</fix>
</trkpt>
<trkpt lat="-27.274439" lon="151.290064">
  <ele>343.1</ele>
  <time>2026-09-01T20:03:21Z</time>
  <course>270.0</course>
  <speed>0.0</speed>
  <fix>3d</fix>
</trkpt>
<trkpt lat="-27.2744392" lon="151.2900641">
  <ele>343.11</ele>
  <time>2026-09-01T20:03:21Z</time>
  <course>11.37</course>
  <speed>0.022360679774997897</speed>
  <fix>3d</fix>
</trkpt>
<trkpt lat="-27.274439" lon="151.290064">
  <ele>343.1</ele>
  <time>2026-09-01T20:03:21Z</time>
  <course>270.0</course>
  <speed>0.0</speed>
  <fix>3d</fix>
</trkpt>
<trkpt lat="-27.2744392" lon="151.2900641">
  <ele>343.11</ele>
  <time>2026-09-01T20:03:21Z</time>
  <course>11.37</course>
  <speed>0.022360679774997897</speed>
  <fix>3d</fix>
</trkpt>
<trkpt lat="-27.274439" lon="151.290064">
  <ele>343.1</ele>
  <time>2026-09-01T20:03:21Z</time>
  <course>270.0</course>
  <speed>0.0</speed>
  <fix>3d</fix>
</trkpt>
<trkpt lat="-27.2744392" lon="151.2900641">
  <ele>343.11</ele>
  <time>2026-09-01T20:03:21Z</time>
  <course>11.37</course>
  <speed>0.022360679774997897</speed>
  <fix>3d</fix>
</trkpt>
<trkpt lat="-27.274439" lon="151.290064">
  <ele>343.1</ele>
  <time>2026-09-01T20:03:21Z</time>
  <course>270.0</course>
  <speed>0.0</speed>
  <fix>3d</fix>
</trkpt>
<trkpt lat="-27.2744392" lon="151.2900641">
  <ele>343.11</ele>
  <time>2026-09-01T20:03:21Z</time>
  <course>11.37</course>
  <speed>0.022360679774997897</speed>
  <fix>3d</fix>
</trkpt>
<trkpt lat="-27.274439" lon="151.290064">
  <ele>343.1</ele>
  <time>2026-09-01T20:03:21Z</time>
  <course>270.0</course>
  <speed>0.0</speed>
  <fix>3d</fix>
</trkpt>
<trkpt lat="-27.2744392" lon="151.2900641">
  <ele>343.11</ele>
  <time>2026-09-01T20:03:21Z</time>
  <course>11.37</course>
  <speed>0.022360679774997897</speed>
  <fix>3d</fix>
</trkpt>
<trkpt lat="-27.274439" lon="151.290064">
  <ele>343.1</ele>
  <time>2026-09-01T20:03:21Z</time>
  <course>270.0</course>
  <speed>0.0</speed>
  <fix>3d</fix>
</trkpt>
<trkpt lat="-27.2744392" lon="151.2900641">
  <ele>343.11</ele>
  <time>2026-09-01T20:03:21Z</time>
  <course>11.37</course>
  <speed>0.022360679774997897</speed>
  <fix>3d</fix>
</trkpt>
<trkpt lat="-27.274439" lon="151.290064">
  <ele>343.1</ele>
  <time>2026-09-01T20:03:21Z</time>
  <course>270.0</course>
  <speed>0.0</speed>
  <fix>3d</fix>
</trkpt>
<trkpt lat="-27.2744392" lon="151.2900641">
  <ele>343.11</ele>
  <time>2026-09-01T20:03:21Z</time>
  <course>11.37</course>
  <speed>0.022360679774997897</speed>
  <fix>3d</fix>
</trkpt>
<trkpt lat="-27.274439" lon="151.290064">
  <ele>343.1</ele>
  <time>2026-09-01T20:03:21Z</time>
  <course>270.0</course>
  <speed>0.0</speed>
  <fix>3d</fix>
</trkpt>
<trkpt lat="-27.2744392" lon="151.2900641">
  <ele>343.11</ele>
  <time>2026-09-01T20:03:21Z</time>
  <course>11.37</course>
  <speed>0.022360679774997897</speed>
  <fix>3d</fix>
</trkpt>
<trkpt lat="-27.274439" lon="151.290064">
  <ele>343.1</ele>
  <time>2026-09-01T20:03:21Z</time>
  <course>270.0</course>
  <speed>0.0</speed>
  <fix>3d</fix>
</trkpt>
<trkpt lat="-27.2744392" lon="151.2900641">
  <ele>343.11</ele>
  <time>2026-09-01T20:03:21Z</time>
  <course>11.38</course>
  <speed>0.022360679774997897</speed>
  <fix>3d</fix>
</trkpt>
<trkpt lat="-27.274439" lon="151.290064">
  <ele>343.1</ele>
  <time>2026-09-01T20:03:21Z</time>
  <course>270.0</course>
  <speed>0.0</speed>
  <fix>3d</fix>
</trkpt>
<trkpt lat="-27.2744392" lon="151.2900641">
  <ele>343.11</ele>
  <time>2026-09-01T20:03:21Z</time>
  <course>11.38</course>
  <speed>0.022360679774997897</speed>
  <fix>3d</fix>
</trkpt>
<trkpt lat="-27.274439" lon="151.290064">
  <ele>343.1</ele>
  <time>2026-09-01T20:03:21Z</time>
  <course>270.0</course>
  <speed>0.0</speed>
  <fix>3d</fix>
</trkpt>
<trkpt lat="-27.2744392" lon="151.2900641">
  <ele>343.12</ele>
  <time>2026-09-01T20:03:21Z</time>
  <course>11.38</course>
  <speed>0.022360679774997897</speed>
  <fix>3d</fix>
</trkpt>
<trkpt lat="-27.274439" lon="151.290064">
  <ele>343.1</ele>
  <time>2026-09-01T20:03:21Z</time>
  <course>270.0</course>
  <speed>0.0</speed>
  <fix>3d</fix>
</trkpt>
<trkpt lat="-27.2744392" lon="151.2900641">
  <ele>343.12</ele>
  <time>2026-09-01T20:03:21Z</time>
  <course>11.38</course>
  <speed>0.022360679774997897</speed>
  <fix>3d</fix>
</trkpt>
<trkpt lat="-27.274439" lon="151.290064">
  <ele>343.1</ele>
  <time>2026-09-01T20:03:21Z</time>
  <course>270.0</course>
  <speed>0.0</speed>
  <fix>3d</fix>
</trkpt>
<trkpt lat="-27.2744392" lon="151.2900641">
  <ele>343.12</ele>
  <time>2026-09-01T20:03:21Z</time>
  <course>11.38</course>
  <speed>0.022360679774997897</speed>
  <fix>3d</fix>
</trkpt>
<trkpt lat="-27.274439" lon="151.290064">
  <ele>343.1</ele>
  <time>2026-09-01T20:03:21Z</time>
  <course>270.0</course>
  <speed>0.0</speed>
  <fix>3d</fix>
</trkpt>
<trkpt lat="-27.2744392" lon="151.2900641">
  <ele>343.12</ele>
  <time>2026-09-01T20:03:21Z</time>
  <course>11.38</course>
  <speed>0.022360679774997897</speed>
  <fix>3d</fix>
</trkpt>
<trkpt lat="-27.274439" lon="151.290064">
  <ele>343.1</ele>
  <time>2026-09-01T20:03:21Z</time>
  <course>270.0</course>
  <speed>0.0</speed>
  <fix>3d</fix>
</trkpt>
<trkpt lat="-27.2744392" lon="151.2900641">
  <ele>343.13</ele>
  <time>2026-09-01T20:03:21Z</time>
  <course>11.38</course>
  <speed>0.022360679774997897</speed>
  <fix>3d</fix>
</trkpt>
<trkpt lat="-27.274439" lon="151.290064">
  <ele>343.1</ele>
  <time>2026-09-01T20:03:21Z</time>
  <course>270.0</course>
  <speed>0.0</speed>
  <fix>3d</fix>
</trkpt>
<trkpt lat="-27.2744392" lon="151.2900641">
  <ele>343.13</ele>
  <time>2026-09-01T20:03:21Z</time>
  <course>11.38</course>
  <speed>0.022360679774997897</speed>
  <fix>3d</fix>
</trkpt>
<trkpt lat="-27.274439" lon="151.290064">
  <ele>343.1</ele>
  <time>2026-09-01T20:03:21Z</time>
  <course>270.0</course>
  <speed>0.0</speed>
  <fix>3d</fix>
</trkpt>
<trkpt lat="-27.2744392" lon="151.2900641">
  <ele>343.13</ele>
  <time>2026-09-01T20:03:21Z</time>
  <course>11.38</course>
  <speed>0.022360679774997897</speed>
  <fix>3d</fix>
</trkpt>
<trkpt lat="-27.274439" lon="151.290064">
  <ele>343.1</ele>
  <time>2026-09-01T20:03:21Z</time>
  <course>270.0</course>
  <speed>0.0</speed>
  <fix>3d</fix>
</trkpt>
<trkpt lat="-27.2744392" lon="151.2900641">
  <ele>343.13</ele>
  <time>2026-09-01T20:03:21Z</time>
  <course>11.38</course>
  <speed>0.022360679774997897</speed>
  <fix>3d</fix>
</trkpt>
<trkpt lat="-27.274439" lon="151.290064">
  <ele>343.1</ele>
  <time>2026-09-01T20:03:21Z</time>
  <course>270.0</course>
  <speed>0.0</speed>
  <fix>3d</fix>
</trkpt>
<trkpt lat="-27.2744392" lon="151.2900641">
  <ele>343.13</ele>
  <time>2026-09-01T20:03:21Z</time>
  <course>11.38</course>
  <speed>0.022360679774997897</speed>
  <fix>3d</fix>
</trkpt>
<trkpt lat="-27.274439" lon="151.290064">
  <ele>343.1</ele>
  <time>2026-09-01T20:03:21Z</time>
  <course>270.0</course>
  <speed>0.0</speed>
  <fix>3d</fix>
</trkpt>
<trkpt lat="-27.2744392" lon="151.2900641">
  <ele>343.1</ele>
  <time>2026-09-01T20:03:21Z</time>
  <course>11.39</course>
  <speed>0.022360679774997897</speed>
  <fix>3d</fix>
</trkpt>
<trkpt lat="-27.274439" lon="151.290064">
  <ele>343.1</ele>
  <time>2026-09-01T20:03:21Z</time>
  <course>270.0</course>
  <speed>0.0</speed>
  <fix>3d</fix>
</trkpt>
<trkpt lat="-27.2744392" lon="151.2900641">
  <ele>343.09</ele>
  <time>2026-09-01T20:03:21Z</time>
  <course>11.39</course>
  <speed>0.022360679774997897</speed>
  <fix>3d</fix>
</trkpt>
<trkpt lat="-27.274439" lon="151.290064">
  <ele>343.1</ele>
  <time>2026-09-01T20:03:21Z</time>
  <course>270.0</course>
  <speed>0.0</speed>
  <fix>3d</fix>
</trkpt>
<trkpt lat="-27.2744392" lon="151.2900641">
  <ele>343.1</ele>
  <time>2026-09-01T20:03:21Z</time>
  <course>11.39</course>
  <speed>0.022360679774997897</speed>
  <fix>3d</fix>
</trkpt>
<trkpt lat="-27.274439" lon="151.290064">
  <ele>343.1</ele>
  <time>2026-09-01T20:03:21Z</time>
  <course>270.0</course>
  <speed>0.0</speed>
  <fix>3d</fix>
</trkpt>
<trkpt lat="-27.2744392" lon="151.2900641">
  <ele>343.1</ele>
  <time>2026-09-01T20:03:21Z</time>
  <course>11.39</course>
  <speed>0.022360679774997897</speed>
  <fix>3d</fix>
</trkpt>
<trkpt lat="-27.274439" lon="151.290064">
  <ele>343.1</ele>
  <time>2026-09-01T20:03:21Z</time>
  <course>270.0</course>
  <speed>0.0</speed>
  <fix>3d</fix>
</trkpt>
<trkpt lat="-27.2744392" lon="151.2900641">
  <ele>343.1</ele>
  <time>2026-09-01T20:03:21Z</time>
  <course>11.39</course>
  <speed>0.022360679774997897</speed>
  <fix>3d</fix>
</trkpt>
<trkpt lat="-27.274439" lon="151.290064">
  <ele>343.1</ele>
  <time>2026-09-01T20:03:21Z</time>
  <course>270.0</course>
  <speed>0.0</speed>
  <fix>3d</fix>
</trkpt>
<trkpt lat="-27.2744392" lon="151.2900641">
  <ele>343.11</ele>
  <time>2026-09-01T20:03:21Z</time>
  <course>11.39</course>
  <speed>0.022360679774997897</speed>
  <fix>3d</fix>
</trkpt>
<trkpt lat="-27.274439" lon="151.290064">
  <ele>343.1</ele>
  <time>2026-09-01T20:03:21Z</time>
  <course>270.0</course>
  <speed>0.0</speed>
  <fix>3d</fix>
</trkpt>
<trkpt lat="-27.2744392" lon="151.2900641">
  <ele>343.11</ele>
  <time>2026-09-01T20:03:21Z</time>
  <course>11.39</course>
  <speed>0.022360679774997897</speed>
  <fix>3d</fix>
</trkpt>
<trkpt lat="-27.274439" lon="151.290064">
  <ele>343.1</ele>
  <time>2026-09-01T20:03:21Z</time>
  <course>270.0</course>
  <speed>0.0</speed>
  <fix>3d</fix>
</trkpt>
<trkpt lat="-27.2744392" lon="151.2900641">
  <ele>343.11</ele>
  <time>2026-09-01T20:03:21Z</time>
  <course>11.39</course>
  <speed>0.022360679774997897</speed>
  <fix>3d</fix>
</trkpt>
<trkpt lat="-27.274439" lon="151.290064">
  <ele>343.1</ele>
  <time>2026-09-01T20:03:21Z</time>
  <course>270.0</course>
  <speed>0.0</speed>
  <fix>3d</fix>
</trkpt>
<trkpt lat="-27.2744392" lon="151.2900641">
  <ele>343.12</ele>
  <time>2026-09-01T20:03:21Z</time>
  <course>11.39</course>
  <speed>0.022360679774997897</speed>
  <fix>3d</fix>
</trkpt>
<trkpt lat="-27.274439" lon="151.290064">
  <ele>343.1</ele>
  <time>2026-09-01T20:03:21Z</time>
  <course>270.0</course>
  <speed>0.0</speed>
  <fix>3d</fix>
</trkpt>
<trkpt lat="-27.2744392" lon="151.2900641">
  <ele>343.12</ele>
  <time>2026-09-01T20:03:21Z</time>
  <course>11.39</course>
  <speed>0.022360679774997897</speed>
  <fix>3d</fix>
</trkpt>
<trkpt lat="-27.274439" lon="151.290064">
  <ele>343.1</ele>
  <time>2026-09-01T20:03:21Z</time>
  <course>270.0</course>
  <speed>0.0</speed>
  <fix>3d</fix>
</trkpt>
<trkpt lat="-27.2744392" lon="151.2900641">
  <ele>343.12</ele>
  <time>2026-09-01T20:03:21Z</time>
  <course>11.39</course>
  <speed>0.022360679774997897</speed>
  <fix>3d</fix>
</trkpt>
<trkpt lat="-27.274439" lon="151.290064">
  <ele>343.1</ele>
  <time>2026-09-01T20:03:21Z</time>
  <course>270.0</course>
  <speed>0.0</speed>
  <fix>3d</fix>
</trkpt>
<trkpt lat="-27.2744392" lon="151.2900641">
  <ele>343.13</ele>
  <time>2026-09-01T20:03:21Z</time>
  <course>11.4</course>
  <speed>0.022360679774997897</speed>
  <fix>3d</fix>
</trkpt>
<trkpt lat="-27.274439" lon="151.290064">
  <ele>343.1</ele>
  <time>2026-09-01T20:03:21Z</time>
  <course>270.0</course>
  <speed>0.0</speed>
  <fix>3d</fix>
</trkpt>
<trkpt lat="-27.2744392" lon="151.2900641">
  <ele>343.13</ele>
  <time>2026-09-01T20:03:21Z</time>
  <course>11.4</course>
  <speed>0.022360679774997897</speed>
  <fix>3d</fix>
</trkpt>
<trkpt lat="-27.274439" lon="151.290064">
  <ele>343.1</ele>
  <time>2026-09-01T20:03:21Z</time>
  <course>270.0</course>
  <speed>0.0</speed>
  <fix>3d</fix>
</trkpt>
<trkpt lat="-27.2744392" lon="151.2900641">
  <ele>343.13</ele>
  <time>2026-09-01T20:03:21Z</time>
  <course>11.4</course>
  <speed>0.022360679774997897</speed>
  <fix>3d</fix>
</trkpt>
<trkpt lat="-27.274439" lon="151.290064">
  <ele>343.1</ele>
  <time>2026-09-01T20:03:21Z</time>
  <course>270.0</course>
  <speed>0.0</speed>
  <fix>3d</fix>
</trkpt>
<trkpt lat="-27.2744392" lon="151.2900641">
  <ele>343.13</ele>
  <time>2026-09-01T20:03:21Z</time>
  <course>11.4</course>
  <speed>0.022360679774997897</speed>
  <fix>3d</fix>
</trkpt>
<trkpt lat="-27.274439" lon="151.290064">
  <ele>343.1</ele>
  <time>2026-09-01T20:03:21Z</time>
  <course>270.0</course>
  <speed>0.0</speed>
  <fix>3d</fix>
</trkpt>
<trkpt lat="-27.2744392" lon="151.2900641">
  <ele>343.13</ele>
  <time>2026-09-01T20:03:21Z</time>
  <course>11.4</course>
  <speed>0.022360679774997897</speed>
  <fix>3d</fix>
</trkpt>
<trkpt lat="-27.274439" lon="151.290064">
  <ele>343.1</ele>
  <time>2026-09-01T20:03:21Z</time>
  <course>270.0</course>
  <speed>0.0</speed>
  <fix>3d</fix>
</trkpt>
<trkpt lat="-27.2744392" lon="151.2900641">
  <ele>343.14</ele>
  <time>2026-09-01T20:03:21Z</time>
  <course>11.4</course>
  <speed>0.022360679774997897</speed>
  <fix>3d</fix>
</trkpt>
<trkpt lat="-27.274439" lon="151.290064">
  <ele>343.1</ele>
  <time>2026-09-01T20:03:21Z</time>
  <course>270.0</course>
  <speed>0.0</speed>
  <fix>3d</fix>
</trkpt>
<trkpt lat="-27.2744392" lon="151.2900641">
  <ele>343.14</ele>
  <time>2026-09-01T20:03:21Z</time>
  <course>11.4</course>
  <speed>0.022360679774997897</speed>
  <fix>3d</fix>
</trkpt>
<trkpt lat="-27.274439" lon="151.290064">
  <ele>343.1</ele>
  <time>2026-09-01T20:03:21Z</time>
  <course>270.0</course>
  <speed>0.0</speed>
  <fix>3d</fix>
</trkpt>
<trkpt lat="-27.2744392" lon="151.2900641">
  <ele>343.15</ele>
  <time>2026-09-01T20:03:21Z</time>
  <course>11.4</course>
  <speed>0.022360679774997897</speed>
  <fix>3d</fix>
</trkpt>
<trkpt lat="-27.274439" lon="151.290064">
  <ele>343.1</ele>
  <time>2026-09-01T20:03:21Z</time>
  <course>270.0</course>
  <speed>0.0</speed>
  <fix>3d</fix>
</trkpt>
<trkpt lat="-27.2744392" lon="151.2900641">
  <ele>343.15</ele>
  <time>2026-09-01T20:03:21Z</time>
  <course>11.4</course>
  <speed>0.022360679774997897</speed>
  <fix>3d</fix>
</trkpt>
<trkpt lat="-27.274439" lon="151.290064">
  <ele>343.1</ele>
  <time>2026-09-01T20:03:21Z</time>
  <course>270.0</course>
  <speed>0.0</speed>
  <fix>3d</fix>
</trkpt>
<trkpt lat="-27.2744392" lon="151.2900641">
  <ele>343.15</ele>
  <time>2026-09-01T20:03:21Z</time>
  <course>11.4</course>
  <speed>0.022360679774997897</speed>
  <fix>3d</fix>
</trkpt>
<trkpt lat="-27.274439" lon="151.290064">
  <ele>343.1</ele>
  <time>2026-09-01T20:03:21Z</time>
  <course>270.0</course>
  <speed>0.0</speed>
  <fix>3d</fix>
</trkpt>
<trkpt lat="-27.2744392" lon="151.2900641">
  <ele>343.15</ele>
  <time>2026-09-01T20:03:21Z</time>
  <course>11.4</course>
  <speed>0.022360679774997897</speed>
  <fix>3d</fix>
</trkpt>
<trkpt lat="-27.274439" lon="151.290064">
  <ele>343.1</ele>
  <time>2026-09-01T20:03:21Z</time>
  <course>270.0</course>
  <speed>0.0</speed>
  <fix>3d</fix>
</trkpt>
<trkpt lat="-27.2744392" lon="151.2900641">
  <ele>343.16</ele>
  <time>2026-09-01T20:03:21Z</time>
  <course>11.41</course>
  <speed>0.022360679774997897</speed>
  <fix>3d</fix>
</trkpt>
<trkpt lat="-27.274439" lon="151.290064">
  <ele>343.1</ele>
  <time>2026-09-01T20:03:21Z</time>
  <course>270.0</course>
  <speed>0.0</speed>
  <fix>3d</fix>
</trkpt>
<trkpt lat="-27.2744392" lon="151.2900641">
  <ele>343.16</ele>
  <time>2026-09-01T20:03:21Z</time>
  <course>11.41</course>
  <speed>0.022360679774997897</speed>
  <fix>3d</fix>
</trkpt>
<trkpt lat="-27.274439" lon="151.290064">
  <ele>343.1</ele>
  <time>2026-09-01T20:03:21Z</time>
  <course>270.0</course>
  <speed>0.0</speed>
  <fix>3d</fix>
</trkpt>
<trkpt lat="-27.2744392" lon="151.2900641">
  <ele>343.16</ele>
  <time>2026-09-01T20:03:21Z</time>
  <course>11.41</course>
  <speed>0.022360679774997897</speed>
  <fix>3d</fix>
</trkpt>
<trkpt lat="-27.274439" lon="151.290064">
  <ele>343.1</ele>
  <time>2026-09-01T20:03:21Z</time>
  <course>270.0</course>
  <speed>0.0</speed>
  <fix>3d</fix>
</trkpt>
<trkpt lat="-27.2744392" lon="151.2900641">
  <ele>343.17</ele>
  <time>2026-09-01T20:03:21Z</time>
  <course>11.41</course>
  <speed>0.022360679774997897</speed>
  <fix>3d</fix>
</trkpt>
<trkpt lat="-27.274439" lon="151.290064">
  <ele>343.1</ele>
  <time>2026-09-01T20:03:21Z</time>
  <course>270.0</course>
  <speed>0.0</speed>
  <fix>3d</fix>
</trkpt>
<trkpt lat="-27.2744392" lon="151.2900641">
  <ele>343.17</ele>
  <time>2026-09-01T20:03:21Z</time>
  <course>11.41</course>
  <speed>0.022360679774997897</speed>
  <fix>3d</fix>
</trkpt>
<trkpt lat="-27.274439" lon="151.290064">
  <ele>343.1</ele>
  <time>2026-09-01T20:03:21Z</time>
  <course>270.0</course>
  <speed>0.0</speed>
  <fix>3d</fix>
</trkpt>
<trkpt lat="-27.2744392" lon="151.2900641">
  <ele>343.18</ele>
  <time>2026-09-01T20:03:21Z</time>
  <course>11.41</course>
  <speed>0.022360679774997897</speed>
  <fix>3d</fix>
</trkpt>
<trkpt lat="-27.274439" lon="151.290064">
  <ele>343.1</ele>
  <time>2026-09-01T20:03:21Z</time>
  <course>270.0</course>
  <speed>0.0</speed>
  <fix>3d</fix>
</trkpt>
<trkpt lat="-27.2744392" lon="151.2900641">
  <ele>343.18</ele>
  <time>2026-09-01T20:03:21Z</time>
  <course>11.41</course>
  <speed>0.022360679774997897</speed>
  <fix>3d</fix>
</trkpt>
<trkpt lat="-27.274439" lon="151.290064">
  <ele>343.1</ele>
  <time>2026-09-01T20:03:21Z</time>
  <course>270.0</course>
  <speed>0.0</speed>
  <fix>3d</fix>
</trkpt>
<trkpt lat="-27.2744392" lon="151.2900641">
  <ele>343.18</ele>
  <time>2026-09-01T20:03:21Z</time>
  <course>11.41</course>
  <speed>0.022360679774997897</speed>
  <fix>3d</fix>
</trkpt>
<trkpt lat="-27.274439" lon="151.290064">
  <ele>343.1</ele>
  <time>2026-09-01T20:03:21Z</time>
  <course>270.0</course>
  <speed>0.0</speed>
  <fix>3d</fix>
</trkpt>
<trkpt lat="-27.2744392" lon="151.2900641">
  <ele>343.19</ele>
  <time>2026-09-01T20:03:21Z</time>
  <course>11.41</course>
  <speed>0.022360679774997897</speed>
  <fix>3d</fix>
</trkpt>
<trkpt lat="-27.274439" lon="151.290064">
  <ele>343.1</ele>
  <time>2026-09-01T20:03:21Z</time>
  <course>270.0</course>
  <speed>0.0</speed>
  <fix>3d</fix>
</trkpt>
<trkpt lat="-27.2744392" lon="151.2900641">
  <ele>343.19</ele>
  <time>2026-09-01T20:03:21Z</time>
  <course>11.41</course>
  <speed>0.022360679774997897</speed>
  <fix>3d</fix>
</trkpt>
<trkpt lat="-27.274439" lon="151.290064">
  <ele>343.1</ele>
  <time>2026-09-01T20:03:21Z</time>
  <course>270.0</course>
  <speed>0.0</speed>
  <fix>3d</fix>
</trkpt>
<trkpt lat="-27.2744392" lon="151.2900641">
  <ele>343.19</ele>
  <time>2026-09-01T20:03:21Z</time>
  <course>11.41</course>
  <speed>0.022360679774997897</speed>
  <fix>3d</fix>
</trkpt>
<trkpt lat="-27.274439" lon="151.290064">
  <ele>343.1</ele>
  <time>2026-09-01T20:03:21Z</time>
  <course>270.0</course>
  <speed>0.0</speed>
  <fix>3d</fix>
</trkpt>
<trkpt lat="-27.2744392" lon="151.2900641">
  <ele>343.2</ele>
  <time>2026-09-01T20:03:21Z</time>
  <course>11.42</course>
  <speed>0.022360679774997897</speed>
  <fix>3d</fix>
</trkpt>
<trkpt lat="-27.274439" lon="151.290064">
  <ele>343.1</ele>
  <time>2026-09-01T20:03:21Z</time>
  <course>270.0</course>
  <speed>0.0</speed>
  <fix>3d</fix>
</trkpt>
<trkpt lat="-27.2744392" lon="151.2900641">
  <ele>343.2</ele>
  <time>2026-09-01T20:03:21Z</time>
  <course>11.42</course>
  <speed>0.022360679774997897</speed>
  <fix>3d</fix>
</trkpt>
<trkpt lat="-27.274439" lon="151.290064">
  <ele>343.1</ele>
  <time>2026-09-01T20:03:21Z</time>
  <course>270.0</course>
  <speed>0.0</speed>
  <fix>3d</fix>
</trkpt>
<trkpt lat="-27.2744392" lon="151.2900641">
  <ele>343.2</ele>
  <time>2026-09-01T20:03:21Z</time>
  <course>11.42</course>
  <speed>0.022360679774997897</speed>
  <fix>3d</fix>
</trkpt>
<trkpt lat="-27.274439" lon="151.290064">
  <ele>343.1</ele>
  <time>2026-09-01T20:03:21Z</time>
  <course>270.0</course>
  <speed>0.0</speed>
  <fix>3d</fix>
</trkpt>
<trkpt lat="-27.2744392" lon="151.2900641">
  <ele>343.21</ele>
  <time>2026-09-01T20:03:21Z</time>
  <course>11.42</course>
  <speed>0.022360679774997897</speed>
  <fix>3d</fix>
</trkpt>
<trkpt lat="-27.274439" lon="151.290064">
  <ele>343.1</ele>
  <time>2026-09-01T20:03:21Z</time>
  <course>270.0</course>
  <speed>0.0</speed>
  <fix>3d</fix>
</trkpt>
<trkpt lat="-27.2744392" lon="151.2900641">
  <ele>343.21</ele>
  <time>2026-09-01T20:03:21Z</time>
  <course>11.42</course>
  <speed>0.022360679774997897</speed>
  <fix>3d</fix>
</trkpt>
<trkpt lat="-27.274439" lon="151.290064">
  <ele>343.1</ele>
  <time>2026-09-01T20:03:21Z</time>
  <course>270.0</course>
  <speed>0.0</speed>
  <fix>3d</fix>
</trkpt>
<trkpt lat="-27.2744392" lon="151.2900641">
  <ele>343.22</ele>
  <time>2026-09-01T20:03:21Z</time>
  <course>11.42</course>
  <speed>0.022360679774997897</speed>
  <fix>3d</fix>
</trkpt>
<trkpt lat="-27.274439" lon="151.290064">
  <ele>343.1</ele>
  <time>2026-09-01T20:03:21Z</time>
  <course>270.0</course>
  <speed>0.0</speed>
  <fix>3d</fix>
</trkpt>
<trkpt lat="-27.2744392" lon="151.2900641">
  <ele>343.22</ele>
  <time>2026-09-01T20:03:21Z</time>
  <course>11.42</course>
  <speed>0.022360679774997897</speed>
  <fix>3d</fix>
</trkpt>
<trkpt lat="-27.274439" lon="151.290064">
  <ele>343.1</ele>
  <time>2026-09-01T20:03:21Z</time>
  <course>270.0</course>
  <speed>0.0</speed>
  <fix>3d</fix>
</trkpt>
<trkpt lat="-27.2744392" lon="151.2900641">
  <ele>343.23</ele>
  <time>2026-09-01T20:03:21Z</time>
  <course>11.42</course>
  <speed>0.022360679774997897</speed>
  <fix>3d</fix>
</trkpt>
<trkpt lat="-27.274439" lon="151.290064">
  <ele>343.1</ele>
  <time>2026-09-01T20:03:21Z</time>
  <course>270.0</course>
  <speed>0.0</speed>
  <fix>3d</fix>
</trkpt>
<trkpt lat="-27.2744392" lon="151.2900641">
  <ele>343.23</ele>
  <time>2026-09-01T20:03:21Z</time>
  <course>11.42</course>
  <speed>0.022360679774997897</speed>
  <fix>3d</fix>
</trkpt>
<trkpt lat="-27.274439" lon="151.290064">
  <ele>343.1</ele>
  <time>2026-09-01T20:03:21Z</time>
  <course>270.0</course>
  <speed>0.0</speed>
  <fix>3d</fix>
</trkpt>
<trkpt lat="-27.2744392" lon="151.2900641">
  <ele>343.24</ele>
  <time>2026-09-01T20:03:21Z</time>
  <course>11.42</course>
  <speed>0.022360679774997897</speed>
  <fix>3d</fix>
</trkpt>
<trkpt lat="-27.274439" lon="151.290064">
  <ele>343.1</ele>
  <time>2026-09-01T20:03:21Z</time>
  <course>270.0</course>
  <speed>0.0</speed>
  <fix>3d</fix>
</trkpt>
<trkpt lat="-27.2744392" lon="151.2900641">
  <ele>343.24</ele>
  <time>2026-09-01T20:03:21Z</time>
  <course>11.43</course>
  <speed>0.022360679774997897</speed>
  <fix>3d</fix>
</trkpt>
<trkpt lat="-27.274439" lon="151.290064">
  <ele>343.1</ele>
  <time>2026-09-01T20:03:21Z</time>
  <course>270.0</course>
  <speed>0.0</speed>
  <fix>3d</fix>
</trkpt>
<trkpt lat="-27.2744392" lon="151.2900641">
  <ele>343.25</ele>
  <time>2026-09-01T20:03:21Z</time>
  <course>11.43</course>
  <speed>0.022360679774997897</speed>
  <fix>3d</fix>
</trkpt>
<trkpt lat="-27.274439" lon="151.290064">
  <ele>343.1</ele>
  <time>2026-09-01T20:03:21Z</time>
  <course>270.0</course>
  <speed>0.0</speed>
  <fix>3d</fix>
</trkpt>
<trkpt lat="-27.2744392" lon="151.2900641">
  <ele>343.25</ele>
  <time>2026-09-01T20:03:21Z</time>
  <course>11.43</course>
  <speed>0.022360679774997897</speed>
  <fix>3d</fix>
</trkpt>
<trkpt lat="-27.274439" lon="151.290064">
  <ele>343.1</ele>
  <time>2026-09-01T20:03:21Z</time>
  <course>270.0</course>
  <speed>0.0</speed>
  <fix>3d</fix>
</trkpt>
<trkpt lat="-27.2744392" lon="151.2900641">
  <ele>343.25</ele>
  <time>2026-09-01T20:03:21Z</time>
  <course>11.43</course>
  <speed>0.022360679774997897</speed>
  <fix>3d</fix>
</trkpt>
<trkpt lat="-27.274439" lon="151.290064">
  <ele>343.1</ele>
  <time>2026-09-01T20:03:21Z</time>
  <course>270.0</course>
  <speed>0.0</speed>
  <fix>3d</fix>
</trkpt>
<trkpt lat="-27.2744392" lon="151.2900641">
  <ele>343.26</ele>
  <time>2026-09-01T20:03:21Z</time>
  <course>11.43</course>
  <speed>0.022360679774997897</speed>
  <fix>3d</fix>
</trkpt>
<trkpt lat="-27.274439" lon="151.290064">
  <ele>343.1</ele>
  <time>2026-09-01T20:03:21Z</time>
  <course>270.0</course>
  <speed>0.0</speed>
  <fix>3d</fix>
</trkpt>
<trkpt lat="-27.2744392" lon="151.2900641">
  <ele>343.26</ele>
  <time>2026-09-01T20:03:21Z</time>
  <course>11.43</course>
  <speed>0.022360679774997897</speed>
  <fix>3d</fix>
</trkpt>
<trkpt lat="-27.274439" lon="151.290064">
  <ele>343.1</ele>
  <time>2026-09-01T20:03:21Z</time>
  <course>270.0</course>
  <speed>0.0</speed>
  <fix>3d</fix>
</trkpt>
<trkpt lat="-27.2744392" lon="151.2900641">
  <ele>343.26</ele>
  <time>2026-09-01T20:03:21Z</time>
  <course>11.43</course>
  <speed>0.022360679774997897</speed>
  <fix>3d</fix>
</trkpt>
<trkpt lat="-27.274439" lon="151.290064">
  <ele>343.1</ele>
  <time>2026-09-01T20:03:21Z</time>
  <course>270.0</course>
  <speed>0.0</speed>
  <fix>3d</fix>
</trkpt>
<trkpt lat="-27.2744392" lon="151.2900641">
  <ele>343.26</ele>
  <time>2026-09-01T20:03:21Z</time>
  <course>11.43</course>
  <speed>0.022360679774997897</speed>
  <fix>3d</fix>
</trkpt>
<trkpt lat="-27.274439" lon="151.290064">
  <ele>343.1</ele>
  <time>2026-09-01T20:03:21Z</time>
  <course>270.0</course>
  <speed>0.0</speed>
  <fix>3d</fix>
</trkpt>
<trkpt lat="-27.2744392" lon="151.2900641">
  <ele>343.26</ele>
  <time>2026-09-01T20:03:21Z</time>
  <course>11.43</course>
  <speed>0.022360679774997897</speed>
  <fix>3d</fix>
</trkpt>
<trkpt lat="-27.274439" lon="151.290064">
  <ele>343.1</ele>
  <time>2026-09-01T20:03:21Z</time>
  <course>270.0</course>
  <speed>0.0</speed>
  <fix>3d</fix>
</trkpt>
<trkpt lat="-27.2744392" lon="151.2900641">
  <ele>343.26</ele>
  <time>2026-09-01T20:03:21Z</time>
  <course>11.43</course>
  <speed>0.022360679774997897</speed>
  <fix>3d</fix>
</trkpt>
<trkpt lat="-27.274439" lon="151.290064">
  <ele>343.1</ele>
  <time>2026-09-01T20:03:21Z</time>
  <course>270.0</course>
  <speed>0.0</speed>
  <fix>3d</fix>
</trkpt>
<trkpt lat="-27.2744392" lon="151.2900641">
  <ele>343.26</ele>
  <time>2026-09-01T20:03:21Z</time>
  <course>11.43</course>
  <speed>0.022360679774997897</speed>
  <fix>3d</fix>
</trkpt>
<trkpt lat="-27.274439" lon="151.290064">
  <ele>343.1</ele>
  <time>2026-09-01T20:03:21Z</time>
  <course>270.0</course>
  <speed>0.0</speed>
  <fix>3d</fix>
</trkpt>
<trkpt lat="-27.2744392" lon="151.2900641">
  <ele>343.26</ele>
  <time>2026-09-01T20:03:21Z</time>
  <course>11.43</course>
  <speed>0.022360679774997897</speed>
  <fix>3d</fix>
</trkpt>
<trkpt lat="-27.274439" lon="151.290064">
  <ele>343.1</ele>
  <time>2026-09-01T20:03:21Z</time>
  <course>270.0</course>
  <speed>0.0</speed>
  <fix>3d</fix>
</trkpt>
<trkpt lat="-27.2744392" lon="151.2900641">
  <ele>343.26</ele>
  <time>2026-09-01T20:03:21Z</time>
  <course>11.44</course>
  <speed>0.022360679774997897</speed>
  <fix>3d</fix>
</trkpt>
<trkpt lat="-27.274439" lon="151.290064">
  <ele>343.1</ele>
  <time>2026-09-01T20:03:21Z</time>
  <course>270.0</course>
  <speed>0.0</speed>
  <fix>3d</fix>
</trkpt>
<trkpt lat="-27.2744392" lon="151.2900641">
  <ele>343.26</ele>
  <time>2026-09-01T20:03:21Z</time>
  <course>11.44</course>
  <speed>0.022360679774997897</speed>
  <fix>3d</fix>
</trkpt>
<trkpt lat="-27.274439" lon="151.290064">
  <ele>343.1</ele>
  <time>2026-09-01T20:03:21Z</time>
  <course>270.0</course>
  <speed>0.0</speed>
  <fix>3d</fix>
</trkpt>
<trkpt lat="-27.2744392" lon="151.2900641">
  <ele>343.26</ele>
  <time>2026-09-01T20:03:21Z</time>
  <course>11.44</course>
  <speed>0.022360679774997897</speed>
  <fix>3d</fix>
</trkpt>
<trkpt lat="-27.274439" lon="151.290064">
  <ele>343.1</ele>
  <time>2026-09-01T20:03:21Z</time>
  <course>270.0</course>
  <speed>0.0</speed>
  <fix>3d</fix>
</trkpt>
<trkpt lat="-27.2744392" lon="151.2900641">
  <ele>343.26</ele>
  <time>2026-09-01T20:03:21Z</time>
  <course>11.44</course>
  <speed>0.022360679774997897</speed>
  <fix>3d</fix>
</trkpt>
<trkpt lat="-27.274439" lon="151.290064">
  <ele>343.1</ele>
  <time>2026-09-01T20:03:21Z</time>
  <course>270.0</course>
  <speed>0.0</speed>
  <fix>3d</fix>
</trkpt>
<trkpt lat="-27.2744392" lon="151.2900641">
  <ele>343.26</ele>
  <time>2026-09-01T20:03:21Z</time>
  <course>11.44</course>
  <speed>0.022360679774997897</speed>
  <fix>3d</fix>
</trkpt>
<trkpt lat="-27.274439" lon="151.290064">
  <ele>343.1</ele>
  <time>2026-09-01T20:03:21Z</time>
  <course>270.0</course>
  <speed>0.0</speed>
  <fix>3d</fix>
</trkpt>
<trkpt lat="-27.2744392" lon="151.2900641">
  <ele>343.1</ele>
  <time>2026-09-01T20:03:21Z</time>
  <course>11.44</course>
  <speed>0.022360679774997897</speed>
  <fix>3d</fix>
</trkpt>
<trkpt lat="-27.274439" lon="151.290064">
  <ele>343.1</ele>
  <time>2026-09-01T20:03:21Z</time>
  <course>270.0</course>
  <speed>0.0</speed>
  <fix>3d</fix>
</trkpt>
<trkpt lat="-27.2744392" lon="151.2900641">
  <ele>343.1</ele>
  <time>2026-09-01T20:03:21Z</time>
  <course>11.44</course>
  <speed>0.022360679774997897</speed>
  <fix>3d</fix>
</trkpt>
<trkpt lat="-27.274439" lon="151.290064">
  <ele>343.1</ele>
  <time>2026-09-01T20:03:21Z</time>
  <course>270.0</course>
  <speed>0.0</speed>
  <fix>3d</fix>
</trkpt>
<trkpt lat="-27.2744392" lon="151.2900641">
  <ele>343.1</ele>
  <time>2026-09-01T20:03:21Z</time>
  <course>11.44</course>
  <speed>0.022360679774997897</speed>
  <fix>3d</fix>
</trkpt>
<trkpt lat="-27.274439" lon="151.290064">
  <ele>343.1</ele>
  <time>2026-09-01T20:03:21Z</time>
  <course>270.0</course>
  <speed>0.0</speed>
  <fix>3d</fix>
</trkpt>
<trkpt lat="-27.2744392" lon="151.2900641">
  <ele>343.1</ele>
  <time>2026-09-01T20:03:21Z</time>
  <course>11.44</course>
  <speed>0.022360679774997897</speed>
  <fix>3d</fix>
</trkpt>
<trkpt lat="-27.274439" lon="151.290064">
  <ele>343.1</ele>
  <time>2026-09-01T20:03:21Z</time>
  <course>270.0</course>
  <speed>0.0</speed>
  <fix>3d</fix>
</trkpt>
<trkpt lat="-27.2744392" lon="151.2900641">
  <ele>343.1</ele>
  <time>2026-09-01T20:03:21Z</time>
  <course>11.44</course>
  <speed>0.022360679774997897</speed>
  <fix>3d</fix>
</trkpt>
<trkpt lat="-27.274439" lon="151.290064">
  <ele>343.1</ele>
  <time>2026-09-01T20:03:21Z</time>
  <course>270.0</course>
  <speed>0.0</speed>
  <fix>3d</fix>
</trkpt>
<trkpt lat="-27.2744392" lon="151.2900641">
  <ele>343.1</ele>
  <time>2026-09-01T20:03:21Z</time>
  <course>11.44</course>
  <speed>0.022360679774997897</speed>
  <fix>3d</fix>
</trkpt>
<trkpt lat="-27.274439" lon="151.290064">
  <ele>343.1</ele>
  <time>2026-09-01T20:03:21Z</time>
  <course>270.0</course>
  <speed>0.0</speed>
  <fix>3d</fix>
</trkpt>
<trkpt lat="-27.2744392" lon="151.2900641">
  <ele>343.11</ele>
  <time>2026-09-01T20:03:21Z</time>
  <course>11.45</course>
  <speed>0.022360679774997897</speed>
  <fix>3d</fix>
</trkpt>
<trkpt lat="-27.274439" lon="151.290064">
  <ele>343.1</ele>
  <time>2026-09-01T20:03:21Z</time>
  <course>270.0</course>
  <speed>0.0</speed>
  <fix>3d</fix>
</trkpt>
<trkpt lat="-27.2744392" lon="151.2900641">
  <ele>343.11</ele>
  <time>2026-09-01T20:03:21Z</time>
  <course>11.45</course>
  <speed>0.022360679774997897</speed>
  <fix>3d</fix>
</trkpt>
<trkpt lat="-27.274439" lon="151.290064">
  <ele>343.1</ele>
  <time>2026-09-01T20:03:21Z</time>
  <course>270.0</course>
  <speed>0.0</speed>
  <fix>3d</fix>
</trkpt>
<trkpt lat="-27.2744392" lon="151.2900641">
  <ele>343.12</ele>
  <time>2026-09-01T20:03:21Z</time>
  <course>11.45</course>
  <speed>0.022360679774997897</speed>
  <fix>3d</fix>
</trkpt>
<trkpt lat="-27.274439" lon="151.290064">
  <ele>343.1</ele>
  <time>2026-09-01T20:03:21Z</time>
  <course>270.0</course>
  <speed>0.0</speed>
  <fix>3d</fix>
</trkpt>
<trkpt lat="-27.2744392" lon="151.2900641">
  <ele>343.12</ele>
  <time>2026-09-01T20:03:21Z</time>
  <course>11.45</course>
  <speed>0.022360679774997897</speed>
  <fix>3d</fix>
</trkpt>
<trkpt lat="-27.274439" lon="151.290064">
  <ele>343.1</ele>
  <time>2026-09-01T20:03:21Z</time>
  <course>270.0</course>
  <speed>0.0</speed>
  <fix>3d</fix>
</trkpt>
<trkpt lat="-27.2744392" lon="151.2900641">
  <ele>343.12</ele>
  <time>2026-09-01T20:03:21Z</time>
  <course>11.45</course>
  <speed>0.022360679774997897</speed>
  <fix>3d</fix>
</trkpt>
<trkpt lat="-27.274439" lon="151.290064">
  <ele>343.1</ele>
  <time>2026-09-01T20:03:21Z</time>
  <course>270.0</course>
  <speed>0.0</speed>
  <fix>3d</fix>
</trkpt>
<trkpt lat="-27.2744392" lon="151.2900641">
  <ele>343.13</ele>
  <time>2026-09-01T20:03:21Z</time>
  <course>11.45</course>
  <speed>0.022360679774997897</speed>
  <fix>3d</fix>
</trkpt>
<trkpt lat="-27.274439" lon="151.290064">
  <ele>343.1</ele>
  <time>2026-09-01T20:03:21Z</time>
  <course>270.0</course>
  <speed>0.0</speed>
  <fix>3d</fix>
</trkpt>
<trkpt lat="-27.2744392" lon="151.2900641">
  <ele>343.13</ele>
  <time>2026-09-01T20:03:21Z</time>
  <course>11.45</course>
  <speed>0.022360679774997897</speed>
  <fix>3d</fix>
</trkpt>
<trkpt lat="-27.274439" lon="151.290064">
  <ele>343.1</ele>
  <time>2026-09-01T20:03:21Z</time>
  <course>270.0</course>
  <speed>0.0</speed>
  <fix>3d</fix>
</trkpt>
<trkpt lat="-27.2744392" lon="151.2900641">
  <ele>343.13</ele>
  <time>2026-09-01T20:03:21Z</time>
  <course>11.45</course>
  <speed>0.022360679774997897</speed>
  <fix>3d</fix>
</trkpt>
<trkpt lat="-27.274439" lon="151.290064">
  <ele>343.1</ele>
  <time>2026-09-01T20:03:21Z</time>
  <course>270.0</course>
  <speed>0.0</speed>
  <fix>3d</fix>
</trkpt>
<trkpt lat="-27.2744392" lon="151.2900641">
  <ele>343.13</ele>
  <time>2026-09-01T20:03:21Z</time>
  <course>11.45</course>
  <speed>0.022360679774997897</speed>
  <fix>3d</fix>
</trkpt>
<trkpt lat="-27.274439" lon="151.290064">
  <ele>343.1</ele>
  <time>2026-09-01T20:03:21Z</time>
  <course>270.0</course>
  <speed>0.0</speed>
  <fix>3d</fix>
</trkpt>
<trkpt lat="-27.2744392" lon="151.2900641">
  <ele>343.14</ele>
  <time>2026-09-01T20:03:21Z</time>
  <course>11.45</course>
  <speed>0.022360679774997897</speed>
  <fix>3d</fix>
</trkpt>
<trkpt lat="-27.274439" lon="151.290064">
  <ele>343.1</ele>
  <time>2026-09-01T20:03:21Z</time>
  <course>270.0</course>
  <speed>0.0</speed>
  <fix>3d</fix>
</trkpt>
<trkpt lat="-27.2744392" lon="151.2900641">
  <ele>343.14</ele>
  <time>2026-09-01T20:03:21Z</time>
  <course>11.45</course>
  <speed>0.022360679774997897</speed>
  <fix>3d</fix>
</trkpt>
<trkpt lat="-27.274439" lon="151.290064">
  <ele>343.1</ele>
  <time>2026-09-01T20:03:21Z</time>
  <course>270.0</course>
  <speed>0.0</speed>
  <fix>3d</fix>
</trkpt>
<trkpt lat="-27.2744392" lon="151.2900641">
  <ele>343.14</ele>
  <time>2026-09-01T20:03:21Z</time>
  <course>11.46</course>
  <speed>0.022360679774997897</speed>
  <fix>3d</fix>
</trkpt>
<trkpt lat="-27.274439" lon="151.290064">
  <ele>343.1</ele>
  <time>2026-09-01T20:03:21Z</time>
  <course>270.0</course>
  <speed>0.0</speed>
  <fix>3d</fix>
</trkpt>
<trkpt lat="-27.2744392" lon="151.2900641">
  <ele>343.15</ele>
  <time>2026-09-01T20:03:21Z</time>
  <course>11.46</course>
  <speed>0.022360679774997897</speed>
  <fix>3d</fix>
</trkpt>
<trkpt lat="-27.274439" lon="151.290064">
  <ele>343.1</ele>
  <time>2026-09-01T20:03:21Z</time>
  <course>270.0</course>
  <speed>0.0</speed>
  <fix>3d</fix>
</trkpt>
<trkpt lat="-27.2744392" lon="151.2900641">
  <ele>343.15</ele>
  <time>2026-09-01T20:03:21Z</time>
  <course>11.46</course>
  <speed>0.022360679774997897</speed>
  <fix>3d</fix>
</trkpt>
<trkpt lat="-27.274439" lon="151.290064">
  <ele>343.1</ele>
  <time>2026-09-01T20:03:21Z</time>
  <course>270.0</course>
  <speed>0.0</speed>
  <fix>3d</fix>
</trkpt>
<trkpt lat="-27.2744392" lon="151.2900641">
  <ele>343.15</ele>
  <time>2026-09-01T20:03:21Z</time>
  <course>11.46</course>
  <speed>0.022360679774997897</speed>
  <fix>3d</fix>
</trkpt>
<trkpt lat="-27.274439" lon="151.290064">
  <ele>343.1</ele>
  <time>2026-09-01T20:03:21Z</time>
  <course>270.0</course>
  <speed>0.0</speed>
  <fix>3d</fix>
</trkpt>
<trkpt lat="-27.2744392" lon="151.2900641">
  <ele>343.15</ele>
  <time>2026-09-01T20:03:21Z</time>
  <course>11.46</course>
  <speed>0.022360679774997897</speed>
  <fix>3d</fix>
</trkpt>
<trkpt lat="-27.274439" lon="151.290064">
  <ele>343.1</ele>
  <time>2026-09-01T20:03:21Z</time>
  <course>270.0</course>
  <speed>0.0</speed>
  <fix>3d</fix>
</trkpt>
<trkpt lat="-27.2744392" lon="151.2900641">
  <ele>343.15</ele>
  <time>2026-09-01T20:03:21Z</time>
  <course>11.46</course>
  <speed>0.022360679774997897</speed>
  <fix>3d</fix>
</trkpt>
<trkpt lat="-27.274439" lon="151.290064">
  <ele>343.1</ele>
  <time>2026-09-01T20:03:21Z</time>
  <course>270.0</course>
  <speed>0.0</speed>
  <fix>3d</fix>
</trkpt>
<trkpt lat="-27.2744392" lon="151.2900641">
  <ele>343.15</ele>
  <time>2026-09-01T20:03:21Z</time>
  <course>11.46</course>
  <speed>0.022360679774997897</speed>
  <fix>3d</fix>
</trkpt>
<trkpt lat="-27.274439" lon="151.290064">
  <ele>343.1</ele>
  <time>2026-09-01T20:03:21Z</time>
  <course>270.0</course>
  <speed>0.0</speed>
  <fix>3d</fix>
</trkpt>
<trkpt lat="-27.2744392" lon="151.2900641">
  <ele>343.16</ele>
  <time>2026-09-01T20:03:21Z</time>
  <course>11.46</course>
  <speed>0.022360679774997897</speed>
  <fix>3d</fix>
</trkpt>
<trkpt lat="-27.274439" lon="151.290064">
  <ele>343.1</ele>
  <time>2026-09-01T20:03:21Z</time>
  <course>270.0</course>
  <speed>0.0</speed>
  <fix>3d</fix>
</trkpt>
<trkpt lat="-27.2744392" lon="151.2900641">
  <ele>343.16</ele>
  <time>2026-09-01T20:03:21Z</time>
  <course>11.46</course>
  <speed>0.022360679774997897</speed>
  <fix>3d</fix>
</trkpt>
<trkpt lat="-27.274439" lon="151.290064">
  <ele>343.1</ele>
  <time>2026-09-01T20:03:21Z</time>
  <course>270.0</course>
  <speed>0.0</speed>
  <fix>3d</fix>
</trkpt>
<trkpt lat="-27.2744392" lon="151.2900641">
  <ele>343.16</ele>
  <time>2026-09-01T20:03:21Z</time>
  <course>11.46</course>
  <speed>0.022360679774997897</speed>
  <fix>3d</fix>
</trkpt>
<trkpt lat="-27.274439" lon="151.290064">
  <ele>343.1</ele>
  <time>2026-09-01T20:03:21Z</time>
  <course>270.0</course>
  <speed>0.0</speed>
  <fix>3d</fix>
</trkpt>
<trkpt lat="-27.2744392" lon="151.2900641">
  <ele>343.16</ele>
  <time>2026-09-01T20:03:21Z</time>
  <course>11.46</course>
  <speed>0.022360679774997897</speed>
  <fix>3d</fix>
</trkpt>
<trkpt lat="-27.274439" lon="151.290064">
  <ele>343.1</ele>
  <time>2026-09-01T20:03:21Z</time>
  <course>270.0</course>
  <speed>0.0</speed>
  <fix>3d</fix>
</trkpt>
<trkpt lat="-27.2744392" lon="151.2900641">
  <ele>343.16</ele>
  <time>2026-09-01T20:03:21Z</time>
  <course>11.47</course>
  <speed>0.022360679774997897</speed>
  <fix>3d</fix>
</trkpt>
<trkpt lat="-27.274439" lon="151.290064">
  <ele>343.1</ele>
  <time>2026-09-01T20:03:21Z</time>
  <course>270.0</course>
  <speed>0.0</speed>
  <fix>3d</fix>
</trkpt>
<trkpt lat="-27.2744392" lon="151.2900641">
  <ele>343.17</ele>
  <time>2026-09-01T20:03:21Z</time>
  <course>11.47</course>
  <speed>0.022360679774997897</speed>
  <fix>3d</fix>
</trkpt>
<trkpt lat="-27.274439" lon="151.290064">
  <ele>343.1</ele>
  <time>2026-09-01T20:03:21Z</time>
  <course>270.0</course>
  <speed>0.0</speed>
  <fix>3d</fix>
</trkpt>
<trkpt lat="-27.2744392" lon="151.2900641">
  <ele>343.17</ele>
  <time>2026-09-01T20:03:21Z</time>
  <course>11.47</course>
  <speed>0.022360679774997897</speed>
  <fix>3d</fix>
</trkpt>
<trkpt lat="-27.274439" lon="151.290064">
  <ele>343.1</ele>
  <time>2026-09-01T20:03:21Z</time>
  <course>270.0</course>
  <speed>0.0</speed>
  <fix>3d</fix>
</trkpt>
<trkpt lat="-27.2744392" lon="151.2900641">
  <ele>343.17</ele>
  <time>2026-09-01T20:03:21Z</time>
  <course>11.47</course>
  <speed>0.022360679774997897</speed>
  <fix>3d</fix>
</trkpt>
<trkpt lat="-27.274439" lon="151.290064">
  <ele>343.1</ele>
  <time>2026-09-01T20:03:21Z</time>
  <course>270.0</course>
  <speed>0.0</speed>
  <fix>3d</fix>
</trkpt>
<trkpt lat="-27.2744392" lon="151.2900641">
  <ele>343.17</ele>
  <time>2026-09-01T20:03:21Z</time>
  <course>11.47</course>
  <speed>0.022360679774997897</speed>
  <fix>3d</fix>
</trkpt>
<trkpt lat="-27.274439" lon="151.290064">
  <ele>343.1</ele>
  <time>2026-09-01T20:03:21Z</time>
  <course>270.0</course>
  <speed>0.0</speed>
  <fix>3d</fix>
</trkpt>
<trkpt lat="-27.2744392" lon="151.2900641">
  <ele>343.17</ele>
  <time>2026-09-01T20:03:21Z</time>
  <course>11.47</course>
  <speed>0.022360679774997897</speed>
  <fix>3d</fix>
</trkpt>
<trkpt lat="-27.274439" lon="151.290064">
  <ele>343.1</ele>
  <time>2026-09-01T20:03:21Z</time>
  <course>270.0</course>
  <speed>0.0</speed>
  <fix>3d</fix>
</trkpt>
<trkpt lat="-27.2744392" lon="151.2900641">
  <ele>343.18</ele>
  <time>2026-09-01T20:03:21Z</time>
  <course>11.47</course>
  <speed>0.022360679774997897</speed>
  <fix>3d</fix>
</trkpt>
<trkpt lat="-27.274439" lon="151.290064">
  <ele>343.1</ele>
  <time>2026-09-01T20:03:21Z</time>
  <course>270.0</course>
  <speed>0.0</speed>
  <fix>3d</fix>
</trkpt>
<trkpt lat="-27.2744392" lon="151.2900641">
  <ele>343.18</ele>
  <time>2026-09-01T20:03:21Z</time>
  <course>11.47</course>
  <speed>0.022360679774997897</speed>
  <fix>3d</fix>
</trkpt>
<trkpt lat="-27.274439" lon="151.290064">
  <ele>343.1</ele>
  <time>2026-09-01T20:03:21Z</time>
  <course>270.0</course>
  <speed>0.0</speed>
  <fix>3d</fix>
</trkpt>
<trkpt lat="-27.2744392" lon="151.2900641">
  <ele>343.18</ele>
  <time>2026-09-01T20:03:21Z</time>
  <course>11.47</course>
  <speed>0.022360679774997897</speed>
  <fix>3d</fix>
</trkpt>
<trkpt lat="-27.274439" lon="151.290064">
  <ele>343.1</ele>
  <time>2026-09-01T20:03:21Z</time>
  <course>270.0</course>
  <speed>0.0</speed>
  <fix>3d</fix>
</trkpt>
<trkpt lat="-27.2744392" lon="151.2900641">
  <ele>343.19</ele>
  <time>2026-09-01T20:03:21Z</time>
  <course>11.47</course>
  <speed>0.022360679774997897</speed>
  <fix>3d</fix>
</trkpt>
<trkpt lat="-27.274439" lon="151.290064">
  <ele>343.1</ele>
  <time>2026-09-01T20:03:21Z</time>
  <course>270.0</course>
  <speed>0.0</speed>
  <fix>3d</fix>
</trkpt>
<trkpt lat="-27.2744392" lon="151.2900641">
  <ele>343.19</ele>
  <time>2026-09-01T20:03:21Z</time>
  <course>11.47</course>
  <speed>0.022360679774997897</speed>
  <fix>3d</fix>
</trkpt>
<trkpt lat="-27.274439" lon="151.290064">
  <ele>343.1</ele>
  <time>2026-09-01T20:03:21Z</time>
  <course>270.0</course>
  <speed>0.0</speed>
  <fix>3d</fix>
</trkpt>
<trkpt lat="-27.2744392" lon="151.2900641">
  <ele>343.19</ele>
  <time>2026-09-01T20:03:21Z</time>
  <course>11.47</course>
  <speed>0.022360679774997897</speed>
  <fix>3d</fix>
</trkpt>
<trkpt lat="-27.274439" lon="151.290064">
  <ele>343.1</ele>
  <time>2026-09-01T20:03:21Z</time>
  <course>270.0</course>
  <speed>0.0</speed>
  <fix>3d</fix>
</trkpt>
<trkpt lat="-27.2744392" lon="151.2900641">
  <ele>343.19</ele>
  <time>2026-09-01T20:03:21Z</time>
  <course>11.48</course>
  <speed>0.022360679774997897</speed>
  <fix>3d</fix>
</trkpt>
<trkpt lat="-27.274439" lon="151.290064">
  <ele>343.1</ele>
  <time>2026-09-01T20:03:21Z</time>
  <course>270.0</course>
  <speed>0.0</speed>
  <fix>3d</fix>
</trkpt>
<trkpt lat="-27.2744392" lon="151.2900641">
  <ele>343.2</ele>
  <time>2026-09-01T20:03:21Z</time>
  <course>11.48</course>
  <speed>0.022360679774997897</speed>
  <fix>3d</fix>
</trkpt>
<trkpt lat="-27.274439" lon="151.290064">
  <ele>343.1</ele>
  <time>2026-09-01T20:03:21Z</time>
  <course>270.0</course>
  <speed>0.0</speed>
  <fix>3d</fix>
</trkpt>
<trkpt lat="-27.2744392" lon="151.2900641">
  <ele>343.2</ele>
  <time>2026-09-01T20:03:21Z</time>
  <course>11.48</course>
  <speed>0.022360679774997897</speed>
  <fix>3d</fix>
</trkpt>
<trkpt lat="-27.274439" lon="151.290064">
  <ele>343.1</ele>
  <time>2026-09-01T20:03:21Z</time>
  <course>270.0</course>
  <speed>0.0</speed>
  <fix>3d</fix>
</trkpt>
<trkpt lat="-27.2744392" lon="151.2900641">
  <ele>343.2</ele>
  <time>2026-09-01T20:03:21Z</time>
  <course>11.48</course>
  <speed>0.022360679774997897</speed>
  <fix>3d</fix>
</trkpt>
<trkpt lat="-27.274439" lon="151.290064">
  <ele>343.1</ele>
  <time>2026-09-01T20:03:21Z</time>
  <course>270.0</course>
  <speed>0.0</speed>
  <fix>3d</fix>
</trkpt>
<trkpt lat="-27.2744392" lon="151.2900641">
  <ele>343.2</ele>
  <time>2026-09-01T20:03:21Z</time>
  <course>11.48</course>
  <speed>0.022360679774997897</speed>
  <fix>3d</fix>
</trkpt>
<trkpt lat="-27.274439" lon="151.290064">
  <ele>343.1</ele>
  <time>2026-09-01T20:03:21Z</time>
  <course>270.0</course>
  <speed>0.0</speed>
  <fix>3d</fix>
</trkpt>
<trkpt lat="-27.2744392" lon="151.2900641">
  <ele>343.21</ele>
  <time>2026-09-01T20:03:21Z</time>
  <course>11.48</course>
  <speed>0.022360679774997897</speed>
  <fix>3d</fix>
</trkpt>
<trkpt lat="-27.274439" lon="151.290064">
  <ele>343.1</ele>
  <time>2026-09-01T20:03:21Z</time>
  <course>270.0</course>
  <speed>0.0</speed>
  <fix>3d</fix>
</trkpt>
<trkpt lat="-27.2744392" lon="151.2900641">
  <ele>343.21</ele>
  <time>2026-09-01T20:03:21Z</time>
  <course>11.48</course>
  <speed>0.022360679774997897</speed>
  <fix>3d</fix>
</trkpt>
<trkpt lat="-27.274439" lon="151.290064">
  <ele>343.1</ele>
  <time>2026-09-01T20:03:21Z</time>
  <course>270.0</course>
  <speed>0.0</speed>
  <fix>3d</fix>
</trkpt>
<trkpt lat="-27.2744392" lon="151.2900641">
  <ele>343.21</ele>
  <time>2026-09-01T20:03:21Z</time>
  <course>11.48</course>
  <speed>0.022360679774997897</speed>
  <fix>3d</fix>
</trkpt>
<trkpt lat="-27.274439" lon="151.290064">
  <ele>343.1</ele>
  <time>2026-09-01T20:03:21Z</time>
  <course>270.0</course>
  <speed>0.0</speed>
  <fix>3d</fix>
</trkpt>
<trkpt lat="-27.2744392" lon="151.2900641">
  <ele>343.21</ele>
  <time>2026-09-01T20:03:21Z</time>
  <course>11.48</course>
  <speed>0.022360679774997897</speed>
  <fix>3d</fix>
</trkpt>
<trkpt lat="-27.274439" lon="151.290064">
  <ele>343.1</ele>
  <time>2026-09-01T20:03:21Z</time>
  <course>270.0</course>
  <speed>0.0</speed>
  <fix>3d</fix>
</trkpt>
<trkpt lat="-27.2744392" lon="151.2900641">
  <ele>343.21</ele>
  <time>2026-09-01T20:03:21Z</time>
  <course>11.48</course>
  <speed>0.022360679774997897</speed>
  <fix>3d</fix>
</trkpt>
<trkpt lat="-27.274439" lon="151.290064">
  <ele>343.1</ele>
  <time>2026-09-01T20:03:21Z</time>
  <course>270.0</course>
  <speed>0.0</speed>
  <fix>3d</fix>
</trkpt>
<trkpt lat="-27.2744392" lon="151.2900641">
  <ele>343.21</ele>
  <time>2026-09-01T20:03:21Z</time>
  <course>11.48</course>
  <speed>0.022360679774997897</speed>
  <fix>3d</fix>
</trkpt>
<trkpt lat="-27.274439" lon="151.290064">
  <ele>343.1</ele>
  <time>2026-09-01T20:03:21Z</time>
  <course>270.0</course>
  <speed>0.0</speed>
  <fix>3d</fix>
</trkpt>
<trkpt lat="-27.2744392" lon="151.2900641">
  <ele>343.22</ele>
  <time>2026-09-01T20:03:21Z</time>
  <course>11.48</course>
  <speed>0.022360679774997897</speed>
  <fix>3d</fix>
</trkpt>
<trkpt lat="-27.274439" lon="151.290064">
  <ele>343.1</ele>
  <time>2026-09-01T20:03:21Z</time>
  <course>270.0</course>
  <speed>0.0</speed>
  <fix>3d</fix>
</trkpt>
<trkpt lat="-27.2744392" lon="151.2900641">
  <ele>343.22</ele>
  <time>2026-09-01T20:03:21Z</time>
  <course>11.49</course>
  <speed>0.022360679774997897</speed>
  <fix>3d</fix>
</trkpt>
<trkpt lat="-27.274439" lon="151.290064">
  <ele>343.1</ele>
  <time>2026-09-01T20:03:21Z</time>
  <course>270.0</course>
  <speed>0.0</speed>
  <fix>3d</fix>
</trkpt>
<trkpt lat="-27.2744392" lon="151.2900641">
  <ele>343.23</ele>
  <time>2026-09-01T20:03:21Z</time>
  <course>11.49</course>
  <speed>0.022360679774997897</speed>
  <fix>3d</fix>
</trkpt>
<trkpt lat="-27.274439" lon="151.290064">
  <ele>343.1</ele>
  <time>2026-09-01T20:03:21Z</time>
  <course>270.0</course>
  <speed>0.0</speed>
  <fix>3d</fix>
</trkpt>
<trkpt lat="-27.2744392" lon="151.2900641">
  <ele>343.23</ele>
  <time>2026-09-01T20:03:21Z</time>
  <course>11.49</course>
  <speed>0.022360679774997897</speed>
  <fix>3d</fix>
</trkpt>
<trkpt lat="-27.274439" lon="151.290064">
  <ele>343.1</ele>
  <time>2026-09-01T20:03:21Z</time>
  <course>270.0</course>
  <speed>0.0</speed>
  <fix>3d</fix>
</trkpt>
<trkpt lat="-27.2744392" lon="151.2900641">
  <ele>343.23</ele>
  <time>2026-09-01T20:03:21Z</time>
  <course>11.49</course>
  <speed>0.022360679774997897</speed>
  <fix>3d</fix>
</trkpt>
<trkpt lat="-27.274439" lon="151.290064">
  <ele>343.1</ele>
  <time>2026-09-01T20:03:21Z</time>
  <course>270.0</course>
  <speed>0.0</speed>
  <fix>3d</fix>
</trkpt>
<trkpt lat="-27.2744392" lon="151.2900641">
  <ele>343.23</ele>
  <time>2026-09-01T20:03:21Z</time>
  <course>11.49</course>
  <speed>0.022360679774997897</speed>
  <fix>3d</fix>
</trkpt>
<trkpt lat="-27.274439" lon="151.290064">
  <ele>343.1</ele>
  <time>2026-09-01T20:03:21Z</time>
  <course>270.0</course>
  <speed>0.0</speed>
  <fix>3d</fix>
</trkpt>
<trkpt lat="-27.2744392" lon="151.2900641">
  <ele>343.23</ele>
  <time>2026-09-01T20:03:21Z</time>
  <course>11.49</course>
  <speed>0.022360679774997897</speed>
  <fix>3d</fix>
</trkpt>
<trkpt lat="-27.274439" lon="151.290064">
  <ele>343.1</ele>
  <time>2026-09-01T20:03:21Z</time>
  <course>270.0</course>
  <speed>0.0</speed>
  <fix>3d</fix>
</trkpt>
<trkpt lat="-27.2744392" lon="151.2900641">
  <ele>343.24</ele>
  <time>2026-09-01T20:03:21Z</time>
  <course>11.49</course>
  <speed>0.022360679774997897</speed>
  <fix>3d</fix>
</trkpt>
<trkpt lat="-27.274439" lon="151.290064">
  <ele>343.1</ele>
  <time>2026-09-01T20:03:21Z</time>
  <course>270.0</course>
  <speed>0.0</speed>
  <fix>3d</fix>
</trkpt>
<trkpt lat="-27.2744392" lon="151.2900641">
  <ele>343.24</ele>
  <time>2026-09-01T20:03:21Z</time>
  <course>11.49</course>
  <speed>0.022360679774997897</speed>
  <fix>3d</fix>
</trkpt>
<trkpt lat="-27.274439" lon="151.290064">
  <ele>343.1</ele>
  <time>2026-09-01T20:03:21Z</time>
  <course>270.0</course>
  <speed>0.0</speed>
  <fix>3d</fix>
</trkpt>
<trkpt lat="-27.2744392" lon="151.2900641">
  <ele>343.1</ele>
  <time>2026-09-01T20:03:21Z</time>
  <course>11.49</course>
  <speed>0.022360679774997897</speed>
  <fix>3d</fix>
</trkpt>
<trkpt lat="-27.274439" lon="151.290064">
  <ele>343.1</ele>
  <time>2026-09-01T20:03:21Z</time>
  <course>270.0</course>
  <speed>0.0</speed>
  <fix>3d</fix>
</trkpt>
<trkpt lat="-27.2744392" lon="151.2900641">
  <ele>343.1</ele>
  <time>2026-09-01T20:03:21Z</time>
  <course>11.49</course>
  <speed>0.022360679774997897</speed>
  <fix>3d</fix>
</trkpt>
<trkpt lat="-27.274439" lon="151.290064">
  <ele>343.1</ele>
  <time>2026-09-01T20:03:21Z</time>
  <course>270.0</course>
  <speed>0.0</speed>
  <fix>3d</fix>
</trkpt>
<trkpt lat="-27.2744392" lon="151.2900641">
  <ele>343.1</ele>
  <time>2026-09-01T20:03:21Z</time>
  <course>11.49</course>
  <speed>0.022360679774997897</speed>
  <fix>3d</fix>
</trkpt>
<trkpt lat="-27.274439" lon="151.290064">
  <ele>343.1</ele>
  <time>2026-09-01T20:03:21Z</time>
  <course>270.0</course>
  <speed>0.0</speed>
  <fix>3d</fix>
</trkpt>
<trkpt lat="-27.2744392" lon="151.2900641">
  <ele>343.1</ele>
  <time>2026-09-01T20:03:21Z</time>
  <course>11.49</course>
  <speed>0.022360679774997897</speed>
  <fix>3d</fix>
</trkpt>
<trkpt lat="-27.274439" lon="151.290064">
  <ele>343.1</ele>
  <time>2026-09-01T20:03:21Z</time>
  <course>270.0</course>
  <speed>0.0</speed>
  <fix>3d</fix>
</trkpt>
<trkpt lat="-27.2744392" lon="151.2900641">
  <ele>343.11</ele>
  <time>2026-09-01T20:03:21Z</time>
  <course>11.5</course>
  <speed>0.022360679774997897</speed>
  <fix>3d</fix>
</trkpt>
<trkpt lat="-27.274439" lon="151.290064">
  <ele>343.1</ele>
  <time>2026-09-01T20:03:21Z</time>
  <course>270.0</course>
  <speed>0.0</speed>
  <fix>3d</fix>
</trkpt>
<trkpt lat="-27.2744392" lon="151.2900641">
  <ele>343.11</ele>
  <time>2026-09-01T20:03:21Z</time>
  <course>11.5</course>
  <speed>0.022360679774997897</speed>
  <fix>3d</fix>
</trkpt>
<trkpt lat="-27.274439" lon="151.290064">
  <ele>343.1</ele>
  <time>2026-09-01T20:03:21Z</time>
  <course>270.0</course>
  <speed>0.0</speed>
  <fix>3d</fix>
</trkpt>
<trkpt lat="-27.2744392" lon="151.2900641">
  <ele>343.12</ele>
  <time>2026-09-01T20:03:21Z</time>
  <course>11.5</course>
  <speed>0.022360679774997897</speed>
  <fix>3d</fix>
</trkpt>
<trkpt lat="-27.274439" lon="151.290064">
  <ele>343.1</ele>
  <time>2026-09-01T20:03:21Z</time>
  <course>270.0</course>
  <speed>0.0</speed>
  <fix>3d</fix>
</trkpt>
<trkpt lat="-27.2744392" lon="151.2900641">
  <ele>343.12</ele>
  <time>2026-09-01T20:03:21Z</time>
  <course>11.5</course>
  <speed>0.022360679774997897</speed>
  <fix>3d</fix>
</trkpt>
<trkpt lat="-27.274439" lon="151.290064">
  <ele>343.1</ele>
  <time>2026-09-01T20:03:21Z</time>
  <course>270.0</course>
  <speed>0.0</speed>
  <fix>3d</fix>
</trkpt>
<trkpt lat="-27.2744392" lon="151.2900641">
  <ele>343.13</ele>
  <time>2026-09-01T20:03:21Z</time>
  <course>11.5</course>
  <speed>0.022360679774997897</speed>
  <fix>3d</fix>
</trkpt>
<trkpt lat="-27.274439" lon="151.290064">
  <ele>343.1</ele>
  <time>2026-09-01T20:03:21Z</time>
  <course>270.0</course>
  <speed>0.0</speed>
  <fix>3d</fix>
</trkpt>
<trkpt lat="-27.2744392" lon="151.2900641">
  <ele>343.13</ele>
  <time>2026-09-01T20:03:21Z</time>
  <course>11.5</course>
  <speed>0.022360679774997897</speed>
  <fix>3d</fix>
</trkpt>
<trkpt lat="-27.274439" lon="151.290064">
  <ele>343.1</ele>
  <time>2026-09-01T20:03:21Z</time>
  <course>270.0</course>
  <speed>0.0</speed>
  <fix>3d</fix>
</trkpt>
<trkpt lat="-27.2744392" lon="151.2900641">
  <ele>343.14</ele>
  <time>2026-09-01T20:03:21Z</time>
  <course>11.5</course>
  <speed>0.022360679774997897</speed>
  <fix>3d</fix>
</trkpt>
<trkpt lat="-27.274439" lon="151.290064">
  <ele>343.1</ele>
  <time>2026-09-01T20:03:21Z</time>
  <course>270.0</course>
  <speed>0.0</speed>
  <fix>3d</fix>
</trkpt>
<trkpt lat="-27.2744392" lon="151.2900641">
  <ele>343.15</ele>
  <time>2026-09-01T20:03:21Z</time>
  <course>11.5</course>
  <speed>0.022360679774997897</speed>
  <fix>3d</fix>
</trkpt>
<trkpt lat="-27.274439" lon="151.290064">
  <ele>343.1</ele>
  <time>2026-09-01T20:03:21Z</time>
  <course>270.0</course>
  <speed>0.0</speed>
  <fix>3d</fix>
</trkpt>
<trkpt lat="-27.2744392" lon="151.2900641">
  <ele>343.16</ele>
  <time>2026-09-01T20:03:21Z</time>
  <course>11.5</course>
  <speed>0.022360679774997897</speed>
  <fix>3d</fix>
</trkpt>
<trkpt lat="-27.274439" lon="151.290064">
  <ele>343.1</ele>
  <time>2026-09-01T20:03:21Z</time>
  <course>270.0</course>
  <speed>0.0</speed>
  <fix>3d</fix>
</trkpt>
<trkpt lat="-27.2744392" lon="151.2900641">
  <ele>343.16</ele>
  <time>2026-09-01T20:03:21Z</time>
  <course>11.5</course>
  <speed>0.022360679774997897</speed>
  <fix>3d</fix>
</trkpt>
<trkpt lat="-27.274439" lon="151.290064">
  <ele>343.1</ele>
  <time>2026-09-01T20:03:21Z</time>
  <course>270.0</course>
  <speed>0.0</speed>
  <fix>3d</fix>
</trkpt>
<trkpt lat="-27.2744392" lon="151.2900641">
  <ele>343.17</ele>
  <time>2026-09-01T20:03:21Z</time>
  <course>11.5</course>
  <speed>0.022360679774997897</speed>
  <fix>3d</fix>
</trkpt>
<trkpt lat="-27.274439" lon="151.290064">
  <ele>343.1</ele>
  <time>2026-09-01T20:03:21Z</time>
  <course>270.0</course>
  <speed>0.0</speed>
  <fix>3d</fix>
</trkpt>
<trkpt lat="-27.2744392" lon="151.2900641">
  <ele>343.18</ele>
  <time>2026-09-01T20:03:21Z</time>
  <course>11.5</course>
  <speed>0.022360679774997897</speed>
  <fix>3d</fix>
</trkpt>
<trkpt lat="-27.274439" lon="151.290064">
  <ele>343.1</ele>
  <time>2026-09-01T20:03:21Z</time>
  <course>270.0</course>
  <speed>0.0</speed>
  <fix>3d</fix>
</trkpt>
<trkpt lat="-27.2744392" lon="151.2900641">
  <ele>343.18</ele>
  <time>2026-09-01T20:03:21Z</time>
  <course>11.51</course>
  <speed>0.022360679774997897</speed>
  <fix>3d</fix>
</trkpt>
<trkpt lat="-27.274439" lon="151.290064">
  <ele>343.1</ele>
  <time>2026-09-01T20:03:21Z</time>
  <course>270.0</course>
  <speed>0.0</speed>
  <fix>3d</fix>
</trkpt>
<trkpt lat="-27.2744392" lon="151.2900641">
  <ele>343.19</ele>
  <time>2026-09-01T20:03:21Z</time>
  <course>11.51</course>
  <speed>0.022360679774997897</speed>
  <fix>3d</fix>
</trkpt>
<trkpt lat="-27.274439" lon="151.290064">
  <ele>343.1</ele>
  <time>2026-09-01T20:03:21Z</time>
  <course>270.0</course>
  <speed>0.0</speed>
  <fix>3d</fix>
</trkpt>
<trkpt lat="-27.2744392" lon="151.2900641">
  <ele>343.2</ele>
  <time>2026-09-01T20:03:21Z</time>
  <course>11.51</course>
  <speed>0.022360679774997897</speed>
  <fix>3d</fix>
</trkpt>
<trkpt lat="-27.274439" lon="151.290064">
  <ele>343.1</ele>
  <time>2026-09-01T20:03:21Z</time>
  <course>270.0</course>
  <speed>0.0</speed>
  <fix>3d</fix>
</trkpt>
<trkpt lat="-27.2744392" lon="151.2900641">
  <ele>343.2</ele>
  <time>2026-09-01T20:03:21Z</time>
  <course>11.51</course>
  <speed>0.022360679774997897</speed>
  <fix>3d</fix>
</trkpt>
<trkpt lat="-27.274439" lon="151.290064">
  <ele>343.1</ele>
  <time>2026-09-01T20:03:21Z</time>
  <course>270.0</course>
  <speed>0.0</speed>
  <fix>3d</fix>
</trkpt>
<trkpt lat="-27.2744392" lon="151.2900641">
  <ele>343.21</ele>
  <time>2026-09-01T20:03:21Z</time>
  <course>11.51</course>
  <speed>0.022360679774997897</speed>
  <fix>3d</fix>
</trkpt>
<trkpt lat="-27.274439" lon="151.290064">
  <ele>343.1</ele>
  <time>2026-09-01T20:03:21Z</time>
  <course>270.0</course>
  <speed>0.0</speed>
  <fix>3d</fix>
</trkpt>
<trkpt lat="-27.2744392" lon="151.2900641">
  <ele>343.21</ele>
  <time>2026-09-01T20:03:21Z</time>
  <course>11.51</course>
  <speed>0.022360679774997897</speed>
  <fix>3d</fix>
</trkpt>
<trkpt lat="-27.274439" lon="151.290064">
  <ele>343.1</ele>
  <time>2026-09-01T20:03:21Z</time>
  <course>270.0</course>
  <speed>0.0</speed>
  <fix>3d</fix>
</trkpt>
<trkpt lat="-27.2744392" lon="151.2900641">
  <ele>343.22</ele>
  <time>2026-09-01T20:03:21Z</time>
  <course>11.51</course>
  <speed>0.022360679774997897</speed>
  <fix>3d</fix>
</trkpt>
<trkpt lat="-27.274439" lon="151.290064">
  <ele>343.1</ele>
  <time>2026-09-01T20:03:21Z</time>
  <course>270.0</course>
  <speed>0.0</speed>
  <fix>3d</fix>
</trkpt>
<trkpt lat="-27.2744392" lon="151.2900641">
  <ele>343.22</ele>
  <time>2026-09-01T20:03:21Z</time>
  <course>11.51</course>
  <speed>0.022360679774997897</speed>
  <fix>3d</fix>
</trkpt>
<trkpt lat="-27.274439" lon="151.290064">
  <ele>343.1</ele>
  <time>2026-09-01T20:03:21Z</time>
  <course>270.0</course>
  <speed>0.0</speed>
  <fix>3d</fix>
</trkpt>
<trkpt lat="-27.2744392" lon="151.2900641">
  <ele>343.23</ele>
  <time>2026-09-01T20:03:21Z</time>
  <course>11.51</course>
  <speed>0.022360679774997897</speed>
  <fix>3d</fix>
</trkpt>
<trkpt lat="-27.274439" lon="151.290064">
  <ele>343.1</ele>
  <time>2026-09-01T20:03:21Z</time>
  <course>270.0</course>
  <speed>0.0</speed>
  <fix>3d</fix>
</trkpt>
<trkpt lat="-27.2744392" lon="151.2900641">
  <ele>343.23</ele>
  <time>2026-09-01T20:03:21Z</time>
  <course>11.51</course>
  <speed>0.022360679774997897</speed>
  <fix>3d</fix>
</trkpt>
<trkpt lat="-27.274439" lon="151.290064">
  <ele>343.1</ele>
  <time>2026-09-01T20:03:21Z</time>
  <course>270.0</course>
  <speed>0.0</speed>
  <fix>3d</fix>
</trkpt>
<trkpt lat="-27.2744392" lon="151.2900641">
  <ele>343.24</ele>
  <time>2026-09-01T20:03:21Z</time>
  <course>11.51</course>
  <speed>0.022360679774997897</speed>
  <fix>3d</fix>
</trkpt>
<trkpt lat="-27.274439" lon="151.290064">
  <ele>343.1</ele>
  <time>2026-09-01T20:03:21Z</time>
  <course>270.0</course>
  <speed>0.0</speed>
  <fix>3d</fix>
</trkpt>
<trkpt lat="-27.2744392" lon="151.2900641">
  <ele>343.25</ele>
  <time>2026-09-01T20:03:21Z</time>
  <course>11.51</course>
  <speed>0.022360679774997897</speed>
  <fix>3d</fix>
</trkpt>
<trkpt lat="-27.274439" lon="151.290064">
  <ele>343.1</ele>
  <time>2026-09-01T20:03:21Z</time>
  <course>270.0</course>
  <speed>0.0</speed>
  <fix>3d</fix>
</trkpt>
<trkpt lat="-27.2744392" lon="151.2900641">
  <ele>343.25</ele>
  <time>2026-09-01T20:03:21Z</time>
  <course>11.52</course>
  <speed>0.022360679774997897</speed>
  <fix>3d</fix>
</trkpt>
<trkpt lat="-27.274439" lon="151.290064">
  <ele>343.1</ele>
  <time>2026-09-01T20:03:21Z</time>
  <course>270.0</course>
  <speed>0.0</speed>
  <fix>3d</fix>
</trkpt>
<trkpt lat="-27.2744392" lon="151.2900641">
  <ele>343.26</ele>
  <time>2026-09-01T20:03:21Z</time>
  <course>11.52</course>
  <speed>0.022360679774997897</speed>
  <fix>3d</fix>
</trkpt>
<trkpt lat="-27.274439" lon="151.290064">
  <ele>343.1</ele>
  <time>2026-09-01T20:03:21Z</time>
  <course>270.0</course>
  <speed>0.0</speed>
  <fix>3d</fix>
</trkpt>
<trkpt lat="-27.2744392" lon="151.2900641">
  <ele>343.26</ele>
  <time>2026-09-01T20:03:21Z</time>
  <course>11.52</course>
  <speed>0.022360679774997897</speed>
  <fix>3d</fix>
</trkpt>
<trkpt lat="-27.274439" lon="151.290064">
  <ele>343.1</ele>
  <time>2026-09-01T20:03:21Z</time>
  <course>270.0</course>
  <speed>0.0</speed>
  <fix>3d</fix>
</trkpt>
<trkpt lat="-27.2744392" lon="151.2900641">
  <ele>343.26</ele>
  <time>2026-09-01T20:03:21Z</time>
  <course>11.52</course>
  <speed>0.022360679774997897</speed>
  <fix>3d</fix>
</trkpt>
<trkpt lat="-27.274439" lon="151.290064">
  <ele>343.1</ele>
  <time>2026-09-01T20:03:21Z</time>
  <course>270.0</course>
  <speed>0.0</speed>
  <fix>3d</fix>
</trkpt>
<trkpt lat="-27.2744392" lon="151.2900641">
  <ele>343.26</ele>
  <time>2026-09-01T20:03:21Z</time>
  <course>11.52</course>
  <speed>0.022360679774997897</speed>
  <fix>3d</fix>
</trkpt>
<trkpt lat="-27.274439" lon="151.290064">
  <ele>343.1</ele>
  <time>2026-09-01T20:03:21Z</time>
  <course>270.0</course>
  <speed>0.0</speed>
  <fix>3d</fix>
</trkpt>
<trkpt lat="-27.2744392" lon="151.2900641">
  <ele>343.27</ele>
  <time>2026-09-01T20:03:22Z</time>
  <course>11.52</course>
  <speed>0.022360679774997897</speed>
  <fix>3d</fix>
</trkpt>
<trkpt lat="-27.274439" lon="151.290064">
  <ele>343.1</ele>
  <time>2026-09-01T20:03:22Z</time>
  <course>270.0</course>
  <speed>0.0</speed>
  <fix>3d</fix>
</trkpt>
<trkpt lat="-27.2744392" lon="151.2900641">
  <ele>343.27</ele>
  <time>2026-09-01T20:03:22Z</time>
  <course>11.52</course>
  <speed>0.022360679774997897</speed>
  <fix>3d</fix>
</trkpt>
<trkpt lat="-27.274439" lon="151.290064">
  <ele>343.1</ele>
  <time>2026-09-01T20:03:22Z</time>
  <course>270.0</course>
  <speed>0.0</speed>
  <fix>3d</fix>
</trkpt>
<trkpt lat="-27.2744392" lon="151.2900641">
  <ele>343.27</ele>
  <time>2026-09-01T20:03:22Z</time>
  <course>11.52</course>
  <speed>0.022360679774997897</speed>
  <fix>3d</fix>
</trkpt>
<trkpt lat="-27.274439" lon="151.290064">
  <ele>343.1</ele>
  <time>2026-09-01T20:03:22Z</time>
  <course>270.0</course>
  <speed>0.0</speed>
  <fix>3d</fix>
</trkpt>
<trkpt lat="-27.2744392" lon="151.2900641">
  <ele>343.27</ele>
  <time>2026-09-01T20:03:22Z</time>
  <course>11.52</course>
  <speed>0.022360679774997897</speed>
  <fix>3d</fix>
</trkpt>
<trkpt lat="-27.274439" lon="151.290064">
  <ele>343.1</ele>
  <time>2026-09-01T20:03:22Z</time>
  <course>270.0</course>
  <speed>0.0</speed>
  <fix>3d</fix>
</trkpt>
<trkpt lat="-27.2744392" lon="151.2900641">
  <ele>343.27</ele>
  <time>2026-09-01T20:03:22Z</time>
  <course>11.52</course>
  <speed>0.022360679774997897</speed>
  <fix>3d</fix>
</trkpt>
<trkpt lat="-27.274439" lon="151.290064">
  <ele>343.1</ele>
  <time>2026-09-01T20:03:22Z</time>
  <course>270.0</course>
  <speed>0.0</speed>
  <fix>3d</fix>
</trkpt>
<trkpt lat="-27.2744392" lon="151.2900641">
  <ele>343.27</ele>
  <time>2026-09-01T20:03:22Z</time>
  <course>11.52</course>
  <speed>0.022360679774997897</speed>
  <fix>3d</fix>
</trkpt>
<trkpt lat="-27.274439" lon="151.290064">
  <ele>343.1</ele>
  <time>2026-09-01T20:03:22Z</time>
  <course>270.0</course>
  <speed>0.0</speed>
  <fix>3d</fix>
</trkpt>
<trkpt lat="-27.2744392" lon="151.2900641">
  <ele>343.27</ele>
  <time>2026-09-01T20:03:22Z</time>
  <course>11.52</course>
  <speed>0.022360679774997897</speed>
  <fix>3d</fix>
</trkpt>
<trkpt lat="-27.274439" lon="151.290064">
  <ele>343.1</ele>
  <time>2026-09-01T20:03:22Z</time>
  <course>270.0</course>
  <speed>0.0</speed>
  <fix>3d</fix>
</trkpt>
<trkpt lat="-27.2744392" lon="151.2900641">
  <ele>343.27</ele>
  <time>2026-09-01T20:03:22Z</time>
  <course>11.53</course>
  <speed>0.022360679774997897</speed>
  <fix>3d</fix>
</trkpt>
<trkpt lat="-27.274439" lon="151.290064">
  <ele>343.1</ele>
  <time>2026-09-01T20:03:22Z</time>
  <course>270.0</course>
  <speed>0.0</speed>
  <fix>3d</fix>
</trkpt>
<trkpt lat="-27.2744392" lon="151.2900641">
  <ele>343.28</ele>
  <time>2026-09-01T20:03:22Z</time>
  <course>11.53</course>
  <speed>0.022360679774997897</speed>
  <fix>3d</fix>
</trkpt>
<trkpt lat="-27.274439" lon="151.290064">
  <ele>343.1</ele>
  <time>2026-09-01T20:03:22Z</time>
  <course>270.0</course>
  <speed>0.0</speed>
  <fix>3d</fix>
</trkpt>
<trkpt lat="-27.2744392" lon="151.2900641">
  <ele>343.28</ele>
  <time>2026-09-01T20:03:22Z</time>
  <course>11.53</course>
  <speed>0.022360679774997897</speed>
  <fix>3d</fix>
</trkpt>
<trkpt lat="-27.274439" lon="151.290064">
  <ele>343.1</ele>
  <time>2026-09-01T20:03:22Z</time>
  <course>270.0</course>
  <speed>0.0</speed>
  <fix>3d</fix>
</trkpt>
<trkpt lat="-27.2744392" lon="151.2900641">
  <ele>343.28</ele>
  <time>2026-09-01T20:03:22Z</time>
  <course>11.53</course>
  <speed>0.022360679774997897</speed>
  <fix>3d</fix>
</trkpt>
<trkpt lat="-27.274439" lon="151.290064">
  <ele>343.1</ele>
  <time>2026-09-01T20:03:22Z</time>
  <course>270.0</course>
  <speed>0.0</speed>
  <fix>3d</fix>
</trkpt>
<trkpt lat="-27.2744392" lon="151.2900641">
  <ele>343.29</ele>
  <time>2026-09-01T20:03:22Z</time>
  <course>11.53</course>
  <speed>0.022360679774997897</speed>
  <fix>3d</fix>
</trkpt>
<trkpt lat="-27.274439" lon="151.290064">
  <ele>343.1</ele>
  <time>2026-09-01T20:03:22Z</time>
  <course>270.0</course>
  <speed>0.0</speed>
  <fix>3d</fix>
</trkpt>
<trkpt lat="-27.2744392" lon="151.2900641">
  <ele>343.29</ele>
  <time>2026-09-01T20:03:22Z</time>
  <course>11.53</course>
  <speed>0.022360679774997897</speed>
  <fix>3d</fix>
</trkpt>
<trkpt lat="-27.274439" lon="151.290064">
  <ele>343.1</ele>
  <time>2026-09-01T20:03:22Z</time>
  <course>270.0</course>
  <speed>0.0</speed>
  <fix>3d</fix>
</trkpt>
<trkpt lat="-27.2744392" lon="151.2900641">
  <ele>343.29</ele>
  <time>2026-09-01T20:03:22Z</time>
  <course>11.53</course>
  <speed>0.022360679774997897</speed>
  <fix>3d</fix>
</trkpt>
<trkpt lat="-27.274439" lon="151.290064">
  <ele>343.1</ele>
  <time>2026-09-01T20:03:22Z</time>
  <course>270.0</course>
  <speed>0.0</speed>
  <fix>3d</fix>
</trkpt>
<trkpt lat="-27.2744392" lon="151.2900641">
  <ele>343.29</ele>
  <time>2026-09-01T20:03:22Z</time>
  <course>11.53</course>
  <speed>0.022360679774997897</speed>
  <fix>3d</fix>
</trkpt>
<trkpt lat="-27.274439" lon="151.290064">
  <ele>343.1</ele>
  <time>2026-09-01T20:03:22Z</time>
  <course>270.0</course>
  <speed>0.0</speed>
  <fix>3d</fix>
</trkpt>
<trkpt lat="-27.2744392" lon="151.2900641">
  <ele>343.3</ele>
  <time>2026-09-01T20:03:22Z</time>
  <course>11.53</course>
  <speed>0.022360679774997897</speed>
  <fix>3d</fix>
</trkpt>
<trkpt lat="-27.274439" lon="151.290064">
  <ele>343.1</ele>
  <time>2026-09-01T20:03:22Z</time>
  <course>270.0</course>
  <speed>0.0</speed>
  <fix>3d</fix>
</trkpt>
<trkpt lat="-27.2744392" lon="151.2900641">
  <ele>343.3</ele>
  <time>2026-09-01T20:03:22Z</time>
  <course>11.53</course>
  <speed>0.022360679774997897</speed>
  <fix>3d</fix>
</trkpt>
<trkpt lat="-27.274439" lon="151.290064">
  <ele>343.1</ele>
  <time>2026-09-01T20:03:22Z</time>
  <course>270.0</course>
  <speed>0.0</speed>
  <fix>3d</fix>
</trkpt>
<trkpt lat="-27.2744392" lon="151.2900641">
  <ele>343.3</ele>
  <time>2026-09-01T20:03:22Z</time>
  <course>11.53</course>
  <speed>0.022360679774997897</speed>
  <fix>3d</fix>
</trkpt>
<trkpt lat="-27.274439" lon="151.290064">
  <ele>343.1</ele>
  <time>2026-09-01T20:03:22Z</time>
  <course>270.0</course>
  <speed>0.0</speed>
  <fix>3d</fix>
</trkpt>
<trkpt lat="-27.2744392" lon="151.2900641">
  <ele>343.3</ele>
  <time>2026-09-01T20:03:22Z</time>
  <course>11.53</course>
  <speed>0.022360679774997897</speed>
  <fix>3d</fix>
</trkpt>
<trkpt lat="-27.274439" lon="151.290064">
  <ele>343.1</ele>
  <time>2026-09-01T20:03:22Z</time>
  <course>270.0</course>
  <speed>0.0</speed>
  <fix>3d</fix>
</trkpt>
<trkpt lat="-27.2744392" lon="151.2900641">
  <ele>343.3</ele>
  <time>2026-09-01T20:03:22Z</time>
  <course>11.53</course>
  <speed>0.022360679774997897</speed>
  <fix>3d</fix>
</trkpt>
<trkpt lat="-27.274439" lon="151.290064">
  <ele>343.1</ele>
  <time>2026-09-01T20:03:22Z</time>
  <course>270.0</course>
  <speed>0.0</speed>
  <fix>3d</fix>
</trkpt>
<trkpt lat="-27.2744392" lon="151.2900641">
  <ele>343.31</ele>
  <time>2026-09-01T20:03:22Z</time>
  <course>11.54</course>
  <speed>0.022360679774997897</speed>
  <fix>3d</fix>
</trkpt>
<trkpt lat="-27.274439" lon="151.290064">
  <ele>343.1</ele>
  <time>2026-09-01T20:03:22Z</time>
  <course>270.0</course>
  <speed>0.0</speed>
  <fix>3d</fix>
</trkpt>
<trkpt lat="-27.2744392" lon="151.2900641">
  <ele>343.31</ele>
  <time>2026-09-01T20:03:22Z</time>
  <course>11.54</course>
  <speed>0.022360679774997897</speed>
  <fix>3d</fix>
</trkpt>
<trkpt lat="-27.274439" lon="151.290064">
  <ele>343.1</ele>
  <time>2026-09-01T20:03:22Z</time>
  <course>270.0</course>
  <speed>0.0</speed>
  <fix>3d</fix>
</trkpt>
<trkpt lat="-27.2744392" lon="151.2900641">
  <ele>343.31</ele>
  <time>2026-09-01T20:03:22Z</time>
  <course>11.54</course>
  <speed>0.022360679774997897</speed>
  <fix>3d</fix>
</trkpt>
<trkpt lat="-27.274439" lon="151.290064">
  <ele>343.1</ele>
  <time>2026-09-01T20:03:22Z</time>
  <course>270.0</course>
  <speed>0.0</speed>
  <fix>3d</fix>
</trkpt>
<trkpt lat="-27.2744392" lon="151.2900641">
  <ele>343.31</ele>
  <time>2026-09-01T20:03:22Z</time>
  <course>11.54</course>
  <speed>0.022360679774997897</speed>
  <fix>3d</fix>
</trkpt>
<trkpt lat="-27.274439" lon="151.290064">
  <ele>343.1</ele>
  <time>2026-09-01T20:03:22Z</time>
  <course>270.0</course>
  <speed>0.0</speed>
  <fix>3d</fix>
</trkpt>
<trkpt lat="-27.2744392" lon="151.2900641">
  <ele>343.31</ele>
  <time>2026-09-01T20:03:22Z</time>
  <course>11.54</course>
  <speed>0.022360679774997897</speed>
  <fix>3d</fix>
</trkpt>
<trkpt lat="-27.274439" lon="151.290064">
  <ele>343.1</ele>
  <time>2026-09-01T20:03:22Z</time>
  <course>270.0</course>
  <speed>0.0</speed>
  <fix>3d</fix>
</trkpt>
<trkpt lat="-27.2744392" lon="151.2900641">
  <ele>343.31</ele>
  <time>2026-09-01T20:03:22Z</time>
  <course>11.54</course>
  <speed>0.022360679774997897</speed>
  <fix>3d</fix>
</trkpt>
<trkpt lat="-27.274439" lon="151.290064">
  <ele>343.1</ele>
  <time>2026-09-01T20:03:22Z</time>
  <course>270.0</course>
  <speed>0.0</speed>
  <fix>3d</fix>
</trkpt>
<trkpt lat="-27.2744392" lon="151.2900641">
  <ele>343.31</ele>
  <time>2026-09-01T20:03:22Z</time>
  <course>11.54</course>
  <speed>0.022360679774997897</speed>
  <fix>3d</fix>
</trkpt>
<trkpt lat="-27.274439" lon="151.290064">
  <ele>343.1</ele>
  <time>2026-09-01T20:03:22Z</time>
  <course>270.0</course>
  <speed>0.0</speed>
  <fix>3d</fix>
</trkpt>
<trkpt lat="-27.2744392" lon="151.2900641">
  <ele>343.1</ele>
  <time>2026-09-01T20:03:22Z</time>
  <course>11.54</course>
  <speed>0.022360679774997897</speed>
  <fix>3d</fix>
</trkpt>
<trkpt lat="-27.274439" lon="151.290064">
  <ele>343.1</ele>
  <time>2026-09-01T20:03:22Z</time>
  <course>270.0</course>
  <speed>0.0</speed>
  <fix>3d</fix>
</trkpt>
<trkpt lat="-27.2744392" lon="151.2900641">
  <ele>343.1</ele>
  <time>2026-09-01T20:03:22Z</time>
  <course>11.54</course>
  <speed>0.022360679774997897</speed>
  <fix>3d</fix>
</trkpt>
<trkpt lat="-27.274439" lon="151.290064">
  <ele>343.1</ele>
  <time>2026-09-01T20:03:22Z</time>
  <course>270.0</course>
  <speed>0.0</speed>
  <fix>3d</fix>
</trkpt>
<trkpt lat="-27.2744392" lon="151.2900641">
  <ele>343.1</ele>
  <time>2026-09-01T20:03:22Z</time>
  <course>11.54</course>
  <speed>0.022360679774997897</speed>
  <fix>3d</fix>
</trkpt>
<trkpt lat="-27.274439" lon="151.290064">
  <ele>343.1</ele>
  <time>2026-09-01T20:03:22Z</time>
  <course>270.0</course>
  <speed>0.0</speed>
  <fix>3d</fix>
</trkpt>
<trkpt lat="-27.2744392" lon="151.2900641">
  <ele>343.1</ele>
  <time>2026-09-01T20:03:22Z</time>
  <course>11.54</course>
  <speed>0.022360679774997897</speed>
  <fix>3d</fix>
</trkpt>
<trkpt lat="-27.274439" lon="151.290064">
  <ele>343.1</ele>
  <time>2026-09-01T20:03:22Z</time>
  <course>270.0</course>
  <speed>0.0</speed>
  <fix>3d</fix>
</trkpt>
<trkpt lat="-27.2744392" lon="151.2900641">
  <ele>343.1</ele>
  <time>2026-09-01T20:03:22Z</time>
  <course>11.54</course>
  <speed>0.022360679774997897</speed>
  <fix>3d</fix>
</trkpt>
<trkpt lat="-27.274439" lon="151.290064">
  <ele>343.1</ele>
  <time>2026-09-01T20:03:22Z</time>
  <course>270.0</course>
  <speed>0.0</speed>
  <fix>3d</fix>
</trkpt>
<trkpt lat="-27.2744392" lon="151.2900641">
  <ele>343.11</ele>
  <time>2026-09-01T20:03:22Z</time>
  <course>11.54</course>
  <speed>0.022360679774997897</speed>
  <fix>3d</fix>
</trkpt>
<trkpt lat="-27.274439" lon="151.290064">
  <ele>343.1</ele>
  <time>2026-09-01T20:03:22Z</time>
  <course>270.0</course>
  <speed>0.0</speed>
  <fix>3d</fix>
</trkpt>
<trkpt lat="-27.2744392" lon="151.2900641">
  <ele>343.11</ele>
  <time>2026-09-01T20:03:22Z</time>
  <course>11.55</course>
  <speed>0.022360679774997897</speed>
  <fix>3d</fix>
</trkpt>
<trkpt lat="-27.274439" lon="151.290064">
  <ele>343.1</ele>
  <time>2026-09-01T20:03:22Z</time>
  <course>270.0</course>
  <speed>0.0</speed>
  <fix>3d</fix>
</trkpt>
<trkpt lat="-27.2744392" lon="151.2900641">
  <ele>343.12</ele>
  <time>2026-09-01T20:03:22Z</time>
  <course>11.55</course>
  <speed>0.022360679774997897</speed>
  <fix>3d</fix>
</trkpt>
<trkpt lat="-27.274439" lon="151.290064">
  <ele>343.1</ele>
  <time>2026-09-01T20:03:22Z</time>
  <course>270.0</course>
  <speed>0.0</speed>
  <fix>3d</fix>
</trkpt>
<trkpt lat="-27.2744392" lon="151.2900641">
  <ele>343.12</ele>
  <time>2026-09-01T20:03:22Z</time>
  <course>11.55</course>
  <speed>0.022360679774997897</speed>
  <fix>3d</fix>
</trkpt>
<trkpt lat="-27.274439" lon="151.290064">
  <ele>343.1</ele>
  <time>2026-09-01T20:03:22Z</time>
  <course>270.0</course>
  <speed>0.0</speed>
  <fix>3d</fix>
</trkpt>
<trkpt lat="-27.2744392" lon="151.2900641">
  <ele>343.13</ele>
  <time>2026-09-01T20:03:22Z</time>
  <course>11.55</course>
  <speed>0.022360679774997897</speed>
  <fix>3d</fix>
</trkpt>
<trkpt lat="-27.274439" lon="151.290064">
  <ele>343.1</ele>
  <time>2026-09-01T20:03:22Z</time>
  <course>270.0</course>
  <speed>0.0</speed>
  <fix>3d</fix>
</trkpt>
<trkpt lat="-27.2744392" lon="151.2900641">
  <ele>343.13</ele>
  <time>2026-09-01T20:03:22Z</time>
  <course>11.55</course>
  <speed>0.022360679774997897</speed>
  <fix>3d</fix>
</trkpt>
<trkpt lat="-27.274439" lon="151.290064">
  <ele>343.1</ele>
  <time>2026-09-01T20:03:22Z</time>
  <course>270.0</course>
  <speed>0.0</speed>
  <fix>3d</fix>
</trkpt>
<trkpt lat="-27.2744392" lon="151.2900641">
  <ele>343.13</ele>
  <time>2026-09-01T20:03:22Z</time>
  <course>11.55</course>
  <speed>0.022360679774997897</speed>
  <fix>3d</fix>
</trkpt>
<trkpt lat="-27.274439" lon="151.290064">
  <ele>343.1</ele>
  <time>2026-09-01T20:03:22Z</time>
  <course>270.0</course>
  <speed>0.0</speed>
  <fix>3d</fix>
</trkpt>
<trkpt lat="-27.2744392" lon="151.2900641">
  <ele>343.14</ele>
  <time>2026-09-01T20:03:22Z</time>
  <course>11.55</course>
  <speed>0.022360679774997897</speed>
  <fix>3d</fix>
</trkpt>
<trkpt lat="-27.274439" lon="151.290064">
  <ele>343.1</ele>
  <time>2026-09-01T20:03:22Z</time>
  <course>270.0</course>
  <speed>0.0</speed>
  <fix>3d</fix>
</trkpt>
<trkpt lat="-27.2744392" lon="151.2900641">
  <ele>343.14</ele>
  <time>2026-09-01T20:03:22Z</time>
  <course>11.55</course>
  <speed>0.022360679774997897</speed>
  <fix>3d</fix>
</trkpt>
<trkpt lat="-27.274439" lon="151.290064">
  <ele>343.1</ele>
  <time>2026-09-01T20:03:22Z</time>
  <course>270.0</course>
  <speed>0.0</speed>
  <fix>3d</fix>
</trkpt>
<trkpt lat="-27.2744392" lon="151.2900641">
  <ele>343.14</ele>
  <time>2026-09-01T20:03:22Z</time>
  <course>11.55</course>
  <speed>0.022360679774997897</speed>
  <fix>3d</fix>
</trkpt>
<trkpt lat="-27.274439" lon="151.290064">
  <ele>343.1</ele>
  <time>2026-09-01T20:03:22Z</time>
  <course>270.0</course>
  <speed>0.0</speed>
  <fix>3d</fix>
</trkpt>
<trkpt lat="-27.2744392" lon="151.2900641">
  <ele>343.15</ele>
  <time>2026-09-01T20:03:22Z</time>
  <course>11.55</course>
  <speed>0.022360679774997897</speed>
  <fix>3d</fix>
</trkpt>
<trkpt lat="-27.274439" lon="151.290064">
  <ele>343.1</ele>
  <time>2026-09-01T20:03:22Z</time>
  <course>270.0</course>
  <speed>0.0</speed>
  <fix>3d</fix>
</trkpt>
<trkpt lat="-27.2744392" lon="151.2900641">
  <ele>343.15</ele>
  <time>2026-09-01T20:03:22Z</time>
  <course>11.55</course>
  <speed>0.022360679774997897</speed>
  <fix>3d</fix>
</trkpt>
<trkpt lat="-27.274439" lon="151.290064">
  <ele>343.1</ele>
  <time>2026-09-01T20:03:22Z</time>
  <course>270.0</course>
  <speed>0.0</speed>
  <fix>3d</fix>
</trkpt>
<trkpt lat="-26.9720619" lon="149.6127921">
  <ele>339.29</ele>
  <time>2026-09-01T20:03:22Z</time>
  <course>310.27</course>
  <speed>0.0</speed>
  <fix>3d</fix>
</trkpt>
<trkpt lat="-26.9720619" lon="149.6127921">
  <ele>339.29</ele>
  <time>2026-09-01T20:03:22Z</time>
  <course>310.27</course>
  <speed>0.0</speed>
  <fix>3d</fix>
</trkpt>
<trkpt lat="-27.274439" lon="151.290064">
  <ele>-0.01</ele>
  <time>2026-09-01T20:03:22Z</time>
  <course>0.22</course>
  <speed>0.0</speed>
  <fix>3d</fix>
</trkpt>
<trkpt lat="-27.274439" lon="151.290064">
  <ele>343.1</ele>
  <time>2026-09-01T20:03:22Z</time>
  <course>294.58</course>
  <speed>0.0</speed>
  <fix>3d</fix>
</trkpt>
<trkpt lat="-27.274439" lon="151.290064">
  <ele>0.02</ele>
  <time>2026-09-01T20:03:22Z</time>
  <course>1.22</course>
  <speed>0.0</speed>
  <fix>3d</fix>
</trkpt>
<trkpt lat="-27.274439" lon="151.290064">
  <ele>343.1</ele>
  <time>2026-09-01T20:03:22Z</time>
  <course>294.58</course>
  <speed>0.0</speed>
  <fix>3d</fix>
</trkpt>
<trkpt lat="-27.274439" lon="151.290064">
  <ele>-0.08</ele>
  <time>2026-09-01T20:03:22Z</time>
  <course>2.11</course>
  <speed>0.0</speed>
  <fix>3d</fix>
</trkpt>
<trkpt lat="-27.274439" lon="151.290064">
  <ele>343.1</ele>
  <time>2026-09-01T20:03:22Z</time>
  <course>273.33</course>
  <speed>0.0</speed>
  <fix>3d</fix>
</trkpt>
<trkpt lat="-27.274439" lon="151.290064">
  <ele>0.22</ele>
  <time>2026-09-01T20:03:22Z</time>
  <course>2.92</course>
  <speed>0.0</speed>
  <fix>3d</fix>
</trkpt>
<trkpt lat="-27.274439" lon="151.290064">
  <ele>343.1</ele>
  <time>2026-09-01T20:03:22Z</time>
  <course>273.33</course>
  <speed>0.0</speed>
  <fix>3d</fix>
</trkpt>
<trkpt lat="-27.274439" lon="151.290064">
  <ele>0.09</ele>
  <time>2026-09-01T20:03:22Z</time>
  <course>3.65</course>
  <speed>0.0</speed>
  <fix>3d</fix>
</trkpt>
<trkpt lat="-27.274439" lon="151.290064">
  <ele>343.1</ele>
  <time>2026-09-01T20:03:22Z</time>
  <course>270.44</course>
  <speed>0.0</speed>
  <fix>3d</fix>
</trkpt>
<trkpt lat="-27.274439" lon="151.290064">
  <ele>0.08</ele>
  <time>2026-09-01T20:03:22Z</time>
  <course>4.32</course>
  <speed>0.0</speed>
  <fix>3d</fix>
</trkpt>
<trkpt lat="-27.274439" lon="151.290064">
  <ele>343.1</ele>
  <time>2026-09-01T20:03:22Z</time>
  <course>270.44</course>
  <speed>0.0</speed>
  <fix>3d</fix>
</trkpt>
<trkpt lat="-27.274439" lon="151.290064">
  <ele>0.09</ele>
  <time>2026-09-01T20:03:22Z</time>
  <course>4.92</course>
  <speed>0.0</speed>
  <fix>3d</fix>
</trkpt>
<trkpt lat="-27.274439" lon="151.290064">
  <ele>343.1</ele>
  <time>2026-09-01T20:03:22Z</time>
  <course>270.05</course>
  <speed>0.0</speed>
  <fix>3d</fix>
</trkpt>
<trkpt lat="-27.274439" lon="151.290064">
  <ele>-0.05</ele>
  <time>2026-09-01T20:03:23Z</time>
  <course>5.46</course>
  <speed>0.0</speed>
  <fix>3d</fix>
</trkpt>
<trkpt lat="-27.274439" lon="151.290064">
  <ele>343.1</ele>
  <time>2026-09-01T20:03:23Z</time>
  <course>270.05</course>
  <speed>0.0</speed>
  <fix>3d</fix>
</trkpt>
<trkpt lat="-27.274439" lon="151.290064">
  <ele>343.06</ele>
  <time>2026-09-01T20:03:23Z</time>
  <course>5.94</course>
  <speed>0.0</speed>
  <fix>3d</fix>
</trkpt>
<trkpt lat="-27.274439" lon="151.290064">
  <ele>343.1</ele>
  <time>2026-09-01T20:03:23Z</time>
  <course>270.0</course>
  <speed>0.0</speed>
  <fix>3d</fix>
</trkpt>
<trkpt lat="-27.274439" lon="151.290064">
  <ele>343.18</ele>
  <time>2026-09-01T20:03:23Z</time>
  <course>6.4</course>
  <speed>0.0</speed>
  <fix>3d</fix>
</trkpt>
<trkpt lat="-27.274439" lon="151.290064">
  <ele>343.1</ele>
  <time>2026-09-01T20:03:23Z</time>
  <course>270.0</course>
  <speed>0.0</speed>
  <fix>3d</fix>
</trkpt>
<trkpt lat="-27.274439" lon="151.290064">
  <ele>342.91</ele>
  <time>2026-09-01T20:03:23Z</time>
  <course>6.81</course>
  <speed>0.0</speed>
  <fix>3d</fix>
</trkpt>
<trkpt lat="-27.274439" lon="151.290064">
  <ele>343.1</ele>
  <time>2026-09-01T20:03:23Z</time>
  <course>270.0</course>
  <speed>0.0</speed>
  <fix>3d</fix>
</trkpt>
<trkpt lat="-27.274439" lon="151.290064">
  <ele>343.06</ele>
  <time>2026-09-01T20:03:23Z</time>
  <course>7.19</course>
  <speed>0.0</speed>
  <fix>3d</fix>
</trkpt>
<trkpt lat="-27.274439" lon="151.290064">
  <ele>343.1</ele>
  <time>2026-09-01T20:03:23Z</time>
  <course>270.0</course>
  <speed>0.0</speed>
  <fix>3d</fix>
</trkpt>
<trkpt lat="-27.274439" lon="151.290064">
  <ele>343.13</ele>
  <time>2026-09-01T20:03:23Z</time>
  <course>7.53</course>
  <speed>0.0</speed>
  <fix>3d</fix>
</trkpt>
<trkpt lat="-27.274439" lon="151.290064">
  <ele>343.1</ele>
  <time>2026-09-01T20:03:23Z</time>
  <course>270.0</course>
  <speed>0.0</speed>
  <fix>3d</fix>
</trkpt>
<trkpt lat="-27.274439" lon="151.290064">
  <ele>343.04</ele>
  <time>2026-09-01T20:03:23Z</time>
  <course>7.84</course>
  <speed>0.0</speed>
  <fix>3d</fix>
</trkpt>
<trkpt lat="-27.274439" lon="151.290064">
  <ele>343.1</ele>
  <time>2026-09-01T20:03:23Z</time>
  <course>270.0</course>
  <speed>0.0</speed>
  <fix>3d</fix>
</trkpt>
<trkpt lat="-27.274439" lon="151.290064">
  <ele>342.88</ele>
  <time>2026-09-01T20:03:23Z</time>
  <course>8.12</course>
  <speed>0.0</speed>
  <fix>3d</fix>
</trkpt>
<trkpt lat="-27.274439" lon="151.290064">
  <ele>343.1</ele>
  <time>2026-09-01T20:03:23Z</time>
  <course>270.0</course>
  <speed>0.0</speed>
  <fix>3d</fix>
</trkpt>
<trkpt lat="-27.274439" lon="151.290064">
  <ele>343.02</ele>
  <time>2026-09-01T20:03:23Z</time>
  <course>8.37</course>
  <speed>0.0</speed>
  <fix>3d</fix>
</trkpt>
<trkpt lat="-27.274439" lon="151.290064">
  <ele>343.1</ele>
  <time>2026-09-01T20:03:23Z</time>
  <course>270.0</course>
  <speed>0.0</speed>
  <fix>3d</fix>
</trkpt>
<trkpt lat="-27.274439" lon="151.290064">
  <ele>343.23</ele>
  <time>2026-09-01T20:03:23Z</time>
  <course>8.61</course>
  <speed>0.0</speed>
  <fix>3d</fix>
</trkpt>
<trkpt lat="-27.274439" lon="151.290064">
  <ele>343.1</ele>
  <time>2026-09-01T20:03:23Z</time>
  <course>270.0</course>
  <speed>0.0</speed>
  <fix>3d</fix>
</trkpt>
<trkpt lat="-27.274439" lon="151.290064">
  <ele>343.17</ele>
  <time>2026-09-01T20:03:23Z</time>
  <course>8.81</course>
  <speed>0.0</speed>
  <fix>3d</fix>
</trkpt>
<trkpt lat="-27.274439" lon="151.290064">
  <ele>343.1</ele>
  <time>2026-09-01T20:03:23Z</time>
  <course>270.0</course>
  <speed>0.0</speed>
  <fix>3d</fix>
</trkpt>
<trkpt lat="-27.274439" lon="151.290064">
  <ele>343.04</ele>
  <time>2026-09-01T20:03:23Z</time>
  <course>8.99</course>
  <speed>0.0</speed>
  <fix>3d</fix>
</trkpt>
<trkpt lat="-27.274439" lon="151.290064">
  <ele>343.1</ele>
  <time>2026-09-01T20:03:23Z</time>
  <course>270.0</course>
  <speed>0.0</speed>
  <fix>3d</fix>
</trkpt>
<trkpt lat="-27.274439" lon="151.290064">
  <ele>342.89</ele>
  <time>2026-09-01T20:03:23Z</time>
  <course>9.16</course>
  <speed>0.0</speed>
  <fix>3d</fix>
</trkpt>
<trkpt lat="-27.274439" lon="151.290064">
  <ele>343.1</ele>
  <time>2026-09-01T20:03:23Z</time>
  <course>270.0</course>
  <speed>0.0</speed>
  <fix>3d</fix>
</trkpt>
<trkpt lat="-27.274439" lon="151.290064">
  <ele>343.08</ele>
  <time>2026-09-01T20:03:23Z</time>
  <course>9.31</course>
  <speed>0.0</speed>
  <fix>3d</fix>
</trkpt>
<trkpt lat="-27.274439" lon="151.290064">
  <ele>343.1</ele>
  <time>2026-09-01T20:03:23Z</time>
  <course>270.0</course>
  <speed>0.0</speed>
  <fix>3d</fix>
</trkpt>
<trkpt lat="-27.274439" lon="151.290064">
  <ele>343.19</ele>
  <time>2026-09-01T20:03:23Z</time>
  <course>9.45</course>
  <speed>0.0</speed>
  <fix>3d</fix>
</trkpt>
<trkpt lat="-27.274439" lon="151.290064">
  <ele>343.1</ele>
  <time>2026-09-01T20:03:23Z</time>
  <course>270.0</course>
  <speed>0.0</speed>
  <fix>3d</fix>
</trkpt>
<trkpt lat="-27.274439" lon="151.290064">
  <ele>342.88</ele>
  <time>2026-09-01T20:03:23Z</time>
  <course>9.58</course>
  <speed>0.0</speed>
  <fix>3d</fix>
</trkpt>
<trkpt lat="-27.274439" lon="151.290064">
  <ele>343.1</ele>
  <time>2026-09-01T20:03:23Z</time>
  <course>270.0</course>
  <speed>0.0</speed>
  <fix>3d</fix>
</trkpt>
<trkpt lat="-27.274439" lon="151.290064">
  <ele>343.17</ele>
  <time>2026-09-01T20:03:23Z</time>
  <course>9.69</course>
  <speed>0.0</speed>
  <fix>3d</fix>
</trkpt>
<trkpt lat="-27.274439" lon="151.290064">
  <ele>343.1</ele>
  <time>2026-09-01T20:03:23Z</time>
  <course>270.0</course>
  <speed>0.0</speed>
  <fix>3d</fix>
</trkpt>
<trkpt lat="-27.274439" lon="151.290064">
  <ele>342.89</ele>
  <time>2026-09-01T20:03:23Z</time>
  <course>9.79</course>
  <speed>0.0</speed>
  <fix>3d</fix>
</trkpt>
<trkpt lat="-27.274439" lon="151.290064">
  <ele>343.1</ele>
  <time>2026-09-01T20:03:23Z</time>
  <course>270.0</course>
  <speed>0.0</speed>
  <fix>3d</fix>
</trkpt>
<trkpt lat="-27.274439" lon="151.290064">
  <ele>342.99</ele>
  <time>2026-09-01T20:03:23Z</time>
  <course>9.88</course>
  <speed>0.0</speed>
  <fix>3d</fix>
</trkpt>
<trkpt lat="-27.274439" lon="151.290064">
  <ele>343.1</ele>
  <time>2026-09-01T20:03:23Z</time>
  <course>270.0</course>
  <speed>0.0</speed>
  <fix>3d</fix>
</trkpt>
<trkpt lat="-27.274439" lon="151.290064">
  <ele>342.87</ele>
  <time>2026-09-01T20:03:23Z</time>
  <course>9.97</course>
  <speed>0.0</speed>
  <fix>3d</fix>
</trkpt>
<trkpt lat="-27.274439" lon="151.290064">
  <ele>343.1</ele>
  <time>2026-09-01T20:03:23Z</time>
  <course>270.0</course>
  <speed>0.0</speed>
  <fix>3d</fix>
</trkpt>
<trkpt lat="-27.274439" lon="151.290064">
  <ele>343.09</ele>
  <time>2026-09-01T20:03:23Z</time>
  <course>10.05</course>
  <speed>0.0</speed>
  <fix>3d</fix>
</trkpt>
<trkpt lat="-27.274439" lon="151.290064">
  <ele>343.1</ele>
  <time>2026-09-01T20:03:23Z</time>
  <course>270.0</course>
  <speed>0.0</speed>
  <fix>3d</fix>
</trkpt>
<trkpt lat="-27.274439" lon="151.290064">
  <ele>343.18</ele>
  <time>2026-09-01T20:03:23Z</time>
  <course>10.12</course>
  <speed>0.0</speed>
  <fix>3d</fix>
</trkpt>
<trkpt lat="-27.274439" lon="151.290064">
  <ele>343.1</ele>
  <time>2026-09-01T20:03:23Z</time>
  <course>270.0</course>
  <speed>0.0</speed>
  <fix>3d</fix>
</trkpt>
<trkpt lat="-27.274439" lon="151.290064">
  <ele>343.05</ele>
  <time>2026-09-01T20:03:23Z</time>
  <course>10.19</course>
  <speed>0.0</speed>
  <fix>3d</fix>
</trkpt>
<trkpt lat="-27.274439" lon="151.290064">
  <ele>343.1</ele>
  <time>2026-09-01T20:03:23Z</time>
  <course>270.0</course>
  <speed>0.0</speed>
  <fix>3d</fix>
</trkpt>
<trkpt lat="-27.274439" lon="151.290064">
  <ele>342.96</ele>
  <time>2026-09-01T20:03:23Z</time>
  <course>10.25</course>
  <speed>0.0</speed>
  <fix>3d</fix>
</trkpt>
<trkpt lat="-27.274439" lon="151.290064">
  <ele>343.1</ele>
  <time>2026-09-01T20:03:23Z</time>
  <course>270.0</course>
  <speed>0.0</speed>
  <fix>3d</fix>
</trkpt>
<trkpt lat="-27.274439" lon="151.290064">
  <ele>343.1</ele>
  <time>2026-09-01T20:03:23Z</time>
  <course>10.3</course>
  <speed>0.0</speed>
  <fix>3d</fix>
</trkpt>
<trkpt lat="-27.274439" lon="151.290064">
  <ele>343.1</ele>
  <time>2026-09-01T20:03:23Z</time>
  <course>270.0</course>
  <speed>0.0</speed>
  <fix>3d</fix>
</trkpt>
<trkpt lat="-27.274439" lon="151.290064">
  <ele>343.22</ele>
  <time>2026-09-01T20:03:23Z</time>
  <course>10.35</course>
  <speed>0.0</speed>
  <fix>3d</fix>
</trkpt>
<trkpt lat="-27.274439" lon="151.290064">
  <ele>343.1</ele>
  <time>2026-09-01T20:03:23Z</time>
  <course>270.0</course>
  <speed>0.0</speed>
  <fix>3d</fix>
</trkpt>
<trkpt lat="-27.274439" lon="151.290064">
  <ele>343.17</ele>
  <time>2026-09-01T20:03:23Z</time>
  <course>10.39</course>
  <speed>0.0</speed>
  <fix>3d</fix>
</trkpt>
<trkpt lat="-27.274439" lon="151.290064">
  <ele>343.1</ele>
  <time>2026-09-01T20:03:23Z</time>
  <course>270.0</course>
  <speed>0.0</speed>
  <fix>3d</fix>
</trkpt>
<trkpt lat="-27.274439" lon="151.290064">
  <ele>343.08</ele>
  <time>2026-09-01T20:03:23Z</time>
  <course>10.43</course>
  <speed>0.0</speed>
  <fix>3d</fix>
</trkpt>
<trkpt lat="-27.274439" lon="151.290064">
  <ele>343.1</ele>
  <time>2026-09-01T20:03:23Z</time>
  <course>270.0</course>
  <speed>0.0</speed>
  <fix>3d</fix>
</trkpt>
<trkpt lat="-27.274439" lon="151.290064">
  <ele>343.04</ele>
  <time>2026-09-01T20:03:23Z</time>
  <course>10.47</course>
  <speed>0.0</speed>
  <fix>3d</fix>
</trkpt>
<trkpt lat="-27.274439" lon="151.290064">
  <ele>343.1</ele>
  <time>2026-09-01T20:03:23Z</time>
  <course>270.0</course>
  <speed>0.0</speed>
  <fix>3d</fix>
</trkpt>
<trkpt lat="-27.274439" lon="151.290064">
  <ele>343.18</ele>
  <time>2026-09-01T20:03:23Z</time>
  <course>10.5</course>
  <speed>0.0</speed>
  <fix>3d</fix>
</trkpt>
<trkpt lat="-27.274439" lon="151.290064">
  <ele>343.1</ele>
  <time>2026-09-01T20:03:23Z</time>
  <course>270.0</course>
  <speed>0.0</speed>
  <fix>3d</fix>
</trkpt>
<trkpt lat="-27.274439" lon="151.290064">
  <ele>343.12</ele>
  <time>2026-09-01T20:03:23Z</time>
  <course>10.53</course>
  <speed>0.0</speed>
  <fix>3d</fix>
</trkpt>
<trkpt lat="-27.274439" lon="151.290064">
  <ele>343.1</ele>
  <time>2026-09-01T20:03:23Z</time>
  <course>270.0</course>
  <speed>0.0</speed>
  <fix>3d</fix>
</trkpt>
<trkpt lat="-27.274439" lon="151.290064">
  <ele>343.04</ele>
  <time>2026-09-01T20:03:23Z</time>
  <course>10.55</course>
  <speed>0.0</speed>
  <fix>3d</fix>
</trkpt>
<trkpt lat="-27.274439" lon="151.290064">
  <ele>343.1</ele>
  <time>2026-09-01T20:03:23Z</time>
  <course>270.0</course>
  <speed>0.0</speed>
  <fix>3d</fix>
</trkpt>
<trkpt lat="-27.274439" lon="151.290064">
  <ele>343.07</ele>
  <time>2026-09-01T20:03:23Z</time>
  <course>10.58</course>
  <speed>0.0</speed>
  <fix>3d</fix>
</trkpt>
<trkpt lat="-27.274439" lon="151.290064">
  <ele>343.1</ele>
  <time>2026-09-01T20:03:23Z</time>
  <course>270.0</course>
  <speed>0.0</speed>
  <fix>3d</fix>
</trkpt>
<trkpt lat="-27.274439" lon="151.290064">
  <ele>343.04</ele>
  <time>2026-09-01T20:03:23Z</time>
  <course>10.6</course>
  <speed>0.0</speed>
  <fix>3d</fix>
</trkpt>
<trkpt lat="-27.274439" lon="151.290064">
  <ele>343.1</ele>
  <time>2026-09-01T20:03:23Z</time>
  <course>270.0</course>
  <speed>0.0</speed>
  <fix>3d</fix>
</trkpt>
<trkpt lat="-27.274439" lon="151.290064">
  <ele>343.01</ele>
  <time>2026-09-01T20:03:23Z</time>
  <course>10.62</course>
  <speed>0.0</speed>
  <fix>3d</fix>
</trkpt>
<trkpt lat="-27.274439" lon="151.290064">
  <ele>343.1</ele>
  <time>2026-09-01T20:03:23Z</time>
  <course>270.0</course>
  <speed>0.0</speed>
  <fix>3d</fix>
</trkpt>
<trkpt lat="-27.274439" lon="151.290064">
  <ele>343.2</ele>
  <time>2026-09-01T20:03:23Z</time>
  <course>10.63</course>
  <speed>0.0</speed>
  <fix>3d</fix>
</trkpt>
<trkpt lat="-27.274439" lon="151.290064">
  <ele>343.1</ele>
  <time>2026-09-01T20:03:23Z</time>
  <course>270.0</course>
  <speed>0.0</speed>
  <fix>3d</fix>
</trkpt>
<trkpt lat="-27.274439" lon="151.290064">
  <ele>343.24</ele>
  <time>2026-09-01T20:03:23Z</time>
  <course>10.65</course>
  <speed>0.0</speed>
  <fix>3d</fix>
</trkpt>
<trkpt lat="-27.274439" lon="151.290064">
  <ele>343.1</ele>
  <time>2026-09-01T20:03:23Z</time>
  <course>270.0</course>
  <speed>0.0</speed>
  <fix>3d</fix>
</trkpt>
<trkpt lat="-27.274439" lon="151.290064">
  <ele>342.88</ele>
  <time>2026-09-01T20:03:23Z</time>
  <course>10.66</course>
  <speed>0.0</speed>
  <fix>3d</fix>
</trkpt>
<trkpt lat="-27.274439" lon="151.290064">
  <ele>343.1</ele>
  <time>2026-09-01T20:03:23Z</time>
  <course>270.0</course>
  <speed>0.0</speed>
  <fix>3d</fix>
</trkpt>
<trkpt lat="-27.274439" lon="151.290064">
  <ele>343.21</ele>
  <time>2026-09-01T20:03:23Z</time>
  <course>10.68</course>
  <speed>0.0</speed>
  <fix>3d</fix>
</trkpt>
<trkpt lat="-27.274439" lon="151.290064">
  <ele>343.1</ele>
  <time>2026-09-01T20:03:23Z</time>
  <course>270.0</course>
  <speed>0.0</speed>
  <fix>3d</fix>
</trkpt>
<trkpt lat="-27.274439" lon="151.290064">
  <ele>343.02</ele>
  <time>2026-09-01T20:03:23Z</time>
  <course>10.69</course>
  <speed>0.0</speed>
  <fix>3d</fix>
</trkpt>
<trkpt lat="-27.274439" lon="151.290064">
  <ele>343.1</ele>
  <time>2026-09-01T20:03:23Z</time>
  <course>270.0</course>
  <speed>0.0</speed>
  <fix>3d</fix>
</trkpt>
<trkpt lat="-27.274439" lon="151.290064">
  <ele>342.93</ele>
  <time>2026-09-01T20:03:23Z</time>
  <course>10.7</course>
  <speed>0.0</speed>
  <fix>3d</fix>
</trkpt>
<trkpt lat="-27.274439" lon="151.290064">
  <ele>343.1</ele>
  <time>2026-09-01T20:03:23Z</time>
  <course>270.0</course>
  <speed>0.0</speed>
  <fix>3d</fix>
</trkpt>
<trkpt lat="-27.274439" lon="151.290064">
  <ele>343.07</ele>
  <time>2026-09-01T20:03:23Z</time>
  <course>10.71</course>
  <speed>0.0</speed>
  <fix>3d</fix>
</trkpt>
<trkpt lat="-27.274439" lon="151.290064">
  <ele>343.1</ele>
  <time>2026-09-01T20:03:23Z</time>
  <course>270.0</course>
  <speed>0.0</speed>
  <fix>3d</fix>
</trkpt>
<trkpt lat="-27.274439" lon="151.290064">
  <ele>342.94</ele>
  <time>2026-09-01T20:03:23Z</time>
  <course>10.72</course>
  <speed>0.0</speed>
  <fix>3d</fix>
</trkpt>
<trkpt lat="-27.274439" lon="151.290064">
  <ele>343.1</ele>
  <time>2026-09-01T20:03:23Z</time>
  <course>270.0</course>
  <speed>0.0</speed>
  <fix>3d</fix>
</trkpt>
<trkpt lat="-27.274439" lon="151.290064">
  <ele>343.11</ele>
  <time>2026-09-01T20:03:23Z</time>
  <course>10.73</course>
  <speed>0.0</speed>
  <fix>3d</fix>
</trkpt>
<trkpt lat="-27.274439" lon="151.290064">
  <ele>343.1</ele>
  <time>2026-09-01T20:03:23Z</time>
  <course>270.0</course>
  <speed>0.0</speed>
  <fix>3d</fix>
</trkpt>
<trkpt lat="-27.274439" lon="151.290064">
  <ele>343.24</ele>
  <time>2026-09-01T20:03:23Z</time>
  <course>10.73</course>
  <speed>0.0</speed>
  <fix>3d</fix>
</trkpt>
<trkpt lat="-27.274439" lon="151.290064">
  <ele>343.1</ele>
  <time>2026-09-01T20:03:23Z</time>
  <course>270.0</course>
  <speed>0.0</speed>
  <fix>3d</fix>
</trkpt>
<trkpt lat="-27.274439" lon="151.290064">
  <ele>343.18</ele>
  <time>2026-09-01T20:03:23Z</time>
  <course>10.74</course>
  <speed>0.0</speed>
  <fix>3d</fix>
</trkpt>
<trkpt lat="-27.274439" lon="151.290064">
  <ele>343.1</ele>
  <time>2026-09-01T20:03:23Z</time>
  <course>270.0</course>
  <speed>0.0</speed>
  <fix>3d</fix>
</trkpt>
<trkpt lat="-27.274439" lon="151.290064">
  <ele>342.89</ele>
  <time>2026-09-01T20:03:23Z</time>
  <course>10.74</course>
  <speed>0.0</speed>
  <fix>3d</fix>
</trkpt>
<trkpt lat="-27.274439" lon="151.290064">
  <ele>343.1</ele>
  <time>2026-09-01T20:03:23Z</time>
  <course>270.0</course>
  <speed>0.0</speed>
  <fix>3d</fix>
</trkpt>
<trkpt lat="-27.274439" lon="151.290064">
  <ele>343.23</ele>
  <time>2026-09-01T20:03:23Z</time>
  <course>10.75</course>
  <speed>0.0</speed>
  <fix>3d</fix>
</trkpt>
<trkpt lat="-27.274439" lon="151.290064">
  <ele>343.1</ele>
  <time>2026-09-01T20:03:23Z</time>
  <course>270.0</course>
  <speed>0.0</speed>
  <fix>3d</fix>
</trkpt>
<trkpt lat="-27.274439" lon="151.290064">
  <ele>343.23</ele>
  <time>2026-09-01T20:03:23Z</time>
  <course>10.75</course>
  <speed>0.0</speed>
  <fix>3d</fix>
</trkpt>
<trkpt lat="-27.274439" lon="151.290064">
  <ele>343.1</ele>
  <time>2026-09-01T20:03:23Z</time>
  <course>270.0</course>
  <speed>0.0</speed>
  <fix>3d</fix>
</trkpt>
<trkpt lat="-27.274439" lon="151.290064">
  <ele>342.99</ele>
  <time>2026-09-01T20:03:23Z</time>
  <course>10.76</course>
  <speed>0.0</speed>
  <fix>3d</fix>
</trkpt>
<trkpt lat="-27.274439" lon="151.290064">
  <ele>343.1</ele>
  <time>2026-09-01T20:03:23Z</time>
  <course>270.0</course>
  <speed>0.0</speed>
  <fix>3d</fix>
</trkpt>
<trkpt lat="-27.274439" lon="151.290064">
  <ele>343.13</ele>
  <time>2026-09-01T20:03:23Z</time>
  <course>10.76</course>
  <speed>0.0</speed>
  <fix>3d</fix>
</trkpt>
<trkpt lat="-27.274439" lon="151.290064">
  <ele>343.1</ele>
  <time>2026-09-01T20:03:23Z</time>
  <course>270.0</course>
  <speed>0.0</speed>
  <fix>3d</fix>
</trkpt>
<trkpt lat="-27.274439" lon="151.290064">
  <ele>343.07</ele>
  <time>2026-09-01T20:03:23Z</time>
  <course>10.77</course>
  <speed>0.0</speed>
  <fix>3d</fix>
</trkpt>
<trkpt lat="-27.274439" lon="151.290064">
  <ele>343.1</ele>
  <time>2026-09-01T20:03:23Z</time>
  <course>270.0</course>
  <speed>0.0</speed>
  <fix>3d</fix>
</trkpt>
<trkpt lat="-27.274439" lon="151.290064">
  <ele>343.19</ele>
  <time>2026-09-01T20:03:23Z</time>
  <course>10.77</course>
  <speed>0.0</speed>
  <fix>3d</fix>
</trkpt>
<trkpt lat="-27.274439" lon="151.290064">
  <ele>343.1</ele>
  <time>2026-09-01T20:03:23Z</time>
  <course>270.0</course>
  <speed>0.0</speed>
  <fix>3d</fix>
</trkpt>
<trkpt lat="-27.274439" lon="151.290064">
  <ele>342.93</ele>
  <time>2026-09-01T20:03:23Z</time>
  <course>10.77</course>
  <speed>0.0</speed>
  <fix>3d</fix>
</trkpt>
<trkpt lat="-27.274439" lon="151.290064">
  <ele>343.1</ele>
  <time>2026-09-01T20:03:23Z</time>
  <course>270.0</course>
  <speed>0.0</speed>
  <fix>3d</fix>
</trkpt>
<trkpt lat="-27.274439" lon="151.290064">
  <ele>343.19</ele>
  <time>2026-09-01T20:03:23Z</time>
  <course>10.78</course>
  <speed>0.0</speed>
  <fix>3d</fix>
</trkpt>
<trkpt lat="-27.274439" lon="151.290064">
  <ele>343.1</ele>
  <time>2026-09-01T20:03:23Z</time>
  <course>270.0</course>
  <speed>0.0</speed>
  <fix>3d</fix>
</trkpt>
<trkpt lat="-27.274439" lon="151.290064">
  <ele>343.1</ele>
  <time>2026-09-01T20:03:23Z</time>
  <course>10.78</course>
  <speed>0.0</speed>
  <fix>3d</fix>
</trkpt>
<trkpt lat="-27.274439" lon="151.290064">
  <ele>343.1</ele>
  <time>2026-09-01T20:03:23Z</time>
  <course>270.0</course>
  <speed>0.0</speed>
  <fix>3d</fix>
</trkpt>
<trkpt lat="-27.274439" lon="151.290064">
  <ele>343.01</ele>
  <time>2026-09-01T20:03:23Z</time>
  <course>10.78</course>
  <speed>0.0</speed>
  <fix>3d</fix>
</trkpt>
<trkpt lat="-27.274439" lon="151.290064">
  <ele>343.1</ele>
  <time>2026-09-01T20:03:23Z</time>
  <course>270.0</course>
  <speed>0.0</speed>
  <fix>3d</fix>
</trkpt>
<trkpt lat="-27.274439" lon="151.290064">
  <ele>343.11</ele>
  <time>2026-09-01T20:03:23Z</time>
  <course>10.78</course>
  <speed>0.0</speed>
  <fix>3d</fix>
</trkpt>
<trkpt lat="-27.274439" lon="151.290064">
  <ele>343.1</ele>
  <time>2026-09-01T20:03:23Z</time>
  <course>270.0</course>
  <speed>0.0</speed>
  <fix>3d</fix>
</trkpt>
<trkpt lat="-27.274439" lon="151.290064">
  <ele>342.96</ele>
  <time>2026-09-01T20:03:23Z</time>
  <course>10.78</course>
  <speed>0.0</speed>
  <fix>3d</fix>
</trkpt>
<trkpt lat="-27.274439" lon="151.290064">
  <ele>343.1</ele>
  <time>2026-09-01T20:03:23Z</time>
  <course>270.0</course>
  <speed>0.0</speed>
  <fix>3d</fix>
</trkpt>
<trkpt lat="-27.274439" lon="151.290064">
  <ele>343.19</ele>
  <time>2026-09-01T20:03:23Z</time>
  <course>10.78</course>
  <speed>0.0</speed>
  <fix>3d</fix>
</trkpt>
<trkpt lat="-27.274439" lon="151.290064">
  <ele>343.1</ele>
  <time>2026-09-01T20:03:23Z</time>
  <course>270.0</course>
  <speed>0.0</speed>
  <fix>3d</fix>
</trkpt>
<trkpt lat="-27.274439" lon="151.290064">
  <ele>343.0</ele>
  <time>2026-09-01T20:03:23Z</time>
  <course>10.79</course>
  <speed>0.0</speed>
  <fix>3d</fix>
</trkpt>
<trkpt lat="-27.274439" lon="151.290064">
  <ele>343.1</ele>
  <time>2026-09-01T20:03:23Z</time>
  <course>270.0</course>
  <speed>0.0</speed>
  <fix>3d</fix>
</trkpt>
<trkpt lat="-27.274439" lon="151.290064">
  <ele>343.2</ele>
  <time>2026-09-01T20:03:23Z</time>
  <course>10.79</course>
  <speed>0.0</speed>
  <fix>3d</fix>
</trkpt>
<trkpt lat="-27.274439" lon="151.290064">
  <ele>343.1</ele>
  <time>2026-09-01T20:03:23Z</time>
  <course>270.0</course>
  <speed>0.0</speed>
  <fix>3d</fix>
</trkpt>
<trkpt lat="-27.274439" lon="151.290064">
  <ele>343.2</ele>
  <time>2026-09-01T20:03:23Z</time>
  <course>10.79</course>
  <speed>0.0</speed>
  <fix>3d</fix>
</trkpt>
<trkpt lat="-27.274439" lon="151.290064">
  <ele>343.1</ele>
  <time>2026-09-01T20:03:23Z</time>
  <course>270.0</course>
  <speed>0.0</speed>
  <fix>3d</fix>
</trkpt>
<trkpt lat="-27.274439" lon="151.290064">
  <ele>343.13</ele>
  <time>2026-09-01T20:03:23Z</time>
  <course>10.79</course>
  <speed>0.0</speed>
  <fix>3d</fix>
</trkpt>
<trkpt lat="-27.274439" lon="151.290064">
  <ele>343.1</ele>
  <time>2026-09-01T20:03:23Z</time>
  <course>270.0</course>
  <speed>0.0</speed>
  <fix>3d</fix>
</trkpt>
<trkpt lat="-27.274439" lon="151.290064">
  <ele>343.1</ele>
  <time>2026-09-01T20:03:23Z</time>
  <course>10.79</course>
  <speed>0.0</speed>
  <fix>3d</fix>
</trkpt>
<trkpt lat="-27.274439" lon="151.290064">
  <ele>343.1</ele>
  <time>2026-09-01T20:03:23Z</time>
  <course>270.0</course>
  <speed>0.0</speed>
  <fix>3d</fix>
</trkpt>
<trkpt lat="-27.274439" lon="151.290064">
  <ele>343.12</ele>
  <time>2026-09-01T20:03:23Z</time>
  <course>10.79</course>
  <speed>0.0</speed>
  <fix>3d</fix>
</trkpt>
<trkpt lat="-27.274439" lon="151.290064">
  <ele>343.1</ele>
  <time>2026-09-01T20:03:23Z</time>
  <course>270.0</course>
  <speed>0.0</speed>
  <fix>3d</fix>
</trkpt>
<trkpt lat="-27.274439" lon="151.290064">
  <ele>342.94</ele>
  <time>2026-09-01T20:03:23Z</time>
  <course>10.79</course>
  <speed>0.0</speed>
  <fix>3d</fix>
</trkpt>
<trkpt lat="-27.274439" lon="151.290064">
  <ele>343.1</ele>
  <time>2026-09-01T20:03:23Z</time>
  <course>270.0</course>
  <speed>0.0</speed>
  <fix>3d</fix>
</trkpt>
<trkpt lat="-27.274439" lon="151.290064">
  <ele>343.25</ele>
  <time>2026-09-01T20:03:23Z</time>
  <course>10.79</course>
  <speed>0.0</speed>
  <fix>3d</fix>
</trkpt>
<trkpt lat="-27.274439" lon="151.290064">
  <ele>343.1</ele>
  <time>2026-09-01T20:03:23Z</time>
  <course>270.0</course>
  <speed>0.0</speed>
  <fix>3d</fix>
</trkpt>
<trkpt lat="-27.274439" lon="151.290064">
  <ele>342.93</ele>
  <time>2026-09-01T20:03:23Z</time>
  <course>10.79</course>
  <speed>0.0</speed>
  <fix>3d</fix>
</trkpt>
<trkpt lat="-27.274439" lon="151.290064">
  <ele>343.1</ele>
  <time>2026-09-01T20:03:23Z</time>
  <course>270.0</course>
  <speed>0.0</speed>
  <fix>3d</fix>
</trkpt>
<trkpt lat="-27.274439" lon="151.290064">
  <ele>343.08</ele>
  <time>2026-09-01T20:03:23Z</time>
  <course>10.79</course>
  <speed>0.0</speed>
  <fix>3d</fix>
</trkpt>
<trkpt lat="-27.274439" lon="151.290064">
  <ele>343.1</ele>
  <time>2026-09-01T20:03:23Z</time>
  <course>270.0</course>
  <speed>0.0</speed>
  <fix>3d</fix>
</trkpt>
<trkpt lat="-27.274439" lon="151.290064">
  <ele>343.23</ele>
  <time>2026-09-01T20:03:23Z</time>
  <course>10.79</course>
  <speed>0.0</speed>
  <fix>3d</fix>
</trkpt>
<trkpt lat="-27.274439" lon="151.290064">
  <ele>343.1</ele>
  <time>2026-09-01T20:03:23Z</time>
  <course>270.0</course>
  <speed>0.0</speed>
  <fix>3d</fix>
</trkpt>
<trkpt lat="-27.274439" lon="151.290064">
  <ele>343.01</ele>
  <time>2026-09-01T20:03:23Z</time>
  <course>10.79</course>
  <speed>0.0</speed>
  <fix>3d</fix>
</trkpt>
<trkpt lat="-27.274439" lon="151.290064">
  <ele>343.1</ele>
  <time>2026-09-01T20:03:23Z</time>
  <course>270.0</course>
  <speed>0.0</speed>
  <fix>3d</fix>
</trkpt>
<trkpt lat="-27.274439" lon="151.290064">
  <ele>343.1</ele>
  <time>2026-09-01T20:03:23Z</time>
  <course>10.8</course>
  <speed>0.0</speed>
  <fix>3d</fix>
</trkpt>
<trkpt lat="-27.274439" lon="151.290064">
  <ele>343.1</ele>
  <time>2026-09-01T20:03:23Z</time>
  <course>270.0</course>
  <speed>0.0</speed>
  <fix>3d</fix>
</trkpt>
<trkpt lat="-27.274439" lon="151.290064">
  <ele>342.99</ele>
  <time>2026-09-01T20:03:23Z</time>
  <course>10.8</course>
  <speed>0.0</speed>
  <fix>3d</fix>
</trkpt>
<trkpt lat="-27.274439" lon="151.290064">
  <ele>343.1</ele>
  <time>2026-09-01T20:03:23Z</time>
  <course>270.0</course>
  <speed>0.0</speed>
  <fix>3d</fix>
</trkpt>
<trkpt lat="-27.274439" lon="151.290064">
  <ele>342.87</ele>
  <time>2026-09-01T20:03:23Z</time>
  <course>10.8</course>
  <speed>0.0</speed>
  <fix>3d</fix>
</trkpt>
<trkpt lat="-27.274439" lon="151.290064">
  <ele>343.1</ele>
  <time>2026-09-01T20:03:23Z</time>
  <course>270.0</course>
  <speed>0.0</speed>
  <fix>3d</fix>
</trkpt>
<trkpt lat="-27.274439" lon="151.290064">
  <ele>343.1</ele>
  <time>2026-09-01T20:03:23Z</time>
  <course>10.8</course>
  <speed>0.0</speed>
  <fix>3d</fix>
</trkpt>
<trkpt lat="-27.274439" lon="151.290064">
  <ele>343.1</ele>
  <time>2026-09-01T20:03:23Z</time>
  <course>270.0</course>
  <speed>0.0</speed>
  <fix>3d</fix>
</trkpt>
<trkpt lat="-27.274439" lon="151.290064">
  <ele>342.99</ele>
  <time>2026-09-01T20:03:23Z</time>
  <course>10.8</course>
  <speed>0.0</speed>
  <fix>3d</fix>
</trkpt>
<trkpt lat="-27.274439" lon="151.290064">
  <ele>343.1</ele>
  <time>2026-09-01T20:03:23Z</time>
  <course>270.0</course>
  <speed>0.0</speed>
  <fix>3d</fix>
</trkpt>
<trkpt lat="-27.274439" lon="151.290064">
  <ele>342.91</ele>
  <time>2026-09-01T20:03:23Z</time>
  <course>10.8</course>
  <speed>0.0</speed>
  <fix>3d</fix>
</trkpt>
<trkpt lat="-27.274439" lon="151.290064">
  <ele>343.1</ele>
  <time>2026-09-01T20:03:23Z</time>
  <course>270.0</course>
  <speed>0.0</speed>
  <fix>3d</fix>
</trkpt>
<trkpt lat="-27.274439" lon="151.290064">
  <ele>342.9</ele>
  <time>2026-09-01T20:03:23Z</time>
  <course>10.8</course>
  <speed>0.0</speed>
  <fix>3d</fix>
</trkpt>
<trkpt lat="-27.274439" lon="151.290064">
  <ele>343.1</ele>
  <time>2026-09-01T20:03:23Z</time>
  <course>270.0</course>
  <speed>0.0</speed>
  <fix>3d</fix>
</trkpt>
<trkpt lat="-27.274439" lon="151.290064">
  <ele>342.87</ele>
  <time>2026-09-01T20:03:23Z</time>
  <course>10.8</course>
  <speed>0.0</speed>
  <fix>3d</fix>
</trkpt>
<trkpt lat="-27.274439" lon="151.290064">
  <ele>343.1</ele>
  <time>2026-09-01T20:03:23Z</time>
  <course>270.0</course>
  <speed>0.0</speed>
  <fix>3d</fix>
</trkpt>
<trkpt lat="-27.274439" lon="151.290064">
  <ele>343.12</ele>
  <time>2026-09-01T20:03:23Z</time>
  <course>10.8</course>
  <speed>0.0</speed>
  <fix>3d</fix>
</trkpt>
<trkpt lat="-27.274439" lon="151.290064">
  <ele>343.1</ele>
  <time>2026-09-01T20:03:23Z</time>
  <course>270.0</course>
  <speed>0.0</speed>
  <fix>3d</fix>
</trkpt>
<trkpt lat="-27.274439" lon="151.290064">
  <ele>342.99</ele>
  <time>2026-09-01T20:03:23Z</time>
  <course>10.8</course>
  <speed>0.0</speed>
  <fix>3d</fix>
</trkpt>
<trkpt lat="-27.274439" lon="151.290064">
  <ele>343.1</ele>
  <time>2026-09-01T20:03:23Z</time>
  <course>270.0</course>
  <speed>0.0</speed>
  <fix>3d</fix>
</trkpt>
<trkpt lat="-27.274439" lon="151.290064">
  <ele>343.13</ele>
  <time>2026-09-01T20:03:23Z</time>
  <course>10.8</course>
  <speed>0.0</speed>
  <fix>3d</fix>
</trkpt>
<trkpt lat="-27.274439" lon="151.290064">
  <ele>343.1</ele>
  <time>2026-09-01T20:03:23Z</time>
  <course>270.0</course>
  <speed>0.0</speed>
  <fix>3d</fix>
</trkpt>
<trkpt lat="-27.274439" lon="151.290064">
  <ele>343.0</ele>
  <time>2026-09-01T20:03:23Z</time>
  <course>10.8</course>
  <speed>0.0</speed>
  <fix>3d</fix>
</trkpt>
<trkpt lat="-27.274439" lon="151.290064">
  <ele>343.1</ele>
  <time>2026-09-01T20:03:23Z</time>
  <course>270.0</course>
  <speed>0.0</speed>
  <fix>3d</fix>
</trkpt>
<trkpt lat="-27.274439" lon="151.290064">
  <ele>343.17</ele>
  <time>2026-09-01T20:03:23Z</time>
  <course>10.8</course>
  <speed>0.0</speed>
  <fix>3d</fix>
</trkpt>
<trkpt lat="-27.274439" lon="151.290064">
  <ele>343.1</ele>
  <time>2026-09-01T20:03:23Z</time>
  <course>270.0</course>
  <speed>0.0</speed>
  <fix>3d</fix>
</trkpt>
<trkpt lat="-27.274439" lon="151.290064">
  <ele>343.0</ele>
  <time>2026-09-01T20:03:23Z</time>
  <course>10.8</course>
  <speed>0.0</speed>
  <fix>3d</fix>
</trkpt>
<trkpt lat="-27.274439" lon="151.290064">
  <ele>343.1</ele>
  <time>2026-09-01T20:03:23Z</time>
  <course>270.0</course>
  <speed>0.0</speed>
  <fix>3d</fix>
</trkpt>
<trkpt lat="-27.274439" lon="151.290064">
  <ele>342.99</ele>
  <time>2026-09-01T20:03:23Z</time>
  <course>10.8</course>
  <speed>0.0</speed>
  <fix>3d</fix>
</trkpt>
<trkpt lat="-27.274439" lon="151.290064">
  <ele>343.1</ele>
  <time>2026-09-01T20:03:23Z</time>
  <course>270.0</course>
  <speed>0.0</speed>
  <fix>3d</fix>
</trkpt>
<trkpt lat="-27.274439" lon="151.290064">
  <ele>343.17</ele>
  <time>2026-09-01T20:03:23Z</time>
  <course>10.8</course>
  <speed>0.0</speed>
  <fix>3d</fix>
</trkpt>
<trkpt lat="-27.274439" lon="151.290064">
  <ele>343.1</ele>
  <time>2026-09-01T20:03:23Z</time>
  <course>270.0</course>
  <speed>0.0</speed>
  <fix>3d</fix>
</trkpt>
<trkpt lat="-27.274439" lon="151.290064">
  <ele>343.16</ele>
  <time>2026-09-01T20:03:23Z</time>
  <course>10.8</course>
  <speed>0.0</speed>
  <fix>3d</fix>
</trkpt>
<trkpt lat="-27.274439" lon="151.290064">
  <ele>343.1</ele>
  <time>2026-09-01T20:03:23Z</time>
  <course>270.0</course>
  <speed>0.0</speed>
  <fix>3d</fix>
</trkpt>
<trkpt lat="-27.274439" lon="151.290064">
  <ele>342.87</ele>
  <time>2026-09-01T20:03:23Z</time>
  <course>10.8</course>
  <speed>0.0</speed>
  <fix>3d</fix>
</trkpt>
<trkpt lat="-27.274439" lon="151.290064">
  <ele>343.1</ele>
  <time>2026-09-01T20:03:23Z</time>
  <course>270.0</course>
  <speed>0.0</speed>
  <fix>3d</fix>
</trkpt>
<trkpt lat="-27.274439" lon="151.290064">
  <ele>343.19</ele>
  <time>2026-09-01T20:03:23Z</time>
  <course>10.8</course>
  <speed>0.0</speed>
  <fix>3d</fix>
</trkpt>
<trkpt lat="-27.274439" lon="151.290064">
  <ele>343.1</ele>
  <time>2026-09-01T20:03:23Z</time>
  <course>270.0</course>
  <speed>0.0</speed>
  <fix>3d</fix>
</trkpt>
<trkpt lat="-27.274439" lon="151.290064">
  <ele>343.16</ele>
  <time>2026-09-01T20:03:23Z</time>
  <course>10.8</course>
  <speed>0.0</speed>
  <fix>3d</fix>
</trkpt>
<trkpt lat="-27.274439" lon="151.290064">
  <ele>343.1</ele>
  <time>2026-09-01T20:03:23Z</time>
  <course>270.0</course>
  <speed>0.0</speed>
  <fix>3d</fix>
</trkpt>
<trkpt lat="-27.274439" lon="151.290064">
  <ele>343.21</ele>
  <time>2026-09-01T20:03:23Z</time>
  <course>10.8</course>
  <speed>0.0</speed>
  <fix>3d</fix>
</trkpt>
<trkpt lat="-27.274439" lon="151.290064">
  <ele>343.1</ele>
  <time>2026-09-01T20:03:23Z</time>
  <course>270.0</course>
  <speed>0.0</speed>
  <fix>3d</fix>
</trkpt>
<trkpt lat="-27.274439" lon="151.290064">
  <ele>343.22</ele>
  <time>2026-09-01T20:03:23Z</time>
  <course>10.8</course>
  <speed>0.0</speed>
  <fix>3d</fix>
</trkpt>
<trkpt lat="-27.274439" lon="151.290064">
  <ele>343.1</ele>
  <time>2026-09-01T20:03:23Z</time>
  <course>270.0</course>
  <speed>0.0</speed>
  <fix>3d</fix>
</trkpt>
<trkpt lat="-27.274439" lon="151.290064">
  <ele>343.12</ele>
  <time>2026-09-01T20:03:23Z</time>
  <course>10.8</course>
  <speed>0.0</speed>
  <fix>3d</fix>
</trkpt>
<trkpt lat="-27.274439" lon="151.290064">
  <ele>343.1</ele>
  <time>2026-09-01T20:03:23Z</time>
  <course>270.0</course>
  <speed>0.0</speed>
  <fix>3d</fix>
</trkpt>
<trkpt lat="-27.274439" lon="151.290064">
  <ele>342.88</ele>
  <time>2026-09-01T20:03:23Z</time>
  <course>10.8</course>
  <speed>0.0</speed>
  <fix>3d</fix>
</trkpt>
<trkpt lat="-27.274439" lon="151.290064">
  <ele>343.1</ele>
  <time>2026-09-01T20:03:23Z</time>
  <course>270.0</course>
  <speed>0.0</speed>
  <fix>3d</fix>
</trkpt>
<trkpt lat="-27.274439" lon="151.290064">
  <ele>342.97</ele>
  <time>2026-09-01T20:03:23Z</time>
  <course>10.8</course>
  <speed>0.0</speed>
  <fix>3d</fix>
</trkpt>
<trkpt lat="-27.274439" lon="151.290064">
  <ele>343.1</ele>
  <time>2026-09-01T20:03:23Z</time>
  <course>270.0</course>
  <speed>0.0</speed>
  <fix>3d</fix>
</trkpt>
<trkpt lat="-27.274439" lon="151.290064">
  <ele>342.92</ele>
  <time>2026-09-01T20:03:23Z</time>
  <course>10.8</course>
  <speed>0.0</speed>
  <fix>3d</fix>
</trkpt>
<trkpt lat="-27.274439" lon="151.290064">
  <ele>343.1</ele>
  <time>2026-09-01T20:03:23Z</time>
  <course>270.0</course>
  <speed>0.0</speed>
  <fix>3d</fix>
</trkpt>
<trkpt lat="-27.274439" lon="151.290064">
  <ele>342.74</ele>
  <time>2026-09-01T20:03:23Z</time>
  <course>10.8</course>
  <speed>0.0</speed>
  <fix>3d</fix>
</trkpt>
<trkpt lat="-27.274439" lon="151.290064">
  <ele>343.1</ele>
  <time>2026-09-01T20:03:23Z</time>
  <course>270.0</course>
  <speed>0.0</speed>
  <fix>3d</fix>
</trkpt>
<trkpt lat="-27.274439" lon="151.290064">
  <ele>342.8</ele>
  <time>2026-09-01T20:03:23Z</time>
  <course>10.8</course>
  <speed>0.0</speed>
  <fix>3d</fix>
</trkpt>
<trkpt lat="-27.274439" lon="151.290064">
  <ele>343.1</ele>
  <time>2026-09-01T20:03:23Z</time>
  <course>270.0</course>
  <speed>0.0</speed>
  <fix>3d</fix>
</trkpt>
<trkpt lat="-27.274439" lon="151.290064">
  <ele>342.83</ele>
  <time>2026-09-01T20:03:23Z</time>
  <course>10.8</course>
  <speed>0.0</speed>
  <fix>3d</fix>
</trkpt>
<trkpt lat="-27.274439" lon="151.290064">
  <ele>343.1</ele>
  <time>2026-09-01T20:03:23Z</time>
  <course>270.0</course>
  <speed>0.0</speed>
  <fix>3d</fix>
</trkpt>
<trkpt lat="-27.274439" lon="151.290064">
  <ele>343.03</ele>
  <time>2026-09-01T20:03:23Z</time>
  <course>10.8</course>
  <speed>0.0</speed>
  <fix>3d</fix>
</trkpt>
<trkpt lat="-27.274439" lon="151.290064">
  <ele>343.1</ele>
  <time>2026-09-01T20:03:23Z</time>
  <course>270.0</course>
  <speed>0.0</speed>
  <fix>3d</fix>
</trkpt>
<trkpt lat="-27.274439" lon="151.290064">
  <ele>343.04</ele>
  <time>2026-09-01T20:03:23Z</time>
  <course>10.8</course>
  <speed>0.0</speed>
  <fix>3d</fix>
</trkpt>
<trkpt lat="-27.274439" lon="151.290064">
  <ele>343.1</ele>
  <time>2026-09-01T20:03:23Z</time>
  <course>270.0</course>
  <speed>0.0</speed>
  <fix>3d</fix>
</trkpt>
<trkpt lat="-27.274439" lon="151.290064">
  <ele>343.07</ele>
  <time>2026-09-01T20:03:23Z</time>
  <course>10.81</course>
  <speed>0.0</speed>
  <fix>3d</fix>
</trkpt>
<trkpt lat="-27.274439" lon="151.290064">
  <ele>343.1</ele>
  <time>2026-09-01T20:03:23Z</time>
  <course>270.0</course>
  <speed>0.0</speed>
  <fix>3d</fix>
</trkpt>
<trkpt lat="-27.274439" lon="151.290064">
  <ele>343.01</ele>
  <time>2026-09-01T20:03:23Z</time>
  <course>10.82</course>
  <speed>0.0</speed>
  <fix>3d</fix>
</trkpt>
<trkpt lat="-27.274439" lon="151.290064">
  <ele>343.1</ele>
  <time>2026-09-01T20:03:23Z</time>
  <course>270.0</course>
  <speed>0.0</speed>
  <fix>3d</fix>
</trkpt>
<trkpt lat="-27.274439" lon="151.290064">
  <ele>342.88</ele>
  <time>2026-09-01T20:03:23Z</time>
  <course>10.83</course>
  <speed>0.0</speed>
  <fix>3d</fix>
</trkpt>
<trkpt lat="-27.274439" lon="151.290064">
  <ele>343.1</ele>
  <time>2026-09-01T20:03:23Z</time>
  <course>270.0</course>
  <speed>0.0</speed>
  <fix>3d</fix>
</trkpt>
<trkpt lat="-27.274439" lon="151.290064">
  <ele>343.12</ele>
  <time>2026-09-01T20:03:23Z</time>
  <course>10.84</course>
  <speed>0.0</speed>
  <fix>3d</fix>
</trkpt>
<trkpt lat="-27.274439" lon="151.290064">
  <ele>343.1</ele>
  <time>2026-09-01T20:03:23Z</time>
  <course>270.0</course>
  <speed>0.0</speed>
  <fix>3d</fix>
</trkpt>
<trkpt lat="-27.274439" lon="151.290064">
  <ele>342.88</ele>
  <time>2026-09-01T20:03:23Z</time>
  <course>10.84</course>
  <speed>0.0</speed>
  <fix>3d</fix>
</trkpt>
<trkpt lat="-27.274439" lon="151.290064">
  <ele>343.1</ele>
  <time>2026-09-01T20:03:23Z</time>
  <course>270.0</course>
  <speed>0.0</speed>
  <fix>3d</fix>
</trkpt>
<trkpt lat="-27.274439" lon="151.290064">
  <ele>343.02</ele>
  <time>2026-09-01T20:03:23Z</time>
  <course>10.85</course>
  <speed>0.0</speed>
  <fix>3d</fix>
</trkpt>
<trkpt lat="-27.274439" lon="151.290064">
  <ele>343.1</ele>
  <time>2026-09-01T20:03:23Z</time>
  <course>270.0</course>
  <speed>0.0</speed>
  <fix>3d</fix>
</trkpt>
<trkpt lat="-27.274439" lon="151.290064">
  <ele>342.83</ele>
  <time>2026-09-01T20:03:23Z</time>
  <course>10.86</course>
  <speed>0.0</speed>
  <fix>3d</fix>
</trkpt>
<trkpt lat="-27.274439" lon="151.290064">
  <ele>343.1</ele>
  <time>2026-09-01T20:03:23Z</time>
  <course>270.0</course>
  <speed>0.0</speed>
  <fix>3d</fix>
</trkpt>
<trkpt lat="-27.274439" lon="151.290064">
  <ele>342.9</ele>
  <time>2026-09-01T20:03:23Z</time>
  <course>10.87</course>
  <speed>0.0</speed>
  <fix>3d</fix>
</trkpt>
<trkpt lat="-27.274439" lon="151.290064">
  <ele>343.1</ele>
  <time>2026-09-01T20:03:23Z</time>
  <course>270.0</course>
  <speed>0.0</speed>
  <fix>3d</fix>
</trkpt>
<trkpt lat="-27.274439" lon="151.290064">
  <ele>343.04</ele>
  <time>2026-09-01T20:03:23Z</time>
  <course>10.88</course>
  <speed>0.0</speed>
  <fix>3d</fix>
</trkpt>
<trkpt lat="-27.274439" lon="151.290064">
  <ele>343.1</ele>
  <time>2026-09-01T20:03:23Z</time>
  <course>270.0</course>
  <speed>0.0</speed>
  <fix>3d</fix>
</trkpt>
<trkpt lat="-27.274439" lon="151.290064">
  <ele>343.09</ele>
  <time>2026-09-01T20:03:23Z</time>
  <course>10.88</course>
  <speed>0.0</speed>
  <fix>3d</fix>
</trkpt>
<trkpt lat="-27.274439" lon="151.290064">
  <ele>343.1</ele>
  <time>2026-09-01T20:03:23Z</time>
  <course>270.0</course>
  <speed>0.0</speed>
  <fix>3d</fix>
</trkpt>
<trkpt lat="-27.274439" lon="151.290064">
  <ele>342.75</ele>
  <time>2026-09-01T20:03:23Z</time>
  <course>10.89</course>
  <speed>0.0</speed>
  <fix>3d</fix>
</trkpt>
<trkpt lat="-27.274439" lon="151.290064">
  <ele>343.1</ele>
  <time>2026-09-01T20:03:23Z</time>
  <course>270.0</course>
  <speed>0.0</speed>
  <fix>3d</fix>
</trkpt>
<trkpt lat="-27.274439" lon="151.290064">
  <ele>342.95</ele>
  <time>2026-09-01T20:03:23Z</time>
  <course>10.9</course>
  <speed>0.0</speed>
  <fix>3d</fix>
</trkpt>
<trkpt lat="-27.274439" lon="151.290064">
  <ele>343.1</ele>
  <time>2026-09-01T20:03:23Z</time>
  <course>270.0</course>
  <speed>0.0</speed>
  <fix>3d</fix>
</trkpt>
<trkpt lat="-27.274439" lon="151.290064">
  <ele>342.83</ele>
  <time>2026-09-01T20:03:23Z</time>
  <course>10.91</course>
  <speed>0.0</speed>
  <fix>3d</fix>
</trkpt>
<trkpt lat="-27.274439" lon="151.290064">
  <ele>343.1</ele>
  <time>2026-09-01T20:03:23Z</time>
  <course>270.0</course>
  <speed>0.0</speed>
  <fix>3d</fix>
</trkpt>
<trkpt lat="-27.274439" lon="151.290064">
  <ele>343.05</ele>
  <time>2026-09-01T20:03:23Z</time>
  <course>10.91</course>
  <speed>0.0</speed>
  <fix>3d</fix>
</trkpt>
<trkpt lat="-27.274439" lon="151.290064">
  <ele>343.1</ele>
  <time>2026-09-01T20:03:23Z</time>
  <course>270.0</course>
  <speed>0.0</speed>
  <fix>3d</fix>
</trkpt>
<trkpt lat="-27.274439" lon="151.290064">
  <ele>342.88</ele>
  <time>2026-09-01T20:03:23Z</time>
  <course>10.92</course>
  <speed>0.0</speed>
  <fix>3d</fix>
</trkpt>
<trkpt lat="-27.274439" lon="151.290064">
  <ele>343.1</ele>
  <time>2026-09-01T20:03:23Z</time>
  <course>270.0</course>
  <speed>0.0</speed>
  <fix>3d</fix>
</trkpt>
<trkpt lat="-27.274439" lon="151.290064">
  <ele>343.12</ele>
  <time>2026-09-01T20:03:23Z</time>
  <course>10.93</course>
  <speed>0.0</speed>
  <fix>3d</fix>
</trkpt>
<trkpt lat="-27.274439" lon="151.290064">
  <ele>343.1</ele>
  <time>2026-09-01T20:03:23Z</time>
  <course>270.0</course>
  <speed>0.0</speed>
  <fix>3d</fix>
</trkpt>
<trkpt lat="-27.274439" lon="151.290064">
  <ele>342.95</ele>
  <time>2026-09-01T20:03:23Z</time>
  <course>10.94</course>
  <speed>0.0</speed>
  <fix>3d</fix>
</trkpt>
<trkpt lat="-27.274439" lon="151.290064">
  <ele>343.1</ele>
  <time>2026-09-01T20:03:23Z</time>
  <course>270.0</course>
  <speed>0.0</speed>
  <fix>3d</fix>
</trkpt>
<trkpt lat="-27.274439" lon="151.290064">
  <ele>343.19</ele>
  <time>2026-09-01T20:03:23Z</time>
  <course>10.94</course>
  <speed>0.0</speed>
  <fix>3d</fix>
</trkpt>
<trkpt lat="-27.274439" lon="151.290064">
  <ele>343.1</ele>
  <time>2026-09-01T20:03:23Z</time>
  <course>270.0</course>
  <speed>0.0</speed>
  <fix>3d</fix>
</trkpt>
<trkpt lat="-27.274439" lon="151.290064">
  <ele>343.02</ele>
  <time>2026-09-01T20:03:23Z</time>
  <course>10.95</course>
  <speed>0.0</speed>
  <fix>3d</fix>
</trkpt>
<trkpt lat="-27.274439" lon="151.290064">
  <ele>343.1</ele>
  <time>2026-09-01T20:03:23Z</time>
  <course>270.0</course>
  <speed>0.0</speed>
  <fix>3d</fix>
</trkpt>
<trkpt lat="-27.274439" lon="151.290064">
  <ele>343.25</ele>
  <time>2026-09-01T20:03:23Z</time>
  <course>10.96</course>
  <speed>0.0</speed>
  <fix>3d</fix>
</trkpt>
<trkpt lat="-27.274439" lon="151.290064">
  <ele>343.1</ele>
  <time>2026-09-01T20:03:23Z</time>
  <course>270.0</course>
  <speed>0.0</speed>
  <fix>3d</fix>
</trkpt>
<trkpt lat="-27.274439" lon="151.290064">
  <ele>342.94</ele>
  <time>2026-09-01T20:03:23Z</time>
  <course>10.96</course>
  <speed>0.0</speed>
  <fix>3d</fix>
</trkpt>
<trkpt lat="-27.274439" lon="151.290064">
  <ele>343.1</ele>
  <time>2026-09-01T20:03:23Z</time>
  <course>270.0</course>
  <speed>0.0</speed>
  <fix>3d</fix>
</trkpt>
<trkpt lat="-27.274439" lon="151.290064">
  <ele>343.12</ele>
  <time>2026-09-01T20:03:23Z</time>
  <course>10.97</course>
  <speed>0.0</speed>
  <fix>3d</fix>
</trkpt>
<trkpt lat="-27.274439" lon="151.290064">
  <ele>343.1</ele>
  <time>2026-09-01T20:03:23Z</time>
  <course>270.0</course>
  <speed>0.0</speed>
  <fix>3d</fix>
</trkpt>
<trkpt lat="-27.274439" lon="151.290064">
  <ele>343.01</ele>
  <time>2026-09-01T20:03:23Z</time>
  <course>10.98</course>
  <speed>0.0</speed>
  <fix>3d</fix>
</trkpt>
<trkpt lat="-27.274439" lon="151.290064">
  <ele>343.1</ele>
  <time>2026-09-01T20:03:23Z</time>
  <course>270.0</course>
  <speed>0.0</speed>
  <fix>3d</fix>
</trkpt>
<trkpt lat="-27.274439" lon="151.290064">
  <ele>343.13</ele>
  <time>2026-09-01T20:03:23Z</time>
  <course>10.98</course>
  <speed>0.0</speed>
  <fix>3d</fix>
</trkpt>
<trkpt lat="-27.274439" lon="151.290064">
  <ele>343.1</ele>
  <time>2026-09-01T20:03:23Z</time>
  <course>270.0</course>
  <speed>0.0</speed>
  <fix>3d</fix>
</trkpt>
<trkpt lat="-27.274439" lon="151.290064">
  <ele>343.18</ele>
  <time>2026-09-01T20:03:23Z</time>
  <course>10.99</course>
  <speed>0.0</speed>
  <fix>3d</fix>
</trkpt>
<trkpt lat="-27.274439" lon="151.290064">
  <ele>343.1</ele>
  <time>2026-09-01T20:03:23Z</time>
  <course>270.0</course>
  <speed>0.0</speed>
  <fix>3d</fix>
</trkpt>
<trkpt lat="-27.274439" lon="151.290064">
  <ele>342.97</ele>
  <time>2026-09-01T20:03:23Z</time>
  <course>10.99</course>
  <speed>0.0</speed>
  <fix>3d</fix>
</trkpt>
<trkpt lat="-27.274439" lon="151.290064">
  <ele>343.1</ele>
  <time>2026-09-01T20:03:23Z</time>
  <course>270.0</course>
  <speed>0.0</speed>
  <fix>3d</fix>
</trkpt>
<trkpt lat="-27.274439" lon="151.290064">
  <ele>343.14</ele>
  <time>2026-09-01T20:03:23Z</time>
  <course>11.0</course>
  <speed>0.0</speed>
  <fix>3d</fix>
</trkpt>
<trkpt lat="-27.274439" lon="151.290064">
  <ele>343.1</ele>
  <time>2026-09-01T20:03:23Z</time>
  <course>270.0</course>
  <speed>0.0</speed>
  <fix>3d</fix>
</trkpt>
<trkpt lat="-27.274439" lon="151.290064">
  <ele>342.96</ele>
  <time>2026-09-01T20:03:23Z</time>
  <course>11.01</course>
  <speed>0.0</speed>
  <fix>3d</fix>
</trkpt>
<trkpt lat="-27.274439" lon="151.290064">
  <ele>343.1</ele>
  <time>2026-09-01T20:03:23Z</time>
  <course>270.0</course>
  <speed>0.0</speed>
  <fix>3d</fix>
</trkpt>
<trkpt lat="-27.274439" lon="151.290064">
  <ele>343.3</ele>
  <time>2026-09-01T20:03:23Z</time>
  <course>11.01</course>
  <speed>0.0</speed>
  <fix>3d</fix>
</trkpt>
<trkpt lat="-27.274439" lon="151.290064">
  <ele>343.1</ele>
  <time>2026-09-01T20:03:23Z</time>
  <course>270.0</course>
  <speed>0.0</speed>
  <fix>3d</fix>
</trkpt>
<trkpt lat="-27.274439" lon="151.290064">
  <ele>343.22</ele>
  <time>2026-09-01T20:03:23Z</time>
  <course>11.02</course>
  <speed>0.0</speed>
  <fix>3d</fix>
</trkpt>
<trkpt lat="-27.274439" lon="151.290064">
  <ele>343.1</ele>
  <time>2026-09-01T20:03:23Z</time>
  <course>270.0</course>
  <speed>0.0</speed>
  <fix>3d</fix>
</trkpt>
<trkpt lat="-27.274439" lon="151.290064">
  <ele>343.08</ele>
  <time>2026-09-01T20:03:23Z</time>
  <course>11.02</course>
  <speed>0.0</speed>
  <fix>3d</fix>
</trkpt>
<trkpt lat="-27.274439" lon="151.290064">
  <ele>343.1</ele>
  <time>2026-09-01T20:03:23Z</time>
  <course>270.0</course>
  <speed>0.0</speed>
  <fix>3d</fix>
</trkpt>
<trkpt lat="-27.274439" lon="151.290064">
  <ele>343.23</ele>
  <time>2026-09-01T20:03:23Z</time>
  <course>11.03</course>
  <speed>0.0</speed>
  <fix>3d</fix>
</trkpt>
<trkpt lat="-27.274439" lon="151.290064">
  <ele>343.1</ele>
  <time>2026-09-01T20:03:23Z</time>
  <course>270.0</course>
  <speed>0.0</speed>
  <fix>3d</fix>
</trkpt>
<trkpt lat="-27.274439" lon="151.290064">
  <ele>343.33</ele>
  <time>2026-09-01T20:03:23Z</time>
  <course>11.03</course>
  <speed>0.0</speed>
  <fix>3d</fix>
</trkpt>
<trkpt lat="-27.274439" lon="151.290064">
  <ele>343.1</ele>
  <time>2026-09-01T20:03:23Z</time>
  <course>270.0</course>
  <speed>0.0</speed>
  <fix>3d</fix>
</trkpt>
<trkpt lat="-27.274439" lon="151.290064">
  <ele>343.05</ele>
  <time>2026-09-01T20:03:23Z</time>
  <course>11.04</course>
  <speed>0.0</speed>
  <fix>3d</fix>
</trkpt>
<trkpt lat="-27.274439" lon="151.290064">
  <ele>343.1</ele>
  <time>2026-09-01T20:03:23Z</time>
  <course>270.0</course>
  <speed>0.0</speed>
  <fix>3d</fix>
</trkpt>
<trkpt lat="-27.274439" lon="151.290064">
  <ele>343.16</ele>
  <time>2026-09-01T20:03:23Z</time>
  <course>11.04</course>
  <speed>0.0</speed>
  <fix>3d</fix>
</trkpt>
<trkpt lat="-27.274439" lon="151.290064">
  <ele>343.1</ele>
  <time>2026-09-01T20:03:23Z</time>
  <course>270.0</course>
  <speed>0.0</speed>
  <fix>3d</fix>
</trkpt>
<trkpt lat="-27.274439" lon="151.290064">
  <ele>343.16</ele>
  <time>2026-09-01T20:03:23Z</time>
  <course>11.05</course>
  <speed>0.0</speed>
  <fix>3d</fix>
</trkpt>
<trkpt lat="-27.274439" lon="151.290064">
  <ele>343.1</ele>
  <time>2026-09-01T20:03:23Z</time>
  <course>270.0</course>
  <speed>0.0</speed>
  <fix>3d</fix>
</trkpt>
<trkpt lat="-27.274439" lon="151.290064">
  <ele>343.08</ele>
  <time>2026-09-01T20:03:23Z</time>
  <course>11.05</course>
  <speed>0.0</speed>
  <fix>3d</fix>
</trkpt>
<trkpt lat="-27.274439" lon="151.290064">
  <ele>343.1</ele>
  <time>2026-09-01T20:03:23Z</time>
  <course>270.0</course>
  <speed>0.0</speed>
  <fix>3d</fix>
</trkpt>
<trkpt lat="-27.274439" lon="151.290064">
  <ele>343.17</ele>
  <time>2026-09-01T20:03:23Z</time>
  <course>11.06</course>
  <speed>0.0</speed>
  <fix>3d</fix>
</trkpt>
<trkpt lat="-27.274439" lon="151.290064">
  <ele>343.1</ele>
  <time>2026-09-01T20:03:23Z</time>
  <course>270.0</course>
  <speed>0.0</speed>
  <fix>3d</fix>
</trkpt>
<trkpt lat="-27.274439" lon="151.290064">
  <ele>343.22</ele>
  <time>2026-09-01T20:03:23Z</time>
  <course>11.06</course>
  <speed>0.0</speed>
  <fix>3d</fix>
</trkpt>
<trkpt lat="-27.274439" lon="151.290064">
  <ele>343.1</ele>
  <time>2026-09-01T20:03:23Z</time>
  <course>270.0</course>
  <speed>0.0</speed>
  <fix>3d</fix>
</trkpt>
<trkpt lat="-27.274439" lon="151.290064">
  <ele>343.01</ele>
  <time>2026-09-01T20:03:23Z</time>
  <course>11.07</course>
  <speed>0.0</speed>
  <fix>3d</fix>
</trkpt>
<trkpt lat="-27.274439" lon="151.290064">
  <ele>343.1</ele>
  <time>2026-09-01T20:03:23Z</time>
  <course>270.0</course>
  <speed>0.0</speed>
  <fix>3d</fix>
</trkpt>
<trkpt lat="-27.274439" lon="151.290064">
  <ele>343.26</ele>
  <time>2026-09-01T20:03:23Z</time>
  <course>11.07</course>
  <speed>0.0</speed>
  <fix>3d</fix>
</trkpt>
<trkpt lat="-27.274439" lon="151.290064">
  <ele>343.1</ele>
  <time>2026-09-01T20:03:23Z</time>
  <course>270.0</course>
  <speed>0.0</speed>
  <fix>3d</fix>
</trkpt>
<trkpt lat="-27.274439" lon="151.290064">
  <ele>343.28</ele>
  <time>2026-09-01T20:03:23Z</time>
  <course>11.08</course>
  <speed>0.0</speed>
  <fix>3d</fix>
</trkpt>
<trkpt lat="-27.274439" lon="151.290064">
  <ele>343.1</ele>
  <time>2026-09-01T20:03:23Z</time>
  <course>270.0</course>
  <speed>0.0</speed>
  <fix>3d</fix>
</trkpt>
<trkpt lat="-27.274439" lon="151.290064">
  <ele>343.34</ele>
  <time>2026-09-01T20:03:23Z</time>
  <course>11.08</course>
  <speed>0.0</speed>
  <fix>3d</fix>
</trkpt>
<trkpt lat="-27.274439" lon="151.290064">
  <ele>343.1</ele>
  <time>2026-09-01T20:03:23Z</time>
  <course>270.0</course>
  <speed>0.0</speed>
  <fix>3d</fix>
</trkpt>
<trkpt lat="-27.274439" lon="151.290064">
  <ele>343.1</ele>
  <time>2026-09-01T20:03:23Z</time>
  <course>11.09</course>
  <speed>0.0</speed>
  <fix>3d</fix>
</trkpt>
<trkpt lat="-27.274439" lon="151.290064">
  <ele>343.1</ele>
  <time>2026-09-01T20:03:23Z</time>
  <course>270.0</course>
  <speed>0.0</speed>
  <fix>3d</fix>
</trkpt>
<trkpt lat="-27.274439" lon="151.290064">
  <ele>342.96</ele>
  <time>2026-09-01T20:03:23Z</time>
  <course>11.09</course>
  <speed>0.0</speed>
  <fix>3d</fix>
</trkpt>
<trkpt lat="-27.274439" lon="151.290064">
  <ele>343.1</ele>
  <time>2026-09-01T20:03:23Z</time>
  <course>270.0</course>
  <speed>0.0</speed>
  <fix>3d</fix>
</trkpt>
<trkpt lat="-27.274439" lon="151.290064">
  <ele>343.03</ele>
  <time>2026-09-01T20:03:23Z</time>
  <course>11.1</course>
  <speed>0.0</speed>
  <fix>3d</fix>
</trkpt>
<trkpt lat="-27.274439" lon="151.290064">
  <ele>343.1</ele>
  <time>2026-09-01T20:03:23Z</time>
  <course>270.0</course>
  <speed>0.0</speed>
  <fix>3d</fix>
</trkpt>
<trkpt lat="-27.274439" lon="151.290064">
  <ele>343.23</ele>
  <time>2026-09-01T20:03:23Z</time>
  <course>11.1</course>
  <speed>0.0</speed>
  <fix>3d</fix>
</trkpt>
<trkpt lat="-27.274439" lon="151.290064">
  <ele>343.1</ele>
  <time>2026-09-01T20:03:23Z</time>
  <course>270.0</course>
  <speed>0.0</speed>
  <fix>3d</fix>
</trkpt>
<trkpt lat="-27.274439" lon="151.290064">
  <ele>343.14</ele>
  <time>2026-09-01T20:03:23Z</time>
  <course>11.11</course>
  <speed>0.0</speed>
  <fix>3d</fix>
</trkpt>
<trkpt lat="-27.274439" lon="151.290064">
  <ele>343.1</ele>
  <time>2026-09-01T20:03:23Z</time>
  <course>270.0</course>
  <speed>0.0</speed>
  <fix>3d</fix>
</trkpt>
<trkpt lat="-27.274439" lon="151.290064">
  <ele>343.13</ele>
  <time>2026-09-01T20:03:23Z</time>
  <course>11.11</course>
  <speed>0.0</speed>
  <fix>3d</fix>
</trkpt>
<trkpt lat="-27.274439" lon="151.290064">
  <ele>343.1</ele>
  <time>2026-09-01T20:03:23Z</time>
  <course>270.0</course>
  <speed>0.0</speed>
  <fix>3d</fix>
</trkpt>
<trkpt lat="-27.274439" lon="151.290064">
  <ele>343.03</ele>
  <time>2026-09-01T20:03:23Z</time>
  <course>11.11</course>
  <speed>0.0</speed>
  <fix>3d</fix>
</trkpt>
<trkpt lat="-27.274439" lon="151.290064">
  <ele>343.1</ele>
  <time>2026-09-01T20:03:23Z</time>
  <course>270.0</course>
  <speed>0.0</speed>
  <fix>3d</fix>
</trkpt>
<trkpt lat="-27.274439" lon="151.290064">
  <ele>343.15</ele>
  <time>2026-09-01T20:03:23Z</time>
  <course>11.12</course>
  <speed>0.0</speed>
  <fix>3d</fix>
</trkpt>
<trkpt lat="-27.274439" lon="151.290064">
  <ele>343.1</ele>
  <time>2026-09-01T20:03:23Z</time>
  <course>270.0</course>
  <speed>0.0</speed>
  <fix>3d</fix>
</trkpt>
<trkpt lat="-27.274439" lon="151.290064">
  <ele>343.14</ele>
  <time>2026-09-01T20:03:23Z</time>
  <course>11.12</course>
  <speed>0.0</speed>
  <fix>3d</fix>
</trkpt>
<trkpt lat="-27.274439" lon="151.290064">
  <ele>343.1</ele>
  <time>2026-09-01T20:03:23Z</time>
  <course>270.0</course>
  <speed>0.0</speed>
  <fix>3d</fix>
</trkpt>
<trkpt lat="-27.274439" lon="151.290064">
  <ele>343.17</ele>
  <time>2026-09-01T20:03:23Z</time>
  <course>11.13</course>
  <speed>0.0</speed>
  <fix>3d</fix>
</trkpt>
<trkpt lat="-27.274439" lon="151.290064">
  <ele>343.1</ele>
  <time>2026-09-01T20:03:23Z</time>
  <course>270.0</course>
  <speed>0.0</speed>
  <fix>3d</fix>
</trkpt>
<trkpt lat="-27.274439" lon="151.290064">
  <ele>342.95</ele>
  <time>2026-09-01T20:03:23Z</time>
  <course>11.13</course>
  <speed>0.0</speed>
  <fix>3d</fix>
</trkpt>
<trkpt lat="-27.274439" lon="151.290064">
  <ele>343.1</ele>
  <time>2026-09-01T20:03:23Z</time>
  <course>270.0</course>
  <speed>0.0</speed>
  <fix>3d</fix>
</trkpt>
<trkpt lat="-27.274439" lon="151.290064">
  <ele>343.06</ele>
  <time>2026-09-01T20:03:24Z</time>
  <course>11.14</course>
  <speed>0.0</speed>
  <fix>3d</fix>
</trkpt>
<trkpt lat="-27.274439" lon="151.290064">
  <ele>343.1</ele>
  <time>2026-09-01T20:03:24Z</time>
  <course>270.0</course>
  <speed>0.0</speed>
  <fix>3d</fix>
</trkpt>
<trkpt lat="-27.274439" lon="151.290064">
  <ele>343.11</ele>
  <time>2026-09-01T20:03:24Z</time>
  <course>11.14</course>
  <speed>0.0</speed>
  <fix>3d</fix>
</trkpt>
<trkpt lat="-27.274439" lon="151.290064">
  <ele>343.1</ele>
  <time>2026-09-01T20:03:24Z</time>
  <course>270.0</course>
  <speed>0.0</speed>
  <fix>3d</fix>
</trkpt>
<trkpt lat="-27.274439" lon="151.290064">
  <ele>343.3</ele>
  <time>2026-09-01T20:03:24Z</time>
  <course>11.14</course>
  <speed>0.0</speed>
  <fix>3d</fix>
</trkpt>
<trkpt lat="-27.274439" lon="151.290064">
  <ele>343.1</ele>
  <time>2026-09-01T20:03:24Z</time>
  <course>270.0</course>
  <speed>0.0</speed>
  <fix>3d</fix>
</trkpt>
<trkpt lat="-27.274439" lon="151.290064">
  <ele>343.03</ele>
  <time>2026-09-01T20:03:24Z</time>
  <course>11.15</course>
  <speed>0.0</speed>
  <fix>3d</fix>
</trkpt>
<trkpt lat="-27.274439" lon="151.290064">
  <ele>343.1</ele>
  <time>2026-09-01T20:03:24Z</time>
  <course>270.0</course>
  <speed>0.0</speed>
  <fix>3d</fix>
</trkpt>
<trkpt lat="-27.274439" lon="151.290064">
  <ele>343.13</ele>
  <time>2026-09-01T20:03:24Z</time>
  <course>11.15</course>
  <speed>0.0</speed>
  <fix>3d</fix>
</trkpt>
<trkpt lat="-27.274439" lon="151.290064">
  <ele>343.1</ele>
  <time>2026-09-01T20:03:24Z</time>
  <course>270.0</course>
  <speed>0.0</speed>
  <fix>3d</fix>
</trkpt>
<trkpt lat="-27.274439" lon="151.290064">
  <ele>343.02</ele>
  <time>2026-09-01T20:03:24Z</time>
  <course>11.15</course>
  <speed>0.0</speed>
  <fix>3d</fix>
</trkpt>
<trkpt lat="-27.274439" lon="151.290064">
  <ele>343.1</ele>
  <time>2026-09-01T20:03:24Z</time>
  <course>270.0</course>
  <speed>0.0</speed>
  <fix>3d</fix>
</trkpt>
<trkpt lat="-27.274439" lon="151.290064">
  <ele>343.17</ele>
  <time>2026-09-01T20:03:24Z</time>
  <course>11.16</course>
  <speed>0.0</speed>
  <fix>3d</fix>
</trkpt>
<trkpt lat="-27.274439" lon="151.290064">
  <ele>343.1</ele>
  <time>2026-09-01T20:03:24Z</time>
  <course>270.0</course>
  <speed>0.0</speed>
  <fix>3d</fix>
</trkpt>
<trkpt lat="-27.274439" lon="151.290064">
  <ele>343.26</ele>
  <time>2026-09-01T20:03:24Z</time>
  <course>11.16</course>
  <speed>0.0</speed>
  <fix>3d</fix>
</trkpt>
<trkpt lat="-27.274439" lon="151.290064">
  <ele>343.1</ele>
  <time>2026-09-01T20:03:24Z</time>
  <course>270.0</course>
  <speed>0.0</speed>
  <fix>3d</fix>
</trkpt>
<trkpt lat="-27.274439" lon="151.290064">
  <ele>343.29</ele>
  <time>2026-09-01T20:03:24Z</time>
  <course>11.17</course>
  <speed>0.0</speed>
  <fix>3d</fix>
</trkpt>
<trkpt lat="-27.274439" lon="151.290064">
  <ele>343.1</ele>
  <time>2026-09-01T20:03:24Z</time>
  <course>270.0</course>
  <speed>0.0</speed>
  <fix>3d</fix>
</trkpt>
<trkpt lat="-27.274439" lon="151.290064">
  <ele>343.13</ele>
  <time>2026-09-01T20:03:24Z</time>
  <course>11.17</course>
  <speed>0.0</speed>
  <fix>3d</fix>
</trkpt>
<trkpt lat="-27.274439" lon="151.290064">
  <ele>343.1</ele>
  <time>2026-09-01T20:03:24Z</time>
  <course>270.0</course>
  <speed>0.0</speed>
  <fix>3d</fix>
</trkpt>
<trkpt lat="-27.274439" lon="151.290064">
  <ele>343.1</ele>
  <time>2026-09-01T20:03:24Z</time>
  <course>11.17</course>
  <speed>0.0</speed>
  <fix>3d</fix>
</trkpt>
<trkpt lat="-27.274439" lon="151.290064">
  <ele>343.1</ele>
  <time>2026-09-01T20:03:24Z</time>
  <course>270.0</course>
  <speed>0.0</speed>
  <fix>3d</fix>
</trkpt>
<trkpt lat="-27.274439" lon="151.290064">
  <ele>343.2</ele>
  <time>2026-09-01T20:03:24Z</time>
  <course>11.18</course>
  <speed>0.0</speed>
  <fix>3d</fix>
</trkpt>
<trkpt lat="-27.274439" lon="151.290064">
  <ele>343.1</ele>
  <time>2026-09-01T20:03:24Z</time>
  <course>270.0</course>
  <speed>0.0</speed>
  <fix>3d</fix>
</trkpt>
<trkpt lat="-27.274439" lon="151.290064">
  <ele>343.09</ele>
  <time>2026-09-01T20:03:24Z</time>
  <course>11.18</course>
  <speed>0.0</speed>
  <fix>3d</fix>
</trkpt>
<trkpt lat="-27.274439" lon="151.290064">
  <ele>343.1</ele>
  <time>2026-09-01T20:03:24Z</time>
  <course>270.0</course>
  <speed>0.0</speed>
  <fix>3d</fix>
</trkpt>
<trkpt lat="-27.274439" lon="151.290064">
  <ele>343.11</ele>
  <time>2026-09-01T20:03:24Z</time>
  <course>11.18</course>
  <speed>0.0</speed>
  <fix>3d</fix>
</trkpt>
<trkpt lat="-27.274439" lon="151.290064">
  <ele>343.1</ele>
  <time>2026-09-01T20:03:24Z</time>
  <course>270.0</course>
  <speed>0.0</speed>
  <fix>3d</fix>
</trkpt>
<trkpt lat="-27.274439" lon="151.290064">
  <ele>343.21</ele>
  <time>2026-09-01T20:03:24Z</time>
  <course>11.19</course>
  <speed>0.0</speed>
  <fix>3d</fix>
</trkpt>
<trkpt lat="-27.274439" lon="151.290064">
  <ele>343.1</ele>
  <time>2026-09-01T20:03:24Z</time>
  <course>270.0</course>
  <speed>0.0</speed>
  <fix>3d</fix>
</trkpt>
<trkpt lat="-27.274439" lon="151.290064">
  <ele>343.22</ele>
  <time>2026-09-01T20:03:24Z</time>
  <course>11.19</course>
  <speed>0.0</speed>
  <fix>3d</fix>
</trkpt>
<trkpt lat="-27.274439" lon="151.290064">
  <ele>343.1</ele>
  <time>2026-09-01T20:03:24Z</time>
  <course>270.0</course>
  <speed>0.0</speed>
  <fix>3d</fix>
</trkpt>
<trkpt lat="-27.274439" lon="151.290064">
  <ele>342.98</ele>
  <time>2026-09-01T20:03:24Z</time>
  <course>11.19</course>
  <speed>0.0</speed>
  <fix>3d</fix>
</trkpt>
<trkpt lat="-27.274439" lon="151.290064">
  <ele>343.1</ele>
  <time>2026-09-01T20:03:24Z</time>
  <course>270.0</course>
  <speed>0.0</speed>
  <fix>3d</fix>
</trkpt>
<trkpt lat="-27.274439" lon="151.290064">
  <ele>343.15</ele>
  <time>2026-09-01T20:03:24Z</time>
  <course>11.2</course>
  <speed>0.0</speed>
  <fix>3d</fix>
</trkpt>
<trkpt lat="-27.274439" lon="151.290064">
  <ele>343.1</ele>
  <time>2026-09-01T20:03:24Z</time>
  <course>270.0</course>
  <speed>0.0</speed>
  <fix>3d</fix>
</trkpt>
<trkpt lat="-27.274439" lon="151.290064">
  <ele>343.28</ele>
  <time>2026-09-01T20:03:24Z</time>
  <course>11.2</course>
  <speed>0.0</speed>
  <fix>3d</fix>
</trkpt>
<trkpt lat="-27.274439" lon="151.290064">
  <ele>343.1</ele>
  <time>2026-09-01T20:03:24Z</time>
  <course>270.0</course>
  <speed>0.0</speed>
  <fix>3d</fix>
</trkpt>
<trkpt lat="-27.274439" lon="151.290064">
  <ele>343.3</ele>
  <time>2026-09-01T20:03:24Z</time>
  <course>11.2</course>
  <speed>0.0</speed>
  <fix>3d</fix>
</trkpt>
<trkpt lat="-27.274439" lon="151.290064">
  <ele>343.1</ele>
  <time>2026-09-01T20:03:24Z</time>
  <course>270.0</course>
  <speed>0.0</speed>
  <fix>3d</fix>
</trkpt>
<trkpt lat="-27.274439" lon="151.290064">
  <ele>343.33</ele>
  <time>2026-09-01T20:03:24Z</time>
  <course>11.2</course>
  <speed>0.0</speed>
  <fix>3d</fix>
</trkpt>
<trkpt lat="-27.274439" lon="151.290064">
  <ele>343.1</ele>
  <time>2026-09-01T20:03:24Z</time>
  <course>270.0</course>
  <speed>0.0</speed>
  <fix>3d</fix>
</trkpt>
<trkpt lat="-27.274439" lon="151.290064">
  <ele>342.96</ele>
  <time>2026-09-01T20:03:24Z</time>
  <course>11.2</course>
  <speed>0.0</speed>
  <fix>3d</fix>
</trkpt>
<trkpt lat="-27.274439" lon="151.290064">
  <ele>343.1</ele>
  <time>2026-09-01T20:03:24Z</time>
  <course>270.0</course>
  <speed>0.0</speed>
  <fix>3d</fix>
</trkpt>
<trkpt lat="-27.274439" lon="151.290064">
  <ele>342.97</ele>
  <time>2026-09-01T20:03:24Z</time>
  <course>11.2</course>
  <speed>0.0</speed>
  <fix>3d</fix>
</trkpt>
<trkpt lat="-27.274439" lon="151.290064">
  <ele>343.1</ele>
  <time>2026-09-01T20:03:24Z</time>
  <course>270.0</course>
  <speed>0.0</speed>
  <fix>3d</fix>
</trkpt>
<trkpt lat="-27.274439" lon="151.290064">
  <ele>342.83</ele>
  <time>2026-09-01T20:03:24Z</time>
  <course>11.2</course>
  <speed>0.0</speed>
  <fix>3d</fix>
</trkpt>
<trkpt lat="-27.274439" lon="151.290064">
  <ele>343.1</ele>
  <time>2026-09-01T20:03:24Z</time>
  <course>270.0</course>
  <speed>0.0</speed>
  <fix>3d</fix>
</trkpt>
<trkpt lat="-27.274439" lon="151.290064">
  <ele>342.84</ele>
  <time>2026-09-01T20:03:24Z</time>
  <course>11.2</course>
  <speed>0.0</speed>
  <fix>3d</fix>
</trkpt>
<trkpt lat="-27.274439" lon="151.290064">
  <ele>343.1</ele>
  <time>2026-09-01T20:03:24Z</time>
  <course>270.0</course>
  <speed>0.0</speed>
  <fix>3d</fix>
</trkpt>
<trkpt lat="-27.274439" lon="151.290064">
  <ele>342.75</ele>
  <time>2026-09-01T20:03:24Z</time>
  <course>11.21</course>
  <speed>0.0</speed>
  <fix>3d</fix>
</trkpt>
<trkpt lat="-27.274439" lon="151.290064">
  <ele>343.1</ele>
  <time>2026-09-01T20:03:24Z</time>
  <course>270.0</course>
  <speed>0.0</speed>
  <fix>3d</fix>
</trkpt>
<trkpt lat="-27.274439" lon="151.290064">
  <ele>343.03</ele>
  <time>2026-09-01T20:03:24Z</time>
  <course>11.21</course>
  <speed>0.0</speed>
  <fix>3d</fix>
</trkpt>
<trkpt lat="-27.274439" lon="151.290064">
  <ele>343.1</ele>
  <time>2026-09-01T20:03:24Z</time>
  <course>270.0</course>
  <speed>0.0</speed>
  <fix>3d</fix>
</trkpt>
<trkpt lat="-27.274439" lon="151.290064">
  <ele>342.8</ele>
  <time>2026-09-01T20:03:24Z</time>
  <course>11.21</course>
  <speed>0.0</speed>
  <fix>3d</fix>
</trkpt>
<trkpt lat="-27.274439" lon="151.290064">
  <ele>343.1</ele>
  <time>2026-09-01T20:03:24Z</time>
  <course>270.0</course>
  <speed>0.0</speed>
  <fix>3d</fix>
</trkpt>
<trkpt lat="-27.274439" lon="151.290064">
  <ele>343.05</ele>
  <time>2026-09-01T20:03:24Z</time>
  <course>11.21</course>
  <speed>0.0</speed>
  <fix>3d</fix>
</trkpt>
<trkpt lat="-27.274439" lon="151.290064">
  <ele>343.1</ele>
  <time>2026-09-01T20:03:24Z</time>
  <course>270.0</course>
  <speed>0.0</speed>
  <fix>3d</fix>
</trkpt>
<trkpt lat="-27.274439" lon="151.290064">
  <ele>343.03</ele>
  <time>2026-09-01T20:03:24Z</time>
  <course>11.21</course>
  <speed>0.0</speed>
  <fix>3d</fix>
</trkpt>
<trkpt lat="-27.274439" lon="151.290064">
  <ele>343.1</ele>
  <time>2026-09-01T20:03:24Z</time>
  <course>270.0</course>
  <speed>0.0</speed>
  <fix>3d</fix>
</trkpt>
<trkpt lat="-27.274439" lon="151.290064">
  <ele>342.88</ele>
  <time>2026-09-01T20:03:24Z</time>
  <course>11.21</course>
  <speed>0.0</speed>
  <fix>3d</fix>
</trkpt>
<trkpt lat="-27.274439" lon="151.290064">
  <ele>343.1</ele>
  <time>2026-09-01T20:03:24Z</time>
  <course>270.0</course>
  <speed>0.0</speed>
  <fix>3d</fix>
</trkpt>
<trkpt lat="-27.274439" lon="151.290064">
  <ele>342.83</ele>
  <time>2026-09-01T20:03:24Z</time>
  <course>11.21</course>
  <speed>0.0</speed>
  <fix>3d</fix>
</trkpt>
<trkpt lat="-27.274439" lon="151.290064">
  <ele>343.1</ele>
  <time>2026-09-01T20:03:24Z</time>
  <course>270.0</course>
  <speed>0.0</speed>
  <fix>3d</fix>
</trkpt>
<trkpt lat="-27.274439" lon="151.290064">
  <ele>342.87</ele>
  <time>2026-09-01T20:03:24Z</time>
  <course>11.21</course>
  <speed>0.0</speed>
  <fix>3d</fix>
</trkpt>
<trkpt lat="-27.274439" lon="151.290064">
  <ele>343.1</ele>
  <time>2026-09-01T20:03:24Z</time>
  <course>270.0</course>
  <speed>0.0</speed>
  <fix>3d</fix>
</trkpt>
<trkpt lat="-27.274439" lon="151.290064">
  <ele>342.78</ele>
  <time>2026-09-01T20:03:24Z</time>
  <course>11.21</course>
  <speed>0.0</speed>
  <fix>3d</fix>
</trkpt>
<trkpt lat="-27.274439" lon="151.290064">
  <ele>343.1</ele>
  <time>2026-09-01T20:03:24Z</time>
  <course>270.0</course>
  <speed>0.0</speed>
  <fix>3d</fix>
</trkpt>
<trkpt lat="-27.274439" lon="151.290064">
  <ele>342.8</ele>
  <time>2026-09-01T20:03:24Z</time>
  <course>11.21</course>
  <speed>0.0</speed>
  <fix>3d</fix>
</trkpt>
<trkpt lat="-27.274439" lon="151.290064">
  <ele>343.1</ele>
  <time>2026-09-01T20:03:24Z</time>
  <course>270.0</course>
  <speed>0.0</speed>
  <fix>3d</fix>
</trkpt>
<trkpt lat="-27.274439" lon="151.290064">
  <ele>342.9</ele>
  <time>2026-09-01T20:03:24Z</time>
  <course>11.21</course>
  <speed>0.0</speed>
  <fix>3d</fix>
</trkpt>
<trkpt lat="-27.274439" lon="151.290064">
  <ele>343.1</ele>
  <time>2026-09-01T20:03:24Z</time>
  <course>270.0</course>
  <speed>0.0</speed>
  <fix>3d</fix>
</trkpt>
<trkpt lat="-27.274439" lon="151.290064">
  <ele>342.82</ele>
  <time>2026-09-01T20:03:24Z</time>
  <course>11.22</course>
  <speed>0.0</speed>
  <fix>3d</fix>
</trkpt>
<trkpt lat="-27.274439" lon="151.290064">
  <ele>343.1</ele>
  <time>2026-09-01T20:03:24Z</time>
  <course>270.0</course>
  <speed>0.0</speed>
  <fix>3d</fix>
</trkpt>
<trkpt lat="-27.274439" lon="151.290064">
  <ele>342.8</ele>
  <time>2026-09-01T20:03:24Z</time>
  <course>11.22</course>
  <speed>0.0</speed>
  <fix>3d</fix>
</trkpt>
<trkpt lat="-27.274439" lon="151.290064">
  <ele>343.1</ele>
  <time>2026-09-01T20:03:24Z</time>
  <course>270.0</course>
  <speed>0.0</speed>
  <fix>3d</fix>
</trkpt>
<trkpt lat="-27.274439" lon="151.290064">
  <ele>342.8</ele>
  <time>2026-09-01T20:03:24Z</time>
  <course>11.22</course>
  <speed>0.0</speed>
  <fix>3d</fix>
</trkpt>
<trkpt lat="-27.274439" lon="151.290064">
  <ele>343.1</ele>
  <time>2026-09-01T20:03:24Z</time>
  <course>270.0</course>
  <speed>0.0</speed>
  <fix>3d</fix>
</trkpt>
<trkpt lat="-27.274439" lon="151.290064">
  <ele>342.83</ele>
  <time>2026-09-01T20:03:24Z</time>
  <course>11.22</course>
  <speed>0.0</speed>
  <fix>3d</fix>
</trkpt>
<trkpt lat="-27.274439" lon="151.290064">
  <ele>343.1</ele>
  <time>2026-09-01T20:03:24Z</time>
  <course>270.0</course>
  <speed>0.0</speed>
  <fix>3d</fix>
</trkpt>
<trkpt lat="-27.274439" lon="151.290064">
  <ele>343.04</ele>
  <time>2026-09-01T20:03:24Z</time>
  <course>11.22</course>
  <speed>0.0</speed>
  <fix>3d</fix>
</trkpt>
<trkpt lat="-27.274439" lon="151.290064">
  <ele>343.1</ele>
  <time>2026-09-01T20:03:24Z</time>
  <course>270.0</course>
  <speed>0.0</speed>
  <fix>3d</fix>
</trkpt>
<trkpt lat="-27.274439" lon="151.290064">
  <ele>342.99</ele>
  <time>2026-09-01T20:03:24Z</time>
  <course>11.22</course>
  <speed>0.0</speed>
  <fix>3d</fix>
</trkpt>
<trkpt lat="-27.274439" lon="151.290064">
  <ele>343.1</ele>
  <time>2026-09-01T20:03:24Z</time>
  <course>270.0</course>
  <speed>0.0</speed>
  <fix>3d</fix>
</trkpt>
<trkpt lat="-27.274439" lon="151.290064">
  <ele>342.99</ele>
  <time>2026-09-01T20:03:24Z</time>
  <course>11.22</course>
  <speed>0.0</speed>
  <fix>3d</fix>
</trkpt>
<trkpt lat="-27.274439" lon="151.290064">
  <ele>343.1</ele>
  <time>2026-09-01T20:03:24Z</time>
  <course>270.0</course>
  <speed>0.0</speed>
  <fix>3d</fix>
</trkpt>
<trkpt lat="-27.274439" lon="151.290064">
  <ele>342.95</ele>
  <time>2026-09-01T20:03:24Z</time>
  <course>11.22</course>
  <speed>0.0</speed>
  <fix>3d</fix>
</trkpt>
<trkpt lat="-27.274439" lon="151.290064">
  <ele>343.1</ele>
  <time>2026-09-01T20:03:24Z</time>
  <course>270.0</course>
  <speed>0.0</speed>
  <fix>3d</fix>
</trkpt>
<trkpt lat="-27.274439" lon="151.290064">
  <ele>343.0</ele>
  <time>2026-09-01T20:03:24Z</time>
  <course>11.22</course>
  <speed>0.0</speed>
  <fix>3d</fix>
</trkpt>
<trkpt lat="-27.274439" lon="151.290064">
  <ele>343.1</ele>
  <time>2026-09-01T20:03:24Z</time>
  <course>270.0</course>
  <speed>0.0</speed>
  <fix>3d</fix>
</trkpt>
<trkpt lat="-27.274439" lon="151.290064">
  <ele>343.01</ele>
  <time>2026-09-01T20:03:24Z</time>
  <course>11.22</course>
  <speed>0.0</speed>
  <fix>3d</fix>
</trkpt>
<trkpt lat="-27.274439" lon="151.290064">
  <ele>343.1</ele>
  <time>2026-09-01T20:03:24Z</time>
  <course>270.0</course>
  <speed>0.0</speed>
  <fix>3d</fix>
</trkpt>
<trkpt lat="-27.274439" lon="151.290064">
  <ele>342.8</ele>
  <time>2026-09-01T20:03:24Z</time>
  <course>11.22</course>
  <speed>0.0</speed>
  <fix>3d</fix>
</trkpt>
<trkpt lat="-27.274439" lon="151.290064">
  <ele>343.1</ele>
  <time>2026-09-01T20:03:24Z</time>
  <course>270.0</course>
  <speed>0.0</speed>
  <fix>3d</fix>
</trkpt>
<trkpt lat="-27.274439" lon="151.290064">
  <ele>342.93</ele>
  <time>2026-09-01T20:03:24Z</time>
  <course>11.23</course>
  <speed>0.0</speed>
  <fix>3d</fix>
</trkpt>
<trkpt lat="-27.274439" lon="151.290064">
  <ele>343.1</ele>
  <time>2026-09-01T20:03:24Z</time>
  <course>270.0</course>
  <speed>0.0</speed>
  <fix>3d</fix>
</trkpt>
<trkpt lat="-27.274439" lon="151.290064">
  <ele>342.7</ele>
  <time>2026-09-01T20:03:24Z</time>
  <course>11.23</course>
  <speed>0.0</speed>
  <fix>3d</fix>
</trkpt>
<trkpt lat="-27.274439" lon="151.290064">
  <ele>343.1</ele>
  <time>2026-09-01T20:03:24Z</time>
  <course>270.0</course>
  <speed>0.0</speed>
  <fix>3d</fix>
</trkpt>
<trkpt lat="-27.274439" lon="151.290064">
  <ele>342.98</ele>
  <time>2026-09-01T20:03:24Z</time>
  <course>11.23</course>
  <speed>0.0</speed>
  <fix>3d</fix>
</trkpt>
<trkpt lat="-27.274439" lon="151.290064">
  <ele>343.1</ele>
  <time>2026-09-01T20:03:24Z</time>
  <course>270.0</course>
  <speed>0.0</speed>
  <fix>3d</fix>
</trkpt>
<trkpt lat="-27.274439" lon="151.290064">
  <ele>342.89</ele>
  <time>2026-09-01T20:03:24Z</time>
  <course>11.23</course>
  <speed>0.0</speed>
  <fix>3d</fix>
</trkpt>
<trkpt lat="-27.274439" lon="151.290064">
  <ele>343.1</ele>
  <time>2026-09-01T20:03:24Z</time>
  <course>270.0</course>
  <speed>0.0</speed>
  <fix>3d</fix>
</trkpt>
<trkpt lat="-27.274439" lon="151.290064">
  <ele>342.96</ele>
  <time>2026-09-01T20:03:24Z</time>
  <course>11.23</course>
  <speed>0.0</speed>
  <fix>3d</fix>
</trkpt>
<trkpt lat="-27.274439" lon="151.290064">
  <ele>343.1</ele>
  <time>2026-09-01T20:03:24Z</time>
  <course>270.0</course>
  <speed>0.0</speed>
  <fix>3d</fix>
</trkpt>
<trkpt lat="-27.274439" lon="151.290064">
  <ele>342.7</ele>
  <time>2026-09-01T20:03:24Z</time>
  <course>11.23</course>
  <speed>0.0</speed>
  <fix>3d</fix>
</trkpt>
<trkpt lat="-27.274439" lon="151.290064">
  <ele>343.1</ele>
  <time>2026-09-01T20:03:24Z</time>
  <course>270.0</course>
  <speed>0.0</speed>
  <fix>3d</fix>
</trkpt>
<trkpt lat="-27.274439" lon="151.290064">
  <ele>342.96</ele>
  <time>2026-09-01T20:03:24Z</time>
  <course>11.23</course>
  <speed>0.0</speed>
  <fix>3d</fix>
</trkpt>
<trkpt lat="-27.274439" lon="151.290064">
  <ele>343.1</ele>
  <time>2026-09-01T20:03:24Z</time>
  <course>270.0</course>
  <speed>0.0</speed>
  <fix>3d</fix>
</trkpt>
<trkpt lat="-27.274439" lon="151.290064">
  <ele>343.0</ele>
  <time>2026-09-01T20:03:24Z</time>
  <course>11.23</course>
  <speed>0.0</speed>
  <fix>3d</fix>
</trkpt>
<trkpt lat="-27.274439" lon="151.290064">
  <ele>343.1</ele>
  <time>2026-09-01T20:03:24Z</time>
  <course>270.0</course>
  <speed>0.0</speed>
  <fix>3d</fix>
</trkpt>
<trkpt lat="-27.274439" lon="151.290064">
  <ele>342.98</ele>
  <time>2026-09-01T20:03:24Z</time>
  <course>11.23</course>
  <speed>0.0</speed>
  <fix>3d</fix>
</trkpt>
<trkpt lat="-27.274439" lon="151.290064">
  <ele>343.1</ele>
  <time>2026-09-01T20:03:24Z</time>
  <course>270.0</course>
  <speed>0.0</speed>
  <fix>3d</fix>
</trkpt>
<trkpt lat="-27.274439" lon="151.290064">
  <ele>343.08</ele>
  <time>2026-09-01T20:03:24Z</time>
  <course>11.23</course>
  <speed>0.0</speed>
  <fix>3d</fix>
</trkpt>
<trkpt lat="-27.274439" lon="151.290064">
  <ele>343.1</ele>
  <time>2026-09-01T20:03:24Z</time>
  <course>270.0</course>
  <speed>0.0</speed>
  <fix>3d</fix>
</trkpt>
<trkpt lat="-27.274439" lon="151.290064">
  <ele>342.82</ele>
  <time>2026-09-01T20:03:24Z</time>
  <course>11.23</course>
  <speed>0.0</speed>
  <fix>3d</fix>
</trkpt>
<trkpt lat="-27.274439" lon="151.290064">
  <ele>343.1</ele>
  <time>2026-09-01T20:03:24Z</time>
  <course>270.0</course>
  <speed>0.0</speed>
  <fix>3d</fix>
</trkpt>
<trkpt lat="-27.274439" lon="151.290064">
  <ele>342.78</ele>
  <time>2026-09-01T20:03:24Z</time>
  <course>11.23</course>
  <speed>0.0</speed>
  <fix>3d</fix>
</trkpt>
<trkpt lat="-27.274439" lon="151.290064">
  <ele>343.1</ele>
  <time>2026-09-01T20:03:24Z</time>
  <course>270.0</course>
  <speed>0.0</speed>
  <fix>3d</fix>
</trkpt>
<trkpt lat="-27.274439" lon="151.290064">
  <ele>342.98</ele>
  <time>2026-09-01T20:03:24Z</time>
  <course>11.23</course>
  <speed>0.0</speed>
  <fix>3d</fix>
</trkpt>
<trkpt lat="-27.274439" lon="151.290064">
  <ele>343.1</ele>
  <time>2026-09-01T20:03:24Z</time>
  <course>270.0</course>
  <speed>0.0</speed>
  <fix>3d</fix>
</trkpt>
<trkpt lat="-27.274439" lon="151.290064">
  <ele>342.9</ele>
  <time>2026-09-01T20:03:24Z</time>
  <course>11.24</course>
  <speed>0.0</speed>
  <fix>3d</fix>
</trkpt>
<trkpt lat="-27.274439" lon="151.290064">
  <ele>343.1</ele>
  <time>2026-09-01T20:03:24Z</time>
  <course>270.0</course>
  <speed>0.0</speed>
  <fix>3d</fix>
</trkpt>
<trkpt lat="-27.274439" lon="151.290064">
  <ele>343.0</ele>
  <time>2026-09-01T20:03:24Z</time>
  <course>11.24</course>
  <speed>0.0</speed>
  <fix>3d</fix>
</trkpt>
<trkpt lat="-27.274439" lon="151.290064">
  <ele>343.1</ele>
  <time>2026-09-01T20:03:24Z</time>
  <course>270.0</course>
  <speed>0.0</speed>
  <fix>3d</fix>
</trkpt>
<trkpt lat="-27.274439" lon="151.290064">
  <ele>342.9</ele>
  <time>2026-09-01T20:03:24Z</time>
  <course>11.24</course>
  <speed>0.0</speed>
  <fix>3d</fix>
</trkpt>
<trkpt lat="-27.274439" lon="151.290064">
  <ele>343.1</ele>
  <time>2026-09-01T20:03:24Z</time>
  <course>270.0</course>
  <speed>0.0</speed>
  <fix>3d</fix>
</trkpt>
<trkpt lat="-27.274439" lon="151.290064">
  <ele>342.91</ele>
  <time>2026-09-01T20:03:24Z</time>
  <course>11.24</course>
  <speed>0.0</speed>
  <fix>3d</fix>
</trkpt>
<trkpt lat="-27.274439" lon="151.290064">
  <ele>343.1</ele>
  <time>2026-09-01T20:03:24Z</time>
  <course>270.0</course>
  <speed>0.0</speed>
  <fix>3d</fix>
</trkpt>
<trkpt lat="-27.274439" lon="151.290064">
  <ele>342.83</ele>
  <time>2026-09-01T20:03:24Z</time>
  <course>11.24</course>
  <speed>0.0</speed>
  <fix>3d</fix>
</trkpt>
<trkpt lat="-27.274439" lon="151.290064">
  <ele>343.1</ele>
  <time>2026-09-01T20:03:24Z</time>
  <course>270.0</course>
  <speed>0.0</speed>
  <fix>3d</fix>
</trkpt>
<trkpt lat="-27.274439" lon="151.290064">
  <ele>342.74</ele>
  <time>2026-09-01T20:03:24Z</time>
  <course>11.24</course>
  <speed>0.0</speed>
  <fix>3d</fix>
</trkpt>
<trkpt lat="-27.274439" lon="151.290064">
  <ele>343.1</ele>
  <time>2026-09-01T20:03:24Z</time>
  <course>270.0</course>
  <speed>0.0</speed>
  <fix>3d</fix>
</trkpt>
<trkpt lat="-27.274439" lon="151.290064">
  <ele>342.89</ele>
  <time>2026-09-01T20:03:24Z</time>
  <course>11.24</course>
  <speed>0.0</speed>
  <fix>3d</fix>
</trkpt>
<trkpt lat="-27.274439" lon="151.290064">
  <ele>343.1</ele>
  <time>2026-09-01T20:03:24Z</time>
  <course>270.0</course>
  <speed>0.0</speed>
  <fix>3d</fix>
</trkpt>
<trkpt lat="-27.274439" lon="151.290064">
  <ele>342.87</ele>
  <time>2026-09-01T20:03:24Z</time>
  <course>11.24</course>
  <speed>0.0</speed>
  <fix>3d</fix>
</trkpt>
<trkpt lat="-27.274439" lon="151.290064">
  <ele>343.1</ele>
  <time>2026-09-01T20:03:24Z</time>
  <course>270.0</course>
  <speed>0.0</speed>
  <fix>3d</fix>
</trkpt>
<trkpt lat="-27.274439" lon="151.290064">
  <ele>342.92</ele>
  <time>2026-09-01T20:03:24Z</time>
  <course>11.24</course>
  <speed>0.0</speed>
  <fix>3d</fix>
</trkpt>
<trkpt lat="-27.274439" lon="151.290064">
  <ele>343.1</ele>
  <time>2026-09-01T20:03:24Z</time>
  <course>270.0</course>
  <speed>0.0</speed>
  <fix>3d</fix>
</trkpt>
<trkpt lat="-27.274439" lon="151.290064">
  <ele>343.01</ele>
  <time>2026-09-01T20:03:24Z</time>
  <course>11.24</course>
  <speed>0.0</speed>
  <fix>3d</fix>
</trkpt>
<trkpt lat="-27.274439" lon="151.290064">
  <ele>343.1</ele>
  <time>2026-09-01T20:03:24Z</time>
  <course>270.0</course>
  <speed>0.0</speed>
  <fix>3d</fix>
</trkpt>
<trkpt lat="-27.274439" lon="151.290064">
  <ele>342.9</ele>
  <time>2026-09-01T20:03:24Z</time>
  <course>11.24</course>
  <speed>0.0</speed>
  <fix>3d</fix>
</trkpt>
<trkpt lat="-27.274439" lon="151.290064">
  <ele>343.1</ele>
  <time>2026-09-01T20:03:24Z</time>
  <course>270.0</course>
  <speed>0.0</speed>
  <fix>3d</fix>
</trkpt>
<trkpt lat="-27.274439" lon="151.290064">
  <ele>342.71</ele>
  <time>2026-09-01T20:03:24Z</time>
  <course>11.24</course>
  <speed>0.0</speed>
  <fix>3d</fix>
</trkpt>
<trkpt lat="-27.274439" lon="151.290064">
  <ele>343.1</ele>
  <time>2026-09-01T20:03:24Z</time>
  <course>270.0</course>
  <speed>0.0</speed>
  <fix>3d</fix>
</trkpt>
<trkpt lat="-27.274439" lon="151.290064">
  <ele>343.05</ele>
  <time>2026-09-01T20:03:24Z</time>
  <course>11.24</course>
  <speed>0.0</speed>
  <fix>3d</fix>
</trkpt>
<trkpt lat="-27.274439" lon="151.290064">
  <ele>343.1</ele>
  <time>2026-09-01T20:03:24Z</time>
  <course>270.0</course>
  <speed>0.0</speed>
  <fix>3d</fix>
</trkpt>
<trkpt lat="-27.274439" lon="151.290064">
  <ele>343.0</ele>
  <time>2026-09-01T20:03:24Z</time>
  <course>11.23</course>
  <speed>0.0</speed>
  <fix>3d</fix>
</trkpt>
<trkpt lat="-27.274439" lon="151.290064">
  <ele>343.1</ele>
  <time>2026-09-01T20:03:24Z</time>
  <course>270.0</course>
  <speed>0.0</speed>
  <fix>3d</fix>
</trkpt>
<trkpt lat="-27.274439" lon="151.290064">
  <ele>342.8</ele>
  <time>2026-09-01T20:03:24Z</time>
  <course>11.23</course>
  <speed>0.0</speed>
  <fix>3d</fix>
</trkpt>
<trkpt lat="-27.274439" lon="151.290064">
  <ele>343.1</ele>
  <time>2026-09-01T20:03:24Z</time>
  <course>270.0</course>
  <speed>0.0</speed>
  <fix>3d</fix>
</trkpt>
<trkpt lat="-27.274439" lon="151.290064">
  <ele>342.85</ele>
  <time>2026-09-01T20:03:24Z</time>
  <course>11.23</course>
  <speed>0.0</speed>
  <fix>3d</fix>
</trkpt>
<trkpt lat="-27.274439" lon="151.290064">
  <ele>343.1</ele>
  <time>2026-09-01T20:03:24Z</time>
  <course>270.0</course>
  <speed>0.0</speed>
  <fix>3d</fix>
</trkpt>
<trkpt lat="-27.274439" lon="151.290064">
  <ele>342.96</ele>
  <time>2026-09-01T20:03:24Z</time>
  <course>11.23</course>
  <speed>0.0</speed>
  <fix>3d</fix>
</trkpt>
<trkpt lat="-27.274439" lon="151.290064">
  <ele>343.1</ele>
  <time>2026-09-01T20:03:24Z</time>
  <course>270.0</course>
  <speed>0.0</speed>
  <fix>3d</fix>
</trkpt>
<trkpt lat="-27.274439" lon="151.290064">
  <ele>342.82</ele>
  <time>2026-09-01T20:03:24Z</time>
  <course>11.22</course>
  <speed>0.0</speed>
  <fix>3d</fix>
</trkpt>
<trkpt lat="-27.274439" lon="151.290064">
  <ele>343.1</ele>
  <time>2026-09-01T20:03:24Z</time>
  <course>270.0</course>
  <speed>0.0</speed>
  <fix>3d</fix>
</trkpt>
<trkpt lat="-27.274439" lon="151.290064">
  <ele>342.75</ele>
  <time>2026-09-01T20:03:24Z</time>
  <course>11.22</course>
  <speed>0.0</speed>
  <fix>3d</fix>
</trkpt>
<trkpt lat="-27.274439" lon="151.290064">
  <ele>343.1</ele>
  <time>2026-09-01T20:03:24Z</time>
  <course>270.0</course>
  <speed>0.0</speed>
  <fix>3d</fix>
</trkpt>
<trkpt lat="-27.274439" lon="151.290064">
  <ele>343.08</ele>
  <time>2026-09-01T20:03:24Z</time>
  <course>11.22</course>
  <speed>0.0</speed>
  <fix>3d</fix>
</trkpt>
<trkpt lat="-27.274439" lon="151.290064">
  <ele>343.1</ele>
  <time>2026-09-01T20:03:24Z</time>
  <course>270.0</course>
  <speed>0.0</speed>
  <fix>3d</fix>
</trkpt>
<trkpt lat="-27.274439" lon="151.290064">
  <ele>343.03</ele>
  <time>2026-09-01T20:03:24Z</time>
  <course>11.22</course>
  <speed>0.0</speed>
  <fix>3d</fix>
</trkpt>
<trkpt lat="-27.274439" lon="151.290064">
  <ele>343.1</ele>
  <time>2026-09-01T20:03:24Z</time>
  <course>270.0</course>
  <speed>0.0</speed>
  <fix>3d</fix>
</trkpt>
<trkpt lat="-27.274439" lon="151.290064">
  <ele>342.94</ele>
  <time>2026-09-01T20:03:24Z</time>
  <course>11.22</course>
  <speed>0.0</speed>
  <fix>3d</fix>
</trkpt>
<trkpt lat="-27.274439" lon="151.290064">
  <ele>343.1</ele>
  <time>2026-09-01T20:03:24Z</time>
  <course>270.0</course>
  <speed>0.0</speed>
  <fix>3d</fix>
</trkpt>
<trkpt lat="-27.274439" lon="151.290064">
  <ele>342.93</ele>
  <time>2026-09-01T20:03:24Z</time>
  <course>11.21</course>
  <speed>0.0</speed>
  <fix>3d</fix>
</trkpt>
<trkpt lat="-27.274439" lon="151.290064">
  <ele>343.1</ele>
  <time>2026-09-01T20:03:24Z</time>
  <course>270.0</course>
  <speed>0.0</speed>
  <fix>3d</fix>
</trkpt>
<trkpt lat="-27.274439" lon="151.290064">
  <ele>343.08</ele>
  <time>2026-09-01T20:03:24Z</time>
  <course>11.21</course>
  <speed>0.0</speed>
  <fix>3d</fix>
</trkpt>
<trkpt lat="-27.274439" lon="151.290064">
  <ele>343.1</ele>
  <time>2026-09-01T20:03:24Z</time>
  <course>270.0</course>
  <speed>0.0</speed>
  <fix>3d</fix>
</trkpt>
<trkpt lat="-27.274439" lon="151.290064">
  <ele>342.85</ele>
  <time>2026-09-01T20:03:24Z</time>
  <course>11.21</course>
  <speed>0.0</speed>
  <fix>3d</fix>
</trkpt>
<trkpt lat="-27.274439" lon="151.290064">
  <ele>343.1</ele>
  <time>2026-09-01T20:03:24Z</time>
  <course>270.0</course>
  <speed>0.0</speed>
  <fix>3d</fix>
</trkpt>
<trkpt lat="-27.274439" lon="151.290064">
  <ele>342.86</ele>
  <time>2026-09-01T20:03:24Z</time>
  <course>11.21</course>
  <speed>0.0</speed>
  <fix>3d</fix>
</trkpt>
<trkpt lat="-27.274439" lon="151.290064">
  <ele>343.1</ele>
  <time>2026-09-01T20:03:24Z</time>
  <course>270.0</course>
  <speed>0.0</speed>
  <fix>3d</fix>
</trkpt>
<trkpt lat="-27.274439" lon="151.290064">
  <ele>342.83</ele>
  <time>2026-09-01T20:03:24Z</time>
  <course>11.21</course>
  <speed>0.0</speed>
  <fix>3d</fix>
</trkpt>
<trkpt lat="-27.274439" lon="151.290064">
  <ele>343.1</ele>
  <time>2026-09-01T20:03:24Z</time>
  <course>270.0</course>
  <speed>0.0</speed>
  <fix>3d</fix>
</trkpt>
<trkpt lat="-27.274439" lon="151.290064">
  <ele>343.14</ele>
  <time>2026-09-01T20:03:24Z</time>
  <course>11.2</course>
  <speed>0.0</speed>
  <fix>3d</fix>
</trkpt>
<trkpt lat="-27.274439" lon="151.290064">
  <ele>343.1</ele>
  <time>2026-09-01T20:03:24Z</time>
  <course>270.0</course>
  <speed>0.0</speed>
  <fix>3d</fix>
</trkpt>
<trkpt lat="-27.274439" lon="151.290064">
  <ele>343.03</ele>
  <time>2026-09-01T20:03:24Z</time>
  <course>11.2</course>
  <speed>0.0</speed>
  <fix>3d</fix>
</trkpt>
<trkpt lat="-27.274439" lon="151.290064">
  <ele>343.1</ele>
  <time>2026-09-01T20:03:24Z</time>
  <course>270.0</course>
  <speed>0.0</speed>
  <fix>3d</fix>
</trkpt>
<trkpt lat="-27.274439" lon="151.290064">
  <ele>342.82</ele>
  <time>2026-09-01T20:03:24Z</time>
  <course>11.2</course>
  <speed>0.0</speed>
  <fix>3d</fix>
</trkpt>
<trkpt lat="-27.274439" lon="151.290064">
  <ele>343.1</ele>
  <time>2026-09-01T20:03:24Z</time>
  <course>270.0</course>
  <speed>0.0</speed>
  <fix>3d</fix>
</trkpt>
<trkpt lat="-27.274439" lon="151.290064">
  <ele>342.93</ele>
  <time>2026-09-01T20:03:24Z</time>
  <course>11.2</course>
  <speed>0.0</speed>
  <fix>3d</fix>
</trkpt>
<trkpt lat="-27.274439" lon="151.290064">
  <ele>343.1</ele>
  <time>2026-09-01T20:03:24Z</time>
  <course>270.0</course>
  <speed>0.0</speed>
  <fix>3d</fix>
</trkpt>
<trkpt lat="-27.274439" lon="151.290064">
  <ele>342.82</ele>
  <time>2026-09-01T20:03:24Z</time>
  <course>11.2</course>
  <speed>0.0</speed>
  <fix>3d</fix>
</trkpt>
<trkpt lat="-27.274439" lon="151.290064">
  <ele>343.1</ele>
  <time>2026-09-01T20:03:24Z</time>
  <course>270.0</course>
  <speed>0.0</speed>
  <fix>3d</fix>
</trkpt>
<trkpt lat="-27.274439" lon="151.290064">
  <ele>342.83</ele>
  <time>2026-09-01T20:03:24Z</time>
  <course>11.19</course>
  <speed>0.0</speed>
  <fix>3d</fix>
</trkpt>
<trkpt lat="-27.274439" lon="151.290064">
  <ele>343.1</ele>
  <time>2026-09-01T20:03:24Z</time>
  <course>270.0</course>
  <speed>0.0</speed>
  <fix>3d</fix>
</trkpt>
<trkpt lat="-27.274439" lon="151.290064">
  <ele>342.9</ele>
  <time>2026-09-01T20:03:24Z</time>
  <course>11.19</course>
  <speed>0.0</speed>
  <fix>3d</fix>
</trkpt>
<trkpt lat="-27.274439" lon="151.290064">
  <ele>343.1</ele>
  <time>2026-09-01T20:03:24Z</time>
  <course>270.0</course>
  <speed>0.0</speed>
  <fix>3d</fix>
</trkpt>
<trkpt lat="-27.274439" lon="151.290064">
  <ele>342.83</ele>
  <time>2026-09-01T20:03:24Z</time>
  <course>11.19</course>
  <speed>0.0</speed>
  <fix>3d</fix>
</trkpt>
<trkpt lat="-27.274439" lon="151.290064">
  <ele>343.1</ele>
  <time>2026-09-01T20:03:24Z</time>
  <course>270.0</course>
  <speed>0.0</speed>
  <fix>3d</fix>
</trkpt>
<trkpt lat="-27.274439" lon="151.290064">
  <ele>343.04</ele>
  <time>2026-09-01T20:03:24Z</time>
  <course>11.19</course>
  <speed>0.0</speed>
  <fix>3d</fix>
</trkpt>
<trkpt lat="-27.274439" lon="151.290064">
  <ele>343.1</ele>
  <time>2026-09-01T20:03:24Z</time>
  <course>270.0</course>
  <speed>0.0</speed>
  <fix>3d</fix>
</trkpt>
<trkpt lat="-27.274439" lon="151.290064">
  <ele>342.98</ele>
  <time>2026-09-01T20:03:24Z</time>
  <course>11.19</course>
  <speed>0.0</speed>
  <fix>3d</fix>
</trkpt>
<trkpt lat="-27.274439" lon="151.290064">
  <ele>343.1</ele>
  <time>2026-09-01T20:03:24Z</time>
  <course>270.0</course>
  <speed>0.0</speed>
  <fix>3d</fix>
</trkpt>
<trkpt lat="-27.274439" lon="151.290064">
  <ele>342.99</ele>
  <time>2026-09-01T20:03:24Z</time>
  <course>11.19</course>
  <speed>0.0</speed>
  <fix>3d</fix>
</trkpt>
<trkpt lat="-27.274439" lon="151.290064">
  <ele>343.1</ele>
  <time>2026-09-01T20:03:24Z</time>
  <course>270.0</course>
  <speed>0.0</speed>
  <fix>3d</fix>
</trkpt>
<trkpt lat="-27.274439" lon="151.290064">
  <ele>342.98</ele>
  <time>2026-09-01T20:03:24Z</time>
  <course>11.18</course>
  <speed>0.0</speed>
  <fix>3d</fix>
</trkpt>
<trkpt lat="-27.274439" lon="151.290064">
  <ele>343.1</ele>
  <time>2026-09-01T20:03:24Z</time>
  <course>270.0</course>
  <speed>0.0</speed>
  <fix>3d</fix>
</trkpt>
<trkpt lat="-27.274439" lon="151.290064">
  <ele>342.9</ele>
  <time>2026-09-01T20:03:24Z</time>
  <course>11.18</course>
  <speed>0.0</speed>
  <fix>3d</fix>
</trkpt>
<trkpt lat="-27.274439" lon="151.290064">
  <ele>343.1</ele>
  <time>2026-09-01T20:03:24Z</time>
  <course>270.0</course>
  <speed>0.0</speed>
  <fix>3d</fix>
</trkpt>
<trkpt lat="-27.274439" lon="151.290064">
  <ele>343.03</ele>
  <time>2026-09-01T20:03:24Z</time>
  <course>11.18</course>
  <speed>0.0</speed>
  <fix>3d</fix>
</trkpt>
<trkpt lat="-27.274439" lon="151.290064">
  <ele>343.1</ele>
  <time>2026-09-01T20:03:24Z</time>
  <course>270.0</course>
  <speed>0.0</speed>
  <fix>3d</fix>
</trkpt>
<trkpt lat="-27.274439" lon="151.290064">
  <ele>343.11</ele>
  <time>2026-09-01T20:03:24Z</time>
  <course>11.18</course>
  <speed>0.0</speed>
  <fix>3d</fix>
</trkpt>
<trkpt lat="-27.274439" lon="151.290064">
  <ele>343.1</ele>
  <time>2026-09-01T20:03:24Z</time>
  <course>270.0</course>
  <speed>0.0</speed>
  <fix>3d</fix>
</trkpt>
<trkpt lat="-27.274439" lon="151.290064">
  <ele>342.98</ele>
  <time>2026-09-01T20:03:24Z</time>
  <course>11.18</course>
  <speed>0.0</speed>
  <fix>3d</fix>
</trkpt>
<trkpt lat="-27.274439" lon="151.290064">
  <ele>343.1</ele>
  <time>2026-09-01T20:03:24Z</time>
  <course>270.0</course>
  <speed>0.0</speed>
  <fix>3d</fix>
</trkpt>
<trkpt lat="-27.274439" lon="151.290064">
  <ele>343.06</ele>
  <time>2026-09-01T20:03:24Z</time>
  <course>11.18</course>
  <speed>0.0</speed>
  <fix>3d</fix>
</trkpt>
<trkpt lat="-27.274439" lon="151.290064">
  <ele>343.1</ele>
  <time>2026-09-01T20:03:24Z</time>
  <course>270.0</course>
  <speed>0.0</speed>
  <fix>3d</fix>
</trkpt>
<trkpt lat="-27.274439" lon="151.290064">
  <ele>342.9</ele>
  <time>2026-09-01T20:03:24Z</time>
  <course>11.18</course>
  <speed>0.0</speed>
  <fix>3d</fix>
</trkpt>
<trkpt lat="-27.274439" lon="151.290064">
  <ele>343.1</ele>
  <time>2026-09-01T20:03:24Z</time>
  <course>270.0</course>
  <speed>0.0</speed>
  <fix>3d</fix>
</trkpt>
<trkpt lat="-27.274439" lon="151.290064">
  <ele>342.79</ele>
  <time>2026-09-01T20:03:24Z</time>
  <course>11.17</course>
  <speed>0.0</speed>
  <fix>3d</fix>
</trkpt>
<trkpt lat="-27.274439" lon="151.290064">
  <ele>343.1</ele>
  <time>2026-09-01T20:03:24Z</time>
  <course>270.0</course>
  <speed>0.0</speed>
  <fix>3d</fix>
</trkpt>
<trkpt lat="-27.274439" lon="151.290064">
  <ele>343.08</ele>
  <time>2026-09-01T20:03:24Z</time>
  <course>11.17</course>
  <speed>0.0</speed>
  <fix>3d</fix>
</trkpt>
<trkpt lat="-27.274439" lon="151.290064">
  <ele>343.1</ele>
  <time>2026-09-01T20:03:24Z</time>
  <course>270.0</course>
  <speed>0.0</speed>
  <fix>3d</fix>
</trkpt>
<trkpt lat="-27.274439" lon="151.290064">
  <ele>342.99</ele>
  <time>2026-09-01T20:03:24Z</time>
  <course>11.17</course>
  <speed>0.0</speed>
  <fix>3d</fix>
</trkpt>
<trkpt lat="-27.274439" lon="151.290064">
  <ele>343.1</ele>
  <time>2026-09-01T20:03:24Z</time>
  <course>270.0</course>
  <speed>0.0</speed>
  <fix>3d</fix>
</trkpt>
<trkpt lat="-27.274439" lon="151.290064">
  <ele>342.95</ele>
  <time>2026-09-01T20:03:24Z</time>
  <course>11.17</course>
  <speed>0.0</speed>
  <fix>3d</fix>
</trkpt>
<trkpt lat="-27.274439" lon="151.290064">
  <ele>343.1</ele>
  <time>2026-09-01T20:03:24Z</time>
  <course>270.0</course>
  <speed>0.0</speed>
  <fix>3d</fix>
</trkpt>
<trkpt lat="-27.274439" lon="151.290064">
  <ele>342.8</ele>
  <time>2026-09-01T20:03:24Z</time>
  <course>11.17</course>
  <speed>0.0</speed>
  <fix>3d</fix>
</trkpt>
<trkpt lat="-27.274439" lon="151.290064">
  <ele>343.1</ele>
  <time>2026-09-01T20:03:24Z</time>
  <course>270.0</course>
  <speed>0.0</speed>
  <fix>3d</fix>
</trkpt>
<trkpt lat="-27.274439" lon="151.290064">
  <ele>343.01</ele>
  <time>2026-09-01T20:03:24Z</time>
  <course>11.17</course>
  <speed>0.0</speed>
  <fix>3d</fix>
</trkpt>
<trkpt lat="-27.274439" lon="151.290064">
  <ele>343.1</ele>
  <time>2026-09-01T20:03:24Z</time>
  <course>270.0</course>
  <speed>0.0</speed>
  <fix>3d</fix>
</trkpt>
<trkpt lat="-27.274439" lon="151.290064">
  <ele>342.78</ele>
  <time>2026-09-01T20:03:24Z</time>
  <course>11.17</course>
  <speed>0.0</speed>
  <fix>3d</fix>
</trkpt>
<trkpt lat="-27.274439" lon="151.290064">
  <ele>343.1</ele>
  <time>2026-09-01T20:03:24Z</time>
  <course>270.0</course>
  <speed>0.0</speed>
  <fix>3d</fix>
</trkpt>
<trkpt lat="-27.274439" lon="151.290064">
  <ele>342.81</ele>
  <time>2026-09-01T20:03:24Z</time>
  <course>11.16</course>
  <speed>0.0</speed>
  <fix>3d</fix>
</trkpt>
<trkpt lat="-27.274439" lon="151.290064">
  <ele>343.1</ele>
  <time>2026-09-01T20:03:24Z</time>
  <course>270.0</course>
  <speed>0.0</speed>
  <fix>3d</fix>
</trkpt>
<trkpt lat="-27.274439" lon="151.290064">
  <ele>342.85</ele>
  <time>2026-09-01T20:03:24Z</time>
  <course>11.16</course>
  <speed>0.0</speed>
  <fix>3d</fix>
</trkpt>
<trkpt lat="-27.274439" lon="151.290064">
  <ele>343.1</ele>
  <time>2026-09-01T20:03:24Z</time>
  <course>270.0</course>
  <speed>0.0</speed>
  <fix>3d</fix>
</trkpt>
<trkpt lat="-27.274439" lon="151.290064">
  <ele>342.78</ele>
  <time>2026-09-01T20:03:24Z</time>
  <course>11.16</course>
  <speed>0.0</speed>
  <fix>3d</fix>
</trkpt>
<trkpt lat="-27.274439" lon="151.290064">
  <ele>343.1</ele>
  <time>2026-09-01T20:03:24Z</time>
  <course>270.0</course>
  <speed>0.0</speed>
  <fix>3d</fix>
</trkpt>
<trkpt lat="-27.274439" lon="151.290064">
  <ele>342.79</ele>
  <time>2026-09-01T20:03:24Z</time>
  <course>11.16</course>
  <speed>0.0</speed>
  <fix>3d</fix>
</trkpt>
<trkpt lat="-27.274439" lon="151.290064">
  <ele>343.1</ele>
  <time>2026-09-01T20:03:24Z</time>
  <course>270.0</course>
  <speed>0.0</speed>
  <fix>3d</fix>
</trkpt>
<trkpt lat="-27.274439" lon="151.290064">
  <ele>342.9</ele>
  <time>2026-09-01T20:03:24Z</time>
  <course>11.16</course>
  <speed>0.0</speed>
  <fix>3d</fix>
</trkpt>
<trkpt lat="-27.274439" lon="151.290064">
  <ele>343.1</ele>
  <time>2026-09-01T20:03:24Z</time>
  <course>270.0</course>
  <speed>0.0</speed>
  <fix>3d</fix>
</trkpt>
<trkpt lat="-27.274439" lon="151.290064">
  <ele>342.98</ele>
  <time>2026-09-01T20:03:24Z</time>
  <course>11.16</course>
  <speed>0.0</speed>
  <fix>3d</fix>
</trkpt>
<trkpt lat="-27.274439" lon="151.290064">
  <ele>343.1</ele>
  <time>2026-09-01T20:03:24Z</time>
  <course>270.0</course>
  <speed>0.0</speed>
  <fix>3d</fix>
</trkpt>
<trkpt lat="-27.274439" lon="151.290064">
  <ele>342.77</ele>
  <time>2026-09-01T20:03:24Z</time>
  <course>11.16</course>
  <speed>0.0</speed>
  <fix>3d</fix>
</trkpt>
<trkpt lat="-27.274439" lon="151.290064">
  <ele>343.1</ele>
  <time>2026-09-01T20:03:24Z</time>
  <course>270.0</course>
  <speed>0.0</speed>
  <fix>3d</fix>
</trkpt>
<trkpt lat="-27.274439" lon="151.290064">
  <ele>342.95</ele>
  <time>2026-09-01T20:03:24Z</time>
  <course>11.16</course>
  <speed>0.0</speed>
  <fix>3d</fix>
</trkpt>
<trkpt lat="-27.274439" lon="151.290064">
  <ele>343.1</ele>
  <time>2026-09-01T20:03:24Z</time>
  <course>270.0</course>
  <speed>0.0</speed>
  <fix>3d</fix>
</trkpt>
<trkpt lat="-27.274439" lon="151.290064">
  <ele>343.04</ele>
  <time>2026-09-01T20:03:24Z</time>
  <course>11.15</course>
  <speed>0.0</speed>
  <fix>3d</fix>
</trkpt>
<trkpt lat="-27.274439" lon="151.290064">
  <ele>343.1</ele>
  <time>2026-09-01T20:03:24Z</time>
  <course>270.0</course>
  <speed>0.0</speed>
  <fix>3d</fix>
</trkpt>
<trkpt lat="-27.274439" lon="151.290064">
  <ele>342.83</ele>
  <time>2026-09-01T20:03:24Z</time>
  <course>11.15</course>
  <speed>0.0</speed>
  <fix>3d</fix>
</trkpt>
<trkpt lat="-27.274439" lon="151.290064">
  <ele>343.1</ele>
  <time>2026-09-01T20:03:24Z</time>
  <course>270.0</course>
  <speed>0.0</speed>
  <fix>3d</fix>
</trkpt>
<trkpt lat="-27.274439" lon="151.290064">
  <ele>342.87</ele>
  <time>2026-09-01T20:03:24Z</time>
  <course>11.15</course>
  <speed>0.0</speed>
  <fix>3d</fix>
</trkpt>
<trkpt lat="-27.274439" lon="151.290064">
  <ele>343.1</ele>
  <time>2026-09-01T20:03:24Z</time>
  <course>270.0</course>
  <speed>0.0</speed>
  <fix>3d</fix>
</trkpt>
<trkpt lat="-27.274439" lon="151.290064">
  <ele>342.76</ele>
  <time>2026-09-01T20:03:24Z</time>
  <course>11.15</course>
  <speed>0.0</speed>
  <fix>3d</fix>
</trkpt>
<trkpt lat="-27.274439" lon="151.290064">
  <ele>343.1</ele>
  <time>2026-09-01T20:03:24Z</time>
  <course>270.0</course>
  <speed>0.0</speed>
  <fix>3d</fix>
</trkpt>
<trkpt lat="-27.274439" lon="151.290064">
  <ele>343.01</ele>
  <time>2026-09-01T20:03:24Z</time>
  <course>11.14</course>
  <speed>0.0</speed>
  <fix>3d</fix>
</trkpt>
<trkpt lat="-27.274439" lon="151.290064">
  <ele>343.1</ele>
  <time>2026-09-01T20:03:24Z</time>
  <course>270.0</course>
  <speed>0.0</speed>
  <fix>3d</fix>
</trkpt>
<trkpt lat="-27.274439" lon="151.290064">
  <ele>343.08</ele>
  <time>2026-09-01T20:03:24Z</time>
  <course>11.14</course>
  <speed>0.0</speed>
  <fix>3d</fix>
</trkpt>
<trkpt lat="-27.274439" lon="151.290064">
  <ele>343.1</ele>
  <time>2026-09-01T20:03:24Z</time>
  <course>270.0</course>
  <speed>0.0</speed>
  <fix>3d</fix>
</trkpt>
<trkpt lat="-27.274439" lon="151.290064">
  <ele>342.82</ele>
  <time>2026-09-01T20:03:24Z</time>
  <course>11.13</course>
  <speed>0.0</speed>
  <fix>3d</fix>
</trkpt>
<trkpt lat="-27.274439" lon="151.290064">
  <ele>343.1</ele>
  <time>2026-09-01T20:03:24Z</time>
  <course>270.0</course>
  <speed>0.0</speed>
  <fix>3d</fix>
</trkpt>
<trkpt lat="-27.274439" lon="151.290064">
  <ele>343.12</ele>
  <time>2026-09-01T20:03:24Z</time>
  <course>11.13</course>
  <speed>0.0</speed>
  <fix>3d</fix>
</trkpt>
<trkpt lat="-27.274439" lon="151.290064">
  <ele>343.1</ele>
  <time>2026-09-01T20:03:24Z</time>
  <course>270.0</course>
  <speed>0.0</speed>
  <fix>3d</fix>
</trkpt>
<trkpt lat="-27.274439" lon="151.290064">
  <ele>342.85</ele>
  <time>2026-09-01T20:03:24Z</time>
  <course>11.13</course>
  <speed>0.0</speed>
  <fix>3d</fix>
</trkpt>
<trkpt lat="-27.274439" lon="151.290064">
  <ele>343.1</ele>
  <time>2026-09-01T20:03:24Z</time>
  <course>270.0</course>
  <speed>0.0</speed>
  <fix>3d</fix>
</trkpt>
<trkpt lat="-27.274439" lon="151.290064">
  <ele>343.01</ele>
  <time>2026-09-01T20:03:24Z</time>
  <course>11.12</course>
  <speed>0.0</speed>
  <fix>3d</fix>
</trkpt>
<trkpt lat="-27.274439" lon="151.290064">
  <ele>343.1</ele>
  <time>2026-09-01T20:03:24Z</time>
  <course>270.0</course>
  <speed>0.0</speed>
  <fix>3d</fix>
</trkpt>
<trkpt lat="-27.274439" lon="151.290064">
  <ele>343.01</ele>
  <time>2026-09-01T20:03:24Z</time>
  <course>11.12</course>
  <speed>0.0</speed>
  <fix>3d</fix>
</trkpt>
<trkpt lat="-27.274439" lon="151.290064">
  <ele>343.1</ele>
  <time>2026-09-01T20:03:24Z</time>
  <course>270.0</course>
  <speed>0.0</speed>
  <fix>3d</fix>
</trkpt>
<trkpt lat="-27.274439" lon="151.290064">
  <ele>342.82</ele>
  <time>2026-09-01T20:03:24Z</time>
  <course>11.11</course>
  <speed>0.0</speed>
  <fix>3d</fix>
</trkpt>
<trkpt lat="-27.274439" lon="151.290064">
  <ele>343.1</ele>
  <time>2026-09-01T20:03:24Z</time>
  <course>270.0</course>
  <speed>0.0</speed>
  <fix>3d</fix>
</trkpt>
<trkpt lat="-27.274439" lon="151.290064">
  <ele>343.05</ele>
  <time>2026-09-01T20:03:24Z</time>
  <course>11.11</course>
  <speed>0.0</speed>
  <fix>3d</fix>
</trkpt>
<trkpt lat="-27.274439" lon="151.290064">
  <ele>343.1</ele>
  <time>2026-09-01T20:03:24Z</time>
  <course>270.0</course>
  <speed>0.0</speed>
  <fix>3d</fix>
</trkpt>
<trkpt lat="-27.274439" lon="151.290064">
  <ele>342.9</ele>
  <time>2026-09-01T20:03:24Z</time>
  <course>11.11</course>
  <speed>0.0</speed>
  <fix>3d</fix>
</trkpt>
<trkpt lat="-27.274439" lon="151.290064">
  <ele>343.1</ele>
  <time>2026-09-01T20:03:24Z</time>
  <course>270.0</course>
  <speed>0.0</speed>
  <fix>3d</fix>
</trkpt>
<trkpt lat="-27.274439" lon="151.290064">
  <ele>342.98</ele>
  <time>2026-09-01T20:03:24Z</time>
  <course>11.1</course>
  <speed>0.0</speed>
  <fix>3d</fix>
</trkpt>
<trkpt lat="-27.274439" lon="151.290064">
  <ele>343.1</ele>
  <time>2026-09-01T20:03:24Z</time>
  <course>270.0</course>
  <speed>0.0</speed>
  <fix>3d</fix>
</trkpt>
<trkpt lat="-27.274439" lon="151.290064">
  <ele>342.84</ele>
  <time>2026-09-01T20:03:24Z</time>
  <course>11.1</course>
  <speed>0.0</speed>
  <fix>3d</fix>
</trkpt>
<trkpt lat="-27.274439" lon="151.290064">
  <ele>343.1</ele>
  <time>2026-09-01T20:03:24Z</time>
  <course>270.0</course>
  <speed>0.0</speed>
  <fix>3d</fix>
</trkpt>
<trkpt lat="-27.274439" lon="151.290064">
  <ele>343.0</ele>
  <time>2026-09-01T20:03:24Z</time>
  <course>11.1</course>
  <speed>0.0</speed>
  <fix>3d</fix>
</trkpt>
<trkpt lat="-27.274439" lon="151.290064">
  <ele>343.1</ele>
  <time>2026-09-01T20:03:24Z</time>
  <course>270.0</course>
  <speed>0.0</speed>
  <fix>3d</fix>
</trkpt>
<trkpt lat="-27.274439" lon="151.290064">
  <ele>343.0</ele>
  <time>2026-09-01T20:03:24Z</time>
  <course>11.09</course>
  <speed>0.0</speed>
  <fix>3d</fix>
</trkpt>
<trkpt lat="-27.274439" lon="151.290064">
  <ele>343.1</ele>
  <time>2026-09-01T20:03:24Z</time>
  <course>270.0</course>
  <speed>0.0</speed>
  <fix>3d</fix>
</trkpt>
<trkpt lat="-27.274439" lon="151.290064">
  <ele>342.78</ele>
  <time>2026-09-01T20:03:24Z</time>
  <course>11.09</course>
  <speed>0.0</speed>
  <fix>3d</fix>
</trkpt>
<trkpt lat="-27.274439" lon="151.290064">
  <ele>343.1</ele>
  <time>2026-09-01T20:03:24Z</time>
  <course>270.0</course>
  <speed>0.0</speed>
  <fix>3d</fix>
</trkpt>
<trkpt lat="-27.274439" lon="151.290064">
  <ele>343.06</ele>
  <time>2026-09-01T20:03:24Z</time>
  <course>11.09</course>
  <speed>0.0</speed>
  <fix>3d</fix>
</trkpt>
<trkpt lat="-27.274439" lon="151.290064">
  <ele>343.1</ele>
  <time>2026-09-01T20:03:24Z</time>
  <course>270.0</course>
  <speed>0.0</speed>
  <fix>3d</fix>
</trkpt>
<trkpt lat="-27.274439" lon="151.290064">
  <ele>343.03</ele>
  <time>2026-09-01T20:03:24Z</time>
  <course>11.08</course>
  <speed>0.0</speed>
  <fix>3d</fix>
</trkpt>
<trkpt lat="-27.274439" lon="151.290064">
  <ele>343.1</ele>
  <time>2026-09-01T20:03:24Z</time>
  <course>270.0</course>
  <speed>0.0</speed>
  <fix>3d</fix>
</trkpt>
<trkpt lat="-27.274439" lon="151.290064">
  <ele>343.15</ele>
  <time>2026-09-01T20:03:24Z</time>
  <course>11.08</course>
  <speed>0.0</speed>
  <fix>3d</fix>
</trkpt>
<trkpt lat="-27.274439" lon="151.290064">
  <ele>343.1</ele>
  <time>2026-09-01T20:03:24Z</time>
  <course>270.0</course>
  <speed>0.0</speed>
  <fix>3d</fix>
</trkpt>
<trkpt lat="-27.274439" lon="151.290064">
  <ele>342.95</ele>
  <time>2026-09-01T20:03:24Z</time>
  <course>11.08</course>
  <speed>0.0</speed>
  <fix>3d</fix>
</trkpt>
<trkpt lat="-27.274439" lon="151.290064">
  <ele>343.1</ele>
  <time>2026-09-01T20:03:24Z</time>
  <course>270.0</course>
  <speed>0.0</speed>
  <fix>3d</fix>
</trkpt>
<trkpt lat="-27.274439" lon="151.290064">
  <ele>343.03</ele>
  <time>2026-09-01T20:03:24Z</time>
  <course>11.07</course>
  <speed>0.0</speed>
  <fix>3d</fix>
</trkpt>
<trkpt lat="-27.274439" lon="151.290064">
  <ele>343.1</ele>
  <time>2026-09-01T20:03:24Z</time>
  <course>270.0</course>
  <speed>0.0</speed>
  <fix>3d</fix>
</trkpt>
<trkpt lat="-27.274439" lon="151.290064">
  <ele>343.12</ele>
  <time>2026-09-01T20:03:24Z</time>
  <course>11.07</course>
  <speed>0.0</speed>
  <fix>3d</fix>
</trkpt>
<trkpt lat="-27.274439" lon="151.290064">
  <ele>343.1</ele>
  <time>2026-09-01T20:03:24Z</time>
  <course>270.0</course>
  <speed>0.0</speed>
  <fix>3d</fix>
</trkpt>
<trkpt lat="-27.274439" lon="151.290064">
  <ele>343.16</ele>
  <time>2026-09-01T20:03:24Z</time>
  <course>11.07</course>
  <speed>0.0</speed>
  <fix>3d</fix>
</trkpt>
<trkpt lat="-27.274439" lon="151.290064">
  <ele>343.1</ele>
  <time>2026-09-01T20:03:24Z</time>
  <course>270.0</course>
  <speed>0.0</speed>
  <fix>3d</fix>
</trkpt>
<trkpt lat="-27.274439" lon="151.290064">
  <ele>342.97</ele>
  <time>2026-09-01T20:03:24Z</time>
  <course>11.06</course>
  <speed>0.0</speed>
  <fix>3d</fix>
</trkpt>
<trkpt lat="-27.274439" lon="151.290064">
  <ele>343.1</ele>
  <time>2026-09-01T20:03:24Z</time>
  <course>270.0</course>
  <speed>0.0</speed>
  <fix>3d</fix>
</trkpt>
<trkpt lat="-27.274439" lon="151.290064">
  <ele>343.14</ele>
  <time>2026-09-01T20:03:24Z</time>
  <course>11.06</course>
  <speed>0.0</speed>
  <fix>3d</fix>
</trkpt>
<trkpt lat="-27.274439" lon="151.290064">
  <ele>343.1</ele>
  <time>2026-09-01T20:03:24Z</time>
  <course>270.0</course>
  <speed>0.0</speed>
  <fix>3d</fix>
</trkpt>
<trkpt lat="-27.274439" lon="151.290064">
  <ele>342.86</ele>
  <time>2026-09-01T20:03:24Z</time>
  <course>11.06</course>
  <speed>0.0</speed>
  <fix>3d</fix>
</trkpt>
<trkpt lat="-27.274439" lon="151.290064">
  <ele>343.1</ele>
  <time>2026-09-01T20:03:24Z</time>
  <course>270.0</course>
  <speed>0.0</speed>
  <fix>3d</fix>
</trkpt>
<trkpt lat="-27.274439" lon="151.290064">
  <ele>342.92</ele>
  <time>2026-09-01T20:03:24Z</time>
  <course>11.05</course>
  <speed>0.0</speed>
  <fix>3d</fix>
</trkpt>
<trkpt lat="-27.274439" lon="151.290064">
  <ele>343.1</ele>
  <time>2026-09-01T20:03:24Z</time>
  <course>270.0</course>
  <speed>0.0</speed>
  <fix>3d</fix>
</trkpt>
<trkpt lat="-27.274439" lon="151.290064">
  <ele>343.12</ele>
  <time>2026-09-01T20:03:24Z</time>
  <course>11.05</course>
  <speed>0.0</speed>
  <fix>3d</fix>
</trkpt>
<trkpt lat="-27.274439" lon="151.290064">
  <ele>343.1</ele>
  <time>2026-09-01T20:03:24Z</time>
  <course>270.0</course>
  <speed>0.0</speed>
  <fix>3d</fix>
</trkpt>
<trkpt lat="-27.274439" lon="151.290064">
  <ele>343.03</ele>
  <time>2026-09-01T20:03:24Z</time>
  <course>11.05</course>
  <speed>0.0</speed>
  <fix>3d</fix>
</trkpt>
<trkpt lat="-27.274439" lon="151.290064">
  <ele>343.1</ele>
  <time>2026-09-01T20:03:24Z</time>
  <course>270.0</course>
  <speed>0.0</speed>
  <fix>3d</fix>
</trkpt>
<trkpt lat="-27.274439" lon="151.290064">
  <ele>343.07</ele>
  <time>2026-09-01T20:03:24Z</time>
  <course>11.05</course>
  <speed>0.0</speed>
  <fix>3d</fix>
</trkpt>
<trkpt lat="-27.274439" lon="151.290064">
  <ele>343.1</ele>
  <time>2026-09-01T20:03:24Z</time>
  <course>270.0</course>
  <speed>0.0</speed>
  <fix>3d</fix>
</trkpt>
<trkpt lat="-27.274439" lon="151.290064">
  <ele>343.03</ele>
  <time>2026-09-01T20:03:24Z</time>
  <course>11.04</course>
  <speed>0.0</speed>
  <fix>3d</fix>
</trkpt>
<trkpt lat="-27.274439" lon="151.290064">
  <ele>343.1</ele>
  <time>2026-09-01T20:03:24Z</time>
  <course>270.0</course>
  <speed>0.0</speed>
  <fix>3d</fix>
</trkpt>
<trkpt lat="-27.274439" lon="151.290064">
  <ele>343.07</ele>
  <time>2026-09-01T20:03:24Z</time>
  <course>12.69</course>
  <speed>0.0</speed>
  <fix>3d</fix>
</trkpt>
<trkpt lat="-27.274439" lon="151.290064">
  <ele>343.1</ele>
  <time>2026-09-01T20:03:24Z</time>
  <course>270.0</course>
  <speed>0.0</speed>
  <fix>3d</fix>
</trkpt>
<trkpt lat="-27.274439" lon="151.290064">
  <ele>343.07</ele>
  <time>2026-09-01T20:03:24Z</time>
  <course>12.69</course>
  <speed>0.0</speed>
  <fix>3d</fix>
</trkpt>
<trkpt lat="-27.274439" lon="151.290064">
  <ele>343.1</ele>
  <time>2026-09-01T20:03:24Z</time>
  <course>270.0</course>
  <speed>0.0</speed>
  <fix>3d</fix>
</trkpt>
<trkpt lat="-27.274439" lon="151.290064">
  <ele>343.06</ele>
  <time>2026-09-01T20:03:24Z</time>
  <course>12.68</course>
  <speed>0.0</speed>
  <fix>3d</fix>
</trkpt>
<trkpt lat="-27.274439" lon="151.290064">
  <ele>343.1</ele>
  <time>2026-09-01T20:03:24Z</time>
  <course>270.0</course>
  <speed>0.0</speed>
  <fix>3d</fix>
</trkpt>
<trkpt lat="-27.274439" lon="151.290064">
  <ele>343.06</ele>
  <time>2026-09-01T20:03:24Z</time>
  <course>12.68</course>
  <speed>0.0</speed>
  <fix>3d</fix>
</trkpt>
<trkpt lat="-27.274439" lon="151.290064">
  <ele>343.1</ele>
  <time>2026-09-01T20:03:24Z</time>
  <course>270.0</course>
  <speed>0.0</speed>
  <fix>3d</fix>
</trkpt>
<trkpt lat="-27.274439" lon="151.290064">
  <ele>343.06</ele>
  <time>2026-09-01T20:03:24Z</time>
  <course>12.67</course>
  <speed>0.0</speed>
  <fix>3d</fix>
</trkpt>
<trkpt lat="-27.274439" lon="151.290064">
  <ele>343.1</ele>
  <time>2026-09-01T20:03:24Z</time>
  <course>270.0</course>
  <speed>0.0</speed>
  <fix>3d</fix>
</trkpt>
<trkpt lat="-27.274439" lon="151.290064">
  <ele>343.06</ele>
  <time>2026-09-01T20:03:24Z</time>
  <course>12.67</course>
  <speed>0.0</speed>
  <fix>3d</fix>
</trkpt>
<trkpt lat="-27.274439" lon="151.290064">
  <ele>343.1</ele>
  <time>2026-09-01T20:03:24Z</time>
  <course>270.0</course>
  <speed>0.0</speed>
  <fix>3d</fix>
</trkpt>
<trkpt lat="-27.274439" lon="151.290064">
  <ele>343.06</ele>
  <time>2026-09-01T20:03:24Z</time>
  <course>12.66</course>
  <speed>0.0</speed>
  <fix>3d</fix>
</trkpt>
<trkpt lat="-27.274439" lon="151.290064">
  <ele>343.1</ele>
  <time>2026-09-01T20:03:24Z</time>
  <course>270.0</course>
  <speed>0.0</speed>
  <fix>3d</fix>
</trkpt>
<trkpt lat="-27.274439" lon="151.290064">
  <ele>343.06</ele>
  <time>2026-09-01T20:03:24Z</time>
  <course>12.66</course>
  <speed>0.0</speed>
  <fix>3d</fix>
</trkpt>
<trkpt lat="-27.274439" lon="151.290064">
  <ele>343.1</ele>
  <time>2026-09-01T20:03:24Z</time>
  <course>270.0</course>
  <speed>0.0</speed>
  <fix>3d</fix>
</trkpt>
<trkpt lat="-27.274439" lon="151.290064">
  <ele>343.06</ele>
  <time>2026-09-01T20:03:24Z</time>
  <course>12.65</course>
  <speed>0.0</speed>
  <fix>3d</fix>
</trkpt>
<trkpt lat="-27.274439" lon="151.290064">
  <ele>343.1</ele>
  <time>2026-09-01T20:03:24Z</time>
  <course>270.0</course>
  <speed>0.0</speed>
  <fix>3d</fix>
</trkpt>
<trkpt lat="-27.274439" lon="151.290064">
  <ele>343.06</ele>
  <time>2026-09-01T20:03:24Z</time>
  <course>12.65</course>
  <speed>0.01</speed>
  <fix>3d</fix>
</trkpt>
<trkpt lat="-27.274439" lon="151.290064">
  <ele>343.1</ele>
  <time>2026-09-01T20:03:24Z</time>
  <course>270.0</course>
  <speed>0.0</speed>
  <fix>3d</fix>
</trkpt>
<trkpt lat="-27.274439" lon="151.290064">
  <ele>343.09</ele>
  <time>2026-09-01T20:03:24Z</time>
  <course>12.64</course>
  <speed>0.01</speed>
  <fix>3d</fix>
</trkpt>
<trkpt lat="-27.274439" lon="151.290064">
  <ele>343.1</ele>
  <time>2026-09-01T20:03:24Z</time>
  <course>270.0</course>
  <speed>0.0</speed>
  <fix>3d</fix>
</trkpt>
<trkpt lat="-27.274439" lon="151.290064">
  <ele>343.09</ele>
  <time>2026-09-01T20:03:24Z</time>
  <course>12.64</course>
  <speed>0.01</speed>
  <fix>3d</fix>
</trkpt>
<trkpt lat="-27.274439" lon="151.290064">
  <ele>343.1</ele>
  <time>2026-09-01T20:03:24Z</time>
  <course>270.0</course>
  <speed>0.0</speed>
  <fix>3d</fix>
</trkpt>
<trkpt lat="-27.274439" lon="151.290064">
  <ele>343.09</ele>
  <time>2026-09-01T20:03:24Z</time>
  <course>12.64</course>
  <speed>0.01</speed>
  <fix>3d</fix>
</trkpt>
<trkpt lat="-27.274439" lon="151.290064">
  <ele>343.1</ele>
  <time>2026-09-01T20:03:24Z</time>
  <course>270.0</course>
  <speed>0.0</speed>
  <fix>3d</fix>
</trkpt>
<trkpt lat="-27.274439" lon="151.290064">
  <ele>343.09</ele>
  <time>2026-09-01T20:03:24Z</time>
  <course>12.63</course>
  <speed>0.01</speed>
  <fix>3d</fix>
</trkpt>
<trkpt lat="-27.274439" lon="151.290064">
  <ele>343.1</ele>
  <time>2026-09-01T20:03:24Z</time>
  <course>270.0</course>
  <speed>0.0</speed>
  <fix>3d</fix>
</trkpt>
<trkpt lat="-27.274439" lon="151.290064">
  <ele>343.09</ele>
  <time>2026-09-01T20:03:24Z</time>
  <course>12.63</course>
  <speed>0.01</speed>
  <fix>3d</fix>
</trkpt>
<trkpt lat="-27.274439" lon="151.290064">
  <ele>343.1</ele>
  <time>2026-09-01T20:03:24Z</time>
  <course>270.0</course>
  <speed>0.0</speed>
  <fix>3d</fix>
</trkpt>
<trkpt lat="-27.274439" lon="151.290064">
  <ele>343.1</ele>
  <time>2026-09-01T20:03:24Z</time>
  <course>12.62</course>
  <speed>0.01414213562373095</speed>
  <fix>3d</fix>
</trkpt>
<trkpt lat="-27.274439" lon="151.290064">
  <ele>343.1</ele>
  <time>2026-09-01T20:03:24Z</time>
  <course>270.0</course>
  <speed>0.0</speed>
  <fix>3d</fix>
</trkpt>
<trkpt lat="-27.274439" lon="151.290064">
  <ele>343.1</ele>
  <time>2026-09-01T20:03:24Z</time>
  <course>12.62</course>
  <speed>0.01414213562373095</speed>
  <fix>3d</fix>
</trkpt>
<trkpt lat="-27.274439" lon="151.290064">
  <ele>343.1</ele>
  <time>2026-09-01T20:03:24Z</time>
  <course>270.0</course>
  <speed>0.0</speed>
  <fix>3d</fix>
</trkpt>
<trkpt lat="-27.274439" lon="151.290064">
  <ele>343.11</ele>
  <time>2026-09-01T20:03:24Z</time>
  <course>12.61</course>
  <speed>0.01414213562373095</speed>
  <fix>3d</fix>
</trkpt>
<trkpt lat="-27.274439" lon="151.290064">
  <ele>343.1</ele>
  <time>2026-09-01T20:03:24Z</time>
  <course>270.0</course>
  <speed>0.0</speed>
  <fix>3d</fix>
</trkpt>
<trkpt lat="-27.274439" lon="151.290064">
  <ele>343.11</ele>
  <time>2026-09-01T20:03:24Z</time>
  <course>12.61</course>
  <speed>0.01414213562373095</speed>
  <fix>3d</fix>
</trkpt>
<trkpt lat="-27.274439" lon="151.290064">
  <ele>343.1</ele>
  <time>2026-09-01T20:03:24Z</time>
  <course>270.0</course>
  <speed>0.0</speed>
  <fix>3d</fix>
</trkpt>
<trkpt lat="-27.274439" lon="151.290064">
  <ele>343.11</ele>
  <time>2026-09-01T20:03:24Z</time>
  <course>12.6</course>
  <speed>0.01414213562373095</speed>
  <fix>3d</fix>
</trkpt>
<trkpt lat="-27.274439" lon="151.290064">
  <ele>343.1</ele>
  <time>2026-09-01T20:03:24Z</time>
  <course>270.0</course>
  <speed>0.0</speed>
  <fix>3d</fix>
</trkpt>
<trkpt lat="-27.274439" lon="151.290064">
  <ele>343.11</ele>
  <time>2026-09-01T20:03:24Z</time>
  <course>12.6</course>
  <speed>0.01414213562373095</speed>
  <fix>3d</fix>
</trkpt>
<trkpt lat="-27.274439" lon="151.290064">
  <ele>343.1</ele>
  <time>2026-09-01T20:03:24Z</time>
  <course>270.0</course>
  <speed>0.0</speed>
  <fix>3d</fix>
</trkpt>
<trkpt lat="-27.274439" lon="151.290064">
  <ele>343.11</ele>
  <time>2026-09-01T20:03:24Z</time>
  <course>12.6</course>
  <speed>0.01414213562373095</speed>
  <fix>3d</fix>
</trkpt>
<trkpt lat="-27.274439" lon="151.290064">
  <ele>343.1</ele>
  <time>2026-09-01T20:03:24Z</time>
  <course>270.0</course>
  <speed>0.0</speed>
  <fix>3d</fix>
</trkpt>
<trkpt lat="-27.274439" lon="151.290064">
  <ele>343.11</ele>
  <time>2026-09-01T20:03:24Z</time>
  <course>12.59</course>
  <speed>0.01414213562373095</speed>
  <fix>3d</fix>
</trkpt>
<trkpt lat="-27.274439" lon="151.290064">
  <ele>343.1</ele>
  <time>2026-09-01T20:03:24Z</time>
  <course>139.95</course>
  <speed>0.0</speed>
  <fix>3d</fix>
</trkpt>
<trkpt lat="-27.274439" lon="151.290064">
  <ele>343.11</ele>
  <time>2026-09-01T20:03:24Z</time>
  <course>12.59</course>
  <speed>0.01414213562373095</speed>
  <fix>3d</fix>
</trkpt>
<trkpt lat="-27.274439" lon="151.290064">
  <ele>343.1</ele>
  <time>2026-09-01T20:03:24Z</time>
  <course>139.95</course>
  <speed>0.0</speed>
  <fix>3d</fix>
</trkpt>
<trkpt lat="-27.274439" lon="151.290064">
  <ele>343.11</ele>
  <time>2026-09-01T20:03:24Z</time>
  <course>12.59</course>
  <speed>0.01414213562373095</speed>
  <fix>3d</fix>
</trkpt>
<trkpt lat="-27.274439" lon="151.290064">
  <ele>343.11</ele>
  <time>2026-09-01T20:03:24Z</time>
  <course>12.58</course>
  <speed>0.01414213562373095</speed>
  <fix>3d</fix>
</trkpt>
<trkpt lat="-27.274439" lon="151.290064">
  <ele>343.1</ele>
  <time>2026-09-01T20:03:24Z</time>
  <course>140.73</course>
  <speed>0.0</speed>
  <fix>3d</fix>
</trkpt>
<trkpt lat="-27.274439" lon="151.290064">
  <ele>343.11</ele>
  <time>2026-09-01T20:03:24Z</time>
  <course>12.58</course>
  <speed>0.01414213562373095</speed>
  <fix>3d</fix>
</trkpt>
<trkpt lat="-27.274439" lon="151.290064">
  <ele>343.11</ele>
  <time>2026-09-01T20:03:24Z</time>
  <course>12.58</course>
  <speed>0.01414213562373095</speed>
  <fix>3d</fix>
</trkpt>
<trkpt lat="-27.274439" lon="151.290064">
  <ele>343.1</ele>
  <time>2026-09-01T20:03:25Z</time>
  <course>140.73</course>
  <speed>0.0</speed>
  <fix>3d</fix>
</trkpt>
<trkpt lat="-27.274439" lon="151.290064">
  <ele>343.11</ele>
  <time>2026-09-01T20:03:25Z</time>
  <course>12.58</course>
  <speed>0.01414213562373095</speed>
  <fix>3d</fix>
</trkpt>
<trkpt lat="-27.274439" lon="151.290064">
  <ele>343.11</ele>
  <time>2026-09-01T20:03:25Z</time>
  <course>12.57</course>
  <speed>0.01414213562373095</speed>
  <fix>3d</fix>
</trkpt>
<trkpt lat="-27.274439" lon="151.290064">
  <ele>343.1</ele>
  <time>2026-09-01T20:03:25Z</time>
  <course>138.72</course>
  <speed>0.0</speed>
  <fix>3d</fix>
</trkpt>
<trkpt lat="-27.274439" lon="151.290064">
  <ele>343.11</ele>
  <time>2026-09-01T20:03:25Z</time>
  <course>12.57</course>
  <speed>0.01414213562373095</speed>
  <fix>3d</fix>
</trkpt>
<trkpt lat="-27.274439" lon="151.290064">
  <ele>343.11</ele>
  <time>2026-09-01T20:03:25Z</time>
  <course>12.57</course>
  <speed>0.01414213562373095</speed>
  <fix>3d</fix>
</trkpt>
<trkpt lat="-27.274439" lon="151.290064">
  <ele>343.1</ele>
  <time>2026-09-01T20:03:25Z</time>
  <course>138.72</course>
  <speed>0.0</speed>
  <fix>3d</fix>
</trkpt>
<trkpt lat="-27.274439" lon="151.290064">
  <ele>343.11</ele>
  <time>2026-09-01T20:03:25Z</time>
  <course>12.57</course>
  <speed>0.01</speed>
  <fix>3d</fix>
</trkpt>
<trkpt lat="-27.274439" lon="151.290064">
  <ele>343.1</ele>
  <time>2026-09-01T20:03:25Z</time>
  <course>12.57</course>
  <speed>0.01</speed>
  <fix>3d</fix>
</trkpt>
<trkpt lat="-27.274439" lon="151.290064">
  <ele>343.1</ele>
  <time>2026-09-01T20:03:25Z</time>
  <course>321.49</course>
  <speed>0.0</speed>
  <fix>3d</fix>
</trkpt>
<trkpt lat="-27.274439" lon="151.290064">
  <ele>343.1</ele>
  <time>2026-09-01T20:03:25Z</time>
  <course>12.57</course>
  <speed>0.01</speed>
  <fix>3d</fix>
</trkpt>
<trkpt lat="-27.274439" lon="151.290064">
  <ele>343.1</ele>
  <time>2026-09-01T20:03:25Z</time>
  <course>12.56</course>
  <speed>0.01</speed>
  <fix>3d</fix>
</trkpt>
<trkpt lat="-27.274439" lon="151.290064">
  <ele>343.1</ele>
  <time>2026-09-01T20:03:25Z</time>
  <course>321.49</course>
  <speed>0.0</speed>
  <fix>3d</fix>
</trkpt>
<trkpt lat="-27.274439" lon="151.290064">
  <ele>343.1</ele>
  <time>2026-09-01T20:03:25Z</time>
  <course>12.56</course>
  <speed>0.01</speed>
  <fix>3d</fix>
</trkpt>
<trkpt lat="-27.274439" lon="151.290064">
  <ele>343.1</ele>
  <time>2026-09-01T20:03:25Z</time>
  <course>12.56</course>
  <speed>0.01</speed>
  <fix>3d</fix>
</trkpt>
<trkpt lat="-27.274439" lon="151.290064">
  <ele>343.1</ele>
  <time>2026-09-01T20:03:25Z</time>
  <course>318.58</course>
  <speed>0.0</speed>
  <fix>3d</fix>
</trkpt>
<trkpt lat="-27.274439" lon="151.290064">
  <ele>343.1</ele>
  <time>2026-09-01T20:03:25Z</time>
  <course>12.56</course>
  <speed>0.01</speed>
  <fix>3d</fix>
</trkpt>
<trkpt lat="-27.274439" lon="151.290064">
  <ele>343.11</ele>
  <time>2026-09-01T20:03:25Z</time>
  <course>12.55</course>
  <speed>0.01</speed>
  <fix>3d</fix>
</trkpt>
<trkpt lat="-27.274439" lon="151.290064">
  <ele>343.1</ele>
  <time>2026-09-01T20:03:25Z</time>
  <course>318.58</course>
  <speed>0.0</speed>
  <fix>3d</fix>
</trkpt>
<trkpt lat="-27.274439" lon="151.290064">
  <ele>343.11</ele>
  <time>2026-09-01T20:03:25Z</time>
  <course>12.55</course>
  <speed>0.01</speed>
  <fix>3d</fix>
</trkpt>
<trkpt lat="-27.274439" lon="151.290064">
  <ele>343.12</ele>
  <time>2026-09-01T20:03:25Z</time>
  <course>12.55</course>
  <speed>0.01</speed>
  <fix>3d</fix>
</trkpt>
<trkpt lat="-27.274439" lon="151.290064">
  <ele>343.1</ele>
  <time>2026-09-01T20:03:25Z</time>
  <course>3.32</course>
  <speed>0.0</speed>
  <fix>3d</fix>
</trkpt>
<trkpt lat="-27.274439" lon="151.290064">
  <ele>343.13</ele>
  <time>2026-09-01T20:03:25Z</time>
  <course>12.55</course>
  <speed>0.01</speed>
  <fix>3d</fix>
</trkpt>
<trkpt lat="-27.274439" lon="151.290064">
  <ele>343.15</ele>
  <time>2026-09-01T20:03:25Z</time>
  <course>12.55</course>
  <speed>0.01</speed>
  <fix>3d</fix>
</trkpt>
<trkpt lat="-27.274439" lon="151.290064">
  <ele>343.1</ele>
  <time>2026-09-01T20:03:25Z</time>
  <course>3.32</course>
  <speed>0.0</speed>
  <fix>3d</fix>
</trkpt>
<trkpt lat="-27.274439" lon="151.290064">
  <ele>343.16</ele>
  <time>2026-09-01T20:03:25Z</time>
  <course>12.55</course>
  <speed>0.01</speed>
  <fix>3d</fix>
</trkpt>
<trkpt lat="-27.274439" lon="151.290064">
  <ele>343.19</ele>
  <time>2026-09-01T20:03:25Z</time>
  <course>12.54</course>
  <speed>0.0</speed>
  <fix>3d</fix>
</trkpt>
<trkpt lat="-27.274439" lon="151.290064">
  <ele>343.12</ele>
  <time>2026-09-01T20:03:25Z</time>
  <course>7.53</course>
  <speed>0.0</speed>
  <fix>3d</fix>
</trkpt>
<trkpt lat="-27.274439" lon="151.290064">
  <ele>343.2</ele>
  <time>2026-09-01T20:03:25Z</time>
  <course>12.54</course>
  <speed>0.0</speed>
  <fix>3d</fix>
</trkpt>
<trkpt lat="-27.274439" lon="151.290064">
  <ele>343.25</ele>
  <time>2026-09-01T20:03:25Z</time>
  <course>12.54</course>
  <speed>0.0</speed>
  <fix>3d</fix>
</trkpt>
<trkpt lat="-27.274439" lon="151.290064">
  <ele>343.12</ele>
  <time>2026-09-01T20:03:25Z</time>
  <course>7.53</course>
  <speed>0.0</speed>
  <fix>3d</fix>
</trkpt>
<trkpt lat="-27.274439" lon="151.290064">
  <ele>343.26</ele>
  <time>2026-09-01T20:03:25Z</time>
  <course>12.54</course>
  <speed>0.0</speed>
  <fix>3d</fix>
</trkpt>
<trkpt lat="-27.274439" lon="151.290064">
  <ele>343.37</ele>
  <time>2026-09-01T20:03:25Z</time>
  <course>12.57</course>
  <speed>0.022360679774997897</speed>
  <fix>3d</fix>
</trkpt>
<trkpt lat="-27.274439" lon="151.290064">
  <ele>343.19</ele>
  <time>2026-09-01T20:03:25Z</time>
  <course>3.25</course>
  <speed>0.0</speed>
  <fix>3d</fix>
</trkpt>
<trkpt lat="-27.274439" lon="151.290064">
  <ele>343.37</ele>
  <time>2026-09-01T20:03:25Z</time>
  <course>12.57</course>
  <speed>0.022360679774997897</speed>
  <fix>3d</fix>
</trkpt>
<trkpt lat="-27.274439" lon="151.290064">
  <ele>343.54</ele>
  <time>2026-09-01T20:03:25Z</time>
  <course>12.6</course>
  <speed>0.06082762530298219</speed>
  <fix>3d</fix>
</trkpt>
<trkpt lat="-27.274439" lon="151.290064">
  <ele>343.19</ele>
  <time>2026-09-01T20:03:25Z</time>
  <course>3.25</course>
  <speed>0.0</speed>
  <fix>3d</fix>
</trkpt>
<trkpt lat="-27.274439" lon="151.290064">
  <ele>343.55</ele>
  <time>2026-09-01T20:03:25Z</time>
  <course>12.6</course>
  <speed>0.06082762530298219</speed>
  <fix>3d</fix>
</trkpt>
<trkpt lat="-27.2744389" lon="151.290064">
  <ele>343.76</ele>
  <time>2026-09-01T20:03:25Z</time>
  <course>12.61</course>
  <speed>0.09219544457292887</speed>
  <fix>3d</fix>
</trkpt>
<trkpt lat="-27.274439" lon="151.290064">
  <ele>343.38</ele>
  <time>2026-09-01T20:03:25Z</time>
  <course>1.31</course>
  <speed>0.04</speed>
  <fix>3d</fix>
</trkpt>
<trkpt lat="-27.2744389" lon="151.290064">
  <ele>343.82</ele>
  <time>2026-09-01T20:03:25Z</time>
  <course>12.62</course>
  <speed>0.1019803902718557</speed>
  <fix>3d</fix>
</trkpt>
<trkpt lat="-27.2744388" lon="151.290064">
  <ele>343.99</ele>
  <time>2026-09-01T20:03:25Z</time>
  <course>12.61</course>
  <speed>0.13152946437965907</speed>
  <fix>3d</fix>
</trkpt>
<trkpt lat="-27.274439" lon="151.290064">
  <ele>343.38</ele>
  <time>2026-09-01T20:03:25Z</time>
  <course>1.31</course>
  <speed>0.04</speed>
  <fix>3d</fix>
</trkpt>
<trkpt lat="-27.2744388" lon="151.290064">
  <ele>344.05</ele>
  <time>2026-09-01T20:03:25Z</time>
  <course>12.61</course>
  <speed>0.1414213562373095</speed>
  <fix>3d</fix>
</trkpt>
<trkpt lat="-27.2744387" lon="151.290064">
  <ele>344.21</ele>
  <time>2026-09-01T20:03:25Z</time>
  <course>12.59</course>
  <speed>0.16124515496597097</speed>
  <fix>3d</fix>
</trkpt>
<trkpt lat="-27.2744389" lon="151.290064">
  <ele>343.74</ele>
  <time>2026-09-01T20:03:25Z</time>
  <course>1.83</course>
  <speed>0.1</speed>
  <fix>3d</fix>
</trkpt>
<trkpt lat="-27.2744386" lon="151.290064">
  <ele>344.28</ele>
  <time>2026-09-01T20:03:25Z</time>
  <course>12.58</course>
  <speed>0.17262676501632068</speed>
  <fix>3d</fix>
</trkpt>
<trkpt lat="-27.2744385" lon="151.2900641">
  <ele>344.44</ele>
  <time>2026-09-01T20:03:25Z</time>
  <course>12.55</course>
  <speed>0.19235384061671343</speed>
  <fix>3d</fix>
</trkpt>
<trkpt lat="-27.2744389" lon="151.290064">
  <ele>343.74</ele>
  <time>2026-09-01T20:03:25Z</time>
  <course>1.83</course>
  <speed>0.1</speed>
  <fix>3d</fix>
</trkpt>
<trkpt lat="-27.2744385" lon="151.2900641">
  <ele>344.5</ele>
  <time>2026-09-01T20:03:25Z</time>
  <course>12.54</course>
  <speed>0.19235384061671343</speed>
  <fix>3d</fix>
</trkpt>
<trkpt lat="-27.2744383" lon="151.2900641">
  <ele>344.67</ele>
  <time>2026-09-01T20:03:25Z</time>
  <course>12.51</course>
  <speed>0.21213203435596426</speed>
  <fix>3d</fix>
</trkpt>
<trkpt lat="-27.2744387" lon="151.290064">
  <ele>344.2</ele>
  <time>2026-09-01T20:03:25Z</time>
  <course>2.51</course>
  <speed>0.17</speed>
  <fix>3d</fix>
</trkpt>
<trkpt lat="-27.2744383" lon="151.2900641">
  <ele>344.73</ele>
  <time>2026-09-01T20:03:25Z</time>
  <course>12.5</course>
  <speed>0.21213203435596426</speed>
  <fix>3d</fix>
</trkpt>
<trkpt lat="-27.2744381" lon="151.2900641">
  <ele>344.91</ele>
  <time>2026-09-01T20:03:25Z</time>
  <course>12.48</course>
  <speed>0.23194827009486402</speed>
  <fix>3d</fix>
</trkpt>
<trkpt lat="-27.2744387" lon="151.290064">
  <ele>344.2</ele>
  <time>2026-09-01T20:03:25Z</time>
  <course>2.51</course>
  <speed>0.17</speed>
  <fix>3d</fix>
</trkpt>
<trkpt lat="-27.2744381" lon="151.2900641">
  <ele>344.96</ele>
  <time>2026-09-01T20:03:25Z</time>
  <course>12.47</course>
  <speed>0.23194827009486402</speed>
  <fix>3d</fix>
</trkpt>
<trkpt lat="-27.2744379" lon="151.2900641">
  <ele>345.13</ele>
  <time>2026-09-01T20:03:25Z</time>
  <course>10.48</course>
  <speed>0.24186773244895649</speed>
  <fix>3d</fix>
</trkpt>
<trkpt lat="-27.2744383" lon="151.290064">
  <ele>344.66</ele>
  <time>2026-09-01T20:03:25Z</time>
  <course>3.08</course>
  <speed>0.22</speed>
  <fix>3d</fix>
</trkpt>
<trkpt lat="-27.2744379" lon="151.2900641">
  <ele>345.2</ele>
  <time>2026-09-01T20:03:25Z</time>
  <course>10.48</course>
  <speed>0.24186773244895649</speed>
  <fix>3d</fix>
</trkpt>
<trkpt lat="-27.2744377" lon="151.2900641">
  <ele>345.36</ele>
  <time>2026-09-01T20:03:25Z</time>
  <course>10.47</course>
  <speed>0.25179356624028343</speed>
  <fix>3d</fix>
</trkpt>
<trkpt lat="-27.2744383" lon="151.290064">
  <ele>344.66</ele>
  <time>2026-09-01T20:03:25Z</time>
  <course>3.08</course>
  <speed>0.22</speed>
  <fix>3d</fix>
</trkpt>
<trkpt lat="-27.2744377" lon="151.2900641">
  <ele>345.37</ele>
  <time>2026-09-01T20:03:25Z</time>
  <course>10.47</course>
  <speed>0.25179356624028343</speed>
  <fix>3d</fix>
</trkpt>
<trkpt lat="-27.2744375" lon="151.2900641">
  <ele>345.58</ele>
  <time>2026-09-01T20:03:25Z</time>
  <course>10.48</course>
  <speed>0.25179356624028343</speed>
  <fix>3d</fix>
</trkpt>
<trkpt lat="-27.2744379" lon="151.290064">
  <ele>345.11</ele>
  <time>2026-09-01T20:03:25Z</time>
  <course>3.61</course>
  <speed>0.25</speed>
  <fix>3d</fix>
</trkpt>
<trkpt lat="-27.2744375" lon="151.2900641">
  <ele>345.58</ele>
  <time>2026-09-01T20:03:25Z</time>
  <course>10.48</course>
  <speed>0.25179356624028343</speed>
  <fix>3d</fix>
</trkpt>
<trkpt lat="-27.2744372" lon="151.2900642">
  <ele>345.79</ele>
  <time>2026-09-01T20:03:25Z</time>
  <course>10.49</course>
  <speed>0.25179356624028343</speed>
  <fix>3d</fix>
</trkpt>
<trkpt lat="-27.2744379" lon="151.290064">
  <ele>345.11</ele>
  <time>2026-09-01T20:03:25Z</time>
  <course>3.61</course>
  <speed>0.25</speed>
  <fix>3d</fix>
</trkpt>
<trkpt lat="-27.2744372" lon="151.2900642">
  <ele>345.84</ele>
  <time>2026-09-01T20:03:25Z</time>
  <course>10.5</course>
  <speed>0.25179356624028343</speed>
  <fix>3d</fix>
</trkpt>
<trkpt lat="-27.274437" lon="151.2900642">
  <ele>345.98</ele>
  <time>2026-09-01T20:03:25Z</time>
  <course>10.51</course>
  <speed>0.25179356624028343</speed>
  <fix>3d</fix>
</trkpt>
<trkpt lat="-27.2744374" lon="151.290064">
  <ele>345.54</ele>
  <time>2026-09-01T20:03:25Z</time>
  <course>3.94</course>
  <speed>0.27</speed>
  <fix>3d</fix>
</trkpt>
<trkpt lat="-27.2744369" lon="151.2900642">
  <ele>346.03</ele>
  <time>2026-09-01T20:03:25Z</time>
  <course>10.51</course>
  <speed>0.25179356624028343</speed>
  <fix>3d</fix>
</trkpt>
<trkpt lat="-27.2744368" lon="151.2900642">
  <ele>346.17</ele>
  <time>2026-09-01T20:03:25Z</time>
  <course>10.53</course>
  <speed>0.24186773244895649</speed>
  <fix>3d</fix>
</trkpt>
<trkpt lat="-27.2744374" lon="151.290064">
  <ele>345.54</ele>
  <time>2026-09-01T20:03:25Z</time>
  <course>3.94</course>
  <speed>0.27</speed>
  <fix>3d</fix>
</trkpt>
<trkpt lat="-27.2744367" lon="151.2900642">
  <ele>346.22</ele>
  <time>2026-09-01T20:03:25Z</time>
  <course>10.54</course>
  <speed>0.24186773244895649</speed>
  <fix>3d</fix>
</trkpt>
<trkpt lat="-27.2744366" lon="151.2900642">
  <ele>346.34</ele>
  <time>2026-09-01T20:03:25Z</time>
  <course>10.55</course>
  <speed>0.2308679276123039</speed>
  <fix>3d</fix>
</trkpt>
<trkpt lat="-27.2744369" lon="151.2900641">
  <ele>345.94</ele>
  <time>2026-09-01T20:03:25Z</time>
  <course>4.06</course>
  <speed>0.27</speed>
  <fix>3d</fix>
</trkpt>
<trkpt lat="-27.2744365" lon="151.2900642">
  <ele>346.39</ele>
  <time>2026-09-01T20:03:25Z</time>
  <course>10.55</course>
  <speed>0.22090722034374521</speed>
  <fix>3d</fix>
</trkpt>
<trkpt lat="-27.2744364" lon="151.2900642">
  <ele>346.51</ele>
  <time>2026-09-01T20:03:25Z</time>
  <course>10.57</course>
  <speed>0.2109502310972899</speed>
  <fix>3d</fix>
</trkpt>
<trkpt lat="-27.2744369" lon="151.2900641">
  <ele>345.94</ele>
  <time>2026-09-01T20:03:25Z</time>
  <course>4.06</course>
  <speed>0.27</speed>
  <fix>3d</fix>
</trkpt>
<trkpt lat="-27.2744363" lon="151.2900642">
  <ele>346.51</ele>
  <time>2026-09-01T20:03:25Z</time>
  <course>10.57</course>
  <speed>0.2109502310972899</speed>
  <fix>3d</fix>
</trkpt>
<trkpt lat="-27.2744361" lon="151.2900642">
  <ele>346.67</ele>
  <time>2026-09-01T20:03:25Z</time>
  <course>10.58</course>
  <speed>0.191049731745428</speed>
  <fix>3d</fix>
</trkpt>
<trkpt lat="-27.2744364" lon="151.2900641">
  <ele>346.29</ele>
  <time>2026-09-01T20:03:25Z</time>
  <course>4.09</course>
  <speed>0.25</speed>
  <fix>3d</fix>
</trkpt>
<trkpt lat="-27.2744361" lon="151.2900642">
  <ele>346.71</ele>
  <time>2026-09-01T20:03:25Z</time>
  <course>10.59</course>
  <speed>0.191049731745428</speed>
  <fix>3d</fix>
</trkpt>
<trkpt lat="-27.274436" lon="151.2900642">
  <ele>346.81</ele>
  <time>2026-09-01T20:03:25Z</time>
  <course>10.6</course>
  <speed>0.17029386365926402</speed>
  <fix>3d</fix>
</trkpt>
<trkpt lat="-27.2744364" lon="151.2900641">
  <ele>346.29</ele>
  <time>2026-09-01T20:03:25Z</time>
  <course>4.09</course>
  <speed>0.25</speed>
  <fix>3d</fix>
</trkpt>
<trkpt lat="-27.2744359" lon="151.2900642">
  <ele>346.85</ele>
  <time>2026-09-01T20:03:25Z</time>
  <course>10.6</course>
  <speed>0.17029386365926402</speed>
  <fix>3d</fix>
</trkpt>
<trkpt lat="-27.2744358" lon="151.2900642">
  <ele>346.96</ele>
  <time>2026-09-01T20:03:25Z</time>
  <course>10.61</course>
  <speed>0.15033296378372907</speed>
  <fix>3d</fix>
</trkpt>
<trkpt lat="-27.274436" lon="151.2900641">
  <ele>346.61</ele>
  <time>2026-09-01T20:03:25Z</time>
  <course>4.15</course>
  <speed>0.21</speed>
  <fix>3d</fix>
</trkpt>
<trkpt lat="-27.2744358" lon="151.2900642">
  <ele>347.0</ele>
  <time>2026-09-01T20:03:25Z</time>
  <course>10.61</course>
  <speed>0.15033296378372907</speed>
  <fix>3d</fix>
</trkpt>
<trkpt lat="-27.2744357" lon="151.2900642">
  <ele>347.09</ele>
  <time>2026-09-01T20:03:25Z</time>
  <course>10.62</course>
  <speed>0.130384048104053</speed>
  <fix>3d</fix>
</trkpt>
<trkpt lat="-27.274436" lon="151.2900641">
  <ele>346.61</ele>
  <time>2026-09-01T20:03:25Z</time>
  <course>4.15</course>
  <speed>0.21</speed>
  <fix>3d</fix>
</trkpt>
<trkpt lat="-27.2744357" lon="151.2900642">
  <ele>347.1</ele>
  <time>2026-09-01T20:03:25Z</time>
  <course>10.62</course>
  <speed>0.130384048104053</speed>
  <fix>3d</fix>
</trkpt>
<trkpt lat="-27.2744355" lon="151.2900642">
  <ele>347.23</ele>
  <time>2026-09-01T20:03:25Z</time>
  <course>10.63</course>
  <speed>0.11</speed>
  <fix>3d</fix>
</trkpt>
<trkpt lat="-27.2744356" lon="151.2900642">
  <ele>346.9</ele>
  <time>2026-09-01T20:03:25Z</time>
  <course>4.4</course>
  <speed>0.17</speed>
  <fix>3d</fix>
</trkpt>
<trkpt lat="-27.2744355" lon="151.2900642">
  <ele>347.23</ele>
  <time>2026-09-01T20:03:25Z</time>
  <course>10.63</course>
  <speed>0.11</speed>
  <fix>3d</fix>
</trkpt>
<trkpt lat="-27.2744354" lon="151.2900642">
  <ele>347.36</ele>
  <time>2026-09-01T20:03:25Z</time>
  <course>10.63</course>
  <speed>0.08</speed>
  <fix>3d</fix>
</trkpt>
<trkpt lat="-27.2744356" lon="151.2900642">
  <ele>346.9</ele>
  <time>2026-09-01T20:03:25Z</time>
  <course>4.4</course>
  <speed>0.17</speed>
  <fix>3d</fix>
</trkpt>
<trkpt lat="-27.2744354" lon="151.2900642">
  <ele>347.39</ele>
  <time>2026-09-01T20:03:25Z</time>
  <course>10.63</course>
  <speed>0.08</speed>
  <fix>3d</fix>
</trkpt>
<trkpt lat="-27.2744353" lon="151.2900642">
  <ele>347.49</ele>
  <time>2026-09-01T20:03:25Z</time>
  <course>10.64</course>
  <speed>0.06</speed>
  <fix>3d</fix>
</trkpt>
<trkpt lat="-27.2744354" lon="151.2900642">
  <ele>347.16</ele>
  <time>2026-09-01T20:03:25Z</time>
  <course>5.1</course>
  <speed>0.12</speed>
  <fix>3d</fix>
</trkpt>
<trkpt lat="-27.2744353" lon="151.2900642">
  <ele>347.52</ele>
  <time>2026-09-01T20:03:25Z</time>
  <course>10.64</course>
  <speed>0.05</speed>
  <fix>3d</fix>
</trkpt>
<trkpt lat="-27.2744353" lon="151.2900642">
  <ele>347.61</ele>
  <time>2026-09-01T20:03:25Z</time>
  <course>10.64</course>
  <speed>0.03</speed>
  <fix>3d</fix>
</trkpt>
<trkpt lat="-27.2744354" lon="151.2900642">
  <ele>347.16</ele>
  <time>2026-09-01T20:03:25Z</time>
  <course>5.1</course>
  <speed>0.12</speed>
  <fix>3d</fix>
</trkpt>
<trkpt lat="-27.2744353" lon="151.2900642">
  <ele>347.65</ele>
  <time>2026-09-01T20:03:25Z</time>
  <course>10.65</course>
  <speed>0.03</speed>
  <fix>3d</fix>
</trkpt>
<trkpt lat="-27.2744352" lon="151.2900642">
  <ele>347.74</ele>
  <time>2026-09-01T20:03:25Z</time>
  <course>10.65</course>
  <speed>0.01</speed>
  <fix>3d</fix>
</trkpt>
<trkpt lat="-27.2744352" lon="151.2900642">
  <ele>347.41</ele>
  <time>2026-09-01T20:03:25Z</time>
  <course>7.06</course>
  <speed>0.07</speed>
  <fix>3d</fix>
</trkpt>
<trkpt lat="-27.2744352" lon="151.2900642">
  <ele>347.77</ele>
  <time>2026-09-01T20:03:25Z</time>
  <course>10.65</course>
  <speed>0.0</speed>
  <fix>3d</fix>
</trkpt>
<trkpt lat="-27.2744352" lon="151.2900642">
  <ele>347.87</ele>
  <time>2026-09-01T20:03:25Z</time>
  <course>10.66</course>
  <speed>0.0</speed>
  <fix>3d</fix>
</trkpt>
<trkpt lat="-27.2744352" lon="151.2900642">
  <ele>347.41</ele>
  <time>2026-09-01T20:03:25Z</time>
  <course>7.06</course>
  <speed>0.07</speed>
  <fix>3d</fix>
</trkpt>
<trkpt lat="-27.2744352" lon="151.2900642">
  <ele>347.9</ele>
  <time>2026-09-01T20:03:25Z</time>
  <course>10.67</course>
  <speed>0.01</speed>
  <fix>3d</fix>
</trkpt>
<trkpt lat="-27.2744352" lon="151.2900642">
  <ele>348.0</ele>
  <time>2026-09-01T20:03:25Z</time>
  <course>10.69</course>
  <speed>0.02</speed>
  <fix>3d</fix>
</trkpt>
<trkpt lat="-27.2744351" lon="151.2900642">
  <ele>347.68</ele>
  <time>2026-09-01T20:03:25Z</time>
  <course>15.02</course>
  <speed>0.03</speed>
  <fix>3d</fix>
</trkpt>
<trkpt lat="-27.2744352" lon="151.2900642">
  <ele>348.04</ele>
  <time>2026-09-01T20:03:25Z</time>
  <course>10.69</course>
  <speed>0.03</speed>
  <fix>3d</fix>
</trkpt>
<trkpt lat="-27.2744352" lon="151.2900642">
  <ele>348.13</ele>
  <time>2026-09-01T20:03:25Z</time>
  <course>10.72</course>
  <speed>0.04</speed>
  <fix>3d</fix>
</trkpt>
<trkpt lat="-27.2744351" lon="151.2900642">
  <ele>347.68</ele>
  <time>2026-09-01T20:03:25Z</time>
  <course>15.02</course>
  <speed>0.03</speed>
  <fix>3d</fix>
</trkpt>
<trkpt lat="-27.2744352" lon="151.2900642">
  <ele>348.16</ele>
  <time>2026-09-01T20:03:25Z</time>
  <course>10.74</course>
  <speed>0.04</speed>
  <fix>3d</fix>
</trkpt>
<trkpt lat="-27.2744353" lon="151.2900642">
  <ele>348.27</ele>
  <time>2026-09-01T20:03:25Z</time>
  <course>10.81</course>
  <speed>0.06082762530298219</speed>
  <fix>3d</fix>
</trkpt>
<trkpt lat="-27.2744351" lon="151.2900642">
  <ele>347.94</ele>
  <time>2026-09-01T20:03:25Z</time>
  <course>157.13</course>
  <speed>0.01</speed>
  <fix>3d</fix>
</trkpt>
<trkpt lat="-27.2744353" lon="151.2900642">
  <ele>348.27</ele>
  <time>2026-09-01T20:03:25Z</time>
  <course>10.81</course>
  <speed>0.06082762530298219</speed>
  <fix>3d</fix>
</trkpt>
<trkpt lat="-27.2744353" lon="151.2900642">
  <ele>348.4</ele>
  <time>2026-09-01T20:03:25Z</time>
  <course>10.95</course>
  <speed>0.07071067811865475</speed>
  <fix>3d</fix>
</trkpt>
<trkpt lat="-27.2744351" lon="151.2900642">
  <ele>347.94</ele>
  <time>2026-09-01T20:03:25Z</time>
  <course>157.13</course>
  <speed>0.01</speed>
  <fix>3d</fix>
</trkpt>
<trkpt lat="-27.2744353" lon="151.2900642">
  <ele>348.41</ele>
  <time>2026-09-01T20:03:25Z</time>
  <course>10.95</course>
  <speed>0.07071067811865475</speed>
  <fix>3d</fix>
</trkpt>
<trkpt lat="-27.2744353" lon="151.2900642">
  <ele>348.54</ele>
  <time>2026-09-01T20:03:25Z</time>
  <course>11.04</course>
  <speed>0.08062257748298549</speed>
  <fix>3d</fix>
</trkpt>
<trkpt lat="-27.2744351" lon="151.2900642">
  <ele>348.2</ele>
  <time>2026-09-01T20:03:25Z</time>
  <course>180.61</course>
  <speed>0.04</speed>
  <fix>3d</fix>
</trkpt>
<trkpt lat="-27.2744353" lon="151.2900642">
  <ele>348.55</ele>
  <time>2026-09-01T20:03:25Z</time>
  <course>11.04</course>
  <speed>0.09055385138137417</speed>
  <fix>3d</fix>
</trkpt>
<trkpt lat="-27.2744354" lon="151.2900642">
  <ele>348.69</ele>
  <time>2026-09-01T20:03:25Z</time>
  <course>11.09</course>
  <speed>0.1004987562112089</speed>
  <fix>3d</fix>
</trkpt>
<trkpt lat="-27.2744351" lon="151.2900642">
  <ele>348.2</ele>
  <time>2026-09-01T20:03:25Z</time>
  <course>180.61</course>
  <speed>0.04</speed>
  <fix>3d</fix>
</trkpt>
<trkpt lat="-27.2744354" lon="151.2900642">
  <ele>348.69</ele>
  <time>2026-09-01T20:03:25Z</time>
  <course>11.09</course>
  <speed>0.1004987562112089</speed>
  <fix>3d</fix>
</trkpt>
<trkpt lat="-27.2744354" lon="151.2900642">
  <ele>348.83</ele>
  <time>2026-09-01T20:03:25Z</time>
  <course>11.11</course>
  <speed>0.1019803902718557</speed>
  <fix>3d</fix>
</trkpt>
<trkpt lat="-27.2744352" lon="151.2900642">
  <ele>348.48</ele>
  <time>2026-09-01T20:03:25Z</time>
  <course>184.84</course>
  <speed>0.07</speed>
  <fix>3d</fix>
</trkpt>
<trkpt lat="-27.2744355" lon="151.2900642">
  <ele>348.87</ele>
  <time>2026-09-01T20:03:25Z</time>
  <course>11.11</course>
  <speed>0.1118033988749895</speed>
  <fix>3d</fix>
</trkpt>
<trkpt lat="-27.2744355" lon="151.2900642">
  <ele>348.98</ele>
  <time>2026-09-01T20:03:25Z</time>
  <course>11.11</course>
  <speed>0.1118033988749895</speed>
  <fix>3d</fix>
</trkpt>
<trkpt lat="-27.2744352" lon="151.2900642">
  <ele>348.48</ele>
  <time>2026-09-01T20:03:25Z</time>
  <course>184.84</course>
  <speed>0.07</speed>
  <fix>3d</fix>
</trkpt>
<trkpt lat="-27.2744355" lon="151.2900642">
  <ele>349.02</ele>
  <time>2026-09-01T20:03:25Z</time>
  <course>11.11</course>
  <speed>0.12165525060596438</speed>
  <fix>3d</fix>
</trkpt>
<trkpt lat="-27.2744356" lon="151.2900642">
  <ele>349.13</ele>
  <time>2026-09-01T20:03:25Z</time>
  <course>11.1</course>
  <speed>0.12165525060596438</speed>
  <fix>3d</fix>
</trkpt>
<trkpt lat="-27.2744353" lon="151.2900642">
  <ele>348.77</ele>
  <time>2026-09-01T20:03:25Z</time>
  <course>185.36</course>
  <speed>0.1</speed>
  <fix>3d</fix>
</trkpt>
<trkpt lat="-27.2744356" lon="151.2900642">
  <ele>349.17</ele>
  <time>2026-09-01T20:03:25Z</time>
  <course>11.1</course>
  <speed>0.12165525060596438</speed>
  <fix>3d</fix>
</trkpt>
<trkpt lat="-27.2744357" lon="151.2900642">
  <ele>349.28</ele>
  <time>2026-09-01T20:03:25Z</time>
  <course>11.09</course>
  <speed>0.13152946437965907</speed>
  <fix>3d</fix>
</trkpt>
<trkpt lat="-27.2744353" lon="151.2900642">
  <ele>348.77</ele>
  <time>2026-09-01T20:03:25Z</time>
  <course>185.36</course>
  <speed>0.1</speed>
  <fix>3d</fix>
</trkpt>
<trkpt lat="-27.2744357" lon="151.2900642">
  <ele>349.31</ele>
  <time>2026-09-01T20:03:25Z</time>
  <course>11.08</course>
  <speed>0.13152946437965907</speed>
  <fix>3d</fix>
</trkpt>
<trkpt lat="-27.2744358" lon="151.2900641">
  <ele>349.43</ele>
  <time>2026-09-01T20:03:25Z</time>
  <course>11.06</course>
  <speed>0.13152946437965907</speed>
  <fix>3d</fix>
</trkpt>
<trkpt lat="-27.2744355" lon="151.2900642">
  <ele>349.06</ele>
  <time>2026-09-01T20:03:25Z</time>
  <course>185.74</course>
  <speed>0.11</speed>
  <fix>3d</fix>
</trkpt>
<trkpt lat="-27.2744358" lon="151.2900641">
  <ele>349.46</ele>
  <time>2026-09-01T20:03:25Z</time>
  <course>11.06</course>
  <speed>0.13152946437965907</speed>
  <fix>3d</fix>
</trkpt>
<trkpt lat="-27.2744359" lon="151.2900641">
  <ele>349.57</ele>
  <time>2026-09-01T20:03:25Z</time>
  <course>11.04</course>
  <speed>0.140356688476182</speed>
  <fix>3d</fix>
</trkpt>
<trkpt lat="-27.2744355" lon="151.2900642">
  <ele>349.06</ele>
  <time>2026-09-01T20:03:25Z</time>
  <course>185.74</course>
  <speed>0.11</speed>
  <fix>3d</fix>
</trkpt>
<trkpt lat="-27.2744359" lon="151.2900641">
  <ele>349.61</ele>
  <time>2026-09-01T20:03:25Z</time>
  <course>11.04</course>
  <speed>0.1414213562373095</speed>
  <fix>3d</fix>
</trkpt>
<trkpt lat="-27.274436" lon="151.2900641">
  <ele>349.72</ele>
  <time>2026-09-01T20:03:25Z</time>
  <course>11.02</course>
  <speed>0.140356688476182</speed>
  <fix>3d</fix>
</trkpt>
<trkpt lat="-27.2744358" lon="151.2900642">
  <ele>349.36</ele>
  <time>2026-09-01T20:03:25Z</time>
  <course>186.01</course>
  <speed>0.13</speed>
  <fix>3d</fix>
</trkpt>
<trkpt lat="-27.2744361" lon="151.2900641">
  <ele>349.78</ele>
  <time>2026-09-01T20:03:25Z</time>
  <course>11.01</course>
  <speed>0.140356688476182</speed>
  <fix>3d</fix>
</trkpt>
<trkpt lat="-27.2744362" lon="151.2900641">
  <ele>349.86</ele>
  <time>2026-09-01T20:03:25Z</time>
  <course>11.0</course>
  <speed>0.140356688476182</speed>
  <fix>3d</fix>
</trkpt>
<trkpt lat="-27.2744358" lon="151.2900642">
  <ele>349.36</ele>
  <time>2026-09-01T20:03:25Z</time>
  <course>186.01</course>
  <speed>0.13</speed>
  <fix>3d</fix>
</trkpt>
<trkpt lat="-27.2744362" lon="151.2900641">
  <ele>349.9</ele>
  <time>2026-09-01T20:03:25Z</time>
  <course>11.0</course>
  <speed>0.140356688476182</speed>
  <fix>3d</fix>
</trkpt>
<trkpt lat="-27.2744363" lon="151.2900641">
  <ele>350.01</ele>
  <time>2026-09-01T20:03:25Z</time>
  <course>11.0</course>
  <speed>0.15033296378372907</speed>
  <fix>3d</fix>
</trkpt>
<trkpt lat="-27.274436" lon="151.2900642">
  <ele>349.65</ele>
  <time>2026-09-01T20:03:25Z</time>
  <course>186.01</course>
  <speed>0.14</speed>
  <fix>3d</fix>
</trkpt>
<trkpt lat="-27.2744363" lon="151.2900641">
  <ele>350.06</ele>
  <time>2026-09-01T20:03:25Z</time>
  <course>11.0</course>
  <speed>0.15033296378372907</speed>
  <fix>3d</fix>
</trkpt>
<trkpt lat="-27.2744364" lon="151.2900641">
  <ele>350.15</ele>
  <time>2026-09-01T20:03:25Z</time>
  <course>10.99</course>
  <speed>0.15033296378372907</speed>
  <fix>3d</fix>
</trkpt>
<trkpt lat="-27.274436" lon="151.2900642">
  <ele>349.65</ele>
  <time>2026-09-01T20:03:25Z</time>
  <course>186.01</course>
  <speed>0.14</speed>
  <fix>3d</fix>
</trkpt>
<trkpt lat="-27.2744364" lon="151.2900641">
  <ele>350.16</ele>
  <time>2026-09-01T20:03:25Z</time>
  <course>10.99</course>
  <speed>0.15033296378372907</speed>
  <fix>3d</fix>
</trkpt>
<trkpt lat="-27.2744365" lon="151.2900641">
  <ele>350.3</ele>
  <time>2026-09-01T20:03:25Z</time>
  <course>10.99</course>
  <speed>0.15033296378372907</speed>
  <fix>3d</fix>
</trkpt>
<trkpt lat="-27.2744362" lon="151.2900642">
  <ele>349.95</ele>
  <time>2026-09-01T20:03:25Z</time>
  <course>186.09</course>
  <speed>0.14</speed>
  <fix>3d</fix>
</trkpt>
<trkpt lat="-27.2744365" lon="151.2900641">
  <ele>350.31</ele>
  <time>2026-09-01T20:03:25Z</time>
  <course>10.99</course>
  <speed>0.15033296378372907</speed>
  <fix>3d</fix>
</trkpt>
<trkpt lat="-27.2744367" lon="151.2900641">
  <ele>350.45</ele>
  <time>2026-09-01T20:03:25Z</time>
  <course>10.99</course>
  <speed>0.15033296378372907</speed>
  <fix>3d</fix>
</trkpt>
<trkpt lat="-27.2744362" lon="151.2900642">
  <ele>349.95</ele>
  <time>2026-09-01T20:03:25Z</time>
  <course>186.09</course>
  <speed>0.14</speed>
  <fix>3d</fix>
</trkpt>
<trkpt lat="-27.2744367" lon="151.2900641">
  <ele>350.5</ele>
  <time>2026-09-01T20:03:25Z</time>
  <course>10.99</course>
  <speed>0.15033296378372907</speed>
  <fix>3d</fix>
</trkpt>
<trkpt lat="-27.2744368" lon="151.2900641">
  <ele>350.59</ele>
  <time>2026-09-01T20:03:25Z</time>
  <course>11.0</course>
  <speed>0.15033296378372907</speed>
  <fix>3d</fix>
</trkpt>
<trkpt lat="-27.2744365" lon="151.2900642">
  <ele>350.24</ele>
  <time>2026-09-01T20:03:25Z</time>
  <course>186.07</course>
  <speed>0.15</speed>
  <fix>3d</fix>
</trkpt>
<trkpt lat="-27.2744368" lon="151.2900641">
  <ele>350.6</ele>
  <time>2026-09-01T20:03:25Z</time>
  <course>11.0</course>
  <speed>0.15033296378372907</speed>
  <fix>3d</fix>
</trkpt>
<trkpt lat="-27.2744369" lon="151.2900641">
  <ele>350.74</ele>
  <time>2026-09-01T20:03:25Z</time>
  <course>11.02</course>
  <speed>0.15033296378372907</speed>
  <fix>3d</fix>
</trkpt>
<trkpt lat="-27.2744365" lon="151.2900642">
  <ele>350.24</ele>
  <time>2026-09-01T20:03:25Z</time>
  <course>186.07</course>
  <speed>0.15</speed>
  <fix>3d</fix>
</trkpt>
<trkpt lat="-27.2744369" lon="151.2900641">
  <ele>350.78</ele>
  <time>2026-09-01T20:03:25Z</time>
  <course>11.02</course>
  <speed>0.15033296378372907</speed>
  <fix>3d</fix>
</trkpt>
<trkpt lat="-27.274437" lon="151.2900641">
  <ele>350.89</ele>
  <time>2026-09-01T20:03:25Z</time>
  <course>11.03</course>
  <speed>0.15033296378372907</speed>
  <fix>3d</fix>
</trkpt>
<trkpt lat="-27.2744367" lon="151.2900642">
  <ele>350.53</ele>
  <time>2026-09-01T20:03:25Z</time>
  <course>186.12</course>
  <speed>0.15</speed>
  <fix>3d</fix>
</trkpt>
<trkpt lat="-27.2744371" lon="151.2900641">
  <ele>350.92</ele>
  <time>2026-09-01T20:03:25Z</time>
  <course>11.03</course>
  <speed>0.15033296378372907</speed>
  <fix>3d</fix>
</trkpt>
<trkpt lat="-27.2744372" lon="151.2900641">
  <ele>351.03</ele>
  <time>2026-09-01T20:03:25Z</time>
  <course>11.02</course>
  <speed>0.15033296378372907</speed>
  <fix>3d</fix>
</trkpt>
<trkpt lat="-27.2744367" lon="151.2900642">
  <ele>350.53</ele>
  <time>2026-09-01T20:03:25Z</time>
  <course>186.12</course>
  <speed>0.15</speed>
  <fix>3d</fix>
</trkpt>
<trkpt lat="-27.2744372" lon="151.2900641">
  <ele>351.07</ele>
  <time>2026-09-01T20:03:25Z</time>
  <course>11.02</course>
  <speed>0.15033296378372907</speed>
  <fix>3d</fix>
</trkpt>
<trkpt lat="-27.2744373" lon="151.2900641">
  <ele>351.18</ele>
  <time>2026-09-01T20:03:25Z</time>
  <course>11.0</course>
  <speed>0.15033296378372907</speed>
  <fix>3d</fix>
</trkpt>
<trkpt lat="-27.274437" lon="151.2900641">
  <ele>350.82</ele>
  <time>2026-09-01T20:03:25Z</time>
  <course>186.49</course>
  <speed>0.15</speed>
  <fix>3d</fix>
</trkpt>
<trkpt lat="-27.2744373" lon="151.2900641">
  <ele>351.22</ele>
  <time>2026-09-01T20:03:25Z</time>
  <course>11.0</course>
  <speed>0.15033296378372907</speed>
  <fix>3d</fix>
</trkpt>
<trkpt lat="-27.2744374" lon="151.2900641">
  <ele>351.32</ele>
  <time>2026-09-01T20:03:25Z</time>
  <course>10.98</course>
  <speed>0.15</speed>
  <fix>3d</fix>
</trkpt>
<trkpt lat="-27.274437" lon="151.2900641">
  <ele>350.82</ele>
  <time>2026-09-01T20:03:25Z</time>
  <course>186.49</course>
  <speed>0.15</speed>
  <fix>3d</fix>
</trkpt>
<trkpt lat="-27.2744375" lon="151.2900641">
  <ele>351.36</ele>
  <time>2026-09-01T20:03:25Z</time>
  <course>10.97</course>
  <speed>0.15</speed>
  <fix>3d</fix>
</trkpt>
<trkpt lat="-27.2744376" lon="151.2900641">
  <ele>351.47</ele>
  <time>2026-09-01T20:03:25Z</time>
  <course>10.95</course>
  <speed>0.15</speed>
  <fix>3d</fix>
</trkpt>
<trkpt lat="-27.2744373" lon="151.2900641">
  <ele>351.11</ele>
  <time>2026-09-01T20:03:25Z</time>
  <course>186.71</course>
  <speed>0.15</speed>
  <fix>3d</fix>
</trkpt>
<trkpt lat="-27.2744376" lon="151.2900641">
  <ele>351.51</ele>
  <time>2026-09-01T20:03:25Z</time>
  <course>10.93</course>
  <speed>0.15</speed>
  <fix>3d</fix>
</trkpt>
<trkpt lat="-27.2744377" lon="151.2900641">
  <ele>351.61</ele>
  <time>2026-09-01T20:03:25Z</time>
  <course>10.9</course>
  <speed>0.14</speed>
  <fix>3d</fix>
</trkpt>
<trkpt lat="-27.2744373" lon="151.2900641">
  <ele>351.11</ele>
  <time>2026-09-01T20:03:25Z</time>
  <course>186.71</course>
  <speed>0.15</speed>
  <fix>3d</fix>
</trkpt>
<trkpt lat="-27.2744377" lon="151.2900641">
  <ele>351.65</ele>
  <time>2026-09-01T20:03:25Z</time>
  <course>10.89</course>
  <speed>0.14</speed>
  <fix>3d</fix>
</trkpt>
<trkpt lat="-27.2744378" lon="151.2900641">
  <ele>351.76</ele>
  <time>2026-09-01T20:03:25Z</time>
  <course>10.85</course>
  <speed>0.14</speed>
  <fix>3d</fix>
</trkpt>
<trkpt lat="-27.2744376" lon="151.290064">
  <ele>351.4</ele>
  <time>2026-09-01T20:03:25Z</time>
  <course>186.68</course>
  <speed>0.14</speed>
  <fix>3d</fix>
</trkpt>
<trkpt lat="-27.2744378" lon="151.2900641">
  <ele>351.76</ele>
  <time>2026-09-01T20:03:25Z</time>
  <course>10.85</course>
  <speed>0.14</speed>
  <fix>3d</fix>
</trkpt>
<trkpt lat="-27.2744379" lon="151.2900641">
  <ele>351.9</ele>
  <time>2026-09-01T20:03:25Z</time>
  <course>10.82</course>
  <speed>0.14</speed>
  <fix>3d</fix>
</trkpt>
<trkpt lat="-27.2744376" lon="151.290064">
  <ele>351.4</ele>
  <time>2026-09-01T20:03:25Z</time>
  <course>186.68</course>
  <speed>0.14</speed>
  <fix>3d</fix>
</trkpt>
<trkpt lat="-27.2744379" lon="151.2900641">
  <ele>351.91</ele>
  <time>2026-09-01T20:03:25Z</time>
  <course>10.82</course>
  <speed>0.14</speed>
  <fix>3d</fix>
</trkpt>
<trkpt lat="-27.2744381" lon="151.2900641">
  <ele>352.04</ele>
  <time>2026-09-01T20:03:25Z</time>
  <course>10.79</course>
  <speed>0.14</speed>
  <fix>3d</fix>
</trkpt>
<trkpt lat="-27.2744378" lon="151.290064">
  <ele>351.68</ele>
  <time>2026-09-01T20:03:25Z</time>
  <course>186.71</course>
  <speed>0.14</speed>
  <fix>3d</fix>
</trkpt>
<trkpt lat="-27.2744381" lon="151.2900641">
  <ele>352.05</ele>
  <time>2026-09-01T20:03:25Z</time>
  <course>10.79</course>
  <speed>0.14</speed>
  <fix>3d</fix>
</trkpt>
<trkpt lat="-27.2744382" lon="151.290064">
  <ele>352.18</ele>
  <time>2026-09-01T20:03:25Z</time>
  <course>10.78</course>
  <speed>0.13</speed>
  <fix>3d</fix>
</trkpt>
<trkpt lat="-27.2744378" lon="151.290064">
  <ele>351.68</ele>
  <time>2026-09-01T20:03:25Z</time>
  <course>186.71</course>
  <speed>0.14</speed>
  <fix>3d</fix>
</trkpt>
<trkpt lat="-27.2744382" lon="151.290064">
  <ele>352.22</ele>
  <time>2026-09-01T20:03:25Z</time>
  <course>10.77</course>
  <speed>0.13</speed>
  <fix>3d</fix>
</trkpt>
<trkpt lat="-27.2744383" lon="151.290064">
  <ele>352.33</ele>
  <time>2026-09-01T20:03:25Z</time>
  <course>10.76</course>
  <speed>0.13</speed>
  <fix>3d</fix>
</trkpt>
<trkpt lat="-27.2744381" lon="151.290064">
  <ele>351.97</ele>
  <time>2026-09-01T20:03:25Z</time>
  <course>186.79</course>
  <speed>0.13</speed>
  <fix>3d</fix>
</trkpt>
<trkpt lat="-27.2744383" lon="151.290064">
  <ele>352.36</ele>
  <time>2026-09-01T20:03:25Z</time>
  <course>10.75</course>
  <speed>0.13</speed>
  <fix>3d</fix>
</trkpt>
<trkpt lat="-27.2744384" lon="151.290064">
  <ele>352.47</ele>
  <time>2026-09-01T20:03:25Z</time>
  <course>10.74</course>
  <speed>0.13</speed>
  <fix>3d</fix>
</trkpt>
<trkpt lat="-27.2744381" lon="151.290064">
  <ele>351.97</ele>
  <time>2026-09-01T20:03:25Z</time>
  <course>186.79</course>
  <speed>0.13</speed>
  <fix>3d</fix>
</trkpt>
<trkpt lat="-27.2744384" lon="151.290064">
  <ele>352.5</ele>
  <time>2026-09-01T20:03:25Z</time>
  <course>10.74</course>
  <speed>0.12</speed>
  <fix>3d</fix>
</trkpt>
<trkpt lat="-27.2744385" lon="151.290064">
  <ele>352.61</ele>
  <time>2026-09-01T20:03:25Z</time>
  <course>10.74</course>
  <speed>0.12</speed>
  <fix>3d</fix>
</trkpt>
<trkpt lat="-27.2744383" lon="151.2900639">
  <ele>352.26</ele>
  <time>2026-09-01T20:03:25Z</time>
  <course>186.81</course>
  <speed>0.12</speed>
  <fix>3d</fix>
</trkpt>
<trkpt lat="-27.2744385" lon="151.290064">
  <ele>352.62</ele>
  <time>2026-09-01T20:03:25Z</time>
  <course>10.74</course>
  <speed>0.12</speed>
  <fix>3d</fix>
</trkpt>
<trkpt lat="-27.2744386" lon="151.290064">
  <ele>352.75</ele>
  <time>2026-09-01T20:03:25Z</time>
  <course>10.74</course>
  <speed>0.12</speed>
  <fix>3d</fix>
</trkpt>
<trkpt lat="-27.2744383" lon="151.2900639">
  <ele>352.26</ele>
  <time>2026-09-01T20:03:25Z</time>
  <course>186.81</course>
  <speed>0.12</speed>
  <fix>3d</fix>
</trkpt>
<trkpt lat="-27.2744386" lon="151.290064">
  <ele>352.76</ele>
  <time>2026-09-01T20:03:25Z</time>
  <course>10.74</course>
  <speed>0.12</speed>
  <fix>3d</fix>
</trkpt>
<trkpt lat="-27.2744387" lon="151.290064">
  <ele>352.89</ele>
  <time>2026-09-01T20:03:25Z</time>
  <course>10.73</course>
  <speed>0.11</speed>
  <fix>3d</fix>
</trkpt>
<trkpt lat="-27.2744385" lon="151.2900639">
  <ele>352.54</ele>
  <time>2026-09-01T20:03:25Z</time>
  <course>187.01</course>
  <speed>0.11</speed>
  <fix>3d</fix>
</trkpt>
<trkpt lat="-27.2744387" lon="151.290064">
  <ele>352.93</ele>
  <time>2026-09-01T20:03:25Z</time>
  <course>10.73</course>
  <speed>0.11</speed>
  <fix>3d</fix>
</trkpt>
<trkpt lat="-27.2744388" lon="151.290064">
  <ele>353.03</ele>
  <time>2026-09-01T20:03:25Z</time>
  <course>10.72</course>
  <speed>0.11</speed>
  <fix>3d</fix>
</trkpt>
<trkpt lat="-27.2744385" lon="151.2900639">
  <ele>352.54</ele>
  <time>2026-09-01T20:03:25Z</time>
  <course>187.01</course>
  <speed>0.11</speed>
  <fix>3d</fix>
</trkpt>
<trkpt lat="-27.2744388" lon="151.290064">
  <ele>353.07</ele>
  <time>2026-09-01T20:03:25Z</time>
  <course>10.72</course>
  <speed>0.11</speed>
  <fix>3d</fix>
</trkpt>
<trkpt lat="-27.2744389" lon="151.290064">
  <ele>353.17</ele>
  <time>2026-09-01T20:03:25Z</time>
  <course>10.71</course>
  <speed>0.1</speed>
  <fix>3d</fix>
</trkpt>
<trkpt lat="-27.2744388" lon="151.2900639">
  <ele>352.83</ele>
  <time>2026-09-01T20:03:25Z</time>
  <course>186.98</course>
  <speed>0.1</speed>
  <fix>3d</fix>
</trkpt>
<trkpt lat="-27.2744389" lon="151.290064">
  <ele>353.22</ele>
  <time>2026-09-01T20:03:25Z</time>
  <course>10.71</course>
  <speed>0.1</speed>
  <fix>3d</fix>
</trkpt>
<trkpt lat="-27.274439" lon="151.290064">
  <ele>353.32</ele>
  <time>2026-09-01T20:03:25Z</time>
  <course>10.7</course>
  <speed>0.1</speed>
  <fix>3d</fix>
</trkpt>
<trkpt lat="-27.2744388" lon="151.2900639">
  <ele>352.83</ele>
  <time>2026-09-01T20:03:25Z</time>
  <course>186.98</course>
  <speed>0.1</speed>
  <fix>3d</fix>
</trkpt>
<trkpt lat="-27.274439" lon="151.290064">
  <ele>353.32</ele>
  <time>2026-09-01T20:03:25Z</time>
  <course>10.7</course>
  <speed>0.1</speed>
  <fix>3d</fix>
</trkpt>
<trkpt lat="-27.2744391" lon="151.290064">
  <ele>353.46</ele>
  <time>2026-09-01T20:03:25Z</time>
  <course>10.69</course>
  <speed>0.1004987562112089</speed>
  <fix>3d</fix>
</trkpt>
<trkpt lat="-27.2744389" lon="151.2900639">
  <ele>353.11</ele>
  <time>2026-09-01T20:03:25Z</time>
  <course>186.82</course>
  <speed>0.09</speed>
  <fix>3d</fix>
</trkpt>
<trkpt lat="-27.2744391" lon="151.290064">
  <ele>353.47</ele>
  <time>2026-09-01T20:03:25Z</time>
  <course>10.69</course>
  <speed>0.09055385138137417</speed>
  <fix>3d</fix>
</trkpt>
<trkpt lat="-27.2744392" lon="151.290064">
  <ele>353.6</ele>
  <time>2026-09-01T20:03:25Z</time>
  <course>10.67</course>
  <speed>0.09055385138137417</speed>
  <fix>3d</fix>
</trkpt>
<trkpt lat="-27.2744389" lon="151.2900639">
  <ele>353.11</ele>
  <time>2026-09-01T20:03:25Z</time>
  <course>186.82</course>
  <speed>0.09</speed>
  <fix>3d</fix>
</trkpt>
<trkpt lat="-27.2744392" lon="151.290064">
  <ele>353.64</ele>
  <time>2026-09-01T20:03:25Z</time>
  <course>10.67</course>
  <speed>0.09055385138137417</speed>
  <fix>3d</fix>
</trkpt>
<trkpt lat="-27.2744392" lon="151.290064">
  <ele>353.75</ele>
  <time>2026-09-01T20:03:25Z</time>
  <course>10.65</course>
  <speed>0.09055385138137417</speed>
  <fix>3d</fix>
</trkpt>
<trkpt lat="-27.2744391" lon="151.2900638">
  <ele>353.4</ele>
  <time>2026-09-01T20:03:25Z</time>
  <course>187.16</course>
  <speed>0.08</speed>
  <fix>3d</fix>
</trkpt>
<trkpt lat="-27.2744393" lon="151.290064">
  <ele>353.79</ele>
  <time>2026-09-01T20:03:25Z</time>
  <course>10.65</course>
  <speed>0.08062257748298549</speed>
  <fix>3d</fix>
</trkpt>
<trkpt lat="-27.2744393" lon="151.290064">
  <ele>353.89</ele>
  <time>2026-09-01T20:03:25Z</time>
  <course>10.64</course>
  <speed>0.08</speed>
  <fix>3d</fix>
</trkpt>
<trkpt lat="-27.2744391" lon="151.2900638">
  <ele>353.4</ele>
  <time>2026-09-01T20:03:25Z</time>
  <course>187.16</course>
  <speed>0.08</speed>
  <fix>3d</fix>
</trkpt>
<trkpt lat="-27.2744393" lon="151.290064">
  <ele>353.93</ele>
  <time>2026-09-01T20:03:25Z</time>
  <course>10.64</course>
  <speed>0.08062257748298549</speed>
  <fix>3d</fix>
</trkpt>
<trkpt lat="-27.2744394" lon="151.290064">
  <ele>354.04</ele>
  <time>2026-09-01T20:03:25Z</time>
  <course>10.61</course>
  <speed>0.07071067811865475</speed>
  <fix>3d</fix>
</trkpt>
<trkpt lat="-27.2744392" lon="151.2900637">
  <ele>353.69</ele>
  <time>2026-09-01T20:03:25Z</time>
  <course>187.63</course>
  <speed>0.07</speed>
  <fix>3d</fix>
</trkpt>
<trkpt lat="-27.2744394" lon="151.290064">
  <ele>354.08</ele>
  <time>2026-09-01T20:03:25Z</time>
  <course>10.6</course>
  <speed>0.07</speed>
  <fix>3d</fix>
</trkpt>
<trkpt lat="-27.2744394" lon="151.290064">
  <ele>354.19</ele>
  <time>2026-09-01T20:03:25Z</time>
  <course>10.57</course>
  <speed>0.07071067811865475</speed>
  <fix>3d</fix>
</trkpt>
<trkpt lat="-27.2744392" lon="151.2900637">
  <ele>353.69</ele>
  <time>2026-09-01T20:03:25Z</time>
  <course>187.63</course>
  <speed>0.07</speed>
  <fix>3d</fix>
</trkpt>
<trkpt lat="-27.2744394" lon="151.290064">
  <ele>354.22</ele>
  <time>2026-09-01T20:03:25Z</time>
  <course>10.56</course>
  <speed>0.07071067811865475</speed>
  <fix>3d</fix>
</trkpt>
<trkpt lat="-27.2744395" lon="151.290064">
  <ele>354.34</ele>
  <time>2026-09-01T20:03:25Z</time>
  <course>10.55</course>
  <speed>0.06082762530298219</speed>
  <fix>3d</fix>
</trkpt>
<trkpt lat="-27.2744393" lon="151.2900637">
  <ele>353.98</ele>
  <time>2026-09-01T20:03:25Z</time>
  <course>187.27</course>
  <speed>0.06</speed>
  <fix>3d</fix>
</trkpt>
<trkpt lat="-27.2744395" lon="151.2900639">
  <ele>354.38</ele>
  <time>2026-09-01T20:03:25Z</time>
  <course>10.55</course>
  <speed>0.06082762530298219</speed>
  <fix>3d</fix>
</trkpt>
<trkpt lat="-27.2744395" lon="151.2900639">
  <ele>354.48</ele>
  <time>2026-09-01T20:03:25Z</time>
  <course>10.55</course>
  <speed>0.0632455532033676</speed>
  <fix>3d</fix>
</trkpt>
<trkpt lat="-27.2744393" lon="151.2900637">
  <ele>353.98</ele>
  <time>2026-09-01T20:03:25Z</time>
  <course>187.27</course>
  <speed>0.06</speed>
  <fix>3d</fix>
</trkpt>
<trkpt lat="-27.2744395" lon="151.2900639">
  <ele>354.52</ele>
  <time>2026-09-01T20:03:25Z</time>
  <course>10.55</course>
  <speed>0.0632455532033676</speed>
  <fix>3d</fix>
</trkpt>
<trkpt lat="-27.2744396" lon="151.2900639">
  <ele>354.63</ele>
  <time>2026-09-01T20:03:25Z</time>
  <course>10.56</course>
  <speed>0.053851648071345036</speed>
  <fix>3d</fix>
</trkpt>
<trkpt lat="-27.2744394" lon="151.2900637">
  <ele>354.27</ele>
  <time>2026-09-01T20:03:25Z</time>
  <course>186.81</course>
  <speed>0.04</speed>
  <fix>3d</fix>
</trkpt>
<trkpt lat="-27.2744396" lon="151.2900639">
  <ele>354.67</ele>
  <time>2026-09-01T20:03:25Z</time>
  <course>10.56</course>
  <speed>0.053851648071345036</speed>
  <fix>3d</fix>
</trkpt>
<trkpt lat="-27.2744396" lon="151.2900639">
  <ele>354.78</ele>
  <time>2026-09-01T20:03:25Z</time>
  <course>10.58</course>
  <speed>0.053851648071345036</speed>
  <fix>3d</fix>
</trkpt>
<trkpt lat="-27.2744394" lon="151.2900637">
  <ele>354.27</ele>
  <time>2026-09-01T20:03:25Z</time>
  <course>186.81</course>
  <speed>0.04</speed>
  <fix>3d</fix>
</trkpt>
<trkpt lat="-27.2744396" lon="151.2900639">
  <ele>354.78</ele>
  <time>2026-09-01T20:03:25Z</time>
  <course>10.58</course>
  <speed>0.053851648071345036</speed>
  <fix>3d</fix>
</trkpt>
<trkpt lat="-27.2744396" lon="151.2900639">
  <ele>354.92</ele>
  <time>2026-09-01T20:03:25Z</time>
  <course>10.58</course>
  <speed>0.044721359549995794</speed>
  <fix>3d</fix>
</trkpt>
<trkpt lat="-27.2744395" lon="151.2900637">
  <ele>354.56</ele>
  <time>2026-09-01T20:03:25Z</time>
  <course>187.86</course>
  <speed>0.03</speed>
  <fix>3d</fix>
</trkpt>
<trkpt lat="-27.2744396" lon="151.2900639">
  <ele>354.93</ele>
  <time>2026-09-01T20:03:25Z</time>
  <course>10.58</course>
  <speed>0.044721359549995794</speed>
  <fix>3d</fix>
</trkpt>
<trkpt lat="-27.2744396" lon="151.2900639">
  <ele>355.07</ele>
  <time>2026-09-01T20:03:25Z</time>
  <course>10.57</course>
  <speed>0.044721359549995794</speed>
  <fix>3d</fix>
</trkpt>
<trkpt lat="-27.2744395" lon="151.2900637">
  <ele>354.56</ele>
  <time>2026-09-01T20:03:25Z</time>
  <course>187.86</course>
  <speed>0.03</speed>
  <fix>3d</fix>
</trkpt>
<trkpt lat="-27.2744397" lon="151.2900639">
  <ele>355.07</ele>
  <time>2026-09-01T20:03:25Z</time>
  <course>10.57</course>
  <speed>0.044721359549995794</speed>
  <fix>3d</fix>
</trkpt>
<trkpt lat="-27.2744397" lon="151.2900639">
  <ele>355.21</ele>
  <time>2026-09-01T20:03:25Z</time>
  <course>10.54</course>
  <speed>0.03605551275463989</speed>
  <fix>3d</fix>
</trkpt>
<trkpt lat="-27.2744396" lon="151.2900637">
  <ele>354.84</ele>
  <time>2026-09-01T20:03:25Z</time>
  <course>189.44</course>
  <speed>0.02</speed>
  <fix>3d</fix>
</trkpt>
<trkpt lat="-27.2744397" lon="151.2900639">
  <ele>355.25</ele>
  <time>2026-09-01T20:03:25Z</time>
  <course>10.53</course>
  <speed>0.03605551275463989</speed>
  <fix>3d</fix>
</trkpt>
<trkpt lat="-27.2744397" lon="151.2900639">
  <ele>355.36</ele>
  <time>2026-09-01T20:03:25Z</time>
  <course>10.52</course>
  <speed>0.03605551275463989</speed>
  <fix>3d</fix>
</trkpt>
<trkpt lat="-27.2744396" lon="151.2900637">
  <ele>354.84</ele>
  <time>2026-09-01T20:03:25Z</time>
  <course>189.44</course>
  <speed>0.02</speed>
  <fix>3d</fix>
</trkpt>
<trkpt lat="-27.2744397" lon="151.2900639">
  <ele>355.39</ele>
  <time>2026-09-01T20:03:25Z</time>
  <course>10.51</course>
  <speed>0.03605551275463989</speed>
  <fix>3d</fix>
</trkpt>
<trkpt lat="-27.2744397" lon="151.2900639">
  <ele>355.5</ele>
  <time>2026-09-01T20:03:25Z</time>
  <course>10.48</course>
  <speed>0.0282842712474619</speed>
  <fix>3d</fix>
</trkpt>
<trkpt lat="-27.2744396" lon="151.2900637">
  <ele>355.13</ele>
  <time>2026-09-01T20:03:25Z</time>
  <course>192.41</course>
  <speed>0.01</speed>
  <fix>3d</fix>
</trkpt>
<trkpt lat="-27.2744397" lon="151.2900639">
  <ele>355.54</ele>
  <time>2026-09-01T20:03:25Z</time>
  <course>10.48</course>
  <speed>0.0282842712474619</speed>
  <fix>3d</fix>
</trkpt>
<trkpt lat="-27.2744397" lon="151.2900639">
  <ele>355.64</ele>
  <time>2026-09-01T20:03:25Z</time>
  <course>10.47</course>
  <speed>0.0282842712474619</speed>
  <fix>3d</fix>
</trkpt>
<trkpt lat="-27.2744396" lon="151.2900637">
  <ele>355.13</ele>
  <time>2026-09-01T20:03:25Z</time>
  <course>192.41</course>
  <speed>0.01</speed>
  <fix>3d</fix>
</trkpt>
<trkpt lat="-27.2744397" lon="151.2900639">
  <ele>355.67</ele>
  <time>2026-09-01T20:03:25Z</time>
  <course>10.47</course>
  <speed>0.0282842712474619</speed>
  <fix>3d</fix>
</trkpt>
<trkpt lat="-27.2744397" lon="151.2900639">
  <ele>355.78</ele>
  <time>2026-09-01T20:03:25Z</time>
  <course>10.45</course>
  <speed>0.0282842712474619</speed>
  <fix>3d</fix>
</trkpt>
<trkpt lat="-27.2744397" lon="151.2900637">
  <ele>355.41</ele>
  <time>2026-09-01T20:03:25Z</time>
  <course>207.31</course>
  <speed>0.0</speed>
  <fix>3d</fix>
</trkpt>
<trkpt lat="-27.2744397" lon="151.2900639">
  <ele>355.82</ele>
  <time>2026-09-01T20:03:25Z</time>
  <course>10.45</course>
  <speed>0.0282842712474619</speed>
  <fix>3d</fix>
</trkpt>
<trkpt lat="-27.2744397" lon="151.2900639">
  <ele>355.93</ele>
  <time>2026-09-01T20:03:25Z</time>
  <course>10.46</course>
  <speed>0.0282842712474619</speed>
  <fix>3d</fix>
</trkpt>
<trkpt lat="-27.2744397" lon="151.2900637">
  <ele>355.41</ele>
  <time>2026-09-01T20:03:25Z</time>
  <course>207.31</course>
  <speed>0.0</speed>
  <fix>3d</fix>
</trkpt>
<trkpt lat="-27.2744397" lon="151.2900639">
  <ele>355.96</ele>
  <time>2026-09-01T20:03:25Z</time>
  <course>10.46</course>
  <speed>0.0282842712474619</speed>
  <fix>3d</fix>
</trkpt>
<trkpt lat="-27.2744397" lon="151.2900639">
  <ele>356.07</ele>
  <time>2026-09-01T20:03:25Z</time>
  <course>10.46</course>
  <speed>0.022360679774997897</speed>
  <fix>3d</fix>
</trkpt>
<trkpt lat="-27.2744397" lon="151.2900637">
  <ele>355.7</ele>
  <time>2026-09-01T20:03:25Z</time>
  <course>332.38</course>
  <speed>0.0</speed>
  <fix>3d</fix>
</trkpt>
<trkpt lat="-27.2744397" lon="151.2900639">
  <ele>356.11</ele>
  <time>2026-09-01T20:03:25Z</time>
  <course>10.46</course>
  <speed>0.022360679774997897</speed>
  <fix>3d</fix>
</trkpt>
<trkpt lat="-27.2744397" lon="151.2900639">
  <ele>356.21</ele>
  <time>2026-09-01T20:03:25Z</time>
  <course>10.47</course>
  <speed>0.022360679774997897</speed>
  <fix>3d</fix>
</trkpt>
<trkpt lat="-27.2744397" lon="151.2900637">
  <ele>355.7</ele>
  <time>2026-09-01T20:03:25Z</time>
  <course>332.38</course>
  <speed>0.0</speed>
  <fix>3d</fix>
</trkpt>
<trkpt lat="-27.2744397" lon="151.2900639">
  <ele>356.25</ele>
  <time>2026-09-01T20:03:25Z</time>
  <course>10.47</course>
  <speed>0.022360679774997897</speed>
  <fix>3d</fix>
</trkpt>
<trkpt lat="-27.2744397" lon="151.2900639">
  <ele>356.35</ele>
  <time>2026-09-01T20:03:25Z</time>
  <course>10.47</course>
  <speed>0.022360679774997897</speed>
  <fix>3d</fix>
</trkpt>
<trkpt lat="-27.2744396" lon="151.2900637">
  <ele>355.99</ele>
  <time>2026-09-01T20:03:25Z</time>
  <course>349.44</course>
  <speed>0.01</speed>
  <fix>3d</fix>
</trkpt>
<trkpt lat="-27.2744397" lon="151.2900639">
  <ele>356.39</ele>
  <time>2026-09-01T20:03:25Z</time>
  <course>10.47</course>
  <speed>0.022360679774997897</speed>
  <fix>3d</fix>
</trkpt>
<trkpt lat="-27.2744397" lon="151.2900639">
  <ele>356.5</ele>
  <time>2026-09-01T20:03:25Z</time>
  <course>10.47</course>
  <speed>0.02</speed>
  <fix>3d</fix>
</trkpt>
<trkpt lat="-27.2744396" lon="151.2900637">
  <ele>355.99</ele>
  <time>2026-09-01T20:03:25Z</time>
  <course>349.44</course>
  <speed>0.01</speed>
  <fix>3d</fix>
</trkpt>
<trkpt lat="-27.2744397" lon="151.2900639">
  <ele>356.5</ele>
  <time>2026-09-01T20:03:25Z</time>
  <course>10.47</course>
  <speed>0.02</speed>
  <fix>3d</fix>
</trkpt>
<trkpt lat="-27.2744397" lon="151.2900639">
  <ele>356.64</ele>
  <time>2026-09-01T20:03:25Z</time>
  <course>10.47</course>
  <speed>0.02</speed>
  <fix>3d</fix>
</trkpt>
<trkpt lat="-27.2744396" lon="151.2900637">
  <ele>356.27</ele>
  <time>2026-09-01T20:03:25Z</time>
  <course>354.91</course>
  <speed>0.01</speed>
  <fix>3d</fix>
</trkpt>
<trkpt lat="-27.2744397" lon="151.2900639">
  <ele>356.65</ele>
  <time>2026-09-01T20:03:25Z</time>
  <course>10.47</course>
  <speed>0.02</speed>
  <fix>3d</fix>
</trkpt>
<trkpt lat="-27.2744397" lon="151.2900639">
  <ele>356.79</ele>
  <time>2026-09-01T20:03:25Z</time>
  <course>10.47</course>
  <speed>0.02</speed>
  <fix>3d</fix>
</trkpt>
<trkpt lat="-27.2744396" lon="151.2900637">
  <ele>356.27</ele>
  <time>2026-09-01T20:03:25Z</time>
  <course>354.91</course>
  <speed>0.01</speed>
  <fix>3d</fix>
</trkpt>
<trkpt lat="-27.2744397" lon="151.2900639">
  <ele>356.83</ele>
  <time>2026-09-01T20:03:25Z</time>
  <course>10.48</course>
  <speed>0.02</speed>
  <fix>3d</fix>
</trkpt>
<trkpt lat="-27.2744397" lon="151.2900639">
  <ele>356.93</ele>
  <time>2026-09-01T20:03:25Z</time>
  <course>10.47</course>
  <speed>0.02</speed>
  <fix>3d</fix>
</trkpt>
<trkpt lat="-27.2744396" lon="151.2900637">
  <ele>356.56</ele>
  <time>2026-09-01T20:03:25Z</time>
  <course>358.23</course>
  <speed>0.02</speed>
  <fix>3d</fix>
</trkpt>
<trkpt lat="-27.2744397" lon="151.2900639">
  <ele>356.97</ele>
  <time>2026-09-01T20:03:25Z</time>
  <course>10.47</course>
  <speed>0.02</speed>
  <fix>3d</fix>
</trkpt>
<trkpt lat="-27.2744397" lon="151.2900639">
  <ele>357.08</ele>
  <time>2026-09-01T20:03:25Z</time>
  <course>10.48</course>
  <speed>0.02</speed>
  <fix>3d</fix>
</trkpt>
<trkpt lat="-27.2744396" lon="151.2900637">
  <ele>356.56</ele>
  <time>2026-09-01T20:03:25Z</time>
  <course>358.23</course>
  <speed>0.02</speed>
  <fix>3d</fix>
</trkpt>
<trkpt lat="-27.2744397" lon="151.2900639">
  <ele>357.12</ele>
  <time>2026-09-01T20:03:25Z</time>
  <course>10.49</course>
  <speed>0.02</speed>
  <fix>3d</fix>
</trkpt>
<trkpt lat="-27.2744397" lon="151.2900639">
  <ele>357.22</ele>
  <time>2026-09-01T20:03:25Z</time>
  <course>10.48</course>
  <speed>0.02</speed>
  <fix>3d</fix>
</trkpt>
<trkpt lat="-27.2744396" lon="151.2900637">
  <ele>356.84</ele>
  <time>2026-09-01T20:03:25Z</time>
  <course>359.01</course>
  <speed>0.03</speed>
  <fix>3d</fix>
</trkpt>
<trkpt lat="-27.2744397" lon="151.2900639">
  <ele>357.27</ele>
  <time>2026-09-01T20:03:25Z</time>
  <course>10.48</course>
  <speed>0.02</speed>
  <fix>3d</fix>
</trkpt>
<trkpt lat="-27.2744397" lon="151.2900639">
  <ele>357.37</ele>
  <time>2026-09-01T20:03:25Z</time>
  <course>10.48</course>
  <speed>0.02</speed>
  <fix>3d</fix>
</trkpt>
<trkpt lat="-27.2744396" lon="151.2900637">
  <ele>356.84</ele>
  <time>2026-09-01T20:03:25Z</time>
  <course>359.01</course>
  <speed>0.03</speed>
  <fix>3d</fix>
</trkpt>
<trkpt lat="-27.2744397" lon="151.2900639">
  <ele>357.41</ele>
  <time>2026-09-01T20:03:25Z</time>
  <course>10.48</course>
  <speed>0.02</speed>
  <fix>3d</fix>
</trkpt>
<trkpt lat="-27.2744397" lon="151.2900639">
  <ele>357.51</ele>
  <time>2026-09-01T20:03:25Z</time>
  <course>10.47</course>
  <speed>0.02</speed>
  <fix>3d</fix>
</trkpt>
<trkpt lat="-27.2744395" lon="151.2900637">
  <ele>357.12</ele>
  <time>2026-09-01T20:03:25Z</time>
  <course>357.93</course>
  <speed>0.03</speed>
  <fix>3d</fix>
</trkpt>
<trkpt lat="-27.2744397" lon="151.2900639">
  <ele>357.55</ele>
  <time>2026-09-01T20:03:25Z</time>
  <course>10.47</course>
  <speed>0.02</speed>
  <fix>3d</fix>
</trkpt>
<trkpt lat="-27.2744397" lon="151.2900639">
  <ele>357.66</ele>
  <time>2026-09-01T20:03:25Z</time>
  <course>10.46</course>
  <speed>0.02</speed>
  <fix>3d</fix>
</trkpt>
<trkpt lat="-27.2744395" lon="151.2900637">
  <ele>357.12</ele>
  <time>2026-09-01T20:03:25Z</time>
  <course>357.93</course>
  <speed>0.03</speed>
  <fix>3d</fix>
</trkpt>
<trkpt lat="-27.2744397" lon="151.2900639">
  <ele>357.69</ele>
  <time>2026-09-01T20:03:25Z</time>
  <course>10.46</course>
  <speed>0.02</speed>
  <fix>3d</fix>
</trkpt>
<trkpt lat="-27.2744396" lon="151.2900639">
  <ele>357.8</ele>
  <time>2026-09-01T20:03:25Z</time>
  <course>10.45</course>
  <speed>0.02</speed>
  <fix>3d</fix>
</trkpt>
<trkpt lat="-27.2744395" lon="151.2900637">
  <ele>357.4</ele>
  <time>2026-09-01T20:03:25Z</time>
  <course>356.93</course>
  <speed>0.03</speed>
  <fix>3d</fix>
</trkpt>
<trkpt lat="-27.2744396" lon="151.2900639">
  <ele>357.84</ele>
  <time>2026-09-01T20:03:25Z</time>
  <course>10.45</course>
  <speed>0.02</speed>
  <fix>3d</fix>
</trkpt>
<trkpt lat="-27.2744396" lon="151.2900639">
  <ele>357.94</ele>
  <time>2026-09-01T20:03:25Z</time>
  <course>10.44</course>
  <speed>0.02</speed>
  <fix>3d</fix>
</trkpt>
<trkpt lat="-27.2744395" lon="151.2900637">
  <ele>357.4</ele>
  <time>2026-09-01T20:03:25Z</time>
  <course>356.93</course>
  <speed>0.03</speed>
  <fix>3d</fix>
</trkpt>
<trkpt lat="-27.2744396" lon="151.2900639">
  <ele>357.98</ele>
  <time>2026-09-01T20:03:25Z</time>
  <course>10.44</course>
  <speed>0.02</speed>
  <fix>3d</fix>
</trkpt>
<trkpt lat="-27.2744396" lon="151.2900639">
  <ele>358.09</ele>
  <time>2026-09-01T20:03:25Z</time>
  <course>10.44</course>
  <speed>0.02</speed>
  <fix>3d</fix>
</trkpt>
<trkpt lat="-27.2744394" lon="151.2900637">
  <ele>357.69</ele>
  <time>2026-09-01T20:03:25Z</time>
  <course>356.66</course>
  <speed>0.04</speed>
  <fix>3d</fix>
</trkpt>
<trkpt lat="-27.2744396" lon="151.2900639">
  <ele>358.09</ele>
  <time>2026-09-01T20:03:25Z</time>
  <course>10.44</course>
  <speed>0.02</speed>
  <fix>3d</fix>
</trkpt>
<trkpt lat="-27.2744396" lon="151.2900639">
  <ele>358.23</ele>
  <time>2026-09-01T20:03:25Z</time>
  <course>10.44</course>
  <speed>0.02</speed>
  <fix>3d</fix>
</trkpt>
<trkpt lat="-27.2744394" lon="151.2900637">
  <ele>357.69</ele>
  <time>2026-09-01T20:03:25Z</time>
  <course>356.66</course>
  <speed>0.04</speed>
  <fix>3d</fix>
</trkpt>
<trkpt lat="-27.2744396" lon="151.2900639">
  <ele>358.23</ele>
  <time>2026-09-01T20:03:25Z</time>
  <course>10.44</course>
  <speed>0.02</speed>
  <fix>3d</fix>
</trkpt>
<trkpt lat="-27.2744395" lon="151.2900639">
  <ele>358.37</ele>
  <time>2026-09-01T20:03:25Z</time>
  <course>10.44</course>
  <speed>0.02</speed>
  <fix>3d</fix>
</trkpt>
<trkpt lat="-27.2744393" lon="151.2900637">
  <ele>357.97</ele>
  <time>2026-09-01T20:03:25Z</time>
  <course>356.4</course>
  <speed>0.04</speed>
  <fix>3d</fix>
</trkpt>
<trkpt lat="-27.2744395" lon="151.2900639">
  <ele>358.41</ele>
  <time>2026-09-01T20:03:25Z</time>
  <course>10.44</course>
  <speed>0.02</speed>
  <fix>3d</fix>
</trkpt>
<trkpt lat="-27.2744395" lon="151.2900639">
  <ele>358.51</ele>
  <time>2026-09-01T20:03:25Z</time>
  <course>10.45</course>
  <speed>0.02</speed>
  <fix>3d</fix>
</trkpt>
<trkpt lat="-27.2744393" lon="151.2900637">
  <ele>357.97</ele>
  <time>2026-09-01T20:03:25Z</time>
  <course>356.4</course>
  <speed>0.04</speed>
  <fix>3d</fix>
</trkpt>
<trkpt lat="-27.2744395" lon="151.2900639">
  <ele>358.54</ele>
  <time>2026-09-01T20:03:25Z</time>
  <course>10.46</course>
  <speed>0.02</speed>
  <fix>3d</fix>
</trkpt>
<trkpt lat="-27.2744395" lon="151.2900639">
  <ele>358.65</ele>
  <time>2026-09-01T20:03:25Z</time>
  <course>10.46</course>
  <speed>0.02</speed>
  <fix>3d</fix>
</trkpt>
<trkpt lat="-27.2744392" lon="151.2900637">
  <ele>358.26</ele>
  <time>2026-09-01T20:03:25Z</time>
  <course>356.48</course>
  <speed>0.04</speed>
  <fix>3d</fix>
</trkpt>
<trkpt lat="-27.2744394" lon="151.2900639">
  <ele>358.7</ele>
  <time>2026-09-01T20:03:25Z</time>
  <course>10.46</course>
  <speed>0.02</speed>
  <fix>3d</fix>
</trkpt>
<trkpt lat="-27.2744394" lon="151.2900639">
  <ele>358.79</ele>
  <time>2026-09-01T20:03:25Z</time>
  <course>10.46</course>
  <speed>0.02</speed>
  <fix>3d</fix>
</trkpt>
<trkpt lat="-27.2744392" lon="151.2900637">
  <ele>358.26</ele>
  <time>2026-09-01T20:03:25Z</time>
  <course>356.48</course>
  <speed>0.04</speed>
  <fix>3d</fix>
</trkpt>
<trkpt lat="-27.2744394" lon="151.2900639">
  <ele>358.79</ele>
  <time>2026-09-01T20:03:25Z</time>
  <course>10.46</course>
  <speed>0.02</speed>
  <fix>3d</fix>
</trkpt>
<trkpt lat="-27.2744394" lon="151.2900639">
  <ele>358.93</ele>
  <time>2026-09-01T20:03:25Z</time>
  <course>10.47</course>
  <speed>0.02</speed>
  <fix>3d</fix>
</trkpt>
<trkpt lat="-27.2744392" lon="151.2900637">
  <ele>358.53</ele>
  <time>2026-09-01T20:03:25Z</time>
  <course>357.41</course>
  <speed>0.04</speed>
  <fix>3d</fix>
</trkpt>
<trkpt lat="-27.2744394" lon="151.2900639">
  <ele>358.97</ele>
  <time>2026-09-01T20:03:25Z</time>
  <course>10.47</course>
  <speed>0.02</speed>
  <fix>3d</fix>
</trkpt>
<trkpt lat="-27.2744394" lon="151.2900639">
  <ele>359.07</ele>
  <time>2026-09-01T20:03:25Z</time>
  <course>10.48</course>
  <speed>0.02</speed>
  <fix>3d</fix>
</trkpt>
<trkpt lat="-27.2744392" lon="151.2900637">
  <ele>358.53</ele>
  <time>2026-09-01T20:03:25Z</time>
  <course>357.41</course>
  <speed>0.04</speed>
  <fix>3d</fix>
</trkpt>
<trkpt lat="-27.2744393" lon="151.2900639">
  <ele>359.11</ele>
  <time>2026-09-01T20:03:25Z</time>
  <course>10.49</course>
  <speed>0.02</speed>
  <fix>3d</fix>
</trkpt>
<trkpt lat="-27.2744393" lon="151.2900639">
  <ele>359.21</ele>
  <time>2026-09-01T20:03:25Z</time>
  <course>10.49</course>
  <speed>0.02</speed>
  <fix>3d</fix>
</trkpt>
<trkpt lat="-27.2744391" lon="151.2900637">
  <ele>358.82</ele>
  <time>2026-09-01T20:03:25Z</time>
  <course>358.44</course>
  <speed>0.04</speed>
  <fix>3d</fix>
</trkpt>
<trkpt lat="-27.2744393" lon="151.2900639">
  <ele>359.25</ele>
  <time>2026-09-01T20:03:25Z</time>
  <course>10.49</course>
  <speed>0.02</speed>
  <fix>3d</fix>
</trkpt>
<trkpt lat="-27.2744393" lon="151.2900639">
  <ele>359.35</ele>
  <time>2026-09-01T20:03:25Z</time>
  <course>10.5</course>
  <speed>0.02</speed>
  <fix>3d</fix>
</trkpt>
<trkpt lat="-27.2744391" lon="151.2900637">
  <ele>358.82</ele>
  <time>2026-09-01T20:03:25Z</time>
  <course>358.44</course>
  <speed>0.04</speed>
  <fix>3d</fix>
</trkpt>
<trkpt lat="-27.2744393" lon="151.2900639">
  <ele>359.39</ele>
  <time>2026-09-01T20:03:25Z</time>
  <course>10.51</course>
  <speed>0.02</speed>
  <fix>3d</fix>
</trkpt>
<trkpt lat="-27.2744392" lon="151.2900639">
  <ele>359.5</ele>
  <time>2026-09-01T20:03:25Z</time>
  <course>10.51</course>
  <speed>0.02</speed>
  <fix>3d</fix>
</trkpt>
<trkpt lat="-27.274439" lon="151.2900637">
  <ele>359.11</ele>
  <time>2026-09-01T20:03:25Z</time>
  <course>359.23</course>
  <speed>0.04</speed>
  <fix>3d</fix>
</trkpt>
<trkpt lat="-27.2744392" lon="151.2900639">
  <ele>359.5</ele>
  <time>2026-09-01T20:03:25Z</time>
  <course>10.51</course>
  <speed>0.02</speed>
  <fix>3d</fix>
</trkpt>
<trkpt lat="-27.2744392" lon="151.2900639">
  <ele>359.64</ele>
  <time>2026-09-01T20:03:25Z</time>
  <course>10.52</course>
  <speed>0.02</speed>
  <fix>3d</fix>
</trkpt>
<trkpt lat="-27.274439" lon="151.2900637">
  <ele>359.11</ele>
  <time>2026-09-01T20:03:25Z</time>
  <course>359.23</course>
  <speed>0.04</speed>
  <fix>3d</fix>
</trkpt>
<trkpt lat="-27.2744392" lon="151.2900639">
  <ele>359.65</ele>
  <time>2026-09-01T20:03:25Z</time>
  <course>10.52</course>
  <speed>0.02</speed>
  <fix>3d</fix>
</trkpt>
<trkpt lat="-27.2744392" lon="151.2900639">
  <ele>359.79</ele>
  <time>2026-09-01T20:03:25Z</time>
  <course>10.53</course>
  <speed>0.02</speed>
  <fix>3d</fix>
</trkpt>
<trkpt lat="-27.2744389" lon="151.2900637">
  <ele>359.39</ele>
  <time>2026-09-01T20:03:25Z</time>
  <course>0.26</course>
  <speed>0.04</speed>
  <fix>3d</fix>
</trkpt>
<trkpt lat="-27.2744392" lon="151.2900639">
  <ele>359.83</ele>
  <time>2026-09-01T20:03:25Z</time>
  <course>10.53</course>
  <speed>0.02</speed>
  <fix>3d</fix>
</trkpt>
<trkpt lat="-27.2744391" lon="151.2900639">
  <ele>359.93</ele>
  <time>2026-09-01T20:03:25Z</time>
  <course>10.54</course>
  <speed>0.02</speed>
  <fix>3d</fix>
</trkpt>
<trkpt lat="-27.2744389" lon="151.2900637">
  <ele>359.39</ele>
  <time>2026-09-01T20:03:25Z</time>
  <course>0.26</course>
  <speed>0.04</speed>
  <fix>3d</fix>
</trkpt>
<trkpt lat="-27.2744391" lon="151.2900639">
  <ele>359.97</ele>
  <time>2026-09-01T20:03:25Z</time>
  <course>10.55</course>
  <speed>0.02</speed>
  <fix>3d</fix>
</trkpt>
<trkpt lat="-27.2744391" lon="151.2900639">
  <ele>360.07</ele>
  <time>2026-09-01T20:03:25Z</time>
  <course>10.55</course>
  <speed>0.02</speed>
  <fix>3d</fix>
</trkpt>
<trkpt lat="-27.2744388" lon="151.2900637">
  <ele>359.68</ele>
  <time>2026-09-01T20:03:25Z</time>
  <course>1.12</course>
  <speed>0.04</speed>
  <fix>3d</fix>
</trkpt>
<trkpt lat="-27.2744391" lon="151.2900639">
  <ele>360.11</ele>
  <time>2026-09-01T20:03:25Z</time>
  <course>10.55</course>
  <speed>0.02</speed>
  <fix>3d</fix>
</trkpt>
<trkpt lat="-27.2744391" lon="151.2900639">
  <ele>360.22</ele>
  <time>2026-09-01T20:03:25Z</time>
  <course>10.56</course>
  <speed>0.02</speed>
  <fix>3d</fix>
</trkpt>
<trkpt lat="-27.2744388" lon="151.2900637">
  <ele>359.68</ele>
  <time>2026-09-01T20:03:25Z</time>
  <course>1.12</course>
  <speed>0.04</speed>
  <fix>3d</fix>
</trkpt>
<trkpt lat="-27.274439" lon="151.2900639">
  <ele>360.25</ele>
  <time>2026-09-01T20:03:25Z</time>
  <course>10.56</course>
  <speed>0.02</speed>
  <fix>3d</fix>
</trkpt>
<trkpt lat="-27.274439" lon="151.2900639">
  <ele>360.36</ele>
  <time>2026-09-01T20:03:25Z</time>
  <course>10.57</course>
  <speed>0.02</speed>
  <fix>3d</fix>
</trkpt>
<trkpt lat="-27.2744387" lon="151.2900637">
  <ele>359.96</ele>
  <time>2026-09-01T20:03:25Z</time>
  <course>1.09</course>
  <speed>0.04</speed>
  <fix>3d</fix>
</trkpt>
<trkpt lat="-27.274439" lon="151.2900639">
  <ele>360.4</ele>
  <time>2026-09-01T20:03:25Z</time>
  <course>10.57</course>
  <speed>0.02</speed>
  <fix>3d</fix>
</trkpt>
<trkpt lat="-27.274439" lon="151.2900639">
  <ele>360.5</ele>
  <time>2026-09-01T20:03:25Z</time>
  <course>10.57</course>
  <speed>0.02</speed>
  <fix>3d</fix>
</trkpt>
<trkpt lat="-27.2744387" lon="151.2900637">
  <ele>359.96</ele>
  <time>2026-09-01T20:03:25Z</time>
  <course>1.09</course>
  <speed>0.04</speed>
  <fix>3d</fix>
</trkpt>
<trkpt lat="-27.274439" lon="151.2900639">
  <ele>360.54</ele>
  <time>2026-09-01T20:03:25Z</time>
  <course>10.57</course>
  <speed>0.02</speed>
  <fix>3d</fix>
</trkpt>
<trkpt lat="-27.2744389" lon="151.2900639">
  <ele>360.65</ele>
  <time>2026-09-01T20:03:25Z</time>
  <course>10.57</course>
  <speed>0.02</speed>
  <fix>3d</fix>
</trkpt>
<trkpt lat="-27.2744386" lon="151.2900637">
  <ele>360.25</ele>
  <time>2026-09-01T20:03:25Z</time>
  <course>0.52</course>
  <speed>0.04</speed>
  <fix>3d</fix>
</trkpt>
<trkpt lat="-27.2744389" lon="151.2900639">
  <ele>360.7</ele>
  <time>2026-09-01T20:03:25Z</time>
  <course>10.57</course>
  <speed>0.02</speed>
  <fix>3d</fix>
</trkpt>
<trkpt lat="-27.2744389" lon="151.2900639">
  <ele>360.79</ele>
  <time>2026-09-01T20:03:25Z</time>
  <course>10.57</course>
  <speed>0.02</speed>
  <fix>3d</fix>
</trkpt>
<trkpt lat="-27.2744386" lon="151.2900637">
  <ele>360.25</ele>
  <time>2026-09-01T20:03:25Z</time>
  <course>0.52</course>
  <speed>0.04</speed>
  <fix>3d</fix>
</trkpt>
<trkpt lat="-27.2744389" lon="151.2900639">
  <ele>360.83</ele>
  <time>2026-09-01T20:03:25Z</time>
  <course>10.57</course>
  <speed>0.02</speed>
  <fix>3d</fix>
</trkpt>
<trkpt lat="-27.2744388" lon="151.2900639">
  <ele>360.93</ele>
  <time>2026-09-01T20:03:25Z</time>
  <course>10.57</course>
  <speed>0.02</speed>
  <fix>3d</fix>
</trkpt>
<trkpt lat="-27.2744386" lon="151.2900637">
  <ele>360.54</ele>
  <time>2026-09-01T20:03:25Z</time>
  <course>0.29</course>
  <speed>0.04</speed>
  <fix>3d</fix>
</trkpt>
<trkpt lat="-27.2744388" lon="151.2900639">
  <ele>360.98</ele>
  <time>2026-09-01T20:03:25Z</time>
  <course>10.57</course>
  <speed>0.02</speed>
  <fix>3d</fix>
</trkpt>
<trkpt lat="-27.2744388" lon="151.2900639">
  <ele>361.08</ele>
  <time>2026-09-01T20:03:25Z</time>
  <course>10.56</course>
  <speed>0.02</speed>
  <fix>3d</fix>
</trkpt>
<trkpt lat="-27.2744386" lon="151.2900637">
  <ele>360.54</ele>
  <time>2026-09-01T20:03:25Z</time>
  <course>0.29</course>
  <speed>0.04</speed>
  <fix>3d</fix>
</trkpt>
<trkpt lat="-27.2744388" lon="151.2900639">
  <ele>361.08</ele>
  <time>2026-09-01T20:03:25Z</time>
  <course>10.56</course>
  <speed>0.02</speed>
  <fix>3d</fix>
</trkpt>
<trkpt lat="-27.2744388" lon="151.2900639">
  <ele>361.22</ele>
  <time>2026-09-01T20:03:25Z</time>
  <course>10.55</course>
  <speed>0.02</speed>
  <fix>3d</fix>
</trkpt>
<trkpt lat="-27.2744385" lon="151.2900637">
  <ele>360.83</ele>
  <time>2026-09-01T20:03:25Z</time>
  <course>0.88</course>
  <speed>0.04</speed>
  <fix>3d</fix>
</trkpt>
<trkpt lat="-27.2744388" lon="151.2900639">
  <ele>361.23</ele>
  <time>2026-09-01T20:03:25Z</time>
  <course>10.55</course>
  <speed>0.02</speed>
  <fix>3d</fix>
</trkpt>
<trkpt lat="-27.2744388" lon="151.2900639">
  <ele>361.37</ele>
  <time>2026-09-01T20:03:25Z</time>
  <course>10.55</course>
  <speed>0.02</speed>
  <fix>3d</fix>
</trkpt>
<trkpt lat="-27.2744385" lon="151.2900637">
  <ele>360.83</ele>
  <time>2026-09-01T20:03:25Z</time>
  <course>0.88</course>
  <speed>0.04</speed>
  <fix>3d</fix>
</trkpt>
<trkpt lat="-27.2744388" lon="151.2900639">
  <ele>361.4</ele>
  <time>2026-09-01T20:03:25Z</time>
  <course>10.55</course>
  <speed>0.02</speed>
  <fix>3d</fix>
</trkpt>
<trkpt lat="-27.2744387" lon="151.2900639">
  <ele>361.51</ele>
  <time>2026-09-01T20:03:25Z</time>
  <course>10.56</course>
  <speed>0.02</speed>
  <fix>3d</fix>
</trkpt>
<trkpt lat="-27.2744384" lon="151.2900637">
  <ele>361.12</ele>
  <time>2026-09-01T20:03:25Z</time>
  <course>2.45</course>
  <speed>0.03</speed>
  <fix>3d</fix>
</trkpt>
<trkpt lat="-27.2744387" lon="151.2900639">
  <ele>361.55</ele>
  <time>2026-09-01T20:03:25Z</time>
  <course>10.56</course>
  <speed>0.02</speed>
  <fix>3d</fix>
</trkpt>
<trkpt lat="-27.2744387" lon="151.2900639">
  <ele>361.66</ele>
  <time>2026-09-01T20:03:25Z</time>
  <course>10.57</course>
  <speed>0.02</speed>
  <fix>3d</fix>
</trkpt>
<trkpt lat="-27.2744384" lon="151.2900637">
  <ele>361.12</ele>
  <time>2026-09-01T20:03:25Z</time>
  <course>2.45</course>
  <speed>0.03</speed>
  <fix>3d</fix>
</trkpt>
<trkpt lat="-27.2744387" lon="151.2900639">
  <ele>361.69</ele>
  <time>2026-09-01T20:03:25Z</time>
  <course>10.58</course>
  <speed>0.02</speed>
  <fix>3d</fix>
</trkpt>
<trkpt lat="-27.2744387" lon="151.2900639">
  <ele>361.8</ele>
  <time>2026-09-01T20:03:25Z</time>
  <course>10.59</course>
  <speed>0.02</speed>
  <fix>3d</fix>
</trkpt>
<trkpt lat="-27.2744384" lon="151.2900637">
  <ele>361.4</ele>
  <time>2026-09-01T20:03:25Z</time>
  <course>4.67</course>
  <speed>0.03</speed>
  <fix>3d</fix>
</trkpt>
<trkpt lat="-27.2744387" lon="151.2900639">
  <ele>361.84</ele>
  <time>2026-09-01T20:03:25Z</time>
  <course>10.59</course>
  <speed>0.022360679774997897</speed>
  <fix>3d</fix>
</trkpt>
<trkpt lat="-27.2744387" lon="151.2900639">
  <ele>361.94</ele>
  <time>2026-09-01T20:03:25Z</time>
  <course>10.61</course>
  <speed>0.022360679774997897</speed>
  <fix>3d</fix>
</trkpt>
<trkpt lat="-27.2744384" lon="151.2900637">
  <ele>361.4</ele>
  <time>2026-09-01T20:03:25Z</time>
  <course>4.67</course>
  <speed>0.03</speed>
  <fix>3d</fix>
</trkpt>
<trkpt lat="-27.2744386" lon="151.2900639">
  <ele>361.98</ele>
  <time>2026-09-01T20:03:25Z</time>
  <course>10.61</course>
  <speed>0.022360679774997897</speed>
  <fix>3d</fix>
</trkpt>
<trkpt lat="-27.2744386" lon="151.2900639">
  <ele>362.09</ele>
  <time>2026-09-01T20:03:25Z</time>
  <course>10.63</course>
  <speed>0.022360679774997897</speed>
  <fix>3d</fix>
</trkpt>
<trkpt lat="-27.2744383" lon="151.2900637">
  <ele>361.69</ele>
  <time>2026-09-01T20:03:25Z</time>
  <course>7.43</course>
  <speed>0.02</speed>
  <fix>3d</fix>
</trkpt>
<trkpt lat="-27.2744386" lon="151.2900639">
  <ele>362.12</ele>
  <time>2026-09-01T20:03:25Z</time>
  <course>10.64</course>
  <speed>0.022360679774997897</speed>
  <fix>3d</fix>
</trkpt>
<trkpt lat="-27.2744386" lon="151.2900639">
  <ele>362.23</ele>
  <time>2026-09-01T20:03:25Z</time>
  <course>10.65</course>
  <speed>0.022360679774997897</speed>
  <fix>3d</fix>
</trkpt>
<trkpt lat="-27.2744383" lon="151.2900637">
  <ele>361.69</ele>
  <time>2026-09-01T20:03:25Z</time>
  <course>7.43</course>
  <speed>0.02</speed>
  <fix>3d</fix>
</trkpt>
<trkpt lat="-27.2744386" lon="151.2900639">
  <ele>362.26</ele>
  <time>2026-09-01T20:03:25Z</time>
  <course>10.66</course>
  <speed>0.022360679774997897</speed>
  <fix>3d</fix>
</trkpt>
<trkpt lat="-27.2744386" lon="151.2900639">
  <ele>362.37</ele>
  <time>2026-09-01T20:03:25Z</time>
  <course>10.67</course>
  <speed>0.01414213562373095</speed>
  <fix>3d</fix>
</trkpt>
<trkpt lat="-27.2744383" lon="151.2900637">
  <ele>361.98</ele>
  <time>2026-09-01T20:03:25Z</time>
  <course>10.16</course>
  <speed>0.02</speed>
  <fix>3d</fix>
</trkpt>
<trkpt lat="-27.2744386" lon="151.2900639">
  <ele>362.41</ele>
  <time>2026-09-01T20:03:25Z</time>
  <course>10.68</course>
  <speed>0.01414213562373095</speed>
  <fix>3d</fix>
</trkpt>
<trkpt lat="-27.2744386" lon="151.2900639">
  <ele>362.51</ele>
  <time>2026-09-01T20:03:25Z</time>
  <course>10.69</course>
  <speed>0.01414213562373095</speed>
  <fix>3d</fix>
</trkpt>
<trkpt lat="-27.2744383" lon="151.2900637">
  <ele>361.98</ele>
  <time>2026-09-01T20:03:25Z</time>
  <course>10.16</course>
  <speed>0.02</speed>
  <fix>3d</fix>
</trkpt>
<trkpt lat="-27.2744386" lon="151.2900639">
  <ele>362.52</ele>
  <time>2026-09-01T20:03:25Z</time>
  <course>10.69</course>
  <speed>0.01414213562373095</speed>
  <fix>3d</fix>
</trkpt>
<trkpt lat="-27.2744386" lon="151.2900639">
  <ele>362.66</ele>
  <time>2026-09-01T20:03:25Z</time>
  <course>10.71</course>
  <speed>0.022360679774997897</speed>
  <fix>3d</fix>
</trkpt>
<trkpt lat="-27.2744382" lon="151.2900637">
  <ele>362.27</ele>
  <time>2026-09-01T20:03:25Z</time>
  <course>11.37</course>
  <speed>0.01</speed>
  <fix>3d</fix>
</trkpt>
<trkpt lat="-27.2744386" lon="151.2900639">
  <ele>362.66</ele>
  <time>2026-09-01T20:03:25Z</time>
  <course>10.71</course>
  <speed>0.022360679774997897</speed>
  <fix>3d</fix>
</trkpt>
<trkpt lat="-27.2744385" lon="151.2900639">
  <ele>362.8</ele>
  <time>2026-09-01T20:03:25Z</time>
  <course>10.71</course>
  <speed>0.022360679774997897</speed>
  <fix>3d</fix>
</trkpt>
<trkpt lat="-27.2744382" lon="151.2900637">
  <ele>362.27</ele>
  <time>2026-09-01T20:03:25Z</time>
  <course>11.37</course>
  <speed>0.01</speed>
  <fix>3d</fix>
</trkpt>
<trkpt lat="-27.2744385" lon="151.2900639">
  <ele>362.84</ele>
  <time>2026-09-01T20:03:25Z</time>
  <course>10.71</course>
  <speed>0.022360679774997897</speed>
  <fix>3d</fix>
</trkpt>
<trkpt lat="-27.2744385" lon="151.2900639">
  <ele>362.94</ele>
  <time>2026-09-01T20:03:25Z</time>
  <course>10.71</course>
  <speed>0.022360679774997897</speed>
  <fix>3d</fix>
</trkpt>
<trkpt lat="-27.2744382" lon="151.2900637">
  <ele>362.55</ele>
  <time>2026-09-01T20:03:25Z</time>
  <course>13.69</course>
  <speed>0.01</speed>
  <fix>3d</fix>
</trkpt>
<trkpt lat="-27.2744385" lon="151.2900639">
  <ele>362.98</ele>
  <time>2026-09-01T20:03:25Z</time>
  <course>10.71</course>
  <speed>0.022360679774997897</speed>
  <fix>3d</fix>
</trkpt>
<trkpt lat="-27.2744385" lon="151.2900639">
  <ele>363.08</ele>
  <time>2026-09-01T20:03:25Z</time>
  <course>10.71</course>
  <speed>0.022360679774997897</speed>
  <fix>3d</fix>
</trkpt>
<trkpt lat="-27.2744382" lon="151.2900637">
  <ele>362.55</ele>
  <time>2026-09-01T20:03:25Z</time>
  <course>13.69</course>
  <speed>0.01</speed>
  <fix>3d</fix>
</trkpt>
<trkpt lat="-27.2744385" lon="151.2900639">
  <ele>363.12</ele>
  <time>2026-09-01T20:03:25Z</time>
  <course>10.71</course>
  <speed>0.022360679774997897</speed>
  <fix>3d</fix>
</trkpt>
<trkpt lat="-27.2744385" lon="151.2900639">
  <ele>363.22</ele>
  <time>2026-09-01T20:03:25Z</time>
  <course>10.71</course>
  <speed>0.022360679774997897</speed>
  <fix>3d</fix>
</trkpt>
<trkpt lat="-27.2744382" lon="151.2900637">
  <ele>362.84</ele>
  <time>2026-09-01T20:03:25Z</time>
  <course>18.53</course>
  <speed>0.01</speed>
  <fix>3d</fix>
</trkpt>
<trkpt lat="-27.2744385" lon="151.2900639">
  <ele>363.26</ele>
  <time>2026-09-01T20:03:25Z</time>
  <course>10.71</course>
  <speed>0.022360679774997897</speed>
  <fix>3d</fix>
</trkpt>
<trkpt lat="-27.2744385" lon="151.2900639">
  <ele>363.37</ele>
  <time>2026-09-01T20:03:25Z</time>
  <course>10.71</course>
  <speed>0.022360679774997897</speed>
  <fix>3d</fix>
</trkpt>
<trkpt lat="-27.2744382" lon="151.2900637">
  <ele>362.84</ele>
  <time>2026-09-01T20:03:25Z</time>
  <course>18.53</course>
  <speed>0.01</speed>
  <fix>3d</fix>
</trkpt>
<trkpt lat="-27.2744385" lon="151.2900639">
  <ele>363.4</ele>
  <time>2026-09-01T20:03:25Z</time>
  <course>10.71</course>
  <speed>0.022360679774997897</speed>
  <fix>3d</fix>
</trkpt>
<trkpt lat="-27.2744385" lon="151.2900639">
  <ele>363.51</ele>
  <time>2026-09-01T20:03:25Z</time>
  <course>10.71</course>
  <speed>0.022360679774997897</speed>
  <fix>3d</fix>
</trkpt>
<trkpt lat="-27.2744382" lon="151.2900637">
  <ele>363.13</ele>
  <time>2026-09-01T20:03:25Z</time>
  <course>25.39</course>
  <speed>0.0</speed>
  <fix>3d</fix>
</trkpt>
<trkpt lat="-27.2744385" lon="151.2900639">
  <ele>363.55</ele>
  <time>2026-09-01T20:03:25Z</time>
  <course>10.71</course>
  <speed>0.022360679774997897</speed>
  <fix>3d</fix>
</trkpt>
<trkpt lat="-27.2744385" lon="151.2900639">
  <ele>363.66</ele>
  <time>2026-09-01T20:03:25Z</time>
  <course>10.71</course>
  <speed>0.0316227766016838</speed>
  <fix>3d</fix>
</trkpt>
<trkpt lat="-27.2744382" lon="151.2900637">
  <ele>363.13</ele>
  <time>2026-09-01T20:03:25Z</time>
  <course>25.39</course>
  <speed>0.0</speed>
  <fix>3d</fix>
</trkpt>
<trkpt lat="-27.2744385" lon="151.2900639">
  <ele>363.69</ele>
  <time>2026-09-01T20:03:25Z</time>
  <course>10.71</course>
  <speed>0.0316227766016838</speed>
  <fix>3d</fix>
</trkpt>
<trkpt lat="-27.2744385" lon="151.2900639">
  <ele>363.8</ele>
  <time>2026-09-01T20:03:25Z</time>
  <course>10.71</course>
  <speed>0.0316227766016838</speed>
  <fix>3d</fix>
</trkpt>
<trkpt lat="-27.2744382" lon="151.2900637">
  <ele>363.41</ele>
  <time>2026-09-01T20:03:25Z</time>
  <course>42.45</course>
  <speed>0.0</speed>
  <fix>3d</fix>
</trkpt>
<trkpt lat="-27.2744385" lon="151.2900639">
  <ele>363.84</ele>
  <time>2026-09-01T20:03:25Z</time>
  <course>10.71</course>
  <speed>0.0316227766016838</speed>
  <fix>3d</fix>
</trkpt>
<trkpt lat="-27.2744385" lon="151.2900639">
  <ele>363.94</ele>
  <time>2026-09-01T20:03:25Z</time>
  <course>10.72</course>
  <speed>0.0316227766016838</speed>
  <fix>3d</fix>
</trkpt>
<trkpt lat="-27.2744382" lon="151.2900637">
  <ele>363.41</ele>
  <time>2026-09-01T20:03:25Z</time>
  <course>42.45</course>
  <speed>0.0</speed>
  <fix>3d</fix>
</trkpt>
<trkpt lat="-27.2744385" lon="151.2900639">
  <ele>363.98</ele>
  <time>2026-09-01T20:03:25Z</time>
  <course>10.72</course>
  <speed>0.0316227766016838</speed>
  <fix>3d</fix>
</trkpt>
<trkpt lat="-27.2744385" lon="151.2900639">
  <ele>364.09</ele>
  <time>2026-09-01T20:03:25Z</time>
  <course>10.73</course>
  <speed>0.0316227766016838</speed>
  <fix>3d</fix>
</trkpt>
<trkpt lat="-27.2744382" lon="151.2900637">
  <ele>363.7</ele>
  <time>2026-09-01T20:03:25Z</time>
  <course>71.86</course>
  <speed>0.0</speed>
  <fix>3d</fix>
</trkpt>
<trkpt lat="-27.2744385" lon="151.2900639">
  <ele>364.1</ele>
  <time>2026-09-01T20:03:25Z</time>
  <course>10.73</course>
  <speed>0.0316227766016838</speed>
  <fix>3d</fix>
</trkpt>
<trkpt lat="-27.2744385" lon="151.2900639">
  <ele>364.24</ele>
  <time>2026-09-01T20:03:25Z</time>
  <course>10.74</course>
  <speed>0.0316227766016838</speed>
  <fix>3d</fix>
</trkpt>
<trkpt lat="-27.2744382" lon="151.2900637">
  <ele>363.7</ele>
  <time>2026-09-01T20:03:25Z</time>
  <course>71.86</course>
  <speed>0.0</speed>
  <fix>3d</fix>
</trkpt>
<trkpt lat="-27.2744385" lon="151.2900639">
  <ele>364.24</ele>
  <time>2026-09-01T20:03:25Z</time>
  <course>10.74</course>
  <speed>0.0316227766016838</speed>
  <fix>3d</fix>
</trkpt>
<trkpt lat="-27.2744385" lon="151.2900639">
  <ele>364.38</ele>
  <time>2026-09-01T20:03:25Z</time>
  <course>10.76</course>
  <speed>0.0316227766016838</speed>
  <fix>3d</fix>
</trkpt>
<trkpt lat="-27.2744382" lon="151.2900637">
  <ele>363.99</ele>
  <time>2026-09-01T20:03:25Z</time>
  <course>104.07</course>
  <speed>0.0</speed>
  <fix>3d</fix>
</trkpt>
<trkpt lat="-27.2744385" lon="151.2900639">
  <ele>364.42</ele>
  <time>2026-09-01T20:03:25Z</time>
  <course>10.77</course>
  <speed>0.0316227766016838</speed>
  <fix>3d</fix>
</trkpt>
<trkpt lat="-27.2744385" lon="151.2900639">
  <ele>364.52</ele>
  <time>2026-09-01T20:03:25Z</time>
  <course>10.79</course>
  <speed>0.0316227766016838</speed>
  <fix>3d</fix>
</trkpt>
<trkpt lat="-27.2744382" lon="151.2900637">
  <ele>363.99</ele>
  <time>2026-09-01T20:03:25Z</time>
  <course>104.07</course>
  <speed>0.0</speed>
  <fix>3d</fix>
</trkpt>
<trkpt lat="-27.2744385" lon="151.2900639">
  <ele>364.56</ele>
  <time>2026-09-01T20:03:25Z</time>
  <course>10.79</course>
  <speed>0.0316227766016838</speed>
  <fix>3d</fix>
</trkpt>
<trkpt lat="-27.2744385" lon="151.2900639">
  <ele>364.67</ele>
  <time>2026-09-01T20:03:25Z</time>
  <course>10.81</course>
  <speed>0.0316227766016838</speed>
  <fix>3d</fix>
</trkpt>
<trkpt lat="-27.2744382" lon="151.2900637">
  <ele>364.28</ele>
  <time>2026-09-01T20:03:25Z</time>
  <course>128.9</course>
  <speed>0.0</speed>
  <fix>3d</fix>
</trkpt>
<trkpt lat="-27.2744385" lon="151.2900639">
  <ele>364.71</ele>
  <time>2026-09-01T20:03:25Z</time>
  <course>10.82</course>
  <speed>0.0316227766016838</speed>
  <fix>3d</fix>
</trkpt>
<trkpt lat="-27.2744385" lon="151.2900639">
  <ele>364.81</ele>
  <time>2026-09-01T20:03:25Z</time>
  <course>10.83</course>
  <speed>0.0316227766016838</speed>
  <fix>3d</fix>
</trkpt>
<trkpt lat="-27.2744382" lon="151.2900637">
  <ele>364.28</ele>
  <time>2026-09-01T20:03:25Z</time>
  <course>128.9</course>
  <speed>0.0</speed>
  <fix>3d</fix>
</trkpt>
<trkpt lat="-27.2744385" lon="151.2900639">
  <ele>364.85</ele>
  <time>2026-09-01T20:03:25Z</time>
  <course>10.83</course>
  <speed>0.0316227766016838</speed>
  <fix>3d</fix>
</trkpt>
<trkpt lat="-27.2744385" lon="151.2900639">
  <ele>364.96</ele>
  <time>2026-09-01T20:03:25Z</time>
  <course>10.84</course>
  <speed>0.0316227766016838</speed>
  <fix>3d</fix>
</trkpt>
<trkpt lat="-27.2744382" lon="151.2900637">
  <ele>364.57</ele>
  <time>2026-09-01T20:03:25Z</time>
  <course>146.05</course>
  <speed>0.0</speed>
  <fix>3d</fix>
</trkpt>
<trkpt lat="-27.2744385" lon="151.2900639">
  <ele>364.99</ele>
  <time>2026-09-01T20:03:25Z</time>
  <course>10.85</course>
  <speed>0.0412310562561766</speed>
  <fix>3d</fix>
</trkpt>
<trkpt lat="-27.2744385" lon="151.2900639">
  <ele>365.1</ele>
  <time>2026-09-01T20:03:25Z</time>
  <course>10.85</course>
  <speed>0.0412310562561766</speed>
  <fix>3d</fix>
</trkpt>
<trkpt lat="-27.2744382" lon="151.2900637">
  <ele>364.57</ele>
  <time>2026-09-01T20:03:25Z</time>
  <course>146.05</course>
  <speed>0.0</speed>
  <fix>3d</fix>
</trkpt>
<trkpt lat="-27.2744385" lon="151.2900639">
  <ele>365.13</ele>
  <time>2026-09-01T20:03:25Z</time>
  <course>10.84</course>
  <speed>0.0412310562561766</speed>
  <fix>3d</fix>
</trkpt>
<trkpt lat="-27.2744385" lon="151.2900639">
  <ele>365.24</ele>
  <time>2026-09-01T20:03:25Z</time>
  <course>10.84</course>
  <speed>0.0412310562561766</speed>
  <fix>3d</fix>
</trkpt>
<trkpt lat="-27.2744382" lon="151.2900637">
  <ele>364.86</ele>
  <time>2026-09-01T20:03:25Z</time>
  <course>157.5</course>
  <speed>0.0</speed>
  <fix>3d</fix>
</trkpt>
<trkpt lat="-27.2744385" lon="151.2900639">
  <ele>365.25</ele>
  <time>2026-09-01T20:03:25Z</time>
  <course>10.84</course>
  <speed>0.0412310562561766</speed>
  <fix>3d</fix>
</trkpt>
<trkpt lat="-27.2744385" lon="151.2900639">
  <ele>365.39</ele>
  <time>2026-09-01T20:03:25Z</time>
  <course>10.83</course>
  <speed>0.0412310562561766</speed>
  <fix>3d</fix>
</trkpt>
<trkpt lat="-27.2744382" lon="151.2900637">
  <ele>364.86</ele>
  <time>2026-09-01T20:03:25Z</time>
  <course>157.5</course>
  <speed>0.0</speed>
  <fix>3d</fix>
</trkpt>
<trkpt lat="-27.2744385" lon="151.2900639">
  <ele>365.42</ele>
  <time>2026-09-01T20:03:25Z</time>
  <course>10.83</course>
  <speed>0.0412310562561766</speed>
  <fix>3d</fix>
</trkpt>
<trkpt lat="-27.2744385" lon="151.2900639">
  <ele>365.53</ele>
  <time>2026-09-01T20:03:25Z</time>
  <course>10.82</course>
  <speed>0.0412310562561766</speed>
  <fix>3d</fix>
</trkpt>
<trkpt lat="-27.2744382" lon="151.2900637">
  <ele>365.15</ele>
  <time>2026-09-01T20:03:25Z</time>
  <course>163.98</course>
  <speed>0.01</speed>
  <fix>3d</fix>
</trkpt>
<trkpt lat="-27.2744385" lon="151.2900639">
  <ele>365.57</ele>
  <time>2026-09-01T20:03:25Z</time>
  <course>10.82</course>
  <speed>0.0412310562561766</speed>
  <fix>3d</fix>
</trkpt>
<trkpt lat="-27.2744385" lon="151.2900639">
  <ele>365.68</ele>
  <time>2026-09-01T20:03:25Z</time>
  <course>10.81</course>
  <speed>0.0412310562561766</speed>
  <fix>3d</fix>
</trkpt>
<trkpt lat="-27.2744382" lon="151.2900637">
  <ele>365.15</ele>
  <time>2026-09-01T20:03:25Z</time>
  <course>163.98</course>
  <speed>0.01</speed>
  <fix>3d</fix>
</trkpt>
<trkpt lat="-27.2744385" lon="151.2900639">
  <ele>365.68</ele>
  <time>2026-09-01T20:03:25Z</time>
  <course>10.81</course>
  <speed>0.0412310562561766</speed>
  <fix>3d</fix>
</trkpt>
<trkpt lat="-27.2744385" lon="151.2900639">
  <ele>365.82</ele>
  <time>2026-09-01T20:03:25Z</time>
  <course>10.8</course>
  <speed>0.0412310562561766</speed>
  <fix>3d</fix>
</trkpt>
<trkpt lat="-27.2744382" lon="151.2900637">
  <ele>365.44</ele>
  <time>2026-09-01T20:03:25Z</time>
  <course>165.37</course>
  <speed>0.01</speed>
  <fix>3d</fix>
</trkpt>
<trkpt lat="-27.2744385" lon="151.2900639">
  <ele>365.83</ele>
  <time>2026-09-01T20:03:25Z</time>
  <course>10.8</course>
  <speed>0.0412310562561766</speed>
  <fix>3d</fix>
</trkpt>
<trkpt lat="-27.2744385" lon="151.2900639">
  <ele>365.97</ele>
  <time>2026-09-01T20:03:25Z</time>
  <course>10.8</course>
  <speed>0.0412310562561766</speed>
  <fix>3d</fix>
</trkpt>
<trkpt lat="-27.2744382" lon="151.2900637">
  <ele>365.44</ele>
  <time>2026-09-01T20:03:25Z</time>
  <course>165.37</course>
  <speed>0.01</speed>
  <fix>3d</fix>
</trkpt>
<trkpt lat="-27.2744385" lon="151.2900639">
  <ele>366.01</ele>
  <time>2026-09-01T20:03:25Z</time>
  <course>10.8</course>
  <speed>0.0412310562561766</speed>
  <fix>3d</fix>
</trkpt>
<trkpt lat="-27.2744385" lon="151.2900639">
  <ele>366.11</ele>
  <time>2026-09-01T20:03:25Z</time>
  <course>10.81</course>
  <speed>0.0412310562561766</speed>
  <fix>3d</fix>
</trkpt>
<trkpt lat="-27.2744382" lon="151.2900637">
  <ele>365.72</ele>
  <time>2026-09-01T20:03:25Z</time>
  <course>164.24</course>
  <speed>0.01</speed>
  <fix>3d</fix>
</trkpt>
<trkpt lat="-27.2744385" lon="151.2900639">
  <ele>366.16</ele>
  <time>2026-09-01T20:03:25Z</time>
  <course>10.82</course>
  <speed>0.0412310562561766</speed>
  <fix>3d</fix>
</trkpt>
<trkpt lat="-27.2744385" lon="151.2900639">
  <ele>366.26</ele>
  <time>2026-09-01T20:03:25Z</time>
  <course>10.83</course>
  <speed>0.0412310562561766</speed>
  <fix>3d</fix>
</trkpt>
<trkpt lat="-27.2744382" lon="151.2900637">
  <ele>365.72</ele>
  <time>2026-09-01T20:03:25Z</time>
  <course>164.24</course>
  <speed>0.01</speed>
  <fix>3d</fix>
</trkpt>
<trkpt lat="-27.2744385" lon="151.2900639">
  <ele>366.26</ele>
  <time>2026-09-01T20:03:25Z</time>
  <course>10.83</course>
  <speed>0.0412310562561766</speed>
  <fix>3d</fix>
</trkpt>
<trkpt lat="-27.2744385" lon="151.2900639">
  <ele>366.41</ele>
  <time>2026-09-01T20:03:25Z</time>
  <course>10.84</course>
  <speed>0.0412310562561766</speed>
  <fix>3d</fix>
</trkpt>
<trkpt lat="-27.2744382" lon="151.2900637">
  <ele>366.01</ele>
  <time>2026-09-01T20:03:25Z</time>
  <course>165.63</course>
  <speed>0.01</speed>
  <fix>3d</fix>
</trkpt>
<trkpt lat="-27.2744385" lon="151.2900639">
  <ele>366.42</ele>
  <time>2026-09-01T20:03:25Z</time>
  <course>10.84</course>
  <speed>0.0412310562561766</speed>
  <fix>3d</fix>
</trkpt>
<trkpt lat="-27.2744385" lon="151.2900639">
  <ele>366.55</ele>
  <time>2026-09-01T20:03:25Z</time>
  <course>10.85</course>
  <speed>0.0412310562561766</speed>
  <fix>3d</fix>
</trkpt>
<trkpt lat="-27.2744382" lon="151.2900637">
  <ele>366.01</ele>
  <time>2026-09-01T20:03:25Z</time>
  <course>165.63</course>
  <speed>0.01</speed>
  <fix>3d</fix>
</trkpt>
<trkpt lat="-27.2744385" lon="151.2900639">
  <ele>366.6</ele>
  <time>2026-09-01T20:03:25Z</time>
  <course>10.85</course>
  <speed>0.0412310562561766</speed>
  <fix>3d</fix>
</trkpt>
<trkpt lat="-27.2744385" lon="151.2900639">
  <ele>366.7</ele>
  <time>2026-09-01T20:03:25Z</time>
  <course>10.85</course>
  <speed>0.0412310562561766</speed>
  <fix>3d</fix>
</trkpt>
<trkpt lat="-27.2744382" lon="151.2900637">
  <ele>366.3</ele>
  <time>2026-09-01T20:03:25Z</time>
  <course>167.54</course>
  <speed>0.01</speed>
  <fix>3d</fix>
</trkpt>
<trkpt lat="-27.2744385" lon="151.2900639">
  <ele>366.73</ele>
  <time>2026-09-01T20:03:25Z</time>
  <course>10.85</course>
  <speed>0.04</speed>
  <fix>3d</fix>
</trkpt>
<trkpt lat="-27.2744385" lon="151.2900639">
  <ele>366.84</ele>
  <time>2026-09-01T20:03:25Z</time>
  <course>10.85</course>
  <speed>0.04</speed>
  <fix>3d</fix>
</trkpt>
<trkpt lat="-27.2744382" lon="151.2900637">
  <ele>366.3</ele>
  <time>2026-09-01T20:03:25Z</time>
  <course>167.54</course>
  <speed>0.01</speed>
  <fix>3d</fix>
</trkpt>
<trkpt lat="-27.2744385" lon="151.2900639">
  <ele>366.87</ele>
  <time>2026-09-01T20:03:25Z</time>
  <course>10.85</course>
  <speed>0.04</speed>
  <fix>3d</fix>
</trkpt>
<trkpt lat="-27.2744385" lon="151.2900639">
  <ele>366.98</ele>
  <time>2026-09-01T20:03:25Z</time>
  <course>10.85</course>
  <speed>0.04</speed>
  <fix>3d</fix>
</trkpt>
<trkpt lat="-27.2744382" lon="151.2900637">
  <ele>366.59</ele>
  <time>2026-09-01T20:03:25Z</time>
  <course>168.38</course>
  <speed>0.01</speed>
  <fix>3d</fix>
</trkpt>
<trkpt lat="-27.2744385" lon="151.2900639">
  <ele>367.02</ele>
  <time>2026-09-01T20:03:25Z</time>
  <course>10.85</course>
  <speed>0.04</speed>
  <fix>3d</fix>
</trkpt>
<trkpt lat="-27.2744385" lon="151.2900639">
  <ele>367.12</ele>
  <time>2026-09-01T20:03:25Z</time>
  <course>10.85</course>
  <speed>0.04</speed>
  <fix>3d</fix>
</trkpt>
<trkpt lat="-27.2744382" lon="151.2900637">
  <ele>366.59</ele>
  <time>2026-09-01T20:03:25Z</time>
  <course>168.38</course>
  <speed>0.01</speed>
  <fix>3d</fix>
</trkpt>
<trkpt lat="-27.2744385" lon="151.2900639">
  <ele>367.16</ele>
  <time>2026-09-01T20:03:25Z</time>
  <course>10.85</course>
  <speed>0.04</speed>
  <fix>3d</fix>
</trkpt>
<trkpt lat="-27.2744385" lon="151.2900638">
  <ele>367.26</ele>
  <time>2026-09-01T20:03:25Z</time>
  <course>10.84</course>
  <speed>0.0412310562561766</speed>
  <fix>3d</fix>
</trkpt>
<trkpt lat="-27.2744383" lon="151.2900637">
  <ele>366.87</ele>
  <time>2026-09-01T20:03:25Z</time>
  <course>169.29</course>
  <speed>0.01</speed>
  <fix>3d</fix>
</trkpt>
<trkpt lat="-27.2744385" lon="151.2900638">
  <ele>367.27</ele>
  <time>2026-09-01T20:03:25Z</time>
  <course>10.84</course>
  <speed>0.0412310562561766</speed>
  <fix>3d</fix>
</trkpt>
<trkpt lat="-27.2744385" lon="151.2900638">
  <ele>367.4</ele>
  <time>2026-09-01T20:03:25Z</time>
  <course>10.83</course>
  <speed>0.0412310562561766</speed>
  <fix>3d</fix>
</trkpt>
<trkpt lat="-27.2744383" lon="151.2900637">
  <ele>366.87</ele>
  <time>2026-09-01T20:03:25Z</time>
  <course>169.29</course>
  <speed>0.01</speed>
  <fix>3d</fix>
</trkpt>
<trkpt lat="-27.2744385" lon="151.2900638">
  <ele>367.41</ele>
  <time>2026-09-01T20:03:25Z</time>
  <course>10.83</course>
  <speed>0.0412310562561766</speed>
  <fix>3d</fix>
</trkpt>
<trkpt lat="-27.2744385" lon="151.2900638">
  <ele>367.55</ele>
  <time>2026-09-01T20:03:25Z</time>
  <course>10.83</course>
  <speed>0.04</speed>
  <fix>3d</fix>
</trkpt>
<trkpt lat="-27.2744383" lon="151.2900637">
  <ele>367.15</ele>
  <time>2026-09-01T20:03:25Z</time>
  <course>168.8</course>
  <speed>0.01</speed>
  <fix>3d</fix>
</trkpt>
<trkpt lat="-27.2744385" lon="151.2900638">
  <ele>367.58</ele>
  <time>2026-09-01T20:03:25Z</time>
  <course>10.83</course>
  <speed>0.04</speed>
  <fix>3d</fix>
</trkpt>
<trkpt lat="-27.2744386" lon="151.2900638">
  <ele>367.69</ele>
  <time>2026-09-01T20:03:25Z</time>
  <course>10.84</course>
  <speed>0.04</speed>
  <fix>3d</fix>
</trkpt>
<trkpt lat="-27.2744383" lon="151.2900637">
  <ele>367.15</ele>
  <time>2026-09-01T20:03:25Z</time>
  <course>168.8</course>
  <speed>0.01</speed>
  <fix>3d</fix>
</trkpt>
<trkpt lat="-27.2744386" lon="151.2900638">
  <ele>367.73</ele>
  <time>2026-09-01T20:03:25Z</time>
  <course>10.84</course>
  <speed>0.04</speed>
  <fix>3d</fix>
</trkpt>
<trkpt lat="-27.2744386" lon="151.2900638">
  <ele>367.83</ele>
  <time>2026-09-01T20:03:25Z</time>
  <course>10.85</course>
  <speed>0.04</speed>
  <fix>3d</fix>
</trkpt>
<trkpt lat="-27.2744383" lon="151.2900637">
  <ele>367.44</ele>
  <time>2026-09-01T20:03:25Z</time>
  <course>169.15</course>
  <speed>0.01</speed>
  <fix>3d</fix>
</trkpt>
<trkpt lat="-27.2744386" lon="151.2900638">
  <ele>367.87</ele>
  <time>2026-09-01T20:03:25Z</time>
  <course>10.85</course>
  <speed>0.04</speed>
  <fix>3d</fix>
</trkpt>
<trkpt lat="-27.2744386" lon="151.2900638">
  <ele>367.97</ele>
  <time>2026-09-01T20:03:25Z</time>
  <course>10.86</course>
  <speed>0.04</speed>
  <fix>3d</fix>
</trkpt>
<trkpt lat="-27.2744383" lon="151.2900637">
  <ele>367.44</ele>
  <time>2026-09-01T20:03:25Z</time>
  <course>169.15</course>
  <speed>0.01</speed>
  <fix>3d</fix>
</trkpt>
<trkpt lat="-27.2744386" lon="151.2900638">
  <ele>368.01</ele>
  <time>2026-09-01T20:03:25Z</time>
  <course>10.86</course>
  <speed>0.04</speed>
  <fix>3d</fix>
</trkpt>
<trkpt lat="-27.2744386" lon="151.2900638">
  <ele>368.11</ele>
  <time>2026-09-01T20:03:25Z</time>
  <course>10.86</course>
  <speed>0.04</speed>
  <fix>3d</fix>
</trkpt>
<trkpt lat="-27.2744383" lon="151.2900637">
  <ele>367.73</ele>
  <time>2026-09-01T20:03:25Z</time>
  <course>169.56</course>
  <speed>0.01</speed>
  <fix>3d</fix>
</trkpt>
<trkpt lat="-27.2744386" lon="151.2900638">
  <ele>368.15</ele>
  <time>2026-09-01T20:03:25Z</time>
  <course>10.86</course>
  <speed>0.04</speed>
  <fix>3d</fix>
</trkpt>
<trkpt lat="-27.2744386" lon="151.2900638">
  <ele>368.26</ele>
  <time>2026-09-01T20:03:25Z</time>
  <course>10.87</course>
  <speed>0.04</speed>
  <fix>3d</fix>
</trkpt>
<trkpt lat="-27.2744383" lon="151.2900637">
  <ele>367.73</ele>
  <time>2026-09-01T20:03:25Z</time>
  <course>169.56</course>
  <speed>0.01</speed>
  <fix>3d</fix>
</trkpt>
<trkpt lat="-27.2744386" lon="151.2900638">
  <ele>368.29</ele>
  <time>2026-09-01T20:03:25Z</time>
  <course>10.87</course>
  <speed>0.04</speed>
  <fix>3d</fix>
</trkpt>
<trkpt lat="-27.2744386" lon="151.2900638">
  <ele>368.4</ele>
  <time>2026-09-01T20:03:25Z</time>
  <course>10.88</course>
  <speed>0.04</speed>
  <fix>3d</fix>
</trkpt>
<trkpt lat="-27.2744384" lon="151.2900637">
  <ele>368.02</ele>
  <time>2026-09-01T20:03:25Z</time>
  <course>170.39</course>
  <speed>0.02</speed>
  <fix>3d</fix>
</trkpt>
<trkpt lat="-27.2744386" lon="151.2900638">
  <ele>368.44</ele>
  <time>2026-09-01T20:03:25Z</time>
  <course>10.88</course>
  <speed>0.04</speed>
  <fix>3d</fix>
</trkpt>
<trkpt lat="-27.2744386" lon="151.2900638">
  <ele>368.54</ele>
  <time>2026-09-01T20:03:25Z</time>
  <course>10.89</course>
  <speed>0.04</speed>
  <fix>3d</fix>
</trkpt>
<trkpt lat="-27.2744384" lon="151.2900637">
  <ele>368.02</ele>
  <time>2026-09-01T20:03:25Z</time>
  <course>170.39</course>
  <speed>0.02</speed>
  <fix>3d</fix>
</trkpt>
<trkpt lat="-27.2744386" lon="151.2900638">
  <ele>368.57</ele>
  <time>2026-09-01T20:03:25Z</time>
  <course>10.89</course>
  <speed>0.04</speed>
  <fix>3d</fix>
</trkpt>
<trkpt lat="-27.2744386" lon="151.2900638">
  <ele>368.68</ele>
  <time>2026-09-01T20:03:25Z</time>
  <course>10.89</course>
  <speed>0.04</speed>
  <fix>3d</fix>
</trkpt>
<trkpt lat="-27.2744384" lon="151.2900637">
  <ele>368.3</ele>
  <time>2026-09-01T20:03:25Z</time>
  <course>171.59</course>
  <speed>0.02</speed>
  <fix>3d</fix>
</trkpt>
<trkpt lat="-27.2744386" lon="151.2900638">
  <ele>368.69</ele>
  <time>2026-09-01T20:03:25Z</time>
  <course>10.89</course>
  <speed>0.04</speed>
  <fix>3d</fix>
</trkpt>
<trkpt lat="-27.2744386" lon="151.2900638">
  <ele>368.83</ele>
  <time>2026-09-01T20:03:25Z</time>
  <course>10.89</course>
  <speed>0.04</speed>
  <fix>3d</fix>
</trkpt>
<trkpt lat="-27.2744384" lon="151.2900637">
  <ele>368.3</ele>
  <time>2026-09-01T20:03:25Z</time>
  <course>171.59</course>
  <speed>0.02</speed>
  <fix>3d</fix>
</trkpt>
<trkpt lat="-27.2744386" lon="151.2900638">
  <ele>368.83</ele>
  <time>2026-09-01T20:03:25Z</time>
  <course>10.89</course>
  <speed>0.04</speed>
  <fix>3d</fix>
</trkpt>
<trkpt lat="-27.2744386" lon="151.2900638">
  <ele>368.97</ele>
  <time>2026-09-01T20:03:25Z</time>
  <course>10.89</course>
  <speed>0.04</speed>
  <fix>3d</fix>
</trkpt>
<trkpt lat="-27.2744385" lon="151.2900637">
  <ele>368.59</ele>
  <time>2026-09-01T20:03:25Z</time>
  <course>171.43</course>
  <speed>0.02</speed>
  <fix>3d</fix>
</trkpt>
<trkpt lat="-27.2744387" lon="151.2900638">
  <ele>368.97</ele>
  <time>2026-09-01T20:03:25Z</time>
  <course>10.89</course>
  <speed>0.04</speed>
  <fix>3d</fix>
</trkpt>
<trkpt lat="-27.2744387" lon="151.2900638">
  <ele>369.11</ele>
  <time>2026-09-01T20:03:25Z</time>
  <course>10.89</course>
  <speed>0.04</speed>
  <fix>3d</fix>
</trkpt>
<trkpt lat="-27.2744385" lon="151.2900637">
  <ele>368.59</ele>
  <time>2026-09-01T20:03:25Z</time>
  <course>171.43</course>
  <speed>0.02</speed>
  <fix>3d</fix>
</trkpt>
<trkpt lat="-27.2744387" lon="151.2900638">
  <ele>369.14</ele>
  <time>2026-09-01T20:03:25Z</time>
  <course>10.89</course>
  <speed>0.04</speed>
  <fix>3d</fix>
</trkpt>
<trkpt lat="-27.2744387" lon="151.2900638">
  <ele>369.25</ele>
  <time>2026-09-01T20:03:25Z</time>
  <course>10.89</course>
  <speed>0.04</speed>
  <fix>3d</fix>
</trkpt>
<trkpt lat="-27.2744385" lon="151.2900637">
  <ele>368.88</ele>
  <time>2026-09-01T20:03:25Z</time>
  <course>170.84</course>
  <speed>0.02</speed>
  <fix>3d</fix>
</trkpt>
<trkpt lat="-27.2744387" lon="151.2900638">
  <ele>369.26</ele>
  <time>2026-09-01T20:03:25Z</time>
  <course>10.89</course>
  <speed>0.04</speed>
  <fix>3d</fix>
</trkpt>
<trkpt lat="-27.2744387" lon="151.2900638">
  <ele>369.4</ele>
  <time>2026-09-01T20:03:25Z</time>
  <course>10.88</course>
  <speed>0.0412310562561766</speed>
  <fix>3d</fix>
</trkpt>
<trkpt lat="-27.2744385" lon="151.2900637">
  <ele>368.88</ele>
  <time>2026-09-01T20:03:25Z</time>
  <course>170.84</course>
  <speed>0.02</speed>
  <fix>3d</fix>
</trkpt>
<trkpt lat="-27.2744387" lon="151.2900638">
  <ele>369.4</ele>
  <time>2026-09-01T20:03:25Z</time>
  <course>10.88</course>
  <speed>0.0412310562561766</speed>
  <fix>3d</fix>
</trkpt>
<trkpt lat="-27.2744387" lon="151.2900638">
  <ele>369.54</ele>
  <time>2026-09-01T20:03:25Z</time>
  <course>10.88</course>
  <speed>0.0412310562561766</speed>
  <fix>3d</fix>
</trkpt>
<trkpt lat="-27.2744385" lon="151.2900637">
  <ele>369.17</ele>
  <time>2026-09-01T20:03:25Z</time>
  <course>169.76</course>
  <speed>0.02</speed>
  <fix>3d</fix>
</trkpt>
<trkpt lat="-27.2744387" lon="151.2900638">
  <ele>369.59</ele>
  <time>2026-09-01T20:03:25Z</time>
  <course>10.88</course>
  <speed>0.0316227766016838</speed>
  <fix>3d</fix>
</trkpt>
<trkpt lat="-27.2744387" lon="151.2900638">
  <ele>369.69</ele>
  <time>2026-09-01T20:03:25Z</time>
  <course>10.88</course>
  <speed>0.0316227766016838</speed>
  <fix>3d</fix>
</trkpt>
<trkpt lat="-27.2744385" lon="151.2900637">
  <ele>369.17</ele>
  <time>2026-09-01T20:03:25Z</time>
  <course>169.76</course>
  <speed>0.02</speed>
  <fix>3d</fix>
</trkpt>
<trkpt lat="-27.2744387" lon="151.2900638">
  <ele>369.73</ele>
  <time>2026-09-01T20:03:25Z</time>
  <course>10.88</course>
  <speed>0.0316227766016838</speed>
  <fix>3d</fix>
</trkpt>
<trkpt lat="-27.2744387" lon="151.2900638">
  <ele>369.83</ele>
  <time>2026-09-01T20:03:25Z</time>
  <course>10.88</course>
  <speed>0.0316227766016838</speed>
  <fix>3d</fix>
</trkpt>
<trkpt lat="-27.2744386" lon="151.2900638">
  <ele>369.46</ele>
  <time>2026-09-01T20:03:25Z</time>
  <course>168.15</course>
  <speed>0.02</speed>
  <fix>3d</fix>
</trkpt>
<trkpt lat="-27.2744387" lon="151.2900638">
  <ele>369.87</ele>
  <time>2026-09-01T20:03:25Z</time>
  <course>10.88</course>
  <speed>0.0316227766016838</speed>
  <fix>3d</fix>
</trkpt>
<trkpt lat="-27.2744388" lon="151.2900638">
  <ele>369.98</ele>
  <time>2026-09-01T20:03:25Z</time>
  <course>10.87</course>
  <speed>0.0316227766016838</speed>
  <fix>3d</fix>
</trkpt>
<trkpt lat="-27.2744386" lon="151.2900638">
  <ele>369.46</ele>
  <time>2026-09-01T20:03:25Z</time>
  <course>168.15</course>
  <speed>0.02</speed>
  <fix>3d</fix>
</trkpt>
<trkpt lat="-27.2744388" lon="151.2900638">
  <ele>370.02</ele>
  <time>2026-09-01T20:03:25Z</time>
  <course>10.87</course>
  <speed>0.0316227766016838</speed>
  <fix>3d</fix>
</trkpt>
<trkpt lat="-27.2744388" lon="151.2900638">
  <ele>370.12</ele>
  <time>2026-09-01T20:03:25Z</time>
  <course>10.86</course>
  <speed>0.0316227766016838</speed>
  <fix>3d</fix>
</trkpt>
<trkpt lat="-27.2744386" lon="151.2900639">
  <ele>369.75</ele>
  <time>2026-09-01T20:03:25Z</time>
  <course>165.45</course>
  <speed>0.01</speed>
  <fix>3d</fix>
</trkpt>
<trkpt lat="-27.2744388" lon="151.2900638">
  <ele>370.17</ele>
  <time>2026-09-01T20:03:25Z</time>
  <course>10.85</course>
  <speed>0.0316227766016838</speed>
  <fix>3d</fix>
</trkpt>
<trkpt lat="-27.2744388" lon="151.2900638">
  <ele>370.27</ele>
  <time>2026-09-01T20:03:25Z</time>
  <course>10.85</course>
  <speed>0.0316227766016838</speed>
  <fix>3d</fix>
</trkpt>
<trkpt lat="-27.2744386" lon="151.2900639">
  <ele>369.75</ele>
  <time>2026-09-01T20:03:25Z</time>
  <course>165.45</course>
  <speed>0.01</speed>
  <fix>3d</fix>
</trkpt>
<trkpt lat="-27.2744388" lon="151.2900638">
  <ele>370.31</ele>
  <time>2026-09-01T20:03:25Z</time>
  <course>10.85</course>
  <speed>0.0316227766016838</speed>
  <fix>3d</fix>
</trkpt>
<trkpt lat="-27.2744388" lon="151.2900638">
  <ele>370.41</ele>
  <time>2026-09-01T20:03:25Z</time>
  <course>10.84</course>
  <speed>0.0316227766016838</speed>
  <fix>3d</fix>
</trkpt>
<trkpt lat="-27.2744386" lon="151.2900639">
  <ele>370.04</ele>
  <time>2026-09-01T20:03:25Z</time>
  <course>160.15</course>
  <speed>0.01</speed>
  <fix>3d</fix>
</trkpt>
<trkpt lat="-27.2744388" lon="151.2900638">
  <ele>370.42</ele>
  <time>2026-09-01T20:03:25Z</time>
  <course>10.84</course>
  <speed>0.0316227766016838</speed>
  <fix>3d</fix>
</trkpt>
<trkpt lat="-27.2744388" lon="151.2900638">
  <ele>370.55</ele>
  <time>2026-09-01T20:03:25Z</time>
  <course>10.85</course>
  <speed>0.0316227766016838</speed>
  <fix>3d</fix>
</trkpt>
<trkpt lat="-27.2744386" lon="151.2900639">
  <ele>370.04</ele>
  <time>2026-09-01T20:03:25Z</time>
  <course>160.15</course>
  <speed>0.01</speed>
  <fix>3d</fix>
</trkpt>
<trkpt lat="-27.2744388" lon="151.2900638">
  <ele>370.56</ele>
  <time>2026-09-01T20:03:25Z</time>
  <course>10.85</course>
  <speed>0.0316227766016838</speed>
  <fix>3d</fix>
</trkpt>
<trkpt lat="-27.2744388" lon="151.2900638">
  <ele>370.69</ele>
  <time>2026-09-01T20:03:25Z</time>
  <course>10.86</course>
  <speed>0.0316227766016838</speed>
  <fix>3d</fix>
</trkpt>
<trkpt lat="-27.2744387" lon="151.2900639">
  <ele>370.33</ele>
  <time>2026-09-01T20:03:25Z</time>
  <course>155.35</course>
  <speed>0.01</speed>
  <fix>3d</fix>
</trkpt>
<trkpt lat="-27.2744388" lon="151.2900638">
  <ele>370.74</ele>
  <time>2026-09-01T20:03:25Z</time>
  <course>10.86</course>
  <speed>0.0316227766016838</speed>
  <fix>3d</fix>
</trkpt>
<trkpt lat="-27.2744388" lon="151.2900638">
  <ele>370.84</ele>
  <time>2026-09-01T20:03:25Z</time>
  <course>10.87</course>
  <speed>0.0316227766016838</speed>
  <fix>3d</fix>
</trkpt>
<trkpt lat="-27.2744387" lon="151.2900639">
  <ele>370.33</ele>
  <time>2026-09-01T20:03:25Z</time>
  <course>155.35</course>
  <speed>0.01</speed>
  <fix>3d</fix>
</trkpt>
<trkpt lat="-27.2744388" lon="151.2900638">
  <ele>370.87</ele>
  <time>2026-09-01T20:03:25Z</time>
  <course>10.87</course>
  <speed>0.0316227766016838</speed>
  <fix>3d</fix>
</trkpt>
<trkpt lat="-27.2744388" lon="151.2900639">
  <ele>370.98</ele>
  <time>2026-09-01T20:03:25Z</time>
  <course>10.87</course>
  <speed>0.0316227766016838</speed>
  <fix>3d</fix>
</trkpt>
<trkpt lat="-27.2744387" lon="151.2900639">
  <ele>370.62</ele>
  <time>2026-09-01T20:03:25Z</time>
  <course>154.15</course>
  <speed>0.01</speed>
  <fix>3d</fix>
</trkpt>
<trkpt lat="-27.2744388" lon="151.2900639">
  <ele>371.04</ele>
  <time>2026-09-01T20:03:25Z</time>
  <course>10.87</course>
  <speed>0.0316227766016838</speed>
  <fix>3d</fix>
</trkpt>
<trkpt lat="-27.2744388" lon="151.2900639">
  <ele>371.12</ele>
  <time>2026-09-01T20:03:25Z</time>
  <course>10.86</course>
  <speed>0.0316227766016838</speed>
  <fix>3d</fix>
</trkpt>
<trkpt lat="-27.2744387" lon="151.2900639">
  <ele>370.62</ele>
  <time>2026-09-01T20:03:25Z</time>
  <course>154.15</course>
  <speed>0.01</speed>
  <fix>3d</fix>
</trkpt>
<trkpt lat="-27.2744388" lon="151.2900639">
  <ele>371.16</ele>
  <time>2026-09-01T20:03:25Z</time>
  <course>10.86</course>
  <speed>0.0316227766016838</speed>
  <fix>3d</fix>
</trkpt>
<trkpt lat="-27.2744388" lon="151.2900639">
  <ele>371.26</ele>
  <time>2026-09-01T20:03:25Z</time>
  <course>10.85</course>
  <speed>0.0316227766016838</speed>
  <fix>3d</fix>
</trkpt>
<trkpt lat="-27.2744387" lon="151.2900639">
  <ele>370.91</ele>
  <time>2026-09-01T20:03:25Z</time>
  <course>152.79</course>
  <speed>0.01</speed>
  <fix>3d</fix>
</trkpt>
<trkpt lat="-27.2744388" lon="151.2900639">
  <ele>371.31</ele>
  <time>2026-09-01T20:03:25Z</time>
  <course>10.84</course>
  <speed>0.022360679774997897</speed>
  <fix>3d</fix>
</trkpt>
<trkpt lat="-27.2744389" lon="151.2900639">
  <ele>371.41</ele>
  <time>2026-09-01T20:03:25Z</time>
  <course>10.83</course>
  <speed>0.022360679774997897</speed>
  <fix>3d</fix>
</trkpt>
<trkpt lat="-27.2744387" lon="151.2900639">
  <ele>370.91</ele>
  <time>2026-09-01T20:03:25Z</time>
  <course>152.79</course>
  <speed>0.01</speed>
  <fix>3d</fix>
</trkpt>
<trkpt lat="-27.2744389" lon="151.2900639">
  <ele>371.45</ele>
  <time>2026-09-01T20:03:25Z</time>
  <course>10.82</course>
  <speed>0.022360679774997897</speed>
  <fix>3d</fix>
</trkpt>
<trkpt lat="-27.2744389" lon="151.2900639">
  <ele>371.55</ele>
  <time>2026-09-01T20:03:25Z</time>
  <course>10.81</course>
  <speed>0.022360679774997897</speed>
  <fix>3d</fix>
</trkpt>
<trkpt lat="-27.2744387" lon="151.2900639">
  <ele>371.2</ele>
  <time>2026-09-01T20:03:25Z</time>
  <course>149.2</course>
  <speed>0.01</speed>
  <fix>3d</fix>
</trkpt>
<trkpt lat="-27.2744389" lon="151.2900639">
  <ele>371.6</ele>
  <time>2026-09-01T20:03:25Z</time>
  <course>10.81</course>
  <speed>0.022360679774997897</speed>
  <fix>3d</fix>
</trkpt>
<trkpt lat="-27.2744389" lon="151.2900639">
  <ele>371.7</ele>
  <time>2026-09-01T20:03:25Z</time>
  <course>10.79</course>
  <speed>0.022360679774997897</speed>
  <fix>3d</fix>
</trkpt>
<trkpt lat="-27.2744387" lon="151.2900639">
  <ele>371.2</ele>
  <time>2026-09-01T20:03:25Z</time>
  <course>149.2</course>
  <speed>0.01</speed>
  <fix>3d</fix>
</trkpt>
<trkpt lat="-27.2744389" lon="151.2900639">
  <ele>371.74</ele>
  <time>2026-09-01T20:03:25Z</time>
  <course>10.79</course>
  <speed>0.022360679774997897</speed>
  <fix>3d</fix>
</trkpt>
<trkpt lat="-27.2744389" lon="151.2900639">
  <ele>371.84</ele>
  <time>2026-09-01T20:03:25Z</time>
  <course>10.78</course>
  <speed>0.022360679774997897</speed>
  <fix>3d</fix>
</trkpt>
<trkpt lat="-27.2744387" lon="151.2900639">
  <ele>371.49</ele>
  <time>2026-09-01T20:03:25Z</time>
  <course>144.24</course>
  <speed>0.0</speed>
  <fix>3d</fix>
</trkpt>
<trkpt lat="-27.2744389" lon="151.2900639">
  <ele>371.9</ele>
  <time>2026-09-01T20:03:25Z</time>
  <course>10.77</course>
  <speed>0.022360679774997897</speed>
  <fix>3d</fix>
</trkpt>
<trkpt lat="-27.2744389" lon="151.2900639">
  <ele>371.99</ele>
  <time>2026-09-01T20:03:25Z</time>
  <course>10.76</course>
  <speed>0.022360679774997897</speed>
  <fix>3d</fix>
</trkpt>
<trkpt lat="-27.2744387" lon="151.2900639">
  <ele>371.49</ele>
  <time>2026-09-01T20:03:25Z</time>
  <course>144.24</course>
  <speed>0.0</speed>
  <fix>3d</fix>
</trkpt>
<trkpt lat="-27.2744389" lon="151.2900639">
  <ele>372.0</ele>
  <time>2026-09-01T20:03:25Z</time>
  <course>10.76</course>
  <speed>0.022360679774997897</speed>
  <fix>3d</fix>
</trkpt>
<trkpt lat="-27.2744389" lon="151.2900639">
  <ele>372.14</ele>
  <time>2026-09-01T20:03:25Z</time>
  <course>10.75</course>
  <speed>0.022360679774997897</speed>
  <fix>3d</fix>
</trkpt>
<trkpt lat="-27.2744388" lon="151.2900639">
  <ele>371.78</ele>
  <time>2026-09-01T20:03:25Z</time>
  <course>138.45</course>
  <speed>0.0</speed>
  <fix>3d</fix>
</trkpt>
<trkpt lat="-27.2744389" lon="151.2900639">
  <ele>372.15</ele>
  <time>2026-09-01T20:03:25Z</time>
  <course>10.75</course>
  <speed>0.022360679774997897</speed>
  <fix>3d</fix>
</trkpt>
<trkpt lat="-27.2744389" lon="151.290064">
  <ele>372.29</ele>
  <time>2026-09-01T20:03:25Z</time>
  <course>10.74</course>
  <speed>0.022360679774997897</speed>
  <fix>3d</fix>
</trkpt>
<trkpt lat="-27.2744388" lon="151.2900639">
  <ele>371.78</ele>
  <time>2026-09-01T20:03:25Z</time>
  <course>138.45</course>
  <speed>0.0</speed>
  <fix>3d</fix>
</trkpt>
<trkpt lat="-27.2744389" lon="151.290064">
  <ele>372.33</ele>
  <time>2026-09-01T20:03:25Z</time>
  <course>10.73</course>
  <speed>0.022360679774997897</speed>
  <fix>3d</fix>
</trkpt>
<trkpt lat="-27.2744389" lon="151.290064">
  <ele>372.44</ele>
  <time>2026-09-01T20:03:25Z</time>
  <course>10.73</course>
  <speed>0.022360679774997897</speed>
  <fix>3d</fix>
</trkpt>
<trkpt lat="-27.2744388" lon="151.2900639">
  <ele>372.07</ele>
  <time>2026-09-01T20:03:25Z</time>
  <course>132.78</course>
  <speed>0.0</speed>
  <fix>3d</fix>
</trkpt>
<trkpt lat="-27.2744389" lon="151.290064">
  <ele>372.48</ele>
  <time>2026-09-01T20:03:25Z</time>
  <course>10.72</course>
  <speed>0.022360679774997897</speed>
  <fix>3d</fix>
</trkpt>
<trkpt lat="-27.2744389" lon="151.290064">
  <ele>372.58</ele>
  <time>2026-09-01T20:03:25Z</time>
  <course>10.72</course>
  <speed>0.022360679774997897</speed>
  <fix>3d</fix>
</trkpt>
<trkpt lat="-27.2744388" lon="151.2900639">
  <ele>372.07</ele>
  <time>2026-09-01T20:03:25Z</time>
  <course>132.78</course>
  <speed>0.0</speed>
  <fix>3d</fix>
</trkpt>
<trkpt lat="-27.2744389" lon="151.290064">
  <ele>372.62</ele>
  <time>2026-09-01T20:03:25Z</time>
  <course>10.72</course>
  <speed>0.022360679774997897</speed>
  <fix>3d</fix>
</trkpt>
<trkpt lat="-27.2744389" lon="151.290064">
  <ele>372.73</ele>
  <time>2026-09-01T20:03:25Z</time>
  <course>10.72</course>
  <speed>0.022360679774997897</speed>
  <fix>3d</fix>
</trkpt>
<trkpt lat="-27.2744388" lon="151.290064">
  <ele>372.36</ele>
  <time>2026-09-01T20:03:25Z</time>
  <course>127.87</course>
  <speed>0.0</speed>
  <fix>3d</fix>
</trkpt>
<trkpt lat="-27.2744389" lon="151.290064">
  <ele>372.78</ele>
  <time>2026-09-01T20:03:25Z</time>
  <course>10.72</course>
  <speed>0.022360679774997897</speed>
  <fix>3d</fix>
</trkpt>
<trkpt lat="-27.2744389" lon="151.290064">
  <ele>372.88</ele>
  <time>2026-09-01T20:03:25Z</time>
  <course>10.72</course>
  <speed>0.022360679774997897</speed>
  <fix>3d</fix>
</trkpt>
<trkpt lat="-27.2744388" lon="151.290064">
  <ele>372.36</ele>
  <time>2026-09-01T20:03:25Z</time>
  <course>127.87</course>
  <speed>0.0</speed>
  <fix>3d</fix>
</trkpt>
<trkpt lat="-27.2744389" lon="151.290064">
  <ele>372.92</ele>
  <time>2026-09-01T20:03:25Z</time>
  <course>10.72</course>
  <speed>0.022360679774997897</speed>
  <fix>3d</fix>
</trkpt>
<trkpt lat="-27.2744389" lon="151.290064">
  <ele>373.02</ele>
  <time>2026-09-01T20:03:25Z</time>
  <course>10.72</course>
  <speed>0.022360679774997897</speed>
  <fix>3d</fix>
</trkpt>
<trkpt lat="-27.2744388" lon="151.290064">
  <ele>372.65</ele>
  <time>2026-09-01T20:03:25Z</time>
  <course>124.47</course>
  <speed>0.0</speed>
  <fix>3d</fix>
</trkpt>
<trkpt lat="-27.2744389" lon="151.290064">
  <ele>373.06</ele>
  <time>2026-09-01T20:03:25Z</time>
  <course>10.72</course>
  <speed>0.022360679774997897</speed>
  <fix>3d</fix>
</trkpt>
<trkpt lat="-27.2744389" lon="151.290064">
  <ele>373.17</ele>
  <time>2026-09-01T20:03:25Z</time>
  <course>10.71</course>
  <speed>0.022360679774997897</speed>
  <fix>3d</fix>
</trkpt>
<trkpt lat="-27.2744388" lon="151.290064">
  <ele>372.65</ele>
  <time>2026-09-01T20:03:25Z</time>
  <course>124.47</course>
  <speed>0.0</speed>
  <fix>3d</fix>
</trkpt>
<trkpt lat="-27.2744389" lon="151.290064">
  <ele>373.31</ele>
  <time>2026-09-01T20:03:26Z</time>
  <course>10.71</course>
  <speed>0.022360679774997897</speed>
  <fix>3d</fix>
</trkpt>
<trkpt lat="-27.2744388" lon="151.290064">
  <ele>372.94</ele>
  <time>2026-09-01T20:03:26Z</time>
  <course>122.5</course>
  <speed>0.0</speed>
  <fix>3d</fix>
</trkpt>
<trkpt lat="-27.2744389" lon="151.290064">
  <ele>373.45</ele>
  <time>2026-09-01T20:03:26Z</time>
  <course>10.7</course>
  <speed>0.022360679774997897</speed>
  <fix>3d</fix>
</trkpt>
<trkpt lat="-27.2744388" lon="151.290064">
  <ele>372.94</ele>
  <time>2026-09-01T20:03:26Z</time>
  <course>122.5</course>
  <speed>0.0</speed>
  <fix>3d</fix>
</trkpt>
<trkpt lat="-27.2744389" lon="151.290064">
  <ele>373.59</ele>
  <time>2026-09-01T20:03:26Z</time>
  <course>10.7</course>
  <speed>0.022360679774997897</speed>
  <fix>3d</fix>
</trkpt>
<trkpt lat="-27.2744388" lon="151.290064">
  <ele>373.22</ele>
  <time>2026-09-01T20:03:26Z</time>
  <course>122.04</course>
  <speed>0.0</speed>
  <fix>3d</fix>
</trkpt>
<trkpt lat="-27.2744389" lon="151.290064">
  <ele>373.72</ele>
  <time>2026-09-01T20:03:26Z</time>
  <course>10.58</course>
  <speed>0.022360679774997897</speed>
  <fix>3d</fix>
</trkpt>
<trkpt lat="-27.2744388" lon="151.290064">
  <ele>373.22</ele>
  <time>2026-09-01T20:03:26Z</time>
  <course>122.04</course>
  <speed>0.0</speed>
  <fix>3d</fix>
</trkpt>
<trkpt lat="-27.2744389" lon="151.2900641">
  <ele>373.83</ele>
  <time>2026-09-01T20:03:26Z</time>
  <course>10.18</course>
  <speed>0.1044030650891055</speed>
  <fix>3d</fix>
</trkpt>
<trkpt lat="-27.2744388" lon="151.290064">
  <ele>373.5</ele>
  <time>2026-09-01T20:03:26Z</time>
  <course>24.98</course>
  <speed>0.01</speed>
  <fix>3d</fix>
</trkpt>
<trkpt lat="-27.2744388" lon="151.2900641">
  <ele>373.93</ele>
  <time>2026-09-01T20:03:26Z</time>
  <course>9.75</course>
  <speed>0.25317977802344327</speed>
  <fix>3d</fix>
</trkpt>
<trkpt lat="-27.2744388" lon="151.290064">
  <ele>373.5</ele>
  <time>2026-09-01T20:03:26Z</time>
  <course>24.98</course>
  <speed>0.01</speed>
  <fix>3d</fix>
</trkpt>
<trkpt lat="-27.2744384" lon="151.2900641">
  <ele>374.01</ele>
  <time>2026-09-01T20:03:26Z</time>
  <course>9.36</course>
  <speed>0.4617358552246078</speed>
  <fix>3d</fix>
</trkpt>
<trkpt lat="-27.2744387" lon="151.290064">
  <ele>373.73</ele>
  <time>2026-09-01T20:03:26Z</time>
  <course>4.84</course>
  <speed>0.15</speed>
  <fix>3d</fix>
</trkpt>
<trkpt lat="-27.2744379" lon="151.2900642">
  <ele>374.08</ele>
  <time>2026-09-01T20:03:26Z</time>
  <course>9.05</course>
  <speed>0.7416872656315463</speed>
  <fix>3d</fix>
</trkpt>
<trkpt lat="-27.2744387" lon="151.290064">
  <ele>373.73</ele>
  <time>2026-09-01T20:03:26Z</time>
  <course>4.84</course>
  <speed>0.15</speed>
  <fix>3d</fix>
</trkpt>
<trkpt lat="-27.274437" lon="151.2900642">
  <ele>374.12</ele>
  <time>2026-09-01T20:03:26Z</time>
  <course>8.74</course>
  <speed>1.0722872749408154</speed>
  <fix>3d</fix>
</trkpt>
<trkpt lat="-27.2744382" lon="151.290064">
  <ele>373.91</ele>
  <time>2026-09-01T20:03:26Z</time>
  <course>1.53</course>
  <speed>0.5</speed>
  <fix>3d</fix>
</trkpt>
<trkpt lat="-27.2744359" lon="151.2900643">
  <ele>374.15</ele>
  <time>2026-09-01T20:03:26Z</time>
  <course>8.53</course>
  <speed>1.4727525250360294</speed>
  <fix>3d</fix>
</trkpt>
<trkpt lat="-27.2744382" lon="151.290064">
  <ele>373.91</ele>
  <time>2026-09-01T20:03:26Z</time>
  <course>1.53</course>
  <speed>0.5</speed>
  <fix>3d</fix>
</trkpt>
<trkpt lat="-27.2744343" lon="151.2900643">
  <ele>374.16</ele>
  <time>2026-09-01T20:03:26Z</time>
  <course>8.38</course>
  <speed>1.933726971420733</speed>
  <fix>3d</fix>
</trkpt>
<trkpt lat="-27.2744367" lon="151.2900641">
  <ele>374.02</ele>
  <time>2026-09-01T20:03:26Z</time>
  <course>0.58</course>
  <speed>1.11</speed>
  <fix>3d</fix>
</trkpt>
<trkpt lat="-27.2744324" lon="151.2900645">
  <ele>374.16</ele>
  <time>2026-09-01T20:03:26Z</time>
  <course>8.19</course>
  <speed>2.4545875417267156</speed>
  <fix>3d</fix>
</trkpt>
<trkpt lat="-27.2744367" lon="151.2900641">
  <ele>374.02</ele>
  <time>2026-09-01T20:03:26Z</time>
  <course>0.58</course>
  <speed>1.11</speed>
  <fix>3d</fix>
</trkpt>
<trkpt lat="-27.2744299" lon="151.2900646">
  <ele>374.15</ele>
  <time>2026-09-01T20:03:26Z</time>
  <course>7.71</course>
  <speed>3.035341825890455</speed>
  <fix>3d</fix>
</trkpt>
<trkpt lat="-27.274434" lon="151.2900641">
  <ele>374.07</ele>
  <time>2026-09-01T20:03:26Z</time>
  <course>0.66</course>
  <speed>1.96</speed>
  <fix>3d</fix>
</trkpt>
<trkpt lat="-27.2744286" lon="151.2900641">
  <ele>374.09</ele>
  <time>2026-09-01T20:03:26Z</time>
  <course>7.84</course>
  <speed>1.9601020381602587</speed>
  <fix>3d</fix>
</trkpt>
<trkpt lat="-27.274434" lon="151.2900641">
  <ele>374.07</ele>
  <time>2026-09-01T20:03:26Z</time>
  <course>0.66</course>
  <speed>1.96</speed>
  <fix>3d</fix>
</trkpt>
<trkpt lat="-27.274424" lon="151.2900642">
  <ele>374.14</ele>
  <time>2026-09-01T20:03:26Z</time>
  <course>7.6</course>
  <speed>3.0404111564063174</speed>
  <fix>3d</fix>
</trkpt>
<trkpt lat="-27.2744296" lon="151.2900641">
  <ele>374.07</ele>
  <time>2026-09-01T20:03:26Z</time>
  <course>1.0</course>
  <speed>3.04</speed>
  <fix>3d</fix>
</trkpt>
<trkpt lat="-27.2744212" lon="151.2900642">
  <ele>374.06</ele>
  <time>2026-09-01T20:03:26Z</time>
  <course>7.38</course>
  <speed>3.0404111564063174</speed>
  <fix>3d</fix>
</trkpt>
<trkpt lat="-27.2744296" lon="151.2900641">
  <ele>374.07</ele>
  <time>2026-09-01T20:03:26Z</time>
  <course>1.0</course>
  <speed>3.04</speed>
  <fix>3d</fix>
</trkpt>
<trkpt lat="-27.2744151" lon="151.2900644">
  <ele>373.88</ele>
  <time>2026-09-01T20:03:26Z</time>
  <course>7.07</course>
  <speed>4.251176307799995</speed>
  <fix>3d</fix>
</trkpt>
<trkpt lat="-27.274423" lon="151.2900642">
  <ele>374.03</ele>
  <time>2026-09-01T20:03:26Z</time>
  <course>1.36</course>
  <speed>4.25</speed>
  <fix>3d</fix>
</trkpt>
<trkpt lat="-27.2744113" lon="151.2900645">
  <ele>374.05</ele>
  <time>2026-09-01T20:03:26Z</time>
  <course>6.8</course>
  <speed>4.251176307799995</speed>
  <fix>3d</fix>
</trkpt>
<trkpt lat="-27.274423" lon="151.2900642">
  <ele>374.03</ele>
  <time>2026-09-01T20:03:26Z</time>
  <course>1.36</course>
  <speed>4.25</speed>
  <fix>3d</fix>
</trkpt>
<trkpt lat="-27.2744042" lon="151.2900649">
  <ele>373.78</ele>
  <time>2026-09-01T20:03:26Z</time>
  <course>6.43</course>
  <speed>5.472056286260221</speed>
  <fix>3d</fix>
</trkpt>
<trkpt lat="-27.2744143" lon="151.2900646">
  <ele>373.99</ele>
  <time>2026-09-01T20:03:26Z</time>
  <course>1.61</course>
  <speed>5.47</speed>
  <fix>3d</fix>
</trkpt>
<trkpt lat="-27.2743993" lon="151.290065">
  <ele>373.86</ele>
  <time>2026-09-01T20:03:26Z</time>
  <course>5.99</course>
  <speed>5.472056286260221</speed>
  <fix>3d</fix>
</trkpt>
<trkpt lat="-27.2744143" lon="151.2900646">
  <ele>373.99</ele>
  <time>2026-09-01T20:03:26Z</time>
  <course>1.61</course>
  <speed>5.47</speed>
  <fix>3d</fix>
</trkpt>
<trkpt lat="-27.274391" lon="151.2900653">
  <ele>373.92</ele>
  <time>2026-09-01T20:03:26Z</time>
  <course>5.76</course>
  <speed>6.692988868958322</speed>
  <fix>3d</fix>
</trkpt>
<trkpt lat="-27.2744033" lon="151.2900649">
  <ele>373.95</ele>
  <time>2026-09-01T20:03:26Z</time>
  <course>1.77</course>
  <speed>6.7</speed>
  <fix>3d</fix>
</trkpt>
<trkpt lat="-27.2743849" lon="151.2900655">
  <ele>373.96</ele>
  <time>2026-09-01T20:03:26Z</time>
  <course>5.57</course>
  <speed>6.692988868958322</speed>
  <fix>3d</fix>
</trkpt>
<trkpt lat="-27.2744033" lon="151.2900649">
  <ele>373.95</ele>
  <time>2026-09-01T20:03:26Z</time>
  <course>1.77</course>
  <speed>6.7</speed>
  <fix>3d</fix>
</trkpt>
<trkpt lat="-27.2743756" lon="151.2900659">
  <ele>373.91</ele>
  <time>2026-09-01T20:03:26Z</time>
  <course>5.56</course>
  <speed>7.913949709215999</speed>
  <fix>3d</fix>
</trkpt>
<trkpt lat="-27.2743902" lon="151.2900654">
  <ele>373.91</ele>
  <time>2026-09-01T20:03:26Z</time>
  <course>1.84</course>
  <speed>7.92</speed>
  <fix>3d</fix>
</trkpt>
<trkpt lat="-27.2743685" lon="151.2900661">
  <ele>373.77</ele>
  <time>2026-09-01T20:03:26Z</time>
  <course>5.47</course>
  <speed>7.913949709215999</speed>
  <fix>3d</fix>
</trkpt>
<trkpt lat="-27.2743902" lon="151.2900654">
  <ele>373.91</ele>
  <time>2026-09-01T20:03:26Z</time>
  <course>1.84</course>
  <speed>7.92</speed>
  <fix>3d</fix>
</trkpt>
<trkpt lat="-27.2743581" lon="151.2900666">
  <ele>373.92</ele>
  <time>2026-09-01T20:03:26Z</time>
  <course>5.36</course>
  <speed>9.134927476449937</speed>
  <fix>3d</fix>
</trkpt>
<trkpt lat="-27.2743749" lon="151.290066">
  <ele>373.89</ele>
  <time>2026-09-01T20:03:26Z</time>
  <course>1.89</course>
  <speed>9.13</speed>
  <fix>3d</fix>
</trkpt>
<trkpt lat="-27.2743498" lon="151.2900669">
  <ele>373.86</ele>
  <time>2026-09-01T20:03:26Z</time>
  <course>5.13</course>
  <speed>9.134927476449937</speed>
  <fix>3d</fix>
</trkpt>
<trkpt lat="-27.2743749" lon="151.290066">
  <ele>373.89</ele>
  <time>2026-09-01T20:03:26Z</time>
  <course>1.89</course>
  <speed>9.13</speed>
  <fix>3d</fix>
</trkpt>
<trkpt lat="-27.2743383" lon="151.2900673">
  <ele>373.69</ele>
  <time>2026-09-01T20:03:26Z</time>
  <course>4.87</course>
  <speed>10.335927631325598</speed>
  <fix>3d</fix>
</trkpt>
<trkpt lat="-27.2743574" lon="151.2900666">
  <ele>373.87</ele>
  <time>2026-09-01T20:03:26Z</time>
  <course>1.96</course>
  <speed>10.34</speed>
  <fix>3d</fix>
</trkpt>
<trkpt lat="-27.274329" lon="151.2900676">
  <ele>373.7</ele>
  <time>2026-09-01T20:03:26Z</time>
  <course>4.66</course>
  <speed>10.335927631325598</speed>
  <fix>3d</fix>
</trkpt>
<trkpt lat="-27.2743574" lon="151.2900666">
  <ele>373.87</ele>
  <time>2026-09-01T20:03:26Z</time>
  <course>1.96</course>
  <speed>10.34</speed>
  <fix>3d</fix>
</trkpt>
<trkpt lat="-27.2743163" lon="151.2900682">
  <ele>373.75</ele>
  <time>2026-09-01T20:03:26Z</time>
  <course>4.55</course>
  <speed>11.526599672062876</speed>
  <fix>3d</fix>
</trkpt>
<trkpt lat="-27.2743377" lon="151.2900674">
  <ele>373.86</ele>
  <time>2026-09-01T20:03:26Z</time>
  <course>1.97</course>
  <speed>11.53</speed>
  <fix>3d</fix>
</trkpt>
<trkpt lat="-27.274306" lon="151.2900686">
  <ele>373.76</ele>
  <time>2026-09-01T20:03:26Z</time>
  <course>4.53</course>
  <speed>11.526599672062876</speed>
  <fix>3d</fix>
</trkpt>
<trkpt lat="-27.2743377" lon="151.2900674">
  <ele>373.86</ele>
  <time>2026-09-01T20:03:26Z</time>
  <course>1.97</course>
  <speed>11.53</speed>
  <fix>3d</fix>
</trkpt>
<trkpt lat="-27.2742925" lon="151.2900691">
  <ele>373.95</ele>
  <time>2026-09-01T20:03:26Z</time>
  <course>4.54</course>
  <speed>12.677294664083501</speed>
  <fix>3d</fix>
</trkpt>
<trkpt lat="-27.274316" lon="151.2900682">
  <ele>373.88</ele>
  <time>2026-09-01T20:03:26Z</time>
  <course>1.95</course>
  <speed>12.68</speed>
  <fix>3d</fix>
</trkpt>
<trkpt lat="-27.2742811" lon="151.2900695">
  <ele>373.77</ele>
  <time>2026-09-01T20:03:26Z</time>
  <course>4.62</course>
  <speed>12.677294664083501</speed>
  <fix>3d</fix>
</trkpt>
<trkpt lat="-27.274316" lon="151.2900682">
  <ele>373.88</ele>
  <time>2026-09-01T20:03:26Z</time>
  <course>1.95</course>
  <speed>12.68</speed>
  <fix>3d</fix>
</trkpt>
<trkpt lat="-27.2742666" lon="151.29007">
  <ele>373.78</ele>
  <time>2026-09-01T20:03:26Z</time>
  <course>4.57</course>
  <speed>13.767686806431936</speed>
  <fix>3d</fix>
</trkpt>
<trkpt lat="-27.2742922" lon="151.2900691">
  <ele>373.92</ele>
  <time>2026-09-01T20:03:26Z</time>
  <course>1.91</course>
  <speed>13.77</speed>
  <fix>3d</fix>
</trkpt>
<trkpt lat="-27.2742543" lon="151.2900705">
  <ele>373.96</ele>
  <time>2026-09-01T20:03:26Z</time>
  <course>4.71</course>
  <speed>13.767686806431936</speed>
  <fix>3d</fix>
</trkpt>
<trkpt lat="-27.2742922" lon="151.2900691">
  <ele>373.92</ele>
  <time>2026-09-01T20:03:26Z</time>
  <course>1.91</course>
  <speed>13.77</speed>
  <fix>3d</fix>
</trkpt>
<trkpt lat="-27.2742391" lon="151.290071">
  <ele>373.99</ele>
  <time>2026-09-01T20:03:26Z</time>
  <course>4.87</course>
  <speed>14.8081092648589</speed>
  <fix>3d</fix>
</trkpt>
<trkpt lat="-27.2742666" lon="151.29007">
  <ele>373.99</ele>
  <time>2026-09-01T20:03:26Z</time>
  <course>1.9</course>
  <speed>14.81</speed>
  <fix>3d</fix>
</trkpt>
<trkpt lat="-27.2742257" lon="151.2900715">
  <ele>374.35</ele>
  <time>2026-09-01T20:03:26Z</time>
  <course>5.03</course>
  <speed>14.8081092648589</speed>
  <fix>3d</fix>
</trkpt>
<trkpt lat="-27.2742666" lon="151.29007">
  <ele>373.99</ele>
  <time>2026-09-01T20:03:26Z</time>
  <course>1.9</course>
  <speed>14.81</speed>
  <fix>3d</fix>
</trkpt>
<trkpt lat="-27.2742098" lon="151.2900722">
  <ele>374.34</ele>
  <time>2026-09-01T20:03:26Z</time>
  <course>5.25</course>
  <speed>15.779242694121919</speed>
  <fix>3d</fix>
</trkpt>
<trkpt lat="-27.2742391" lon="151.2900711">
  <ele>374.1</ele>
  <time>2026-09-01T20:03:26Z</time>
  <course>1.96</course>
  <speed>15.78</speed>
  <fix>3d</fix>
</trkpt>
<trkpt lat="-27.2741956" lon="151.2900727">
  <ele>374.43</ele>
  <time>2026-09-01T20:03:26Z</time>
  <course>5.52</course>
  <speed>15.779242694121919</speed>
  <fix>3d</fix>
</trkpt>
<trkpt lat="-27.2742391" lon="151.2900711">
  <ele>374.1</ele>
  <time>2026-09-01T20:03:26Z</time>
  <course>1.96</course>
  <speed>15.78</speed>
  <fix>3d</fix>
</trkpt>
<trkpt lat="-27.2741792" lon="151.2900735">
  <ele>374.5</ele>
  <time>2026-09-01T20:03:26Z</time>
  <course>5.86</course>
  <speed>16.631190576744647</speed>
  <fix>3d</fix>
</trkpt>
<trkpt lat="-27.2742099" lon="151.2900723">
  <ele>374.25</ele>
  <time>2026-09-01T20:03:26Z</time>
  <course>2.12</course>
  <speed>16.63</speed>
  <fix>3d</fix>
</trkpt>
<trkpt lat="-27.2741643" lon="151.2900742">
  <ele>374.37</ele>
  <time>2026-09-01T20:03:26Z</time>
  <course>6.34</course>
  <speed>16.631190576744647</speed>
  <fix>3d</fix>
</trkpt>
<trkpt lat="-27.2742099" lon="151.2900723">
  <ele>374.25</ele>
  <time>2026-09-01T20:03:26Z</time>
  <course>2.12</course>
  <speed>16.63</speed>
  <fix>3d</fix>
</trkpt>
<trkpt lat="-27.2741474" lon="151.2900752">
  <ele>374.46</ele>
  <time>2026-09-01T20:03:26Z</time>
  <course>6.89</course>
  <speed>17.34579199690807</speed>
  <fix>3d</fix>
</trkpt>
<trkpt lat="-27.2741794" lon="151.2900737">
  <ele>374.43</ele>
  <time>2026-09-01T20:03:26Z</time>
  <course>2.46</course>
  <speed>17.35</speed>
  <fix>3d</fix>
</trkpt>
<trkpt lat="-27.2741318" lon="151.290076">
  <ele>374.9</ele>
  <time>2026-09-01T20:03:26Z</time>
  <course>7.45</course>
  <speed>17.34579199690807</speed>
  <fix>3d</fix>
</trkpt>
<trkpt lat="-27.2741794" lon="151.2900737">
  <ele>374.43</ele>
  <time>2026-09-01T20:03:26Z</time>
  <course>2.46</course>
  <speed>17.35</speed>
  <fix>3d</fix>
</trkpt>
<trkpt lat="-27.2741144" lon="151.2900773">
  <ele>374.65</ele>
  <time>2026-09-01T20:03:26Z</time>
  <course>7.98</course>
  <speed>18.00668764653844</speed>
  <fix>3d</fix>
</trkpt>
<trkpt lat="-27.2741476" lon="151.2900753">
  <ele>374.63</ele>
  <time>2026-09-01T20:03:26Z</time>
  <course>3.12</course>
  <speed>18.0</speed>
  <fix>3d</fix>
</trkpt>
<trkpt lat="-27.2740982" lon="151.2900783">
  <ele>375.09</ele>
  <time>2026-09-01T20:03:26Z</time>
  <course>8.44</course>
  <speed>18.00668764653844</speed>
  <fix>3d</fix>
</trkpt>
<trkpt lat="-27.2741476" lon="151.2900753">
  <ele>374.63</ele>
  <time>2026-09-01T20:03:26Z</time>
  <course>3.12</course>
  <speed>18.0</speed>
  <fix>3d</fix>
</trkpt>
<trkpt lat="-27.2740805" lon="151.2900804">
  <ele>375.16</ele>
  <time>2026-09-01T20:03:26Z</time>
  <course>9.01</course>
  <speed>18.628258104288765</speed>
  <fix>3d</fix>
</trkpt>
<trkpt lat="-27.2741148" lon="151.2900777">
  <ele>374.83</ele>
  <time>2026-09-01T20:03:26Z</time>
  <course>4.13</course>
  <speed>18.63</speed>
  <fix>3d</fix>
</trkpt>
<trkpt lat="-27.2740638" lon="151.2900818">
  <ele>374.99</ele>
  <time>2026-09-01T20:03:26Z</time>
  <course>9.67</course>
  <speed>18.628258104288765</speed>
  <fix>3d</fix>
</trkpt>
<trkpt lat="-27.2741148" lon="151.2900777">
  <ele>374.83</ele>
  <time>2026-09-01T20:03:26Z</time>
  <course>4.13</course>
  <speed>18.63</speed>
  <fix>3d</fix>
</trkpt>
<trkpt lat="-27.2740455" lon="151.2900846">
  <ele>375.01</ele>
  <time>2026-09-01T20:03:26Z</time>
  <course>10.3</course>
  <speed>19.23629122258238</speed>
  <fix>3d</fix>
</trkpt>
<trkpt lat="-27.2740809" lon="151.2900809">
  <ele>375.04</ele>
  <time>2026-09-01T20:03:26Z</time>
  <course>5.44</course>
  <speed>19.24</speed>
  <fix>3d</fix>
</trkpt>
<trkpt lat="-27.2740283" lon="151.2900865">
  <ele>375.32</ele>
  <time>2026-09-01T20:03:26Z</time>
  <course>11.11</course>
  <speed>19.23629122258238</speed>
  <fix>3d</fix>
</trkpt>
<trkpt lat="-27.2740809" lon="151.2900809">
  <ele>375.04</ele>
  <time>2026-09-01T20:03:26Z</time>
  <course>5.44</course>
  <speed>19.24</speed>
  <fix>3d</fix>
</trkpt>
<trkpt lat="-27.2740095" lon="151.2900902">
  <ele>375.31</ele>
  <time>2026-09-01T20:03:26Z</time>
  <course>12.02</course>
  <speed>19.81708858535986</speed>
  <fix>3d</fix>
</trkpt>
<trkpt lat="-27.274046" lon="151.2900852">
  <ele>375.22</ele>
  <time>2026-09-01T20:03:26Z</time>
  <course>6.98</course>
  <speed>19.82</speed>
  <fix>3d</fix>
</trkpt>
<trkpt lat="-27.2739918" lon="151.2900926">
  <ele>375.5</ele>
  <time>2026-09-01T20:03:26Z</time>
  <course>13.07</course>
  <speed>19.81708858535986</speed>
  <fix>3d</fix>
</trkpt>
<trkpt lat="-27.274046" lon="151.2900852">
  <ele>375.22</ele>
  <time>2026-09-01T20:03:26Z</time>
  <course>6.98</course>
  <speed>19.82</speed>
  <fix>3d</fix>
</trkpt>
<trkpt lat="-27.2739728" lon="151.2900972">
  <ele>375.4</ele>
  <time>2026-09-01T20:03:26Z</time>
  <course>14.29</course>
  <speed>20.388589946340083</speed>
  <fix>3d</fix>
</trkpt>
<trkpt lat="-27.2740102" lon="151.2900907">
  <ele>375.39</ele>
  <time>2026-09-01T20:03:26Z</time>
  <course>8.78</course>
  <speed>20.39</speed>
  <fix>3d</fix>
</trkpt>
<trkpt lat="-27.2739547" lon="151.2901003">
  <ele>375.63</ele>
  <time>2026-09-01T20:03:26Z</time>
  <course>15.57</course>
  <speed>20.388589946340083</speed>
  <fix>3d</fix>
</trkpt>
<trkpt lat="-27.2740102" lon="151.2900907">
  <ele>375.39</ele>
  <time>2026-09-01T20:03:26Z</time>
  <course>8.78</course>
  <speed>20.39</speed>
  <fix>3d</fix>
</trkpt>
<trkpt lat="-27.2739354" lon="151.290106">
  <ele>375.7</ele>
  <time>2026-09-01T20:03:26Z</time>
  <course>16.9</course>
  <speed>20.928069667315235</speed>
  <fix>3d</fix>
</trkpt>
<trkpt lat="-27.2739736" lon="151.2900978">
  <ele>375.53</ele>
  <time>2026-09-01T20:03:26Z</time>
  <course>10.92</course>
  <speed>20.93</speed>
  <fix>3d</fix>
</trkpt>
<trkpt lat="-27.273917" lon="151.2901101">
  <ele>375.63</ele>
  <time>2026-09-01T20:03:26Z</time>
  <course>18.35</course>
  <speed>20.928069667315235</speed>
  <fix>3d</fix>
</trkpt>
<trkpt lat="-27.2739736" lon="151.2900978">
  <ele>375.53</ele>
  <time>2026-09-01T20:03:26Z</time>
  <course>10.92</course>
  <speed>20.93</speed>
  <fix>3d</fix>
</trkpt>
<trkpt lat="-27.2738976" lon="151.2901173">
  <ele>375.66</ele>
  <time>2026-09-01T20:03:26Z</time>
  <course>19.89</course>
  <speed>21.458261812178545</speed>
  <fix>3d</fix>
</trkpt>
<trkpt lat="-27.2739364" lon="151.2901069">
  <ele>375.63</ele>
  <time>2026-09-01T20:03:26Z</time>
  <course>13.47</course>
  <speed>21.46</speed>
  <fix>3d</fix>
</trkpt>
<trkpt lat="-27.2738789" lon="151.2901224">
  <ele>375.64</ele>
  <time>2026-09-01T20:03:26Z</time>
  <course>21.49</course>
  <speed>21.458261812178545</speed>
  <fix>3d</fix>
</trkpt>
<trkpt lat="-27.2739364" lon="151.2901069">
  <ele>375.63</ele>
  <time>2026-09-01T20:03:26Z</time>
  <course>13.47</course>
  <speed>21.46</speed>
  <fix>3d</fix>
</trkpt>
<trkpt lat="-27.2738596" lon="151.2901312">
  <ele>375.57</ele>
  <time>2026-09-01T20:03:26Z</time>
  <course>23.2</course>
  <speed>21.95649562202493</speed>
  <fix>3d</fix>
</trkpt>
<trkpt lat="-27.2738987" lon="151.2901182">
  <ele>375.7</ele>
  <time>2026-09-01T20:03:26Z</time>
  <course>16.44</course>
  <speed>21.96</speed>
  <fix>3d</fix>
</trkpt>
<trkpt lat="-27.2738407" lon="151.2901374">
  <ele>375.61</ele>
  <time>2026-09-01T20:03:26Z</time>
  <course>25.11</course>
  <speed>21.95649562202493</speed>
  <fix>3d</fix>
</trkpt>
<trkpt lat="-27.2738987" lon="151.2901182">
  <ele>375.7</ele>
  <time>2026-09-01T20:03:26Z</time>
  <course>16.44</course>
  <speed>21.96</speed>
  <fix>3d</fix>
</trkpt>
<trkpt lat="-27.2738216" lon="151.290148">
  <ele>375.7</ele>
  <time>2026-09-01T20:03:26Z</time>
  <course>27.15</course>
  <speed>22.4458102994746</speed>
  <fix>3d</fix>
</trkpt>
<trkpt lat="-27.2738608" lon="151.2901321">
  <ele>375.75</ele>
  <time>2026-09-01T20:03:26Z</time>
  <course>19.8</course>
  <speed>22.44</speed>
  <fix>3d</fix>
</trkpt>
<trkpt lat="-27.2738026" lon="151.2901556">
  <ele>375.57</ele>
  <time>2026-09-01T20:03:26Z</time>
  <course>29.2</course>
  <speed>22.4458102994746</speed>
  <fix>3d</fix>
</trkpt>
<trkpt lat="-27.2738608" lon="151.2901321">
  <ele>375.75</ele>
  <time>2026-09-01T20:03:26Z</time>
  <course>19.8</course>
  <speed>22.44</speed>
  <fix>3d</fix>
</trkpt>
<trkpt lat="-27.2737839" lon="151.2901682">
  <ele>375.92</ele>
  <time>2026-09-01T20:03:26Z</time>
  <course>31.29</course>
  <speed>22.91199903980445</speed>
  <fix>3d</fix>
</trkpt>
<trkpt lat="-27.2738229" lon="151.2901491">
  <ele>375.77</ele>
  <time>2026-09-01T20:03:26Z</time>
  <course>23.5</course>
  <speed>22.91</speed>
  <fix>3d</fix>
</trkpt>
<trkpt lat="-27.273765" lon="151.2901774">
  <ele>375.79</ele>
  <time>2026-09-01T20:03:26Z</time>
  <course>33.59</course>
  <speed>22.91199903980445</speed>
  <fix>3d</fix>
</trkpt>
<trkpt lat="-27.2738229" lon="151.2901491">
  <ele>375.77</ele>
  <time>2026-09-01T20:03:26Z</time>
  <course>23.5</course>
  <speed>22.91</speed>
  <fix>3d</fix>
</trkpt>
<trkpt lat="-27.2737468" lon="151.2901919">
  <ele>375.54</ele>
  <time>2026-09-01T20:03:26Z</time>
  <course>35.91</course>
  <speed>23.365752716315388</speed>
  <fix>3d</fix>
</trkpt>
<trkpt lat="-27.2737853" lon="151.2901693">
  <ele>375.76</ele>
  <time>2026-09-01T20:03:26Z</time>
  <course>27.53</course>
  <speed>23.37</speed>
  <fix>3d</fix>
</trkpt>
<trkpt lat="-27.2737282" lon="151.2902028">
  <ele>375.8</ele>
  <time>2026-09-01T20:03:26Z</time>
  <course>38.34</course>
  <speed>23.365752716315388</speed>
  <fix>3d</fix>
</trkpt>
<trkpt lat="-27.2737853" lon="151.2901693">
  <ele>375.76</ele>
  <time>2026-09-01T20:03:26Z</time>
  <course>27.53</course>
  <speed>23.37</speed>
  <fix>3d</fix>
</trkpt>
<trkpt lat="-27.2737111" lon="151.290219">
  <ele>375.58</ele>
  <time>2026-09-01T20:03:26Z</time>
  <course>40.83</course>
  <speed>23.803403118041757</speed>
  <fix>3d</fix>
</trkpt>
<trkpt lat="-27.2737485" lon="151.2901929">
  <ele>375.71</ele>
  <time>2026-09-01T20:03:26Z</time>
  <course>31.85</course>
  <speed>23.8</speed>
  <fix>3d</fix>
</trkpt>
<trkpt lat="-27.273693" lon="151.2902317">
  <ele>375.6</ele>
  <time>2026-09-01T20:03:26Z</time>
  <course>43.41</course>
  <speed>23.803403118041757</speed>
  <fix>3d</fix>
</trkpt>
<trkpt lat="-27.2737485" lon="151.2901929">
  <ele>375.71</ele>
  <time>2026-09-01T20:03:26Z</time>
  <course>31.85</course>
  <speed>23.8</speed>
  <fix>3d</fix>
</trkpt>
<trkpt lat="-27.2736768" lon="151.29025">
  <ele>375.63</ele>
  <time>2026-09-01T20:03:26Z</time>
  <course>45.95</course>
  <speed>24.216541867079204</speed>
  <fix>3d</fix>
</trkpt>
<trkpt lat="-27.2737128" lon="151.2902201">
  <ele>375.63</ele>
  <time>2026-09-01T20:03:26Z</time>
  <course>36.48</course>
  <speed>24.22</speed>
  <fix>3d</fix>
</trkpt>
<trkpt lat="-27.2736593" lon="151.2902646">
  <ele>375.62</ele>
  <time>2026-09-01T20:03:26Z</time>
  <course>48.56</course>
  <speed>24.216541867079204</speed>
  <fix>3d</fix>
</trkpt>
<trkpt lat="-27.2737128" lon="151.2902201">
  <ele>375.63</ele>
  <time>2026-09-01T20:03:26Z</time>
  <course>36.48</course>
  <speed>24.22</speed>
  <fix>3d</fix>
</trkpt>
<trkpt lat="-27.2736446" lon="151.2902849">
  <ele>375.19</ele>
  <time>2026-09-01T20:03:26Z</time>
  <course>51.32</course>
  <speed>24.599983739832023</speed>
  <fix>3d</fix>
</trkpt>
<trkpt lat="-27.2736787" lon="151.2902511">
  <ele>375.52</ele>
  <time>2026-09-01T20:03:26Z</time>
  <course>41.37</course>
  <speed>24.6</speed>
  <fix>3d</fix>
</trkpt>
<trkpt lat="-27.273628" lon="151.2903013">
  <ele>375.18</ele>
  <time>2026-09-01T20:03:26Z</time>
  <course>54.08</course>
  <speed>24.599983739832023</speed>
  <fix>3d</fix>
</trkpt>
<trkpt lat="-27.2736787" lon="151.2902511">
  <ele>375.52</ele>
  <time>2026-09-01T20:03:26Z</time>
  <course>41.37</course>
  <speed>24.6</speed>
  <fix>3d</fix>
</trkpt>
<trkpt lat="-27.2736149" lon="151.2903235">
  <ele>375.36</ele>
  <time>2026-09-01T20:03:26Z</time>
  <course>56.85</course>
  <speed>24.898293114187567</speed>
  <fix>3d</fix>
</trkpt>
<trkpt lat="-27.2736467" lon="151.2902858">
  <ele>375.39</ele>
  <time>2026-09-01T20:03:26Z</time>
  <course>46.46</course>
  <speed>24.9</speed>
  <fix>3d</fix>
</trkpt>
<trkpt lat="-27.2735995" lon="151.2903418">
  <ele>375.0</ele>
  <time>2026-09-01T20:03:26Z</time>
  <course>59.68</course>
  <speed>24.898293114187567</speed>
  <fix>3d</fix>
</trkpt>
<trkpt lat="-27.2736467" lon="151.2902858">
  <ele>375.39</ele>
  <time>2026-09-01T20:03:26Z</time>
  <course>46.46</course>
  <speed>24.9</speed>
  <fix>3d</fix>
</trkpt>
<trkpt lat="-27.2735885" lon="151.2903651">
  <ele>375.21</ele>
  <time>2026-09-01T20:03:26Z</time>
  <course>62.48</course>
  <speed>25.069569202521212</speed>
  <fix>3d</fix>
</trkpt>
<trkpt lat="-27.2736173" lon="151.290324">
  <ele>375.24</ele>
  <time>2026-09-01T20:03:26Z</time>
  <course>51.72</course>
  <speed>25.08</speed>
  <fix>3d</fix>
</trkpt>
<trkpt lat="-27.2735745" lon="151.290385">
  <ele>374.98</ele>
  <time>2026-09-01T20:03:26Z</time>
  <course>65.27</course>
  <speed>25.069569202521212</speed>
  <fix>3d</fix>
</trkpt>
<trkpt lat="-27.2736173" lon="151.290324">
  <ele>375.24</ele>
  <time>2026-09-01T20:03:26Z</time>
  <course>51.72</course>
  <speed>25.08</speed>
  <fix>3d</fix>
</trkpt>
<trkpt lat="-27.2735657" lon="151.2904095">
  <ele>374.96</ele>
  <time>2026-09-01T20:03:26Z</time>
  <course>68.06</course>
  <speed>25.18858670112319</speed>
  <fix>3d</fix>
</trkpt>
<trkpt lat="-27.2735911" lon="151.2903653">
  <ele>375.07</ele>
  <time>2026-09-01T20:03:26Z</time>
  <course>57.1</course>
  <speed>25.19</speed>
  <fix>3d</fix>
</trkpt>
<trkpt lat="-27.2735534" lon="151.2904309">
  <ele>374.63</ele>
  <time>2026-09-01T20:03:26Z</time>
  <course>70.88</course>
  <speed>25.18858670112319</speed>
  <fix>3d</fix>
</trkpt>
<trkpt lat="-27.2735911" lon="151.2903653">
  <ele>375.07</ele>
  <time>2026-09-01T20:03:26Z</time>
  <course>57.1</course>
  <speed>25.19</speed>
  <fix>3d</fix>
</trkpt>
<trkpt lat="-27.2735467" lon="151.2904562">
  <ele>374.67</ele>
  <time>2026-09-01T20:03:26Z</time>
  <course>73.78</course>
  <speed>25.283909903335758</speed>
  <fix>3d</fix>
</trkpt>
<trkpt lat="-27.2735683" lon="151.2904093">
  <ele>374.89</ele>
  <time>2026-09-01T20:03:26Z</time>
  <course>62.56</course>
  <speed>25.29</speed>
  <fix>3d</fix>
</trkpt>
<trkpt lat="-27.2735362" lon="151.2904789">
  <ele>374.54</ele>
  <time>2026-09-01T20:03:26Z</time>
  <course>76.66</course>
  <speed>25.283909903335758</speed>
  <fix>3d</fix>
</trkpt>
<trkpt lat="-27.2735683" lon="151.2904093">
  <ele>374.89</ele>
  <time>2026-09-01T20:03:26Z</time>
  <course>62.56</course>
  <speed>25.29</speed>
  <fix>3d</fix>
</trkpt>
<trkpt lat="-27.2735318" lon="151.290505">
  <ele>374.47</ele>
  <time>2026-09-01T20:03:26Z</time>
  <course>79.59</course>
  <speed>25.366002838445006</speed>
  <fix>3d</fix>
</trkpt>
<trkpt lat="-27.2735493" lon="151.2904558">
  <ele>374.68</ele>
  <time>2026-09-01T20:03:26Z</time>
  <course>68.11</course>
  <speed>25.37</speed>
  <fix>3d</fix>
</trkpt>
<trkpt lat="-27.2735233" lon="151.2905288">
  <ele>374.51</ele>
  <time>2026-09-01T20:03:26Z</time>
  <course>82.56</course>
  <speed>25.366002838445006</speed>
  <fix>3d</fix>
</trkpt>
<trkpt lat="-27.2735493" lon="151.2904558">
  <ele>374.68</ele>
  <time>2026-09-01T20:03:26Z</time>
  <course>68.11</course>
  <speed>25.37</speed>
  <fix>3d</fix>
</trkpt>
<trkpt lat="-27.2735213" lon="151.2905554">
  <ele>374.14</ele>
  <time>2026-09-01T20:03:26Z</time>
  <course>85.54</course>
  <speed>25.42841914079599</speed>
  <fix>3d</fix>
</trkpt>
<trkpt lat="-27.2735344" lon="151.2905043">
  <ele>374.46</ele>
  <time>2026-09-01T20:03:26Z</time>
  <course>73.81</course>
  <speed>25.43</speed>
  <fix>3d</fix>
</trkpt>
<trkpt lat="-27.2735149" lon="151.29058">
  <ele>374.03</ele>
  <time>2026-09-01T20:03:26Z</time>
  <course>88.55</course>
  <speed>25.42841914079599</speed>
  <fix>3d</fix>
</trkpt>
<trkpt lat="-27.2735344" lon="151.2905043">
  <ele>374.46</ele>
  <time>2026-09-01T20:03:26Z</time>
  <course>73.81</course>
  <speed>25.43</speed>
  <fix>3d</fix>
</trkpt>
<trkpt lat="-27.2735155" lon="151.2906069">
  <ele>374.13</ele>
  <time>2026-09-01T20:03:26Z</time>
  <course>91.47</course>
  <speed>25.471497796556843</speed>
  <fix>3d</fix>
</trkpt>
<trkpt lat="-27.2735239" lon="151.2905545">
  <ele>374.22</ele>
  <time>2026-09-01T20:03:26Z</time>
  <course>79.68</course>
  <speed>25.47</speed>
  <fix>3d</fix>
</trkpt>
<trkpt lat="-27.2735114" lon="151.2906322">
  <ele>373.79</ele>
  <time>2026-09-01T20:03:26Z</time>
  <course>94.48</course>
  <speed>25.471497796556843</speed>
  <fix>3d</fix>
</trkpt>
<trkpt lat="-27.2735239" lon="151.2905545">
  <ele>374.22</ele>
  <time>2026-09-01T20:03:26Z</time>
  <course>79.68</course>
  <speed>25.47</speed>
  <fix>3d</fix>
</trkpt>
<trkpt lat="-27.2735144" lon="151.2906596">
  <ele>373.89</ele>
  <time>2026-09-01T20:03:26Z</time>
  <course>97.67</course>
  <speed>25.492406712587968</speed>
  <fix>3d</fix>
</trkpt>
<trkpt lat="-27.273518" lon="151.2906057">
  <ele>373.97</ele>
  <time>2026-09-01T20:03:26Z</time>
  <course>85.66</course>
  <speed>25.49</speed>
  <fix>3d</fix>
</trkpt>
<trkpt lat="-27.2735127" lon="151.2906853">
  <ele>373.73</ele>
  <time>2026-09-01T20:03:26Z</time>
  <course>100.75</course>
  <speed>25.492406712587968</speed>
  <fix>3d</fix>
</trkpt>
<trkpt lat="-27.273518" lon="151.2906057">
  <ele>373.97</ele>
  <time>2026-09-01T20:03:26Z</time>
  <course>85.66</course>
  <speed>25.49</speed>
  <fix>3d</fix>
</trkpt>
<trkpt lat="-27.2735185" lon="151.2907113">
  <ele>373.49</ele>
  <time>2026-09-01T20:03:26Z</time>
  <course>103.75</course>
  <speed>25.501627399050438</speed>
  <fix>3d</fix>
</trkpt>
<trkpt lat="-27.2735171" lon="151.2906572">
  <ele>373.72</ele>
  <time>2026-09-01T20:03:26Z</time>
  <course>91.73</course>
  <speed>25.5</speed>
  <fix>3d</fix>
</trkpt>
<trkpt lat="-27.2735192" lon="151.290737">
  <ele>373.29</ele>
  <time>2026-09-01T20:03:26Z</time>
  <course>106.82</course>
  <speed>25.501627399050438</speed>
  <fix>3d</fix>
</trkpt>
<trkpt lat="-27.2735171" lon="151.2906572">
  <ele>373.72</ele>
  <time>2026-09-01T20:03:26Z</time>
  <course>91.73</course>
  <speed>25.5</speed>
  <fix>3d</fix>
</trkpt>
<trkpt lat="-27.2735275" lon="151.2907621">
  <ele>373.08</ele>
  <time>2026-09-01T20:03:26Z</time>
  <course>109.86</course>
  <speed>25.502699857073956</speed>
  <fix>3d</fix>
</trkpt>
<trkpt lat="-27.2735209" lon="151.2907085">
  <ele>373.46</ele>
  <time>2026-09-01T20:03:26Z</time>
  <course>97.92</course>
  <speed>25.5</speed>
  <fix>3d</fix>
</trkpt>
<trkpt lat="-27.2735306" lon="151.2907876">
  <ele>373.07</ele>
  <time>2026-09-01T20:03:26Z</time>
  <course>112.92</course>
  <speed>25.502699857073956</speed>
  <fix>3d</fix>
</trkpt>
<trkpt lat="-27.2735209" lon="151.2907085">
  <ele>373.46</ele>
  <time>2026-09-01T20:03:26Z</time>
  <course>97.92</course>
  <speed>25.5</speed>
  <fix>3d</fix>
</trkpt>
<trkpt lat="-27.2735412" lon="151.2908108">
  <ele>372.91</ele>
  <time>2026-09-01T20:03:26Z</time>
  <course>115.98</course>
  <speed>25.500313723560343</speed>
  <fix>3d</fix>
</trkpt>
<trkpt lat="-27.2735296" lon="151.2907591">
  <ele>373.19</ele>
  <time>2026-09-01T20:03:26Z</time>
  <course>104.21</course>
  <speed>25.5</speed>
  <fix>3d</fix>
</trkpt>
<trkpt lat="-27.2735468" lon="151.2908358">
  <ele>372.81</ele>
  <time>2026-09-01T20:03:26Z</time>
  <course>119.06</course>
  <speed>25.500313723560343</speed>
  <fix>3d</fix>
</trkpt>
<trkpt lat="-27.2735296" lon="151.2907591">
  <ele>373.19</ele>
  <time>2026-09-01T20:03:26Z</time>
  <course>104.21</course>
  <speed>25.5</speed>
  <fix>3d</fix>
</trkpt>
<trkpt lat="-27.2735599" lon="151.2908581">
  <ele>372.81</ele>
  <time>2026-09-01T20:03:26Z</time>
  <course>122.16</course>
  <speed>25.492732297656918</speed>
  <fix>3d</fix>
</trkpt>
<trkpt lat="-27.2735433" lon="151.2908082">
  <ele>372.93</ele>
  <time>2026-09-01T20:03:26Z</time>
  <course>110.57</course>
  <speed>25.49</speed>
  <fix>3d</fix>
</trkpt>
<trkpt lat="-27.273568" lon="151.2908822">
  <ele>372.67</ele>
  <time>2026-09-01T20:03:26Z</time>
  <course>125.25</course>
  <speed>25.492732297656918</speed>
  <fix>3d</fix>
</trkpt>
<trkpt lat="-27.2735433" lon="151.2908082">
  <ele>372.93</ele>
  <time>2026-09-01T20:03:26Z</time>
  <course>110.57</course>
  <speed>25.49</speed>
  <fix>3d</fix>
</trkpt>
<trkpt lat="-27.2735833" lon="151.2909028">
  <ele>372.54</ele>
  <time>2026-09-01T20:03:26Z</time>
  <course>128.41</course>
  <speed>25.49196932369094</speed>
  <fix>3d</fix>
</trkpt>
<trkpt lat="-27.2735618" lon="151.2908553">
  <ele>372.68</ele>
  <time>2026-09-01T20:03:26Z</time>
  <course>117.01</course>
  <speed>25.49</speed>
  <fix>3d</fix>
</trkpt>
<trkpt lat="-27.2735937" lon="151.2909257">
  <ele>372.23</ele>
  <time>2026-09-01T20:03:26Z</time>
  <course>131.56</course>
  <speed>25.49196932369094</speed>
  <fix>3d</fix>
</trkpt>
<trkpt lat="-27.2735618" lon="151.2908553">
  <ele>372.68</ele>
  <time>2026-09-01T20:03:26Z</time>
  <course>117.01</course>
  <speed>25.49</speed>
  <fix>3d</fix>
</trkpt>
<trkpt lat="-27.2736109" lon="151.2909441">
  <ele>372.27</ele>
  <time>2026-09-01T20:03:26Z</time>
  <course>134.77</course>
  <speed>25.48301395047297</speed>
  <fix>3d</fix>
</trkpt>
<trkpt lat="-27.2735848" lon="151.2908997">
  <ele>372.43</ele>
  <time>2026-09-01T20:03:26Z</time>
  <course>123.54</course>
  <speed>25.49</speed>
  <fix>3d</fix>
</trkpt>
<trkpt lat="-27.2736236" lon="151.2909656">
  <ele>372.24</ele>
  <time>2026-09-01T20:03:26Z</time>
  <course>137.94</course>
  <speed>25.48301395047297</speed>
  <fix>3d</fix>
</trkpt>
<trkpt lat="-27.2735848" lon="151.2908997">
  <ele>372.43</ele>
  <time>2026-09-01T20:03:26Z</time>
  <course>123.54</course>
  <speed>25.49</speed>
  <fix>3d</fix>
</trkpt>
<trkpt lat="-27.2736427" lon="151.2909816">
  <ele>371.81</ele>
  <time>2026-09-01T20:03:26Z</time>
  <course>141.08</course>
  <speed>25.4812499693402</speed>
  <fix>3d</fix>
</trkpt>
<trkpt lat="-27.2736122" lon="151.2909409">
  <ele>372.19</ele>
  <time>2026-09-01T20:03:26Z</time>
  <course>130.2</course>
  <speed>25.48</speed>
  <fix>3d</fix>
</trkpt>
<trkpt lat="-27.2736575" lon="151.2910012">
  <ele>372.01</ele>
  <time>2026-09-01T20:03:26Z</time>
  <course>144.3</course>
  <speed>25.4812499693402</speed>
  <fix>3d</fix>
</trkpt>
<trkpt lat="-27.2736122" lon="151.2909409">
  <ele>372.19</ele>
  <time>2026-09-01T20:03:26Z</time>
  <course>130.2</course>
  <speed>25.48</speed>
  <fix>3d</fix>
</trkpt>
<trkpt lat="-27.2736784" lon="151.2910144">
  <ele>371.77</ele>
  <time>2026-09-01T20:03:26Z</time>
  <course>147.66</course>
  <speed>25.47825150986621</speed>
  <fix>3d</fix>
</trkpt>
<trkpt lat="-27.2736438" lon="151.2909781">
  <ele>371.97</ele>
  <time>2026-09-01T20:03:26Z</time>
  <course>136.98</course>
  <speed>25.48</speed>
  <fix>3d</fix>
</trkpt>
<trkpt lat="-27.2736951" lon="151.291032">
  <ele>371.51</ele>
  <time>2026-09-01T20:03:26Z</time>
  <course>151.17</course>
  <speed>25.47825150986621</speed>
  <fix>3d</fix>
</trkpt>
<trkpt lat="-27.2736438" lon="151.2909781">
  <ele>371.97</ele>
  <time>2026-09-01T20:03:26Z</time>
  <course>136.98</course>
  <speed>25.48</speed>
  <fix>3d</fix>
</trkpt>
<trkpt lat="-27.2737174" lon="151.2910423">
  <ele>371.41</ele>
  <time>2026-09-01T20:03:26Z</time>
  <course>155.55</course>
  <speed>25.470775410261854</speed>
  <fix>3d</fix>
</trkpt>
<trkpt lat="-27.2736791" lon="151.291011">
  <ele>371.78</ele>
  <time>2026-09-01T20:03:26Z</time>
  <course>143.96</course>
  <speed>25.47</speed>
  <fix>3d</fix>
</trkpt>
<trkpt lat="-27.2737359" lon="151.2910574">
  <ele>371.38</ele>
  <time>2026-09-01T20:03:26Z</time>
  <course>159.92</course>
  <speed>25.470775410261854</speed>
  <fix>3d</fix>
</trkpt>
<trkpt lat="-27.2736791" lon="151.291011">
  <ele>371.78</ele>
  <time>2026-09-01T20:03:26Z</time>
  <course>143.96</course>
  <speed>25.47</speed>
  <fix>3d</fix>
</trkpt>
<trkpt lat="-27.2737595" lon="151.2910636">
  <ele>371.5</ele>
  <time>2026-09-01T20:03:26Z</time>
  <course>163.88</course>
  <speed>25.41653202150128</speed>
  <fix>3d</fix>
</trkpt>
<trkpt lat="-27.2737179" lon="151.2910385">
  <ele>371.63</ele>
  <time>2026-09-01T20:03:26Z</time>
  <course>151.8</course>
  <speed>25.42</speed>
  <fix>3d</fix>
</trkpt>
<trkpt lat="-27.2737803" lon="151.2910761">
  <ele>371.57</ele>
  <time>2026-09-01T20:03:26Z</time>
  <course>167.64</course>
  <speed>25.41653202150128</speed>
  <fix>3d</fix>
</trkpt>
<trkpt lat="-27.2737179" lon="151.2910385">
  <ele>371.63</ele>
  <time>2026-09-01T20:03:26Z</time>
  <course>151.8</course>
  <speed>25.42</speed>
  <fix>3d</fix>
</trkpt>
<trkpt lat="-27.2738046" lon="151.2910772">
  <ele>371.74</ele>
  <time>2026-09-01T20:03:26Z</time>
  <course>171.28</course>
  <speed>25.366513359151273</speed>
  <fix>3d</fix>
</trkpt>
<trkpt lat="-27.2737596" lon="151.2910592">
  <ele>371.57</ele>
  <time>2026-09-01T20:03:26Z</time>
  <course>160.42</course>
  <speed>25.37</speed>
  <fix>3d</fix>
</trkpt>
<trkpt lat="-27.2738261" lon="151.2910858">
  <ele>371.79</ele>
  <time>2026-09-01T20:03:26Z</time>
  <course>175.01</course>
  <speed>25.366513359151273</speed>
  <fix>3d</fix>
</trkpt>
<trkpt lat="-27.2737596" lon="151.2910592">
  <ele>371.57</ele>
  <time>2026-09-01T20:03:26Z</time>
  <course>160.42</course>
  <speed>25.37</speed>
  <fix>3d</fix>
</trkpt>
<trkpt lat="-27.2738503" lon="151.2910832">
  <ele>371.69</ele>
  <time>2026-09-01T20:03:26Z</time>
  <course>178.54</course>
  <speed>25.344121606400172</speed>
  <fix>3d</fix>
</trkpt>
<trkpt lat="-27.2738034" lon="151.2910728">
  <ele>371.63</ele>
  <time>2026-09-01T20:03:26Z</time>
  <course>168.77</course>
  <speed>25.35</speed>
  <fix>3d</fix>
</trkpt>
<trkpt lat="-27.2738726" lon="151.2910882">
  <ele>371.72</ele>
  <time>2026-09-01T20:03:26Z</time>
  <course>181.79</course>
  <speed>25.344121606400172</speed>
  <fix>3d</fix>
</trkpt>
<trkpt lat="-27.2738034" lon="151.2910728">
  <ele>371.63</ele>
  <time>2026-09-01T20:03:26Z</time>
  <course>168.77</course>
  <speed>25.35</speed>
  <fix>3d</fix>
</trkpt>
<trkpt lat="-27.2738962" lon="151.2910823">
  <ele>371.97</ele>
  <time>2026-09-01T20:03:26Z</time>
  <course>184.83</course>
  <speed>25.342669551568555</speed>
  <fix>3d</fix>
</trkpt>
<trkpt lat="-27.2738485" lon="151.2910792">
  <ele>371.76</ele>
  <time>2026-09-01T20:03:26Z</time>
  <course>176.66</course>
  <speed>25.34</speed>
  <fix>3d</fix>
</trkpt>
<trkpt lat="-27.2739189" lon="151.2910838">
  <ele>372.15</ele>
  <time>2026-09-01T20:03:26Z</time>
  <course>187.67</course>
  <speed>25.342669551568555</speed>
  <fix>3d</fix>
</trkpt>
<trkpt lat="-27.2738485" lon="151.2910792">
  <ele>371.76</ele>
  <time>2026-09-01T20:03:26Z</time>
  <course>176.66</course>
  <speed>25.34</speed>
  <fix>3d</fix>
</trkpt>
<trkpt lat="-27.2739416" lon="151.2910752">
  <ele>372.26</ele>
  <time>2026-09-01T20:03:26Z</time>
  <course>190.24</course>
  <speed>25.340499205816762</speed>
  <fix>3d</fix>
</trkpt>
<trkpt lat="-27.273894" lon="151.2910789">
  <ele>371.96</ele>
  <time>2026-09-01T20:03:26Z</time>
  <course>183.96</course>
  <speed>25.34</speed>
  <fix>3d</fix>
</trkpt>
<trkpt lat="-27.2739641" lon="151.2910735">
  <ele>372.38</ele>
  <time>2026-09-01T20:03:26Z</time>
  <course>192.42</course>
  <speed>25.340499205816762</speed>
  <fix>3d</fix>
</trkpt>
<trkpt lat="-27.273894" lon="151.2910789">
  <ele>371.96</ele>
  <time>2026-09-01T20:03:26Z</time>
  <course>183.96</course>
  <speed>25.34</speed>
  <fix>3d</fix>
</trkpt>
<trkpt lat="-27.2739862" lon="151.2910629">
  <ele>372.29</ele>
  <time>2026-09-01T20:03:26Z</time>
  <course>194.24</course>
  <speed>25.32660261464218</speed>
  <fix>3d</fix>
</trkpt>
<trkpt lat="-27.2739392" lon="151.2910725">
  <ele>372.21</ele>
  <time>2026-09-01T20:03:26Z</time>
  <course>190.29</course>
  <speed>25.33</speed>
  <fix>3d</fix>
</trkpt>
<trkpt lat="-27.2740086" lon="151.2910584">
  <ele>372.48</ele>
  <time>2026-09-01T20:03:26Z</time>
  <course>195.75</course>
  <speed>25.32660261464218</speed>
  <fix>3d</fix>
</trkpt>
<trkpt lat="-27.2739392" lon="151.2910725">
  <ele>372.21</ele>
  <time>2026-09-01T20:03:26Z</time>
  <course>190.29</course>
  <speed>25.33</speed>
  <fix>3d</fix>
</trkpt>
<trkpt lat="-27.2740295" lon="151.2910469">
  <ele>372.89</ele>
  <time>2026-09-01T20:03:26Z</time>
  <course>196.97</course>
  <speed>25.275943108022698</speed>
  <fix>3d</fix>
</trkpt>
<trkpt lat="-27.2739835" lon="151.291061">
  <ele>372.5</ele>
  <time>2026-09-01T20:03:26Z</time>
  <course>195.3</course>
  <speed>25.28</speed>
  <fix>3d</fix>
</trkpt>
<trkpt lat="-27.2740514" lon="151.2910401">
  <ele>373.0</ele>
  <time>2026-09-01T20:03:26Z</time>
  <course>197.92</course>
  <speed>25.275943108022698</speed>
  <fix>3d</fix>
</trkpt>
<trkpt lat="-27.2739835" lon="151.291061">
  <ele>372.5</ele>
  <time>2026-09-01T20:03:26Z</time>
  <course>195.3</course>
  <speed>25.28</speed>
  <fix>3d</fix>
</trkpt>
<trkpt lat="-27.2740713" lon="151.2910289">
  <ele>372.94</ele>
  <time>2026-09-01T20:03:26Z</time>
  <course>198.7</course>
  <speed>25.181908188221165</speed>
  <fix>3d</fix>
</trkpt>
<trkpt lat="-27.2740268" lon="151.291046">
  <ele>372.78</ele>
  <time>2026-09-01T20:03:26Z</time>
  <course>198.87</course>
  <speed>25.19</speed>
  <fix>3d</fix>
</trkpt>
<trkpt lat="-27.2740927" lon="151.2910207">
  <ele>372.86</ele>
  <time>2026-09-01T20:03:26Z</time>
  <course>199.45</course>
  <speed>25.181908188221165</speed>
  <fix>3d</fix>
</trkpt>
<trkpt lat="-27.2740268" lon="151.291046">
  <ele>372.78</ele>
  <time>2026-09-01T20:03:26Z</time>
  <course>198.87</course>
  <speed>25.19</speed>
  <fix>3d</fix>
</trkpt>
<trkpt lat="-27.2741125" lon="151.2910096">
  <ele>372.97</ele>
  <time>2026-09-01T20:03:26Z</time>
  <course>200.06</course>
  <speed>25.057503866107655</speed>
  <fix>3d</fix>
</trkpt>
<trkpt lat="-27.2740691" lon="151.2910285">
  <ele>372.99</ele>
  <time>2026-09-01T20:03:26Z</time>
  <course>201.15</course>
  <speed>25.06</speed>
  <fix>3d</fix>
</trkpt>
<trkpt lat="-27.2741335" lon="151.2910005">
  <ele>373.15</ele>
  <time>2026-09-01T20:03:26Z</time>
  <course>200.66</course>
  <speed>25.057503866107655</speed>
  <fix>3d</fix>
</trkpt>
<trkpt lat="-27.2740691" lon="151.2910285">
  <ele>372.99</ele>
  <time>2026-09-01T20:03:26Z</time>
  <course>201.15</course>
  <speed>25.06</speed>
  <fix>3d</fix>
</trkpt>
<trkpt lat="-27.2741534" lon="151.2909898">
  <ele>372.86</ele>
  <time>2026-09-01T20:03:26Z</time>
  <course>201.18</course>
  <speed>24.892376342968944</speed>
  <fix>3d</fix>
</trkpt>
<trkpt lat="-27.2741107" lon="151.2910097">
  <ele>373.09</ele>
  <time>2026-09-01T20:03:26Z</time>
  <course>202.49</course>
  <speed>24.89</speed>
  <fix>3d</fix>
</trkpt>
<trkpt lat="-27.2741741" lon="151.2909802">
  <ele>372.85</ele>
  <time>2026-09-01T20:03:26Z</time>
  <course>201.71</course>
  <speed>24.892376342968944</speed>
  <fix>3d</fix>
</trkpt>
<trkpt lat="-27.2741107" lon="151.2910097">
  <ele>373.09</ele>
  <time>2026-09-01T20:03:26Z</time>
  <course>202.49</course>
  <speed>24.89</speed>
  <fix>3d</fix>
</trkpt>
<trkpt lat="-27.2741941" lon="151.2909697">
  <ele>372.76</ele>
  <time>2026-09-01T20:03:26Z</time>
  <course>202.26</course>
  <speed>24.71716812258233</speed>
  <fix>3d</fix>
</trkpt>
<trkpt lat="-27.2741519" lon="151.2909901">
  <ele>373.04</ele>
  <time>2026-09-01T20:03:26Z</time>
  <course>203.3</course>
  <speed>24.72</speed>
  <fix>3d</fix>
</trkpt>
<trkpt lat="-27.2742145" lon="151.2909598">
  <ele>372.55</ele>
  <time>2026-09-01T20:03:26Z</time>
  <course>202.81</course>
  <speed>24.71716812258233</speed>
  <fix>3d</fix>
</trkpt>
<trkpt lat="-27.2741519" lon="151.2909901">
  <ele>373.04</ele>
  <time>2026-09-01T20:03:26Z</time>
  <course>203.3</course>
  <speed>24.72</speed>
  <fix>3d</fix>
</trkpt>
<trkpt lat="-27.2742348" lon="151.2909492">
  <ele>372.64</ele>
  <time>2026-09-01T20:03:26Z</time>
  <course>203.25</course>
  <speed>24.562314630343778</speed>
  <fix>3d</fix>
</trkpt>
<trkpt lat="-27.2741925" lon="151.2909702">
  <ele>372.85</ele>
  <time>2026-09-01T20:03:26Z</time>
  <course>203.83</course>
  <speed>24.56</speed>
  <fix>3d</fix>
</trkpt>
<trkpt lat="-27.274255" lon="151.2909391">
  <ele>372.36</ele>
  <time>2026-09-01T20:03:26Z</time>
  <course>203.62</course>
  <speed>24.562314630343778</speed>
  <fix>3d</fix>
</trkpt>
<trkpt lat="-27.2741925" lon="151.2909702">
  <ele>372.85</ele>
  <time>2026-09-01T20:03:26Z</time>
  <course>203.83</course>
  <speed>24.56</speed>
  <fix>3d</fix>
</trkpt>
<trkpt lat="-27.2742747" lon="151.2909288">
  <ele>372.33</ele>
  <time>2026-09-01T20:03:26Z</time>
  <course>203.92</course>
  <speed>24.442688068213773</speed>
  <fix>3d</fix>
</trkpt>
<trkpt lat="-27.2742327" lon="151.29095">
  <ele>372.53</ele>
  <time>2026-09-01T20:03:26Z</time>
  <course>204.23</course>
  <speed>24.44</speed>
  <fix>3d</fix>
</trkpt>
<trkpt lat="-27.2742947" lon="151.2909186">
  <ele>371.86</ele>
  <time>2026-09-01T20:03:26Z</time>
  <course>204.18</course>
  <speed>24.442688068213773</speed>
  <fix>3d</fix>
</trkpt>
<trkpt lat="-27.2742327" lon="151.29095">
  <ele>372.53</ele>
  <time>2026-09-01T20:03:26Z</time>
  <course>204.23</course>
  <speed>24.44</speed>
  <fix>3d</fix>
</trkpt>
<trkpt lat="-27.2743144" lon="151.2909082">
  <ele>371.9</ele>
  <time>2026-09-01T20:03:26Z</time>
  <course>204.38</course>
  <speed>24.366390787311936</speed>
  <fix>3d</fix>
</trkpt>
<trkpt lat="-27.2742726" lon="151.2909296">
  <ele>372.13</ele>
  <time>2026-09-01T20:03:26Z</time>
  <course>204.52</course>
  <speed>24.37</speed>
  <fix>3d</fix>
</trkpt>
<trkpt lat="-27.2743343" lon="151.2908979">
  <ele>371.52</ele>
  <time>2026-09-01T20:03:26Z</time>
  <course>204.51</course>
  <speed>24.366390787311936</speed>
  <fix>3d</fix>
</trkpt>
<trkpt lat="-27.2742726" lon="151.2909296">
  <ele>372.13</ele>
  <time>2026-09-01T20:03:26Z</time>
  <course>204.52</course>
  <speed>24.37</speed>
  <fix>3d</fix>
</trkpt>
<trkpt lat="-27.2743541" lon="151.2908875">
  <ele>371.43</ele>
  <time>2026-09-01T20:03:26Z</time>
  <course>204.62</course>
  <speed>24.349375762019037</speed>
  <fix>3d</fix>
</trkpt>
<trkpt lat="-27.2743124" lon="151.2909091">
  <ele>371.7</ele>
  <time>2026-09-01T20:03:26Z</time>
  <course>204.76</course>
  <speed>24.35</speed>
  <fix>3d</fix>
</trkpt>
<trkpt lat="-27.2743739" lon="151.2908772">
  <ele>371.13</ele>
  <time>2026-09-01T20:03:26Z</time>
  <course>204.73</course>
  <speed>24.349375762019037</speed>
  <fix>3d</fix>
</trkpt>
<trkpt lat="-27.2743124" lon="151.2909091">
  <ele>371.7</ele>
  <time>2026-09-01T20:03:26Z</time>
  <course>204.76</course>
  <speed>24.35</speed>
  <fix>3d</fix>
</trkpt>
<trkpt lat="-27.2743936" lon="151.2908666">
  <ele>370.72</ele>
  <time>2026-09-01T20:03:26Z</time>
  <course>204.82</course>
  <speed>24.378148001847887</speed>
  <fix>3d</fix>
</trkpt>
<trkpt lat="-27.2743521" lon="151.2908883">
  <ele>371.28</ele>
  <time>2026-09-01T20:03:26Z</time>
  <course>204.96</course>
  <speed>24.38</speed>
  <fix>3d</fix>
</trkpt>
<trkpt lat="-27.2744134" lon="151.2908562">
  <ele>370.65</ele>
  <time>2026-09-01T20:03:26Z</time>
  <course>204.98</course>
  <speed>24.378148001847887</speed>
  <fix>3d</fix>
</trkpt>
<trkpt lat="-27.2743521" lon="151.2908883">
  <ele>371.28</ele>
  <time>2026-09-01T20:03:26Z</time>
  <course>204.96</course>
  <speed>24.38</speed>
  <fix>3d</fix>
</trkpt>
<trkpt lat="-27.2744335" lon="151.2908455">
  <ele>370.77</ele>
  <time>2026-09-01T20:03:26Z</time>
  <course>205.11</course>
  <speed>24.4338310545031</speed>
  <fix>3d</fix>
</trkpt>
<trkpt lat="-27.2743918" lon="151.2908675">
  <ele>370.9</ele>
  <time>2026-09-01T20:03:26Z</time>
  <course>205.19</course>
  <speed>24.43</speed>
  <fix>3d</fix>
</trkpt>
<trkpt lat="-27.2744533" lon="151.290835">
  <ele>370.29</ele>
  <time>2026-09-01T20:03:26Z</time>
  <course>205.26</course>
  <speed>24.4338310545031</speed>
  <fix>3d</fix>
</trkpt>
<trkpt lat="-27.2743918" lon="151.2908675">
  <ele>370.9</ele>
  <time>2026-09-01T20:03:26Z</time>
  <course>205.19</course>
  <speed>24.43</speed>
  <fix>3d</fix>
</trkpt>
<trkpt lat="-27.2744732" lon="151.290824">
  <ele>370.25</ele>
  <time>2026-09-01T20:03:26Z</time>
  <course>205.43</course>
  <speed>24.507078569262394</speed>
  <fix>3d</fix>
</trkpt>
<trkpt lat="-27.2744315" lon="151.2908463">
  <ele>370.58</ele>
  <time>2026-09-01T20:03:26Z</time>
  <course>205.49</course>
  <speed>24.51</speed>
  <fix>3d</fix>
</trkpt>
<trkpt lat="-27.2744931" lon="151.2908133">
  <ele>370.25</ele>
  <time>2026-09-01T20:03:26Z</time>
  <course>205.57</course>
  <speed>24.507078569262394</speed>
  <fix>3d</fix>
</trkpt>
<trkpt lat="-27.2744315" lon="151.2908463">
  <ele>370.58</ele>
  <time>2026-09-01T20:03:26Z</time>
  <course>205.49</course>
  <speed>24.51</speed>
  <fix>3d</fix>
</trkpt>
<trkpt lat="-27.274513" lon="151.290802">
  <ele>370.15</ele>
  <time>2026-09-01T20:03:26Z</time>
  <course>205.85</course>
  <speed>24.584844925278663</speed>
  <fix>3d</fix>
</trkpt>
<trkpt lat="-27.2744713" lon="151.2908248">
  <ele>370.34</ele>
  <time>2026-09-01T20:03:26Z</time>
  <course>205.94</course>
  <speed>24.59</speed>
  <fix>3d</fix>
</trkpt>
<trkpt lat="-27.2745328" lon="151.2907911">
  <ele>369.96</ele>
  <time>2026-09-01T20:03:26Z</time>
  <course>206.15</course>
  <speed>24.584844925278663</speed>
  <fix>3d</fix>
</trkpt>
<trkpt lat="-27.2744713" lon="151.2908248">
  <ele>370.34</ele>
  <time>2026-09-01T20:03:26Z</time>
  <course>205.94</course>
  <speed>24.59</speed>
  <fix>3d</fix>
</trkpt>
<trkpt lat="-27.2745525" lon="151.2907794">
  <ele>370.16</ele>
  <time>2026-09-01T20:03:26Z</time>
  <course>206.48</course>
  <speed>24.650413789630388</speed>
  <fix>3d</fix>
</trkpt>
<trkpt lat="-27.2745109" lon="151.2908028">
  <ele>370.18</ele>
  <time>2026-09-01T20:03:26Z</time>
  <course>206.56</course>
  <speed>24.66</speed>
  <fix>3d</fix>
</trkpt>
<trkpt lat="-27.2745723" lon="151.2907683">
  <ele>369.96</ele>
  <time>2026-09-01T20:03:26Z</time>
  <course>206.9</course>
  <speed>24.650413789630388</speed>
  <fix>3d</fix>
</trkpt>
<trkpt lat="-27.2745109" lon="151.2908028">
  <ele>370.18</ele>
  <time>2026-09-01T20:03:26Z</time>
  <course>206.56</course>
  <speed>24.66</speed>
  <fix>3d</fix>
</trkpt>
<trkpt lat="-27.2745919" lon="151.290756">
  <ele>370.0</ele>
  <time>2026-09-01T20:03:26Z</time>
  <course>207.33</course>
  <speed>24.71147506726379</speed>
  <fix>3d</fix>
</trkpt>
<trkpt lat="-27.2745506" lon="151.2907801">
  <ele>370.08</ele>
  <time>2026-09-01T20:03:26Z</time>
  <course>207.44</course>
  <speed>24.72</speed>
  <fix>3d</fix>
</trkpt>
<trkpt lat="-27.2746116" lon="151.2907445">
  <ele>370.12</ele>
  <time>2026-09-01T20:03:26Z</time>
  <course>207.88</course>
  <speed>24.71147506726379</speed>
  <fix>3d</fix>
</trkpt>
<trkpt lat="-27.2745506" lon="151.2907801">
  <ele>370.08</ele>
  <time>2026-09-01T20:03:26Z</time>
  <course>207.44</course>
  <speed>24.72</speed>
  <fix>3d</fix>
</trkpt>
<trkpt lat="-27.2746305" lon="151.2907317">
  <ele>369.88</ele>
  <time>2026-09-01T20:03:26Z</time>
  <course>208.45</course>
  <speed>24.760650233788287</speed>
  <fix>3d</fix>
</trkpt>
<trkpt lat="-27.2745899" lon="151.2907566">
  <ele>370.05</ele>
  <time>2026-09-01T20:03:26Z</time>
  <course>208.64</course>
  <speed>24.76</speed>
  <fix>3d</fix>
</trkpt>
<trkpt lat="-27.2746506" lon="151.2907193">
  <ele>370.22</ele>
  <time>2026-09-01T20:03:26Z</time>
  <course>209.17</course>
  <speed>24.760650233788287</speed>
  <fix>3d</fix>
</trkpt>
<trkpt lat="-27.2745899" lon="151.2907566">
  <ele>370.05</ele>
  <time>2026-09-01T20:03:26Z</time>
  <course>208.64</course>
  <speed>24.76</speed>
  <fix>3d</fix>
</trkpt>
<trkpt lat="-27.274669" lon="151.2907056">
  <ele>370.29</ele>
  <time>2026-09-01T20:03:26Z</time>
  <course>209.94</course>
  <speed>24.79768537585716</speed>
  <fix>3d</fix>
</trkpt>
<trkpt lat="-27.2746286" lon="151.290732">
  <ele>370.07</ele>
  <time>2026-09-01T20:03:26Z</time>
  <course>210.17</course>
  <speed>24.8</speed>
  <fix>3d</fix>
</trkpt>
<trkpt lat="-27.2746883" lon="151.290693">
  <ele>370.14</ele>
  <time>2026-09-01T20:03:26Z</time>
  <course>210.7</course>
  <speed>24.79768537585716</speed>
  <fix>3d</fix>
</trkpt>
<trkpt lat="-27.2746286" lon="151.290732">
  <ele>370.07</ele>
  <time>2026-09-01T20:03:26Z</time>
  <course>210.17</course>
  <speed>24.8</speed>
  <fix>3d</fix>
</trkpt>
<trkpt lat="-27.2747065" lon="151.2906782">
  <ele>370.11</ele>
  <time>2026-09-01T20:03:26Z</time>
  <course>211.61</course>
  <speed>24.830453076816784</speed>
  <fix>3d</fix>
</trkpt>
<trkpt lat="-27.2746668" lon="151.2907061">
  <ele>370.13</ele>
  <time>2026-09-01T20:03:26Z</time>
  <course>212.03</course>
  <speed>24.83</speed>
  <fix>3d</fix>
</trkpt>
<trkpt lat="-27.2747254" lon="151.2906649">
  <ele>370.24</ele>
  <time>2026-09-01T20:03:26Z</time>
  <course>212.63</course>
  <speed>24.830453076816784</speed>
  <fix>3d</fix>
</trkpt>
<trkpt lat="-27.2746668" lon="151.2907061">
  <ele>370.13</ele>
  <time>2026-09-01T20:03:26Z</time>
  <course>212.03</course>
  <speed>24.83</speed>
  <fix>3d</fix>
</trkpt>
<trkpt lat="-27.274743" lon="151.2906491">
  <ele>370.17</ele>
  <time>2026-09-01T20:03:26Z</time>
  <course>213.75</course>
  <speed>24.865353405893913</speed>
  <fix>3d</fix>
</trkpt>
<trkpt lat="-27.2747042" lon="151.2906787">
  <ele>370.23</ele>
  <time>2026-09-01T20:03:26Z</time>
  <course>214.18</course>
  <speed>24.87</speed>
  <fix>3d</fix>
</trkpt>
<trkpt lat="-27.2747614" lon="151.290635">
  <ele>370.52</ele>
  <time>2026-09-01T20:03:26Z</time>
  <course>214.89</course>
  <speed>24.865353405893913</speed>
  <fix>3d</fix>
</trkpt>
<trkpt lat="-27.2747042" lon="151.2906787">
  <ele>370.23</ele>
  <time>2026-09-01T20:03:26Z</time>
  <course>214.18</course>
  <speed>24.87</speed>
  <fix>3d</fix>
</trkpt>
<trkpt lat="-27.2747783" lon="151.2906181">
  <ele>370.64</ele>
  <time>2026-09-01T20:03:26Z</time>
  <course>216.18</course>
  <speed>24.900200802403177</speed>
  <fix>3d</fix>
</trkpt>
<trkpt lat="-27.2747406" lon="151.2906496">
  <ele>370.36</ele>
  <time>2026-09-01T20:03:26Z</time>
  <course>216.63</course>
  <speed>24.9</speed>
  <fix>3d</fix>
</trkpt>
<trkpt lat="-27.274796" lon="151.2906032">
  <ele>370.43</ele>
  <time>2026-09-01T20:03:26Z</time>
  <course>217.52</course>
  <speed>24.900200802403177</speed>
  <fix>3d</fix>
</trkpt>
<trkpt lat="-27.2747406" lon="151.2906496">
  <ele>370.36</ele>
  <time>2026-09-01T20:03:26Z</time>
  <course>216.63</course>
  <speed>24.9</speed>
  <fix>3d</fix>
</trkpt>
<trkpt lat="-27.2748122" lon="151.290585">
  <ele>370.5</ele>
  <time>2026-09-01T20:03:26Z</time>
  <course>218.85</course>
  <speed>24.952434750941638</speed>
  <fix>3d</fix>
</trkpt>
<trkpt lat="-27.2747759" lon="151.2906186">
  <ele>370.51</ele>
  <time>2026-09-01T20:03:26Z</time>
  <course>219.4</course>
  <speed>24.95</speed>
  <fix>3d</fix>
</trkpt>
<trkpt lat="-27.2748295" lon="151.290569">
  <ele>370.59</ele>
  <time>2026-09-01T20:03:26Z</time>
  <course>220.22</course>
  <speed>24.952434750941638</speed>
  <fix>3d</fix>
</trkpt>
<trkpt lat="-27.2747759" lon="151.2906186">
  <ele>370.51</ele>
  <time>2026-09-01T20:03:26Z</time>
  <course>219.4</course>
  <speed>24.95</speed>
  <fix>3d</fix>
</trkpt>
<trkpt lat="-27.2748446" lon="151.2905497">
  <ele>370.95</ele>
  <time>2026-09-01T20:03:26Z</time>
  <course>221.81</course>
  <speed>24.99998799999712</speed>
  <fix>3d</fix>
</trkpt>
<trkpt lat="-27.2748098" lon="151.2905855">
  <ele>370.69</ele>
  <time>2026-09-01T20:03:26Z</time>
  <course>222.42</course>
  <speed>25.0</speed>
  <fix>3d</fix>
</trkpt>
<trkpt lat="-27.2748612" lon="151.2905327">
  <ele>371.01</ele>
  <time>2026-09-01T20:03:26Z</time>
  <course>223.41</course>
  <speed>24.99998799999712</speed>
  <fix>3d</fix>
</trkpt>
<trkpt lat="-27.2748098" lon="151.2905855">
  <ele>370.69</ele>
  <time>2026-09-01T20:03:26Z</time>
  <course>222.42</course>
  <speed>25.0</speed>
  <fix>3d</fix>
</trkpt>
<trkpt lat="-27.2748751" lon="151.2905124">
  <ele>371.16</ele>
  <time>2026-09-01T20:03:26Z</time>
  <course>225.0</course>
  <speed>25.068779387915956</speed>
  <fix>3d</fix>
</trkpt>
<trkpt lat="-27.2748421" lon="151.2905504">
  <ele>370.89</ele>
  <time>2026-09-01T20:03:26Z</time>
  <course>225.69</course>
  <speed>25.07</speed>
  <fix>3d</fix>
</trkpt>
<trkpt lat="-27.2748908" lon="151.2904942">
  <ele>371.4</ele>
  <time>2026-09-01T20:03:26Z</time>
  <course>226.68</course>
  <speed>25.068779387915956</speed>
  <fix>3d</fix>
</trkpt>
<trkpt lat="-27.2748421" lon="151.2905504">
  <ele>370.89</ele>
  <time>2026-09-01T20:03:26Z</time>
  <course>225.69</course>
  <speed>25.07</speed>
  <fix>3d</fix>
</trkpt>
<trkpt lat="-27.2749036" lon="151.2904727">
  <ele>371.37</ele>
  <time>2026-09-01T20:03:26Z</time>
  <course>228.41</course>
  <speed>25.141316592414167</speed>
  <fix>3d</fix>
</trkpt>
<trkpt lat="-27.2748726" lon="151.290513">
  <ele>371.11</ele>
  <time>2026-09-01T20:03:26Z</time>
  <course>229.18</course>
  <speed>25.15</speed>
  <fix>3d</fix>
</trkpt>
<trkpt lat="-27.2749183" lon="151.2904534">
  <ele>371.42</ele>
  <time>2026-09-01T20:03:26Z</time>
  <course>230.14</course>
  <speed>25.141316592414167</speed>
  <fix>3d</fix>
</trkpt>
<trkpt lat="-27.2748726" lon="151.290513">
  <ele>371.11</ele>
  <time>2026-09-01T20:03:26Z</time>
  <course>229.18</course>
  <speed>25.15</speed>
  <fix>3d</fix>
</trkpt>
<trkpt lat="-27.2749298" lon="151.2904308">
  <ele>371.67</ele>
  <time>2026-09-01T20:03:26Z</time>
  <course>231.93</course>
  <speed>25.218304859764068</speed>
  <fix>3d</fix>
</trkpt>
<trkpt lat="-27.2749011" lon="151.2904734">
  <ele>371.35</ele>
  <time>2026-09-01T20:03:26Z</time>
  <course>232.84</course>
  <speed>25.22</speed>
  <fix>3d</fix>
</trkpt>
<trkpt lat="-27.2749435" lon="151.2904105">
  <ele>371.71</ele>
  <time>2026-09-01T20:03:26Z</time>
  <course>233.8</course>
  <speed>25.218304859764068</speed>
  <fix>3d</fix>
</trkpt>
<trkpt lat="-27.2749011" lon="151.2904734">
  <ele>371.35</ele>
  <time>2026-09-01T20:03:26Z</time>
  <course>232.84</course>
  <speed>25.22</speed>
  <fix>3d</fix>
</trkpt>
<trkpt lat="-27.2749536" lon="151.2903868">
  <ele>371.84</ele>
  <time>2026-09-01T20:03:26Z</time>
  <course>235.69</course>
  <speed>25.28917752715576</speed>
  <fix>3d</fix>
</trkpt>
<trkpt lat="-27.2749274" lon="151.2904316">
  <ele>371.61</ele>
  <time>2026-09-01T20:03:26Z</time>
  <course>236.62</course>
  <speed>25.29</speed>
  <fix>3d</fix>
</trkpt>
<trkpt lat="-27.2749661" lon="151.2903655">
  <ele>371.8</ele>
  <time>2026-09-01T20:03:26Z</time>
  <course>237.56</course>
  <speed>25.28917752715576</speed>
  <fix>3d</fix>
</trkpt>
<trkpt lat="-27.2749274" lon="151.2904316">
  <ele>371.61</ele>
  <time>2026-09-01T20:03:26Z</time>
  <course>236.62</course>
  <speed>25.29</speed>
  <fix>3d</fix>
</trkpt>
<trkpt lat="-27.2749746" lon="151.2903411">
  <ele>372.11</ele>
  <time>2026-09-01T20:03:26Z</time>
  <course>239.42</course>
  <speed>25.376528525391333</speed>
  <fix>3d</fix>
</trkpt>
<trkpt lat="-27.2749511" lon="151.2903879">
  <ele>371.87</ele>
  <time>2026-09-01T20:03:26Z</time>
  <course>240.51</course>
  <speed>25.37</speed>
  <fix>3d</fix>
</trkpt>
<trkpt lat="-27.2749858" lon="151.2903187">
  <ele>372.28</ele>
  <time>2026-09-01T20:03:26Z</time>
  <course>241.31</course>
  <speed>25.376528525391333</speed>
  <fix>3d</fix>
</trkpt>
<trkpt lat="-27.2749511" lon="151.2903879">
  <ele>371.87</ele>
  <time>2026-09-01T20:03:26Z</time>
  <course>240.51</course>
  <speed>25.37</speed>
  <fix>3d</fix>
</trkpt>
<trkpt lat="-27.2749928" lon="151.2902936">
  <ele>372.41</ele>
  <time>2026-09-01T20:03:26Z</time>
  <course>243.29</course>
  <speed>25.464536123793813</speed>
  <fix>3d</fix>
</trkpt>
<trkpt lat="-27.2749722" lon="151.2903423">
  <ele>372.13</ele>
  <time>2026-09-01T20:03:26Z</time>
  <course>244.51</course>
  <speed>25.46</speed>
  <fix>3d</fix>
</trkpt>
<trkpt lat="-27.2750027" lon="151.2902703">
  <ele>372.59</ele>
  <time>2026-09-01T20:03:26Z</time>
  <course>245.27</course>
  <speed>25.464536123793813</speed>
  <fix>3d</fix>
</trkpt>
<trkpt lat="-27.2749722" lon="151.2903423">
  <ele>372.13</ele>
  <time>2026-09-01T20:03:26Z</time>
  <course>244.51</course>
  <speed>25.46</speed>
  <fix>3d</fix>
</trkpt>
<trkpt lat="-27.275008" lon="151.2902445">
  <ele>372.76</ele>
  <time>2026-09-01T20:03:26Z</time>
  <course>247.31</course>
  <speed>25.567080396478595</speed>
  <fix>3d</fix>
</trkpt>
<trkpt lat="-27.2749904" lon="151.290295">
  <ele>372.4</ele>
  <time>2026-09-01T20:03:26Z</time>
  <course>248.56</course>
  <speed>25.57</speed>
  <fix>3d</fix>
</trkpt>
<trkpt lat="-27.2750164" lon="151.2902205">
  <ele>372.78</ele>
  <time>2026-09-01T20:03:26Z</time>
  <course>249.38</course>
  <speed>25.567080396478595</speed>
  <fix>3d</fix>
</trkpt>
<trkpt lat="-27.2749904" lon="151.290295">
  <ele>372.4</ele>
  <time>2026-09-01T20:03:26Z</time>
  <course>248.56</course>
  <speed>25.57</speed>
  <fix>3d</fix>
</trkpt>
<trkpt lat="-27.2750201" lon="151.290194">
  <ele>372.97</ele>
  <time>2026-09-01T20:03:26Z</time>
  <course>251.41</course>
  <speed>25.670157771233118</speed>
  <fix>3d</fix>
</trkpt>
<trkpt lat="-27.2750057" lon="151.2902462">
  <ele>372.66</ele>
  <time>2026-09-01T20:03:26Z</time>
  <course>252.7</course>
  <speed>25.67</speed>
  <fix>3d</fix>
</trkpt>
<trkpt lat="-27.275027" lon="151.2901692">
  <ele>373.2</ele>
  <time>2026-09-01T20:03:26Z</time>
  <course>253.41</course>
  <speed>25.670157771233118</speed>
  <fix>3d</fix>
</trkpt>
<trkpt lat="-27.2750057" lon="151.2902462">
  <ele>372.66</ele>
  <time>2026-09-01T20:03:26Z</time>
  <course>252.7</course>
  <speed>25.67</speed>
  <fix>3d</fix>
</trkpt>
<trkpt lat="-27.2750287" lon="151.2901431">
  <ele>373.05</ele>
  <time>2026-09-01T20:03:26Z</time>
  <course>255.5</course>
  <speed>25.7801803717507</speed>
  <fix>3d</fix>
</trkpt>
<trkpt lat="-27.2750178" lon="151.2901961">
  <ele>372.92</ele>
  <time>2026-09-01T20:03:26Z</time>
  <course>256.9</course>
  <speed>25.78</speed>
  <fix>3d</fix>
</trkpt>
<trkpt lat="-27.275034" lon="151.2901177">
  <ele>373.36</ele>
  <time>2026-09-01T20:03:26Z</time>
  <course>257.61</course>
  <speed>25.7801803717507</speed>
  <fix>3d</fix>
</trkpt>
<trkpt lat="-27.2750178" lon="151.2901961">
  <ele>372.92</ele>
  <time>2026-09-01T20:03:26Z</time>
  <course>256.9</course>
  <speed>25.78</speed>
  <fix>3d</fix>
</trkpt>
<trkpt lat="-27.275034" lon="151.2900906">
  <ele>373.47</ele>
  <time>2026-09-01T20:03:26Z</time>
  <course>259.7</course>
  <speed>25.890855528545206</speed>
  <fix>3d</fix>
</trkpt>
<trkpt lat="-27.2750265" lon="151.2901448">
  <ele>373.17</ele>
  <time>2026-09-01T20:03:26Z</time>
  <course>261.11</course>
  <speed>25.89</speed>
  <fix>3d</fix>
</trkpt>
<trkpt lat="-27.2750376" lon="151.2900647">
  <ele>373.44</ele>
  <time>2026-09-01T20:03:26Z</time>
  <course>261.81</course>
  <speed>25.890855528545206</speed>
  <fix>3d</fix>
</trkpt>
<trkpt lat="-27.2750265" lon="151.2901448">
  <ele>373.17</ele>
  <time>2026-09-01T20:03:26Z</time>
  <course>261.11</course>
  <speed>25.89</speed>
  <fix>3d</fix>
</trkpt>
<trkpt lat="-27.275036" lon="151.2900378">
  <ele>373.47</ele>
  <time>2026-09-01T20:03:26Z</time>
  <course>263.93</course>
  <speed>25.995772733273384</speed>
  <fix>3d</fix>
</trkpt>
<trkpt lat="-27.2750321" lon="151.2900928">
  <ele>373.41</ele>
  <time>2026-09-01T20:03:26Z</time>
  <course>265.34</course>
  <speed>26.0</speed>
  <fix>3d</fix>
</trkpt>
<trkpt lat="-27.2750379" lon="151.2900116">
  <ele>373.9</ele>
  <time>2026-09-01T20:03:26Z</time>
  <course>266.05</course>
  <speed>25.995772733273384</speed>
  <fix>3d</fix>
</trkpt>
<trkpt lat="-27.2750321" lon="151.2900928">
  <ele>373.41</ele>
  <time>2026-09-01T20:03:26Z</time>
  <course>265.34</course>
  <speed>26.0</speed>
  <fix>3d</fix>
</trkpt>
<trkpt lat="-27.2750345" lon="151.2899848">
  <ele>373.81</ele>
  <time>2026-09-01T20:03:26Z</time>
  <course>268.16</course>
  <speed>26.1106204445624</speed>
  <fix>3d</fix>
</trkpt>
<trkpt lat="-27.2750342" lon="151.2900402">
  <ele>373.64</ele>
  <time>2026-09-01T20:03:26Z</time>
  <course>269.59</course>
  <speed>26.11</speed>
  <fix>3d</fix>
</trkpt>
<trkpt lat="-27.2750347" lon="151.2899584">
  <ele>373.73</ele>
  <time>2026-09-01T20:03:26Z</time>
  <course>270.41</course>
  <speed>26.1106204445624</speed>
  <fix>3d</fix>
</trkpt>
<trkpt lat="-27.2750342" lon="151.2900402">
  <ele>373.64</ele>
  <time>2026-09-01T20:03:26Z</time>
  <course>269.59</course>
  <speed>26.11</speed>
  <fix>3d</fix>
</trkpt>
<trkpt lat="-27.2750296" lon="151.2899318">
  <ele>374.17</ele>
  <time>2026-09-01T20:03:26Z</time>
  <course>272.6</course>
  <speed>26.239765623953275</speed>
  <fix>3d</fix>
</trkpt>
<trkpt lat="-27.2750329" lon="151.2899873">
  <ele>373.84</ele>
  <time>2026-09-01T20:03:26Z</time>
  <course>273.87</course>
  <speed>26.24</speed>
  <fix>3d</fix>
</trkpt>
<trkpt lat="-27.275028" lon="151.2899053">
  <ele>374.22</ele>
  <time>2026-09-01T20:03:26Z</time>
  <course>274.87</course>
  <speed>26.239765623953275</speed>
  <fix>3d</fix>
</trkpt>
<trkpt lat="-27.2750329" lon="151.2899873">
  <ele>373.84</ele>
  <time>2026-09-01T20:03:26Z</time>
  <course>273.87</course>
  <speed>26.24</speed>
  <fix>3d</fix>
</trkpt>
<trkpt lat="-27.2750208" lon="151.2898791">
  <ele>374.16</ele>
  <time>2026-09-01T20:03:26Z</time>
  <course>277.11</course>
  <speed>26.362406946255874</speed>
  <fix>3d</fix>
</trkpt>
<trkpt lat="-27.2750279" lon="151.2899344">
  <ele>374.03</ele>
  <time>2026-09-01T20:03:26Z</time>
  <course>278.25</course>
  <speed>26.36</speed>
  <fix>3d</fix>
</trkpt>
<trkpt lat="-27.2750174" lon="151.2898527">
  <ele>374.09</ele>
  <time>2026-09-01T20:03:26Z</time>
  <course>279.32</course>
  <speed>26.362406946255874</speed>
  <fix>3d</fix>
</trkpt>
<trkpt lat="-27.2750279" lon="151.2899344">
  <ele>374.03</ele>
  <time>2026-09-01T20:03:26Z</time>
  <course>278.25</course>
  <speed>26.36</speed>
  <fix>3d</fix>
</trkpt>
<trkpt lat="-27.2750083" lon="151.289827">
  <ele>374.41</ele>
  <time>2026-09-01T20:03:26Z</time>
  <course>281.54</course>
  <speed>26.487317719995737</speed>
  <fix>3d</fix>
</trkpt>
<trkpt lat="-27.2750192" lon="151.2898818">
  <ele>374.2</ele>
  <time>2026-09-01T20:03:26Z</time>
  <course>282.69</course>
  <speed>26.49</speed>
  <fix>3d</fix>
</trkpt>
<trkpt lat="-27.275003" lon="151.2898009">
  <ele>374.53</ele>
  <time>2026-09-01T20:03:26Z</time>
  <course>283.88</course>
  <speed>26.487317719995737</speed>
  <fix>3d</fix>
</trkpt>
<trkpt lat="-27.2750192" lon="151.2898818">
  <ele>374.2</ele>
  <time>2026-09-01T20:03:26Z</time>
  <course>282.69</course>
  <speed>26.49</speed>
  <fix>3d</fix>
</trkpt>
<trkpt lat="-27.2749922" lon="151.2897759">
  <ele>374.38</ele>
  <time>2026-09-01T20:03:26Z</time>
  <course>286.22</course>
  <speed>26.61477033528563</speed>
  <fix>3d</fix>
</trkpt>
<trkpt lat="-27.2750069" lon="151.2898299">
  <ele>374.37</ele>
  <time>2026-09-01T20:03:26Z</time>
  <course>287.09</course>
  <speed>26.62</speed>
  <fix>3d</fix>
</trkpt>
<trkpt lat="-27.2749852" lon="151.2897502">
  <ele>374.44</ele>
  <time>2026-09-01T20:03:26Z</time>
  <course>288.54</course>
  <speed>26.61477033528563</speed>
  <fix>3d</fix>
</trkpt>
<trkpt lat="-27.2750069" lon="151.2898299">
  <ele>374.37</ele>
  <time>2026-09-01T20:03:26Z</time>
  <course>287.09</course>
  <speed>26.62</speed>
  <fix>3d</fix>
</trkpt>
<trkpt lat="-27.2749726" lon="151.2897262">
  <ele>374.44</ele>
  <time>2026-09-01T20:03:26Z</time>
  <course>290.9</course>
  <speed>26.744167588466834</speed>
  <fix>3d</fix>
</trkpt>
<trkpt lat="-27.2749911" lon="151.289779">
  <ele>374.51</ele>
  <time>2026-09-01T20:03:26Z</time>
  <course>291.52</course>
  <speed>26.75</speed>
  <fix>3d</fix>
</trkpt>
<trkpt lat="-27.2749638" lon="151.2897011">
  <ele>374.54</ele>
  <time>2026-09-01T20:03:26Z</time>
  <course>293.24</course>
  <speed>26.744167588466834</speed>
  <fix>3d</fix>
</trkpt>
<trkpt lat="-27.2749911" lon="151.289779">
  <ele>374.51</ele>
  <time>2026-09-01T20:03:26Z</time>
  <course>291.52</course>
  <speed>26.75</speed>
  <fix>3d</fix>
</trkpt>
<trkpt lat="-27.2749495" lon="151.2896783">
  <ele>374.87</ele>
  <time>2026-09-01T20:03:26Z</time>
  <course>295.66</course>
  <speed>26.88305414196832</speed>
  <fix>3d</fix>
</trkpt>
<trkpt lat="-27.2749717" lon="151.2897295">
  <ele>374.64</ele>
  <time>2026-09-01T20:03:26Z</time>
  <course>296.05</course>
  <speed>26.88</speed>
  <fix>3d</fix>
</trkpt>
<trkpt lat="-27.2749389" lon="151.2896539">
  <ele>374.8</ele>
  <time>2026-09-01T20:03:26Z</time>
  <course>298.17</course>
  <speed>26.88305414196832</speed>
  <fix>3d</fix>
</trkpt>
<trkpt lat="-27.2749717" lon="151.2897295">
  <ele>374.64</ele>
  <time>2026-09-01T20:03:26Z</time>
  <course>296.05</course>
  <speed>26.88</speed>
  <fix>3d</fix>
</trkpt>
<trkpt lat="-27.2749228" lon="151.2896322">
  <ele>374.97</ele>
  <time>2026-09-01T20:03:26Z</time>
  <course>300.59</course>
  <speed>27.021757899885046</speed>
  <fix>3d</fix>
</trkpt>
<trkpt lat="-27.2749487" lon="151.2896815">
  <ele>374.75</ele>
  <time>2026-09-01T20:03:26Z</time>
  <course>300.64</course>
  <speed>27.03</speed>
  <fix>3d</fix>
</trkpt>
<trkpt lat="-27.2749104" lon="151.2896087">
  <ele>374.8</ele>
  <time>2026-09-01T20:03:26Z</time>
  <course>303.07</course>
  <speed>27.021757899885046</speed>
  <fix>3d</fix>
</trkpt>
<trkpt lat="-27.2749487" lon="151.2896815">
  <ele>374.75</ele>
  <time>2026-09-01T20:03:26Z</time>
  <course>300.64</course>
  <speed>27.03</speed>
  <fix>3d</fix>
</trkpt>
<trkpt lat="-27.2748926" lon="151.2895886">
  <ele>374.88</ele>
  <time>2026-09-01T20:03:26Z</time>
  <course>305.64</course>
  <speed>27.166135168624923</speed>
  <fix>3d</fix>
</trkpt>
<trkpt lat="-27.2749222" lon="151.2896356">
  <ele>374.84</ele>
  <time>2026-09-01T20:03:26Z</time>
  <course>305.3</course>
  <speed>27.16</speed>
  <fix>3d</fix>
</trkpt>
<trkpt lat="-27.2748785" lon="151.2895662">
  <ele>374.86</ele>
  <time>2026-09-01T20:03:26Z</time>
  <course>308.06</course>
  <speed>27.166135168624923</speed>
  <fix>3d</fix>
</trkpt>
<trkpt lat="-27.2749222" lon="151.2896356">
  <ele>374.84</ele>
  <time>2026-09-01T20:03:26Z</time>
  <course>305.3</course>
  <speed>27.16</speed>
  <fix>3d</fix>
</trkpt>
<trkpt lat="-27.2748592" lon="151.2895478">
  <ele>374.9</ele>
  <time>2026-09-01T20:03:26Z</time>
  <course>310.51</course>
  <speed>27.284823620467108</speed>
  <fix>3d</fix>
</trkpt>
<trkpt lat="-27.2748923" lon="151.2895921">
  <ele>374.94</ele>
  <time>2026-09-01T20:03:26Z</time>
  <course>310.01</course>
  <speed>27.29</speed>
  <fix>3d</fix>
</trkpt>
<trkpt lat="-27.2748435" lon="151.2895267">
  <ele>374.9</ele>
  <time>2026-09-01T20:03:26Z</time>
  <course>313.04</course>
  <speed>27.284823620467108</speed>
  <fix>3d</fix>
</trkpt>
<trkpt lat="-27.2748923" lon="151.2895921">
  <ele>374.94</ele>
  <time>2026-09-01T20:03:26Z</time>
  <course>310.01</course>
  <speed>27.29</speed>
  <fix>3d</fix>
</trkpt>
<trkpt lat="-27.2748229" lon="151.28951">
  <ele>375.07</ele>
  <time>2026-09-01T20:03:26Z</time>
  <course>315.52</course>
  <speed>27.400790134592835</speed>
  <fix>3d</fix>
</trkpt>
<trkpt lat="-27.2748592" lon="151.2895513">
  <ele>375.03</ele>
  <time>2026-09-01T20:03:26Z</time>
  <course>314.68</course>
  <speed>27.4</speed>
  <fix>3d</fix>
</trkpt>
<trkpt lat="-27.2748056" lon="151.2894903">
  <ele>375.27</ele>
  <time>2026-09-01T20:03:26Z</time>
  <course>318.07</course>
  <speed>27.400790134592835</speed>
  <fix>3d</fix>
</trkpt>
<trkpt lat="-27.2748592" lon="151.2895513">
  <ele>375.03</ele>
  <time>2026-09-01T20:03:26Z</time>
  <course>314.68</course>
  <speed>27.4</speed>
  <fix>3d</fix>
</trkpt>
<trkpt lat="-27.2747838" lon="151.2894754">
  <ele>375.14</ele>
  <time>2026-09-01T20:03:26Z</time>
  <course>320.64</course>
  <speed>27.514392597329856</speed>
  <fix>3d</fix>
</trkpt>
<trkpt lat="-27.2748231" lon="151.2895134">
  <ele>375.1</ele>
  <time>2026-09-01T20:03:26Z</time>
  <course>319.33</course>
  <speed>27.52</speed>
  <fix>3d</fix>
</trkpt>
<trkpt lat="-27.274765" lon="151.2894573">
  <ele>375.35</ele>
  <time>2026-09-01T20:03:26Z</time>
  <course>323.18</course>
  <speed>27.514392597329856</speed>
  <fix>3d</fix>
</trkpt>
<trkpt lat="-27.2748231" lon="151.2895134">
  <ele>375.1</ele>
  <time>2026-09-01T20:03:26Z</time>
  <course>319.33</course>
  <speed>27.52</speed>
  <fix>3d</fix>
</trkpt>
<trkpt lat="-27.274742" lon="151.2894444">
  <ele>375.26</ele>
  <time>2026-09-01T20:03:26Z</time>
  <course>325.73</course>
  <speed>27.62573075956544</speed>
  <fix>3d</fix>
</trkpt>
<trkpt lat="-27.2747842" lon="151.2894788">
  <ele>375.15</ele>
  <time>2026-09-01T20:03:26Z</time>
  <course>324.06</course>
  <speed>27.63</speed>
  <fix>3d</fix>
</trkpt>
<trkpt lat="-27.2747219" lon="151.289428">
  <ele>375.03</ele>
  <time>2026-09-01T20:03:26Z</time>
  <course>328.31</course>
  <speed>27.62573075956544</speed>
  <fix>3d</fix>
</trkpt>
<trkpt lat="-27.2747842" lon="151.2894788">
  <ele>375.15</ele>
  <time>2026-09-01T20:03:26Z</time>
  <course>324.06</course>
  <speed>27.63</speed>
  <fix>3d</fix>
</trkpt>
<trkpt lat="-27.274698" lon="151.2894175">
  <ele>375.26</ele>
  <time>2026-09-01T20:03:26Z</time>
  <course>330.95</course>
  <speed>27.722930941731253</speed>
  <fix>3d</fix>
</trkpt>
<trkpt lat="-27.2747427" lon="151.2894479">
  <ele>375.18</ele>
  <time>2026-09-01T20:03:26Z</time>
  <course>328.82</course>
  <speed>27.73</speed>
  <fix>3d</fix>
</trkpt>
<trkpt lat="-27.2746767" lon="151.289403">
  <ele>375.32</ele>
  <time>2026-09-01T20:03:26Z</time>
  <course>333.62</course>
  <speed>27.722930941731253</speed>
  <fix>3d</fix>
</trkpt>
<trkpt lat="-27.2747427" lon="151.2894479">
  <ele>375.18</ele>
  <time>2026-09-01T20:03:26Z</time>
  <course>328.82</course>
  <speed>27.73</speed>
  <fix>3d</fix>
</trkpt>
<trkpt lat="-27.274652" lon="151.2893946">
  <ele>375.31</ele>
  <time>2026-09-01T20:03:26Z</time>
  <course>336.19</course>
  <speed>27.81238752786247</speed>
  <fix>3d</fix>
</trkpt>
<trkpt lat="-27.274699" lon="151.2894208">
  <ele>375.21</ele>
  <time>2026-09-01T20:03:26Z</time>
  <course>333.62</course>
  <speed>27.81</speed>
  <fix>3d</fix>
</trkpt>
<trkpt lat="-27.2746297" lon="151.2893821">
  <ele>375.02</ele>
  <time>2026-09-01T20:03:26Z</time>
  <course>338.77</course>
  <speed>27.81238752786247</speed>
  <fix>3d</fix>
</trkpt>
<trkpt lat="-27.274699" lon="151.2894208">
  <ele>375.21</ele>
  <time>2026-09-01T20:03:26Z</time>
  <course>333.62</course>
  <speed>27.81</speed>
  <fix>3d</fix>
</trkpt>
<trkpt lat="-27.2746043" lon="151.2893763">
  <ele>375.35</ele>
  <time>2026-09-01T20:03:26Z</time>
  <course>341.3</course>
  <speed>27.888011761328556</speed>
  <fix>3d</fix>
</trkpt>
<trkpt lat="-27.2746532" lon="151.289398">
  <ele>375.22</ele>
  <time>2026-09-01T20:03:26Z</time>
  <course>338.46</course>
  <speed>27.89</speed>
  <fix>3d</fix>
</trkpt>
<trkpt lat="-27.274581" lon="151.289366">
  <ele>375.26</ele>
  <time>2026-09-01T20:03:26Z</time>
  <course>343.8</course>
  <speed>27.888011761328556</speed>
  <fix>3d</fix>
</trkpt>
<trkpt lat="-27.2746532" lon="151.289398">
  <ele>375.22</ele>
  <time>2026-09-01T20:03:26Z</time>
  <course>338.46</course>
  <speed>27.89</speed>
  <fix>3d</fix>
</trkpt>
<trkpt lat="-27.2745553" lon="151.2893624">
  <ele>375.09</ele>
  <time>2026-09-01T20:03:26Z</time>
  <course>346.39</course>
  <speed>27.959932045697105</speed>
  <fix>3d</fix>
</trkpt>
<trkpt lat="-27.2746058" lon="151.2893795">
  <ele>375.23</ele>
  <time>2026-09-01T20:03:26Z</time>
  <course>343.22</course>
  <speed>27.96</speed>
  <fix>3d</fix>
</trkpt>
<trkpt lat="-27.2745313" lon="151.2893543">
  <ele>375.26</ele>
  <time>2026-09-01T20:03:26Z</time>
  <course>349.02</course>
  <speed>27.959932045697105</speed>
  <fix>3d</fix>
</trkpt>
<trkpt lat="-27.2746058" lon="151.2893795">
  <ele>375.23</ele>
  <time>2026-09-01T20:03:26Z</time>
  <course>343.22</course>
  <speed>27.96</speed>
  <fix>3d</fix>
</trkpt>
<trkpt lat="-27.2745055" lon="151.289353">
  <ele>375.34</ele>
  <time>2026-09-01T20:03:26Z</time>
  <course>351.73</course>
  <speed>28.007759639071455</speed>
  <fix>3d</fix>
</trkpt>
<trkpt lat="-27.2745571" lon="151.2893654">
  <ele>375.21</ele>
  <time>2026-09-01T20:03:26Z</time>
  <course>347.93</course>
  <speed>28.01</speed>
  <fix>3d</fix>
</trkpt>
<trkpt lat="-27.2744809" lon="151.2893471">
  <ele>375.16</ele>
  <time>2026-09-01T20:03:26Z</time>
  <course>354.36</course>
  <speed>28.007759639071455</speed>
  <fix>3d</fix>
</trkpt>
<trkpt lat="-27.2745571" lon="151.2893654">
  <ele>375.21</ele>
  <time>2026-09-01T20:03:26Z</time>
  <course>347.93</course>
  <speed>28.01</speed>
  <fix>3d</fix>
</trkpt>
<trkpt lat="-27.2744552" lon="151.2893483">
  <ele>375.31</ele>
  <time>2026-09-01T20:03:26Z</time>
  <course>357.01</course>
  <speed>28.046853655980737</speed>
  <fix>3d</fix>
</trkpt>
<trkpt lat="-27.2745076" lon="151.2893558">
  <ele>375.18</ele>
  <time>2026-09-01T20:03:26Z</time>
  <course>352.7</course>
  <speed>28.05</speed>
  <fix>3d</fix>
</trkpt>
<trkpt lat="-27.2744302" lon="151.2893447">
  <ele>375.1</ele>
  <time>2026-09-01T20:03:26Z</time>
  <course>359.73</course>
  <speed>28.046853655980737</speed>
  <fix>3d</fix>
</trkpt>
<trkpt lat="-27.2745076" lon="151.2893558">
  <ele>375.18</ele>
  <time>2026-09-01T20:03:26Z</time>
  <course>352.7</course>
  <speed>28.05</speed>
  <fix>3d</fix>
</trkpt>
<trkpt lat="-27.2744045" lon="151.2893485">
  <ele>375.16</ele>
  <time>2026-09-01T20:03:26Z</time>
  <course>2.4</course>
  <speed>28.065240066673223</speed>
  <fix>3d</fix>
</trkpt>
<trkpt lat="-27.2744574" lon="151.289351">
  <ele>375.14</ele>
  <time>2026-09-01T20:03:26Z</time>
  <course>357.55</course>
  <speed>28.07</speed>
  <fix>3d</fix>
</trkpt>
<trkpt lat="-27.2743793" lon="151.2893473">
  <ele>374.87</ele>
  <time>2026-09-01T20:03:26Z</time>
  <course>5.1</course>
  <speed>28.065240066673223</speed>
  <fix>3d</fix>
</trkpt>
<trkpt lat="-27.2744574" lon="151.289351">
  <ele>375.14</ele>
  <time>2026-09-01T20:03:26Z</time>
  <course>357.55</course>
  <speed>28.07</speed>
  <fix>3d</fix>
</trkpt>
<trkpt lat="-27.2743544" lon="151.2893535">
  <ele>374.93</ele>
  <time>2026-09-01T20:03:26Z</time>
  <course>7.83</course>
  <speed>28.065665857057443</speed>
  <fix>3d</fix>
</trkpt>
<trkpt lat="-27.274407" lon="151.289351">
  <ele>375.09</ele>
  <time>2026-09-01T20:03:26Z</time>
  <course>2.46</course>
  <speed>28.07</speed>
  <fix>3d</fix>
</trkpt>
<trkpt lat="-27.2743292" lon="151.2893547">
  <ele>374.91</ele>
  <time>2026-09-01T20:03:26Z</time>
  <course>10.6</course>
  <speed>28.065665857057443</speed>
  <fix>3d</fix>
</trkpt>
<trkpt lat="-27.274407" lon="151.289351">
  <ele>375.09</ele>
  <time>2026-09-01T20:03:26Z</time>
  <course>2.46</course>
  <speed>28.07</speed>
  <fix>3d</fix>
</trkpt>
<trkpt lat="-27.2743044" lon="151.2893636">
  <ele>374.77</ele>
  <time>2026-09-01T20:03:26Z</time>
  <course>13.34</course>
  <speed>28.05582470717979</speed>
  <fix>3d</fix>
</trkpt>
<trkpt lat="-27.2743568" lon="151.2893559">
  <ele>375.03</ele>
  <time>2026-09-01T20:03:26Z</time>
  <course>7.44</course>
  <speed>28.06</speed>
  <fix>3d</fix>
</trkpt>
<trkpt lat="-27.2742794" lon="151.2893673">
  <ele>374.92</ele>
  <time>2026-09-01T20:03:26Z</time>
  <course>16.06</course>
  <speed>28.05582470717979</speed>
  <fix>3d</fix>
</trkpt>
<trkpt lat="-27.2743568" lon="151.2893559">
  <ele>375.03</ele>
  <time>2026-09-01T20:03:26Z</time>
  <course>7.44</course>
  <speed>28.06</speed>
  <fix>3d</fix>
</trkpt>
<trkpt lat="-27.2742555" lon="151.2893785">
  <ele>374.92</ele>
  <time>2026-09-01T20:03:26Z</time>
  <course>18.84</course>
  <speed>28.040451137597625</speed>
  <fix>3d</fix>
</trkpt>
<trkpt lat="-27.2743071" lon="151.2893657">
  <ele>374.97</ele>
  <time>2026-09-01T20:03:26Z</time>
  <course>12.46</course>
  <speed>28.04</speed>
  <fix>3d</fix>
</trkpt>
<trkpt lat="-27.2742309" lon="151.2893846">
  <ele>375.05</ele>
  <time>2026-09-01T20:03:26Z</time>
  <course>21.61</course>
  <speed>28.040451137597625</speed>
  <fix>3d</fix>
</trkpt>
<trkpt lat="-27.2743071" lon="151.2893657">
  <ele>374.97</ele>
  <time>2026-09-01T20:03:26Z</time>
  <course>12.46</course>
  <speed>28.04</speed>
  <fix>3d</fix>
</trkpt>
<trkpt lat="-27.2742081" lon="151.2893983">
  <ele>374.88</ele>
  <time>2026-09-01T20:03:26Z</time>
  <course>24.37</course>
  <speed>28.002207055873292</speed>
  <fix>3d</fix>
</trkpt>
<trkpt lat="-27.2742584" lon="151.2893804">
  <ele>374.9</ele>
  <time>2026-09-01T20:03:26Z</time>
  <course>17.53</course>
  <speed>28.01</speed>
  <fix>3d</fix>
</trkpt>
<trkpt lat="-27.2741838" lon="151.2894069">
  <ele>374.71</ele>
  <time>2026-09-01T20:03:26Z</time>
  <course>27.1</course>
  <speed>28.002207055873292</speed>
  <fix>3d</fix>
</trkpt>
<trkpt lat="-27.2742584" lon="151.2893804">
  <ele>374.9</ele>
  <time>2026-09-01T20:03:26Z</time>
  <course>17.53</course>
  <speed>28.01</speed>
  <fix>3d</fix>
</trkpt>
<trkpt lat="-27.2741625" lon="151.2894226">
  <ele>374.86</ele>
  <time>2026-09-01T20:03:26Z</time>
  <course>29.84</course>
  <speed>27.94076949548813</speed>
  <fix>3d</fix>
</trkpt>
<trkpt lat="-27.2742111" lon="151.2893998">
  <ele>374.84</ele>
  <time>2026-09-01T20:03:26Z</time>
  <course>22.63</course>
  <speed>27.94</speed>
  <fix>3d</fix>
</trkpt>
<trkpt lat="-27.2741393" lon="151.2894334">
  <ele>374.83</ele>
  <time>2026-09-01T20:03:26Z</time>
  <course>32.57</course>
  <speed>27.94076949548813</speed>
  <fix>3d</fix>
</trkpt>
<trkpt lat="-27.2742111" lon="151.2893998">
  <ele>374.84</ele>
  <time>2026-09-01T20:03:26Z</time>
  <course>22.63</course>
  <speed>27.94</speed>
  <fix>3d</fix>
</trkpt>
<trkpt lat="-27.2741193" lon="151.2894512">
  <ele>374.58</ele>
  <time>2026-09-01T20:03:26Z</time>
  <course>35.17</course>
  <speed>27.84000897988361</speed>
  <fix>3d</fix>
</trkpt>
<trkpt lat="-27.2741658" lon="151.2894238">
  <ele>374.78</ele>
  <time>2026-09-01T20:03:26Z</time>
  <course>27.7</course>
  <speed>27.84</speed>
  <fix>3d</fix>
</trkpt>
<trkpt lat="-27.2740972" lon="151.2894643">
  <ele>374.67</ele>
  <time>2026-09-01T20:03:26Z</time>
  <course>37.8</course>
  <speed>27.84000897988361</speed>
  <fix>3d</fix>
</trkpt>
<trkpt lat="-27.2741658" lon="151.2894238">
  <ele>374.78</ele>
  <time>2026-09-01T20:03:27Z</time>
  <course>27.7</course>
  <speed>27.84</speed>
  <fix>3d</fix>
</trkpt>
<trkpt lat="-27.2740787" lon="151.2894838">
  <ele>374.75</ele>
  <time>2026-09-01T20:03:27Z</time>
  <course>40.49</course>
  <speed>27.733661857028547</speed>
  <fix>3d</fix>
</trkpt>
<trkpt lat="-27.2741227" lon="151.2894521">
  <ele>374.73</ele>
  <time>2026-09-01T20:03:27Z</time>
  <course>32.69</course>
  <speed>27.73</speed>
  <fix>3d</fix>
</trkpt>
<trkpt lat="-27.2740577" lon="151.289499">
  <ele>374.75</ele>
  <time>2026-09-01T20:03:27Z</time>
  <course>43.09</course>
  <speed>27.733661857028547</speed>
  <fix>3d</fix>
</trkpt>
<trkpt lat="-27.2741227" lon="151.2894521">
  <ele>374.73</ele>
  <time>2026-09-01T20:03:27Z</time>
  <course>32.69</course>
  <speed>27.73</speed>
  <fix>3d</fix>
</trkpt>
<trkpt lat="-27.2740409" lon="151.28952">
  <ele>374.44</ele>
  <time>2026-09-01T20:03:27Z</time>
  <course>45.62</course>
  <speed>27.60040035941508</speed>
  <fix>3d</fix>
</trkpt>
<trkpt lat="-27.2740821" lon="151.2894843">
  <ele>374.67</ele>
  <time>2026-09-01T20:03:27Z</time>
  <course>37.63</course>
  <speed>27.6</speed>
  <fix>3d</fix>
</trkpt>
<trkpt lat="-27.2740213" lon="151.2895371">
  <ele>374.57</ele>
  <time>2026-09-01T20:03:27Z</time>
  <course>48.17</course>
  <speed>27.60040035941508</speed>
  <fix>3d</fix>
</trkpt>
<trkpt lat="-27.2740821" lon="151.2894843">
  <ele>374.67</ele>
  <time>2026-09-01T20:03:27Z</time>
  <course>37.63</course>
  <speed>27.6</speed>
  <fix>3d</fix>
</trkpt>
<trkpt lat="-27.2740062" lon="151.2895594">
  <ele>374.6</ele>
  <time>2026-09-01T20:03:27Z</time>
  <course>50.71</course>
  <speed>27.454691766617962</speed>
  <fix>3d</fix>
</trkpt>
<trkpt lat="-27.2740443" lon="151.2895201">
  <ele>374.61</ele>
  <time>2026-09-01T20:03:27Z</time>
  <course>42.51</course>
  <speed>27.46</speed>
  <fix>3d</fix>
</trkpt>
<trkpt lat="-27.273988" lon="151.2895782">
  <ele>374.62</ele>
  <time>2026-09-01T20:03:27Z</time>
  <course>53.24</course>
  <speed>27.454691766617962</speed>
  <fix>3d</fix>
</trkpt>
<trkpt lat="-27.2740443" lon="151.2895201">
  <ele>374.61</ele>
  <time>2026-09-01T20:03:27Z</time>
  <course>42.51</course>
  <speed>27.46</speed>
  <fix>3d</fix>
</trkpt>
<trkpt lat="-27.2739745" lon="151.2896017">
  <ele>374.39</ele>
  <time>2026-09-01T20:03:27Z</time>
  <course>55.71</course>
  <speed>27.302472415515776</speed>
  <fix>3d</fix>
</trkpt>
<trkpt lat="-27.2740094" lon="151.2895591">
  <ele>374.54</ele>
  <time>2026-09-01T20:03:27Z</time>
  <course>47.31</course>
  <speed>27.3</speed>
  <fix>3d</fix>
</trkpt>
<trkpt lat="-27.2739579" lon="151.2896219">
  <ele>374.29</ele>
  <time>2026-09-01T20:03:27Z</time>
  <course>58.16</course>
  <speed>27.302472415515776</speed>
  <fix>3d</fix>
</trkpt>
<trkpt lat="-27.2740094" lon="151.2895591">
  <ele>374.54</ele>
  <time>2026-09-01T20:03:27Z</time>
  <course>47.31</course>
  <speed>27.3</speed>
  <fix>3d</fix>
</trkpt>
<trkpt lat="-27.2739464" lon="151.2896465">
  <ele>374.43</ele>
  <time>2026-09-01T20:03:27Z</time>
  <course>60.57</course>
  <speed>27.13268140084942</speed>
  <fix>3d</fix>
</trkpt>
<trkpt lat="-27.2739778" lon="151.2896011">
  <ele>374.47</ele>
  <time>2026-09-01T20:03:27Z</time>
  <course>52.06</course>
  <speed>27.14</speed>
  <fix>3d</fix>
</trkpt>
<trkpt lat="-27.2739315" lon="151.2896679">
  <ele>374.25</ele>
  <time>2026-09-01T20:03:27Z</time>
  <course>62.97</course>
  <speed>27.13268140084942</speed>
  <fix>3d</fix>
</trkpt>
<trkpt lat="-27.2739778" lon="151.2896011">
  <ele>374.47</ele>
  <time>2026-09-01T20:03:27Z</time>
  <course>52.06</course>
  <speed>27.14</speed>
  <fix>3d</fix>
</trkpt>
<trkpt lat="-27.2739217" lon="151.2896933">
  <ele>374.4</ele>
  <time>2026-09-01T20:03:27Z</time>
  <course>65.34</course>
  <speed>26.959148725432705</speed>
  <fix>3d</fix>
</trkpt>
<trkpt lat="-27.2739496" lon="151.2896455">
  <ele>374.39</ele>
  <time>2026-09-01T20:03:27Z</time>
  <course>56.72</course>
  <speed>26.96</speed>
  <fix>3d</fix>
</trkpt>
<trkpt lat="-27.2739084" lon="151.2897161">
  <ele>374.26</ele>
  <time>2026-09-01T20:03:27Z</time>
  <course>67.68</course>
  <speed>26.959148725432705</speed>
  <fix>3d</fix>
</trkpt>
<trkpt lat="-27.2739496" lon="151.2896455">
  <ele>374.39</ele>
  <time>2026-09-01T20:03:27Z</time>
  <course>56.72</course>
  <speed>26.96</speed>
  <fix>3d</fix>
</trkpt>
<trkpt lat="-27.2739005" lon="151.2897419">
  <ele>374.2</ele>
  <time>2026-09-01T20:03:27Z</time>
  <course>70.08</course>
  <speed>26.783810408528506</speed>
  <fix>3d</fix>
</trkpt>
<trkpt lat="-27.2739247" lon="151.2896921">
  <ele>374.3</ele>
  <time>2026-09-01T20:03:27Z</time>
  <course>61.31</course>
  <speed>26.78</speed>
  <fix>3d</fix>
</trkpt>
<trkpt lat="-27.2738889" lon="151.2897657">
  <ele>374.26</ele>
  <time>2026-09-01T20:03:27Z</time>
  <course>72.47</course>
  <speed>26.783810408528506</speed>
  <fix>3d</fix>
</trkpt>
<trkpt lat="-27.2739247" lon="151.2896921">
  <ele>374.3</ele>
  <time>2026-09-01T20:03:27Z</time>
  <course>61.31</course>
  <speed>26.78</speed>
  <fix>3d</fix>
</trkpt>
<trkpt lat="-27.273883" lon="151.289792">
  <ele>374.19</ele>
  <time>2026-09-01T20:03:27Z</time>
  <course>74.77</course>
  <speed>26.588954473615544</speed>
  <fix>3d</fix>
</trkpt>
<trkpt lat="-27.2739034" lon="151.2897405">
  <ele>374.19</ele>
  <time>2026-09-01T20:03:27Z</time>
  <course>65.88</course>
  <speed>26.6</speed>
  <fix>3d</fix>
</trkpt>
<trkpt lat="-27.2738732" lon="151.2898165">
  <ele>374.05</ele>
  <time>2026-09-01T20:03:27Z</time>
  <course>77.06</course>
  <speed>26.588954473615544</speed>
  <fix>3d</fix>
</trkpt>
<trkpt lat="-27.2739034" lon="151.2897405">
  <ele>374.19</ele>
  <time>2026-09-01T20:03:27Z</time>
  <course>65.88</course>
  <speed>26.6</speed>
  <fix>3d</fix>
</trkpt>
<trkpt lat="-27.2738691" lon="151.2898432">
  <ele>373.87</ele>
  <time>2026-09-01T20:03:27Z</time>
  <course>79.41</course>
  <speed>26.40378760708395</speed>
  <fix>3d</fix>
</trkpt>
<trkpt lat="-27.2738857" lon="151.2897904">
  <ele>374.08</ele>
  <time>2026-09-01T20:03:27Z</time>
  <course>70.43</course>
  <speed>26.4</speed>
  <fix>3d</fix>
</trkpt>
<trkpt lat="-27.2738611" lon="151.2898683">
  <ele>373.79</ele>
  <time>2026-09-01T20:03:27Z</time>
  <course>81.74</course>
  <speed>26.40378760708395</speed>
  <fix>3d</fix>
</trkpt>
<trkpt lat="-27.2738857" lon="151.2897904">
  <ele>374.08</ele>
  <time>2026-09-01T20:03:27Z</time>
  <course>70.43</course>
  <speed>26.4</speed>
  <fix>3d</fix>
</trkpt>
<trkpt lat="-27.2738588" lon="151.2898948">
  <ele>373.65</ele>
  <time>2026-09-01T20:03:27Z</time>
  <course>83.97</course>
  <speed>26.20755807014457</speed>
  <fix>3d</fix>
</trkpt>
<trkpt lat="-27.2738716" lon="151.2898411">
  <ele>373.95</ele>
  <time>2026-09-01T20:03:27Z</time>
  <course>74.94</course>
  <speed>26.21</speed>
  <fix>3d</fix>
</trkpt>
<trkpt lat="-27.2738527" lon="151.2899204">
  <ele>373.72</ele>
  <time>2026-09-01T20:03:27Z</time>
  <course>86.23</course>
  <speed>26.20755807014457</speed>
  <fix>3d</fix>
</trkpt>
<trkpt lat="-27.2738716" lon="151.2898411">
  <ele>373.95</ele>
  <time>2026-09-01T20:03:27Z</time>
  <course>74.94</course>
  <speed>26.21</speed>
  <fix>3d</fix>
</trkpt>
<trkpt lat="-27.2738523" lon="151.2899468">
  <ele>373.74</ele>
  <time>2026-09-01T20:03:27Z</time>
  <course>88.52</course>
  <speed>26.019108362893608</speed>
  <fix>3d</fix>
</trkpt>
<trkpt lat="-27.2738612" lon="151.2898925">
  <ele>373.82</ele>
  <time>2026-09-01T20:03:27Z</time>
  <course>79.44</course>
  <speed>26.02</speed>
  <fix>3d</fix>
</trkpt>
<trkpt lat="-27.273848" lon="151.2899726">
  <ele>373.58</ele>
  <time>2026-09-01T20:03:27Z</time>
  <course>90.83</course>
  <speed>26.019108362893608</speed>
  <fix>3d</fix>
</trkpt>
<trkpt lat="-27.2738612" lon="151.2898925">
  <ele>373.82</ele>
  <time>2026-09-01T20:03:27Z</time>
  <course>79.44</course>
  <speed>26.02</speed>
  <fix>3d</fix>
</trkpt>
<trkpt lat="-27.2738494" lon="151.2899989">
  <ele>373.54</ele>
  <time>2026-09-01T20:03:27Z</time>
  <course>93.07</course>
  <speed>25.844591310368983</speed>
  <fix>3d</fix>
</trkpt>
<trkpt lat="-27.2738545" lon="151.2899444">
  <ele>373.68</ele>
  <time>2026-09-01T20:03:27Z</time>
  <course>83.92</course>
  <speed>25.85</speed>
  <fix>3d</fix>
</trkpt>
<trkpt lat="-27.2738469" lon="151.2900252">
  <ele>373.6</ele>
  <time>2026-09-01T20:03:27Z</time>
  <course>95.33</course>
  <speed>25.844591310368983</speed>
  <fix>3d</fix>
</trkpt>
<trkpt lat="-27.2738545" lon="151.2899444">
  <ele>373.68</ele>
  <time>2026-09-01T20:03:27Z</time>
  <course>83.92</course>
  <speed>25.85</speed>
  <fix>3d</fix>
</trkpt>
<trkpt lat="-27.2738501" lon="151.2900507">
  <ele>373.41</ele>
  <time>2026-09-01T20:03:27Z</time>
  <course>97.53</course>
  <speed>25.67981697754094</speed>
  <fix>3d</fix>
</trkpt>
<trkpt lat="-27.2738514" lon="151.2899963">
  <ele>373.53</ele>
  <time>2026-09-01T20:03:27Z</time>
  <course>88.41</course>
  <speed>25.67</speed>
  <fix>3d</fix>
</trkpt>
<trkpt lat="-27.2738495" lon="151.2900767">
  <ele>373.11</ele>
  <time>2026-09-01T20:03:27Z</time>
  <course>99.73</course>
  <speed>25.67981697754094</speed>
  <fix>3d</fix>
</trkpt>
<trkpt lat="-27.2738514" lon="151.2899963">
  <ele>373.53</ele>
  <time>2026-09-01T20:03:27Z</time>
  <course>88.41</course>
  <speed>25.67</speed>
  <fix>3d</fix>
</trkpt>
<trkpt lat="-27.2738543" lon="151.290102">
  <ele>373.42</ele>
  <time>2026-09-01T20:03:27Z</time>
  <course>101.97</course>
  <speed>25.502646921447194</speed>
  <fix>3d</fix>
</trkpt>
<trkpt lat="-27.2738519" lon="151.290048">
  <ele>373.39</ele>
  <time>2026-09-01T20:03:27Z</time>
  <course>92.9</course>
  <speed>25.5</speed>
  <fix>3d</fix>
</trkpt>
<trkpt lat="-27.2738555" lon="151.2901278">
  <ele>373.19</ele>
  <time>2026-09-01T20:03:27Z</time>
  <course>104.2</course>
  <speed>25.502646921447194</speed>
  <fix>3d</fix>
</trkpt>
<trkpt lat="-27.2738519" lon="151.290048">
  <ele>373.39</ele>
  <time>2026-09-01T20:03:27Z</time>
  <course>92.9</course>
  <speed>25.5</speed>
  <fix>3d</fix>
</trkpt>
<trkpt lat="-27.2738621" lon="151.2901524">
  <ele>373.07</ele>
  <time>2026-09-01T20:03:27Z</time>
  <course>106.37</course>
  <speed>25.3306533670176</speed>
  <fix>3d</fix>
</trkpt>
<trkpt lat="-27.273856" lon="151.2900991">
  <ele>373.24</ele>
  <time>2026-09-01T20:03:27Z</time>
  <course>97.39</course>
  <speed>25.33</speed>
  <fix>3d</fix>
</trkpt>
<trkpt lat="-27.273865" lon="151.2901775">
  <ele>372.91</ele>
  <time>2026-09-01T20:03:27Z</time>
  <course>108.49</course>
  <speed>25.3306533670176</speed>
  <fix>3d</fix>
</trkpt>
<trkpt lat="-27.273856" lon="151.2900991">
  <ele>373.24</ele>
  <time>2026-09-01T20:03:27Z</time>
  <course>97.39</course>
  <speed>25.33</speed>
  <fix>3d</fix>
</trkpt>
<trkpt lat="-27.2738732" lon="151.2902016">
  <ele>372.92</ele>
  <time>2026-09-01T20:03:27Z</time>
  <course>110.6</course>
  <speed>25.164707429254964</speed>
  <fix>3d</fix>
</trkpt>
<trkpt lat="-27.2738635" lon="151.2901494">
  <ele>373.1</ele>
  <time>2026-09-01T20:03:27Z</time>
  <course>101.84</course>
  <speed>25.17</speed>
  <fix>3d</fix>
</trkpt>
<trkpt lat="-27.2738778" lon="151.2902265">
  <ele>372.91</ele>
  <time>2026-09-01T20:03:27Z</time>
  <course>112.79</course>
  <speed>25.164707429254964</speed>
  <fix>3d</fix>
</trkpt>
<trkpt lat="-27.2738635" lon="151.2901494">
  <ele>373.1</ele>
  <time>2026-09-01T20:03:27Z</time>
  <course>101.84</course>
  <speed>25.17</speed>
  <fix>3d</fix>
</trkpt>
<trkpt lat="-27.2738877" lon="151.2902495">
  <ele>372.73</ele>
  <time>2026-09-01T20:03:27Z</time>
  <course>114.96</course>
  <speed>25.00960015673981</speed>
  <fix>3d</fix>
</trkpt>
<trkpt lat="-27.2738745" lon="151.2901986">
  <ele>372.96</ele>
  <time>2026-09-01T20:03:27Z</time>
  <course>106.26</course>
  <speed>25.01</speed>
  <fix>3d</fix>
</trkpt>
<trkpt lat="-27.273894" lon="151.2902738">
  <ele>372.71</ele>
  <time>2026-09-01T20:03:27Z</time>
  <course>117.07</course>
  <speed>25.00960015673981</speed>
  <fix>3d</fix>
</trkpt>
<trkpt lat="-27.2738745" lon="151.2901986">
  <ele>372.96</ele>
  <time>2026-09-01T20:03:27Z</time>
  <course>106.26</course>
  <speed>25.01</speed>
  <fix>3d</fix>
</trkpt>
<trkpt lat="-27.2739052" lon="151.2902957">
  <ele>372.63</ele>
  <time>2026-09-01T20:03:27Z</time>
  <course>119.22</course>
  <speed>24.85840904000093</speed>
  <fix>3d</fix>
</trkpt>
<trkpt lat="-27.2738887" lon="151.2902464">
  <ele>372.82</ele>
  <time>2026-09-01T20:03:27Z</time>
  <course>110.67</course>
  <speed>24.86</speed>
  <fix>3d</fix>
</trkpt>
<trkpt lat="-27.2739131" lon="151.2903192">
  <ele>372.8</ele>
  <time>2026-09-01T20:03:27Z</time>
  <course>121.37</course>
  <speed>24.85840904000093</speed>
  <fix>3d</fix>
</trkpt>
<trkpt lat="-27.2738887" lon="151.2902464">
  <ele>372.82</ele>
  <time>2026-09-01T20:03:27Z</time>
  <course>110.67</course>
  <speed>24.86</speed>
  <fix>3d</fix>
</trkpt>
<trkpt lat="-27.2739257" lon="151.2903402">
  <ele>372.45</ele>
  <time>2026-09-01T20:03:27Z</time>
  <course>123.44</course>
  <speed>24.721296487037243</speed>
  <fix>3d</fix>
</trkpt>
<trkpt lat="-27.273906" lon="151.2902927">
  <ele>372.7</ele>
  <time>2026-09-01T20:03:27Z</time>
  <course>115.08</course>
  <speed>24.72</speed>
  <fix>3d</fix>
</trkpt>
<trkpt lat="-27.2739351" lon="151.2903628">
  <ele>372.51</ele>
  <time>2026-09-01T20:03:27Z</time>
  <course>125.57</course>
  <speed>24.721296487037243</speed>
  <fix>3d</fix>
</trkpt>
<trkpt lat="-27.273906" lon="151.2902927">
  <ele>372.7</ele>
  <time>2026-09-01T20:03:27Z</time>
  <course>115.08</course>
  <speed>24.72</speed>
  <fix>3d</fix>
</trkpt>
<trkpt lat="-27.2739492" lon="151.2903824">
  <ele>372.59</ele>
  <time>2026-09-01T20:03:27Z</time>
  <course>127.65</course>
  <speed>24.57901747426044</speed>
  <fix>3d</fix>
</trkpt>
<trkpt lat="-27.2739264" lon="151.290337">
  <ele>372.58</ele>
  <time>2026-09-01T20:03:27Z</time>
  <course>119.47</course>
  <speed>24.58</speed>
  <fix>3d</fix>
</trkpt>
<trkpt lat="-27.27396" lon="151.290404">
  <ele>372.45</ele>
  <time>2026-09-01T20:03:27Z</time>
  <course>129.72</course>
  <speed>24.57901747426044</speed>
  <fix>3d</fix>
</trkpt>
<trkpt lat="-27.2739264" lon="151.290337">
  <ele>372.58</ele>
  <time>2026-09-01T20:03:27Z</time>
  <course>119.47</course>
  <speed>24.58</speed>
  <fix>3d</fix>
</trkpt>
<trkpt lat="-27.2739752" lon="151.2904223">
  <ele>372.37</ele>
  <time>2026-09-01T20:03:27Z</time>
  <course>131.84</course>
  <speed>24.454048744533083</speed>
  <fix>3d</fix>
</trkpt>
<trkpt lat="-27.2739495" lon="151.2903792">
  <ele>372.48</ele>
  <time>2026-09-01T20:03:27Z</time>
  <course>123.85</course>
  <speed>24.45</speed>
  <fix>3d</fix>
</trkpt>
<trkpt lat="-27.2739874" lon="151.2904428">
  <ele>372.46</ele>
  <time>2026-09-01T20:03:27Z</time>
  <course>133.86</course>
  <speed>24.454048744533083</speed>
  <fix>3d</fix>
</trkpt>
<trkpt lat="-27.2739495" lon="151.2903792">
  <ele>372.48</ele>
  <time>2026-09-01T20:03:27Z</time>
  <course>123.85</course>
  <speed>24.45</speed>
  <fix>3d</fix>
</trkpt>
<trkpt lat="-27.2740036" lon="151.2904595">
  <ele>372.14</ele>
  <time>2026-09-01T20:03:27Z</time>
  <course>135.79</course>
  <speed>24.330961756576745</speed>
  <fix>3d</fix>
</trkpt>
<trkpt lat="-27.2739752" lon="151.290419">
  <ele>372.39</ele>
  <time>2026-09-01T20:03:27Z</time>
  <course>128.23</course>
  <speed>24.33</speed>
  <fix>3d</fix>
</trkpt>
<trkpt lat="-27.2740171" lon="151.2904788">
  <ele>372.24</ele>
  <time>2026-09-01T20:03:27Z</time>
  <course>137.77</course>
  <speed>24.330961756576745</speed>
  <fix>3d</fix>
</trkpt>
<trkpt lat="-27.2739752" lon="151.290419">
  <ele>372.39</ele>
  <time>2026-09-01T20:03:27Z</time>
  <course>128.23</course>
  <speed>24.33</speed>
  <fix>3d</fix>
</trkpt>
<trkpt lat="-27.2740344" lon="151.2904941">
  <ele>372.38</ele>
  <time>2026-09-01T20:03:27Z</time>
  <course>139.83</course>
  <speed>24.219207253748003</speed>
  <fix>3d</fix>
</trkpt>
<trkpt lat="-27.2740035" lon="151.2904563">
  <ele>372.31</ele>
  <time>2026-09-01T20:03:27Z</time>
  <course>132.56</course>
  <speed>24.22</speed>
  <fix>3d</fix>
</trkpt>
<trkpt lat="-27.2740491" lon="151.2905122">
  <ele>372.36</ele>
  <time>2026-09-01T20:03:27Z</time>
  <course>141.8</course>
  <speed>24.219207253748003</speed>
  <fix>3d</fix>
</trkpt>
<trkpt lat="-27.2740035" lon="151.2904563">
  <ele>372.31</ele>
  <time>2026-09-01T20:03:27Z</time>
  <course>132.56</course>
  <speed>24.22</speed>
  <fix>3d</fix>
</trkpt>
<trkpt lat="-27.2740672" lon="151.2905261">
  <ele>372.09</ele>
  <time>2026-09-01T20:03:27Z</time>
  <course>143.82</course>
  <speed>24.117589017146802</speed>
  <fix>3d</fix>
</trkpt>
<trkpt lat="-27.2740341" lon="151.2904911">
  <ele>372.24</ele>
  <time>2026-09-01T20:03:27Z</time>
  <course>136.82</course>
  <speed>24.12</speed>
  <fix>3d</fix>
</trkpt>
<trkpt lat="-27.274083" lon="151.2905428">
  <ele>372.2</ele>
  <time>2026-09-01T20:03:27Z</time>
  <course>145.78</course>
  <speed>24.117589017146802</speed>
  <fix>3d</fix>
</trkpt>
<trkpt lat="-27.2740341" lon="151.2904911">
  <ele>372.24</ele>
  <time>2026-09-01T20:03:27Z</time>
  <course>136.82</course>
  <speed>24.12</speed>
  <fix>3d</fix>
</trkpt>
<trkpt lat="-27.2741019" lon="151.290555">
  <ele>372.25</ele>
  <time>2026-09-01T20:03:27Z</time>
  <course>147.72</course>
  <speed>24.013548259263974</speed>
  <fix>3d</fix>
</trkpt>
<trkpt lat="-27.2740667" lon="151.290523">
  <ele>372.18</ele>
  <time>2026-09-01T20:03:27Z</time>
  <course>141.07</course>
  <speed>24.02</speed>
  <fix>3d</fix>
</trkpt>
<trkpt lat="-27.2741187" lon="151.2905702">
  <ele>372.15</ele>
  <time>2026-09-01T20:03:27Z</time>
  <course>149.7</course>
  <speed>24.013548259263974</speed>
  <fix>3d</fix>
</trkpt>
<trkpt lat="-27.2740667" lon="151.290523">
  <ele>372.18</ele>
  <time>2026-09-01T20:03:27Z</time>
  <course>141.07</course>
  <speed>24.02</speed>
  <fix>3d</fix>
</trkpt>
<trkpt lat="-27.2741382" lon="151.2905809">
  <ele>372.01</ele>
  <time>2026-09-01T20:03:27Z</time>
  <course>151.63</course>
  <speed>23.91693960355296</speed>
  <fix>3d</fix>
</trkpt>
<trkpt lat="-27.2741011" lon="151.290552">
  <ele>372.13</ele>
  <time>2026-09-01T20:03:27Z</time>
  <course>145.28</course>
  <speed>23.92</speed>
  <fix>3d</fix>
</trkpt>
<trkpt lat="-27.2741558" lon="151.2905946">
  <ele>372.13</ele>
  <time>2026-09-01T20:03:27Z</time>
  <course>153.6</course>
  <speed>23.91693960355296</speed>
  <fix>3d</fix>
</trkpt>
<trkpt lat="-27.2741011" lon="151.290552">
  <ele>372.13</ele>
  <time>2026-09-01T20:03:27Z</time>
  <course>145.28</course>
  <speed>23.92</speed>
  <fix>3d</fix>
</trkpt>
<trkpt lat="-27.2741759" lon="151.2906036">
  <ele>372.16</ele>
  <time>2026-09-01T20:03:27Z</time>
  <course>155.49</course>
  <speed>23.83046159855071</speed>
  <fix>3d</fix>
</trkpt>
<trkpt lat="-27.2741372" lon="151.290578">
  <ele>372.09</ele>
  <time>2026-09-01T20:03:27Z</time>
  <course>149.47</course>
  <speed>23.83</speed>
  <fix>3d</fix>
</trkpt>
<trkpt lat="-27.2741943" lon="151.2906159">
  <ele>371.85</ele>
  <time>2026-09-01T20:03:27Z</time>
  <course>157.35</course>
  <speed>23.83046159855071</speed>
  <fix>3d</fix>
</trkpt>
<trkpt lat="-27.2741372" lon="151.290578">
  <ele>372.09</ele>
  <time>2026-09-01T20:03:27Z</time>
  <course>149.47</course>
  <speed>23.83</speed>
  <fix>3d</fix>
</trkpt>
<trkpt lat="-27.2742149" lon="151.2906233">
  <ele>372.11</ele>
  <time>2026-09-01T20:03:27Z</time>
  <course>159.2</course>
  <speed>23.751650468967412</speed>
  <fix>3d</fix>
</trkpt>
<trkpt lat="-27.2741748" lon="151.2906009">
  <ele>372.06</ele>
  <time>2026-09-01T20:03:27Z</time>
  <course>153.62</course>
  <speed>23.76</speed>
  <fix>3d</fix>
</trkpt>
<trkpt lat="-27.274234" lon="151.2906339">
  <ele>371.95</ele>
  <time>2026-09-01T20:03:27Z</time>
  <course>161.09</course>
  <speed>23.751650468967412</speed>
  <fix>3d</fix>
</trkpt>
<trkpt lat="-27.2741748" lon="151.2906009">
  <ele>372.06</ele>
  <time>2026-09-01T20:03:27Z</time>
  <course>153.62</course>
  <speed>23.76</speed>
  <fix>3d</fix>
</trkpt>
<trkpt lat="-27.274255" lon="151.2906397">
  <ele>372.11</ele>
  <time>2026-09-01T20:03:27Z</time>
  <course>163.01</course>
  <speed>23.697369052280887</speed>
  <fix>3d</fix>
</trkpt>
<trkpt lat="-27.2742137" lon="151.2906207">
  <ele>372.03</ele>
  <time>2026-09-01T20:03:27Z</time>
  <course>157.71</course>
  <speed>23.7</speed>
  <fix>3d</fix>
</trkpt>
<trkpt lat="-27.2742747" lon="151.2906488">
  <ele>372.0</ele>
  <time>2026-09-01T20:03:27Z</time>
  <course>164.89</course>
  <speed>23.697369052280887</speed>
  <fix>3d</fix>
</trkpt>
<trkpt lat="-27.2742137" lon="151.2906207">
  <ele>372.03</ele>
  <time>2026-09-01T20:03:27Z</time>
  <course>157.71</course>
  <speed>23.7</speed>
  <fix>3d</fix>
</trkpt>
<trkpt lat="-27.274296" lon="151.2906528">
  <ele>372.09</ele>
  <time>2026-09-01T20:03:27Z</time>
  <course>166.77</course>
  <speed>23.647786365746796</speed>
  <fix>3d</fix>
</trkpt>
<trkpt lat="-27.2742536" lon="151.2906372">
  <ele>372.0</ele>
  <time>2026-09-01T20:03:27Z</time>
  <course>161.82</course>
  <speed>23.65</speed>
  <fix>3d</fix>
</trkpt>
<trkpt lat="-27.2743161" lon="151.2906603">
  <ele>371.92</ele>
  <time>2026-09-01T20:03:27Z</time>
  <course>168.69</course>
  <speed>23.647786365746796</speed>
  <fix>3d</fix>
</trkpt>
<trkpt lat="-27.2742536" lon="151.2906372">
  <ele>372.0</ele>
  <time>2026-09-01T20:03:27Z</time>
  <course>161.82</course>
  <speed>23.65</speed>
  <fix>3d</fix>
</trkpt>
<trkpt lat="-27.2743376" lon="151.2906626">
  <ele>371.88</ele>
  <time>2026-09-01T20:03:27Z</time>
  <course>170.59</course>
  <speed>23.615693934331045</speed>
  <fix>3d</fix>
</trkpt>
<trkpt lat="-27.2742944" lon="151.2906505">
  <ele>371.97</ele>
  <time>2026-09-01T20:03:27Z</time>
  <course>165.95</course>
  <speed>23.61</speed>
  <fix>3d</fix>
</trkpt>
<trkpt lat="-27.2743581" lon="151.2906684">
  <ele>371.98</ele>
  <time>2026-09-01T20:03:27Z</time>
  <course>172.43</course>
  <speed>23.615693934331045</speed>
  <fix>3d</fix>
</trkpt>
<trkpt lat="-27.2742944" lon="151.2906505">
  <ele>371.97</ele>
  <time>2026-09-01T20:03:27Z</time>
  <course>165.95</course>
  <speed>23.61</speed>
  <fix>3d</fix>
</trkpt>
<trkpt lat="-27.2743797" lon="151.290669">
  <ele>371.74</ele>
  <time>2026-09-01T20:03:27Z</time>
  <course>174.36</course>
  <speed>23.583846166391094</speed>
  <fix>3d</fix>
</trkpt>
<trkpt lat="-27.2743359" lon="151.2906604">
  <ele>371.96</ele>
  <time>2026-09-01T20:03:27Z</time>
  <course>170.04</course>
  <speed>23.58</speed>
  <fix>3d</fix>
</trkpt>
<trkpt lat="-27.2744005" lon="151.2906731">
  <ele>371.91</ele>
  <time>2026-09-01T20:03:27Z</time>
  <course>176.21</course>
  <speed>23.583846166391094</speed>
  <fix>3d</fix>
</trkpt>
<trkpt lat="-27.2743359" lon="151.2906604">
  <ele>371.96</ele>
  <time>2026-09-01T20:03:27Z</time>
  <course>170.04</course>
  <speed>23.58</speed>
  <fix>3d</fix>
</trkpt>
<trkpt lat="-27.2744221" lon="151.2906719">
  <ele>371.77</ele>
  <time>2026-09-01T20:03:27Z</time>
  <course>178.11</course>
  <speed>23.571478528085592</speed>
  <fix>3d</fix>
</trkpt>
<trkpt lat="-27.2743779" lon="151.2906669">
  <ele>371.94</ele>
  <time>2026-09-01T20:03:27Z</time>
  <course>174.15</course>
  <speed>23.57</speed>
  <fix>3d</fix>
</trkpt>
<trkpt lat="-27.2744432" lon="151.2906744">
  <ele>371.89</ele>
  <time>2026-09-01T20:03:27Z</time>
  <course>180.01</course>
  <speed>23.571478528085592</speed>
  <fix>3d</fix>
</trkpt>
<trkpt lat="-27.2743779" lon="151.2906669">
  <ele>371.94</ele>
  <time>2026-09-01T20:03:27Z</time>
  <course>174.15</course>
  <speed>23.57</speed>
  <fix>3d</fix>
</trkpt>
<trkpt lat="-27.2744645" lon="151.2906715">
  <ele>371.74</ele>
  <time>2026-09-01T20:03:27Z</time>
  <course>181.95</course>
  <speed>23.570396687370366</speed>
  <fix>3d</fix>
</trkpt>
<trkpt lat="-27.2744201" lon="151.2906701">
  <ele>371.93</ele>
  <time>2026-09-01T20:03:27Z</time>
  <course>178.28</course>
  <speed>23.57</speed>
  <fix>3d</fix>
</trkpt>
<trkpt lat="-27.2744857" lon="151.2906723">
  <ele>371.83</ele>
  <time>2026-09-01T20:03:27Z</time>
  <course>183.87</course>
  <speed>23.570396687370366</speed>
  <fix>3d</fix>
</trkpt>
<trkpt lat="-27.2744201" lon="151.2906701">
  <ele>371.93</ele>
  <time>2026-09-01T20:03:27Z</time>
  <course>178.28</course>
  <speed>23.57</speed>
  <fix>3d</fix>
</trkpt>
<trkpt lat="-27.2745068" lon="151.2906677">
  <ele>371.86</ele>
  <time>2026-09-01T20:03:27Z</time>
  <course>185.79</course>
  <speed>23.58121286108923</speed>
  <fix>3d</fix>
</trkpt>
<trkpt lat="-27.2744624" lon="151.2906698">
  <ele>371.93</ele>
  <time>2026-09-01T20:03:27Z</time>
  <course>182.43</course>
  <speed>23.58</speed>
  <fix>3d</fix>
</trkpt>
<trkpt lat="-27.274528" lon="151.2906667">
  <ele>371.88</ele>
  <time>2026-09-01T20:03:27Z</time>
  <course>187.74</course>
  <speed>23.58121286108923</speed>
  <fix>3d</fix>
</trkpt>
<trkpt lat="-27.2744624" lon="151.2906698">
  <ele>371.93</ele>
  <time>2026-09-01T20:03:27Z</time>
  <course>182.43</course>
  <speed>23.58</speed>
  <fix>3d</fix>
</trkpt>
<trkpt lat="-27.2745489" lon="151.2906604">
  <ele>372.11</ele>
  <time>2026-09-01T20:03:27Z</time>
  <course>189.7</course>
  <speed>23.60722135279796</speed>
  <fix>3d</fix>
</trkpt>
<trkpt lat="-27.2745047" lon="151.2906661">
  <ele>371.93</ele>
  <time>2026-09-01T20:03:27Z</time>
  <course>186.63</course>
  <speed>23.6</speed>
  <fix>3d</fix>
</trkpt>
<trkpt lat="-27.27457" lon="151.2906576">
  <ele>372.13</ele>
  <time>2026-09-01T20:03:27Z</time>
  <course>191.61</course>
  <speed>23.60722135279796</speed>
  <fix>3d</fix>
</trkpt>
<trkpt lat="-27.2745047" lon="151.2906661">
  <ele>371.93</ele>
  <time>2026-09-01T20:03:27Z</time>
  <course>186.63</course>
  <speed>23.6</speed>
  <fix>3d</fix>
</trkpt>
<trkpt lat="-27.2745904" lon="151.2906494">
  <ele>371.88</ele>
  <time>2026-09-01T20:03:27Z</time>
  <course>193.57</course>
  <speed>23.642565427634963</speed>
  <fix>3d</fix>
</trkpt>
<trkpt lat="-27.2745466" lon="151.2906588">
  <ele>371.95</ele>
  <time>2026-09-01T20:03:27Z</time>
  <course>190.87</course>
  <speed>23.64</speed>
  <fix>3d</fix>
</trkpt>
<trkpt lat="-27.2746112" lon="151.2906449">
  <ele>372.14</ele>
  <time>2026-09-01T20:03:27Z</time>
  <course>195.54</course>
  <speed>23.642565427634963</speed>
  <fix>3d</fix>
</trkpt>
<trkpt lat="-27.2745466" lon="151.2906588">
  <ele>371.95</ele>
  <time>2026-09-01T20:03:27Z</time>
  <course>190.87</course>
  <speed>23.64</speed>
  <fix>3d</fix>
</trkpt>
<trkpt lat="-27.2746311" lon="151.290635">
  <ele>372.02</ele>
  <time>2026-09-01T20:03:27Z</time>
  <course>197.53</course>
  <speed>23.66836285001563</speed>
  <fix>3d</fix>
</trkpt>
<trkpt lat="-27.274588" lon="151.2906481">
  <ele>371.97</ele>
  <time>2026-09-01T20:03:27Z</time>
  <course>195.12</course>
  <speed>23.67</speed>
  <fix>3d</fix>
</trkpt>
<trkpt lat="-27.2746514" lon="151.2906289">
  <ele>371.8</ele>
  <time>2026-09-01T20:03:27Z</time>
  <course>199.52</course>
  <speed>23.66836285001563</speed>
  <fix>3d</fix>
</trkpt>
<trkpt lat="-27.274588" lon="151.2906481">
  <ele>371.97</ele>
  <time>2026-09-01T20:03:27Z</time>
  <course>195.12</course>
  <speed>23.67</speed>
  <fix>3d</fix>
</trkpt>
<trkpt lat="-27.2746709" lon="151.2906172">
  <ele>372.09</ele>
  <time>2026-09-01T20:03:27Z</time>
  <course>201.48</course>
  <speed>23.714000084338362</speed>
  <fix>3d</fix>
</trkpt>
<trkpt lat="-27.2746287" lon="151.2906339">
  <ele>372.0</ele>
  <time>2026-09-01T20:03:27Z</time>
  <course>199.39</course>
  <speed>23.71</speed>
  <fix>3d</fix>
</trkpt>
<trkpt lat="-27.2746909" lon="151.2906093">
  <ele>372.18</ele>
  <time>2026-09-01T20:03:27Z</time>
  <course>203.5</course>
  <speed>23.714000084338362</speed>
  <fix>3d</fix>
</trkpt>
<trkpt lat="-27.2746287" lon="151.2906339">
  <ele>372.0</ele>
  <time>2026-09-01T20:03:27Z</time>
  <course>199.39</course>
  <speed>23.71</speed>
  <fix>3d</fix>
</trkpt>
<trkpt lat="-27.2747096" lon="151.2905959">
  <ele>372.0</ele>
  <time>2026-09-01T20:03:27Z</time>
  <course>205.45</course>
  <speed>23.767439912619952</speed>
  <fix>3d</fix>
</trkpt>
<trkpt lat="-27.2746684" lon="151.2906162">
  <ele>372.03</ele>
  <time>2026-09-01T20:03:27Z</time>
  <course>203.72</course>
  <speed>23.77</speed>
  <fix>3d</fix>
</trkpt>
<trkpt lat="-27.2747291" lon="151.2905862">
  <ele>372.1</ele>
  <time>2026-09-01T20:03:27Z</time>
  <course>207.42</course>
  <speed>23.767439912619952</speed>
  <fix>3d</fix>
</trkpt>
<trkpt lat="-27.2746684" lon="151.2906162">
  <ele>372.03</ele>
  <time>2026-09-01T20:03:27Z</time>
  <course>203.72</course>
  <speed>23.77</speed>
  <fix>3d</fix>
</trkpt>
<trkpt lat="-27.2747465" lon="151.2905714">
  <ele>371.94</ele>
  <time>2026-09-01T20:03:27Z</time>
  <course>209.47</course>
  <speed>23.835301550431453</speed>
  <fix>3d</fix>
</trkpt>
<trkpt lat="-27.2747069" lon="151.2905951">
  <ele>372.08</ele>
  <time>2026-09-01T20:03:27Z</time>
  <course>208.03</course>
  <speed>23.83</speed>
  <fix>3d</fix>
</trkpt>
<trkpt lat="-27.2747654" lon="151.29056">
  <ele>372.08</ele>
  <time>2026-09-01T20:03:27Z</time>
  <course>211.54</course>
  <speed>23.835301550431453</speed>
  <fix>3d</fix>
</trkpt>
<trkpt lat="-27.2747069" lon="151.2905951">
  <ele>372.08</ele>
  <time>2026-09-01T20:03:27Z</time>
  <course>208.03</course>
  <speed>23.83</speed>
  <fix>3d</fix>
</trkpt>
<trkpt lat="-27.274782" lon="151.2905438">
  <ele>372.29</ele>
  <time>2026-09-01T20:03:27Z</time>
  <course>213.54</course>
  <speed>23.900213388168737</speed>
  <fix>3d</fix>
</trkpt>
<trkpt lat="-27.2747439" lon="151.2905709">
  <ele>372.13</ele>
  <time>2026-09-01T20:03:27Z</time>
  <course>212.35</course>
  <speed>23.9</speed>
  <fix>3d</fix>
</trkpt>
<trkpt lat="-27.2748001" lon="151.2905309">
  <ele>372.19</ele>
  <time>2026-09-01T20:03:27Z</time>
  <course>215.52</course>
  <speed>23.900213388168737</speed>
  <fix>3d</fix>
</trkpt>
<trkpt lat="-27.2747439" lon="151.2905709">
  <ele>372.13</ele>
  <time>2026-09-01T20:03:27Z</time>
  <course>212.35</course>
  <speed>23.9</speed>
  <fix>3d</fix>
</trkpt>
<trkpt lat="-27.2748156" lon="151.2905131">
  <ele>372.38</ele>
  <time>2026-09-01T20:03:27Z</time>
  <course>217.56</course>
  <speed>23.988090795225865</speed>
  <fix>3d</fix>
</trkpt>
<trkpt lat="-27.2747794" lon="151.2905435">
  <ele>372.19</ele>
  <time>2026-09-01T20:03:27Z</time>
  <course>216.71</course>
  <speed>23.99</speed>
  <fix>3d</fix>
</trkpt>
<trkpt lat="-27.2748329" lon="151.2904986">
  <ele>372.42</ele>
  <time>2026-09-01T20:03:27Z</time>
  <course>219.73</course>
  <speed>23.988090795225865</speed>
  <fix>3d</fix>
</trkpt>
<trkpt lat="-27.2747794" lon="151.2905435">
  <ele>372.19</ele>
  <time>2026-09-01T20:03:27Z</time>
  <course>216.71</course>
  <speed>23.99</speed>
  <fix>3d</fix>
</trkpt>
<trkpt lat="-27.2748473" lon="151.2904795">
  <ele>372.36</ele>
  <time>2026-09-01T20:03:27Z</time>
  <course>221.75</course>
  <speed>24.079794434338513</speed>
  <fix>3d</fix>
</trkpt>
<trkpt lat="-27.274813" lon="151.290513">
  <ele>372.25</ele>
  <time>2026-09-01T20:03:27Z</time>
  <course>220.97</course>
  <speed>24.08</speed>
  <fix>3d</fix>
</trkpt>
<trkpt lat="-27.2748636" lon="151.2904636">
  <ele>372.23</ele>
  <time>2026-09-01T20:03:27Z</time>
  <course>223.12</course>
  <speed>24.079794434338513</speed>
  <fix>3d</fix>
</trkpt>
<trkpt lat="-27.274813" lon="151.290513">
  <ele>372.25</ele>
  <time>2026-09-01T20:03:27Z</time>
  <course>220.97</course>
  <speed>24.08</speed>
  <fix>3d</fix>
</trkpt>
<trkpt lat="-27.2748764" lon="151.2904432">
  <ele>372.44</ele>
  <time>2026-09-01T20:03:27Z</time>
  <course>224.27</course>
  <speed>24.169840711101095</speed>
  <fix>3d</fix>
</trkpt>
<trkpt lat="-27.2748445" lon="151.2904797">
  <ele>372.32</ele>
  <time>2026-09-01T20:03:27Z</time>
  <course>225.48</course>
  <speed>24.17</speed>
  <fix>3d</fix>
</trkpt>
<trkpt lat="-27.2748916" lon="151.2904257">
  <ele>372.63</ele>
  <time>2026-09-01T20:03:27Z</time>
  <course>225.62</course>
  <speed>24.169840711101095</speed>
  <fix>3d</fix>
</trkpt>
<trkpt lat="-27.2748445" lon="151.2904797">
  <ele>372.32</ele>
  <time>2026-09-01T20:03:27Z</time>
  <course>225.48</course>
  <speed>24.17</speed>
  <fix>3d</fix>
</trkpt>
<trkpt lat="-27.2749028" lon="151.2904035">
  <ele>372.67</ele>
  <time>2026-09-01T20:03:27Z</time>
  <course>227.2</course>
  <speed>24.295369929268418</speed>
  <fix>3d</fix>
</trkpt>
<trkpt lat="-27.2748737" lon="151.2904433">
  <ele>372.41</ele>
  <time>2026-09-01T20:03:27Z</time>
  <course>230.51</course>
  <speed>24.29</speed>
  <fix>3d</fix>
</trkpt>
<trkpt lat="-27.2749167" lon="151.2903846">
  <ele>372.78</ele>
  <time>2026-09-01T20:03:27Z</time>
  <course>228.68</course>
  <speed>24.295369929268418</speed>
  <fix>3d</fix>
</trkpt>
<trkpt lat="-27.2748737" lon="151.2904433">
  <ele>372.41</ele>
  <time>2026-09-01T20:03:27Z</time>
  <course>230.51</course>
  <speed>24.29</speed>
  <fix>3d</fix>
</trkpt>
<trkpt lat="-27.2749257" lon="151.290361">
  <ele>372.55</ele>
  <time>2026-09-01T20:03:27Z</time>
  <course>230.1</course>
  <speed>24.460190105557235</speed>
  <fix>3d</fix>
</trkpt>
<trkpt lat="-27.2748999" lon="151.2904039">
  <ele>372.54</ele>
  <time>2026-09-01T20:03:27Z</time>
  <course>235.86</course>
  <speed>24.46</speed>
  <fix>3d</fix>
</trkpt>
<trkpt lat="-27.2749381" lon="151.2903405">
  <ele>372.73</ele>
  <time>2026-09-01T20:03:27Z</time>
  <course>231.54</course>
  <speed>24.460190105557235</speed>
  <fix>3d</fix>
</trkpt>
<trkpt lat="-27.2748999" lon="151.2904039">
  <ele>372.54</ele>
  <time>2026-09-01T20:03:27Z</time>
  <course>235.86</course>
  <speed>24.46</speed>
  <fix>3d</fix>
</trkpt>
<trkpt lat="-27.2749453" lon="151.2903157">
  <ele>372.98</ele>
  <time>2026-09-01T20:03:27Z</time>
  <course>233.0</course>
  <speed>24.64269668684822</speed>
  <fix>3d</fix>
</trkpt>
<trkpt lat="-27.2749229" lon="151.2903615">
  <ele>372.72</ele>
  <time>2026-09-01T20:03:27Z</time>
  <course>241.16</course>
  <speed>24.65</speed>
  <fix>3d</fix>
</trkpt>
<trkpt lat="-27.274956" lon="151.2902939">
  <ele>373.11</ele>
  <time>2026-09-01T20:03:27Z</time>
  <course>234.37</course>
  <speed>24.64269668684822</speed>
  <fix>3d</fix>
</trkpt>
<trkpt lat="-27.2749229" lon="151.2903615">
  <ele>372.72</ele>
  <time>2026-09-01T20:03:27Z</time>
  <course>241.16</course>
  <speed>24.65</speed>
  <fix>3d</fix>
</trkpt>
<trkpt lat="-27.2749615" lon="151.2902689">
  <ele>372.94</ele>
  <time>2026-09-01T20:03:27Z</time>
  <course>235.78</course>
  <speed>24.819121660526186</speed>
  <fix>3d</fix>
</trkpt>
<trkpt lat="-27.2749426" lon="151.2903168">
  <ele>372.94</ele>
  <time>2026-09-01T20:03:27Z</time>
  <course>246.02</course>
  <speed>24.82</speed>
  <fix>3d</fix>
</trkpt>
<trkpt lat="-27.2749705" lon="151.290246">
  <ele>373.06</ele>
  <time>2026-09-01T20:03:27Z</time>
  <course>237.25</course>
  <speed>24.819121660526186</speed>
  <fix>3d</fix>
</trkpt>
<trkpt lat="-27.2749426" lon="151.2903168">
  <ele>372.94</ele>
  <time>2026-09-01T20:03:27Z</time>
  <course>246.02</course>
  <speed>24.82</speed>
  <fix>3d</fix>
</trkpt>
<trkpt lat="-27.2749748" lon="151.29022">
  <ele>373.46</ele>
  <time>2026-09-01T20:03:27Z</time>
  <course>238.71</course>
  <speed>24.96983179759127</speed>
  <fix>3d</fix>
</trkpt>
<trkpt lat="-27.2749592" lon="151.2902699">
  <ele>373.15</ele>
  <time>2026-09-01T20:03:27Z</time>
  <course>250.56</course>
  <speed>24.97</speed>
  <fix>3d</fix>
</trkpt>
<trkpt lat="-27.2749823" lon="151.2901962">
  <ele>373.32</ele>
  <time>2026-09-01T20:03:27Z</time>
  <course>240.15</course>
  <speed>24.96983179759127</speed>
  <fix>3d</fix>
</trkpt>
<trkpt lat="-27.2749592" lon="151.2902699">
  <ele>373.15</ele>
  <time>2026-09-01T20:03:27Z</time>
  <course>250.56</course>
  <speed>24.97</speed>
  <fix>3d</fix>
</trkpt>
<trkpt lat="-27.2749848" lon="151.2901701">
  <ele>373.36</ele>
  <time>2026-09-01T20:03:27Z</time>
  <course>241.66</course>
  <speed>25.104153042873204</speed>
  <fix>3d</fix>
</trkpt>
<trkpt lat="-27.2749725" lon="151.2902215">
  <ele>373.35</ele>
  <time>2026-09-01T20:03:27Z</time>
  <course>254.9</course>
  <speed>25.1</speed>
  <fix>3d</fix>
</trkpt>
<trkpt lat="-27.2749907" lon="151.2901456">
  <ele>373.39</ele>
  <time>2026-09-01T20:03:27Z</time>
  <course>243.2</course>
  <speed>25.104153042873204</speed>
  <fix>3d</fix>
</trkpt>
<trkpt lat="-27.2749725" lon="151.2902215">
  <ele>373.35</ele>
  <time>2026-09-01T20:03:27Z</time>
  <course>254.9</course>
  <speed>25.1</speed>
  <fix>3d</fix>
</trkpt>
<trkpt lat="-27.2749916" lon="151.2901194">
  <ele>373.66</ele>
  <time>2026-09-01T20:03:27Z</time>
  <course>244.78</course>
  <speed>25.22510257660016</speed>
  <fix>3d</fix>
</trkpt>
<trkpt lat="-27.2749827" lon="151.2901719">
  <ele>373.51</ele>
  <time>2026-09-01T20:03:27Z</time>
  <course>259.1</course>
  <speed>25.23</speed>
  <fix>3d</fix>
</trkpt>
<trkpt lat="-27.2749959" lon="151.2900943">
  <ele>373.76</ele>
  <time>2026-09-01T20:03:27Z</time>
  <course>246.38</course>
  <speed>25.22510257660016</speed>
  <fix>3d</fix>
</trkpt>
<trkpt lat="-27.2749827" lon="151.2901719">
  <ele>373.51</ele>
  <time>2026-09-01T20:03:27Z</time>
  <course>259.1</course>
  <speed>25.23</speed>
  <fix>3d</fix>
</trkpt>
<trkpt lat="-27.2749953" lon="151.290068">
  <ele>373.54</ele>
  <time>2026-09-01T20:03:27Z</time>
  <course>248.0</course>
  <speed>25.356902413346944</speed>
  <fix>3d</fix>
</trkpt>
<trkpt lat="-27.2749897" lon="151.2901214">
  <ele>373.64</ele>
  <time>2026-09-01T20:03:27Z</time>
  <course>263.21</course>
  <speed>25.36</speed>
  <fix>3d</fix>
</trkpt>
<trkpt lat="-27.274998" lon="151.2900425">
  <ele>373.62</ele>
  <time>2026-09-01T20:03:27Z</time>
  <course>249.67</course>
  <speed>25.356902413346944</speed>
  <fix>3d</fix>
</trkpt>
<trkpt lat="-27.2749897" lon="151.2901214">
  <ele>373.64</ele>
  <time>2026-09-01T20:03:27Z</time>
  <course>263.21</course>
  <speed>25.36</speed>
  <fix>3d</fix>
</trkpt>
<trkpt lat="-27.2749956" lon="151.2900159">
  <ele>373.63</ele>
  <time>2026-09-01T20:03:27Z</time>
  <course>251.42</course>
  <speed>25.528691701691255</speed>
  <fix>3d</fix>
</trkpt>
<trkpt lat="-27.2749934" lon="151.2900702">
  <ele>373.72</ele>
  <time>2026-09-01T20:03:27Z</time>
  <course>267.27</course>
  <speed>25.53</speed>
  <fix>3d</fix>
</trkpt>
<trkpt lat="-27.2749967" lon="151.2899901">
  <ele>373.77</ele>
  <time>2026-09-01T20:03:27Z</time>
  <course>253.14</course>
  <speed>25.528691701691255</speed>
  <fix>3d</fix>
</trkpt>
<trkpt lat="-27.2749934" lon="151.2900702">
  <ele>373.72</ele>
  <time>2026-09-01T20:03:27Z</time>
  <course>267.27</course>
  <speed>25.53</speed>
  <fix>3d</fix>
</trkpt>
<trkpt lat="-27.2749929" lon="151.2899638">
  <ele>373.65</ele>
  <time>2026-09-01T20:03:27Z</time>
  <course>254.92</course>
  <speed>25.736536285988446</speed>
  <fix>3d</fix>
</trkpt>
<trkpt lat="-27.274994" lon="151.2900184">
  <ele>373.77</ele>
  <time>2026-09-01T20:03:27Z</time>
  <course>271.31</course>
  <speed>25.73</speed>
  <fix>3d</fix>
</trkpt>
<trkpt lat="-27.2749924" lon="151.2899378">
  <ele>373.87</ele>
  <time>2026-09-01T20:03:27Z</time>
  <course>256.81</course>
  <speed>25.736536285988446</speed>
  <fix>3d</fix>
</trkpt>
<trkpt lat="-27.274994" lon="151.2900184">
  <ele>373.77</ele>
  <time>2026-09-01T20:03:27Z</time>
  <course>271.31</course>
  <speed>25.73</speed>
  <fix>3d</fix>
</trkpt>
<trkpt lat="-27.2749869" lon="151.2899114">
  <ele>373.83</ele>
  <time>2026-09-01T20:03:27Z</time>
  <course>258.69</course>
  <speed>25.991044611558035</speed>
  <fix>3d</fix>
</trkpt>
<trkpt lat="-27.2749914" lon="151.2899663">
  <ele>373.78</ele>
  <time>2026-09-01T20:03:27Z</time>
  <course>275.3</course>
  <speed>26.0</speed>
  <fix>3d</fix>
</trkpt>
<trkpt lat="-27.2749848" lon="151.2898852">
  <ele>373.76</ele>
  <time>2026-09-01T20:03:27Z</time>
  <course>260.63</course>
  <speed>25.991044611558035</speed>
  <fix>3d</fix>
</trkpt>
<trkpt lat="-27.2749914" lon="151.2899663">
  <ele>373.78</ele>
  <time>2026-09-01T20:03:27Z</time>
  <course>275.3</course>
  <speed>26.0</speed>
  <fix>3d</fix>
</trkpt>
<trkpt lat="-27.2749776" lon="151.2898588">
  <ele>373.68</ele>
  <time>2026-09-01T20:03:27Z</time>
  <course>262.65</course>
  <speed>26.312236697019884</speed>
  <fix>3d</fix>
</trkpt>
<trkpt lat="-27.2749855" lon="151.2899139">
  <ele>373.75</ele>
  <time>2026-09-01T20:03:27Z</time>
  <course>279.26</course>
  <speed>26.32</speed>
  <fix>3d</fix>
</trkpt>
<trkpt lat="-27.2749737" lon="151.2898326">
  <ele>373.55</ele>
  <time>2026-09-01T20:03:27Z</time>
  <course>264.71</course>
  <speed>26.312236697019884</speed>
  <fix>3d</fix>
</trkpt>
<trkpt lat="-27.2749855" lon="151.2899139">
  <ele>373.75</ele>
  <time>2026-09-01T20:03:27Z</time>
  <course>279.26</course>
  <speed>26.32</speed>
  <fix>3d</fix>
</trkpt>
<trkpt lat="-27.2749647" lon="151.2898063">
  <ele>373.62</ele>
  <time>2026-09-01T20:03:27Z</time>
  <course>266.83</course>
  <speed>26.70083332032916</speed>
  <fix>3d</fix>
</trkpt>
<trkpt lat="-27.2749762" lon="151.2898614">
  <ele>373.69</ele>
  <time>2026-09-01T20:03:27Z</time>
  <course>283.24</course>
  <speed>26.7</speed>
  <fix>3d</fix>
</trkpt>
<trkpt lat="-27.2749592" lon="151.28978">
  <ele>373.43</ele>
  <time>2026-09-01T20:03:27Z</time>
  <course>268.97</course>
  <speed>26.70083332032916</speed>
  <fix>3d</fix>
</trkpt>
<trkpt lat="-27.2749762" lon="151.2898614">
  <ele>373.69</ele>
  <time>2026-09-01T20:03:27Z</time>
  <course>283.24</course>
  <speed>26.7</speed>
  <fix>3d</fix>
</trkpt>
<trkpt lat="-27.2749483" lon="151.2897539">
  <ele>373.33</ele>
  <time>2026-09-01T20:03:27Z</time>
  <course>271.24</course>
  <speed>27.15082687506957</speed>
  <fix>3d</fix>
</trkpt>
<trkpt lat="-27.2749634" lon="151.2898089">
  <ele>373.59</ele>
  <time>2026-09-01T20:03:27Z</time>
  <course>287.25</course>
  <speed>27.15</speed>
  <fix>3d</fix>
</trkpt>
<trkpt lat="-27.2749411" lon="151.289728">
  <ele>373.22</ele>
  <time>2026-09-01T20:03:27Z</time>
  <course>273.56</course>
  <speed>27.15082687506957</speed>
  <fix>3d</fix>
</trkpt>
<trkpt lat="-27.2749634" lon="151.2898089">
  <ele>373.59</ele>
  <time>2026-09-01T20:03:27Z</time>
  <course>287.25</course>
  <speed>27.15</speed>
  <fix>3d</fix>
</trkpt>
<trkpt lat="-27.2749282" lon="151.2897018">
  <ele>373.43</ele>
  <time>2026-09-01T20:03:27Z</time>
  <course>275.9</course>
  <speed>27.682624514304997</speed>
  <fix>3d</fix>
</trkpt>
<trkpt lat="-27.2749471" lon="151.2897565">
  <ele>373.46</ele>
  <time>2026-09-01T20:03:27Z</time>
  <course>291.31</course>
  <speed>27.68</speed>
  <fix>3d</fix>
</trkpt>
<trkpt lat="-27.2749191" lon="151.2896757">
  <ele>373.35</ele>
  <time>2026-09-01T20:03:27Z</time>
  <course>278.43</course>
  <speed>27.682624514304997</speed>
  <fix>3d</fix>
</trkpt>
<trkpt lat="-27.2749471" lon="151.2897565">
  <ele>373.46</ele>
  <time>2026-09-01T20:03:27Z</time>
  <course>291.31</course>
  <speed>27.68</speed>
  <fix>3d</fix>
</trkpt>
<trkpt lat="-27.2749043" lon="151.2896504">
  <ele>373.3</ele>
  <time>2026-09-01T20:03:27Z</time>
  <course>281.02</course>
  <speed>28.269426948560525</speed>
  <fix>3d</fix>
</trkpt>
<trkpt lat="-27.2749272" lon="151.2897045">
  <ele>373.31</ele>
  <time>2026-09-01T20:03:27Z</time>
  <course>295.43</course>
  <speed>28.27</speed>
  <fix>3d</fix>
</trkpt>
<trkpt lat="-27.2748934" lon="151.2896245">
  <ele>372.86</ele>
  <time>2026-09-01T20:03:27Z</time>
  <course>283.64</course>
  <speed>28.269426948560525</speed>
  <fix>3d</fix>
</trkpt>
<trkpt lat="-27.2749272" lon="151.2897045">
  <ele>373.31</ele>
  <time>2026-09-01T20:03:27Z</time>
  <course>295.43</course>
  <speed>28.27</speed>
  <fix>3d</fix>
</trkpt>
<trkpt lat="-27.2748764" lon="151.2896">
  <ele>373.02</ele>
  <time>2026-09-01T20:03:27Z</time>
  <course>286.37</course>
  <speed>28.918730954175704</speed>
  <fix>3d</fix>
</trkpt>
<trkpt lat="-27.2749034" lon="151.2896533">
  <ele>373.14</ele>
  <time>2026-09-01T20:03:27Z</time>
  <course>299.66</course>
  <speed>28.92</speed>
  <fix>3d</fix>
</trkpt>
<trkpt lat="-27.2748636" lon="151.2895746">
  <ele>372.85</ele>
  <time>2026-09-01T20:03:27Z</time>
  <course>289.24</course>
  <speed>28.918730954175704</speed>
  <fix>3d</fix>
</trkpt>
<trkpt lat="-27.2749034" lon="151.2896533">
  <ele>373.14</ele>
  <time>2026-09-01T20:03:27Z</time>
  <course>299.66</course>
  <speed>28.92</speed>
  <fix>3d</fix>
</trkpt>
<trkpt lat="-27.2748443" lon="151.2895511">
  <ele>372.94</ele>
  <time>2026-09-01T20:03:27Z</time>
  <course>292.2</course>
  <speed>29.613324703585718</speed>
  <fix>3d</fix>
</trkpt>
<trkpt lat="-27.2748756" lon="151.2896031">
  <ele>372.96</ele>
  <time>2026-09-01T20:03:27Z</time>
  <course>304.07</course>
  <speed>29.61</speed>
  <fix>3d</fix>
</trkpt>
<trkpt lat="-27.2748294" lon="151.2895263">
  <ele>372.65</ele>
  <time>2026-09-01T20:03:27Z</time>
  <course>295.26</course>
  <speed>29.613324703585718</speed>
  <fix>3d</fix>
</trkpt>
<trkpt lat="-27.2748756" lon="151.2896031">
  <ele>372.96</ele>
  <time>2026-09-01T20:03:27Z</time>
  <course>304.07</course>
  <speed>29.61</speed>
  <fix>3d</fix>
</trkpt>
<trkpt lat="-27.274808" lon="151.289504">
  <ele>372.55</ele>
  <time>2026-09-01T20:03:27Z</time>
  <course>298.55</course>
  <speed>30.350808885431704</speed>
  <fix>3d</fix>
</trkpt>
<trkpt lat="-27.2748437" lon="151.2895543">
  <ele>372.79</ele>
  <time>2026-09-01T20:03:27Z</time>
  <course>308.65</course>
  <speed>30.36</speed>
  <fix>3d</fix>
</trkpt>
<trkpt lat="-27.2747909" lon="151.2894801">
  <ele>372.38</ele>
  <time>2026-09-01T20:03:27Z</time>
  <course>301.95</course>
  <speed>30.350808885431704</speed>
  <fix>3d</fix>
</trkpt>
<trkpt lat="-27.2748437" lon="151.2895543">
  <ele>372.79</ele>
  <time>2026-09-01T20:03:27Z</time>
  <course>308.65</course>
  <speed>30.36</speed>
  <fix>3d</fix>
</trkpt>
<trkpt lat="-27.274767" lon="151.2894596">
  <ele>372.38</ele>
  <time>2026-09-01T20:03:27Z</time>
  <course>305.38</course>
  <speed>31.13727669530526</speed>
  <fix>3d</fix>
</trkpt>
<trkpt lat="-27.2748074" lon="151.2895075">
  <ele>372.63</ele>
  <time>2026-09-01T20:03:27Z</time>
  <course>313.52</course>
  <speed>31.14</speed>
  <fix>3d</fix>
</trkpt>
<trkpt lat="-27.2747477" lon="151.2894368">
  <ele>372.44</ele>
  <time>2026-09-01T20:03:27Z</time>
  <course>308.86</course>
  <speed>31.13727669530526</speed>
  <fix>3d</fix>
</trkpt>
<trkpt lat="-27.2748074" lon="151.2895075">
  <ele>372.63</ele>
  <time>2026-09-01T20:03:27Z</time>
  <course>313.52</course>
  <speed>31.14</speed>
  <fix>3d</fix>
</trkpt>
<trkpt lat="-27.2747214" lon="151.2894186">
  <ele>372.39</ele>
  <time>2026-09-01T20:03:27Z</time>
  <course>312.48</course>
  <speed>31.94226353907938</speed>
  <fix>3d</fix>
</trkpt>
<trkpt lat="-27.2747666" lon="151.2894633">
  <ele>372.49</ele>
  <time>2026-09-01T20:03:27Z</time>
  <course>318.68</course>
  <speed>31.94</speed>
  <fix>3d</fix>
</trkpt>
<trkpt lat="-27.2746998" lon="151.2893973">
  <ele>372.26</ele>
  <time>2026-09-01T20:03:27Z</time>
  <course>316.28</course>
  <speed>31.94226353907938</speed>
  <fix>3d</fix>
</trkpt>
<trkpt lat="-27.2747666" lon="151.2894633">
  <ele>372.49</ele>
  <time>2026-09-01T20:03:27Z</time>
  <course>318.68</course>
  <speed>31.94</speed>
  <fix>3d</fix>
</trkpt>
<trkpt lat="-27.2746712" lon="151.2893818">
  <ele>372.48</ele>
  <time>2026-09-01T20:03:27Z</time>
  <course>320.24</course>
  <speed>32.73255413193416</speed>
  <fix>3d</fix>
</trkpt>
<trkpt lat="-27.2747212" lon="151.2894225">
  <ele>372.4</ele>
  <time>2026-09-01T20:03:27Z</time>
  <course>324.08</course>
  <speed>32.74</speed>
  <fix>3d</fix>
</trkpt>
<trkpt lat="-27.2746474" lon="151.2893624">
  <ele>372.2</ele>
  <time>2026-09-01T20:03:27Z</time>
  <course>324.27</course>
  <speed>32.73255413193416</speed>
  <fix>3d</fix>
</trkpt>
<trkpt lat="-27.2747212" lon="151.2894225">
  <ele>372.4</ele>
  <time>2026-09-01T20:03:27Z</time>
  <course>324.08</course>
  <speed>32.74</speed>
  <fix>3d</fix>
</trkpt>
<trkpt lat="-27.2746165" lon="151.2893501">
  <ele>372.49</ele>
  <time>2026-09-01T20:03:27Z</time>
  <course>328.44</course>
  <speed>33.484391886369984</speed>
  <fix>3d</fix>
</trkpt>
<trkpt lat="-27.2746713" lon="151.289386">
  <ele>372.34</ele>
  <time>2026-09-01T20:03:27Z</time>
  <course>329.76</course>
  <speed>33.49</speed>
  <fix>3d</fix>
</trkpt>
<trkpt lat="-27.2745905" lon="151.289333">
  <ele>372.33</ele>
  <time>2026-09-01T20:03:27Z</time>
  <course>332.69</course>
  <speed>33.484391886369984</speed>
  <fix>3d</fix>
</trkpt>
<trkpt lat="-27.2746713" lon="151.289386">
  <ele>372.34</ele>
  <time>2026-09-01T20:03:27Z</time>
  <course>329.76</course>
  <speed>33.49</speed>
  <fix>3d</fix>
</trkpt>
<trkpt lat="-27.2745586" lon="151.2893251">
  <ele>372.47</ele>
  <time>2026-09-01T20:03:27Z</time>
  <course>337.15</course>
  <speed>34.172891302902656</speed>
  <fix>3d</fix>
</trkpt>
<trkpt lat="-27.2746173" lon="151.2893548">
  <ele>372.34</ele>
  <time>2026-09-01T20:03:27Z</time>
  <course>335.76</course>
  <speed>34.18</speed>
  <fix>3d</fix>
</trkpt>
<trkpt lat="-27.2745306" lon="151.2893109">
  <ele>372.54</ele>
  <time>2026-09-01T20:03:27Z</time>
  <course>341.77</course>
  <speed>34.172891302902656</speed>
  <fix>3d</fix>
</trkpt>
<trkpt lat="-27.2746173" lon="151.2893548">
  <ele>372.34</ele>
  <time>2026-09-01T20:03:27Z</time>
  <course>335.76</course>
  <speed>34.18</speed>
  <fix>3d</fix>
</trkpt>
<trkpt lat="-27.2744975" lon="151.2893072">
  <ele>372.45</ele>
  <time>2026-09-01T20:03:27Z</time>
  <course>346.35</course>
  <speed>34.76438551161231</speed>
  <fix>3d</fix>
</trkpt>
<trkpt lat="-27.2745596" lon="151.2893297">
  <ele>372.4</ele>
  <time>2026-09-01T20:03:27Z</time>
  <course>342.09</course>
  <speed>34.77</speed>
  <fix>3d</fix>
</trkpt>
<trkpt lat="-27.2744678" lon="151.2892964">
  <ele>372.48</ele>
  <time>2026-09-01T20:03:27Z</time>
  <course>350.94</course>
  <speed>34.76438551161231</speed>
  <fix>3d</fix>
</trkpt>
<trkpt lat="-27.2745596" lon="151.2893297">
  <ele>372.4</ele>
  <time>2026-09-01T20:03:27Z</time>
  <course>342.09</course>
  <speed>34.77</speed>
  <fix>3d</fix>
</trkpt>
<trkpt lat="-27.2744336" lon="151.2892972">
  <ele>372.82</ele>
  <time>2026-09-01T20:03:27Z</time>
  <course>355.51</course>
  <speed>35.228353637375676</speed>
  <fix>3d</fix>
</trkpt>
<trkpt lat="-27.2744987" lon="151.2893118">
  <ele>372.53</ele>
  <time>2026-09-01T20:03:27Z</time>
  <course>348.73</course>
  <speed>35.23</speed>
  <fix>3d</fix>
</trkpt>
<trkpt lat="-27.2744025" lon="151.2892903">
  <ele>373.01</ele>
  <time>2026-09-01T20:03:27Z</time>
  <course>0.13</course>
  <speed>35.228353637375676</speed>
  <fix>3d</fix>
</trkpt>
<trkpt lat="-27.2744987" lon="151.2893118">
  <ele>372.53</ele>
  <time>2026-09-01T20:03:27Z</time>
  <course>348.73</course>
  <speed>35.23</speed>
  <fix>3d</fix>
</trkpt>
<trkpt lat="-27.2743689" lon="151.2892961">
  <ele>373.07</ele>
  <time>2026-09-01T20:03:27Z</time>
  <course>4.84</course>
  <speed>35.50899041088046</speed>
  <fix>3d</fix>
</trkpt>
<trkpt lat="-27.2744356" lon="151.289302">
  <ele>372.74</ele>
  <time>2026-09-01T20:03:27Z</time>
  <course>355.5</course>
  <speed>35.51</speed>
  <fix>3d</fix>
</trkpt>
<trkpt lat="-27.2743371" lon="151.2892933">
  <ele>373.28</ele>
  <time>2026-09-01T20:03:27Z</time>
  <course>9.47</course>
  <speed>35.50899041088046</speed>
  <fix>3d</fix>
</trkpt>
<trkpt lat="-27.2744356" lon="151.289302">
  <ele>372.74</ele>
  <time>2026-09-01T20:03:27Z</time>
  <course>355.5</course>
  <speed>35.51</speed>
  <fix>3d</fix>
</trkpt>
<trkpt lat="-27.2743048" lon="151.2893037">
  <ele>373.47</ele>
  <time>2026-09-01T20:03:27Z</time>
  <course>14.01</course>
  <speed>35.58874119718201</speed>
  <fix>3d</fix>
</trkpt>
<trkpt lat="-27.2743718" lon="151.2893007">
  <ele>373.03</ele>
  <time>2026-09-01T20:03:27Z</time>
  <course>2.31</course>
  <speed>35.59</speed>
  <fix>3d</fix>
</trkpt>
<trkpt lat="-27.2742728" lon="151.2893052">
  <ele>373.42</ele>
  <time>2026-09-01T20:03:27Z</time>
  <course>18.43</course>
  <speed>35.58874119718201</speed>
  <fix>3d</fix>
</trkpt>
<trkpt lat="-27.2743718" lon="151.2893007">
  <ele>373.03</ele>
  <time>2026-09-01T20:03:27Z</time>
  <course>2.31</course>
  <speed>35.59</speed>
  <fix>3d</fix>
</trkpt>
<trkpt lat="-27.2742423" lon="151.2893196">
  <ele>373.62</ele>
  <time>2026-09-01T20:03:27Z</time>
  <course>22.88</course>
  <speed>35.45346527492059</speed>
  <fix>3d</fix>
</trkpt>
<trkpt lat="-27.2743083" lon="151.2893078">
  <ele>373.38</ele>
  <time>2026-09-01T20:03:27Z</time>
  <course>9.07</course>
  <speed>35.45</speed>
  <fix>3d</fix>
</trkpt>
<trkpt lat="-27.2742108" lon="151.2893253">
  <ele>373.99</ele>
  <time>2026-09-01T20:03:27Z</time>
  <course>27.25</course>
  <speed>35.45346527492059</speed>
  <fix>3d</fix>
</trkpt>
<trkpt lat="-27.2743083" lon="151.2893078">
  <ele>373.38</ele>
  <time>2026-09-01T20:03:27Z</time>
  <course>9.07</course>
  <speed>35.45</speed>
  <fix>3d</fix>
</trkpt>
<trkpt lat="-27.2741826" lon="151.2893432">
  <ele>374.04</ele>
  <time>2026-09-01T20:03:27Z</time>
  <course>31.61</course>
  <speed>35.13316524311466</speed>
  <fix>3d</fix>
</trkpt>
<trkpt lat="-27.2742464" lon="151.2893231">
  <ele>373.79</ele>
  <time>2026-09-01T20:03:27Z</time>
  <course>15.66</course>
  <speed>35.14</speed>
  <fix>3d</fix>
</trkpt>
<trkpt lat="-27.2741522" lon="151.2893528">
  <ele>374.5</ele>
  <time>2026-09-01T20:03:27Z</time>
  <course>35.93</course>
  <speed>35.13316524311466</speed>
  <fix>3d</fix>
</trkpt>
<trkpt lat="-27.2742464" lon="151.2893231">
  <ele>373.79</ele>
  <time>2026-09-01T20:03:27Z</time>
  <course>15.66</course>
  <speed>35.14</speed>
  <fix>3d</fix>
</trkpt>
<trkpt lat="-27.2741266" lon="151.2893736">
  <ele>374.82</ele>
  <time>2026-09-01T20:03:27Z</time>
  <course>40.16</course>
  <speed>34.660562603627774</speed>
  <fix>3d</fix>
</trkpt>
<trkpt lat="-27.2741871" lon="151.2893459">
  <ele>374.24</ele>
  <time>2026-09-01T20:03:27Z</time>
  <course>22.12</course>
  <speed>34.66</speed>
  <fix>3d</fix>
</trkpt>
<trkpt lat="-27.2740977" lon="151.2893868">
  <ele>375.06</ele>
  <time>2026-09-01T20:03:27Z</time>
  <course>44.29</course>
  <speed>34.660562603627774</speed>
  <fix>3d</fix>
</trkpt>
<trkpt lat="-27.2741871" lon="151.2893459">
  <ele>374.24</ele>
  <time>2026-09-01T20:03:27Z</time>
  <course>22.12</course>
  <speed>34.66</speed>
  <fix>3d</fix>
</trkpt>
<trkpt lat="-27.274075" lon="151.28941">
  <ele>375.06</ele>
  <time>2026-09-01T20:03:27Z</time>
  <course>48.25</course>
  <speed>34.02493938275276</speed>
  <fix>3d</fix>
</trkpt>
<trkpt lat="-27.2741314" lon="151.2893756">
  <ele>374.72</ele>
  <time>2026-09-01T20:03:27Z</time>
  <course>28.47</course>
  <speed>34.03</speed>
  <fix>3d</fix>
</trkpt>
<trkpt lat="-27.2740481" lon="151.2894264">
  <ele>375.29</ele>
  <time>2026-09-01T20:03:27Z</time>
  <course>52.11</course>
  <speed>34.02493938275276</speed>
  <fix>3d</fix>
</trkpt>
<trkpt lat="-27.2741314" lon="151.2893756">
  <ele>374.72</ele>
  <time>2026-09-01T20:03:27Z</time>
  <course>28.47</course>
  <speed>34.03</speed>
  <fix>3d</fix>
</trkpt>
<trkpt lat="-27.2740282" lon="151.2894513">
  <ele>375.84</ele>
  <time>2026-09-01T20:03:27Z</time>
  <course>55.92</course>
  <speed>33.275403829255026</speed>
  <fix>3d</fix>
</trkpt>
<trkpt lat="-27.2740798" lon="151.2894112">
  <ele>375.22</ele>
  <time>2026-09-01T20:03:27Z</time>
  <course>34.63</course>
  <speed>33.27</speed>
  <fix>3d</fix>
</trkpt>
<trkpt lat="-27.2740036" lon="151.2894704">
  <ele>376.05</ele>
  <time>2026-09-01T20:03:27Z</time>
  <course>59.64</course>
  <speed>33.275403829255026</speed>
  <fix>3d</fix>
</trkpt>
<trkpt lat="-27.2740798" lon="151.2894112">
  <ele>375.22</ele>
  <time>2026-09-01T20:03:27Z</time>
  <course>34.63</course>
  <speed>33.27</speed>
  <fix>3d</fix>
</trkpt>
<trkpt lat="-27.2739867" lon="151.2894963">
  <ele>376.17</ele>
  <time>2026-09-01T20:03:27Z</time>
  <course>63.24</course>
  <speed>32.42027914747188</speed>
  <fix>3d</fix>
</trkpt>
<trkpt lat="-27.2740331" lon="151.2894516">
  <ele>375.71</ele>
  <time>2026-09-01T20:03:27Z</time>
  <course>40.52</course>
  <speed>32.42</speed>
  <fix>3d</fix>
</trkpt>
<trkpt lat="-27.2739645" lon="151.2895176">
  <ele>376.35</ele>
  <time>2026-09-01T20:03:27Z</time>
  <course>66.73</course>
  <speed>32.42027914747188</speed>
  <fix>3d</fix>
</trkpt>
<trkpt lat="-27.2740331" lon="151.2894516">
  <ele>375.71</ele>
  <time>2026-09-01T20:03:27Z</time>
  <course>40.52</course>
  <speed>32.42</speed>
  <fix>3d</fix>
</trkpt>
<trkpt lat="-27.2739503" lon="151.2895442">
  <ele>376.77</ele>
  <time>2026-09-01T20:03:27Z</time>
  <course>70.1</course>
  <speed>31.51568815685293</speed>
  <fix>3d</fix>
</trkpt>
<trkpt lat="-27.2739914" lon="151.289496">
  <ele>376.18</ele>
  <time>2026-09-01T20:03:27Z</time>
  <course>46.2</course>
  <speed>31.52</speed>
  <fix>3d</fix>
</trkpt>
<trkpt lat="-27.2739307" lon="151.2895672">
  <ele>376.84</ele>
  <time>2026-09-01T20:03:27Z</time>
  <course>73.33</course>
  <speed>31.51568815685293</speed>
  <fix>3d</fix>
</trkpt>
<trkpt lat="-27.2739914" lon="151.289496">
  <ele>376.18</ele>
  <time>2026-09-01T20:03:27Z</time>
  <course>46.2</course>
  <speed>31.52</speed>
  <fix>3d</fix>
</trkpt>
<trkpt lat="-27.2739191" lon="151.2895942">
  <ele>376.85</ele>
  <time>2026-09-01T20:03:27Z</time>
  <course>76.41</course>
  <speed>30.5559061394029</speed>
  <fix>3d</fix>
</trkpt>
<trkpt lat="-27.2739548" lon="151.2895434">
  <ele>376.61</ele>
  <time>2026-09-01T20:03:27Z</time>
  <course>51.66</course>
  <speed>30.56</speed>
  <fix>3d</fix>
</trkpt>
<trkpt lat="-27.2739021" lon="151.2896185">
  <ele>377.23</ele>
  <time>2026-09-01T20:03:27Z</time>
  <course>79.33</course>
  <speed>30.5559061394029</speed>
  <fix>3d</fix>
</trkpt>
<trkpt lat="-27.2739548" lon="151.2895434">
  <ele>376.61</ele>
  <time>2026-09-01T20:03:27Z</time>
  <course>51.66</course>
  <speed>30.56</speed>
  <fix>3d</fix>
</trkpt>
<trkpt lat="-27.2738927" lon="151.2896453">
  <ele>377.16</ele>
  <time>2026-09-01T20:03:27Z</time>
  <course>82.13</course>
  <speed>29.566597707548294</speed>
  <fix>3d</fix>
</trkpt>
<trkpt lat="-27.2739232" lon="151.2895928">
  <ele>376.99</ele>
  <time>2026-09-01T20:03:27Z</time>
  <course>56.8</course>
  <speed>29.57</speed>
  <fix>3d</fix>
</trkpt>
<trkpt lat="-27.2738782" lon="151.2896703">
  <ele>377.59</ele>
  <time>2026-09-01T20:03:27Z</time>
  <course>84.62</course>
  <speed>29.566597707548294</speed>
  <fix>3d</fix>
</trkpt>
<trkpt lat="-27.2739232" lon="151.2895928">
  <ele>376.99</ele>
  <time>2026-09-01T20:03:27Z</time>
  <course>56.8</course>
  <speed>29.57</speed>
  <fix>3d</fix>
</trkpt>
<trkpt lat="-27.2738707" lon="151.2896966">
  <ele>377.62</ele>
  <time>2026-09-01T20:03:27Z</time>
  <course>86.96</course>
  <speed>28.575543739358665</speed>
  <fix>3d</fix>
</trkpt>
<trkpt lat="-27.2738964" lon="151.2896433">
  <ele>377.31</ele>
  <time>2026-09-01T20:03:27Z</time>
  <course>61.49</course>
  <speed>28.58</speed>
  <fix>3d</fix>
</trkpt>
<trkpt lat="-27.2738585" lon="151.2897219">
  <ele>377.43</ele>
  <time>2026-09-01T20:03:27Z</time>
  <course>89.14</course>
  <speed>28.575543739358665</speed>
  <fix>3d</fix>
</trkpt>
<trkpt lat="-27.2738964" lon="151.2896433">
  <ele>377.31</ele>
  <time>2026-09-01T20:03:27Z</time>
  <course>61.49</course>
  <speed>28.58</speed>
  <fix>3d</fix>
</trkpt>
<trkpt lat="-27.2738526" lon="151.2897475">
  <ele>377.76</ele>
  <time>2026-09-01T20:03:27Z</time>
  <course>91.08</course>
  <speed>27.618939154138417</speed>
  <fix>3d</fix>
</trkpt>
<trkpt lat="-27.273874" lon="151.2896941">
  <ele>377.55</ele>
  <time>2026-09-01T20:03:27Z</time>
  <course>65.68</course>
  <speed>27.62</speed>
  <fix>3d</fix>
</trkpt>
<trkpt lat="-27.2738424" lon="151.2897729">
  <ele>377.57</ele>
  <time>2026-09-01T20:03:27Z</time>
  <course>92.91</course>
  <speed>27.618939154138417</speed>
  <fix>3d</fix>
</trkpt>
<trkpt lat="-27.273874" lon="151.2896941">
  <ele>377.55</ele>
  <time>2026-09-01T20:03:27Z</time>
  <course>65.68</course>
  <speed>27.62</speed>
  <fix>3d</fix>
</trkpt>
<trkpt lat="-27.2738376" lon="151.2897978">
  <ele>377.88</ele>
  <time>2026-09-01T20:03:27Z</time>
  <course>94.64</course>
  <speed>26.722904033805907</speed>
  <fix>3d</fix>
</trkpt>
<trkpt lat="-27.2738554" lon="151.2897448">
  <ele>377.69</ele>
  <time>2026-09-01T20:03:27Z</time>
  <course>69.31</course>
  <speed>26.72</speed>
  <fix>3d</fix>
</trkpt>
<trkpt lat="-27.2738292" lon="151.2898231">
  <ele>377.54</ele>
  <time>2026-09-01T20:03:27Z</time>
  <course>96.24</course>
  <speed>26.722904033805907</speed>
  <fix>3d</fix>
</trkpt>
<trkpt lat="-27.2738554" lon="151.2897448">
  <ele>377.69</ele>
  <time>2026-09-01T20:03:27Z</time>
  <course>69.31</course>
  <speed>26.72</speed>
  <fix>3d</fix>
</trkpt>
<trkpt lat="-27.2738253" lon="151.2898474">
  <ele>377.66</ele>
  <time>2026-09-01T20:03:27Z</time>
  <course>97.78</course>
  <speed>25.892780847178233</speed>
  <fix>3d</fix>
</trkpt>
<trkpt lat="-27.27384" lon="151.289795">
  <ele>377.7</ele>
  <time>2026-09-01T20:03:27Z</time>
  <course>72.45</course>
  <speed>25.89</speed>
  <fix>3d</fix>
</trkpt>
<trkpt lat="-27.2738183" lon="151.2898723">
  <ele>377.66</ele>
  <time>2026-09-01T20:03:27Z</time>
  <course>99.32</course>
  <speed>25.892780847178233</speed>
  <fix>3d</fix>
</trkpt>
<trkpt lat="-27.27384" lon="151.289795">
  <ele>377.7</ele>
  <time>2026-09-01T20:03:27Z</time>
  <course>72.45</course>
  <speed>25.89</speed>
  <fix>3d</fix>
</trkpt>
<trkpt lat="-27.2738152" lon="151.289896">
  <ele>377.47</ele>
  <time>2026-09-01T20:03:27Z</time>
  <course>100.92</course>
  <speed>25.12612385546167</speed>
  <fix>3d</fix>
</trkpt>
<trkpt lat="-27.2738272" lon="151.2898445">
  <ele>377.58</ele>
  <time>2026-09-01T20:03:27Z</time>
  <course>75.24</course>
  <speed>25.12</speed>
  <fix>3d</fix>
</trkpt>
<trkpt lat="-27.2738094" lon="151.2899206">
  <ele>377.07</ele>
  <time>2026-09-01T20:03:27Z</time>
  <course>102.51</course>
  <speed>25.12612385546167</speed>
  <fix>3d</fix>
</trkpt>
<trkpt lat="-27.2738272" lon="151.2898445">
  <ele>377.58</ele>
  <time>2026-09-01T20:03:27Z</time>
  <course>75.24</course>
  <speed>25.12</speed>
  <fix>3d</fix>
</trkpt>
<trkpt lat="-27.2738073" lon="151.2899438">
  <ele>376.8</ele>
  <time>2026-09-01T20:03:27Z</time>
  <course>104.07</course>
  <speed>24.391281229160555</speed>
  <fix>3d</fix>
</trkpt>
<trkpt lat="-27.2738169" lon="151.2898932">
  <ele>377.32</ele>
  <time>2026-09-01T20:03:27Z</time>
  <course>77.9</course>
  <speed>24.39</speed>
  <fix>3d</fix>
</trkpt>
<trkpt lat="-27.2738027" lon="151.2899679">
  <ele>376.74</ele>
  <time>2026-09-01T20:03:27Z</time>
  <course>105.66</course>
  <speed>24.391281229160555</speed>
  <fix>3d</fix>
</trkpt>
<trkpt lat="-27.2738169" lon="151.2898932">
  <ele>377.32</ele>
  <time>2026-09-01T20:03:27Z</time>
  <course>77.9</course>
  <speed>24.39</speed>
  <fix>3d</fix>
</trkpt>
<trkpt lat="-27.2738016" lon="151.2899903">
  <ele>376.59</ele>
  <time>2026-09-01T20:03:27Z</time>
  <course>107.32</course>
  <speed>23.67351262487255</speed>
  <fix>3d</fix>
</trkpt>
<trkpt lat="-27.2738088" lon="151.2899408">
  <ele>376.93</ele>
  <time>2026-09-01T20:03:27Z</time>
  <course>80.65</course>
  <speed>23.67</speed>
  <fix>3d</fix>
</trkpt>
<trkpt lat="-27.2737981" lon="151.290014">
  <ele>376.08</ele>
  <time>2026-09-01T20:03:27Z</time>
  <course>109.1</course>
  <speed>23.67351262487255</speed>
  <fix>3d</fix>
</trkpt>
<trkpt lat="-27.2738088" lon="151.2899408">
  <ele>376.93</ele>
  <time>2026-09-01T20:03:27Z</time>
  <course>80.65</course>
  <speed>23.67</speed>
  <fix>3d</fix>
</trkpt>
<trkpt lat="-27.2737984" lon="151.290036">
  <ele>375.75</ele>
  <time>2026-09-01T20:03:27Z</time>
  <course>110.96</course>
  <speed>22.9808006823087</speed>
  <fix>3d</fix>
</trkpt>
<trkpt lat="-27.2738031" lon="151.2899876">
  <ele>376.41</ele>
  <time>2026-09-01T20:03:27Z</time>
  <course>83.65</course>
  <speed>22.98</speed>
  <fix>3d</fix>
</trkpt>
<trkpt lat="-27.2737961" lon="151.2900591">
  <ele>375.6</ele>
  <time>2026-09-01T20:03:27Z</time>
  <course>112.85</course>
  <speed>22.9808006823087</speed>
  <fix>3d</fix>
</trkpt>
<trkpt lat="-27.2738031" lon="151.2899876">
  <ele>376.41</ele>
  <time>2026-09-01T20:03:27Z</time>
  <course>83.65</course>
  <speed>22.98</speed>
  <fix>3d</fix>
</trkpt>
<trkpt lat="-27.2737977" lon="151.2900805">
  <ele>375.03</ele>
  <time>2026-09-01T20:03:27Z</time>
  <course>114.77</course>
  <speed>22.29915917697347</speed>
  <fix>3d</fix>
</trkpt>
<trkpt lat="-27.2737998" lon="151.2900333">
  <ele>375.8</ele>
  <time>2026-09-01T20:03:27Z</time>
  <course>87.05</course>
  <speed>22.3</speed>
  <fix>3d</fix>
</trkpt>
<trkpt lat="-27.2737967" lon="151.290103">
  <ele>374.92</ele>
  <time>2026-09-01T20:03:27Z</time>
  <course>116.8</course>
  <speed>22.29915917697347</speed>
  <fix>3d</fix>
</trkpt>
<trkpt lat="-27.2737998" lon="151.2900333">
  <ele>375.8</ele>
  <time>2026-09-01T20:03:27Z</time>
  <course>87.05</course>
  <speed>22.3</speed>
  <fix>3d</fix>
</trkpt>
<trkpt lat="-27.2737997" lon="151.2901236">
  <ele>374.41</ele>
  <time>2026-09-01T20:03:27Z</time>
  <course>118.89</course>
  <speed>21.632672049471836</speed>
  <fix>3d</fix>
</trkpt>
<trkpt lat="-27.2737991" lon="151.2900777">
  <ele>375.11</ele>
  <time>2026-09-01T20:03:27Z</time>
  <course>90.92</course>
  <speed>21.63</speed>
  <fix>3d</fix>
</trkpt>
<trkpt lat="-27.2738" lon="151.2901454">
  <ele>374.09</ele>
  <time>2026-09-01T20:03:27Z</time>
  <course>121.08</course>
  <speed>21.632672049471836</speed>
  <fix>3d</fix>
</trkpt>
<trkpt lat="-27.2737991" lon="151.2900777">
  <ele>375.11</ele>
  <time>2026-09-01T20:03:27Z</time>
  <course>90.92</course>
  <speed>21.63</speed>
  <fix>3d</fix>
</trkpt>
<trkpt lat="-27.2738046" lon="151.2901659">
  <ele>373.49</ele>
  <time>2026-09-01T20:03:27Z</time>
  <course>123.42</course>
  <speed>20.988006098722195</speed>
  <fix>3d</fix>
</trkpt>
<trkpt lat="-27.273801" lon="151.2901207">
  <ele>374.38</ele>
  <time>2026-09-01T20:03:27Z</time>
  <course>95.25</course>
  <speed>20.99</speed>
  <fix>3d</fix>
</trkpt>
<trkpt lat="-27.2738064" lon="151.290187">
  <ele>373.14</ele>
  <time>2026-09-01T20:03:27Z</time>
  <course>125.7</course>
  <speed>20.988006098722195</speed>
  <fix>3d</fix>
</trkpt>
<trkpt lat="-27.273801" lon="151.2901207">
  <ele>374.38</ele>
  <time>2026-09-01T20:03:27Z</time>
  <course>95.25</course>
  <speed>20.99</speed>
  <fix>3d</fix>
</trkpt>
<trkpt lat="-27.2738127" lon="151.2902054">
  <ele>372.95</ele>
  <time>2026-09-01T20:03:27Z</time>
  <course>127.97</course>
  <speed>20.35725914753752</speed>
  <fix>3d</fix>
</trkpt>
<trkpt lat="-27.2738059" lon="151.2901621">
  <ele>373.63</ele>
  <time>2026-09-01T20:03:27Z</time>
  <course>100.14</course>
  <speed>20.36</speed>
  <fix>3d</fix>
</trkpt>
<trkpt lat="-27.273816" lon="151.2902257">
  <ele>372.76</ele>
  <time>2026-09-01T20:03:27Z</time>
  <course>130.28</course>
  <speed>20.35725914753752</speed>
  <fix>3d</fix>
</trkpt>
<trkpt lat="-27.2738059" lon="151.2901621">
  <ele>373.63</ele>
  <time>2026-09-01T20:03:27Z</time>
  <course>100.14</course>
  <speed>20.36</speed>
  <fix>3d</fix>
</trkpt>
<trkpt lat="-27.273824" lon="151.2902427">
  <ele>372.44</ele>
  <time>2026-09-01T20:03:27Z</time>
  <course>132.58</course>
  <speed>19.761217067782034</speed>
  <fix>3d</fix>
</trkpt>
<trkpt lat="-27.2738139" lon="151.2902016">
  <ele>372.9</ele>
  <time>2026-09-01T20:03:27Z</time>
  <course>105.53</course>
  <speed>19.77</speed>
  <fix>3d</fix>
</trkpt>
<trkpt lat="-27.2738288" lon="151.290262">
  <ele>371.88</ele>
  <time>2026-09-01T20:03:27Z</time>
  <course>134.95</course>
  <speed>19.761217067782034</speed>
  <fix>3d</fix>
</trkpt>
<trkpt lat="-27.2738139" lon="151.2902016">
  <ele>372.9</ele>
  <time>2026-09-01T20:03:27Z</time>
  <course>105.53</course>
  <speed>19.77</speed>
  <fix>3d</fix>
</trkpt>
<trkpt lat="-27.273838" lon="151.2902769">
  <ele>371.49</ele>
  <time>2026-09-01T20:03:27Z</time>
  <course>137.12</course>
  <speed>19.214830210022672</speed>
  <fix>3d</fix>
</trkpt>
<trkpt lat="-27.2738249" lon="151.2902389">
  <ele>372.22</ele>
  <time>2026-09-01T20:03:27Z</time>
  <course>111.24</course>
  <speed>19.22</speed>
  <fix>3d</fix>
</trkpt>
<trkpt lat="-27.2738443" lon="151.290295">
  <ele>371.2</ele>
  <time>2026-09-01T20:03:27Z</time>
  <course>139.2</course>
  <speed>19.214830210022672</speed>
  <fix>3d</fix>
</trkpt>
<trkpt lat="-27.2738249" lon="151.2902389">
  <ele>372.22</ele>
  <time>2026-09-01T20:03:27Z</time>
  <course>111.24</course>
  <speed>19.22</speed>
  <fix>3d</fix>
</trkpt>
<trkpt lat="-27.2738549" lon="151.2903092">
  <ele>371.04</ele>
  <time>2026-09-01T20:03:27Z</time>
  <course>141.32</course>
  <speed>18.725645516243226</speed>
  <fix>3d</fix>
</trkpt>
<trkpt lat="-27.2738389" lon="151.2902739">
  <ele>371.6</ele>
  <time>2026-09-01T20:03:27Z</time>
  <course>117.09</course>
  <speed>18.73</speed>
  <fix>3d</fix>
</trkpt>
<trkpt lat="-27.2738626" lon="151.2903261">
  <ele>371.01</ele>
  <time>2026-09-01T20:03:27Z</time>
  <course>143.29</course>
  <speed>18.725645516243226</speed>
  <fix>3d</fix>
</trkpt>
<trkpt lat="-27.2738389" lon="151.2902739">
  <ele>371.6</ele>
  <time>2026-09-01T20:03:27Z</time>
  <course>117.09</course>
  <speed>18.73</speed>
  <fix>3d</fix>
</trkpt>
<trkpt lat="-27.2738742" lon="151.2903389">
  <ele>370.52</ele>
  <time>2026-09-01T20:03:27Z</time>
  <course>145.08</course>
  <speed>18.315485251556947</speed>
  <fix>3d</fix>
</trkpt>
<trkpt lat="-27.2738555" lon="151.2903063">
  <ele>371.05</ele>
  <time>2026-09-01T20:03:27Z</time>
  <course>122.82</course>
  <speed>18.31</speed>
  <fix>3d</fix>
</trkpt>
<trkpt lat="-27.2738831" lon="151.2903545">
  <ele>370.37</ele>
  <time>2026-09-01T20:03:27Z</time>
  <course>146.79</course>
  <speed>18.315485251556947</speed>
  <fix>3d</fix>
</trkpt>
<trkpt lat="-27.2738555" lon="151.2903063">
  <ele>371.05</ele>
  <time>2026-09-01T20:03:27Z</time>
  <course>122.82</course>
  <speed>18.31</speed>
  <fix>3d</fix>
</trkpt>
<trkpt lat="-27.2738954" lon="151.290366">
  <ele>370.25</ele>
  <time>2026-09-01T20:03:27Z</time>
  <course>148.47</course>
  <speed>17.98085926756561</speed>
  <fix>3d</fix>
</trkpt>
<trkpt lat="-27.2738745" lon="151.2903361">
  <ele>370.58</ele>
  <time>2026-09-01T20:03:27Z</time>
  <course>128.22</course>
  <speed>17.98</speed>
  <fix>3d</fix>
</trkpt>
<trkpt lat="-27.2739054" lon="151.2903803">
  <ele>370.07</ele>
  <time>2026-09-01T20:03:27Z</time>
  <course>149.97</course>
  <speed>17.98085926756561</speed>
  <fix>3d</fix>
</trkpt>
<trkpt lat="-27.2738745" lon="151.2903361">
  <ele>370.58</ele>
  <time>2026-09-01T20:03:27Z</time>
  <course>128.22</course>
  <speed>17.98</speed>
  <fix>3d</fix>
</trkpt>
<trkpt lat="-27.2739182" lon="151.2903909">
  <ele>369.77</ele>
  <time>2026-09-01T20:03:27Z</time>
  <course>151.36</course>
  <speed>17.7227452726715</speed>
  <fix>3d</fix>
</trkpt>
<trkpt lat="-27.2738954" lon="151.2903635">
  <ele>370.19</ele>
  <time>2026-09-01T20:03:27Z</time>
  <course>133.1</course>
  <speed>17.73</speed>
  <fix>3d</fix>
</trkpt>
<trkpt lat="-27.2739291" lon="151.290404">
  <ele>369.89</ele>
  <time>2026-09-01T20:03:27Z</time>
  <course>152.7</course>
  <speed>17.7227452726715</speed>
  <fix>3d</fix>
</trkpt>
<trkpt lat="-27.2738954" lon="151.2903635">
  <ele>370.19</ele>
  <time>2026-09-01T20:03:27Z</time>
  <course>133.1</course>
  <speed>17.73</speed>
  <fix>3d</fix>
</trkpt>
<trkpt lat="-27.2739422" lon="151.2904138">
  <ele>369.65</ele>
  <time>2026-09-01T20:03:27Z</time>
  <course>153.85</course>
  <speed>17.530171134361467</speed>
  <fix>3d</fix>
</trkpt>
<trkpt lat="-27.2739179" lon="151.2903886">
  <ele>369.86</ele>
  <time>2026-09-01T20:03:27Z</time>
  <course>137.37</course>
  <speed>17.53</speed>
  <fix>3d</fix>
</trkpt>
<trkpt lat="-27.2739538" lon="151.2904258">
  <ele>369.46</ele>
  <time>2026-09-01T20:03:27Z</time>
  <course>154.91</course>
  <speed>17.530171134361467</speed>
  <fix>3d</fix>
</trkpt>
<trkpt lat="-27.2739179" lon="151.2903886">
  <ele>369.86</ele>
  <time>2026-09-01T20:03:27Z</time>
  <course>137.37</course>
  <speed>17.53</speed>
  <fix>3d</fix>
</trkpt>
<trkpt lat="-27.2739672" lon="151.2904348">
  <ele>369.39</ele>
  <time>2026-09-01T20:03:27Z</time>
  <course>155.95</course>
  <speed>17.391779667417595</speed>
  <fix>3d</fix>
</trkpt>
<trkpt lat="-27.2739417" lon="151.2904116">
  <ele>369.59</ele>
  <time>2026-09-01T20:03:27Z</time>
  <course>141.01</course>
  <speed>17.4</speed>
  <fix>3d</fix>
</trkpt>
<trkpt lat="-27.2739793" lon="151.2904458">
  <ele>369.07</ele>
  <time>2026-09-01T20:03:27Z</time>
  <course>156.94</course>
  <speed>17.391779667417595</speed>
  <fix>3d</fix>
</trkpt>
<trkpt lat="-27.2739417" lon="151.2904116">
  <ele>369.59</ele>
  <time>2026-09-01T20:03:27Z</time>
  <course>141.01</course>
  <speed>17.4</speed>
  <fix>3d</fix>
</trkpt>
<trkpt lat="-27.2739933" lon="151.2904548">
  <ele>369.17</ele>
  <time>2026-09-01T20:03:27Z</time>
  <course>157.87</course>
  <speed>17.30623298121229</speed>
  <fix>3d</fix>
</trkpt>
<trkpt lat="-27.2739665" lon="151.290433">
  <ele>369.36</ele>
  <time>2026-09-01T20:03:27Z</time>
  <course>144.02</course>
  <speed>17.31</speed>
  <fix>3d</fix>
</trkpt>
<trkpt lat="-27.2740058" lon="151.2904651">
  <ele>369.24</ele>
  <time>2026-09-01T20:03:27Z</time>
  <course>158.68</course>
  <speed>17.30623298121229</speed>
  <fix>3d</fix>
</trkpt>
<trkpt lat="-27.2739665" lon="151.290433">
  <ele>369.36</ele>
  <time>2026-09-01T20:03:27Z</time>
  <course>144.02</course>
  <speed>17.31</speed>
  <fix>3d</fix>
</trkpt>
<trkpt lat="-27.2740196" lon="151.2904735">
  <ele>369.03</ele>
  <time>2026-09-01T20:03:27Z</time>
  <course>159.44</course>
  <speed>17.2595770515966</speed>
  <fix>3d</fix>
</trkpt>
<trkpt lat="-27.273992" lon="151.2904529">
  <ele>369.16</ele>
  <time>2026-09-01T20:03:27Z</time>
  <course>146.48</course>
  <speed>17.26</speed>
  <fix>3d</fix>
</trkpt>
<trkpt lat="-27.2740325" lon="151.2904831">
  <ele>368.87</ele>
  <time>2026-09-01T20:03:27Z</time>
  <course>160.11</course>
  <speed>17.2595770515966</speed>
  <fix>3d</fix>
</trkpt>
<trkpt lat="-27.273992" lon="151.2904529">
  <ele>369.16</ele>
  <time>2026-09-01T20:03:27Z</time>
  <course>146.48</course>
  <speed>17.26</speed>
  <fix>3d</fix>
</trkpt>
<trkpt lat="-27.2740464" lon="151.2904909">
  <ele>369.02</ele>
  <time>2026-09-01T20:03:27Z</time>
  <course>160.71</course>
  <speed>17.231079478662966</speed>
  <fix>3d</fix>
</trkpt>
<trkpt lat="-27.2740182" lon="151.2904715">
  <ele>369.0</ele>
  <time>2026-09-01T20:03:27Z</time>
  <course>148.55</course>
  <speed>17.23</speed>
  <fix>3d</fix>
</trkpt>
<trkpt lat="-27.2740596" lon="151.2905">
  <ele>368.79</ele>
  <time>2026-09-01T20:03:27Z</time>
  <course>161.35</course>
  <speed>17.231079478662966</speed>
  <fix>3d</fix>
</trkpt>
<trkpt lat="-27.2740182" lon="151.2904715">
  <ele>369.0</ele>
  <time>2026-09-01T20:03:27Z</time>
  <course>148.55</course>
  <speed>17.23</speed>
  <fix>3d</fix>
</trkpt>
<trkpt lat="-27.2740735" lon="151.2905076">
  <ele>368.95</ele>
  <time>2026-09-01T20:03:27Z</time>
  <course>161.98</course>
  <speed>17.225945547342242</speed>
  <fix>3d</fix>
</trkpt>
<trkpt lat="-27.2740448" lon="151.2904892">
  <ele>368.87</ele>
  <time>2026-09-01T20:03:27Z</time>
  <course>150.26</course>
  <speed>17.22</speed>
  <fix>3d</fix>
</trkpt>
<trkpt lat="-27.2740869" lon="151.2905163">
  <ele>368.67</ele>
  <time>2026-09-01T20:03:27Z</time>
  <course>162.57</course>
  <speed>17.225945547342242</speed>
  <fix>3d</fix>
</trkpt>
<trkpt lat="-27.2740448" lon="151.2904892">
  <ele>368.87</ele>
  <time>2026-09-01T20:03:27Z</time>
  <course>150.26</course>
  <speed>17.22</speed>
  <fix>3d</fix>
</trkpt>
<trkpt lat="-27.2741009" lon="151.2905237">
  <ele>368.79</ele>
  <time>2026-09-01T20:03:27Z</time>
  <course>163.03</course>
  <speed>17.22066781515746</speed>
  <fix>3d</fix>
</trkpt>
<trkpt lat="-27.2740718" lon="151.2905061">
  <ele>368.77</ele>
  <time>2026-09-01T20:03:27Z</time>
  <course>151.76</course>
  <speed>17.22</speed>
  <fix>3d</fix>
</trkpt>
<trkpt lat="-27.2741144" lon="151.2905318">
  <ele>368.82</ele>
  <time>2026-09-01T20:03:27Z</time>
  <course>163.41</course>
  <speed>17.22066781515746</speed>
  <fix>3d</fix>
</trkpt>
<trkpt lat="-27.2740718" lon="151.2905061">
  <ele>368.77</ele>
  <time>2026-09-01T20:03:27Z</time>
  <course>151.76</course>
  <speed>17.22</speed>
  <fix>3d</fix>
</trkpt>
<trkpt lat="-27.2741286" lon="151.2905389">
  <ele>368.5</ele>
  <time>2026-09-01T20:03:27Z</time>
  <course>163.85</course>
  <speed>17.23128840220603</speed>
  <fix>3d</fix>
</trkpt>
<trkpt lat="-27.2740992" lon="151.2905222">
  <ele>368.68</ele>
  <time>2026-09-01T20:03:27Z</time>
  <course>153.18</course>
  <speed>17.23</speed>
  <fix>3d</fix>
</trkpt>
<trkpt lat="-27.2741424" lon="151.2905467">
  <ele>368.44</ele>
  <time>2026-09-01T20:03:27Z</time>
  <course>164.31</course>
  <speed>17.23128840220603</speed>
  <fix>3d</fix>
</trkpt>
<trkpt lat="-27.2740992" lon="151.2905222">
  <ele>368.68</ele>
  <time>2026-09-01T20:03:27Z</time>
  <course>153.18</course>
  <speed>17.23</speed>
  <fix>3d</fix>
</trkpt>
<trkpt lat="-27.2741568" lon="151.2905534">
  <ele>368.78</ele>
  <time>2026-09-01T20:03:27Z</time>
  <course>164.71</course>
  <speed>17.230020313394874</speed>
  <fix>3d</fix>
</trkpt>
<trkpt lat="-27.2741271" lon="151.2905375">
  <ele>368.63</ele>
  <time>2026-09-01T20:03:27Z</time>
  <course>154.56</course>
  <speed>17.23</speed>
  <fix>3d</fix>
</trkpt>
<trkpt lat="-27.2741705" lon="151.2905607">
  <ele>368.77</ele>
  <time>2026-09-01T20:03:27Z</time>
  <course>165.14</course>
  <speed>17.230020313394874</speed>
  <fix>3d</fix>
</trkpt>
<trkpt lat="-27.2741271" lon="151.2905375">
  <ele>368.63</ele>
  <time>2026-09-01T20:03:27Z</time>
  <course>154.56</course>
  <speed>17.23</speed>
  <fix>3d</fix>
</trkpt>
<trkpt lat="-27.2741848" lon="151.2905669">
  <ele>368.56</ele>
  <time>2026-09-01T20:03:27Z</time>
  <course>165.62</course>
  <speed>17.23857592726267</speed>
  <fix>3d</fix>
</trkpt>
<trkpt lat="-27.2741552" lon="151.290552">
  <ele>368.62</ele>
  <time>2026-09-01T20:03:27Z</time>
  <course>155.92</course>
  <speed>17.24</speed>
  <fix>3d</fix>
</trkpt>
<trkpt lat="-27.274199" lon="151.290574">
  <ele>368.71</ele>
  <time>2026-09-01T20:03:27Z</time>
  <course>166.05</course>
  <speed>17.23857592726267</speed>
  <fix>3d</fix>
</trkpt>
<trkpt lat="-27.2741552" lon="151.290552">
  <ele>368.62</ele>
  <time>2026-09-01T20:03:27Z</time>
  <course>155.92</course>
  <speed>17.24</speed>
  <fix>3d</fix>
</trkpt>
<trkpt lat="-27.2742136" lon="151.29058">
  <ele>368.51</ele>
  <time>2026-09-01T20:03:27Z</time>
  <course>166.52</course>
  <speed>17.230774793955145</speed>
  <fix>3d</fix>
</trkpt>
<trkpt lat="-27.2741836" lon="151.2905659">
  <ele>368.63</ele>
  <time>2026-09-01T20:03:27Z</time>
  <course>157.31</course>
  <speed>17.24</speed>
  <fix>3d</fix>
</trkpt>
<trkpt lat="-27.2742279" lon="151.2905867">
  <ele>368.6</ele>
  <time>2026-09-01T20:03:27Z</time>
  <course>167.04</course>
  <speed>17.230774793955145</speed>
  <fix>3d</fix>
</trkpt>
<trkpt lat="-27.2741836" lon="151.2905659">
  <ele>368.63</ele>
  <time>2026-09-01T20:03:27Z</time>
  <course>157.31</course>
  <speed>17.24</speed>
  <fix>3d</fix>
</trkpt>
<trkpt lat="-27.2742426" lon="151.2905921">
  <ele>368.58</ele>
  <time>2026-09-01T20:03:27Z</time>
  <course>167.53</course>
  <speed>17.22242723892309</speed>
  <fix>3d</fix>
</trkpt>
<trkpt lat="-27.2742123" lon="151.2905789">
  <ele>368.68</ele>
  <time>2026-09-01T20:03:27Z</time>
  <course>158.81</course>
  <speed>17.22</speed>
  <fix>3d</fix>
</trkpt>
<trkpt lat="-27.274257" lon="151.2905984">
  <ele>368.96</ele>
  <time>2026-09-01T20:03:27Z</time>
  <course>168.16</course>
  <speed>17.22242723892309</speed>
  <fix>3d</fix>
</trkpt>
<trkpt lat="-27.2742123" lon="151.2905789">
  <ele>368.68</ele>
  <time>2026-09-01T20:03:27Z</time>
  <course>158.81</course>
  <speed>17.22</speed>
  <fix>3d</fix>
</trkpt>
<trkpt lat="-27.2742719" lon="151.2906033">
  <ele>368.96</ele>
  <time>2026-09-01T20:03:27Z</time>
  <course>168.7</course>
  <speed>17.19961046070521</speed>
  <fix>3d</fix>
</trkpt>
<trkpt lat="-27.2742414" lon="151.2905911">
  <ele>368.75</ele>
  <time>2026-09-01T20:03:27Z</time>
  <course>160.45</course>
  <speed>17.2</speed>
  <fix>3d</fix>
</trkpt>
<trkpt lat="-27.2742869" lon="151.2906093">
  <ele>368.75</ele>
  <time>2026-09-01T20:03:27Z</time>
  <course>169.24</course>
  <speed>17.19961046070521</speed>
  <fix>3d</fix>
</trkpt>
<trkpt lat="-27.2742414" lon="151.2905911">
  <ele>368.75</ele>
  <time>2026-09-01T20:03:27Z</time>
  <course>160.45</course>
  <speed>17.2</speed>
  <fix>3d</fix>
</trkpt>
<trkpt lat="-27.2743021" lon="151.2906135">
  <ele>369.11</ele>
  <time>2026-09-01T20:03:27Z</time>
  <course>169.89</course>
  <speed>17.1725944458023</speed>
  <fix>3d</fix>
</trkpt>
<trkpt lat="-27.2742707" lon="151.2906022">
  <ele>368.86</ele>
  <time>2026-09-01T20:03:27Z</time>
  <course>162.29</course>
  <speed>17.18</speed>
  <fix>3d</fix>
</trkpt>
<trkpt lat="-27.2743168" lon="151.2906187">
  <ele>368.89</ele>
  <time>2026-09-01T20:03:27Z</time>
  <course>170.56</course>
  <speed>17.1725944458023</speed>
  <fix>3d</fix>
</trkpt>
<trkpt lat="-27.2742707" lon="151.2906022">
  <ele>368.86</ele>
  <time>2026-09-01T20:03:27Z</time>
  <course>162.29</course>
  <speed>17.18</speed>
  <fix>3d</fix>
</trkpt>
<trkpt lat="-27.2743319" lon="151.2906221">
  <ele>368.99</ele>
  <time>2026-09-01T20:03:27Z</time>
  <course>171.19</course>
  <speed>17.134596581186262</speed>
  <fix>3d</fix>
</trkpt>
<trkpt lat="-27.2743002" lon="151.2906122">
  <ele>368.98</ele>
  <time>2026-09-01T20:03:27Z</time>
  <course>164.35</course>
  <speed>17.14</speed>
  <fix>3d</fix>
</trkpt>
<trkpt lat="-27.2743467" lon="151.2906268">
  <ele>369.31</ele>
  <time>2026-09-01T20:03:27Z</time>
  <course>171.8</course>
  <speed>17.134596581186262</speed>
  <fix>3d</fix>
</trkpt>
<trkpt lat="-27.2743002" lon="151.2906122">
  <ele>368.98</ele>
  <time>2026-09-01T20:03:27Z</time>
  <course>164.35</course>
  <speed>17.14</speed>
  <fix>3d</fix>
</trkpt>
<trkpt lat="-27.2743619" lon="151.2906294">
  <ele>369.19</ele>
  <time>2026-09-01T20:03:27Z</time>
  <course>172.51</course>
  <speed>17.085256802284242</speed>
  <fix>3d</fix>
</trkpt>
<trkpt lat="-27.27433" lon="151.2906209">
  <ele>369.13</ele>
  <time>2026-09-01T20:03:27Z</time>
  <course>166.58</course>
  <speed>17.09</speed>
  <fix>3d</fix>
</trkpt>
<trkpt lat="-27.2743768" lon="151.2906334">
  <ele>369.22</ele>
  <time>2026-09-01T20:03:27Z</time>
  <course>173.33</course>
  <speed>17.085256802284242</speed>
  <fix>3d</fix>
</trkpt>
<trkpt lat="-27.27433" lon="151.2906209">
  <ele>369.13</ele>
  <time>2026-09-01T20:03:27Z</time>
  <course>166.58</course>
  <speed>17.09</speed>
  <fix>3d</fix>
</trkpt>
<trkpt lat="-27.2743921" lon="151.2906351">
  <ele>369.51</ele>
  <time>2026-09-01T20:03:27Z</time>
  <course>174.2</course>
  <speed>17.036763190230708</speed>
  <fix>3d</fix>
</trkpt>
<trkpt lat="-27.27436" lon="151.2906281">
  <ele>369.29</ele>
  <time>2026-09-01T20:03:27Z</time>
  <course>168.92</course>
  <speed>17.04</speed>
  <fix>3d</fix>
</trkpt>
<trkpt lat="-27.274407" lon="151.2906384">
  <ele>369.4</ele>
  <time>2026-09-01T20:03:27Z</time>
  <course>175.06</course>
  <speed>17.036763190230708</speed>
  <fix>3d</fix>
</trkpt>
<trkpt lat="-27.27436" lon="151.2906281">
  <ele>369.29</ele>
  <time>2026-09-01T20:03:27Z</time>
  <course>168.92</course>
  <speed>17.04</speed>
  <fix>3d</fix>
</trkpt>
<trkpt lat="-27.2744222" lon="151.2906394">
  <ele>369.67</ele>
  <time>2026-09-01T20:03:27Z</time>
  <course>175.9</course>
  <speed>16.98943495234612</speed>
  <fix>3d</fix>
</trkpt>
<trkpt lat="-27.2743901" lon="151.290634">
  <ele>369.47</ele>
  <time>2026-09-01T20:03:27Z</time>
  <course>171.42</course>
  <speed>16.99</speed>
  <fix>3d</fix>
</trkpt>
<trkpt lat="-27.2744373" lon="151.290642">
  <ele>369.59</ele>
  <time>2026-09-01T20:03:27Z</time>
  <course>176.77</course>
  <speed>16.98943495234612</speed>
  <fix>3d</fix>
</trkpt>
<trkpt lat="-27.2743901" lon="151.290634">
  <ele>369.47</ele>
  <time>2026-09-01T20:03:27Z</time>
  <course>171.42</course>
  <speed>16.99</speed>
  <fix>3d</fix>
</trkpt>
<trkpt lat="-27.2744525" lon="151.290642">
  <ele>369.8</ele>
  <time>2026-09-01T20:03:27Z</time>
  <course>177.71</course>
  <speed>16.949548666557465</speed>
  <fix>3d</fix>
</trkpt>
<trkpt lat="-27.2744203" lon="151.2906383">
  <ele>369.66</ele>
  <time>2026-09-01T20:03:28Z</time>
  <course>174.1</course>
  <speed>16.95</speed>
  <fix>3d</fix>
</trkpt>
<trkpt lat="-27.2744677" lon="151.2906438">
  <ele>370.05</ele>
  <time>2026-09-01T20:03:28Z</time>
  <course>178.6</course>
  <speed>16.949548666557465</speed>
  <fix>3d</fix>
</trkpt>
<trkpt lat="-27.2744203" lon="151.2906383">
  <ele>369.66</ele>
  <time>2026-09-01T20:03:28Z</time>
  <course>174.1</course>
  <speed>16.95</speed>
  <fix>3d</fix>
</trkpt>
<trkpt lat="-27.2744829" lon="151.2906429">
  <ele>370.02</ele>
  <time>2026-09-01T20:03:28Z</time>
  <course>179.46</course>
  <speed>16.90344639415288</speed>
  <fix>3d</fix>
</trkpt>
<trkpt lat="-27.2744506" lon="151.290641">
  <ele>369.86</ele>
  <time>2026-09-01T20:03:28Z</time>
  <course>176.96</course>
  <speed>16.9</speed>
  <fix>3d</fix>
</trkpt>
<trkpt lat="-27.274498" lon="151.2906438">
  <ele>370.13</ele>
  <time>2026-09-01T20:03:28Z</time>
  <course>180.42</course>
  <speed>16.90344639415288</speed>
  <fix>3d</fix>
</trkpt>
<trkpt lat="-27.2744506" lon="151.290641">
  <ele>369.86</ele>
  <time>2026-09-01T20:03:28Z</time>
  <course>176.96</course>
  <speed>16.9</speed>
  <fix>3d</fix>
</trkpt>
<trkpt lat="-27.2745131" lon="151.290642">
  <ele>370.1</ele>
  <time>2026-09-01T20:03:28Z</time>
  <course>181.42</course>
  <speed>16.87001185536039</speed>
  <fix>3d</fix>
</trkpt>
<trkpt lat="-27.2744809" lon="151.290642">
  <ele>370.06</ele>
  <time>2026-09-01T20:03:28Z</time>
  <course>179.92</course>
  <speed>16.87</speed>
  <fix>3d</fix>
</trkpt>
<trkpt lat="-27.2745283" lon="151.290642">
  <ele>370.45</ele>
  <time>2026-09-01T20:03:28Z</time>
  <course>182.37</course>
  <speed>16.87001185536039</speed>
  <fix>3d</fix>
</trkpt>
<trkpt lat="-27.2744809" lon="151.290642">
  <ele>370.06</ele>
  <time>2026-09-01T20:03:28Z</time>
  <course>179.92</course>
  <speed>16.87</speed>
  <fix>3d</fix>
</trkpt>
<trkpt lat="-27.2745433" lon="151.2906393">
  <ele>370.59</ele>
  <time>2026-09-01T20:03:28Z</time>
  <course>183.33</course>
  <speed>16.842484971048663</speed>
  <fix>3d</fix>
</trkpt>
<trkpt lat="-27.2745112" lon="151.2906411">
  <ele>370.27</ele>
  <time>2026-09-01T20:03:28Z</time>
  <course>182.97</course>
  <speed>16.84</speed>
  <fix>3d</fix>
</trkpt>
<trkpt lat="-27.2745585" lon="151.2906384">
  <ele>370.75</ele>
  <time>2026-09-01T20:03:28Z</time>
  <course>184.31</course>
  <speed>16.842484971048663</speed>
  <fix>3d</fix>
</trkpt>
<trkpt lat="-27.2745112" lon="151.2906411">
  <ele>370.27</ele>
  <time>2026-09-01T20:03:28Z</time>
  <course>182.97</course>
  <speed>16.84</speed>
  <fix>3d</fix>
</trkpt>
<trkpt lat="-27.2745733" lon="151.2906348">
  <ele>370.74</ele>
  <time>2026-09-01T20:03:28Z</time>
  <course>185.29</course>
  <speed>16.833315181508365</speed>
  <fix>3d</fix>
</trkpt>
<trkpt lat="-27.2745413" lon="151.2906386">
  <ele>370.49</ele>
  <time>2026-09-01T20:03:28Z</time>
  <course>186.04</course>
  <speed>16.83</speed>
  <fix>3d</fix>
</trkpt>
<trkpt lat="-27.274588" lon="151.2906331">
  <ele>370.86</ele>
  <time>2026-09-01T20:03:28Z</time>
  <course>186.28</course>
  <speed>16.833315181508365</speed>
  <fix>3d</fix>
</trkpt>
<trkpt lat="-27.2745413" lon="151.2906386">
  <ele>370.49</ele>
  <time>2026-09-01T20:03:28Z</time>
  <course>186.04</course>
  <speed>16.83</speed>
  <fix>3d</fix>
</trkpt>
<trkpt lat="-27.2746031" lon="151.2906283">
  <ele>370.99</ele>
  <time>2026-09-01T20:03:28Z</time>
  <course>187.27</course>
  <speed>16.82006539820818</speed>
  <fix>3d</fix>
</trkpt>
<trkpt lat="-27.2745714" lon="151.290634">
  <ele>370.7</ele>
  <time>2026-09-01T20:03:28Z</time>
  <course>189.08</course>
  <speed>16.82</speed>
  <fix>3d</fix>
</trkpt>
<trkpt lat="-27.2746181" lon="151.2906256">
  <ele>371.09</ele>
  <time>2026-09-01T20:03:28Z</time>
  <course>188.23</course>
  <speed>16.82006539820818</speed>
  <fix>3d</fix>
</trkpt>
<trkpt lat="-27.2745714" lon="151.290634">
  <ele>370.7</ele>
  <time>2026-09-01T20:03:28Z</time>
  <course>189.08</course>
  <speed>16.82</speed>
  <fix>3d</fix>
</trkpt>
<trkpt lat="-27.2746327" lon="151.2906201">
  <ele>370.99</ele>
  <time>2026-09-01T20:03:28Z</time>
  <course>189.13</course>
  <speed>16.83080806140929</speed>
  <fix>3d</fix>
</trkpt>
<trkpt lat="-27.2746011" lon="151.2906277">
  <ele>370.89</ele>
  <time>2026-09-01T20:03:28Z</time>
  <course>192.21</course>
  <speed>16.83</speed>
  <fix>3d</fix>
</trkpt>
<trkpt lat="-27.2746475" lon="151.2906165">
  <ele>371.2</ele>
  <time>2026-09-01T20:03:28Z</time>
  <course>190.19</course>
  <speed>16.83080806140929</speed>
  <fix>3d</fix>
</trkpt>
<trkpt lat="-27.2746011" lon="151.2906277">
  <ele>370.89</ele>
  <time>2026-09-01T20:03:28Z</time>
  <course>192.21</course>
  <speed>16.83</speed>
  <fix>3d</fix>
</trkpt>
<trkpt lat="-27.2746617" lon="151.29061">
  <ele>371.37</ele>
  <time>2026-09-01T20:03:28Z</time>
  <course>191.24</course>
  <speed>16.848293682150725</speed>
  <fix>3d</fix>
</trkpt>
<trkpt lat="-27.2746305" lon="151.2906196">
  <ele>371.08</ele>
  <time>2026-09-01T20:03:28Z</time>
  <course>195.33</course>
  <speed>16.85</speed>
  <fix>3d</fix>
</trkpt>
<trkpt lat="-27.2746763" lon="151.2906055">
  <ele>371.39</ele>
  <time>2026-09-01T20:03:28Z</time>
  <course>192.31</course>
  <speed>16.848293682150725</speed>
  <fix>3d</fix>
</trkpt>
<trkpt lat="-27.2746305" lon="151.2906196">
  <ele>371.08</ele>
  <time>2026-09-01T20:03:28Z</time>
  <course>195.33</course>
  <speed>16.85</speed>
  <fix>3d</fix>
</trkpt>
<trkpt lat="-27.2746903" lon="151.2905983">
  <ele>371.53</ele>
  <time>2026-09-01T20:03:28Z</time>
  <course>193.3</course>
  <speed>16.889727647300887</speed>
  <fix>3d</fix>
</trkpt>
<trkpt lat="-27.2746595" lon="151.2906098">
  <ele>371.25</ele>
  <time>2026-09-01T20:03:28Z</time>
  <course>198.45</course>
  <speed>16.89</speed>
  <fix>3d</fix>
</trkpt>
<trkpt lat="-27.2747047" lon="151.2905929">
  <ele>371.32</ele>
  <time>2026-09-01T20:03:28Z</time>
  <course>194.35</course>
  <speed>16.889727647300887</speed>
  <fix>3d</fix>
</trkpt>
<trkpt lat="-27.2746595" lon="151.2906098">
  <ele>371.25</ele>
  <time>2026-09-01T20:03:28Z</time>
  <course>198.45</course>
  <speed>16.89</speed>
  <fix>3d</fix>
</trkpt>
<trkpt lat="-27.2747181" lon="151.2905846">
  <ele>371.54</ele>
  <time>2026-09-01T20:03:28Z</time>
  <course>195.44</course>
  <speed>16.954058511164813</speed>
  <fix>3d</fix>
</trkpt>
<trkpt lat="-27.274688" lon="151.290598">
  <ele>371.4</ele>
  <time>2026-09-01T20:03:28Z</time>
  <course>201.64</course>
  <speed>16.96</speed>
  <fix>3d</fix>
</trkpt>
<trkpt lat="-27.2747323" lon="151.2905783">
  <ele>371.68</ele>
  <time>2026-09-01T20:03:28Z</time>
  <course>196.53</course>
  <speed>16.954058511164813</speed>
  <fix>3d</fix>
</trkpt>
<trkpt lat="-27.274688" lon="151.290598">
  <ele>371.4</ele>
  <time>2026-09-01T20:03:28Z</time>
  <course>201.64</course>
  <speed>16.96</speed>
  <fix>3d</fix>
</trkpt>
<trkpt lat="-27.2747456" lon="151.290569">
  <ele>371.6</ele>
  <time>2026-09-01T20:03:28Z</time>
  <course>197.58</course>
  <speed>17.04172819874792</speed>
  <fix>3d</fix>
</trkpt>
<trkpt lat="-27.2747161" lon="151.2905844">
  <ele>371.53</ele>
  <time>2026-09-01T20:03:28Z</time>
  <course>204.87</course>
  <speed>17.05</speed>
  <fix>3d</fix>
</trkpt>
<trkpt lat="-27.2747595" lon="151.2905618">
  <ele>371.55</ele>
  <time>2026-09-01T20:03:28Z</time>
  <course>198.67</course>
  <speed>17.04172819874792</speed>
  <fix>3d</fix>
</trkpt>
<trkpt lat="-27.2747161" lon="151.2905844">
  <ele>371.53</ele>
  <time>2026-09-01T20:03:28Z</time>
  <course>204.87</course>
  <speed>17.05</speed>
  <fix>3d</fix>
</trkpt>
<trkpt lat="-27.2747725" lon="151.2905516">
  <ele>371.63</ele>
  <time>2026-09-01T20:03:28Z</time>
  <course>199.8</course>
  <speed>17.165887684591205</speed>
  <fix>3d</fix>
</trkpt>
<trkpt lat="-27.2747436" lon="151.290569">
  <ele>371.66</ele>
  <time>2026-09-01T20:03:28Z</time>
  <course>208.12</course>
  <speed>17.16</speed>
  <fix>3d</fix>
</trkpt>
<trkpt lat="-27.2747861" lon="151.2905434">
  <ele>371.82</ele>
  <time>2026-09-01T20:03:28Z</time>
  <course>200.93</course>
  <speed>17.165887684591205</speed>
  <fix>3d</fix>
</trkpt>
<trkpt lat="-27.2747436" lon="151.290569">
  <ele>371.66</ele>
  <time>2026-09-01T20:03:28Z</time>
  <course>208.12</course>
  <speed>17.16</speed>
  <fix>3d</fix>
</trkpt>
<trkpt lat="-27.2747986" lon="151.2905323">
  <ele>371.73</ele>
  <time>2026-09-01T20:03:28Z</time>
  <course>202.07</course>
  <speed>17.30645255388868</speed>
  <fix>3d</fix>
</trkpt>
<trkpt lat="-27.2747704" lon="151.2905517">
  <ele>371.77</ele>
  <time>2026-09-01T20:03:28Z</time>
  <course>211.41</course>
  <speed>17.31</speed>
  <fix>3d</fix>
</trkpt>
<trkpt lat="-27.2748119" lon="151.2905232">
  <ele>372.03</ele>
  <time>2026-09-01T20:03:28Z</time>
  <course>203.21</course>
  <speed>17.30645255388868</speed>
  <fix>3d</fix>
</trkpt>
<trkpt lat="-27.2747704" lon="151.2905517">
  <ele>371.77</ele>
  <time>2026-09-01T20:03:28Z</time>
  <course>211.41</course>
  <speed>17.31</speed>
  <fix>3d</fix>
</trkpt>
<trkpt lat="-27.274824" lon="151.2905111">
  <ele>371.94</ele>
  <time>2026-09-01T20:03:28Z</time>
  <course>204.41</course>
  <speed>17.4760178530465</speed>
  <fix>3d</fix>
</trkpt>
<trkpt lat="-27.2747966" lon="151.2905325">
  <ele>371.88</ele>
  <time>2026-09-01T20:03:28Z</time>
  <course>214.75</course>
  <speed>17.48</speed>
  <fix>3d</fix>
</trkpt>
<trkpt lat="-27.2748369" lon="151.290501">
  <ele>372.03</ele>
  <time>2026-09-01T20:03:28Z</time>
  <course>205.54</course>
  <speed>17.4760178530465</speed>
  <fix>3d</fix>
</trkpt>
<trkpt lat="-27.2747966" lon="151.2905325">
  <ele>371.88</ele>
  <time>2026-09-01T20:03:28Z</time>
  <course>214.75</course>
  <speed>17.48</speed>
  <fix>3d</fix>
</trkpt>
<trkpt lat="-27.2748487" lon="151.2904879">
  <ele>372.07</ele>
  <time>2026-09-01T20:03:28Z</time>
  <course>206.71</course>
  <speed>17.670260326322303</speed>
  <fix>3d</fix>
</trkpt>
<trkpt lat="-27.2748221" lon="151.2905113">
  <ele>371.98</ele>
  <time>2026-09-01T20:03:28Z</time>
  <course>218.12</course>
  <speed>17.67</speed>
  <fix>3d</fix>
</trkpt>
<trkpt lat="-27.2748611" lon="151.2904768">
  <ele>371.99</ele>
  <time>2026-09-01T20:03:28Z</time>
  <course>207.87</course>
  <speed>17.670260326322303</speed>
  <fix>3d</fix>
</trkpt>
<trkpt lat="-27.2748221" lon="151.2905113">
  <ele>371.98</ele>
  <time>2026-09-01T20:03:28Z</time>
  <course>218.12</course>
  <speed>17.67</speed>
  <fix>3d</fix>
</trkpt>
<trkpt lat="-27.2748722" lon="151.2904628">
  <ele>371.98</ele>
  <time>2026-09-01T20:03:28Z</time>
  <course>209.07</course>
  <speed>17.888054673440596</speed>
  <fix>3d</fix>
</trkpt>
<trkpt lat="-27.2748466" lon="151.2904883">
  <ele>372.08</ele>
  <time>2026-09-01T20:03:28Z</time>
  <course>221.49</course>
  <speed>17.89</speed>
  <fix>3d</fix>
</trkpt>
<trkpt lat="-27.2748842" lon="151.2904509">
  <ele>372.15</ele>
  <time>2026-09-01T20:03:28Z</time>
  <course>210.27</course>
  <speed>17.888054673440596</speed>
  <fix>3d</fix>
</trkpt>
<trkpt lat="-27.2748466" lon="151.2904883">
  <ele>372.08</ele>
  <time>2026-09-01T20:03:28Z</time>
  <course>221.49</course>
  <speed>17.89</speed>
  <fix>3d</fix>
</trkpt>
<trkpt lat="-27.2748948" lon="151.2904359">
  <ele>372.16</ele>
  <time>2026-09-01T20:03:28Z</time>
  <course>211.47</course>
  <speed>18.12325853702915</speed>
  <fix>3d</fix>
</trkpt>
<trkpt lat="-27.2748702" lon="151.2904634">
  <ele>372.18</ele>
  <time>2026-09-01T20:03:28Z</time>
  <course>224.81</course>
  <speed>18.12</speed>
  <fix>3d</fix>
</trkpt>
<trkpt lat="-27.2749063" lon="151.290423">
  <ele>372.24</ele>
  <time>2026-09-01T20:03:28Z</time>
  <course>212.65</course>
  <speed>18.12325853702915</speed>
  <fix>3d</fix>
</trkpt>
<trkpt lat="-27.2748702" lon="151.2904634">
  <ele>372.18</ele>
  <time>2026-09-01T20:03:28Z</time>
  <course>224.81</course>
  <speed>18.12</speed>
  <fix>3d</fix>
</trkpt>
<trkpt lat="-27.2749162" lon="151.2904072">
  <ele>372.37</ele>
  <time>2026-09-01T20:03:28Z</time>
  <course>213.84</course>
  <speed>18.383933202663677</speed>
  <fix>3d</fix>
</trkpt>
<trkpt lat="-27.2748928" lon="151.2904366">
  <ele>372.27</ele>
  <time>2026-09-01T20:03:28Z</time>
  <course>228.12</course>
  <speed>18.39</speed>
  <fix>3d</fix>
</trkpt>
<trkpt lat="-27.2749273" lon="151.2903933">
  <ele>372.52</ele>
  <time>2026-09-01T20:03:28Z</time>
  <course>215.1</course>
  <speed>18.383933202663677</speed>
  <fix>3d</fix>
</trkpt>
<trkpt lat="-27.2748928" lon="151.2904366">
  <ele>372.27</ele>
  <time>2026-09-01T20:03:28Z</time>
  <course>228.12</course>
  <speed>18.39</speed>
  <fix>3d</fix>
</trkpt>
<trkpt lat="-27.2749366" lon="151.2903766">
  <ele>372.47</ele>
  <time>2026-09-01T20:03:28Z</time>
  <course>216.38</course>
  <speed>18.664343010135664</speed>
  <fix>3d</fix>
</trkpt>
<trkpt lat="-27.2749143" lon="151.2904081">
  <ele>372.35</ele>
  <time>2026-09-01T20:03:28Z</time>
  <course>231.42</course>
  <speed>18.67</speed>
  <fix>3d</fix>
</trkpt>
<trkpt lat="-27.2749472" lon="151.2903617">
  <ele>372.42</ele>
  <time>2026-09-01T20:03:28Z</time>
  <course>217.67</course>
  <speed>18.664343010135664</speed>
  <fix>3d</fix>
</trkpt>
<trkpt lat="-27.2749143" lon="151.2904081">
  <ele>372.35</ele>
  <time>2026-09-01T20:03:28Z</time>
  <course>231.42</course>
  <speed>18.67</speed>
  <fix>3d</fix>
</trkpt>
<trkpt lat="-27.2749556" lon="151.2903442">
  <ele>372.29</ele>
  <time>2026-09-01T20:03:28Z</time>
  <course>218.99</course>
  <speed>18.97768426336575</speed>
  <fix>3d</fix>
</trkpt>
<trkpt lat="-27.2749346" lon="151.2903777">
  <ele>372.42</ele>
  <time>2026-09-01T20:03:28Z</time>
  <course>234.75</course>
  <speed>18.98</speed>
  <fix>3d</fix>
</trkpt>
<trkpt lat="-27.2749653" lon="151.2903287">
  <ele>372.52</ele>
  <time>2026-09-01T20:03:28Z</time>
  <course>220.33</course>
  <speed>18.97768426336575</speed>
  <fix>3d</fix>
</trkpt>
<trkpt lat="-27.2749346" lon="151.2903777">
  <ele>372.42</ele>
  <time>2026-09-01T20:03:28Z</time>
  <course>234.75</course>
  <speed>18.98</speed>
  <fix>3d</fix>
</trkpt>
<trkpt lat="-27.2749731" lon="151.2903101">
  <ele>372.74</ele>
  <time>2026-09-01T20:03:28Z</time>
  <course>221.67</course>
  <speed>19.30792842331875</speed>
  <fix>3d</fix>
</trkpt>
<trkpt lat="-27.2749536" lon="151.2903454">
  <ele>372.5</ele>
  <time>2026-09-01T20:03:28Z</time>
  <course>238.13</course>
  <speed>19.31</speed>
  <fix>3d</fix>
</trkpt>
<trkpt lat="-27.2749822" lon="151.2902936">
  <ele>372.66</ele>
  <time>2026-09-01T20:03:28Z</time>
  <course>222.95</course>
  <speed>19.30792842331875</speed>
  <fix>3d</fix>
</trkpt>
<trkpt lat="-27.2749536" lon="151.2903454">
  <ele>372.5</ele>
  <time>2026-09-01T20:03:28Z</time>
  <course>238.13</course>
  <speed>19.31</speed>
  <fix>3d</fix>
</trkpt>
<trkpt lat="-27.274989" lon="151.2902742">
  <ele>372.51</ele>
  <time>2026-09-01T20:03:28Z</time>
  <course>224.36</course>
  <speed>19.670498214331023</speed>
  <fix>3d</fix>
</trkpt>
<trkpt lat="-27.2749711" lon="151.2903114">
  <ele>372.57</ele>
  <time>2026-09-01T20:03:28Z</time>
  <course>241.5</course>
  <speed>19.67</speed>
  <fix>3d</fix>
</trkpt>
<trkpt lat="-27.2749974" lon="151.2902567">
  <ele>372.58</ele>
  <time>2026-09-01T20:03:28Z</time>
  <course>225.78</course>
  <speed>19.670498214331023</speed>
  <fix>3d</fix>
</trkpt>
<trkpt lat="-27.2749711" lon="151.2903114">
  <ele>372.57</ele>
  <time>2026-09-01T20:03:28Z</time>
  <course>241.5</course>
  <speed>19.67</speed>
  <fix>3d</fix>
</trkpt>
<trkpt lat="-27.2750034" lon="151.2902364">
  <ele>372.61</ele>
  <time>2026-09-01T20:03:28Z</time>
  <course>227.09</course>
  <speed>20.055066691487216</speed>
  <fix>3d</fix>
</trkpt>
<trkpt lat="-27.2749872" lon="151.2902755">
  <ele>372.64</ele>
  <time>2026-09-01T20:03:28Z</time>
  <course>244.88</course>
  <speed>20.06</speed>
  <fix>3d</fix>
</trkpt>
<trkpt lat="-27.2750111" lon="151.2902181">
  <ele>372.85</ele>
  <time>2026-09-01T20:03:28Z</time>
  <course>228.57</course>
  <speed>20.055066691487216</speed>
  <fix>3d</fix>
</trkpt>
<trkpt lat="-27.2749872" lon="151.2902755">
  <ele>372.64</ele>
  <time>2026-09-01T20:03:28Z</time>
  <course>244.88</course>
  <speed>20.06</speed>
  <fix>3d</fix>
</trkpt>
<trkpt lat="-27.2750162" lon="151.290197">
  <ele>372.78</ele>
  <time>2026-09-01T20:03:28Z</time>
  <course>230.05</course>
  <speed>20.474784492150338</speed>
  <fix>3d</fix>
</trkpt>
<trkpt lat="-27.2750017" lon="151.2902379">
  <ele>372.71</ele>
  <time>2026-09-01T20:03:28Z</time>
  <course>248.25</course>
  <speed>20.47</speed>
  <fix>3d</fix>
</trkpt>
<trkpt lat="-27.275023" lon="151.2901778">
  <ele>372.96</ele>
  <time>2026-09-01T20:03:28Z</time>
  <course>231.53</course>
  <speed>20.474784492150338</speed>
  <fix>3d</fix>
</trkpt>
<trkpt lat="-27.2750017" lon="151.2902379">
  <ele>372.71</ele>
  <time>2026-09-01T20:03:28Z</time>
  <course>248.25</course>
  <speed>20.47</speed>
  <fix>3d</fix>
</trkpt>
<trkpt lat="-27.275027" lon="151.290156">
  <ele>372.7</ele>
  <time>2026-09-01T20:03:28Z</time>
  <course>233.08</course>
  <speed>20.91852050217701</speed>
  <fix>3d</fix>
</trkpt>
<trkpt lat="-27.2750145" lon="151.2901987">
  <ele>372.78</ele>
  <time>2026-09-01T20:03:28Z</time>
  <course>251.68</course>
  <speed>20.92</speed>
  <fix>3d</fix>
</trkpt>
<trkpt lat="-27.2750329" lon="151.2901359">
  <ele>372.84</ele>
  <time>2026-09-01T20:03:28Z</time>
  <course>234.62</course>
  <speed>20.91852050217701</speed>
  <fix>3d</fix>
</trkpt>
<trkpt lat="-27.2750145" lon="151.2901987">
  <ele>372.78</ele>
  <time>2026-09-01T20:03:28Z</time>
  <course>251.68</course>
  <speed>20.92</speed>
  <fix>3d</fix>
</trkpt>
<trkpt lat="-27.2750357" lon="151.2901131">
  <ele>372.83</ele>
  <time>2026-09-01T20:03:28Z</time>
  <course>236.24</course>
  <speed>21.391196787463763</speed>
  <fix>3d</fix>
</trkpt>
<trkpt lat="-27.2750253" lon="151.2901576">
  <ele>372.84</ele>
  <time>2026-09-01T20:03:28Z</time>
  <course>255.18</course>
  <speed>21.39</speed>
  <fix>3d</fix>
</trkpt>
<trkpt lat="-27.2750406" lon="151.2900922">
  <ele>372.78</ele>
  <time>2026-09-01T20:03:28Z</time>
  <course>237.94</course>
  <speed>21.391196787463763</speed>
  <fix>3d</fix>
</trkpt>
<trkpt lat="-27.2750253" lon="151.2901576">
  <ele>372.84</ele>
  <time>2026-09-01T20:03:28Z</time>
  <course>255.18</course>
  <speed>21.39</speed>
  <fix>3d</fix>
</trkpt>
<trkpt lat="-27.2750423" lon="151.2900688">
  <ele>372.98</ele>
  <time>2026-09-01T20:03:28Z</time>
  <course>239.61</course>
  <speed>21.894405678163544</speed>
  <fix>3d</fix>
</trkpt>
<trkpt lat="-27.2750341" lon="151.290115">
  <ele>372.9</ele>
  <time>2026-09-01T20:03:28Z</time>
  <course>258.69</course>
  <speed>21.9</speed>
  <fix>3d</fix>
</trkpt>
<trkpt lat="-27.2750461" lon="151.2900471">
  <ele>373.03</ele>
  <time>2026-09-01T20:03:28Z</time>
  <course>241.34</course>
  <speed>21.894405678163544</speed>
  <fix>3d</fix>
</trkpt>
<trkpt lat="-27.2750341" lon="151.290115">
  <ele>372.9</ele>
  <time>2026-09-01T20:03:28Z</time>
  <course>258.69</course>
  <speed>21.9</speed>
  <fix>3d</fix>
</trkpt>
<trkpt lat="-27.2750464" lon="151.290023">
  <ele>372.85</ele>
  <time>2026-09-01T20:03:28Z</time>
  <course>243.08</course>
  <speed>22.442764981169322</speed>
  <fix>3d</fix>
</trkpt>
<trkpt lat="-27.2750407" lon="151.2900708">
  <ele>372.96</ele>
  <time>2026-09-01T20:03:28Z</time>
  <course>262.27</course>
  <speed>22.44</speed>
  <fix>3d</fix>
</trkpt>
<trkpt lat="-27.2750491" lon="151.2900005">
  <ele>373.0</ele>
  <time>2026-09-01T20:03:28Z</time>
  <course>244.85</course>
  <speed>22.442764981169322</speed>
  <fix>3d</fix>
</trkpt>
<trkpt lat="-27.2750407" lon="151.2900708">
  <ele>372.96</ele>
  <time>2026-09-01T20:03:28Z</time>
  <course>262.27</course>
  <speed>22.44</speed>
  <fix>3d</fix>
</trkpt>
<trkpt lat="-27.275048" lon="151.2899756">
  <ele>373.12</ele>
  <time>2026-09-01T20:03:28Z</time>
  <course>246.71</course>
  <speed>23.017786600800697</speed>
  <fix>3d</fix>
</trkpt>
<trkpt lat="-27.2750449" lon="151.290025">
  <ele>373.03</ele>
  <time>2026-09-01T20:03:28Z</time>
  <course>265.91</course>
  <speed>23.02</speed>
  <fix>3d</fix>
</trkpt>
<trkpt lat="-27.2750495" lon="151.2899524">
  <ele>373.28</ele>
  <time>2026-09-01T20:03:28Z</time>
  <course>248.55</course>
  <speed>23.017786600800697</speed>
  <fix>3d</fix>
</trkpt>
<trkpt lat="-27.2750449" lon="151.290025">
  <ele>373.03</ele>
  <time>2026-09-01T20:03:28Z</time>
  <course>265.91</course>
  <speed>23.02</speed>
  <fix>3d</fix>
</trkpt>
<trkpt lat="-27.2750467" lon="151.2899269">
  <ele>373.01</ele>
  <time>2026-09-01T20:03:28Z</time>
  <course>250.49</course>
  <speed>23.630414723402552</speed>
  <fix>3d</fix>
</trkpt>
<trkpt lat="-27.2750465" lon="151.289978">
  <ele>373.1</ele>
  <time>2026-09-01T20:03:28Z</time>
  <course>269.64</course>
  <speed>23.63</speed>
  <fix>3d</fix>
</trkpt>
<trkpt lat="-27.2750469" lon="151.2899031">
  <ele>373.24</ele>
  <time>2026-09-01T20:03:28Z</time>
  <course>252.54</course>
  <speed>23.630414723402552</speed>
  <fix>3d</fix>
</trkpt>
<trkpt lat="-27.2750465" lon="151.289978">
  <ele>373.1</ele>
  <time>2026-09-01T20:03:28Z</time>
  <course>269.64</course>
  <speed>23.63</speed>
  <fix>3d</fix>
</trkpt>
<trkpt lat="-27.2750425" lon="151.2898772">
  <ele>373.32</ele>
  <time>2026-09-01T20:03:28Z</time>
  <course>254.55</course>
  <speed>24.27394693905381</speed>
  <fix>3d</fix>
</trkpt>
<trkpt lat="-27.2750453" lon="151.2899296">
  <ele>373.18</ele>
  <time>2026-09-01T20:03:28Z</time>
  <course>273.45</course>
  <speed>24.27</speed>
  <fix>3d</fix>
</trkpt>
<trkpt lat="-27.2750412" lon="151.2898527">
  <ele>373.48</ele>
  <time>2026-09-01T20:03:28Z</time>
  <course>256.68</course>
  <speed>24.27394693905381</speed>
  <fix>3d</fix>
</trkpt>
<trkpt lat="-27.2750453" lon="151.2899296">
  <ele>373.18</ele>
  <time>2026-09-01T20:03:28Z</time>
  <course>273.45</course>
  <speed>24.27</speed>
  <fix>3d</fix>
</trkpt>
<trkpt lat="-27.275035" lon="151.2898266">
  <ele>373.36</ele>
  <time>2026-09-01T20:03:28Z</time>
  <course>258.83</course>
  <speed>24.943536236869065</speed>
  <fix>3d</fix>
</trkpt>
<trkpt lat="-27.2750411" lon="151.2898801">
  <ele>373.26</ele>
  <time>2026-09-01T20:03:28Z</time>
  <course>277.32</course>
  <speed>24.94</speed>
  <fix>3d</fix>
</trkpt>
<trkpt lat="-27.2750322" lon="151.2898016">
  <ele>373.47</ele>
  <time>2026-09-01T20:03:28Z</time>
  <course>260.98</course>
  <speed>24.943536236869065</speed>
  <fix>3d</fix>
</trkpt>
<trkpt lat="-27.2750411" lon="151.2898801">
  <ele>373.26</ele>
  <time>2026-09-01T20:03:28Z</time>
  <course>277.32</course>
  <speed>24.94</speed>
  <fix>3d</fix>
</trkpt>
<trkpt lat="-27.2750243" lon="151.2897755">
  <ele>373.26</ele>
  <time>2026-09-01T20:03:28Z</time>
  <course>263.23</course>
  <speed>25.632393567515305</speed>
  <fix>3d</fix>
</trkpt>
<trkpt lat="-27.2750338" lon="151.2898296">
  <ele>373.36</ele>
  <time>2026-09-01T20:03:28Z</time>
  <course>281.26</course>
  <speed>25.63</speed>
  <fix>3d</fix>
</trkpt>
<trkpt lat="-27.2750197" lon="151.2897499">
  <ele>373.53</ele>
  <time>2026-09-01T20:03:28Z</time>
  <course>265.46</course>
  <speed>25.632393567515305</speed>
  <fix>3d</fix>
</trkpt>
<trkpt lat="-27.2750338" lon="151.2898296">
  <ele>373.36</ele>
  <time>2026-09-01T20:03:28Z</time>
  <course>281.26</course>
  <speed>25.63</speed>
  <fix>3d</fix>
</trkpt>
<trkpt lat="-27.27501" lon="151.2897238">
  <ele>373.37</ele>
  <time>2026-09-01T20:03:28Z</time>
  <course>267.84</course>
  <speed>26.350332066218826</speed>
  <fix>3d</fix>
</trkpt>
<trkpt lat="-27.2750232" lon="151.2897785">
  <ele>373.46</ele>
  <time>2026-09-01T20:03:28Z</time>
  <course>285.28</course>
  <speed>26.35</speed>
  <fix>3d</fix>
</trkpt>
<trkpt lat="-27.2750037" lon="151.2896981">
  <ele>373.43</ele>
  <time>2026-09-01T20:03:28Z</time>
  <course>270.25</course>
  <speed>26.350332066218826</speed>
  <fix>3d</fix>
</trkpt>
<trkpt lat="-27.2750232" lon="151.2897785">
  <ele>373.46</ele>
  <time>2026-09-01T20:03:28Z</time>
  <course>285.28</course>
  <speed>26.35</speed>
  <fix>3d</fix>
</trkpt>
<trkpt lat="-27.2749916" lon="151.289672">
  <ele>373.53</ele>
  <time>2026-09-01T20:03:28Z</time>
  <course>272.63</course>
  <speed>27.098221343844692</speed>
  <fix>3d</fix>
</trkpt>
<trkpt lat="-27.2750088" lon="151.289727">
  <ele>373.57</ele>
  <time>2026-09-01T20:03:28Z</time>
  <course>289.4</course>
  <speed>27.1</speed>
  <fix>3d</fix>
</trkpt>
<trkpt lat="-27.2749835" lon="151.2896462">
  <ele>373.91</ele>
  <time>2026-09-01T20:03:28Z</time>
  <course>275.24</course>
  <speed>27.098221343844692</speed>
  <fix>3d</fix>
</trkpt>
<trkpt lat="-27.2750088" lon="151.289727">
  <ele>373.57</ele>
  <time>2026-09-01T20:03:28Z</time>
  <course>289.4</course>
  <speed>27.1</speed>
  <fix>3d</fix>
</trkpt>
<trkpt lat="-27.2749694" lon="151.2896204">
  <ele>373.69</ele>
  <time>2026-09-01T20:03:28Z</time>
  <course>277.82</course>
  <speed>27.875804921113936</speed>
  <fix>3d</fix>
</trkpt>
<trkpt lat="-27.2749907" lon="151.2896753">
  <ele>373.69</ele>
  <time>2026-09-01T20:03:28Z</time>
  <course>293.62</course>
  <speed>27.87</speed>
  <fix>3d</fix>
</trkpt>
<trkpt lat="-27.2749593" lon="151.2895946">
  <ele>373.98</ele>
  <time>2026-09-01T20:03:28Z</time>
  <course>280.38</course>
  <speed>27.875804921113936</speed>
  <fix>3d</fix>
</trkpt>
<trkpt lat="-27.2749907" lon="151.2896753">
  <ele>373.69</ele>
  <time>2026-09-01T20:03:28Z</time>
  <course>293.62</course>
  <speed>27.87</speed>
  <fix>3d</fix>
</trkpt>
<trkpt lat="-27.274943" lon="151.2895693">
  <ele>373.75</ele>
  <time>2026-09-01T20:03:28Z</time>
  <course>283.12</course>
  <speed>28.661250844999767</speed>
  <fix>3d</fix>
</trkpt>
<trkpt lat="-27.2749686" lon="151.2896238">
  <ele>373.83</ele>
  <time>2026-09-01T20:03:28Z</time>
  <course>297.93</course>
  <speed>28.66</speed>
  <fix>3d</fix>
</trkpt>
<trkpt lat="-27.2749309" lon="151.2895437">
  <ele>374.04</ele>
  <time>2026-09-01T20:03:28Z</time>
  <course>285.95</course>
  <speed>28.661250844999767</speed>
  <fix>3d</fix>
</trkpt>
<trkpt lat="-27.2749686" lon="151.2896238">
  <ele>373.83</ele>
  <time>2026-09-01T20:03:28Z</time>
  <course>297.93</course>
  <speed>28.66</speed>
  <fix>3d</fix>
</trkpt>
<trkpt lat="-27.2749122" lon="151.2895195">
  <ele>374.15</ele>
  <time>2026-09-01T20:03:28Z</time>
  <course>288.87</course>
  <speed>29.451519485418743</speed>
  <fix>3d</fix>
</trkpt>
<trkpt lat="-27.2749423" lon="151.289573">
  <ele>373.97</ele>
  <time>2026-09-01T20:03:28Z</time>
  <course>302.36</course>
  <speed>29.46</speed>
  <fix>3d</fix>
</trkpt>
<trkpt lat="-27.274898" lon="151.2894943">
  <ele>374.32</ele>
  <time>2026-09-01T20:03:28Z</time>
  <course>291.81</course>
  <speed>29.451519485418743</speed>
  <fix>3d</fix>
</trkpt>
<trkpt lat="-27.2749423" lon="151.289573">
  <ele>373.97</ele>
  <time>2026-09-01T20:03:28Z</time>
  <course>302.36</course>
  <speed>29.46</speed>
  <fix>3d</fix>
</trkpt>
<trkpt lat="-27.274877" lon="151.2894714">
  <ele>374.15</ele>
  <time>2026-09-01T20:03:28Z</time>
  <course>294.84</course>
  <speed>30.258031991522515</speed>
  <fix>3d</fix>
</trkpt>
<trkpt lat="-27.2749118" lon="151.2895234">
  <ele>374.14</ele>
  <time>2026-09-01T20:03:28Z</time>
  <course>306.95</course>
  <speed>30.26</speed>
  <fix>3d</fix>
</trkpt>
<trkpt lat="-27.2748607" lon="151.2894469">
  <ele>374.54</ele>
  <time>2026-09-01T20:03:28Z</time>
  <course>297.92</course>
  <speed>30.258031991522515</speed>
  <fix>3d</fix>
</trkpt>
<trkpt lat="-27.2749118" lon="151.2895234">
  <ele>374.14</ele>
  <time>2026-09-01T20:03:28Z</time>
  <course>306.95</course>
  <speed>30.26</speed>
  <fix>3d</fix>
</trkpt>
<trkpt lat="-27.2748372" lon="151.2894253">
  <ele>374.38</ele>
  <time>2026-09-01T20:03:28Z</time>
  <course>301.1</course>
  <speed>31.06485152064951</speed>
  <fix>3d</fix>
</trkpt>
<trkpt lat="-27.2748769" lon="151.2894754">
  <ele>374.31</ele>
  <time>2026-09-01T20:03:28Z</time>
  <course>311.7</course>
  <speed>31.06</speed>
  <fix>3d</fix>
</trkpt>
<trkpt lat="-27.2748186" lon="151.2894018">
  <ele>374.56</ele>
  <time>2026-09-01T20:03:28Z</time>
  <course>304.28</course>
  <speed>31.06485152064951</speed>
  <fix>3d</fix>
</trkpt>
<trkpt lat="-27.2748769" lon="151.2894754">
  <ele>374.31</ele>
  <time>2026-09-01T20:03:28Z</time>
  <course>311.7</course>
  <speed>31.06</speed>
  <fix>3d</fix>
</trkpt>
<trkpt lat="-27.2747932" lon="151.2893825">
  <ele>374.76</ele>
  <time>2026-09-01T20:03:28Z</time>
  <course>307.66</course>
  <speed>31.845633923663694</speed>
  <fix>3d</fix>
</trkpt>
<trkpt lat="-27.2748376" lon="151.2894298">
  <ele>374.51</ele>
  <time>2026-09-01T20:03:28Z</time>
  <course>316.55</course>
  <speed>31.85</speed>
  <fix>3d</fix>
</trkpt>
<trkpt lat="-27.2747724" lon="151.2893603">
  <ele>374.88</ele>
  <time>2026-09-01T20:03:28Z</time>
  <course>311.14</course>
  <speed>31.845633923663694</speed>
  <fix>3d</fix>
</trkpt>
<trkpt lat="-27.2748376" lon="151.2894298">
  <ele>374.51</ele>
  <time>2026-09-01T20:03:28Z</time>
  <course>316.55</course>
  <speed>31.85</speed>
  <fix>3d</fix>
</trkpt>
<trkpt lat="-27.2747447" lon="151.2893434">
  <ele>374.96</ele>
  <time>2026-09-01T20:03:28Z</time>
  <course>314.58</course>
  <speed>32.60620339751318</speed>
  <fix>3d</fix>
</trkpt>
<trkpt lat="-27.2747938" lon="151.2893872">
  <ele>374.73</ele>
  <time>2026-09-01T20:03:28Z</time>
  <course>321.56</course>
  <speed>32.61</speed>
  <fix>3d</fix>
</trkpt>
<trkpt lat="-27.2747218" lon="151.2893229">
  <ele>375.24</ele>
  <time>2026-09-01T20:03:28Z</time>
  <course>318.14</course>
  <speed>32.60620339751318</speed>
  <fix>3d</fix>
</trkpt>
<trkpt lat="-27.2747938" lon="151.2893872">
  <ele>374.73</ele>
  <time>2026-09-01T20:03:28Z</time>
  <course>321.56</course>
  <speed>32.61</speed>
  <fix>3d</fix>
</trkpt>
<trkpt lat="-27.2746922" lon="151.2893087">
  <ele>375.17</ele>
  <time>2026-09-01T20:03:28Z</time>
  <course>321.85</course>
  <speed>33.33297616475313</speed>
  <fix>3d</fix>
</trkpt>
<trkpt lat="-27.2747458" lon="151.2893482">
  <ele>374.97</ele>
  <time>2026-09-01T20:03:28Z</time>
  <course>326.75</course>
  <speed>33.33</speed>
  <fix>3d</fix>
</trkpt>
<trkpt lat="-27.2746675" lon="151.2892904">
  <ele>375.14</ele>
  <time>2026-09-01T20:03:28Z</time>
  <course>325.48</course>
  <speed>33.33297616475313</speed>
  <fix>3d</fix>
</trkpt>
<trkpt lat="-27.2747458" lon="151.2893482">
  <ele>374.97</ele>
  <time>2026-09-01T20:03:28Z</time>
  <course>326.75</course>
  <speed>33.33</speed>
  <fix>3d</fix>
</trkpt>
<trkpt lat="-27.2746363" lon="151.2892794">
  <ele>375.29</ele>
  <time>2026-09-01T20:03:28Z</time>
  <course>329.22</course>
  <speed>33.997242535241</speed>
  <fix>3d</fix>
</trkpt>
<trkpt lat="-27.2746938" lon="151.2893136">
  <ele>375.23</ele>
  <time>2026-09-01T20:03:28Z</time>
  <course>332.11</course>
  <speed>34.0</speed>
  <fix>3d</fix>
</trkpt>
<trkpt lat="-27.2746093" lon="151.2892633">
  <ele>375.65</ele>
  <time>2026-09-01T20:03:28Z</time>
  <course>333.03</course>
  <speed>33.997242535241</speed>
  <fix>3d</fix>
</trkpt>
<trkpt lat="-27.2746938" lon="151.2893136">
  <ele>375.23</ele>
  <time>2026-09-01T20:03:28Z</time>
  <course>332.11</course>
  <speed>34.0</speed>
  <fix>3d</fix>
</trkpt>
<trkpt lat="-27.2745769" lon="151.2892557">
  <ele>375.74</ele>
  <time>2026-09-01T20:03:28Z</time>
  <course>336.96</course>
  <speed>34.59168975346535</speed>
  <fix>3d</fix>
</trkpt>
<trkpt lat="-27.274638" lon="151.2892841">
  <ele>375.52</ele>
  <time>2026-09-01T20:03:28Z</time>
  <course>337.55</course>
  <speed>34.59</speed>
  <fix>3d</fix>
</trkpt>
<trkpt lat="-27.2745481" lon="151.2892424">
  <ele>375.79</ele>
  <time>2026-09-01T20:03:28Z</time>
  <course>340.89</course>
  <speed>34.59168975346535</speed>
  <fix>3d</fix>
</trkpt>
<trkpt lat="-27.274638" lon="151.2892841">
  <ele>375.52</ele>
  <time>2026-09-01T20:03:28Z</time>
  <course>337.55</course>
  <speed>34.59</speed>
  <fix>3d</fix>
</trkpt>
<trkpt lat="-27.2745148" lon="151.2892385">
  <ele>375.97</ele>
  <time>2026-09-01T20:03:28Z</time>
  <course>344.9</course>
  <speed>35.10162674293031</speed>
  <fix>3d</fix>
</trkpt>
<trkpt lat="-27.274579" lon="151.2892604">
  <ele>375.82</ele>
  <time>2026-09-01T20:03:28Z</time>
  <course>343.12</course>
  <speed>35.1</speed>
  <fix>3d</fix>
</trkpt>
<trkpt lat="-27.2744846" lon="151.2892282">
  <ele>376.09</ele>
  <time>2026-09-01T20:03:28Z</time>
  <course>349.03</course>
  <speed>35.10162674293031</speed>
  <fix>3d</fix>
</trkpt>
<trkpt lat="-27.274579" lon="151.2892604">
  <ele>375.82</ele>
  <time>2026-09-01T20:03:28Z</time>
  <course>343.12</course>
  <speed>35.1</speed>
  <fix>3d</fix>
</trkpt>
<trkpt lat="-27.2744504" lon="151.2892283">
  <ele>376.54</ele>
  <time>2026-09-01T20:03:28Z</time>
  <course>353.15</course>
  <speed>35.495274333353166</speed>
  <fix>3d</fix>
</trkpt>
<trkpt lat="-27.2745173" lon="151.2892431">
  <ele>376.15</ele>
  <time>2026-09-01T20:03:28Z</time>
  <course>348.87</course>
  <speed>35.5</speed>
  <fix>3d</fix>
</trkpt>
<trkpt lat="-27.2744191" lon="151.2892214">
  <ele>376.59</ele>
  <time>2026-09-01T20:03:28Z</time>
  <course>357.18</course>
  <speed>35.495274333353166</speed>
  <fix>3d</fix>
</trkpt>
<trkpt lat="-27.2745173" lon="151.2892431">
  <ele>376.15</ele>
  <time>2026-09-01T20:03:28Z</time>
  <course>348.87</course>
  <speed>35.5</speed>
  <fix>3d</fix>
</trkpt>
<trkpt lat="-27.2743859" lon="151.2892259">
  <ele>376.63</ele>
  <time>2026-09-01T20:03:28Z</time>
  <course>1.17</course>
  <speed>35.7408239972164</speed>
  <fix>3d</fix>
</trkpt>
<trkpt lat="-27.274454" lon="151.2892329">
  <ele>376.5</ele>
  <time>2026-09-01T20:03:28Z</time>
  <course>354.71</course>
  <speed>35.74</speed>
  <fix>3d</fix>
</trkpt>
<trkpt lat="-27.274354" lon="151.2892225">
  <ele>377.21</ele>
  <time>2026-09-01T20:03:28Z</time>
  <course>5.09</course>
  <speed>35.7408239972164</speed>
  <fix>3d</fix>
</trkpt>
<trkpt lat="-27.274454" lon="151.2892329">
  <ele>376.5</ele>
  <time>2026-09-01T20:03:28Z</time>
  <course>354.71</course>
  <speed>35.74</speed>
  <fix>3d</fix>
</trkpt>
<trkpt lat="-27.2743213" lon="151.2892306">
  <ele>377.27</ele>
  <time>2026-09-01T20:03:28Z</time>
  <course>8.97</course>
  <speed>35.83151964402291</speed>
  <fix>3d</fix>
</trkpt>
<trkpt lat="-27.2743898" lon="151.2892299">
  <ele>376.87</ele>
  <time>2026-09-01T20:03:28Z</time>
  <course>0.54</course>
  <speed>35.83</speed>
  <fix>3d</fix>
</trkpt>
<trkpt lat="-27.2742891" lon="151.2892309">
  <ele>377.53</ele>
  <time>2026-09-01T20:03:28Z</time>
  <course>12.84</course>
  <speed>35.83151964402291</speed>
  <fix>3d</fix>
</trkpt>
<trkpt lat="-27.2743898" lon="151.2892299">
  <ele>376.87</ele>
  <time>2026-09-01T20:03:28Z</time>
  <course>0.54</course>
  <speed>35.83</speed>
  <fix>3d</fix>
</trkpt>
<trkpt lat="-27.2742573" lon="151.2892425">
  <ele>377.54</ele>
  <time>2026-09-01T20:03:28Z</time>
  <course>16.64</course>
  <speed>35.75008391598543</speed>
  <fix>3d</fix>
</trkpt>
<trkpt lat="-27.2743256" lon="151.2892342">
  <ele>377.27</ele>
  <time>2026-09-01T20:03:28Z</time>
  <course>6.22</course>
  <speed>35.75</speed>
  <fix>3d</fix>
</trkpt>
<trkpt lat="-27.2742254" lon="151.2892465">
  <ele>377.73</ele>
  <time>2026-09-01T20:03:28Z</time>
  <course>20.32</course>
  <speed>35.75008391598543</speed>
  <fix>3d</fix>
</trkpt>
<trkpt lat="-27.2743256" lon="151.2892342">
  <ele>377.27</ele>
  <time>2026-09-01T20:03:28Z</time>
  <course>6.22</course>
  <speed>35.75</speed>
  <fix>3d</fix>
</trkpt>
<trkpt lat="-27.2741956" lon="151.289261">
  <ele>378.05</ele>
  <time>2026-09-01T20:03:28Z</time>
  <course>23.89</course>
  <speed>35.51577818378755</speed>
  <fix>3d</fix>
</trkpt>
<trkpt lat="-27.2742624" lon="151.2892454">
  <ele>377.67</ele>
  <time>2026-09-01T20:03:28Z</time>
  <course>11.76</course>
  <speed>35.52</speed>
  <fix>3d</fix>
</trkpt>
<trkpt lat="-27.2741643" lon="151.2892683">
  <ele>378.26</ele>
  <time>2026-09-01T20:03:28Z</time>
  <course>27.45</course>
  <speed>35.51577818378755</speed>
  <fix>3d</fix>
</trkpt>
<trkpt lat="-27.2742624" lon="151.2892454">
  <ele>377.67</ele>
  <time>2026-09-01T20:03:28Z</time>
  <course>11.76</course>
  <speed>35.52</speed>
  <fix>3d</fix>
</trkpt>
<trkpt lat="-27.2741364" lon="151.2892855">
  <ele>378.25</ele>
  <time>2026-09-01T20:03:28Z</time>
  <course>30.99</course>
  <speed>35.16458019086819</speed>
  <fix>3d</fix>
</trkpt>
<trkpt lat="-27.274201" lon="151.2892632">
  <ele>378.07</ele>
  <time>2026-09-01T20:03:28Z</time>
  <course>17.1</course>
  <speed>35.17</speed>
  <fix>3d</fix>
</trkpt>
<trkpt lat="-27.2741062" lon="151.289296">
  <ele>378.64</ele>
  <time>2026-09-01T20:03:28Z</time>
  <course>34.53</course>
  <speed>35.16458019086819</speed>
  <fix>3d</fix>
</trkpt>
<trkpt lat="-27.274201" lon="151.2892632">
  <ele>378.07</ele>
  <time>2026-09-01T20:03:28Z</time>
  <course>17.1</course>
  <speed>35.17</speed>
  <fix>3d</fix>
</trkpt>
<trkpt lat="-27.2740802" lon="151.2893154">
  <ele>378.8</ele>
  <time>2026-09-01T20:03:28Z</time>
  <course>38.05</course>
  <speed>34.71684605490539</speed>
  <fix>3d</fix>
</trkpt>
<trkpt lat="-27.2741419" lon="151.289287">
  <ele>378.45</ele>
  <time>2026-09-01T20:03:28Z</time>
  <course>22.25</course>
  <speed>34.72</speed>
  <fix>3d</fix>
</trkpt>
<trkpt lat="-27.2740513" lon="151.2893287">
  <ele>379.01</ele>
  <time>2026-09-01T20:03:28Z</time>
  <course>41.48</course>
  <speed>34.71684605490539</speed>
  <fix>3d</fix>
</trkpt>
<trkpt lat="-27.2741419" lon="151.289287">
  <ele>378.45</ele>
  <time>2026-09-01T20:03:28Z</time>
  <course>22.25</course>
  <speed>34.72</speed>
  <fix>3d</fix>
</trkpt>
<trkpt lat="-27.2740277" lon="151.2893499">
  <ele>379.06</ele>
  <time>2026-09-01T20:03:28Z</time>
  <course>44.88</course>
  <speed>34.16116069456657</speed>
  <fix>3d</fix>
</trkpt>
<trkpt lat="-27.2740857" lon="151.2893162">
  <ele>378.79</ele>
  <time>2026-09-01T20:03:28Z</time>
  <course>27.33</course>
  <speed>34.16</speed>
  <fix>3d</fix>
</trkpt>
<trkpt lat="-27.2740004" lon="151.2893658">
  <ele>379.01</ele>
  <time>2026-09-01T20:03:28Z</time>
  <course>48.29</course>
  <speed>34.16116069456657</speed>
  <fix>3d</fix>
</trkpt>
<trkpt lat="-27.2740857" lon="151.2893162">
  <ele>378.79</ele>
  <time>2026-09-01T20:03:28Z</time>
  <course>27.33</course>
  <speed>34.16</speed>
  <fix>3d</fix>
</trkpt>
<trkpt lat="-27.2739789" lon="151.2893889">
  <ele>379.48</ele>
  <time>2026-09-01T20:03:28Z</time>
  <course>51.65</course>
  <speed>33.51566350230888</speed>
  <fix>3d</fix>
</trkpt>
<trkpt lat="-27.274033" lon="151.2893503">
  <ele>379.09</ele>
  <time>2026-09-01T20:03:28Z</time>
  <course>32.35</course>
  <speed>33.52</speed>
  <fix>3d</fix>
</trkpt>
<trkpt lat="-27.2739534" lon="151.289407">
  <ele>379.4</ele>
  <time>2026-09-01T20:03:28Z</time>
  <course>55.02</course>
  <speed>33.51566350230888</speed>
  <fix>3d</fix>
</trkpt>
<trkpt lat="-27.274033" lon="151.2893503">
  <ele>379.09</ele>
  <time>2026-09-01T20:03:28Z</time>
  <course>32.35</course>
  <speed>33.52</speed>
  <fix>3d</fix>
</trkpt>
<trkpt lat="-27.2739343" lon="151.2894314">
  <ele>379.43</ele>
  <time>2026-09-01T20:03:28Z</time>
  <course>58.33</course>
  <speed>32.7971782322809</speed>
  <fix>3d</fix>
</trkpt>
<trkpt lat="-27.2739841" lon="151.2893886">
  <ele>379.34</ele>
  <time>2026-09-01T20:03:28Z</time>
  <course>37.35</course>
  <speed>32.8</speed>
  <fix>3d</fix>
</trkpt>
<trkpt lat="-27.2739108" lon="151.2894515">
  <ele>379.42</ele>
  <time>2026-09-01T20:03:28Z</time>
  <course>61.64</course>
  <speed>32.7971782322809</speed>
  <fix>3d</fix>
</trkpt>
<trkpt lat="-27.2739841" lon="151.2893886">
  <ele>379.34</ele>
  <time>2026-09-01T20:03:28Z</time>
  <course>37.35</course>
  <speed>32.8</speed>
  <fix>3d</fix>
</trkpt>
<trkpt lat="-27.2738942" lon="151.289477">
  <ele>379.77</ele>
  <time>2026-09-01T20:03:28Z</time>
  <course>64.98</course>
  <speed>31.995049617089204</speed>
  <fix>3d</fix>
</trkpt>
<trkpt lat="-27.2739394" lon="151.2894306">
  <ele>379.53</ele>
  <time>2026-09-01T20:03:28Z</time>
  <course>42.36</course>
  <speed>32.0</speed>
  <fix>3d</fix>
</trkpt>
<trkpt lat="-27.273873" lon="151.2894988">
  <ele>379.72</ele>
  <time>2026-09-01T20:03:28Z</time>
  <course>68.17</course>
  <speed>31.995049617089204</speed>
  <fix>3d</fix>
</trkpt>
<trkpt lat="-27.2739394" lon="151.2894306">
  <ele>379.53</ele>
  <time>2026-09-01T20:03:28Z</time>
  <course>42.36</course>
  <speed>32.0</speed>
  <fix>3d</fix>
</trkpt>
<trkpt lat="-27.2738588" lon="151.2895249">
  <ele>379.57</ele>
  <time>2026-09-01T20:03:28Z</time>
  <course>71.3</course>
  <speed>31.125761034872706</speed>
  <fix>3d</fix>
</trkpt>
<trkpt lat="-27.2738991" lon="151.2894756">
  <ele>379.67</ele>
  <time>2026-09-01T20:03:28Z</time>
  <course>47.39</course>
  <speed>31.13</speed>
  <fix>3d</fix>
</trkpt>
<trkpt lat="-27.2738399" lon="151.289548">
  <ele>379.88</ele>
  <time>2026-09-01T20:03:28Z</time>
  <course>74.42</course>
  <speed>31.125761034872706</speed>
  <fix>3d</fix>
</trkpt>
<trkpt lat="-27.2738991" lon="151.2894756">
  <ele>379.67</ele>
  <time>2026-09-01T20:03:28Z</time>
  <course>47.39</course>
  <speed>31.13</speed>
  <fix>3d</fix>
</trkpt>
<trkpt lat="-27.2738284" lon="151.2895746">
  <ele>379.89</ele>
  <time>2026-09-01T20:03:28Z</time>
  <course>77.47</course>
  <speed>30.19836584982704</speed>
  <fix>3d</fix>
</trkpt>
<trkpt lat="-27.2738636" lon="151.2895231">
  <ele>379.75</ele>
  <time>2026-09-01T20:03:28Z</time>
  <course>52.4</course>
  <speed>30.2</speed>
  <fix>3d</fix>
</trkpt>
<trkpt lat="-27.2738118" lon="151.2895988">
  <ele>379.71</ele>
  <time>2026-09-01T20:03:28Z</time>
  <course>80.46</course>
  <speed>30.19836584982704</speed>
  <fix>3d</fix>
</trkpt>
<trkpt lat="-27.2738636" lon="151.2895231">
  <ele>379.75</ele>
  <time>2026-09-01T20:03:28Z</time>
  <course>52.4</course>
  <speed>30.2</speed>
  <fix>3d</fix>
</trkpt>
<trkpt lat="-27.2738028" lon="151.289625">
  <ele>379.7</ele>
  <time>2026-09-01T20:03:28Z</time>
  <course>83.27</course>
  <speed>29.212343281565072</speed>
  <fix>3d</fix>
</trkpt>
<trkpt lat="-27.2738329" lon="151.2895721">
  <ele>379.76</ele>
  <time>2026-09-01T20:03:28Z</time>
  <course>57.33</course>
  <speed>29.22</speed>
  <fix>3d</fix>
</trkpt>
<trkpt lat="-27.2737886" lon="151.2896499">
  <ele>379.86</ele>
  <time>2026-09-01T20:03:28Z</time>
  <course>86.0</course>
  <speed>29.212343281565072</speed>
  <fix>3d</fix>
</trkpt>
<trkpt lat="-27.2738329" lon="151.2895721">
  <ele>379.76</ele>
  <time>2026-09-01T20:03:28Z</time>
  <course>57.33</course>
  <speed>29.22</speed>
  <fix>3d</fix>
</trkpt>
<trkpt lat="-27.2737817" lon="151.2896762">
  <ele>379.6</ele>
  <time>2026-09-01T20:03:28Z</time>
  <course>88.74</course>
  <speed>28.20427272595413</speed>
  <fix>3d</fix>
</trkpt>
<trkpt lat="-27.273807" lon="151.2896223">
  <ele>379.72</ele>
  <time>2026-09-01T20:03:28Z</time>
  <course>62.11</course>
  <speed>28.21</speed>
  <fix>3d</fix>
</trkpt>
<trkpt lat="-27.2737698" lon="151.2897014">
  <ele>379.42</ele>
  <time>2026-09-01T20:03:28Z</time>
  <course>91.37</course>
  <speed>28.20427272595413</speed>
  <fix>3d</fix>
</trkpt>
<trkpt lat="-27.273807" lon="151.2896223">
  <ele>379.72</ele>
  <time>2026-09-01T20:03:28Z</time>
  <course>62.11</course>
  <speed>28.21</speed>
  <fix>3d</fix>
</trkpt>
<trkpt lat="-27.2737649" lon="151.2897267">
  <ele>379.3</ele>
  <time>2026-09-01T20:03:28Z</time>
  <course>93.82</course>
  <speed>27.190954378248662</speed>
  <fix>3d</fix>
</trkpt>
<trkpt lat="-27.2737855" lon="151.2896727">
  <ele>379.61</ele>
  <time>2026-09-01T20:03:28Z</time>
  <course>66.72</course>
  <speed>27.19</speed>
  <fix>3d</fix>
</trkpt>
<trkpt lat="-27.2737552" lon="151.2897519">
  <ele>379.16</ele>
  <time>2026-09-01T20:03:28Z</time>
  <course>96.15</course>
  <speed>27.190954378248662</speed>
  <fix>3d</fix>
</trkpt>
<trkpt lat="-27.2737855" lon="151.2896727">
  <ele>379.61</ele>
  <time>2026-09-01T20:03:28Z</time>
  <course>66.72</course>
  <speed>27.19</speed>
  <fix>3d</fix>
</trkpt>
<trkpt lat="-27.2737521" lon="151.2897767">
  <ele>379.38</ele>
  <time>2026-09-01T20:03:28Z</time>
  <course>98.48</course>
  <speed>26.18111724124851</speed>
  <fix>3d</fix>
</trkpt>
<trkpt lat="-27.2737683" lon="151.2897231">
  <ele>379.43</ele>
  <time>2026-09-01T20:03:28Z</time>
  <course>71.16</course>
  <speed>26.19</speed>
  <fix>3d</fix>
</trkpt>
<trkpt lat="-27.2737445" lon="151.2898017">
  <ele>379.02</ele>
  <time>2026-09-01T20:03:28Z</time>
  <course>100.7</course>
  <speed>26.18111724124851</speed>
  <fix>3d</fix>
</trkpt>
<trkpt lat="-27.2737683" lon="151.2897231">
  <ele>379.43</ele>
  <time>2026-09-01T20:03:28Z</time>
  <course>71.16</course>
  <speed>26.19</speed>
  <fix>3d</fix>
</trkpt>
<trkpt lat="-27.2737429" lon="151.2898256">
  <ele>378.91</ele>
  <time>2026-09-01T20:03:28Z</time>
  <course>102.82</course>
  <speed>25.22494202173714</speed>
  <fix>3d</fix>
</trkpt>
<trkpt lat="-27.2737551" lon="151.2897728">
  <ele>379.18</ele>
  <time>2026-09-01T20:03:28Z</time>
  <course>75.39</course>
  <speed>25.23</speed>
  <fix>3d</fix>
</trkpt>
<trkpt lat="-27.2737373" lon="151.28985">
  <ele>378.76</ele>
  <time>2026-09-01T20:03:28Z</time>
  <course>104.86</course>
  <speed>25.22494202173714</speed>
  <fix>3d</fix>
</trkpt>
<trkpt lat="-27.2737551" lon="151.2897728">
  <ele>379.18</ele>
  <time>2026-09-01T20:03:28Z</time>
  <course>75.39</course>
  <speed>25.23</speed>
  <fix>3d</fix>
</trkpt>
<trkpt lat="-27.2737369" lon="151.289873">
  <ele>378.42</ele>
  <time>2026-09-01T20:03:28Z</time>
  <course>106.87</course>
  <speed>24.312581105263174</speed>
  <fix>3d</fix>
</trkpt>
<trkpt lat="-27.2737454" lon="151.2898216">
  <ele>378.85</ele>
  <time>2026-09-01T20:03:28Z</time>
  <course>79.41</course>
  <speed>24.31</speed>
  <fix>3d</fix>
</trkpt>
<trkpt lat="-27.2737329" lon="151.2898972">
  <ele>378.25</ele>
  <time>2026-09-01T20:03:28Z</time>
  <course>108.78</course>
  <speed>24.312581105263174</speed>
  <fix>3d</fix>
</trkpt>
<trkpt lat="-27.2737454" lon="151.2898216">
  <ele>378.85</ele>
  <time>2026-09-01T20:03:28Z</time>
  <course>79.41</course>
  <speed>24.31</speed>
  <fix>3d</fix>
</trkpt>
<trkpt lat="-27.2737337" lon="151.2899194">
  <ele>377.89</ele>
  <time>2026-09-01T20:03:28Z</time>
  <course>110.67</course>
  <speed>23.44186212739935</speed>
  <fix>3d</fix>
</trkpt>
<trkpt lat="-27.2737389" lon="151.2898693">
  <ele>378.43</ele>
  <time>2026-09-01T20:03:28Z</time>
  <course>83.25</course>
  <speed>23.44</speed>
  <fix>3d</fix>
</trkpt>
<trkpt lat="-27.2737312" lon="151.2899429">
  <ele>377.61</ele>
  <time>2026-09-01T20:03:28Z</time>
  <course>112.48</course>
  <speed>23.44186212739935</speed>
  <fix>3d</fix>
</trkpt>
<trkpt lat="-27.2737389" lon="151.2898693">
  <ele>378.43</ele>
  <time>2026-09-01T20:03:28Z</time>
  <course>83.25</course>
  <speed>23.44</speed>
  <fix>3d</fix>
</trkpt>
<trkpt lat="-27.2737331" lon="151.2899644">
  <ele>377.51</ele>
  <time>2026-09-01T20:03:28Z</time>
  <course>114.32</course>
  <speed>22.62079795232697</speed>
  <fix>3d</fix>
</trkpt>
<trkpt lat="-27.2737353" lon="151.2899158">
  <ele>377.94</ele>
  <time>2026-09-01T20:03:28Z</time>
  <course>87.0</course>
  <speed>22.62</speed>
  <fix>3d</fix>
</trkpt>
<trkpt lat="-27.273732" lon="151.2899872">
  <ele>377.1</ele>
  <time>2026-09-01T20:03:28Z</time>
  <course>116.12</course>
  <speed>22.62079795232697</speed>
  <fix>3d</fix>
</trkpt>
<trkpt lat="-27.2737353" lon="151.2899158">
  <ele>377.94</ele>
  <time>2026-09-01T20:03:28Z</time>
  <course>87.0</course>
  <speed>22.62</speed>
  <fix>3d</fix>
</trkpt>
<trkpt lat="-27.2737349" lon="151.2900078">
  <ele>376.93</ele>
  <time>2026-09-01T20:03:28Z</time>
  <course>117.87</course>
  <speed>21.861667365505312</speed>
  <fix>3d</fix>
</trkpt>
<trkpt lat="-27.2737344" lon="151.2899608">
  <ele>377.36</ele>
  <time>2026-09-01T20:03:28Z</time>
  <course>90.71</course>
  <speed>21.86</speed>
  <fix>3d</fix>
</trkpt>
<trkpt lat="-27.2737351" lon="151.2900299">
  <ele>376.29</ele>
  <time>2026-09-01T20:03:28Z</time>
  <course>119.6</course>
  <speed>21.861667365505312</speed>
  <fix>3d</fix>
</trkpt>
<trkpt lat="-27.2737344" lon="151.2899608">
  <ele>377.36</ele>
  <time>2026-09-01T20:03:28Z</time>
  <course>90.71</course>
  <speed>21.86</speed>
  <fix>3d</fix>
</trkpt>
<trkpt lat="-27.2737393" lon="151.2900496">
  <ele>375.96</ele>
  <time>2026-09-01T20:03:28Z</time>
  <course>121.37</course>
  <speed>21.153668712542512</speed>
  <fix>3d</fix>
</trkpt>
<trkpt lat="-27.2737362" lon="151.2900042">
  <ele>376.72</ele>
  <time>2026-09-01T20:03:28Z</time>
  <course>94.45</course>
  <speed>21.16</speed>
  <fix>3d</fix>
</trkpt>
<trkpt lat="-27.2737408" lon="151.2900709">
  <ele>375.66</ele>
  <time>2026-09-01T20:03:28Z</time>
  <course>123.15</course>
  <speed>21.153668712542512</speed>
  <fix>3d</fix>
</trkpt>
<trkpt lat="-27.2737362" lon="151.2900042">
  <ele>376.72</ele>
  <time>2026-09-01T20:03:28Z</time>
  <course>94.45</course>
  <speed>21.16</speed>
  <fix>3d</fix>
</trkpt>
<trkpt lat="-27.2737459" lon="151.2900897">
  <ele>375.18</ele>
  <time>2026-09-01T20:03:28Z</time>
  <course>124.91</course>
  <speed>20.513227439874008</speed>
  <fix>3d</fix>
</trkpt>
<trkpt lat="-27.2737403" lon="151.290046">
  <ele>376.03</ele>
  <time>2026-09-01T20:03:28Z</time>
  <course>98.28</course>
  <speed>20.52</speed>
  <fix>3d</fix>
</trkpt>
<trkpt lat="-27.2737486" lon="151.2901102">
  <ele>374.91</ele>
  <time>2026-09-01T20:03:28Z</time>
  <course>126.66</course>
  <speed>20.513227439874008</speed>
  <fix>3d</fix>
</trkpt>
<trkpt lat="-27.2737403" lon="151.290046">
  <ele>376.03</ele>
  <time>2026-09-01T20:03:28Z</time>
  <course>98.28</course>
  <speed>20.52</speed>
  <fix>3d</fix>
</trkpt>
<trkpt lat="-27.2737549" lon="151.2901281">
  <ele>374.59</ele>
  <time>2026-09-01T20:03:28Z</time>
  <course>128.42</course>
  <speed>19.93609791308219</speed>
  <fix>3d</fix>
</trkpt>
<trkpt lat="-27.2737468" lon="151.2900862">
  <ele>375.29</ele>
  <time>2026-09-01T20:03:28Z</time>
  <course>102.28</course>
  <speed>19.93</speed>
  <fix>3d</fix>
</trkpt>
<trkpt lat="-27.2737587" lon="151.2901478">
  <ele>374.22</ele>
  <time>2026-09-01T20:03:28Z</time>
  <course>130.19</course>
  <speed>19.93609791308219</speed>
  <fix>3d</fix>
</trkpt>
<trkpt lat="-27.2737468" lon="151.2900862">
  <ele>375.29</ele>
  <time>2026-09-01T20:03:28Z</time>
  <course>102.28</course>
  <speed>19.93</speed>
  <fix>3d</fix>
</trkpt>
<trkpt lat="-27.2737661" lon="151.2901647">
  <ele>373.81</ele>
  <time>2026-09-01T20:03:28Z</time>
  <course>131.91</course>
  <speed>19.415313543695348</speed>
  <fix>3d</fix>
</trkpt>
<trkpt lat="-27.2737556" lon="151.2901247">
  <ele>374.53</ele>
  <time>2026-09-01T20:03:28Z</time>
  <course>106.46</course>
  <speed>19.42</speed>
  <fix>3d</fix>
</trkpt>
<trkpt lat="-27.273771" lon="151.2901836">
  <ele>373.52</ele>
  <time>2026-09-01T20:03:28Z</time>
  <course>133.62</course>
  <speed>19.415313543695348</speed>
  <fix>3d</fix>
</trkpt>
<trkpt lat="-27.2737556" lon="151.2901247">
  <ele>374.53</ele>
  <time>2026-09-01T20:03:28Z</time>
  <course>106.46</course>
  <speed>19.42</speed>
  <fix>3d</fix>
</trkpt>
<trkpt lat="-27.2737794" lon="151.2901998">
  <ele>373.21</ele>
  <time>2026-09-01T20:03:28Z</time>
  <course>135.34</course>
  <speed>18.964329674417705</speed>
  <fix>3d</fix>
</trkpt>
<trkpt lat="-27.2737665" lon="151.2901615">
  <ele>373.77</ele>
  <time>2026-09-01T20:03:28Z</time>
  <course>110.78</course>
  <speed>18.97</speed>
  <fix>3d</fix>
</trkpt>
<trkpt lat="-27.2737854" lon="151.2902177">
  <ele>372.54</ele>
  <time>2026-09-01T20:03:28Z</time>
  <course>137.08</course>
  <speed>18.964329674417705</speed>
  <fix>3d</fix>
</trkpt>
<trkpt lat="-27.2737665" lon="151.2901615">
  <ele>373.77</ele>
  <time>2026-09-01T20:03:28Z</time>
  <course>110.78</course>
  <speed>18.97</speed>
  <fix>3d</fix>
</trkpt>
<trkpt lat="-27.2737949" lon="151.2902327">
  <ele>372.38</ele>
  <time>2026-09-01T20:03:28Z</time>
  <course>138.65</course>
  <speed>18.573801441815835</speed>
  <fix>3d</fix>
</trkpt>
<trkpt lat="-27.2737797" lon="151.2901964">
  <ele>373.03</ele>
  <time>2026-09-01T20:03:28Z</time>
  <course>115.18</course>
  <speed>18.58</speed>
  <fix>3d</fix>
</trkpt>
<trkpt lat="-27.273802" lon="151.2902497">
  <ele>372.12</ele>
  <time>2026-09-01T20:03:28Z</time>
  <course>140.19</course>
  <speed>18.573801441815835</speed>
  <fix>3d</fix>
</trkpt>
<trkpt lat="-27.2737797" lon="151.2901964">
  <ele>373.03</ele>
  <time>2026-09-01T20:03:28Z</time>
  <course>115.18</course>
  <speed>18.58</speed>
  <fix>3d</fix>
</trkpt>
<trkpt lat="-27.2738123" lon="151.2902637">
  <ele>371.78</ele>
  <time>2026-09-01T20:03:28Z</time>
  <course>141.65</course>
  <speed>18.25424060321327</speed>
  <fix>3d</fix>
</trkpt>
<trkpt lat="-27.273795" lon="151.2902294">
  <ele>372.34</ele>
  <time>2026-09-01T20:03:28Z</time>
  <course>119.6</course>
  <speed>18.25</speed>
  <fix>3d</fix>
</trkpt>
<trkpt lat="-27.2738204" lon="151.2902797">
  <ele>371.5</ele>
  <time>2026-09-01T20:03:28Z</time>
  <course>143.07</course>
  <speed>18.25424060321327</speed>
  <fix>3d</fix>
</trkpt>
<trkpt lat="-27.273795" lon="151.2902294">
  <ele>372.34</ele>
  <time>2026-09-01T20:03:28Z</time>
  <course>119.6</course>
  <speed>18.25</speed>
  <fix>3d</fix>
</trkpt>
<trkpt lat="-27.2738313" lon="151.2902927">
  <ele>371.01</ele>
  <time>2026-09-01T20:03:28Z</time>
  <course>144.42</course>
  <speed>18.002871993101547</speed>
  <fix>3d</fix>
</trkpt>
<trkpt lat="-27.2738121" lon="151.2902606">
  <ele>371.7</ele>
  <time>2026-09-01T20:03:28Z</time>
  <course>123.86</course>
  <speed>18.0</speed>
  <fix>3d</fix>
</trkpt>
<trkpt lat="-27.2738403" lon="151.2903079">
  <ele>371.08</ele>
  <time>2026-09-01T20:03:28Z</time>
  <course>145.72</course>
  <speed>18.002871993101547</speed>
  <fix>3d</fix>
</trkpt>
<trkpt lat="-27.2738121" lon="151.2902606">
  <ele>371.7</ele>
  <time>2026-09-01T20:03:28Z</time>
  <course>123.86</course>
  <speed>18.0</speed>
  <fix>3d</fix>
</trkpt>
<trkpt lat="-27.2738518" lon="151.2903202">
  <ele>370.77</ele>
  <time>2026-09-01T20:03:28Z</time>
  <course>147.0</course>
  <speed>17.824457916020897</speed>
  <fix>3d</fix>
</trkpt>
<trkpt lat="-27.2738309" lon="151.2902899">
  <ele>371.13</ele>
  <time>2026-09-01T20:03:28Z</time>
  <course>127.81</course>
  <speed>17.83</speed>
  <fix>3d</fix>
</trkpt>
<trkpt lat="-27.2738616" lon="151.2903344">
  <ele>370.47</ele>
  <time>2026-09-01T20:03:28Z</time>
  <course>148.16</course>
  <speed>17.824457916020897</speed>
  <fix>3d</fix>
</trkpt>
<trkpt lat="-27.2738309" lon="151.2902899">
  <ele>371.13</ele>
  <time>2026-09-01T20:03:28Z</time>
  <course>127.81</course>
  <speed>17.83</speed>
  <fix>3d</fix>
</trkpt>
<trkpt lat="-27.2738737" lon="151.290346">
  <ele>370.07</ele>
  <time>2026-09-01T20:03:28Z</time>
  <course>149.21</course>
  <speed>17.704555910838316</speed>
  <fix>3d</fix>
</trkpt>
<trkpt lat="-27.2738513" lon="151.2903175">
  <ele>370.62</ele>
  <time>2026-09-01T20:03:28Z</time>
  <course>131.43</course>
  <speed>17.71</speed>
  <fix>3d</fix>
</trkpt>
<trkpt lat="-27.2738842" lon="151.2903595">
  <ele>369.86</ele>
  <time>2026-09-01T20:03:28Z</time>
  <course>150.17</course>
  <speed>17.704555910838316</speed>
  <fix>3d</fix>
</trkpt>
<trkpt lat="-27.2738513" lon="151.2903175">
  <ele>370.62</ele>
  <time>2026-09-01T20:03:28Z</time>
  <course>131.43</course>
  <speed>17.71</speed>
  <fix>3d</fix>
</trkpt>
<trkpt lat="-27.2738967" lon="151.2903706">
  <ele>369.82</ele>
  <time>2026-09-01T20:03:28Z</time>
  <course>151.13</course>
  <speed>17.628491143600463</speed>
  <fix>3d</fix>
</trkpt>
<trkpt lat="-27.273873" lon="151.2903437">
  <ele>370.18</ele>
  <time>2026-09-01T20:03:28Z</time>
  <course>134.66</course>
  <speed>17.63</speed>
  <fix>3d</fix>
</trkpt>
<trkpt lat="-27.2739078" lon="151.2903833">
  <ele>369.78</ele>
  <time>2026-09-01T20:03:28Z</time>
  <course>152.02</course>
  <speed>17.628491143600463</speed>
  <fix>3d</fix>
</trkpt>
<trkpt lat="-27.273873" lon="151.2903437">
  <ele>370.18</ele>
  <time>2026-09-01T20:03:28Z</time>
  <course>134.66</course>
  <speed>17.63</speed>
  <fix>3d</fix>
</trkpt>
<trkpt lat="-27.2739206" lon="151.2903939">
  <ele>369.62</ele>
  <time>2026-09-01T20:03:28Z</time>
  <course>152.85</course>
  <speed>17.602014089302394</speed>
  <fix>3d</fix>
</trkpt>
<trkpt lat="-27.2738958" lon="151.2903683">
  <ele>369.81</ele>
  <time>2026-09-01T20:03:28Z</time>
  <course>137.45</course>
  <speed>17.6</speed>
  <fix>3d</fix>
</trkpt>
<trkpt lat="-27.2739322" lon="151.2904059">
  <ele>369.23</ele>
  <time>2026-09-01T20:03:28Z</time>
  <course>153.56</course>
  <speed>17.602014089302394</speed>
  <fix>3d</fix>
</trkpt>
<trkpt lat="-27.2738958" lon="151.2903683">
  <ele>369.81</ele>
  <time>2026-09-01T20:03:28Z</time>
  <course>137.45</course>
  <speed>17.6</speed>
  <fix>3d</fix>
</trkpt>
<trkpt lat="-27.2739453" lon="151.2904162">
  <ele>369.3</ele>
  <time>2026-09-01T20:03:28Z</time>
  <course>154.24</course>
  <speed>17.599005653729417</speed>
  <fix>3d</fix>
</trkpt>
<trkpt lat="-27.2739196" lon="151.2903918">
  <ele>369.5</ele>
  <time>2026-09-01T20:03:28Z</time>
  <course>139.84</course>
  <speed>17.6</speed>
  <fix>3d</fix>
</trkpt>
<trkpt lat="-27.2739574" lon="151.2904277">
  <ele>369.03</ele>
  <time>2026-09-01T20:03:28Z</time>
  <course>154.88</course>
  <speed>17.599005653729417</speed>
  <fix>3d</fix>
</trkpt>
<trkpt lat="-27.2739196" lon="151.2903918">
  <ele>369.5</ele>
  <time>2026-09-01T20:03:28Z</time>
  <course>139.84</course>
  <speed>17.6</speed>
  <fix>3d</fix>
</trkpt>
<trkpt lat="-27.2739706" lon="151.2904376">
  <ele>368.93</ele>
  <time>2026-09-01T20:03:28Z</time>
  <course>155.49</course>
  <speed>17.61240755830957</speed>
  <fix>3d</fix>
</trkpt>
<trkpt lat="-27.2739441" lon="151.2904142">
  <ele>369.24</ele>
  <time>2026-09-01T20:03:28Z</time>
  <course>141.85</course>
  <speed>17.61</speed>
  <fix>3d</fix>
</trkpt>
<trkpt lat="-27.273983" lon="151.2904486">
  <ele>369.04</ele>
  <time>2026-09-01T20:03:28Z</time>
  <course>156.12</course>
  <speed>17.61240755830957</speed>
  <fix>3d</fix>
</trkpt>
<trkpt lat="-27.2739441" lon="151.2904142">
  <ele>369.24</ele>
  <time>2026-09-01T20:03:28Z</time>
  <course>141.85</course>
  <speed>17.61</speed>
  <fix>3d</fix>
</trkpt>
<trkpt lat="-27.2739964" lon="151.2904583">
  <ele>368.92</ele>
  <time>2026-09-01T20:03:28Z</time>
  <course>156.67</course>
  <speed>17.63453997131765</speed>
  <fix>3d</fix>
</trkpt>
<trkpt lat="-27.2739693" lon="151.2904358">
  <ele>369.04</ele>
  <time>2026-09-01T20:03:28Z</time>
  <course>143.57</course>
  <speed>17.64</speed>
  <fix>3d</fix>
</trkpt>
<trkpt lat="-27.2740092" lon="151.2904689">
  <ele>368.85</ele>
  <time>2026-09-01T20:03:28Z</time>
  <course>157.22</course>
  <speed>17.63453997131765</speed>
  <fix>3d</fix>
</trkpt>
<trkpt lat="-27.2739693" lon="151.2904358">
  <ele>369.04</ele>
  <time>2026-09-01T20:03:28Z</time>
  <course>143.57</course>
  <speed>17.64</speed>
  <fix>3d</fix>
</trkpt>
<trkpt lat="-27.2740229" lon="151.2904784">
  <ele>368.72</ele>
  <time>2026-09-01T20:03:28Z</time>
  <course>157.69</course>
  <speed>17.668395512892506</speed>
  <fix>3d</fix>
</trkpt>
<trkpt lat="-27.2739951" lon="151.2904566">
  <ele>368.9</ele>
  <time>2026-09-01T20:03:28Z</time>
  <course>145.08</course>
  <speed>17.67</speed>
  <fix>3d</fix>
</trkpt>
<trkpt lat="-27.2740359" lon="151.2904887">
  <ele>368.78</ele>
  <time>2026-09-01T20:03:28Z</time>
  <course>158.13</course>
  <speed>17.668395512892506</speed>
  <fix>3d</fix>
</trkpt>
<trkpt lat="-27.2739951" lon="151.2904566">
  <ele>368.9</ele>
  <time>2026-09-01T20:03:28Z</time>
  <course>145.08</course>
  <speed>17.67</speed>
  <fix>3d</fix>
</trkpt>
<trkpt lat="-27.2740497" lon="151.2904978">
  <ele>368.87</ele>
  <time>2026-09-01T20:03:28Z</time>
  <course>158.56</course>
  <speed>17.700579086572283</speed>
  <fix>3d</fix>
</trkpt>
<trkpt lat="-27.2740214" lon="151.2904767">
  <ele>368.8</ele>
  <time>2026-09-01T20:03:28Z</time>
  <course>146.5</course>
  <speed>17.7</speed>
  <fix>3d</fix>
</trkpt>
<trkpt lat="-27.274063" lon="151.2905077">
  <ele>368.91</ele>
  <time>2026-09-01T20:03:28Z</time>
  <course>159.02</course>
  <speed>17.700579086572283</speed>
  <fix>3d</fix>
</trkpt>
<trkpt lat="-27.2740214" lon="151.2904767">
  <ele>368.8</ele>
  <time>2026-09-01T20:03:28Z</time>
  <course>146.5</course>
  <speed>17.7</speed>
  <fix>3d</fix>
</trkpt>
<trkpt lat="-27.2740769" lon="151.2905164">
  <ele>368.89</ele>
  <time>2026-09-01T20:03:28Z</time>
  <course>159.46</course>
  <speed>17.712605680700964</speed>
  <fix>3d</fix>
</trkpt>
<trkpt lat="-27.2740481" lon="151.2904961">
  <ele>368.75</ele>
  <time>2026-09-01T20:03:28Z</time>
  <course>147.86</course>
  <speed>17.71</speed>
  <fix>3d</fix>
</trkpt>
<trkpt lat="-27.2740904" lon="151.290526">
  <ele>368.58</ele>
  <time>2026-09-01T20:03:28Z</time>
  <course>159.88</course>
  <speed>17.712605680700964</speed>
  <fix>3d</fix>
</trkpt>
<trkpt lat="-27.2740481" lon="151.2904961">
  <ele>368.75</ele>
  <time>2026-09-01T20:03:28Z</time>
  <course>147.86</course>
  <speed>17.71</speed>
  <fix>3d</fix>
</trkpt>
<trkpt lat="-27.2741044" lon="151.2905343">
  <ele>368.77</ele>
  <time>2026-09-01T20:03:28Z</time>
  <course>160.28</course>
  <speed>17.709009006717455</speed>
  <fix>3d</fix>
</trkpt>
<trkpt lat="-27.2740753" lon="151.2905148">
  <ele>368.74</ele>
  <time>2026-09-01T20:03:28Z</time>
  <course>149.19</course>
  <speed>17.71</speed>
  <fix>3d</fix>
</trkpt>
<trkpt lat="-27.274118" lon="151.2905434">
  <ele>368.98</ele>
  <time>2026-09-01T20:03:28Z</time>
  <course>160.72</course>
  <speed>17.709009006717455</speed>
  <fix>3d</fix>
</trkpt>
<trkpt lat="-27.2740753" lon="151.2905148">
  <ele>368.74</ele>
  <time>2026-09-01T20:03:28Z</time>
  <course>149.19</course>
  <speed>17.71</speed>
  <fix>3d</fix>
</trkpt>
<trkpt lat="-27.2741322" lon="151.2905515">
  <ele>368.66</ele>
  <time>2026-09-01T20:03:28Z</time>
  <course>161.24</course>
  <speed>17.68756625429287</speed>
  <fix>3d</fix>
</trkpt>
<trkpt lat="-27.2741028" lon="151.2905328">
  <ele>368.78</ele>
  <time>2026-09-01T20:03:28Z</time>
  <course>150.54</course>
  <speed>17.69</speed>
  <fix>3d</fix>
</trkpt>
<trkpt lat="-27.2741461" lon="151.2905603">
  <ele>368.82</ele>
  <time>2026-09-01T20:03:28Z</time>
  <course>161.71</course>
  <speed>17.68756625429287</speed>
  <fix>3d</fix>
</trkpt>
<trkpt lat="-27.2741028" lon="151.2905328">
  <ele>368.78</ele>
  <time>2026-09-01T20:03:28Z</time>
  <course>150.54</course>
  <speed>17.69</speed>
  <fix>3d</fix>
</trkpt>
<trkpt lat="-27.2741606" lon="151.2905679">
  <ele>368.75</ele>
  <time>2026-09-01T20:03:28Z</time>
  <course>162.11</course>
  <speed>17.6529430973988</speed>
  <fix>3d</fix>
</trkpt>
<trkpt lat="-27.2741307" lon="151.29055">
  <ele>368.85</ele>
  <time>2026-09-01T20:03:28Z</time>
  <course>151.95</course>
  <speed>17.66</speed>
  <fix>3d</fix>
</trkpt>
<trkpt lat="-27.2741746" lon="151.2905763">
  <ele>369.14</ele>
  <time>2026-09-01T20:03:28Z</time>
  <course>162.57</course>
  <speed>17.6529430973988</speed>
  <fix>3d</fix>
</trkpt>
<trkpt lat="-27.2741307" lon="151.29055">
  <ele>368.85</ele>
  <time>2026-09-01T20:03:28Z</time>
  <course>151.95</course>
  <speed>17.66</speed>
  <fix>3d</fix>
</trkpt>
<trkpt lat="-27.2741889" lon="151.2905833">
  <ele>368.89</ele>
  <time>2026-09-01T20:03:28Z</time>
  <course>163.12</course>
  <speed>17.61574579743929</speed>
  <fix>3d</fix>
</trkpt>
<trkpt lat="-27.2741588" lon="151.2905664">
  <ele>368.94</ele>
  <time>2026-09-01T20:03:28Z</time>
  <course>153.47</course>
  <speed>17.62</speed>
  <fix>3d</fix>
</trkpt>
<trkpt lat="-27.2742031" lon="151.2905913">
  <ele>369.24</ele>
  <time>2026-09-01T20:03:28Z</time>
  <course>163.68</course>
  <speed>17.61574579743929</speed>
  <fix>3d</fix>
</trkpt>
<trkpt lat="-27.2741588" lon="151.2905664">
  <ele>368.94</ele>
  <time>2026-09-01T20:03:28Z</time>
  <course>153.47</course>
  <speed>17.62</speed>
  <fix>3d</fix>
</trkpt>
<trkpt lat="-27.2742179" lon="151.2905977">
  <ele>369.03</ele>
  <time>2026-09-01T20:03:28Z</time>
  <course>164.27</course>
  <speed>17.578811108832134</speed>
  <fix>3d</fix>
</trkpt>
<trkpt lat="-27.2741874" lon="151.2905818">
  <ele>369.06</ele>
  <time>2026-09-01T20:03:28Z</time>
  <course>155.12</course>
  <speed>17.58</speed>
  <fix>3d</fix>
</trkpt>
<trkpt lat="-27.2742322" lon="151.2906051">
  <ele>369.3</ele>
  <time>2026-09-01T20:03:28Z</time>
  <course>164.89</course>
  <speed>17.578811108832134</speed>
  <fix>3d</fix>
</trkpt>
<trkpt lat="-27.2741874" lon="151.2905818">
  <ele>369.06</ele>
  <time>2026-09-01T20:03:28Z</time>
  <course>155.12</course>
  <speed>17.58</speed>
  <fix>3d</fix>
</trkpt>
<trkpt lat="-27.274247" lon="151.2906109">
  <ele>369.48</ele>
  <time>2026-09-01T20:03:28Z</time>
  <course>165.53</course>
  <speed>17.511139311878026</speed>
  <fix>3d</fix>
</trkpt>
<trkpt lat="-27.2742162" lon="151.2905962">
  <ele>369.18</ele>
  <time>2026-09-01T20:03:28Z</time>
  <course>156.99</course>
  <speed>17.52</speed>
  <fix>3d</fix>
</trkpt>
<trkpt lat="-27.2742615" lon="151.2906178">
  <ele>369.26</ele>
  <time>2026-09-01T20:03:28Z</time>
  <course>166.24</course>
  <speed>17.511139311878026</speed>
  <fix>3d</fix>
</trkpt>
<trkpt lat="-27.2742162" lon="151.2905962">
  <ele>369.18</ele>
  <time>2026-09-01T20:03:28Z</time>
  <course>156.99</course>
  <speed>17.52</speed>
  <fix>3d</fix>
</trkpt>
<trkpt lat="-27.2742764" lon="151.2906227">
  <ele>369.37</ele>
  <time>2026-09-01T20:03:28Z</time>
  <course>167.01</course>
  <speed>17.44288106936466</speed>
  <fix>3d</fix>
</trkpt>
<trkpt lat="-27.2742453" lon="151.2906094">
  <ele>369.32</ele>
  <time>2026-09-01T20:03:28Z</time>
  <course>159.13</course>
  <speed>17.44</speed>
  <fix>3d</fix>
</trkpt>
<trkpt lat="-27.2742911" lon="151.290629">
  <ele>369.47</ele>
  <time>2026-09-01T20:03:28Z</time>
  <course>167.8</course>
  <speed>17.44288106936466</speed>
  <fix>3d</fix>
</trkpt>
<trkpt lat="-27.2742453" lon="151.2906094">
  <ele>369.32</ele>
  <time>2026-09-01T20:03:28Z</time>
  <course>159.13</course>
  <speed>17.44</speed>
  <fix>3d</fix>
</trkpt>
<trkpt lat="-27.2743063" lon="151.2906332">
  <ele>369.6</ele>
  <time>2026-09-01T20:03:28Z</time>
  <course>168.56</course>
  <speed>17.360933154643504</speed>
  <fix>3d</fix>
</trkpt>
<trkpt lat="-27.2742747" lon="151.2906213">
  <ele>369.48</ele>
  <time>2026-09-01T20:03:28Z</time>
  <course>161.45</course>
  <speed>17.36</speed>
  <fix>3d</fix>
</trkpt>
<trkpt lat="-27.2743211" lon="151.2906388">
  <ele>369.78</ele>
  <time>2026-09-01T20:03:28Z</time>
  <course>169.3</course>
  <speed>17.360933154643504</speed>
  <fix>3d</fix>
</trkpt>
<trkpt lat="-27.2742747" lon="151.2906213">
  <ele>369.48</ele>
  <time>2026-09-01T20:03:28Z</time>
  <course>161.45</course>
  <speed>17.36</speed>
  <fix>3d</fix>
</trkpt>
<trkpt lat="-27.2743363" lon="151.290642">
  <ele>369.63</ele>
  <time>2026-09-01T20:03:28Z</time>
  <course>170.11</course>
  <speed>17.27450143998373</speed>
  <fix>3d</fix>
</trkpt>
<trkpt lat="-27.2743044" lon="151.2906317">
  <ele>369.65</ele>
  <time>2026-09-01T20:03:28Z</time>
  <course>163.91</course>
  <speed>17.27</speed>
  <fix>3d</fix>
</trkpt>
<trkpt lat="-27.2743512" lon="151.2906468">
  <ele>369.74</ele>
  <time>2026-09-01T20:03:28Z</time>
  <course>170.96</course>
  <speed>17.27450143998373</speed>
  <fix>3d</fix>
</trkpt>
<trkpt lat="-27.2743044" lon="151.2906317">
  <ele>369.65</ele>
  <time>2026-09-01T20:03:28Z</time>
  <course>163.91</course>
  <speed>17.27</speed>
  <fix>3d</fix>
</trkpt>
<trkpt lat="-27.2743664" lon="151.2906492">
  <ele>370.13</ele>
  <time>2026-09-01T20:03:28Z</time>
  <course>171.8</course>
  <speed>17.194141444108222</speed>
  <fix>3d</fix>
</trkpt>
<trkpt lat="-27.2743343" lon="151.2906406">
  <ele>369.83</ele>
  <time>2026-09-01T20:03:28Z</time>
  <course>166.51</course>
  <speed>17.19</speed>
  <fix>3d</fix>
</trkpt>
<trkpt lat="-27.2743814" lon="151.2906533">
  <ele>369.95</ele>
  <time>2026-09-01T20:03:28Z</time>
  <course>172.72</course>
  <speed>17.194141444108222</speed>
  <fix>3d</fix>
</trkpt>
<trkpt lat="-27.2743343" lon="151.2906406">
  <ele>369.83</ele>
  <time>2026-09-01T20:03:28Z</time>
  <course>166.51</course>
  <speed>17.19</speed>
  <fix>3d</fix>
</trkpt>
<trkpt lat="-27.2743968" lon="151.2906548">
  <ele>370.0</ele>
  <time>2026-09-01T20:03:28Z</time>
  <course>173.67</course>
  <speed>17.11000292226743</speed>
  <fix>3d</fix>
</trkpt>
<trkpt lat="-27.2743645" lon="151.2906479">
  <ele>370.02</ele>
  <time>2026-09-01T20:03:28Z</time>
  <course>169.24</course>
  <speed>17.11</speed>
  <fix>3d</fix>
</trkpt>
<trkpt lat="-27.2744117" lon="151.290658">
  <ele>370.43</ele>
  <time>2026-09-01T20:03:28Z</time>
  <course>174.56</course>
  <speed>17.11000292226743</speed>
  <fix>3d</fix>
</trkpt>
<trkpt lat="-27.2743645" lon="151.2906479">
  <ele>370.02</ele>
  <time>2026-09-01T20:03:28Z</time>
  <course>169.24</course>
  <speed>17.11</speed>
  <fix>3d</fix>
</trkpt>
<trkpt lat="-27.274427" lon="151.2906585">
  <ele>370.52</ele>
  <time>2026-09-01T20:03:28Z</time>
  <course>175.5</course>
  <speed>17.032891709865357</speed>
  <fix>3d</fix>
</trkpt>
<trkpt lat="-27.2743948" lon="151.2906535">
  <ele>370.22</ele>
  <time>2026-09-01T20:03:28Z</time>
  <course>172.07</course>
  <speed>17.04</speed>
  <fix>3d</fix>
</trkpt>
<trkpt lat="-27.2744422" lon="151.2906609">
  <ele>370.56</ele>
  <time>2026-09-01T20:03:28Z</time>
  <course>176.44</course>
  <speed>17.032891709865357</speed>
  <fix>3d</fix>
</trkpt>
<trkpt lat="-27.2743948" lon="151.2906535">
  <ele>370.22</ele>
  <time>2026-09-01T20:03:28Z</time>
  <course>172.07</course>
  <speed>17.04</speed>
  <fix>3d</fix>
</trkpt>
<trkpt lat="-27.2744575" lon="151.2906604">
  <ele>370.42</ele>
  <time>2026-09-01T20:03:28Z</time>
  <course>177.33</course>
  <speed>16.973773887971998</speed>
  <fix>3d</fix>
</trkpt>
<trkpt lat="-27.2744252" lon="151.2906573">
  <ele>370.41</ele>
  <time>2026-09-01T20:03:28Z</time>
  <course>175.0</course>
  <speed>16.97</speed>
  <fix>3d</fix>
</trkpt>
<trkpt lat="-27.2744727" lon="151.2906619">
  <ele>370.55</ele>
  <time>2026-09-01T20:03:28Z</time>
  <course>178.29</course>
  <speed>16.973773887971998</speed>
  <fix>3d</fix>
</trkpt>
<trkpt lat="-27.2744252" lon="151.2906573">
  <ele>370.41</ele>
  <time>2026-09-01T20:03:28Z</time>
  <course>175.0</course>
  <speed>16.97</speed>
  <fix>3d</fix>
</trkpt>
<trkpt lat="-27.2744879" lon="151.2906607">
  <ele>370.81</ele>
  <time>2026-09-01T20:03:28Z</time>
  <course>179.27</course>
  <speed>16.91029568044273</speed>
  <fix>3d</fix>
</trkpt>
<trkpt lat="-27.2744556" lon="151.2906595">
  <ele>370.61</ele>
  <time>2026-09-01T20:03:28Z</time>
  <course>177.99</course>
  <speed>16.91</speed>
  <fix>3d</fix>
</trkpt>
<trkpt lat="-27.2745031" lon="151.2906613">
  <ele>370.84</ele>
  <time>2026-09-01T20:03:28Z</time>
  <course>180.28</course>
  <speed>16.91029568044273</speed>
  <fix>3d</fix>
</trkpt>
<trkpt lat="-27.2744556" lon="151.2906595">
  <ele>370.61</ele>
  <time>2026-09-01T20:03:28Z</time>
  <course>177.99</course>
  <speed>16.91</speed>
  <fix>3d</fix>
</trkpt>
<trkpt lat="-27.2745181" lon="151.2906591">
  <ele>371.15</ele>
  <time>2026-09-01T20:03:28Z</time>
  <course>181.25</course>
  <speed>16.86266882791689</speed>
  <fix>3d</fix>
</trkpt>
<trkpt lat="-27.2744859" lon="151.2906597">
  <ele>370.8</ele>
  <time>2026-09-01T20:03:28Z</time>
  <course>181.04</course>
  <speed>16.86</speed>
  <fix>3d</fix>
</trkpt>
<trkpt lat="-27.2745333" lon="151.2906588">
  <ele>371.11</ele>
  <time>2026-09-01T20:03:28Z</time>
  <course>182.29</course>
  <speed>16.86266882791689</speed>
  <fix>3d</fix>
</trkpt>
<trkpt lat="-27.2744859" lon="151.2906597">
  <ele>370.8</ele>
  <time>2026-09-01T20:03:28Z</time>
  <course>181.04</course>
  <speed>16.86</speed>
  <fix>3d</fix>
</trkpt>
<trkpt lat="-27.2745482" lon="151.2906556">
  <ele>371.05</ele>
  <time>2026-09-01T20:03:28Z</time>
  <course>183.26</course>
  <speed>16.834265650749366</speed>
  <fix>3d</fix>
</trkpt>
<trkpt lat="-27.2745161" lon="151.2906582">
  <ele>370.99</ele>
  <time>2026-09-01T20:03:28Z</time>
  <course>184.15</course>
  <speed>16.83</speed>
  <fix>3d</fix>
</trkpt>
<trkpt lat="-27.2745634" lon="151.2906544">
  <ele>371.36</ele>
  <time>2026-09-01T20:03:28Z</time>
  <course>184.23</course>
  <speed>16.834265650749366</speed>
  <fix>3d</fix>
</trkpt>
<trkpt lat="-27.2745161" lon="151.2906582">
  <ele>370.99</ele>
  <time>2026-09-01T20:03:28Z</time>
  <course>184.15</course>
  <speed>16.83</speed>
  <fix>3d</fix>
</trkpt>
<trkpt lat="-27.274578" lon="151.2906503">
  <ele>371.17</ele>
  <time>2026-09-01T20:03:28Z</time>
  <course>185.18</course>
  <speed>16.815448254506926</speed>
  <fix>3d</fix>
</trkpt>
<trkpt lat="-27.2745461" lon="151.2906549">
  <ele>371.16</ele>
  <time>2026-09-01T20:03:28Z</time>
  <course>187.3</course>
  <speed>16.81</speed>
  <fix>3d</fix>
</trkpt>
<trkpt lat="-27.274593" lon="151.2906482">
  <ele>371.57</ele>
  <time>2026-09-01T20:03:28Z</time>
  <course>186.15</course>
  <speed>16.815448254506926</speed>
  <fix>3d</fix>
</trkpt>
<trkpt lat="-27.2745461" lon="151.2906549">
  <ele>371.16</ele>
  <time>2026-09-01T20:03:28Z</time>
  <course>187.3</course>
  <speed>16.81</speed>
  <fix>3d</fix>
</trkpt>
<trkpt lat="-27.2746076" lon="151.2906431">
  <ele>371.4</ele>
  <time>2026-09-01T20:03:28Z</time>
  <course>187.19</course>
  <speed>16.80902733652367</speed>
  <fix>3d</fix>
</trkpt>
<trkpt lat="-27.274576" lon="151.2906496">
  <ele>371.34</ele>
  <time>2026-09-01T20:03:28Z</time>
  <course>190.45</course>
  <speed>16.8</speed>
  <fix>3d</fix>
</trkpt>
<trkpt lat="-27.2746224" lon="151.29064">
  <ele>371.62</ele>
  <time>2026-09-01T20:03:28Z</time>
  <course>188.23</course>
  <speed>16.80902733652367</speed>
  <fix>3d</fix>
</trkpt>
<trkpt lat="-27.274576" lon="151.2906496">
  <ele>371.34</ele>
  <time>2026-09-01T20:03:28Z</time>
  <course>190.45</course>
  <speed>16.8</speed>
  <fix>3d</fix>
</trkpt>
<trkpt lat="-27.274637" lon="151.2906341">
  <ele>371.52</ele>
  <time>2026-09-01T20:03:28Z</time>
  <course>189.24</course>
  <speed>16.818029016504877</speed>
  <fix>3d</fix>
</trkpt>
<trkpt lat="-27.2746056" lon="151.2906426">
  <ele>371.49</ele>
  <time>2026-09-01T20:03:28Z</time>
  <course>193.56</course>
  <speed>16.82</speed>
  <fix>3d</fix>
</trkpt>
<trkpt lat="-27.2746517" lon="151.2906301">
  <ele>371.84</ele>
  <time>2026-09-01T20:03:28Z</time>
  <course>190.27</course>
  <speed>16.818029016504877</speed>
  <fix>3d</fix>
</trkpt>
<trkpt lat="-27.2746056" lon="151.2906426">
  <ele>371.49</ele>
  <time>2026-09-01T20:03:28Z</time>
  <course>193.56</course>
  <speed>16.82</speed>
  <fix>3d</fix>
</trkpt>
<trkpt lat="-27.2746657" lon="151.2906233">
  <ele>371.91</ele>
  <time>2026-09-01T20:03:28Z</time>
  <course>191.28</course>
  <speed>16.85295523046329</speed>
  <fix>3d</fix>
</trkpt>
<trkpt lat="-27.2746347" lon="151.2906337">
  <ele>371.63</ele>
  <time>2026-09-01T20:03:28Z</time>
  <course>196.72</course>
  <speed>16.85</speed>
  <fix>3d</fix>
</trkpt>
<trkpt lat="-27.2746802" lon="151.2906184">
  <ele>371.66</ele>
  <time>2026-09-01T20:03:28Z</time>
  <course>192.3</course>
  <speed>16.85295523046329</speed>
  <fix>3d</fix>
</trkpt>
<trkpt lat="-27.2746347" lon="151.2906337">
  <ele>371.63</ele>
  <time>2026-09-01T20:03:28Z</time>
  <course>196.72</course>
  <speed>16.85</speed>
  <fix>3d</fix>
</trkpt>
<trkpt lat="-27.274694" lon="151.2906105">
  <ele>372.01</ele>
  <time>2026-09-01T20:03:28Z</time>
  <course>193.3</course>
  <speed>16.898360867255736</speed>
  <fix>3d</fix>
</trkpt>
<trkpt lat="-27.2746635" lon="151.2906229">
  <ele>371.76</ele>
  <time>2026-09-01T20:03:28Z</time>
  <course>199.91</course>
  <speed>16.91</speed>
  <fix>3d</fix>
</trkpt>
<trkpt lat="-27.2747083" lon="151.2906047">
  <ele>371.87</ele>
  <time>2026-09-01T20:03:28Z</time>
  <course>194.24</course>
  <speed>16.898360867255736</speed>
  <fix>3d</fix>
</trkpt>
<trkpt lat="-27.2746635" lon="151.2906229">
  <ele>371.76</ele>
  <time>2026-09-01T20:03:28Z</time>
  <course>199.91</course>
  <speed>16.91</speed>
  <fix>3d</fix>
</trkpt>
<trkpt lat="-27.2747217" lon="151.2905961">
  <ele>372.09</ele>
  <time>2026-09-01T20:03:28Z</time>
  <course>195.28</course>
  <speed>16.98585882432796</speed>
  <fix>3d</fix>
</trkpt>
<trkpt lat="-27.2746918" lon="151.2906104">
  <ele>371.87</ele>
  <time>2026-09-01T20:03:28Z</time>
  <course>203.06</course>
  <speed>16.98</speed>
  <fix>3d</fix>
</trkpt>
<trkpt lat="-27.2747357" lon="151.2905894">
  <ele>372.15</ele>
  <time>2026-09-01T20:03:28Z</time>
  <course>196.41</course>
  <speed>16.98585882432796</speed>
  <fix>3d</fix>
</trkpt>
<trkpt lat="-27.2746918" lon="151.2906104">
  <ele>371.87</ele>
  <time>2026-09-01T20:03:28Z</time>
  <course>203.06</course>
  <speed>16.98</speed>
  <fix>3d</fix>
</trkpt>
<trkpt lat="-27.274749" lon="151.2905798">
  <ele>372.22</ele>
  <time>2026-09-01T20:03:28Z</time>
  <course>197.48</course>
  <speed>17.07495241574629</speed>
  <fix>3d</fix>
</trkpt>
<trkpt lat="-27.2747197" lon="151.290596">
  <ele>371.96</ele>
  <time>2026-09-01T20:03:28Z</time>
  <course>206.21</course>
  <speed>17.08</speed>
  <fix>3d</fix>
</trkpt>
<trkpt lat="-27.2747627" lon="151.2905722">
  <ele>372.26</ele>
  <time>2026-09-01T20:03:28Z</time>
  <course>198.52</course>
  <speed>17.07495241574629</speed>
  <fix>3d</fix>
</trkpt>
<trkpt lat="-27.2747197" lon="151.290596">
  <ele>371.96</ele>
  <time>2026-09-01T20:03:28Z</time>
  <course>206.21</course>
  <speed>17.08</speed>
  <fix>3d</fix>
</trkpt>
<trkpt lat="-27.2747755" lon="151.2905617">
  <ele>372.18</ele>
  <time>2026-09-01T20:03:28Z</time>
  <course>199.47</course>
  <speed>17.194010585084563</speed>
  <fix>3d</fix>
</trkpt>
<trkpt lat="-27.2747469" lon="151.2905798">
  <ele>372.05</ele>
  <time>2026-09-01T20:03:28Z</time>
  <course>209.4</course>
  <speed>17.2</speed>
  <fix>3d</fix>
</trkpt>
<trkpt lat="-27.274789" lon="151.2905531">
  <ele>372.17</ele>
  <time>2026-09-01T20:03:28Z</time>
  <course>200.59</course>
  <speed>17.194010585084563</speed>
  <fix>3d</fix>
</trkpt>
<trkpt lat="-27.2747469" lon="151.2905798">
  <ele>372.05</ele>
  <time>2026-09-01T20:03:28Z</time>
  <course>209.4</course>
  <speed>17.2</speed>
  <fix>3d</fix>
</trkpt>
<trkpt lat="-27.2748014" lon="151.2905419">
  <ele>372.21</ele>
  <time>2026-09-01T20:03:28Z</time>
  <course>201.73</course>
  <speed>17.33496466682295</speed>
  <fix>3d</fix>
</trkpt>
<trkpt lat="-27.2747735" lon="151.2905619">
  <ele>372.12</ele>
  <time>2026-09-01T20:03:28Z</time>
  <course>212.56</course>
  <speed>17.34</speed>
  <fix>3d</fix>
</trkpt>
<trkpt lat="-27.2748145" lon="151.2905324">
  <ele>372.38</ele>
  <time>2026-09-01T20:03:28Z</time>
  <course>202.83</course>
  <speed>17.33496466682295</speed>
  <fix>3d</fix>
</trkpt>
<trkpt lat="-27.2747735" lon="151.2905619">
  <ele>372.12</ele>
  <time>2026-09-01T20:03:28Z</time>
  <course>212.56</course>
  <speed>17.34</speed>
  <fix>3d</fix>
</trkpt>
<trkpt lat="-27.2748265" lon="151.2905201">
  <ele>372.24</ele>
  <time>2026-09-01T20:03:28Z</time>
  <course>203.94</course>
  <speed>17.503499650069983</speed>
  <fix>3d</fix>
</trkpt>
<trkpt lat="-27.2747994" lon="151.2905421">
  <ele>372.19</ele>
  <time>2026-09-01T20:03:28Z</time>
  <course>215.73</course>
  <speed>17.5</speed>
  <fix>3d</fix>
</trkpt>
<trkpt lat="-27.2748393" lon="151.2905098">
  <ele>372.35</ele>
  <time>2026-09-01T20:03:28Z</time>
  <course>205.05</course>
  <speed>17.503499650069983</speed>
  <fix>3d</fix>
</trkpt>
<trkpt lat="-27.2747994" lon="151.2905421">
  <ele>372.19</ele>
  <time>2026-09-01T20:03:28Z</time>
  <course>215.73</course>
  <speed>17.5</speed>
  <fix>3d</fix>
</trkpt>
<trkpt lat="-27.2748508" lon="151.2904966">
  <ele>372.47</ele>
  <time>2026-09-01T20:03:28Z</time>
  <course>206.19</course>
  <speed>17.691579918141848</speed>
  <fix>3d</fix>
</trkpt>
<trkpt lat="-27.2748245" lon="151.2905205">
  <ele>372.24</ele>
  <time>2026-09-01T20:03:28Z</time>
  <course>218.95</course>
  <speed>17.69</speed>
  <fix>3d</fix>
</trkpt>
<trkpt lat="-27.2748631" lon="151.2904853">
  <ele>372.22</ele>
  <time>2026-09-01T20:03:28Z</time>
  <course>207.33</course>
  <speed>17.691579918141848</speed>
  <fix>3d</fix>
</trkpt>
<trkpt lat="-27.2748245" lon="151.2905205">
  <ele>372.24</ele>
  <time>2026-09-01T20:03:28Z</time>
  <course>218.95</course>
  <speed>17.69</speed>
  <fix>3d</fix>
</trkpt>
<trkpt lat="-27.2748742" lon="151.2904713">
  <ele>372.19</ele>
  <time>2026-09-01T20:03:28Z</time>
  <course>208.42</course>
  <speed>17.91127577812368</speed>
  <fix>3d</fix>
</trkpt>
<trkpt lat="-27.2748488" lon="151.2904971">
  <ele>372.29</ele>
  <time>2026-09-01T20:03:28Z</time>
  <course>222.18</course>
  <speed>17.91</speed>
  <fix>3d</fix>
</trkpt>
<trkpt lat="-27.2748861" lon="151.2904591">
  <ele>372.35</ele>
  <time>2026-09-01T20:03:28Z</time>
  <course>209.56</course>
  <speed>17.91127577812368</speed>
  <fix>3d</fix>
</trkpt>
<trkpt lat="-27.2748488" lon="151.2904971">
  <ele>372.29</ele>
  <time>2026-09-01T20:03:28Z</time>
  <course>222.18</course>
  <speed>17.91</speed>
  <fix>3d</fix>
</trkpt>
<trkpt lat="-27.2748965" lon="151.2904441">
  <ele>372.26</ele>
  <time>2026-09-01T20:03:28Z</time>
  <course>210.75</course>
  <speed>18.15182910893555</speed>
  <fix>3d</fix>
</trkpt>
<trkpt lat="-27.2748722" lon="151.2904719">
  <ele>372.34</ele>
  <time>2026-09-01T20:03:28Z</time>
  <course>225.39</course>
  <speed>18.15</speed>
  <fix>3d</fix>
</trkpt>
<trkpt lat="-27.274908" lon="151.2904311">
  <ele>372.25</ele>
  <time>2026-09-01T20:03:28Z</time>
  <course>212.01</course>
  <speed>18.15182910893555</speed>
  <fix>3d</fix>
</trkpt>
<trkpt lat="-27.2748722" lon="151.2904719">
  <ele>372.34</ele>
  <time>2026-09-01T20:03:28Z</time>
  <course>225.39</course>
  <speed>18.15</speed>
  <fix>3d</fix>
</trkpt>
<trkpt lat="-27.2749179" lon="151.2904152">
  <ele>372.6</ele>
  <time>2026-09-01T20:03:28Z</time>
  <course>213.25</course>
  <speed>18.421313742510332</speed>
  <fix>3d</fix>
</trkpt>
<trkpt lat="-27.2748946" lon="151.2904449">
  <ele>372.39</ele>
  <time>2026-09-01T20:03:28Z</time>
  <course>228.59</course>
  <speed>18.42</speed>
  <fix>3d</fix>
</trkpt>
<trkpt lat="-27.2749289" lon="151.2904011">
  <ele>372.3</ele>
  <time>2026-09-01T20:03:28Z</time>
  <course>214.46</course>
  <speed>18.421313742510332</speed>
  <fix>3d</fix>
</trkpt>
<trkpt lat="-27.2748946" lon="151.2904449">
  <ele>372.39</ele>
  <time>2026-09-01T20:03:28Z</time>
  <course>228.59</course>
  <speed>18.42</speed>
  <fix>3d</fix>
</trkpt>
<trkpt lat="-27.2749382" lon="151.2903842">
  <ele>372.32</ele>
  <time>2026-09-01T20:03:28Z</time>
  <course>215.74</course>
  <speed>18.722801606597233</speed>
  <fix>3d</fix>
</trkpt>
<trkpt lat="-27.274916" lon="151.290416">
  <ele>372.43</ele>
  <time>2026-09-01T20:03:28Z</time>
  <course>231.82</course>
  <speed>18.73</speed>
  <fix>3d</fix>
</trkpt>
<trkpt lat="-27.2749486" lon="151.2903693">
  <ele>372.54</ele>
  <time>2026-09-01T20:03:28Z</time>
  <course>216.99</course>
  <speed>18.722801606597233</speed>
  <fix>3d</fix>
</trkpt>
<trkpt lat="-27.274916" lon="151.290416">
  <ele>372.43</ele>
  <time>2026-09-01T20:03:28Z</time>
  <course>231.82</course>
  <speed>18.73</speed>
  <fix>3d</fix>
</trkpt>
<trkpt lat="-27.2749571" lon="151.2903517">
  <ele>372.67</ele>
  <time>2026-09-01T20:03:28Z</time>
  <course>218.27</course>
  <speed>19.047162518338524</speed>
  <fix>3d</fix>
</trkpt>
<trkpt lat="-27.2749362" lon="151.2903854">
  <ele>372.47</ele>
  <time>2026-09-01T20:03:28Z</time>
  <course>235.08</course>
  <speed>19.05</speed>
  <fix>3d</fix>
</trkpt>
<trkpt lat="-27.2749668" lon="151.290336">
  <ele>372.62</ele>
  <time>2026-09-01T20:03:28Z</time>
  <course>219.62</course>
  <speed>19.047162518338524</speed>
  <fix>3d</fix>
</trkpt>
<trkpt lat="-27.2749362" lon="151.2903854">
  <ele>372.47</ele>
  <time>2026-09-01T20:03:28Z</time>
  <course>235.08</course>
  <speed>19.05</speed>
  <fix>3d</fix>
</trkpt>
<trkpt lat="-27.2749745" lon="151.2903173">
  <ele>372.34</ele>
  <time>2026-09-01T20:03:28Z</time>
  <course>220.91</course>
  <speed>19.402744651208497</speed>
  <fix>3d</fix>
</trkpt>
<trkpt lat="-27.2749551" lon="151.2903528">
  <ele>372.51</ele>
  <time>2026-09-01T20:03:28Z</time>
  <course>238.4</course>
  <speed>19.4</speed>
  <fix>3d</fix>
</trkpt>
<trkpt lat="-27.2749836" lon="151.2903006">
  <ele>372.72</ele>
  <time>2026-09-01T20:03:28Z</time>
  <course>222.27</course>
  <speed>19.402744651208497</speed>
  <fix>3d</fix>
</trkpt>
<trkpt lat="-27.2749551" lon="151.2903528">
  <ele>372.51</ele>
  <time>2026-09-01T20:03:28Z</time>
  <course>238.4</course>
  <speed>19.4</speed>
  <fix>3d</fix>
</trkpt>
<trkpt lat="-27.2749906" lon="151.290281">
  <ele>372.44</ele>
  <time>2026-09-01T20:03:28Z</time>
  <course>223.67</course>
  <speed>19.775388744598676</speed>
  <fix>3d</fix>
</trkpt>
<trkpt lat="-27.2749727" lon="151.2903185">
  <ele>372.55</ele>
  <time>2026-09-01T20:03:28Z</time>
  <course>241.75</course>
  <speed>19.78</speed>
  <fix>3d</fix>
</trkpt>
<trkpt lat="-27.274999" lon="151.2902634">
  <ele>372.51</ele>
  <time>2026-09-01T20:03:28Z</time>
  <course>225.01</course>
  <speed>19.775388744598676</speed>
  <fix>3d</fix>
</trkpt>
<trkpt lat="-27.2749727" lon="151.2903185">
  <ele>372.55</ele>
  <time>2026-09-01T20:03:28Z</time>
  <course>241.75</course>
  <speed>19.78</speed>
  <fix>3d</fix>
</trkpt>
<trkpt lat="-27.2750049" lon="151.290243">
  <ele>372.66</ele>
  <time>2026-09-01T20:03:28Z</time>
  <course>226.41</course>
  <speed>20.169293492832118</speed>
  <fix>3d</fix>
</trkpt>
<trkpt lat="-27.2749887" lon="151.2902824">
  <ele>372.61</ele>
  <time>2026-09-01T20:03:28Z</time>
  <course>245.12</course>
  <speed>20.17</speed>
  <fix>3d</fix>
</trkpt>
<trkpt lat="-27.2750125" lon="151.2902246">
  <ele>372.67</ele>
  <time>2026-09-01T20:03:28Z</time>
  <course>227.9</course>
  <speed>20.169293492832118</speed>
  <fix>3d</fix>
</trkpt>
<trkpt lat="-27.2749887" lon="151.2902824">
  <ele>372.61</ele>
  <time>2026-09-01T20:03:28Z</time>
  <course>245.12</course>
  <speed>20.17</speed>
  <fix>3d</fix>
</trkpt>
<trkpt lat="-27.2750175" lon="151.2902032">
  <ele>372.61</ele>
  <time>2026-09-01T20:03:28Z</time>
  <course>229.41</course>
  <speed>20.599526693591773</speed>
  <fix>3d</fix>
</trkpt>
<trkpt lat="-27.2750031" lon="151.2902444">
  <ele>372.67</ele>
  <time>2026-09-01T20:03:28Z</time>
  <course>248.51</course>
  <speed>20.6</speed>
  <fix>3d</fix>
</trkpt>
<trkpt lat="-27.2750243" lon="151.2901838">
  <ele>372.92</ele>
  <time>2026-09-01T20:03:28Z</time>
  <course>230.9</course>
  <speed>20.599526693591773</speed>
  <fix>3d</fix>
</trkpt>
<trkpt lat="-27.2750031" lon="151.2902444">
  <ele>372.67</ele>
  <time>2026-09-01T20:03:28Z</time>
  <course>248.51</course>
  <speed>20.6</speed>
  <fix>3d</fix>
</trkpt>
<trkpt lat="-27.2750282" lon="151.2901618">
  <ele>372.63</ele>
  <time>2026-09-01T20:03:29Z</time>
  <course>232.38</course>
  <speed>21.054947162127956</speed>
  <fix>3d</fix>
</trkpt>
<trkpt lat="-27.2750158" lon="151.2902049">
  <ele>372.73</ele>
  <time>2026-09-01T20:03:29Z</time>
  <course>251.94</course>
  <speed>21.05</speed>
  <fix>3d</fix>
</trkpt>
<trkpt lat="-27.2750341" lon="151.2901416">
  <ele>372.99</ele>
  <time>2026-09-01T20:03:29Z</time>
  <course>233.9</course>
  <speed>21.054947162127956</speed>
  <fix>3d</fix>
</trkpt>
<trkpt lat="-27.2750158" lon="151.2902049">
  <ele>372.73</ele>
  <time>2026-09-01T20:03:29Z</time>
  <course>251.94</course>
  <speed>21.05</speed>
  <fix>3d</fix>
</trkpt>
<trkpt lat="-27.2750368" lon="151.2901188">
  <ele>372.74</ele>
  <time>2026-09-01T20:03:29Z</time>
  <course>235.44</course>
  <speed>21.533276573712605</speed>
  <fix>3d</fix>
</trkpt>
<trkpt lat="-27.2750265" lon="151.2901636">
  <ele>372.79</ele>
  <time>2026-09-01T20:03:29Z</time>
  <course>255.41</course>
  <speed>21.53</speed>
  <fix>3d</fix>
</trkpt>
<trkpt lat="-27.2750417" lon="151.2900977">
  <ele>372.69</ele>
  <time>2026-09-01T20:03:29Z</time>
  <course>237.08</course>
  <speed>21.533276573712605</speed>
  <fix>3d</fix>
</trkpt>
<trkpt lat="-27.2750265" lon="151.2901636">
  <ele>372.79</ele>
  <time>2026-09-01T20:03:29Z</time>
  <course>255.41</course>
  <speed>21.53</speed>
  <fix>3d</fix>
</trkpt>
<trkpt lat="-27.2750433" lon="151.2900741">
  <ele>373.02</ele>
  <time>2026-09-01T20:03:29Z</time>
  <course>238.71</course>
  <speed>22.033767267537343</speed>
  <fix>3d</fix>
</trkpt>
<trkpt lat="-27.2750352" lon="151.2901206">
  <ele>372.86</ele>
  <time>2026-09-01T20:03:29Z</time>
  <course>258.86</course>
  <speed>22.03</speed>
  <fix>3d</fix>
</trkpt>
<trkpt lat="-27.2750471" lon="151.2900522">
  <ele>372.9</ele>
  <time>2026-09-01T20:03:29Z</time>
  <course>240.35</course>
  <speed>22.033767267537343</speed>
  <fix>3d</fix>
</trkpt>
<trkpt lat="-27.2750352" lon="151.2901206">
  <ele>372.86</ele>
  <time>2026-09-01T20:03:29Z</time>
  <course>258.86</course>
  <speed>22.03</speed>
  <fix>3d</fix>
</trkpt>
<trkpt lat="-27.2750474" lon="151.290028">
  <ele>373.01</ele>
  <time>2026-09-01T20:03:29Z</time>
  <course>242.08</course>
  <speed>22.5590270180254</speed>
  <fix>3d</fix>
</trkpt>
<trkpt lat="-27.2750417" lon="151.2900761">
  <ele>372.94</ele>
  <time>2026-09-01T20:03:29Z</time>
  <course>262.36</course>
  <speed>22.56</speed>
  <fix>3d</fix>
</trkpt>
<trkpt lat="-27.2750501" lon="151.2900054">
  <ele>372.99</ele>
  <time>2026-09-01T20:03:29Z</time>
  <course>243.84</course>
  <speed>22.5590270180254</speed>
  <fix>3d</fix>
</trkpt>
<trkpt lat="-27.2750417" lon="151.2900761">
  <ele>372.94</ele>
  <time>2026-09-01T20:03:29Z</time>
  <course>262.36</course>
  <speed>22.56</speed>
  <fix>3d</fix>
</trkpt>
<trkpt lat="-27.275049" lon="151.2899804">
  <ele>373.05</ele>
  <time>2026-09-01T20:03:29Z</time>
  <course>245.69</course>
  <speed>23.12821869491898</speed>
  <fix>3d</fix>
</trkpt>
<trkpt lat="-27.2750459" lon="151.2900303">
  <ele>373.01</ele>
  <time>2026-09-01T20:03:29Z</time>
  <course>265.92</course>
  <speed>23.13</speed>
  <fix>3d</fix>
</trkpt>
<trkpt lat="-27.2750505" lon="151.2899571">
  <ele>372.97</ele>
  <time>2026-09-01T20:03:29Z</time>
  <course>247.52</course>
  <speed>23.12821869491898</speed>
  <fix>3d</fix>
</trkpt>
<trkpt lat="-27.2750459" lon="151.2900303">
  <ele>373.01</ele>
  <time>2026-09-01T20:03:29Z</time>
  <course>265.92</course>
  <speed>23.13</speed>
  <fix>3d</fix>
</trkpt>
<trkpt lat="-27.2750479" lon="151.2899317">
  <ele>373.2</ele>
  <time>2026-09-01T20:03:29Z</time>
  <course>249.46</course>
  <speed>23.72068295812749</speed>
  <fix>3d</fix>
</trkpt>
<trkpt lat="-27.2750476" lon="151.289983">
  <ele>373.09</ele>
  <time>2026-09-01T20:03:29Z</time>
  <course>269.55</course>
  <speed>23.72</speed>
  <fix>3d</fix>
</trkpt>
<trkpt lat="-27.2750481" lon="151.2899078">
  <ele>373.22</ele>
  <time>2026-09-01T20:03:29Z</time>
  <course>251.45</course>
  <speed>23.72068295812749</speed>
  <fix>3d</fix>
</trkpt>
<trkpt lat="-27.2750476" lon="151.289983">
  <ele>373.09</ele>
  <time>2026-09-01T20:03:29Z</time>
  <course>269.55</course>
  <speed>23.72</speed>
  <fix>3d</fix>
</trkpt>
<trkpt lat="-27.2750438" lon="151.2898819">
  <ele>373.13</ele>
  <time>2026-09-01T20:03:29Z</time>
  <course>253.39</course>
  <speed>24.340295807569802</speed>
  <fix>3d</fix>
</trkpt>
<trkpt lat="-27.2750465" lon="151.2899344">
  <ele>373.17</ele>
  <time>2026-09-01T20:03:29Z</time>
  <course>273.31</course>
  <speed>24.34</speed>
  <fix>3d</fix>
</trkpt>
<trkpt lat="-27.2750426" lon="151.2898573">
  <ele>373.14</ele>
  <time>2026-09-01T20:03:29Z</time>
  <course>255.44</course>
  <speed>24.340295807569802</speed>
  <fix>3d</fix>
</trkpt>
<trkpt lat="-27.2750465" lon="151.2899344">
  <ele>373.17</ele>
  <time>2026-09-01T20:03:29Z</time>
  <course>273.31</course>
  <speed>24.34</speed>
  <fix>3d</fix>
</trkpt>
<trkpt lat="-27.2750366" lon="151.2898311">
  <ele>373.28</ele>
  <time>2026-09-01T20:03:29Z</time>
  <course>257.54</course>
  <speed>25.00416365327983</speed>
  <fix>3d</fix>
</trkpt>
<trkpt lat="-27.2750425" lon="151.2898847">
  <ele>373.27</ele>
  <time>2026-09-01T20:03:29Z</time>
  <course>277.15</course>
  <speed>25.01</speed>
  <fix>3d</fix>
</trkpt>
<trkpt lat="-27.2750338" lon="151.289806">
  <ele>373.36</ele>
  <time>2026-09-01T20:03:29Z</time>
  <course>259.7</course>
  <speed>25.00416365327983</speed>
  <fix>3d</fix>
</trkpt>
<trkpt lat="-27.2750425" lon="151.2898847">
  <ele>373.27</ele>
  <time>2026-09-01T20:03:29Z</time>
  <course>277.15</course>
  <speed>25.01</speed>
  <fix>3d</fix>
</trkpt>
<trkpt lat="-27.2750259" lon="151.2897797">
  <ele>373.45</ele>
  <time>2026-09-01T20:03:29Z</time>
  <course>261.86</course>
  <speed>25.695423717074604</speed>
  <fix>3d</fix>
</trkpt>
<trkpt lat="-27.2750353" lon="151.289834">
  <ele>373.37</ele>
  <time>2026-09-01T20:03:29Z</time>
  <course>281.04</course>
  <speed>25.7</speed>
  <fix>3d</fix>
</trkpt>
<trkpt lat="-27.2750215" lon="151.2897543">
  <ele>373.56</ele>
  <time>2026-09-01T20:03:29Z</time>
  <course>264.09</course>
  <speed>25.695423717074604</speed>
  <fix>3d</fix>
</trkpt>
<trkpt lat="-27.2750353" lon="151.289834">
  <ele>373.37</ele>
  <time>2026-09-01T20:03:29Z</time>
  <course>281.04</course>
  <speed>25.7</speed>
  <fix>3d</fix>
</trkpt>
<trkpt lat="-27.2750117" lon="151.2897278">
  <ele>373.47</ele>
  <time>2026-09-01T20:03:29Z</time>
  <course>266.39</course>
  <speed>26.41109047351131</speed>
  <fix>3d</fix>
</trkpt>
<trkpt lat="-27.2750247" lon="151.2897827">
  <ele>373.48</ele>
  <time>2026-09-01T20:03:29Z</time>
  <course>285.01</course>
  <speed>26.41</speed>
  <fix>3d</fix>
</trkpt>
<trkpt lat="-27.2750055" lon="151.289702">
  <ele>373.52</ele>
  <time>2026-09-01T20:03:29Z</time>
  <course>268.72</course>
  <speed>26.41109047351131</speed>
  <fix>3d</fix>
</trkpt>
<trkpt lat="-27.2750247" lon="151.2897827">
  <ele>373.48</ele>
  <time>2026-09-01T20:03:29Z</time>
  <course>285.01</course>
  <speed>26.41</speed>
  <fix>3d</fix>
</trkpt>
<trkpt lat="-27.2749937" lon="151.2896758">
  <ele>373.66</ele>
  <time>2026-09-01T20:03:29Z</time>
  <course>271.08</course>
  <speed>27.14981583731278</speed>
  <fix>3d</fix>
</trkpt>
<trkpt lat="-27.2750106" lon="151.289731">
  <ele>373.6</ele>
  <time>2026-09-01T20:03:29Z</time>
  <course>289.07</course>
  <speed>27.15</speed>
  <fix>3d</fix>
</trkpt>
<trkpt lat="-27.2749857" lon="151.2896499">
  <ele>373.8</ele>
  <time>2026-09-01T20:03:29Z</time>
  <course>273.63</course>
  <speed>27.14981583731278</speed>
  <fix>3d</fix>
</trkpt>
<trkpt lat="-27.2750106" lon="151.289731">
  <ele>373.6</ele>
  <time>2026-09-01T20:03:29Z</time>
  <course>289.07</course>
  <speed>27.15</speed>
  <fix>3d</fix>
</trkpt>
<trkpt lat="-27.2749718" lon="151.2896239">
  <ele>373.74</ele>
  <time>2026-09-01T20:03:29Z</time>
  <course>276.21</course>
  <speed>27.896051691950962</speed>
  <fix>3d</fix>
</trkpt>
<trkpt lat="-27.2749928" lon="151.2896791">
  <ele>373.73</ele>
  <time>2026-09-01T20:03:29Z</time>
  <course>293.2</course>
  <speed>27.9</speed>
  <fix>3d</fix>
</trkpt>
<trkpt lat="-27.2749619" lon="151.289598">
  <ele>373.75</ele>
  <time>2026-09-01T20:03:29Z</time>
  <course>278.84</course>
  <speed>27.896051691950962</speed>
  <fix>3d</fix>
</trkpt>
<trkpt lat="-27.2749928" lon="151.2896791">
  <ele>373.73</ele>
  <time>2026-09-01T20:03:29Z</time>
  <course>293.2</course>
  <speed>27.9</speed>
  <fix>3d</fix>
</trkpt>
<trkpt lat="-27.2749458" lon="151.2895728">
  <ele>374.06</ele>
  <time>2026-09-01T20:03:29Z</time>
  <course>281.56</course>
  <speed>28.674492148946598</speed>
  <fix>3d</fix>
</trkpt>
<trkpt lat="-27.2749711" lon="151.2896275">
  <ele>373.87</ele>
  <time>2026-09-01T20:03:29Z</time>
  <course>297.47</course>
  <speed>28.68</speed>
  <fix>3d</fix>
</trkpt>
<trkpt lat="-27.274934" lon="151.289547">
  <ele>374.15</ele>
  <time>2026-09-01T20:03:29Z</time>
  <course>284.28</course>
  <speed>28.674492148946598</speed>
  <fix>3d</fix>
</trkpt>
<trkpt lat="-27.2749711" lon="151.2896275">
  <ele>373.87</ele>
  <time>2026-09-01T20:03:29Z</time>
  <course>297.47</course>
  <speed>28.68</speed>
  <fix>3d</fix>
</trkpt>
<trkpt lat="-27.2749154" lon="151.2895227">
  <ele>374.07</ele>
  <time>2026-09-01T20:03:29Z</time>
  <course>287.08</course>
  <speed>29.469056652699287</speed>
  <fix>3d</fix>
</trkpt>
<trkpt lat="-27.2749452" lon="151.2895765">
  <ele>374.02</ele>
  <time>2026-09-01T20:03:29Z</time>
  <course>301.89</course>
  <speed>29.47</speed>
  <fix>3d</fix>
</trkpt>
<trkpt lat="-27.2749015" lon="151.2894974">
  <ele>374.4</ele>
  <time>2026-09-01T20:03:29Z</time>
  <course>289.99</course>
  <speed>29.469056652699287</speed>
  <fix>3d</fix>
</trkpt>
<trkpt lat="-27.2749452" lon="151.2895765">
  <ele>374.02</ele>
  <time>2026-09-01T20:03:29Z</time>
  <course>301.89</course>
  <speed>29.47</speed>
  <fix>3d</fix>
</trkpt>
<trkpt lat="-27.2748806" lon="151.2894741">
  <ele>374.49</ele>
  <time>2026-09-01T20:03:29Z</time>
  <course>292.97</course>
  <speed>30.27095142211424</speed>
  <fix>3d</fix>
</trkpt>
<trkpt lat="-27.274915" lon="151.2895265">
  <ele>374.19</ele>
  <time>2026-09-01T20:03:29Z</time>
  <course>306.42</course>
  <speed>30.27</speed>
  <fix>3d</fix>
</trkpt>
<trkpt lat="-27.2748645" lon="151.2894495">
  <ele>374.53</ele>
  <time>2026-09-01T20:03:29Z</time>
  <course>296.08</course>
  <speed>30.27095142211424</speed>
  <fix>3d</fix>
</trkpt>
<trkpt lat="-27.274915" lon="151.2895265">
  <ele>374.19</ele>
  <time>2026-09-01T20:03:29Z</time>
  <course>306.42</course>
  <speed>30.27</speed>
  <fix>3d</fix>
</trkpt>
<trkpt lat="-27.2748414" lon="151.2894276">
  <ele>374.42</ele>
  <time>2026-09-01T20:03:29Z</time>
  <course>299.19</course>
  <speed>31.06452156399644</speed>
  <fix>3d</fix>
</trkpt>
<trkpt lat="-27.2748806" lon="151.2894782">
  <ele>374.37</ele>
  <time>2026-09-01T20:03:29Z</time>
  <course>311.09</course>
  <speed>31.07</speed>
  <fix>3d</fix>
</trkpt>
<trkpt lat="-27.274823" lon="151.2894039">
  <ele>374.64</ele>
  <time>2026-09-01T20:03:29Z</time>
  <course>302.37</course>
  <speed>31.06452156399644</speed>
  <fix>3d</fix>
</trkpt>
<trkpt lat="-27.2748806" lon="151.2894782">
  <ele>374.37</ele>
  <time>2026-09-01T20:03:29Z</time>
  <course>311.09</course>
  <speed>31.07</speed>
  <fix>3d</fix>
</trkpt>
<trkpt lat="-27.2747978" lon="151.2893842">
  <ele>374.61</ele>
  <time>2026-09-01T20:03:29Z</time>
  <course>305.62</course>
  <speed>31.8452021504025</speed>
  <fix>3d</fix>
</trkpt>
<trkpt lat="-27.2748417" lon="151.2894321">
  <ele>374.57</ele>
  <time>2026-09-01T20:03:29Z</time>
  <course>315.92</course>
  <speed>31.85</speed>
  <fix>3d</fix>
</trkpt>
<trkpt lat="-27.2747772" lon="151.2893618">
  <ele>374.99</ele>
  <time>2026-09-01T20:03:29Z</time>
  <course>308.95</course>
  <speed>31.8452021504025</speed>
  <fix>3d</fix>
</trkpt>
<trkpt lat="-27.2748417" lon="151.2894321">
  <ele>374.57</ele>
  <time>2026-09-01T20:03:29Z</time>
  <course>315.92</course>
  <speed>31.85</speed>
  <fix>3d</fix>
</trkpt>
<trkpt lat="-27.2747497" lon="151.2893442">
  <ele>374.9</ele>
  <time>2026-09-01T20:03:29Z</time>
  <course>312.37</course>
  <speed>32.599217782026614</speed>
  <fix>3d</fix>
</trkpt>
<trkpt lat="-27.2747983" lon="151.2893887">
  <ele>374.8</ele>
  <time>2026-09-01T20:03:29Z</time>
  <course>320.87</course>
  <speed>32.6</speed>
  <fix>3d</fix>
</trkpt>
<trkpt lat="-27.274727" lon="151.2893234">
  <ele>375.27</ele>
  <time>2026-09-01T20:03:29Z</time>
  <course>315.89</course>
  <speed>32.599217782026614</speed>
  <fix>3d</fix>
</trkpt>
<trkpt lat="-27.2747983" lon="151.2893887">
  <ele>374.8</ele>
  <time>2026-09-01T20:03:29Z</time>
  <course>320.87</course>
  <speed>32.6</speed>
  <fix>3d</fix>
</trkpt>
<trkpt lat="-27.2746977" lon="151.2893087">
  <ele>375.1</ele>
  <time>2026-09-01T20:03:29Z</time>
  <course>319.48</course>
  <speed>33.31599615800194</speed>
  <fix>3d</fix>
</trkpt>
<trkpt lat="-27.2747507" lon="151.289349">
  <ele>375.04</ele>
  <time>2026-09-01T20:03:29Z</time>
  <course>325.93</course>
  <speed>33.32</speed>
  <fix>3d</fix>
</trkpt>
<trkpt lat="-27.2746721" lon="151.2892892">
  <ele>375.49</ele>
  <time>2026-09-01T20:03:29Z</time>
  <course>323.24</course>
  <speed>33.31599615800194</speed>
  <fix>3d</fix>
</trkpt>
<trkpt lat="-27.2746991" lon="151.2893136">
  <ele>375.31</ele>
  <time>2026-09-01T20:03:29Z</time>
  <course>331.16</course>
  <speed>33.99</speed>
  <fix>3d</fix>
</trkpt>
<trkpt lat="-27.2746411" lon="151.2892777">
  <ele>375.62</ele>
  <time>2026-09-01T20:03:29Z</time>
  <course>327.01</course>
  <speed>33.992359435614354</speed>
  <fix>3d</fix>
</trkpt>
<trkpt lat="-27.2746991" lon="151.2893136">
  <ele>375.31</ele>
  <time>2026-09-01T20:03:29Z</time>
  <course>331.16</course>
  <speed>33.99</speed>
  <fix>3d</fix>
</trkpt>
<trkpt lat="-27.2746143" lon="151.2892611">
  <ele>375.55</ele>
  <time>2026-09-01T20:03:29Z</time>
  <course>330.72</course>
  <speed>33.992359435614354</speed>
  <fix>3d</fix>
</trkpt>
<trkpt lat="-27.2746438" lon="151.289283">
  <ele>375.6</ele>
  <time>2026-09-01T20:03:29Z</time>
  <course>336.57</course>
  <speed>34.59</speed>
  <fix>3d</fix>
</trkpt>
<trkpt lat="-27.274582" lon="151.2892529">
  <ele>375.88</ele>
  <time>2026-09-01T20:03:29Z</time>
  <course>334.55</course>
  <speed>34.590318009524</speed>
  <fix>3d</fix>
</trkpt>
<trkpt lat="-27.2746438" lon="151.289283">
  <ele>375.6</ele>
  <time>2026-09-01T20:03:29Z</time>
  <course>336.57</course>
  <speed>34.59</speed>
  <fix>3d</fix>
</trkpt>
<trkpt lat="-27.2745534" lon="151.289239">
  <ele>375.87</ele>
  <time>2026-09-01T20:03:29Z</time>
  <course>338.48</course>
  <speed>34.590318009524</speed>
  <fix>3d</fix>
</trkpt>
<trkpt lat="-27.2745852" lon="151.2892582">
  <ele>375.91</ele>
  <time>2026-09-01T20:03:29Z</time>
  <course>342.11</course>
  <speed>35.1</speed>
  <fix>3d</fix>
</trkpt>
<trkpt lat="-27.2745201" lon="151.2892346">
  <ele>376.37</ele>
  <time>2026-09-01T20:03:29Z</time>
  <course>342.51</course>
  <speed>35.09655823581566</speed>
  <fix>3d</fix>
</trkpt>
<trkpt lat="-27.2745852" lon="151.2892582">
  <ele>375.91</ele>
  <time>2026-09-01T20:03:29Z</time>
  <course>342.11</course>
  <speed>35.1</speed>
  <fix>3d</fix>
</trkpt>
<trkpt lat="-27.274491" lon="151.289224">
  <ele>376.5</ele>
  <time>2026-09-01T20:03:29Z</time>
  <course>346.42</course>
  <speed>35.09655823581566</speed>
  <fix>3d</fix>
</trkpt>
<trkpt lat="-27.2745852" lon="151.2892582">
  <ele>375.91</ele>
  <time>2026-09-01T20:03:29Z</time>
  <course>342.11</course>
  <speed>35.1</speed>
  <fix>3d</fix>
</trkpt>
<trkpt lat="-27.2744577" lon="151.2892236">
  <ele>376.7</ele>
  <time>2026-09-01T20:03:29Z</time>
  <course>350.42</course>
  <speed>35.4936078752217</speed>
  <fix>3d</fix>
</trkpt>
<trkpt lat="-27.274524" lon="151.2892397">
  <ele>376.26</ele>
  <time>2026-09-01T20:03:29Z</time>
  <course>347.77</course>
  <speed>35.49</speed>
  <fix>3d</fix>
</trkpt>
<trkpt lat="-27.2744265" lon="151.289216">
  <ele>376.83</ele>
  <time>2026-09-01T20:03:29Z</time>
  <course>354.31</course>
  <speed>35.4936078752217</speed>
  <fix>3d</fix>
</trkpt>
<trkpt lat="-27.274524" lon="151.2892397">
  <ele>376.26</ele>
  <time>2026-09-01T20:03:29Z</time>
  <course>347.77</course>
  <speed>35.49</speed>
  <fix>3d</fix>
</trkpt>
<trkpt lat="-27.274393" lon="151.2892194">
  <ele>377.16</ele>
  <time>2026-09-01T20:03:29Z</time>
  <course>358.2</course>
  <speed>35.73794901781578</speed>
  <fix>3d</fix>
</trkpt>
<trkpt lat="-27.2744609" lon="151.289228">
  <ele>376.63</ele>
  <time>2026-09-01T20:03:29Z</time>
  <course>353.51</course>
  <speed>35.74</speed>
  <fix>3d</fix>
</trkpt>
<trkpt lat="-27.2743611" lon="151.2892153">
  <ele>377.11</ele>
  <time>2026-09-01T20:03:29Z</time>
  <course>1.96</course>
  <speed>35.73794901781578</speed>
  <fix>3d</fix>
</trkpt>
<trkpt lat="-27.2744609" lon="151.289228">
  <ele>376.63</ele>
  <time>2026-09-01T20:03:29Z</time>
  <course>353.51</course>
  <speed>35.74</speed>
  <fix>3d</fix>
</trkpt>
<trkpt lat="-27.2743283" lon="151.2892223">
  <ele>377.27</ele>
  <time>2026-09-01T20:03:29Z</time>
  <course>5.67</course>
  <speed>35.82377422885534</speed>
  <fix>3d</fix>
</trkpt>
<trkpt lat="-27.2743968" lon="151.2892234">
  <ele>377.02</ele>
  <time>2026-09-01T20:03:29Z</time>
  <course>359.16</course>
  <speed>35.83</speed>
  <fix>3d</fix>
</trkpt>
<trkpt lat="-27.2742961" lon="151.2892218">
  <ele>377.61</ele>
  <time>2026-09-01T20:03:29Z</time>
  <course>9.33</course>
  <speed>35.82377422885534</speed>
  <fix>3d</fix>
</trkpt>
<trkpt lat="-27.2743968" lon="151.2892234">
  <ele>377.02</ele>
  <time>2026-09-01T20:03:29Z</time>
  <course>359.16</course>
  <speed>35.83</speed>
  <fix>3d</fix>
</trkpt>
<trkpt lat="-27.274264" lon="151.2892319">
  <ele>377.97</ele>
  <time>2026-09-01T20:03:29Z</time>
  <course>12.92</course>
  <speed>35.75617429200165</speed>
  <fix>3d</fix>
</trkpt>
<trkpt lat="-27.2743325" lon="151.2892257">
  <ele>377.44</ele>
  <time>2026-09-01T20:03:29Z</time>
  <course>4.62</course>
  <speed>35.76</speed>
  <fix>3d</fix>
</trkpt>
<trkpt lat="-27.274232" lon="151.2892348">
  <ele>377.85</ele>
  <time>2026-09-01T20:03:29Z</time>
  <course>16.48</course>
  <speed>35.75617429200165</speed>
  <fix>3d</fix>
</trkpt>
<trkpt lat="-27.2743325" lon="151.2892257">
  <ele>377.44</ele>
  <time>2026-09-01T20:03:29Z</time>
  <course>4.62</course>
  <speed>35.76</speed>
  <fix>3d</fix>
</trkpt>
<trkpt lat="-27.2742016" lon="151.289248">
  <ele>378.08</ele>
  <time>2026-09-01T20:03:29Z</time>
  <course>19.95</course>
  <speed>35.5670015604352</speed>
  <fix>3d</fix>
</trkpt>
<trkpt lat="-27.2742689" lon="151.2892349">
  <ele>377.85</ele>
  <time>2026-09-01T20:03:29Z</time>
  <course>9.87</course>
  <speed>35.57</speed>
  <fix>3d</fix>
</trkpt>
<trkpt lat="-27.2741701" lon="151.2892542">
  <ele>378.31</ele>
  <time>2026-09-01T20:03:29Z</time>
  <course>23.49</course>
  <speed>35.5670015604352</speed>
  <fix>3d</fix>
</trkpt>
<trkpt lat="-27.2742689" lon="151.2892349">
  <ele>377.85</ele>
  <time>2026-09-01T20:03:29Z</time>
  <course>9.87</course>
  <speed>35.57</speed>
  <fix>3d</fix>
</trkpt>
<trkpt lat="-27.2741413" lon="151.2892701">
  <ele>378.41</ele>
  <time>2026-09-01T20:03:29Z</time>
  <course>26.94</course>
  <speed>35.26952367129446</speed>
  <fix>3d</fix>
</trkpt>
<trkpt lat="-27.2742067" lon="151.2892504">
  <ele>378.25</ele>
  <time>2026-09-01T20:03:29Z</time>
  <course>14.98</course>
  <speed>35.27</speed>
  <fix>3d</fix>
</trkpt>
<trkpt lat="-27.2741106" lon="151.2892793">
  <ele>378.93</ele>
  <time>2026-09-01T20:03:29Z</time>
  <course>30.33</course>
  <speed>35.26952367129446</speed>
  <fix>3d</fix>
</trkpt>
<trkpt lat="-27.2742067" lon="151.2892504">
  <ele>378.25</ele>
  <time>2026-09-01T20:03:29Z</time>
  <course>14.98</course>
  <speed>35.27</speed>
  <fix>3d</fix>
</trkpt>
<trkpt lat="-27.2740835" lon="151.2892974">
  <ele>379.09</ele>
  <time>2026-09-01T20:03:29Z</time>
  <course>33.7</course>
  <speed>34.87060796716914</speed>
  <fix>3d</fix>
</trkpt>
<trkpt lat="-27.2741465" lon="151.2892717">
  <ele>378.63</ele>
  <time>2026-09-01T20:03:29Z</time>
  <course>19.99</course>
  <speed>34.87</speed>
  <fix>3d</fix>
</trkpt>
<trkpt lat="-27.2740541" lon="151.2893095">
  <ele>378.89</ele>
  <time>2026-09-01T20:03:29Z</time>
  <course>37.16</course>
  <speed>34.87060796716914</speed>
  <fix>3d</fix>
</trkpt>
<trkpt lat="-27.2741465" lon="151.2892717">
  <ele>378.63</ele>
  <time>2026-09-01T20:03:29Z</time>
  <course>19.99</course>
  <speed>34.87</speed>
  <fix>3d</fix>
</trkpt>
<trkpt lat="-27.2740282" lon="151.2893301">
  <ele>379.24</ele>
  <time>2026-09-01T20:03:29Z</time>
  <course>40.64</course>
  <speed>34.38730143526822</speed>
  <fix>3d</fix>
</trkpt>
<trkpt lat="-27.274089" lon="151.2892984">
  <ele>378.97</ele>
  <time>2026-09-01T20:03:29Z</time>
  <course>24.91</course>
  <speed>34.38</speed>
  <fix>3d</fix>
</trkpt>
<trkpt lat="-27.2740002" lon="151.2893448">
  <ele>379.39</ele>
  <time>2026-09-01T20:03:29Z</time>
  <course>43.94</course>
  <speed>34.38730143526822</speed>
  <fix>3d</fix>
</trkpt>
<trkpt lat="-27.2740347" lon="151.28933">
  <ele>379.26</ele>
  <time>2026-09-01T20:03:29Z</time>
  <course>29.8</course>
  <speed>33.79</speed>
  <fix>3d</fix>
</trkpt>
<trkpt lat="-27.2739776" lon="151.2893668">
  <ele>379.59</ele>
  <time>2026-09-01T20:03:29Z</time>
  <course>47.12</course>
  <speed>33.7920464014833</speed>
  <fix>3d</fix>
</trkpt>
<trkpt lat="-27.2740347" lon="151.28933">
  <ele>379.26</ele>
  <time>2026-09-01T20:03:29Z</time>
  <course>29.8</course>
  <speed>33.79</speed>
  <fix>3d</fix>
</trkpt>
<trkpt lat="-27.2739512" lon="151.2893838">
  <ele>379.58</ele>
  <time>2026-09-01T20:03:29Z</time>
  <course>50.32</course>
  <speed>33.7920464014833</speed>
  <fix>3d</fix>
</trkpt>
<trkpt lat="-27.2739839" lon="151.2893661">
  <ele>379.51</ele>
  <time>2026-09-01T20:03:29Z</time>
  <course>34.63</course>
  <speed>33.12</speed>
  <fix>3d</fix>
</trkpt>
<trkpt lat="-27.2739308" lon="151.2894073">
  <ele>379.66</ele>
  <time>2026-09-01T20:03:29Z</time>
  <course>53.48</course>
  <speed>33.11729004613753</speed>
  <fix>3d</fix>
</trkpt>
<trkpt lat="-27.2739839" lon="151.2893661">
  <ele>379.51</ele>
  <time>2026-09-01T20:03:29Z</time>
  <course>34.63</course>
  <speed>33.12</speed>
  <fix>3d</fix>
</trkpt>
<trkpt lat="-27.2739063" lon="151.2894264">
  <ele>379.89</ele>
  <time>2026-09-01T20:03:29Z</time>
  <course>56.7</course>
  <speed>33.11729004613753</speed>
  <fix>3d</fix>
</trkpt>
<trkpt lat="-27.2739369" lon="151.2894059">
  <ele>379.7</ele>
  <time>2026-09-01T20:03:29Z</time>
  <course>39.35</course>
  <speed>32.39</speed>
  <fix>3d</fix>
</trkpt>
<trkpt lat="-27.2738881" lon="151.2894509">
  <ele>380.01</ele>
  <time>2026-09-01T20:03:29Z</time>
  <course>60.01</course>
  <speed>32.380279492308276</speed>
  <fix>3d</fix>
</trkpt>
<trkpt lat="-27.2739369" lon="151.2894059">
  <ele>379.7</ele>
  <time>2026-09-01T20:03:29Z</time>
  <course>39.35</course>
  <speed>32.39</speed>
  <fix>3d</fix>
</trkpt>
<trkpt lat="-27.2738656" lon="151.2894717">
  <ele>379.97</ele>
  <time>2026-09-01T20:03:29Z</time>
  <course>63.27</course>
  <speed>32.380279492308276</speed>
  <fix>3d</fix>
</trkpt>
<trkpt lat="-27.273894" lon="151.289449">
  <ele>379.83</ele>
  <time>2026-09-01T20:03:29Z</time>
  <course>44.13</course>
  <speed>31.58</speed>
  <fix>3d</fix>
</trkpt>
<trkpt lat="-27.2738501" lon="151.289497">
  <ele>379.96</ele>
  <time>2026-09-01T20:03:29Z</time>
  <course>66.44</course>
  <speed>31.575872117805392</speed>
  <fix>3d</fix>
</trkpt>
<trkpt lat="-27.273894" lon="151.289449">
  <ele>379.83</ele>
  <time>2026-09-01T20:03:29Z</time>
  <course>44.13</course>
  <speed>31.58</speed>
  <fix>3d</fix>
</trkpt>
<trkpt lat="-27.2738297" lon="151.2895192">
  <ele>380.08</ele>
  <time>2026-09-01T20:03:29Z</time>
  <course>69.65</course>
  <speed>31.575872117805392</speed>
  <fix>3d</fix>
</trkpt>
<trkpt lat="-27.2738556" lon="151.2894947">
  <ele>379.9</ele>
  <time>2026-09-01T20:03:29Z</time>
  <course>49.03</course>
  <speed>30.7</speed>
  <fix>3d</fix>
</trkpt>
<trkpt lat="-27.2738166" lon="151.2895453">
  <ele>379.99</ele>
  <time>2026-09-01T20:03:29Z</time>
  <course>72.86</course>
  <speed>30.69408412055978</speed>
  <fix>3d</fix>
</trkpt>
<trkpt lat="-27.2738556" lon="151.2894947">
  <ele>379.9</ele>
  <time>2026-09-01T20:03:29Z</time>
  <course>49.03</course>
  <speed>30.7</speed>
  <fix>3d</fix>
</trkpt>
<trkpt lat="-27.2737985" lon="151.2895687">
  <ele>379.94</ele>
  <time>2026-09-01T20:03:29Z</time>
  <course>75.98</course>
  <speed>30.69408412055978</speed>
  <fix>3d</fix>
</trkpt>
<trkpt lat="-27.2738218" lon="151.2895425">
  <ele>379.91</ele>
  <time>2026-09-01T20:03:29Z</time>
  <course>54.03</course>
  <speed>29.75</speed>
  <fix>3d</fix>
</trkpt>
<trkpt lat="-27.2737883" lon="151.2895945">
  <ele>380.0</ele>
  <time>2026-09-01T20:03:29Z</time>
  <course>78.94</course>
  <speed>29.749744536718296</speed>
  <fix>3d</fix>
</trkpt>
<trkpt lat="-27.2738218" lon="151.2895425">
  <ele>379.91</ele>
  <time>2026-09-01T20:03:29Z</time>
  <course>54.03</course>
  <speed>29.75</speed>
  <fix>3d</fix>
</trkpt>
<trkpt lat="-27.2737726" lon="151.2896189">
  <ele>379.8</ele>
  <time>2026-09-01T20:03:29Z</time>
  <course>81.95</course>
  <speed>29.749744536718296</speed>
  <fix>3d</fix>
</trkpt>
<trkpt lat="-27.2738218" lon="151.2895425">
  <ele>379.91</ele>
  <time>2026-09-01T20:03:29Z</time>
  <course>54.03</course>
  <speed>29.75</speed>
  <fix>3d</fix>
</trkpt>
<trkpt lat="-27.2737644" lon="151.289645">
  <ele>379.93</ele>
  <time>2026-09-01T20:03:29Z</time>
  <course>84.76</course>
  <speed>28.74659284158733</speed>
  <fix>3d</fix>
</trkpt>
<trkpt lat="-27.2737928" lon="151.2895917">
  <ele>379.86</ele>
  <time>2026-09-01T20:03:29Z</time>
  <course>59.03</course>
  <speed>28.75</speed>
  <fix>3d</fix>
</trkpt>
<trkpt lat="-27.2737511" lon="151.2896699">
  <ele>379.86</ele>
  <time>2026-09-01T20:03:29Z</time>
  <course>87.53</course>
  <speed>28.74659284158733</speed>
  <fix>3d</fix>
</trkpt>
<trkpt lat="-27.2737928" lon="151.2895917">
  <ele>379.86</ele>
  <time>2026-09-01T20:03:29Z</time>
  <course>59.03</course>
  <speed>28.75</speed>
  <fix>3d</fix>
</trkpt>
<trkpt lat="-27.2737452" lon="151.2896957">
  <ele>379.41</ele>
  <time>2026-09-01T20:03:29Z</time>
  <course>90.22</course>
  <speed>27.72814454665151</speed>
  <fix>3d</fix>
</trkpt>
<trkpt lat="-27.2737686" lon="151.2896419">
  <ele>379.75</ele>
  <time>2026-09-01T20:03:29Z</time>
  <course>63.9</course>
  <speed>27.73</speed>
  <fix>3d</fix>
</trkpt>
<trkpt lat="-27.2737342" lon="151.2897209">
  <ele>379.63</ele>
  <time>2026-09-01T20:03:29Z</time>
  <course>92.82</course>
  <speed>27.72814454665151</speed>
  <fix>3d</fix>
</trkpt>
<trkpt lat="-27.2737686" lon="151.2896419">
  <ele>379.75</ele>
  <time>2026-09-01T20:03:29Z</time>
  <course>63.9</course>
  <speed>27.73</speed>
  <fix>3d</fix>
</trkpt>
<trkpt lat="-27.2737302" lon="151.289746">
  <ele>379.58</ele>
  <time>2026-09-01T20:03:29Z</time>
  <course>95.39</course>
  <speed>26.709258694317967</speed>
  <fix>3d</fix>
</trkpt>
<trkpt lat="-27.2737489" lon="151.2896923">
  <ele>379.59</ele>
  <time>2026-09-01T20:03:29Z</time>
  <course>68.59</course>
  <speed>26.71</speed>
  <fix>3d</fix>
</trkpt>
<trkpt lat="-27.2737215" lon="151.2897712">
  <ele>379.23</ele>
  <time>2026-09-01T20:03:29Z</time>
  <course>97.82</course>
  <speed>26.709258694317967</speed>
  <fix>3d</fix>
</trkpt>
<trkpt lat="-27.2737489" lon="151.2896923">
  <ele>379.59</ele>
  <time>2026-09-01T20:03:29Z</time>
  <course>68.59</course>
  <speed>26.71</speed>
  <fix>3d</fix>
</trkpt>
<trkpt lat="-27.273719" lon="151.2897964">
  <ele>379.23</ele>
  <time>2026-09-01T20:03:29Z</time>
  <course>100.22</course>
  <speed>25.7062560478962</speed>
  <fix>3d</fix>
</trkpt>
<trkpt lat="-27.2737335" lon="151.2897425">
  <ele>379.36</ele>
  <time>2026-09-01T20:03:29Z</time>
  <course>73.13</course>
  <speed>25.71</speed>
  <fix>3d</fix>
</trkpt>
<trkpt lat="-27.2737123" lon="151.2898213">
  <ele>379.1</ele>
  <time>2026-09-01T20:03:29Z</time>
  <course>102.47</course>
  <speed>25.7062560478962</speed>
  <fix>3d</fix>
</trkpt>
<trkpt lat="-27.273722" lon="151.2897918">
  <ele>379.06</ele>
  <time>2026-09-01T20:03:29Z</time>
  <course>77.49</course>
  <speed>24.74</speed>
  <fix>3d</fix>
</trkpt>
<trkpt lat="-27.2737116" lon="151.2898447">
  <ele>378.85</ele>
  <time>2026-09-01T20:03:29Z</time>
  <course>104.59</course>
  <speed>24.735500803501026</speed>
  <fix>3d</fix>
</trkpt>
<trkpt lat="-27.273722" lon="151.2897918">
  <ele>379.06</ele>
  <time>2026-09-01T20:03:29Z</time>
  <course>77.49</course>
  <speed>24.74</speed>
  <fix>3d</fix>
</trkpt>
<trkpt lat="-27.2737068" lon="151.2898691">
  <ele>378.6</ele>
  <time>2026-09-01T20:03:29Z</time>
  <course>106.71</course>
  <speed>24.735500803501026</speed>
  <fix>3d</fix>
</trkpt>
<trkpt lat="-27.2737141" lon="151.28984">
  <ele>378.68</ele>
  <time>2026-09-01T20:03:29Z</time>
  <course>81.69</course>
  <speed>23.81</speed>
  <fix>3d</fix>
</trkpt>
<trkpt lat="-27.2737074" lon="151.2898916">
  <ele>378.35</ele>
  <time>2026-09-01T20:03:29Z</time>
  <course>108.74</course>
  <speed>23.809813103004398</speed>
  <fix>3d</fix>
</trkpt>
<trkpt lat="-27.2737141" lon="151.28984">
  <ele>378.68</ele>
  <time>2026-09-01T20:03:29Z</time>
  <course>81.69</course>
  <speed>23.81</speed>
  <fix>3d</fix>
</trkpt>
<trkpt lat="-27.2737044" lon="151.2899154">
  <ele>377.91</ele>
  <time>2026-09-01T20:03:29Z</time>
  <course>110.72</course>
  <speed>23.809813103004398</speed>
  <fix>3d</fix>
</trkpt>
<trkpt lat="-27.2737095" lon="151.289887">
  <ele>378.22</ele>
  <time>2026-09-01T20:03:29Z</time>
  <course>85.72</course>
  <speed>22.94</speed>
  <fix>3d</fix>
</trkpt>
<trkpt lat="-27.2737062" lon="151.2899371">
  <ele>377.58</ele>
  <time>2026-09-01T20:03:29Z</time>
  <course>112.65</course>
  <speed>22.933096171254327</speed>
  <fix>3d</fix>
</trkpt>
<trkpt lat="-27.2737095" lon="151.289887">
  <ele>378.22</ele>
  <time>2026-09-01T20:03:29Z</time>
  <course>85.72</course>
  <speed>22.94</speed>
  <fix>3d</fix>
</trkpt>
<trkpt lat="-27.2737047" lon="151.2899602">
  <ele>377.58</ele>
  <time>2026-09-01T20:03:29Z</time>
  <course>114.53</course>
  <speed>22.933096171254327</speed>
  <fix>3d</fix>
</trkpt>
<trkpt lat="-27.2737079" lon="151.2899324">
  <ele>377.71</ele>
  <time>2026-09-01T20:03:29Z</time>
  <course>89.65</course>
  <speed>22.12</speed>
  <fix>3d</fix>
</trkpt>
<trkpt lat="-27.2737077" lon="151.2899809">
  <ele>377.21</ele>
  <time>2026-09-01T20:03:29Z</time>
  <course>116.33</course>
  <speed>22.120382003934743</speed>
  <fix>3d</fix>
</trkpt>
<trkpt lat="-27.2737079" lon="151.2899324">
  <ele>377.71</ele>
  <time>2026-09-01T20:03:29Z</time>
  <course>89.65</course>
  <speed>22.12</speed>
  <fix>3d</fix>
</trkpt>
<trkpt lat="-27.2737076" lon="151.290003">
  <ele>376.82</ele>
  <time>2026-09-01T20:03:29Z</time>
  <course>118.06</course>
  <speed>22.120382003934743</speed>
  <fix>3d</fix>
</trkpt>
<trkpt lat="-27.2737089" lon="151.2899763">
  <ele>377.11</ele>
  <time>2026-09-01T20:03:29Z</time>
  <course>93.5</course>
  <speed>21.37</speed>
  <fix>3d</fix>
</trkpt>
<trkpt lat="-27.2737114" lon="151.2900228">
  <ele>376.39</ele>
  <time>2026-09-01T20:03:29Z</time>
  <course>119.79</course>
  <speed>21.369578844703515</speed>
  <fix>3d</fix>
</trkpt>
<trkpt lat="-27.2737089" lon="151.2899763">
  <ele>377.11</ele>
  <time>2026-09-01T20:03:29Z</time>
  <course>93.5</course>
  <speed>21.37</speed>
  <fix>3d</fix>
</trkpt>
<trkpt lat="-27.2737126" lon="151.2900444">
  <ele>376.23</ele>
  <time>2026-09-01T20:03:29Z</time>
  <course>121.52</course>
  <speed>21.369578844703515</speed>
  <fix>3d</fix>
</trkpt>
<trkpt lat="-27.2737124" lon="151.2900186">
  <ele>376.45</ele>
  <time>2026-09-01T20:03:29Z</time>
  <course>97.32</course>
  <speed>20.69</speed>
  <fix>3d</fix>
</trkpt>
<trkpt lat="-27.2737175" lon="151.2900634">
  <ele>375.76</ele>
  <time>2026-09-01T20:03:29Z</time>
  <course>123.27</course>
  <speed>20.69777282704591</speed>
  <fix>3d</fix>
</trkpt>
<trkpt lat="-27.2737124" lon="151.2900186">
  <ele>376.45</ele>
  <time>2026-09-01T20:03:29Z</time>
  <course>97.32</course>
  <speed>20.69</speed>
  <fix>3d</fix>
</trkpt>
<trkpt lat="-27.2737198" lon="151.2900841">
  <ele>375.51</ele>
  <time>2026-09-01T20:03:29Z</time>
  <course>124.98</course>
  <speed>20.69777282704591</speed>
  <fix>3d</fix>
</trkpt>
<trkpt lat="-27.2737183" lon="151.2900593">
  <ele>375.74</ele>
  <time>2026-09-01T20:03:29Z</time>
  <course>101.19</course>
  <speed>20.08</speed>
  <fix>3d</fix>
</trkpt>
<trkpt lat="-27.2737258" lon="151.2901023">
  <ele>375.01</ele>
  <time>2026-09-01T20:03:29Z</time>
  <course>126.68</course>
  <speed>20.082330542046158</speed>
  <fix>3d</fix>
</trkpt>
<trkpt lat="-27.2737183" lon="151.2900593">
  <ele>375.74</ele>
  <time>2026-09-01T20:03:29Z</time>
  <course>101.19</course>
  <speed>20.08</speed>
  <fix>3d</fix>
</trkpt>
<trkpt lat="-27.2737293" lon="151.2901222">
  <ele>374.82</ele>
  <time>2026-09-01T20:03:29Z</time>
  <course>128.41</course>
  <speed>20.082330542046158</speed>
  <fix>3d</fix>
</trkpt>
<trkpt lat="-27.2737265" lon="151.2900982">
  <ele>374.99</ele>
  <time>2026-09-01T20:03:29Z</time>
  <course>105.21</course>
  <speed>19.53</speed>
  <fix>3d</fix>
</trkpt>
<trkpt lat="-27.2737364" lon="151.2901393">
  <ele>374.27</ele>
  <time>2026-09-01T20:03:29Z</time>
  <course>130.13</course>
  <speed>19.532969564303322</speed>
  <fix>3d</fix>
</trkpt>
<trkpt lat="-27.2737265" lon="151.2900982">
  <ele>374.99</ele>
  <time>2026-09-01T20:03:29Z</time>
  <course>105.21</course>
  <speed>19.53</speed>
  <fix>3d</fix>
</trkpt>
<trkpt lat="-27.273741" lon="151.2901584">
  <ele>373.98</ele>
  <time>2026-09-01T20:03:29Z</time>
  <course>131.84</course>
  <speed>19.532969564303322</speed>
  <fix>3d</fix>
</trkpt>
<trkpt lat="-27.2737368" lon="151.2901355">
  <ele>374.21</ele>
  <time>2026-09-01T20:03:29Z</time>
  <course>109.39</course>
  <speed>19.05</speed>
  <fix>3d</fix>
</trkpt>
<trkpt lat="-27.2737491" lon="151.2901749">
  <ele>373.71</ele>
  <time>2026-09-01T20:03:29Z</time>
  <course>133.49</course>
  <speed>19.03953780951628</speed>
  <fix>3d</fix>
</trkpt>
<trkpt lat="-27.2737368" lon="151.2901355">
  <ele>374.21</ele>
  <time>2026-09-01T20:03:29Z</time>
  <course>109.39</course>
  <speed>19.05</speed>
  <fix>3d</fix>
</trkpt>
<trkpt lat="-27.2737548" lon="151.290193">
  <ele>373.19</ele>
  <time>2026-09-01T20:03:29Z</time>
  <course>135.18</course>
  <speed>19.03953780951628</speed>
  <fix>3d</fix>
</trkpt>
<trkpt lat="-27.2737492" lon="151.2901709">
  <ele>373.45</ele>
  <time>2026-09-01T20:03:29Z</time>
  <course>113.68</course>
  <speed>18.63</speed>
  <fix>3d</fix>
</trkpt>
<trkpt lat="-27.2737636" lon="151.2902079">
  <ele>372.76</ele>
  <time>2026-09-01T20:03:29Z</time>
  <course>136.79</course>
  <speed>18.627774961062848</speed>
  <fix>3d</fix>
</trkpt>
<trkpt lat="-27.2737492" lon="151.2901709">
  <ele>373.45</ele>
  <time>2026-09-01T20:03:29Z</time>
  <course>113.68</course>
  <speed>18.63</speed>
  <fix>3d</fix>
</trkpt>
<trkpt lat="-27.2737705" lon="151.2902257">
  <ele>372.58</ele>
  <time>2026-09-01T20:03:29Z</time>
  <course>138.37</course>
  <speed>18.627774961062848</speed>
  <fix>3d</fix>
</trkpt>
<trkpt lat="-27.2737636" lon="151.2902044">
  <ele>372.71</ele>
  <time>2026-09-01T20:03:29Z</time>
  <course>118.0</course>
  <speed>18.28</speed>
  <fix>3d</fix>
</trkpt>
<trkpt lat="-27.2737803" lon="151.2902398">
  <ele>372.07</ele>
  <time>2026-09-01T20:03:29Z</time>
  <course>139.86</course>
  <speed>18.278840225791132</speed>
  <fix>3d</fix>
</trkpt>
<trkpt lat="-27.2737636" lon="151.2902044">
  <ele>372.71</ele>
  <time>2026-09-01T20:03:29Z</time>
  <course>118.0</course>
  <speed>18.28</speed>
  <fix>3d</fix>
</trkpt>
<trkpt lat="-27.273788" lon="151.2902561">
  <ele>371.67</ele>
  <time>2026-09-01T20:03:29Z</time>
  <course>141.3</course>
  <speed>18.278840225791132</speed>
  <fix>3d</fix>
</trkpt>
<trkpt lat="-27.27378" lon="151.2902361">
  <ele>372.01</ele>
  <time>2026-09-01T20:03:29Z</time>
  <course>122.25</course>
  <speed>18.01</speed>
  <fix>3d</fix>
</trkpt>
<trkpt lat="-27.2737987" lon="151.2902695">
  <ele>371.43</ele>
  <time>2026-09-01T20:03:29Z</time>
  <course>142.7</course>
  <speed>18.00847022931154</speed>
  <fix>3d</fix>
</trkpt>
<trkpt lat="-27.27378" lon="151.2902361">
  <ele>372.01</ele>
  <time>2026-09-01T20:03:29Z</time>
  <course>122.25</course>
  <speed>18.01</speed>
  <fix>3d</fix>
</trkpt>
<trkpt lat="-27.2738073" lon="151.2902849">
  <ele>371.27</ele>
  <time>2026-09-01T20:03:29Z</time>
  <course>144.02</course>
  <speed>18.00847022931154</speed>
  <fix>3d</fix>
</trkpt>
<trkpt lat="-27.2737981" lon="151.2902661">
  <ele>371.36</ele>
  <time>2026-09-01T20:03:29Z</time>
  <course>126.28</course>
  <speed>17.82</speed>
  <fix>3d</fix>
</trkpt>
<trkpt lat="-27.2738186" lon="151.2902976">
  <ele>370.85</ele>
  <time>2026-09-01T20:03:29Z</time>
  <course>145.27</course>
  <speed>17.81886921215822</speed>
  <fix>3d</fix>
</trkpt>
<trkpt lat="-27.2737981" lon="151.2902661">
  <ele>371.36</ele>
  <time>2026-09-01T20:03:29Z</time>
  <course>126.28</course>
  <speed>17.82</speed>
  <fix>3d</fix>
</trkpt>
<trkpt lat="-27.2738281" lon="151.2903121">
  <ele>370.45</ele>
  <time>2026-09-01T20:03:29Z</time>
  <course>146.48</course>
  <speed>17.81886921215822</speed>
  <fix>3d</fix>
</trkpt>
<trkpt lat="-27.2738178" lon="151.2902942">
  <ele>370.78</ele>
  <time>2026-09-01T20:03:29Z</time>
  <course>130.0</course>
  <speed>17.7</speed>
  <fix>3d</fix>
</trkpt>
<trkpt lat="-27.2738399" lon="151.2903239">
  <ele>370.44</ele>
  <time>2026-09-01T20:03:29Z</time>
  <course>147.62</course>
  <speed>17.6883973270616</speed>
  <fix>3d</fix>
</trkpt>
<trkpt lat="-27.2738178" lon="151.2902942">
  <ele>370.78</ele>
  <time>2026-09-01T20:03:29Z</time>
  <course>130.0</course>
  <speed>17.7</speed>
  <fix>3d</fix>
</trkpt>
<trkpt lat="-27.27385" lon="151.2903375">
  <ele>369.94</ele>
  <time>2026-09-01T20:03:29Z</time>
  <course>148.58</course>
  <speed>17.6883973270616</speed>
  <fix>3d</fix>
</trkpt>
<trkpt lat="-27.273839" lon="151.2903209">
  <ele>370.26</ele>
  <time>2026-09-01T20:03:29Z</time>
  <course>133.34</course>
  <speed>17.63</speed>
  <fix>3d</fix>
</trkpt>
<trkpt lat="-27.2738624" lon="151.2903488">
  <ele>369.99</ele>
  <time>2026-09-01T20:03:29Z</time>
  <course>149.53</course>
  <speed>17.628454271432876</speed>
  <fix>3d</fix>
</trkpt>
<trkpt lat="-27.273839" lon="151.2903209">
  <ele>370.26</ele>
  <time>2026-09-01T20:03:29Z</time>
  <course>133.34</course>
  <speed>17.63</speed>
  <fix>3d</fix>
</trkpt>
<trkpt lat="-27.2738733" lon="151.2903618">
  <ele>369.75</ele>
  <time>2026-09-01T20:03:29Z</time>
  <course>150.44</course>
  <speed>17.628454271432876</speed>
  <fix>3d</fix>
</trkpt>
<trkpt lat="-27.2738613" lon="151.2903461">
  <ele>369.81</ele>
  <time>2026-09-01T20:03:29Z</time>
  <course>136.27</course>
  <speed>17.6</speed>
  <fix>3d</fix>
</trkpt>
<trkpt lat="-27.2738859" lon="151.2903726">
  <ele>369.54</ele>
  <time>2026-09-01T20:03:29Z</time>
  <course>151.31</course>
  <speed>17.597272515932687</speed>
  <fix>3d</fix>
</trkpt>
<trkpt lat="-27.2738613" lon="151.2903461">
  <ele>369.81</ele>
  <time>2026-09-01T20:03:29Z</time>
  <course>136.27</course>
  <speed>17.6</speed>
  <fix>3d</fix>
</trkpt>
<trkpt lat="-27.2738974" lon="151.2903849">
  <ele>369.12</ele>
  <time>2026-09-01T20:03:29Z</time>
  <course>152.07</course>
  <speed>17.597272515932687</speed>
  <fix>3d</fix>
</trkpt>
<trkpt lat="-27.2738846" lon="151.2903701">
  <ele>369.43</ele>
  <time>2026-09-01T20:03:29Z</time>
  <course>138.76</course>
  <speed>17.61</speed>
  <fix>3d</fix>
</trkpt>
<trkpt lat="-27.2739103" lon="151.2903954">
  <ele>369.04</ele>
  <time>2026-09-01T20:03:29Z</time>
  <course>152.74</course>
  <speed>17.609363986243228</speed>
  <fix>3d</fix>
</trkpt>
<trkpt lat="-27.2738846" lon="151.2903701">
  <ele>369.43</ele>
  <time>2026-09-01T20:03:29Z</time>
  <course>138.76</course>
  <speed>17.61</speed>
  <fix>3d</fix>
</trkpt>
<trkpt lat="-27.2739222" lon="151.2904071">
  <ele>368.86</ele>
  <time>2026-09-01T20:03:29Z</time>
  <course>153.44</course>
  <speed>17.609363986243228</speed>
  <fix>3d</fix>
</trkpt>
<trkpt lat="-27.2739088" lon="151.2903931">
  <ele>369.12</ele>
  <time>2026-09-01T20:03:29Z</time>
  <course>140.86</course>
  <speed>17.65</speed>
  <fix>3d</fix>
</trkpt>
<trkpt lat="-27.2739353" lon="151.2904174">
  <ele>368.74</ele>
  <time>2026-09-01T20:03:29Z</time>
  <course>154.11</course>
  <speed>17.64205203483994</speed>
  <fix>3d</fix>
</trkpt>
<trkpt lat="-27.2739088" lon="151.2903931">
  <ele>369.12</ele>
  <time>2026-09-01T20:03:29Z</time>
  <course>140.86</course>
  <speed>17.65</speed>
  <fix>3d</fix>
</trkpt>
<trkpt lat="-27.2739476" lon="151.2904286">
  <ele>368.72</ele>
  <time>2026-09-01T20:03:29Z</time>
  <course>154.69</course>
  <speed>17.64205203483994</speed>
  <fix>3d</fix>
</trkpt>
<trkpt lat="-27.2739337" lon="151.2904152">
  <ele>368.87</ele>
  <time>2026-09-01T20:03:29Z</time>
  <course>142.65</course>
  <speed>17.7</speed>
  <fix>3d</fix>
</trkpt>
<trkpt lat="-27.273961" lon="151.2904386">
  <ele>368.87</ele>
  <time>2026-09-01T20:03:29Z</time>
  <course>155.21</course>
  <speed>17.69456978849726</speed>
  <fix>3d</fix>
</trkpt>
<trkpt lat="-27.2739337" lon="151.2904152">
  <ele>368.87</ele>
  <time>2026-09-01T20:03:29Z</time>
  <course>142.65</course>
  <speed>17.7</speed>
  <fix>3d</fix>
</trkpt>
<trkpt lat="-27.2739736" lon="151.2904494">
  <ele>368.52</ele>
  <time>2026-09-01T20:03:29Z</time>
  <course>155.77</course>
  <speed>17.69456978849726</speed>
  <fix>3d</fix>
</trkpt>
<trkpt lat="-27.2739594" lon="151.2904366">
  <ele>368.68</ele>
  <time>2026-09-01T20:03:29Z</time>
  <course>144.2</course>
  <speed>17.75</speed>
  <fix>3d</fix>
</trkpt>
<trkpt lat="-27.2739874" lon="151.2904593">
  <ele>368.58</ele>
  <time>2026-09-01T20:03:29Z</time>
  <course>156.27</course>
  <speed>17.751180242451486</speed>
  <fix>3d</fix>
</trkpt>
<trkpt lat="-27.2739594" lon="151.2904366">
  <ele>368.68</ele>
  <time>2026-09-01T20:03:29Z</time>
  <course>144.2</course>
  <speed>17.75</speed>
  <fix>3d</fix>
</trkpt>
<trkpt lat="-27.2740004" lon="151.2904698">
  <ele>368.62</ele>
  <time>2026-09-01T20:03:29Z</time>
  <course>156.68</course>
  <speed>17.751180242451486</speed>
  <fix>3d</fix>
</trkpt>
<trkpt lat="-27.2739855" lon="151.2904573">
  <ele>368.55</ele>
  <time>2026-09-01T20:03:29Z</time>
  <course>145.59</course>
  <speed>17.8</speed>
  <fix>3d</fix>
</trkpt>
<trkpt lat="-27.2740141" lon="151.2904793">
  <ele>368.59</ele>
  <time>2026-09-01T20:03:29Z</time>
  <course>157.05</course>
  <speed>17.796235556993505</speed>
  <fix>3d</fix>
</trkpt>
<trkpt lat="-27.2739855" lon="151.2904573">
  <ele>368.55</ele>
  <time>2026-09-01T20:03:29Z</time>
  <course>145.59</course>
  <speed>17.8</speed>
  <fix>3d</fix>
</trkpt>
<trkpt lat="-27.2740273" lon="151.2904895">
  <ele>368.32</ele>
  <time>2026-09-01T20:03:29Z</time>
  <course>157.5</course>
  <speed>17.796235556993505</speed>
  <fix>3d</fix>
</trkpt>
<trkpt lat="-27.2740122" lon="151.2904773">
  <ele>368.47</ele>
  <time>2026-09-01T20:03:29Z</time>
  <course>146.85</course>
  <speed>17.83</speed>
  <fix>3d</fix>
</trkpt>
<trkpt lat="-27.2740413" lon="151.2904986">
  <ele>368.6</ele>
  <time>2026-09-01T20:03:29Z</time>
  <course>157.87</course>
  <speed>17.83164041808829</speed>
  <fix>3d</fix>
</trkpt>
<trkpt lat="-27.2740122" lon="151.2904773">
  <ele>368.47</ele>
  <time>2026-09-01T20:03:29Z</time>
  <course>146.85</course>
  <speed>17.83</speed>
  <fix>3d</fix>
</trkpt>
<trkpt lat="-27.2740547" lon="151.2905085">
  <ele>368.29</ele>
  <time>2026-09-01T20:03:29Z</time>
  <course>158.21</course>
  <speed>17.83164041808829</speed>
  <fix>3d</fix>
</trkpt>
<trkpt lat="-27.2740392" lon="151.2904967">
  <ele>368.46</ele>
  <time>2026-09-01T20:03:29Z</time>
  <course>148.03</course>
  <speed>17.85</speed>
  <fix>3d</fix>
</trkpt>
<trkpt lat="-27.2740687" lon="151.2905174">
  <ele>368.29</ele>
  <time>2026-09-01T20:03:29Z</time>
  <course>158.54</course>
  <speed>17.855671367943575</speed>
  <fix>3d</fix>
</trkpt>
<trkpt lat="-27.2740392" lon="151.2904967">
  <ele>368.46</ele>
  <time>2026-09-01T20:03:29Z</time>
  <course>148.03</course>
  <speed>17.85</speed>
  <fix>3d</fix>
</trkpt>
<trkpt lat="-27.2740823" lon="151.2905269">
  <ele>368.45</ele>
  <time>2026-09-01T20:03:29Z</time>
  <course>158.93</course>
  <speed>17.855671367943575</speed>
  <fix>3d</fix>
</trkpt>
<trkpt lat="-27.2740666" lon="151.2905155">
  <ele>368.47</ele>
  <time>2026-09-01T20:03:29Z</time>
  <course>149.19</course>
  <speed>17.86</speed>
  <fix>3d</fix>
</trkpt>
<trkpt lat="-27.2740966" lon="151.2905356">
  <ele>368.59</ele>
  <time>2026-09-01T20:03:29Z</time>
  <course>159.35</course>
  <speed>17.861637662879627</speed>
  <fix>3d</fix>
</trkpt>
<trkpt lat="-27.2740666" lon="151.2905155">
  <ele>368.47</ele>
  <time>2026-09-01T20:03:29Z</time>
  <course>149.19</course>
  <speed>17.86</speed>
  <fix>3d</fix>
</trkpt>
<trkpt lat="-27.2741104" lon="151.2905449">
  <ele>368.73</ele>
  <time>2026-09-01T20:03:29Z</time>
  <course>159.83</course>
  <speed>17.861637662879627</speed>
  <fix>3d</fix>
</trkpt>
<trkpt lat="-27.2740943" lon="151.2905336">
  <ele>368.53</ele>
  <time>2026-09-01T20:03:29Z</time>
  <course>150.39</course>
  <speed>17.86</speed>
  <fix>3d</fix>
</trkpt>
<trkpt lat="-27.2741244" lon="151.2905528">
  <ele>368.52</ele>
  <time>2026-09-01T20:03:29Z</time>
  <course>160.26</course>
  <speed>17.859823627348618</speed>
  <fix>3d</fix>
</trkpt>
<trkpt lat="-27.2740943" lon="151.2905336">
  <ele>368.53</ele>
  <time>2026-09-01T20:03:29Z</time>
  <course>150.39</course>
  <speed>17.86</speed>
  <fix>3d</fix>
</trkpt>
<trkpt lat="-27.2741383" lon="151.2905617">
  <ele>368.66</ele>
  <time>2026-09-01T20:03:29Z</time>
  <course>160.66</course>
  <speed>17.859823627348618</speed>
  <fix>3d</fix>
</trkpt>
<trkpt lat="-27.2741223" lon="151.2905511">
  <ele>368.63</ele>
  <time>2026-09-01T20:03:29Z</time>
  <course>151.68</course>
  <speed>17.84</speed>
  <fix>3d</fix>
</trkpt>
<trkpt lat="-27.2741527" lon="151.2905695">
  <ele>368.71</ele>
  <time>2026-09-01T20:03:29Z</time>
  <course>161.12</course>
  <speed>17.83428159472649</speed>
  <fix>3d</fix>
</trkpt>
<trkpt lat="-27.2741223" lon="151.2905511">
  <ele>368.63</ele>
  <time>2026-09-01T20:03:29Z</time>
  <course>151.68</course>
  <speed>17.84</speed>
  <fix>3d</fix>
</trkpt>
<trkpt lat="-27.2741668" lon="151.2905781">
  <ele>368.66</ele>
  <time>2026-09-01T20:03:29Z</time>
  <course>161.57</course>
  <speed>17.83428159472649</speed>
  <fix>3d</fix>
</trkpt>
<trkpt lat="-27.2741507" lon="151.2905678">
  <ele>368.76</ele>
  <time>2026-09-01T20:03:29Z</time>
  <course>153.14</course>
  <speed>17.79</speed>
  <fix>3d</fix>
</trkpt>
<trkpt lat="-27.2741815" lon="151.2905853">
  <ele>368.86</ele>
  <time>2026-09-01T20:03:29Z</time>
  <course>162.06</course>
  <speed>17.785887664100436</speed>
  <fix>3d</fix>
</trkpt>
<trkpt lat="-27.2741507" lon="151.2905678">
  <ele>368.76</ele>
  <time>2026-09-01T20:03:29Z</time>
  <course>153.14</course>
  <speed>17.79</speed>
  <fix>3d</fix>
</trkpt>
<trkpt lat="-27.2741957" lon="151.2905934">
  <ele>368.9</ele>
  <time>2026-09-01T20:03:29Z</time>
  <course>162.6</course>
  <speed>17.785887664100436</speed>
  <fix>3d</fix>
</trkpt>
<trkpt lat="-27.2741794" lon="151.2905836">
  <ele>368.9</ele>
  <time>2026-09-01T20:03:29Z</time>
  <course>154.78</course>
  <speed>17.73</speed>
  <fix>3d</fix>
</trkpt>
<trkpt lat="-27.2742105" lon="151.2906">
  <ele>368.85</ele>
  <time>2026-09-01T20:03:29Z</time>
  <course>163.16</course>
  <speed>17.728059679502437</speed>
  <fix>3d</fix>
</trkpt>
<trkpt lat="-27.2741794" lon="151.2905836">
  <ele>368.9</ele>
  <time>2026-09-01T20:03:29Z</time>
  <course>154.78</course>
  <speed>17.73</speed>
  <fix>3d</fix>
</trkpt>
<trkpt lat="-27.2742249" lon="151.2906077">
  <ele>368.98</ele>
  <time>2026-09-01T20:03:29Z</time>
  <course>163.74</course>
  <speed>17.728059679502437</speed>
  <fix>3d</fix>
</trkpt>
<trkpt lat="-27.2742083" lon="151.2905983">
  <ele>369.06</ele>
  <time>2026-09-01T20:03:29Z</time>
  <course>156.61</course>
  <speed>17.65</speed>
  <fix>3d</fix>
</trkpt>
<trkpt lat="-27.2742397" lon="151.2906135">
  <ele>369.18</ele>
  <time>2026-09-01T20:03:29Z</time>
  <course>164.34</course>
  <speed>17.647662734764623</speed>
  <fix>3d</fix>
</trkpt>
<trkpt lat="-27.2742083" lon="151.2905983">
  <ele>369.06</ele>
  <time>2026-09-01T20:03:29Z</time>
  <course>156.61</course>
  <speed>17.65</speed>
  <fix>3d</fix>
</trkpt>
<trkpt lat="-27.2742543" lon="151.2906206">
  <ele>369.15</ele>
  <time>2026-09-01T20:03:29Z</time>
  <course>165.01</course>
  <speed>17.647662734764623</speed>
  <fix>3d</fix>
</trkpt>
<trkpt lat="-27.2742376" lon="151.2906118">
  <ele>369.23</ele>
  <time>2026-09-01T20:03:29Z</time>
  <course>158.66</course>
  <speed>17.57</speed>
  <fix>3d</fix>
</trkpt>
<trkpt lat="-27.2742695" lon="151.2906258">
  <ele>369.41</ele>
  <time>2026-09-01T20:03:29Z</time>
  <course>165.72</course>
  <speed>17.563647115562304</speed>
  <fix>3d</fix>
</trkpt>
<trkpt lat="-27.2742376" lon="151.2906118">
  <ele>369.23</ele>
  <time>2026-09-01T20:03:29Z</time>
  <course>158.66</course>
  <speed>17.57</speed>
  <fix>3d</fix>
</trkpt>
<trkpt lat="-27.2742842" lon="151.2906322">
  <ele>369.45</ele>
  <time>2026-09-01T20:03:29Z</time>
  <course>166.44</course>
  <speed>17.563647115562304</speed>
  <fix>3d</fix>
</trkpt>
<trkpt lat="-27.2742672" lon="151.2906242">
  <ele>369.41</ele>
  <time>2026-09-01T20:03:29Z</time>
  <course>160.89</course>
  <speed>17.48</speed>
  <fix>3d</fix>
</trkpt>
<trkpt lat="-27.2742994" lon="151.2906367">
  <ele>369.6</ele>
  <time>2026-09-01T20:03:29Z</time>
  <course>167.27</course>
  <speed>17.47279313675979</speed>
  <fix>3d</fix>
</trkpt>
<trkpt lat="-27.2742672" lon="151.2906242">
  <ele>369.41</ele>
  <time>2026-09-01T20:03:29Z</time>
  <course>160.89</course>
  <speed>17.48</speed>
  <fix>3d</fix>
</trkpt>
<trkpt lat="-27.2743142" lon="151.2906425">
  <ele>369.61</ele>
  <time>2026-09-01T20:03:29Z</time>
  <course>168.07</course>
  <speed>17.47279313675979</speed>
  <fix>3d</fix>
</trkpt>
<trkpt lat="-27.274297" lon="151.290635">
  <ele>369.61</ele>
  <time>2026-09-01T20:03:29Z</time>
  <course>163.3</course>
  <speed>17.38</speed>
  <fix>3d</fix>
</trkpt>
<trkpt lat="-27.2743294" lon="151.2906459">
  <ele>369.93</ele>
  <time>2026-09-01T20:03:29Z</time>
  <course>168.84</course>
  <speed>17.37209544067727</speed>
  <fix>3d</fix>
</trkpt>
<trkpt lat="-27.274297" lon="151.290635">
  <ele>369.61</ele>
  <time>2026-09-01T20:03:29Z</time>
  <course>163.3</course>
  <speed>17.38</speed>
  <fix>3d</fix>
</trkpt>
<trkpt lat="-27.2743444" lon="151.2906509">
  <ele>369.77</ele>
  <time>2026-09-01T20:03:29Z</time>
  <course>169.65</course>
  <speed>17.37209544067727</speed>
  <fix>3d</fix>
</trkpt>
<trkpt lat="-27.274327" lon="151.2906443">
  <ele>369.81</ele>
  <time>2026-09-01T20:03:29Z</time>
  <course>165.91</course>
  <speed>17.27</speed>
  <fix>3d</fix>
</trkpt>
<trkpt lat="-27.2743596" lon="151.2906535">
  <ele>370.12</ele>
  <time>2026-09-01T20:03:29Z</time>
  <course>170.5</course>
  <speed>17.268540760585417</speed>
  <fix>3d</fix>
</trkpt>
<trkpt lat="-27.274327" lon="151.2906443">
  <ele>369.81</ele>
  <time>2026-09-01T20:03:29Z</time>
  <course>165.91</course>
  <speed>17.27</speed>
  <fix>3d</fix>
</trkpt>
<trkpt lat="-27.2743747" lon="151.2906577">
  <ele>370.29</ele>
  <time>2026-09-01T20:03:29Z</time>
  <course>171.39</course>
  <speed>17.268540760585417</speed>
  <fix>3d</fix>
</trkpt>
<trkpt lat="-27.2743572" lon="151.290652">
  <ele>370.02</ele>
  <time>2026-09-01T20:03:29Z</time>
  <course>168.63</course>
  <speed>17.17</speed>
  <fix>3d</fix>
</trkpt>
<trkpt lat="-27.27439" lon="151.2906594">
  <ele>370.1</ele>
  <time>2026-09-01T20:03:29Z</time>
  <course>172.35</course>
  <speed>17.166050798014084</speed>
  <fix>3d</fix>
</trkpt>
<trkpt lat="-27.2743572" lon="151.290652">
  <ele>370.02</ele>
  <time>2026-09-01T20:03:29Z</time>
  <course>168.63</course>
  <speed>17.17</speed>
  <fix>3d</fix>
</trkpt>
<trkpt lat="-27.2744051" lon="151.2906628">
  <ele>370.37</ele>
  <time>2026-09-01T20:03:29Z</time>
  <course>173.22</course>
  <speed>17.166050798014084</speed>
  <fix>3d</fix>
</trkpt>
<trkpt lat="-27.2743875" lon="151.2906579">
  <ele>370.23</ele>
  <time>2026-09-01T20:03:29Z</time>
  <course>171.44</course>
  <speed>17.07</speed>
  <fix>3d</fix>
</trkpt>
<trkpt lat="-27.2744204" lon="151.2906634">
  <ele>370.41</ele>
  <time>2026-09-01T20:03:29Z</time>
  <course>174.08</course>
  <speed>17.068547096926558</speed>
  <fix>3d</fix>
</trkpt>
<trkpt lat="-27.2743875" lon="151.2906579">
  <ele>370.23</ele>
  <time>2026-09-01T20:03:29Z</time>
  <course>171.44</course>
  <speed>17.07</speed>
  <fix>3d</fix>
</trkpt>
<trkpt lat="-27.2744355" lon="151.290666">
  <ele>370.34</ele>
  <time>2026-09-01T20:03:29Z</time>
  <course>175.02</course>
  <speed>17.068547096926558</speed>
  <fix>3d</fix>
</trkpt>
<trkpt lat="-27.2744179" lon="151.2906621">
  <ele>370.44</ele>
  <time>2026-09-01T20:03:29Z</time>
  <course>174.34</course>
  <speed>16.99</speed>
  <fix>3d</fix>
</trkpt>
<trkpt lat="-27.2744508" lon="151.2906657">
  <ele>370.41</ele>
  <time>2026-09-01T20:03:29Z</time>
  <course>176.03</course>
  <speed>16.982311385674212</speed>
  <fix>3d</fix>
</trkpt>
<trkpt lat="-27.2744179" lon="151.2906621">
  <ele>370.44</ele>
  <time>2026-09-01T20:03:29Z</time>
  <course>174.34</course>
  <speed>16.99</speed>
  <fix>3d</fix>
</trkpt>
<trkpt lat="-27.274466" lon="151.2906674">
  <ele>370.85</ele>
  <time>2026-09-01T20:03:29Z</time>
  <course>176.98</course>
  <speed>16.982311385674212</speed>
  <fix>3d</fix>
</trkpt>
<trkpt lat="-27.2744482" lon="151.2906646">
  <ele>370.64</ele>
  <time>2026-09-01T20:03:29Z</time>
  <course>177.32</course>
  <speed>16.92</speed>
  <fix>3d</fix>
</trkpt>
<trkpt lat="-27.2744811" lon="151.2906663">
  <ele>370.75</ele>
  <time>2026-09-01T20:03:29Z</time>
  <course>177.91</course>
  <speed>16.91845442113434</speed>
  <fix>3d</fix>
</trkpt>
<trkpt lat="-27.2744482" lon="151.2906646">
  <ele>370.64</ele>
  <time>2026-09-01T20:03:29Z</time>
  <course>177.32</course>
  <speed>16.92</speed>
  <fix>3d</fix>
</trkpt>
<trkpt lat="-27.2744961" lon="151.2906671">
  <ele>370.71</ele>
  <time>2026-09-01T20:03:29Z</time>
  <course>178.88</course>
  <speed>16.91845442113434</speed>
  <fix>3d</fix>
</trkpt>
<trkpt lat="-27.2744785" lon="151.2906654">
  <ele>370.83</ele>
  <time>2026-09-01T20:03:29Z</time>
  <course>180.37</course>
  <speed>16.87</speed>
  <fix>3d</fix>
</trkpt>
<trkpt lat="-27.2745113" lon="151.2906652">
  <ele>370.91</ele>
  <time>2026-09-01T20:03:29Z</time>
  <course>179.89</course>
  <speed>16.870358620965945</speed>
  <fix>3d</fix>
</trkpt>
<trkpt lat="-27.2744785" lon="151.2906654">
  <ele>370.83</ele>
  <time>2026-09-01T20:03:29Z</time>
  <course>180.37</course>
  <speed>16.87</speed>
  <fix>3d</fix>
</trkpt>
<trkpt lat="-27.2745265" lon="151.2906651">
  <ele>370.92</ele>
  <time>2026-09-01T20:03:29Z</time>
  <course>180.83</course>
  <speed>16.870358620965945</speed>
  <fix>3d</fix>
</trkpt>
<trkpt lat="-27.2745088" lon="151.2906642">
  <ele>371.01</ele>
  <time>2026-09-01T20:03:29Z</time>
  <course>183.46</course>
  <speed>16.84</speed>
  <fix>3d</fix>
</trkpt>
<trkpt lat="-27.2745414" lon="151.290662">
  <ele>371.33</ele>
  <time>2026-09-01T20:03:29Z</time>
  <course>181.77</course>
  <speed>16.84031472389991</speed>
  <fix>3d</fix>
</trkpt>
<trkpt lat="-27.2745088" lon="151.2906642">
  <ele>371.01</ele>
  <time>2026-09-01T20:03:29Z</time>
  <course>183.46</course>
  <speed>16.84</speed>
  <fix>3d</fix>
</trkpt>
<trkpt lat="-27.2745565" lon="151.290661">
  <ele>371.42</ele>
  <time>2026-09-01T20:03:29Z</time>
  <course>182.78</course>
  <speed>16.84031472389991</speed>
  <fix>3d</fix>
</trkpt>
<trkpt lat="-27.2745388" lon="151.2906612">
  <ele>371.18</ele>
  <time>2026-09-01T20:03:29Z</time>
  <course>186.59</course>
  <speed>16.82</speed>
  <fix>3d</fix>
</trkpt>
<trkpt lat="-27.2745713" lon="151.290657">
  <ele>371.16</ele>
  <time>2026-09-01T20:03:29Z</time>
  <course>183.75</course>
  <speed>16.82108795530182</speed>
  <fix>3d</fix>
</trkpt>
<trkpt lat="-27.2745388" lon="151.2906612">
  <ele>371.18</ele>
  <time>2026-09-01T20:03:29Z</time>
  <course>186.59</course>
  <speed>16.82</speed>
  <fix>3d</fix>
</trkpt>
<trkpt lat="-27.2745863" lon="151.2906551">
  <ele>371.26</ele>
  <time>2026-09-01T20:03:29Z</time>
  <course>184.69</course>
  <speed>16.82108795530182</speed>
  <fix>3d</fix>
</trkpt>
<trkpt lat="-27.2745689" lon="151.2906564">
  <ele>371.33</ele>
  <time>2026-09-01T20:03:29Z</time>
  <course>189.73</course>
  <speed>16.82</speed>
  <fix>3d</fix>
</trkpt>
<trkpt lat="-27.2746012" lon="151.2906502">
  <ele>371.63</ele>
  <time>2026-09-01T20:03:29Z</time>
  <course>185.75</course>
  <speed>16.81161800660484</speed>
  <fix>3d</fix>
</trkpt>
<trkpt lat="-27.2745689" lon="151.2906564">
  <ele>371.33</ele>
  <time>2026-09-01T20:03:29Z</time>
  <course>189.73</course>
  <speed>16.82</speed>
  <fix>3d</fix>
</trkpt>
<trkpt lat="-27.2746161" lon="151.2906473">
  <ele>371.46</ele>
  <time>2026-09-01T20:03:29Z</time>
  <course>186.79</course>
  <speed>16.81161800660484</speed>
  <fix>3d</fix>
</trkpt>
<trkpt lat="-27.2745986" lon="151.2906498">
  <ele>371.47</ele>
  <time>2026-09-01T20:03:29Z</time>
  <course>192.87</course>
  <speed>16.83</speed>
  <fix>3d</fix>
</trkpt>
<trkpt lat="-27.2746305" lon="151.2906416">
  <ele>371.4</ele>
  <time>2026-09-01T20:03:29Z</time>
  <course>187.77</course>
  <speed>16.82104634081959</speed>
  <fix>3d</fix>
</trkpt>
<trkpt lat="-27.2745986" lon="151.2906498">
  <ele>371.47</ele>
  <time>2026-09-01T20:03:29Z</time>
  <course>192.87</course>
  <speed>16.83</speed>
  <fix>3d</fix>
</trkpt>
<trkpt lat="-27.2746453" lon="151.2906378">
  <ele>371.75</ele>
  <time>2026-09-01T20:03:29Z</time>
  <course>188.76</course>
  <speed>16.82104634081959</speed>
  <fix>3d</fix>
</trkpt>
<trkpt lat="-27.2746278" lon="151.2906414">
  <ele>371.61</ele>
  <time>2026-09-01T20:03:29Z</time>
  <course>196.02</course>
  <speed>16.86</speed>
  <fix>3d</fix>
</trkpt>
<trkpt lat="-27.2746593" lon="151.2906312">
  <ele>371.87</ele>
  <time>2026-09-01T20:03:29Z</time>
  <course>189.73</course>
  <speed>16.854153790683174</speed>
  <fix>3d</fix>
</trkpt>
<trkpt lat="-27.2746278" lon="151.2906414">
  <ele>371.61</ele>
  <time>2026-09-01T20:03:29Z</time>
  <course>196.02</course>
  <speed>16.86</speed>
  <fix>3d</fix>
</trkpt>
<trkpt lat="-27.2746739" lon="151.2906265">
  <ele>371.64</ele>
  <time>2026-09-01T20:03:29Z</time>
  <course>190.78</course>
  <speed>16.854153790683174</speed>
  <fix>3d</fix>
</trkpt>
<trkpt lat="-27.2746567" lon="151.290631">
  <ele>371.72</ele>
  <time>2026-09-01T20:03:29Z</time>
  <course>199.18</course>
  <speed>16.92</speed>
  <fix>3d</fix>
</trkpt>
<trkpt lat="-27.2746878" lon="151.2906189">
  <ele>371.96</ele>
  <time>2026-09-01T20:03:29Z</time>
  <course>191.8</course>
  <speed>16.916350079139413</speed>
  <fix>3d</fix>
</trkpt>
<trkpt lat="-27.2746567" lon="151.290631">
  <ele>371.72</ele>
  <time>2026-09-01T20:03:29Z</time>
  <course>199.18</course>
  <speed>16.92</speed>
  <fix>3d</fix>
</trkpt>
<trkpt lat="-27.2747022" lon="151.2906132">
  <ele>371.71</ele>
  <time>2026-09-01T20:03:29Z</time>
  <course>192.83</course>
  <speed>16.916350079139413</speed>
  <fix>3d</fix>
</trkpt>
<trkpt lat="-27.2746852" lon="151.2906188">
  <ele>371.83</ele>
  <time>2026-09-01T20:03:29Z</time>
  <course>202.32</course>
  <speed>16.99</speed>
  <fix>3d</fix>
</trkpt>
<trkpt lat="-27.2747158" lon="151.2906047">
  <ele>372.09</ele>
  <time>2026-09-01T20:03:29Z</time>
  <course>193.96</course>
  <speed>16.982538090638865</speed>
  <fix>3d</fix>
</trkpt>
<trkpt lat="-27.2746852" lon="151.2906188">
  <ele>371.83</ele>
  <time>2026-09-01T20:03:29Z</time>
  <course>202.32</course>
  <speed>16.99</speed>
  <fix>3d</fix>
</trkpt>
<trkpt lat="-27.2747299" lon="151.2905982">
  <ele>372.09</ele>
  <time>2026-09-01T20:03:29Z</time>
  <course>194.96</course>
  <speed>16.982538090638865</speed>
  <fix>3d</fix>
</trkpt>
<trkpt lat="-27.2747132" lon="151.2906049">
  <ele>371.92</ele>
  <time>2026-09-01T20:03:29Z</time>
  <course>205.51</course>
  <speed>17.08</speed>
  <fix>3d</fix>
</trkpt>
<trkpt lat="-27.2747432" lon="151.2905888">
  <ele>371.97</ele>
  <time>2026-09-01T20:03:29Z</time>
  <course>196.01</course>
  <speed>17.07309579426063</speed>
  <fix>3d</fix>
</trkpt>
<trkpt lat="-27.2747132" lon="151.2906049">
  <ele>371.92</ele>
  <time>2026-09-01T20:03:29Z</time>
  <course>205.51</course>
  <speed>17.08</speed>
  <fix>3d</fix>
</trkpt>
<trkpt lat="-27.274757" lon="151.2905814">
  <ele>371.92</ele>
  <time>2026-09-01T20:03:29Z</time>
  <course>197.08</course>
  <speed>17.07309579426063</speed>
  <fix>3d</fix>
</trkpt>
<trkpt lat="-27.2747406" lon="151.2905891">
  <ele>372.01</ele>
  <time>2026-09-01T20:03:29Z</time>
  <course>208.71</course>
  <speed>17.19</speed>
  <fix>3d</fix>
</trkpt>
<trkpt lat="-27.2747699" lon="151.290571">
  <ele>372.23</ele>
  <time>2026-09-01T20:03:29Z</time>
  <course>198.04</course>
  <speed>17.194010585084563</speed>
  <fix>3d</fix>
</trkpt>
<trkpt lat="-27.2747406" lon="151.2905891">
  <ele>372.01</ele>
  <time>2026-09-01T20:03:29Z</time>
  <course>208.71</course>
  <speed>17.19</speed>
  <fix>3d</fix>
</trkpt>
<trkpt lat="-27.2747835" lon="151.2905627">
  <ele>372.22</ele>
  <time>2026-09-01T20:03:29Z</time>
  <course>199.12</course>
  <speed>17.194010585084563</speed>
  <fix>3d</fix>
</trkpt>
<trkpt lat="-27.2747674" lon="151.2905715">
  <ele>372.09</ele>
  <time>2026-09-01T20:03:29Z</time>
  <course>211.83</course>
  <speed>17.33</speed>
  <fix>3d</fix>
</trkpt>
<trkpt lat="-27.2747959" lon="151.2905516">
  <ele>371.98</ele>
  <time>2026-09-01T20:03:29Z</time>
  <course>200.21</course>
  <speed>17.326800050788375</speed>
  <fix>3d</fix>
</trkpt>
<trkpt lat="-27.2747674" lon="151.2905715">
  <ele>372.09</ele>
  <time>2026-09-01T20:03:29Z</time>
  <course>211.83</course>
  <speed>17.33</speed>
  <fix>3d</fix>
</trkpt>
<trkpt lat="-27.2748091" lon="151.2905424">
  <ele>372.21</ele>
  <time>2026-09-01T20:03:29Z</time>
  <course>201.29</course>
  <speed>17.326800050788375</speed>
  <fix>3d</fix>
</trkpt>
<trkpt lat="-27.2747935" lon="151.2905521">
  <ele>372.15</ele>
  <time>2026-09-01T20:03:29Z</time>
  <course>214.97</course>
  <speed>17.49</speed>
  <fix>3d</fix>
</trkpt>
<trkpt lat="-27.2748213" lon="151.2905303">
  <ele>372.27</ele>
  <time>2026-09-01T20:03:29Z</time>
  <course>202.38</course>
  <speed>17.485688433687706</speed>
  <fix>3d</fix>
</trkpt>
<trkpt lat="-27.2747935" lon="151.2905521">
  <ele>372.15</ele>
  <time>2026-09-01T20:03:29Z</time>
  <course>214.97</course>
  <speed>17.49</speed>
  <fix>3d</fix>
</trkpt>
<trkpt lat="-27.2748341" lon="151.2905201">
  <ele>372.05</ele>
  <time>2026-09-01T20:03:29Z</time>
  <course>203.5</course>
  <speed>17.485688433687706</speed>
  <fix>3d</fix>
</trkpt>
<trkpt lat="-27.2748188" lon="151.290531">
  <ele>372.2</ele>
  <time>2026-09-01T20:03:29Z</time>
  <course>218.15</course>
  <speed>17.68</speed>
  <fix>3d</fix>
</trkpt>
<trkpt lat="-27.2748457" lon="151.2905072">
  <ele>372.07</ele>
  <time>2026-09-01T20:03:29Z</time>
  <course>204.65</course>
  <speed>17.676436292420483</speed>
  <fix>3d</fix>
</trkpt>
<trkpt lat="-27.2748188" lon="151.290531">
  <ele>372.2</ele>
  <time>2026-09-01T20:03:29Z</time>
  <course>218.15</course>
  <speed>17.68</speed>
  <fix>3d</fix>
</trkpt>
<trkpt lat="-27.2748582" lon="151.2904962">
  <ele>372.33</ele>
  <time>2026-09-01T20:03:29Z</time>
  <course>205.75</course>
  <speed>17.676436292420483</speed>
  <fix>3d</fix>
</trkpt>
<trkpt lat="-27.2748434" lon="151.290508">
  <ele>372.25</ele>
  <time>2026-09-01T20:03:29Z</time>
  <course>221.35</course>
  <speed>17.9</speed>
  <fix>3d</fix>
</trkpt>
<trkpt lat="-27.2748694" lon="151.2904822">
  <ele>372.18</ele>
  <time>2026-09-01T20:03:29Z</time>
  <course>206.87</course>
  <speed>17.890704290217307</speed>
  <fix>3d</fix>
</trkpt>
<trkpt lat="-27.2748434" lon="151.290508">
  <ele>372.25</ele>
  <time>2026-09-01T20:03:29Z</time>
  <course>221.35</course>
  <speed>17.9</speed>
  <fix>3d</fix>
</trkpt>
<trkpt lat="-27.2748815" lon="151.2904703">
  <ele>372.37</ele>
  <time>2026-09-01T20:03:29Z</time>
  <course>208.04</course>
  <speed>17.890704290217307</speed>
  <fix>3d</fix>
</trkpt>
<trkpt lat="-27.2748672" lon="151.2904831">
  <ele>372.3</ele>
  <time>2026-09-01T20:03:29Z</time>
  <course>224.56</course>
  <speed>18.13</speed>
  <fix>3d</fix>
</trkpt>
<trkpt lat="-27.2748923" lon="151.2904552">
  <ele>372.2</ele>
  <time>2026-09-01T20:03:29Z</time>
  <course>209.28</course>
  <speed>18.130769426585292</speed>
  <fix>3d</fix>
</trkpt>
<trkpt lat="-27.2748672" lon="151.2904831">
  <ele>372.3</ele>
  <time>2026-09-01T20:03:29Z</time>
  <course>224.56</course>
  <speed>18.13</speed>
  <fix>3d</fix>
</trkpt>
<trkpt lat="-27.274904" lon="151.2904424">
  <ele>372.18</ele>
  <time>2026-09-01T20:03:29Z</time>
  <course>210.43</course>
  <speed>18.130769426585292</speed>
  <fix>3d</fix>
</trkpt>
<trkpt lat="-27.2748899" lon="151.2904564">
  <ele>372.34</ele>
  <time>2026-09-01T20:03:29Z</time>
  <course>227.8</course>
  <speed>18.4</speed>
  <fix>3d</fix>
</trkpt>
<trkpt lat="-27.2749139" lon="151.2904266">
  <ele>372.29</ele>
  <time>2026-09-01T20:03:29Z</time>
  <course>211.66</course>
  <speed>18.39963314851685</speed>
  <fix>3d</fix>
</trkpt>
<trkpt lat="-27.2748899" lon="151.2904564">
  <ele>372.34</ele>
  <time>2026-09-01T20:03:29Z</time>
  <course>227.8</course>
  <speed>18.4</speed>
  <fix>3d</fix>
</trkpt>
<trkpt lat="-27.2749251" lon="151.2904128">
  <ele>372.44</ele>
  <time>2026-09-01T20:03:29Z</time>
  <course>212.88</course>
  <speed>18.39963314851685</speed>
  <fix>3d</fix>
</trkpt>
<trkpt lat="-27.2749115" lon="151.290428">
  <ele>372.38</ele>
  <time>2026-09-01T20:03:29Z</time>
  <course>231.06</course>
  <speed>18.69</speed>
  <fix>3d</fix>
</trkpt>
<trkpt lat="-27.2749344" lon="151.2903962">
  <ele>372.35</ele>
  <time>2026-09-01T20:03:29Z</time>
  <course>214.17</course>
  <speed>18.687942636898264</speed>
  <fix>3d</fix>
</trkpt>
<trkpt lat="-27.2749115" lon="151.290428">
  <ele>372.38</ele>
  <time>2026-09-01T20:03:29Z</time>
  <course>231.06</course>
  <speed>18.69</speed>
  <fix>3d</fix>
</trkpt>
<trkpt lat="-27.2749449" lon="151.2903815">
  <ele>372.26</ele>
  <time>2026-09-01T20:03:29Z</time>
  <course>215.45</course>
  <speed>18.687942636898264</speed>
  <fix>3d</fix>
</trkpt>
<trkpt lat="-27.274932" lon="151.2903976">
  <ele>372.41</ele>
  <time>2026-09-01T20:03:29Z</time>
  <course>234.33</course>
  <speed>19.01</speed>
  <fix>3d</fix>
</trkpt>
<trkpt lat="-27.2749536" lon="151.2903638">
  <ele>372.64</ele>
  <time>2026-09-01T20:03:29Z</time>
  <course>216.68</course>
  <speed>19.004210059878837</speed>
  <fix>3d</fix>
</trkpt>
<trkpt lat="-27.274932" lon="151.2903976">
  <ele>372.41</ele>
  <time>2026-09-01T20:03:29Z</time>
  <course>234.33</course>
  <speed>19.01</speed>
  <fix>3d</fix>
</trkpt>
<trkpt lat="-27.2749635" lon="151.2903482">
  <ele>372.29</ele>
  <time>2026-09-01T20:03:29Z</time>
  <course>217.92</course>
  <speed>19.004210059878837</speed>
  <fix>3d</fix>
</trkpt>
<trkpt lat="-27.2749513" lon="151.2903655">
  <ele>372.46</ele>
  <time>2026-09-01T20:03:29Z</time>
  <course>237.61</course>
  <speed>19.35</speed>
  <fix>3d</fix>
</trkpt>
<trkpt lat="-27.2749715" lon="151.2903297">
  <ele>372.47</ele>
  <time>2026-09-01T20:03:29Z</time>
  <course>219.19</course>
  <speed>19.34748562475238</speed>
  <fix>3d</fix>
</trkpt>
<trkpt lat="-27.2749513" lon="151.2903655">
  <ele>372.46</ele>
  <time>2026-09-01T20:03:29Z</time>
  <course>237.61</course>
  <speed>19.35</speed>
  <fix>3d</fix>
</trkpt>
<trkpt lat="-27.2749808" lon="151.2903132">
  <ele>372.45</ele>
  <time>2026-09-01T20:03:29Z</time>
  <course>220.5</course>
  <speed>19.34748562475238</speed>
  <fix>3d</fix>
</trkpt>
<trkpt lat="-27.2749692" lon="151.2903316">
  <ele>372.51</ele>
  <time>2026-09-01T20:03:29Z</time>
  <course>240.92</course>
  <speed>19.72</speed>
  <fix>3d</fix>
</trkpt>
<trkpt lat="-27.2749878" lon="151.2902938">
  <ele>372.45</ele>
  <time>2026-09-01T20:03:29Z</time>
  <course>221.89</course>
  <speed>19.714190320680178</speed>
  <fix>3d</fix>
</trkpt>
<trkpt lat="-27.2749692" lon="151.2903316">
  <ele>372.51</ele>
  <time>2026-09-01T20:03:29Z</time>
  <course>240.92</course>
  <speed>19.72</speed>
  <fix>3d</fix>
</trkpt>
<trkpt lat="-27.2749964" lon="151.2902764">
  <ele>372.69</ele>
  <time>2026-09-01T20:03:29Z</time>
  <course>223.31</course>
  <speed>19.714190320680178</speed>
  <fix>3d</fix>
</trkpt>
<trkpt lat="-27.2749857" lon="151.2902959">
  <ele>372.56</ele>
  <time>2026-09-01T20:03:29Z</time>
  <course>244.25</course>
  <speed>20.11</speed>
  <fix>3d</fix>
</trkpt>
<trkpt lat="-27.2750027" lon="151.2902562">
  <ele>372.65</ele>
  <time>2026-09-01T20:03:29Z</time>
  <course>224.67</course>
  <speed>20.104352762523842</speed>
  <fix>3d</fix>
</trkpt>
<trkpt lat="-27.2749857" lon="151.2902959">
  <ele>372.56</ele>
  <time>2026-09-01T20:03:29Z</time>
  <course>244.25</course>
  <speed>20.11</speed>
  <fix>3d</fix>
</trkpt>
<trkpt lat="-27.2750105" lon="151.2902381">
  <ele>372.61</ele>
  <time>2026-09-01T20:03:29Z</time>
  <course>226.09</course>
  <speed>20.104352762523842</speed>
  <fix>3d</fix>
</trkpt>
<trkpt lat="-27.2750006" lon="151.2902584">
  <ele>372.62</ele>
  <time>2026-09-01T20:03:29Z</time>
  <course>247.6</course>
  <speed>20.52</speed>
  <fix>3d</fix>
</trkpt>
<trkpt lat="-27.2750157" lon="151.290217">
  <ele>372.73</ele>
  <time>2026-09-01T20:03:29Z</time>
  <course>227.54</course>
  <speed>20.52785424733915</speed>
  <fix>3d</fix>
</trkpt>
<trkpt lat="-27.2750006" lon="151.2902584">
  <ele>372.62</ele>
  <time>2026-09-01T20:03:29Z</time>
  <course>247.6</course>
  <speed>20.52</speed>
  <fix>3d</fix>
</trkpt>
<trkpt lat="-27.2750228" lon="151.2901978">
  <ele>372.57</ele>
  <time>2026-09-01T20:03:29Z</time>
  <course>228.96</course>
  <speed>20.52785424733915</speed>
  <fix>3d</fix>
</trkpt>
<trkpt lat="-27.2750137" lon="151.2902192">
  <ele>372.68</ele>
  <time>2026-09-01T20:03:29Z</time>
  <course>250.98</course>
  <speed>20.96</speed>
  <fix>3d</fix>
</trkpt>
<trkpt lat="-27.2750269" lon="151.290176">
  <ele>372.52</ele>
  <time>2026-09-01T20:03:29Z</time>
  <course>230.4</course>
  <speed>20.96380929125239</speed>
  <fix>3d</fix>
</trkpt>
<trkpt lat="-27.2750137" lon="151.2902192">
  <ele>372.68</ele>
  <time>2026-09-01T20:03:29Z</time>
  <course>250.98</course>
  <speed>20.96</speed>
  <fix>3d</fix>
</trkpt>
<trkpt lat="-27.275033" lon="151.2901559">
  <ele>372.75</ele>
  <time>2026-09-01T20:03:29Z</time>
  <course>231.87</course>
  <speed>20.96380929125239</speed>
  <fix>3d</fix>
</trkpt>
<trkpt lat="-27.2750251" lon="151.2901782">
  <ele>372.74</ele>
  <time>2026-09-01T20:03:29Z</time>
  <course>254.36</course>
  <speed>21.42</speed>
  <fix>3d</fix>
</trkpt>
<trkpt lat="-27.2750363" lon="151.2901332">
  <ele>372.65</ele>
  <time>2026-09-01T20:03:29Z</time>
  <course>233.43</course>
  <speed>21.42171328348879</speed>
  <fix>3d</fix>
</trkpt>
<trkpt lat="-27.2750251" lon="151.2901782">
  <ele>372.74</ele>
  <time>2026-09-01T20:03:29Z</time>
  <course>254.36</course>
  <speed>21.42</speed>
  <fix>3d</fix>
</trkpt>
<trkpt lat="-27.2750414" lon="151.2901123">
  <ele>372.97</ele>
  <time>2026-09-01T20:03:29Z</time>
  <course>235.02</course>
  <speed>21.42171328348879</speed>
  <fix>3d</fix>
</trkpt>
<trkpt lat="-27.2750344" lon="151.2901356">
  <ele>372.8</ele>
  <time>2026-09-01T20:03:29Z</time>
  <course>257.76</course>
  <speed>21.91</speed>
  <fix>3d</fix>
</trkpt>
<trkpt lat="-27.2750434" lon="151.2900889">
  <ele>372.9</ele>
  <time>2026-09-01T20:03:29Z</time>
  <course>236.62</course>
  <speed>21.916797211271543</speed>
  <fix>3d</fix>
</trkpt>
<trkpt lat="-27.2750344" lon="151.2901356">
  <ele>372.8</ele>
  <time>2026-09-01T20:03:29Z</time>
  <course>257.76</course>
  <speed>21.91</speed>
  <fix>3d</fix>
</trkpt>
<trkpt lat="-27.2750475" lon="151.2900672">
  <ele>373.03</ele>
  <time>2026-09-01T20:03:29Z</time>
  <course>238.24</course>
  <speed>21.916797211271543</speed>
  <fix>3d</fix>
</trkpt>
<trkpt lat="-27.2750417" lon="151.2900915">
  <ele>372.86</ele>
  <time>2026-09-01T20:03:29Z</time>
  <course>261.24</course>
  <speed>22.44</speed>
  <fix>3d</fix>
</trkpt>
<trkpt lat="-27.2750483" lon="151.2900429">
  <ele>373.0</ele>
  <time>2026-09-01T20:03:29Z</time>
  <course>239.91</course>
  <speed>22.440599368109577</speed>
  <fix>3d</fix>
</trkpt>
<trkpt lat="-27.2750417" lon="151.2900915">
  <ele>372.86</ele>
  <time>2026-09-01T20:03:29Z</time>
  <course>261.24</course>
  <speed>22.44</speed>
  <fix>3d</fix>
</trkpt>
<trkpt lat="-27.2750514" lon="151.2900205">
  <ele>372.94</ele>
  <time>2026-09-01T20:03:29Z</time>
  <course>241.6</course>
  <speed>22.440599368109577</speed>
  <fix>3d</fix>
</trkpt>
<trkpt lat="-27.2750467" lon="151.290046">
  <ele>372.92</ele>
  <time>2026-09-01T20:03:29Z</time>
  <course>264.79</course>
  <speed>22.99</speed>
  <fix>3d</fix>
</trkpt>
<trkpt lat="-27.2750507" lon="151.2899958">
  <ele>373.01</ele>
  <time>2026-09-01T20:03:29Z</time>
  <course>243.35</course>
  <speed>22.984309865645304</speed>
  <fix>3d</fix>
</trkpt>
<trkpt lat="-27.2750467" lon="151.290046">
  <ele>372.92</ele>
  <time>2026-09-01T20:03:29Z</time>
  <course>264.79</course>
  <speed>22.99</speed>
  <fix>3d</fix>
</trkpt>
<trkpt lat="-27.2750526" lon="151.2899727">
  <ele>372.85</ele>
  <time>2026-09-01T20:03:29Z</time>
  <course>245.17</course>
  <speed>22.984309865645304</speed>
  <fix>3d</fix>
</trkpt>
<trkpt lat="-27.2750492" lon="151.2899991">
  <ele>372.99</ele>
  <time>2026-09-01T20:03:29Z</time>
  <course>268.38</course>
  <speed>23.56</speed>
  <fix>3d</fix>
</trkpt>
<trkpt lat="-27.2750504" lon="151.2899475">
  <ele>372.94</ele>
  <time>2026-09-01T20:03:29Z</time>
  <course>247.05</course>
  <speed>23.55924659236793</speed>
  <fix>3d</fix>
</trkpt>
<trkpt lat="-27.2750492" lon="151.2899991">
  <ele>372.99</ele>
  <time>2026-09-01T20:03:29Z</time>
  <course>268.38</course>
  <speed>23.56</speed>
  <fix>3d</fix>
</trkpt>
<trkpt lat="-27.275051" lon="151.2899234">
  <ele>373.11</ele>
  <time>2026-09-01T20:03:29Z</time>
  <course>248.91</course>
  <speed>23.55924659236793</speed>
  <fix>3d</fix>
</trkpt>
<trkpt lat="-27.275049" lon="151.2899509">
  <ele>373.07</ele>
  <time>2026-09-01T20:03:29Z</time>
  <course>272.03</course>
  <speed>24.17</speed>
  <fix>3d</fix>
</trkpt>
<trkpt lat="-27.2750474" lon="151.289898">
  <ele>373.31</ele>
  <time>2026-09-01T20:03:29Z</time>
  <course>250.87</course>
  <speed>24.17494777657234</speed>
  <fix>3d</fix>
</trkpt>
<trkpt lat="-27.275049" lon="151.2899509">
  <ele>373.07</ele>
  <time>2026-09-01T20:03:29Z</time>
  <course>272.03</course>
  <speed>24.17</speed>
  <fix>3d</fix>
</trkpt>
<trkpt lat="-27.2750466" lon="151.2898735">
  <ele>373.32</ele>
  <time>2026-09-01T20:03:29Z</time>
  <course>252.91</course>
  <speed>24.17494777657234</speed>
  <fix>3d</fix>
</trkpt>
<trkpt lat="-27.2750461" lon="151.2899015">
  <ele>373.14</ele>
  <time>2026-09-01T20:03:29Z</time>
  <course>275.76</course>
  <speed>24.82</speed>
  <fix>3d</fix>
</trkpt>
<trkpt lat="-27.2750413" lon="151.2898474">
  <ele>373.27</ele>
  <time>2026-09-01T20:03:29Z</time>
  <course>255.0</course>
  <speed>24.81524128433975</speed>
  <fix>3d</fix>
</trkpt>
<trkpt lat="-27.2750461" lon="151.2899015">
  <ele>373.14</ele>
  <time>2026-09-01T20:03:29Z</time>
  <course>275.76</course>
  <speed>24.82</speed>
  <fix>3d</fix>
</trkpt>
<trkpt lat="-27.2750391" lon="151.2898224">
  <ele>373.13</ele>
  <time>2026-09-01T20:03:29Z</time>
  <course>257.15</course>
  <speed>24.81524128433975</speed>
  <fix>3d</fix>
</trkpt>
<trkpt lat="-27.27504" lon="151.2898511">
  <ele>373.22</ele>
  <time>2026-09-01T20:03:29Z</time>
  <course>279.65</course>
  <speed>25.5</speed>
  <fix>3d</fix>
</trkpt>
<trkpt lat="-27.2750317" lon="151.289796">
  <ele>373.13</ele>
  <time>2026-09-01T20:03:29Z</time>
  <course>259.32</course>
  <speed>25.50004901956073</speed>
  <fix>3d</fix>
</trkpt>
<trkpt lat="-27.27504" lon="151.2898511">
  <ele>373.22</ele>
  <time>2026-09-01T20:03:29Z</time>
  <course>279.65</course>
  <speed>25.5</speed>
  <fix>3d</fix>
</trkpt>
<trkpt lat="-27.2750279" lon="151.2897706">
  <ele>373.49</ele>
  <time>2026-09-01T20:03:29Z</time>
  <course>261.39</course>
  <speed>25.50004901956073</speed>
  <fix>3d</fix>
</trkpt>
<trkpt lat="-27.2750306" lon="151.2897999">
  <ele>373.32</ele>
  <time>2026-09-01T20:03:29Z</time>
  <course>283.62</course>
  <speed>26.21</speed>
  <fix>3d</fix>
</trkpt>
<trkpt lat="-27.2750187" lon="151.2897443">
  <ele>373.37</ele>
  <time>2026-09-01T20:03:29Z</time>
  <course>263.61</course>
  <speed>26.206674722291645</speed>
  <fix>3d</fix>
</trkpt>
<trkpt lat="-27.2750306" lon="151.2897999">
  <ele>373.32</ele>
  <time>2026-09-01T20:03:29Z</time>
  <course>283.62</course>
  <speed>26.21</speed>
  <fix>3d</fix>
</trkpt>
<trkpt lat="-27.2750131" lon="151.2897186">
  <ele>373.65</ele>
  <time>2026-09-01T20:03:29Z</time>
  <course>265.92</course>
  <speed>26.206674722291645</speed>
  <fix>3d</fix>
</trkpt>
<trkpt lat="-27.2750178" lon="151.2897482">
  <ele>373.43</ele>
  <time>2026-09-01T20:03:29Z</time>
  <course>287.59</course>
  <speed>26.93</speed>
  <fix>3d</fix>
</trkpt>
<trkpt lat="-27.2750021" lon="151.2896922">
  <ele>373.71</ele>
  <time>2026-09-01T20:03:29Z</time>
  <course>268.31</course>
  <speed>26.926674506890002</speed>
  <fix>3d</fix>
</trkpt>
<trkpt lat="-27.2750178" lon="151.2897482">
  <ele>373.43</ele>
  <time>2026-09-01T20:03:29Z</time>
  <course>287.59</course>
  <speed>26.93</speed>
  <fix>3d</fix>
</trkpt>
<trkpt lat="-27.2749947" lon="151.2896663">
  <ele>373.61</ele>
  <time>2026-09-01T20:03:29Z</time>
  <course>270.82</course>
  <speed>26.926674506890002</speed>
  <fix>3d</fix>
</trkpt>
<trkpt lat="-27.2750013" lon="151.2896963">
  <ele>373.55</ele>
  <time>2026-09-01T20:03:29Z</time>
  <course>291.65</course>
  <speed>27.67</speed>
  <fix>3d</fix>
</trkpt>
<trkpt lat="-27.2749815" lon="151.2896402">
  <ele>373.77</ele>
  <time>2026-09-01T20:03:29Z</time>
  <course>273.34</course>
  <speed>27.672414061660756</speed>
  <fix>3d</fix>
</trkpt>
<trkpt lat="-27.2750013" lon="151.2896963">
  <ele>373.55</ele>
  <time>2026-09-01T20:03:29Z</time>
  <course>291.65</course>
  <speed>27.67</speed>
  <fix>3d</fix>
</trkpt>
<trkpt lat="-27.2749724" lon="151.2896142">
  <ele>373.8</ele>
  <time>2026-09-01T20:03:29Z</time>
  <course>275.86</course>
  <speed>27.672414061660756</speed>
  <fix>3d</fix>
</trkpt>
<trkpt lat="-27.2749809" lon="151.2896443">
  <ele>373.68</ele>
  <time>2026-09-01T20:03:29Z</time>
  <course>295.91</course>
  <speed>28.44</speed>
  <fix>3d</fix>
</trkpt>
<trkpt lat="-27.2749568" lon="151.2895885">
  <ele>373.79</ele>
  <time>2026-09-01T20:03:29Z</time>
  <course>278.41</course>
  <speed>28.43576621088308</speed>
  <fix>3d</fix>
</trkpt>
<trkpt lat="-27.2749809" lon="151.2896443">
  <ele>373.68</ele>
  <time>2026-09-01T20:03:29Z</time>
  <course>295.91</course>
  <speed>28.44</speed>
  <fix>3d</fix>
</trkpt>
<trkpt lat="-27.2749457" lon="151.2895627">
  <ele>373.93</ele>
  <time>2026-09-01T20:03:29Z</time>
  <course>281.03</course>
  <speed>28.43576621088308</speed>
  <fix>3d</fix>
</trkpt>
<trkpt lat="-27.2749565" lon="151.2895929">
  <ele>373.83</ele>
  <time>2026-09-01T20:03:29Z</time>
  <course>300.24</course>
  <speed>29.21</speed>
  <fix>3d</fix>
</trkpt>
<trkpt lat="-27.274928" lon="151.2895378">
  <ele>373.86</ele>
  <time>2026-09-01T20:03:29Z</time>
  <course>283.85</course>
  <speed>29.213724514344282</speed>
  <fix>3d</fix>
</trkpt>
<trkpt lat="-27.2749565" lon="151.2895929">
  <ele>373.83</ele>
  <time>2026-09-01T20:03:30Z</time>
  <course>300.24</course>
  <speed>29.21</speed>
  <fix>3d</fix>
</trkpt>
<trkpt lat="-27.2749148" lon="151.2895123">
  <ele>373.92</ele>
  <time>2026-09-01T20:03:30Z</time>
  <course>286.7</course>
  <speed>29.213724514344282</speed>
  <fix>3d</fix>
</trkpt>
<trkpt lat="-27.274928" lon="151.2895424">
  <ele>373.99</ele>
  <time>2026-09-01T20:03:30Z</time>
  <course>304.66</course>
  <speed>30.0</speed>
  <fix>3d</fix>
</trkpt>
<trkpt lat="-27.2748948" lon="151.2894883">
  <ele>374.11</ele>
  <time>2026-09-01T20:03:30Z</time>
  <course>289.52</course>
  <speed>29.994207774168668</speed>
  <fix>3d</fix>
</trkpt>
<trkpt lat="-27.274928" lon="151.2895424">
  <ele>373.99</ele>
  <time>2026-09-01T20:03:30Z</time>
  <course>304.66</course>
  <speed>30.0</speed>
  <fix>3d</fix>
</trkpt>
<trkpt lat="-27.2748795" lon="151.2894634">
  <ele>374.36</ele>
  <time>2026-09-01T20:03:30Z</time>
  <course>292.4</course>
  <speed>29.994207774168668</speed>
  <fix>3d</fix>
</trkpt>
<trkpt lat="-27.2748951" lon="151.2894933">
  <ele>374.17</ele>
  <time>2026-09-01T20:03:30Z</time>
  <course>309.19</course>
  <speed>30.78</speed>
  <fix>3d</fix>
</trkpt>
<trkpt lat="-27.2748572" lon="151.289441">
  <ele>374.21</ele>
  <time>2026-09-01T20:03:30Z</time>
  <course>295.37</course>
  <speed>30.775396016948342</speed>
  <fix>3d</fix>
</trkpt>
<trkpt lat="-27.2748951" lon="151.2894933">
  <ele>374.17</ele>
  <time>2026-09-01T20:03:30Z</time>
  <course>309.19</course>
  <speed>30.78</speed>
  <fix>3d</fix>
</trkpt>
<trkpt lat="-27.2748398" lon="151.2894169">
  <ele>374.33</ele>
  <time>2026-09-01T20:03:30Z</time>
  <course>298.47</course>
  <speed>30.775396016948342</speed>
  <fix>3d</fix>
</trkpt>
<trkpt lat="-27.274858" lon="151.2894461">
  <ele>374.37</ele>
  <time>2026-09-01T20:03:30Z</time>
  <course>313.8</course>
  <speed>31.55</speed>
  <fix>3d</fix>
</trkpt>
<trkpt lat="-27.2748155" lon="151.2893962">
  <ele>374.75</ele>
  <time>2026-09-01T20:03:30Z</time>
  <course>301.73</course>
  <speed>31.550887467708417</speed>
  <fix>3d</fix>
</trkpt>
<trkpt lat="-27.274858" lon="151.2894461">
  <ele>374.37</ele>
  <time>2026-09-01T20:03:30Z</time>
  <course>313.8</course>
  <speed>31.55</speed>
  <fix>3d</fix>
</trkpt>
<trkpt lat="-27.2747959" lon="151.2893732">
  <ele>374.87</ele>
  <time>2026-09-01T20:03:30Z</time>
  <course>305.12</course>
  <speed>31.550887467708417</speed>
  <fix>3d</fix>
</trkpt>
<trkpt lat="-27.2748167" lon="151.2894015">
  <ele>374.59</ele>
  <time>2026-09-01T20:03:30Z</time>
  <course>318.61</course>
  <speed>32.3</speed>
  <fix>3d</fix>
</trkpt>
<trkpt lat="-27.2747695" lon="151.2893547">
  <ele>374.84</ele>
  <time>2026-09-01T20:03:30Z</time>
  <course>308.52</course>
  <speed>32.301704289402444</speed>
  <fix>3d</fix>
</trkpt>
<trkpt lat="-27.2748167" lon="151.2894015">
  <ele>374.59</ele>
  <time>2026-09-01T20:03:30Z</time>
  <course>318.61</course>
  <speed>32.3</speed>
  <fix>3d</fix>
</trkpt>
<trkpt lat="-27.2747477" lon="151.2893331">
  <ele>374.81</ele>
  <time>2026-09-01T20:03:30Z</time>
  <course>311.98</course>
  <speed>32.301704289402444</speed>
  <fix>3d</fix>
</trkpt>
<trkpt lat="-27.274771" lon="151.2893601">
  <ele>374.84</ele>
  <time>2026-09-01T20:03:30Z</time>
  <course>323.68</course>
  <speed>33.04</speed>
  <fix>3d</fix>
</trkpt>
<trkpt lat="-27.2747192" lon="151.2893172">
  <ele>375.03</ele>
  <time>2026-09-01T20:03:30Z</time>
  <course>315.47</course>
  <speed>33.0335889663839</speed>
  <fix>3d</fix>
</trkpt>
<trkpt lat="-27.274771" lon="151.2893601">
  <ele>374.84</ele>
  <time>2026-09-01T20:03:30Z</time>
  <course>323.68</course>
  <speed>33.04</speed>
  <fix>3d</fix>
</trkpt>
<trkpt lat="-27.2746952" lon="151.2892975">
  <ele>375.34</ele>
  <time>2026-09-01T20:03:30Z</time>
  <course>319.05</course>
  <speed>33.0335889663839</speed>
  <fix>3d</fix>
</trkpt>
<trkpt lat="-27.2747211" lon="151.2893227">
  <ele>375.11</ele>
  <time>2026-09-01T20:03:30Z</time>
  <course>328.91</course>
  <speed>33.73</speed>
  <fix>3d</fix>
</trkpt>
<trkpt lat="-27.2746648" lon="151.2892846">
  <ele>375.34</ele>
  <time>2026-09-01T20:03:30Z</time>
  <course>322.81</course>
  <speed>33.72184010400381</speed>
  <fix>3d</fix>
</trkpt>
<trkpt lat="-27.2747211" lon="151.2893227">
  <ele>375.11</ele>
  <time>2026-09-01T20:03:30Z</time>
  <course>328.91</course>
  <speed>33.73</speed>
  <fix>3d</fix>
</trkpt>
<trkpt lat="-27.2746389" lon="151.2892669">
  <ele>375.46</ele>
  <time>2026-09-01T20:03:30Z</time>
  <course>326.64</course>
  <speed>33.72184010400381</speed>
  <fix>3d</fix>
</trkpt>
<trkpt lat="-27.2746673" lon="151.28929">
  <ele>375.41</ele>
  <time>2026-09-01T20:03:30Z</time>
  <course>334.27</course>
  <speed>34.36</speed>
  <fix>3d</fix>
</trkpt>
<trkpt lat="-27.2746073" lon="151.2892575">
  <ele>375.67</ele>
  <time>2026-09-01T20:03:30Z</time>
  <course>330.37</course>
  <speed>34.35419333938726</speed>
  <fix>3d</fix>
</trkpt>
<trkpt lat="-27.2746673" lon="151.28929">
  <ele>375.41</ele>
  <time>2026-09-01T20:03:30Z</time>
  <course>334.27</course>
  <speed>34.36</speed>
  <fix>3d</fix>
</trkpt>
<trkpt lat="-27.2745795" lon="151.2892424">
  <ele>376.03</ele>
  <time>2026-09-01T20:03:30Z</time>
  <course>334.15</course>
  <speed>34.35419333938726</speed>
  <fix>3d</fix>
</trkpt>
<trkpt lat="-27.27461" lon="151.2892627">
  <ele>375.75</ele>
  <time>2026-09-01T20:03:30Z</time>
  <course>339.76</course>
  <speed>34.91</speed>
  <fix>3d</fix>
</trkpt>
<trkpt lat="-27.2745465" lon="151.2892364">
  <ele>376.05</ele>
  <time>2026-09-01T20:03:30Z</time>
  <course>338.09</course>
  <speed>34.90340098042023</speed>
  <fix>3d</fix>
</trkpt>
<trkpt lat="-27.27461" lon="151.2892627">
  <ele>375.75</ele>
  <time>2026-09-01T20:03:30Z</time>
  <course>339.76</course>
  <speed>34.91</speed>
  <fix>3d</fix>
</trkpt>
<trkpt lat="-27.2745171" lon="151.2892242">
  <ele>376.2</ele>
  <time>2026-09-01T20:03:30Z</time>
  <course>342.07</course>
  <speed>34.90340098042023</speed>
  <fix>3d</fix>
</trkpt>
<trkpt lat="-27.2745497" lon="151.2892413">
  <ele>376.12</ele>
  <time>2026-09-01T20:03:30Z</time>
  <course>345.35</course>
  <speed>35.34</speed>
  <fix>3d</fix>
</trkpt>
<trkpt lat="-27.2744834" lon="151.2892218">
  <ele>376.64</ele>
  <time>2026-09-01T20:03:30Z</time>
  <course>345.98</course>
  <speed>35.336963649979886</speed>
  <fix>3d</fix>
</trkpt>
<trkpt lat="-27.2745497" lon="151.2892413">
  <ele>376.12</ele>
  <time>2026-09-01T20:03:30Z</time>
  <course>345.35</course>
  <speed>35.34</speed>
  <fix>3d</fix>
</trkpt>
<trkpt lat="-27.2744527" lon="151.2892128">
  <ele>376.77</ele>
  <time>2026-09-01T20:03:30Z</time>
  <course>349.87</course>
  <speed>35.336963649979886</speed>
  <fix>3d</fix>
</trkpt>
<trkpt lat="-27.2744872" lon="151.2892266">
  <ele>376.52</ele>
  <time>2026-09-01T20:03:30Z</time>
  <course>351.01</course>
  <speed>35.63</speed>
  <fix>3d</fix>
</trkpt>
<trkpt lat="-27.274419" lon="151.2892145">
  <ele>376.95</ele>
  <time>2026-09-01T20:03:30Z</time>
  <course>353.74</course>
  <speed>35.626530844301975</speed>
  <fix>3d</fix>
</trkpt>
<trkpt lat="-27.2744872" lon="151.2892266">
  <ele>376.52</ele>
  <time>2026-09-01T20:03:30Z</time>
  <course>351.01</course>
  <speed>35.63</speed>
  <fix>3d</fix>
</trkpt>
<trkpt lat="-27.2743873" lon="151.2892089">
  <ele>377.2</ele>
  <time>2026-09-01T20:03:30Z</time>
  <course>357.44</course>
  <speed>35.626530844301975</speed>
  <fix>3d</fix>
</trkpt>
<trkpt lat="-27.2744235" lon="151.2892189">
  <ele>376.95</ele>
  <time>2026-09-01T20:03:30Z</time>
  <course>356.6</course>
  <speed>35.77</speed>
  <fix>3d</fix>
</trkpt>
<trkpt lat="-27.2743539" lon="151.2892143">
  <ele>377.34</ele>
  <time>2026-09-01T20:03:30Z</time>
  <course>1.1</course>
  <speed>35.76229998196425</speed>
  <fix>3d</fix>
</trkpt>
<trkpt lat="-27.2744235" lon="151.2892189">
  <ele>376.95</ele>
  <time>2026-09-01T20:03:30Z</time>
  <course>356.6</course>
  <speed>35.77</speed>
  <fix>3d</fix>
</trkpt>
<trkpt lat="-27.2743219" lon="151.2892122">
  <ele>377.56</ele>
  <time>2026-09-01T20:03:30Z</time>
  <course>4.84</course>
  <speed>35.76229998196425</speed>
  <fix>3d</fix>
</trkpt>
<trkpt lat="-27.2743593" lon="151.289218">
  <ele>377.4</ele>
  <time>2026-09-01T20:03:30Z</time>
  <course>2.0</course>
  <speed>35.77</speed>
  <fix>3d</fix>
</trkpt>
<trkpt lat="-27.2742897" lon="151.2892207">
  <ele>377.72</ele>
  <time>2026-09-01T20:03:30Z</time>
  <course>8.53</course>
  <speed>35.771498431013484</speed>
  <fix>3d</fix>
</trkpt>
<trkpt lat="-27.2743593" lon="151.289218">
  <ele>377.4</ele>
  <time>2026-09-01T20:03:30Z</time>
  <course>2.0</course>
  <speed>35.77</speed>
  <fix>3d</fix>
</trkpt>
<trkpt lat="-27.2742575" lon="151.289222">
  <ele>377.86</ele>
  <time>2026-09-01T20:03:30Z</time>
  <course>12.1</course>
  <speed>35.771498431013484</speed>
  <fix>3d</fix>
</trkpt>
<trkpt lat="-27.2742954" lon="151.2892238">
  <ele>377.85</ele>
  <time>2026-09-01T20:03:30Z</time>
  <course>7.26</course>
  <speed>35.64</speed>
  <fix>3d</fix>
</trkpt>
<trkpt lat="-27.2742265" lon="151.2892336">
  <ele>378.27</ele>
  <time>2026-09-01T20:03:30Z</time>
  <course>15.64</course>
  <speed>35.635270449373614</speed>
  <fix>3d</fix>
</trkpt>
<trkpt lat="-27.2742954" lon="151.2892238">
  <ele>377.85</ele>
  <time>2026-09-01T20:03:30Z</time>
  <course>7.26</course>
  <speed>35.64</speed>
  <fix>3d</fix>
</trkpt>
<trkpt lat="-27.2741948" lon="151.2892382">
  <ele>378.6</ele>
  <time>2026-09-01T20:03:30Z</time>
  <course>19.32</course>
  <speed>35.635270449373614</speed>
  <fix>3d</fix>
</trkpt>
<trkpt lat="-27.2742325" lon="151.289236">
  <ele>378.29</ele>
  <time>2026-09-01T20:03:30Z</time>
  <course>12.42</course>
  <speed>35.39</speed>
  <fix>3d</fix>
</trkpt>
<trkpt lat="-27.2741652" lon="151.2892527">
  <ele>378.69</ele>
  <time>2026-09-01T20:03:30Z</time>
  <course>22.83</course>
  <speed>35.38793155865429</speed>
  <fix>3d</fix>
</trkpt>
<trkpt lat="-27.2742325" lon="151.289236">
  <ele>378.29</ele>
  <time>2026-09-01T20:03:30Z</time>
  <course>12.42</course>
  <speed>35.39</speed>
  <fix>3d</fix>
</trkpt>
<trkpt lat="-27.2741341" lon="151.2892604">
  <ele>378.96</ele>
  <time>2026-09-01T20:03:30Z</time>
  <course>26.26</course>
  <speed>35.38793155865429</speed>
  <fix>3d</fix>
</trkpt>
<trkpt lat="-27.2741714" lon="151.2892544">
  <ele>378.71</ele>
  <time>2026-09-01T20:03:30Z</time>
  <course>17.48</course>
  <speed>35.03</speed>
  <fix>3d</fix>
</trkpt>
<trkpt lat="-27.2741063" lon="151.2892774">
  <ele>379.01</ele>
  <time>2026-09-01T20:03:30Z</time>
  <course>29.67</course>
  <speed>35.02711092853649</speed>
  <fix>3d</fix>
</trkpt>
<trkpt lat="-27.2741714" lon="151.2892544">
  <ele>378.71</ele>
  <time>2026-09-01T20:03:30Z</time>
  <course>17.48</course>
  <speed>35.03</speed>
  <fix>3d</fix>
</trkpt>
<trkpt lat="-27.2740763" lon="151.2892881">
  <ele>379.24</ele>
  <time>2026-09-01T20:03:30Z</time>
  <course>32.93</course>
  <speed>35.02711092853649</speed>
  <fix>3d</fix>
</trkpt>
<trkpt lat="-27.2741126" lon="151.2892785">
  <ele>379.1</ele>
  <time>2026-09-01T20:03:30Z</time>
  <course>22.42</course>
  <speed>34.55</speed>
  <fix>3d</fix>
</trkpt>
<trkpt lat="-27.2740504" lon="151.2893074">
  <ele>379.41</ele>
  <time>2026-09-01T20:03:30Z</time>
  <course>36.22</course>
  <speed>34.55251076260595</speed>
  <fix>3d</fix>
</trkpt>
<trkpt lat="-27.2741126" lon="151.2892785">
  <ele>379.1</ele>
  <time>2026-09-01T20:03:30Z</time>
  <course>22.42</course>
  <speed>34.55</speed>
  <fix>3d</fix>
</trkpt>
<trkpt lat="-27.2740217" lon="151.2893207">
  <ele>379.7</ele>
  <time>2026-09-01T20:03:30Z</time>
  <course>39.43</course>
  <speed>34.55251076260595</speed>
  <fix>3d</fix>
</trkpt>
<trkpt lat="-27.2740568" lon="151.2893076">
  <ele>379.46</ele>
  <time>2026-09-01T20:03:30Z</time>
  <course>27.19</course>
  <speed>33.98</speed>
  <fix>3d</fix>
</trkpt>
<trkpt lat="-27.2739979" lon="151.2893416">
  <ele>379.55</ele>
  <time>2026-09-01T20:03:30Z</time>
  <course>42.57</course>
  <speed>33.97689361904646</speed>
  <fix>3d</fix>
</trkpt>
<trkpt lat="-27.2740568" lon="151.2893076">
  <ele>379.46</ele>
  <time>2026-09-01T20:03:30Z</time>
  <course>27.19</course>
  <speed>33.98</speed>
  <fix>3d</fix>
</trkpt>
<trkpt lat="-27.2739708" lon="151.2893573">
  <ele>379.68</ele>
  <time>2026-09-01T20:03:30Z</time>
  <course>45.65</course>
  <speed>33.97689361904646</speed>
  <fix>3d</fix>
</trkpt>
<trkpt lat="-27.2740042" lon="151.2893411">
  <ele>379.76</ele>
  <time>2026-09-01T20:03:30Z</time>
  <course>31.82</course>
  <speed>33.35</speed>
  <fix>3d</fix>
</trkpt>
<trkpt lat="-27.273949" lon="151.2893796">
  <ele>380.1</ele>
  <time>2026-09-01T20:03:30Z</time>
  <course>48.72</course>
  <speed>33.34984257833911</speed>
  <fix>3d</fix>
</trkpt>
<trkpt lat="-27.2740042" lon="151.2893411">
  <ele>379.76</ele>
  <time>2026-09-01T20:03:30Z</time>
  <course>31.82</course>
  <speed>33.35</speed>
  <fix>3d</fix>
</trkpt>
<trkpt lat="-27.2739235" lon="151.2893974">
  <ele>379.88</ele>
  <time>2026-09-01T20:03:30Z</time>
  <course>51.91</course>
  <speed>33.34984257833911</speed>
  <fix>3d</fix>
</trkpt>
<trkpt lat="-27.2739551" lon="151.2893785">
  <ele>380.0</ele>
  <time>2026-09-01T20:03:30Z</time>
  <course>36.35</course>
  <speed>32.67</speed>
  <fix>3d</fix>
</trkpt>
<trkpt lat="-27.2739041" lon="151.2894207">
  <ele>380.2</ele>
  <time>2026-09-01T20:03:30Z</time>
  <course>55.03</course>
  <speed>32.66535932758126</speed>
  <fix>3d</fix>
</trkpt>
<trkpt lat="-27.2739551" lon="151.2893785">
  <ele>380.0</ele>
  <time>2026-09-01T20:03:30Z</time>
  <course>36.35</course>
  <speed>32.67</speed>
  <fix>3d</fix>
</trkpt>
<trkpt lat="-27.2738805" lon="151.2894403">
  <ele>380.29</ele>
  <time>2026-09-01T20:03:30Z</time>
  <course>58.12</course>
  <speed>32.66535932758126</speed>
  <fix>3d</fix>
</trkpt>
<trkpt lat="-27.2739097" lon="151.2894193">
  <ele>380.18</ele>
  <time>2026-09-01T20:03:30Z</time>
  <course>40.92</course>
  <speed>31.92</speed>
  <fix>3d</fix>
</trkpt>
<trkpt lat="-27.2738629" lon="151.2894649">
  <ele>380.11</ele>
  <time>2026-09-01T20:03:30Z</time>
  <course>61.21</course>
  <speed>31.92181855721882</speed>
  <fix>3d</fix>
</trkpt>
<trkpt lat="-27.2739097" lon="151.2894193">
  <ele>380.18</ele>
  <time>2026-09-01T20:03:30Z</time>
  <course>40.92</course>
  <speed>31.92</speed>
  <fix>3d</fix>
</trkpt>
<trkpt lat="-27.273841" lon="151.2894863">
  <ele>380.46</ele>
  <time>2026-09-01T20:03:30Z</time>
  <course>64.37</course>
  <speed>31.92181855721882</speed>
  <fix>3d</fix>
</trkpt>
<trkpt lat="-27.2738684" lon="151.289463">
  <ele>380.28</ele>
  <time>2026-09-01T20:03:30Z</time>
  <course>45.57</course>
  <speed>31.12</speed>
  <fix>3d</fix>
</trkpt>
<trkpt lat="-27.2738262" lon="151.2895115">
  <ele>380.38</ele>
  <time>2026-09-01T20:03:30Z</time>
  <course>67.48</course>
  <speed>31.114253968237772</speed>
  <fix>3d</fix>
</trkpt>
<trkpt lat="-27.2738684" lon="151.289463">
  <ele>380.28</ele>
  <time>2026-09-01T20:03:30Z</time>
  <course>45.57</course>
  <speed>31.12</speed>
  <fix>3d</fix>
</trkpt>
<trkpt lat="-27.2738066" lon="151.2895339">
  <ele>380.12</ele>
  <time>2026-09-01T20:03:30Z</time>
  <course>70.56</course>
  <speed>31.114253968237772</speed>
  <fix>3d</fix>
</trkpt>
<trkpt lat="-27.2738315" lon="151.289509">
  <ele>380.31</ele>
  <time>2026-09-01T20:03:30Z</time>
  <course>50.3</course>
  <speed>30.24</speed>
  <fix>3d</fix>
</trkpt>
<trkpt lat="-27.2737939" lon="151.28956">
  <ele>380.15</ele>
  <time>2026-09-01T20:03:30Z</time>
  <course>73.63</course>
  <speed>30.238535017424375</speed>
  <fix>3d</fix>
</trkpt>
<trkpt lat="-27.2738315" lon="151.289509">
  <ele>380.31</ele>
  <time>2026-09-01T20:03:30Z</time>
  <course>50.3</course>
  <speed>30.24</speed>
  <fix>3d</fix>
</trkpt>
<trkpt lat="-27.2737765" lon="151.2895835">
  <ele>380.14</ele>
  <time>2026-09-01T20:03:30Z</time>
  <course>76.61</course>
  <speed>30.238535017424375</speed>
  <fix>3d</fix>
</trkpt>
<trkpt lat="-27.2737991" lon="151.2895569">
  <ele>380.28</ele>
  <time>2026-09-01T20:03:30Z</time>
  <course>55.1</course>
  <speed>29.31</speed>
  <fix>3d</fix>
</trkpt>
<trkpt lat="-27.2737665" lon="151.2896096">
  <ele>380.23</ele>
  <time>2026-09-01T20:03:30Z</time>
  <course>79.49</course>
  <speed>29.305617208992544</speed>
  <fix>3d</fix>
</trkpt>
<trkpt lat="-27.2737991" lon="151.2895569">
  <ele>380.28</ele>
  <time>2026-09-01T20:03:30Z</time>
  <course>55.1</course>
  <speed>29.31</speed>
  <fix>3d</fix>
</trkpt>
<trkpt lat="-27.2737514" lon="151.2896339">
  <ele>380.19</ele>
  <time>2026-09-01T20:03:30Z</time>
  <course>82.39</course>
  <speed>29.305617208992544</speed>
  <fix>3d</fix>
</trkpt>
<trkpt lat="-27.2737713" lon="151.289606">
  <ele>380.18</ele>
  <time>2026-09-01T20:03:30Z</time>
  <course>59.86</course>
  <speed>28.34</speed>
  <fix>3d</fix>
</trkpt>
<trkpt lat="-27.2737436" lon="151.2896597">
  <ele>380.13</ele>
  <time>2026-09-01T20:03:30Z</time>
  <course>85.14</course>
  <speed>28.341365528146312</speed>
  <fix>3d</fix>
</trkpt>
<trkpt lat="-27.2737713" lon="151.289606">
  <ele>380.18</ele>
  <time>2026-09-01T20:03:30Z</time>
  <course>59.86</course>
  <speed>28.34</speed>
  <fix>3d</fix>
</trkpt>
<trkpt lat="-27.2737308" lon="151.2896845">
  <ele>380.01</ele>
  <time>2026-09-01T20:03:30Z</time>
  <course>87.85</course>
  <speed>28.341365528146312</speed>
  <fix>3d</fix>
</trkpt>
<trkpt lat="-27.2737479" lon="151.2896558">
  <ele>380.02</ele>
  <time>2026-09-01T20:03:30Z</time>
  <course>64.52</course>
  <speed>27.36</speed>
  <fix>3d</fix>
</trkpt>
<trkpt lat="-27.273725" lon="151.2897099">
  <ele>379.79</ele>
  <time>2026-09-01T20:03:30Z</time>
  <course>90.55</course>
  <speed>27.35667377441929</speed>
  <fix>3d</fix>
</trkpt>
<trkpt lat="-27.2737479" lon="151.2896558">
  <ele>380.02</ele>
  <time>2026-09-01T20:03:30Z</time>
  <course>64.52</course>
  <speed>27.36</speed>
  <fix>3d</fix>
</trkpt>
<trkpt lat="-27.2737144" lon="151.2897349">
  <ele>379.78</ele>
  <time>2026-09-01T20:03:30Z</time>
  <course>93.16</course>
  <speed>27.35667377441929</speed>
  <fix>3d</fix>
</trkpt>
<trkpt lat="-27.2737289" lon="151.2897056">
  <ele>379.8</ele>
  <time>2026-09-01T20:03:30Z</time>
  <course>69.15</course>
  <speed>26.36</speed>
  <fix>3d</fix>
</trkpt>
<trkpt lat="-27.2737107" lon="151.2897596">
  <ele>379.48</ele>
  <time>2026-09-01T20:03:30Z</time>
  <course>95.72</course>
  <speed>26.355669219353928</speed>
  <fix>3d</fix>
</trkpt>
<trkpt lat="-27.2737289" lon="151.2897056">
  <ele>379.8</ele>
  <time>2026-09-01T20:03:30Z</time>
  <course>69.15</course>
  <speed>26.36</speed>
  <fix>3d</fix>
</trkpt>
<trkpt lat="-27.2737022" lon="151.2897845">
  <ele>379.48</ele>
  <time>2026-09-01T20:03:30Z</time>
  <course>98.18</course>
  <speed>26.355669219353928</speed>
  <fix>3d</fix>
</trkpt>
<trkpt lat="-27.2737142" lon="151.2897552">
  <ele>379.5</ele>
  <time>2026-09-01T20:03:30Z</time>
  <course>73.72</course>
  <speed>25.36</speed>
  <fix>3d</fix>
</trkpt>
<trkpt lat="-27.2737004" lon="151.2898086">
  <ele>379.16</ele>
  <time>2026-09-01T20:03:30Z</time>
  <course>100.58</course>
  <speed>25.366801138495962</speed>
  <fix>3d</fix>
</trkpt>
<trkpt lat="-27.2737142" lon="151.2897552">
  <ele>379.5</ele>
  <time>2026-09-01T20:03:30Z</time>
  <course>73.72</course>
  <speed>25.36</speed>
  <fix>3d</fix>
</trkpt>
<trkpt lat="-27.273694" lon="151.2898332">
  <ele>378.94</ele>
  <time>2026-09-01T20:03:30Z</time>
  <course>102.93</course>
  <speed>25.366801138495962</speed>
  <fix>3d</fix>
</trkpt>
<trkpt lat="-27.2737034" lon="151.2898039">
  <ele>379.14</ele>
  <time>2026-09-01T20:03:30Z</time>
  <course>78.2</course>
  <speed>24.4</speed>
  <fix>3d</fix>
</trkpt>
<trkpt lat="-27.2736937" lon="151.2898562">
  <ele>378.7</ele>
  <time>2026-09-01T20:03:30Z</time>
  <course>105.19</course>
  <speed>24.393745099922644</speed>
  <fix>3d</fix>
</trkpt>
<trkpt lat="-27.2737034" lon="151.2898039">
  <ele>379.14</ele>
  <time>2026-09-01T20:03:30Z</time>
  <course>78.2</course>
  <speed>24.4</speed>
  <fix>3d</fix>
</trkpt>
<trkpt lat="-27.2736893" lon="151.2898804">
  <ele>378.34</ele>
  <time>2026-09-01T20:03:30Z</time>
  <course>107.39</course>
  <speed>24.393745099922644</speed>
  <fix>3d</fix>
</trkpt>
<trkpt lat="-27.2736962" lon="151.2898516">
  <ele>378.7</ele>
  <time>2026-09-01T20:03:30Z</time>
  <course>82.59</course>
  <speed>23.47</speed>
  <fix>3d</fix>
</trkpt>
<trkpt lat="-27.2736904" lon="151.2899024">
  <ele>378.37</ele>
  <time>2026-09-01T20:03:30Z</time>
  <course>109.49</course>
  <speed>23.46515075596149</speed>
  <fix>3d</fix>
</trkpt>
<trkpt lat="-27.2736962" lon="151.2898516">
  <ele>378.7</ele>
  <time>2026-09-01T20:03:30Z</time>
  <course>82.59</course>
  <speed>23.47</speed>
  <fix>3d</fix>
</trkpt>
<trkpt lat="-27.2736877" lon="151.2899259">
  <ele>378.01</ele>
  <time>2026-09-01T20:03:30Z</time>
  <course>111.47</course>
  <speed>23.46515075596149</speed>
  <fix>3d</fix>
</trkpt>
<trkpt lat="-27.2736924" lon="151.289898">
  <ele>378.2</ele>
  <time>2026-09-01T20:03:30Z</time>
  <course>86.86</course>
  <speed>22.6</speed>
  <fix>3d</fix>
</trkpt>
<trkpt lat="-27.27369" lon="151.2899472">
  <ele>377.61</ele>
  <time>2026-09-01T20:03:30Z</time>
  <course>113.46</course>
  <speed>22.593505704073458</speed>
  <fix>3d</fix>
</trkpt>
<trkpt lat="-27.2736924" lon="151.289898">
  <ele>378.2</ele>
  <time>2026-09-01T20:03:30Z</time>
  <course>86.86</course>
  <speed>22.6</speed>
  <fix>3d</fix>
</trkpt>
<trkpt lat="-27.2736889" lon="151.28997">
  <ele>377.56</ele>
  <time>2026-09-01T20:03:30Z</time>
  <course>115.43</course>
  <speed>22.593505704073458</speed>
  <fix>3d</fix>
</trkpt>
<trkpt lat="-27.2736917" lon="151.289943">
  <ele>377.64</ele>
  <time>2026-09-01T20:03:30Z</time>
  <course>91.0</course>
  <speed>21.79</speed>
  <fix>3d</fix>
</trkpt>
<trkpt lat="-27.2736924" lon="151.2899905">
  <ele>376.93</ele>
  <time>2026-09-01T20:03:30Z</time>
  <course>117.33</course>
  <speed>21.78331471562581</speed>
  <fix>3d</fix>
</trkpt>
<trkpt lat="-27.2736917" lon="151.289943">
  <ele>377.64</ele>
  <time>2026-09-01T20:03:30Z</time>
  <course>91.0</course>
  <speed>21.79</speed>
  <fix>3d</fix>
</trkpt>
<trkpt lat="-27.2736927" lon="151.2900125">
  <ele>376.64</ele>
  <time>2026-09-01T20:03:30Z</time>
  <course>119.13</course>
  <speed>21.78331471562581</speed>
  <fix>3d</fix>
</trkpt>
<trkpt lat="-27.2736937" lon="151.2899861">
  <ele>377.01</ele>
  <time>2026-09-01T20:03:30Z</time>
  <course>95.1</course>
  <speed>21.04</speed>
  <fix>3d</fix>
</trkpt>
<trkpt lat="-27.2736973" lon="151.2900318">
  <ele>376.27</ele>
  <time>2026-09-01T20:03:30Z</time>
  <course>120.91</course>
  <speed>21.03329265711862</speed>
  <fix>3d</fix>
</trkpt>
<trkpt lat="-27.2736937" lon="151.2899861">
  <ele>377.01</ele>
  <time>2026-09-01T20:03:30Z</time>
  <course>95.1</course>
  <speed>21.04</speed>
  <fix>3d</fix>
</trkpt>
<trkpt lat="-27.273699" lon="151.290053">
  <ele>376.01</ele>
  <time>2026-09-01T20:03:30Z</time>
  <course>122.74</course>
  <speed>21.03329265711862</speed>
  <fix>3d</fix>
</trkpt>
<trkpt lat="-27.2736982" lon="151.2900276">
  <ele>376.32</ele>
  <time>2026-09-01T20:03:30Z</time>
  <course>99.16</course>
  <speed>20.36</speed>
  <fix>3d</fix>
</trkpt>
<trkpt lat="-27.2737044" lon="151.2900714">
  <ele>375.65</ele>
  <time>2026-09-01T20:03:30Z</time>
  <course>124.51</course>
  <speed>20.359459717782297</speed>
  <fix>3d</fix>
</trkpt>
<trkpt lat="-27.2736982" lon="151.2900276">
  <ele>376.32</ele>
  <time>2026-09-01T20:03:30Z</time>
  <course>99.16</course>
  <speed>20.36</speed>
  <fix>3d</fix>
</trkpt>
<trkpt lat="-27.2737074" lon="151.2900918">
  <ele>375.5</ele>
  <time>2026-09-01T20:03:30Z</time>
  <course>126.21</course>
  <speed>20.359459717782297</speed>
  <fix>3d</fix>
</trkpt>
<trkpt lat="-27.2737052" lon="151.2900674">
  <ele>375.6</ele>
  <time>2026-09-01T20:03:30Z</time>
  <course>103.26</course>
  <speed>19.76</speed>
  <fix>3d</fix>
</trkpt>
<trkpt lat="-27.273714" lon="151.2901095">
  <ele>375.06</ele>
  <time>2026-09-01T20:03:30Z</time>
  <course>127.96</course>
  <speed>19.766094707857697</speed>
  <fix>3d</fix>
</trkpt>
<trkpt lat="-27.2737052" lon="151.2900674">
  <ele>375.6</ele>
  <time>2026-09-01T20:03:30Z</time>
  <course>103.26</course>
  <speed>19.76</speed>
  <fix>3d</fix>
</trkpt>
<trkpt lat="-27.2737181" lon="151.2901292">
  <ele>374.69</ele>
  <time>2026-09-01T20:03:30Z</time>
  <course>129.66</course>
  <speed>19.766094707857697</speed>
  <fix>3d</fix>
</trkpt>
<trkpt lat="-27.2737144" lon="151.2901053">
  <ele>374.84</ele>
  <time>2026-09-01T20:03:30Z</time>
  <course>107.43</course>
  <speed>19.23</speed>
  <fix>3d</fix>
</trkpt>
<trkpt lat="-27.2737256" lon="151.2901455">
  <ele>374.27</ele>
  <time>2026-09-01T20:03:30Z</time>
  <course>131.32</course>
  <speed>19.232787109516913</speed>
  <fix>3d</fix>
</trkpt>
<trkpt lat="-27.2737144" lon="151.2901053">
  <ele>374.84</ele>
  <time>2026-09-01T20:03:30Z</time>
  <course>107.43</course>
  <speed>19.23</speed>
  <fix>3d</fix>
</trkpt>
<trkpt lat="-27.2737308" lon="151.2901641">
  <ele>373.55</ele>
  <time>2026-09-01T20:03:30Z</time>
  <course>132.97</course>
  <speed>19.232787109516913</speed>
  <fix>3d</fix>
</trkpt>
<trkpt lat="-27.2737259" lon="151.2901415">
  <ele>374.07</ele>
  <time>2026-09-01T20:03:30Z</time>
  <course>111.63</course>
  <speed>18.77</speed>
  <fix>3d</fix>
</trkpt>
<trkpt lat="-27.2737393" lon="151.2901797">
  <ele>373.47</ele>
  <time>2026-09-01T20:03:30Z</time>
  <course>134.56</course>
  <speed>18.772024398023778</speed>
  <fix>3d</fix>
</trkpt>
<trkpt lat="-27.2737259" lon="151.2901415">
  <ele>374.07</ele>
  <time>2026-09-01T20:03:30Z</time>
  <course>111.63</course>
  <speed>18.77</speed>
  <fix>3d</fix>
</trkpt>
<trkpt lat="-27.2737456" lon="151.2901974">
  <ele>373.11</ele>
  <time>2026-09-01T20:03:30Z</time>
  <course>136.09</course>
  <speed>18.772024398023778</speed>
  <fix>3d</fix>
</trkpt>
<trkpt lat="-27.2737393" lon="151.2901759">
  <ele>373.29</ele>
  <time>2026-09-01T20:03:30Z</time>
  <course>115.84</course>
  <speed>18.39</speed>
  <fix>3d</fix>
</trkpt>
<trkpt lat="-27.2737549" lon="151.2902122">
  <ele>372.75</ele>
  <time>2026-09-01T20:03:30Z</time>
  <course>137.58</course>
  <speed>18.38647872758675</speed>
  <fix>3d</fix>
</trkpt>
<trkpt lat="-27.2737393" lon="151.2901759">
  <ele>373.29</ele>
  <time>2026-09-01T20:03:30Z</time>
  <course>115.84</course>
  <speed>18.39</speed>
  <fix>3d</fix>
</trkpt>
<trkpt lat="-27.2737621" lon="151.2902289">
  <ele>372.29</ele>
  <time>2026-09-01T20:03:30Z</time>
  <course>139.06</course>
  <speed>18.38647872758675</speed>
  <fix>3d</fix>
</trkpt>
<trkpt lat="-27.2737547" lon="151.2902084">
  <ele>372.54</ele>
  <time>2026-09-01T20:03:30Z</time>
  <course>120.01</course>
  <speed>18.09</speed>
  <fix>3d</fix>
</trkpt>
<trkpt lat="-27.2737723" lon="151.2902427">
  <ele>371.73</ele>
  <time>2026-09-01T20:03:30Z</time>
  <course>140.47</course>
  <speed>18.095618254152026</speed>
  <fix>3d</fix>
</trkpt>
<trkpt lat="-27.2737547" lon="151.2902084">
  <ele>372.54</ele>
  <time>2026-09-01T20:03:30Z</time>
  <course>120.01</course>
  <speed>18.09</speed>
  <fix>3d</fix>
</trkpt>
<trkpt lat="-27.2737804" lon="151.2902586">
  <ele>371.69</ele>
  <time>2026-09-01T20:03:30Z</time>
  <course>141.85</course>
  <speed>18.095618254152026</speed>
  <fix>3d</fix>
</trkpt>
<trkpt lat="-27.2737718" lon="151.2902392">
  <ele>371.83</ele>
  <time>2026-09-01T20:03:30Z</time>
  <course>124.02</course>
  <speed>17.87</speed>
  <fix>3d</fix>
</trkpt>
<trkpt lat="-27.2737913" lon="151.2902716">
  <ele>371.37</ele>
  <time>2026-09-01T20:03:30Z</time>
  <course>143.18</course>
  <speed>17.86997761610238</speed>
  <fix>3d</fix>
</trkpt>
<trkpt lat="-27.2737718" lon="151.2902392">
  <ele>371.83</ele>
  <time>2026-09-01T20:03:30Z</time>
  <course>124.02</course>
  <speed>17.87</speed>
  <fix>3d</fix>
</trkpt>
<trkpt lat="-27.2738001" lon="151.2902865">
  <ele>371.09</ele>
  <time>2026-09-01T20:03:30Z</time>
  <course>144.43</course>
  <speed>17.86997761610238</speed>
  <fix>3d</fix>
</trkpt>
<trkpt lat="-27.2737906" lon="151.2902684">
  <ele>371.16</ele>
  <time>2026-09-01T20:03:30Z</time>
  <course>127.81</course>
  <speed>17.73</speed>
  <fix>3d</fix>
</trkpt>
<trkpt lat="-27.2738116" lon="151.2902989">
  <ele>370.48</ele>
  <time>2026-09-01T20:03:30Z</time>
  <course>145.57</course>
  <speed>17.724471783384686</speed>
  <fix>3d</fix>
</trkpt>
<trkpt lat="-27.2737906" lon="151.2902684">
  <ele>371.16</ele>
  <time>2026-09-01T20:03:30Z</time>
  <course>127.81</course>
  <speed>17.73</speed>
  <fix>3d</fix>
</trkpt>
<trkpt lat="-27.2738214" lon="151.2903131">
  <ele>370.12</ele>
  <time>2026-09-01T20:03:30Z</time>
  <course>146.68</course>
  <speed>17.724471783384686</speed>
  <fix>3d</fix>
</trkpt>
<trkpt lat="-27.2738109" lon="151.2902959">
  <ele>370.56</ele>
  <time>2026-09-01T20:03:30Z</time>
  <course>131.3</course>
  <speed>17.64</speed>
  <fix>3d</fix>
</trkpt>
<trkpt lat="-27.2738334" lon="151.2903248">
  <ele>370.07</ele>
  <time>2026-09-01T20:03:30Z</time>
  <course>147.69</course>
  <speed>17.636669186669007</speed>
  <fix>3d</fix>
</trkpt>
<trkpt lat="-27.2738109" lon="151.2902959">
  <ele>370.56</ele>
  <time>2026-09-01T20:03:30Z</time>
  <course>131.3</course>
  <speed>17.64</speed>
  <fix>3d</fix>
</trkpt>
<trkpt lat="-27.2738439" lon="151.2903382">
  <ele>369.67</ele>
  <time>2026-09-01T20:03:30Z</time>
  <course>148.67</course>
  <speed>17.636669186669007</speed>
  <fix>3d</fix>
</trkpt>
<trkpt lat="-27.2738325" lon="151.290322">
  <ele>370.03</ele>
  <time>2026-09-01T20:03:30Z</time>
  <course>134.44</course>
  <speed>17.6</speed>
  <fix>3d</fix>
</trkpt>
<trkpt lat="-27.2738564" lon="151.2903494">
  <ele>369.41</ele>
  <time>2026-09-01T20:03:30Z</time>
  <course>149.62</course>
  <speed>17.593635212769417</speed>
  <fix>3d</fix>
</trkpt>
<trkpt lat="-27.2738325" lon="151.290322">
  <ele>370.03</ele>
  <time>2026-09-01T20:03:30Z</time>
  <course>134.44</course>
  <speed>17.6</speed>
  <fix>3d</fix>
</trkpt>
<trkpt lat="-27.2738674" lon="151.2903621">
  <ele>369.3</ele>
  <time>2026-09-01T20:03:30Z</time>
  <course>150.49</course>
  <speed>17.593635212769417</speed>
  <fix>3d</fix>
</trkpt>
<trkpt lat="-27.2738552" lon="151.2903468">
  <ele>369.56</ele>
  <time>2026-09-01T20:03:30Z</time>
  <course>137.21</course>
  <speed>17.62</speed>
  <fix>3d</fix>
</trkpt>
<trkpt lat="-27.2738802" lon="151.2903729">
  <ele>369.11</ele>
  <time>2026-09-01T20:03:30Z</time>
  <course>151.23</course>
  <speed>17.613247854952817</speed>
  <fix>3d</fix>
</trkpt>
<trkpt lat="-27.2738552" lon="151.2903468">
  <ele>369.56</ele>
  <time>2026-09-01T20:03:30Z</time>
  <course>137.21</course>
  <speed>17.62</speed>
  <fix>3d</fix>
</trkpt>
<trkpt lat="-27.2738919" lon="151.290385">
  <ele>368.99</ele>
  <time>2026-09-01T20:03:30Z</time>
  <course>151.95</course>
  <speed>17.613247854952817</speed>
  <fix>3d</fix>
</trkpt>
<trkpt lat="-27.2738789" lon="151.2903705">
  <ele>369.17</ele>
  <time>2026-09-01T20:03:30Z</time>
  <course>139.57</course>
  <speed>17.67</speed>
  <fix>3d</fix>
</trkpt>
<trkpt lat="-27.273905" lon="151.2903955">
  <ele>368.68</ele>
  <time>2026-09-01T20:03:30Z</time>
  <course>152.58</course>
  <speed>17.66366326671792</speed>
  <fix>3d</fix>
</trkpt>
<trkpt lat="-27.2738789" lon="151.2903705">
  <ele>369.17</ele>
  <time>2026-09-01T20:03:30Z</time>
  <course>139.57</course>
  <speed>17.67</speed>
  <fix>3d</fix>
</trkpt>
<trkpt lat="-27.273917" lon="151.290407">
  <ele>368.92</ele>
  <time>2026-09-01T20:03:30Z</time>
  <course>153.22</course>
  <speed>17.66366326671792</speed>
  <fix>3d</fix>
</trkpt>
<trkpt lat="-27.2739034" lon="151.2903932">
  <ele>368.86</ele>
  <time>2026-09-01T20:03:30Z</time>
  <course>141.53</course>
  <speed>17.73</speed>
  <fix>3d</fix>
</trkpt>
<trkpt lat="-27.2739304" lon="151.2904173">
  <ele>368.64</ele>
  <time>2026-09-01T20:03:30Z</time>
  <course>153.85</course>
  <speed>17.728939618600997</speed>
  <fix>3d</fix>
</trkpt>
<trkpt lat="-27.2739034" lon="151.2903932">
  <ele>368.86</ele>
  <time>2026-09-01T20:03:30Z</time>
  <course>141.53</course>
  <speed>17.73</speed>
  <fix>3d</fix>
</trkpt>
<trkpt lat="-27.2739429" lon="151.2904285">
  <ele>368.57</ele>
  <time>2026-09-01T20:03:30Z</time>
  <course>154.33</course>
  <speed>17.728939618600997</speed>
  <fix>3d</fix>
</trkpt>
<trkpt lat="-27.2739287" lon="151.2904151">
  <ele>368.61</ele>
  <time>2026-09-01T20:03:30Z</time>
  <course>143.15</course>
  <speed>17.8</speed>
  <fix>3d</fix>
</trkpt>
<trkpt lat="-27.2739564" lon="151.2904385">
  <ele>368.56</ele>
  <time>2026-09-01T20:03:30Z</time>
  <course>154.81</course>
  <speed>17.794001798358906</speed>
  <fix>3d</fix>
</trkpt>
<trkpt lat="-27.2739287" lon="151.2904151">
  <ele>368.61</ele>
  <time>2026-09-01T20:03:30Z</time>
  <course>143.15</course>
  <speed>17.8</speed>
  <fix>3d</fix>
</trkpt>
<trkpt lat="-27.2739692" lon="151.2904493">
  <ele>368.46</ele>
  <time>2026-09-01T20:03:30Z</time>
  <course>155.26</course>
  <speed>17.794001798358906</speed>
  <fix>3d</fix>
</trkpt>
<trkpt lat="-27.2739546" lon="151.2904364">
  <ele>368.44</ele>
  <time>2026-09-01T20:03:30Z</time>
  <course>144.55</course>
  <speed>17.86</speed>
  <fix>3d</fix>
</trkpt>
<trkpt lat="-27.2739829" lon="151.2904591">
  <ele>368.38</ele>
  <time>2026-09-01T20:03:30Z</time>
  <course>155.68</course>
  <speed>17.861469704366435</speed>
  <fix>3d</fix>
</trkpt>
<trkpt lat="-27.2739546" lon="151.2904364">
  <ele>368.44</ele>
  <time>2026-09-01T20:03:30Z</time>
  <course>144.55</course>
  <speed>17.86</speed>
  <fix>3d</fix>
</trkpt>
<trkpt lat="-27.273996" lon="151.2904695">
  <ele>368.29</ele>
  <time>2026-09-01T20:03:30Z</time>
  <course>156.08</course>
  <speed>17.861469704366435</speed>
  <fix>3d</fix>
</trkpt>
<trkpt lat="-27.273981" lon="151.290457">
  <ele>368.33</ele>
  <time>2026-09-01T20:03:30Z</time>
  <course>145.79</course>
  <speed>17.91</speed>
  <fix>3d</fix>
</trkpt>
<trkpt lat="-27.27401" lon="151.2904791">
  <ele>368.22</ele>
  <time>2026-09-01T20:03:30Z</time>
  <course>156.4</course>
  <speed>17.909243423439193</speed>
  <fix>3d</fix>
</trkpt>
<trkpt lat="-27.273981" lon="151.290457">
  <ele>368.33</ele>
  <time>2026-09-01T20:03:30Z</time>
  <course>145.79</course>
  <speed>17.91</speed>
  <fix>3d</fix>
</trkpt>
<trkpt lat="-27.2740233" lon="151.2904893">
  <ele>368.09</ele>
  <time>2026-09-01T20:03:30Z</time>
  <course>156.75</course>
  <speed>17.909243423439193</speed>
  <fix>3d</fix>
</trkpt>
<trkpt lat="-27.2740078" lon="151.290477">
  <ele>368.28</ele>
  <time>2026-09-01T20:03:30Z</time>
  <course>146.91</course>
  <speed>17.95</speed>
  <fix>3d</fix>
</trkpt>
<trkpt lat="-27.2740371" lon="151.2904984">
  <ele>368.41</ele>
  <time>2026-09-01T20:03:30Z</time>
  <course>157.13</course>
  <speed>17.951089103449963</speed>
  <fix>3d</fix>
</trkpt>
<trkpt lat="-27.2740078" lon="151.290477">
  <ele>368.28</ele>
  <time>2026-09-01T20:03:30Z</time>
  <course>146.91</course>
  <speed>17.95</speed>
  <fix>3d</fix>
</trkpt>
<trkpt lat="-27.2740506" lon="151.2905084">
  <ele>368.16</ele>
  <time>2026-09-01T20:03:30Z</time>
  <course>157.52</course>
  <speed>17.951089103449963</speed>
  <fix>3d</fix>
</trkpt>
<trkpt lat="-27.274035" lon="151.2904966">
  <ele>368.28</ele>
  <time>2026-09-01T20:03:30Z</time>
  <course>147.98</course>
  <speed>17.98</speed>
  <fix>3d</fix>
</trkpt>
<trkpt lat="-27.2740645" lon="151.2905174">
  <ele>368.1</ele>
  <time>2026-09-01T20:03:30Z</time>
  <course>157.87</course>
  <speed>17.9743845513553</speed>
  <fix>3d</fix>
</trkpt>
<trkpt lat="-27.274035" lon="151.2904966">
  <ele>368.28</ele>
  <time>2026-09-01T20:03:30Z</time>
  <course>147.98</course>
  <speed>17.98</speed>
  <fix>3d</fix>
</trkpt>
<trkpt lat="-27.2740782" lon="151.290527">
  <ele>368.16</ele>
  <time>2026-09-01T20:03:30Z</time>
  <course>158.23</course>
  <speed>17.9743845513553</speed>
  <fix>3d</fix>
</trkpt>
<trkpt lat="-27.2740626" lon="151.2905156">
  <ele>368.32</ele>
  <time>2026-09-01T20:03:30Z</time>
  <course>149.1</course>
  <speed>17.99</speed>
  <fix>3d</fix>
</trkpt>
<trkpt lat="-27.2740925" lon="151.2905357">
  <ele>368.54</ele>
  <time>2026-09-01T20:03:30Z</time>
  <course>158.6</course>
  <speed>17.993643322017917</speed>
  <fix>3d</fix>
</trkpt>
<trkpt lat="-27.2740626" lon="151.2905156">
  <ele>368.32</ele>
  <time>2026-09-01T20:03:30Z</time>
  <course>149.1</course>
  <speed>17.99</speed>
  <fix>3d</fix>
</trkpt>
<trkpt lat="-27.2741064" lon="151.2905451">
  <ele>368.52</ele>
  <time>2026-09-01T20:03:30Z</time>
  <course>159.01</course>
  <speed>17.993643322017917</speed>
  <fix>3d</fix>
</trkpt>
<trkpt lat="-27.2740906" lon="151.290534">
  <ele>368.39</ele>
  <time>2026-09-01T20:03:30Z</time>
  <course>150.29</course>
  <speed>17.99</speed>
  <fix>3d</fix>
</trkpt>
<trkpt lat="-27.2741209" lon="151.2905534">
  <ele>368.55</ele>
  <time>2026-09-01T20:03:30Z</time>
  <course>159.38</course>
  <speed>17.99124787222943</speed>
  <fix>3d</fix>
</trkpt>
<trkpt lat="-27.2740906" lon="151.290534">
  <ele>368.39</ele>
  <time>2026-09-01T20:03:30Z</time>
  <course>150.29</course>
  <speed>17.99</speed>
  <fix>3d</fix>
</trkpt>
<trkpt lat="-27.2741349" lon="151.2905624">
  <ele>368.6</ele>
  <time>2026-09-01T20:03:30Z</time>
  <course>159.79</course>
  <speed>17.99124787222943</speed>
  <fix>3d</fix>
</trkpt>
<trkpt lat="-27.2741187" lon="151.2905517">
  <ele>368.5</ele>
  <time>2026-09-01T20:03:30Z</time>
  <course>151.58</course>
  <speed>17.97</speed>
  <fix>3d</fix>
</trkpt>
<trkpt lat="-27.2741493" lon="151.2905703">
  <ele>368.57</ele>
  <time>2026-09-01T20:03:30Z</time>
  <course>160.22</course>
  <speed>17.965035485631528</speed>
  <fix>3d</fix>
</trkpt>
<trkpt lat="-27.2741187" lon="151.2905517">
  <ele>368.5</ele>
  <time>2026-09-01T20:03:30Z</time>
  <course>151.58</course>
  <speed>17.97</speed>
  <fix>3d</fix>
</trkpt>
<trkpt lat="-27.2741635" lon="151.290579">
  <ele>368.71</ele>
  <time>2026-09-01T20:03:30Z</time>
  <course>160.71</course>
  <speed>17.965035485631528</speed>
  <fix>3d</fix>
</trkpt>
<trkpt lat="-27.2741473" lon="151.2905686">
  <ele>368.63</ele>
  <time>2026-09-01T20:03:30Z</time>
  <course>153.02</course>
  <speed>17.92</speed>
  <fix>3d</fix>
</trkpt>
<trkpt lat="-27.2741782" lon="151.2905863">
  <ele>368.82</ele>
  <time>2026-09-01T20:03:30Z</time>
  <course>161.24</course>
  <speed>17.920318077534226</speed>
  <fix>3d</fix>
</trkpt>
<trkpt lat="-27.2741473" lon="151.2905686">
  <ele>368.63</ele>
  <time>2026-09-01T20:03:30Z</time>
  <course>153.02</course>
  <speed>17.92</speed>
  <fix>3d</fix>
</trkpt>
<trkpt lat="-27.2741926" lon="151.2905945">
  <ele>368.95</ele>
  <time>2026-09-01T20:03:30Z</time>
  <course>161.78</course>
  <speed>17.920318077534226</speed>
  <fix>3d</fix>
</trkpt>
<trkpt lat="-27.2741762" lon="151.2905845">
  <ele>368.78</ele>
  <time>2026-09-01T20:03:30Z</time>
  <course>154.66</course>
  <speed>17.85</speed>
  <fix>3d</fix>
</trkpt>
<trkpt lat="-27.2742076" lon="151.2906012">
  <ele>368.82</ele>
  <time>2026-09-01T20:03:30Z</time>
  <course>162.34</course>
  <speed>17.843592687572755</speed>
  <fix>3d</fix>
</trkpt>
<trkpt lat="-27.2741762" lon="151.2905845">
  <ele>368.78</ele>
  <time>2026-09-01T20:03:30Z</time>
  <course>154.66</course>
  <speed>17.85</speed>
  <fix>3d</fix>
</trkpt>
<trkpt lat="-27.2742221" lon="151.2906089">
  <ele>369.1</ele>
  <time>2026-09-01T20:03:30Z</time>
  <course>162.95</course>
  <speed>17.843592687572755</speed>
  <fix>3d</fix>
</trkpt>
<trkpt lat="-27.2742053" lon="151.2905993">
  <ele>368.95</ele>
  <time>2026-09-01T20:03:30Z</time>
  <course>156.56</course>
  <speed>17.76</speed>
  <fix>3d</fix>
</trkpt>
<trkpt lat="-27.274237" lon="151.2906147">
  <ele>369.01</ele>
  <time>2026-09-01T20:03:30Z</time>
  <course>163.59</course>
  <speed>17.75408966970709</speed>
  <fix>3d</fix>
</trkpt>
<trkpt lat="-27.2742053" lon="151.2905993">
  <ele>368.95</ele>
  <time>2026-09-01T20:03:30Z</time>
  <course>156.56</course>
  <speed>17.76</speed>
  <fix>3d</fix>
</trkpt>
<trkpt lat="-27.2742517" lon="151.2906219">
  <ele>369.06</ele>
  <time>2026-09-01T20:03:30Z</time>
  <course>164.22</course>
  <speed>17.75408966970709</speed>
  <fix>3d</fix>
</trkpt>
<trkpt lat="-27.2742347" lon="151.290613">
  <ele>369.13</ele>
  <time>2026-09-01T20:03:30Z</time>
  <course>158.65</course>
  <speed>17.66</speed>
  <fix>3d</fix>
</trkpt>
<trkpt lat="-27.2742667" lon="151.290627">
  <ele>369.28</ele>
  <time>2026-09-01T20:03:30Z</time>
  <course>164.84</course>
  <speed>17.65839460426683</speed>
  <fix>3d</fix>
</trkpt>
<trkpt lat="-27.2742347" lon="151.290613">
  <ele>369.13</ele>
  <time>2026-09-01T20:03:30Z</time>
  <course>158.65</course>
  <speed>17.66</speed>
  <fix>3d</fix>
</trkpt>
<trkpt lat="-27.2742815" lon="151.2906335">
  <ele>369.4</ele>
  <time>2026-09-01T20:03:30Z</time>
  <course>165.62</course>
  <speed>17.65839460426683</speed>
  <fix>3d</fix>
</trkpt>
<trkpt lat="-27.2742644" lon="151.2906252">
  <ele>369.32</ele>
  <time>2026-09-01T20:03:30Z</time>
  <course>160.87</course>
  <speed>17.56</speed>
  <fix>3d</fix>
</trkpt>
<trkpt lat="-27.2742967" lon="151.2906378">
  <ele>369.33</ele>
  <time>2026-09-01T20:03:30Z</time>
  <course>166.46</course>
  <speed>17.567654937412676</speed>
  <fix>3d</fix>
</trkpt>
<trkpt lat="-27.2742644" lon="151.2906252">
  <ele>369.32</ele>
  <time>2026-09-01T20:03:30Z</time>
  <course>160.87</course>
  <speed>17.56</speed>
  <fix>3d</fix>
</trkpt>
<trkpt lat="-27.2743116" lon="151.2906436">
  <ele>369.7</ele>
  <time>2026-09-01T20:03:30Z</time>
  <course>167.27</course>
  <speed>17.567654937412676</speed>
  <fix>3d</fix>
</trkpt>
<trkpt lat="-27.2742943" lon="151.2906362">
  <ele>369.52</ele>
  <time>2026-09-01T20:03:30Z</time>
  <course>163.28</course>
  <speed>17.47</speed>
  <fix>3d</fix>
</trkpt>
<trkpt lat="-27.2743269" lon="151.2906472">
  <ele>369.82</ele>
  <time>2026-09-01T20:03:30Z</time>
  <course>168.07</course>
  <speed>17.466920163554878</speed>
  <fix>3d</fix>
</trkpt>
<trkpt lat="-27.2742943" lon="151.2906362">
  <ele>369.52</ele>
  <time>2026-09-01T20:03:30Z</time>
  <course>163.28</course>
  <speed>17.47</speed>
  <fix>3d</fix>
</trkpt>
<trkpt lat="-27.2743419" lon="151.2906522">
  <ele>369.79</ele>
  <time>2026-09-01T20:03:30Z</time>
  <course>168.89</course>
  <speed>17.466920163554878</speed>
  <fix>3d</fix>
</trkpt>
<trkpt lat="-27.2743245" lon="151.2906455">
  <ele>369.72</ele>
  <time>2026-09-01T20:03:30Z</time>
  <course>165.92</course>
  <speed>17.36</speed>
  <fix>3d</fix>
</trkpt>
<trkpt lat="-27.2743573" lon="151.2906547">
  <ele>369.87</ele>
  <time>2026-09-01T20:03:30Z</time>
  <course>169.64</course>
  <speed>17.36070275075292</speed>
  <fix>3d</fix>
</trkpt>
<trkpt lat="-27.2743245" lon="151.2906455">
  <ele>369.72</ele>
  <time>2026-09-01T20:03:30Z</time>
  <course>165.92</course>
  <speed>17.36</speed>
  <fix>3d</fix>
</trkpt>
<trkpt lat="-27.2743724" lon="151.290659">
  <ele>370.12</ele>
  <time>2026-09-01T20:03:30Z</time>
  <course>170.57</course>
  <speed>17.36070275075292</speed>
  <fix>3d</fix>
</trkpt>
<trkpt lat="-27.2743548" lon="151.2906532">
  <ele>369.92</ele>
  <time>2026-09-01T20:03:30Z</time>
  <course>168.68</course>
  <speed>17.26</speed>
  <fix>3d</fix>
</trkpt>
<trkpt lat="-27.2743878" lon="151.2906606">
  <ele>370.01</ele>
  <time>2026-09-01T20:03:30Z</time>
  <course>171.54</course>
  <speed>17.26410437873914</speed>
  <fix>3d</fix>
</trkpt>
<trkpt lat="-27.2743548" lon="151.2906532">
  <ele>369.92</ele>
  <time>2026-09-01T20:03:30Z</time>
  <course>168.68</course>
  <speed>17.26</speed>
  <fix>3d</fix>
</trkpt>
<trkpt lat="-27.274403" lon="151.290664">
  <ele>370.05</ele>
  <time>2026-09-01T20:03:30Z</time>
  <course>172.43</course>
  <speed>17.26410437873914</speed>
  <fix>3d</fix>
</trkpt>
<trkpt lat="-27.2743854" lon="151.2906592">
  <ele>370.13</ele>
  <time>2026-09-01T20:03:30Z</time>
  <course>171.53</course>
  <speed>17.17</speed>
  <fix>3d</fix>
</trkpt>
<trkpt lat="-27.2744185" lon="151.2906647">
  <ele>370.23</ele>
  <time>2026-09-01T20:03:30Z</time>
  <course>173.37</course>
  <speed>17.165977979713247</speed>
  <fix>3d</fix>
</trkpt>
<trkpt lat="-27.2743854" lon="151.2906592">
  <ele>370.13</ele>
  <time>2026-09-01T20:03:30Z</time>
  <course>171.53</course>
  <speed>17.17</speed>
  <fix>3d</fix>
</trkpt>
<trkpt lat="-27.2744337" lon="151.2906672">
  <ele>370.33</ele>
  <time>2026-09-01T20:03:30Z</time>
  <course>174.28</course>
  <speed>17.165977979713247</speed>
  <fix>3d</fix>
</trkpt>
<trkpt lat="-27.2744159" lon="151.2906635">
  <ele>370.34</ele>
  <time>2026-09-01T20:03:30Z</time>
  <course>174.47</course>
  <speed>17.09</speed>
  <fix>3d</fix>
</trkpt>
<trkpt lat="-27.2744489" lon="151.290667">
  <ele>370.72</ele>
  <time>2026-09-01T20:03:30Z</time>
  <course>175.15</course>
  <speed>17.088876499056337</speed>
  <fix>3d</fix>
</trkpt>
<trkpt lat="-27.2744159" lon="151.2906635">
  <ele>370.34</ele>
  <time>2026-09-01T20:03:30Z</time>
  <course>174.47</course>
  <speed>17.09</speed>
  <fix>3d</fix>
</trkpt>
<trkpt lat="-27.2744642" lon="151.2906687">
  <ele>370.42</ele>
  <time>2026-09-01T20:03:30Z</time>
  <course>176.06</course>
  <speed>17.088876499056337</speed>
  <fix>3d</fix>
</trkpt>
<trkpt lat="-27.2744464" lon="151.2906659">
  <ele>370.54</ele>
  <time>2026-09-01T20:03:30Z</time>
  <course>177.43</course>
  <speed>17.03</speed>
  <fix>3d</fix>
</trkpt>
<trkpt lat="-27.2744794" lon="151.2906675">
  <ele>370.66</ele>
  <time>2026-09-01T20:03:30Z</time>
  <course>177.04</course>
  <speed>17.026969783258558</speed>
  <fix>3d</fix>
</trkpt>
<trkpt lat="-27.2744464" lon="151.2906659">
  <ele>370.54</ele>
  <time>2026-09-01T20:03:30Z</time>
  <course>177.43</course>
  <speed>17.03</speed>
  <fix>3d</fix>
</trkpt>
<trkpt lat="-27.2744947" lon="151.2906683">
  <ele>370.89</ele>
  <time>2026-09-01T20:03:30Z</time>
  <course>178.09</course>
  <speed>17.026969783258558</speed>
  <fix>3d</fix>
</trkpt>
<trkpt lat="-27.274477" lon="151.2906665">
  <ele>370.73</ele>
  <time>2026-09-01T20:03:30Z</time>
  <course>180.47</course>
  <speed>16.98</speed>
  <fix>3d</fix>
</trkpt>
<trkpt lat="-27.2745101" lon="151.2906662">
  <ele>370.91</ele>
  <time>2026-09-01T20:03:30Z</time>
  <course>179.09</course>
  <speed>16.980577139779438</speed>
  <fix>3d</fix>
</trkpt>
<trkpt lat="-27.274477" lon="151.2906665">
  <ele>370.73</ele>
  <time>2026-09-01T20:03:30Z</time>
  <course>180.47</course>
  <speed>16.98</speed>
  <fix>3d</fix>
</trkpt>
<trkpt lat="-27.2745253" lon="151.2906661">
  <ele>370.88</ele>
  <time>2026-09-01T20:03:30Z</time>
  <course>180.13</course>
  <speed>16.980577139779438</speed>
  <fix>3d</fix>
</trkpt>
<trkpt lat="-27.2745075" lon="151.2906653">
  <ele>370.91</ele>
  <time>2026-09-01T20:03:30Z</time>
  <course>183.58</course>
  <speed>16.93</speed>
  <fix>3d</fix>
</trkpt>
<trkpt lat="-27.2745404" lon="151.290663">
  <ele>370.89</ele>
  <time>2026-09-01T20:03:30Z</time>
  <course>181.09</course>
  <speed>16.9325869258067</speed>
  <fix>3d</fix>
</trkpt>
<trkpt lat="-27.2745075" lon="151.2906653">
  <ele>370.91</ele>
  <time>2026-09-01T20:03:30Z</time>
  <course>183.58</course>
  <speed>16.93</speed>
  <fix>3d</fix>
</trkpt>
<trkpt lat="-27.2745556" lon="151.290662">
  <ele>371.22</ele>
  <time>2026-09-01T20:03:30Z</time>
  <course>182.0</course>
  <speed>16.9325869258067</speed>
  <fix>3d</fix>
</trkpt>
<trkpt lat="-27.2745377" lon="151.2906623">
  <ele>371.09</ele>
  <time>2026-09-01T20:03:30Z</time>
  <course>186.71</course>
  <speed>16.91</speed>
  <fix>3d</fix>
</trkpt>
<trkpt lat="-27.2745704" lon="151.290658">
  <ele>371.08</ele>
  <time>2026-09-01T20:03:30Z</time>
  <course>183.02</course>
  <speed>16.90517672193935</speed>
  <fix>3d</fix>
</trkpt>
<trkpt lat="-27.2745377" lon="151.2906623">
  <ele>371.09</ele>
  <time>2026-09-01T20:03:30Z</time>
  <course>186.71</course>
  <speed>16.91</speed>
  <fix>3d</fix>
</trkpt>
<trkpt lat="-27.2745855" lon="151.290656">
  <ele>371.43</ele>
  <time>2026-09-01T20:03:30Z</time>
  <course>184.0</course>
  <speed>16.90517672193935</speed>
  <fix>3d</fix>
</trkpt>
<trkpt lat="-27.2745677" lon="151.2906574">
  <ele>371.25</ele>
  <time>2026-09-01T20:03:30Z</time>
  <course>189.83</course>
  <speed>16.9</speed>
  <fix>3d</fix>
</trkpt>
<trkpt lat="-27.2746001" lon="151.2906511">
  <ele>371.4</ele>
  <time>2026-09-01T20:03:30Z</time>
  <course>184.98</course>
  <speed>16.89724533762826</speed>
  <fix>3d</fix>
</trkpt>
<trkpt lat="-27.2745677" lon="151.2906574">
  <ele>371.25</ele>
  <time>2026-09-01T20:03:30Z</time>
  <course>189.83</course>
  <speed>16.9</speed>
  <fix>3d</fix>
</trkpt>
<trkpt lat="-27.2746151" lon="151.2906482">
  <ele>371.45</ele>
  <time>2026-09-01T20:03:30Z</time>
  <course>185.94</course>
  <speed>16.89724533762826</speed>
  <fix>3d</fix>
</trkpt>
<trkpt lat="-27.2745975" lon="151.2906506">
  <ele>371.39</ele>
  <time>2026-09-01T20:03:30Z</time>
  <course>192.95</course>
  <speed>16.92</speed>
  <fix>3d</fix>
</trkpt>
<trkpt lat="-27.2746296" lon="151.2906423">
  <ele>371.54</ele>
  <time>2026-09-01T20:03:30Z</time>
  <course>186.94</course>
  <speed>16.919934988054774</speed>
  <fix>3d</fix>
</trkpt>
<trkpt lat="-27.2745975" lon="151.2906506">
  <ele>371.39</ele>
  <time>2026-09-01T20:03:30Z</time>
  <course>192.95</course>
  <speed>16.92</speed>
  <fix>3d</fix>
</trkpt>
<trkpt lat="-27.2746444" lon="151.2906385">
  <ele>371.6</ele>
  <time>2026-09-01T20:03:30Z</time>
  <course>187.97</course>
  <speed>16.919934988054774</speed>
  <fix>3d</fix>
</trkpt>
<trkpt lat="-27.274627" lon="151.2906421">
  <ele>371.52</ele>
  <time>2026-09-01T20:03:30Z</time>
  <course>196.08</course>
  <speed>16.94</speed>
  <fix>3d</fix>
</trkpt>
<trkpt lat="-27.2746587" lon="151.2906319">
  <ele>371.66</ele>
  <time>2026-09-01T20:03:30Z</time>
  <course>189.02</course>
  <speed>16.942092550803753</speed>
  <fix>3d</fix>
</trkpt>
<trkpt lat="-27.274627" lon="151.2906421">
  <ele>371.52</ele>
  <time>2026-09-01T20:03:30Z</time>
  <course>196.08</course>
  <speed>16.94</speed>
  <fix>3d</fix>
</trkpt>
<trkpt lat="-27.2746733" lon="151.2906271">
  <ele>371.52</ele>
  <time>2026-09-01T20:03:30Z</time>
  <course>190.05</course>
  <speed>16.942092550803753</speed>
  <fix>3d</fix>
</trkpt>
<trkpt lat="-27.274656" lon="151.2906317">
  <ele>371.63</ele>
  <time>2026-09-01T20:03:30Z</time>
  <course>199.23</course>
  <speed>16.99</speed>
  <fix>3d</fix>
</trkpt>
<trkpt lat="-27.2746872" lon="151.2906195">
  <ele>371.52</ele>
  <time>2026-09-01T20:03:30Z</time>
  <course>191.01</course>
  <speed>16.995605314315814</speed>
  <fix>3d</fix>
</trkpt>
<trkpt lat="-27.274656" lon="151.2906317">
  <ele>371.63</ele>
  <time>2026-09-01T20:03:30Z</time>
  <course>199.23</course>
  <speed>16.99</speed>
  <fix>3d</fix>
</trkpt>
<trkpt lat="-27.2747017" lon="151.2906138">
  <ele>371.81</ele>
  <time>2026-09-01T20:03:30Z</time>
  <course>192.02</course>
  <speed>16.995605314315814</speed>
  <fix>3d</fix>
</trkpt>
<trkpt lat="-27.2746846" lon="151.2906194">
  <ele>371.73</ele>
  <time>2026-09-01T20:03:30Z</time>
  <course>202.41</course>
  <speed>17.07</speed>
  <fix>3d</fix>
</trkpt>
<trkpt lat="-27.2747153" lon="151.2906052">
  <ele>371.96</ele>
  <time>2026-09-01T20:03:30Z</time>
  <course>193.05</course>
  <speed>17.066294266770395</speed>
  <fix>3d</fix>
</trkpt>
<trkpt lat="-27.2746846" lon="151.2906194">
  <ele>371.73</ele>
  <time>2026-09-01T20:03:30Z</time>
  <course>202.41</course>
  <speed>17.07</speed>
  <fix>3d</fix>
</trkpt>
<trkpt lat="-27.2747295" lon="151.2905986">
  <ele>371.79</ele>
  <time>2026-09-01T20:03:30Z</time>
  <course>194.09</course>
  <speed>17.066294266770395</speed>
  <fix>3d</fix>
</trkpt>
<trkpt lat="-27.2747127" lon="151.2906053">
  <ele>371.82</ele>
  <time>2026-09-01T20:03:30Z</time>
  <course>205.56</course>
  <speed>17.17</speed>
  <fix>3d</fix>
</trkpt>
<trkpt lat="-27.2747433" lon="151.2905889">
  <ele>372.03</ele>
  <time>2026-09-01T20:03:30Z</time>
  <course>195.18</course>
  <speed>17.166831390795448</speed>
  <fix>3d</fix>
</trkpt>
<trkpt lat="-27.2747127" lon="151.2906053">
  <ele>371.82</ele>
  <time>2026-09-01T20:03:30Z</time>
  <course>205.56</course>
  <speed>17.17</speed>
  <fix>3d</fix>
</trkpt>
<trkpt lat="-27.2747566" lon="151.2905795">
  <ele>372.02</ele>
  <time>2026-09-01T20:03:30Z</time>
  <course>196.23</course>
  <speed>17.288195394545955</speed>
  <fix>3d</fix>
</trkpt>
<trkpt lat="-27.2747403" lon="151.2905895">
  <ele>371.9</ele>
  <time>2026-09-01T20:03:30Z</time>
  <course>208.73</course>
  <speed>17.29</speed>
  <fix>3d</fix>
</trkpt>
<trkpt lat="-27.2747702" lon="151.2905711">
  <ele>372.11</ele>
  <time>2026-09-01T20:03:30Z</time>
  <course>197.34</course>
  <speed>17.288195394545955</speed>
  <fix>3d</fix>
</trkpt>
<trkpt lat="-27.2747403" lon="151.2905895">
  <ele>371.9</ele>
  <time>2026-09-01T20:03:30Z</time>
  <course>208.73</course>
  <speed>17.29</speed>
  <fix>3d</fix>
</trkpt>
<trkpt lat="-27.2747832" lon="151.2905606">
  <ele>371.93</ele>
  <time>2026-09-01T20:03:30Z</time>
  <course>198.37</course>
  <speed>17.428496779699618</speed>
  <fix>3d</fix>
</trkpt>
<trkpt lat="-27.2747673" lon="151.2905717">
  <ele>371.97</ele>
  <time>2026-09-01T20:03:30Z</time>
  <course>211.93</course>
  <speed>17.43</speed>
  <fix>3d</fix>
</trkpt>
<trkpt lat="-27.2747965" lon="151.2905512">
  <ele>371.94</ele>
  <time>2026-09-01T20:03:30Z</time>
  <course>199.38</course>
  <speed>17.428496779699618</speed>
  <fix>3d</fix>
</trkpt>
<trkpt lat="-27.2747673" lon="151.2905717">
  <ele>371.97</ele>
  <time>2026-09-01T20:03:30Z</time>
  <course>211.93</course>
  <speed>17.43</speed>
  <fix>3d</fix>
</trkpt>
<trkpt lat="-27.274809" lon="151.2905399">
  <ele>371.98</ele>
  <time>2026-09-01T20:03:30Z</time>
  <course>200.48</course>
  <speed>17.58647775991543</speed>
  <fix>3d</fix>
</trkpt>
<trkpt lat="-27.2747935" lon="151.2905521">
  <ele>372.04</ele>
  <time>2026-09-01T20:03:30Z</time>
  <course>215.09</course>
  <speed>17.59</speed>
  <fix>3d</fix>
</trkpt>
<trkpt lat="-27.2748215" lon="151.29053">
  <ele>372.08</ele>
  <time>2026-09-01T20:03:30Z</time>
  <course>201.6</course>
  <speed>17.58647775991543</speed>
  <fix>3d</fix>
</trkpt>
<trkpt lat="-27.2747935" lon="151.2905521">
  <ele>372.04</ele>
  <time>2026-09-01T20:03:30Z</time>
  <course>215.09</course>
  <speed>17.59</speed>
  <fix>3d</fix>
</trkpt>
<trkpt lat="-27.2748344" lon="151.2905197">
  <ele>372.03</ele>
  <time>2026-09-01T20:03:30Z</time>
  <course>202.66</course>
  <speed>17.58647775991543</speed>
  <fix>3d</fix>
</trkpt>
<trkpt lat="-27.2748189" lon="151.2905308">
  <ele>372.1</ele>
  <time>2026-09-01T20:03:30Z</time>
  <course>218.24</course>
  <speed>17.78</speed>
  <fix>3d</fix>
</trkpt>
<trkpt lat="-27.2748461" lon="151.2905067">
  <ele>372.17</ele>
  <time>2026-09-01T20:03:30Z</time>
  <course>203.66</course>
  <speed>17.77305826243756</speed>
  <fix>3d</fix>
</trkpt>
<trkpt lat="-27.2748189" lon="151.2905308">
  <ele>372.1</ele>
  <time>2026-09-01T20:03:30Z</time>
  <course>218.24</course>
  <speed>17.78</speed>
  <fix>3d</fix>
</trkpt>
<trkpt lat="-27.2748586" lon="151.2904956">
  <ele>372.08</ele>
  <time>2026-09-01T20:03:30Z</time>
  <course>204.8</course>
  <speed>17.77305826243756</speed>
  <fix>3d</fix>
</trkpt>
<trkpt lat="-27.2748435" lon="151.2905076">
  <ele>372.15</ele>
  <time>2026-09-01T20:03:30Z</time>
  <course>221.35</course>
  <speed>17.99</speed>
  <fix>3d</fix>
</trkpt>
<trkpt lat="-27.2748698" lon="151.2904816">
  <ele>372.25</ele>
  <time>2026-09-01T20:03:30Z</time>
  <course>205.94</course>
  <speed>17.98949971511159</speed>
  <fix>3d</fix>
</trkpt>
<trkpt lat="-27.2748435" lon="151.2905076">
  <ele>372.15</ele>
  <time>2026-09-01T20:03:30Z</time>
  <course>221.35</course>
  <speed>17.99</speed>
  <fix>3d</fix>
</trkpt>
<trkpt lat="-27.2748819" lon="151.2904696">
  <ele>372.0</ele>
  <time>2026-09-01T20:03:30Z</time>
  <course>207.13</course>
  <speed>17.98949971511159</speed>
  <fix>3d</fix>
</trkpt>
<trkpt lat="-27.2748674" lon="151.2904828">
  <ele>372.19</ele>
  <time>2026-09-01T20:03:30Z</time>
  <course>224.49</course>
  <speed>18.22</speed>
  <fix>3d</fix>
</trkpt>
<trkpt lat="-27.2748927" lon="151.2904548">
  <ele>372.37</ele>
  <time>2026-09-01T20:03:30Z</time>
  <course>208.32</course>
  <speed>18.222867502124906</speed>
  <fix>3d</fix>
</trkpt>
<trkpt lat="-27.2748674" lon="151.2904828">
  <ele>372.19</ele>
  <time>2026-09-01T20:03:30Z</time>
  <course>224.49</course>
  <speed>18.22</speed>
  <fix>3d</fix>
</trkpt>
<trkpt lat="-27.2749044" lon="151.2904419">
  <ele>372.11</ele>
  <time>2026-09-01T20:03:30Z</time>
  <course>209.46</course>
  <speed>18.222867502124906</speed>
  <fix>3d</fix>
</trkpt>
<trkpt lat="-27.2748902" lon="151.290456">
  <ele>372.22</ele>
  <time>2026-09-01T20:03:30Z</time>
  <course>227.72</course>
  <speed>18.49</speed>
  <fix>3d</fix>
</trkpt>
<trkpt lat="-27.2749144" lon="151.290426">
  <ele>372.19</ele>
  <time>2026-09-01T20:03:30Z</time>
  <course>210.63</course>
  <speed>18.483703633200786</speed>
  <fix>3d</fix>
</trkpt>
<trkpt lat="-27.2748902" lon="151.290456">
  <ele>372.22</ele>
  <time>2026-09-01T20:03:30Z</time>
  <course>227.72</course>
  <speed>18.49</speed>
  <fix>3d</fix>
</trkpt>
<trkpt lat="-27.2749256" lon="151.2904122">
  <ele>372.21</ele>
  <time>2026-09-01T20:03:30Z</time>
  <course>211.82</course>
  <speed>18.483703633200786</speed>
  <fix>3d</fix>
</trkpt>
<trkpt lat="-27.274912" lon="151.2904275">
  <ele>372.26</ele>
  <time>2026-09-01T20:03:30Z</time>
  <course>230.96</course>
  <speed>18.77</speed>
  <fix>3d</fix>
</trkpt>
<trkpt lat="-27.274935" lon="151.2903956">
  <ele>372.36</ele>
  <time>2026-09-01T20:03:30Z</time>
  <course>213.1</course>
  <speed>18.769358007134926</speed>
  <fix>3d</fix>
</trkpt>
<trkpt lat="-27.274912" lon="151.2904275">
  <ele>372.26</ele>
  <time>2026-09-01T20:03:30Z</time>
  <course>230.96</course>
  <speed>18.77</speed>
  <fix>3d</fix>
</trkpt>
<trkpt lat="-27.2749456" lon="151.2903808">
  <ele>372.43</ele>
  <time>2026-09-01T20:03:30Z</time>
  <course>214.35</course>
  <speed>18.769358007134926</speed>
  <fix>3d</fix>
</trkpt>
<trkpt lat="-27.2749327" lon="151.290397">
  <ele>372.3</ele>
  <time>2026-09-01T20:03:30Z</time>
  <course>234.21</course>
  <speed>19.09</speed>
  <fix>3d</fix>
</trkpt>
<trkpt lat="-27.2749544" lon="151.2903631">
  <ele>372.38</ele>
  <time>2026-09-01T20:03:30Z</time>
  <course>215.61</course>
  <speed>19.091508583660957</speed>
  <fix>3d</fix>
</trkpt>
<trkpt lat="-27.2749327" lon="151.290397">
  <ele>372.3</ele>
  <time>2026-09-01T20:03:30Z</time>
  <course>234.21</course>
  <speed>19.09</speed>
  <fix>3d</fix>
</trkpt>
<trkpt lat="-27.2749644" lon="151.2903474">
  <ele>372.27</ele>
  <time>2026-09-01T20:03:30Z</time>
  <course>216.99</course>
  <speed>19.091508583660957</speed>
  <fix>3d</fix>
</trkpt>
<trkpt lat="-27.2749522" lon="151.2903647">
  <ele>372.34</ele>
  <time>2026-09-01T20:03:30Z</time>
  <course>237.51</course>
  <speed>19.43</speed>
  <fix>3d</fix>
</trkpt>
<trkpt lat="-27.2749725" lon="151.2903288">
  <ele>372.41</ele>
  <time>2026-09-01T20:03:30Z</time>
  <course>218.32</course>
  <speed>19.427223167503893</speed>
  <fix>3d</fix>
</trkpt>
<trkpt lat="-27.2749522" lon="151.2903647">
  <ele>372.34</ele>
  <time>2026-09-01T20:03:30Z</time>
  <course>237.51</course>
  <speed>19.43</speed>
  <fix>3d</fix>
</trkpt>
<trkpt lat="-27.2749805" lon="151.2903098">
  <ele>372.36</ele>
  <time>2026-09-01T20:03:30Z</time>
  <course>219.63</course>
  <speed>19.787066482932733</speed>
  <fix>3d</fix>
</trkpt>
<trkpt lat="-27.2749702" lon="151.2903307">
  <ele>372.38</ele>
  <time>2026-09-01T20:03:30Z</time>
  <course>240.84</course>
  <speed>19.79</speed>
  <fix>3d</fix>
</trkpt>
<trkpt lat="-27.2749892" lon="151.2902923">
  <ele>372.28</ele>
  <time>2026-09-01T20:03:30Z</time>
  <course>220.91</course>
  <speed>19.787066482932733</speed>
  <fix>3d</fix>
</trkpt>
<trkpt lat="-27.2749702" lon="151.2903307">
  <ele>372.38</ele>
  <time>2026-09-01T20:03:30Z</time>
  <course>240.84</course>
  <speed>19.79</speed>
  <fix>3d</fix>
</trkpt>
<trkpt lat="-27.2749962" lon="151.2902729">
  <ele>372.54</ele>
  <time>2026-09-01T20:03:30Z</time>
  <course>222.27</course>
  <speed>20.184474231448288</speed>
  <fix>3d</fix>
</trkpt>
<trkpt lat="-27.2749868" lon="151.2902949">
  <ele>372.41</ele>
  <time>2026-09-01T20:03:30Z</time>
  <course>244.18</course>
  <speed>20.18</speed>
  <fix>3d</fix>
</trkpt>
<trkpt lat="-27.2750041" lon="151.2902545">
  <ele>372.46</ele>
  <time>2026-09-01T20:03:30Z</time>
  <course>223.66</course>
  <speed>20.184474231448288</speed>
  <fix>3d</fix>
</trkpt>
<trkpt lat="-27.2749868" lon="151.2902949">
  <ele>372.41</ele>
  <time>2026-09-01T20:03:30Z</time>
  <course>244.18</course>
  <speed>20.18</speed>
  <fix>3d</fix>
</trkpt>
<trkpt lat="-27.2750102" lon="151.2902342">
  <ele>372.28</ele>
  <time>2026-09-01T20:03:30Z</time>
  <course>225.06</course>
  <speed>20.6023906379818</speed>
  <fix>3d</fix>
</trkpt>
<trkpt lat="-27.2750018" lon="151.2902572">
  <ele>372.46</ele>
  <time>2026-09-01T20:03:30Z</time>
  <course>247.53</course>
  <speed>20.6</speed>
  <fix>3d</fix>
</trkpt>
<trkpt lat="-27.2750173" lon="151.2902149">
  <ele>372.55</ele>
  <time>2026-09-01T20:03:30Z</time>
  <course>226.49</course>
  <speed>20.6023906379818</speed>
  <fix>3d</fix>
</trkpt>
<trkpt lat="-27.2750018" lon="151.2902572">
  <ele>372.46</ele>
  <time>2026-09-01T20:03:30Z</time>
  <course>247.53</course>
  <speed>20.6</speed>
  <fix>3d</fix>
</trkpt>
<trkpt lat="-27.2750224" lon="151.2901937">
  <ele>372.53</ele>
  <time>2026-09-01T20:03:30Z</time>
  <course>227.95</course>
  <speed>21.046294210620548</speed>
  <fix>3d</fix>
</trkpt>
<trkpt lat="-27.275015" lon="151.2902178">
  <ele>372.5</ele>
  <time>2026-09-01T20:03:30Z</time>
  <course>250.91</course>
  <speed>21.04</speed>
  <fix>3d</fix>
</trkpt>
<trkpt lat="-27.2750286" lon="151.2901736">
  <ele>372.69</ele>
  <time>2026-09-01T20:03:30Z</time>
  <course>229.5</course>
  <speed>21.046294210620548</speed>
  <fix>3d</fix>
</trkpt>
<trkpt lat="-27.275015" lon="151.2902178">
  <ele>372.5</ele>
  <time>2026-09-01T20:03:30Z</time>
  <course>250.91</course>
  <speed>21.04</speed>
  <fix>3d</fix>
</trkpt>
<trkpt lat="-27.2750326" lon="151.2901518">
  <ele>372.48</ele>
  <time>2026-09-01T20:03:30Z</time>
  <course>231.01</course>
  <speed>21.509537419479763</speed>
  <fix>3d</fix>
</trkpt>
<trkpt lat="-27.2750264" lon="151.2901769">
  <ele>372.56</ele>
  <time>2026-09-01T20:03:30Z</time>
  <course>254.3</course>
  <speed>21.51</speed>
  <fix>3d</fix>
</trkpt>
<trkpt lat="-27.2750378" lon="151.2901309">
  <ele>372.8</ele>
  <time>2026-09-01T20:03:30Z</time>
  <course>232.48</course>
  <speed>21.509537419479763</speed>
  <fix>3d</fix>
</trkpt>
<trkpt lat="-27.2750264" lon="151.2901769">
  <ele>372.56</ele>
  <time>2026-09-01T20:03:30Z</time>
  <course>254.3</course>
  <speed>21.51</speed>
  <fix>3d</fix>
</trkpt>
<trkpt lat="-27.2750409" lon="151.2901082">
  <ele>372.54</ele>
  <time>2026-09-01T20:03:30Z</time>
  <course>234.05</course>
  <speed>22.00133859564004</speed>
  <fix>3d</fix>
</trkpt>
<trkpt lat="-27.2750359" lon="151.2901342">
  <ele>372.61</ele>
  <time>2026-09-01T20:03:30Z</time>
  <course>257.73</course>
  <speed>22.0</speed>
  <fix>3d</fix>
</trkpt>
<trkpt lat="-27.2750451" lon="151.2900864">
  <ele>372.79</ele>
  <time>2026-09-01T20:03:30Z</time>
  <course>235.73</course>
  <speed>22.00133859564004</speed>
  <fix>3d</fix>
</trkpt>
<trkpt lat="-27.2750359" lon="151.2901342">
  <ele>372.61</ele>
  <time>2026-09-01T20:03:30Z</time>
  <course>257.73</course>
  <speed>22.0</speed>
  <fix>3d</fix>
</trkpt>
<trkpt lat="-27.2750469" lon="151.290063">
  <ele>372.69</ele>
  <time>2026-09-01T20:03:30Z</time>
  <course>237.35</course>
  <speed>22.522710760474638</speed>
  <fix>3d</fix>
</trkpt>
<trkpt lat="-27.2750432" lon="151.29009">
  <ele>372.67</ele>
  <time>2026-09-01T20:03:30Z</time>
  <course>261.22</course>
  <speed>22.52</speed>
  <fix>3d</fix>
</trkpt>
<trkpt lat="-27.2750499" lon="151.290041">
  <ele>372.75</ele>
  <time>2026-09-01T20:03:30Z</time>
  <course>239.02</course>
  <speed>22.522710760474638</speed>
  <fix>3d</fix>
</trkpt>
<trkpt lat="-27.2750432" lon="151.29009">
  <ele>372.67</ele>
  <time>2026-09-01T20:03:30Z</time>
  <course>261.22</course>
  <speed>22.52</speed>
  <fix>3d</fix>
</trkpt>
<trkpt lat="-27.275053" lon="151.2900185">
  <ele>372.94</ele>
  <time>2026-09-01T20:03:30Z</time>
  <course>240.78</course>
  <speed>22.522710760474638</speed>
  <fix>3d</fix>
</trkpt>
<trkpt lat="-27.2750481" lon="151.2900442">
  <ele>372.73</ele>
  <time>2026-09-01T20:03:30Z</time>
  <course>264.79</course>
  <speed>23.08</speed>
  <fix>3d</fix>
</trkpt>
<trkpt lat="-27.2750521" lon="151.2899938">
  <ele>372.69</ele>
  <time>2026-09-01T20:03:30Z</time>
  <course>242.56</course>
  <speed>23.07484561161786</speed>
  <fix>3d</fix>
</trkpt>
<trkpt lat="-27.2750481" lon="151.2900442">
  <ele>372.73</ele>
  <time>2026-09-01T20:03:30Z</time>
  <course>264.79</course>
  <speed>23.08</speed>
  <fix>3d</fix>
</trkpt>
<trkpt lat="-27.275054" lon="151.2899706">
  <ele>372.95</ele>
  <time>2026-09-01T20:03:30Z</time>
  <course>244.4</course>
  <speed>23.07484561161786</speed>
  <fix>3d</fix>
</trkpt>
<trkpt lat="-27.2750506" lon="151.2899971">
  <ele>372.8</ele>
  <time>2026-09-01T20:03:30Z</time>
  <course>268.43</course>
  <speed>23.66</speed>
  <fix>3d</fix>
</trkpt>
<trkpt lat="-27.2750518" lon="151.2899453">
  <ele>372.84</ele>
  <time>2026-09-01T20:03:30Z</time>
  <course>246.31</course>
  <speed>23.668654376622257</speed>
  <fix>3d</fix>
</trkpt>
<trkpt lat="-27.2750506" lon="151.2899971">
  <ele>372.8</ele>
  <time>2026-09-01T20:03:30Z</time>
  <course>268.43</course>
  <speed>23.66</speed>
  <fix>3d</fix>
</trkpt>
<trkpt lat="-27.2750524" lon="151.2899213">
  <ele>373.04</ele>
  <time>2026-09-01T20:03:30Z</time>
  <course>248.17</course>
  <speed>23.668654376622257</speed>
  <fix>3d</fix>
</trkpt>
<trkpt lat="-27.2750504" lon="151.2899485">
  <ele>372.88</ele>
  <time>2026-09-01T20:03:30Z</time>
  <course>272.17</course>
  <speed>24.29</speed>
  <fix>3d</fix>
</trkpt>
<trkpt lat="-27.2750487" lon="151.2898953">
  <ele>373.07</ele>
  <time>2026-09-01T20:03:30Z</time>
  <course>250.11</course>
  <speed>24.28743090571747</speed>
  <fix>3d</fix>
</trkpt>
<trkpt lat="-27.2750504" lon="151.2899485">
  <ele>372.88</ele>
  <time>2026-09-01T20:03:30Z</time>
  <course>272.17</course>
  <speed>24.29</speed>
  <fix>3d</fix>
</trkpt>
<trkpt lat="-27.2750478" lon="151.2898708">
  <ele>372.96</ele>
  <time>2026-09-01T20:03:30Z</time>
  <course>252.18</course>
  <speed>24.28743090571747</speed>
  <fix>3d</fix>
</trkpt>
<trkpt lat="-27.2750473" lon="151.2898989">
  <ele>372.96</ele>
  <time>2026-09-01T20:03:30Z</time>
  <course>275.97</course>
  <speed>24.94</speed>
  <fix>3d</fix>
</trkpt>
<trkpt lat="-27.2750422" lon="151.2898438">
  <ele>373.13</ele>
  <time>2026-09-01T20:03:30Z</time>
  <course>254.33</course>
  <speed>24.934877180367263</speed>
  <fix>3d</fix>
</trkpt>
<trkpt lat="-27.2750473" lon="151.2898989">
  <ele>372.96</ele>
  <time>2026-09-01T20:03:30Z</time>
  <course>275.97</course>
  <speed>24.94</speed>
  <fix>3d</fix>
</trkpt>
<trkpt lat="-27.2750364" lon="151.2898177">
  <ele>373.25</ele>
  <time>2026-09-01T20:03:30Z</time>
  <course>256.37</course>
  <speed>25.60565953065845</speed>
  <fix>3d</fix>
</trkpt>
<trkpt lat="-27.2750411" lon="151.2898483">
  <ele>373.06</ele>
  <time>2026-09-01T20:03:30Z</time>
  <course>279.83</course>
  <speed>25.6</speed>
  <fix>3d</fix>
</trkpt>
<trkpt lat="-27.2750325" lon="151.2897922">
  <ele>373.23</ele>
  <time>2026-09-01T20:03:30Z</time>
  <course>258.5</course>
  <speed>25.60565953065845</speed>
  <fix>3d</fix>
</trkpt>
<trkpt lat="-27.2750411" lon="151.2898483">
  <ele>373.06</ele>
  <time>2026-09-01T20:03:30Z</time>
  <course>279.83</course>
  <speed>25.6</speed>
  <fix>3d</fix>
</trkpt>
<trkpt lat="-27.2750248" lon="151.2897661">
  <ele>373.14</ele>
  <time>2026-09-01T20:03:30Z</time>
  <course>260.73</course>
  <speed>26.29361329296527</speed>
  <fix>3d</fix>
</trkpt>
<trkpt lat="-27.2750315" lon="151.289797">
  <ele>373.17</ele>
  <time>2026-09-01T20:03:30Z</time>
  <course>283.76</course>
  <speed>26.29</speed>
  <fix>3d</fix>
</trkpt>
<trkpt lat="-27.2750192" lon="151.2897403">
  <ele>373.15</ele>
  <time>2026-09-01T20:03:30Z</time>
  <course>263.02</course>
  <speed>26.29361329296527</speed>
  <fix>3d</fix>
</trkpt>
<trkpt lat="-27.2750315" lon="151.289797">
  <ele>373.17</ele>
  <time>2026-09-01T20:03:30Z</time>
  <course>283.76</course>
  <speed>26.29</speed>
  <fix>3d</fix>
</trkpt>
<trkpt lat="-27.2750097" lon="151.2897139">
  <ele>373.54</ele>
  <time>2026-09-01T20:03:30Z</time>
  <course>265.29</course>
  <speed>27.007702604997707</speed>
  <fix>3d</fix>
</trkpt>
<trkpt lat="-27.2750185" lon="151.2897451">
  <ele>373.29</ele>
  <time>2026-09-01T20:03:30Z</time>
  <course>287.76</course>
  <speed>27.01</speed>
  <fix>3d</fix>
</trkpt>
<trkpt lat="-27.2750023" lon="151.2896879">
  <ele>373.45</ele>
  <time>2026-09-01T20:03:30Z</time>
  <course>267.65</course>
  <speed>27.007702604997707</speed>
  <fix>3d</fix>
</trkpt>
<trkpt lat="-27.2750185" lon="151.2897451">
  <ele>373.29</ele>
  <time>2026-09-01T20:03:30Z</time>
  <course>287.76</course>
  <speed>27.01</speed>
  <fix>3d</fix>
</trkpt>
<trkpt lat="-27.2749907" lon="151.2896619">
  <ele>373.46</ele>
  <time>2026-09-01T20:03:30Z</time>
  <course>270.1</course>
  <speed>27.74847923760868</speed>
  <fix>3d</fix>
</trkpt>
<trkpt lat="-27.2750018" lon="151.2896931">
  <ele>373.43</ele>
  <time>2026-09-01T20:03:30Z</time>
  <course>291.87</course>
  <speed>27.75</speed>
  <fix>3d</fix>
</trkpt>
<trkpt lat="-27.2749815" lon="151.2896361">
  <ele>373.55</ele>
  <time>2026-09-01T20:03:30Z</time>
  <course>272.62</course>
  <speed>27.74847923760868</speed>
  <fix>3d</fix>
</trkpt>
<trkpt lat="-27.2750018" lon="151.2896931">
  <ele>373.43</ele>
  <time>2026-09-01T20:03:30Z</time>
  <course>291.87</course>
  <speed>27.75</speed>
  <fix>3d</fix>
</trkpt>
<trkpt lat="-27.2749678" lon="151.2896102">
  <ele>373.77</ele>
  <time>2026-09-01T20:03:30Z</time>
  <course>275.22</course>
  <speed>28.51092772955661</speed>
  <fix>3d</fix>
</trkpt>
<trkpt lat="-27.2749813" lon="151.2896412">
  <ele>373.58</ele>
  <time>2026-09-01T20:03:30Z</time>
  <course>296.08</course>
  <speed>28.51</speed>
  <fix>3d</fix>
</trkpt>
<trkpt lat="-27.2749566" lon="151.2895843">
  <ele>373.55</ele>
  <time>2026-09-01T20:03:30Z</time>
  <course>277.8</course>
  <speed>28.51092772955661</speed>
  <fix>3d</fix>
</trkpt>
<trkpt lat="-27.2749813" lon="151.2896412">
  <ele>373.58</ele>
  <time>2026-09-01T20:03:30Z</time>
  <course>296.08</course>
  <speed>28.51</speed>
  <fix>3d</fix>
</trkpt>
<trkpt lat="-27.2749408" lon="151.2895591">
  <ele>373.62</ele>
  <time>2026-09-01T20:03:30Z</time>
  <course>280.5</course>
  <speed>29.28295408595246</speed>
  <fix>3d</fix>
</trkpt>
<trkpt lat="-27.2749567" lon="151.2895897">
  <ele>373.74</ele>
  <time>2026-09-01T20:03:30Z</time>
  <course>300.42</course>
  <speed>29.28</speed>
  <fix>3d</fix>
</trkpt>
<trkpt lat="-27.2749274" lon="151.2895336">
  <ele>373.77</ele>
  <time>2026-09-01T20:03:30Z</time>
  <course>283.22</course>
  <speed>29.28295408595246</speed>
  <fix>3d</fix>
</trkpt>
<trkpt lat="-27.2749567" lon="151.2895897">
  <ele>373.74</ele>
  <time>2026-09-01T20:03:30Z</time>
  <course>300.42</course>
  <speed>29.28</speed>
  <fix>3d</fix>
</trkpt>
<trkpt lat="-27.2749095" lon="151.2895094">
  <ele>374.0</ele>
  <time>2026-09-01T20:03:30Z</time>
  <course>286.0</course>
  <speed>30.056909355421094</speed>
  <fix>3d</fix>
</trkpt>
<trkpt lat="-27.274928" lon="151.2895393">
  <ele>373.93</ele>
  <time>2026-09-01T20:03:30Z</time>
  <course>304.84</course>
  <speed>30.06</speed>
  <fix>3d</fix>
</trkpt>
<trkpt lat="-27.2748941" lon="151.2894845">
  <ele>374.29</ele>
  <time>2026-09-01T20:03:30Z</time>
  <course>288.91</course>
  <speed>30.056909355421094</speed>
  <fix>3d</fix>
</trkpt>
<trkpt lat="-27.274928" lon="151.2895393">
  <ele>373.93</ele>
  <time>2026-09-01T20:03:30Z</time>
  <course>304.84</course>
  <speed>30.06</speed>
  <fix>3d</fix>
</trkpt>
<trkpt lat="-27.274874" lon="151.2894614">
  <ele>374.21</ele>
  <time>2026-09-01T20:03:30Z</time>
  <course>291.86</course>
  <speed>30.835917369197887</speed>
  <fix>3d</fix>
</trkpt>
<trkpt lat="-27.274895" lon="151.2894903">
  <ele>374.14</ele>
  <time>2026-09-01T20:03:30Z</time>
  <course>309.38</course>
  <speed>30.84</speed>
  <fix>3d</fix>
</trkpt>
<trkpt lat="-27.2748564" lon="151.2894373">
  <ele>374.48</ele>
  <time>2026-09-01T20:03:30Z</time>
  <course>294.86</course>
  <speed>30.835917369197887</speed>
  <fix>3d</fix>
</trkpt>
<trkpt lat="-27.274895" lon="151.2894903">
  <ele>374.14</ele>
  <time>2026-09-01T20:03:30Z</time>
  <course>309.38</course>
  <speed>30.84</speed>
  <fix>3d</fix>
</trkpt>
<trkpt lat="-27.274834" lon="151.2894156">
  <ele>374.65</ele>
  <time>2026-09-01T20:03:30Z</time>
  <course>297.95</course>
  <speed>31.597863851849226</speed>
  <fix>3d</fix>
</trkpt>
<trkpt lat="-27.2748576" lon="151.2894431">
  <ele>374.37</ele>
  <time>2026-09-01T20:03:30Z</time>
  <course>314.05</course>
  <speed>31.6</speed>
  <fix>3d</fix>
</trkpt>
<trkpt lat="-27.2748142" lon="151.2893926">
  <ele>374.38</ele>
  <time>2026-09-01T20:03:30Z</time>
  <course>301.15</course>
  <speed>31.597863851849226</speed>
  <fix>3d</fix>
</trkpt>
<trkpt lat="-27.2748576" lon="151.2894431">
  <ele>374.37</ele>
  <time>2026-09-01T20:03:30Z</time>
  <course>314.05</course>
  <speed>31.6</speed>
  <fix>3d</fix>
</trkpt>
<trkpt lat="-27.2747949" lon="151.2893701">
  <ele>374.56</ele>
  <time>2026-09-01T20:03:30Z</time>
  <course>304.4</course>
  <speed>31.597863851849226</speed>
  <fix>3d</fix>
</trkpt>
<trkpt lat="-27.2748159" lon="151.2893985">
  <ele>374.62</ele>
  <time>2026-09-01T20:03:30Z</time>
  <course>318.87</course>
  <speed>32.34</speed>
  <fix>3d</fix>
</trkpt>
<trkpt lat="-27.2747678" lon="151.2893513">
  <ele>374.8</ele>
  <time>2026-09-01T20:03:30Z</time>
  <course>307.83</course>
  <speed>32.339179024829924</speed>
  <fix>3d</fix>
</trkpt>
<trkpt lat="-27.2748159" lon="151.2893985">
  <ele>374.62</ele>
  <time>2026-09-01T20:03:30Z</time>
  <course>318.87</course>
  <speed>32.34</speed>
  <fix>3d</fix>
</trkpt>
<trkpt lat="-27.2747413" lon="151.2893337">
  <ele>375.02</ele>
  <time>2026-09-01T20:03:30Z</time>
  <course>311.15</course>
  <speed>33.05677086468066</speed>
  <fix>3d</fix>
</trkpt>
<trkpt lat="-27.27477" lon="151.2893573">
  <ele>374.9</ele>
  <time>2026-09-01T20:03:30Z</time>
  <course>323.86</course>
  <speed>33.05</speed>
  <fix>3d</fix>
</trkpt>
<trkpt lat="-27.2747173" lon="151.289314">
  <ele>375.18</ele>
  <time>2026-09-01T20:03:30Z</time>
  <course>314.6</course>
  <speed>33.05677086468066</speed>
  <fix>3d</fix>
</trkpt>
<trkpt lat="-27.27477" lon="151.2893573">
  <ele>374.9</ele>
  <time>2026-09-01T20:03:30Z</time>
  <course>323.86</course>
  <speed>33.05</speed>
  <fix>3d</fix>
</trkpt>
<trkpt lat="-27.2746889" lon="151.2892989">
  <ele>375.21</ele>
  <time>2026-09-01T20:03:30Z</time>
  <course>318.22</course>
  <speed>33.723499225317646</speed>
  <fix>3d</fix>
</trkpt>
<trkpt lat="-27.27472" lon="151.2893199">
  <ele>375.21</ele>
  <time>2026-09-01T20:03:30Z</time>
  <course>328.97</course>
  <speed>33.73</speed>
  <fix>3d</fix>
</trkpt>
<trkpt lat="-27.2746629" lon="151.2892813">
  <ele>375.44</ele>
  <time>2026-09-01T20:03:30Z</time>
  <course>321.83</course>
  <speed>33.723499225317646</speed>
  <fix>3d</fix>
</trkpt>
<trkpt lat="-27.27472" lon="151.2893199">
  <ele>375.21</ele>
  <time>2026-09-01T20:03:30Z</time>
  <course>328.97</course>
  <speed>33.73</speed>
  <fix>3d</fix>
</trkpt>
<trkpt lat="-27.2746329" lon="151.2892692">
  <ele>375.83</ele>
  <time>2026-09-01T20:03:30Z</time>
  <course>325.47</course>
  <speed>34.32685537592979</speed>
  <fix>3d</fix>
</trkpt>
<trkpt lat="-27.2746662" lon="151.2892873">
  <ele>375.54</ele>
  <time>2026-09-01T20:03:30Z</time>
  <course>334.2</course>
  <speed>34.33</speed>
  <fix>3d</fix>
</trkpt>
<trkpt lat="-27.2746052" lon="151.2892541">
  <ele>375.99</ele>
  <time>2026-09-01T20:03:30Z</time>
  <course>329.25</course>
  <speed>34.32685537592979</speed>
  <fix>3d</fix>
</trkpt>
<trkpt lat="-27.2746662" lon="151.2892873">
  <ele>375.54</ele>
  <time>2026-09-01T20:03:30Z</time>
  <course>334.2</course>
  <speed>34.33</speed>
  <fix>3d</fix>
</trkpt>
<trkpt lat="-27.2745739" lon="151.2892452">
  <ele>375.87</ele>
  <time>2026-09-01T20:03:30Z</time>
  <course>333.08</course>
  <speed>34.84678033907867</speed>
  <fix>3d</fix>
</trkpt>
<trkpt lat="-27.2746091" lon="151.2892599">
  <ele>375.91</ele>
  <time>2026-09-01T20:03:30Z</time>
  <course>339.59</course>
  <speed>34.85</speed>
  <fix>3d</fix>
</trkpt>
<trkpt lat="-27.2745446" lon="151.2892329">
  <ele>376.09</ele>
  <time>2026-09-01T20:03:30Z</time>
  <course>336.99</course>
  <speed>34.84678033907867</speed>
  <fix>3d</fix>
</trkpt>
<trkpt lat="-27.2746091" lon="151.2892599">
  <ele>375.91</ele>
  <time>2026-09-01T20:03:30Z</time>
  <course>339.59</course>
  <speed>34.85</speed>
  <fix>3d</fix>
</trkpt>
<trkpt lat="-27.2745124" lon="151.2892274">
  <ele>376.4</ele>
  <time>2026-09-01T20:03:30Z</time>
  <course>340.92</course>
  <speed>35.26115284558915</speed>
  <fix>3d</fix>
</trkpt>
<trkpt lat="-27.2745491" lon="151.2892383">
  <ele>376.31</ele>
  <time>2026-09-01T20:03:30Z</time>
  <course>345.12</course>
  <speed>35.26</speed>
  <fix>3d</fix>
</trkpt>
<trkpt lat="-27.2744818" lon="151.2892182">
  <ele>376.73</ele>
  <time>2026-09-01T20:03:30Z</time>
  <course>344.67</course>
  <speed>35.26115284558915</speed>
  <fix>3d</fix>
</trkpt>
<trkpt lat="-27.2745491" lon="151.2892383">
  <ele>376.31</ele>
  <time>2026-09-01T20:03:30Z</time>
  <course>345.12</course>
  <speed>35.26</speed>
  <fix>3d</fix>
</trkpt>
<trkpt lat="-27.2744491" lon="151.2892165">
  <ele>377.1</ele>
  <time>2026-09-01T20:03:30Z</time>
  <course>348.44</course>
  <speed>35.54812090673711</speed>
  <fix>3d</fix>
</trkpt>
<trkpt lat="-27.2744869" lon="151.2892234">
  <ele>376.75</ele>
  <time>2026-09-01T20:03:30Z</time>
  <course>350.67</course>
  <speed>35.55</speed>
  <fix>3d</fix>
</trkpt>
<trkpt lat="-27.2744176" lon="151.2892106">
  <ele>377.25</ele>
  <time>2026-09-01T20:03:30Z</time>
  <course>352.22</course>
  <speed>35.54812090673711</speed>
  <fix>3d</fix>
</trkpt>
<trkpt lat="-27.2744869" lon="151.2892234">
  <ele>376.75</ele>
  <time>2026-09-01T20:03:30Z</time>
  <course>350.67</course>
  <speed>35.55</speed>
  <fix>3d</fix>
</trkpt>
<trkpt lat="-27.274385" lon="151.2892123">
  <ele>377.22</ele>
  <time>2026-09-01T20:03:30Z</time>
  <course>355.92</course>
  <speed>35.68148119122859</speed>
  <fix>3d</fix>
</trkpt>
<trkpt lat="-27.2744233" lon="151.2892152">
  <ele>377.22</ele>
  <time>2026-09-01T20:03:30Z</time>
  <course>356.12</course>
  <speed>35.68</speed>
  <fix>3d</fix>
</trkpt>
<trkpt lat="-27.274353" lon="151.2892099">
  <ele>377.72</ele>
  <time>2026-09-01T20:03:30Z</time>
  <course>359.48</course>
  <speed>35.68148119122859</speed>
  <fix>3d</fix>
</trkpt>
<trkpt lat="-27.2744233" lon="151.2892152">
  <ele>377.22</ele>
  <time>2026-09-01T20:03:30Z</time>
  <course>356.12</course>
  <speed>35.68</speed>
  <fix>3d</fix>
</trkpt>
<trkpt lat="-27.2743209" lon="151.2892145">
  <ele>377.72</ele>
  <time>2026-09-01T20:03:30Z</time>
  <course>2.98</course>
  <speed>35.66013180009295</speed>
  <fix>3d</fix>
</trkpt>
<trkpt lat="-27.2743593" lon="151.2892135">
  <ele>377.7</ele>
  <time>2026-09-01T20:03:30Z</time>
  <course>1.36</course>
  <speed>35.66</speed>
  <fix>3d</fix>
</trkpt>
<trkpt lat="-27.2742889" lon="151.2892153">
  <ele>377.97</ele>
  <time>2026-09-01T20:03:30Z</time>
  <course>6.45</course>
  <speed>35.66013180009295</speed>
  <fix>3d</fix>
</trkpt>
<trkpt lat="-27.2743593" lon="151.2892135">
  <ele>377.7</ele>
  <time>2026-09-01T20:03:30Z</time>
  <course>1.36</course>
  <speed>35.66</speed>
  <fix>3d</fix>
</trkpt>
<trkpt lat="-27.2742574" lon="151.2892231">
  <ele>378.24</ele>
  <time>2026-09-01T20:03:30Z</time>
  <course>9.8</course>
  <speed>35.51920044145138</speed>
  <fix>3d</fix>
</trkpt>
<trkpt lat="-27.2742954" lon="151.2892184">
  <ele>378.19</ele>
  <time>2026-09-01T20:03:30Z</time>
  <course>6.37</course>
  <speed>35.52</speed>
  <fix>3d</fix>
</trkpt>
<trkpt lat="-27.2742257" lon="151.2892271">
  <ele>378.53</ele>
  <time>2026-09-01T20:03:30Z</time>
  <course>13.21</course>
  <speed>35.51920044145138</speed>
  <fix>3d</fix>
</trkpt>
<trkpt lat="-27.2742954" lon="151.2892184">
  <ele>378.19</ele>
  <time>2026-09-01T20:03:30Z</time>
  <course>6.37</course>
  <speed>35.52</speed>
  <fix>3d</fix>
</trkpt>
<trkpt lat="-27.2741951" lon="151.2892377">
  <ele>378.89</ele>
  <time>2026-09-01T20:03:30Z</time>
  <course>16.54</course>
  <speed>35.28525187666938</speed>
  <fix>3d</fix>
</trkpt>
<trkpt lat="-27.2742324" lon="151.2892294">
  <ele>378.66</ele>
  <time>2026-09-01T20:03:30Z</time>
  <course>11.23</course>
  <speed>35.29</speed>
  <fix>3d</fix>
</trkpt>
<trkpt lat="-27.274164" lon="151.2892446">
  <ele>378.99</ele>
  <time>2026-09-01T20:03:30Z</time>
  <course>19.8</course>
  <speed>35.28525187666938</speed>
  <fix>3d</fix>
</trkpt>
<trkpt lat="-27.2742324" lon="151.2892294">
  <ele>378.66</ele>
  <time>2026-09-01T20:03:30Z</time>
  <course>11.23</course>
  <speed>35.29</speed>
  <fix>3d</fix>
</trkpt>
<trkpt lat="-27.274135" lon="151.2892577">
  <ele>379.41</ele>
  <time>2026-09-01T20:03:30Z</time>
  <course>23.11</course>
  <speed>34.96375837921318</speed>
  <fix>3d</fix>
</trkpt>
<trkpt lat="-27.2741712" lon="151.2892461">
  <ele>379.11</ele>
  <time>2026-09-01T20:03:30Z</time>
  <course>15.94</course>
  <speed>34.96</speed>
  <fix>3d</fix>
</trkpt>
<trkpt lat="-27.2741048" lon="151.2892674">
  <ele>379.5</ele>
  <time>2026-09-01T20:03:30Z</time>
  <course>26.32</course>
  <speed>34.96375837921318</speed>
  <fix>3d</fix>
</trkpt>
<trkpt lat="-27.2741712" lon="151.2892461">
  <ele>379.11</ele>
  <time>2026-09-01T20:03:30Z</time>
  <course>15.94</course>
  <speed>34.96</speed>
  <fix>3d</fix>
</trkpt>
<trkpt lat="-27.2740771" lon="151.2892828">
  <ele>379.78</ele>
  <time>2026-09-01T20:03:31Z</time>
  <course>29.48</course>
  <speed>34.536502428589955</speed>
  <fix>3d</fix>
</trkpt>
<trkpt lat="-27.2741119" lon="151.2892681">
  <ele>379.51</ele>
  <time>2026-09-01T20:03:31Z</time>
  <course>20.54</course>
  <speed>34.54</speed>
  <fix>3d</fix>
</trkpt>
<trkpt lat="-27.274048" lon="151.289295">
  <ele>379.85</ele>
  <time>2026-09-01T20:03:31Z</time>
  <course>32.62</course>
  <speed>34.536502428589955</speed>
  <fix>3d</fix>
</trkpt>
<trkpt lat="-27.2741119" lon="151.2892681">
  <ele>379.51</ele>
  <time>2026-09-01T20:03:31Z</time>
  <course>20.54</course>
  <speed>34.54</speed>
  <fix>3d</fix>
</trkpt>
<trkpt lat="-27.2740219" lon="151.2893123">
  <ele>379.8</ele>
  <time>2026-09-01T20:03:31Z</time>
  <course>35.82</course>
  <speed>34.03564748906652</speed>
  <fix>3d</fix>
</trkpt>
<trkpt lat="-27.2740551" lon="151.2892949">
  <ele>379.86</ele>
  <time>2026-09-01T20:03:31Z</time>
  <course>25.06</course>
  <speed>34.03</speed>
  <fix>3d</fix>
</trkpt>
<trkpt lat="-27.2739942" lon="151.2893269">
  <ele>379.94</ele>
  <time>2026-09-01T20:03:31Z</time>
  <course>38.94</course>
  <speed>34.03564748906652</speed>
  <fix>3d</fix>
</trkpt>
<trkpt lat="-27.2740551" lon="151.2892949">
  <ele>379.86</ele>
  <time>2026-09-01T20:03:31Z</time>
  <course>25.06</course>
  <speed>34.03</speed>
  <fix>3d</fix>
</trkpt>
<trkpt lat="-27.2739699" lon="151.2893462">
  <ele>380.33</ele>
  <time>2026-09-01T20:03:31Z</time>
  <course>42.0</course>
  <speed>33.451195793274714</speed>
  <fix>3d</fix>
</trkpt>
<trkpt lat="-27.2740012" lon="151.2893263">
  <ele>380.15</ele>
  <time>2026-09-01T20:03:31Z</time>
  <course>29.51</course>
  <speed>33.45</speed>
  <fix>3d</fix>
</trkpt>
<trkpt lat="-27.2739437" lon="151.2893629">
  <ele>380.3</ele>
  <time>2026-09-01T20:03:31Z</time>
  <course>45.05</course>
  <speed>33.451195793274714</speed>
  <fix>3d</fix>
</trkpt>
<trkpt lat="-27.2740012" lon="151.2893263">
  <ele>380.15</ele>
  <time>2026-09-01T20:03:31Z</time>
  <course>29.51</course>
  <speed>33.45</speed>
  <fix>3d</fix>
</trkpt>
<trkpt lat="-27.2739213" lon="151.2893836">
  <ele>380.46</ele>
  <time>2026-09-01T20:03:31Z</time>
  <course>48.1</course>
  <speed>32.81083357673194</speed>
  <fix>3d</fix>
</trkpt>
<trkpt lat="-27.2739506" lon="151.2893614">
  <ele>380.37</ele>
  <time>2026-09-01T20:03:31Z</time>
  <course>33.94</course>
  <speed>32.82</speed>
  <fix>3d</fix>
</trkpt>
<trkpt lat="-27.2738971" lon="151.2894019">
  <ele>380.43</ele>
  <time>2026-09-01T20:03:31Z</time>
  <course>51.12</course>
  <speed>32.81083357673194</speed>
  <fix>3d</fix>
</trkpt>
<trkpt lat="-27.2739506" lon="151.2893614">
  <ele>380.37</ele>
  <time>2026-09-01T20:03:31Z</time>
  <course>33.94</course>
  <speed>32.82</speed>
  <fix>3d</fix>
</trkpt>
<trkpt lat="-27.2738765" lon="151.2894243">
  <ele>380.62</ele>
  <time>2026-09-01T20:03:31Z</time>
  <course>54.11</course>
  <speed>32.119090896225565</speed>
  <fix>3d</fix>
</trkpt>
<trkpt lat="-27.2739036" lon="151.2894002">
  <ele>380.52</ele>
  <time>2026-09-01T20:03:31Z</time>
  <course>38.37</course>
  <speed>32.13</speed>
  <fix>3d</fix>
</trkpt>
<trkpt lat="-27.2738539" lon="151.2894445">
  <ele>380.52</ele>
  <time>2026-09-01T20:03:31Z</time>
  <course>57.15</course>
  <speed>32.119090896225565</speed>
  <fix>3d</fix>
</trkpt>
<trkpt lat="-27.2739036" lon="151.2894002">
  <ele>380.52</ele>
  <time>2026-09-01T20:03:31Z</time>
  <course>38.37</course>
  <speed>32.13</speed>
  <fix>3d</fix>
</trkpt>
<trkpt lat="-27.2738355" lon="151.2894678">
  <ele>380.45</ele>
  <time>2026-09-01T20:03:31Z</time>
  <course>60.29</course>
  <speed>31.3824106785951</speed>
  <fix>3d</fix>
</trkpt>
<trkpt lat="-27.2738603" lon="151.289442">
  <ele>380.59</ele>
  <time>2026-09-01T20:03:31Z</time>
  <course>42.84</course>
  <speed>31.38</speed>
  <fix>3d</fix>
</trkpt>
<trkpt lat="-27.2738149" lon="151.2894894">
  <ele>380.67</ele>
  <time>2026-09-01T20:03:31Z</time>
  <course>63.4</course>
  <speed>31.3824106785951</speed>
  <fix>3d</fix>
</trkpt>
<trkpt lat="-27.2738603" lon="151.289442">
  <ele>380.59</ele>
  <time>2026-09-01T20:03:31Z</time>
  <course>42.84</course>
  <speed>31.38</speed>
  <fix>3d</fix>
</trkpt>
<trkpt lat="-27.2737988" lon="151.2895136">
  <ele>380.45</ele>
  <time>2026-09-01T20:03:31Z</time>
  <course>66.49</course>
  <speed>30.567945629368026</speed>
  <fix>3d</fix>
</trkpt>
<trkpt lat="-27.273821" lon="151.2894863">
  <ele>380.6</ele>
  <time>2026-09-01T20:03:31Z</time>
  <course>47.44</course>
  <speed>30.57</speed>
  <fix>3d</fix>
</trkpt>
<trkpt lat="-27.2737802" lon="151.2895363">
  <ele>380.36</ele>
  <time>2026-09-01T20:03:31Z</time>
  <course>69.66</course>
  <speed>30.567945629368026</speed>
  <fix>3d</fix>
</trkpt>
<trkpt lat="-27.273821" lon="151.2894863">
  <ele>380.6</ele>
  <time>2026-09-01T20:03:31Z</time>
  <course>47.44</course>
  <speed>30.57</speed>
  <fix>3d</fix>
</trkpt>
<trkpt lat="-27.2737665" lon="151.2895612">
  <ele>380.44</ele>
  <time>2026-09-01T20:03:31Z</time>
  <course>72.83</course>
  <speed>29.68759505247941</speed>
  <fix>3d</fix>
</trkpt>
<trkpt lat="-27.2737861" lon="151.2895328">
  <ele>380.53</ele>
  <time>2026-09-01T20:03:31Z</time>
  <course>52.23</course>
  <speed>29.69</speed>
  <fix>3d</fix>
</trkpt>
<trkpt lat="-27.2737502" lon="151.2895849">
  <ele>380.27</ele>
  <time>2026-09-01T20:03:31Z</time>
  <course>75.93</course>
  <speed>29.68759505247941</speed>
  <fix>3d</fix>
</trkpt>
<trkpt lat="-27.2737861" lon="151.2895328">
  <ele>380.53</ele>
  <time>2026-09-01T20:03:31Z</time>
  <course>52.23</course>
  <speed>29.69</speed>
  <fix>3d</fix>
</trkpt>
<trkpt lat="-27.2737389" lon="151.2896103">
  <ele>380.42</ele>
  <time>2026-09-01T20:03:31Z</time>
  <course>79.03</course>
  <speed>28.73950069155691</speed>
  <fix>3d</fix>
</trkpt>
<trkpt lat="-27.2737557" lon="151.2895811">
  <ele>380.4</ele>
  <time>2026-09-01T20:03:31Z</time>
  <course>57.16</course>
  <speed>28.75</speed>
  <fix>3d</fix>
</trkpt>
<trkpt lat="-27.2737249" lon="151.2896348">
  <ele>380.06</ele>
  <time>2026-09-01T20:03:31Z</time>
  <course>82.09</course>
  <speed>28.73950069155691</speed>
  <fix>3d</fix>
</trkpt>
<trkpt lat="-27.2737557" lon="151.2895811">
  <ele>380.4</ele>
  <time>2026-09-01T20:03:31Z</time>
  <course>57.16</course>
  <speed>28.75</speed>
  <fix>3d</fix>
</trkpt>
<trkpt lat="-27.2737161" lon="151.2896601">
  <ele>379.93</ele>
  <time>2026-09-01T20:03:31Z</time>
  <course>85.12</course>
  <speed>27.742660290606594</speed>
  <fix>3d</fix>
</trkpt>
<trkpt lat="-27.27373" lon="151.2896304">
  <ele>380.21</ele>
  <time>2026-09-01T20:03:31Z</time>
  <course>62.19</course>
  <speed>27.75</speed>
  <fix>3d</fix>
</trkpt>
<trkpt lat="-27.2737045" lon="151.2896849">
  <ele>379.86</ele>
  <time>2026-09-01T20:03:31Z</time>
  <course>88.12</course>
  <speed>27.742660290606594</speed>
  <fix>3d</fix>
</trkpt>
<trkpt lat="-27.27373" lon="151.2896304">
  <ele>380.21</ele>
  <time>2026-09-01T20:03:31Z</time>
  <course>62.19</course>
  <speed>27.75</speed>
  <fix>3d</fix>
</trkpt>
<trkpt lat="-27.273698" lon="151.28971">
  <ele>379.75</ele>
  <time>2026-09-01T20:03:31Z</time>
  <course>90.99</course>
  <speed>26.717756268070115</speed>
  <fix>3d</fix>
</trkpt>
<trkpt lat="-27.2737091" lon="151.2896802">
  <ele>379.97</ele>
  <time>2026-09-01T20:03:31Z</time>
  <course>67.24</course>
  <speed>26.72</speed>
  <fix>3d</fix>
</trkpt>
<trkpt lat="-27.2736887" lon="151.2897349">
  <ele>379.53</ele>
  <time>2026-09-01T20:03:31Z</time>
  <course>93.79</course>
  <speed>26.717756268070115</speed>
  <fix>3d</fix>
</trkpt>
<trkpt lat="-27.2737091" lon="151.2896802">
  <ele>379.97</ele>
  <time>2026-09-01T20:03:31Z</time>
  <course>67.24</course>
  <speed>26.72</speed>
  <fix>3d</fix>
</trkpt>
<trkpt lat="-27.2736845" lon="151.2897595">
  <ele>379.44</ele>
  <time>2026-09-01T20:03:31Z</time>
  <course>96.47</course>
  <speed>25.682688722172376</speed>
  <fix>3d</fix>
</trkpt>
<trkpt lat="-27.2736929" lon="151.2897299">
  <ele>379.67</ele>
  <time>2026-09-01T20:03:31Z</time>
  <course>72.25</course>
  <speed>25.68</speed>
  <fix>3d</fix>
</trkpt>
<trkpt lat="-27.2736775" lon="151.2897843">
  <ele>379.19</ele>
  <time>2026-09-01T20:03:31Z</time>
  <course>99.1</course>
  <speed>25.682688722172376</speed>
  <fix>3d</fix>
</trkpt>
<trkpt lat="-27.2736929" lon="151.2897299">
  <ele>379.67</ele>
  <time>2026-09-01T20:03:31Z</time>
  <course>72.25</course>
  <speed>25.68</speed>
  <fix>3d</fix>
</trkpt>
<trkpt lat="-27.273675" lon="151.289808">
  <ele>379.19</ele>
  <time>2026-09-01T20:03:31Z</time>
  <course>101.61</course>
  <speed>24.66865622606955</speed>
  <fix>3d</fix>
</trkpt>
<trkpt lat="-27.2736809" lon="151.2897789">
  <ele>379.32</ele>
  <time>2026-09-01T20:03:31Z</time>
  <course>77.13</course>
  <speed>24.67</speed>
  <fix>3d</fix>
</trkpt>
<trkpt lat="-27.2736701" lon="151.2898323">
  <ele>379.01</ele>
  <time>2026-09-01T20:03:31Z</time>
  <course>104.06</course>
  <speed>24.66865622606955</speed>
  <fix>3d</fix>
</trkpt>
<trkpt lat="-27.2736809" lon="151.2897789">
  <ele>379.32</ele>
  <time>2026-09-01T20:03:31Z</time>
  <course>77.13</course>
  <speed>24.67</speed>
  <fix>3d</fix>
</trkpt>
<trkpt lat="-27.2736694" lon="151.2898554">
  <ele>378.65</ele>
  <time>2026-09-01T20:03:31Z</time>
  <course>106.44</course>
  <speed>23.696565151937108</speed>
  <fix>3d</fix>
</trkpt>
<trkpt lat="-27.273673" lon="151.289827">
  <ele>378.91</ele>
  <time>2026-09-01T20:03:31Z</time>
  <course>81.87</course>
  <speed>23.69</speed>
  <fix>3d</fix>
</trkpt>
<trkpt lat="-27.2736664" lon="151.2898791">
  <ele>378.32</ele>
  <time>2026-09-01T20:03:31Z</time>
  <course>108.72</course>
  <speed>23.696565151937108</speed>
  <fix>3d</fix>
</trkpt>
<trkpt lat="-27.273673" lon="151.289827">
  <ele>378.91</ele>
  <time>2026-09-01T20:03:31Z</time>
  <course>81.87</course>
  <speed>23.69</speed>
  <fix>3d</fix>
</trkpt>
<trkpt lat="-27.2736673" lon="151.2899011">
  <ele>378.08</ele>
  <time>2026-09-01T20:03:31Z</time>
  <course>110.93</course>
  <speed>22.762480093346593</speed>
  <fix>3d</fix>
</trkpt>
<trkpt lat="-27.2736688" lon="151.2898736">
  <ele>378.45</ele>
  <time>2026-09-01T20:03:31Z</time>
  <course>86.47</course>
  <speed>22.76</speed>
  <fix>3d</fix>
</trkpt>
<trkpt lat="-27.2736661" lon="151.2899241">
  <ele>377.79</ele>
  <time>2026-09-01T20:03:31Z</time>
  <course>113.06</course>
  <speed>22.762480093346593</speed>
  <fix>3d</fix>
</trkpt>
<trkpt lat="-27.2736688" lon="151.2898736">
  <ele>378.45</ele>
  <time>2026-09-01T20:03:31Z</time>
  <course>86.47</course>
  <speed>22.76</speed>
  <fix>3d</fix>
</trkpt>
<trkpt lat="-27.2736682" lon="151.2899452">
  <ele>377.71</ele>
  <time>2026-09-01T20:03:31Z</time>
  <course>115.14</course>
  <speed>21.892960055689137</speed>
  <fix>3d</fix>
</trkpt>
<trkpt lat="-27.2736679" lon="151.2899187">
  <ele>377.92</ele>
  <time>2026-09-01T20:03:31Z</time>
  <course>90.95</course>
  <speed>21.89</speed>
  <fix>3d</fix>
</trkpt>
<trkpt lat="-27.2736686" lon="151.2899673">
  <ele>377.49</ele>
  <time>2026-09-01T20:03:31Z</time>
  <course>117.12</course>
  <speed>21.892960055689137</speed>
  <fix>3d</fix>
</trkpt>
<trkpt lat="-27.2736679" lon="151.2899187">
  <ele>377.92</ele>
  <time>2026-09-01T20:03:31Z</time>
  <course>90.95</course>
  <speed>21.89</speed>
  <fix>3d</fix>
</trkpt>
<trkpt lat="-27.273672" lon="151.2899875">
  <ele>377.16</ele>
  <time>2026-09-01T20:03:31Z</time>
  <course>119.04</course>
  <speed>21.090341391262495</speed>
  <fix>3d</fix>
</trkpt>
<trkpt lat="-27.2736699" lon="151.2899621">
  <ele>377.34</ele>
  <time>2026-09-01T20:03:31Z</time>
  <course>95.32</course>
  <speed>21.09</speed>
  <fix>3d</fix>
</trkpt>
<trkpt lat="-27.2736737" lon="151.2900087">
  <ele>376.63</ele>
  <time>2026-09-01T20:03:31Z</time>
  <course>120.87</course>
  <speed>21.090341391262495</speed>
  <fix>3d</fix>
</trkpt>
<trkpt lat="-27.2736699" lon="151.2899621">
  <ele>377.34</ele>
  <time>2026-09-01T20:03:31Z</time>
  <course>95.32</course>
  <speed>21.09</speed>
  <fix>3d</fix>
</trkpt>
<trkpt lat="-27.2736783" lon="151.2900278">
  <ele>376.57</ele>
  <time>2026-09-01T20:03:31Z</time>
  <course>122.65</course>
  <speed>20.35917483593085</speed>
  <fix>3d</fix>
</trkpt>
<trkpt lat="-27.2736747" lon="151.2900035">
  <ele>376.71</ele>
  <time>2026-09-01T20:03:31Z</time>
  <course>99.51</course>
  <speed>20.36</speed>
  <fix>3d</fix>
</trkpt>
<trkpt lat="-27.2736813" lon="151.2900481">
  <ele>376.03</ele>
  <time>2026-09-01T20:03:31Z</time>
  <course>124.36</course>
  <speed>20.35917483593085</speed>
  <fix>3d</fix>
</trkpt>
<trkpt lat="-27.2736747" lon="151.2900035">
  <ele>376.71</ele>
  <time>2026-09-01T20:03:31Z</time>
  <course>99.51</course>
  <speed>20.36</speed>
  <fix>3d</fix>
</trkpt>
<trkpt lat="-27.2736869" lon="151.2900665">
  <ele>375.62</ele>
  <time>2026-09-01T20:03:31Z</time>
  <course>126.0</course>
  <speed>19.70679324497012</speed>
  <fix>3d</fix>
</trkpt>
<trkpt lat="-27.273682" lon="151.2900433">
  <ele>376.03</ele>
  <time>2026-09-01T20:03:31Z</time>
  <course>103.55</course>
  <speed>19.71</speed>
  <fix>3d</fix>
</trkpt>
<trkpt lat="-27.2736911" lon="151.2900859">
  <ele>375.52</ele>
  <time>2026-09-01T20:03:31Z</time>
  <course>127.6</course>
  <speed>19.70679324497012</speed>
  <fix>3d</fix>
</trkpt>
<trkpt lat="-27.273682" lon="151.2900433">
  <ele>376.03</ele>
  <time>2026-09-01T20:03:31Z</time>
  <course>103.55</course>
  <speed>19.71</speed>
  <fix>3d</fix>
</trkpt>
<trkpt lat="-27.2736975" lon="151.2901033">
  <ele>375.06</ele>
  <time>2026-09-01T20:03:31Z</time>
  <course>129.21</course>
  <speed>19.156474101462408</speed>
  <fix>3d</fix>
</trkpt>
<trkpt lat="-27.2736913" lon="151.2900812">
  <ele>375.31</ele>
  <time>2026-09-01T20:03:31Z</time>
  <course>107.5</course>
  <speed>19.16</speed>
  <fix>3d</fix>
</trkpt>
<trkpt lat="-27.2737026" lon="151.2901218">
  <ele>374.76</ele>
  <time>2026-09-01T20:03:31Z</time>
  <course>130.72</course>
  <speed>19.156474101462408</speed>
  <fix>3d</fix>
</trkpt>
<trkpt lat="-27.2736913" lon="151.2900812">
  <ele>375.31</ele>
  <time>2026-09-01T20:03:31Z</time>
  <course>107.5</course>
  <speed>19.16</speed>
  <fix>3d</fix>
</trkpt>
<trkpt lat="-27.2737099" lon="151.2901383">
  <ele>374.28</ele>
  <time>2026-09-01T20:03:31Z</time>
  <course>132.26</course>
  <speed>18.68518397019414</speed>
  <fix>3d</fix>
</trkpt>
<trkpt lat="-27.2737026" lon="151.2901172">
  <ele>374.55</ele>
  <time>2026-09-01T20:03:31Z</time>
  <course>111.39</course>
  <speed>18.69</speed>
  <fix>3d</fix>
</trkpt>
<trkpt lat="-27.273716" lon="151.2901558">
  <ele>373.7</ele>
  <time>2026-09-01T20:03:31Z</time>
  <course>133.73</course>
  <speed>18.68518397019414</speed>
  <fix>3d</fix>
</trkpt>
<trkpt lat="-27.2737026" lon="151.2901172">
  <ele>374.55</ele>
  <time>2026-09-01T20:03:31Z</time>
  <course>111.39</course>
  <speed>18.69</speed>
  <fix>3d</fix>
</trkpt>
<trkpt lat="-27.2737242" lon="151.2901715">
  <ele>373.39</ele>
  <time>2026-09-01T20:03:31Z</time>
  <course>135.19</course>
  <speed>18.2911918693124</speed>
  <fix>3d</fix>
</trkpt>
<trkpt lat="-27.2737158" lon="151.2901515">
  <ele>373.77</ele>
  <time>2026-09-01T20:03:31Z</time>
  <course>115.27</course>
  <speed>18.29</speed>
  <fix>3d</fix>
</trkpt>
<trkpt lat="-27.2737312" lon="151.2901882">
  <ele>372.99</ele>
  <time>2026-09-01T20:03:31Z</time>
  <course>136.6</course>
  <speed>18.2911918693124</speed>
  <fix>3d</fix>
</trkpt>
<trkpt lat="-27.2737158" lon="151.2901515">
  <ele>373.77</ele>
  <time>2026-09-01T20:03:31Z</time>
  <course>115.27</course>
  <speed>18.29</speed>
  <fix>3d</fix>
</trkpt>
<trkpt lat="-27.2737401" lon="151.2902031">
  <ele>372.75</ele>
  <time>2026-09-01T20:03:31Z</time>
  <course>137.99</course>
  <speed>17.991133927576662</speed>
  <fix>3d</fix>
</trkpt>
<trkpt lat="-27.2737307" lon="151.2901841">
  <ele>372.99</ele>
  <time>2026-09-01T20:03:31Z</time>
  <course>119.11</course>
  <speed>17.99</speed>
  <fix>3d</fix>
</trkpt>
<trkpt lat="-27.273748" lon="151.290219">
  <ele>372.38</ele>
  <time>2026-09-01T20:03:31Z</time>
  <course>139.29</course>
  <speed>17.991133927576662</speed>
  <fix>3d</fix>
</trkpt>
<trkpt lat="-27.2737307" lon="151.2901841">
  <ele>372.99</ele>
  <time>2026-09-01T20:03:31Z</time>
  <course>119.11</course>
  <speed>17.99</speed>
  <fix>3d</fix>
</trkpt>
<trkpt lat="-27.2737576" lon="151.2902332">
  <ele>371.99</ele>
  <time>2026-09-01T20:03:31Z</time>
  <course>140.55</course>
  <speed>17.785558748602753</speed>
  <fix>3d</fix>
</trkpt>
<trkpt lat="-27.2737472" lon="151.2902151">
  <ele>372.22</ele>
  <time>2026-09-01T20:03:31Z</time>
  <course>122.85</course>
  <speed>17.79</speed>
  <fix>3d</fix>
</trkpt>
<trkpt lat="-27.2737662" lon="151.2902483">
  <ele>371.41</ele>
  <time>2026-09-01T20:03:31Z</time>
  <course>141.83</course>
  <speed>17.785558748602753</speed>
  <fix>3d</fix>
</trkpt>
<trkpt lat="-27.2737472" lon="151.2902151">
  <ele>372.22</ele>
  <time>2026-09-01T20:03:31Z</time>
  <course>122.85</course>
  <speed>17.79</speed>
  <fix>3d</fix>
</trkpt>
<trkpt lat="-27.2737766" lon="151.2902617">
  <ele>371.28</ele>
  <time>2026-09-01T20:03:31Z</time>
  <course>143.03</course>
  <speed>17.648524017605553</speed>
  <fix>3d</fix>
</trkpt>
<trkpt lat="-27.2737653" lon="151.2902445">
  <ele>371.49</ele>
  <time>2026-09-01T20:03:31Z</time>
  <course>126.44</course>
  <speed>17.65</speed>
  <fix>3d</fix>
</trkpt>
<trkpt lat="-27.273786" lon="151.290276">
  <ele>370.84</ele>
  <time>2026-09-01T20:03:31Z</time>
  <course>144.22</course>
  <speed>17.648524017605553</speed>
  <fix>3d</fix>
</trkpt>
<trkpt lat="-27.2737653" lon="151.2902445">
  <ele>371.49</ele>
  <time>2026-09-01T20:03:31Z</time>
  <course>126.44</course>
  <speed>17.65</speed>
  <fix>3d</fix>
</trkpt>
<trkpt lat="-27.2737969" lon="151.2902888">
  <ele>370.53</ele>
  <time>2026-09-01T20:03:31Z</time>
  <course>145.33</course>
  <speed>17.571787046285305</speed>
  <fix>3d</fix>
</trkpt>
<trkpt lat="-27.2737848" lon="151.2902725">
  <ele>370.81</ele>
  <time>2026-09-01T20:03:31Z</time>
  <course>129.85</course>
  <speed>17.57</speed>
  <fix>3d</fix>
</trkpt>
<trkpt lat="-27.273807" lon="151.2903025">
  <ele>370.24</ele>
  <time>2026-09-01T20:03:31Z</time>
  <course>146.38</course>
  <speed>17.571787046285305</speed>
  <fix>3d</fix>
</trkpt>
<trkpt lat="-27.2737848" lon="151.2902725">
  <ele>370.81</ele>
  <time>2026-09-01T20:03:31Z</time>
  <course>129.85</course>
  <speed>17.57</speed>
  <fix>3d</fix>
</trkpt>
<trkpt lat="-27.2738186" lon="151.2903146">
  <ele>369.77</ele>
  <time>2026-09-01T20:03:31Z</time>
  <course>147.33</course>
  <speed>17.56141793819622</speed>
  <fix>3d</fix>
</trkpt>
<trkpt lat="-27.2738057" lon="151.2902991">
  <ele>370.2</ele>
  <time>2026-09-01T20:03:31Z</time>
  <course>132.98</course>
  <speed>17.56</speed>
  <fix>3d</fix>
</trkpt>
<trkpt lat="-27.2738293" lon="151.2903276">
  <ele>369.52</ele>
  <time>2026-09-01T20:03:31Z</time>
  <course>148.23</course>
  <speed>17.56141793819622</speed>
  <fix>3d</fix>
</trkpt>
<trkpt lat="-27.2738057" lon="151.2902991">
  <ele>370.2</ele>
  <time>2026-09-01T20:03:31Z</time>
  <course>132.98</course>
  <speed>17.56</speed>
  <fix>3d</fix>
</trkpt>
<trkpt lat="-27.2738413" lon="151.2903393">
  <ele>369.39</ele>
  <time>2026-09-01T20:03:31Z</time>
  <course>149.08</course>
  <speed>17.59445935514928</speed>
  <fix>3d</fix>
</trkpt>
<trkpt lat="-27.2738278" lon="151.2903245">
  <ele>369.66</ele>
  <time>2026-09-01T20:03:31Z</time>
  <course>135.77</course>
  <speed>17.59</speed>
  <fix>3d</fix>
</trkpt>
<trkpt lat="-27.2738527" lon="151.2903517">
  <ele>369.12</ele>
  <time>2026-09-01T20:03:31Z</time>
  <course>149.81</course>
  <speed>17.59445935514928</speed>
  <fix>3d</fix>
</trkpt>
<trkpt lat="-27.2738278" lon="151.2903245">
  <ele>369.66</ele>
  <time>2026-09-01T20:03:31Z</time>
  <course>135.77</course>
  <speed>17.59</speed>
  <fix>3d</fix>
</trkpt>
<trkpt lat="-27.2738651" lon="151.290363">
  <ele>368.95</ele>
  <time>2026-09-01T20:03:31Z</time>
  <course>150.54</course>
  <speed>17.655551534857246</speed>
  <fix>3d</fix>
</trkpt>
<trkpt lat="-27.273851" lon="151.2903488">
  <ele>369.2</ele>
  <time>2026-09-01T20:03:31Z</time>
  <course>138.19</course>
  <speed>17.66</speed>
  <fix>3d</fix>
</trkpt>
<trkpt lat="-27.273877" lon="151.2903749">
  <ele>368.83</ele>
  <time>2026-09-01T20:03:31Z</time>
  <course>151.26</course>
  <speed>17.655551534857246</speed>
  <fix>3d</fix>
</trkpt>
<trkpt lat="-27.273851" lon="151.2903488">
  <ele>369.2</ele>
  <time>2026-09-01T20:03:31Z</time>
  <course>138.19</course>
  <speed>17.66</speed>
  <fix>3d</fix>
</trkpt>
<trkpt lat="-27.2738898" lon="151.2903858">
  <ele>368.53</ele>
  <time>2026-09-01T20:03:31Z</time>
  <course>151.84</course>
  <speed>17.73824117549426</speed>
  <fix>3d</fix>
</trkpt>
<trkpt lat="-27.2738751" lon="151.2903721">
  <ele>368.82</ele>
  <time>2026-09-01T20:03:31Z</time>
  <course>140.25</course>
  <speed>17.75</speed>
  <fix>3d</fix>
</trkpt>
<trkpt lat="-27.273902" lon="151.2903973">
  <ele>368.39</ele>
  <time>2026-09-01T20:03:31Z</time>
  <course>152.39</course>
  <speed>17.73824117549426</speed>
  <fix>3d</fix>
</trkpt>
<trkpt lat="-27.2738751" lon="151.2903721">
  <ele>368.82</ele>
  <time>2026-09-01T20:03:31Z</time>
  <course>140.25</course>
  <speed>17.75</speed>
  <fix>3d</fix>
</trkpt>
<trkpt lat="-27.2739152" lon="151.2904081">
  <ele>368.51</ele>
  <time>2026-09-01T20:03:31Z</time>
  <course>152.91</course>
  <speed>17.831514237439286</speed>
  <fix>3d</fix>
</trkpt>
<trkpt lat="-27.2739001" lon="151.2903948">
  <ele>368.52</ele>
  <time>2026-09-01T20:03:31Z</time>
  <course>141.99</course>
  <speed>17.84</speed>
  <fix>3d</fix>
</trkpt>
<trkpt lat="-27.2739278" lon="151.2904192">
  <ele>368.44</ele>
  <time>2026-09-01T20:03:31Z</time>
  <course>153.39</course>
  <speed>17.831514237439286</speed>
  <fix>3d</fix>
</trkpt>
<trkpt lat="-27.2739001" lon="151.2903948">
  <ele>368.52</ele>
  <time>2026-09-01T20:03:31Z</time>
  <course>141.99</course>
  <speed>17.84</speed>
  <fix>3d</fix>
</trkpt>
<trkpt lat="-27.2739411" lon="151.2904295">
  <ele>368.14</ele>
  <time>2026-09-01T20:03:31Z</time>
  <course>153.8</course>
  <speed>17.92825702627001</speed>
  <fix>3d</fix>
</trkpt>
<trkpt lat="-27.2739256" lon="151.2904166">
  <ele>368.3</ele>
  <time>2026-09-01T20:03:31Z</time>
  <course>143.43</course>
  <speed>17.93</speed>
  <fix>3d</fix>
</trkpt>
<trkpt lat="-27.273954" lon="151.2904403">
  <ele>368.21</ele>
  <time>2026-09-01T20:03:31Z</time>
  <course>154.18</course>
  <speed>17.92825702627001</speed>
  <fix>3d</fix>
</trkpt>
<trkpt lat="-27.2739256" lon="151.2904166">
  <ele>368.3</ele>
  <time>2026-09-01T20:03:31Z</time>
  <course>143.43</course>
  <speed>17.93</speed>
  <fix>3d</fix>
</trkpt>
<trkpt lat="-27.2739676" lon="151.2904505">
  <ele>367.91</ele>
  <time>2026-09-01T20:03:31Z</time>
  <course>154.57</course>
  <speed>18.002188755815222</speed>
  <fix>3d</fix>
</trkpt>
<trkpt lat="-27.2739518" lon="151.2904379">
  <ele>368.15</ele>
  <time>2026-09-01T20:03:31Z</time>
  <course>144.64</course>
  <speed>18.01</speed>
  <fix>3d</fix>
</trkpt>
<trkpt lat="-27.2739808" lon="151.290461">
  <ele>368.15</ele>
  <time>2026-09-01T20:03:31Z</time>
  <course>154.97</course>
  <speed>18.002188755815222</speed>
  <fix>3d</fix>
</trkpt>
<trkpt lat="-27.2739518" lon="151.2904379">
  <ele>368.15</ele>
  <time>2026-09-01T20:03:31Z</time>
  <course>144.64</course>
  <speed>18.01</speed>
  <fix>3d</fix>
</trkpt>
<trkpt lat="-27.2739944" lon="151.2904711">
  <ele>367.98</ele>
  <time>2026-09-01T20:03:31Z</time>
  <course>155.28</course>
  <speed>18.070343106869885</speed>
  <fix>3d</fix>
</trkpt>
<trkpt lat="-27.2739784" lon="151.2904588">
  <ele>368.06</ele>
  <time>2026-09-01T20:03:31Z</time>
  <course>145.7</course>
  <speed>18.07</speed>
  <fix>3d</fix>
</trkpt>
<trkpt lat="-27.2740079" lon="151.2904814">
  <ele>368.13</ele>
  <time>2026-09-01T20:03:31Z</time>
  <course>155.57</course>
  <speed>18.070343106869885</speed>
  <fix>3d</fix>
</trkpt>
<trkpt lat="-27.2739784" lon="151.2904588">
  <ele>368.06</ele>
  <time>2026-09-01T20:03:31Z</time>
  <course>145.7</course>
  <speed>18.07</speed>
  <fix>3d</fix>
</trkpt>
<trkpt lat="-27.2740217" lon="151.2904911">
  <ele>367.97</ele>
  <time>2026-09-01T20:03:31Z</time>
  <course>155.91</course>
  <speed>18.116900949113784</speed>
  <fix>3d</fix>
</trkpt>
<trkpt lat="-27.2740054" lon="151.2904791">
  <ele>368.02</ele>
  <time>2026-09-01T20:03:31Z</time>
  <course>146.68</course>
  <speed>18.12</speed>
  <fix>3d</fix>
</trkpt>
<trkpt lat="-27.2740353" lon="151.2905012">
  <ele>367.85</ele>
  <time>2026-09-01T20:03:31Z</time>
  <course>156.22</course>
  <speed>18.116900949113784</speed>
  <fix>3d</fix>
</trkpt>
<trkpt lat="-27.2740054" lon="151.2904791">
  <ele>368.02</ele>
  <time>2026-09-01T20:03:31Z</time>
  <course>146.68</course>
  <speed>18.12</speed>
  <fix>3d</fix>
</trkpt>
<trkpt lat="-27.2740493" lon="151.2905107">
  <ele>368.01</ele>
  <time>2026-09-01T20:03:31Z</time>
  <course>156.5</course>
  <speed>18.146432156211866</speed>
  <fix>3d</fix>
</trkpt>
<trkpt lat="-27.2740328" lon="151.290499">
  <ele>368.04</ele>
  <time>2026-09-01T20:03:31Z</time>
  <course>147.65</course>
  <speed>18.15</speed>
  <fix>3d</fix>
</trkpt>
<trkpt lat="-27.2740631" lon="151.2905206">
  <ele>368.11</ele>
  <time>2026-09-01T20:03:31Z</time>
  <course>156.8</course>
  <speed>18.146432156211866</speed>
  <fix>3d</fix>
</trkpt>
<trkpt lat="-27.2740328" lon="151.290499">
  <ele>368.04</ele>
  <time>2026-09-01T20:03:31Z</time>
  <course>147.65</course>
  <speed>18.15</speed>
  <fix>3d</fix>
</trkpt>
<trkpt lat="-27.2740772" lon="151.2905297">
  <ele>368.15</ele>
  <time>2026-09-01T20:03:31Z</time>
  <course>157.19</course>
  <speed>18.17066041727708</speed>
  <fix>3d</fix>
</trkpt>
<trkpt lat="-27.2740605" lon="151.2905183">
  <ele>368.11</ele>
  <time>2026-09-01T20:03:31Z</time>
  <course>148.66</course>
  <speed>18.17</speed>
  <fix>3d</fix>
</trkpt>
<trkpt lat="-27.274091" lon="151.2905392">
  <ele>367.99</ele>
  <time>2026-09-01T20:03:31Z</time>
  <course>157.59</course>
  <speed>18.17066041727708</speed>
  <fix>3d</fix>
</trkpt>
<trkpt lat="-27.2740605" lon="151.2905183">
  <ele>368.11</ele>
  <time>2026-09-01T20:03:31Z</time>
  <course>148.66</course>
  <speed>18.17</speed>
  <fix>3d</fix>
</trkpt>
<trkpt lat="-27.2741055" lon="151.2905481">
  <ele>368.29</ele>
  <time>2026-09-01T20:03:31Z</time>
  <course>158.0</course>
  <speed>18.161687696907464</speed>
  <fix>3d</fix>
</trkpt>
<trkpt lat="-27.2740886" lon="151.2905371">
  <ele>368.21</ele>
  <time>2026-09-01T20:03:31Z</time>
  <course>149.81</course>
  <speed>18.16</speed>
  <fix>3d</fix>
</trkpt>
<trkpt lat="-27.2741196" lon="151.2905574">
  <ele>368.39</ele>
  <time>2026-09-01T20:03:31Z</time>
  <course>158.43</course>
  <speed>18.161687696907464</speed>
  <fix>3d</fix>
</trkpt>
<trkpt lat="-27.2740886" lon="151.2905371">
  <ele>368.21</ele>
  <time>2026-09-01T20:03:31Z</time>
  <course>149.81</course>
  <speed>18.16</speed>
  <fix>3d</fix>
</trkpt>
<trkpt lat="-27.274134" lon="151.2905658">
  <ele>368.42</ele>
  <time>2026-09-01T20:03:31Z</time>
  <course>158.84</course>
  <speed>18.126279265199464</speed>
  <fix>3d</fix>
</trkpt>
<trkpt lat="-27.2741169" lon="151.2905552">
  <ele>368.34</ele>
  <time>2026-09-01T20:03:31Z</time>
  <course>151.15</course>
  <speed>18.12</speed>
  <fix>3d</fix>
</trkpt>
<trkpt lat="-27.2741482" lon="151.2905746">
  <ele>368.67</ele>
  <time>2026-09-01T20:03:31Z</time>
  <course>159.25</course>
  <speed>18.126279265199464</speed>
  <fix>3d</fix>
</trkpt>
<trkpt lat="-27.2741169" lon="151.2905552">
  <ele>368.34</ele>
  <time>2026-09-01T20:03:31Z</time>
  <course>151.15</course>
  <speed>18.12</speed>
  <fix>3d</fix>
</trkpt>
<trkpt lat="-27.2741629" lon="151.2905825">
  <ele>368.72</ele>
  <time>2026-09-01T20:03:31Z</time>
  <course>159.73</course>
  <speed>18.059925249014736</speed>
  <fix>3d</fix>
</trkpt>
<trkpt lat="-27.2741456" lon="151.2905725">
  <ele>368.5</ele>
  <time>2026-09-01T20:03:31Z</time>
  <course>152.68</course>
  <speed>18.06</speed>
  <fix>3d</fix>
</trkpt>
<trkpt lat="-27.2741773" lon="151.2905909">
  <ele>368.82</ele>
  <time>2026-09-01T20:03:31Z</time>
  <course>160.22</course>
  <speed>18.059925249014736</speed>
  <fix>3d</fix>
</trkpt>
<trkpt lat="-27.2741456" lon="151.2905725">
  <ele>368.5</ele>
  <time>2026-09-01T20:03:31Z</time>
  <course>152.68</course>
  <speed>18.06</speed>
  <fix>3d</fix>
</trkpt>
<trkpt lat="-27.2741921" lon="151.2905981">
  <ele>368.75</ele>
  <time>2026-09-01T20:03:31Z</time>
  <course>160.8</course>
  <speed>17.97601179349858</speed>
  <fix>3d</fix>
</trkpt>
<trkpt lat="-27.2741747" lon="151.2905887">
  <ele>368.68</ele>
  <time>2026-09-01T20:03:31Z</time>
  <course>154.39</course>
  <speed>17.98</speed>
  <fix>3d</fix>
</trkpt>
<trkpt lat="-27.2742067" lon="151.2906059">
  <ele>368.74</ele>
  <time>2026-09-01T20:03:31Z</time>
  <course>161.43</course>
  <speed>17.97601179349858</speed>
  <fix>3d</fix>
</trkpt>
<trkpt lat="-27.2741747" lon="151.2905887">
  <ele>368.68</ele>
  <time>2026-09-01T20:03:31Z</time>
  <course>154.39</course>
  <speed>17.98</speed>
  <fix>3d</fix>
</trkpt>
<trkpt lat="-27.2742216" lon="151.2906126">
  <ele>369.12</ele>
  <time>2026-09-01T20:03:31Z</time>
  <course>162.03</course>
  <speed>17.87538251338975</speed>
  <fix>3d</fix>
</trkpt>
<trkpt lat="-27.274204" lon="151.2906039">
  <ele>368.86</ele>
  <time>2026-09-01T20:03:31Z</time>
  <course>156.29</course>
  <speed>17.87</speed>
  <fix>3d</fix>
</trkpt>
<trkpt lat="-27.2742363" lon="151.2906198">
  <ele>368.88</ele>
  <time>2026-09-01T20:03:31Z</time>
  <course>162.7</course>
  <speed>17.87538251338975</speed>
  <fix>3d</fix>
</trkpt>
<trkpt lat="-27.274204" lon="151.2906039">
  <ele>368.86</ele>
  <time>2026-09-01T20:03:31Z</time>
  <course>156.29</course>
  <speed>17.87</speed>
  <fix>3d</fix>
</trkpt>
<trkpt lat="-27.2742513" lon="151.2906257">
  <ele>369.2</ele>
  <time>2026-09-01T20:03:31Z</time>
  <course>163.39</course>
  <speed>17.760090089861595</speed>
  <fix>3d</fix>
</trkpt>
<trkpt lat="-27.2742335" lon="151.2906178">
  <ele>369.06</ele>
  <time>2026-09-01T20:03:31Z</time>
  <course>158.44</course>
  <speed>17.77</speed>
  <fix>3d</fix>
</trkpt>
<trkpt lat="-27.2742661" lon="151.2906323">
  <ele>369.37</ele>
  <time>2026-09-01T20:03:31Z</time>
  <course>164.09</course>
  <speed>17.760090089861595</speed>
  <fix>3d</fix>
</trkpt>
<trkpt lat="-27.2742335" lon="151.2906178">
  <ele>369.06</ele>
  <time>2026-09-01T20:03:31Z</time>
  <course>158.44</course>
  <speed>17.77</speed>
  <fix>3d</fix>
</trkpt>
<trkpt lat="-27.2742812" lon="151.2906372">
  <ele>369.38</ele>
  <time>2026-09-01T20:03:31Z</time>
  <course>164.82</course>
  <speed>17.653469913872456</speed>
  <fix>3d</fix>
</trkpt>
<trkpt lat="-27.2742633" lon="151.2906302">
  <ele>369.26</ele>
  <time>2026-09-01T20:03:31Z</time>
  <course>160.78</course>
  <speed>17.66</speed>
  <fix>3d</fix>
</trkpt>
<trkpt lat="-27.2742964" lon="151.2906431">
  <ele>369.32</ele>
  <time>2026-09-01T20:03:31Z</time>
  <course>165.59</course>
  <speed>17.653469913872456</speed>
  <fix>3d</fix>
</trkpt>
<trkpt lat="-27.2742633" lon="151.2906302">
  <ele>369.26</ele>
  <time>2026-09-01T20:03:31Z</time>
  <course>160.78</course>
  <speed>17.66</speed>
  <fix>3d</fix>
</trkpt>
<trkpt lat="-27.2743115" lon="151.2906472">
  <ele>369.66</ele>
  <time>2026-09-01T20:03:31Z</time>
  <course>166.46</course>
  <speed>17.539714934969723</speed>
  <fix>3d</fix>
</trkpt>
<trkpt lat="-27.2742934" lon="151.2906411">
  <ele>369.47</ele>
  <time>2026-09-01T20:03:31Z</time>
  <course>163.27</course>
  <speed>17.55</speed>
  <fix>3d</fix>
</trkpt>
<trkpt lat="-27.2743266" lon="151.2906523">
  <ele>369.7</ele>
  <time>2026-09-01T20:03:31Z</time>
  <course>167.32</course>
  <speed>17.539714934969723</speed>
  <fix>3d</fix>
</trkpt>
<trkpt lat="-27.2742934" lon="151.2906411">
  <ele>369.47</ele>
  <time>2026-09-01T20:03:31Z</time>
  <course>163.27</course>
  <speed>17.55</speed>
  <fix>3d</fix>
</trkpt>
<trkpt lat="-27.2743419" lon="151.2906557">
  <ele>369.79</ele>
  <time>2026-09-01T20:03:31Z</time>
  <course>168.16</course>
  <speed>17.440736796362703</speed>
  <fix>3d</fix>
</trkpt>
<trkpt lat="-27.2743237" lon="151.2906506">
  <ele>369.67</ele>
  <time>2026-09-01T20:03:31Z</time>
  <course>165.96</course>
  <speed>17.44</speed>
  <fix>3d</fix>
</trkpt>
<trkpt lat="-27.2743571" lon="151.29066">
  <ele>369.77</ele>
  <time>2026-09-01T20:03:31Z</time>
  <course>169.03</course>
  <speed>17.440736796362703</speed>
  <fix>3d</fix>
</trkpt>
<trkpt lat="-27.2743237" lon="151.2906506">
  <ele>369.67</ele>
  <time>2026-09-01T20:03:31Z</time>
  <course>165.96</course>
  <speed>17.44</speed>
  <fix>3d</fix>
</trkpt>
<trkpt lat="-27.2743724" lon="151.2906623">
  <ele>370.1</ele>
  <time>2026-09-01T20:03:31Z</time>
  <course>169.95</course>
  <speed>17.34061705937825</speed>
  <fix>3d</fix>
</trkpt>
<trkpt lat="-27.2743541" lon="151.2906583">
  <ele>369.88</ele>
  <time>2026-09-01T20:03:31Z</time>
  <course>168.77</course>
  <speed>17.34</speed>
  <fix>3d</fix>
</trkpt>
<trkpt lat="-27.2743877" lon="151.2906658">
  <ele>370.21</ele>
  <time>2026-09-01T20:03:31Z</time>
  <course>170.92</course>
  <speed>17.34061705937825</speed>
  <fix>3d</fix>
</trkpt>
<trkpt lat="-27.2743541" lon="151.2906583">
  <ele>369.88</ele>
  <time>2026-09-01T20:03:31Z</time>
  <course>168.77</course>
  <speed>17.34</speed>
  <fix>3d</fix>
</trkpt>
<trkpt lat="-27.274403" lon="151.2906671">
  <ele>370.29</ele>
  <time>2026-09-01T20:03:31Z</time>
  <course>171.83</course>
  <speed>17.240756943939555</speed>
  <fix>3d</fix>
</trkpt>
<trkpt lat="-27.2743847" lon="151.2906641">
  <ele>370.08</ele>
  <time>2026-09-01T20:03:31Z</time>
  <course>171.67</course>
  <speed>17.24</speed>
  <fix>3d</fix>
</trkpt>
<trkpt lat="-27.2744184" lon="151.2906696">
  <ele>370.38</ele>
  <time>2026-09-01T20:03:31Z</time>
  <course>172.74</course>
  <speed>17.240756943939555</speed>
  <fix>3d</fix>
</trkpt>
<trkpt lat="-27.2743847" lon="151.2906641">
  <ele>370.08</ele>
  <time>2026-09-01T20:03:31Z</time>
  <course>171.67</course>
  <speed>17.24</speed>
  <fix>3d</fix>
</trkpt>
<trkpt lat="-27.2744338" lon="151.2906702">
  <ele>370.45</ele>
  <time>2026-09-01T20:03:31Z</time>
  <course>173.66</course>
  <speed>17.154777760146004</speed>
  <fix>3d</fix>
</trkpt>
<trkpt lat="-27.2744154" lon="151.2906683">
  <ele>370.29</ele>
  <time>2026-09-01T20:03:31Z</time>
  <course>174.63</course>
  <speed>17.15</speed>
  <fix>3d</fix>
</trkpt>
<trkpt lat="-27.2744491" lon="151.2906718">
  <ele>370.57</ele>
  <time>2026-09-01T20:03:31Z</time>
  <course>174.61</course>
  <speed>17.154777760146004</speed>
  <fix>3d</fix>
</trkpt>
<trkpt lat="-27.2744154" lon="151.2906683">
  <ele>370.29</ele>
  <time>2026-09-01T20:03:31Z</time>
  <course>174.63</course>
  <speed>17.15</speed>
  <fix>3d</fix>
</trkpt>
<trkpt lat="-27.2744645" lon="151.2906715">
  <ele>370.63</ele>
  <time>2026-09-01T20:03:31Z</time>
  <course>175.56</course>
  <speed>17.0743550390637</speed>
  <fix>3d</fix>
</trkpt>
<trkpt lat="-27.2744462" lon="151.2906707">
  <ele>370.48</ele>
  <time>2026-09-01T20:03:31Z</time>
  <course>177.64</course>
  <speed>17.08</speed>
  <fix>3d</fix>
</trkpt>
<trkpt lat="-27.2744799" lon="151.2906722">
  <ele>370.52</ele>
  <time>2026-09-01T20:03:31Z</time>
  <course>176.55</course>
  <speed>17.0743550390637</speed>
  <fix>3d</fix>
</trkpt>
<trkpt lat="-27.2744462" lon="151.2906707">
  <ele>370.48</ele>
  <time>2026-09-01T20:03:31Z</time>
  <course>177.64</course>
  <speed>17.08</speed>
  <fix>3d</fix>
</trkpt>
<trkpt lat="-27.2744951" lon="151.290671">
  <ele>370.76</ele>
  <time>2026-09-01T20:03:31Z</time>
  <course>177.54</course>
  <speed>17.011296246906053</speed>
  <fix>3d</fix>
</trkpt>
<trkpt lat="-27.2744768" lon="151.2906712">
  <ele>370.66</ele>
  <time>2026-09-01T20:03:31Z</time>
  <course>180.71</course>
  <speed>17.01</speed>
  <fix>3d</fix>
</trkpt>
<trkpt lat="-27.2745104" lon="151.2906708">
  <ele>370.97</ele>
  <time>2026-09-01T20:03:31Z</time>
  <course>178.49</course>
  <speed>17.011296246906053</speed>
  <fix>3d</fix>
</trkpt>
<trkpt lat="-27.2744768" lon="151.2906712">
  <ele>370.66</ele>
  <time>2026-09-01T20:03:31Z</time>
  <course>180.71</course>
  <speed>17.01</speed>
  <fix>3d</fix>
</trkpt>
<trkpt lat="-27.2745255" lon="151.2906686">
  <ele>370.89</ele>
  <time>2026-09-01T20:03:31Z</time>
  <course>179.47</course>
  <speed>16.967006217951358</speed>
  <fix>3d</fix>
</trkpt>
<trkpt lat="-27.2745073" lon="151.2906699">
  <ele>370.83</ele>
  <time>2026-09-01T20:03:31Z</time>
  <course>183.81</course>
  <speed>16.97</speed>
  <fix>3d</fix>
</trkpt>
<trkpt lat="-27.2745407" lon="151.2906674">
  <ele>370.83</ele>
  <time>2026-09-01T20:03:31Z</time>
  <course>180.45</course>
  <speed>16.967006217951358</speed>
  <fix>3d</fix>
</trkpt>
<trkpt lat="-27.2745073" lon="151.2906699">
  <ele>370.83</ele>
  <time>2026-09-01T20:03:31Z</time>
  <course>183.81</course>
  <speed>16.97</speed>
  <fix>3d</fix>
</trkpt>
<trkpt lat="-27.2745557" lon="151.2906643">
  <ele>370.89</ele>
  <time>2026-09-01T20:03:31Z</time>
  <course>181.38</course>
  <speed>16.953185541366555</speed>
  <fix>3d</fix>
</trkpt>
<trkpt lat="-27.2745376" lon="151.2906667">
  <ele>370.98</ele>
  <time>2026-09-01T20:03:31Z</time>
  <course>186.92</course>
  <speed>16.95</speed>
  <fix>3d</fix>
</trkpt>
<trkpt lat="-27.2745708" lon="151.2906622">
  <ele>371.13</ele>
  <time>2026-09-01T20:03:31Z</time>
  <course>182.4</course>
  <speed>16.953185541366555</speed>
  <fix>3d</fix>
</trkpt>
<trkpt lat="-27.2745376" lon="151.2906667">
  <ele>370.98</ele>
  <time>2026-09-01T20:03:31Z</time>
  <course>186.92</course>
  <speed>16.95</speed>
  <fix>3d</fix>
</trkpt>
<trkpt lat="-27.2745858" lon="151.2906581">
  <ele>371.06</ele>
  <time>2026-09-01T20:03:31Z</time>
  <course>183.42</course>
  <speed>16.960294808758487</speed>
  <fix>3d</fix>
</trkpt>
<trkpt lat="-27.2745678" lon="151.2906616">
  <ele>371.13</ele>
  <time>2026-09-01T20:03:31Z</time>
  <course>190.05</course>
  <speed>16.96</speed>
  <fix>3d</fix>
</trkpt>
<trkpt lat="-27.2746008" lon="151.2906551">
  <ele>371.34</ele>
  <time>2026-09-01T20:03:31Z</time>
  <course>184.44</course>
  <speed>16.960294808758487</speed>
  <fix>3d</fix>
</trkpt>
<trkpt lat="-27.2745678" lon="151.2906616">
  <ele>371.13</ele>
  <time>2026-09-01T20:03:31Z</time>
  <course>190.05</course>
  <speed>16.96</speed>
  <fix>3d</fix>
</trkpt>
<trkpt lat="-27.2746154" lon="151.29065">
  <ele>371.28</ele>
  <time>2026-09-01T20:03:31Z</time>
  <course>185.46</course>
  <speed>16.988996438871837</speed>
  <fix>3d</fix>
</trkpt>
<trkpt lat="-27.2745976" lon="151.2906547">
  <ele>371.26</ele>
  <time>2026-09-01T20:03:31Z</time>
  <course>193.2</course>
  <speed>16.99</speed>
  <fix>3d</fix>
</trkpt>
<trkpt lat="-27.2746302" lon="151.2906461">
  <ele>371.5</ele>
  <time>2026-09-01T20:03:31Z</time>
  <course>186.49</course>
  <speed>16.988996438871837</speed>
  <fix>3d</fix>
</trkpt>
<trkpt lat="-27.2745976" lon="151.2906547">
  <ele>371.26</ele>
  <time>2026-09-01T20:03:31Z</time>
  <course>193.2</course>
  <speed>16.99</speed>
  <fix>3d</fix>
</trkpt>
<trkpt lat="-27.2746448" lon="151.2906401">
  <ele>371.26</ele>
  <time>2026-09-01T20:03:31Z</time>
  <course>187.52</course>
  <speed>17.0332527721513</speed>
  <fix>3d</fix>
</trkpt>
<trkpt lat="-27.2746272" lon="151.2906459">
  <ele>371.37</ele>
  <time>2026-09-01T20:03:31Z</time>
  <course>196.41</course>
  <speed>17.03</speed>
  <fix>3d</fix>
</trkpt>
<trkpt lat="-27.2746594" lon="151.2906352">
  <ele>371.47</ele>
  <time>2026-09-01T20:03:31Z</time>
  <course>188.54</course>
  <speed>17.0332527721513</speed>
  <fix>3d</fix>
</trkpt>
<trkpt lat="-27.2746272" lon="151.2906459">
  <ele>371.37</ele>
  <time>2026-09-01T20:03:31Z</time>
  <course>196.41</course>
  <speed>17.03</speed>
  <fix>3d</fix>
</trkpt>
<trkpt lat="-27.2746736" lon="151.2906284">
  <ele>371.47</ele>
  <time>2026-09-01T20:03:31Z</time>
  <course>189.5</course>
  <speed>17.09261828977644</speed>
  <fix>3d</fix>
</trkpt>
<trkpt lat="-27.2746563" lon="151.2906353">
  <ele>371.47</ele>
  <time>2026-09-01T20:03:31Z</time>
  <course>199.63</course>
  <speed>17.09</speed>
  <fix>3d</fix>
</trkpt>
<trkpt lat="-27.2746881" lon="151.2906226">
  <ele>371.48</ele>
  <time>2026-09-01T20:03:31Z</time>
  <course>190.52</course>
  <speed>17.09261828977644</speed>
  <fix>3d</fix>
</trkpt>
<trkpt lat="-27.2746563" lon="151.2906353">
  <ele>371.47</ele>
  <time>2026-09-01T20:03:31Z</time>
  <course>199.63</course>
  <speed>17.09</speed>
  <fix>3d</fix>
</trkpt>
<trkpt lat="-27.274702" lon="151.2906147">
  <ele>371.65</ele>
  <time>2026-09-01T20:03:31Z</time>
  <course>191.54</course>
  <speed>17.173948293854853</speed>
  <fix>3d</fix>
</trkpt>
<trkpt lat="-27.274685" lon="151.2906227">
  <ele>371.58</ele>
  <time>2026-09-01T20:03:31Z</time>
  <course>202.81</course>
  <speed>17.17</speed>
  <fix>3d</fix>
</trkpt>
<trkpt lat="-27.2747162" lon="151.2906079">
  <ele>371.81</ele>
  <time>2026-09-01T20:03:31Z</time>
  <course>192.53</course>
  <speed>17.173948293854853</speed>
  <fix>3d</fix>
</trkpt>
<trkpt lat="-27.274685" lon="151.2906227">
  <ele>371.58</ele>
  <time>2026-09-01T20:03:31Z</time>
  <course>202.81</course>
  <speed>17.17</speed>
  <fix>3d</fix>
</trkpt>
<trkpt lat="-27.2747298" lon="151.2905992">
  <ele>371.59</ele>
  <time>2026-09-01T20:03:31Z</time>
  <course>193.52</course>
  <speed>17.27698179659862</speed>
  <fix>3d</fix>
</trkpt>
<trkpt lat="-27.2747131" lon="151.2906083">
  <ele>371.66</ele>
  <time>2026-09-01T20:03:31Z</time>
  <course>205.93</course>
  <speed>17.28</speed>
  <fix>3d</fix>
</trkpt>
<trkpt lat="-27.2747438" lon="151.2905915">
  <ele>371.58</ele>
  <time>2026-09-01T20:03:31Z</time>
  <course>194.59</course>
  <speed>17.27698179659862</speed>
  <fix>3d</fix>
</trkpt>
<trkpt lat="-27.2747131" lon="151.2906083">
  <ele>371.66</ele>
  <time>2026-09-01T20:03:31Z</time>
  <course>205.93</course>
  <speed>17.28</speed>
  <fix>3d</fix>
</trkpt>
<trkpt lat="-27.2747572" lon="151.290582">
  <ele>371.8</ele>
  <time>2026-09-01T20:03:31Z</time>
  <course>195.65</course>
  <speed>17.394760705453812</speed>
  <fix>3d</fix>
</trkpt>
<trkpt lat="-27.2747408" lon="151.2905922">
  <ele>371.74</ele>
  <time>2026-09-01T20:03:31Z</time>
  <course>209.04</course>
  <speed>17.4</speed>
  <fix>3d</fix>
</trkpt>
<trkpt lat="-27.2747708" lon="151.2905735">
  <ele>371.65</ele>
  <time>2026-09-01T20:03:31Z</time>
  <course>196.68</course>
  <speed>17.394760705453812</speed>
  <fix>3d</fix>
</trkpt>
<trkpt lat="-27.2747408" lon="151.2905922">
  <ele>371.74</ele>
  <time>2026-09-01T20:03:31Z</time>
  <course>209.04</course>
  <speed>17.4</speed>
  <fix>3d</fix>
</trkpt>
<trkpt lat="-27.2747838" lon="151.2905628">
  <ele>371.67</ele>
  <time>2026-09-01T20:03:31Z</time>
  <course>197.76</course>
  <speed>17.534571565909445</speed>
  <fix>3d</fix>
</trkpt>
<trkpt lat="-27.2747678" lon="151.2905741">
  <ele>371.81</ele>
  <time>2026-09-01T20:03:31Z</time>
  <course>212.18</course>
  <speed>17.54</speed>
  <fix>3d</fix>
</trkpt>
<trkpt lat="-27.2747971" lon="151.2905534">
  <ele>371.92</ele>
  <time>2026-09-01T20:03:31Z</time>
  <course>198.89</course>
  <speed>17.534571565909445</speed>
  <fix>3d</fix>
</trkpt>
<trkpt lat="-27.2747678" lon="151.2905741">
  <ele>371.81</ele>
  <time>2026-09-01T20:03:31Z</time>
  <course>212.18</course>
  <speed>17.54</speed>
  <fix>3d</fix>
</trkpt>
<trkpt lat="-27.2748097" lon="151.2905419">
  <ele>371.86</ele>
  <time>2026-09-01T20:03:31Z</time>
  <course>199.95</course>
  <speed>17.70808007662039</speed>
  <fix>3d</fix>
</trkpt>
<trkpt lat="-27.2747942" lon="151.2905543">
  <ele>371.88</ele>
  <time>2026-09-01T20:03:31Z</time>
  <course>215.37</course>
  <speed>17.71</speed>
  <fix>3d</fix>
</trkpt>
<trkpt lat="-27.2748227" lon="151.2905315">
  <ele>371.76</ele>
  <time>2026-09-01T20:03:31Z</time>
  <course>201.02</course>
  <speed>17.70808007662039</speed>
  <fix>3d</fix>
</trkpt>
<trkpt lat="-27.2747942" lon="151.2905543">
  <ele>371.88</ele>
  <time>2026-09-01T20:03:31Z</time>
  <course>215.37</course>
  <speed>17.71</speed>
  <fix>3d</fix>
</trkpt>
<trkpt lat="-27.2748347" lon="151.2905191">
  <ele>372.05</ele>
  <time>2026-09-01T20:03:31Z</time>
  <course>202.1</course>
  <speed>17.910022333877755</speed>
  <fix>3d</fix>
</trkpt>
<trkpt lat="-27.2748197" lon="151.2905326">
  <ele>371.94</ele>
  <time>2026-09-01T20:03:31Z</time>
  <course>218.59</course>
  <speed>17.91</speed>
  <fix>3d</fix>
</trkpt>
<trkpt lat="-27.2748473" lon="151.2905078">
  <ele>371.93</ele>
  <time>2026-09-01T20:03:31Z</time>
  <course>203.21</course>
  <speed>17.910022333877755</speed>
  <fix>3d</fix>
</trkpt>
<trkpt lat="-27.2748197" lon="151.2905326">
  <ele>371.94</ele>
  <time>2026-09-01T20:03:31Z</time>
  <course>218.59</course>
  <speed>17.91</speed>
  <fix>3d</fix>
</trkpt>
<trkpt lat="-27.2748589" lon="151.2904945">
  <ele>371.91</ele>
  <time>2026-09-01T20:03:31Z</time>
  <course>204.31</course>
  <speed>18.116429007947453</speed>
  <fix>3d</fix>
</trkpt>
<trkpt lat="-27.2748444" lon="151.2905091">
  <ele>372.0</ele>
  <time>2026-09-01T20:03:31Z</time>
  <course>221.78</course>
  <speed>18.12</speed>
  <fix>3d</fix>
</trkpt>
<trkpt lat="-27.2748711" lon="151.2904823">
  <ele>372.16</ele>
  <time>2026-09-01T20:03:31Z</time>
  <course>205.44</course>
  <speed>18.116429007947453</speed>
  <fix>3d</fix>
</trkpt>
<trkpt lat="-27.2748444" lon="151.2905091">
  <ele>372.0</ele>
  <time>2026-09-01T20:03:31Z</time>
  <course>221.78</course>
  <speed>18.12</speed>
  <fix>3d</fix>
</trkpt>
<trkpt lat="-27.2748823" lon="151.2904681">
  <ele>372.15</ele>
  <time>2026-09-01T20:03:31Z</time>
  <course>206.6</course>
  <speed>18.349433233754112</speed>
  <fix>3d</fix>
</trkpt>
<trkpt lat="-27.2748683" lon="151.2904838">
  <ele>372.05</ele>
  <time>2026-09-01T20:03:31Z</time>
  <course>224.92</course>
  <speed>18.35</speed>
  <fix>3d</fix>
</trkpt>
<trkpt lat="-27.2748939" lon="151.290455">
  <ele>371.91</ele>
  <time>2026-09-01T20:03:31Z</time>
  <course>207.77</course>
  <speed>18.349433233754112</speed>
  <fix>3d</fix>
</trkpt>
<trkpt lat="-27.2748683" lon="151.2904838">
  <ele>372.05</ele>
  <time>2026-09-01T20:03:31Z</time>
  <course>224.92</course>
  <speed>18.35</speed>
  <fix>3d</fix>
</trkpt>
<trkpt lat="-27.2749045" lon="151.2904399">
  <ele>371.98</ele>
  <time>2026-09-01T20:03:31Z</time>
  <course>208.96</course>
  <speed>18.609873723375987</speed>
  <fix>3d</fix>
</trkpt>
<trkpt lat="-27.2748911" lon="151.2904567">
  <ele>372.1</ele>
  <time>2026-09-01T20:03:31Z</time>
  <course>228.09</course>
  <speed>18.61</speed>
  <fix>3d</fix>
</trkpt>
<trkpt lat="-27.2749156" lon="151.2904259">
  <ele>371.99</ele>
  <time>2026-09-01T20:03:31Z</time>
  <course>210.12</course>
  <speed>18.609873723375987</speed>
  <fix>3d</fix>
</trkpt>
<trkpt lat="-27.2748911" lon="151.2904567">
  <ele>372.1</ele>
  <time>2026-09-01T20:03:31Z</time>
  <course>228.09</course>
  <speed>18.61</speed>
  <fix>3d</fix>
</trkpt>
<trkpt lat="-27.2749255" lon="151.2904101">
  <ele>372.16</ele>
  <time>2026-09-01T20:03:31Z</time>
  <course>211.36</course>
  <speed>18.895465064401034</speed>
  <fix>3d</fix>
</trkpt>
<trkpt lat="-27.2749128" lon="151.2904279">
  <ele>372.15</ele>
  <time>2026-09-01T20:03:31Z</time>
  <course>231.29</course>
  <speed>18.9</speed>
  <fix>3d</fix>
</trkpt>
<trkpt lat="-27.2749361" lon="151.2903952">
  <ele>372.09</ele>
  <time>2026-09-01T20:03:31Z</time>
  <course>212.55</course>
  <speed>18.895465064401034</speed>
  <fix>3d</fix>
</trkpt>
<trkpt lat="-27.2749128" lon="151.2904279">
  <ele>372.15</ele>
  <time>2026-09-01T20:03:31Z</time>
  <course>231.29</course>
  <speed>18.9</speed>
  <fix>3d</fix>
</trkpt>
<trkpt lat="-27.2749455" lon="151.2903782">
  <ele>372.08</ele>
  <time>2026-09-01T20:03:31Z</time>
  <course>213.78</course>
  <speed>19.20760526458205</speed>
  <fix>3d</fix>
</trkpt>
<trkpt lat="-27.2749335" lon="151.2903971">
  <ele>372.2</ele>
  <time>2026-09-01T20:03:31Z</time>
  <course>234.51</course>
  <speed>19.21</speed>
  <fix>3d</fix>
</trkpt>
<trkpt lat="-27.2749555" lon="151.2903624">
  <ele>372.27</ele>
  <time>2026-09-01T20:03:31Z</time>
  <course>215.04</course>
  <speed>19.20760526458205</speed>
  <fix>3d</fix>
</trkpt>
<trkpt lat="-27.2749335" lon="151.2903971">
  <ele>372.2</ele>
  <time>2026-09-01T20:03:31Z</time>
  <course>234.51</course>
  <speed>19.21</speed>
  <fix>3d</fix>
</trkpt>
<trkpt lat="-27.2749641" lon="151.2903446">
  <ele>372.08</ele>
  <time>2026-09-01T20:03:31Z</time>
  <course>216.28</course>
  <speed>19.54860608841459</speed>
  <fix>3d</fix>
</trkpt>
<trkpt lat="-27.2749529" lon="151.2903646">
  <ele>372.24</ele>
  <time>2026-09-01T20:03:31Z</time>
  <course>237.78</course>
  <speed>19.55</speed>
  <fix>3d</fix>
</trkpt>
<trkpt lat="-27.2749735" lon="151.2903279">
  <ele>372.09</ele>
  <time>2026-09-01T20:03:31Z</time>
  <course>217.63</course>
  <speed>19.54860608841459</speed>
  <fix>3d</fix>
</trkpt>
<trkpt lat="-27.2749529" lon="151.2903646">
  <ele>372.24</ele>
  <time>2026-09-01T20:03:31Z</time>
  <course>237.78</course>
  <speed>19.55</speed>
  <fix>3d</fix>
</trkpt>
<trkpt lat="-27.2749812" lon="151.2903092">
  <ele>372.18</ele>
  <time>2026-09-01T20:03:31Z</time>
  <course>218.92</course>
  <speed>19.91335732617682</speed>
  <fix>3d</fix>
</trkpt>
<trkpt lat="-27.2749709" lon="151.2903303">
  <ele>372.28</ele>
  <time>2026-09-01T20:03:31Z</time>
  <course>241.08</course>
  <speed>19.91</speed>
  <fix>3d</fix>
</trkpt>
<trkpt lat="-27.2749899" lon="151.2902916">
  <ele>372.3</ele>
  <time>2026-09-01T20:03:31Z</time>
  <course>220.21</course>
  <speed>19.91335732617682</speed>
  <fix>3d</fix>
</trkpt>
<trkpt lat="-27.2749709" lon="151.2903303">
  <ele>372.28</ele>
  <time>2026-09-01T20:03:31Z</time>
  <course>241.08</course>
  <speed>19.91</speed>
  <fix>3d</fix>
</trkpt>
<trkpt lat="-27.2749969" lon="151.2902718">
  <ele>372.19</ele>
  <time>2026-09-01T20:03:31Z</time>
  <course>221.55</course>
  <speed>20.30194571956097</speed>
  <fix>3d</fix>
</trkpt>
<trkpt lat="-27.2749875" lon="151.290294">
  <ele>372.32</ele>
  <time>2026-09-01T20:03:31Z</time>
  <course>244.38</course>
  <speed>20.3</speed>
  <fix>3d</fix>
</trkpt>
<trkpt lat="-27.2750048" lon="151.2902533">
  <ele>372.38</ele>
  <time>2026-09-01T20:03:31Z</time>
  <course>223.0</course>
  <speed>20.30194571956097</speed>
  <fix>3d</fix>
</trkpt>
<trkpt lat="-27.2749875" lon="151.290294">
  <ele>372.32</ele>
  <time>2026-09-01T20:03:31Z</time>
  <course>244.38</course>
  <speed>20.3</speed>
  <fix>3d</fix>
</trkpt>
<trkpt lat="-27.2750109" lon="151.2902329">
  <ele>372.27</ele>
  <time>2026-09-01T20:03:31Z</time>
  <course>224.39</course>
  <speed>20.718795814428987</speed>
  <fix>3d</fix>
</trkpt>
<trkpt lat="-27.2750025" lon="151.2902561">
  <ele>372.38</ele>
  <time>2026-09-01T20:03:31Z</time>
  <course>247.69</course>
  <speed>20.72</speed>
  <fix>3d</fix>
</trkpt>
<trkpt lat="-27.2750181" lon="151.2902133">
  <ele>372.49</ele>
  <time>2026-09-01T20:03:31Z</time>
  <course>225.82</course>
  <speed>20.718795814428987</speed>
  <fix>3d</fix>
</trkpt>
<trkpt lat="-27.2750025" lon="151.2902561">
  <ele>372.38</ele>
  <time>2026-09-01T20:03:31Z</time>
  <course>247.69</course>
  <speed>20.72</speed>
  <fix>3d</fix>
</trkpt>
<trkpt lat="-27.2750231" lon="151.2901923">
  <ele>372.44</ele>
  <time>2026-09-01T20:03:31Z</time>
  <course>227.31</course>
  <speed>21.159737711039803</speed>
  <fix>3d</fix>
</trkpt>
<trkpt lat="-27.2750157" lon="151.2902165">
  <ele>372.43</ele>
  <time>2026-09-01T20:03:31Z</time>
  <course>251.02</course>
  <speed>21.16</speed>
  <fix>3d</fix>
</trkpt>
<trkpt lat="-27.2750293" lon="151.290172">
  <ele>372.66</ele>
  <time>2026-09-01T20:03:31Z</time>
  <course>228.82</course>
  <speed>21.159737711039803</speed>
  <fix>3d</fix>
</trkpt>
<trkpt lat="-27.2750157" lon="151.2902165">
  <ele>372.43</ele>
  <time>2026-09-01T20:03:31Z</time>
  <course>251.02</course>
  <speed>21.16</speed>
  <fix>3d</fix>
</trkpt>
<trkpt lat="-27.2750333" lon="151.29015">
  <ele>372.56</ele>
  <time>2026-09-01T20:03:31Z</time>
  <course>230.28</course>
  <speed>21.632050295799516</speed>
  <fix>3d</fix>
</trkpt>
<trkpt lat="-27.2750271" lon="151.2901752">
  <ele>372.49</ele>
  <time>2026-09-01T20:03:31Z</time>
  <course>254.43</course>
  <speed>21.63</speed>
  <fix>3d</fix>
</trkpt>
<trkpt lat="-27.2750385" lon="151.2901289">
  <ele>372.46</ele>
  <time>2026-09-01T20:03:31Z</time>
  <course>231.87</course>
  <speed>21.632050295799516</speed>
  <fix>3d</fix>
</trkpt>
<trkpt lat="-27.2750271" lon="151.2901752">
  <ele>372.49</ele>
  <time>2026-09-01T20:03:31Z</time>
  <course>254.43</course>
  <speed>21.63</speed>
  <fix>3d</fix>
</trkpt>
<trkpt lat="-27.2750414" lon="151.290106">
  <ele>372.51</ele>
  <time>2026-09-01T20:03:31Z</time>
  <course>233.45</course>
  <speed>22.127674979536373</speed>
  <fix>3d</fix>
</trkpt>
<trkpt lat="-27.2750365" lon="151.2901322">
  <ele>372.55</ele>
  <time>2026-09-01T20:03:31Z</time>
  <course>257.94</course>
  <speed>22.12</speed>
  <fix>3d</fix>
</trkpt>
<trkpt lat="-27.2750456" lon="151.2900841">
  <ele>372.51</ele>
  <time>2026-09-01T20:03:31Z</time>
  <course>235.04</course>
  <speed>22.127674979536373</speed>
  <fix>3d</fix>
</trkpt>
<trkpt lat="-27.2750365" lon="151.2901322">
  <ele>372.55</ele>
  <time>2026-09-01T20:03:31Z</time>
  <course>257.94</course>
  <speed>22.12</speed>
  <fix>3d</fix>
</trkpt>
<trkpt lat="-27.2750473" lon="151.2900606">
  <ele>372.71</ele>
  <time>2026-09-01T20:03:31Z</time>
  <course>236.73</course>
  <speed>22.640708911162655</speed>
  <fix>3d</fix>
</trkpt>
<trkpt lat="-27.2750437" lon="151.2900877">
  <ele>372.62</ele>
  <time>2026-09-01T20:03:31Z</time>
  <course>261.45</course>
  <speed>22.64</speed>
  <fix>3d</fix>
</trkpt>
<trkpt lat="-27.2750503" lon="151.2900379">
  <ele>372.59</ele>
  <time>2026-09-01T20:03:31Z</time>
  <course>238.48</course>
  <speed>22.640708911162655</speed>
  <fix>3d</fix>
</trkpt>
<trkpt lat="-27.2750437" lon="151.2900877">
  <ele>372.62</ele>
  <time>2026-09-01T20:03:31Z</time>
  <course>261.45</course>
  <speed>22.64</speed>
  <fix>3d</fix>
</trkpt>
<trkpt lat="-27.2750506" lon="151.2900138">
  <ele>372.53</ele>
  <time>2026-09-01T20:03:31Z</time>
  <course>240.12</course>
  <speed>23.197245526139522</speed>
  <fix>3d</fix>
</trkpt>
<trkpt lat="-27.2750485" lon="151.2900418">
  <ele>372.69</ele>
  <time>2026-09-01T20:03:31Z</time>
  <course>265.01</course>
  <speed>23.2</speed>
  <fix>3d</fix>
</trkpt>
<trkpt lat="-27.2750524" lon="151.2899905">
  <ele>372.69</ele>
  <time>2026-09-01T20:03:31Z</time>
  <course>241.88</course>
  <speed>23.197245526139522</speed>
  <fix>3d</fix>
</trkpt>
<trkpt lat="-27.2750485" lon="151.2900418">
  <ele>372.69</ele>
  <time>2026-09-01T20:03:31Z</time>
  <course>265.01</course>
  <speed>23.2</speed>
  <fix>3d</fix>
</trkpt>
<trkpt lat="-27.2750514" lon="151.2899656">
  <ele>372.68</ele>
  <time>2026-09-01T20:03:31Z</time>
  <course>243.65</course>
  <speed>23.786592862366817</speed>
  <fix>3d</fix>
</trkpt>
<trkpt lat="-27.2750508" lon="151.2899944">
  <ele>372.77</ele>
  <time>2026-09-01T20:03:31Z</time>
  <course>268.63</course>
  <speed>23.78</speed>
  <fix>3d</fix>
</trkpt>
<trkpt lat="-27.2750519" lon="151.2899416">
  <ele>372.93</ele>
  <time>2026-09-01T20:03:31Z</time>
  <course>245.5</course>
  <speed>23.786592862366817</speed>
  <fix>3d</fix>
</trkpt>
<trkpt lat="-27.2750508" lon="151.2899944">
  <ele>372.77</ele>
  <time>2026-09-01T20:03:31Z</time>
  <course>268.63</course>
  <speed>23.78</speed>
  <fix>3d</fix>
</trkpt>
<trkpt lat="-27.2750496" lon="151.2899162">
  <ele>372.79</ele>
  <time>2026-09-01T20:03:31Z</time>
  <course>247.45</course>
  <speed>24.389296832832223</speed>
  <fix>3d</fix>
</trkpt>
<trkpt lat="-27.2750506" lon="151.2899457">
  <ele>372.85</ele>
  <time>2026-09-01T20:03:31Z</time>
  <course>272.28</course>
  <speed>24.39</speed>
  <fix>3d</fix>
</trkpt>
<trkpt lat="-27.2750487" lon="151.2898916">
  <ele>372.89</ele>
  <time>2026-09-01T20:03:31Z</time>
  <course>249.41</course>
  <speed>24.389296832832223</speed>
  <fix>3d</fix>
</trkpt>
<trkpt lat="-27.2750506" lon="151.2899457">
  <ele>372.85</ele>
  <time>2026-09-01T20:03:31Z</time>
  <course>272.28</course>
  <speed>24.39</speed>
  <fix>3d</fix>
</trkpt>
<trkpt lat="-27.2750446" lon="151.2898658">
  <ele>373.11</ele>
  <time>2026-09-01T20:03:31Z</time>
  <course>251.46</course>
  <speed>25.02961645730913</speed>
  <fix>3d</fix>
</trkpt>
<trkpt lat="-27.2750474" lon="151.2898959">
  <ele>372.95</ele>
  <time>2026-09-01T20:03:31Z</time>
  <course>276.05</course>
  <speed>25.03</speed>
  <fix>3d</fix>
</trkpt>
<trkpt lat="-27.2750422" lon="151.2898406">
  <ele>372.85</ele>
  <time>2026-09-01T20:03:31Z</time>
  <course>253.44</course>
  <speed>25.02961645730913</speed>
  <fix>3d</fix>
</trkpt>
<trkpt lat="-27.2750474" lon="151.2898959">
  <ele>372.95</ele>
  <time>2026-09-01T20:03:31Z</time>
  <course>276.05</course>
  <speed>25.03</speed>
  <fix>3d</fix>
</trkpt>
<trkpt lat="-27.2750363" lon="151.2898145">
  <ele>372.9</ele>
  <time>2026-09-01T20:03:31Z</time>
  <course>255.54</course>
  <speed>25.69304380566849</speed>
  <fix>3d</fix>
</trkpt>
<trkpt lat="-27.275041" lon="151.2898452">
  <ele>373.06</ele>
  <time>2026-09-01T20:03:31Z</time>
  <course>279.92</course>
  <speed>25.7</speed>
  <fix>3d</fix>
</trkpt>
<trkpt lat="-27.2750323" lon="151.2897892">
  <ele>373.24</ele>
  <time>2026-09-01T20:03:31Z</time>
  <course>257.75</course>
  <speed>25.69304380566849</speed>
  <fix>3d</fix>
</trkpt>
<trkpt lat="-27.275041" lon="151.2898452">
  <ele>373.06</ele>
  <time>2026-09-01T20:03:31Z</time>
  <course>279.92</course>
  <speed>25.7</speed>
  <fix>3d</fix>
</trkpt>
<trkpt lat="-27.2750246" lon="151.2897626">
  <ele>373.39</ele>
  <time>2026-09-01T20:03:31Z</time>
  <course>259.98</course>
  <speed>26.388004850689263</speed>
  <fix>3d</fix>
</trkpt>
<trkpt lat="-27.2750314" lon="151.2897936">
  <ele>373.18</ele>
  <time>2026-09-01T20:03:31Z</time>
  <course>283.86</course>
  <speed>26.39</speed>
  <fix>3d</fix>
</trkpt>
<trkpt lat="-27.2750189" lon="151.2897367">
  <ele>373.16</ele>
  <time>2026-09-01T20:03:31Z</time>
  <course>262.22</course>
  <speed>26.388004850689263</speed>
  <fix>3d</fix>
</trkpt>
<trkpt lat="-27.2750314" lon="151.2897936">
  <ele>373.18</ele>
  <time>2026-09-01T20:03:31Z</time>
  <course>283.86</course>
  <speed>26.39</speed>
  <fix>3d</fix>
</trkpt>
<trkpt lat="-27.2750093" lon="151.2897103">
  <ele>373.22</ele>
  <time>2026-09-01T20:03:31Z</time>
  <course>264.53</course>
  <speed>27.111416414492254</speed>
  <fix>3d</fix>
</trkpt>
<trkpt lat="-27.2750182" lon="151.2897415">
  <ele>373.31</ele>
  <time>2026-09-01T20:03:31Z</time>
  <course>287.9</course>
  <speed>27.11</speed>
  <fix>3d</fix>
</trkpt>
<trkpt lat="-27.2750018" lon="151.2896842">
  <ele>373.45</ele>
  <time>2026-09-01T20:03:31Z</time>
  <course>266.91</course>
  <speed>27.111416414492254</speed>
  <fix>3d</fix>
</trkpt>
<trkpt lat="-27.2750182" lon="151.2897415">
  <ele>373.31</ele>
  <time>2026-09-01T20:03:31Z</time>
  <course>287.9</course>
  <speed>27.11</speed>
  <fix>3d</fix>
</trkpt>
<trkpt lat="-27.2749901" lon="151.289658">
  <ele>373.48</ele>
  <time>2026-09-01T20:03:31Z</time>
  <course>269.29</course>
  <speed>27.837762122699445</speed>
  <fix>3d</fix>
</trkpt>
<trkpt lat="-27.2750013" lon="151.2896893">
  <ele>373.46</ele>
  <time>2026-09-01T20:03:31Z</time>
  <course>292.0</course>
  <speed>27.84</speed>
  <fix>3d</fix>
</trkpt>
<trkpt lat="-27.2749807" lon="151.2896319">
  <ele>373.5</ele>
  <time>2026-09-01T20:03:31Z</time>
  <course>271.77</course>
  <speed>27.837762122699445</speed>
  <fix>3d</fix>
</trkpt>
<trkpt lat="-27.2750013" lon="151.2896893">
  <ele>373.46</ele>
  <time>2026-09-01T20:03:31Z</time>
  <course>292.0</course>
  <speed>27.84</speed>
  <fix>3d</fix>
</trkpt>
<trkpt lat="-27.274967" lon="151.2896062">
  <ele>373.51</ele>
  <time>2026-09-01T20:03:31Z</time>
  <course>274.35</course>
  <speed>28.586481070603988</speed>
  <fix>3d</fix>
</trkpt>
<trkpt lat="-27.2749806" lon="151.2896373">
  <ele>373.62</ele>
  <time>2026-09-01T20:03:31Z</time>
  <course>296.19</course>
  <speed>28.59</speed>
  <fix>3d</fix>
</trkpt>
<trkpt lat="-27.2749557" lon="151.2895803">
  <ele>373.91</ele>
  <time>2026-09-01T20:03:31Z</time>
  <course>277.03</course>
  <speed>28.586481070603988</speed>
  <fix>3d</fix>
</trkpt>
<trkpt lat="-27.2749806" lon="151.2896373">
  <ele>373.62</ele>
  <time>2026-09-01T20:03:31Z</time>
  <course>296.19</course>
  <speed>28.59</speed>
  <fix>3d</fix>
</trkpt>
<trkpt lat="-27.2749399" lon="151.2895552">
  <ele>373.91</ele>
  <time>2026-09-01T20:03:31Z</time>
  <course>279.71</course>
  <speed>29.35800061312078</speed>
  <fix>3d</fix>
</trkpt>
<trkpt lat="-27.2749559" lon="151.2895858">
  <ele>373.8</ele>
  <time>2026-09-01T20:03:31Z</time>
  <course>300.51</course>
  <speed>29.36</speed>
  <fix>3d</fix>
</trkpt>
<trkpt lat="-27.2749263" lon="151.2895294">
  <ele>373.99</ele>
  <time>2026-09-01T20:03:31Z</time>
  <course>282.53</course>
  <speed>29.35800061312078</speed>
  <fix>3d</fix>
</trkpt>
<trkpt lat="-27.2749559" lon="151.2895858">
  <ele>373.8</ele>
  <time>2026-09-01T20:03:31Z</time>
  <course>300.51</course>
  <speed>29.36</speed>
  <fix>3d</fix>
</trkpt>
<trkpt lat="-27.2749084" lon="151.2895053">
  <ele>374.05</ele>
  <time>2026-09-01T20:03:31Z</time>
  <course>285.35</course>
  <speed>30.128073287218353</speed>
  <fix>3d</fix>
</trkpt>
<trkpt lat="-27.274927" lon="151.2895352">
  <ele>374.0</ele>
  <time>2026-09-01T20:03:31Z</time>
  <course>304.99</course>
  <speed>30.13</speed>
  <fix>3d</fix>
</trkpt>
<trkpt lat="-27.2748929" lon="151.2894804">
  <ele>374.12</ele>
  <time>2026-09-01T20:03:31Z</time>
  <course>288.25</course>
  <speed>30.128073287218353</speed>
  <fix>3d</fix>
</trkpt>
<trkpt lat="-27.274927" lon="151.2895352">
  <ele>374.0</ele>
  <time>2026-09-01T20:03:31Z</time>
  <course>304.99</course>
  <speed>30.13</speed>
  <fix>3d</fix>
</trkpt>
<trkpt lat="-27.2748726" lon="151.2894574">
  <ele>374.22</ele>
  <time>2026-09-01T20:03:31Z</time>
  <course>291.24</course>
  <speed>30.896799186970807</speed>
  <fix>3d</fix>
</trkpt>
<trkpt lat="-27.2748938" lon="151.2894862">
  <ele>374.22</ele>
  <time>2026-09-01T20:03:31Z</time>
  <course>309.59</course>
  <speed>30.9</speed>
  <fix>3d</fix>
</trkpt>
<trkpt lat="-27.2748549" lon="151.2894333">
  <ele>374.63</ele>
  <time>2026-09-01T20:03:31Z</time>
  <course>294.21</course>
  <speed>30.896799186970807</speed>
  <fix>3d</fix>
</trkpt>
<trkpt lat="-27.2748938" lon="151.2894862">
  <ele>374.22</ele>
  <time>2026-09-01T20:03:31Z</time>
  <course>309.59</course>
  <speed>30.9</speed>
  <fix>3d</fix>
</trkpt>
<trkpt lat="-27.2748324" lon="151.2894118">
  <ele>374.54</ele>
  <time>2026-09-01T20:03:31Z</time>
  <course>297.22</course>
  <speed>31.645595270116186</speed>
  <fix>3d</fix>
</trkpt>
<trkpt lat="-27.2748562" lon="151.2894392">
  <ele>374.47</ele>
  <time>2026-09-01T20:03:31Z</time>
  <course>314.27</course>
  <speed>31.65</speed>
  <fix>3d</fix>
</trkpt>
<trkpt lat="-27.2748126" lon="151.2893889">
  <ele>374.68</ele>
  <time>2026-09-01T20:03:31Z</time>
  <course>300.36</course>
  <speed>31.645595270116186</speed>
  <fix>3d</fix>
</trkpt>
<trkpt lat="-27.2748562" lon="151.2894392">
  <ele>374.47</ele>
  <time>2026-09-01T20:03:31Z</time>
  <course>314.27</course>
  <speed>31.65</speed>
  <fix>3d</fix>
</trkpt>
<trkpt lat="-27.2747881" lon="151.2893691">
  <ele>375.01</ele>
  <time>2026-09-01T20:03:31Z</time>
  <course>303.57</course>
  <speed>32.36668039821199</speed>
  <fix>3d</fix>
</trkpt>
<trkpt lat="-27.2748144" lon="151.2893948">
  <ele>374.75</ele>
  <time>2026-09-01T20:03:31Z</time>
  <course>319.02</course>
  <speed>32.37</speed>
  <fix>3d</fix>
</trkpt>
<trkpt lat="-27.2747661" lon="151.2893476">
  <ele>375.02</ele>
  <time>2026-09-01T20:03:31Z</time>
  <course>306.92</course>
  <speed>32.36668039821199</speed>
  <fix>3d</fix>
</trkpt>
<trkpt lat="-27.2748144" lon="151.2893948">
  <ele>374.75</ele>
  <time>2026-09-01T20:03:31Z</time>
  <course>319.02</course>
  <speed>32.37</speed>
  <fix>3d</fix>
</trkpt>
<trkpt lat="-27.2747397" lon="151.2893301">
  <ele>375.24</ele>
  <time>2026-09-01T20:03:31Z</time>
  <course>310.28</course>
  <speed>33.053063398117885</speed>
  <fix>3d</fix>
</trkpt>
<trkpt lat="-27.2747685" lon="151.2893537">
  <ele>375.05</ele>
  <time>2026-09-01T20:03:31Z</time>
  <course>323.91</course>
  <speed>33.06</speed>
  <fix>3d</fix>
</trkpt>
<trkpt lat="-27.274716" lon="151.2893107">
  <ele>375.32</ele>
  <time>2026-09-01T20:03:31Z</time>
  <course>313.69</course>
  <speed>33.053063398117885</speed>
  <fix>3d</fix>
</trkpt>
<trkpt lat="-27.2747685" lon="151.2893537">
  <ele>375.05</ele>
  <time>2026-09-01T20:03:31Z</time>
  <course>323.91</course>
  <speed>33.06</speed>
  <fix>3d</fix>
</trkpt>
<trkpt lat="-27.2746873" lon="151.2892953">
  <ele>375.48</ele>
  <time>2026-09-01T20:03:31Z</time>
  <course>317.21</course>
  <speed>33.70120620986733</speed>
  <fix>3d</fix>
</trkpt>
<trkpt lat="-27.2747184" lon="151.2893163">
  <ele>375.37</ele>
  <time>2026-09-01T20:03:31Z</time>
  <course>328.96</course>
  <speed>33.71</speed>
  <fix>3d</fix>
</trkpt>
<trkpt lat="-27.2746614" lon="151.2892777">
  <ele>375.67</ele>
  <time>2026-09-01T20:03:31Z</time>
  <course>320.78</course>
  <speed>33.70120620986733</speed>
  <fix>3d</fix>
</trkpt>
<trkpt lat="-27.2747184" lon="151.2893163">
  <ele>375.37</ele>
  <time>2026-09-01T20:03:31Z</time>
  <course>328.96</course>
  <speed>33.71</speed>
  <fix>3d</fix>
</trkpt>
<trkpt lat="-27.2746314" lon="151.2892654">
  <ele>375.75</ele>
  <time>2026-09-01T20:03:31Z</time>
  <course>324.41</course>
  <speed>34.29055409292769</speed>
  <fix>3d</fix>
</trkpt>
<trkpt lat="-27.2746646" lon="151.2892835">
  <ele>375.72</ele>
  <time>2026-09-01T20:03:31Z</time>
  <course>334.14</course>
  <speed>34.3</speed>
  <fix>3d</fix>
</trkpt>
<trkpt lat="-27.2746036" lon="151.2892503">
  <ele>376.2</ele>
  <time>2026-09-01T20:03:31Z</time>
  <course>328.09</course>
  <speed>34.29055409292769</speed>
  <fix>3d</fix>
</trkpt>
<trkpt lat="-27.2746646" lon="151.2892835">
  <ele>375.72</ele>
  <time>2026-09-01T20:03:31Z</time>
  <course>334.14</course>
  <speed>34.3</speed>
  <fix>3d</fix>
</trkpt>
<trkpt lat="-27.2745724" lon="151.2892412">
  <ele>376.06</ele>
  <time>2026-09-01T20:03:31Z</time>
  <course>331.72</course>
  <speed>34.79984626402824</speed>
  <fix>3d</fix>
</trkpt>
<trkpt lat="-27.2746075" lon="151.289256">
  <ele>376.11</ele>
  <time>2026-09-01T20:03:31Z</time>
  <course>339.42</course>
  <speed>34.8</speed>
  <fix>3d</fix>
</trkpt>
<trkpt lat="-27.2745431" lon="151.2892288">
  <ele>376.38</ele>
  <time>2026-09-01T20:03:31Z</time>
  <course>335.44</course>
  <speed>34.79984626402824</speed>
  <fix>3d</fix>
</trkpt>
<trkpt lat="-27.2746075" lon="151.289256">
  <ele>376.11</ele>
  <time>2026-09-01T20:03:31Z</time>
  <course>339.42</course>
  <speed>34.8</speed>
  <fix>3d</fix>
</trkpt>
<trkpt lat="-27.2745111" lon="151.289223">
  <ele>376.49</ele>
  <time>2026-09-01T20:03:31Z</time>
  <course>339.22</course>
  <speed>35.20686580768018</speed>
  <fix>3d</fix>
</trkpt>
<trkpt lat="-27.2745477" lon="151.2892342">
  <ele>376.52</ele>
  <time>2026-09-01T20:03:31Z</time>
  <course>344.76</course>
  <speed>35.21</speed>
  <fix>3d</fix>
</trkpt>
<trkpt lat="-27.2744806" lon="151.2892137">
  <ele>376.84</ele>
  <time>2026-09-01T20:03:31Z</time>
  <course>342.99</course>
  <speed>35.20686580768018</speed>
  <fix>3d</fix>
</trkpt>
<trkpt lat="-27.2745477" lon="151.2892342">
  <ele>376.52</ele>
  <time>2026-09-01T20:03:31Z</time>
  <course>344.76</course>
  <speed>35.21</speed>
  <fix>3d</fix>
</trkpt>
<trkpt lat="-27.2744482" lon="151.2892114">
  <ele>377.14</ele>
  <time>2026-09-01T20:03:31Z</time>
  <course>346.73</course>
  <speed>35.48475729098341</speed>
  <fix>3d</fix>
</trkpt>
<trkpt lat="-27.2744858" lon="151.2892187">
  <ele>376.97</ele>
  <time>2026-09-01T20:03:31Z</time>
  <course>350.12</course>
  <speed>35.48</speed>
  <fix>3d</fix>
</trkpt>
<trkpt lat="-27.2744168" lon="151.2892052">
  <ele>377.52</ele>
  <time>2026-09-01T20:03:31Z</time>
  <course>350.27</course>
  <speed>35.48475729098341</speed>
  <fix>3d</fix>
</trkpt>
<trkpt lat="-27.2744858" lon="151.2892187">
  <ele>376.97</ele>
  <time>2026-09-01T20:03:31Z</time>
  <course>350.12</course>
  <speed>35.48</speed>
  <fix>3d</fix>
</trkpt>
<trkpt lat="-27.2743842" lon="151.2892063">
  <ele>377.76</ele>
  <time>2026-09-01T20:03:31Z</time>
  <course>353.85</course>
  <speed>35.614217666544356</speed>
  <fix>3d</fix>
</trkpt>
<trkpt lat="-27.2744224" lon="151.2892097">
  <ele>377.44</ele>
  <time>2026-09-01T20:03:31Z</time>
  <course>355.39</course>
  <speed>35.62</speed>
  <fix>3d</fix>
</trkpt>
<trkpt lat="-27.2743523" lon="151.2892034">
  <ele>378.05</ele>
  <time>2026-09-01T20:03:31Z</time>
  <course>357.32</course>
  <speed>35.614217666544356</speed>
  <fix>3d</fix>
</trkpt>
<trkpt lat="-27.2744224" lon="151.2892097">
  <ele>377.44</ele>
  <time>2026-09-01T20:03:31Z</time>
  <course>355.39</course>
  <speed>35.62</speed>
  <fix>3d</fix>
</trkpt>
<trkpt lat="-27.2743202" lon="151.2892074">
  <ele>378.24</ele>
  <time>2026-09-01T20:03:31Z</time>
  <course>0.71</course>
  <speed>35.61110079736373</speed>
  <fix>3d</fix>
</trkpt>
<trkpt lat="-27.2743585" lon="151.2892071">
  <ele>377.92</ele>
  <time>2026-09-01T20:03:31Z</time>
  <course>0.45</course>
  <speed>35.61</speed>
  <fix>3d</fix>
</trkpt>
<trkpt lat="-27.2742882" lon="151.2892077">
  <ele>378.23</ele>
  <time>2026-09-01T20:03:31Z</time>
  <course>4.09</course>
  <speed>35.61110079736373</speed>
  <fix>3d</fix>
</trkpt>
<trkpt lat="-27.2743585" lon="151.2892071">
  <ele>377.92</ele>
  <time>2026-09-01T20:03:31Z</time>
  <course>0.45</course>
  <speed>35.61</speed>
  <fix>3d</fix>
</trkpt>
<trkpt lat="-27.2742567" lon="151.2892146">
  <ele>378.58</ele>
  <time>2026-09-01T20:03:31Z</time>
  <course>7.3</course>
  <speed>35.48192920346919</speed>
  <fix>3d</fix>
</trkpt>
<trkpt lat="-27.2742947" lon="151.2892107">
  <ele>378.41</ele>
  <time>2026-09-01T20:03:31Z</time>
  <course>5.3</course>
  <speed>35.48</speed>
  <fix>3d</fix>
</trkpt>
<trkpt lat="-27.2742249" lon="151.2892179">
  <ele>378.66</ele>
  <time>2026-09-01T20:03:31Z</time>
  <course>10.42</course>
  <speed>35.48192920346919</speed>
  <fix>3d</fix>
</trkpt>
<trkpt lat="-27.2742947" lon="151.2892107">
  <ele>378.41</ele>
  <time>2026-09-01T20:03:31Z</time>
  <course>5.3</course>
  <speed>35.48</speed>
  <fix>3d</fix>
</trkpt>
<trkpt lat="-27.2741944" lon="151.2892275">
  <ele>378.91</ele>
  <time>2026-09-01T20:03:31Z</time>
  <course>13.57</course>
  <speed>35.25473727033007</speed>
  <fix>3d</fix>
</trkpt>
<trkpt lat="-27.2742318" lon="151.2892202">
  <ele>378.87</ele>
  <time>2026-09-01T20:03:31Z</time>
  <course>9.91</course>
  <speed>35.25</speed>
  <fix>3d</fix>
</trkpt>
<trkpt lat="-27.2741629" lon="151.2892337">
  <ele>379.17</ele>
  <time>2026-09-01T20:03:31Z</time>
  <course>16.65</course>
  <speed>35.25473727033007</speed>
  <fix>3d</fix>
</trkpt>
<trkpt lat="-27.2742318" lon="151.2892202">
  <ele>378.87</ele>
  <time>2026-09-01T20:03:31Z</time>
  <course>9.91</course>
  <speed>35.25</speed>
  <fix>3d</fix>
</trkpt>
<trkpt lat="-27.2741336" lon="151.2892455">
  <ele>379.41</ele>
  <time>2026-09-01T20:03:31Z</time>
  <course>19.6</course>
  <speed>34.9521644537216</speed>
  <fix>3d</fix>
</trkpt>
<trkpt lat="-27.2741701" lon="151.2892351">
  <ele>379.3</ele>
  <time>2026-09-01T20:03:31Z</time>
  <course>14.29</course>
  <speed>34.95</speed>
  <fix>3d</fix>
</trkpt>
<trkpt lat="-27.2741032" lon="151.2892542">
  <ele>379.65</ele>
  <time>2026-09-01T20:03:31Z</time>
  <course>22.47</course>
  <speed>34.9521644537216</speed>
  <fix>3d</fix>
</trkpt>
<trkpt lat="-27.2741701" lon="151.2892351">
  <ele>379.3</ele>
  <time>2026-09-01T20:03:31Z</time>
  <course>14.29</course>
  <speed>34.95</speed>
  <fix>3d</fix>
</trkpt>
<trkpt lat="-27.2740748" lon="151.2892683">
  <ele>379.9</ele>
  <time>2026-09-01T20:03:31Z</time>
  <course>25.36</course>
  <speed>34.59850430293194</speed>
  <fix>3d</fix>
</trkpt>
<trkpt lat="-27.2741101" lon="151.289255">
  <ele>379.68</ele>
  <time>2026-09-01T20:03:31Z</time>
  <course>18.5</course>
  <speed>34.6</speed>
  <fix>3d</fix>
</trkpt>
<trkpt lat="-27.2740453" lon="151.2892794">
  <ele>379.87</ele>
  <time>2026-09-01T20:03:31Z</time>
  <course>28.33</course>
  <speed>34.59850430293194</speed>
  <fix>3d</fix>
</trkpt>
<trkpt lat="-27.2741101" lon="151.289255">
  <ele>379.68</ele>
  <time>2026-09-01T20:03:31Z</time>
  <course>18.5</course>
  <speed>34.6</speed>
  <fix>3d</fix>
</trkpt>
<trkpt lat="-27.2740182" lon="151.2892954">
  <ele>380.05</ele>
  <time>2026-09-01T20:03:31Z</time>
  <course>31.23</course>
  <speed>34.1676923423283</speed>
  <fix>3d</fix>
</trkpt>
<trkpt lat="-27.2740522" lon="151.2892795">
  <ele>379.98</ele>
  <time>2026-09-01T20:03:31Z</time>
  <course>22.61</course>
  <speed>34.17</speed>
  <fix>3d</fix>
</trkpt>
<trkpt lat="-27.2739899" lon="151.2893087">
  <ele>380.29</ele>
  <time>2026-09-01T20:03:31Z</time>
  <course>34.07</course>
  <speed>34.1676923423283</speed>
  <fix>3d</fix>
</trkpt>
<trkpt lat="-27.2740522" lon="151.2892795">
  <ele>379.98</ele>
  <time>2026-09-01T20:03:31Z</time>
  <course>22.61</course>
  <speed>34.17</speed>
  <fix>3d</fix>
</trkpt>
<trkpt lat="-27.2739644" lon="151.2893264">
  <ele>380.15</ele>
  <time>2026-09-01T20:03:31Z</time>
  <course>37.0</course>
  <speed>33.688731053573385</speed>
  <fix>3d</fix>
</trkpt>
<trkpt lat="-27.2739968" lon="151.2893081">
  <ele>380.21</ele>
  <time>2026-09-01T20:03:31Z</time>
  <course>26.72</course>
  <speed>33.69</speed>
  <fix>3d</fix>
</trkpt>
<trkpt lat="-27.2739374" lon="151.2893417">
  <ele>380.49</ele>
  <time>2026-09-01T20:03:31Z</time>
  <course>39.97</course>
  <speed>33.688731053573385</speed>
  <fix>3d</fix>
</trkpt>
<trkpt lat="-27.2739968" lon="151.2893081">
  <ele>380.21</ele>
  <time>2026-09-01T20:03:31Z</time>
  <course>26.72</course>
  <speed>33.69</speed>
  <fix>3d</fix>
</trkpt>
<trkpt lat="-27.2739136" lon="151.2893612">
  <ele>380.57</ele>
  <time>2026-09-01T20:03:31Z</time>
  <course>43.0</course>
  <speed>33.147286465109026</speed>
  <fix>3d</fix>
</trkpt>
<trkpt lat="-27.2739442" lon="151.2893406">
  <ele>380.37</ele>
  <time>2026-09-01T20:03:31Z</time>
  <course>30.88</course>
  <speed>33.15</speed>
  <fix>3d</fix>
</trkpt>
<trkpt lat="-27.273888" lon="151.2893784">
  <ele>380.29</ele>
  <time>2026-09-01T20:03:31Z</time>
  <course>46.04</course>
  <speed>33.147286465109026</speed>
  <fix>3d</fix>
</trkpt>
<trkpt lat="-27.2739442" lon="151.2893406">
  <ele>380.37</ele>
  <time>2026-09-01T20:03:31Z</time>
  <course>30.88</course>
  <speed>33.15</speed>
  <fix>3d</fix>
</trkpt>
<trkpt lat="-27.2738662" lon="151.2893995">
  <ele>380.26</ele>
  <time>2026-09-01T20:03:31Z</time>
  <course>49.06</course>
  <speed>32.53598930415364</speed>
  <fix>3d</fix>
</trkpt>
<trkpt lat="-27.2738948" lon="151.2893768">
  <ele>380.45</ele>
  <time>2026-09-01T20:03:31Z</time>
  <course>35.18</course>
  <speed>32.54</speed>
  <fix>3d</fix>
</trkpt>
<trkpt lat="-27.2738423" lon="151.2894184">
  <ele>380.36</ele>
  <time>2026-09-01T20:03:31Z</time>
  <course>52.1</course>
  <speed>32.53598930415364</speed>
  <fix>3d</fix>
</trkpt>
<trkpt lat="-27.2738948" lon="151.2893768">
  <ele>380.45</ele>
  <time>2026-09-01T20:03:31Z</time>
  <course>35.18</course>
  <speed>32.54</speed>
  <fix>3d</fix>
</trkpt>
<trkpt lat="-27.2738224" lon="151.2894409">
  <ele>380.36</ele>
  <time>2026-09-01T20:03:31Z</time>
  <course>55.17</course>
  <speed>31.854476922404487</speed>
  <fix>3d</fix>
</trkpt>
<trkpt lat="-27.2738488" lon="151.2894163">
  <ele>380.45</ele>
  <time>2026-09-01T20:03:31Z</time>
  <course>39.61</course>
  <speed>31.86</speed>
  <fix>3d</fix>
</trkpt>
<trkpt lat="-27.2738003" lon="151.2894614">
  <ele>380.24</ele>
  <time>2026-09-01T20:03:31Z</time>
  <course>58.31</course>
  <speed>31.854476922404487</speed>
  <fix>3d</fix>
</trkpt>
<trkpt lat="-27.2738488" lon="151.2894163">
  <ele>380.45</ele>
  <time>2026-09-01T20:03:31Z</time>
  <course>39.61</course>
  <speed>31.86</speed>
  <fix>3d</fix>
</trkpt>
<trkpt lat="-27.2737827" lon="151.2894849">
  <ele>380.34</ele>
  <time>2026-09-01T20:03:31Z</time>
  <course>61.44</course>
  <speed>31.108817078121113</speed>
  <fix>3d</fix>
</trkpt>
<trkpt lat="-27.2738067" lon="151.2894587">
  <ele>380.39</ele>
  <time>2026-09-01T20:03:31Z</time>
  <course>44.17</course>
  <speed>31.11</speed>
  <fix>3d</fix>
</trkpt>
<trkpt lat="-27.2737627" lon="151.2895069">
  <ele>380.33</ele>
  <time>2026-09-01T20:03:31Z</time>
  <course>64.67</course>
  <speed>31.108817078121113</speed>
  <fix>3d</fix>
</trkpt>
<trkpt lat="-27.2738067" lon="151.2894587">
  <ele>380.39</ele>
  <time>2026-09-01T20:03:31Z</time>
  <course>44.17</course>
  <speed>31.11</speed>
  <fix>3d</fix>
</trkpt>
<trkpt lat="-27.2737474" lon="151.2895313">
  <ele>380.11</ele>
  <time>2026-09-01T20:03:31Z</time>
  <course>67.9</course>
  <speed>30.279052164821806</speed>
  <fix>3d</fix>
</trkpt>
<trkpt lat="-27.2737688" lon="151.2895037">
  <ele>380.27</ele>
  <time>2026-09-01T20:03:31Z</time>
  <course>48.94</course>
  <speed>30.28</speed>
  <fix>3d</fix>
</trkpt>
<trkpt lat="-27.2737295" lon="151.2895544">
  <ele>380.15</ele>
  <time>2026-09-01T20:03:31Z</time>
  <course>71.1</course>
  <speed>30.279052164821806</speed>
  <fix>3d</fix>
</trkpt>
<trkpt lat="-27.2737688" lon="151.2895037">
  <ele>380.27</ele>
  <time>2026-09-01T20:03:31Z</time>
  <course>48.94</course>
  <speed>30.28</speed>
  <fix>3d</fix>
</trkpt>
<trkpt lat="-27.2737168" lon="151.2895797">
  <ele>380.09</ele>
  <time>2026-09-01T20:03:31Z</time>
  <course>74.42</course>
  <speed>29.385059128747727</speed>
  <fix>3d</fix>
</trkpt>
<trkpt lat="-27.2737354" lon="151.2895509">
  <ele>380.1</ele>
  <time>2026-09-01T20:03:31Z</time>
  <course>53.96</course>
  <speed>29.38</speed>
  <fix>3d</fix>
</trkpt>
<trkpt lat="-27.2737013" lon="151.2896037">
  <ele>380.01</ele>
  <time>2026-09-01T20:03:31Z</time>
  <course>77.76</course>
  <speed>29.385059128747727</speed>
  <fix>3d</fix>
</trkpt>
<trkpt lat="-27.2737354" lon="151.2895509">
  <ele>380.1</ele>
  <time>2026-09-01T20:03:31Z</time>
  <course>53.96</course>
  <speed>29.38</speed>
  <fix>3d</fix>
</trkpt>
<trkpt lat="-27.2736912" lon="151.2896293">
  <ele>379.79</ele>
  <time>2026-09-01T20:03:31Z</time>
  <course>81.03</course>
  <speed>28.4123159914851</speed>
  <fix>3d</fix>
</trkpt>
<trkpt lat="-27.2737068" lon="151.2895997">
  <ele>379.88</ele>
  <time>2026-09-01T20:03:31Z</time>
  <course>59.21</course>
  <speed>28.41</speed>
  <fix>3d</fix>
</trkpt>
<trkpt lat="-27.2736781" lon="151.2896539">
  <ele>379.48</ele>
  <time>2026-09-01T20:03:31Z</time>
  <course>84.33</course>
  <speed>28.4123159914851</speed>
  <fix>3d</fix>
</trkpt>
<trkpt lat="-27.2737068" lon="151.2895997">
  <ele>379.88</ele>
  <time>2026-09-01T20:03:31Z</time>
  <course>59.21</course>
  <speed>28.41</speed>
  <fix>3d</fix>
</trkpt>
<trkpt lat="-27.2736707" lon="151.2896793">
  <ele>379.51</ele>
  <time>2026-09-01T20:03:31Z</time>
  <course>87.61</course>
  <speed>27.362328117322182</speed>
  <fix>3d</fix>
</trkpt>
<trkpt lat="-27.2736833" lon="151.2896493">
  <ele>379.62</ele>
  <time>2026-09-01T20:03:31Z</time>
  <course>64.66</course>
  <speed>27.37</speed>
  <fix>3d</fix>
</trkpt>
<trkpt lat="-27.2736602" lon="151.2897043">
  <ele>379.3</ele>
  <time>2026-09-01T20:03:31Z</time>
  <course>90.79</course>
  <speed>27.362328117322182</speed>
  <fix>3d</fix>
</trkpt>
<trkpt lat="-27.2736833" lon="151.2896493">
  <ele>379.62</ele>
  <time>2026-09-01T20:03:31Z</time>
  <course>64.66</course>
  <speed>27.37</speed>
  <fix>3d</fix>
</trkpt>
<trkpt lat="-27.2736497" lon="151.2897293">
  <ele>379.15</ele>
  <time>2026-09-01T20:03:31Z</time>
  <course>93.95</course>
  <speed>27.362328117322182</speed>
  <fix>3d</fix>
</trkpt>
<trkpt lat="-27.2736833" lon="151.2896493">
  <ele>379.62</ele>
  <time>2026-09-01T20:03:31Z</time>
  <course>64.66</course>
  <speed>27.37</speed>
  <fix>3d</fix>
</trkpt>
<trkpt lat="-27.2736489" lon="151.2897495">
  <ele>379.08</ele>
  <time>2026-09-01T20:03:31Z</time>
  <course>96.98</course>
  <speed>26.27598333079088</speed>
  <fix>3d</fix>
</trkpt>
<trkpt lat="-27.2736648" lon="151.2896995">
  <ele>379.33</ele>
  <time>2026-09-01T20:03:31Z</time>
  <course>70.24</course>
  <speed>26.28</speed>
  <fix>3d</fix>
</trkpt>
<trkpt lat="-27.2736446" lon="151.289779">
  <ele>378.88</ele>
  <time>2026-09-01T20:03:31Z</time>
  <course>99.99</course>
  <speed>25.18495582684234</speed>
  <fix>3d</fix>
</trkpt>
<trkpt lat="-27.2736512" lon="151.2897494">
  <ele>379.01</ele>
  <time>2026-09-01T20:03:31Z</time>
  <course>75.82</course>
  <speed>25.19</speed>
  <fix>3d</fix>
</trkpt>
<trkpt lat="-27.2736391" lon="151.2898037">
  <ele>378.56</ele>
  <time>2026-09-01T20:03:31Z</time>
  <course>102.83</course>
  <speed>25.18495582684234</speed>
  <fix>3d</fix>
</trkpt>
<trkpt lat="-27.2736512" lon="151.2897494">
  <ele>379.01</ele>
  <time>2026-09-01T20:03:31Z</time>
  <course>75.82</course>
  <speed>25.19</speed>
  <fix>3d</fix>
</trkpt>
<trkpt lat="-27.2736385" lon="151.2898271">
  <ele>378.61</ele>
  <time>2026-09-01T20:03:31Z</time>
  <course>105.53</course>
  <speed>24.11779633382785</speed>
  <fix>3d</fix>
</trkpt>
<trkpt lat="-27.2736424" lon="151.2897982">
  <ele>378.66</ele>
  <time>2026-09-01T20:03:31Z</time>
  <course>81.29</course>
  <speed>24.12</speed>
  <fix>3d</fix>
</trkpt>
<trkpt lat="-27.2736352" lon="151.2898512">
  <ele>378.25</ele>
  <time>2026-09-01T20:03:31Z</time>
  <course>108.18</course>
  <speed>24.11779633382785</speed>
  <fix>3d</fix>
</trkpt>
<trkpt lat="-27.2736424" lon="151.2897982">
  <ele>378.66</ele>
  <time>2026-09-01T20:03:31Z</time>
  <course>81.29</course>
  <speed>24.12</speed>
  <fix>3d</fix>
</trkpt>
<trkpt lat="-27.2736366" lon="151.2898734">
  <ele>378.21</ele>
  <time>2026-09-01T20:03:31Z</time>
  <course>110.67</course>
  <speed>23.08069539680293</speed>
  <fix>3d</fix>
</trkpt>
<trkpt lat="-27.273638" lon="151.2898455">
  <ele>378.27</ele>
  <time>2026-09-01T20:03:31Z</time>
  <course>86.59</course>
  <speed>23.08</speed>
  <fix>3d</fix>
</trkpt>
<trkpt lat="-27.2736353" lon="151.2898967">
  <ele>377.75</ele>
  <time>2026-09-01T20:03:31Z</time>
  <course>113.02</course>
  <speed>23.08069539680293</speed>
  <fix>3d</fix>
</trkpt>
<trkpt lat="-27.273638" lon="151.2898455">
  <ele>378.27</ele>
  <time>2026-09-01T20:03:31Z</time>
  <course>86.59</course>
  <speed>23.08</speed>
  <fix>3d</fix>
</trkpt>
<trkpt lat="-27.2736379" lon="151.289918">
  <ele>377.62</ele>
  <time>2026-09-01T20:03:31Z</time>
  <course>115.27</course>
  <speed>22.108977814453564</speed>
  <fix>3d</fix>
</trkpt>
<trkpt lat="-27.2736373" lon="151.2898912">
  <ele>377.85</ele>
  <time>2026-09-01T20:03:31Z</time>
  <course>91.64</course>
  <speed>22.11</speed>
  <fix>3d</fix>
</trkpt>
<trkpt lat="-27.2736385" lon="151.2899403">
  <ele>377.6</ele>
  <time>2026-09-01T20:03:31Z</time>
  <course>117.37</course>
  <speed>22.108977814453564</speed>
  <fix>3d</fix>
</trkpt>
<trkpt lat="-27.2736373" lon="151.2898912">
  <ele>377.85</ele>
  <time>2026-09-01T20:03:31Z</time>
  <course>91.64</course>
  <speed>22.11</speed>
  <fix>3d</fix>
</trkpt>
<trkpt lat="-27.2736425" lon="151.2899603">
  <ele>377.31</ele>
  <time>2026-09-01T20:03:31Z</time>
  <course>119.32</course>
  <speed>21.230461605909564</speed>
  <fix>3d</fix>
</trkpt>
<trkpt lat="-27.27364" lon="151.2899348">
  <ele>377.39</ele>
  <time>2026-09-01T20:03:31Z</time>
  <course>96.35</course>
  <speed>21.23</speed>
  <fix>3d</fix>
</trkpt>
<trkpt lat="-27.2736446" lon="151.2899817">
  <ele>376.83</ele>
  <time>2026-09-01T20:03:31Z</time>
  <course>121.14</course>
  <speed>21.230461605909564</speed>
  <fix>3d</fix>
</trkpt>
<trkpt lat="-27.27364" lon="151.2899348">
  <ele>377.39</ele>
  <time>2026-09-01T20:03:31Z</time>
  <course>96.35</course>
  <speed>21.23</speed>
  <fix>3d</fix>
</trkpt>
<trkpt lat="-27.2736496" lon="151.2900008">
  <ele>376.79</ele>
  <time>2026-09-01T20:03:31Z</time>
  <course>122.85</course>
  <speed>20.452344608870643</speed>
  <fix>3d</fix>
</trkpt>
<trkpt lat="-27.2736456" lon="151.2899765">
  <ele>376.88</ele>
  <time>2026-09-01T20:03:31Z</time>
  <course>100.67</course>
  <speed>20.45</speed>
  <fix>3d</fix>
</trkpt>
<trkpt lat="-27.273653" lon="151.2900211">
  <ele>376.53</ele>
  <time>2026-09-01T20:03:31Z</time>
  <course>124.48</course>
  <speed>20.452344608870643</speed>
  <fix>3d</fix>
</trkpt>
<trkpt lat="-27.2736456" lon="151.2899765">
  <ele>376.88</ele>
  <time>2026-09-01T20:03:31Z</time>
  <course>100.67</course>
  <speed>20.45</speed>
  <fix>3d</fix>
</trkpt>
<trkpt lat="-27.2736588" lon="151.2900392">
  <ele>375.99</ele>
  <time>2026-09-01T20:03:31Z</time>
  <course>126.01</course>
  <speed>19.757904747214468</speed>
  <fix>3d</fix>
</trkpt>
<trkpt lat="-27.2736535" lon="151.2900161">
  <ele>376.3</ele>
  <time>2026-09-01T20:03:31Z</time>
  <course>104.59</course>
  <speed>19.76</speed>
  <fix>3d</fix>
</trkpt>
<trkpt lat="-27.2736633" lon="151.2900586">
  <ele>375.59</ele>
  <time>2026-09-01T20:03:31Z</time>
  <course>127.46</course>
  <speed>19.757904747214468</speed>
  <fix>3d</fix>
</trkpt>
<trkpt lat="-27.2736535" lon="151.2900161">
  <ele>376.3</ele>
  <time>2026-09-01T20:03:31Z</time>
  <course>104.59</course>
  <speed>19.76</speed>
  <fix>3d</fix>
</trkpt>
<trkpt lat="-27.2736697" lon="151.2900758">
  <ele>375.45</ele>
  <time>2026-09-01T20:03:31Z</time>
  <course>128.88</course>
  <speed>19.16987741223193</speed>
  <fix>3d</fix>
</trkpt>
<trkpt lat="-27.2736633" lon="151.2900538">
  <ele>375.66</ele>
  <time>2026-09-01T20:03:31Z</time>
  <course>108.21</course>
  <speed>19.17</speed>
  <fix>3d</fix>
</trkpt>
<trkpt lat="-27.2736751" lon="151.2900943">
  <ele>375.09</ele>
  <time>2026-09-01T20:03:31Z</time>
  <course>130.25</course>
  <speed>19.16987741223193</speed>
  <fix>3d</fix>
</trkpt>
<trkpt lat="-27.2736633" lon="151.2900538">
  <ele>375.66</ele>
  <time>2026-09-01T20:03:31Z</time>
  <course>108.21</course>
  <speed>19.17</speed>
  <fix>3d</fix>
</trkpt>
<trkpt lat="-27.2736823" lon="151.2901107">
  <ele>374.73</ele>
  <time>2026-09-01T20:03:31Z</time>
  <course>131.56</course>
  <speed>18.673617753397437</speed>
  <fix>3d</fix>
</trkpt>
<trkpt lat="-27.2736749" lon="151.2900897">
  <ele>374.97</ele>
  <time>2026-09-01T20:03:31Z</time>
  <course>111.63</course>
  <speed>18.68</speed>
  <fix>3d</fix>
</trkpt>
<trkpt lat="-27.2736885" lon="151.2901283">
  <ele>374.39</ele>
  <time>2026-09-01T20:03:31Z</time>
  <course>132.88</course>
  <speed>18.673617753397437</speed>
  <fix>3d</fix>
</trkpt>
<trkpt lat="-27.2736749" lon="151.2900897">
  <ele>374.97</ele>
  <time>2026-09-01T20:03:31Z</time>
  <course>111.63</course>
  <speed>18.68</speed>
  <fix>3d</fix>
</trkpt>
<trkpt lat="-27.2736946" lon="151.2901458">
  <ele>373.94</ele>
  <time>2026-09-01T20:03:32Z</time>
  <course>134.2</course>
  <speed>18.673617753397437</speed>
  <fix>3d</fix>
</trkpt>
<trkpt lat="-27.2736749" lon="151.2900897">
  <ele>374.97</ele>
  <time>2026-09-01T20:03:32Z</time>
  <course>111.63</course>
  <speed>18.68</speed>
  <fix>3d</fix>
</trkpt>
<trkpt lat="-27.2737019" lon="151.2901574">
  <ele>373.36</ele>
  <time>2026-09-01T20:03:32Z</time>
  <course>135.44</course>
  <speed>18.275913109883184</speed>
  <fix>3d</fix>
</trkpt>
<trkpt lat="-27.2736881" lon="151.290124">
  <ele>374.23</ele>
  <time>2026-09-01T20:03:32Z</time>
  <course>114.95</course>
  <speed>18.27</speed>
  <fix>3d</fix>
</trkpt>
<trkpt lat="-27.2737088" lon="151.2901742">
  <ele>373.09</ele>
  <time>2026-09-01T20:03:32Z</time>
  <course>136.67</course>
  <speed>18.275913109883184</speed>
  <fix>3d</fix>
</trkpt>
<trkpt lat="-27.2736881" lon="151.290124">
  <ele>374.23</ele>
  <time>2026-09-01T20:03:32Z</time>
  <course>114.95</course>
  <speed>18.27</speed>
  <fix>3d</fix>
</trkpt>
<trkpt lat="-27.2737179" lon="151.2901887">
  <ele>372.61</ele>
  <time>2026-09-01T20:03:32Z</time>
  <course>137.9</course>
  <speed>17.94536709014335</speed>
  <fix>3d</fix>
</trkpt>
<trkpt lat="-27.2737027" lon="151.2901568">
  <ele>373.45</ele>
  <time>2026-09-01T20:03:32Z</time>
  <course>118.24</course>
  <speed>17.95</speed>
  <fix>3d</fix>
</trkpt>
<trkpt lat="-27.2737258" lon="151.2902052">
  <ele>372.32</ele>
  <time>2026-09-01T20:03:32Z</time>
  <course>139.11</course>
  <speed>17.94536709014335</speed>
  <fix>3d</fix>
</trkpt>
<trkpt lat="-27.2737027" lon="151.2901568">
  <ele>373.45</ele>
  <time>2026-09-01T20:03:32Z</time>
  <course>118.24</course>
  <speed>17.95</speed>
  <fix>3d</fix>
</trkpt>
<trkpt lat="-27.2737355" lon="151.2902192">
  <ele>371.79</ele>
  <time>2026-09-01T20:03:32Z</time>
  <course>140.26</course>
  <speed>17.721729599562227</speed>
  <fix>3d</fix>
</trkpt>
<trkpt lat="-27.2737186" lon="151.2901881">
  <ele>372.66</ele>
  <time>2026-09-01T20:03:32Z</time>
  <course>121.51</course>
  <speed>17.72</speed>
  <fix>3d</fix>
</trkpt>
<trkpt lat="-27.2737439" lon="151.2902345">
  <ele>371.37</ele>
  <time>2026-09-01T20:03:32Z</time>
  <course>141.4</course>
  <speed>17.721729599562227</speed>
  <fix>3d</fix>
</trkpt>
<trkpt lat="-27.2737186" lon="151.2901881">
  <ele>372.66</ele>
  <time>2026-09-01T20:03:32Z</time>
  <course>121.51</course>
  <speed>17.72</speed>
  <fix>3d</fix>
</trkpt>
<trkpt lat="-27.2737543" lon="151.2902476">
  <ele>371.18</ele>
  <time>2026-09-01T20:03:32Z</time>
  <course>142.52</course>
  <speed>17.58165236830714</speed>
  <fix>3d</fix>
</trkpt>
<trkpt lat="-27.273736" lon="151.2902179">
  <ele>371.87</ele>
  <time>2026-09-01T20:03:32Z</time>
  <course>124.78</course>
  <speed>17.58</speed>
  <fix>3d</fix>
</trkpt>
<trkpt lat="-27.2737633" lon="151.2902622">
  <ele>370.82</ele>
  <time>2026-09-01T20:03:32Z</time>
  <course>143.59</course>
  <speed>17.58165236830714</speed>
  <fix>3d</fix>
</trkpt>
<trkpt lat="-27.273736" lon="151.2902179">
  <ele>371.87</ele>
  <time>2026-09-01T20:03:32Z</time>
  <course>124.78</course>
  <speed>17.58</speed>
  <fix>3d</fix>
</trkpt>
<trkpt lat="-27.2737744" lon="151.2902748">
  <ele>370.52</ele>
  <time>2026-09-01T20:03:32Z</time>
  <course>144.64</course>
  <speed>17.503499650069983</speed>
  <fix>3d</fix>
</trkpt>
<trkpt lat="-27.2737547" lon="151.2902464">
  <ele>371.11</ele>
  <time>2026-09-01T20:03:32Z</time>
  <course>128.01</course>
  <speed>17.51</speed>
  <fix>3d</fix>
</trkpt>
<trkpt lat="-27.2737871" lon="151.2902896">
  <ele>370.04</ele>
  <time>2026-09-01T20:03:32Z</time>
  <course>145.58</course>
  <speed>17.4983570657362</speed>
  <fix>3d</fix>
</trkpt>
<trkpt lat="-27.2737747" lon="151.2902737">
  <ele>370.41</ele>
  <time>2026-09-01T20:03:32Z</time>
  <course>131.13</course>
  <speed>17.5</speed>
  <fix>3d</fix>
</trkpt>
<trkpt lat="-27.2737974" lon="151.290303">
  <ele>369.95</ele>
  <time>2026-09-01T20:03:32Z</time>
  <course>146.49</course>
  <speed>17.4983570657362</speed>
  <fix>3d</fix>
</trkpt>
<trkpt lat="-27.2737747" lon="151.2902737">
  <ele>370.41</ele>
  <time>2026-09-01T20:03:32Z</time>
  <course>131.13</course>
  <speed>17.5</speed>
  <fix>3d</fix>
</trkpt>
<trkpt lat="-27.2738091" lon="151.2903149">
  <ele>369.71</ele>
  <time>2026-09-01T20:03:32Z</time>
  <course>147.37</course>
  <speed>17.531813939236294</speed>
  <fix>3d</fix>
</trkpt>
<trkpt lat="-27.273796" lon="151.2902997">
  <ele>369.78</ele>
  <time>2026-09-01T20:03:32Z</time>
  <course>134.01</course>
  <speed>17.53</speed>
  <fix>3d</fix>
</trkpt>
<trkpt lat="-27.27382" lon="151.2903277">
  <ele>369.12</ele>
  <time>2026-09-01T20:03:32Z</time>
  <course>148.19</course>
  <speed>17.531813939236294</speed>
  <fix>3d</fix>
</trkpt>
<trkpt lat="-27.273796" lon="151.2902997">
  <ele>369.78</ele>
  <time>2026-09-01T20:03:32Z</time>
  <course>134.01</course>
  <speed>17.53</speed>
  <fix>3d</fix>
</trkpt>
<trkpt lat="-27.2738321" lon="151.2903393">
  <ele>369.05</ele>
  <time>2026-09-01T20:03:32Z</time>
  <course>148.96</course>
  <speed>17.59938635293856</speed>
  <fix>3d</fix>
</trkpt>
<trkpt lat="-27.2738184" lon="151.2903247">
  <ele>369.25</ele>
  <time>2026-09-01T20:03:32Z</time>
  <course>136.57</course>
  <speed>17.6</speed>
  <fix>3d</fix>
</trkpt>
<trkpt lat="-27.2738436" lon="151.2903516">
  <ele>368.93</ele>
  <time>2026-09-01T20:03:32Z</time>
  <course>149.62</course>
  <speed>17.59938635293856</speed>
  <fix>3d</fix>
</trkpt>
<trkpt lat="-27.2738184" lon="151.2903247">
  <ele>369.25</ele>
  <time>2026-09-01T20:03:32Z</time>
  <course>136.57</course>
  <speed>17.6</speed>
  <fix>3d</fix>
</trkpt>
<trkpt lat="-27.2738562" lon="151.2903628">
  <ele>368.72</ele>
  <time>2026-09-01T20:03:32Z</time>
  <course>150.22</course>
  <speed>17.694962560005603</speed>
  <fix>3d</fix>
</trkpt>
<trkpt lat="-27.2738419" lon="151.2903487">
  <ele>368.81</ele>
  <time>2026-09-01T20:03:32Z</time>
  <course>138.77</course>
  <speed>17.7</speed>
  <fix>3d</fix>
</trkpt>
<trkpt lat="-27.2738682" lon="151.2903746">
  <ele>368.64</ele>
  <time>2026-09-01T20:03:32Z</time>
  <course>150.8</course>
  <speed>17.694962560005603</speed>
  <fix>3d</fix>
</trkpt>
<trkpt lat="-27.2738419" lon="151.2903487">
  <ele>368.81</ele>
  <time>2026-09-01T20:03:32Z</time>
  <course>138.77</course>
  <speed>17.7</speed>
  <fix>3d</fix>
</trkpt>
<trkpt lat="-27.273881" lon="151.2903855">
  <ele>368.34</ele>
  <time>2026-09-01T20:03:32Z</time>
  <course>151.33</course>
  <speed>17.798924124789117</speed>
  <fix>3d</fix>
</trkpt>
<trkpt lat="-27.2738662" lon="151.2903719">
  <ele>368.46</ele>
  <time>2026-09-01T20:03:32Z</time>
  <course>140.63</course>
  <speed>17.8</speed>
  <fix>3d</fix>
</trkpt>
<trkpt lat="-27.2738934" lon="151.290397">
  <ele>368.13</ele>
  <time>2026-09-01T20:03:32Z</time>
  <course>151.81</course>
  <speed>17.798924124789117</speed>
  <fix>3d</fix>
</trkpt>
<trkpt lat="-27.2738662" lon="151.2903719">
  <ele>368.46</ele>
  <time>2026-09-01T20:03:32Z</time>
  <course>140.63</course>
  <speed>17.8</speed>
  <fix>3d</fix>
</trkpt>
<trkpt lat="-27.2739065" lon="151.2904077">
  <ele>368.11</ele>
  <time>2026-09-01T20:03:32Z</time>
  <course>152.26</course>
  <speed>17.894616508883335</speed>
  <fix>3d</fix>
</trkpt>
<trkpt lat="-27.2738913" lon="151.2903944">
  <ele>368.2</ele>
  <time>2026-09-01T20:03:32Z</time>
  <course>142.16</course>
  <speed>17.89</speed>
  <fix>3d</fix>
</trkpt>
<trkpt lat="-27.2739192" lon="151.2904188">
  <ele>367.83</ele>
  <time>2026-09-01T20:03:32Z</time>
  <course>152.65</course>
  <speed>17.894616508883335</speed>
  <fix>3d</fix>
</trkpt>
<trkpt lat="-27.2738913" lon="151.2903944">
  <ele>368.2</ele>
  <time>2026-09-01T20:03:32Z</time>
  <course>142.16</course>
  <speed>17.89</speed>
  <fix>3d</fix>
</trkpt>
<trkpt lat="-27.2739319" lon="151.2904299">
  <ele>367.93</ele>
  <time>2026-09-01T20:03:32Z</time>
  <course>153.03</course>
  <speed>17.894616508883335</speed>
  <fix>3d</fix>
</trkpt>
<trkpt lat="-27.2738913" lon="151.2903944">
  <ele>368.2</ele>
  <time>2026-09-01T20:03:32Z</time>
  <course>142.16</course>
  <speed>17.89</speed>
  <fix>3d</fix>
</trkpt>
<trkpt lat="-27.2739429" lon="151.290438">
  <ele>367.82</ele>
  <time>2026-09-01T20:03:32Z</time>
  <course>153.4</course>
  <speed>17.99017787571874</speed>
  <fix>3d</fix>
</trkpt>
<trkpt lat="-27.273917" lon="151.2904164">
  <ele>368.01</ele>
  <time>2026-09-01T20:03:32Z</time>
  <course>143.38</course>
  <speed>18.0</speed>
  <fix>3d</fix>
</trkpt>
<trkpt lat="-27.2739559" lon="151.2904489">
  <ele>367.99</ele>
  <time>2026-09-01T20:03:32Z</time>
  <course>153.78</course>
  <speed>17.99017787571874</speed>
  <fix>3d</fix>
</trkpt>
<trkpt lat="-27.273917" lon="151.2904164">
  <ele>368.01</ele>
  <time>2026-09-01T20:03:32Z</time>
  <course>143.38</course>
  <speed>18.0</speed>
  <fix>3d</fix>
</trkpt>
<trkpt lat="-27.2739701" lon="151.2904594">
  <ele>367.85</ele>
  <time>2026-09-01T20:03:32Z</time>
  <course>154.19</course>
  <speed>18.092783091608652</speed>
  <fix>3d</fix>
</trkpt>
<trkpt lat="-27.2739433" lon="151.2904379">
  <ele>367.89</ele>
  <time>2026-09-01T20:03:32Z</time>
  <course>144.45</course>
  <speed>18.09</speed>
  <fix>3d</fix>
</trkpt>
<trkpt lat="-27.2739833" lon="151.2904701">
  <ele>367.92</ele>
  <time>2026-09-01T20:03:32Z</time>
  <course>154.5</course>
  <speed>18.092783091608652</speed>
  <fix>3d</fix>
</trkpt>
<trkpt lat="-27.2739433" lon="151.2904379">
  <ele>367.89</ele>
  <time>2026-09-01T20:03:32Z</time>
  <course>144.45</course>
  <speed>18.09</speed>
  <fix>3d</fix>
</trkpt>
<trkpt lat="-27.2739973" lon="151.2904801">
  <ele>367.84</ele>
  <time>2026-09-01T20:03:32Z</time>
  <course>154.78</course>
  <speed>18.162918267723388</speed>
  <fix>3d</fix>
</trkpt>
<trkpt lat="-27.2739699" lon="151.2904589">
  <ele>367.83</ele>
  <time>2026-09-01T20:03:32Z</time>
  <course>145.44</course>
  <speed>18.17</speed>
  <fix>3d</fix>
</trkpt>
<trkpt lat="-27.2740107" lon="151.2904905">
  <ele>367.72</ele>
  <time>2026-09-01T20:03:32Z</time>
  <course>155.06</course>
  <speed>18.162918267723388</speed>
  <fix>3d</fix>
</trkpt>
<trkpt lat="-27.2739699" lon="151.2904589">
  <ele>367.83</ele>
  <time>2026-09-01T20:03:32Z</time>
  <course>145.44</course>
  <speed>18.17</speed>
  <fix>3d</fix>
</trkpt>
<trkpt lat="-27.2740248" lon="151.2905002">
  <ele>367.98</ele>
  <time>2026-09-01T20:03:32Z</time>
  <course>155.35</course>
  <speed>18.213602059999005</speed>
  <fix>3d</fix>
</trkpt>
<trkpt lat="-27.273997" lon="151.2904795">
  <ele>367.83</ele>
  <time>2026-09-01T20:03:32Z</time>
  <course>146.38</course>
  <speed>18.21</speed>
  <fix>3d</fix>
</trkpt>
<trkpt lat="-27.2740384" lon="151.2905104">
  <ele>367.75</ele>
  <time>2026-09-01T20:03:32Z</time>
  <course>155.59</course>
  <speed>18.213602059999005</speed>
  <fix>3d</fix>
</trkpt>
<trkpt lat="-27.273997" lon="151.2904795">
  <ele>367.83</ele>
  <time>2026-09-01T20:03:32Z</time>
  <course>146.38</course>
  <speed>18.21</speed>
  <fix>3d</fix>
</trkpt>
<trkpt lat="-27.2740525" lon="151.2905198">
  <ele>367.93</ele>
  <time>2026-09-01T20:03:32Z</time>
  <course>155.88</course>
  <speed>18.22474142477747</speed>
  <fix>3d</fix>
</trkpt>
<trkpt lat="-27.2740244" lon="151.2904996">
  <ele>367.88</ele>
  <time>2026-09-01T20:03:32Z</time>
  <course>147.32</course>
  <speed>18.23</speed>
  <fix>3d</fix>
</trkpt>
<trkpt lat="-27.2740663" lon="151.2905298">
  <ele>368.05</ele>
  <time>2026-09-01T20:03:32Z</time>
  <course>156.25</course>
  <speed>18.22474142477747</speed>
  <fix>3d</fix>
</trkpt>
<trkpt lat="-27.2740244" lon="151.2904996">
  <ele>367.88</ele>
  <time>2026-09-01T20:03:32Z</time>
  <course>147.32</course>
  <speed>18.23</speed>
  <fix>3d</fix>
</trkpt>
<trkpt lat="-27.2740804" lon="151.2905389">
  <ele>368.15</ele>
  <time>2026-09-01T20:03:32Z</time>
  <course>156.65</course>
  <speed>18.233356794622324</speed>
  <fix>3d</fix>
</trkpt>
<trkpt lat="-27.2740521" lon="151.2905193">
  <ele>367.96</ele>
  <time>2026-09-01T20:03:32Z</time>
  <course>148.31</course>
  <speed>18.23</speed>
  <fix>3d</fix>
</trkpt>
<trkpt lat="-27.2740943" lon="151.2905486">
  <ele>368.22</ele>
  <time>2026-09-01T20:03:32Z</time>
  <course>157.03</course>
  <speed>18.233356794622324</speed>
  <fix>3d</fix>
</trkpt>
<trkpt lat="-27.2740521" lon="151.2905193">
  <ele>367.96</ele>
  <time>2026-09-01T20:03:32Z</time>
  <course>148.31</course>
  <speed>18.23</speed>
  <fix>3d</fix>
</trkpt>
<trkpt lat="-27.2741088" lon="151.2905573">
  <ele>368.13</ele>
  <time>2026-09-01T20:03:32Z</time>
  <course>157.43</course>
  <speed>18.210161998181125</speed>
  <fix>3d</fix>
</trkpt>
<trkpt lat="-27.2740802" lon="151.2905383">
  <ele>368.09</ele>
  <time>2026-09-01T20:03:32Z</time>
  <course>149.43</course>
  <speed>18.21</speed>
  <fix>3d</fix>
</trkpt>
<trkpt lat="-27.2741228" lon="151.2905666">
  <ele>368.2</ele>
  <time>2026-09-01T20:03:32Z</time>
  <course>157.87</course>
  <speed>18.210161998181125</speed>
  <fix>3d</fix>
</trkpt>
<trkpt lat="-27.2740802" lon="151.2905383">
  <ele>368.09</ele>
  <time>2026-09-01T20:03:32Z</time>
  <course>149.43</course>
  <speed>18.21</speed>
  <fix>3d</fix>
</trkpt>
<trkpt lat="-27.2741373" lon="151.2905749">
  <ele>368.34</ele>
  <time>2026-09-01T20:03:32Z</time>
  <course>158.26</course>
  <speed>18.16801860412962</speed>
  <fix>3d</fix>
</trkpt>
<trkpt lat="-27.2741084" lon="151.2905567">
  <ele>368.24</ele>
  <time>2026-09-01T20:03:32Z</time>
  <course>150.73</course>
  <speed>18.16</speed>
  <fix>3d</fix>
</trkpt>
<trkpt lat="-27.2741543" lon="151.2905843">
  <ele>368.37</ele>
  <time>2026-09-01T20:03:32Z</time>
  <course>158.6</course>
  <speed>18.09378346283607</speed>
  <fix>3d</fix>
</trkpt>
<trkpt lat="-27.2741371" lon="151.2905741">
  <ele>368.4</ele>
  <time>2026-09-01T20:03:32Z</time>
  <course>152.21</course>
  <speed>18.1</speed>
  <fix>3d</fix>
</trkpt>
<trkpt lat="-27.2741687" lon="151.2905928">
  <ele>368.53</ele>
  <time>2026-09-01T20:03:32Z</time>
  <course>159.1</course>
  <speed>18.09378346283607</speed>
  <fix>3d</fix>
</trkpt>
<trkpt lat="-27.2741371" lon="151.2905741">
  <ele>368.4</ele>
  <time>2026-09-01T20:03:32Z</time>
  <course>152.21</course>
  <speed>18.1</speed>
  <fix>3d</fix>
</trkpt>
<trkpt lat="-27.2741834" lon="151.2906003">
  <ele>368.75</ele>
  <time>2026-09-01T20:03:32Z</time>
  <course>159.71</course>
  <speed>18.01880406686304</speed>
  <fix>3d</fix>
</trkpt>
<trkpt lat="-27.274166" lon="151.2905907">
  <ele>368.58</ele>
  <time>2026-09-01T20:03:32Z</time>
  <course>153.88</course>
  <speed>18.02</speed>
  <fix>3d</fix>
</trkpt>
<trkpt lat="-27.2741979" lon="151.2906083">
  <ele>368.85</ele>
  <time>2026-09-01T20:03:32Z</time>
  <course>160.33</course>
  <speed>18.01880406686304</speed>
  <fix>3d</fix>
</trkpt>
<trkpt lat="-27.274166" lon="151.2905907">
  <ele>368.58</ele>
  <time>2026-09-01T20:03:32Z</time>
  <course>153.88</course>
  <speed>18.02</speed>
  <fix>3d</fix>
</trkpt>
<trkpt lat="-27.2742125" lon="151.2906163">
  <ele>369.03</ele>
  <time>2026-09-01T20:03:32Z</time>
  <course>160.94</course>
  <speed>18.01880406686304</speed>
  <fix>3d</fix>
</trkpt>
<trkpt lat="-27.274166" lon="151.2905907">
  <ele>368.58</ele>
  <time>2026-09-01T20:03:32Z</time>
  <course>153.88</course>
  <speed>18.02</speed>
  <fix>3d</fix>
</trkpt>
<trkpt lat="-27.2742246" lon="151.290621">
  <ele>368.97</ele>
  <time>2026-09-01T20:03:32Z</time>
  <course>161.6</course>
  <speed>17.922000446378746</speed>
  <fix>3d</fix>
</trkpt>
<trkpt lat="-27.2741953" lon="151.2906062">
  <ele>368.78</ele>
  <time>2026-09-01T20:03:32Z</time>
  <course>155.79</course>
  <speed>17.92</speed>
  <fix>3d</fix>
</trkpt>
<trkpt lat="-27.2742393" lon="151.2906284">
  <ele>369.08</ele>
  <time>2026-09-01T20:03:32Z</time>
  <course>162.29</course>
  <speed>17.922000446378746</speed>
  <fix>3d</fix>
</trkpt>
<trkpt lat="-27.2741953" lon="151.2906062">
  <ele>368.78</ele>
  <time>2026-09-01T20:03:32Z</time>
  <course>155.79</course>
  <speed>17.92</speed>
  <fix>3d</fix>
</trkpt>
<trkpt lat="-27.2742545" lon="151.2906339">
  <ele>369.32</ele>
  <time>2026-09-01T20:03:32Z</time>
  <course>162.96</course>
  <speed>17.808424972467385</speed>
  <fix>3d</fix>
</trkpt>
<trkpt lat="-27.2742249" lon="151.2906204">
  <ele>368.99</ele>
  <time>2026-09-01T20:03:32Z</time>
  <course>157.9</course>
  <speed>17.81</speed>
  <fix>3d</fix>
</trkpt>
<trkpt lat="-27.2742698" lon="151.2906409">
  <ele>369.15</ele>
  <time>2026-09-01T20:03:32Z</time>
  <course>163.77</course>
  <speed>17.808424972467385</speed>
  <fix>3d</fix>
</trkpt>
<trkpt lat="-27.2742249" lon="151.2906204">
  <ele>368.99</ele>
  <time>2026-09-01T20:03:32Z</time>
  <course>157.9</course>
  <speed>17.81</speed>
  <fix>3d</fix>
</trkpt>
<trkpt lat="-27.274285" lon="151.2906456">
  <ele>369.54</ele>
  <time>2026-09-01T20:03:32Z</time>
  <course>164.55</course>
  <speed>17.675887530757826</speed>
  <fix>3d</fix>
</trkpt>
<trkpt lat="-27.2742546" lon="151.2906333">
  <ele>369.21</ele>
  <time>2026-09-01T20:03:32Z</time>
  <course>160.18</course>
  <speed>17.68</speed>
  <fix>3d</fix>
</trkpt>
<trkpt lat="-27.2743" lon="151.2906517">
  <ele>369.37</ele>
  <time>2026-09-01T20:03:32Z</time>
  <course>165.32</course>
  <speed>17.675887530757826</speed>
  <fix>3d</fix>
</trkpt>
<trkpt lat="-27.2742546" lon="151.2906333">
  <ele>369.21</ele>
  <time>2026-09-01T20:03:32Z</time>
  <course>160.18</course>
  <speed>17.68</speed>
  <fix>3d</fix>
</trkpt>
<trkpt lat="-27.2743153" lon="151.2906555">
  <ele>369.69</ele>
  <time>2026-09-01T20:03:32Z</time>
  <course>166.15</course>
  <speed>17.56004555802746</speed>
  <fix>3d</fix>
</trkpt>
<trkpt lat="-27.2742846" lon="151.2906447">
  <ele>369.44</ele>
  <time>2026-09-01T20:03:32Z</time>
  <course>162.63</course>
  <speed>17.56</speed>
  <fix>3d</fix>
</trkpt>
<trkpt lat="-27.2743303" lon="151.2906608">
  <ele>369.64</ele>
  <time>2026-09-01T20:03:32Z</time>
  <course>167.02</course>
  <speed>17.56004555802746</speed>
  <fix>3d</fix>
</trkpt>
<trkpt lat="-27.2742846" lon="151.2906447">
  <ele>369.44</ele>
  <time>2026-09-01T20:03:32Z</time>
  <course>162.63</course>
  <speed>17.56</speed>
  <fix>3d</fix>
</trkpt>
<trkpt lat="-27.2743457" lon="151.2906635">
  <ele>369.8</ele>
  <time>2026-09-01T20:03:32Z</time>
  <course>167.92</course>
  <speed>17.44449769984794</speed>
  <fix>3d</fix>
</trkpt>
<trkpt lat="-27.2743148" lon="151.2906544">
  <ele>369.65</ele>
  <time>2026-09-01T20:03:32Z</time>
  <course>165.25</course>
  <speed>17.45</speed>
  <fix>3d</fix>
</trkpt>
<trkpt lat="-27.2743608" lon="151.290668">
  <ele>369.84</ele>
  <time>2026-09-01T20:03:32Z</time>
  <course>168.8</course>
  <speed>17.44449769984794</speed>
  <fix>3d</fix>
</trkpt>
<trkpt lat="-27.2743148" lon="151.2906544">
  <ele>369.65</ele>
  <time>2026-09-01T20:03:32Z</time>
  <course>165.25</course>
  <speed>17.45</speed>
  <fix>3d</fix>
</trkpt>
<trkpt lat="-27.2743763" lon="151.2906698">
  <ele>370.18</ele>
  <time>2026-09-01T20:03:32Z</time>
  <course>169.7</course>
  <speed>17.343508872197688</speed>
  <fix>3d</fix>
</trkpt>
<trkpt lat="-27.2743452" lon="151.2906625">
  <ele>369.87</ele>
  <time>2026-09-01T20:03:32Z</time>
  <course>168.08</course>
  <speed>17.34</speed>
  <fix>3d</fix>
</trkpt>
<trkpt lat="-27.2743913" lon="151.2906734">
  <ele>370.16</ele>
  <time>2026-09-01T20:03:32Z</time>
  <course>170.65</course>
  <speed>17.343508872197688</speed>
  <fix>3d</fix>
</trkpt>
<trkpt lat="-27.2743452" lon="151.2906625">
  <ele>369.87</ele>
  <time>2026-09-01T20:03:32Z</time>
  <course>168.08</course>
  <speed>17.34</speed>
  <fix>3d</fix>
</trkpt>
<trkpt lat="-27.2744068" lon="151.2906744">
  <ele>370.17</ele>
  <time>2026-09-01T20:03:32Z</time>
  <course>171.56</course>
  <speed>17.239585261832723</speed>
  <fix>3d</fix>
</trkpt>
<trkpt lat="-27.2743758" lon="151.2906689">
  <ele>370.08</ele>
  <time>2026-09-01T20:03:32Z</time>
  <course>171.03</course>
  <speed>17.24</speed>
  <fix>3d</fix>
</trkpt>
<trkpt lat="-27.2744221" lon="151.2906771">
  <ele>370.38</ele>
  <time>2026-09-01T20:03:32Z</time>
  <course>172.5</course>
  <speed>17.239585261832723</speed>
  <fix>3d</fix>
</trkpt>
<trkpt lat="-27.2743758" lon="151.2906689">
  <ele>370.08</ele>
  <time>2026-09-01T20:03:32Z</time>
  <course>171.03</course>
  <speed>17.24</speed>
  <fix>3d</fix>
</trkpt>
<trkpt lat="-27.2744374" lon="151.290677">
  <ele>370.53</ele>
  <time>2026-09-01T20:03:32Z</time>
  <course>173.41</course>
  <speed>17.15364975741314</speed>
  <fix>3d</fix>
</trkpt>
<trkpt lat="-27.2744063" lon="151.2906734">
  <ele>370.29</ele>
  <time>2026-09-01T20:03:32Z</time>
  <course>173.98</course>
  <speed>17.15</speed>
  <fix>3d</fix>
</trkpt>
<trkpt lat="-27.2744527" lon="151.2906789">
  <ele>370.76</ele>
  <time>2026-09-01T20:03:32Z</time>
  <course>174.37</course>
  <speed>17.15364975741314</speed>
  <fix>3d</fix>
</trkpt>
<trkpt lat="-27.2744063" lon="151.2906734">
  <ele>370.29</ele>
  <time>2026-09-01T20:03:32Z</time>
  <course>173.98</course>
  <speed>17.15</speed>
  <fix>3d</fix>
</trkpt>
<trkpt lat="-27.2744681" lon="151.2906779">
  <ele>370.72</ele>
  <time>2026-09-01T20:03:32Z</time>
  <course>175.3</course>
  <speed>17.074267187788763</speed>
  <fix>3d</fix>
</trkpt>
<trkpt lat="-27.274437" lon="151.2906761">
  <ele>370.5</ele>
  <time>2026-09-01T20:03:32Z</time>
  <course>176.94</course>
  <speed>17.08</speed>
  <fix>3d</fix>
</trkpt>
<trkpt lat="-27.2744834" lon="151.2906788">
  <ele>370.67</ele>
  <time>2026-09-01T20:03:32Z</time>
  <course>176.23</course>
  <speed>17.074267187788763</speed>
  <fix>3d</fix>
</trkpt>
<trkpt lat="-27.274437" lon="151.2906761">
  <ele>370.5</ele>
  <time>2026-09-01T20:03:32Z</time>
  <course>176.94</course>
  <speed>17.08</speed>
  <fix>3d</fix>
</trkpt>
<trkpt lat="-27.2744986" lon="151.290677">
  <ele>370.8</ele>
  <time>2026-09-01T20:03:32Z</time>
  <course>177.25</course>
  <speed>17.020002937720076</speed>
  <fix>3d</fix>
</trkpt>
<trkpt lat="-27.2744676" lon="151.290677">
  <ele>370.69</ele>
  <time>2026-09-01T20:03:32Z</time>
  <course>179.95</course>
  <speed>17.02</speed>
  <fix>3d</fix>
</trkpt>
<trkpt lat="-27.2745139" lon="151.290677">
  <ele>371.05</ele>
  <time>2026-09-01T20:03:32Z</time>
  <course>178.19</course>
  <speed>17.020002937720076</speed>
  <fix>3d</fix>
</trkpt>
<trkpt lat="-27.2744676" lon="151.290677">
  <ele>370.69</ele>
  <time>2026-09-01T20:03:32Z</time>
  <course>179.95</course>
  <speed>17.02</speed>
  <fix>3d</fix>
</trkpt>
<trkpt lat="-27.274529" lon="151.2906744">
  <ele>370.89</ele>
  <time>2026-09-01T20:03:32Z</time>
  <course>179.09</course>
  <speed>16.973349698866162</speed>
  <fix>3d</fix>
</trkpt>
<trkpt lat="-27.2744981" lon="151.2906762">
  <ele>370.86</ele>
  <time>2026-09-01T20:03:32Z</time>
  <course>183.02</course>
  <speed>16.97</speed>
  <fix>3d</fix>
</trkpt>
<trkpt lat="-27.2745442" lon="151.2906735">
  <ele>371.14</ele>
  <time>2026-09-01T20:03:32Z</time>
  <course>180.05</course>
  <speed>16.973349698866162</speed>
  <fix>3d</fix>
</trkpt>
<trkpt lat="-27.2744981" lon="151.2906762">
  <ele>370.86</ele>
  <time>2026-09-01T20:03:32Z</time>
  <course>183.02</course>
  <speed>16.97</speed>
  <fix>3d</fix>
</trkpt>
<trkpt lat="-27.2745593" lon="151.2906699">
  <ele>371.26</ele>
  <time>2026-09-01T20:03:32Z</time>
  <course>181.07</course>
  <speed>16.94481041499137</speed>
  <fix>3d</fix>
</trkpt>
<trkpt lat="-27.2745286" lon="151.2906735">
  <ele>371.01</ele>
  <time>2026-09-01T20:03:32Z</time>
  <course>186.09</course>
  <speed>16.95</speed>
  <fix>3d</fix>
</trkpt>
<trkpt lat="-27.2745741" lon="151.2906681">
  <ele>371.19</ele>
  <time>2026-09-01T20:03:32Z</time>
  <course>181.97</course>
  <speed>16.94481041499137</speed>
  <fix>3d</fix>
</trkpt>
<trkpt lat="-27.2745286" lon="151.2906735">
  <ele>371.01</ele>
  <time>2026-09-01T20:03:32Z</time>
  <course>186.09</course>
  <speed>16.95</speed>
  <fix>3d</fix>
</trkpt>
<trkpt lat="-27.2745894" lon="151.2906634">
  <ele>371.14</ele>
  <time>2026-09-01T20:03:32Z</time>
  <course>183.01</course>
  <speed>16.946471609158053</speed>
  <fix>3d</fix>
</trkpt>
<trkpt lat="-27.2745588" lon="151.2906689">
  <ele>371.15</ele>
  <time>2026-09-01T20:03:32Z</time>
  <course>189.17</course>
  <speed>16.94</speed>
  <fix>3d</fix>
</trkpt>
<trkpt lat="-27.2746044" lon="151.2906606">
  <ele>371.51</ele>
  <time>2026-09-01T20:03:32Z</time>
  <course>184.02</course>
  <speed>16.946471609158053</speed>
  <fix>3d</fix>
</trkpt>
<trkpt lat="-27.2745588" lon="151.2906689">
  <ele>371.15</ele>
  <time>2026-09-01T20:03:32Z</time>
  <course>189.17</course>
  <speed>16.94</speed>
  <fix>3d</fix>
</trkpt>
<trkpt lat="-27.274619" lon="151.2906552">
  <ele>371.35</ele>
  <time>2026-09-01T20:03:32Z</time>
  <course>185.02</course>
  <speed>16.956559202857164</speed>
  <fix>3d</fix>
</trkpt>
<trkpt lat="-27.2745887" lon="151.2906626">
  <ele>371.28</ele>
  <time>2026-09-01T20:03:32Z</time>
  <course>192.26</course>
  <speed>16.96</speed>
  <fix>3d</fix>
</trkpt>
<trkpt lat="-27.2746339" lon="151.2906516">
  <ele>371.43</ele>
  <time>2026-09-01T20:03:32Z</time>
  <course>185.99</course>
  <speed>16.956559202857164</speed>
  <fix>3d</fix>
</trkpt>
<trkpt lat="-27.2745887" lon="151.2906626">
  <ele>371.28</ele>
  <time>2026-09-01T20:03:32Z</time>
  <course>192.26</course>
  <speed>16.96</speed>
  <fix>3d</fix>
</trkpt>
<trkpt lat="-27.2746483" lon="151.2906452">
  <ele>371.32</ele>
  <time>2026-09-01T20:03:32Z</time>
  <course>186.96</course>
  <speed>16.993887136261673</speed>
  <fix>3d</fix>
</trkpt>
<trkpt lat="-27.2746183" lon="151.2906544">
  <ele>371.38</ele>
  <time>2026-09-01T20:03:32Z</time>
  <course>195.34</course>
  <speed>16.99</speed>
  <fix>3d</fix>
</trkpt>
<trkpt lat="-27.274663" lon="151.2906406">
  <ele>371.64</ele>
  <time>2026-09-01T20:03:32Z</time>
  <course>187.99</course>
  <speed>16.993887136261673</speed>
  <fix>3d</fix>
</trkpt>
<trkpt lat="-27.2746183" lon="151.2906544">
  <ele>371.38</ele>
  <time>2026-09-01T20:03:32Z</time>
  <course>195.34</course>
  <speed>16.99</speed>
  <fix>3d</fix>
</trkpt>
<trkpt lat="-27.2746772" lon="151.2906333">
  <ele>371.58</ele>
  <time>2026-09-01T20:03:32Z</time>
  <course>189.07</course>
  <speed>17.047841505598296</speed>
  <fix>3d</fix>
</trkpt>
<trkpt lat="-27.2746476" lon="151.2906444">
  <ele>371.47</ele>
  <time>2026-09-01T20:03:32Z</time>
  <course>198.48</course>
  <speed>17.05</speed>
  <fix>3d</fix>
</trkpt>
<trkpt lat="-27.2746917" lon="151.2906278">
  <ele>371.53</ele>
  <time>2026-09-01T20:03:32Z</time>
  <course>190.12</course>
  <speed>17.047841505598296</speed>
  <fix>3d</fix>
</trkpt>
<trkpt lat="-27.2746476" lon="151.2906444">
  <ele>371.47</ele>
  <time>2026-09-01T20:03:32Z</time>
  <course>198.48</course>
  <speed>17.05</speed>
  <fix>3d</fix>
</trkpt>
<trkpt lat="-27.2747054" lon="151.2906196">
  <ele>371.62</ele>
  <time>2026-09-01T20:03:32Z</time>
  <course>191.13</course>
  <speed>17.12859597281692</speed>
  <fix>3d</fix>
</trkpt>
<trkpt lat="-27.2746764" lon="151.2906325">
  <ele>371.55</ele>
  <time>2026-09-01T20:03:32Z</time>
  <course>201.64</course>
  <speed>17.13</speed>
  <fix>3d</fix>
</trkpt>
<trkpt lat="-27.2747197" lon="151.2906132">
  <ele>371.74</ele>
  <time>2026-09-01T20:03:32Z</time>
  <course>192.09</course>
  <speed>17.12859597281692</speed>
  <fix>3d</fix>
</trkpt>
<trkpt lat="-27.2746764" lon="151.2906325">
  <ele>371.55</ele>
  <time>2026-09-01T20:03:32Z</time>
  <course>201.64</course>
  <speed>17.13</speed>
  <fix>3d</fix>
</trkpt>
<trkpt lat="-27.2747332" lon="151.290604">
  <ele>371.54</ele>
  <time>2026-09-01T20:03:32Z</time>
  <course>193.13</course>
  <speed>17.23027858161324</speed>
  <fix>3d</fix>
</trkpt>
<trkpt lat="-27.2747047" lon="151.2906188">
  <ele>371.62</ele>
  <time>2026-09-01T20:03:32Z</time>
  <course>204.82</course>
  <speed>17.23</speed>
  <fix>3d</fix>
</trkpt>
<trkpt lat="-27.2747472" lon="151.2905967">
  <ele>371.57</ele>
  <time>2026-09-01T20:03:32Z</time>
  <course>194.23</course>
  <speed>17.23027858161324</speed>
  <fix>3d</fix>
</trkpt>
<trkpt lat="-27.2747047" lon="151.2906188">
  <ele>371.62</ele>
  <time>2026-09-01T20:03:32Z</time>
  <course>204.82</course>
  <speed>17.23</speed>
  <fix>3d</fix>
</trkpt>
<trkpt lat="-27.2747605" lon="151.2905865">
  <ele>371.88</ele>
  <time>2026-09-01T20:03:32Z</time>
  <course>195.35</course>
  <speed>17.348256396537376</speed>
  <fix>3d</fix>
</trkpt>
<trkpt lat="-27.2747326" lon="151.2906032">
  <ele>371.68</ele>
  <time>2026-09-01T20:03:32Z</time>
  <course>207.99</course>
  <speed>17.35</speed>
  <fix>3d</fix>
</trkpt>
<trkpt lat="-27.2747743" lon="151.2905783">
  <ele>371.74</ele>
  <time>2026-09-01T20:03:32Z</time>
  <course>196.33</course>
  <speed>17.348256396537376</speed>
  <fix>3d</fix>
</trkpt>
<trkpt lat="-27.2747326" lon="151.2906032">
  <ele>371.68</ele>
  <time>2026-09-01T20:03:32Z</time>
  <course>207.99</course>
  <speed>17.35</speed>
  <fix>3d</fix>
</trkpt>
<trkpt lat="-27.2747871" lon="151.2905674">
  <ele>371.73</ele>
  <time>2026-09-01T20:03:32Z</time>
  <course>197.39</course>
  <speed>17.49812847135373</speed>
  <fix>3d</fix>
</trkpt>
<trkpt lat="-27.2747598" lon="151.2905859">
  <ele>371.73</ele>
  <time>2026-09-01T20:03:32Z</time>
  <course>211.17</course>
  <speed>17.5</speed>
  <fix>3d</fix>
</trkpt>
<trkpt lat="-27.2748005" lon="151.2905582">
  <ele>371.62</ele>
  <time>2026-09-01T20:03:32Z</time>
  <course>198.52</course>
  <speed>17.49812847135373</speed>
  <fix>3d</fix>
</trkpt>
<trkpt lat="-27.2747598" lon="151.2905859">
  <ele>371.73</ele>
  <time>2026-09-01T20:03:32Z</time>
  <course>211.17</course>
  <speed>17.5</speed>
  <fix>3d</fix>
</trkpt>
<trkpt lat="-27.274813" lon="151.2905463">
  <ele>371.77</ele>
  <time>2026-09-01T20:03:32Z</time>
  <course>199.64</course>
  <speed>17.668525688353284</speed>
  <fix>3d</fix>
</trkpt>
<trkpt lat="-27.2747864" lon="151.2905667">
  <ele>371.78</ele>
  <time>2026-09-01T20:03:32Z</time>
  <course>214.38</course>
  <speed>17.67</speed>
  <fix>3d</fix>
</trkpt>
<trkpt lat="-27.2748261" lon="151.2905362">
  <ele>371.68</ele>
  <time>2026-09-01T20:03:32Z</time>
  <course>200.68</course>
  <speed>17.668525688353284</speed>
  <fix>3d</fix>
</trkpt>
<trkpt lat="-27.2747864" lon="151.2905667">
  <ele>371.78</ele>
  <time>2026-09-01T20:03:32Z</time>
  <course>214.38</course>
  <speed>17.67</speed>
  <fix>3d</fix>
</trkpt>
<trkpt lat="-27.274838" lon="151.2905232">
  <ele>371.86</ele>
  <time>2026-09-01T20:03:32Z</time>
  <course>201.77</course>
  <speed>17.863305965022263</speed>
  <fix>3d</fix>
</trkpt>
<trkpt lat="-27.2748122" lon="151.2905455">
  <ele>371.84</ele>
  <time>2026-09-01T20:03:32Z</time>
  <course>217.56</course>
  <speed>17.87</speed>
  <fix>3d</fix>
</trkpt>
<trkpt lat="-27.2748507" lon="151.2905122">
  <ele>371.96</ele>
  <time>2026-09-01T20:03:32Z</time>
  <course>202.87</course>
  <speed>17.863305965022263</speed>
  <fix>3d</fix>
</trkpt>
<trkpt lat="-27.2748122" lon="151.2905455">
  <ele>371.84</ele>
  <time>2026-09-01T20:03:32Z</time>
  <course>217.56</course>
  <speed>17.87</speed>
  <fix>3d</fix>
</trkpt>
<trkpt lat="-27.2748622" lon="151.2904983">
  <ele>372.02</ele>
  <time>2026-09-01T20:03:32Z</time>
  <course>204.01</course>
  <speed>18.08120571200936</speed>
  <fix>3d</fix>
</trkpt>
<trkpt lat="-27.2748373" lon="151.2905225">
  <ele>371.89</ele>
  <time>2026-09-01T20:03:32Z</time>
  <course>220.72</course>
  <speed>18.08</speed>
  <fix>3d</fix>
</trkpt>
<trkpt lat="-27.2748746" lon="151.2904864">
  <ele>371.78</ele>
  <time>2026-09-01T20:03:32Z</time>
  <course>205.18</course>
  <speed>18.08120571200936</speed>
  <fix>3d</fix>
</trkpt>
<trkpt lat="-27.2748373" lon="151.2905225">
  <ele>371.89</ele>
  <time>2026-09-01T20:03:32Z</time>
  <course>220.72</course>
  <speed>18.08</speed>
  <fix>3d</fix>
</trkpt>
<trkpt lat="-27.2748855" lon="151.2904718">
  <ele>371.99</ele>
  <time>2026-09-01T20:03:32Z</time>
  <course>206.36</course>
  <speed>18.32468553618315</speed>
  <fix>3d</fix>
</trkpt>
<trkpt lat="-27.2748615" lon="151.2904978">
  <ele>371.93</ele>
  <time>2026-09-01T20:03:32Z</time>
  <course>223.88</course>
  <speed>18.32</speed>
  <fix>3d</fix>
</trkpt>
<trkpt lat="-27.2748974" lon="151.2904589">
  <ele>371.82</ele>
  <time>2026-09-01T20:03:32Z</time>
  <course>207.53</course>
  <speed>18.32468553618315</speed>
  <fix>3d</fix>
</trkpt>
<trkpt lat="-27.2748615" lon="151.2904978">
  <ele>371.93</ele>
  <time>2026-09-01T20:03:32Z</time>
  <course>223.88</course>
  <speed>18.32</speed>
  <fix>3d</fix>
</trkpt>
<trkpt lat="-27.2749077" lon="151.2904432">
  <ele>372.07</ele>
  <time>2026-09-01T20:03:32Z</time>
  <course>208.69</course>
  <speed>18.58102795864642</speed>
  <fix>3d</fix>
</trkpt>
<trkpt lat="-27.2748847" lon="151.2904711">
  <ele>371.97</ele>
  <time>2026-09-01T20:03:32Z</time>
  <course>227.1</course>
  <speed>18.59</speed>
  <fix>3d</fix>
</trkpt>
<trkpt lat="-27.2749191" lon="151.2904294">
  <ele>372.21</ele>
  <time>2026-09-01T20:03:32Z</time>
  <course>209.85</course>
  <speed>18.58102795864642</speed>
  <fix>3d</fix>
</trkpt>
<trkpt lat="-27.2748847" lon="151.2904711">
  <ele>371.97</ele>
  <time>2026-09-01T20:03:32Z</time>
  <course>227.1</course>
  <speed>18.59</speed>
  <fix>3d</fix>
</trkpt>
<trkpt lat="-27.274929" lon="151.2904126">
  <ele>372.07</ele>
  <time>2026-09-01T20:03:32Z</time>
  <course>211.04</course>
  <speed>18.87653040153301</speed>
  <fix>3d</fix>
</trkpt>
<trkpt lat="-27.2749069" lon="151.2904427">
  <ele>372.02</ele>
  <time>2026-09-01T20:03:32Z</time>
  <course>230.33</course>
  <speed>18.87</speed>
  <fix>3d</fix>
</trkpt>
<trkpt lat="-27.2749399" lon="151.290398">
  <ele>372.08</ele>
  <time>2026-09-01T20:03:32Z</time>
  <course>212.2</course>
  <speed>18.87653040153301</speed>
  <fix>3d</fix>
</trkpt>
<trkpt lat="-27.2749069" lon="151.2904427">
  <ele>372.02</ele>
  <time>2026-09-01T20:03:32Z</time>
  <course>230.33</course>
  <speed>18.87</speed>
  <fix>3d</fix>
</trkpt>
<trkpt lat="-27.2749487" lon="151.2903808">
  <ele>372.22</ele>
  <time>2026-09-01T20:03:32Z</time>
  <course>213.41</course>
  <speed>19.17645431251565</speed>
  <fix>3d</fix>
</trkpt>
<trkpt lat="-27.2749279" lon="151.2904125">
  <ele>372.07</ele>
  <time>2026-09-01T20:03:32Z</time>
  <course>233.51</course>
  <speed>19.18</speed>
  <fix>3d</fix>
</trkpt>
<trkpt lat="-27.2749589" lon="151.2903653">
  <ele>372.29</ele>
  <time>2026-09-01T20:03:32Z</time>
  <course>214.65</course>
  <speed>19.17645431251565</speed>
  <fix>3d</fix>
</trkpt>
<trkpt lat="-27.2749279" lon="151.2904125">
  <ele>372.07</ele>
  <time>2026-09-01T20:03:32Z</time>
  <course>233.51</course>
  <speed>19.18</speed>
  <fix>3d</fix>
</trkpt>
<trkpt lat="-27.2749673" lon="151.290347">
  <ele>372.3</ele>
  <time>2026-09-01T20:03:32Z</time>
  <course>215.89</course>
  <speed>19.48698283470276</speed>
  <fix>3d</fix>
</trkpt>
<trkpt lat="-27.2749478" lon="151.2903804">
  <ele>372.11</ele>
  <time>2026-09-01T20:03:32Z</time>
  <course>236.66</course>
  <speed>19.49</speed>
  <fix>3d</fix>
</trkpt>
<trkpt lat="-27.2749769" lon="151.2903306">
  <ele>371.96</ele>
  <time>2026-09-01T20:03:32Z</time>
  <course>217.22</course>
  <speed>19.48698283470276</speed>
  <fix>3d</fix>
</trkpt>
<trkpt lat="-27.2749478" lon="151.2903804">
  <ele>372.11</ele>
  <time>2026-09-01T20:03:32Z</time>
  <course>236.66</course>
  <speed>19.49</speed>
  <fix>3d</fix>
</trkpt>
<trkpt lat="-27.2749845" lon="151.2903115">
  <ele>372.03</ele>
  <time>2026-09-01T20:03:32Z</time>
  <course>218.54</course>
  <speed>19.823753428652203</speed>
  <fix>3d</fix>
</trkpt>
<trkpt lat="-27.2749664" lon="151.2903466">
  <ele>372.16</ele>
  <time>2026-09-01T20:03:32Z</time>
  <course>239.82</course>
  <speed>19.83</speed>
  <fix>3d</fix>
</trkpt>
<trkpt lat="-27.2749935" lon="151.2902941">
  <ele>372.02</ele>
  <time>2026-09-01T20:03:32Z</time>
  <course>219.88</course>
  <speed>19.823753428652203</speed>
  <fix>3d</fix>
</trkpt>
<trkpt lat="-27.2749664" lon="151.2903466">
  <ele>372.16</ele>
  <time>2026-09-01T20:03:32Z</time>
  <course>239.82</course>
  <speed>19.83</speed>
  <fix>3d</fix>
</trkpt>
<trkpt lat="-27.2750002" lon="151.2902742">
  <ele>372.36</ele>
  <time>2026-09-01T20:03:32Z</time>
  <course>221.19</course>
  <speed>20.187610061619477</speed>
  <fix>3d</fix>
</trkpt>
<trkpt lat="-27.2749836" lon="151.2903111">
  <ele>372.2</ele>
  <time>2026-09-01T20:03:32Z</time>
  <course>243.07</course>
  <speed>20.19</speed>
  <fix>3d</fix>
</trkpt>
<trkpt lat="-27.2750084" lon="151.290256">
  <ele>372.22</ele>
  <time>2026-09-01T20:03:32Z</time>
  <course>222.61</course>
  <speed>20.187610061619477</speed>
  <fix>3d</fix>
</trkpt>
<trkpt lat="-27.2749836" lon="151.2903111">
  <ele>372.2</ele>
  <time>2026-09-01T20:03:32Z</time>
  <course>243.07</course>
  <speed>20.19</speed>
  <fix>3d</fix>
</trkpt>
<trkpt lat="-27.2750142" lon="151.2902351">
  <ele>372.11</ele>
  <time>2026-09-01T20:03:32Z</time>
  <course>224.04</course>
  <speed>20.594644935031045</speed>
  <fix>3d</fix>
</trkpt>
<trkpt lat="-27.2749992" lon="151.2902738">
  <ele>372.24</ele>
  <time>2026-09-01T20:03:32Z</time>
  <course>246.39</course>
  <speed>20.6</speed>
  <fix>3d</fix>
</trkpt>
<trkpt lat="-27.2750216" lon="151.290216">
  <ele>372.12</ele>
  <time>2026-09-01T20:03:32Z</time>
  <course>225.5</course>
  <speed>20.594644935031045</speed>
  <fix>3d</fix>
</trkpt>
<trkpt lat="-27.2749992" lon="151.2902738">
  <ele>372.24</ele>
  <time>2026-09-01T20:03:32Z</time>
  <course>246.39</course>
  <speed>20.6</speed>
  <fix>3d</fix>
</trkpt>
<trkpt lat="-27.2750264" lon="151.2901943">
  <ele>372.42</ele>
  <time>2026-09-01T20:03:32Z</time>
  <course>227.01</course>
  <speed>21.03024726435712</speed>
  <fix>3d</fix>
</trkpt>
<trkpt lat="-27.2750132" lon="151.2902347">
  <ele>372.28</ele>
  <time>2026-09-01T20:03:32Z</time>
  <course>249.75</course>
  <speed>21.03</speed>
  <fix>3d</fix>
</trkpt>
<trkpt lat="-27.275033" lon="151.2901743">
  <ele>372.52</ele>
  <time>2026-09-01T20:03:32Z</time>
  <course>228.49</course>
  <speed>21.03024726435712</speed>
  <fix>3d</fix>
</trkpt>
<trkpt lat="-27.2750132" lon="151.2902347">
  <ele>372.28</ele>
  <time>2026-09-01T20:03:32Z</time>
  <course>249.75</course>
  <speed>21.03</speed>
  <fix>3d</fix>
</trkpt>
<trkpt lat="-27.2750366" lon="151.2901517">
  <ele>372.54</ele>
  <time>2026-09-01T20:03:32Z</time>
  <course>230.02</course>
  <speed>21.49652297465802</speed>
  <fix>3d</fix>
</trkpt>
<trkpt lat="-27.2750253" lon="151.2901939">
  <ele>372.33</ele>
  <time>2026-09-01T20:03:32Z</time>
  <course>253.19</course>
  <speed>21.5</speed>
  <fix>3d</fix>
</trkpt>
<trkpt lat="-27.2750422" lon="151.2901309">
  <ele>372.28</ele>
  <time>2026-09-01T20:03:32Z</time>
  <course>231.61</course>
  <speed>21.49652297465802</speed>
  <fix>3d</fix>
</trkpt>
<trkpt lat="-27.2750253" lon="151.2901939">
  <ele>372.33</ele>
  <time>2026-09-01T20:03:32Z</time>
  <course>253.19</course>
  <speed>21.5</speed>
  <fix>3d</fix>
</trkpt>
<trkpt lat="-27.2750447" lon="151.2901075">
  <ele>372.44</ele>
  <time>2026-09-01T20:03:32Z</time>
  <course>233.14</course>
  <speed>21.99238277222366</speed>
  <fix>3d</fix>
</trkpt>
<trkpt lat="-27.2750355" lon="151.2901514">
  <ele>372.39</ele>
  <time>2026-09-01T20:03:32Z</time>
  <course>256.67</course>
  <speed>21.99</speed>
  <fix>3d</fix>
</trkpt>
<trkpt lat="-27.2750493" lon="151.2900859">
  <ele>372.37</ele>
  <time>2026-09-01T20:03:32Z</time>
  <course>234.74</course>
  <speed>21.99238277222366</speed>
  <fix>3d</fix>
</trkpt>
<trkpt lat="-27.2750355" lon="151.2901514">
  <ele>372.39</ele>
  <time>2026-09-01T20:03:32Z</time>
  <course>256.67</course>
  <speed>21.99</speed>
  <fix>3d</fix>
</trkpt>
<trkpt lat="-27.2750505" lon="151.2900619">
  <ele>372.45</ele>
  <time>2026-09-01T20:03:32Z</time>
  <course>236.44</course>
  <speed>22.501808816181864</speed>
  <fix>3d</fix>
</trkpt>
<trkpt lat="-27.2750435" lon="151.2901074">
  <ele>372.46</ele>
  <time>2026-09-01T20:03:32Z</time>
  <course>260.14</course>
  <speed>22.5</speed>
  <fix>3d</fix>
</trkpt>
<trkpt lat="-27.2750539" lon="151.2900395">
  <ele>372.47</ele>
  <time>2026-09-01T20:03:32Z</time>
  <course>238.14</course>
  <speed>22.501808816181864</speed>
  <fix>3d</fix>
</trkpt>
<trkpt lat="-27.2750435" lon="151.2901074">
  <ele>372.46</ele>
  <time>2026-09-01T20:03:32Z</time>
  <course>260.14</course>
  <speed>22.5</speed>
  <fix>3d</fix>
</trkpt>
<trkpt lat="-27.2750539" lon="151.2900146">
  <ele>372.49</ele>
  <time>2026-09-01T20:03:32Z</time>
  <course>239.86</course>
  <speed>23.049273307416875</speed>
  <fix>3d</fix>
</trkpt>
<trkpt lat="-27.2750493" lon="151.2900618">
  <ele>372.53</ele>
  <time>2026-09-01T20:03:32Z</time>
  <course>263.68</course>
  <speed>23.05</speed>
  <fix>3d</fix>
</trkpt>
<trkpt lat="-27.2750562" lon="151.2899914">
  <ele>372.78</ele>
  <time>2026-09-01T20:03:32Z</time>
  <course>241.62</course>
  <speed>23.049273307416875</speed>
  <fix>3d</fix>
</trkpt>
<trkpt lat="-27.2750493" lon="151.2900618">
  <ele>372.53</ele>
  <time>2026-09-01T20:03:32Z</time>
  <course>263.68</course>
  <speed>23.05</speed>
  <fix>3d</fix>
</trkpt>
<trkpt lat="-27.2750546" lon="151.2899662">
  <ele>372.59</ele>
  <time>2026-09-01T20:03:32Z</time>
  <course>243.38</course>
  <speed>23.62608939287245</speed>
  <fix>3d</fix>
</trkpt>
<trkpt lat="-27.2750526" lon="151.2900148">
  <ele>372.61</ele>
  <time>2026-09-01T20:03:32Z</time>
  <course>267.28</course>
  <speed>23.62</speed>
  <fix>3d</fix>
</trkpt>
<trkpt lat="-27.2750556" lon="151.2899423">
  <ele>372.58</ele>
  <time>2026-09-01T20:03:32Z</time>
  <course>245.18</course>
  <speed>23.62608939287245</speed>
  <fix>3d</fix>
</trkpt>
<trkpt lat="-27.2750526" lon="151.2900148">
  <ele>372.61</ele>
  <time>2026-09-01T20:03:32Z</time>
  <course>267.28</course>
  <speed>23.62</speed>
  <fix>3d</fix>
</trkpt>
<trkpt lat="-27.2750526" lon="151.2899166">
  <ele>372.71</ele>
  <time>2026-09-01T20:03:32Z</time>
  <course>247.12</course>
  <speed>24.222980824002647</speed>
  <fix>3d</fix>
</trkpt>
<trkpt lat="-27.2750532" lon="151.2899665">
  <ele>372.71</ele>
  <time>2026-09-01T20:03:32Z</time>
  <course>270.9</course>
  <speed>24.22</speed>
  <fix>3d</fix>
</trkpt>
<trkpt lat="-27.2750522" lon="151.2898921">
  <ele>372.84</ele>
  <time>2026-09-01T20:03:32Z</time>
  <course>249.11</course>
  <speed>24.222980824002647</speed>
  <fix>3d</fix>
</trkpt>
<trkpt lat="-27.2750532" lon="151.2899665">
  <ele>372.71</ele>
  <time>2026-09-01T20:03:32Z</time>
  <course>270.9</course>
  <speed>24.22</speed>
  <fix>3d</fix>
</trkpt>
<trkpt lat="-27.2750476" lon="151.289866">
  <ele>373.08</ele>
  <time>2026-09-01T20:03:32Z</time>
  <course>251.08</course>
  <speed>24.839041849475592</speed>
  <fix>3d</fix>
</trkpt>
<trkpt lat="-27.2750512" lon="151.289917">
  <ele>372.81</ele>
  <time>2026-09-01T20:03:32Z</time>
  <course>274.57</course>
  <speed>24.84</speed>
  <fix>3d</fix>
</trkpt>
<trkpt lat="-27.2750458" lon="151.289841">
  <ele>372.87</ele>
  <time>2026-09-01T20:03:32Z</time>
  <course>253.13</course>
  <speed>24.839041849475592</speed>
  <fix>3d</fix>
</trkpt>
<trkpt lat="-27.2750512" lon="151.289917">
  <ele>372.81</ele>
  <time>2026-09-01T20:03:32Z</time>
  <course>274.57</course>
  <speed>24.84</speed>
  <fix>3d</fix>
</trkpt>
<trkpt lat="-27.2750394" lon="151.2898144">
  <ele>373.06</ele>
  <time>2026-09-01T20:03:32Z</time>
  <course>255.26</course>
  <speed>25.499860783933705</speed>
  <fix>3d</fix>
</trkpt>
<trkpt lat="-27.2750461" lon="151.2898664">
  <ele>372.91</ele>
  <time>2026-09-01T20:03:32Z</time>
  <course>278.36</course>
  <speed>25.5</speed>
  <fix>3d</fix>
</trkpt>
<trkpt lat="-27.275036" lon="151.2897889">
  <ele>373.24</ele>
  <time>2026-09-01T20:03:32Z</time>
  <course>257.41</course>
  <speed>25.499860783933705</speed>
  <fix>3d</fix>
</trkpt>
<trkpt lat="-27.2750461" lon="151.2898664">
  <ele>372.91</ele>
  <time>2026-09-01T20:03:32Z</time>
  <course>278.36</course>
  <speed>25.5</speed>
  <fix>3d</fix>
</trkpt>
<trkpt lat="-27.2750277" lon="151.2897627">
  <ele>373.04</ele>
  <time>2026-09-01T20:03:32Z</time>
  <course>259.59</course>
  <speed>26.175158070200837</speed>
  <fix>3d</fix>
</trkpt>
<trkpt lat="-27.2750378" lon="151.2898151">
  <ele>373.03</ele>
  <time>2026-09-01T20:03:32Z</time>
  <course>282.24</course>
  <speed>26.18</speed>
  <fix>3d</fix>
</trkpt>
<trkpt lat="-27.2750227" lon="151.2897368">
  <ele>373.4</ele>
  <time>2026-09-01T20:03:32Z</time>
  <course>261.86</course>
  <speed>26.175158070200837</speed>
  <fix>3d</fix>
</trkpt>
<trkpt lat="-27.2750378" lon="151.2898151">
  <ele>373.03</ele>
  <time>2026-09-01T20:03:32Z</time>
  <course>282.24</course>
  <speed>26.18</speed>
  <fix>3d</fix>
</trkpt>
<trkpt lat="-27.2750125" lon="151.2897102">
  <ele>373.23</ele>
  <time>2026-09-01T20:03:32Z</time>
  <course>264.24</course>
  <speed>26.865221011560653</speed>
  <fix>3d</fix>
</trkpt>
<trkpt lat="-27.2750261" lon="151.2897631">
  <ele>373.16</ele>
  <time>2026-09-01T20:03:32Z</time>
  <course>286.18</course>
  <speed>26.87</speed>
  <fix>3d</fix>
</trkpt>
<trkpt lat="-27.2750058" lon="151.2896841">
  <ele>373.37</ele>
  <time>2026-09-01T20:03:32Z</time>
  <course>266.56</course>
  <speed>26.865221011560653</speed>
  <fix>3d</fix>
</trkpt>
<trkpt lat="-27.2750261" lon="151.2897631">
  <ele>373.16</ele>
  <time>2026-09-01T20:03:32Z</time>
  <course>286.18</course>
  <speed>26.87</speed>
  <fix>3d</fix>
</trkpt>
<trkpt lat="-27.2749933" lon="151.2896577">
  <ele>373.59</ele>
  <time>2026-09-01T20:03:32Z</time>
  <course>268.94</course>
  <speed>27.58234942857479</speed>
  <fix>3d</fix>
</trkpt>
<trkpt lat="-27.2750107" lon="151.2897108">
  <ele>373.31</ele>
  <time>2026-09-01T20:03:32Z</time>
  <course>290.23</course>
  <speed>27.59</speed>
  <fix>3d</fix>
</trkpt>
<trkpt lat="-27.2749848" lon="151.2896316">
  <ele>373.58</ele>
  <time>2026-09-01T20:03:32Z</time>
  <course>271.44</course>
  <speed>27.58234942857479</speed>
  <fix>3d</fix>
</trkpt>
<trkpt lat="-27.2750107" lon="151.2897108">
  <ele>373.31</ele>
  <time>2026-09-01T20:03:32Z</time>
  <course>290.23</course>
  <speed>27.59</speed>
  <fix>3d</fix>
</trkpt>
<trkpt lat="-27.2749704" lon="151.2896055">
  <ele>373.68</ele>
  <time>2026-09-01T20:03:32Z</time>
  <course>273.98</course>
  <speed>28.328960446864265</speed>
  <fix>3d</fix>
</trkpt>
<trkpt lat="-27.2749917" lon="151.2896584">
  <ele>373.47</ele>
  <time>2026-09-01T20:03:32Z</time>
  <course>294.4</course>
  <speed>28.33</speed>
  <fix>3d</fix>
</trkpt>
<trkpt lat="-27.2749599" lon="151.2895794">
  <ele>373.82</ele>
  <time>2026-09-01T20:03:32Z</time>
  <course>276.65</course>
  <speed>28.328960446864265</speed>
  <fix>3d</fix>
</trkpt>
<trkpt lat="-27.2749917" lon="151.2896584">
  <ele>373.47</ele>
  <time>2026-09-01T20:03:32Z</time>
  <course>294.4</course>
  <speed>28.33</speed>
  <fix>3d</fix>
</trkpt>
<trkpt lat="-27.2749432" lon="151.2895542">
  <ele>373.74</ele>
  <time>2026-09-01T20:03:32Z</time>
  <course>279.36</course>
  <speed>29.083894168422493</speed>
  <fix>3d</fix>
</trkpt>
<trkpt lat="-27.2749686" lon="151.2896065">
  <ele>373.64</ele>
  <time>2026-09-01T20:03:32Z</time>
  <course>298.66</course>
  <speed>29.08</speed>
  <fix>3d</fix>
</trkpt>
<trkpt lat="-27.2749307" lon="151.2895284">
  <ele>374.02</ele>
  <time>2026-09-01T20:03:32Z</time>
  <course>282.08</course>
  <speed>29.083894168422493</speed>
  <fix>3d</fix>
</trkpt>
<trkpt lat="-27.2749686" lon="151.2896065">
  <ele>373.64</ele>
  <time>2026-09-01T20:03:32Z</time>
  <course>298.66</course>
  <speed>29.08</speed>
  <fix>3d</fix>
</trkpt>
<trkpt lat="-27.2749119" lon="151.2895042">
  <ele>374.17</ele>
  <time>2026-09-01T20:03:32Z</time>
  <course>284.88</course>
  <speed>29.83643745489733</speed>
  <fix>3d</fix>
</trkpt>
<trkpt lat="-27.2749415" lon="151.2895555">
  <ele>373.83</ele>
  <time>2026-09-01T20:03:32Z</time>
  <course>303.05</course>
  <speed>29.84</speed>
  <fix>3d</fix>
</trkpt>
<trkpt lat="-27.2748972" lon="151.289479">
  <ele>374.09</ele>
  <time>2026-09-01T20:03:32Z</time>
  <course>287.69</course>
  <speed>29.83643745489733</speed>
  <fix>3d</fix>
</trkpt>
<trkpt lat="-27.2749415" lon="151.2895555">
  <ele>373.83</ele>
  <time>2026-09-01T20:03:32Z</time>
  <course>303.05</course>
  <speed>29.84</speed>
  <fix>3d</fix>
</trkpt>
<trkpt lat="-27.274876" lon="151.2894556">
  <ele>374.04</ele>
  <time>2026-09-01T20:03:32Z</time>
  <course>290.58</course>
  <speed>30.59591149157024</speed>
  <fix>3d</fix>
</trkpt>
<trkpt lat="-27.2749101" lon="151.2895056">
  <ele>374.04</ele>
  <time>2026-09-01T20:03:32Z</time>
  <course>307.51</course>
  <speed>30.6</speed>
  <fix>3d</fix>
</trkpt>
<trkpt lat="-27.2748593" lon="151.2894311">
  <ele>374.51</ele>
  <time>2026-09-01T20:03:32Z</time>
  <course>293.57</course>
  <speed>30.59591149157024</speed>
  <fix>3d</fix>
</trkpt>
<trkpt lat="-27.2749101" lon="151.2895056">
  <ele>374.04</ele>
  <time>2026-09-01T20:03:32Z</time>
  <course>307.51</course>
  <speed>30.6</speed>
  <fix>3d</fix>
</trkpt>
<trkpt lat="-27.2748361" lon="151.2894097">
  <ele>374.48</ele>
  <time>2026-09-01T20:03:32Z</time>
  <course>296.73</course>
  <speed>31.344742780887515</speed>
  <fix>3d</fix>
</trkpt>
<trkpt lat="-27.2748745" lon="151.2894576">
  <ele>374.28</ele>
  <time>2026-09-01T20:03:32Z</time>
  <course>312.05</course>
  <speed>31.35</speed>
  <fix>3d</fix>
</trkpt>
<trkpt lat="-27.2748172" lon="151.2893861">
  <ele>374.77</ele>
  <time>2026-09-01T20:03:32Z</time>
  <course>299.82</course>
  <speed>31.344742780887515</speed>
  <fix>3d</fix>
</trkpt>
<trkpt lat="-27.2748745" lon="151.2894576">
  <ele>374.28</ele>
  <time>2026-09-01T20:03:32Z</time>
  <course>312.05</course>
  <speed>31.35</speed>
  <fix>3d</fix>
</trkpt>
<trkpt lat="-27.2747919" lon="151.2893665">
  <ele>374.66</ele>
  <time>2026-09-01T20:03:32Z</time>
  <course>303.14</course>
  <speed>32.08235184645914</speed>
  <fix>3d</fix>
</trkpt>
<trkpt lat="-27.2748347" lon="151.2894118">
  <ele>374.53</ele>
  <time>2026-09-01T20:03:32Z</time>
  <course>316.75</course>
  <speed>32.08</speed>
  <fix>3d</fix>
</trkpt>
<trkpt lat="-27.2747709" lon="151.2893443">
  <ele>374.8</ele>
  <time>2026-09-01T20:03:32Z</time>
  <course>306.49</course>
  <speed>32.08235184645914</speed>
  <fix>3d</fix>
</trkpt>
<trkpt lat="-27.2748347" lon="151.2894118">
  <ele>374.53</ele>
  <time>2026-09-01T20:03:32Z</time>
  <course>316.75</course>
  <speed>32.08</speed>
  <fix>3d</fix>
</trkpt>
<trkpt lat="-27.2747435" lon="151.2893271">
  <ele>375.26</ele>
  <time>2026-09-01T20:03:32Z</time>
  <course>309.82</course>
  <speed>32.796964798590736</speed>
  <fix>3d</fix>
</trkpt>
<trkpt lat="-27.2747906" lon="151.289369">
  <ele>374.82</ele>
  <time>2026-09-01T20:03:32Z</time>
  <course>321.64</course>
  <speed>32.79</speed>
  <fix>3d</fix>
</trkpt>
<trkpt lat="-27.2747206" lon="151.2893067">
  <ele>375.35</ele>
  <time>2026-09-01T20:03:32Z</time>
  <course>313.17</course>
  <speed>32.796964798590736</speed>
  <fix>3d</fix>
</trkpt>
<trkpt lat="-27.2747906" lon="151.289369">
  <ele>374.82</ele>
  <time>2026-09-01T20:03:32Z</time>
  <course>321.64</course>
  <speed>32.79</speed>
  <fix>3d</fix>
</trkpt>
<trkpt lat="-27.2746915" lon="151.2892921">
  <ele>375.48</ele>
  <time>2026-09-01T20:03:32Z</time>
  <course>316.67</course>
  <speed>33.46285253829984</speed>
  <fix>3d</fix>
</trkpt>
<trkpt lat="-27.2747424" lon="151.2893298">
  <ele>375.13</ele>
  <time>2026-09-01T20:03:32Z</time>
  <course>326.64</course>
  <speed>33.46</speed>
  <fix>3d</fix>
</trkpt>
<trkpt lat="-27.2746664" lon="151.2892735">
  <ele>375.44</ele>
  <time>2026-09-01T20:03:32Z</time>
  <course>320.17</course>
  <speed>33.46285253829984</speed>
  <fix>3d</fix>
</trkpt>
<trkpt lat="-27.2747424" lon="151.2893298">
  <ele>375.13</ele>
  <time>2026-09-01T20:03:32Z</time>
  <course>326.64</course>
  <speed>33.46</speed>
  <fix>3d</fix>
</trkpt>
<trkpt lat="-27.2746356" lon="151.2892617">
  <ele>375.64</ele>
  <time>2026-09-01T20:03:32Z</time>
  <course>323.78</course>
  <speed>34.0661063228541</speed>
  <fix>3d</fix>
</trkpt>
<trkpt lat="-27.2746903" lon="151.2892948">
  <ele>375.48</ele>
  <time>2026-09-01T20:03:32Z</time>
  <course>331.71</course>
  <speed>34.06</speed>
  <fix>3d</fix>
</trkpt>
<trkpt lat="-27.2746087" lon="151.2892454">
  <ele>375.8</ele>
  <time>2026-09-01T20:03:32Z</time>
  <course>327.46</course>
  <speed>34.0661063228541</speed>
  <fix>3d</fix>
</trkpt>
<trkpt lat="-27.2746903" lon="151.2892948">
  <ele>375.48</ele>
  <time>2026-09-01T20:03:32Z</time>
  <course>331.71</course>
  <speed>34.06</speed>
  <fix>3d</fix>
</trkpt>
<trkpt lat="-27.2745766" lon="151.2892369">
  <ele>376.25</ele>
  <time>2026-09-01T20:03:32Z</time>
  <course>331.15</course>
  <speed>34.5835365455877</speed>
  <fix>3d</fix>
</trkpt>
<trkpt lat="-27.2746346" lon="151.2892647">
  <ele>375.87</ele>
  <time>2026-09-01T20:03:32Z</time>
  <course>336.89</course>
  <speed>34.59</speed>
  <fix>3d</fix>
</trkpt>
<trkpt lat="-27.274548" lon="151.2892232">
  <ele>376.25</ele>
  <time>2026-09-01T20:03:32Z</time>
  <course>334.83</course>
  <speed>34.5835365455877</speed>
  <fix>3d</fix>
</trkpt>
<trkpt lat="-27.2746346" lon="151.2892647">
  <ele>375.87</ele>
  <time>2026-09-01T20:03:32Z</time>
  <course>336.89</course>
  <speed>34.59</speed>
  <fix>3d</fix>
</trkpt>
<trkpt lat="-27.2745148" lon="151.2892181">
  <ele>376.46</ele>
  <time>2026-09-01T20:03:32Z</time>
  <course>338.47</course>
  <speed>35.02751204410613</speed>
  <fix>3d</fix>
</trkpt>
<trkpt lat="-27.2745759" lon="151.2892401">
  <ele>376.29</ele>
  <time>2026-09-01T20:03:32Z</time>
  <course>342.19</course>
  <speed>35.03</speed>
  <fix>3d</fix>
</trkpt>
<trkpt lat="-27.2744849" lon="151.2892072">
  <ele>376.82</ele>
  <time>2026-09-01T20:03:32Z</time>
  <course>342.07</course>
  <speed>35.02751204410613</speed>
  <fix>3d</fix>
</trkpt>
<trkpt lat="-27.2745759" lon="151.2892401">
  <ele>376.29</ele>
  <time>2026-09-01T20:03:32Z</time>
  <course>342.19</course>
  <speed>35.03</speed>
  <fix>3d</fix>
</trkpt>
<trkpt lat="-27.274452" lon="151.2892058">
  <ele>377.0</ele>
  <time>2026-09-01T20:03:32Z</time>
  <course>345.69</course>
  <speed>35.35966628801805</speed>
  <fix>3d</fix>
</trkpt>
<trkpt lat="-27.2745149" lon="151.2892215">
  <ele>376.74</ele>
  <time>2026-09-01T20:03:32Z</time>
  <course>347.48</course>
  <speed>35.36</speed>
  <fix>3d</fix>
</trkpt>
<trkpt lat="-27.274421" lon="151.2891981">
  <ele>377.47</ele>
  <time>2026-09-01T20:03:32Z</time>
  <course>349.31</course>
  <speed>35.35966628801805</speed>
  <fix>3d</fix>
</trkpt>
<trkpt lat="-27.2745149" lon="151.2892215">
  <ele>376.74</ele>
  <time>2026-09-01T20:03:32Z</time>
  <course>347.48</course>
  <speed>35.36</speed>
  <fix>3d</fix>
</trkpt>
<trkpt lat="-27.2743879" lon="151.2892">
  <ele>377.78</ele>
  <time>2026-09-01T20:03:32Z</time>
  <course>352.83</course>
  <speed>35.55844906629084</speed>
  <fix>3d</fix>
</trkpt>
<trkpt lat="-27.2744522" lon="151.2892092">
  <ele>377.23</ele>
  <time>2026-09-01T20:03:32Z</time>
  <course>352.68</course>
  <speed>35.56</speed>
  <fix>3d</fix>
</trkpt>
<trkpt lat="-27.2743562" lon="151.2891954">
  <ele>377.75</ele>
  <time>2026-09-01T20:03:32Z</time>
  <course>356.27</course>
  <speed>35.55844906629084</speed>
  <fix>3d</fix>
</trkpt>
<trkpt lat="-27.2744522" lon="151.2892092">
  <ele>377.23</ele>
  <time>2026-09-01T20:03:32Z</time>
  <course>352.68</course>
  <speed>35.56</speed>
  <fix>3d</fix>
</trkpt>
<trkpt lat="-27.2743232" lon="151.2892005">
  <ele>378.02</ele>
  <time>2026-09-01T20:03:32Z</time>
  <course>359.62</course>
  <speed>35.62635120244564</speed>
  <fix>3d</fix>
</trkpt>
<trkpt lat="-27.2743884" lon="151.2892033">
  <ele>377.73</ele>
  <time>2026-09-01T20:03:32Z</time>
  <course>357.78</course>
  <speed>35.63</speed>
  <fix>3d</fix>
</trkpt>
<trkpt lat="-27.2742912" lon="151.2891991">
  <ele>378.26</ele>
  <time>2026-09-01T20:03:32Z</time>
  <course>3.03</course>
  <speed>35.62635120244564</speed>
  <fix>3d</fix>
</trkpt>
<trkpt lat="-27.2743884" lon="151.2892033">
  <ele>377.73</ele>
  <time>2026-09-01T20:03:32Z</time>
  <course>357.78</course>
  <speed>35.63</speed>
  <fix>3d</fix>
</trkpt>
<trkpt lat="-27.2742594" lon="151.289207">
  <ele>378.81</ele>
  <time>2026-09-01T20:03:32Z</time>
  <course>6.3</course>
  <speed>35.569696372052434</speed>
  <fix>3d</fix>
</trkpt>
<trkpt lat="-27.2743245" lon="151.2892036">
  <ele>378.23</ele>
  <time>2026-09-01T20:03:32Z</time>
  <course>2.7</course>
  <speed>35.57</speed>
  <fix>3d</fix>
</trkpt>
<trkpt lat="-27.2742275" lon="151.2892087">
  <ele>379.08</ele>
  <time>2026-09-01T20:03:32Z</time>
  <course>9.42</course>
  <speed>35.569696372052434</speed>
  <fix>3d</fix>
</trkpt>
<trkpt lat="-27.2743245" lon="151.2892036">
  <ele>378.23</ele>
  <time>2026-09-01T20:03:32Z</time>
  <course>2.7</course>
  <speed>35.57</speed>
  <fix>3d</fix>
</trkpt>
<trkpt lat="-27.2741967" lon="151.2892193">
  <ele>378.96</ele>
  <time>2026-09-01T20:03:32Z</time>
  <course>12.39</course>
  <speed>35.397547937675</speed>
  <fix>3d</fix>
</trkpt>
<trkpt lat="-27.274261" lon="151.2892099">
  <ele>378.72</ele>
  <time>2026-09-01T20:03:32Z</time>
  <course>7.44</course>
  <speed>35.39</speed>
  <fix>3d</fix>
</trkpt>
<trkpt lat="-27.2741652" lon="151.2892239">
  <ele>379.17</ele>
  <time>2026-09-01T20:03:32Z</time>
  <course>15.34</course>
  <speed>35.397547937675</speed>
  <fix>3d</fix>
</trkpt>
<trkpt lat="-27.274261" lon="151.2892099">
  <ele>378.72</ele>
  <time>2026-09-01T20:03:32Z</time>
  <course>7.44</course>
  <speed>35.39</speed>
  <fix>3d</fix>
</trkpt>
<trkpt lat="-27.2741356" lon="151.2892367">
  <ele>379.45</ele>
  <time>2026-09-01T20:03:32Z</time>
  <course>18.29</course>
  <speed>35.131998235227094</speed>
  <fix>3d</fix>
</trkpt>
<trkpt lat="-27.2741986" lon="151.2892218">
  <ele>379.19</ele>
  <time>2026-09-01T20:03:32Z</time>
  <course>11.88</course>
  <speed>35.13</speed>
  <fix>3d</fix>
</trkpt>
<trkpt lat="-27.2741051" lon="151.2892439">
  <ele>379.92</ele>
  <time>2026-09-01T20:03:32Z</time>
  <course>21.19</course>
  <speed>35.131998235227094</speed>
  <fix>3d</fix>
</trkpt>
<trkpt lat="-27.2741986" lon="151.2892218">
  <ele>379.19</ele>
  <time>2026-09-01T20:03:32Z</time>
  <course>11.88</course>
  <speed>35.13</speed>
  <fix>3d</fix>
</trkpt>
<trkpt lat="-27.2740767" lon="151.2892586">
  <ele>379.75</ele>
  <time>2026-09-01T20:03:32Z</time>
  <course>24.05</course>
  <speed>34.79900142245464</speed>
  <fix>3d</fix>
</trkpt>
<trkpt lat="-27.2741376" lon="151.2892389">
  <ele>379.61</ele>
  <time>2026-09-01T20:03:32Z</time>
  <course>16.06</course>
  <speed>34.8</speed>
  <fix>3d</fix>
</trkpt>
<trkpt lat="-27.2740466" lon="151.2892683">
  <ele>380.1</ele>
  <time>2026-09-01T20:03:32Z</time>
  <course>26.94</course>
  <speed>34.79900142245464</speed>
  <fix>3d</fix>
</trkpt>
<trkpt lat="-27.2741376" lon="151.2892389">
  <ele>379.61</ele>
  <time>2026-09-01T20:03:32Z</time>
  <course>16.06</course>
  <speed>34.8</speed>
  <fix>3d</fix>
</trkpt>
<trkpt lat="-27.2740196" lon="151.289285">
  <ele>380.03</ele>
  <time>2026-09-01T20:03:32Z</time>
  <course>29.74</course>
  <speed>34.40512316501715</speed>
  <fix>3d</fix>
</trkpt>
<trkpt lat="-27.2740785" lon="151.2892607">
  <ele>379.97</ele>
  <time>2026-09-01T20:03:32Z</time>
  <course>20.15</course>
  <speed>34.4</speed>
  <fix>3d</fix>
</trkpt>
<trkpt lat="-27.2739906" lon="151.289297">
  <ele>380.4</ele>
  <time>2026-09-01T20:03:32Z</time>
  <course>32.6</course>
  <speed>34.40512316501715</speed>
  <fix>3d</fix>
</trkpt>
<trkpt lat="-27.2740785" lon="151.2892607">
  <ele>379.97</ele>
  <time>2026-09-01T20:03:32Z</time>
  <course>20.15</course>
  <speed>34.4</speed>
  <fix>3d</fix>
</trkpt>
<trkpt lat="-27.2739652" lon="151.2893153">
  <ele>380.51</ele>
  <time>2026-09-01T20:03:32Z</time>
  <course>35.51</course>
  <speed>33.95951265845845</speed>
  <fix>3d</fix>
</trkpt>
<trkpt lat="-27.2740217" lon="151.2892868">
  <ele>380.25</ele>
  <time>2026-09-01T20:03:32Z</time>
  <course>24.17</course>
  <speed>33.96</speed>
  <fix>3d</fix>
</trkpt>
<trkpt lat="-27.2739374" lon="151.2893294">
  <ele>380.6</ele>
  <time>2026-09-01T20:03:32Z</time>
  <course>38.38</course>
  <speed>33.95951265845845</speed>
  <fix>3d</fix>
</trkpt>
<trkpt lat="-27.2740217" lon="151.2892868">
  <ele>380.25</ele>
  <time>2026-09-01T20:03:32Z</time>
  <course>24.17</course>
  <speed>33.96</speed>
  <fix>3d</fix>
</trkpt>
<trkpt lat="-27.2739135" lon="151.2893493">
  <ele>380.74</ele>
  <time>2026-09-01T20:03:32Z</time>
  <course>41.3</course>
  <speed>33.461310494360504</speed>
  <fix>3d</fix>
</trkpt>
<trkpt lat="-27.2739672" lon="151.2893169">
  <ele>380.46</ele>
  <time>2026-09-01T20:03:32Z</time>
  <course>28.23</course>
  <speed>33.46</speed>
  <fix>3d</fix>
</trkpt>
<trkpt lat="-27.273887" lon="151.2893653">
  <ele>380.52</ele>
  <time>2026-09-01T20:03:32Z</time>
  <course>44.21</course>
  <speed>33.461310494360504</speed>
  <fix>3d</fix>
</trkpt>
<trkpt lat="-27.2739672" lon="151.2893169">
  <ele>380.46</ele>
  <time>2026-09-01T20:03:32Z</time>
  <course>28.23</course>
  <speed>33.46</speed>
  <fix>3d</fix>
</trkpt>
<trkpt lat="-27.2738651" lon="151.2893869">
  <ele>380.61</ele>
  <time>2026-09-01T20:03:32Z</time>
  <course>47.2</course>
  <speed>32.89134384606381</speed>
  <fix>3d</fix>
</trkpt>
<trkpt lat="-27.2739157" lon="151.2893508">
  <ele>380.59</ele>
  <time>2026-09-01T20:03:32Z</time>
  <course>32.37</course>
  <speed>32.9</speed>
  <fix>3d</fix>
</trkpt>
<trkpt lat="-27.2738401" lon="151.2894047">
  <ele>380.56</ele>
  <time>2026-09-01T20:03:32Z</time>
  <course>50.19</course>
  <speed>32.89134384606381</speed>
  <fix>3d</fix>
</trkpt>
<trkpt lat="-27.2739157" lon="151.2893508">
  <ele>380.59</ele>
  <time>2026-09-01T20:03:32Z</time>
  <course>32.37</course>
  <speed>32.9</speed>
  <fix>3d</fix>
</trkpt>
<trkpt lat="-27.2738203" lon="151.2894275">
  <ele>380.75</ele>
  <time>2026-09-01T20:03:32Z</time>
  <course>53.24</course>
  <speed>32.27236743717449</speed>
  <fix>3d</fix>
</trkpt>
<trkpt lat="-27.2738675" lon="151.2893881">
  <ele>380.64</ele>
  <time>2026-09-01T20:03:32Z</time>
  <course>36.59</course>
  <speed>32.27</speed>
  <fix>3d</fix>
</trkpt>
<trkpt lat="-27.273797" lon="151.289447">
  <ele>380.76</ele>
  <time>2026-09-01T20:03:32Z</time>
  <course>56.3</course>
  <speed>32.27236743717449</speed>
  <fix>3d</fix>
</trkpt>
<trkpt lat="-27.2738675" lon="151.2893881">
  <ele>380.64</ele>
  <time>2026-09-01T20:03:32Z</time>
  <course>36.59</course>
  <speed>32.27</speed>
  <fix>3d</fix>
</trkpt>
<trkpt lat="-27.2737794" lon="151.2894709">
  <ele>380.43</ele>
  <time>2026-09-01T20:03:32Z</time>
  <course>59.46</course>
  <speed>31.5727034002475</speed>
  <fix>3d</fix>
</trkpt>
<trkpt lat="-27.2738228" lon="151.2894285">
  <ele>380.62</ele>
  <time>2026-09-01T20:03:32Z</time>
  <course>40.96</course>
  <speed>31.58</speed>
  <fix>3d</fix>
</trkpt>
<trkpt lat="-27.2737579" lon="151.2894918">
  <ele>380.43</ele>
  <time>2026-09-01T20:03:32Z</time>
  <course>62.67</course>
  <speed>31.5727034002475</speed>
  <fix>3d</fix>
</trkpt>
<trkpt lat="-27.2738228" lon="151.2894285">
  <ele>380.62</ele>
  <time>2026-09-01T20:03:32Z</time>
  <course>40.96</course>
  <speed>31.58</speed>
  <fix>3d</fix>
</trkpt>
<trkpt lat="-27.2737425" lon="151.2895169">
  <ele>380.58</ele>
  <time>2026-09-01T20:03:32Z</time>
  <course>65.92</course>
  <speed>30.795864982169277</speed>
  <fix>3d</fix>
</trkpt>
<trkpt lat="-27.273782" lon="151.2894716">
  <ele>380.52</ele>
  <time>2026-09-01T20:03:32Z</time>
  <course>45.54</course>
  <speed>30.8</speed>
  <fix>3d</fix>
</trkpt>
<trkpt lat="-27.2737231" lon="151.2895391">
  <ele>380.33</ele>
  <time>2026-09-01T20:03:32Z</time>
  <course>69.23</course>
  <speed>30.795864982169277</speed>
  <fix>3d</fix>
</trkpt>
<trkpt lat="-27.273782" lon="151.2894716">
  <ele>380.52</ele>
  <time>2026-09-01T20:03:32Z</time>
  <course>45.54</course>
  <speed>30.8</speed>
  <fix>3d</fix>
</trkpt>
<trkpt lat="-27.2737105" lon="151.2895647">
  <ele>380.06</ele>
  <time>2026-09-01T20:03:32Z</time>
  <course>72.53</course>
  <speed>29.94549715733569</speed>
  <fix>3d</fix>
</trkpt>
<trkpt lat="-27.2737454" lon="151.2895172">
  <ele>380.36</ele>
  <time>2026-09-01T20:03:32Z</time>
  <course>50.41</course>
  <speed>29.95</speed>
  <fix>3d</fix>
</trkpt>
<trkpt lat="-27.2736933" lon="151.2895881">
  <ele>380.03</ele>
  <time>2026-09-01T20:03:32Z</time>
  <course>75.92</course>
  <speed>29.94549715733569</speed>
  <fix>3d</fix>
</trkpt>
<trkpt lat="-27.2737454" lon="151.2895172">
  <ele>380.36</ele>
  <time>2026-09-01T20:03:32Z</time>
  <course>50.41</course>
  <speed>29.95</speed>
  <fix>3d</fix>
</trkpt>
<trkpt lat="-27.2736835" lon="151.2896141">
  <ele>380.06</ele>
  <time>2026-09-01T20:03:32Z</time>
  <course>79.34</course>
  <speed>29.02173840416869</speed>
  <fix>3d</fix>
</trkpt>
<trkpt lat="-27.2737135" lon="151.2895648">
  <ele>380.15</ele>
  <time>2026-09-01T20:03:32Z</time>
  <course>55.54</course>
  <speed>29.02</speed>
  <fix>3d</fix>
</trkpt>
<trkpt lat="-27.2736687" lon="151.2896383">
  <ele>379.93</ele>
  <time>2026-09-01T20:03:32Z</time>
  <course>82.71</course>
  <speed>29.02173840416869</speed>
  <fix>3d</fix>
</trkpt>
<trkpt lat="-27.2737135" lon="151.2895648">
  <ele>380.15</ele>
  <time>2026-09-01T20:03:32Z</time>
  <course>55.54</course>
  <speed>29.02</speed>
  <fix>3d</fix>
</trkpt>
<trkpt lat="-27.2736617" lon="151.2896639">
  <ele>379.85</ele>
  <time>2026-09-01T20:03:32Z</time>
  <course>86.05</course>
  <speed>28.017712254929023</speed>
  <fix>3d</fix>
</trkpt>
<trkpt lat="-27.2736865" lon="151.2896137">
  <ele>379.9</ele>
  <time>2026-09-01T20:03:32Z</time>
  <course>60.93</course>
  <speed>28.02</speed>
  <fix>3d</fix>
</trkpt>
<trkpt lat="-27.2736495" lon="151.2896887">
  <ele>379.31</ele>
  <time>2026-09-01T20:03:32Z</time>
  <course>89.38</course>
  <speed>28.017712254929023</speed>
  <fix>3d</fix>
</trkpt>
<trkpt lat="-27.2736865" lon="151.2896137">
  <ele>379.9</ele>
  <time>2026-09-01T20:03:32Z</time>
  <course>60.93</course>
  <speed>28.02</speed>
  <fix>3d</fix>
</trkpt>
<trkpt lat="-27.2736452" lon="151.2897142">
  <ele>379.26</ele>
  <time>2026-09-01T20:03:32Z</time>
  <course>92.66</course>
  <speed>26.944327788980004</speed>
  <fix>3d</fix>
</trkpt>
<trkpt lat="-27.2736647" lon="151.2896635">
  <ele>379.62</ele>
  <time>2026-09-01T20:03:32Z</time>
  <course>66.56</course>
  <speed>26.95</speed>
  <fix>3d</fix>
</trkpt>
<trkpt lat="-27.2736356" lon="151.2897392">
  <ele>379.1</ele>
  <time>2026-09-01T20:03:32Z</time>
  <course>95.76</course>
  <speed>26.944327788980004</speed>
  <fix>3d</fix>
</trkpt>
<trkpt lat="-27.2736647" lon="151.2896635">
  <ele>379.62</ele>
  <time>2026-09-01T20:03:32Z</time>
  <course>66.56</course>
  <speed>26.95</speed>
  <fix>3d</fix>
</trkpt>
<trkpt lat="-27.2736337" lon="151.2897639">
  <ele>378.96</ele>
  <time>2026-09-01T20:03:32Z</time>
  <course>98.77</course>
  <speed>25.82517376514629</speed>
  <fix>3d</fix>
</trkpt>
<trkpt lat="-27.273648" lon="151.2897135">
  <ele>379.31</ele>
  <time>2026-09-01T20:03:32Z</time>
  <course>72.27</course>
  <speed>25.83</speed>
  <fix>3d</fix>
</trkpt>
<trkpt lat="-27.2736266" lon="151.2897888">
  <ele>378.7</ele>
  <time>2026-09-01T20:03:32Z</time>
  <course>101.75</course>
  <speed>25.82517376514629</speed>
  <fix>3d</fix>
</trkpt>
<trkpt lat="-27.273648" lon="151.2897135">
  <ele>379.31</ele>
  <time>2026-09-01T20:03:32Z</time>
  <course>72.27</course>
  <speed>25.83</speed>
  <fix>3d</fix>
</trkpt>
<trkpt lat="-27.273627" lon="151.2898124">
  <ele>378.68</ele>
  <time>2026-09-01T20:03:32Z</time>
  <course>104.55</course>
  <speed>24.712575745963836</speed>
  <fix>3d</fix>
</trkpt>
<trkpt lat="-27.2736364" lon="151.2897629">
  <ele>378.97</ele>
  <time>2026-09-01T20:03:32Z</time>
  <course>77.96</course>
  <speed>24.71</speed>
  <fix>3d</fix>
</trkpt>
<trkpt lat="-27.2736224" lon="151.2898369">
  <ele>378.34</ele>
  <time>2026-09-01T20:03:32Z</time>
  <course>107.23</course>
  <speed>24.712575745963836</speed>
  <fix>3d</fix>
</trkpt>
<trkpt lat="-27.2736364" lon="151.2897629">
  <ele>378.97</ele>
  <time>2026-09-01T20:03:32Z</time>
  <course>77.96</course>
  <speed>24.71</speed>
  <fix>3d</fix>
</trkpt>
<trkpt lat="-27.2736246" lon="151.2898592">
  <ele>378.33</ele>
  <time>2026-09-01T20:03:32Z</time>
  <course>109.83</course>
  <speed>23.63019255105637</speed>
  <fix>3d</fix>
</trkpt>
<trkpt lat="-27.2736294" lon="151.2898111">
  <ele>378.6</ele>
  <time>2026-09-01T20:03:32Z</time>
  <course>83.52</course>
  <speed>23.63</speed>
  <fix>3d</fix>
</trkpt>
<trkpt lat="-27.2736222" lon="151.289883">
  <ele>378.13</ele>
  <time>2026-09-01T20:03:32Z</time>
  <course>112.22</course>
  <speed>23.63019255105637</speed>
  <fix>3d</fix>
</trkpt>
<trkpt lat="-27.2736294" lon="151.2898111">
  <ele>378.6</ele>
  <time>2026-09-01T20:03:32Z</time>
  <course>83.52</course>
  <speed>23.63</speed>
  <fix>3d</fix>
</trkpt>
<trkpt lat="-27.2736258" lon="151.289904">
  <ele>378.0</ele>
  <time>2026-09-01T20:03:32Z</time>
  <course>114.52</course>
  <speed>22.604282780039718</speed>
  <fix>3d</fix>
</trkpt>
<trkpt lat="-27.2736266" lon="151.2898577">
  <ele>378.2</ele>
  <time>2026-09-01T20:03:32Z</time>
  <course>88.86</course>
  <speed>22.6</speed>
  <fix>3d</fix>
</trkpt>
<trkpt lat="-27.2736254" lon="151.2899269">
  <ele>377.8</ele>
  <time>2026-09-01T20:03:32Z</time>
  <course>116.72</course>
  <speed>22.604282780039718</speed>
  <fix>3d</fix>
</trkpt>
<trkpt lat="-27.2736266" lon="151.2898577">
  <ele>378.2</ele>
  <time>2026-09-01T20:03:32Z</time>
  <course>88.86</course>
  <speed>22.6</speed>
  <fix>3d</fix>
</trkpt>
<trkpt lat="-27.2736302" lon="151.2899467">
  <ele>377.45</ele>
  <time>2026-09-01T20:03:32Z</time>
  <course>118.72</course>
  <speed>21.64928636237232</speed>
  <fix>3d</fix>
</trkpt>
<trkpt lat="-27.2736276" lon="151.2899024">
  <ele>377.77</ele>
  <time>2026-09-01T20:03:32Z</time>
  <course>93.87</course>
  <speed>21.65</speed>
  <fix>3d</fix>
</trkpt>
<trkpt lat="-27.2736315" lon="151.2899685">
  <ele>377.09</ele>
  <time>2026-09-01T20:03:32Z</time>
  <course>120.6</course>
  <speed>21.64928636237232</speed>
  <fix>3d</fix>
</trkpt>
<trkpt lat="-27.2736276" lon="151.2899024">
  <ele>377.77</ele>
  <time>2026-09-01T20:03:32Z</time>
  <course>93.87</course>
  <speed>21.65</speed>
  <fix>3d</fix>
</trkpt>
<trkpt lat="-27.2736373" lon="151.2899871">
  <ele>376.69</ele>
  <time>2026-09-01T20:03:32Z</time>
  <course>122.34</course>
  <speed>20.778050919179112</speed>
  <fix>3d</fix>
</trkpt>
<trkpt lat="-27.2736317" lon="151.289945">
  <ele>377.29</ele>
  <time>2026-09-01T20:03:32Z</time>
  <course>98.5</course>
  <speed>20.78</speed>
  <fix>3d</fix>
</trkpt>
<trkpt lat="-27.27364" lon="151.2900079">
  <ele>376.58</ele>
  <time>2026-09-01T20:03:32Z</time>
  <course>123.95</course>
  <speed>20.778050919179112</speed>
  <fix>3d</fix>
</trkpt>
<trkpt lat="-27.2736317" lon="151.289945">
  <ele>377.29</ele>
  <time>2026-09-01T20:03:32Z</time>
  <course>98.5</course>
  <speed>20.78</speed>
  <fix>3d</fix>
</trkpt>
<trkpt lat="-27.2736464" lon="151.2900255">
  <ele>376.37</ele>
  <time>2026-09-01T20:03:32Z</time>
  <course>125.48</course>
  <speed>20.009757619721434</speed>
  <fix>3d</fix>
</trkpt>
<trkpt lat="-27.2736384" lon="151.2899855">
  <ele>376.76</ele>
  <time>2026-09-01T20:03:32Z</time>
  <course>102.71</course>
  <speed>20.01</speed>
  <fix>3d</fix>
</trkpt>
<trkpt lat="-27.2736503" lon="151.2900452">
  <ele>375.9</ele>
  <time>2026-09-01T20:03:32Z</time>
  <course>126.92</course>
  <speed>20.009757619721434</speed>
  <fix>3d</fix>
</trkpt>
<trkpt lat="-27.2736384" lon="151.2899855">
  <ele>376.76</ele>
  <time>2026-09-01T20:03:32Z</time>
  <course>102.71</course>
  <speed>20.01</speed>
  <fix>3d</fix>
</trkpt>
<trkpt lat="-27.2736573" lon="151.2900621">
  <ele>375.58</ele>
  <time>2026-09-01T20:03:32Z</time>
  <course>128.3</course>
  <speed>19.35777879819893</speed>
  <fix>3d</fix>
</trkpt>
<trkpt lat="-27.2736473" lon="151.2900239">
  <ele>376.18</ele>
  <time>2026-09-01T20:03:32Z</time>
  <course>106.51</course>
  <speed>19.36</speed>
  <fix>3d</fix>
</trkpt>
<trkpt lat="-27.2736623" lon="151.2900809">
  <ele>375.13</ele>
  <time>2026-09-01T20:03:32Z</time>
  <course>129.62</course>
  <speed>19.35777879819893</speed>
  <fix>3d</fix>
</trkpt>
<trkpt lat="-27.2736473" lon="151.2900239">
  <ele>376.18</ele>
  <time>2026-09-01T20:03:32Z</time>
  <course>106.51</course>
  <speed>19.36</speed>
  <fix>3d</fix>
</trkpt>
<trkpt lat="-27.2736698" lon="151.2900969">
  <ele>375.01</ele>
  <time>2026-09-01T20:03:32Z</time>
  <course>130.92</course>
  <speed>18.822353731667036</speed>
  <fix>3d</fix>
</trkpt>
<trkpt lat="-27.2736581" lon="151.2900605">
  <ele>375.53</ele>
  <time>2026-09-01T20:03:32Z</time>
  <course>109.97</course>
  <speed>18.82</speed>
  <fix>3d</fix>
</trkpt>
<trkpt lat="-27.2736756" lon="151.2901148">
  <ele>374.74</ele>
  <time>2026-09-01T20:03:32Z</time>
  <course>132.2</course>
  <speed>18.822353731667036</speed>
  <fix>3d</fix>
</trkpt>
<trkpt lat="-27.2736581" lon="151.2900605">
  <ele>375.53</ele>
  <time>2026-09-01T20:03:32Z</time>
  <course>109.97</course>
  <speed>18.82</speed>
  <fix>3d</fix>
</trkpt>
<trkpt lat="-27.2736836" lon="151.2901301">
  <ele>374.21</ele>
  <time>2026-09-01T20:03:32Z</time>
  <course>133.44</course>
  <speed>18.367144579384135</speed>
  <fix>3d</fix>
</trkpt>
<trkpt lat="-27.2736704" lon="151.2900955">
  <ele>374.81</ele>
  <time>2026-09-01T20:03:32Z</time>
  <course>113.23</course>
  <speed>18.37</speed>
  <fix>3d</fix>
</trkpt>
<trkpt lat="-27.2736901" lon="151.2901472">
  <ele>373.57</ele>
  <time>2026-09-01T20:03:32Z</time>
  <course>134.69</course>
  <speed>18.367144579384135</speed>
  <fix>3d</fix>
</trkpt>
<trkpt lat="-27.2736704" lon="151.2900955">
  <ele>374.81</ele>
  <time>2026-09-01T20:03:32Z</time>
  <course>113.23</course>
  <speed>18.37</speed>
  <fix>3d</fix>
</trkpt>
<trkpt lat="-27.2736986" lon="151.2901619">
  <ele>373.39</ele>
  <time>2026-09-01T20:03:32Z</time>
  <course>135.92</course>
  <speed>18.0093586781984</speed>
  <fix>3d</fix>
</trkpt>
<trkpt lat="-27.273684" lon="151.2901288">
  <ele>374.04</ele>
  <time>2026-09-01T20:03:32Z</time>
  <course>116.41</course>
  <speed>18.01</speed>
  <fix>3d</fix>
</trkpt>
<trkpt lat="-27.2737058" lon="151.2901782">
  <ele>372.88</ele>
  <time>2026-09-01T20:03:32Z</time>
  <course>137.12</course>
  <speed>18.0093586781984</speed>
  <fix>3d</fix>
</trkpt>
<trkpt lat="-27.273684" lon="151.2901288">
  <ele>374.04</ele>
  <time>2026-09-01T20:03:32Z</time>
  <course>116.41</course>
  <speed>18.01</speed>
  <fix>3d</fix>
</trkpt>
<trkpt lat="-27.2737151" lon="151.2901924">
  <ele>372.73</ele>
  <time>2026-09-01T20:03:32Z</time>
  <course>138.29</course>
  <speed>17.734542565287665</speed>
  <fix>3d</fix>
</trkpt>
<trkpt lat="-27.2736992" lon="151.2901608">
  <ele>373.24</ele>
  <time>2026-09-01T20:03:32Z</time>
  <course>119.61</course>
  <speed>17.73</speed>
  <fix>3d</fix>
</trkpt>
<trkpt lat="-27.273723" lon="151.290208">
  <ele>372.0</ele>
  <time>2026-09-01T20:03:32Z</time>
  <course>139.42</course>
  <speed>17.734542565287665</speed>
  <fix>3d</fix>
</trkpt>
<trkpt lat="-27.2736992" lon="151.2901608">
  <ele>373.24</ele>
  <time>2026-09-01T20:03:32Z</time>
  <course>119.61</course>
  <speed>17.73</speed>
  <fix>3d</fix>
</trkpt>
<trkpt lat="-27.2737329" lon="151.2902215">
  <ele>371.58</ele>
  <time>2026-09-01T20:03:32Z</time>
  <course>140.54</course>
  <speed>17.541599128927786</speed>
  <fix>3d</fix>
</trkpt>
<trkpt lat="-27.2737156" lon="151.2901913">
  <ele>372.41</ele>
  <time>2026-09-01T20:03:32Z</time>
  <course>122.83</course>
  <speed>17.54</speed>
  <fix>3d</fix>
</trkpt>
<trkpt lat="-27.2737414" lon="151.2902364">
  <ele>371.32</ele>
  <time>2026-09-01T20:03:32Z</time>
  <course>141.64</course>
  <speed>17.541599128927786</speed>
  <fix>3d</fix>
</trkpt>
<trkpt lat="-27.2737156" lon="151.2901913">
  <ele>372.41</ele>
  <time>2026-09-01T20:03:32Z</time>
  <course>122.83</course>
  <speed>17.54</speed>
  <fix>3d</fix>
</trkpt>
<trkpt lat="-27.2737521" lon="151.2902493">
  <ele>370.77</ele>
  <time>2026-09-01T20:03:32Z</time>
  <course>142.78</course>
  <speed>17.437820964788003</speed>
  <fix>3d</fix>
</trkpt>
<trkpt lat="-27.2737334" lon="151.2902204">
  <ele>371.62</ele>
  <time>2026-09-01T20:03:32Z</time>
  <course>126.04</course>
  <speed>17.43</speed>
  <fix>3d</fix>
</trkpt>
<trkpt lat="-27.2737613" lon="151.2902635">
  <ele>370.6</ele>
  <time>2026-09-01T20:03:32Z</time>
  <course>143.82</course>
  <speed>17.437820964788003</speed>
  <fix>3d</fix>
</trkpt>
<trkpt lat="-27.2737334" lon="151.2902204">
  <ele>371.62</ele>
  <time>2026-09-01T20:03:32Z</time>
  <course>126.04</course>
  <speed>17.43</speed>
  <fix>3d</fix>
</trkpt>
<trkpt lat="-27.2737725" lon="151.2902759">
  <ele>370.44</ele>
  <time>2026-09-01T20:03:32Z</time>
  <course>144.72</course>
  <speed>17.39225402298391</speed>
  <fix>3d</fix>
</trkpt>
<trkpt lat="-27.2737525" lon="151.2902483">
  <ele>370.86</ele>
  <time>2026-09-01T20:03:32Z</time>
  <course>129.19</course>
  <speed>17.4</speed>
  <fix>3d</fix>
</trkpt>
<trkpt lat="-27.2737824" lon="151.2902896">
  <ele>369.87</ele>
  <time>2026-09-01T20:03:32Z</time>
  <course>145.55</course>
  <speed>17.39225402298391</speed>
  <fix>3d</fix>
</trkpt>
<trkpt lat="-27.2737525" lon="151.2902483">
  <ele>370.86</ele>
  <time>2026-09-01T20:03:32Z</time>
  <course>129.19</course>
  <speed>17.4</speed>
  <fix>3d</fix>
</trkpt>
<trkpt lat="-27.2737942" lon="151.2903015">
  <ele>369.44</ele>
  <time>2026-09-01T20:03:32Z</time>
  <course>146.39</course>
  <speed>17.422918814021948</speed>
  <fix>3d</fix>
</trkpt>
<trkpt lat="-27.2737729" lon="151.290275">
  <ele>370.17</ele>
  <time>2026-09-01T20:03:32Z</time>
  <course>132.16</course>
  <speed>17.43</speed>
  <fix>3d</fix>
</trkpt>
<trkpt lat="-27.2738047" lon="151.2903145">
  <ele>369.21</ele>
  <time>2026-09-01T20:03:32Z</time>
  <course>147.17</course>
  <speed>17.422918814021948</speed>
  <fix>3d</fix>
</trkpt>
<trkpt lat="-27.2737729" lon="151.290275">
  <ele>370.17</ele>
  <time>2026-09-01T20:03:32Z</time>
  <course>132.16</course>
  <speed>17.43</speed>
  <fix>3d</fix>
</trkpt>
<trkpt lat="-27.273817" lon="151.2903259">
  <ele>369.14</ele>
  <time>2026-09-01T20:03:32Z</time>
  <course>147.92</course>
  <speed>17.49387321321382</speed>
  <fix>3d</fix>
</trkpt>
<trkpt lat="-27.2737945" lon="151.2903005">
  <ele>369.56</ele>
  <time>2026-09-01T20:03:32Z</time>
  <course>134.86</course>
  <speed>17.49</speed>
  <fix>3d</fix>
</trkpt>
<trkpt lat="-27.273828" lon="151.2903384">
  <ele>368.85</ele>
  <time>2026-09-01T20:03:32Z</time>
  <course>148.63</course>
  <speed>17.49387321321382</speed>
  <fix>3d</fix>
</trkpt>
<trkpt lat="-27.2737945" lon="151.2903005">
  <ele>369.56</ele>
  <time>2026-09-01T20:03:32Z</time>
  <course>134.86</course>
  <speed>17.49</speed>
  <fix>3d</fix>
</trkpt>
<trkpt lat="-27.2738407" lon="151.2903496">
  <ele>368.85</ele>
  <time>2026-09-01T20:03:32Z</time>
  <course>149.28</course>
  <speed>17.59232787325202</speed>
  <fix>3d</fix>
</trkpt>
<trkpt lat="-27.2738172" lon="151.2903251">
  <ele>369.03</ele>
  <time>2026-09-01T20:03:32Z</time>
  <course>137.23</course>
  <speed>17.59</speed>
  <fix>3d</fix>
</trkpt>
<trkpt lat="-27.2738523" lon="151.2903616">
  <ele>368.37</ele>
  <time>2026-09-01T20:03:32Z</time>
  <course>149.89</course>
  <speed>17.59232787325202</speed>
  <fix>3d</fix>
</trkpt>
<trkpt lat="-27.2738172" lon="151.2903251">
  <ele>369.03</ele>
  <time>2026-09-01T20:03:32Z</time>
  <course>137.23</course>
  <speed>17.59</speed>
  <fix>3d</fix>
</trkpt>
<trkpt lat="-27.2738654" lon="151.2903726">
  <ele>368.37</ele>
  <time>2026-09-01T20:03:32Z</time>
  <course>150.47</course>
  <speed>17.712425017484193</speed>
  <fix>3d</fix>
</trkpt>
<trkpt lat="-27.2738408" lon="151.2903488">
  <ele>368.61</ele>
  <time>2026-09-01T20:03:32Z</time>
  <course>139.27</course>
  <speed>17.71</speed>
  <fix>3d</fix>
</trkpt>
<trkpt lat="-27.2738774" lon="151.2903843">
  <ele>368.0</ele>
  <time>2026-09-01T20:03:32Z</time>
  <course>150.93</course>
  <speed>17.712425017484193</speed>
  <fix>3d</fix>
</trkpt>
<trkpt lat="-27.2738408" lon="151.2903488">
  <ele>368.61</ele>
  <time>2026-09-01T20:03:32Z</time>
  <course>139.27</course>
  <speed>17.71</speed>
  <fix>3d</fix>
</trkpt>
<trkpt lat="-27.2738906" lon="151.2903949">
  <ele>367.87</ele>
  <time>2026-09-01T20:03:32Z</time>
  <course>151.35</course>
  <speed>17.82444669547978</speed>
  <fix>3d</fix>
</trkpt>
<trkpt lat="-27.2738653" lon="151.2903718">
  <ele>368.27</ele>
  <time>2026-09-01T20:03:32Z</time>
  <course>140.98</course>
  <speed>17.83</speed>
  <fix>3d</fix>
</trkpt>
<trkpt lat="-27.2739031" lon="151.2904062">
  <ele>367.9</ele>
  <time>2026-09-01T20:03:32Z</time>
  <course>151.77</course>
  <speed>17.82444669547978</speed>
  <fix>3d</fix>
</trkpt>
<trkpt lat="-27.2738653" lon="151.2903718">
  <ele>368.27</ele>
  <time>2026-09-01T20:03:32Z</time>
  <course>140.98</course>
  <speed>17.83</speed>
  <fix>3d</fix>
</trkpt>
<trkpt lat="-27.2739166" lon="151.2904168">
  <ele>367.95</ele>
  <time>2026-09-01T20:03:32Z</time>
  <course>152.16</course>
  <speed>17.933424101381195</speed>
  <fix>3d</fix>
</trkpt>
<trkpt lat="-27.2738906" lon="151.2903943">
  <ele>368.03</ele>
  <time>2026-09-01T20:03:32Z</time>
  <course>142.39</course>
  <speed>17.94</speed>
  <fix>3d</fix>
</trkpt>
<trkpt lat="-27.2739294" lon="151.2904279">
  <ele>367.65</ele>
  <time>2026-09-01T20:03:32Z</time>
  <course>152.51</course>
  <speed>17.933424101381195</speed>
  <fix>3d</fix>
</trkpt>
<trkpt lat="-27.2738906" lon="151.2903943">
  <ele>368.03</ele>
  <time>2026-09-01T20:03:32Z</time>
  <course>142.39</course>
  <speed>17.94</speed>
  <fix>3d</fix>
</trkpt>
<trkpt lat="-27.2739428" lon="151.2904381">
  <ele>367.77</ele>
  <time>2026-09-01T20:03:32Z</time>
  <course>152.86</course>
  <speed>18.048512404073637</speed>
  <fix>3d</fix>
</trkpt>
<trkpt lat="-27.2739164" lon="151.2904161">
  <ele>367.86</ele>
  <time>2026-09-01T20:03:32Z</time>
  <course>143.55</course>
  <speed>18.05</speed>
  <fix>3d</fix>
</trkpt>
<trkpt lat="-27.2739559" lon="151.2904489">
  <ele>367.82</ele>
  <time>2026-09-01T20:03:32Z</time>
  <course>153.16</course>
  <speed>18.048512404073637</speed>
  <fix>3d</fix>
</trkpt>
<trkpt lat="-27.2739164" lon="151.2904161">
  <ele>367.86</ele>
  <time>2026-09-01T20:03:32Z</time>
  <course>143.55</course>
  <speed>18.05</speed>
  <fix>3d</fix>
</trkpt>
<trkpt lat="-27.2739697" lon="151.2904592">
  <ele>367.89</ele>
  <time>2026-09-01T20:03:32Z</time>
  <course>153.45</course>
  <speed>18.147432325262987</speed>
  <fix>3d</fix>
</trkpt>
<trkpt lat="-27.2739428" lon="151.2904376">
  <ele>367.77</ele>
  <time>2026-09-01T20:03:32Z</time>
  <course>144.53</course>
  <speed>18.14</speed>
  <fix>3d</fix>
</trkpt>
<trkpt lat="-27.2739831" lon="151.2904699">
  <ele>367.67</ele>
  <time>2026-09-01T20:03:33Z</time>
  <course>153.72</course>
  <speed>18.147432325262987</speed>
  <fix>3d</fix>
</trkpt>
<trkpt lat="-27.2739428" lon="151.2904376">
  <ele>367.77</ele>
  <time>2026-09-01T20:03:33Z</time>
  <course>144.53</course>
  <speed>18.14</speed>
  <fix>3d</fix>
</trkpt>
<trkpt lat="-27.2739969" lon="151.29048">
  <ele>367.54</ele>
  <time>2026-09-01T20:03:33Z</time>
  <course>153.94</course>
  <speed>18.210318503529805</speed>
  <fix>3d</fix>
</trkpt>
<trkpt lat="-27.2739696" lon="151.2904588">
  <ele>367.74</ele>
  <time>2026-09-01T20:03:33Z</time>
  <course>145.4</course>
  <speed>18.21</speed>
  <fix>3d</fix>
</trkpt>
<trkpt lat="-27.2740104" lon="151.2904904">
  <ele>367.57</ele>
  <time>2026-09-01T20:03:33Z</time>
  <course>154.17</course>
  <speed>18.210318503529805</speed>
  <fix>3d</fix>
</trkpt>
<trkpt lat="-27.2739696" lon="151.2904588">
  <ele>367.74</ele>
  <time>2026-09-01T20:03:33Z</time>
  <course>145.4</course>
  <speed>18.21</speed>
  <fix>3d</fix>
</trkpt>
<trkpt lat="-27.2740243" lon="151.2905003">
  <ele>367.91</ele>
  <time>2026-09-01T20:03:33Z</time>
  <course>154.5</course>
  <speed>18.260747520296096</speed>
  <fix>3d</fix>
</trkpt>
<trkpt lat="-27.2739967" lon="151.2904795">
  <ele>367.76</ele>
  <time>2026-09-01T20:03:33Z</time>
  <course>146.22</course>
  <speed>18.26</speed>
  <fix>3d</fix>
</trkpt>
<trkpt lat="-27.274038" lon="151.2905105">
  <ele>367.68</ele>
  <time>2026-09-01T20:03:33Z</time>
  <course>154.81</course>
  <speed>18.260747520296096</speed>
  <fix>3d</fix>
</trkpt>
<trkpt lat="-27.2739967" lon="151.2904795">
  <ele>367.76</ele>
  <time>2026-09-01T20:03:33Z</time>
  <course>146.22</course>
  <speed>18.26</speed>
  <fix>3d</fix>
</trkpt>
<trkpt lat="-27.2740521" lon="151.2905202">
  <ele>367.81</ele>
  <time>2026-09-01T20:03:33Z</time>
  <course>155.06</course>
  <speed>18.28732074416589</speed>
  <fix>3d</fix>
</trkpt>
<trkpt lat="-27.2740241" lon="151.2904998">
  <ele>367.82</ele>
  <time>2026-09-01T20:03:33Z</time>
  <course>147.07</course>
  <speed>18.29</speed>
  <fix>3d</fix>
</trkpt>
<trkpt lat="-27.2740659" lon="151.2905302">
  <ele>367.82</ele>
  <time>2026-09-01T20:03:33Z</time>
  <course>155.45</course>
  <speed>18.28732074416589</speed>
  <fix>3d</fix>
</trkpt>
<trkpt lat="-27.2740241" lon="151.2904998">
  <ele>367.82</ele>
  <time>2026-09-01T20:03:33Z</time>
  <course>147.07</course>
  <speed>18.29</speed>
  <fix>3d</fix>
</trkpt>
<trkpt lat="-27.2740801" lon="151.2905396">
  <ele>367.88</ele>
  <time>2026-09-01T20:03:33Z</time>
  <course>155.88</course>
  <speed>18.30192339618981</speed>
  <fix>3d</fix>
</trkpt>
<trkpt lat="-27.2740518" lon="151.2905197">
  <ele>367.92</ele>
  <time>2026-09-01T20:03:33Z</time>
  <course>147.99</course>
  <speed>18.3</speed>
  <fix>3d</fix>
</trkpt>
<trkpt lat="-27.274094" lon="151.2905494">
  <ele>368.26</ele>
  <time>2026-09-01T20:03:33Z</time>
  <course>156.2</course>
  <speed>18.30192339618981</speed>
  <fix>3d</fix>
</trkpt>
<trkpt lat="-27.2740518" lon="151.2905197">
  <ele>367.92</ele>
  <time>2026-09-01T20:03:33Z</time>
  <course>147.99</course>
  <speed>18.3</speed>
  <fix>3d</fix>
</trkpt>
<trkpt lat="-27.2741084" lon="151.2905582">
  <ele>368.21</ele>
  <time>2026-09-01T20:03:33Z</time>
  <course>156.58</course>
  <speed>18.285190729111903</speed>
  <fix>3d</fix>
</trkpt>
<trkpt lat="-27.2740798" lon="151.290539">
  <ele>368.07</ele>
  <time>2026-09-01T20:03:33Z</time>
  <course>149.09</course>
  <speed>18.28</speed>
  <fix>3d</fix>
</trkpt>
<trkpt lat="-27.2741225" lon="151.2905677">
  <ele>368.27</ele>
  <time>2026-09-01T20:03:33Z</time>
  <course>156.98</course>
  <speed>18.285190729111903</speed>
  <fix>3d</fix>
</trkpt>
<trkpt lat="-27.2740798" lon="151.290539">
  <ele>368.07</ele>
  <time>2026-09-01T20:03:33Z</time>
  <course>149.09</course>
  <speed>18.28</speed>
  <fix>3d</fix>
</trkpt>
<trkpt lat="-27.2741372" lon="151.2905761">
  <ele>368.49</ele>
  <time>2026-09-01T20:03:33Z</time>
  <course>157.35</course>
  <speed>18.23566834530613</speed>
  <fix>3d</fix>
</trkpt>
<trkpt lat="-27.2741082" lon="151.2905576">
  <ele>368.24</ele>
  <time>2026-09-01T20:03:33Z</time>
  <course>150.42</course>
  <speed>18.23</speed>
  <fix>3d</fix>
</trkpt>
<trkpt lat="-27.2741515" lon="151.2905852">
  <ele>368.31</ele>
  <time>2026-09-01T20:03:33Z</time>
  <course>157.85</course>
  <speed>18.23566834530613</speed>
  <fix>3d</fix>
</trkpt>
<trkpt lat="-27.2741082" lon="151.2905576">
  <ele>368.24</ele>
  <time>2026-09-01T20:03:33Z</time>
  <course>150.42</course>
  <speed>18.23</speed>
  <fix>3d</fix>
</trkpt>
<trkpt lat="-27.2741662" lon="151.2905928">
  <ele>368.57</ele>
  <time>2026-09-01T20:03:33Z</time>
  <course>158.37</course>
  <speed>18.149415968564938</speed>
  <fix>3d</fix>
</trkpt>
<trkpt lat="-27.2741369" lon="151.2905753">
  <ele>368.43</ele>
  <time>2026-09-01T20:03:33Z</time>
  <course>151.96</course>
  <speed>18.15</speed>
  <fix>3d</fix>
</trkpt>
<trkpt lat="-27.2741806" lon="151.2906015">
  <ele>368.63</ele>
  <time>2026-09-01T20:03:33Z</time>
  <course>158.92</course>
  <speed>18.149415968564938</speed>
  <fix>3d</fix>
</trkpt>
<trkpt lat="-27.2741369" lon="151.2905753">
  <ele>368.43</ele>
  <time>2026-09-01T20:03:33Z</time>
  <course>151.96</course>
  <speed>18.15</speed>
  <fix>3d</fix>
</trkpt>
<trkpt lat="-27.2741954" lon="151.2906084">
  <ele>368.77</ele>
  <time>2026-09-01T20:03:33Z</time>
  <course>159.49</course>
  <speed>18.045290244271495</speed>
  <fix>3d</fix>
</trkpt>
<trkpt lat="-27.2741658" lon="151.290592">
  <ele>368.64</ele>
  <time>2026-09-01T20:03:33Z</time>
  <course>153.71</course>
  <speed>18.05</speed>
  <fix>3d</fix>
</trkpt>
<trkpt lat="-27.27421" lon="151.2906165">
  <ele>368.9</ele>
  <time>2026-09-01T20:03:33Z</time>
  <course>160.13</course>
  <speed>18.045290244271495</speed>
  <fix>3d</fix>
</trkpt>
<trkpt lat="-27.2741658" lon="151.290592">
  <ele>368.64</ele>
  <time>2026-09-01T20:03:33Z</time>
  <course>153.71</course>
  <speed>18.05</speed>
  <fix>3d</fix>
</trkpt>
<trkpt lat="-27.2742249" lon="151.2906227">
  <ele>369.15</ele>
  <time>2026-09-01T20:03:33Z</time>
  <course>160.82</course>
  <speed>17.93754721248142</speed>
  <fix>3d</fix>
</trkpt>
<trkpt lat="-27.274195" lon="151.2906075">
  <ele>368.86</ele>
  <time>2026-09-01T20:03:33Z</time>
  <course>155.61</course>
  <speed>17.94</speed>
  <fix>3d</fix>
</trkpt>
<trkpt lat="-27.2742394" lon="151.2906301">
  <ele>369.09</ele>
  <time>2026-09-01T20:03:33Z</time>
  <course>161.47</course>
  <speed>17.93754721248142</speed>
  <fix>3d</fix>
</trkpt>
<trkpt lat="-27.274195" lon="151.2906075">
  <ele>368.86</ele>
  <time>2026-09-01T20:03:33Z</time>
  <course>155.61</course>
  <speed>17.94</speed>
  <fix>3d</fix>
</trkpt>
<trkpt lat="-27.2742547" lon="151.2906357">
  <ele>369.41</ele>
  <time>2026-09-01T20:03:33Z</time>
  <course>162.14</course>
  <speed>17.831085216553703</speed>
  <fix>3d</fix>
</trkpt>
<trkpt lat="-27.2742246" lon="151.2906219">
  <ele>369.09</ele>
  <time>2026-09-01T20:03:33Z</time>
  <course>157.71</course>
  <speed>17.83</speed>
  <fix>3d</fix>
</trkpt>
<trkpt lat="-27.2742695" lon="151.2906426">
  <ele>369.42</ele>
  <time>2026-09-01T20:03:33Z</time>
  <course>162.89</course>
  <speed>17.831085216553703</speed>
  <fix>3d</fix>
</trkpt>
<trkpt lat="-27.2742246" lon="151.2906219">
  <ele>369.09</ele>
  <time>2026-09-01T20:03:33Z</time>
  <course>157.71</course>
  <speed>17.83</speed>
  <fix>3d</fix>
</trkpt>
<trkpt lat="-27.2742847" lon="151.2906473">
  <ele>369.3</ele>
  <time>2026-09-01T20:03:33Z</time>
  <course>163.72</course>
  <speed>17.71169387721005</speed>
  <fix>3d</fix>
</trkpt>
<trkpt lat="-27.2742544" lon="151.2906349">
  <ele>369.32</ele>
  <time>2026-09-01T20:03:33Z</time>
  <course>160.03</course>
  <speed>17.71</speed>
  <fix>3d</fix>
</trkpt>
<trkpt lat="-27.2742997" lon="151.2906534">
  <ele>369.49</ele>
  <time>2026-09-01T20:03:33Z</time>
  <course>164.57</course>
  <speed>17.71169387721005</speed>
  <fix>3d</fix>
</trkpt>
<trkpt lat="-27.2742544" lon="151.2906349">
  <ele>369.32</ele>
  <time>2026-09-01T20:03:33Z</time>
  <course>160.03</course>
  <speed>17.71</speed>
  <fix>3d</fix>
</trkpt>
<trkpt lat="-27.2743149" lon="151.2906572">
  <ele>369.53</ele>
  <time>2026-09-01T20:03:33Z</time>
  <course>165.35</course>
  <speed>17.581561364110982</speed>
  <fix>3d</fix>
</trkpt>
<trkpt lat="-27.2742844" lon="151.2906464">
  <ele>369.53</ele>
  <time>2026-09-01T20:03:33Z</time>
  <course>162.52</course>
  <speed>17.58</speed>
  <fix>3d</fix>
</trkpt>
<trkpt lat="-27.27433" lon="151.2906625">
  <ele>369.87</ele>
  <time>2026-09-01T20:03:33Z</time>
  <course>166.15</course>
  <speed>17.581561364110982</speed>
  <fix>3d</fix>
</trkpt>
<trkpt lat="-27.2742844" lon="151.2906464">
  <ele>369.53</ele>
  <time>2026-09-01T20:03:33Z</time>
  <course>162.52</course>
  <speed>17.58</speed>
  <fix>3d</fix>
</trkpt>
<trkpt lat="-27.2743453" lon="151.2906654">
  <ele>369.93</ele>
  <time>2026-09-01T20:03:33Z</time>
  <course>167.01</course>
  <speed>17.461824074248373</speed>
  <fix>3d</fix>
</trkpt>
<trkpt lat="-27.2743146" lon="151.2906563">
  <ele>369.76</ele>
  <time>2026-09-01T20:03:33Z</time>
  <course>165.16</course>
  <speed>17.46</speed>
  <fix>3d</fix>
</trkpt>
<trkpt lat="-27.2743605" lon="151.2906699">
  <ele>369.89</ele>
  <time>2026-09-01T20:03:33Z</time>
  <course>167.97</course>
  <speed>17.461824074248373</speed>
  <fix>3d</fix>
</trkpt>
<trkpt lat="-27.2743146" lon="151.2906563">
  <ele>369.76</ele>
  <time>2026-09-01T20:03:33Z</time>
  <course>165.16</course>
  <speed>17.46</speed>
  <fix>3d</fix>
</trkpt>
<trkpt lat="-27.2743759" lon="151.2906718">
  <ele>369.93</ele>
  <time>2026-09-01T20:03:33Z</time>
  <course>168.99</course>
  <speed>17.35389869741091</speed>
  <fix>3d</fix>
</trkpt>
<trkpt lat="-27.274345" lon="151.2906644">
  <ele>369.97</ele>
  <time>2026-09-01T20:03:33Z</time>
  <course>167.9</course>
  <speed>17.36</speed>
  <fix>3d</fix>
</trkpt>
<trkpt lat="-27.2743913" lon="151.2906755">
  <ele>370.18</ele>
  <time>2026-09-01T20:03:33Z</time>
  <course>169.89</course>
  <speed>17.35389869741091</speed>
  <fix>3d</fix>
</trkpt>
<trkpt lat="-27.274345" lon="151.2906644">
  <ele>369.97</ele>
  <time>2026-09-01T20:03:33Z</time>
  <course>167.9</course>
  <speed>17.36</speed>
  <fix>3d</fix>
</trkpt>
<trkpt lat="-27.2744066" lon="151.2906765">
  <ele>370.44</ele>
  <time>2026-09-01T20:03:33Z</time>
  <course>170.84</course>
  <speed>17.260477977159265</speed>
  <fix>3d</fix>
</trkpt>
<trkpt lat="-27.2743756" lon="151.2906709">
  <ele>370.16</ele>
  <time>2026-09-01T20:03:33Z</time>
  <course>170.8</course>
  <speed>17.26</speed>
  <fix>3d</fix>
</trkpt>
<trkpt lat="-27.2744219" lon="151.2906793">
  <ele>370.4</ele>
  <time>2026-09-01T20:03:33Z</time>
  <course>171.82</course>
  <speed>17.260477977159265</speed>
  <fix>3d</fix>
</trkpt>
<trkpt lat="-27.2743756" lon="151.2906709">
  <ele>370.16</ele>
  <time>2026-09-01T20:03:33Z</time>
  <course>170.8</course>
  <speed>17.26</speed>
  <fix>3d</fix>
</trkpt>
<trkpt lat="-27.2744374" lon="151.2906792">
  <ele>370.63</ele>
  <time>2026-09-01T20:03:33Z</time>
  <course>172.79</course>
  <speed>17.168881734114194</speed>
  <fix>3d</fix>
</trkpt>
<trkpt lat="-27.2744062" lon="151.2906755">
  <ele>370.36</ele>
  <time>2026-09-01T20:03:33Z</time>
  <course>173.84</course>
  <speed>17.17</speed>
  <fix>3d</fix>
</trkpt>
<trkpt lat="-27.2744528" lon="151.2906811">
  <ele>370.62</ele>
  <time>2026-09-01T20:03:33Z</time>
  <course>173.72</course>
  <speed>17.168881734114194</speed>
  <fix>3d</fix>
</trkpt>
<trkpt lat="-27.2744062" lon="151.2906755">
  <ele>370.36</ele>
  <time>2026-09-01T20:03:33Z</time>
  <course>173.84</course>
  <speed>17.17</speed>
  <fix>3d</fix>
</trkpt>
<trkpt lat="-27.2744681" lon="151.2906801">
  <ele>370.53</ele>
  <time>2026-09-01T20:03:33Z</time>
  <course>174.66</course>
  <speed>17.09370936923873</speed>
  <fix>3d</fix>
</trkpt>
<trkpt lat="-27.2744369" lon="151.2906783">
  <ele>370.55</ele>
  <time>2026-09-01T20:03:33Z</time>
  <course>176.95</course>
  <speed>17.09</speed>
  <fix>3d</fix>
</trkpt>
<trkpt lat="-27.2744835" lon="151.290681">
  <ele>370.74</ele>
  <time>2026-09-01T20:03:33Z</time>
  <course>175.62</course>
  <speed>17.09370936923873</speed>
  <fix>3d</fix>
</trkpt>
<trkpt lat="-27.2744369" lon="151.2906783">
  <ele>370.55</ele>
  <time>2026-09-01T20:03:33Z</time>
  <course>176.95</course>
  <speed>17.09</speed>
  <fix>3d</fix>
</trkpt>
<trkpt lat="-27.2744988" lon="151.2906792">
  <ele>370.98</ele>
  <time>2026-09-01T20:03:33Z</time>
  <course>176.54</course>
  <speed>17.030011743977163</speed>
  <fix>3d</fix>
</trkpt>
<trkpt lat="-27.2744676" lon="151.2906792">
  <ele>370.74</ele>
  <time>2026-09-01T20:03:33Z</time>
  <course>180.08</course>
  <speed>17.03</speed>
  <fix>3d</fix>
</trkpt>
<trkpt lat="-27.2745141" lon="151.2906792">
  <ele>371.1</ele>
  <time>2026-09-01T20:03:33Z</time>
  <course>177.55</course>
  <speed>17.030011743977163</speed>
  <fix>3d</fix>
</trkpt>
<trkpt lat="-27.2744676" lon="151.2906792">
  <ele>370.74</ele>
  <time>2026-09-01T20:03:33Z</time>
  <course>180.08</course>
  <speed>17.03</speed>
  <fix>3d</fix>
</trkpt>
<trkpt lat="-27.2745291" lon="151.2906764">
  <ele>371.22</ele>
  <time>2026-09-01T20:03:33Z</time>
  <course>178.51</course>
  <speed>16.98547909244835</speed>
  <fix>3d</fix>
</trkpt>
<trkpt lat="-27.2744981" lon="151.2906783">
  <ele>370.91</ele>
  <time>2026-09-01T20:03:33Z</time>
  <course>183.15</course>
  <speed>16.99</speed>
  <fix>3d</fix>
</trkpt>
<trkpt lat="-27.2745444" lon="151.2906755">
  <ele>371.02</ele>
  <time>2026-09-01T20:03:33Z</time>
  <course>179.5</course>
  <speed>16.98547909244835</speed>
  <fix>3d</fix>
</trkpt>
<trkpt lat="-27.2744981" lon="151.2906783">
  <ele>370.91</ele>
  <time>2026-09-01T20:03:33Z</time>
  <course>183.15</course>
  <speed>16.99</speed>
  <fix>3d</fix>
</trkpt>
<trkpt lat="-27.2745592" lon="151.2906718">
  <ele>371.15</ele>
  <time>2026-09-01T20:03:33Z</time>
  <course>180.47</course>
  <speed>16.95902414645371</speed>
  <fix>3d</fix>
</trkpt>
<trkpt lat="-27.2745285" lon="151.2906755">
  <ele>371.07</ele>
  <time>2026-09-01T20:03:33Z</time>
  <course>186.21</course>
  <speed>16.96</speed>
  <fix>3d</fix>
</trkpt>
<trkpt lat="-27.2745744" lon="151.2906699">
  <ele>371.16</ele>
  <time>2026-09-01T20:03:33Z</time>
  <course>181.42</course>
  <speed>16.95902414645371</speed>
  <fix>3d</fix>
</trkpt>
<trkpt lat="-27.2745285" lon="151.2906755">
  <ele>371.07</ele>
  <time>2026-09-01T20:03:33Z</time>
  <course>186.21</course>
  <speed>16.96</speed>
  <fix>3d</fix>
</trkpt>
<trkpt lat="-27.2745891" lon="151.2906653">
  <ele>371.19</ele>
  <time>2026-09-01T20:03:33Z</time>
  <course>182.43</course>
  <speed>16.941407851769583</speed>
  <fix>3d</fix>
</trkpt>
<trkpt lat="-27.2745587" lon="151.2906709">
  <ele>371.2</ele>
  <time>2026-09-01T20:03:33Z</time>
  <course>189.28</course>
  <speed>16.94</speed>
  <fix>3d</fix>
</trkpt>
<trkpt lat="-27.2746042" lon="151.2906626">
  <ele>371.5</ele>
  <time>2026-09-01T20:03:33Z</time>
  <course>183.4</course>
  <speed>16.941407851769583</speed>
  <fix>3d</fix>
</trkpt>
<trkpt lat="-27.2745587" lon="151.2906709">
  <ele>371.2</ele>
  <time>2026-09-01T20:03:33Z</time>
  <course>189.28</course>
  <speed>16.94</speed>
  <fix>3d</fix>
</trkpt>
<trkpt lat="-27.2746189" lon="151.290657">
  <ele>371.51</ele>
  <time>2026-09-01T20:03:33Z</time>
  <course>184.42</course>
  <speed>16.953185541366555</speed>
  <fix>3d</fix>
</trkpt>
<trkpt lat="-27.2745887" lon="151.2906644">
  <ele>371.32</ele>
  <time>2026-09-01T20:03:33Z</time>
  <course>192.36</course>
  <speed>16.95</speed>
  <fix>3d</fix>
</trkpt>
<trkpt lat="-27.2746337" lon="151.2906533">
  <ele>371.62</ele>
  <time>2026-09-01T20:03:33Z</time>
  <course>185.4</course>
  <speed>16.953185541366555</speed>
  <fix>3d</fix>
</trkpt>
<trkpt lat="-27.2745887" lon="151.2906644">
  <ele>371.32</ele>
  <time>2026-09-01T20:03:33Z</time>
  <course>192.36</course>
  <speed>16.95</speed>
  <fix>3d</fix>
</trkpt>
<trkpt lat="-27.2746481" lon="151.2906469">
  <ele>371.64</ele>
  <time>2026-09-01T20:03:33Z</time>
  <course>186.45</course>
  <speed>16.994860987957505</speed>
  <fix>3d</fix>
</trkpt>
<trkpt lat="-27.2746183" lon="151.2906562">
  <ele>371.41</ele>
  <time>2026-09-01T20:03:33Z</time>
  <course>195.48</course>
  <speed>17.0</speed>
  <fix>3d</fix>
</trkpt>
<trkpt lat="-27.2746628" lon="151.2906424">
  <ele>371.56</ele>
  <time>2026-09-01T20:03:33Z</time>
  <course>187.47</course>
  <speed>16.994860987957505</speed>
  <fix>3d</fix>
</trkpt>
<trkpt lat="-27.2746183" lon="151.2906562">
  <ele>371.41</ele>
  <time>2026-09-01T20:03:33Z</time>
  <course>195.48</course>
  <speed>17.0</speed>
  <fix>3d</fix>
</trkpt>
<trkpt lat="-27.2746769" lon="151.290635">
  <ele>371.47</ele>
  <time>2026-09-01T20:03:33Z</time>
  <course>188.48</course>
  <speed>17.054269260217513</speed>
  <fix>3d</fix>
</trkpt>
<trkpt lat="-27.2746475" lon="151.2906461">
  <ele>371.49</ele>
  <time>2026-09-01T20:03:33Z</time>
  <course>198.65</course>
  <speed>17.05</speed>
  <fix>3d</fix>
</trkpt>
<trkpt lat="-27.2746914" lon="151.2906294">
  <ele>371.62</ele>
  <time>2026-09-01T20:03:33Z</time>
  <course>189.5</course>
  <speed>17.054269260217513</speed>
  <fix>3d</fix>
</trkpt>
<trkpt lat="-27.2746475" lon="151.2906461">
  <ele>371.49</ele>
  <time>2026-09-01T20:03:33Z</time>
  <course>198.65</course>
  <speed>17.05</speed>
  <fix>3d</fix>
</trkpt>
<trkpt lat="-27.2747053" lon="151.2906211">
  <ele>371.58</ele>
  <time>2026-09-01T20:03:33Z</time>
  <course>190.5</course>
  <speed>17.12854050992086</speed>
  <fix>3d</fix>
</trkpt>
<trkpt lat="-27.2746763" lon="151.2906341">
  <ele>371.56</ele>
  <time>2026-09-01T20:03:33Z</time>
  <course>201.84</course>
  <speed>17.13</speed>
  <fix>3d</fix>
</trkpt>
<trkpt lat="-27.2747195" lon="151.2906146">
  <ele>371.76</ele>
  <time>2026-09-01T20:03:33Z</time>
  <course>191.56</course>
  <speed>17.12854050992086</speed>
  <fix>3d</fix>
</trkpt>
<trkpt lat="-27.2746763" lon="151.2906341">
  <ele>371.56</ele>
  <time>2026-09-01T20:03:33Z</time>
  <course>201.84</course>
  <speed>17.13</speed>
  <fix>3d</fix>
</trkpt>
<trkpt lat="-27.274733" lon="151.2906054">
  <ele>371.77</ele>
  <time>2026-09-01T20:03:33Z</time>
  <course>192.6</course>
  <speed>17.23318890977523</speed>
  <fix>3d</fix>
</trkpt>
<trkpt lat="-27.2747046" lon="151.2906203">
  <ele>371.61</ele>
  <time>2026-09-01T20:03:33Z</time>
  <course>205.0</course>
  <speed>17.24</speed>
  <fix>3d</fix>
</trkpt>
<trkpt lat="-27.2747471" lon="151.290598">
  <ele>371.7</ele>
  <time>2026-09-01T20:03:33Z</time>
  <course>193.64</course>
  <speed>17.23318890977523</speed>
  <fix>3d</fix>
</trkpt>
<trkpt lat="-27.2747046" lon="151.2906203">
  <ele>371.61</ele>
  <time>2026-09-01T20:03:33Z</time>
  <course>205.0</course>
  <speed>17.24</speed>
  <fix>3d</fix>
</trkpt>
<trkpt lat="-27.2747602" lon="151.2905879">
  <ele>371.81</ele>
  <time>2026-09-01T20:03:33Z</time>
  <course>194.67</course>
  <speed>17.367673995097906</speed>
  <fix>3d</fix>
</trkpt>
<trkpt lat="-27.2747323" lon="151.2906047">
  <ele>371.66</ele>
  <time>2026-09-01T20:03:33Z</time>
  <course>208.17</course>
  <speed>17.37</speed>
  <fix>3d</fix>
</trkpt>
<trkpt lat="-27.2747739" lon="151.2905796">
  <ele>371.58</ele>
  <time>2026-09-01T20:03:33Z</time>
  <course>195.76</course>
  <speed>17.367673995097906</speed>
  <fix>3d</fix>
</trkpt>
<trkpt lat="-27.2747323" lon="151.2906047">
  <ele>371.66</ele>
  <time>2026-09-01T20:03:33Z</time>
  <course>208.17</course>
  <speed>17.37</speed>
  <fix>3d</fix>
</trkpt>
<trkpt lat="-27.2747867" lon="151.2905686">
  <ele>371.93</ele>
  <time>2026-09-01T20:03:33Z</time>
  <course>196.85</course>
  <speed>17.515527397141085</speed>
  <fix>3d</fix>
</trkpt>
<trkpt lat="-27.2747595" lon="151.2905872">
  <ele>371.71</ele>
  <time>2026-09-01T20:03:33Z</time>
  <course>211.33</course>
  <speed>17.51</speed>
  <fix>3d</fix>
</trkpt>
<trkpt lat="-27.2748003" lon="151.2905593">
  <ele>371.67</ele>
  <time>2026-09-01T20:03:33Z</time>
  <course>197.94</course>
  <speed>17.515527397141085</speed>
  <fix>3d</fix>
</trkpt>
<trkpt lat="-27.2747595" lon="151.2905872">
  <ele>371.71</ele>
  <time>2026-09-01T20:03:33Z</time>
  <course>211.33</course>
  <speed>17.51</speed>
  <fix>3d</fix>
</trkpt>
<trkpt lat="-27.2748128" lon="151.2905472">
  <ele>371.67</ele>
  <time>2026-09-01T20:03:33Z</time>
  <course>199.04</course>
  <speed>17.685488401511563</speed>
  <fix>3d</fix>
</trkpt>
<trkpt lat="-27.2747861" lon="151.2905678">
  <ele>371.74</ele>
  <time>2026-09-01T20:03:33Z</time>
  <course>214.46</course>
  <speed>17.69</speed>
  <fix>3d</fix>
</trkpt>
<trkpt lat="-27.2748259" lon="151.2905371">
  <ele>371.71</ele>
  <time>2026-09-01T20:03:33Z</time>
  <course>200.11</course>
  <speed>17.685488401511563</speed>
  <fix>3d</fix>
</trkpt>
<trkpt lat="-27.2747861" lon="151.2905678">
  <ele>371.74</ele>
  <time>2026-09-01T20:03:33Z</time>
  <course>214.46</course>
  <speed>17.69</speed>
  <fix>3d</fix>
</trkpt>
<trkpt lat="-27.2748377" lon="151.2905243">
  <ele>371.59</ele>
  <time>2026-09-01T20:03:33Z</time>
  <course>201.19</course>
  <speed>17.87550558725543</speed>
  <fix>3d</fix>
</trkpt>
<trkpt lat="-27.2748119" lon="151.2905467">
  <ele>371.77</ele>
  <time>2026-09-01T20:03:33Z</time>
  <course>217.61</course>
  <speed>17.88</speed>
  <fix>3d</fix>
</trkpt>
<trkpt lat="-27.2748504" lon="151.2905133">
  <ele>371.98</ele>
  <time>2026-09-01T20:03:33Z</time>
  <course>202.29</course>
  <speed>17.87550558725543</speed>
  <fix>3d</fix>
</trkpt>
<trkpt lat="-27.2748119" lon="151.2905467">
  <ele>371.77</ele>
  <time>2026-09-01T20:03:33Z</time>
  <course>217.61</course>
  <speed>17.88</speed>
  <fix>3d</fix>
</trkpt>
<trkpt lat="-27.274862" lon="151.2904995">
  <ele>371.64</ele>
  <time>2026-09-01T20:03:33Z</time>
  <course>203.4</course>
  <speed>18.108368231290196</speed>
  <fix>3d</fix>
</trkpt>
<trkpt lat="-27.274837" lon="151.2905237">
  <ele>371.79</ele>
  <time>2026-09-01T20:03:33Z</time>
  <course>220.8</course>
  <speed>18.11</speed>
  <fix>3d</fix>
</trkpt>
<trkpt lat="-27.2748743" lon="151.2904875">
  <ele>371.84</ele>
  <time>2026-09-01T20:03:33Z</time>
  <course>204.56</course>
  <speed>18.108368231290196</speed>
  <fix>3d</fix>
</trkpt>
<trkpt lat="-27.274837" lon="151.2905237">
  <ele>371.79</ele>
  <time>2026-09-01T20:03:33Z</time>
  <course>220.8</course>
  <speed>18.11</speed>
  <fix>3d</fix>
</trkpt>
<trkpt lat="-27.2748852" lon="151.2904727">
  <ele>371.81</ele>
  <time>2026-09-01T20:03:33Z</time>
  <course>205.69</course>
  <speed>18.359373627659522</speed>
  <fix>3d</fix>
</trkpt>
<trkpt lat="-27.2748612" lon="151.2904988">
  <ele>371.82</ele>
  <time>2026-09-01T20:03:33Z</time>
  <course>223.97</course>
  <speed>18.36</speed>
  <fix>3d</fix>
</trkpt>
<trkpt lat="-27.2748971" lon="151.2904598">
  <ele>371.78</ele>
  <time>2026-09-01T20:03:33Z</time>
  <course>206.9</course>
  <speed>18.359373627659522</speed>
  <fix>3d</fix>
</trkpt>
<trkpt lat="-27.2748612" lon="151.2904988">
  <ele>371.82</ele>
  <time>2026-09-01T20:03:33Z</time>
  <course>223.97</course>
  <speed>18.36</speed>
  <fix>3d</fix>
</trkpt>
<trkpt lat="-27.2749076" lon="151.2904441">
  <ele>371.94</ele>
  <time>2026-09-01T20:03:33Z</time>
  <course>208.09</course>
  <speed>18.623946950096265</speed>
  <fix>3d</fix>
</trkpt>
<trkpt lat="-27.2748845" lon="151.2904721">
  <ele>371.84</ele>
  <time>2026-09-01T20:03:33Z</time>
  <course>227.13</course>
  <speed>18.63</speed>
  <fix>3d</fix>
</trkpt>
<trkpt lat="-27.2749189" lon="151.2904303">
  <ele>371.92</ele>
  <time>2026-09-01T20:03:33Z</time>
  <course>209.33</course>
  <speed>18.623946950096265</speed>
  <fix>3d</fix>
</trkpt>
<trkpt lat="-27.2748845" lon="151.2904721">
  <ele>371.84</ele>
  <time>2026-09-01T20:03:33Z</time>
  <course>227.13</course>
  <speed>18.63</speed>
  <fix>3d</fix>
</trkpt>
<trkpt lat="-27.2749287" lon="151.2904138">
  <ele>371.74</ele>
  <time>2026-09-01T20:03:33Z</time>
  <course>210.48</course>
  <speed>18.91107876351849</speed>
  <fix>3d</fix>
</trkpt>
<trkpt lat="-27.2749067" lon="151.2904436">
  <ele>371.87</ele>
  <time>2026-09-01T20:03:33Z</time>
  <course>230.3</course>
  <speed>18.91</speed>
  <fix>3d</fix>
</trkpt>
<trkpt lat="-27.2749395" lon="151.2903991">
  <ele>372.08</ele>
  <time>2026-09-01T20:03:33Z</time>
  <course>211.61</course>
  <speed>18.91107876351849</speed>
  <fix>3d</fix>
</trkpt>
<trkpt lat="-27.2749067" lon="151.2904436">
  <ele>371.87</ele>
  <time>2026-09-01T20:03:33Z</time>
  <course>230.3</course>
  <speed>18.91</speed>
  <fix>3d</fix>
</trkpt>
<trkpt lat="-27.2749486" lon="151.2903816">
  <ele>372.05</ele>
  <time>2026-09-01T20:03:33Z</time>
  <course>212.91</course>
  <speed>19.220509878772727</speed>
  <fix>3d</fix>
</trkpt>
<trkpt lat="-27.2749278" lon="151.2904133">
  <ele>371.9</ele>
  <time>2026-09-01T20:03:33Z</time>
  <course>233.52</course>
  <speed>19.22</speed>
  <fix>3d</fix>
</trkpt>
<trkpt lat="-27.2749589" lon="151.290366">
  <ele>372.0</ele>
  <time>2026-09-01T20:03:33Z</time>
  <course>214.23</course>
  <speed>19.220509878772727</speed>
  <fix>3d</fix>
</trkpt>
<trkpt lat="-27.2749278" lon="151.2904133">
  <ele>371.9</ele>
  <time>2026-09-01T20:03:33Z</time>
  <course>233.52</course>
  <speed>19.22</speed>
  <fix>3d</fix>
</trkpt>
<trkpt lat="-27.2749672" lon="151.2903476">
  <ele>371.87</ele>
  <time>2026-09-01T20:03:33Z</time>
  <course>215.54</course>
  <speed>19.55386662529946</speed>
  <fix>3d</fix>
</trkpt>
<trkpt lat="-27.2749477" lon="151.2903811">
  <ele>371.94</ele>
  <time>2026-09-01T20:03:33Z</time>
  <course>236.78</course>
  <speed>19.56</speed>
  <fix>3d</fix>
</trkpt>
<trkpt lat="-27.2749768" lon="151.290331">
  <ele>372.11</ele>
  <time>2026-09-01T20:03:33Z</time>
  <course>216.83</course>
  <speed>19.55386662529946</speed>
  <fix>3d</fix>
</trkpt>
<trkpt lat="-27.2749477" lon="151.2903811">
  <ele>371.94</ele>
  <time>2026-09-01T20:03:33Z</time>
  <course>236.78</course>
  <speed>19.56</speed>
  <fix>3d</fix>
</trkpt>
<trkpt lat="-27.2749844" lon="151.2903117">
  <ele>372.09</ele>
  <time>2026-09-01T20:03:33Z</time>
  <course>218.14</course>
  <speed>19.912621625491706</speed>
  <fix>3d</fix>
</trkpt>
<trkpt lat="-27.2749663" lon="151.2903471">
  <ele>371.97</ele>
  <time>2026-09-01T20:03:33Z</time>
  <course>240.08</course>
  <speed>19.92</speed>
  <fix>3d</fix>
</trkpt>
<trkpt lat="-27.2749933" lon="151.2902943">
  <ele>371.95</ele>
  <time>2026-09-01T20:03:33Z</time>
  <course>219.47</course>
  <speed>19.912621625491706</speed>
  <fix>3d</fix>
</trkpt>
<trkpt lat="-27.2749663" lon="151.2903471">
  <ele>371.97</ele>
  <time>2026-09-01T20:03:33Z</time>
  <course>240.08</course>
  <speed>19.92</speed>
  <fix>3d</fix>
</trkpt>
<trkpt lat="-27.2749999" lon="151.2902741">
  <ele>372.19</ele>
  <time>2026-09-01T20:03:33Z</time>
  <course>220.81</course>
  <speed>20.290088713458104</speed>
  <fix>3d</fix>
</trkpt>
<trkpt lat="-27.2749834" lon="151.2903113">
  <ele>372.03</ele>
  <time>2026-09-01T20:03:33Z</time>
  <course>243.36</course>
  <speed>20.29</speed>
  <fix>3d</fix>
</trkpt>
<trkpt lat="-27.2750081" lon="151.2902558">
  <ele>372.17</ele>
  <time>2026-09-01T20:03:33Z</time>
  <course>222.21</course>
  <speed>20.290088713458104</speed>
  <fix>3d</fix>
</trkpt>
<trkpt lat="-27.2749834" lon="151.2903113">
  <ele>372.03</ele>
  <time>2026-09-01T20:03:33Z</time>
  <course>243.36</course>
  <speed>20.29</speed>
  <fix>3d</fix>
</trkpt>
<trkpt lat="-27.2750139" lon="151.2902347">
  <ele>372.1</ele>
  <time>2026-09-01T20:03:33Z</time>
  <course>223.6</course>
  <speed>20.693960471596537</speed>
  <fix>3d</fix>
</trkpt>
<trkpt lat="-27.2749989" lon="151.2902738">
  <ele>372.08</ele>
  <time>2026-09-01T20:03:33Z</time>
  <course>246.64</course>
  <speed>20.69</speed>
  <fix>3d</fix>
</trkpt>
<trkpt lat="-27.2750213" lon="151.2902155">
  <ele>372.15</ele>
  <time>2026-09-01T20:03:33Z</time>
  <course>225.01</course>
  <speed>20.693960471596537</speed>
  <fix>3d</fix>
</trkpt>
<trkpt lat="-27.2749989" lon="151.2902738">
  <ele>372.08</ele>
  <time>2026-09-01T20:03:33Z</time>
  <course>246.64</course>
  <speed>20.69</speed>
  <fix>3d</fix>
</trkpt>
<trkpt lat="-27.275026" lon="151.2901936">
  <ele>372.07</ele>
  <time>2026-09-01T20:03:33Z</time>
  <course>226.49</course>
  <speed>21.125704721973182</speed>
  <fix>3d</fix>
</trkpt>
<trkpt lat="-27.2750128" lon="151.2902345">
  <ele>372.14</ele>
  <time>2026-09-01T20:03:33Z</time>
  <course>249.96</course>
  <speed>21.13</speed>
  <fix>3d</fix>
</trkpt>
<trkpt lat="-27.2750325" lon="151.2901736">
  <ele>372.25</ele>
  <time>2026-09-01T20:03:33Z</time>
  <course>227.98</course>
  <speed>21.125704721973182</speed>
  <fix>3d</fix>
</trkpt>
<trkpt lat="-27.2750128" lon="151.2902345">
  <ele>372.14</ele>
  <time>2026-09-01T20:03:33Z</time>
  <course>249.96</course>
  <speed>21.13</speed>
  <fix>3d</fix>
</trkpt>
<trkpt lat="-27.2750362" lon="151.2901508">
  <ele>372.39</ele>
  <time>2026-09-01T20:03:33Z</time>
  <course>229.42</course>
  <speed>21.583669752847868</speed>
  <fix>3d</fix>
</trkpt>
<trkpt lat="-27.2750249" lon="151.2901934">
  <ele>372.2</ele>
  <time>2026-09-01T20:03:33Z</time>
  <course>253.35</course>
  <speed>21.59</speed>
  <fix>3d</fix>
</trkpt>
<trkpt lat="-27.2750417" lon="151.2901299">
  <ele>372.39</ele>
  <time>2026-09-01T20:03:33Z</time>
  <course>231.0</course>
  <speed>21.583669752847868</speed>
  <fix>3d</fix>
</trkpt>
<trkpt lat="-27.2750249" lon="151.2901934">
  <ele>372.2</ele>
  <time>2026-09-01T20:03:33Z</time>
  <course>253.35</course>
  <speed>21.59</speed>
  <fix>3d</fix>
</trkpt>
<trkpt lat="-27.2750442" lon="151.2901065">
  <ele>372.43</ele>
  <time>2026-09-01T20:03:33Z</time>
  <course>232.65</course>
  <speed>22.067940547318862</speed>
  <fix>3d</fix>
</trkpt>
<trkpt lat="-27.275035" lon="151.2901508">
  <ele>372.26</ele>
  <time>2026-09-01T20:03:33Z</time>
  <course>256.73</course>
  <speed>22.07</speed>
  <fix>3d</fix>
</trkpt>
<trkpt lat="-27.2750488" lon="151.2900848">
  <ele>372.46</ele>
  <time>2026-09-01T20:03:33Z</time>
  <course>234.26</course>
  <speed>22.067940547318862</speed>
  <fix>3d</fix>
</trkpt>
<trkpt lat="-27.275035" lon="151.2901508">
  <ele>372.26</ele>
  <time>2026-09-01T20:03:33Z</time>
  <course>256.73</course>
  <speed>22.07</speed>
  <fix>3d</fix>
</trkpt>
<trkpt lat="-27.27505" lon="151.290061">
  <ele>372.51</ele>
  <time>2026-09-01T20:03:33Z</time>
  <course>235.92</course>
  <speed>22.57077978271907</speed>
  <fix>3d</fix>
</trkpt>
<trkpt lat="-27.275043" lon="151.2901066">
  <ele>372.32</ele>
  <time>2026-09-01T20:03:33Z</time>
  <course>260.16</course>
  <speed>22.57</speed>
  <fix>3d</fix>
</trkpt>
<trkpt lat="-27.2750534" lon="151.2900385">
  <ele>372.48</ele>
  <time>2026-09-01T20:03:33Z</time>
  <course>237.63</course>
  <speed>22.57077978271907</speed>
  <fix>3d</fix>
</trkpt>
<trkpt lat="-27.275043" lon="151.2901066">
  <ele>372.32</ele>
  <time>2026-09-01T20:03:33Z</time>
  <course>260.16</course>
  <speed>22.57</speed>
  <fix>3d</fix>
</trkpt>
<trkpt lat="-27.2750534" lon="151.2900138">
  <ele>372.47</ele>
  <time>2026-09-01T20:03:33Z</time>
  <course>239.36</course>
  <speed>23.10891170090015</speed>
  <fix>3d</fix>
</trkpt>
<trkpt lat="-27.2750488" lon="151.2900609">
  <ele>372.4</ele>
  <time>2026-09-01T20:03:33Z</time>
  <course>263.7</course>
  <speed>23.1</speed>
  <fix>3d</fix>
</trkpt>
<trkpt lat="-27.2750556" lon="151.2899906">
  <ele>372.37</ele>
  <time>2026-09-01T20:03:33Z</time>
  <course>241.08</course>
  <speed>23.10891170090015</speed>
  <fix>3d</fix>
</trkpt>
<trkpt lat="-27.2750488" lon="151.2900609">
  <ele>372.4</ele>
  <time>2026-09-01T20:03:33Z</time>
  <course>263.7</course>
  <speed>23.1</speed>
  <fix>3d</fix>
</trkpt>
<trkpt lat="-27.275054" lon="151.2899653">
  <ele>372.37</ele>
  <time>2026-09-01T20:03:33Z</time>
  <course>242.9</course>
  <speed>23.666045297007273</speed>
  <fix>3d</fix>
</trkpt>
<trkpt lat="-27.275052" lon="151.2900138">
  <ele>372.47</ele>
  <time>2026-09-01T20:03:33Z</time>
  <course>267.29</course>
  <speed>23.67</speed>
  <fix>3d</fix>
</trkpt>
<trkpt lat="-27.275055" lon="151.2899414">
  <ele>372.54</ele>
  <time>2026-09-01T20:03:33Z</time>
  <course>244.8</course>
  <speed>23.666045297007273</speed>
  <fix>3d</fix>
</trkpt>
<trkpt lat="-27.275052" lon="151.2900138">
  <ele>372.47</ele>
  <time>2026-09-01T20:03:33Z</time>
  <course>267.29</course>
  <speed>23.67</speed>
  <fix>3d</fix>
</trkpt>
<trkpt lat="-27.275052" lon="151.2899157">
  <ele>372.48</ele>
  <time>2026-09-01T20:03:33Z</time>
  <course>246.77</course>
  <speed>24.263297385145325</speed>
  <fix>3d</fix>
</trkpt>
<trkpt lat="-27.2750527" lon="151.2899654">
  <ele>372.56</ele>
  <time>2026-09-01T20:03:33Z</time>
  <course>270.94</course>
  <speed>24.26</speed>
  <fix>3d</fix>
</trkpt>
<trkpt lat="-27.2750517" lon="151.2898911">
  <ele>372.64</ele>
  <time>2026-09-01T20:03:33Z</time>
  <course>248.74</course>
  <speed>24.263297385145325</speed>
  <fix>3d</fix>
</trkpt>
<trkpt lat="-27.2750527" lon="151.2899654">
  <ele>372.56</ele>
  <time>2026-09-01T20:03:33Z</time>
  <course>270.94</course>
  <speed>24.26</speed>
  <fix>3d</fix>
</trkpt>
<trkpt lat="-27.2750469" lon="151.2898649">
  <ele>372.69</ele>
  <time>2026-09-01T20:03:33Z</time>
  <course>250.69</course>
  <speed>24.89291063736822</speed>
  <fix>3d</fix>
</trkpt>
<trkpt lat="-27.2750506" lon="151.2899158">
  <ele>372.65</ele>
  <time>2026-09-01T20:03:33Z</time>
  <course>274.68</course>
  <speed>24.9</speed>
  <fix>3d</fix>
</trkpt>
<trkpt lat="-27.2750451" lon="151.2898398">
  <ele>372.96</ele>
  <time>2026-09-01T20:03:33Z</time>
  <course>252.79</course>
  <speed>24.89291063736822</speed>
  <fix>3d</fix>
</trkpt>
<trkpt lat="-27.2750506" lon="151.2899158">
  <ele>372.65</ele>
  <time>2026-09-01T20:03:33Z</time>
  <course>274.68</course>
  <speed>24.9</speed>
  <fix>3d</fix>
</trkpt>
<trkpt lat="-27.2750387" lon="151.2898133">
  <ele>372.66</ele>
  <time>2026-09-01T20:03:33Z</time>
  <course>255.0</course>
  <speed>25.55956376779541</speed>
  <fix>3d</fix>
</trkpt>
<trkpt lat="-27.2750455" lon="151.2898651">
  <ele>372.76</ele>
  <time>2026-09-01T20:03:33Z</time>
  <course>278.49</course>
  <speed>25.56</speed>
  <fix>3d</fix>
</trkpt>
<trkpt lat="-27.2750353" lon="151.2897877">
  <ele>372.87</ele>
  <time>2026-09-01T20:03:33Z</time>
  <course>257.18</course>
  <speed>25.55956376779541</speed>
  <fix>3d</fix>
</trkpt>
<trkpt lat="-27.2750455" lon="151.2898651">
  <ele>372.76</ele>
  <time>2026-09-01T20:03:33Z</time>
  <course>278.49</course>
  <speed>25.56</speed>
  <fix>3d</fix>
</trkpt>
<trkpt lat="-27.2750268" lon="151.2897612">
  <ele>373.13</ele>
  <time>2026-09-01T20:03:33Z</time>
  <course>259.4</course>
  <speed>26.24321817155815</speed>
  <fix>3d</fix>
</trkpt>
<trkpt lat="-27.275037" lon="151.2898137">
  <ele>372.88</ele>
  <time>2026-09-01T20:03:33Z</time>
  <course>282.42</course>
  <speed>26.25</speed>
  <fix>3d</fix>
</trkpt>
<trkpt lat="-27.2750217" lon="151.2897352">
  <ele>372.93</ele>
  <time>2026-09-01T20:03:33Z</time>
  <course>261.7</course>
  <speed>26.24321817155815</speed>
  <fix>3d</fix>
</trkpt>
<trkpt lat="-27.275037" lon="151.2898137">
  <ele>372.88</ele>
  <time>2026-09-01T20:03:33Z</time>
  <course>282.42</course>
  <speed>26.25</speed>
  <fix>3d</fix>
</trkpt>
<trkpt lat="-27.2750112" lon="151.2897083">
  <ele>373.28</ele>
  <time>2026-09-01T20:03:33Z</time>
  <course>264.07</course>
  <speed>26.95253976900878</speed>
  <fix>3d</fix>
</trkpt>
<trkpt lat="-27.2750251" lon="151.2897616">
  <ele>373.02</ele>
  <time>2026-09-01T20:03:33Z</time>
  <course>286.44</course>
  <speed>26.96</speed>
  <fix>3d</fix>
</trkpt>
<trkpt lat="-27.2750043" lon="151.2896822">
  <ele>373.41</ele>
  <time>2026-09-01T20:03:33Z</time>
  <course>266.43</course>
  <speed>26.95253976900878</speed>
  <fix>3d</fix>
</trkpt>
<trkpt lat="-27.2750251" lon="151.2897616">
  <ele>373.02</ele>
  <time>2026-09-01T20:03:33Z</time>
  <course>286.44</course>
  <speed>26.96</speed>
  <fix>3d</fix>
</trkpt>
<trkpt lat="-27.2749916" lon="151.2896559">
  <ele>373.39</ele>
  <time>2026-09-01T20:03:33Z</time>
  <course>268.88</course>
  <speed>27.682572134828803</speed>
  <fix>3d</fix>
</trkpt>
<trkpt lat="-27.2750094" lon="151.2897093">
  <ele>373.18</ele>
  <time>2026-09-01T20:03:33Z</time>
  <course>290.55</course>
  <speed>27.69</speed>
  <fix>3d</fix>
</trkpt>
<trkpt lat="-27.2749829" lon="151.2896297">
  <ele>373.28</ele>
  <time>2026-09-01T20:03:33Z</time>
  <course>271.46</course>
  <speed>27.682572134828803</speed>
  <fix>3d</fix>
</trkpt>
<trkpt lat="-27.2750094" lon="151.2897093">
  <ele>373.18</ele>
  <time>2026-09-01T20:03:33Z</time>
  <course>290.55</course>
  <speed>27.69</speed>
  <fix>3d</fix>
</trkpt>
<trkpt lat="-27.2749682" lon="151.2896037">
  <ele>373.49</ele>
  <time>2026-09-01T20:03:33Z</time>
  <course>274.0</course>
  <speed>28.425414684749985</speed>
  <fix>3d</fix>
</trkpt>
<trkpt lat="-27.27499" lon="151.2896569">
  <ele>373.36</ele>
  <time>2026-09-01T20:03:33Z</time>
  <course>294.78</course>
  <speed>28.43</speed>
  <fix>3d</fix>
</trkpt>
<trkpt lat="-27.2749575" lon="151.2895776">
  <ele>373.51</ele>
  <time>2026-09-01T20:03:33Z</time>
  <course>276.58</course>
  <speed>28.425414684749985</speed>
  <fix>3d</fix>
</trkpt>
<trkpt lat="-27.27499" lon="151.2896569">
  <ele>373.36</ele>
  <time>2026-09-01T20:03:33Z</time>
  <course>294.78</course>
  <speed>28.43</speed>
  <fix>3d</fix>
</trkpt>
<trkpt lat="-27.2749402" lon="151.2895516">
  <ele>373.69</ele>
  <time>2026-09-01T20:03:33Z</time>
  <course>279.38</course>
  <speed>29.163830338280327</speed>
  <fix>3d</fix>
</trkpt>
<trkpt lat="-27.2749665" lon="151.2896049">
  <ele>373.56</ele>
  <time>2026-09-01T20:03:33Z</time>
  <course>299.07</course>
  <speed>29.17</speed>
  <fix>3d</fix>
</trkpt>
<trkpt lat="-27.2749275" lon="151.2895258">
  <ele>374.04</ele>
  <time>2026-09-01T20:03:33Z</time>
  <course>282.11</course>
  <speed>29.163830338280327</speed>
  <fix>3d</fix>
</trkpt>
<trkpt lat="-27.2749665" lon="151.2896049">
  <ele>373.56</ele>
  <time>2026-09-01T20:03:33Z</time>
  <course>299.07</course>
  <speed>29.17</speed>
  <fix>3d</fix>
</trkpt>
<trkpt lat="-27.2749083" lon="151.2895016">
  <ele>374.07</ele>
  <time>2026-09-01T20:03:33Z</time>
  <course>284.9</course>
  <speed>29.912569264441327</speed>
  <fix>3d</fix>
</trkpt>
<trkpt lat="-27.2749389" lon="151.2895538">
  <ele>373.78</ele>
  <time>2026-09-01T20:03:33Z</time>
  <course>303.41</course>
  <speed>29.92</speed>
  <fix>3d</fix>
</trkpt>
<trkpt lat="-27.2748935" lon="151.2894763">
  <ele>374.06</ele>
  <time>2026-09-01T20:03:33Z</time>
  <course>287.84</course>
  <speed>29.912569264441327</speed>
  <fix>3d</fix>
</trkpt>
<trkpt lat="-27.2749389" lon="151.2895538">
  <ele>373.78</ele>
  <time>2026-09-01T20:03:33Z</time>
  <course>303.41</course>
  <speed>29.92</speed>
  <fix>3d</fix>
</trkpt>
<trkpt lat="-27.2748723" lon="151.2894534">
  <ele>374.12</ele>
  <time>2026-09-01T20:03:33Z</time>
  <course>290.79</course>
  <speed>30.676859356850727</speed>
  <fix>3d</fix>
</trkpt>
<trkpt lat="-27.2749073" lon="151.289504">
  <ele>374.02</ele>
  <time>2026-09-01T20:03:33Z</time>
  <course>307.88</course>
  <speed>30.68</speed>
  <fix>3d</fix>
</trkpt>
<trkpt lat="-27.2748554" lon="151.2894289">
  <ele>374.39</ele>
  <time>2026-09-01T20:03:33Z</time>
  <course>293.85</course>
  <speed>30.676859356850727</speed>
  <fix>3d</fix>
</trkpt>
<trkpt lat="-27.2749073" lon="151.289504">
  <ele>374.02</ele>
  <time>2026-09-01T20:03:33Z</time>
  <course>307.88</course>
  <speed>30.68</speed>
  <fix>3d</fix>
</trkpt>
<trkpt lat="-27.2748324" lon="151.2894084">
  <ele>374.63</ele>
  <time>2026-09-01T20:03:33Z</time>
  <course>296.94</course>
  <speed>31.432252544162342</speed>
  <fix>3d</fix>
</trkpt>
<trkpt lat="-27.2748713" lon="151.2894561">
  <ele>374.28</ele>
  <time>2026-09-01T20:03:33Z</time>
  <course>312.5</course>
  <speed>31.43</speed>
  <fix>3d</fix>
</trkpt>
<trkpt lat="-27.2748133" lon="151.289385">
  <ele>374.83</ele>
  <time>2026-09-01T20:03:33Z</time>
  <course>300.16</course>
  <speed>31.432252544162342</speed>
  <fix>3d</fix>
</trkpt>
<trkpt lat="-27.2748713" lon="151.2894561">
  <ele>374.28</ele>
  <time>2026-09-01T20:03:33Z</time>
  <course>312.5</course>
  <speed>31.43</speed>
  <fix>3d</fix>
</trkpt>
<trkpt lat="-27.274788" lon="151.2893659">
  <ele>375.02</ele>
  <time>2026-09-01T20:03:33Z</time>
  <course>303.39</course>
  <speed>32.16347773484702</speed>
  <fix>3d</fix>
</trkpt>
<trkpt lat="-27.274831" lon="151.2894106">
  <ele>374.58</ele>
  <time>2026-09-01T20:03:33Z</time>
  <course>317.27</course>
  <speed>32.17</speed>
  <fix>3d</fix>
</trkpt>
<trkpt lat="-27.2747667" lon="151.2893438">
  <ele>375.16</ele>
  <time>2026-09-01T20:03:33Z</time>
  <course>306.68</course>
  <speed>32.16347773484702</speed>
  <fix>3d</fix>
</trkpt>
<trkpt lat="-27.274831" lon="151.2894106">
  <ele>374.58</ele>
  <time>2026-09-01T20:03:33Z</time>
  <course>317.27</course>
  <speed>32.17</speed>
  <fix>3d</fix>
</trkpt>
<trkpt lat="-27.2747391" lon="151.2893269">
  <ele>375.03</ele>
  <time>2026-09-01T20:03:33Z</time>
  <course>310.11</course>
  <speed>32.86863550560017</speed>
  <fix>3d</fix>
</trkpt>
<trkpt lat="-27.2747864" lon="151.2893682">
  <ele>374.9</ele>
  <time>2026-09-01T20:03:33Z</time>
  <course>322.16</course>
  <speed>32.87</speed>
  <fix>3d</fix>
</trkpt>
<trkpt lat="-27.2747158" lon="151.2893065">
  <ele>375.53</ele>
  <time>2026-09-01T20:03:33Z</time>
  <course>313.52</course>
  <speed>32.86863550560017</speed>
  <fix>3d</fix>
</trkpt>
<trkpt lat="-27.2747864" lon="151.2893682">
  <ele>374.9</ele>
  <time>2026-09-01T20:03:33Z</time>
  <course>322.16</course>
  <speed>32.87</speed>
  <fix>3d</fix>
</trkpt>
<trkpt lat="-27.2746864" lon="151.2892921">
  <ele>375.53</ele>
  <time>2026-09-01T20:03:33Z</time>
  <course>317.0</course>
  <speed>33.51319889237672</speed>
  <fix>3d</fix>
</trkpt>
<trkpt lat="-27.2747377" lon="151.2893293">
  <ele>375.25</ele>
  <time>2026-09-01T20:03:33Z</time>
  <course>327.16</course>
  <speed>33.51</speed>
  <fix>3d</fix>
</trkpt>
<trkpt lat="-27.2746611" lon="151.2892737">
  <ele>375.88</ele>
  <time>2026-09-01T20:03:33Z</time>
  <course>320.63</course>
  <speed>33.51319889237672</speed>
  <fix>3d</fix>
</trkpt>
<trkpt lat="-27.2747377" lon="151.2893293">
  <ele>375.25</ele>
  <time>2026-09-01T20:03:33Z</time>
  <course>327.16</course>
  <speed>33.51</speed>
  <fix>3d</fix>
</trkpt>
<trkpt lat="-27.2746301" lon="151.2892622">
  <ele>376.16</ele>
  <time>2026-09-01T20:03:33Z</time>
  <course>324.22</course>
  <speed>34.09823015934992</speed>
  <fix>3d</fix>
</trkpt>
<trkpt lat="-27.2746854" lon="151.2892949">
  <ele>375.63</ele>
  <time>2026-09-01T20:03:33Z</time>
  <course>332.26</course>
  <speed>34.1</speed>
  <fix>3d</fix>
</trkpt>
<trkpt lat="-27.274603" lon="151.2892462">
  <ele>376.06</ele>
  <time>2026-09-01T20:03:33Z</time>
  <course>327.75</course>
  <speed>34.09823015934992</speed>
  <fix>3d</fix>
</trkpt>
<trkpt lat="-27.2746854" lon="151.2892949">
  <ele>375.63</ele>
  <time>2026-09-01T20:03:33Z</time>
  <course>332.26</course>
  <speed>34.1</speed>
  <fix>3d</fix>
</trkpt>
<trkpt lat="-27.2745709" lon="151.2892382">
  <ele>376.44</ele>
  <time>2026-09-01T20:03:33Z</time>
  <course>331.34</course>
  <speed>34.616223075315425</speed>
  <fix>3d</fix>
</trkpt>
<trkpt lat="-27.2746295" lon="151.2892655">
  <ele>376.05</ele>
  <time>2026-09-01T20:03:33Z</time>
  <course>337.48</course>
  <speed>34.61</speed>
  <fix>3d</fix>
</trkpt>
<trkpt lat="-27.2745422" lon="151.2892248">
  <ele>376.62</ele>
  <time>2026-09-01T20:03:33Z</time>
  <course>334.9</course>
  <speed>34.616223075315425</speed>
  <fix>3d</fix>
</trkpt>
<trkpt lat="-27.2746295" lon="151.2892655">
  <ele>376.05</ele>
  <time>2026-09-01T20:03:33Z</time>
  <course>337.48</course>
  <speed>34.61</speed>
  <fix>3d</fix>
</trkpt>
<trkpt lat="-27.2745093" lon="151.2892201">
  <ele>377.04</ele>
  <time>2026-09-01T20:03:33Z</time>
  <course>338.48</course>
  <speed>35.01990291248678</speed>
  <fix>3d</fix>
</trkpt>
<trkpt lat="-27.2745705" lon="151.2892415">
  <ele>376.5</ele>
  <time>2026-09-01T20:03:33Z</time>
  <course>342.71</course>
  <speed>35.02</speed>
  <fix>3d</fix>
</trkpt>
<trkpt lat="-27.2744792" lon="151.2892096">
  <ele>377.07</ele>
  <time>2026-09-01T20:03:33Z</time>
  <course>341.95</course>
  <speed>35.01990291248678</speed>
  <fix>3d</fix>
</trkpt>
<trkpt lat="-27.2745705" lon="151.2892415">
  <ele>376.5</ele>
  <time>2026-09-01T20:03:33Z</time>
  <course>342.71</course>
  <speed>35.02</speed>
  <fix>3d</fix>
</trkpt>
<trkpt lat="-27.2744461" lon="151.2892082">
  <ele>377.59</ele>
  <time>2026-09-01T20:03:33Z</time>
  <course>345.43</course>
  <speed>35.31055507918277</speed>
  <fix>3d</fix>
</trkpt>
<trkpt lat="-27.2745093" lon="151.2892235">
  <ele>376.98</ele>
  <time>2026-09-01T20:03:33Z</time>
  <course>347.85</course>
  <speed>35.31</speed>
  <fix>3d</fix>
</trkpt>
<trkpt lat="-27.2744141" lon="151.2892005">
  <ele>377.58</ele>
  <time>2026-09-01T20:03:33Z</time>
  <course>348.96</course>
  <speed>35.31055507918277</speed>
  <fix>3d</fix>
</trkpt>
<trkpt lat="-27.2745093" lon="151.2892235">
  <ele>376.98</ele>
  <time>2026-09-01T20:03:33Z</time>
  <course>347.85</course>
  <speed>35.31</speed>
  <fix>3d</fix>
</trkpt>
<trkpt lat="-27.2743812" lon="151.2892023">
  <ele>377.91</ele>
  <time>2026-09-01T20:03:33Z</time>
  <course>352.27</course>
  <speed>35.485098280827685</speed>
  <fix>3d</fix>
</trkpt>
<trkpt lat="-27.2744466" lon="151.2892115">
  <ele>377.48</ele>
  <time>2026-09-01T20:03:33Z</time>
  <course>352.85</course>
  <speed>35.48</speed>
  <fix>3d</fix>
</trkpt>
<trkpt lat="-27.2743495" lon="151.2891979">
  <ele>378.19</ele>
  <time>2026-09-01T20:03:33Z</time>
  <course>355.58</course>
  <speed>35.485098280827685</speed>
  <fix>3d</fix>
</trkpt>
<trkpt lat="-27.2744466" lon="151.2892115">
  <ele>377.48</ele>
  <time>2026-09-01T20:03:33Z</time>
  <course>352.85</course>
  <speed>35.48</speed>
  <fix>3d</fix>
</trkpt>
<trkpt lat="-27.2743171" lon="151.2892027">
  <ele>378.43</ele>
  <time>2026-09-01T20:03:33Z</time>
  <course>358.92</course>
  <speed>35.52838864907892</speed>
  <fix>3d</fix>
</trkpt>
<trkpt lat="-27.2743831" lon="151.2892056">
  <ele>377.99</ele>
  <time>2026-09-01T20:03:33Z</time>
  <course>357.7</course>
  <speed>35.53</speed>
  <fix>3d</fix>
</trkpt>
<trkpt lat="-27.2742852" lon="151.2892012">
  <ele>378.79</ele>
  <time>2026-09-01T20:03:33Z</time>
  <course>2.03</course>
  <speed>35.52838864907892</speed>
  <fix>3d</fix>
</trkpt>
<trkpt lat="-27.2743831" lon="151.2892056">
  <ele>377.99</ele>
  <time>2026-09-01T20:03:33Z</time>
  <course>357.7</course>
  <speed>35.53</speed>
  <fix>3d</fix>
</trkpt>
<trkpt lat="-27.2742534" lon="151.2892088">
  <ele>378.75</ele>
  <time>2026-09-01T20:03:33Z</time>
  <course>5.08</course>
  <speed>35.47130812360886</speed>
  <fix>3d</fix>
</trkpt>
<trkpt lat="-27.2743193" lon="151.2892057">
  <ele>378.47</ele>
  <time>2026-09-01T20:03:33Z</time>
  <course>2.41</course>
  <speed>35.47</speed>
  <fix>3d</fix>
</trkpt>
<trkpt lat="-27.2742216" lon="151.2892103">
  <ele>378.96</ele>
  <time>2026-09-01T20:03:33Z</time>
  <course>8.12</course>
  <speed>35.47130812360886</speed>
  <fix>3d</fix>
</trkpt>
<trkpt lat="-27.2743193" lon="151.2892057">
  <ele>378.47</ele>
  <time>2026-09-01T20:03:33Z</time>
  <course>2.41</course>
  <speed>35.47</speed>
  <fix>3d</fix>
</trkpt>
<trkpt lat="-27.2741908" lon="151.2892203">
  <ele>379.23</ele>
  <time>2026-09-01T20:03:33Z</time>
  <course>11.15</course>
  <speed>35.3154527084108</speed>
  <fix>3d</fix>
</trkpt>
<trkpt lat="-27.274256" lon="151.2892115">
  <ele>378.95</ele>
  <time>2026-09-01T20:03:33Z</time>
  <course>6.9</course>
  <speed>35.32</speed>
  <fix>3d</fix>
</trkpt>
<trkpt lat="-27.2741597" lon="151.2892246">
  <ele>379.56</ele>
  <time>2026-09-01T20:03:33Z</time>
  <course>14.14</course>
  <speed>35.3154527084108</speed>
  <fix>3d</fix>
</trkpt>
<trkpt lat="-27.274256" lon="151.2892115">
  <ele>378.95</ele>
  <time>2026-09-01T20:03:33Z</time>
  <course>6.9</course>
  <speed>35.32</speed>
  <fix>3d</fix>
</trkpt>
<trkpt lat="-27.2741299" lon="151.2892367">
  <ele>379.85</ele>
  <time>2026-09-01T20:03:33Z</time>
  <course>17.03</course>
  <speed>35.073525628314016</speed>
  <fix>3d</fix>
</trkpt>
<trkpt lat="-27.2741935" lon="151.2892226">
  <ele>379.38</ele>
  <time>2026-09-01T20:03:33Z</time>
  <course>11.17</course>
  <speed>35.07</speed>
  <fix>3d</fix>
</trkpt>
<trkpt lat="-27.274099" lon="151.2892436">
  <ele>380.04</ele>
  <time>2026-09-01T20:03:33Z</time>
  <course>19.86</course>
  <speed>35.073525628314016</speed>
  <fix>3d</fix>
</trkpt>
<trkpt lat="-27.2741935" lon="151.2892226">
  <ele>379.38</ele>
  <time>2026-09-01T20:03:33Z</time>
  <course>11.17</course>
  <speed>35.07</speed>
  <fix>3d</fix>
</trkpt>
<trkpt lat="-27.2740705" lon="151.2892579">
  <ele>379.9</ele>
  <time>2026-09-01T20:03:33Z</time>
  <course>22.73</course>
  <speed>34.76396553904632</speed>
  <fix>3d</fix>
</trkpt>
<trkpt lat="-27.2741325" lon="151.2892388">
  <ele>379.76</ele>
  <time>2026-09-01T20:03:33Z</time>
  <course>15.31</course>
  <speed>34.76</speed>
  <fix>3d</fix>
</trkpt>
<trkpt lat="-27.2740404" lon="151.2892671">
  <ele>379.98</ele>
  <time>2026-09-01T20:03:33Z</time>
  <course>25.65</course>
  <speed>34.76396553904632</speed>
  <fix>3d</fix>
</trkpt>
<trkpt lat="-27.2741325" lon="151.2892388">
  <ele>379.76</ele>
  <time>2026-09-01T20:03:33Z</time>
  <course>15.31</course>
  <speed>34.76</speed>
  <fix>3d</fix>
</trkpt>
<trkpt lat="-27.2740138" lon="151.2892832">
  <ele>380.3</ele>
  <time>2026-09-01T20:03:33Z</time>
  <course>28.46</course>
  <speed>34.381473208691915</speed>
  <fix>3d</fix>
</trkpt>
<trkpt lat="-27.2740732" lon="151.2892597">
  <ele>380.08</ele>
  <time>2026-09-01T20:03:33Z</time>
  <course>19.36</course>
  <speed>34.38</speed>
  <fix>3d</fix>
</trkpt>
<trkpt lat="-27.2739847" lon="151.2892947">
  <ele>380.4</ele>
  <time>2026-09-01T20:03:33Z</time>
  <course>31.35</course>
  <speed>34.381473208691915</speed>
  <fix>3d</fix>
</trkpt>
<trkpt lat="-27.2740732" lon="151.2892597">
  <ele>380.08</ele>
  <time>2026-09-01T20:03:33Z</time>
  <course>19.36</course>
  <speed>34.38</speed>
  <fix>3d</fix>
</trkpt>
<trkpt lat="-27.273959" lon="151.2893126">
  <ele>380.29</ele>
  <time>2026-09-01T20:03:33Z</time>
  <course>34.26</course>
  <speed>33.94161015626689</speed>
  <fix>3d</fix>
</trkpt>
<trkpt lat="-27.2740161" lon="151.2892848">
  <ele>380.32</ele>
  <time>2026-09-01T20:03:33Z</time>
  <course>23.4</course>
  <speed>33.95</speed>
  <fix>3d</fix>
</trkpt>
<trkpt lat="-27.2739311" lon="151.2893262">
  <ele>380.45</ele>
  <time>2026-09-01T20:03:33Z</time>
  <course>37.19</course>
  <speed>33.94161015626689</speed>
  <fix>3d</fix>
</trkpt>
<trkpt lat="-27.2740161" lon="151.2892848">
  <ele>380.32</ele>
  <time>2026-09-01T20:03:33Z</time>
  <course>23.4</course>
  <speed>33.95</speed>
  <fix>3d</fix>
</trkpt>
<trkpt lat="-27.273907" lon="151.2893459">
  <ele>380.48</ele>
  <time>2026-09-01T20:03:33Z</time>
  <course>40.2</course>
  <speed>33.46049760538537</speed>
  <fix>3d</fix>
</trkpt>
<trkpt lat="-27.2739614" lon="151.2893141">
  <ele>380.49</ele>
  <time>2026-09-01T20:03:33Z</time>
  <course>27.49</course>
  <speed>33.46</speed>
  <fix>3d</fix>
</trkpt>
<trkpt lat="-27.2738804" lon="151.2893615">
  <ele>380.52</ele>
  <time>2026-09-01T20:03:33Z</time>
  <course>43.28</course>
  <speed>33.46049760538537</speed>
  <fix>3d</fix>
</trkpt>
<trkpt lat="-27.2739614" lon="151.2893141">
  <ele>380.49</ele>
  <time>2026-09-01T20:03:33Z</time>
  <course>27.49</course>
  <speed>33.46</speed>
  <fix>3d</fix>
</trkpt>
<trkpt lat="-27.2738582" lon="151.2893829">
  <ele>380.72</ele>
  <time>2026-09-01T20:03:33Z</time>
  <course>46.28</course>
  <speed>32.90811602021605</speed>
  <fix>3d</fix>
</trkpt>
<trkpt lat="-27.2739095" lon="151.2893473">
  <ele>380.59</ele>
  <time>2026-09-01T20:03:33Z</time>
  <course>31.69</course>
  <speed>32.91</speed>
  <fix>3d</fix>
</trkpt>
<trkpt lat="-27.2738331" lon="151.2894004">
  <ele>380.66</ele>
  <time>2026-09-01T20:03:33Z</time>
  <course>49.33</course>
  <speed>32.90811602021605</speed>
  <fix>3d</fix>
</trkpt>
<trkpt lat="-27.2739095" lon="151.2893473">
  <ele>380.59</ele>
  <time>2026-09-01T20:03:33Z</time>
  <course>31.69</course>
  <speed>32.91</speed>
  <fix>3d</fix>
</trkpt>
<trkpt lat="-27.2738123" lon="151.2894238">
  <ele>380.69</ele>
  <time>2026-09-01T20:03:33Z</time>
  <course>52.54</course>
  <speed>32.27959882030754</speed>
  <fix>3d</fix>
</trkpt>
<trkpt lat="-27.2738608" lon="151.2893841">
  <ele>380.62</ele>
  <time>2026-09-01T20:03:33Z</time>
  <course>36.02</course>
  <speed>32.28</speed>
  <fix>3d</fix>
</trkpt>
<trkpt lat="-27.2737888" lon="151.289443">
  <ele>380.4</ele>
  <time>2026-09-01T20:03:33Z</time>
  <course>55.74</course>
  <speed>32.27959882030754</speed>
  <fix>3d</fix>
</trkpt>
<trkpt lat="-27.2738608" lon="151.2893841">
  <ele>380.62</ele>
  <time>2026-09-01T20:03:33Z</time>
  <course>36.02</course>
  <speed>32.28</speed>
  <fix>3d</fix>
</trkpt>
<trkpt lat="-27.2737712" lon="151.2894669">
  <ele>380.38</ele>
  <time>2026-09-01T20:03:33Z</time>
  <course>58.98</course>
  <speed>31.585130995454175</speed>
  <fix>3d</fix>
</trkpt>
<trkpt lat="-27.2738158" lon="151.289424">
  <ele>380.58</ele>
  <time>2026-09-01T20:03:33Z</time>
  <course>40.49</course>
  <speed>31.59</speed>
  <fix>3d</fix>
</trkpt>
<trkpt lat="-27.2737496" lon="151.2894876">
  <ele>380.6</ele>
  <time>2026-09-01T20:03:33Z</time>
  <course>62.26</course>
  <speed>31.585130995454175</speed>
  <fix>3d</fix>
</trkpt>
<trkpt lat="-27.2738158" lon="151.289424">
  <ele>380.58</ele>
  <time>2026-09-01T20:03:33Z</time>
  <course>40.49</course>
  <speed>31.59</speed>
  <fix>3d</fix>
</trkpt>
<trkpt lat="-27.2737344" lon="151.2895125">
  <ele>380.15</ele>
  <time>2026-09-01T20:03:33Z</time>
  <course>65.63</course>
  <speed>30.808825034395582</speed>
  <fix>3d</fix>
</trkpt>
<trkpt lat="-27.2737747" lon="151.2894668">
  <ele>380.47</ele>
  <time>2026-09-01T20:03:33Z</time>
  <course>45.2</course>
  <speed>30.81</speed>
  <fix>3d</fix>
</trkpt>
<trkpt lat="-27.2737149" lon="151.2895346">
  <ele>380.08</ele>
  <time>2026-09-01T20:03:33Z</time>
  <course>69.04</course>
  <speed>30.808825034395582</speed>
  <fix>3d</fix>
</trkpt>
<trkpt lat="-27.2737747" lon="151.2894668">
  <ele>380.47</ele>
  <time>2026-09-01T20:03:33Z</time>
  <course>45.2</course>
  <speed>30.81</speed>
  <fix>3d</fix>
</trkpt>
<trkpt lat="-27.2737023" lon="151.2895604">
  <ele>380.34</ele>
  <time>2026-09-01T20:03:33Z</time>
  <course>72.32</course>
  <speed>29.94142448181115</speed>
  <fix>3d</fix>
</trkpt>
<trkpt lat="-27.2737379" lon="151.2895123">
  <ele>380.32</ele>
  <time>2026-09-01T20:03:33Z</time>
  <course>50.19</course>
  <speed>29.94</speed>
  <fix>3d</fix>
</trkpt>
<trkpt lat="-27.2736851" lon="151.2895836">
  <ele>379.86</ele>
  <time>2026-09-01T20:03:33Z</time>
  <course>75.66</course>
  <speed>29.94142448181115</speed>
  <fix>3d</fix>
</trkpt>
<trkpt lat="-27.2737379" lon="151.2895123">
  <ele>380.32</ele>
  <time>2026-09-01T20:03:33Z</time>
  <course>50.19</course>
  <speed>29.94</speed>
  <fix>3d</fix>
</trkpt>
<trkpt lat="-27.2736754" lon="151.2896094">
  <ele>379.76</ele>
  <time>2026-09-01T20:03:33Z</time>
  <course>79.05</course>
  <speed>29.008883122243777</speed>
  <fix>3d</fix>
</trkpt>
<trkpt lat="-27.2737058" lon="151.2895597">
  <ele>380.12</ele>
  <time>2026-09-01T20:03:33Z</time>
  <course>55.4</course>
  <speed>29.01</speed>
  <fix>3d</fix>
</trkpt>
<trkpt lat="-27.2736606" lon="151.2896335">
  <ele>379.89</ele>
  <time>2026-09-01T20:03:33Z</time>
  <course>82.42</course>
  <speed>29.008883122243777</speed>
  <fix>3d</fix>
</trkpt>
<trkpt lat="-27.2737058" lon="151.2895597">
  <ele>380.12</ele>
  <time>2026-09-01T20:03:33Z</time>
  <course>55.4</course>
  <speed>29.01</speed>
  <fix>3d</fix>
</trkpt>
<trkpt lat="-27.2736536" lon="151.2896594">
  <ele>379.79</ele>
  <time>2026-09-01T20:03:33Z</time>
  <course>85.8</course>
  <speed>27.998378524478877</speed>
  <fix>3d</fix>
</trkpt>
<trkpt lat="-27.2736788" lon="151.2896086">
  <ele>379.88</ele>
  <time>2026-09-01T20:03:33Z</time>
  <course>60.79</course>
  <speed>28.0</speed>
  <fix>3d</fix>
</trkpt>
<trkpt lat="-27.2736413" lon="151.2896842">
  <ele>379.39</ele>
  <time>2026-09-01T20:03:33Z</time>
  <course>89.17</course>
  <speed>27.998378524478877</speed>
  <fix>3d</fix>
</trkpt>
<trkpt lat="-27.2736788" lon="151.2896086">
  <ele>379.88</ele>
  <time>2026-09-01T20:03:33Z</time>
  <course>60.79</course>
  <speed>28.0</speed>
  <fix>3d</fix>
</trkpt>
<trkpt lat="-27.273637" lon="151.2897095">
  <ele>379.31</ele>
  <time>2026-09-01T20:03:33Z</time>
  <course>92.5</course>
  <speed>26.93559912086605</speed>
  <fix>3d</fix>
</trkpt>
<trkpt lat="-27.2736569" lon="151.2896582">
  <ele>379.6</ele>
  <time>2026-09-01T20:03:33Z</time>
  <course>66.38</course>
  <speed>26.94</speed>
  <fix>3d</fix>
</trkpt>
<trkpt lat="-27.2736273" lon="151.2897345">
  <ele>379.14</ele>
  <time>2026-09-01T20:03:33Z</time>
  <course>95.72</course>
  <speed>26.93559912086605</speed>
  <fix>3d</fix>
</trkpt>
<trkpt lat="-27.2736569" lon="151.2896582">
  <ele>379.6</ele>
  <time>2026-09-01T20:03:33Z</time>
  <course>66.38</course>
  <speed>26.94</speed>
  <fix>3d</fix>
</trkpt>
<trkpt lat="-27.2736255" lon="151.2897591">
  <ele>379.0</ele>
  <time>2026-09-01T20:03:33Z</time>
  <course>98.8</course>
  <speed>25.82139616674513</speed>
  <fix>3d</fix>
</trkpt>
<trkpt lat="-27.2736401" lon="151.289708">
  <ele>379.3</ele>
  <time>2026-09-01T20:03:33Z</time>
  <course>72.15</course>
  <speed>25.82</speed>
  <fix>3d</fix>
</trkpt>
<trkpt lat="-27.2736184" lon="151.289784">
  <ele>379.03</ele>
  <time>2026-09-01T20:03:33Z</time>
  <course>101.77</course>
  <speed>25.82139616674513</speed>
  <fix>3d</fix>
</trkpt>
<trkpt lat="-27.2736401" lon="151.289708">
  <ele>379.3</ele>
  <time>2026-09-01T20:03:33Z</time>
  <course>72.15</course>
  <speed>25.82</speed>
  <fix>3d</fix>
</trkpt>
<trkpt lat="-27.2736189" lon="151.2898075">
  <ele>378.81</ele>
  <time>2026-09-01T20:03:33Z</time>
  <course>104.61</course>
  <speed>24.6832352012454</speed>
  <fix>3d</fix>
</trkpt>
<trkpt lat="-27.2736284" lon="151.2897573">
  <ele>378.97</ele>
  <time>2026-09-01T20:03:33Z</time>
  <course>77.94</course>
  <speed>24.69</speed>
  <fix>3d</fix>
</trkpt>
<trkpt lat="-27.2736143" lon="151.2898319">
  <ele>378.31</ele>
  <time>2026-09-01T20:03:33Z</time>
  <course>107.3</course>
  <speed>24.6832352012454</speed>
  <fix>3d</fix>
</trkpt>
<trkpt lat="-27.2736284" lon="151.2897573">
  <ele>378.97</ele>
  <time>2026-09-01T20:03:33Z</time>
  <course>77.94</course>
  <speed>24.69</speed>
  <fix>3d</fix>
</trkpt>
<trkpt lat="-27.2736165" lon="151.2898546">
  <ele>378.35</ele>
  <time>2026-09-01T20:03:33Z</time>
  <course>109.86</course>
  <speed>23.57826329482305</speed>
  <fix>3d</fix>
</trkpt>
<trkpt lat="-27.2736214" lon="151.2898056">
  <ele>378.63</ele>
  <time>2026-09-01T20:03:33Z</time>
  <course>83.56</course>
  <speed>23.58</speed>
  <fix>3d</fix>
</trkpt>
<trkpt lat="-27.2736142" lon="151.2898783">
  <ele>377.91</ele>
  <time>2026-09-01T20:03:33Z</time>
  <course>112.34</course>
  <speed>23.57826329482305</speed>
  <fix>3d</fix>
</trkpt>
<trkpt lat="-27.2736214" lon="151.2898056">
  <ele>378.63</ele>
  <time>2026-09-01T20:03:33Z</time>
  <course>83.56</course>
  <speed>23.58</speed>
  <fix>3d</fix>
</trkpt>
<trkpt lat="-27.273618" lon="151.2898988">
  <ele>378.06</ele>
  <time>2026-09-01T20:03:33Z</time>
  <course>114.6</course>
  <speed>22.543912703876405</speed>
  <fix>3d</fix>
</trkpt>
<trkpt lat="-27.2736187" lon="151.2898521">
  <ele>378.25</ele>
  <time>2026-09-01T20:03:33Z</time>
  <course>88.9</course>
  <speed>22.54</speed>
  <fix>3d</fix>
</trkpt>
<trkpt lat="-27.2736176" lon="151.2899222">
  <ele>377.61</ele>
  <time>2026-09-01T20:03:33Z</time>
  <course>116.84</course>
  <speed>22.543912703876405</speed>
  <fix>3d</fix>
</trkpt>
<trkpt lat="-27.2736187" lon="151.2898521">
  <ele>378.25</ele>
  <time>2026-09-01T20:03:33Z</time>
  <course>88.9</course>
  <speed>22.54</speed>
  <fix>3d</fix>
</trkpt>
<trkpt lat="-27.2736223" lon="151.2899416">
  <ele>377.34</ele>
  <time>2026-09-01T20:03:33Z</time>
  <course>118.84</course>
  <speed>21.580808603942533</speed>
  <fix>3d</fix>
</trkpt>
<trkpt lat="-27.2736196" lon="151.2898966">
  <ele>377.83</ele>
  <time>2026-09-01T20:03:33Z</time>
  <course>93.93</course>
  <speed>21.58</speed>
  <fix>3d</fix>
</trkpt>
<trkpt lat="-27.2736236" lon="151.2899634">
  <ele>377.2</ele>
  <time>2026-09-01T20:03:33Z</time>
  <course>120.7</course>
  <speed>21.580808603942533</speed>
  <fix>3d</fix>
</trkpt>
<trkpt lat="-27.2736196" lon="151.2898966">
  <ele>377.83</ele>
  <time>2026-09-01T20:03:33Z</time>
  <course>93.93</course>
  <speed>21.58</speed>
  <fix>3d</fix>
</trkpt>
<trkpt lat="-27.2736295" lon="151.2899819">
  <ele>377.1</ele>
  <time>2026-09-01T20:03:33Z</time>
  <course>122.46</course>
  <speed>20.713290419438437</speed>
  <fix>3d</fix>
</trkpt>
<trkpt lat="-27.2736238" lon="151.2899391">
  <ele>377.36</ele>
  <time>2026-09-01T20:03:33Z</time>
  <course>98.6</course>
  <speed>20.72</speed>
  <fix>3d</fix>
</trkpt>
<trkpt lat="-27.2736323" lon="151.2900026">
  <ele>376.77</ele>
  <time>2026-09-01T20:03:33Z</time>
  <course>124.14</course>
  <speed>20.713290419438437</speed>
  <fix>3d</fix>
</trkpt>
<trkpt lat="-27.2736238" lon="151.2899391">
  <ele>377.36</ele>
  <time>2026-09-01T20:03:33Z</time>
  <course>98.6</course>
  <speed>20.72</speed>
  <fix>3d</fix>
</trkpt>
<trkpt lat="-27.2736388" lon="151.2900201">
  <ele>376.28</ele>
  <time>2026-09-01T20:03:33Z</time>
  <course>125.64</course>
  <speed>19.957868122622717</speed>
  <fix>3d</fix>
</trkpt>
<trkpt lat="-27.2736306" lon="151.2899794">
  <ele>376.84</ele>
  <time>2026-09-01T20:03:33Z</time>
  <course>102.82</course>
  <speed>19.96</speed>
  <fix>3d</fix>
</trkpt>
<trkpt lat="-27.2736428" lon="151.2900398">
  <ele>375.91</ele>
  <time>2026-09-01T20:03:33Z</time>
  <course>127.04</course>
  <speed>19.957868122622717</speed>
  <fix>3d</fix>
</trkpt>
<trkpt lat="-27.2736306" lon="151.2899794">
  <ele>376.84</ele>
  <time>2026-09-01T20:03:33Z</time>
  <course>102.82</course>
  <speed>19.96</speed>
  <fix>3d</fix>
</trkpt>
<trkpt lat="-27.2736497" lon="151.2900565">
  <ele>375.62</ele>
  <time>2026-09-01T20:03:33Z</time>
  <course>128.4</course>
  <speed>19.30596798919961</speed>
  <fix>3d</fix>
</trkpt>
<trkpt lat="-27.2736395" lon="151.2900178">
  <ele>376.26</ele>
  <time>2026-09-01T20:03:33Z</time>
  <course>106.62</course>
  <speed>19.31</speed>
  <fix>3d</fix>
</trkpt>
<trkpt lat="-27.2736546" lon="151.290075">
  <ele>375.21</ele>
  <time>2026-09-01T20:03:33Z</time>
  <course>129.74</course>
  <speed>19.30596798919961</speed>
  <fix>3d</fix>
</trkpt>
<trkpt lat="-27.2736395" lon="151.2900178">
  <ele>376.26</ele>
  <time>2026-09-01T20:03:33Z</time>
  <course>106.62</course>
  <speed>19.31</speed>
  <fix>3d</fix>
</trkpt>
<trkpt lat="-27.2736623" lon="151.290091">
  <ele>375.02</ele>
  <time>2026-09-01T20:03:33Z</time>
  <course>131.01</course>
  <speed>18.76001066097778</speed>
  <fix>3d</fix>
</trkpt>
<trkpt lat="-27.2736504" lon="151.2900543">
  <ele>375.62</ele>
  <time>2026-09-01T20:03:33Z</time>
  <course>110.07</course>
  <speed>18.76</speed>
  <fix>3d</fix>
</trkpt>
<trkpt lat="-27.2736681" lon="151.2901088">
  <ele>374.57</ele>
  <time>2026-09-01T20:03:33Z</time>
  <course>132.28</course>
  <speed>18.76001066097778</speed>
  <fix>3d</fix>
</trkpt>
<trkpt lat="-27.2736504" lon="151.2900543">
  <ele>375.62</ele>
  <time>2026-09-01T20:03:33Z</time>
  <course>110.07</course>
  <speed>18.76</speed>
  <fix>3d</fix>
</trkpt>
<trkpt lat="-27.2736761" lon="151.2901242">
  <ele>374.13</ele>
  <time>2026-09-01T20:03:33Z</time>
  <course>133.53</course>
  <speed>18.321203563085042</speed>
  <fix>3d</fix>
</trkpt>
<trkpt lat="-27.2736627" lon="151.2900892">
  <ele>374.9</ele>
  <time>2026-09-01T20:03:33Z</time>
  <course>113.29</course>
  <speed>18.32</speed>
  <fix>3d</fix>
</trkpt>
<trkpt lat="-27.2736826" lon="151.2901412">
  <ele>373.94</ele>
  <time>2026-09-01T20:03:33Z</time>
  <course>134.79</course>
  <speed>18.321203563085042</speed>
  <fix>3d</fix>
</trkpt>
<trkpt lat="-27.2736627" lon="151.2900892">
  <ele>374.9</ele>
  <time>2026-09-01T20:03:33Z</time>
  <course>113.29</course>
  <speed>18.32</speed>
  <fix>3d</fix>
</trkpt>
<trkpt lat="-27.2736912" lon="151.2901559">
  <ele>373.32</ele>
  <time>2026-09-01T20:03:33Z</time>
  <course>135.96</course>
  <speed>17.96908734465944</speed>
  <fix>3d</fix>
</trkpt>
<trkpt lat="-27.2736764" lon="151.2901224">
  <ele>374.13</ele>
  <time>2026-09-01T20:03:33Z</time>
  <course>116.43</course>
  <speed>17.97</speed>
  <fix>3d</fix>
</trkpt>
<trkpt lat="-27.2736983" lon="151.2901721">
  <ele>372.95</ele>
  <time>2026-09-01T20:03:33Z</time>
  <course>137.13</course>
  <speed>17.96908734465944</speed>
  <fix>3d</fix>
</trkpt>
<trkpt lat="-27.2736764" lon="151.2901224">
  <ele>374.13</ele>
  <time>2026-09-01T20:03:33Z</time>
  <course>116.43</course>
  <speed>17.97</speed>
  <fix>3d</fix>
</trkpt>
<trkpt lat="-27.2737075" lon="151.2901862">
  <ele>372.62</ele>
  <time>2026-09-01T20:03:33Z</time>
  <course>138.31</course>
  <speed>17.698579039007623</speed>
  <fix>3d</fix>
</trkpt>
<trkpt lat="-27.2736914" lon="151.2901542">
  <ele>373.33</ele>
  <time>2026-09-01T20:03:33Z</time>
  <course>119.59</course>
  <speed>17.7</speed>
  <fix>3d</fix>
</trkpt>
<trkpt lat="-27.2737154" lon="151.2902018">
  <ele>372.04</ele>
  <time>2026-09-01T20:03:33Z</time>
  <course>139.48</course>
  <speed>17.698579039007623</speed>
  <fix>3d</fix>
</trkpt>
<trkpt lat="-27.2736914" lon="151.2901542">
  <ele>373.33</ele>
  <time>2026-09-01T20:03:33Z</time>
  <course>119.59</course>
  <speed>17.7</speed>
  <fix>3d</fix>
</trkpt>
<trkpt lat="-27.2737254" lon="151.2902155">
  <ele>371.72</ele>
  <time>2026-09-01T20:03:33Z</time>
  <course>140.58</course>
  <speed>17.513951581524942</speed>
  <fix>3d</fix>
</trkpt>
<trkpt lat="-27.2737078" lon="151.2901847">
  <ele>372.5</ele>
  <time>2026-09-01T20:03:33Z</time>
  <course>122.79</course>
  <speed>17.51</speed>
  <fix>3d</fix>
</trkpt>
<trkpt lat="-27.2737339" lon="151.2902303">
  <ele>371.29</ele>
  <time>2026-09-01T20:03:33Z</time>
  <course>141.68</course>
  <speed>17.513951581524942</speed>
  <fix>3d</fix>
</trkpt>
<trkpt lat="-27.2737078" lon="151.2901847">
  <ele>372.5</ele>
  <time>2026-09-01T20:03:33Z</time>
  <course>122.79</course>
  <speed>17.51</speed>
  <fix>3d</fix>
</trkpt>
<trkpt lat="-27.2737446" lon="151.2902432">
  <ele>371.05</ele>
  <time>2026-09-01T20:03:33Z</time>
  <course>142.76</course>
  <speed>17.404002413238167</speed>
  <fix>3d</fix>
</trkpt>
<trkpt lat="-27.2737256" lon="151.2902138">
  <ele>371.69</ele>
  <time>2026-09-01T20:03:33Z</time>
  <course>126.0</course>
  <speed>17.41</speed>
  <fix>3d</fix>
</trkpt>
<trkpt lat="-27.2737538" lon="151.2902575">
  <ele>370.64</ele>
  <time>2026-09-01T20:03:33Z</time>
  <course>143.78</course>
  <speed>17.404002413238167</speed>
  <fix>3d</fix>
</trkpt>
<trkpt lat="-27.2737256" lon="151.2902138">
  <ele>371.69</ele>
  <time>2026-09-01T20:03:33Z</time>
  <course>126.0</course>
  <speed>17.41</speed>
  <fix>3d</fix>
</trkpt>
<trkpt lat="-27.273765" lon="151.2902699">
  <ele>370.36</ele>
  <time>2026-09-01T20:03:33Z</time>
  <course>144.77</course>
  <speed>17.379623125948388</speed>
  <fix>3d</fix>
</trkpt>
<trkpt lat="-27.2737446" lon="151.2902417">
  <ele>370.93</ele>
  <time>2026-09-01T20:03:33Z</time>
  <course>129.14</course>
  <speed>17.38</speed>
  <fix>3d</fix>
</trkpt>
<trkpt lat="-27.2737748" lon="151.2902835">
  <ele>369.89</ele>
  <time>2026-09-01T20:03:33Z</time>
  <course>145.64</course>
  <speed>17.379623125948388</speed>
  <fix>3d</fix>
</trkpt>
<trkpt lat="-27.2737446" lon="151.2902417">
  <ele>370.93</ele>
  <time>2026-09-01T20:03:33Z</time>
  <course>129.14</course>
  <speed>17.38</speed>
  <fix>3d</fix>
</trkpt>
<trkpt lat="-27.2737867" lon="151.2902953">
  <ele>369.82</ele>
  <time>2026-09-01T20:03:33Z</time>
  <course>146.39</course>
  <speed>17.409494536028323</speed>
  <fix>3d</fix>
</trkpt>
<trkpt lat="-27.273765" lon="151.2902683">
  <ele>370.22</ele>
  <time>2026-09-01T20:03:33Z</time>
  <course>132.13</course>
  <speed>17.41</speed>
  <fix>3d</fix>
</trkpt>
<trkpt lat="-27.2737972" lon="151.2903083">
  <ele>369.54</ele>
  <time>2026-09-01T20:03:33Z</time>
  <course>147.17</course>
  <speed>17.409494536028323</speed>
  <fix>3d</fix>
</trkpt>
<trkpt lat="-27.273765" lon="151.2902683">
  <ele>370.22</ele>
  <time>2026-09-01T20:03:33Z</time>
  <course>132.13</course>
  <speed>17.41</speed>
  <fix>3d</fix>
</trkpt>
<trkpt lat="-27.2738094" lon="151.2903198">
  <ele>369.23</ele>
  <time>2026-09-01T20:03:33Z</time>
  <course>147.96</course>
  <speed>17.479731119213476</speed>
  <fix>3d</fix>
</trkpt>
<trkpt lat="-27.2737865" lon="151.2902939">
  <ele>369.6</ele>
  <time>2026-09-01T20:03:33Z</time>
  <course>134.85</course>
  <speed>17.48</speed>
  <fix>3d</fix>
</trkpt>
<trkpt lat="-27.2738206" lon="151.2903324">
  <ele>368.73</ele>
  <time>2026-09-01T20:03:33Z</time>
  <course>148.73</course>
  <speed>17.479731119213476</speed>
  <fix>3d</fix>
</trkpt>
<trkpt lat="-27.2737865" lon="151.2902939">
  <ele>369.6</ele>
  <time>2026-09-01T20:03:33Z</time>
  <course>134.85</course>
  <speed>17.48</speed>
  <fix>3d</fix>
</trkpt>
<trkpt lat="-27.2738331" lon="151.2903434">
  <ele>368.77</ele>
  <time>2026-09-01T20:03:33Z</time>
  <course>149.31</course>
  <speed>17.570853707205007</speed>
  <fix>3d</fix>
</trkpt>
<trkpt lat="-27.2738092" lon="151.2903185">
  <ele>369.07</ele>
  <time>2026-09-01T20:03:33Z</time>
  <course>137.22</course>
  <speed>17.58</speed>
  <fix>3d</fix>
</trkpt>
<trkpt lat="-27.2738447" lon="151.2903555">
  <ele>368.38</ele>
  <time>2026-09-01T20:03:33Z</time>
  <course>149.9</course>
  <speed>17.570853707205007</speed>
  <fix>3d</fix>
</trkpt>
<trkpt lat="-27.2738092" lon="151.2903185">
  <ele>369.07</ele>
  <time>2026-09-01T20:03:33Z</time>
  <course>137.22</course>
  <speed>17.58</speed>
  <fix>3d</fix>
</trkpt>
<trkpt lat="-27.2738576" lon="151.2903662">
  <ele>368.45</ele>
  <time>2026-09-01T20:03:33Z</time>
  <course>150.42</course>
  <speed>17.68421895363208</speed>
  <fix>3d</fix>
</trkpt>
<trkpt lat="-27.2738328" lon="151.2903422">
  <ele>368.64</ele>
  <time>2026-09-01T20:03:33Z</time>
  <course>139.25</course>
  <speed>17.69</speed>
  <fix>3d</fix>
</trkpt>
<trkpt lat="-27.2738696" lon="151.2903779">
  <ele>368.32</ele>
  <time>2026-09-01T20:03:33Z</time>
  <course>150.87</course>
  <speed>17.68421895363208</speed>
  <fix>3d</fix>
</trkpt>
<trkpt lat="-27.2738328" lon="151.2903422">
  <ele>368.64</ele>
  <time>2026-09-01T20:03:33Z</time>
  <course>139.25</course>
  <speed>17.69</speed>
  <fix>3d</fix>
</trkpt>
<trkpt lat="-27.2738828" lon="151.2903885">
  <ele>368.13</ele>
  <time>2026-09-01T20:03:33Z</time>
  <course>151.31</course>
  <speed>17.807450687844117</speed>
  <fix>3d</fix>
</trkpt>
<trkpt lat="-27.2738573" lon="151.2903652">
  <ele>368.3</ele>
  <time>2026-09-01T20:03:33Z</time>
  <course>140.91</course>
  <speed>17.81</speed>
  <fix>3d</fix>
</trkpt>
<trkpt lat="-27.2738953" lon="151.2903999">
  <ele>368.11</ele>
  <time>2026-09-01T20:03:33Z</time>
  <course>151.71</course>
  <speed>17.807450687844117</speed>
  <fix>3d</fix>
</trkpt>
<trkpt lat="-27.2738573" lon="151.2903652">
  <ele>368.3</ele>
  <time>2026-09-01T20:03:33Z</time>
  <course>140.91</course>
  <speed>17.81</speed>
  <fix>3d</fix>
</trkpt>
<trkpt lat="-27.2739087" lon="151.2904104">
  <ele>367.95</ele>
  <time>2026-09-01T20:03:33Z</time>
  <course>152.04</course>
  <speed>17.92800323516258</speed>
  <fix>3d</fix>
</trkpt>
<trkpt lat="-27.2738825" lon="151.2903876">
  <ele>368.05</ele>
  <time>2026-09-01T20:03:33Z</time>
  <course>142.27</course>
  <speed>17.93</speed>
  <fix>3d</fix>
</trkpt>
<trkpt lat="-27.2739215" lon="151.2904215">
  <ele>367.89</ele>
  <time>2026-09-01T20:03:33Z</time>
  <course>152.37</course>
  <speed>17.92800323516258</speed>
  <fix>3d</fix>
</trkpt>
<trkpt lat="-27.2738825" lon="151.2903876">
  <ele>368.05</ele>
  <time>2026-09-01T20:03:33Z</time>
  <course>142.27</course>
  <speed>17.93</speed>
  <fix>3d</fix>
</trkpt>
<trkpt lat="-27.2739351" lon="151.2904319">
  <ele>367.9</ele>
  <time>2026-09-01T20:03:33Z</time>
  <course>152.75</course>
  <speed>18.04820489688656</speed>
  <fix>3d</fix>
</trkpt>
<trkpt lat="-27.2739083" lon="151.2904095">
  <ele>367.87</ele>
  <time>2026-09-01T20:03:33Z</time>
  <course>143.39</course>
  <speed>18.04</speed>
  <fix>3d</fix>
</trkpt>
<trkpt lat="-27.2739481" lon="151.2904427">
  <ele>367.57</ele>
  <time>2026-09-01T20:03:33Z</time>
  <course>152.98</course>
  <speed>18.04820489688656</speed>
  <fix>3d</fix>
</trkpt>
<trkpt lat="-27.2739083" lon="151.2904095">
  <ele>367.87</ele>
  <time>2026-09-01T20:03:33Z</time>
  <course>143.39</course>
  <speed>18.04</speed>
  <fix>3d</fix>
</trkpt>
<trkpt lat="-27.2739617" lon="151.2904531">
  <ele>367.75</ele>
  <time>2026-09-01T20:03:33Z</time>
  <course>153.3</course>
  <speed>18.135856748441746</speed>
  <fix>3d</fix>
</trkpt>
<trkpt lat="-27.2739345" lon="151.2904311">
  <ele>367.76</ele>
  <time>2026-09-01T20:03:33Z</time>
  <course>144.32</course>
  <speed>18.14</speed>
  <fix>3d</fix>
</trkpt>
<trkpt lat="-27.273975" lon="151.2904638">
  <ele>367.75</ele>
  <time>2026-09-01T20:03:33Z</time>
  <course>153.59</course>
  <speed>18.135856748441746</speed>
  <fix>3d</fix>
</trkpt>
<trkpt lat="-27.2739345" lon="151.2904311">
  <ele>367.76</ele>
  <time>2026-09-01T20:03:33Z</time>
  <course>144.32</course>
  <speed>18.14</speed>
  <fix>3d</fix>
</trkpt>
<trkpt lat="-27.273989" lon="151.2904741">
  <ele>367.59</ele>
  <time>2026-09-01T20:03:33Z</time>
  <course>153.84</course>
  <speed>18.2173159384142</speed>
  <fix>3d</fix>
</trkpt>
<trkpt lat="-27.2739612" lon="151.2904524">
  <ele>367.72</ele>
  <time>2026-09-01T20:03:33Z</time>
  <course>145.13</course>
  <speed>18.22</speed>
  <fix>3d</fix>
</trkpt>
<trkpt lat="-27.2740024" lon="151.2904847">
  <ele>367.7</ele>
  <time>2026-09-01T20:03:33Z</time>
  <course>154.14</course>
  <speed>18.2173159384142</speed>
  <fix>3d</fix>
</trkpt>
<trkpt lat="-27.2739612" lon="151.2904524">
  <ele>367.72</ele>
  <time>2026-09-01T20:03:33Z</time>
  <course>145.13</course>
  <speed>18.22</speed>
  <fix>3d</fix>
</trkpt>
<trkpt lat="-27.2740164" lon="151.2904947">
  <ele>367.84</ele>
  <time>2026-09-01T20:03:33Z</time>
  <course>154.41</course>
  <speed>18.29166476841296</speed>
  <fix>3d</fix>
</trkpt>
<trkpt lat="-27.2739883" lon="151.2904733">
  <ele>367.72</ele>
  <time>2026-09-01T20:03:33Z</time>
  <course>145.91</course>
  <speed>18.29</speed>
  <fix>3d</fix>
</trkpt>
<trkpt lat="-27.27403" lon="151.2905051">
  <ele>367.76</ele>
  <time>2026-09-01T20:03:33Z</time>
  <course>154.61</course>
  <speed>18.29166476841296</speed>
  <fix>3d</fix>
</trkpt>
<trkpt lat="-27.2739883" lon="151.2904733">
  <ele>367.72</ele>
  <time>2026-09-01T20:03:33Z</time>
  <course>145.91</course>
  <speed>18.29</speed>
  <fix>3d</fix>
</trkpt>
<trkpt lat="-27.2740442" lon="151.2905148">
  <ele>367.65</ele>
  <time>2026-09-01T20:03:33Z</time>
  <course>154.87</course>
  <speed>18.33061373767938</speed>
  <fix>3d</fix>
</trkpt>
<trkpt lat="-27.2740157" lon="151.2904938">
  <ele>367.77</ele>
  <time>2026-09-01T20:03:33Z</time>
  <course>146.75</course>
  <speed>18.33</speed>
  <fix>3d</fix>
</trkpt>
<trkpt lat="-27.2740579" lon="151.2905249">
  <ele>368.08</ele>
  <time>2026-09-01T20:03:33Z</time>
  <course>155.19</course>
  <speed>18.33061373767938</speed>
  <fix>3d</fix>
</trkpt>
<trkpt lat="-27.2740157" lon="151.2904938">
  <ele>367.77</ele>
  <time>2026-09-01T20:03:33Z</time>
  <course>146.75</course>
  <speed>18.33</speed>
  <fix>3d</fix>
</trkpt>
<trkpt lat="-27.2740722" lon="151.2905344">
  <ele>367.81</ele>
  <time>2026-09-01T20:03:33Z</time>
  <course>155.52</course>
  <speed>18.343557452141066</speed>
  <fix>3d</fix>
</trkpt>
<trkpt lat="-27.2740434" lon="151.2905139">
  <ele>367.87</ele>
  <time>2026-09-01T20:03:33Z</time>
  <course>147.65</course>
  <speed>18.35</speed>
  <fix>3d</fix>
</trkpt>
<trkpt lat="-27.2740861" lon="151.2905443">
  <ele>368.12</ele>
  <time>2026-09-01T20:03:33Z</time>
  <course>155.83</course>
  <speed>18.343557452141066</speed>
  <fix>3d</fix>
</trkpt>
<trkpt lat="-27.2740434" lon="151.2905139">
  <ele>367.87</ele>
  <time>2026-09-01T20:03:33Z</time>
  <course>147.65</course>
  <speed>18.35</speed>
  <fix>3d</fix>
</trkpt>
<trkpt lat="-27.2741005" lon="151.2905533">
  <ele>368.05</ele>
  <time>2026-09-01T20:03:33Z</time>
  <course>156.16</course>
  <speed>18.33519293599061</speed>
  <fix>3d</fix>
</trkpt>
<trkpt lat="-27.2740714" lon="151.2905334">
  <ele>368.0</ele>
  <time>2026-09-01T20:03:33Z</time>
  <course>148.69</course>
  <speed>18.34</speed>
  <fix>3d</fix>
</trkpt>
<trkpt lat="-27.2741146" lon="151.2905629">
  <ele>368.15</ele>
  <time>2026-09-01T20:03:33Z</time>
  <course>156.61</course>
  <speed>18.33519293599061</speed>
  <fix>3d</fix>
</trkpt>
<trkpt lat="-27.2740714" lon="151.2905334">
  <ele>368.0</ele>
  <time>2026-09-01T20:03:33Z</time>
  <course>148.69</course>
  <speed>18.34</speed>
  <fix>3d</fix>
</trkpt>
<trkpt lat="-27.2741291" lon="151.2905714">
  <ele>368.32</ele>
  <time>2026-09-01T20:03:33Z</time>
  <course>157.01</course>
  <speed>18.294201267068207</speed>
  <fix>3d</fix>
</trkpt>
<trkpt lat="-27.2740997" lon="151.2905523">
  <ele>368.15</ele>
  <time>2026-09-01T20:03:33Z</time>
  <course>149.92</course>
  <speed>18.3</speed>
  <fix>3d</fix>
</trkpt>
<trkpt lat="-27.2741433" lon="151.2905807">
  <ele>368.18</ele>
  <time>2026-09-01T20:03:33Z</time>
  <course>157.51</course>
  <speed>18.294201267068207</speed>
  <fix>3d</fix>
</trkpt>
<trkpt lat="-27.2740997" lon="151.2905523">
  <ele>368.15</ele>
  <time>2026-09-01T20:03:33Z</time>
  <course>149.92</course>
  <speed>18.3</speed>
  <fix>3d</fix>
</trkpt>
<trkpt lat="-27.274158" lon="151.2905887">
  <ele>368.45</ele>
  <time>2026-09-01T20:03:33Z</time>
  <course>158.06</course>
  <speed>18.235487380380047</speed>
  <fix>3d</fix>
</trkpt>
<trkpt lat="-27.2741283" lon="151.2905705">
  <ele>368.33</ele>
  <time>2026-09-01T20:03:33Z</time>
  <course>151.37</course>
  <speed>18.24</speed>
  <fix>3d</fix>
</trkpt>
<trkpt lat="-27.2741724" lon="151.2905976">
  <ele>368.6</ele>
  <time>2026-09-01T20:03:33Z</time>
  <course>158.55</course>
  <speed>18.235487380380047</speed>
  <fix>3d</fix>
</trkpt>
<trkpt lat="-27.2741283" lon="151.2905705">
  <ele>368.33</ele>
  <time>2026-09-01T20:03:33Z</time>
  <course>151.37</course>
  <speed>18.24</speed>
  <fix>3d</fix>
</trkpt>
<trkpt lat="-27.2741873" lon="151.2906048">
  <ele>368.7</ele>
  <time>2026-09-01T20:03:33Z</time>
  <course>159.08</course>
  <speed>18.152691260526634</speed>
  <fix>3d</fix>
</trkpt>
<trkpt lat="-27.2741572" lon="151.2905877">
  <ele>368.51</ele>
  <time>2026-09-01T20:03:33Z</time>
  <course>153.09</course>
  <speed>18.16</speed>
  <fix>3d</fix>
</trkpt>
<trkpt lat="-27.2742018" lon="151.2906131">
  <ele>368.96</ele>
  <time>2026-09-01T20:03:33Z</time>
  <course>159.69</course>
  <speed>18.152691260526634</speed>
  <fix>3d</fix>
</trkpt>
<trkpt lat="-27.2741572" lon="151.2905877">
  <ele>368.51</ele>
  <time>2026-09-01T20:03:33Z</time>
  <course>153.09</course>
  <speed>18.16</speed>
  <fix>3d</fix>
</trkpt>
<trkpt lat="-27.2742168" lon="151.2906195">
  <ele>368.71</ele>
  <time>2026-09-01T20:03:33Z</time>
  <course>160.36</course>
  <speed>18.052395962863212</speed>
  <fix>3d</fix>
</trkpt>
<trkpt lat="-27.2741865" lon="151.2906037">
  <ele>368.71</ele>
  <time>2026-09-01T20:03:33Z</time>
  <course>155.05</course>
  <speed>18.06</speed>
  <fix>3d</fix>
</trkpt>
<trkpt lat="-27.2742315" lon="151.2906272">
  <ele>369.05</ele>
  <time>2026-09-01T20:03:33Z</time>
  <course>161.11</course>
  <speed>18.052395962863212</speed>
  <fix>3d</fix>
</trkpt>
<trkpt lat="-27.2741865" lon="151.2906037">
  <ele>368.71</ele>
  <time>2026-09-01T20:03:33Z</time>
  <course>155.05</course>
  <speed>18.06</speed>
  <fix>3d</fix>
</trkpt>
<trkpt lat="-27.2742465" lon="151.2906327">
  <ele>369.07</ele>
  <time>2026-09-01T20:03:33Z</time>
  <course>161.84</course>
  <speed>17.935509471436824</speed>
  <fix>3d</fix>
</trkpt>
<trkpt lat="-27.274216" lon="151.2906183">
  <ele>368.94</ele>
  <time>2026-09-01T20:03:33Z</time>
  <course>157.16</course>
  <speed>17.94</speed>
  <fix>3d</fix>
</trkpt>
<trkpt lat="-27.2742614" lon="151.2906398">
  <ele>369.25</ele>
  <time>2026-09-01T20:03:33Z</time>
  <course>162.57</course>
  <speed>17.935509471436824</speed>
  <fix>3d</fix>
</trkpt>
<trkpt lat="-27.274216" lon="151.2906183">
  <ele>368.94</ele>
  <time>2026-09-01T20:03:33Z</time>
  <course>157.16</course>
  <speed>17.94</speed>
  <fix>3d</fix>
</trkpt>
<trkpt lat="-27.2742769" lon="151.2906447">
  <ele>369.5</ele>
  <time>2026-09-01T20:03:33Z</time>
  <course>163.32</course>
  <speed>17.812492807016092</speed>
  <fix>3d</fix>
</trkpt>
<trkpt lat="-27.2742459" lon="151.2906317">
  <ele>369.16</ele>
  <time>2026-09-01T20:03:33Z</time>
  <course>159.44</course>
  <speed>17.81</speed>
  <fix>3d</fix>
</trkpt>
<trkpt lat="-27.2742919" lon="151.2906511">
  <ele>369.42</ele>
  <time>2026-09-01T20:03:33Z</time>
  <course>164.08</course>
  <speed>17.812492807016092</speed>
  <fix>3d</fix>
</trkpt>
<trkpt lat="-27.2742459" lon="151.2906317">
  <ele>369.16</ele>
  <time>2026-09-01T20:03:33Z</time>
  <course>159.44</course>
  <speed>17.81</speed>
  <fix>3d</fix>
</trkpt>
<trkpt lat="-27.2743073" lon="151.2906551">
  <ele>369.48</ele>
  <time>2026-09-01T20:03:33Z</time>
  <course>164.87</course>
  <speed>17.69639511312968</speed>
  <fix>3d</fix>
</trkpt>
<trkpt lat="-27.2742761" lon="151.2906436">
  <ele>369.4</ele>
  <time>2026-09-01T20:03:33Z</time>
  <course>161.88</course>
  <speed>17.7</speed>
  <fix>3d</fix>
</trkpt>
<trkpt lat="-27.2743225" lon="151.2906606">
  <ele>369.83</ele>
  <time>2026-09-01T20:03:33Z</time>
  <course>165.76</course>
  <speed>17.69639511312968</speed>
  <fix>3d</fix>
</trkpt>
<trkpt lat="-27.2742761" lon="151.2906436">
  <ele>369.4</ele>
  <time>2026-09-01T20:03:33Z</time>
  <course>161.88</course>
  <speed>17.7</speed>
  <fix>3d</fix>
</trkpt>
<trkpt lat="-27.2743379" lon="151.2906638">
  <ele>369.86</ele>
  <time>2026-09-01T20:03:33Z</time>
  <course>166.63</course>
  <speed>17.57724950041957</speed>
  <fix>3d</fix>
</trkpt>
<trkpt lat="-27.2743064" lon="151.290654">
  <ele>369.61</ele>
  <time>2026-09-01T20:03:33Z</time>
  <course>164.51</course>
  <speed>17.58</speed>
  <fix>3d</fix>
</trkpt>
<trkpt lat="-27.2743531" lon="151.2906685">
  <ele>369.73</ele>
  <time>2026-09-01T20:03:33Z</time>
  <course>167.49</course>
  <speed>17.57724950041957</speed>
  <fix>3d</fix>
</trkpt>
<trkpt lat="-27.2743064" lon="151.290654">
  <ele>369.61</ele>
  <time>2026-09-01T20:03:33Z</time>
  <course>164.51</course>
  <speed>17.58</speed>
  <fix>3d</fix>
</trkpt>
<trkpt lat="-27.2743686" lon="151.2906706">
  <ele>369.86</ele>
  <time>2026-09-01T20:03:33Z</time>
  <course>168.38</course>
  <speed>17.467318054011614</speed>
  <fix>3d</fix>
</trkpt>
<trkpt lat="-27.274337" lon="151.2906626">
  <ele>369.83</ele>
  <time>2026-09-01T20:03:33Z</time>
  <course>167.28</course>
  <speed>17.47</speed>
  <fix>3d</fix>
</trkpt>
<trkpt lat="-27.274384" lon="151.2906745">
  <ele>370.13</ele>
  <time>2026-09-01T20:03:33Z</time>
  <course>169.38</course>
  <speed>17.467318054011614</speed>
  <fix>3d</fix>
</trkpt>
<trkpt lat="-27.274337" lon="151.2906626">
  <ele>369.83</ele>
  <time>2026-09-01T20:03:33Z</time>
  <course>167.28</course>
  <speed>17.47</speed>
  <fix>3d</fix>
</trkpt>
<trkpt lat="-27.2743994" lon="151.2906756">
  <ele>370.07</ele>
  <time>2026-09-01T20:03:33Z</time>
  <course>170.37</course>
  <speed>17.356004724590278</speed>
  <fix>3d</fix>
</trkpt>
<trkpt lat="-27.2743676" lon="151.2906694">
  <ele>370.04</ele>
  <time>2026-09-01T20:03:33Z</time>
  <course>170.15</course>
  <speed>17.36</speed>
  <fix>3d</fix>
</trkpt>
<trkpt lat="-27.2744147" lon="151.2906786">
  <ele>370.21</ele>
  <time>2026-09-01T20:03:33Z</time>
  <course>171.32</course>
  <speed>17.356004724590278</speed>
  <fix>3d</fix>
</trkpt>
<trkpt lat="-27.2743676" lon="151.2906694">
  <ele>370.04</ele>
  <time>2026-09-01T20:03:33Z</time>
  <course>170.15</course>
  <speed>17.36</speed>
  <fix>3d</fix>
</trkpt>
<trkpt lat="-27.2744302" lon="151.2906789">
  <ele>370.5</ele>
  <time>2026-09-01T20:03:33Z</time>
  <course>172.24</course>
  <speed>17.264544592893262</speed>
  <fix>3d</fix>
</trkpt>
<trkpt lat="-27.2743984" lon="151.2906746">
  <ele>370.24</ele>
  <time>2026-09-01T20:03:33Z</time>
  <course>173.1</course>
  <speed>17.27</speed>
  <fix>3d</fix>
</trkpt>
<trkpt lat="-27.2744456" lon="151.290681">
  <ele>370.34</ele>
  <time>2026-09-01T20:03:33Z</time>
  <course>173.24</course>
  <speed>17.264544592893262</speed>
  <fix>3d</fix>
</trkpt>
<trkpt lat="-27.2743984" lon="151.2906746">
  <ele>370.24</ele>
  <time>2026-09-01T20:03:33Z</time>
  <course>173.1</course>
  <speed>17.27</speed>
  <fix>3d</fix>
</trkpt>
<trkpt lat="-27.2744611" lon="151.2906802">
  <ele>370.76</ele>
  <time>2026-09-01T20:03:33Z</time>
  <course>174.23</course>
  <speed>17.187847451033534</speed>
  <fix>3d</fix>
</trkpt>
<trkpt lat="-27.2744292" lon="151.2906778">
  <ele>370.43</ele>
  <time>2026-09-01T20:03:33Z</time>
  <course>176.17</course>
  <speed>17.19</speed>
  <fix>3d</fix>
</trkpt>
<trkpt lat="-27.2744765" lon="151.2906813">
  <ele>370.47</ele>
  <time>2026-09-01T20:03:33Z</time>
  <course>175.25</course>
  <speed>17.187847451033534</speed>
  <fix>3d</fix>
</trkpt>
<trkpt lat="-27.2744292" lon="151.2906778">
  <ele>370.43</ele>
  <time>2026-09-01T20:03:33Z</time>
  <course>176.17</course>
  <speed>17.19</speed>
  <fix>3d</fix>
</trkpt>
<trkpt lat="-27.2744918" lon="151.2906796">
  <ele>370.92</ele>
  <time>2026-09-01T20:03:33Z</time>
  <course>176.26</course>
  <speed>17.13116750253759</speed>
  <fix>3d</fix>
</trkpt>
<trkpt lat="-27.27446" lon="151.2906792">
  <ele>370.6</ele>
  <time>2026-09-01T20:03:33Z</time>
  <course>179.31</course>
  <speed>17.13</speed>
  <fix>3d</fix>
</trkpt>
<trkpt lat="-27.2745072" lon="151.2906798">
  <ele>370.77</ele>
  <time>2026-09-01T20:03:33Z</time>
  <course>177.27</course>
  <speed>17.13116750253759</speed>
  <fix>3d</fix>
</trkpt>
<trkpt lat="-27.27446" lon="151.2906792">
  <ele>370.6</ele>
  <time>2026-09-01T20:03:33Z</time>
  <course>179.31</course>
  <speed>17.13</speed>
  <fix>3d</fix>
</trkpt>
<trkpt lat="-27.2745222" lon="151.2906771">
  <ele>371.03</ele>
  <time>2026-09-01T20:03:33Z</time>
  <course>178.24</course>
  <speed>17.08603230712151</speed>
  <fix>3d</fix>
</trkpt>
<trkpt lat="-27.2744907" lon="151.2906786">
  <ele>370.77</ele>
  <time>2026-09-01T20:03:33Z</time>
  <course>182.5</course>
  <speed>17.08</speed>
  <fix>3d</fix>
</trkpt>
<trkpt lat="-27.2745376" lon="151.2906763">
  <ele>370.99</ele>
  <time>2026-09-01T20:03:33Z</time>
  <course>179.2</course>
  <speed>17.08603230712151</speed>
  <fix>3d</fix>
</trkpt>
<trkpt lat="-27.2744907" lon="151.2906786">
  <ele>370.77</ele>
  <time>2026-09-01T20:03:33Z</time>
  <course>182.5</course>
  <speed>17.08</speed>
  <fix>3d</fix>
</trkpt>
<trkpt lat="-27.2745527" lon="151.2906727">
  <ele>370.91</ele>
  <time>2026-09-01T20:03:33Z</time>
  <course>180.18</course>
  <speed>17.053943825402968</speed>
  <fix>3d</fix>
</trkpt>
<trkpt lat="-27.2745213" lon="151.2906762">
  <ele>370.91</ele>
  <time>2026-09-01T20:03:33Z</time>
  <course>185.7</course>
  <speed>17.05</speed>
  <fix>3d</fix>
</trkpt>
<trkpt lat="-27.2745679" lon="151.290671">
  <ele>371.19</ele>
  <time>2026-09-01T20:03:33Z</time>
  <course>181.26</course>
  <speed>17.053943825402968</speed>
  <fix>3d</fix>
</trkpt>
<trkpt lat="-27.2745213" lon="151.2906762">
  <ele>370.91</ele>
  <time>2026-09-01T20:03:33Z</time>
  <course>185.7</course>
  <speed>17.05</speed>
  <fix>3d</fix>
</trkpt>
<trkpt lat="-27.2745827" lon="151.2906665">
  <ele>371.26</ele>
  <time>2026-09-01T20:03:34Z</time>
  <course>182.23</course>
  <speed>17.042593699317013</speed>
  <fix>3d</fix>
</trkpt>
<trkpt lat="-27.2745516" lon="151.2906719">
  <ele>371.06</ele>
  <time>2026-09-01T20:03:34Z</time>
  <course>188.86</course>
  <speed>17.04</speed>
  <fix>3d</fix>
</trkpt>
<trkpt lat="-27.2745978" lon="151.2906638">
  <ele>371.18</ele>
  <time>2026-09-01T20:03:34Z</time>
  <course>183.21</course>
  <speed>17.042593699317013</speed>
  <fix>3d</fix>
</trkpt>
<trkpt lat="-27.2745516" lon="151.2906719">
  <ele>371.06</ele>
  <time>2026-09-01T20:03:34Z</time>
  <course>188.86</course>
  <speed>17.04</speed>
  <fix>3d</fix>
</trkpt>
<trkpt lat="-27.2746126" lon="151.2906583">
  <ele>371.07</ele>
  <time>2026-09-01T20:03:34Z</time>
  <course>184.2</course>
  <speed>17.053589065061935</speed>
  <fix>3d</fix>
</trkpt>
<trkpt lat="-27.2745818" lon="151.2906656">
  <ele>371.19</ele>
  <time>2026-09-01T20:03:34Z</time>
  <course>192.01</course>
  <speed>17.06</speed>
  <fix>3d</fix>
</trkpt>
<trkpt lat="-27.2746278" lon="151.2906546">
  <ele>371.24</ele>
  <time>2026-09-01T20:03:34Z</time>
  <course>185.2</course>
  <speed>17.053589065061935</speed>
  <fix>3d</fix>
</trkpt>
<trkpt lat="-27.2745818" lon="151.2906656">
  <ele>371.19</ele>
  <time>2026-09-01T20:03:34Z</time>
  <course>192.01</course>
  <speed>17.06</speed>
  <fix>3d</fix>
</trkpt>
<trkpt lat="-27.2746423" lon="151.2906482">
  <ele>371.32</ele>
  <time>2026-09-01T20:03:34Z</time>
  <course>186.2</course>
  <speed>17.09215024506864</speed>
  <fix>3d</fix>
</trkpt>
<trkpt lat="-27.2746117" lon="151.2906575">
  <ele>371.29</ele>
  <time>2026-09-01T20:03:34Z</time>
  <course>195.12</course>
  <speed>17.09</speed>
  <fix>3d</fix>
</trkpt>
<trkpt lat="-27.2746572" lon="151.2906437">
  <ele>371.3</ele>
  <time>2026-09-01T20:03:34Z</time>
  <course>187.25</course>
  <speed>17.09215024506864</speed>
  <fix>3d</fix>
</trkpt>
<trkpt lat="-27.2746117" lon="151.2906575">
  <ele>371.29</ele>
  <time>2026-09-01T20:03:34Z</time>
  <course>195.12</course>
  <speed>17.09</speed>
  <fix>3d</fix>
</trkpt>
<trkpt lat="-27.2746715" lon="151.2906364">
  <ele>371.6</ele>
  <time>2026-09-01T20:03:34Z</time>
  <course>188.29</course>
  <speed>17.149160329298926</speed>
  <fix>3d</fix>
</trkpt>
<trkpt lat="-27.2746412" lon="151.2906476">
  <ele>371.38</ele>
  <time>2026-09-01T20:03:34Z</time>
  <course>198.23</course>
  <speed>17.15</speed>
  <fix>3d</fix>
</trkpt>
<trkpt lat="-27.2746861" lon="151.290631">
  <ele>371.27</ele>
  <time>2026-09-01T20:03:34Z</time>
  <course>189.31</course>
  <speed>17.149160329298926</speed>
  <fix>3d</fix>
</trkpt>
<trkpt lat="-27.2746412" lon="151.2906476">
  <ele>371.38</ele>
  <time>2026-09-01T20:03:34Z</time>
  <course>198.23</course>
  <speed>17.15</speed>
  <fix>3d</fix>
</trkpt>
<trkpt lat="-27.2747" lon="151.2906227">
  <ele>371.65</ele>
  <time>2026-09-01T20:03:34Z</time>
  <course>190.38</course>
  <speed>17.23487452811885</speed>
  <fix>3d</fix>
</trkpt>
<trkpt lat="-27.2746702" lon="151.2906358">
  <ele>371.45</ele>
  <time>2026-09-01T20:03:34Z</time>
  <course>201.39</course>
  <speed>17.24</speed>
  <fix>3d</fix>
</trkpt>
<trkpt lat="-27.2747144" lon="151.2906163">
  <ele>371.35</ele>
  <time>2026-09-01T20:03:34Z</time>
  <course>191.43</course>
  <speed>17.23487452811885</speed>
  <fix>3d</fix>
</trkpt>
<trkpt lat="-27.2746702" lon="151.2906358">
  <ele>371.45</ele>
  <time>2026-09-01T20:03:34Z</time>
  <course>201.39</course>
  <speed>17.24</speed>
  <fix>3d</fix>
</trkpt>
<trkpt lat="-27.2747281" lon="151.290607">
  <ele>371.62</ele>
  <time>2026-09-01T20:03:34Z</time>
  <course>192.46</course>
  <speed>17.344200759908194</speed>
  <fix>3d</fix>
</trkpt>
<trkpt lat="-27.2746988" lon="151.2906221">
  <ele>371.52</ele>
  <time>2026-09-01T20:03:34Z</time>
  <course>204.59</course>
  <speed>17.34</speed>
  <fix>3d</fix>
</trkpt>
<trkpt lat="-27.2747422" lon="151.2905997">
  <ele>371.64</ele>
  <time>2026-09-01T20:03:34Z</time>
  <course>193.46</course>
  <speed>17.344200759908194</speed>
  <fix>3d</fix>
</trkpt>
<trkpt lat="-27.2746988" lon="151.2906221">
  <ele>371.52</ele>
  <time>2026-09-01T20:03:34Z</time>
  <course>204.59</course>
  <speed>17.34</speed>
  <fix>3d</fix>
</trkpt>
<trkpt lat="-27.2747556" lon="151.2905896">
  <ele>371.66</ele>
  <time>2026-09-01T20:03:34Z</time>
  <course>194.5</course>
  <speed>17.458505090642785</speed>
  <fix>3d</fix>
</trkpt>
<trkpt lat="-27.2747269" lon="151.2906066">
  <ele>371.58</ele>
  <time>2026-09-01T20:03:34Z</time>
  <course>207.76</course>
  <speed>17.47</speed>
  <fix>3d</fix>
</trkpt>
<trkpt lat="-27.2747695" lon="151.2905814">
  <ele>371.72</ele>
  <time>2026-09-01T20:03:34Z</time>
  <course>195.6</course>
  <speed>17.458505090642785</speed>
  <fix>3d</fix>
</trkpt>
<trkpt lat="-27.2747269" lon="151.2906066">
  <ele>371.58</ele>
  <time>2026-09-01T20:03:34Z</time>
  <course>207.76</course>
  <speed>17.47</speed>
  <fix>3d</fix>
</trkpt>
<trkpt lat="-27.2747823" lon="151.2905704">
  <ele>371.72</ele>
  <time>2026-09-01T20:03:34Z</time>
  <course>196.69</course>
  <speed>17.607773851341914</speed>
  <fix>3d</fix>
</trkpt>
<trkpt lat="-27.2747543" lon="151.2905893">
  <ele>371.63</ele>
  <time>2026-09-01T20:03:34Z</time>
  <course>210.9</course>
  <speed>17.61</speed>
  <fix>3d</fix>
</trkpt>
<trkpt lat="-27.2747959" lon="151.2905613">
  <ele>371.82</ele>
  <time>2026-09-01T20:03:34Z</time>
  <course>197.74</course>
  <speed>17.607773851341914</speed>
  <fix>3d</fix>
</trkpt>
<trkpt lat="-27.2747543" lon="151.2905893">
  <ele>371.63</ele>
  <time>2026-09-01T20:03:34Z</time>
  <course>210.9</course>
  <speed>17.61</speed>
  <fix>3d</fix>
</trkpt>
<trkpt lat="-27.2748084" lon="151.2905493">
  <ele>371.66</ele>
  <time>2026-09-01T20:03:34Z</time>
  <course>198.8</course>
  <speed>17.759127230807263</speed>
  <fix>3d</fix>
</trkpt>
<trkpt lat="-27.2747811" lon="151.2905701">
  <ele>371.67</ele>
  <time>2026-09-01T20:03:34Z</time>
  <course>214.08</course>
  <speed>17.77</speed>
  <fix>3d</fix>
</trkpt>
<trkpt lat="-27.2748215" lon="151.2905394">
  <ele>371.59</ele>
  <time>2026-09-01T20:03:34Z</time>
  <course>199.96</course>
  <speed>17.759127230807263</speed>
  <fix>3d</fix>
</trkpt>
<trkpt lat="-27.2747811" lon="151.2905701">
  <ele>371.67</ele>
  <time>2026-09-01T20:03:34Z</time>
  <course>214.08</course>
  <speed>17.77</speed>
  <fix>3d</fix>
</trkpt>
<trkpt lat="-27.2748336" lon="151.2905264">
  <ele>371.78</ele>
  <time>2026-09-01T20:03:34Z</time>
  <course>201.07</course>
  <speed>17.940401333303555</speed>
  <fix>3d</fix>
</trkpt>
<trkpt lat="-27.2748072" lon="151.290549">
  <ele>371.72</ele>
  <time>2026-09-01T20:03:34Z</time>
  <course>217.25</course>
  <speed>17.95</speed>
  <fix>3d</fix>
</trkpt>
<trkpt lat="-27.2748464" lon="151.2905154">
  <ele>371.85</ele>
  <time>2026-09-01T20:03:34Z</time>
  <course>202.18</course>
  <speed>17.940401333303555</speed>
  <fix>3d</fix>
</trkpt>
<trkpt lat="-27.2748072" lon="151.290549">
  <ele>371.72</ele>
  <time>2026-09-01T20:03:34Z</time>
  <course>217.25</course>
  <speed>17.95</speed>
  <fix>3d</fix>
</trkpt>
<trkpt lat="-27.2748579" lon="151.2905016">
  <ele>371.87</ele>
  <time>2026-09-01T20:03:34Z</time>
  <course>203.32</course>
  <speed>18.152831735021397</speed>
  <fix>3d</fix>
</trkpt>
<trkpt lat="-27.2748324" lon="151.2905261">
  <ele>371.75</ele>
  <time>2026-09-01T20:03:34Z</time>
  <course>220.4</course>
  <speed>18.16</speed>
  <fix>3d</fix>
</trkpt>
<trkpt lat="-27.2748704" lon="151.2904897">
  <ele>371.7</ele>
  <time>2026-09-01T20:03:34Z</time>
  <course>204.43</course>
  <speed>18.152831735021397</speed>
  <fix>3d</fix>
</trkpt>
<trkpt lat="-27.2748324" lon="151.2905261">
  <ele>371.75</ele>
  <time>2026-09-01T20:03:34Z</time>
  <course>220.4</course>
  <speed>18.16</speed>
  <fix>3d</fix>
</trkpt>
<trkpt lat="-27.2748814" lon="151.2904749">
  <ele>371.93</ele>
  <time>2026-09-01T20:03:34Z</time>
  <course>205.6</course>
  <speed>18.390345293115082</speed>
  <fix>3d</fix>
</trkpt>
<trkpt lat="-27.2748568" lon="151.2905013">
  <ele>371.78</ele>
  <time>2026-09-01T20:03:34Z</time>
  <course>223.61</course>
  <speed>18.39</speed>
  <fix>3d</fix>
</trkpt>
<trkpt lat="-27.2748934" lon="151.2904621">
  <ele>371.89</ele>
  <time>2026-09-01T20:03:34Z</time>
  <course>206.84</course>
  <speed>18.390345293115082</speed>
  <fix>3d</fix>
</trkpt>
<trkpt lat="-27.2748568" lon="151.2905013">
  <ele>371.78</ele>
  <time>2026-09-01T20:03:34Z</time>
  <course>223.61</course>
  <speed>18.39</speed>
  <fix>3d</fix>
</trkpt>
<trkpt lat="-27.2749039" lon="151.2904464">
  <ele>372.01</ele>
  <time>2026-09-01T20:03:34Z</time>
  <course>208.05</course>
  <speed>18.641955369542114</speed>
  <fix>3d</fix>
</trkpt>
<trkpt lat="-27.2748803" lon="151.2904747">
  <ele>371.82</ele>
  <time>2026-09-01T20:03:34Z</time>
  <course>226.84</course>
  <speed>18.65</speed>
  <fix>3d</fix>
</trkpt>
<trkpt lat="-27.2749153" lon="151.2904327">
  <ele>371.87</ele>
  <time>2026-09-01T20:03:34Z</time>
  <course>209.26</course>
  <speed>18.641955369542114</speed>
  <fix>3d</fix>
</trkpt>
<trkpt lat="-27.2748803" lon="151.2904747">
  <ele>371.82</ele>
  <time>2026-09-01T20:03:34Z</time>
  <course>226.84</course>
  <speed>18.65</speed>
  <fix>3d</fix>
</trkpt>
<trkpt lat="-27.2749252" lon="151.290416">
  <ele>371.89</ele>
  <time>2026-09-01T20:03:34Z</time>
  <course>210.4</course>
  <speed>18.918765815982816</speed>
  <fix>3d</fix>
</trkpt>
<trkpt lat="-27.2749027" lon="151.2904463">
  <ele>371.86</ele>
  <time>2026-09-01T20:03:34Z</time>
  <course>230.09</course>
  <speed>18.92</speed>
  <fix>3d</fix>
</trkpt>
<trkpt lat="-27.2749361" lon="151.2904013">
  <ele>372.05</ele>
  <time>2026-09-01T20:03:34Z</time>
  <course>211.58</course>
  <speed>18.918765815982816</speed>
  <fix>3d</fix>
</trkpt>
<trkpt lat="-27.2749027" lon="151.2904463">
  <ele>371.86</ele>
  <time>2026-09-01T20:03:34Z</time>
  <course>230.09</course>
  <speed>18.92</speed>
  <fix>3d</fix>
</trkpt>
<trkpt lat="-27.2749452" lon="151.2903839">
  <ele>371.89</ele>
  <time>2026-09-01T20:03:34Z</time>
  <course>212.84</course>
  <speed>19.21610002055568</speed>
  <fix>3d</fix>
</trkpt>
<trkpt lat="-27.2749239" lon="151.2904161">
  <ele>371.9</ele>
  <time>2026-09-01T20:03:34Z</time>
  <course>233.32</course>
  <speed>19.22</speed>
  <fix>3d</fix>
</trkpt>
<trkpt lat="-27.2749555" lon="151.2903683">
  <ele>371.8</ele>
  <time>2026-09-01T20:03:34Z</time>
  <course>214.12</course>
  <speed>19.21610002055568</speed>
  <fix>3d</fix>
</trkpt>
<trkpt lat="-27.2749239" lon="151.2904161">
  <ele>371.9</ele>
  <time>2026-09-01T20:03:34Z</time>
  <course>233.32</course>
  <speed>19.22</speed>
  <fix>3d</fix>
</trkpt>
<trkpt lat="-27.2749638" lon="151.2903499">
  <ele>372.03</ele>
  <time>2026-09-01T20:03:34Z</time>
  <course>215.38</course>
  <speed>19.536706477807357</speed>
  <fix>3d</fix>
</trkpt>
<trkpt lat="-27.2749438" lon="151.290384">
  <ele>371.94</ele>
  <time>2026-09-01T20:03:34Z</time>
  <course>236.53</course>
  <speed>19.54</speed>
  <fix>3d</fix>
</trkpt>
<trkpt lat="-27.2749736" lon="151.2903333">
  <ele>372.08</ele>
  <time>2026-09-01T20:03:34Z</time>
  <course>216.69</course>
  <speed>19.536706477807357</speed>
  <fix>3d</fix>
</trkpt>
<trkpt lat="-27.2749438" lon="151.290384">
  <ele>371.94</ele>
  <time>2026-09-01T20:03:34Z</time>
  <course>236.53</course>
  <speed>19.54</speed>
  <fix>3d</fix>
</trkpt>
<trkpt lat="-27.2749812" lon="151.2903142">
  <ele>371.84</ele>
  <time>2026-09-01T20:03:34Z</time>
  <course>218.0</course>
  <speed>19.892114015357944</speed>
  <fix>3d</fix>
</trkpt>
<trkpt lat="-27.2749626" lon="151.2903501">
  <ele>371.97</ele>
  <time>2026-09-01T20:03:34Z</time>
  <course>239.78</course>
  <speed>19.89</speed>
  <fix>3d</fix>
</trkpt>
<trkpt lat="-27.2749902" lon="151.2902968">
  <ele>372.07</ele>
  <time>2026-09-01T20:03:34Z</time>
  <course>219.42</course>
  <speed>19.892114015357944</speed>
  <fix>3d</fix>
</trkpt>
<trkpt lat="-27.2749626" lon="151.2903501">
  <ele>371.97</ele>
  <time>2026-09-01T20:03:34Z</time>
  <course>239.78</course>
  <speed>19.89</speed>
  <fix>3d</fix>
</trkpt>
<trkpt lat="-27.2749968" lon="151.2902767">
  <ele>372.06</ele>
  <time>2026-09-01T20:03:34Z</time>
  <course>220.79</course>
  <speed>20.26813508934653</speed>
  <fix>3d</fix>
</trkpt>
<trkpt lat="-27.2749798" lon="151.2903145">
  <ele>372.02</ele>
  <time>2026-09-01T20:03:34Z</time>
  <course>243.05</course>
  <speed>20.27</speed>
  <fix>3d</fix>
</trkpt>
<trkpt lat="-27.2750051" lon="151.2902585">
  <ele>372.05</ele>
  <time>2026-09-01T20:03:34Z</time>
  <course>222.11</course>
  <speed>20.26813508934653</speed>
  <fix>3d</fix>
</trkpt>
<trkpt lat="-27.2749798" lon="151.2903145">
  <ele>372.02</ele>
  <time>2026-09-01T20:03:34Z</time>
  <course>243.05</course>
  <speed>20.27</speed>
  <fix>3d</fix>
</trkpt>
<trkpt lat="-27.2750109" lon="151.2902375">
  <ele>372.29</ele>
  <time>2026-09-01T20:03:34Z</time>
  <course>223.47</course>
  <speed>20.661638366789795</speed>
  <fix>3d</fix>
</trkpt>
<trkpt lat="-27.2749955" lon="151.2902771">
  <ele>372.07</ele>
  <time>2026-09-01T20:03:34Z</time>
  <course>246.36</course>
  <speed>20.67</speed>
  <fix>3d</fix>
</trkpt>
<trkpt lat="-27.2750182" lon="151.2902186">
  <ele>372.19</ele>
  <time>2026-09-01T20:03:34Z</time>
  <course>224.92</course>
  <speed>20.661638366789795</speed>
  <fix>3d</fix>
</trkpt>
<trkpt lat="-27.2749955" lon="151.2902771">
  <ele>372.07</ele>
  <time>2026-09-01T20:03:34Z</time>
  <course>246.36</course>
  <speed>20.67</speed>
  <fix>3d</fix>
</trkpt>
<trkpt lat="-27.275023" lon="151.2901969">
  <ele>372.2</ele>
  <time>2026-09-01T20:03:34Z</time>
  <course>226.46</course>
  <speed>21.091012303822687</speed>
  <fix>3d</fix>
</trkpt>
<trkpt lat="-27.2750095" lon="151.290238">
  <ele>372.13</ele>
  <time>2026-09-01T20:03:34Z</time>
  <course>249.69</course>
  <speed>21.1</speed>
  <fix>3d</fix>
</trkpt>
<trkpt lat="-27.2750296" lon="151.2901769">
  <ele>372.28</ele>
  <time>2026-09-01T20:03:34Z</time>
  <course>228.01</course>
  <speed>21.091012303822687</speed>
  <fix>3d</fix>
</trkpt>
<trkpt lat="-27.2750095" lon="151.290238">
  <ele>372.13</ele>
  <time>2026-09-01T20:03:34Z</time>
  <course>249.69</course>
  <speed>21.1</speed>
  <fix>3d</fix>
</trkpt>
<trkpt lat="-27.2750333" lon="151.2901543">
  <ele>372.06</ele>
  <time>2026-09-01T20:03:34Z</time>
  <course>229.49</course>
  <speed>21.54263215115553</speed>
  <fix>3d</fix>
</trkpt>
<trkpt lat="-27.2750217" lon="151.2901972">
  <ele>372.19</ele>
  <time>2026-09-01T20:03:34Z</time>
  <course>253.06</course>
  <speed>21.55</speed>
  <fix>3d</fix>
</trkpt>
<trkpt lat="-27.2750389" lon="151.2901335">
  <ele>372.19</ele>
  <time>2026-09-01T20:03:34Z</time>
  <course>231.05</course>
  <speed>21.54263215115553</speed>
  <fix>3d</fix>
</trkpt>
<trkpt lat="-27.2750217" lon="151.2901972">
  <ele>372.19</ele>
  <time>2026-09-01T20:03:34Z</time>
  <course>253.06</course>
  <speed>21.55</speed>
  <fix>3d</fix>
</trkpt>
<trkpt lat="-27.2750414" lon="151.2901101">
  <ele>372.32</ele>
  <time>2026-09-01T20:03:34Z</time>
  <course>232.64</course>
  <speed>22.025741758224626</speed>
  <fix>3d</fix>
</trkpt>
<trkpt lat="-27.275032" lon="151.2901547">
  <ele>372.25</ele>
  <time>2026-09-01T20:03:34Z</time>
  <course>256.53</course>
  <speed>22.03</speed>
  <fix>3d</fix>
</trkpt>
<trkpt lat="-27.2750461" lon="151.2900885">
  <ele>372.47</ele>
  <time>2026-09-01T20:03:34Z</time>
  <course>234.27</course>
  <speed>22.025741758224626</speed>
  <fix>3d</fix>
</trkpt>
<trkpt lat="-27.275032" lon="151.2901547">
  <ele>372.25</ele>
  <time>2026-09-01T20:03:34Z</time>
  <course>256.53</course>
  <speed>22.03</speed>
  <fix>3d</fix>
</trkpt>
<trkpt lat="-27.2750474" lon="151.2900643">
  <ele>372.53</ele>
  <time>2026-09-01T20:03:34Z</time>
  <course>235.94</course>
  <speed>22.539964507514206</speed>
  <fix>3d</fix>
</trkpt>
<trkpt lat="-27.2750402" lon="151.2901105">
  <ele>372.32</ele>
  <time>2026-09-01T20:03:34Z</time>
  <course>260.03</course>
  <speed>22.54</speed>
  <fix>3d</fix>
</trkpt>
<trkpt lat="-27.2750509" lon="151.2900419">
  <ele>372.48</ele>
  <time>2026-09-01T20:03:34Z</time>
  <course>237.57</course>
  <speed>22.539964507514206</speed>
  <fix>3d</fix>
</trkpt>
<trkpt lat="-27.2750402" lon="151.2901105">
  <ele>372.32</ele>
  <time>2026-09-01T20:03:34Z</time>
  <course>260.03</course>
  <speed>22.54</speed>
  <fix>3d</fix>
</trkpt>
<trkpt lat="-27.2750506" lon="151.290017">
  <ele>372.67</ele>
  <time>2026-09-01T20:03:34Z</time>
  <course>239.37</course>
  <speed>23.084626919229166</speed>
  <fix>3d</fix>
</trkpt>
<trkpt lat="-27.2750459" lon="151.2900647">
  <ele>372.4</ele>
  <time>2026-09-01T20:03:34Z</time>
  <course>263.58</course>
  <speed>23.08</speed>
  <fix>3d</fix>
</trkpt>
<trkpt lat="-27.2750529" lon="151.2899938">
  <ele>372.55</ele>
  <time>2026-09-01T20:03:34Z</time>
  <course>241.12</course>
  <speed>23.084626919229166</speed>
  <fix>3d</fix>
</trkpt>
<trkpt lat="-27.2750459" lon="151.2900647">
  <ele>372.4</ele>
  <time>2026-09-01T20:03:34Z</time>
  <course>263.58</course>
  <speed>23.08</speed>
  <fix>3d</fix>
</trkpt>
<trkpt lat="-27.2750514" lon="151.2899683">
  <ele>372.76</ele>
  <time>2026-09-01T20:03:34Z</time>
  <course>242.84</course>
  <speed>23.63847922350336</speed>
  <fix>3d</fix>
</trkpt>
<trkpt lat="-27.2750493" lon="151.2900177">
  <ele>372.49</ele>
  <time>2026-09-01T20:03:34Z</time>
  <course>267.18</course>
  <speed>23.64</speed>
  <fix>3d</fix>
</trkpt>
<trkpt lat="-27.2750525" lon="151.2899445">
  <ele>372.75</ele>
  <time>2026-09-01T20:03:34Z</time>
  <course>244.72</course>
  <speed>23.63847922350336</speed>
  <fix>3d</fix>
</trkpt>
<trkpt lat="-27.2750493" lon="151.2900177">
  <ele>372.49</ele>
  <time>2026-09-01T20:03:34Z</time>
  <course>267.18</course>
  <speed>23.64</speed>
  <fix>3d</fix>
</trkpt>
<trkpt lat="-27.2750496" lon="151.2899188">
  <ele>372.49</ele>
  <time>2026-09-01T20:03:34Z</time>
  <course>246.63</course>
  <speed>24.222248037702858</speed>
  <fix>3d</fix>
</trkpt>
<trkpt lat="-27.2750502" lon="151.2899694">
  <ele>372.59</ele>
  <time>2026-09-01T20:03:34Z</time>
  <course>270.78</course>
  <speed>24.22</speed>
  <fix>3d</fix>
</trkpt>
<trkpt lat="-27.2750493" lon="151.2898943">
  <ele>372.79</ele>
  <time>2026-09-01T20:03:34Z</time>
  <course>248.57</course>
  <speed>24.222248037702858</speed>
  <fix>3d</fix>
</trkpt>
<trkpt lat="-27.2750502" lon="151.2899694">
  <ele>372.59</ele>
  <time>2026-09-01T20:03:34Z</time>
  <course>270.78</course>
  <speed>24.22</speed>
  <fix>3d</fix>
</trkpt>
<trkpt lat="-27.2750447" lon="151.2898682">
  <ele>372.69</ele>
  <time>2026-09-01T20:03:34Z</time>
  <course>250.62</course>
  <speed>24.824361018966833</speed>
  <fix>3d</fix>
</trkpt>
<trkpt lat="-27.2750482" lon="151.2899199">
  <ele>372.69</ele>
  <time>2026-09-01T20:03:34Z</time>
  <course>274.45</course>
  <speed>24.82</speed>
  <fix>3d</fix>
</trkpt>
<trkpt lat="-27.2750429" lon="151.2898431">
  <ele>372.67</ele>
  <time>2026-09-01T20:03:34Z</time>
  <course>252.67</course>
  <speed>24.824361018966833</speed>
  <fix>3d</fix>
</trkpt>
<trkpt lat="-27.2750482" lon="151.2899199">
  <ele>372.69</ele>
  <time>2026-09-01T20:03:34Z</time>
  <course>274.45</course>
  <speed>24.82</speed>
  <fix>3d</fix>
</trkpt>
<trkpt lat="-27.2750364" lon="151.2898167">
  <ele>372.84</ele>
  <time>2026-09-01T20:03:34Z</time>
  <course>254.75</course>
  <speed>25.474294887199527</speed>
  <fix>3d</fix>
</trkpt>
<trkpt lat="-27.2750432" lon="151.2898694">
  <ele>372.79</ele>
  <time>2026-09-01T20:03:34Z</time>
  <course>278.27</course>
  <speed>25.47</speed>
  <fix>3d</fix>
</trkpt>
<trkpt lat="-27.2750331" lon="151.2897912">
  <ele>373.01</ele>
  <time>2026-09-01T20:03:34Z</time>
  <course>256.85</course>
  <speed>25.474294887199527</speed>
  <fix>3d</fix>
</trkpt>
<trkpt lat="-27.2750432" lon="151.2898694">
  <ele>372.79</ele>
  <time>2026-09-01T20:03:34Z</time>
  <course>278.27</course>
  <speed>25.47</speed>
  <fix>3d</fix>
</trkpt>
<trkpt lat="-27.2750247" lon="151.2897646">
  <ele>373.1</ele>
  <time>2026-09-01T20:03:34Z</time>
  <course>259.09</course>
  <speed>26.156930248024135</speed>
  <fix>3d</fix>
</trkpt>
<trkpt lat="-27.2750349" lon="151.2898181">
  <ele>372.91</ele>
  <time>2026-09-01T20:03:34Z</time>
  <course>282.16</course>
  <speed>26.16</speed>
  <fix>3d</fix>
</trkpt>
<trkpt lat="-27.2750198" lon="151.2897388">
  <ele>373.25</ele>
  <time>2026-09-01T20:03:34Z</time>
  <course>261.34</course>
  <speed>26.156930248024135</speed>
  <fix>3d</fix>
</trkpt>
<trkpt lat="-27.2750349" lon="151.2898181">
  <ele>372.91</ele>
  <time>2026-09-01T20:03:34Z</time>
  <course>282.16</course>
  <speed>26.16</speed>
  <fix>3d</fix>
</trkpt>
<trkpt lat="-27.2750095" lon="151.2897122">
  <ele>373.19</ele>
  <time>2026-09-01T20:03:34Z</time>
  <course>263.67</course>
  <speed>26.863704137739454</speed>
  <fix>3d</fix>
</trkpt>
<trkpt lat="-27.2750233" lon="151.2897661">
  <ele>373.03</ele>
  <time>2026-09-01T20:03:34Z</time>
  <course>286.11</course>
  <speed>26.86</speed>
  <fix>3d</fix>
</trkpt>
<trkpt lat="-27.2750028" lon="151.2896861">
  <ele>373.18</ele>
  <time>2026-09-01T20:03:34Z</time>
  <course>266.08</course>
  <speed>26.863704137739454</speed>
  <fix>3d</fix>
</trkpt>
<trkpt lat="-27.2750233" lon="151.2897661">
  <ele>373.03</ele>
  <time>2026-09-01T20:03:34Z</time>
  <course>286.11</course>
  <speed>26.86</speed>
  <fix>3d</fix>
</trkpt>
<trkpt lat="-27.2749906" lon="151.2896599">
  <ele>373.22</ele>
  <time>2026-09-01T20:03:34Z</time>
  <course>268.55</course>
  <speed>27.57792776841654</speed>
  <fix>3d</fix>
</trkpt>
<trkpt lat="-27.2750081" lon="151.2897138">
  <ele>373.19</ele>
  <time>2026-09-01T20:03:34Z</time>
  <course>290.15</course>
  <speed>27.58</speed>
  <fix>3d</fix>
</trkpt>
<trkpt lat="-27.274982" lon="151.2896338">
  <ele>373.52</ele>
  <time>2026-09-01T20:03:34Z</time>
  <course>271.0</course>
  <speed>27.57792776841654</speed>
  <fix>3d</fix>
</trkpt>
<trkpt lat="-27.2750081" lon="151.2897138">
  <ele>373.19</ele>
  <time>2026-09-01T20:03:34Z</time>
  <course>290.15</course>
  <speed>27.58</speed>
  <fix>3d</fix>
</trkpt>
<trkpt lat="-27.2749676" lon="151.2896079">
  <ele>373.3</ele>
  <time>2026-09-01T20:03:34Z</time>
  <course>273.53</course>
  <speed>28.30423289898527</speed>
  <fix>3d</fix>
</trkpt>
<trkpt lat="-27.2749891" lon="151.2896616">
  <ele>373.36</ele>
  <time>2026-09-01T20:03:34Z</time>
  <course>294.29</course>
  <speed>28.3</speed>
  <fix>3d</fix>
</trkpt>
<trkpt lat="-27.2749571" lon="151.2895819">
  <ele>373.59</ele>
  <time>2026-09-01T20:03:34Z</time>
  <course>276.14</course>
  <speed>28.30423289898527</speed>
  <fix>3d</fix>
</trkpt>
<trkpt lat="-27.2749891" lon="151.2896616">
  <ele>373.36</ele>
  <time>2026-09-01T20:03:34Z</time>
  <course>294.29</course>
  <speed>28.3</speed>
  <fix>3d</fix>
</trkpt>
<trkpt lat="-27.2749404" lon="151.2895565">
  <ele>373.63</ele>
  <time>2026-09-01T20:03:34Z</time>
  <course>278.85</course>
  <speed>29.059944941448183</speed>
  <fix>3d</fix>
</trkpt>
<trkpt lat="-27.2749661" lon="151.2896096">
  <ele>373.54</ele>
  <time>2026-09-01T20:03:34Z</time>
  <course>298.57</course>
  <speed>29.06</speed>
  <fix>3d</fix>
</trkpt>
<trkpt lat="-27.2749279" lon="151.2895307">
  <ele>373.85</ele>
  <time>2026-09-01T20:03:34Z</time>
  <course>281.55</course>
  <speed>29.059944941448183</speed>
  <fix>3d</fix>
</trkpt>
<trkpt lat="-27.2749661" lon="151.2896096">
  <ele>373.54</ele>
  <time>2026-09-01T20:03:34Z</time>
  <course>298.57</course>
  <speed>29.06</speed>
  <fix>3d</fix>
</trkpt>
<trkpt lat="-27.274909" lon="151.2895062">
  <ele>373.75</ele>
  <time>2026-09-01T20:03:34Z</time>
  <course>284.37</course>
  <speed>29.812153561928397</speed>
  <fix>3d</fix>
</trkpt>
<trkpt lat="-27.274939" lon="151.2895583">
  <ele>373.75</ele>
  <time>2026-09-01T20:03:34Z</time>
  <course>302.93</course>
  <speed>29.82</speed>
  <fix>3d</fix>
</trkpt>
<trkpt lat="-27.2748945" lon="151.2894809">
  <ele>373.96</ele>
  <time>2026-09-01T20:03:34Z</time>
  <course>287.25</course>
  <speed>29.812153561928397</speed>
  <fix>3d</fix>
</trkpt>
<trkpt lat="-27.274939" lon="151.2895583">
  <ele>373.75</ele>
  <time>2026-09-01T20:03:34Z</time>
  <course>302.93</course>
  <speed>29.82</speed>
  <fix>3d</fix>
</trkpt>
<trkpt lat="-27.2748733" lon="151.2894577">
  <ele>374.02</ele>
  <time>2026-09-01T20:03:34Z</time>
  <course>290.17</course>
  <speed>30.5692279915604</speed>
  <fix>3d</fix>
</trkpt>
<trkpt lat="-27.2749078" lon="151.2895085">
  <ele>373.97</ele>
  <time>2026-09-01T20:03:34Z</time>
  <course>307.38</course>
  <speed>30.57</speed>
  <fix>3d</fix>
</trkpt>
<trkpt lat="-27.2748566" lon="151.2894332">
  <ele>374.51</ele>
  <time>2026-09-01T20:03:34Z</time>
  <course>293.17</course>
  <speed>30.5692279915604</speed>
  <fix>3d</fix>
</trkpt>
<trkpt lat="-27.2749078" lon="151.2895085">
  <ele>373.97</ele>
  <time>2026-09-01T20:03:34Z</time>
  <course>307.38</course>
  <speed>30.57</speed>
  <fix>3d</fix>
</trkpt>
<trkpt lat="-27.2748334" lon="151.2894117">
  <ele>374.35</ele>
  <time>2026-09-01T20:03:34Z</time>
  <course>296.28</course>
  <speed>31.320199552365562</speed>
  <fix>3d</fix>
</trkpt>
<trkpt lat="-27.2748723" lon="151.2894604">
  <ele>374.23</ele>
  <time>2026-09-01T20:03:34Z</time>
  <course>311.94</course>
  <speed>31.32</speed>
  <fix>3d</fix>
</trkpt>
<trkpt lat="-27.2748146" lon="151.2893881">
  <ele>374.67</ele>
  <time>2026-09-01T20:03:34Z</time>
  <course>299.49</course>
  <speed>31.320199552365562</speed>
  <fix>3d</fix>
</trkpt>
<trkpt lat="-27.2748723" lon="151.2894604">
  <ele>374.23</ele>
  <time>2026-09-01T20:03:34Z</time>
  <course>311.94</course>
  <speed>31.32</speed>
  <fix>3d</fix>
</trkpt>
<trkpt lat="-27.2747892" lon="151.2893685">
  <ele>374.73</ele>
  <time>2026-09-01T20:03:34Z</time>
  <course>302.75</course>
  <speed>32.05239616627749</speed>
  <fix>3d</fix>
</trkpt>
<trkpt lat="-27.2748325" lon="151.2894145">
  <ele>374.52</ele>
  <time>2026-09-01T20:03:34Z</time>
  <course>316.65</course>
  <speed>32.05</speed>
  <fix>3d</fix>
</trkpt>
<trkpt lat="-27.2747683" lon="151.2893463">
  <ele>374.92</ele>
  <time>2026-09-01T20:03:34Z</time>
  <course>306.02</course>
  <speed>32.05239616627749</speed>
  <fix>3d</fix>
</trkpt>
<trkpt lat="-27.2748325" lon="151.2894145">
  <ele>374.52</ele>
  <time>2026-09-01T20:03:34Z</time>
  <course>316.65</course>
  <speed>32.05</speed>
  <fix>3d</fix>
</trkpt>
<trkpt lat="-27.2747408" lon="151.2893291">
  <ele>375.26</ele>
  <time>2026-09-01T20:03:34Z</time>
  <course>309.46</course>
  <speed>32.760752433361475</speed>
  <fix>3d</fix>
</trkpt>
<trkpt lat="-27.2747885" lon="151.2893717">
  <ele>374.83</ele>
  <time>2026-09-01T20:03:34Z</time>
  <course>321.53</course>
  <speed>32.76</speed>
  <fix>3d</fix>
</trkpt>
<trkpt lat="-27.2747178" lon="151.2893085">
  <ele>375.39</ele>
  <time>2026-09-01T20:03:34Z</time>
  <course>312.92</course>
  <speed>32.760752433361475</speed>
  <fix>3d</fix>
</trkpt>
<trkpt lat="-27.2747885" lon="151.2893717">
  <ele>374.83</ele>
  <time>2026-09-01T20:03:34Z</time>
  <course>321.53</course>
  <speed>32.76</speed>
  <fix>3d</fix>
</trkpt>
<trkpt lat="-27.2746886" lon="151.2892939">
  <ele>375.49</ele>
  <time>2026-09-01T20:03:34Z</time>
  <course>316.39</course>
  <speed>33.4182614748284</speed>
  <fix>3d</fix>
</trkpt>
<trkpt lat="-27.2747404" lon="151.2893324">
  <ele>375.18</ele>
  <time>2026-09-01T20:03:34Z</time>
  <course>326.56</course>
  <speed>33.42</speed>
  <fix>3d</fix>
</trkpt>
<trkpt lat="-27.2746635" lon="151.2892753">
  <ele>375.59</ele>
  <time>2026-09-01T20:03:34Z</time>
  <course>319.99</course>
  <speed>33.4182614748284</speed>
  <fix>3d</fix>
</trkpt>
<trkpt lat="-27.2747404" lon="151.2893324">
  <ele>375.18</ele>
  <time>2026-09-01T20:03:34Z</time>
  <course>326.56</course>
  <speed>33.42</speed>
  <fix>3d</fix>
</trkpt>
<trkpt lat="-27.2746327" lon="151.2892638">
  <ele>375.75</ele>
  <time>2026-09-01T20:03:34Z</time>
  <course>323.51</course>
  <speed>34.02614435988891</speed>
  <fix>3d</fix>
</trkpt>
<trkpt lat="-27.2746884" lon="151.2892975">
  <ele>375.56</ele>
  <time>2026-09-01T20:03:34Z</time>
  <course>331.7</course>
  <speed>34.02</speed>
  <fix>3d</fix>
</trkpt>
<trkpt lat="-27.2746058" lon="151.2892475">
  <ele>376.2</ele>
  <time>2026-09-01T20:03:34Z</time>
  <course>327.12</course>
  <speed>34.02614435988891</speed>
  <fix>3d</fix>
</trkpt>
<trkpt lat="-27.2746884" lon="151.2892975">
  <ele>375.56</ele>
  <time>2026-09-01T20:03:34Z</time>
  <course>331.7</course>
  <speed>34.02</speed>
  <fix>3d</fix>
</trkpt>
<trkpt lat="-27.2745739" lon="151.2892392">
  <ele>376.46</ele>
  <time>2026-09-01T20:03:34Z</time>
  <course>330.83</course>
  <speed>34.54809546125517</speed>
  <fix>3d</fix>
</trkpt>
<trkpt lat="-27.2746329" lon="151.2892675">
  <ele>375.99</ele>
  <time>2026-09-01T20:03:34Z</time>
  <course>336.89</course>
  <speed>34.55</speed>
  <fix>3d</fix>
</trkpt>
<trkpt lat="-27.2745453" lon="151.2892255">
  <ele>376.72</ele>
  <time>2026-09-01T20:03:34Z</time>
  <course>334.4</course>
  <speed>34.54809546125517</speed>
  <fix>3d</fix>
</trkpt>
<trkpt lat="-27.2746329" lon="151.2892675">
  <ele>375.99</ele>
  <time>2026-09-01T20:03:34Z</time>
  <course>336.89</course>
  <speed>34.55</speed>
  <fix>3d</fix>
</trkpt>
<trkpt lat="-27.2745126" lon="151.2892205">
  <ele>376.74</ele>
  <time>2026-09-01T20:03:34Z</time>
  <course>337.95</course>
  <speed>34.9670030171303</speed>
  <fix>3d</fix>
</trkpt>
<trkpt lat="-27.2745745" lon="151.2892429">
  <ele>376.44</ele>
  <time>2026-09-01T20:03:34Z</time>
  <course>342.12</course>
  <speed>34.97</speed>
  <fix>3d</fix>
</trkpt>
<trkpt lat="-27.274483" lon="151.2892098">
  <ele>377.05</ele>
  <time>2026-09-01T20:03:34Z</time>
  <course>341.5</course>
  <speed>34.9670030171303</speed>
  <fix>3d</fix>
</trkpt>
<trkpt lat="-27.2745745" lon="151.2892429">
  <ele>376.44</ele>
  <time>2026-09-01T20:03:34Z</time>
  <course>342.12</course>
  <speed>34.97</speed>
  <fix>3d</fix>
</trkpt>
<trkpt lat="-27.2744499" lon="151.2892081">
  <ele>377.52</ele>
  <time>2026-09-01T20:03:34Z</time>
  <course>345.04</course>
  <speed>35.26756300058171</speed>
  <fix>3d</fix>
</trkpt>
<trkpt lat="-27.2745135" lon="151.2892242">
  <ele>376.93</ele>
  <time>2026-09-01T20:03:34Z</time>
  <course>347.32</course>
  <speed>35.27</speed>
  <fix>3d</fix>
</trkpt>
<trkpt lat="-27.2744189" lon="151.2892003">
  <ele>377.54</ele>
  <time>2026-09-01T20:03:34Z</time>
  <course>348.54</course>
  <speed>35.26756300058171</speed>
  <fix>3d</fix>
</trkpt>
<trkpt lat="-27.2745135" lon="151.2892242">
  <ele>376.93</ele>
  <time>2026-09-01T20:03:34Z</time>
  <course>347.32</course>
  <speed>35.27</speed>
  <fix>3d</fix>
</trkpt>
<trkpt lat="-27.2743855" lon="151.2892019">
  <ele>377.87</ele>
  <time>2026-09-01T20:03:34Z</time>
  <course>351.98</course>
  <speed>35.45027503419402</speed>
  <fix>3d</fix>
</trkpt>
<trkpt lat="-27.2744508" lon="151.2892116">
  <ele>377.45</ele>
  <time>2026-09-01T20:03:34Z</time>
  <course>352.41</course>
  <speed>35.45</speed>
  <fix>3d</fix>
</trkpt>
<trkpt lat="-27.2743539" lon="151.2891971">
  <ele>378.28</ele>
  <time>2026-09-01T20:03:34Z</time>
  <course>355.31</course>
  <speed>35.45027503419402</speed>
  <fix>3d</fix>
</trkpt>
<trkpt lat="-27.2744508" lon="151.2892116">
  <ele>377.45</ele>
  <time>2026-09-01T20:03:34Z</time>
  <course>352.41</course>
  <speed>35.45</speed>
  <fix>3d</fix>
</trkpt>
<trkpt lat="-27.2743215" lon="151.2892018">
  <ele>378.5</ele>
  <time>2026-09-01T20:03:34Z</time>
  <course>358.57</course>
  <speed>35.49790416348548</speed>
  <fix>3d</fix>
</trkpt>
<trkpt lat="-27.2743874" lon="151.2892052">
  <ele>377.97</ele>
  <time>2026-09-01T20:03:34Z</time>
  <course>357.33</course>
  <speed>35.5</speed>
  <fix>3d</fix>
</trkpt>
<trkpt lat="-27.2742896" lon="151.2892001">
  <ele>378.54</ele>
  <time>2026-09-01T20:03:34Z</time>
  <course>1.74</course>
  <speed>35.49790416348548</speed>
  <fix>3d</fix>
</trkpt>
<trkpt lat="-27.2743874" lon="151.2892052">
  <ele>377.97</ele>
  <time>2026-09-01T20:03:34Z</time>
  <course>357.33</course>
  <speed>35.5</speed>
  <fix>3d</fix>
</trkpt>
<trkpt lat="-27.2742578" lon="151.2892074">
  <ele>378.86</ele>
  <time>2026-09-01T20:03:34Z</time>
  <course>4.93</course>
  <speed>35.43312715524838</speed>
  <fix>3d</fix>
</trkpt>
<trkpt lat="-27.2743236" lon="151.2892048">
  <ele>378.49</ele>
  <time>2026-09-01T20:03:34Z</time>
  <course>2.08</course>
  <speed>35.44</speed>
  <fix>3d</fix>
</trkpt>
<trkpt lat="-27.274226" lon="151.2892087">
  <ele>379.25</ele>
  <time>2026-09-01T20:03:34Z</time>
  <course>8.01</course>
  <speed>35.43312715524838</speed>
  <fix>3d</fix>
</trkpt>
<trkpt lat="-27.2743236" lon="151.2892048">
  <ele>378.49</ele>
  <time>2026-09-01T20:03:34Z</time>
  <course>2.08</course>
  <speed>35.44</speed>
  <fix>3d</fix>
</trkpt>
<trkpt lat="-27.2741952" lon="151.2892186">
  <ele>379.23</ele>
  <time>2026-09-01T20:03:34Z</time>
  <course>10.94</course>
  <speed>35.264493474314925</speed>
  <fix>3d</fix>
</trkpt>
<trkpt lat="-27.2742603" lon="151.2892102">
  <ele>378.99</ele>
  <time>2026-09-01T20:03:34Z</time>
  <course>6.61</course>
  <speed>35.27</speed>
  <fix>3d</fix>
</trkpt>
<trkpt lat="-27.2741637" lon="151.2892228">
  <ele>379.76</ele>
  <time>2026-09-01T20:03:34Z</time>
  <course>13.88</course>
  <speed>35.264493474314925</speed>
  <fix>3d</fix>
</trkpt>
<trkpt lat="-27.2742603" lon="151.2892102">
  <ele>378.99</ele>
  <time>2026-09-01T20:03:34Z</time>
  <course>6.61</course>
  <speed>35.27</speed>
  <fix>3d</fix>
</trkpt>
<trkpt lat="-27.2741341" lon="151.2892349">
  <ele>379.75</ele>
  <time>2026-09-01T20:03:34Z</time>
  <course>16.86</course>
  <speed>35.0232636971485</speed>
  <fix>3d</fix>
</trkpt>
<trkpt lat="-27.274198" lon="151.2892211">
  <ele>379.46</ele>
  <time>2026-09-01T20:03:34Z</time>
  <course>10.91</course>
  <speed>35.02</speed>
  <fix>3d</fix>
</trkpt>
<trkpt lat="-27.2741032" lon="151.2892416">
  <ele>380.13</ele>
  <time>2026-09-01T20:03:34Z</time>
  <course>19.82</course>
  <speed>35.0232636971485</speed>
  <fix>3d</fix>
</trkpt>
<trkpt lat="-27.274198" lon="151.2892211">
  <ele>379.46</ele>
  <time>2026-09-01T20:03:34Z</time>
  <course>10.91</course>
  <speed>35.02</speed>
  <fix>3d</fix>
</trkpt>
<trkpt lat="-27.2740746" lon="151.2892557">
  <ele>380.22</ele>
  <time>2026-09-01T20:03:34Z</time>
  <course>22.62</course>
  <speed>34.71240124220738</speed>
  <fix>3d</fix>
</trkpt>
<trkpt lat="-27.2741369" lon="151.2892369">
  <ele>379.87</ele>
  <time>2026-09-01T20:03:34Z</time>
  <course>15.06</course>
  <speed>34.71</speed>
  <fix>3d</fix>
</trkpt>
<trkpt lat="-27.2740445" lon="151.2892648">
  <ele>380.5</ele>
  <time>2026-09-01T20:03:34Z</time>
  <course>25.42</course>
  <speed>34.71240124220738</speed>
  <fix>3d</fix>
</trkpt>
<trkpt lat="-27.2741369" lon="151.2892369">
  <ele>379.87</ele>
  <time>2026-09-01T20:03:34Z</time>
  <course>15.06</course>
  <speed>34.71</speed>
  <fix>3d</fix>
</trkpt>
<trkpt lat="-27.2740174" lon="151.289281">
  <ele>380.62</ele>
  <time>2026-09-01T20:03:34Z</time>
  <course>28.38</course>
  <speed>34.335347675536944</speed>
  <fix>3d</fix>
</trkpt>
<trkpt lat="-27.2740777" lon="151.2892575">
  <ele>380.21</ele>
  <time>2026-09-01T20:03:34Z</time>
  <course>19.13</course>
  <speed>34.34</speed>
  <fix>3d</fix>
</trkpt>
<trkpt lat="-27.2739883" lon="151.2892924">
  <ele>380.59</ele>
  <time>2026-09-01T20:03:34Z</time>
  <course>31.2</course>
  <speed>34.335347675536944</speed>
  <fix>3d</fix>
</trkpt>
<trkpt lat="-27.2740777" lon="151.2892575">
  <ele>380.21</ele>
  <time>2026-09-01T20:03:34Z</time>
  <course>19.13</course>
  <speed>34.34</speed>
  <fix>3d</fix>
</trkpt>
<trkpt lat="-27.2739626" lon="151.2893102">
  <ele>380.6</ele>
  <time>2026-09-01T20:03:34Z</time>
  <course>34.03</course>
  <speed>33.90070500741835</speed>
  <fix>3d</fix>
</trkpt>
<trkpt lat="-27.2740205" lon="151.2892824">
  <ele>380.49</ele>
  <time>2026-09-01T20:03:34Z</time>
  <course>23.15</course>
  <speed>33.91</speed>
  <fix>3d</fix>
</trkpt>
<trkpt lat="-27.2739346" lon="151.2893237">
  <ele>380.77</ele>
  <time>2026-09-01T20:03:34Z</time>
  <course>36.86</course>
  <speed>33.90070500741835</speed>
  <fix>3d</fix>
</trkpt>
<trkpt lat="-27.2740205" lon="151.2892824">
  <ele>380.49</ele>
  <time>2026-09-01T20:03:34Z</time>
  <course>23.15</course>
  <speed>33.91</speed>
  <fix>3d</fix>
</trkpt>
<trkpt lat="-27.2739106" lon="151.2893432">
  <ele>380.63</ele>
  <time>2026-09-01T20:03:34Z</time>
  <course>39.74</course>
  <speed>33.41310222053618</speed>
  <fix>3d</fix>
</trkpt>
<trkpt lat="-27.2739658" lon="151.2893113">
  <ele>380.69</ele>
  <time>2026-09-01T20:03:34Z</time>
  <course>27.16</course>
  <speed>33.41</speed>
  <fix>3d</fix>
</trkpt>
<trkpt lat="-27.2738839" lon="151.2893586">
  <ele>380.79</ele>
  <time>2026-09-01T20:03:34Z</time>
  <course>42.7</course>
  <speed>33.41310222053618</speed>
  <fix>3d</fix>
</trkpt>
<trkpt lat="-27.2739658" lon="151.2893113">
  <ele>380.69</ele>
  <time>2026-09-01T20:03:34Z</time>
  <course>27.16</course>
  <speed>33.41</speed>
  <fix>3d</fix>
</trkpt>
<trkpt lat="-27.2738618" lon="151.2893794">
  <ele>380.96</ele>
  <time>2026-09-01T20:03:34Z</time>
  <course>45.68</course>
  <speed>32.866289720624074</speed>
  <fix>3d</fix>
</trkpt>
<trkpt lat="-27.2739138" lon="151.289344">
  <ele>380.81</ele>
  <time>2026-09-01T20:03:34Z</time>
  <course>31.2</course>
  <speed>32.87</speed>
  <fix>3d</fix>
</trkpt>
<trkpt lat="-27.2738366" lon="151.2893966">
  <ele>380.71</ele>
  <time>2026-09-01T20:03:34Z</time>
  <course>48.69</course>
  <speed>32.866289720624074</speed>
  <fix>3d</fix>
</trkpt>
<trkpt lat="-27.2739138" lon="151.289344">
  <ele>380.81</ele>
  <time>2026-09-01T20:03:34Z</time>
  <course>31.2</course>
  <speed>32.87</speed>
  <fix>3d</fix>
</trkpt>
<trkpt lat="-27.2738162" lon="151.289419">
  <ele>380.87</ele>
  <time>2026-09-01T20:03:34Z</time>
  <course>51.73</course>
  <speed>32.25883444887617</speed>
  <fix>3d</fix>
</trkpt>
<trkpt lat="-27.2738648" lon="151.2893801">
  <ele>380.85</ele>
  <time>2026-09-01T20:03:34Z</time>
  <course>35.38</course>
  <speed>32.26</speed>
  <fix>3d</fix>
</trkpt>
<trkpt lat="-27.2737925" lon="151.2894378">
  <ele>380.92</ele>
  <time>2026-09-01T20:03:34Z</time>
  <course>54.84</course>
  <speed>32.25883444887617</speed>
  <fix>3d</fix>
</trkpt>
<trkpt lat="-27.2738648" lon="151.2893801">
  <ele>380.85</ele>
  <time>2026-09-01T20:03:34Z</time>
  <course>35.38</course>
  <speed>32.26</speed>
  <fix>3d</fix>
</trkpt>
<trkpt lat="-27.2737744" lon="151.2894615">
  <ele>380.6</ele>
  <time>2026-09-01T20:03:34Z</time>
  <course>58.02</course>
  <speed>31.585442849515342</speed>
  <fix>3d</fix>
</trkpt>
<trkpt lat="-27.2738193" lon="151.2894195">
  <ele>380.81</ele>
  <time>2026-09-01T20:03:34Z</time>
  <course>39.73</course>
  <speed>31.59</speed>
  <fix>3d</fix>
</trkpt>
<trkpt lat="-27.2737526" lon="151.2894819">
  <ele>380.73</ele>
  <time>2026-09-01T20:03:34Z</time>
  <course>61.23</course>
  <speed>31.585442849515342</speed>
  <fix>3d</fix>
</trkpt>
<trkpt lat="-27.2738193" lon="151.2894195">
  <ele>380.81</ele>
  <time>2026-09-01T20:03:34Z</time>
  <course>39.73</course>
  <speed>31.59</speed>
  <fix>3d</fix>
</trkpt>
<trkpt lat="-27.2737368" lon="151.2895065">
  <ele>380.59</ele>
  <time>2026-09-01T20:03:34Z</time>
  <course>64.56</course>
  <speed>30.839203945627393</speed>
  <fix>3d</fix>
</trkpt>
<trkpt lat="-27.2737776" lon="151.2894617">
  <ele>380.7</ele>
  <time>2026-09-01T20:03:34Z</time>
  <course>44.3</course>
  <speed>30.84</speed>
  <fix>3d</fix>
</trkpt>
<trkpt lat="-27.273717" lon="151.2895283">
  <ele>380.58</ele>
  <time>2026-09-01T20:03:34Z</time>
  <course>67.93</course>
  <speed>30.839203945627393</speed>
  <fix>3d</fix>
</trkpt>
<trkpt lat="-27.2737776" lon="151.2894617">
  <ele>380.7</ele>
  <time>2026-09-01T20:03:34Z</time>
  <course>44.3</course>
  <speed>30.84</speed>
  <fix>3d</fix>
</trkpt>
<trkpt lat="-27.2737038" lon="151.2895537">
  <ele>380.45</ele>
  <time>2026-09-01T20:03:34Z</time>
  <course>71.26</course>
  <speed>29.99736821789538</speed>
  <fix>3d</fix>
</trkpt>
<trkpt lat="-27.2737401" lon="151.2895065">
  <ele>380.53</ele>
  <time>2026-09-01T20:03:34Z</time>
  <course>49.17</course>
  <speed>30.0</speed>
  <fix>3d</fix>
</trkpt>
<trkpt lat="-27.2736862" lon="151.2895767">
  <ele>380.4</ele>
  <time>2026-09-01T20:03:34Z</time>
  <course>74.68</course>
  <speed>29.99736821789538</speed>
  <fix>3d</fix>
</trkpt>
<trkpt lat="-27.2737401" lon="151.2895065">
  <ele>380.53</ele>
  <time>2026-09-01T20:03:34Z</time>
  <course>49.17</course>
  <speed>30.0</speed>
  <fix>3d</fix>
</trkpt>
<trkpt lat="-27.2736757" lon="151.289603">
  <ele>380.01</ele>
  <time>2026-09-01T20:03:34Z</time>
  <course>78.09</course>
  <speed>29.086397164310327</speed>
  <fix>3d</fix>
</trkpt>
<trkpt lat="-27.2737073" lon="151.2895534">
  <ele>380.32</ele>
  <time>2026-09-01T20:03:34Z</time>
  <course>54.33</course>
  <speed>29.09</speed>
  <fix>3d</fix>
</trkpt>
<trkpt lat="-27.2736604" lon="151.2896269">
  <ele>379.98</ele>
  <time>2026-09-01T20:03:34Z</time>
  <course>81.53</course>
  <speed>29.086397164310327</speed>
  <fix>3d</fix>
</trkpt>
<trkpt lat="-27.2737073" lon="151.2895534">
  <ele>380.32</ele>
  <time>2026-09-01T20:03:34Z</time>
  <course>54.33</course>
  <speed>29.09</speed>
  <fix>3d</fix>
</trkpt>
<trkpt lat="-27.273653" lon="151.2896525">
  <ele>379.62</ele>
  <time>2026-09-01T20:03:34Z</time>
  <course>84.98</course>
  <speed>28.08505118385936</speed>
  <fix>3d</fix>
</trkpt>
<trkpt lat="-27.2736793" lon="151.2896018">
  <ele>380.06</ele>
  <time>2026-09-01T20:03:34Z</time>
  <course>59.73</course>
  <speed>28.09</speed>
  <fix>3d</fix>
</trkpt>
<trkpt lat="-27.2736403" lon="151.289677">
  <ele>379.78</ele>
  <time>2026-09-01T20:03:34Z</time>
  <course>88.39</course>
  <speed>28.08505118385936</speed>
  <fix>3d</fix>
</trkpt>
<trkpt lat="-27.2736793" lon="151.2896018">
  <ele>380.06</ele>
  <time>2026-09-01T20:03:34Z</time>
  <course>59.73</course>
  <speed>28.09</speed>
  <fix>3d</fix>
</trkpt>
<trkpt lat="-27.2736356" lon="151.2897026">
  <ele>379.52</ele>
  <time>2026-09-01T20:03:34Z</time>
  <course>91.71</course>
  <speed>27.023090126778616</speed>
  <fix>3d</fix>
</trkpt>
<trkpt lat="-27.2736565" lon="151.2896512">
  <ele>379.76</ele>
  <time>2026-09-01T20:03:34Z</time>
  <course>65.4</course>
  <speed>27.02</speed>
  <fix>3d</fix>
</trkpt>
<trkpt lat="-27.2736255" lon="151.2897274">
  <ele>379.33</ele>
  <time>2026-09-01T20:03:34Z</time>
  <course>94.97</course>
  <speed>27.023090126778616</speed>
  <fix>3d</fix>
</trkpt>
<trkpt lat="-27.2736565" lon="151.2896512">
  <ele>379.76</ele>
  <time>2026-09-01T20:03:34Z</time>
  <course>65.4</course>
  <speed>27.02</speed>
  <fix>3d</fix>
</trkpt>
<trkpt lat="-27.2736235" lon="151.2897521">
  <ele>379.11</ele>
  <time>2026-09-01T20:03:34Z</time>
  <course>98.1</course>
  <speed>25.91204353191774</speed>
  <fix>3d</fix>
</trkpt>
<trkpt lat="-27.2736389" lon="151.2897008">
  <ele>379.43</ele>
  <time>2026-09-01T20:03:34Z</time>
  <course>71.25</course>
  <speed>25.91</speed>
  <fix>3d</fix>
</trkpt>
<trkpt lat="-27.273616" lon="151.2897769">
  <ele>378.78</ele>
  <time>2026-09-01T20:03:34Z</time>
  <course>101.13</course>
  <speed>25.91204353191774</speed>
  <fix>3d</fix>
</trkpt>
<trkpt lat="-27.2736389" lon="151.2897008">
  <ele>379.43</ele>
  <time>2026-09-01T20:03:34Z</time>
  <course>71.25</course>
  <speed>25.91</speed>
  <fix>3d</fix>
</trkpt>
<trkpt lat="-27.2736163" lon="151.2898006">
  <ele>378.78</ele>
  <time>2026-09-01T20:03:34Z</time>
  <course>104.12</course>
  <speed>24.78480381201352</speed>
  <fix>3d</fix>
</trkpt>
<trkpt lat="-27.2736265" lon="151.2897501">
  <ele>379.09</ele>
  <time>2026-09-01T20:03:34Z</time>
  <course>77.1</course>
  <speed>24.79</speed>
  <fix>3d</fix>
</trkpt>
<trkpt lat="-27.2736113" lon="151.289825">
  <ele>378.63</ele>
  <time>2026-09-01T20:03:34Z</time>
  <course>107.0</course>
  <speed>24.78480381201352</speed>
  <fix>3d</fix>
</trkpt>
<trkpt lat="-27.2736265" lon="151.2897501">
  <ele>379.09</ele>
  <time>2026-09-01T20:03:34Z</time>
  <course>77.1</course>
  <speed>24.79</speed>
  <fix>3d</fix>
</trkpt>
<trkpt lat="-27.2736134" lon="151.2898475">
  <ele>378.42</ele>
  <time>2026-09-01T20:03:34Z</time>
  <course>109.69</course>
  <speed>23.68443581764193</speed>
  <fix>3d</fix>
</trkpt>
<trkpt lat="-27.2736189" lon="151.2897984">
  <ele>378.72</ele>
  <time>2026-09-01T20:03:34Z</time>
  <course>82.82</course>
  <speed>23.69</speed>
  <fix>3d</fix>
</trkpt>
<trkpt lat="-27.2736108" lon="151.289871">
  <ele>378.21</ele>
  <time>2026-09-01T20:03:34Z</time>
  <course>112.19</course>
  <speed>23.68443581764193</speed>
  <fix>3d</fix>
</trkpt>
<trkpt lat="-27.2736189" lon="151.2897984">
  <ele>378.72</ele>
  <time>2026-09-01T20:03:34Z</time>
  <course>82.82</course>
  <speed>23.69</speed>
  <fix>3d</fix>
</trkpt>
<trkpt lat="-27.2736145" lon="151.2898922">
  <ele>378.08</ele>
  <time>2026-09-01T20:03:34Z</time>
  <course>114.59</course>
  <speed>22.639048124866026</speed>
  <fix>3d</fix>
</trkpt>
<trkpt lat="-27.2736157" lon="151.2898451">
  <ele>378.32</ele>
  <time>2026-09-01T20:03:34Z</time>
  <course>88.35</course>
  <speed>22.63</speed>
  <fix>3d</fix>
</trkpt>
<trkpt lat="-27.273614" lon="151.289915">
  <ele>377.61</ele>
  <time>2026-09-01T20:03:34Z</time>
  <course>116.84</course>
  <speed>22.639048124866026</speed>
  <fix>3d</fix>
</trkpt>
<trkpt lat="-27.2736157" lon="151.2898451">
  <ele>378.32</ele>
  <time>2026-09-01T20:03:34Z</time>
  <course>88.35</course>
  <speed>22.63</speed>
  <fix>3d</fix>
</trkpt>
<trkpt lat="-27.2736189" lon="151.2899349">
  <ele>377.43</ele>
  <time>2026-09-01T20:03:34Z</time>
  <course>118.96</course>
  <speed>21.652126916310095</speed>
  <fix>3d</fix>
</trkpt>
<trkpt lat="-27.2736164" lon="151.2898899">
  <ele>377.89</ele>
  <time>2026-09-01T20:03:34Z</time>
  <course>93.58</course>
  <speed>21.65</speed>
  <fix>3d</fix>
</trkpt>
<trkpt lat="-27.2736201" lon="151.2899567">
  <ele>377.23</ele>
  <time>2026-09-01T20:03:34Z</time>
  <course>120.93</course>
  <speed>21.652126916310095</speed>
  <fix>3d</fix>
</trkpt>
<trkpt lat="-27.2736164" lon="151.2898899">
  <ele>377.89</ele>
  <time>2026-09-01T20:03:34Z</time>
  <course>93.58</course>
  <speed>21.65</speed>
  <fix>3d</fix>
</trkpt>
<trkpt lat="-27.273626" lon="151.2899752">
  <ele>377.14</ele>
  <time>2026-09-01T20:03:34Z</time>
  <course>122.76</course>
  <speed>20.763747253325928</speed>
  <fix>3d</fix>
</trkpt>
<trkpt lat="-27.2736204" lon="151.2899325">
  <ele>377.42</ele>
  <time>2026-09-01T20:03:34Z</time>
  <course>98.43</course>
  <speed>20.77</speed>
  <fix>3d</fix>
</trkpt>
<trkpt lat="-27.2736287" lon="151.289996">
  <ele>376.67</ele>
  <time>2026-09-01T20:03:34Z</time>
  <course>124.44</course>
  <speed>20.763747253325928</speed>
  <fix>3d</fix>
</trkpt>
<trkpt lat="-27.2736204" lon="151.2899325">
  <ele>377.42</ele>
  <time>2026-09-01T20:03:34Z</time>
  <course>98.43</course>
  <speed>20.77</speed>
  <fix>3d</fix>
</trkpt>
<trkpt lat="-27.2736353" lon="151.2900134">
  <ele>376.37</ele>
  <time>2026-09-01T20:03:34Z</time>
  <course>125.97</course>
  <speed>19.9915632205188</speed>
  <fix>3d</fix>
</trkpt>
<trkpt lat="-27.2736271" lon="151.2899729">
  <ele>376.9</ele>
  <time>2026-09-01T20:03:34Z</time>
  <course>102.86</course>
  <speed>19.99</speed>
  <fix>3d</fix>
</trkpt>
<trkpt lat="-27.2736393" lon="151.2900331">
  <ele>376.1</ele>
  <time>2026-09-01T20:03:34Z</time>
  <course>127.4</course>
  <speed>19.9915632205188</speed>
  <fix>3d</fix>
</trkpt>
<trkpt lat="-27.2736271" lon="151.2899729">
  <ele>376.9</ele>
  <time>2026-09-01T20:03:34Z</time>
  <course>102.86</course>
  <speed>19.99</speed>
  <fix>3d</fix>
</trkpt>
<trkpt lat="-27.2736465" lon="151.29005">
  <ele>375.68</ele>
  <time>2026-09-01T20:03:34Z</time>
  <course>128.81</course>
  <speed>19.323208843253752</speed>
  <fix>3d</fix>
</trkpt>
<trkpt lat="-27.2736362" lon="151.2900113">
  <ele>376.32</ele>
  <time>2026-09-01T20:03:34Z</time>
  <course>106.81</course>
  <speed>19.32</speed>
  <fix>3d</fix>
</trkpt>
<trkpt lat="-27.2736516" lon="151.2900687">
  <ele>375.28</ele>
  <time>2026-09-01T20:03:34Z</time>
  <course>130.14</course>
  <speed>19.323208843253752</speed>
  <fix>3d</fix>
</trkpt>
<trkpt lat="-27.2736362" lon="151.2900113">
  <ele>376.32</ele>
  <time>2026-09-01T20:03:34Z</time>
  <course>106.81</course>
  <speed>19.32</speed>
  <fix>3d</fix>
</trkpt>
<trkpt lat="-27.2736592" lon="151.2900846">
  <ele>375.11</ele>
  <time>2026-09-01T20:03:34Z</time>
  <course>131.43</course>
  <speed>18.765396345401285</speed>
  <fix>3d</fix>
</trkpt>
<trkpt lat="-27.2736471" lon="151.2900478">
  <ele>375.68</ele>
  <time>2026-09-01T20:03:34Z</time>
  <course>110.31</course>
  <speed>18.77</speed>
  <fix>3d</fix>
</trkpt>
<trkpt lat="-27.273665" lon="151.2901024">
  <ele>374.71</ele>
  <time>2026-09-01T20:03:34Z</time>
  <course>132.7</course>
  <speed>18.765396345401285</speed>
  <fix>3d</fix>
</trkpt>
<trkpt lat="-27.2736471" lon="151.2900478">
  <ele>375.68</ele>
  <time>2026-09-01T20:03:34Z</time>
  <course>110.31</course>
  <speed>18.77</speed>
  <fix>3d</fix>
</trkpt>
<trkpt lat="-27.2736732" lon="151.2901176">
  <ele>374.47</ele>
  <time>2026-09-01T20:03:34Z</time>
  <course>133.9</course>
  <speed>18.32028929902582</speed>
  <fix>3d</fix>
</trkpt>
<trkpt lat="-27.2736596" lon="151.2900825">
  <ele>374.97</ele>
  <time>2026-09-01T20:03:34Z</time>
  <course>113.57</course>
  <speed>18.32</speed>
  <fix>3d</fix>
</trkpt>
<trkpt lat="-27.2736798" lon="151.2901346">
  <ele>374.06</ele>
  <time>2026-09-01T20:03:34Z</time>
  <course>135.11</course>
  <speed>18.32028929902582</speed>
  <fix>3d</fix>
</trkpt>
<trkpt lat="-27.2736596" lon="151.2900825">
  <ele>374.97</ele>
  <time>2026-09-01T20:03:34Z</time>
  <course>113.57</course>
  <speed>18.32</speed>
  <fix>3d</fix>
</trkpt>
<trkpt lat="-27.2736884" lon="151.2901492">
  <ele>373.46</ele>
  <time>2026-09-01T20:03:34Z</time>
  <course>136.31</course>
  <speed>17.964615219926085</speed>
  <fix>3d</fix>
</trkpt>
<trkpt lat="-27.2736734" lon="151.2901157">
  <ele>374.21</ele>
  <time>2026-09-01T20:03:34Z</time>
  <course>116.7</course>
  <speed>17.96</speed>
  <fix>3d</fix>
</trkpt>
<trkpt lat="-27.2736956" lon="151.2901655">
  <ele>373.03</ele>
  <time>2026-09-01T20:03:34Z</time>
  <course>137.49</course>
  <speed>17.964615219926085</speed>
  <fix>3d</fix>
</trkpt>
<trkpt lat="-27.2736734" lon="151.2901157">
  <ele>374.21</ele>
  <time>2026-09-01T20:03:34Z</time>
  <course>116.7</course>
  <speed>17.96</speed>
  <fix>3d</fix>
</trkpt>
<trkpt lat="-27.273705" lon="151.2901796">
  <ele>372.76</ele>
  <time>2026-09-01T20:03:34Z</time>
  <course>138.66</course>
  <speed>17.68860084913445</speed>
  <fix>3d</fix>
</trkpt>
<trkpt lat="-27.2736886" lon="151.2901474">
  <ele>373.41</ele>
  <time>2026-09-01T20:03:34Z</time>
  <course>119.79</course>
  <speed>17.69</speed>
  <fix>3d</fix>
</trkpt>
<trkpt lat="-27.2737129" lon="151.2901951">
  <ele>372.41</ele>
  <time>2026-09-01T20:03:34Z</time>
  <course>139.8</course>
  <speed>17.68860084913445</speed>
  <fix>3d</fix>
</trkpt>
<trkpt lat="-27.2736886" lon="151.2901474">
  <ele>373.41</ele>
  <time>2026-09-01T20:03:34Z</time>
  <course>119.79</course>
  <speed>17.69</speed>
  <fix>3d</fix>
</trkpt>
<trkpt lat="-27.2737226" lon="151.2902084">
  <ele>371.9</ele>
  <time>2026-09-01T20:03:34Z</time>
  <course>140.91</course>
  <speed>17.485777077384924</speed>
  <fix>3d</fix>
</trkpt>
<trkpt lat="-27.273705" lon="151.2901777">
  <ele>372.58</ele>
  <time>2026-09-01T20:03:34Z</time>
  <course>122.91</course>
  <speed>17.49</speed>
  <fix>3d</fix>
</trkpt>
<trkpt lat="-27.2737312" lon="151.2902232">
  <ele>371.36</ele>
  <time>2026-09-01T20:03:34Z</time>
  <course>142.01</course>
  <speed>17.485777077384924</speed>
  <fix>3d</fix>
</trkpt>
<trkpt lat="-27.273705" lon="151.2901777">
  <ele>372.58</ele>
  <time>2026-09-01T20:03:34Z</time>
  <course>122.91</course>
  <speed>17.49</speed>
  <fix>3d</fix>
</trkpt>
<trkpt lat="-27.2737416" lon="151.290236">
  <ele>371.03</ele>
  <time>2026-09-01T20:03:34Z</time>
  <course>143.06</course>
  <speed>17.38782620110979</speed>
  <fix>3d</fix>
</trkpt>
<trkpt lat="-27.2737227" lon="151.2902068">
  <ele>371.77</ele>
  <time>2026-09-01T20:03:34Z</time>
  <course>126.04</course>
  <speed>17.39</speed>
  <fix>3d</fix>
</trkpt>
<trkpt lat="-27.2737508" lon="151.2902502">
  <ele>370.68</ele>
  <time>2026-09-01T20:03:34Z</time>
  <course>144.04</course>
  <speed>17.38782620110979</speed>
  <fix>3d</fix>
</trkpt>
<trkpt lat="-27.2737227" lon="151.2902068">
  <ele>371.77</ele>
  <time>2026-09-01T20:03:34Z</time>
  <course>126.04</course>
  <speed>17.39</speed>
  <fix>3d</fix>
</trkpt>
<trkpt lat="-27.2737619" lon="151.2902626">
  <ele>370.39</ele>
  <time>2026-09-01T20:03:34Z</time>
  <course>144.96</course>
  <speed>17.351486967980584</speed>
  <fix>3d</fix>
</trkpt>
<trkpt lat="-27.2737417" lon="151.2902346">
  <ele>370.99</ele>
  <time>2026-09-01T20:03:34Z</time>
  <course>129.12</course>
  <speed>17.35</speed>
  <fix>3d</fix>
</trkpt>
<trkpt lat="-27.2737718" lon="151.2902762">
  <ele>370.08</ele>
  <time>2026-09-01T20:03:34Z</time>
  <course>145.81</course>
  <speed>17.351486967980584</speed>
  <fix>3d</fix>
</trkpt>
<trkpt lat="-27.2737417" lon="151.2902346">
  <ele>370.99</ele>
  <time>2026-09-01T20:03:34Z</time>
  <course>129.12</course>
  <speed>17.35</speed>
  <fix>3d</fix>
</trkpt>
<trkpt lat="-27.2737836" lon="151.2902881">
  <ele>369.73</ele>
  <time>2026-09-01T20:03:34Z</time>
  <course>146.62</course>
  <speed>17.382683912445742</speed>
  <fix>3d</fix>
</trkpt>
<trkpt lat="-27.2737621" lon="151.2902613">
  <ele>370.27</ele>
  <time>2026-09-01T20:03:34Z</time>
  <course>132.04</course>
  <speed>17.38</speed>
  <fix>3d</fix>
</trkpt>
<trkpt lat="-27.2737941" lon="151.2903012">
  <ele>369.5</ele>
  <time>2026-09-01T20:03:34Z</time>
  <course>147.39</course>
  <speed>17.382683912445742</speed>
  <fix>3d</fix>
</trkpt>
<trkpt lat="-27.2737621" lon="151.2902613">
  <ele>370.27</ele>
  <time>2026-09-01T20:03:34Z</time>
  <course>132.04</course>
  <speed>17.38</speed>
  <fix>3d</fix>
</trkpt>
<trkpt lat="-27.2738063" lon="151.2903127">
  <ele>369.12</ele>
  <time>2026-09-01T20:03:34Z</time>
  <course>148.08</course>
  <speed>17.458708428746956</speed>
  <fix>3d</fix>
</trkpt>
<trkpt lat="-27.2737836" lon="151.2902869">
  <ele>369.63</ele>
  <time>2026-09-01T20:03:34Z</time>
  <course>134.69</course>
  <speed>17.46</speed>
  <fix>3d</fix>
</trkpt>
<trkpt lat="-27.2738173" lon="151.2903252">
  <ele>368.8</ele>
  <time>2026-09-01T20:03:34Z</time>
  <course>148.74</course>
  <speed>17.458708428746956</speed>
  <fix>3d</fix>
</trkpt>
<trkpt lat="-27.2737836" lon="151.2902869">
  <ele>369.63</ele>
  <time>2026-09-01T20:03:34Z</time>
  <course>134.69</course>
  <speed>17.46</speed>
  <fix>3d</fix>
</trkpt>
<trkpt lat="-27.2738299" lon="151.2903365">
  <ele>368.63</ele>
  <time>2026-09-01T20:03:34Z</time>
  <course>149.36</course>
  <speed>17.568235540315367</speed>
  <fix>3d</fix>
</trkpt>
<trkpt lat="-27.2738062" lon="151.2903116">
  <ele>369.08</ele>
  <time>2026-09-01T20:03:34Z</time>
  <course>137.01</course>
  <speed>17.57</speed>
  <fix>3d</fix>
</trkpt>
<trkpt lat="-27.2738415" lon="151.2903486">
  <ele>368.42</ele>
  <time>2026-09-01T20:03:34Z</time>
  <course>149.9</course>
  <speed>17.568235540315367</speed>
  <fix>3d</fix>
</trkpt>
<trkpt lat="-27.2738062" lon="151.2903116">
  <ele>369.08</ele>
  <time>2026-09-01T20:03:34Z</time>
  <course>137.01</course>
  <speed>17.57</speed>
  <fix>3d</fix>
</trkpt>
<trkpt lat="-27.2738546" lon="151.2903597">
  <ele>368.39</ele>
  <time>2026-09-01T20:03:34Z</time>
  <course>150.37</course>
  <speed>17.699765535170233</speed>
  <fix>3d</fix>
</trkpt>
<trkpt lat="-27.2738298" lon="151.2903354">
  <ele>368.63</ele>
  <time>2026-09-01T20:03:34Z</time>
  <course>138.98</course>
  <speed>17.7</speed>
  <fix>3d</fix>
</trkpt>
<trkpt lat="-27.2738666" lon="151.2903714">
  <ele>368.28</ele>
  <time>2026-09-01T20:03:34Z</time>
  <course>150.83</course>
  <speed>17.699765535170233</speed>
  <fix>3d</fix>
</trkpt>
<trkpt lat="-27.2738298" lon="151.2903354">
  <ele>368.63</ele>
  <time>2026-09-01T20:03:34Z</time>
  <course>138.98</course>
  <speed>17.7</speed>
  <fix>3d</fix>
</trkpt>
<trkpt lat="-27.2738798" lon="151.2903821">
  <ele>368.06</ele>
  <time>2026-09-01T20:03:34Z</time>
  <course>151.34</course>
  <speed>17.83480305470178</speed>
  <fix>3d</fix>
</trkpt>
<trkpt lat="-27.2738542" lon="151.2903585">
  <ele>368.27</ele>
  <time>2026-09-01T20:03:34Z</time>
  <course>140.62</course>
  <speed>17.84</speed>
  <fix>3d</fix>
</trkpt>
<trkpt lat="-27.2738922" lon="151.2903936">
  <ele>368.03</ele>
  <time>2026-09-01T20:03:34Z</time>
  <course>151.74</course>
  <speed>17.83480305470178</speed>
  <fix>3d</fix>
</trkpt>
<trkpt lat="-27.2738542" lon="151.2903585">
  <ele>368.27</ele>
  <time>2026-09-01T20:03:34Z</time>
  <course>140.62</course>
  <speed>17.84</speed>
  <fix>3d</fix>
</trkpt>
<trkpt lat="-27.2739056" lon="151.2904043">
  <ele>367.75</ele>
  <time>2026-09-01T20:03:34Z</time>
  <course>152.03</course>
  <speed>17.965728485090718</speed>
  <fix>3d</fix>
</trkpt>
<trkpt lat="-27.2738793" lon="151.2903812">
  <ele>368.0</ele>
  <time>2026-09-01T20:03:34Z</time>
  <course>141.95</course>
  <speed>17.97</speed>
  <fix>3d</fix>
</trkpt>
<trkpt lat="-27.2739183" lon="151.2904155">
  <ele>367.76</ele>
  <time>2026-09-01T20:03:34Z</time>
  <course>152.34</course>
  <speed>17.965728485090718</speed>
  <fix>3d</fix>
</trkpt>
<trkpt lat="-27.2738793" lon="151.2903812">
  <ele>368.0</ele>
  <time>2026-09-01T20:03:34Z</time>
  <course>141.95</course>
  <speed>17.97</speed>
  <fix>3d</fix>
</trkpt>
<trkpt lat="-27.2739318" lon="151.2904261">
  <ele>367.51</ele>
  <time>2026-09-01T20:03:34Z</time>
  <course>152.66</course>
  <speed>18.08803195485899</speed>
  <fix>3d</fix>
</trkpt>
<trkpt lat="-27.273905" lon="151.2904034">
  <ele>367.81</ele>
  <time>2026-09-01T20:03:34Z</time>
  <course>143.02</course>
  <speed>18.09</speed>
  <fix>3d</fix>
</trkpt>
<trkpt lat="-27.2739448" lon="151.2904371">
  <ele>367.81</ele>
  <time>2026-09-01T20:03:34Z</time>
  <course>152.96</course>
  <speed>18.08803195485899</speed>
  <fix>3d</fix>
</trkpt>
<trkpt lat="-27.273905" lon="151.2904034">
  <ele>367.81</ele>
  <time>2026-09-01T20:03:34Z</time>
  <course>143.02</course>
  <speed>18.09</speed>
  <fix>3d</fix>
</trkpt>
<trkpt lat="-27.2739585" lon="151.2904476">
  <ele>367.81</ele>
  <time>2026-09-01T20:03:34Z</time>
  <course>153.17</course>
  <speed>18.19582919242759</speed>
  <fix>3d</fix>
</trkpt>
<trkpt lat="-27.2739312" lon="151.2904252">
  <ele>367.7</ele>
  <time>2026-09-01T20:03:34Z</time>
  <course>143.93</course>
  <speed>18.2</speed>
  <fix>3d</fix>
</trkpt>
<trkpt lat="-27.2739717" lon="151.2904584">
  <ele>367.71</ele>
  <time>2026-09-01T20:03:34Z</time>
  <course>153.4</course>
  <speed>18.19582919242759</speed>
  <fix>3d</fix>
</trkpt>
<trkpt lat="-27.2739312" lon="151.2904252">
  <ele>367.7</ele>
  <time>2026-09-01T20:03:34Z</time>
  <course>143.93</course>
  <speed>18.2</speed>
  <fix>3d</fix>
</trkpt>
<trkpt lat="-27.2739855" lon="151.2904688">
  <ele>367.53</ele>
  <time>2026-09-01T20:03:34Z</time>
  <course>153.61</course>
  <speed>18.295278079329652</speed>
  <fix>3d</fix>
</trkpt>
<trkpt lat="-27.2739578" lon="151.2904467">
  <ele>367.65</ele>
  <time>2026-09-01T20:03:34Z</time>
  <course>144.72</course>
  <speed>18.3</speed>
  <fix>3d</fix>
</trkpt>
<trkpt lat="-27.273999" lon="151.2904794">
  <ele>367.75</ele>
  <time>2026-09-01T20:03:34Z</time>
  <course>153.86</course>
  <speed>18.295278079329652</speed>
  <fix>3d</fix>
</trkpt>
<trkpt lat="-27.2739578" lon="151.2904467">
  <ele>367.65</ele>
  <time>2026-09-01T20:03:34Z</time>
  <course>144.72</course>
  <speed>18.3</speed>
  <fix>3d</fix>
</trkpt>
<trkpt lat="-27.274013" lon="151.2904896">
  <ele>367.63</ele>
  <time>2026-09-01T20:03:34Z</time>
  <course>154.11</course>
  <speed>18.359654136175877</speed>
  <fix>3d</fix>
</trkpt>
<trkpt lat="-27.2739849" lon="151.2904679">
  <ele>367.65</ele>
  <time>2026-09-01T20:03:34Z</time>
  <course>145.49</course>
  <speed>18.36</speed>
  <fix>3d</fix>
</trkpt>
<trkpt lat="-27.2740266" lon="151.2905001">
  <ele>367.82</ele>
  <time>2026-09-01T20:03:34Z</time>
  <course>154.38</course>
  <speed>18.359654136175877</speed>
  <fix>3d</fix>
</trkpt>
<trkpt lat="-27.2739849" lon="151.2904679">
  <ele>367.65</ele>
  <time>2026-09-01T20:03:34Z</time>
  <course>145.49</course>
  <speed>18.36</speed>
  <fix>3d</fix>
</trkpt>
<trkpt lat="-27.2740406" lon="151.29051">
  <ele>367.61</ele>
  <time>2026-09-01T20:03:34Z</time>
  <course>154.7</course>
  <speed>18.402179218777324</speed>
  <fix>3d</fix>
</trkpt>
<trkpt lat="-27.2740123" lon="151.2904888">
  <ele>367.71</ele>
  <time>2026-09-01T20:03:34Z</time>
  <course>146.29</course>
  <speed>18.4</speed>
  <fix>3d</fix>
</trkpt>
<trkpt lat="-27.2740543" lon="151.2905203">
  <ele>367.69</ele>
  <time>2026-09-01T20:03:34Z</time>
  <course>154.98</course>
  <speed>18.402179218777324</speed>
  <fix>3d</fix>
</trkpt>
<trkpt lat="-27.2740123" lon="151.2904888">
  <ele>367.71</ele>
  <time>2026-09-01T20:03:34Z</time>
  <course>146.29</course>
  <speed>18.4</speed>
  <fix>3d</fix>
</trkpt>
<trkpt lat="-27.2740686" lon="151.2905299">
  <ele>367.82</ele>
  <time>2026-09-01T20:03:34Z</time>
  <course>155.31</course>
  <speed>18.409815316835747</speed>
  <fix>3d</fix>
</trkpt>
<trkpt lat="-27.27404" lon="151.2905092">
  <ele>367.8</ele>
  <time>2026-09-01T20:03:34Z</time>
  <course>147.17</course>
  <speed>18.41</speed>
  <fix>3d</fix>
</trkpt>
<trkpt lat="-27.2740825" lon="151.29054">
  <ele>367.85</ele>
  <time>2026-09-01T20:03:34Z</time>
  <course>155.64</course>
  <speed>18.409815316835747</speed>
  <fix>3d</fix>
</trkpt>
<trkpt lat="-27.27404" lon="151.2905092">
  <ele>367.8</ele>
  <time>2026-09-01T20:03:34Z</time>
  <course>147.17</course>
  <speed>18.41</speed>
  <fix>3d</fix>
</trkpt>
<trkpt lat="-27.2740968" lon="151.2905492">
  <ele>367.88</ele>
  <time>2026-09-01T20:03:34Z</time>
  <course>156.02</course>
  <speed>18.398524397353174</speed>
  <fix>3d</fix>
</trkpt>
<trkpt lat="-27.2740679" lon="151.2905291">
  <ele>367.93</ele>
  <time>2026-09-01T20:03:34Z</time>
  <course>148.21</course>
  <speed>18.4</speed>
  <fix>3d</fix>
</trkpt>
<trkpt lat="-27.2741109" lon="151.290559">
  <ele>368.24</ele>
  <time>2026-09-01T20:03:34Z</time>
  <course>156.42</course>
  <speed>18.398524397353174</speed>
  <fix>3d</fix>
</trkpt>
<trkpt lat="-27.2740679" lon="151.2905291">
  <ele>367.93</ele>
  <time>2026-09-01T20:03:34Z</time>
  <course>148.21</course>
  <speed>18.4</speed>
  <fix>3d</fix>
</trkpt>
<trkpt lat="-27.2741255" lon="151.2905678">
  <ele>368.38</ele>
  <time>2026-09-01T20:03:34Z</time>
  <course>156.84</course>
  <speed>18.366308828940017</speed>
  <fix>3d</fix>
</trkpt>
<trkpt lat="-27.2740961" lon="151.2905483">
  <ele>368.09</ele>
  <time>2026-09-01T20:03:34Z</time>
  <course>149.45</course>
  <speed>18.37</speed>
  <fix>3d</fix>
</trkpt>
<trkpt lat="-27.2741397" lon="151.2905772">
  <ele>368.42</ele>
  <time>2026-09-01T20:03:34Z</time>
  <course>157.3</course>
  <speed>18.366308828940017</speed>
  <fix>3d</fix>
</trkpt>
<trkpt lat="-27.2740961" lon="151.2905483">
  <ele>368.09</ele>
  <time>2026-09-01T20:03:34Z</time>
  <course>149.45</course>
  <speed>18.37</speed>
  <fix>3d</fix>
</trkpt>
<trkpt lat="-27.2741544" lon="151.2905854">
  <ele>368.52</ele>
  <time>2026-09-01T20:03:34Z</time>
  <course>157.82</course>
  <speed>18.31262406101321</speed>
  <fix>3d</fix>
</trkpt>
<trkpt lat="-27.2741247" lon="151.2905668">
  <ele>368.27</ele>
  <time>2026-09-01T20:03:34Z</time>
  <course>150.93</course>
  <speed>18.31</speed>
  <fix>3d</fix>
</trkpt>
<trkpt lat="-27.2741688" lon="151.2905944">
  <ele>368.4</ele>
  <time>2026-09-01T20:03:34Z</time>
  <course>158.42</course>
  <speed>18.31262406101321</speed>
  <fix>3d</fix>
</trkpt>
<trkpt lat="-27.2741247" lon="151.2905668">
  <ele>368.27</ele>
  <time>2026-09-01T20:03:34Z</time>
  <course>150.93</course>
  <speed>18.31</speed>
  <fix>3d</fix>
</trkpt>
<trkpt lat="-27.2741836" lon="151.2906017">
  <ele>368.52</ele>
  <time>2026-09-01T20:03:34Z</time>
  <course>159.06</course>
  <speed>18.216731320409817</speed>
  <fix>3d</fix>
</trkpt>
<trkpt lat="-27.2741536" lon="151.2905842">
  <ele>368.47</ele>
  <time>2026-09-01T20:03:34Z</time>
  <course>152.62</course>
  <speed>18.22</speed>
  <fix>3d</fix>
</trkpt>
<trkpt lat="-27.2741982" lon="151.2906101">
  <ele>368.57</ele>
  <time>2026-09-01T20:03:34Z</time>
  <course>159.65</course>
  <speed>18.216731320409817</speed>
  <fix>3d</fix>
</trkpt>
<trkpt lat="-27.2741536" lon="151.2905842">
  <ele>368.47</ele>
  <time>2026-09-01T20:03:34Z</time>
  <course>152.62</course>
  <speed>18.22</speed>
  <fix>3d</fix>
</trkpt>
<trkpt lat="-27.2742133" lon="151.2906167">
  <ele>369.05</ele>
  <time>2026-09-01T20:03:34Z</time>
  <course>160.32</course>
  <speed>18.11139144295656</speed>
  <fix>3d</fix>
</trkpt>
<trkpt lat="-27.2741829" lon="151.2906005">
  <ele>368.68</ele>
  <time>2026-09-01T20:03:34Z</time>
  <course>154.58</course>
  <speed>18.11</speed>
  <fix>3d</fix>
</trkpt>
<trkpt lat="-27.274228" lon="151.2906246">
  <ele>368.77</ele>
  <time>2026-09-01T20:03:34Z</time>
  <course>160.99</course>
  <speed>18.11139144295656</speed>
  <fix>3d</fix>
</trkpt>
<trkpt lat="-27.2741829" lon="151.2906005">
  <ele>368.68</ele>
  <time>2026-09-01T20:03:34Z</time>
  <course>154.58</course>
  <speed>18.11</speed>
  <fix>3d</fix>
</trkpt>
<trkpt lat="-27.2742431" lon="151.2906304">
  <ele>369.08</ele>
  <time>2026-09-01T20:03:34Z</time>
  <course>161.65</course>
  <speed>17.986355939989622</speed>
  <fix>3d</fix>
</trkpt>
<trkpt lat="-27.2742124" lon="151.2906156">
  <ele>368.9</ele>
  <time>2026-09-01T20:03:34Z</time>
  <course>156.78</course>
  <speed>17.99</speed>
  <fix>3d</fix>
</trkpt>
<trkpt lat="-27.274258" lon="151.2906376">
  <ele>369.04</ele>
  <time>2026-09-01T20:03:34Z</time>
  <course>162.44</course>
  <speed>17.986355939989622</speed>
  <fix>3d</fix>
</trkpt>
<trkpt lat="-27.2742124" lon="151.2906156">
  <ele>368.9</ele>
  <time>2026-09-01T20:03:34Z</time>
  <course>156.78</course>
  <speed>17.99</speed>
  <fix>3d</fix>
</trkpt>
<trkpt lat="-27.2742733" lon="151.2906425">
  <ele>369.26</ele>
  <time>2026-09-01T20:03:34Z</time>
  <course>163.31</course>
  <speed>17.870075545447477</speed>
  <fix>3d</fix>
</trkpt>
<trkpt lat="-27.2742423" lon="151.2906292">
  <ele>369.13</ele>
  <time>2026-09-01T20:03:34Z</time>
  <course>159.14</course>
  <speed>17.87</speed>
  <fix>3d</fix>
</trkpt>
<trkpt lat="-27.2742883" lon="151.2906489">
  <ele>369.37</ele>
  <time>2026-09-01T20:03:34Z</time>
  <course>164.13</course>
  <speed>17.870075545447477</speed>
  <fix>3d</fix>
</trkpt>
<trkpt lat="-27.2742423" lon="151.2906292">
  <ele>369.13</ele>
  <time>2026-09-01T20:03:34Z</time>
  <course>159.14</course>
  <speed>17.87</speed>
  <fix>3d</fix>
</trkpt>
<trkpt lat="-27.2743038" lon="151.2906529">
  <ele>369.5</ele>
  <time>2026-09-01T20:03:34Z</time>
  <course>164.99</course>
  <speed>17.74040585781509</speed>
  <fix>3d</fix>
</trkpt>
<trkpt lat="-27.2742725" lon="151.2906413">
  <ele>369.37</ele>
  <time>2026-09-01T20:03:34Z</time>
  <course>161.66</course>
  <speed>17.74</speed>
  <fix>3d</fix>
</trkpt>
<trkpt lat="-27.2743189" lon="151.2906586">
  <ele>369.55</ele>
  <time>2026-09-01T20:03:34Z</time>
  <course>165.88</course>
  <speed>17.74040585781509</speed>
  <fix>3d</fix>
</trkpt>
<trkpt lat="-27.2742725" lon="151.2906413">
  <ele>369.37</ele>
  <time>2026-09-01T20:03:34Z</time>
  <course>161.66</course>
  <speed>17.74</speed>
  <fix>3d</fix>
</trkpt>
<trkpt lat="-27.2743344" lon="151.2906617">
  <ele>369.82</ele>
  <time>2026-09-01T20:03:34Z</time>
  <course>166.73</course>
  <speed>17.609917660227715</speed>
  <fix>3d</fix>
</trkpt>
<trkpt lat="-27.2743029" lon="151.2906518">
  <ele>369.6</ele>
  <time>2026-09-01T20:03:34Z</time>
  <course>164.36</course>
  <speed>17.62</speed>
  <fix>3d</fix>
</trkpt>
<trkpt lat="-27.2743496" lon="151.2906665">
  <ele>369.93</ele>
  <time>2026-09-01T20:03:34Z</time>
  <course>167.63</course>
  <speed>17.609917660227715</speed>
  <fix>3d</fix>
</trkpt>
<trkpt lat="-27.2743029" lon="151.2906518">
  <ele>369.6</ele>
  <time>2026-09-01T20:03:34Z</time>
  <course>164.36</course>
  <speed>17.62</speed>
  <fix>3d</fix>
</trkpt>
<trkpt lat="-27.2743655" lon="151.2906687">
  <ele>370.0</ele>
  <time>2026-09-01T20:03:34Z</time>
  <course>168.53</course>
  <speed>17.49565660385457</speed>
  <fix>3d</fix>
</trkpt>
<trkpt lat="-27.2743334" lon="151.2906605">
  <ele>369.83</ele>
  <time>2026-09-01T20:03:34Z</time>
  <course>167.17</course>
  <speed>17.49</speed>
  <fix>3d</fix>
</trkpt>
<trkpt lat="-27.2743809" lon="151.2906726">
  <ele>370.07</ele>
  <time>2026-09-01T20:03:34Z</time>
  <course>169.42</course>
  <speed>17.49565660385457</speed>
  <fix>3d</fix>
</trkpt>
<trkpt lat="-27.2743334" lon="151.2906605">
  <ele>369.83</ele>
  <time>2026-09-01T20:03:34Z</time>
  <course>167.17</course>
  <speed>17.49</speed>
  <fix>3d</fix>
</trkpt>
<trkpt lat="-27.2743964" lon="151.2906737">
  <ele>370.4</ele>
  <time>2026-09-01T20:03:34Z</time>
  <course>170.39</course>
  <speed>17.38259186657732</speed>
  <fix>3d</fix>
</trkpt>
<trkpt lat="-27.2743641" lon="151.2906674">
  <ele>370.05</ele>
  <time>2026-09-01T20:03:34Z</time>
  <course>170.03</course>
  <speed>17.38</speed>
  <fix>3d</fix>
</trkpt>
<trkpt lat="-27.2744117" lon="151.2906768">
  <ele>370.41</ele>
  <time>2026-09-01T20:03:34Z</time>
  <course>171.29</course>
  <speed>17.38259186657732</speed>
  <fix>3d</fix>
</trkpt>
<trkpt lat="-27.2743641" lon="151.2906674">
  <ele>370.05</ele>
  <time>2026-09-01T20:03:34Z</time>
  <course>170.03</course>
  <speed>17.38</speed>
  <fix>3d</fix>
</trkpt>
<trkpt lat="-27.2744272" lon="151.290677">
  <ele>370.34</ele>
  <time>2026-09-01T20:03:34Z</time>
  <course>172.21</course>
  <speed>17.27931132886956</speed>
  <fix>3d</fix>
</trkpt>
<trkpt lat="-27.2743949" lon="151.2906726">
  <ele>370.26</ele>
  <time>2026-09-01T20:03:34Z</time>
  <course>172.96</course>
  <speed>17.29</speed>
  <fix>3d</fix>
</trkpt>
<trkpt lat="-27.2744422" lon="151.2906791">
  <ele>370.54</ele>
  <time>2026-09-01T20:03:34Z</time>
  <course>173.14</course>
  <speed>17.27931132886956</speed>
  <fix>3d</fix>
</trkpt>
<trkpt lat="-27.2743949" lon="151.2906726">
  <ele>370.26</ele>
  <time>2026-09-01T20:03:34Z</time>
  <course>172.96</course>
  <speed>17.29</speed>
  <fix>3d</fix>
</trkpt>
<trkpt lat="-27.2744576" lon="151.2906785">
  <ele>370.77</ele>
  <time>2026-09-01T20:03:34Z</time>
  <course>174.1</course>
  <speed>17.201906871041942</speed>
  <fix>3d</fix>
</trkpt>
<trkpt lat="-27.2744257" lon="151.290676">
  <ele>370.45</ele>
  <time>2026-09-01T20:03:34Z</time>
  <course>175.97</course>
  <speed>17.2</speed>
  <fix>3d</fix>
</trkpt>
<trkpt lat="-27.274473" lon="151.2906797">
  <ele>370.81</ele>
  <time>2026-09-01T20:03:34Z</time>
  <course>175.13</course>
  <speed>17.201906871041942</speed>
  <fix>3d</fix>
</trkpt>
<trkpt lat="-27.2744257" lon="151.290676">
  <ele>370.45</ele>
  <time>2026-09-01T20:03:34Z</time>
  <course>175.97</course>
  <speed>17.2</speed>
  <fix>3d</fix>
</trkpt>
<trkpt lat="-27.2744884" lon="151.2906781">
  <ele>370.67</ele>
  <time>2026-09-01T20:03:34Z</time>
  <course>176.12</course>
  <speed>17.13245458187472</speed>
  <fix>3d</fix>
</trkpt>
<trkpt lat="-27.2744566" lon="151.2906775">
  <ele>370.63</ele>
  <time>2026-09-01T20:03:34Z</time>
  <course>179.0</course>
  <speed>17.13</speed>
  <fix>3d</fix>
</trkpt>
<trkpt lat="-27.2745038" lon="151.2906784">
  <ele>370.82</ele>
  <time>2026-09-01T20:03:34Z</time>
  <course>177.05</course>
  <speed>17.13245458187472</speed>
  <fix>3d</fix>
</trkpt>
<trkpt lat="-27.2744566" lon="151.2906775">
  <ele>370.63</ele>
  <time>2026-09-01T20:03:34Z</time>
  <course>179.0</course>
  <speed>17.13</speed>
  <fix>3d</fix>
</trkpt>
<trkpt lat="-27.2745189" lon="151.2906761">
  <ele>371.07</ele>
  <time>2026-09-01T20:03:34Z</time>
  <course>178.02</course>
  <speed>17.07090214370641</speed>
  <fix>3d</fix>
</trkpt>
<trkpt lat="-27.2744872" lon="151.2906773">
  <ele>370.8</ele>
  <time>2026-09-01T20:03:34Z</time>
  <course>182.06</course>
  <speed>17.08</speed>
  <fix>3d</fix>
</trkpt>
<trkpt lat="-27.2745342" lon="151.2906754">
  <ele>370.94</ele>
  <time>2026-09-01T20:03:34Z</time>
  <course>179.02</course>
  <speed>17.07090214370641</speed>
  <fix>3d</fix>
</trkpt>
<trkpt lat="-27.2744872" lon="151.2906773">
  <ele>370.8</ele>
  <time>2026-09-01T20:03:34Z</time>
  <course>182.06</course>
  <speed>17.08</speed>
  <fix>3d</fix>
</trkpt>
<trkpt lat="-27.2745493" lon="151.290672">
  <ele>370.99</ele>
  <time>2026-09-01T20:03:34Z</time>
  <course>179.99</course>
  <speed>17.037937081700942</speed>
  <fix>3d</fix>
</trkpt>
<trkpt lat="-27.2745178" lon="151.2906751">
  <ele>370.94</ele>
  <time>2026-09-01T20:03:34Z</time>
  <course>185.11</course>
  <speed>17.04</speed>
  <fix>3d</fix>
</trkpt>
<trkpt lat="-27.2745646" lon="151.2906704">
  <ele>370.94</ele>
  <time>2026-09-01T20:03:34Z</time>
  <course>181.04</course>
  <speed>17.037937081700942</speed>
  <fix>3d</fix>
</trkpt>
<trkpt lat="-27.2745178" lon="151.2906751">
  <ele>370.94</ele>
  <time>2026-09-01T20:03:34Z</time>
  <course>185.11</course>
  <speed>17.04</speed>
  <fix>3d</fix>
</trkpt>
<trkpt lat="-27.2745795" lon="151.2906661">
  <ele>371.21</ele>
  <time>2026-09-01T20:03:34Z</time>
  <course>182.07</course>
  <speed>17.034215567498258</speed>
  <fix>3d</fix>
</trkpt>
<trkpt lat="-27.2745482" lon="151.2906711">
  <ele>371.07</ele>
  <time>2026-09-01T20:03:34Z</time>
  <course>188.19</course>
  <speed>17.04</speed>
  <fix>3d</fix>
</trkpt>
<trkpt lat="-27.2745947" lon="151.2906636">
  <ele>371.33</ele>
  <time>2026-09-01T20:03:34Z</time>
  <course>183.01</course>
  <speed>17.034215567498258</speed>
  <fix>3d</fix>
</trkpt>
<trkpt lat="-27.2745482" lon="151.2906711">
  <ele>371.07</ele>
  <time>2026-09-01T20:03:34Z</time>
  <course>188.19</course>
  <speed>17.04</speed>
  <fix>3d</fix>
</trkpt>
<trkpt lat="-27.2746094" lon="151.2906583">
  <ele>371.35</ele>
  <time>2026-09-01T20:03:34Z</time>
  <course>184.03</course>
  <speed>17.054266328400058</speed>
  <fix>3d</fix>
</trkpt>
<trkpt lat="-27.2745784" lon="151.2906653">
  <ele>371.18</ele>
  <time>2026-09-01T20:03:34Z</time>
  <course>191.38</course>
  <speed>17.05</speed>
  <fix>3d</fix>
</trkpt>
<trkpt lat="-27.2746245" lon="151.2906549">
  <ele>371.21</ele>
  <time>2026-09-01T20:03:34Z</time>
  <course>185.14</course>
  <speed>17.054266328400058</speed>
  <fix>3d</fix>
</trkpt>
<trkpt lat="-27.2745784" lon="151.2906653">
  <ele>371.18</ele>
  <time>2026-09-01T20:03:34Z</time>
  <course>191.38</course>
  <speed>17.05</speed>
  <fix>3d</fix>
</trkpt>
<trkpt lat="-27.2746391" lon="151.2906485">
  <ele>371.45</ele>
  <time>2026-09-01T20:03:34Z</time>
  <course>186.21</course>
  <speed>17.092328688625198</speed>
  <fix>3d</fix>
</trkpt>
<trkpt lat="-27.2746084" lon="151.2906575">
  <ele>371.27</ele>
  <time>2026-09-01T20:03:34Z</time>
  <course>194.6</course>
  <speed>17.09</speed>
  <fix>3d</fix>
</trkpt>
<trkpt lat="-27.274654" lon="151.2906442">
  <ele>371.24</ele>
  <time>2026-09-01T20:03:34Z</time>
  <course>187.24</course>
  <speed>17.092328688625198</speed>
  <fix>3d</fix>
</trkpt>
<trkpt lat="-27.2746084" lon="151.2906575">
  <ele>371.27</ele>
  <time>2026-09-01T20:03:34Z</time>
  <course>194.6</course>
  <speed>17.09</speed>
  <fix>3d</fix>
</trkpt>
<trkpt lat="-27.2746686" lon="151.2906366">
  <ele>371.36</ele>
  <time>2026-09-01T20:03:34Z</time>
  <course>188.24</course>
  <speed>17.13720222206647</speed>
  <fix>3d</fix>
</trkpt>
<trkpt lat="-27.2746379" lon="151.2906477">
  <ele>371.35</ele>
  <time>2026-09-01T20:03:34Z</time>
  <course>197.87</course>
  <speed>17.14</speed>
  <fix>3d</fix>
</trkpt>
<trkpt lat="-27.2746833" lon="151.2906313">
  <ele>371.45</ele>
  <time>2026-09-01T20:03:34Z</time>
  <course>189.3</course>
  <speed>17.13720222206647</speed>
  <fix>3d</fix>
</trkpt>
<trkpt lat="-27.2746379" lon="151.2906477">
  <ele>371.35</ele>
  <time>2026-09-01T20:03:34Z</time>
  <course>197.87</course>
  <speed>17.14</speed>
  <fix>3d</fix>
</trkpt>
<trkpt lat="-27.2746973" lon="151.2906231">
  <ele>371.65</ele>
  <time>2026-09-01T20:03:34Z</time>
  <course>190.37</course>
  <speed>17.220946547736567</speed>
  <fix>3d</fix>
</trkpt>
<trkpt lat="-27.274667" lon="151.2906362">
  <ele>371.43</ele>
  <time>2026-09-01T20:03:34Z</time>
  <course>201.08</course>
  <speed>17.22</speed>
  <fix>3d</fix>
</trkpt>
<trkpt lat="-27.2747117" lon="151.2906168">
  <ele>371.71</ele>
  <time>2026-09-01T20:03:34Z</time>
  <course>191.41</course>
  <speed>17.220946547736567</speed>
  <fix>3d</fix>
</trkpt>
<trkpt lat="-27.274667" lon="151.2906362">
  <ele>371.43</ele>
  <time>2026-09-01T20:03:34Z</time>
  <course>201.08</course>
  <speed>17.22</speed>
  <fix>3d</fix>
</trkpt>
<trkpt lat="-27.2747254" lon="151.2906077">
  <ele>371.42</ele>
  <time>2026-09-01T20:03:34Z</time>
  <course>192.5</course>
  <speed>17.31693390874955</speed>
  <fix>3d</fix>
</trkpt>
<trkpt lat="-27.2746957" lon="151.2906228">
  <ele>371.5</ele>
  <time>2026-09-01T20:03:34Z</time>
  <course>204.25</course>
  <speed>17.32</speed>
  <fix>3d</fix>
</trkpt>
<trkpt lat="-27.2747396" lon="151.2906005">
  <ele>371.71</ele>
  <time>2026-09-01T20:03:34Z</time>
  <course>193.53</course>
  <speed>17.31693390874955</speed>
  <fix>3d</fix>
</trkpt>
<trkpt lat="-27.2746957" lon="151.2906228">
  <ele>371.5</ele>
  <time>2026-09-01T20:03:34Z</time>
  <course>204.25</course>
  <speed>17.32</speed>
  <fix>3d</fix>
</trkpt>
<trkpt lat="-27.2747529" lon="151.2905904">
  <ele>371.45</ele>
  <time>2026-09-01T20:03:34Z</time>
  <course>194.61</course>
  <speed>17.44339416512738</speed>
  <fix>3d</fix>
</trkpt>
<trkpt lat="-27.2747237" lon="151.2906074">
  <ele>371.57</ele>
  <time>2026-09-01T20:03:34Z</time>
  <course>207.46</course>
  <speed>17.44</speed>
  <fix>3d</fix>
</trkpt>
<trkpt lat="-27.2747668" lon="151.2905822">
  <ele>371.72</ele>
  <time>2026-09-01T20:03:34Z</time>
  <course>195.67</course>
  <speed>17.44339416512738</speed>
  <fix>3d</fix>
</trkpt>
<trkpt lat="-27.2747237" lon="151.2906074">
  <ele>371.57</ele>
  <time>2026-09-01T20:03:34Z</time>
  <course>207.46</course>
  <speed>17.44</speed>
  <fix>3d</fix>
</trkpt>
<trkpt lat="-27.2747797" lon="151.2905712">
  <ele>371.72</ele>
  <time>2026-09-01T20:03:34Z</time>
  <course>196.75</course>
  <speed>17.58053753444416</speed>
  <fix>3d</fix>
</trkpt>
<trkpt lat="-27.2747512" lon="151.2905902">
  <ele>371.62</ele>
  <time>2026-09-01T20:03:34Z</time>
  <course>210.67</course>
  <speed>17.58</speed>
  <fix>3d</fix>
</trkpt>
<trkpt lat="-27.2747931" lon="151.2905622">
  <ele>371.76</ele>
  <time>2026-09-01T20:03:34Z</time>
  <course>197.82</course>
  <speed>17.58053753444416</speed>
  <fix>3d</fix>
</trkpt>
<trkpt lat="-27.2747512" lon="151.2905902">
  <ele>371.62</ele>
  <time>2026-09-01T20:03:34Z</time>
  <course>210.67</course>
  <speed>17.58</speed>
  <fix>3d</fix>
</trkpt>
<trkpt lat="-27.2748058" lon="151.2905502">
  <ele>371.69</ele>
  <time>2026-09-01T20:03:34Z</time>
  <course>198.86</course>
  <speed>17.74491476451775</speed>
  <fix>3d</fix>
</trkpt>
<trkpt lat="-27.274778" lon="151.2905711">
  <ele>371.67</ele>
  <time>2026-09-01T20:03:34Z</time>
  <course>213.84</course>
  <speed>17.75</speed>
  <fix>3d</fix>
</trkpt>
<trkpt lat="-27.274819" lon="151.2905402">
  <ele>371.53</ele>
  <time>2026-09-01T20:03:34Z</time>
  <course>199.99</course>
  <speed>17.74491476451775</speed>
  <fix>3d</fix>
</trkpt>
<trkpt lat="-27.274778" lon="151.2905711">
  <ele>371.67</ele>
  <time>2026-09-01T20:03:34Z</time>
  <course>213.84</course>
  <speed>17.75</speed>
  <fix>3d</fix>
</trkpt>
<trkpt lat="-27.2748312" lon="151.2905275">
  <ele>371.6</ele>
  <time>2026-09-01T20:03:34Z</time>
  <course>201.07</course>
  <speed>17.932018848975147</speed>
  <fix>3d</fix>
</trkpt>
<trkpt lat="-27.2748042" lon="151.2905503">
  <ele>371.72</ele>
  <time>2026-09-01T20:03:34Z</time>
  <course>216.97</course>
  <speed>17.93</speed>
  <fix>3d</fix>
</trkpt>
<trkpt lat="-27.2748438" lon="151.2905168">
  <ele>371.76</ele>
  <time>2026-09-01T20:03:34Z</time>
  <course>202.17</course>
  <speed>17.932018848975147</speed>
  <fix>3d</fix>
</trkpt>
<trkpt lat="-27.2748042" lon="151.2905503">
  <ele>371.72</ele>
  <time>2026-09-01T20:03:34Z</time>
  <course>216.97</course>
  <speed>17.93</speed>
  <fix>3d</fix>
</trkpt>
<trkpt lat="-27.2748553" lon="151.2905032">
  <ele>371.74</ele>
  <time>2026-09-01T20:03:34Z</time>
  <course>203.28</course>
  <speed>18.139266798853804</speed>
  <fix>3d</fix>
</trkpt>
<trkpt lat="-27.2748295" lon="151.2905276">
  <ele>371.75</ele>
  <time>2026-09-01T20:03:34Z</time>
  <course>220.12</course>
  <speed>18.14</speed>
  <fix>3d</fix>
</trkpt>
<trkpt lat="-27.2748677" lon="151.2904914">
  <ele>371.62</ele>
  <time>2026-09-01T20:03:34Z</time>
  <course>204.43</course>
  <speed>18.139266798853804</speed>
  <fix>3d</fix>
</trkpt>
<trkpt lat="-27.2748295" lon="151.2905276">
  <ele>371.75</ele>
  <time>2026-09-01T20:03:34Z</time>
  <course>220.12</course>
  <speed>18.14</speed>
  <fix>3d</fix>
</trkpt>
<trkpt lat="-27.2748788" lon="151.2904767">
  <ele>371.73</ele>
  <time>2026-09-01T20:03:34Z</time>
  <course>205.62</course>
  <speed>18.38576895318768</speed>
  <fix>3d</fix>
</trkpt>
<trkpt lat="-27.274854" lon="151.290503">
  <ele>371.78</ele>
  <time>2026-09-01T20:03:34Z</time>
  <course>223.31</course>
  <speed>18.38</speed>
  <fix>3d</fix>
</trkpt>
<trkpt lat="-27.2748908" lon="151.2904639">
  <ele>371.62</ele>
  <time>2026-09-01T20:03:34Z</time>
  <course>206.86</course>
  <speed>18.38576895318768</speed>
  <fix>3d</fix>
</trkpt>
<trkpt lat="-27.274854" lon="151.290503">
  <ele>371.78</ele>
  <time>2026-09-01T20:03:34Z</time>
  <course>223.31</course>
  <speed>18.38</speed>
  <fix>3d</fix>
</trkpt>
<trkpt lat="-27.2749014" lon="151.2904482">
  <ele>371.97</ele>
  <time>2026-09-01T20:03:34Z</time>
  <course>208.07</course>
  <speed>18.639026262120026</speed>
  <fix>3d</fix>
</trkpt>
<trkpt lat="-27.2748776" lon="151.2904765">
  <ele>371.81</ele>
  <time>2026-09-01T20:03:34Z</time>
  <course>226.53</course>
  <speed>18.64</speed>
  <fix>3d</fix>
</trkpt>
<trkpt lat="-27.2749129" lon="151.2904346">
  <ele>371.65</ele>
  <time>2026-09-01T20:03:34Z</time>
  <course>209.26</course>
  <speed>18.639026262120026</speed>
  <fix>3d</fix>
</trkpt>
<trkpt lat="-27.2748776" lon="151.2904765">
  <ele>371.81</ele>
  <time>2026-09-01T20:03:34Z</time>
  <course>226.53</course>
  <speed>18.64</speed>
  <fix>3d</fix>
</trkpt>
<trkpt lat="-27.2749228" lon="151.290418">
  <ele>371.77</ele>
  <time>2026-09-01T20:03:34Z</time>
  <course>210.5</course>
  <speed>18.925530375659225</speed>
  <fix>3d</fix>
</trkpt>
<trkpt lat="-27.2749001" lon="151.2904482">
  <ele>371.84</ele>
  <time>2026-09-01T20:03:34Z</time>
  <course>229.8</course>
  <speed>18.93</speed>
  <fix>3d</fix>
</trkpt>
<trkpt lat="-27.2749341" lon="151.2904029">
  <ele>371.71</ele>
  <time>2026-09-01T20:03:34Z</time>
  <course>211.8</course>
  <speed>18.925530375659225</speed>
  <fix>3d</fix>
</trkpt>
<trkpt lat="-27.2749001" lon="151.2904482">
  <ele>371.84</ele>
  <time>2026-09-01T20:03:34Z</time>
  <course>229.8</course>
  <speed>18.93</speed>
  <fix>3d</fix>
</trkpt>
<trkpt lat="-27.2749432" lon="151.2903854">
  <ele>371.83</ele>
  <time>2026-09-01T20:03:34Z</time>
  <course>212.98</course>
  <speed>19.23400374337075</speed>
  <fix>3d</fix>
</trkpt>
<trkpt lat="-27.2749215" lon="151.290418">
  <ele>371.89</ele>
  <time>2026-09-01T20:03:34Z</time>
  <course>233.09</course>
  <speed>19.23</speed>
  <fix>3d</fix>
</trkpt>
<trkpt lat="-27.2749536" lon="151.2903698">
  <ele>371.97</ele>
  <time>2026-09-01T20:03:34Z</time>
  <course>214.24</course>
  <speed>19.23400374337075</speed>
  <fix>3d</fix>
</trkpt>
<trkpt lat="-27.2749215" lon="151.290418">
  <ele>371.89</ele>
  <time>2026-09-01T20:03:34Z</time>
  <course>233.09</course>
  <speed>19.23</speed>
  <fix>3d</fix>
</trkpt>
<trkpt lat="-27.274962" lon="151.2903515">
  <ele>371.87</ele>
  <time>2026-09-01T20:03:34Z</time>
  <course>215.55</course>
  <speed>19.567056498104154</speed>
  <fix>3d</fix>
</trkpt>
<trkpt lat="-27.2749416" lon="151.290386">
  <ele>371.93</ele>
  <time>2026-09-01T20:03:34Z</time>
  <course>236.35</course>
  <speed>19.57</speed>
  <fix>3d</fix>
</trkpt>
<trkpt lat="-27.2749717" lon="151.290335">
  <ele>371.86</ele>
  <time>2026-09-01T20:03:34Z</time>
  <course>216.85</course>
  <speed>19.567056498104154</speed>
  <fix>3d</fix>
</trkpt>
<trkpt lat="-27.2749416" lon="151.290386">
  <ele>371.93</ele>
  <time>2026-09-01T20:03:34Z</time>
  <course>236.35</course>
  <speed>19.57</speed>
  <fix>3d</fix>
</trkpt>
<trkpt lat="-27.2749792" lon="151.2903157">
  <ele>372.14</ele>
  <time>2026-09-01T20:03:34Z</time>
  <course>218.2</course>
  <speed>19.922374356486728</speed>
  <fix>3d</fix>
</trkpt>
<trkpt lat="-27.2749603" lon="151.2903521">
  <ele>371.98</ele>
  <time>2026-09-01T20:03:34Z</time>
  <course>239.64</course>
  <speed>19.92</speed>
  <fix>3d</fix>
</trkpt>
<trkpt lat="-27.2749883" lon="151.2902983">
  <ele>371.93</ele>
  <time>2026-09-01T20:03:34Z</time>
  <course>219.53</course>
  <speed>19.922374356486728</speed>
  <fix>3d</fix>
</trkpt>
<trkpt lat="-27.2749603" lon="151.2903521">
  <ele>371.98</ele>
  <time>2026-09-01T20:03:34Z</time>
  <course>239.64</course>
  <speed>19.92</speed>
  <fix>3d</fix>
</trkpt>
<trkpt lat="-27.2749951" lon="151.2902782">
  <ele>372.27</ele>
  <time>2026-09-01T20:03:34Z</time>
  <course>220.89</course>
  <speed>20.295191548738828</speed>
  <fix>3d</fix>
</trkpt>
<trkpt lat="-27.2749777" lon="151.2903165">
  <ele>372.04</ele>
  <time>2026-09-01T20:03:34Z</time>
  <course>242.97</course>
  <speed>20.3</speed>
  <fix>3d</fix>
</trkpt>
<trkpt lat="-27.2750033" lon="151.2902601">
  <ele>371.93</ele>
  <time>2026-09-01T20:03:34Z</time>
  <course>222.26</course>
  <speed>20.295191548738828</speed>
  <fix>3d</fix>
</trkpt>
<trkpt lat="-27.2749777" lon="151.2903165">
  <ele>372.04</ele>
  <time>2026-09-01T20:03:34Z</time>
  <course>242.97</course>
  <speed>20.3</speed>
  <fix>3d</fix>
</trkpt>
<trkpt lat="-27.2750092" lon="151.2902389">
  <ele>372.3</ele>
  <time>2026-09-01T20:03:34Z</time>
  <course>223.66</course>
  <speed>20.696011693077484</speed>
  <fix>3d</fix>
</trkpt>
<trkpt lat="-27.2749935" lon="151.2902791">
  <ele>372.11</ele>
  <time>2026-09-01T20:03:34Z</time>
  <course>246.29</course>
  <speed>20.7</speed>
  <fix>3d</fix>
</trkpt>
<trkpt lat="-27.2750166" lon="151.2902198">
  <ele>372.06</ele>
  <time>2026-09-01T20:03:34Z</time>
  <course>225.15</course>
  <speed>20.696011693077484</speed>
  <fix>3d</fix>
</trkpt>
<trkpt lat="-27.2749935" lon="151.2902791">
  <ele>372.11</ele>
  <time>2026-09-01T20:03:34Z</time>
  <course>246.29</course>
  <speed>20.7</speed>
  <fix>3d</fix>
</trkpt>
<trkpt lat="-27.2750214" lon="151.2901979">
  <ele>372.12</ele>
  <time>2026-09-01T20:03:34Z</time>
  <course>226.64</course>
  <speed>21.11671375948445</speed>
  <fix>3d</fix>
</trkpt>
<trkpt lat="-27.2750076" lon="151.2902399">
  <ele>372.17</ele>
  <time>2026-09-01T20:03:34Z</time>
  <course>249.63</course>
  <speed>21.12</speed>
  <fix>3d</fix>
</trkpt>
<trkpt lat="-27.275028" lon="151.2901779">
  <ele>372.11</ele>
  <time>2026-09-01T20:03:35Z</time>
  <course>228.1</course>
  <speed>21.11671375948445</speed>
  <fix>3d</fix>
</trkpt>
<trkpt lat="-27.2750076" lon="151.2902399">
  <ele>372.17</ele>
  <time>2026-09-01T20:03:35Z</time>
  <course>249.63</course>
  <speed>21.12</speed>
  <fix>3d</fix>
</trkpt>
<trkpt lat="-27.2750316" lon="151.2901554">
  <ele>372.47</ele>
  <time>2026-09-01T20:03:35Z</time>
  <course>229.52</course>
  <speed>21.5580263475115</speed>
  <fix>3d</fix>
</trkpt>
<trkpt lat="-27.2750198" lon="151.2901991">
  <ele>372.24</ele>
  <time>2026-09-01T20:03:35Z</time>
  <course>253.02</course>
  <speed>21.56</speed>
  <fix>3d</fix>
</trkpt>
<trkpt lat="-27.2750373" lon="151.2901345">
  <ele>372.32</ele>
  <time>2026-09-01T20:03:35Z</time>
  <course>231.08</course>
  <speed>21.5580263475115</speed>
  <fix>3d</fix>
</trkpt>
<trkpt lat="-27.2750198" lon="151.2901991">
  <ele>372.24</ele>
  <time>2026-09-01T20:03:35Z</time>
  <course>253.02</course>
  <speed>21.56</speed>
  <fix>3d</fix>
</trkpt>
<trkpt lat="-27.2750398" lon="151.2901112">
  <ele>372.43</ele>
  <time>2026-09-01T20:03:35Z</time>
  <course>232.64</course>
  <speed>22.02772117128778</speed>
  <fix>3d</fix>
</trkpt>
<trkpt lat="-27.2750301" lon="151.2901566">
  <ele>372.31</ele>
  <time>2026-09-01T20:03:35Z</time>
  <course>256.39</course>
  <speed>22.03</speed>
  <fix>3d</fix>
</trkpt>
<trkpt lat="-27.2750445" lon="151.2900896">
  <ele>372.48</ele>
  <time>2026-09-01T20:03:35Z</time>
  <course>234.21</course>
  <speed>22.02772117128778</speed>
  <fix>3d</fix>
</trkpt>
<trkpt lat="-27.2750301" lon="151.2901566">
  <ele>372.31</ele>
  <time>2026-09-01T20:03:35Z</time>
  <course>256.39</course>
  <speed>22.03</speed>
  <fix>3d</fix>
</trkpt>
<trkpt lat="-27.2750459" lon="151.2900655">
  <ele>372.34</ele>
  <time>2026-09-01T20:03:35Z</time>
  <course>235.77</course>
  <speed>22.514573058354895</speed>
  <fix>3d</fix>
</trkpt>
<trkpt lat="-27.2750384" lon="151.2901125">
  <ele>372.39</ele>
  <time>2026-09-01T20:03:35Z</time>
  <course>259.81</course>
  <speed>22.52</speed>
  <fix>3d</fix>
</trkpt>
<trkpt lat="-27.2750494" lon="151.2900431">
  <ele>372.55</ele>
  <time>2026-09-01T20:03:35Z</time>
  <course>237.4</course>
  <speed>22.514573058354895</speed>
  <fix>3d</fix>
</trkpt>
<trkpt lat="-27.2750384" lon="151.2901125">
  <ele>372.39</ele>
  <time>2026-09-01T20:03:35Z</time>
  <course>259.81</course>
  <speed>22.52</speed>
  <fix>3d</fix>
</trkpt>
<trkpt lat="-27.2750494" lon="151.2900184">
  <ele>372.44</ele>
  <time>2026-09-01T20:03:35Z</time>
  <course>239.13</course>
  <speed>23.036423333495154</speed>
  <fix>3d</fix>
</trkpt>
<trkpt lat="-27.2750444" lon="151.2900669">
  <ele>372.47</ele>
  <time>2026-09-01T20:03:35Z</time>
  <course>263.3</course>
  <speed>23.03</speed>
  <fix>3d</fix>
</trkpt>
<trkpt lat="-27.2750518" lon="151.2899957">
  <ele>372.43</ele>
  <time>2026-09-01T20:03:35Z</time>
  <course>240.84</course>
  <speed>23.036423333495154</speed>
  <fix>3d</fix>
</trkpt>
<trkpt lat="-27.2750444" lon="151.2900669">
  <ele>372.47</ele>
  <time>2026-09-01T20:03:35Z</time>
  <course>263.3</course>
  <speed>23.03</speed>
  <fix>3d</fix>
</trkpt>
<trkpt lat="-27.2750504" lon="151.28997">
  <ele>372.67</ele>
  <time>2026-09-01T20:03:35Z</time>
  <course>242.71</course>
  <speed>23.586407102396926</speed>
  <fix>3d</fix>
</trkpt>
<trkpt lat="-27.275048" lon="151.2900199">
  <ele>372.55</ele>
  <time>2026-09-01T20:03:35Z</time>
  <course>266.81</course>
  <speed>23.58</speed>
  <fix>3d</fix>
</trkpt>
<trkpt lat="-27.2750516" lon="151.2899462">
  <ele>372.62</ele>
  <time>2026-09-01T20:03:35Z</time>
  <course>244.53</course>
  <speed>23.586407102396926</speed>
  <fix>3d</fix>
</trkpt>
<trkpt lat="-27.275048" lon="151.2900199">
  <ele>372.55</ele>
  <time>2026-09-01T20:03:35Z</time>
  <course>266.81</course>
  <speed>23.58</speed>
  <fix>3d</fix>
</trkpt>
<trkpt lat="-27.2750487" lon="151.2899204">
  <ele>372.78</ele>
  <time>2026-09-01T20:03:35Z</time>
  <course>246.48</course>
  <speed>24.180669965904585</speed>
  <fix>3d</fix>
</trkpt>
<trkpt lat="-27.275049" lon="151.2899717">
  <ele>372.63</ele>
  <time>2026-09-01T20:03:35Z</time>
  <course>270.43</course>
  <speed>24.18</speed>
  <fix>3d</fix>
</trkpt>
<trkpt lat="-27.2750485" lon="151.289896">
  <ele>372.61</ele>
  <time>2026-09-01T20:03:35Z</time>
  <course>248.5</course>
  <speed>24.180669965904585</speed>
  <fix>3d</fix>
</trkpt>
<trkpt lat="-27.275049" lon="151.2899717">
  <ele>372.63</ele>
  <time>2026-09-01T20:03:35Z</time>
  <course>270.43</course>
  <speed>24.18</speed>
  <fix>3d</fix>
</trkpt>
<trkpt lat="-27.275044" lon="151.2898698">
  <ele>372.96</ele>
  <time>2026-09-01T20:03:35Z</time>
  <course>250.52</course>
  <speed>24.80467093109683</speed>
  <fix>3d</fix>
</trkpt>
<trkpt lat="-27.2750473" lon="151.2899223">
  <ele>372.72</ele>
  <time>2026-09-01T20:03:35Z</time>
  <course>274.15</course>
  <speed>24.8</speed>
  <fix>3d</fix>
</trkpt>
<trkpt lat="-27.2750423" lon="151.2898448">
  <ele>372.74</ele>
  <time>2026-09-01T20:03:35Z</time>
  <course>252.58</course>
  <speed>24.80467093109683</speed>
  <fix>3d</fix>
</trkpt>
<trkpt lat="-27.2750473" lon="151.2899223">
  <ele>372.72</ele>
  <time>2026-09-01T20:03:35Z</time>
  <course>274.15</course>
  <speed>24.8</speed>
  <fix>3d</fix>
</trkpt>
<trkpt lat="-27.2750359" lon="151.2898183">
  <ele>372.85</ele>
  <time>2026-09-01T20:03:35Z</time>
  <course>254.73</course>
  <speed>25.4573309677193</speed>
  <fix>3d</fix>
</trkpt>
<trkpt lat="-27.2750425" lon="151.2898718">
  <ele>372.82</ele>
  <time>2026-09-01T20:03:35Z</time>
  <course>277.99</course>
  <speed>25.46</speed>
  <fix>3d</fix>
</trkpt>
<trkpt lat="-27.2750327" lon="151.2897928">
  <ele>372.83</ele>
  <time>2026-09-01T20:03:35Z</time>
  <course>256.95</course>
  <speed>25.4573309677193</speed>
  <fix>3d</fix>
</trkpt>
<trkpt lat="-27.2750425" lon="151.2898718">
  <ele>372.82</ele>
  <time>2026-09-01T20:03:35Z</time>
  <course>277.99</course>
  <speed>25.46</speed>
  <fix>3d</fix>
</trkpt>
<trkpt lat="-27.2750244" lon="151.2897664">
  <ele>372.92</ele>
  <time>2026-09-01T20:03:35Z</time>
  <course>259.12</course>
  <speed>26.14376407482289</speed>
  <fix>3d</fix>
</trkpt>
<trkpt lat="-27.2750345" lon="151.2898204">
  <ele>372.93</ele>
  <time>2026-09-01T20:03:35Z</time>
  <course>281.93</course>
  <speed>26.15</speed>
  <fix>3d</fix>
</trkpt>
<trkpt lat="-27.2750195" lon="151.2897406">
  <ele>373.08</ele>
  <time>2026-09-01T20:03:35Z</time>
  <course>261.38</course>
  <speed>26.14376407482289</speed>
  <fix>3d</fix>
</trkpt>
<trkpt lat="-27.2750345" lon="151.2898204">
  <ele>372.93</ele>
  <time>2026-09-01T20:03:35Z</time>
  <course>281.93</course>
  <speed>26.15</speed>
  <fix>3d</fix>
</trkpt>
<trkpt lat="-27.2750092" lon="151.2897136">
  <ele>373.35</ele>
  <time>2026-09-01T20:03:35Z</time>
  <course>263.7</course>
  <speed>26.853990392491017</speed>
  <fix>3d</fix>
</trkpt>
<trkpt lat="-27.2750231" lon="151.2897684">
  <ele>373.06</ele>
  <time>2026-09-01T20:03:35Z</time>
  <course>285.95</course>
  <speed>26.85</speed>
  <fix>3d</fix>
</trkpt>
<trkpt lat="-27.2750026" lon="151.2896875">
  <ele>373.13</ele>
  <time>2026-09-01T20:03:35Z</time>
  <course>266.04</course>
  <speed>26.853990392491017</speed>
  <fix>3d</fix>
</trkpt>
<trkpt lat="-27.2750231" lon="151.2897684">
  <ele>373.06</ele>
  <time>2026-09-01T20:03:35Z</time>
  <course>285.95</course>
  <speed>26.85</speed>
  <fix>3d</fix>
</trkpt>
<trkpt lat="-27.2749902" lon="151.2896611">
  <ele>373.26</ele>
  <time>2026-09-01T20:03:35Z</time>
  <course>268.48</course>
  <speed>27.576107412033338</speed>
  <fix>3d</fix>
</trkpt>
<trkpt lat="-27.275008" lon="151.2897161">
  <ele>373.2</ele>
  <time>2026-09-01T20:03:35Z</time>
  <course>290.02</course>
  <speed>27.58</speed>
  <fix>3d</fix>
</trkpt>
<trkpt lat="-27.2749818" lon="151.289635">
  <ele>373.32</ele>
  <time>2026-09-01T20:03:35Z</time>
  <course>271.04</course>
  <speed>27.576107412033338</speed>
  <fix>3d</fix>
</trkpt>
<trkpt lat="-27.275008" lon="151.2897161">
  <ele>373.2</ele>
  <time>2026-09-01T20:03:35Z</time>
  <course>290.02</course>
  <speed>27.58</speed>
  <fix>3d</fix>
</trkpt>
<trkpt lat="-27.2749673" lon="151.2896091">
  <ele>373.63</ele>
  <time>2026-09-01T20:03:35Z</time>
  <course>273.62</course>
  <speed>28.311075571231836</speed>
  <fix>3d</fix>
</trkpt>
<trkpt lat="-27.2749891" lon="151.2896639">
  <ele>373.37</ele>
  <time>2026-09-01T20:03:35Z</time>
  <course>294.17</course>
  <speed>28.31</speed>
  <fix>3d</fix>
</trkpt>
<trkpt lat="-27.2749569" lon="151.289583">
  <ele>373.65</ele>
  <time>2026-09-01T20:03:35Z</time>
  <course>276.18</course>
  <speed>28.311075571231836</speed>
  <fix>3d</fix>
</trkpt>
<trkpt lat="-27.2749891" lon="151.2896639">
  <ele>373.37</ele>
  <time>2026-09-01T20:03:35Z</time>
  <course>294.17</course>
  <speed>28.31</speed>
  <fix>3d</fix>
</trkpt>
<trkpt lat="-27.2749402" lon="151.2895577">
  <ele>373.65</ele>
  <time>2026-09-01T20:03:35Z</time>
  <course>278.86</course>
  <speed>29.05290691135742</speed>
  <fix>3d</fix>
</trkpt>
<trkpt lat="-27.2749662" lon="151.2896119">
  <ele>373.56</ele>
  <time>2026-09-01T20:03:35Z</time>
  <course>298.42</course>
  <speed>29.05</speed>
  <fix>3d</fix>
</trkpt>
<trkpt lat="-27.2749277" lon="151.2895319">
  <ele>373.71</ele>
  <time>2026-09-01T20:03:35Z</time>
  <course>281.59</course>
  <speed>29.05290691135742</speed>
  <fix>3d</fix>
</trkpt>
<trkpt lat="-27.2749662" lon="151.2896119">
  <ele>373.56</ele>
  <time>2026-09-01T20:03:35Z</time>
  <course>298.42</course>
  <speed>29.05</speed>
  <fix>3d</fix>
</trkpt>
<trkpt lat="-27.2749088" lon="151.2895075">
  <ele>373.94</ele>
  <time>2026-09-01T20:03:35Z</time>
  <course>284.4</course>
  <speed>29.813186679722786</speed>
  <fix>3d</fix>
</trkpt>
<trkpt lat="-27.2749392" lon="151.2895606">
  <ele>373.76</ele>
  <time>2026-09-01T20:03:35Z</time>
  <course>302.79</course>
  <speed>29.81</speed>
  <fix>3d</fix>
</trkpt>
<trkpt lat="-27.2748943" lon="151.2894821">
  <ele>373.94</ele>
  <time>2026-09-01T20:03:35Z</time>
  <course>287.28</course>
  <speed>29.813186679722786</speed>
  <fix>3d</fix>
</trkpt>
<trkpt lat="-27.2749392" lon="151.2895606">
  <ele>373.76</ele>
  <time>2026-09-01T20:03:35Z</time>
  <course>302.79</course>
  <speed>29.81</speed>
  <fix>3d</fix>
</trkpt>
<trkpt lat="-27.2748731" lon="151.2894589">
  <ele>374.02</ele>
  <time>2026-09-01T20:03:35Z</time>
  <course>290.21</course>
  <speed>30.574880212357336</speed>
  <fix>3d</fix>
</trkpt>
<trkpt lat="-27.274908" lon="151.2895105">
  <ele>373.99</ele>
  <time>2026-09-01T20:03:35Z</time>
  <course>307.29</course>
  <speed>30.57</speed>
  <fix>3d</fix>
</trkpt>
<trkpt lat="-27.2748564" lon="151.2894343">
  <ele>374.14</ele>
  <time>2026-09-01T20:03:35Z</time>
  <course>293.25</course>
  <speed>30.574880212357336</speed>
  <fix>3d</fix>
</trkpt>
<trkpt lat="-27.274908" lon="151.2895105">
  <ele>373.99</ele>
  <time>2026-09-01T20:03:35Z</time>
  <course>307.29</course>
  <speed>30.57</speed>
  <fix>3d</fix>
</trkpt>
<trkpt lat="-27.2748332" lon="151.2894129">
  <ele>374.57</ele>
  <time>2026-09-01T20:03:35Z</time>
  <course>296.28</course>
  <speed>31.321725686813622</speed>
  <fix>3d</fix>
</trkpt>
<trkpt lat="-27.2748726" lon="151.2894624">
  <ele>374.24</ele>
  <time>2026-09-01T20:03:35Z</time>
  <course>311.88</course>
  <speed>31.33</speed>
  <fix>3d</fix>
</trkpt>
<trkpt lat="-27.2748144" lon="151.2893894">
  <ele>374.54</ele>
  <time>2026-09-01T20:03:35Z</time>
  <course>299.41</course>
  <speed>31.321725686813622</speed>
  <fix>3d</fix>
</trkpt>
<trkpt lat="-27.2748726" lon="151.2894624">
  <ele>374.24</ele>
  <time>2026-09-01T20:03:35Z</time>
  <course>311.88</course>
  <speed>31.33</speed>
  <fix>3d</fix>
</trkpt>
<trkpt lat="-27.274789" lon="151.2893698">
  <ele>374.68</ele>
  <time>2026-09-01T20:03:35Z</time>
  <course>302.68</course>
  <speed>32.05846222138548</speed>
  <fix>3d</fix>
</trkpt>
<trkpt lat="-27.2748329" lon="151.2894165">
  <ele>374.53</ele>
  <time>2026-09-01T20:03:35Z</time>
  <course>316.58</course>
  <speed>32.06</speed>
  <fix>3d</fix>
</trkpt>
<trkpt lat="-27.2747681" lon="151.2893475">
  <ele>374.76</ele>
  <time>2026-09-01T20:03:35Z</time>
  <course>305.96</course>
  <speed>32.05846222138548</speed>
  <fix>3d</fix>
</trkpt>
<trkpt lat="-27.2748329" lon="151.2894165">
  <ele>374.53</ele>
  <time>2026-09-01T20:03:35Z</time>
  <course>316.58</course>
  <speed>32.06</speed>
  <fix>3d</fix>
</trkpt>
<trkpt lat="-27.2747407" lon="151.2893302">
  <ele>375.14</ele>
  <time>2026-09-01T20:03:35Z</time>
  <course>309.29</course>
  <speed>32.75278461444156</speed>
  <fix>3d</fix>
</trkpt>
<trkpt lat="-27.274789" lon="151.2893735">
  <ele>374.84</ele>
  <time>2026-09-01T20:03:35Z</time>
  <course>321.41</course>
  <speed>32.76</speed>
  <fix>3d</fix>
</trkpt>
<trkpt lat="-27.2747175" lon="151.2893093">
  <ele>375.48</ele>
  <time>2026-09-01T20:03:35Z</time>
  <course>312.82</course>
  <speed>32.75278461444156</speed>
  <fix>3d</fix>
</trkpt>
<trkpt lat="-27.274789" lon="151.2893735">
  <ele>374.84</ele>
  <time>2026-09-01T20:03:35Z</time>
  <course>321.41</course>
  <speed>32.76</speed>
  <fix>3d</fix>
</trkpt>
<trkpt lat="-27.2746885" lon="151.2892949">
  <ele>375.67</ele>
  <time>2026-09-01T20:03:35Z</time>
  <course>316.38</course>
  <speed>33.417942785276296</speed>
  <fix>3d</fix>
</trkpt>
<trkpt lat="-27.274741" lon="151.2893341">
  <ele>375.19</ele>
  <time>2026-09-01T20:03:35Z</time>
  <course>326.39</course>
  <speed>33.42</speed>
  <fix>3d</fix>
</trkpt>
<trkpt lat="-27.2746638" lon="151.2892764">
  <ele>375.72</ele>
  <time>2026-09-01T20:03:35Z</time>
  <course>320.05</course>
  <speed>33.417942785276296</speed>
  <fix>3d</fix>
</trkpt>
<trkpt lat="-27.274741" lon="151.2893341">
  <ele>375.19</ele>
  <time>2026-09-01T20:03:35Z</time>
  <course>326.39</course>
  <speed>33.42</speed>
  <fix>3d</fix>
</trkpt>
<trkpt lat="-27.2746326" lon="151.2892647">
  <ele>375.8</ele>
  <time>2026-09-01T20:03:35Z</time>
  <course>323.75</course>
  <speed>34.03373032742664</speed>
  <fix>3d</fix>
</trkpt>
<trkpt lat="-27.274689" lon="151.2892991">
  <ele>375.56</ele>
  <time>2026-09-01T20:03:35Z</time>
  <course>331.53</course>
  <speed>34.03</speed>
  <fix>3d</fix>
</trkpt>
<trkpt lat="-27.2746057" lon="151.2892483">
  <ele>376.2</ele>
  <time>2026-09-01T20:03:35Z</time>
  <course>327.43</course>
  <speed>34.03373032742664</speed>
  <fix>3d</fix>
</trkpt>
<trkpt lat="-27.274689" lon="151.2892991">
  <ele>375.56</ele>
  <time>2026-09-01T20:03:35Z</time>
  <course>331.53</course>
  <speed>34.03</speed>
  <fix>3d</fix>
</trkpt>
<trkpt lat="-27.2745737" lon="151.2892401">
  <ele>376.5</ele>
  <time>2026-09-01T20:03:35Z</time>
  <course>331.19</course>
  <speed>34.56380332081526</speed>
  <fix>3d</fix>
</trkpt>
<trkpt lat="-27.2746336" lon="151.2892689">
  <ele>375.98</ele>
  <time>2026-09-01T20:03:35Z</time>
  <course>336.85</course>
  <speed>34.57</speed>
  <fix>3d</fix>
</trkpt>
<trkpt lat="-27.2745451" lon="151.2892264">
  <ele>376.6</ele>
  <time>2026-09-01T20:03:35Z</time>
  <course>334.83</course>
  <speed>34.56380332081526</speed>
  <fix>3d</fix>
</trkpt>
<trkpt lat="-27.2746336" lon="151.2892689">
  <ele>375.98</ele>
  <time>2026-09-01T20:03:35Z</time>
  <course>336.85</course>
  <speed>34.57</speed>
  <fix>3d</fix>
</trkpt>
<trkpt lat="-27.2745123" lon="151.2892217">
  <ele>376.71</ele>
  <time>2026-09-01T20:03:35Z</time>
  <course>338.44</course>
  <speed>34.9993042787996</speed>
  <fix>3d</fix>
</trkpt>
<trkpt lat="-27.2745751" lon="151.2892443">
  <ele>376.44</ele>
  <time>2026-09-01T20:03:35Z</time>
  <course>342.23</course>
  <speed>35.0</speed>
  <fix>3d</fix>
</trkpt>
<trkpt lat="-27.2744823" lon="151.2892109">
  <ele>377.04</ele>
  <time>2026-09-01T20:03:35Z</time>
  <course>341.94</course>
  <speed>34.9993042787996</speed>
  <fix>3d</fix>
</trkpt>
<trkpt lat="-27.2745751" lon="151.2892443">
  <ele>376.44</ele>
  <time>2026-09-01T20:03:35Z</time>
  <course>342.23</course>
  <speed>35.0</speed>
  <fix>3d</fix>
</trkpt>
<trkpt lat="-27.2744491" lon="151.2892098">
  <ele>377.32</ele>
  <time>2026-09-01T20:03:35Z</time>
  <course>345.27</course>
  <speed>35.29243545010743</speed>
  <fix>3d</fix>
</trkpt>
<trkpt lat="-27.2745141" lon="151.2892259">
  <ele>376.94</ele>
  <time>2026-09-01T20:03:35Z</time>
  <course>347.52</course>
  <speed>35.3</speed>
  <fix>3d</fix>
</trkpt>
<trkpt lat="-27.2744182" lon="151.2892021">
  <ele>377.85</ele>
  <time>2026-09-01T20:03:35Z</time>
  <course>348.59</course>
  <speed>35.29243545010743</speed>
  <fix>3d</fix>
</trkpt>
<trkpt lat="-27.2745141" lon="151.2892259">
  <ele>376.94</ele>
  <time>2026-09-01T20:03:35Z</time>
  <course>347.52</course>
  <speed>35.3</speed>
  <fix>3d</fix>
</trkpt>
<trkpt lat="-27.2743852" lon="151.2892038">
  <ele>377.98</ele>
  <time>2026-09-01T20:03:35Z</time>
  <course>351.86</course>
  <speed>35.45963338783976</speed>
  <fix>3d</fix>
</trkpt>
<trkpt lat="-27.2744515" lon="151.2892135">
  <ele>377.47</ele>
  <time>2026-09-01T20:03:35Z</time>
  <course>352.54</course>
  <speed>35.46</speed>
  <fix>3d</fix>
</trkpt>
<trkpt lat="-27.2743536" lon="151.2891991">
  <ele>378.18</ele>
  <time>2026-09-01T20:03:35Z</time>
  <course>355.05</course>
  <speed>35.45963338783976</speed>
  <fix>3d</fix>
</trkpt>
<trkpt lat="-27.2744515" lon="151.2892135">
  <ele>377.47</ele>
  <time>2026-09-01T20:03:35Z</time>
  <course>352.54</course>
  <speed>35.46</speed>
  <fix>3d</fix>
</trkpt>
<trkpt lat="-27.2743211" lon="151.2892037">
  <ele>378.31</ele>
  <time>2026-09-01T20:03:35Z</time>
  <course>358.23</course>
  <speed>35.4993028100553</speed>
  <fix>3d</fix>
</trkpt>
<trkpt lat="-27.2743879" lon="151.2892072">
  <ele>378.01</ele>
  <time>2026-09-01T20:03:35Z</time>
  <course>357.29</course>
  <speed>35.5</speed>
  <fix>3d</fix>
</trkpt>
<trkpt lat="-27.2742892" lon="151.289202">
  <ele>378.63</ele>
  <time>2026-09-01T20:03:35Z</time>
  <course>1.27</course>
  <speed>35.4993028100553</speed>
  <fix>3d</fix>
</trkpt>
<trkpt lat="-27.2743879" lon="151.2892072">
  <ele>378.01</ele>
  <time>2026-09-01T20:03:35Z</time>
  <course>357.29</course>
  <speed>35.5</speed>
  <fix>3d</fix>
</trkpt>
<trkpt lat="-27.2742573" lon="151.289209">
  <ele>378.81</ele>
  <time>2026-09-01T20:03:35Z</time>
  <course>4.37</course>
  <speed>35.42834599582656</speed>
  <fix>3d</fix>
</trkpt>
<trkpt lat="-27.2743241" lon="151.2892066">
  <ele>378.53</ele>
  <time>2026-09-01T20:03:35Z</time>
  <course>1.85</course>
  <speed>35.43</speed>
  <fix>3d</fix>
</trkpt>
<trkpt lat="-27.2742255" lon="151.2892101">
  <ele>379.02</ele>
  <time>2026-09-01T20:03:35Z</time>
  <course>7.4</course>
  <speed>35.42834599582656</speed>
  <fix>3d</fix>
</trkpt>
<trkpt lat="-27.2743241" lon="151.2892066">
  <ele>378.53</ele>
  <time>2026-09-01T20:03:35Z</time>
  <course>1.85</course>
  <speed>35.43</speed>
  <fix>3d</fix>
</trkpt>
<trkpt lat="-27.2741946" lon="151.2892198">
  <ele>379.28</ele>
  <time>2026-09-01T20:03:35Z</time>
  <course>10.39</course>
  <speed>35.28845845315434</speed>
  <fix>3d</fix>
</trkpt>
<trkpt lat="-27.2742607" lon="151.2892117">
  <ele>379.03</ele>
  <time>2026-09-01T20:03:35Z</time>
  <course>6.23</course>
  <speed>35.29</speed>
  <fix>3d</fix>
</trkpt>
<trkpt lat="-27.2741631" lon="151.2892237">
  <ele>379.76</ele>
  <time>2026-09-01T20:03:35Z</time>
  <course>13.39</course>
  <speed>35.28845845315434</speed>
  <fix>3d</fix>
</trkpt>
<trkpt lat="-27.2742607" lon="151.2892117">
  <ele>379.03</ele>
  <time>2026-09-01T20:03:35Z</time>
  <course>6.23</course>
  <speed>35.29</speed>
  <fix>3d</fix>
</trkpt>
<trkpt lat="-27.2741332" lon="151.2892356">
  <ele>379.84</ele>
  <time>2026-09-01T20:03:35Z</time>
  <course>16.35</course>
  <speed>35.07694684547103</speed>
  <fix>3d</fix>
</trkpt>
<trkpt lat="-27.2741982" lon="151.2892221">
  <ele>379.49</ele>
  <time>2026-09-01T20:03:35Z</time>
  <course>10.5</course>
  <speed>35.07</speed>
  <fix>3d</fix>
</trkpt>
<trkpt lat="-27.2741022" lon="151.2892421">
  <ele>380.18</ele>
  <time>2026-09-01T20:03:35Z</time>
  <course>19.24</course>
  <speed>35.07694684547103</speed>
  <fix>3d</fix>
</trkpt>
<trkpt lat="-27.2741982" lon="151.2892221">
  <ele>379.49</ele>
  <time>2026-09-01T20:03:35Z</time>
  <course>10.5</course>
  <speed>35.07</speed>
  <fix>3d</fix>
</trkpt>
<trkpt lat="-27.2740736" lon="151.289256">
  <ele>380.38</ele>
  <time>2026-09-01T20:03:35Z</time>
  <course>22.1</course>
  <speed>34.771965719527564</speed>
  <fix>3d</fix>
</trkpt>
<trkpt lat="-27.274137" lon="151.2892374">
  <ele>379.89</ele>
  <time>2026-09-01T20:03:35Z</time>
  <course>14.67</course>
  <speed>34.78</speed>
  <fix>3d</fix>
</trkpt>
<trkpt lat="-27.2740434" lon="151.2892649">
  <ele>380.15</ele>
  <time>2026-09-01T20:03:35Z</time>
  <course>25.0</course>
  <speed>34.771965719527564</speed>
  <fix>3d</fix>
</trkpt>
<trkpt lat="-27.274137" lon="151.2892374">
  <ele>379.89</ele>
  <time>2026-09-01T20:03:35Z</time>
  <course>14.67</course>
  <speed>34.78</speed>
  <fix>3d</fix>
</trkpt>
<trkpt lat="-27.2740161" lon="151.2892809">
  <ele>380.38</ele>
  <time>2026-09-01T20:03:35Z</time>
  <course>27.82</course>
  <speed>34.406104109590785</speed>
  <fix>3d</fix>
</trkpt>
<trkpt lat="-27.2740775" lon="151.2892575">
  <ele>380.23</ele>
  <time>2026-09-01T20:03:35Z</time>
  <course>18.74</course>
  <speed>34.41</speed>
  <fix>3d</fix>
</trkpt>
<trkpt lat="-27.2739868" lon="151.2892921">
  <ele>380.64</ele>
  <time>2026-09-01T20:03:35Z</time>
  <course>30.68</course>
  <speed>34.406104109590785</speed>
  <fix>3d</fix>
</trkpt>
<trkpt lat="-27.2740775" lon="151.2892575">
  <ele>380.23</ele>
  <time>2026-09-01T20:03:35Z</time>
  <course>18.74</course>
  <speed>34.41</speed>
  <fix>3d</fix>
</trkpt>
<trkpt lat="-27.273961" lon="151.2893098">
  <ele>380.49</ele>
  <time>2026-09-01T20:03:35Z</time>
  <course>33.5</course>
  <speed>33.97393854118183</speed>
  <fix>3d</fix>
</trkpt>
<trkpt lat="-27.2740201" lon="151.289282">
  <ele>380.5</ele>
  <time>2026-09-01T20:03:35Z</time>
  <course>22.76</course>
  <speed>33.97</speed>
  <fix>3d</fix>
</trkpt>
<trkpt lat="-27.2739329" lon="151.2893231">
  <ele>380.61</ele>
  <time>2026-09-01T20:03:35Z</time>
  <course>36.34</course>
  <speed>33.97393854118183</speed>
  <fix>3d</fix>
</trkpt>
<trkpt lat="-27.2740201" lon="151.289282">
  <ele>380.5</ele>
  <time>2026-09-01T20:03:35Z</time>
  <course>22.76</course>
  <speed>33.97</speed>
  <fix>3d</fix>
</trkpt>
<trkpt lat="-27.2739087" lon="151.2893425">
  <ele>380.7</ele>
  <time>2026-09-01T20:03:35Z</time>
  <course>39.28</course>
  <speed>33.49198411560593</speed>
  <fix>3d</fix>
</trkpt>
<trkpt lat="-27.2739651" lon="151.2893106">
  <ele>380.69</ele>
  <time>2026-09-01T20:03:35Z</time>
  <course>26.74</course>
  <speed>33.49</speed>
  <fix>3d</fix>
</trkpt>
<trkpt lat="-27.2738819" lon="151.2893578">
  <ele>380.99</ele>
  <time>2026-09-01T20:03:35Z</time>
  <course>42.22</course>
  <speed>33.49198411560593</speed>
  <fix>3d</fix>
</trkpt>
<trkpt lat="-27.2739651" lon="151.2893106">
  <ele>380.69</ele>
  <time>2026-09-01T20:03:35Z</time>
  <course>26.74</course>
  <speed>33.49</speed>
  <fix>3d</fix>
</trkpt>
<trkpt lat="-27.2738594" lon="151.2893787">
  <ele>380.69</ele>
  <time>2026-09-01T20:03:35Z</time>
  <course>45.23</course>
  <speed>32.95531823545329</speed>
  <fix>3d</fix>
</trkpt>
<trkpt lat="-27.2739128" lon="151.2893429">
  <ele>380.81</ele>
  <time>2026-09-01T20:03:35Z</time>
  <course>30.78</course>
  <speed>32.96</speed>
  <fix>3d</fix>
</trkpt>
<trkpt lat="-27.273834" lon="151.2893957">
  <ele>380.73</ele>
  <time>2026-09-01T20:03:35Z</time>
  <course>48.29</course>
  <speed>32.95531823545329</speed>
  <fix>3d</fix>
</trkpt>
<trkpt lat="-27.2739128" lon="151.2893429">
  <ele>380.81</ele>
  <time>2026-09-01T20:03:35Z</time>
  <course>30.78</course>
  <speed>32.96</speed>
  <fix>3d</fix>
</trkpt>
<trkpt lat="-27.2738135" lon="151.289418">
  <ele>380.95</ele>
  <time>2026-09-01T20:03:35Z</time>
  <course>51.39</course>
  <speed>32.35310804235043</speed>
  <fix>3d</fix>
</trkpt>
<trkpt lat="-27.2738635" lon="151.2893787">
  <ele>380.85</ele>
  <time>2026-09-01T20:03:35Z</time>
  <course>34.99</course>
  <speed>32.35</speed>
  <fix>3d</fix>
</trkpt>
<trkpt lat="-27.2737897" lon="151.2894368">
  <ele>380.71</ele>
  <time>2026-09-01T20:03:35Z</time>
  <course>54.51</course>
  <speed>32.35310804235043</speed>
  <fix>3d</fix>
</trkpt>
<trkpt lat="-27.2738635" lon="151.2893787">
  <ele>380.85</ele>
  <time>2026-09-01T20:03:35Z</time>
  <course>34.99</course>
  <speed>32.35</speed>
  <fix>3d</fix>
</trkpt>
<trkpt lat="-27.2737715" lon="151.2894605">
  <ele>380.76</ele>
  <time>2026-09-01T20:03:35Z</time>
  <course>57.7</course>
  <speed>31.67322212847945</speed>
  <fix>3d</fix>
</trkpt>
<trkpt lat="-27.2738176" lon="151.2894179">
  <ele>380.81</ele>
  <time>2026-09-01T20:03:35Z</time>
  <course>39.41</course>
  <speed>31.67</speed>
  <fix>3d</fix>
</trkpt>
<trkpt lat="-27.2737495" lon="151.2894809">
  <ele>380.58</ele>
  <time>2026-09-01T20:03:35Z</time>
  <course>60.91</course>
  <speed>31.67322212847945</speed>
  <fix>3d</fix>
</trkpt>
<trkpt lat="-27.2738176" lon="151.2894179">
  <ele>380.81</ele>
  <time>2026-09-01T20:03:35Z</time>
  <course>39.41</course>
  <speed>31.67</speed>
  <fix>3d</fix>
</trkpt>
<trkpt lat="-27.2737337" lon="151.2895056">
  <ele>380.6</ele>
  <time>2026-09-01T20:03:35Z</time>
  <course>64.14</course>
  <speed>30.911947528423376</speed>
  <fix>3d</fix>
</trkpt>
<trkpt lat="-27.2737756" lon="151.28946">
  <ele>380.71</ele>
  <time>2026-09-01T20:03:35Z</time>
  <course>44.04</course>
  <speed>30.91</speed>
  <fix>3d</fix>
</trkpt>
<trkpt lat="-27.2737138" lon="151.2895273">
  <ele>380.33</ele>
  <time>2026-09-01T20:03:35Z</time>
  <course>67.5</course>
  <speed>30.911947528423376</speed>
  <fix>3d</fix>
</trkpt>
<trkpt lat="-27.2737756" lon="151.28946">
  <ele>380.71</ele>
  <time>2026-09-01T20:03:35Z</time>
  <course>44.04</course>
  <speed>30.91</speed>
  <fix>3d</fix>
</trkpt>
<trkpt lat="-27.2737005" lon="151.2895528">
  <ele>380.25</ele>
  <time>2026-09-01T20:03:35Z</time>
  <course>70.88</course>
  <speed>30.078630287963577</speed>
  <fix>3d</fix>
</trkpt>
<trkpt lat="-27.2737378" lon="151.2895047">
  <ele>380.56</ele>
  <time>2026-09-01T20:03:35Z</time>
  <course>48.88</course>
  <speed>30.08</speed>
  <fix>3d</fix>
</trkpt>
<trkpt lat="-27.2736828" lon="151.2895757">
  <ele>380.38</ele>
  <time>2026-09-01T20:03:35Z</time>
  <course>74.22</course>
  <speed>30.078630287963577</speed>
  <fix>3d</fix>
</trkpt>
<trkpt lat="-27.2737378" lon="151.2895047">
  <ele>380.56</ele>
  <time>2026-09-01T20:03:35Z</time>
  <course>48.88</course>
  <speed>30.08</speed>
  <fix>3d</fix>
</trkpt>
<trkpt lat="-27.2736723" lon="151.2896014">
  <ele>380.26</ele>
  <time>2026-09-01T20:03:35Z</time>
  <course>77.64</course>
  <speed>29.165229297915694</speed>
  <fix>3d</fix>
</trkpt>
<trkpt lat="-27.2737046" lon="151.2895514">
  <ele>380.35</ele>
  <time>2026-09-01T20:03:35Z</time>
  <course>53.98</course>
  <speed>29.16</speed>
  <fix>3d</fix>
</trkpt>
<trkpt lat="-27.2736569" lon="151.2896253">
  <ele>379.99</ele>
  <time>2026-09-01T20:03:35Z</time>
  <course>81.12</course>
  <speed>29.165229297915694</speed>
  <fix>3d</fix>
</trkpt>
<trkpt lat="-27.2737046" lon="151.2895514">
  <ele>380.35</ele>
  <time>2026-09-01T20:03:35Z</time>
  <course>53.98</course>
  <speed>29.16</speed>
  <fix>3d</fix>
</trkpt>
<trkpt lat="-27.2736494" lon="151.2896512">
  <ele>379.66</ele>
  <time>2026-09-01T20:03:35Z</time>
  <course>84.53</course>
  <speed>28.16913381699906</speed>
  <fix>3d</fix>
</trkpt>
<trkpt lat="-27.2736764" lon="151.2895998">
  <ele>380.1</ele>
  <time>2026-09-01T20:03:35Z</time>
  <course>59.37</course>
  <speed>28.17</speed>
  <fix>3d</fix>
</trkpt>
<trkpt lat="-27.2736365" lon="151.2896757">
  <ele>379.64</ele>
  <time>2026-09-01T20:03:35Z</time>
  <course>87.9</course>
  <speed>28.16913381699906</speed>
  <fix>3d</fix>
</trkpt>
<trkpt lat="-27.2736764" lon="151.2895998">
  <ele>380.1</ele>
  <time>2026-09-01T20:03:35Z</time>
  <course>59.37</course>
  <speed>28.17</speed>
  <fix>3d</fix>
</trkpt>
<trkpt lat="-27.2736316" lon="151.2897013">
  <ele>379.44</ele>
  <time>2026-09-01T20:03:35Z</time>
  <course>91.25</course>
  <speed>27.10696220530807</speed>
  <fix>3d</fix>
</trkpt>
<trkpt lat="-27.2736532" lon="151.2896492">
  <ele>379.82</ele>
  <time>2026-09-01T20:03:35Z</time>
  <course>65.0</course>
  <speed>27.11</speed>
  <fix>3d</fix>
</trkpt>
<trkpt lat="-27.2736213" lon="151.2897261">
  <ele>379.29</ele>
  <time>2026-09-01T20:03:35Z</time>
  <course>94.58</course>
  <speed>27.10696220530807</speed>
  <fix>3d</fix>
</trkpt>
<trkpt lat="-27.2736532" lon="151.2896492">
  <ele>379.82</ele>
  <time>2026-09-01T20:03:35Z</time>
  <course>65.0</course>
  <speed>27.11</speed>
  <fix>3d</fix>
</trkpt>
<trkpt lat="-27.2736191" lon="151.289751">
  <ele>379.29</ele>
  <time>2026-09-01T20:03:35Z</time>
  <course>97.8</course>
  <speed>26.002407580837584</speed>
  <fix>3d</fix>
</trkpt>
<trkpt lat="-27.2736352" lon="151.2896989">
  <ele>379.51</ele>
  <time>2026-09-01T20:03:35Z</time>
  <course>70.82</course>
  <speed>26.0</speed>
  <fix>3d</fix>
</trkpt>
<trkpt lat="-27.2736115" lon="151.2897758">
  <ele>378.94</ele>
  <time>2026-09-01T20:03:35Z</time>
  <course>100.94</course>
  <speed>26.002407580837584</speed>
  <fix>3d</fix>
</trkpt>
<trkpt lat="-27.2736352" lon="151.2896989">
  <ele>379.51</ele>
  <time>2026-09-01T20:03:35Z</time>
  <course>70.82</course>
  <speed>26.0</speed>
  <fix>3d</fix>
</trkpt>
<trkpt lat="-27.2736118" lon="151.2897995">
  <ele>378.93</ele>
  <time>2026-09-01T20:03:35Z</time>
  <course>103.91</course>
  <speed>24.87195408487238</speed>
  <fix>3d</fix>
</trkpt>
<trkpt lat="-27.2736225" lon="151.2897482">
  <ele>379.18</ele>
  <time>2026-09-01T20:03:35Z</time>
  <course>76.73</course>
  <speed>24.87</speed>
  <fix>3d</fix>
</trkpt>
<trkpt lat="-27.2736067" lon="151.2898238">
  <ele>378.63</ele>
  <time>2026-09-01T20:03:35Z</time>
  <course>106.76</course>
  <speed>24.87195408487238</speed>
  <fix>3d</fix>
</trkpt>
<trkpt lat="-27.2736225" lon="151.2897482">
  <ele>379.18</ele>
  <time>2026-09-01T20:03:35Z</time>
  <course>76.73</course>
  <speed>24.87</speed>
  <fix>3d</fix>
</trkpt>
<trkpt lat="-27.2736088" lon="151.2898465">
  <ele>378.61</ele>
  <time>2026-09-01T20:03:35Z</time>
  <course>109.49</course>
  <speed>23.750555782970636</speed>
  <fix>3d</fix>
</trkpt>
<trkpt lat="-27.2736146" lon="151.2897966">
  <ele>378.82</ele>
  <time>2026-09-01T20:03:35Z</time>
  <course>82.54</course>
  <speed>23.75</speed>
  <fix>3d</fix>
</trkpt>
<trkpt lat="-27.2736061" lon="151.2898704">
  <ele>378.19</ele>
  <time>2026-09-01T20:03:35Z</time>
  <course>112.06</course>
  <speed>23.750555782970636</speed>
  <fix>3d</fix>
</trkpt>
<trkpt lat="-27.2736146" lon="151.2897966">
  <ele>378.82</ele>
  <time>2026-09-01T20:03:35Z</time>
  <course>82.54</course>
  <speed>23.75</speed>
  <fix>3d</fix>
</trkpt>
<trkpt lat="-27.2736099" lon="151.2898914">
  <ele>378.24</ele>
  <time>2026-09-01T20:03:35Z</time>
  <course>114.47</course>
  <speed>22.672079745801884</speed>
  <fix>3d</fix>
</trkpt>
<trkpt lat="-27.2736112" lon="151.2898433">
  <ele>378.44</ele>
  <time>2026-09-01T20:03:35Z</time>
  <course>88.13</course>
  <speed>22.68</speed>
  <fix>3d</fix>
</trkpt>
<trkpt lat="-27.2736092" lon="151.2899143">
  <ele>377.8</ele>
  <time>2026-09-01T20:03:35Z</time>
  <course>116.76</course>
  <speed>22.672079745801884</speed>
  <fix>3d</fix>
</trkpt>
<trkpt lat="-27.2736112" lon="151.2898433">
  <ele>378.44</ele>
  <time>2026-09-01T20:03:35Z</time>
  <course>88.13</course>
  <speed>22.68</speed>
  <fix>3d</fix>
</trkpt>
<trkpt lat="-27.2736141" lon="151.2899341">
  <ele>377.54</ele>
  <time>2026-09-01T20:03:35Z</time>
  <course>118.88</course>
  <speed>21.67841553250606</speed>
  <fix>3d</fix>
</trkpt>
<trkpt lat="-27.2736117" lon="151.2898882">
  <ele>378.03</ele>
  <time>2026-09-01T20:03:35Z</time>
  <course>93.41</course>
  <speed>21.68</speed>
  <fix>3d</fix>
</trkpt>
<trkpt lat="-27.2736152" lon="151.289956">
  <ele>377.43</ele>
  <time>2026-09-01T20:03:35Z</time>
  <course>120.83</course>
  <speed>21.67841553250606</speed>
  <fix>3d</fix>
</trkpt>
<trkpt lat="-27.2736117" lon="151.2898882">
  <ele>378.03</ele>
  <time>2026-09-01T20:03:35Z</time>
  <course>93.41</course>
  <speed>21.68</speed>
  <fix>3d</fix>
</trkpt>
<trkpt lat="-27.2736212" lon="151.2899747">
  <ele>377.21</ele>
  <time>2026-09-01T20:03:35Z</time>
  <course>122.66</course>
  <speed>20.776277337386503</speed>
  <fix>3d</fix>
</trkpt>
<trkpt lat="-27.2736156" lon="151.2899309">
  <ele>377.59</ele>
  <time>2026-09-01T20:03:35Z</time>
  <course>98.29</course>
  <speed>20.78</speed>
  <fix>3d</fix>
</trkpt>
<trkpt lat="-27.2736239" lon="151.2899955">
  <ele>376.93</ele>
  <time>2026-09-01T20:03:35Z</time>
  <course>124.32</course>
  <speed>20.776277337386503</speed>
  <fix>3d</fix>
</trkpt>
<trkpt lat="-27.2736156" lon="151.2899309">
  <ele>377.59</ele>
  <time>2026-09-01T20:03:35Z</time>
  <course>98.29</course>
  <speed>20.78</speed>
  <fix>3d</fix>
</trkpt>
<trkpt lat="-27.2736305" lon="151.2900126">
  <ele>376.77</ele>
  <time>2026-09-01T20:03:35Z</time>
  <course>125.86</course>
  <speed>19.988048929297726</speed>
  <fix>3d</fix>
</trkpt>
<trkpt lat="-27.2736223" lon="151.2899713">
  <ele>377.09</ele>
  <time>2026-09-01T20:03:35Z</time>
  <course>102.69</course>
  <speed>19.99</speed>
  <fix>3d</fix>
</trkpt>
<trkpt lat="-27.2736345" lon="151.2900323">
  <ele>376.28</ele>
  <time>2026-09-01T20:03:35Z</time>
  <course>127.3</course>
  <speed>19.988048929297726</speed>
  <fix>3d</fix>
</trkpt>
<trkpt lat="-27.2736223" lon="151.2899713">
  <ele>377.09</ele>
  <time>2026-09-01T20:03:35Z</time>
  <course>102.69</course>
  <speed>19.99</speed>
  <fix>3d</fix>
</trkpt>
<trkpt lat="-27.2736416" lon="151.290049">
  <ele>376.03</ele>
  <time>2026-09-01T20:03:35Z</time>
  <course>128.65</course>
  <speed>19.303111148206135</speed>
  <fix>3d</fix>
</trkpt>
<trkpt lat="-27.2736312" lon="151.2900098">
  <ele>376.53</ele>
  <time>2026-09-01T20:03:35Z</time>
  <course>106.59</course>
  <speed>19.31</speed>
  <fix>3d</fix>
</trkpt>
<trkpt lat="-27.2736465" lon="151.2900677">
  <ele>375.51</ele>
  <time>2026-09-01T20:03:35Z</time>
  <course>129.97</course>
  <speed>19.303111148206135</speed>
  <fix>3d</fix>
</trkpt>
<trkpt lat="-27.2736312" lon="151.2900098">
  <ele>376.53</ele>
  <time>2026-09-01T20:03:35Z</time>
  <course>106.59</course>
  <speed>19.31</speed>
  <fix>3d</fix>
</trkpt>
<trkpt lat="-27.2736541" lon="151.2900835">
  <ele>375.23</ele>
  <time>2026-09-01T20:03:35Z</time>
  <course>131.27</course>
  <speed>18.73436414720286</speed>
  <fix>3d</fix>
</trkpt>
<trkpt lat="-27.273642" lon="151.2900462">
  <ele>375.9</ele>
  <time>2026-09-01T20:03:35Z</time>
  <course>110.05</course>
  <speed>18.74</speed>
  <fix>3d</fix>
</trkpt>
<trkpt lat="-27.2736599" lon="151.2901013">
  <ele>374.87</ele>
  <time>2026-09-01T20:03:35Z</time>
  <course>132.49</course>
  <speed>18.73436414720286</speed>
  <fix>3d</fix>
</trkpt>
<trkpt lat="-27.273642" lon="151.2900462">
  <ele>375.9</ele>
  <time>2026-09-01T20:03:35Z</time>
  <course>110.05</course>
  <speed>18.74</speed>
  <fix>3d</fix>
</trkpt>
<trkpt lat="-27.2736678" lon="151.2901165">
  <ele>374.62</ele>
  <time>2026-09-01T20:03:35Z</time>
  <course>133.67</course>
  <speed>18.263419723589557</speed>
  <fix>3d</fix>
</trkpt>
<trkpt lat="-27.2736542" lon="151.2900809">
  <ele>375.2</ele>
  <time>2026-09-01T20:03:35Z</time>
  <course>113.27</course>
  <speed>18.27</speed>
  <fix>3d</fix>
</trkpt>
<trkpt lat="-27.2736743" lon="151.2901334">
  <ele>374.12</ele>
  <time>2026-09-01T20:03:35Z</time>
  <course>134.86</course>
  <speed>18.263419723589557</speed>
  <fix>3d</fix>
</trkpt>
<trkpt lat="-27.2736542" lon="151.2900809">
  <ele>375.2</ele>
  <time>2026-09-01T20:03:35Z</time>
  <course>113.27</course>
  <speed>18.27</speed>
  <fix>3d</fix>
</trkpt>
<trkpt lat="-27.2736828" lon="151.290148">
  <ele>373.6</ele>
  <time>2026-09-01T20:03:35Z</time>
  <course>136.08</course>
  <speed>17.888669598379863</speed>
  <fix>3d</fix>
</trkpt>
<trkpt lat="-27.2736679" lon="151.290114">
  <ele>374.44</ele>
  <time>2026-09-01T20:03:35Z</time>
  <course>116.36</course>
  <speed>17.89</speed>
  <fix>3d</fix>
</trkpt>
<trkpt lat="-27.27369" lon="151.2901642">
  <ele>373.37</ele>
  <time>2026-09-01T20:03:35Z</time>
  <course>137.31</course>
  <speed>17.888669598379863</speed>
  <fix>3d</fix>
</trkpt>
<trkpt lat="-27.2736679" lon="151.290114">
  <ele>374.44</ele>
  <time>2026-09-01T20:03:35Z</time>
  <course>116.36</course>
  <speed>17.89</speed>
  <fix>3d</fix>
</trkpt>
<trkpt lat="-27.2736991" lon="151.2901783">
  <ele>372.99</ele>
  <time>2026-09-01T20:03:35Z</time>
  <course>138.51</course>
  <speed>17.610738201449706</speed>
  <fix>3d</fix>
</trkpt>
<trkpt lat="-27.2736828" lon="151.2901458">
  <ele>373.62</ele>
  <time>2026-09-01T20:03:35Z</time>
  <course>119.42</course>
  <speed>17.61</speed>
  <fix>3d</fix>
</trkpt>
<trkpt lat="-27.2737068" lon="151.2901938">
  <ele>372.57</ele>
  <time>2026-09-01T20:03:35Z</time>
  <course>139.65</course>
  <speed>17.610738201449706</speed>
  <fix>3d</fix>
</trkpt>
<trkpt lat="-27.2736828" lon="151.2901458">
  <ele>373.62</ele>
  <time>2026-09-01T20:03:35Z</time>
  <course>119.42</course>
  <speed>17.61</speed>
  <fix>3d</fix>
</trkpt>
<trkpt lat="-27.2737166" lon="151.2902071">
  <ele>372.05</ele>
  <time>2026-09-01T20:03:35Z</time>
  <course>140.78</course>
  <speed>17.407061785378943</speed>
  <fix>3d</fix>
</trkpt>
<trkpt lat="-27.273699" lon="151.2901761">
  <ele>372.78</ele>
  <time>2026-09-01T20:03:35Z</time>
  <course>122.57</course>
  <speed>17.41</speed>
  <fix>3d</fix>
</trkpt>
<trkpt lat="-27.273725" lon="151.2902219">
  <ele>371.74</ele>
  <time>2026-09-01T20:03:35Z</time>
  <course>141.88</course>
  <speed>17.407061785378943</speed>
  <fix>3d</fix>
</trkpt>
<trkpt lat="-27.273699" lon="151.2901761">
  <ele>372.78</ele>
  <time>2026-09-01T20:03:35Z</time>
  <course>122.57</course>
  <speed>17.41</speed>
  <fix>3d</fix>
</trkpt>
<trkpt lat="-27.2737355" lon="151.2902348">
  <ele>371.23</ele>
  <time>2026-09-01T20:03:35Z</time>
  <course>142.95</course>
  <speed>17.29314893245299</speed>
  <fix>3d</fix>
</trkpt>
<trkpt lat="-27.2737165" lon="151.2902051">
  <ele>371.95</ele>
  <time>2026-09-01T20:03:35Z</time>
  <course>125.79</course>
  <speed>17.3</speed>
  <fix>3d</fix>
</trkpt>
<trkpt lat="-27.2737446" lon="151.290249">
  <ele>370.97</ele>
  <time>2026-09-01T20:03:35Z</time>
  <course>143.93</course>
  <speed>17.29314893245299</speed>
  <fix>3d</fix>
</trkpt>
<trkpt lat="-27.2737165" lon="151.2902051">
  <ele>371.95</ele>
  <time>2026-09-01T20:03:35Z</time>
  <course>125.79</course>
  <speed>17.3</speed>
  <fix>3d</fix>
</trkpt>
<trkpt lat="-27.2737557" lon="151.2902612">
  <ele>370.54</ele>
  <time>2026-09-01T20:03:35Z</time>
  <course>144.83</course>
  <speed>17.243366840614396</speed>
  <fix>3d</fix>
</trkpt>
<trkpt lat="-27.2737353" lon="151.2902328">
  <ele>371.15</ele>
  <time>2026-09-01T20:03:35Z</time>
  <course>128.95</course>
  <speed>17.25</speed>
  <fix>3d</fix>
</trkpt>
<trkpt lat="-27.2737655" lon="151.2902748">
  <ele>370.14</ele>
  <time>2026-09-01T20:03:35Z</time>
  <course>145.74</course>
  <speed>17.243366840614396</speed>
  <fix>3d</fix>
</trkpt>
<trkpt lat="-27.2737353" lon="151.2902328">
  <ele>371.15</ele>
  <time>2026-09-01T20:03:35Z</time>
  <course>128.95</course>
  <speed>17.25</speed>
  <fix>3d</fix>
</trkpt>
<trkpt lat="-27.2737772" lon="151.2902866">
  <ele>369.83</ele>
  <time>2026-09-01T20:03:35Z</time>
  <course>146.6</course>
  <speed>17.277876026873212</speed>
  <fix>3d</fix>
</trkpt>
<trkpt lat="-27.2737555" lon="151.2902594">
  <ele>370.41</ele>
  <time>2026-09-01T20:03:35Z</time>
  <course>131.94</course>
  <speed>17.28</speed>
  <fix>3d</fix>
</trkpt>
<trkpt lat="-27.2737876" lon="151.2902996">
  <ele>369.67</ele>
  <time>2026-09-01T20:03:35Z</time>
  <course>147.46</course>
  <speed>17.277876026873212</speed>
  <fix>3d</fix>
</trkpt>
<trkpt lat="-27.2737555" lon="151.2902594">
  <ele>370.41</ele>
  <time>2026-09-01T20:03:35Z</time>
  <course>131.94</course>
  <speed>17.28</speed>
  <fix>3d</fix>
</trkpt>
<trkpt lat="-27.2737999" lon="151.290311">
  <ele>369.1</ele>
  <time>2026-09-01T20:03:35Z</time>
  <course>148.2</course>
  <speed>17.352682789701422</speed>
  <fix>3d</fix>
</trkpt>
<trkpt lat="-27.2737769" lon="151.2902849">
  <ele>369.75</ele>
  <time>2026-09-01T20:03:35Z</time>
  <course>134.68</course>
  <speed>17.35</speed>
  <fix>3d</fix>
</trkpt>
<trkpt lat="-27.2738108" lon="151.2903235">
  <ele>368.92</ele>
  <time>2026-09-01T20:03:35Z</time>
  <course>148.87</course>
  <speed>17.352682789701422</speed>
  <fix>3d</fix>
</trkpt>
<trkpt lat="-27.2737769" lon="151.2902849">
  <ele>369.75</ele>
  <time>2026-09-01T20:03:35Z</time>
  <course>134.68</course>
  <speed>17.35</speed>
  <fix>3d</fix>
</trkpt>
<trkpt lat="-27.2738235" lon="151.2903345">
  <ele>368.85</ele>
  <time>2026-09-01T20:03:35Z</time>
  <course>149.51</course>
  <speed>17.46299516119729</speed>
  <fix>3d</fix>
</trkpt>
<trkpt lat="-27.2737994" lon="151.2903093">
  <ele>369.18</ele>
  <time>2026-09-01T20:03:35Z</time>
  <course>137.1</course>
  <speed>17.47</speed>
  <fix>3d</fix>
</trkpt>
<trkpt lat="-27.273835" lon="151.2903465">
  <ele>368.46</ele>
  <time>2026-09-01T20:03:35Z</time>
  <course>150.07</course>
  <speed>17.46299516119729</speed>
  <fix>3d</fix>
</trkpt>
<trkpt lat="-27.2737994" lon="151.2903093">
  <ele>369.18</ele>
  <time>2026-09-01T20:03:35Z</time>
  <course>137.1</course>
  <speed>17.47</speed>
  <fix>3d</fix>
</trkpt>
<trkpt lat="-27.2738479" lon="151.2903574">
  <ele>368.4</ele>
  <time>2026-09-01T20:03:35Z</time>
  <course>150.54</course>
  <speed>17.604047829973652</speed>
  <fix>3d</fix>
</trkpt>
<trkpt lat="-27.2738228" lon="151.290333">
  <ele>368.7</ele>
  <time>2026-09-01T20:03:35Z</time>
  <course>139.16</course>
  <speed>17.6</speed>
  <fix>3d</fix>
</trkpt>
<trkpt lat="-27.2738598" lon="151.290369">
  <ele>368.21</ele>
  <time>2026-09-01T20:03:35Z</time>
  <course>150.96</course>
  <speed>17.604047829973652</speed>
  <fix>3d</fix>
</trkpt>
<trkpt lat="-27.2738228" lon="151.290333">
  <ele>368.7</ele>
  <time>2026-09-01T20:03:35Z</time>
  <course>139.16</course>
  <speed>17.6</speed>
  <fix>3d</fix>
</trkpt>
<trkpt lat="-27.2738733" lon="151.2903797">
  <ele>368.23</ele>
  <time>2026-09-01T20:03:35Z</time>
  <course>151.39</course>
  <speed>17.749729575404803</speed>
  <fix>3d</fix>
</trkpt>
<trkpt lat="-27.2738472" lon="151.2903559">
  <ele>368.31</ele>
  <time>2026-09-01T20:03:35Z</time>
  <course>140.87</course>
  <speed>17.75</speed>
  <fix>3d</fix>
</trkpt>
<trkpt lat="-27.2738856" lon="151.2903911">
  <ele>367.77</ele>
  <time>2026-09-01T20:03:35Z</time>
  <course>151.78</course>
  <speed>17.749729575404803</speed>
  <fix>3d</fix>
</trkpt>
<trkpt lat="-27.2738472" lon="151.2903559">
  <ele>368.31</ele>
  <time>2026-09-01T20:03:35Z</time>
  <course>140.87</course>
  <speed>17.75</speed>
  <fix>3d</fix>
</trkpt>
<trkpt lat="-27.2738989" lon="151.2904015">
  <ele>367.7</ele>
  <time>2026-09-01T20:03:35Z</time>
  <course>152.2</course>
  <speed>17.898159123217113</speed>
  <fix>3d</fix>
</trkpt>
<trkpt lat="-27.2738723" lon="151.2903783">
  <ele>368.01</ele>
  <time>2026-09-01T20:03:35Z</time>
  <course>142.24</course>
  <speed>17.89</speed>
  <fix>3d</fix>
</trkpt>
<trkpt lat="-27.2739117" lon="151.2904126">
  <ele>367.78</ele>
  <time>2026-09-01T20:03:35Z</time>
  <course>152.56</course>
  <speed>17.898159123217113</speed>
  <fix>3d</fix>
</trkpt>
<trkpt lat="-27.2738723" lon="151.2903783">
  <ele>368.01</ele>
  <time>2026-09-01T20:03:35Z</time>
  <course>142.24</course>
  <speed>17.89</speed>
  <fix>3d</fix>
</trkpt>
<trkpt lat="-27.2739252" lon="151.290423">
  <ele>367.87</ele>
  <time>2026-09-01T20:03:35Z</time>
  <course>152.88</course>
  <speed>18.03009983333426</speed>
  <fix>3d</fix>
</trkpt>
<trkpt lat="-27.273898" lon="151.2904002">
  <ele>367.81</ele>
  <time>2026-09-01T20:03:35Z</time>
  <course>143.31</course>
  <speed>18.03</speed>
  <fix>3d</fix>
</trkpt>
<trkpt lat="-27.2739382" lon="151.2904339">
  <ele>367.72</ele>
  <time>2026-09-01T20:03:35Z</time>
  <course>153.15</course>
  <speed>18.03009983333426</speed>
  <fix>3d</fix>
</trkpt>
<trkpt lat="-27.273898" lon="151.2904002">
  <ele>367.81</ele>
  <time>2026-09-01T20:03:35Z</time>
  <course>143.31</course>
  <speed>18.03</speed>
  <fix>3d</fix>
</trkpt>
<trkpt lat="-27.2739518" lon="151.2904444">
  <ele>367.57</ele>
  <time>2026-09-01T20:03:35Z</time>
  <course>153.32</course>
  <speed>18.145261089331285</speed>
  <fix>3d</fix>
</trkpt>
<trkpt lat="-27.2739241" lon="151.2904219">
  <ele>367.68</ele>
  <time>2026-09-01T20:03:35Z</time>
  <course>144.22</course>
  <speed>18.15</speed>
  <fix>3d</fix>
</trkpt>
<trkpt lat="-27.2739649" lon="151.290455">
  <ele>367.44</ele>
  <time>2026-09-01T20:03:35Z</time>
  <course>153.54</course>
  <speed>18.145261089331285</speed>
  <fix>3d</fix>
</trkpt>
<trkpt lat="-27.2739241" lon="151.2904219">
  <ele>367.68</ele>
  <time>2026-09-01T20:03:35Z</time>
  <course>144.22</course>
  <speed>18.15</speed>
  <fix>3d</fix>
</trkpt>
<trkpt lat="-27.2739789" lon="151.2904653">
  <ele>367.72</ele>
  <time>2026-09-01T20:03:35Z</time>
  <course>153.8</course>
  <speed>18.232007569107687</speed>
  <fix>3d</fix>
</trkpt>
<trkpt lat="-27.2739508" lon="151.2904432">
  <ele>367.62</ele>
  <time>2026-09-01T20:03:35Z</time>
  <course>145.01</course>
  <speed>18.24</speed>
  <fix>3d</fix>
</trkpt>
<trkpt lat="-27.2739924" lon="151.2904759">
  <ele>367.74</ele>
  <time>2026-09-01T20:03:35Z</time>
  <course>154.05</course>
  <speed>18.232007569107687</speed>
  <fix>3d</fix>
</trkpt>
<trkpt lat="-27.2739508" lon="151.2904432">
  <ele>367.62</ele>
  <time>2026-09-01T20:03:35Z</time>
  <course>145.01</course>
  <speed>18.24</speed>
  <fix>3d</fix>
</trkpt>
<trkpt lat="-27.2740064" lon="151.2904859">
  <ele>367.82</ele>
  <time>2026-09-01T20:03:35Z</time>
  <course>154.33</course>
  <speed>18.30319371038836</speed>
  <fix>3d</fix>
</trkpt>
<trkpt lat="-27.2739779" lon="151.2904641">
  <ele>367.63</ele>
  <time>2026-09-01T20:03:35Z</time>
  <course>145.74</course>
  <speed>18.31</speed>
  <fix>3d</fix>
</trkpt>
<trkpt lat="-27.27402" lon="151.2904963">
  <ele>367.63</ele>
  <time>2026-09-01T20:03:35Z</time>
  <course>154.6</course>
  <speed>18.30319371038836</speed>
  <fix>3d</fix>
</trkpt>
<trkpt lat="-27.2739779" lon="151.2904641">
  <ele>367.63</ele>
  <time>2026-09-01T20:03:35Z</time>
  <course>145.74</course>
  <speed>18.31</speed>
  <fix>3d</fix>
</trkpt>
<trkpt lat="-27.2740341" lon="151.2905063">
  <ele>367.87</ele>
  <time>2026-09-01T20:03:35Z</time>
  <course>154.83</course>
  <speed>18.349574926956755</speed>
  <fix>3d</fix>
</trkpt>
<trkpt lat="-27.2740053" lon="151.2904848">
  <ele>367.68</ele>
  <time>2026-09-01T20:03:35Z</time>
  <course>146.49</course>
  <speed>18.35</speed>
  <fix>3d</fix>
</trkpt>
<trkpt lat="-27.2740479" lon="151.2905165">
  <ele>367.92</ele>
  <time>2026-09-01T20:03:35Z</time>
  <course>155.07</course>
  <speed>18.349574926956755</speed>
  <fix>3d</fix>
</trkpt>
<trkpt lat="-27.2740053" lon="151.2904848">
  <ele>367.68</ele>
  <time>2026-09-01T20:03:35Z</time>
  <course>146.49</course>
  <speed>18.35</speed>
  <fix>3d</fix>
</trkpt>
<trkpt lat="-27.274062" lon="151.2905261">
  <ele>368.05</ele>
  <time>2026-09-01T20:03:35Z</time>
  <course>155.31</course>
  <speed>18.363542686529744</speed>
  <fix>3d</fix>
</trkpt>
<trkpt lat="-27.2740329" lon="151.2905051">
  <ele>367.78</ele>
  <time>2026-09-01T20:03:35Z</time>
  <course>147.32</course>
  <speed>18.37</speed>
  <fix>3d</fix>
</trkpt>
<trkpt lat="-27.2740759" lon="151.2905361">
  <ele>368.01</ele>
  <time>2026-09-01T20:03:35Z</time>
  <course>155.57</course>
  <speed>18.363542686529744</speed>
  <fix>3d</fix>
</trkpt>
<trkpt lat="-27.2740329" lon="151.2905051">
  <ele>367.78</ele>
  <time>2026-09-01T20:03:35Z</time>
  <course>147.32</course>
  <speed>18.37</speed>
  <fix>3d</fix>
</trkpt>
<trkpt lat="-27.2740902" lon="151.2905453">
  <ele>368.02</ele>
  <time>2026-09-01T20:03:35Z</time>
  <course>156.02</course>
  <speed>18.351964472502665</speed>
  <fix>3d</fix>
</trkpt>
<trkpt lat="-27.2740608" lon="151.2905249">
  <ele>367.91</ele>
  <time>2026-09-01T20:03:35Z</time>
  <course>148.26</course>
  <speed>18.36</speed>
  <fix>3d</fix>
</trkpt>
<trkpt lat="-27.2741042" lon="151.2905551">
  <ele>368.05</ele>
  <time>2026-09-01T20:03:35Z</time>
  <course>156.42</course>
  <speed>18.351964472502665</speed>
  <fix>3d</fix>
</trkpt>
<trkpt lat="-27.2740608" lon="151.2905249">
  <ele>367.91</ele>
  <time>2026-09-01T20:03:35Z</time>
  <course>148.26</course>
  <speed>18.36</speed>
  <fix>3d</fix>
</trkpt>
<trkpt lat="-27.2741187" lon="151.2905639">
  <ele>368.38</ele>
  <time>2026-09-01T20:03:35Z</time>
  <course>156.8</course>
  <speed>18.31465260385793</speed>
  <fix>3d</fix>
</trkpt>
<trkpt lat="-27.274089" lon="151.2905441">
  <ele>368.06</ele>
  <time>2026-09-01T20:03:35Z</time>
  <course>149.37</course>
  <speed>18.31</speed>
  <fix>3d</fix>
</trkpt>
<trkpt lat="-27.2741328" lon="151.2905733">
  <ele>368.24</ele>
  <time>2026-09-01T20:03:35Z</time>
  <course>157.21</course>
  <speed>18.31465260385793</speed>
  <fix>3d</fix>
</trkpt>
<trkpt lat="-27.274089" lon="151.2905441">
  <ele>368.06</ele>
  <time>2026-09-01T20:03:35Z</time>
  <course>149.37</course>
  <speed>18.31</speed>
  <fix>3d</fix>
</trkpt>
<trkpt lat="-27.2741475" lon="151.2905814">
  <ele>368.6</ele>
  <time>2026-09-01T20:03:35Z</time>
  <course>157.66</course>
  <speed>18.248638305364047</speed>
  <fix>3d</fix>
</trkpt>
<trkpt lat="-27.2741175" lon="151.2905625">
  <ele>368.24</ele>
  <time>2026-09-01T20:03:35Z</time>
  <course>150.73</course>
  <speed>18.25</speed>
  <fix>3d</fix>
</trkpt>
<trkpt lat="-27.2741618" lon="151.2905904">
  <ele>368.68</ele>
  <time>2026-09-01T20:03:35Z</time>
  <course>158.17</course>
  <speed>18.248638305364047</speed>
  <fix>3d</fix>
</trkpt>
<trkpt lat="-27.2741175" lon="151.2905625">
  <ele>368.24</ele>
  <time>2026-09-01T20:03:35Z</time>
  <course>150.73</course>
  <speed>18.25</speed>
  <fix>3d</fix>
</trkpt>
<trkpt lat="-27.2741765" lon="151.290598">
  <ele>368.42</ele>
  <time>2026-09-01T20:03:35Z</time>
  <course>158.77</course>
  <speed>18.164608446096494</speed>
  <fix>3d</fix>
</trkpt>
<trkpt lat="-27.2741462" lon="151.2905801">
  <ele>368.44</ele>
  <time>2026-09-01T20:03:35Z</time>
  <course>152.34</course>
  <speed>18.17</speed>
  <fix>3d</fix>
</trkpt>
<trkpt lat="-27.274191" lon="151.2906065">
  <ele>368.7</ele>
  <time>2026-09-01T20:03:35Z</time>
  <course>159.35</course>
  <speed>18.164608446096494</speed>
  <fix>3d</fix>
</trkpt>
<trkpt lat="-27.2741462" lon="151.2905801">
  <ele>368.44</ele>
  <time>2026-09-01T20:03:35Z</time>
  <course>152.34</course>
  <speed>18.17</speed>
  <fix>3d</fix>
</trkpt>
<trkpt lat="-27.2742059" lon="151.2906133">
  <ele>368.9</ele>
  <time>2026-09-01T20:03:35Z</time>
  <course>159.96</course>
  <speed>18.06009966749907</speed>
  <fix>3d</fix>
</trkpt>
<trkpt lat="-27.2741753" lon="151.2905966">
  <ele>368.65</ele>
  <time>2026-09-01T20:03:35Z</time>
  <course>154.18</course>
  <speed>18.07</speed>
  <fix>3d</fix>
</trkpt>
<trkpt lat="-27.2742206" lon="151.2906212">
  <ele>368.92</ele>
  <time>2026-09-01T20:03:35Z</time>
  <course>160.64</course>
  <speed>18.06009966749907</speed>
  <fix>3d</fix>
</trkpt>
<trkpt lat="-27.2741753" lon="151.2905966">
  <ele>368.65</ele>
  <time>2026-09-01T20:03:35Z</time>
  <course>154.18</course>
  <speed>18.07</speed>
  <fix>3d</fix>
</trkpt>
<trkpt lat="-27.2742356" lon="151.2906271">
  <ele>369.17</ele>
  <time>2026-09-01T20:03:35Z</time>
  <course>161.38</course>
  <speed>17.950426178784724</speed>
  <fix>3d</fix>
</trkpt>
<trkpt lat="-27.2742046" lon="151.2906118">
  <ele>368.87</ele>
  <time>2026-09-01T20:03:35Z</time>
  <course>156.23</course>
  <speed>17.95</speed>
  <fix>3d</fix>
</trkpt>
<trkpt lat="-27.2742503" lon="151.2906344">
  <ele>369.35</ele>
  <time>2026-09-01T20:03:35Z</time>
  <course>162.1</course>
  <speed>17.950426178784724</speed>
  <fix>3d</fix>
</trkpt>
<trkpt lat="-27.2742046" lon="151.2906118">
  <ele>368.87</ele>
  <time>2026-09-01T20:03:35Z</time>
  <course>156.23</course>
  <speed>17.95</speed>
  <fix>3d</fix>
</trkpt>
<trkpt lat="-27.2742656" lon="151.2906395">
  <ele>369.12</ele>
  <time>2026-09-01T20:03:35Z</time>
  <course>162.81</course>
  <speed>17.82888106416104</speed>
  <fix>3d</fix>
</trkpt>
<trkpt lat="-27.2742343" lon="151.2906257">
  <ele>369.09</ele>
  <time>2026-09-01T20:03:35Z</time>
  <course>158.5</course>
  <speed>17.83</speed>
  <fix>3d</fix>
</trkpt>
<trkpt lat="-27.2742805" lon="151.2906461">
  <ele>369.32</ele>
  <time>2026-09-01T20:03:35Z</time>
  <course>163.58</course>
  <speed>17.82888106416104</speed>
  <fix>3d</fix>
</trkpt>
<trkpt lat="-27.2742343" lon="151.2906257">
  <ele>369.09</ele>
  <time>2026-09-01T20:03:35Z</time>
  <course>158.5</course>
  <speed>17.83</speed>
  <fix>3d</fix>
</trkpt>
<trkpt lat="-27.2742958" lon="151.2906504">
  <ele>369.67</ele>
  <time>2026-09-01T20:03:35Z</time>
  <course>164.37</course>
  <speed>17.709771314164392</speed>
  <fix>3d</fix>
</trkpt>
<trkpt lat="-27.2742643" lon="151.2906382">
  <ele>369.31</ele>
  <time>2026-09-01T20:03:35Z</time>
  <course>160.94</course>
  <speed>17.71</speed>
  <fix>3d</fix>
</trkpt>
<trkpt lat="-27.2743109" lon="151.2906563">
  <ele>369.46</ele>
  <time>2026-09-01T20:03:35Z</time>
  <course>165.21</course>
  <speed>17.709771314164392</speed>
  <fix>3d</fix>
</trkpt>
<trkpt lat="-27.2742643" lon="151.2906382">
  <ele>369.31</ele>
  <time>2026-09-01T20:03:35Z</time>
  <course>160.94</course>
  <speed>17.71</speed>
  <fix>3d</fix>
</trkpt>
<trkpt lat="-27.2743262" lon="151.2906597">
  <ele>369.7</ele>
  <time>2026-09-01T20:03:35Z</time>
  <course>166.09</course>
  <speed>17.585778345015044</speed>
  <fix>3d</fix>
</trkpt>
<trkpt lat="-27.2742944" lon="151.2906491">
  <ele>369.53</ele>
  <time>2026-09-01T20:03:35Z</time>
  <course>163.48</course>
  <speed>17.59</speed>
  <fix>3d</fix>
</trkpt>
<trkpt lat="-27.2743413" lon="151.2906647">
  <ele>369.73</ele>
  <time>2026-09-01T20:03:35Z</time>
  <course>167.01</course>
  <speed>17.585778345015044</speed>
  <fix>3d</fix>
</trkpt>
<trkpt lat="-27.2742944" lon="151.2906491">
  <ele>369.53</ele>
  <time>2026-09-01T20:03:35Z</time>
  <course>163.48</course>
  <speed>17.59</speed>
  <fix>3d</fix>
</trkpt>
<trkpt lat="-27.2743569" lon="151.2906672">
  <ele>370.09</ele>
  <time>2026-09-01T20:03:35Z</time>
  <course>167.96</course>
  <speed>17.47483333253854</speed>
  <fix>3d</fix>
</trkpt>
<trkpt lat="-27.2743249" lon="151.2906584">
  <ele>369.74</ele>
  <time>2026-09-01T20:03:35Z</time>
  <course>166.19</course>
  <speed>17.48</speed>
  <fix>3d</fix>
</trkpt>
<trkpt lat="-27.2743721" lon="151.2906714">
  <ele>370.04</ele>
  <time>2026-09-01T20:03:35Z</time>
  <course>168.9</course>
  <speed>17.47483333253854</speed>
  <fix>3d</fix>
</trkpt>
<trkpt lat="-27.2743249" lon="151.2906584">
  <ele>369.74</ele>
  <time>2026-09-01T20:03:35Z</time>
  <course>166.19</course>
  <speed>17.48</speed>
  <fix>3d</fix>
</trkpt>
<trkpt lat="-27.2743877" lon="151.2906728">
  <ele>370.15</ele>
  <time>2026-09-01T20:03:35Z</time>
  <course>169.83</course>
  <speed>17.372449453085192</speed>
  <fix>3d</fix>
</trkpt>
<trkpt lat="-27.2743556" lon="151.2906659">
  <ele>369.95</ele>
  <time>2026-09-01T20:03:35Z</time>
  <course>169.11</course>
  <speed>17.37</speed>
  <fix>3d</fix>
</trkpt>
<trkpt lat="-27.2744031" lon="151.2906761">
  <ele>370.37</ele>
  <time>2026-09-01T20:03:35Z</time>
  <course>170.79</course>
  <speed>17.372449453085192</speed>
  <fix>3d</fix>
</trkpt>
<trkpt lat="-27.2743556" lon="151.2906659">
  <ele>369.95</ele>
  <time>2026-09-01T20:03:35Z</time>
  <course>169.11</course>
  <speed>17.37</speed>
  <fix>3d</fix>
</trkpt>
<trkpt lat="-27.2744184" lon="151.2906767">
  <ele>370.24</ele>
  <time>2026-09-01T20:03:35Z</time>
  <course>171.77</course>
  <speed>17.271991778599247</speed>
  <fix>3d</fix>
</trkpt>
<trkpt lat="-27.2743862" lon="151.2906717">
  <ele>370.14</ele>
  <time>2026-09-01T20:03:35Z</time>
  <course>172.13</course>
  <speed>17.28</speed>
  <fix>3d</fix>
</trkpt>
<trkpt lat="-27.2744338" lon="151.2906791">
  <ele>370.38</ele>
  <time>2026-09-01T20:03:35Z</time>
  <course>172.72</course>
  <speed>17.271991778599247</speed>
  <fix>3d</fix>
</trkpt>
<trkpt lat="-27.2743862" lon="151.2906717">
  <ele>370.14</ele>
  <time>2026-09-01T20:03:35Z</time>
  <course>172.13</course>
  <speed>17.28</speed>
  <fix>3d</fix>
</trkpt>
<trkpt lat="-27.2744493" lon="151.2906785">
  <ele>370.29</ele>
  <time>2026-09-01T20:03:35Z</time>
  <course>173.67</course>
  <speed>17.189584055468007</speed>
  <fix>3d</fix>
</trkpt>
<trkpt lat="-27.274417" lon="151.2906755">
  <ele>370.33</ele>
  <time>2026-09-01T20:03:35Z</time>
  <course>175.21</course>
  <speed>17.19</speed>
  <fix>3d</fix>
</trkpt>
<trkpt lat="-27.2744647" lon="151.2906799">
  <ele>370.64</ele>
  <time>2026-09-01T20:03:35Z</time>
  <course>174.66</course>
  <speed>17.189584055468007</speed>
  <fix>3d</fix>
</trkpt>
<trkpt lat="-27.274417" lon="151.2906755">
  <ele>370.33</ele>
  <time>2026-09-01T20:03:35Z</time>
  <course>175.21</course>
  <speed>17.19</speed>
  <fix>3d</fix>
</trkpt>
<trkpt lat="-27.27448" lon="151.2906784">
  <ele>370.75</ele>
  <time>2026-09-01T20:03:35Z</time>
  <course>175.69</course>
  <speed>17.11759913071924</speed>
  <fix>3d</fix>
</trkpt>
<trkpt lat="-27.2744478" lon="151.2906774">
  <ele>370.52</ele>
  <time>2026-09-01T20:03:35Z</time>
  <course>178.26</course>
  <speed>17.12</speed>
  <fix>3d</fix>
</trkpt>
<trkpt lat="-27.2744954" lon="151.290679">
  <ele>370.62</ele>
  <time>2026-09-01T20:03:35Z</time>
  <course>176.64</course>
  <speed>17.11759913071924</speed>
  <fix>3d</fix>
</trkpt>
<trkpt lat="-27.2744478" lon="151.2906774">
  <ele>370.52</ele>
  <time>2026-09-01T20:03:35Z</time>
  <course>178.26</course>
  <speed>17.12</speed>
  <fix>3d</fix>
</trkpt>
<trkpt lat="-27.2745107" lon="151.2906767">
  <ele>370.93</ele>
  <time>2026-09-01T20:03:35Z</time>
  <course>177.62</course>
  <speed>17.06468868746219</speed>
  <fix>3d</fix>
</trkpt>
<trkpt lat="-27.2744785" lon="151.2906775">
  <ele>370.69</ele>
  <time>2026-09-01T20:03:35Z</time>
  <course>181.36</course>
  <speed>17.07</speed>
  <fix>3d</fix>
</trkpt>
<trkpt lat="-27.274526" lon="151.2906763">
  <ele>370.83</ele>
  <time>2026-09-01T20:03:35Z</time>
  <course>178.62</course>
  <speed>17.06468868746219</speed>
  <fix>3d</fix>
</trkpt>
<trkpt lat="-27.2744785" lon="151.2906775">
  <ele>370.69</ele>
  <time>2026-09-01T20:03:35Z</time>
  <course>181.36</course>
  <speed>17.07</speed>
  <fix>3d</fix>
</trkpt>
<trkpt lat="-27.274541" lon="151.2906731">
  <ele>371.13</ele>
  <time>2026-09-01T20:03:35Z</time>
  <course>179.58</course>
  <speed>17.042760926563513</speed>
  <fix>3d</fix>
</trkpt>
<trkpt lat="-27.274509" lon="151.2906759">
  <ele>370.84</ele>
  <time>2026-09-01T20:03:35Z</time>
  <course>184.51</course>
  <speed>17.04</speed>
  <fix>3d</fix>
</trkpt>
<trkpt lat="-27.2745563" lon="151.2906717">
  <ele>371.11</ele>
  <time>2026-09-01T20:03:35Z</time>
  <course>180.64</course>
  <speed>17.042760926563513</speed>
  <fix>3d</fix>
</trkpt>
<trkpt lat="-27.274509" lon="151.2906759">
  <ele>370.84</ele>
  <time>2026-09-01T20:03:35Z</time>
  <course>184.51</course>
  <speed>17.04</speed>
  <fix>3d</fix>
</trkpt>
<trkpt lat="-27.2745713" lon="151.2906674">
  <ele>371.04</ele>
  <time>2026-09-01T20:03:35Z</time>
  <course>181.67</course>
  <speed>17.031949389309492</speed>
  <fix>3d</fix>
</trkpt>
<trkpt lat="-27.2745395" lon="151.2906722">
  <ele>370.98</ele>
  <time>2026-09-01T20:03:35Z</time>
  <course>187.67</course>
  <speed>17.03</speed>
  <fix>3d</fix>
</trkpt>
<trkpt lat="-27.2745865" lon="151.2906651">
  <ele>371.2</ele>
  <time>2026-09-01T20:03:35Z</time>
  <course>182.66</course>
  <speed>17.031949389309492</speed>
  <fix>3d</fix>
</trkpt>
<trkpt lat="-27.2745395" lon="151.2906722">
  <ele>370.98</ele>
  <time>2026-09-01T20:03:35Z</time>
  <course>187.67</course>
  <speed>17.03</speed>
  <fix>3d</fix>
</trkpt>
<trkpt lat="-27.2746012" lon="151.2906599">
  <ele>371.36</ele>
  <time>2026-09-01T20:03:35Z</time>
  <course>183.63</course>
  <speed>17.033287997330405</speed>
  <fix>3d</fix>
</trkpt>
<trkpt lat="-27.2745697" lon="151.2906667">
  <ele>371.11</ele>
  <time>2026-09-01T20:03:35Z</time>
  <course>190.85</course>
  <speed>17.04</speed>
  <fix>3d</fix>
</trkpt>
<trkpt lat="-27.2746163" lon="151.2906567">
  <ele>371.25</ele>
  <time>2026-09-01T20:03:35Z</time>
  <course>184.66</course>
  <speed>17.033287997330405</speed>
  <fix>3d</fix>
</trkpt>
<trkpt lat="-27.2745697" lon="151.2906667">
  <ele>371.11</ele>
  <time>2026-09-01T20:03:35Z</time>
  <course>190.85</course>
  <speed>17.04</speed>
  <fix>3d</fix>
</trkpt>
<trkpt lat="-27.2746306" lon="151.2906505">
  <ele>371.37</ele>
  <time>2026-09-01T20:03:35Z</time>
  <course>185.69</course>
  <speed>17.067234691068148</speed>
  <fix>3d</fix>
</trkpt>
<trkpt lat="-27.2745996" lon="151.2906592">
  <ele>371.22</ele>
  <time>2026-09-01T20:03:35Z</time>
  <course>194.02</course>
  <speed>17.07</speed>
  <fix>3d</fix>
</trkpt>
<trkpt lat="-27.2746455" lon="151.2906463">
  <ele>371.27</ele>
  <time>2026-09-01T20:03:35Z</time>
  <course>186.68</course>
  <speed>17.067234691068148</speed>
  <fix>3d</fix>
</trkpt>
<trkpt lat="-27.2745996" lon="151.2906592">
  <ele>371.22</ele>
  <time>2026-09-01T20:03:35Z</time>
  <course>194.02</course>
  <speed>17.07</speed>
  <fix>3d</fix>
</trkpt>
<trkpt lat="-27.27466" lon="151.2906392">
  <ele>371.52</ele>
  <time>2026-09-01T20:03:35Z</time>
  <course>187.65</course>
  <speed>17.112130200533187</speed>
  <fix>3d</fix>
</trkpt>
<trkpt lat="-27.2746292" lon="151.2906499">
  <ele>371.33</ele>
  <time>2026-09-01T20:03:35Z</time>
  <course>197.18</course>
  <speed>17.11</speed>
  <fix>3d</fix>
</trkpt>
<trkpt lat="-27.2746748" lon="151.2906341">
  <ele>371.27</ele>
  <time>2026-09-01T20:03:35Z</time>
  <course>188.65</course>
  <speed>17.112130200533187</speed>
  <fix>3d</fix>
</trkpt>
<trkpt lat="-27.2746292" lon="151.2906499">
  <ele>371.33</ele>
  <time>2026-09-01T20:03:35Z</time>
  <course>197.18</course>
  <speed>17.11</speed>
  <fix>3d</fix>
</trkpt>
<trkpt lat="-27.2746888" lon="151.2906262">
  <ele>371.61</ele>
  <time>2026-09-01T20:03:35Z</time>
  <course>189.71</course>
  <speed>17.177127233620876</speed>
  <fix>3d</fix>
</trkpt>
<trkpt lat="-27.2746584" lon="151.2906388">
  <ele>371.41</ele>
  <time>2026-09-01T20:03:35Z</time>
  <course>200.3</course>
  <speed>17.18</speed>
  <fix>3d</fix>
</trkpt>
<trkpt lat="-27.2747032" lon="151.2906202">
  <ele>371.34</ele>
  <time>2026-09-01T20:03:35Z</time>
  <course>190.74</course>
  <speed>17.177127233620876</speed>
  <fix>3d</fix>
</trkpt>
<trkpt lat="-27.2746584" lon="151.2906388">
  <ele>371.41</ele>
  <time>2026-09-01T20:03:35Z</time>
  <course>200.3</course>
  <speed>17.18</speed>
  <fix>3d</fix>
</trkpt>
<trkpt lat="-27.274717" lon="151.2906114">
  <ele>371.4</ele>
  <time>2026-09-01T20:03:35Z</time>
  <course>191.74</course>
  <speed>17.280023148132642</speed>
  <fix>3d</fix>
</trkpt>
<trkpt lat="-27.2746871" lon="151.2906259">
  <ele>371.49</ele>
  <time>2026-09-01T20:03:35Z</time>
  <course>203.4</course>
  <speed>17.28</speed>
  <fix>3d</fix>
</trkpt>
<trkpt lat="-27.2747312" lon="151.2906044">
  <ele>371.63</ele>
  <time>2026-09-01T20:03:35Z</time>
  <course>192.79</course>
  <speed>17.280023148132642</speed>
  <fix>3d</fix>
</trkpt>
<trkpt lat="-27.2746871" lon="151.2906259">
  <ele>371.49</ele>
  <time>2026-09-01T20:03:35Z</time>
  <course>203.4</course>
  <speed>17.28</speed>
  <fix>3d</fix>
</trkpt>
<trkpt lat="-27.2747447" lon="151.2905945">
  <ele>371.55</ele>
  <time>2026-09-01T20:03:35Z</time>
  <course>193.88</course>
  <speed>17.392139028883136</speed>
  <fix>3d</fix>
</trkpt>
<trkpt lat="-27.2747154" lon="151.290611">
  <ele>371.54</ele>
  <time>2026-09-01T20:03:35Z</time>
  <course>206.54</course>
  <speed>17.4</speed>
  <fix>3d</fix>
</trkpt>
<trkpt lat="-27.2747587" lon="151.2905867">
  <ele>371.77</ele>
  <time>2026-09-01T20:03:35Z</time>
  <course>194.95</course>
  <speed>17.392139028883136</speed>
  <fix>3d</fix>
</trkpt>
<trkpt lat="-27.2747154" lon="151.290611">
  <ele>371.54</ele>
  <time>2026-09-01T20:03:35Z</time>
  <course>206.54</course>
  <speed>17.4</speed>
  <fix>3d</fix>
</trkpt>
<trkpt lat="-27.2747717" lon="151.2905759">
  <ele>371.8</ele>
  <time>2026-09-01T20:03:35Z</time>
  <course>196.03</course>
  <speed>17.539751993685655</speed>
  <fix>3d</fix>
</trkpt>
<trkpt lat="-27.274743" lon="151.2905943">
  <ele>371.59</ele>
  <time>2026-09-01T20:03:35Z</time>
  <course>209.74</course>
  <speed>17.54</speed>
  <fix>3d</fix>
</trkpt>
<trkpt lat="-27.2747854" lon="151.2905671">
  <ele>371.52</ele>
  <time>2026-09-01T20:03:35Z</time>
  <course>197.1</course>
  <speed>17.539751993685655</speed>
  <fix>3d</fix>
</trkpt>
<trkpt lat="-27.274743" lon="151.2905943">
  <ele>371.59</ele>
  <time>2026-09-01T20:03:35Z</time>
  <course>209.74</course>
  <speed>17.54</speed>
  <fix>3d</fix>
</trkpt>
<trkpt lat="-27.2747981" lon="151.2905555">
  <ele>371.59</ele>
  <time>2026-09-01T20:03:35Z</time>
  <course>198.18</course>
  <speed>17.702090272055447</speed>
  <fix>3d</fix>
</trkpt>
<trkpt lat="-27.2747701" lon="151.2905759">
  <ele>371.64</ele>
  <time>2026-09-01T20:03:35Z</time>
  <course>212.92</course>
  <speed>17.7</speed>
  <fix>3d</fix>
</trkpt>
<trkpt lat="-27.2748114" lon="151.2905458">
  <ele>371.57</ele>
  <time>2026-09-01T20:03:35Z</time>
  <course>199.26</course>
  <speed>17.702090272055447</speed>
  <fix>3d</fix>
</trkpt>
<trkpt lat="-27.2747701" lon="151.2905759">
  <ele>371.64</ele>
  <time>2026-09-01T20:03:35Z</time>
  <course>212.92</course>
  <speed>17.7</speed>
  <fix>3d</fix>
</trkpt>
<trkpt lat="-27.2748236" lon="151.2905332">
  <ele>371.63</ele>
  <time>2026-09-01T20:03:35Z</time>
  <course>200.31</course>
  <speed>17.879692391089954</speed>
  <fix>3d</fix>
</trkpt>
<trkpt lat="-27.2747964" lon="151.2905555">
  <ele>371.68</ele>
  <time>2026-09-01T20:03:35Z</time>
  <course>216.09</course>
  <speed>17.88</speed>
  <fix>3d</fix>
</trkpt>
<trkpt lat="-27.2748366" lon="151.2905225">
  <ele>371.65</ele>
  <time>2026-09-01T20:03:35Z</time>
  <course>201.41</course>
  <speed>17.879692391089954</speed>
  <fix>3d</fix>
</trkpt>
<trkpt lat="-27.2747964" lon="151.2905555">
  <ele>371.68</ele>
  <time>2026-09-01T20:03:35Z</time>
  <course>216.09</course>
  <speed>17.88</speed>
  <fix>3d</fix>
</trkpt>
<trkpt lat="-27.2748484" lon="151.290509">
  <ele>371.81</ele>
  <time>2026-09-01T20:03:35Z</time>
  <course>202.58</course>
  <speed>18.093717141593654</speed>
  <fix>3d</fix>
</trkpt>
<trkpt lat="-27.274822" lon="151.2905333">
  <ele>371.71</ele>
  <time>2026-09-01T20:03:35Z</time>
  <course>219.25</course>
  <speed>18.09</speed>
  <fix>3d</fix>
</trkpt>
<trkpt lat="-27.274861" lon="151.2904975">
  <ele>371.89</ele>
  <time>2026-09-01T20:03:35Z</time>
  <course>203.75</course>
  <speed>18.093717141593654</speed>
  <fix>3d</fix>
</trkpt>
<trkpt lat="-27.274822" lon="151.2905333">
  <ele>371.71</ele>
  <time>2026-09-01T20:03:35Z</time>
  <course>219.25</course>
  <speed>18.09</speed>
  <fix>3d</fix>
</trkpt>
<trkpt lat="-27.2748722" lon="151.290483">
  <ele>371.92</ele>
  <time>2026-09-01T20:03:35Z</time>
  <course>204.91</course>
  <speed>18.318296864064628</speed>
  <fix>3d</fix>
</trkpt>
<trkpt lat="-27.2748467" lon="151.2905092">
  <ele>371.74</ele>
  <time>2026-09-01T20:03:35Z</time>
  <course>222.42</course>
  <speed>18.32</speed>
  <fix>3d</fix>
</trkpt>
<trkpt lat="-27.2748843" lon="151.2904705">
  <ele>371.96</ele>
  <time>2026-09-01T20:03:35Z</time>
  <course>206.04</course>
  <speed>18.318296864064628</speed>
  <fix>3d</fix>
</trkpt>
<trkpt lat="-27.2748467" lon="151.2905092">
  <ele>371.74</ele>
  <time>2026-09-01T20:03:35Z</time>
  <course>222.42</course>
  <speed>18.32</speed>
  <fix>3d</fix>
</trkpt>
<trkpt lat="-27.274895" lon="151.2904552">
  <ele>371.62</ele>
  <time>2026-09-01T20:03:35Z</time>
  <course>207.23</course>
  <speed>18.56967958797351</speed>
  <fix>3d</fix>
</trkpt>
<trkpt lat="-27.2748705" lon="151.2904833">
  <ele>371.78</ele>
  <time>2026-09-01T20:03:35Z</time>
  <course>225.61</course>
  <speed>18.57</speed>
  <fix>3d</fix>
</trkpt>
<trkpt lat="-27.2749065" lon="151.2904419">
  <ele>371.81</ele>
  <time>2026-09-01T20:03:35Z</time>
  <course>208.46</course>
  <speed>18.56967958797351</speed>
  <fix>3d</fix>
</trkpt>
<trkpt lat="-27.2748705" lon="151.2904833">
  <ele>371.78</ele>
  <time>2026-09-01T20:03:35Z</time>
  <course>225.61</course>
  <speed>18.57</speed>
  <fix>3d</fix>
</trkpt>
<trkpt lat="-27.2749167" lon="151.2904254">
  <ele>371.87</ele>
  <time>2026-09-01T20:03:35Z</time>
  <course>209.66</course>
  <speed>18.836995514147155</speed>
  <fix>3d</fix>
</trkpt>
<trkpt lat="-27.2748934" lon="151.2904555">
  <ele>371.81</ele>
  <time>2026-09-01T20:03:35Z</time>
  <course>228.84</course>
  <speed>18.84</speed>
  <fix>3d</fix>
</trkpt>
<trkpt lat="-27.2749279" lon="151.2904111">
  <ele>372.03</ele>
  <time>2026-09-01T20:03:35Z</time>
  <course>210.92</course>
  <speed>18.836995514147155</speed>
  <fix>3d</fix>
</trkpt>
<trkpt lat="-27.2748934" lon="151.2904555">
  <ele>371.81</ele>
  <time>2026-09-01T20:03:35Z</time>
  <course>228.84</course>
  <speed>18.84</speed>
  <fix>3d</fix>
</trkpt>
<trkpt lat="-27.2749372" lon="151.2903938">
  <ele>371.8</ele>
  <time>2026-09-01T20:03:35Z</time>
  <course>212.1</course>
  <speed>19.139164036080572</speed>
  <fix>3d</fix>
</trkpt>
<trkpt lat="-27.2749151" lon="151.2904258">
  <ele>371.84</ele>
  <time>2026-09-01T20:03:35Z</time>
  <course>232.09</course>
  <speed>19.14</speed>
  <fix>3d</fix>
</trkpt>
<trkpt lat="-27.2749478" lon="151.2903785">
  <ele>371.73</ele>
  <time>2026-09-01T20:03:35Z</time>
  <course>213.29</course>
  <speed>19.139164036080572</speed>
  <fix>3d</fix>
</trkpt>
<trkpt lat="-27.2749151" lon="151.2904258">
  <ele>371.84</ele>
  <time>2026-09-01T20:03:35Z</time>
  <course>232.09</course>
  <speed>19.14</speed>
  <fix>3d</fix>
</trkpt>
<trkpt lat="-27.2749564" lon="151.2903605">
  <ele>371.86</ele>
  <time>2026-09-01T20:03:35Z</time>
  <course>214.6</course>
  <speed>19.456230364590155</speed>
  <fix>3d</fix>
</trkpt>
<trkpt lat="-27.2749356" lon="151.2903944">
  <ele>371.89</ele>
  <time>2026-09-01T20:03:35Z</time>
  <course>235.33</course>
  <speed>19.46</speed>
  <fix>3d</fix>
</trkpt>
<trkpt lat="-27.2749664" lon="151.2903443">
  <ele>371.8</ele>
  <time>2026-09-01T20:03:35Z</time>
  <course>215.87</course>
  <speed>19.456230364590155</speed>
  <fix>3d</fix>
</trkpt>
<trkpt lat="-27.2749356" lon="151.2903944">
  <ele>371.89</ele>
  <time>2026-09-01T20:03:35Z</time>
  <course>235.33</course>
  <speed>19.46</speed>
  <fix>3d</fix>
</trkpt>
<trkpt lat="-27.2749743" lon="151.2903254">
  <ele>371.79</ele>
  <time>2026-09-01T20:03:35Z</time>
  <course>217.13</course>
  <speed>19.801828198426527</speed>
  <fix>3d</fix>
</trkpt>
<trkpt lat="-27.2749549" lon="151.2903612">
  <ele>371.92</ele>
  <time>2026-09-01T20:03:35Z</time>
  <course>238.59</course>
  <speed>19.81</speed>
  <fix>3d</fix>
</trkpt>
<trkpt lat="-27.2749836" lon="151.2903083">
  <ele>371.86</ele>
  <time>2026-09-01T20:03:35Z</time>
  <course>218.52</course>
  <speed>19.801828198426527</speed>
  <fix>3d</fix>
</trkpt>
<trkpt lat="-27.2749549" lon="151.2903612">
  <ele>371.92</ele>
  <time>2026-09-01T20:03:35Z</time>
  <course>238.59</course>
  <speed>19.81</speed>
  <fix>3d</fix>
</trkpt>
<trkpt lat="-27.2749906" lon="151.2902884">
  <ele>372.06</ele>
  <time>2026-09-01T20:03:35Z</time>
  <course>219.92</course>
  <speed>20.177078579417785</speed>
  <fix>3d</fix>
</trkpt>
<trkpt lat="-27.2749727" lon="151.2903261">
  <ele>371.96</ele>
  <time>2026-09-01T20:03:35Z</time>
  <course>241.85</course>
  <speed>20.18</speed>
  <fix>3d</fix>
</trkpt>
<trkpt lat="-27.2749993" lon="151.2902702">
  <ele>372.05</ele>
  <time>2026-09-01T20:03:35Z</time>
  <course>221.31</course>
  <speed>20.177078579417785</speed>
  <fix>3d</fix>
</trkpt>
<trkpt lat="-27.2749727" lon="151.2903261">
  <ele>371.96</ele>
  <time>2026-09-01T20:03:35Z</time>
  <course>241.85</course>
  <speed>20.18</speed>
  <fix>3d</fix>
</trkpt>
<trkpt lat="-27.2750053" lon="151.2902496">
  <ele>372.08</ele>
  <time>2026-09-01T20:03:35Z</time>
  <course>222.78</course>
  <speed>20.58135078171499</speed>
  <fix>3d</fix>
</trkpt>
<trkpt lat="-27.274989" lon="151.2902892">
  <ele>372.0</ele>
  <time>2026-09-01T20:03:35Z</time>
  <course>245.16</course>
  <speed>20.58</speed>
  <fix>3d</fix>
</trkpt>
<trkpt lat="-27.275013" lon="151.2902307">
  <ele>371.99</ele>
  <time>2026-09-01T20:03:35Z</time>
  <course>224.25</course>
  <speed>20.58135078171499</speed>
  <fix>3d</fix>
</trkpt>
<trkpt lat="-27.274989" lon="151.2902892">
  <ele>372.0</ele>
  <time>2026-09-01T20:03:35Z</time>
  <course>245.16</course>
  <speed>20.58</speed>
  <fix>3d</fix>
</trkpt>
<trkpt lat="-27.2750181" lon="151.290209">
  <ele>371.99</ele>
  <time>2026-09-01T20:03:35Z</time>
  <course>225.71</course>
  <speed>21.013709810502288</speed>
  <fix>3d</fix>
</trkpt>
<trkpt lat="-27.2750037" lon="151.2902505">
  <ele>372.04</ele>
  <time>2026-09-01T20:03:35Z</time>
  <course>248.56</course>
  <speed>21.01</speed>
  <fix>3d</fix>
</trkpt>
<trkpt lat="-27.275025" lon="151.2901893">
  <ele>372.27</ele>
  <time>2026-09-01T20:03:35Z</time>
  <course>227.14</course>
  <speed>21.013709810502288</speed>
  <fix>3d</fix>
</trkpt>
<trkpt lat="-27.2750037" lon="151.2902505">
  <ele>372.04</ele>
  <time>2026-09-01T20:03:35Z</time>
  <course>248.56</course>
  <speed>21.01</speed>
  <fix>3d</fix>
</trkpt>
<trkpt lat="-27.275029" lon="151.2901669">
  <ele>372.31</ele>
  <time>2026-09-01T20:03:35Z</time>
  <course>228.6</course>
  <speed>21.46627121788971</speed>
  <fix>3d</fix>
</trkpt>
<trkpt lat="-27.2750165" lon="151.2902102">
  <ele>372.1</ele>
  <time>2026-09-01T20:03:35Z</time>
  <course>252.01</course>
  <speed>21.47</speed>
  <fix>3d</fix>
</trkpt>
<trkpt lat="-27.2750349" lon="151.2901463">
  <ele>372.07</ele>
  <time>2026-09-01T20:03:35Z</time>
  <course>230.16</course>
  <speed>21.46627121788971</speed>
  <fix>3d</fix>
</trkpt>
<trkpt lat="-27.2750165" lon="151.2902102">
  <ele>372.1</ele>
  <time>2026-09-01T20:03:35Z</time>
  <course>252.01</course>
  <speed>21.47</speed>
  <fix>3d</fix>
</trkpt>
<trkpt lat="-27.2750377" lon="151.290123">
  <ele>372.25</ele>
  <time>2026-09-01T20:03:35Z</time>
  <course>231.8</course>
  <speed>21.950227789250842</speed>
  <fix>3d</fix>
</trkpt>
<trkpt lat="-27.2750274" lon="151.2901681">
  <ele>372.16</ele>
  <time>2026-09-01T20:03:35Z</time>
  <course>255.48</course>
  <speed>21.95</speed>
  <fix>3d</fix>
</trkpt>
<trkpt lat="-27.2750427" lon="151.2901016">
  <ele>372.16</ele>
  <time>2026-09-01T20:03:35Z</time>
  <course>233.43</course>
  <speed>21.950227789250842</speed>
  <fix>3d</fix>
</trkpt>
<trkpt lat="-27.2750274" lon="151.2901681">
  <ele>372.16</ele>
  <time>2026-09-01T20:03:35Z</time>
  <course>255.48</course>
  <speed>21.95</speed>
  <fix>3d</fix>
</trkpt>
<trkpt lat="-27.2750442" lon="151.2900776">
  <ele>372.17</ele>
  <time>2026-09-01T20:03:35Z</time>
  <course>235.09</course>
  <speed>22.45172599155798</speed>
  <fix>3d</fix>
</trkpt>
<trkpt lat="-27.2750362" lon="151.2901243">
  <ele>372.24</ele>
  <time>2026-09-01T20:03:35Z</time>
  <course>258.99</course>
  <speed>22.45</speed>
  <fix>3d</fix>
</trkpt>
<trkpt lat="-27.2750481" lon="151.2900553">
  <ele>372.14</ele>
  <time>2026-09-01T20:03:35Z</time>
  <course>236.75</course>
  <speed>22.45172599155798</speed>
  <fix>3d</fix>
</trkpt>
<trkpt lat="-27.2750362" lon="151.2901243">
  <ele>372.24</ele>
  <time>2026-09-01T20:03:35Z</time>
  <course>258.99</course>
  <speed>22.45</speed>
  <fix>3d</fix>
</trkpt>
<trkpt lat="-27.2750484" lon="151.2900309">
  <ele>372.27</ele>
  <time>2026-09-01T20:03:35Z</time>
  <course>238.42</course>
  <speed>22.984005308039762</speed>
  <fix>3d</fix>
</trkpt>
<trkpt lat="-27.2750428" lon="151.290079">
  <ele>372.32</ele>
  <time>2026-09-01T20:03:35Z</time>
  <course>262.53</course>
  <speed>22.98</speed>
  <fix>3d</fix>
</trkpt>
<trkpt lat="-27.275051" lon="151.2900079">
  <ele>372.35</ele>
  <time>2026-09-01T20:03:35Z</time>
  <course>240.13</course>
  <speed>22.984005308039762</speed>
  <fix>3d</fix>
</trkpt>
<trkpt lat="-27.2750428" lon="151.290079">
  <ele>372.32</ele>
  <time>2026-09-01T20:03:35Z</time>
  <course>262.53</course>
  <speed>22.98</speed>
  <fix>3d</fix>
</trkpt>
<trkpt lat="-27.2750499" lon="151.2899823">
  <ele>372.57</ele>
  <time>2026-09-01T20:03:35Z</time>
  <course>241.94</course>
  <speed>23.543750763206784</speed>
  <fix>3d</fix>
</trkpt>
<trkpt lat="-27.2750469" lon="151.2900321">
  <ele>372.4</ele>
  <time>2026-09-01T20:03:35Z</time>
  <course>266.1</course>
  <speed>23.54</speed>
  <fix>3d</fix>
</trkpt>
<trkpt lat="-27.2750513" lon="151.2899585">
  <ele>372.54</ele>
  <time>2026-09-01T20:03:35Z</time>
  <course>243.81</course>
  <speed>23.543750763206784</speed>
  <fix>3d</fix>
</trkpt>
<trkpt lat="-27.2750469" lon="151.2900321">
  <ele>372.4</ele>
  <time>2026-09-01T20:03:35Z</time>
  <course>266.1</course>
  <speed>23.54</speed>
  <fix>3d</fix>
</trkpt>
<trkpt lat="-27.2750486" lon="151.2899326">
  <ele>372.64</ele>
  <time>2026-09-01T20:03:35Z</time>
  <course>245.66</course>
  <speed>24.140250620074347</speed>
  <fix>3d</fix>
</trkpt>
<trkpt lat="-27.2750484" lon="151.2899838">
  <ele>372.5</ele>
  <time>2026-09-01T20:03:35Z</time>
  <course>269.73</course>
  <speed>24.14</speed>
  <fix>3d</fix>
</trkpt>
<trkpt lat="-27.2750487" lon="151.2899082">
  <ele>372.66</ele>
  <time>2026-09-01T20:03:35Z</time>
  <course>247.59</course>
  <speed>24.140250620074347</speed>
  <fix>3d</fix>
</trkpt>
<trkpt lat="-27.2750484" lon="151.2899838">
  <ele>372.5</ele>
  <time>2026-09-01T20:03:35Z</time>
  <course>269.73</course>
  <speed>24.14</speed>
  <fix>3d</fix>
</trkpt>
<trkpt lat="-27.2750446" lon="151.289882">
  <ele>372.81</ele>
  <time>2026-09-01T20:03:35Z</time>
  <course>249.6</course>
  <speed>24.754282457788996</speed>
  <fix>3d</fix>
</trkpt>
<trkpt lat="-27.2750473" lon="151.2899344">
  <ele>372.6</ele>
  <time>2026-09-01T20:03:35Z</time>
  <course>273.43</course>
  <speed>24.75</speed>
  <fix>3d</fix>
</trkpt>
<trkpt lat="-27.2750432" lon="151.289857">
  <ele>372.65</ele>
  <time>2026-09-01T20:03:35Z</time>
  <course>251.59</course>
  <speed>24.754282457788996</speed>
  <fix>3d</fix>
</trkpt>
<trkpt lat="-27.2750473" lon="151.2899344">
  <ele>372.6</ele>
  <time>2026-09-01T20:03:35Z</time>
  <course>273.43</course>
  <speed>24.75</speed>
  <fix>3d</fix>
</trkpt>
<trkpt lat="-27.2750372" lon="151.2898306">
  <ele>372.82</ele>
  <time>2026-09-01T20:03:35Z</time>
  <course>253.64</course>
  <speed>25.39118350924194</speed>
  <fix>3d</fix>
</trkpt>
<trkpt lat="-27.2750432" lon="151.289884">
  <ele>372.72</ele>
  <time>2026-09-01T20:03:35Z</time>
  <course>277.23</course>
  <speed>25.39</speed>
  <fix>3d</fix>
</trkpt>
<trkpt lat="-27.2750343" lon="151.2898051">
  <ele>372.98</ele>
  <time>2026-09-01T20:03:35Z</time>
  <course>255.77</course>
  <speed>25.39118350924194</speed>
  <fix>3d</fix>
</trkpt>
<trkpt lat="-27.2750432" lon="151.289884">
  <ele>372.72</ele>
  <time>2026-09-01T20:03:35Z</time>
  <course>277.23</course>
  <speed>25.39</speed>
  <fix>3d</fix>
</trkpt>
<trkpt lat="-27.2750264" lon="151.2897785">
  <ele>372.84</ele>
  <time>2026-09-01T20:03:35Z</time>
  <course>257.9</course>
  <speed>26.046375947528666</speed>
  <fix>3d</fix>
</trkpt>
<trkpt lat="-27.2750358" lon="151.2898327">
  <ele>372.85</ele>
  <time>2026-09-01T20:03:35Z</time>
  <course>281.08</course>
  <speed>26.05</speed>
  <fix>3d</fix>
</trkpt>
<trkpt lat="-27.2750219" lon="151.2897526">
  <ele>372.99</ele>
  <time>2026-09-01T20:03:35Z</time>
  <course>260.14</course>
  <speed>26.046375947528666</speed>
  <fix>3d</fix>
</trkpt>
<trkpt lat="-27.2750358" lon="151.2898327">
  <ele>372.85</ele>
  <time>2026-09-01T20:03:35Z</time>
  <course>281.08</course>
  <speed>26.05</speed>
  <fix>3d</fix>
</trkpt>
<trkpt lat="-27.2750121" lon="151.289726">
  <ele>373.19</ele>
  <time>2026-09-01T20:03:35Z</time>
  <course>262.47</course>
  <speed>26.728645682114163</speed>
  <fix>3d</fix>
</trkpt>
<trkpt lat="-27.2750251" lon="151.2897808">
  <ele>372.99</ele>
  <time>2026-09-01T20:03:35Z</time>
  <course>284.99</course>
  <speed>26.73</speed>
  <fix>3d</fix>
</trkpt>
<trkpt lat="-27.2750059" lon="151.2896999">
  <ele>373.39</ele>
  <time>2026-09-01T20:03:35Z</time>
  <course>264.75</course>
  <speed>26.728645682114163</speed>
  <fix>3d</fix>
</trkpt>
<trkpt lat="-27.2750251" lon="151.2897808">
  <ele>372.99</ele>
  <time>2026-09-01T20:03:35Z</time>
  <course>284.99</course>
  <speed>26.73</speed>
  <fix>3d</fix>
</trkpt>
<trkpt lat="-27.2749941" lon="151.2896735">
  <ele>373.32</ele>
  <time>2026-09-01T20:03:35Z</time>
  <course>267.09</course>
  <speed>27.434075526614706</speed>
  <fix>3d</fix>
</trkpt>
<trkpt lat="-27.2750109" lon="151.2897285">
  <ele>373.15</ele>
  <time>2026-09-01T20:03:35Z</time>
  <course>289.01</course>
  <speed>27.43</speed>
  <fix>3d</fix>
</trkpt>
<trkpt lat="-27.2749861" lon="151.2896473">
  <ele>373.41</ele>
  <time>2026-09-01T20:03:35Z</time>
  <course>269.59</course>
  <speed>27.434075526614706</speed>
  <fix>3d</fix>
</trkpt>
<trkpt lat="-27.2750109" lon="151.2897285">
  <ele>373.15</ele>
  <time>2026-09-01T20:03:35Z</time>
  <course>289.01</course>
  <speed>27.43</speed>
  <fix>3d</fix>
</trkpt>
<trkpt lat="-27.2749721" lon="151.2896212">
  <ele>373.43</ele>
  <time>2026-09-01T20:03:35Z</time>
  <course>272.14</course>
  <speed>28.153431407201502</speed>
  <fix>3d</fix>
</trkpt>
<trkpt lat="-27.2749929" lon="151.2896761">
  <ele>373.31</ele>
  <time>2026-09-01T20:03:35Z</time>
  <course>293.12</course>
  <speed>28.16</speed>
  <fix>3d</fix>
</trkpt>
<trkpt lat="-27.274962" lon="151.2895947">
  <ele>373.72</ele>
  <time>2026-09-01T20:03:35Z</time>
  <course>274.71</course>
  <speed>28.153431407201502</speed>
  <fix>3d</fix>
</trkpt>
<trkpt lat="-27.2749929" lon="151.2896761">
  <ele>373.31</ele>
  <time>2026-09-01T20:03:35Z</time>
  <course>293.12</course>
  <speed>28.16</speed>
  <fix>3d</fix>
</trkpt>
<trkpt lat="-27.2749461" lon="151.2895695">
  <ele>373.71</ele>
  <time>2026-09-01T20:03:35Z</time>
  <course>277.43</course>
  <speed>28.89280187174653</speed>
  <fix>3d</fix>
</trkpt>
<trkpt lat="-27.2749711" lon="151.2896239">
  <ele>373.49</ele>
  <time>2026-09-01T20:03:35Z</time>
  <course>297.36</course>
  <speed>28.9</speed>
  <fix>3d</fix>
</trkpt>
<trkpt lat="-27.2749342" lon="151.2895435">
  <ele>373.92</ele>
  <time>2026-09-01T20:03:35Z</time>
  <course>280.22</course>
  <speed>28.89280187174653</speed>
  <fix>3d</fix>
</trkpt>
<trkpt lat="-27.2749711" lon="151.2896239">
  <ele>373.49</ele>
  <time>2026-09-01T20:03:35Z</time>
  <course>297.36</course>
  <speed>28.9</speed>
  <fix>3d</fix>
</trkpt>
<trkpt lat="-27.2749157" lon="151.289519">
  <ele>373.92</ele>
  <time>2026-09-01T20:03:35Z</time>
  <course>283.0</course>
  <speed>29.654820855975508</speed>
  <fix>3d</fix>
</trkpt>
<trkpt lat="-27.2749451" lon="151.2895725">
  <ele>373.69</ele>
  <time>2026-09-01T20:03:35Z</time>
  <course>301.74</course>
  <speed>29.66</speed>
  <fix>3d</fix>
</trkpt>
<trkpt lat="-27.2749018" lon="151.2894938">
  <ele>373.97</ele>
  <time>2026-09-01T20:03:35Z</time>
  <course>285.86</course>
  <speed>29.654820855975508</speed>
  <fix>3d</fix>
</trkpt>
<trkpt lat="-27.2749451" lon="151.2895725">
  <ele>373.69</ele>
  <time>2026-09-01T20:03:35Z</time>
  <course>301.74</course>
  <speed>29.66</speed>
  <fix>3d</fix>
</trkpt>
<trkpt lat="-27.274881" lon="151.2894701">
  <ele>374.17</ele>
  <time>2026-09-01T20:03:35Z</time>
  <course>288.83</course>
  <speed>30.41974687600145</speed>
  <fix>3d</fix>
</trkpt>
<trkpt lat="-27.2749149" lon="151.2895221">
  <ele>373.91</ele>
  <time>2026-09-01T20:03:35Z</time>
  <course>306.26</course>
  <speed>30.42</speed>
  <fix>3d</fix>
</trkpt>
<trkpt lat="-27.2748648" lon="151.2894453">
  <ele>374.3</ele>
  <time>2026-09-01T20:03:35Z</time>
  <course>291.84</course>
  <speed>30.41974687600145</speed>
  <fix>3d</fix>
</trkpt>
<trkpt lat="-27.2749149" lon="151.2895221">
  <ele>373.91</ele>
  <time>2026-09-01T20:03:35Z</time>
  <course>306.26</course>
  <speed>30.42</speed>
  <fix>3d</fix>
</trkpt>
<trkpt lat="-27.2748418" lon="151.2894233">
  <ele>374.58</ele>
  <time>2026-09-01T20:03:35Z</time>
  <course>294.88</course>
  <speed>31.1787267219173</speed>
  <fix>3d</fix>
</trkpt>
<trkpt lat="-27.2748803" lon="151.2894733">
  <ele>374.16</ele>
  <time>2026-09-01T20:03:35Z</time>
  <course>310.89</course>
  <speed>31.18</speed>
  <fix>3d</fix>
</trkpt>
<trkpt lat="-27.2748235" lon="151.2893995">
  <ele>374.58</ele>
  <time>2026-09-01T20:03:35Z</time>
  <course>297.94</course>
  <speed>31.1787267219173</speed>
  <fix>3d</fix>
</trkpt>
<trkpt lat="-27.2748803" lon="151.2894733">
  <ele>374.16</ele>
  <time>2026-09-01T20:03:35Z</time>
  <course>310.89</course>
  <speed>31.18</speed>
  <fix>3d</fix>
</trkpt>
<trkpt lat="-27.2747985" lon="151.2893795">
  <ele>374.69</ele>
  <time>2026-09-01T20:03:35Z</time>
  <course>301.22</course>
  <speed>31.920604630865</speed>
  <fix>3d</fix>
</trkpt>
<trkpt lat="-27.2748415" lon="151.2894269">
  <ele>374.44</ele>
  <time>2026-09-01T20:03:35Z</time>
  <course>315.6</course>
  <speed>31.92</speed>
  <fix>3d</fix>
</trkpt>
<trkpt lat="-27.274778" lon="151.289357">
  <ele>374.73</ele>
  <time>2026-09-01T20:03:35Z</time>
  <course>304.52</course>
  <speed>31.920604630865</speed>
  <fix>3d</fix>
</trkpt>
<trkpt lat="-27.2748415" lon="151.2894269">
  <ele>374.44</ele>
  <time>2026-09-01T20:03:35Z</time>
  <course>315.6</course>
  <speed>31.92</speed>
  <fix>3d</fix>
</trkpt>
<trkpt lat="-27.274751" lon="151.2893392">
  <ele>374.91</ele>
  <time>2026-09-01T20:03:35Z</time>
  <course>307.98</course>
  <speed>32.63045509949256</speed>
  <fix>3d</fix>
</trkpt>
<trkpt lat="-27.2747984" lon="151.2893833">
  <ele>374.75</ele>
  <time>2026-09-01T20:03:35Z</time>
  <course>320.42</course>
  <speed>32.63</speed>
  <fix>3d</fix>
</trkpt>
<trkpt lat="-27.2747284" lon="151.2893182">
  <ele>375.24</ele>
  <time>2026-09-01T20:03:35Z</time>
  <course>311.5</course>
  <speed>32.63045509949256</speed>
  <fix>3d</fix>
</trkpt>
<trkpt lat="-27.2747984" lon="151.2893833">
  <ele>374.75</ele>
  <time>2026-09-01T20:03:35Z</time>
  <course>320.42</course>
  <speed>32.63</speed>
  <fix>3d</fix>
</trkpt>
<trkpt lat="-27.2746994" lon="151.2893031">
  <ele>375.56</ele>
  <time>2026-09-01T20:03:35Z</time>
  <course>314.93</course>
  <speed>33.30520980267202</speed>
  <fix>3d</fix>
</trkpt>
<trkpt lat="-27.2747511" lon="151.2893431">
  <ele>375.1</ele>
  <time>2026-09-01T20:03:35Z</time>
  <course>325.44</course>
  <speed>33.3</speed>
  <fix>3d</fix>
</trkpt>
<trkpt lat="-27.2746748" lon="151.289284">
  <ele>375.5</ele>
  <time>2026-09-01T20:03:36Z</time>
  <course>318.45</course>
  <speed>33.30520980267202</speed>
  <fix>3d</fix>
</trkpt>
<trkpt lat="-27.2747511" lon="151.2893431">
  <ele>375.1</ele>
  <time>2026-09-01T20:03:36Z</time>
  <course>325.44</course>
  <speed>33.3</speed>
  <fix>3d</fix>
</trkpt>
<trkpt lat="-27.2746442" lon="151.2892719">
  <ele>375.65</ele>
  <time>2026-09-01T20:03:36Z</time>
  <course>322.11</course>
  <speed>33.9266281849523</speed>
  <fix>3d</fix>
</trkpt>
<trkpt lat="-27.2746999" lon="151.2893072">
  <ele>375.47</ele>
  <time>2026-09-01T20:03:36Z</time>
  <course>330.6</course>
  <speed>33.93</speed>
  <fix>3d</fix>
</trkpt>
<trkpt lat="-27.2746176" lon="151.2892551">
  <ele>376.15</ele>
  <time>2026-09-01T20:03:36Z</time>
  <course>325.73</course>
  <speed>33.9266281849523</speed>
  <fix>3d</fix>
</trkpt>
<trkpt lat="-27.2746999" lon="151.2893072">
  <ele>375.47</ele>
  <time>2026-09-01T20:03:36Z</time>
  <course>330.6</course>
  <speed>33.93</speed>
  <fix>3d</fix>
</trkpt>
<trkpt lat="-27.2745858" lon="151.2892462">
  <ele>376.26</ele>
  <time>2026-09-01T20:03:36Z</time>
  <course>329.41</course>
  <speed>34.479322789173224</speed>
  <fix>3d</fix>
</trkpt>
<trkpt lat="-27.2746451" lon="151.2892761">
  <ele>375.9</ele>
  <time>2026-09-01T20:03:36Z</time>
  <course>335.84</course>
  <speed>34.48</speed>
  <fix>3d</fix>
</trkpt>
<trkpt lat="-27.2745575" lon="151.2892319">
  <ele>376.58</ele>
  <time>2026-09-01T20:03:36Z</time>
  <course>333.06</course>
  <speed>34.479322789173224</speed>
  <fix>3d</fix>
</trkpt>
<trkpt lat="-27.2746451" lon="151.2892761">
  <ele>375.9</ele>
  <time>2026-09-01T20:03:36Z</time>
  <course>335.84</course>
  <speed>34.48</speed>
  <fix>3d</fix>
</trkpt>
<trkpt lat="-27.2745248" lon="151.2892264">
  <ele>376.65</ele>
  <time>2026-09-01T20:03:36Z</time>
  <course>336.7</course>
  <speed>34.92515712205172</speed>
  <fix>3d</fix>
</trkpt>
<trkpt lat="-27.2745871" lon="151.2892503">
  <ele>376.36</ele>
  <time>2026-09-01T20:03:36Z</time>
  <course>341.13</course>
  <speed>34.93</speed>
  <fix>3d</fix>
</trkpt>
<trkpt lat="-27.2744951" lon="151.289215">
  <ele>376.84</ele>
  <time>2026-09-01T20:03:36Z</time>
  <course>340.36</course>
  <speed>34.92515712205172</speed>
  <fix>3d</fix>
</trkpt>
<trkpt lat="-27.2745871" lon="151.2892503">
  <ele>376.36</ele>
  <time>2026-09-01T20:03:36Z</time>
  <course>341.13</course>
  <speed>34.93</speed>
  <fix>3d</fix>
</trkpt>
<trkpt lat="-27.274462" lon="151.2892131">
  <ele>377.1</ele>
  <time>2026-09-01T20:03:36Z</time>
  <course>343.88</course>
  <speed>35.25843161571427</speed>
  <fix>3d</fix>
</trkpt>
<trkpt lat="-27.2745266" lon="151.2892306">
  <ele>376.85</ele>
  <time>2026-09-01T20:03:36Z</time>
  <course>346.39</course>
  <speed>35.26</speed>
  <fix>3d</fix>
</trkpt>
<trkpt lat="-27.2744312" lon="151.2892047">
  <ele>377.52</ele>
  <time>2026-09-01T20:03:36Z</time>
  <course>347.33</course>
  <speed>35.25843161571427</speed>
  <fix>3d</fix>
</trkpt>
<trkpt lat="-27.2745266" lon="151.2892306">
  <ele>376.85</ele>
  <time>2026-09-01T20:03:36Z</time>
  <course>346.39</course>
  <speed>35.26</speed>
  <fix>3d</fix>
</trkpt>
<trkpt lat="-27.2743981" lon="151.2892059">
  <ele>377.64</ele>
  <time>2026-09-01T20:03:36Z</time>
  <course>350.74</course>
  <speed>35.451953401752064</speed>
  <fix>3d</fix>
</trkpt>
<trkpt lat="-27.2744642" lon="151.2892169">
  <ele>377.38</ele>
  <time>2026-09-01T20:03:36Z</time>
  <course>351.56</course>
  <speed>35.45</speed>
  <fix>3d</fix>
</trkpt>
<trkpt lat="-27.2743666" lon="151.2892007">
  <ele>377.91</ele>
  <time>2026-09-01T20:03:36Z</time>
  <course>354.08</course>
  <speed>35.451953401752064</speed>
  <fix>3d</fix>
</trkpt>
<trkpt lat="-27.2744642" lon="151.2892169">
  <ele>377.38</ele>
  <time>2026-09-01T20:03:36Z</time>
  <course>351.56</course>
  <speed>35.45</speed>
  <fix>3d</fix>
</trkpt>
<trkpt lat="-27.274334" lon="151.289205">
  <ele>378.3</ele>
  <time>2026-09-01T20:03:36Z</time>
  <course>357.34</course>
  <speed>35.52451547875073</speed>
  <fix>3d</fix>
</trkpt>
<trkpt lat="-27.2744008" lon="151.2892095">
  <ele>377.92</ele>
  <time>2026-09-01T20:03:36Z</time>
  <course>356.53</course>
  <speed>35.52</speed>
  <fix>3d</fix>
</trkpt>
<trkpt lat="-27.2743021" lon="151.2892028">
  <ele>378.82</ele>
  <time>2026-09-01T20:03:36Z</time>
  <course>0.45</course>
  <speed>35.52451547875073</speed>
  <fix>3d</fix>
</trkpt>
<trkpt lat="-27.2744008" lon="151.2892095">
  <ele>377.92</ele>
  <time>2026-09-01T20:03:36Z</time>
  <course>356.53</course>
  <speed>35.52</speed>
  <fix>3d</fix>
</trkpt>
<trkpt lat="-27.27427" lon="151.2892098">
  <ele>379.12</ele>
  <time>2026-09-01T20:03:36Z</time>
  <course>3.55</course>
  <speed>35.46857764275303</speed>
  <fix>3d</fix>
</trkpt>
<trkpt lat="-27.2743369" lon="151.2892082">
  <ele>378.47</ele>
  <time>2026-09-01T20:03:36Z</time>
  <course>1.26</course>
  <speed>35.47</speed>
  <fix>3d</fix>
</trkpt>
<trkpt lat="-27.2742382" lon="151.2892106">
  <ele>379.11</ele>
  <time>2026-09-01T20:03:36Z</time>
  <course>6.68</course>
  <speed>35.46857764275303</speed>
  <fix>3d</fix>
</trkpt>
<trkpt lat="-27.2743369" lon="151.2892082">
  <ele>378.47</ele>
  <time>2026-09-01T20:03:36Z</time>
  <course>1.26</course>
  <speed>35.47</speed>
  <fix>3d</fix>
</trkpt>
<trkpt lat="-27.2742071" lon="151.28922">
  <ele>379.41</ele>
  <time>2026-09-01T20:03:36Z</time>
  <course>9.66</course>
  <speed>35.31685858057027</speed>
  <fix>3d</fix>
</trkpt>
<trkpt lat="-27.2742733" lon="151.2892125">
  <ele>379.0</ele>
  <time>2026-09-01T20:03:36Z</time>
  <course>5.74</course>
  <speed>35.32</speed>
  <fix>3d</fix>
</trkpt>
<trkpt lat="-27.2741755" lon="151.2892235">
  <ele>379.78</ele>
  <time>2026-09-01T20:03:36Z</time>
  <course>12.57</course>
  <speed>35.31685858057027</speed>
  <fix>3d</fix>
</trkpt>
<trkpt lat="-27.2742733" lon="151.2892125">
  <ele>379.0</ele>
  <time>2026-09-01T20:03:36Z</time>
  <course>5.74</course>
  <speed>35.32</speed>
  <fix>3d</fix>
</trkpt>
<trkpt lat="-27.2741456" lon="151.2892352">
  <ele>379.71</ele>
  <time>2026-09-01T20:03:36Z</time>
  <course>15.48</course>
  <speed>35.07625550140722</speed>
  <fix>3d</fix>
</trkpt>
<trkpt lat="-27.2742107" lon="151.2892223">
  <ele>379.49</ele>
  <time>2026-09-01T20:03:36Z</time>
  <course>10.03</course>
  <speed>35.08</speed>
  <fix>3d</fix>
</trkpt>
<trkpt lat="-27.2741145" lon="151.2892414">
  <ele>380.18</ele>
  <time>2026-09-01T20:03:36Z</time>
  <course>18.31</course>
  <speed>35.07625550140722</speed>
  <fix>3d</fix>
</trkpt>
<trkpt lat="-27.2742107" lon="151.2892223">
  <ele>379.49</ele>
  <time>2026-09-01T20:03:36Z</time>
  <course>10.03</course>
  <speed>35.08</speed>
  <fix>3d</fix>
</trkpt>
<trkpt lat="-27.2740858" lon="151.2892551">
  <ele>380.2</ele>
  <time>2026-09-01T20:03:36Z</time>
  <course>21.17</course>
  <speed>34.774824226730466</speed>
  <fix>3d</fix>
</trkpt>
<trkpt lat="-27.2741494" lon="151.2892371">
  <ele>379.93</ele>
  <time>2026-09-01T20:03:36Z</time>
  <course>14.15</course>
  <speed>34.77</speed>
  <fix>3d</fix>
</trkpt>
<trkpt lat="-27.2740555" lon="151.2892637">
  <ele>380.33</ele>
  <time>2026-09-01T20:03:36Z</time>
  <course>23.97</course>
  <speed>34.774824226730466</speed>
  <fix>3d</fix>
</trkpt>
<trkpt lat="-27.2741494" lon="151.2892371">
  <ele>379.93</ele>
  <time>2026-09-01T20:03:36Z</time>
  <course>14.15</course>
  <speed>34.77</speed>
  <fix>3d</fix>
</trkpt>
<trkpt lat="-27.2740281" lon="151.2892792">
  <ele>380.65</ele>
  <time>2026-09-01T20:03:36Z</time>
  <course>26.71</course>
  <speed>34.40921533543013</speed>
  <fix>3d</fix>
</trkpt>
<trkpt lat="-27.2740897" lon="151.2892565">
  <ele>380.31</ele>
  <time>2026-09-01T20:03:36Z</time>
  <course>18.14</course>
  <speed>34.41</speed>
  <fix>3d</fix>
</trkpt>
<trkpt lat="-27.2739987" lon="151.28929">
  <ele>380.81</ele>
  <time>2026-09-01T20:03:36Z</time>
  <course>29.49</course>
  <speed>34.40921533543013</speed>
  <fix>3d</fix>
</trkpt>
<trkpt lat="-27.2740897" lon="151.2892565">
  <ele>380.31</ele>
  <time>2026-09-01T20:03:36Z</time>
  <course>18.14</course>
  <speed>34.41</speed>
  <fix>3d</fix>
</trkpt>
<trkpt lat="-27.2739726" lon="151.2893074">
  <ele>380.7</ele>
  <time>2026-09-01T20:03:36Z</time>
  <course>32.27</course>
  <speed>33.999308816503905</speed>
  <fix>3d</fix>
</trkpt>
<trkpt lat="-27.274032" lon="151.2892803">
  <ele>380.61</ele>
  <time>2026-09-01T20:03:36Z</time>
  <course>22.07</course>
  <speed>34.0</speed>
  <fix>3d</fix>
</trkpt>
<trkpt lat="-27.2739443" lon="151.2893203">
  <ele>380.88</ele>
  <time>2026-09-01T20:03:36Z</time>
  <course>35.16</course>
  <speed>33.999308816503905</speed>
  <fix>3d</fix>
</trkpt>
<trkpt lat="-27.274032" lon="151.2892803">
  <ele>380.61</ele>
  <time>2026-09-01T20:03:36Z</time>
  <course>22.07</course>
  <speed>34.0</speed>
  <fix>3d</fix>
</trkpt>
<trkpt lat="-27.2739198" lon="151.2893392">
  <ele>380.9</ele>
  <time>2026-09-01T20:03:36Z</time>
  <course>38.0</course>
  <speed>33.52932596996247</speed>
  <fix>3d</fix>
</trkpt>
<trkpt lat="-27.2739766" lon="151.2893081">
  <ele>380.83</ele>
  <time>2026-09-01T20:03:36Z</time>
  <course>25.98</course>
  <speed>33.53</speed>
  <fix>3d</fix>
</trkpt>
<trkpt lat="-27.2738927" lon="151.2893541">
  <ele>380.81</ele>
  <time>2026-09-01T20:03:36Z</time>
  <course>40.87</course>
  <speed>33.52932596996247</speed>
  <fix>3d</fix>
</trkpt>
<trkpt lat="-27.2739766" lon="151.2893081">
  <ele>380.83</ele>
  <time>2026-09-01T20:03:36Z</time>
  <course>25.98</course>
  <speed>33.53</speed>
  <fix>3d</fix>
</trkpt>
<trkpt lat="-27.27387" lon="151.2893745">
  <ele>381.18</ele>
  <time>2026-09-01T20:03:36Z</time>
  <course>43.86</course>
  <speed>32.994681389581565</speed>
  <fix>3d</fix>
</trkpt>
<trkpt lat="-27.2739239" lon="151.2893396">
  <ele>380.96</ele>
  <time>2026-09-01T20:03:36Z</time>
  <course>29.95</course>
  <speed>33.0</speed>
  <fix>3d</fix>
</trkpt>
<trkpt lat="-27.2738443" lon="151.2893912">
  <ele>381.14</ele>
  <time>2026-09-01T20:03:36Z</time>
  <course>46.84</course>
  <speed>32.994681389581565</speed>
  <fix>3d</fix>
</trkpt>
<trkpt lat="-27.2739239" lon="151.2893396">
  <ele>380.96</ele>
  <time>2026-09-01T20:03:36Z</time>
  <course>29.95</course>
  <speed>33.0</speed>
  <fix>3d</fix>
</trkpt>
<trkpt lat="-27.2738234" lon="151.2894132">
  <ele>381.03</ele>
  <time>2026-09-01T20:03:36Z</time>
  <course>49.83</course>
  <speed>32.414627870762295</speed>
  <fix>3d</fix>
</trkpt>
<trkpt lat="-27.273874" lon="151.2893747">
  <ele>381.01</ele>
  <time>2026-09-01T20:03:36Z</time>
  <course>34.07</course>
  <speed>32.42</speed>
  <fix>3d</fix>
</trkpt>
<trkpt lat="-27.2737993" lon="151.2894316">
  <ele>380.86</ele>
  <time>2026-09-01T20:03:36Z</time>
  <course>52.94</course>
  <speed>32.414627870762295</speed>
  <fix>3d</fix>
</trkpt>
<trkpt lat="-27.273874" lon="151.2893747">
  <ele>381.01</ele>
  <time>2026-09-01T20:03:36Z</time>
  <course>34.07</course>
  <speed>32.42</speed>
  <fix>3d</fix>
</trkpt>
<trkpt lat="-27.2737806" lon="151.2894548">
  <ele>381.1</ele>
  <time>2026-09-01T20:03:36Z</time>
  <course>56.0</course>
  <speed>31.75516493422763</speed>
  <fix>3d</fix>
</trkpt>
<trkpt lat="-27.2738275" lon="151.289413">
  <ele>380.99</ele>
  <time>2026-09-01T20:03:36Z</time>
  <course>38.38</course>
  <speed>31.76</speed>
  <fix>3d</fix>
</trkpt>
<trkpt lat="-27.2737582" lon="151.2894747">
  <ele>380.84</ele>
  <time>2026-09-01T20:03:36Z</time>
  <course>59.15</course>
  <speed>31.75516493422763</speed>
  <fix>3d</fix>
</trkpt>
<trkpt lat="-27.2738275" lon="151.289413">
  <ele>380.99</ele>
  <time>2026-09-01T20:03:36Z</time>
  <course>38.38</course>
  <speed>31.76</speed>
  <fix>3d</fix>
</trkpt>
<trkpt lat="-27.2737419" lon="151.2894992">
  <ele>380.6</ele>
  <time>2026-09-01T20:03:36Z</time>
  <course>62.35</course>
  <speed>31.020718882708053</speed>
  <fix>3d</fix>
</trkpt>
<trkpt lat="-27.2737847" lon="151.2894544">
  <ele>380.89</ele>
  <time>2026-09-01T20:03:36Z</time>
  <course>42.88</course>
  <speed>31.02</speed>
  <fix>3d</fix>
</trkpt>
<trkpt lat="-27.2737214" lon="151.2895205">
  <ele>380.47</ele>
  <time>2026-09-01T20:03:36Z</time>
  <course>65.54</course>
  <speed>31.020718882708053</speed>
  <fix>3d</fix>
</trkpt>
<trkpt lat="-27.2737847" lon="151.2894544">
  <ele>380.89</ele>
  <time>2026-09-01T20:03:36Z</time>
  <course>42.88</course>
  <speed>31.02</speed>
  <fix>3d</fix>
</trkpt>
<trkpt lat="-27.2737075" lon="151.2895456">
  <ele>380.53</ele>
  <time>2026-09-01T20:03:36Z</time>
  <course>68.8</course>
  <speed>30.210478314651027</speed>
  <fix>3d</fix>
</trkpt>
<trkpt lat="-27.2737459" lon="151.2894983">
  <ele>380.73</ele>
  <time>2026-09-01T20:03:36Z</time>
  <course>47.58</course>
  <speed>30.21</speed>
  <fix>3d</fix>
</trkpt>
<trkpt lat="-27.2736886" lon="151.2895688">
  <ele>380.62</ele>
  <time>2026-09-01T20:03:36Z</time>
  <course>72.22</course>
  <speed>30.210478314651027</speed>
  <fix>3d</fix>
</trkpt>
<trkpt lat="-27.2737459" lon="151.2894983">
  <ele>380.73</ele>
  <time>2026-09-01T20:03:36Z</time>
  <course>47.58</course>
  <speed>30.21</speed>
  <fix>3d</fix>
</trkpt>
<trkpt lat="-27.2736772" lon="151.2895948">
  <ele>380.36</ele>
  <time>2026-09-01T20:03:36Z</time>
  <course>75.56</course>
  <speed>29.341745006048978</speed>
  <fix>3d</fix>
</trkpt>
<trkpt lat="-27.2737115" lon="151.2895445">
  <ele>380.52</ele>
  <time>2026-09-01T20:03:36Z</time>
  <course>52.5</course>
  <speed>29.35</speed>
  <fix>3d</fix>
</trkpt>
<trkpt lat="-27.2736612" lon="151.2896184">
  <ele>380.31</ele>
  <time>2026-09-01T20:03:36Z</time>
  <course>78.96</course>
  <speed>29.341745006048978</speed>
  <fix>3d</fix>
</trkpt>
<trkpt lat="-27.2737115" lon="151.2895445">
  <ele>380.52</ele>
  <time>2026-09-01T20:03:36Z</time>
  <course>52.5</course>
  <speed>29.35</speed>
  <fix>3d</fix>
</trkpt>
<trkpt lat="-27.2736527" lon="151.2896443">
  <ele>379.93</ele>
  <time>2026-09-01T20:03:36Z</time>
  <course>82.4</course>
  <speed>28.40931713364473</speed>
  <fix>3d</fix>
</trkpt>
<trkpt lat="-27.2736818" lon="151.2895924">
  <ele>380.26</ele>
  <time>2026-09-01T20:03:36Z</time>
  <course>57.72</course>
  <speed>28.41</speed>
  <fix>3d</fix>
</trkpt>
<trkpt lat="-27.2736391" lon="151.2896686">
  <ele>379.83</ele>
  <time>2026-09-01T20:03:36Z</time>
  <course>85.85</course>
  <speed>28.40931713364473</speed>
  <fix>3d</fix>
</trkpt>
<trkpt lat="-27.2736818" lon="151.2895924">
  <ele>380.26</ele>
  <time>2026-09-01T20:03:36Z</time>
  <course>57.72</course>
  <speed>28.41</speed>
  <fix>3d</fix>
</trkpt>
<trkpt lat="-27.2736335" lon="151.2896942">
  <ele>379.55</ele>
  <time>2026-09-01T20:03:36Z</time>
  <course>89.25</course>
  <speed>27.374049755196985</speed>
  <fix>3d</fix>
</trkpt>
<trkpt lat="-27.2736571" lon="151.2896414">
  <ele>379.96</ele>
  <time>2026-09-01T20:03:36Z</time>
  <course>63.26</course>
  <speed>27.37</speed>
  <fix>3d</fix>
</trkpt>
<trkpt lat="-27.2736227" lon="151.2897182">
  <ele>379.34</ele>
  <time>2026-09-01T20:03:36Z</time>
  <course>92.47</course>
  <speed>27.374049755196985</speed>
  <fix>3d</fix>
</trkpt>
<trkpt lat="-27.2736571" lon="151.2896414">
  <ele>379.96</ele>
  <time>2026-09-01T20:03:36Z</time>
  <course>63.26</course>
  <speed>27.37</speed>
  <fix>3d</fix>
</trkpt>
<trkpt lat="-27.2736199" lon="151.2897429">
  <ele>379.17</ele>
  <time>2026-09-01T20:03:36Z</time>
  <course>95.67</course>
  <speed>26.278729040804087</speed>
  <fix>3d</fix>
</trkpt>
<trkpt lat="-27.2736376" lon="151.2896909">
  <ele>379.63</ele>
  <time>2026-09-01T20:03:36Z</time>
  <course>69.03</course>
  <speed>26.28</speed>
  <fix>3d</fix>
</trkpt>
<trkpt lat="-27.2736115" lon="151.2897678">
  <ele>379.28</ele>
  <time>2026-09-01T20:03:36Z</time>
  <course>98.85</course>
  <speed>26.278729040804087</speed>
  <fix>3d</fix>
</trkpt>
<trkpt lat="-27.2736376" lon="151.2896909">
  <ele>379.63</ele>
  <time>2026-09-01T20:03:36Z</time>
  <course>69.03</course>
  <speed>26.28</speed>
  <fix>3d</fix>
</trkpt>
<trkpt lat="-27.273611" lon="151.2897918">
  <ele>378.96</ele>
  <time>2026-09-01T20:03:36Z</time>
  <course>102.02</course>
  <speed>25.169894715711465</speed>
  <fix>3d</fix>
</trkpt>
<trkpt lat="-27.2736233" lon="151.2897403">
  <ele>379.27</ele>
  <time>2026-09-01T20:03:36Z</time>
  <course>74.88</course>
  <speed>25.17</speed>
  <fix>3d</fix>
</trkpt>
<trkpt lat="-27.2736051" lon="151.2898164">
  <ele>378.61</ele>
  <time>2026-09-01T20:03:36Z</time>
  <course>104.98</course>
  <speed>25.169894715711465</speed>
  <fix>3d</fix>
</trkpt>
<trkpt lat="-27.2736233" lon="151.2897403">
  <ele>379.27</ele>
  <time>2026-09-01T20:03:36Z</time>
  <course>74.88</course>
  <speed>25.17</speed>
  <fix>3d</fix>
</trkpt>
<trkpt lat="-27.2736068" lon="151.2898392">
  <ele>378.38</ele>
  <time>2026-09-01T20:03:36Z</time>
  <course>107.83</course>
  <speed>24.051760850299505</speed>
  <fix>3d</fix>
</trkpt>
<trkpt lat="-27.273614" lon="151.2897889">
  <ele>378.89</ele>
  <time>2026-09-01T20:03:36Z</time>
  <course>80.75</course>
  <speed>24.05</speed>
  <fix>3d</fix>
</trkpt>
<trkpt lat="-27.2736033" lon="151.2898632">
  <ele>378.32</ele>
  <time>2026-09-01T20:03:36Z</time>
  <course>110.56</course>
  <speed>24.051760850299505</speed>
  <fix>3d</fix>
</trkpt>
<trkpt lat="-27.273614" lon="151.2897889">
  <ele>378.89</ele>
  <time>2026-09-01T20:03:36Z</time>
  <course>80.75</course>
  <speed>24.05</speed>
  <fix>3d</fix>
</trkpt>
<trkpt lat="-27.2736067" lon="151.2898847">
  <ele>378.08</ele>
  <time>2026-09-01T20:03:36Z</time>
  <course>113.1</course>
  <speed>22.96211009467553</speed>
  <fix>3d</fix>
</trkpt>
<trkpt lat="-27.2736093" lon="151.2898361">
  <ele>378.49</ele>
  <time>2026-09-01T20:03:36Z</time>
  <course>86.52</course>
  <speed>22.96</speed>
  <fix>3d</fix>
</trkpt>
<trkpt lat="-27.2736055" lon="151.2899079">
  <ele>378.02</ele>
  <time>2026-09-01T20:03:36Z</time>
  <course>115.53</course>
  <speed>22.96211009467553</speed>
  <fix>3d</fix>
</trkpt>
<trkpt lat="-27.2736093" lon="151.2898361">
  <ele>378.49</ele>
  <time>2026-09-01T20:03:36Z</time>
  <course>86.52</course>
  <speed>22.96</speed>
  <fix>3d</fix>
</trkpt>
<trkpt lat="-27.2736102" lon="151.2899279">
  <ele>377.86</ele>
  <time>2026-09-01T20:03:36Z</time>
  <course>117.86</course>
  <speed>21.933873346949007</speed>
  <fix>3d</fix>
</trkpt>
<trkpt lat="-27.2736088" lon="151.2898814">
  <ele>378.07</ele>
  <time>2026-09-01T20:03:36Z</time>
  <course>92.03</course>
  <speed>21.94</speed>
  <fix>3d</fix>
</trkpt>
<trkpt lat="-27.2736109" lon="151.2899501">
  <ele>377.46</ele>
  <time>2026-09-01T20:03:36Z</time>
  <course>120.03</course>
  <speed>21.933873346949007</speed>
  <fix>3d</fix>
</trkpt>
<trkpt lat="-27.2736088" lon="151.2898814">
  <ele>378.07</ele>
  <time>2026-09-01T20:03:36Z</time>
  <course>92.03</course>
  <speed>21.94</speed>
  <fix>3d</fix>
</trkpt>
<trkpt lat="-27.2736168" lon="151.2899689">
  <ele>377.28</ele>
  <time>2026-09-01T20:03:36Z</time>
  <course>122.03</course>
  <speed>20.99663068208802</speed>
  <fix>3d</fix>
</trkpt>
<trkpt lat="-27.2736119" lon="151.2899247">
  <ele>377.62</ele>
  <time>2026-09-01T20:03:36Z</time>
  <course>97.24</course>
  <speed>21.0</speed>
  <fix>3d</fix>
</trkpt>
<trkpt lat="-27.2736192" lon="151.2899899">
  <ele>376.76</ele>
  <time>2026-09-01T20:03:36Z</time>
  <course>123.82</course>
  <speed>20.99663068208802</speed>
  <fix>3d</fix>
</trkpt>
<trkpt lat="-27.2736119" lon="151.2899247">
  <ele>377.62</ele>
  <time>2026-09-01T20:03:36Z</time>
  <course>97.24</course>
  <speed>21.0</speed>
  <fix>3d</fix>
</trkpt>
<trkpt lat="-27.273626" lon="151.2900076">
  <ele>376.59</ele>
  <time>2026-09-01T20:03:36Z</time>
  <course>125.5</course>
  <speed>20.152520934116406</speed>
  <fix>3d</fix>
</trkpt>
<trkpt lat="-27.2736181" lon="151.2899658">
  <ele>377.12</ele>
  <time>2026-09-01T20:03:36Z</time>
  <course>102.02</course>
  <speed>20.15</speed>
  <fix>3d</fix>
</trkpt>
<trkpt lat="-27.2736297" lon="151.2900275">
  <ele>376.45</ele>
  <time>2026-09-01T20:03:36Z</time>
  <course>127.04</course>
  <speed>20.152520934116406</speed>
  <fix>3d</fix>
</trkpt>
<trkpt lat="-27.2736181" lon="151.2899658">
  <ele>377.12</ele>
  <time>2026-09-01T20:03:36Z</time>
  <course>102.02</course>
  <speed>20.15</speed>
  <fix>3d</fix>
</trkpt>
<trkpt lat="-27.2736372" lon="151.2900448">
  <ele>376.09</ele>
  <time>2026-09-01T20:03:36Z</time>
  <course>128.53</course>
  <speed>19.42720000411794</speed>
  <fix>3d</fix>
</trkpt>
<trkpt lat="-27.2736268" lon="151.2900045">
  <ele>376.58</ele>
  <time>2026-09-01T20:03:36Z</time>
  <course>106.26</course>
  <speed>19.43</speed>
  <fix>3d</fix>
</trkpt>
<trkpt lat="-27.2736421" lon="151.2900637">
  <ele>375.7</ele>
  <time>2026-09-01T20:03:36Z</time>
  <course>129.86</course>
  <speed>19.42720000411794</speed>
  <fix>3d</fix>
</trkpt>
<trkpt lat="-27.2736268" lon="151.2900045">
  <ele>376.58</ele>
  <time>2026-09-01T20:03:36Z</time>
  <course>106.26</course>
  <speed>19.43</speed>
  <fix>3d</fix>
</trkpt>
<trkpt lat="-27.2736498" lon="151.2900794">
  <ele>375.47</ele>
  <time>2026-09-01T20:03:36Z</time>
  <course>131.16</course>
  <speed>18.822353731667036</speed>
  <fix>3d</fix>
</trkpt>
<trkpt lat="-27.2736375" lon="151.2900412">
  <ele>375.97</ele>
  <time>2026-09-01T20:03:36Z</time>
  <course>109.99</course>
  <speed>18.83</speed>
  <fix>3d</fix>
</trkpt>
<trkpt lat="-27.2736556" lon="151.2900973">
  <ele>375.03</ele>
  <time>2026-09-01T20:03:36Z</time>
  <course>132.41</course>
  <speed>18.822353731667036</speed>
  <fix>3d</fix>
</trkpt>
<trkpt lat="-27.2736375" lon="151.2900412">
  <ele>375.97</ele>
  <time>2026-09-01T20:03:36Z</time>
  <course>109.99</course>
  <speed>18.83</speed>
  <fix>3d</fix>
</trkpt>
<trkpt lat="-27.2736637" lon="151.2901125">
  <ele>374.51</ele>
  <time>2026-09-01T20:03:36Z</time>
  <course>133.69</course>
  <speed>18.329116181638437</speed>
  <fix>3d</fix>
</trkpt>
<trkpt lat="-27.2736498" lon="151.2900761">
  <ele>375.31</ele>
  <time>2026-09-01T20:03:36Z</time>
  <course>113.34</course>
  <speed>18.33</speed>
  <fix>3d</fix>
</trkpt>
<trkpt lat="-27.2736702" lon="151.2901295">
  <ele>374.29</ele>
  <time>2026-09-01T20:03:36Z</time>
  <course>134.92</course>
  <speed>18.329116181638437</speed>
  <fix>3d</fix>
</trkpt>
<trkpt lat="-27.2736498" lon="151.2900761">
  <ele>375.31</ele>
  <time>2026-09-01T20:03:36Z</time>
  <course>113.34</course>
  <speed>18.33</speed>
  <fix>3d</fix>
</trkpt>
<trkpt lat="-27.2736789" lon="151.290144">
  <ele>373.76</ele>
  <time>2026-09-01T20:03:36Z</time>
  <course>136.05</course>
  <speed>17.93327912011632</speed>
  <fix>3d</fix>
</trkpt>
<trkpt lat="-27.2736636" lon="151.2901093">
  <ele>374.57</ele>
  <time>2026-09-01T20:03:36Z</time>
  <course>116.49</course>
  <speed>17.93</speed>
  <fix>3d</fix>
</trkpt>
<trkpt lat="-27.2736861" lon="151.2901602">
  <ele>373.31</ele>
  <time>2026-09-01T20:03:36Z</time>
  <course>137.18</course>
  <speed>17.93327912011632</speed>
  <fix>3d</fix>
</trkpt>
<trkpt lat="-27.2736636" lon="151.2901093">
  <ele>374.57</ele>
  <time>2026-09-01T20:03:36Z</time>
  <course>116.49</course>
  <speed>17.93</speed>
  <fix>3d</fix>
</trkpt>
<trkpt lat="-27.2736951" lon="151.290174">
  <ele>373.16</ele>
  <time>2026-09-01T20:03:36Z</time>
  <course>138.31</course>
  <speed>17.626653113963524</speed>
  <fix>3d</fix>
</trkpt>
<trkpt lat="-27.2736785" lon="151.290141">
  <ele>373.78</ele>
  <time>2026-09-01T20:03:36Z</time>
  <course>119.58</course>
  <speed>17.62</speed>
  <fix>3d</fix>
</trkpt>
<trkpt lat="-27.2737029" lon="151.2901894">
  <ele>372.86</ele>
  <time>2026-09-01T20:03:36Z</time>
  <course>139.45</course>
  <speed>17.626653113963524</speed>
  <fix>3d</fix>
</trkpt>
<trkpt lat="-27.2736785" lon="151.290141">
  <ele>373.78</ele>
  <time>2026-09-01T20:03:36Z</time>
  <course>119.58</course>
  <speed>17.62</speed>
  <fix>3d</fix>
</trkpt>
<trkpt lat="-27.2737127" lon="151.2902028">
  <ele>372.17</ele>
  <time>2026-09-01T20:03:36Z</time>
  <course>140.58</course>
  <speed>17.40941411995246</speed>
  <fix>3d</fix>
</trkpt>
<trkpt lat="-27.2736948" lon="151.2901713">
  <ele>372.96</ele>
  <time>2026-09-01T20:03:36Z</time>
  <course>122.65</course>
  <speed>17.41</speed>
  <fix>3d</fix>
</trkpt>
<trkpt lat="-27.2737212" lon="151.2902176">
  <ele>371.72</ele>
  <time>2026-09-01T20:03:36Z</time>
  <course>141.69</course>
  <speed>17.40941411995246</speed>
  <fix>3d</fix>
</trkpt>
<trkpt lat="-27.2736948" lon="151.2901713">
  <ele>372.96</ele>
  <time>2026-09-01T20:03:36Z</time>
  <course>122.65</course>
  <speed>17.41</speed>
  <fix>3d</fix>
</trkpt>
<trkpt lat="-27.2737314" lon="151.2902301">
  <ele>371.33</ele>
  <time>2026-09-01T20:03:36Z</time>
  <course>142.71</course>
  <speed>17.287304590363416</speed>
  <fix>3d</fix>
</trkpt>
<trkpt lat="-27.2737123" lon="151.2902002">
  <ele>372.14</ele>
  <time>2026-09-01T20:03:36Z</time>
  <course>125.75</course>
  <speed>17.28</speed>
  <fix>3d</fix>
</trkpt>
<trkpt lat="-27.2737405" lon="151.2902442">
  <ele>371.23</ele>
  <time>2026-09-01T20:03:36Z</time>
  <course>143.67</course>
  <speed>17.287304590363416</speed>
  <fix>3d</fix>
</trkpt>
<trkpt lat="-27.2737123" lon="151.2902002">
  <ele>372.14</ele>
  <time>2026-09-01T20:03:36Z</time>
  <course>125.75</course>
  <speed>17.28</speed>
  <fix>3d</fix>
</trkpt>
<trkpt lat="-27.2737514" lon="151.2902565">
  <ele>370.5</ele>
  <time>2026-09-01T20:03:36Z</time>
  <course>144.57</course>
  <speed>17.227565121049462</speed>
  <fix>3d</fix>
</trkpt>
<trkpt lat="-27.2737311" lon="151.290228">
  <ele>371.34</ele>
  <time>2026-09-01T20:03:36Z</time>
  <course>128.78</course>
  <speed>17.23</speed>
  <fix>3d</fix>
</trkpt>
<trkpt lat="-27.2737611" lon="151.29027">
  <ele>370.26</ele>
  <time>2026-09-01T20:03:36Z</time>
  <course>145.52</course>
  <speed>17.227565121049462</speed>
  <fix>3d</fix>
</trkpt>
<trkpt lat="-27.2737311" lon="151.290228">
  <ele>371.34</ele>
  <time>2026-09-01T20:03:36Z</time>
  <course>128.78</course>
  <speed>17.23</speed>
  <fix>3d</fix>
</trkpt>
<trkpt lat="-27.2737727" lon="151.2902819">
  <ele>370.14</ele>
  <time>2026-09-01T20:03:36Z</time>
  <course>146.41</course>
  <speed>17.240243617768282</speed>
  <fix>3d</fix>
</trkpt>
<trkpt lat="-27.2737511" lon="151.2902546">
  <ele>370.59</ele>
  <time>2026-09-01T20:03:36Z</time>
  <course>131.66</course>
  <speed>17.25</speed>
  <fix>3d</fix>
</trkpt>
<trkpt lat="-27.273783" lon="151.2902949">
  <ele>369.6</ele>
  <time>2026-09-01T20:03:36Z</time>
  <course>147.21</course>
  <speed>17.240243617768282</speed>
  <fix>3d</fix>
</trkpt>
<trkpt lat="-27.2737511" lon="151.2902546">
  <ele>370.59</ele>
  <time>2026-09-01T20:03:36Z</time>
  <course>131.66</course>
  <speed>17.25</speed>
  <fix>3d</fix>
</trkpt>
<trkpt lat="-27.2737951" lon="151.2903063">
  <ele>369.27</ele>
  <time>2026-09-01T20:03:36Z</time>
  <course>147.96</course>
  <speed>17.31809747056529</speed>
  <fix>3d</fix>
</trkpt>
<trkpt lat="-27.2737723" lon="151.2902801">
  <ele>369.91</ele>
  <time>2026-09-01T20:03:36Z</time>
  <course>134.37</course>
  <speed>17.32</speed>
  <fix>3d</fix>
</trkpt>
<trkpt lat="-27.273806" lon="151.2903188">
  <ele>369.11</ele>
  <time>2026-09-01T20:03:36Z</time>
  <course>148.65</course>
  <speed>17.31809747056529</speed>
  <fix>3d</fix>
</trkpt>
<trkpt lat="-27.2737723" lon="151.2902801">
  <ele>369.91</ele>
  <time>2026-09-01T20:03:36Z</time>
  <course>134.37</course>
  <speed>17.32</speed>
  <fix>3d</fix>
</trkpt>
<trkpt lat="-27.2738189" lon="151.2903304">
  <ele>369.02</ele>
  <time>2026-09-01T20:03:36Z</time>
  <course>149.3</course>
  <speed>17.424996413199057</speed>
  <fix>3d</fix>
</trkpt>
<trkpt lat="-27.2737946" lon="151.2903048">
  <ele>369.33</ele>
  <time>2026-09-01T20:03:36Z</time>
  <course>136.82</course>
  <speed>17.43</speed>
  <fix>3d</fix>
</trkpt>
<trkpt lat="-27.2738303" lon="151.2903425">
  <ele>368.7</ele>
  <time>2026-09-01T20:03:36Z</time>
  <course>149.86</course>
  <speed>17.424996413199057</speed>
  <fix>3d</fix>
</trkpt>
<trkpt lat="-27.2737946" lon="151.2903048">
  <ele>369.33</ele>
  <time>2026-09-01T20:03:36Z</time>
  <course>136.82</course>
  <speed>17.43</speed>
  <fix>3d</fix>
</trkpt>
<trkpt lat="-27.2738434" lon="151.2903533">
  <ele>368.35</ele>
  <time>2026-09-01T20:03:36Z</time>
  <course>150.31</course>
  <speed>17.549182317133752</speed>
  <fix>3d</fix>
</trkpt>
<trkpt lat="-27.273818" lon="151.2903284">
  <ele>368.83</ele>
  <time>2026-09-01T20:03:36Z</time>
  <course>138.92</course>
  <speed>17.56</speed>
  <fix>3d</fix>
</trkpt>
<trkpt lat="-27.2738553" lon="151.290365">
  <ele>368.47</ele>
  <time>2026-09-01T20:03:36Z</time>
  <course>150.79</course>
  <speed>17.549182317133752</speed>
  <fix>3d</fix>
</trkpt>
<trkpt lat="-27.273818" lon="151.2903284">
  <ele>368.83</ele>
  <time>2026-09-01T20:03:36Z</time>
  <course>138.92</course>
  <speed>17.56</speed>
  <fix>3d</fix>
</trkpt>
<trkpt lat="-27.2738685" lon="151.2903756">
  <ele>368.14</ele>
  <time>2026-09-01T20:03:36Z</time>
  <course>151.26</course>
  <speed>17.694072453790845</speed>
  <fix>3d</fix>
</trkpt>
<trkpt lat="-27.2738422" lon="151.2903514">
  <ele>368.43</ele>
  <time>2026-09-01T20:03:36Z</time>
  <course>140.67</course>
  <speed>17.69</speed>
  <fix>3d</fix>
</trkpt>
<trkpt lat="-27.2738808" lon="151.2903869">
  <ele>368.06</ele>
  <time>2026-09-01T20:03:36Z</time>
  <course>151.71</course>
  <speed>17.694072453790845</speed>
  <fix>3d</fix>
</trkpt>
<trkpt lat="-27.2738422" lon="151.2903514">
  <ele>368.43</ele>
  <time>2026-09-01T20:03:36Z</time>
  <course>140.67</course>
  <speed>17.69</speed>
  <fix>3d</fix>
</trkpt>
<trkpt lat="-27.2738941" lon="151.2903976">
  <ele>368.06</ele>
  <time>2026-09-01T20:03:36Z</time>
  <course>152.04</course>
  <speed>17.827091742625885</speed>
  <fix>3d</fix>
</trkpt>
<trkpt lat="-27.2738671" lon="151.2903739">
  <ele>368.13</ele>
  <time>2026-09-01T20:03:36Z</time>
  <course>142.04</course>
  <speed>17.83</speed>
  <fix>3d</fix>
</trkpt>
<trkpt lat="-27.2739067" lon="151.2904087">
  <ele>367.98</ele>
  <time>2026-09-01T20:03:36Z</time>
  <course>152.35</course>
  <speed>17.827091742625885</speed>
  <fix>3d</fix>
</trkpt>
<trkpt lat="-27.2738671" lon="151.2903739">
  <ele>368.13</ele>
  <time>2026-09-01T20:03:36Z</time>
  <course>142.04</course>
  <speed>17.83</speed>
  <fix>3d</fix>
</trkpt>
<trkpt lat="-27.2739203" lon="151.2904191">
  <ele>367.78</ele>
  <time>2026-09-01T20:03:36Z</time>
  <course>152.63</course>
  <speed>17.95800100233876</speed>
  <fix>3d</fix>
</trkpt>
<trkpt lat="-27.2738927" lon="151.2903958">
  <ele>367.91</ele>
  <time>2026-09-01T20:03:36Z</time>
  <course>143.14</course>
  <speed>17.96</speed>
  <fix>3d</fix>
</trkpt>
<trkpt lat="-27.2739331" lon="151.2904298">
  <ele>367.9</ele>
  <time>2026-09-01T20:03:36Z</time>
  <course>152.9</course>
  <speed>17.95800100233876</speed>
  <fix>3d</fix>
</trkpt>
<trkpt lat="-27.2738927" lon="151.2903958">
  <ele>367.91</ele>
  <time>2026-09-01T20:03:36Z</time>
  <course>143.14</course>
  <speed>17.96</speed>
  <fix>3d</fix>
</trkpt>
<trkpt lat="-27.2739467" lon="151.2904402">
  <ele>367.5</ele>
  <time>2026-09-01T20:03:36Z</time>
  <course>153.21</course>
  <speed>18.07232691160715</speed>
  <fix>3d</fix>
</trkpt>
<trkpt lat="-27.2739187" lon="151.2904174">
  <ele>367.76</ele>
  <time>2026-09-01T20:03:36Z</time>
  <course>144.04</course>
  <speed>18.08</speed>
  <fix>3d</fix>
</trkpt>
<trkpt lat="-27.2739598" lon="151.2904509">
  <ele>367.51</ele>
  <time>2026-09-01T20:03:36Z</time>
  <course>153.44</course>
  <speed>18.07232691160715</speed>
  <fix>3d</fix>
</trkpt>
<trkpt lat="-27.2739187" lon="151.2904174">
  <ele>367.76</ele>
  <time>2026-09-01T20:03:36Z</time>
  <course>144.04</course>
  <speed>18.08</speed>
  <fix>3d</fix>
</trkpt>
<trkpt lat="-27.2739736" lon="151.2904612">
  <ele>367.47</ele>
  <time>2026-09-01T20:03:36Z</time>
  <course>153.57</course>
  <speed>18.178022444699533</speed>
  <fix>3d</fix>
</trkpt>
<trkpt lat="-27.2739452" lon="151.2904387">
  <ele>367.68</ele>
  <time>2026-09-01T20:03:36Z</time>
  <course>144.82</course>
  <speed>18.18</speed>
  <fix>3d</fix>
</trkpt>
<trkpt lat="-27.2739869" lon="151.2904718">
  <ele>367.78</ele>
  <time>2026-09-01T20:03:36Z</time>
  <course>153.79</course>
  <speed>18.178022444699533</speed>
  <fix>3d</fix>
</trkpt>
<trkpt lat="-27.2739452" lon="151.2904387">
  <ele>367.68</ele>
  <time>2026-09-01T20:03:36Z</time>
  <course>144.82</course>
  <speed>18.18</speed>
  <fix>3d</fix>
</trkpt>
<trkpt lat="-27.2740009" lon="151.2904819">
  <ele>367.48</ele>
  <time>2026-09-01T20:03:36Z</time>
  <course>153.99</course>
  <speed>18.256670013997624</speed>
  <fix>3d</fix>
</trkpt>
<trkpt lat="-27.2739721" lon="151.2904597">
  <ele>367.66</ele>
  <time>2026-09-01T20:03:36Z</time>
  <course>145.57</course>
  <speed>18.26</speed>
  <fix>3d</fix>
</trkpt>
<trkpt lat="-27.2740144" lon="151.2904923">
  <ele>367.6</ele>
  <time>2026-09-01T20:03:36Z</time>
  <course>154.24</course>
  <speed>18.256670013997624</speed>
  <fix>3d</fix>
</trkpt>
<trkpt lat="-27.2739721" lon="151.2904597">
  <ele>367.66</ele>
  <time>2026-09-01T20:03:36Z</time>
  <course>145.57</course>
  <speed>18.26</speed>
  <fix>3d</fix>
</trkpt>
<trkpt lat="-27.2740284" lon="151.2905023">
  <ele>367.81</ele>
  <time>2026-09-01T20:03:36Z</time>
  <course>154.54</course>
  <speed>18.316200479357065</speed>
  <fix>3d</fix>
</trkpt>
<trkpt lat="-27.2739993" lon="151.2904805">
  <ele>367.71</ele>
  <time>2026-09-01T20:03:36Z</time>
  <course>146.29</course>
  <speed>18.32</speed>
  <fix>3d</fix>
</trkpt>
<trkpt lat="-27.2740421" lon="151.2905126">
  <ele>367.87</ele>
  <time>2026-09-01T20:03:36Z</time>
  <course>154.83</course>
  <speed>18.316200479357065</speed>
  <fix>3d</fix>
</trkpt>
<trkpt lat="-27.2739993" lon="151.2904805">
  <ele>367.71</ele>
  <time>2026-09-01T20:03:36Z</time>
  <course>146.29</course>
  <speed>18.32</speed>
  <fix>3d</fix>
</trkpt>
<trkpt lat="-27.2740563" lon="151.2905222">
  <ele>367.7</ele>
  <time>2026-09-01T20:03:36Z</time>
  <course>155.05</course>
  <speed>18.359425372271325</speed>
  <fix>3d</fix>
</trkpt>
<trkpt lat="-27.2740269" lon="151.2905008">
  <ele>367.78</ele>
  <time>2026-09-01T20:03:36Z</time>
  <course>147.07</course>
  <speed>18.36</speed>
  <fix>3d</fix>
</trkpt>
<trkpt lat="-27.2740702" lon="151.2905323">
  <ele>367.94</ele>
  <time>2026-09-01T20:03:36Z</time>
  <course>155.37</course>
  <speed>18.359425372271325</speed>
  <fix>3d</fix>
</trkpt>
<trkpt lat="-27.2740269" lon="151.2905008">
  <ele>367.78</ele>
  <time>2026-09-01T20:03:36Z</time>
  <course>147.07</course>
  <speed>18.36</speed>
  <fix>3d</fix>
</trkpt>
<trkpt lat="-27.2740843" lon="151.2905415">
  <ele>368.18</ele>
  <time>2026-09-01T20:03:36Z</time>
  <course>155.69</course>
  <speed>18.360223310188793</speed>
  <fix>3d</fix>
</trkpt>
<trkpt lat="-27.2740548" lon="151.2905208">
  <ele>367.9</ele>
  <time>2026-09-01T20:03:36Z</time>
  <course>147.99</course>
  <speed>18.36</speed>
  <fix>3d</fix>
</trkpt>
<trkpt lat="-27.2740987" lon="151.2905516">
  <ele>367.93</ele>
  <time>2026-09-01T20:03:36Z</time>
  <course>155.98</course>
  <speed>18.360223310188793</speed>
  <fix>3d</fix>
</trkpt>
<trkpt lat="-27.2740548" lon="151.2905208">
  <ele>367.9</ele>
  <time>2026-09-01T20:03:36Z</time>
  <course>147.99</course>
  <speed>18.36</speed>
  <fix>3d</fix>
</trkpt>
<trkpt lat="-27.2741131" lon="151.2905605">
  <ele>368.21</ele>
  <time>2026-09-01T20:03:36Z</time>
  <course>156.4</course>
  <speed>18.338366884758305</speed>
  <fix>3d</fix>
</trkpt>
<trkpt lat="-27.2740829" lon="151.2905402">
  <ele>368.05</ele>
  <time>2026-09-01T20:03:36Z</time>
  <course>149.12</course>
  <speed>18.34</speed>
  <fix>3d</fix>
</trkpt>
<trkpt lat="-27.2741273" lon="151.29057">
  <ele>368.37</ele>
  <time>2026-09-01T20:03:36Z</time>
  <course>156.8</course>
  <speed>18.338366884758305</speed>
  <fix>3d</fix>
</trkpt>
<trkpt lat="-27.2740829" lon="151.2905402">
  <ele>368.05</ele>
  <time>2026-09-01T20:03:36Z</time>
  <course>149.12</course>
  <speed>18.34</speed>
  <fix>3d</fix>
</trkpt>
<trkpt lat="-27.2741419" lon="151.2905781">
  <ele>368.42</ele>
  <time>2026-09-01T20:03:36Z</time>
  <course>157.26</course>
  <speed>18.284096915078962</speed>
  <fix>3d</fix>
</trkpt>
<trkpt lat="-27.2741114" lon="151.2905587">
  <ele>368.22</ele>
  <time>2026-09-01T20:03:36Z</time>
  <course>150.47</course>
  <speed>18.29</speed>
  <fix>3d</fix>
</trkpt>
<trkpt lat="-27.2741562" lon="151.2905873">
  <ele>368.32</ele>
  <time>2026-09-01T20:03:36Z</time>
  <course>157.81</course>
  <speed>18.284096915078962</speed>
  <fix>3d</fix>
</trkpt>
<trkpt lat="-27.2741114" lon="151.2905587">
  <ele>368.22</ele>
  <time>2026-09-01T20:03:36Z</time>
  <course>150.47</course>
  <speed>18.29</speed>
  <fix>3d</fix>
</trkpt>
<trkpt lat="-27.274171" lon="151.2905949">
  <ele>368.4</ele>
  <time>2026-09-01T20:03:36Z</time>
  <course>158.38</course>
  <speed>18.207086532446645</speed>
  <fix>3d</fix>
</trkpt>
<trkpt lat="-27.2741401" lon="151.2905765">
  <ele>368.41</ele>
  <time>2026-09-01T20:03:36Z</time>
  <course>152.02</course>
  <speed>18.21</speed>
  <fix>3d</fix>
</trkpt>
<trkpt lat="-27.2741854" lon="151.2906036">
  <ele>368.51</ele>
  <time>2026-09-01T20:03:36Z</time>
  <course>158.86</course>
  <speed>18.207086532446645</speed>
  <fix>3d</fix>
</trkpt>
<trkpt lat="-27.2741401" lon="151.2905765">
  <ele>368.41</ele>
  <time>2026-09-01T20:03:36Z</time>
  <course>152.02</course>
  <speed>18.21</speed>
  <fix>3d</fix>
</trkpt>
<trkpt lat="-27.2742003" lon="151.2906104">
  <ele>368.7</ele>
  <time>2026-09-01T20:03:36Z</time>
  <course>159.41</course>
  <speed>18.103670898466973</speed>
  <fix>3d</fix>
</trkpt>
<trkpt lat="-27.2741691" lon="151.2905932">
  <ele>368.62</ele>
  <time>2026-09-01T20:03:36Z</time>
  <course>153.82</course>
  <speed>18.11</speed>
  <fix>3d</fix>
</trkpt>
<trkpt lat="-27.2742147" lon="151.2906184">
  <ele>368.73</ele>
  <time>2026-09-01T20:03:36Z</time>
  <course>160.07</course>
  <speed>18.103670898466973</speed>
  <fix>3d</fix>
</trkpt>
<trkpt lat="-27.2741691" lon="151.2905932">
  <ele>368.62</ele>
  <time>2026-09-01T20:03:36Z</time>
  <course>153.82</course>
  <speed>18.11</speed>
  <fix>3d</fix>
</trkpt>
<trkpt lat="-27.2742298" lon="151.2906246">
  <ele>369.17</ele>
  <time>2026-09-01T20:03:36Z</time>
  <course>160.83</course>
  <speed>17.99814712685725</speed>
  <fix>3d</fix>
</trkpt>
<trkpt lat="-27.2741984" lon="151.2906088">
  <ele>368.84</ele>
  <time>2026-09-01T20:03:36Z</time>
  <course>155.81</course>
  <speed>18.0</speed>
  <fix>3d</fix>
</trkpt>
<trkpt lat="-27.2742445" lon="151.2906321">
  <ele>369.2</ele>
  <time>2026-09-01T20:03:36Z</time>
  <course>161.51</course>
  <speed>17.99814712685725</speed>
  <fix>3d</fix>
</trkpt>
<trkpt lat="-27.2741984" lon="151.2906088">
  <ele>368.84</ele>
  <time>2026-09-01T20:03:36Z</time>
  <course>155.81</course>
  <speed>18.0</speed>
  <fix>3d</fix>
</trkpt>
<trkpt lat="-27.2742598" lon="151.2906374">
  <ele>369.07</ele>
  <time>2026-09-01T20:03:36Z</time>
  <course>162.21</course>
  <speed>17.891844510837892</speed>
  <fix>3d</fix>
</trkpt>
<trkpt lat="-27.2742281" lon="151.290623">
  <ele>369.06</ele>
  <time>2026-09-01T20:03:36Z</time>
  <course>157.99</course>
  <speed>17.89</speed>
  <fix>3d</fix>
</trkpt>
<trkpt lat="-27.2742747" lon="151.2906442">
  <ele>369.45</ele>
  <time>2026-09-01T20:03:36Z</time>
  <course>163.0</course>
  <speed>17.891844510837892</speed>
  <fix>3d</fix>
</trkpt>
<trkpt lat="-27.2742281" lon="151.290623">
  <ele>369.06</ele>
  <time>2026-09-01T20:03:36Z</time>
  <course>157.99</course>
  <speed>17.89</speed>
  <fix>3d</fix>
</trkpt>
<trkpt lat="-27.27429" lon="151.2906486">
  <ele>369.52</ele>
  <time>2026-09-01T20:03:36Z</time>
  <course>163.87</course>
  <speed>17.765981537759178</speed>
  <fix>3d</fix>
</trkpt>
<trkpt lat="-27.274258" lon="151.2906358">
  <ele>369.28</ele>
  <time>2026-09-01T20:03:36Z</time>
  <course>160.41</course>
  <speed>17.77</speed>
  <fix>3d</fix>
</trkpt>
<trkpt lat="-27.274305" lon="151.2906546">
  <ele>369.7</ele>
  <time>2026-09-01T20:03:36Z</time>
  <course>164.81</course>
  <speed>17.765981537759178</speed>
  <fix>3d</fix>
</trkpt>
<trkpt lat="-27.274258" lon="151.2906358">
  <ele>369.28</ele>
  <time>2026-09-01T20:03:36Z</time>
  <course>160.41</course>
  <speed>17.77</speed>
  <fix>3d</fix>
</trkpt>
<trkpt lat="-27.2743204" lon="151.2906582">
  <ele>369.73</ele>
  <time>2026-09-01T20:03:36Z</time>
  <course>165.61</course>
  <speed>17.64149936938468</speed>
  <fix>3d</fix>
</trkpt>
<trkpt lat="-27.2742882" lon="151.2906471">
  <ele>369.51</ele>
  <time>2026-09-01T20:03:36Z</time>
  <course>162.98</course>
  <speed>17.64</speed>
  <fix>3d</fix>
</trkpt>
<trkpt lat="-27.2743356" lon="151.2906634">
  <ele>369.87</ele>
  <time>2026-09-01T20:03:36Z</time>
  <course>166.43</course>
  <speed>17.64149936938468</speed>
  <fix>3d</fix>
</trkpt>
<trkpt lat="-27.2742882" lon="151.2906471">
  <ele>369.51</ele>
  <time>2026-09-01T20:03:36Z</time>
  <course>162.98</course>
  <speed>17.64</speed>
  <fix>3d</fix>
</trkpt>
<trkpt lat="-27.2743512" lon="151.290666">
  <ele>369.79</ele>
  <time>2026-09-01T20:03:36Z</time>
  <course>167.35</course>
  <speed>17.523392936300894</speed>
  <fix>3d</fix>
</trkpt>
<trkpt lat="-27.2743187" lon="151.2906567">
  <ele>369.72</ele>
  <time>2026-09-01T20:03:36Z</time>
  <course>165.69</course>
  <speed>17.52</speed>
  <fix>3d</fix>
</trkpt>
<trkpt lat="-27.2743664" lon="151.2906703">
  <ele>370.1</ele>
  <time>2026-09-01T20:03:36Z</time>
  <course>168.27</course>
  <speed>17.523392936300894</speed>
  <fix>3d</fix>
</trkpt>
<trkpt lat="-27.2743187" lon="151.2906567">
  <ele>369.72</ele>
  <time>2026-09-01T20:03:36Z</time>
  <course>165.69</course>
  <speed>17.52</speed>
  <fix>3d</fix>
</trkpt>
<trkpt lat="-27.2743819" lon="151.290672">
  <ele>370.28</ele>
  <time>2026-09-01T20:03:36Z</time>
  <course>169.2</course>
  <speed>17.413170302963216</speed>
  <fix>3d</fix>
</trkpt>
<trkpt lat="-27.2743493" lon="151.2906646">
  <ele>369.94</ele>
  <time>2026-09-01T20:03:36Z</time>
  <course>168.58</course>
  <speed>17.41</speed>
  <fix>3d</fix>
</trkpt>
<trkpt lat="-27.2743972" lon="151.2906755">
  <ele>370.17</ele>
  <time>2026-09-01T20:03:36Z</time>
  <course>170.13</course>
  <speed>17.413170302963216</speed>
  <fix>3d</fix>
</trkpt>
<trkpt lat="-27.2743493" lon="151.2906646">
  <ele>369.94</ele>
  <time>2026-09-01T20:03:36Z</time>
  <course>168.58</course>
  <speed>17.41</speed>
  <fix>3d</fix>
</trkpt>
<trkpt lat="-27.2744128" lon="151.290676">
  <ele>370.33</ele>
  <time>2026-09-01T20:03:36Z</time>
  <course>171.11</course>
  <speed>17.315825131942166</speed>
  <fix>3d</fix>
</trkpt>
<trkpt lat="-27.2743801" lon="151.2906706">
  <ele>370.14</ele>
  <time>2026-09-01T20:03:36Z</time>
  <course>171.58</course>
  <speed>17.31</speed>
  <fix>3d</fix>
</trkpt>
<trkpt lat="-27.2744282" lon="151.2906786">
  <ele>370.39</ele>
  <time>2026-09-01T20:03:36Z</time>
  <course>172.02</course>
  <speed>17.315825131942166</speed>
  <fix>3d</fix>
</trkpt>
<trkpt lat="-27.2743801" lon="151.2906706">
  <ele>370.14</ele>
  <time>2026-09-01T20:03:36Z</time>
  <course>171.58</course>
  <speed>17.31</speed>
  <fix>3d</fix>
</trkpt>
<trkpt lat="-27.2744437" lon="151.2906781">
  <ele>370.63</ele>
  <time>2026-09-01T20:03:36Z</time>
  <course>172.95</course>
  <speed>17.22540565560068</speed>
  <fix>3d</fix>
</trkpt>
<trkpt lat="-27.2744109" lon="151.2906747">
  <ele>370.33</ele>
  <time>2026-09-01T20:03:36Z</time>
  <course>174.62</course>
  <speed>17.23</speed>
  <fix>3d</fix>
</trkpt>
<trkpt lat="-27.2744591" lon="151.2906797">
  <ele>370.74</ele>
  <time>2026-09-01T20:03:36Z</time>
  <course>173.9</course>
  <speed>17.22540565560068</speed>
  <fix>3d</fix>
</trkpt>
<trkpt lat="-27.2744109" lon="151.2906747">
  <ele>370.33</ele>
  <time>2026-09-01T20:03:36Z</time>
  <course>174.62</course>
  <speed>17.23</speed>
  <fix>3d</fix>
</trkpt>
<trkpt lat="-27.2744744" lon="151.2906784">
  <ele>370.71</ele>
  <time>2026-09-01T20:03:36Z</time>
  <course>174.86</course>
  <speed>17.153882942354482</speed>
  <fix>3d</fix>
</trkpt>
<trkpt lat="-27.2744416" lon="151.290677">
  <ele>370.51</ele>
  <time>2026-09-01T20:03:36Z</time>
  <course>177.68</course>
  <speed>17.16</speed>
  <fix>3d</fix>
</trkpt>
<trkpt lat="-27.2744898" lon="151.2906791">
  <ele>370.6</ele>
  <time>2026-09-01T20:03:36Z</time>
  <course>175.81</course>
  <speed>17.153882942354482</speed>
  <fix>3d</fix>
</trkpt>
<trkpt lat="-27.2744416" lon="151.290677">
  <ele>370.51</ele>
  <time>2026-09-01T20:03:36Z</time>
  <course>177.68</course>
  <speed>17.16</speed>
  <fix>3d</fix>
</trkpt>
<trkpt lat="-27.2745055" lon="151.2906771">
  <ele>370.72</ele>
  <time>2026-09-01T20:03:36Z</time>
  <course>176.8</course>
  <speed>17.10128942506968</speed>
  <fix>3d</fix>
</trkpt>
<trkpt lat="-27.2744725" lon="151.2906775">
  <ele>370.68</ele>
  <time>2026-09-01T20:03:36Z</time>
  <course>180.73</course>
  <speed>17.1</speed>
  <fix>3d</fix>
</trkpt>
<trkpt lat="-27.2745208" lon="151.2906769">
  <ele>370.99</ele>
  <time>2026-09-01T20:03:36Z</time>
  <course>177.76</course>
  <speed>17.10128942506968</speed>
  <fix>3d</fix>
</trkpt>
<trkpt lat="-27.2744725" lon="151.2906775">
  <ele>370.68</ele>
  <time>2026-09-01T20:03:36Z</time>
  <course>180.73</course>
  <speed>17.1</speed>
  <fix>3d</fix>
</trkpt>
<trkpt lat="-27.2745356" lon="151.2906738">
  <ele>370.76</ele>
  <time>2026-09-01T20:03:36Z</time>
  <course>178.74</course>
  <speed>17.067448549797945</speed>
  <fix>3d</fix>
</trkpt>
<trkpt lat="-27.2745031" lon="151.2906762">
  <ele>370.83</ele>
  <time>2026-09-01T20:03:36Z</time>
  <course>183.8</course>
  <speed>17.06</speed>
  <fix>3d</fix>
</trkpt>
<trkpt lat="-27.2745509" lon="151.2906727">
  <ele>370.89</ele>
  <time>2026-09-01T20:03:36Z</time>
  <course>179.71</course>
  <speed>17.067448549797945</speed>
  <fix>3d</fix>
</trkpt>
<trkpt lat="-27.2745031" lon="151.2906762">
  <ele>370.83</ele>
  <time>2026-09-01T20:03:36Z</time>
  <course>183.8</course>
  <speed>17.06</speed>
  <fix>3d</fix>
</trkpt>
<trkpt lat="-27.2745659" lon="151.2906687">
  <ele>371.23</ele>
  <time>2026-09-01T20:03:36Z</time>
  <course>180.75</course>
  <speed>17.052463165185255</speed>
  <fix>3d</fix>
</trkpt>
<trkpt lat="-27.2745336" lon="151.2906731">
  <ele>370.96</ele>
  <time>2026-09-01T20:03:36Z</time>
  <course>186.89</course>
  <speed>17.05</speed>
  <fix>3d</fix>
</trkpt>
<trkpt lat="-27.2745812" lon="151.2906667">
  <ele>371.02</ele>
  <time>2026-09-01T20:03:36Z</time>
  <course>181.75</course>
  <speed>17.052463165185255</speed>
  <fix>3d</fix>
</trkpt>
<trkpt lat="-27.2745336" lon="151.2906731">
  <ele>370.96</ele>
  <time>2026-09-01T20:03:36Z</time>
  <course>186.89</course>
  <speed>17.05</speed>
  <fix>3d</fix>
</trkpt>
<trkpt lat="-27.274596" lon="151.2906617">
  <ele>371.06</ele>
  <time>2026-09-01T20:03:36Z</time>
  <course>182.75</course>
  <speed>17.060507026463196</speed>
  <fix>3d</fix>
</trkpt>
<trkpt lat="-27.2745639" lon="151.290668">
  <ele>371.07</ele>
  <time>2026-09-01T20:03:36Z</time>
  <course>190.02</course>
  <speed>17.06</speed>
  <fix>3d</fix>
</trkpt>
<trkpt lat="-27.2746111" lon="151.2906587">
  <ele>371.1</ele>
  <time>2026-09-01T20:03:36Z</time>
  <course>183.78</course>
  <speed>17.060507026463196</speed>
  <fix>3d</fix>
</trkpt>
<trkpt lat="-27.2745639" lon="151.290668">
  <ele>371.07</ele>
  <time>2026-09-01T20:03:36Z</time>
  <course>190.02</course>
  <speed>17.06</speed>
  <fix>3d</fix>
</trkpt>
<trkpt lat="-27.2746258" lon="151.2906527">
  <ele>371.07</ele>
  <time>2026-09-01T20:03:36Z</time>
  <course>184.79</course>
  <speed>17.09092156672659</speed>
  <fix>3d</fix>
</trkpt>
<trkpt lat="-27.274594" lon="151.2906611">
  <ele>371.16</ele>
  <time>2026-09-01T20:03:36Z</time>
  <course>193.19</course>
  <speed>17.09</speed>
  <fix>3d</fix>
</trkpt>
<trkpt lat="-27.2746408" lon="151.2906488">
  <ele>371.3</ele>
  <time>2026-09-01T20:03:36Z</time>
  <course>185.81</course>
  <speed>17.09092156672659</speed>
  <fix>3d</fix>
</trkpt>
<trkpt lat="-27.274594" lon="151.2906611">
  <ele>371.16</ele>
  <time>2026-09-01T20:03:36Z</time>
  <course>193.19</course>
  <speed>17.09</speed>
  <fix>3d</fix>
</trkpt>
<trkpt lat="-27.2746551" lon="151.2906418">
  <ele>371.26</ele>
  <time>2026-09-01T20:03:36Z</time>
  <course>186.84</course>
  <speed>17.14442766615439</speed>
  <fix>3d</fix>
</trkpt>
<trkpt lat="-27.2746237" lon="151.2906522">
  <ele>371.25</ele>
  <time>2026-09-01T20:03:36Z</time>
  <course>196.37</course>
  <speed>17.15</speed>
  <fix>3d</fix>
</trkpt>
<trkpt lat="-27.2746699" lon="151.2906369">
  <ele>371.14</ele>
  <time>2026-09-01T20:03:36Z</time>
  <course>187.89</course>
  <speed>17.14442766615439</speed>
  <fix>3d</fix>
</trkpt>
<trkpt lat="-27.2746237" lon="151.2906522">
  <ele>371.25</ele>
  <time>2026-09-01T20:03:36Z</time>
  <course>196.37</course>
  <speed>17.15</speed>
  <fix>3d</fix>
</trkpt>
<trkpt lat="-27.2746841" lon="151.2906291">
  <ele>371.43</ele>
  <time>2026-09-01T20:03:36Z</time>
  <course>188.94</course>
  <speed>17.22515021705181</speed>
  <fix>3d</fix>
</trkpt>
<trkpt lat="-27.2746531" lon="151.2906415">
  <ele>371.32</ele>
  <time>2026-09-01T20:03:36Z</time>
  <course>199.57</course>
  <speed>17.23</speed>
  <fix>3d</fix>
</trkpt>
<trkpt lat="-27.2746987" lon="151.2906233">
  <ele>371.38</ele>
  <time>2026-09-01T20:03:36Z</time>
  <course>190.04</course>
  <speed>17.22515021705181</speed>
  <fix>3d</fix>
</trkpt>
<trkpt lat="-27.2746531" lon="151.2906415">
  <ele>371.32</ele>
  <time>2026-09-01T20:03:36Z</time>
  <course>199.57</course>
  <speed>17.23</speed>
  <fix>3d</fix>
</trkpt>
<trkpt lat="-27.2747126" lon="151.2906145">
  <ele>371.28</ele>
  <time>2026-09-01T20:03:36Z</time>
  <course>191.16</course>
  <speed>17.326260415912028</speed>
  <fix>3d</fix>
</trkpt>
<trkpt lat="-27.2746821" lon="151.2906289">
  <ele>371.38</ele>
  <time>2026-09-01T20:03:36Z</time>
  <course>202.82</course>
  <speed>17.33</speed>
  <fix>3d</fix>
</trkpt>
<trkpt lat="-27.274727" lon="151.2906077">
  <ele>371.37</ele>
  <time>2026-09-01T20:03:36Z</time>
  <course>192.16</course>
  <speed>17.326260415912028</speed>
  <fix>3d</fix>
</trkpt>
<trkpt lat="-27.2746821" lon="151.2906289">
  <ele>371.38</ele>
  <time>2026-09-01T20:03:36Z</time>
  <course>202.82</course>
  <speed>17.33</speed>
  <fix>3d</fix>
</trkpt>
<trkpt lat="-27.2747404" lon="151.2905978">
  <ele>371.55</ele>
  <time>2026-09-01T20:03:36Z</time>
  <course>193.23</course>
  <speed>17.450825195388326</speed>
  <fix>3d</fix>
</trkpt>
<trkpt lat="-27.2747105" lon="151.2906143">
  <ele>371.44</ele>
  <time>2026-09-01T20:03:36Z</time>
  <course>206.1</course>
  <speed>17.45</speed>
  <fix>3d</fix>
</trkpt>
<trkpt lat="-27.2747545" lon="151.2905901">
  <ele>371.47</ele>
  <time>2026-09-01T20:03:36Z</time>
  <course>194.29</course>
  <speed>17.450825195388326</speed>
  <fix>3d</fix>
</trkpt>
<trkpt lat="-27.2747105" lon="151.2906143">
  <ele>371.44</ele>
  <time>2026-09-01T20:03:36Z</time>
  <course>206.1</course>
  <speed>17.45</speed>
  <fix>3d</fix>
</trkpt>
<trkpt lat="-27.2747676" lon="151.2905793">
  <ele>371.35</ele>
  <time>2026-09-01T20:03:36Z</time>
  <course>195.39</course>
  <speed>17.596022277776303</speed>
  <fix>3d</fix>
</trkpt>
<trkpt lat="-27.2747383" lon="151.2905978">
  <ele>371.5</ele>
  <time>2026-09-01T20:03:36Z</time>
  <course>209.34</course>
  <speed>17.59</speed>
  <fix>3d</fix>
</trkpt>
<trkpt lat="-27.2747814" lon="151.2905706">
  <ele>371.47</ele>
  <time>2026-09-01T20:03:36Z</time>
  <course>196.44</course>
  <speed>17.596022277776303</speed>
  <fix>3d</fix>
</trkpt>
<trkpt lat="-27.2747383" lon="151.2905978">
  <ele>371.5</ele>
  <time>2026-09-01T20:03:36Z</time>
  <course>209.34</course>
  <speed>17.59</speed>
  <fix>3d</fix>
</trkpt>
<trkpt lat="-27.2747943" lon="151.2905588">
  <ele>371.56</ele>
  <time>2026-09-01T20:03:36Z</time>
  <course>197.53</course>
  <speed>17.756784618843582</speed>
  <fix>3d</fix>
</trkpt>
<trkpt lat="-27.2747656" lon="151.2905794">
  <ele>371.55</ele>
  <time>2026-09-01T20:03:36Z</time>
  <course>212.55</course>
  <speed>17.76</speed>
  <fix>3d</fix>
</trkpt>
<trkpt lat="-27.2748078" lon="151.2905491">
  <ele>371.56</ele>
  <time>2026-09-01T20:03:36Z</time>
  <course>198.62</course>
  <speed>17.756784618843582</speed>
  <fix>3d</fix>
</trkpt>
<trkpt lat="-27.2747656" lon="151.2905794">
  <ele>371.55</ele>
  <time>2026-09-01T20:03:36Z</time>
  <course>212.55</course>
  <speed>17.76</speed>
  <fix>3d</fix>
</trkpt>
<trkpt lat="-27.27482" lon="151.2905366">
  <ele>371.53</ele>
  <time>2026-09-01T20:03:36Z</time>
  <course>199.7</course>
  <speed>17.9394537263541</speed>
  <fix>3d</fix>
</trkpt>
<trkpt lat="-27.2747921" lon="151.2905592">
  <ele>371.59</ele>
  <time>2026-09-01T20:03:36Z</time>
  <course>215.75</course>
  <speed>17.94</speed>
  <fix>3d</fix>
</trkpt>
<trkpt lat="-27.2748331" lon="151.290526">
  <ele>371.7</ele>
  <time>2026-09-01T20:03:36Z</time>
  <course>200.87</course>
  <speed>17.9394537263541</speed>
  <fix>3d</fix>
</trkpt>
<trkpt lat="-27.2747921" lon="151.2905592">
  <ele>371.59</ele>
  <time>2026-09-01T20:03:36Z</time>
  <course>215.75</course>
  <speed>17.94</speed>
  <fix>3d</fix>
</trkpt>
<trkpt lat="-27.274845" lon="151.2905125">
  <ele>371.82</ele>
  <time>2026-09-01T20:03:36Z</time>
  <course>201.98</course>
  <speed>18.14757284046547</speed>
  <fix>3d</fix>
</trkpt>
<trkpt lat="-27.2748179" lon="151.2905371">
  <ele>371.64</ele>
  <time>2026-09-01T20:03:36Z</time>
  <course>218.93</course>
  <speed>18.15</speed>
  <fix>3d</fix>
</trkpt>
<trkpt lat="-27.2748577" lon="151.2905009">
  <ele>371.73</ele>
  <time>2026-09-01T20:03:36Z</time>
  <course>203.11</course>
  <speed>18.14757284046547</speed>
  <fix>3d</fix>
</trkpt>
<trkpt lat="-27.2748179" lon="151.2905371">
  <ele>371.64</ele>
  <time>2026-09-01T20:03:36Z</time>
  <course>218.93</course>
  <speed>18.15</speed>
  <fix>3d</fix>
</trkpt>
<trkpt lat="-27.274869" lon="151.2904865">
  <ele>371.65</ele>
  <time>2026-09-01T20:03:36Z</time>
  <course>204.23</course>
  <speed>18.372786941561152</speed>
  <fix>3d</fix>
</trkpt>
<trkpt lat="-27.2748428" lon="151.2905131">
  <ele>371.69</ele>
  <time>2026-09-01T20:03:36Z</time>
  <course>222.11</course>
  <speed>18.38</speed>
  <fix>3d</fix>
</trkpt>
<trkpt lat="-27.2748811" lon="151.2904742">
  <ele>371.84</ele>
  <time>2026-09-01T20:03:36Z</time>
  <course>205.42</course>
  <speed>18.372786941561152</speed>
  <fix>3d</fix>
</trkpt>
<trkpt lat="-27.2748428" lon="151.2905131">
  <ele>371.69</ele>
  <time>2026-09-01T20:03:36Z</time>
  <course>222.11</course>
  <speed>18.38</speed>
  <fix>3d</fix>
</trkpt>
<trkpt lat="-27.2748919" lon="151.2904586">
  <ele>371.73</ele>
  <time>2026-09-01T20:03:36Z</time>
  <course>206.6</course>
  <speed>18.61842367119193</speed>
  <fix>3d</fix>
</trkpt>
<trkpt lat="-27.2748668" lon="151.2904872">
  <ele>371.72</ele>
  <time>2026-09-01T20:03:36Z</time>
  <course>225.33</course>
  <speed>18.62</speed>
  <fix>3d</fix>
</trkpt>
<trkpt lat="-27.2749037" lon="151.2904452">
  <ele>371.85</ele>
  <time>2026-09-01T20:03:36Z</time>
  <course>207.77</course>
  <speed>18.61842367119193</speed>
  <fix>3d</fix>
</trkpt>
<trkpt lat="-27.2748668" lon="151.2904872">
  <ele>371.72</ele>
  <time>2026-09-01T20:03:36Z</time>
  <course>225.33</course>
  <speed>18.62</speed>
  <fix>3d</fix>
</trkpt>
<trkpt lat="-27.2749137" lon="151.290429">
  <ele>371.86</ele>
  <time>2026-09-01T20:03:36Z</time>
  <course>209.01</course>
  <speed>18.88885915030339</speed>
  <fix>3d</fix>
</trkpt>
<trkpt lat="-27.2748898" lon="151.2904595">
  <ele>371.77</ele>
  <time>2026-09-01T20:03:36Z</time>
  <course>228.58</course>
  <speed>18.89</speed>
  <fix>3d</fix>
</trkpt>
<trkpt lat="-27.2749249" lon="151.2904147">
  <ele>371.93</ele>
  <time>2026-09-01T20:03:36Z</time>
  <course>210.23</course>
  <speed>18.88885915030339</speed>
  <fix>3d</fix>
</trkpt>
<trkpt lat="-27.2748898" lon="151.2904595">
  <ele>371.77</ele>
  <time>2026-09-01T20:03:36Z</time>
  <course>228.58</course>
  <speed>18.89</speed>
  <fix>3d</fix>
</trkpt>
<trkpt lat="-27.2749343" lon="151.2903975">
  <ele>371.89</ele>
  <time>2026-09-01T20:03:36Z</time>
  <course>211.46</course>
  <speed>19.178865972731547</speed>
  <fix>3d</fix>
</trkpt>
<trkpt lat="-27.2749117" lon="151.2904299">
  <ele>371.81</ele>
  <time>2026-09-01T20:03:36Z</time>
  <course>231.85</course>
  <speed>19.18</speed>
  <fix>3d</fix>
</trkpt>
<trkpt lat="-27.274945" lon="151.2903822">
  <ele>371.69</ele>
  <time>2026-09-01T20:03:36Z</time>
  <course>212.77</course>
  <speed>19.178865972731547</speed>
  <fix>3d</fix>
</trkpt>
<trkpt lat="-27.2749117" lon="151.2904299">
  <ele>371.81</ele>
  <time>2026-09-01T20:03:36Z</time>
  <course>231.85</course>
  <speed>19.18</speed>
  <fix>3d</fix>
</trkpt>
<trkpt lat="-27.2749537" lon="151.290364">
  <ele>371.99</ele>
  <time>2026-09-01T20:03:36Z</time>
  <course>214.03</course>
  <speed>19.49365537809674</speed>
  <fix>3d</fix>
</trkpt>
<trkpt lat="-27.2749324" lon="151.2903984">
  <ele>371.86</ele>
  <time>2026-09-01T20:03:36Z</time>
  <course>235.12</course>
  <speed>19.5</speed>
  <fix>3d</fix>
</trkpt>
<trkpt lat="-27.2749637" lon="151.2903478">
  <ele>371.93</ele>
  <time>2026-09-01T20:03:36Z</time>
  <course>215.26</course>
  <speed>19.49365537809674</speed>
  <fix>3d</fix>
</trkpt>
<trkpt lat="-27.2749324" lon="151.2903984">
  <ele>371.86</ele>
  <time>2026-09-01T20:03:36Z</time>
  <course>235.12</course>
  <speed>19.5</speed>
  <fix>3d</fix>
</trkpt>
<trkpt lat="-27.2749716" lon="151.2903289">
  <ele>371.76</ele>
  <time>2026-09-01T20:03:36Z</time>
  <course>216.52</course>
  <speed>19.838399633034918</speed>
  <fix>3d</fix>
</trkpt>
<trkpt lat="-27.2749518" lon="151.2903652">
  <ele>371.91</ele>
  <time>2026-09-01T20:03:36Z</time>
  <course>238.4</course>
  <speed>19.84</speed>
  <fix>3d</fix>
</trkpt>
<trkpt lat="-27.274981" lon="151.2903118">
  <ele>372.07</ele>
  <time>2026-09-01T20:03:36Z</time>
  <course>217.81</course>
  <speed>19.838399633034918</speed>
  <fix>3d</fix>
</trkpt>
<trkpt lat="-27.2749518" lon="151.2903652">
  <ele>371.91</ele>
  <time>2026-09-01T20:03:36Z</time>
  <course>238.4</course>
  <speed>19.84</speed>
  <fix>3d</fix>
</trkpt>
<trkpt lat="-27.2749881" lon="151.2902919">
  <ele>371.84</ele>
  <time>2026-09-01T20:03:36Z</time>
  <course>219.14</course>
  <speed>20.196653188090348</speed>
  <fix>3d</fix>
</trkpt>
<trkpt lat="-27.2749698" lon="151.2903301">
  <ele>371.95</ele>
  <time>2026-09-01T20:03:36Z</time>
  <course>241.68</course>
  <speed>20.2</speed>
  <fix>3d</fix>
</trkpt>
<trkpt lat="-27.2749967" lon="151.2902739">
  <ele>372.1</ele>
  <time>2026-09-01T20:03:36Z</time>
  <course>220.51</course>
  <speed>20.196653188090348</speed>
  <fix>3d</fix>
</trkpt>
<trkpt lat="-27.2749698" lon="151.2903301">
  <ele>371.95</ele>
  <time>2026-09-01T20:03:36Z</time>
  <course>241.68</course>
  <speed>20.2</speed>
  <fix>3d</fix>
</trkpt>
<trkpt lat="-27.2750028" lon="151.2902531">
  <ele>371.86</ele>
  <time>2026-09-01T20:03:36Z</time>
  <course>221.94</course>
  <speed>20.59694152052678</speed>
  <fix>3d</fix>
</trkpt>
<trkpt lat="-27.2749862" lon="151.2902932">
  <ele>372.0</ele>
  <time>2026-09-01T20:03:36Z</time>
  <course>244.94</course>
  <speed>20.59</speed>
  <fix>3d</fix>
</trkpt>
<trkpt lat="-27.2750107" lon="151.2902342">
  <ele>372.03</ele>
  <time>2026-09-01T20:03:36Z</time>
  <course>223.32</course>
  <speed>20.59694152052678</speed>
  <fix>3d</fix>
</trkpt>
<trkpt lat="-27.2749862" lon="151.2902932">
  <ele>372.0</ele>
  <time>2026-09-01T20:03:36Z</time>
  <course>244.94</course>
  <speed>20.59</speed>
  <fix>3d</fix>
</trkpt>
<trkpt lat="-27.2750159" lon="151.2902125">
  <ele>372.22</ele>
  <time>2026-09-01T20:03:36Z</time>
  <course>224.74</course>
  <speed>21.013300549889824</speed>
  <fix>3d</fix>
</trkpt>
<trkpt lat="-27.275001" lon="151.2902547">
  <ele>372.05</ele>
  <time>2026-09-01T20:03:36Z</time>
  <course>248.25</course>
  <speed>21.02</speed>
  <fix>3d</fix>
</trkpt>
<trkpt lat="-27.2750229" lon="151.2901928">
  <ele>372.05</ele>
  <time>2026-09-01T20:03:36Z</time>
  <course>226.21</course>
  <speed>21.013300549889824</speed>
  <fix>3d</fix>
</trkpt>
<trkpt lat="-27.275001" lon="151.2902547">
  <ele>372.05</ele>
  <time>2026-09-01T20:03:36Z</time>
  <course>248.25</course>
  <speed>21.02</speed>
  <fix>3d</fix>
</trkpt>
<trkpt lat="-27.2750271" lon="151.2901704">
  <ele>372.06</ele>
  <time>2026-09-01T20:03:36Z</time>
  <course>227.64</course>
  <speed>21.462397349783647</speed>
  <fix>3d</fix>
</trkpt>
<trkpt lat="-27.2750141" lon="151.2902144">
  <ele>372.1</ele>
  <time>2026-09-01T20:03:36Z</time>
  <course>251.61</course>
  <speed>21.46</speed>
  <fix>3d</fix>
</trkpt>
<trkpt lat="-27.2750331" lon="151.2901498">
  <ele>372.22</ele>
  <time>2026-09-01T20:03:36Z</time>
  <course>229.16</course>
  <speed>21.462397349783647</speed>
  <fix>3d</fix>
</trkpt>
<trkpt lat="-27.2750141" lon="151.2902144">
  <ele>372.1</ele>
  <time>2026-09-01T20:03:36Z</time>
  <course>251.61</course>
  <speed>21.46</speed>
  <fix>3d</fix>
</trkpt>
<trkpt lat="-27.2750362" lon="151.2901266">
  <ele>372.36</ele>
  <time>2026-09-01T20:03:36Z</time>
  <course>230.82</course>
  <speed>21.92581355389122</speed>
  <fix>3d</fix>
</trkpt>
<trkpt lat="-27.2750253" lon="151.2901724">
  <ele>372.16</ele>
  <time>2026-09-01T20:03:36Z</time>
  <course>254.99</course>
  <speed>21.93</speed>
  <fix>3d</fix>
</trkpt>
<trkpt lat="-27.2750413" lon="151.2901052">
  <ele>372.28</ele>
  <time>2026-09-01T20:03:36Z</time>
  <course>232.45</course>
  <speed>21.92581355389122</speed>
  <fix>3d</fix>
</trkpt>
<trkpt lat="-27.2750253" lon="151.2901724">
  <ele>372.16</ele>
  <time>2026-09-01T20:03:36Z</time>
  <course>254.99</course>
  <speed>21.93</speed>
  <fix>3d</fix>
</trkpt>
<trkpt lat="-27.2750429" lon="151.2900815">
  <ele>372.22</ele>
  <time>2026-09-01T20:03:36Z</time>
  <course>234.11</course>
  <speed>22.422116314032447</speed>
  <fix>3d</fix>
</trkpt>
<trkpt lat="-27.2750344" lon="151.2901288">
  <ele>372.22</ele>
  <time>2026-09-01T20:03:36Z</time>
  <course>258.45</course>
  <speed>22.42</speed>
  <fix>3d</fix>
</trkpt>
<trkpt lat="-27.275047" lon="151.2900593">
  <ele>372.34</ele>
  <time>2026-09-01T20:03:36Z</time>
  <course>235.75</course>
  <speed>22.422116314032447</speed>
  <fix>3d</fix>
</trkpt>
<trkpt lat="-27.2750344" lon="151.2901288">
  <ele>372.22</ele>
  <time>2026-09-01T20:03:36Z</time>
  <course>258.45</course>
  <speed>22.42</speed>
  <fix>3d</fix>
</trkpt>
<trkpt lat="-27.2750474" lon="151.2900347">
  <ele>372.38</ele>
  <time>2026-09-01T20:03:36Z</time>
  <course>237.43</course>
  <speed>22.95275582582623</speed>
  <fix>3d</fix>
</trkpt>
<trkpt lat="-27.2750413" lon="151.2900836">
  <ele>372.28</ele>
  <time>2026-09-01T20:03:36Z</time>
  <course>262.0</course>
  <speed>22.95</speed>
  <fix>3d</fix>
</trkpt>
<trkpt lat="-27.2750502" lon="151.2900117">
  <ele>372.55</ele>
  <time>2026-09-01T20:03:36Z</time>
  <course>239.2</course>
  <speed>22.95275582582623</speed>
  <fix>3d</fix>
</trkpt>
<trkpt lat="-27.2750413" lon="151.2900836">
  <ele>372.28</ele>
  <time>2026-09-01T20:03:36Z</time>
  <course>262.0</course>
  <speed>22.95</speed>
  <fix>3d</fix>
</trkpt>
<trkpt lat="-27.2750492" lon="151.2899865">
  <ele>372.26</ele>
  <time>2026-09-01T20:03:36Z</time>
  <course>240.93</course>
  <speed>23.499040405939983</speed>
  <fix>3d</fix>
</trkpt>
<trkpt lat="-27.2750458" lon="151.2900369">
  <ele>372.36</ele>
  <time>2026-09-01T20:03:36Z</time>
  <course>265.6</course>
  <speed>23.5</speed>
  <fix>3d</fix>
</trkpt>
<trkpt lat="-27.2750508" lon="151.2899628">
  <ele>372.4</ele>
  <time>2026-09-01T20:03:36Z</time>
  <course>242.74</course>
  <speed>23.499040405939983</speed>
  <fix>3d</fix>
</trkpt>
<trkpt lat="-27.2750458" lon="151.2900369">
  <ele>372.36</ele>
  <time>2026-09-01T20:03:36Z</time>
  <course>265.6</course>
  <speed>23.5</speed>
  <fix>3d</fix>
</trkpt>
<trkpt lat="-27.2750484" lon="151.289937">
  <ele>372.65</ele>
  <time>2026-09-01T20:03:36Z</time>
  <course>244.65</course>
  <speed>24.08212615198251</speed>
  <fix>3d</fix>
</trkpt>
<trkpt lat="-27.2750478" lon="151.2899888">
  <ele>372.44</ele>
  <time>2026-09-01T20:03:36Z</time>
  <course>269.22</course>
  <speed>24.08</speed>
  <fix>3d</fix>
</trkpt>
<trkpt lat="-27.2750487" lon="151.2899124">
  <ele>372.48</ele>
  <time>2026-09-01T20:03:36Z</time>
  <course>246.58</course>
  <speed>24.08212615198251</speed>
  <fix>3d</fix>
</trkpt>
<trkpt lat="-27.2750478" lon="151.2899888">
  <ele>372.44</ele>
  <time>2026-09-01T20:03:36Z</time>
  <course>269.22</course>
  <speed>24.08</speed>
  <fix>3d</fix>
</trkpt>
<trkpt lat="-27.2750446" lon="151.2898863">
  <ele>372.54</ele>
  <time>2026-09-01T20:03:36Z</time>
  <course>248.57</course>
  <speed>24.70215577636899</speed>
  <fix>3d</fix>
</trkpt>
<trkpt lat="-27.275047" lon="151.2899394">
  <ele>372.52</ele>
  <time>2026-09-01T20:03:36Z</time>
  <course>272.94</course>
  <speed>24.7</speed>
  <fix>3d</fix>
</trkpt>
<trkpt lat="-27.2750435" lon="151.2898614">
  <ele>372.68</ele>
  <time>2026-09-01T20:03:36Z</time>
  <course>250.57</course>
  <speed>24.70215577636899</speed>
  <fix>3d</fix>
</trkpt>
<trkpt lat="-27.275047" lon="151.2899394">
  <ele>372.52</ele>
  <time>2026-09-01T20:03:36Z</time>
  <course>272.94</course>
  <speed>24.7</speed>
  <fix>3d</fix>
</trkpt>
<trkpt lat="-27.2750376" lon="151.2898349">
  <ele>372.81</ele>
  <time>2026-09-01T20:03:36Z</time>
  <course>252.66</course>
  <speed>25.34462073103482</speed>
  <fix>3d</fix>
</trkpt>
<trkpt lat="-27.2750432" lon="151.289889">
  <ele>372.62</ele>
  <time>2026-09-01T20:03:36Z</time>
  <course>276.73</course>
  <speed>25.34</speed>
  <fix>3d</fix>
</trkpt>
<trkpt lat="-27.2750349" lon="151.2898094">
  <ele>372.66</ele>
  <time>2026-09-01T20:03:36Z</time>
  <course>254.81</course>
  <speed>25.34462073103482</speed>
  <fix>3d</fix>
</trkpt>
<trkpt lat="-27.2750432" lon="151.289889">
  <ele>372.62</ele>
  <time>2026-09-01T20:03:36Z</time>
  <course>276.73</course>
  <speed>25.34</speed>
  <fix>3d</fix>
</trkpt>
<trkpt lat="-27.2750272" lon="151.2897827">
  <ele>372.72</ele>
  <time>2026-09-01T20:03:36Z</time>
  <course>256.99</course>
  <speed>26.001278814704477</speed>
  <fix>3d</fix>
</trkpt>
<trkpt lat="-27.2750363" lon="151.2898377">
  <ele>372.74</ele>
  <time>2026-09-01T20:03:36Z</time>
  <course>280.58</course>
  <speed>26.01</speed>
  <fix>3d</fix>
</trkpt>
<trkpt lat="-27.2750229" lon="151.2897569">
  <ele>372.75</ele>
  <time>2026-09-01T20:03:36Z</time>
  <course>259.29</course>
  <speed>26.001278814704477</speed>
  <fix>3d</fix>
</trkpt>
<trkpt lat="-27.2750363" lon="151.2898377">
  <ele>372.74</ele>
  <time>2026-09-01T20:03:36Z</time>
  <course>280.58</course>
  <speed>26.01</speed>
  <fix>3d</fix>
</trkpt>
<trkpt lat="-27.275013" lon="151.28973">
  <ele>372.88</ele>
  <time>2026-09-01T20:03:36Z</time>
  <course>261.61</course>
  <speed>26.696997958572048</speed>
  <fix>3d</fix>
</trkpt>
<trkpt lat="-27.2750259" lon="151.2897858">
  <ele>372.86</ele>
  <time>2026-09-01T20:03:36Z</time>
  <course>284.55</course>
  <speed>26.7</speed>
  <fix>3d</fix>
</trkpt>
<trkpt lat="-27.275007" lon="151.2897038">
  <ele>373.17</ele>
  <time>2026-09-01T20:03:36Z</time>
  <course>263.86</course>
  <speed>26.696997958572048</speed>
  <fix>3d</fix>
</trkpt>
<trkpt lat="-27.2750259" lon="151.2897858">
  <ele>372.86</ele>
  <time>2026-09-01T20:03:36Z</time>
  <course>284.55</course>
  <speed>26.7</speed>
  <fix>3d</fix>
</trkpt>
<trkpt lat="-27.2749953" lon="151.2896772">
  <ele>373.26</ele>
  <time>2026-09-01T20:03:36Z</time>
  <course>266.28</course>
  <speed>27.417111445227047</speed>
  <fix>3d</fix>
</trkpt>
<trkpt lat="-27.2750121" lon="151.2897334">
  <ele>373.0</ele>
  <time>2026-09-01T20:03:36Z</time>
  <course>288.64</course>
  <speed>27.42</speed>
  <fix>3d</fix>
</trkpt>
<trkpt lat="-27.2749874" lon="151.289651">
  <ele>373.01</ele>
  <time>2026-09-01T20:03:36Z</time>
  <course>268.89</course>
  <speed>27.417111445227047</speed>
  <fix>3d</fix>
</trkpt>
<trkpt lat="-27.2750121" lon="151.2897334">
  <ele>373.0</ele>
  <time>2026-09-01T20:03:36Z</time>
  <course>288.64</course>
  <speed>27.42</speed>
  <fix>3d</fix>
</trkpt>
<trkpt lat="-27.2749734" lon="151.2896248">
  <ele>373.19</ele>
  <time>2026-09-01T20:03:36Z</time>
  <course>271.41</course>
  <speed>28.16323845014987</speed>
  <fix>3d</fix>
</trkpt>
<trkpt lat="-27.2749944" lon="151.2896809">
  <ele>373.16</ele>
  <time>2026-09-01T20:03:36Z</time>
  <course>292.82</course>
  <speed>28.16</speed>
  <fix>3d</fix>
</trkpt>
<trkpt lat="-27.2749636" lon="151.2895986">
  <ele>373.31</ele>
  <time>2026-09-01T20:03:36Z</time>
  <course>274.01</course>
  <speed>28.16323845014987</speed>
  <fix>3d</fix>
</trkpt>
<trkpt lat="-27.2749944" lon="151.2896809">
  <ele>373.16</ele>
  <time>2026-09-01T20:03:36Z</time>
  <course>292.82</course>
  <speed>28.16</speed>
  <fix>3d</fix>
</trkpt>
<trkpt lat="-27.2749474" lon="151.289573">
  <ele>373.67</ele>
  <time>2026-09-01T20:03:36Z</time>
  <course>276.66</course>
  <speed>28.918160384090825</speed>
  <fix>3d</fix>
</trkpt>
<trkpt lat="-27.2749727" lon="151.2896286">
  <ele>373.34</ele>
  <time>2026-09-01T20:03:36Z</time>
  <course>297.11</course>
  <speed>28.92</speed>
  <fix>3d</fix>
</trkpt>
<trkpt lat="-27.2749357" lon="151.2895472">
  <ele>373.49</ele>
  <time>2026-09-01T20:03:36Z</time>
  <course>279.42</course>
  <speed>28.918160384090825</speed>
  <fix>3d</fix>
</trkpt>
<trkpt lat="-27.2749727" lon="151.2896286">
  <ele>373.34</ele>
  <time>2026-09-01T20:03:36Z</time>
  <course>297.11</course>
  <speed>28.92</speed>
  <fix>3d</fix>
</trkpt>
<trkpt lat="-27.2749174" lon="151.2895226">
  <ele>373.91</ele>
  <time>2026-09-01T20:03:36Z</time>
  <course>282.22</course>
  <speed>29.675749358693537</speed>
  <fix>3d</fix>
</trkpt>
<trkpt lat="-27.274947" lon="151.289577">
  <ele>373.55</ele>
  <time>2026-09-01T20:03:36Z</time>
  <course>301.5</course>
  <speed>29.68</speed>
  <fix>3d</fix>
</trkpt>
<trkpt lat="-27.2749034" lon="151.289497">
  <ele>373.66</ele>
  <time>2026-09-01T20:03:36Z</time>
  <course>285.1</course>
  <speed>29.675749358693537</speed>
  <fix>3d</fix>
</trkpt>
<trkpt lat="-27.274947" lon="151.289577">
  <ele>373.55</ele>
  <time>2026-09-01T20:03:36Z</time>
  <course>301.5</course>
  <speed>29.68</speed>
  <fix>3d</fix>
</trkpt>
<trkpt lat="-27.2748828" lon="151.2894735">
  <ele>373.97</ele>
  <time>2026-09-01T20:03:36Z</time>
  <course>287.97</course>
  <speed>30.433476633470583</speed>
  <fix>3d</fix>
</trkpt>
<trkpt lat="-27.274917" lon="151.2895265">
  <ele>373.78</ele>
  <time>2026-09-01T20:03:36Z</time>
  <course>306.0</course>
  <speed>30.44</speed>
  <fix>3d</fix>
</trkpt>
<trkpt lat="-27.2748667" lon="151.2894486">
  <ele>374.06</ele>
  <time>2026-09-01T20:03:36Z</time>
  <course>291.03</course>
  <speed>30.433476633470583</speed>
  <fix>3d</fix>
</trkpt>
<trkpt lat="-27.274917" lon="151.2895265">
  <ele>373.78</ele>
  <time>2026-09-01T20:03:36Z</time>
  <course>306.0</course>
  <speed>30.44</speed>
  <fix>3d</fix>
</trkpt>
<trkpt lat="-27.2748438" lon="151.2894267">
  <ele>374.41</ele>
  <time>2026-09-01T20:03:36Z</time>
  <course>294.13</course>
  <speed>31.19026130060471</speed>
  <fix>3d</fix>
</trkpt>
<trkpt lat="-27.2748826" lon="151.2894776">
  <ele>374.04</ele>
  <time>2026-09-01T20:03:36Z</time>
  <course>310.6</course>
  <speed>31.19</speed>
  <fix>3d</fix>
</trkpt>
<trkpt lat="-27.2748256" lon="151.2894027">
  <ele>374.32</ele>
  <time>2026-09-01T20:03:36Z</time>
  <course>297.24</course>
  <speed>31.19026130060471</speed>
  <fix>3d</fix>
</trkpt>
<trkpt lat="-27.2748826" lon="151.2894776">
  <ele>374.04</ele>
  <time>2026-09-01T20:03:36Z</time>
  <course>310.6</course>
  <speed>31.19</speed>
  <fix>3d</fix>
</trkpt>
<trkpt lat="-27.2748005" lon="151.2893826">
  <ele>374.59</ele>
  <time>2026-09-01T20:03:36Z</time>
  <course>300.38</course>
  <speed>31.919329566894103</speed>
  <fix>3d</fix>
</trkpt>
<trkpt lat="-27.2748439" lon="151.2894309">
  <ele>374.33</ele>
  <time>2026-09-01T20:03:36Z</time>
  <course>315.33</course>
  <speed>31.93</speed>
  <fix>3d</fix>
</trkpt>
<trkpt lat="-27.2747801" lon="151.2893599">
  <ele>374.69</ele>
  <time>2026-09-01T20:03:36Z</time>
  <course>303.61</course>
  <speed>31.919329566894103</speed>
  <fix>3d</fix>
</trkpt>
<trkpt lat="-27.2748439" lon="151.2894309">
  <ele>374.33</ele>
  <time>2026-09-01T20:03:36Z</time>
  <course>315.33</course>
  <speed>31.93</speed>
  <fix>3d</fix>
</trkpt>
<trkpt lat="-27.2747531" lon="151.289342">
  <ele>374.84</ele>
  <time>2026-09-01T20:03:36Z</time>
  <course>307.04</course>
  <speed>32.63148173160391</speed>
  <fix>3d</fix>
</trkpt>
<trkpt lat="-27.274801" lon="151.289387">
  <ele>374.65</ele>
  <time>2026-09-01T20:03:36Z</time>
  <course>320.16</course>
  <speed>32.64</speed>
  <fix>3d</fix>
</trkpt>
<trkpt lat="-27.2747306" lon="151.2893209">
  <ele>375.06</ele>
  <time>2026-09-01T20:03:36Z</time>
  <course>310.48</course>
  <speed>32.63148173160391</speed>
  <fix>3d</fix>
</trkpt>
<trkpt lat="-27.274801" lon="151.289387">
  <ele>374.65</ele>
  <time>2026-09-01T20:03:36Z</time>
  <course>320.16</course>
  <speed>32.64</speed>
  <fix>3d</fix>
</trkpt>
<trkpt lat="-27.2747017" lon="151.2893056">
  <ele>375.14</ele>
  <time>2026-09-01T20:03:36Z</time>
  <course>313.99</course>
  <speed>33.30021020954673</speed>
  <fix>3d</fix>
</trkpt>
<trkpt lat="-27.2747539" lon="151.2893465">
  <ele>375.01</ele>
  <time>2026-09-01T20:03:36Z</time>
  <course>325.12</course>
  <speed>33.3</speed>
  <fix>3d</fix>
</trkpt>
<trkpt lat="-27.2746771" lon="151.2892863">
  <ele>375.59</ele>
  <time>2026-09-01T20:03:36Z</time>
  <course>317.51</course>
  <speed>33.30021020954673</speed>
  <fix>3d</fix>
</trkpt>
<trkpt lat="-27.2747539" lon="151.2893465">
  <ele>375.01</ele>
  <time>2026-09-01T20:03:36Z</time>
  <course>325.12</course>
  <speed>33.3</speed>
  <fix>3d</fix>
</trkpt>
<trkpt lat="-27.2746466" lon="151.2892741">
  <ele>375.86</ele>
  <time>2026-09-01T20:03:36Z</time>
  <course>321.22</course>
  <speed>33.91977889078878</speed>
  <fix>3d</fix>
</trkpt>
<trkpt lat="-27.2747029" lon="151.2893103">
  <ele>375.41</ele>
  <time>2026-09-01T20:03:36Z</time>
  <course>330.24</course>
  <speed>33.92</speed>
  <fix>3d</fix>
</trkpt>
<trkpt lat="-27.2746199" lon="151.2892569">
  <ele>375.95</ele>
  <time>2026-09-01T20:03:36Z</time>
  <course>324.93</course>
  <speed>33.91977889078878</speed>
  <fix>3d</fix>
</trkpt>
<trkpt lat="-27.2747029" lon="151.2893103">
  <ele>375.41</ele>
  <time>2026-09-01T20:03:36Z</time>
  <course>330.24</course>
  <speed>33.92</speed>
  <fix>3d</fix>
</trkpt>
<trkpt lat="-27.2745879" lon="151.2892478">
  <ele>376.03</ele>
  <time>2026-09-01T20:03:36Z</time>
  <course>328.54</course>
  <speed>34.47145195665538</speed>
  <fix>3d</fix>
</trkpt>
<trkpt lat="-27.2746482" lon="151.2892787">
  <ele>375.84</ele>
  <time>2026-09-01T20:03:36Z</time>
  <course>335.51</course>
  <speed>34.48</speed>
  <fix>3d</fix>
</trkpt>
<trkpt lat="-27.2745597" lon="151.2892334">
  <ele>376.59</ele>
  <time>2026-09-01T20:03:36Z</time>
  <course>332.21</course>
  <speed>34.47145195665538</speed>
  <fix>3d</fix>
</trkpt>
<trkpt lat="-27.2746482" lon="151.2892787">
  <ele>375.84</ele>
  <time>2026-09-01T20:03:36Z</time>
  <course>335.51</course>
  <speed>34.48</speed>
  <fix>3d</fix>
</trkpt>
<trkpt lat="-27.2745269" lon="151.2892279">
  <ele>376.51</ele>
  <time>2026-09-01T20:03:36Z</time>
  <course>335.86</course>
  <speed>34.92379847611082</speed>
  <fix>3d</fix>
</trkpt>
<trkpt lat="-27.2745903" lon="151.2892527">
  <ele>376.32</ele>
  <time>2026-09-01T20:03:36Z</time>
  <course>340.83</course>
  <speed>34.93</speed>
  <fix>3d</fix>
</trkpt>
<trkpt lat="-27.2744973" lon="151.2892164">
  <ele>376.79</ele>
  <time>2026-09-01T20:03:36Z</time>
  <course>339.48</course>
  <speed>34.92379847611082</speed>
  <fix>3d</fix>
</trkpt>
<trkpt lat="-27.2745903" lon="151.2892527">
  <ele>376.32</ele>
  <time>2026-09-01T20:03:36Z</time>
  <course>340.83</course>
  <speed>34.93</speed>
  <fix>3d</fix>
</trkpt>
<trkpt lat="-27.2744642" lon="151.2892143">
  <ele>377.14</ele>
  <time>2026-09-01T20:03:36Z</time>
  <course>342.94</course>
  <speed>35.250248226076366</speed>
  <fix>3d</fix>
</trkpt>
<trkpt lat="-27.2745299" lon="151.2892326">
  <ele>376.83</ele>
  <time>2026-09-01T20:03:36Z</time>
  <course>346.11</course>
  <speed>35.25</speed>
  <fix>3d</fix>
</trkpt>
<trkpt lat="-27.2744334" lon="151.2892058">
  <ele>377.7</ele>
  <time>2026-09-01T20:03:36Z</time>
  <course>346.26</course>
  <speed>35.250248226076366</speed>
  <fix>3d</fix>
</trkpt>
<trkpt lat="-27.2745299" lon="151.2892326">
  <ele>376.83</ele>
  <time>2026-09-01T20:03:36Z</time>
  <course>346.11</course>
  <speed>35.25</speed>
  <fix>3d</fix>
</trkpt>
<trkpt lat="-27.2744007" lon="151.289207">
  <ele>377.89</ele>
  <time>2026-09-01T20:03:36Z</time>
  <course>349.59</course>
  <speed>35.433887734765996</speed>
  <fix>3d</fix>
</trkpt>
<trkpt lat="-27.2744677" lon="151.2892186">
  <ele>377.38</ele>
  <time>2026-09-01T20:03:36Z</time>
  <course>351.23</course>
  <speed>35.44</speed>
  <fix>3d</fix>
</trkpt>
<trkpt lat="-27.2743693" lon="151.2892016">
  <ele>377.91</ele>
  <time>2026-09-01T20:03:36Z</time>
  <course>352.87</course>
  <speed>35.433887734765996</speed>
  <fix>3d</fix>
</trkpt>
<trkpt lat="-27.2744677" lon="151.2892186">
  <ele>377.38</ele>
  <time>2026-09-01T20:03:36Z</time>
  <course>351.23</course>
  <speed>35.44</speed>
  <fix>3d</fix>
</trkpt>
<trkpt lat="-27.2743366" lon="151.2892055">
  <ele>378.21</ele>
  <time>2026-09-01T20:03:36Z</time>
  <course>356.03</course>
  <speed>35.50189431565589</speed>
  <fix>3d</fix>
</trkpt>
<trkpt lat="-27.2744043" lon="151.2892107">
  <ele>377.95</ele>
  <time>2026-09-01T20:03:36Z</time>
  <course>356.09</course>
  <speed>35.5</speed>
  <fix>3d</fix>
</trkpt>
<trkpt lat="-27.2743047" lon="151.2892031">
  <ele>378.83</ele>
  <time>2026-09-01T20:03:36Z</time>
  <course>359.0</course>
  <speed>35.50189431565589</speed>
  <fix>3d</fix>
</trkpt>
<trkpt lat="-27.2744043" lon="151.2892107">
  <ele>377.95</ele>
  <time>2026-09-01T20:03:36Z</time>
  <course>356.09</course>
  <speed>35.5</speed>
  <fix>3d</fix>
</trkpt>
<trkpt lat="-27.2742728" lon="151.2892096">
  <ele>378.86</ele>
  <time>2026-09-01T20:03:36Z</time>
  <course>1.96</course>
  <speed>35.45260780252985</speed>
  <fix>3d</fix>
</trkpt>
<trkpt lat="-27.2743406" lon="151.2892087">
  <ele>378.52</ele>
  <time>2026-09-01T20:03:36Z</time>
  <course>0.69</course>
  <speed>35.45</speed>
  <fix>3d</fix>
</trkpt>
<trkpt lat="-27.274241" lon="151.28921">
  <ele>379.19</ele>
  <time>2026-09-01T20:03:36Z</time>
  <course>5.0</course>
  <speed>35.45260780252985</speed>
  <fix>3d</fix>
</trkpt>
<trkpt lat="-27.2743406" lon="151.2892087">
  <ele>378.52</ele>
  <time>2026-09-01T20:03:36Z</time>
  <course>0.69</course>
  <speed>35.45</speed>
  <fix>3d</fix>
</trkpt>
<trkpt lat="-27.2742097" lon="151.2892188">
  <ele>379.36</ele>
  <time>2026-09-01T20:03:36Z</time>
  <course>7.96</course>
  <speed>35.30548116086226</speed>
  <fix>3d</fix>
</trkpt>
<trkpt lat="-27.274277" lon="151.2892122">
  <ele>379.06</ele>
  <time>2026-09-01T20:03:36Z</time>
  <course>5.02</course>
  <speed>35.31</speed>
  <fix>3d</fix>
</trkpt>
<trkpt lat="-27.2741781" lon="151.2892219">
  <ele>379.72</ele>
  <time>2026-09-01T20:03:36Z</time>
  <course>10.78</course>
  <speed>35.30548116086226</speed>
  <fix>3d</fix>
</trkpt>
<trkpt lat="-27.274277" lon="151.2892122">
  <ele>379.06</ele>
  <time>2026-09-01T20:03:36Z</time>
  <course>5.02</course>
  <speed>35.31</speed>
  <fix>3d</fix>
</trkpt>
<trkpt lat="-27.274148" lon="151.2892331">
  <ele>379.74</ele>
  <time>2026-09-01T20:03:36Z</time>
  <course>13.55</course>
  <speed>35.08973639114435</speed>
  <fix>3d</fix>
</trkpt>
<trkpt lat="-27.2742142" lon="151.2892211">
  <ele>379.56</ele>
  <time>2026-09-01T20:03:36Z</time>
  <course>9.18</course>
  <speed>35.09</speed>
  <fix>3d</fix>
</trkpt>
<trkpt lat="-27.2741169" lon="151.2892388">
  <ele>380.26</ele>
  <time>2026-09-01T20:03:36Z</time>
  <course>16.27</course>
  <speed>35.08973639114435</speed>
  <fix>3d</fix>
</trkpt>
<trkpt lat="-27.2742142" lon="151.2892211">
  <ele>379.56</ele>
  <time>2026-09-01T20:03:36Z</time>
  <course>9.18</course>
  <speed>35.09</speed>
  <fix>3d</fix>
</trkpt>
<trkpt lat="-27.2740878" lon="151.2892519">
  <ele>380.33</ele>
  <time>2026-09-01T20:03:36Z</time>
  <course>19.04</course>
  <speed>34.79795971030485</speed>
  <fix>3d</fix>
</trkpt>
<trkpt lat="-27.2741526" lon="151.2892348">
  <ele>380.0</ele>
  <time>2026-09-01T20:03:36Z</time>
  <course>13.19</course>
  <speed>34.8</speed>
  <fix>3d</fix>
</trkpt>
<trkpt lat="-27.2740574" lon="151.2892599">
  <ele>380.44</ele>
  <time>2026-09-01T20:03:36Z</time>
  <course>21.79</course>
  <speed>34.79795971030485</speed>
  <fix>3d</fix>
</trkpt>
<trkpt lat="-27.2741526" lon="151.2892348">
  <ele>380.0</ele>
  <time>2026-09-01T20:03:36Z</time>
  <course>13.19</course>
  <speed>34.8</speed>
  <fix>3d</fix>
</trkpt>
<trkpt lat="-27.2740295" lon="151.2892748">
  <ele>380.42</ele>
  <time>2026-09-01T20:03:36Z</time>
  <course>24.5</course>
  <speed>34.46320501636492</speed>
  <fix>3d</fix>
</trkpt>
<trkpt lat="-27.2740925" lon="151.2892531">
  <ele>380.37</ele>
  <time>2026-09-01T20:03:36Z</time>
  <course>17.04</course>
  <speed>34.47</speed>
  <fix>3d</fix>
</trkpt>
<trkpt lat="-27.2739999" lon="151.289285">
  <ele>380.57</ele>
  <time>2026-09-01T20:03:36Z</time>
  <course>27.19</course>
  <speed>34.46320501636492</speed>
  <fix>3d</fix>
</trkpt>
<trkpt lat="-27.2740925" lon="151.2892531">
  <ele>380.37</ele>
  <time>2026-09-01T20:03:36Z</time>
  <course>17.04</course>
  <speed>34.47</speed>
  <fix>3d</fix>
</trkpt>
<trkpt lat="-27.2739735" lon="151.2893017">
  <ele>380.8</ele>
  <time>2026-09-01T20:03:36Z</time>
  <course>29.96</course>
  <speed>34.07231280673503</speed>
  <fix>3d</fix>
</trkpt>
<trkpt lat="-27.2740344" lon="151.2892756">
  <ele>380.66</ele>
  <time>2026-09-01T20:03:36Z</time>
  <course>20.85</course>
  <speed>34.07</speed>
  <fix>3d</fix>
</trkpt>
<trkpt lat="-27.2739449" lon="151.2893139">
  <ele>380.72</ele>
  <time>2026-09-01T20:03:36Z</time>
  <course>32.81</course>
  <speed>34.07231280673503</speed>
  <fix>3d</fix>
</trkpt>
<trkpt lat="-27.2740344" lon="151.2892756">
  <ele>380.66</ele>
  <time>2026-09-01T20:03:36Z</time>
  <course>20.85</course>
  <speed>34.07</speed>
  <fix>3d</fix>
</trkpt>
<trkpt lat="-27.2739198" lon="151.2893322">
  <ele>380.92</ele>
  <time>2026-09-01T20:03:36Z</time>
  <course>35.58</course>
  <speed>33.63086677443803</speed>
  <fix>3d</fix>
</trkpt>
<trkpt lat="-27.2739782" lon="151.289302">
  <ele>380.87</ele>
  <time>2026-09-01T20:03:36Z</time>
  <course>24.67</course>
  <speed>33.63</speed>
  <fix>3d</fix>
</trkpt>
<trkpt lat="-27.2738923" lon="151.2893464">
  <ele>380.97</ele>
  <time>2026-09-01T20:03:36Z</time>
  <course>38.47</course>
  <speed>33.63086677443803</speed>
  <fix>3d</fix>
</trkpt>
<trkpt lat="-27.2739782" lon="151.289302">
  <ele>380.87</ele>
  <time>2026-09-01T20:03:36Z</time>
  <course>24.67</course>
  <speed>33.63</speed>
  <fix>3d</fix>
</trkpt>
<trkpt lat="-27.2738688" lon="151.2893666">
  <ele>381.08</ele>
  <time>2026-09-01T20:03:36Z</time>
  <course>41.45</course>
  <speed>33.14135784786133</speed>
  <fix>3d</fix>
</trkpt>
<trkpt lat="-27.2739247" lon="151.2893323">
  <ele>380.99</ele>
  <time>2026-09-01T20:03:36Z</time>
  <course>28.6</course>
  <speed>33.14</speed>
  <fix>3d</fix>
</trkpt>
<trkpt lat="-27.2738427" lon="151.2893826">
  <ele>380.96</ele>
  <time>2026-09-01T20:03:36Z</time>
  <course>44.38</course>
  <speed>33.14135784786133</speed>
  <fix>3d</fix>
</trkpt>
<trkpt lat="-27.2739247" lon="151.2893323">
  <ele>380.99</ele>
  <time>2026-09-01T20:03:36Z</time>
  <course>28.6</course>
  <speed>33.14</speed>
  <fix>3d</fix>
</trkpt>
<trkpt lat="-27.2738212" lon="151.2894042">
  <ele>380.95</ele>
  <time>2026-09-01T20:03:36Z</time>
  <course>47.33</course>
  <speed>32.57705480856119</speed>
  <fix>3d</fix>
</trkpt>
<trkpt lat="-27.2738739" lon="151.2893662">
  <ele>381.03</ele>
  <time>2026-09-01T20:03:36Z</time>
  <course>32.68</course>
  <speed>32.58</speed>
  <fix>3d</fix>
</trkpt>
<trkpt lat="-27.2737966" lon="151.289422">
  <ele>380.86</ele>
  <time>2026-09-01T20:03:36Z</time>
  <course>50.45</course>
  <speed>32.57705480856119</speed>
  <fix>3d</fix>
</trkpt>
<trkpt lat="-27.2738739" lon="151.2893662">
  <ele>381.03</ele>
  <time>2026-09-01T20:03:36Z</time>
  <course>32.68</course>
  <speed>32.58</speed>
  <fix>3d</fix>
</trkpt>
<trkpt lat="-27.2737775" lon="151.2894446">
  <ele>380.73</ele>
  <time>2026-09-01T20:03:36Z</time>
  <course>53.6</course>
  <speed>31.952020280414196</speed>
  <fix>3d</fix>
</trkpt>
<trkpt lat="-27.2738263" lon="151.2894033">
  <ele>381.0</ele>
  <time>2026-09-01T20:03:36Z</time>
  <course>36.92</course>
  <speed>31.95</speed>
  <fix>3d</fix>
</trkpt>
<trkpt lat="-27.2737545" lon="151.289464">
  <ele>380.86</ele>
  <time>2026-09-01T20:03:36Z</time>
  <course>56.78</course>
  <speed>31.952020280414196</speed>
  <fix>3d</fix>
</trkpt>
<trkpt lat="-27.2738263" lon="151.2894033">
  <ele>381.0</ele>
  <time>2026-09-01T20:03:36Z</time>
  <course>36.92</course>
  <speed>31.95</speed>
  <fix>3d</fix>
</trkpt>
<trkpt lat="-27.2737375" lon="151.2894881">
  <ele>380.58</ele>
  <time>2026-09-01T20:03:36Z</time>
  <course>60.02</course>
  <speed>31.260313498108108</speed>
  <fix>3d</fix>
</trkpt>
<trkpt lat="-27.2737823" lon="151.2894437">
  <ele>380.89</ele>
  <time>2026-09-01T20:03:36Z</time>
  <course>41.37</course>
  <speed>31.26</speed>
  <fix>3d</fix>
</trkpt>
<trkpt lat="-27.2737164" lon="151.289509">
  <ele>380.58</ele>
  <time>2026-09-01T20:03:36Z</time>
  <course>63.24</course>
  <speed>31.260313498108108</speed>
  <fix>3d</fix>
</trkpt>
<trkpt lat="-27.2737823" lon="151.2894437">
  <ele>380.89</ele>
  <time>2026-09-01T20:03:36Z</time>
  <course>41.37</course>
  <speed>31.26</speed>
  <fix>3d</fix>
</trkpt>
<trkpt lat="-27.2737017" lon="151.289534">
  <ele>380.69</ele>
  <time>2026-09-01T20:03:36Z</time>
  <course>66.56</course>
  <speed>30.47488310067817</speed>
  <fix>3d</fix>
</trkpt>
<trkpt lat="-27.2737421" lon="151.2894868">
  <ele>380.72</ele>
  <time>2026-09-01T20:03:36Z</time>
  <course>46.11</course>
  <speed>30.48</speed>
  <fix>3d</fix>
</trkpt>
<trkpt lat="-27.2736827" lon="151.2895562">
  <ele>380.62</ele>
  <time>2026-09-01T20:03:36Z</time>
  <course>69.97</course>
  <speed>30.47488310067817</speed>
  <fix>3d</fix>
</trkpt>
<trkpt lat="-27.2737421" lon="151.2894868">
  <ele>380.72</ele>
  <time>2026-09-01T20:03:36Z</time>
  <course>46.11</course>
  <speed>30.48</speed>
  <fix>3d</fix>
</trkpt>
<trkpt lat="-27.2736708" lon="151.2895821">
  <ele>380.47</ele>
  <time>2026-09-01T20:03:36Z</time>
  <course>73.33</course>
  <speed>29.62640038884238</speed>
  <fix>3d</fix>
</trkpt>
<trkpt lat="-27.2737063" lon="151.2895325">
  <ele>380.51</ele>
  <time>2026-09-01T20:03:36Z</time>
  <course>51.1</course>
  <speed>29.62</speed>
  <fix>3d</fix>
</trkpt>
<trkpt lat="-27.273654" lon="151.2896054">
  <ele>380.29</ele>
  <time>2026-09-01T20:03:36Z</time>
  <course>76.79</course>
  <speed>29.62640038884238</speed>
  <fix>3d</fix>
</trkpt>
<trkpt lat="-27.2737063" lon="151.2895325">
  <ele>380.51</ele>
  <time>2026-09-01T20:03:36Z</time>
  <course>51.1</course>
  <speed>29.62</speed>
  <fix>3d</fix>
</trkpt>
<trkpt lat="-27.2736449" lon="151.2896313">
  <ele>379.88</ele>
  <time>2026-09-01T20:03:36Z</time>
  <course>80.32</course>
  <speed>28.683558008029618</speed>
  <fix>3d</fix>
</trkpt>
<trkpt lat="-27.2736753" lon="151.2895799">
  <ele>380.25</ele>
  <time>2026-09-01T20:03:36Z</time>
  <course>56.36</course>
  <speed>28.68</speed>
  <fix>3d</fix>
</trkpt>
<trkpt lat="-27.2736307" lon="151.2896554">
  <ele>379.7</ele>
  <time>2026-09-01T20:03:36Z</time>
  <course>83.82</course>
  <speed>28.683558008029618</speed>
  <fix>3d</fix>
</trkpt>
<trkpt lat="-27.2736753" lon="151.2895799">
  <ele>380.25</ele>
  <time>2026-09-01T20:03:36Z</time>
  <course>56.36</course>
  <speed>28.68</speed>
  <fix>3d</fix>
</trkpt>
<trkpt lat="-27.2736245" lon="151.2896813">
  <ele>379.88</ele>
  <time>2026-09-01T20:03:36Z</time>
  <course>87.26</course>
  <speed>27.638236195531725</speed>
  <fix>3d</fix>
</trkpt>
<trkpt lat="-27.2736493" lon="151.2896288">
  <ele>379.95</ele>
  <time>2026-09-01T20:03:36Z</time>
  <course>61.93</course>
  <speed>27.64</speed>
  <fix>3d</fix>
</trkpt>
<trkpt lat="-27.2736128" lon="151.2897059">
  <ele>379.55</ele>
  <time>2026-09-01T20:03:36Z</time>
  <course>90.6</course>
  <speed>27.638236195531725</speed>
  <fix>3d</fix>
</trkpt>
<trkpt lat="-27.2736493" lon="151.2896288">
  <ele>379.95</ele>
  <time>2026-09-01T20:03:36Z</time>
  <course>61.93</course>
  <speed>27.64</speed>
  <fix>3d</fix>
</trkpt>
<trkpt lat="-27.2736094" lon="151.2897312">
  <ele>379.29</ele>
  <time>2026-09-01T20:03:37Z</time>
  <course>93.92</course>
  <speed>26.542164568851575</speed>
  <fix>3d</fix>
</trkpt>
<trkpt lat="-27.2736286" lon="151.2896783">
  <ele>379.63</ele>
  <time>2026-09-01T20:03:37Z</time>
  <course>67.75</course>
  <speed>26.54</speed>
  <fix>3d</fix>
</trkpt>
<trkpt lat="-27.2736004" lon="151.289756">
  <ele>379.21</ele>
  <time>2026-09-01T20:03:37Z</time>
  <course>97.23</course>
  <speed>26.542164568851575</speed>
  <fix>3d</fix>
</trkpt>
<trkpt lat="-27.2736286" lon="151.2896783">
  <ele>379.63</ele>
  <time>2026-09-01T20:03:37Z</time>
  <course>67.75</course>
  <speed>26.54</speed>
  <fix>3d</fix>
</trkpt>
<trkpt lat="-27.2735997" lon="151.2897804">
  <ele>379.08</ele>
  <time>2026-09-01T20:03:37Z</time>
  <course>100.46</course>
  <speed>25.42320986815001</speed>
  <fix>3d</fix>
</trkpt>
<trkpt lat="-27.2736133" lon="151.2897279">
  <ele>379.29</ele>
  <time>2026-09-01T20:03:37Z</time>
  <course>73.69</course>
  <speed>25.42</speed>
  <fix>3d</fix>
</trkpt>
<trkpt lat="-27.2735933" lon="151.2898051">
  <ele>378.96</ele>
  <time>2026-09-01T20:03:37Z</time>
  <course>103.6</course>
  <speed>25.42320986815001</speed>
  <fix>3d</fix>
</trkpt>
<trkpt lat="-27.2736133" lon="151.2897279">
  <ele>379.29</ele>
  <time>2026-09-01T20:03:37Z</time>
  <course>73.69</course>
  <speed>25.42</speed>
  <fix>3d</fix>
</trkpt>
<trkpt lat="-27.2735947" lon="151.2898283">
  <ele>378.82</ele>
  <time>2026-09-01T20:03:37Z</time>
  <course>106.62</course>
  <speed>24.292642919204983</speed>
  <fix>3d</fix>
</trkpt>
<trkpt lat="-27.273603" lon="151.2897767">
  <ele>378.93</ele>
  <time>2026-09-01T20:03:37Z</time>
  <course>79.67</course>
  <speed>24.29</speed>
  <fix>3d</fix>
</trkpt>
<trkpt lat="-27.2735908" lon="151.2898525">
  <ele>378.58</ele>
  <time>2026-09-01T20:03:37Z</time>
  <course>109.43</course>
  <speed>24.292642919204983</speed>
  <fix>3d</fix>
</trkpt>
<trkpt lat="-27.273603" lon="151.2897767">
  <ele>378.93</ele>
  <time>2026-09-01T20:03:37Z</time>
  <course>79.67</course>
  <speed>24.29</speed>
  <fix>3d</fix>
</trkpt>
<trkpt lat="-27.2735942" lon="151.2898741">
  <ele>378.42</ele>
  <time>2026-09-01T20:03:37Z</time>
  <course>112.13</course>
  <speed>23.166193040722078</speed>
  <fix>3d</fix>
</trkpt>
<trkpt lat="-27.2735975" lon="151.2898242">
  <ele>378.56</ele>
  <time>2026-09-01T20:03:37Z</time>
  <course>85.65</course>
  <speed>23.16</speed>
  <fix>3d</fix>
</trkpt>
<trkpt lat="-27.2735926" lon="151.2898975">
  <ele>378.1</ele>
  <time>2026-09-01T20:03:37Z</time>
  <course>114.67</course>
  <speed>23.166193040722078</speed>
  <fix>3d</fix>
</trkpt>
<trkpt lat="-27.2735975" lon="151.2898242">
  <ele>378.56</ele>
  <time>2026-09-01T20:03:37Z</time>
  <course>85.65</course>
  <speed>23.16</speed>
  <fix>3d</fix>
</trkpt>
<trkpt lat="-27.2735974" lon="151.2899176">
  <ele>377.94</ele>
  <time>2026-09-01T20:03:37Z</time>
  <course>117.04</course>
  <speed>22.096357165831655</speed>
  <fix>3d</fix>
</trkpt>
<trkpt lat="-27.2735964" lon="151.2898699">
  <ele>378.16</ele>
  <time>2026-09-01T20:03:37Z</time>
  <course>91.39</course>
  <speed>22.09</speed>
  <fix>3d</fix>
</trkpt>
<trkpt lat="-27.2735979" lon="151.28994">
  <ele>377.56</ele>
  <time>2026-09-01T20:03:37Z</time>
  <course>119.24</course>
  <speed>22.096357165831655</speed>
  <fix>3d</fix>
</trkpt>
<trkpt lat="-27.2735964" lon="151.2898699">
  <ele>378.16</ele>
  <time>2026-09-01T20:03:37Z</time>
  <course>91.39</course>
  <speed>22.09</speed>
  <fix>3d</fix>
</trkpt>
<trkpt lat="-27.273604" lon="151.2899588">
  <ele>377.28</ele>
  <time>2026-09-01T20:03:37Z</time>
  <course>121.23</course>
  <speed>21.106207617665472</speed>
  <fix>3d</fix>
</trkpt>
<trkpt lat="-27.2735993" lon="151.2899135">
  <ele>377.74</ele>
  <time>2026-09-01T20:03:37Z</time>
  <course>96.76</course>
  <speed>21.11</speed>
  <fix>3d</fix>
</trkpt>
<trkpt lat="-27.2736063" lon="151.28998">
  <ele>377.12</ele>
  <time>2026-09-01T20:03:37Z</time>
  <course>123.09</course>
  <speed>21.106207617665472</speed>
  <fix>3d</fix>
</trkpt>
<trkpt lat="-27.2735993" lon="151.2899135">
  <ele>377.74</ele>
  <time>2026-09-01T20:03:37Z</time>
  <course>96.76</course>
  <speed>21.11</speed>
  <fix>3d</fix>
</trkpt>
<trkpt lat="-27.2736129" lon="151.2899973">
  <ele>376.74</ele>
  <time>2026-09-01T20:03:37Z</time>
  <course>124.8</course>
  <speed>20.243364344890896</speed>
  <fix>3d</fix>
</trkpt>
<trkpt lat="-27.2736052" lon="151.2899547">
  <ele>377.28</ele>
  <time>2026-09-01T20:03:37Z</time>
  <course>101.61</course>
  <speed>20.24</speed>
  <fix>3d</fix>
</trkpt>
<trkpt lat="-27.2736166" lon="151.2900174">
  <ele>376.67</ele>
  <time>2026-09-01T20:03:37Z</time>
  <course>126.38</course>
  <speed>20.243364344890896</speed>
  <fix>3d</fix>
</trkpt>
<trkpt lat="-27.2736052" lon="151.2899547">
  <ele>377.28</ele>
  <time>2026-09-01T20:03:37Z</time>
  <course>101.61</course>
  <speed>20.24</speed>
  <fix>3d</fix>
</trkpt>
<trkpt lat="-27.2736238" lon="151.290034">
  <ele>376.39</ele>
  <time>2026-09-01T20:03:37Z</time>
  <course>127.83</course>
  <speed>19.505209560525106</speed>
  <fix>3d</fix>
</trkpt>
<trkpt lat="-27.2736136" lon="151.2899937">
  <ele>376.77</ele>
  <time>2026-09-01T20:03:37Z</time>
  <course>105.9</course>
  <speed>19.5</speed>
  <fix>3d</fix>
</trkpt>
<trkpt lat="-27.2736286" lon="151.2900532">
  <ele>375.98</ele>
  <time>2026-09-01T20:03:37Z</time>
  <course>129.19</course>
  <speed>19.505209560525106</speed>
  <fix>3d</fix>
</trkpt>
<trkpt lat="-27.2736136" lon="151.2899937">
  <ele>376.77</ele>
  <time>2026-09-01T20:03:37Z</time>
  <course>105.9</course>
  <speed>19.5</speed>
  <fix>3d</fix>
</trkpt>
<trkpt lat="-27.2736363" lon="151.2900689">
  <ele>375.83</ele>
  <time>2026-09-01T20:03:37Z</time>
  <course>130.49</course>
  <speed>18.873857581321314</speed>
  <fix>3d</fix>
</trkpt>
<trkpt lat="-27.2736242" lon="151.2900307">
  <ele>376.19</ele>
  <time>2026-09-01T20:03:37Z</time>
  <course>109.69</course>
  <speed>18.88</speed>
  <fix>3d</fix>
</trkpt>
<trkpt lat="-27.273642" lon="151.2900869">
  <ele>375.3</ele>
  <time>2026-09-01T20:03:37Z</time>
  <course>131.74</course>
  <speed>18.873857581321314</speed>
  <fix>3d</fix>
</trkpt>
<trkpt lat="-27.2736242" lon="151.2900307">
  <ele>376.19</ele>
  <time>2026-09-01T20:03:37Z</time>
  <course>109.69</course>
  <speed>18.88</speed>
  <fix>3d</fix>
</trkpt>
<trkpt lat="-27.2736501" lon="151.290102">
  <ele>374.91</ele>
  <time>2026-09-01T20:03:37Z</time>
  <course>132.95</course>
  <speed>18.356693602062435</speed>
  <fix>3d</fix>
</trkpt>
<trkpt lat="-27.2736364" lon="151.2900657">
  <ele>375.55</ele>
  <time>2026-09-01T20:03:37Z</time>
  <course>113.05</course>
  <speed>18.36</speed>
  <fix>3d</fix>
</trkpt>
<trkpt lat="-27.2736566" lon="151.2901191">
  <ele>374.63</ele>
  <time>2026-09-01T20:03:37Z</time>
  <course>134.12</course>
  <speed>18.356693602062435</speed>
  <fix>3d</fix>
</trkpt>
<trkpt lat="-27.2736364" lon="151.2900657">
  <ele>375.55</ele>
  <time>2026-09-01T20:03:37Z</time>
  <course>113.05</course>
  <speed>18.36</speed>
  <fix>3d</fix>
</trkpt>
<trkpt lat="-27.273665" lon="151.2901336">
  <ele>374.24</ele>
  <time>2026-09-01T20:03:37Z</time>
  <course>135.24</course>
  <speed>17.93376703316958</speed>
  <fix>3d</fix>
</trkpt>
<trkpt lat="-27.2736499" lon="151.290099">
  <ele>374.83</ele>
  <time>2026-09-01T20:03:37Z</time>
  <course>116.14</course>
  <speed>17.93</speed>
  <fix>3d</fix>
</trkpt>
<trkpt lat="-27.2736721" lon="151.2901499">
  <ele>373.69</ele>
  <time>2026-09-01T20:03:37Z</time>
  <course>136.39</course>
  <speed>17.93376703316958</speed>
  <fix>3d</fix>
</trkpt>
<trkpt lat="-27.2736499" lon="151.290099">
  <ele>374.83</ele>
  <time>2026-09-01T20:03:37Z</time>
  <course>116.14</course>
  <speed>17.93</speed>
  <fix>3d</fix>
</trkpt>
<trkpt lat="-27.2736811" lon="151.2901639">
  <ele>373.34</ele>
  <time>2026-09-01T20:03:37Z</time>
  <course>137.54</course>
  <speed>17.60164765014912</speed>
  <fix>3d</fix>
</trkpt>
<trkpt lat="-27.2736648" lon="151.2901308">
  <ele>374.05</ele>
  <time>2026-09-01T20:03:37Z</time>
  <course>119.09</course>
  <speed>17.6</speed>
  <fix>3d</fix>
</trkpt>
<trkpt lat="-27.2736888" lon="151.2901794">
  <ele>372.91</ele>
  <time>2026-09-01T20:03:37Z</time>
  <course>138.69</course>
  <speed>17.60164765014912</speed>
  <fix>3d</fix>
</trkpt>
<trkpt lat="-27.2736648" lon="151.2901308">
  <ele>374.05</ele>
  <time>2026-09-01T20:03:37Z</time>
  <course>119.09</course>
  <speed>17.6</speed>
  <fix>3d</fix>
</trkpt>
<trkpt lat="-27.2736984" lon="151.2901928">
  <ele>372.72</ele>
  <time>2026-09-01T20:03:37Z</time>
  <course>139.8</course>
  <speed>17.360659549683014</speed>
  <fix>3d</fix>
</trkpt>
<trkpt lat="-27.2736808" lon="151.2901612">
  <ele>373.22</ele>
  <time>2026-09-01T20:03:37Z</time>
  <course>122.08</course>
  <speed>17.36</speed>
  <fix>3d</fix>
</trkpt>
<trkpt lat="-27.2737067" lon="151.2902077">
  <ele>372.12</ele>
  <time>2026-09-01T20:03:37Z</time>
  <course>140.86</course>
  <speed>17.360659549683014</speed>
  <fix>3d</fix>
</trkpt>
<trkpt lat="-27.2736808" lon="151.2901612">
  <ele>373.22</ele>
  <time>2026-09-01T20:03:37Z</time>
  <course>122.08</course>
  <speed>17.36</speed>
  <fix>3d</fix>
</trkpt>
<trkpt lat="-27.273717" lon="151.2902207">
  <ele>371.64</ele>
  <time>2026-09-01T20:03:37Z</time>
  <course>141.91</course>
  <speed>17.217854105549854</speed>
  <fix>3d</fix>
</trkpt>
<trkpt lat="-27.273698" lon="151.2901903">
  <ele>372.39</ele>
  <time>2026-09-01T20:03:37Z</time>
  <course>125.14</course>
  <speed>17.21</speed>
  <fix>3d</fix>
</trkpt>
<trkpt lat="-27.2737259" lon="151.2902349">
  <ele>371.15</ele>
  <time>2026-09-01T20:03:37Z</time>
  <course>142.96</course>
  <speed>17.217854105549854</speed>
  <fix>3d</fix>
</trkpt>
<trkpt lat="-27.273698" lon="151.2901903">
  <ele>372.39</ele>
  <time>2026-09-01T20:03:37Z</time>
  <course>125.14</course>
  <speed>17.21</speed>
  <fix>3d</fix>
</trkpt>
<trkpt lat="-27.2737367" lon="151.2902472">
  <ele>370.82</ele>
  <time>2026-09-01T20:03:37Z</time>
  <course>143.96</course>
  <speed>17.140621342296782</speed>
  <fix>3d</fix>
</trkpt>
<trkpt lat="-27.2737164" lon="151.2902181">
  <ele>371.56</ele>
  <time>2026-09-01T20:03:37Z</time>
  <course>128.2</course>
  <speed>17.15</speed>
  <fix>3d</fix>
</trkpt>
<trkpt lat="-27.2737463" lon="151.2902608">
  <ele>370.57</ele>
  <time>2026-09-01T20:03:37Z</time>
  <course>144.9</course>
  <speed>17.140621342296782</speed>
  <fix>3d</fix>
</trkpt>
<trkpt lat="-27.2737164" lon="151.2902181">
  <ele>371.56</ele>
  <time>2026-09-01T20:03:37Z</time>
  <course>128.2</course>
  <speed>17.15</speed>
  <fix>3d</fix>
</trkpt>
<trkpt lat="-27.2737577" lon="151.2902726">
  <ele>370.07</ele>
  <time>2026-09-01T20:03:37Z</time>
  <course>145.72</course>
  <speed>17.14934401077779</speed>
  <fix>3d</fix>
</trkpt>
<trkpt lat="-27.273736" lon="151.2902447">
  <ele>370.77</ele>
  <time>2026-09-01T20:03:37Z</time>
  <course>131.2</course>
  <speed>17.15</speed>
  <fix>3d</fix>
</trkpt>
<trkpt lat="-27.2737678" lon="151.2902856">
  <ele>369.75</ele>
  <time>2026-09-01T20:03:37Z</time>
  <course>146.53</course>
  <speed>17.14934401077779</speed>
  <fix>3d</fix>
</trkpt>
<trkpt lat="-27.273736" lon="151.2902447">
  <ele>370.77</ele>
  <time>2026-09-01T20:03:37Z</time>
  <course>131.2</course>
  <speed>17.15</speed>
  <fix>3d</fix>
</trkpt>
<trkpt lat="-27.2737798" lon="151.2902969">
  <ele>369.66</ele>
  <time>2026-09-01T20:03:37Z</time>
  <course>147.31</course>
  <speed>17.22049070148699</speed>
  <fix>3d</fix>
</trkpt>
<trkpt lat="-27.2737569" lon="151.2902703">
  <ele>370.06</ele>
  <time>2026-09-01T20:03:37Z</time>
  <course>134.03</course>
  <speed>17.22</speed>
  <fix>3d</fix>
</trkpt>
<trkpt lat="-27.2737905" lon="151.2903094">
  <ele>369.12</ele>
  <time>2026-09-01T20:03:37Z</time>
  <course>148.01</course>
  <speed>17.22049070148699</speed>
  <fix>3d</fix>
</trkpt>
<trkpt lat="-27.2737569" lon="151.2902703">
  <ele>370.06</ele>
  <time>2026-09-01T20:03:37Z</time>
  <course>134.03</course>
  <speed>17.22</speed>
  <fix>3d</fix>
</trkpt>
<trkpt lat="-27.273803" lon="151.2903205">
  <ele>368.96</ele>
  <time>2026-09-01T20:03:37Z</time>
  <course>148.66</course>
  <speed>17.323524468190648</speed>
  <fix>3d</fix>
</trkpt>
<trkpt lat="-27.273779" lon="151.2902949">
  <ele>369.42</ele>
  <time>2026-09-01T20:03:37Z</time>
  <course>136.57</course>
  <speed>17.33</speed>
  <fix>3d</fix>
</trkpt>
<trkpt lat="-27.2738143" lon="151.2903325">
  <ele>368.84</ele>
  <time>2026-09-01T20:03:37Z</time>
  <course>149.29</course>
  <speed>17.323524468190648</speed>
  <fix>3d</fix>
</trkpt>
<trkpt lat="-27.273779" lon="151.2902949">
  <ele>369.42</ele>
  <time>2026-09-01T20:03:37Z</time>
  <course>136.57</course>
  <speed>17.33</speed>
  <fix>3d</fix>
</trkpt>
<trkpt lat="-27.2738273" lon="151.2903433">
  <ele>368.64</ele>
  <time>2026-09-01T20:03:37Z</time>
  <course>149.85</course>
  <speed>17.468248338056107</speed>
  <fix>3d</fix>
</trkpt>
<trkpt lat="-27.2738022" lon="151.2903186">
  <ele>368.88</ele>
  <time>2026-09-01T20:03:37Z</time>
  <course>138.78</course>
  <speed>17.47</speed>
  <fix>3d</fix>
</trkpt>
<trkpt lat="-27.2738391" lon="151.290355">
  <ele>368.22</ele>
  <time>2026-09-01T20:03:37Z</time>
  <course>150.26</course>
  <speed>17.468248338056107</speed>
  <fix>3d</fix>
</trkpt>
<trkpt lat="-27.2738022" lon="151.2903186">
  <ele>368.88</ele>
  <time>2026-09-01T20:03:37Z</time>
  <course>138.78</course>
  <speed>17.47</speed>
  <fix>3d</fix>
</trkpt>
<trkpt lat="-27.2738523" lon="151.2903655">
  <ele>367.98</ele>
  <time>2026-09-01T20:03:37Z</time>
  <course>150.68</course>
  <speed>17.61457635028444</speed>
  <fix>3d</fix>
</trkpt>
<trkpt lat="-27.2738263" lon="151.2903415">
  <ele>368.45</ele>
  <time>2026-09-01T20:03:37Z</time>
  <course>140.62</course>
  <speed>17.62</speed>
  <fix>3d</fix>
</trkpt>
<trkpt lat="-27.2738645" lon="151.2903768">
  <ele>367.89</ele>
  <time>2026-09-01T20:03:37Z</time>
  <course>151.15</course>
  <speed>17.61457635028444</speed>
  <fix>3d</fix>
</trkpt>
<trkpt lat="-27.2738263" lon="151.2903415">
  <ele>368.45</ele>
  <time>2026-09-01T20:03:37Z</time>
  <course>140.62</course>
  <speed>17.62</speed>
  <fix>3d</fix>
</trkpt>
<trkpt lat="-27.2738779" lon="151.2903873">
  <ele>367.75</ele>
  <time>2026-09-01T20:03:37Z</time>
  <course>151.58</course>
  <speed>17.763065613795384</speed>
  <fix>3d</fix>
</trkpt>
<trkpt lat="-27.2738511" lon="151.2903638">
  <ele>368.11</ele>
  <time>2026-09-01T20:03:37Z</time>
  <course>142.07</course>
  <speed>17.76</speed>
  <fix>3d</fix>
</trkpt>
<trkpt lat="-27.2738905" lon="151.2903983">
  <ele>367.94</ele>
  <time>2026-09-01T20:03:37Z</time>
  <course>151.93</course>
  <speed>17.763065613795384</speed>
  <fix>3d</fix>
</trkpt>
<trkpt lat="-27.2738511" lon="151.2903638">
  <ele>368.11</ele>
  <time>2026-09-01T20:03:37Z</time>
  <course>142.07</course>
  <speed>17.76</speed>
  <fix>3d</fix>
</trkpt>
<trkpt lat="-27.2739041" lon="151.2904089">
  <ele>367.62</ele>
  <time>2026-09-01T20:03:37Z</time>
  <course>152.28</course>
  <speed>17.912032268840964</speed>
  <fix>3d</fix>
</trkpt>
<trkpt lat="-27.2738766" lon="151.2903857">
  <ele>367.86</ele>
  <time>2026-09-01T20:03:37Z</time>
  <course>143.22</course>
  <speed>17.91</speed>
  <fix>3d</fix>
</trkpt>
<trkpt lat="-27.273917" lon="151.2904197">
  <ele>367.63</ele>
  <time>2026-09-01T20:03:37Z</time>
  <course>152.49</course>
  <speed>17.912032268840964</speed>
  <fix>3d</fix>
</trkpt>
<trkpt lat="-27.2738766" lon="151.2903857">
  <ele>367.86</ele>
  <time>2026-09-01T20:03:37Z</time>
  <course>143.22</course>
  <speed>17.91</speed>
  <fix>3d</fix>
</trkpt>
<trkpt lat="-27.2739306" lon="151.2904299">
  <ele>367.59</ele>
  <time>2026-09-01T20:03:37Z</time>
  <course>152.65</course>
  <speed>18.05112738861482</speed>
  <fix>3d</fix>
</trkpt>
<trkpt lat="-27.2739026" lon="151.2904072">
  <ele>367.69</ele>
  <time>2026-09-01T20:03:37Z</time>
  <course>144.18</course>
  <speed>18.05</speed>
  <fix>3d</fix>
</trkpt>
<trkpt lat="-27.2739437" lon="151.2904406">
  <ele>367.45</ele>
  <time>2026-09-01T20:03:37Z</time>
  <course>152.84</course>
  <speed>18.05112738861482</speed>
  <fix>3d</fix>
</trkpt>
<trkpt lat="-27.2739026" lon="151.2904072">
  <ele>367.69</ele>
  <time>2026-09-01T20:03:37Z</time>
  <course>144.18</course>
  <speed>18.05</speed>
  <fix>3d</fix>
</trkpt>
<trkpt lat="-27.2739578" lon="151.2904509">
  <ele>367.53</ele>
  <time>2026-09-01T20:03:37Z</time>
  <course>153.09</course>
  <speed>18.171386848559468</speed>
  <fix>3d</fix>
</trkpt>
<trkpt lat="-27.2739292" lon="151.2904284">
  <ele>367.6</ele>
  <time>2026-09-01T20:03:37Z</time>
  <course>144.97</course>
  <speed>18.17</speed>
  <fix>3d</fix>
</trkpt>
<trkpt lat="-27.2739711" lon="151.2904615">
  <ele>367.49</ele>
  <time>2026-09-01T20:03:37Z</time>
  <course>153.27</course>
  <speed>18.171386848559468</speed>
  <fix>3d</fix>
</trkpt>
<trkpt lat="-27.2739292" lon="151.2904284">
  <ele>367.6</ele>
  <time>2026-09-01T20:03:37Z</time>
  <course>144.97</course>
  <speed>18.17</speed>
  <fix>3d</fix>
</trkpt>
<trkpt lat="-27.2739851" lon="151.2904717">
  <ele>367.63</ele>
  <time>2026-09-01T20:03:37Z</time>
  <course>153.48</course>
  <speed>18.26752583137629</speed>
  <fix>3d</fix>
</trkpt>
<trkpt lat="-27.2739561" lon="151.2904494">
  <ele>367.57</ele>
  <time>2026-09-01T20:03:37Z</time>
  <course>145.64</course>
  <speed>18.27</speed>
  <fix>3d</fix>
</trkpt>
<trkpt lat="-27.2739986" lon="151.2904821">
  <ele>367.62</ele>
  <time>2026-09-01T20:03:37Z</time>
  <course>153.69</course>
  <speed>18.26752583137629</speed>
  <fix>3d</fix>
</trkpt>
<trkpt lat="-27.2739561" lon="151.2904494">
  <ele>367.57</ele>
  <time>2026-09-01T20:03:37Z</time>
  <course>145.64</course>
  <speed>18.27</speed>
  <fix>3d</fix>
</trkpt>
<trkpt lat="-27.2740127" lon="151.2904921">
  <ele>367.82</ele>
  <time>2026-09-01T20:03:37Z</time>
  <course>153.92</course>
  <speed>18.34393632784414</speed>
  <fix>3d</fix>
</trkpt>
<trkpt lat="-27.2739834" lon="151.2904701">
  <ele>367.6</ele>
  <time>2026-09-01T20:03:37Z</time>
  <course>146.27</course>
  <speed>18.34</speed>
  <fix>3d</fix>
</trkpt>
<trkpt lat="-27.2740264" lon="151.2905024">
  <ele>367.59</ele>
  <time>2026-09-01T20:03:37Z</time>
  <course>154.15</course>
  <speed>18.34393632784414</speed>
  <fix>3d</fix>
</trkpt>
<trkpt lat="-27.2739834" lon="151.2904701">
  <ele>367.6</ele>
  <time>2026-09-01T20:03:37Z</time>
  <course>146.27</course>
  <speed>18.34</speed>
  <fix>3d</fix>
</trkpt>
<trkpt lat="-27.2740405" lon="151.2905121">
  <ele>367.67</ele>
  <time>2026-09-01T20:03:37Z</time>
  <course>154.41</course>
  <speed>18.381199634409068</speed>
  <fix>3d</fix>
</trkpt>
<trkpt lat="-27.2740109" lon="151.2904905">
  <ele>367.68</ele>
  <time>2026-09-01T20:03:37Z</time>
  <course>146.96</course>
  <speed>18.38</speed>
  <fix>3d</fix>
</trkpt>
<trkpt lat="-27.2740542" lon="151.2905222">
  <ele>367.9</ele>
  <time>2026-09-01T20:03:37Z</time>
  <course>154.66</course>
  <speed>18.381199634409068</speed>
  <fix>3d</fix>
</trkpt>
<trkpt lat="-27.2740109" lon="151.2904905">
  <ele>367.68</ele>
  <time>2026-09-01T20:03:37Z</time>
  <course>146.96</course>
  <speed>18.38</speed>
  <fix>3d</fix>
</trkpt>
<trkpt lat="-27.2740685" lon="151.2905317">
  <ele>367.98</ele>
  <time>2026-09-01T20:03:37Z</time>
  <course>154.91</course>
  <speed>18.385826062486288</speed>
  <fix>3d</fix>
</trkpt>
<trkpt lat="-27.2740388" lon="151.2905106">
  <ele>367.81</ele>
  <time>2026-09-01T20:03:37Z</time>
  <course>147.75</course>
  <speed>18.38</speed>
  <fix>3d</fix>
</trkpt>
<trkpt lat="-27.2740825" lon="151.2905416">
  <ele>367.92</ele>
  <time>2026-09-01T20:03:37Z</time>
  <course>155.21</course>
  <speed>18.385826062486288</speed>
  <fix>3d</fix>
</trkpt>
<trkpt lat="-27.2740388" lon="151.2905106">
  <ele>367.81</ele>
  <time>2026-09-01T20:03:37Z</time>
  <course>147.75</course>
  <speed>18.38</speed>
  <fix>3d</fix>
</trkpt>
<trkpt lat="-27.2740969" lon="151.2905507">
  <ele>367.93</ele>
  <time>2026-09-01T20:03:37Z</time>
  <course>155.55</course>
  <speed>18.362671374285387</speed>
  <fix>3d</fix>
</trkpt>
<trkpt lat="-27.2740669" lon="151.2905302">
  <ele>367.96</ele>
  <time>2026-09-01T20:03:37Z</time>
  <course>148.7</course>
  <speed>18.36</speed>
  <fix>3d</fix>
</trkpt>
<trkpt lat="-27.274111" lon="151.2905603">
  <ele>368.31</ele>
  <time>2026-09-01T20:03:37Z</time>
  <course>155.94</course>
  <speed>18.362671374285387</speed>
  <fix>3d</fix>
</trkpt>
<trkpt lat="-27.2740669" lon="151.2905302">
  <ele>367.96</ele>
  <time>2026-09-01T20:03:37Z</time>
  <course>148.7</course>
  <speed>18.36</speed>
  <fix>3d</fix>
</trkpt>
<trkpt lat="-27.2741255" lon="151.2905689">
  <ele>368.1</ele>
  <time>2026-09-01T20:03:37Z</time>
  <course>156.34</course>
  <speed>18.312883443084544</speed>
  <fix>3d</fix>
</trkpt>
<trkpt lat="-27.2740952" lon="151.2905491">
  <ele>368.14</ele>
  <time>2026-09-01T20:03:37Z</time>
  <course>149.86</course>
  <speed>18.32</speed>
  <fix>3d</fix>
</trkpt>
<trkpt lat="-27.2741397" lon="151.2905782">
  <ele>368.49</ele>
  <time>2026-09-01T20:03:37Z</time>
  <course>156.74</course>
  <speed>18.312883443084544</speed>
  <fix>3d</fix>
</trkpt>
<trkpt lat="-27.2740952" lon="151.2905491">
  <ele>368.14</ele>
  <time>2026-09-01T20:03:37Z</time>
  <course>149.86</course>
  <speed>18.32</speed>
  <fix>3d</fix>
</trkpt>
<trkpt lat="-27.2741544" lon="151.2905862">
  <ele>368.63</ele>
  <time>2026-09-01T20:03:37Z</time>
  <course>157.23</course>
  <speed>18.250709575246656</speed>
  <fix>3d</fix>
</trkpt>
<trkpt lat="-27.2741238" lon="151.2905673">
  <ele>368.33</ele>
  <time>2026-09-01T20:03:37Z</time>
  <course>151.23</course>
  <speed>18.25</speed>
  <fix>3d</fix>
</trkpt>
<trkpt lat="-27.2741687" lon="151.290595">
  <ele>368.54</ele>
  <time>2026-09-01T20:03:37Z</time>
  <course>157.79</course>
  <speed>18.250709575246656</speed>
  <fix>3d</fix>
</trkpt>
<trkpt lat="-27.2741238" lon="151.2905673">
  <ele>368.33</ele>
  <time>2026-09-01T20:03:37Z</time>
  <course>151.23</course>
  <speed>18.25</speed>
  <fix>3d</fix>
</trkpt>
<trkpt lat="-27.2741836" lon="151.2906024">
  <ele>368.71</ele>
  <time>2026-09-01T20:03:37Z</time>
  <course>158.28</course>
  <speed>18.157753164970604</speed>
  <fix>3d</fix>
</trkpt>
<trkpt lat="-27.2741527" lon="151.2905846">
  <ele>368.53</ele>
  <time>2026-09-01T20:03:37Z</time>
  <course>152.86</course>
  <speed>18.16</speed>
  <fix>3d</fix>
</trkpt>
<trkpt lat="-27.2741981" lon="151.2906108">
  <ele>368.81</ele>
  <time>2026-09-01T20:03:37Z</time>
  <course>158.87</course>
  <speed>18.157753164970604</speed>
  <fix>3d</fix>
</trkpt>
<trkpt lat="-27.2741527" lon="151.2905846">
  <ele>368.53</ele>
  <time>2026-09-01T20:03:37Z</time>
  <course>152.86</course>
  <speed>18.16</speed>
  <fix>3d</fix>
</trkpt>
<trkpt lat="-27.2742131" lon="151.2906173">
  <ele>368.95</ele>
  <time>2026-09-01T20:03:37Z</time>
  <course>159.53</course>
  <speed>18.050069251944716</speed>
  <fix>3d</fix>
</trkpt>
<trkpt lat="-27.2741819" lon="151.2906008">
  <ele>368.74</ele>
  <time>2026-09-01T20:03:37Z</time>
  <course>154.76</course>
  <speed>18.05</speed>
  <fix>3d</fix>
</trkpt>
<trkpt lat="-27.2742278" lon="151.2906251">
  <ele>368.82</ele>
  <time>2026-09-01T20:03:37Z</time>
  <course>160.21</course>
  <speed>18.050069251944716</speed>
  <fix>3d</fix>
</trkpt>
<trkpt lat="-27.2741819" lon="151.2906008">
  <ele>368.74</ele>
  <time>2026-09-01T20:03:37Z</time>
  <course>154.76</course>
  <speed>18.05</speed>
  <fix>3d</fix>
</trkpt>
<trkpt lat="-27.2742429" lon="151.2906308">
  <ele>368.97</ele>
  <time>2026-09-01T20:03:37Z</time>
  <course>160.88</course>
  <speed>17.929910763860484</speed>
  <fix>3d</fix>
</trkpt>
<trkpt lat="-27.2742114" lon="151.2906157">
  <ele>368.96</ele>
  <time>2026-09-01T20:03:37Z</time>
  <course>156.88</course>
  <speed>17.93</speed>
  <fix>3d</fix>
</trkpt>
<trkpt lat="-27.2742577" lon="151.2906379">
  <ele>369.15</ele>
  <time>2026-09-01T20:03:37Z</time>
  <course>161.61</course>
  <speed>17.929910763860484</speed>
  <fix>3d</fix>
</trkpt>
<trkpt lat="-27.2742114" lon="151.2906157">
  <ele>368.96</ele>
  <time>2026-09-01T20:03:37Z</time>
  <course>156.88</course>
  <speed>17.93</speed>
  <fix>3d</fix>
</trkpt>
<trkpt lat="-27.2742729" lon="151.2906428">
  <ele>369.3</ele>
  <time>2026-09-01T20:03:37Z</time>
  <course>162.37</course>
  <speed>17.809124066051087</speed>
  <fix>3d</fix>
</trkpt>
<trkpt lat="-27.2742411" lon="151.2906292">
  <ele>369.18</ele>
  <time>2026-09-01T20:03:37Z</time>
  <course>159.22</course>
  <speed>17.81</speed>
  <fix>3d</fix>
</trkpt>
<trkpt lat="-27.2742879" lon="151.2906491">
  <ele>369.6</ele>
  <time>2026-09-01T20:03:37Z</time>
  <course>163.2</course>
  <speed>17.809124066051087</speed>
  <fix>3d</fix>
</trkpt>
<trkpt lat="-27.2742411" lon="151.2906292">
  <ele>369.18</ele>
  <time>2026-09-01T20:03:37Z</time>
  <course>159.22</course>
  <speed>17.81</speed>
  <fix>3d</fix>
</trkpt>
<trkpt lat="-27.2743035" lon="151.2906531">
  <ele>369.76</ele>
  <time>2026-09-01T20:03:37Z</time>
  <course>164.06</course>
  <speed>17.69614647317319</speed>
  <fix>3d</fix>
</trkpt>
<trkpt lat="-27.2742712" lon="151.2906411">
  <ele>369.4</ele>
  <time>2026-09-01T20:03:37Z</time>
  <course>161.68</course>
  <speed>17.7</speed>
  <fix>3d</fix>
</trkpt>
<trkpt lat="-27.2743186" lon="151.2906587">
  <ele>369.48</ele>
  <time>2026-09-01T20:03:37Z</time>
  <course>164.93</course>
  <speed>17.69614647317319</speed>
  <fix>3d</fix>
</trkpt>
<trkpt lat="-27.2742712" lon="151.2906411">
  <ele>369.4</ele>
  <time>2026-09-01T20:03:37Z</time>
  <course>161.68</course>
  <speed>17.7</speed>
  <fix>3d</fix>
</trkpt>
<trkpt lat="-27.274334" lon="151.2906618">
  <ele>369.72</ele>
  <time>2026-09-01T20:03:37Z</time>
  <course>165.87</course>
  <speed>17.574097416368215</speed>
  <fix>3d</fix>
</trkpt>
<trkpt lat="-27.2743015" lon="151.2906516">
  <ele>369.62</ele>
  <time>2026-09-01T20:03:37Z</time>
  <course>164.29</course>
  <speed>17.58</speed>
  <fix>3d</fix>
</trkpt>
<trkpt lat="-27.2743492" lon="151.2906667">
  <ele>370.05</ele>
  <time>2026-09-01T20:03:37Z</time>
  <course>166.75</course>
  <speed>17.574097416368215</speed>
  <fix>3d</fix>
</trkpt>
<trkpt lat="-27.2743015" lon="151.2906516">
  <ele>369.62</ele>
  <time>2026-09-01T20:03:37Z</time>
  <course>164.29</course>
  <speed>17.58</speed>
  <fix>3d</fix>
</trkpt>
<trkpt lat="-27.2743645" lon="151.2906686">
  <ele>370.0</ele>
  <time>2026-09-01T20:03:37Z</time>
  <course>167.63</course>
  <speed>17.45888026191829</speed>
  <fix>3d</fix>
</trkpt>
<trkpt lat="-27.274332" lon="151.2906603">
  <ele>369.83</ele>
  <time>2026-09-01T20:03:37Z</time>
  <course>167.11</course>
  <speed>17.46</speed>
  <fix>3d</fix>
</trkpt>
<trkpt lat="-27.2743798" lon="151.2906726">
  <ele>370.11</ele>
  <time>2026-09-01T20:03:37Z</time>
  <course>168.51</course>
  <speed>17.45888026191829</speed>
  <fix>3d</fix>
</trkpt>
<trkpt lat="-27.274332" lon="151.2906603">
  <ele>369.83</ele>
  <time>2026-09-01T20:03:37Z</time>
  <course>167.11</course>
  <speed>17.46</speed>
  <fix>3d</fix>
</trkpt>
<trkpt lat="-27.2743954" lon="151.2906737">
  <ele>370.25</ele>
  <time>2026-09-01T20:03:37Z</time>
  <course>169.43</course>
  <speed>17.359438354969896</speed>
  <fix>3d</fix>
</trkpt>
<trkpt lat="-27.2743627" lon="151.2906673">
  <ele>370.04</ele>
  <time>2026-09-01T20:03:37Z</time>
  <course>170.07</course>
  <speed>17.36</speed>
  <fix>3d</fix>
</trkpt>
<trkpt lat="-27.2744107" lon="151.2906767">
  <ele>370.15</ele>
  <time>2026-09-01T20:03:37Z</time>
  <course>170.42</course>
  <speed>17.359438354969896</speed>
  <fix>3d</fix>
</trkpt>
<trkpt lat="-27.2743627" lon="151.2906673">
  <ele>370.04</ele>
  <time>2026-09-01T20:03:37Z</time>
  <course>170.07</course>
  <speed>17.36</speed>
  <fix>3d</fix>
</trkpt>
<trkpt lat="-27.2744263" lon="151.2906768">
  <ele>370.31</ele>
  <time>2026-09-01T20:03:37Z</time>
  <course>171.33</course>
  <speed>17.26574643622453</speed>
  <fix>3d</fix>
</trkpt>
<trkpt lat="-27.2743935" lon="151.2906724">
  <ele>370.24</ele>
  <time>2026-09-01T20:03:37Z</time>
  <course>173.05</course>
  <speed>17.27</speed>
  <fix>3d</fix>
</trkpt>
<trkpt lat="-27.2744417" lon="151.290679">
  <ele>370.59</ele>
  <time>2026-09-01T20:03:37Z</time>
  <course>172.29</course>
  <speed>17.26574643622453</speed>
  <fix>3d</fix>
</trkpt>
<trkpt lat="-27.2743935" lon="151.2906724">
  <ele>370.24</ele>
  <time>2026-09-01T20:03:37Z</time>
  <course>173.05</course>
  <speed>17.27</speed>
  <fix>3d</fix>
</trkpt>
<trkpt lat="-27.2744571" lon="151.2906782">
  <ele>370.48</ele>
  <time>2026-09-01T20:03:37Z</time>
  <course>173.21</course>
  <speed>17.18986329206838</speed>
  <fix>3d</fix>
</trkpt>
<trkpt lat="-27.2744243" lon="151.2906757">
  <ele>370.43</ele>
  <time>2026-09-01T20:03:37Z</time>
  <course>176.07</course>
  <speed>17.19</speed>
  <fix>3d</fix>
</trkpt>
<trkpt lat="-27.2744725" lon="151.2906794">
  <ele>370.65</ele>
  <time>2026-09-01T20:03:37Z</time>
  <course>174.16</course>
  <speed>17.18986329206838</speed>
  <fix>3d</fix>
</trkpt>
<trkpt lat="-27.2744243" lon="151.2906757">
  <ele>370.43</ele>
  <time>2026-09-01T20:03:37Z</time>
  <course>176.07</course>
  <speed>17.19</speed>
  <fix>3d</fix>
</trkpt>
<trkpt lat="-27.2744878" lon="151.2906777">
  <ele>370.78</ele>
  <time>2026-09-01T20:03:37Z</time>
  <course>175.09</course>
  <speed>17.131824187750702</speed>
  <fix>3d</fix>
</trkpt>
<trkpt lat="-27.2744551" lon="151.2906772">
  <ele>370.59</ele>
  <time>2026-09-01T20:03:37Z</time>
  <course>179.15</course>
  <speed>17.13</speed>
  <fix>3d</fix>
</trkpt>
<trkpt lat="-27.2745032" lon="151.2906779">
  <ele>370.74</ele>
  <time>2026-09-01T20:03:37Z</time>
  <course>176.1</course>
  <speed>17.131824187750702</speed>
  <fix>3d</fix>
</trkpt>
<trkpt lat="-27.2744551" lon="151.2906772">
  <ele>370.59</ele>
  <time>2026-09-01T20:03:37Z</time>
  <course>179.15</course>
  <speed>17.13</speed>
  <fix>3d</fix>
</trkpt>
<trkpt lat="-27.2745184" lon="151.2906754">
  <ele>370.84</ele>
  <time>2026-09-01T20:03:37Z</time>
  <course>177.12</course>
  <speed>17.092746999824225</speed>
  <fix>3d</fix>
</trkpt>
<trkpt lat="-27.2744858" lon="151.2906768">
  <ele>370.75</ele>
  <time>2026-09-01T20:03:37Z</time>
  <course>182.22</course>
  <speed>17.09</speed>
  <fix>3d</fix>
</trkpt>
<trkpt lat="-27.2745338" lon="151.2906747">
  <ele>370.82</ele>
  <time>2026-09-01T20:03:37Z</time>
  <course>178.1</course>
  <speed>17.092746999824225</speed>
  <fix>3d</fix>
</trkpt>
<trkpt lat="-27.2744858" lon="151.2906768">
  <ele>370.75</ele>
  <time>2026-09-01T20:03:37Z</time>
  <course>182.22</course>
  <speed>17.09</speed>
  <fix>3d</fix>
</trkpt>
<trkpt lat="-27.274549" lon="151.2906712">
  <ele>370.88</ele>
  <time>2026-09-01T20:03:37Z</time>
  <course>179.08</course>
  <speed>17.073265651304087</speed>
  <fix>3d</fix>
</trkpt>
<trkpt lat="-27.2745165" lon="151.2906746">
  <ele>370.88</ele>
  <time>2026-09-01T20:03:37Z</time>
  <course>185.32</course>
  <speed>17.07</speed>
  <fix>3d</fix>
</trkpt>
<trkpt lat="-27.2745643" lon="151.2906696">
  <ele>370.92</ele>
  <time>2026-09-01T20:03:37Z</time>
  <course>180.12</course>
  <speed>17.073265651304087</speed>
  <fix>3d</fix>
</trkpt>
<trkpt lat="-27.2745165" lon="151.2906746">
  <ele>370.88</ele>
  <time>2026-09-01T20:03:37Z</time>
  <course>185.32</course>
  <speed>17.07</speed>
  <fix>3d</fix>
</trkpt>
<trkpt lat="-27.2745792" lon="151.290665">
  <ele>370.91</ele>
  <time>2026-09-01T20:03:37Z</time>
  <course>181.16</course>
  <speed>17.075485351813576</speed>
  <fix>3d</fix>
</trkpt>
<trkpt lat="-27.2745469" lon="151.2906704">
  <ele>370.99</ele>
  <time>2026-09-01T20:03:37Z</time>
  <course>188.46</course>
  <speed>17.07</speed>
  <fix>3d</fix>
</trkpt>
<trkpt lat="-27.2745943" lon="151.2906625">
  <ele>371.06</ele>
  <time>2026-09-01T20:03:37Z</time>
  <course>182.1</course>
  <speed>17.075485351813576</speed>
  <fix>3d</fix>
</trkpt>
<trkpt lat="-27.2745469" lon="151.2906704">
  <ele>370.99</ele>
  <time>2026-09-01T20:03:37Z</time>
  <course>188.46</course>
  <speed>17.07</speed>
  <fix>3d</fix>
</trkpt>
<trkpt lat="-27.2746091" lon="151.290657">
  <ele>370.96</ele>
  <time>2026-09-01T20:03:37Z</time>
  <course>183.13</course>
  <speed>17.091813830018157</speed>
  <fix>3d</fix>
</trkpt>
<trkpt lat="-27.2745771" lon="151.2906644">
  <ele>371.09</ele>
  <time>2026-09-01T20:03:37Z</time>
  <course>191.63</course>
  <speed>17.09</speed>
  <fix>3d</fix>
</trkpt>
<trkpt lat="-27.2746241" lon="151.2906535">
  <ele>371.34</ele>
  <time>2026-09-01T20:03:37Z</time>
  <course>184.13</course>
  <speed>17.091813830018157</speed>
  <fix>3d</fix>
</trkpt>
<trkpt lat="-27.2745771" lon="151.2906644">
  <ele>371.09</ele>
  <time>2026-09-01T20:03:37Z</time>
  <course>191.63</course>
  <speed>17.09</speed>
  <fix>3d</fix>
</trkpt>
<trkpt lat="-27.2746389" lon="151.2906471">
  <ele>371.21</ele>
  <time>2026-09-01T20:03:37Z</time>
  <course>185.17</course>
  <speed>17.14167436395873</speed>
  <fix>3d</fix>
</trkpt>
<trkpt lat="-27.2746071" lon="151.2906565">
  <ele>371.18</ele>
  <time>2026-09-01T20:03:37Z</time>
  <course>194.83</course>
  <speed>17.15</speed>
  <fix>3d</fix>
</trkpt>
<trkpt lat="-27.2746538" lon="151.2906426">
  <ele>371.21</ele>
  <time>2026-09-01T20:03:37Z</time>
  <course>186.29</course>
  <speed>17.14167436395873</speed>
  <fix>3d</fix>
</trkpt>
<trkpt lat="-27.2746071" lon="151.2906565">
  <ele>371.18</ele>
  <time>2026-09-01T20:03:37Z</time>
  <course>194.83</course>
  <speed>17.15</speed>
  <fix>3d</fix>
</trkpt>
<trkpt lat="-27.2746681" lon="151.2906352">
  <ele>371.29</ele>
  <time>2026-09-01T20:03:37Z</time>
  <course>187.36</course>
  <speed>17.215858967823824</speed>
  <fix>3d</fix>
</trkpt>
<trkpt lat="-27.2746367" lon="151.2906467">
  <ele>371.25</ele>
  <time>2026-09-01T20:03:37Z</time>
  <course>198.05</course>
  <speed>17.22</speed>
  <fix>3d</fix>
</trkpt>
<trkpt lat="-27.2746828" lon="151.2906298">
  <ele>371.16</ele>
  <time>2026-09-01T20:03:37Z</time>
  <course>188.4</course>
  <speed>17.215858967823824</speed>
  <fix>3d</fix>
</trkpt>
<trkpt lat="-27.2746367" lon="151.2906467">
  <ele>371.25</ele>
  <time>2026-09-01T20:03:37Z</time>
  <course>198.05</course>
  <speed>17.22</speed>
  <fix>3d</fix>
</trkpt>
<trkpt lat="-27.2746968" lon="151.2906212">
  <ele>371.34</ele>
  <time>2026-09-01T20:03:37Z</time>
  <course>189.44</course>
  <speed>17.3037134742806</speed>
  <fix>3d</fix>
</trkpt>
<trkpt lat="-27.2746659" lon="151.2906348">
  <ele>371.32</ele>
  <time>2026-09-01T20:03:37Z</time>
  <course>201.31</course>
  <speed>17.3</speed>
  <fix>3d</fix>
</trkpt>
<trkpt lat="-27.2747113" lon="151.2906149">
  <ele>371.34</ele>
  <time>2026-09-01T20:03:37Z</time>
  <course>190.52</course>
  <speed>17.3037134742806</speed>
  <fix>3d</fix>
</trkpt>
<trkpt lat="-27.2746659" lon="151.2906348">
  <ele>371.32</ele>
  <time>2026-09-01T20:03:37Z</time>
  <course>201.31</course>
  <speed>17.3</speed>
  <fix>3d</fix>
</trkpt>
<trkpt lat="-27.2747251" lon="151.2906055">
  <ele>371.57</ele>
  <time>2026-09-01T20:03:37Z</time>
  <course>191.54</course>
  <speed>17.416176388633644</speed>
  <fix>3d</fix>
</trkpt>
<trkpt lat="-27.2746947" lon="151.2906211">
  <ele>371.38</ele>
  <time>2026-09-01T20:03:37Z</time>
  <course>204.57</course>
  <speed>17.41</speed>
  <fix>3d</fix>
</trkpt>
<trkpt lat="-27.2747393" lon="151.2905982">
  <ele>371.5</ele>
  <time>2026-09-01T20:03:37Z</time>
  <course>192.52</course>
  <speed>17.416176388633644</speed>
  <fix>3d</fix>
</trkpt>
<trkpt lat="-27.2746947" lon="151.2906211">
  <ele>371.38</ele>
  <time>2026-09-01T20:03:37Z</time>
  <course>204.57</course>
  <speed>17.41</speed>
  <fix>3d</fix>
</trkpt>
<trkpt lat="-27.2747525" lon="151.290588">
  <ele>371.37</ele>
  <time>2026-09-01T20:03:37Z</time>
  <course>193.59</course>
  <speed>17.54373962415083</speed>
  <fix>3d</fix>
</trkpt>
<trkpt lat="-27.2747228" lon="151.2906056">
  <ele>371.44</ele>
  <time>2026-09-01T20:03:37Z</time>
  <course>207.79</course>
  <speed>17.55</speed>
  <fix>3d</fix>
</trkpt>
<trkpt lat="-27.2747664" lon="151.2905798">
  <ele>371.41</ele>
  <time>2026-09-01T20:03:37Z</time>
  <course>194.67</course>
  <speed>17.54373962415083</speed>
  <fix>3d</fix>
</trkpt>
<trkpt lat="-27.2747228" lon="151.2906056">
  <ele>371.44</ele>
  <time>2026-09-01T20:03:37Z</time>
  <course>207.79</course>
  <speed>17.55</speed>
  <fix>3d</fix>
</trkpt>
<trkpt lat="-27.2747794" lon="151.2905685">
  <ele>371.59</ele>
  <time>2026-09-01T20:03:37Z</time>
  <course>195.75</course>
  <speed>17.690079140580462</speed>
  <fix>3d</fix>
</trkpt>
<trkpt lat="-27.2747504" lon="151.290588">
  <ele>371.49</ele>
  <time>2026-09-01T20:03:37Z</time>
  <course>210.95</course>
  <speed>17.7</speed>
  <fix>3d</fix>
</trkpt>
<trkpt lat="-27.274793" lon="151.2905593">
  <ele>371.39</ele>
  <time>2026-09-01T20:03:37Z</time>
  <course>196.85</course>
  <speed>17.690079140580462</speed>
  <fix>3d</fix>
</trkpt>
<trkpt lat="-27.2747504" lon="151.290588">
  <ele>371.49</ele>
  <time>2026-09-01T20:03:37Z</time>
  <course>210.95</course>
  <speed>17.7</speed>
  <fix>3d</fix>
</trkpt>
<trkpt lat="-27.2748056" lon="151.2905473">
  <ele>371.54</ele>
  <time>2026-09-01T20:03:37Z</time>
  <course>197.96</course>
  <speed>17.859008931068935</speed>
  <fix>3d</fix>
</trkpt>
<trkpt lat="-27.2747773" lon="151.2905688">
  <ele>371.53</ele>
  <time>2026-09-01T20:03:37Z</time>
  <course>214.09</course>
  <speed>17.86</speed>
  <fix>3d</fix>
</trkpt>
<trkpt lat="-27.2748188" lon="151.2905372">
  <ele>371.54</ele>
  <time>2026-09-01T20:03:37Z</time>
  <course>199.05</course>
  <speed>17.859008931068935</speed>
  <fix>3d</fix>
</trkpt>
<trkpt lat="-27.2747773" lon="151.2905688">
  <ele>371.53</ele>
  <time>2026-09-01T20:03:37Z</time>
  <course>214.09</course>
  <speed>17.86</speed>
  <fix>3d</fix>
</trkpt>
<trkpt lat="-27.2748309" lon="151.2905241">
  <ele>371.64</ele>
  <time>2026-09-01T20:03:37Z</time>
  <course>200.19</course>
  <speed>18.054412203115337</speed>
  <fix>3d</fix>
</trkpt>
<trkpt lat="-27.2748035" lon="151.2905476">
  <ele>371.57</ele>
  <time>2026-09-01T20:03:37Z</time>
  <course>217.27</course>
  <speed>18.06</speed>
  <fix>3d</fix>
</trkpt>
<trkpt lat="-27.2748439" lon="151.290513">
  <ele>371.46</ele>
  <time>2026-09-01T20:03:37Z</time>
  <course>201.29</course>
  <speed>18.054412203115337</speed>
  <fix>3d</fix>
</trkpt>
<trkpt lat="-27.2748035" lon="151.2905476">
  <ele>371.57</ele>
  <time>2026-09-01T20:03:37Z</time>
  <course>217.27</course>
  <speed>18.06</speed>
  <fix>3d</fix>
</trkpt>
<trkpt lat="-27.2748555" lon="151.2904991">
  <ele>371.67</ele>
  <time>2026-09-01T20:03:37Z</time>
  <course>202.4</course>
  <speed>18.27859130239527</speed>
  <fix>3d</fix>
</trkpt>
<trkpt lat="-27.2748289" lon="151.2905246">
  <ele>371.61</ele>
  <time>2026-09-01T20:03:37Z</time>
  <course>220.5</course>
  <speed>18.28</speed>
  <fix>3d</fix>
</trkpt>
<trkpt lat="-27.2748679" lon="151.2904871">
  <ele>371.84</ele>
  <time>2026-09-01T20:03:37Z</time>
  <course>203.57</course>
  <speed>18.27859130239527</speed>
  <fix>3d</fix>
</trkpt>
<trkpt lat="-27.2748289" lon="151.2905246">
  <ele>371.61</ele>
  <time>2026-09-01T20:03:37Z</time>
  <course>220.5</course>
  <speed>18.28</speed>
  <fix>3d</fix>
</trkpt>
<trkpt lat="-27.274879" lon="151.2904721">
  <ele>371.75</ele>
  <time>2026-09-01T20:03:37Z</time>
  <course>204.72</course>
  <speed>18.51659795966851</speed>
  <fix>3d</fix>
</trkpt>
<trkpt lat="-27.2748534" lon="151.2904996">
  <ele>371.65</ele>
  <time>2026-09-01T20:03:37Z</time>
  <course>223.72</course>
  <speed>18.52</speed>
  <fix>3d</fix>
</trkpt>
<trkpt lat="-27.274891" lon="151.2904591">
  <ele>371.5</ele>
  <time>2026-09-01T20:03:37Z</time>
  <course>205.89</course>
  <speed>18.51659795966851</speed>
  <fix>3d</fix>
</trkpt>
<trkpt lat="-27.2748534" lon="151.2904996">
  <ele>371.65</ele>
  <time>2026-09-01T20:03:37Z</time>
  <course>223.72</course>
  <speed>18.52</speed>
  <fix>3d</fix>
</trkpt>
<trkpt lat="-27.2749014" lon="151.2904433">
  <ele>371.83</ele>
  <time>2026-09-01T20:03:37Z</time>
  <course>207.04</course>
  <speed>18.78423008802863</speed>
  <fix>3d</fix>
</trkpt>
<trkpt lat="-27.2748769" lon="151.2904728">
  <ele>371.69</ele>
  <time>2026-09-01T20:03:37Z</time>
  <course>226.91</course>
  <speed>18.78</speed>
  <fix>3d</fix>
</trkpt>
<trkpt lat="-27.2749129" lon="151.2904294">
  <ele>371.84</ele>
  <time>2026-09-01T20:03:37Z</time>
  <course>208.17</course>
  <speed>18.78423008802863</speed>
  <fix>3d</fix>
</trkpt>
<trkpt lat="-27.2748769" lon="151.2904728">
  <ele>371.69</ele>
  <time>2026-09-01T20:03:37Z</time>
  <course>226.91</course>
  <speed>18.78</speed>
  <fix>3d</fix>
</trkpt>
<trkpt lat="-27.2749229" lon="151.2904126">
  <ele>371.91</ele>
  <time>2026-09-01T20:03:37Z</time>
  <course>209.45</course>
  <speed>19.06088402986598</speed>
  <fix>3d</fix>
</trkpt>
<trkpt lat="-27.2748994" lon="151.2904442">
  <ele>371.72</ele>
  <time>2026-09-01T20:03:37Z</time>
  <course>230.09</course>
  <speed>19.06</speed>
  <fix>3d</fix>
</trkpt>
<trkpt lat="-27.2749338" lon="151.2903978">
  <ele>371.73</ele>
  <time>2026-09-01T20:03:37Z</time>
  <course>210.71</course>
  <speed>19.06088402986598</speed>
  <fix>3d</fix>
</trkpt>
<trkpt lat="-27.2748994" lon="151.2904442">
  <ele>371.72</ele>
  <time>2026-09-01T20:03:37Z</time>
  <course>230.09</course>
  <speed>19.06</speed>
  <fix>3d</fix>
</trkpt>
<trkpt lat="-27.2749431" lon="151.29038">
  <ele>371.73</ele>
  <time>2026-09-01T20:03:37Z</time>
  <course>211.9</course>
  <speed>19.368149111363223</speed>
  <fix>3d</fix>
</trkpt>
<trkpt lat="-27.2749209" lon="151.2904136">
  <ele>371.76</ele>
  <time>2026-09-01T20:03:37Z</time>
  <course>233.33</course>
  <speed>19.37</speed>
  <fix>3d</fix>
</trkpt>
<trkpt lat="-27.2749535" lon="151.2903643">
  <ele>371.73</ele>
  <time>2026-09-01T20:03:37Z</time>
  <course>213.22</course>
  <speed>19.368149111363223</speed>
  <fix>3d</fix>
</trkpt>
<trkpt lat="-27.2749209" lon="151.2904136">
  <ele>371.76</ele>
  <time>2026-09-01T20:03:37Z</time>
  <course>233.33</course>
  <speed>19.37</speed>
  <fix>3d</fix>
</trkpt>
<trkpt lat="-27.2749618" lon="151.2903457">
  <ele>371.79</ele>
  <time>2026-09-01T20:03:37Z</time>
  <course>214.47</course>
  <speed>19.700459385506726</speed>
  <fix>3d</fix>
</trkpt>
<trkpt lat="-27.274941" lon="151.2903812">
  <ele>371.8</ele>
  <time>2026-09-01T20:03:37Z</time>
  <course>236.62</course>
  <speed>19.7</speed>
  <fix>3d</fix>
</trkpt>
<trkpt lat="-27.2749715" lon="151.290329">
  <ele>371.8</ele>
  <time>2026-09-01T20:03:37Z</time>
  <course>215.72</course>
  <speed>19.700459385506726</speed>
  <fix>3d</fix>
</trkpt>
<trkpt lat="-27.274941" lon="151.2903812">
  <ele>371.8</ele>
  <time>2026-09-01T20:03:37Z</time>
  <course>236.62</course>
  <speed>19.7</speed>
  <fix>3d</fix>
</trkpt>
<trkpt lat="-27.2749794" lon="151.2903091">
  <ele>372.02</ele>
  <time>2026-09-01T20:03:37Z</time>
  <course>217.09</course>
  <speed>20.055575284693283</speed>
  <fix>3d</fix>
</trkpt>
<trkpt lat="-27.2749598" lon="151.2903471">
  <ele>371.84</ele>
  <time>2026-09-01T20:03:37Z</time>
  <course>239.89</course>
  <speed>20.05</speed>
  <fix>3d</fix>
</trkpt>
<trkpt lat="-27.2749884" lon="151.2902916">
  <ele>371.85</ele>
  <time>2026-09-01T20:03:37Z</time>
  <course>218.41</course>
  <speed>20.055575284693283</speed>
  <fix>3d</fix>
</trkpt>
<trkpt lat="-27.2749772" lon="151.2903111">
  <ele>371.88</ele>
  <time>2026-09-01T20:03:37Z</time>
  <course>243.14</course>
  <speed>20.43</speed>
  <fix>3d</fix>
</trkpt>
<trkpt lat="-27.2749951" lon="151.2902712">
  <ele>371.84</ele>
  <time>2026-09-01T20:03:37Z</time>
  <course>219.82</course>
  <speed>20.433448069280917</speed>
  <fix>3d</fix>
</trkpt>
<trkpt lat="-27.2749772" lon="151.2903111">
  <ele>371.88</ele>
  <time>2026-09-01T20:03:37Z</time>
  <course>243.14</course>
  <speed>20.43</speed>
  <fix>3d</fix>
</trkpt>
<trkpt lat="-27.2750034" lon="151.2902527">
  <ele>371.88</ele>
  <time>2026-09-01T20:03:37Z</time>
  <course>221.21</course>
  <speed>20.433448069280917</speed>
  <fix>3d</fix>
</trkpt>
<trkpt lat="-27.274993" lon="151.2902734">
  <ele>371.92</ele>
  <time>2026-09-01T20:03:37Z</time>
  <course>246.45</course>
  <speed>20.84</speed>
  <fix>3d</fix>
</trkpt>
<trkpt lat="-27.2750092" lon="151.2902315">
  <ele>371.97</ele>
  <time>2026-09-01T20:03:37Z</time>
  <course>222.67</course>
  <speed>20.83344426637132</speed>
  <fix>3d</fix>
</trkpt>
<trkpt lat="-27.274993" lon="151.2902734">
  <ele>371.92</ele>
  <time>2026-09-01T20:03:37Z</time>
  <course>246.45</course>
  <speed>20.84</speed>
  <fix>3d</fix>
</trkpt>
<trkpt lat="-27.2750167" lon="151.2902122">
  <ele>372.08</ele>
  <time>2026-09-01T20:03:37Z</time>
  <course>224.15</course>
  <speed>20.83344426637132</speed>
  <fix>3d</fix>
</trkpt>
<trkpt lat="-27.275007" lon="151.2902338">
  <ele>371.97</ele>
  <time>2026-09-01T20:03:37Z</time>
  <course>249.84</course>
  <speed>21.28</speed>
  <fix>3d</fix>
</trkpt>
<trkpt lat="-27.275021" lon="151.2901906">
  <ele>371.87</ele>
  <time>2026-09-01T20:03:37Z</time>
  <course>225.56</course>
  <speed>21.2727478243879</speed>
  <fix>3d</fix>
</trkpt>
<trkpt lat="-27.275007" lon="151.2902338">
  <ele>371.97</ele>
  <time>2026-09-01T20:03:37Z</time>
  <course>249.84</course>
  <speed>21.28</speed>
  <fix>3d</fix>
</trkpt>
<trkpt lat="-27.2750276" lon="151.2901704">
  <ele>372.21</ele>
  <time>2026-09-01T20:03:37Z</time>
  <course>227.11</course>
  <speed>21.2727478243879</speed>
  <fix>3d</fix>
</trkpt>
<trkpt lat="-27.275007" lon="151.2902338">
  <ele>371.97</ele>
  <time>2026-09-01T20:03:37Z</time>
  <course>249.84</course>
  <speed>21.28</speed>
  <fix>3d</fix>
</trkpt>
<trkpt lat="-27.2750311" lon="151.2901478">
  <ele>372.14</ele>
  <time>2026-09-01T20:03:37Z</time>
  <course>228.65</course>
  <speed>21.737867880728324</speed>
  <fix>3d</fix>
</trkpt>
<trkpt lat="-27.2750192" lon="151.2901926">
  <ele>372.03</ele>
  <time>2026-09-01T20:03:37Z</time>
  <course>253.27</course>
  <speed>21.74</speed>
  <fix>3d</fix>
</trkpt>
<trkpt lat="-27.2750367" lon="151.2901268">
  <ele>371.95</ele>
  <time>2026-09-01T20:03:37Z</time>
  <course>230.26</course>
  <speed>21.737867880728324</speed>
  <fix>3d</fix>
</trkpt>
<trkpt lat="-27.2750192" lon="151.2901926">
  <ele>372.03</ele>
  <time>2026-09-01T20:03:37Z</time>
  <course>253.27</course>
  <speed>21.74</speed>
  <fix>3d</fix>
</trkpt>
<trkpt lat="-27.2750391" lon="151.2901033">
  <ele>372.3</ele>
  <time>2026-09-01T20:03:37Z</time>
  <course>231.82</course>
  <speed>22.2208235670958</speed>
  <fix>3d</fix>
</trkpt>
<trkpt lat="-27.2750294" lon="151.2901498">
  <ele>372.09</ele>
  <time>2026-09-01T20:03:37Z</time>
  <course>256.74</course>
  <speed>22.23</speed>
  <fix>3d</fix>
</trkpt>
<trkpt lat="-27.2750437" lon="151.2900814">
  <ele>372.12</ele>
  <time>2026-09-01T20:03:37Z</time>
  <course>233.44</course>
  <speed>22.2208235670958</speed>
  <fix>3d</fix>
</trkpt>
<trkpt lat="-27.2750294" lon="151.2901498">
  <ele>372.09</ele>
  <time>2026-09-01T20:03:37Z</time>
  <course>256.74</course>
  <speed>22.23</speed>
  <fix>3d</fix>
</trkpt>
<trkpt lat="-27.2750447" lon="151.290057">
  <ele>372.39</ele>
  <time>2026-09-01T20:03:37Z</time>
  <course>235.18</course>
  <speed>22.744786215746235</speed>
  <fix>3d</fix>
</trkpt>
<trkpt lat="-27.2750374" lon="151.2901052">
  <ele>372.16</ele>
  <time>2026-09-01T20:03:37Z</time>
  <course>260.29</course>
  <speed>22.74</speed>
  <fix>3d</fix>
</trkpt>
<trkpt lat="-27.2750481" lon="151.2900343">
  <ele>372.16</ele>
  <time>2026-09-01T20:03:37Z</time>
  <course>236.89</course>
  <speed>22.744786215746235</speed>
  <fix>3d</fix>
</trkpt>
<trkpt lat="-27.2750374" lon="151.2901052">
  <ele>372.16</ele>
  <time>2026-09-01T20:03:37Z</time>
  <course>260.29</course>
  <speed>22.74</speed>
  <fix>3d</fix>
</trkpt>
<trkpt lat="-27.2750478" lon="151.2900092">
  <ele>372.48</ele>
  <time>2026-09-01T20:03:37Z</time>
  <course>238.66</course>
  <speed>23.281396006253576</speed>
  <fix>3d</fix>
</trkpt>
<trkpt lat="-27.2750431" lon="151.2900592">
  <ele>372.24</ele>
  <time>2026-09-01T20:03:37Z</time>
  <course>263.89</course>
  <speed>23.29</speed>
  <fix>3d</fix>
</trkpt>
<trkpt lat="-27.27505" lon="151.2899858">
  <ele>372.39</ele>
  <time>2026-09-01T20:03:37Z</time>
  <course>240.48</course>
  <speed>23.281396006253576</speed>
  <fix>3d</fix>
</trkpt>
<trkpt lat="-27.2750431" lon="151.2900592">
  <ele>372.24</ele>
  <time>2026-09-01T20:03:37Z</time>
  <course>263.89</course>
  <speed>23.29</speed>
  <fix>3d</fix>
</trkpt>
<trkpt lat="-27.2750482" lon="151.2899601">
  <ele>372.38</ele>
  <time>2026-09-01T20:03:37Z</time>
  <course>242.29</course>
  <speed>23.861810492919435</speed>
  <fix>3d</fix>
</trkpt>
<trkpt lat="-27.2750463" lon="151.2900116">
  <ele>372.32</ele>
  <time>2026-09-01T20:03:37Z</time>
  <course>267.53</course>
  <speed>23.86</speed>
  <fix>3d</fix>
</trkpt>
<trkpt lat="-27.2750491" lon="151.289936">
  <ele>372.33</ele>
  <time>2026-09-01T20:03:37Z</time>
  <course>244.16</course>
  <speed>23.861810492919435</speed>
  <fix>3d</fix>
</trkpt>
<trkpt lat="-27.2750463" lon="151.2900116">
  <ele>372.32</ele>
  <time>2026-09-01T20:03:37Z</time>
  <course>267.53</course>
  <speed>23.86</speed>
  <fix>3d</fix>
</trkpt>
<trkpt lat="-27.2750457" lon="151.28991">
  <ele>372.47</ele>
  <time>2026-09-01T20:03:37Z</time>
  <course>246.13</course>
  <speed>24.455529027195468</speed>
  <fix>3d</fix>
</trkpt>
<trkpt lat="-27.2750467" lon="151.2899628">
  <ele>372.41</ele>
  <time>2026-09-01T20:03:37Z</time>
  <course>271.23</course>
  <speed>24.46</speed>
  <fix>3d</fix>
</trkpt>
<trkpt lat="-27.2750453" lon="151.2898852">
  <ele>372.57</ele>
  <time>2026-09-01T20:03:37Z</time>
  <course>248.09</course>
  <speed>24.455529027195468</speed>
  <fix>3d</fix>
</trkpt>
<trkpt lat="-27.2750467" lon="151.2899628">
  <ele>372.41</ele>
  <time>2026-09-01T20:03:37Z</time>
  <course>271.23</course>
  <speed>24.46</speed>
  <fix>3d</fix>
</trkpt>
<trkpt lat="-27.2750402" lon="151.2898587">
  <ele>372.46</ele>
  <time>2026-09-01T20:03:37Z</time>
  <course>250.12</course>
  <speed>25.084905820034486</speed>
  <fix>3d</fix>
</trkpt>
<trkpt lat="-27.2750443" lon="151.2899127">
  <ele>372.52</ele>
  <time>2026-09-01T20:03:37Z</time>
  <course>274.99</course>
  <speed>25.09</speed>
  <fix>3d</fix>
</trkpt>
<trkpt lat="-27.2750381" lon="151.2898327">
  <ele>372.65</ele>
  <time>2026-09-01T20:03:37Z</time>
  <course>252.28</course>
  <speed>25.084905820034486</speed>
  <fix>3d</fix>
</trkpt>
<trkpt lat="-27.2750389" lon="151.2898617">
  <ele>372.64</ele>
  <time>2026-09-01T20:03:37Z</time>
  <course>278.83</course>
  <speed>25.74</speed>
  <fix>3d</fix>
</trkpt>
<trkpt lat="-27.2750312" lon="151.289806">
  <ele>372.55</ele>
  <time>2026-09-01T20:03:37Z</time>
  <course>254.46</course>
  <speed>25.73494511359991</speed>
  <fix>3d</fix>
</trkpt>
<trkpt lat="-27.2750389" lon="151.2898617">
  <ele>372.64</ele>
  <time>2026-09-01T20:03:37Z</time>
  <course>278.83</course>
  <speed>25.74</speed>
  <fix>3d</fix>
</trkpt>
<trkpt lat="-27.2750277" lon="151.2897803">
  <ele>372.74</ele>
  <time>2026-09-01T20:03:37Z</time>
  <course>256.48</course>
  <speed>25.73494511359991</speed>
  <fix>3d</fix>
</trkpt>
<trkpt lat="-27.2750301" lon="151.2898099">
  <ele>372.77</ele>
  <time>2026-09-01T20:03:37Z</time>
  <course>282.76</course>
  <speed>26.42</speed>
  <fix>3d</fix>
</trkpt>
<trkpt lat="-27.2750188" lon="151.2897534">
  <ele>372.8</ele>
  <time>2026-09-01T20:03:37Z</time>
  <course>258.65</course>
  <speed>26.411484244547864</speed>
  <fix>3d</fix>
</trkpt>
<trkpt lat="-27.2750301" lon="151.2898099">
  <ele>372.77</ele>
  <time>2026-09-01T20:03:37Z</time>
  <course>282.76</course>
  <speed>26.42</speed>
  <fix>3d</fix>
</trkpt>
<trkpt lat="-27.2750135" lon="151.2897274">
  <ele>372.97</ele>
  <time>2026-09-01T20:03:37Z</time>
  <course>261.03</course>
  <speed>26.411484244547864</speed>
  <fix>3d</fix>
</trkpt>
<trkpt lat="-27.2750179" lon="151.2897576">
  <ele>372.91</ele>
  <time>2026-09-01T20:03:37Z</time>
  <course>286.74</course>
  <speed>27.12</speed>
  <fix>3d</fix>
</trkpt>
<trkpt lat="-27.2750027" lon="151.2897007">
  <ele>372.95</ele>
  <time>2026-09-01T20:03:37Z</time>
  <course>263.52</course>
  <speed>27.118941719764802</speed>
  <fix>3d</fix>
</trkpt>
<trkpt lat="-27.2750179" lon="151.2897576">
  <ele>372.91</ele>
  <time>2026-09-01T20:03:37Z</time>
  <course>286.74</course>
  <speed>27.12</speed>
  <fix>3d</fix>
</trkpt>
<trkpt lat="-27.2749957" lon="151.2896744">
  <ele>372.93</ele>
  <time>2026-09-01T20:03:37Z</time>
  <course>265.96</course>
  <speed>27.118941719764802</speed>
  <fix>3d</fix>
</trkpt>
<trkpt lat="-27.275002" lon="151.2897051">
  <ele>373.07</ele>
  <time>2026-09-01T20:03:37Z</time>
  <course>290.85</course>
  <speed>27.86</speed>
  <fix>3d</fix>
</trkpt>
<trkpt lat="-27.2749827" lon="151.289648">
  <ele>373.21</ele>
  <time>2026-09-01T20:03:37Z</time>
  <course>268.44</course>
  <speed>27.852630037395034</speed>
  <fix>3d</fix>
</trkpt>
<trkpt lat="-27.275002" lon="151.2897051">
  <ele>373.07</ele>
  <time>2026-09-01T20:03:37Z</time>
  <course>290.85</course>
  <speed>27.86</speed>
  <fix>3d</fix>
</trkpt>
<trkpt lat="-27.2749739" lon="151.289622">
  <ele>373.23</ele>
  <time>2026-09-01T20:03:37Z</time>
  <course>270.93</course>
  <speed>27.852630037395034</speed>
  <fix>3d</fix>
</trkpt>
<trkpt lat="-27.2749821" lon="151.2896526">
  <ele>373.24</ele>
  <time>2026-09-01T20:03:37Z</time>
  <course>295.11</course>
  <speed>28.61</speed>
  <fix>3d</fix>
</trkpt>
<trkpt lat="-27.2749586" lon="151.2895961">
  <ele>373.47</ele>
  <time>2026-09-01T20:03:37Z</time>
  <course>273.48</course>
  <speed>28.604013704373727</speed>
  <fix>3d</fix>
</trkpt>
<trkpt lat="-27.2749821" lon="151.2896526">
  <ele>373.24</ele>
  <time>2026-09-01T20:03:37Z</time>
  <course>295.11</course>
  <speed>28.61</speed>
  <fix>3d</fix>
</trkpt>
<trkpt lat="-27.2749477" lon="151.2895699">
  <ele>373.39</ele>
  <time>2026-09-01T20:03:37Z</time>
  <course>276.15</course>
  <speed>28.604013704373727</speed>
  <fix>3d</fix>
</trkpt>
<trkpt lat="-27.2749583" lon="151.2896005">
  <ele>373.44</ele>
  <time>2026-09-01T20:03:37Z</time>
  <course>299.42</course>
  <speed>29.36</speed>
  <fix>3d</fix>
</trkpt>
<trkpt lat="-27.2749304" lon="151.2895447">
  <ele>373.44</ele>
  <time>2026-09-01T20:03:37Z</time>
  <course>278.87</course>
  <speed>29.355771153216192</speed>
  <fix>3d</fix>
</trkpt>
<trkpt lat="-27.2749583" lon="151.2896005">
  <ele>373.44</ele>
  <time>2026-09-01T20:03:37Z</time>
  <course>299.42</course>
  <speed>29.36</speed>
  <fix>3d</fix>
</trkpt>
<trkpt lat="-27.2749177" lon="151.2895194">
  <ele>373.75</ele>
  <time>2026-09-01T20:03:37Z</time>
  <course>281.54</course>
  <speed>29.355771153216192</speed>
  <fix>3d</fix>
</trkpt>
<trkpt lat="-27.2749583" lon="151.2896005">
  <ele>373.44</ele>
  <time>2026-09-01T20:03:37Z</time>
  <course>299.42</course>
  <speed>29.36</speed>
  <fix>3d</fix>
</trkpt>
<trkpt lat="-27.2748981" lon="151.2894953">
  <ele>374.03</ele>
  <time>2026-09-01T20:03:37Z</time>
  <course>284.34</course>
  <speed>30.114747217932944</speed>
  <fix>3d</fix>
</trkpt>
<trkpt lat="-27.2749303" lon="151.2895494">
  <ele>373.66</ele>
  <time>2026-09-01T20:03:37Z</time>
  <course>303.81</course>
  <speed>30.12</speed>
  <fix>3d</fix>
</trkpt>
<trkpt lat="-27.2748831" lon="151.28947">
  <ele>373.85</ele>
  <time>2026-09-01T20:03:37Z</time>
  <course>287.21</course>
  <speed>30.114747217932944</speed>
  <fix>3d</fix>
</trkpt>
<trkpt lat="-27.2749303" lon="151.2895494">
  <ele>373.66</ele>
  <time>2026-09-01T20:03:37Z</time>
  <course>303.81</course>
  <speed>30.12</speed>
  <fix>3d</fix>
</trkpt>
<trkpt lat="-27.2748614" lon="151.2894473">
  <ele>374.27</ele>
  <time>2026-09-01T20:03:37Z</time>
  <course>290.2</course>
  <speed>30.86365662069224</speed>
  <fix>3d</fix>
</trkpt>
<trkpt lat="-27.2748981" lon="151.2894996">
  <ele>373.91</ele>
  <time>2026-09-01T20:03:37Z</time>
  <course>308.29</course>
  <speed>30.86</speed>
  <fix>3d</fix>
</trkpt>
<trkpt lat="-27.2748442" lon="151.2894228">
  <ele>374.2</ele>
  <time>2026-09-01T20:03:37Z</time>
  <course>293.24</course>
  <speed>30.86365662069224</speed>
  <fix>3d</fix>
</trkpt>
<trkpt lat="-27.2748981" lon="151.2894996">
  <ele>373.91</ele>
  <time>2026-09-01T20:03:37Z</time>
  <course>308.29</course>
  <speed>30.86</speed>
  <fix>3d</fix>
</trkpt>
<trkpt lat="-27.2748202" lon="151.2894016">
  <ele>374.31</ele>
  <time>2026-09-01T20:03:37Z</time>
  <course>296.36</course>
  <speed>31.593348983607292</speed>
  <fix>3d</fix>
</trkpt>
<trkpt lat="-27.2748615" lon="151.2894516">
  <ele>374.19</ele>
  <time>2026-09-01T20:03:37Z</time>
  <course>312.9</course>
  <speed>31.6</speed>
  <fix>3d</fix>
</trkpt>
<trkpt lat="-27.2748009" lon="151.2893782">
  <ele>374.57</ele>
  <time>2026-09-01T20:03:37Z</time>
  <course>299.53</course>
  <speed>31.593348983607292</speed>
  <fix>3d</fix>
</trkpt>
<trkpt lat="-27.2748615" lon="151.2894516">
  <ele>374.19</ele>
  <time>2026-09-01T20:03:37Z</time>
  <course>312.9</course>
  <speed>31.6</speed>
  <fix>3d</fix>
</trkpt>
<trkpt lat="-27.2747747" lon="151.2893589">
  <ele>374.71</ele>
  <time>2026-09-01T20:03:37Z</time>
  <course>302.82</course>
  <speed>32.32062499395703</speed>
  <fix>3d</fix>
</trkpt>
<trkpt lat="-27.2748206" lon="151.289406">
  <ele>374.49</ele>
  <time>2026-09-01T20:03:37Z</time>
  <course>317.63</course>
  <speed>32.32</speed>
  <fix>3d</fix>
</trkpt>
<trkpt lat="-27.2747533" lon="151.2893369">
  <ele>374.74</ele>
  <time>2026-09-01T20:03:37Z</time>
  <course>306.23</course>
  <speed>32.32062499395703</speed>
  <fix>3d</fix>
</trkpt>
<trkpt lat="-27.2748206" lon="151.289406">
  <ele>374.49</ele>
  <time>2026-09-01T20:03:37Z</time>
  <course>317.63</course>
  <speed>32.32</speed>
  <fix>3d</fix>
</trkpt>
<trkpt lat="-27.2747245" lon="151.2893197">
  <ele>375.0</ele>
  <time>2026-09-01T20:03:37Z</time>
  <course>309.82</course>
  <speed>33.02381262059243</speed>
  <fix>3d</fix>
</trkpt>
<trkpt lat="-27.2747756" lon="151.2893637">
  <ele>374.82</ele>
  <time>2026-09-01T20:03:37Z</time>
  <course>322.53</course>
  <speed>33.03</speed>
  <fix>3d</fix>
</trkpt>
<trkpt lat="-27.274701" lon="151.2892994">
  <ele>375.25</ele>
  <time>2026-09-01T20:03:37Z</time>
  <course>313.37</course>
  <speed>33.02381262059243</speed>
  <fix>3d</fix>
</trkpt>
<trkpt lat="-27.2747265" lon="151.289325">
  <ele>375.19</ele>
  <time>2026-09-01T20:03:37Z</time>
  <course>327.6</course>
  <speed>33.69</speed>
  <fix>3d</fix>
</trkpt>
<trkpt lat="-27.2746711" lon="151.2892855">
  <ele>375.43</ele>
  <time>2026-09-01T20:03:37Z</time>
  <course>317.02</course>
  <speed>33.69280338588643</speed>
  <fix>3d</fix>
</trkpt>
<trkpt lat="-27.2747265" lon="151.289325">
  <ele>375.19</ele>
  <time>2026-09-01T20:03:37Z</time>
  <course>327.6</course>
  <speed>33.69</speed>
  <fix>3d</fix>
</trkpt>
<trkpt lat="-27.2746455" lon="151.2892672">
  <ele>375.63</ele>
  <time>2026-09-01T20:03:37Z</time>
  <course>320.64</course>
  <speed>33.69280338588643</speed>
  <fix>3d</fix>
</trkpt>
<trkpt lat="-27.2746735" lon="151.289291">
  <ele>375.6</ele>
  <time>2026-09-01T20:03:37Z</time>
  <course>332.85</course>
  <speed>34.29</speed>
  <fix>3d</fix>
</trkpt>
<trkpt lat="-27.2746141" lon="151.2892567">
  <ele>375.77</ele>
  <time>2026-09-01T20:03:37Z</time>
  <course>324.3</course>
  <speed>34.29402280281507</speed>
  <fix>3d</fix>
</trkpt>
<trkpt lat="-27.2746735" lon="151.289291">
  <ele>375.6</ele>
  <time>2026-09-01T20:03:37Z</time>
  <course>332.85</course>
  <speed>34.29</speed>
  <fix>3d</fix>
</trkpt>
<trkpt lat="-27.2745866" lon="151.2892409">
  <ele>376.37</ele>
  <time>2026-09-01T20:03:37Z</time>
  <course>328.02</course>
  <speed>34.29402280281507</speed>
  <fix>3d</fix>
</trkpt>
<trkpt lat="-27.274617" lon="151.289262">
  <ele>376.06</ele>
  <time>2026-09-01T20:03:37Z</time>
  <course>338.19</course>
  <speed>34.8</speed>
  <fix>3d</fix>
</trkpt>
<trkpt lat="-27.2745541" lon="151.2892337">
  <ele>376.62</ele>
  <time>2026-09-01T20:03:37Z</time>
  <course>331.59</course>
  <speed>34.80116377364412</speed>
  <fix>3d</fix>
</trkpt>
<trkpt lat="-27.274617" lon="151.289262">
  <ele>376.06</ele>
  <time>2026-09-01T20:03:37Z</time>
  <course>338.19</course>
  <speed>34.8</speed>
  <fix>3d</fix>
</trkpt>
<trkpt lat="-27.274525" lon="151.2892206">
  <ele>376.55</ele>
  <time>2026-09-01T20:03:37Z</time>
  <course>335.11</course>
  <speed>34.80116377364412</speed>
  <fix>3d</fix>
</trkpt>
<trkpt lat="-27.2745576" lon="151.2892388">
  <ele>376.56</ele>
  <time>2026-09-01T20:03:37Z</time>
  <course>343.44</course>
  <speed>35.18</speed>
  <fix>3d</fix>
</trkpt>
<trkpt lat="-27.2744922" lon="151.289217">
  <ele>376.84</ele>
  <time>2026-09-01T20:03:37Z</time>
  <course>338.62</course>
  <speed>35.186834185530245</speed>
  <fix>3d</fix>
</trkpt>
<trkpt lat="-27.2745576" lon="151.2892388">
  <ele>376.56</ele>
  <time>2026-09-01T20:03:37Z</time>
  <course>343.44</course>
  <speed>35.18</speed>
  <fix>3d</fix>
</trkpt>
<trkpt lat="-27.2744619" lon="151.2892068">
  <ele>377.42</ele>
  <time>2026-09-01T20:03:37Z</time>
  <course>342.07</course>
  <speed>35.186834185530245</speed>
  <fix>3d</fix>
</trkpt>
<trkpt lat="-27.2744961" lon="151.2892216">
  <ele>377.1</ele>
  <time>2026-09-01T20:03:37Z</time>
  <course>348.55</course>
  <speed>35.42</speed>
  <fix>3d</fix>
</trkpt>
<trkpt lat="-27.2744288" lon="151.2892063">
  <ele>377.48</ele>
  <time>2026-09-01T20:03:37Z</time>
  <course>345.52</course>
  <speed>35.42257472290799</speed>
  <fix>3d</fix>
</trkpt>
<trkpt lat="-27.2744961" lon="151.2892216">
  <ele>377.1</ele>
  <time>2026-09-01T20:03:37Z</time>
  <course>348.55</course>
  <speed>35.42</speed>
  <fix>3d</fix>
</trkpt>
<trkpt lat="-27.2743976" lon="151.2891992">
  <ele>377.69</ele>
  <time>2026-09-01T20:03:37Z</time>
  <course>348.86</course>
  <speed>35.42257472290799</speed>
  <fix>3d</fix>
</trkpt>
<trkpt lat="-27.2744331" lon="151.2892105">
  <ele>377.66</ele>
  <time>2026-09-01T20:03:37Z</time>
  <course>353.51</course>
  <speed>35.53</speed>
  <fix>3d</fix>
</trkpt>
<trkpt lat="-27.2743646" lon="151.2892018">
  <ele>377.96</ele>
  <time>2026-09-01T20:03:37Z</time>
  <course>351.99</course>
  <speed>35.527033368971296</speed>
  <fix>3d</fix>
</trkpt>
<trkpt lat="-27.2744331" lon="151.2892105">
  <ele>377.66</ele>
  <time>2026-09-01T20:03:37Z</time>
  <course>353.51</course>
  <speed>35.53</speed>
  <fix>3d</fix>
</trkpt>
<trkpt lat="-27.2743329" lon="151.2891977">
  <ele>378.32</ele>
  <time>2026-09-01T20:03:37Z</time>
  <course>355.07</course>
  <speed>35.527033368971296</speed>
  <fix>3d</fix>
</trkpt>
<trkpt lat="-27.2743695" lon="151.2892054">
  <ele>378.24</ele>
  <time>2026-09-01T20:03:37Z</time>
  <course>358.21</course>
  <speed>35.53</speed>
  <fix>3d</fix>
</trkpt>
<trkpt lat="-27.2743006" lon="151.289203">
  <ele>378.65</ele>
  <time>2026-09-01T20:03:37Z</time>
  <course>357.98</course>
  <speed>35.527033368971296</speed>
  <fix>3d</fix>
</trkpt>
<trkpt lat="-27.2743695" lon="151.2892054">
  <ele>378.24</ele>
  <time>2026-09-01T20:03:37Z</time>
  <course>358.21</course>
  <speed>35.53</speed>
  <fix>3d</fix>
</trkpt>
<trkpt lat="-27.2742687" lon="151.2892019">
  <ele>379.08</ele>
  <time>2026-09-01T20:03:37Z</time>
  <course>0.85</course>
  <speed>35.527033368971296</speed>
  <fix>3d</fix>
</trkpt>
<trkpt lat="-27.2743058" lon="151.2892059">
  <ele>378.8</ele>
  <time>2026-09-01T20:03:37Z</time>
  <course>2.58</course>
  <speed>35.43</speed>
  <fix>3d</fix>
</trkpt>
<trkpt lat="-27.2742372" lon="151.2892093">
  <ele>379.34</ele>
  <time>2026-09-01T20:03:37Z</time>
  <course>3.68</course>
  <speed>35.42569971080317</speed>
  <fix>3d</fix>
</trkpt>
<trkpt lat="-27.2743058" lon="151.2892059">
  <ele>378.8</ele>
  <time>2026-09-01T20:03:37Z</time>
  <course>2.58</course>
  <speed>35.43</speed>
  <fix>3d</fix>
</trkpt>
<trkpt lat="-27.2742054" lon="151.2892109">
  <ele>379.32</ele>
  <time>2026-09-01T20:03:37Z</time>
  <course>6.43</course>
  <speed>35.42569971080317</speed>
  <fix>3d</fix>
</trkpt>
<trkpt lat="-27.2742424" lon="151.2892117">
  <ele>379.33</ele>
  <time>2026-09-01T20:03:37Z</time>
  <course>6.65</course>
  <speed>35.24</speed>
  <fix>3d</fix>
</trkpt>
<trkpt lat="-27.2741742" lon="151.2892206">
  <ele>379.75</ele>
  <time>2026-09-01T20:03:37Z</time>
  <course>9.16</course>
  <speed>35.237003277804426</speed>
  <fix>3d</fix>
</trkpt>
<trkpt lat="-27.2742424" lon="151.2892117">
  <ele>379.33</ele>
  <time>2026-09-01T20:03:37Z</time>
  <course>6.65</course>
  <speed>35.24</speed>
  <fix>3d</fix>
</trkpt>
<trkpt lat="-27.2741434" lon="151.2892246">
  <ele>380.04</ele>
  <time>2026-09-01T20:03:37Z</time>
  <course>11.75</course>
  <speed>35.237003277804426</speed>
  <fix>3d</fix>
</trkpt>
<trkpt lat="-27.2742424" lon="151.2892117">
  <ele>379.33</ele>
  <time>2026-09-01T20:03:37Z</time>
  <course>6.65</course>
  <speed>35.24</speed>
  <fix>3d</fix>
</trkpt>
<trkpt lat="-27.2741129" lon="151.2892362">
  <ele>379.97</ele>
  <time>2026-09-01T20:03:37Z</time>
  <course>14.51</course>
  <speed>34.97862490150234</speed>
  <fix>3d</fix>
</trkpt>
<trkpt lat="-27.2741799" lon="151.2892222">
  <ele>379.81</ele>
  <time>2026-09-01T20:03:37Z</time>
  <course>10.53</course>
  <speed>34.98</speed>
  <fix>3d</fix>
</trkpt>
<trkpt lat="-27.274082" lon="151.2892426">
  <ele>380.38</ele>
  <time>2026-09-01T20:03:37Z</time>
  <course>17.27</course>
  <speed>34.97862490150234</speed>
  <fix>3d</fix>
</trkpt>
<trkpt lat="-27.2741188" lon="151.2892374">
  <ele>380.2</ele>
  <time>2026-09-01T20:03:37Z</time>
  <course>14.29</course>
  <speed>34.68</speed>
  <fix>3d</fix>
</trkpt>
<trkpt lat="-27.2740533" lon="151.2892561">
  <ele>380.53</ele>
  <time>2026-09-01T20:03:37Z</time>
  <course>19.96</course>
  <speed>34.67324040236217</speed>
  <fix>3d</fix>
</trkpt>
<trkpt lat="-27.2741188" lon="151.2892374">
  <ele>380.2</ele>
  <time>2026-09-01T20:03:37Z</time>
  <course>14.29</course>
  <speed>34.68</speed>
  <fix>3d</fix>
</trkpt>
<trkpt lat="-27.2740231" lon="151.2892648">
  <ele>380.64</ele>
  <time>2026-09-01T20:03:37Z</time>
  <course>22.62</course>
  <speed>34.67324040236217</speed>
  <fix>3d</fix>
</trkpt>
<trkpt lat="-27.2740593" lon="151.2892568">
  <ele>380.52</ele>
  <time>2026-09-01T20:03:37Z</time>
  <course>18.05</course>
  <speed>34.33</speed>
  <fix>3d</fix>
</trkpt>
<trkpt lat="-27.2739957" lon="151.2892801">
  <ele>380.67</ele>
  <time>2026-09-01T20:03:37Z</time>
  <course>25.27</course>
  <speed>34.330441302144656</speed>
  <fix>3d</fix>
</trkpt>
<trkpt lat="-27.2740593" lon="151.2892568">
  <ele>380.52</ele>
  <time>2026-09-01T20:03:37Z</time>
  <course>18.05</course>
  <speed>34.33</speed>
  <fix>3d</fix>
</trkpt>
<trkpt lat="-27.2739664" lon="151.2892908">
  <ele>380.91</ele>
  <time>2026-09-01T20:03:37Z</time>
  <course>27.97</course>
  <speed>34.330441302144656</speed>
  <fix>3d</fix>
</trkpt>
<trkpt lat="-27.2740017" lon="151.2892803">
  <ele>380.75</ele>
  <time>2026-09-01T20:03:37Z</time>
  <course>21.82</course>
  <speed>33.94</speed>
  <fix>3d</fix>
</trkpt>
<trkpt lat="-27.2739403" lon="151.2893079">
  <ele>381.07</ele>
  <time>2026-09-01T20:03:37Z</time>
  <course>30.69</course>
  <speed>33.93025346206539</speed>
  <fix>3d</fix>
</trkpt>
<trkpt lat="-27.2740017" lon="151.2892803">
  <ele>380.75</ele>
  <time>2026-09-01T20:03:37Z</time>
  <course>21.82</course>
  <speed>33.94</speed>
  <fix>3d</fix>
</trkpt>
<trkpt lat="-27.273912" lon="151.2893207">
  <ele>381.06</ele>
  <time>2026-09-01T20:03:37Z</time>
  <course>33.47</course>
  <speed>33.93025346206539</speed>
  <fix>3d</fix>
</trkpt>
<trkpt lat="-27.2739462" lon="151.2893077">
  <ele>380.9</ele>
  <time>2026-09-01T20:03:37Z</time>
  <course>25.59</course>
  <speed>33.49</speed>
  <fix>3d</fix>
</trkpt>
<trkpt lat="-27.2738874" lon="151.2893394">
  <ele>380.88</ele>
  <time>2026-09-01T20:03:37Z</time>
  <course>36.29</course>
  <speed>33.496641622705994</speed>
  <fix>3d</fix>
</trkpt>
<trkpt lat="-27.2739462" lon="151.2893077">
  <ele>380.9</ele>
  <time>2026-09-01T20:03:37Z</time>
  <course>25.59</course>
  <speed>33.49</speed>
  <fix>3d</fix>
</trkpt>
<trkpt lat="-27.2738605" lon="151.2893539">
  <ele>380.81</ele>
  <time>2026-09-01T20:03:37Z</time>
  <course>39.13</course>
  <speed>33.496641622705994</speed>
  <fix>3d</fix>
</trkpt>
<trkpt lat="-27.2738933" lon="151.2893388">
  <ele>380.96</ele>
  <time>2026-09-01T20:03:37Z</time>
  <course>29.45</course>
  <speed>32.98</speed>
  <fix>3d</fix>
</trkpt>
<trkpt lat="-27.2738376" lon="151.2893742">
  <ele>380.97</ele>
  <time>2026-09-01T20:03:37Z</time>
  <course>41.98</course>
  <speed>32.9837353857928</speed>
  <fix>3d</fix>
</trkpt>
<trkpt lat="-27.2738933" lon="151.2893388">
  <ele>380.96</ele>
  <time>2026-09-01T20:03:37Z</time>
  <course>29.45</course>
  <speed>32.98</speed>
  <fix>3d</fix>
</trkpt>
<trkpt lat="-27.2738118" lon="151.2893906">
  <ele>380.97</ele>
  <time>2026-09-01T20:03:37Z</time>
  <course>44.96</course>
  <speed>32.9837353857928</speed>
  <fix>3d</fix>
</trkpt>
<trkpt lat="-27.2738432" lon="151.2893732">
  <ele>380.95</ele>
  <time>2026-09-01T20:03:37Z</time>
  <course>33.48</course>
  <speed>32.41</speed>
  <fix>3d</fix>
</trkpt>
<trkpt lat="-27.2737908" lon="151.2894122">
  <ele>380.82</ele>
  <time>2026-09-01T20:03:37Z</time>
  <course>48.01</course>
  <speed>32.40856831148207</speed>
  <fix>3d</fix>
</trkpt>
<trkpt lat="-27.2738432" lon="151.2893732">
  <ele>380.95</ele>
  <time>2026-09-01T20:03:37Z</time>
  <course>33.48</course>
  <speed>32.41</speed>
  <fix>3d</fix>
</trkpt>
<trkpt lat="-27.2737665" lon="151.2894303">
  <ele>380.93</ele>
  <time>2026-09-01T20:03:37Z</time>
  <course>51.17</course>
  <speed>32.40856831148207</speed>
  <fix>3d</fix>
</trkpt>
<trkpt lat="-27.2737963" lon="151.289411">
  <ele>380.85</ele>
  <time>2026-09-01T20:03:37Z</time>
  <course>37.75</course>
  <speed>31.79</speed>
  <fix>3d</fix>
</trkpt>
<trkpt lat="-27.2737476" lon="151.2894534">
  <ele>380.72</ele>
  <time>2026-09-01T20:03:37Z</time>
  <course>54.41</course>
  <speed>31.7837773085579</speed>
  <fix>3d</fix>
</trkpt>
<trkpt lat="-27.2737963" lon="151.289411">
  <ele>380.85</ele>
  <time>2026-09-01T20:03:37Z</time>
  <course>37.75</course>
  <speed>31.79</speed>
  <fix>3d</fix>
</trkpt>
<trkpt lat="-27.273725" lon="151.2894731">
  <ele>380.51</ele>
  <time>2026-09-01T20:03:37Z</time>
  <course>57.72</course>
  <speed>31.7837773085579</speed>
  <fix>3d</fix>
</trkpt>
<trkpt lat="-27.2737531" lon="151.2894518">
  <ele>380.69</ele>
  <time>2026-09-01T20:03:37Z</time>
  <course>42.34</course>
  <speed>31.08</speed>
  <fix>3d</fix>
</trkpt>
<trkpt lat="-27.2737086" lon="151.2894975">
  <ele>380.63</ele>
  <time>2026-09-01T20:03:37Z</time>
  <course>60.97</course>
  <speed>31.082221606571174</speed>
  <fix>3d</fix>
</trkpt>
<trkpt lat="-27.2737531" lon="151.2894518">
  <ele>380.69</ele>
  <time>2026-09-01T20:03:37Z</time>
  <course>42.34</course>
  <speed>31.08</speed>
  <fix>3d</fix>
</trkpt>
<trkpt lat="-27.2736879" lon="151.2895186">
  <ele>380.24</ele>
  <time>2026-09-01T20:03:37Z</time>
  <course>64.39</course>
  <speed>31.082221606571174</speed>
  <fix>3d</fix>
</trkpt>
<trkpt lat="-27.2737139" lon="151.2894956">
  <ele>380.48</ele>
  <time>2026-09-01T20:03:37Z</time>
  <course>47.25</course>
  <speed>30.28</speed>
  <fix>3d</fix>
</trkpt>
<trkpt lat="-27.2736739" lon="151.2895443">
  <ele>380.44</ele>
  <time>2026-09-01T20:03:37Z</time>
  <course>67.84</course>
  <speed>30.28068856548675</speed>
  <fix>3d</fix>
</trkpt>
<trkpt lat="-27.2737139" lon="151.2894956">
  <ele>380.48</ele>
  <time>2026-09-01T20:03:37Z</time>
  <course>47.25</course>
  <speed>30.28</speed>
  <fix>3d</fix>
</trkpt>
<trkpt lat="-27.2736554" lon="151.2895668">
  <ele>380.29</ele>
  <time>2026-09-01T20:03:37Z</time>
  <course>71.36</course>
  <speed>30.28068856548675</speed>
  <fix>3d</fix>
</trkpt>
<trkpt lat="-27.2736793" lon="151.2895418">
  <ele>380.23</ele>
  <time>2026-09-01T20:03:37Z</time>
  <course>52.45</course>
  <speed>29.39</speed>
  <fix>3d</fix>
</trkpt>
<trkpt lat="-27.2736444" lon="151.2895929">
  <ele>380.2</ele>
  <time>2026-09-01T20:03:37Z</time>
  <course>74.87</course>
  <speed>29.38806050082244</speed>
  <fix>3d</fix>
</trkpt>
<trkpt lat="-27.2736793" lon="151.2895418">
  <ele>380.23</ele>
  <time>2026-09-01T20:03:37Z</time>
  <course>52.45</course>
  <speed>29.39</speed>
  <fix>3d</fix>
</trkpt>
<trkpt lat="-27.2736283" lon="151.2896164">
  <ele>379.87</ele>
  <time>2026-09-01T20:03:37Z</time>
  <course>78.31</course>
  <speed>29.38806050082244</speed>
  <fix>3d</fix>
</trkpt>
<trkpt lat="-27.2736496" lon="151.2895897">
  <ele>379.95</ele>
  <time>2026-09-01T20:03:37Z</time>
  <course>57.95</course>
  <speed>28.41</speed>
  <fix>3d</fix>
</trkpt>
<trkpt lat="-27.2736203" lon="151.2896425">
  <ele>379.72</ele>
  <time>2026-09-01T20:03:37Z</time>
  <course>82.07</course>
  <speed>28.406888249155344</speed>
  <fix>3d</fix>
</trkpt>
<trkpt lat="-27.2736496" lon="151.2895897">
  <ele>379.95</ele>
  <time>2026-09-01T20:03:37Z</time>
  <course>57.95</course>
  <speed>28.41</speed>
  <fix>3d</fix>
</trkpt>
<trkpt lat="-27.2736067" lon="151.2896668">
  <ele>379.63</ele>
  <time>2026-09-01T20:03:37Z</time>
  <course>87.12</course>
  <speed>28.406888249155344</speed>
  <fix>3d</fix>
</trkpt>
<trkpt lat="-27.2736249" lon="151.2896388">
  <ele>379.64</ele>
  <time>2026-09-01T20:03:37Z</time>
  <course>63.09</course>
  <speed>27.45</speed>
  <fix>3d</fix>
</trkpt>
<trkpt lat="-27.2736007" lon="151.2896924">
  <ele>379.35</ele>
  <time>2026-09-01T20:03:37Z</time>
  <course>92.56</course>
  <speed>27.450442619382297</speed>
  <fix>3d</fix>
</trkpt>
<trkpt lat="-27.2736249" lon="151.2896388">
  <ele>379.64</ele>
  <time>2026-09-01T20:03:37Z</time>
  <course>63.09</course>
  <speed>27.45</speed>
  <fix>3d</fix>
</trkpt>
<trkpt lat="-27.2735896" lon="151.2897172">
  <ele>379.3</ele>
  <time>2026-09-01T20:03:37Z</time>
  <course>97.4</course>
  <speed>27.450442619382297</speed>
  <fix>3d</fix>
</trkpt>
<trkpt lat="-27.2736049" lon="151.2896883">
  <ele>379.29</ele>
  <time>2026-09-01T20:03:37Z</time>
  <course>67.86</course>
  <speed>26.37</speed>
  <fix>3d</fix>
</trkpt>
<trkpt lat="-27.2735856" lon="151.2897418">
  <ele>378.82</ele>
  <time>2026-09-01T20:03:37Z</time>
  <course>101.73</course>
  <speed>26.37100301467504</speed>
  <fix>3d</fix>
</trkpt>
<trkpt lat="-27.2736049" lon="151.2896883">
  <ele>379.29</ele>
  <time>2026-09-01T20:03:37Z</time>
  <course>67.86</course>
  <speed>26.37</speed>
  <fix>3d</fix>
</trkpt>
<trkpt lat="-27.2735766" lon="151.2897668">
  <ele>378.75</ele>
  <time>2026-09-01T20:03:37Z</time>
  <course>105.96</course>
  <speed>26.37100301467504</speed>
  <fix>3d</fix>
</trkpt>
<trkpt lat="-27.2735894" lon="151.2897373">
  <ele>378.9</ele>
  <time>2026-09-01T20:03:37Z</time>
  <course>72.72</course>
  <speed>25.06</speed>
  <fix>3d</fix>
</trkpt>
<trkpt lat="-27.2735749" lon="151.2897897">
  <ele>378.53</ele>
  <time>2026-09-01T20:03:37Z</time>
  <course>110.01</course>
  <speed>25.059898244007297</speed>
  <fix>3d</fix>
</trkpt>
<trkpt lat="-27.2735894" lon="151.2897373">
  <ele>378.9</ele>
  <time>2026-09-01T20:03:37Z</time>
  <course>72.72</course>
  <speed>25.06</speed>
  <fix>3d</fix>
</trkpt>
<trkpt lat="-27.2735682" lon="151.2898139">
  <ele>378.23</ele>
  <time>2026-09-01T20:03:37Z</time>
  <course>113.9</course>
  <speed>25.059898244007297</speed>
  <fix>3d</fix>
</trkpt>
<trkpt lat="-27.2735781" lon="151.2897848">
  <ele>378.5</ele>
  <time>2026-09-01T20:03:37Z</time>
  <course>77.53</course>
  <speed>23.6</speed>
  <fix>3d</fix>
</trkpt>
<trkpt lat="-27.2735683" lon="151.2898351">
  <ele>378.32</ele>
  <time>2026-09-01T20:03:37Z</time>
  <course>117.55</course>
  <speed>23.595544070862193</speed>
  <fix>3d</fix>
</trkpt>
<trkpt lat="-27.2735781" lon="151.2897848">
  <ele>378.5</ele>
  <time>2026-09-01T20:03:37Z</time>
  <course>77.53</course>
  <speed>23.6</speed>
  <fix>3d</fix>
</trkpt>
<trkpt lat="-27.2735637" lon="151.2898583">
  <ele>378.04</ele>
  <time>2026-09-01T20:03:37Z</time>
  <course>120.94</course>
  <speed>23.595544070862193</speed>
  <fix>3d</fix>
</trkpt>
<trkpt lat="-27.273571" lon="151.2898301">
  <ele>378.07</ele>
  <time>2026-09-01T20:03:37Z</time>
  <course>82.5</course>
  <speed>21.98</speed>
  <fix>3d</fix>
</trkpt>
<trkpt lat="-27.2735655" lon="151.2898776">
  <ele>377.89</ele>
  <time>2026-09-01T20:03:37Z</time>
  <course>124.18</course>
  <speed>21.97689013486667</speed>
  <fix>3d</fix>
</trkpt>
<trkpt lat="-27.273571" lon="151.2898301">
  <ele>378.07</ele>
  <time>2026-09-01T20:03:37Z</time>
  <course>82.5</course>
  <speed>21.98</speed>
  <fix>3d</fix>
</trkpt>
<trkpt lat="-27.2735629" lon="151.2898997">
  <ele>377.32</ele>
  <time>2026-09-01T20:03:37Z</time>
  <course>127.2</course>
  <speed>21.97689013486667</speed>
  <fix>3d</fix>
</trkpt>
<trkpt lat="-27.2735677" lon="151.2898727">
  <ele>377.62</ele>
  <time>2026-09-01T20:03:37Z</time>
  <course>87.55</course>
  <speed>20.3</speed>
  <fix>3d</fix>
</trkpt>
<trkpt lat="-27.2735661" lon="151.2899169">
  <ele>377.26</ele>
  <time>2026-09-01T20:03:37Z</time>
  <course>130.03</course>
  <speed>20.298226523516778</speed>
  <fix>3d</fix>
</trkpt>
<trkpt lat="-27.2735677" lon="151.2898727">
  <ele>377.62</ele>
  <time>2026-09-01T20:03:37Z</time>
  <course>87.55</course>
  <speed>20.3</speed>
  <fix>3d</fix>
</trkpt>
<trkpt lat="-27.2735653" lon="151.2899374">
  <ele>376.86</ele>
  <time>2026-09-01T20:03:37Z</time>
  <course>132.67</course>
  <speed>20.298226523516778</speed>
  <fix>3d</fix>
</trkpt>
<trkpt lat="-27.2735677" lon="151.2899119">
  <ele>377.16</ele>
  <time>2026-09-01T20:03:37Z</time>
  <course>92.53</course>
  <speed>18.63</speed>
  <fix>3d</fix>
</trkpt>
<trkpt lat="-27.2735692" lon="151.2899525">
  <ele>376.97</ele>
  <time>2026-09-01T20:03:37Z</time>
  <course>135.1</course>
  <speed>18.628056796134157</speed>
  <fix>3d</fix>
</trkpt>
<trkpt lat="-27.2735677" lon="151.2899119">
  <ele>377.16</ele>
  <time>2026-09-01T20:03:37Z</time>
  <course>92.53</course>
  <speed>18.63</speed>
  <fix>3d</fix>
</trkpt>
<trkpt lat="-27.27357" lon="151.2899713">
  <ele>376.57</ele>
  <time>2026-09-01T20:03:37Z</time>
  <course>137.35</course>
  <speed>18.628056796134157</speed>
  <fix>3d</fix>
</trkpt>
<trkpt lat="-27.2735705" lon="151.2899478">
  <ele>376.7</ele>
  <time>2026-09-01T20:03:37Z</time>
  <course>97.31</course>
  <speed>17.05</speed>
  <fix>3d</fix>
</trkpt>
<trkpt lat="-27.2735747" lon="151.2899847">
  <ele>376.27</ele>
  <time>2026-09-01T20:03:37Z</time>
  <course>139.44</course>
  <speed>17.048665636934757</speed>
  <fix>3d</fix>
</trkpt>
<trkpt lat="-27.2735705" lon="151.2899478">
  <ele>376.7</ele>
  <time>2026-09-01T20:03:37Z</time>
  <course>97.31</course>
  <speed>17.05</speed>
  <fix>3d</fix>
</trkpt>
<trkpt lat="-27.2735766" lon="151.2900018">
  <ele>376.24</ele>
  <time>2026-09-01T20:03:37Z</time>
  <course>141.4</course>
  <speed>17.048665636934757</speed>
  <fix>3d</fix>
</trkpt>
<trkpt lat="-27.2735753" lon="151.2899805">
  <ele>376.21</ele>
  <time>2026-09-01T20:03:37Z</time>
  <course>101.8</course>
  <speed>15.59</speed>
  <fix>3d</fix>
</trkpt>
<trkpt lat="-27.2735815" lon="151.2900139">
  <ele>375.65</ele>
  <time>2026-09-01T20:03:37Z</time>
  <course>143.21</course>
  <speed>15.58985888326126</speed>
  <fix>3d</fix>
</trkpt>
<trkpt lat="-27.2735753" lon="151.2899805">
  <ele>376.21</ele>
  <time>2026-09-01T20:03:37Z</time>
  <course>101.8</course>
  <speed>15.59</speed>
  <fix>3d</fix>
</trkpt>
<trkpt lat="-27.2735843" lon="151.2900294">
  <ele>375.48</ele>
  <time>2026-09-01T20:03:37Z</time>
  <course>144.92</course>
  <speed>15.58985888326126</speed>
  <fix>3d</fix>
</trkpt>
<trkpt lat="-27.2735817" lon="151.2900098">
  <ele>375.69</ele>
  <time>2026-09-01T20:03:37Z</time>
  <course>105.98</course>
  <speed>14.27</speed>
  <fix>3d</fix>
</trkpt>
<trkpt lat="-27.2735893" lon="151.2900398">
  <ele>375.4</ele>
  <time>2026-09-01T20:03:37Z</time>
  <course>146.48</course>
  <speed>14.271765833280758</speed>
  <fix>3d</fix>
</trkpt>
<trkpt lat="-27.2735817" lon="151.2900098">
  <ele>375.69</ele>
  <time>2026-09-01T20:03:37Z</time>
  <course>105.98</course>
  <speed>14.27</speed>
  <fix>3d</fix>
</trkpt>
<trkpt lat="-27.2735928" lon="151.2900537">
  <ele>375.12</ele>
  <time>2026-09-01T20:03:37Z</time>
  <course>147.95</course>
  <speed>14.271765833280758</speed>
  <fix>3d</fix>
</trkpt>
<trkpt lat="-27.2735893" lon="151.2900361">
  <ele>375.13</ele>
  <time>2026-09-01T20:03:37Z</time>
  <course>109.89</course>
  <speed>13.1</speed>
  <fix>3d</fix>
</trkpt>
<trkpt lat="-27.2735979" lon="151.2900631">
  <ele>374.71</ele>
  <time>2026-09-01T20:03:37Z</time>
  <course>149.37</course>
  <speed>13.099041949699986</speed>
  <fix>3d</fix>
</trkpt>
<trkpt lat="-27.2735893" lon="151.2900361">
  <ele>375.13</ele>
  <time>2026-09-01T20:03:37Z</time>
  <course>109.89</course>
  <speed>13.1</speed>
  <fix>3d</fix>
</trkpt>
<trkpt lat="-27.2736019" lon="151.2900755">
  <ele>374.43</ele>
  <time>2026-09-01T20:03:37Z</time>
  <course>150.73</course>
  <speed>13.099041949699986</speed>
  <fix>3d</fix>
</trkpt>
<trkpt lat="-27.2735976" lon="151.2900596">
  <ele>374.53</ele>
  <time>2026-09-01T20:03:37Z</time>
  <course>113.61</course>
  <speed>12.06</speed>
  <fix>3d</fix>
</trkpt>
<trkpt lat="-27.273607" lon="151.2900838">
  <ele>373.89</ele>
  <time>2026-09-01T20:03:37Z</time>
  <course>152.04</course>
  <speed>12.059494185080899</speed>
  <fix>3d</fix>
</trkpt>
<trkpt lat="-27.2735976" lon="151.2900596">
  <ele>374.53</ele>
  <time>2026-09-01T20:03:37Z</time>
  <course>113.61</course>
  <speed>12.06</speed>
  <fix>3d</fix>
</trkpt>
<trkpt lat="-27.2736113" lon="151.290095">
  <ele>373.77</ele>
  <time>2026-09-01T20:03:37Z</time>
  <course>153.3</course>
  <speed>12.059494185080899</speed>
  <fix>3d</fix>
</trkpt>
<trkpt lat="-27.2736066" lon="151.2900808">
  <ele>373.89</ele>
  <time>2026-09-01T20:03:37Z</time>
  <course>117.35</course>
  <speed>11.15</speed>
  <fix>3d</fix>
</trkpt>
<trkpt lat="-27.2736165" lon="151.2901025">
  <ele>373.41</ele>
  <time>2026-09-01T20:03:37Z</time>
  <course>154.56</course>
  <speed>11.14560002871088</speed>
  <fix>3d</fix>
</trkpt>
<trkpt lat="-27.2736066" lon="151.2900808">
  <ele>373.89</ele>
  <time>2026-09-01T20:03:37Z</time>
  <course>117.35</course>
  <speed>11.15</speed>
  <fix>3d</fix>
</trkpt>
<trkpt lat="-27.2736211" lon="151.2901125">
  <ele>373.22</ele>
  <time>2026-09-01T20:03:37Z</time>
  <course>155.78</course>
  <speed>11.14560002871088</speed>
  <fix>3d</fix>
</trkpt>
<trkpt lat="-27.273616" lon="151.2900997">
  <ele>373.23</ele>
  <time>2026-09-01T20:03:37Z</time>
  <course>121.33</course>
  <speed>10.35</speed>
  <fix>3d</fix>
</trkpt>
<trkpt lat="-27.2736264" lon="151.290119">
  <ele>372.66</ele>
  <time>2026-09-01T20:03:37Z</time>
  <course>156.97</course>
  <speed>10.348429832588131</speed>
  <fix>3d</fix>
</trkpt>
<trkpt lat="-27.273616" lon="151.2900997">
  <ele>373.23</ele>
  <time>2026-09-01T20:03:37Z</time>
  <course>121.33</course>
  <speed>10.35</speed>
  <fix>3d</fix>
</trkpt>
<trkpt lat="-27.2736313" lon="151.290128">
  <ele>372.5</ele>
  <time>2026-09-01T20:03:37Z</time>
  <course>158.13</course>
  <speed>10.348429832588131</speed>
  <fix>3d</fix>
</trkpt>
<trkpt lat="-27.2736259" lon="151.2901165">
  <ele>372.55</ele>
  <time>2026-09-01T20:03:37Z</time>
  <course>125.67</course>
  <speed>9.66</speed>
  <fix>3d</fix>
</trkpt>
<trkpt lat="-27.2736368" lon="151.2901337">
  <ele>372.14</ele>
  <time>2026-09-01T20:03:37Z</time>
  <course>159.25</course>
  <speed>9.652072316347407</speed>
  <fix>3d</fix>
</trkpt>
<trkpt lat="-27.2736259" lon="151.2901165">
  <ele>372.55</ele>
  <time>2026-09-01T20:03:37Z</time>
  <course>125.67</course>
  <speed>9.66</speed>
  <fix>3d</fix>
</trkpt>
<trkpt lat="-27.2736419" lon="151.2901416">
  <ele>371.48</ele>
  <time>2026-09-01T20:03:37Z</time>
  <course>160.33</course>
  <speed>9.652072316347407</speed>
  <fix>3d</fix>
</trkpt>
<trkpt lat="-27.2736363" lon="151.2901314">
  <ele>371.87</ele>
  <time>2026-09-01T20:03:37Z</time>
  <course>130.43</course>
  <speed>9.08</speed>
  <fix>3d</fix>
</trkpt>
<trkpt lat="-27.2736477" lon="151.2901465">
  <ele>371.44</ele>
  <time>2026-09-01T20:03:37Z</time>
  <course>161.4</course>
  <speed>9.079658583889595</speed>
  <fix>3d</fix>
</trkpt>
<trkpt lat="-27.2736363" lon="151.2901314">
  <ele>371.87</ele>
  <time>2026-09-01T20:03:37Z</time>
  <course>130.43</course>
  <speed>9.08</speed>
  <fix>3d</fix>
</trkpt>
<trkpt lat="-27.273653" lon="151.2901535">
  <ele>371.0</ele>
  <time>2026-09-01T20:03:37Z</time>
  <course>162.4</course>
  <speed>9.079658583889595</speed>
  <fix>3d</fix>
</trkpt>
<trkpt lat="-27.2736471" lon="151.2901446">
  <ele>371.22</ele>
  <time>2026-09-01T20:03:37Z</time>
  <course>135.6</course>
  <speed>8.63</speed>
  <fix>3d</fix>
</trkpt>
<trkpt lat="-27.273659" lon="151.2901577">
  <ele>370.64</ele>
  <time>2026-09-01T20:03:38Z</time>
  <course>163.4</course>
  <speed>8.620121808884141</speed>
  <fix>3d</fix>
</trkpt>
<trkpt lat="-27.2736471" lon="151.2901446">
  <ele>371.22</ele>
  <time>2026-09-01T20:03:38Z</time>
  <course>135.6</course>
  <speed>8.63</speed>
  <fix>3d</fix>
</trkpt>
<trkpt lat="-27.2736646" lon="151.2901638">
  <ele>370.34</ele>
  <time>2026-09-01T20:03:38Z</time>
  <course>164.37</course>
  <speed>8.620121808884141</speed>
  <fix>3d</fix>
</trkpt>
<trkpt lat="-27.2736585" lon="151.2901559">
  <ele>370.61</ele>
  <time>2026-09-01T20:03:38Z</time>
  <course>141.02</course>
  <speed>8.3</speed>
  <fix>3d</fix>
</trkpt>
<trkpt lat="-27.273671" lon="151.2901673">
  <ele>369.98</ele>
  <time>2026-09-01T20:03:38Z</time>
  <course>165.27</course>
  <speed>8.297644244000823</speed>
  <fix>3d</fix>
</trkpt>
<trkpt lat="-27.2736585" lon="151.2901559">
  <ele>370.61</ele>
  <time>2026-09-01T20:03:38Z</time>
  <course>141.02</course>
  <speed>8.3</speed>
  <fix>3d</fix>
</trkpt>
<trkpt lat="-27.2736768" lon="151.2901725">
  <ele>369.98</ele>
  <time>2026-09-01T20:03:38Z</time>
  <course>166.12</course>
  <speed>8.297644244000823</speed>
  <fix>3d</fix>
</trkpt>
<trkpt lat="-27.2736703" lon="151.2901657">
  <ele>370.05</ele>
  <time>2026-09-01T20:03:38Z</time>
  <course>146.4</course>
  <speed>8.09</speed>
  <fix>3d</fix>
</trkpt>
<trkpt lat="-27.2736834" lon="151.2901755">
  <ele>369.8</ele>
  <time>2026-09-01T20:03:38Z</time>
  <course>166.91</course>
  <speed>8.093083466763456</speed>
  <fix>3d</fix>
</trkpt>
<trkpt lat="-27.2736703" lon="151.2901657">
  <ele>370.05</ele>
  <time>2026-09-01T20:03:38Z</time>
  <course>146.4</course>
  <speed>8.09</speed>
  <fix>3d</fix>
</trkpt>
<trkpt lat="-27.2736895" lon="151.29018">
  <ele>369.22</ele>
  <time>2026-09-01T20:03:38Z</time>
  <course>167.61</course>
  <speed>8.093083466763456</speed>
  <fix>3d</fix>
</trkpt>
<trkpt lat="-27.2736827" lon="151.2901741">
  <ele>369.56</ele>
  <time>2026-09-01T20:03:38Z</time>
  <course>151.49</course>
  <speed>7.99</speed>
  <fix>3d</fix>
</trkpt>
<trkpt lat="-27.2736964" lon="151.2901824">
  <ele>369.02</ele>
  <time>2026-09-01T20:03:38Z</time>
  <course>168.27</course>
  <speed>7.987271123481411</speed>
  <fix>3d</fix>
</trkpt>
<trkpt lat="-27.2736827" lon="151.2901741">
  <ele>369.56</ele>
  <time>2026-09-01T20:03:38Z</time>
  <course>151.49</course>
  <speed>7.99</speed>
  <fix>3d</fix>
</trkpt>
<trkpt lat="-27.2737027" lon="151.2901863">
  <ele>368.93</ele>
  <time>2026-09-01T20:03:38Z</time>
  <course>168.85</course>
  <speed>7.987271123481411</speed>
  <fix>3d</fix>
</trkpt>
<trkpt lat="-27.2736955" lon="151.2901812">
  <ele>369.13</ele>
  <time>2026-09-01T20:03:38Z</time>
  <course>156.0</course>
  <speed>7.97</speed>
  <fix>3d</fix>
</trkpt>
<trkpt lat="-27.2737097" lon="151.2901883">
  <ele>368.69</ele>
  <time>2026-09-01T20:03:38Z</time>
  <course>169.38</course>
  <speed>7.968437738979957</speed>
  <fix>3d</fix>
</trkpt>
<trkpt lat="-27.2736955" lon="151.2901812">
  <ele>369.13</ele>
  <time>2026-09-01T20:03:38Z</time>
  <course>156.0</course>
  <speed>7.97</speed>
  <fix>3d</fix>
</trkpt>
<trkpt lat="-27.2737162" lon="151.2901915">
  <ele>368.66</ele>
  <time>2026-09-01T20:03:38Z</time>
  <course>169.87</course>
  <speed>7.968437738979957</speed>
  <fix>3d</fix>
</trkpt>
<trkpt lat="-27.2737089" lon="151.2901872">
  <ele>368.78</ele>
  <time>2026-09-01T20:03:38Z</time>
  <course>159.73</course>
  <speed>8.02</speed>
  <fix>3d</fix>
</trkpt>
<trkpt lat="-27.2737235" lon="151.2901932">
  <ele>368.64</ele>
  <time>2026-09-01T20:03:38Z</time>
  <course>170.32</course>
  <speed>8.026786405529924</speed>
  <fix>3d</fix>
</trkpt>
<trkpt lat="-27.2737089" lon="151.2901872">
  <ele>368.78</ele>
  <time>2026-09-01T20:03:38Z</time>
  <course>159.73</course>
  <speed>8.02</speed>
  <fix>3d</fix>
</trkpt>
<trkpt lat="-27.2737303" lon="151.2901961">
  <ele>368.48</ele>
  <time>2026-09-01T20:03:38Z</time>
  <course>170.66</course>
  <speed>8.026786405529924</speed>
  <fix>3d</fix>
</trkpt>
<trkpt lat="-27.2737226" lon="151.2901925">
  <ele>368.5</ele>
  <time>2026-09-01T20:03:38Z</time>
  <course>162.59</course>
  <speed>8.12</speed>
  <fix>3d</fix>
</trkpt>
<trkpt lat="-27.2737377" lon="151.2901978">
  <ele>368.47</ele>
  <time>2026-09-01T20:03:38Z</time>
  <course>170.99</course>
  <speed>8.122031765512864</speed>
  <fix>3d</fix>
</trkpt>
<trkpt lat="-27.2737226" lon="151.2901925">
  <ele>368.5</ele>
  <time>2026-09-01T20:03:38Z</time>
  <course>162.59</course>
  <speed>8.12</speed>
  <fix>3d</fix>
</trkpt>
<trkpt lat="-27.2737446" lon="151.2902002">
  <ele>368.1</ele>
  <time>2026-09-01T20:03:38Z</time>
  <course>171.25</course>
  <speed>8.122031765512864</speed>
  <fix>3d</fix>
</trkpt>
<trkpt lat="-27.2737367" lon="151.2901972">
  <ele>368.29</ele>
  <time>2026-09-01T20:03:38Z</time>
  <course>164.64</course>
  <speed>8.25</speed>
  <fix>3d</fix>
</trkpt>
<trkpt lat="-27.2737522" lon="151.2902019">
  <ele>368.15</ele>
  <time>2026-09-01T20:03:38Z</time>
  <course>171.47</course>
  <speed>8.243476208493599</speed>
  <fix>3d</fix>
</trkpt>
<trkpt lat="-27.2737367" lon="151.2901972">
  <ele>368.29</ele>
  <time>2026-09-01T20:03:38Z</time>
  <course>164.64</course>
  <speed>8.25</speed>
  <fix>3d</fix>
</trkpt>
<trkpt lat="-27.2737593" lon="151.2902042">
  <ele>368.06</ele>
  <time>2026-09-01T20:03:38Z</time>
  <course>171.67</course>
  <speed>8.243476208493599</speed>
  <fix>3d</fix>
</trkpt>
<trkpt lat="-27.2737512" lon="151.2902014">
  <ele>368.13</ele>
  <time>2026-09-01T20:03:38Z</time>
  <course>165.97</course>
  <speed>8.38</speed>
  <fix>3d</fix>
</trkpt>
<trkpt lat="-27.273767" lon="151.2902058">
  <ele>367.84</ele>
  <time>2026-09-01T20:03:38Z</time>
  <course>171.71</course>
  <speed>8.379606195997518</speed>
  <fix>3d</fix>
</trkpt>
<trkpt lat="-27.2737512" lon="151.2902014">
  <ele>368.13</ele>
  <time>2026-09-01T20:03:38Z</time>
  <course>165.97</course>
  <speed>8.38</speed>
  <fix>3d</fix>
</trkpt>
<trkpt lat="-27.2737743" lon="151.2902079">
  <ele>368.07</ele>
  <time>2026-09-01T20:03:38Z</time>
  <course>171.68</course>
  <speed>8.379606195997518</speed>
  <fix>3d</fix>
</trkpt>
<trkpt lat="-27.2737659" lon="151.2902054">
  <ele>368.03</ele>
  <time>2026-09-01T20:03:38Z</time>
  <course>166.68</course>
  <speed>8.52</speed>
  <fix>3d</fix>
</trkpt>
<trkpt lat="-27.273782" lon="151.2902097">
  <ele>368.03</ele>
  <time>2026-09-01T20:03:38Z</time>
  <course>171.75</course>
  <speed>8.518550346156323</speed>
  <fix>3d</fix>
</trkpt>
<trkpt lat="-27.2737659" lon="151.2902054">
  <ele>368.03</ele>
  <time>2026-09-01T20:03:38Z</time>
  <course>166.68</course>
  <speed>8.52</speed>
  <fix>3d</fix>
</trkpt>
<trkpt lat="-27.2737894" lon="151.2902116">
  <ele>367.76</ele>
  <time>2026-09-01T20:03:38Z</time>
  <course>171.72</course>
  <speed>8.518550346156323</speed>
  <fix>3d</fix>
</trkpt>
<trkpt lat="-27.273781" lon="151.2902093">
  <ele>367.97</ele>
  <time>2026-09-01T20:03:38Z</time>
  <course>166.76</course>
  <speed>8.66</speed>
  <fix>3d</fix>
</trkpt>
<trkpt lat="-27.2737973" lon="151.2902136">
  <ele>367.96</ele>
  <time>2026-09-01T20:03:38Z</time>
  <course>171.58</course>
  <speed>8.659405291358063</speed>
  <fix>3d</fix>
</trkpt>
<trkpt lat="-27.273781" lon="151.2902093">
  <ele>367.97</ele>
  <time>2026-09-01T20:03:38Z</time>
  <course>166.76</course>
  <speed>8.66</speed>
  <fix>3d</fix>
</trkpt>
<trkpt lat="-27.2738049" lon="151.2902156">
  <ele>367.94</ele>
  <time>2026-09-01T20:03:38Z</time>
  <course>171.42</course>
  <speed>8.659405291358063</speed>
  <fix>3d</fix>
</trkpt>
<trkpt lat="-27.2737962" lon="151.2902135">
  <ele>367.96</ele>
  <time>2026-09-01T20:03:38Z</time>
  <course>166.22</course>
  <speed>8.81</speed>
  <fix>3d</fix>
</trkpt>
<trkpt lat="-27.2738128" lon="151.290218">
  <ele>367.94</ele>
  <time>2026-09-01T20:03:38Z</time>
  <course>171.22</course>
  <speed>8.801738464644357</speed>
  <fix>3d</fix>
</trkpt>
<trkpt lat="-27.2737962" lon="151.2902135">
  <ele>367.96</ele>
  <time>2026-09-01T20:03:38Z</time>
  <course>166.22</course>
  <speed>8.81</speed>
  <fix>3d</fix>
</trkpt>
<trkpt lat="-27.2738204" lon="151.2902202">
  <ele>368.13</ele>
  <time>2026-09-01T20:03:38Z</time>
  <course>171.03</course>
  <speed>8.801738464644357</speed>
  <fix>3d</fix>
</trkpt>
<trkpt lat="-27.2738116" lon="151.2902179">
  <ele>367.99</ele>
  <time>2026-09-01T20:03:38Z</time>
  <course>165.17</course>
  <speed>8.95</speed>
  <fix>3d</fix>
</trkpt>
<trkpt lat="-27.2738283" lon="151.2902229">
  <ele>367.83</ele>
  <time>2026-09-01T20:03:38Z</time>
  <course>170.77</course>
  <speed>8.94799418864362</speed>
  <fix>3d</fix>
</trkpt>
<trkpt lat="-27.2738116" lon="151.2902179">
  <ele>367.99</ele>
  <time>2026-09-01T20:03:38Z</time>
  <course>165.17</course>
  <speed>8.95</speed>
  <fix>3d</fix>
</trkpt>
<trkpt lat="-27.2738361" lon="151.2902252">
  <ele>367.9</ele>
  <time>2026-09-01T20:03:38Z</time>
  <course>170.45</course>
  <speed>8.94799418864362</speed>
  <fix>3d</fix>
</trkpt>
<trkpt lat="-27.2738273" lon="151.2902228">
  <ele>368.05</ele>
  <time>2026-09-01T20:03:38Z</time>
  <course>163.68</course>
  <speed>9.09</speed>
  <fix>3d</fix>
</trkpt>
<trkpt lat="-27.2738442" lon="151.2902283">
  <ele>367.92</ele>
  <time>2026-09-01T20:03:38Z</time>
  <course>170.12</course>
  <speed>9.085202254215368</speed>
  <fix>3d</fix>
</trkpt>
<trkpt lat="-27.2738273" lon="151.2902228">
  <ele>368.05</ele>
  <time>2026-09-01T20:03:38Z</time>
  <course>163.68</course>
  <speed>9.09</speed>
  <fix>3d</fix>
</trkpt>
<trkpt lat="-27.2738521" lon="151.2902309">
  <ele>367.99</ele>
  <time>2026-09-01T20:03:38Z</time>
  <course>169.77</course>
  <speed>9.085202254215368</speed>
  <fix>3d</fix>
</trkpt>
<trkpt lat="-27.2738431" lon="151.2902283">
  <ele>368.15</ele>
  <time>2026-09-01T20:03:38Z</time>
  <course>161.81</course>
  <speed>9.22</speed>
  <fix>3d</fix>
</trkpt>
<trkpt lat="-27.2738601" lon="151.2902346">
  <ele>368.17</ele>
  <time>2026-09-01T20:03:38Z</time>
  <course>169.33</course>
  <speed>9.218161421888857</speed>
  <fix>3d</fix>
</trkpt>
<trkpt lat="-27.2738431" lon="151.2902283">
  <ele>368.15</ele>
  <time>2026-09-01T20:03:38Z</time>
  <course>161.81</course>
  <speed>9.22</speed>
  <fix>3d</fix>
</trkpt>
<trkpt lat="-27.273868" lon="151.2902375">
  <ele>368.45</ele>
  <time>2026-09-01T20:03:38Z</time>
  <course>168.85</course>
  <speed>9.218161421888857</speed>
  <fix>3d</fix>
</trkpt>
<trkpt lat="-27.2738589" lon="151.2902345">
  <ele>368.28</ele>
  <time>2026-09-01T20:03:38Z</time>
  <course>159.56</course>
  <speed>9.36</speed>
  <fix>3d</fix>
</trkpt>
<trkpt lat="-27.273876" lon="151.2902416">
  <ele>368.23</ele>
  <time>2026-09-01T20:03:38Z</time>
  <course>168.38</course>
  <speed>9.356308032552157</speed>
  <fix>3d</fix>
</trkpt>
<trkpt lat="-27.2738589" lon="151.2902345">
  <ele>368.28</ele>
  <time>2026-09-01T20:03:38Z</time>
  <course>159.56</course>
  <speed>9.36</speed>
  <fix>3d</fix>
</trkpt>
<trkpt lat="-27.2738838" lon="151.2902449">
  <ele>368.37</ele>
  <time>2026-09-01T20:03:38Z</time>
  <course>167.85</course>
  <speed>9.356308032552157</speed>
  <fix>3d</fix>
</trkpt>
<trkpt lat="-27.2738746" lon="151.2902416">
  <ele>368.44</ele>
  <time>2026-09-01T20:03:38Z</time>
  <course>156.95</course>
  <speed>9.5</speed>
  <fix>3d</fix>
</trkpt>
<trkpt lat="-27.2738916" lon="151.2902497">
  <ele>368.76</ele>
  <time>2026-09-01T20:03:38Z</time>
  <course>167.27</course>
  <speed>9.507938788191687</speed>
  <fix>3d</fix>
</trkpt>
<trkpt lat="-27.2738746" lon="151.2902416">
  <ele>368.44</ele>
  <time>2026-09-01T20:03:38Z</time>
  <course>156.95</course>
  <speed>9.5</speed>
  <fix>3d</fix>
</trkpt>
<trkpt lat="-27.2738995" lon="151.2902535">
  <ele>368.81</ele>
  <time>2026-09-01T20:03:38Z</time>
  <course>166.73</course>
  <speed>9.507938788191687</speed>
  <fix>3d</fix>
</trkpt>
<trkpt lat="-27.2738903" lon="151.2902496">
  <ele>368.64</ele>
  <time>2026-09-01T20:03:38Z</time>
  <course>154.05</course>
  <speed>9.65</speed>
  <fix>3d</fix>
</trkpt>
<trkpt lat="-27.2739072" lon="151.2902588">
  <ele>368.76</ele>
  <time>2026-09-01T20:03:38Z</time>
  <course>166.19</course>
  <speed>9.651466209856407</speed>
  <fix>3d</fix>
</trkpt>
<trkpt lat="-27.2738903" lon="151.2902496">
  <ele>368.64</ele>
  <time>2026-09-01T20:03:38Z</time>
  <course>154.05</course>
  <speed>9.65</speed>
  <fix>3d</fix>
</trkpt>
<trkpt lat="-27.273915" lon="151.2902631">
  <ele>369.1</ele>
  <time>2026-09-01T20:03:38Z</time>
  <course>165.68</course>
  <speed>9.651466209856407</speed>
  <fix>3d</fix>
</trkpt>
<trkpt lat="-27.2739058" lon="151.2902586">
  <ele>368.87</ele>
  <time>2026-09-01T20:03:38Z</time>
  <course>151.08</course>
  <speed>9.79</speed>
  <fix>3d</fix>
</trkpt>
<trkpt lat="-27.2739225" lon="151.2902689">
  <ele>368.85</ele>
  <time>2026-09-01T20:03:38Z</time>
  <course>165.14</course>
  <speed>9.788656700487559</speed>
  <fix>3d</fix>
</trkpt>
<trkpt lat="-27.2739058" lon="151.2902586">
  <ele>368.87</ele>
  <time>2026-09-01T20:03:38Z</time>
  <course>151.08</course>
  <speed>9.79</speed>
  <fix>3d</fix>
</trkpt>
<trkpt lat="-27.2739302" lon="151.2902737">
  <ele>369.37</ele>
  <time>2026-09-01T20:03:38Z</time>
  <course>164.54</course>
  <speed>9.788656700487559</speed>
  <fix>3d</fix>
</trkpt>
<trkpt lat="-27.273921" lon="151.2902687">
  <ele>369.11</ele>
  <time>2026-09-01T20:03:38Z</time>
  <course>148.12</course>
  <speed>9.93</speed>
  <fix>3d</fix>
</trkpt>
<trkpt lat="-27.2739374" lon="151.2902802">
  <ele>369.26</ele>
  <time>2026-09-01T20:03:38Z</time>
  <course>163.95</course>
  <speed>9.925850089538931</speed>
  <fix>3d</fix>
</trkpt>
<trkpt lat="-27.273921" lon="151.2902687">
  <ele>369.11</ele>
  <time>2026-09-01T20:03:38Z</time>
  <course>148.12</course>
  <speed>9.93</speed>
  <fix>3d</fix>
</trkpt>
<trkpt lat="-27.273945" lon="151.2902855">
  <ele>369.38</ele>
  <time>2026-09-01T20:03:38Z</time>
  <course>163.31</course>
  <speed>9.925850089538931</speed>
  <fix>3d</fix>
</trkpt>
<trkpt lat="-27.273936" lon="151.2902799">
  <ele>369.37</ele>
  <time>2026-09-01T20:03:38Z</time>
  <course>145.14</course>
  <speed>10.08</speed>
  <fix>3d</fix>
</trkpt>
<trkpt lat="-27.273952" lon="151.2902924">
  <ele>369.76</ele>
  <time>2026-09-01T20:03:38Z</time>
  <course>162.68</course>
  <speed>10.078219088708083</speed>
  <fix>3d</fix>
</trkpt>
<trkpt lat="-27.273936" lon="151.2902799">
  <ele>369.37</ele>
  <time>2026-09-01T20:03:38Z</time>
  <course>145.14</course>
  <speed>10.08</speed>
  <fix>3d</fix>
</trkpt>
<trkpt lat="-27.2739594" lon="151.2902982">
  <ele>369.75</ele>
  <time>2026-09-01T20:03:38Z</time>
  <course>162.06</course>
  <speed>10.078219088708083</speed>
  <fix>3d</fix>
</trkpt>
<trkpt lat="-27.2739507" lon="151.290292">
  <ele>369.63</ele>
  <time>2026-09-01T20:03:38Z</time>
  <course>142.19</course>
  <speed>10.22</speed>
  <fix>3d</fix>
</trkpt>
<trkpt lat="-27.2739663" lon="151.2903056">
  <ele>369.75</ele>
  <time>2026-09-01T20:03:38Z</time>
  <course>161.46</course>
  <speed>10.221252369450625</speed>
  <fix>3d</fix>
</trkpt>
<trkpt lat="-27.2739507" lon="151.290292">
  <ele>369.63</ele>
  <time>2026-09-01T20:03:38Z</time>
  <course>142.19</course>
  <speed>10.22</speed>
  <fix>3d</fix>
</trkpt>
<trkpt lat="-27.2739736" lon="151.290312">
  <ele>369.84</ele>
  <time>2026-09-01T20:03:38Z</time>
  <course>160.89</course>
  <speed>10.221252369450625</speed>
  <fix>3d</fix>
</trkpt>
<trkpt lat="-27.273965" lon="151.2903052">
  <ele>369.9</ele>
  <time>2026-09-01T20:03:38Z</time>
  <course>139.35</course>
  <speed>10.36</speed>
  <fix>3d</fix>
</trkpt>
<trkpt lat="-27.2739802" lon="151.2903199">
  <ele>369.94</ele>
  <time>2026-09-01T20:03:38Z</time>
  <course>160.32</course>
  <speed>10.360603264289198</speed>
  <fix>3d</fix>
</trkpt>
<trkpt lat="-27.273965" lon="151.2903052">
  <ele>369.9</ele>
  <time>2026-09-01T20:03:38Z</time>
  <course>139.35</course>
  <speed>10.36</speed>
  <fix>3d</fix>
</trkpt>
<trkpt lat="-27.2739873" lon="151.2903267">
  <ele>370.33</ele>
  <time>2026-09-01T20:03:38Z</time>
  <course>159.86</course>
  <speed>10.360603264289198</speed>
  <fix>3d</fix>
</trkpt>
<trkpt lat="-27.273979" lon="151.2903193">
  <ele>370.18</ele>
  <time>2026-09-01T20:03:38Z</time>
  <course>136.63</course>
  <speed>10.5</speed>
  <fix>3d</fix>
</trkpt>
<trkpt lat="-27.2739938" lon="151.290335">
  <ele>370.4</ele>
  <time>2026-09-01T20:03:38Z</time>
  <course>159.45</course>
  <speed>10.497666407349778</speed>
  <fix>3d</fix>
</trkpt>
<trkpt lat="-27.273979" lon="151.2903193">
  <ele>370.18</ele>
  <time>2026-09-01T20:03:38Z</time>
  <course>136.63</course>
  <speed>10.5</speed>
  <fix>3d</fix>
</trkpt>
<trkpt lat="-27.2740006" lon="151.2903423">
  <ele>370.49</ele>
  <time>2026-09-01T20:03:38Z</time>
  <course>158.91</course>
  <speed>10.497666407349778</speed>
  <fix>3d</fix>
</trkpt>
<trkpt lat="-27.2739925" lon="151.2903344">
  <ele>370.44</ele>
  <time>2026-09-01T20:03:38Z</time>
  <course>134.19</course>
  <speed>10.63</speed>
  <fix>3d</fix>
</trkpt>
<trkpt lat="-27.2740068" lon="151.290351">
  <ele>370.6</ele>
  <time>2026-09-01T20:03:38Z</time>
  <course>158.43</course>
  <speed>10.628852242834125</speed>
  <fix>3d</fix>
</trkpt>
<trkpt lat="-27.2739925" lon="151.2903344">
  <ele>370.44</ele>
  <time>2026-09-01T20:03:38Z</time>
  <course>134.19</course>
  <speed>10.63</speed>
  <fix>3d</fix>
</trkpt>
<trkpt lat="-27.2740135" lon="151.2903587">
  <ele>370.86</ele>
  <time>2026-09-01T20:03:38Z</time>
  <course>157.97</course>
  <speed>10.628852242834125</speed>
  <fix>3d</fix>
</trkpt>
<trkpt lat="-27.2740056" lon="151.2903501">
  <ele>370.69</ele>
  <time>2026-09-01T20:03:38Z</time>
  <course>132.05</course>
  <speed>10.73</speed>
  <fix>3d</fix>
</trkpt>
<trkpt lat="-27.2740196" lon="151.2903675">
  <ele>370.97</ele>
  <time>2026-09-01T20:03:38Z</time>
  <course>157.58</course>
  <speed>10.71979477415496</speed>
  <fix>3d</fix>
</trkpt>
<trkpt lat="-27.2740056" lon="151.2903501">
  <ele>370.69</ele>
  <time>2026-09-01T20:03:38Z</time>
  <course>132.05</course>
  <speed>10.73</speed>
  <fix>3d</fix>
</trkpt>
<trkpt lat="-27.274026" lon="151.2903756">
  <ele>371.0</ele>
  <time>2026-09-01T20:03:38Z</time>
  <course>157.21</course>
  <speed>10.71979477415496</speed>
  <fix>3d</fix>
</trkpt>
<trkpt lat="-27.2740184" lon="151.2903665">
  <ele>370.94</ele>
  <time>2026-09-01T20:03:38Z</time>
  <course>130.21</course>
  <speed>10.79</speed>
  <fix>3d</fix>
</trkpt>
<trkpt lat="-27.2740319" lon="151.2903845">
  <ele>371.29</ele>
  <time>2026-09-01T20:03:38Z</time>
  <course>156.86</course>
  <speed>10.786065084172263</speed>
  <fix>3d</fix>
</trkpt>
<trkpt lat="-27.2740184" lon="151.2903665">
  <ele>370.94</ele>
  <time>2026-09-01T20:03:38Z</time>
  <course>130.21</course>
  <speed>10.79</speed>
  <fix>3d</fix>
</trkpt>
<trkpt lat="-27.2740382" lon="151.2903928">
  <ele>371.11</ele>
  <time>2026-09-01T20:03:38Z</time>
  <course>156.53</course>
  <speed>10.786065084172263</speed>
  <fix>3d</fix>
</trkpt>
<trkpt lat="-27.2740307" lon="151.2903834">
  <ele>371.16</ele>
  <time>2026-09-01T20:03:38Z</time>
  <course>128.71</course>
  <speed>10.8</speed>
  <fix>3d</fix>
</trkpt>
<trkpt lat="-27.2740439" lon="151.2904019">
  <ele>371.27</ele>
  <time>2026-09-01T20:03:38Z</time>
  <course>156.25</course>
  <speed>10.805669808022083</speed>
  <fix>3d</fix>
</trkpt>
<trkpt lat="-27.2740307" lon="151.2903834">
  <ele>371.16</ele>
  <time>2026-09-01T20:03:38Z</time>
  <course>128.71</course>
  <speed>10.8</speed>
  <fix>3d</fix>
</trkpt>
<trkpt lat="-27.27405" lon="151.2904105">
  <ele>371.42</ele>
  <time>2026-09-01T20:03:38Z</time>
  <course>156.03</course>
  <speed>10.805669808022083</speed>
  <fix>3d</fix>
</trkpt>
<trkpt lat="-27.2740427" lon="151.2904006">
  <ele>371.37</ele>
  <time>2026-09-01T20:03:38Z</time>
  <course>127.54</course>
  <speed>10.79</speed>
  <fix>3d</fix>
</trkpt>
<trkpt lat="-27.2740555" lon="151.2904193">
  <ele>371.36</ele>
  <time>2026-09-01T20:03:38Z</time>
  <course>155.82</course>
  <speed>10.782736201910904</speed>
  <fix>3d</fix>
</trkpt>
<trkpt lat="-27.2740427" lon="151.2904006">
  <ele>371.37</ele>
  <time>2026-09-01T20:03:38Z</time>
  <course>127.54</course>
  <speed>10.79</speed>
  <fix>3d</fix>
</trkpt>
<trkpt lat="-27.2740614" lon="151.290428">
  <ele>371.47</ele>
  <time>2026-09-01T20:03:38Z</time>
  <course>155.6</course>
  <speed>10.782736201910904</speed>
  <fix>3d</fix>
</trkpt>
<trkpt lat="-27.2740543" lon="151.290418">
  <ele>371.56</ele>
  <time>2026-09-01T20:03:38Z</time>
  <course>126.71</course>
  <speed>10.74</speed>
  <fix>3d</fix>
</trkpt>
<trkpt lat="-27.2740668" lon="151.2904368">
  <ele>371.86</ele>
  <time>2026-09-01T20:03:38Z</time>
  <course>155.46</course>
  <speed>10.732026835598203</speed>
  <fix>3d</fix>
</trkpt>
<trkpt lat="-27.2740543" lon="151.290418">
  <ele>371.56</ele>
  <time>2026-09-01T20:03:38Z</time>
  <course>126.71</course>
  <speed>10.74</speed>
  <fix>3d</fix>
</trkpt>
<trkpt lat="-27.2740725" lon="151.2904455">
  <ele>371.73</ele>
  <time>2026-09-01T20:03:38Z</time>
  <course>155.38</course>
  <speed>10.732026835598203</speed>
  <fix>3d</fix>
</trkpt>
<trkpt lat="-27.2740657" lon="151.2904353">
  <ele>371.72</ele>
  <time>2026-09-01T20:03:38Z</time>
  <course>126.25</course>
  <speed>10.66</speed>
  <fix>3d</fix>
</trkpt>
<trkpt lat="-27.2740779" lon="151.2904541">
  <ele>371.98</ele>
  <time>2026-09-01T20:03:38Z</time>
  <course>155.34</course>
  <speed>10.652610008819435</speed>
  <fix>3d</fix>
</trkpt>
<trkpt lat="-27.2740657" lon="151.2904353">
  <ele>371.72</ele>
  <time>2026-09-01T20:03:38Z</time>
  <course>126.25</course>
  <speed>10.66</speed>
  <fix>3d</fix>
</trkpt>
<trkpt lat="-27.2740835" lon="151.2904627">
  <ele>371.82</ele>
  <time>2026-09-01T20:03:38Z</time>
  <course>155.37</course>
  <speed>10.652610008819435</speed>
  <fix>3d</fix>
</trkpt>
<trkpt lat="-27.274077" lon="151.2904526">
  <ele>371.87</ele>
  <time>2026-09-01T20:03:38Z</time>
  <course>126.12</course>
  <speed>10.54</speed>
  <fix>3d</fix>
</trkpt>
<trkpt lat="-27.274089" lon="151.2904711">
  <ele>372.13</ele>
  <time>2026-09-01T20:03:38Z</time>
  <course>155.47</course>
  <speed>10.534903891350885</speed>
  <fix>3d</fix>
</trkpt>
<trkpt lat="-27.274077" lon="151.2904526">
  <ele>371.87</ele>
  <time>2026-09-01T20:03:38Z</time>
  <course>126.12</course>
  <speed>10.54</speed>
  <fix>3d</fix>
</trkpt>
<trkpt lat="-27.2740946" lon="151.2904797">
  <ele>371.89</ele>
  <time>2026-09-01T20:03:38Z</time>
  <course>155.51</course>
  <speed>10.534903891350885</speed>
  <fix>3d</fix>
</trkpt>
<trkpt lat="-27.2740881" lon="151.2904697">
  <ele>371.99</ele>
  <time>2026-09-01T20:03:38Z</time>
  <course>126.34</course>
  <speed>10.38</speed>
  <fix>3d</fix>
</trkpt>
<trkpt lat="-27.2741" lon="151.2904879">
  <ele>372.18</ele>
  <time>2026-09-01T20:03:38Z</time>
  <course>155.59</course>
  <speed>10.37844400669002</speed>
  <fix>3d</fix>
</trkpt>
<trkpt lat="-27.2740881" lon="151.2904697">
  <ele>371.99</ele>
  <time>2026-09-01T20:03:38Z</time>
  <course>126.34</course>
  <speed>10.38</speed>
  <fix>3d</fix>
</trkpt>
<trkpt lat="-27.2741055" lon="151.2904964">
  <ele>372.28</ele>
  <time>2026-09-01T20:03:38Z</time>
  <course>155.73</course>
  <speed>10.37844400669002</speed>
  <fix>3d</fix>
</trkpt>
<trkpt lat="-27.2740992" lon="151.2904864">
  <ele>372.1</ele>
  <time>2026-09-01T20:03:38Z</time>
  <course>126.87</course>
  <speed>10.19</speed>
  <fix>3d</fix>
</trkpt>
<trkpt lat="-27.274111" lon="151.2905042">
  <ele>372.32</ele>
  <time>2026-09-01T20:03:38Z</time>
  <course>155.87</course>
  <speed>10.186000196347926</speed>
  <fix>3d</fix>
</trkpt>
<trkpt lat="-27.2740992" lon="151.2904864">
  <ele>372.1</ele>
  <time>2026-09-01T20:03:38Z</time>
  <course>126.87</course>
  <speed>10.19</speed>
  <fix>3d</fix>
</trkpt>
<trkpt lat="-27.2741165" lon="151.2905124">
  <ele>372.15</ele>
  <time>2026-09-01T20:03:38Z</time>
  <course>156.04</course>
  <speed>10.186000196347926</speed>
  <fix>3d</fix>
</trkpt>
<trkpt lat="-27.2741101" lon="151.2905027">
  <ele>372.2</ele>
  <time>2026-09-01T20:03:38Z</time>
  <course>127.66</course>
  <speed>9.98</speed>
  <fix>3d</fix>
</trkpt>
<trkpt lat="-27.2741219" lon="151.2905199">
  <ele>372.19</ele>
  <time>2026-09-01T20:03:38Z</time>
  <course>156.27</course>
  <speed>9.980981915623332</speed>
  <fix>3d</fix>
</trkpt>
<trkpt lat="-27.2741101" lon="151.2905027">
  <ele>372.2</ele>
  <time>2026-09-01T20:03:38Z</time>
  <course>127.66</course>
  <speed>9.98</speed>
  <fix>3d</fix>
</trkpt>
<trkpt lat="-27.2741274" lon="151.2905279">
  <ele>372.32</ele>
  <time>2026-09-01T20:03:38Z</time>
  <course>156.54</course>
  <speed>9.980981915623332</speed>
  <fix>3d</fix>
</trkpt>
<trkpt lat="-27.2741211" lon="151.2905184">
  <ele>372.27</ele>
  <time>2026-09-01T20:03:38Z</time>
  <course>128.75</course>
  <speed>9.77</speed>
  <fix>3d</fix>
</trkpt>
<trkpt lat="-27.274133" lon="151.2905351">
  <ele>372.5</ele>
  <time>2026-09-01T20:03:38Z</time>
  <course>156.85</course>
  <speed>9.759313500446638</speed>
  <fix>3d</fix>
</trkpt>
<trkpt lat="-27.2741211" lon="151.2905184">
  <ele>372.27</ele>
  <time>2026-09-01T20:03:38Z</time>
  <course>128.75</course>
  <speed>9.77</speed>
  <fix>3d</fix>
</trkpt>
<trkpt lat="-27.2741385" lon="151.2905428">
  <ele>372.16</ele>
  <time>2026-09-01T20:03:38Z</time>
  <course>157.15</course>
  <speed>9.759313500446638</speed>
  <fix>3d</fix>
</trkpt>
<trkpt lat="-27.2741321" lon="151.2905334">
  <ele>372.33</ele>
  <time>2026-09-01T20:03:38Z</time>
  <course>130.16</course>
  <speed>9.54</speed>
  <fix>3d</fix>
</trkpt>
<trkpt lat="-27.2741441" lon="151.2905493">
  <ele>372.52</ele>
  <time>2026-09-01T20:03:38Z</time>
  <course>157.46</course>
  <speed>9.537641217827392</speed>
  <fix>3d</fix>
</trkpt>
<trkpt lat="-27.2741321" lon="151.2905334">
  <ele>372.33</ele>
  <time>2026-09-01T20:03:38Z</time>
  <course>130.16</course>
  <speed>9.54</speed>
  <fix>3d</fix>
</trkpt>
<trkpt lat="-27.2741496" lon="151.2905567">
  <ele>372.55</ele>
  <time>2026-09-01T20:03:38Z</time>
  <course>157.77</course>
  <speed>9.537641217827392</speed>
  <fix>3d</fix>
</trkpt>
<trkpt lat="-27.2741432" lon="151.2905478">
  <ele>372.37</ele>
  <time>2026-09-01T20:03:38Z</time>
  <course>131.86</course>
  <speed>9.31</speed>
  <fix>3d</fix>
</trkpt>
<trkpt lat="-27.2741553" lon="151.290563">
  <ele>372.24</ele>
  <time>2026-09-01T20:03:38Z</time>
  <course>158.08</course>
  <speed>9.305321058405239</speed>
  <fix>3d</fix>
</trkpt>
<trkpt lat="-27.2741432" lon="151.2905478">
  <ele>372.37</ele>
  <time>2026-09-01T20:03:38Z</time>
  <course>131.86</course>
  <speed>9.31</speed>
  <fix>3d</fix>
</trkpt>
<trkpt lat="-27.2741609" lon="151.29057">
  <ele>372.33</ele>
  <time>2026-09-01T20:03:38Z</time>
  <course>158.45</course>
  <speed>9.305321058405239</speed>
  <fix>3d</fix>
</trkpt>
<trkpt lat="-27.2741544" lon="151.2905615">
  <ele>372.4</ele>
  <time>2026-09-01T20:03:38Z</time>
  <course>133.71</course>
  <speed>9.08</speed>
  <fix>3d</fix>
</trkpt>
<trkpt lat="-27.2741666" lon="151.2905759">
  <ele>372.57</ele>
  <time>2026-09-01T20:03:38Z</time>
  <course>158.86</course>
  <speed>9.081409582217951</speed>
  <fix>3d</fix>
</trkpt>
<trkpt lat="-27.2741544" lon="151.2905615">
  <ele>372.4</ele>
  <time>2026-09-01T20:03:38Z</time>
  <course>133.71</course>
  <speed>9.08</speed>
  <fix>3d</fix>
</trkpt>
<trkpt lat="-27.2741722" lon="151.2905825">
  <ele>372.51</ele>
  <time>2026-09-01T20:03:38Z</time>
  <course>159.29</course>
  <speed>9.081409582217951</speed>
  <fix>3d</fix>
</trkpt>
<trkpt lat="-27.2741658" lon="151.2905744">
  <ele>372.41</ele>
  <time>2026-09-01T20:03:38Z</time>
  <course>135.71</course>
  <speed>8.87</speed>
  <fix>3d</fix>
</trkpt>
<trkpt lat="-27.2741781" lon="151.2905879">
  <ele>372.38</ele>
  <time>2026-09-01T20:03:38Z</time>
  <course>159.63</course>
  <speed>8.86784077439373</speed>
  <fix>3d</fix>
</trkpt>
<trkpt lat="-27.2741658" lon="151.2905744">
  <ele>372.41</ele>
  <time>2026-09-01T20:03:38Z</time>
  <course>135.71</course>
  <speed>8.87</speed>
  <fix>3d</fix>
</trkpt>
<trkpt lat="-27.2741838" lon="151.2905942">
  <ele>372.23</ele>
  <time>2026-09-01T20:03:38Z</time>
  <course>159.98</course>
  <speed>8.86784077439373</speed>
  <fix>3d</fix>
</trkpt>
<trkpt lat="-27.2741773" lon="151.2905865">
  <ele>372.41</ele>
  <time>2026-09-01T20:03:38Z</time>
  <course>137.86</course>
  <speed>8.67</speed>
  <fix>3d</fix>
</trkpt>
<trkpt lat="-27.2741898" lon="151.2905992">
  <ele>372.58</ele>
  <time>2026-09-01T20:03:38Z</time>
  <course>160.35</course>
  <speed>8.666083313700602</speed>
  <fix>3d</fix>
</trkpt>
<trkpt lat="-27.2741773" lon="151.2905865">
  <ele>372.41</ele>
  <time>2026-09-01T20:03:38Z</time>
  <course>137.86</course>
  <speed>8.67</speed>
  <fix>3d</fix>
</trkpt>
<trkpt lat="-27.2741956" lon="151.2906051">
  <ele>372.32</ele>
  <time>2026-09-01T20:03:38Z</time>
  <course>160.74</course>
  <speed>8.666083313700602</speed>
  <fix>3d</fix>
</trkpt>
<trkpt lat="-27.2741889" lon="151.2905978">
  <ele>372.38</ele>
  <time>2026-09-01T20:03:38Z</time>
  <course>140.06</course>
  <speed>8.49</speed>
  <fix>3d</fix>
</trkpt>
<trkpt lat="-27.2742015" lon="151.2906097">
  <ele>372.32</ele>
  <time>2026-09-01T20:03:38Z</time>
  <course>161.13</course>
  <speed>8.483731490329005</speed>
  <fix>3d</fix>
</trkpt>
<trkpt lat="-27.2741889" lon="151.2905978">
  <ele>372.38</ele>
  <time>2026-09-01T20:03:38Z</time>
  <course>140.06</course>
  <speed>8.49</speed>
  <fix>3d</fix>
</trkpt>
<trkpt lat="-27.2742074" lon="151.2906152">
  <ele>372.4</ele>
  <time>2026-09-01T20:03:38Z</time>
  <course>161.46</course>
  <speed>8.483731490329005</speed>
  <fix>3d</fix>
</trkpt>
<trkpt lat="-27.2742007" lon="151.2906085">
  <ele>372.32</ele>
  <time>2026-09-01T20:03:38Z</time>
  <course>142.29</course>
  <speed>8.32</speed>
  <fix>3d</fix>
</trkpt>
<trkpt lat="-27.2742134" lon="151.2906196">
  <ele>372.13</ele>
  <time>2026-09-01T20:03:38Z</time>
  <course>161.8</course>
  <speed>8.318924209295334</speed>
  <fix>3d</fix>
</trkpt>
<trkpt lat="-27.2742007" lon="151.2906085">
  <ele>372.32</ele>
  <time>2026-09-01T20:03:38Z</time>
  <course>142.29</course>
  <speed>8.32</speed>
  <fix>3d</fix>
</trkpt>
<trkpt lat="-27.2742194" lon="151.2906247">
  <ele>371.99</ele>
  <time>2026-09-01T20:03:38Z</time>
  <course>162.08</course>
  <speed>8.318924209295334</speed>
  <fix>3d</fix>
</trkpt>
<trkpt lat="-27.2742126" lon="151.2906185">
  <ele>372.2</ele>
  <time>2026-09-01T20:03:38Z</time>
  <course>144.51</course>
  <speed>8.19</speed>
  <fix>3d</fix>
</trkpt>
<trkpt lat="-27.2742255" lon="151.2906288">
  <ele>372.07</ele>
  <time>2026-09-01T20:03:38Z</time>
  <course>162.11</course>
  <speed>8.188491924646442</speed>
  <fix>3d</fix>
</trkpt>
<trkpt lat="-27.2742126" lon="151.2906185">
  <ele>372.2</ele>
  <time>2026-09-01T20:03:38Z</time>
  <course>144.51</course>
  <speed>8.19</speed>
  <fix>3d</fix>
</trkpt>
<trkpt lat="-27.2742315" lon="151.2906336">
  <ele>371.8</ele>
  <time>2026-09-01T20:03:38Z</time>
  <course>162.06</course>
  <speed>8.188491924646442</speed>
  <fix>3d</fix>
</trkpt>
<trkpt lat="-27.2742247" lon="151.2906277">
  <ele>372.01</ele>
  <time>2026-09-01T20:03:38Z</time>
  <course>146.95</course>
  <speed>8.12</speed>
  <fix>3d</fix>
</trkpt>
<trkpt lat="-27.2742379" lon="151.2906373">
  <ele>371.72</ele>
  <time>2026-09-01T20:03:38Z</time>
  <course>162.06</course>
  <speed>8.124099950148324</speed>
  <fix>3d</fix>
</trkpt>
<trkpt lat="-27.2742247" lon="151.2906277">
  <ele>372.01</ele>
  <time>2026-09-01T20:03:38Z</time>
  <course>146.95</course>
  <speed>8.12</speed>
  <fix>3d</fix>
</trkpt>
<trkpt lat="-27.274244" lon="151.2906418">
  <ele>371.49</ele>
  <time>2026-09-01T20:03:38Z</time>
  <course>162.18</course>
  <speed>8.124099950148324</speed>
  <fix>3d</fix>
</trkpt>
<trkpt lat="-27.2742372" lon="151.2906365">
  <ele>371.74</ele>
  <time>2026-09-01T20:03:38Z</time>
  <course>149.54</course>
  <speed>8.15</speed>
  <fix>3d</fix>
</trkpt>
<trkpt lat="-27.2742508" lon="151.2906455">
  <ele>371.43</ele>
  <time>2026-09-01T20:03:38Z</time>
  <course>162.7</course>
  <speed>8.153391932196072</speed>
  <fix>3d</fix>
</trkpt>
<trkpt lat="-27.2742372" lon="151.2906365">
  <ele>371.74</ele>
  <time>2026-09-01T20:03:38Z</time>
  <course>149.54</course>
  <speed>8.15</speed>
  <fix>3d</fix>
</trkpt>
<trkpt lat="-27.2742571" lon="151.2906497">
  <ele>371.06</ele>
  <time>2026-09-01T20:03:38Z</time>
  <course>163.32</course>
  <speed>8.153391932196072</speed>
  <fix>3d</fix>
</trkpt>
<trkpt lat="-27.27425" lon="151.2906444">
  <ele>371.38</ele>
  <time>2026-09-01T20:03:38Z</time>
  <course>152.54</course>
  <speed>8.19</speed>
  <fix>3d</fix>
</trkpt>
<trkpt lat="-27.2742641" lon="151.2906526">
  <ele>371.13</ele>
  <time>2026-09-01T20:03:38Z</time>
  <course>164.01</course>
  <speed>8.18937116022958</speed>
  <fix>3d</fix>
</trkpt>
<trkpt lat="-27.27425" lon="151.2906444">
  <ele>371.38</ele>
  <time>2026-09-01T20:03:38Z</time>
  <course>152.54</course>
  <speed>8.19</speed>
  <fix>3d</fix>
</trkpt>
<trkpt lat="-27.2742707" lon="151.2906565">
  <ele>370.99</ele>
  <time>2026-09-01T20:03:38Z</time>
  <course>164.77</course>
  <speed>8.18937116022958</speed>
  <fix>3d</fix>
</trkpt>
<trkpt lat="-27.2742632" lon="151.2906516">
  <ele>371.01</ele>
  <time>2026-09-01T20:03:38Z</time>
  <course>156.64</course>
  <speed>8.19</speed>
  <fix>3d</fix>
</trkpt>
<trkpt lat="-27.2742778" lon="151.2906587">
  <ele>370.56</ele>
  <time>2026-09-01T20:03:38Z</time>
  <course>165.56</course>
  <speed>8.18828431357876</speed>
  <fix>3d</fix>
</trkpt>
<trkpt lat="-27.2742632" lon="151.2906516">
  <ele>371.01</ele>
  <time>2026-09-01T20:03:38Z</time>
  <course>156.64</course>
  <speed>8.19</speed>
  <fix>3d</fix>
</trkpt>
<trkpt lat="-27.2742846" lon="151.290662">
  <ele>370.48</ele>
  <time>2026-09-01T20:03:38Z</time>
  <course>166.41</course>
  <speed>8.18828431357876</speed>
  <fix>3d</fix>
</trkpt>
<trkpt lat="-27.2742771" lon="151.2906575">
  <ele>370.66</ele>
  <time>2026-09-01T20:03:38Z</time>
  <course>161.77</course>
  <speed>8.27</speed>
  <fix>3d</fix>
</trkpt>
<trkpt lat="-27.2742924" lon="151.2906631">
  <ele>370.49</ele>
  <time>2026-09-01T20:03:38Z</time>
  <course>167.33</course>
  <speed>8.272605393707595</speed>
  <fix>3d</fix>
</trkpt>
<trkpt lat="-27.2742771" lon="151.2906575">
  <ele>370.66</ele>
  <time>2026-09-01T20:03:38Z</time>
  <course>161.77</course>
  <speed>8.27</speed>
  <fix>3d</fix>
</trkpt>
<trkpt lat="-27.2742994" lon="151.2906657">
  <ele>370.41</ele>
  <time>2026-09-01T20:03:38Z</time>
  <course>168.37</course>
  <speed>8.272605393707595</speed>
  <fix>3d</fix>
</trkpt>
<trkpt lat="-27.2742916" lon="151.290662">
  <ele>370.36</ele>
  <time>2026-09-01T20:03:38Z</time>
  <course>167.42</course>
  <speed>8.49</speed>
  <fix>3d</fix>
</trkpt>
<trkpt lat="-27.2743077" lon="151.290666">
  <ele>369.94</ele>
  <time>2026-09-01T20:03:38Z</time>
  <course>169.52</course>
  <speed>8.481980900709457</speed>
  <fix>3d</fix>
</trkpt>
<trkpt lat="-27.2742916" lon="151.290662">
  <ele>370.36</ele>
  <time>2026-09-01T20:03:38Z</time>
  <course>167.42</course>
  <speed>8.49</speed>
  <fix>3d</fix>
</trkpt>
<trkpt lat="-27.2743152" lon="151.2906679">
  <ele>369.9</ele>
  <time>2026-09-01T20:03:38Z</time>
  <course>170.64</course>
  <speed>8.481980900709457</speed>
  <fix>3d</fix>
</trkpt>
<trkpt lat="-27.2743068" lon="151.2906649">
  <ele>370.09</ele>
  <time>2026-09-01T20:03:38Z</time>
  <course>173.09</course>
  <speed>8.75</speed>
  <fix>3d</fix>
</trkpt>
<trkpt lat="-27.2743237" lon="151.2906672">
  <ele>370.08</ele>
  <time>2026-09-01T20:03:38Z</time>
  <course>171.77</course>
  <speed>8.753205127266241</speed>
  <fix>3d</fix>
</trkpt>
<trkpt lat="-27.2743068" lon="151.2906649">
  <ele>370.09</ele>
  <time>2026-09-01T20:03:38Z</time>
  <course>173.09</course>
  <speed>8.75</speed>
  <fix>3d</fix>
</trkpt>
<trkpt lat="-27.2743315" lon="151.2906682">
  <ele>369.8</ele>
  <time>2026-09-01T20:03:38Z</time>
  <course>172.79</course>
  <speed>8.753205127266241</speed>
  <fix>3d</fix>
</trkpt>
<trkpt lat="-27.2743227" lon="151.2906663">
  <ele>369.88</ele>
  <time>2026-09-01T20:03:38Z</time>
  <course>177.87</course>
  <speed>8.89</speed>
  <fix>3d</fix>
</trkpt>
<trkpt lat="-27.27434" lon="151.290667">
  <ele>369.92</ele>
  <time>2026-09-01T20:03:38Z</time>
  <course>173.51</course>
  <speed>8.885763895130232</speed>
  <fix>3d</fix>
</trkpt>
<trkpt lat="-27.2743227" lon="151.2906663">
  <ele>369.88</ele>
  <time>2026-09-01T20:03:38Z</time>
  <course>177.87</course>
  <speed>8.89</speed>
  <fix>3d</fix>
</trkpt>
<trkpt lat="-27.2743479" lon="151.2906673">
  <ele>369.61</ele>
  <time>2026-09-01T20:03:38Z</time>
  <course>173.95</course>
  <speed>8.885763895130232</speed>
  <fix>3d</fix>
</trkpt>
<trkpt lat="-27.2743386" lon="151.2906664">
  <ele>369.75</ele>
  <time>2026-09-01T20:03:38Z</time>
  <course>181.48</course>
  <speed>8.77</speed>
  <fix>3d</fix>
</trkpt>
<trkpt lat="-27.2743557" lon="151.2906659">
  <ele>369.64</ele>
  <time>2026-09-01T20:03:38Z</time>
  <course>174.24</course>
  <speed>8.772758973093925</speed>
  <fix>3d</fix>
</trkpt>
<trkpt lat="-27.2743386" lon="151.2906664">
  <ele>369.75</ele>
  <time>2026-09-01T20:03:38Z</time>
  <course>181.48</course>
  <speed>8.77</speed>
  <fix>3d</fix>
</trkpt>
<trkpt lat="-27.2743635" lon="151.2906657">
  <ele>369.81</ele>
  <time>2026-09-01T20:03:38Z</time>
  <course>174.48</course>
  <speed>8.772758973093925</speed>
  <fix>3d</fix>
</trkpt>
<trkpt lat="-27.274354" lon="151.2906656">
  <ele>369.72</ele>
  <time>2026-09-01T20:03:38Z</time>
  <course>184.34</course>
  <speed>8.43</speed>
  <fix>3d</fix>
</trkpt>
<trkpt lat="-27.2743703" lon="151.2906642">
  <ele>369.94</ele>
  <time>2026-09-01T20:03:38Z</time>
  <course>174.75</course>
  <speed>8.4335638967165</speed>
  <fix>3d</fix>
</trkpt>
<trkpt lat="-27.274354" lon="151.2906656">
  <ele>369.72</ele>
  <time>2026-09-01T20:03:38Z</time>
  <course>184.34</course>
  <speed>8.43</speed>
  <fix>3d</fix>
</trkpt>
<trkpt lat="-27.2743778" lon="151.2906636">
  <ele>369.8</ele>
  <time>2026-09-01T20:03:38Z</time>
  <course>175.06</course>
  <speed>8.4335638967165</speed>
  <fix>3d</fix>
</trkpt>
<trkpt lat="-27.2743687" lon="151.2906639">
  <ele>369.8</ele>
  <time>2026-09-01T20:03:38Z</time>
  <course>186.66</course>
  <speed>7.96</speed>
  <fix>3d</fix>
</trkpt>
<trkpt lat="-27.274384" lon="151.2906619">
  <ele>370.01</ele>
  <time>2026-09-01T20:03:38Z</time>
  <course>175.4</course>
  <speed>7.963322171053988</speed>
  <fix>3d</fix>
</trkpt>
<trkpt lat="-27.2743687" lon="151.2906639">
  <ele>369.8</ele>
  <time>2026-09-01T20:03:38Z</time>
  <course>186.66</course>
  <speed>7.96</speed>
  <fix>3d</fix>
</trkpt>
<trkpt lat="-27.2743911" lon="151.290661">
  <ele>369.85</ele>
  <time>2026-09-01T20:03:38Z</time>
  <course>175.76</course>
  <speed>7.963322171053988</speed>
  <fix>3d</fix>
</trkpt>
<trkpt lat="-27.2743825" lon="151.2906618">
  <ele>369.99</ele>
  <time>2026-09-01T20:03:38Z</time>
  <course>188.67</course>
  <speed>7.43</speed>
  <fix>3d</fix>
</trkpt>
<trkpt lat="-27.2743968" lon="151.2906594">
  <ele>370.32</ele>
  <time>2026-09-01T20:03:38Z</time>
  <course>176.12</course>
  <speed>7.424957912338629</speed>
  <fix>3d</fix>
</trkpt>
<trkpt lat="-27.2743825" lon="151.2906618">
  <ele>369.99</ele>
  <time>2026-09-01T20:03:38Z</time>
  <course>188.67</course>
  <speed>7.43</speed>
  <fix>3d</fix>
</trkpt>
<trkpt lat="-27.2744034" lon="151.2906583">
  <ele>370.34</ele>
  <time>2026-09-01T20:03:38Z</time>
  <course>176.47</course>
  <speed>7.424957912338629</speed>
  <fix>3d</fix>
</trkpt>
<trkpt lat="-27.2743951" lon="151.2906595">
  <ele>370.27</ele>
  <time>2026-09-01T20:03:38Z</time>
  <course>190.67</course>
  <speed>6.84</speed>
  <fix>3d</fix>
</trkpt>
<trkpt lat="-27.2744082" lon="151.2906568">
  <ele>370.71</ele>
  <time>2026-09-01T20:03:38Z</time>
  <course>176.84</course>
  <speed>6.837104650361876</speed>
  <fix>3d</fix>
</trkpt>
<trkpt lat="-27.2743951" lon="151.2906595">
  <ele>370.27</ele>
  <time>2026-09-01T20:03:38Z</time>
  <course>190.67</course>
  <speed>6.84</speed>
  <fix>3d</fix>
</trkpt>
<trkpt lat="-27.2744142" lon="151.2906555">
  <ele>370.66</ele>
  <time>2026-09-01T20:03:38Z</time>
  <course>177.21</course>
  <speed>6.837104650361876</speed>
  <fix>3d</fix>
</trkpt>
<trkpt lat="-27.2744066" lon="151.2906568">
  <ele>370.64</ele>
  <time>2026-09-01T20:03:38Z</time>
  <course>192.98</course>
  <speed>6.21</speed>
  <fix>3d</fix>
</trkpt>
<trkpt lat="-27.2744184" lon="151.2906538">
  <ele>370.92</ele>
  <time>2026-09-01T20:03:38Z</time>
  <course>177.58</course>
  <speed>6.217370826965366</speed>
  <fix>3d</fix>
</trkpt>
<trkpt lat="-27.2744066" lon="151.2906568">
  <ele>370.64</ele>
  <time>2026-09-01T20:03:38Z</time>
  <course>192.98</course>
  <speed>6.21</speed>
  <fix>3d</fix>
</trkpt>
<trkpt lat="-27.2744238" lon="151.2906524">
  <ele>371.22</ele>
  <time>2026-09-01T20:03:38Z</time>
  <course>177.95</course>
  <speed>6.217370826965366</speed>
  <fix>3d</fix>
</trkpt>
<trkpt lat="-27.2744169" lon="151.2906538">
  <ele>371.07</ele>
  <time>2026-09-01T20:03:38Z</time>
  <course>195.85</course>
  <speed>5.56</speed>
  <fix>3d</fix>
</trkpt>
<trkpt lat="-27.2744273" lon="151.2906505">
  <ele>371.61</ele>
  <time>2026-09-01T20:03:38Z</time>
  <course>178.33</course>
  <speed>5.561735340700778</speed>
  <fix>3d</fix>
</trkpt>
<trkpt lat="-27.2744169" lon="151.2906538">
  <ele>371.07</ele>
  <time>2026-09-01T20:03:38Z</time>
  <course>195.85</course>
  <speed>5.56</speed>
  <fix>3d</fix>
</trkpt>
<trkpt lat="-27.2744321" lon="151.290649">
  <ele>371.59</ele>
  <time>2026-09-01T20:03:38Z</time>
  <course>178.68</course>
  <speed>5.561735340700778</speed>
  <fix>3d</fix>
</trkpt>
<trkpt lat="-27.2744258" lon="151.2906506">
  <ele>371.56</ele>
  <time>2026-09-01T20:03:38Z</time>
  <course>199.47</course>
  <speed>4.91</speed>
  <fix>3d</fix>
</trkpt>
<trkpt lat="-27.2744348" lon="151.2906471">
  <ele>371.81</ele>
  <time>2026-09-01T20:03:38Z</time>
  <course>179.04</course>
  <speed>4.90854357218106</speed>
  <fix>3d</fix>
</trkpt>
<trkpt lat="-27.2744258" lon="151.2906506">
  <ele>371.56</ele>
  <time>2026-09-01T20:03:38Z</time>
  <course>199.47</course>
  <speed>4.91</speed>
  <fix>3d</fix>
</trkpt>
<trkpt lat="-27.2744389" lon="151.2906454">
  <ele>372.04</ele>
  <time>2026-09-01T20:03:38Z</time>
  <course>179.38</course>
  <speed>4.90854357218106</speed>
  <fix>3d</fix>
</trkpt>
<trkpt lat="-27.2744335" lon="151.2906472">
  <ele>372.08</ele>
  <time>2026-09-01T20:03:38Z</time>
  <course>203.96</course>
  <speed>4.29</speed>
  <fix>3d</fix>
</trkpt>
<trkpt lat="-27.2744411" lon="151.2906434">
  <ele>372.33</ele>
  <time>2026-09-01T20:03:38Z</time>
  <course>179.72</course>
  <speed>4.288822682275406</speed>
  <fix>3d</fix>
</trkpt>
<trkpt lat="-27.2744335" lon="151.2906472">
  <ele>372.08</ele>
  <time>2026-09-01T20:03:38Z</time>
  <course>203.96</course>
  <speed>4.29</speed>
  <fix>3d</fix>
</trkpt>
<trkpt lat="-27.2744446" lon="151.2906417">
  <ele>372.56</ele>
  <time>2026-09-01T20:03:38Z</time>
  <course>180.06</course>
  <speed>4.288822682275406</speed>
  <fix>3d</fix>
</trkpt>
<trkpt lat="-27.2744399" lon="151.2906436">
  <ele>372.58</ele>
  <time>2026-09-01T20:03:38Z</time>
  <course>209.45</course>
  <speed>3.73</speed>
  <fix>3d</fix>
</trkpt>
<trkpt lat="-27.2744462" lon="151.2906396">
  <ele>372.95</ele>
  <time>2026-09-01T20:03:38Z</time>
  <course>180.4</course>
  <speed>3.729798922194064</speed>
  <fix>3d</fix>
</trkpt>
<trkpt lat="-27.2744399" lon="151.2906436">
  <ele>372.58</ele>
  <time>2026-09-01T20:03:38Z</time>
  <course>209.45</course>
  <speed>3.73</speed>
  <fix>3d</fix>
</trkpt>
<trkpt lat="-27.2744491" lon="151.2906378">
  <ele>373.02</ele>
  <time>2026-09-01T20:03:38Z</time>
  <course>180.73</course>
  <speed>3.729798922194064</speed>
  <fix>3d</fix>
</trkpt>
<trkpt lat="-27.2744452" lon="151.2906398">
  <ele>373.05</ele>
  <time>2026-09-01T20:03:38Z</time>
  <course>216.14</course>
  <speed>3.26</speed>
  <fix>3d</fix>
</trkpt>
<trkpt lat="-27.2744503" lon="151.2906356">
  <ele>373.2</ele>
  <time>2026-09-01T20:03:38Z</time>
  <course>181.06</course>
  <speed>3.2562708732536363</speed>
  <fix>3d</fix>
</trkpt>
<trkpt lat="-27.2744452" lon="151.2906398">
  <ele>373.05</ele>
  <time>2026-09-01T20:03:38Z</time>
  <course>216.14</course>
  <speed>3.26</speed>
  <fix>3d</fix>
</trkpt>
<trkpt lat="-27.2744527" lon="151.2906337">
  <ele>373.61</ele>
  <time>2026-09-01T20:03:38Z</time>
  <course>181.4</course>
  <speed>3.2562708732536363</speed>
  <fix>3d</fix>
</trkpt>
<trkpt lat="-27.2744494" lon="151.2906358">
  <ele>373.47</ele>
  <time>2026-09-01T20:03:38Z</time>
  <course>224.25</course>
  <speed>2.89</speed>
  <fix>3d</fix>
</trkpt>
<trkpt lat="-27.2744534" lon="151.2906314">
  <ele>373.78</ele>
  <time>2026-09-01T20:03:38Z</time>
  <course>181.77</course>
  <speed>2.885307609250702</speed>
  <fix>3d</fix>
</trkpt>
<trkpt lat="-27.2744494" lon="151.2906358">
  <ele>373.47</ele>
  <time>2026-09-01T20:03:38Z</time>
  <course>224.25</course>
  <speed>2.89</speed>
  <fix>3d</fix>
</trkpt>
<trkpt lat="-27.2744552" lon="151.2906294">
  <ele>374.06</ele>
  <time>2026-09-01T20:03:38Z</time>
  <course>182.17</course>
  <speed>2.885307609250702</speed>
  <fix>3d</fix>
</trkpt>
<trkpt lat="-27.2744527" lon="151.2906316">
  <ele>373.82</ele>
  <time>2026-09-01T20:03:38Z</time>
  <course>233.76</course>
  <speed>2.64</speed>
  <fix>3d</fix>
</trkpt>
<trkpt lat="-27.2744557" lon="151.290627">
  <ele>374.15</ele>
  <time>2026-09-01T20:03:38Z</time>
  <course>182.63</course>
  <speed>2.640170449043016</speed>
  <fix>3d</fix>
</trkpt>
<trkpt lat="-27.2744527" lon="151.2906316">
  <ele>373.82</ele>
  <time>2026-09-01T20:03:38Z</time>
  <course>233.76</course>
  <speed>2.64</speed>
  <fix>3d</fix>
</trkpt>
<trkpt lat="-27.2744571" lon="151.2906248">
  <ele>374.31</ele>
  <time>2026-09-01T20:03:38Z</time>
  <course>183.15</course>
  <speed>2.640170449043016</speed>
  <fix>3d</fix>
</trkpt>
<trkpt lat="-27.2744551" lon="151.2906272">
  <ele>374.09</ele>
  <time>2026-09-01T20:03:38Z</time>
  <course>243.98</course>
  <speed>2.53</speed>
  <fix>3d</fix>
</trkpt>
<trkpt lat="-27.2744572" lon="151.2906223">
  <ele>374.15</ele>
  <time>2026-09-01T20:03:38Z</time>
  <course>183.75</course>
  <speed>2.5358430550804996</speed>
  <fix>3d</fix>
</trkpt>
<trkpt lat="-27.2744551" lon="151.2906272">
  <ele>374.09</ele>
  <time>2026-09-01T20:03:38Z</time>
  <course>243.98</course>
  <speed>2.53</speed>
  <fix>3d</fix>
</trkpt>
<trkpt lat="-27.2744582" lon="151.29062">
  <ele>374.2</ele>
  <time>2026-09-01T20:03:38Z</time>
  <course>184.4</course>
  <speed>2.5358430550804996</speed>
  <fix>3d</fix>
</trkpt>
<trkpt lat="-27.2744567" lon="151.2906224">
  <ele>374.26</ele>
  <time>2026-09-01T20:03:38Z</time>
  <course>253.67</course>
  <speed>2.57</speed>
  <fix>3d</fix>
</trkpt>
<trkpt lat="-27.2744581" lon="151.2906171">
  <ele>374.41</ele>
  <time>2026-09-01T20:03:38Z</time>
  <course>185.13</course>
  <speed>2.563201123595259</speed>
  <fix>3d</fix>
</trkpt>
<trkpt lat="-27.2744567" lon="151.2906224">
  <ele>374.26</ele>
  <time>2026-09-01T20:03:38Z</time>
  <course>253.67</course>
  <speed>2.57</speed>
  <fix>3d</fix>
</trkpt>
<trkpt lat="-27.2744587" lon="151.2906146">
  <ele>374.17</ele>
  <time>2026-09-01T20:03:38Z</time>
  <course>185.89</course>
  <speed>2.563201123595259</speed>
  <fix>3d</fix>
</trkpt>
<trkpt lat="-27.2744577" lon="151.2906171">
  <ele>374.34</ele>
  <time>2026-09-01T20:03:38Z</time>
  <course>261.72</course>
  <speed>2.72</speed>
  <fix>3d</fix>
</trkpt>
<trkpt lat="-27.2744584" lon="151.2906113">
  <ele>374.36</ele>
  <time>2026-09-01T20:03:38Z</time>
  <course>186.7</course>
  <speed>2.718124353299532</speed>
  <fix>3d</fix>
</trkpt>
<trkpt lat="-27.2744577" lon="151.2906171">
  <ele>374.34</ele>
  <time>2026-09-01T20:03:38Z</time>
  <course>261.72</course>
  <speed>2.72</speed>
  <fix>3d</fix>
</trkpt>
<trkpt lat="-27.2744588" lon="151.2906085">
  <ele>374.49</ele>
  <time>2026-09-01T20:03:38Z</time>
  <course>187.54</course>
  <speed>2.718124353299532</speed>
  <fix>3d</fix>
</trkpt>
<trkpt lat="-27.2744582" lon="151.2906114">
  <ele>374.33</ele>
  <time>2026-09-01T20:03:38Z</time>
  <course>267.67</course>
  <speed>2.95</speed>
  <fix>3d</fix>
</trkpt>
<trkpt lat="-27.2744584" lon="151.290605">
  <ele>374.39</ele>
  <time>2026-09-01T20:03:38Z</time>
  <course>188.43</course>
  <speed>2.9524396691549857</speed>
  <fix>3d</fix>
</trkpt>
<trkpt lat="-27.2744582" lon="151.2906114">
  <ele>374.33</ele>
  <time>2026-09-01T20:03:38Z</time>
  <course>267.67</course>
  <speed>2.95</speed>
  <fix>3d</fix>
</trkpt>
<trkpt lat="-27.2744585" lon="151.290602">
  <ele>374.33</ele>
  <time>2026-09-01T20:03:38Z</time>
  <course>189.4</course>
  <speed>2.9524396691549857</speed>
  <fix>3d</fix>
</trkpt>
<trkpt lat="-27.2744582" lon="151.2906051">
  <ele>374.2</ele>
  <time>2026-09-01T20:03:38Z</time>
  <course>271.58</course>
  <speed>3.24</speed>
  <fix>3d</fix>
</trkpt>
<trkpt lat="-27.2744581" lon="151.290598">
  <ele>374.01</ele>
  <time>2026-09-01T20:03:38Z</time>
  <course>190.52</course>
  <speed>3.2409875038327436</speed>
  <fix>3d</fix>
</trkpt>
<trkpt lat="-27.2744582" lon="151.2906051">
  <ele>374.2</ele>
  <time>2026-09-01T20:03:38Z</time>
  <course>271.58</course>
  <speed>3.24</speed>
  <fix>3d</fix>
</trkpt>
<trkpt lat="-27.274458" lon="151.2905947">
  <ele>373.89</ele>
  <time>2026-09-01T20:03:38Z</time>
  <course>191.74</course>
  <speed>3.2409875038327436</speed>
  <fix>3d</fix>
</trkpt>
<trkpt lat="-27.2744579" lon="151.2905983">
  <ele>373.96</ele>
  <time>2026-09-01T20:03:38Z</time>
  <course>273.79</course>
  <speed>3.55</speed>
  <fix>3d</fix>
</trkpt>
<trkpt lat="-27.2744575" lon="151.2905906">
  <ele>373.56</ele>
  <time>2026-09-01T20:03:38Z</time>
  <course>193.01</course>
  <speed>3.547463882832354</speed>
  <fix>3d</fix>
</trkpt>
<trkpt lat="-27.2744579" lon="151.2905983">
  <ele>373.96</ele>
  <time>2026-09-01T20:03:38Z</time>
  <course>273.79</course>
  <speed>3.55</speed>
  <fix>3d</fix>
</trkpt>
<trkpt lat="-27.2744573" lon="151.290587">
  <ele>373.5</ele>
  <time>2026-09-01T20:03:38Z</time>
  <course>194.25</course>
  <speed>3.547463882832354</speed>
  <fix>3d</fix>
</trkpt>
<trkpt lat="-27.2744575" lon="151.2905908">
  <ele>373.64</ele>
  <time>2026-09-01T20:03:38Z</time>
  <course>274.72</course>
  <speed>3.87</speed>
  <fix>3d</fix>
</trkpt>
<trkpt lat="-27.2744569" lon="151.2905824">
  <ele>373.14</ele>
  <time>2026-09-01T20:03:38Z</time>
  <course>195.43</course>
  <speed>3.8724281788046113</speed>
  <fix>3d</fix>
</trkpt>
<trkpt lat="-27.2744575" lon="151.2905908">
  <ele>373.64</ele>
  <time>2026-09-01T20:03:38Z</time>
  <course>274.72</course>
  <speed>3.87</speed>
  <fix>3d</fix>
</trkpt>
<trkpt lat="-27.2744566" lon="151.2905785">
  <ele>373.19</ele>
  <time>2026-09-01T20:03:38Z</time>
  <course>196.5</course>
  <speed>3.8724281788046113</speed>
  <fix>3d</fix>
</trkpt>
<trkpt lat="-27.2744568" lon="151.2905826">
  <ele>373.23</ele>
  <time>2026-09-01T20:03:38Z</time>
  <course>274.73</course>
  <speed>4.21</speed>
  <fix>3d</fix>
</trkpt>
<trkpt lat="-27.2744562" lon="151.2905734">
  <ele>372.95</ele>
  <time>2026-09-01T20:03:38Z</time>
  <course>197.43</course>
  <speed>4.203772115612358</speed>
  <fix>3d</fix>
</trkpt>
<trkpt lat="-27.2744568" lon="151.2905826">
  <ele>373.23</ele>
  <time>2026-09-01T20:03:38Z</time>
  <course>274.73</course>
  <speed>4.21</speed>
  <fix>3d</fix>
</trkpt>
<trkpt lat="-27.2744559" lon="151.2905692">
  <ele>372.49</ele>
  <time>2026-09-01T20:03:38Z</time>
  <course>198.22</course>
  <speed>4.203772115612358</speed>
  <fix>3d</fix>
</trkpt>
<trkpt lat="-27.2744563" lon="151.2905738">
  <ele>372.77</ele>
  <time>2026-09-01T20:03:38Z</time>
  <course>274.16</course>
  <speed>4.53</speed>
  <fix>3d</fix>
</trkpt>
<trkpt lat="-27.2744557" lon="151.2905639">
  <ele>372.22</ele>
  <time>2026-09-01T20:03:38Z</time>
  <course>198.87</course>
  <speed>4.531313275420273</speed>
  <fix>3d</fix>
</trkpt>
<trkpt lat="-27.2744563" lon="151.2905738">
  <ele>372.77</ele>
  <time>2026-09-01T20:03:38Z</time>
  <course>274.16</course>
  <speed>4.53</speed>
  <fix>3d</fix>
</trkpt>
<trkpt lat="-27.2744554" lon="151.2905594">
  <ele>372.06</ele>
  <time>2026-09-01T20:03:38Z</time>
  <course>199.42</course>
  <speed>4.531313275420273</speed>
  <fix>3d</fix>
</trkpt>
<trkpt lat="-27.2744557" lon="151.2905644">
  <ele>372.28</ele>
  <time>2026-09-01T20:03:38Z</time>
  <course>273.26</course>
  <speed>4.83</speed>
  <fix>3d</fix>
</trkpt>
<trkpt lat="-27.2744552" lon="151.2905539">
  <ele>371.9</ele>
  <time>2026-09-01T20:03:38Z</time>
  <course>199.89</course>
  <speed>4.8375406975032265</speed>
  <fix>3d</fix>
</trkpt>
<trkpt lat="-27.2744557" lon="151.2905644">
  <ele>372.28</ele>
  <time>2026-09-01T20:03:38Z</time>
  <course>273.26</course>
  <speed>4.83</speed>
  <fix>3d</fix>
</trkpt>
<trkpt lat="-27.274455" lon="151.290549">
  <ele>371.47</ele>
  <time>2026-09-01T20:03:38Z</time>
  <course>200.31</course>
  <speed>4.8375406975032265</speed>
  <fix>3d</fix>
</trkpt>
<trkpt lat="-27.2744553" lon="151.2905543">
  <ele>371.79</ele>
  <time>2026-09-01T20:03:38Z</time>
  <course>272.2</course>
  <speed>5.1</speed>
  <fix>3d</fix>
</trkpt>
<trkpt lat="-27.274455" lon="151.2905432">
  <ele>371.39</ele>
  <time>2026-09-01T20:03:38Z</time>
  <course>200.7</course>
  <speed>5.103537988493865</speed>
  <fix>3d</fix>
</trkpt>
<trkpt lat="-27.2744553" lon="151.2905543">
  <ele>371.79</ele>
  <time>2026-09-01T20:03:38Z</time>
  <course>272.2</course>
  <speed>5.1</speed>
  <fix>3d</fix>
</trkpt>
<trkpt lat="-27.2744548" lon="151.290538">
  <ele>371.25</ele>
  <time>2026-09-01T20:03:38Z</time>
  <course>201.06</course>
  <speed>5.103537988493865</speed>
  <fix>3d</fix>
</trkpt>
<trkpt lat="-27.2744549" lon="151.2905438">
  <ele>371.3</ele>
  <time>2026-09-01T20:03:38Z</time>
  <course>271.1</course>
  <speed>5.33</speed>
  <fix>3d</fix>
</trkpt>
<trkpt lat="-27.2744548" lon="151.2905322">
  <ele>371.04</ele>
  <time>2026-09-01T20:03:38Z</time>
  <course>201.42</course>
  <speed>5.330938003766317</speed>
  <fix>3d</fix>
</trkpt>
<trkpt lat="-27.2744549" lon="151.2905438">
  <ele>371.3</ele>
  <time>2026-09-01T20:03:38Z</time>
  <course>271.1</course>
  <speed>5.33</speed>
  <fix>3d</fix>
</trkpt>
<trkpt lat="-27.2744547" lon="151.2905268">
  <ele>370.64</ele>
  <time>2026-09-01T20:03:38Z</time>
  <course>201.75</course>
  <speed>5.330938003766317</speed>
  <fix>3d</fix>
</trkpt>
<trkpt lat="-27.2744549" lon="151.2905328">
  <ele>370.82</ele>
  <time>2026-09-01T20:03:38Z</time>
  <course>270.03</course>
  <speed>5.52</speed>
  <fix>3d</fix>
</trkpt>
<trkpt lat="-27.2744549" lon="151.2905208">
  <ele>370.25</ele>
  <time>2026-09-01T20:03:38Z</time>
  <course>202.07</course>
  <speed>5.52</speed>
  <fix>3d</fix>
</trkpt>
<trkpt lat="-27.2744549" lon="151.2905328">
  <ele>370.82</ele>
  <time>2026-09-01T20:03:38Z</time>
  <course>270.03</course>
  <speed>5.52</speed>
  <fix>3d</fix>
</trkpt>
<trkpt lat="-27.2744549" lon="151.2905152">
  <ele>370.39</ele>
  <time>2026-09-01T20:03:38Z</time>
  <course>202.37</course>
  <speed>5.52</speed>
  <fix>3d</fix>
</trkpt>
<trkpt lat="-27.2744549" lon="151.2905214">
  <ele>370.36</ele>
  <time>2026-09-01T20:03:38Z</time>
  <course>269.06</course>
  <speed>5.68</speed>
  <fix>3d</fix>
</trkpt>
<trkpt lat="-27.274455" lon="151.2905091">
  <ele>370.19</ele>
  <time>2026-09-01T20:03:38Z</time>
  <course>202.64</course>
  <speed>5.680712983420303</speed>
  <fix>3d</fix>
</trkpt>
<trkpt lat="-27.2744549" lon="151.2905214">
  <ele>370.36</ele>
  <time>2026-09-01T20:03:38Z</time>
  <course>269.06</course>
  <speed>5.68</speed>
  <fix>3d</fix>
</trkpt>
<trkpt lat="-27.2744551" lon="151.2905033">
  <ele>369.95</ele>
  <time>2026-09-01T20:03:38Z</time>
  <course>202.88</course>
  <speed>5.680712983420303</speed>
  <fix>3d</fix>
</trkpt>
<trkpt lat="-27.2744551" lon="151.2905098">
  <ele>369.93</ele>
  <time>2026-09-01T20:03:38Z</time>
  <course>268.21</course>
  <speed>5.8</speed>
  <fix>3d</fix>
</trkpt>
<trkpt lat="-27.2744554" lon="151.2904971">
  <ele>369.44</ele>
  <time>2026-09-01T20:03:38Z</time>
  <course>203.1</course>
  <speed>5.792797251760154</speed>
  <fix>3d</fix>
</trkpt>
<trkpt lat="-27.2744551" lon="151.2905098">
  <ele>369.93</ele>
  <time>2026-09-01T20:03:38Z</time>
  <course>268.21</course>
  <speed>5.8</speed>
  <fix>3d</fix>
</trkpt>
<trkpt lat="-27.2744556" lon="151.2904913">
  <ele>369.52</ele>
  <time>2026-09-01T20:03:38Z</time>
  <course>203.29</course>
  <speed>5.792797251760154</speed>
  <fix>3d</fix>
</trkpt>
<trkpt lat="-27.2744555" lon="151.290498">
  <ele>369.53</ele>
  <time>2026-09-01T20:03:38Z</time>
  <course>267.5</course>
  <speed>5.88</speed>
  <fix>3d</fix>
</trkpt>
<trkpt lat="-27.2744559" lon="151.2904851">
  <ele>369.23</ele>
  <time>2026-09-01T20:03:38Z</time>
  <course>203.45</course>
  <speed>5.885312226211962</speed>
  <fix>3d</fix>
</trkpt>
<trkpt lat="-27.2744555" lon="151.290498">
  <ele>369.53</ele>
  <time>2026-09-01T20:03:38Z</time>
  <course>267.5</course>
  <speed>5.88</speed>
  <fix>3d</fix>
</trkpt>
<trkpt lat="-27.2744562" lon="151.2904792">
  <ele>369.15</ele>
  <time>2026-09-01T20:03:38Z</time>
  <course>203.59</course>
  <speed>5.885312226211962</speed>
  <fix>3d</fix>
</trkpt>
<trkpt lat="-27.2744561" lon="151.2904861">
  <ele>369.15</ele>
  <time>2026-09-01T20:03:38Z</time>
  <course>266.91</course>
  <speed>5.95</speed>
  <fix>3d</fix>
</trkpt>
<trkpt lat="-27.2744567" lon="151.2904731">
  <ele>368.68</ele>
  <time>2026-09-01T20:03:38Z</time>
  <course>203.7</course>
  <speed>5.948613283783036</speed>
  <fix>3d</fix>
</trkpt>
<trkpt lat="-27.2744561" lon="151.2904861">
  <ele>369.15</ele>
  <time>2026-09-01T20:03:38Z</time>
  <course>266.91</course>
  <speed>5.95</speed>
  <fix>3d</fix>
</trkpt>
<trkpt lat="-27.274457" lon="151.2904671">
  <ele>368.82</ele>
  <time>2026-09-01T20:03:38Z</time>
  <course>203.79</course>
  <speed>5.948613283783036</speed>
  <fix>3d</fix>
</trkpt>
<trkpt lat="-27.2744567" lon="151.290474">
  <ele>368.79</ele>
  <time>2026-09-01T20:03:38Z</time>
  <course>266.42</course>
  <speed>5.98</speed>
  <fix>3d</fix>
</trkpt>
<trkpt lat="-27.2744574" lon="151.2904609">
  <ele>368.53</ele>
  <time>2026-09-01T20:03:38Z</time>
  <course>203.85</course>
  <speed>5.981454672569207</speed>
  <fix>3d</fix>
</trkpt>
<trkpt lat="-27.2744567" lon="151.290474">
  <ele>368.79</ele>
  <time>2026-09-01T20:03:38Z</time>
  <course>266.42</course>
  <speed>5.98</speed>
  <fix>3d</fix>
</trkpt>
<trkpt lat="-27.2744577" lon="151.2904548">
  <ele>368.51</ele>
  <time>2026-09-01T20:03:38Z</time>
  <course>203.9</course>
  <speed>5.981454672569207</speed>
  <fix>3d</fix>
</trkpt>
<trkpt lat="-27.2744574" lon="151.2904619">
  <ele>368.45</ele>
  <time>2026-09-01T20:03:38Z</time>
  <course>266.04</course>
  <speed>6.0</speed>
  <fix>3d</fix>
</trkpt>
<trkpt lat="-27.2744582" lon="151.2904488">
  <ele>368.15</ele>
  <time>2026-09-01T20:03:38Z</time>
  <course>203.93</course>
  <speed>5.994038705247073</speed>
  <fix>3d</fix>
</trkpt>
<trkpt lat="-27.2744574" lon="151.2904619">
  <ele>368.45</ele>
  <time>2026-09-01T20:03:38Z</time>
  <course>266.04</course>
  <speed>6.0</speed>
  <fix>3d</fix>
</trkpt>
<trkpt lat="-27.2744585" lon="151.2904428">
  <ele>367.97</ele>
  <time>2026-09-01T20:03:38Z</time>
  <course>203.95</course>
  <speed>5.994038705247073</speed>
  <fix>3d</fix>
</trkpt>
<trkpt lat="-27.2744582" lon="151.2904498">
  <ele>368.14</ele>
  <time>2026-09-01T20:03:38Z</time>
  <course>265.73</course>
  <speed>5.99</speed>
  <fix>3d</fix>
</trkpt>
<trkpt lat="-27.274459" lon="151.2904367">
  <ele>368.05</ele>
  <time>2026-09-01T20:03:38Z</time>
  <course>203.95</course>
  <speed>5.996165441346661</speed>
  <fix>3d</fix>
</trkpt>
<trkpt lat="-27.2744582" lon="151.2904498">
  <ele>368.14</ele>
  <time>2026-09-01T20:03:38Z</time>
  <course>265.73</course>
  <speed>5.99</speed>
  <fix>3d</fix>
</trkpt>
<trkpt lat="-27.2744594" lon="151.2904307">
  <ele>367.69</ele>
  <time>2026-09-01T20:03:38Z</time>
  <course>203.93</course>
  <speed>5.996165441346661</speed>
  <fix>3d</fix>
</trkpt>
<trkpt lat="-27.274459" lon="151.2904377">
  <ele>367.84</ele>
  <time>2026-09-01T20:03:38Z</time>
  <course>265.49</course>
  <speed>5.98</speed>
  <fix>3d</fix>
</trkpt>
<trkpt lat="-27.2744599" lon="151.2904247">
  <ele>367.62</ele>
  <time>2026-09-01T20:03:38Z</time>
  <course>203.91</course>
  <speed>5.9785031571456075</speed>
  <fix>3d</fix>
</trkpt>
<trkpt lat="-27.274459" lon="151.2904377">
  <ele>367.84</ele>
  <time>2026-09-01T20:03:38Z</time>
  <course>265.49</course>
  <speed>5.98</speed>
  <fix>3d</fix>
</trkpt>
<trkpt lat="-27.2744603" lon="151.2904187">
  <ele>367.45</ele>
  <time>2026-09-01T20:03:38Z</time>
  <course>203.88</course>
  <speed>5.9785031571456075</speed>
  <fix>3d</fix>
</trkpt>
<trkpt lat="-27.2744598" lon="151.2904257">
  <ele>367.56</ele>
  <time>2026-09-01T20:03:38Z</time>
  <course>265.3</course>
  <speed>5.94</speed>
  <fix>3d</fix>
</trkpt>
<trkpt lat="-27.2744607" lon="151.2904128">
  <ele>367.34</ele>
  <time>2026-09-01T20:03:38Z</time>
  <course>203.83</course>
  <speed>5.939427581846587</speed>
  <fix>3d</fix>
</trkpt>
<trkpt lat="-27.2744598" lon="151.2904257">
  <ele>367.56</ele>
  <time>2026-09-01T20:03:38Z</time>
  <course>265.3</course>
  <speed>5.94</speed>
  <fix>3d</fix>
</trkpt>
<trkpt lat="-27.2744611" lon="151.2904068">
  <ele>367.12</ele>
  <time>2026-09-01T20:03:38Z</time>
  <course>203.78</course>
  <speed>5.939427581846587</speed>
  <fix>3d</fix>
</trkpt>
<trkpt lat="-27.2744607" lon="151.2904138">
  <ele>367.29</ele>
  <time>2026-09-01T20:03:38Z</time>
  <course>265.18</course>
  <speed>5.9</speed>
  <fix>3d</fix>
</trkpt>
<trkpt lat="-27.2744616" lon="151.290401">
  <ele>367.01</ele>
  <time>2026-09-01T20:03:38Z</time>
  <course>203.72</course>
  <speed>5.900381343608225</speed>
  <fix>3d</fix>
</trkpt>
<trkpt lat="-27.2744607" lon="151.2904138">
  <ele>367.29</ele>
  <time>2026-09-01T20:03:38Z</time>
  <course>265.18</course>
  <speed>5.9</speed>
  <fix>3d</fix>
</trkpt>
<trkpt lat="-27.2744621" lon="151.2903951">
  <ele>367.05</ele>
  <time>2026-09-01T20:03:38Z</time>
  <course>203.66</course>
  <speed>5.900381343608225</speed>
  <fix>3d</fix>
</trkpt>
<trkpt lat="-27.2744616" lon="151.2904019">
  <ele>367.03</ele>
  <time>2026-09-01T20:03:38Z</time>
  <course>265.1</course>
  <speed>5.84</speed>
  <fix>3d</fix>
</trkpt>
<trkpt lat="-27.2744625" lon="151.2903892">
  <ele>366.77</ele>
  <time>2026-09-01T20:03:38Z</time>
  <course>203.59</course>
  <speed>5.8405907235484325</speed>
  <fix>3d</fix>
</trkpt>
<trkpt lat="-27.2744616" lon="151.2904019">
  <ele>367.03</ele>
  <time>2026-09-01T20:03:38Z</time>
  <course>265.1</course>
  <speed>5.84</speed>
  <fix>3d</fix>
</trkpt>
<trkpt lat="-27.274463" lon="151.2903833">
  <ele>366.57</ele>
  <time>2026-09-01T20:03:38Z</time>
  <course>203.51</course>
  <speed>5.8405907235484325</speed>
  <fix>3d</fix>
</trkpt>
<trkpt lat="-27.2744625" lon="151.2903902">
  <ele>366.79</ele>
  <time>2026-09-01T20:03:38Z</time>
  <course>265.07</course>
  <speed>5.78</speed>
  <fix>3d</fix>
</trkpt>
<trkpt lat="-27.2744634" lon="151.2903777">
  <ele>366.49</ele>
  <time>2026-09-01T20:03:38Z</time>
  <course>203.43</course>
  <speed>5.780804442290017</speed>
  <fix>3d</fix>
</trkpt>
<trkpt lat="-27.2744625" lon="151.2903902">
  <ele>366.79</ele>
  <time>2026-09-01T20:03:38Z</time>
  <course>265.07</course>
  <speed>5.78</speed>
  <fix>3d</fix>
</trkpt>
<trkpt lat="-27.2744639" lon="151.2903718">
  <ele>366.6</ele>
  <time>2026-09-01T20:03:38Z</time>
  <course>203.34</course>
  <speed>5.780804442290017</speed>
  <fix>3d</fix>
</trkpt>
<trkpt lat="-27.2744634" lon="151.2903786">
  <ele>366.55</ele>
  <time>2026-09-01T20:03:38Z</time>
  <course>265.08</course>
  <speed>5.72</speed>
  <fix>3d</fix>
</trkpt>
<trkpt lat="-27.2744643" lon="151.2903662">
  <ele>366.46</ele>
  <time>2026-09-01T20:03:38Z</time>
  <course>203.25</course>
  <speed>5.710210153750911</speed>
  <fix>3d</fix>
</trkpt>
<trkpt lat="-27.2744634" lon="151.2903786">
  <ele>366.55</ele>
  <time>2026-09-01T20:03:38Z</time>
  <course>265.08</course>
  <speed>5.72</speed>
  <fix>3d</fix>
</trkpt>
<trkpt lat="-27.2744647" lon="151.2903604">
  <ele>366.27</ele>
  <time>2026-09-01T20:03:38Z</time>
  <course>203.16</course>
  <speed>5.710210153750911</speed>
  <fix>3d</fix>
</trkpt>
<trkpt lat="-27.2744643" lon="151.2903672">
  <ele>366.32</ele>
  <time>2026-09-01T20:03:38Z</time>
  <course>265.14</course>
  <speed>5.64</speed>
  <fix>3d</fix>
</trkpt>
<trkpt lat="-27.2744652" lon="151.2903549">
  <ele>365.98</ele>
  <time>2026-09-01T20:03:38Z</time>
  <course>203.07</course>
  <speed>5.63961878144259</speed>
  <fix>3d</fix>
</trkpt>
<trkpt lat="-27.2744643" lon="151.2903672">
  <ele>366.32</ele>
  <time>2026-09-01T20:03:38Z</time>
  <course>265.14</course>
  <speed>5.64</speed>
  <fix>3d</fix>
</trkpt>
<trkpt lat="-27.2744656" lon="151.2903492">
  <ele>365.98</ele>
  <time>2026-09-01T20:03:38Z</time>
  <course>202.97</course>
  <speed>5.63961878144259</speed>
  <fix>3d</fix>
</trkpt>
<trkpt lat="-27.2744651" lon="151.2903559">
  <ele>366.09</ele>
  <time>2026-09-01T20:03:38Z</time>
  <course>265.24</course>
  <speed>5.57</speed>
  <fix>3d</fix>
</trkpt>
<trkpt lat="-27.274466" lon="151.2903438">
  <ele>366.07</ele>
  <time>2026-09-01T20:03:38Z</time>
  <course>202.88</course>
  <speed>5.569030436260875</speed>
  <fix>3d</fix>
</trkpt>
<trkpt lat="-27.2744651" lon="151.2903559">
  <ele>366.09</ele>
  <time>2026-09-01T20:03:38Z</time>
  <course>265.24</course>
  <speed>5.57</speed>
  <fix>3d</fix>
</trkpt>
<trkpt lat="-27.2744664" lon="151.2903382">
  <ele>365.86</ele>
  <time>2026-09-01T20:03:38Z</time>
  <course>202.78</course>
  <speed>5.569030436260875</speed>
  <fix>3d</fix>
</trkpt>
<trkpt lat="-27.2744659" lon="151.2903447">
  <ele>365.88</ele>
  <time>2026-09-01T20:03:38Z</time>
  <course>265.38</course>
  <speed>5.49</speed>
  <fix>3d</fix>
</trkpt>
<trkpt lat="-27.2744667" lon="151.2903327">
  <ele>365.54</ele>
  <time>2026-09-01T20:03:38Z</time>
  <course>202.69</course>
  <speed>5.487667992872747</speed>
  <fix>3d</fix>
</trkpt>
<trkpt lat="-27.2744659" lon="151.2903447">
  <ele>365.88</ele>
  <time>2026-09-01T20:03:38Z</time>
  <course>265.38</course>
  <speed>5.49</speed>
  <fix>3d</fix>
</trkpt>
<trkpt lat="-27.2744671" lon="151.2903272">
  <ele>365.55</ele>
  <time>2026-09-01T20:03:38Z</time>
  <course>202.59</course>
  <speed>5.487667992872747</speed>
  <fix>3d</fix>
</trkpt>
<trkpt lat="-27.2744667" lon="151.2903337">
  <ele>365.66</ele>
  <time>2026-09-01T20:03:38Z</time>
  <course>265.56</course>
  <speed>5.41</speed>
  <fix>3d</fix>
</trkpt>
<trkpt lat="-27.2744675" lon="151.2903219">
  <ele>365.65</ele>
  <time>2026-09-01T20:03:38Z</time>
  <course>202.49</course>
  <speed>5.415542447437745</speed>
  <fix>3d</fix>
</trkpt>
<trkpt lat="-27.2744667" lon="151.2903337">
  <ele>365.66</ele>
  <time>2026-09-01T20:03:38Z</time>
  <course>265.56</course>
  <speed>5.41</speed>
  <fix>3d</fix>
</trkpt>
<trkpt lat="-27.2744678" lon="151.2903164">
  <ele>365.51</ele>
  <time>2026-09-01T20:03:38Z</time>
  <course>202.39</course>
  <speed>5.415542447437745</speed>
  <fix>3d</fix>
</trkpt>
<trkpt lat="-27.2744674" lon="151.2903229">
  <ele>365.46</ele>
  <time>2026-09-01T20:03:38Z</time>
  <course>265.76</course>
  <speed>5.33</speed>
  <fix>3d</fix>
</trkpt>
<trkpt lat="-27.2744681" lon="151.2903113">
  <ele>365.31</ele>
  <time>2026-09-01T20:03:38Z</time>
  <course>202.27</course>
  <speed>5.3342759583658585</speed>
  <fix>3d</fix>
</trkpt>
<trkpt lat="-27.2744674" lon="151.2903229">
  <ele>365.46</ele>
  <time>2026-09-01T20:03:38Z</time>
  <course>265.76</course>
  <speed>5.33</speed>
  <fix>3d</fix>
</trkpt>
<trkpt lat="-27.2744685" lon="151.2903059">
  <ele>365.05</ele>
  <time>2026-09-01T20:03:38Z</time>
  <course>202.13</course>
  <speed>5.3342759583658585</speed>
  <fix>3d</fix>
</trkpt>
<trkpt lat="-27.2744681" lon="151.2903122">
  <ele>365.26</ele>
  <time>2026-09-01T20:03:38Z</time>
  <course>265.95</course>
  <speed>5.24</speed>
  <fix>3d</fix>
</trkpt>
<trkpt lat="-27.2744688" lon="151.2903008">
  <ele>364.95</ele>
  <time>2026-09-01T20:03:38Z</time>
  <course>201.97</course>
  <speed>5.243071618812774</speed>
  <fix>3d</fix>
</trkpt>
<trkpt lat="-27.2744681" lon="151.2903122">
  <ele>365.26</ele>
  <time>2026-09-01T20:03:38Z</time>
  <course>265.95</course>
  <speed>5.24</speed>
  <fix>3d</fix>
</trkpt>
<trkpt lat="-27.2744691" lon="151.2902955">
  <ele>364.98</ele>
  <time>2026-09-01T20:03:38Z</time>
  <course>201.79</course>
  <speed>5.243071618812774</speed>
  <fix>3d</fix>
</trkpt>
<trkpt lat="-27.2744688" lon="151.2903018">
  <ele>365.06</ele>
  <time>2026-09-01T20:03:38Z</time>
  <course>266.13</course>
  <speed>5.14</speed>
  <fix>3d</fix>
</trkpt>
<trkpt lat="-27.2744694" lon="151.2902906">
  <ele>364.76</ele>
  <time>2026-09-01T20:03:38Z</time>
  <course>201.58</course>
  <speed>5.141254710671316</speed>
  <fix>3d</fix>
</trkpt>
<trkpt lat="-27.2744688" lon="151.2903018">
  <ele>365.06</ele>
  <time>2026-09-01T20:03:38Z</time>
  <course>266.13</course>
  <speed>5.14</speed>
  <fix>3d</fix>
</trkpt>
<trkpt lat="-27.2744697" lon="151.2902855">
  <ele>364.98</ele>
  <time>2026-09-01T20:03:38Z</time>
  <course>201.35</course>
  <speed>5.141254710671316</speed>
  <fix>3d</fix>
</trkpt>
<trkpt lat="-27.2744694" lon="151.2902915">
  <ele>364.86</ele>
  <time>2026-09-01T20:03:38Z</time>
  <course>266.28</course>
  <speed>5.03</speed>
  <fix>3d</fix>
</trkpt>
<trkpt lat="-27.27447" lon="151.2902806">
  <ele>364.86</ele>
  <time>2026-09-01T20:03:38Z</time>
  <course>201.1</course>
  <speed>5.030188863253546</speed>
  <fix>3d</fix>
</trkpt>
<trkpt lat="-27.2744694" lon="151.2902915">
  <ele>364.86</ele>
  <time>2026-09-01T20:03:38Z</time>
  <course>266.28</course>
  <speed>5.03</speed>
  <fix>3d</fix>
</trkpt>
<trkpt lat="-27.2744703" lon="151.2902755">
  <ele>364.71</ele>
  <time>2026-09-01T20:03:38Z</time>
  <course>200.83</course>
  <speed>5.030188863253546</speed>
  <fix>3d</fix>
</trkpt>
<trkpt lat="-27.2744699" lon="151.2902814">
  <ele>364.67</ele>
  <time>2026-09-01T20:03:38Z</time>
  <course>266.39</course>
  <speed>4.91</speed>
  <fix>3d</fix>
</trkpt>
<trkpt lat="-27.2744704" lon="151.2902707">
  <ele>364.35</ele>
  <time>2026-09-01T20:03:38Z</time>
  <course>200.55</course>
  <speed>4.909175083453431</speed>
  <fix>3d</fix>
</trkpt>
<trkpt lat="-27.2744699" lon="151.2902814">
  <ele>364.67</ele>
  <time>2026-09-01T20:03:38Z</time>
  <course>266.39</course>
  <speed>4.91</speed>
  <fix>3d</fix>
</trkpt>
<trkpt lat="-27.2744707" lon="151.2902658">
  <ele>364.38</ele>
  <time>2026-09-01T20:03:38Z</time>
  <course>200.26</course>
  <speed>4.909175083453431</speed>
  <fix>3d</fix>
</trkpt>
<trkpt lat="-27.2744705" lon="151.2902717">
  <ele>364.49</ele>
  <time>2026-09-01T20:03:38Z</time>
  <course>266.48</course>
  <speed>4.78</speed>
  <fix>3d</fix>
</trkpt>
<trkpt lat="-27.274471" lon="151.2902613">
  <ele>364.17</ele>
  <time>2026-09-01T20:03:38Z</time>
  <course>199.96</course>
  <speed>4.778807382600809</speed>
  <fix>3d</fix>
</trkpt>
<trkpt lat="-27.2744705" lon="151.2902717">
  <ele>364.49</ele>
  <time>2026-09-01T20:03:38Z</time>
  <course>266.48</course>
  <speed>4.78</speed>
  <fix>3d</fix>
</trkpt>
<trkpt lat="-27.2744713" lon="151.2902564">
  <ele>364.38</ele>
  <time>2026-09-01T20:03:38Z</time>
  <course>199.65</course>
  <speed>4.778807382600809</speed>
  <fix>3d</fix>
</trkpt>
<trkpt lat="-27.274471" lon="151.2902622">
  <ele>364.3</ele>
  <time>2026-09-01T20:03:38Z</time>
  <course>266.54</course>
  <speed>4.65</speed>
  <fix>3d</fix>
</trkpt>
<trkpt lat="-27.2744715" lon="151.2902521">
  <ele>364.2</ele>
  <time>2026-09-01T20:03:38Z</time>
  <course>199.34</course>
  <speed>4.648440598738463</speed>
  <fix>3d</fix>
</trkpt>
<trkpt lat="-27.274471" lon="151.2902622">
  <ele>364.3</ele>
  <time>2026-09-01T20:03:38Z</time>
  <course>266.54</course>
  <speed>4.65</speed>
  <fix>3d</fix>
</trkpt>
<trkpt lat="-27.2744717" lon="151.2902474">
  <ele>364.07</ele>
  <time>2026-09-01T20:03:38Z</time>
  <course>199.01</course>
  <speed>4.648440598738463</speed>
  <fix>3d</fix>
</trkpt>
<trkpt lat="-27.2744715" lon="151.2902529">
  <ele>364.12</ele>
  <time>2026-09-01T20:03:38Z</time>
  <course>266.57</course>
  <speed>4.5</speed>
  <fix>3d</fix>
</trkpt>
<trkpt lat="-27.274472" lon="151.2902431">
  <ele>363.95</ele>
  <time>2026-09-01T20:03:38Z</time>
  <course>198.68</course>
  <speed>4.507504853020127</speed>
  <fix>3d</fix>
</trkpt>
<trkpt lat="-27.2744715" lon="151.2902529">
  <ele>364.12</ele>
  <time>2026-09-01T20:03:38Z</time>
  <course>266.57</course>
  <speed>4.5</speed>
  <fix>3d</fix>
</trkpt>
<trkpt lat="-27.2744722" lon="151.2902385">
  <ele>363.89</ele>
  <time>2026-09-01T20:03:38Z</time>
  <course>198.34</course>
  <speed>4.507504853020127</speed>
  <fix>3d</fix>
</trkpt>
<trkpt lat="-27.2744719" lon="151.290244">
  <ele>363.93</ele>
  <time>2026-09-01T20:03:38Z</time>
  <course>266.57</course>
  <speed>4.36</speed>
  <fix>3d</fix>
</trkpt>
<trkpt lat="-27.2744724" lon="151.2902345">
  <ele>363.84</ele>
  <time>2026-09-01T20:03:38Z</time>
  <course>197.99</course>
  <speed>4.357763187691594</speed>
  <fix>3d</fix>
</trkpt>
<trkpt lat="-27.2744719" lon="151.290244">
  <ele>363.93</ele>
  <time>2026-09-01T20:03:38Z</time>
  <course>266.57</course>
  <speed>4.36</speed>
  <fix>3d</fix>
</trkpt>
<trkpt lat="-27.2744726" lon="151.2902301">
  <ele>363.69</ele>
  <time>2026-09-01T20:03:38Z</time>
  <course>197.64</course>
  <speed>4.357763187691594</speed>
  <fix>3d</fix>
</trkpt>
<trkpt lat="-27.2744724" lon="151.2902353">
  <ele>363.75</ele>
  <time>2026-09-01T20:03:38Z</time>
  <course>266.54</course>
  <speed>4.21</speed>
  <fix>3d</fix>
</trkpt>
<trkpt lat="-27.2744728" lon="151.2902261">
  <ele>363.4</ele>
  <time>2026-09-01T20:03:38Z</time>
  <course>197.27</course>
  <speed>4.207433897282285</speed>
  <fix>3d</fix>
</trkpt>
<trkpt lat="-27.2744724" lon="151.2902353">
  <ele>363.75</ele>
  <time>2026-09-01T20:03:38Z</time>
  <course>266.54</course>
  <speed>4.21</speed>
  <fix>3d</fix>
</trkpt>
<trkpt lat="-27.2744731" lon="151.2902219">
  <ele>363.51</ele>
  <time>2026-09-01T20:03:38Z</time>
  <course>196.9</course>
  <speed>4.207433897282285</speed>
  <fix>3d</fix>
</trkpt>
<trkpt lat="-27.2744729" lon="151.290227">
  <ele>363.56</ele>
  <time>2026-09-01T20:03:38Z</time>
  <course>266.47</course>
  <speed>4.05</speed>
  <fix>3d</fix>
</trkpt>
<trkpt lat="-27.2744733" lon="151.2902182">
  <ele>363.23</ele>
  <time>2026-09-01T20:03:38Z</time>
  <course>196.52</course>
  <speed>4.057104879097902</speed>
  <fix>3d</fix>
</trkpt>
<trkpt lat="-27.2744729" lon="151.290227">
  <ele>363.56</ele>
  <time>2026-09-01T20:03:38Z</time>
  <course>266.47</course>
  <speed>4.05</speed>
  <fix>3d</fix>
</trkpt>
<trkpt lat="-27.2744736" lon="151.2902141">
  <ele>363.37</ele>
  <time>2026-09-01T20:03:38Z</time>
  <course>196.13</course>
  <speed>4.057104879097902</speed>
  <fix>3d</fix>
</trkpt>
<trkpt lat="-27.2744733" lon="151.2902189">
  <ele>363.37</ele>
  <time>2026-09-01T20:03:38Z</time>
  <course>266.37</course>
  <speed>3.9</speed>
  <fix>3d</fix>
</trkpt>
<trkpt lat="-27.2744737" lon="151.2902104">
  <ele>363.3</ele>
  <time>2026-09-01T20:03:38Z</time>
  <course>195.72</course>
  <speed>3.897396566940552</speed>
  <fix>3d</fix>
</trkpt>
<trkpt lat="-27.2744733" lon="151.2902189">
  <ele>363.37</ele>
  <time>2026-09-01T20:03:38Z</time>
  <course>266.37</course>
  <speed>3.9</speed>
  <fix>3d</fix>
</trkpt>
<trkpt lat="-27.274474" lon="151.2902065">
  <ele>363.09</ele>
  <time>2026-09-01T20:03:38Z</time>
  <course>195.31</course>
  <speed>3.897396566940552</speed>
  <fix>3d</fix>
</trkpt>
<trkpt lat="-27.2744738" lon="151.2902112">
  <ele>363.17</ele>
  <time>2026-09-01T20:03:38Z</time>
  <course>266.22</course>
  <speed>3.74</speed>
  <fix>3d</fix>
</trkpt>
<trkpt lat="-27.2744742" lon="151.2902031">
  <ele>363.14</ele>
  <time>2026-09-01T20:03:38Z</time>
  <course>194.9</course>
  <speed>3.7377132046212425</speed>
  <fix>3d</fix>
</trkpt>
<trkpt lat="-27.2744738" lon="151.2902112">
  <ele>363.17</ele>
  <time>2026-09-01T20:03:38Z</time>
  <course>266.22</course>
  <speed>3.74</speed>
  <fix>3d</fix>
</trkpt>
<trkpt lat="-27.2744744" lon="151.2901996">
  <ele>362.96</ele>
  <time>2026-09-01T20:03:38Z</time>
  <course>194.45</course>
  <speed>3.5780581325629686</speed>
  <fix>3d</fix>
</trkpt>
<trkpt lat="-27.2744742" lon="151.2902039">
  <ele>362.97</ele>
  <time>2026-09-01T20:03:38Z</time>
  <course>266.02</course>
  <speed>3.58</speed>
  <fix>3d</fix>
</trkpt>
<trkpt lat="-27.2744746" lon="151.290196">
  <ele>362.64</ele>
  <time>2026-09-01T20:03:38Z</time>
  <course>194.03</course>
  <speed>3.5780581325629686</speed>
  <fix>3d</fix>
</trkpt>
<trkpt lat="-27.2744742" lon="151.2902039">
  <ele>362.97</ele>
  <time>2026-09-01T20:03:38Z</time>
  <course>266.02</course>
  <speed>3.58</speed>
  <fix>3d</fix>
</trkpt>
<trkpt lat="-27.2744749" lon="151.2901927">
  <ele>362.73</ele>
  <time>2026-09-01T20:03:38Z</time>
  <course>193.6</course>
  <speed>3.4291252528888467</speed>
  <fix>3d</fix>
</trkpt>
<trkpt lat="-27.2744747" lon="151.2901968">
  <ele>362.78</ele>
  <time>2026-09-01T20:03:38Z</time>
  <course>265.8</course>
  <speed>3.43</speed>
  <fix>3d</fix>
</trkpt>
<trkpt lat="-27.2744751" lon="151.2901892">
  <ele>362.57</ele>
  <time>2026-09-01T20:03:38Z</time>
  <course>193.18</course>
  <speed>3.4291252528888467</speed>
  <fix>3d</fix>
</trkpt>
<trkpt lat="-27.2744747" lon="151.2901968">
  <ele>362.78</ele>
  <time>2026-09-01T20:03:38Z</time>
  <course>265.8</course>
  <speed>3.43</speed>
  <fix>3d</fix>
</trkpt>
<trkpt lat="-27.2744753" lon="151.2901861">
  <ele>362.33</ele>
  <time>2026-09-01T20:03:38Z</time>
  <course>192.77</course>
  <speed>3.279542651041453</speed>
  <fix>3d</fix>
</trkpt>
<trkpt lat="-27.2744751" lon="151.29019">
  <ele>362.58</ele>
  <time>2026-09-01T20:03:38Z</time>
  <course>265.61</course>
  <speed>3.28</speed>
  <fix>3d</fix>
</trkpt>
<trkpt lat="-27.2744755" lon="151.2901828">
  <ele>362.23</ele>
  <time>2026-09-01T20:03:38Z</time>
  <course>192.39</course>
  <speed>3.279542651041453</speed>
  <fix>3d</fix>
</trkpt>
<trkpt lat="-27.2744751" lon="151.29019">
  <ele>362.58</ele>
  <time>2026-09-01T20:03:38Z</time>
  <course>265.61</course>
  <speed>3.28</speed>
  <fix>3d</fix>
</trkpt>
<trkpt lat="-27.2744758" lon="151.2901796">
  <ele>362.42</ele>
  <time>2026-09-01T20:03:38Z</time>
  <course>192.03</course>
  <speed>3.279542651041453</speed>
  <fix>3d</fix>
</trkpt>
<trkpt lat="-27.2744756" lon="151.2901835">
  <ele>362.37</ele>
  <time>2026-09-01T20:03:38Z</time>
  <course>265.47</course>
  <speed>3.14</speed>
  <fix>3d</fix>
</trkpt>
<trkpt lat="-27.274476" lon="151.2901767">
  <ele>362.24</ele>
  <time>2026-09-01T20:03:38Z</time>
  <course>191.7</course>
  <speed>3.139187793044564</speed>
  <fix>3d</fix>
</trkpt>
<trkpt lat="-27.2744756" lon="151.2901835">
  <ele>362.37</ele>
  <time>2026-09-01T20:03:38Z</time>
  <course>265.47</course>
  <speed>3.14</speed>
  <fix>3d</fix>
</trkpt>
<trkpt lat="-27.2744763" lon="151.2901735">
  <ele>362.09</ele>
  <time>2026-09-01T20:03:38Z</time>
  <course>191.39</course>
  <speed>3.139187793044564</speed>
  <fix>3d</fix>
</trkpt>
<trkpt lat="-27.274476" lon="151.2901773">
  <ele>362.16</ele>
  <time>2026-09-01T20:03:38Z</time>
  <course>265.39</course>
  <speed>3.02</speed>
  <fix>3d</fix>
</trkpt>
<trkpt lat="-27.2744764" lon="151.2901707">
  <ele>361.91</ele>
  <time>2026-09-01T20:03:38Z</time>
  <course>191.1</course>
  <speed>3.0195529470436515</speed>
  <fix>3d</fix>
</trkpt>
<trkpt lat="-27.274476" lon="151.2901773">
  <ele>362.16</ele>
  <time>2026-09-01T20:03:38Z</time>
  <course>265.39</course>
  <speed>3.02</speed>
  <fix>3d</fix>
</trkpt>
<trkpt lat="-27.2744766" lon="151.2901677">
  <ele>361.83</ele>
  <time>2026-09-01T20:03:38Z</time>
  <course>190.85</course>
  <speed>3.0195529470436515</speed>
  <fix>3d</fix>
</trkpt>
<trkpt lat="-27.2744765" lon="151.2901714">
  <ele>361.95</ele>
  <time>2026-09-01T20:03:38Z</time>
  <course>265.38</course>
  <speed>2.9</speed>
  <fix>3d</fix>
</trkpt>
<trkpt lat="-27.2744769" lon="151.2901651">
  <ele>361.67</ele>
  <time>2026-09-01T20:03:38Z</time>
  <course>190.61</course>
  <speed>2.899137802864845</speed>
  <fix>3d</fix>
</trkpt>
<trkpt lat="-27.2744765" lon="151.2901714">
  <ele>361.95</ele>
  <time>2026-09-01T20:03:38Z</time>
  <course>265.38</course>
  <speed>2.9</speed>
  <fix>3d</fix>
</trkpt>
<trkpt lat="-27.2744771" lon="151.2901622">
  <ele>361.52</ele>
  <time>2026-09-01T20:03:38Z</time>
  <course>190.38</course>
  <speed>2.899137802864845</speed>
  <fix>3d</fix>
</trkpt>
<trkpt lat="-27.2744768" lon="151.2901656">
  <ele>361.74</ele>
  <time>2026-09-01T20:03:38Z</time>
  <course>265.47</course>
  <speed>2.8</speed>
  <fix>3d</fix>
</trkpt>
<trkpt lat="-27.2744772" lon="151.2901595">
  <ele>361.64</ele>
  <time>2026-09-01T20:03:38Z</time>
  <course>190.16</course>
  <speed>2.798660393831306</speed>
  <fix>3d</fix>
</trkpt>
<trkpt lat="-27.2744768" lon="151.2901656">
  <ele>361.74</ele>
  <time>2026-09-01T20:03:38Z</time>
  <course>265.47</course>
  <speed>2.8</speed>
  <fix>3d</fix>
</trkpt>
<trkpt lat="-27.2744774" lon="151.2901567">
  <ele>361.53</ele>
  <time>2026-09-01T20:03:39Z</time>
  <course>189.95</course>
  <speed>2.798660393831306</speed>
  <fix>3d</fix>
</trkpt>
<trkpt lat="-27.2744772" lon="151.29016">
  <ele>361.53</ele>
  <time>2026-09-01T20:03:39Z</time>
  <course>265.65</course>
  <speed>2.7</speed>
  <fix>3d</fix>
</trkpt>
<trkpt lat="-27.2744775" lon="151.2901541">
  <ele>361.51</ele>
  <time>2026-09-01T20:03:39Z</time>
  <course>189.74</course>
  <speed>2.6974246977441276</speed>
  <fix>3d</fix>
</trkpt>
<trkpt lat="-27.2744772" lon="151.29016">
  <ele>361.53</ele>
  <time>2026-09-01T20:03:39Z</time>
  <course>265.65</course>
  <speed>2.7</speed>
  <fix>3d</fix>
</trkpt>
<trkpt lat="-27.2744777" lon="151.2901514">
  <ele>361.42</ele>
  <time>2026-09-01T20:03:39Z</time>
  <course>189.54</course>
  <speed>2.6974246977441276</speed>
  <fix>3d</fix>
</trkpt>
<trkpt lat="-27.2744776" lon="151.2901547">
  <ele>361.32</ele>
  <time>2026-09-01T20:03:39Z</time>
  <course>265.89</course>
  <speed>2.61</speed>
  <fix>3d</fix>
</trkpt>
<trkpt lat="-27.2744779" lon="151.290149">
  <ele>361.06</ele>
  <time>2026-09-01T20:03:39Z</time>
  <course>189.34</course>
  <speed>2.6161995336747537</speed>
  <fix>3d</fix>
</trkpt>
<trkpt lat="-27.2744776" lon="151.2901547">
  <ele>361.32</ele>
  <time>2026-09-01T20:03:39Z</time>
  <course>265.89</course>
  <speed>2.61</speed>
  <fix>3d</fix>
</trkpt>
<trkpt lat="-27.2744781" lon="151.2901464">
  <ele>360.84</ele>
  <time>2026-09-01T20:03:39Z</time>
  <course>189.17</course>
  <speed>2.6161995336747537</speed>
  <fix>3d</fix>
</trkpt>
<trkpt lat="-27.2744779" lon="151.2901494">
  <ele>361.1</ele>
  <time>2026-09-01T20:03:39Z</time>
  <course>266.31</course>
  <speed>2.54</speed>
  <fix>3d</fix>
</trkpt>
<trkpt lat="-27.2744782" lon="151.2901439">
  <ele>360.76</ele>
  <time>2026-09-01T20:03:39Z</time>
  <course>189.04</course>
  <speed>2.54503438090726</speed>
  <fix>3d</fix>
</trkpt>
<trkpt lat="-27.2744779" lon="151.2901494">
  <ele>361.1</ele>
  <time>2026-09-01T20:03:39Z</time>
  <course>266.31</course>
  <speed>2.54</speed>
  <fix>3d</fix>
</trkpt>
<trkpt lat="-27.2744783" lon="151.2901413">
  <ele>360.73</ele>
  <time>2026-09-01T20:03:39Z</time>
  <course>188.96</course>
  <speed>2.54503438090726</speed>
  <fix>3d</fix>
</trkpt>
<trkpt lat="-27.2744782" lon="151.2901443">
  <ele>360.89</ele>
  <time>2026-09-01T20:03:39Z</time>
  <course>267.01</course>
  <speed>2.49</speed>
  <fix>3d</fix>
</trkpt>
<trkpt lat="-27.2744784" lon="151.2901388">
  <ele>360.82</ele>
  <time>2026-09-01T20:03:39Z</time>
  <course>188.93</course>
  <speed>2.482901528454159</speed>
  <fix>3d</fix>
</trkpt>
<trkpt lat="-27.2744782" lon="151.2901443">
  <ele>360.89</ele>
  <time>2026-09-01T20:03:39Z</time>
  <course>267.01</course>
  <speed>2.49</speed>
  <fix>3d</fix>
</trkpt>
<trkpt lat="-27.2744785" lon="151.2901365">
  <ele>360.5</ele>
  <time>2026-09-01T20:03:39Z</time>
  <course>188.93</course>
  <speed>2.4416592718886885</speed>
  <fix>3d</fix>
</trkpt>
<trkpt lat="-27.2744784" lon="151.2901394">
  <ele>360.68</ele>
  <time>2026-09-01T20:03:39Z</time>
  <course>267.79</course>
  <speed>2.44</speed>
  <fix>3d</fix>
</trkpt>
<trkpt lat="-27.2744785" lon="151.290134">
  <ele>360.6</ele>
  <time>2026-09-01T20:03:39Z</time>
  <course>188.93</course>
  <speed>2.4416592718886885</speed>
  <fix>3d</fix>
</trkpt>
<trkpt lat="-27.2744784" lon="151.2901394">
  <ele>360.68</ele>
  <time>2026-09-01T20:03:39Z</time>
  <course>267.79</course>
  <speed>2.44</speed>
  <fix>3d</fix>
</trkpt>
<trkpt lat="-27.2744785" lon="151.2901317">
  <ele>360.36</ele>
  <time>2026-09-01T20:03:39Z</time>
  <course>188.89</course>
  <speed>2.3710335299189675</speed>
  <fix>3d</fix>
</trkpt>
<trkpt lat="-27.2744785" lon="151.2901345">
  <ele>360.46</ele>
  <time>2026-09-01T20:03:39Z</time>
  <course>268.3</course>
  <speed>2.37</speed>
  <fix>3d</fix>
</trkpt>
<trkpt lat="-27.2744786" lon="151.2901293">
  <ele>360.44</ele>
  <time>2026-09-01T20:03:39Z</time>
  <course>188.78</course>
  <speed>2.3710335299189675</speed>
  <fix>3d</fix>
</trkpt>
<trkpt lat="-27.2744785" lon="151.2901345">
  <ele>360.46</ele>
  <time>2026-09-01T20:03:39Z</time>
  <course>268.3</course>
  <speed>2.37</speed>
  <fix>3d</fix>
</trkpt>
<trkpt lat="-27.2744786" lon="151.2901271">
  <ele>360.11</ele>
  <time>2026-09-01T20:03:39Z</time>
  <course>188.57</course>
  <speed>2.2807893370497854</speed>
  <fix>3d</fix>
</trkpt>
<trkpt lat="-27.2744786" lon="151.2901298">
  <ele>360.24</ele>
  <time>2026-09-01T20:03:39Z</time>
  <course>268.38</course>
  <speed>2.28</speed>
  <fix>3d</fix>
</trkpt>
<trkpt lat="-27.2744787" lon="151.2901248">
  <ele>359.96</ele>
  <time>2026-09-01T20:03:39Z</time>
  <course>188.25</course>
  <speed>2.2807893370497854</speed>
  <fix>3d</fix>
</trkpt>
<trkpt lat="-27.2744786" lon="151.2901298">
  <ele>360.24</ele>
  <time>2026-09-01T20:03:39Z</time>
  <course>268.38</course>
  <speed>2.28</speed>
  <fix>3d</fix>
</trkpt>
<trkpt lat="-27.2744787" lon="151.2901227">
  <ele>359.8</ele>
  <time>2026-09-01T20:03:39Z</time>
  <course>187.83</course>
  <speed>2.1711287386979152</speed>
  <fix>3d</fix>
</trkpt>
<trkpt lat="-27.2744787" lon="151.2901253">
  <ele>360.01</ele>
  <time>2026-09-01T20:03:39Z</time>
  <course>267.98</course>
  <speed>2.17</speed>
  <fix>3d</fix>
</trkpt>
<trkpt lat="-27.2744788" lon="151.2901205">
  <ele>359.84</ele>
  <time>2026-09-01T20:03:39Z</time>
  <course>187.32</course>
  <speed>2.1711287386979152</speed>
  <fix>3d</fix>
</trkpt>
<trkpt lat="-27.2744787" lon="151.2901253">
  <ele>360.01</ele>
  <time>2026-09-01T20:03:39Z</time>
  <course>267.98</course>
  <speed>2.17</speed>
  <fix>3d</fix>
</trkpt>
<trkpt lat="-27.274479" lon="151.2901186">
  <ele>359.62</ele>
  <time>2026-09-01T20:03:39Z</time>
  <course>186.76</course>
  <speed>2.0424495097798623</speed>
  <fix>3d</fix>
</trkpt>
<trkpt lat="-27.2744789" lon="151.290121">
  <ele>359.76</ele>
  <time>2026-09-01T20:03:39Z</time>
  <course>267.18</course>
  <speed>2.04</speed>
  <fix>3d</fix>
</trkpt>
<trkpt lat="-27.274479" lon="151.2901165">
  <ele>359.66</ele>
  <time>2026-09-01T20:03:39Z</time>
  <course>186.17</course>
  <speed>2.0424495097798623</speed>
  <fix>3d</fix>
</trkpt>
<trkpt lat="-27.2744789" lon="151.290121">
  <ele>359.76</ele>
  <time>2026-09-01T20:03:39Z</time>
  <course>267.18</course>
  <speed>2.04</speed>
  <fix>3d</fix>
</trkpt>
<trkpt lat="-27.2744792" lon="151.2901149">
  <ele>359.29</ele>
  <time>2026-09-01T20:03:39Z</time>
  <course>185.58</course>
  <speed>1.8838258942906585</speed>
  <fix>3d</fix>
</trkpt>
<trkpt lat="-27.2744791" lon="151.2901171">
  <ele>359.51</ele>
  <time>2026-09-01T20:03:39Z</time>
  <course>266.13</course>
  <speed>1.89</speed>
  <fix>3d</fix>
</trkpt>
<trkpt lat="-27.2744793" lon="151.2901129">
  <ele>359.19</ele>
  <time>2026-09-01T20:03:39Z</time>
  <course>185.01</course>
  <speed>1.8838258942906585</speed>
  <fix>3d</fix>
</trkpt>
<trkpt lat="-27.2744791" lon="151.2901171">
  <ele>359.51</ele>
  <time>2026-09-01T20:03:39Z</time>
  <course>266.13</course>
  <speed>1.89</speed>
  <fix>3d</fix>
</trkpt>
<trkpt lat="-27.2744794" lon="151.2901111">
  <ele>359.03</ele>
  <time>2026-09-01T20:03:39Z</time>
  <course>184.49</course>
  <speed>1.8838258942906585</speed>
  <fix>3d</fix>
</trkpt>
<trkpt lat="-27.2744794" lon="151.2901134">
  <ele>359.27</ele>
  <time>2026-09-01T20:03:39Z</time>
  <course>264.92</course>
  <speed>1.73</speed>
  <fix>3d</fix>
</trkpt>
<trkpt lat="-27.2744796" lon="151.2901097">
  <ele>358.95</ele>
  <time>2026-09-01T20:03:39Z</time>
  <course>184.01</course>
  <speed>1.726528308484978</speed>
  <fix>3d</fix>
</trkpt>
<trkpt lat="-27.2744794" lon="151.2901134">
  <ele>359.27</ele>
  <time>2026-09-01T20:03:39Z</time>
  <course>264.92</course>
  <speed>1.73</speed>
  <fix>3d</fix>
</trkpt>
<trkpt lat="-27.2744798" lon="151.2901079">
  <ele>358.9</ele>
  <time>2026-09-01T20:03:39Z</time>
  <course>183.57</course>
  <speed>1.726528308484978</speed>
  <fix>3d</fix>
</trkpt>
<trkpt lat="-27.2744796" lon="151.2901101">
  <ele>359.02</ele>
  <time>2026-09-01T20:03:39Z</time>
  <course>263.62</course>
  <speed>1.56</speed>
  <fix>3d</fix>
</trkpt>
<trkpt lat="-27.2744799" lon="151.2901067">
  <ele>358.7</ele>
  <time>2026-09-01T20:03:39Z</time>
  <course>183.2</course>
  <speed>1.5592947123619703</speed>
  <fix>3d</fix>
</trkpt>
<trkpt lat="-27.2744796" lon="151.2901101">
  <ele>359.02</ele>
  <time>2026-09-01T20:03:39Z</time>
  <course>263.62</course>
  <speed>1.56</speed>
  <fix>3d</fix>
</trkpt>
<trkpt lat="-27.27448" lon="151.2901052">
  <ele>358.54</ele>
  <time>2026-09-01T20:03:39Z</time>
  <course>182.92</course>
  <speed>1.5592947123619703</speed>
  <fix>3d</fix>
</trkpt>
<trkpt lat="-27.2744799" lon="151.2901072">
  <ele>358.77</ele>
  <time>2026-09-01T20:03:39Z</time>
  <course>262.71</course>
  <speed>1.39</speed>
  <fix>3d</fix>
</trkpt>
<trkpt lat="-27.2744802" lon="151.2901042">
  <ele>358.44</ele>
  <time>2026-09-01T20:03:39Z</time>
  <course>182.72</course>
  <speed>1.3904315876734104</speed>
  <fix>3d</fix>
</trkpt>
<trkpt lat="-27.2744799" lon="151.2901072">
  <ele>358.77</ele>
  <time>2026-09-01T20:03:39Z</time>
  <course>262.71</course>
  <speed>1.39</speed>
  <fix>3d</fix>
</trkpt>
<trkpt lat="-27.2744804" lon="151.2901028">
  <ele>358.66</ele>
  <time>2026-09-01T20:03:39Z</time>
  <course>182.58</course>
  <speed>1.3904315876734104</speed>
  <fix>3d</fix>
</trkpt>
<trkpt lat="-27.2744803" lon="151.2901045">
  <ele>358.53</ele>
  <time>2026-09-01T20:03:39Z</time>
  <course>263.04</course>
  <speed>1.21</speed>
  <fix>3d</fix>
</trkpt>
<trkpt lat="-27.2744805" lon="151.2901019">
  <ele>358.39</ele>
  <time>2026-09-01T20:03:39Z</time>
  <course>182.48</course>
  <speed>1.2081390648431165</speed>
  <fix>3d</fix>
</trkpt>
<trkpt lat="-27.2744803" lon="151.2901045">
  <ele>358.53</ele>
  <time>2026-09-01T20:03:39Z</time>
  <course>263.04</course>
  <speed>1.21</speed>
  <fix>3d</fix>
</trkpt>
<trkpt lat="-27.2744805" lon="151.2901011">
  <ele>358.17</ele>
  <time>2026-09-01T20:03:39Z</time>
  <course>182.42</course>
  <speed>1.0331021246711285</speed>
  <fix>3d</fix>
</trkpt>
<trkpt lat="-27.2744805" lon="151.2901023">
  <ele>358.33</ele>
  <time>2026-09-01T20:03:39Z</time>
  <course>265.39</course>
  <speed>1.03</speed>
  <fix>3d</fix>
</trkpt>
<trkpt lat="-27.2744806" lon="151.2901001">
  <ele>358.13</ele>
  <time>2026-09-01T20:03:39Z</time>
  <course>182.37</course>
  <speed>1.0331021246711285</speed>
  <fix>3d</fix>
</trkpt>
<trkpt lat="-27.2744805" lon="151.2901023">
  <ele>358.33</ele>
  <time>2026-09-01T20:03:39Z</time>
  <course>265.39</course>
  <speed>1.03</speed>
  <fix>3d</fix>
</trkpt>
<trkpt lat="-27.2744806" lon="151.2900994">
  <ele>358.16</ele>
  <time>2026-09-01T20:03:39Z</time>
  <course>182.35</course>
  <speed>0.8700574693662483</speed>
  <fix>3d</fix>
</trkpt>
<trkpt lat="-27.2744806" lon="151.2901004">
  <ele>358.13</ele>
  <time>2026-09-01T20:03:39Z</time>
  <course>270.75</course>
  <speed>0.87</speed>
  <fix>3d</fix>
</trkpt>
<trkpt lat="-27.2744806" lon="151.2900985">
  <ele>357.85</ele>
  <time>2026-09-01T20:03:39Z</time>
  <course>182.34</course>
  <speed>0.8700574693662483</speed>
  <fix>3d</fix>
</trkpt>
<trkpt lat="-27.2744806" lon="151.2901004">
  <ele>358.13</ele>
  <time>2026-09-01T20:03:39Z</time>
  <course>270.75</course>
  <speed>0.87</speed>
  <fix>3d</fix>
</trkpt>
<trkpt lat="-27.2744803" lon="151.2900979">
  <ele>357.84</ele>
  <time>2026-09-01T20:03:39Z</time>
  <course>182.34</course>
  <speed>0.7316419889536138</speed>
  <fix>3d</fix>
</trkpt>
<trkpt lat="-27.2744804" lon="151.2900987">
  <ele>357.95</ele>
  <time>2026-09-01T20:03:39Z</time>
  <course>280.37</course>
  <speed>0.73</speed>
  <fix>3d</fix>
</trkpt>
<trkpt lat="-27.2744802" lon="151.2900971">
  <ele>357.65</ele>
  <time>2026-09-01T20:03:39Z</time>
  <course>182.37</course>
  <speed>0.7316419889536138</speed>
  <fix>3d</fix>
</trkpt>
<trkpt lat="-27.2744804" lon="151.2900987">
  <ele>357.95</ele>
  <time>2026-09-01T20:03:39Z</time>
  <course>280.37</course>
  <speed>0.73</speed>
  <fix>3d</fix>
</trkpt>
<trkpt lat="-27.2744799" lon="151.2900966">
  <ele>357.63</ele>
  <time>2026-09-01T20:03:39Z</time>
  <course>182.42</course>
  <speed>0.6488451279003334</speed>
  <fix>3d</fix>
</trkpt>
<trkpt lat="-27.2744801" lon="151.2900973">
  <ele>357.77</ele>
  <time>2026-09-01T20:03:39Z</time>
  <course>294.9</course>
  <speed>0.66</speed>
  <fix>3d</fix>
</trkpt>
<trkpt lat="-27.2744796" lon="151.290096">
  <ele>357.44</ele>
  <time>2026-09-01T20:03:39Z</time>
  <course>182.5</course>
  <speed>0.6488451279003334</speed>
  <fix>3d</fix>
</trkpt>
<trkpt lat="-27.2744801" lon="151.2900973">
  <ele>357.77</ele>
  <time>2026-09-01T20:03:39Z</time>
  <course>294.9</course>
  <speed>0.66</speed>
  <fix>3d</fix>
</trkpt>
<trkpt lat="-27.2744791" lon="151.2900957">
  <ele>357.62</ele>
  <time>2026-09-01T20:03:39Z</time>
  <course>182.61</course>
  <speed>0.6511528238439882</speed>
  <fix>3d</fix>
</trkpt>
<trkpt lat="-27.2744795" lon="151.2900962">
  <ele>357.61</ele>
  <time>2026-09-01T20:03:39Z</time>
  <course>312.24</course>
  <speed>0.65</speed>
  <fix>3d</fix>
</trkpt>
<trkpt lat="-27.2744787" lon="151.2900952">
  <ele>357.56</ele>
  <time>2026-09-01T20:03:39Z</time>
  <course>182.74</course>
  <speed>0.6511528238439882</speed>
  <fix>3d</fix>
</trkpt>
<trkpt lat="-27.2744795" lon="151.2900962">
  <ele>357.61</ele>
  <time>2026-09-01T20:03:39Z</time>
  <course>312.24</course>
  <speed>0.65</speed>
  <fix>3d</fix>
</trkpt>
<trkpt lat="-27.2744779" lon="151.290095">
  <ele>357.59</ele>
  <time>2026-09-01T20:03:39Z</time>
  <course>182.9</course>
  <speed>0.7324616030891995</speed>
  <fix>3d</fix>
</trkpt>
<trkpt lat="-27.2744785" lon="151.2900954">
  <ele>357.45</ele>
  <time>2026-09-01T20:03:39Z</time>
  <course>327.77</course>
  <speed>0.73</speed>
  <fix>3d</fix>
</trkpt>
<trkpt lat="-27.2744773" lon="151.2900946">
  <ele>357.35</ele>
  <time>2026-09-01T20:03:39Z</time>
  <course>183.1</course>
  <speed>0.7324616030891995</speed>
  <fix>3d</fix>
</trkpt>
<trkpt lat="-27.2744785" lon="151.2900954">
  <ele>357.45</ele>
  <time>2026-09-01T20:03:39Z</time>
  <course>327.77</course>
  <speed>0.73</speed>
  <fix>3d</fix>
</trkpt>
<trkpt lat="-27.2744765" lon="151.2900944">
  <ele>357.32</ele>
  <time>2026-09-01T20:03:39Z</time>
  <course>183.32</course>
  <speed>0.8672946442818611</speed>
  <fix>3d</fix>
</trkpt>
<trkpt lat="-27.2744773" lon="151.2900947">
  <ele>357.3</ele>
  <time>2026-09-01T20:03:39Z</time>
  <course>338.86</course>
  <speed>0.87</speed>
  <fix>3d</fix>
</trkpt>
<trkpt lat="-27.2744757" lon="151.290094">
  <ele>357.14</ele>
  <time>2026-09-01T20:03:39Z</time>
  <course>183.57</course>
  <speed>0.8672946442818611</speed>
  <fix>3d</fix>
</trkpt>
<trkpt lat="-27.2744773" lon="151.2900947">
  <ele>357.3</ele>
  <time>2026-09-01T20:03:39Z</time>
  <course>338.86</course>
  <speed>0.87</speed>
  <fix>3d</fix>
</trkpt>
<trkpt lat="-27.2744746" lon="151.2900938">
  <ele>356.94</ele>
  <time>2026-09-01T20:03:39Z</time>
  <course>183.84</course>
  <speed>1.0404806581575652</speed>
  <fix>3d</fix>
</trkpt>
<trkpt lat="-27.2744756" lon="151.2900941">
  <ele>357.15</ele>
  <time>2026-09-01T20:03:39Z</time>
  <course>345.94</course>
  <speed>1.04</speed>
  <fix>3d</fix>
</trkpt>
<trkpt lat="-27.2744736" lon="151.2900936">
  <ele>356.91</ele>
  <time>2026-09-01T20:03:39Z</time>
  <course>184.15</course>
  <speed>1.0404806581575652</speed>
  <fix>3d</fix>
</trkpt>
<trkpt lat="-27.2744756" lon="151.2900941">
  <ele>357.15</ele>
  <time>2026-09-01T20:03:39Z</time>
  <course>345.94</course>
  <speed>1.04</speed>
  <fix>3d</fix>
</trkpt>
<trkpt lat="-27.2744723" lon="151.2900935">
  <ele>356.85</ele>
  <time>2026-09-01T20:03:39Z</time>
  <course>184.48</course>
  <speed>1.2362847568420472</speed>
  <fix>3d</fix>
</trkpt>
<trkpt lat="-27.2744736" lon="151.2900937">
  <ele>357.0</ele>
  <time>2026-09-01T20:03:39Z</time>
  <course>350.27</course>
  <speed>1.24</speed>
  <fix>3d</fix>
</trkpt>
<trkpt lat="-27.2744712" lon="151.2900933">
  <ele>356.71</ele>
  <time>2026-09-01T20:03:39Z</time>
  <course>184.84</course>
  <speed>1.2362847568420472</speed>
  <fix>3d</fix>
</trkpt>
<trkpt lat="-27.2744736" lon="151.2900937">
  <ele>357.0</ele>
  <time>2026-09-01T20:03:39Z</time>
  <course>350.27</course>
  <speed>1.24</speed>
  <fix>3d</fix>
</trkpt>
<trkpt lat="-27.2744697" lon="151.2900931">
  <ele>356.78</ele>
  <time>2026-09-01T20:03:39Z</time>
  <course>185.21</course>
  <speed>1.4412841496387865</speed>
  <fix>3d</fix>
</trkpt>
<trkpt lat="-27.2744712" lon="151.2900933">
  <ele>356.86</ele>
  <time>2026-09-01T20:03:39Z</time>
  <course>352.84</course>
  <speed>1.44</speed>
  <fix>3d</fix>
</trkpt>
<trkpt lat="-27.2744684" lon="151.290093">
  <ele>356.6</ele>
  <time>2026-09-01T20:03:39Z</time>
  <course>185.6</course>
  <speed>1.4412841496387865</speed>
  <fix>3d</fix>
</trkpt>
<trkpt lat="-27.2744712" lon="151.2900933">
  <ele>356.86</ele>
  <time>2026-09-01T20:03:39Z</time>
  <course>352.84</course>
  <speed>1.44</speed>
  <fix>3d</fix>
</trkpt>
<trkpt lat="-27.2744671" lon="151.2900928">
  <ele>356.71</ele>
  <time>2026-09-01T20:03:39Z</time>
  <course>186.0</course>
  <speed>1.4412841496387865</speed>
  <fix>3d</fix>
</trkpt>
<trkpt lat="-27.2744684" lon="151.2900929">
  <ele>356.72</ele>
  <time>2026-09-01T20:03:39Z</time>
  <course>354.27</course>
  <speed>1.66</speed>
  <fix>3d</fix>
</trkpt>
<trkpt lat="-27.2744652" lon="151.2900926">
  <ele>356.67</ele>
  <time>2026-09-01T20:03:39Z</time>
  <course>186.42</course>
  <speed>1.6577394246382633</speed>
  <fix>3d</fix>
</trkpt>
<trkpt lat="-27.2744684" lon="151.2900929">
  <ele>356.72</ele>
  <time>2026-09-01T20:03:39Z</time>
  <course>354.27</course>
  <speed>1.66</speed>
  <fix>3d</fix>
</trkpt>
<trkpt lat="-27.2744632" lon="151.2900925">
  <ele>356.73</ele>
  <time>2026-09-01T20:03:39Z</time>
  <course>186.82</course>
  <speed>1.8668690366493306</speed>
  <fix>3d</fix>
</trkpt>
<trkpt lat="-27.2744652" lon="151.2900926">
  <ele>356.58</ele>
  <time>2026-09-01T20:03:39Z</time>
  <course>354.96</course>
  <speed>1.87</speed>
  <fix>3d</fix>
</trkpt>
<trkpt lat="-27.2744616" lon="151.2900923">
  <ele>356.35</ele>
  <time>2026-09-01T20:03:39Z</time>
  <course>187.22</course>
  <speed>1.8668690366493306</speed>
  <fix>3d</fix>
</trkpt>
<trkpt lat="-27.2744652" lon="151.2900926">
  <ele>356.58</ele>
  <time>2026-09-01T20:03:39Z</time>
  <course>354.96</course>
  <speed>1.87</speed>
  <fix>3d</fix>
</trkpt>
<trkpt lat="-27.2744595" lon="151.290092">
  <ele>356.49</ele>
  <time>2026-09-01T20:03:39Z</time>
  <course>187.6</course>
  <speed>2.076968945362448</speed>
  <fix>3d</fix>
</trkpt>
<trkpt lat="-27.2744617" lon="151.2900922">
  <ele>356.45</ele>
  <time>2026-09-01T20:03:39Z</time>
  <course>355.18</course>
  <speed>2.08</speed>
  <fix>3d</fix>
</trkpt>
<trkpt lat="-27.2744576" lon="151.2900919">
  <ele>356.41</ele>
  <time>2026-09-01T20:03:39Z</time>
  <course>187.95</course>
  <speed>2.076968945362448</speed>
  <fix>3d</fix>
</trkpt>
<trkpt lat="-27.2744617" lon="151.2900922">
  <ele>356.45</ele>
  <time>2026-09-01T20:03:39Z</time>
  <course>355.18</course>
  <speed>2.08</speed>
  <fix>3d</fix>
</trkpt>
<trkpt lat="-27.2744554" lon="151.2900917">
  <ele>356.24</ele>
  <time>2026-09-01T20:03:39Z</time>
  <course>188.27</course>
  <speed>2.2779376637651874</speed>
  <fix>3d</fix>
</trkpt>
<trkpt lat="-27.2744578" lon="151.2900919">
  <ele>356.32</ele>
  <time>2026-09-01T20:03:39Z</time>
  <course>355.1</course>
  <speed>2.28</speed>
  <fix>3d</fix>
</trkpt>
<trkpt lat="-27.2744533" lon="151.2900915">
  <ele>356.16</ele>
  <time>2026-09-01T20:03:39Z</time>
  <course>188.55</course>
  <speed>2.2779376637651874</speed>
  <fix>3d</fix>
</trkpt>
<trkpt lat="-27.2744578" lon="151.2900919">
  <ele>356.32</ele>
  <time>2026-09-01T20:03:39Z</time>
  <course>355.1</course>
  <speed>2.28</speed>
  <fix>3d</fix>
</trkpt>
<trkpt lat="-27.274451" lon="151.2900913">
  <ele>356.17</ele>
  <time>2026-09-01T20:03:39Z</time>
  <course>188.81</course>
  <speed>2.4698178070456938</speed>
  <fix>3d</fix>
</trkpt>
<trkpt lat="-27.2744536" lon="151.2900915">
  <ele>356.2</ele>
  <time>2026-09-01T20:03:39Z</time>
  <course>354.82</course>
  <speed>2.47</speed>
  <fix>3d</fix>
</trkpt>
<trkpt lat="-27.2744488" lon="151.2900911">
  <ele>356.27</ele>
  <time>2026-09-01T20:03:39Z</time>
  <course>189.04</course>
  <speed>2.4698178070456938</speed>
  <fix>3d</fix>
</trkpt>
<trkpt lat="-27.2744536" lon="151.2900915">
  <ele>356.2</ele>
  <time>2026-09-01T20:03:39Z</time>
  <course>354.82</course>
  <speed>2.47</speed>
  <fix>3d</fix>
</trkpt>
<trkpt lat="-27.2744462" lon="151.2900907">
  <ele>355.9</ele>
  <time>2026-09-01T20:03:39Z</time>
  <course>189.25</course>
  <speed>2.6518107021429715</speed>
  <fix>3d</fix>
</trkpt>
<trkpt lat="-27.274449" lon="151.290091">
  <ele>356.08</ele>
  <time>2026-09-01T20:03:39Z</time>
  <course>354.42</course>
  <speed>2.65</speed>
  <fix>3d</fix>
</trkpt>
<trkpt lat="-27.2744438" lon="151.2900905">
  <ele>355.95</ele>
  <time>2026-09-01T20:03:39Z</time>
  <course>189.44</course>
  <speed>2.6518107021429715</speed>
  <fix>3d</fix>
</trkpt>
<trkpt lat="-27.274449" lon="151.290091">
  <ele>356.08</ele>
  <time>2026-09-01T20:03:39Z</time>
  <course>354.42</course>
  <speed>2.65</speed>
  <fix>3d</fix>
</trkpt>
<trkpt lat="-27.274441" lon="151.2900901">
  <ele>355.86</ele>
  <time>2026-09-01T20:03:39Z</time>
  <course>189.62</course>
  <speed>2.814977797425763</speed>
  <fix>3d</fix>
</trkpt>
<trkpt lat="-27.274444" lon="151.2900904">
  <ele>355.97</ele>
  <time>2026-09-01T20:03:39Z</time>
  <course>353.94</course>
  <speed>2.81</speed>
  <fix>3d</fix>
</trkpt>
<trkpt lat="-27.2744385" lon="151.2900898">
  <ele>355.83</ele>
  <time>2026-09-01T20:03:39Z</time>
  <course>189.79</course>
  <speed>2.814977797425763</speed>
  <fix>3d</fix>
</trkpt>
<trkpt lat="-27.274444" lon="151.2900904">
  <ele>355.97</ele>
  <time>2026-09-01T20:03:39Z</time>
  <course>353.94</course>
  <speed>2.81</speed>
  <fix>3d</fix>
</trkpt>
<trkpt lat="-27.2744358" lon="151.2900893">
  <ele>355.97</ele>
  <time>2026-09-01T20:03:39Z</time>
  <course>189.95</course>
  <speed>2.948525055006316</speed>
  <fix>3d</fix>
</trkpt>
<trkpt lat="-27.2744389" lon="151.2900897">
  <ele>355.88</ele>
  <time>2026-09-01T20:03:39Z</time>
  <course>353.41</course>
  <speed>2.95</speed>
  <fix>3d</fix>
</trkpt>
<trkpt lat="-27.2744331" lon="151.290089">
  <ele>355.79</ele>
  <time>2026-09-01T20:03:39Z</time>
  <course>190.09</course>
  <speed>2.948525055006316</speed>
  <fix>3d</fix>
</trkpt>
<trkpt lat="-27.2744389" lon="151.2900897">
  <ele>355.88</ele>
  <time>2026-09-01T20:03:39Z</time>
  <course>353.41</course>
  <speed>2.95</speed>
  <fix>3d</fix>
</trkpt>
<trkpt lat="-27.2744303" lon="151.2900887">
  <ele>355.92</ele>
  <time>2026-09-01T20:03:39Z</time>
  <course>190.22</course>
  <speed>3.0735809733924366</speed>
  <fix>3d</fix>
</trkpt>
<trkpt lat="-27.2744335" lon="151.2900891">
  <ele>355.8</ele>
  <time>2026-09-01T20:03:39Z</time>
  <course>352.84</course>
  <speed>3.07</speed>
  <fix>3d</fix>
</trkpt>
<trkpt lat="-27.2744275" lon="151.2900883">
  <ele>355.82</ele>
  <time>2026-09-01T20:03:39Z</time>
  <course>190.34</course>
  <speed>3.0735809733924366</speed>
  <fix>3d</fix>
</trkpt>
<trkpt lat="-27.2744335" lon="151.2900891">
  <ele>355.8</ele>
  <time>2026-09-01T20:03:39Z</time>
  <course>352.84</course>
  <speed>3.07</speed>
  <fix>3d</fix>
</trkpt>
<trkpt lat="-27.2744246" lon="151.2900877">
  <ele>355.84</ele>
  <time>2026-09-01T20:03:39Z</time>
  <course>190.44</course>
  <speed>3.158053197778657</speed>
  <fix>3d</fix>
</trkpt>
<trkpt lat="-27.2744279" lon="151.2900882">
  <ele>355.75</ele>
  <time>2026-09-01T20:03:39Z</time>
  <course>352.2</course>
  <speed>3.16</speed>
  <fix>3d</fix>
</trkpt>
<trkpt lat="-27.2744218" lon="151.2900873">
  <ele>355.72</ele>
  <time>2026-09-01T20:03:39Z</time>
  <course>190.53</course>
  <speed>3.158053197778657</speed>
  <fix>3d</fix>
</trkpt>
<trkpt lat="-27.2744279" lon="151.2900882">
  <ele>355.75</ele>
  <time>2026-09-01T20:03:39Z</time>
  <course>352.2</course>
  <speed>3.16</speed>
  <fix>3d</fix>
</trkpt>
<trkpt lat="-27.2744188" lon="151.2900868">
  <ele>355.5</ele>
  <time>2026-09-01T20:03:39Z</time>
  <course>190.61</course>
  <speed>3.2145450689016632</speed>
  <fix>3d</fix>
</trkpt>
<trkpt lat="-27.2744222" lon="151.2900873">
  <ele>355.71</ele>
  <time>2026-09-01T20:03:39Z</time>
  <course>351.47</course>
  <speed>3.21</speed>
  <fix>3d</fix>
</trkpt>
<trkpt lat="-27.274416" lon="151.2900863">
  <ele>355.52</ele>
  <time>2026-09-01T20:03:39Z</time>
  <course>190.66</course>
  <speed>3.2145450689016632</speed>
  <fix>3d</fix>
</trkpt>
<trkpt lat="-27.2744222" lon="151.2900873">
  <ele>355.71</ele>
  <time>2026-09-01T20:03:39Z</time>
  <course>351.47</course>
  <speed>3.21</speed>
  <fix>3d</fix>
</trkpt>
<trkpt lat="-27.2744131" lon="151.2900857">
  <ele>355.75</ele>
  <time>2026-09-01T20:03:39Z</time>
  <course>190.71</course>
  <speed>3.232104577516018</speed>
  <fix>3d</fix>
</trkpt>
<trkpt lat="-27.2744165" lon="151.2900863">
  <ele>355.7</ele>
  <time>2026-09-01T20:03:39Z</time>
  <course>350.6</course>
  <speed>3.23</speed>
  <fix>3d</fix>
</trkpt>
<trkpt lat="-27.2744102" lon="151.2900852">
  <ele>355.82</ele>
  <time>2026-09-01T20:03:39Z</time>
  <course>190.74</course>
  <speed>3.232104577516018</speed>
  <fix>3d</fix>
</trkpt>
<trkpt lat="-27.2744165" lon="151.2900863">
  <ele>355.7</ele>
  <time>2026-09-01T20:03:39Z</time>
  <course>350.6</course>
  <speed>3.23</speed>
  <fix>3d</fix>
</trkpt>
<trkpt lat="-27.2744074" lon="151.2900845">
  <ele>355.85</ele>
  <time>2026-09-01T20:03:39Z</time>
  <course>190.77</course>
  <speed>3.2127869521647403</speed>
  <fix>3d</fix>
</trkpt>
<trkpt lat="-27.2744108" lon="151.2900852">
  <ele>355.71</ele>
  <time>2026-09-01T20:03:39Z</time>
  <course>349.58</course>
  <speed>3.22</speed>
  <fix>3d</fix>
</trkpt>
<trkpt lat="-27.2744046" lon="151.290084">
  <ele>355.61</ele>
  <time>2026-09-01T20:03:39Z</time>
  <course>190.78</course>
  <speed>3.2127869521647403</speed>
  <fix>3d</fix>
</trkpt>
<trkpt lat="-27.2744108" lon="151.2900852">
  <ele>355.71</ele>
  <time>2026-09-01T20:03:39Z</time>
  <course>349.58</course>
  <speed>3.22</speed>
  <fix>3d</fix>
</trkpt>
<trkpt lat="-27.2744018" lon="151.2900832">
  <ele>355.59</ele>
  <time>2026-09-01T20:03:39Z</time>
  <course>190.79</course>
  <speed>3.1535694062442956</speed>
  <fix>3d</fix>
</trkpt>
<trkpt lat="-27.2744051" lon="151.2900839">
  <ele>355.75</ele>
  <time>2026-09-01T20:03:39Z</time>
  <course>348.36</course>
  <speed>3.16</speed>
  <fix>3d</fix>
</trkpt>
<trkpt lat="-27.274399" lon="151.2900825">
  <ele>355.64</ele>
  <time>2026-09-01T20:03:39Z</time>
  <course>190.78</course>
  <speed>3.1535694062442956</speed>
  <fix>3d</fix>
</trkpt>
<trkpt lat="-27.2744051" lon="151.2900839">
  <ele>355.75</ele>
  <time>2026-09-01T20:03:39Z</time>
  <course>348.36</course>
  <speed>3.16</speed>
  <fix>3d</fix>
</trkpt>
<trkpt lat="-27.2743965" lon="151.2900818">
  <ele>355.67</ele>
  <time>2026-09-01T20:03:39Z</time>
  <course>190.77</course>
  <speed>3.068582734749057</speed>
  <fix>3d</fix>
</trkpt>
<trkpt lat="-27.2743997" lon="151.2900826">
  <ele>355.81</ele>
  <time>2026-09-01T20:03:39Z</time>
  <course>346.89</course>
  <speed>3.07</speed>
  <fix>3d</fix>
</trkpt>
<trkpt lat="-27.2743938" lon="151.2900811">
  <ele>356.02</ele>
  <time>2026-09-01T20:03:39Z</time>
  <course>190.75</course>
  <speed>3.068582734749057</speed>
  <fix>3d</fix>
</trkpt>
<trkpt lat="-27.2743997" lon="151.2900826">
  <ele>355.81</ele>
  <time>2026-09-01T20:03:39Z</time>
  <course>346.89</course>
  <speed>3.07</speed>
  <fix>3d</fix>
</trkpt>
<trkpt lat="-27.2743914" lon="151.2900802">
  <ele>355.99</ele>
  <time>2026-09-01T20:03:39Z</time>
  <course>190.73</course>
  <speed>2.9373627627516488</speed>
  <fix>3d</fix>
</trkpt>
<trkpt lat="-27.2743944" lon="151.2900811">
  <ele>355.88</ele>
  <time>2026-09-01T20:03:39Z</time>
  <course>345.13</course>
  <speed>2.94</speed>
  <fix>3d</fix>
</trkpt>
<trkpt lat="-27.2743888" lon="151.2900795">
  <ele>355.97</ele>
  <time>2026-09-01T20:03:39Z</time>
  <course>190.69</course>
  <speed>2.9373627627516488</speed>
  <fix>3d</fix>
</trkpt>
<trkpt lat="-27.2743944" lon="151.2900811">
  <ele>355.88</ele>
  <time>2026-09-01T20:03:39Z</time>
  <course>345.13</course>
  <speed>2.94</speed>
  <fix>3d</fix>
</trkpt>
<trkpt lat="-27.2743867" lon="151.2900786">
  <ele>356.19</ele>
  <time>2026-09-01T20:03:39Z</time>
  <course>190.66</course>
  <speed>2.7710286898550867</speed>
  <fix>3d</fix>
</trkpt>
<trkpt lat="-27.2743895" lon="151.2900795">
  <ele>355.97</ele>
  <time>2026-09-01T20:03:39Z</time>
  <course>343.0</course>
  <speed>2.78</speed>
  <fix>3d</fix>
</trkpt>
<trkpt lat="-27.2743843" lon="151.2900777">
  <ele>356.05</ele>
  <time>2026-09-01T20:03:39Z</time>
  <course>190.61</course>
  <speed>2.7710286898550867</speed>
  <fix>3d</fix>
</trkpt>
<trkpt lat="-27.2743895" lon="151.2900795">
  <ele>355.97</ele>
  <time>2026-09-01T20:03:39Z</time>
  <course>343.0</course>
  <speed>2.78</speed>
  <fix>3d</fix>
</trkpt>
<trkpt lat="-27.2743824" lon="151.2900768">
  <ele>355.98</ele>
  <time>2026-09-01T20:03:39Z</time>
  <course>190.55</course>
  <speed>2.587121953059036</speed>
  <fix>3d</fix>
</trkpt>
<trkpt lat="-27.274385" lon="151.2900778">
  <ele>356.06</ele>
  <time>2026-09-01T20:03:39Z</time>
  <course>340.43</course>
  <speed>2.59</speed>
  <fix>3d</fix>
</trkpt>
<trkpt lat="-27.2743802" lon="151.2900759">
  <ele>356.19</ele>
  <time>2026-09-01T20:03:39Z</time>
  <course>190.49</course>
  <speed>2.587121953059036</speed>
  <fix>3d</fix>
</trkpt>
<trkpt lat="-27.274385" lon="151.2900778">
  <ele>356.06</ele>
  <time>2026-09-01T20:03:39Z</time>
  <course>340.43</course>
  <speed>2.59</speed>
  <fix>3d</fix>
</trkpt>
<trkpt lat="-27.2743784" lon="151.2900749">
  <ele>356.29</ele>
  <time>2026-09-01T20:03:39Z</time>
  <course>190.42</course>
  <speed>2.3846173697262207</speed>
  <fix>3d</fix>
</trkpt>
<trkpt lat="-27.2743807" lon="151.290076">
  <ele>356.15</ele>
  <time>2026-09-01T20:03:39Z</time>
  <course>337.3</course>
  <speed>2.39</speed>
  <fix>3d</fix>
</trkpt>
<trkpt lat="-27.2743764" lon="151.290074">
  <ele>356.02</ele>
  <time>2026-09-01T20:03:39Z</time>
  <course>190.36</course>
  <speed>2.3846173697262207</speed>
  <fix>3d</fix>
</trkpt>
<trkpt lat="-27.2743807" lon="151.290076">
  <ele>356.15</ele>
  <time>2026-09-01T20:03:39Z</time>
  <course>337.3</course>
  <speed>2.39</speed>
  <fix>3d</fix>
</trkpt>
<trkpt lat="-27.274375" lon="151.290073">
  <ele>356.29</ele>
  <time>2026-09-01T20:03:39Z</time>
  <course>190.28</course>
  <speed>2.168985938174796</speed>
  <fix>3d</fix>
</trkpt>
<trkpt lat="-27.274377" lon="151.2900741">
  <ele>356.23</ele>
  <time>2026-09-01T20:03:39Z</time>
  <course>333.41</course>
  <speed>2.17</speed>
  <fix>3d</fix>
</trkpt>
<trkpt lat="-27.2743732" lon="151.290072">
  <ele>356.19</ele>
  <time>2026-09-01T20:03:39Z</time>
  <course>190.2</course>
  <speed>2.168985938174796</speed>
  <fix>3d</fix>
</trkpt>
<trkpt lat="-27.274377" lon="151.2900741">
  <ele>356.23</ele>
  <time>2026-09-01T20:03:39Z</time>
  <course>333.41</course>
  <speed>2.17</speed>
  <fix>3d</fix>
</trkpt>
<trkpt lat="-27.2743721" lon="151.2900709">
  <ele>356.51</ele>
  <time>2026-09-01T20:03:39Z</time>
  <course>190.11</course>
  <speed>1.9345800577903205</speed>
  <fix>3d</fix>
</trkpt>
<trkpt lat="-27.2743738" lon="151.2900721">
  <ele>356.31</ele>
  <time>2026-09-01T20:03:39Z</time>
  <course>328.5</course>
  <speed>1.94</speed>
  <fix>3d</fix>
</trkpt>
<trkpt lat="-27.2743706" lon="151.2900699">
  <ele>356.27</ele>
  <time>2026-09-01T20:03:39Z</time>
  <course>190.01</course>
  <speed>1.9345800577903205</speed>
  <fix>3d</fix>
</trkpt>
<trkpt lat="-27.2743738" lon="151.2900721">
  <ele>356.31</ele>
  <time>2026-09-01T20:03:39Z</time>
  <course>328.5</course>
  <speed>1.94</speed>
  <fix>3d</fix>
</trkpt>
<trkpt lat="-27.2743697" lon="151.2900688">
  <ele>356.41</ele>
  <time>2026-09-01T20:03:39Z</time>
  <course>189.91</course>
  <speed>1.7181676286090366</speed>
  <fix>3d</fix>
</trkpt>
<trkpt lat="-27.2743711" lon="151.29007">
  <ele>356.38</ele>
  <time>2026-09-01T20:03:39Z</time>
  <course>322.17</course>
  <speed>1.72</speed>
  <fix>3d</fix>
</trkpt>
<trkpt lat="-27.2743685" lon="151.2900677">
  <ele>356.3</ele>
  <time>2026-09-01T20:03:39Z</time>
  <course>189.8</course>
  <speed>1.7181676286090366</speed>
  <fix>3d</fix>
</trkpt>
<trkpt lat="-27.2743711" lon="151.29007">
  <ele>356.38</ele>
  <time>2026-09-01T20:03:39Z</time>
  <course>322.17</course>
  <speed>1.72</speed>
  <fix>3d</fix>
</trkpt>
<trkpt lat="-27.2743678" lon="151.2900665">
  <ele>356.36</ele>
  <time>2026-09-01T20:03:39Z</time>
  <course>189.68</course>
  <speed>1.5134728276384746</speed>
  <fix>3d</fix>
</trkpt>
<trkpt lat="-27.2743689" lon="151.2900678">
  <ele>356.44</ele>
  <time>2026-09-01T20:03:39Z</time>
  <course>313.95</course>
  <speed>1.51</speed>
  <fix>3d</fix>
</trkpt>
<trkpt lat="-27.2743669" lon="151.2900654">
  <ele>356.45</ele>
  <time>2026-09-01T20:03:39Z</time>
  <course>189.57</course>
  <speed>1.5134728276384746</speed>
  <fix>3d</fix>
</trkpt>
<trkpt lat="-27.2743689" lon="151.2900678">
  <ele>356.44</ele>
  <time>2026-09-01T20:03:39Z</time>
  <course>313.95</course>
  <speed>1.51</speed>
  <fix>3d</fix>
</trkpt>
<trkpt lat="-27.2743666" lon="151.2900643">
  <ele>356.54</ele>
  <time>2026-09-01T20:03:39Z</time>
  <course>189.44</course>
  <speed>1.336899397860587</speed>
  <fix>3d</fix>
</trkpt>
<trkpt lat="-27.2743673" lon="151.2900656">
  <ele>356.49</ele>
  <time>2026-09-01T20:03:39Z</time>
  <course>303.31</course>
  <speed>1.34</speed>
  <fix>3d</fix>
</trkpt>
<trkpt lat="-27.2743659" lon="151.2900632">
  <ele>356.49</ele>
  <time>2026-09-01T20:03:39Z</time>
  <course>189.31</course>
  <speed>1.336899397860587</speed>
  <fix>3d</fix>
</trkpt>
<trkpt lat="-27.2743673" lon="151.2900656">
  <ele>356.49</ele>
  <time>2026-09-01T20:03:39Z</time>
  <course>303.31</course>
  <speed>1.34</speed>
  <fix>3d</fix>
</trkpt>
<trkpt lat="-27.2743658" lon="151.290062">
  <ele>356.67</ele>
  <time>2026-09-01T20:03:39Z</time>
  <course>189.18</course>
  <speed>1.2114866899805379</speed>
  <fix>3d</fix>
</trkpt>
<trkpt lat="-27.2743662" lon="151.2900633">
  <ele>356.53</ele>
  <time>2026-09-01T20:03:39Z</time>
  <course>290.0</course>
  <speed>1.21</speed>
  <fix>3d</fix>
</trkpt>
<trkpt lat="-27.2743654" lon="151.2900608">
  <ele>356.61</ele>
  <time>2026-09-01T20:03:39Z</time>
  <course>189.04</course>
  <speed>1.2114866899805379</speed>
  <fix>3d</fix>
</trkpt>
<trkpt lat="-27.2743662" lon="151.2900633">
  <ele>356.53</ele>
  <time>2026-09-01T20:03:39Z</time>
  <course>290.0</course>
  <speed>1.21</speed>
  <fix>3d</fix>
</trkpt>
<trkpt lat="-27.2743657" lon="151.2900595">
  <ele>356.6</ele>
  <time>2026-09-01T20:03:39Z</time>
  <course>188.9</course>
  <speed>1.1535163631262453</speed>
  <fix>3d</fix>
</trkpt>
<trkpt lat="-27.2743658" lon="151.2900609">
  <ele>356.57</ele>
  <time>2026-09-01T20:03:39Z</time>
  <course>274.71</course>
  <speed>1.16</speed>
  <fix>3d</fix>
</trkpt>
<trkpt lat="-27.2743657" lon="151.2900584">
  <ele>356.75</ele>
  <time>2026-09-01T20:03:39Z</time>
  <course>188.76</course>
  <speed>1.1535163631262453</speed>
  <fix>3d</fix>
</trkpt>
<trkpt lat="-27.2743658" lon="151.2900609">
  <ele>356.57</ele>
  <time>2026-09-01T20:03:39Z</time>
  <course>274.71</course>
  <speed>1.16</speed>
  <fix>3d</fix>
</trkpt>
<trkpt lat="-27.2743661" lon="151.2900572">
  <ele>356.66</ele>
  <time>2026-09-01T20:03:39Z</time>
  <course>188.61</course>
  <speed>1.1806777714516352</speed>
  <fix>3d</fix>
</trkpt>
<trkpt lat="-27.2743659" lon="151.2900586">
  <ele>356.6</ele>
  <time>2026-09-01T20:03:39Z</time>
  <course>259.2</course>
  <speed>1.18</speed>
  <fix>3d</fix>
</trkpt>
<trkpt lat="-27.2743663" lon="151.2900561">
  <ele>356.74</ele>
  <time>2026-09-01T20:03:39Z</time>
  <course>188.46</course>
  <speed>1.1806777714516352</speed>
  <fix>3d</fix>
</trkpt>
<trkpt lat="-27.2743659" lon="151.2900586">
  <ele>356.6</ele>
  <time>2026-09-01T20:03:39Z</time>
  <course>259.2</course>
  <speed>1.18</speed>
  <fix>3d</fix>
</trkpt>
<trkpt lat="-27.274367" lon="151.2900549">
  <ele>356.64</ele>
  <time>2026-09-01T20:03:39Z</time>
  <course>188.3</course>
  <speed>1.27534309109353</speed>
  <fix>3d</fix>
</trkpt>
<trkpt lat="-27.2743665" lon="151.2900563">
  <ele>356.63</ele>
  <time>2026-09-01T20:03:39Z</time>
  <course>245.37</course>
  <speed>1.27</speed>
  <fix>3d</fix>
</trkpt>
<trkpt lat="-27.2743675" lon="151.2900538">
  <ele>356.81</ele>
  <time>2026-09-01T20:03:39Z</time>
  <course>188.15</course>
  <speed>1.27534309109353</speed>
  <fix>3d</fix>
</trkpt>
<trkpt lat="-27.2743665" lon="151.2900563">
  <ele>356.63</ele>
  <time>2026-09-01T20:03:39Z</time>
  <course>245.37</course>
  <speed>1.27</speed>
  <fix>3d</fix>
</trkpt>
<trkpt lat="-27.2743685" lon="151.2900526">
  <ele>356.5</ele>
  <time>2026-09-01T20:03:39Z</time>
  <course>187.99</course>
  <speed>1.4182383438618489</speed>
  <fix>3d</fix>
</trkpt>
<trkpt lat="-27.2743677" lon="151.2900539">
  <ele>356.65</ele>
  <time>2026-09-01T20:03:39Z</time>
  <course>234.12</course>
  <speed>1.42</speed>
  <fix>3d</fix>
</trkpt>
<trkpt lat="-27.2743693" lon="151.2900514">
  <ele>356.81</ele>
  <time>2026-09-01T20:03:39Z</time>
  <course>187.84</course>
  <speed>1.4182383438618489</speed>
  <fix>3d</fix>
</trkpt>
<trkpt lat="-27.2743677" lon="151.2900539">
  <ele>356.65</ele>
  <time>2026-09-01T20:03:39Z</time>
  <course>234.12</course>
  <speed>1.42</speed>
  <fix>3d</fix>
</trkpt>
<trkpt lat="-27.2743707" lon="151.2900503">
  <ele>356.53</ele>
  <time>2026-09-01T20:03:39Z</time>
  <course>187.68</course>
  <speed>1.5910059710761615</speed>
  <fix>3d</fix>
</trkpt>
<trkpt lat="-27.2743695" lon="151.2900516">
  <ele>356.66</ele>
  <time>2026-09-01T20:03:39Z</time>
  <course>225.33</course>
  <speed>1.59</speed>
  <fix>3d</fix>
</trkpt>
<trkpt lat="-27.2743717" lon="151.2900491">
  <ele>356.68</ele>
  <time>2026-09-01T20:03:39Z</time>
  <course>187.52</course>
  <speed>1.5910059710761615</speed>
  <fix>3d</fix>
</trkpt>
<trkpt lat="-27.2743695" lon="151.2900516">
  <ele>356.66</ele>
  <time>2026-09-01T20:03:39Z</time>
  <course>225.33</course>
  <speed>1.59</speed>
  <fix>3d</fix>
</trkpt>
<trkpt lat="-27.2743732" lon="151.290048">
  <ele>356.55</ele>
  <time>2026-09-01T20:03:39Z</time>
  <course>187.36</course>
  <speed>1.7788198334851115</speed>
  <fix>3d</fix>
</trkpt>
<trkpt lat="-27.2743717" lon="151.2900493">
  <ele>356.69</ele>
  <time>2026-09-01T20:03:39Z</time>
  <course>218.46</course>
  <speed>1.78</speed>
  <fix>3d</fix>
</trkpt>
<trkpt lat="-27.2743744" lon="151.2900469">
  <ele>356.86</ele>
  <time>2026-09-01T20:03:39Z</time>
  <course>187.2</course>
  <speed>1.7788198334851115</speed>
  <fix>3d</fix>
</trkpt>
<trkpt lat="-27.2743717" lon="151.2900493">
  <ele>356.69</ele>
  <time>2026-09-01T20:03:39Z</time>
  <course>218.46</course>
  <speed>1.78</speed>
  <fix>3d</fix>
</trkpt>
<trkpt lat="-27.2743762" lon="151.2900458">
  <ele>356.85</ele>
  <time>2026-09-01T20:03:39Z</time>
  <course>187.04</course>
  <speed>1.9665706191235544</speed>
  <fix>3d</fix>
</trkpt>
<trkpt lat="-27.2743745" lon="151.2900471">
  <ele>356.72</ele>
  <time>2026-09-01T20:03:39Z</time>
  <course>213.04</course>
  <speed>1.97</speed>
  <fix>3d</fix>
</trkpt>
<trkpt lat="-27.2743777" lon="151.2900448">
  <ele>356.86</ele>
  <time>2026-09-01T20:03:39Z</time>
  <course>186.88</course>
  <speed>1.9665706191235544</speed>
  <fix>3d</fix>
</trkpt>
<trkpt lat="-27.2743745" lon="151.2900471">
  <ele>356.72</ele>
  <time>2026-09-01T20:03:39Z</time>
  <course>213.04</course>
  <speed>1.97</speed>
  <fix>3d</fix>
</trkpt>
<trkpt lat="-27.2743797" lon="151.2900438">
  <ele>356.71</ele>
  <time>2026-09-01T20:03:39Z</time>
  <course>186.72</course>
  <speed>2.143665085781825</speed>
  <fix>3d</fix>
</trkpt>
<trkpt lat="-27.2743777" lon="151.290045">
  <ele>356.75</ele>
  <time>2026-09-01T20:03:39Z</time>
  <course>208.67</course>
  <speed>2.15</speed>
  <fix>3d</fix>
</trkpt>
<trkpt lat="-27.2743814" lon="151.2900428">
  <ele>356.92</ele>
  <time>2026-09-01T20:03:39Z</time>
  <course>186.55</course>
  <speed>2.143665085781825</speed>
  <fix>3d</fix>
</trkpt>
<trkpt lat="-27.2743777" lon="151.290045">
  <ele>356.75</ele>
  <time>2026-09-01T20:03:39Z</time>
  <course>208.67</course>
  <speed>2.15</speed>
  <fix>3d</fix>
</trkpt>
<trkpt lat="-27.2743835" lon="151.2900419">
  <ele>356.88</ele>
  <time>2026-09-01T20:03:39Z</time>
  <course>186.39</course>
  <speed>2.308354392202376</speed>
  <fix>3d</fix>
</trkpt>
<trkpt lat="-27.2743813" lon="151.290043">
  <ele>356.78</ele>
  <time>2026-09-01T20:03:39Z</time>
  <course>205.04</course>
  <speed>2.31</speed>
  <fix>3d</fix>
</trkpt>
<trkpt lat="-27.2743854" lon="151.2900409">
  <ele>356.75</ele>
  <time>2026-09-01T20:03:39Z</time>
  <course>186.22</course>
  <speed>2.308354392202376</speed>
  <fix>3d</fix>
</trkpt>
<trkpt lat="-27.2743813" lon="151.290043">
  <ele>356.78</ele>
  <time>2026-09-01T20:03:39Z</time>
  <course>205.04</course>
  <speed>2.31</speed>
  <fix>3d</fix>
</trkpt>
<trkpt lat="-27.2743876" lon="151.2900399">
  <ele>356.99</ele>
  <time>2026-09-01T20:03:39Z</time>
  <course>186.05</course>
  <speed>2.4586174977006894</speed>
  <fix>3d</fix>
</trkpt>
<trkpt lat="-27.2743852" lon="151.290041">
  <ele>356.83</ele>
  <time>2026-09-01T20:03:39Z</time>
  <course>201.95</course>
  <speed>2.46</speed>
  <fix>3d</fix>
</trkpt>
<trkpt lat="-27.2743897" lon="151.290039">
  <ele>356.69</ele>
  <time>2026-09-01T20:03:39Z</time>
  <course>185.87</course>
  <speed>2.4586174977006894</speed>
  <fix>3d</fix>
</trkpt>
<trkpt lat="-27.2743852" lon="151.290041">
  <ele>356.83</ele>
  <time>2026-09-01T20:03:39Z</time>
  <course>201.95</course>
  <speed>2.46</speed>
  <fix>3d</fix>
</trkpt>
<trkpt lat="-27.2743921" lon="151.2900382">
  <ele>357.0</ele>
  <time>2026-09-01T20:03:39Z</time>
  <course>185.69</course>
  <speed>2.5838150088580263</speed>
  <fix>3d</fix>
</trkpt>
<trkpt lat="-27.2743895" lon="151.2900392">
  <ele>356.88</ele>
  <time>2026-09-01T20:03:39Z</time>
  <course>199.23</course>
  <speed>2.59</speed>
  <fix>3d</fix>
</trkpt>
<trkpt lat="-27.2743943" lon="151.2900374">
  <ele>356.94</ele>
  <time>2026-09-01T20:03:39Z</time>
  <course>185.51</course>
  <speed>2.5838150088580263</speed>
  <fix>3d</fix>
</trkpt>
<trkpt lat="-27.2743895" lon="151.2900392">
  <ele>356.88</ele>
  <time>2026-09-01T20:03:39Z</time>
  <course>199.23</course>
  <speed>2.59</speed>
  <fix>3d</fix>
</trkpt>
<trkpt lat="-27.2743967" lon="151.2900367">
  <ele>357.01</ele>
  <time>2026-09-01T20:03:39Z</time>
  <course>185.33</course>
  <speed>2.6924524136927657</speed>
  <fix>3d</fix>
</trkpt>
<trkpt lat="-27.274394" lon="151.2900376">
  <ele>356.94</ele>
  <time>2026-09-01T20:03:39Z</time>
  <course>196.77</course>
  <speed>2.69</speed>
  <fix>3d</fix>
</trkpt>
<trkpt lat="-27.274399" lon="151.2900359">
  <ele>357.06</ele>
  <time>2026-09-01T20:03:39Z</time>
  <course>185.14</course>
  <speed>2.6924524136927657</speed>
  <fix>3d</fix>
</trkpt>
<trkpt lat="-27.274394" lon="151.2900376">
  <ele>356.94</ele>
  <time>2026-09-01T20:03:39Z</time>
  <course>196.77</course>
  <speed>2.69</speed>
  <fix>3d</fix>
</trkpt>
<trkpt lat="-27.2744015" lon="151.2900353">
  <ele>357.12</ele>
  <time>2026-09-01T20:03:39Z</time>
  <course>184.95</course>
  <speed>2.76739950133695</speed>
  <fix>3d</fix>
</trkpt>
<trkpt lat="-27.2743987" lon="151.2900361">
  <ele>357.02</ele>
  <time>2026-09-01T20:03:39Z</time>
  <course>194.48</course>
  <speed>2.77</speed>
  <fix>3d</fix>
</trkpt>
<trkpt lat="-27.274404" lon="151.2900346">
  <ele>357.18</ele>
  <time>2026-09-01T20:03:39Z</time>
  <course>184.76</course>
  <speed>2.76739950133695</speed>
  <fix>3d</fix>
</trkpt>
<trkpt lat="-27.2743987" lon="151.2900361">
  <ele>357.02</ele>
  <time>2026-09-01T20:03:39Z</time>
  <course>194.48</course>
  <speed>2.77</speed>
  <fix>3d</fix>
</trkpt>
<trkpt lat="-27.2744065" lon="151.2900341">
  <ele>357.04</ele>
  <time>2026-09-01T20:03:39Z</time>
  <course>184.57</course>
  <speed>2.8244645510255566</speed>
  <fix>3d</fix>
</trkpt>
<trkpt lat="-27.2744036" lon="151.2900348">
  <ele>357.1</ele>
  <time>2026-09-01T20:03:39Z</time>
  <course>192.31</course>
  <speed>2.82</speed>
  <fix>3d</fix>
</trkpt>
<trkpt lat="-27.274409" lon="151.2900335">
  <ele>357.01</ele>
  <time>2026-09-01T20:03:39Z</time>
  <course>184.38</course>
  <speed>2.8244645510255566</speed>
  <fix>3d</fix>
</trkpt>
<trkpt lat="-27.2744036" lon="151.2900348">
  <ele>357.1</ele>
  <time>2026-09-01T20:03:39Z</time>
  <course>192.31</course>
  <speed>2.82</speed>
  <fix>3d</fix>
</trkpt>
<trkpt lat="-27.2744116" lon="151.290033">
  <ele>357.32</ele>
  <time>2026-09-01T20:03:39Z</time>
  <course>184.19</course>
  <speed>2.8541373477812875</speed>
  <fix>3d</fix>
</trkpt>
<trkpt lat="-27.2744086" lon="151.2900336">
  <ele>357.2</ele>
  <time>2026-09-01T20:03:39Z</time>
  <course>190.19</course>
  <speed>2.85</speed>
  <fix>3d</fix>
</trkpt>
<trkpt lat="-27.2744141" lon="151.2900325">
  <ele>357.45</ele>
  <time>2026-09-01T20:03:39Z</time>
  <course>184.0</course>
  <speed>2.8541373477812875</speed>
  <fix>3d</fix>
</trkpt>
<trkpt lat="-27.2744086" lon="151.2900336">
  <ele>357.2</ele>
  <time>2026-09-01T20:03:39Z</time>
  <course>190.19</course>
  <speed>2.85</speed>
  <fix>3d</fix>
</trkpt>
<trkpt lat="-27.2744167" lon="151.2900324">
  <ele>357.33</ele>
  <time>2026-09-01T20:03:39Z</time>
  <course>183.81</course>
  <speed>2.858128758471178</speed>
  <fix>3d</fix>
</trkpt>
<trkpt lat="-27.2744137" lon="151.2900328">
  <ele>357.3</ele>
  <time>2026-09-01T20:03:39Z</time>
  <course>188.09</course>
  <speed>2.86</speed>
  <fix>3d</fix>
</trkpt>
<trkpt lat="-27.2744192" lon="151.290032">
  <ele>357.21</ele>
  <time>2026-09-01T20:03:39Z</time>
  <course>183.62</course>
  <speed>2.858128758471178</speed>
  <fix>3d</fix>
</trkpt>
<trkpt lat="-27.2744137" lon="151.2900328">
  <ele>357.3</ele>
  <time>2026-09-01T20:03:39Z</time>
  <course>188.09</course>
  <speed>2.86</speed>
  <fix>3d</fix>
</trkpt>
<trkpt lat="-27.2744218" lon="151.2900318">
  <ele>357.41</ele>
  <time>2026-09-01T20:03:39Z</time>
  <course>183.43</course>
  <speed>2.834872131155125</speed>
  <fix>3d</fix>
</trkpt>
<trkpt lat="-27.2744188" lon="151.2900321">
  <ele>357.41</ele>
  <time>2026-09-01T20:03:39Z</time>
  <course>185.97</course>
  <speed>2.84</speed>
  <fix>3d</fix>
</trkpt>
<trkpt lat="-27.2744244" lon="151.2900315">
  <ele>357.41</ele>
  <time>2026-09-01T20:03:39Z</time>
  <course>183.24</course>
  <speed>2.834872131155125</speed>
  <fix>3d</fix>
</trkpt>
<trkpt lat="-27.2744188" lon="151.2900321">
  <ele>357.41</ele>
  <time>2026-09-01T20:03:39Z</time>
  <course>185.97</course>
  <speed>2.84</speed>
  <fix>3d</fix>
</trkpt>
<trkpt lat="-27.2744269" lon="151.2900314">
  <ele>357.38</ele>
  <time>2026-09-01T20:03:39Z</time>
  <course>183.05</course>
  <speed>2.795800422061632</speed>
  <fix>3d</fix>
</trkpt>
<trkpt lat="-27.2744239" lon="151.2900316">
  <ele>357.53</ele>
  <time>2026-09-01T20:03:39Z</time>
  <course>183.8</course>
  <speed>2.8</speed>
  <fix>3d</fix>
</trkpt>
<trkpt lat="-27.2744294" lon="151.2900312">
  <ele>357.45</ele>
  <time>2026-09-01T20:03:39Z</time>
  <course>182.86</course>
  <speed>2.795800422061632</speed>
  <fix>3d</fix>
</trkpt>
<trkpt lat="-27.2744239" lon="151.2900316">
  <ele>357.53</ele>
  <time>2026-09-01T20:03:39Z</time>
  <course>183.8</course>
  <speed>2.8</speed>
  <fix>3d</fix>
</trkpt>
<trkpt lat="-27.2744317" lon="151.2900313">
  <ele>357.84</ele>
  <time>2026-09-01T20:03:39Z</time>
  <course>182.68</course>
  <speed>2.730897288438362</speed>
  <fix>3d</fix>
</trkpt>
<trkpt lat="-27.2744288" lon="151.2900313">
  <ele>357.65</ele>
  <time>2026-09-01T20:03:39Z</time>
  <course>181.54</course>
  <speed>2.73</speed>
  <fix>3d</fix>
</trkpt>
<trkpt lat="-27.2744342" lon="151.2900312">
  <ele>357.62</ele>
  <time>2026-09-01T20:03:39Z</time>
  <course>182.49</course>
  <speed>2.730897288438362</speed>
  <fix>3d</fix>
</trkpt>
<trkpt lat="-27.2744288" lon="151.2900313">
  <ele>357.65</ele>
  <time>2026-09-01T20:03:39Z</time>
  <course>181.54</course>
  <speed>2.73</speed>
  <fix>3d</fix>
</trkpt>
<trkpt lat="-27.2744365" lon="151.2900311">
  <ele>357.9</ele>
  <time>2026-09-01T20:03:39Z</time>
  <course>182.31</course>
  <speed>2.6501698058803704</speed>
  <fix>3d</fix>
</trkpt>
<trkpt lat="-27.2744337" lon="151.2900311">
  <ele>357.78</ele>
  <time>2026-09-01T20:03:39Z</time>
  <course>179.15</course>
  <speed>2.65</speed>
  <fix>3d</fix>
</trkpt>
<trkpt lat="-27.2744389" lon="151.2900311">
  <ele>357.9</ele>
  <time>2026-09-01T20:03:39Z</time>
  <course>182.13</course>
  <speed>2.6501698058803704</speed>
  <fix>3d</fix>
</trkpt>
<trkpt lat="-27.2744337" lon="151.2900311">
  <ele>357.78</ele>
  <time>2026-09-01T20:03:39Z</time>
  <course>179.15</course>
  <speed>2.65</speed>
  <fix>3d</fix>
</trkpt>
<trkpt lat="-27.2744411" lon="151.2900314">
  <ele>357.77</ele>
  <time>2026-09-01T20:03:39Z</time>
  <course>181.95</course>
  <speed>2.55440795488896</speed>
  <fix>3d</fix>
</trkpt>
<trkpt lat="-27.2744384" lon="151.2900313">
  <ele>357.92</ele>
  <time>2026-09-01T20:03:39Z</time>
  <course>176.59</course>
  <speed>2.55</speed>
  <fix>3d</fix>
</trkpt>
<trkpt lat="-27.2744434" lon="151.2900316">
  <ele>358.09</ele>
  <time>2026-09-01T20:03:39Z</time>
  <course>181.78</course>
  <speed>2.55440795488896</speed>
  <fix>3d</fix>
</trkpt>
<trkpt lat="-27.2744384" lon="151.2900313">
  <ele>357.92</ele>
  <time>2026-09-01T20:03:39Z</time>
  <course>176.59</course>
  <speed>2.55</speed>
  <fix>3d</fix>
</trkpt>
<trkpt lat="-27.2744454" lon="151.2900321">
  <ele>358.14</ele>
  <time>2026-09-01T20:03:39Z</time>
  <course>181.6</course>
  <speed>2.4438698819699876</speed>
  <fix>3d</fix>
</trkpt>
<trkpt lat="-27.2744428" lon="151.2900318">
  <ele>358.06</ele>
  <time>2026-09-01T20:03:39Z</time>
  <course>173.8</course>
  <speed>2.44</speed>
  <fix>3d</fix>
</trkpt>
<trkpt lat="-27.2744476" lon="151.2900323">
  <ele>358.22</ele>
  <time>2026-09-01T20:03:39Z</time>
  <course>181.43</course>
  <speed>2.4438698819699876</speed>
  <fix>3d</fix>
</trkpt>
<trkpt lat="-27.2744428" lon="151.2900318">
  <ele>358.06</ele>
  <time>2026-09-01T20:03:39Z</time>
  <course>173.8</course>
  <speed>2.44</speed>
  <fix>3d</fix>
</trkpt>
<trkpt lat="-27.2744495" lon="151.2900328">
  <ele>358.34</ele>
  <time>2026-09-01T20:03:39Z</time>
  <course>181.27</course>
  <speed>2.3196982562393758</speed>
  <fix>3d</fix>
</trkpt>
<trkpt lat="-27.2744471" lon="151.2900324">
  <ele>358.19</ele>
  <time>2026-09-01T20:03:39Z</time>
  <course>170.73</course>
  <speed>2.32</speed>
  <fix>3d</fix>
</trkpt>
<trkpt lat="-27.2744516" lon="151.2900332">
  <ele>358.22</ele>
  <time>2026-09-01T20:03:39Z</time>
  <course>181.11</course>
  <speed>2.3196982562393758</speed>
  <fix>3d</fix>
</trkpt>
<trkpt lat="-27.2744471" lon="151.2900324">
  <ele>358.19</ele>
  <time>2026-09-01T20:03:39Z</time>
  <course>170.73</course>
  <speed>2.32</speed>
  <fix>3d</fix>
</trkpt>
<trkpt lat="-27.2744534" lon="151.2900338">
  <ele>358.19</ele>
  <time>2026-09-01T20:03:39Z</time>
  <course>180.95</course>
  <speed>2.1834147567514517</speed>
  <fix>3d</fix>
</trkpt>
<trkpt lat="-27.2744511" lon="151.2900333">
  <ele>358.33</ele>
  <time>2026-09-01T20:03:39Z</time>
  <course>167.31</course>
  <speed>2.19</speed>
  <fix>3d</fix>
</trkpt>
<trkpt lat="-27.2744553" lon="151.2900343">
  <ele>358.32</ele>
  <time>2026-09-01T20:03:39Z</time>
  <course>180.8</course>
  <speed>2.1834147567514517</speed>
  <fix>3d</fix>
</trkpt>
<trkpt lat="-27.2744511" lon="151.2900333">
  <ele>358.33</ele>
  <time>2026-09-01T20:03:39Z</time>
  <course>167.31</course>
  <speed>2.19</speed>
  <fix>3d</fix>
</trkpt>
<trkpt lat="-27.2744568" lon="151.2900351">
  <ele>358.37</ele>
  <time>2026-09-01T20:03:39Z</time>
  <course>180.66</course>
  <speed>2.0440156555173443</speed>
  <fix>3d</fix>
</trkpt>
<trkpt lat="-27.2744547" lon="151.2900344">
  <ele>358.46</ele>
  <time>2026-09-01T20:03:39Z</time>
  <course>163.46</course>
  <speed>2.05</speed>
  <fix>3d</fix>
</trkpt>
<trkpt lat="-27.2744585" lon="151.2900356">
  <ele>358.36</ele>
  <time>2026-09-01T20:03:39Z</time>
  <course>180.52</course>
  <speed>2.0440156555173443</speed>
  <fix>3d</fix>
</trkpt>
<trkpt lat="-27.2744547" lon="151.2900344">
  <ele>358.46</ele>
  <time>2026-09-01T20:03:39Z</time>
  <course>163.46</course>
  <speed>2.05</speed>
  <fix>3d</fix>
</trkpt>
<trkpt lat="-27.27446" lon="151.2900364">
  <ele>358.58</ele>
  <time>2026-09-01T20:03:39Z</time>
  <course>180.39</course>
  <speed>1.905465822312224</speed>
  <fix>3d</fix>
</trkpt>
<trkpt lat="-27.2744581" lon="151.2900356">
  <ele>358.58</ele>
  <time>2026-09-01T20:03:39Z</time>
  <course>159.06</course>
  <speed>1.91</speed>
  <fix>3d</fix>
</trkpt>
<trkpt lat="-27.2744616" lon="151.2900371">
  <ele>358.64</ele>
  <time>2026-09-01T20:03:39Z</time>
  <course>180.27</course>
  <speed>1.905465822312224</speed>
  <fix>3d</fix>
</trkpt>
<trkpt lat="-27.2744581" lon="151.2900356">
  <ele>358.58</ele>
  <time>2026-09-01T20:03:39Z</time>
  <course>159.06</course>
  <speed>1.91</speed>
  <fix>3d</fix>
</trkpt>
<trkpt lat="-27.2744629" lon="151.290038">
  <ele>358.74</ele>
  <time>2026-09-01T20:03:39Z</time>
  <course>180.16</course>
  <speed>1.766635219845908</speed>
  <fix>3d</fix>
</trkpt>
<trkpt lat="-27.2744612" lon="151.2900371">
  <ele>358.7</ele>
  <time>2026-09-01T20:03:39Z</time>
  <course>153.99</course>
  <speed>1.77</speed>
  <fix>3d</fix>
</trkpt>
<trkpt lat="-27.2744643" lon="151.2900388">
  <ele>358.84</ele>
  <time>2026-09-01T20:03:39Z</time>
  <course>180.06</course>
  <speed>1.766635219845908</speed>
  <fix>3d</fix>
</trkpt>
<trkpt lat="-27.2744612" lon="151.2900371">
  <ele>358.7</ele>
  <time>2026-09-01T20:03:39Z</time>
  <course>153.99</course>
  <speed>1.77</speed>
  <fix>3d</fix>
</trkpt>
<trkpt lat="-27.2744653" lon="151.2900398">
  <ele>358.95</ele>
  <time>2026-09-01T20:03:39Z</time>
  <course>179.95</course>
  <speed>1.6345335726133008</speed>
  <fix>3d</fix>
</trkpt>
<trkpt lat="-27.2744638" lon="151.2900388">
  <ele>358.81</ele>
  <time>2026-09-01T20:03:39Z</time>
  <course>148.15</course>
  <speed>1.64</speed>
  <fix>3d</fix>
</trkpt>
<trkpt lat="-27.2744665" lon="151.2900407">
  <ele>358.85</ele>
  <time>2026-09-01T20:03:39Z</time>
  <course>179.86</course>
  <speed>1.6345335726133008</speed>
  <fix>3d</fix>
</trkpt>
<trkpt lat="-27.2744638" lon="151.2900388">
  <ele>358.81</ele>
  <time>2026-09-01T20:03:39Z</time>
  <course>148.15</course>
  <speed>1.64</speed>
  <fix>3d</fix>
</trkpt>
<trkpt lat="-27.2744674" lon="151.2900417">
  <ele>358.79</ele>
  <time>2026-09-01T20:03:39Z</time>
  <course>179.79</course>
  <speed>1.5086417732516886</speed>
  <fix>3d</fix>
</trkpt>
<trkpt lat="-27.2744662" lon="151.2900406">
  <ele>358.9</ele>
  <time>2026-09-01T20:03:39Z</time>
  <course>141.46</course>
  <speed>1.51</speed>
  <fix>3d</fix>
</trkpt>
<trkpt lat="-27.2744685" lon="151.2900427">
  <ele>358.96</ele>
  <time>2026-09-01T20:03:39Z</time>
  <course>179.72</course>
  <speed>1.5086417732516886</speed>
  <fix>3d</fix>
</trkpt>
<trkpt lat="-27.2744662" lon="151.2900406">
  <ele>358.9</ele>
  <time>2026-09-01T20:03:39Z</time>
  <course>141.46</course>
  <speed>1.51</speed>
  <fix>3d</fix>
</trkpt>
<trkpt lat="-27.2744691" lon="151.2900438">
  <ele>358.96</ele>
  <time>2026-09-01T20:03:39Z</time>
  <course>179.68</course>
  <speed>1.4003570973148243</speed>
  <fix>3d</fix>
</trkpt>
<trkpt lat="-27.2744681" lon="151.2900426">
  <ele>359.0</ele>
  <time>2026-09-01T20:03:39Z</time>
  <course>133.83</course>
  <speed>1.41</speed>
  <fix>3d</fix>
</trkpt>
<trkpt lat="-27.27447" lon="151.2900448">
  <ele>359.18</ele>
  <time>2026-09-01T20:03:39Z</time>
  <course>179.64</course>
  <speed>1.4003570973148243</speed>
  <fix>3d</fix>
</trkpt>
<trkpt lat="-27.2744681" lon="151.2900426">
  <ele>359.0</ele>
  <time>2026-09-01T20:03:39Z</time>
  <course>133.83</course>
  <speed>1.41</speed>
  <fix>3d</fix>
</trkpt>
<trkpt lat="-27.2744705" lon="151.290046">
  <ele>359.13</ele>
  <time>2026-09-01T20:03:39Z</time>
  <course>179.62</course>
  <speed>1.320605921537534</speed>
  <fix>3d</fix>
</trkpt>
<trkpt lat="-27.2744697" lon="151.2900447">
  <ele>359.07</ele>
  <time>2026-09-01T20:03:39Z</time>
  <course>125.32</course>
  <speed>1.32</speed>
  <fix>3d</fix>
</trkpt>
<trkpt lat="-27.2744712" lon="151.2900471">
  <ele>358.99</ele>
  <time>2026-09-01T20:03:39Z</time>
  <course>179.62</course>
  <speed>1.320605921537534</speed>
  <fix>3d</fix>
</trkpt>
<trkpt lat="-27.2744697" lon="151.2900447">
  <ele>359.07</ele>
  <time>2026-09-01T20:03:39Z</time>
  <course>125.32</course>
  <speed>1.32</speed>
  <fix>3d</fix>
</trkpt>
<trkpt lat="-27.2744715" lon="151.2900483">
  <ele>359.21</ele>
  <time>2026-09-01T20:03:39Z</time>
  <course>179.63</course>
  <speed>1.2567418191498205</speed>
  <fix>3d</fix>
</trkpt>
<trkpt lat="-27.2744709" lon="151.290047">
  <ele>359.14</ele>
  <time>2026-09-01T20:03:39Z</time>
  <course>116.07</course>
  <speed>1.26</speed>
  <fix>3d</fix>
</trkpt>
<trkpt lat="-27.274472" lon="151.2900495">
  <ele>359.12</ele>
  <time>2026-09-01T20:03:39Z</time>
  <course>179.66</course>
  <speed>1.2567418191498205</speed>
  <fix>3d</fix>
</trkpt>
<trkpt lat="-27.2744709" lon="151.290047">
  <ele>359.14</ele>
  <time>2026-09-01T20:03:39Z</time>
  <course>116.07</course>
  <speed>1.26</speed>
  <fix>3d</fix>
</trkpt>
<trkpt lat="-27.274472" lon="151.2900507">
  <ele>359.13</ele>
  <time>2026-09-01T20:03:39Z</time>
  <course>179.71</course>
  <speed>1.2280065146407002</speed>
  <fix>3d</fix>
</trkpt>
<trkpt lat="-27.2744717" lon="151.2900493">
  <ele>359.19</ele>
  <time>2026-09-01T20:03:39Z</time>
  <course>106.39</course>
  <speed>1.23</speed>
  <fix>3d</fix>
</trkpt>
<trkpt lat="-27.2744723" lon="151.2900519">
  <ele>359.3</ele>
  <time>2026-09-01T20:03:39Z</time>
  <course>179.78</course>
  <speed>1.2280065146407002</speed>
  <fix>3d</fix>
</trkpt>
<trkpt lat="-27.2744717" lon="151.2900493">
  <ele>359.19</ele>
  <time>2026-09-01T20:03:39Z</time>
  <course>106.39</course>
  <speed>1.23</speed>
  <fix>3d</fix>
</trkpt>
<trkpt lat="-27.2744722" lon="151.2900532">
  <ele>359.22</ele>
  <time>2026-09-01T20:03:39Z</time>
  <course>179.86</course>
  <speed>1.2180722474467596</speed>
  <fix>3d</fix>
</trkpt>
<trkpt lat="-27.2744721" lon="151.2900518">
  <ele>359.22</ele>
  <time>2026-09-01T20:03:39Z</time>
  <course>96.66</course>
  <speed>1.22</speed>
  <fix>3d</fix>
</trkpt>
<trkpt lat="-27.2744723" lon="151.2900544">
  <ele>359.09</ele>
  <time>2026-09-01T20:03:39Z</time>
  <course>179.97</course>
  <speed>1.2180722474467596</speed>
  <fix>3d</fix>
</trkpt>
<trkpt lat="-27.2744721" lon="151.2900518">
  <ele>359.22</ele>
  <time>2026-09-01T20:03:39Z</time>
  <course>96.66</course>
  <speed>1.22</speed>
  <fix>3d</fix>
</trkpt>
<trkpt lat="-27.2744723" lon="151.2900557">
  <ele>359.36</ele>
  <time>2026-09-01T20:03:39Z</time>
  <course>180.1</course>
  <speed>1.2410076550932312</speed>
  <fix>3d</fix>
</trkpt>
<trkpt lat="-27.2744723" lon="151.2900542">
  <ele>359.25</ele>
  <time>2026-09-01T20:03:39Z</time>
  <course>87.27</course>
  <speed>1.24</speed>
  <fix>3d</fix>
</trkpt>
<trkpt lat="-27.2744722" lon="151.2900569">
  <ele>359.24</ele>
  <time>2026-09-01T20:03:39Z</time>
  <course>180.25</course>
  <speed>1.2410076550932312</speed>
  <fix>3d</fix>
</trkpt>
<trkpt lat="-27.2744723" lon="151.2900542">
  <ele>359.25</ele>
  <time>2026-09-01T20:03:39Z</time>
  <course>87.27</course>
  <speed>1.24</speed>
  <fix>3d</fix>
</trkpt>
<trkpt lat="-27.2744718" lon="151.2900583">
  <ele>359.25</ele>
  <time>2026-09-01T20:03:39Z</time>
  <course>180.41</course>
  <speed>1.2747548783981961</speed>
  <fix>3d</fix>
</trkpt>
<trkpt lat="-27.274472" lon="151.2900568">
  <ele>359.26</ele>
  <time>2026-09-01T20:03:39Z</time>
  <course>78.52</course>
  <speed>1.28</speed>
  <fix>3d</fix>
</trkpt>
<trkpt lat="-27.2744715" lon="151.2900595">
  <ele>359.23</ele>
  <time>2026-09-01T20:03:39Z</time>
  <course>180.6</course>
  <speed>1.2747548783981961</speed>
  <fix>3d</fix>
</trkpt>
<trkpt lat="-27.274472" lon="151.2900568">
  <ele>359.26</ele>
  <time>2026-09-01T20:03:39Z</time>
  <course>78.52</course>
  <speed>1.28</speed>
  <fix>3d</fix>
</trkpt>
<trkpt lat="-27.2744709" lon="151.2900608">
  <ele>359.24</ele>
  <time>2026-09-01T20:03:39Z</time>
  <course>180.81</course>
  <speed>1.3346160496562296</speed>
  <fix>3d</fix>
</trkpt>
<trkpt lat="-27.2744713" lon="151.2900593">
  <ele>359.26</ele>
  <time>2026-09-01T20:03:39Z</time>
  <course>70.54</course>
  <speed>1.33</speed>
  <fix>3d</fix>
</trkpt>
<trkpt lat="-27.2744705" lon="151.2900621">
  <ele>359.11</ele>
  <time>2026-09-01T20:03:39Z</time>
  <course>181.04</course>
  <speed>1.3346160496562296</speed>
  <fix>3d</fix>
</trkpt>
<trkpt lat="-27.2744713" lon="151.2900593">
  <ele>359.26</ele>
  <time>2026-09-01T20:03:39Z</time>
  <course>70.54</course>
  <speed>1.33</speed>
  <fix>3d</fix>
</trkpt>
<trkpt lat="-27.2744698" lon="151.2900634">
  <ele>359.39</ele>
  <time>2026-09-01T20:03:39Z</time>
  <course>181.29</course>
  <speed>1.395313584826006</speed>
  <fix>3d</fix>
</trkpt>
<trkpt lat="-27.2744704" lon="151.2900619">
  <ele>359.25</ele>
  <time>2026-09-01T20:03:39Z</time>
  <course>63.38</course>
  <speed>1.39</speed>
  <fix>3d</fix>
</trkpt>
<trkpt lat="-27.2744692" lon="151.2900646">
  <ele>359.21</ele>
  <time>2026-09-01T20:03:39Z</time>
  <course>181.56</course>
  <speed>1.395313584826006</speed>
  <fix>3d</fix>
</trkpt>
<trkpt lat="-27.2744704" lon="151.2900619">
  <ele>359.25</ele>
  <time>2026-09-01T20:03:39Z</time>
  <course>63.38</course>
  <speed>1.39</speed>
  <fix>3d</fix>
</trkpt>
<trkpt lat="-27.2744683" lon="151.2900658">
  <ele>359.38</ele>
  <time>2026-09-01T20:03:39Z</time>
  <course>181.86</course>
  <speed>1.4618481453283716</speed>
  <fix>3d</fix>
</trkpt>
<trkpt lat="-27.2744691" lon="151.2900644">
  <ele>359.22</ele>
  <time>2026-09-01T20:03:39Z</time>
  <course>56.99</course>
  <speed>1.46</speed>
  <fix>3d</fix>
</trkpt>
<trkpt lat="-27.2744676" lon="151.2900671">
  <ele>359.31</ele>
  <time>2026-09-01T20:03:39Z</time>
  <course>182.17</course>
  <speed>1.4618481453283716</speed>
  <fix>3d</fix>
</trkpt>
<trkpt lat="-27.2744691" lon="151.2900644">
  <ele>359.22</ele>
  <time>2026-09-01T20:03:39Z</time>
  <course>56.99</course>
  <speed>1.46</speed>
  <fix>3d</fix>
</trkpt>
<trkpt lat="-27.2744665" lon="151.2900683">
  <ele>359.03</ele>
  <time>2026-09-01T20:03:39Z</time>
  <course>182.5</course>
  <speed>1.5289538907370621</speed>
  <fix>3d</fix>
</trkpt>
<trkpt lat="-27.2744675" lon="151.2900669">
  <ele>359.19</ele>
  <time>2026-09-01T20:03:39Z</time>
  <course>51.27</course>
  <speed>1.53</speed>
  <fix>3d</fix>
</trkpt>
<trkpt lat="-27.2744657" lon="151.2900695">
  <ele>359.19</ele>
  <time>2026-09-01T20:03:39Z</time>
  <course>182.85</course>
  <speed>1.5289538907370621</speed>
  <fix>3d</fix>
</trkpt>
<trkpt lat="-27.2744675" lon="151.2900669">
  <ele>359.19</ele>
  <time>2026-09-01T20:03:39Z</time>
  <course>51.27</course>
  <speed>1.53</speed>
  <fix>3d</fix>
</trkpt>
<trkpt lat="-27.2744646" lon="151.2900706">
  <ele>359.0</ele>
  <time>2026-09-01T20:03:39Z</time>
  <course>183.22</course>
  <speed>1.598311609167624</speed>
  <fix>3d</fix>
</trkpt>
<trkpt lat="-27.2744657" lon="151.2900692">
  <ele>359.15</ele>
  <time>2026-09-01T20:03:39Z</time>
  <course>46.11</course>
  <speed>1.6</speed>
  <fix>3d</fix>
</trkpt>
<trkpt lat="-27.2744636" lon="151.2900717">
  <ele>358.96</ele>
  <time>2026-09-01T20:03:39Z</time>
  <course>183.6</course>
  <speed>1.598311609167624</speed>
  <fix>3d</fix>
</trkpt>
<trkpt lat="-27.2744657" lon="151.2900692">
  <ele>359.15</ele>
  <time>2026-09-01T20:03:39Z</time>
  <course>46.11</course>
  <speed>1.6</speed>
  <fix>3d</fix>
</trkpt>
<trkpt lat="-27.2744623" lon="151.2900728">
  <ele>359.11</ele>
  <time>2026-09-01T20:03:39Z</time>
  <course>184.0</course>
  <speed>1.6650825805346714</speed>
  <fix>3d</fix>
</trkpt>
<trkpt lat="-27.2744636" lon="151.2900715">
  <ele>359.1</ele>
  <time>2026-09-01T20:03:39Z</time>
  <course>41.4</course>
  <speed>1.67</speed>
  <fix>3d</fix>
</trkpt>
<trkpt lat="-27.2744612" lon="151.2900739">
  <ele>358.97</ele>
  <time>2026-09-01T20:03:39Z</time>
  <course>184.41</course>
  <speed>1.6650825805346714</speed>
  <fix>3d</fix>
</trkpt>
<trkpt lat="-27.2744636" lon="151.2900715">
  <ele>359.1</ele>
  <time>2026-09-01T20:03:39Z</time>
  <course>41.4</course>
  <speed>1.67</speed>
  <fix>3d</fix>
</trkpt>
<trkpt lat="-27.2744598" lon="151.2900749">
  <ele>358.84</ele>
  <time>2026-09-01T20:03:39Z</time>
  <course>184.82</course>
  <speed>1.7280046296234277</speed>
  <fix>3d</fix>
</trkpt>
<trkpt lat="-27.2744612" lon="151.2900737">
  <ele>359.03</ele>
  <time>2026-09-01T20:03:39Z</time>
  <course>37.07</course>
  <speed>1.73</speed>
  <fix>3d</fix>
</trkpt>
<trkpt lat="-27.2744585" lon="151.290076">
  <ele>358.86</ele>
  <time>2026-09-01T20:03:39Z</time>
  <course>185.24</course>
  <speed>1.7280046296234277</speed>
  <fix>3d</fix>
</trkpt>
<trkpt lat="-27.2744612" lon="151.2900737">
  <ele>359.03</ele>
  <time>2026-09-01T20:03:39Z</time>
  <course>37.07</course>
  <speed>1.73</speed>
  <fix>3d</fix>
</trkpt>
<trkpt lat="-27.274457" lon="151.2900768">
  <ele>358.85</ele>
  <time>2026-09-01T20:03:39Z</time>
  <course>185.66</course>
  <speed>1.7779201331893397</speed>
  <fix>3d</fix>
</trkpt>
<trkpt lat="-27.2744586" lon="151.2900757">
  <ele>358.96</ele>
  <time>2026-09-01T20:03:39Z</time>
  <course>33.07</course>
  <speed>1.78</speed>
  <fix>3d</fix>
</trkpt>
<trkpt lat="-27.2744557" lon="151.2900778">
  <ele>358.89</ele>
  <time>2026-09-01T20:03:39Z</time>
  <course>186.08</course>
  <speed>1.7779201331893397</speed>
  <fix>3d</fix>
</trkpt>
<trkpt lat="-27.2744586" lon="151.2900757">
  <ele>358.96</ele>
  <time>2026-09-01T20:03:39Z</time>
  <course>33.07</course>
  <speed>1.78</speed>
  <fix>3d</fix>
</trkpt>
<trkpt lat="-27.2744541" lon="151.2900786">
  <ele>358.66</ele>
  <time>2026-09-01T20:03:39Z</time>
  <course>186.5</course>
  <speed>1.8221415971323416</speed>
  <fix>3d</fix>
</trkpt>
<trkpt lat="-27.2744558" lon="151.2900776">
  <ele>358.89</ele>
  <time>2026-09-01T20:03:39Z</time>
  <course>29.32</course>
  <speed>1.83</speed>
  <fix>3d</fix>
</trkpt>
<trkpt lat="-27.2744527" lon="151.2900795">
  <ele>358.91</ele>
  <time>2026-09-01T20:03:39Z</time>
  <course>186.9</course>
  <speed>1.8221415971323416</speed>
  <fix>3d</fix>
</trkpt>
<trkpt lat="-27.2744558" lon="151.2900776">
  <ele>358.89</ele>
  <time>2026-09-01T20:03:39Z</time>
  <course>29.32</course>
  <speed>1.83</speed>
  <fix>3d</fix>
</trkpt>
<trkpt lat="-27.2744511" lon="151.2900803">
  <ele>358.89</ele>
  <time>2026-09-01T20:03:39Z</time>
  <course>187.28</course>
  <speed>1.8650737250843463</speed>
  <fix>3d</fix>
</trkpt>
<trkpt lat="-27.2744529" lon="151.2900794">
  <ele>358.81</ele>
  <time>2026-09-01T20:03:39Z</time>
  <course>25.81</course>
  <speed>1.86</speed>
  <fix>3d</fix>
</trkpt>
<trkpt lat="-27.2744496" lon="151.2900812">
  <ele>358.88</ele>
  <time>2026-09-01T20:03:39Z</time>
  <course>187.63</course>
  <speed>1.8650737250843463</speed>
  <fix>3d</fix>
</trkpt>
<trkpt lat="-27.2744529" lon="151.2900794">
  <ele>358.81</ele>
  <time>2026-09-01T20:03:39Z</time>
  <course>25.81</course>
  <speed>1.86</speed>
  <fix>3d</fix>
</trkpt>
<trkpt lat="-27.274448" lon="151.2900817">
  <ele>358.68</ele>
  <time>2026-09-01T20:03:39Z</time>
  <course>187.96</course>
  <speed>1.892326610286924</speed>
  <fix>3d</fix>
</trkpt>
<trkpt lat="-27.2744498" lon="151.2900809">
  <ele>358.72</ele>
  <time>2026-09-01T20:03:39Z</time>
  <course>22.48</course>
  <speed>1.89</speed>
  <fix>3d</fix>
</trkpt>
<trkpt lat="-27.2744464" lon="151.2900825">
  <ele>358.63</ele>
  <time>2026-09-01T20:03:39Z</time>
  <course>188.25</course>
  <speed>1.892326610286924</speed>
  <fix>3d</fix>
</trkpt>
<trkpt lat="-27.2744498" lon="151.2900809">
  <ele>358.72</ele>
  <time>2026-09-01T20:03:39Z</time>
  <course>22.48</course>
  <speed>1.89</speed>
  <fix>3d</fix>
</trkpt>
<trkpt lat="-27.2744447" lon="151.290083">
  <ele>358.79</ele>
  <time>2026-09-01T20:03:39Z</time>
  <course>188.51</course>
  <speed>1.907065809037538</speed>
  <fix>3d</fix>
</trkpt>
<trkpt lat="-27.2744466" lon="151.2900823">
  <ele>358.63</ele>
  <time>2026-09-01T20:03:39Z</time>
  <course>19.32</course>
  <speed>1.91</speed>
  <fix>3d</fix>
</trkpt>
<trkpt lat="-27.2744431" lon="151.2900837">
  <ele>358.54</ele>
  <time>2026-09-01T20:03:39Z</time>
  <course>188.74</course>
  <speed>1.907065809037538</speed>
  <fix>3d</fix>
</trkpt>
<trkpt lat="-27.2744466" lon="151.2900823">
  <ele>358.63</ele>
  <time>2026-09-01T20:03:39Z</time>
  <course>19.32</course>
  <speed>1.91</speed>
  <fix>3d</fix>
</trkpt>
<trkpt lat="-27.2744414" lon="151.290084">
  <ele>358.39</ele>
  <time>2026-09-01T20:03:39Z</time>
  <course>188.94</course>
  <speed>1.917602670002313</speed>
  <fix>3d</fix>
</trkpt>
<trkpt lat="-27.2744433" lon="151.2900834">
  <ele>358.54</ele>
  <time>2026-09-01T20:03:39Z</time>
  <course>16.32</course>
  <speed>1.92</speed>
  <fix>3d</fix>
</trkpt>
<trkpt lat="-27.2744397" lon="151.2900846">
  <ele>358.31</ele>
  <time>2026-09-01T20:03:39Z</time>
  <course>189.09</course>
  <speed>1.917602670002313</speed>
  <fix>3d</fix>
</trkpt>
<trkpt lat="-27.2744433" lon="151.2900834">
  <ele>358.54</ele>
  <time>2026-09-01T20:03:39Z</time>
  <course>16.32</course>
  <speed>1.92</speed>
  <fix>3d</fix>
</trkpt>
<trkpt lat="-27.274438" lon="151.2900849">
  <ele>358.3</ele>
  <time>2026-09-01T20:03:39Z</time>
  <course>189.2</course>
  <speed>1.911334612253961</speed>
  <fix>3d</fix>
</trkpt>
<trkpt lat="-27.27444" lon="151.2900844">
  <ele>358.44</ele>
  <time>2026-09-01T20:03:39Z</time>
  <course>13.43</course>
  <speed>1.91</speed>
  <fix>3d</fix>
</trkpt>
<trkpt lat="-27.2744364" lon="151.2900853">
  <ele>358.42</ele>
  <time>2026-09-01T20:03:39Z</time>
  <course>189.27</course>
  <speed>1.911334612253961</speed>
  <fix>3d</fix>
</trkpt>
<trkpt lat="-27.27444" lon="151.2900844">
  <ele>358.44</ele>
  <time>2026-09-01T20:03:39Z</time>
  <course>13.43</course>
  <speed>1.91</speed>
  <fix>3d</fix>
</trkpt>
<trkpt lat="-27.2744347" lon="151.2900856">
  <ele>358.25</ele>
  <time>2026-09-01T20:03:39Z</time>
  <course>189.32</course>
  <speed>1.8809837851507387</speed>
  <fix>3d</fix>
</trkpt>
<trkpt lat="-27.2744366" lon="151.2900852">
  <ele>358.3</ele>
  <time>2026-09-01T20:03:39Z</time>
  <course>10.61</course>
  <speed>1.88</speed>
  <fix>3d</fix>
</trkpt>
<trkpt lat="-27.274433" lon="151.2900859">
  <ele>358.01</ele>
  <time>2026-09-01T20:03:39Z</time>
  <course>189.37</course>
  <speed>1.8809837851507387</speed>
  <fix>3d</fix>
</trkpt>
<trkpt lat="-27.2744366" lon="151.2900852">
  <ele>358.3</ele>
  <time>2026-09-01T20:03:39Z</time>
  <course>10.61</course>
  <speed>1.88</speed>
  <fix>3d</fix>
</trkpt>
<trkpt lat="-27.2744314" lon="151.290086">
  <ele>358.13</ele>
  <time>2026-09-01T20:03:39Z</time>
  <course>189.41</course>
  <speed>1.8258422713914804</speed>
  <fix>3d</fix>
</trkpt>
<trkpt lat="-27.2744333" lon="151.2900858">
  <ele>358.13</ele>
  <time>2026-09-01T20:03:39Z</time>
  <course>7.75</course>
  <speed>1.82</speed>
  <fix>3d</fix>
</trkpt>
<trkpt lat="-27.2744298" lon="151.2900863">
  <ele>357.93</ele>
  <time>2026-09-01T20:03:39Z</time>
  <course>189.46</course>
  <speed>1.8258422713914804</speed>
  <fix>3d</fix>
</trkpt>
<trkpt lat="-27.2744333" lon="151.2900858">
  <ele>358.13</ele>
  <time>2026-09-01T20:03:39Z</time>
  <course>7.75</course>
  <speed>1.82</speed>
  <fix>3d</fix>
</trkpt>
<trkpt lat="-27.2744283" lon="151.2900863">
  <ele>357.89</ele>
  <time>2026-09-01T20:03:39Z</time>
  <course>189.51</course>
  <speed>1.7456230979223437</speed>
  <fix>3d</fix>
</trkpt>
<trkpt lat="-27.2744301" lon="151.2900862">
  <ele>357.93</ele>
  <time>2026-09-01T20:03:39Z</time>
  <course>4.73</course>
  <speed>1.74</speed>
  <fix>3d</fix>
</trkpt>
<trkpt lat="-27.2744267" lon="151.2900865">
  <ele>357.56</ele>
  <time>2026-09-01T20:03:39Z</time>
  <course>189.58</course>
  <speed>1.7456230979223437</speed>
  <fix>3d</fix>
</trkpt>
<trkpt lat="-27.2744301" lon="151.2900862">
  <ele>357.93</ele>
  <time>2026-09-01T20:03:39Z</time>
  <course>4.73</course>
  <speed>1.74</speed>
  <fix>3d</fix>
</trkpt>
<trkpt lat="-27.2744253" lon="151.2900864">
  <ele>357.41</ele>
  <time>2026-09-01T20:03:39Z</time>
  <course>189.65</course>
  <speed>1.6404877323527902</speed>
  <fix>3d</fix>
</trkpt>
<trkpt lat="-27.274427" lon="151.2900864">
  <ele>357.7</ele>
  <time>2026-09-01T20:03:39Z</time>
  <course>1.42</course>
  <speed>1.64</speed>
  <fix>3d</fix>
</trkpt>
<trkpt lat="-27.2744238" lon="151.2900864">
  <ele>357.64</ele>
  <time>2026-09-01T20:03:39Z</time>
  <course>189.72</course>
  <speed>1.6404877323527902</speed>
  <fix>3d</fix>
</trkpt>
<trkpt lat="-27.274427" lon="151.2900864">
  <ele>357.7</ele>
  <time>2026-09-01T20:03:39Z</time>
  <course>1.42</course>
  <speed>1.64</speed>
  <fix>3d</fix>
</trkpt>
<trkpt lat="-27.2744226" lon="151.2900865">
  <ele>357.49</ele>
  <time>2026-09-01T20:03:39Z</time>
  <course>189.79</course>
  <speed>1.5211837495845133</speed>
  <fix>3d</fix>
</trkpt>
<trkpt lat="-27.2744242" lon="151.2900865">
  <ele>357.45</ele>
  <time>2026-09-01T20:03:39Z</time>
  <course>357.66</course>
  <speed>1.53</speed>
  <fix>3d</fix>
</trkpt>
<trkpt lat="-27.2744212" lon="151.2900864">
  <ele>357.21</ele>
  <time>2026-09-01T20:03:39Z</time>
  <course>189.87</course>
  <speed>1.5211837495845133</speed>
  <fix>3d</fix>
</trkpt>
<trkpt lat="-27.2744242" lon="151.2900865">
  <ele>357.45</ele>
  <time>2026-09-01T20:03:39Z</time>
  <course>357.66</course>
  <speed>1.53</speed>
  <fix>3d</fix>
</trkpt>
<trkpt lat="-27.2744202" lon="151.2900862">
  <ele>356.96</ele>
  <time>2026-09-01T20:03:39Z</time>
  <course>189.93</course>
  <speed>1.3991783303067555</speed>
  <fix>3d</fix>
</trkpt>
<trkpt lat="-27.2744216" lon="151.2900863">
  <ele>357.18</ele>
  <time>2026-09-01T20:03:39Z</time>
  <course>353.27</course>
  <speed>1.4</speed>
  <fix>3d</fix>
</trkpt>
<trkpt lat="-27.2744189" lon="151.290086">
  <ele>356.78</ele>
  <time>2026-09-01T20:03:39Z</time>
  <course>189.99</course>
  <speed>1.3991783303067555</speed>
  <fix>3d</fix>
</trkpt>
<trkpt lat="-27.2744216" lon="151.2900863">
  <ele>357.18</ele>
  <time>2026-09-01T20:03:39Z</time>
  <course>353.27</course>
  <speed>1.4</speed>
  <fix>3d</fix>
</trkpt>
<trkpt lat="-27.2744179" lon="151.2900856">
  <ele>356.98</ele>
  <time>2026-09-01T20:03:39Z</time>
  <course>190.04</course>
  <speed>1.257179382586272</speed>
  <fix>3d</fix>
</trkpt>
<trkpt lat="-27.2744192" lon="151.2900859">
  <ele>356.9</ele>
  <time>2026-09-01T20:03:39Z</time>
  <course>348.02</course>
  <speed>1.26</speed>
  <fix>3d</fix>
</trkpt>
<trkpt lat="-27.2744168" lon="151.2900854">
  <ele>356.7</ele>
  <time>2026-09-01T20:03:39Z</time>
  <course>190.09</course>
  <speed>1.257179382586272</speed>
  <fix>3d</fix>
</trkpt>
<trkpt lat="-27.2744192" lon="151.2900859">
  <ele>356.9</ele>
  <time>2026-09-01T20:03:39Z</time>
  <course>348.02</course>
  <speed>1.26</speed>
  <fix>3d</fix>
</trkpt>
<trkpt lat="-27.274416" lon="151.2900848">
  <ele>356.42</ele>
  <time>2026-09-01T20:03:39Z</time>
  <course>190.13</course>
  <speed>1.1257886124845995</speed>
  <fix>3d</fix>
</trkpt>
<trkpt lat="-27.2744171" lon="151.2900852">
  <ele>356.61</ele>
  <time>2026-09-01T20:03:39Z</time>
  <course>341.61</course>
  <speed>1.13</speed>
  <fix>3d</fix>
</trkpt>
<trkpt lat="-27.274415" lon="151.2900845">
  <ele>356.54</ele>
  <time>2026-09-01T20:03:39Z</time>
  <course>190.16</course>
  <speed>1.1257886124845995</speed>
  <fix>3d</fix>
</trkpt>
<trkpt lat="-27.2744171" lon="151.2900852">
  <ele>356.61</ele>
  <time>2026-09-01T20:03:39Z</time>
  <course>341.61</course>
  <speed>1.13</speed>
  <fix>3d</fix>
</trkpt>
<trkpt lat="-27.2744145" lon="151.2900839">
  <ele>356.24</ele>
  <time>2026-09-01T20:03:39Z</time>
  <course>190.19</course>
  <speed>1.0017983829094554</speed>
  <fix>3d</fix>
</trkpt>
<trkpt lat="-27.2744154" lon="151.2900844">
  <ele>356.31</ele>
  <time>2026-09-01T20:03:39Z</time>
  <course>333.73</course>
  <speed>1.0</speed>
  <fix>3d</fix>
</trkpt>
<trkpt lat="-27.2744137" lon="151.2900835">
  <ele>356.04</ele>
  <time>2026-09-01T20:03:39Z</time>
  <course>190.21</course>
  <speed>1.0017983829094554</speed>
  <fix>3d</fix>
</trkpt>
<trkpt lat="-27.2744154" lon="151.2900844">
  <ele>356.31</ele>
  <time>2026-09-01T20:03:39Z</time>
  <course>333.73</course>
  <speed>1.0</speed>
  <fix>3d</fix>
</trkpt>
<trkpt lat="-27.2744132" lon="151.2900828">
  <ele>355.83</ele>
  <time>2026-09-01T20:03:39Z</time>
  <course>190.22</course>
  <speed>0.8881441324469808</speed>
  <fix>3d</fix>
</trkpt>
<trkpt lat="-27.2744139" lon="151.2900834">
  <ele>356.01</ele>
  <time>2026-09-01T20:03:39Z</time>
  <course>324.06</course>
  <speed>0.89</speed>
  <fix>3d</fix>
</trkpt>
<trkpt lat="-27.2744132" lon="151.2900826">
  <ele>355.69</ele>
  <time>2026-09-01T20:03:39Z</time>
  <course>197.21</course>
  <speed>0.7291776189653656</speed>
  <fix>3d</fix>
</trkpt>
<trkpt lat="-27.2744139" lon="151.2900834">
  <ele>356.01</ele>
  <time>2026-09-01T20:03:39Z</time>
  <course>324.06</course>
  <speed>0.89</speed>
  <fix>3d</fix>
</trkpt>
<trkpt lat="-27.2744128" lon="151.290082">
  <ele>355.52</ele>
  <time>2026-09-01T20:03:39Z</time>
  <course>197.39</course>
  <speed>0.6767569726275453</speed>
  <fix>3d</fix>
</trkpt>
<trkpt lat="-27.2744128" lon="151.2900823">
  <ele>355.7</ele>
  <time>2026-09-01T20:03:39Z</time>
  <course>312.14</course>
  <speed>0.79</speed>
  <fix>3d</fix>
</trkpt>
<trkpt lat="-27.2744125" lon="151.2900814">
  <ele>355.35</ele>
  <time>2026-09-01T20:03:39Z</time>
  <course>197.77</course>
  <speed>0.6276941930590086</speed>
  <fix>3d</fix>
</trkpt>
<trkpt lat="-27.2744128" lon="151.2900823">
  <ele>355.7</ele>
  <time>2026-09-01T20:03:39Z</time>
  <course>312.14</course>
  <speed>0.79</speed>
  <fix>3d</fix>
</trkpt>
<trkpt lat="-27.2744124" lon="151.2900814">
  <ele>355.34</ele>
  <time>2026-09-01T20:03:39Z</time>
  <course>197.78</course>
  <speed>0.6239390995922599</speed>
  <fix>3d</fix>
</trkpt>
<trkpt lat="-27.2744123" lon="151.2900808">
  <ele>355.15</ele>
  <time>2026-09-01T20:03:39Z</time>
  <course>198.23</course>
  <speed>0.58309518948453</speed>
  <fix>3d</fix>
</trkpt>
<trkpt lat="-27.274412" lon="151.2900811">
  <ele>355.37</ele>
  <time>2026-09-01T20:03:39Z</time>
  <course>293.55</course>
  <speed>0.68</speed>
  <fix>3d</fix>
</trkpt>
<trkpt lat="-27.2744123" lon="151.2900808">
  <ele>355.15</ele>
  <time>2026-09-01T20:03:40Z</time>
  <course>198.25</course>
  <speed>0.5821511831131153</speed>
  <fix>3d</fix>
</trkpt>
<trkpt lat="-27.2744123" lon="151.2900802">
  <ele>354.96</ele>
  <time>2026-09-01T20:03:40Z</time>
  <course>198.73</course>
  <speed>0.5966573556070519</speed>
  <fix>3d</fix>
</trkpt>
<trkpt lat="-27.274412" lon="151.2900811">
  <ele>355.37</ele>
  <time>2026-09-01T20:03:40Z</time>
  <course>293.55</course>
  <speed>0.68</speed>
  <fix>3d</fix>
</trkpt>
<trkpt lat="-27.2744123" lon="151.2900801">
  <ele>354.95</ele>
  <time>2026-09-01T20:03:40Z</time>
  <course>198.75</course>
  <speed>0.5990826320300063</speed>
  <fix>3d</fix>
</trkpt>
<trkpt lat="-27.2744125" lon="151.2900795">
  <ele>354.75</ele>
  <time>2026-09-01T20:03:40Z</time>
  <course>199.23</course>
  <speed>0.6795586803212802</speed>
  <fix>3d</fix>
</trkpt>
<trkpt lat="-27.2744118" lon="151.2900798">
  <ele>354.99</ele>
  <time>2026-09-01T20:03:40Z</time>
  <course>260.78</course>
  <speed>0.65</speed>
  <fix>3d</fix>
</trkpt>
<trkpt lat="-27.2744125" lon="151.2900794">
  <ele>354.69</ele>
  <time>2026-09-01T20:03:40Z</time>
  <course>199.36</course>
  <speed>0.7140028011149536</speed>
  <fix>3d</fix>
</trkpt>
<trkpt lat="-27.2744128" lon="151.2900789">
  <ele>354.54</ele>
  <time>2026-09-01T20:03:40Z</time>
  <course>199.69</course>
  <speed>0.8207313811473277</speed>
  <fix>3d</fix>
</trkpt>
<trkpt lat="-27.2744118" lon="151.2900798">
  <ele>354.99</ele>
  <time>2026-09-01T20:03:40Z</time>
  <course>260.78</course>
  <speed>0.65</speed>
  <fix>3d</fix>
</trkpt>
<trkpt lat="-27.2744129" lon="151.2900788">
  <ele>354.49</ele>
  <time>2026-09-01T20:03:40Z</time>
  <course>199.8</course>
  <speed>0.873212459828649</speed>
  <fix>3d</fix>
</trkpt>
<trkpt lat="-27.2744134" lon="151.2900783">
  <ele>354.34</ele>
  <time>2026-09-01T20:03:40Z</time>
  <course>200.07</course>
  <speed>0.9956907150315303</speed>
  <fix>3d</fix>
</trkpt>
<trkpt lat="-27.2744124" lon="151.2900785">
  <ele>354.58</ele>
  <time>2026-09-01T20:03:40Z</time>
  <course>228.46</course>
  <speed>0.83</speed>
  <fix>3d</fix>
</trkpt>
<trkpt lat="-27.2744136" lon="151.2900782">
  <ele>354.28</ele>
  <time>2026-09-01T20:03:40Z</time>
  <course>200.17</course>
  <speed>1.0410091258005378</speed>
  <fix>3d</fix>
</trkpt>
<trkpt lat="-27.2744142" lon="151.2900777">
  <ele>354.13</ele>
  <time>2026-09-01T20:03:40Z</time>
  <course>200.38</course>
  <speed>1.153819743287486</speed>
  <fix>3d</fix>
</trkpt>
<trkpt lat="-27.2744124" lon="151.2900785">
  <ele>354.58</ele>
  <time>2026-09-01T20:03:40Z</time>
  <course>228.46</course>
  <speed>0.83</speed>
  <fix>3d</fix>
</trkpt>
<trkpt lat="-27.2744144" lon="151.2900776">
  <ele>354.08</ele>
  <time>2026-09-01T20:03:40Z</time>
  <course>200.46</course>
  <speed>1.1943617542436629</speed>
  <fix>3d</fix>
</trkpt>
<trkpt lat="-27.2744151" lon="151.2900772">
  <ele>353.93</ele>
  <time>2026-09-01T20:03:40Z</time>
  <course>200.63</course>
  <speed>1.2869343417595163</speed>
  <fix>3d</fix>
</trkpt>
<trkpt lat="-27.2744138" lon="151.2900773">
  <ele>354.16</ele>
  <time>2026-09-01T20:03:40Z</time>
  <course>211.17</course>
  <speed>1.13</speed>
  <fix>3d</fix>
</trkpt>
<trkpt lat="-27.2744154" lon="151.290077">
  <ele>353.87</ele>
  <time>2026-09-01T20:03:40Z</time>
  <course>200.69</course>
  <speed>1.3110301293257907</speed>
  <fix>3d</fix>
</trkpt>
<trkpt lat="-27.2744162" lon="151.2900767">
  <ele>353.72</ele>
  <time>2026-09-01T20:03:40Z</time>
  <course>200.83</course>
  <speed>1.372443077143821</speed>
  <fix>3d</fix>
</trkpt>
<trkpt lat="-27.2744138" lon="151.2900773">
  <ele>354.16</ele>
  <time>2026-09-01T20:03:40Z</time>
  <course>211.17</course>
  <speed>1.13</speed>
  <fix>3d</fix>
</trkpt>
<trkpt lat="-27.2744165" lon="151.2900765">
  <ele>353.66</ele>
  <time>2026-09-01T20:03:40Z</time>
  <course>200.88</course>
  <speed>1.3882723075823418</speed>
  <fix>3d</fix>
</trkpt>
<trkpt lat="-27.2744174" lon="151.2900762">
  <ele>353.52</ele>
  <time>2026-09-01T20:03:40Z</time>
  <course>200.99</course>
  <speed>1.4340502083260542</speed>
  <fix>3d</fix>
</trkpt>
<trkpt lat="-27.2744158" lon="151.2900761">
  <ele>353.76</ele>
  <time>2026-09-01T20:03:40Z</time>
  <course>202.17</course>
  <speed>1.35</speed>
  <fix>3d</fix>
</trkpt>
<trkpt lat="-27.2744177" lon="151.2900761">
  <ele>353.46</ele>
  <time>2026-09-01T20:03:40Z</time>
  <course>201.03</course>
  <speed>1.4603081866510235</speed>
  <fix>3d</fix>
</trkpt>
<trkpt lat="-27.2744186" lon="151.2900758">
  <ele>353.32</ele>
  <time>2026-09-01T20:03:40Z</time>
  <course>201.13</course>
  <speed>1.5088074761214565</speed>
  <fix>3d</fix>
</trkpt>
<trkpt lat="-27.2744158" lon="151.2900761">
  <ele>353.76</ele>
  <time>2026-09-01T20:03:40Z</time>
  <course>202.17</course>
  <speed>1.35</speed>
  <fix>3d</fix>
</trkpt>
<trkpt lat="-27.2744189" lon="151.2900757">
  <ele>353.27</ele>
  <time>2026-09-01T20:03:40Z</time>
  <course>201.16</course>
  <speed>1.523975065412817</speed>
  <fix>3d</fix>
</trkpt>
<trkpt lat="-27.2744199" lon="151.2900754">
  <ele>353.13</ele>
  <time>2026-09-01T20:03:40Z</time>
  <course>201.24</course>
  <speed>1.56706732465456</speed>
  <fix>3d</fix>
</trkpt>
<trkpt lat="-27.2744182" lon="151.2900752">
  <ele>353.37</ele>
  <time>2026-09-01T20:03:40Z</time>
  <course>195.94</course>
  <speed>1.49</speed>
  <fix>3d</fix>
</trkpt>
<trkpt lat="-27.2744203" lon="151.2900753">
  <ele>353.09</ele>
  <time>2026-09-01T20:03:40Z</time>
  <course>201.26</course>
  <speed>1.5831929762350514</speed>
  <fix>3d</fix>
</trkpt>
<trkpt lat="-27.2744213" lon="151.2900751">
  <ele>352.96</ele>
  <time>2026-09-01T20:03:40Z</time>
  <course>201.32</course>
  <speed>1.6277899127344413</speed>
  <fix>3d</fix>
</trkpt>
<trkpt lat="-27.2744182" lon="151.2900752">
  <ele>353.37</ele>
  <time>2026-09-01T20:03:40Z</time>
  <course>195.94</course>
  <speed>1.49</speed>
  <fix>3d</fix>
</trkpt>
<trkpt lat="-27.2744213" lon="151.290075">
  <ele>352.96</ele>
  <time>2026-09-01T20:03:40Z</time>
  <course>201.32</course>
  <speed>1.6376812876747417</speed>
  <fix>3d</fix>
</trkpt>
<trkpt lat="-27.2744227" lon="151.2900748">
  <ele>352.8</ele>
  <time>2026-09-01T20:03:40Z</time>
  <course>201.39</course>
  <speed>1.7017931719218995</speed>
  <fix>3d</fix>
</trkpt>
<trkpt lat="-27.2744209" lon="151.2900745">
  <ele>353.01</ele>
  <time>2026-09-01T20:03:40Z</time>
  <course>191.15</course>
  <speed>1.62</speed>
  <fix>3d</fix>
</trkpt>
<trkpt lat="-27.2744228" lon="151.2900748">
  <ele>352.8</ele>
  <time>2026-09-01T20:03:40Z</time>
  <course>201.39</course>
  <speed>1.7017931719218995</speed>
  <fix>3d</fix>
</trkpt>
<trkpt lat="-27.2744242" lon="151.2900745">
  <ele>352.66</ele>
  <time>2026-09-01T20:03:40Z</time>
  <course>201.45</course>
  <speed>1.7880995498014085</speed>
  <fix>3d</fix>
</trkpt>
<trkpt lat="-27.2744209" lon="151.2900745">
  <ele>353.01</ele>
  <time>2026-09-01T20:03:40Z</time>
  <course>191.15</course>
  <speed>1.62</speed>
  <fix>3d</fix>
</trkpt>
<trkpt lat="-27.2744246" lon="151.2900745">
  <ele>352.63</ele>
  <time>2026-09-01T20:03:40Z</time>
  <course>201.46</course>
  <speed>1.8179658962697842</speed>
  <fix>3d</fix>
</trkpt>
<trkpt lat="-27.2744258" lon="151.2900743">
  <ele>352.54</ele>
  <time>2026-09-01T20:03:40Z</time>
  <course>201.49</course>
  <speed>1.886796226411321</speed>
  <fix>3d</fix>
</trkpt>
<trkpt lat="-27.2744239" lon="151.2900739">
  <ele>352.72</ele>
  <time>2026-09-01T20:03:40Z</time>
  <course>187.97</course>
  <speed>1.78</speed>
  <fix>3d</fix>
</trkpt>
<trkpt lat="-27.2744263" lon="151.2900742">
  <ele>352.51</ele>
  <time>2026-09-01T20:03:40Z</time>
  <course>201.5</course>
  <speed>1.9059118552545917</speed>
  <fix>3d</fix>
</trkpt>
<trkpt lat="-27.2744275" lon="151.2900741">
  <ele>352.44</ele>
  <time>2026-09-01T20:03:40Z</time>
  <course>201.53</course>
  <speed>1.955019181491578</speed>
  <fix>3d</fix>
</trkpt>
<trkpt lat="-27.2744239" lon="151.2900739">
  <ele>352.72</ele>
  <time>2026-09-01T20:03:40Z</time>
  <course>187.97</course>
  <speed>1.78</speed>
  <fix>3d</fix>
</trkpt>
<trkpt lat="-27.2744279" lon="151.290074">
  <ele>352.41</ele>
  <time>2026-09-01T20:03:40Z</time>
  <course>201.54</course>
  <speed>1.9649936386665479</speed>
  <fix>3d</fix>
</trkpt>
<trkpt lat="-27.2744292" lon="151.2900739">
  <ele>352.35</ele>
  <time>2026-09-01T20:03:40Z</time>
  <course>201.56</course>
  <speed>1.9942417105255823</speed>
  <fix>3d</fix>
</trkpt>
<trkpt lat="-27.2744273" lon="151.2900735">
  <ele>352.49</ele>
  <time>2026-09-01T20:03:40Z</time>
  <course>186.21</course>
  <speed>1.93</speed>
  <fix>3d</fix>
</trkpt>
<trkpt lat="-27.2744297" lon="151.2900738">
  <ele>352.33</ele>
  <time>2026-09-01T20:03:40Z</time>
  <course>201.56</course>
  <speed>2.0042205467462906</speed>
  <fix>3d</fix>
</trkpt>
<trkpt lat="-27.274431" lon="151.2900737">
  <ele>352.27</ele>
  <time>2026-09-01T20:03:40Z</time>
  <course>201.58</course>
  <speed>2.023561217260303</speed>
  <fix>3d</fix>
</trkpt>
<trkpt lat="-27.2744273" lon="151.2900735">
  <ele>352.49</ele>
  <time>2026-09-01T20:03:40Z</time>
  <course>186.21</course>
  <speed>1.93</speed>
  <fix>3d</fix>
</trkpt>
<trkpt lat="-27.2744314" lon="151.2900736">
  <ele>352.25</ele>
  <time>2026-09-01T20:03:40Z</time>
  <course>201.58</course>
  <speed>2.0335437049643166</speed>
  <fix>3d</fix>
</trkpt>
<trkpt lat="-27.2744328" lon="151.2900735">
  <ele>352.2</ele>
  <time>2026-09-01T20:03:40Z</time>
  <course>201.58</course>
  <speed>2.0429635336931495</speed>
  <fix>3d</fix>
</trkpt>
<trkpt lat="-27.2744308" lon="151.290073">
  <ele>352.32</ele>
  <time>2026-09-01T20:03:40Z</time>
  <course>185.22</course>
  <speed>2.01</speed>
  <fix>3d</fix>
</trkpt>
<trkpt lat="-27.2744331" lon="151.2900735">
  <ele>352.18</ele>
  <time>2026-09-01T20:03:40Z</time>
  <course>201.58</course>
  <speed>2.0429635336931495</speed>
  <fix>3d</fix>
</trkpt>
<trkpt lat="-27.2744345" lon="151.2900733">
  <ele>352.13</ele>
  <time>2026-09-01T20:03:40Z</time>
  <course>201.58</course>
  <speed>2.0429635336931495</speed>
  <fix>3d</fix>
</trkpt>
<trkpt lat="-27.2744308" lon="151.290073">
  <ele>352.32</ele>
  <time>2026-09-01T20:03:40Z</time>
  <course>185.22</course>
  <speed>2.01</speed>
  <fix>3d</fix>
</trkpt>
<trkpt lat="-27.274435" lon="151.2900733">
  <ele>352.11</ele>
  <time>2026-09-01T20:03:40Z</time>
  <course>201.58</course>
  <speed>2.0429635336931495</speed>
  <fix>3d</fix>
</trkpt>
<trkpt lat="-27.2744363" lon="151.2900731">
  <ele>352.06</ele>
  <time>2026-09-01T20:03:40Z</time>
  <course>201.57</course>
  <speed>2.0329781110479277</speed>
  <fix>3d</fix>
</trkpt>
<trkpt lat="-27.2744345" lon="151.2900727">
  <ele>352.18</ele>
  <time>2026-09-01T20:03:40Z</time>
  <course>184.69</course>
  <speed>2.03</speed>
  <fix>3d</fix>
</trkpt>
<trkpt lat="-27.2744368" lon="151.2900731">
  <ele>352.04</ele>
  <time>2026-09-01T20:03:40Z</time>
  <course>201.56</course>
  <speed>2.0329781110479277</speed>
  <fix>3d</fix>
</trkpt>
<trkpt lat="-27.2744381" lon="151.290073">
  <ele>351.99</ele>
  <time>2026-09-01T20:03:40Z</time>
  <course>201.55</course>
  <speed>2.0130076999355966</speed>
  <fix>3d</fix>
</trkpt>
<trkpt lat="-27.2744345" lon="151.2900727">
  <ele>352.18</ele>
  <time>2026-09-01T20:03:40Z</time>
  <course>184.69</course>
  <speed>2.03</speed>
  <fix>3d</fix>
</trkpt>
<trkpt lat="-27.2744386" lon="151.2900729">
  <ele>351.97</ele>
  <time>2026-09-01T20:03:40Z</time>
  <course>201.54</course>
  <speed>2.0130076999355966</speed>
  <fix>3d</fix>
</trkpt>
<trkpt lat="-27.2744399" lon="151.2900728">
  <ele>351.92</ele>
  <time>2026-09-01T20:03:40Z</time>
  <course>201.52</course>
  <speed>1.993037882229036</speed>
  <fix>3d</fix>
</trkpt>
<trkpt lat="-27.2744381" lon="151.2900723">
  <ele>352.05</ele>
  <time>2026-09-01T20:03:40Z</time>
  <course>184.54</course>
  <speed>2.01</speed>
  <fix>3d</fix>
</trkpt>
<trkpt lat="-27.2744399" lon="151.2900728">
  <ele>351.91</ele>
  <time>2026-09-01T20:03:40Z</time>
  <course>201.52</course>
  <speed>1.993037882229036</speed>
  <fix>3d</fix>
</trkpt>
<trkpt lat="-27.2744416" lon="151.2900726">
  <ele>351.84</ele>
  <time>2026-09-01T20:03:40Z</time>
  <course>201.49</course>
  <speed>1.9636700333813724</speed>
  <fix>3d</fix>
</trkpt>
<trkpt lat="-27.2744381" lon="151.2900723">
  <ele>352.05</ele>
  <time>2026-09-01T20:03:40Z</time>
  <course>184.54</course>
  <speed>2.01</speed>
  <fix>3d</fix>
</trkpt>
<trkpt lat="-27.2744417" lon="151.2900726">
  <ele>351.84</ele>
  <time>2026-09-01T20:03:40Z</time>
  <course>201.49</course>
  <speed>1.9636700333813724</speed>
  <fix>3d</fix>
</trkpt>
<trkpt lat="-27.2744434" lon="151.2900724">
  <ele>351.76</ele>
  <time>2026-09-01T20:03:40Z</time>
  <course>201.46</course>
  <speed>1.923746345025768</speed>
  <fix>3d</fix>
</trkpt>
<trkpt lat="-27.2744416" lon="151.290072">
  <ele>351.9</ele>
  <time>2026-09-01T20:03:40Z</time>
  <course>184.7</course>
  <speed>1.96</speed>
  <fix>3d</fix>
</trkpt>
<trkpt lat="-27.2744439" lon="151.2900724">
  <ele>351.73</ele>
  <time>2026-09-01T20:03:40Z</time>
  <course>201.45</course>
  <speed>1.903785702225962</speed>
  <fix>3d</fix>
</trkpt>
<trkpt lat="-27.274445" lon="151.2900722">
  <ele>351.67</ele>
  <time>2026-09-01T20:03:40Z</time>
  <course>201.44</course>
  <speed>1.853887806745597</speed>
  <fix>3d</fix>
</trkpt>
<trkpt lat="-27.2744416" lon="151.290072">
  <ele>351.9</ele>
  <time>2026-09-01T20:03:40Z</time>
  <course>184.7</course>
  <speed>1.96</speed>
  <fix>3d</fix>
</trkpt>
<trkpt lat="-27.2744451" lon="151.2900722">
  <ele>351.67</ele>
  <time>2026-09-01T20:03:40Z</time>
  <course>201.44</course>
  <speed>1.8439088914585775</speed>
  <fix>3d</fix>
</trkpt>
<trkpt lat="-27.2744466" lon="151.2900721">
  <ele>351.57</ele>
  <time>2026-09-01T20:03:40Z</time>
  <course>201.42</course>
  <speed>1.7634341496069539</speed>
  <fix>3d</fix>
</trkpt>
<trkpt lat="-27.2744451" lon="151.2900717">
  <ele>351.72</ele>
  <time>2026-09-01T20:03:40Z</time>
  <course>184.82</course>
  <speed>1.85</speed>
  <fix>3d</fix>
</trkpt>
<trkpt lat="-27.2744471" lon="151.290072">
  <ele>351.54</ele>
  <time>2026-09-01T20:03:40Z</time>
  <course>201.41</course>
  <speed>1.7334935823359716</speed>
  <fix>3d</fix>
</trkpt>
<trkpt lat="-27.2744481" lon="151.2900719">
  <ele>351.46</ele>
  <time>2026-09-01T20:03:40Z</time>
  <course>201.41</course>
  <speed>1.6630093204789924</speed>
  <fix>3d</fix>
</trkpt>
<trkpt lat="-27.2744451" lon="151.2900717">
  <ele>351.72</ele>
  <time>2026-09-01T20:03:40Z</time>
  <course>184.82</course>
  <speed>1.85</speed>
  <fix>3d</fix>
</trkpt>
<trkpt lat="-27.2744485" lon="151.2900719">
  <ele>351.43</ele>
  <time>2026-09-01T20:03:40Z</time>
  <course>201.4</course>
  <speed>1.6330646037435261</speed>
  <fix>3d</fix>
</trkpt>
<trkpt lat="-27.2744496" lon="151.2900718">
  <ele>351.35</ele>
  <time>2026-09-01T20:03:40Z</time>
  <course>201.4</course>
  <speed>1.5532224567009068</speed>
  <fix>3d</fix>
</trkpt>
<trkpt lat="-27.2744483" lon="151.2900714">
  <ele>351.52</ele>
  <time>2026-09-01T20:03:40Z</time>
  <course>184.78</course>
  <speed>1.66</speed>
  <fix>3d</fix>
</trkpt>
<trkpt lat="-27.27445" lon="151.2900717">
  <ele>351.32</ele>
  <time>2026-09-01T20:03:40Z</time>
  <course>201.4</course>
  <speed>1.523285921946369</speed>
  <fix>3d</fix>
</trkpt>
<trkpt lat="-27.2744509" lon="151.2900716">
  <ele>351.24</ele>
  <time>2026-09-01T20:03:40Z</time>
  <course>201.41</course>
  <speed>1.4428097587693258</speed>
  <fix>3d</fix>
</trkpt>
<trkpt lat="-27.2744483" lon="151.2900714">
  <ele>351.52</ele>
  <time>2026-09-01T20:03:40Z</time>
  <course>184.78</course>
  <speed>1.66</speed>
  <fix>3d</fix>
</trkpt>
<trkpt lat="-27.2744513" lon="151.2900716">
  <ele>351.21</ele>
  <time>2026-09-01T20:03:40Z</time>
  <course>201.42</course>
  <speed>1.4128694207179942</speed>
  <fix>3d</fix>
</trkpt>
<trkpt lat="-27.2744522" lon="151.2900715">
  <ele>351.13</ele>
  <time>2026-09-01T20:03:40Z</time>
  <course>201.43</course>
  <speed>1.3230646242719968</speed>
  <fix>3d</fix>
</trkpt>
<trkpt lat="-27.2744511" lon="151.2900712">
  <ele>351.29</ele>
  <time>2026-09-01T20:03:40Z</time>
  <course>184.86</course>
  <speed>1.44</speed>
  <fix>3d</fix>
</trkpt>
<trkpt lat="-27.2744525" lon="151.2900714">
  <ele>351.1</ele>
  <time>2026-09-01T20:03:40Z</time>
  <course>201.44</course>
  <speed>1.2931357237351384</speed>
  <fix>3d</fix>
</trkpt>
<trkpt lat="-27.2744533" lon="151.2900713">
  <ele>351.02</ele>
  <time>2026-09-01T20:03:40Z</time>
  <course>201.46</course>
  <speed>1.2033702672078948</speed>
  <fix>3d</fix>
</trkpt>
<trkpt lat="-27.2744511" lon="151.2900712">
  <ele>351.29</ele>
  <time>2026-09-01T20:03:40Z</time>
  <course>184.86</course>
  <speed>1.44</speed>
  <fix>3d</fix>
</trkpt>
<trkpt lat="-27.2744536" lon="151.2900713">
  <ele>350.99</ele>
  <time>2026-09-01T20:03:40Z</time>
  <course>201.47</course>
  <speed>1.1627553482998907</speed>
  <fix>3d</fix>
</trkpt>
<trkpt lat="-27.2744543" lon="151.2900712">
  <ele>350.91</ele>
  <time>2026-09-01T20:03:40Z</time>
  <course>201.51</course>
  <speed>1.0729864864013898</speed>
  <fix>3d</fix>
</trkpt>
<trkpt lat="-27.2744534" lon="151.2900709">
  <ele>351.06</ele>
  <time>2026-09-01T20:03:40Z</time>
  <course>185.22</course>
  <speed>1.2</speed>
  <fix>3d</fix>
</trkpt>
<trkpt lat="-27.2744543" lon="151.2900712">
  <ele>350.91</ele>
  <time>2026-09-01T20:03:40Z</time>
  <course>201.51</course>
  <speed>1.0729864864013898</speed>
  <fix>3d</fix>
</trkpt>
<trkpt lat="-27.2744552" lon="151.2900711">
  <ele>350.8</ele>
  <time>2026-09-01T20:03:40Z</time>
  <course>201.56</course>
  <speed>0.9533624704172071</speed>
  <fix>3d</fix>
</trkpt>
<trkpt lat="-27.2744534" lon="151.2900709">
  <ele>351.06</ele>
  <time>2026-09-01T20:03:40Z</time>
  <course>185.22</course>
  <speed>1.2</speed>
  <fix>3d</fix>
</trkpt>
<trkpt lat="-27.2744553" lon="151.2900711">
  <ele>350.8</ele>
  <time>2026-09-01T20:03:40Z</time>
  <course>201.56</course>
  <speed>0.9433981132056605</speed>
  <fix>3d</fix>
</trkpt>
<trkpt lat="-27.274456" lon="151.290071">
  <ele>350.7</ele>
  <time>2026-09-01T20:03:40Z</time>
  <course>201.62</course>
  <speed>0.8238931969618392</speed>
  <fix>3d</fix>
</trkpt>
<trkpt lat="-27.2744553" lon="151.2900707">
  <ele>350.84</ele>
  <time>2026-09-01T20:03:40Z</time>
  <course>186.07</course>
  <speed>0.95</speed>
  <fix>3d</fix>
</trkpt>
<trkpt lat="-27.2744562" lon="151.2900709">
  <ele>350.68</ele>
  <time>2026-09-01T20:03:40Z</time>
  <course>201.63</course>
  <speed>0.7840918313565064</speed>
  <fix>3d</fix>
</trkpt>
<trkpt lat="-27.2744567" lon="151.2900708">
  <ele>350.61</ele>
  <time>2026-09-01T20:03:40Z</time>
  <course>201.68</course>
  <speed>0.6946221994724903</speed>
  <fix>3d</fix>
</trkpt>
<trkpt lat="-27.2744553" lon="151.2900707">
  <ele>350.84</ele>
  <time>2026-09-01T20:03:40Z</time>
  <course>186.07</course>
  <speed>0.95</speed>
  <fix>3d</fix>
</trkpt>
<trkpt lat="-27.2744567" lon="151.2900708">
  <ele>350.6</ele>
  <time>2026-09-01T20:03:40Z</time>
  <course>201.68</course>
  <speed>0.6946221994724903</speed>
  <fix>3d</fix>
</trkpt>
<trkpt lat="-27.2744573" lon="151.2900707">
  <ele>350.51</ele>
  <time>2026-09-01T20:03:40Z</time>
  <course>201.74</course>
  <speed>0.565685424949238</speed>
  <fix>3d</fix>
</trkpt>
<trkpt lat="-27.2744568" lon="151.2900705">
  <ele>350.64</ele>
  <time>2026-09-01T20:03:40Z</time>
  <course>187.84</course>
  <speed>0.7</speed>
  <fix>3d</fix>
</trkpt>
<trkpt lat="-27.2744573" lon="151.2900707">
  <ele>350.51</ele>
  <time>2026-09-01T20:03:40Z</time>
  <course>201.74</course>
  <speed>0.565685424949238</speed>
  <fix>3d</fix>
</trkpt>
<trkpt lat="-27.2744577" lon="151.2900706">
  <ele>350.43</ele>
  <time>2026-09-01T20:03:40Z</time>
  <course>201.81</course>
  <speed>0.447213595499958</speed>
  <fix>3d</fix>
</trkpt>
<trkpt lat="-27.2744568" lon="151.2900705">
  <ele>350.64</ele>
  <time>2026-09-01T20:03:40Z</time>
  <course>187.84</course>
  <speed>0.7</speed>
  <fix>3d</fix>
</trkpt>
<trkpt lat="-27.2744578" lon="151.2900706">
  <ele>350.41</ele>
  <time>2026-09-01T20:03:40Z</time>
  <course>201.82</course>
  <speed>0.41773197148410846</speed>
  <fix>3d</fix>
</trkpt>
<trkpt lat="-27.2744581" lon="151.2900705">
  <ele>350.35</ele>
  <time>2026-09-01T20:03:40Z</time>
  <course>201.86</course>
  <speed>0.3298484500494128</speed>
  <fix>3d</fix>
</trkpt>
<trkpt lat="-27.2744579" lon="151.2900704">
  <ele>350.47</ele>
  <time>2026-09-01T20:03:40Z</time>
  <course>191.86</course>
  <speed>0.45</speed>
  <fix>3d</fix>
</trkpt>
<trkpt lat="-27.2744581" lon="151.2900705">
  <ele>350.33</ele>
  <time>2026-09-01T20:03:40Z</time>
  <course>201.87</course>
  <speed>0.30083217912982646</speed>
  <fix>3d</fix>
</trkpt>
<trkpt lat="-27.2744583" lon="151.2900704">
  <ele>350.27</ele>
  <time>2026-09-01T20:03:40Z</time>
  <course>201.91</course>
  <speed>0.21540659228538014</speed>
  <fix>3d</fix>
</trkpt>
<trkpt lat="-27.2744579" lon="151.2900704">
  <ele>350.47</ele>
  <time>2026-09-01T20:03:40Z</time>
  <course>191.86</course>
  <speed>0.45</speed>
  <fix>3d</fix>
</trkpt>
<trkpt lat="-27.2744584" lon="151.2900704">
  <ele>350.25</ele>
  <time>2026-09-01T20:03:40Z</time>
  <course>201.92</course>
  <speed>0.18788294228055935</speed>
  <fix>3d</fix>
</trkpt>
<trkpt lat="-27.2744584" lon="151.2900703">
  <ele>350.2</ele>
  <time>2026-09-01T20:03:40Z</time>
  <course>201.96</course>
  <speed>0.12041594578792296</speed>
  <fix>3d</fix>
</trkpt>
<trkpt lat="-27.2744584" lon="151.2900702">
  <ele>350.31</ele>
  <time>2026-09-01T20:03:40Z</time>
  <course>204.58</course>
  <speed>0.21</speed>
  <fix>3d</fix>
</trkpt>
<trkpt lat="-27.2744585" lon="151.2900703">
  <ele>350.18</ele>
  <time>2026-09-01T20:03:40Z</time>
  <course>201.97</course>
  <speed>0.1</speed>
  <fix>3d</fix>
</trkpt>
<trkpt lat="-27.2744585" lon="151.2900702">
  <ele>350.13</ele>
  <time>2026-09-01T20:03:40Z</time>
  <course>202.03</course>
  <speed>0.08062257748298549</speed>
  <fix>3d</fix>
</trkpt>
<trkpt lat="-27.2744584" lon="151.2900702">
  <ele>350.31</ele>
  <time>2026-09-01T20:03:40Z</time>
  <course>204.58</course>
  <speed>0.21</speed>
  <fix>3d</fix>
</trkpt>
<trkpt lat="-27.2744585" lon="151.2900701">
  <ele>350.11</ele>
  <time>2026-09-01T20:03:40Z</time>
  <course>202.05</course>
  <speed>0.08944271909999159</speed>
  <fix>3d</fix>
</trkpt>
<trkpt lat="-27.2744584" lon="151.2900701">
  <ele>350.06</ele>
  <time>2026-09-01T20:03:40Z</time>
  <course>202.13</course>
  <speed>0.13601470508735444</speed>
  <fix>3d</fix>
</trkpt>
<trkpt lat="-27.2744586" lon="151.2900699">
  <ele>350.16</ele>
  <time>2026-09-01T20:03:40Z</time>
  <course>285.44</course>
  <speed>0.09</speed>
  <fix>3d</fix>
</trkpt>
<trkpt lat="-27.2744584" lon="151.2900701">
  <ele>350.05</ele>
  <time>2026-09-01T20:03:40Z</time>
  <course>202.16</course>
  <speed>0.16124515496597097</speed>
  <fix>3d</fix>
</trkpt>
<trkpt lat="-27.2744583" lon="151.29007">
  <ele>350.0</ele>
  <time>2026-09-01T20:03:40Z</time>
  <course>202.25</course>
  <speed>0.22472205054244232</speed>
  <fix>3d</fix>
</trkpt>
<trkpt lat="-27.2744586" lon="151.2900699">
  <ele>350.16</ele>
  <time>2026-09-01T20:03:40Z</time>
  <course>285.44</course>
  <speed>0.09</speed>
  <fix>3d</fix>
</trkpt>
<trkpt lat="-27.2744583" lon="151.29007">
  <ele>350.0</ele>
  <time>2026-09-01T20:03:40Z</time>
  <course>202.26</course>
  <speed>0.22472205054244232</speed>
  <fix>3d</fix>
</trkpt>
<trkpt lat="-27.2744581" lon="151.2900699">
  <ele>349.94</ele>
  <time>2026-09-01T20:03:40Z</time>
  <course>202.37</course>
  <speed>0.3132091952673165</speed>
  <fix>3d</fix>
</trkpt>
<trkpt lat="-27.2744584" lon="151.2900698">
  <ele>350.04</ele>
  <time>2026-09-01T20:03:40Z</time>
  <course>338.55</course>
  <speed>0.24</speed>
  <fix>3d</fix>
</trkpt>
<trkpt lat="-27.2744581" lon="151.2900699">
  <ele>349.94</ele>
  <time>2026-09-01T20:03:40Z</time>
  <course>202.38</course>
  <speed>0.3132091952673165</speed>
  <fix>3d</fix>
</trkpt>
<trkpt lat="-27.2744578" lon="151.2900698">
  <ele>349.88</ele>
  <time>2026-09-01T20:03:40Z</time>
  <course>202.49</course>
  <speed>0.38078865529319544</speed>
  <fix>3d</fix>
</trkpt>
<trkpt lat="-27.2744584" lon="151.2900698">
  <ele>350.04</ele>
  <time>2026-09-01T20:03:40Z</time>
  <course>338.55</course>
  <speed>0.24</speed>
  <fix>3d</fix>
</trkpt>
<trkpt lat="-27.2744578" lon="151.2900697">
  <ele>349.86</ele>
  <time>2026-09-01T20:03:40Z</time>
  <course>202.52</course>
  <speed>0.40024992192379005</speed>
  <fix>3d</fix>
</trkpt>
<trkpt lat="-27.2744575" lon="151.2900697">
  <ele>349.82</ele>
  <time>2026-09-01T20:03:40Z</time>
  <course>202.59</course>
  <speed>0.4491102314577124</speed>
  <fix>3d</fix>
</trkpt>
<trkpt lat="-27.2744579" lon="151.2900695">
  <ele>349.92</ele>
  <time>2026-09-01T20:03:40Z</time>
  <course>346.76</course>
  <speed>0.4</speed>
  <fix>3d</fix>
</trkpt>
<trkpt lat="-27.2744574" lon="151.2900696">
  <ele>349.81</ele>
  <time>2026-09-01T20:03:40Z</time>
  <course>202.62</course>
  <speed>0.4707440918375928</speed>
  <fix>3d</fix>
</trkpt>
<trkpt lat="-27.2744571" lon="151.2900695">
  <ele>349.77</ele>
  <time>2026-09-01T20:03:40Z</time>
  <course>202.69</course>
  <speed>0.5099019513592785</speed>
  <fix>3d</fix>
</trkpt>
<trkpt lat="-27.2744579" lon="151.2900695">
  <ele>349.92</ele>
  <time>2026-09-01T20:03:40Z</time>
  <course>346.76</course>
  <speed>0.4</speed>
  <fix>3d</fix>
</trkpt>
<trkpt lat="-27.2744569" lon="151.2900695">
  <ele>349.75</ele>
  <time>2026-09-01T20:03:40Z</time>
  <course>202.71</course>
  <speed>0.5295280917949491</speed>
  <fix>3d</fix>
</trkpt>
<trkpt lat="-27.2744566" lon="151.2900694">
  <ele>349.71</ele>
  <time>2026-09-01T20:03:40Z</time>
  <course>202.77</course>
  <speed>0.5608921464952064</speed>
  <fix>3d</fix>
</trkpt>
<trkpt lat="-27.2744571" lon="151.2900694">
  <ele>349.81</ele>
  <time>2026-09-01T20:03:40Z</time>
  <course>348.86</course>
  <speed>0.53</speed>
  <fix>3d</fix>
</trkpt>
<trkpt lat="-27.2744565" lon="151.2900694">
  <ele>349.7</ele>
  <time>2026-09-01T20:03:40Z</time>
  <course>202.79</course>
  <speed>0.570701322935211</speed>
  <fix>3d</fix>
</trkpt>
<trkpt lat="-27.2744561" lon="151.2900693">
  <ele>349.66</ele>
  <time>2026-09-01T20:03:40Z</time>
  <course>202.85</course>
  <speed>0.6020797289396147</speed>
  <fix>3d</fix>
</trkpt>
<trkpt lat="-27.2744571" lon="151.2900694">
  <ele>349.81</ele>
  <time>2026-09-01T20:03:40Z</time>
  <course>348.86</course>
  <speed>0.53</speed>
  <fix>3d</fix>
</trkpt>
<trkpt lat="-27.2744559" lon="151.2900693">
  <ele>349.64</ele>
  <time>2026-09-01T20:03:40Z</time>
  <course>202.87</course>
  <speed>0.6118823416311342</speed>
  <fix>3d</fix>
</trkpt>
<trkpt lat="-27.2744555" lon="151.2900692">
  <ele>349.6</ele>
  <time>2026-09-01T20:03:40Z</time>
  <course>202.92</course>
  <speed>0.6334824385884742</speed>
  <fix>3d</fix>
</trkpt>
<trkpt lat="-27.274456" lon="151.2900692">
  <ele>349.69</ele>
  <time>2026-09-01T20:03:40Z</time>
  <course>349.09</course>
  <speed>0.62</speed>
  <fix>3d</fix>
</trkpt>
<trkpt lat="-27.2744554" lon="151.2900691">
  <ele>349.59</ele>
  <time>2026-09-01T20:03:40Z</time>
  <course>202.94</course>
  <speed>0.6432728814430156</speed>
  <fix>3d</fix>
</trkpt>
<trkpt lat="-27.274455" lon="151.290069">
  <ele>349.55</ele>
  <time>2026-09-01T20:03:40Z</time>
  <course>202.99</course>
  <speed>0.6649060083951716</speed>
  <fix>3d</fix>
</trkpt>
<trkpt lat="-27.274456" lon="151.2900692">
  <ele>349.69</ele>
  <time>2026-09-01T20:03:40Z</time>
  <course>349.09</course>
  <speed>0.62</speed>
  <fix>3d</fix>
</trkpt>
<trkpt lat="-27.2744548" lon="151.290069">
  <ele>349.53</ele>
  <time>2026-09-01T20:03:40Z</time>
  <course>203.01</course>
  <speed>0.6649060083951716</speed>
  <fix>3d</fix>
</trkpt>
<trkpt lat="-27.2744544" lon="151.2900689">
  <ele>349.49</ele>
  <time>2026-09-01T20:03:40Z</time>
  <course>203.06</course>
  <speed>0.6865857557508748</speed>
  <fix>3d</fix>
</trkpt>
<trkpt lat="-27.2744549" lon="151.2900689">
  <ele>349.58</ele>
  <time>2026-09-01T20:03:40Z</time>
  <course>348.53</course>
  <speed>0.69</speed>
  <fix>3d</fix>
</trkpt>
<trkpt lat="-27.2744543" lon="151.2900689">
  <ele>349.49</ele>
  <time>2026-09-01T20:03:40Z</time>
  <course>203.06</course>
  <speed>0.6865857557508748</speed>
  <fix>3d</fix>
</trkpt>
<trkpt lat="-27.2744537" lon="151.2900687">
  <ele>349.43</ele>
  <time>2026-09-01T20:03:40Z</time>
  <course>203.12</course>
  <speed>0.6985699678629191</speed>
  <fix>3d</fix>
</trkpt>
<trkpt lat="-27.2744549" lon="151.2900689">
  <ele>349.58</ele>
  <time>2026-09-01T20:03:40Z</time>
  <course>348.53</course>
  <speed>0.69</speed>
  <fix>3d</fix>
</trkpt>
<trkpt lat="-27.2744537" lon="151.2900687">
  <ele>349.43</ele>
  <time>2026-09-01T20:03:40Z</time>
  <course>203.12</course>
  <speed>0.6985699678629191</speed>
  <fix>3d</fix>
</trkpt>
<trkpt lat="-27.2744531" lon="151.2900685">
  <ele>349.37</ele>
  <time>2026-09-01T20:03:40Z</time>
  <course>203.16</course>
  <speed>0.7203471385380802</speed>
  <fix>3d</fix>
</trkpt>
<trkpt lat="-27.2744536" lon="151.2900686">
  <ele>349.46</ele>
  <time>2026-09-01T20:03:40Z</time>
  <course>347.63</course>
  <speed>0.73</speed>
  <fix>3d</fix>
</trkpt>
<trkpt lat="-27.2744531" lon="151.2900685">
  <ele>349.37</ele>
  <time>2026-09-01T20:03:40Z</time>
  <course>203.17</course>
  <speed>0.7203471385380802</speed>
  <fix>3d</fix>
</trkpt>
<trkpt lat="-27.2744525" lon="151.2900683">
  <ele>349.31</ele>
  <time>2026-09-01T20:03:40Z</time>
  <course>203.2</course>
  <speed>0.7203471385380802</speed>
  <fix>3d</fix>
</trkpt>
<trkpt lat="-27.2744536" lon="151.2900686">
  <ele>349.46</ele>
  <time>2026-09-01T20:03:40Z</time>
  <course>347.63</course>
  <speed>0.73</speed>
  <fix>3d</fix>
</trkpt>
<trkpt lat="-27.2744523" lon="151.2900683">
  <ele>349.3</ele>
  <time>2026-09-01T20:03:40Z</time>
  <course>203.21</course>
  <speed>0.7227724399837061</speed>
  <fix>3d</fix>
</trkpt>
<trkpt lat="-27.2744518" lon="151.2900682">
  <ele>349.25</ele>
  <time>2026-09-01T20:03:40Z</time>
  <course>203.22</course>
  <speed>0.7324616030891995</speed>
  <fix>3d</fix>
</trkpt>
<trkpt lat="-27.2744523" lon="151.2900682">
  <ele>349.34</ele>
  <time>2026-09-01T20:03:40Z</time>
  <course>346.67</course>
  <speed>0.76</speed>
  <fix>3d</fix>
</trkpt>
<trkpt lat="-27.2744517" lon="151.2900681">
  <ele>349.24</ele>
  <time>2026-09-01T20:03:40Z</time>
  <course>203.23</course>
  <speed>0.7324616030891995</speed>
  <fix>3d</fix>
</trkpt>
<trkpt lat="-27.2744512" lon="151.290068">
  <ele>349.19</ele>
  <time>2026-09-01T20:03:40Z</time>
  <course>203.23</course>
  <speed>0.7349829930005184</speed>
  <fix>3d</fix>
</trkpt>
<trkpt lat="-27.2744523" lon="151.2900682">
  <ele>349.34</ele>
  <time>2026-09-01T20:03:40Z</time>
  <course>346.67</course>
  <speed>0.76</speed>
  <fix>3d</fix>
</trkpt>
<trkpt lat="-27.274451" lon="151.2900679">
  <ele>349.18</ele>
  <time>2026-09-01T20:03:40Z</time>
  <course>203.23</course>
  <speed>0.7349829930005184</speed>
  <fix>3d</fix>
</trkpt>
<trkpt lat="-27.2744505" lon="151.2900678">
  <ele>349.13</ele>
  <time>2026-09-01T20:03:40Z</time>
  <course>203.23</course>
  <speed>0.7349829930005184</speed>
  <fix>3d</fix>
</trkpt>
<trkpt lat="-27.2744509" lon="151.2900679">
  <ele>349.22</ele>
  <time>2026-09-01T20:03:40Z</time>
  <course>345.81</course>
  <speed>0.77</speed>
  <fix>3d</fix>
</trkpt>
<trkpt lat="-27.2744503" lon="151.2900677">
  <ele>349.12</ele>
  <time>2026-09-01T20:03:40Z</time>
  <course>203.22</course>
  <speed>0.7349829930005184</speed>
  <fix>3d</fix>
</trkpt>
<trkpt lat="-27.2744499" lon="151.2900676">
  <ele>349.07</ele>
  <time>2026-09-01T20:03:40Z</time>
  <course>203.2</course>
  <speed>0.7376313442364011</speed>
  <fix>3d</fix>
</trkpt>
<trkpt lat="-27.2744509" lon="151.2900679">
  <ele>349.22</ele>
  <time>2026-09-01T20:03:40Z</time>
  <course>345.81</course>
  <speed>0.77</speed>
  <fix>3d</fix>
</trkpt>
<trkpt lat="-27.2744498" lon="151.2900676">
  <ele>349.07</ele>
  <time>2026-09-01T20:03:40Z</time>
  <course>203.2</course>
  <speed>0.7376313442364011</speed>
  <fix>3d</fix>
</trkpt>
<trkpt lat="-27.2744492" lon="151.2900674">
  <ele>349.01</ele>
  <time>2026-09-01T20:03:40Z</time>
  <course>203.16</course>
  <speed>0.7376313442364011</speed>
  <fix>3d</fix>
</trkpt>
<trkpt lat="-27.2744495" lon="151.2900675">
  <ele>349.1</ele>
  <time>2026-09-01T20:03:40Z</time>
  <course>345.08</course>
  <speed>0.78</speed>
  <fix>3d</fix>
</trkpt>
<trkpt lat="-27.2744492" lon="151.2900674">
  <ele>349.01</ele>
  <time>2026-09-01T20:03:40Z</time>
  <course>203.16</course>
  <speed>0.7376313442364011</speed>
  <fix>3d</fix>
</trkpt>
<trkpt lat="-27.2744485" lon="151.2900672">
  <ele>348.96</ele>
  <time>2026-09-01T20:03:40Z</time>
  <course>203.1</course>
  <speed>0.7280109889280518</speed>
  <fix>3d</fix>
</trkpt>
<trkpt lat="-27.2744495" lon="151.2900675">
  <ele>349.1</ele>
  <time>2026-09-01T20:03:40Z</time>
  <course>345.08</course>
  <speed>0.78</speed>
  <fix>3d</fix>
</trkpt>
<trkpt lat="-27.2744485" lon="151.2900672">
  <ele>348.95</ele>
  <time>2026-09-01T20:03:40Z</time>
  <course>203.1</course>
  <speed>0.7280109889280518</speed>
  <fix>3d</fix>
</trkpt>
<trkpt lat="-27.2744479" lon="151.290067">
  <ele>348.9</ele>
  <time>2026-09-01T20:03:40Z</time>
  <course>203.01</course>
  <speed>0.7280109889280518</speed>
  <fix>3d</fix>
</trkpt>
<trkpt lat="-27.2744482" lon="151.290067">
  <ele>348.98</ele>
  <time>2026-09-01T20:03:40Z</time>
  <course>344.62</course>
  <speed>0.77</speed>
  <fix>3d</fix>
</trkpt>
<trkpt lat="-27.2744479" lon="151.2900669">
  <ele>348.9</ele>
  <time>2026-09-01T20:03:40Z</time>
  <course>203.01</course>
  <speed>0.7280109889280518</speed>
  <fix>3d</fix>
</trkpt>
<trkpt lat="-27.2744472" lon="151.2900667">
  <ele>348.84</ele>
  <time>2026-09-01T20:03:40Z</time>
  <course>202.91</course>
  <speed>0.7280109889280518</speed>
  <fix>3d</fix>
</trkpt>
<trkpt lat="-27.2744482" lon="151.290067">
  <ele>348.98</ele>
  <time>2026-09-01T20:03:40Z</time>
  <course>344.62</course>
  <speed>0.77</speed>
  <fix>3d</fix>
</trkpt>
<trkpt lat="-27.2744471" lon="151.2900667">
  <ele>348.83</ele>
  <time>2026-09-01T20:03:40Z</time>
  <course>202.88</course>
  <speed>0.7184010022264724</speed>
  <fix>3d</fix>
</trkpt>
<trkpt lat="-27.2744466" lon="151.2900665">
  <ele>348.79</ele>
  <time>2026-09-01T20:03:40Z</time>
  <course>202.79</course>
  <speed>0.7156814934033155</speed>
  <fix>3d</fix>
</trkpt>
<trkpt lat="-27.2744469" lon="151.2900667">
  <ele>348.86</ele>
  <time>2026-09-01T20:03:40Z</time>
  <course>344.52</course>
  <speed>0.77</speed>
  <fix>3d</fix>
</trkpt>
<trkpt lat="-27.2744466" lon="151.2900665">
  <ele>348.78</ele>
  <time>2026-09-01T20:03:40Z</time>
  <course>202.79</course>
  <speed>0.7156814934033155</speed>
  <fix>3d</fix>
</trkpt>
<trkpt lat="-27.2744459" lon="151.2900663">
  <ele>348.73</ele>
  <time>2026-09-01T20:03:40Z</time>
  <course>202.66</course>
  <speed>0.7060453243241541</speed>
  <fix>3d</fix>
</trkpt>
<trkpt lat="-27.2744469" lon="151.2900667">
  <ele>348.86</ele>
  <time>2026-09-01T20:03:40Z</time>
  <course>344.52</course>
  <speed>0.77</speed>
  <fix>3d</fix>
</trkpt>
<trkpt lat="-27.2744459" lon="151.2900663">
  <ele>348.73</ele>
  <time>2026-09-01T20:03:40Z</time>
  <course>202.65</course>
  <speed>0.7060453243241541</speed>
  <fix>3d</fix>
</trkpt>
<trkpt lat="-27.2744453" lon="151.2900661">
  <ele>348.67</ele>
  <time>2026-09-01T20:03:40Z</time>
  <course>202.51</course>
  <speed>0.6937578828380979</speed>
  <fix>3d</fix>
</trkpt>
<trkpt lat="-27.2744456" lon="151.2900662">
  <ele>348.74</ele>
  <time>2026-09-01T20:03:40Z</time>
  <course>344.73</course>
  <speed>0.75</speed>
  <fix>3d</fix>
</trkpt>
<trkpt lat="-27.2744453" lon="151.2900661">
  <ele>348.67</ele>
  <time>2026-09-01T20:03:40Z</time>
  <course>202.5</course>
  <speed>0.6937578828380979</speed>
  <fix>3d</fix>
</trkpt>
<trkpt lat="-27.2744447" lon="151.290066">
  <ele>348.62</ele>
  <time>2026-09-01T20:03:40Z</time>
  <course>202.35</course>
  <speed>0.6841052550594828</speed>
  <fix>3d</fix>
</trkpt>
<trkpt lat="-27.2744456" lon="151.2900662">
  <ele>348.74</ele>
  <time>2026-09-01T20:03:40Z</time>
  <course>344.73</course>
  <speed>0.75</speed>
  <fix>3d</fix>
</trkpt>
<trkpt lat="-27.2744446" lon="151.2900659">
  <ele>348.62</ele>
  <time>2026-09-01T20:03:40Z</time>
  <course>202.35</course>
  <speed>0.6841052550594828</speed>
  <fix>3d</fix>
</trkpt>
<trkpt lat="-27.274444" lon="151.2900658">
  <ele>348.57</ele>
  <time>2026-09-01T20:03:40Z</time>
  <course>202.19</course>
  <speed>0.671863081289633</speed>
  <fix>3d</fix>
</trkpt>
<trkpt lat="-27.2744443" lon="151.2900659">
  <ele>348.63</ele>
  <time>2026-09-01T20:03:40Z</time>
  <course>345.16</course>
  <speed>0.73</speed>
  <fix>3d</fix>
</trkpt>
<trkpt lat="-27.274444" lon="151.2900658">
  <ele>348.56</ele>
  <time>2026-09-01T20:03:40Z</time>
  <course>202.18</course>
  <speed>0.671863081289633</speed>
  <fix>3d</fix>
</trkpt>
<trkpt lat="-27.2744434" lon="151.2900656">
  <ele>348.51</ele>
  <time>2026-09-01T20:03:40Z</time>
  <course>202.02</course>
  <speed>0.65</speed>
  <fix>3d</fix>
</trkpt>
<trkpt lat="-27.2744443" lon="151.2900659">
  <ele>348.63</ele>
  <time>2026-09-01T20:03:40Z</time>
  <course>345.16</course>
  <speed>0.73</speed>
  <fix>3d</fix>
</trkpt>
<trkpt lat="-27.2744433" lon="151.2900655">
  <ele>348.5</ele>
  <time>2026-09-01T20:03:40Z</time>
  <course>201.97</course>
  <speed>0.65</speed>
  <fix>3d</fix>
</trkpt>
<trkpt lat="-27.2744428" lon="151.2900654">
  <ele>348.46</ele>
  <time>2026-09-01T20:03:40Z</time>
  <course>201.84</course>
  <speed>0.6378871373526824</speed>
  <fix>3d</fix>
</trkpt>
<trkpt lat="-27.274443" lon="151.2900655">
  <ele>348.53</ele>
  <time>2026-09-01T20:03:40Z</time>
  <course>345.84</course>
  <speed>0.7</speed>
  <fix>3d</fix>
</trkpt>
<trkpt lat="-27.2744427" lon="151.2900654">
  <ele>348.45</ele>
  <time>2026-09-01T20:03:40Z</time>
  <course>201.8</course>
  <speed>0.6378871373526824</speed>
  <fix>3d</fix>
</trkpt>
<trkpt lat="-27.2744422" lon="151.2900653">
  <ele>348.41</ele>
  <time>2026-09-01T20:03:40Z</time>
  <course>201.68</course>
  <speed>0.6258594091327541</speed>
  <fix>3d</fix>
</trkpt>
<trkpt lat="-27.274443" lon="151.2900655">
  <ele>348.53</ele>
  <time>2026-09-01T20:03:40Z</time>
  <course>345.84</course>
  <speed>0.7</speed>
  <fix>3d</fix>
</trkpt>
<trkpt lat="-27.2744421" lon="151.2900652">
  <ele>348.4</ele>
  <time>2026-09-01T20:03:40Z</time>
  <course>201.63</course>
  <speed>0.6139218191268331</speed>
  <fix>3d</fix>
</trkpt>
<trkpt lat="-27.2744417" lon="151.2900651">
  <ele>348.36</ele>
  <time>2026-09-01T20:03:40Z</time>
  <course>201.51</course>
  <speed>0.6041522986797286</speed>
  <fix>3d</fix>
</trkpt>
<trkpt lat="-27.2744418" lon="151.2900652">
  <ele>348.42</ele>
  <time>2026-09-01T20:03:40Z</time>
  <course>346.86</course>
  <speed>0.67</speed>
  <fix>3d</fix>
</trkpt>
<trkpt lat="-27.2744416" lon="151.2900651">
  <ele>348.35</ele>
  <time>2026-09-01T20:03:40Z</time>
  <course>201.48</course>
  <speed>0.6020797289396147</speed>
  <fix>3d</fix>
</trkpt>
<trkpt lat="-27.2744411" lon="151.290065">
  <ele>348.31</ele>
  <time>2026-09-01T20:03:40Z</time>
  <course>201.35</course>
  <speed>0.5805170109479997</speed>
  <fix>3d</fix>
</trkpt>
<trkpt lat="-27.2744418" lon="151.2900652">
  <ele>348.42</ele>
  <time>2026-09-01T20:03:40Z</time>
  <course>346.86</course>
  <speed>0.67</speed>
  <fix>3d</fix>
</trkpt>
<trkpt lat="-27.2744409" lon="151.290065">
  <ele>348.29</ele>
  <time>2026-09-01T20:03:40Z</time>
  <course>201.3</course>
  <speed>0.5805170109479997</speed>
  <fix>3d</fix>
</trkpt>
<trkpt lat="-27.2744406" lon="151.2900649">
  <ele>348.25</ele>
  <time>2026-09-01T20:03:40Z</time>
  <course>201.2</course>
  <speed>0.5688585061331157</speed>
  <fix>3d</fix>
</trkpt>
<trkpt lat="-27.2744418" lon="151.2900652">
  <ele>348.42</ele>
  <time>2026-09-01T20:03:40Z</time>
  <course>346.86</course>
  <speed>0.67</speed>
  <fix>3d</fix>
</trkpt>
<trkpt lat="-27.2744404" lon="151.2900649">
  <ele>348.24</ele>
  <time>2026-09-01T20:03:40Z</time>
  <course>201.16</course>
  <speed>0.5590169943749475</speed>
  <fix>3d</fix>
</trkpt>
<trkpt lat="-27.27444" lon="151.2900648">
  <ele>348.2</ele>
  <time>2026-09-01T20:03:40Z</time>
  <course>201.06</course>
  <speed>0.5474486277268398</speed>
  <fix>3d</fix>
</trkpt>
<trkpt lat="-27.2744407" lon="151.2900649">
  <ele>348.32</ele>
  <time>2026-09-01T20:03:40Z</time>
  <course>348.25</course>
  <speed>0.63</speed>
  <fix>3d</fix>
</trkpt>
<trkpt lat="-27.27444" lon="151.2900648">
  <ele>348.2</ele>
  <time>2026-09-01T20:03:40Z</time>
  <course>201.05</course>
  <speed>0.5458937625582473</speed>
  <fix>3d</fix>
</trkpt>
<trkpt lat="-27.2744395" lon="151.2900647">
  <ele>348.15</ele>
  <time>2026-09-01T20:03:40Z</time>
  <course>200.91</course>
  <speed>0.5246903848937962</speed>
  <fix>3d</fix>
</trkpt>
<trkpt lat="-27.2744407" lon="151.2900649">
  <ele>348.32</ele>
  <time>2026-09-01T20:03:40Z</time>
  <course>348.25</course>
  <speed>0.63</speed>
  <fix>3d</fix>
</trkpt>
<trkpt lat="-27.2744395" lon="151.2900647">
  <ele>348.15</ele>
  <time>2026-09-01T20:03:40Z</time>
  <course>200.91</course>
  <speed>0.5246903848937962</speed>
  <fix>3d</fix>
</trkpt>
<trkpt lat="-27.274439" lon="151.2900646">
  <ele>348.1</ele>
  <time>2026-09-01T20:03:40Z</time>
  <course>200.78</course>
  <speed>0.5135172830587107</speed>
  <fix>3d</fix>
</trkpt>
<trkpt lat="-27.2744396" lon="151.2900646">
  <ele>348.22</ele>
  <time>2026-09-01T20:03:40Z</time>
  <course>350.03</course>
  <speed>0.59</speed>
  <fix>3d</fix>
</trkpt>
<trkpt lat="-27.2744389" lon="151.2900646">
  <ele>348.08</ele>
  <time>2026-09-01T20:03:40Z</time>
  <course>200.75</course>
  <speed>0.5024937810560445</speed>
  <fix>3d</fix>
</trkpt>
<trkpt lat="-27.2744385" lon="151.2900646">
  <ele>348.05</ele>
  <time>2026-09-01T20:03:40Z</time>
  <course>200.66</course>
  <speed>0.4916299421312742</speed>
  <fix>3d</fix>
</trkpt>
<trkpt lat="-27.2744385" lon="151.2900645">
  <ele>348.12</ele>
  <time>2026-09-01T20:03:40Z</time>
  <course>352.2</course>
  <speed>0.55</speed>
  <fix>3d</fix>
</trkpt>
<trkpt lat="-27.2744384" lon="151.2900645">
  <ele>348.03</ele>
  <time>2026-09-01T20:03:40Z</time>
  <course>200.63</course>
  <speed>0.48166378315169184</speed>
  <fix>3d</fix>
</trkpt>
<trkpt lat="-27.274438" lon="151.2900645">
  <ele>348.0</ele>
  <time>2026-09-01T20:03:40Z</time>
  <course>200.55</course>
  <speed>0.4709564735726646</speed>
  <fix>3d</fix>
</trkpt>
<trkpt lat="-27.2744385" lon="151.2900645">
  <ele>348.12</ele>
  <time>2026-09-01T20:03:40Z</time>
  <course>352.2</course>
  <speed>0.55</speed>
  <fix>3d</fix>
</trkpt>
<trkpt lat="-27.2744379" lon="151.2900645">
  <ele>347.98</ele>
  <time>2026-09-01T20:03:40Z</time>
  <course>200.52</course>
  <speed>0.4604345773288535</speed>
  <fix>3d</fix>
</trkpt>
<trkpt lat="-27.2744376" lon="151.2900645">
  <ele>347.95</ele>
  <time>2026-09-01T20:03:40Z</time>
  <course>200.44</course>
  <speed>0.450111097397076</speed>
  <fix>3d</fix>
</trkpt>
<trkpt lat="-27.2744376" lon="151.2900643">
  <ele>348.02</ele>
  <time>2026-09-01T20:03:40Z</time>
  <course>354.76</course>
  <speed>0.51</speed>
  <fix>3d</fix>
</trkpt>
<trkpt lat="-27.2744375" lon="151.2900645">
  <ele>347.93</ele>
  <time>2026-09-01T20:03:40Z</time>
  <course>200.41</course>
  <speed>0.450111097397076</speed>
  <fix>3d</fix>
</trkpt>
<trkpt lat="-27.2744372" lon="151.2900644">
  <ele>347.9</ele>
  <time>2026-09-01T20:03:40Z</time>
  <course>200.33</course>
  <speed>0.43</speed>
  <fix>3d</fix>
</trkpt>
<trkpt lat="-27.2744376" lon="151.2900643">
  <ele>348.02</ele>
  <time>2026-09-01T20:03:40Z</time>
  <course>354.76</course>
  <speed>0.51</speed>
  <fix>3d</fix>
</trkpt>
<trkpt lat="-27.274437" lon="151.2900644">
  <ele>347.88</ele>
  <time>2026-09-01T20:03:40Z</time>
  <course>200.31</course>
  <speed>0.43</speed>
  <fix>3d</fix>
</trkpt>
<trkpt lat="-27.2744367" lon="151.2900644">
  <ele>347.85</ele>
  <time>2026-09-01T20:03:40Z</time>
  <course>200.24</course>
  <speed>0.41012193308819755</speed>
  <fix>3d</fix>
</trkpt>
<trkpt lat="-27.2744367" lon="151.2900642">
  <ele>347.91</ele>
  <time>2026-09-01T20:03:40Z</time>
  <course>357.75</course>
  <speed>0.47</speed>
  <fix>3d</fix>
</trkpt>
<trkpt lat="-27.2744367" lon="151.2900644">
  <ele>347.84</ele>
  <time>2026-09-01T20:03:40Z</time>
  <course>200.23</course>
  <speed>0.41012193308819755</speed>
  <fix>3d</fix>
</trkpt>
<trkpt lat="-27.2744363" lon="151.2900644">
  <ele>347.8</ele>
  <time>2026-09-01T20:03:40Z</time>
  <course>200.14</course>
  <speed>0.3905124837953327</speed>
  <fix>3d</fix>
</trkpt>
<trkpt lat="-27.2744367" lon="151.2900642">
  <ele>347.91</ele>
  <time>2026-09-01T20:03:40Z</time>
  <course>357.75</course>
  <speed>0.47</speed>
  <fix>3d</fix>
</trkpt>
<trkpt lat="-27.2744362" lon="151.2900644">
  <ele>347.78</ele>
  <time>2026-09-01T20:03:40Z</time>
  <course>200.12</course>
  <speed>0.3911521443121589</speed>
  <fix>3d</fix>
</trkpt>
<trkpt lat="-27.274436" lon="151.2900645">
  <ele>347.75</ele>
  <time>2026-09-01T20:03:40Z</time>
  <course>200.06</course>
  <speed>0.3721558813185679</speed>
  <fix>3d</fix>
</trkpt>
<trkpt lat="-27.2744359" lon="151.2900642">
  <ele>347.81</ele>
  <time>2026-09-01T20:03:40Z</time>
  <course>1.16</course>
  <speed>0.43</speed>
  <fix>3d</fix>
</trkpt>
<trkpt lat="-27.2744358" lon="151.2900645">
  <ele>347.73</ele>
  <time>2026-09-01T20:03:40Z</time>
  <course>200.03</course>
  <speed>0.3622154055254967</speed>
  <fix>3d</fix>
</trkpt>
<trkpt lat="-27.2744356" lon="151.2900645">
  <ele>347.7</ele>
  <time>2026-09-01T20:03:40Z</time>
  <course>199.97</course>
  <speed>0.3535533905932738</speed>
  <fix>3d</fix>
</trkpt>
<trkpt lat="-27.2744359" lon="151.2900642">
  <ele>347.81</ele>
  <time>2026-09-01T20:03:40Z</time>
  <course>1.16</course>
  <speed>0.43</speed>
  <fix>3d</fix>
</trkpt>
<trkpt lat="-27.2744355" lon="151.2900645">
  <ele>347.68</ele>
  <time>2026-09-01T20:03:40Z</time>
  <course>199.95</course>
  <speed>0.34365680554879163</speed>
  <fix>3d</fix>
</trkpt>
<trkpt lat="-27.2744352" lon="151.2900645">
  <ele>347.64</ele>
  <time>2026-09-01T20:03:40Z</time>
  <course>199.89</course>
  <speed>0.33541019662496846</speed>
  <fix>3d</fix>
</trkpt>
<trkpt lat="-27.2744351" lon="151.2900642">
  <ele>347.71</ele>
  <time>2026-09-01T20:03:40Z</time>
  <course>5.06</course>
  <speed>0.39</speed>
  <fix>3d</fix>
</trkpt>
<trkpt lat="-27.2744352" lon="151.2900645">
  <ele>347.64</ele>
  <time>2026-09-01T20:03:40Z</time>
  <course>199.89</course>
  <speed>0.33541019662496846</speed>
  <fix>3d</fix>
</trkpt>
<trkpt lat="-27.2744349" lon="151.2900645">
  <ele>347.59</ele>
  <time>2026-09-01T20:03:40Z</time>
  <course>199.82</course>
  <speed>0.3178049716414141</speed>
  <fix>3d</fix>
</trkpt>
<trkpt lat="-27.2744351" lon="151.2900642">
  <ele>347.71</ele>
  <time>2026-09-01T20:03:40Z</time>
  <course>5.06</course>
  <speed>0.39</speed>
  <fix>3d</fix>
</trkpt>
<trkpt lat="-27.2744349" lon="151.2900645">
  <ele>347.59</ele>
  <time>2026-09-01T20:03:40Z</time>
  <course>199.82</course>
  <speed>0.3080584360149873</speed>
  <fix>3d</fix>
</trkpt>
<trkpt lat="-27.2744346" lon="151.2900645">
  <ele>347.54</ele>
  <time>2026-09-01T20:03:40Z</time>
  <course>199.75</course>
  <speed>0.29120439557122074</speed>
  <fix>3d</fix>
</trkpt>
<trkpt lat="-27.2744345" lon="151.2900643">
  <ele>347.61</ele>
  <time>2026-09-01T20:03:40Z</time>
  <course>9.51</course>
  <speed>0.34</speed>
  <fix>3d</fix>
</trkpt>
<trkpt lat="-27.2744345" lon="151.2900646">
  <ele>347.53</ele>
  <time>2026-09-01T20:03:40Z</time>
  <course>199.73</course>
  <speed>0.29120439557122074</speed>
  <fix>3d</fix>
</trkpt>
<trkpt lat="-27.2744343" lon="151.2900646">
  <ele>347.49</ele>
  <time>2026-09-01T20:03:40Z</time>
  <course>199.68</course>
  <speed>0.2751363298439521</speed>
  <fix>3d</fix>
</trkpt>
<trkpt lat="-27.2744345" lon="151.2900643">
  <ele>347.61</ele>
  <time>2026-09-01T20:03:40Z</time>
  <course>9.51</course>
  <speed>0.34</speed>
  <fix>3d</fix>
</trkpt>
<trkpt lat="-27.2744342" lon="151.2900646">
  <ele>347.48</ele>
  <time>2026-09-01T20:03:40Z</time>
  <course>199.66</course>
  <speed>0.26570660511172844</speed>
  <fix>3d</fix>
</trkpt>
<trkpt lat="-27.2744341" lon="151.2900647">
  <ele>347.44</ele>
  <time>2026-09-01T20:03:40Z</time>
  <course>199.62</course>
  <speed>0.26</speed>
  <fix>3d</fix>
</trkpt>
<trkpt lat="-27.2744339" lon="151.2900645">
  <ele>347.51</ele>
  <time>2026-09-01T20:03:40Z</time>
  <course>14.65</course>
  <speed>0.3</speed>
  <fix>3d</fix>
</trkpt>
<trkpt lat="-27.274434" lon="151.2900647">
  <ele>347.43</ele>
  <time>2026-09-01T20:03:40Z</time>
  <course>199.6</course>
  <speed>0.25079872407968906</speed>
  <fix>3d</fix>
</trkpt>
<trkpt lat="-27.2744338" lon="151.2900648">
  <ele>347.39</ele>
  <time>2026-09-01T20:03:40Z</time>
  <course>199.54</course>
  <speed>0.24166091947189144</speed>
  <fix>3d</fix>
</trkpt>
<trkpt lat="-27.2744339" lon="151.2900645">
  <ele>347.51</ele>
  <time>2026-09-01T20:03:40Z</time>
  <course>14.65</course>
  <speed>0.3</speed>
  <fix>3d</fix>
</trkpt>
<trkpt lat="-27.2744338" lon="151.2900648">
  <ele>347.38</ele>
  <time>2026-09-01T20:03:40Z</time>
  <course>199.49</course>
  <speed>0.23259406699226015</speed>
  <fix>3d</fix>
</trkpt>
<trkpt lat="-27.2744336" lon="151.2900649">
  <ele>347.34</ele>
  <time>2026-09-01T20:03:40Z</time>
  <course>199.31</course>
  <speed>0.21470910553583888</speed>
  <fix>3d</fix>
</trkpt>
<trkpt lat="-27.2744334" lon="151.2900646">
  <ele>347.4</ele>
  <time>2026-09-01T20:03:40Z</time>
  <course>18.94</course>
  <speed>0.26</speed>
  <fix>3d</fix>
</trkpt>
<trkpt lat="-27.2744335" lon="151.2900649">
  <ele>347.33</ele>
  <time>2026-09-01T20:03:40Z</time>
  <course>199.22</course>
  <speed>0.21470910553583888</speed>
  <fix>3d</fix>
</trkpt>
<trkpt lat="-27.2744334" lon="151.2900649">
  <ele>347.29</ele>
  <time>2026-09-01T20:03:40Z</time>
  <course>198.98</course>
  <speed>0.20591260281974003</speed>
  <fix>3d</fix>
</trkpt>
<trkpt lat="-27.2744334" lon="151.2900646">
  <ele>347.4</ele>
  <time>2026-09-01T20:03:40Z</time>
  <course>18.94</course>
  <speed>0.26</speed>
  <fix>3d</fix>
</trkpt>
<trkpt lat="-27.2744333" lon="151.290065">
  <ele>347.28</ele>
  <time>2026-09-01T20:03:40Z</time>
  <course>198.88</course>
  <speed>0.19235384061671343</speed>
  <fix>3d</fix>
</trkpt>
<trkpt lat="-27.2744332" lon="151.290065">
  <ele>347.24</ele>
  <time>2026-09-01T20:03:40Z</time>
  <course>198.61</course>
  <speed>0.17492855684535902</speed>
  <fix>3d</fix>
</trkpt>
<trkpt lat="-27.274433" lon="151.2900648">
  <ele>347.31</ele>
  <time>2026-09-01T20:03:40Z</time>
  <course>21.42</course>
  <speed>0.22</speed>
  <fix>3d</fix>
</trkpt>
<trkpt lat="-27.2744331" lon="151.2900651">
  <ele>347.23</ele>
  <time>2026-09-01T20:03:40Z</time>
  <course>198.51</course>
  <speed>0.17492855684535902</speed>
  <fix>3d</fix>
</trkpt>
<trkpt lat="-27.274433" lon="151.2900651">
  <ele>347.19</ele>
  <time>2026-09-01T20:03:40Z</time>
  <course>198.28</course>
  <speed>0.15811388300841897</speed>
  <fix>3d</fix>
</trkpt>
<trkpt lat="-27.274433" lon="151.2900648">
  <ele>347.31</ele>
  <time>2026-09-01T20:03:40Z</time>
  <course>21.42</course>
  <speed>0.22</speed>
  <fix>3d</fix>
</trkpt>
<trkpt lat="-27.274433" lon="151.2900651">
  <ele>347.18</ele>
  <time>2026-09-01T20:03:40Z</time>
  <course>198.19</course>
  <speed>0.15811388300841897</speed>
  <fix>3d</fix>
</trkpt>
<trkpt lat="-27.2744329" lon="151.2900652">
  <ele>347.14</ele>
  <time>2026-09-01T20:03:40Z</time>
  <course>198.03</course>
  <speed>0.14212670403551894</speed>
  <fix>3d</fix>
</trkpt>
<trkpt lat="-27.274433" lon="151.2900648">
  <ele>347.31</ele>
  <time>2026-09-01T20:03:40Z</time>
  <course>21.42</course>
  <speed>0.22</speed>
  <fix>3d</fix>
</trkpt>
<trkpt lat="-27.2744329" lon="151.2900652">
  <ele>347.14</ele>
  <time>2026-09-01T20:03:40Z</time>
  <course>198.02</course>
  <speed>0.14212670403551894</speed>
  <fix>3d</fix>
</trkpt>
<trkpt lat="-27.2744328" lon="151.2900652">
  <ele>347.09</ele>
  <time>2026-09-01T20:03:40Z</time>
  <course>197.88</course>
  <speed>0.12041594578792296</speed>
  <fix>3d</fix>
</trkpt>
<trkpt lat="-27.2744327" lon="151.290065">
  <ele>347.22</ele>
  <time>2026-09-01T20:03:40Z</time>
  <course>24.22</course>
  <speed>0.18</speed>
  <fix>3d</fix>
</trkpt>
<trkpt lat="-27.2744328" lon="151.2900653">
  <ele>347.09</ele>
  <time>2026-09-01T20:03:40Z</time>
  <course>197.88</course>
  <speed>0.12041594578792296</speed>
  <fix>3d</fix>
</trkpt>
<trkpt lat="-27.2744327" lon="151.2900653">
  <ele>347.04</ele>
  <time>2026-09-01T20:03:40Z</time>
  <course>197.83</course>
  <speed>0.1063014581273465</speed>
  <fix>3d</fix>
</trkpt>
<trkpt lat="-27.2744327" lon="151.290065">
  <ele>347.22</ele>
  <time>2026-09-01T20:03:40Z</time>
  <course>24.22</course>
  <speed>0.18</speed>
  <fix>3d</fix>
</trkpt>
<trkpt lat="-27.2744327" lon="151.2900653">
  <ele>347.04</ele>
  <time>2026-09-01T20:03:40Z</time>
  <course>197.83</course>
  <speed>0.1063014581273465</speed>
  <fix>3d</fix>
</trkpt>
<trkpt lat="-27.2744326" lon="151.2900654">
  <ele>346.99</ele>
  <time>2026-09-01T20:03:40Z</time>
  <course>197.87</course>
  <speed>0.08062257748298549</speed>
  <fix>3d</fix>
</trkpt>
<trkpt lat="-27.2744324" lon="151.2900651">
  <ele>347.12</ele>
  <time>2026-09-01T20:03:40Z</time>
  <course>28.95</course>
  <speed>0.14</speed>
  <fix>3d</fix>
</trkpt>
<trkpt lat="-27.2744326" lon="151.2900654">
  <ele>346.98</ele>
  <time>2026-09-01T20:03:40Z</time>
  <course>197.89</course>
  <speed>0.08062257748298549</speed>
  <fix>3d</fix>
</trkpt>
<trkpt lat="-27.2744325" lon="151.2900654">
  <ele>346.94</ele>
  <time>2026-09-01T20:03:40Z</time>
  <course>197.97</course>
  <speed>0.07280109889280519</speed>
  <fix>3d</fix>
</trkpt>
<trkpt lat="-27.2744324" lon="151.2900651">
  <ele>347.12</ele>
  <time>2026-09-01T20:03:40Z</time>
  <course>28.95</course>
  <speed>0.14</speed>
  <fix>3d</fix>
</trkpt>
<trkpt lat="-27.2744325" lon="151.2900655">
  <ele>346.93</ele>
  <time>2026-09-01T20:03:40Z</time>
  <course>198.0</course>
  <speed>0.07280109889280519</speed>
  <fix>3d</fix>
</trkpt>
<trkpt lat="-27.2744325" lon="151.2900655">
  <ele>346.89</ele>
  <time>2026-09-01T20:03:40Z</time>
  <course>198.09</course>
  <speed>0.07</speed>
  <fix>3d</fix>
</trkpt>
<trkpt lat="-27.2744322" lon="151.2900652">
  <ele>347.02</ele>
  <time>2026-09-01T20:03:40Z</time>
  <course>37.68</course>
  <speed>0.09</speed>
  <fix>3d</fix>
</trkpt>
<trkpt lat="-27.2744325" lon="151.2900655">
  <ele>346.88</ele>
  <time>2026-09-01T20:03:40Z</time>
  <course>198.13</course>
  <speed>0.07</speed>
  <fix>3d</fix>
</trkpt>
<trkpt lat="-27.2744324" lon="151.2900655">
  <ele>346.84</ele>
  <time>2026-09-01T20:03:40Z</time>
  <course>198.23</course>
  <speed>0.06082762530298219</speed>
  <fix>3d</fix>
</trkpt>
<trkpt lat="-27.2744322" lon="151.2900652">
  <ele>347.02</ele>
  <time>2026-09-01T20:03:40Z</time>
  <course>37.68</course>
  <speed>0.09</speed>
  <fix>3d</fix>
</trkpt>
<trkpt lat="-27.2744324" lon="151.2900656">
  <ele>346.83</ele>
  <time>2026-09-01T20:03:40Z</time>
  <course>198.26</course>
  <speed>0.0632455532033676</speed>
  <fix>3d</fix>
</trkpt>
<trkpt lat="-27.2744324" lon="151.2900656">
  <ele>346.79</ele>
  <time>2026-09-01T20:03:40Z</time>
  <course>198.35</course>
  <speed>0.0670820393249937</speed>
  <fix>3d</fix>
</trkpt>
<trkpt lat="-27.2744321" lon="151.2900653">
  <ele>346.91</ele>
  <time>2026-09-01T20:03:40Z</time>
  <course>57.44</course>
  <speed>0.06</speed>
  <fix>3d</fix>
</trkpt>
<trkpt lat="-27.2744324" lon="151.2900656">
  <ele>346.78</ele>
  <time>2026-09-01T20:03:40Z</time>
  <course>198.38</course>
  <speed>0.07211102550927978</speed>
  <fix>3d</fix>
</trkpt>
<trkpt lat="-27.2744324" lon="151.2900656">
  <ele>346.74</ele>
  <time>2026-09-01T20:03:40Z</time>
  <course>198.45</course>
  <speed>0.0848528137423857</speed>
  <fix>3d</fix>
</trkpt>
<trkpt lat="-27.2744321" lon="151.2900653">
  <ele>346.91</ele>
  <time>2026-09-01T20:03:40Z</time>
  <course>57.44</course>
  <speed>0.06</speed>
  <fix>3d</fix>
</trkpt>
<trkpt lat="-27.2744325" lon="151.2900656">
  <ele>346.73</ele>
  <time>2026-09-01T20:03:40Z</time>
  <course>198.48</course>
  <speed>0.07810249675906654</speed>
  <fix>3d</fix>
</trkpt>
<trkpt lat="-27.2744325" lon="151.2900657">
  <ele>346.7</ele>
  <time>2026-09-01T20:03:40Z</time>
  <course>198.53</course>
  <speed>0.09433981132056603</speed>
  <fix>3d</fix>
</trkpt>
<trkpt lat="-27.2744321" lon="151.2900654">
  <ele>346.82</ele>
  <time>2026-09-01T20:03:40Z</time>
  <course>103.01</course>
  <speed>0.04</speed>
  <fix>3d</fix>
</trkpt>
<trkpt lat="-27.2744325" lon="151.2900657">
  <ele>346.68</ele>
  <time>2026-09-01T20:03:40Z</time>
  <course>198.54</course>
  <speed>0.09433981132056603</speed>
  <fix>3d</fix>
</trkpt>
<trkpt lat="-27.2744325" lon="151.2900657">
  <ele>346.65</ele>
  <time>2026-09-01T20:03:40Z</time>
  <course>198.57</course>
  <speed>0.1118033988749895</speed>
  <fix>3d</fix>
</trkpt>
<trkpt lat="-27.2744321" lon="151.2900655">
  <ele>346.72</ele>
  <time>2026-09-01T20:03:40Z</time>
  <course>143.86</course>
  <speed>0.06</speed>
  <fix>3d</fix>
</trkpt>
<trkpt lat="-27.2744325" lon="151.2900657">
  <ele>346.63</ele>
  <time>2026-09-01T20:03:40Z</time>
  <course>198.58</course>
  <speed>0.1118033988749895</speed>
  <fix>3d</fix>
</trkpt>
<trkpt lat="-27.2744326" lon="151.2900657">
  <ele>346.6</ele>
  <time>2026-09-01T20:03:40Z</time>
  <course>198.59</course>
  <speed>0.13</speed>
  <fix>3d</fix>
</trkpt>
<trkpt lat="-27.2744321" lon="151.2900655">
  <ele>346.72</ele>
  <time>2026-09-01T20:03:40Z</time>
  <course>143.86</course>
  <speed>0.06</speed>
  <fix>3d</fix>
</trkpt>
<trkpt lat="-27.2744326" lon="151.2900657">
  <ele>346.58</ele>
  <time>2026-09-01T20:03:40Z</time>
  <course>198.59</course>
  <speed>0.13</speed>
  <fix>3d</fix>
</trkpt>
<trkpt lat="-27.2744326" lon="151.2900658">
  <ele>346.55</ele>
  <time>2026-09-01T20:03:40Z</time>
  <course>198.59</course>
  <speed>0.14560219778561037</speed>
  <fix>3d</fix>
</trkpt>
<trkpt lat="-27.2744322" lon="151.2900656">
  <ele>346.63</ele>
  <time>2026-09-01T20:03:40Z</time>
  <course>160.8</course>
  <speed>0.1</speed>
  <fix>3d</fix>
</trkpt>
<trkpt lat="-27.2744326" lon="151.2900658">
  <ele>346.55</ele>
  <time>2026-09-01T20:03:40Z</time>
  <course>198.59</course>
  <speed>0.14560219778561037</speed>
  <fix>3d</fix>
</trkpt>
<trkpt lat="-27.2744327" lon="151.2900658">
  <ele>346.5</ele>
  <time>2026-09-01T20:03:40Z</time>
  <course>198.57</course>
  <speed>0.15524174696260024</speed>
  <fix>3d</fix>
</trkpt>
<trkpt lat="-27.2744322" lon="151.2900656">
  <ele>346.63</ele>
  <time>2026-09-01T20:03:40Z</time>
  <course>160.8</course>
  <speed>0.1</speed>
  <fix>3d</fix>
</trkpt>
<trkpt lat="-27.2744327" lon="151.2900658">
  <ele>346.49</ele>
  <time>2026-09-01T20:03:40Z</time>
  <course>198.56</course>
  <speed>0.1649242250247064</speed>
  <fix>3d</fix>
</trkpt>
<trkpt lat="-27.2744328" lon="151.2900658">
  <ele>346.45</ele>
  <time>2026-09-01T20:03:40Z</time>
  <course>198.54</course>
  <speed>0.17464249196572978</speed>
  <fix>3d</fix>
</trkpt>
<trkpt lat="-27.2744324" lon="151.2900656">
  <ele>346.53</ele>
  <time>2026-09-01T20:03:40Z</time>
  <course>168.92</course>
  <speed>0.13</speed>
  <fix>3d</fix>
</trkpt>
<trkpt lat="-27.2744328" lon="151.2900658">
  <ele>346.44</ele>
  <time>2026-09-01T20:03:40Z</time>
  <course>198.53</course>
  <speed>0.1824828759089466</speed>
  <fix>3d</fix>
</trkpt>
<trkpt lat="-27.2744329" lon="151.2900658">
  <ele>346.4</ele>
  <time>2026-09-01T20:03:40Z</time>
  <course>198.5</course>
  <speed>0.19235384061671343</speed>
  <fix>3d</fix>
</trkpt>
<trkpt lat="-27.2744324" lon="151.2900656">
  <ele>346.53</ele>
  <time>2026-09-01T20:03:40Z</time>
  <course>168.92</course>
  <speed>0.13</speed>
  <fix>3d</fix>
</trkpt>
<trkpt lat="-27.274433" lon="151.2900658">
  <ele>346.39</ele>
  <time>2026-09-01T20:03:40Z</time>
  <course>198.49</course>
  <speed>0.19235384061671343</speed>
  <fix>3d</fix>
</trkpt>
<trkpt lat="-27.2744331" lon="151.2900658">
  <ele>346.35</ele>
  <time>2026-09-01T20:03:40Z</time>
  <course>198.46</course>
  <speed>0.20223748416156684</speed>
  <fix>3d</fix>
</trkpt>
<trkpt lat="-27.2744327" lon="151.2900657">
  <ele>346.43</ele>
  <time>2026-09-01T20:03:40Z</time>
  <course>173.91</course>
  <speed>0.17</speed>
  <fix>3d</fix>
</trkpt>
<trkpt lat="-27.2744331" lon="151.2900658">
  <ele>346.34</ele>
  <time>2026-09-01T20:03:40Z</time>
  <course>198.44</course>
  <speed>0.21213203435596426</speed>
  <fix>3d</fix>
</trkpt>
<trkpt lat="-27.2744332" lon="151.2900658">
  <ele>346.3</ele>
  <time>2026-09-01T20:03:40Z</time>
  <course>198.41</course>
  <speed>0.22090722034374521</speed>
  <fix>3d</fix>
</trkpt>
<trkpt lat="-27.2744327" lon="151.2900657">
  <ele>346.43</ele>
  <time>2026-09-01T20:03:40Z</time>
  <course>173.91</course>
  <speed>0.17</speed>
  <fix>3d</fix>
</trkpt>
<trkpt lat="-27.2744333" lon="151.2900658">
  <ele>346.29</ele>
  <time>2026-09-01T20:03:40Z</time>
  <course>198.4</course>
  <speed>0.22090722034374521</speed>
  <fix>3d</fix>
</trkpt>
<trkpt lat="-27.2744334" lon="151.2900659">
  <ele>346.25</ele>
  <time>2026-09-01T20:03:40Z</time>
  <course>198.38</course>
  <speed>0.2308679276123039</speed>
  <fix>3d</fix>
</trkpt>
<trkpt lat="-27.274433" lon="151.2900657">
  <ele>346.33</ele>
  <time>2026-09-01T20:03:40Z</time>
  <course>177.35</course>
  <speed>0.2</speed>
  <fix>3d</fix>
</trkpt>
<trkpt lat="-27.2744335" lon="151.2900658">
  <ele>346.24</ele>
  <time>2026-09-01T20:03:40Z</time>
  <course>198.37</course>
  <speed>0.24083189157584592</speed>
  <fix>3d</fix>
</trkpt>
<trkpt lat="-27.2744336" lon="151.2900658">
  <ele>346.2</ele>
  <time>2026-09-01T20:03:40Z</time>
  <course>198.35</course>
  <speed>0.2501999200639361</speed>
  <fix>3d</fix>
</trkpt>
<trkpt lat="-27.274433" lon="151.2900657">
  <ele>346.33</ele>
  <time>2026-09-01T20:03:40Z</time>
  <course>177.35</course>
  <speed>0.2</speed>
  <fix>3d</fix>
</trkpt>
<trkpt lat="-27.2744337" lon="151.2900658">
  <ele>346.19</ele>
  <time>2026-09-01T20:03:40Z</time>
  <course>198.34</course>
  <speed>0.2501999200639361</speed>
  <fix>3d</fix>
</trkpt>
<trkpt lat="-27.2744338" lon="151.2900658">
  <ele>346.15</ele>
  <time>2026-09-01T20:03:40Z</time>
  <course>198.33</course>
  <speed>0.2601922366251538</speed>
  <fix>3d</fix>
</trkpt>
<trkpt lat="-27.274433" lon="151.2900657">
  <ele>346.33</ele>
  <time>2026-09-01T20:03:40Z</time>
  <course>177.35</course>
  <speed>0.2</speed>
  <fix>3d</fix>
</trkpt>
<trkpt lat="-27.2744339" lon="151.2900658">
  <ele>346.14</ele>
  <time>2026-09-01T20:03:40Z</time>
  <course>198.32</course>
  <speed>0.2601922366251538</speed>
  <fix>3d</fix>
</trkpt>
<trkpt lat="-27.274434" lon="151.2900658">
  <ele>346.11</ele>
  <time>2026-09-01T20:03:40Z</time>
  <course>198.31</course>
  <speed>0.27</speed>
  <fix>3d</fix>
</trkpt>
<trkpt lat="-27.2744334" lon="151.2900657">
  <ele>346.22</ele>
  <time>2026-09-01T20:03:40Z</time>
  <course>179.98</course>
  <speed>0.22</speed>
  <fix>3d</fix>
</trkpt>
<trkpt lat="-27.2744341" lon="151.2900658">
  <ele>346.09</ele>
  <time>2026-09-01T20:03:40Z</time>
  <course>198.31</course>
  <speed>0.27</speed>
  <fix>3d</fix>
</trkpt>
<trkpt lat="-27.2744342" lon="151.2900658">
  <ele>346.06</ele>
  <time>2026-09-01T20:03:40Z</time>
  <course>198.3</course>
  <speed>0.28</speed>
  <fix>3d</fix>
</trkpt>
<trkpt lat="-27.2744334" lon="151.2900657">
  <ele>346.22</ele>
  <time>2026-09-01T20:03:40Z</time>
  <course>179.98</course>
  <speed>0.22</speed>
  <fix>3d</fix>
</trkpt>
<trkpt lat="-27.2744343" lon="151.2900658">
  <ele>346.04</ele>
  <time>2026-09-01T20:03:40Z</time>
  <course>198.29</course>
  <speed>0.28</speed>
  <fix>3d</fix>
</trkpt>
<trkpt lat="-27.2744345" lon="151.2900658">
  <ele>346.01</ele>
  <time>2026-09-01T20:03:40Z</time>
  <course>198.28</course>
  <speed>0.28</speed>
  <fix>3d</fix>
</trkpt>
<trkpt lat="-27.2744338" lon="151.2900657">
  <ele>346.13</ele>
  <time>2026-09-01T20:03:40Z</time>
  <course>182.22</course>
  <speed>0.25</speed>
  <fix>3d</fix>
</trkpt>
<trkpt lat="-27.2744345" lon="151.2900658">
  <ele>346.01</ele>
  <time>2026-09-01T20:03:40Z</time>
  <course>198.28</course>
  <speed>0.28</speed>
  <fix>3d</fix>
</trkpt>
<trkpt lat="-27.2744347" lon="151.2900658">
  <ele>345.96</ele>
  <time>2026-09-01T20:03:40Z</time>
  <course>198.27</course>
  <speed>0.29</speed>
  <fix>3d</fix>
</trkpt>
<trkpt lat="-27.2744338" lon="151.2900657">
  <ele>346.13</ele>
  <time>2026-09-01T20:03:40Z</time>
  <course>182.22</course>
  <speed>0.25</speed>
  <fix>3d</fix>
</trkpt>
<trkpt lat="-27.2744347" lon="151.2900658">
  <ele>345.96</ele>
  <time>2026-09-01T20:03:40Z</time>
  <course>198.27</course>
  <speed>0.29</speed>
  <fix>3d</fix>
</trkpt>
<trkpt lat="-27.2744349" lon="151.2900658">
  <ele>345.91</ele>
  <time>2026-09-01T20:03:40Z</time>
  <course>198.25</course>
  <speed>0.29017236257093815</speed>
  <fix>3d</fix>
</trkpt>
<trkpt lat="-27.2744343" lon="151.2900657">
  <ele>346.03</ele>
  <time>2026-09-01T20:03:40Z</time>
  <course>184.21</course>
  <speed>0.26</speed>
  <fix>3d</fix>
</trkpt>
<trkpt lat="-27.274435" lon="151.2900658">
  <ele>345.89</ele>
  <time>2026-09-01T20:03:40Z</time>
  <course>198.24</course>
  <speed>0.29017236257093815</speed>
  <fix>3d</fix>
</trkpt>
<trkpt lat="-27.2744352" lon="151.2900658">
  <ele>345.86</ele>
  <time>2026-09-01T20:03:40Z</time>
  <course>198.23</course>
  <speed>0.30016662039607267</speed>
  <fix>3d</fix>
</trkpt>
<trkpt lat="-27.2744343" lon="151.2900657">
  <ele>346.03</ele>
  <time>2026-09-01T20:03:40Z</time>
  <course>184.21</course>
  <speed>0.26</speed>
  <fix>3d</fix>
</trkpt>
<trkpt lat="-27.2744353" lon="151.2900658">
  <ele>345.84</ele>
  <time>2026-09-01T20:03:40Z</time>
  <course>198.22</course>
  <speed>0.30016662039607267</speed>
  <fix>3d</fix>
</trkpt>
<trkpt lat="-27.2744354" lon="151.2900658">
  <ele>345.81</ele>
  <time>2026-09-01T20:03:40Z</time>
  <course>198.21</course>
  <speed>0.30066592756745814</speed>
  <fix>3d</fix>
</trkpt>
<trkpt lat="-27.2744348" lon="151.2900657">
  <ele>345.93</ele>
  <time>2026-09-01T20:03:40Z</time>
  <course>186.05</course>
  <speed>0.27</speed>
  <fix>3d</fix>
</trkpt>
<trkpt lat="-27.2744355" lon="151.2900658">
  <ele>345.79</ele>
  <time>2026-09-01T20:03:40Z</time>
  <course>198.21</course>
  <speed>0.30066592756745814</speed>
  <fix>3d</fix>
</trkpt>
<trkpt lat="-27.2744357" lon="151.2900658">
  <ele>345.76</ele>
  <time>2026-09-01T20:03:40Z</time>
  <course>198.2</course>
  <speed>0.30066592756745814</speed>
  <fix>3d</fix>
</trkpt>
<trkpt lat="-27.2744348" lon="151.2900657">
  <ele>345.93</ele>
  <time>2026-09-01T20:03:40Z</time>
  <course>186.05</course>
  <speed>0.27</speed>
  <fix>3d</fix>
</trkpt>
<trkpt lat="-27.2744358" lon="151.2900657">
  <ele>345.74</ele>
  <time>2026-09-01T20:03:40Z</time>
  <course>198.2</course>
  <speed>0.30066592756745814</speed>
  <fix>3d</fix>
</trkpt>
<trkpt lat="-27.2744359" lon="151.2900657">
  <ele>345.7</ele>
  <time>2026-09-01T20:03:40Z</time>
  <course>198.2</course>
  <speed>0.3014962686336267</speed>
  <fix>3d</fix>
</trkpt>
<trkpt lat="-27.2744353" lon="151.2900657">
  <ele>345.83</ele>
  <time>2026-09-01T20:03:40Z</time>
  <course>187.78</course>
  <speed>0.28</speed>
  <fix>3d</fix>
</trkpt>
<trkpt lat="-27.274436" lon="151.2900657">
  <ele>345.69</ele>
  <time>2026-09-01T20:03:40Z</time>
  <course>198.2</course>
  <speed>0.3014962686336267</speed>
  <fix>3d</fix>
</trkpt>
<trkpt lat="-27.2744362" lon="151.2900657">
  <ele>345.65</ele>
  <time>2026-09-01T20:03:40Z</time>
  <course>198.2</course>
  <speed>0.3014962686336267</speed>
  <fix>3d</fix>
</trkpt>
<trkpt lat="-27.2744353" lon="151.2900657">
  <ele>345.83</ele>
  <time>2026-09-01T20:03:40Z</time>
  <course>187.78</course>
  <speed>0.28</speed>
  <fix>3d</fix>
</trkpt>
<trkpt lat="-27.2744363" lon="151.2900657">
  <ele>345.64</ele>
  <time>2026-09-01T20:03:40Z</time>
  <course>198.2</course>
  <speed>0.3014962686336267</speed>
  <fix>3d</fix>
</trkpt>
<trkpt lat="-27.2744364" lon="151.2900656">
  <ele>345.6</ele>
  <time>2026-09-01T20:03:40Z</time>
  <course>198.2</course>
  <speed>0.291547594742265</speed>
  <fix>3d</fix>
</trkpt>
<trkpt lat="-27.2744358" lon="151.2900656">
  <ele>345.72</ele>
  <time>2026-09-01T20:03:40Z</time>
  <course>189.46</course>
  <speed>0.28</speed>
  <fix>3d</fix>
</trkpt>
<trkpt lat="-27.2744365" lon="151.2900656">
  <ele>345.59</ele>
  <time>2026-09-01T20:03:40Z</time>
  <course>198.2</course>
  <speed>0.291547594742265</speed>
  <fix>3d</fix>
</trkpt>
<trkpt lat="-27.2744367" lon="151.2900656">
  <ele>345.55</ele>
  <time>2026-09-01T20:03:40Z</time>
  <course>198.19</course>
  <speed>0.29274562336608895</speed>
  <fix>3d</fix>
</trkpt>
<trkpt lat="-27.2744358" lon="151.2900656">
  <ele>345.72</ele>
  <time>2026-09-01T20:03:40Z</time>
  <course>189.46</course>
  <speed>0.28</speed>
  <fix>3d</fix>
</trkpt>
<trkpt lat="-27.2744367" lon="151.2900656">
  <ele>345.54</ele>
  <time>2026-09-01T20:03:40Z</time>
  <course>198.19</course>
  <speed>0.29274562336608895</speed>
  <fix>3d</fix>
</trkpt>
<trkpt lat="-27.2744369" lon="151.2900655">
  <ele>345.5</ele>
  <time>2026-09-01T20:03:40Z</time>
  <course>198.19</course>
  <speed>0.29274562336608895</speed>
  <fix>3d</fix>
</trkpt>
<trkpt lat="-27.2744363" lon="151.2900655">
  <ele>345.63</ele>
  <time>2026-09-01T20:03:40Z</time>
  <course>191.22</course>
  <speed>0.28</speed>
  <fix>3d</fix>
</trkpt>
<trkpt lat="-27.2744369" lon="151.2900655">
  <ele>345.5</ele>
  <time>2026-09-01T20:03:40Z</time>
  <course>198.19</course>
  <speed>0.29274562336608895</speed>
  <fix>3d</fix>
</trkpt>
<trkpt lat="-27.2744372" lon="151.2900655">
  <ele>345.45</ele>
  <time>2026-09-01T20:03:40Z</time>
  <course>198.18</course>
  <speed>0.282842712474619</speed>
  <fix>3d</fix>
</trkpt>
<trkpt lat="-27.2744363" lon="151.2900655">
  <ele>345.63</ele>
  <time>2026-09-01T20:03:40Z</time>
  <course>191.22</course>
  <speed>0.28</speed>
  <fix>3d</fix>
</trkpt>
<trkpt lat="-27.2744372" lon="151.2900655">
  <ele>345.45</ele>
  <time>2026-09-01T20:03:40Z</time>
  <course>198.18</course>
  <speed>0.282842712474619</speed>
  <fix>3d</fix>
</trkpt>
<trkpt lat="-27.2744374" lon="151.2900654">
  <ele>345.4</ele>
  <time>2026-09-01T20:03:40Z</time>
  <course>198.16</course>
  <speed>0.2745906043549196</speed>
  <fix>3d</fix>
</trkpt>
<trkpt lat="-27.2744368" lon="151.2900654">
  <ele>345.53</ele>
  <time>2026-09-01T20:03:40Z</time>
  <course>193.11</course>
  <speed>0.28</speed>
  <fix>3d</fix>
</trkpt>
<trkpt lat="-27.2744374" lon="151.2900654">
  <ele>345.39</ele>
  <time>2026-09-01T20:03:40Z</time>
  <course>198.16</course>
  <speed>0.2745906043549196</speed>
  <fix>3d</fix>
</trkpt>
<trkpt lat="-27.2744376" lon="151.2900653">
  <ele>345.35</ele>
  <time>2026-09-01T20:03:40Z</time>
  <course>198.15</course>
  <speed>0.2745906043549196</speed>
  <fix>3d</fix>
</trkpt>
<trkpt lat="-27.2744368" lon="151.2900654">
  <ele>345.53</ele>
  <time>2026-09-01T20:03:40Z</time>
  <course>193.11</course>
  <speed>0.28</speed>
  <fix>3d</fix>
</trkpt>
<trkpt lat="-27.2744377" lon="151.2900653">
  <ele>345.34</ele>
  <time>2026-09-01T20:03:40Z</time>
  <course>198.14</course>
  <speed>0.26476404589747454</speed>
  <fix>3d</fix>
</trkpt>
<trkpt lat="-27.2744378" lon="151.2900653">
  <ele>345.31</ele>
  <time>2026-09-01T20:03:40Z</time>
  <course>198.13</course>
  <speed>0.26476404589747454</speed>
  <fix>3d</fix>
</trkpt>
<trkpt lat="-27.2744373" lon="151.2900652">
  <ele>345.43</ele>
  <time>2026-09-01T20:03:40Z</time>
  <course>195.02</course>
  <speed>0.27</speed>
  <fix>3d</fix>
</trkpt>
<trkpt lat="-27.2744379" lon="151.2900652">
  <ele>345.29</ele>
  <time>2026-09-01T20:03:40Z</time>
  <course>198.13</course>
  <speed>0.26476404589747454</speed>
  <fix>3d</fix>
</trkpt>
<trkpt lat="-27.274438" lon="151.2900652">
  <ele>345.26</ele>
  <time>2026-09-01T20:03:40Z</time>
  <course>198.12</course>
  <speed>0.25495097567963926</speed>
  <fix>3d</fix>
</trkpt>
<trkpt lat="-27.2744378" lon="151.2900651">
  <ele>345.33</ele>
  <time>2026-09-01T20:03:40Z</time>
  <course>196.95</course>
  <speed>0.25</speed>
  <fix>3d</fix>
</trkpt>
<trkpt lat="-27.2744381" lon="151.2900652">
  <ele>345.24</ele>
  <time>2026-09-01T20:03:40Z</time>
  <course>198.11</course>
  <speed>0.25495097567963926</speed>
  <fix>3d</fix>
</trkpt>
<trkpt lat="-27.2744382" lon="151.2900651">
  <ele>345.21</ele>
  <time>2026-09-01T20:03:40Z</time>
  <course>198.1</course>
  <speed>0.24515301344262524</speed>
  <fix>3d</fix>
</trkpt>
<trkpt lat="-27.2744378" lon="151.2900651">
  <ele>345.33</ele>
  <time>2026-09-01T20:03:40Z</time>
  <course>196.95</course>
  <speed>0.25</speed>
  <fix>3d</fix>
</trkpt>
<trkpt lat="-27.2744383" lon="151.2900651">
  <ele>345.2</ele>
  <time>2026-09-01T20:03:40Z</time>
  <course>198.1</course>
  <speed>0.24738633753705963</speed>
  <fix>3d</fix>
</trkpt>
<trkpt lat="-27.2744384" lon="151.2900651">
  <ele>345.16</ele>
  <time>2026-09-01T20:03:40Z</time>
  <course>198.08</course>
  <speed>0.23769728648009425</speed>
  <fix>3d</fix>
</trkpt>
<trkpt lat="-27.2744382" lon="151.290065">
  <ele>345.22</ele>
  <time>2026-09-01T20:03:40Z</time>
  <course>199.13</course>
  <speed>0.23</speed>
  <fix>3d</fix>
</trkpt>
<trkpt lat="-27.2744385" lon="151.290065">
  <ele>345.16</ele>
  <time>2026-09-01T20:03:40Z</time>
  <course>198.08</course>
  <speed>0.23769728648009425</speed>
  <fix>3d</fix>
</trkpt>
<trkpt lat="-27.2744386" lon="151.290065">
  <ele>345.11</ele>
  <time>2026-09-01T20:03:40Z</time>
  <course>198.06</course>
  <speed>0.21840329667841554</speed>
  <fix>3d</fix>
</trkpt>
<trkpt lat="-27.2744382" lon="151.290065">
  <ele>345.22</ele>
  <time>2026-09-01T20:03:40Z</time>
  <course>199.13</course>
  <speed>0.23</speed>
  <fix>3d</fix>
</trkpt>
<trkpt lat="-27.2744387" lon="151.290065">
  <ele>345.09</ele>
  <time>2026-09-01T20:03:40Z</time>
  <course>198.06</course>
  <speed>0.21840329667841554</speed>
  <fix>3d</fix>
</trkpt>
<trkpt lat="-27.2744388" lon="151.2900649">
  <ele>345.06</ele>
  <time>2026-09-01T20:03:40Z</time>
  <course>198.05</course>
  <speed>0.208806130178211</speed>
  <fix>3d</fix>
</trkpt>
<trkpt lat="-27.2744382" lon="151.290065">
  <ele>345.22</ele>
  <time>2026-09-01T20:03:40Z</time>
  <course>199.13</course>
  <speed>0.23</speed>
  <fix>3d</fix>
</trkpt>
<trkpt lat="-27.2744388" lon="151.2900649">
  <ele>345.06</ele>
  <time>2026-09-01T20:03:40Z</time>
  <course>198.05</course>
  <speed>0.208806130178211</speed>
  <fix>3d</fix>
</trkpt>
<trkpt lat="-27.274439" lon="151.2900648">
  <ele>345.01</ele>
  <time>2026-09-01T20:03:40Z</time>
  <course>198.03</course>
  <speed>0.19924858845171275</speed>
  <fix>3d</fix>
</trkpt>
<trkpt lat="-27.2744385" lon="151.2900647">
  <ele>345.13</ele>
  <time>2026-09-01T20:03:40Z</time>
  <course>201.69</course>
  <speed>0.21</speed>
  <fix>3d</fix>
</trkpt>
<trkpt lat="-27.274439" lon="151.2900648">
  <ele>345.01</ele>
  <time>2026-09-01T20:03:40Z</time>
  <course>198.03</course>
  <speed>0.19924858845171275</speed>
  <fix>3d</fix>
</trkpt>
<trkpt lat="-27.2744391" lon="151.2900647">
  <ele>344.96</ele>
  <time>2026-09-01T20:03:40Z</time>
  <course>198.03</course>
  <speed>0.18973665961010278</speed>
  <fix>3d</fix>
</trkpt>
<trkpt lat="-27.2744385" lon="151.2900647">
  <ele>345.13</ele>
  <time>2026-09-01T20:03:40Z</time>
  <course>201.69</course>
  <speed>0.21</speed>
  <fix>3d</fix>
</trkpt>
<trkpt lat="-27.2744391" lon="151.2900647">
  <ele>344.96</ele>
  <time>2026-09-01T20:03:40Z</time>
  <course>198.03</course>
  <speed>0.18973665961010278</speed>
  <fix>3d</fix>
</trkpt>
<trkpt lat="-27.2744393" lon="151.2900647">
  <ele>344.91</ele>
  <time>2026-09-01T20:03:40Z</time>
  <course>198.02</course>
  <speed>0.1708800749063506</speed>
  <fix>3d</fix>
</trkpt>
<trkpt lat="-27.2744389" lon="151.2900646">
  <ele>345.03</ele>
  <time>2026-09-01T20:03:40Z</time>
  <course>204.74</course>
  <speed>0.19</speed>
  <fix>3d</fix>
</trkpt>
<trkpt lat="-27.2744393" lon="151.2900647">
  <ele>344.91</ele>
  <time>2026-09-01T20:03:40Z</time>
  <course>198.02</course>
  <speed>0.1708800749063506</speed>
  <fix>3d</fix>
</trkpt>
<trkpt lat="-27.2744394" lon="151.2900646">
  <ele>344.86</ele>
  <time>2026-09-01T20:03:40Z</time>
  <course>198.01</course>
  <speed>0.1615549442140351</speed>
  <fix>3d</fix>
</trkpt>
<trkpt lat="-27.2744389" lon="151.2900646">
  <ele>345.03</ele>
  <time>2026-09-01T20:03:40Z</time>
  <course>204.74</course>
  <speed>0.19</speed>
  <fix>3d</fix>
</trkpt>
<trkpt lat="-27.2744394" lon="151.2900646">
  <ele>344.85</ele>
  <time>2026-09-01T20:03:40Z</time>
  <course>198.01</course>
  <speed>0.1615549442140351</speed>
  <fix>3d</fix>
</trkpt>
<trkpt lat="-27.2744395" lon="151.2900645">
  <ele>344.81</ele>
  <time>2026-09-01T20:03:40Z</time>
  <course>198.0</course>
  <speed>0.14317821063276354</speed>
  <fix>3d</fix>
</trkpt>
<trkpt lat="-27.2744392" lon="151.2900645">
  <ele>344.93</ele>
  <time>2026-09-01T20:03:40Z</time>
  <course>208.36</course>
  <speed>0.16</speed>
  <fix>3d</fix>
</trkpt>
<trkpt lat="-27.2744395" lon="151.2900645">
  <ele>344.8</ele>
  <time>2026-09-01T20:03:40Z</time>
  <course>198.0</course>
  <speed>0.1392838827718412</speed>
  <fix>3d</fix>
</trkpt>
<trkpt lat="-27.2744396" lon="151.2900644">
  <ele>344.76</ele>
  <time>2026-09-01T20:03:40Z</time>
  <course>197.99</course>
  <speed>0.13</speed>
  <fix>3d</fix>
</trkpt>
<trkpt lat="-27.2744392" lon="151.2900645">
  <ele>344.93</ele>
  <time>2026-09-01T20:03:40Z</time>
  <course>208.36</course>
  <speed>0.16</speed>
  <fix>3d</fix>
</trkpt>
<trkpt lat="-27.2744396" lon="151.2900644">
  <ele>344.75</ele>
  <time>2026-09-01T20:03:40Z</time>
  <course>197.98</course>
  <speed>0.13</speed>
  <fix>3d</fix>
</trkpt>
<trkpt lat="-27.2744397" lon="151.2900644">
  <ele>344.71</ele>
  <time>2026-09-01T20:03:40Z</time>
  <course>197.97</course>
  <speed>0.12083045973594572</speed>
  <fix>3d</fix>
</trkpt>
<trkpt lat="-27.2744395" lon="151.2900643">
  <ele>344.83</ele>
  <time>2026-09-01T20:03:40Z</time>
  <course>212.88</course>
  <speed>0.14</speed>
  <fix>3d</fix>
</trkpt>
<trkpt lat="-27.2744397" lon="151.2900643">
  <ele>344.7</ele>
  <time>2026-09-01T20:03:40Z</time>
  <course>197.97</course>
  <speed>0.1118033988749895</speed>
  <fix>3d</fix>
</trkpt>
<trkpt lat="-27.2744398" lon="151.2900643">
  <ele>344.66</ele>
  <time>2026-09-01T20:03:40Z</time>
  <course>197.96</course>
  <speed>0.10295630140987001</speed>
  <fix>3d</fix>
</trkpt>
<trkpt lat="-27.2744395" lon="151.2900643">
  <ele>344.83</ele>
  <time>2026-09-01T20:03:40Z</time>
  <course>212.88</course>
  <speed>0.14</speed>
  <fix>3d</fix>
</trkpt>
<trkpt lat="-27.2744398" lon="151.2900643">
  <ele>344.65</ele>
  <time>2026-09-01T20:03:40Z</time>
  <course>197.96</course>
  <speed>0.10295630140987001</speed>
  <fix>3d</fix>
</trkpt>
<trkpt lat="-27.2744399" lon="151.2900642">
  <ele>344.61</ele>
  <time>2026-09-01T20:03:40Z</time>
  <course>197.96</course>
  <speed>0.09433981132056603</speed>
  <fix>3d</fix>
</trkpt>
<trkpt lat="-27.2744396" lon="151.2900642">
  <ele>344.72</ele>
  <time>2026-09-01T20:03:40Z</time>
  <course>219.1</course>
  <speed>0.11</speed>
  <fix>3d</fix>
</trkpt>
<trkpt lat="-27.2744399" lon="151.2900642">
  <ele>344.6</ele>
  <time>2026-09-01T20:03:40Z</time>
  <course>197.96</course>
  <speed>0.09433981132056603</speed>
  <fix>3d</fix>
</trkpt>
<trkpt lat="-27.2744399" lon="151.2900642">
  <ele>344.56</ele>
  <time>2026-09-01T20:03:40Z</time>
  <course>197.95</course>
  <speed>0.08602325267042626</speed>
  <fix>3d</fix>
</trkpt>
<trkpt lat="-27.2744396" lon="151.2900642">
  <ele>344.72</ele>
  <time>2026-09-01T20:03:40Z</time>
  <course>219.1</course>
  <speed>0.11</speed>
  <fix>3d</fix>
</trkpt>
<trkpt lat="-27.2744399" lon="151.2900641">
  <ele>344.55</ele>
  <time>2026-09-01T20:03:40Z</time>
  <course>197.95</course>
  <speed>0.07211102550927978</speed>
  <fix>3d</fix>
</trkpt>
<trkpt lat="-27.2744399" lon="151.2900641">
  <ele>344.51</ele>
  <time>2026-09-01T20:03:40Z</time>
  <course>197.95</course>
  <speed>0.06403124237432849</speed>
  <fix>3d</fix>
</trkpt>
<trkpt lat="-27.2744397" lon="151.290064">
  <ele>344.62</ele>
  <time>2026-09-01T20:03:40Z</time>
  <course>228.02</course>
  <speed>0.09</speed>
  <fix>3d</fix>
</trkpt>
<trkpt lat="-27.27444" lon="151.2900641">
  <ele>344.5</ele>
  <time>2026-09-01T20:03:40Z</time>
  <course>197.95</course>
  <speed>0.06403124237432849</speed>
  <fix>3d</fix>
</trkpt>
<trkpt lat="-27.27444" lon="151.290064">
  <ele>344.46</ele>
  <time>2026-09-01T20:03:40Z</time>
  <course>197.95</course>
  <speed>0.0565685424949238</speed>
  <fix>3d</fix>
</trkpt>
<trkpt lat="-27.2744397" lon="151.290064">
  <ele>344.62</ele>
  <time>2026-09-01T20:03:40Z</time>
  <course>228.02</course>
  <speed>0.09</speed>
  <fix>3d</fix>
</trkpt>
<trkpt lat="-27.27444" lon="151.290064">
  <ele>344.46</ele>
  <time>2026-09-01T20:03:40Z</time>
  <course>197.95</course>
  <speed>0.0565685424949238</speed>
  <fix>3d</fix>
</trkpt>
<trkpt lat="-27.27444" lon="151.290064">
  <ele>344.41</ele>
  <time>2026-09-01T20:03:40Z</time>
  <course>197.96</course>
  <speed>0.05</speed>
  <fix>3d</fix>
</trkpt>
<trkpt lat="-27.2744398" lon="151.2900639">
  <ele>344.52</ele>
  <time>2026-09-01T20:03:40Z</time>
  <course>240.72</course>
  <speed>0.07</speed>
  <fix>3d</fix>
</trkpt>
<trkpt lat="-27.27444" lon="151.290064">
  <ele>344.41</ele>
  <time>2026-09-01T20:03:40Z</time>
  <course>197.96</course>
  <speed>0.05</speed>
  <fix>3d</fix>
</trkpt>
<trkpt lat="-27.27444" lon="151.2900639">
  <ele>344.36</ele>
  <time>2026-09-01T20:03:40Z</time>
  <course>197.98</course>
  <speed>0.03605551275463989</speed>
  <fix>3d</fix>
</trkpt>
<trkpt lat="-27.2744398" lon="151.2900639">
  <ele>344.52</ele>
  <time>2026-09-01T20:03:40Z</time>
  <course>240.72</course>
  <speed>0.07</speed>
  <fix>3d</fix>
</trkpt>
<trkpt lat="-27.27444" lon="151.2900639">
  <ele>344.34</ele>
  <time>2026-09-01T20:03:40Z</time>
  <course>197.99</course>
  <speed>0.03605551275463989</speed>
  <fix>3d</fix>
</trkpt>
<trkpt lat="-27.27444" lon="151.2900639">
  <ele>344.31</ele>
  <time>2026-09-01T20:03:40Z</time>
  <course>198.01</course>
  <speed>0.0316227766016838</speed>
  <fix>3d</fix>
</trkpt>
<trkpt lat="-27.2744399" lon="151.2900637">
  <ele>344.41</ele>
  <time>2026-09-01T20:03:40Z</time>
  <course>258.26</course>
  <speed>0.05</speed>
  <fix>3d</fix>
</trkpt>
<trkpt lat="-27.27444" lon="151.2900638">
  <ele>344.29</ele>
  <time>2026-09-01T20:03:40Z</time>
  <course>198.02</course>
  <speed>0.03</speed>
  <fix>3d</fix>
</trkpt>
<trkpt lat="-27.27444" lon="151.2900638">
  <ele>344.26</ele>
  <time>2026-09-01T20:03:40Z</time>
  <course>198.04</course>
  <speed>0.02</speed>
  <fix>3d</fix>
</trkpt>
<trkpt lat="-27.2744399" lon="151.2900637">
  <ele>344.41</ele>
  <time>2026-09-01T20:03:40Z</time>
  <course>258.26</course>
  <speed>0.05</speed>
  <fix>3d</fix>
</trkpt>
<trkpt lat="-27.27444" lon="151.2900638">
  <ele>344.24</ele>
  <time>2026-09-01T20:03:40Z</time>
  <course>198.05</course>
  <speed>0.02</speed>
  <fix>3d</fix>
</trkpt>
<trkpt lat="-27.27444" lon="151.2900638">
  <ele>344.21</ele>
  <time>2026-09-01T20:03:40Z</time>
  <course>198.06</course>
  <speed>0.02</speed>
  <fix>3d</fix>
</trkpt>
<trkpt lat="-27.2744399" lon="151.2900636">
  <ele>344.32</ele>
  <time>2026-09-01T20:03:40Z</time>
  <course>281.52</course>
  <speed>0.05</speed>
  <fix>3d</fix>
</trkpt>
<trkpt lat="-27.27444" lon="151.2900638">
  <ele>344.19</ele>
  <time>2026-09-01T20:03:40Z</time>
  <course>198.07</course>
  <speed>0.02</speed>
  <fix>3d</fix>
</trkpt>
<trkpt lat="-27.27444" lon="151.2900637">
  <ele>344.16</ele>
  <time>2026-09-01T20:03:40Z</time>
  <course>198.08</course>
  <speed>0.01414213562373095</speed>
  <fix>3d</fix>
</trkpt>
<trkpt lat="-27.2744399" lon="151.2900636">
  <ele>344.32</ele>
  <time>2026-09-01T20:03:40Z</time>
  <course>281.52</course>
  <speed>0.05</speed>
  <fix>3d</fix>
</trkpt>
<trkpt lat="-27.27444" lon="151.2900637">
  <ele>344.14</ele>
  <time>2026-09-01T20:03:40Z</time>
  <course>198.09</course>
  <speed>0.01414213562373095</speed>
  <fix>3d</fix>
</trkpt>
<trkpt lat="-27.27444" lon="151.2900637">
  <ele>344.11</ele>
  <time>2026-09-01T20:03:40Z</time>
  <course>198.1</course>
  <speed>0.022360679774997897</speed>
  <fix>3d</fix>
</trkpt>
<trkpt lat="-27.2744399" lon="151.2900635">
  <ele>344.22</ele>
  <time>2026-09-01T20:03:40Z</time>
  <course>307.47</course>
  <speed>0.04</speed>
  <fix>3d</fix>
</trkpt>
<trkpt lat="-27.27444" lon="151.2900637">
  <ele>344.09</ele>
  <time>2026-09-01T20:03:40Z</time>
  <course>198.11</course>
  <speed>0.022360679774997897</speed>
  <fix>3d</fix>
</trkpt>
<trkpt lat="-27.27444" lon="151.2900637">
  <ele>344.06</ele>
  <time>2026-09-01T20:03:40Z</time>
  <course>198.12</course>
  <speed>0.03</speed>
  <fix>3d</fix>
</trkpt>
<trkpt lat="-27.2744399" lon="151.2900635">
  <ele>344.22</ele>
  <time>2026-09-01T20:03:40Z</time>
  <course>307.47</course>
  <speed>0.04</speed>
  <fix>3d</fix>
</trkpt>
<trkpt lat="-27.27444" lon="151.2900637">
  <ele>344.04</ele>
  <time>2026-09-01T20:03:40Z</time>
  <course>198.12</course>
  <speed>0.03</speed>
  <fix>3d</fix>
</trkpt>
<trkpt lat="-27.2744399" lon="151.2900636">
  <ele>344.0</ele>
  <time>2026-09-01T20:03:40Z</time>
  <course>198.12</course>
  <speed>0.03</speed>
  <fix>3d</fix>
</trkpt>
<trkpt lat="-27.2744399" lon="151.2900635">
  <ele>344.12</ele>
  <time>2026-09-01T20:03:40Z</time>
  <course>329.2</course>
  <speed>0.05</speed>
  <fix>3d</fix>
</trkpt>
<trkpt lat="-27.2744399" lon="151.2900636">
  <ele>343.95</ele>
  <time>2026-09-01T20:03:40Z</time>
  <course>198.13</course>
  <speed>0.04</speed>
  <fix>3d</fix>
</trkpt>
<trkpt lat="-27.2744399" lon="151.2900635">
  <ele>344.12</ele>
  <time>2026-09-01T20:03:40Z</time>
  <course>329.2</course>
  <speed>0.05</speed>
  <fix>3d</fix>
</trkpt>
<trkpt lat="-27.2744398" lon="151.2900636">
  <ele>343.9</ele>
  <time>2026-09-01T20:03:40Z</time>
  <course>198.13</course>
  <speed>0.04</speed>
  <fix>3d</fix>
</trkpt>
<trkpt lat="-27.2744398" lon="151.2900634">
  <ele>344.02</ele>
  <time>2026-09-01T20:03:40Z</time>
  <course>344.15</course>
  <speed>0.06</speed>
  <fix>3d</fix>
</trkpt>
<trkpt lat="-27.2744398" lon="151.2900636">
  <ele>343.85</ele>
  <time>2026-09-01T20:03:40Z</time>
  <course>198.13</course>
  <speed>0.05099019513592785</speed>
  <fix>3d</fix>
</trkpt>
<trkpt lat="-27.2744398" lon="151.2900634">
  <ele>344.02</ele>
  <time>2026-09-01T20:03:40Z</time>
  <course>344.15</course>
  <speed>0.06</speed>
  <fix>3d</fix>
</trkpt>
<trkpt lat="-27.2744397" lon="151.2900636">
  <ele>343.8</ele>
  <time>2026-09-01T20:03:40Z</time>
  <course>198.12</course>
  <speed>0.05099019513592785</speed>
  <fix>3d</fix>
</trkpt>
<trkpt lat="-27.2744397" lon="151.2900633">
  <ele>343.91</ele>
  <time>2026-09-01T20:03:40Z</time>
  <course>354.13</course>
  <speed>0.07</speed>
  <fix>3d</fix>
</trkpt>
<trkpt lat="-27.2744396" lon="151.2900636">
  <ele>343.75</ele>
  <time>2026-09-01T20:03:40Z</time>
  <course>198.11</course>
  <speed>0.053851648071345036</speed>
  <fix>3d</fix>
</trkpt>
<trkpt lat="-27.2744397" lon="151.2900633">
  <ele>343.91</ele>
  <time>2026-09-01T20:03:40Z</time>
  <course>354.13</course>
  <speed>0.07</speed>
  <fix>3d</fix>
</trkpt>
<trkpt lat="-27.2744396" lon="151.2900636">
  <ele>343.71</ele>
  <time>2026-09-01T20:03:40Z</time>
  <course>198.09</course>
  <speed>0.053851648071345036</speed>
  <fix>3d</fix>
</trkpt>
<trkpt lat="-27.2744395" lon="151.2900633">
  <ele>343.82</ele>
  <time>2026-09-01T20:03:40Z</time>
  <course>1.31</course>
  <speed>0.08</speed>
  <fix>3d</fix>
</trkpt>
<trkpt lat="-27.2744395" lon="151.2900636">
  <ele>343.66</ele>
  <time>2026-09-01T20:03:40Z</time>
  <course>198.07</course>
  <speed>0.0632455532033676</speed>
  <fix>3d</fix>
</trkpt>
<trkpt lat="-27.2744395" lon="151.2900633">
  <ele>343.82</ele>
  <time>2026-09-01T20:03:40Z</time>
  <course>1.31</course>
  <speed>0.08</speed>
  <fix>3d</fix>
</trkpt>
<trkpt lat="-27.2744394" lon="151.2900636">
  <ele>343.61</ele>
  <time>2026-09-01T20:03:40Z</time>
  <course>198.06</course>
  <speed>0.0670820393249937</speed>
  <fix>3d</fix>
</trkpt>
<trkpt lat="-27.2744394" lon="151.2900633">
  <ele>343.72</ele>
  <time>2026-09-01T20:03:40Z</time>
  <course>6.46</course>
  <speed>0.08</speed>
  <fix>3d</fix>
</trkpt>
<trkpt lat="-27.2744394" lon="151.2900636">
  <ele>343.56</ele>
  <time>2026-09-01T20:03:40Z</time>
  <course>198.05</course>
  <speed>0.0670820393249937</speed>
  <fix>3d</fix>
</trkpt>
<trkpt lat="-27.2744394" lon="151.2900633">
  <ele>343.72</ele>
  <time>2026-09-01T20:03:40Z</time>
  <course>6.46</course>
  <speed>0.08</speed>
  <fix>3d</fix>
</trkpt>
<trkpt lat="-27.2744393" lon="151.2900636">
  <ele>343.51</ele>
  <time>2026-09-01T20:03:40Z</time>
  <course>198.05</course>
  <speed>0.0670820393249937</speed>
  <fix>3d</fix>
</trkpt>
<trkpt lat="-27.2744392" lon="151.2900633">
  <ele>343.62</ele>
  <time>2026-09-01T20:03:40Z</time>
  <course>10.04</course>
  <speed>0.09</speed>
  <fix>3d</fix>
</trkpt>
<trkpt lat="-27.2744392" lon="151.2900636">
  <ele>343.45</ele>
  <time>2026-09-01T20:03:40Z</time>
  <course>198.05</course>
  <speed>0.0670820393249937</speed>
  <fix>3d</fix>
</trkpt>
<trkpt lat="-27.2744392" lon="151.2900633">
  <ele>343.62</ele>
  <time>2026-09-01T20:03:40Z</time>
  <course>10.04</course>
  <speed>0.09</speed>
  <fix>3d</fix>
</trkpt>
<trkpt lat="-27.2744391" lon="151.2900636">
  <ele>343.4</ele>
  <time>2026-09-01T20:03:40Z</time>
  <course>198.05</course>
  <speed>0.07211102550927978</speed>
  <fix>3d</fix>
</trkpt>
<trkpt lat="-27.2744391" lon="151.2900633">
  <ele>343.52</ele>
  <time>2026-09-01T20:03:40Z</time>
  <course>13.13</course>
  <speed>0.09</speed>
  <fix>3d</fix>
</trkpt>
<trkpt lat="-27.2744391" lon="151.2900636">
  <ele>343.35</ele>
  <time>2026-09-01T20:03:40Z</time>
  <course>198.04</course>
  <speed>0.07211102550927978</speed>
  <fix>3d</fix>
</trkpt>
<trkpt lat="-27.2744391" lon="151.2900633">
  <ele>343.52</ele>
  <time>2026-09-01T20:03:40Z</time>
  <course>13.13</course>
  <speed>0.09</speed>
  <fix>3d</fix>
</trkpt>
<trkpt lat="-27.274439" lon="151.2900636">
  <ele>343.3</ele>
  <time>2026-09-01T20:03:40Z</time>
  <course>198.02</course>
  <speed>0.07211102550927978</speed>
  <fix>3d</fix>
</trkpt>
<trkpt lat="-27.2744389" lon="151.2900634">
  <ele>343.41</ele>
  <time>2026-09-01T20:03:40Z</time>
  <course>16.25</course>
  <speed>0.1</speed>
  <fix>3d</fix>
</trkpt>
<trkpt lat="-27.2744389" lon="151.2900636">
  <ele>343.25</ele>
  <time>2026-09-01T20:03:40Z</time>
  <course>197.98</course>
  <speed>0.07211102550927978</speed>
  <fix>3d</fix>
</trkpt>
<trkpt lat="-27.2744389" lon="151.2900634">
  <ele>343.41</ele>
  <time>2026-09-01T20:03:40Z</time>
  <course>16.25</course>
  <speed>0.1</speed>
  <fix>3d</fix>
</trkpt>
<trkpt lat="-27.2744388" lon="151.2900637">
  <ele>343.2</ele>
  <time>2026-09-01T20:03:40Z</time>
  <course>197.92</course>
  <speed>0.07211102550927978</speed>
  <fix>3d</fix>
</trkpt>
<trkpt lat="-27.2744387" lon="151.2900635">
  <ele>343.32</ele>
  <time>2026-09-01T20:03:40Z</time>
  <course>18.55</course>
  <speed>0.1</speed>
  <fix>3d</fix>
</trkpt>
<trkpt lat="-27.2744387" lon="151.2900637">
  <ele>343.15</ele>
  <time>2026-09-01T20:03:40Z</time>
  <course>197.83</course>
  <speed>0.07211102550927978</speed>
  <fix>3d</fix>
</trkpt>
<trkpt lat="-27.2744387" lon="151.2900635">
  <ele>343.32</ele>
  <time>2026-09-01T20:03:40Z</time>
  <course>18.55</course>
  <speed>0.1</speed>
  <fix>3d</fix>
</trkpt>
<trkpt lat="-27.2744387" lon="151.2900637">
  <ele>343.1</ele>
  <time>2026-09-01T20:03:40Z</time>
  <course>197.74</course>
  <speed>0.06403124237432849</speed>
  <fix>3d</fix>
</trkpt>
<trkpt lat="-27.2744385" lon="151.2900636">
  <ele>343.22</ele>
  <time>2026-09-01T20:03:40Z</time>
  <course>19.21</course>
  <speed>0.1</speed>
  <fix>3d</fix>
</trkpt>
<trkpt lat="-27.2744386" lon="151.2900638">
  <ele>343.06</ele>
  <time>2026-09-01T20:03:40Z</time>
  <course>197.7</course>
  <speed>0.02</speed>
  <fix>3d</fix>
</trkpt>
<trkpt lat="-27.2744385" lon="151.2900636">
  <ele>343.22</ele>
  <time>2026-09-01T20:03:40Z</time>
  <course>19.21</course>
  <speed>0.1</speed>
  <fix>3d</fix>
</trkpt>
<trkpt lat="-27.2744386" lon="151.2900637">
  <ele>343.06</ele>
  <time>2026-09-01T20:03:40Z</time>
  <course>197.7</course>
  <speed>0.05</speed>
  <fix>3d</fix>
</trkpt>
<trkpt lat="-27.2744384" lon="151.2900636">
  <ele>343.12</ele>
  <time>2026-09-01T20:03:40Z</time>
  <course>19.07</course>
  <speed>0.07</speed>
  <fix>3d</fix>
</trkpt>
<trkpt lat="-27.2744386" lon="151.2900637">
  <ele>343.08</ele>
  <time>2026-09-01T20:03:40Z</time>
  <course>197.7</course>
  <speed>0.06</speed>
  <fix>3d</fix>
</trkpt>
<trkpt lat="-27.2744384" lon="151.2900636">
  <ele>343.12</ele>
  <time>2026-09-01T20:03:40Z</time>
  <course>19.07</course>
  <speed>0.07</speed>
  <fix>3d</fix>
</trkpt>
<trkpt lat="-27.2744386" lon="151.2900637">
  <ele>343.09</ele>
  <time>2026-09-01T20:03:40Z</time>
  <course>197.7</course>
  <speed>0.05</speed>
  <fix>3d</fix>
</trkpt>
<trkpt lat="-27.2744383" lon="151.2900637">
  <ele>343.08</ele>
  <time>2026-09-01T20:03:40Z</time>
  <course>19.0</course>
  <speed>0.0</speed>
  <fix>3d</fix>
</trkpt>
<trkpt lat="-27.2744386" lon="151.2900637">
  <ele>343.09</ele>
  <time>2026-09-01T20:03:40Z</time>
  <course>197.7</course>
  <speed>0.0316227766016838</speed>
  <fix>3d</fix>
</trkpt>
<trkpt lat="-27.2744383" lon="151.2900637">
  <ele>343.08</ele>
  <time>2026-09-01T20:03:40Z</time>
  <course>19.0</course>
  <speed>0.0</speed>
  <fix>3d</fix>
</trkpt>
<trkpt lat="-27.2744386" lon="151.2900637">
  <ele>343.09</ele>
  <time>2026-09-01T20:03:40Z</time>
  <course>197.7</course>
  <speed>0.0316227766016838</speed>
  <fix>3d</fix>
</trkpt>
<trkpt lat="-27.2744383" lon="151.2900637">
  <ele>343.09</ele>
  <time>2026-09-01T20:03:40Z</time>
  <course>198.99</course>
  <speed>0.01</speed>
  <fix>3d</fix>
</trkpt>
<trkpt lat="-27.2744386" lon="151.2900637">
  <ele>343.08</ele>
  <time>2026-09-01T20:03:40Z</time>
  <course>197.7</course>
  <speed>0.0316227766016838</speed>
  <fix>3d</fix>
</trkpt>
<trkpt lat="-27.2744383" lon="151.2900637">
  <ele>343.09</ele>
  <time>2026-09-01T20:03:40Z</time>
  <course>198.99</course>
  <speed>0.01</speed>
  <fix>3d</fix>
</trkpt>
<trkpt lat="-27.2744386" lon="151.2900637">
  <ele>343.08</ele>
  <time>2026-09-01T20:03:40Z</time>
  <course>197.69</course>
  <speed>0.0316227766016838</speed>
  <fix>3d</fix>
</trkpt>
<trkpt lat="-27.2744383" lon="151.2900637">
  <ele>343.1</ele>
  <time>2026-09-01T20:03:40Z</time>
  <course>18.99</course>
  <speed>0.0</speed>
  <fix>3d</fix>
</trkpt>
<trkpt lat="-27.2744386" lon="151.2900638">
  <ele>343.08</ele>
  <time>2026-09-01T20:03:40Z</time>
  <course>197.69</course>
  <speed>0.0316227766016838</speed>
  <fix>3d</fix>
</trkpt>
<trkpt lat="-27.2744383" lon="151.2900637">
  <ele>343.1</ele>
  <time>2026-09-01T20:03:40Z</time>
  <course>18.99</course>
  <speed>0.0</speed>
  <fix>3d</fix>
</trkpt>
<trkpt lat="-27.2744386" lon="151.2900638">
  <ele>343.08</ele>
  <time>2026-09-01T20:03:40Z</time>
  <course>197.69</course>
  <speed>0.0316227766016838</speed>
  <fix>3d</fix>
</trkpt>
<trkpt lat="-27.2744383" lon="151.2900637">
  <ele>343.09</ele>
  <time>2026-09-01T20:03:40Z</time>
  <course>19.0</course>
  <speed>0.0</speed>
  <fix>3d</fix>
</trkpt>
<trkpt lat="-27.2744386" lon="151.2900638">
  <ele>343.08</ele>
  <time>2026-09-01T20:03:40Z</time>
  <course>197.69</course>
  <speed>0.0316227766016838</speed>
  <fix>3d</fix>
</trkpt>
<trkpt lat="-27.2744383" lon="151.2900637">
  <ele>343.09</ele>
  <time>2026-09-01T20:03:40Z</time>
  <course>19.0</course>
  <speed>0.0</speed>
  <fix>3d</fix>
</trkpt>
<trkpt lat="-27.2744386" lon="151.2900638">
  <ele>343.08</ele>
  <time>2026-09-01T20:03:40Z</time>
  <course>197.69</course>
  <speed>0.0316227766016838</speed>
  <fix>3d</fix>
</trkpt>
<trkpt lat="-27.2744383" lon="151.2900637">
  <ele>343.09</ele>
  <time>2026-09-01T20:03:40Z</time>
  <course>198.97</course>
  <speed>0.0</speed>
  <fix>3d</fix>
</trkpt>
<trkpt lat="-27.2744386" lon="151.2900638">
  <ele>343.08</ele>
  <time>2026-09-01T20:03:40Z</time>
  <course>197.69</course>
  <speed>0.0316227766016838</speed>
  <fix>3d</fix>
</trkpt>
<trkpt lat="-27.2744383" lon="151.2900637">
  <ele>343.09</ele>
  <time>2026-09-01T20:03:40Z</time>
  <course>198.97</course>
  <speed>0.0</speed>
  <fix>3d</fix>
</trkpt>
<trkpt lat="-27.2744385" lon="151.2900638">
  <ele>343.08</ele>
  <time>2026-09-01T20:03:40Z</time>
  <course>197.69</course>
  <speed>0.0316227766016838</speed>
  <fix>3d</fix>
</trkpt>
<trkpt lat="-27.2744383" lon="151.2900637">
  <ele>343.09</ele>
  <time>2026-09-01T20:03:40Z</time>
  <course>198.96</course>
  <speed>0.0</speed>
  <fix>3d</fix>
</trkpt>
<trkpt lat="-27.2744385" lon="151.2900638">
  <ele>343.08</ele>
  <time>2026-09-01T20:03:40Z</time>
  <course>197.69</course>
  <speed>0.0316227766016838</speed>
  <fix>3d</fix>
</trkpt>
<trkpt lat="-27.2744383" lon="151.2900637">
  <ele>343.09</ele>
  <time>2026-09-01T20:03:40Z</time>
  <course>198.96</course>
  <speed>0.0</speed>
  <fix>3d</fix>
</trkpt>
<trkpt lat="-27.2744385" lon="151.2900638">
  <ele>343.08</ele>
  <time>2026-09-01T20:03:40Z</time>
  <course>197.69</course>
  <speed>0.0316227766016838</speed>
  <fix>3d</fix>
</trkpt>
<trkpt lat="-27.2744383" lon="151.2900637">
  <ele>343.09</ele>
  <time>2026-09-01T20:03:40Z</time>
  <course>19.08</course>
  <speed>0.0</speed>
  <fix>3d</fix>
</trkpt>
<trkpt lat="-27.2744385" lon="151.2900638">
  <ele>343.08</ele>
  <time>2026-09-01T20:03:40Z</time>
  <course>197.69</course>
  <speed>0.0316227766016838</speed>
  <fix>3d</fix>
</trkpt>
<trkpt lat="-27.2744383" lon="151.2900637">
  <ele>343.09</ele>
  <time>2026-09-01T20:03:40Z</time>
  <course>19.08</course>
  <speed>0.0</speed>
  <fix>3d</fix>
</trkpt>
<trkpt lat="-27.2744385" lon="151.2900638">
  <ele>343.08</ele>
  <time>2026-09-01T20:03:40Z</time>
  <course>197.68</course>
  <speed>0.0316227766016838</speed>
  <fix>3d</fix>
</trkpt>
<trkpt lat="-27.2744383" lon="151.2900637">
  <ele>343.09</ele>
  <time>2026-09-01T20:03:40Z</time>
  <course>19.15</course>
  <speed>0.0</speed>
  <fix>3d</fix>
</trkpt>
<trkpt lat="-27.2744385" lon="151.2900638">
  <ele>343.08</ele>
  <time>2026-09-01T20:03:40Z</time>
  <course>197.68</course>
  <speed>0.0316227766016838</speed>
  <fix>3d</fix>
</trkpt>
<trkpt lat="-27.2744383" lon="151.2900637">
  <ele>343.09</ele>
  <time>2026-09-01T20:03:40Z</time>
  <course>19.15</course>
  <speed>0.0</speed>
  <fix>3d</fix>
</trkpt>
<trkpt lat="-27.2744385" lon="151.2900638">
  <ele>343.08</ele>
  <time>2026-09-01T20:03:40Z</time>
  <course>197.68</course>
  <speed>0.022360679774997897</speed>
  <fix>3d</fix>
</trkpt>
<trkpt lat="-27.2744383" lon="151.2900637">
  <ele>343.09</ele>
  <time>2026-09-01T20:03:40Z</time>
  <course>198.66</course>
  <speed>0.0</speed>
  <fix>3d</fix>
</trkpt>
<trkpt lat="-27.2744385" lon="151.2900638">
  <ele>343.08</ele>
  <time>2026-09-01T20:03:40Z</time>
  <course>197.68</course>
  <speed>0.022360679774997897</speed>
  <fix>3d</fix>
</trkpt>
<trkpt lat="-27.2744383" lon="151.2900637">
  <ele>343.09</ele>
  <time>2026-09-01T20:03:40Z</time>
  <course>198.66</course>
  <speed>0.0</speed>
  <fix>3d</fix>
</trkpt>
<trkpt lat="-27.2744385" lon="151.2900638">
  <ele>343.08</ele>
  <time>2026-09-01T20:03:40Z</time>
  <course>197.68</course>
  <speed>0.022360679774997897</speed>
  <fix>3d</fix>
</trkpt>
<trkpt lat="-27.2744383" lon="151.2900637">
  <ele>343.09</ele>
  <time>2026-09-01T20:03:40Z</time>
  <course>196.91</course>
  <speed>0.0</speed>
  <fix>3d</fix>
</trkpt>
<trkpt lat="-27.2744385" lon="151.2900638">
  <ele>343.08</ele>
  <time>2026-09-01T20:03:40Z</time>
  <course>197.68</course>
  <speed>0.022360679774997897</speed>
  <fix>3d</fix>
</trkpt>
<trkpt lat="-27.2744383" lon="151.2900637">
  <ele>343.09</ele>
  <time>2026-09-01T20:03:40Z</time>
  <course>196.91</course>
  <speed>0.0</speed>
  <fix>3d</fix>
</trkpt>
<trkpt lat="-27.2744385" lon="151.2900638">
  <ele>343.08</ele>
  <time>2026-09-01T20:03:41Z</time>
  <course>197.68</course>
  <speed>0.022360679774997897</speed>
  <fix>3d</fix>
</trkpt>
<trkpt lat="-27.2744383" lon="151.2900637">
  <ele>343.09</ele>
  <time>2026-09-01T20:03:41Z</time>
  <course>20.25</course>
  <speed>0.0</speed>
  <fix>3d</fix>
</trkpt>
<trkpt lat="-27.2744385" lon="151.2900638">
  <ele>343.08</ele>
  <time>2026-09-01T20:03:41Z</time>
  <course>197.68</course>
  <speed>0.022360679774997897</speed>
  <fix>3d</fix>
</trkpt>
<trkpt lat="-27.2744383" lon="151.2900637">
  <ele>343.09</ele>
  <time>2026-09-01T20:03:41Z</time>
  <course>20.25</course>
  <speed>0.0</speed>
  <fix>3d</fix>
</trkpt>
<trkpt lat="-27.2744385" lon="151.2900638">
  <ele>343.08</ele>
  <time>2026-09-01T20:03:41Z</time>
  <course>197.68</course>
  <speed>0.022360679774997897</speed>
  <fix>3d</fix>
</trkpt>
<trkpt lat="-27.2744383" lon="151.2900637">
  <ele>343.09</ele>
  <time>2026-09-01T20:03:41Z</time>
  <course>75.13</course>
  <speed>0.0</speed>
  <fix>3d</fix>
</trkpt>
<trkpt lat="-27.2744385" lon="151.2900638">
  <ele>343.08</ele>
  <time>2026-09-01T20:03:41Z</time>
  <course>197.68</course>
  <speed>0.022360679774997897</speed>
  <fix>3d</fix>
</trkpt>
<trkpt lat="-27.2744383" lon="151.2900637">
  <ele>343.09</ele>
  <time>2026-09-01T20:03:41Z</time>
  <course>75.13</course>
  <speed>0.0</speed>
  <fix>3d</fix>
</trkpt>
<trkpt lat="-27.2744385" lon="151.2900638">
  <ele>343.08</ele>
  <time>2026-09-01T20:03:41Z</time>
  <course>197.68</course>
  <speed>0.022360679774997897</speed>
  <fix>3d</fix>
</trkpt>
<trkpt lat="-27.2744383" lon="151.2900637">
  <ele>343.09</ele>
  <time>2026-09-01T20:03:41Z</time>
  <course>207.29</course>
  <speed>0.0</speed>
  <fix>3d</fix>
</trkpt>
<trkpt lat="-27.2744385" lon="151.2900638">
  <ele>343.08</ele>
  <time>2026-09-01T20:03:41Z</time>
  <course>197.68</course>
  <speed>0.022360679774997897</speed>
  <fix>3d</fix>
</trkpt>
<trkpt lat="-27.2744383" lon="151.2900637">
  <ele>343.09</ele>
  <time>2026-09-01T20:03:41Z</time>
  <course>207.29</course>
  <speed>0.0</speed>
  <fix>3d</fix>
</trkpt>
<trkpt lat="-27.2744385" lon="151.2900638">
  <ele>343.08</ele>
  <time>2026-09-01T20:03:41Z</time>
  <course>197.68</course>
  <speed>0.022360679774997897</speed>
  <fix>3d</fix>
</trkpt>
<trkpt lat="-27.2744383" lon="151.2900637">
  <ele>343.09</ele>
  <time>2026-09-01T20:03:41Z</time>
  <course>16.14</course>
  <speed>0.0</speed>
  <fix>3d</fix>
</trkpt>
<trkpt lat="-27.2744385" lon="151.2900638">
  <ele>343.08</ele>
  <time>2026-09-01T20:03:41Z</time>
  <course>197.67</course>
  <speed>0.022360679774997897</speed>
  <fix>3d</fix>
</trkpt>
<trkpt lat="-27.2744383" lon="151.2900637">
  <ele>343.09</ele>
  <time>2026-09-01T20:03:41Z</time>
  <course>16.14</course>
  <speed>0.0</speed>
  <fix>3d</fix>
</trkpt>
<trkpt lat="-27.2744385" lon="151.2900638">
  <ele>343.08</ele>
  <time>2026-09-01T20:03:41Z</time>
  <course>197.67</course>
  <speed>0.022360679774997897</speed>
  <fix>3d</fix>
</trkpt>
<trkpt lat="-27.2744383" lon="151.2900637">
  <ele>343.09</ele>
  <time>2026-09-01T20:03:41Z</time>
  <course>121.94</course>
  <speed>0.0</speed>
  <fix>3d</fix>
</trkpt>
<trkpt lat="-27.2744385" lon="151.2900638">
  <ele>343.08</ele>
  <time>2026-09-01T20:03:41Z</time>
  <course>197.67</course>
  <speed>0.022360679774997897</speed>
  <fix>3d</fix>
</trkpt>
<trkpt lat="-27.2744383" lon="151.2900637">
  <ele>343.09</ele>
  <time>2026-09-01T20:03:41Z</time>
  <course>121.94</course>
  <speed>0.0</speed>
  <fix>3d</fix>
</trkpt>
<trkpt lat="-27.2744385" lon="151.2900638">
  <ele>343.08</ele>
  <time>2026-09-01T20:03:41Z</time>
  <course>197.67</course>
  <speed>0.022360679774997897</speed>
  <fix>3d</fix>
</trkpt>
<trkpt lat="-27.2744383" lon="151.2900637">
  <ele>343.09</ele>
  <time>2026-09-01T20:03:41Z</time>
  <course>164.18</course>
  <speed>0.0</speed>
  <fix>3d</fix>
</trkpt>
<trkpt lat="-27.2744385" lon="151.2900638">
  <ele>343.08</ele>
  <time>2026-09-01T20:03:41Z</time>
  <course>197.67</course>
  <speed>0.022360679774997897</speed>
  <fix>3d</fix>
</trkpt>
<trkpt lat="-27.2744383" lon="151.2900637">
  <ele>343.09</ele>
  <time>2026-09-01T20:03:41Z</time>
  <course>164.18</course>
  <speed>0.0</speed>
  <fix>3d</fix>
</trkpt>
<trkpt lat="-27.2744385" lon="151.2900638">
  <ele>343.08</ele>
  <time>2026-09-01T20:03:41Z</time>
  <course>197.67</course>
  <speed>0.022360679774997897</speed>
  <fix>3d</fix>
</trkpt>
<trkpt lat="-27.2744383" lon="151.2900637">
  <ele>343.09</ele>
  <time>2026-09-01T20:03:41Z</time>
  <course>155.78</course>
  <speed>0.0</speed>
  <fix>3d</fix>
</trkpt>
<trkpt lat="-27.2744385" lon="151.2900638">
  <ele>343.08</ele>
  <time>2026-09-01T20:03:41Z</time>
  <course>197.67</course>
  <speed>0.022360679774997897</speed>
  <fix>3d</fix>
</trkpt>
<trkpt lat="-27.2744383" lon="151.2900637">
  <ele>343.09</ele>
  <time>2026-09-01T20:03:41Z</time>
  <course>155.78</course>
  <speed>0.0</speed>
  <fix>3d</fix>
</trkpt>
<trkpt lat="-27.2744385" lon="151.2900638">
  <ele>343.08</ele>
  <time>2026-09-01T20:03:41Z</time>
  <course>197.67</course>
  <speed>0.022360679774997897</speed>
  <fix>3d</fix>
</trkpt>
<trkpt lat="-27.2744383" lon="151.2900637">
  <ele>343.09</ele>
  <time>2026-09-01T20:03:41Z</time>
  <course>151.41</course>
  <speed>0.0</speed>
  <fix>3d</fix>
</trkpt>
<trkpt lat="-27.2744385" lon="151.2900638">
  <ele>343.08</ele>
  <time>2026-09-01T20:03:41Z</time>
  <course>197.67</course>
  <speed>0.022360679774997897</speed>
  <fix>3d</fix>
</trkpt>
<trkpt lat="-27.2744383" lon="151.2900637">
  <ele>343.09</ele>
  <time>2026-09-01T20:03:41Z</time>
  <course>151.41</course>
  <speed>0.0</speed>
  <fix>3d</fix>
</trkpt>
<trkpt lat="-27.2744385" lon="151.2900638">
  <ele>343.08</ele>
  <time>2026-09-01T20:03:41Z</time>
  <course>197.67</course>
  <speed>0.022360679774997897</speed>
  <fix>3d</fix>
</trkpt>
<trkpt lat="-27.2744383" lon="151.2900637">
  <ele>343.09</ele>
  <time>2026-09-01T20:03:41Z</time>
  <course>152.2</course>
  <speed>0.0</speed>
  <fix>3d</fix>
</trkpt>
<trkpt lat="-27.2744385" lon="151.2900638">
  <ele>343.08</ele>
  <time>2026-09-01T20:03:41Z</time>
  <course>197.67</course>
  <speed>0.022360679774997897</speed>
  <fix>3d</fix>
</trkpt>
<trkpt lat="-27.2744383" lon="151.2900637">
  <ele>343.09</ele>
  <time>2026-09-01T20:03:41Z</time>
  <course>152.2</course>
  <speed>0.0</speed>
  <fix>3d</fix>
</trkpt>
<trkpt lat="-27.2744385" lon="151.2900638">
  <ele>343.08</ele>
  <time>2026-09-01T20:03:41Z</time>
  <course>197.67</course>
  <speed>0.022360679774997897</speed>
  <fix>3d</fix>
</trkpt>
<trkpt lat="-27.2744383" lon="151.2900637">
  <ele>343.09</ele>
  <time>2026-09-01T20:03:41Z</time>
  <course>153.2</course>
  <speed>0.0</speed>
  <fix>3d</fix>
</trkpt>
<trkpt lat="-27.2744385" lon="151.2900638">
  <ele>343.08</ele>
  <time>2026-09-01T20:03:41Z</time>
  <course>197.67</course>
  <speed>0.022360679774997897</speed>
  <fix>3d</fix>
</trkpt>
<trkpt lat="-27.2744383" lon="151.2900637">
  <ele>343.09</ele>
  <time>2026-09-01T20:03:41Z</time>
  <course>153.2</course>
  <speed>0.0</speed>
  <fix>3d</fix>
</trkpt>
<trkpt lat="-27.2744385" lon="151.2900638">
  <ele>343.09</ele>
  <time>2026-09-01T20:03:41Z</time>
  <course>197.66</course>
  <speed>0.022360679774997897</speed>
  <fix>3d</fix>
</trkpt>
<trkpt lat="-27.2744383" lon="151.2900637">
  <ele>343.09</ele>
  <time>2026-09-01T20:03:41Z</time>
  <course>153.11</course>
  <speed>0.0</speed>
  <fix>3d</fix>
</trkpt>
<trkpt lat="-27.2744385" lon="151.2900638">
  <ele>343.09</ele>
  <time>2026-09-01T20:03:41Z</time>
  <course>197.66</course>
  <speed>0.022360679774997897</speed>
  <fix>3d</fix>
</trkpt>
<trkpt lat="-27.2744383" lon="151.2900637">
  <ele>343.09</ele>
  <time>2026-09-01T20:03:41Z</time>
  <course>153.11</course>
  <speed>0.0</speed>
  <fix>3d</fix>
</trkpt>
<trkpt lat="-27.2744385" lon="151.2900638">
  <ele>343.09</ele>
  <time>2026-09-01T20:03:41Z</time>
  <course>197.66</course>
  <speed>0.022360679774997897</speed>
  <fix>3d</fix>
</trkpt>
<trkpt lat="-27.2744383" lon="151.2900637">
  <ele>343.09</ele>
  <time>2026-09-01T20:03:41Z</time>
  <course>152.8</course>
  <speed>0.0</speed>
  <fix>3d</fix>
</trkpt>
<trkpt lat="-27.2744385" lon="151.2900638">
  <ele>343.09</ele>
  <time>2026-09-01T20:03:41Z</time>
  <course>197.66</course>
  <speed>0.022360679774997897</speed>
  <fix>3d</fix>
</trkpt>
<trkpt lat="-27.2744383" lon="151.2900637">
  <ele>343.09</ele>
  <time>2026-09-01T20:03:41Z</time>
  <course>152.8</course>
  <speed>0.0</speed>
  <fix>3d</fix>
</trkpt>
<trkpt lat="-27.2744385" lon="151.2900638">
  <ele>343.09</ele>
  <time>2026-09-01T20:03:41Z</time>
  <course>197.66</course>
  <speed>0.022360679774997897</speed>
  <fix>3d</fix>
</trkpt>
<trkpt lat="-27.2744383" lon="151.2900637">
  <ele>343.09</ele>
  <time>2026-09-01T20:03:41Z</time>
  <course>152.62</course>
  <speed>0.0</speed>
  <fix>3d</fix>
</trkpt>
<trkpt lat="-27.2744385" lon="151.2900638">
  <ele>343.09</ele>
  <time>2026-09-01T20:03:41Z</time>
  <course>197.66</course>
  <speed>0.022360679774997897</speed>
  <fix>3d</fix>
</trkpt>
<trkpt lat="-27.2744383" lon="151.2900637">
  <ele>343.09</ele>
  <time>2026-09-01T20:03:41Z</time>
  <course>152.62</course>
  <speed>0.0</speed>
  <fix>3d</fix>
</trkpt>
<trkpt lat="-27.2744385" lon="151.2900638">
  <ele>343.09</ele>
  <time>2026-09-01T20:03:41Z</time>
  <course>197.66</course>
  <speed>0.022360679774997897</speed>
  <fix>3d</fix>
</trkpt>
<trkpt lat="-27.2744383" lon="151.2900637">
  <ele>343.09</ele>
  <time>2026-09-01T20:03:41Z</time>
  <course>173.57</course>
  <speed>0.0</speed>
  <fix>3d</fix>
</trkpt>
<trkpt lat="-27.2744385" lon="151.2900638">
  <ele>343.09</ele>
  <time>2026-09-01T20:03:41Z</time>
  <course>197.66</course>
  <speed>0.022360679774997897</speed>
  <fix>3d</fix>
</trkpt>
<trkpt lat="-27.2744383" lon="151.2900637">
  <ele>343.09</ele>
  <time>2026-09-01T20:03:41Z</time>
  <course>173.57</course>
  <speed>0.0</speed>
  <fix>3d</fix>
</trkpt>
<trkpt lat="-27.2744385" lon="151.2900638">
  <ele>343.09</ele>
  <time>2026-09-01T20:03:41Z</time>
  <course>197.66</course>
  <speed>0.022360679774997897</speed>
  <fix>3d</fix>
</trkpt>
<trkpt lat="-27.2744383" lon="151.2900637">
  <ele>343.09</ele>
  <time>2026-09-01T20:03:41Z</time>
  <course>176.63</course>
  <speed>0.0</speed>
  <fix>3d</fix>
</trkpt>
<trkpt lat="-27.2744385" lon="151.2900638">
  <ele>343.09</ele>
  <time>2026-09-01T20:03:41Z</time>
  <course>197.66</course>
  <speed>0.022360679774997897</speed>
  <fix>3d</fix>
</trkpt>
<trkpt lat="-27.2744383" lon="151.2900637">
  <ele>343.09</ele>
  <time>2026-09-01T20:03:41Z</time>
  <course>176.63</course>
  <speed>0.0</speed>
  <fix>3d</fix>
</trkpt>
<trkpt lat="-27.2744385" lon="151.2900638">
  <ele>343.09</ele>
  <time>2026-09-01T20:03:41Z</time>
  <course>197.66</course>
  <speed>0.022360679774997897</speed>
  <fix>3d</fix>
</trkpt>
<trkpt lat="-27.2744383" lon="151.2900637">
  <ele>343.09</ele>
  <time>2026-09-01T20:03:41Z</time>
  <course>158.51</course>
  <speed>0.0</speed>
  <fix>3d</fix>
</trkpt>
<trkpt lat="-27.2744385" lon="151.2900638">
  <ele>343.09</ele>
  <time>2026-09-01T20:03:41Z</time>
  <course>197.66</course>
  <speed>0.022360679774997897</speed>
  <fix>3d</fix>
</trkpt>
<trkpt lat="-27.2744383" lon="151.2900637">
  <ele>343.09</ele>
  <time>2026-09-01T20:03:41Z</time>
  <course>158.51</course>
  <speed>0.0</speed>
  <fix>3d</fix>
</trkpt>
<trkpt lat="-27.2744385" lon="151.2900638">
  <ele>343.09</ele>
  <time>2026-09-01T20:03:41Z</time>
  <course>197.66</course>
  <speed>0.022360679774997897</speed>
  <fix>3d</fix>
</trkpt>
<trkpt lat="-27.2744383" lon="151.2900637">
  <ele>343.09</ele>
  <time>2026-09-01T20:03:41Z</time>
  <course>145.24</course>
  <speed>0.0</speed>
  <fix>3d</fix>
</trkpt>
<trkpt lat="-27.2744385" lon="151.2900638">
  <ele>343.09</ele>
  <time>2026-09-01T20:03:41Z</time>
  <course>197.66</course>
  <speed>0.022360679774997897</speed>
  <fix>3d</fix>
</trkpt>
<trkpt lat="-27.2744383" lon="151.2900637">
  <ele>343.09</ele>
  <time>2026-09-01T20:03:41Z</time>
  <course>145.24</course>
  <speed>0.0</speed>
  <fix>3d</fix>
</trkpt>
<trkpt lat="-27.2744385" lon="151.2900638">
  <ele>343.09</ele>
  <time>2026-09-01T20:03:41Z</time>
  <course>197.66</course>
  <speed>0.022360679774997897</speed>
  <fix>3d</fix>
</trkpt>
<trkpt lat="-27.2744383" lon="151.2900637">
  <ele>343.09</ele>
  <time>2026-09-01T20:03:41Z</time>
  <course>153.05</course>
  <speed>0.0</speed>
  <fix>3d</fix>
</trkpt>
<trkpt lat="-27.2744385" lon="151.2900638">
  <ele>343.09</ele>
  <time>2026-09-01T20:03:41Z</time>
  <course>197.65</course>
  <speed>0.022360679774997897</speed>
  <fix>3d</fix>
</trkpt>
<trkpt lat="-27.2744383" lon="151.2900637">
  <ele>343.09</ele>
  <time>2026-09-01T20:03:41Z</time>
  <course>153.05</course>
  <speed>0.0</speed>
  <fix>3d</fix>
</trkpt>
<trkpt lat="-27.2744385" lon="151.2900638">
  <ele>343.09</ele>
  <time>2026-09-01T20:03:41Z</time>
  <course>197.65</course>
  <speed>0.022360679774997897</speed>
  <fix>3d</fix>
</trkpt>
<trkpt lat="-27.2744383" lon="151.2900637">
  <ele>343.09</ele>
  <time>2026-09-01T20:03:41Z</time>
  <course>153.7</course>
  <speed>0.0</speed>
  <fix>3d</fix>
</trkpt>
<trkpt lat="-27.2744385" lon="151.2900638">
  <ele>343.09</ele>
  <time>2026-09-01T20:03:41Z</time>
  <course>197.65</course>
  <speed>0.022360679774997897</speed>
  <fix>3d</fix>
</trkpt>
<trkpt lat="-27.2744383" lon="151.2900637">
  <ele>343.09</ele>
  <time>2026-09-01T20:03:41Z</time>
  <course>153.7</course>
  <speed>0.0</speed>
  <fix>3d</fix>
</trkpt>
<trkpt lat="-27.2744385" lon="151.2900638">
  <ele>343.09</ele>
  <time>2026-09-01T20:03:41Z</time>
  <course>197.65</course>
  <speed>0.022360679774997897</speed>
  <fix>3d</fix>
</trkpt>
<trkpt lat="-27.2744383" lon="151.2900637">
  <ele>343.09</ele>
  <time>2026-09-01T20:03:41Z</time>
  <course>151.98</course>
  <speed>0.0</speed>
  <fix>3d</fix>
</trkpt>
<trkpt lat="-27.2744385" lon="151.2900638">
  <ele>343.09</ele>
  <time>2026-09-01T20:03:41Z</time>
  <course>197.65</course>
  <speed>0.022360679774997897</speed>
  <fix>3d</fix>
</trkpt>
<trkpt lat="-27.2744383" lon="151.2900637">
  <ele>343.09</ele>
  <time>2026-09-01T20:03:41Z</time>
  <course>151.98</course>
  <speed>0.0</speed>
  <fix>3d</fix>
</trkpt>
<trkpt lat="-27.2744385" lon="151.2900638">
  <ele>343.09</ele>
  <time>2026-09-01T20:03:41Z</time>
  <course>197.65</course>
  <speed>0.022360679774997897</speed>
  <fix>3d</fix>
</trkpt>
<trkpt lat="-27.2744383" lon="151.2900637">
  <ele>343.09</ele>
  <time>2026-09-01T20:03:41Z</time>
  <course>348.03</course>
  <speed>0.0</speed>
  <fix>3d</fix>
</trkpt>
<trkpt lat="-27.2744385" lon="151.2900638">
  <ele>343.09</ele>
  <time>2026-09-01T20:03:41Z</time>
  <course>197.64</course>
  <speed>0.022360679774997897</speed>
  <fix>3d</fix>
</trkpt>
<trkpt lat="-27.2744383" lon="151.2900637">
  <ele>343.09</ele>
  <time>2026-09-01T20:03:41Z</time>
  <course>348.03</course>
  <speed>0.0</speed>
  <fix>3d</fix>
</trkpt>
<trkpt lat="-27.2744385" lon="151.2900638">
  <ele>343.09</ele>
  <time>2026-09-01T20:03:41Z</time>
  <course>197.64</course>
  <speed>0.022360679774997897</speed>
  <fix>3d</fix>
</trkpt>
<trkpt lat="-27.2744383" lon="151.2900637">
  <ele>343.09</ele>
  <time>2026-09-01T20:03:41Z</time>
  <course>347.91</course>
  <speed>0.0</speed>
  <fix>3d</fix>
</trkpt>
<trkpt lat="-27.2744385" lon="151.2900638">
  <ele>343.08</ele>
  <time>2026-09-01T20:03:41Z</time>
  <course>197.63</course>
  <speed>0.022360679774997897</speed>
  <fix>3d</fix>
</trkpt>
<trkpt lat="-27.2744383" lon="151.2900637">
  <ele>343.09</ele>
  <time>2026-09-01T20:03:41Z</time>
  <course>347.91</course>
  <speed>0.0</speed>
  <fix>3d</fix>
</trkpt>
<trkpt lat="-27.2744385" lon="151.2900638">
  <ele>343.08</ele>
  <time>2026-09-01T20:03:41Z</time>
  <course>197.63</course>
  <speed>0.022360679774997897</speed>
  <fix>3d</fix>
</trkpt>
<trkpt lat="-27.2744383" lon="151.2900637">
  <ele>343.09</ele>
  <time>2026-09-01T20:03:41Z</time>
  <course>346.07</course>
  <speed>0.0</speed>
  <fix>3d</fix>
</trkpt>
<trkpt lat="-27.2744385" lon="151.2900638">
  <ele>343.08</ele>
  <time>2026-09-01T20:03:41Z</time>
  <course>197.62</course>
  <speed>0.022360679774997897</speed>
  <fix>3d</fix>
</trkpt>
<trkpt lat="-27.2744383" lon="151.2900637">
  <ele>343.09</ele>
  <time>2026-09-01T20:03:41Z</time>
  <course>346.07</course>
  <speed>0.0</speed>
  <fix>3d</fix>
</trkpt>
<trkpt lat="-27.2744385" lon="151.2900638">
  <ele>343.08</ele>
  <time>2026-09-01T20:03:41Z</time>
  <course>197.62</course>
  <speed>0.022360679774997897</speed>
  <fix>3d</fix>
</trkpt>
<trkpt lat="-27.2744383" lon="151.2900637">
  <ele>343.09</ele>
  <time>2026-09-01T20:03:41Z</time>
  <course>167.87</course>
  <speed>0.0</speed>
  <fix>3d</fix>
</trkpt>
<trkpt lat="-27.2744385" lon="151.2900638">
  <ele>343.08</ele>
  <time>2026-09-01T20:03:41Z</time>
  <course>197.61</course>
  <speed>0.022360679774997897</speed>
  <fix>3d</fix>
</trkpt>
<trkpt lat="-27.2744383" lon="151.2900637">
  <ele>343.09</ele>
  <time>2026-09-01T20:03:41Z</time>
  <course>167.87</course>
  <speed>0.0</speed>
  <fix>3d</fix>
</trkpt>
<trkpt lat="-27.2744385" lon="151.2900638">
  <ele>343.08</ele>
  <time>2026-09-01T20:03:41Z</time>
  <course>197.61</course>
  <speed>0.022360679774997897</speed>
  <fix>3d</fix>
</trkpt>
<trkpt lat="-27.2744383" lon="151.2900637">
  <ele>343.09</ele>
  <time>2026-09-01T20:03:41Z</time>
  <course>348.4</course>
  <speed>0.0</speed>
  <fix>3d</fix>
</trkpt>
<trkpt lat="-27.2744385" lon="151.2900638">
  <ele>343.08</ele>
  <time>2026-09-01T20:03:41Z</time>
  <course>197.6</course>
  <speed>0.022360679774997897</speed>
  <fix>3d</fix>
</trkpt>
<trkpt lat="-27.2744383" lon="151.2900637">
  <ele>343.09</ele>
  <time>2026-09-01T20:03:41Z</time>
  <course>348.4</course>
  <speed>0.0</speed>
  <fix>3d</fix>
</trkpt>
<trkpt lat="-27.2744385" lon="151.2900638">
  <ele>343.07</ele>
  <time>2026-09-01T20:03:41Z</time>
  <course>197.6</course>
  <speed>0.022360679774997897</speed>
  <fix>3d</fix>
</trkpt>
<trkpt lat="-27.2744383" lon="151.2900637">
  <ele>343.09</ele>
  <time>2026-09-01T20:03:41Z</time>
  <course>347.82</course>
  <speed>0.0</speed>
  <fix>3d</fix>
</trkpt>
<trkpt lat="-27.2744385" lon="151.2900638">
  <ele>343.07</ele>
  <time>2026-09-01T20:03:41Z</time>
  <course>197.59</course>
  <speed>0.022360679774997897</speed>
  <fix>3d</fix>
</trkpt>
<trkpt lat="-27.2744383" lon="151.2900637">
  <ele>343.09</ele>
  <time>2026-09-01T20:03:41Z</time>
  <course>347.82</course>
  <speed>0.0</speed>
  <fix>3d</fix>
</trkpt>
<trkpt lat="-27.2744385" lon="151.2900638">
  <ele>343.06</ele>
  <time>2026-09-01T20:03:41Z</time>
  <course>197.59</course>
  <speed>0.022360679774997897</speed>
  <fix>3d</fix>
</trkpt>
<trkpt lat="-27.2744383" lon="151.2900637">
  <ele>343.09</ele>
  <time>2026-09-01T20:03:41Z</time>
  <course>168.09</course>
  <speed>0.0</speed>
  <fix>3d</fix>
</trkpt>
<trkpt lat="-27.2744385" lon="151.2900638">
  <ele>343.06</ele>
  <time>2026-09-01T20:03:41Z</time>
  <course>197.58</course>
  <speed>0.022360679774997897</speed>
  <fix>3d</fix>
</trkpt>
<trkpt lat="-27.2744383" lon="151.2900637">
  <ele>343.09</ele>
  <time>2026-09-01T20:03:41Z</time>
  <course>168.09</course>
  <speed>0.0</speed>
  <fix>3d</fix>
</trkpt>
<trkpt lat="-27.2744385" lon="151.2900638">
  <ele>343.05</ele>
  <time>2026-09-01T20:03:41Z</time>
  <course>197.58</course>
  <speed>0.022360679774997897</speed>
  <fix>3d</fix>
</trkpt>
<trkpt lat="-27.2744383" lon="151.2900637">
  <ele>343.09</ele>
  <time>2026-09-01T20:03:41Z</time>
  <course>167.76</course>
  <speed>0.0</speed>
  <fix>3d</fix>
</trkpt>
<trkpt lat="-27.2744385" lon="151.2900638">
  <ele>343.05</ele>
  <time>2026-09-01T20:03:41Z</time>
  <course>197.57</course>
  <speed>0.022360679774997897</speed>
  <fix>3d</fix>
</trkpt>
<trkpt lat="-27.2744383" lon="151.2900637">
  <ele>343.09</ele>
  <time>2026-09-01T20:03:41Z</time>
  <course>167.76</course>
  <speed>0.0</speed>
  <fix>3d</fix>
</trkpt>
<trkpt lat="-27.2744385" lon="151.2900638">
  <ele>343.05</ele>
  <time>2026-09-01T20:03:41Z</time>
  <course>197.57</course>
  <speed>0.022360679774997897</speed>
  <fix>3d</fix>
</trkpt>
<trkpt lat="-27.2744383" lon="151.2900637">
  <ele>343.09</ele>
  <time>2026-09-01T20:03:41Z</time>
  <course>347.98</course>
  <speed>0.0</speed>
  <fix>3d</fix>
</trkpt>
<trkpt lat="-27.2744385" lon="151.2900638">
  <ele>343.05</ele>
  <time>2026-09-01T20:03:41Z</time>
  <course>197.56</course>
  <speed>0.022360679774997897</speed>
  <fix>3d</fix>
</trkpt>
<trkpt lat="-27.2744383" lon="151.2900637">
  <ele>343.09</ele>
  <time>2026-09-01T20:03:41Z</time>
  <course>347.98</course>
  <speed>0.0</speed>
  <fix>3d</fix>
</trkpt>
<trkpt lat="-27.2744385" lon="151.2900638">
  <ele>343.05</ele>
  <time>2026-09-01T20:03:41Z</time>
  <course>197.56</course>
  <speed>0.022360679774997897</speed>
  <fix>3d</fix>
</trkpt>
<trkpt lat="-27.2744383" lon="151.2900637">
  <ele>343.09</ele>
  <time>2026-09-01T20:03:41Z</time>
  <course>347.63</course>
  <speed>0.0</speed>
  <fix>3d</fix>
</trkpt>
<trkpt lat="-27.2744385" lon="151.2900638">
  <ele>343.05</ele>
  <time>2026-09-01T20:03:41Z</time>
  <course>197.55</course>
  <speed>0.022360679774997897</speed>
  <fix>3d</fix>
</trkpt>
<trkpt lat="-27.2744383" lon="151.2900637">
  <ele>343.09</ele>
  <time>2026-09-01T20:03:41Z</time>
  <course>347.63</course>
  <speed>0.0</speed>
  <fix>3d</fix>
</trkpt>
<trkpt lat="-27.2744385" lon="151.2900638">
  <ele>343.05</ele>
  <time>2026-09-01T20:03:41Z</time>
  <course>197.55</course>
  <speed>0.022360679774997897</speed>
  <fix>3d</fix>
</trkpt>
<trkpt lat="-27.2744383" lon="151.2900637">
  <ele>343.09</ele>
  <time>2026-09-01T20:03:41Z</time>
  <course>167.93</course>
  <speed>0.0</speed>
  <fix>3d</fix>
</trkpt>
<trkpt lat="-27.2744385" lon="151.2900638">
  <ele>343.05</ele>
  <time>2026-09-01T20:03:41Z</time>
  <course>197.54</course>
  <speed>0.022360679774997897</speed>
  <fix>3d</fix>
</trkpt>
<trkpt lat="-27.2744383" lon="151.2900637">
  <ele>343.09</ele>
  <time>2026-09-01T20:03:41Z</time>
  <course>167.93</course>
  <speed>0.0</speed>
  <fix>3d</fix>
</trkpt>
<trkpt lat="-27.2744385" lon="151.2900638">
  <ele>343.05</ele>
  <time>2026-09-01T20:03:41Z</time>
  <course>197.54</course>
  <speed>0.022360679774997897</speed>
  <fix>3d</fix>
</trkpt>
<trkpt lat="-27.2744383" lon="151.2900637">
  <ele>343.09</ele>
  <time>2026-09-01T20:03:41Z</time>
  <course>167.14</course>
  <speed>0.0</speed>
  <fix>3d</fix>
</trkpt>
<trkpt lat="-27.2744385" lon="151.2900638">
  <ele>343.05</ele>
  <time>2026-09-01T20:03:41Z</time>
  <course>197.53</course>
  <speed>0.022360679774997897</speed>
  <fix>3d</fix>
</trkpt>
<trkpt lat="-27.2744383" lon="151.2900637">
  <ele>343.09</ele>
  <time>2026-09-01T20:03:41Z</time>
  <course>167.14</course>
  <speed>0.0</speed>
  <fix>3d</fix>
</trkpt>
<trkpt lat="-27.2744385" lon="151.2900638">
  <ele>343.06</ele>
  <time>2026-09-01T20:03:41Z</time>
  <course>197.53</course>
  <speed>0.022360679774997897</speed>
  <fix>3d</fix>
</trkpt>
<trkpt lat="-27.2744383" lon="151.2900637">
  <ele>343.09</ele>
  <time>2026-09-01T20:03:41Z</time>
  <course>347.88</course>
  <speed>0.0</speed>
  <fix>3d</fix>
</trkpt>
<trkpt lat="-27.2744385" lon="151.2900638">
  <ele>343.06</ele>
  <time>2026-09-01T20:03:41Z</time>
  <course>197.52</course>
  <speed>0.022360679774997897</speed>
  <fix>3d</fix>
</trkpt>
<trkpt lat="-27.2744383" lon="151.2900637">
  <ele>343.09</ele>
  <time>2026-09-01T20:03:41Z</time>
  <course>347.88</course>
  <speed>0.0</speed>
  <fix>3d</fix>
</trkpt>
<trkpt lat="-27.2744385" lon="151.2900638">
  <ele>343.06</ele>
  <time>2026-09-01T20:03:41Z</time>
  <course>197.52</course>
  <speed>0.022360679774997897</speed>
  <fix>3d</fix>
</trkpt>
<trkpt lat="-27.2744383" lon="151.2900637">
  <ele>343.09</ele>
  <time>2026-09-01T20:03:41Z</time>
  <course>168.74</course>
  <speed>0.0</speed>
  <fix>3d</fix>
</trkpt>
<trkpt lat="-26.9720619" lon="149.6127921">
  <ele>339.29</ele>
  <time>2026-09-01T20:03:42Z</time>
  <course>310.27</course>
  <speed>0.0</speed>
  <fix>3d</fix>
</trkpt>
<trkpt lat="-26.9720619" lon="149.6127921">
  <ele>339.29</ele>
  <time>2026-09-01T20:03:42Z</time>
  <course>310.27</course>
  <speed>0.0</speed>
  <fix>3d</fix>
</trkpt>
<trkpt lat="-27.274439" lon="151.290064">
  <ele>-0.01</ele>
  <time>2026-09-01T20:03:42Z</time>
  <course>0.18</course>
  <speed>0.0</speed>
  <fix>3d</fix>
</trkpt>
<trkpt lat="-27.274439" lon="151.290064">
  <ele>343.1</ele>
  <time>2026-09-01T20:03:42Z</time>
  <course>294.58</course>
  <speed>0.0</speed>
  <fix>3d</fix>
</trkpt>
<trkpt lat="-27.274439" lon="151.290064">
  <ele>0.02</ele>
  <time>2026-09-01T20:03:42Z</time>
  <course>1.17</course>
  <speed>0.0</speed>
  <fix>3d</fix>
</trkpt>
<trkpt lat="-27.274439" lon="151.290064">
  <ele>343.1</ele>
  <time>2026-09-01T20:03:42Z</time>
  <course>294.58</course>
  <speed>0.0</speed>
  <fix>3d</fix>
</trkpt>
<trkpt lat="-27.274439" lon="151.290064">
  <ele>-0.08</ele>
  <time>2026-09-01T20:03:42Z</time>
  <course>2.07</course>
  <speed>0.0</speed>
  <fix>3d</fix>
</trkpt>
<trkpt lat="-27.274439" lon="151.290064">
  <ele>343.1</ele>
  <time>2026-09-01T20:03:42Z</time>
  <course>273.33</course>
  <speed>0.0</speed>
  <fix>3d</fix>
</trkpt>
<trkpt lat="-27.274439" lon="151.290064">
  <ele>0.22</ele>
  <time>2026-09-01T20:03:42Z</time>
  <course>2.89</course>
  <speed>0.0</speed>
  <fix>3d</fix>
</trkpt>
<trkpt lat="-27.274439" lon="151.290064">
  <ele>343.1</ele>
  <time>2026-09-01T20:03:42Z</time>
  <course>273.33</course>
  <speed>0.0</speed>
  <fix>3d</fix>
</trkpt>
<trkpt lat="-27.274439" lon="151.290064">
  <ele>0.09</ele>
  <time>2026-09-01T20:03:42Z</time>
  <course>3.63</course>
  <speed>0.0</speed>
  <fix>3d</fix>
</trkpt>
<trkpt lat="-27.274439" lon="151.290064">
  <ele>343.1</ele>
  <time>2026-09-01T20:03:42Z</time>
  <course>270.44</course>
  <speed>0.0</speed>
  <fix>3d</fix>
</trkpt>
<trkpt lat="-27.274439" lon="151.290064">
  <ele>0.08</ele>
  <time>2026-09-01T20:03:42Z</time>
  <course>4.31</course>
  <speed>0.0</speed>
  <fix>3d</fix>
</trkpt>
<trkpt lat="-27.274439" lon="151.290064">
  <ele>343.1</ele>
  <time>2026-09-01T20:03:42Z</time>
  <course>270.44</course>
  <speed>0.0</speed>
  <fix>3d</fix>
</trkpt>
<trkpt lat="-27.274439" lon="151.290064">
  <ele>0.09</ele>
  <time>2026-09-01T20:03:42Z</time>
  <course>4.93</course>
  <speed>0.0</speed>
  <fix>3d</fix>
</trkpt>
<trkpt lat="-27.274439" lon="151.290064">
  <ele>343.1</ele>
  <time>2026-09-01T20:03:42Z</time>
  <course>270.05</course>
  <speed>0.0</speed>
  <fix>3d</fix>
</trkpt>
<trkpt lat="-27.274439" lon="151.290064">
  <ele>-0.05</ele>
  <time>2026-09-01T20:03:42Z</time>
  <course>5.48</course>
  <speed>0.0</speed>
  <fix>3d</fix>
</trkpt>
<trkpt lat="-27.274439" lon="151.290064">
  <ele>343.1</ele>
  <time>2026-09-01T20:03:42Z</time>
  <course>270.05</course>
  <speed>0.0</speed>
  <fix>3d</fix>
</trkpt>
<trkpt lat="-27.274439" lon="151.290064">
  <ele>343.06</ele>
  <time>2026-09-01T20:03:42Z</time>
  <course>5.96</course>
  <speed>0.0</speed>
  <fix>3d</fix>
</trkpt>
<trkpt lat="-27.274439" lon="151.290064">
  <ele>343.1</ele>
  <time>2026-09-01T20:03:42Z</time>
  <course>270.0</course>
  <speed>0.0</speed>
  <fix>3d</fix>
</trkpt>
<trkpt lat="-27.274439" lon="151.290064">
  <ele>343.18</ele>
  <time>2026-09-01T20:03:42Z</time>
  <course>6.42</course>
  <speed>0.0</speed>
  <fix>3d</fix>
</trkpt>
<trkpt lat="-27.274439" lon="151.290064">
  <ele>343.1</ele>
  <time>2026-09-01T20:03:42Z</time>
  <course>270.0</course>
  <speed>0.0</speed>
  <fix>3d</fix>
</trkpt>
<trkpt lat="-27.274439" lon="151.290064">
  <ele>342.91</ele>
  <time>2026-09-01T20:03:42Z</time>
  <course>6.84</course>
  <speed>0.0</speed>
  <fix>3d</fix>
</trkpt>
<trkpt lat="-27.274439" lon="151.290064">
  <ele>343.1</ele>
  <time>2026-09-01T20:03:42Z</time>
  <course>270.0</course>
  <speed>0.0</speed>
  <fix>3d</fix>
</trkpt>
<trkpt lat="-27.274439" lon="151.290064">
  <ele>343.06</ele>
  <time>2026-09-01T20:03:42Z</time>
  <course>7.21</course>
  <speed>0.0</speed>
  <fix>3d</fix>
</trkpt>
<trkpt lat="-27.274439" lon="151.290064">
  <ele>343.1</ele>
  <time>2026-09-01T20:03:42Z</time>
  <course>270.0</course>
  <speed>0.0</speed>
  <fix>3d</fix>
</trkpt>
<trkpt lat="-27.274439" lon="151.290064">
  <ele>343.13</ele>
  <time>2026-09-01T20:03:42Z</time>
  <course>7.55</course>
  <speed>0.0</speed>
  <fix>3d</fix>
</trkpt>
<trkpt lat="-27.274439" lon="151.290064">
  <ele>343.1</ele>
  <time>2026-09-01T20:03:42Z</time>
  <course>270.0</course>
  <speed>0.0</speed>
  <fix>3d</fix>
</trkpt>
<trkpt lat="-27.274439" lon="151.290064">
  <ele>343.04</ele>
  <time>2026-09-01T20:03:42Z</time>
  <course>7.86</course>
  <speed>0.0</speed>
  <fix>3d</fix>
</trkpt>
<trkpt lat="-27.274439" lon="151.290064">
  <ele>343.1</ele>
  <time>2026-09-01T20:03:42Z</time>
  <course>270.0</course>
  <speed>0.0</speed>
  <fix>3d</fix>
</trkpt>
<trkpt lat="-27.274439" lon="151.290064">
  <ele>342.88</ele>
  <time>2026-09-01T20:03:42Z</time>
  <course>8.13</course>
  <speed>0.0</speed>
  <fix>3d</fix>
</trkpt>
<trkpt lat="-27.274439" lon="151.290064">
  <ele>343.1</ele>
  <time>2026-09-01T20:03:42Z</time>
  <course>270.0</course>
  <speed>0.0</speed>
  <fix>3d</fix>
</trkpt>
<trkpt lat="-27.274439" lon="151.290064">
  <ele>343.02</ele>
  <time>2026-09-01T20:03:42Z</time>
  <course>8.38</course>
  <speed>0.0</speed>
  <fix>3d</fix>
</trkpt>
<trkpt lat="-27.274439" lon="151.290064">
  <ele>343.1</ele>
  <time>2026-09-01T20:03:42Z</time>
  <course>270.0</course>
  <speed>0.0</speed>
  <fix>3d</fix>
</trkpt>
<trkpt lat="-27.274439" lon="151.290064">
  <ele>343.23</ele>
  <time>2026-09-01T20:03:42Z</time>
  <course>8.62</course>
  <speed>0.0</speed>
  <fix>3d</fix>
</trkpt>
<trkpt lat="-27.274439" lon="151.290064">
  <ele>343.1</ele>
  <time>2026-09-01T20:03:42Z</time>
  <course>270.0</course>
  <speed>0.0</speed>
  <fix>3d</fix>
</trkpt>
<trkpt lat="-27.274439" lon="151.290064">
  <ele>343.17</ele>
  <time>2026-09-01T20:03:42Z</time>
  <course>8.82</course>
  <speed>0.0</speed>
  <fix>3d</fix>
</trkpt>
<trkpt lat="-27.274439" lon="151.290064">
  <ele>343.1</ele>
  <time>2026-09-01T20:03:42Z</time>
  <course>270.0</course>
  <speed>0.0</speed>
  <fix>3d</fix>
</trkpt>
<trkpt lat="-27.274439" lon="151.290064">
  <ele>343.04</ele>
  <time>2026-09-01T20:03:42Z</time>
  <course>9.0</course>
  <speed>0.0</speed>
  <fix>3d</fix>
</trkpt>
<trkpt lat="-27.274439" lon="151.290064">
  <ele>343.1</ele>
  <time>2026-09-01T20:03:42Z</time>
  <course>270.0</course>
  <speed>0.0</speed>
  <fix>3d</fix>
</trkpt>
<trkpt lat="-27.274439" lon="151.290064">
  <ele>342.89</ele>
  <time>2026-09-01T20:03:42Z</time>
  <course>9.17</course>
  <speed>0.0</speed>
  <fix>3d</fix>
</trkpt>
<trkpt lat="-27.274439" lon="151.290064">
  <ele>343.1</ele>
  <time>2026-09-01T20:03:42Z</time>
  <course>270.0</course>
  <speed>0.0</speed>
  <fix>3d</fix>
</trkpt>
<trkpt lat="-27.274439" lon="151.290064">
  <ele>343.08</ele>
  <time>2026-09-01T20:03:43Z</time>
  <course>9.32</course>
  <speed>0.0</speed>
  <fix>3d</fix>
</trkpt>
<trkpt lat="-27.274439" lon="151.290064">
  <ele>343.1</ele>
  <time>2026-09-01T20:03:43Z</time>
  <course>270.0</course>
  <speed>0.0</speed>
  <fix>3d</fix>
</trkpt>
<trkpt lat="-27.274439" lon="151.290064">
  <ele>343.19</ele>
  <time>2026-09-01T20:03:43Z</time>
  <course>9.46</course>
  <speed>0.0</speed>
  <fix>3d</fix>
</trkpt>
<trkpt lat="-27.274439" lon="151.290064">
  <ele>343.1</ele>
  <time>2026-09-01T20:03:43Z</time>
  <course>270.0</course>
  <speed>0.0</speed>
  <fix>3d</fix>
</trkpt>
<trkpt lat="-27.274439" lon="151.290064">
  <ele>342.88</ele>
  <time>2026-09-01T20:03:43Z</time>
  <course>9.59</course>
  <speed>0.0</speed>
  <fix>3d</fix>
</trkpt>
<trkpt lat="-27.274439" lon="151.290064">
  <ele>343.1</ele>
  <time>2026-09-01T20:03:43Z</time>
  <course>270.0</course>
  <speed>0.0</speed>
  <fix>3d</fix>
</trkpt>
<trkpt lat="-27.274439" lon="151.290064">
  <ele>343.17</ele>
  <time>2026-09-01T20:03:43Z</time>
  <course>9.7</course>
  <speed>0.0</speed>
  <fix>3d</fix>
</trkpt>
<trkpt lat="-27.274439" lon="151.290064">
  <ele>343.1</ele>
  <time>2026-09-01T20:03:43Z</time>
  <course>270.0</course>
  <speed>0.0</speed>
  <fix>3d</fix>
</trkpt>
<trkpt lat="-27.274439" lon="151.290064">
  <ele>342.89</ele>
  <time>2026-09-01T20:03:43Z</time>
  <course>9.8</course>
  <speed>0.0</speed>
  <fix>3d</fix>
</trkpt>
<trkpt lat="-27.274439" lon="151.290064">
  <ele>343.1</ele>
  <time>2026-09-01T20:03:43Z</time>
  <course>270.0</course>
  <speed>0.0</speed>
  <fix>3d</fix>
</trkpt>
<trkpt lat="-27.274439" lon="151.290064">
  <ele>342.99</ele>
  <time>2026-09-01T20:03:43Z</time>
  <course>9.89</course>
  <speed>0.0</speed>
  <fix>3d</fix>
</trkpt>
<trkpt lat="-27.274439" lon="151.290064">
  <ele>343.1</ele>
  <time>2026-09-01T20:03:43Z</time>
  <course>270.0</course>
  <speed>0.0</speed>
  <fix>3d</fix>
</trkpt>
<trkpt lat="-27.274439" lon="151.290064">
  <ele>342.87</ele>
  <time>2026-09-01T20:03:43Z</time>
  <course>9.98</course>
  <speed>0.0</speed>
  <fix>3d</fix>
</trkpt>
<trkpt lat="-27.274439" lon="151.290064">
  <ele>343.1</ele>
  <time>2026-09-01T20:03:43Z</time>
  <course>270.0</course>
  <speed>0.0</speed>
  <fix>3d</fix>
</trkpt>
<trkpt lat="-27.274439" lon="151.290064">
  <ele>343.09</ele>
  <time>2026-09-01T20:03:43Z</time>
  <course>10.06</course>
  <speed>0.0</speed>
  <fix>3d</fix>
</trkpt>
<trkpt lat="-27.274439" lon="151.290064">
  <ele>343.1</ele>
  <time>2026-09-01T20:03:43Z</time>
  <course>270.0</course>
  <speed>0.0</speed>
  <fix>3d</fix>
</trkpt>
<trkpt lat="-27.274439" lon="151.290064">
  <ele>343.18</ele>
  <time>2026-09-01T20:03:43Z</time>
  <course>10.13</course>
  <speed>0.0</speed>
  <fix>3d</fix>
</trkpt>
<trkpt lat="-27.274439" lon="151.290064">
  <ele>343.1</ele>
  <time>2026-09-01T20:03:43Z</time>
  <course>270.0</course>
  <speed>0.0</speed>
  <fix>3d</fix>
</trkpt>
<trkpt lat="-27.274439" lon="151.290064">
  <ele>343.05</ele>
  <time>2026-09-01T20:03:43Z</time>
  <course>10.19</course>
  <speed>0.0</speed>
  <fix>3d</fix>
</trkpt>
<trkpt lat="-27.274439" lon="151.290064">
  <ele>343.1</ele>
  <time>2026-09-01T20:03:43Z</time>
  <course>270.0</course>
  <speed>0.0</speed>
  <fix>3d</fix>
</trkpt>
<trkpt lat="-27.274439" lon="151.290064">
  <ele>342.96</ele>
  <time>2026-09-01T20:03:43Z</time>
  <course>10.25</course>
  <speed>0.0</speed>
  <fix>3d</fix>
</trkpt>
<trkpt lat="-27.274439" lon="151.290064">
  <ele>343.1</ele>
  <time>2026-09-01T20:03:43Z</time>
  <course>270.0</course>
  <speed>0.0</speed>
  <fix>3d</fix>
</trkpt>
<trkpt lat="-27.274439" lon="151.290064">
  <ele>343.1</ele>
  <time>2026-09-01T20:03:43Z</time>
  <course>10.3</course>
  <speed>0.0</speed>
  <fix>3d</fix>
</trkpt>
<trkpt lat="-27.274439" lon="151.290064">
  <ele>343.1</ele>
  <time>2026-09-01T20:03:43Z</time>
  <course>270.0</course>
  <speed>0.0</speed>
  <fix>3d</fix>
</trkpt>
<trkpt lat="-27.274439" lon="151.290064">
  <ele>343.22</ele>
  <time>2026-09-01T20:03:43Z</time>
  <course>10.35</course>
  <speed>0.0</speed>
  <fix>3d</fix>
</trkpt>
<trkpt lat="-27.274439" lon="151.290064">
  <ele>343.1</ele>
  <time>2026-09-01T20:03:43Z</time>
  <course>270.0</course>
  <speed>0.0</speed>
  <fix>3d</fix>
</trkpt>
<trkpt lat="-27.274439" lon="151.290064">
  <ele>343.17</ele>
  <time>2026-09-01T20:03:43Z</time>
  <course>10.39</course>
  <speed>0.0</speed>
  <fix>3d</fix>
</trkpt>
<trkpt lat="-27.274439" lon="151.290064">
  <ele>343.1</ele>
  <time>2026-09-01T20:03:43Z</time>
  <course>270.0</course>
  <speed>0.0</speed>
  <fix>3d</fix>
</trkpt>
<trkpt lat="-27.274439" lon="151.290064">
  <ele>343.08</ele>
  <time>2026-09-01T20:03:43Z</time>
  <course>10.43</course>
  <speed>0.0</speed>
  <fix>3d</fix>
</trkpt>
<trkpt lat="-27.274439" lon="151.290064">
  <ele>343.1</ele>
  <time>2026-09-01T20:03:43Z</time>
  <course>270.0</course>
  <speed>0.0</speed>
  <fix>3d</fix>
</trkpt>
<trkpt lat="-27.274439" lon="151.290064">
  <ele>343.04</ele>
  <time>2026-09-01T20:03:43Z</time>
  <course>10.47</course>
  <speed>0.0</speed>
  <fix>3d</fix>
</trkpt>
<trkpt lat="-27.274439" lon="151.290064">
  <ele>343.1</ele>
  <time>2026-09-01T20:03:43Z</time>
  <course>270.0</course>
  <speed>0.0</speed>
  <fix>3d</fix>
</trkpt>
<trkpt lat="-27.274439" lon="151.290064">
  <ele>343.18</ele>
  <time>2026-09-01T20:03:43Z</time>
  <course>10.5</course>
  <speed>0.0</speed>
  <fix>3d</fix>
</trkpt>
<trkpt lat="-27.274439" lon="151.290064">
  <ele>343.1</ele>
  <time>2026-09-01T20:03:43Z</time>
  <course>270.0</course>
  <speed>0.0</speed>
  <fix>3d</fix>
</trkpt>
<trkpt lat="-27.274439" lon="151.290064">
  <ele>343.12</ele>
  <time>2026-09-01T20:03:43Z</time>
  <course>10.53</course>
  <speed>0.0</speed>
  <fix>3d</fix>
</trkpt>
<trkpt lat="-27.274439" lon="151.290064">
  <ele>343.1</ele>
  <time>2026-09-01T20:03:43Z</time>
  <course>270.0</course>
  <speed>0.0</speed>
  <fix>3d</fix>
</trkpt>
<trkpt lat="-27.274439" lon="151.290064">
  <ele>343.04</ele>
  <time>2026-09-01T20:03:43Z</time>
  <course>10.55</course>
  <speed>0.0</speed>
  <fix>3d</fix>
</trkpt>
<trkpt lat="-27.274439" lon="151.290064">
  <ele>343.1</ele>
  <time>2026-09-01T20:03:43Z</time>
  <course>270.0</course>
  <speed>0.0</speed>
  <fix>3d</fix>
</trkpt>
<trkpt lat="-27.274439" lon="151.290064">
  <ele>343.07</ele>
  <time>2026-09-01T20:03:43Z</time>
  <course>10.58</course>
  <speed>0.0</speed>
  <fix>3d</fix>
</trkpt>
<trkpt lat="-27.274439" lon="151.290064">
  <ele>343.1</ele>
  <time>2026-09-01T20:03:43Z</time>
  <course>270.0</course>
  <speed>0.0</speed>
  <fix>3d</fix>
</trkpt>
<trkpt lat="-27.274439" lon="151.290064">
  <ele>343.04</ele>
  <time>2026-09-01T20:03:43Z</time>
  <course>10.6</course>
  <speed>0.0</speed>
  <fix>3d</fix>
</trkpt>
<trkpt lat="-27.274439" lon="151.290064">
  <ele>343.1</ele>
  <time>2026-09-01T20:03:43Z</time>
  <course>270.0</course>
  <speed>0.0</speed>
  <fix>3d</fix>
</trkpt>
<trkpt lat="-27.274439" lon="151.290064">
  <ele>343.01</ele>
  <time>2026-09-01T20:03:43Z</time>
  <course>10.62</course>
  <speed>0.0</speed>
  <fix>3d</fix>
</trkpt>
<trkpt lat="-27.274439" lon="151.290064">
  <ele>343.1</ele>
  <time>2026-09-01T20:03:43Z</time>
  <course>270.0</course>
  <speed>0.0</speed>
  <fix>3d</fix>
</trkpt>
<trkpt lat="-27.274439" lon="151.290064">
  <ele>343.2</ele>
  <time>2026-09-01T20:03:43Z</time>
  <course>10.64</course>
  <speed>0.0</speed>
  <fix>3d</fix>
</trkpt>
<trkpt lat="-27.274439" lon="151.290064">
  <ele>343.1</ele>
  <time>2026-09-01T20:03:43Z</time>
  <course>270.0</course>
  <speed>0.0</speed>
  <fix>3d</fix>
</trkpt>
<trkpt lat="-27.274439" lon="151.290064">
  <ele>343.24</ele>
  <time>2026-09-01T20:03:43Z</time>
  <course>10.65</course>
  <speed>0.0</speed>
  <fix>3d</fix>
</trkpt>
<trkpt lat="-27.274439" lon="151.290064">
  <ele>343.1</ele>
  <time>2026-09-01T20:03:43Z</time>
  <course>270.0</course>
  <speed>0.0</speed>
  <fix>3d</fix>
</trkpt>
<trkpt lat="-27.274439" lon="151.290064">
  <ele>342.88</ele>
  <time>2026-09-01T20:03:43Z</time>
  <course>10.67</course>
  <speed>0.0</speed>
  <fix>3d</fix>
</trkpt>
<trkpt lat="-27.274439" lon="151.290064">
  <ele>343.1</ele>
  <time>2026-09-01T20:03:43Z</time>
  <course>270.0</course>
  <speed>0.0</speed>
  <fix>3d</fix>
</trkpt>
<trkpt lat="-27.274439" lon="151.290064">
  <ele>343.21</ele>
  <time>2026-09-01T20:03:43Z</time>
  <course>10.68</course>
  <speed>0.0</speed>
  <fix>3d</fix>
</trkpt>
<trkpt lat="-27.274439" lon="151.290064">
  <ele>343.1</ele>
  <time>2026-09-01T20:03:43Z</time>
  <course>270.0</course>
  <speed>0.0</speed>
  <fix>3d</fix>
</trkpt>
<trkpt lat="-27.274439" lon="151.290064">
  <ele>343.02</ele>
  <time>2026-09-01T20:03:43Z</time>
  <course>10.69</course>
  <speed>0.0</speed>
  <fix>3d</fix>
</trkpt>
<trkpt lat="-27.274439" lon="151.290064">
  <ele>343.1</ele>
  <time>2026-09-01T20:03:43Z</time>
  <course>270.0</course>
  <speed>0.0</speed>
  <fix>3d</fix>
</trkpt>
<trkpt lat="-27.274439" lon="151.290064">
  <ele>342.93</ele>
  <time>2026-09-01T20:03:43Z</time>
  <course>10.7</course>
  <speed>0.0</speed>
  <fix>3d</fix>
</trkpt>
<trkpt lat="-27.274439" lon="151.290064">
  <ele>343.1</ele>
  <time>2026-09-01T20:03:43Z</time>
  <course>270.0</course>
  <speed>0.0</speed>
  <fix>3d</fix>
</trkpt>
<trkpt lat="-27.274439" lon="151.290064">
  <ele>343.07</ele>
  <time>2026-09-01T20:03:43Z</time>
  <course>10.71</course>
  <speed>0.0</speed>
  <fix>3d</fix>
</trkpt>
<trkpt lat="-27.274439" lon="151.290064">
  <ele>343.1</ele>
  <time>2026-09-01T20:03:43Z</time>
  <course>270.0</course>
  <speed>0.0</speed>
  <fix>3d</fix>
</trkpt>
<trkpt lat="-27.274439" lon="151.290064">
  <ele>342.94</ele>
  <time>2026-09-01T20:03:43Z</time>
  <course>10.72</course>
  <speed>0.0</speed>
  <fix>3d</fix>
</trkpt>
<trkpt lat="-27.274439" lon="151.290064">
  <ele>343.1</ele>
  <time>2026-09-01T20:03:43Z</time>
  <course>270.0</course>
  <speed>0.0</speed>
  <fix>3d</fix>
</trkpt>
<trkpt lat="-27.274439" lon="151.290064">
  <ele>343.11</ele>
  <time>2026-09-01T20:03:43Z</time>
  <course>10.73</course>
  <speed>0.0</speed>
  <fix>3d</fix>
</trkpt>
<trkpt lat="-27.274439" lon="151.290064">
  <ele>343.1</ele>
  <time>2026-09-01T20:03:43Z</time>
  <course>270.0</course>
  <speed>0.0</speed>
  <fix>3d</fix>
</trkpt>
<trkpt lat="-27.274439" lon="151.290064">
  <ele>343.24</ele>
  <time>2026-09-01T20:03:43Z</time>
  <course>10.73</course>
  <speed>0.0</speed>
  <fix>3d</fix>
</trkpt>
<trkpt lat="-27.274439" lon="151.290064">
  <ele>343.1</ele>
  <time>2026-09-01T20:03:43Z</time>
  <course>270.0</course>
  <speed>0.0</speed>
  <fix>3d</fix>
</trkpt>
<trkpt lat="-27.274439" lon="151.290064">
  <ele>343.18</ele>
  <time>2026-09-01T20:03:43Z</time>
  <course>10.74</course>
  <speed>0.0</speed>
  <fix>3d</fix>
</trkpt>
<trkpt lat="-27.274439" lon="151.290064">
  <ele>343.1</ele>
  <time>2026-09-01T20:03:43Z</time>
  <course>270.0</course>
  <speed>0.0</speed>
  <fix>3d</fix>
</trkpt>
<trkpt lat="-27.274439" lon="151.290064">
  <ele>342.89</ele>
  <time>2026-09-01T20:03:43Z</time>
  <course>10.75</course>
  <speed>0.0</speed>
  <fix>3d</fix>
</trkpt>
<trkpt lat="-27.274439" lon="151.290064">
  <ele>343.1</ele>
  <time>2026-09-01T20:03:43Z</time>
  <course>270.0</course>
  <speed>0.0</speed>
  <fix>3d</fix>
</trkpt>
<trkpt lat="-27.274439" lon="151.290064">
  <ele>343.23</ele>
  <time>2026-09-01T20:03:43Z</time>
  <course>10.75</course>
  <speed>0.0</speed>
  <fix>3d</fix>
</trkpt>
<trkpt lat="-27.274439" lon="151.290064">
  <ele>343.1</ele>
  <time>2026-09-01T20:03:43Z</time>
  <course>270.0</course>
  <speed>0.0</speed>
  <fix>3d</fix>
</trkpt>
<trkpt lat="-27.274439" lon="151.290064">
  <ele>343.23</ele>
  <time>2026-09-01T20:03:43Z</time>
  <course>10.76</course>
  <speed>0.0</speed>
  <fix>3d</fix>
</trkpt>
<trkpt lat="-27.274439" lon="151.290064">
  <ele>343.1</ele>
  <time>2026-09-01T20:03:43Z</time>
  <course>270.0</course>
  <speed>0.0</speed>
  <fix>3d</fix>
</trkpt>
<trkpt lat="-27.274439" lon="151.290064">
  <ele>342.99</ele>
  <time>2026-09-01T20:03:43Z</time>
  <course>10.76</course>
  <speed>0.0</speed>
  <fix>3d</fix>
</trkpt>
<trkpt lat="-27.274439" lon="151.290064">
  <ele>343.1</ele>
  <time>2026-09-01T20:03:43Z</time>
  <course>270.0</course>
  <speed>0.0</speed>
  <fix>3d</fix>
</trkpt>
<trkpt lat="-27.274439" lon="151.290064">
  <ele>343.13</ele>
  <time>2026-09-01T20:03:43Z</time>
  <course>10.76</course>
  <speed>0.0</speed>
  <fix>3d</fix>
</trkpt>
<trkpt lat="-27.274439" lon="151.290064">
  <ele>343.1</ele>
  <time>2026-09-01T20:03:43Z</time>
  <course>270.0</course>
  <speed>0.0</speed>
  <fix>3d</fix>
</trkpt>
<trkpt lat="-27.274439" lon="151.290064">
  <ele>343.07</ele>
  <time>2026-09-01T20:03:43Z</time>
  <course>10.77</course>
  <speed>0.0</speed>
  <fix>3d</fix>
</trkpt>
<trkpt lat="-27.274439" lon="151.290064">
  <ele>343.1</ele>
  <time>2026-09-01T20:03:43Z</time>
  <course>270.0</course>
  <speed>0.0</speed>
  <fix>3d</fix>
</trkpt>
<trkpt lat="-27.274439" lon="151.290064">
  <ele>343.19</ele>
  <time>2026-09-01T20:03:43Z</time>
  <course>10.77</course>
  <speed>0.0</speed>
  <fix>3d</fix>
</trkpt>
<trkpt lat="-27.274439" lon="151.290064">
  <ele>343.1</ele>
  <time>2026-09-01T20:03:43Z</time>
  <course>270.0</course>
  <speed>0.0</speed>
  <fix>3d</fix>
</trkpt>
<trkpt lat="-27.274439" lon="151.290064">
  <ele>342.93</ele>
  <time>2026-09-01T20:03:43Z</time>
  <course>10.77</course>
  <speed>0.0</speed>
  <fix>3d</fix>
</trkpt>
<trkpt lat="-27.274439" lon="151.290064">
  <ele>343.1</ele>
  <time>2026-09-01T20:03:43Z</time>
  <course>270.0</course>
  <speed>0.0</speed>
  <fix>3d</fix>
</trkpt>
<trkpt lat="-27.274439" lon="151.290064">
  <ele>343.19</ele>
  <time>2026-09-01T20:03:43Z</time>
  <course>10.78</course>
  <speed>0.0</speed>
  <fix>3d</fix>
</trkpt>
<trkpt lat="-27.274439" lon="151.290064">
  <ele>343.1</ele>
  <time>2026-09-01T20:03:43Z</time>
  <course>270.0</course>
  <speed>0.0</speed>
  <fix>3d</fix>
</trkpt>
<trkpt lat="-27.274439" lon="151.290064">
  <ele>343.1</ele>
  <time>2026-09-01T20:03:43Z</time>
  <course>10.78</course>
  <speed>0.0</speed>
  <fix>3d</fix>
</trkpt>
<trkpt lat="-27.274439" lon="151.290064">
  <ele>343.1</ele>
  <time>2026-09-01T20:03:43Z</time>
  <course>270.0</course>
  <speed>0.0</speed>
  <fix>3d</fix>
</trkpt>
<trkpt lat="-27.274439" lon="151.290064">
  <ele>343.01</ele>
  <time>2026-09-01T20:03:43Z</time>
  <course>10.78</course>
  <speed>0.0</speed>
  <fix>3d</fix>
</trkpt>
<trkpt lat="-27.274439" lon="151.290064">
  <ele>343.1</ele>
  <time>2026-09-01T20:03:43Z</time>
  <course>270.0</course>
  <speed>0.0</speed>
  <fix>3d</fix>
</trkpt>
<trkpt lat="-27.274439" lon="151.290064">
  <ele>343.11</ele>
  <time>2026-09-01T20:03:43Z</time>
  <course>10.78</course>
  <speed>0.0</speed>
  <fix>3d</fix>
</trkpt>
<trkpt lat="-27.274439" lon="151.290064">
  <ele>343.1</ele>
  <time>2026-09-01T20:03:43Z</time>
  <course>270.0</course>
  <speed>0.0</speed>
  <fix>3d</fix>
</trkpt>
<trkpt lat="-27.274439" lon="151.290064">
  <ele>342.96</ele>
  <time>2026-09-01T20:03:43Z</time>
  <course>10.78</course>
  <speed>0.0</speed>
  <fix>3d</fix>
</trkpt>
<trkpt lat="-27.274439" lon="151.290064">
  <ele>343.1</ele>
  <time>2026-09-01T20:03:43Z</time>
  <course>270.0</course>
  <speed>0.0</speed>
  <fix>3d</fix>
</trkpt>
<trkpt lat="-27.274439" lon="151.290064">
  <ele>343.19</ele>
  <time>2026-09-01T20:03:43Z</time>
  <course>10.79</course>
  <speed>0.0</speed>
  <fix>3d</fix>
</trkpt>
<trkpt lat="-27.274439" lon="151.290064">
  <ele>343.1</ele>
  <time>2026-09-01T20:03:43Z</time>
  <course>270.0</course>
  <speed>0.0</speed>
  <fix>3d</fix>
</trkpt>
<trkpt lat="-27.274439" lon="151.290064">
  <ele>343.0</ele>
  <time>2026-09-01T20:03:43Z</time>
  <course>10.79</course>
  <speed>0.0</speed>
  <fix>3d</fix>
</trkpt>
<trkpt lat="-27.274439" lon="151.290064">
  <ele>343.1</ele>
  <time>2026-09-01T20:03:43Z</time>
  <course>270.0</course>
  <speed>0.0</speed>
  <fix>3d</fix>
</trkpt>
<trkpt lat="-27.274439" lon="151.290064">
  <ele>343.2</ele>
  <time>2026-09-01T20:03:43Z</time>
  <course>10.79</course>
  <speed>0.0</speed>
  <fix>3d</fix>
</trkpt>
<trkpt lat="-27.274439" lon="151.290064">
  <ele>343.1</ele>
  <time>2026-09-01T20:03:43Z</time>
  <course>270.0</course>
  <speed>0.0</speed>
  <fix>3d</fix>
</trkpt>
<trkpt lat="-27.274439" lon="151.290064">
  <ele>343.2</ele>
  <time>2026-09-01T20:03:43Z</time>
  <course>10.79</course>
  <speed>0.0</speed>
  <fix>3d</fix>
</trkpt>
<trkpt lat="-27.274439" lon="151.290064">
  <ele>343.1</ele>
  <time>2026-09-01T20:03:43Z</time>
  <course>270.0</course>
  <speed>0.0</speed>
  <fix>3d</fix>
</trkpt>
<trkpt lat="-27.274439" lon="151.290064">
  <ele>343.13</ele>
  <time>2026-09-01T20:03:43Z</time>
  <course>10.79</course>
  <speed>0.0</speed>
  <fix>3d</fix>
</trkpt>
<trkpt lat="-27.274439" lon="151.290064">
  <ele>343.1</ele>
  <time>2026-09-01T20:03:43Z</time>
  <course>270.0</course>
  <speed>0.0</speed>
  <fix>3d</fix>
</trkpt>
<trkpt lat="-27.274439" lon="151.290064">
  <ele>343.1</ele>
  <time>2026-09-01T20:03:43Z</time>
  <course>10.79</course>
  <speed>0.0</speed>
  <fix>3d</fix>
</trkpt>
<trkpt lat="-27.274439" lon="151.290064">
  <ele>343.1</ele>
  <time>2026-09-01T20:03:43Z</time>
  <course>270.0</course>
  <speed>0.0</speed>
  <fix>3d</fix>
</trkpt>
<trkpt lat="-27.274439" lon="151.290064">
  <ele>343.12</ele>
  <time>2026-09-01T20:03:43Z</time>
  <course>10.79</course>
  <speed>0.0</speed>
  <fix>3d</fix>
</trkpt>
<trkpt lat="-27.274439" lon="151.290064">
  <ele>343.1</ele>
  <time>2026-09-01T20:03:43Z</time>
  <course>270.0</course>
  <speed>0.0</speed>
  <fix>3d</fix>
</trkpt>
<trkpt lat="-27.274439" lon="151.290064">
  <ele>342.94</ele>
  <time>2026-09-01T20:03:43Z</time>
  <course>10.79</course>
  <speed>0.0</speed>
  <fix>3d</fix>
</trkpt>
<trkpt lat="-27.274439" lon="151.290064">
  <ele>343.1</ele>
  <time>2026-09-01T20:03:43Z</time>
  <course>270.0</course>
  <speed>0.0</speed>
  <fix>3d</fix>
</trkpt>
<trkpt lat="-27.274439" lon="151.290064">
  <ele>343.25</ele>
  <time>2026-09-01T20:03:43Z</time>
  <course>10.79</course>
  <speed>0.0</speed>
  <fix>3d</fix>
</trkpt>
<trkpt lat="-27.274439" lon="151.290064">
  <ele>343.1</ele>
  <time>2026-09-01T20:03:43Z</time>
  <course>270.0</course>
  <speed>0.0</speed>
  <fix>3d</fix>
</trkpt>
<trkpt lat="-27.274439" lon="151.290064">
  <ele>342.93</ele>
  <time>2026-09-01T20:03:43Z</time>
  <course>10.79</course>
  <speed>0.0</speed>
  <fix>3d</fix>
</trkpt>
<trkpt lat="-27.274439" lon="151.290064">
  <ele>343.1</ele>
  <time>2026-09-01T20:03:43Z</time>
  <course>270.0</course>
  <speed>0.0</speed>
  <fix>3d</fix>
</trkpt>
<trkpt lat="-27.274439" lon="151.290064">
  <ele>343.08</ele>
  <time>2026-09-01T20:03:43Z</time>
  <course>10.8</course>
  <speed>0.0</speed>
  <fix>3d</fix>
</trkpt>
<trkpt lat="-27.274439" lon="151.290064">
  <ele>343.1</ele>
  <time>2026-09-01T20:03:43Z</time>
  <course>270.0</course>
  <speed>0.0</speed>
  <fix>3d</fix>
</trkpt>
<trkpt lat="-27.274439" lon="151.290064">
  <ele>343.23</ele>
  <time>2026-09-01T20:03:43Z</time>
  <course>10.8</course>
  <speed>0.0</speed>
  <fix>3d</fix>
</trkpt>
<trkpt lat="-27.274439" lon="151.290064">
  <ele>343.1</ele>
  <time>2026-09-01T20:03:43Z</time>
  <course>270.0</course>
  <speed>0.0</speed>
  <fix>3d</fix>
</trkpt>
<trkpt lat="-27.274439" lon="151.290064">
  <ele>343.01</ele>
  <time>2026-09-01T20:03:43Z</time>
  <course>10.8</course>
  <speed>0.0</speed>
  <fix>3d</fix>
</trkpt>
<trkpt lat="-27.274439" lon="151.290064">
  <ele>343.1</ele>
  <time>2026-09-01T20:03:43Z</time>
  <course>270.0</course>
  <speed>0.0</speed>
  <fix>3d</fix>
</trkpt>
<trkpt lat="-27.274439" lon="151.290064">
  <ele>343.1</ele>
  <time>2026-09-01T20:03:43Z</time>
  <course>10.8</course>
  <speed>0.0</speed>
  <fix>3d</fix>
</trkpt>
<trkpt lat="-27.274439" lon="151.290064">
  <ele>343.1</ele>
  <time>2026-09-01T20:03:43Z</time>
  <course>270.0</course>
  <speed>0.0</speed>
  <fix>3d</fix>
</trkpt>
<trkpt lat="-27.274439" lon="151.290064">
  <ele>342.99</ele>
  <time>2026-09-01T20:03:43Z</time>
  <course>10.8</course>
  <speed>0.0</speed>
  <fix>3d</fix>
</trkpt>
<trkpt lat="-27.274439" lon="151.290064">
  <ele>343.1</ele>
  <time>2026-09-01T20:03:43Z</time>
  <course>270.0</course>
  <speed>0.0</speed>
  <fix>3d</fix>
</trkpt>
<trkpt lat="-27.274439" lon="151.290064">
  <ele>342.87</ele>
  <time>2026-09-01T20:03:43Z</time>
  <course>10.8</course>
  <speed>0.0</speed>
  <fix>3d</fix>
</trkpt>
<trkpt lat="-27.274439" lon="151.290064">
  <ele>343.1</ele>
  <time>2026-09-01T20:03:43Z</time>
  <course>270.0</course>
  <speed>0.0</speed>
  <fix>3d</fix>
</trkpt>
<trkpt lat="-27.274439" lon="151.290064">
  <ele>343.1</ele>
  <time>2026-09-01T20:03:43Z</time>
  <course>10.8</course>
  <speed>0.0</speed>
  <fix>3d</fix>
</trkpt>
<trkpt lat="-27.274439" lon="151.290064">
  <ele>343.1</ele>
  <time>2026-09-01T20:03:43Z</time>
  <course>270.0</course>
  <speed>0.0</speed>
  <fix>3d</fix>
</trkpt>
<trkpt lat="-27.274439" lon="151.290064">
  <ele>342.99</ele>
  <time>2026-09-01T20:03:43Z</time>
  <course>10.8</course>
  <speed>0.0</speed>
  <fix>3d</fix>
</trkpt>
<trkpt lat="-27.274439" lon="151.290064">
  <ele>343.1</ele>
  <time>2026-09-01T20:03:43Z</time>
  <course>270.0</course>
  <speed>0.0</speed>
  <fix>3d</fix>
</trkpt>
<trkpt lat="-27.274439" lon="151.290064">
  <ele>342.91</ele>
  <time>2026-09-01T20:03:43Z</time>
  <course>10.8</course>
  <speed>0.0</speed>
  <fix>3d</fix>
</trkpt>
<trkpt lat="-27.274439" lon="151.290064">
  <ele>343.1</ele>
  <time>2026-09-01T20:03:43Z</time>
  <course>270.0</course>
  <speed>0.0</speed>
  <fix>3d</fix>
</trkpt>
<trkpt lat="-27.274439" lon="151.290064">
  <ele>342.9</ele>
  <time>2026-09-01T20:03:43Z</time>
  <course>10.8</course>
  <speed>0.0</speed>
  <fix>3d</fix>
</trkpt>
<trkpt lat="-27.274439" lon="151.290064">
  <ele>343.1</ele>
  <time>2026-09-01T20:03:43Z</time>
  <course>270.0</course>
  <speed>0.0</speed>
  <fix>3d</fix>
</trkpt>
<trkpt lat="-27.274439" lon="151.290064">
  <ele>342.87</ele>
  <time>2026-09-01T20:03:43Z</time>
  <course>10.8</course>
  <speed>0.0</speed>
  <fix>3d</fix>
</trkpt>
<trkpt lat="-27.274439" lon="151.290064">
  <ele>343.1</ele>
  <time>2026-09-01T20:03:43Z</time>
  <course>270.0</course>
  <speed>0.0</speed>
  <fix>3d</fix>
</trkpt>
<trkpt lat="-27.274439" lon="151.290064">
  <ele>343.12</ele>
  <time>2026-09-01T20:03:43Z</time>
  <course>10.8</course>
  <speed>0.0</speed>
  <fix>3d</fix>
</trkpt>
<trkpt lat="-27.274439" lon="151.290064">
  <ele>343.1</ele>
  <time>2026-09-01T20:03:43Z</time>
  <course>270.0</course>
  <speed>0.0</speed>
  <fix>3d</fix>
</trkpt>
<trkpt lat="-27.274439" lon="151.290064">
  <ele>342.99</ele>
  <time>2026-09-01T20:03:43Z</time>
  <course>10.8</course>
  <speed>0.0</speed>
  <fix>3d</fix>
</trkpt>
<trkpt lat="-27.274439" lon="151.290064">
  <ele>343.1</ele>
  <time>2026-09-01T20:03:43Z</time>
  <course>270.0</course>
  <speed>0.0</speed>
  <fix>3d</fix>
</trkpt>
<trkpt lat="-27.274439" lon="151.290064">
  <ele>343.13</ele>
  <time>2026-09-01T20:03:43Z</time>
  <course>10.8</course>
  <speed>0.0</speed>
  <fix>3d</fix>
</trkpt>
<trkpt lat="-27.274439" lon="151.290064">
  <ele>343.1</ele>
  <time>2026-09-01T20:03:43Z</time>
  <course>270.0</course>
  <speed>0.0</speed>
  <fix>3d</fix>
</trkpt>
<trkpt lat="-27.274439" lon="151.290064">
  <ele>343.0</ele>
  <time>2026-09-01T20:03:43Z</time>
  <course>10.8</course>
  <speed>0.0</speed>
  <fix>3d</fix>
</trkpt>
<trkpt lat="-27.274439" lon="151.290064">
  <ele>343.1</ele>
  <time>2026-09-01T20:03:43Z</time>
  <course>270.0</course>
  <speed>0.0</speed>
  <fix>3d</fix>
</trkpt>
<trkpt lat="-27.274439" lon="151.290064">
  <ele>343.17</ele>
  <time>2026-09-01T20:03:43Z</time>
  <course>10.8</course>
  <speed>0.0</speed>
  <fix>3d</fix>
</trkpt>
<trkpt lat="-27.274439" lon="151.290064">
  <ele>343.1</ele>
  <time>2026-09-01T20:03:43Z</time>
  <course>270.0</course>
  <speed>0.0</speed>
  <fix>3d</fix>
</trkpt>
<trkpt lat="-27.274439" lon="151.290064">
  <ele>343.0</ele>
  <time>2026-09-01T20:03:43Z</time>
  <course>10.8</course>
  <speed>0.0</speed>
  <fix>3d</fix>
</trkpt>
<trkpt lat="-27.274439" lon="151.290064">
  <ele>343.1</ele>
  <time>2026-09-01T20:03:43Z</time>
  <course>270.0</course>
  <speed>0.0</speed>
  <fix>3d</fix>
</trkpt>
<trkpt lat="-27.274439" lon="151.290064">
  <ele>342.99</ele>
  <time>2026-09-01T20:03:43Z</time>
  <course>10.8</course>
  <speed>0.0</speed>
  <fix>3d</fix>
</trkpt>
<trkpt lat="-27.274439" lon="151.290064">
  <ele>343.1</ele>
  <time>2026-09-01T20:03:43Z</time>
  <course>270.0</course>
  <speed>0.0</speed>
  <fix>3d</fix>
</trkpt>
<trkpt lat="-27.274439" lon="151.290064">
  <ele>343.17</ele>
  <time>2026-09-01T20:03:43Z</time>
  <course>10.8</course>
  <speed>0.0</speed>
  <fix>3d</fix>
</trkpt>
<trkpt lat="-27.274439" lon="151.290064">
  <ele>343.1</ele>
  <time>2026-09-01T20:03:43Z</time>
  <course>270.0</course>
  <speed>0.0</speed>
  <fix>3d</fix>
</trkpt>
<trkpt lat="-27.274439" lon="151.290064">
  <ele>343.16</ele>
  <time>2026-09-01T20:03:43Z</time>
  <course>10.8</course>
  <speed>0.0</speed>
  <fix>3d</fix>
</trkpt>
<trkpt lat="-27.274439" lon="151.290064">
  <ele>343.1</ele>
  <time>2026-09-01T20:03:43Z</time>
  <course>270.0</course>
  <speed>0.0</speed>
  <fix>3d</fix>
</trkpt>
<trkpt lat="-27.274439" lon="151.290064">
  <ele>342.87</ele>
  <time>2026-09-01T20:03:43Z</time>
  <course>10.8</course>
  <speed>0.0</speed>
  <fix>3d</fix>
</trkpt>
<trkpt lat="-27.274439" lon="151.290064">
  <ele>343.1</ele>
  <time>2026-09-01T20:03:43Z</time>
  <course>270.0</course>
  <speed>0.0</speed>
  <fix>3d</fix>
</trkpt>
<trkpt lat="-27.274439" lon="151.290064">
  <ele>343.19</ele>
  <time>2026-09-01T20:03:43Z</time>
  <course>10.8</course>
  <speed>0.0</speed>
  <fix>3d</fix>
</trkpt>
<trkpt lat="-27.274439" lon="151.290064">
  <ele>343.1</ele>
  <time>2026-09-01T20:03:43Z</time>
  <course>270.0</course>
  <speed>0.0</speed>
  <fix>3d</fix>
</trkpt>
<trkpt lat="-27.274439" lon="151.290064">
  <ele>343.16</ele>
  <time>2026-09-01T20:03:43Z</time>
  <course>10.8</course>
  <speed>0.0</speed>
  <fix>3d</fix>
</trkpt>
<trkpt lat="-27.274439" lon="151.290064">
  <ele>343.1</ele>
  <time>2026-09-01T20:03:43Z</time>
  <course>270.0</course>
  <speed>0.0</speed>
  <fix>3d</fix>
</trkpt>
<trkpt lat="-27.274439" lon="151.290064">
  <ele>343.21</ele>
  <time>2026-09-01T20:03:43Z</time>
  <course>10.8</course>
  <speed>0.0</speed>
  <fix>3d</fix>
</trkpt>
<trkpt lat="-27.274439" lon="151.290064">
  <ele>343.1</ele>
  <time>2026-09-01T20:03:43Z</time>
  <course>270.0</course>
  <speed>0.0</speed>
  <fix>3d</fix>
</trkpt>
<trkpt lat="-27.274439" lon="151.290064">
  <ele>343.22</ele>
  <time>2026-09-01T20:03:43Z</time>
  <course>10.8</course>
  <speed>0.0</speed>
  <fix>3d</fix>
</trkpt>
<trkpt lat="-27.274439" lon="151.290064">
  <ele>343.1</ele>
  <time>2026-09-01T20:03:43Z</time>
  <course>270.0</course>
  <speed>0.0</speed>
  <fix>3d</fix>
</trkpt>
<trkpt lat="-27.274439" lon="151.290064">
  <ele>343.24</ele>
  <time>2026-09-01T20:03:43Z</time>
  <course>10.8</course>
  <speed>0.0</speed>
  <fix>3d</fix>
</trkpt>
<trkpt lat="-27.274439" lon="151.290064">
  <ele>343.1</ele>
  <time>2026-09-01T20:03:43Z</time>
  <course>270.0</course>
  <speed>0.0</speed>
  <fix>3d</fix>
</trkpt>
<trkpt lat="-27.274439" lon="151.290064">
  <ele>343.0</ele>
  <time>2026-09-01T20:03:43Z</time>
  <course>10.8</course>
  <speed>0.0</speed>
  <fix>3d</fix>
</trkpt>
<trkpt lat="-27.274439" lon="151.290064">
  <ele>343.1</ele>
  <time>2026-09-01T20:03:43Z</time>
  <course>270.0</course>
  <speed>0.0</speed>
  <fix>3d</fix>
</trkpt>
<trkpt lat="-27.274439" lon="151.290064">
  <ele>343.1</ele>
  <time>2026-09-01T20:03:43Z</time>
  <course>10.8</course>
  <speed>0.0</speed>
  <fix>3d</fix>
</trkpt>
<trkpt lat="-27.274439" lon="151.290064">
  <ele>343.1</ele>
  <time>2026-09-01T20:03:43Z</time>
  <course>270.0</course>
  <speed>0.0</speed>
  <fix>3d</fix>
</trkpt>
<trkpt lat="-27.274439" lon="151.290064">
  <ele>343.05</ele>
  <time>2026-09-01T20:03:43Z</time>
  <course>10.8</course>
  <speed>0.0</speed>
  <fix>3d</fix>
</trkpt>
<trkpt lat="-27.274439" lon="151.290064">
  <ele>343.1</ele>
  <time>2026-09-01T20:03:43Z</time>
  <course>270.0</course>
  <speed>0.0</speed>
  <fix>3d</fix>
</trkpt>
<trkpt lat="-27.274439" lon="151.290064">
  <ele>342.87</ele>
  <time>2026-09-01T20:03:43Z</time>
  <course>10.8</course>
  <speed>0.0</speed>
  <fix>3d</fix>
</trkpt>
<trkpt lat="-27.274439" lon="151.290064">
  <ele>343.1</ele>
  <time>2026-09-01T20:03:43Z</time>
  <course>270.0</course>
  <speed>0.0</speed>
  <fix>3d</fix>
</trkpt>
<trkpt lat="-27.274439" lon="151.290064">
  <ele>342.92</ele>
  <time>2026-09-01T20:03:43Z</time>
  <course>10.8</course>
  <speed>0.0</speed>
  <fix>3d</fix>
</trkpt>
<trkpt lat="-27.274439" lon="151.290064">
  <ele>343.1</ele>
  <time>2026-09-01T20:03:43Z</time>
  <course>270.0</course>
  <speed>0.0</speed>
  <fix>3d</fix>
</trkpt>
<trkpt lat="-27.274439" lon="151.290064">
  <ele>342.96</ele>
  <time>2026-09-01T20:03:43Z</time>
  <course>10.8</course>
  <speed>0.0</speed>
  <fix>3d</fix>
</trkpt>
<trkpt lat="-27.274439" lon="151.290064">
  <ele>343.1</ele>
  <time>2026-09-01T20:03:43Z</time>
  <course>270.0</course>
  <speed>0.0</speed>
  <fix>3d</fix>
</trkpt>
<trkpt lat="-27.274439" lon="151.290064">
  <ele>343.15</ele>
  <time>2026-09-01T20:03:43Z</time>
  <course>10.8</course>
  <speed>0.0</speed>
  <fix>3d</fix>
</trkpt>
<trkpt lat="-27.274439" lon="151.290064">
  <ele>343.1</ele>
  <time>2026-09-01T20:03:43Z</time>
  <course>270.0</course>
  <speed>0.0</speed>
  <fix>3d</fix>
</trkpt>
<trkpt lat="-27.274439" lon="151.290064">
  <ele>343.16</ele>
  <time>2026-09-01T20:03:43Z</time>
  <course>10.8</course>
  <speed>0.0</speed>
  <fix>3d</fix>
</trkpt>
<trkpt lat="-27.274439" lon="151.290064">
  <ele>343.1</ele>
  <time>2026-09-01T20:03:43Z</time>
  <course>270.0</course>
  <speed>0.0</speed>
  <fix>3d</fix>
</trkpt>
<trkpt lat="-27.274439" lon="151.290064">
  <ele>343.2</ele>
  <time>2026-09-01T20:03:43Z</time>
  <course>10.81</course>
  <speed>0.0</speed>
  <fix>3d</fix>
</trkpt>
<trkpt lat="-27.274439" lon="151.290064">
  <ele>343.1</ele>
  <time>2026-09-01T20:03:43Z</time>
  <course>270.0</course>
  <speed>0.0</speed>
  <fix>3d</fix>
</trkpt>
<trkpt lat="-27.274439" lon="151.290064">
  <ele>343.13</ele>
  <time>2026-09-01T20:03:43Z</time>
  <course>10.82</course>
  <speed>0.0</speed>
  <fix>3d</fix>
</trkpt>
<trkpt lat="-27.274439" lon="151.290064">
  <ele>343.1</ele>
  <time>2026-09-01T20:03:43Z</time>
  <course>270.0</course>
  <speed>0.0</speed>
  <fix>3d</fix>
</trkpt>
<trkpt lat="-27.274439" lon="151.290064">
  <ele>343.09</ele>
  <time>2026-09-01T20:03:43Z</time>
  <course>10.71</course>
  <speed>0.0</speed>
  <fix>3d</fix>
</trkpt>
<trkpt lat="-27.274439" lon="151.290064">
  <ele>343.1</ele>
  <time>2026-09-01T20:03:43Z</time>
  <course>270.0</course>
  <speed>0.0</speed>
  <fix>3d</fix>
</trkpt>
<trkpt lat="-27.274439" lon="151.290064">
  <ele>343.09</ele>
  <time>2026-09-01T20:03:43Z</time>
  <course>10.71</course>
  <speed>0.0</speed>
  <fix>3d</fix>
</trkpt>
<trkpt lat="-27.274439" lon="151.290064">
  <ele>343.1</ele>
  <time>2026-09-01T20:03:43Z</time>
  <course>270.0</course>
  <speed>0.0</speed>
  <fix>3d</fix>
</trkpt>
<trkpt lat="-27.274439" lon="151.290064">
  <ele>343.1</ele>
  <time>2026-09-01T20:03:43Z</time>
  <course>10.71</course>
  <speed>0.0</speed>
  <fix>3d</fix>
</trkpt>
<trkpt lat="-27.274439" lon="151.290064">
  <ele>343.1</ele>
  <time>2026-09-01T20:03:43Z</time>
  <course>270.0</course>
  <speed>0.0</speed>
  <fix>3d</fix>
</trkpt>
<trkpt lat="-27.274439" lon="151.290064">
  <ele>343.1</ele>
  <time>2026-09-01T20:03:43Z</time>
  <course>10.71</course>
  <speed>0.0</speed>
  <fix>3d</fix>
</trkpt>
<trkpt lat="-27.274439" lon="151.290064">
  <ele>343.1</ele>
  <time>2026-09-01T20:03:43Z</time>
  <course>270.0</course>
  <speed>0.0</speed>
  <fix>3d</fix>
</trkpt>
<trkpt lat="-27.274439" lon="151.290064">
  <ele>343.1</ele>
  <time>2026-09-01T20:03:43Z</time>
  <course>10.71</course>
  <speed>0.0</speed>
  <fix>3d</fix>
</trkpt>
<trkpt lat="-27.274439" lon="151.290064">
  <ele>343.1</ele>
  <time>2026-09-01T20:03:43Z</time>
  <course>270.0</course>
  <speed>0.0</speed>
  <fix>3d</fix>
</trkpt>
<trkpt lat="-27.274439" lon="151.290064">
  <ele>343.1</ele>
  <time>2026-09-01T20:03:43Z</time>
  <course>10.71</course>
  <speed>0.0</speed>
  <fix>3d</fix>
</trkpt>
<trkpt lat="-27.274439" lon="151.290064">
  <ele>343.1</ele>
  <time>2026-09-01T20:03:43Z</time>
  <course>270.0</course>
  <speed>0.0</speed>
  <fix>3d</fix>
</trkpt>
<trkpt lat="-27.274439" lon="151.290064">
  <ele>343.1</ele>
  <time>2026-09-01T20:03:43Z</time>
  <course>10.71</course>
  <speed>0.0</speed>
  <fix>3d</fix>
</trkpt>
<trkpt lat="-27.274439" lon="151.290064">
  <ele>343.1</ele>
  <time>2026-09-01T20:03:43Z</time>
  <course>270.0</course>
  <speed>0.0</speed>
  <fix>3d</fix>
</trkpt>
<trkpt lat="-27.274439" lon="151.290064">
  <ele>343.11</ele>
  <time>2026-09-01T20:03:43Z</time>
  <course>10.71</course>
  <speed>0.0</speed>
  <fix>3d</fix>
</trkpt>
<trkpt lat="-27.274439" lon="151.290064">
  <ele>343.1</ele>
  <time>2026-09-01T20:03:43Z</time>
  <course>270.0</course>
  <speed>0.0</speed>
  <fix>3d</fix>
</trkpt>
<trkpt lat="-27.274439" lon="151.290064">
  <ele>343.11</ele>
  <time>2026-09-01T20:03:43Z</time>
  <course>10.71</course>
  <speed>0.0</speed>
  <fix>3d</fix>
</trkpt>
<trkpt lat="-27.274439" lon="151.290064">
  <ele>343.1</ele>
  <time>2026-09-01T20:03:43Z</time>
  <course>270.0</course>
  <speed>0.0</speed>
  <fix>3d</fix>
</trkpt>
<trkpt lat="-27.274439" lon="151.290064">
  <ele>343.11</ele>
  <time>2026-09-01T20:03:43Z</time>
  <course>10.71</course>
  <speed>0.0</speed>
  <fix>3d</fix>
</trkpt>
<trkpt lat="-27.274439" lon="151.290064">
  <ele>343.1</ele>
  <time>2026-09-01T20:03:43Z</time>
  <course>270.0</course>
  <speed>0.0</speed>
  <fix>3d</fix>
</trkpt>
<trkpt lat="-27.274439" lon="151.290064">
  <ele>343.1</ele>
  <time>2026-09-01T20:03:43Z</time>
  <course>10.71</course>
  <speed>0.0</speed>
  <fix>3d</fix>
</trkpt>
<trkpt lat="-27.274439" lon="151.290064">
  <ele>343.1</ele>
  <time>2026-09-01T20:03:43Z</time>
  <course>270.0</course>
  <speed>0.0</speed>
  <fix>3d</fix>
</trkpt>
<trkpt lat="-27.274439" lon="151.290064">
  <ele>343.09</ele>
  <time>2026-09-01T20:03:43Z</time>
  <course>10.71</course>
  <speed>0.0</speed>
  <fix>3d</fix>
</trkpt>
<trkpt lat="-27.274439" lon="151.290064">
  <ele>343.1</ele>
  <time>2026-09-01T20:03:43Z</time>
  <course>270.0</course>
  <speed>0.0</speed>
  <fix>3d</fix>
</trkpt>
<trkpt lat="-27.274439" lon="151.290064">
  <ele>343.09</ele>
  <time>2026-09-01T20:03:43Z</time>
  <course>10.71</course>
  <speed>0.0</speed>
  <fix>3d</fix>
</trkpt>
<trkpt lat="-27.274439" lon="151.290064">
  <ele>343.1</ele>
  <time>2026-09-01T20:03:43Z</time>
  <course>270.0</course>
  <speed>0.0</speed>
  <fix>3d</fix>
</trkpt>
<trkpt lat="-27.274439" lon="151.290064">
  <ele>343.09</ele>
  <time>2026-09-01T20:03:43Z</time>
  <course>10.71</course>
  <speed>0.0</speed>
  <fix>3d</fix>
</trkpt>
<trkpt lat="-27.274439" lon="151.290064">
  <ele>343.1</ele>
  <time>2026-09-01T20:03:43Z</time>
  <course>270.0</course>
  <speed>0.0</speed>
  <fix>3d</fix>
</trkpt>
<trkpt lat="-27.274439" lon="151.290064">
  <ele>343.09</ele>
  <time>2026-09-01T20:03:43Z</time>
  <course>10.71</course>
  <speed>0.0</speed>
  <fix>3d</fix>
</trkpt>
<trkpt lat="-27.274439" lon="151.290064">
  <ele>343.1</ele>
  <time>2026-09-01T20:03:43Z</time>
  <course>270.0</course>
  <speed>0.0</speed>
  <fix>3d</fix>
</trkpt>
<trkpt lat="-27.274439" lon="151.290064">
  <ele>343.09</ele>
  <time>2026-09-01T20:03:43Z</time>
  <course>10.71</course>
  <speed>0.0</speed>
  <fix>3d</fix>
</trkpt>
<trkpt lat="-27.274439" lon="151.290064">
  <ele>343.1</ele>
  <time>2026-09-01T20:03:43Z</time>
  <course>270.0</course>
  <speed>0.0</speed>
  <fix>3d</fix>
</trkpt>
<trkpt lat="-27.274439" lon="151.290064">
  <ele>343.09</ele>
  <time>2026-09-01T20:03:43Z</time>
  <course>10.71</course>
  <speed>0.0</speed>
  <fix>3d</fix>
</trkpt>
<trkpt lat="-27.274439" lon="151.290064">
  <ele>343.1</ele>
  <time>2026-09-01T20:03:43Z</time>
  <course>270.0</course>
  <speed>0.0</speed>
  <fix>3d</fix>
</trkpt>
<trkpt lat="-27.274439" lon="151.290064">
  <ele>343.09</ele>
  <time>2026-09-01T20:03:43Z</time>
  <course>10.71</course>
  <speed>0.0</speed>
  <fix>3d</fix>
</trkpt>
<trkpt lat="-27.274439" lon="151.290064">
  <ele>343.1</ele>
  <time>2026-09-01T20:03:43Z</time>
  <course>270.0</course>
  <speed>0.0</speed>
  <fix>3d</fix>
</trkpt>
<trkpt lat="-27.274439" lon="151.290064">
  <ele>343.08</ele>
  <time>2026-09-01T20:03:43Z</time>
  <course>10.71</course>
  <speed>0.0</speed>
  <fix>3d</fix>
</trkpt>
<trkpt lat="-27.274439" lon="151.290064">
  <ele>343.1</ele>
  <time>2026-09-01T20:03:43Z</time>
  <course>270.0</course>
  <speed>0.0</speed>
  <fix>3d</fix>
</trkpt>
<trkpt lat="-27.274439" lon="151.290064">
  <ele>343.08</ele>
  <time>2026-09-01T20:03:43Z</time>
  <course>10.71</course>
  <speed>0.0</speed>
  <fix>3d</fix>
</trkpt>
<trkpt lat="-27.274439" lon="151.290064">
  <ele>343.1</ele>
  <time>2026-09-01T20:03:43Z</time>
  <course>270.0</course>
  <speed>0.0</speed>
  <fix>3d</fix>
</trkpt>
<trkpt lat="-27.274439" lon="151.290064">
  <ele>343.08</ele>
  <time>2026-09-01T20:03:43Z</time>
  <course>10.71</course>
  <speed>0.0</speed>
  <fix>3d</fix>
</trkpt>
<trkpt lat="-27.274439" lon="151.290064">
  <ele>343.1</ele>
  <time>2026-09-01T20:03:43Z</time>
  <course>270.0</course>
  <speed>0.0</speed>
  <fix>3d</fix>
</trkpt>
<trkpt lat="-27.274439" lon="151.290064">
  <ele>343.08</ele>
  <time>2026-09-01T20:03:43Z</time>
  <course>10.71</course>
  <speed>0.0</speed>
  <fix>3d</fix>
</trkpt>
<trkpt lat="-27.274439" lon="151.290064">
  <ele>343.1</ele>
  <time>2026-09-01T20:03:43Z</time>
  <course>270.0</course>
  <speed>0.0</speed>
  <fix>3d</fix>
</trkpt>
<trkpt lat="-27.274439" lon="151.290064">
  <ele>343.08</ele>
  <time>2026-09-01T20:03:43Z</time>
  <course>10.71</course>
  <speed>0.0</speed>
  <fix>3d</fix>
</trkpt>
<trkpt lat="-27.274439" lon="151.290064">
  <ele>343.1</ele>
  <time>2026-09-01T20:03:43Z</time>
  <course>120.78</course>
  <speed>0.0</speed>
  <fix>3d</fix>
</trkpt>
<trkpt lat="-27.274439" lon="151.290064">
  <ele>343.08</ele>
  <time>2026-09-01T20:03:43Z</time>
  <course>10.71</course>
  <speed>0.0</speed>
  <fix>3d</fix>
</trkpt>
<trkpt lat="-27.274439" lon="151.290064">
  <ele>343.1</ele>
  <time>2026-09-01T20:03:43Z</time>
  <course>120.78</course>
  <speed>0.0</speed>
  <fix>3d</fix>
</trkpt>
<trkpt lat="-27.274439" lon="151.290064">
  <ele>343.08</ele>
  <time>2026-09-01T20:03:43Z</time>
  <course>10.71</course>
  <speed>0.0</speed>
  <fix>3d</fix>
</trkpt>
<trkpt lat="-27.274439" lon="151.290064">
  <ele>343.1</ele>
  <time>2026-09-01T20:03:43Z</time>
  <course>244.87</course>
  <speed>0.0</speed>
  <fix>3d</fix>
</trkpt>
<trkpt lat="-27.274439" lon="151.290064">
  <ele>343.07</ele>
  <time>2026-09-01T20:03:43Z</time>
  <course>10.71</course>
  <speed>0.0</speed>
  <fix>3d</fix>
</trkpt>
<trkpt lat="-27.274439" lon="151.290064">
  <ele>343.1</ele>
  <time>2026-09-01T20:03:43Z</time>
  <course>244.87</course>
  <speed>0.0</speed>
  <fix>3d</fix>
</trkpt>
<trkpt lat="-27.274439" lon="151.290064">
  <ele>343.07</ele>
  <time>2026-09-01T20:03:43Z</time>
  <course>10.71</course>
  <speed>0.0</speed>
  <fix>3d</fix>
</trkpt>
<trkpt lat="-27.274439" lon="151.290064">
  <ele>343.1</ele>
  <time>2026-09-01T20:03:43Z</time>
  <course>241.3</course>
  <speed>0.0</speed>
  <fix>3d</fix>
</trkpt>
<trkpt lat="-27.274439" lon="151.290064">
  <ele>343.07</ele>
  <time>2026-09-01T20:03:43Z</time>
  <course>10.71</course>
  <speed>0.0</speed>
  <fix>3d</fix>
</trkpt>
<trkpt lat="-27.274439" lon="151.290064">
  <ele>343.1</ele>
  <time>2026-09-01T20:03:43Z</time>
  <course>241.3</course>
  <speed>0.0</speed>
  <fix>3d</fix>
</trkpt>
<trkpt lat="-27.274439" lon="151.290064">
  <ele>343.07</ele>
  <time>2026-09-01T20:03:43Z</time>
  <course>10.71</course>
  <speed>0.0</speed>
  <fix>3d</fix>
</trkpt>
<trkpt lat="-27.274439" lon="151.290064">
  <ele>343.07</ele>
  <time>2026-09-01T20:03:43Z</time>
  <course>10.71</course>
  <speed>0.0</speed>
  <fix>3d</fix>
</trkpt>
<trkpt lat="-27.274439" lon="151.290064">
  <ele>343.1</ele>
  <time>2026-09-01T20:03:43Z</time>
  <course>2.92</course>
  <speed>0.0</speed>
  <fix>3d</fix>
</trkpt>
<trkpt lat="-27.274439" lon="151.290064">
  <ele>343.07</ele>
  <time>2026-09-01T20:03:43Z</time>
  <course>10.71</course>
  <speed>0.0</speed>
  <fix>3d</fix>
</trkpt>
<trkpt lat="-27.274439" lon="151.290064">
  <ele>343.09</ele>
  <time>2026-09-01T20:03:43Z</time>
  <course>10.71</course>
  <speed>0.0</speed>
  <fix>3d</fix>
</trkpt>
<trkpt lat="-27.274439" lon="151.290064">
  <ele>343.1</ele>
  <time>2026-09-01T20:03:43Z</time>
  <course>2.92</course>
  <speed>0.0</speed>
  <fix>3d</fix>
</trkpt>
<trkpt lat="-27.274439" lon="151.290064">
  <ele>343.09</ele>
  <time>2026-09-01T20:03:43Z</time>
  <course>10.71</course>
  <speed>0.0</speed>
  <fix>3d</fix>
</trkpt>
<trkpt lat="-27.274439" lon="151.290064">
  <ele>343.12</ele>
  <time>2026-09-01T20:03:43Z</time>
  <course>10.71</course>
  <speed>0.0</speed>
  <fix>3d</fix>
</trkpt>
<trkpt lat="-27.274439" lon="151.290064">
  <ele>343.1</ele>
  <time>2026-09-01T20:03:43Z</time>
  <course>7.98</course>
  <speed>0.0</speed>
  <fix>3d</fix>
</trkpt>
<trkpt lat="-27.274439" lon="151.290064">
  <ele>343.13</ele>
  <time>2026-09-01T20:03:43Z</time>
  <course>10.71</course>
  <speed>0.0</speed>
  <fix>3d</fix>
</trkpt>
<trkpt lat="-27.274439" lon="151.290064">
  <ele>343.17</ele>
  <time>2026-09-01T20:03:43Z</time>
  <course>10.71</course>
  <speed>0.0</speed>
  <fix>3d</fix>
</trkpt>
<trkpt lat="-27.274439" lon="151.290064">
  <ele>343.1</ele>
  <time>2026-09-01T20:03:43Z</time>
  <course>7.98</course>
  <speed>0.0</speed>
  <fix>3d</fix>
</trkpt>
<trkpt lat="-27.274439" lon="151.290064">
  <ele>343.19</ele>
  <time>2026-09-01T20:03:43Z</time>
  <course>10.71</course>
  <speed>0.0</speed>
  <fix>3d</fix>
</trkpt>
<trkpt lat="-27.274439" lon="151.290064">
  <ele>343.24</ele>
  <time>2026-09-01T20:03:43Z</time>
  <course>10.71</course>
  <speed>0.01</speed>
  <fix>3d</fix>
</trkpt>
<trkpt lat="-27.274439" lon="151.290064">
  <ele>343.15</ele>
  <time>2026-09-01T20:03:43Z</time>
  <course>7.96</course>
  <speed>0.0</speed>
  <fix>3d</fix>
</trkpt>
<trkpt lat="-27.274439" lon="151.290064">
  <ele>343.27</ele>
  <time>2026-09-01T20:03:43Z</time>
  <course>10.71</course>
  <speed>0.01</speed>
  <fix>3d</fix>
</trkpt>
<trkpt lat="-27.274439" lon="151.290064">
  <ele>343.37</ele>
  <time>2026-09-01T20:03:43Z</time>
  <course>10.71</course>
  <speed>0.03</speed>
  <fix>3d</fix>
</trkpt>
<trkpt lat="-27.274439" lon="151.290064">
  <ele>343.15</ele>
  <time>2026-09-01T20:03:43Z</time>
  <course>7.96</course>
  <speed>0.0</speed>
  <fix>3d</fix>
</trkpt>
<trkpt lat="-27.274439" lon="151.290064">
  <ele>343.42</ele>
  <time>2026-09-01T20:03:43Z</time>
  <course>10.71</course>
  <speed>0.0412310562561766</speed>
  <fix>3d</fix>
</trkpt>
<trkpt lat="-27.274439" lon="151.290064">
  <ele>343.57</ele>
  <time>2026-09-01T20:03:43Z</time>
  <course>10.71</course>
  <speed>0.07071067811865475</speed>
  <fix>3d</fix>
</trkpt>
<trkpt lat="-27.274439" lon="151.290064">
  <ele>343.28</ele>
  <time>2026-09-01T20:03:43Z</time>
  <course>8.12</course>
  <speed>0.02</speed>
  <fix>3d</fix>
</trkpt>
<trkpt lat="-27.2744389" lon="151.290064">
  <ele>343.65</ele>
  <time>2026-09-01T20:03:43Z</time>
  <course>10.71</course>
  <speed>0.08062257748298549</speed>
  <fix>3d</fix>
</trkpt>
<trkpt lat="-27.2744389" lon="151.290064">
  <ele>343.81</ele>
  <time>2026-09-01T20:03:43Z</time>
  <course>10.71</course>
  <speed>0.1118033988749895</speed>
  <fix>3d</fix>
</trkpt>
<trkpt lat="-27.274439" lon="151.290064">
  <ele>343.28</ele>
  <time>2026-09-01T20:03:43Z</time>
  <course>8.12</course>
  <speed>0.02</speed>
  <fix>3d</fix>
</trkpt>
<trkpt lat="-27.2744389" lon="151.290064">
  <ele>343.88</ele>
  <time>2026-09-01T20:03:43Z</time>
  <course>10.71</course>
  <speed>0.12165525060596438</speed>
  <fix>3d</fix>
</trkpt>
<trkpt lat="-27.2744388" lon="151.290064">
  <ele>344.06</ele>
  <time>2026-09-01T20:03:43Z</time>
  <course>10.71</course>
  <speed>0.15132745950421556</speed>
  <fix>3d</fix>
</trkpt>
<trkpt lat="-27.274439" lon="151.290064">
  <ele>343.59</ele>
  <time>2026-09-01T20:03:43Z</time>
  <course>8.0</course>
  <speed>0.07</speed>
  <fix>3d</fix>
</trkpt>
<trkpt lat="-27.2744387" lon="151.290064">
  <ele>344.14</ele>
  <time>2026-09-01T20:03:43Z</time>
  <course>10.71</course>
  <speed>0.16278820596099705</speed>
  <fix>3d</fix>
</trkpt>
<trkpt lat="-27.2744386" lon="151.290064">
  <ele>344.33</ele>
  <time>2026-09-01T20:03:43Z</time>
  <course>10.71</course>
  <speed>0.1824828759089466</speed>
  <fix>3d</fix>
</trkpt>
<trkpt lat="-27.274439" lon="151.290064">
  <ele>343.59</ele>
  <time>2026-09-01T20:03:43Z</time>
  <course>8.0</course>
  <speed>0.07</speed>
  <fix>3d</fix>
</trkpt>
<trkpt lat="-27.2744386" lon="151.2900641">
  <ele>344.4</ele>
  <time>2026-09-01T20:03:43Z</time>
  <course>10.71</course>
  <speed>0.19235384061671343</speed>
  <fix>3d</fix>
</trkpt>
<trkpt lat="-27.2744384" lon="151.2900641">
  <ele>344.6</ele>
  <time>2026-09-01T20:03:43Z</time>
  <course>10.71</course>
  <speed>0.223606797749979</speed>
  <fix>3d</fix>
</trkpt>
<trkpt lat="-27.2744388" lon="151.290064">
  <ele>344.07</ele>
  <time>2026-09-01T20:03:43Z</time>
  <course>7.92</course>
  <speed>0.15</speed>
  <fix>3d</fix>
</trkpt>
<trkpt lat="-27.2744384" lon="151.2900641">
  <ele>344.61</ele>
  <time>2026-09-01T20:03:43Z</time>
  <course>10.71</course>
  <speed>0.223606797749979</speed>
  <fix>3d</fix>
</trkpt>
<trkpt lat="-27.2744382" lon="151.2900641">
  <ele>344.89</ele>
  <time>2026-09-01T20:03:43Z</time>
  <course>10.71</course>
  <speed>0.26305892875931813</speed>
  <fix>3d</fix>
</trkpt>
<trkpt lat="-27.2744388" lon="151.290064">
  <ele>344.07</ele>
  <time>2026-09-01T20:03:43Z</time>
  <course>7.92</course>
  <speed>0.15</speed>
  <fix>3d</fix>
</trkpt>
<trkpt lat="-27.2744382" lon="151.2900641">
  <ele>344.92</ele>
  <time>2026-09-01T20:03:43Z</time>
  <course>10.71</course>
  <speed>0.26305892875931813</speed>
  <fix>3d</fix>
</trkpt>
<trkpt lat="-27.274438" lon="151.2900641">
  <ele>345.19</ele>
  <time>2026-09-01T20:03:43Z</time>
  <course>10.71</course>
  <speed>0.2942787793912432</speed>
  <fix>3d</fix>
</trkpt>
<trkpt lat="-27.2744385" lon="151.290064">
  <ele>344.62</ele>
  <time>2026-09-01T20:03:43Z</time>
  <course>7.92</course>
  <speed>0.23</speed>
  <fix>3d</fix>
</trkpt>
<trkpt lat="-27.2744379" lon="151.2900642">
  <ele>345.27</ele>
  <time>2026-09-01T20:03:43Z</time>
  <course>10.71</course>
  <speed>0.304138126514911</speed>
  <fix>3d</fix>
</trkpt>
<trkpt lat="-27.2744377" lon="151.2900642">
  <ele>345.5</ele>
  <time>2026-09-01T20:03:43Z</time>
  <course>10.71</course>
  <speed>0.3238826948140329</speed>
  <fix>3d</fix>
</trkpt>
<trkpt lat="-27.2744385" lon="151.290064">
  <ele>344.62</ele>
  <time>2026-09-01T20:03:43Z</time>
  <course>7.92</course>
  <speed>0.23</speed>
  <fix>3d</fix>
</trkpt>
<trkpt lat="-27.2744376" lon="151.2900642">
  <ele>345.59</ele>
  <time>2026-09-01T20:03:43Z</time>
  <course>10.71</course>
  <speed>0.33541019662496846</speed>
  <fix>3d</fix>
</trkpt>
<trkpt lat="-27.2744374" lon="151.2900642">
  <ele>345.82</ele>
  <time>2026-09-01T20:03:43Z</time>
  <course>10.71</course>
  <speed>0.35510561809129404</speed>
  <fix>3d</fix>
</trkpt>
<trkpt lat="-27.274438" lon="151.2900641">
  <ele>345.22</ele>
  <time>2026-09-01T20:03:43Z</time>
  <course>7.99</course>
  <speed>0.3</speed>
  <fix>3d</fix>
</trkpt>
<trkpt lat="-27.2744373" lon="151.2900643">
  <ele>345.92</ele>
  <time>2026-09-01T20:03:43Z</time>
  <course>10.7</course>
  <speed>0.35510561809129404</speed>
  <fix>3d</fix>
</trkpt>
<trkpt lat="-27.2744371" lon="151.2900643">
  <ele>346.13</ele>
  <time>2026-09-01T20:03:43Z</time>
  <course>10.7</course>
  <speed>0.37483329627982626</speed>
  <fix>3d</fix>
</trkpt>
<trkpt lat="-27.274438" lon="151.2900641">
  <ele>345.22</ele>
  <time>2026-09-01T20:03:43Z</time>
  <course>7.99</course>
  <speed>0.3</speed>
  <fix>3d</fix>
</trkpt>
<trkpt lat="-27.274437" lon="151.2900643">
  <ele>346.2</ele>
  <time>2026-09-01T20:03:43Z</time>
  <course>10.7</course>
  <speed>0.37483329627982626</speed>
  <fix>3d</fix>
</trkpt>
<trkpt lat="-27.2744368" lon="151.2900643">
  <ele>346.45</ele>
  <time>2026-09-01T20:03:43Z</time>
  <course>10.7</course>
  <speed>0.3945883931389772</speed>
  <fix>3d</fix>
</trkpt>
<trkpt lat="-27.2744374" lon="151.2900642">
  <ele>345.84</ele>
  <time>2026-09-01T20:03:43Z</time>
  <course>8.11</course>
  <speed>0.36</speed>
  <fix>3d</fix>
</trkpt>
<trkpt lat="-27.2744367" lon="151.2900644">
  <ele>346.53</ele>
  <time>2026-09-01T20:03:43Z</time>
  <course>10.7</course>
  <speed>0.3945883931389772</speed>
  <fix>3d</fix>
</trkpt>
<trkpt lat="-27.2744364" lon="151.2900644">
  <ele>346.76</ele>
  <time>2026-09-01T20:03:43Z</time>
  <course>10.69</course>
  <speed>0.40607881008493907</speed>
  <fix>3d</fix>
</trkpt>
<trkpt lat="-27.2744374" lon="151.2900642">
  <ele>345.84</ele>
  <time>2026-09-01T20:03:43Z</time>
  <course>8.11</course>
  <speed>0.36</speed>
  <fix>3d</fix>
</trkpt>
<trkpt lat="-27.2744363" lon="151.2900644">
  <ele>346.84</ele>
  <time>2026-09-01T20:03:43Z</time>
  <course>10.69</course>
  <speed>0.40607881008493907</speed>
  <fix>3d</fix>
</trkpt>
<trkpt lat="-27.2744361" lon="151.2900645">
  <ele>347.07</ele>
  <time>2026-09-01T20:03:43Z</time>
  <course>10.69</course>
  <speed>0.4159326868617084</speed>
  <fix>3d</fix>
</trkpt>
<trkpt lat="-27.2744367" lon="151.2900643">
  <ele>346.47</ele>
  <time>2026-09-01T20:03:43Z</time>
  <course>8.28</course>
  <speed>0.4</speed>
  <fix>3d</fix>
</trkpt>
<trkpt lat="-27.2744359" lon="151.2900645">
  <ele>347.17</ele>
  <time>2026-09-01T20:03:43Z</time>
  <course>10.69</course>
  <speed>0.4159326868617084</speed>
  <fix>3d</fix>
</trkpt>
<trkpt lat="-27.2744357" lon="151.2900645">
  <ele>347.37</ele>
  <time>2026-09-01T20:03:43Z</time>
  <course>10.69</course>
  <speed>0.4159326868617084</speed>
  <fix>3d</fix>
</trkpt>
<trkpt lat="-27.2744367" lon="151.2900643">
  <ele>346.47</ele>
  <time>2026-09-01T20:03:43Z</time>
  <course>8.28</course>
  <speed>0.4</speed>
  <fix>3d</fix>
</trkpt>
<trkpt lat="-27.2744357" lon="151.2900645">
  <ele>347.38</ele>
  <time>2026-09-01T20:03:43Z</time>
  <course>10.69</course>
  <speed>0.4159326868617084</speed>
  <fix>3d</fix>
</trkpt>
<trkpt lat="-27.2744353" lon="151.2900646">
  <ele>347.67</ele>
  <time>2026-09-01T20:03:43Z</time>
  <course>10.7</course>
  <speed>0.40607881008493907</speed>
  <fix>3d</fix>
</trkpt>
<trkpt lat="-27.274436" lon="151.2900644">
  <ele>347.1</ele>
  <time>2026-09-01T20:03:43Z</time>
  <course>8.51</course>
  <speed>0.42</speed>
  <fix>3d</fix>
</trkpt>
<trkpt lat="-27.2744352" lon="151.2900646">
  <ele>347.75</ele>
  <time>2026-09-01T20:03:43Z</time>
  <course>10.7</course>
  <speed>0.40607881008493907</speed>
  <fix>3d</fix>
</trkpt>
<trkpt lat="-27.274435" lon="151.2900646">
  <ele>347.97</ele>
  <time>2026-09-01T20:03:43Z</time>
  <course>10.7</course>
  <speed>0.3945883931389772</speed>
  <fix>3d</fix>
</trkpt>
<trkpt lat="-27.274436" lon="151.2900644">
  <ele>347.1</ele>
  <time>2026-09-01T20:03:43Z</time>
  <course>8.51</course>
  <speed>0.42</speed>
  <fix>3d</fix>
</trkpt>
<trkpt lat="-27.2744349" lon="151.2900646">
  <ele>347.98</ele>
  <time>2026-09-01T20:03:43Z</time>
  <course>10.7</course>
  <speed>0.3945883931389772</speed>
  <fix>3d</fix>
</trkpt>
<trkpt lat="-27.2744346" lon="151.2900647">
  <ele>348.25</ele>
  <time>2026-09-01T20:03:43Z</time>
  <course>10.71</course>
  <speed>0.38470768123342686</speed>
  <fix>3d</fix>
</trkpt>
<trkpt lat="-27.2744352" lon="151.2900645">
  <ele>347.7</ele>
  <time>2026-09-01T20:03:43Z</time>
  <course>8.81</course>
  <speed>0.42</speed>
  <fix>3d</fix>
</trkpt>
<trkpt lat="-27.2744346" lon="151.2900647">
  <ele>348.26</ele>
  <time>2026-09-01T20:03:43Z</time>
  <course>10.71</course>
  <speed>0.38470768123342686</speed>
  <fix>3d</fix>
</trkpt>
<trkpt lat="-27.2744343" lon="151.2900647">
  <ele>348.53</ele>
  <time>2026-09-01T20:03:43Z</time>
  <course>10.72</course>
  <speed>0.37483329627982626</speed>
  <fix>3d</fix>
</trkpt>
<trkpt lat="-27.2744352" lon="151.2900645">
  <ele>347.7</ele>
  <time>2026-09-01T20:03:43Z</time>
  <course>8.81</course>
  <speed>0.42</speed>
  <fix>3d</fix>
</trkpt>
<trkpt lat="-27.2744341" lon="151.2900647">
  <ele>348.61</ele>
  <time>2026-09-01T20:03:43Z</time>
  <course>10.72</course>
  <speed>0.3649657518178932</speed>
  <fix>3d</fix>
</trkpt>
<trkpt lat="-27.2744339" lon="151.2900648">
  <ele>348.81</ele>
  <time>2026-09-01T20:03:43Z</time>
  <course>10.73</course>
  <speed>0.3535533905932738</speed>
  <fix>3d</fix>
</trkpt>
<trkpt lat="-27.2744344" lon="151.2900646">
  <ele>348.27</ele>
  <time>2026-09-01T20:03:43Z</time>
  <course>9.23</course>
  <speed>0.4</speed>
  <fix>3d</fix>
</trkpt>
<trkpt lat="-27.2744338" lon="151.2900648">
  <ele>348.89</ele>
  <time>2026-09-01T20:03:43Z</time>
  <course>10.73</course>
  <speed>0.34365680554879163</speed>
  <fix>3d</fix>
</trkpt>
<trkpt lat="-27.2744336" lon="151.2900648">
  <ele>349.07</ele>
  <time>2026-09-01T20:03:43Z</time>
  <course>10.74</course>
  <speed>0.3238826948140329</speed>
  <fix>3d</fix>
</trkpt>
<trkpt lat="-27.2744344" lon="151.2900646">
  <ele>348.27</ele>
  <time>2026-09-01T20:03:43Z</time>
  <course>9.23</course>
  <speed>0.4</speed>
  <fix>3d</fix>
</trkpt>
<trkpt lat="-27.2744335" lon="151.2900648">
  <ele>349.14</ele>
  <time>2026-09-01T20:03:43Z</time>
  <course>10.74</course>
  <speed>0.3238826948140329</speed>
  <fix>3d</fix>
</trkpt>
<trkpt lat="-27.2744333" lon="151.2900649">
  <ele>349.33</ele>
  <time>2026-09-01T20:03:43Z</time>
  <course>10.75</course>
  <speed>0.3026549190084311</speed>
  <fix>3d</fix>
</trkpt>
<trkpt lat="-27.2744338" lon="151.2900648">
  <ele>348.82</ele>
  <time>2026-09-01T20:03:43Z</time>
  <course>9.83</course>
  <speed>0.36</speed>
  <fix>3d</fix>
</trkpt>
<trkpt lat="-27.2744332" lon="151.2900649">
  <ele>349.39</ele>
  <time>2026-09-01T20:03:43Z</time>
  <course>10.75</course>
  <speed>0.29274562336608895</speed>
  <fix>3d</fix>
</trkpt>
<trkpt lat="-27.274433" lon="151.2900649">
  <ele>349.59</ele>
  <time>2026-09-01T20:03:43Z</time>
  <course>10.76</course>
  <speed>0.27294688127912364</speed>
  <fix>3d</fix>
</trkpt>
<trkpt lat="-27.2744338" lon="151.2900648">
  <ele>348.82</ele>
  <time>2026-09-01T20:03:43Z</time>
  <course>9.83</course>
  <speed>0.36</speed>
  <fix>3d</fix>
</trkpt>
<trkpt lat="-27.274433" lon="151.2900649">
  <ele>349.66</ele>
  <time>2026-09-01T20:03:43Z</time>
  <course>10.76</course>
  <speed>0.26305892875931813</speed>
  <fix>3d</fix>
</trkpt>
<trkpt lat="-27.2744328" lon="151.290065">
  <ele>349.84</ele>
  <time>2026-09-01T20:03:43Z</time>
  <course>10.77</course>
  <speed>0.23345235059857505</speed>
  <fix>3d</fix>
</trkpt>
<trkpt lat="-27.2744332" lon="151.2900649">
  <ele>349.34</ele>
  <time>2026-09-01T20:03:43Z</time>
  <course>10.76</course>
  <speed>0.31</speed>
  <fix>3d</fix>
</trkpt>
<trkpt lat="-27.2744327" lon="151.290065">
  <ele>349.91</ele>
  <time>2026-09-01T20:03:43Z</time>
  <course>10.77</course>
  <speed>0.23194827009486402</speed>
  <fix>3d</fix>
</trkpt>
<trkpt lat="-27.2744326" lon="151.290065">
  <ele>350.09</ele>
  <time>2026-09-01T20:03:43Z</time>
  <course>10.78</course>
  <speed>0.20223748416156684</speed>
  <fix>3d</fix>
</trkpt>
<trkpt lat="-27.2744332" lon="151.2900649">
  <ele>349.34</ele>
  <time>2026-09-01T20:03:43Z</time>
  <course>10.76</course>
  <speed>0.31</speed>
  <fix>3d</fix>
</trkpt>
<trkpt lat="-27.2744325" lon="151.290065">
  <ele>350.15</ele>
  <time>2026-09-01T20:03:43Z</time>
  <course>10.78</course>
  <speed>0.19235384061671343</speed>
  <fix>3d</fix>
</trkpt>
<trkpt lat="-27.2744324" lon="151.290065">
  <ele>350.34</ele>
  <time>2026-09-01T20:03:43Z</time>
  <course>10.79</course>
  <speed>0.17262676501632068</speed>
  <fix>3d</fix>
</trkpt>
<trkpt lat="-27.2744327" lon="151.290065">
  <ele>349.85</ele>
  <time>2026-09-01T20:03:43Z</time>
  <course>12.27</course>
  <speed>0.25</speed>
  <fix>3d</fix>
</trkpt>
<trkpt lat="-27.2744324" lon="151.290065">
  <ele>350.41</ele>
  <time>2026-09-01T20:03:43Z</time>
  <course>10.79</course>
  <speed>0.16278820596099705</speed>
  <fix>3d</fix>
</trkpt>
<trkpt lat="-27.2744323" lon="151.2900651">
  <ele>350.58</ele>
  <time>2026-09-01T20:03:43Z</time>
  <course>10.8</course>
  <speed>0.1414213562373095</speed>
  <fix>3d</fix>
</trkpt>
<trkpt lat="-27.2744327" lon="151.290065">
  <ele>349.85</ele>
  <time>2026-09-01T20:03:43Z</time>
  <course>12.27</course>
  <speed>0.25</speed>
  <fix>3d</fix>
</trkpt>
<trkpt lat="-27.2744322" lon="151.2900651">
  <ele>350.67</ele>
  <time>2026-09-01T20:03:43Z</time>
  <course>10.81</course>
  <speed>0.12165525060596438</speed>
  <fix>3d</fix>
</trkpt>
<trkpt lat="-27.2744321" lon="151.2900651">
  <ele>350.83</ele>
  <time>2026-09-01T20:03:43Z</time>
  <course>10.82</course>
  <speed>0.1019803902718557</speed>
  <fix>3d</fix>
</trkpt>
<trkpt lat="-27.2744323" lon="151.2900651">
  <ele>350.34</ele>
  <time>2026-09-01T20:03:43Z</time>
  <course>14.78</course>
  <speed>0.18</speed>
  <fix>3d</fix>
</trkpt>
<trkpt lat="-27.2744321" lon="151.2900651">
  <ele>350.85</ele>
  <time>2026-09-01T20:03:43Z</time>
  <course>10.82</course>
  <speed>0.1019803902718557</speed>
  <fix>3d</fix>
</trkpt>
<trkpt lat="-27.274432" lon="151.2900651">
  <ele>351.08</ele>
  <time>2026-09-01T20:03:43Z</time>
  <course>10.84</course>
  <speed>0.07071067811865475</speed>
  <fix>3d</fix>
</trkpt>
<trkpt lat="-27.2744323" lon="151.2900651">
  <ele>350.34</ele>
  <time>2026-09-01T20:03:43Z</time>
  <course>14.78</course>
  <speed>0.18</speed>
  <fix>3d</fix>
</trkpt>
<trkpt lat="-27.274432" lon="151.2900651">
  <ele>351.09</ele>
  <time>2026-09-01T20:03:43Z</time>
  <course>10.84</course>
  <speed>0.07071067811865475</speed>
  <fix>3d</fix>
</trkpt>
<trkpt lat="-27.274432" lon="151.2900652">
  <ele>351.32</ele>
  <time>2026-09-01T20:03:43Z</time>
  <course>10.86</course>
  <speed>0.0412310562561766</speed>
  <fix>3d</fix>
</trkpt>
<trkpt lat="-27.274432" lon="151.2900652">
  <ele>350.82</ele>
  <time>2026-09-01T20:03:43Z</time>
  <course>19.73</course>
  <speed>0.11</speed>
  <fix>3d</fix>
</trkpt>
<trkpt lat="-27.274432" lon="151.2900652">
  <ele>351.37</ele>
  <time>2026-09-01T20:03:43Z</time>
  <course>10.86</course>
  <speed>0.0316227766016838</speed>
  <fix>3d</fix>
</trkpt>
<trkpt lat="-27.274432" lon="151.2900652">
  <ele>351.57</ele>
  <time>2026-09-01T20:03:43Z</time>
  <course>10.89</course>
  <speed>0.01</speed>
  <fix>3d</fix>
</trkpt>
<trkpt lat="-27.274432" lon="151.2900652">
  <ele>350.82</ele>
  <time>2026-09-01T20:03:43Z</time>
  <course>19.73</course>
  <speed>0.11</speed>
  <fix>3d</fix>
</trkpt>
<trkpt lat="-27.2744319" lon="151.2900652">
  <ele>351.64</ele>
  <time>2026-09-01T20:03:43Z</time>
  <course>10.9</course>
  <speed>0.0</speed>
  <fix>3d</fix>
</trkpt>
<trkpt lat="-27.2744319" lon="151.2900652">
  <ele>351.81</ele>
  <time>2026-09-01T20:03:43Z</time>
  <course>10.92</course>
  <speed>0.01</speed>
  <fix>3d</fix>
</trkpt>
<trkpt lat="-27.2744318" lon="151.2900653">
  <ele>351.3</ele>
  <time>2026-09-01T20:03:43Z</time>
  <course>34.64</course>
  <speed>0.05</speed>
  <fix>3d</fix>
</trkpt>
<trkpt lat="-27.2744319" lon="151.2900652">
  <ele>351.88</ele>
  <time>2026-09-01T20:03:43Z</time>
  <course>10.92</course>
  <speed>0.02</speed>
  <fix>3d</fix>
</trkpt>
<trkpt lat="-27.274432" lon="151.2900652">
  <ele>352.05</ele>
  <time>2026-09-01T20:03:43Z</time>
  <course>10.95</course>
  <speed>0.04</speed>
  <fix>3d</fix>
</trkpt>
<trkpt lat="-27.2744318" lon="151.2900653">
  <ele>351.3</ele>
  <time>2026-09-01T20:03:43Z</time>
  <course>34.64</course>
  <speed>0.05</speed>
  <fix>3d</fix>
</trkpt>
<trkpt lat="-27.274432" lon="151.2900652">
  <ele>352.12</ele>
  <time>2026-09-01T20:03:43Z</time>
  <course>10.96</course>
  <speed>0.04</speed>
  <fix>3d</fix>
</trkpt>
<trkpt lat="-27.274432" lon="151.2900652">
  <ele>352.29</ele>
  <time>2026-09-01T20:03:43Z</time>
  <course>10.99</course>
  <speed>0.06</speed>
  <fix>3d</fix>
</trkpt>
<trkpt lat="-27.2744318" lon="151.2900654">
  <ele>351.77</ele>
  <time>2026-09-01T20:03:43Z</time>
  <course>125.29</course>
  <speed>0.02</speed>
  <fix>3d</fix>
</trkpt>
<trkpt lat="-27.274432" lon="151.2900652">
  <ele>352.36</ele>
  <time>2026-09-01T20:03:43Z</time>
  <course>11.0</course>
  <speed>0.07</speed>
  <fix>3d</fix>
</trkpt>
<trkpt lat="-27.274432" lon="151.2900652">
  <ele>352.54</ele>
  <time>2026-09-01T20:03:43Z</time>
  <course>11.03</course>
  <speed>0.08062257748298549</speed>
  <fix>3d</fix>
</trkpt>
<trkpt lat="-27.2744318" lon="151.2900654">
  <ele>351.77</ele>
  <time>2026-09-01T20:03:43Z</time>
  <course>125.29</course>
  <speed>0.02</speed>
  <fix>3d</fix>
</trkpt>
<trkpt lat="-27.2744321" lon="151.2900652">
  <ele>352.61</ele>
  <time>2026-09-01T20:03:43Z</time>
  <course>11.04</course>
  <speed>0.09055385138137417</speed>
  <fix>3d</fix>
</trkpt>
<trkpt lat="-27.2744321" lon="151.2900652">
  <ele>352.78</ele>
  <time>2026-09-01T20:03:43Z</time>
  <course>11.07</course>
  <speed>0.1004987562112089</speed>
  <fix>3d</fix>
</trkpt>
<trkpt lat="-27.2744319" lon="151.2900654">
  <ele>352.25</ele>
  <time>2026-09-01T20:03:43Z</time>
  <course>170.82</course>
  <speed>0.06</speed>
  <fix>3d</fix>
</trkpt>
<trkpt lat="-27.2744322" lon="151.2900652">
  <ele>352.85</ele>
  <time>2026-09-01T20:03:43Z</time>
  <course>11.08</course>
  <speed>0.11045361017187261</speed>
  <fix>3d</fix>
</trkpt>
<trkpt lat="-27.2744321" lon="151.2900653">
  <ele>353.03</ele>
  <time>2026-09-01T20:03:43Z</time>
  <course>11.11</course>
  <speed>0.12165525060596438</speed>
  <fix>3d</fix>
</trkpt>
<trkpt lat="-27.2744319" lon="151.2900654">
  <ele>352.25</ele>
  <time>2026-09-01T20:03:43Z</time>
  <course>170.82</course>
  <speed>0.06</speed>
  <fix>3d</fix>
</trkpt>
<trkpt lat="-27.2744322" lon="151.2900653">
  <ele>353.08</ele>
  <time>2026-09-01T20:03:43Z</time>
  <course>11.12</course>
  <speed>0.12165525060596438</speed>
  <fix>3d</fix>
</trkpt>
<trkpt lat="-27.2744322" lon="151.2900653">
  <ele>353.27</ele>
  <time>2026-09-01T20:03:43Z</time>
  <course>11.15</course>
  <speed>0.1414213562373095</speed>
  <fix>3d</fix>
</trkpt>
<trkpt lat="-27.274432" lon="151.2900654">
  <ele>352.72</ele>
  <time>2026-09-01T20:03:43Z</time>
  <course>180.01</course>
  <speed>0.11</speed>
  <fix>3d</fix>
</trkpt>
<trkpt lat="-27.2744323" lon="151.2900653">
  <ele>353.35</ele>
  <time>2026-09-01T20:03:43Z</time>
  <course>11.16</course>
  <speed>0.1414213562373095</speed>
  <fix>3d</fix>
</trkpt>
<trkpt lat="-27.2744324" lon="151.2900653">
  <ele>353.52</ele>
  <time>2026-09-01T20:03:43Z</time>
  <course>11.19</course>
  <speed>0.15297058540778355</speed>
  <fix>3d</fix>
</trkpt>
<trkpt lat="-27.274432" lon="151.2900654">
  <ele>352.72</ele>
  <time>2026-09-01T20:03:43Z</time>
  <course>180.01</course>
  <speed>0.11</speed>
  <fix>3d</fix>
</trkpt>
<trkpt lat="-27.2744324" lon="151.2900653">
  <ele>353.52</ele>
  <time>2026-09-01T20:03:43Z</time>
  <course>11.19</course>
  <speed>0.15297058540778355</speed>
  <fix>3d</fix>
</trkpt>
<trkpt lat="-27.2744325" lon="151.2900653">
  <ele>353.76</ele>
  <time>2026-09-01T20:03:43Z</time>
  <course>11.2</course>
  <speed>0.16124515496597097</speed>
  <fix>3d</fix>
</trkpt>
<trkpt lat="-27.2744322" lon="151.2900654">
  <ele>353.21</ele>
  <time>2026-09-01T20:03:43Z</time>
  <course>184.35</course>
  <speed>0.15</speed>
  <fix>3d</fix>
</trkpt>
<trkpt lat="-27.2744325" lon="151.2900653">
  <ele>353.77</ele>
  <time>2026-09-01T20:03:43Z</time>
  <course>11.2</course>
  <speed>0.16124515496597097</speed>
  <fix>3d</fix>
</trkpt>
<trkpt lat="-27.2744327" lon="151.2900653">
  <ele>354.02</ele>
  <time>2026-09-01T20:03:43Z</time>
  <course>11.17</course>
  <speed>0.18027756377319945</speed>
  <fix>3d</fix>
</trkpt>
<trkpt lat="-27.2744322" lon="151.2900654">
  <ele>353.21</ele>
  <time>2026-09-01T20:03:43Z</time>
  <course>184.35</course>
  <speed>0.15</speed>
  <fix>3d</fix>
</trkpt>
<trkpt lat="-27.2744327" lon="151.2900653">
  <ele>354.08</ele>
  <time>2026-09-01T20:03:43Z</time>
  <course>11.16</course>
  <speed>0.18027756377319945</speed>
  <fix>3d</fix>
</trkpt>
<trkpt lat="-27.2744328" lon="151.2900653">
  <ele>354.27</ele>
  <time>2026-09-01T20:03:43Z</time>
  <course>11.13</course>
  <speed>0.191049731745428</speed>
  <fix>3d</fix>
</trkpt>
<trkpt lat="-27.2744325" lon="151.2900654">
  <ele>353.7</ele>
  <time>2026-09-01T20:03:43Z</time>
  <course>186.5</course>
  <speed>0.17</speed>
  <fix>3d</fix>
</trkpt>
<trkpt lat="-27.2744328" lon="151.2900653">
  <ele>354.28</ele>
  <time>2026-09-01T20:03:43Z</time>
  <course>11.12</course>
  <speed>0.191049731745428</speed>
  <fix>3d</fix>
</trkpt>
<trkpt lat="-27.274433" lon="151.2900653">
  <ele>354.52</ele>
  <time>2026-09-01T20:03:43Z</time>
  <course>11.06</course>
  <speed>0.2002498439450079</speed>
  <fix>3d</fix>
</trkpt>
<trkpt lat="-27.2744325" lon="151.2900654">
  <ele>353.7</ele>
  <time>2026-09-01T20:03:43Z</time>
  <course>186.5</course>
  <speed>0.17</speed>
  <fix>3d</fix>
</trkpt>
<trkpt lat="-27.274433" lon="151.2900653">
  <ele>354.53</ele>
  <time>2026-09-01T20:03:43Z</time>
  <course>11.06</course>
  <speed>0.2002498439450079</speed>
  <fix>3d</fix>
</trkpt>
<trkpt lat="-27.2744332" lon="151.2900653">
  <ele>354.77</ele>
  <time>2026-09-01T20:03:43Z</time>
  <course>10.99</course>
  <speed>0.2009975124224178</speed>
  <fix>3d</fix>
</trkpt>
<trkpt lat="-27.2744329" lon="151.2900654">
  <ele>354.19</ele>
  <time>2026-09-01T20:03:43Z</time>
  <course>187.38</course>
  <speed>0.2</speed>
  <fix>3d</fix>
</trkpt>
<trkpt lat="-27.2744332" lon="151.2900653">
  <ele>354.78</ele>
  <time>2026-09-01T20:03:43Z</time>
  <course>10.99</course>
  <speed>0.2009975124224178</speed>
  <fix>3d</fix>
</trkpt>
<trkpt lat="-27.2744334" lon="151.2900653">
  <ele>355.02</ele>
  <time>2026-09-01T20:03:43Z</time>
  <course>10.92</course>
  <speed>0.2009975124224178</speed>
  <fix>3d</fix>
</trkpt>
<trkpt lat="-27.2744329" lon="151.2900654">
  <ele>354.19</ele>
  <time>2026-09-01T20:03:43Z</time>
  <course>187.38</course>
  <speed>0.2</speed>
  <fix>3d</fix>
</trkpt>
<trkpt lat="-27.2744334" lon="151.2900653">
  <ele>355.09</ele>
  <time>2026-09-01T20:03:43Z</time>
  <course>10.9</course>
  <speed>0.20223748416156684</speed>
  <fix>3d</fix>
</trkpt>
<trkpt lat="-27.2744335" lon="151.2900653">
  <ele>355.27</ele>
  <time>2026-09-01T20:03:43Z</time>
  <course>10.84</course>
  <speed>0.21213203435596426</speed>
  <fix>3d</fix>
</trkpt>
<trkpt lat="-27.2744332" lon="151.2900654">
  <ele>354.68</ele>
  <time>2026-09-01T20:03:43Z</time>
  <course>188.04</course>
  <speed>0.21</speed>
  <fix>3d</fix>
</trkpt>
<trkpt lat="-27.2744336" lon="151.2900653">
  <ele>355.34</ele>
  <time>2026-09-01T20:03:43Z</time>
  <course>10.81</course>
  <speed>0.21377558326431947</speed>
  <fix>3d</fix>
</trkpt>
<trkpt lat="-27.2744337" lon="151.2900652">
  <ele>355.52</ele>
  <time>2026-09-01T20:03:43Z</time>
  <course>10.72</course>
  <speed>0.21377558326431947</speed>
  <fix>3d</fix>
</trkpt>
<trkpt lat="-27.2744332" lon="151.2900654">
  <ele>354.68</ele>
  <time>2026-09-01T20:03:43Z</time>
  <course>188.04</course>
  <speed>0.21</speed>
  <fix>3d</fix>
</trkpt>
<trkpt lat="-27.2744338" lon="151.2900652">
  <ele>355.58</ele>
  <time>2026-09-01T20:03:43Z</time>
  <course>10.69</course>
  <speed>0.21377558326431947</speed>
  <fix>3d</fix>
</trkpt>
<trkpt lat="-27.2744339" lon="151.2900652">
  <ele>355.76</ele>
  <time>2026-09-01T20:03:43Z</time>
  <course>10.62</course>
  <speed>0.215870331449229</speed>
  <fix>3d</fix>
</trkpt>
<trkpt lat="-27.2744336" lon="151.2900653">
  <ele>355.17</ele>
  <time>2026-09-01T20:03:43Z</time>
  <course>187.85</course>
  <speed>0.22</speed>
  <fix>3d</fix>
</trkpt>
<trkpt lat="-27.274434" lon="151.2900652">
  <ele>355.85</ele>
  <time>2026-09-01T20:03:43Z</time>
  <course>10.6</course>
  <speed>0.22135943621178655</speed>
  <fix>3d</fix>
</trkpt>
<trkpt lat="-27.2744341" lon="151.2900651">
  <ele>356.01</ele>
  <time>2026-09-01T20:03:43Z</time>
  <course>10.57</course>
  <speed>0.22472205054244232</speed>
  <fix>3d</fix>
</trkpt>
<trkpt lat="-27.2744336" lon="151.2900653">
  <ele>355.17</ele>
  <time>2026-09-01T20:03:43Z</time>
  <course>187.85</course>
  <speed>0.22</speed>
  <fix>3d</fix>
</trkpt>
<trkpt lat="-27.2744342" lon="151.2900651">
  <ele>356.08</ele>
  <time>2026-09-01T20:03:43Z</time>
  <course>10.55</course>
  <speed>0.22135943621178655</speed>
  <fix>3d</fix>
</trkpt>
<trkpt lat="-27.2744343" lon="151.2900651">
  <ele>356.26</ele>
  <time>2026-09-01T20:03:43Z</time>
  <course>10.51</course>
  <speed>0.22472205054244232</speed>
  <fix>3d</fix>
</trkpt>
<trkpt lat="-27.274434" lon="151.2900652">
  <ele>355.67</ele>
  <time>2026-09-01T20:03:43Z</time>
  <course>187.04</course>
  <speed>0.23</speed>
  <fix>3d</fix>
</trkpt>
<trkpt lat="-27.2744343" lon="151.2900651">
  <ele>356.27</ele>
  <time>2026-09-01T20:03:43Z</time>
  <course>10.51</course>
  <speed>0.22472205054244232</speed>
  <fix>3d</fix>
</trkpt>
<trkpt lat="-27.2744345" lon="151.290065">
  <ele>356.51</ele>
  <time>2026-09-01T20:03:43Z</time>
  <course>10.5</course>
  <speed>0.21840329667841554</speed>
  <fix>3d</fix>
</trkpt>
<trkpt lat="-27.274434" lon="151.2900652">
  <ele>355.67</ele>
  <time>2026-09-01T20:03:43Z</time>
  <course>187.04</course>
  <speed>0.23</speed>
  <fix>3d</fix>
</trkpt>
<trkpt lat="-27.2744345" lon="151.290065">
  <ele>356.52</ele>
  <time>2026-09-01T20:03:43Z</time>
  <course>10.5</course>
  <speed>0.21840329667841554</speed>
  <fix>3d</fix>
</trkpt>
<trkpt lat="-27.2744347" lon="151.290065">
  <ele>356.76</ele>
  <time>2026-09-01T20:03:43Z</time>
  <course>10.55</course>
  <speed>0.21840329667841554</speed>
  <fix>3d</fix>
</trkpt>
<trkpt lat="-27.2744345" lon="151.2900651">
  <ele>356.16</ele>
  <time>2026-09-01T20:03:43Z</time>
  <course>186.24</course>
  <speed>0.23</speed>
  <fix>3d</fix>
</trkpt>
<trkpt lat="-27.2744348" lon="151.290065">
  <ele>356.85</ele>
  <time>2026-09-01T20:03:43Z</time>
  <course>10.59</course>
  <speed>0.22135943621178655</speed>
  <fix>3d</fix>
</trkpt>
<trkpt lat="-27.2744349" lon="151.2900649">
  <ele>357.01</ele>
  <time>2026-09-01T20:03:43Z</time>
  <course>10.68</course>
  <speed>0.21840329667841554</speed>
  <fix>3d</fix>
</trkpt>
<trkpt lat="-27.2744345" lon="151.2900651">
  <ele>356.16</ele>
  <time>2026-09-01T20:03:43Z</time>
  <course>186.24</course>
  <speed>0.23</speed>
  <fix>3d</fix>
</trkpt>
<trkpt lat="-27.274435" lon="151.2900649">
  <ele>357.09</ele>
  <time>2026-09-01T20:03:43Z</time>
  <course>10.73</course>
  <speed>0.21840329667841554</speed>
  <fix>3d</fix>
</trkpt>
<trkpt lat="-27.2744351" lon="151.2900649">
  <ele>357.26</ele>
  <time>2026-09-01T20:03:43Z</time>
  <course>10.84</course>
  <speed>0.21840329667841554</speed>
  <fix>3d</fix>
</trkpt>
<trkpt lat="-27.2744349" lon="151.2900651">
  <ele>356.66</ele>
  <time>2026-09-01T20:03:43Z</time>
  <course>185.91</course>
  <speed>0.23</speed>
  <fix>3d</fix>
</trkpt>
<trkpt lat="-27.2744352" lon="151.2900649">
  <ele>357.32</ele>
  <time>2026-09-01T20:03:43Z</time>
  <course>10.89</course>
  <speed>0.21840329667841554</speed>
  <fix>3d</fix>
</trkpt>
<trkpt lat="-27.2744353" lon="151.2900649">
  <ele>357.5</ele>
  <time>2026-09-01T20:03:43Z</time>
  <course>10.98</course>
  <speed>0.208806130178211</speed>
  <fix>3d</fix>
</trkpt>
<trkpt lat="-27.2744349" lon="151.2900651">
  <ele>356.66</ele>
  <time>2026-09-01T20:03:43Z</time>
  <course>185.91</course>
  <speed>0.23</speed>
  <fix>3d</fix>
</trkpt>
<trkpt lat="-27.2744354" lon="151.2900649">
  <ele>357.56</ele>
  <time>2026-09-01T20:03:43Z</time>
  <course>11.0</course>
  <speed>0.21840329667841554</speed>
  <fix>3d</fix>
</trkpt>
<trkpt lat="-27.2744355" lon="151.2900648">
  <ele>357.75</ele>
  <time>2026-09-01T20:03:43Z</time>
  <course>11.07</course>
  <speed>0.208806130178211</speed>
  <fix>3d</fix>
</trkpt>
<trkpt lat="-27.2744353" lon="151.2900651">
  <ele>357.15</ele>
  <time>2026-09-01T20:03:43Z</time>
  <course>186.33</course>
  <speed>0.22</speed>
  <fix>3d</fix>
</trkpt>
<trkpt lat="-27.2744356" lon="151.2900648">
  <ele>357.83</ele>
  <time>2026-09-01T20:03:43Z</time>
  <course>11.08</course>
  <speed>0.208806130178211</speed>
  <fix>3d</fix>
</trkpt>
<trkpt lat="-27.2744357" lon="151.2900648">
  <ele>358.0</ele>
  <time>2026-09-01T20:03:43Z</time>
  <course>11.1</course>
  <speed>0.208806130178211</speed>
  <fix>3d</fix>
</trkpt>
<trkpt lat="-27.2744353" lon="151.2900651">
  <ele>357.15</ele>
  <time>2026-09-01T20:03:43Z</time>
  <course>186.33</course>
  <speed>0.22</speed>
  <fix>3d</fix>
</trkpt>
<trkpt lat="-27.2744358" lon="151.2900648">
  <ele>358.06</ele>
  <time>2026-09-01T20:03:43Z</time>
  <course>11.1</course>
  <speed>0.20615528128088303</speed>
  <fix>3d</fix>
</trkpt>
<trkpt lat="-27.2744359" lon="151.2900648">
  <ele>358.25</ele>
  <time>2026-09-01T20:03:43Z</time>
  <course>11.09</course>
  <speed>0.20615528128088303</speed>
  <fix>3d</fix>
</trkpt>
<trkpt lat="-27.2744357" lon="151.290065">
  <ele>357.65</ele>
  <time>2026-09-01T20:03:43Z</time>
  <course>186.48</course>
  <speed>0.22</speed>
  <fix>3d</fix>
</trkpt>
<trkpt lat="-27.2744359" lon="151.2900648">
  <ele>358.26</ele>
  <time>2026-09-01T20:03:43Z</time>
  <course>11.09</course>
  <speed>0.20615528128088303</speed>
  <fix>3d</fix>
</trkpt>
<trkpt lat="-27.2744361" lon="151.2900648">
  <ele>358.49</ele>
  <time>2026-09-01T20:03:43Z</time>
  <course>11.07</course>
  <speed>0.196468827043885</speed>
  <fix>3d</fix>
</trkpt>
<trkpt lat="-27.2744357" lon="151.290065">
  <ele>357.65</ele>
  <time>2026-09-01T20:03:43Z</time>
  <course>186.48</course>
  <speed>0.22</speed>
  <fix>3d</fix>
</trkpt>
<trkpt lat="-27.2744362" lon="151.2900648">
  <ele>358.55</ele>
  <time>2026-09-01T20:03:43Z</time>
  <course>11.06</course>
  <speed>0.194164878389476</speed>
  <fix>3d</fix>
</trkpt>
<trkpt lat="-27.2744363" lon="151.2900648">
  <ele>358.74</ele>
  <time>2026-09-01T20:03:43Z</time>
  <course>11.04</course>
  <speed>0.19924858845171275</speed>
  <fix>3d</fix>
</trkpt>
<trkpt lat="-27.2744361" lon="151.290065">
  <ele>358.15</ele>
  <time>2026-09-01T20:03:43Z</time>
  <course>186.49</course>
  <speed>0.21</speed>
  <fix>3d</fix>
</trkpt>
<trkpt lat="-27.2744363" lon="151.2900647">
  <ele>358.8</ele>
  <time>2026-09-01T20:03:43Z</time>
  <course>11.03</course>
  <speed>0.196468827043885</speed>
  <fix>3d</fix>
</trkpt>
<trkpt lat="-27.2744365" lon="151.2900647">
  <ele>358.99</ele>
  <time>2026-09-01T20:03:43Z</time>
  <course>11.0</course>
  <speed>0.18681541692269404</speed>
  <fix>3d</fix>
</trkpt>
<trkpt lat="-27.2744361" lon="151.290065">
  <ele>358.15</ele>
  <time>2026-09-01T20:03:43Z</time>
  <course>186.49</course>
  <speed>0.21</speed>
  <fix>3d</fix>
</trkpt>
<trkpt lat="-27.2744365" lon="151.2900647">
  <ele>359.0</ele>
  <time>2026-09-01T20:03:43Z</time>
  <course>11.0</course>
  <speed>0.194164878389476</speed>
  <fix>3d</fix>
</trkpt>
<trkpt lat="-27.2744367" lon="151.2900647">
  <ele>359.24</ele>
  <time>2026-09-01T20:03:43Z</time>
  <course>10.96</course>
  <speed>0.18439088914585774</speed>
  <fix>3d</fix>
</trkpt>
<trkpt lat="-27.2744364" lon="151.2900649">
  <ele>358.65</ele>
  <time>2026-09-01T20:03:43Z</time>
  <course>186.67</course>
  <speed>0.2</speed>
  <fix>3d</fix>
</trkpt>
<trkpt lat="-27.2744367" lon="151.2900647">
  <ele>359.25</ele>
  <time>2026-09-01T20:03:43Z</time>
  <course>10.96</course>
  <speed>0.18439088914585774</speed>
  <fix>3d</fix>
</trkpt>
<trkpt lat="-27.2744368" lon="151.2900647">
  <ele>359.49</ele>
  <time>2026-09-01T20:03:43Z</time>
  <course>10.93</course>
  <speed>0.18110770276274835</speed>
  <fix>3d</fix>
</trkpt>
<trkpt lat="-27.2744364" lon="151.2900649">
  <ele>358.65</ele>
  <time>2026-09-01T20:03:43Z</time>
  <course>186.67</course>
  <speed>0.2</speed>
  <fix>3d</fix>
</trkpt>
<trkpt lat="-27.2744368" lon="151.2900647">
  <ele>359.5</ele>
  <time>2026-09-01T20:03:43Z</time>
  <course>10.93</course>
  <speed>0.1824828759089466</speed>
  <fix>3d</fix>
</trkpt>
<trkpt lat="-27.274437" lon="151.2900647">
  <ele>359.75</ele>
  <time>2026-09-01T20:03:43Z</time>
  <course>10.91</course>
  <speed>0.17029386365926402</speed>
  <fix>3d</fix>
</trkpt>
<trkpt lat="-27.2744367" lon="151.2900649">
  <ele>359.15</ele>
  <time>2026-09-01T20:03:43Z</time>
  <course>187.31</course>
  <speed>0.19</speed>
  <fix>3d</fix>
</trkpt>
<trkpt lat="-27.274437" lon="151.2900647">
  <ele>359.76</ele>
  <time>2026-09-01T20:03:43Z</time>
  <course>10.91</course>
  <speed>0.18027756377319945</speed>
  <fix>3d</fix>
</trkpt>
<trkpt lat="-27.2744372" lon="151.2900647">
  <ele>360.0</ele>
  <time>2026-09-01T20:03:43Z</time>
  <course>10.88</course>
  <speed>0.17</speed>
  <fix>3d</fix>
</trkpt>
<trkpt lat="-27.2744367" lon="151.2900649">
  <ele>359.15</ele>
  <time>2026-09-01T20:03:43Z</time>
  <course>187.31</course>
  <speed>0.19</speed>
  <fix>3d</fix>
</trkpt>
<trkpt lat="-27.2744372" lon="151.2900647">
  <ele>360.08</ele>
  <time>2026-09-01T20:03:43Z</time>
  <course>10.87</course>
  <speed>0.17029386365926402</speed>
  <fix>3d</fix>
</trkpt>
<trkpt lat="-27.2744373" lon="151.2900647">
  <ele>360.26</ele>
  <time>2026-09-01T20:03:43Z</time>
  <course>10.85</course>
  <speed>0.16</speed>
  <fix>3d</fix>
</trkpt>
<trkpt lat="-27.2744371" lon="151.2900648">
  <ele>359.65</ele>
  <time>2026-09-01T20:03:43Z</time>
  <course>188.43</course>
  <speed>0.18</speed>
  <fix>3d</fix>
</trkpt>
<trkpt lat="-27.2744374" lon="151.2900648">
  <ele>360.35</ele>
  <time>2026-09-01T20:03:43Z</time>
  <course>10.83</course>
  <speed>0.16031219541881397</speed>
  <fix>3d</fix>
</trkpt>
<trkpt lat="-27.2744375" lon="151.2900647">
  <ele>360.51</ele>
  <time>2026-09-01T20:03:43Z</time>
  <course>10.79</course>
  <speed>0.16278820596099705</speed>
  <fix>3d</fix>
</trkpt>
<trkpt lat="-27.2744371" lon="151.2900648">
  <ele>359.65</ele>
  <time>2026-09-01T20:03:43Z</time>
  <course>188.43</course>
  <speed>0.18</speed>
  <fix>3d</fix>
</trkpt>
<trkpt lat="-27.2744375" lon="151.2900647">
  <ele>360.59</ele>
  <time>2026-09-01T20:03:43Z</time>
  <course>10.77</course>
  <speed>0.16124515496597097</speed>
  <fix>3d</fix>
</trkpt>
<trkpt lat="-27.2744376" lon="151.2900647">
  <ele>360.76</ele>
  <time>2026-09-01T20:03:43Z</time>
  <course>10.72</course>
  <speed>0.15033296378372907</speed>
  <fix>3d</fix>
</trkpt>
<trkpt lat="-27.2744374" lon="151.2900647">
  <ele>360.15</ele>
  <time>2026-09-01T20:03:43Z</time>
  <course>189.96</course>
  <speed>0.16</speed>
  <fix>3d</fix>
</trkpt>
<trkpt lat="-27.2744377" lon="151.2900647">
  <ele>360.84</ele>
  <time>2026-09-01T20:03:43Z</time>
  <course>10.7</course>
  <speed>0.15033296378372907</speed>
  <fix>3d</fix>
</trkpt>
<trkpt lat="-27.2744378" lon="151.2900647">
  <ele>361.01</ele>
  <time>2026-09-01T20:03:43Z</time>
  <course>10.63</course>
  <speed>0.15033296378372907</speed>
  <fix>3d</fix>
</trkpt>
<trkpt lat="-27.2744374" lon="151.2900647">
  <ele>360.15</ele>
  <time>2026-09-01T20:03:43Z</time>
  <course>189.96</course>
  <speed>0.16</speed>
  <fix>3d</fix>
</trkpt>
<trkpt lat="-27.2744378" lon="151.2900647">
  <ele>361.1</ele>
  <time>2026-09-01T20:03:43Z</time>
  <course>10.59</course>
  <speed>0.140356688476182</speed>
  <fix>3d</fix>
</trkpt>
<trkpt lat="-27.2744379" lon="151.2900647">
  <ele>361.26</ele>
  <time>2026-09-01T20:03:43Z</time>
  <course>10.47</course>
  <speed>0.140356688476182</speed>
  <fix>3d</fix>
</trkpt>
<trkpt lat="-27.2744377" lon="151.2900647">
  <ele>360.65</ele>
  <time>2026-09-01T20:03:43Z</time>
  <course>192.1</course>
  <speed>0.15</speed>
  <fix>3d</fix>
</trkpt>
<trkpt lat="-27.2744379" lon="151.2900647">
  <ele>361.27</ele>
  <time>2026-09-01T20:03:43Z</time>
  <course>10.47</course>
  <speed>0.140356688476182</speed>
  <fix>3d</fix>
</trkpt>
<trkpt lat="-27.274438" lon="151.2900647">
  <ele>361.51</ele>
  <time>2026-09-01T20:03:43Z</time>
  <course>10.31</course>
  <speed>0.140356688476182</speed>
  <fix>3d</fix>
</trkpt>
<trkpt lat="-27.2744377" lon="151.2900647">
  <ele>360.65</ele>
  <time>2026-09-01T20:03:43Z</time>
  <course>192.1</course>
  <speed>0.15</speed>
  <fix>3d</fix>
</trkpt>
<trkpt lat="-27.2744381" lon="151.2900647">
  <ele>361.59</ele>
  <time>2026-09-01T20:03:43Z</time>
  <course>10.26</course>
  <speed>0.130384048104053</speed>
  <fix>3d</fix>
</trkpt>
<trkpt lat="-27.2744381" lon="151.2900647">
  <ele>361.76</ele>
  <time>2026-09-01T20:03:43Z</time>
  <course>10.16</course>
  <speed>0.130384048104053</speed>
  <fix>3d</fix>
</trkpt>
<trkpt lat="-27.2744379" lon="151.2900646">
  <ele>361.15</ele>
  <time>2026-09-01T20:03:43Z</time>
  <course>193.63</course>
  <speed>0.14</speed>
  <fix>3d</fix>
</trkpt>
<trkpt lat="-27.2744381" lon="151.2900647">
  <ele>361.77</ele>
  <time>2026-09-01T20:03:43Z</time>
  <course>10.16</course>
  <speed>0.130384048104053</speed>
  <fix>3d</fix>
</trkpt>
<trkpt lat="-27.2744382" lon="151.2900647">
  <ele>362.01</ele>
  <time>2026-09-01T20:03:43Z</time>
  <course>10.06</course>
  <speed>0.12041594578792296</speed>
  <fix>3d</fix>
</trkpt>
<trkpt lat="-27.2744379" lon="151.2900646">
  <ele>361.15</ele>
  <time>2026-09-01T20:03:43Z</time>
  <course>193.63</course>
  <speed>0.14</speed>
  <fix>3d</fix>
</trkpt>
<trkpt lat="-27.2744382" lon="151.2900647">
  <ele>362.02</ele>
  <time>2026-09-01T20:03:43Z</time>
  <course>10.06</course>
  <speed>0.12041594578792296</speed>
  <fix>3d</fix>
</trkpt>
<trkpt lat="-27.2744384" lon="151.2900647">
  <ele>362.26</ele>
  <time>2026-09-01T20:03:43Z</time>
  <course>10.01</course>
  <speed>0.12041594578792296</speed>
  <fix>3d</fix>
</trkpt>
<trkpt lat="-27.2744382" lon="151.2900646">
  <ele>361.65</ele>
  <time>2026-09-01T20:03:43Z</time>
  <course>194.65</course>
  <speed>0.12</speed>
  <fix>3d</fix>
</trkpt>
<trkpt lat="-27.2744384" lon="151.2900647">
  <ele>362.34</ele>
  <time>2026-09-01T20:03:43Z</time>
  <course>10.0</course>
  <speed>0.12041594578792296</speed>
  <fix>3d</fix>
</trkpt>
<trkpt lat="-27.2744385" lon="151.2900647">
  <ele>362.51</ele>
  <time>2026-09-01T20:03:43Z</time>
  <course>9.99</course>
  <speed>0.11045361017187261</speed>
  <fix>3d</fix>
</trkpt>
<trkpt lat="-27.2744382" lon="151.2900646">
  <ele>361.65</ele>
  <time>2026-09-01T20:03:43Z</time>
  <course>194.65</course>
  <speed>0.12</speed>
  <fix>3d</fix>
</trkpt>
<trkpt lat="-27.2744385" lon="151.2900647">
  <ele>362.58</ele>
  <time>2026-09-01T20:03:43Z</time>
  <course>10.0</course>
  <speed>0.11045361017187261</speed>
  <fix>3d</fix>
</trkpt>
<trkpt lat="-27.2744386" lon="151.2900647">
  <ele>362.76</ele>
  <time>2026-09-01T20:03:43Z</time>
  <course>10.01</course>
  <speed>0.11045361017187261</speed>
  <fix>3d</fix>
</trkpt>
<trkpt lat="-27.2744385" lon="151.2900645">
  <ele>362.15</ele>
  <time>2026-09-01T20:03:43Z</time>
  <course>196.1</course>
  <speed>0.11</speed>
  <fix>3d</fix>
</trkpt>
<trkpt lat="-27.2744386" lon="151.2900647">
  <ele>362.83</ele>
  <time>2026-09-01T20:03:43Z</time>
  <course>10.02</course>
  <speed>0.11045361017187261</speed>
  <fix>3d</fix>
</trkpt>
<trkpt lat="-27.2744387" lon="151.2900646">
  <ele>363.01</ele>
  <time>2026-09-01T20:03:43Z</time>
  <course>10.04</course>
  <speed>0.1004987562112089</speed>
  <fix>3d</fix>
</trkpt>
<trkpt lat="-27.2744385" lon="151.2900645">
  <ele>362.15</ele>
  <time>2026-09-01T20:03:43Z</time>
  <course>196.1</course>
  <speed>0.11</speed>
  <fix>3d</fix>
</trkpt>
<trkpt lat="-27.2744387" lon="151.2900646">
  <ele>363.09</ele>
  <time>2026-09-01T20:03:43Z</time>
  <course>10.06</course>
  <speed>0.1004987562112089</speed>
  <fix>3d</fix>
</trkpt>
<trkpt lat="-27.2744387" lon="151.2900646">
  <ele>363.26</ele>
  <time>2026-09-01T20:03:43Z</time>
  <course>10.08</course>
  <speed>0.1</speed>
  <fix>3d</fix>
</trkpt>
<trkpt lat="-27.2744386" lon="151.2900644">
  <ele>362.65</ele>
  <time>2026-09-01T20:03:43Z</time>
  <course>198.01</course>
  <speed>0.1</speed>
  <fix>3d</fix>
</trkpt>
<trkpt lat="-27.2744388" lon="151.2900646">
  <ele>363.33</ele>
  <time>2026-09-01T20:03:43Z</time>
  <course>10.08</course>
  <speed>0.09</speed>
  <fix>3d</fix>
</trkpt>
<trkpt lat="-27.2744388" lon="151.2900646">
  <ele>363.51</ele>
  <time>2026-09-01T20:03:43Z</time>
  <course>10.1</course>
  <speed>0.09</speed>
  <fix>3d</fix>
</trkpt>
<trkpt lat="-27.2744386" lon="151.2900644">
  <ele>362.65</ele>
  <time>2026-09-01T20:03:43Z</time>
  <course>198.01</course>
  <speed>0.1</speed>
  <fix>3d</fix>
</trkpt>
<trkpt lat="-27.2744389" lon="151.2900646">
  <ele>363.58</ele>
  <time>2026-09-01T20:03:43Z</time>
  <course>10.11</course>
  <speed>0.09</speed>
  <fix>3d</fix>
</trkpt>
<trkpt lat="-27.2744389" lon="151.2900646">
  <ele>363.76</ele>
  <time>2026-09-01T20:03:43Z</time>
  <course>10.12</course>
  <speed>0.09</speed>
  <fix>3d</fix>
</trkpt>
<trkpt lat="-27.2744388" lon="151.2900644">
  <ele>363.15</ele>
  <time>2026-09-01T20:03:43Z</time>
  <course>200.29</course>
  <speed>0.09</speed>
  <fix>3d</fix>
</trkpt>
<trkpt lat="-27.2744389" lon="151.2900646">
  <ele>363.84</ele>
  <time>2026-09-01T20:03:43Z</time>
  <course>10.13</course>
  <speed>0.08</speed>
  <fix>3d</fix>
</trkpt>
<trkpt lat="-27.274439" lon="151.2900646">
  <ele>364.01</ele>
  <time>2026-09-01T20:03:43Z</time>
  <course>10.14</course>
  <speed>0.08</speed>
  <fix>3d</fix>
</trkpt>
<trkpt lat="-27.2744388" lon="151.2900644">
  <ele>363.15</ele>
  <time>2026-09-01T20:03:43Z</time>
  <course>200.29</course>
  <speed>0.09</speed>
  <fix>3d</fix>
</trkpt>
<trkpt lat="-27.274439" lon="151.2900646">
  <ele>364.1</ele>
  <time>2026-09-01T20:03:43Z</time>
  <course>10.15</course>
  <speed>0.08</speed>
  <fix>3d</fix>
</trkpt>
<trkpt lat="-27.274439" lon="151.2900646">
  <ele>364.26</ele>
  <time>2026-09-01T20:03:43Z</time>
  <course>10.16</course>
  <speed>0.07</speed>
  <fix>3d</fix>
</trkpt>
<trkpt lat="-27.2744389" lon="151.2900643">
  <ele>363.65</ele>
  <time>2026-09-01T20:03:43Z</time>
  <course>202.74</course>
  <speed>0.08</speed>
  <fix>3d</fix>
</trkpt>
<trkpt lat="-27.2744391" lon="151.2900646">
  <ele>364.35</ele>
  <time>2026-09-01T20:03:43Z</time>
  <course>10.17</course>
  <speed>0.07</speed>
  <fix>3d</fix>
</trkpt>
<trkpt lat="-27.2744391" lon="151.2900645">
  <ele>364.51</ele>
  <time>2026-09-01T20:03:43Z</time>
  <course>10.19</course>
  <speed>0.07</speed>
  <fix>3d</fix>
</trkpt>
<trkpt lat="-27.2744389" lon="151.2900643">
  <ele>363.65</ele>
  <time>2026-09-01T20:03:43Z</time>
  <course>202.74</course>
  <speed>0.08</speed>
  <fix>3d</fix>
</trkpt>
<trkpt lat="-27.2744391" lon="151.2900645">
  <ele>364.52</ele>
  <time>2026-09-01T20:03:43Z</time>
  <course>10.19</course>
  <speed>0.07</speed>
  <fix>3d</fix>
</trkpt>
<trkpt lat="-27.2744392" lon="151.2900645">
  <ele>364.76</ele>
  <time>2026-09-01T20:03:43Z</time>
  <course>10.19</course>
  <speed>0.07</speed>
  <fix>3d</fix>
</trkpt>
<trkpt lat="-27.274439" lon="151.2900642">
  <ele>364.14</ele>
  <time>2026-09-01T20:03:43Z</time>
  <course>205.51</course>
  <speed>0.07</speed>
  <fix>3d</fix>
</trkpt>
<trkpt lat="-27.2744392" lon="151.2900645">
  <ele>364.78</ele>
  <time>2026-09-01T20:03:43Z</time>
  <course>10.19</course>
  <speed>0.06</speed>
  <fix>3d</fix>
</trkpt>
<trkpt lat="-27.2744392" lon="151.2900645">
  <ele>365.01</ele>
  <time>2026-09-01T20:03:43Z</time>
  <course>10.19</course>
  <speed>0.06</speed>
  <fix>3d</fix>
</trkpt>
<trkpt lat="-27.274439" lon="151.2900642">
  <ele>364.14</ele>
  <time>2026-09-01T20:03:43Z</time>
  <course>205.51</course>
  <speed>0.07</speed>
  <fix>3d</fix>
</trkpt>
<trkpt lat="-27.2744392" lon="151.2900645">
  <ele>365.08</ele>
  <time>2026-09-01T20:03:43Z</time>
  <course>10.2</course>
  <speed>0.06</speed>
  <fix>3d</fix>
</trkpt>
<trkpt lat="-27.2744393" lon="151.2900644">
  <ele>365.26</ele>
  <time>2026-09-01T20:03:43Z</time>
  <course>10.2</course>
  <speed>0.06</speed>
  <fix>3d</fix>
</trkpt>
<trkpt lat="-27.2744391" lon="151.2900642">
  <ele>364.64</ele>
  <time>2026-09-01T20:03:43Z</time>
  <course>208.0</course>
  <speed>0.06</speed>
  <fix>3d</fix>
</trkpt>
<trkpt lat="-27.2744393" lon="151.2900644">
  <ele>365.33</ele>
  <time>2026-09-01T20:03:43Z</time>
  <course>10.2</course>
  <speed>0.06</speed>
  <fix>3d</fix>
</trkpt>
<trkpt lat="-27.2744393" lon="151.2900644">
  <ele>365.51</ele>
  <time>2026-09-01T20:03:43Z</time>
  <course>10.21</course>
  <speed>0.05</speed>
  <fix>3d</fix>
</trkpt>
<trkpt lat="-27.2744391" lon="151.2900642">
  <ele>364.64</ele>
  <time>2026-09-01T20:03:43Z</time>
  <course>208.0</course>
  <speed>0.06</speed>
  <fix>3d</fix>
</trkpt>
<trkpt lat="-27.2744393" lon="151.2900644">
  <ele>365.59</ele>
  <time>2026-09-01T20:03:43Z</time>
  <course>10.21</course>
  <speed>0.05</speed>
  <fix>3d</fix>
</trkpt>
<trkpt lat="-27.2744393" lon="151.2900644">
  <ele>365.76</ele>
  <time>2026-09-01T20:03:43Z</time>
  <course>10.22</course>
  <speed>0.05</speed>
  <fix>3d</fix>
</trkpt>
<trkpt lat="-27.2744392" lon="151.2900641">
  <ele>365.14</ele>
  <time>2026-09-01T20:03:43Z</time>
  <course>210.77</course>
  <speed>0.05</speed>
  <fix>3d</fix>
</trkpt>
<trkpt lat="-27.2744393" lon="151.2900644">
  <ele>365.83</ele>
  <time>2026-09-01T20:03:43Z</time>
  <course>10.23</course>
  <speed>0.05</speed>
  <fix>3d</fix>
</trkpt>
<trkpt lat="-27.2744394" lon="151.2900643">
  <ele>366.01</ele>
  <time>2026-09-01T20:03:43Z</time>
  <course>10.24</course>
  <speed>0.05</speed>
  <fix>3d</fix>
</trkpt>
<trkpt lat="-27.2744392" lon="151.2900641">
  <ele>365.14</ele>
  <time>2026-09-01T20:03:43Z</time>
  <course>210.77</course>
  <speed>0.05</speed>
  <fix>3d</fix>
</trkpt>
<trkpt lat="-27.2744394" lon="151.2900643">
  <ele>366.08</ele>
  <time>2026-09-01T20:03:43Z</time>
  <course>10.25</course>
  <speed>0.04</speed>
  <fix>3d</fix>
</trkpt>
<trkpt lat="-27.2744394" lon="151.2900643">
  <ele>366.26</ele>
  <time>2026-09-01T20:03:43Z</time>
  <course>10.26</course>
  <speed>0.04</speed>
  <fix>3d</fix>
</trkpt>
<trkpt lat="-27.2744393" lon="151.2900641">
  <ele>365.64</ele>
  <time>2026-09-01T20:03:43Z</time>
  <course>214.47</course>
  <speed>0.04</speed>
  <fix>3d</fix>
</trkpt>
<trkpt lat="-27.2744394" lon="151.2900643">
  <ele>366.33</ele>
  <time>2026-09-01T20:03:43Z</time>
  <course>10.27</course>
  <speed>0.04</speed>
  <fix>3d</fix>
</trkpt>
<trkpt lat="-27.2744394" lon="151.2900643">
  <ele>366.51</ele>
  <time>2026-09-01T20:03:43Z</time>
  <course>10.28</course>
  <speed>0.04</speed>
  <fix>3d</fix>
</trkpt>
<trkpt lat="-27.2744393" lon="151.2900641">
  <ele>365.64</ele>
  <time>2026-09-01T20:03:43Z</time>
  <course>214.47</course>
  <speed>0.04</speed>
  <fix>3d</fix>
</trkpt>
<trkpt lat="-27.2744394" lon="151.2900643">
  <ele>366.57</ele>
  <time>2026-09-01T20:03:43Z</time>
  <course>10.29</course>
  <speed>0.04</speed>
  <fix>3d</fix>
</trkpt>
<trkpt lat="-27.2744394" lon="151.2900642">
  <ele>366.75</ele>
  <time>2026-09-01T20:03:43Z</time>
  <course>10.3</course>
  <speed>0.03</speed>
  <fix>3d</fix>
</trkpt>
<trkpt lat="-27.2744394" lon="151.290064">
  <ele>366.14</ele>
  <time>2026-09-01T20:03:43Z</time>
  <course>217.81</course>
  <speed>0.04</speed>
  <fix>3d</fix>
</trkpt>
<trkpt lat="-27.2744395" lon="151.2900642">
  <ele>366.82</ele>
  <time>2026-09-01T20:03:43Z</time>
  <course>10.31</course>
  <speed>0.03</speed>
  <fix>3d</fix>
</trkpt>
<trkpt lat="-27.2744395" lon="151.2900642">
  <ele>367.0</ele>
  <time>2026-09-01T20:03:43Z</time>
  <course>10.32</course>
  <speed>0.03</speed>
  <fix>3d</fix>
</trkpt>
<trkpt lat="-27.2744394" lon="151.290064">
  <ele>366.14</ele>
  <time>2026-09-01T20:03:43Z</time>
  <course>217.81</course>
  <speed>0.04</speed>
  <fix>3d</fix>
</trkpt>
<trkpt lat="-27.2744395" lon="151.2900642">
  <ele>367.01</ele>
  <time>2026-09-01T20:03:43Z</time>
  <course>10.32</course>
  <speed>0.03</speed>
  <fix>3d</fix>
</trkpt>
<trkpt lat="-27.2744395" lon="151.2900642">
  <ele>367.25</ele>
  <time>2026-09-01T20:03:44Z</time>
  <course>10.34</course>
  <speed>0.03</speed>
  <fix>3d</fix>
</trkpt>
<trkpt lat="-27.2744395" lon="151.290064">
  <ele>366.63</ele>
  <time>2026-09-01T20:03:44Z</time>
  <course>221.47</course>
  <speed>0.03</speed>
  <fix>3d</fix>
</trkpt>
<trkpt lat="-27.2744395" lon="151.2900642">
  <ele>367.26</ele>
  <time>2026-09-01T20:03:44Z</time>
  <course>10.34</course>
  <speed>0.03</speed>
  <fix>3d</fix>
</trkpt>
<trkpt lat="-27.2744395" lon="151.2900641">
  <ele>367.5</ele>
  <time>2026-09-01T20:03:44Z</time>
  <course>10.37</course>
  <speed>0.02</speed>
  <fix>3d</fix>
</trkpt>
<trkpt lat="-27.2744395" lon="151.290064">
  <ele>366.63</ele>
  <time>2026-09-01T20:03:44Z</time>
  <course>221.47</course>
  <speed>0.03</speed>
  <fix>3d</fix>
</trkpt>
<trkpt lat="-27.2744395" lon="151.2900641">
  <ele>367.56</ele>
  <time>2026-09-01T20:03:44Z</time>
  <course>10.37</course>
  <speed>0.02</speed>
  <fix>3d</fix>
</trkpt>
<trkpt lat="-27.2744395" lon="151.2900641">
  <ele>367.75</ele>
  <time>2026-09-01T20:03:44Z</time>
  <course>10.4</course>
  <speed>0.02</speed>
  <fix>3d</fix>
</trkpt>
<trkpt lat="-27.2744395" lon="151.2900639">
  <ele>367.13</ele>
  <time>2026-09-01T20:03:44Z</time>
  <course>227.48</course>
  <speed>0.02</speed>
  <fix>3d</fix>
</trkpt>
<trkpt lat="-27.2744395" lon="151.2900641">
  <ele>367.82</ele>
  <time>2026-09-01T20:03:44Z</time>
  <course>10.4</course>
  <speed>0.02</speed>
  <fix>3d</fix>
</trkpt>
<trkpt lat="-27.2744395" lon="151.2900641">
  <ele>368.0</ele>
  <time>2026-09-01T20:03:44Z</time>
  <course>10.42</course>
  <speed>0.02</speed>
  <fix>3d</fix>
</trkpt>
<trkpt lat="-27.2744395" lon="151.2900639">
  <ele>367.13</ele>
  <time>2026-09-01T20:03:44Z</time>
  <course>227.48</course>
  <speed>0.02</speed>
  <fix>3d</fix>
</trkpt>
<trkpt lat="-27.2744395" lon="151.2900641">
  <ele>368.06</ele>
  <time>2026-09-01T20:03:44Z</time>
  <course>10.43</course>
  <speed>0.02</speed>
  <fix>3d</fix>
</trkpt>
<trkpt lat="-27.2744395" lon="151.2900641">
  <ele>368.25</ele>
  <time>2026-09-01T20:03:44Z</time>
  <course>10.44</course>
  <speed>0.01</speed>
  <fix>3d</fix>
</trkpt>
<trkpt lat="-27.2744395" lon="151.2900639">
  <ele>367.63</ele>
  <time>2026-09-01T20:03:44Z</time>
  <course>237.16</course>
  <speed>0.01</speed>
  <fix>3d</fix>
</trkpt>
<trkpt lat="-27.2744395" lon="151.2900641">
  <ele>368.33</ele>
  <time>2026-09-01T20:03:44Z</time>
  <course>10.44</course>
  <speed>0.01</speed>
  <fix>3d</fix>
</trkpt>
<trkpt lat="-27.2744395" lon="151.290064">
  <ele>368.5</ele>
  <time>2026-09-01T20:03:44Z</time>
  <course>10.45</course>
  <speed>0.01</speed>
  <fix>3d</fix>
</trkpt>
<trkpt lat="-27.2744395" lon="151.2900639">
  <ele>367.63</ele>
  <time>2026-09-01T20:03:44Z</time>
  <course>237.16</course>
  <speed>0.01</speed>
  <fix>3d</fix>
</trkpt>
<trkpt lat="-27.2744395" lon="151.290064">
  <ele>368.58</ele>
  <time>2026-09-01T20:03:44Z</time>
  <course>10.46</course>
  <speed>0.01</speed>
  <fix>3d</fix>
</trkpt>
<trkpt lat="-27.2744396" lon="151.290064">
  <ele>368.75</ele>
  <time>2026-09-01T20:03:44Z</time>
  <course>10.47</course>
  <speed>0.01</speed>
  <fix>3d</fix>
</trkpt>
<trkpt lat="-27.2744396" lon="151.2900639">
  <ele>368.14</ele>
  <time>2026-09-01T20:03:44Z</time>
  <course>255.01</course>
  <speed>0.01</speed>
  <fix>3d</fix>
</trkpt>
<trkpt lat="-27.2744396" lon="151.290064">
  <ele>368.83</ele>
  <time>2026-09-01T20:03:44Z</time>
  <course>10.47</course>
  <speed>0.01</speed>
  <fix>3d</fix>
</trkpt>
<trkpt lat="-27.2744396" lon="151.290064">
  <ele>369.0</ele>
  <time>2026-09-01T20:03:44Z</time>
  <course>10.48</course>
  <speed>0.0</speed>
  <fix>3d</fix>
</trkpt>
<trkpt lat="-27.2744396" lon="151.2900639">
  <ele>368.14</ele>
  <time>2026-09-01T20:03:44Z</time>
  <course>255.01</course>
  <speed>0.01</speed>
  <fix>3d</fix>
</trkpt>
<trkpt lat="-27.2744396" lon="151.290064">
  <ele>369.01</ele>
  <time>2026-09-01T20:03:44Z</time>
  <course>10.49</course>
  <speed>0.0</speed>
  <fix>3d</fix>
</trkpt>
<trkpt lat="-27.2744396" lon="151.290064">
  <ele>369.25</ele>
  <time>2026-09-01T20:03:44Z</time>
  <course>10.51</course>
  <speed>0.0</speed>
  <fix>3d</fix>
</trkpt>
<trkpt lat="-27.2744396" lon="151.2900639">
  <ele>368.64</ele>
  <time>2026-09-01T20:03:44Z</time>
  <course>287.71</course>
  <speed>0.0</speed>
  <fix>3d</fix>
</trkpt>
<trkpt lat="-27.2744396" lon="151.290064">
  <ele>369.33</ele>
  <time>2026-09-01T20:03:44Z</time>
  <course>10.52</course>
  <speed>0.0</speed>
  <fix>3d</fix>
</trkpt>
<trkpt lat="-27.2744396" lon="151.290064">
  <ele>369.5</ele>
  <time>2026-09-01T20:03:44Z</time>
  <course>10.55</course>
  <speed>0.0</speed>
  <fix>3d</fix>
</trkpt>
<trkpt lat="-27.2744396" lon="151.2900639">
  <ele>368.64</ele>
  <time>2026-09-01T20:03:44Z</time>
  <course>287.71</course>
  <speed>0.0</speed>
  <fix>3d</fix>
</trkpt>
<trkpt lat="-27.2744395" lon="151.290064">
  <ele>369.6</ele>
  <time>2026-09-01T20:03:44Z</time>
  <course>10.56</course>
  <speed>0.0</speed>
  <fix>3d</fix>
</trkpt>
<trkpt lat="-27.2744395" lon="151.290064">
  <ele>369.75</ele>
  <time>2026-09-01T20:03:44Z</time>
  <course>10.58</course>
  <speed>0.0</speed>
  <fix>3d</fix>
</trkpt>
<trkpt lat="-27.2744395" lon="151.2900639">
  <ele>369.14</ele>
  <time>2026-09-01T20:03:44Z</time>
  <course>320.41</course>
  <speed>0.0</speed>
  <fix>3d</fix>
</trkpt>
<trkpt lat="-27.2744395" lon="151.290064">
  <ele>369.76</ele>
  <time>2026-09-01T20:03:44Z</time>
  <course>10.58</course>
  <speed>0.0</speed>
  <fix>3d</fix>
</trkpt>
<trkpt lat="-27.2744395" lon="151.290064">
  <ele>370.01</ele>
  <time>2026-09-01T20:03:44Z</time>
  <course>10.6</course>
  <speed>0.0</speed>
  <fix>3d</fix>
</trkpt>
<trkpt lat="-27.2744395" lon="151.2900639">
  <ele>369.14</ele>
  <time>2026-09-01T20:03:44Z</time>
  <course>320.41</course>
  <speed>0.0</speed>
  <fix>3d</fix>
</trkpt>
<trkpt lat="-27.2744395" lon="151.290064">
  <ele>370.01</ele>
  <time>2026-09-01T20:03:44Z</time>
  <course>10.6</course>
  <speed>0.0</speed>
  <fix>3d</fix>
</trkpt>
<trkpt lat="-27.2744395" lon="151.2900639">
  <ele>370.26</ele>
  <time>2026-09-01T20:03:44Z</time>
  <course>10.64</course>
  <speed>0.0</speed>
  <fix>3d</fix>
</trkpt>
<trkpt lat="-27.2744395" lon="151.2900638">
  <ele>369.64</ele>
  <time>2026-09-01T20:03:44Z</time>
  <course>344.54</course>
  <speed>0.01</speed>
  <fix>3d</fix>
</trkpt>
<trkpt lat="-27.2744395" lon="151.2900639">
  <ele>370.33</ele>
  <time>2026-09-01T20:03:44Z</time>
  <course>10.64</course>
  <speed>0.0</speed>
  <fix>3d</fix>
</trkpt>
<trkpt lat="-27.2744395" lon="151.2900639">
  <ele>370.5</ele>
  <time>2026-09-01T20:03:44Z</time>
  <course>10.66</course>
  <speed>0.0</speed>
  <fix>3d</fix>
</trkpt>
<trkpt lat="-27.2744395" lon="151.2900638">
  <ele>369.64</ele>
  <time>2026-09-01T20:03:44Z</time>
  <course>344.54</course>
  <speed>0.01</speed>
  <fix>3d</fix>
</trkpt>
<trkpt lat="-27.2744395" lon="151.2900639">
  <ele>370.58</ele>
  <time>2026-09-01T20:03:44Z</time>
  <course>10.67</course>
  <speed>0.0</speed>
  <fix>3d</fix>
</trkpt>
<trkpt lat="-27.2744395" lon="151.2900639">
  <ele>370.75</ele>
  <time>2026-09-01T20:03:44Z</time>
  <course>10.69</course>
  <speed>0.0</speed>
  <fix>3d</fix>
</trkpt>
<trkpt lat="-27.2744395" lon="151.2900637">
  <ele>370.14</ele>
  <time>2026-09-01T20:03:44Z</time>
  <course>359.8</course>
  <speed>0.01</speed>
  <fix>3d</fix>
</trkpt>
<trkpt lat="-27.2744395" lon="151.2900639">
  <ele>370.84</ele>
  <time>2026-09-01T20:03:44Z</time>
  <course>10.69</course>
  <speed>0.0</speed>
  <fix>3d</fix>
</trkpt>
<trkpt lat="-27.2744395" lon="151.2900639">
  <ele>371.0</ele>
  <time>2026-09-01T20:03:44Z</time>
  <course>10.7</course>
  <speed>0.0</speed>
  <fix>3d</fix>
</trkpt>
<trkpt lat="-27.2744395" lon="151.2900637">
  <ele>370.14</ele>
  <time>2026-09-01T20:03:44Z</time>
  <course>359.8</course>
  <speed>0.01</speed>
  <fix>3d</fix>
</trkpt>
<trkpt lat="-27.2744395" lon="151.2900639">
  <ele>371.08</ele>
  <time>2026-09-01T20:03:44Z</time>
  <course>10.7</course>
  <speed>0.0</speed>
  <fix>3d</fix>
</trkpt>
<trkpt lat="-27.2744395" lon="151.2900639">
  <ele>371.25</ele>
  <time>2026-09-01T20:03:44Z</time>
  <course>10.71</course>
  <speed>0.0</speed>
  <fix>3d</fix>
</trkpt>
<trkpt lat="-27.2744395" lon="151.2900638">
  <ele>370.64</ele>
  <time>2026-09-01T20:03:44Z</time>
  <course>7.34</course>
  <speed>0.02</speed>
  <fix>3d</fix>
</trkpt>
<trkpt lat="-27.2744395" lon="151.2900639">
  <ele>371.32</ele>
  <time>2026-09-01T20:03:44Z</time>
  <course>10.71</course>
  <speed>0.0</speed>
  <fix>3d</fix>
</trkpt>
<trkpt lat="-27.2744395" lon="151.2900639">
  <ele>371.5</ele>
  <time>2026-09-01T20:03:44Z</time>
  <course>10.72</course>
  <speed>0.0</speed>
  <fix>3d</fix>
</trkpt>
<trkpt lat="-27.2744395" lon="151.2900638">
  <ele>370.64</ele>
  <time>2026-09-01T20:03:44Z</time>
  <course>7.34</course>
  <speed>0.02</speed>
  <fix>3d</fix>
</trkpt>
<trkpt lat="-27.2744395" lon="151.2900639">
  <ele>371.56</ele>
  <time>2026-09-01T20:03:44Z</time>
  <course>10.72</course>
  <speed>0.0</speed>
  <fix>3d</fix>
</trkpt>
<trkpt lat="-27.2744395" lon="151.2900639">
  <ele>371.75</ele>
  <time>2026-09-01T20:03:44Z</time>
  <course>10.73</course>
  <speed>0.0</speed>
  <fix>3d</fix>
</trkpt>
<trkpt lat="-27.2744395" lon="151.2900639">
  <ele>371.14</ele>
  <time>2026-09-01T20:03:44Z</time>
  <course>12.29</course>
  <speed>0.02</speed>
  <fix>3d</fix>
</trkpt>
<trkpt lat="-27.2744395" lon="151.2900639">
  <ele>371.82</ele>
  <time>2026-09-01T20:03:44Z</time>
  <course>10.73</course>
  <speed>0.0</speed>
  <fix>3d</fix>
</trkpt>
<trkpt lat="-27.2744395" lon="151.2900639">
  <ele>372.0</ele>
  <time>2026-09-01T20:03:44Z</time>
  <course>10.74</course>
  <speed>0.0</speed>
  <fix>3d</fix>
</trkpt>
<trkpt lat="-27.2744395" lon="151.2900639">
  <ele>371.14</ele>
  <time>2026-09-01T20:03:44Z</time>
  <course>12.29</course>
  <speed>0.02</speed>
  <fix>3d</fix>
</trkpt>
<trkpt lat="-27.2744395" lon="151.2900639">
  <ele>372.09</ele>
  <time>2026-09-01T20:03:44Z</time>
  <course>10.74</course>
  <speed>0.0</speed>
  <fix>3d</fix>
</trkpt>
<trkpt lat="-27.2744395" lon="151.2900639">
  <ele>372.25</ele>
  <time>2026-09-01T20:03:44Z</time>
  <course>10.75</course>
  <speed>0.0</speed>
  <fix>3d</fix>
</trkpt>
<trkpt lat="-27.2744395" lon="151.2900639">
  <ele>371.64</ele>
  <time>2026-09-01T20:03:44Z</time>
  <course>15.89</course>
  <speed>0.02</speed>
  <fix>3d</fix>
</trkpt>
<trkpt lat="-27.2744395" lon="151.2900639">
  <ele>372.34</ele>
  <time>2026-09-01T20:03:44Z</time>
  <course>10.75</course>
  <speed>0.0</speed>
  <fix>3d</fix>
</trkpt>
<trkpt lat="-27.2744395" lon="151.2900639">
  <ele>372.5</ele>
  <time>2026-09-01T20:03:44Z</time>
  <course>10.76</course>
  <speed>0.0</speed>
  <fix>3d</fix>
</trkpt>
<trkpt lat="-27.2744395" lon="151.2900639">
  <ele>371.64</ele>
  <time>2026-09-01T20:03:44Z</time>
  <course>15.89</course>
  <speed>0.02</speed>
  <fix>3d</fix>
</trkpt>
<trkpt lat="-27.2744395" lon="151.2900639">
  <ele>372.51</ele>
  <time>2026-09-01T20:03:44Z</time>
  <course>10.76</course>
  <speed>0.0</speed>
  <fix>3d</fix>
</trkpt>
<trkpt lat="-27.2744395" lon="151.2900639">
  <ele>372.75</ele>
  <time>2026-09-01T20:03:44Z</time>
  <course>10.78</course>
  <speed>0.0</speed>
  <fix>3d</fix>
</trkpt>
<trkpt lat="-27.2744394" lon="151.2900639">
  <ele>372.14</ele>
  <time>2026-09-01T20:03:44Z</time>
  <course>19.51</course>
  <speed>0.02</speed>
  <fix>3d</fix>
</trkpt>
<trkpt lat="-27.2744395" lon="151.2900639">
  <ele>372.76</ele>
  <time>2026-09-01T20:03:44Z</time>
  <course>10.78</course>
  <speed>0.0</speed>
  <fix>3d</fix>
</trkpt>
<trkpt lat="-27.2744395" lon="151.2900639">
  <ele>372.99</ele>
  <time>2026-09-01T20:03:44Z</time>
  <course>10.79</course>
  <speed>0.0</speed>
  <fix>3d</fix>
</trkpt>
<trkpt lat="-27.2744394" lon="151.2900639">
  <ele>372.14</ele>
  <time>2026-09-01T20:03:44Z</time>
  <course>19.51</course>
  <speed>0.02</speed>
  <fix>3d</fix>
</trkpt>
<trkpt lat="-27.2744395" lon="151.2900639">
  <ele>373.08</ele>
  <time>2026-09-01T20:03:44Z</time>
  <course>10.79</course>
  <speed>0.0</speed>
  <fix>3d</fix>
</trkpt>
<trkpt lat="-27.2744394" lon="151.2900639">
  <ele>373.25</ele>
  <time>2026-09-01T20:03:44Z</time>
  <course>10.8</course>
  <speed>0.0</speed>
  <fix>3d</fix>
</trkpt>
<trkpt lat="-27.2744394" lon="151.2900639">
  <ele>372.64</ele>
  <time>2026-09-01T20:03:44Z</time>
  <course>23.7</course>
  <speed>0.02</speed>
  <fix>3d</fix>
</trkpt>
<trkpt lat="-27.2744394" lon="151.2900639">
  <ele>373.25</ele>
  <time>2026-09-01T20:03:44Z</time>
  <course>10.8</course>
  <speed>0.0</speed>
  <fix>3d</fix>
</trkpt>
<trkpt lat="-27.2744394" lon="151.2900639">
  <ele>373.49</ele>
  <time>2026-09-01T20:03:44Z</time>
  <course>10.82</course>
  <speed>0.01</speed>
  <fix>3d</fix>
</trkpt>
<trkpt lat="-27.2744394" lon="151.2900639">
  <ele>372.64</ele>
  <time>2026-09-01T20:03:44Z</time>
  <course>23.7</course>
  <speed>0.02</speed>
  <fix>3d</fix>
</trkpt>
<trkpt lat="-27.2744394" lon="151.2900639">
  <ele>373.51</ele>
  <time>2026-09-01T20:03:44Z</time>
  <course>10.82</course>
  <speed>0.01</speed>
  <fix>3d</fix>
</trkpt>
<trkpt lat="-27.2744394" lon="151.2900639">
  <ele>373.73</ele>
  <time>2026-09-01T20:03:44Z</time>
  <course>10.84</course>
  <speed>0.01</speed>
  <fix>3d</fix>
</trkpt>
<trkpt lat="-27.2744394" lon="151.2900639">
  <ele>373.14</ele>
  <time>2026-09-01T20:03:44Z</time>
  <course>25.87</course>
  <speed>0.02</speed>
  <fix>3d</fix>
</trkpt>
<trkpt lat="-27.2744394" lon="151.2900639">
  <ele>373.8</ele>
  <time>2026-09-01T20:03:44Z</time>
  <course>10.85</course>
  <speed>0.01</speed>
  <fix>3d</fix>
</trkpt>
<trkpt lat="-27.2744394" lon="151.2900639">
  <ele>373.96</ele>
  <time>2026-09-01T20:03:44Z</time>
  <course>10.86</course>
  <speed>0.01</speed>
  <fix>3d</fix>
</trkpt>
<trkpt lat="-27.2744394" lon="151.2900639">
  <ele>373.14</ele>
  <time>2026-09-01T20:03:44Z</time>
  <course>25.87</course>
  <speed>0.02</speed>
  <fix>3d</fix>
</trkpt>
<trkpt lat="-27.2744394" lon="151.2900639">
  <ele>374.02</ele>
  <time>2026-09-01T20:03:44Z</time>
  <course>10.86</course>
  <speed>0.0</speed>
  <fix>3d</fix>
</trkpt>
<trkpt lat="-27.2744394" lon="151.2900639">
  <ele>374.18</ele>
  <time>2026-09-01T20:03:44Z</time>
  <course>10.87</course>
  <speed>0.0</speed>
  <fix>3d</fix>
</trkpt>
<trkpt lat="-27.2744393" lon="151.2900639">
  <ele>373.62</ele>
  <time>2026-09-01T20:03:44Z</time>
  <course>27.21</course>
  <speed>0.02</speed>
  <fix>3d</fix>
</trkpt>
<trkpt lat="-27.2744394" lon="151.2900639">
  <ele>374.26</ele>
  <time>2026-09-01T20:03:44Z</time>
  <course>10.88</course>
  <speed>0.0</speed>
  <fix>3d</fix>
</trkpt>
<trkpt lat="-27.2744394" lon="151.2900639">
  <ele>374.39</ele>
  <time>2026-09-01T20:03:44Z</time>
  <course>10.89</course>
  <speed>0.01</speed>
  <fix>3d</fix>
</trkpt>
<trkpt lat="-27.2744393" lon="151.2900639">
  <ele>373.62</ele>
  <time>2026-09-01T20:03:44Z</time>
  <course>27.21</course>
  <speed>0.02</speed>
  <fix>3d</fix>
</trkpt>
<trkpt lat="-27.2744394" lon="151.2900639">
  <ele>374.45</ele>
  <time>2026-09-01T20:03:44Z</time>
  <course>10.89</course>
  <speed>0.01</speed>
  <fix>3d</fix>
</trkpt>
<trkpt lat="-27.2744393" lon="151.2900639">
  <ele>374.61</ele>
  <time>2026-09-01T20:03:44Z</time>
  <course>10.91</course>
  <speed>0.01</speed>
  <fix>3d</fix>
</trkpt>
<trkpt lat="-27.2744393" lon="151.2900639">
  <ele>374.07</ele>
  <time>2026-09-01T20:03:44Z</time>
  <course>25.71</course>
  <speed>0.02</speed>
  <fix>3d</fix>
</trkpt>
<trkpt lat="-27.2744393" lon="151.2900639">
  <ele>374.66</ele>
  <time>2026-09-01T20:03:44Z</time>
  <course>10.92</course>
  <speed>0.02</speed>
  <fix>3d</fix>
</trkpt>
<trkpt lat="-27.2744393" lon="151.2900639">
  <ele>374.81</ele>
  <time>2026-09-01T20:03:44Z</time>
  <course>10.93</course>
  <speed>0.0316227766016838</speed>
  <fix>3d</fix>
</trkpt>
<trkpt lat="-27.2744393" lon="151.2900639">
  <ele>374.07</ele>
  <time>2026-09-01T20:03:44Z</time>
  <course>25.71</course>
  <speed>0.02</speed>
  <fix>3d</fix>
</trkpt>
<trkpt lat="-27.2744393" lon="151.2900639">
  <ele>374.85</ele>
  <time>2026-09-01T20:03:44Z</time>
  <course>10.94</course>
  <speed>0.0316227766016838</speed>
  <fix>3d</fix>
</trkpt>
<trkpt lat="-27.2744393" lon="151.2900639">
  <ele>375.0</ele>
  <time>2026-09-01T20:03:44Z</time>
  <course>10.95</course>
  <speed>0.05099019513592785</speed>
  <fix>3d</fix>
</trkpt>
<trkpt lat="-27.2744392" lon="151.2900639">
  <ele>374.49</ele>
  <time>2026-09-01T20:03:44Z</time>
  <course>11.15</course>
  <speed>0.03</speed>
  <fix>3d</fix>
</trkpt>
<trkpt lat="-27.2744393" lon="151.2900639">
  <ele>375.0</ele>
  <time>2026-09-01T20:03:44Z</time>
  <course>10.95</course>
  <speed>0.05099019513592785</speed>
  <fix>3d</fix>
</trkpt>
<trkpt lat="-27.2744392" lon="151.2900639">
  <ele>375.18</ele>
  <time>2026-09-01T20:03:44Z</time>
  <course>10.94</course>
  <speed>0.08062257748298549</speed>
  <fix>3d</fix>
</trkpt>
<trkpt lat="-27.2744392" lon="151.2900639">
  <ele>374.49</ele>
  <time>2026-09-01T20:03:44Z</time>
  <course>11.15</course>
  <speed>0.03</speed>
  <fix>3d</fix>
</trkpt>
<trkpt lat="-27.2744392" lon="151.2900639">
  <ele>375.18</ele>
  <time>2026-09-01T20:03:44Z</time>
  <course>10.94</course>
  <speed>0.08062257748298549</speed>
  <fix>3d</fix>
</trkpt>
<trkpt lat="-27.2744391" lon="151.2900639">
  <ele>375.34</ele>
  <time>2026-09-01T20:03:44Z</time>
  <course>10.9</course>
  <speed>0.11045361017187261</speed>
  <fix>3d</fix>
</trkpt>
<trkpt lat="-27.2744391" lon="151.2900639">
  <ele>374.88</ele>
  <time>2026-09-01T20:03:44Z</time>
  <course>1.09</course>
  <speed>0.06</speed>
  <fix>3d</fix>
</trkpt>
<trkpt lat="-27.2744391" lon="151.2900639">
  <ele>375.35</ele>
  <time>2026-09-01T20:03:44Z</time>
  <course>10.9</course>
  <speed>0.11045361017187261</speed>
  <fix>3d</fix>
</trkpt>
<trkpt lat="-27.274439" lon="151.2900639">
  <ele>375.49</ele>
  <time>2026-09-01T20:03:44Z</time>
  <course>10.84</course>
  <speed>0.140356688476182</speed>
  <fix>3d</fix>
</trkpt>
<trkpt lat="-27.2744391" lon="151.2900639">
  <ele>374.88</ele>
  <time>2026-09-01T20:03:44Z</time>
  <course>1.09</course>
  <speed>0.06</speed>
  <fix>3d</fix>
</trkpt>
<trkpt lat="-27.274439" lon="151.2900639">
  <ele>375.49</ele>
  <time>2026-09-01T20:03:44Z</time>
  <course>10.83</course>
  <speed>0.140356688476182</speed>
  <fix>3d</fix>
</trkpt>
<trkpt lat="-27.2744388" lon="151.2900639">
  <ele>375.62</ele>
  <time>2026-09-01T20:03:44Z</time>
  <course>10.76</course>
  <speed>0.18027756377319945</speed>
  <fix>3d</fix>
</trkpt>
<trkpt lat="-27.274439" lon="151.2900639">
  <ele>375.22</ele>
  <time>2026-09-01T20:03:44Z</time>
  <course>358.33</course>
  <speed>0.12</speed>
  <fix>3d</fix>
</trkpt>
<trkpt lat="-27.2744388" lon="151.2900639">
  <ele>375.62</ele>
  <time>2026-09-01T20:03:44Z</time>
  <course>10.75</course>
  <speed>0.18027756377319945</speed>
  <fix>3d</fix>
</trkpt>
<trkpt lat="-27.2744386" lon="151.2900639">
  <ele>375.73</ele>
  <time>2026-09-01T20:03:44Z</time>
  <course>10.68</course>
  <speed>0.22090722034374521</speed>
  <fix>3d</fix>
</trkpt>
<trkpt lat="-27.274439" lon="151.2900639">
  <ele>375.22</ele>
  <time>2026-09-01T20:03:44Z</time>
  <course>358.33</course>
  <speed>0.12</speed>
  <fix>3d</fix>
</trkpt>
<trkpt lat="-27.2744385" lon="151.2900639">
  <ele>375.76</ele>
  <time>2026-09-01T20:03:44Z</time>
  <course>10.65</course>
  <speed>0.2308679276123039</speed>
  <fix>3d</fix>
</trkpt>
<trkpt lat="-27.2744384" lon="151.2900639">
  <ele>375.82</ele>
  <time>2026-09-01T20:03:44Z</time>
  <course>10.61</course>
  <speed>0.2707397274136177</speed>
  <fix>3d</fix>
</trkpt>
<trkpt lat="-27.2744387" lon="151.2900639">
  <ele>375.5</ele>
  <time>2026-09-01T20:03:44Z</time>
  <course>357.11</course>
  <speed>0.19</speed>
  <fix>3d</fix>
</trkpt>
<trkpt lat="-27.2744383" lon="151.2900639">
  <ele>375.85</ele>
  <time>2026-09-01T20:03:44Z</time>
  <course>10.59</course>
  <speed>0.280713376952364</speed>
  <fix>3d</fix>
</trkpt>
<trkpt lat="-27.2744381" lon="151.2900638">
  <ele>375.9</ele>
  <time>2026-09-01T20:03:44Z</time>
  <course>10.57</course>
  <speed>0.31064449134018135</speed>
  <fix>3d</fix>
</trkpt>
<trkpt lat="-27.2744387" lon="151.2900639">
  <ele>375.5</ele>
  <time>2026-09-01T20:03:44Z</time>
  <course>357.11</course>
  <speed>0.19</speed>
  <fix>3d</fix>
</trkpt>
<trkpt lat="-27.274438" lon="151.2900638">
  <ele>375.92</ele>
  <time>2026-09-01T20:03:44Z</time>
  <course>10.56</course>
  <speed>0.3313608305156178</speed>
  <fix>3d</fix>
</trkpt>
<trkpt lat="-27.2744378" lon="151.2900638">
  <ele>375.96</ele>
  <time>2026-09-01T20:03:44Z</time>
  <course>10.55</course>
  <speed>0.3712142238654117</speed>
  <fix>3d</fix>
</trkpt>
<trkpt lat="-27.2744382" lon="151.2900639">
  <ele>375.71</ele>
  <time>2026-09-01T20:03:44Z</time>
  <course>356.18</course>
  <speed>0.28</speed>
  <fix>3d</fix>
</trkpt>
<trkpt lat="-27.2744377" lon="151.2900638">
  <ele>375.98</ele>
  <time>2026-09-01T20:03:44Z</time>
  <course>10.55</course>
  <speed>0.3911521443121589</speed>
  <fix>3d</fix>
</trkpt>
<trkpt lat="-27.2744374" lon="151.2900638">
  <ele>376.0</ele>
  <time>2026-09-01T20:03:44Z</time>
  <course>10.55</course>
  <speed>0.4310452412450461</speed>
  <fix>3d</fix>
</trkpt>
<trkpt lat="-27.2744382" lon="151.2900639">
  <ele>375.71</ele>
  <time>2026-09-01T20:03:44Z</time>
  <course>356.18</course>
  <speed>0.28</speed>
  <fix>3d</fix>
</trkpt>
<trkpt lat="-27.2744373" lon="151.2900638">
  <ele>376.01</ele>
  <time>2026-09-01T20:03:44Z</time>
  <course>10.54</course>
  <speed>0.4509988913511872</speed>
  <fix>3d</fix>
</trkpt>
<trkpt lat="-27.274437" lon="151.2900638">
  <ele>376.03</ele>
  <time>2026-09-01T20:03:44Z</time>
  <course>10.47</course>
  <speed>0.4916299421312742</speed>
  <fix>3d</fix>
</trkpt>
<trkpt lat="-27.2744376" lon="151.2900639">
  <ele>375.85</ele>
  <time>2026-09-01T20:03:44Z</time>
  <course>355.58</course>
  <speed>0.38</speed>
  <fix>3d</fix>
</trkpt>
<trkpt lat="-27.2744369" lon="151.2900638">
  <ele>376.04</ele>
  <time>2026-09-01T20:03:44Z</time>
  <course>10.41</course>
  <speed>0.5115662224971466</speed>
  <fix>3d</fix>
</trkpt>
<trkpt lat="-27.2744365" lon="151.2900637">
  <ele>376.05</ele>
  <time>2026-09-01T20:03:44Z</time>
  <course>10.06</course>
  <speed>0.561426753904728</speed>
  <fix>3d</fix>
</trkpt>
<trkpt lat="-27.2744376" lon="151.2900639">
  <ele>375.85</ele>
  <time>2026-09-01T20:03:44Z</time>
  <course>355.58</course>
  <speed>0.38</speed>
  <fix>3d</fix>
</trkpt>
<trkpt lat="-27.2744365" lon="151.2900637">
  <ele>376.05</ele>
  <time>2026-09-01T20:03:44Z</time>
  <course>10.03</course>
  <speed>0.5714017850864661</speed>
  <fix>3d</fix>
</trkpt>
<trkpt lat="-27.274436" lon="151.2900637">
  <ele>376.06</ele>
  <time>2026-09-01T20:03:44Z</time>
  <course>8.97</course>
  <speed>0.6319810123729984</speed>
  <fix>3d</fix>
</trkpt>
<trkpt lat="-27.2744368" lon="151.2900638">
  <ele>375.94</ele>
  <time>2026-09-01T20:03:44Z</time>
  <course>355.17</course>
  <speed>0.51</speed>
  <fix>3d</fix>
</trkpt>
<trkpt lat="-27.2744359" lon="151.2900637">
  <ele>376.06</ele>
  <time>2026-09-01T20:03:44Z</time>
  <course>8.9</course>
  <speed>0.6419501538281613</speed>
  <fix>3d</fix>
</trkpt>
<trkpt lat="-27.2744354" lon="151.2900636">
  <ele>376.07</ele>
  <time>2026-09-01T20:03:44Z</time>
  <course>7.02</course>
  <speed>0.7125307010929425</speed>
  <fix>3d</fix>
</trkpt>
<trkpt lat="-27.2744368" lon="151.2900638">
  <ele>375.94</ele>
  <time>2026-09-01T20:03:44Z</time>
  <course>355.17</course>
  <speed>0.51</speed>
  <fix>3d</fix>
</trkpt>
<trkpt lat="-27.2744352" lon="151.2900636">
  <ele>376.07</ele>
  <time>2026-09-01T20:03:44Z</time>
  <course>6.29</course>
  <speed>0.7333484846919641</speed>
  <fix>3d</fix>
</trkpt>
<trkpt lat="-27.2744347" lon="151.2900636">
  <ele>376.07</ele>
  <time>2026-09-01T20:03:44Z</time>
  <course>4.41</course>
  <speed>0.7831347265956222</speed>
  <fix>3d</fix>
</trkpt>
<trkpt lat="-27.2744358" lon="151.2900637">
  <ele>375.98</ele>
  <time>2026-09-01T20:03:44Z</time>
  <course>354.5</course>
  <speed>0.64</speed>
  <fix>3d</fix>
</trkpt>
<trkpt lat="-27.2744345" lon="151.2900635">
  <ele>376.07</ele>
  <time>2026-09-01T20:03:44Z</time>
  <course>3.65</course>
  <speed>0.8039900496896712</speed>
  <fix>3d</fix>
</trkpt>
<trkpt lat="-27.2744339" lon="151.2900635">
  <ele>376.06</ele>
  <time>2026-09-01T20:03:44Z</time>
  <course>1.56</course>
  <speed>0.8547514258543241</speed>
  <fix>3d</fix>
</trkpt>
<trkpt lat="-27.2744358" lon="151.2900637">
  <ele>375.98</ele>
  <time>2026-09-01T20:03:44Z</time>
  <course>354.5</course>
  <speed>0.64</speed>
  <fix>3d</fix>
</trkpt>
<trkpt lat="-27.2744337" lon="151.2900635">
  <ele>376.06</ele>
  <time>2026-09-01T20:03:44Z</time>
  <course>0.76</course>
  <speed>0.8845903006477066</speed>
  <fix>3d</fix>
</trkpt>
<trkpt lat="-27.2744331" lon="151.2900634">
  <ele>376.06</ele>
  <time>2026-09-01T20:03:44Z</time>
  <course>359.06</course>
  <speed>0.9353608929178086</speed>
  <fix>3d</fix>
</trkpt>
<trkpt lat="-27.2744345" lon="151.2900636">
  <ele>376.0</ele>
  <time>2026-09-01T20:03:44Z</time>
  <course>353.61</course>
  <speed>0.79</speed>
  <fix>3d</fix>
</trkpt>
<trkpt lat="-27.2744329" lon="151.2900634">
  <ele>376.06</ele>
  <time>2026-09-01T20:03:44Z</time>
  <course>358.5</course>
  <speed>0.95524865872714</speed>
  <fix>3d</fix>
</trkpt>
<trkpt lat="-27.2744322" lon="151.2900633">
  <ele>376.06</ele>
  <time>2026-09-01T20:03:44Z</time>
  <course>357.26</course>
  <speed>1.0149384217774002</speed>
  <fix>3d</fix>
</trkpt>
<trkpt lat="-27.2744345" lon="151.2900636">
  <ele>376.0</ele>
  <time>2026-09-01T20:03:44Z</time>
  <course>353.61</course>
  <speed>0.79</speed>
  <fix>3d</fix>
</trkpt>
<trkpt lat="-27.274432" lon="151.2900633">
  <ele>376.06</ele>
  <time>2026-09-01T20:03:44Z</time>
  <course>356.93</course>
  <speed>1.034842983258813</speed>
  <fix>3d</fix>
</trkpt>
<trkpt lat="-27.2744313" lon="151.2900632">
  <ele>376.05</ele>
  <time>2026-09-01T20:03:44Z</time>
  <course>356.31</course>
  <speed>1.0846197490365</speed>
  <fix>3d</fix>
</trkpt>
<trkpt lat="-27.2744329" lon="151.2900634">
  <ele>376.0</ele>
  <time>2026-09-01T20:03:44Z</time>
  <course>353.18</course>
  <speed>0.94</speed>
  <fix>3d</fix>
</trkpt>
<trkpt lat="-27.2744313" lon="151.2900632">
  <ele>376.05</ele>
  <time>2026-09-01T20:03:44Z</time>
  <course>356.29</course>
  <speed>1.0945775440780794</speed>
  <fix>3d</fix>
</trkpt>
<trkpt lat="-27.2744303" lon="151.2900631">
  <ele>376.05</ele>
  <time>2026-09-01T20:03:44Z</time>
  <course>356.15</course>
  <speed>1.1643023662262306</speed>
  <fix>3d</fix>
</trkpt>
<trkpt lat="-27.2744329" lon="151.2900634">
  <ele>376.0</ele>
  <time>2026-09-01T20:03:44Z</time>
  <course>353.18</course>
  <speed>0.94</speed>
  <fix>3d</fix>
</trkpt>
<trkpt lat="-27.27443" lon="151.290063">
  <ele>376.05</ele>
  <time>2026-09-01T20:03:44Z</time>
  <course>356.22</course>
  <speed>1.184229707446997</speed>
  <fix>3d</fix>
</trkpt>
<trkpt lat="-27.2744292" lon="151.290063">
  <ele>376.06</ele>
  <time>2026-09-01T20:03:44Z</time>
  <course>356.58</course>
  <speed>1.244025723206719</speed>
  <fix>3d</fix>
</trkpt>
<trkpt lat="-27.2744311" lon="151.2900631">
  <ele>376.0</ele>
  <time>2026-09-01T20:03:44Z</time>
  <course>353.56</course>
  <speed>1.1</speed>
  <fix>3d</fix>
</trkpt>
<trkpt lat="-27.2744289" lon="151.2900629">
  <ele>376.06</ele>
  <time>2026-09-01T20:03:44Z</time>
  <course>356.79</course>
  <speed>1.2639620247459968</speed>
  <fix>3d</fix>
</trkpt>
<trkpt lat="-27.2744281" lon="151.2900629">
  <ele>376.06</ele>
  <time>2026-09-01T20:03:44Z</time>
  <course>357.37</course>
  <speed>1.3230646242719968</speed>
  <fix>3d</fix>
</trkpt>
<trkpt lat="-27.2744311" lon="151.2900631">
  <ele>376.0</ele>
  <time>2026-09-01T20:03:44Z</time>
  <course>353.56</course>
  <speed>1.1</speed>
  <fix>3d</fix>
</trkpt>
<trkpt lat="-27.2744278" lon="151.2900628">
  <ele>376.07</ele>
  <time>2026-09-01T20:03:44Z</time>
  <course>357.59</course>
  <speed>1.3330416347586447</speed>
  <fix>3d</fix>
</trkpt>
<trkpt lat="-27.2744268" lon="151.2900628">
  <ele>376.07</ele>
  <time>2026-09-01T20:03:44Z</time>
  <course>358.32</course>
  <speed>1.3929106216839613</speed>
  <fix>3d</fix>
</trkpt>
<trkpt lat="-27.274429" lon="151.2900629">
  <ele>376.01</ele>
  <time>2026-09-01T20:03:44Z</time>
  <course>354.49</course>
  <speed>1.25</speed>
  <fix>3d</fix>
</trkpt>
<trkpt lat="-27.2744268" lon="151.2900628">
  <ele>376.07</ele>
  <time>2026-09-01T20:03:44Z</time>
  <course>358.35</course>
  <speed>1.4028898745090437</speed>
  <fix>3d</fix>
</trkpt>
<trkpt lat="-27.2744256" lon="151.2900627">
  <ele>376.09</ele>
  <time>2026-09-01T20:03:44Z</time>
  <course>359.24</course>
  <speed>1.4721752613055281</speed>
  <fix>3d</fix>
</trkpt>
<trkpt lat="-27.274429" lon="151.2900629">
  <ele>376.01</ele>
  <time>2026-09-01T20:03:44Z</time>
  <course>354.49</course>
  <speed>1.25</speed>
  <fix>3d</fix>
</trkpt>
<trkpt lat="-27.2744255" lon="151.2900627">
  <ele>376.09</ele>
  <time>2026-09-01T20:03:44Z</time>
  <course>359.27</course>
  <speed>1.4721752613055281</speed>
  <fix>3d</fix>
</trkpt>
<trkpt lat="-27.2744242" lon="151.2900626">
  <ele>376.1</ele>
  <time>2026-09-01T20:03:44Z</time>
  <course>359.98</course>
  <speed>1.5515798400340217</speed>
  <fix>3d</fix>
</trkpt>
<trkpt lat="-27.2744266" lon="151.2900626">
  <ele>376.03</ele>
  <time>2026-09-01T20:03:44Z</time>
  <course>355.59</course>
  <speed>1.4</speed>
  <fix>3d</fix>
</trkpt>
<trkpt lat="-27.2744238" lon="151.2900625">
  <ele>376.11</ele>
  <time>2026-09-01T20:03:44Z</time>
  <course>0.14</course>
  <speed>1.5715597347857955</speed>
  <fix>3d</fix>
</trkpt>
<trkpt lat="-27.2744228" lon="151.2900625">
  <ele>376.12</ele>
  <time>2026-09-01T20:03:44Z</time>
  <course>0.47</course>
  <speed>1.6211107303327554</speed>
  <fix>3d</fix>
</trkpt>
<trkpt lat="-27.2744266" lon="151.2900626">
  <ele>376.03</ele>
  <time>2026-09-01T20:03:44Z</time>
  <course>355.59</course>
  <speed>1.4</speed>
  <fix>3d</fix>
</trkpt>
<trkpt lat="-27.2744223" lon="151.2900625">
  <ele>376.12</ele>
  <time>2026-09-01T20:03:44Z</time>
  <course>0.58</course>
  <speed>1.6510905486980416</speed>
  <fix>3d</fix>
</trkpt>
<trkpt lat="-27.2744213" lon="151.2900624">
  <ele>376.13</ele>
  <time>2026-09-01T20:03:44Z</time>
  <course>0.71</course>
  <speed>1.7010584939971936</speed>
  <fix>3d</fix>
</trkpt>
<trkpt lat="-27.2744239" lon="151.2900624">
  <ele>376.06</ele>
  <time>2026-09-01T20:03:44Z</time>
  <course>356.59</course>
  <speed>1.56</speed>
  <fix>3d</fix>
</trkpt>
<trkpt lat="-27.2744208" lon="151.2900624">
  <ele>376.14</ele>
  <time>2026-09-01T20:03:44Z</time>
  <course>0.74</course>
  <speed>1.7307223925286226</speed>
  <fix>3d</fix>
</trkpt>
<trkpt lat="-27.2744197" lon="151.2900623">
  <ele>376.15</ele>
  <time>2026-09-01T20:03:44Z</time>
  <course>0.73</course>
  <speed>1.7807021087200408</speed>
  <fix>3d</fix>
</trkpt>
<trkpt lat="-27.2744239" lon="151.2900624">
  <ele>376.06</ele>
  <time>2026-09-01T20:03:44Z</time>
  <course>356.59</course>
  <speed>1.56</speed>
  <fix>3d</fix>
</trkpt>
<trkpt lat="-27.2744192" lon="151.2900623">
  <ele>376.15</ele>
  <time>2026-09-01T20:03:44Z</time>
  <course>0.71</course>
  <speed>1.8106904760339355</speed>
  <fix>3d</fix>
</trkpt>
<trkpt lat="-27.2744181" lon="151.2900623">
  <ele>376.16</ele>
  <time>2026-09-01T20:03:44Z</time>
  <course>0.61</course>
  <speed>1.8606719216455112</speed>
  <fix>3d</fix>
</trkpt>
<trkpt lat="-27.274421" lon="151.2900623">
  <ele>376.09</ele>
  <time>2026-09-01T20:03:44Z</time>
  <course>357.39</course>
  <speed>1.71</speed>
  <fix>3d</fix>
</trkpt>
<trkpt lat="-27.2744176" lon="151.2900622">
  <ele>376.17</ele>
  <time>2026-09-01T20:03:44Z</time>
  <course>0.55</course>
  <speed>1.8804254837669054</speed>
  <fix>3d</fix>
</trkpt>
<trkpt lat="-27.2744164" lon="151.2900622">
  <ele>376.18</ele>
  <time>2026-09-01T20:03:44Z</time>
  <course>0.4</course>
  <speed>1.940412327316027</speed>
  <fix>3d</fix>
</trkpt>
<trkpt lat="-27.274421" lon="151.2900623">
  <ele>376.09</ele>
  <time>2026-09-01T20:03:44Z</time>
  <course>357.39</course>
  <speed>1.71</speed>
  <fix>3d</fix>
</trkpt>
<trkpt lat="-27.2744158" lon="151.2900622">
  <ele>376.18</ele>
  <time>2026-09-01T20:03:44Z</time>
  <course>0.33</course>
  <speed>1.9604081207748552</speed>
  <fix>3d</fix>
</trkpt>
<trkpt lat="-27.2744146" lon="151.2900621">
  <ele>376.19</ele>
  <time>2026-09-01T20:03:44Z</time>
  <course>0.16</course>
  <speed>2.020222759994551</speed>
  <fix>3d</fix>
</trkpt>
<trkpt lat="-27.2744178" lon="151.2900621">
  <ele>376.13</ele>
  <time>2026-09-01T20:03:44Z</time>
  <course>358.0</course>
  <speed>1.87</speed>
  <fix>3d</fix>
</trkpt>
<trkpt lat="-27.2744141" lon="151.2900621">
  <ele>376.2</ele>
  <time>2026-09-01T20:03:44Z</time>
  <course>0.1</course>
  <speed>2.0402205763103165</speed>
  <fix>3d</fix>
</trkpt>
<trkpt lat="-27.2744128" lon="151.2900621">
  <ele>376.21</ele>
  <time>2026-09-01T20:03:44Z</time>
  <course>359.97</course>
  <speed>2.1002142747824566</speed>
  <fix>3d</fix>
</trkpt>
<trkpt lat="-27.2744178" lon="151.2900621">
  <ele>376.13</ele>
  <time>2026-09-01T20:03:44Z</time>
  <course>358.0</course>
  <speed>1.87</speed>
  <fix>3d</fix>
</trkpt>
<trkpt lat="-27.2744127" lon="151.2900621">
  <ele>376.21</ele>
  <time>2026-09-01T20:03:44Z</time>
  <course>359.96</course>
  <speed>2.1002142747824566</speed>
  <fix>3d</fix>
</trkpt>
<trkpt lat="-27.2744108" lon="151.290062">
  <ele>376.22</ele>
  <time>2026-09-01T20:03:44Z</time>
  <course>359.81</course>
  <speed>2.1800917411888885</speed>
  <fix>3d</fix>
</trkpt>
<trkpt lat="-27.2744143" lon="151.290062">
  <ele>376.16</ele>
  <time>2026-09-01T20:03:44Z</time>
  <course>358.49</course>
  <speed>2.03</speed>
  <fix>3d</fix>
</trkpt>
<trkpt lat="-27.2744108" lon="151.290062">
  <ele>376.22</ele>
  <time>2026-09-01T20:03:44Z</time>
  <course>359.81</course>
  <speed>2.1800917411888885</speed>
  <fix>3d</fix>
</trkpt>
<trkpt lat="-27.2744089" lon="151.290062">
  <ele>376.23</ele>
  <time>2026-09-01T20:03:44Z</time>
  <course>359.73</course>
  <speed>2.2600884938426637</speed>
  <fix>3d</fix>
</trkpt>
<trkpt lat="-27.2744143" lon="151.290062">
  <ele>376.16</ele>
  <time>2026-09-01T20:03:44Z</time>
  <course>358.49</course>
  <speed>2.03</speed>
  <fix>3d</fix>
</trkpt>
<trkpt lat="-27.2744088" lon="151.290062">
  <ele>376.23</ele>
  <time>2026-09-01T20:03:44Z</time>
  <course>359.73</course>
  <speed>2.2600884938426637</speed>
  <fix>3d</fix>
</trkpt>
<trkpt lat="-27.2744068" lon="151.290062">
  <ele>376.24</ele>
  <time>2026-09-01T20:03:44Z</time>
  <course>359.7</course>
  <speed>2.3400213674238106</speed>
  <fix>3d</fix>
</trkpt>
<trkpt lat="-27.2744105" lon="151.2900619">
  <ele>376.19</ele>
  <time>2026-09-01T20:03:44Z</time>
  <course>358.91</course>
  <speed>2.19</speed>
  <fix>3d</fix>
</trkpt>
<trkpt lat="-27.2744066" lon="151.290062">
  <ele>376.24</ele>
  <time>2026-09-01T20:03:44Z</time>
  <course>359.7</course>
  <speed>2.3500212764994277</speed>
  <fix>3d</fix>
</trkpt>
<trkpt lat="-27.2744046" lon="151.2900619">
  <ele>376.24</ele>
  <time>2026-09-01T20:03:44Z</time>
  <course>359.73</course>
  <speed>2.430020576044573</speed>
  <fix>3d</fix>
</trkpt>
<trkpt lat="-27.2744105" lon="151.2900619">
  <ele>376.19</ele>
  <time>2026-09-01T20:03:44Z</time>
  <course>358.91</course>
  <speed>2.19</speed>
  <fix>3d</fix>
</trkpt>
<trkpt lat="-27.274404" lon="151.2900619">
  <ele>376.25</ele>
  <time>2026-09-01T20:03:44Z</time>
  <course>359.74</course>
  <speed>2.45</speed>
  <fix>3d</fix>
</trkpt>
<trkpt lat="-27.2744024" lon="151.2900619">
  <ele>376.25</ele>
  <time>2026-09-01T20:03:44Z</time>
  <course>359.78</course>
  <speed>2.51</speed>
  <fix>3d</fix>
</trkpt>
<trkpt lat="-27.2744064" lon="151.2900618">
  <ele>376.22</ele>
  <time>2026-09-01T20:03:44Z</time>
  <course>359.3</course>
  <speed>2.36</speed>
  <fix>3d</fix>
</trkpt>
<trkpt lat="-27.2744018" lon="151.2900619">
  <ele>376.25</ele>
  <time>2026-09-01T20:03:44Z</time>
  <course>359.8</course>
  <speed>2.53</speed>
  <fix>3d</fix>
</trkpt>
<trkpt lat="-27.2744" lon="151.2900619">
  <ele>376.26</ele>
  <time>2026-09-01T20:03:44Z</time>
  <course>359.85</course>
  <speed>2.6</speed>
  <fix>3d</fix>
</trkpt>
<trkpt lat="-27.2744064" lon="151.2900618">
  <ele>376.22</ele>
  <time>2026-09-01T20:03:44Z</time>
  <course>359.3</course>
  <speed>2.36</speed>
  <fix>3d</fix>
</trkpt>
<trkpt lat="-27.2744" lon="151.2900619">
  <ele>376.26</ele>
  <time>2026-09-01T20:03:44Z</time>
  <course>359.85</course>
  <speed>2.6</speed>
  <fix>3d</fix>
</trkpt>
<trkpt lat="-27.2743977" lon="151.2900619">
  <ele>376.26</ele>
  <time>2026-09-01T20:03:44Z</time>
  <course>359.92</course>
  <speed>2.6900185872963776</speed>
  <fix>3d</fix>
</trkpt>
<trkpt lat="-27.274402" lon="151.2900618">
  <ele>376.23</ele>
  <time>2026-09-01T20:03:44Z</time>
  <course>359.67</course>
  <speed>2.53</speed>
  <fix>3d</fix>
</trkpt>
<trkpt lat="-27.2743975" lon="151.2900619">
  <ele>376.26</ele>
  <time>2026-09-01T20:03:44Z</time>
  <course>359.93</course>
  <speed>2.7000185184550123</speed>
  <fix>3d</fix>
</trkpt>
<trkpt lat="-27.2743952" lon="151.2900619">
  <ele>376.27</ele>
  <time>2026-09-01T20:03:44Z</time>
  <course>359.98</course>
  <speed>2.780017985553331</speed>
  <fix>3d</fix>
</trkpt>
<trkpt lat="-27.274402" lon="151.2900618">
  <ele>376.23</ele>
  <time>2026-09-01T20:03:44Z</time>
  <course>359.67</course>
  <speed>2.53</speed>
  <fix>3d</fix>
</trkpt>
<trkpt lat="-27.2743946" lon="151.2900619">
  <ele>376.27</ele>
  <time>2026-09-01T20:03:44Z</time>
  <course>0.0</course>
  <speed>2.800017857085915</speed>
  <fix>3d</fix>
</trkpt>
<trkpt lat="-27.2743927" lon="151.2900619">
  <ele>376.27</ele>
  <time>2026-09-01T20:03:44Z</time>
  <course>0.02</course>
  <speed>2.8700696855651433</speed>
  <fix>3d</fix>
</trkpt>
<trkpt lat="-27.2743973" lon="151.2900618">
  <ele>376.24</ele>
  <time>2026-09-01T20:03:44Z</time>
  <course>0.0</course>
  <speed>2.7</speed>
  <fix>3d</fix>
</trkpt>
<trkpt lat="-27.2743919" lon="151.2900619">
  <ele>376.28</ele>
  <time>2026-09-01T20:03:44Z</time>
  <course>0.03</course>
  <speed>2.9000689646972186</speed>
  <fix>3d</fix>
</trkpt>
<trkpt lat="-27.2743901" lon="151.2900619">
  <ele>376.28</ele>
  <time>2026-09-01T20:03:44Z</time>
  <course>0.05</course>
  <speed>2.960152023123137</speed>
  <fix>3d</fix>
</trkpt>
<trkpt lat="-27.2743973" lon="151.2900618">
  <ele>376.24</ele>
  <time>2026-09-01T20:03:44Z</time>
  <course>0.0</course>
  <speed>2.7</speed>
  <fix>3d</fix>
</trkpt>
<trkpt lat="-27.2743893" lon="151.2900619">
  <ele>376.28</ele>
  <time>2026-09-01T20:03:44Z</time>
  <course>0.05</course>
  <speed>2.99015049788468</speed>
  <fix>3d</fix>
</trkpt>
<trkpt lat="-27.2743873" lon="151.2900619">
  <ele>376.28</ele>
  <time>2026-09-01T20:03:44Z</time>
  <course>0.06</course>
  <speed>3.0601470552899905</speed>
  <fix>3d</fix>
</trkpt>
<trkpt lat="-27.2743923" lon="151.2900618">
  <ele>376.25</ele>
  <time>2026-09-01T20:03:44Z</time>
  <course>0.29</course>
  <speed>2.89</speed>
  <fix>3d</fix>
</trkpt>
<trkpt lat="-27.2743866" lon="151.2900619">
  <ele>376.28</ele>
  <time>2026-09-01T20:03:44Z</time>
  <course>0.06</course>
  <speed>3.0901456276363417</speed>
  <fix>3d</fix>
</trkpt>
<trkpt lat="-27.2743846" lon="151.2900619">
  <ele>376.28</ele>
  <time>2026-09-01T20:03:44Z</time>
  <course>0.07</course>
  <speed>3.150253958016718</speed>
  <fix>3d</fix>
</trkpt>
<trkpt lat="-27.2743923" lon="151.2900618">
  <ele>376.25</ele>
  <time>2026-09-01T20:03:44Z</time>
  <course>0.29</course>
  <speed>2.89</speed>
  <fix>3d</fix>
</trkpt>
<trkpt lat="-27.2743845" lon="151.2900619">
  <ele>376.28</ele>
  <time>2026-09-01T20:03:44Z</time>
  <course>0.07</course>
  <speed>3.160253154416589</speed>
  <fix>3d</fix>
</trkpt>
<trkpt lat="-27.2743817" lon="151.2900619">
  <ele>376.28</ele>
  <time>2026-09-01T20:03:44Z</time>
  <course>0.07</course>
  <speed>3.250246144525057</speed>
  <fix>3d</fix>
</trkpt>
<trkpt lat="-27.2743869" lon="151.2900618">
  <ele>376.26</ele>
  <time>2026-09-01T20:03:44Z</time>
  <course>0.51</course>
  <speed>3.08</speed>
  <fix>3d</fix>
</trkpt>
<trkpt lat="-27.2743815" lon="151.2900619">
  <ele>376.28</ele>
  <time>2026-09-01T20:03:44Z</time>
  <course>0.07</course>
  <speed>3.2602453895374195</speed>
  <fix>3d</fix>
</trkpt>
<trkpt lat="-27.2743788" lon="151.2900619">
  <ele>376.29</ele>
  <time>2026-09-01T20:03:44Z</time>
  <course>0.07</course>
  <speed>3.350373113550191</speed>
  <fix>3d</fix>
</trkpt>
<trkpt lat="-27.2743869" lon="151.2900618">
  <ele>376.26</ele>
  <time>2026-09-01T20:03:44Z</time>
  <course>0.51</course>
  <speed>3.08</speed>
  <fix>3d</fix>
</trkpt>
<trkpt lat="-27.2743777" lon="151.290062">
  <ele>376.29</ele>
  <time>2026-09-01T20:03:44Z</time>
  <course>0.07</course>
  <speed>3.3803698022553688</speed>
  <fix>3d</fix>
</trkpt>
<trkpt lat="-27.2743757" lon="151.290062">
  <ele>376.29</ele>
  <time>2026-09-01T20:03:44Z</time>
  <course>0.07</course>
  <speed>3.450362299817223</speed>
  <fix>3d</fix>
</trkpt>
<trkpt lat="-27.2743812" lon="151.2900618">
  <ele>376.27</ele>
  <time>2026-09-01T20:03:44Z</time>
  <course>0.68</course>
  <speed>3.27</speed>
  <fix>3d</fix>
</trkpt>
<trkpt lat="-27.2743748" lon="151.290062">
  <ele>376.29</ele>
  <time>2026-09-01T20:03:44Z</time>
  <course>0.07</course>
  <speed>3.480359176866664</speed>
  <fix>3d</fix>
</trkpt>
<trkpt lat="-27.2743725" lon="151.290062">
  <ele>376.29</ele>
  <time>2026-09-01T20:03:44Z</time>
  <course>0.08</course>
  <speed>3.5503520952153464</speed>
  <fix>3d</fix>
</trkpt>
<trkpt lat="-27.2743812" lon="151.2900618">
  <ele>376.27</ele>
  <time>2026-09-01T20:03:44Z</time>
  <course>0.68</course>
  <speed>3.27</speed>
  <fix>3d</fix>
</trkpt>
<trkpt lat="-27.2743723" lon="151.290062">
  <ele>376.29</ele>
  <time>2026-09-01T20:03:44Z</time>
  <course>0.08</course>
  <speed>3.5503520952153464</speed>
  <fix>3d</fix>
</trkpt>
<trkpt lat="-27.2743693" lon="151.2900621">
  <ele>376.29</ele>
  <time>2026-09-01T20:03:44Z</time>
  <course>0.08</course>
  <speed>3.650493117374692</speed>
  <fix>3d</fix>
</trkpt>
<trkpt lat="-27.2743752" lon="151.2900618">
  <ele>376.27</ele>
  <time>2026-09-01T20:03:44Z</time>
  <course>0.81</course>
  <speed>3.47</speed>
  <fix>3d</fix>
</trkpt>
<trkpt lat="-27.2743683" lon="151.2900621">
  <ele>376.29</ele>
  <time>2026-09-01T20:03:44Z</time>
  <course>0.08</course>
  <speed>3.680489097932502</speed>
  <fix>3d</fix>
</trkpt>
<trkpt lat="-27.274366" lon="151.2900621">
  <ele>376.29</ele>
  <time>2026-09-01T20:03:44Z</time>
  <course>0.09</course>
  <speed>3.7504799692839317</speed>
  <fix>3d</fix>
</trkpt>
<trkpt lat="-27.2743752" lon="151.2900618">
  <ele>376.27</ele>
  <time>2026-09-01T20:03:44Z</time>
  <course>0.81</course>
  <speed>3.47</speed>
  <fix>3d</fix>
</trkpt>
<trkpt lat="-27.274365" lon="151.2900621">
  <ele>376.3</ele>
  <time>2026-09-01T20:03:44Z</time>
  <course>0.09</course>
  <speed>3.780476160485607</speed>
  <fix>3d</fix>
</trkpt>
<trkpt lat="-27.2743625" lon="151.2900622">
  <ele>376.3</ele>
  <time>2026-09-01T20:03:44Z</time>
  <course>0.09</course>
  <speed>3.850467504083108</speed>
  <fix>3d</fix>
</trkpt>
<trkpt lat="-27.2743688" lon="151.2900619">
  <ele>376.28</ele>
  <time>2026-09-01T20:03:44Z</time>
  <course>0.9</course>
  <speed>3.67</speed>
  <fix>3d</fix>
</trkpt>
<trkpt lat="-27.2743615" lon="151.2900622">
  <ele>376.3</ele>
  <time>2026-09-01T20:03:44Z</time>
  <course>0.09</course>
  <speed>3.8904626974178793</speed>
  <fix>3d</fix>
</trkpt>
<trkpt lat="-27.2743591" lon="151.2900622">
  <ele>376.3</ele>
  <time>2026-09-01T20:03:44Z</time>
  <course>0.1</course>
  <speed>3.9606186385462565</speed>
  <fix>3d</fix>
</trkpt>
<trkpt lat="-27.2743688" lon="151.2900619">
  <ele>376.28</ele>
  <time>2026-09-01T20:03:44Z</time>
  <course>0.9</course>
  <speed>3.67</speed>
  <fix>3d</fix>
</trkpt>
<trkpt lat="-27.2743578" lon="151.2900622">
  <ele>376.3</ele>
  <time>2026-09-01T20:03:44Z</time>
  <course>0.11</course>
  <speed>3.9906139878469826</speed>
  <fix>3d</fix>
</trkpt>
<trkpt lat="-27.2743554" lon="151.2900623">
  <ele>376.3</ele>
  <time>2026-09-01T20:03:44Z</time>
  <course>0.12</course>
  <speed>4.060603403436489</speed>
  <fix>3d</fix>
</trkpt>
<trkpt lat="-27.2743619" lon="151.2900621">
  <ele>376.28</ele>
  <time>2026-09-01T20:03:44Z</time>
  <course>0.95</course>
  <speed>3.88</speed>
  <fix>3d</fix>
</trkpt>
<trkpt lat="-27.2743543" lon="151.2900623">
  <ele>376.3</ele>
  <time>2026-09-01T20:03:44Z</time>
  <course>0.12</course>
  <speed>4.090598978144888</speed>
  <fix>3d</fix>
</trkpt>
<trkpt lat="-27.2743517" lon="151.2900623">
  <ele>376.31</ele>
  <time>2026-09-01T20:03:44Z</time>
  <course>0.13</course>
  <speed>4.170587488591985</speed>
  <fix>3d</fix>
</trkpt>
<trkpt lat="-27.2743619" lon="151.2900621">
  <ele>376.28</ele>
  <time>2026-09-01T20:03:44Z</time>
  <course>0.95</course>
  <speed>3.88</speed>
  <fix>3d</fix>
</trkpt>
<trkpt lat="-27.2743505" lon="151.2900623">
  <ele>376.31</ele>
  <time>2026-09-01T20:03:44Z</time>
  <course>0.14</course>
  <speed>4.2005832928297</speed>
  <fix>3d</fix>
</trkpt>
<trkpt lat="-27.2743479" lon="151.2900624">
  <ele>376.31</ele>
  <time>2026-09-01T20:03:44Z</time>
  <course>0.15</course>
  <speed>4.270573731947501</speed>
  <fix>3d</fix>
</trkpt>
<trkpt lat="-27.2743548" lon="151.2900622">
  <ele>376.29</ele>
  <time>2026-09-01T20:03:44Z</time>
  <course>0.98</course>
  <speed>4.08</speed>
  <fix>3d</fix>
</trkpt>
<trkpt lat="-27.2743478" lon="151.2900624">
  <ele>376.31</ele>
  <time>2026-09-01T20:03:44Z</time>
  <course>0.15</course>
  <speed>4.280572391631754</speed>
  <fix>3d</fix>
</trkpt>
<trkpt lat="-27.274344" lon="151.2900625">
  <ele>376.32</ele>
  <time>2026-09-01T20:03:44Z</time>
  <course>0.16</course>
  <speed>4.380559325017754</speed>
  <fix>3d</fix>
</trkpt>
<trkpt lat="-27.2743548" lon="151.2900622">
  <ele>376.29</ele>
  <time>2026-09-01T20:03:44Z</time>
  <course>0.98</course>
  <speed>4.08</speed>
  <fix>3d</fix>
</trkpt>
<trkpt lat="-27.2743437" lon="151.2900625">
  <ele>376.32</ele>
  <time>2026-09-01T20:03:44Z</time>
  <course>0.16</course>
  <speed>4.390558051091</speed>
  <fix>3d</fix>
</trkpt>
<trkpt lat="-27.27434" lon="151.2900625">
  <ele>376.32</ele>
  <time>2026-09-01T20:03:44Z</time>
  <course>0.17</course>
  <speed>4.480546841625473</speed>
  <fix>3d</fix>
</trkpt>
<trkpt lat="-27.2743472" lon="151.2900624">
  <ele>376.3</ele>
  <time>2026-09-01T20:03:44Z</time>
  <course>0.99</course>
  <speed>4.29</speed>
  <fix>3d</fix>
</trkpt>
<trkpt lat="-27.2743387" lon="151.2900625">
  <ele>376.32</ele>
  <time>2026-09-01T20:03:44Z</time>
  <course>0.18</course>
  <speed>4.520542002901864</speed>
  <fix>3d</fix>
</trkpt>
<trkpt lat="-27.2743359" lon="151.2900626">
  <ele>376.33</ele>
  <time>2026-09-01T20:03:44Z</time>
  <course>0.19</course>
  <speed>4.5905337380309055</speed>
  <fix>3d</fix>
</trkpt>
<trkpt lat="-27.2743472" lon="151.2900624">
  <ele>376.3</ele>
  <time>2026-09-01T20:03:44Z</time>
  <course>0.99</course>
  <speed>4.29</speed>
  <fix>3d</fix>
</trkpt>
<trkpt lat="-27.2743348" lon="151.2900626">
  <ele>376.33</ele>
  <time>2026-09-01T20:03:44Z</time>
  <course>0.19</course>
  <speed>4.6205302725985895</speed>
  <fix>3d</fix>
</trkpt>
<trkpt lat="-27.2743316" lon="151.2900627">
  <ele>376.33</ele>
  <time>2026-09-01T20:03:44Z</time>
  <course>0.19</course>
  <speed>4.700521247691579</speed>
  <fix>3d</fix>
</trkpt>
<trkpt lat="-27.2743393" lon="151.2900625">
  <ele>376.31</ele>
  <time>2026-09-01T20:03:44Z</time>
  <course>0.98</course>
  <speed>4.51</speed>
  <fix>3d</fix>
</trkpt>
<trkpt lat="-27.2743302" lon="151.2900627">
  <ele>376.33</ele>
  <time>2026-09-01T20:03:44Z</time>
  <course>0.2</course>
  <speed>4.740516849458506</speed>
  <fix>3d</fix>
</trkpt>
<trkpt lat="-27.2743273" lon="151.2900627">
  <ele>376.33</ele>
  <time>2026-09-01T20:03:44Z</time>
  <course>0.2</course>
  <speed>4.81050932854308</speed>
  <fix>3d</fix>
</trkpt>
<trkpt lat="-27.2743393" lon="151.2900625">
  <ele>376.31</ele>
  <time>2026-09-01T20:03:44Z</time>
  <course>0.98</course>
  <speed>4.51</speed>
  <fix>3d</fix>
</trkpt>
<trkpt lat="-27.274326" lon="151.2900628">
  <ele>376.34</ele>
  <time>2026-09-01T20:03:44Z</time>
  <course>0.2</course>
  <speed>4.840506171879135</speed>
  <fix>3d</fix>
</trkpt>
<trkpt lat="-27.274323" lon="151.2900628">
  <ele>376.34</ele>
  <time>2026-09-01T20:03:44Z</time>
  <course>0.2</course>
  <speed>4.910498956317983</speed>
  <fix>3d</fix>
</trkpt>
<trkpt lat="-27.274331" lon="151.2900627">
  <ele>376.32</ele>
  <time>2026-09-01T20:03:44Z</time>
  <course>0.96</course>
  <speed>4.72</speed>
  <fix>3d</fix>
</trkpt>
<trkpt lat="-27.2743216" lon="151.2900628">
  <ele>376.34</ele>
  <time>2026-09-01T20:03:44Z</time>
  <course>0.2</course>
  <speed>4.950494924752474</speed>
  <fix>3d</fix>
</trkpt>
<trkpt lat="-27.2743185" lon="151.2900629">
  <ele>376.34</ele>
  <time>2026-09-01T20:03:44Z</time>
  <course>0.21</course>
  <speed>5.020488024086902</speed>
  <fix>3d</fix>
</trkpt>
<trkpt lat="-27.274331" lon="151.2900627">
  <ele>376.32</ele>
  <time>2026-09-01T20:03:44Z</time>
  <course>0.96</course>
  <speed>4.72</speed>
  <fix>3d</fix>
</trkpt>
<trkpt lat="-27.2743182" lon="151.2900629">
  <ele>376.34</ele>
  <time>2026-09-01T20:03:44Z</time>
  <course>0.21</course>
  <speed>5.03048705395412</speed>
  <fix>3d</fix>
</trkpt>
<trkpt lat="-27.2743139" lon="151.290063">
  <ele>376.35</ele>
  <time>2026-09-01T20:03:44Z</time>
  <course>0.21</course>
  <speed>5.13047756061753</speed>
  <fix>3d</fix>
</trkpt>
<trkpt lat="-27.2743223" lon="151.2900629">
  <ele>376.33</ele>
  <time>2026-09-01T20:03:44Z</time>
  <course>0.91</course>
  <speed>4.93</speed>
  <fix>3d</fix>
</trkpt>
<trkpt lat="-27.2743126" lon="151.290063">
  <ele>376.35</ele>
  <time>2026-09-01T20:03:44Z</time>
  <course>0.21</course>
  <speed>5.160474784358509</speed>
  <fix>3d</fix>
</trkpt>
<trkpt lat="-27.2743092" lon="151.290063">
  <ele>376.36</ele>
  <time>2026-09-01T20:03:44Z</time>
  <course>0.21</course>
  <speed>5.240467536394058</speed>
  <fix>3d</fix>
</trkpt>
<trkpt lat="-27.2743223" lon="151.2900629">
  <ele>376.33</ele>
  <time>2026-09-01T20:03:44Z</time>
  <course>0.91</course>
  <speed>4.93</speed>
  <fix>3d</fix>
</trkpt>
<trkpt lat="-27.2743079" lon="151.2900631">
  <ele>376.36</ele>
  <time>2026-09-01T20:03:44Z</time>
  <course>0.21</course>
  <speed>5.270464875131983</speed>
  <fix>3d</fix>
</trkpt>
<trkpt lat="-27.2743044" lon="151.2900631">
  <ele>376.36</ele>
  <time>2026-09-01T20:03:44Z</time>
  <course>0.21</course>
  <speed>5.340458781790193</speed>
  <fix>3d</fix>
</trkpt>
<trkpt lat="-27.2743133" lon="151.290063">
  <ele>376.34</ele>
  <time>2026-09-01T20:03:44Z</time>
  <course>0.86</course>
  <speed>5.15</speed>
  <fix>3d</fix>
</trkpt>
<trkpt lat="-27.2743043" lon="151.2900631">
  <ele>376.36</ele>
  <time>2026-09-01T20:03:44Z</time>
  <course>0.21</course>
  <speed>5.350457924327599</speed>
  <fix>3d</fix>
</trkpt>
<trkpt lat="-27.2742996" lon="151.2900632">
  <ele>376.37</ele>
  <time>2026-09-01T20:03:44Z</time>
  <course>0.21</course>
  <speed>5.450449522745807</speed>
  <fix>3d</fix>
</trkpt>
<trkpt lat="-27.2743133" lon="151.290063">
  <ele>376.34</ele>
  <time>2026-09-01T20:03:44Z</time>
  <course>0.86</course>
  <speed>5.15</speed>
  <fix>3d</fix>
</trkpt>
<trkpt lat="-27.2742994" lon="151.2900632">
  <ele>376.37</ele>
  <time>2026-09-01T20:03:44Z</time>
  <course>0.21</course>
  <speed>5.46044869951179</speed>
  <fix>3d</fix>
</trkpt>
<trkpt lat="-27.2742946" lon="151.2900633">
  <ele>376.37</ele>
  <time>2026-09-01T20:03:44Z</time>
  <course>0.21</course>
  <speed>5.560440630022049</speed>
  <fix>3d</fix>
</trkpt>
<trkpt lat="-27.2743038" lon="151.2900632">
  <ele>376.35</ele>
  <time>2026-09-01T20:03:44Z</time>
  <course>0.8</course>
  <speed>5.36</speed>
  <fix>3d</fix>
</trkpt>
<trkpt lat="-27.2742931" lon="151.2900633">
  <ele>376.38</ele>
  <time>2026-09-01T20:03:44Z</time>
  <course>0.21</course>
  <speed>5.590438265467208</speed>
  <fix>3d</fix>
</trkpt>
<trkpt lat="-27.2742896" lon="151.2900633">
  <ele>376.38</ele>
  <time>2026-09-01T20:03:44Z</time>
  <course>0.21</course>
  <speed>5.67031745143074</speed>
  <fix>3d</fix>
</trkpt>
<trkpt lat="-27.2743038" lon="151.2900632">
  <ele>376.35</ele>
  <time>2026-09-01T20:03:44Z</time>
  <course>0.8</course>
  <speed>5.36</speed>
  <fix>3d</fix>
</trkpt>
<trkpt lat="-27.2742882" lon="151.2900634">
  <ele>376.38</ele>
  <time>2026-09-01T20:03:44Z</time>
  <course>0.21</course>
  <speed>5.700315780726538</speed>
  <fix>3d</fix>
</trkpt>
<trkpt lat="-27.2742844" lon="151.2900634">
  <ele>376.39</ele>
  <time>2026-09-01T20:03:44Z</time>
  <course>0.21</course>
  <speed>5.770311949972895</speed>
  <fix>3d</fix>
</trkpt>
<trkpt lat="-27.274294" lon="151.2900633">
  <ele>376.36</ele>
  <time>2026-09-01T20:03:44Z</time>
  <course>0.74</course>
  <speed>5.58</speed>
  <fix>3d</fix>
</trkpt>
<trkpt lat="-27.2742827" lon="151.2900634">
  <ele>376.39</ele>
  <time>2026-09-01T20:03:44Z</time>
  <course>0.2</course>
  <speed>5.810309802411572</speed>
  <fix>3d</fix>
</trkpt>
<trkpt lat="-27.2742792" lon="151.2900635">
  <ele>376.39</ele>
  <time>2026-09-01T20:03:44Z</time>
  <course>0.2</course>
  <speed>5.880306114480776</speed>
  <fix>3d</fix>
</trkpt>
<trkpt lat="-27.274294" lon="151.2900633">
  <ele>376.36</ele>
  <time>2026-09-01T20:03:44Z</time>
  <course>0.74</course>
  <speed>5.58</speed>
  <fix>3d</fix>
</trkpt>
<trkpt lat="-27.2742774" lon="151.2900635">
  <ele>376.39</ele>
  <time>2026-09-01T20:03:44Z</time>
  <course>0.2</course>
  <speed>5.920304046246274</speed>
  <fix>3d</fix>
</trkpt>
<trkpt lat="-27.2742738" lon="151.2900635">
  <ele>376.39</ele>
  <time>2026-09-01T20:03:44Z</time>
  <course>0.2</course>
  <speed>5.990300493297477</speed>
  <fix>3d</fix>
</trkpt>
<trkpt lat="-27.2742838" lon="151.2900634">
  <ele>376.37</ele>
  <time>2026-09-01T20:03:44Z</time>
  <course>0.67</course>
  <speed>5.79</speed>
  <fix>3d</fix>
</trkpt>
<trkpt lat="-27.2742722" lon="151.2900635">
  <ele>376.4</ele>
  <time>2026-09-01T20:03:44Z</time>
  <course>0.19</course>
  <speed>6.0202989958971305</speed>
  <fix>3d</fix>
</trkpt>
<trkpt lat="-27.2742685" lon="151.2900636">
  <ele>376.4</ele>
  <time>2026-09-01T20:03:44Z</time>
  <course>0.19</course>
  <speed>6.0902052510568145</speed>
  <fix>3d</fix>
</trkpt>
<trkpt lat="-27.2742838" lon="151.2900634">
  <ele>376.37</ele>
  <time>2026-09-01T20:03:44Z</time>
  <course>0.67</course>
  <speed>5.79</speed>
  <fix>3d</fix>
</trkpt>
<trkpt lat="-27.2742667" lon="151.2900636">
  <ele>376.4</ele>
  <time>2026-09-01T20:03:44Z</time>
  <course>0.19</course>
  <speed>6.130203911779771</speed>
  <fix>3d</fix>
</trkpt>
<trkpt lat="-27.274263" lon="151.2900636">
  <ele>376.4</ele>
  <time>2026-09-01T20:03:44Z</time>
  <course>0.18</course>
  <speed>6.200201609625287</speed>
  <fix>3d</fix>
</trkpt>
<trkpt lat="-27.2742732" lon="151.2900636">
  <ele>376.38</ele>
  <time>2026-09-01T20:03:44Z</time>
  <course>0.59</course>
  <speed>6.01</speed>
  <fix>3d</fix>
</trkpt>
<trkpt lat="-27.2742611" lon="151.2900637">
  <ele>376.4</ele>
  <time>2026-09-01T20:03:44Z</time>
  <course>0.18</course>
  <speed>6.230200638823761</speed>
  <fix>3d</fix>
</trkpt>
<trkpt lat="-27.2742574" lon="151.2900637">
  <ele>376.41</ele>
  <time>2026-09-01T20:03:44Z</time>
  <course>0.18</course>
  <speed>6.300198409574099</speed>
  <fix>3d</fix>
</trkpt>
<trkpt lat="-27.2742732" lon="151.2900636">
  <ele>376.38</ele>
  <time>2026-09-01T20:03:44Z</time>
  <course>0.59</course>
  <speed>6.01</speed>
  <fix>3d</fix>
</trkpt>
<trkpt lat="-27.2742557" lon="151.2900637">
  <ele>376.41</ele>
  <time>2026-09-01T20:03:44Z</time>
  <course>0.18</course>
  <speed>6.340197157817728</speed>
  <fix>3d</fix>
</trkpt>
<trkpt lat="-27.2742517" lon="151.2900637">
  <ele>376.41</ele>
  <time>2026-09-01T20:03:44Z</time>
  <course>0.17</course>
  <speed>6.410124803777225</speed>
  <fix>3d</fix>
</trkpt>
<trkpt lat="-27.2742622" lon="151.2900637">
  <ele>376.39</ele>
  <time>2026-09-01T20:03:44Z</time>
  <course>0.52</course>
  <speed>6.22</speed>
  <fix>3d</fix>
</trkpt>
<trkpt lat="-27.2742501" lon="151.2900638">
  <ele>376.41</ele>
  <time>2026-09-01T20:03:44Z</time>
  <course>0.17</course>
  <speed>6.4401242224044095</speed>
  <fix>3d</fix>
</trkpt>
<trkpt lat="-27.2742459" lon="151.2900638">
  <ele>376.41</ele>
  <time>2026-09-01T20:03:44Z</time>
  <course>0.17</course>
  <speed>6.520122698231989</speed>
  <fix>3d</fix>
</trkpt>
<trkpt lat="-27.2742622" lon="151.2900637">
  <ele>376.39</ele>
  <time>2026-09-01T20:03:44Z</time>
  <course>0.52</course>
  <speed>6.22</speed>
  <fix>3d</fix>
</trkpt>
<trkpt lat="-27.2742456" lon="151.2900638">
  <ele>376.41</ele>
  <time>2026-09-01T20:03:44Z</time>
  <course>0.17</course>
  <speed>6.520122698231989</speed>
  <fix>3d</fix>
</trkpt>
<trkpt lat="-27.2742399" lon="151.2900638">
  <ele>376.41</ele>
  <time>2026-09-01T20:03:44Z</time>
  <course>0.16</course>
  <speed>6.630120662552077</speed>
  <fix>3d</fix>
</trkpt>
<trkpt lat="-27.2742508" lon="151.2900638">
  <ele>376.4</ele>
  <time>2026-09-01T20:03:44Z</time>
  <course>0.44</course>
  <speed>6.43</speed>
  <fix>3d</fix>
</trkpt>
<trkpt lat="-27.2742397" lon="151.2900638">
  <ele>376.41</ele>
  <time>2026-09-01T20:03:44Z</time>
  <course>0.16</course>
  <speed>6.630120662552077</speed>
  <fix>3d</fix>
</trkpt>
<trkpt lat="-27.2742339" lon="151.2900639">
  <ele>376.41</ele>
  <time>2026-09-01T20:03:44Z</time>
  <course>0.16</course>
  <speed>6.730066864452389</speed>
  <fix>3d</fix>
</trkpt>
<trkpt lat="-27.2742508" lon="151.2900638">
  <ele>376.4</ele>
  <time>2026-09-01T20:03:44Z</time>
  <course>0.44</course>
  <speed>6.43</speed>
  <fix>3d</fix>
</trkpt>
<trkpt lat="-27.2742322" lon="151.2900639">
  <ele>376.41</ele>
  <time>2026-09-01T20:03:44Z</time>
  <course>0.16</course>
  <speed>6.760066567719581</speed>
  <fix>3d</fix>
</trkpt>
<trkpt lat="-27.2742278" lon="151.2900639">
  <ele>376.42</ele>
  <time>2026-09-01T20:03:44Z</time>
  <course>0.15</course>
  <speed>6.840065789157294</speed>
  <fix>3d</fix>
</trkpt>
<trkpt lat="-27.274239" lon="151.2900639">
  <ele>376.41</ele>
  <time>2026-09-01T20:03:44Z</time>
  <course>0.37</course>
  <speed>6.65</speed>
  <fix>3d</fix>
</trkpt>
<trkpt lat="-27.2742257" lon="151.2900639">
  <ele>376.42</ele>
  <time>2026-09-01T20:03:44Z</time>
  <course>0.15</course>
  <speed>6.870065501871142</speed>
  <fix>3d</fix>
</trkpt>
<trkpt lat="-27.2742214" lon="151.290064">
  <ele>376.42</ele>
  <time>2026-09-01T20:03:44Z</time>
  <course>0.14</course>
  <speed>6.950064747899835</speed>
  <fix>3d</fix>
</trkpt>
<trkpt lat="-27.274239" lon="151.2900639">
  <ele>376.41</ele>
  <time>2026-09-01T20:03:44Z</time>
  <course>0.37</course>
  <speed>6.65</speed>
  <fix>3d</fix>
</trkpt>
<trkpt lat="-27.2742197" lon="151.290064">
  <ele>376.43</ele>
  <time>2026-09-01T20:03:44Z</time>
  <course>0.14</course>
  <speed>6.9700645621113155</speed>
  <fix>3d</fix>
</trkpt>
<trkpt lat="-27.2742152" lon="151.290064">
  <ele>376.43</ele>
  <time>2026-09-01T20:03:44Z</time>
  <course>0.13</course>
  <speed>7.05002836873725</speed>
  <fix>3d</fix>
</trkpt>
<trkpt lat="-27.2742269" lon="151.290064">
  <ele>376.43</ele>
  <time>2026-09-01T20:03:44Z</time>
  <course>0.3</course>
  <speed>6.86</speed>
  <fix>3d</fix>
</trkpt>
<trkpt lat="-27.2742134" lon="151.290064">
  <ele>376.43</ele>
  <time>2026-09-01T20:03:44Z</time>
  <course>0.12</course>
  <speed>7.0800282485312165</speed>
  <fix>3d</fix>
</trkpt>
<trkpt lat="-27.2742088" lon="151.290064">
  <ele>376.44</ele>
  <time>2026-09-01T20:03:44Z</time>
  <course>0.11</course>
  <speed>7.150027971973256</speed>
  <fix>3d</fix>
</trkpt>
<trkpt lat="-27.2742269" lon="151.290064">
  <ele>376.43</ele>
  <time>2026-09-01T20:03:44Z</time>
  <course>0.3</course>
  <speed>6.86</speed>
  <fix>3d</fix>
</trkpt>
<trkpt lat="-27.2742072" lon="151.290064">
  <ele>376.44</ele>
  <time>2026-09-01T20:03:44Z</time>
  <course>0.11</course>
  <speed>7.180027855099171</speed>
  <fix>3d</fix>
</trkpt>
<trkpt lat="-27.2742023" lon="151.290064">
  <ele>376.45</ele>
  <time>2026-09-01T20:03:44Z</time>
  <course>0.1</course>
  <speed>7.260027548157101</speed>
  <fix>3d</fix>
</trkpt>
<trkpt lat="-27.2742143" lon="151.2900641">
  <ele>376.44</ele>
  <time>2026-09-01T20:03:44Z</time>
  <course>0.23</course>
  <speed>7.07</speed>
  <fix>3d</fix>
</trkpt>
<trkpt lat="-27.2742004" lon="151.2900641">
  <ele>376.45</ele>
  <time>2026-09-01T20:03:44Z</time>
  <course>0.1</course>
  <speed>7.290027434790626</speed>
  <fix>3d</fix>
</trkpt>
<trkpt lat="-27.2741958" lon="151.2900641">
  <ele>376.45</ele>
  <time>2026-09-01T20:03:44Z</time>
  <course>0.1</course>
  <speed>7.360027173862879</speed>
  <fix>3d</fix>
</trkpt>
<trkpt lat="-27.2742143" lon="151.2900641">
  <ele>376.44</ele>
  <time>2026-09-01T20:03:44Z</time>
  <course>0.23</course>
  <speed>7.07</speed>
  <fix>3d</fix>
</trkpt>
<trkpt lat="-27.2741942" lon="151.2900641">
  <ele>376.46</ele>
  <time>2026-09-01T20:03:44Z</time>
  <course>0.09</course>
  <speed>7.390027063549903</speed>
  <fix>3d</fix>
</trkpt>
<trkpt lat="-27.2741891" lon="151.2900641">
  <ele>376.46</ele>
  <time>2026-09-01T20:03:44Z</time>
  <course>0.09</course>
  <speed>7.47000669343743</speed>
  <fix>3d</fix>
</trkpt>
<trkpt lat="-27.2742014" lon="151.2900641">
  <ele>376.46</ele>
  <time>2026-09-01T20:03:44Z</time>
  <course>0.18</course>
  <speed>7.28</speed>
  <fix>3d</fix>
</trkpt>
<trkpt lat="-27.2741871" lon="151.2900641">
  <ele>376.47</ele>
  <time>2026-09-01T20:03:44Z</time>
  <course>0.08</course>
  <speed>7.500006666663705</speed>
  <fix>3d</fix>
</trkpt>
<trkpt lat="-27.2741824" lon="151.2900641">
  <ele>376.47</ele>
  <time>2026-09-01T20:03:44Z</time>
  <course>0.08</course>
  <speed>7.570006605016934</speed>
  <fix>3d</fix>
</trkpt>
<trkpt lat="-27.2742014" lon="151.2900641">
  <ele>376.46</ele>
  <time>2026-09-01T20:03:44Z</time>
  <course>0.18</course>
  <speed>7.28</speed>
  <fix>3d</fix>
</trkpt>
<trkpt lat="-27.2741821" lon="151.2900641">
  <ele>376.47</ele>
  <time>2026-09-01T20:03:44Z</time>
  <course>0.08</course>
  <speed>7.570006605016934</speed>
  <fix>3d</fix>
</trkpt>
<trkpt lat="-27.2741755" lon="151.2900641">
  <ele>376.48</ele>
  <time>2026-09-01T20:03:44Z</time>
  <course>0.07</course>
  <speed>7.670006518902054</speed>
  <fix>3d</fix>
</trkpt>
<trkpt lat="-27.2741882" lon="151.2900642">
  <ele>376.47</ele>
  <time>2026-09-01T20:03:44Z</time>
  <course>0.12</course>
  <speed>7.49</speed>
  <fix>3d</fix>
</trkpt>
<trkpt lat="-27.2741751" lon="151.2900641">
  <ele>376.48</ele>
  <time>2026-09-01T20:03:44Z</time>
  <course>0.07</course>
  <speed>7.680006510413907</speed>
  <fix>3d</fix>
</trkpt>
<trkpt lat="-27.2741686" lon="151.2900641">
  <ele>376.48</ele>
  <time>2026-09-01T20:03:44Z</time>
  <course>0.07</course>
  <speed>7.780006426732564</speed>
  <fix>3d</fix>
</trkpt>
<trkpt lat="-27.2741882" lon="151.2900642">
  <ele>376.47</ele>
  <time>2026-09-01T20:03:44Z</time>
  <course>0.12</course>
  <speed>7.49</speed>
  <fix>3d</fix>
</trkpt>
<trkpt lat="-27.2741665" lon="151.2900641">
  <ele>376.49</ele>
  <time>2026-09-01T20:03:44Z</time>
  <course>0.06</course>
  <speed>7.81</speed>
  <fix>3d</fix>
</trkpt>
<trkpt lat="-27.2741616" lon="151.2900642">
  <ele>376.49</ele>
  <time>2026-09-01T20:03:44Z</time>
  <course>0.06</course>
  <speed>7.88</speed>
  <fix>3d</fix>
</trkpt>
<trkpt lat="-27.2741745" lon="151.2900642">
  <ele>376.49</ele>
  <time>2026-09-01T20:03:44Z</time>
  <course>0.07</course>
  <speed>7.7</speed>
  <fix>3d</fix>
</trkpt>
<trkpt lat="-27.2741597" lon="151.2900642">
  <ele>376.49</ele>
  <time>2026-09-01T20:03:44Z</time>
  <course>0.06</course>
  <speed>7.91</speed>
  <fix>3d</fix>
</trkpt>
<trkpt lat="-27.2741545" lon="151.2900642">
  <ele>376.5</ele>
  <time>2026-09-01T20:03:44Z</time>
  <course>0.05</course>
  <speed>7.98</speed>
  <fix>3d</fix>
</trkpt>
<trkpt lat="-27.2741745" lon="151.2900642">
  <ele>376.49</ele>
  <time>2026-09-01T20:03:44Z</time>
  <course>0.07</course>
  <speed>7.7</speed>
  <fix>3d</fix>
</trkpt>
<trkpt lat="-27.2741526" lon="151.2900642">
  <ele>376.5</ele>
  <time>2026-09-01T20:03:44Z</time>
  <course>0.05</course>
  <speed>8.01</speed>
  <fix>3d</fix>
</trkpt>
<trkpt lat="-27.2741473" lon="151.2900642">
  <ele>376.5</ele>
  <time>2026-09-01T20:03:44Z</time>
  <course>0.05</course>
  <speed>8.09</speed>
  <fix>3d</fix>
</trkpt>
<trkpt lat="-27.2741605" lon="151.2900642">
  <ele>376.51</ele>
  <time>2026-09-01T20:03:44Z</time>
  <course>0.03</course>
  <speed>7.91</speed>
  <fix>3d</fix>
</trkpt>
<trkpt lat="-27.2741468" lon="151.2900642">
  <ele>376.5</ele>
  <time>2026-09-01T20:03:44Z</time>
  <course>0.05</course>
  <speed>8.09</speed>
  <fix>3d</fix>
</trkpt>
<trkpt lat="-27.27414" lon="151.2900642">
  <ele>376.51</ele>
  <time>2026-09-01T20:03:44Z</time>
  <course>0.04</course>
  <speed>8.19</speed>
  <fix>3d</fix>
</trkpt>
<trkpt lat="-27.2741605" lon="151.2900642">
  <ele>376.51</ele>
  <time>2026-09-01T20:03:44Z</time>
  <course>0.03</course>
  <speed>7.91</speed>
  <fix>3d</fix>
</trkpt>
<trkpt lat="-27.2741372" lon="151.2900642">
  <ele>376.52</ele>
  <time>2026-09-01T20:03:44Z</time>
  <course>0.04</course>
  <speed>8.23</speed>
  <fix>3d</fix>
</trkpt>
<trkpt lat="-27.2741325" lon="151.2900642">
  <ele>376.52</ele>
  <time>2026-09-01T20:03:44Z</time>
  <course>0.03</course>
  <speed>8.29</speed>
  <fix>3d</fix>
</trkpt>
<trkpt lat="-27.2741461" lon="151.2900642">
  <ele>376.52</ele>
  <time>2026-09-01T20:03:44Z</time>
  <course>0.0</course>
  <speed>8.12</speed>
  <fix>3d</fix>
</trkpt>
<trkpt lat="-27.2741301" lon="151.2900642">
  <ele>376.52</ele>
  <time>2026-09-01T20:03:44Z</time>
  <course>0.03</course>
  <speed>8.33</speed>
  <fix>3d</fix>
</trkpt>
<trkpt lat="-27.2741251" lon="151.2900642">
  <ele>376.53</ele>
  <time>2026-09-01T20:03:44Z</time>
  <course>0.02</course>
  <speed>8.4</speed>
  <fix>3d</fix>
</trkpt>
<trkpt lat="-27.2741461" lon="151.2900642">
  <ele>376.52</ele>
  <time>2026-09-01T20:03:44Z</time>
  <course>0.0</course>
  <speed>8.12</speed>
  <fix>3d</fix>
</trkpt>
<trkpt lat="-27.274123" lon="151.2900642">
  <ele>376.53</ele>
  <time>2026-09-01T20:03:44Z</time>
  <course>0.02</course>
  <speed>8.42</speed>
  <fix>3d</fix>
</trkpt>
<trkpt lat="-27.2741175" lon="151.2900642">
  <ele>376.54</ele>
  <time>2026-09-01T20:03:44Z</time>
  <course>0.02</course>
  <speed>8.5</speed>
  <fix>3d</fix>
</trkpt>
<trkpt lat="-27.2741313" lon="151.2900642">
  <ele>376.53</ele>
  <time>2026-09-01T20:03:44Z</time>
  <course>359.96</course>
  <speed>8.33</speed>
  <fix>3d</fix>
</trkpt>
<trkpt lat="-27.2741154" lon="151.2900642">
  <ele>376.54</ele>
  <time>2026-09-01T20:03:44Z</time>
  <course>0.01</course>
  <speed>8.53</speed>
  <fix>3d</fix>
</trkpt>
<trkpt lat="-27.2741098" lon="151.2900642">
  <ele>376.55</ele>
  <time>2026-09-01T20:03:44Z</time>
  <course>0.01</course>
  <speed>8.6</speed>
  <fix>3d</fix>
</trkpt>
<trkpt lat="-27.2741313" lon="151.2900642">
  <ele>376.53</ele>
  <time>2026-09-01T20:03:44Z</time>
  <course>359.96</course>
  <speed>8.33</speed>
  <fix>3d</fix>
</trkpt>
<trkpt lat="-27.2741072" lon="151.2900642">
  <ele>376.56</ele>
  <time>2026-09-01T20:03:44Z</time>
  <course>0.01</course>
  <speed>8.64</speed>
  <fix>3d</fix>
</trkpt>
<trkpt lat="-27.274102" lon="151.2900642">
  <ele>376.56</ele>
  <time>2026-09-01T20:03:44Z</time>
  <course>0.0</course>
  <speed>8.7</speed>
  <fix>3d</fix>
</trkpt>
<trkpt lat="-27.2741161" lon="151.2900642">
  <ele>376.55</ele>
  <time>2026-09-01T20:03:44Z</time>
  <course>359.94</course>
  <speed>8.54</speed>
  <fix>3d</fix>
</trkpt>
<trkpt lat="-27.2741017" lon="151.2900642">
  <ele>376.56</ele>
  <time>2026-09-01T20:03:44Z</time>
  <course>0.0</course>
  <speed>8.71</speed>
  <fix>3d</fix>
</trkpt>
<trkpt lat="-27.2740941" lon="151.2900642">
  <ele>376.57</ele>
  <time>2026-09-01T20:03:44Z</time>
  <course>0.0</course>
  <speed>8.8</speed>
  <fix>3d</fix>
</trkpt>
<trkpt lat="-27.2741161" lon="151.2900642">
  <ele>376.55</ele>
  <time>2026-09-01T20:03:44Z</time>
  <course>359.94</course>
  <speed>8.54</speed>
  <fix>3d</fix>
</trkpt>
<trkpt lat="-27.2740939" lon="151.2900642">
  <ele>376.57</ele>
  <time>2026-09-01T20:03:44Z</time>
  <course>0.0</course>
  <speed>8.81</speed>
  <fix>3d</fix>
</trkpt>
<trkpt lat="-27.2740862" lon="151.2900642">
  <ele>376.58</ele>
  <time>2026-09-01T20:03:44Z</time>
  <course>0.0</course>
  <speed>8.910005611670512</speed>
  <fix>3d</fix>
</trkpt>
<trkpt lat="-27.2741005" lon="151.2900642">
  <ele>376.57</ele>
  <time>2026-09-01T20:03:44Z</time>
  <course>359.91</course>
  <speed>8.74</speed>
  <fix>3d</fix>
</trkpt>
<trkpt lat="-27.2740837" lon="151.2900642">
  <ele>376.58</ele>
  <time>2026-09-01T20:03:44Z</time>
  <course>0.0</course>
  <speed>8.940005592839414</speed>
  <fix>3d</fix>
</trkpt>
<trkpt lat="-27.2740783" lon="151.2900642">
  <ele>376.59</ele>
  <time>2026-09-01T20:03:44Z</time>
  <course>0.0</course>
  <speed>9.000005555553841</speed>
  <fix>3d</fix>
</trkpt>
<trkpt lat="-27.2741005" lon="151.2900642">
  <ele>376.57</ele>
  <time>2026-09-01T20:03:44Z</time>
  <course>359.91</course>
  <speed>8.74</speed>
  <fix>3d</fix>
</trkpt>
<trkpt lat="-27.2740756" lon="151.2900642">
  <ele>376.59</ele>
  <time>2026-09-01T20:03:44Z</time>
  <course>0.0</course>
  <speed>9.04000553097176</speed>
  <fix>3d</fix>
</trkpt>
<trkpt lat="-27.2740699" lon="151.2900642">
  <ele>376.59</ele>
  <time>2026-09-01T20:03:44Z</time>
  <course>0.0</course>
  <speed>9.11000548847255</speed>
  <fix>3d</fix>
</trkpt>
<trkpt lat="-27.2740846" lon="151.2900642">
  <ele>376.59</ele>
  <time>2026-09-01T20:03:44Z</time>
  <course>359.89</course>
  <speed>8.95</speed>
  <fix>3d</fix>
</trkpt>
<trkpt lat="-27.2740671" lon="151.2900642">
  <ele>376.6</ele>
  <time>2026-09-01T20:03:44Z</time>
  <course>0.0</course>
  <speed>9.140005470457881</speed>
  <fix>3d</fix>
</trkpt>
<trkpt lat="-27.2740617" lon="151.2900642">
  <ele>376.6</ele>
  <time>2026-09-01T20:03:44Z</time>
  <course>0.0</course>
  <speed>9.200005434781003</speed>
  <fix>3d</fix>
</trkpt>
<trkpt lat="-27.2740846" lon="151.2900642">
  <ele>376.59</ele>
  <time>2026-09-01T20:03:44Z</time>
  <course>359.89</course>
  <speed>8.95</speed>
  <fix>3d</fix>
</trkpt>
<trkpt lat="-27.2740592" lon="151.2900642">
  <ele>376.61</ele>
  <time>2026-09-01T20:03:44Z</time>
  <course>0.0</course>
  <speed>9.230005417116503</speed>
  <fix>3d</fix>
</trkpt>
<trkpt lat="-27.2740533" lon="151.2900642">
  <ele>376.61</ele>
  <time>2026-09-01T20:03:44Z</time>
  <course>0.0</course>
  <speed>9.300005376342533</speed>
  <fix>3d</fix>
</trkpt>
<trkpt lat="-27.2740684" lon="151.2900642">
  <ele>376.6</ele>
  <time>2026-09-01T20:03:44Z</time>
  <course>359.88</course>
  <speed>9.15</speed>
  <fix>3d</fix>
</trkpt>
<trkpt lat="-27.274051" lon="151.2900642">
  <ele>376.61</ele>
  <time>2026-09-01T20:03:44Z</time>
  <course>0.0</course>
  <speed>9.330005359055267</speed>
  <fix>3d</fix>
</trkpt>
<trkpt lat="-27.2740449" lon="151.2900642">
  <ele>376.62</ele>
  <time>2026-09-01T20:03:44Z</time>
  <course>359.99</course>
  <speed>9.40000531914743</speed>
  <fix>3d</fix>
</trkpt>
<trkpt lat="-27.2740684" lon="151.2900642">
  <ele>376.6</ele>
  <time>2026-09-01T20:03:44Z</time>
  <course>359.88</course>
  <speed>9.15</speed>
  <fix>3d</fix>
</trkpt>
<trkpt lat="-27.2740424" lon="151.2900642">
  <ele>376.62</ele>
  <time>2026-09-01T20:03:44Z</time>
  <course>359.99</course>
  <speed>9.430005302225446</speed>
  <fix>3d</fix>
</trkpt>
<trkpt lat="-27.2740364" lon="151.2900641">
  <ele>376.63</ele>
  <time>2026-09-01T20:03:44Z</time>
  <course>359.99</course>
  <speed>9.500005263156437</speed>
  <fix>3d</fix>
</trkpt>
<trkpt lat="-27.2740518" lon="151.2900642">
  <ele>376.62</ele>
  <time>2026-09-01T20:03:44Z</time>
  <course>359.87</course>
  <speed>9.34</speed>
  <fix>3d</fix>
</trkpt>
<trkpt lat="-27.2740335" lon="151.2900641">
  <ele>376.63</ele>
  <time>2026-09-01T20:03:44Z</time>
  <course>359.99</course>
  <speed>9.540005241088707</speed>
  <fix>3d</fix>
</trkpt>
<trkpt lat="-27.2740277" lon="151.2900641">
  <ele>376.64</ele>
  <time>2026-09-01T20:03:44Z</time>
  <course>359.99</course>
  <speed>9.60000520833192</speed>
  <fix>3d</fix>
</trkpt>
<trkpt lat="-27.2740518" lon="151.2900642">
  <ele>376.62</ele>
  <time>2026-09-01T20:03:44Z</time>
  <course>359.87</course>
  <speed>9.34</speed>
  <fix>3d</fix>
</trkpt>
<trkpt lat="-27.274026" lon="151.2900641">
  <ele>376.64</ele>
  <time>2026-09-01T20:03:44Z</time>
  <course>359.99</course>
  <speed>9.620005197503794</speed>
  <fix>3d</fix>
</trkpt>
<trkpt lat="-27.274019" lon="151.2900641">
  <ele>376.64</ele>
  <time>2026-09-01T20:03:44Z</time>
  <course>359.99</course>
  <speed>9.700005154637806</speed>
  <fix>3d</fix>
</trkpt>
<trkpt lat="-27.2740348" lon="151.2900641">
  <ele>376.64</ele>
  <time>2026-09-01T20:03:44Z</time>
  <course>359.86</course>
  <speed>9.54</speed>
  <fix>3d</fix>
</trkpt>
<trkpt lat="-27.2740187" lon="151.2900641">
  <ele>376.64</ele>
  <time>2026-09-01T20:03:44Z</time>
  <course>359.99</course>
  <speed>9.700005154637806</speed>
  <fix>3d</fix>
</trkpt>
<trkpt lat="-27.2740102" lon="151.2900641">
  <ele>376.65</ele>
  <time>2026-09-01T20:03:44Z</time>
  <course>359.99</course>
  <speed>9.800005102039488</speed>
  <fix>3d</fix>
</trkpt>
<trkpt lat="-27.2740348" lon="151.2900641">
  <ele>376.64</ele>
  <time>2026-09-01T20:03:44Z</time>
  <course>359.86</course>
  <speed>9.54</speed>
  <fix>3d</fix>
</trkpt>
<trkpt lat="-27.2740096" lon="151.2900641">
  <ele>376.65</ele>
  <time>2026-09-01T20:03:44Z</time>
  <course>359.99</course>
  <speed>9.800005102039488</speed>
  <fix>3d</fix>
</trkpt>
<trkpt lat="-27.2740013" lon="151.2900641">
  <ele>376.65</ele>
  <time>2026-09-01T20:03:44Z</time>
  <course>359.99</course>
  <speed>9.900005050503761</speed>
  <fix>3d</fix>
</trkpt>
<trkpt lat="-27.2740175" lon="151.2900641">
  <ele>376.66</ele>
  <time>2026-09-01T20:03:44Z</time>
  <course>359.85</course>
  <speed>9.74</speed>
  <fix>3d</fix>
</trkpt>
<trkpt lat="-27.2739984" lon="151.2900641">
  <ele>376.66</ele>
  <time>2026-09-01T20:03:44Z</time>
  <course>359.99</course>
  <speed>9.93000503524545</speed>
  <fix>3d</fix>
</trkpt>
<trkpt lat="-27.2739924" lon="151.2900641">
  <ele>376.66</ele>
  <time>2026-09-01T20:03:44Z</time>
  <course>359.99</course>
  <speed>9.99000500500375</speed>
  <fix>3d</fix>
</trkpt>
<trkpt lat="-27.2740175" lon="151.2900641">
  <ele>376.66</ele>
  <time>2026-09-01T20:03:44Z</time>
  <course>359.85</course>
  <speed>9.74</speed>
  <fix>3d</fix>
</trkpt>
<trkpt lat="-27.27399" lon="151.2900641">
  <ele>376.66</ele>
  <time>2026-09-01T20:03:44Z</time>
  <course>359.99</course>
  <speed>10.020004990018718</speed>
  <fix>3d</fix>
</trkpt>
<trkpt lat="-27.2739833" lon="151.290064">
  <ele>376.67</ele>
  <time>2026-09-01T20:03:44Z</time>
  <course>0.0</course>
  <speed>10.09000495540017</speed>
  <fix>3d</fix>
</trkpt>
<trkpt lat="-27.2739998" lon="151.290064">
  <ele>376.67</ele>
  <time>2026-09-01T20:03:44Z</time>
  <course>359.85</course>
  <speed>9.93</speed>
  <fix>3d</fix>
</trkpt>
<trkpt lat="-27.2739806" lon="151.290064">
  <ele>376.67</ele>
  <time>2026-09-01T20:03:44Z</time>
  <course>0.0</course>
  <speed>10.120004940710256</speed>
  <fix>3d</fix>
</trkpt>
<trkpt lat="-27.2739741" lon="151.290064">
  <ele>376.68</ele>
  <time>2026-09-01T20:03:44Z</time>
  <course>0.0</course>
  <speed>10.190004906770163</speed>
  <fix>3d</fix>
</trkpt>
<trkpt lat="-27.2739998" lon="151.290064">
  <ele>376.67</ele>
  <time>2026-09-01T20:03:44Z</time>
  <course>359.85</course>
  <speed>9.93</speed>
  <fix>3d</fix>
</trkpt>
<trkpt lat="-27.2739711" lon="151.290064">
  <ele>376.68</ele>
  <time>2026-09-01T20:03:44Z</time>
  <course>0.0</course>
  <speed>10.220004892366735</speed>
  <fix>3d</fix>
</trkpt>
<trkpt lat="-27.2739649" lon="151.290064">
  <ele>376.68</ele>
  <time>2026-09-01T20:03:44Z</time>
  <course>0.0</course>
  <speed>10.290004859085345</speed>
  <fix>3d</fix>
</trkpt>
<trkpt lat="-27.2739818" lon="151.290064">
  <ele>376.69</ele>
  <time>2026-09-01T20:03:44Z</time>
  <course>359.85</course>
  <speed>10.12</speed>
  <fix>3d</fix>
</trkpt>
<trkpt lat="-27.2739615" lon="151.290064">
  <ele>376.69</ele>
  <time>2026-09-01T20:03:44Z</time>
  <course>0.0</course>
  <speed>10.320004844960103</speed>
  <fix>3d</fix>
</trkpt>
<trkpt lat="-27.2739556" lon="151.290064">
  <ele>376.69</ele>
  <time>2026-09-01T20:03:44Z</time>
  <course>0.0</course>
  <speed>10.380004816954566</speed>
  <fix>3d</fix>
</trkpt>
<trkpt lat="-27.2739818" lon="151.290064">
  <ele>376.69</ele>
  <time>2026-09-01T20:03:44Z</time>
  <course>359.85</course>
  <speed>10.12</speed>
  <fix>3d</fix>
</trkpt>
<trkpt lat="-27.2739524" lon="151.290064">
  <ele>376.69</ele>
  <time>2026-09-01T20:03:44Z</time>
  <course>0.0</course>
  <speed>10.420004798463388</speed>
  <fix>3d</fix>
</trkpt>
<trkpt lat="-27.2739461" lon="151.290064">
  <ele>376.7</ele>
  <time>2026-09-01T20:03:44Z</time>
  <course>0.0</course>
  <speed>10.48000477099128</speed>
  <fix>3d</fix>
</trkpt>
<trkpt lat="-27.2739634" lon="151.2900639">
  <ele>376.71</ele>
  <time>2026-09-01T20:03:44Z</time>
  <course>359.85</course>
  <speed>10.32</speed>
  <fix>3d</fix>
</trkpt>
<trkpt lat="-27.273943" lon="151.290064">
  <ele>376.7</ele>
  <time>2026-09-01T20:03:44Z</time>
  <course>0.0</course>
  <speed>10.510004757372853</speed>
  <fix>3d</fix>
</trkpt>
<trkpt lat="-27.2739366" lon="151.2900639">
  <ele>376.71</ele>
  <time>2026-09-01T20:03:44Z</time>
  <course>0.0</course>
  <speed>10.580004725896865</speed>
  <fix>3d</fix>
</trkpt>
<trkpt lat="-27.2739634" lon="151.2900639">
  <ele>376.71</ele>
  <time>2026-09-01T20:03:44Z</time>
  <course>359.85</course>
  <speed>10.32</speed>
  <fix>3d</fix>
</trkpt>
<trkpt lat="-27.2739341" lon="151.2900639">
  <ele>376.71</ele>
  <time>2026-09-01T20:03:44Z</time>
  <course>0.0</course>
  <speed>10.600004716980084</speed>
  <fix>3d</fix>
</trkpt>
<trkpt lat="-27.2739271" lon="151.2900639">
  <ele>376.72</ele>
  <time>2026-09-01T20:03:44Z</time>
  <course>0.0</course>
  <speed>10.670004686034586</speed>
  <fix>3d</fix>
</trkpt>
<trkpt lat="-27.2739447" lon="151.2900639">
  <ele>376.72</ele>
  <time>2026-09-01T20:03:44Z</time>
  <course>359.85</course>
  <speed>10.51</speed>
  <fix>3d</fix>
</trkpt>
<trkpt lat="-27.2739245" lon="151.2900639">
  <ele>376.72</ele>
  <time>2026-09-01T20:03:44Z</time>
  <course>0.0</course>
  <speed>10.700004672896176</speed>
  <fix>3d</fix>
</trkpt>
<trkpt lat="-27.2739174" lon="151.2900639">
  <ele>376.73</ele>
  <time>2026-09-01T20:03:44Z</time>
  <course>0.0</course>
  <speed>10.770004642524533</speed>
  <fix>3d</fix>
</trkpt>
<trkpt lat="-27.2739447" lon="151.2900639">
  <ele>376.72</ele>
  <time>2026-09-01T20:03:44Z</time>
  <course>359.85</course>
  <speed>10.51</speed>
  <fix>3d</fix>
</trkpt>
<trkpt lat="-27.2739171" lon="151.2900639">
  <ele>376.73</ele>
  <time>2026-09-01T20:03:44Z</time>
  <course>0.0</course>
  <speed>10.770004642524533</speed>
  <fix>3d</fix>
</trkpt>
<trkpt lat="-27.2739076" lon="151.2900639">
  <ele>376.74</ele>
  <time>2026-09-01T20:03:44Z</time>
  <course>0.01</course>
  <speed>10.860004604050589</speed>
  <fix>3d</fix>
</trkpt>
<trkpt lat="-27.2739256" lon="151.2900638">
  <ele>376.75</ele>
  <time>2026-09-01T20:03:44Z</time>
  <course>359.85</course>
  <speed>10.69</speed>
  <fix>3d</fix>
</trkpt>
<trkpt lat="-27.2739041" lon="151.2900639">
  <ele>376.75</ele>
  <time>2026-09-01T20:03:44Z</time>
  <course>0.01</course>
  <speed>10.900004587155</speed>
  <fix>3d</fix>
</trkpt>
<trkpt lat="-27.2738978" lon="151.2900638">
  <ele>376.76</ele>
  <time>2026-09-01T20:03:44Z</time>
  <course>0.01</course>
  <speed>10.960004562042846</speed>
  <fix>3d</fix>
</trkpt>
<trkpt lat="-27.2739256" lon="151.2900638">
  <ele>376.75</ele>
  <time>2026-09-01T20:03:44Z</time>
  <course>359.85</course>
  <speed>10.69</speed>
  <fix>3d</fix>
</trkpt>
<trkpt lat="-27.2738952" lon="151.2900638">
  <ele>376.76</ele>
  <time>2026-09-01T20:03:44Z</time>
  <course>0.01</course>
  <speed>10.980004553733117</speed>
  <fix>3d</fix>
</trkpt>
<trkpt lat="-27.2738879" lon="151.2900638">
  <ele>376.77</ele>
  <time>2026-09-01T20:03:44Z</time>
  <course>0.02</course>
  <speed>11.050004524885951</speed>
  <fix>3d</fix>
</trkpt>
<trkpt lat="-27.2739062" lon="151.2900637">
  <ele>376.77</ele>
  <time>2026-09-01T20:03:44Z</time>
  <course>359.85</course>
  <speed>10.88</speed>
  <fix>3d</fix>
</trkpt>
<trkpt lat="-27.2738853" lon="151.2900638">
  <ele>376.77</ele>
  <time>2026-09-01T20:03:44Z</time>
  <course>0.02</course>
  <speed>11.08000451263446</speed>
  <fix>3d</fix>
</trkpt>
<trkpt lat="-27.2738779" lon="151.2900638">
  <ele>376.77</ele>
  <time>2026-09-01T20:03:44Z</time>
  <course>0.02</course>
  <speed>11.15000448430403</speed>
  <fix>3d</fix>
</trkpt>
<trkpt lat="-27.2739062" lon="151.2900637">
  <ele>376.77</ele>
  <time>2026-09-01T20:03:44Z</time>
  <course>359.85</course>
  <speed>10.88</speed>
  <fix>3d</fix>
</trkpt>
<trkpt lat="-27.2738749" lon="151.2900638">
  <ele>376.78</ele>
  <time>2026-09-01T20:03:44Z</time>
  <course>0.03</course>
  <speed>11.180004472271019</speed>
  <fix>3d</fix>
</trkpt>
<trkpt lat="-27.2738678" lon="151.2900638">
  <ele>376.78</ele>
  <time>2026-09-01T20:03:44Z</time>
  <course>0.03</course>
  <speed>11.240004448397697</speed>
  <fix>3d</fix>
</trkpt>
<trkpt lat="-27.2738865" lon="151.2900637">
  <ele>376.8</ele>
  <time>2026-09-01T20:03:44Z</time>
  <course>359.86</course>
  <speed>11.07</speed>
  <fix>3d</fix>
</trkpt>
<trkpt lat="-27.2738647" lon="151.2900638">
  <ele>376.79</ele>
  <time>2026-09-01T20:03:44Z</time>
  <course>0.03</course>
  <speed>11.270004436556357</speed>
  <fix>3d</fix>
</trkpt>
<trkpt lat="-27.2738576" lon="151.2900637">
  <ele>376.79</ele>
  <time>2026-09-01T20:03:44Z</time>
  <course>0.03</course>
  <speed>11.34000440917022</speed>
  <fix>3d</fix>
</trkpt>
<trkpt lat="-27.2738865" lon="151.2900637">
  <ele>376.8</ele>
  <time>2026-09-01T20:03:44Z</time>
  <course>359.86</course>
  <speed>11.07</speed>
  <fix>3d</fix>
</trkpt>
<trkpt lat="-27.2738559" lon="151.2900637">
  <ele>376.79</ele>
  <time>2026-09-01T20:03:44Z</time>
  <course>0.03</course>
  <speed>11.360004401407599</speed>
  <fix>3d</fix>
</trkpt>
<trkpt lat="-27.2738473" lon="151.2900637">
  <ele>376.8</ele>
  <time>2026-09-01T20:03:44Z</time>
  <course>0.04</course>
  <speed>11.440004370628536</speed>
  <fix>3d</fix>
</trkpt>
<trkpt lat="-27.2738664" lon="151.2900636">
  <ele>376.82</ele>
  <time>2026-09-01T20:03:44Z</time>
  <course>359.86</course>
  <speed>11.26</speed>
  <fix>3d</fix>
</trkpt>
<trkpt lat="-27.2738436" lon="151.2900637">
  <ele>376.8</ele>
  <time>2026-09-01T20:03:44Z</time>
  <course>0.04</course>
  <speed>11.47000435919708</speed>
  <fix>3d</fix>
</trkpt>
<trkpt lat="-27.273837" lon="151.2900637">
  <ele>376.81</ele>
  <time>2026-09-01T20:03:44Z</time>
  <course>0.04</course>
  <speed>11.530004336512627</speed>
  <fix>3d</fix>
</trkpt>
<trkpt lat="-27.2738664" lon="151.2900636">
  <ele>376.82</ele>
  <time>2026-09-01T20:03:44Z</time>
  <course>359.86</course>
  <speed>11.26</speed>
  <fix>3d</fix>
</trkpt>
<trkpt lat="-27.273834" lon="151.2900637">
  <ele>376.81</ele>
  <time>2026-09-01T20:03:44Z</time>
  <course>0.04</course>
  <speed>11.560004325258706</speed>
  <fix>3d</fix>
</trkpt>
<trkpt lat="-27.2738265" lon="151.2900637">
  <ele>376.82</ele>
  <time>2026-09-01T20:03:44Z</time>
  <course>0.05</course>
  <speed>11.630004299225345</speed>
  <fix>3d</fix>
</trkpt>
<trkpt lat="-27.2738461" lon="151.2900636">
  <ele>376.84</ele>
  <time>2026-09-01T20:03:44Z</time>
  <course>359.87</course>
  <speed>11.45</speed>
  <fix>3d</fix>
</trkpt>
<trkpt lat="-27.2738234" lon="151.2900637">
  <ele>376.82</ele>
  <time>2026-09-01T20:03:44Z</time>
  <course>0.05</course>
  <speed>11.650004291844702</speed>
  <fix>3d</fix>
</trkpt>
<trkpt lat="-27.273816" lon="151.2900636">
  <ele>376.83</ele>
  <time>2026-09-01T20:03:44Z</time>
  <course>0.05</course>
  <speed>11.720004266210829</speed>
  <fix>3d</fix>
</trkpt>
<trkpt lat="-27.2738461" lon="151.2900636">
  <ele>376.84</ele>
  <time>2026-09-01T20:03:44Z</time>
  <course>359.87</course>
  <speed>11.45</speed>
  <fix>3d</fix>
</trkpt>
<trkpt lat="-27.2738156" lon="151.2900636">
  <ele>376.83</ele>
  <time>2026-09-01T20:03:44Z</time>
  <course>0.05</course>
  <speed>11.720004266210829</speed>
  <fix>3d</fix>
</trkpt>
<trkpt lat="-27.2738054" lon="151.2900636">
  <ele>376.84</ele>
  <time>2026-09-01T20:03:44Z</time>
  <course>0.06</course>
  <speed>11.800004237287375</speed>
  <fix>3d</fix>
</trkpt>
<trkpt lat="-27.2738253" lon="151.2900635">
  <ele>376.86</ele>
  <time>2026-09-01T20:03:44Z</time>
  <course>359.88</course>
  <speed>11.64</speed>
  <fix>3d</fix>
</trkpt>
<trkpt lat="-27.2738047" lon="151.2900636">
  <ele>376.84</ele>
  <time>2026-09-01T20:03:44Z</time>
  <course>0.06</course>
  <speed>11.810004233699495</speed>
  <fix>3d</fix>
</trkpt>
<trkpt lat="-27.2737947" lon="151.2900636">
  <ele>376.86</ele>
  <time>2026-09-01T20:03:44Z</time>
  <course>0.06</course>
  <speed>11.870004212299168</speed>
  <fix>3d</fix>
</trkpt>
<trkpt lat="-27.2738253" lon="151.2900635">
  <ele>376.86</ele>
  <time>2026-09-01T20:03:44Z</time>
  <course>359.88</course>
  <speed>11.64</speed>
  <fix>3d</fix>
</trkpt>
<trkpt lat="-27.2737919" lon="151.2900636">
  <ele>376.87</ele>
  <time>2026-09-01T20:03:44Z</time>
  <course>0.07</course>
  <speed>11.890004205213723</speed>
  <fix>3d</fix>
</trkpt>
<trkpt lat="-27.273784" lon="151.2900636">
  <ele>376.88</ele>
  <time>2026-09-01T20:03:44Z</time>
  <course>0.07</course>
  <speed>11.9300041911141</speed>
  <fix>3d</fix>
</trkpt>
<trkpt lat="-27.2738043" lon="151.2900635">
  <ele>376.89</ele>
  <time>2026-09-01T20:03:44Z</time>
  <course>359.89</course>
  <speed>11.8</speed>
  <fix>3d</fix>
</trkpt>
<trkpt lat="-27.2737808" lon="151.2900636">
  <ele>376.89</ele>
  <time>2026-09-01T20:03:44Z</time>
  <course>0.07</course>
  <speed>11.950004184099686</speed>
  <fix>3d</fix>
</trkpt>
<trkpt lat="-27.2737733" lon="151.2900635">
  <ele>376.91</ele>
  <time>2026-09-01T20:03:44Z</time>
  <course>0.08</course>
  <speed>11.980004173621978</speed>
  <fix>3d</fix>
</trkpt>
<trkpt lat="-27.2738043" lon="151.2900635">
  <ele>376.89</ele>
  <time>2026-09-01T20:03:44Z</time>
  <course>359.89</course>
  <speed>11.8</speed>
  <fix>3d</fix>
</trkpt>
<trkpt lat="-27.2737708" lon="151.2900635">
  <ele>376.92</ele>
  <time>2026-09-01T20:03:44Z</time>
  <course>0.08</course>
  <speed>11.99000417014106</speed>
  <fix>3d</fix>
</trkpt>
<trkpt lat="-27.2737625" lon="151.2900635">
  <ele>376.95</ele>
  <time>2026-09-01T20:03:44Z</time>
  <course>0.08</course>
  <speed>12.010004163196614</speed>
  <fix>3d</fix>
</trkpt>
<trkpt lat="-27.2737829" lon="151.2900635">
  <ele>376.93</ele>
  <time>2026-09-01T20:03:44Z</time>
  <course>359.9</course>
  <speed>11.93</speed>
  <fix>3d</fix>
</trkpt>
<trkpt lat="-27.2737596" lon="151.2900635">
  <ele>376.96</ele>
  <time>2026-09-01T20:03:44Z</time>
  <course>0.08</course>
  <speed>12.010004163196614</speed>
  <fix>3d</fix>
</trkpt>
<trkpt lat="-27.2737516" lon="151.2900635">
  <ele>376.99</ele>
  <time>2026-09-01T20:03:44Z</time>
  <course>0.09</course>
  <speed>12.02</speed>
  <fix>3d</fix>
</trkpt>
<trkpt lat="-27.2737829" lon="151.2900635">
  <ele>376.93</ele>
  <time>2026-09-01T20:03:44Z</time>
  <course>359.9</course>
  <speed>11.93</speed>
  <fix>3d</fix>
</trkpt>
<trkpt lat="-27.2737514" lon="151.2900635">
  <ele>376.99</ele>
  <time>2026-09-01T20:03:44Z</time>
  <course>0.09</course>
  <speed>12.02</speed>
  <fix>3d</fix>
</trkpt>
<trkpt lat="-27.2737408" lon="151.2900635">
  <ele>377.04</ele>
  <time>2026-09-01T20:03:44Z</time>
  <course>0.1</course>
  <speed>12.02</speed>
  <fix>3d</fix>
</trkpt>
<trkpt lat="-27.2737614" lon="151.2900634">
  <ele>376.99</ele>
  <time>2026-09-01T20:03:44Z</time>
  <course>359.91</course>
  <speed>12.01</speed>
  <fix>3d</fix>
</trkpt>
<trkpt lat="-27.2737368" lon="151.2900635">
  <ele>377.06</ele>
  <time>2026-09-01T20:03:44Z</time>
  <course>0.1</course>
  <speed>12.02</speed>
  <fix>3d</fix>
</trkpt>
<trkpt lat="-27.27373" lon="151.2900635">
  <ele>377.09</ele>
  <time>2026-09-01T20:03:44Z</time>
  <course>0.1</course>
  <speed>12.01</speed>
  <fix>3d</fix>
</trkpt>
<trkpt lat="-27.2737614" lon="151.2900634">
  <ele>376.99</ele>
  <time>2026-09-01T20:03:44Z</time>
  <course>359.91</course>
  <speed>12.01</speed>
  <fix>3d</fix>
</trkpt>
<trkpt lat="-27.2737271" lon="151.2900635">
  <ele>377.1</ele>
  <time>2026-09-01T20:03:44Z</time>
  <course>0.11</course>
  <speed>12.0</speed>
  <fix>3d</fix>
</trkpt>
<trkpt lat="-27.2737192" lon="151.2900635">
  <ele>377.14</ele>
  <time>2026-09-01T20:03:44Z</time>
  <course>0.12</course>
  <speed>11.98</speed>
  <fix>3d</fix>
</trkpt>
<trkpt lat="-27.2737398" lon="151.2900633">
  <ele>377.07</ele>
  <time>2026-09-01T20:03:44Z</time>
  <course>359.93</course>
  <speed>12.03</speed>
  <fix>3d</fix>
</trkpt>
<trkpt lat="-27.273716" lon="151.2900635">
  <ele>377.16</ele>
  <time>2026-09-01T20:03:44Z</time>
  <course>0.12</course>
  <speed>11.97</speed>
  <fix>3d</fix>
</trkpt>
<trkpt lat="-27.2737085" lon="151.2900634">
  <ele>377.19</ele>
  <time>2026-09-01T20:03:44Z</time>
  <course>0.13</course>
  <speed>11.94</speed>
  <fix>3d</fix>
</trkpt>
<trkpt lat="-27.2737398" lon="151.2900633">
  <ele>377.07</ele>
  <time>2026-09-01T20:03:44Z</time>
  <course>359.93</course>
  <speed>12.03</speed>
  <fix>3d</fix>
</trkpt>
<trkpt lat="-27.2737082" lon="151.2900634">
  <ele>377.2</ele>
  <time>2026-09-01T20:03:44Z</time>
  <course>0.13</course>
  <speed>11.94</speed>
  <fix>3d</fix>
</trkpt>
<trkpt lat="-27.2736979" lon="151.2900634">
  <ele>377.24</ele>
  <time>2026-09-01T20:03:44Z</time>
  <course>0.14</course>
  <speed>11.9</speed>
  <fix>3d</fix>
</trkpt>
<trkpt lat="-27.2737182" lon="151.2900633">
  <ele>377.17</ele>
  <time>2026-09-01T20:03:44Z</time>
  <course>359.94</course>
  <speed>11.99</speed>
  <fix>3d</fix>
</trkpt>
<trkpt lat="-27.2736975" lon="151.2900634">
  <ele>377.25</ele>
  <time>2026-09-01T20:03:44Z</time>
  <course>0.14</course>
  <speed>11.9</speed>
  <fix>3d</fix>
</trkpt>
<trkpt lat="-27.2736872" lon="151.2900634">
  <ele>377.29</ele>
  <time>2026-09-01T20:03:44Z</time>
  <course>0.14</course>
  <speed>11.86</speed>
  <fix>3d</fix>
</trkpt>
<trkpt lat="-27.2737182" lon="151.2900633">
  <ele>377.17</ele>
  <time>2026-09-01T20:03:44Z</time>
  <course>359.94</course>
  <speed>11.99</speed>
  <fix>3d</fix>
</trkpt>
<trkpt lat="-27.2736862" lon="151.2900634">
  <ele>377.3</ele>
  <time>2026-09-01T20:03:44Z</time>
  <course>0.15</course>
  <speed>11.85</speed>
  <fix>3d</fix>
</trkpt>
<trkpt lat="-27.2736766" lon="151.2900634">
  <ele>377.33</ele>
  <time>2026-09-01T20:03:44Z</time>
  <course>0.15</course>
  <speed>11.82</speed>
  <fix>3d</fix>
</trkpt>
<trkpt lat="-27.2736967" lon="151.2900633">
  <ele>377.28</ele>
  <time>2026-09-01T20:03:44Z</time>
  <course>359.96</course>
  <speed>11.92</speed>
  <fix>3d</fix>
</trkpt>
<trkpt lat="-27.2736728" lon="151.2900634">
  <ele>377.35</ele>
  <time>2026-09-01T20:03:44Z</time>
  <course>0.15</course>
  <speed>11.8</speed>
  <fix>3d</fix>
</trkpt>
<trkpt lat="-27.2736661" lon="151.2900634">
  <ele>377.37</ele>
  <time>2026-09-01T20:03:44Z</time>
  <course>0.15</course>
  <speed>11.78</speed>
  <fix>3d</fix>
</trkpt>
<trkpt lat="-27.2736967" lon="151.2900633">
  <ele>377.28</ele>
  <time>2026-09-01T20:03:44Z</time>
  <course>359.96</course>
  <speed>11.92</speed>
  <fix>3d</fix>
</trkpt>
<trkpt lat="-27.2736625" lon="151.2900634">
  <ele>377.38</ele>
  <time>2026-09-01T20:03:44Z</time>
  <course>0.16</course>
  <speed>11.76</speed>
  <fix>3d</fix>
</trkpt>
<trkpt lat="-27.2736555" lon="151.2900634">
  <ele>377.4</ele>
  <time>2026-09-01T20:03:44Z</time>
  <course>0.16</course>
  <speed>11.74</speed>
  <fix>3d</fix>
</trkpt>
<trkpt lat="-27.2736753" lon="151.2900633">
  <ele>377.37</ele>
  <time>2026-09-01T20:03:44Z</time>
  <course>359.97</course>
  <speed>11.84</speed>
  <fix>3d</fix>
</trkpt>
<trkpt lat="-27.2736517" lon="151.2900634">
  <ele>377.4</ele>
  <time>2026-09-01T20:03:44Z</time>
  <course>0.16</course>
  <speed>11.73</speed>
  <fix>3d</fix>
</trkpt>
<trkpt lat="-27.273645" lon="151.2900634">
  <ele>377.41</ele>
  <time>2026-09-01T20:03:44Z</time>
  <course>0.16</course>
  <speed>11.71</speed>
  <fix>3d</fix>
</trkpt>
<trkpt lat="-27.2736753" lon="151.2900633">
  <ele>377.37</ele>
  <time>2026-09-01T20:03:44Z</time>
  <course>359.97</course>
  <speed>11.84</speed>
  <fix>3d</fix>
</trkpt>
<trkpt lat="-27.2736415" lon="151.2900634">
  <ele>377.42</ele>
  <time>2026-09-01T20:03:44Z</time>
  <course>0.16</course>
  <speed>11.7</speed>
  <fix>3d</fix>
</trkpt>
<trkpt lat="-27.2736345" lon="151.2900634">
  <ele>377.42</ele>
  <time>2026-09-01T20:03:44Z</time>
  <course>0.17</course>
  <speed>11.68</speed>
  <fix>3d</fix>
</trkpt>
<trkpt lat="-27.2736541" lon="151.2900632">
  <ele>377.43</ele>
  <time>2026-09-01T20:03:44Z</time>
  <course>359.99</course>
  <speed>11.77</speed>
  <fix>3d</fix>
</trkpt>
<trkpt lat="-27.273631" lon="151.2900634">
  <ele>377.43</ele>
  <time>2026-09-01T20:03:44Z</time>
  <course>0.17</course>
  <speed>11.68</speed>
  <fix>3d</fix>
</trkpt>
<trkpt lat="-27.2736241" lon="151.2900634">
  <ele>377.43</ele>
  <time>2026-09-01T20:03:44Z</time>
  <course>0.17</course>
  <speed>11.66</speed>
  <fix>3d</fix>
</trkpt>
<trkpt lat="-27.2736541" lon="151.2900632">
  <ele>377.43</ele>
  <time>2026-09-01T20:03:44Z</time>
  <course>359.99</course>
  <speed>11.77</speed>
  <fix>3d</fix>
</trkpt>
<trkpt lat="-27.2736209" lon="151.2900634">
  <ele>377.43</ele>
  <time>2026-09-01T20:03:44Z</time>
  <course>0.17</course>
  <speed>11.66</speed>
  <fix>3d</fix>
</trkpt>
<trkpt lat="-27.2736136" lon="151.2900633">
  <ele>377.42</ele>
  <time>2026-09-01T20:03:44Z</time>
  <course>0.18</course>
  <speed>11.64</speed>
  <fix>3d</fix>
</trkpt>
<trkpt lat="-27.273633" lon="151.2900632">
  <ele>377.46</ele>
  <time>2026-09-01T20:03:44Z</time>
  <course>0.0</course>
  <speed>11.71</speed>
  <fix>3d</fix>
</trkpt>
<trkpt lat="-27.2736106" lon="151.2900633">
  <ele>377.42</ele>
  <time>2026-09-01T20:03:44Z</time>
  <course>0.18</course>
  <speed>11.64</speed>
  <fix>3d</fix>
</trkpt>
<trkpt lat="-27.2736033" lon="151.2900633">
  <ele>377.42</ele>
  <time>2026-09-01T20:03:44Z</time>
  <course>0.18</course>
  <speed>11.63</speed>
  <fix>3d</fix>
</trkpt>
<trkpt lat="-27.273633" lon="151.2900632">
  <ele>377.46</ele>
  <time>2026-09-01T20:03:44Z</time>
  <course>0.0</course>
  <speed>11.71</speed>
  <fix>3d</fix>
</trkpt>
<trkpt lat="-27.2735997" lon="151.2900633">
  <ele>377.41</ele>
  <time>2026-09-01T20:03:44Z</time>
  <course>0.18</course>
  <speed>11.63</speed>
  <fix>3d</fix>
</trkpt>
<trkpt lat="-27.2735928" lon="151.2900633">
  <ele>377.4</ele>
  <time>2026-09-01T20:03:44Z</time>
  <course>0.18</course>
  <speed>11.63</speed>
  <fix>3d</fix>
</trkpt>
<trkpt lat="-27.273612" lon="151.2900633">
  <ele>377.47</ele>
  <time>2026-09-01T20:03:44Z</time>
  <course>0.02</course>
  <speed>11.67</speed>
  <fix>3d</fix>
</trkpt>
<trkpt lat="-27.2735889" lon="151.2900633">
  <ele>377.4</ele>
  <time>2026-09-01T20:03:44Z</time>
  <course>0.18</course>
  <speed>11.62</speed>
  <fix>3d</fix>
</trkpt>
<trkpt lat="-27.2735824" lon="151.2900633">
  <ele>377.39</ele>
  <time>2026-09-01T20:03:44Z</time>
  <course>0.18</course>
  <speed>11.62</speed>
  <fix>3d</fix>
</trkpt>
<trkpt lat="-27.273612" lon="151.2900633">
  <ele>377.47</ele>
  <time>2026-09-01T20:03:44Z</time>
  <course>0.02</course>
  <speed>11.67</speed>
  <fix>3d</fix>
</trkpt>
<trkpt lat="-27.273582" lon="151.2900633">
  <ele>377.39</ele>
  <time>2026-09-01T20:03:44Z</time>
  <course>0.18</course>
  <speed>11.62</speed>
  <fix>3d</fix>
</trkpt>
<trkpt lat="-27.2735719" lon="151.2900634">
  <ele>377.37</ele>
  <time>2026-09-01T20:03:44Z</time>
  <course>0.18</course>
  <speed>11.62</speed>
  <fix>3d</fix>
</trkpt>
<trkpt lat="-27.2735911" lon="151.2900633">
  <ele>377.45</ele>
  <time>2026-09-01T20:03:44Z</time>
  <course>0.03</course>
  <speed>11.66</speed>
  <fix>3d</fix>
</trkpt>
<trkpt lat="-27.2735709" lon="151.2900634">
  <ele>377.37</ele>
  <time>2026-09-01T20:03:44Z</time>
  <course>0.18</course>
  <speed>11.63</speed>
  <fix>3d</fix>
</trkpt>
<trkpt lat="-27.2735614" lon="151.2900634">
  <ele>377.35</ele>
  <time>2026-09-01T20:03:44Z</time>
  <course>0.18</course>
  <speed>11.63</speed>
  <fix>3d</fix>
</trkpt>
<trkpt lat="-27.2735911" lon="151.2900633">
  <ele>377.45</ele>
  <time>2026-09-01T20:03:44Z</time>
  <course>0.03</course>
  <speed>11.66</speed>
  <fix>3d</fix>
</trkpt>
<trkpt lat="-27.2735583" lon="151.2900634">
  <ele>377.34</ele>
  <time>2026-09-01T20:03:44Z</time>
  <course>0.18</course>
  <speed>11.63</speed>
  <fix>3d</fix>
</trkpt>
<trkpt lat="-27.273551" lon="151.2900634">
  <ele>377.33</ele>
  <time>2026-09-01T20:03:44Z</time>
  <course>0.18</course>
  <speed>11.64</speed>
  <fix>3d</fix>
</trkpt>
<trkpt lat="-27.2735701" lon="151.2900633">
  <ele>377.41</ele>
  <time>2026-09-01T20:03:44Z</time>
  <course>0.04</course>
  <speed>11.66</speed>
  <fix>3d</fix>
</trkpt>
<trkpt lat="-27.2735471" lon="151.2900634">
  <ele>377.33</ele>
  <time>2026-09-01T20:03:44Z</time>
  <course>0.18</course>
  <speed>11.64</speed>
  <fix>3d</fix>
</trkpt>
<trkpt lat="-27.2735405" lon="151.2900634">
  <ele>377.31</ele>
  <time>2026-09-01T20:03:44Z</time>
  <course>0.18</course>
  <speed>11.65</speed>
  <fix>3d</fix>
</trkpt>
<trkpt lat="-27.2735701" lon="151.2900633">
  <ele>377.41</ele>
  <time>2026-09-01T20:03:44Z</time>
  <course>0.04</course>
  <speed>11.66</speed>
  <fix>3d</fix>
</trkpt>
<trkpt lat="-27.2735374" lon="151.2900634">
  <ele>377.31</ele>
  <time>2026-09-01T20:03:44Z</time>
  <course>0.18</course>
  <speed>11.66</speed>
  <fix>3d</fix>
</trkpt>
<trkpt lat="-27.2735299" lon="151.2900634">
  <ele>377.3</ele>
  <time>2026-09-01T20:03:44Z</time>
  <course>0.19</course>
  <speed>11.670004284489359</speed>
  <fix>3d</fix>
</trkpt>
<trkpt lat="-27.2735492" lon="151.2900633">
  <ele>377.38</ele>
  <time>2026-09-01T20:03:44Z</time>
  <course>0.05</course>
  <speed>11.67</speed>
  <fix>3d</fix>
</trkpt>
<trkpt lat="-27.2735268" lon="151.2900634">
  <ele>377.29</ele>
  <time>2026-09-01T20:03:44Z</time>
  <course>0.19</course>
  <speed>11.680004280821134</speed>
  <fix>3d</fix>
</trkpt>
<trkpt lat="-27.2735194" lon="151.2900634">
  <ele>377.28</ele>
  <time>2026-09-01T20:03:44Z</time>
  <course>0.19</course>
  <speed>11.690004277159183</speed>
  <fix>3d</fix>
</trkpt>
<trkpt lat="-27.2735492" lon="151.2900633">
  <ele>377.38</ele>
  <time>2026-09-01T20:03:44Z</time>
  <course>0.05</course>
  <speed>11.67</speed>
  <fix>3d</fix>
</trkpt>
<trkpt lat="-27.2735159" lon="151.2900634">
  <ele>377.28</ele>
  <time>2026-09-01T20:03:44Z</time>
  <course>0.19</course>
  <speed>11.700004273503493</speed>
  <fix>3d</fix>
</trkpt>
<trkpt lat="-27.2735089" lon="151.2900634">
  <ele>377.27</ele>
  <time>2026-09-01T20:03:44Z</time>
  <course>0.19</course>
  <speed>11.710004269854046</speed>
  <fix>3d</fix>
</trkpt>
<trkpt lat="-27.2735282" lon="151.2900633">
  <ele>377.34</ele>
  <time>2026-09-01T20:03:44Z</time>
  <course>0.06</course>
  <speed>11.7</speed>
  <fix>3d</fix>
</trkpt>
<trkpt lat="-27.2735051" lon="151.2900634">
  <ele>377.26</ele>
  <time>2026-09-01T20:03:44Z</time>
  <course>0.19</course>
  <speed>11.720004266210829</speed>
  <fix>3d</fix>
</trkpt>
<trkpt lat="-27.2734984" lon="151.2900634">
  <ele>377.25</ele>
  <time>2026-09-01T20:03:44Z</time>
  <course>0.19</course>
  <speed>11.740004258943008</speed>
  <fix>3d</fix>
</trkpt>
<trkpt lat="-27.2735282" lon="151.2900633">
  <ele>377.34</ele>
  <time>2026-09-01T20:03:44Z</time>
  <course>0.06</course>
  <speed>11.7</speed>
  <fix>3d</fix>
</trkpt>
<trkpt lat="-27.2734952" lon="151.2900634">
  <ele>377.25</ele>
  <time>2026-09-01T20:03:44Z</time>
  <course>0.19</course>
  <speed>11.750004255318379</speed>
  <fix>3d</fix>
</trkpt>
<trkpt lat="-27.2734878" lon="151.2900634">
  <ele>377.24</ele>
  <time>2026-09-01T20:03:44Z</time>
  <course>0.19</course>
  <speed>11.770004248087593</speed>
  <fix>3d</fix>
</trkpt>
<trkpt lat="-27.2735071" lon="151.2900633">
  <ele>377.3</ele>
  <time>2026-09-01T20:03:44Z</time>
  <course>0.07</course>
  <speed>11.74</speed>
  <fix>3d</fix>
</trkpt>
<trkpt lat="-27.2734846" lon="151.2900634">
  <ele>377.24</ele>
  <time>2026-09-01T20:03:44Z</time>
  <course>0.19</course>
  <speed>11.770004248087593</speed>
  <fix>3d</fix>
</trkpt>
<trkpt lat="-27.2734772" lon="151.2900634">
  <ele>377.23</ele>
  <time>2026-09-01T20:03:44Z</time>
  <course>0.19</course>
  <speed>11.800004237287375</speed>
  <fix>3d</fix>
</trkpt>
<trkpt lat="-27.2735071" lon="151.2900633">
  <ele>377.3</ele>
  <time>2026-09-01T20:03:44Z</time>
  <course>0.07</course>
  <speed>11.74</speed>
  <fix>3d</fix>
</trkpt>
<trkpt lat="-27.2734734" lon="151.2900634">
  <ele>377.23</ele>
  <time>2026-09-01T20:03:44Z</time>
  <course>0.19</course>
  <speed>11.810004233699495</speed>
  <fix>3d</fix>
</trkpt>
<trkpt lat="-27.2734666" lon="151.2900634">
  <ele>377.23</ele>
  <time>2026-09-01T20:03:44Z</time>
  <course>0.19</course>
  <speed>11.830004226541933</speed>
  <fix>3d</fix>
</trkpt>
<trkpt lat="-27.2734859" lon="151.2900633">
  <ele>377.28</ele>
  <time>2026-09-01T20:03:44Z</time>
  <course>0.08</course>
  <speed>11.79</speed>
  <fix>3d</fix>
</trkpt>
<trkpt lat="-27.2734662" lon="151.2900634">
  <ele>377.22</ele>
  <time>2026-09-01T20:03:44Z</time>
  <course>0.19</course>
  <speed>11.830004226541933</speed>
  <fix>3d</fix>
</trkpt>
<trkpt lat="-27.2734559" lon="151.2900634">
  <ele>377.22</ele>
  <time>2026-09-01T20:03:44Z</time>
  <course>0.2</course>
  <speed>11.860004215850852</speed>
  <fix>3d</fix>
</trkpt>
<trkpt lat="-27.2734859" lon="151.2900633">
  <ele>377.28</ele>
  <time>2026-09-01T20:03:44Z</time>
  <course>0.08</course>
  <speed>11.79</speed>
  <fix>3d</fix>
</trkpt>
<trkpt lat="-27.2734527" lon="151.2900634">
  <ele>377.22</ele>
  <time>2026-09-01T20:03:44Z</time>
  <course>0.2</course>
  <speed>11.870004212299168</speed>
  <fix>3d</fix>
</trkpt>
<trkpt lat="-27.2734452" lon="151.2900634">
  <ele>377.22</ele>
  <time>2026-09-01T20:03:44Z</time>
  <course>0.2</course>
  <speed>11.90000420167993</speed>
  <fix>3d</fix>
</trkpt>
<trkpt lat="-27.2734646" lon="151.2900633">
  <ele>377.26</ele>
  <time>2026-09-01T20:03:44Z</time>
  <course>0.08</course>
  <speed>11.85</speed>
  <fix>3d</fix>
</trkpt>
<trkpt lat="-27.2734446" lon="151.2900634">
  <ele>377.22</ele>
  <time>2026-09-01T20:03:44Z</time>
  <course>0.2</course>
  <speed>11.90000420167993</speed>
  <fix>3d</fix>
</trkpt>
<trkpt lat="-27.2734344" lon="151.2900634">
  <ele>377.22</ele>
  <time>2026-09-01T20:03:44Z</time>
  <course>0.2</course>
  <speed>11.9300041911141</speed>
  <fix>3d</fix>
</trkpt>
<trkpt lat="-27.2734646" lon="151.2900633">
  <ele>377.26</ele>
  <time>2026-09-01T20:03:44Z</time>
  <course>0.08</course>
  <speed>11.85</speed>
  <fix>3d</fix>
</trkpt>
<trkpt lat="-27.2734309" lon="151.2900634">
  <ele>377.22</ele>
  <time>2026-09-01T20:03:44Z</time>
  <course>0.2</course>
  <speed>11.940004187603956</speed>
  <fix>3d</fix>
</trkpt>
<trkpt lat="-27.2734237" lon="151.2900634">
  <ele>377.22</ele>
  <time>2026-09-01T20:03:44Z</time>
  <course>0.2</course>
  <speed>11.960004180601278</speed>
  <fix>3d</fix>
</trkpt>
<trkpt lat="-27.2734432" lon="151.2900634">
  <ele>377.25</ele>
  <time>2026-09-01T20:03:44Z</time>
  <course>0.08</course>
  <speed>11.92</speed>
  <fix>3d</fix>
</trkpt>
<trkpt lat="-27.2734201" lon="151.2900634">
  <ele>377.22</ele>
  <time>2026-09-01T20:03:44Z</time>
  <course>0.2</course>
  <speed>11.980004173621978</speed>
  <fix>3d</fix>
</trkpt>
<trkpt lat="-27.2734129" lon="151.2900634">
  <ele>377.23</ele>
  <time>2026-09-01T20:03:44Z</time>
  <course>0.2</course>
  <speed>12.000004166665942</speed>
  <fix>3d</fix>
</trkpt>
<trkpt lat="-27.2734432" lon="151.2900634">
  <ele>377.25</ele>
  <time>2026-09-01T20:03:44Z</time>
  <course>0.08</course>
  <speed>11.92</speed>
  <fix>3d</fix>
</trkpt>
<trkpt lat="-27.2734093" lon="151.2900634">
  <ele>377.23</ele>
  <time>2026-09-01T20:03:44Z</time>
  <course>0.19</course>
  <speed>12.010004163196614</speed>
  <fix>3d</fix>
</trkpt>
<trkpt lat="-27.273402" lon="151.2900634">
  <ele>377.24</ele>
  <time>2026-09-01T20:03:44Z</time>
  <course>0.19</course>
  <speed>12.03000415627526</speed>
  <fix>3d</fix>
</trkpt>
<trkpt lat="-27.2734218" lon="151.2900635">
  <ele>377.25</ele>
  <time>2026-09-01T20:03:44Z</time>
  <course>0.08</course>
  <speed>11.98</speed>
  <fix>3d</fix>
</trkpt>
<trkpt lat="-27.2733984" lon="151.2900634">
  <ele>377.24</ele>
  <time>2026-09-01T20:03:44Z</time>
  <course>0.19</course>
  <speed>12.040004152823203</speed>
  <fix>3d</fix>
</trkpt>
<trkpt lat="-27.2733913" lon="151.2900634">
  <ele>377.25</ele>
  <time>2026-09-01T20:03:44Z</time>
  <course>0.19</course>
  <speed>12.060004145936269</speed>
  <fix>3d</fix>
</trkpt>
<trkpt lat="-27.2734218" lon="151.2900635">
  <ele>377.25</ele>
  <time>2026-09-01T20:03:44Z</time>
  <course>0.08</course>
  <speed>11.98</speed>
  <fix>3d</fix>
</trkpt>
<trkpt lat="-27.273388" lon="151.2900634">
  <ele>377.25</ele>
  <time>2026-09-01T20:03:44Z</time>
  <course>0.19</course>
  <speed>12.070004142501361</speed>
  <fix>3d</fix>
</trkpt>
<trkpt lat="-27.2733804" lon="151.2900635">
  <ele>377.26</ele>
  <time>2026-09-01T20:03:44Z</time>
  <course>0.18</course>
  <speed>12.1000041322307</speed>
  <fix>3d</fix>
</trkpt>
<trkpt lat="-27.2734002" lon="151.2900635">
  <ele>377.27</ele>
  <time>2026-09-01T20:03:44Z</time>
  <course>0.08</course>
  <speed>12.05</speed>
  <fix>3d</fix>
</trkpt>
<trkpt lat="-27.2733774" lon="151.2900635">
  <ele>377.27</ele>
  <time>2026-09-01T20:03:44Z</time>
  <course>0.18</course>
  <speed>12.1000041322307</speed>
  <fix>3d</fix>
</trkpt>
<trkpt lat="-27.2733695" lon="151.2900635">
  <ele>377.28</ele>
  <time>2026-09-01T20:03:44Z</time>
  <course>0.18</course>
  <speed>12.130004122010842</speed>
  <fix>3d</fix>
</trkpt>
<trkpt lat="-27.2734002" lon="151.2900635">
  <ele>377.27</ele>
  <time>2026-09-01T20:03:44Z</time>
  <course>0.08</course>
  <speed>12.05</speed>
  <fix>3d</fix>
</trkpt>
<trkpt lat="-27.2733665" lon="151.2900635">
  <ele>377.29</ele>
  <time>2026-09-01T20:03:44Z</time>
  <course>0.18</course>
  <speed>12.130004122010842</speed>
  <fix>3d</fix>
</trkpt>
<trkpt lat="-27.2733585" lon="151.2900635">
  <ele>377.3</ele>
  <time>2026-09-01T20:03:44Z</time>
  <course>0.18</course>
  <speed>12.15000411522564</speed>
  <fix>3d</fix>
</trkpt>
<trkpt lat="-27.2733785" lon="151.2900636">
  <ele>377.29</ele>
  <time>2026-09-01T20:03:44Z</time>
  <course>0.08</course>
  <speed>12.11</speed>
  <fix>3d</fix>
</trkpt>
<trkpt lat="-27.2733544" lon="151.2900635">
  <ele>377.31</ele>
  <time>2026-09-01T20:03:44Z</time>
  <course>0.18</course>
  <speed>12.16000411184141</speed>
  <fix>3d</fix>
</trkpt>
<trkpt lat="-27.2733476" lon="151.2900635">
  <ele>377.32</ele>
  <time>2026-09-01T20:03:44Z</time>
  <course>0.18</course>
  <speed>12.180004105089619</speed>
  <fix>3d</fix>
</trkpt>
<trkpt lat="-27.2733785" lon="151.2900636">
  <ele>377.29</ele>
  <time>2026-09-01T20:03:44Z</time>
  <course>0.08</course>
  <speed>12.11</speed>
  <fix>3d</fix>
</trkpt>
<trkpt lat="-27.2733471" lon="151.2900635">
  <ele>377.32</ele>
  <time>2026-09-01T20:03:44Z</time>
  <course>0.18</course>
  <speed>12.180004105089619</speed>
  <fix>3d</fix>
</trkpt>
<trkpt lat="-27.2733365" lon="151.2900635">
  <ele>377.35</ele>
  <time>2026-09-01T20:03:44Z</time>
  <course>0.18</course>
  <speed>12.200004098359969</speed>
  <fix>3d</fix>
</trkpt>
<trkpt lat="-27.2733567" lon="151.2900636">
  <ele>377.33</ele>
  <time>2026-09-01T20:03:44Z</time>
  <course>0.08</course>
  <speed>12.17</speed>
  <fix>3d</fix>
</trkpt>
<trkpt lat="-27.2733354" lon="151.2900635">
  <ele>377.35</ele>
  <time>2026-09-01T20:03:44Z</time>
  <course>0.18</course>
  <speed>12.200004098359969</speed>
  <fix>3d</fix>
</trkpt>
<trkpt lat="-27.2733255" lon="151.2900636">
  <ele>377.37</ele>
  <time>2026-09-01T20:03:44Z</time>
  <course>0.18</course>
  <speed>12.220004091652342</speed>
  <fix>3d</fix>
</trkpt>
<trkpt lat="-27.2733567" lon="151.2900636">
  <ele>377.33</ele>
  <time>2026-09-01T20:03:44Z</time>
  <course>0.08</course>
  <speed>12.17</speed>
  <fix>3d</fix>
</trkpt>
<trkpt lat="-27.2733215" lon="151.2900636">
  <ele>377.38</ele>
  <time>2026-09-01T20:03:44Z</time>
  <course>0.18</course>
  <speed>12.230004088306757</speed>
  <fix>3d</fix>
</trkpt>
<trkpt lat="-27.2733145" lon="151.2900636">
  <ele>377.4</ele>
  <time>2026-09-01T20:03:44Z</time>
  <course>0.18</course>
  <speed>12.240004084966637</speed>
  <fix>3d</fix>
</trkpt>
<trkpt lat="-27.2733348" lon="151.2900636">
  <ele>377.37</ele>
  <time>2026-09-01T20:03:44Z</time>
  <course>0.07</course>
  <speed>12.21</speed>
  <fix>3d</fix>
</trkpt>
<trkpt lat="-27.2733109" lon="151.2900636">
  <ele>377.41</ele>
  <time>2026-09-01T20:03:44Z</time>
  <course>0.18</course>
  <speed>12.250004081631973</speed>
  <fix>3d</fix>
</trkpt>
<trkpt lat="-27.2733035" lon="151.2900636">
  <ele>377.42</ele>
  <time>2026-09-01T20:03:44Z</time>
  <course>0.17</course>
  <speed>12.250004081631973</speed>
  <fix>3d</fix>
</trkpt>
<trkpt lat="-27.2733348" lon="151.2900636">
  <ele>377.37</ele>
  <time>2026-09-01T20:03:44Z</time>
  <course>0.07</course>
  <speed>12.21</speed>
  <fix>3d</fix>
</trkpt>
<trkpt lat="-27.2733002" lon="151.2900636">
  <ele>377.43</ele>
  <time>2026-09-01T20:03:44Z</time>
  <course>0.17</course>
  <speed>12.260004078302748</speed>
  <fix>3d</fix>
</trkpt>
<trkpt lat="-27.2732925" lon="151.2900636">
  <ele>377.45</ele>
  <time>2026-09-01T20:03:45Z</time>
  <course>0.17</course>
  <speed>12.27000407497895</speed>
  <fix>3d</fix>
</trkpt>
<trkpt lat="-27.2733128" lon="151.2900637">
  <ele>377.41</ele>
  <time>2026-09-01T20:03:45Z</time>
  <course>0.06</course>
  <speed>12.25</speed>
  <fix>3d</fix>
</trkpt>
<trkpt lat="-27.2732911" lon="151.2900636">
  <ele>377.46</ele>
  <time>2026-09-01T20:03:45Z</time>
  <course>0.17</course>
  <speed>12.27000407497895</speed>
  <fix>3d</fix>
</trkpt>
<trkpt lat="-27.2732814" lon="151.2900636">
  <ele>377.48</ele>
  <time>2026-09-01T20:03:45Z</time>
  <course>0.17</course>
  <speed>12.280004071660562</speed>
  <fix>3d</fix>
</trkpt>
<trkpt lat="-27.2733128" lon="151.2900637">
  <ele>377.41</ele>
  <time>2026-09-01T20:03:45Z</time>
  <course>0.06</course>
  <speed>12.25</speed>
  <fix>3d</fix>
</trkpt>
<trkpt lat="-27.2732774" lon="151.2900636">
  <ele>377.49</ele>
  <time>2026-09-01T20:03:45Z</time>
  <course>0.17</course>
  <speed>12.280004071660562</speed>
  <fix>3d</fix>
</trkpt>
<trkpt lat="-27.2732704" lon="151.2900637">
  <ele>377.51</ele>
  <time>2026-09-01T20:03:45Z</time>
  <course>0.17</course>
  <speed>12.280004071660562</speed>
  <fix>3d</fix>
</trkpt>
<trkpt lat="-27.2732908" lon="151.2900637">
  <ele>377.46</ele>
  <time>2026-09-01T20:03:45Z</time>
  <course>0.06</course>
  <speed>12.28</speed>
  <fix>3d</fix>
</trkpt>
<trkpt lat="-27.2732671" lon="151.2900637">
  <ele>377.52</ele>
  <time>2026-09-01T20:03:45Z</time>
  <course>0.17</course>
  <speed>12.290004068347578</speed>
  <fix>3d</fix>
</trkpt>
<trkpt lat="-27.2732593" lon="151.2900637">
  <ele>377.54</ele>
  <time>2026-09-01T20:03:45Z</time>
  <course>0.17</course>
  <speed>12.290004068347578</speed>
  <fix>3d</fix>
</trkpt>
<trkpt lat="-27.2732908" lon="151.2900637">
  <ele>377.46</ele>
  <time>2026-09-01T20:03:45Z</time>
  <course>0.06</course>
  <speed>12.28</speed>
  <fix>3d</fix>
</trkpt>
<trkpt lat="-27.2732564" lon="151.2900637">
  <ele>377.54</ele>
  <time>2026-09-01T20:03:45Z</time>
  <course>0.17</course>
  <speed>12.290004068347578</speed>
  <fix>3d</fix>
</trkpt>
<trkpt lat="-27.2732483" lon="151.2900637">
  <ele>377.56</ele>
  <time>2026-09-01T20:03:45Z</time>
  <course>0.17</course>
  <speed>12.290004068347578</speed>
  <fix>3d</fix>
</trkpt>
<trkpt lat="-27.2732686" lon="151.2900637">
  <ele>377.51</ele>
  <time>2026-09-01T20:03:45Z</time>
  <course>0.05</course>
  <speed>12.29</speed>
  <fix>3d</fix>
</trkpt>
<trkpt lat="-27.2732449" lon="151.2900637">
  <ele>377.57</ele>
  <time>2026-09-01T20:03:45Z</time>
  <course>0.16</course>
  <speed>12.290004068347578</speed>
  <fix>3d</fix>
</trkpt>
<trkpt lat="-27.2732372" lon="151.2900637">
  <ele>377.59</ele>
  <time>2026-09-01T20:03:45Z</time>
  <course>0.16</course>
  <speed>12.290004068347578</speed>
  <fix>3d</fix>
</trkpt>
<trkpt lat="-27.2732686" lon="151.2900637">
  <ele>377.51</ele>
  <time>2026-09-01T20:03:45Z</time>
  <course>0.05</course>
  <speed>12.29</speed>
  <fix>3d</fix>
</trkpt>
<trkpt lat="-27.2732339" lon="151.2900637">
  <ele>377.59</ele>
  <time>2026-09-01T20:03:45Z</time>
  <course>0.16</course>
  <speed>12.290004068347578</speed>
  <fix>3d</fix>
</trkpt>
<trkpt lat="-27.273226" lon="151.2900637">
  <ele>377.61</ele>
  <time>2026-09-01T20:03:45Z</time>
  <course>0.16</course>
  <speed>12.290004068347578</speed>
  <fix>3d</fix>
</trkpt>
<trkpt lat="-27.2732465" lon="151.2900637">
  <ele>377.56</ele>
  <time>2026-09-01T20:03:45Z</time>
  <course>0.04</course>
  <speed>12.3</speed>
  <fix>3d</fix>
</trkpt>
<trkpt lat="-27.2732257" lon="151.2900637">
  <ele>377.61</ele>
  <time>2026-09-01T20:03:45Z</time>
  <course>0.16</course>
  <speed>12.290004068347578</speed>
  <fix>3d</fix>
</trkpt>
<trkpt lat="-27.273215" lon="151.2900637">
  <ele>377.63</ele>
  <time>2026-09-01T20:03:45Z</time>
  <course>0.16</course>
  <speed>12.290004068347578</speed>
  <fix>3d</fix>
</trkpt>
<trkpt lat="-27.2732465" lon="151.2900637">
  <ele>377.56</ele>
  <time>2026-09-01T20:03:45Z</time>
  <course>0.04</course>
  <speed>12.3</speed>
  <fix>3d</fix>
</trkpt>
<trkpt lat="-27.2732139" lon="151.2900637">
  <ele>377.63</ele>
  <time>2026-09-01T20:03:45Z</time>
  <course>0.16</course>
  <speed>12.280004071660562</speed>
  <fix>3d</fix>
</trkpt>
<trkpt lat="-27.2732039" lon="151.2900637">
  <ele>377.65</ele>
  <time>2026-09-01T20:03:45Z</time>
  <course>0.16</course>
  <speed>12.280004071660562</speed>
  <fix>3d</fix>
</trkpt>
<trkpt lat="-27.2732244" lon="151.2900637">
  <ele>377.61</ele>
  <time>2026-09-01T20:03:45Z</time>
  <course>0.03</course>
  <speed>12.3</speed>
  <fix>3d</fix>
</trkpt>
<trkpt lat="-27.2732002" lon="151.2900637">
  <ele>377.66</ele>
  <time>2026-09-01T20:03:45Z</time>
  <course>0.16</course>
  <speed>12.280004071660562</speed>
  <fix>3d</fix>
</trkpt>
<trkpt lat="-27.2731929" lon="151.2900637">
  <ele>377.67</ele>
  <time>2026-09-01T20:03:45Z</time>
  <course>0.16</course>
  <speed>12.27</speed>
  <fix>3d</fix>
</trkpt>
<trkpt lat="-27.2732244" lon="151.2900637">
  <ele>377.61</ele>
  <time>2026-09-01T20:03:45Z</time>
  <course>0.03</course>
  <speed>12.3</speed>
  <fix>3d</fix>
</trkpt>
<trkpt lat="-27.2731885" lon="151.2900637">
  <ele>377.68</ele>
  <time>2026-09-01T20:03:45Z</time>
  <course>0.16</course>
  <speed>12.27</speed>
  <fix>3d</fix>
</trkpt>
<trkpt lat="-27.2731819" lon="151.2900637">
  <ele>377.69</ele>
  <time>2026-09-01T20:03:45Z</time>
  <course>0.16</course>
  <speed>12.26</speed>
  <fix>3d</fix>
</trkpt>
<trkpt lat="-27.2732023" lon="151.2900637">
  <ele>377.66</ele>
  <time>2026-09-01T20:03:45Z</time>
  <course>0.03</course>
  <speed>12.29</speed>
  <fix>3d</fix>
</trkpt>
<trkpt lat="-27.2731778" lon="151.2900637">
  <ele>377.7</ele>
  <time>2026-09-01T20:03:45Z</time>
  <course>0.16</course>
  <speed>12.26</speed>
  <fix>3d</fix>
</trkpt>
<trkpt lat="-27.2731708" lon="151.2900637">
  <ele>377.71</ele>
  <time>2026-09-01T20:03:45Z</time>
  <course>0.16</course>
  <speed>12.25</speed>
  <fix>3d</fix>
</trkpt>
<trkpt lat="-27.2732023" lon="151.2900637">
  <ele>377.66</ele>
  <time>2026-09-01T20:03:45Z</time>
  <course>0.03</course>
  <speed>12.29</speed>
  <fix>3d</fix>
</trkpt>
<trkpt lat="-27.2731668" lon="151.2900637">
  <ele>377.72</ele>
  <time>2026-09-01T20:03:45Z</time>
  <course>0.16</course>
  <speed>12.25</speed>
  <fix>3d</fix>
</trkpt>
<trkpt lat="-27.2731599" lon="151.2900637">
  <ele>377.73</ele>
  <time>2026-09-01T20:03:45Z</time>
  <course>0.16</course>
  <speed>12.24</speed>
  <fix>3d</fix>
</trkpt>
<trkpt lat="-27.2731803" lon="151.2900637">
  <ele>377.7</ele>
  <time>2026-09-01T20:03:45Z</time>
  <course>0.02</course>
  <speed>12.27</speed>
  <fix>3d</fix>
</trkpt>
<trkpt lat="-27.2731562" lon="151.2900637">
  <ele>377.73</ele>
  <time>2026-09-01T20:03:45Z</time>
  <course>0.16</course>
  <speed>12.23</speed>
  <fix>3d</fix>
</trkpt>
<trkpt lat="-27.2731489" lon="151.2900637">
  <ele>377.74</ele>
  <time>2026-09-01T20:03:45Z</time>
  <course>0.16</course>
  <speed>12.22</speed>
  <fix>3d</fix>
</trkpt>
<trkpt lat="-27.2731803" lon="151.2900637">
  <ele>377.7</ele>
  <time>2026-09-01T20:03:45Z</time>
  <course>0.02</course>
  <speed>12.27</speed>
  <fix>3d</fix>
</trkpt>
<trkpt lat="-27.2731448" lon="151.2900637">
  <ele>377.75</ele>
  <time>2026-09-01T20:03:45Z</time>
  <course>0.16</course>
  <speed>12.22</speed>
  <fix>3d</fix>
</trkpt>
<trkpt lat="-27.2731379" lon="151.2900637">
  <ele>377.76</ele>
  <time>2026-09-01T20:03:45Z</time>
  <course>0.16</course>
  <speed>12.21</speed>
  <fix>3d</fix>
</trkpt>
<trkpt lat="-27.2731583" lon="151.2900637">
  <ele>377.73</ele>
  <time>2026-09-01T20:03:45Z</time>
  <course>0.01</course>
  <speed>12.24</speed>
  <fix>3d</fix>
</trkpt>
<trkpt lat="-27.2731342" lon="151.2900637">
  <ele>377.76</ele>
  <time>2026-09-01T20:03:45Z</time>
  <course>0.16</course>
  <speed>12.2</speed>
  <fix>3d</fix>
</trkpt>
<trkpt lat="-27.273127" lon="151.2900637">
  <ele>377.77</ele>
  <time>2026-09-01T20:03:45Z</time>
  <course>0.16</course>
  <speed>12.19</speed>
  <fix>3d</fix>
</trkpt>
<trkpt lat="-27.2731583" lon="151.2900637">
  <ele>377.73</ele>
  <time>2026-09-01T20:03:45Z</time>
  <course>0.01</course>
  <speed>12.24</speed>
  <fix>3d</fix>
</trkpt>
<trkpt lat="-27.273124" lon="151.2900637">
  <ele>377.78</ele>
  <time>2026-09-01T20:03:45Z</time>
  <course>0.16</course>
  <speed>12.19</speed>
  <fix>3d</fix>
</trkpt>
<trkpt lat="-27.2731159" lon="151.2900637">
  <ele>377.79</ele>
  <time>2026-09-01T20:03:45Z</time>
  <course>0.16</course>
  <speed>12.18</speed>
  <fix>3d</fix>
</trkpt>
<trkpt lat="-27.2731363" lon="151.2900637">
  <ele>377.76</ele>
  <time>2026-09-01T20:03:45Z</time>
  <course>0.01</course>
  <speed>12.22</speed>
  <fix>3d</fix>
</trkpt>
<trkpt lat="-27.2731156" lon="151.2900637">
  <ele>377.79</ele>
  <time>2026-09-01T20:03:45Z</time>
  <course>0.16</course>
  <speed>12.18</speed>
  <fix>3d</fix>
</trkpt>
<trkpt lat="-27.273105" lon="151.2900637">
  <ele>377.8</ele>
  <time>2026-09-01T20:03:45Z</time>
  <course>0.15</course>
  <speed>12.16</speed>
  <fix>3d</fix>
</trkpt>
<trkpt lat="-27.2731363" lon="151.2900637">
  <ele>377.76</ele>
  <time>2026-09-01T20:03:45Z</time>
  <course>0.01</course>
  <speed>12.22</speed>
  <fix>3d</fix>
</trkpt>
<trkpt lat="-27.2731039" lon="151.2900637">
  <ele>377.8</ele>
  <time>2026-09-01T20:03:45Z</time>
  <course>0.15</course>
  <speed>12.16</speed>
  <fix>3d</fix>
</trkpt>
<trkpt lat="-27.2730941" lon="151.2900637">
  <ele>377.81</ele>
  <time>2026-09-01T20:03:45Z</time>
  <course>0.15</course>
  <speed>12.15</speed>
  <fix>3d</fix>
</trkpt>
<trkpt lat="-27.2731144" lon="151.2900637">
  <ele>377.79</ele>
  <time>2026-09-01T20:03:45Z</time>
  <course>0.0</course>
  <speed>12.19</speed>
  <fix>3d</fix>
</trkpt>
<trkpt lat="-27.2730908" lon="151.2900637">
  <ele>377.81</ele>
  <time>2026-09-01T20:03:45Z</time>
  <course>0.15</course>
  <speed>12.14</speed>
  <fix>3d</fix>
</trkpt>
<trkpt lat="-27.2730832" lon="151.2900637">
  <ele>377.82</ele>
  <time>2026-09-01T20:03:45Z</time>
  <course>0.15</course>
  <speed>12.13</speed>
  <fix>3d</fix>
</trkpt>
<trkpt lat="-27.2731144" lon="151.2900637">
  <ele>377.79</ele>
  <time>2026-09-01T20:03:45Z</time>
  <course>0.0</course>
  <speed>12.19</speed>
  <fix>3d</fix>
</trkpt>
<trkpt lat="-27.2730799" lon="151.2900637">
  <ele>377.82</ele>
  <time>2026-09-01T20:03:45Z</time>
  <course>0.15</course>
  <speed>12.13</speed>
  <fix>3d</fix>
</trkpt>
<trkpt lat="-27.2730723" lon="151.2900637">
  <ele>377.82</ele>
  <time>2026-09-01T20:03:45Z</time>
  <course>0.15</course>
  <speed>12.12</speed>
  <fix>3d</fix>
</trkpt>
<trkpt lat="-27.2730925" lon="151.2900637">
  <ele>377.82</ele>
  <time>2026-09-01T20:03:45Z</time>
  <course>0.0</course>
  <speed>12.15</speed>
  <fix>3d</fix>
</trkpt>
<trkpt lat="-27.273069" lon="151.2900637">
  <ele>377.83</ele>
  <time>2026-09-01T20:03:45Z</time>
  <course>0.15</course>
  <speed>12.11</speed>
  <fix>3d</fix>
</trkpt>
<trkpt lat="-27.2730614" lon="151.2900637">
  <ele>377.83</ele>
  <time>2026-09-01T20:03:45Z</time>
  <course>0.15</course>
  <speed>12.1</speed>
  <fix>3d</fix>
</trkpt>
<trkpt lat="-27.2730925" lon="151.2900637">
  <ele>377.82</ele>
  <time>2026-09-01T20:03:45Z</time>
  <course>0.0</course>
  <speed>12.15</speed>
  <fix>3d</fix>
</trkpt>
<trkpt lat="-27.2730578" lon="151.2900637">
  <ele>377.83</ele>
  <time>2026-09-01T20:03:45Z</time>
  <course>0.15</course>
  <speed>12.1</speed>
  <fix>3d</fix>
</trkpt>
<trkpt lat="-27.2730505" lon="151.2900637">
  <ele>377.84</ele>
  <time>2026-09-01T20:03:45Z</time>
  <course>0.15</course>
  <speed>12.09</speed>
  <fix>3d</fix>
</trkpt>
<trkpt lat="-27.2730707" lon="151.2900637">
  <ele>377.83</ele>
  <time>2026-09-01T20:03:45Z</time>
  <course>0.0</course>
  <speed>12.12</speed>
  <fix>3d</fix>
</trkpt>
<trkpt lat="-27.2730472" lon="151.2900637">
  <ele>377.84</ele>
  <time>2026-09-01T20:03:45Z</time>
  <course>0.15</course>
  <speed>12.08</speed>
  <fix>3d</fix>
</trkpt>
<trkpt lat="-27.2730396" lon="151.2900637">
  <ele>377.84</ele>
  <time>2026-09-01T20:03:45Z</time>
  <course>0.14</course>
  <speed>12.07</speed>
  <fix>3d</fix>
</trkpt>
<trkpt lat="-27.2730707" lon="151.2900637">
  <ele>377.83</ele>
  <time>2026-09-01T20:03:45Z</time>
  <course>0.0</course>
  <speed>12.12</speed>
  <fix>3d</fix>
</trkpt>
<trkpt lat="-27.2730368" lon="151.2900637">
  <ele>377.85</ele>
  <time>2026-09-01T20:03:45Z</time>
  <course>0.14</course>
  <speed>12.07</speed>
  <fix>3d</fix>
</trkpt>
<trkpt lat="-27.2730288" lon="151.2900637">
  <ele>377.85</ele>
  <time>2026-09-01T20:03:45Z</time>
  <course>0.14</course>
  <speed>12.06</speed>
  <fix>3d</fix>
</trkpt>
<trkpt lat="-27.2730489" lon="151.2900637">
  <ele>377.84</ele>
  <time>2026-09-01T20:03:45Z</time>
  <course>359.99</course>
  <speed>12.09</speed>
  <fix>3d</fix>
</trkpt>
<trkpt lat="-27.2730255" lon="151.2900637">
  <ele>377.85</ele>
  <time>2026-09-01T20:03:45Z</time>
  <course>0.14</course>
  <speed>12.05</speed>
  <fix>3d</fix>
</trkpt>
<trkpt lat="-27.273018" lon="151.2900637">
  <ele>377.86</ele>
  <time>2026-09-01T20:03:45Z</time>
  <course>0.14</course>
  <speed>12.04</speed>
  <fix>3d</fix>
</trkpt>
<trkpt lat="-27.2730489" lon="151.2900637">
  <ele>377.84</ele>
  <time>2026-09-01T20:03:45Z</time>
  <course>359.99</course>
  <speed>12.09</speed>
  <fix>3d</fix>
</trkpt>
<trkpt lat="-27.2730151" lon="151.2900637">
  <ele>377.86</ele>
  <time>2026-09-01T20:03:45Z</time>
  <course>0.14</course>
  <speed>12.04</speed>
  <fix>3d</fix>
</trkpt>
<trkpt lat="-27.2730071" lon="151.2900637">
  <ele>377.86</ele>
  <time>2026-09-01T20:03:45Z</time>
  <course>0.14</course>
  <speed>12.03</speed>
  <fix>3d</fix>
</trkpt>
<trkpt lat="-27.2730272" lon="151.2900637">
  <ele>377.86</ele>
  <time>2026-09-01T20:03:45Z</time>
  <course>359.99</course>
  <speed>12.06</speed>
  <fix>3d</fix>
</trkpt>
<trkpt lat="-27.2730039" lon="151.2900637">
  <ele>377.86</ele>
  <time>2026-09-01T20:03:45Z</time>
  <course>0.14</course>
  <speed>12.03</speed>
  <fix>3d</fix>
</trkpt>
<trkpt lat="-27.2729963" lon="151.2900637">
  <ele>377.87</ele>
  <time>2026-09-01T20:03:45Z</time>
  <course>0.14</course>
  <speed>12.02</speed>
  <fix>3d</fix>
</trkpt>
<trkpt lat="-27.2730272" lon="151.2900637">
  <ele>377.86</ele>
  <time>2026-09-01T20:03:45Z</time>
  <course>359.99</course>
  <speed>12.06</speed>
  <fix>3d</fix>
</trkpt>
<trkpt lat="-27.272996" lon="151.2900637">
  <ele>377.87</ele>
  <time>2026-09-01T20:03:45Z</time>
  <course>0.14</course>
  <speed>12.02</speed>
  <fix>3d</fix>
</trkpt>
<trkpt lat="-27.2729855" lon="151.2900637">
  <ele>377.87</ele>
  <time>2026-09-01T20:03:45Z</time>
  <course>0.14</course>
  <speed>12.01</speed>
  <fix>3d</fix>
</trkpt>
<trkpt lat="-27.2730055" lon="151.2900637">
  <ele>377.87</ele>
  <time>2026-09-01T20:03:45Z</time>
  <course>359.99</course>
  <speed>12.04</speed>
  <fix>3d</fix>
</trkpt>
<trkpt lat="-27.2729841" lon="151.2900637">
  <ele>377.87</ele>
  <time>2026-09-01T20:03:45Z</time>
  <course>0.14</course>
  <speed>12.01</speed>
  <fix>3d</fix>
</trkpt>
<trkpt lat="-27.2729747" lon="151.2900637">
  <ele>377.88</ele>
  <time>2026-09-01T20:03:45Z</time>
  <course>0.14</course>
  <speed>12.0</speed>
  <fix>3d</fix>
</trkpt>
<trkpt lat="-27.2730055" lon="151.2900637">
  <ele>377.87</ele>
  <time>2026-09-01T20:03:45Z</time>
  <course>359.99</course>
  <speed>12.04</speed>
  <fix>3d</fix>
</trkpt>
<trkpt lat="-27.2729736" lon="151.2900637">
  <ele>377.88</ele>
  <time>2026-09-01T20:03:45Z</time>
  <course>0.14</course>
  <speed>12.0</speed>
  <fix>3d</fix>
</trkpt>
<trkpt lat="-27.2729639" lon="151.2900637">
  <ele>377.88</ele>
  <time>2026-09-01T20:03:45Z</time>
  <course>0.14</course>
  <speed>11.99</speed>
  <fix>3d</fix>
</trkpt>
<trkpt lat="-27.2729839" lon="151.2900637">
  <ele>377.88</ele>
  <time>2026-09-01T20:03:45Z</time>
  <course>359.98</course>
  <speed>12.01</speed>
  <fix>3d</fix>
</trkpt>
<trkpt lat="-27.2729607" lon="151.2900637">
  <ele>377.88</ele>
  <time>2026-09-01T20:03:45Z</time>
  <course>0.14</course>
  <speed>11.98</speed>
  <fix>3d</fix>
</trkpt>
<trkpt lat="-27.2729532" lon="151.2900637">
  <ele>377.89</ele>
  <time>2026-09-01T20:03:45Z</time>
  <course>0.13</course>
  <speed>11.98</speed>
  <fix>3d</fix>
</trkpt>
<trkpt lat="-27.2729839" lon="151.2900637">
  <ele>377.88</ele>
  <time>2026-09-01T20:03:45Z</time>
  <course>359.98</course>
  <speed>12.01</speed>
  <fix>3d</fix>
</trkpt>
<trkpt lat="-27.2729504" lon="151.2900637">
  <ele>377.89</ele>
  <time>2026-09-01T20:03:45Z</time>
  <course>0.13</course>
  <speed>11.98</speed>
  <fix>3d</fix>
</trkpt>
<trkpt lat="-27.2729424" lon="151.2900637">
  <ele>377.89</ele>
  <time>2026-09-01T20:03:45Z</time>
  <course>0.13</course>
  <speed>11.97</speed>
  <fix>3d</fix>
</trkpt>
<trkpt lat="-27.2729624" lon="151.2900637">
  <ele>377.88</ele>
  <time>2026-09-01T20:03:45Z</time>
  <course>359.98</course>
  <speed>11.99</speed>
  <fix>3d</fix>
</trkpt>
<trkpt lat="-27.2729385" lon="151.2900637">
  <ele>377.89</ele>
  <time>2026-09-01T20:03:45Z</time>
  <course>0.13</course>
  <speed>11.97</speed>
  <fix>3d</fix>
</trkpt>
<trkpt lat="-27.2729316" lon="151.2900637">
  <ele>377.9</ele>
  <time>2026-09-01T20:03:45Z</time>
  <course>0.13</course>
  <speed>11.96</speed>
  <fix>3d</fix>
</trkpt>
<trkpt lat="-27.2729624" lon="151.2900637">
  <ele>377.88</ele>
  <time>2026-09-01T20:03:45Z</time>
  <course>359.98</course>
  <speed>11.99</speed>
  <fix>3d</fix>
</trkpt>
<trkpt lat="-27.2729284" lon="151.2900637">
  <ele>377.9</ele>
  <time>2026-09-01T20:03:45Z</time>
  <course>0.13</course>
  <speed>11.96</speed>
  <fix>3d</fix>
</trkpt>
<trkpt lat="-27.2729209" lon="151.2900637">
  <ele>377.9</ele>
  <time>2026-09-01T20:03:45Z</time>
  <course>0.13</course>
  <speed>11.95</speed>
  <fix>3d</fix>
</trkpt>
<trkpt lat="-27.2729408" lon="151.2900637">
  <ele>377.89</ele>
  <time>2026-09-01T20:03:45Z</time>
  <course>359.98</course>
  <speed>11.97</speed>
  <fix>3d</fix>
</trkpt>
<trkpt lat="-27.2729172" lon="151.2900637">
  <ele>377.9</ele>
  <time>2026-09-01T20:03:45Z</time>
  <course>0.13</course>
  <speed>11.95</speed>
  <fix>3d</fix>
</trkpt>
<trkpt lat="-27.2729101" lon="151.2900637">
  <ele>377.9</ele>
  <time>2026-09-01T20:03:45Z</time>
  <course>0.13</course>
  <speed>11.95</speed>
  <fix>3d</fix>
</trkpt>
<trkpt lat="-27.2729408" lon="151.2900637">
  <ele>377.89</ele>
  <time>2026-09-01T20:03:45Z</time>
  <course>359.98</course>
  <speed>11.97</speed>
  <fix>3d</fix>
</trkpt>
<trkpt lat="-27.2729072" lon="151.2900637">
  <ele>377.91</ele>
  <time>2026-09-01T20:03:45Z</time>
  <course>0.13</course>
  <speed>11.95</speed>
  <fix>3d</fix>
</trkpt>
<trkpt lat="-27.2728994" lon="151.2900637">
  <ele>377.91</ele>
  <time>2026-09-01T20:03:45Z</time>
  <course>0.13</course>
  <speed>11.94</speed>
  <fix>3d</fix>
</trkpt>
<trkpt lat="-27.2729193" lon="151.2900637">
  <ele>377.9</ele>
  <time>2026-09-01T20:03:45Z</time>
  <course>359.98</course>
  <speed>11.96</speed>
  <fix>3d</fix>
</trkpt>
<trkpt lat="-27.2728964" lon="151.2900637">
  <ele>377.91</ele>
  <time>2026-09-01T20:03:45Z</time>
  <course>0.13</course>
  <speed>11.94</speed>
  <fix>3d</fix>
</trkpt>
<trkpt lat="-27.2728886" lon="151.2900637">
  <ele>377.91</ele>
  <time>2026-09-01T20:03:45Z</time>
  <course>0.13</course>
  <speed>11.94</speed>
  <fix>3d</fix>
</trkpt>
<trkpt lat="-27.2729193" lon="151.2900637">
  <ele>377.9</ele>
  <time>2026-09-01T20:03:45Z</time>
  <course>359.98</course>
  <speed>11.96</speed>
  <fix>3d</fix>
</trkpt>
<trkpt lat="-27.2728882" lon="151.2900637">
  <ele>377.91</ele>
  <time>2026-09-01T20:03:45Z</time>
  <course>0.13</course>
  <speed>11.94</speed>
  <fix>3d</fix>
</trkpt>
<trkpt lat="-27.2728779" lon="151.2900637">
  <ele>377.92</ele>
  <time>2026-09-01T20:03:45Z</time>
  <course>0.13</course>
  <speed>11.94</speed>
  <fix>3d</fix>
</trkpt>
<trkpt lat="-27.2728978" lon="151.2900637">
  <ele>377.91</ele>
  <time>2026-09-01T20:03:45Z</time>
  <course>359.97</course>
  <speed>11.95</speed>
  <fix>3d</fix>
</trkpt>
<trkpt lat="-27.2728764" lon="151.2900637">
  <ele>377.92</ele>
  <time>2026-09-01T20:03:45Z</time>
  <course>0.13</course>
  <speed>11.94</speed>
  <fix>3d</fix>
</trkpt>
<trkpt lat="-27.2728671" lon="151.2900637">
  <ele>377.92</ele>
  <time>2026-09-01T20:03:45Z</time>
  <course>0.13</course>
  <speed>11.93</speed>
  <fix>3d</fix>
</trkpt>
<trkpt lat="-27.2728978" lon="151.2900637">
  <ele>377.91</ele>
  <time>2026-09-01T20:03:45Z</time>
  <course>359.97</course>
  <speed>11.95</speed>
  <fix>3d</fix>
</trkpt>
<trkpt lat="-27.2728636" lon="151.2900637">
  <ele>377.92</ele>
  <time>2026-09-01T20:03:45Z</time>
  <course>0.13</course>
  <speed>11.93</speed>
  <fix>3d</fix>
</trkpt>
<trkpt lat="-27.2728564" lon="151.2900637">
  <ele>377.93</ele>
  <time>2026-09-01T20:03:45Z</time>
  <course>0.13</course>
  <speed>11.93</speed>
  <fix>3d</fix>
</trkpt>
<trkpt lat="-27.2728764" lon="151.2900637">
  <ele>377.93</ele>
  <time>2026-09-01T20:03:45Z</time>
  <course>359.97</course>
  <speed>11.94</speed>
  <fix>3d</fix>
</trkpt>
<trkpt lat="-27.2728535" lon="151.2900637">
  <ele>377.93</ele>
  <time>2026-09-01T20:03:45Z</time>
  <course>0.13</course>
  <speed>11.93</speed>
  <fix>3d</fix>
</trkpt>
<trkpt lat="-27.2728457" lon="151.2900637">
  <ele>377.93</ele>
  <time>2026-09-01T20:03:45Z</time>
  <course>0.12</course>
  <speed>11.93</speed>
  <fix>3d</fix>
</trkpt>
<trkpt lat="-27.2728764" lon="151.2900637">
  <ele>377.93</ele>
  <time>2026-09-01T20:03:45Z</time>
  <course>359.97</course>
  <speed>11.94</speed>
  <fix>3d</fix>
</trkpt>
<trkpt lat="-27.2728428" lon="151.2900637">
  <ele>377.93</ele>
  <time>2026-09-01T20:03:45Z</time>
  <course>0.12</course>
  <speed>11.93</speed>
  <fix>3d</fix>
</trkpt>
<trkpt lat="-27.272835" lon="151.2900637">
  <ele>377.94</ele>
  <time>2026-09-01T20:03:45Z</time>
  <course>0.12</course>
  <speed>11.93</speed>
  <fix>3d</fix>
</trkpt>
<trkpt lat="-27.2728549" lon="151.2900637">
  <ele>377.94</ele>
  <time>2026-09-01T20:03:45Z</time>
  <course>359.97</course>
  <speed>11.94</speed>
  <fix>3d</fix>
</trkpt>
<trkpt lat="-27.272831" lon="151.2900637">
  <ele>377.94</ele>
  <time>2026-09-01T20:03:45Z</time>
  <course>0.12</course>
  <speed>11.93</speed>
  <fix>3d</fix>
</trkpt>
<trkpt lat="-27.2728242" lon="151.2900637">
  <ele>377.95</ele>
  <time>2026-09-01T20:03:45Z</time>
  <course>0.12</course>
  <speed>11.94</speed>
  <fix>3d</fix>
</trkpt>
<trkpt lat="-27.2728549" lon="151.2900637">
  <ele>377.94</ele>
  <time>2026-09-01T20:03:45Z</time>
  <course>359.97</course>
  <speed>11.94</speed>
  <fix>3d</fix>
</trkpt>
<trkpt lat="-27.2728235" lon="151.2900637">
  <ele>377.95</ele>
  <time>2026-09-01T20:03:45Z</time>
  <course>0.12</course>
  <speed>11.94</speed>
  <fix>3d</fix>
</trkpt>
<trkpt lat="-27.2728135" lon="151.2900637">
  <ele>377.96</ele>
  <time>2026-09-01T20:03:45Z</time>
  <course>0.12</course>
  <speed>11.94</speed>
  <fix>3d</fix>
</trkpt>
<trkpt lat="-27.2728335" lon="151.2900637">
  <ele>377.96</ele>
  <time>2026-09-01T20:03:45Z</time>
  <course>359.97</course>
  <speed>11.94</speed>
  <fix>3d</fix>
</trkpt>
<trkpt lat="-27.27281" lon="151.2900637">
  <ele>377.96</ele>
  <time>2026-09-01T20:03:45Z</time>
  <course>0.12</course>
  <speed>11.94</speed>
  <fix>3d</fix>
</trkpt>
<trkpt lat="-27.2728028" lon="151.2900637">
  <ele>377.97</ele>
  <time>2026-09-01T20:03:45Z</time>
  <course>0.12</course>
  <speed>11.94</speed>
  <fix>3d</fix>
</trkpt>
<trkpt lat="-27.2728335" lon="151.2900637">
  <ele>377.96</ele>
  <time>2026-09-01T20:03:45Z</time>
  <course>359.97</course>
  <speed>11.94</speed>
  <fix>3d</fix>
</trkpt>
<trkpt lat="-27.2727999" lon="151.2900637">
  <ele>377.97</ele>
  <time>2026-09-01T20:03:45Z</time>
  <course>0.12</course>
  <speed>11.94</speed>
  <fix>3d</fix>
</trkpt>
<trkpt lat="-27.272792" lon="151.2900637">
  <ele>377.98</ele>
  <time>2026-09-01T20:03:45Z</time>
  <course>0.12</course>
  <speed>11.94</speed>
  <fix>3d</fix>
</trkpt>
<trkpt lat="-27.272812" lon="151.2900637">
  <ele>377.97</ele>
  <time>2026-09-01T20:03:45Z</time>
  <course>359.96</course>
  <speed>11.94</speed>
  <fix>3d</fix>
</trkpt>
<trkpt lat="-27.2727892" lon="151.2900637">
  <ele>377.99</ele>
  <time>2026-09-01T20:03:45Z</time>
  <course>0.11</course>
  <speed>11.94</speed>
  <fix>3d</fix>
</trkpt>
<trkpt lat="-27.2727813" lon="151.2900637">
  <ele>378.0</ele>
  <time>2026-09-01T20:03:45Z</time>
  <course>0.11</course>
  <speed>11.95</speed>
  <fix>3d</fix>
</trkpt>
<trkpt lat="-27.272812" lon="151.2900637">
  <ele>377.97</ele>
  <time>2026-09-01T20:03:45Z</time>
  <course>359.96</course>
  <speed>11.94</speed>
  <fix>3d</fix>
</trkpt>
<trkpt lat="-27.2727788" lon="151.2900637">
  <ele>378.0</ele>
  <time>2026-09-01T20:03:45Z</time>
  <course>0.11</course>
  <speed>11.95</speed>
  <fix>3d</fix>
</trkpt>
<trkpt lat="-27.2727706" lon="151.2900637">
  <ele>378.01</ele>
  <time>2026-09-01T20:03:45Z</time>
  <course>0.11</course>
  <speed>11.95</speed>
  <fix>3d</fix>
</trkpt>
<trkpt lat="-27.2727905" lon="151.2900637">
  <ele>378.0</ele>
  <time>2026-09-01T20:03:45Z</time>
  <course>359.96</course>
  <speed>11.95</speed>
  <fix>3d</fix>
</trkpt>
<trkpt lat="-27.2727702" lon="151.2900637">
  <ele>378.01</ele>
  <time>2026-09-01T20:03:45Z</time>
  <course>0.11</course>
  <speed>11.95</speed>
  <fix>3d</fix>
</trkpt>
<trkpt lat="-27.2727598" lon="151.2900637">
  <ele>378.02</ele>
  <time>2026-09-01T20:03:45Z</time>
  <course>0.11</course>
  <speed>11.96</speed>
  <fix>3d</fix>
</trkpt>
<trkpt lat="-27.2727905" lon="151.2900637">
  <ele>378.0</ele>
  <time>2026-09-01T20:03:45Z</time>
  <course>359.96</course>
  <speed>11.95</speed>
  <fix>3d</fix>
</trkpt>
<trkpt lat="-27.2727595" lon="151.2900637">
  <ele>378.02</ele>
  <time>2026-09-01T20:03:45Z</time>
  <course>0.11</course>
  <speed>11.96</speed>
  <fix>3d</fix>
</trkpt>
<trkpt lat="-27.2727491" lon="151.2900637">
  <ele>378.03</ele>
  <time>2026-09-01T20:03:45Z</time>
  <course>0.11</course>
  <speed>11.96</speed>
  <fix>3d</fix>
</trkpt>
<trkpt lat="-27.272769" lon="151.2900637">
  <ele>378.02</ele>
  <time>2026-09-01T20:03:45Z</time>
  <course>359.96</course>
  <speed>11.96</speed>
  <fix>3d</fix>
</trkpt>
<trkpt lat="-27.2727455" lon="151.2900637">
  <ele>378.04</ele>
  <time>2026-09-01T20:03:45Z</time>
  <course>0.11</course>
  <speed>11.96</speed>
  <fix>3d</fix>
</trkpt>
<trkpt lat="-27.2727383" lon="151.2900637">
  <ele>378.04</ele>
  <time>2026-09-01T20:03:45Z</time>
  <course>0.11</course>
  <speed>11.96</speed>
  <fix>3d</fix>
</trkpt>
<trkpt lat="-27.272769" lon="151.2900637">
  <ele>378.02</ele>
  <time>2026-09-01T20:03:45Z</time>
  <course>359.96</course>
  <speed>11.96</speed>
  <fix>3d</fix>
</trkpt>
<trkpt lat="-27.2727351" lon="151.2900637">
  <ele>378.05</ele>
  <time>2026-09-01T20:03:45Z</time>
  <course>0.11</course>
  <speed>11.96</speed>
  <fix>3d</fix>
</trkpt>
<trkpt lat="-27.2727276" lon="151.2900637">
  <ele>378.06</ele>
  <time>2026-09-01T20:03:45Z</time>
  <course>0.11</course>
  <speed>11.97</speed>
  <fix>3d</fix>
</trkpt>
<trkpt lat="-27.2727475" lon="151.2900637">
  <ele>378.05</ele>
  <time>2026-09-01T20:03:45Z</time>
  <course>359.95</course>
  <speed>11.97</speed>
  <fix>3d</fix>
</trkpt>
<trkpt lat="-27.2727248" lon="151.2900637">
  <ele>378.06</ele>
  <time>2026-09-01T20:03:45Z</time>
  <course>0.11</course>
  <speed>11.97</speed>
  <fix>3d</fix>
</trkpt>
<trkpt lat="-27.2727168" lon="151.2900637">
  <ele>378.07</ele>
  <time>2026-09-01T20:03:45Z</time>
  <course>0.11</course>
  <speed>11.97</speed>
  <fix>3d</fix>
</trkpt>
<trkpt lat="-27.2727475" lon="151.2900637">
  <ele>378.05</ele>
  <time>2026-09-01T20:03:45Z</time>
  <course>359.95</course>
  <speed>11.97</speed>
  <fix>3d</fix>
</trkpt>
<trkpt lat="-27.2727136" lon="151.2900637">
  <ele>378.08</ele>
  <time>2026-09-01T20:03:45Z</time>
  <course>0.1</course>
  <speed>11.97</speed>
  <fix>3d</fix>
</trkpt>
<trkpt lat="-27.272706" lon="151.2900637">
  <ele>378.08</ele>
  <time>2026-09-01T20:03:45Z</time>
  <course>0.1</course>
  <speed>11.98</speed>
  <fix>3d</fix>
</trkpt>
<trkpt lat="-27.272726" lon="151.2900637">
  <ele>378.07</ele>
  <time>2026-09-01T20:03:45Z</time>
  <course>359.95</course>
  <speed>11.98</speed>
  <fix>3d</fix>
</trkpt>
<trkpt lat="-27.2727028" lon="151.2900637">
  <ele>378.09</ele>
  <time>2026-09-01T20:03:45Z</time>
  <course>0.1</course>
  <speed>11.98</speed>
  <fix>3d</fix>
</trkpt>
<trkpt lat="-27.2726953" lon="151.2900637">
  <ele>378.1</ele>
  <time>2026-09-01T20:03:45Z</time>
  <course>0.1</course>
  <speed>11.98</speed>
  <fix>3d</fix>
</trkpt>
<trkpt lat="-27.272726" lon="151.2900637">
  <ele>378.07</ele>
  <time>2026-09-01T20:03:45Z</time>
  <course>359.95</course>
  <speed>11.98</speed>
  <fix>3d</fix>
</trkpt>
<trkpt lat="-27.2726913" lon="151.2900637">
  <ele>378.1</ele>
  <time>2026-09-01T20:03:45Z</time>
  <course>0.1</course>
  <speed>11.98</speed>
  <fix>3d</fix>
</trkpt>
<trkpt lat="-27.2726845" lon="151.2900637">
  <ele>378.11</ele>
  <time>2026-09-01T20:03:45Z</time>
  <course>0.1</course>
  <speed>11.99</speed>
  <fix>3d</fix>
</trkpt>
<trkpt lat="-27.2727044" lon="151.2900637">
  <ele>378.1</ele>
  <time>2026-09-01T20:03:45Z</time>
  <course>359.94</course>
  <speed>11.99</speed>
  <fix>3d</fix>
</trkpt>
<trkpt lat="-27.2726841" lon="151.2900637">
  <ele>378.11</ele>
  <time>2026-09-01T20:03:45Z</time>
  <course>0.1</course>
  <speed>11.99</speed>
  <fix>3d</fix>
</trkpt>
<trkpt lat="-27.2726737" lon="151.2900637">
  <ele>378.13</ele>
  <time>2026-09-01T20:03:45Z</time>
  <course>0.1</course>
  <speed>11.99</speed>
  <fix>3d</fix>
</trkpt>
<trkpt lat="-27.2727044" lon="151.2900637">
  <ele>378.1</ele>
  <time>2026-09-01T20:03:45Z</time>
  <course>359.94</course>
  <speed>11.99</speed>
  <fix>3d</fix>
</trkpt>
<trkpt lat="-27.2726733" lon="151.2900637">
  <ele>378.13</ele>
  <time>2026-09-01T20:03:45Z</time>
  <course>0.1</course>
  <speed>11.99</speed>
  <fix>3d</fix>
</trkpt>
<trkpt lat="-27.272663" lon="151.2900637">
  <ele>378.15</ele>
  <time>2026-09-01T20:03:45Z</time>
  <course>0.1</course>
  <speed>11.99</speed>
  <fix>3d</fix>
</trkpt>
<trkpt lat="-27.2726829" lon="151.2900637">
  <ele>378.13</ele>
  <time>2026-09-01T20:03:45Z</time>
  <course>359.94</course>
  <speed>11.99</speed>
  <fix>3d</fix>
</trkpt>
<trkpt lat="-27.2726522" lon="151.2900637">
  <ele>378.17</ele>
  <time>2026-09-01T20:03:45Z</time>
  <course>0.09</course>
  <speed>12.0</speed>
  <fix>3d</fix>
</trkpt>
<trkpt lat="-27.2726829" lon="151.2900637">
  <ele>378.13</ele>
  <time>2026-09-01T20:03:45Z</time>
  <course>359.94</course>
  <speed>11.99</speed>
  <fix>3d</fix>
</trkpt>
<trkpt lat="-27.2726414" lon="151.2900637">
  <ele>378.18</ele>
  <time>2026-09-01T20:03:45Z</time>
  <course>0.09</course>
  <speed>12.0</speed>
  <fix>3d</fix>
</trkpt>
<trkpt lat="-27.2726613" lon="151.2900637">
  <ele>378.16</ele>
  <time>2026-09-01T20:03:45Z</time>
  <course>359.94</course>
  <speed>12.0</speed>
  <fix>3d</fix>
</trkpt>
<trkpt lat="-27.2726306" lon="151.2900637">
  <ele>378.2</ele>
  <time>2026-09-01T20:03:45Z</time>
  <course>0.09</course>
  <speed>12.0</speed>
  <fix>3d</fix>
</trkpt>
<trkpt lat="-27.2726613" lon="151.2900637">
  <ele>378.16</ele>
  <time>2026-09-01T20:03:45Z</time>
  <course>359.94</course>
  <speed>12.0</speed>
  <fix>3d</fix>
</trkpt>
<trkpt lat="-27.2726197" lon="151.2900637">
  <ele>378.22</ele>
  <time>2026-09-01T20:03:45Z</time>
  <course>0.1</course>
  <speed>12.0</speed>
  <fix>3d</fix>
</trkpt>
<trkpt lat="-27.2726398" lon="151.2900637">
  <ele>378.19</ele>
  <time>2026-09-01T20:03:45Z</time>
  <course>359.93</course>
  <speed>12.01</speed>
  <fix>3d</fix>
</trkpt>
<trkpt lat="-27.2726089" lon="151.2900637">
  <ele>378.23</ele>
  <time>2026-09-01T20:03:45Z</time>
  <course>0.1</course>
  <speed>11.99</speed>
  <fix>3d</fix>
</trkpt>
<trkpt lat="-27.2726398" lon="151.2900637">
  <ele>378.19</ele>
  <time>2026-09-01T20:03:45Z</time>
  <course>359.93</course>
  <speed>12.01</speed>
  <fix>3d</fix>
</trkpt>
<trkpt lat="-27.2725981" lon="151.2900637">
  <ele>378.25</ele>
  <time>2026-09-01T20:03:45Z</time>
  <course>0.11</course>
  <speed>11.96</speed>
  <fix>3d</fix>
</trkpt>
<trkpt lat="-27.2726182" lon="151.2900636">
  <ele>378.22</ele>
  <time>2026-09-01T20:03:45Z</time>
  <course>359.93</course>
  <speed>12.01</speed>
  <fix>3d</fix>
</trkpt>
<trkpt lat="-27.2725874" lon="151.2900637">
  <ele>378.26</ele>
  <time>2026-09-01T20:03:45Z</time>
  <course>0.11</course>
  <speed>11.91</speed>
  <fix>3d</fix>
</trkpt>
<trkpt lat="-27.2726182" lon="151.2900636">
  <ele>378.22</ele>
  <time>2026-09-01T20:03:45Z</time>
  <course>359.93</course>
  <speed>12.01</speed>
  <fix>3d</fix>
</trkpt>
<trkpt lat="-27.2725767" lon="151.2900637">
  <ele>378.27</ele>
  <time>2026-09-01T20:03:45Z</time>
  <course>0.12</course>
  <speed>11.84</speed>
  <fix>3d</fix>
</trkpt>
<trkpt lat="-27.2725967" lon="151.2900636">
  <ele>378.25</ele>
  <time>2026-09-01T20:03:45Z</time>
  <course>359.93</course>
  <speed>11.96</speed>
  <fix>3d</fix>
</trkpt>
<trkpt lat="-27.2725661" lon="151.2900637">
  <ele>378.28</ele>
  <time>2026-09-01T20:03:45Z</time>
  <course>0.12</course>
  <speed>11.75</speed>
  <fix>3d</fix>
</trkpt>
<trkpt lat="-27.2725967" lon="151.2900636">
  <ele>378.25</ele>
  <time>2026-09-01T20:03:45Z</time>
  <course>359.93</course>
  <speed>11.96</speed>
  <fix>3d</fix>
</trkpt>
<trkpt lat="-27.2725556" lon="151.2900637">
  <ele>378.27</ele>
  <time>2026-09-01T20:03:45Z</time>
  <course>0.14</course>
  <speed>11.65</speed>
  <fix>3d</fix>
</trkpt>
<trkpt lat="-27.2725752" lon="151.2900636">
  <ele>378.28</ele>
  <time>2026-09-01T20:03:45Z</time>
  <course>359.92</course>
  <speed>11.84</speed>
  <fix>3d</fix>
</trkpt>
<trkpt lat="-27.2725452" lon="151.2900637">
  <ele>378.26</ele>
  <time>2026-09-01T20:03:45Z</time>
  <course>0.16</course>
  <speed>11.55</speed>
  <fix>3d</fix>
</trkpt>
<trkpt lat="-27.2725752" lon="151.2900636">
  <ele>378.28</ele>
  <time>2026-09-01T20:03:45Z</time>
  <course>359.92</course>
  <speed>11.84</speed>
  <fix>3d</fix>
</trkpt>
<trkpt lat="-27.2725348" lon="151.2900637">
  <ele>378.24</ele>
  <time>2026-09-01T20:03:45Z</time>
  <course>0.18</course>
  <speed>11.44</speed>
  <fix>3d</fix>
</trkpt>
<trkpt lat="-27.2725541" lon="151.2900636">
  <ele>378.28</ele>
  <time>2026-09-01T20:03:45Z</time>
  <course>359.92</course>
  <speed>11.67</speed>
  <fix>3d</fix>
</trkpt>
<trkpt lat="-27.2725246" lon="151.2900637">
  <ele>378.21</ele>
  <time>2026-09-01T20:03:45Z</time>
  <course>0.23</course>
  <speed>11.34</speed>
  <fix>3d</fix>
</trkpt>
<trkpt lat="-27.2725541" lon="151.2900636">
  <ele>378.28</ele>
  <time>2026-09-01T20:03:45Z</time>
  <course>359.92</course>
  <speed>11.67</speed>
  <fix>3d</fix>
</trkpt>
<trkpt lat="-27.2725145" lon="151.2900637">
  <ele>378.19</ele>
  <time>2026-09-01T20:03:45Z</time>
  <course>0.27</course>
  <speed>11.22</speed>
  <fix>3d</fix>
</trkpt>
<trkpt lat="-27.2725333" lon="151.2900635">
  <ele>378.25</ele>
  <time>2026-09-01T20:03:45Z</time>
  <course>359.93</course>
  <speed>11.46</speed>
  <fix>3d</fix>
</trkpt>
<trkpt lat="-27.2725044" lon="151.2900637">
  <ele>378.17</ele>
  <time>2026-09-01T20:03:45Z</time>
  <course>0.32</course>
  <speed>11.09</speed>
  <fix>3d</fix>
</trkpt>
<trkpt lat="-27.2725333" lon="151.2900635">
  <ele>378.25</ele>
  <time>2026-09-01T20:03:45Z</time>
  <course>359.93</course>
  <speed>11.46</speed>
  <fix>3d</fix>
</trkpt>
<trkpt lat="-27.2724945" lon="151.2900637">
  <ele>378.17</ele>
  <time>2026-09-01T20:03:45Z</time>
  <course>0.36</course>
  <speed>10.940004570382957</speed>
  <fix>3d</fix>
</trkpt>
<trkpt lat="-27.2725129" lon="151.2900635">
  <ele>378.2</ele>
  <time>2026-09-01T20:03:45Z</time>
  <course>359.95</course>
  <speed>11.23</speed>
  <fix>3d</fix>
</trkpt>
<trkpt lat="-27.2724847" lon="151.2900637">
  <ele>378.18</ele>
  <time>2026-09-01T20:03:45Z</time>
  <course>0.39</course>
  <speed>10.770004642524533</speed>
  <fix>3d</fix>
</trkpt>
<trkpt lat="-27.2725129" lon="151.2900635">
  <ele>378.2</ele>
  <time>2026-09-01T20:03:45Z</time>
  <course>359.95</course>
  <speed>11.23</speed>
  <fix>3d</fix>
</trkpt>
<trkpt lat="-27.2724751" lon="151.2900637">
  <ele>378.2</ele>
  <time>2026-09-01T20:03:45Z</time>
  <course>0.43</course>
  <speed>10.590004721434264</speed>
  <fix>3d</fix>
</trkpt>
<trkpt lat="-27.2724929" lon="151.2900635">
  <ele>378.18</ele>
  <time>2026-09-01T20:03:45Z</time>
  <course>359.98</course>
  <speed>10.95</speed>
  <fix>3d</fix>
</trkpt>
<trkpt lat="-27.2724657" lon="151.2900637">
  <ele>378.24</ele>
  <time>2026-09-01T20:03:45Z</time>
  <course>0.45</course>
  <speed>10.40001923075145</speed>
  <fix>3d</fix>
</trkpt>
<trkpt lat="-27.2724929" lon="151.2900635">
  <ele>378.18</ele>
  <time>2026-09-01T20:03:45Z</time>
  <course>359.98</course>
  <speed>10.95</speed>
  <fix>3d</fix>
</trkpt>
<trkpt lat="-27.2724564" lon="151.2900637">
  <ele>378.29</ele>
  <time>2026-09-01T20:03:45Z</time>
  <course>0.48</course>
  <speed>10.190019627066475</speed>
  <fix>3d</fix>
</trkpt>
<trkpt lat="-27.2724736" lon="151.2900635">
  <ele>378.22</ele>
  <time>2026-09-01T20:03:45Z</time>
  <course>0.03</course>
  <speed>10.61</speed>
  <fix>3d</fix>
</trkpt>
<trkpt lat="-27.2724474" lon="151.2900637">
  <ele>378.35</ele>
  <time>2026-09-01T20:03:45Z</time>
  <course>0.51</course>
  <speed>9.97002006016036</speed>
  <fix>3d</fix>
</trkpt>
<trkpt lat="-27.2724736" lon="151.2900635">
  <ele>378.22</ele>
  <time>2026-09-01T20:03:45Z</time>
  <course>0.03</course>
  <speed>10.61</speed>
  <fix>3d</fix>
</trkpt>
<trkpt lat="-27.2724385" lon="151.2900637">
  <ele>378.42</ele>
  <time>2026-09-01T20:03:45Z</time>
  <course>0.54</course>
  <speed>9.750046153736914</speed>
  <fix>3d</fix>
</trkpt>
<trkpt lat="-27.2724549" lon="151.2900635">
  <ele>378.31</ele>
  <time>2026-09-01T20:03:45Z</time>
  <course>0.08</course>
  <speed>10.21</speed>
  <fix>3d</fix>
</trkpt>
<trkpt lat="-27.2724298" lon="151.2900637">
  <ele>378.5</ele>
  <time>2026-09-01T20:03:45Z</time>
  <course>0.57</course>
  <speed>9.510047318494266</speed>
  <fix>3d</fix>
</trkpt>
<trkpt lat="-27.2724549" lon="151.2900635">
  <ele>378.31</ele>
  <time>2026-09-01T20:03:45Z</time>
  <course>0.08</course>
  <speed>10.21</speed>
  <fix>3d</fix>
</trkpt>
<trkpt lat="-27.2724214" lon="151.2900637">
  <ele>378.59</ele>
  <time>2026-09-01T20:03:45Z</time>
  <course>0.61</course>
  <speed>9.260048595984797</speed>
  <fix>3d</fix>
</trkpt>
<trkpt lat="-27.2724369" lon="151.2900635">
  <ele>378.44</ele>
  <time>2026-09-01T20:03:45Z</time>
  <course>0.14</course>
  <speed>9.76</speed>
  <fix>3d</fix>
</trkpt>
<trkpt lat="-27.2724131" lon="151.2900637">
  <ele>378.68</ele>
  <time>2026-09-01T20:03:45Z</time>
  <course>0.64</course>
  <speed>9.010049944367678</speed>
  <fix>3d</fix>
</trkpt>
<trkpt lat="-27.2724369" lon="151.2900635">
  <ele>378.44</ele>
  <time>2026-09-01T20:03:45Z</time>
  <course>0.14</course>
  <speed>9.76</speed>
  <fix>3d</fix>
</trkpt>
<trkpt lat="-27.272405" lon="151.2900637">
  <ele>378.77</ele>
  <time>2026-09-01T20:03:45Z</time>
  <course>0.68</course>
  <speed>8.750091428093766</speed>
  <fix>3d</fix>
</trkpt>
<trkpt lat="-27.2724198" lon="151.2900635">
  <ele>378.61</ele>
  <time>2026-09-01T20:03:45Z</time>
  <course>0.2</course>
  <speed>9.28</speed>
  <fix>3d</fix>
</trkpt>
<trkpt lat="-27.2723973" lon="151.2900637">
  <ele>378.87</ele>
  <time>2026-09-01T20:03:45Z</time>
  <course>0.71</course>
  <speed>8.500094117125998</speed>
  <fix>3d</fix>
</trkpt>
<trkpt lat="-27.2724198" lon="151.2900635">
  <ele>378.61</ele>
  <time>2026-09-01T20:03:45Z</time>
  <course>0.2</course>
  <speed>9.28</speed>
  <fix>3d</fix>
</trkpt>
<trkpt lat="-27.2723897" lon="151.2900638">
  <ele>378.96</ele>
  <time>2026-09-01T20:03:45Z</time>
  <course>0.75</course>
  <speed>8.25009696912709</speed>
  <fix>3d</fix>
</trkpt>
<trkpt lat="-27.2724035" lon="151.2900636">
  <ele>378.79</ele>
  <time>2026-09-01T20:03:45Z</time>
  <course>0.26</course>
  <speed>8.77</speed>
  <fix>3d</fix>
</trkpt>
<trkpt lat="-27.2723824" lon="151.2900638">
  <ele>379.05</ele>
  <time>2026-09-01T20:03:45Z</time>
  <course>0.78</course>
  <speed>8.000099999375008</speed>
  <fix>3d</fix>
</trkpt>
<trkpt lat="-27.2724035" lon="151.2900636">
  <ele>378.79</ele>
  <time>2026-09-01T20:03:45Z</time>
  <course>0.26</course>
  <speed>8.77</speed>
  <fix>3d</fix>
</trkpt>
<trkpt lat="-27.2723752" lon="151.2900638">
  <ele>379.13</ele>
  <time>2026-09-01T20:03:45Z</time>
  <course>0.82</course>
  <speed>7.770102959420808</speed>
  <fix>3d</fix>
</trkpt>
<trkpt lat="-27.2723882" lon="151.2900636">
  <ele>378.98</ele>
  <time>2026-09-01T20:03:45Z</time>
  <course>0.33</course>
  <speed>8.27</speed>
  <fix>3d</fix>
</trkpt>
<trkpt lat="-27.2723682" lon="151.2900639">
  <ele>379.2</ele>
  <time>2026-09-01T20:03:45Z</time>
  <course>0.86</course>
  <speed>7.530166000826276</speed>
  <fix>3d</fix>
</trkpt>
<trkpt lat="-27.2723882" lon="151.2900636">
  <ele>378.98</ele>
  <time>2026-09-01T20:03:45Z</time>
  <course>0.33</course>
  <speed>8.27</speed>
  <fix>3d</fix>
</trkpt>
<trkpt lat="-27.2723615" lon="151.2900639">
  <ele>379.27</ele>
  <time>2026-09-01T20:03:45Z</time>
  <course>0.9</course>
  <speed>7.310170996632021</speed>
  <fix>3d</fix>
</trkpt>
<trkpt lat="-27.2723738" lon="151.2900637">
  <ele>379.15</ele>
  <time>2026-09-01T20:03:45Z</time>
  <course>0.41</course>
  <speed>7.78</speed>
  <fix>3d</fix>
</trkpt>
<trkpt lat="-27.272355" lon="151.2900639">
  <ele>379.32</ele>
  <time>2026-09-01T20:03:45Z</time>
  <course>0.94</course>
  <speed>7.090176302462442</speed>
  <fix>3d</fix>
</trkpt>
<trkpt lat="-27.2723738" lon="151.2900637">
  <ele>379.15</ele>
  <time>2026-09-01T20:03:45Z</time>
  <course>0.41</course>
  <speed>7.78</speed>
  <fix>3d</fix>
</trkpt>
<trkpt lat="-27.2723487" lon="151.290064">
  <ele>379.36</ele>
  <time>2026-09-01T20:03:45Z</time>
  <course>0.99</course>
  <speed>6.8801816836476055</speed>
  <fix>3d</fix>
</trkpt>
<trkpt lat="-27.2723602" lon="151.2900639">
  <ele>379.29</ele>
  <time>2026-09-01T20:03:45Z</time>
  <course>0.49</course>
  <speed>7.32</speed>
  <fix>3d</fix>
</trkpt>
<trkpt lat="-27.2723426" lon="151.2900641">
  <ele>379.39</ele>
  <time>2026-09-01T20:03:45Z</time>
  <course>1.03</course>
  <speed>6.680269455643238</speed>
  <fix>3d</fix>
</trkpt>
<trkpt lat="-27.2723602" lon="151.2900639">
  <ele>379.29</ele>
  <time>2026-09-01T20:03:45Z</time>
  <course>0.49</course>
  <speed>7.32</speed>
  <fix>3d</fix>
</trkpt>
<trkpt lat="-27.2723366" lon="151.2900641">
  <ele>379.41</ele>
  <time>2026-09-01T20:03:45Z</time>
  <course>1.08</course>
  <speed>6.490277343842865</speed>
  <fix>3d</fix>
</trkpt>
<trkpt lat="-27.2723475" lon="151.290064">
  <ele>379.39</ele>
  <time>2026-09-01T20:03:45Z</time>
  <course>0.58</course>
  <speed>6.89</speed>
  <fix>3d</fix>
</trkpt>
<trkpt lat="-27.2723308" lon="151.2900642">
  <ele>379.39</ele>
  <time>2026-09-01T20:03:45Z</time>
  <course>1.13</course>
  <speed>6.300285707807226</speed>
  <fix>3d</fix>
</trkpt>
<trkpt lat="-27.2723475" lon="151.290064">
  <ele>379.39</ele>
  <time>2026-09-01T20:03:45Z</time>
  <course>0.58</course>
  <speed>6.89</speed>
  <fix>3d</fix>
</trkpt>
<trkpt lat="-27.2723252" lon="151.2900642">
  <ele>379.29</ele>
  <time>2026-09-01T20:03:45Z</time>
  <course>1.2</course>
  <speed>6.050297513345935</speed>
  <fix>3d</fix>
</trkpt>
<trkpt lat="-27.2723354" lon="151.2900642">
  <ele>379.43</ele>
  <time>2026-09-01T20:03:45Z</time>
  <course>0.67</course>
  <speed>6.49</speed>
  <fix>3d</fix>
</trkpt>
<trkpt lat="-27.2723199" lon="151.2900643">
  <ele>379.12</ele>
  <time>2026-09-01T20:03:45Z</time>
  <course>1.26</course>
  <speed>5.73021814593476</speed>
  <fix>3d</fix>
</trkpt>
<trkpt lat="-27.2723354" lon="151.2900642">
  <ele>379.43</ele>
  <time>2026-09-01T20:03:45Z</time>
  <course>0.67</course>
  <speed>6.49</speed>
  <fix>3d</fix>
</trkpt>
<trkpt lat="-27.2723148" lon="151.2900644">
  <ele>378.89</ele>
  <time>2026-09-01T20:03:45Z</time>
  <course>1.32</course>
  <speed>5.320234957217585</speed>
  <fix>3d</fix>
</trkpt>
<trkpt lat="-27.2723242" lon="151.2900643">
  <ele>379.3</ele>
  <time>2026-09-01T20:03:45Z</time>
  <course>0.72</course>
  <speed>6.01</speed>
  <fix>3d</fix>
</trkpt>
<trkpt lat="-27.2723102" lon="151.2900644">
  <ele>378.61</ele>
  <time>2026-09-01T20:03:45Z</time>
  <course>1.35</course>
  <speed>4.840165286433925</speed>
  <fix>3d</fix>
</trkpt>
<trkpt lat="-27.2723242" lon="151.2900643">
  <ele>379.3</ele>
  <time>2026-09-01T20:03:45Z</time>
  <course>0.72</course>
  <speed>6.01</speed>
  <fix>3d</fix>
</trkpt>
<trkpt lat="-27.2723061" lon="151.2900645">
  <ele>378.3</ele>
  <time>2026-09-01T20:03:45Z</time>
  <course>1.36</course>
  <speed>4.320185181216194</speed>
  <fix>3d</fix>
</trkpt>
<trkpt lat="-27.272314" lon="151.2900645">
  <ele>378.92</ele>
  <time>2026-09-01T20:03:45Z</time>
  <course>0.78</course>
  <speed>5.29</speed>
  <fix>3d</fix>
</trkpt>
<trkpt lat="-27.2723025" lon="151.2900645">
  <ele>377.96</ele>
  <time>2026-09-01T20:03:45Z</time>
  <course>1.35</course>
  <speed>3.7602127599379265</speed>
  <fix>3d</fix>
</trkpt>
<trkpt lat="-27.272314" lon="151.2900645">
  <ele>378.92</ele>
  <time>2026-09-01T20:03:45Z</time>
  <course>0.78</course>
  <speed>5.29</speed>
  <fix>3d</fix>
</trkpt>
<trkpt lat="-27.2722993" lon="151.2900646">
  <ele>377.61</ele>
  <time>2026-09-01T20:03:45Z</time>
  <course>1.35</course>
  <speed>3.1801415062855303</speed>
  <fix>3d</fix>
</trkpt>
<trkpt lat="-27.2723053" lon="151.2900646">
  <ele>378.34</ele>
  <time>2026-09-01T20:03:45Z</time>
  <course>0.9</course>
  <speed>4.3</speed>
  <fix>3d</fix>
</trkpt>
<trkpt lat="-27.2722967" lon="151.2900646">
  <ele>377.25</ele>
  <time>2026-09-01T20:03:45Z</time>
  <course>1.37</course>
  <speed>2.6200763347658405</speed>
  <fix>3d</fix>
</trkpt>
<trkpt lat="-27.2723053" lon="151.2900646">
  <ele>378.34</ele>
  <time>2026-09-01T20:03:45Z</time>
  <course>0.9</course>
  <speed>4.3</speed>
  <fix>3d</fix>
</trkpt>
<trkpt lat="-27.2722945" lon="151.2900647">
  <ele>376.9</ele>
  <time>2026-09-01T20:03:45Z</time>
  <course>1.45</course>
  <speed>2.090023923308056</speed>
  <fix>3d</fix>
</trkpt>
<trkpt lat="-27.2722986" lon="151.2900647">
  <ele>377.66</ele>
  <time>2026-09-01T20:03:45Z</time>
  <course>1.12</course>
  <speed>3.19</speed>
  <fix>3d</fix>
</trkpt>
<trkpt lat="-27.2722928" lon="151.2900647">
  <ele>376.55</ele>
  <time>2026-09-01T20:03:45Z</time>
  <course>1.94</course>
  <speed>1.5911316727411344</speed>
  <fix>3d</fix>
</trkpt>
<trkpt lat="-27.2722986" lon="151.2900647">
  <ele>377.66</ele>
  <time>2026-09-01T20:03:45Z</time>
  <course>1.12</course>
  <speed>3.19</speed>
  <fix>3d</fix>
</trkpt>
<trkpt lat="-27.2722915" lon="151.2900646">
  <ele>376.22</ele>
  <time>2026-09-01T20:03:45Z</time>
  <course>3.18</course>
  <speed>1.1363538181394033</speed>
  <fix>3d</fix>
</trkpt>
<trkpt lat="-27.2722939" lon="151.2900649">
  <ele>376.95</ele>
  <time>2026-09-01T20:03:45Z</time>
  <course>0.53</course>
  <speed>2.1</speed>
  <fix>3d</fix>
</trkpt>
<trkpt lat="-27.2722907" lon="151.2900645">
  <ele>375.9</ele>
  <time>2026-09-01T20:03:45Z</time>
  <course>4.77</course>
  <speed>0.7376313442364011</speed>
  <fix>3d</fix>
</trkpt>
<trkpt lat="-27.2722939" lon="151.2900649">
  <ele>376.95</ele>
  <time>2026-09-01T20:03:45Z</time>
  <course>0.53</course>
  <speed>2.1</speed>
  <fix>3d</fix>
</trkpt>
<trkpt lat="-27.2722902" lon="151.2900644">
  <ele>375.6</ele>
  <time>2026-09-01T20:03:45Z</time>
  <course>6.95</course>
  <speed>0.44045431091090476</speed>
  <fix>3d</fix>
</trkpt>
<trkpt lat="-27.272291" lon="151.2900648">
  <ele>376.27</ele>
  <time>2026-09-01T20:03:45Z</time>
  <course>356.2</course>
  <speed>1.14</speed>
  <fix>3d</fix>
</trkpt>
<trkpt lat="-27.27229" lon="151.2900641">
  <ele>375.31</ele>
  <time>2026-09-01T20:03:45Z</time>
  <course>9.63</course>
  <speed>0.3301514803843835</speed>
  <fix>3d</fix>
</trkpt>
<trkpt lat="-27.272291" lon="151.2900648">
  <ele>376.27</ele>
  <time>2026-09-01T20:03:45Z</time>
  <course>356.2</course>
  <speed>1.14</speed>
  <fix>3d</fix>
</trkpt>
<trkpt lat="-27.27229" lon="151.2900638">
  <ele>375.05</ele>
  <time>2026-09-01T20:03:45Z</time>
  <course>12.35</course>
  <speed>0.42638011210655685</speed>
  <fix>3d</fix>
</trkpt>
<trkpt lat="-27.2722897" lon="151.2900646">
  <ele>375.66</ele>
  <time>2026-09-01T20:03:45Z</time>
  <course>329.17</course>
  <speed>0.39</speed>
  <fix>3d</fix>
</trkpt>
<trkpt lat="-27.2722904" lon="151.2900635">
  <ele>374.8</ele>
  <time>2026-09-01T20:03:45Z</time>
  <course>14.76</course>
  <speed>0.5953990258641678</speed>
  <fix>3d</fix>
</trkpt>
<trkpt lat="-27.2722897" lon="151.2900646">
  <ele>375.66</ele>
  <time>2026-09-01T20:03:45Z</time>
  <course>329.17</course>
  <speed>0.39</speed>
  <fix>3d</fix>
</trkpt>
<trkpt lat="-27.2722909" lon="151.2900633">
  <ele>374.57</ele>
  <time>2026-09-01T20:03:45Z</time>
  <course>16.69</course>
  <speed>0.7569015788066504</speed>
  <fix>3d</fix>
</trkpt>
<trkpt lat="-27.2722896" lon="151.2900642">
  <ele>375.11</ele>
  <time>2026-09-01T20:03:45Z</time>
  <course>221.81</course>
  <speed>0.38</speed>
  <fix>3d</fix>
</trkpt>
<trkpt lat="-27.2722915" lon="151.2900632">
  <ele>374.35</ele>
  <time>2026-09-01T20:03:45Z</time>
  <course>18.13</course>
  <speed>0.9135097153287424</speed>
  <fix>3d</fix>
</trkpt>
<trkpt lat="-27.2722896" lon="151.2900642">
  <ele>375.11</ele>
  <time>2026-09-01T20:03:45Z</time>
  <course>221.81</course>
  <speed>0.38</speed>
  <fix>3d</fix>
</trkpt>
<trkpt lat="-27.2722924" lon="151.2900633">
  <ele>374.15</ele>
  <time>2026-09-01T20:03:45Z</time>
  <course>19.15</course>
  <speed>1.0616967551989598</speed>
  <fix>3d</fix>
</trkpt>
<trkpt lat="-27.2722904" lon="151.2900637">
  <ele>374.64</ele>
  <time>2026-09-01T20:03:45Z</time>
  <course>190.79</course>
  <speed>0.76</speed>
  <fix>3d</fix>
</trkpt>
<trkpt lat="-27.2722934" lon="151.2900635">
  <ele>373.95</ele>
  <time>2026-09-01T20:03:45Z</time>
  <course>19.89</course>
  <speed>1.190504094911059</speed>
  <fix>3d</fix>
</trkpt>
<trkpt lat="-27.2722904" lon="151.2900637">
  <ele>374.64</ele>
  <time>2026-09-01T20:03:45Z</time>
  <course>190.79</course>
  <speed>0.76</speed>
  <fix>3d</fix>
</trkpt>
<trkpt lat="-27.2722944" lon="151.2900639">
  <ele>373.76</ele>
  <time>2026-09-01T20:03:45Z</time>
  <course>20.59</course>
  <speed>1.309427355755179</speed>
  <fix>3d</fix>
</trkpt>
<trkpt lat="-27.2722922" lon="151.2900637">
  <ele>374.22</ele>
  <time>2026-09-01T20:03:45Z</time>
  <course>174.82</course>
  <speed>1.09</speed>
  <fix>3d</fix>
</trkpt>
<trkpt lat="-27.2722956" lon="151.2900644">
  <ele>373.58</ele>
  <time>2026-09-01T20:03:45Z</time>
  <course>21.52</course>
  <speed>1.420774436706967</speed>
  <fix>3d</fix>
</trkpt>
<trkpt lat="-27.2722922" lon="151.2900637">
  <ele>374.22</ele>
  <time>2026-09-01T20:03:45Z</time>
  <course>174.82</course>
  <speed>1.09</speed>
  <fix>3d</fix>
</trkpt>
<trkpt lat="-27.2722967" lon="151.290065">
  <ele>373.4</ele>
  <time>2026-09-01T20:03:45Z</time>
  <course>22.9</course>
  <speed>1.520690632574555</speed>
  <fix>3d</fix>
</trkpt>
<trkpt lat="-27.2722943" lon="151.2900641">
  <ele>373.84</ele>
  <time>2026-09-01T20:03:45Z</time>
  <course>162.5</course>
  <speed>1.35</speed>
  <fix>3d</fix>
</trkpt>
<trkpt lat="-27.272298" lon="151.2900658">
  <ele>373.23</ele>
  <time>2026-09-01T20:03:45Z</time>
  <course>24.95</course>
  <speed>1.5966527487215245</speed>
  <fix>3d</fix>
</trkpt>
<trkpt lat="-27.2722943" lon="151.2900641">
  <ele>373.84</ele>
  <time>2026-09-01T20:03:45Z</time>
  <course>162.5</course>
  <speed>1.35</speed>
  <fix>3d</fix>
</trkpt>
<trkpt lat="-27.2722992" lon="151.2900667">
  <ele>373.06</ele>
  <time>2026-09-01T20:03:45Z</time>
  <course>27.83</course>
  <speed>1.6668833192518306</speed>
  <fix>3d</fix>
</trkpt>
<trkpt lat="-27.2722967" lon="151.2900652">
  <ele>373.49</ele>
  <time>2026-09-01T20:03:45Z</time>
  <course>153.21</course>
  <speed>1.56</speed>
  <fix>3d</fix>
</trkpt>
<trkpt lat="-27.2723004" lon="151.2900677">
  <ele>372.89</ele>
  <time>2026-09-01T20:03:45Z</time>
  <course>31.56</course>
  <speed>1.7367786272291585</speed>
  <fix>3d</fix>
</trkpt>
<trkpt lat="-27.2722967" lon="151.2900652">
  <ele>373.49</ele>
  <time>2026-09-01T20:03:45Z</time>
  <course>153.21</course>
  <speed>1.56</speed>
  <fix>3d</fix>
</trkpt>
<trkpt lat="-27.2723017" lon="151.2900687">
  <ele>372.72</ele>
  <time>2026-09-01T20:03:45Z</time>
  <course>36.23</course>
  <speed>1.7902513789968157</speed>
  <fix>3d</fix>
</trkpt>
<trkpt lat="-27.2722993" lon="151.2900669">
  <ele>373.15</ele>
  <time>2026-09-01T20:03:45Z</time>
  <course>147.42</course>
  <speed>1.71</speed>
  <fix>3d</fix>
</trkpt>
<trkpt lat="-27.2723031" lon="151.2900698">
  <ele>372.55</ele>
  <time>2026-09-01T20:03:45Z</time>
  <course>41.76</course>
  <speed>1.8623103930333418</speed>
  <fix>3d</fix>
</trkpt>
<trkpt lat="-27.2722993" lon="151.2900669">
  <ele>373.15</ele>
  <time>2026-09-01T20:03:45Z</time>
  <course>147.42</course>
  <speed>1.71</speed>
  <fix>3d</fix>
</trkpt>
<trkpt lat="-27.2723045" lon="151.2900709">
  <ele>372.37</ele>
  <time>2026-09-01T20:03:45Z</time>
  <course>48.05</course>
  <speed>1.9530488985173924</speed>
  <fix>3d</fix>
</trkpt>
<trkpt lat="-27.2723019" lon="151.2900689">
  <ele>372.82</ele>
  <time>2026-09-01T20:03:45Z</time>
  <course>145.14</course>
  <speed>1.84</speed>
  <fix>3d</fix>
</trkpt>
<trkpt lat="-27.272306" lon="151.2900721">
  <ele>372.19</ele>
  <time>2026-09-01T20:03:45Z</time>
  <course>54.98</course>
  <speed>2.057984450864486</speed>
  <fix>3d</fix>
</trkpt>
<trkpt lat="-27.2723019" lon="151.2900689">
  <ele>372.82</ele>
  <time>2026-09-01T20:03:45Z</time>
  <course>145.14</course>
  <speed>1.84</speed>
  <fix>3d</fix>
</trkpt>
<trkpt lat="-27.2723076" lon="151.2900732">
  <ele>372.01</ele>
  <time>2026-09-01T20:03:45Z</time>
  <course>62.22</course>
  <speed>2.1934675744127152</speed>
  <fix>3d</fix>
</trkpt>
<trkpt lat="-27.2723048" lon="151.2900711">
  <ele>372.47</ele>
  <time>2026-09-01T20:03:45Z</time>
  <course>145.99</course>
  <speed>2.0</speed>
  <fix>3d</fix>
</trkpt>
<trkpt lat="-27.2723094" lon="151.2900744">
  <ele>371.83</ele>
  <time>2026-09-01T20:03:45Z</time>
  <course>69.64</course>
  <speed>2.361800160894228</speed>
  <fix>3d</fix>
</trkpt>
<trkpt lat="-27.2723048" lon="151.2900711">
  <ele>372.47</ele>
  <time>2026-09-01T20:03:45Z</time>
  <course>145.99</course>
  <speed>2.0</speed>
  <fix>3d</fix>
</trkpt>
<trkpt lat="-27.2723114" lon="151.2900754">
  <ele>371.63</ele>
  <time>2026-09-01T20:03:45Z</time>
  <course>77.04</course>
  <speed>2.5526456863419176</speed>
  <fix>3d</fix>
</trkpt>
<trkpt lat="-27.272308" lon="151.2900734">
  <ele>372.12</ele>
  <time>2026-09-01T20:03:45Z</time>
  <course>149.93</course>
  <speed>2.24</speed>
  <fix>3d</fix>
</trkpt>
<trkpt lat="-27.2723137" lon="151.2900764">
  <ele>371.43</ele>
  <time>2026-09-01T20:03:45Z</time>
  <course>84.3</course>
  <speed>2.75118156434649</speed>
  <fix>3d</fix>
</trkpt>
<trkpt lat="-27.272308" lon="151.2900734">
  <ele>372.12</ele>
  <time>2026-09-01T20:03:45Z</time>
  <course>149.93</course>
  <speed>2.24</speed>
  <fix>3d</fix>
</trkpt>
<trkpt lat="-27.2723161" lon="151.2900772">
  <ele>371.22</ele>
  <time>2026-09-01T20:03:45Z</time>
  <course>91.39</course>
  <speed>2.9621951319924893</speed>
  <fix>3d</fix>
</trkpt>
<trkpt lat="-27.2723119" lon="151.2900756">
  <ele>371.74</ele>
  <time>2026-09-01T20:03:45Z</time>
  <course>157.31</course>
  <speed>2.58</speed>
  <fix>3d</fix>
</trkpt>
<trkpt lat="-27.2723189" lon="151.2900777">
  <ele>370.99</ele>
  <time>2026-09-01T20:03:45Z</time>
  <course>98.39</course>
  <speed>3.164127051810657</speed>
  <fix>3d</fix>
</trkpt>
<trkpt lat="-27.2723119" lon="151.2900756">
  <ele>371.74</ele>
  <time>2026-09-01T20:03:45Z</time>
  <course>157.31</course>
  <speed>2.58</speed>
  <fix>3d</fix>
</trkpt>
<trkpt lat="-27.2723218" lon="151.290078">
  <ele>370.74</ele>
  <time>2026-09-01T20:03:45Z</time>
  <course>105.4</course>
  <speed>3.3833267651824586</speed>
  <fix>3d</fix>
</trkpt>
<trkpt lat="-27.2723167" lon="151.2900773">
  <ele>371.32</ele>
  <time>2026-09-01T20:03:45Z</time>
  <course>167.43</course>
  <speed>2.98</speed>
  <fix>3d</fix>
</trkpt>
<trkpt lat="-27.2723249" lon="151.290078">
  <ele>370.48</ele>
  <time>2026-09-01T20:03:45Z</time>
  <course>112.47</course>
  <speed>3.6103462437832747</speed>
  <fix>3d</fix>
</trkpt>
<trkpt lat="-27.2723167" lon="151.2900773">
  <ele>371.32</ele>
  <time>2026-09-01T20:03:45Z</time>
  <course>167.43</course>
  <speed>2.98</speed>
  <fix>3d</fix>
</trkpt>
<trkpt lat="-27.2723284" lon="151.2900779">
  <ele>370.22</ele>
  <time>2026-09-01T20:03:45Z</time>
  <course>119.57</course>
  <speed>4.003610870202048</speed>
  <fix>3d</fix>
</trkpt>
<trkpt lat="-27.2723223" lon="151.2900781">
  <ele>370.86</ele>
  <time>2026-09-01T20:03:45Z</time>
  <course>176.86</course>
  <speed>3.41</speed>
  <fix>3d</fix>
</trkpt>
<trkpt lat="-27.2723321" lon="151.2900777">
  <ele>369.96</ele>
  <time>2026-09-01T20:03:45Z</time>
  <course>126.8</course>
  <speed>4.378961063996801</speed>
  <fix>3d</fix>
</trkpt>
<trkpt lat="-27.2723223" lon="151.2900781">
  <ele>370.86</ele>
  <time>2026-09-01T20:03:45Z</time>
  <course>176.86</course>
  <speed>3.41</speed>
  <fix>3d</fix>
</trkpt>
<trkpt lat="-27.2723362" lon="151.2900774">
  <ele>369.7</ele>
  <time>2026-09-01T20:03:45Z</time>
  <course>134.05</course>
  <speed>4.7544189971015385</speed>
  <fix>3d</fix>
</trkpt>
<trkpt lat="-27.272329" lon="151.2900781">
  <ele>370.34</ele>
  <time>2026-09-01T20:03:45Z</time>
  <course>182.21</course>
  <speed>4.02</speed>
  <fix>3d</fix>
</trkpt>
<trkpt lat="-27.2723406" lon="151.290077">
  <ele>369.45</ele>
  <time>2026-09-01T20:03:45Z</time>
  <course>141.15</course>
  <speed>5.139737347374863</speed>
  <fix>3d</fix>
</trkpt>
<trkpt lat="-27.272329" lon="151.2900781">
  <ele>370.34</ele>
  <time>2026-09-01T20:03:45Z</time>
  <course>182.21</course>
  <speed>4.02</speed>
  <fix>3d</fix>
</trkpt>
<trkpt lat="-27.2723454" lon="151.2900766">
  <ele>369.19</ele>
  <time>2026-09-01T20:03:45Z</time>
  <course>148.04</course>
  <speed>5.554394656485979</speed>
  <fix>3d</fix>
</trkpt>
<trkpt lat="-27.2723369" lon="151.2900776">
  <ele>369.83</ele>
  <time>2026-09-01T20:03:45Z</time>
  <course>184.32</course>
  <speed>4.79</speed>
  <fix>3d</fix>
</trkpt>
<trkpt lat="-27.2723505" lon="151.2900761">
  <ele>368.94</ele>
  <time>2026-09-01T20:03:45Z</time>
  <course>154.67</course>
  <speed>5.989131823561743</speed>
  <fix>3d</fix>
</trkpt>
<trkpt lat="-27.2723369" lon="151.2900776">
  <ele>369.83</ele>
  <time>2026-09-01T20:03:45Z</time>
  <course>184.32</course>
  <speed>4.79</speed>
  <fix>3d</fix>
</trkpt>
<trkpt lat="-27.2723561" lon="151.2900755">
  <ele>368.69</ele>
  <time>2026-09-01T20:03:45Z</time>
  <course>160.93</course>
  <speed>6.442872030391416</speed>
  <fix>3d</fix>
</trkpt>
<trkpt lat="-27.2723462" lon="151.2900768">
  <ele>369.33</ele>
  <time>2026-09-01T20:03:45Z</time>
  <course>185.29</course>
  <speed>5.59</speed>
  <fix>3d</fix>
</trkpt>
<trkpt lat="-27.272362" lon="151.2900748">
  <ele>368.44</ele>
  <time>2026-09-01T20:03:45Z</time>
  <course>166.7</course>
  <speed>6.91757182832242</speed>
  <fix>3d</fix>
</trkpt>
<trkpt lat="-27.2723462" lon="151.2900768">
  <ele>369.33</ele>
  <time>2026-09-01T20:03:45Z</time>
  <course>185.29</course>
  <speed>5.59</speed>
  <fix>3d</fix>
</trkpt>
<trkpt lat="-27.2723684" lon="151.2900741">
  <ele>368.2</ele>
  <time>2026-09-01T20:03:45Z</time>
  <course>171.87</course>
  <speed>7.392333866919162</speed>
  <fix>3d</fix>
</trkpt>
<trkpt lat="-27.272357" lon="151.2900756">
  <ele>368.83</ele>
  <time>2026-09-01T20:03:45Z</time>
  <course>185.75</course>
  <speed>6.48</speed>
  <fix>3d</fix>
</trkpt>
<trkpt lat="-27.2723752" lon="151.2900733">
  <ele>367.96</ele>
  <time>2026-09-01T20:03:45Z</time>
  <course>176.33</course>
  <speed>7.877087025036603</speed>
  <fix>3d</fix>
</trkpt>
<trkpt lat="-27.272357" lon="151.2900756">
  <ele>368.83</ele>
  <time>2026-09-01T20:03:45Z</time>
  <course>185.75</course>
  <speed>6.48</speed>
  <fix>3d</fix>
</trkpt>
<trkpt lat="-27.2723824" lon="151.2900724">
  <ele>367.73</ele>
  <time>2026-09-01T20:03:45Z</time>
  <course>179.98</course>
  <speed>8.361877779542105</speed>
  <fix>3d</fix>
</trkpt>
<trkpt lat="-27.2723694" lon="151.2900742">
  <ele>368.35</ele>
  <time>2026-09-01T20:03:45Z</time>
  <course>186.09</course>
  <speed>7.43</speed>
  <fix>3d</fix>
</trkpt>
<trkpt lat="-27.2723901" lon="151.2900714">
  <ele>367.5</ele>
  <time>2026-09-01T20:03:45Z</time>
  <course>182.73</course>
  <speed>8.834523190302916</speed>
  <fix>3d</fix>
</trkpt>
<trkpt lat="-27.2723694" lon="151.2900742">
  <ele>368.35</ele>
  <time>2026-09-01T20:03:45Z</time>
  <course>186.09</course>
  <speed>7.43</speed>
  <fix>3d</fix>
</trkpt>
<trkpt lat="-27.2723982" lon="151.2900704">
  <ele>367.27</ele>
  <time>2026-09-01T20:03:45Z</time>
  <course>184.55</course>
  <speed>9.30606791292649</speed>
  <fix>3d</fix>
</trkpt>
<trkpt lat="-27.2723836" lon="151.2900724">
  <ele>367.89</ele>
  <time>2026-09-01T20:03:45Z</time>
  <course>186.31</course>
  <speed>8.4</speed>
  <fix>3d</fix>
</trkpt>
<trkpt lat="-27.2724067" lon="151.2900694">
  <ele>367.06</ele>
  <time>2026-09-01T20:03:45Z</time>
  <course>185.47</course>
  <speed>9.735707473008832</speed>
  <fix>3d</fix>
</trkpt>
<trkpt lat="-27.2723836" lon="151.2900724">
  <ele>367.89</ele>
  <time>2026-09-01T20:03:45Z</time>
  <course>186.31</course>
  <speed>8.4</speed>
  <fix>3d</fix>
</trkpt>
<trkpt lat="-27.2724156" lon="151.2900684">
  <ele>366.85</ele>
  <time>2026-09-01T20:03:45Z</time>
  <course>185.69</course>
  <speed>10.132487355037755</speed>
  <fix>3d</fix>
</trkpt>
<trkpt lat="-27.2723994" lon="151.2900704">
  <ele>367.44</ele>
  <time>2026-09-01T20:03:45Z</time>
  <course>186.26</course>
  <speed>9.33</speed>
  <fix>3d</fix>
</trkpt>
<trkpt lat="-27.2724248" lon="151.2900674">
  <ele>366.66</ele>
  <time>2026-09-01T20:03:45Z</time>
  <course>185.47</course>
  <speed>10.498695157018323</speed>
  <fix>3d</fix>
</trkpt>
<trkpt lat="-27.2723994" lon="151.2900704">
  <ele>367.44</ele>
  <time>2026-09-01T20:03:45Z</time>
  <course>186.26</course>
  <speed>9.33</speed>
  <fix>3d</fix>
</trkpt>
<trkpt lat="-27.2724343" lon="151.2900664">
  <ele>366.47</ele>
  <time>2026-09-01T20:03:45Z</time>
  <course>185.02</course>
  <speed>10.832622027930265</speed>
  <fix>3d</fix>
</trkpt>
<trkpt lat="-27.2724169" lon="151.2900683">
  <ele>367.01</ele>
  <time>2026-09-01T20:03:45Z</time>
  <course>185.83</course>
  <speed>10.18</speed>
  <fix>3d</fix>
</trkpt>
<trkpt lat="-27.2724441" lon="151.2900655">
  <ele>366.3</ele>
  <time>2026-09-01T20:03:45Z</time>
  <course>184.51</course>
  <speed>11.126459454831084</speed>
  <fix>3d</fix>
</trkpt>
<trkpt lat="-27.2724169" lon="151.2900683">
  <ele>367.01</ele>
  <time>2026-09-01T20:03:45Z</time>
  <course>185.83</course>
  <speed>10.18</speed>
  <fix>3d</fix>
</trkpt>
<trkpt lat="-27.2724541" lon="151.2900646">
  <ele>366.14</ele>
  <time>2026-09-01T20:03:45Z</time>
  <course>184.0</course>
  <speed>11.379582593399462</speed>
  <fix>3d</fix>
</trkpt>
<trkpt lat="-27.2724358" lon="151.2900663">
  <ele>366.63</ele>
  <time>2026-09-01T20:03:45Z</time>
  <course>185.09</course>
  <speed>10.88</speed>
  <fix>3d</fix>
</trkpt>
<trkpt lat="-27.2724644" lon="151.2900638">
  <ele>366.0</ele>
  <time>2026-09-01T20:03:45Z</time>
  <course>183.53</course>
  <speed>11.584304036065353</speed>
  <fix>3d</fix>
</trkpt>
<trkpt lat="-27.2724358" lon="151.2900663">
  <ele>366.63</ele>
  <time>2026-09-01T20:03:45Z</time>
  <course>185.09</course>
  <speed>10.88</speed>
  <fix>3d</fix>
</trkpt>
<trkpt lat="-27.2724749" lon="151.2900631">
  <ele>365.87</ele>
  <time>2026-09-01T20:03:45Z</time>
  <course>183.13</course>
  <speed>11.76908662556275</speed>
  <fix>3d</fix>
</trkpt>
<trkpt lat="-27.2724558" lon="151.2900645">
  <ele>366.3</ele>
  <time>2026-09-01T20:03:45Z</time>
  <course>184.22</course>
  <speed>11.44</speed>
  <fix>3d</fix>
</trkpt>
<trkpt lat="-27.2724855" lon="151.2900624">
  <ele>365.76</ele>
  <time>2026-09-01T20:03:45Z</time>
  <course>182.77</course>
  <speed>11.905129146716554</speed>
  <fix>3d</fix>
</trkpt>
<trkpt lat="-27.2724558" lon="151.2900645">
  <ele>366.3</ele>
  <time>2026-09-01T20:03:45Z</time>
  <course>184.22</course>
  <speed>11.44</speed>
  <fix>3d</fix>
</trkpt>
<trkpt lat="-27.2724962" lon="151.2900618">
  <ele>365.65</ele>
  <time>2026-09-01T20:03:45Z</time>
  <course>182.47</course>
  <speed>12.022133754038839</speed>
  <fix>3d</fix>
</trkpt>
<trkpt lat="-27.2724767" lon="151.2900629">
  <ele>366.03</ele>
  <time>2026-09-01T20:03:45Z</time>
  <course>183.37</course>
  <speed>11.84</speed>
  <fix>3d</fix>
</trkpt>
<trkpt lat="-27.2725071" lon="151.2900613">
  <ele>365.54</ele>
  <time>2026-09-01T20:03:45Z</time>
  <course>182.21</course>
  <speed>12.109124658702626</speed>
  <fix>3d</fix>
</trkpt>
<trkpt lat="-27.2724767" lon="151.2900629">
  <ele>366.03</ele>
  <time>2026-09-01T20:03:45Z</time>
  <course>183.37</course>
  <speed>11.84</speed>
  <fix>3d</fix>
</trkpt>
<trkpt lat="-27.272518" lon="151.2900609">
  <ele>365.44</ele>
  <time>2026-09-01T20:03:45Z</time>
  <course>181.98</course>
  <speed>12.177245172862374</speed>
  <fix>3d</fix>
</trkpt>
<trkpt lat="-27.2724982" lon="151.2900617">
  <ele>365.8</ele>
  <time>2026-09-01T20:03:45Z</time>
  <course>182.63</course>
  <speed>12.1</speed>
  <fix>3d</fix>
</trkpt>
<trkpt lat="-27.272529" lon="151.2900604">
  <ele>365.34</ele>
  <time>2026-09-01T20:03:45Z</time>
  <course>181.77</course>
  <speed>12.225600189765737</speed>
  <fix>3d</fix>
</trkpt>
<trkpt lat="-27.2724982" lon="151.2900617">
  <ele>365.8</ele>
  <time>2026-09-01T20:03:45Z</time>
  <course>182.63</course>
  <speed>12.1</speed>
  <fix>3d</fix>
</trkpt>
<trkpt lat="-27.27254" lon="151.2900601">
  <ele>365.24</ele>
  <time>2026-09-01T20:03:45Z</time>
  <course>181.58</course>
  <speed>12.25417887905999</speed>
  <fix>3d</fix>
</trkpt>
<trkpt lat="-27.2725201" lon="151.2900607">
  <ele>365.6</ele>
  <time>2026-09-01T20:03:45Z</time>
  <course>182.04</course>
  <speed>12.26</speed>
  <fix>3d</fix>
</trkpt>
<trkpt lat="-27.2725511" lon="151.2900598">
  <ele>365.13</ele>
  <time>2026-09-01T20:03:45Z</time>
  <course>181.41</course>
  <speed>12.2831917676148</speed>
  <fix>3d</fix>
</trkpt>
<trkpt lat="-27.2725201" lon="151.2900607">
  <ele>365.6</ele>
  <time>2026-09-01T20:03:45Z</time>
  <course>182.04</course>
  <speed>12.26</speed>
  <fix>3d</fix>
</trkpt>
<trkpt lat="-27.2725622" lon="151.2900595">
  <ele>365.01</ele>
  <time>2026-09-01T20:03:45Z</time>
  <course>181.26</course>
  <speed>12.302540388066198</speed>
  <fix>3d</fix>
</trkpt>
<trkpt lat="-27.2725421" lon="151.2900599">
  <ele>365.39</ele>
  <time>2026-09-01T20:03:45Z</time>
  <course>181.57</course>
  <speed>12.35</speed>
  <fix>3d</fix>
</trkpt>
<trkpt lat="-27.2725733" lon="151.2900592">
  <ele>364.89</ele>
  <time>2026-09-01T20:03:45Z</time>
  <course>181.11</course>
  <speed>12.311791096343375</speed>
  <fix>3d</fix>
</trkpt>
<trkpt lat="-27.2725421" lon="151.2900599">
  <ele>365.39</ele>
  <time>2026-09-01T20:03:45Z</time>
  <course>181.57</course>
  <speed>12.35</speed>
  <fix>3d</fix>
</trkpt>
<trkpt lat="-27.2725844" lon="151.290059">
  <ele>364.75</ele>
  <time>2026-09-01T20:03:45Z</time>
  <course>180.97</course>
  <speed>12.321314864899769</speed>
  <fix>3d</fix>
</trkpt>
<trkpt lat="-27.2725644" lon="151.2900593">
  <ele>365.16</ele>
  <time>2026-09-01T20:03:45Z</time>
  <course>181.19</course>
  <speed>12.38</speed>
  <fix>3d</fix>
</trkpt>
<trkpt lat="-27.2725955" lon="151.2900588">
  <ele>364.61</ele>
  <time>2026-09-01T20:03:45Z</time>
  <course>180.83</course>
  <speed>12.320913115512178</speed>
  <fix>3d</fix>
</trkpt>
<trkpt lat="-27.2725644" lon="151.2900593">
  <ele>365.16</ele>
  <time>2026-09-01T20:03:45Z</time>
  <course>181.19</course>
  <speed>12.38</speed>
  <fix>3d</fix>
</trkpt>
<trkpt lat="-27.2726066" lon="151.2900587">
  <ele>364.45</ele>
  <time>2026-09-01T20:03:45Z</time>
  <course>180.71</course>
  <speed>12.330685301312332</speed>
  <fix>3d</fix>
</trkpt>
<trkpt lat="-27.2725867" lon="151.2900589">
  <ele>364.9</ele>
  <time>2026-09-01T20:03:45Z</time>
  <course>180.88</course>
  <speed>12.4</speed>
  <fix>3d</fix>
</trkpt>
<trkpt lat="-27.2726177" lon="151.2900585">
  <ele>364.29</ele>
  <time>2026-09-01T20:03:45Z</time>
  <course>180.59</course>
  <speed>12.340405179733768</speed>
  <fix>3d</fix>
</trkpt>
<trkpt lat="-27.2725867" lon="151.2900589">
  <ele>364.9</ele>
  <time>2026-09-01T20:03:45Z</time>
  <course>180.88</course>
  <speed>12.4</speed>
  <fix>3d</fix>
</trkpt>
<trkpt lat="-27.2726289" lon="151.2900584">
  <ele>364.11</ele>
  <time>2026-09-01T20:03:45Z</time>
  <course>180.48</course>
  <speed>12.350259106593676</speed>
  <fix>3d</fix>
</trkpt>
<trkpt lat="-27.2726089" lon="151.2900585">
  <ele>364.6</ele>
  <time>2026-09-01T20:03:45Z</time>
  <course>180.6</course>
  <speed>12.41</speed>
  <fix>3d</fix>
</trkpt>
<trkpt lat="-27.27264" lon="151.2900584">
  <ele>363.92</ele>
  <time>2026-09-01T20:03:45Z</time>
  <course>180.38</course>
  <speed>12.36010113227234</speed>
  <fix>3d</fix>
</trkpt>
<trkpt lat="-27.2726089" lon="151.2900585">
  <ele>364.6</ele>
  <time>2026-09-01T20:03:45Z</time>
  <course>180.6</course>
  <speed>12.41</speed>
  <fix>3d</fix>
</trkpt>
<trkpt lat="-27.2726512" lon="151.2900583">
  <ele>363.73</ele>
  <time>2026-09-01T20:03:45Z</time>
  <course>180.29</course>
  <speed>12.380036348896558</speed>
  <fix>3d</fix>
</trkpt>
<trkpt lat="-27.2726313" lon="151.2900583">
  <ele>364.26</ele>
  <time>2026-09-01T20:03:45Z</time>
  <course>180.36</course>
  <speed>12.42</speed>
  <fix>3d</fix>
</trkpt>
<trkpt lat="-27.2726625" lon="151.2900583">
  <ele>363.53</ele>
  <time>2026-09-01T20:03:45Z</time>
  <course>180.21</course>
  <speed>12.400004032257408</speed>
  <fix>3d</fix>
</trkpt>
<trkpt lat="-27.2726313" lon="151.2900583">
  <ele>364.26</ele>
  <time>2026-09-01T20:03:45Z</time>
  <course>180.36</course>
  <speed>12.42</speed>
  <fix>3d</fix>
</trkpt>
<trkpt lat="-27.2726737" lon="151.2900583">
  <ele>363.33</ele>
  <time>2026-09-01T20:03:45Z</time>
  <course>180.15</course>
  <speed>12.42</speed>
  <fix>3d</fix>
</trkpt>
<trkpt lat="-27.2726537" lon="151.2900582">
  <ele>363.88</ele>
  <time>2026-09-01T20:03:45Z</time>
  <course>180.14</course>
  <speed>12.44</speed>
  <fix>3d</fix>
</trkpt>
<trkpt lat="-27.272685" lon="151.2900583">
  <ele>363.12</ele>
  <time>2026-09-01T20:03:45Z</time>
  <course>180.08</course>
  <speed>12.450016064246665</speed>
  <fix>3d</fix>
</trkpt>
<trkpt lat="-27.2726537" lon="151.2900582">
  <ele>363.88</ele>
  <time>2026-09-01T20:03:45Z</time>
  <course>180.14</course>
  <speed>12.44</speed>
  <fix>3d</fix>
</trkpt>
<trkpt lat="-27.2726962" lon="151.2900583">
  <ele>362.91</ele>
  <time>2026-09-01T20:03:45Z</time>
  <course>180.02</course>
  <speed>12.470064153804504</speed>
  <fix>3d</fix>
</trkpt>
<trkpt lat="-27.2726761" lon="151.2900582">
  <ele>363.48</ele>
  <time>2026-09-01T20:03:45Z</time>
  <course>179.93</course>
  <speed>12.47</speed>
  <fix>3d</fix>
</trkpt>
<trkpt lat="-27.2727075" lon="151.2900584">
  <ele>362.71</ele>
  <time>2026-09-01T20:03:45Z</time>
  <course>179.93</course>
  <speed>12.50014399917057</speed>
  <fix>3d</fix>
</trkpt>
<trkpt lat="-27.2726761" lon="151.2900582">
  <ele>363.48</ele>
  <time>2026-09-01T20:03:45Z</time>
  <course>179.93</course>
  <speed>12.47</speed>
  <fix>3d</fix>
</trkpt>
<trkpt lat="-27.2727188" lon="151.2900584">
  <ele>362.51</ele>
  <time>2026-09-01T20:03:45Z</time>
  <course>179.85</course>
  <speed>12.520255588445469</speed>
  <fix>3d</fix>
</trkpt>
<trkpt lat="-27.2726985" lon="151.2900582">
  <ele>363.07</ele>
  <time>2026-09-01T20:03:45Z</time>
  <course>179.74</course>
  <speed>12.52</speed>
  <fix>3d</fix>
</trkpt>
<trkpt lat="-27.2727301" lon="151.2900585">
  <ele>362.32</ele>
  <time>2026-09-01T20:03:45Z</time>
  <course>179.77</course>
  <speed>12.540322962348299</speed>
  <fix>3d</fix>
</trkpt>
<trkpt lat="-27.2726985" lon="151.2900582">
  <ele>363.07</ele>
  <time>2026-09-01T20:03:45Z</time>
  <course>179.74</course>
  <speed>12.52</speed>
  <fix>3d</fix>
</trkpt>
<trkpt lat="-27.2727414" lon="151.2900585">
  <ele>362.14</ele>
  <time>2026-09-01T20:03:45Z</time>
  <course>179.69</course>
  <speed>12.550482062454812</speed>
  <fix>3d</fix>
</trkpt>
<trkpt lat="-27.272721" lon="151.2900583">
  <ele>362.67</ele>
  <time>2026-09-01T20:03:45Z</time>
  <course>179.57</course>
  <speed>12.56</speed>
  <fix>3d</fix>
</trkpt>
<trkpt lat="-27.2727527" lon="151.2900586">
  <ele>361.96</ele>
  <time>2026-09-01T20:03:45Z</time>
  <course>179.61</course>
  <speed>12.55057369206683</speed>
  <fix>3d</fix>
</trkpt>
<trkpt lat="-27.272721" lon="151.2900583">
  <ele>362.67</ele>
  <time>2026-09-01T20:03:45Z</time>
  <course>179.57</course>
  <speed>12.56</speed>
  <fix>3d</fix>
</trkpt>
<trkpt lat="-27.272764" lon="151.2900588">
  <ele>361.79</ele>
  <time>2026-09-01T20:03:45Z</time>
  <course>179.53</course>
  <speed>12.550780852201985</speed>
  <fix>3d</fix>
</trkpt>
<trkpt lat="-27.2727436" lon="151.2900585">
  <ele>362.3</ele>
  <time>2026-09-01T20:03:45Z</time>
  <course>179.41</course>
  <speed>12.58</speed>
  <fix>3d</fix>
</trkpt>
<trkpt lat="-27.2727753" lon="151.2900589">
  <ele>361.63</ele>
  <time>2026-09-01T20:03:45Z</time>
  <course>179.46</course>
  <speed>12.54089709709796</speed>
  <fix>3d</fix>
</trkpt>
<trkpt lat="-27.2727436" lon="151.2900585">
  <ele>362.3</ele>
  <time>2026-09-01T20:03:45Z</time>
  <course>179.41</course>
  <speed>12.58</speed>
  <fix>3d</fix>
</trkpt>
<trkpt lat="-27.2727866" lon="151.2900591">
  <ele>361.47</ele>
  <time>2026-09-01T20:03:45Z</time>
  <course>179.4</course>
  <speed>12.53102150664502</speed>
  <fix>3d</fix>
</trkpt>
<trkpt lat="-27.2727662" lon="151.2900588">
  <ele>361.95</ele>
  <time>2026-09-01T20:03:45Z</time>
  <course>179.27</course>
  <speed>12.58</speed>
  <fix>3d</fix>
</trkpt>
<trkpt lat="-27.2727979" lon="151.2900593">
  <ele>361.32</ele>
  <time>2026-09-01T20:03:45Z</time>
  <course>179.34</course>
  <speed>12.511155022618816</speed>
  <fix>3d</fix>
</trkpt>
<trkpt lat="-27.2727662" lon="151.2900588">
  <ele>361.95</ele>
  <time>2026-09-01T20:03:45Z</time>
  <course>179.27</course>
  <speed>12.58</speed>
  <fix>3d</fix>
</trkpt>
<trkpt lat="-27.2728092" lon="151.2900595">
  <ele>361.18</ele>
  <time>2026-09-01T20:03:46Z</time>
  <course>179.29</course>
  <speed>12.491296970290955</speed>
  <fix>3d</fix>
</trkpt>
<trkpt lat="-27.2727888" lon="151.2900591">
  <ele>361.63</ele>
  <time>2026-09-01T20:03:46Z</time>
  <course>179.14</course>
  <speed>12.55</speed>
  <fix>3d</fix>
</trkpt>
<trkpt lat="-27.2728204" lon="151.2900597">
  <ele>361.04</ele>
  <time>2026-09-01T20:03:46Z</time>
  <course>179.24</course>
  <speed>12.461448551432534</speed>
  <fix>3d</fix>
</trkpt>
<trkpt lat="-27.2727888" lon="151.2900591">
  <ele>361.63</ele>
  <time>2026-09-01T20:03:46Z</time>
  <course>179.14</course>
  <speed>12.55</speed>
  <fix>3d</fix>
</trkpt>
<trkpt lat="-27.2728316" lon="151.2900599">
  <ele>360.9</ele>
  <time>2026-09-01T20:03:46Z</time>
  <course>179.19</course>
  <speed>12.43160890633228</speed>
  <fix>3d</fix>
</trkpt>
<trkpt lat="-27.2728113" lon="151.2900596">
  <ele>361.33</ele>
  <time>2026-09-01T20:03:46Z</time>
  <course>179.03</course>
  <speed>12.51</speed>
  <fix>3d</fix>
</trkpt>
<trkpt lat="-27.2728427" lon="151.2900601">
  <ele>360.77</ele>
  <time>2026-09-01T20:03:46Z</time>
  <course>179.15</course>
  <speed>12.401778098321223</speed>
  <fix>3d</fix>
</trkpt>
<trkpt lat="-27.2728113" lon="151.2900596">
  <ele>361.33</ele>
  <time>2026-09-01T20:03:46Z</time>
  <course>179.03</course>
  <speed>12.51</speed>
  <fix>3d</fix>
</trkpt>
<trkpt lat="-27.2728539" lon="151.2900603">
  <ele>360.64</ele>
  <time>2026-09-01T20:03:46Z</time>
  <course>179.12</course>
  <speed>12.371782409984423</speed>
  <fix>3d</fix>
</trkpt>
<trkpt lat="-27.2728337" lon="151.29006">
  <ele>361.06</ele>
  <time>2026-09-01T20:03:46Z</time>
  <course>178.94</course>
  <speed>12.45</speed>
  <fix>3d</fix>
</trkpt>
<trkpt lat="-27.272865" lon="151.2900605">
  <ele>360.52</ele>
  <time>2026-09-01T20:03:46Z</time>
  <course>179.08</course>
  <speed>12.331962536433526</speed>
  <fix>3d</fix>
</trkpt>
<trkpt lat="-27.2728337" lon="151.29006">
  <ele>361.06</ele>
  <time>2026-09-01T20:03:46Z</time>
  <course>178.94</course>
  <speed>12.45</speed>
  <fix>3d</fix>
</trkpt>
<trkpt lat="-27.2728761" lon="151.2900608">
  <ele>360.39</ele>
  <time>2026-09-01T20:03:46Z</time>
  <course>179.06</course>
  <speed>12.301967322343202</speed>
  <fix>3d</fix>
</trkpt>
<trkpt lat="-27.272856" lon="151.2900605">
  <ele>360.8</ele>
  <time>2026-09-01T20:03:46Z</time>
  <course>178.86</course>
  <speed>12.38</speed>
  <fix>3d</fix>
</trkpt>
<trkpt lat="-27.2728872" lon="151.290061">
  <ele>360.27</ele>
  <time>2026-09-01T20:03:46Z</time>
  <course>179.03</course>
  <speed>12.262157232722146</speed>
  <fix>3d</fix>
</trkpt>
<trkpt lat="-27.272856" lon="151.2900605">
  <ele>360.8</ele>
  <time>2026-09-01T20:03:46Z</time>
  <course>178.86</course>
  <speed>12.38</speed>
  <fix>3d</fix>
</trkpt>
<trkpt lat="-27.2728982" lon="151.2900613">
  <ele>360.15</ele>
  <time>2026-09-01T20:03:46Z</time>
  <course>179.01</course>
  <speed>12.23216252344613</speed>
  <fix>3d</fix>
</trkpt>
<trkpt lat="-27.2728783" lon="151.290061">
  <ele>360.54</ele>
  <time>2026-09-01T20:03:46Z</time>
  <course>178.81</course>
  <speed>12.31</speed>
  <fix>3d</fix>
</trkpt>
<trkpt lat="-27.2729092" lon="151.2900615">
  <ele>360.02</ele>
  <time>2026-09-01T20:03:46Z</time>
  <course>178.99</course>
  <speed>12.192169618242685</speed>
  <fix>3d</fix>
</trkpt>
<trkpt lat="-27.2728783" lon="151.290061">
  <ele>360.54</ele>
  <time>2026-09-01T20:03:46Z</time>
  <course>178.81</course>
  <speed>12.31</speed>
  <fix>3d</fix>
</trkpt>
<trkpt lat="-27.2729205" lon="151.2900618">
  <ele>359.9</ele>
  <time>2026-09-01T20:03:46Z</time>
  <course>178.98</course>
  <speed>12.162174969963225</speed>
  <fix>3d</fix>
</trkpt>
<trkpt lat="-27.2729004" lon="151.2900615">
  <ele>360.3</ele>
  <time>2026-09-01T20:03:46Z</time>
  <course>178.76</course>
  <speed>12.24</speed>
  <fix>3d</fix>
</trkpt>
<trkpt lat="-27.2729315" lon="151.2900621">
  <ele>359.78</ele>
  <time>2026-09-01T20:03:46Z</time>
  <course>178.97</course>
  <speed>12.122376004727787</speed>
  <fix>3d</fix>
</trkpt>
<trkpt lat="-27.2729004" lon="151.2900615">
  <ele>360.3</ele>
  <time>2026-09-01T20:03:46Z</time>
  <course>178.76</course>
  <speed>12.24</speed>
  <fix>3d</fix>
</trkpt>
<trkpt lat="-27.2729423" lon="151.2900623">
  <ele>359.66</ele>
  <time>2026-09-01T20:03:46Z</time>
  <course>178.97</course>
  <speed>12.092381899361266</speed>
  <fix>3d</fix>
</trkpt>
<trkpt lat="-27.2729223" lon="151.2900621">
  <ele>360.05</ele>
  <time>2026-09-01T20:03:46Z</time>
  <course>178.73</course>
  <speed>12.17</speed>
  <fix>3d</fix>
</trkpt>
<trkpt lat="-27.2729531" lon="151.2900626">
  <ele>359.53</ele>
  <time>2026-09-01T20:03:46Z</time>
  <course>178.97</course>
  <speed>12.062387823312598</speed>
  <fix>3d</fix>
</trkpt>
<trkpt lat="-27.2729223" lon="151.2900621">
  <ele>360.05</ele>
  <time>2026-09-01T20:03:46Z</time>
  <course>178.73</course>
  <speed>12.17</speed>
  <fix>3d</fix>
</trkpt>
<trkpt lat="-27.272964" lon="151.2900629">
  <ele>359.41</ele>
  <time>2026-09-01T20:03:46Z</time>
  <course>178.97</course>
  <speed>12.032198469107795</speed>
  <fix>3d</fix>
</trkpt>
<trkpt lat="-27.272944" lon="151.2900626">
  <ele>359.8</ele>
  <time>2026-09-01T20:03:46Z</time>
  <course>178.72</course>
  <speed>12.1</speed>
  <fix>3d</fix>
</trkpt>
<trkpt lat="-27.2729748" lon="151.2900631">
  <ele>359.28</ele>
  <time>2026-09-01T20:03:46Z</time>
  <course>178.98</course>
  <speed>12.002203964272562</speed>
  <fix>3d</fix>
</trkpt>
<trkpt lat="-27.272944" lon="151.2900626">
  <ele>359.8</ele>
  <time>2026-09-01T20:03:46Z</time>
  <course>178.72</course>
  <speed>12.1</speed>
  <fix>3d</fix>
</trkpt>
<trkpt lat="-27.2729854" lon="151.2900634">
  <ele>359.15</ele>
  <time>2026-09-01T20:03:46Z</time>
  <course>178.99</course>
  <speed>11.982207643001352</speed>
  <fix>3d</fix>
</trkpt>
<trkpt lat="-27.2729657" lon="151.2900632">
  <ele>359.55</ele>
  <time>2026-09-01T20:03:46Z</time>
  <course>178.72</course>
  <speed>12.03</speed>
  <fix>3d</fix>
</trkpt>
<trkpt lat="-27.2729962" lon="151.2900637">
  <ele>359.02</ele>
  <time>2026-09-01T20:03:46Z</time>
  <course>179.0</course>
  <speed>11.952213184176394</speed>
  <fix>3d</fix>
</trkpt>
<trkpt lat="-27.2729657" lon="151.2900632">
  <ele>359.55</ele>
  <time>2026-09-01T20:03:46Z</time>
  <course>178.72</course>
  <speed>12.03</speed>
  <fix>3d</fix>
</trkpt>
<trkpt lat="-27.2730069" lon="151.2900639">
  <ele>358.89</ele>
  <time>2026-09-01T20:03:46Z</time>
  <course>179.0</course>
  <speed>11.932028327153771</speed>
  <fix>3d</fix>
</trkpt>
<trkpt lat="-27.2729873" lon="151.2900637">
  <ele>359.29</ele>
  <time>2026-09-01T20:03:46Z</time>
  <course>178.73</course>
  <speed>11.98</speed>
  <fix>3d</fix>
</trkpt>
<trkpt lat="-27.2730176" lon="151.2900642">
  <ele>358.76</ele>
  <time>2026-09-01T20:03:46Z</time>
  <course>178.99</course>
  <speed>11.902033439711047</speed>
  <fix>3d</fix>
</trkpt>
<trkpt lat="-27.2729873" lon="151.2900637">
  <ele>359.29</ele>
  <time>2026-09-01T20:03:46Z</time>
  <course>178.73</course>
  <speed>11.98</speed>
  <fix>3d</fix>
</trkpt>
<trkpt lat="-27.2730283" lon="151.2900644">
  <ele>358.64</ele>
  <time>2026-09-01T20:03:46Z</time>
  <course>178.96</course>
  <speed>11.872038578104437</speed>
  <fix>3d</fix>
</trkpt>
<trkpt lat="-27.2730088" lon="151.2900642">
  <ele>359.03</ele>
  <time>2026-09-01T20:03:46Z</time>
  <course>178.75</course>
  <speed>11.92</speed>
  <fix>3d</fix>
</trkpt>
<trkpt lat="-27.273039" lon="151.2900647">
  <ele>358.53</ele>
  <time>2026-09-01T20:03:46Z</time>
  <course>178.91</course>
  <speed>11.84186218463971</speed>
  <fix>3d</fix>
</trkpt>
<trkpt lat="-27.2730088" lon="151.2900642">
  <ele>359.03</ele>
  <time>2026-09-01T20:03:46Z</time>
  <course>178.75</course>
  <speed>11.92</speed>
  <fix>3d</fix>
</trkpt>
<trkpt lat="-27.2730496" lon="151.2900649">
  <ele>358.43</ele>
  <time>2026-09-01T20:03:46Z</time>
  <course>178.87</course>
  <speed>11.811866914251954</speed>
  <fix>3d</fix>
</trkpt>
<trkpt lat="-27.2730301" lon="151.2900647">
  <ele>358.78</ele>
  <time>2026-09-01T20:03:46Z</time>
  <course>178.77</course>
  <speed>11.87</speed>
  <fix>3d</fix>
</trkpt>
<trkpt lat="-27.2730602" lon="151.2900652">
  <ele>358.33</ele>
  <time>2026-09-01T20:03:46Z</time>
  <course>178.83</course>
  <speed>11.771873257897402</speed>
  <fix>3d</fix>
</trkpt>
<trkpt lat="-27.2730301" lon="151.2900647">
  <ele>358.78</ele>
  <time>2026-09-01T20:03:46Z</time>
  <course>178.77</course>
  <speed>11.87</speed>
  <fix>3d</fix>
</trkpt>
<trkpt lat="-27.2730707" lon="151.2900654">
  <ele>358.24</ele>
  <time>2026-09-01T20:03:46Z</time>
  <course>178.79</course>
  <speed>11.74170345392865</speed>
  <fix>3d</fix>
</trkpt>
<trkpt lat="-27.2730514" lon="151.2900652">
  <ele>358.56</ele>
  <time>2026-09-01T20:03:46Z</time>
  <course>178.8</course>
  <speed>11.8</speed>
  <fix>3d</fix>
</trkpt>
<trkpt lat="-27.2730813" lon="151.2900656">
  <ele>358.16</ele>
  <time>2026-09-01T20:03:46Z</time>
  <course>178.76</course>
  <speed>11.691710738809784</speed>
  <fix>3d</fix>
</trkpt>
<trkpt lat="-27.2730514" lon="151.2900652">
  <ele>358.56</ele>
  <time>2026-09-01T20:03:46Z</time>
  <course>178.8</course>
  <speed>11.8</speed>
  <fix>3d</fix>
</trkpt>
<trkpt lat="-27.2730918" lon="151.2900659">
  <ele>358.09</ele>
  <time>2026-09-01T20:03:46Z</time>
  <course>178.74</course>
  <speed>11.651549253210922</speed>
  <fix>3d</fix>
</trkpt>
<trkpt lat="-27.2730725" lon="151.2900657">
  <ele>358.37</ele>
  <time>2026-09-01T20:03:46Z</time>
  <course>178.83</course>
  <speed>11.73</speed>
  <fix>3d</fix>
</trkpt>
<trkpt lat="-27.2731022" lon="151.2900661">
  <ele>358.02</ele>
  <time>2026-09-01T20:03:46Z</time>
  <course>178.73</course>
  <speed>11.611554590148556</speed>
  <fix>3d</fix>
</trkpt>
<trkpt lat="-27.2730725" lon="151.2900657">
  <ele>358.37</ele>
  <time>2026-09-01T20:03:46Z</time>
  <course>178.83</course>
  <speed>11.73</speed>
  <fix>3d</fix>
</trkpt>
<trkpt lat="-27.2731127" lon="151.2900663">
  <ele>357.96</ele>
  <time>2026-09-01T20:03:46Z</time>
  <course>178.72</course>
  <speed>11.571559963980656</speed>
  <fix>3d</fix>
</trkpt>
<trkpt lat="-27.2730935" lon="151.2900662">
  <ele>358.21</ele>
  <time>2026-09-01T20:03:46Z</time>
  <course>178.86</course>
  <speed>11.64</speed>
  <fix>3d</fix>
</trkpt>
<trkpt lat="-27.2731231" lon="151.2900665">
  <ele>357.91</ele>
  <time>2026-09-01T20:03:46Z</time>
  <course>178.71</course>
  <speed>11.521406164179787</speed>
  <fix>3d</fix>
</trkpt>
<trkpt lat="-27.2730935" lon="151.2900662">
  <ele>358.21</ele>
  <time>2026-09-01T20:03:46Z</time>
  <course>178.86</course>
  <speed>11.64</speed>
  <fix>3d</fix>
</trkpt>
<trkpt lat="-27.2731335" lon="151.2900667">
  <ele>357.86</ele>
  <time>2026-09-01T20:03:46Z</time>
  <course>178.71</course>
  <speed>11.491409835176883</speed>
  <fix>3d</fix>
</trkpt>
<trkpt lat="-27.2731144" lon="151.2900667">
  <ele>358.08</ele>
  <time>2026-09-01T20:03:46Z</time>
  <course>178.89</course>
  <speed>11.56</speed>
  <fix>3d</fix>
</trkpt>
<trkpt lat="-27.2731441" lon="151.290067">
  <ele>357.82</ele>
  <time>2026-09-01T20:03:46Z</time>
  <course>178.71</course>
  <speed>11.451261939192555</speed>
  <fix>3d</fix>
</trkpt>
<trkpt lat="-27.2731144" lon="151.2900667">
  <ele>358.08</ele>
  <time>2026-09-01T20:03:46Z</time>
  <course>178.89</course>
  <speed>11.56</speed>
  <fix>3d</fix>
</trkpt>
<trkpt lat="-27.2731543" lon="151.2900672">
  <ele>357.78</ele>
  <time>2026-09-01T20:03:46Z</time>
  <course>178.71</course>
  <speed>11.411121767819322</speed>
  <fix>3d</fix>
</trkpt>
<trkpt lat="-27.2731351" lon="151.2900671">
  <ele>357.98</ele>
  <time>2026-09-01T20:03:46Z</time>
  <course>178.93</course>
  <speed>11.47</speed>
  <fix>3d</fix>
</trkpt>
<trkpt lat="-27.2731646" lon="151.2900674">
  <ele>357.76</ele>
  <time>2026-09-01T20:03:46Z</time>
  <course>178.71</course>
  <speed>11.381124724736129</speed>
  <fix>3d</fix>
</trkpt>
<trkpt lat="-27.2731351" lon="151.2900671">
  <ele>357.98</ele>
  <time>2026-09-01T20:03:46Z</time>
  <course>178.93</course>
  <speed>11.47</speed>
  <fix>3d</fix>
</trkpt>
<trkpt lat="-27.2731748" lon="151.2900676">
  <ele>357.74</ele>
  <time>2026-09-01T20:03:46Z</time>
  <course>178.72</course>
  <speed>11.360990273739343</speed>
  <fix>3d</fix>
</trkpt>
<trkpt lat="-27.2731556" lon="151.2900675">
  <ele>357.91</ele>
  <time>2026-09-01T20:03:46Z</time>
  <course>178.98</course>
  <speed>11.4</speed>
  <fix>3d</fix>
</trkpt>
<trkpt lat="-27.273185" lon="151.2900677">
  <ele>357.72</ele>
  <time>2026-09-01T20:03:46Z</time>
  <course>178.73</course>
  <speed>11.34099202010124</speed>
  <fix>3d</fix>
</trkpt>
<trkpt lat="-27.2731556" lon="151.2900675">
  <ele>357.91</ele>
  <time>2026-09-01T20:03:46Z</time>
  <course>178.98</course>
  <speed>11.4</speed>
  <fix>3d</fix>
</trkpt>
<trkpt lat="-27.2731952" lon="151.2900679">
  <ele>357.71</ele>
  <time>2026-09-01T20:03:46Z</time>
  <course>178.75</course>
  <speed>11.320865691279973</speed>
  <fix>3d</fix>
</trkpt>
<trkpt lat="-27.2731761" lon="151.290068">
  <ele>357.86</ele>
  <time>2026-09-01T20:03:46Z</time>
  <course>179.03</course>
  <speed>11.35</speed>
  <fix>3d</fix>
</trkpt>
<trkpt lat="-27.2732055" lon="151.2900681">
  <ele>357.7</ele>
  <time>2026-09-01T20:03:46Z</time>
  <course>178.76</course>
  <speed>11.310747101761226</speed>
  <fix>3d</fix>
</trkpt>
<trkpt lat="-27.2731761" lon="151.290068">
  <ele>357.86</ele>
  <time>2026-09-01T20:03:46Z</time>
  <course>179.03</course>
  <speed>11.35</speed>
  <fix>3d</fix>
</trkpt>
<trkpt lat="-27.2732156" lon="151.2900683">
  <ele>357.7</ele>
  <time>2026-09-01T20:03:46Z</time>
  <course>178.78</course>
  <speed>11.3007477628695</speed>
  <fix>3d</fix>
</trkpt>
<trkpt lat="-27.2731964" lon="151.2900683">
  <ele>357.83</ele>
  <time>2026-09-01T20:03:46Z</time>
  <course>179.08</course>
  <speed>11.31</speed>
  <fix>3d</fix>
</trkpt>
<trkpt lat="-27.2732258" lon="151.2900684">
  <ele>357.7</ele>
  <time>2026-09-01T20:03:46Z</time>
  <course>178.8</course>
  <speed>11.300637150178746</speed>
  <fix>3d</fix>
</trkpt>
<trkpt lat="-27.2731964" lon="151.2900683">
  <ele>357.83</ele>
  <time>2026-09-01T20:03:46Z</time>
  <course>179.08</course>
  <speed>11.31</speed>
  <fix>3d</fix>
</trkpt>
<trkpt lat="-27.2732359" lon="151.2900686">
  <ele>357.71</ele>
  <time>2026-09-01T20:03:46Z</time>
  <course>178.83</course>
  <speed>11.300637150178746</speed>
  <fix>3d</fix>
</trkpt>
<trkpt lat="-27.2732167" lon="151.2900687">
  <ele>357.81</ele>
  <time>2026-09-01T20:03:46Z</time>
  <course>179.14</course>
  <speed>11.29</speed>
  <fix>3d</fix>
</trkpt>
<trkpt lat="-27.2732461" lon="151.2900688">
  <ele>357.71</ele>
  <time>2026-09-01T20:03:46Z</time>
  <course>178.85</course>
  <speed>11.300535385547004</speed>
  <fix>3d</fix>
</trkpt>
<trkpt lat="-27.2732167" lon="151.2900687">
  <ele>357.81</ele>
  <time>2026-09-01T20:03:46Z</time>
  <course>179.14</course>
  <speed>11.29</speed>
  <fix>3d</fix>
</trkpt>
<trkpt lat="-27.2732562" lon="151.2900689">
  <ele>357.72</ele>
  <time>2026-09-01T20:03:46Z</time>
  <course>178.88</course>
  <speed>11.310442078009153</speed>
  <fix>3d</fix>
</trkpt>
<trkpt lat="-27.273237" lon="151.290069">
  <ele>357.81</ele>
  <time>2026-09-01T20:03:46Z</time>
  <course>179.21</course>
  <speed>11.28</speed>
  <fix>3d</fix>
</trkpt>
<trkpt lat="-27.2732664" lon="151.290069">
  <ele>357.73</ele>
  <time>2026-09-01T20:03:46Z</time>
  <course>178.91</course>
  <speed>11.320441687496121</speed>
  <fix>3d</fix>
</trkpt>
<trkpt lat="-27.273237" lon="151.290069">
  <ele>357.81</ele>
  <time>2026-09-01T20:03:46Z</time>
  <course>179.21</course>
  <speed>11.28</speed>
  <fix>3d</fix>
</trkpt>
<trkpt lat="-27.2732763" lon="151.2900692">
  <ele>357.74</ele>
  <time>2026-09-01T20:03:46Z</time>
  <course>178.93</course>
  <speed>11.340357137233378</speed>
  <fix>3d</fix>
</trkpt>
<trkpt lat="-27.2732573" lon="151.2900693">
  <ele>357.82</ele>
  <time>2026-09-01T20:03:46Z</time>
  <course>179.27</course>
  <speed>11.3</speed>
  <fix>3d</fix>
</trkpt>
<trkpt lat="-27.2732864" lon="151.2900693">
  <ele>357.76</ele>
  <time>2026-09-01T20:03:46Z</time>
  <course>178.96</course>
  <speed>11.35028193482435</speed>
  <fix>3d</fix>
</trkpt>
<trkpt lat="-27.2732573" lon="151.2900693">
  <ele>357.82</ele>
  <time>2026-09-01T20:03:46Z</time>
  <course>179.27</course>
  <speed>11.3</speed>
  <fix>3d</fix>
</trkpt>
<trkpt lat="-27.2732966" lon="151.2900694">
  <ele>357.77</ele>
  <time>2026-09-01T20:03:46Z</time>
  <course>178.99</course>
  <speed>11.370281438909064</speed>
  <fix>3d</fix>
</trkpt>
<trkpt lat="-27.2732776" lon="151.2900695">
  <ele>357.84</ele>
  <time>2026-09-01T20:03:46Z</time>
  <course>179.34</course>
  <speed>11.32</speed>
  <fix>3d</fix>
</trkpt>
<trkpt lat="-27.2733069" lon="151.2900695">
  <ele>357.78</ele>
  <time>2026-09-01T20:03:46Z</time>
  <course>179.02</course>
  <speed>11.40021491025498</speed>
  <fix>3d</fix>
</trkpt>
<trkpt lat="-27.2732776" lon="151.2900695">
  <ele>357.84</ele>
  <time>2026-09-01T20:03:46Z</time>
  <course>179.34</course>
  <speed>11.32</speed>
  <fix>3d</fix>
</trkpt>
<trkpt lat="-27.2733171" lon="151.2900696">
  <ele>357.8</ele>
  <time>2026-09-01T20:03:46Z</time>
  <course>179.06</course>
  <speed>11.420157617125955</speed>
  <fix>3d</fix>
</trkpt>
<trkpt lat="-27.2732979" lon="151.2900698">
  <ele>357.87</ele>
  <time>2026-09-01T20:03:46Z</time>
  <course>179.4</course>
  <speed>11.36</speed>
  <fix>3d</fix>
</trkpt>
<trkpt lat="-27.2733275" lon="151.2900697">
  <ele>357.82</ele>
  <time>2026-09-01T20:03:46Z</time>
  <course>179.09</course>
  <speed>11.450157204160998</speed>
  <fix>3d</fix>
</trkpt>
<trkpt lat="-27.2732979" lon="151.2900698">
  <ele>357.87</ele>
  <time>2026-09-01T20:03:46Z</time>
  <course>179.4</course>
  <speed>11.36</speed>
  <fix>3d</fix>
</trkpt>
<trkpt lat="-27.2733378" lon="151.2900698">
  <ele>357.83</ele>
  <time>2026-09-01T20:03:46Z</time>
  <course>179.13</course>
  <speed>11.47010897942997</speed>
  <fix>3d</fix>
</trkpt>
<trkpt lat="-27.2733185" lon="151.29007">
  <ele>357.9</ele>
  <time>2026-09-01T20:03:46Z</time>
  <course>179.47</course>
  <speed>11.41</speed>
  <fix>3d</fix>
</trkpt>
<trkpt lat="-27.2733481" lon="151.2900699">
  <ele>357.85</ele>
  <time>2026-09-01T20:03:46Z</time>
  <course>179.16</course>
  <speed>11.500069565006989</speed>
  <fix>3d</fix>
</trkpt>
<trkpt lat="-27.2733185" lon="151.29007">
  <ele>357.9</ele>
  <time>2026-09-01T20:03:46Z</time>
  <course>179.47</course>
  <speed>11.41</speed>
  <fix>3d</fix>
</trkpt>
<trkpt lat="-27.2733588" lon="151.29007">
  <ele>357.87</ele>
  <time>2026-09-01T20:03:46Z</time>
  <course>179.2</course>
  <speed>11.530069384006326</speed>
  <fix>3d</fix>
</trkpt>
<trkpt lat="-27.2733391" lon="151.2900703">
  <ele>357.93</ele>
  <time>2026-09-01T20:03:46Z</time>
  <course>179.53</course>
  <speed>11.46</speed>
  <fix>3d</fix>
</trkpt>
<trkpt lat="-27.2733692" lon="151.2900701">
  <ele>357.89</ele>
  <time>2026-09-01T20:03:46Z</time>
  <course>179.24</course>
  <speed>11.560038927270098</speed>
  <fix>3d</fix>
</trkpt>
<trkpt lat="-27.2733391" lon="151.2900703">
  <ele>357.93</ele>
  <time>2026-09-01T20:03:46Z</time>
  <course>179.53</course>
  <speed>11.46</speed>
  <fix>3d</fix>
</trkpt>
<trkpt lat="-27.2733796" lon="151.2900702">
  <ele>357.91</ele>
  <time>2026-09-01T20:03:46Z</time>
  <course>179.27</course>
  <speed>11.590038826509598</speed>
  <fix>3d</fix>
</trkpt>
<trkpt lat="-27.2733597" lon="151.2900704">
  <ele>357.97</ele>
  <time>2026-09-01T20:03:46Z</time>
  <course>179.59</course>
  <speed>11.52</speed>
  <fix>3d</fix>
</trkpt>
<trkpt lat="-27.27339" lon="151.2900702">
  <ele>357.93</ele>
  <time>2026-09-01T20:03:46Z</time>
  <course>179.3</course>
  <speed>11.620017211691211</speed>
  <fix>3d</fix>
</trkpt>
<trkpt lat="-27.2733597" lon="151.2900704">
  <ele>357.97</ele>
  <time>2026-09-01T20:03:46Z</time>
  <course>179.59</course>
  <speed>11.52</speed>
  <fix>3d</fix>
</trkpt>
<trkpt lat="-27.2734005" lon="151.2900703">
  <ele>357.95</ele>
  <time>2026-09-01T20:03:46Z</time>
  <course>179.34</course>
  <speed>11.640004295531853</speed>
  <fix>3d</fix>
</trkpt>
<trkpt lat="-27.2733804" lon="151.2900705">
  <ele>358.01</ele>
  <time>2026-09-01T20:03:46Z</time>
  <course>179.65</course>
  <speed>11.57</speed>
  <fix>3d</fix>
</trkpt>
<trkpt lat="-27.2734111" lon="151.2900703">
  <ele>357.97</ele>
  <time>2026-09-01T20:03:46Z</time>
  <course>179.38</course>
  <speed>11.670004284489359</speed>
  <fix>3d</fix>
</trkpt>
<trkpt lat="-27.2733804" lon="151.2900705">
  <ele>358.01</ele>
  <time>2026-09-01T20:03:46Z</time>
  <course>179.65</course>
  <speed>11.57</speed>
  <fix>3d</fix>
</trkpt>
<trkpt lat="-27.2734216" lon="151.2900704">
  <ele>357.99</ele>
  <time>2026-09-01T20:03:46Z</time>
  <course>179.41</course>
  <speed>11.7</speed>
  <fix>3d</fix>
</trkpt>
<trkpt lat="-27.2734012" lon="151.2900707">
  <ele>358.04</ele>
  <time>2026-09-01T20:03:46Z</time>
  <course>179.7</course>
  <speed>11.63</speed>
  <fix>3d</fix>
</trkpt>
<trkpt lat="-27.2734321" lon="151.2900704">
  <ele>358.01</ele>
  <time>2026-09-01T20:03:46Z</time>
  <course>179.44</course>
  <speed>11.72</speed>
  <fix>3d</fix>
</trkpt>
<trkpt lat="-27.2734012" lon="151.2900707">
  <ele>358.04</ele>
  <time>2026-09-01T20:03:46Z</time>
  <course>179.7</course>
  <speed>11.63</speed>
  <fix>3d</fix>
</trkpt>
<trkpt lat="-27.2734427" lon="151.2900705">
  <ele>358.03</ele>
  <time>2026-09-01T20:03:46Z</time>
  <course>179.48</course>
  <speed>11.75</speed>
  <fix>3d</fix>
</trkpt>
<trkpt lat="-27.2734222" lon="151.2900708">
  <ele>358.08</ele>
  <time>2026-09-01T20:03:46Z</time>
  <course>179.76</course>
  <speed>11.68</speed>
  <fix>3d</fix>
</trkpt>
<trkpt lat="-27.2734533" lon="151.2900705">
  <ele>358.05</ele>
  <time>2026-09-01T20:03:46Z</time>
  <course>179.51</course>
  <speed>11.77</speed>
  <fix>3d</fix>
</trkpt>
<trkpt lat="-27.2734222" lon="151.2900708">
  <ele>358.08</ele>
  <time>2026-09-01T20:03:46Z</time>
  <course>179.76</course>
  <speed>11.68</speed>
  <fix>3d</fix>
</trkpt>
<trkpt lat="-27.2734638" lon="151.2900705">
  <ele>358.06</ele>
  <time>2026-09-01T20:03:46Z</time>
  <course>179.54</course>
  <speed>11.79000424088134</speed>
  <fix>3d</fix>
</trkpt>
<trkpt lat="-27.2734432" lon="151.2900709">
  <ele>358.11</ele>
  <time>2026-09-01T20:03:46Z</time>
  <course>179.81</course>
  <speed>11.73</speed>
  <fix>3d</fix>
</trkpt>
<trkpt lat="-27.2734744" lon="151.2900705">
  <ele>358.08</ele>
  <time>2026-09-01T20:03:46Z</time>
  <course>179.57</course>
  <speed>11.810004233699495</speed>
  <fix>3d</fix>
</trkpt>
<trkpt lat="-27.2734432" lon="151.2900709">
  <ele>358.11</ele>
  <time>2026-09-01T20:03:46Z</time>
  <course>179.81</course>
  <speed>11.73</speed>
  <fix>3d</fix>
</trkpt>
<trkpt lat="-27.2734851" lon="151.2900706">
  <ele>358.09</ele>
  <time>2026-09-01T20:03:46Z</time>
  <course>179.6</course>
  <speed>11.83001690615867</speed>
  <fix>3d</fix>
</trkpt>
<trkpt lat="-27.2734644" lon="151.2900709">
  <ele>358.14</ele>
  <time>2026-09-01T20:03:46Z</time>
  <course>179.85</course>
  <speed>11.77</speed>
  <fix>3d</fix>
</trkpt>
<trkpt lat="-27.2734957" lon="151.2900706">
  <ele>358.1</ele>
  <time>2026-09-01T20:03:46Z</time>
  <course>179.63</course>
  <speed>11.850016877625112</speed>
  <fix>3d</fix>
</trkpt>
<trkpt lat="-27.2734644" lon="151.2900709">
  <ele>358.14</ele>
  <time>2026-09-01T20:03:46Z</time>
  <course>179.85</course>
  <speed>11.77</speed>
  <fix>3d</fix>
</trkpt>
<trkpt lat="-27.2735064" lon="151.2900706">
  <ele>358.11</ele>
  <time>2026-09-01T20:03:46Z</time>
  <course>179.66</course>
  <speed>11.870037910638702</speed>
  <fix>3d</fix>
</trkpt>
<trkpt lat="-27.2734856" lon="151.290071">
  <ele>358.16</ele>
  <time>2026-09-01T20:03:46Z</time>
  <course>179.9</course>
  <speed>11.82</speed>
  <fix>3d</fix>
</trkpt>
<trkpt lat="-27.2735171" lon="151.2900706">
  <ele>358.12</ele>
  <time>2026-09-01T20:03:46Z</time>
  <course>179.69</course>
  <speed>11.880037878727492</speed>
  <fix>3d</fix>
</trkpt>
<trkpt lat="-27.2734856" lon="151.290071">
  <ele>358.16</ele>
  <time>2026-09-01T20:03:46Z</time>
  <course>179.9</course>
  <speed>11.82</speed>
  <fix>3d</fix>
</trkpt>
<trkpt lat="-27.2735278" lon="151.2900706">
  <ele>358.13</ele>
  <time>2026-09-01T20:03:46Z</time>
  <course>179.71</course>
  <speed>11.900037815065966</speed>
  <fix>3d</fix>
</trkpt>
<trkpt lat="-27.2735068" lon="151.2900711">
  <ele>358.19</ele>
  <time>2026-09-01T20:03:46Z</time>
  <course>179.94</course>
  <speed>11.85</speed>
  <fix>3d</fix>
</trkpt>
<trkpt lat="-27.2735384" lon="151.2900706">
  <ele>358.14</ele>
  <time>2026-09-01T20:03:46Z</time>
  <course>179.74</course>
  <speed>11.91006717025559</speed>
  <fix>3d</fix>
</trkpt>
<trkpt lat="-27.2735068" lon="151.2900711">
  <ele>358.19</ele>
  <time>2026-09-01T20:03:46Z</time>
  <course>179.94</course>
  <speed>11.85</speed>
  <fix>3d</fix>
</trkpt>
<trkpt lat="-27.2735492" lon="151.2900706">
  <ele>358.14</ele>
  <time>2026-09-01T20:03:46Z</time>
  <course>179.76</course>
  <speed>11.930067057648921</speed>
  <fix>3d</fix>
</trkpt>
<trkpt lat="-27.2735282" lon="151.2900711">
  <ele>358.2</ele>
  <time>2026-09-01T20:03:46Z</time>
  <course>179.98</course>
  <speed>11.89</speed>
  <fix>3d</fix>
</trkpt>
<trkpt lat="-27.2735599" lon="151.2900706">
  <ele>358.15</ele>
  <time>2026-09-01T20:03:46Z</time>
  <course>179.79</course>
  <speed>11.940067001487053</speed>
  <fix>3d</fix>
</trkpt>
<trkpt lat="-27.2735282" lon="151.2900711">
  <ele>358.2</ele>
  <time>2026-09-01T20:03:46Z</time>
  <course>179.98</course>
  <speed>11.89</speed>
  <fix>3d</fix>
</trkpt>
<trkpt lat="-27.2735703" lon="151.2900706">
  <ele>358.15</ele>
  <time>2026-09-01T20:03:46Z</time>
  <course>179.81</course>
  <speed>11.950104602052654</speed>
  <fix>3d</fix>
</trkpt>
<trkpt lat="-27.2735496" lon="151.2900711">
  <ele>358.21</ele>
  <time>2026-09-01T20:03:46Z</time>
  <course>180.02</course>
  <speed>11.92</speed>
  <fix>3d</fix>
</trkpt>
<trkpt lat="-27.2735814" lon="151.2900706">
  <ele>358.16</ele>
  <time>2026-09-01T20:03:46Z</time>
  <course>179.83</course>
  <speed>11.960104514593509</speed>
  <fix>3d</fix>
</trkpt>
<trkpt lat="-27.2735496" lon="151.2900711">
  <ele>358.21</ele>
  <time>2026-09-01T20:03:46Z</time>
  <course>180.02</course>
  <speed>11.92</speed>
  <fix>3d</fix>
</trkpt>
<trkpt lat="-27.2735921" lon="151.2900706">
  <ele>358.16</ele>
  <time>2026-09-01T20:03:46Z</time>
  <course>179.86</course>
  <speed>11.970104427280491</speed>
  <fix>3d</fix>
</trkpt>
<trkpt lat="-27.2735711" lon="151.2900711">
  <ele>358.22</ele>
  <time>2026-09-01T20:03:46Z</time>
  <course>180.05</course>
  <speed>11.95</speed>
  <fix>3d</fix>
</trkpt>
<trkpt lat="-27.2736028" lon="151.2900707">
  <ele>358.16</ele>
  <time>2026-09-01T20:03:46Z</time>
  <course>179.88</course>
  <speed>11.980150249475171</speed>
  <fix>3d</fix>
</trkpt>
<trkpt lat="-27.2735711" lon="151.2900711">
  <ele>358.22</ele>
  <time>2026-09-01T20:03:46Z</time>
  <course>180.05</course>
  <speed>11.95</speed>
  <fix>3d</fix>
</trkpt>
<trkpt lat="-27.2736135" lon="151.2900706">
  <ele>358.17</ele>
  <time>2026-09-01T20:03:46Z</time>
  <course>179.9</course>
  <speed>11.990150124164417</speed>
  <fix>3d</fix>
</trkpt>
<trkpt lat="-27.2735925" lon="151.2900711">
  <ele>358.23</ele>
  <time>2026-09-01T20:03:46Z</time>
  <course>180.09</course>
  <speed>11.97</speed>
  <fix>3d</fix>
</trkpt>
<trkpt lat="-27.2736242" lon="151.2900706">
  <ele>358.17</ele>
  <time>2026-09-01T20:03:46Z</time>
  <course>179.92</course>
  <speed>11.990150124164417</speed>
  <fix>3d</fix>
</trkpt>
<trkpt lat="-27.2735925" lon="151.2900711">
  <ele>358.23</ele>
  <time>2026-09-01T20:03:46Z</time>
  <course>180.09</course>
  <speed>11.97</speed>
  <fix>3d</fix>
</trkpt>
<trkpt lat="-27.273635" lon="151.2900706">
  <ele>358.17</ele>
  <time>2026-09-01T20:03:46Z</time>
  <course>179.93</course>
  <speed>12.000149999062511</speed>
  <fix>3d</fix>
</trkpt>
<trkpt lat="-27.273614" lon="151.2900711">
  <ele>358.23</ele>
  <time>2026-09-01T20:03:46Z</time>
  <course>180.12</course>
  <speed>11.99</speed>
  <fix>3d</fix>
</trkpt>
<trkpt lat="-27.2736457" lon="151.2900706">
  <ele>358.17</ele>
  <time>2026-09-01T20:03:46Z</time>
  <course>179.95</course>
  <speed>12.000204164929862</speed>
  <fix>3d</fix>
</trkpt>
<trkpt lat="-27.273614" lon="151.2900711">
  <ele>358.23</ele>
  <time>2026-09-01T20:03:46Z</time>
  <course>180.12</course>
  <speed>11.99</speed>
  <fix>3d</fix>
</trkpt>
<trkpt lat="-27.2736564" lon="151.2900706">
  <ele>358.17</ele>
  <time>2026-09-01T20:03:46Z</time>
  <course>179.97</course>
  <speed>12.01020399493697</speed>
  <fix>3d</fix>
</trkpt>
<trkpt lat="-27.2736357" lon="151.290071">
  <ele>358.23</ele>
  <time>2026-09-01T20:03:46Z</time>
  <course>180.15</course>
  <speed>12.01</speed>
  <fix>3d</fix>
</trkpt>
<trkpt lat="-27.2736672" lon="151.2900705">
  <ele>358.17</ele>
  <time>2026-09-01T20:03:46Z</time>
  <course>179.98</course>
  <speed>12.01020399493697</speed>
  <fix>3d</fix>
</trkpt>
<trkpt lat="-27.2736357" lon="151.290071">
  <ele>358.23</ele>
  <time>2026-09-01T20:03:46Z</time>
  <course>180.15</course>
  <speed>12.01</speed>
  <fix>3d</fix>
</trkpt>
<trkpt lat="-27.2736779" lon="151.2900705">
  <ele>358.17</ele>
  <time>2026-09-01T20:03:46Z</time>
  <course>180.01</course>
  <speed>12.020203825226924</speed>
  <fix>3d</fix>
</trkpt>
<trkpt lat="-27.2736572" lon="151.2900709">
  <ele>358.23</ele>
  <time>2026-09-01T20:03:46Z</time>
  <course>180.17</course>
  <speed>12.03</speed>
  <fix>3d</fix>
</trkpt>
<trkpt lat="-27.2736887" lon="151.2900704">
  <ele>358.16</ele>
  <time>2026-09-01T20:03:46Z</time>
  <course>180.02</course>
  <speed>12.020203825226924</speed>
  <fix>3d</fix>
</trkpt>
<trkpt lat="-27.2736572" lon="151.2900709">
  <ele>358.23</ele>
  <time>2026-09-01T20:03:46Z</time>
  <course>180.17</course>
  <speed>12.03</speed>
  <fix>3d</fix>
</trkpt>
<trkpt lat="-27.2736995" lon="151.2900704">
  <ele>358.16</ele>
  <time>2026-09-01T20:03:46Z</time>
  <course>180.04</course>
  <speed>12.030265998721724</speed>
  <fix>3d</fix>
</trkpt>
<trkpt lat="-27.2736789" lon="151.2900708">
  <ele>358.22</ele>
  <time>2026-09-01T20:03:46Z</time>
  <course>180.19</course>
  <speed>12.05</speed>
  <fix>3d</fix>
</trkpt>
<trkpt lat="-27.2737103" lon="151.2900704">
  <ele>358.15</ele>
  <time>2026-09-01T20:03:46Z</time>
  <course>180.05</course>
  <speed>12.030265998721724</speed>
  <fix>3d</fix>
</trkpt>
<trkpt lat="-27.2736789" lon="151.2900708">
  <ele>358.22</ele>
  <time>2026-09-01T20:03:46Z</time>
  <course>180.19</course>
  <speed>12.05</speed>
  <fix>3d</fix>
</trkpt>
<trkpt lat="-27.2737211" lon="151.2900703">
  <ele>358.15</ele>
  <time>2026-09-01T20:03:46Z</time>
  <course>180.06</course>
  <speed>12.040265777797432</speed>
  <fix>3d</fix>
</trkpt>
<trkpt lat="-27.2737005" lon="151.2900707">
  <ele>358.21</ele>
  <time>2026-09-01T20:03:46Z</time>
  <course>180.21</course>
  <speed>12.06</speed>
  <fix>3d</fix>
</trkpt>
<trkpt lat="-27.2737319" lon="151.2900703">
  <ele>358.15</ele>
  <time>2026-09-01T20:03:46Z</time>
  <course>180.07</course>
  <speed>12.040265777797432</speed>
  <fix>3d</fix>
</trkpt>
<trkpt lat="-27.2737005" lon="151.2900707">
  <ele>358.21</ele>
  <time>2026-09-01T20:03:46Z</time>
  <course>180.21</course>
  <speed>12.06</speed>
  <fix>3d</fix>
</trkpt>
<trkpt lat="-27.2737427" lon="151.2900702">
  <ele>358.15</ele>
  <time>2026-09-01T20:03:46Z</time>
  <course>180.08</course>
  <speed>12.050265557239806</speed>
  <fix>3d</fix>
</trkpt>
<trkpt lat="-27.2737222" lon="151.2900706">
  <ele>358.21</ele>
  <time>2026-09-01T20:03:46Z</time>
  <course>180.23</course>
  <speed>12.08</speed>
  <fix>3d</fix>
</trkpt>
<trkpt lat="-27.2737536" lon="151.2900702">
  <ele>358.15</ele>
  <time>2026-09-01T20:03:46Z</time>
  <course>180.09</course>
  <speed>12.050265557239806</speed>
  <fix>3d</fix>
</trkpt>
<trkpt lat="-27.2737222" lon="151.2900706">
  <ele>358.21</ele>
  <time>2026-09-01T20:03:46Z</time>
  <course>180.23</course>
  <speed>12.08</speed>
  <fix>3d</fix>
</trkpt>
<trkpt lat="-27.2737644" lon="151.2900701">
  <ele>358.15</ele>
  <time>2026-09-01T20:03:46Z</time>
  <course>180.1</course>
  <speed>12.050336094897935</speed>
  <fix>3d</fix>
</trkpt>
<trkpt lat="-27.273744" lon="151.2900705">
  <ele>358.2</ele>
  <time>2026-09-01T20:03:46Z</time>
  <course>180.25</course>
  <speed>12.09</speed>
  <fix>3d</fix>
</trkpt>
<trkpt lat="-27.2737752" lon="151.29007">
  <ele>358.15</ele>
  <time>2026-09-01T20:03:46Z</time>
  <course>180.11</course>
  <speed>12.060335816220045</speed>
  <fix>3d</fix>
</trkpt>
<trkpt lat="-27.273744" lon="151.2900705">
  <ele>358.2</ele>
  <time>2026-09-01T20:03:46Z</time>
  <course>180.25</course>
  <speed>12.09</speed>
  <fix>3d</fix>
</trkpt>
<trkpt lat="-27.2737861" lon="151.29007">
  <ele>358.15</ele>
  <time>2026-09-01T20:03:46Z</time>
  <course>180.12</course>
  <speed>12.060335816220045</speed>
  <fix>3d</fix>
</trkpt>
<trkpt lat="-27.2737657" lon="151.2900704">
  <ele>358.2</ele>
  <time>2026-09-01T20:03:46Z</time>
  <course>180.27</course>
  <speed>12.1</speed>
  <fix>3d</fix>
</trkpt>
<trkpt lat="-27.273797" lon="151.2900699">
  <ele>358.15</ele>
  <time>2026-09-01T20:03:46Z</time>
  <course>180.13</course>
  <speed>12.060335816220045</speed>
  <fix>3d</fix>
</trkpt>
<trkpt lat="-27.2737657" lon="151.2900704">
  <ele>358.2</ele>
  <time>2026-09-01T20:03:46Z</time>
  <course>180.27</course>
  <speed>12.1</speed>
  <fix>3d</fix>
</trkpt>
<trkpt lat="-27.2738078" lon="151.2900699">
  <ele>358.15</ele>
  <time>2026-09-01T20:03:46Z</time>
  <course>180.14</course>
  <speed>12.060335816220045</speed>
  <fix>3d</fix>
</trkpt>
<trkpt lat="-27.2737875" lon="151.2900703">
  <ele>358.19</ele>
  <time>2026-09-01T20:03:46Z</time>
  <course>180.28</course>
  <speed>12.1</speed>
  <fix>3d</fix>
</trkpt>
<trkpt lat="-27.2738187" lon="151.2900698">
  <ele>358.14</ele>
  <time>2026-09-01T20:03:46Z</time>
  <course>180.15</course>
  <speed>12.060335816220045</speed>
  <fix>3d</fix>
</trkpt>
<trkpt lat="-27.2737875" lon="151.2900703">
  <ele>358.19</ele>
  <time>2026-09-01T20:03:46Z</time>
  <course>180.28</course>
  <speed>12.1</speed>
  <fix>3d</fix>
</trkpt>
<trkpt lat="-27.2738296" lon="151.2900698">
  <ele>358.14</ele>
  <time>2026-09-01T20:03:46Z</time>
  <course>180.16</course>
  <speed>12.070335538003903</speed>
  <fix>3d</fix>
</trkpt>
<trkpt lat="-27.2738092" lon="151.2900702">
  <ele>358.19</ele>
  <time>2026-09-01T20:03:46Z</time>
  <course>180.3</course>
  <speed>12.11</speed>
  <fix>3d</fix>
</trkpt>
<trkpt lat="-27.2738404" lon="151.2900697">
  <ele>358.14</ele>
  <time>2026-09-01T20:03:46Z</time>
  <course>180.18</course>
  <speed>12.070414243098702</speed>
  <fix>3d</fix>
</trkpt>
<trkpt lat="-27.2738092" lon="151.2900702">
  <ele>358.19</ele>
  <time>2026-09-01T20:03:46Z</time>
  <course>180.3</course>
  <speed>12.11</speed>
  <fix>3d</fix>
</trkpt>
<trkpt lat="-27.2738513" lon="151.2900696">
  <ele>358.14</ele>
  <time>2026-09-01T20:03:46Z</time>
  <course>180.19</course>
  <speed>12.070414243098702</speed>
  <fix>3d</fix>
</trkpt>
<trkpt lat="-27.273831" lon="151.29007">
  <ele>358.19</ele>
  <time>2026-09-01T20:03:46Z</time>
  <course>180.32</course>
  <speed>12.11</speed>
  <fix>3d</fix>
</trkpt>
<trkpt lat="-27.2738621" lon="151.2900695">
  <ele>358.14</ele>
  <time>2026-09-01T20:03:46Z</time>
  <course>180.2</course>
  <speed>12.070414243098702</speed>
  <fix>3d</fix>
</trkpt>
<trkpt lat="-27.273831" lon="151.29007">
  <ele>358.19</ele>
  <time>2026-09-01T20:03:46Z</time>
  <course>180.32</course>
  <speed>12.11</speed>
  <fix>3d</fix>
</trkpt>
<trkpt lat="-27.2738731" lon="151.2900695">
  <ele>358.14</ele>
  <time>2026-09-01T20:03:46Z</time>
  <course>180.2</course>
  <speed>12.070414243098702</speed>
  <fix>3d</fix>
</trkpt>
<trkpt lat="-27.2738528" lon="151.2900699">
  <ele>358.18</ele>
  <time>2026-09-01T20:03:46Z</time>
  <course>180.33</course>
  <speed>12.12</speed>
  <fix>3d</fix>
</trkpt>
<trkpt lat="-27.273884" lon="151.2900694">
  <ele>358.14</ele>
  <time>2026-09-01T20:03:46Z</time>
  <course>180.21</course>
  <speed>12.070414243098702</speed>
  <fix>3d</fix>
</trkpt>
<trkpt lat="-27.2738528" lon="151.2900699">
  <ele>358.18</ele>
  <time>2026-09-01T20:03:46Z</time>
  <course>180.33</course>
  <speed>12.12</speed>
  <fix>3d</fix>
</trkpt>
<trkpt lat="-27.2738949" lon="151.2900693">
  <ele>358.14</ele>
  <time>2026-09-01T20:03:46Z</time>
  <course>180.22</course>
  <speed>12.070414243098702</speed>
  <fix>3d</fix>
</trkpt>
<trkpt lat="-27.2738745" lon="151.2900698">
  <ele>358.18</ele>
  <time>2026-09-01T20:03:46Z</time>
  <course>180.34</course>
  <speed>12.12</speed>
  <fix>3d</fix>
</trkpt>
<trkpt lat="-27.2739058" lon="151.2900693">
  <ele>358.14</ele>
  <time>2026-09-01T20:03:46Z</time>
  <course>180.23</course>
  <speed>12.070414243098702</speed>
  <fix>3d</fix>
</trkpt>
<trkpt lat="-27.2738745" lon="151.2900698">
  <ele>358.18</ele>
  <time>2026-09-01T20:03:46Z</time>
  <course>180.34</course>
  <speed>12.12</speed>
  <fix>3d</fix>
</trkpt>
<trkpt lat="-27.2739166" lon="151.2900692">
  <ele>358.15</ele>
  <time>2026-09-01T20:03:46Z</time>
  <course>180.24</course>
  <speed>12.070414243098702</speed>
  <fix>3d</fix>
</trkpt>
<trkpt lat="-27.2738962" lon="151.2900696">
  <ele>358.18</ele>
  <time>2026-09-01T20:03:46Z</time>
  <course>180.36</course>
  <speed>12.11</speed>
  <fix>3d</fix>
</trkpt>
<trkpt lat="-27.2739275" lon="151.2900691">
  <ele>358.15</ele>
  <time>2026-09-01T20:03:46Z</time>
  <course>180.25</course>
  <speed>12.060414586572056</speed>
  <fix>3d</fix>
</trkpt>
<trkpt lat="-27.2738962" lon="151.2900696">
  <ele>358.18</ele>
  <time>2026-09-01T20:03:46Z</time>
  <course>180.36</course>
  <speed>12.11</speed>
  <fix>3d</fix>
</trkpt>
<trkpt lat="-27.2739384" lon="151.290069">
  <ele>358.15</ele>
  <time>2026-09-01T20:03:46Z</time>
  <course>180.25</course>
  <speed>12.060501647941514</speed>
  <fix>3d</fix>
</trkpt>
<trkpt lat="-27.2739181" lon="151.2900694">
  <ele>358.17</ele>
  <time>2026-09-01T20:03:46Z</time>
  <course>180.37</course>
  <speed>12.11</speed>
  <fix>3d</fix>
</trkpt>
<trkpt lat="-27.2739492" lon="151.2900689">
  <ele>358.14</ele>
  <time>2026-09-01T20:03:46Z</time>
  <course>180.26</course>
  <speed>12.060501647941514</speed>
  <fix>3d</fix>
</trkpt>
<trkpt lat="-27.2739181" lon="151.2900694">
  <ele>358.17</ele>
  <time>2026-09-01T20:03:46Z</time>
  <course>180.37</course>
  <speed>12.11</speed>
  <fix>3d</fix>
</trkpt>
<trkpt lat="-27.2739601" lon="151.2900689">
  <ele>358.14</ele>
  <time>2026-09-01T20:03:46Z</time>
  <course>180.27</course>
  <speed>12.050502064229523</speed>
  <fix>3d</fix>
</trkpt>
<trkpt lat="-27.2739398" lon="151.2900693">
  <ele>358.17</ele>
  <time>2026-09-01T20:03:46Z</time>
  <course>180.38</course>
  <speed>12.11</speed>
  <fix>3d</fix>
</trkpt>
<trkpt lat="-27.273971" lon="151.2900688">
  <ele>358.15</ele>
  <time>2026-09-01T20:03:46Z</time>
  <course>180.29</course>
  <speed>12.040502481208996</speed>
  <fix>3d</fix>
</trkpt>
<trkpt lat="-27.2739398" lon="151.2900693">
  <ele>358.17</ele>
  <time>2026-09-01T20:03:46Z</time>
  <course>180.38</course>
  <speed>12.11</speed>
  <fix>3d</fix>
</trkpt>
<trkpt lat="-27.2739818" lon="151.2900687">
  <ele>358.15</ele>
  <time>2026-09-01T20:03:46Z</time>
  <course>180.3</course>
  <speed>12.010503736313478</speed>
  <fix>3d</fix>
</trkpt>
<trkpt lat="-27.2739616" lon="151.2900692">
  <ele>358.17</ele>
  <time>2026-09-01T20:03:46Z</time>
  <course>180.39</course>
  <speed>12.1</speed>
  <fix>3d</fix>
</trkpt>
<trkpt lat="-27.2739926" lon="151.2900686">
  <ele>358.16</ele>
  <time>2026-09-01T20:03:46Z</time>
  <course>180.31</course>
  <speed>11.970505419571891</speed>
  <fix>3d</fix>
</trkpt>
<trkpt lat="-27.2739616" lon="151.2900692">
  <ele>358.17</ele>
  <time>2026-09-01T20:03:46Z</time>
  <course>180.39</course>
  <speed>12.1</speed>
  <fix>3d</fix>
</trkpt>
<trkpt lat="-27.2740034" lon="151.2900685">
  <ele>358.19</ele>
  <time>2026-09-01T20:03:46Z</time>
  <course>180.33</course>
  <speed>11.910507965657887</speed>
  <fix>3d</fix>
</trkpt>
<trkpt lat="-27.2739833" lon="151.290069">
  <ele>358.18</ele>
  <time>2026-09-01T20:03:46Z</time>
  <course>180.41</course>
  <speed>12.05</speed>
  <fix>3d</fix>
</trkpt>
<trkpt lat="-27.2740141" lon="151.2900685">
  <ele>358.21</ele>
  <time>2026-09-01T20:03:46Z</time>
  <course>180.34</course>
  <speed>11.840510968704011</speed>
  <fix>3d</fix>
</trkpt>
<trkpt lat="-27.2739833" lon="151.290069">
  <ele>358.18</ele>
  <time>2026-09-01T20:03:46Z</time>
  <course>180.41</course>
  <speed>12.05</speed>
  <fix>3d</fix>
</trkpt>
<trkpt lat="-27.2740247" lon="151.2900684">
  <ele>358.24</ele>
  <time>2026-09-01T20:03:46Z</time>
  <course>180.36</course>
  <speed>11.760514444530052</speed>
  <fix>3d</fix>
</trkpt>
<trkpt lat="-27.2740049" lon="151.2900688">
  <ele>358.21</ele>
  <time>2026-09-01T20:03:46Z</time>
  <course>180.42</course>
  <speed>11.96</speed>
  <fix>3d</fix>
</trkpt>
<trkpt lat="-27.2740353" lon="151.2900683">
  <ele>358.28</ele>
  <time>2026-09-01T20:03:46Z</time>
  <course>180.38</course>
  <speed>11.670518411793026</speed>
  <fix>3d</fix>
</trkpt>
<trkpt lat="-27.2740049" lon="151.2900688">
  <ele>358.21</ele>
  <time>2026-09-01T20:03:46Z</time>
  <course>180.42</course>
  <speed>11.96</speed>
  <fix>3d</fix>
</trkpt>
<trkpt lat="-27.2740458" lon="151.2900682">
  <ele>358.32</ele>
  <time>2026-09-01T20:03:46Z</time>
  <course>180.4</course>
  <speed>11.570522892246485</speed>
  <fix>3d</fix>
</trkpt>
<trkpt lat="-27.2740263" lon="151.2900685">
  <ele>358.26</ele>
  <time>2026-09-01T20:03:46Z</time>
  <course>180.44</course>
  <speed>11.81</speed>
  <fix>3d</fix>
</trkpt>
<trkpt lat="-27.2740562" lon="151.2900681">
  <ele>358.36</ele>
  <time>2026-09-01T20:03:46Z</time>
  <course>180.42</course>
  <speed>11.460527911051916</speed>
  <fix>3d</fix>
</trkpt>
<trkpt lat="-27.2740263" lon="151.2900685">
  <ele>358.26</ele>
  <time>2026-09-01T20:03:46Z</time>
  <course>180.44</course>
  <speed>11.81</speed>
  <fix>3d</fix>
</trkpt>
<trkpt lat="-27.2740665" lon="151.290068">
  <ele>358.39</ele>
  <time>2026-09-01T20:03:46Z</time>
  <course>180.44</course>
  <speed>11.35053302713137</speed>
  <fix>3d</fix>
</trkpt>
<trkpt lat="-27.2740473" lon="151.2900684">
  <ele>358.34</ele>
  <time>2026-09-01T20:03:46Z</time>
  <course>180.46</course>
  <speed>11.61</speed>
  <fix>3d</fix>
</trkpt>
<trkpt lat="-27.2740766" lon="151.2900679">
  <ele>358.42</ele>
  <time>2026-09-01T20:03:46Z</time>
  <course>180.46</course>
  <speed>11.240538243340486</speed>
  <fix>3d</fix>
</trkpt>
<trkpt lat="-27.2740473" lon="151.2900684">
  <ele>358.34</ele>
  <time>2026-09-01T20:03:46Z</time>
  <course>180.46</course>
  <speed>11.61</speed>
  <fix>3d</fix>
</trkpt>
<trkpt lat="-27.2740867" lon="151.2900678">
  <ele>358.45</ele>
  <time>2026-09-01T20:03:46Z</time>
  <course>180.48</course>
  <speed>11.130543562647784</speed>
  <fix>3d</fix>
</trkpt>
<trkpt lat="-27.274068" lon="151.2900682">
  <ele>358.41</ele>
  <time>2026-09-01T20:03:46Z</time>
  <course>180.47</course>
  <speed>11.4</speed>
  <fix>3d</fix>
</trkpt>
<trkpt lat="-27.2740966" lon="151.2900677">
  <ele>358.47</ele>
  <time>2026-09-01T20:03:46Z</time>
  <course>180.51</course>
  <speed>11.01054948674225</speed>
  <fix>3d</fix>
</trkpt>
<trkpt lat="-27.274068" lon="151.2900682">
  <ele>358.41</ele>
  <time>2026-09-01T20:03:46Z</time>
  <course>180.47</course>
  <speed>11.4</speed>
  <fix>3d</fix>
</trkpt>
<trkpt lat="-27.2741066" lon="151.2900677">
  <ele>358.49</ele>
  <time>2026-09-01T20:03:46Z</time>
  <course>180.53</course>
  <speed>10.900555031740357</speed>
  <fix>3d</fix>
</trkpt>
<trkpt lat="-27.2740883" lon="151.290068">
  <ele>358.47</ele>
  <time>2026-09-01T20:03:46Z</time>
  <course>180.49</course>
  <speed>11.17</speed>
  <fix>3d</fix>
</trkpt>
<trkpt lat="-27.2741163" lon="151.2900676">
  <ele>358.51</ele>
  <time>2026-09-01T20:03:46Z</time>
  <course>180.55</course>
  <speed>10.790560689788089</speed>
  <fix>3d</fix>
</trkpt>
<trkpt lat="-27.2740883" lon="151.290068">
  <ele>358.47</ele>
  <time>2026-09-01T20:03:46Z</time>
  <course>180.49</course>
  <speed>11.17</speed>
  <fix>3d</fix>
</trkpt>
<trkpt lat="-27.2741261" lon="151.2900675">
  <ele>358.52</ele>
  <time>2026-09-01T20:03:46Z</time>
  <course>180.58</course>
  <speed>10.68056646437819</speed>
  <fix>3d</fix>
</trkpt>
<trkpt lat="-27.2741081" lon="151.2900679">
  <ele>358.52</ele>
  <time>2026-09-01T20:03:46Z</time>
  <course>180.51</course>
  <speed>10.95</speed>
  <fix>3d</fix>
</trkpt>
<trkpt lat="-27.2741357" lon="151.2900674">
  <ele>358.52</ele>
  <time>2026-09-01T20:03:46Z</time>
  <course>180.6</course>
  <speed>10.570572359148771</speed>
  <fix>3d</fix>
</trkpt>
<trkpt lat="-27.2741081" lon="151.2900679">
  <ele>358.52</ele>
  <time>2026-09-01T20:03:46Z</time>
  <course>180.51</course>
  <speed>10.95</speed>
  <fix>3d</fix>
</trkpt>
<trkpt lat="-27.2741452" lon="151.2900673">
  <ele>358.52</ele>
  <time>2026-09-01T20:03:46Z</time>
  <course>180.63</course>
  <speed>10.460578377890965</speed>
  <fix>3d</fix>
</trkpt>
<trkpt lat="-27.2741276" lon="151.2900677">
  <ele>358.54</ele>
  <time>2026-09-01T20:03:46Z</time>
  <course>180.53</course>
  <speed>10.72</speed>
  <fix>3d</fix>
</trkpt>
<trkpt lat="-27.2741547" lon="151.2900672">
  <ele>358.51</ele>
  <time>2026-09-01T20:03:46Z</time>
  <course>180.65</course>
  <speed>10.350584524557055</speed>
  <fix>3d</fix>
</trkpt>
<trkpt lat="-27.2741276" lon="151.2900677">
  <ele>358.54</ele>
  <time>2026-09-01T20:03:46Z</time>
  <course>180.53</course>
  <speed>10.72</speed>
  <fix>3d</fix>
</trkpt>
<trkpt lat="-27.274164" lon="151.2900671">
  <ele>358.51</ele>
  <time>2026-09-01T20:03:46Z</time>
  <course>180.68</course>
  <speed>10.240590803269114</speed>
  <fix>3d</fix>
</trkpt>
<trkpt lat="-27.2741467" lon="151.2900675">
  <ele>358.55</ele>
  <time>2026-09-01T20:03:46Z</time>
  <course>180.56</course>
  <speed>10.5</speed>
  <fix>3d</fix>
</trkpt>
<trkpt lat="-27.2741732" lon="151.290067">
  <ele>358.49</ele>
  <time>2026-09-01T20:03:46Z</time>
  <course>180.71</course>
  <speed>10.130597218328246</speed>
  <fix>3d</fix>
</trkpt>
<trkpt lat="-27.2741467" lon="151.2900675">
  <ele>358.55</ele>
  <time>2026-09-01T20:03:46Z</time>
  <course>180.56</course>
  <speed>10.5</speed>
  <fix>3d</fix>
</trkpt>
<trkpt lat="-27.2741823" lon="151.2900669">
  <ele>358.48</ele>
  <time>2026-09-01T20:03:46Z</time>
  <course>180.74</course>
  <speed>10.01060437735904</speed>
  <fix>3d</fix>
</trkpt>
<trkpt lat="-27.2741653" lon="151.2900672">
  <ele>358.53</ele>
  <time>2026-09-01T20:03:46Z</time>
  <course>180.59</course>
  <speed>10.27</speed>
  <fix>3d</fix>
</trkpt>
<trkpt lat="-27.2741913" lon="151.2900668">
  <ele>358.47</ele>
  <time>2026-09-01T20:03:46Z</time>
  <course>180.77</course>
  <speed>9.900727246015819</speed>
  <fix>3d</fix>
</trkpt>
<trkpt lat="-27.2741653" lon="151.2900672">
  <ele>358.53</ele>
  <time>2026-09-01T20:03:46Z</time>
  <course>180.59</course>
  <speed>10.27</speed>
  <fix>3d</fix>
</trkpt>
<trkpt lat="-27.2742002" lon="151.2900667">
  <ele>358.46</ele>
  <time>2026-09-01T20:03:46Z</time>
  <course>180.8</course>
  <speed>9.780736168612258</speed>
  <fix>3d</fix>
</trkpt>
<trkpt lat="-27.2741836" lon="151.290067">
  <ele>358.52</ele>
  <time>2026-09-01T20:03:46Z</time>
  <course>180.62</course>
  <speed>10.05</speed>
  <fix>3d</fix>
</trkpt>
<trkpt lat="-27.274209" lon="151.2900666">
  <ele>358.45</ele>
  <time>2026-09-01T20:03:46Z</time>
  <course>180.83</course>
  <speed>9.67074454217461</speed>
  <fix>3d</fix>
</trkpt>
<trkpt lat="-27.2741836" lon="151.290067">
  <ele>358.52</ele>
  <time>2026-09-01T20:03:46Z</time>
  <course>180.62</course>
  <speed>10.05</speed>
  <fix>3d</fix>
</trkpt>
<trkpt lat="-27.2742177" lon="151.2900665">
  <ele>358.44</ele>
  <time>2026-09-01T20:03:46Z</time>
  <course>180.86</course>
  <speed>9.550753896944471</speed>
  <fix>3d</fix>
</trkpt>
<trkpt lat="-27.2742015" lon="151.2900667">
  <ele>358.49</ele>
  <time>2026-09-01T20:03:46Z</time>
  <course>180.65</course>
  <speed>9.81</speed>
  <fix>3d</fix>
</trkpt>
<trkpt lat="-27.2742263" lon="151.2900663">
  <ele>358.43</ele>
  <time>2026-09-01T20:03:46Z</time>
  <course>180.9</course>
  <speed>9.430763489771122</speed>
  <fix>3d</fix>
</trkpt>
<trkpt lat="-27.2742015" lon="151.2900667">
  <ele>358.49</ele>
  <time>2026-09-01T20:03:46Z</time>
  <course>180.65</course>
  <speed>9.81</speed>
  <fix>3d</fix>
</trkpt>
<trkpt lat="-27.2742347" lon="151.2900662">
  <ele>358.42</ele>
  <time>2026-09-01T20:03:46Z</time>
  <course>180.94</course>
  <speed>9.310773329858268</speed>
  <fix>3d</fix>
</trkpt>
<trkpt lat="-27.2742189" lon="151.2900666">
  <ele>358.47</ele>
  <time>2026-09-01T20:03:46Z</time>
  <course>180.69</course>
  <speed>9.57</speed>
  <fix>3d</fix>
</trkpt>
<trkpt lat="-27.2742431" lon="151.2900661">
  <ele>358.41</ele>
  <time>2026-09-01T20:03:46Z</time>
  <course>180.98</course>
  <speed>9.180920433159194</speed>
  <fix>3d</fix>
</trkpt>
<trkpt lat="-27.2742189" lon="151.2900666">
  <ele>358.47</ele>
  <time>2026-09-01T20:03:46Z</time>
  <course>180.69</course>
  <speed>9.57</speed>
  <fix>3d</fix>
</trkpt>
<trkpt lat="-27.2742513" lon="151.290066">
  <ele>358.39</ele>
  <time>2026-09-01T20:03:46Z</time>
  <course>181.02</course>
  <speed>9.060932623080253</speed>
  <fix>3d</fix>
</trkpt>
<trkpt lat="-27.2742359" lon="151.2900663">
  <ele>358.44</ele>
  <time>2026-09-01T20:03:46Z</time>
  <course>180.72</course>
  <speed>9.33</speed>
  <fix>3d</fix>
</trkpt>
<trkpt lat="-27.2742595" lon="151.2900659">
  <ele>358.38</ele>
  <time>2026-09-01T20:03:46Z</time>
  <course>181.07</course>
  <speed>8.930946198471919</speed>
  <fix>3d</fix>
</trkpt>
<trkpt lat="-27.2742359" lon="151.2900663">
  <ele>358.44</ele>
  <time>2026-09-01T20:03:46Z</time>
  <course>180.72</course>
  <speed>9.33</speed>
  <fix>3d</fix>
</trkpt>
<trkpt lat="-27.2742675" lon="151.2900658">
  <ele>358.37</ele>
  <time>2026-09-01T20:03:46Z</time>
  <course>181.12</course>
  <speed>8.80096017489001</speed>
  <fix>3d</fix>
</trkpt>
<trkpt lat="-27.2742524" lon="151.2900661">
  <ele>358.41</ele>
  <time>2026-09-01T20:03:46Z</time>
  <course>180.77</course>
  <speed>9.07</speed>
  <fix>3d</fix>
</trkpt>
<trkpt lat="-27.2742753" lon="151.2900656">
  <ele>358.36</ele>
  <time>2026-09-01T20:03:46Z</time>
  <course>181.17</course>
  <speed>8.670974570369815</speed>
  <fix>3d</fix>
</trkpt>
<trkpt lat="-27.2742524" lon="151.2900661">
  <ele>358.41</ele>
  <time>2026-09-01T20:03:46Z</time>
  <course>180.77</course>
  <speed>9.07</speed>
  <fix>3d</fix>
</trkpt>
<trkpt lat="-27.2742831" lon="151.2900655">
  <ele>358.35</ele>
  <time>2026-09-01T20:03:46Z</time>
  <course>181.23</course>
  <speed>8.540989404044474</speed>
  <fix>3d</fix>
</trkpt>
<trkpt lat="-27.2742685" lon="151.2900658">
  <ele>358.4</ele>
  <time>2026-09-01T20:03:46Z</time>
  <course>180.81</course>
  <speed>8.81</speed>
  <fix>3d</fix>
</trkpt>
<trkpt lat="-27.2742907" lon="151.2900654">
  <ele>358.34</ele>
  <time>2026-09-01T20:03:46Z</time>
  <course>181.29</course>
  <speed>8.4011665856594</speed>
  <fix>3d</fix>
</trkpt>
<trkpt lat="-27.2742685" lon="151.2900658">
  <ele>358.4</ele>
  <time>2026-09-01T20:03:46Z</time>
  <course>180.81</course>
  <speed>8.81</speed>
  <fix>3d</fix>
</trkpt>
<trkpt lat="-27.2742982" lon="151.2900652">
  <ele>358.33</ele>
  <time>2026-09-01T20:03:46Z</time>
  <course>181.35</course>
  <speed>8.26118635548188</speed>
  <fix>3d</fix>
</trkpt>
<trkpt lat="-27.2742841" lon="151.2900656">
  <ele>358.38</ele>
  <time>2026-09-01T20:03:46Z</time>
  <course>180.86</course>
  <speed>8.55</speed>
  <fix>3d</fix>
</trkpt>
<trkpt lat="-27.2743057" lon="151.2900651">
  <ele>358.33</ele>
  <time>2026-09-01T20:03:46Z</time>
  <course>181.41</course>
  <speed>8.121206806872978</speed>
  <fix>3d</fix>
</trkpt>
<trkpt lat="-27.2742841" lon="151.2900656">
  <ele>358.38</ele>
  <time>2026-09-01T20:03:46Z</time>
  <course>180.86</course>
  <speed>8.55</speed>
  <fix>3d</fix>
</trkpt>
<trkpt lat="-27.274313" lon="151.290065">
  <ele>358.32</ele>
  <time>2026-09-01T20:03:46Z</time>
  <course>181.46</course>
  <speed>7.971229516203883</speed>
  <fix>3d</fix>
</trkpt>
<trkpt lat="-27.2742992" lon="151.2900653">
  <ele>358.36</ele>
  <time>2026-09-01T20:03:46Z</time>
  <course>180.92</course>
  <speed>8.27</speed>
  <fix>3d</fix>
</trkpt>
<trkpt lat="-27.2743201" lon="151.2900648">
  <ele>358.31</ele>
  <time>2026-09-01T20:03:46Z</time>
  <course>181.51</course>
  <speed>7.831251496408477</speed>
  <fix>3d</fix>
</trkpt>
<trkpt lat="-27.2742992" lon="151.2900653">
  <ele>358.36</ele>
  <time>2026-09-01T20:03:46Z</time>
  <course>180.92</course>
  <speed>8.27</speed>
  <fix>3d</fix>
</trkpt>
<trkpt lat="-27.2743271" lon="151.2900647">
  <ele>358.3</ele>
  <time>2026-09-01T20:03:46Z</time>
  <course>181.55</course>
  <speed>7.6914627997540235</speed>
  <fix>3d</fix>
</trkpt>
<trkpt lat="-27.2743138" lon="151.290065">
  <ele>358.34</ele>
  <time>2026-09-01T20:03:46Z</time>
  <course>180.99</course>
  <speed>7.98</speed>
  <fix>3d</fix>
</trkpt>
<trkpt lat="-27.274334" lon="151.2900646">
  <ele>358.29</ele>
  <time>2026-09-01T20:03:46Z</time>
  <course>181.59</course>
  <speed>7.551489919214618</speed>
  <fix>3d</fix>
</trkpt>
<trkpt lat="-27.2743138" lon="151.290065">
  <ele>358.34</ele>
  <time>2026-09-01T20:03:46Z</time>
  <course>180.99</course>
  <speed>7.98</speed>
  <fix>3d</fix>
</trkpt>
<trkpt lat="-27.2743407" lon="151.2900644">
  <ele>358.27</ele>
  <time>2026-09-01T20:03:46Z</time>
  <course>181.62</course>
  <speed>7.421516017634133</speed>
  <fix>3d</fix>
</trkpt>
<trkpt lat="-27.2743279" lon="151.2900647">
  <ele>358.32</ele>
  <time>2026-09-01T20:03:46Z</time>
  <course>181.06</course>
  <speed>7.7</speed>
  <fix>3d</fix>
</trkpt>
<trkpt lat="-27.2743474" lon="151.2900643">
  <ele>358.24</ele>
  <time>2026-09-01T20:03:46Z</time>
  <course>181.64</course>
  <speed>7.291543046571144</speed>
  <fix>3d</fix>
</trkpt>
<trkpt lat="-27.2743279" lon="151.2900647">
  <ele>358.32</ele>
  <time>2026-09-01T20:03:46Z</time>
  <course>181.06</course>
  <speed>7.7</speed>
  <fix>3d</fix>
</trkpt>
<trkpt lat="-27.2743539" lon="151.2900641">
  <ele>358.21</ele>
  <time>2026-09-01T20:03:46Z</time>
  <course>181.64</course>
  <speed>7.16157105668861</speed>
  <fix>3d</fix>
</trkpt>
<trkpt lat="-27.2743415" lon="151.2900644">
  <ele>358.28</ele>
  <time>2026-09-01T20:03:46Z</time>
  <course>181.12</course>
  <speed>7.43</speed>
  <fix>3d</fix>
</trkpt>
<trkpt lat="-27.2743603" lon="151.2900639">
  <ele>358.17</ele>
  <time>2026-09-01T20:03:46Z</time>
  <course>181.61</course>
  <speed>7.031600102394902</speed>
  <fix>3d</fix>
</trkpt>
<trkpt lat="-27.2743415" lon="151.2900644">
  <ele>358.28</ele>
  <time>2026-09-01T20:03:46Z</time>
  <course>181.12</course>
  <speed>7.43</speed>
  <fix>3d</fix>
</trkpt>
<trkpt lat="-27.2743666" lon="151.2900638">
  <ele>358.14</ele>
  <time>2026-09-01T20:03:46Z</time>
  <course>181.55</course>
  <speed>6.901630242196404</speed>
  <fix>3d</fix>
</trkpt>
<trkpt lat="-27.2743546" lon="151.2900641">
  <ele>358.23</ele>
  <time>2026-09-01T20:03:46Z</time>
  <course>181.17</course>
  <speed>7.17</speed>
  <fix>3d</fix>
</trkpt>
<trkpt lat="-27.2743728" lon="151.2900636">
  <ele>358.1</ele>
  <time>2026-09-01T20:03:46Z</time>
  <course>181.47</course>
  <speed>6.751666460956139</speed>
  <fix>3d</fix>
</trkpt>
<trkpt lat="-27.2743546" lon="151.2900641">
  <ele>358.23</ele>
  <time>2026-09-01T20:03:46Z</time>
  <course>181.17</course>
  <speed>7.17</speed>
  <fix>3d</fix>
</trkpt>
<trkpt lat="-27.2743788" lon="151.2900635">
  <ele>358.07</ele>
  <time>2026-09-01T20:03:46Z</time>
  <course>181.38</course>
  <speed>6.581709504376504</speed>
  <fix>3d</fix>
</trkpt>
<trkpt lat="-27.2743673" lon="151.2900638">
  <ele>358.16</ele>
  <time>2026-09-01T20:03:46Z</time>
  <course>181.2</course>
  <speed>6.89</speed>
  <fix>3d</fix>
</trkpt>
<trkpt lat="-27.2743846" lon="151.2900634">
  <ele>358.04</ele>
  <time>2026-09-01T20:03:46Z</time>
  <course>181.27</course>
  <speed>6.3915334623234195</speed>
  <fix>3d</fix>
</trkpt>
<trkpt lat="-27.2743673" lon="151.2900638">
  <ele>358.16</ele>
  <time>2026-09-01T20:03:46Z</time>
  <course>181.2</course>
  <speed>6.89</speed>
  <fix>3d</fix>
</trkpt>
<trkpt lat="-27.2743903" lon="151.2900632">
  <ele>358.01</ele>
  <time>2026-09-01T20:03:46Z</time>
  <course>181.15</course>
  <speed>6.181367162691438</speed>
  <fix>3d</fix>
</trkpt>
<trkpt lat="-27.2743794" lon="151.2900635">
  <ele>358.09</ele>
  <time>2026-09-01T20:03:46Z</time>
  <course>181.2</course>
  <speed>6.58</speed>
  <fix>3d</fix>
</trkpt>
<trkpt lat="-27.2743958" lon="151.2900631">
  <ele>357.98</ele>
  <time>2026-09-01T20:03:46Z</time>
  <course>181.04</course>
  <speed>5.941422388620421</speed>
  <fix>3d</fix>
</trkpt>
<trkpt lat="-27.2743794" lon="151.2900635">
  <ele>358.09</ele>
  <time>2026-09-01T20:03:46Z</time>
  <course>181.2</course>
  <speed>6.58</speed>
  <fix>3d</fix>
</trkpt>
<trkpt lat="-27.274401" lon="151.290063">
  <ele>357.94</ele>
  <time>2026-09-01T20:03:46Z</time>
  <course>180.92</course>
  <speed>5.611283275686588</speed>
  <fix>3d</fix>
</trkpt>
<trkpt lat="-27.2743908" lon="151.2900632">
  <ele>358.03</ele>
  <time>2026-09-01T20:03:46Z</time>
  <course>181.17</course>
  <speed>6.17</speed>
  <fix>3d</fix>
</trkpt>
<trkpt lat="-27.2744058" lon="151.2900629">
  <ele>357.86</ele>
  <time>2026-09-01T20:03:46Z</time>
  <course>180.79</course>
  <speed>5.140972670613996</speed>
  <fix>3d</fix>
</trkpt>
<trkpt lat="-27.2743908" lon="151.2900632">
  <ele>358.03</ele>
  <time>2026-09-01T20:03:46Z</time>
  <course>181.17</course>
  <speed>6.17</speed>
  <fix>3d</fix>
</trkpt>
<trkpt lat="-27.2744102" lon="151.2900628">
  <ele>357.76</ele>
  <time>2026-09-01T20:03:46Z</time>
  <course>180.65</course>
  <speed>4.590882268148466</speed>
  <fix>3d</fix>
</trkpt>
<trkpt lat="-27.2744014" lon="151.2900631">
  <ele>357.95</ele>
  <time>2026-09-01T20:03:46Z</time>
  <course>181.14</course>
  <speed>5.55</speed>
  <fix>3d</fix>
</trkpt>
<trkpt lat="-27.2744141" lon="151.2900627">
  <ele>357.66</ele>
  <time>2026-09-01T20:03:46Z</time>
  <course>180.51</course>
  <speed>4.000612453112648</speed>
  <fix>3d</fix>
</trkpt>
<trkpt lat="-27.2744014" lon="151.2900631">
  <ele>357.95</ele>
  <time>2026-09-01T20:03:46Z</time>
  <course>181.14</course>
  <speed>5.55</speed>
  <fix>3d</fix>
</trkpt>
<trkpt lat="-27.2744174" lon="151.2900626">
  <ele>357.57</ele>
  <time>2026-09-01T20:03:46Z</time>
  <course>180.38</course>
  <speed>3.4005293705539437</speed>
  <fix>3d</fix>
</trkpt>
<trkpt lat="-27.2744105" lon="151.2900629">
  <ele>357.79</ele>
  <time>2026-09-01T20:03:46Z</time>
  <course>181.15</course>
  <speed>4.59</speed>
  <fix>3d</fix>
</trkpt>
<trkpt lat="-27.2744202" lon="151.2900626">
  <ele>357.48</ele>
  <time>2026-09-01T20:03:46Z</time>
  <course>180.27</course>
  <speed>2.8302826713952087</speed>
  <fix>3d</fix>
</trkpt>
<trkpt lat="-27.2744105" lon="151.2900629">
  <ele>357.79</ele>
  <time>2026-09-01T20:03:46Z</time>
  <course>181.15</course>
  <speed>4.59</speed>
  <fix>3d</fix>
</trkpt>
<trkpt lat="-27.2744226" lon="151.2900626">
  <ele>357.42</ele>
  <time>2026-09-01T20:03:46Z</time>
  <course>180.18</course>
  <speed>2.290087334579186</speed>
  <fix>3d</fix>
</trkpt>
<trkpt lat="-27.2744178" lon="151.2900627">
  <ele>357.6</ele>
  <time>2026-09-01T20:03:46Z</time>
  <course>181.14</course>
  <speed>3.43</speed>
  <fix>3d</fix>
</trkpt>
<trkpt lat="-27.2744244" lon="151.2900626">
  <ele>357.37</ele>
  <time>2026-09-01T20:03:46Z</time>
  <course>180.11</course>
  <speed>1.8100276240985937</speed>
  <fix>3d</fix>
</trkpt>
<trkpt lat="-27.2744178" lon="151.2900627">
  <ele>357.6</ele>
  <time>2026-09-01T20:03:46Z</time>
  <course>181.14</course>
  <speed>3.43</speed>
  <fix>3d</fix>
</trkpt>
<trkpt lat="-27.2744259" lon="151.2900626">
  <ele>357.34</ele>
  <time>2026-09-01T20:03:46Z</time>
  <course>180.06</course>
  <speed>1.37</speed>
  <fix>3d</fix>
</trkpt>
<trkpt lat="-27.274423" lon="151.2900626">
  <ele>357.45</ele>
  <time>2026-09-01T20:03:46Z</time>
  <course>181.07</course>
  <speed>2.34</speed>
  <fix>3d</fix>
</trkpt>
<trkpt lat="-27.274427" lon="151.2900626">
  <ele>357.33</ele>
  <time>2026-09-01T20:03:46Z</time>
  <course>180.02</course>
  <speed>1.0000499987500624</speed>
  <fix>3d</fix>
</trkpt>
<trkpt lat="-27.274423" lon="151.2900626">
  <ele>357.45</ele>
  <time>2026-09-01T20:03:46Z</time>
  <course>181.07</course>
  <speed>2.34</speed>
  <fix>3d</fix>
</trkpt>
<trkpt lat="-27.2744278" lon="151.2900626">
  <ele>357.33</ele>
  <time>2026-09-01T20:03:46Z</time>
  <course>180.01</course>
  <speed>0.6902897942168927</speed>
  <fix>3d</fix>
</trkpt>
<trkpt lat="-27.2744263" lon="151.2900625">
  <ele>357.38</ele>
  <time>2026-09-01T20:03:46Z</time>
  <course>180.77</course>
  <speed>1.41</speed>
  <fix>3d</fix>
</trkpt>
<trkpt lat="-27.2744283" lon="151.2900626">
  <ele>357.34</ele>
  <time>2026-09-01T20:03:46Z</time>
  <course>180.01</course>
  <speed>0.4204759208325728</speed>
  <fix>3d</fix>
</trkpt>
<trkpt lat="-27.2744263" lon="151.2900625">
  <ele>357.38</ele>
  <time>2026-09-01T20:03:46Z</time>
  <course>180.77</course>
  <speed>1.41</speed>
  <fix>3d</fix>
</trkpt>
<trkpt lat="-27.2744286" lon="151.2900626">
  <ele>357.35</ele>
  <time>2026-09-01T20:03:46Z</time>
  <course>180.02</course>
  <speed>0.19235384061671343</speed>
  <fix>3d</fix>
</trkpt>
<trkpt lat="-27.2744282" lon="151.2900625">
  <ele>357.36</ele>
  <time>2026-09-01T20:03:46Z</time>
  <course>179.83</course>
  <speed>0.71</speed>
  <fix>3d</fix>
</trkpt>
<trkpt lat="-27.2744287" lon="151.2900627">
  <ele>357.35</ele>
  <time>2026-09-01T20:03:46Z</time>
  <course>180.05</course>
  <speed>0.04</speed>
  <fix>3d</fix>
</trkpt>
<trkpt lat="-27.2744282" lon="151.2900625">
  <ele>357.36</ele>
  <time>2026-09-01T20:03:46Z</time>
  <course>179.83</course>
  <speed>0.71</speed>
  <fix>3d</fix>
</trkpt>
<trkpt lat="-27.2744287" lon="151.2900627">
  <ele>357.35</ele>
  <time>2026-09-01T20:03:46Z</time>
  <course>180.08</course>
  <speed>0.1649242250247064</speed>
  <fix>3d</fix>
</trkpt>
<trkpt lat="-27.274429" lon="151.2900625">
  <ele>357.38</ele>
  <time>2026-09-01T20:03:46Z</time>
  <course>174.71</course>
  <speed>0.2</speed>
  <fix>3d</fix>
</trkpt>
<trkpt lat="-27.2744286" lon="151.2900626">
  <ele>357.33</ele>
  <time>2026-09-01T20:03:46Z</time>
  <course>180.09</course>
  <speed>0.29274562336608895</speed>
  <fix>3d</fix>
</trkpt>
<trkpt lat="-27.274429" lon="151.2900625">
  <ele>357.38</ele>
  <time>2026-09-01T20:03:47Z</time>
  <course>174.71</course>
  <speed>0.2</speed>
  <fix>3d</fix>
</trkpt>
<trkpt lat="-27.2744284" lon="151.2900627">
  <ele>357.29</ele>
  <time>2026-09-01T20:03:47Z</time>
  <course>180.06</course>
  <speed>0.3920459156782532</speed>
  <fix>3d</fix>
</trkpt>
<trkpt lat="-27.274429" lon="151.2900626">
  <ele>357.37</ele>
  <time>2026-09-01T20:03:47Z</time>
  <course>10.85</course>
  <speed>0.16</speed>
  <fix>3d</fix>
</trkpt>
<trkpt lat="-27.274428" lon="151.2900627">
  <ele>357.24</ele>
  <time>2026-09-01T20:03:47Z</time>
  <course>179.94</course>
  <speed>0.4709564735726646</speed>
  <fix>3d</fix>
</trkpt>
<trkpt lat="-27.274429" lon="151.2900626">
  <ele>357.37</ele>
  <time>2026-09-01T20:03:47Z</time>
  <course>10.85</course>
  <speed>0.16</speed>
  <fix>3d</fix>
</trkpt>
<trkpt lat="-27.2744276" lon="151.2900627">
  <ele>357.16</ele>
  <time>2026-09-01T20:03:47Z</time>
  <course>179.69</course>
  <speed>0.5203844732503076</speed>
  <fix>3d</fix>
</trkpt>
<trkpt lat="-27.2744285" lon="151.2900626">
  <ele>357.31</ele>
  <time>2026-09-01T20:03:47Z</time>
  <course>4.79</course>
  <speed>0.4</speed>
  <fix>3d</fix>
</trkpt>
<trkpt lat="-27.2744271" lon="151.2900627">
  <ele>357.07</ele>
  <time>2026-09-01T20:03:47Z</time>
  <course>179.3</course>
  <speed>0.56</speed>
  <fix>3d</fix>
</trkpt>
<trkpt lat="-27.2744285" lon="151.2900626">
  <ele>357.31</ele>
  <time>2026-09-01T20:03:47Z</time>
  <course>4.79</course>
  <speed>0.4</speed>
  <fix>3d</fix>
</trkpt>
<trkpt lat="-27.2744266" lon="151.2900627">
  <ele>356.97</ele>
  <time>2026-09-01T20:03:47Z</time>
  <course>178.77</course>
  <speed>0.570087712549569</speed>
  <fix>3d</fix>
</trkpt>
<trkpt lat="-27.2744276" lon="151.2900626">
  <ele>357.19</ele>
  <time>2026-09-01T20:03:47Z</time>
  <course>2.22</course>
  <speed>0.54</speed>
  <fix>3d</fix>
</trkpt>
<trkpt lat="-27.2744261" lon="151.2900627">
  <ele>356.85</ele>
  <time>2026-09-01T20:03:47Z</time>
  <course>178.11</course>
  <speed>0.5813776741499453</speed>
  <fix>3d</fix>
</trkpt>
<trkpt lat="-27.2744276" lon="151.2900626">
  <ele>357.19</ele>
  <time>2026-09-01T20:03:47Z</time>
  <course>2.22</course>
  <speed>0.54</speed>
  <fix>3d</fix>
</trkpt>
<trkpt lat="-27.2744256" lon="151.2900626">
  <ele>356.72</ele>
  <time>2026-09-01T20:03:47Z</time>
  <course>177.37</course>
  <speed>0.5731491952362839</speed>
  <fix>3d</fix>
</trkpt>
<trkpt lat="-27.2744267" lon="151.2900626">
  <ele>356.99</ele>
  <time>2026-09-01T20:03:47Z</time>
  <course>359.06</course>
  <speed>0.6</speed>
  <fix>3d</fix>
</trkpt>
<trkpt lat="-27.2744251" lon="151.2900626">
  <ele>356.58</ele>
  <time>2026-09-01T20:03:47Z</time>
  <course>176.71</course>
  <speed>0.5557877292636101</speed>
  <fix>3d</fix>
</trkpt>
<trkpt lat="-27.2744267" lon="151.2900626">
  <ele>356.99</ele>
  <time>2026-09-01T20:03:47Z</time>
  <course>359.06</course>
  <speed>0.6</speed>
  <fix>3d</fix>
</trkpt>
<trkpt lat="-27.2744246" lon="151.2900625">
  <ele>356.43</ele>
  <time>2026-09-01T20:03:47Z</time>
  <course>176.27</course>
  <speed>0.5375872022286245</speed>
  <fix>3d</fix>
</trkpt>
<trkpt lat="-27.2744256" lon="151.2900626">
  <ele>356.75</ele>
  <time>2026-09-01T20:03:47Z</time>
  <course>355.5</course>
  <speed>0.6</speed>
  <fix>3d</fix>
</trkpt>
<trkpt lat="-27.2744241" lon="151.2900624">
  <ele>356.28</ele>
  <time>2026-09-01T20:03:47Z</time>
  <course>176.08</course>
  <speed>0.5080354318352215</speed>
  <fix>3d</fix>
</trkpt>
<trkpt lat="-27.2744256" lon="151.2900626">
  <ele>356.75</ele>
  <time>2026-09-01T20:03:47Z</time>
  <course>355.5</course>
  <speed>0.6</speed>
  <fix>3d</fix>
</trkpt>
<trkpt lat="-27.2744237" lon="151.2900623">
  <ele>356.12</ele>
  <time>2026-09-01T20:03:47Z</time>
  <course>176.12</course>
  <speed>0.47853944456021597</speed>
  <fix>3d</fix>
</trkpt>
<trkpt lat="-27.2744245" lon="151.2900625">
  <ele>356.47</ele>
  <time>2026-09-01T20:03:47Z</time>
  <course>353.0</course>
  <speed>0.56</speed>
  <fix>3d</fix>
</trkpt>
<trkpt lat="-27.2744233" lon="151.2900622">
  <ele>355.96</ele>
  <time>2026-09-01T20:03:47Z</time>
  <course>176.36</course>
  <speed>0.4393176527297759</speed>
  <fix>3d</fix>
</trkpt>
<trkpt lat="-27.2744245" lon="151.2900625">
  <ele>356.47</ele>
  <time>2026-09-01T20:03:47Z</time>
  <course>353.0</course>
  <speed>0.56</speed>
  <fix>3d</fix>
</trkpt>
<trkpt lat="-27.2744229" lon="151.2900622">
  <ele>355.79</ele>
  <time>2026-09-01T20:03:47Z</time>
  <course>176.76</course>
  <speed>0.4079215610874228</speed>
  <fix>3d</fix>
</trkpt>
<trkpt lat="-27.2744236" lon="151.2900624">
  <ele>356.16</ele>
  <time>2026-09-01T20:03:47Z</time>
  <course>351.99</course>
  <speed>0.5</speed>
  <fix>3d</fix>
</trkpt>
<trkpt lat="-27.2744225" lon="151.2900621">
  <ele>355.63</ele>
  <time>2026-09-01T20:03:47Z</time>
  <course>177.26</course>
  <speed>0.3687817782917155</speed>
  <fix>3d</fix>
</trkpt>
<trkpt lat="-27.2744236" lon="151.2900624">
  <ele>356.16</ele>
  <time>2026-09-01T20:03:47Z</time>
  <course>351.99</course>
  <speed>0.5</speed>
  <fix>3d</fix>
</trkpt>
<trkpt lat="-27.2744222" lon="151.290062">
  <ele>355.46</ele>
  <time>2026-09-01T20:03:47Z</time>
  <course>177.8</course>
  <speed>0.3298484500494128</speed>
  <fix>3d</fix>
</trkpt>
<trkpt lat="-27.2744227" lon="151.2900622">
  <ele>355.83</ele>
  <time>2026-09-01T20:03:47Z</time>
  <course>351.82</course>
  <speed>0.43</speed>
  <fix>3d</fix>
</trkpt>
<trkpt lat="-27.2744219" lon="151.2900619">
  <ele>355.3</ele>
  <time>2026-09-01T20:03:47Z</time>
  <course>178.31</course>
  <speed>0.30083217912982646</speed>
  <fix>3d</fix>
</trkpt>
<trkpt lat="-27.2744227" lon="151.2900622">
  <ele>355.83</ele>
  <time>2026-09-01T20:03:47Z</time>
  <course>351.82</course>
  <speed>0.43</speed>
  <fix>3d</fix>
</trkpt>
<trkpt lat="-27.2744217" lon="151.2900619">
  <ele>355.14</ele>
  <time>2026-09-01T20:03:47Z</time>
  <course>178.72</course>
  <speed>0.26248809496813374</speed>
  <fix>3d</fix>
</trkpt>
<trkpt lat="-27.274422" lon="151.2900621">
  <ele>355.51</ele>
  <time>2026-09-01T20:03:47Z</time>
  <course>351.92</course>
  <speed>0.35</speed>
  <fix>3d</fix>
</trkpt>
<trkpt lat="-27.2744215" lon="151.2900618">
  <ele>354.98</ele>
  <time>2026-09-01T20:03:47Z</time>
  <course>179.0</course>
  <speed>0.22472205054244232</speed>
  <fix>3d</fix>
</trkpt>
<trkpt lat="-27.274422" lon="151.2900621">
  <ele>355.51</ele>
  <time>2026-09-01T20:03:47Z</time>
  <course>351.92</course>
  <speed>0.35</speed>
  <fix>3d</fix>
</trkpt>
<trkpt lat="-27.2744213" lon="151.2900617">
  <ele>354.82</ele>
  <time>2026-09-01T20:03:47Z</time>
  <course>179.11</course>
  <speed>0.17888543819998318</speed>
  <fix>3d</fix>
</trkpt>
<trkpt lat="-27.2744215" lon="151.290062">
  <ele>355.19</ele>
  <time>2026-09-01T20:03:47Z</time>
  <course>351.23</course>
  <speed>0.27</speed>
  <fix>3d</fix>
</trkpt>
<trkpt lat="-27.2744211" lon="151.2900617">
  <ele>354.66</ele>
  <time>2026-09-01T20:03:47Z</time>
  <course>179.07</course>
  <speed>0.15</speed>
  <fix>3d</fix>
</trkpt>
<trkpt lat="-27.2744215" lon="151.290062">
  <ele>355.19</ele>
  <time>2026-09-01T20:03:47Z</time>
  <course>351.23</course>
  <speed>0.27</speed>
  <fix>3d</fix>
</trkpt>
<trkpt lat="-27.274421" lon="151.2900616">
  <ele>354.51</ele>
  <time>2026-09-01T20:03:47Z</time>
  <course>178.92</course>
  <speed>0.12041594578792296</speed>
  <fix>3d</fix>
</trkpt>
<trkpt lat="-27.2744211" lon="151.2900619">
  <ele>354.87</ele>
  <time>2026-09-01T20:03:47Z</time>
  <course>348.34</course>
  <speed>0.19</speed>
  <fix>3d</fix>
</trkpt>
<trkpt lat="-27.2744209" lon="151.2900615">
  <ele>354.36</ele>
  <time>2026-09-01T20:03:47Z</time>
  <course>178.71</course>
  <speed>0.09848857801796104</speed>
  <fix>3d</fix>
</trkpt>
<trkpt lat="-27.2744211" lon="151.2900619">
  <ele>354.87</ele>
  <time>2026-09-01T20:03:47Z</time>
  <course>348.34</course>
  <speed>0.19</speed>
  <fix>3d</fix>
</trkpt>
<trkpt lat="-27.2744209" lon="151.2900615">
  <ele>354.21</ele>
  <time>2026-09-01T20:03:47Z</time>
  <course>178.65</course>
  <speed>0.07</speed>
  <fix>3d</fix>
</trkpt>
<trkpt lat="-27.2744208" lon="151.2900618">
  <ele>354.57</ele>
  <time>2026-09-01T20:03:47Z</time>
  <course>339.63</course>
  <speed>0.1</speed>
  <fix>3d</fix>
</trkpt>
<trkpt lat="-27.2744209" lon="151.2900614">
  <ele>354.07</ele>
  <time>2026-09-01T20:03:47Z</time>
  <course>178.87</course>
  <speed>0.06403124237432849</speed>
  <fix>3d</fix>
</trkpt>
<trkpt lat="-27.2744208" lon="151.2900618">
  <ele>354.57</ele>
  <time>2026-09-01T20:03:47Z</time>
  <course>339.63</course>
  <speed>0.1</speed>
  <fix>3d</fix>
</trkpt>
<trkpt lat="-27.274421" lon="151.2900614">
  <ele>353.93</ele>
  <time>2026-09-01T20:03:47Z</time>
  <course>179.25</course>
  <speed>0.09486832980505139</speed>
  <fix>3d</fix>
</trkpt>
<trkpt lat="-27.2744207" lon="151.2900618">
  <ele>354.28</ele>
  <time>2026-09-01T20:03:47Z</time>
  <course>297.2</course>
  <speed>0.01</speed>
  <fix>3d</fix>
</trkpt>
<trkpt lat="-27.2744211" lon="151.2900614">
  <ele>353.79</ele>
  <time>2026-09-01T20:03:47Z</time>
  <course>179.71</course>
  <speed>0.130384048104053</speed>
  <fix>3d</fix>
</trkpt>
<trkpt lat="-27.2744207" lon="151.2900618">
  <ele>354.28</ele>
  <time>2026-09-01T20:03:47Z</time>
  <course>297.2</course>
  <speed>0.01</speed>
  <fix>3d</fix>
</trkpt>
<trkpt lat="-27.2744212" lon="151.2900615">
  <ele>353.66</ele>
  <time>2026-09-01T20:03:47Z</time>
  <course>180.16</course>
  <speed>0.17</speed>
  <fix>3d</fix>
</trkpt>
<trkpt lat="-27.2744207" lon="151.2900618">
  <ele>354.0</ele>
  <time>2026-09-01T20:03:47Z</time>
  <course>160.46</course>
  <speed>0.08</speed>
  <fix>3d</fix>
</trkpt>
<trkpt lat="-27.2744212" lon="151.2900615">
  <ele>353.53</ele>
  <time>2026-09-01T20:03:47Z</time>
  <course>180.52</course>
  <speed>0.22022715545545238</speed>
  <fix>3d</fix>
</trkpt>
<trkpt lat="-27.2744207" lon="151.2900618">
  <ele>354.0</ele>
  <time>2026-09-01T20:03:47Z</time>
  <course>160.46</course>
  <speed>0.08</speed>
  <fix>3d</fix>
</trkpt>
<trkpt lat="-27.2744214" lon="151.2900616">
  <ele>353.4</ele>
  <time>2026-09-01T20:03:47Z</time>
  <course>180.77</course>
  <speed>0.261725046566048</speed>
  <fix>3d</fix>
</trkpt>
<trkpt lat="-27.2744209" lon="151.2900619">
  <ele>353.72</ele>
  <time>2026-09-01T20:03:47Z</time>
  <course>157.94</course>
  <speed>0.19</speed>
  <fix>3d</fix>
</trkpt>
<trkpt lat="-27.2744217" lon="151.2900617">
  <ele>353.27</ele>
  <time>2026-09-01T20:03:47Z</time>
  <course>180.91</course>
  <speed>0.304138126514911</speed>
  <fix>3d</fix>
</trkpt>
<trkpt lat="-27.2744209" lon="151.2900619">
  <ele>353.72</ele>
  <time>2026-09-01T20:03:47Z</time>
  <course>157.94</course>
  <speed>0.19</speed>
  <fix>3d</fix>
</trkpt>
<trkpt lat="-27.2744219" lon="151.2900617">
  <ele>353.15</ele>
  <time>2026-09-01T20:03:47Z</time>
  <course>180.93</course>
  <speed>0.34525353003264136</speed>
  <fix>3d</fix>
</trkpt>
<trkpt lat="-27.2744213" lon="151.2900621">
  <ele>353.47</ele>
  <time>2026-09-01T20:03:47Z</time>
  <course>157.62</course>
  <speed>0.28</speed>
  <fix>3d</fix>
</trkpt>
<trkpt lat="-27.2744223" lon="151.2900619">
  <ele>353.03</ele>
  <time>2026-09-01T20:03:47Z</time>
  <course>180.89</course>
  <speed>0.388329756778952</speed>
  <fix>3d</fix>
</trkpt>
<trkpt lat="-27.2744213" lon="151.2900621">
  <ele>353.47</ele>
  <time>2026-09-01T20:03:47Z</time>
  <course>157.62</course>
  <speed>0.28</speed>
  <fix>3d</fix>
</trkpt>
<trkpt lat="-27.2744226" lon="151.290062">
  <ele>352.91</ele>
  <time>2026-09-01T20:03:47Z</time>
  <course>180.8</course>
  <speed>0.4295346318982906</speed>
  <fix>3d</fix>
</trkpt>
<trkpt lat="-27.2744219" lon="151.2900623">
  <ele>353.22</ele>
  <time>2026-09-01T20:03:47Z</time>
  <course>157.87</course>
  <speed>0.38</speed>
  <fix>3d</fix>
</trkpt>
<trkpt lat="-27.274423" lon="151.2900622">
  <ele>352.79</ele>
  <time>2026-09-01T20:03:47Z</time>
  <course>180.7</course>
  <speed>0.4707440918375928</speed>
  <fix>3d</fix>
</trkpt>
<trkpt lat="-27.2744219" lon="151.2900623">
  <ele>353.22</ele>
  <time>2026-09-01T20:03:47Z</time>
  <course>157.87</course>
  <speed>0.38</speed>
  <fix>3d</fix>
</trkpt>
<trkpt lat="-27.2744234" lon="151.2900624">
  <ele>352.68</ele>
  <time>2026-09-01T20:03:47Z</time>
  <course>180.6</course>
  <speed>0.5141984052872977</speed>
  <fix>3d</fix>
</trkpt>
<trkpt lat="-27.2744226" lon="151.2900626">
  <ele>352.98</ele>
  <time>2026-09-01T20:03:47Z</time>
  <course>158.45</course>
  <speed>0.47</speed>
  <fix>3d</fix>
</trkpt>
<trkpt lat="-27.2744239" lon="151.2900626">
  <ele>352.57</ele>
  <time>2026-09-01T20:03:47Z</time>
  <course>180.53</course>
  <speed>0.5531726674375732</speed>
  <fix>3d</fix>
</trkpt>
<trkpt lat="-27.2744226" lon="151.2900626">
  <ele>352.98</ele>
  <time>2026-09-01T20:03:47Z</time>
  <course>158.45</course>
  <speed>0.47</speed>
  <fix>3d</fix>
</trkpt>
<trkpt lat="-27.2744244" lon="151.2900628">
  <ele>352.45</ele>
  <time>2026-09-01T20:03:47Z</time>
  <course>180.49</course>
  <speed>0.5846366392897386</speed>
  <fix>3d</fix>
</trkpt>
<trkpt lat="-27.2744235" lon="151.2900629">
  <ele>352.75</ele>
  <time>2026-09-01T20:03:47Z</time>
  <course>159.22</course>
  <speed>0.55</speed>
  <fix>3d</fix>
</trkpt>
<trkpt lat="-27.2744249" lon="151.290063">
  <ele>352.35</ele>
  <time>2026-09-01T20:03:47Z</time>
  <course>180.48</course>
  <speed>0.6258594091327541</speed>
  <fix>3d</fix>
</trkpt>
<trkpt lat="-27.2744235" lon="151.2900629">
  <ele>352.75</ele>
  <time>2026-09-01T20:03:47Z</time>
  <course>159.22</course>
  <speed>0.55</speed>
  <fix>3d</fix>
</trkpt>
<trkpt lat="-27.2744255" lon="151.2900632">
  <ele>352.24</ele>
  <time>2026-09-01T20:03:47Z</time>
  <course>180.49</course>
  <speed>0.6573431371817918</speed>
  <fix>3d</fix>
</trkpt>
<trkpt lat="-27.2744245" lon="151.2900634">
  <ele>352.53</ele>
  <time>2026-09-01T20:03:47Z</time>
  <course>160.11</course>
  <speed>0.63</speed>
  <fix>3d</fix>
</trkpt>
<trkpt lat="-27.2744261" lon="151.2900634">
  <ele>352.13</ele>
  <time>2026-09-01T20:03:47Z</time>
  <course>180.52</course>
  <speed>0.6865857557508748</speed>
  <fix>3d</fix>
</trkpt>
<trkpt lat="-27.2744245" lon="151.2900634">
  <ele>352.53</ele>
  <time>2026-09-01T20:03:47Z</time>
  <course>160.11</course>
  <speed>0.63</speed>
  <fix>3d</fix>
</trkpt>
<trkpt lat="-27.2744267" lon="151.2900637">
  <ele>352.03</ele>
  <time>2026-09-01T20:03:47Z</time>
  <course>180.56</course>
  <speed>0.7061161377563892</speed>
  <fix>3d</fix>
</trkpt>
<trkpt lat="-27.2744256" lon="151.2900639">
  <ele>352.31</ele>
  <time>2026-09-01T20:03:47Z</time>
  <course>161.08</course>
  <speed>0.7</speed>
  <fix>3d</fix>
</trkpt>
<trkpt lat="-27.2744274" lon="151.2900639">
  <ele>351.92</ele>
  <time>2026-09-01T20:03:47Z</time>
  <course>180.6</course>
  <speed>0.7278049189171505</speed>
  <fix>3d</fix>
</trkpt>
<trkpt lat="-27.2744256" lon="151.2900639">
  <ele>352.31</ele>
  <time>2026-09-01T20:03:47Z</time>
  <course>161.08</course>
  <speed>0.7</speed>
  <fix>3d</fix>
</trkpt>
<trkpt lat="-27.274428" lon="151.2900641">
  <ele>351.82</ele>
  <time>2026-09-01T20:03:47Z</time>
  <course>180.64</course>
  <speed>0.7473285756613351</speed>
  <fix>3d</fix>
</trkpt>
<trkpt lat="-27.2744268" lon="151.2900643">
  <ele>352.1</ele>
  <time>2026-09-01T20:03:47Z</time>
  <course>162.07</course>
  <speed>0.75</speed>
  <fix>3d</fix>
</trkpt>
<trkpt lat="-27.2744287" lon="151.2900644">
  <ele>351.72</ele>
  <time>2026-09-01T20:03:47Z</time>
  <course>180.68</course>
  <speed>0.7668767828015137</speed>
  <fix>3d</fix>
</trkpt>
<trkpt lat="-27.2744268" lon="151.2900643">
  <ele>352.1</ele>
  <time>2026-09-01T20:03:47Z</time>
  <course>162.07</course>
  <speed>0.75</speed>
  <fix>3d</fix>
</trkpt>
<trkpt lat="-27.2744294" lon="151.2900646">
  <ele>351.62</ele>
  <time>2026-09-01T20:03:47Z</time>
  <course>180.71</course>
  <speed>0.7746612162745725</speed>
  <fix>3d</fix>
</trkpt>
<trkpt lat="-27.2744282" lon="151.2900648">
  <ele>351.89</ele>
  <time>2026-09-01T20:03:47Z</time>
  <course>163.06</course>
  <speed>0.8</speed>
  <fix>3d</fix>
</trkpt>
<trkpt lat="-27.2744301" lon="151.2900648">
  <ele>351.52</ele>
  <time>2026-09-01T20:03:47Z</time>
  <course>180.73</course>
  <speed>0.7844743462982074</speed>
  <fix>3d</fix>
</trkpt>
<trkpt lat="-27.2744282" lon="151.2900648">
  <ele>351.89</ele>
  <time>2026-09-01T20:03:47Z</time>
  <course>163.06</course>
  <speed>0.8</speed>
  <fix>3d</fix>
</trkpt>
<trkpt lat="-27.2744308" lon="151.2900651">
  <ele>351.43</ele>
  <time>2026-09-01T20:03:47Z</time>
  <course>180.74</course>
  <speed>0.7844743462982074</speed>
  <fix>3d</fix>
</trkpt>
<trkpt lat="-27.2744296" lon="151.2900652">
  <ele>351.69</ele>
  <time>2026-09-01T20:03:47Z</time>
  <course>164.1</course>
  <speed>0.82</speed>
  <fix>3d</fix>
</trkpt>
<trkpt lat="-27.2744315" lon="151.2900653">
  <ele>351.33</ele>
  <time>2026-09-01T20:03:47Z</time>
  <course>180.75</course>
  <speed>0.792464510246358</speed>
  <fix>3d</fix>
</trkpt>
<trkpt lat="-27.2744296" lon="151.2900652">
  <ele>351.69</ele>
  <time>2026-09-01T20:03:47Z</time>
  <course>164.1</course>
  <speed>0.82</speed>
  <fix>3d</fix>
</trkpt>
<trkpt lat="-27.2744322" lon="151.2900655">
  <ele>351.24</ele>
  <time>2026-09-01T20:03:47Z</time>
  <course>180.76</course>
  <speed>0.7907591289387687</speed>
  <fix>3d</fix>
</trkpt>
<trkpt lat="-27.274431" lon="151.2900657">
  <ele>351.5</ele>
  <time>2026-09-01T20:03:47Z</time>
  <course>165.17</course>
  <speed>0.84</speed>
  <fix>3d</fix>
</trkpt>
<trkpt lat="-27.2744329" lon="151.2900657">
  <ele>351.14</ele>
  <time>2026-09-01T20:03:47Z</time>
  <course>180.77</course>
  <speed>0.7792945527847606</speed>
  <fix>3d</fix>
</trkpt>
<trkpt lat="-27.274431" lon="151.2900657">
  <ele>351.5</ele>
  <time>2026-09-01T20:03:47Z</time>
  <course>165.17</course>
  <speed>0.84</speed>
  <fix>3d</fix>
</trkpt>
<trkpt lat="-27.2744337" lon="151.2900659">
  <ele>351.05</ele>
  <time>2026-09-01T20:03:47Z</time>
  <course>180.78</course>
  <speed>0.7792945527847606</speed>
  <fix>3d</fix>
</trkpt>
<trkpt lat="-27.2744325" lon="151.2900662">
  <ele>351.31</ele>
  <time>2026-09-01T20:03:47Z</time>
  <course>166.29</course>
  <speed>0.84</speed>
  <fix>3d</fix>
</trkpt>
<trkpt lat="-27.2744344" lon="151.2900661">
  <ele>350.96</ele>
  <time>2026-09-01T20:03:47Z</time>
  <course>180.8</course>
  <speed>0.7679192665899195</speed>
  <fix>3d</fix>
</trkpt>
<trkpt lat="-27.2744325" lon="151.2900662">
  <ele>351.31</ele>
  <time>2026-09-01T20:03:47Z</time>
  <course>166.29</course>
  <speed>0.84</speed>
  <fix>3d</fix>
</trkpt>
<trkpt lat="-27.2744351" lon="151.2900663">
  <ele>350.87</ele>
  <time>2026-09-01T20:03:47Z</time>
  <course>180.81</course>
  <speed>0.7467261881037789</speed>
  <fix>3d</fix>
</trkpt>
<trkpt lat="-27.274434" lon="151.2900665">
  <ele>351.13</ele>
  <time>2026-09-01T20:03:47Z</time>
  <course>167.46</course>
  <speed>0.83</speed>
  <fix>3d</fix>
</trkpt>
<trkpt lat="-27.2744358" lon="151.2900664">
  <ele>350.78</ele>
  <time>2026-09-01T20:03:47Z</time>
  <course>180.84</course>
  <speed>0.7355270219373317</speed>
  <fix>3d</fix>
</trkpt>
<trkpt lat="-27.274434" lon="151.2900665">
  <ele>351.13</ele>
  <time>2026-09-01T20:03:47Z</time>
  <course>167.46</course>
  <speed>0.83</speed>
  <fix>3d</fix>
</trkpt>
<trkpt lat="-27.2744365" lon="151.2900666">
  <ele>350.7</ele>
  <time>2026-09-01T20:03:47Z</time>
  <course>180.86</course>
  <speed>0.7144928271158499</speed>
  <fix>3d</fix>
</trkpt>
<trkpt lat="-27.2744355" lon="151.2900669">
  <ele>350.95</ele>
  <time>2026-09-01T20:03:47Z</time>
  <course>168.71</course>
  <speed>0.8</speed>
  <fix>3d</fix>
</trkpt>
<trkpt lat="-27.2744371" lon="151.2900667">
  <ele>350.61</ele>
  <time>2026-09-01T20:03:47Z</time>
  <course>180.88</course>
  <speed>0.6926037828369117</speed>
  <fix>3d</fix>
</trkpt>
<trkpt lat="-27.2744355" lon="151.2900669">
  <ele>350.95</ele>
  <time>2026-09-01T20:03:47Z</time>
  <course>168.71</course>
  <speed>0.8</speed>
  <fix>3d</fix>
</trkpt>
<trkpt lat="-27.2744378" lon="151.2900669">
  <ele>350.53</ele>
  <time>2026-09-01T20:03:47Z</time>
  <course>180.9</course>
  <speed>0.671863081289633</speed>
  <fix>3d</fix>
</trkpt>
<trkpt lat="-27.2744369" lon="151.2900672">
  <ele>350.78</ele>
  <time>2026-09-01T20:03:47Z</time>
  <course>170.08</course>
  <speed>0.77</speed>
  <fix>3d</fix>
</trkpt>
<trkpt lat="-27.2744384" lon="151.290067">
  <ele>350.46</ele>
  <time>2026-09-01T20:03:47Z</time>
  <course>180.92</course>
  <speed>0.6412487816752559</speed>
  <fix>3d</fix>
</trkpt>
<trkpt lat="-27.2744369" lon="151.2900672">
  <ele>350.78</ele>
  <time>2026-09-01T20:03:47Z</time>
  <course>170.08</course>
  <speed>0.77</speed>
  <fix>3d</fix>
</trkpt>
<trkpt lat="-27.274439" lon="151.2900671">
  <ele>350.38</ele>
  <time>2026-09-01T20:03:47Z</time>
  <course>180.94</course>
  <speed>0.6107372593840988</speed>
  <fix>3d</fix>
</trkpt>
<trkpt lat="-27.2744382" lon="151.2900674">
  <ele>350.62</ele>
  <time>2026-09-01T20:03:47Z</time>
  <course>171.6</course>
  <speed>0.72</speed>
  <fix>3d</fix>
</trkpt>
<trkpt lat="-27.2744396" lon="151.2900671">
  <ele>350.31</ele>
  <time>2026-09-01T20:03:47Z</time>
  <course>180.96</course>
  <speed>0.5800862004909271</speed>
  <fix>3d</fix>
</trkpt>
<trkpt lat="-27.2744382" lon="151.2900674">
  <ele>350.62</ele>
  <time>2026-09-01T20:03:47Z</time>
  <course>171.6</course>
  <speed>0.72</speed>
  <fix>3d</fix>
</trkpt>
<trkpt lat="-27.2744401" lon="151.2900672">
  <ele>350.23</ele>
  <time>2026-09-01T20:03:47Z</time>
  <course>180.98</course>
  <speed>0.55</speed>
  <fix>3d</fix>
</trkpt>
<trkpt lat="-27.2744394" lon="151.2900675">
  <ele>350.46</ele>
  <time>2026-09-01T20:03:47Z</time>
  <course>173.31</course>
  <speed>0.66</speed>
  <fix>3d</fix>
</trkpt>
<trkpt lat="-27.2744407" lon="151.2900673">
  <ele>350.16</ele>
  <time>2026-09-01T20:03:47Z</time>
  <course>181.0</course>
  <speed>0.52</speed>
  <fix>3d</fix>
</trkpt>
<trkpt lat="-27.2744394" lon="151.2900675">
  <ele>350.46</ele>
  <time>2026-09-01T20:03:47Z</time>
  <course>173.31</course>
  <speed>0.66</speed>
  <fix>3d</fix>
</trkpt>
<trkpt lat="-27.2744411" lon="151.2900673">
  <ele>350.09</ele>
  <time>2026-09-01T20:03:47Z</time>
  <course>181.02</course>
  <speed>0.4801041553663121</speed>
  <fix>3d</fix>
</trkpt>
<trkpt lat="-27.2744405" lon="151.2900677">
  <ele>350.32</ele>
  <time>2026-09-01T20:03:47Z</time>
  <course>175.32</course>
  <speed>0.6</speed>
  <fix>3d</fix>
</trkpt>
<trkpt lat="-27.2744416" lon="151.2900673">
  <ele>350.02</ele>
  <time>2026-09-01T20:03:47Z</time>
  <course>181.04</course>
  <speed>0.4509988913511872</speed>
  <fix>3d</fix>
</trkpt>
<trkpt lat="-27.2744405" lon="151.2900677">
  <ele>350.32</ele>
  <time>2026-09-01T20:03:47Z</time>
  <course>175.32</course>
  <speed>0.6</speed>
  <fix>3d</fix>
</trkpt>
<trkpt lat="-27.274442" lon="151.2900673">
  <ele>349.95</ele>
  <time>2026-09-01T20:03:47Z</time>
  <course>181.06</course>
  <speed>0.4119465984809196</speed>
  <fix>3d</fix>
</trkpt>
<trkpt lat="-27.2744415" lon="151.2900678">
  <ele>350.17</ele>
  <time>2026-09-01T20:03:47Z</time>
  <course>177.76</course>
  <speed>0.53</speed>
  <fix>3d</fix>
</trkpt>
<trkpt lat="-27.2744424" lon="151.2900673">
  <ele>349.88</ele>
  <time>2026-09-01T20:03:47Z</time>
  <course>181.08</course>
  <speed>0.37336309405188944</speed>
  <fix>3d</fix>
</trkpt>
<trkpt lat="-27.2744415" lon="151.2900678">
  <ele>350.17</ele>
  <time>2026-09-01T20:03:47Z</time>
  <course>177.76</course>
  <speed>0.53</speed>
  <fix>3d</fix>
</trkpt>
<trkpt lat="-27.2744428" lon="151.2900673">
  <ele>349.81</ele>
  <time>2026-09-01T20:03:47Z</time>
  <course>181.09</course>
  <speed>0.33541019662496846</speed>
  <fix>3d</fix>
</trkpt>
<trkpt lat="-27.2744425" lon="151.2900678">
  <ele>350.03</ele>
  <time>2026-09-01T20:03:47Z</time>
  <course>180.81</course>
  <speed>0.46</speed>
  <fix>3d</fix>
</trkpt>
<trkpt lat="-27.2744431" lon="151.2900673">
  <ele>349.75</ele>
  <time>2026-09-01T20:03:47Z</time>
  <course>181.11</course>
  <speed>0.29832867780352595</speed>
  <fix>3d</fix>
</trkpt>
<trkpt lat="-27.2744425" lon="151.2900678">
  <ele>350.03</ele>
  <time>2026-09-01T20:03:47Z</time>
  <course>180.81</course>
  <speed>0.46</speed>
  <fix>3d</fix>
</trkpt>
<trkpt lat="-27.2744434" lon="151.2900672">
  <ele>349.68</ele>
  <time>2026-09-01T20:03:47Z</time>
  <course>181.14</course>
  <speed>0.26248809496813374</speed>
  <fix>3d</fix>
</trkpt>
<trkpt lat="-27.2744432" lon="151.2900678">
  <ele>349.9</ele>
  <time>2026-09-01T20:03:47Z</time>
  <course>184.8</course>
  <speed>0.38</speed>
  <fix>3d</fix>
</trkpt>
<trkpt lat="-27.2744436" lon="151.2900672">
  <ele>349.62</ele>
  <time>2026-09-01T20:03:47Z</time>
  <course>181.16</course>
  <speed>0.22847319317591727</speed>
  <fix>3d</fix>
</trkpt>
<trkpt lat="-27.2744432" lon="151.2900678">
  <ele>349.9</ele>
  <time>2026-09-01T20:03:47Z</time>
  <course>184.8</course>
  <speed>0.38</speed>
  <fix>3d</fix>
</trkpt>
<trkpt lat="-27.2744439" lon="151.2900672">
  <ele>349.56</ele>
  <time>2026-09-01T20:03:47Z</time>
  <course>181.17</course>
  <speed>0.1972308292331602</speed>
  <fix>3d</fix>
</trkpt>
<trkpt lat="-27.2744438" lon="151.2900678">
  <ele>349.76</ele>
  <time>2026-09-01T20:03:47Z</time>
  <course>190.43</course>
  <speed>0.3</speed>
  <fix>3d</fix>
</trkpt>
<trkpt lat="-27.274444" lon="151.2900672">
  <ele>349.5</ele>
  <time>2026-09-01T20:03:47Z</time>
  <course>181.18</course>
  <speed>0.17029386365926402</speed>
  <fix>3d</fix>
</trkpt>
<trkpt lat="-27.2744438" lon="151.2900678">
  <ele>349.76</ele>
  <time>2026-09-01T20:03:47Z</time>
  <course>190.43</course>
  <speed>0.3</speed>
  <fix>3d</fix>
</trkpt>
<trkpt lat="-27.2744442" lon="151.2900671">
  <ele>349.44</ele>
  <time>2026-09-01T20:03:47Z</time>
  <course>181.18</course>
  <speed>0.15620499351813308</speed>
  <fix>3d</fix>
</trkpt>
<trkpt lat="-27.2744443" lon="151.2900677">
  <ele>349.64</ele>
  <time>2026-09-01T20:03:47Z</time>
  <course>199.2</course>
  <speed>0.23</speed>
  <fix>3d</fix>
</trkpt>
<trkpt lat="-27.2744443" lon="151.290067">
  <ele>349.38</ele>
  <time>2026-09-01T20:03:47Z</time>
  <course>181.2</course>
  <speed>0.14317821063276354</speed>
  <fix>3d</fix>
</trkpt>
<trkpt lat="-27.2744443" lon="151.2900677">
  <ele>349.64</ele>
  <time>2026-09-01T20:03:47Z</time>
  <course>199.2</course>
  <speed>0.23</speed>
  <fix>3d</fix>
</trkpt>
<trkpt lat="-27.2744444" lon="151.2900669">
  <ele>349.32</ele>
  <time>2026-09-01T20:03:47Z</time>
  <course>181.22</course>
  <speed>0.13152946437965907</speed>
  <fix>3d</fix>
</trkpt>
<trkpt lat="-27.2744446" lon="151.2900675">
  <ele>349.52</ele>
  <time>2026-09-01T20:03:47Z</time>
  <course>213.82</course>
  <speed>0.17</speed>
  <fix>3d</fix>
</trkpt>
<trkpt lat="-27.2744444" lon="151.2900668">
  <ele>349.26</ele>
  <time>2026-09-01T20:03:47Z</time>
  <course>181.25</course>
  <speed>0.14</speed>
  <fix>3d</fix>
</trkpt>
<trkpt lat="-27.2744446" lon="151.2900675">
  <ele>349.52</ele>
  <time>2026-09-01T20:03:47Z</time>
  <course>213.82</course>
  <speed>0.17</speed>
  <fix>3d</fix>
</trkpt>
<trkpt lat="-27.2744444" lon="151.2900667">
  <ele>349.21</ele>
  <time>2026-09-01T20:03:47Z</time>
  <course>181.3</course>
  <speed>0.14560219778561037</speed>
  <fix>3d</fix>
</trkpt>
<trkpt lat="-27.2744448" lon="151.2900672">
  <ele>349.4</ele>
  <time>2026-09-01T20:03:47Z</time>
  <course>238.14</course>
  <speed>0.13</speed>
  <fix>3d</fix>
</trkpt>
<trkpt lat="-27.2744444" lon="151.2900666">
  <ele>349.16</ele>
  <time>2026-09-01T20:03:47Z</time>
  <course>181.36</course>
  <speed>0.16552945357246848</speed>
  <fix>3d</fix>
</trkpt>
<trkpt lat="-27.2744448" lon="151.2900672">
  <ele>349.4</ele>
  <time>2026-09-01T20:03:47Z</time>
  <course>238.14</course>
  <speed>0.13</speed>
  <fix>3d</fix>
</trkpt>
<trkpt lat="-27.2744444" lon="151.2900665">
  <ele>349.1</ele>
  <time>2026-09-01T20:03:47Z</time>
  <course>181.42</course>
  <speed>0.18027756377319945</speed>
  <fix>3d</fix>
</trkpt>
<trkpt lat="-27.2744449" lon="151.290067">
  <ele>349.28</ele>
  <time>2026-09-01T20:03:47Z</time>
  <course>269.65</course>
  <speed>0.12</speed>
  <fix>3d</fix>
</trkpt>
<trkpt lat="-27.2744443" lon="151.2900664">
  <ele>349.05</ele>
  <time>2026-09-01T20:03:47Z</time>
  <course>181.48</course>
  <speed>0.19849433241279207</speed>
  <fix>3d</fix>
</trkpt>
<trkpt lat="-27.2744449" lon="151.290067">
  <ele>349.28</ele>
  <time>2026-09-01T20:03:47Z</time>
  <course>269.65</course>
  <speed>0.12</speed>
  <fix>3d</fix>
</trkpt>
<trkpt lat="-27.2744443" lon="151.2900662">
  <ele>348.99</ele>
  <time>2026-09-01T20:03:47Z</time>
  <course>181.52</course>
  <speed>0.21213203435596426</speed>
  <fix>3d</fix>
</trkpt>
<trkpt lat="-27.2744448" lon="151.2900667">
  <ele>349.16</ele>
  <time>2026-09-01T20:03:47Z</time>
  <course>295.25</course>
  <speed>0.14</speed>
  <fix>3d</fix>
</trkpt>
<trkpt lat="-27.2744442" lon="151.2900661">
  <ele>348.94</ele>
  <time>2026-09-01T20:03:47Z</time>
  <course>181.56</course>
  <speed>0.23430749027719963</speed>
  <fix>3d</fix>
</trkpt>
<trkpt lat="-27.2744448" lon="151.2900667">
  <ele>349.16</ele>
  <time>2026-09-01T20:03:47Z</time>
  <course>295.25</course>
  <speed>0.14</speed>
  <fix>3d</fix>
</trkpt>
<trkpt lat="-27.2744441" lon="151.290066">
  <ele>348.89</ele>
  <time>2026-09-01T20:03:47Z</time>
  <course>181.58</course>
  <speed>0.25</speed>
  <fix>3d</fix>
</trkpt>
<trkpt lat="-27.2744446" lon="151.2900665">
  <ele>349.06</ele>
  <time>2026-09-01T20:03:47Z</time>
  <course>311.55</course>
  <speed>0.17</speed>
  <fix>3d</fix>
</trkpt>
<trkpt lat="-27.2744439" lon="151.2900659">
  <ele>348.83</ele>
  <time>2026-09-01T20:03:47Z</time>
  <course>181.59</course>
  <speed>0.260768096208106</speed>
  <fix>3d</fix>
</trkpt>
<trkpt lat="-27.2744446" lon="151.2900665">
  <ele>349.06</ele>
  <time>2026-09-01T20:03:47Z</time>
  <course>311.55</course>
  <speed>0.17</speed>
  <fix>3d</fix>
</trkpt>
<trkpt lat="-27.2744438" lon="151.2900657">
  <ele>348.78</ele>
  <time>2026-09-01T20:03:47Z</time>
  <course>181.59</course>
  <speed>0.2778488797889961</speed>
  <fix>3d</fix>
</trkpt>
<trkpt lat="-27.2744445" lon="151.2900662">
  <ele>348.95</ele>
  <time>2026-09-01T20:03:47Z</time>
  <course>322.36</course>
  <speed>0.21</speed>
  <fix>3d</fix>
</trkpt>
<trkpt lat="-27.2744436" lon="151.2900656">
  <ele>348.73</ele>
  <time>2026-09-01T20:03:47Z</time>
  <course>181.59</course>
  <speed>0.28653097563788804</speed>
  <fix>3d</fix>
</trkpt>
<trkpt lat="-27.2744445" lon="151.2900662">
  <ele>348.95</ele>
  <time>2026-09-01T20:03:47Z</time>
  <course>322.36</course>
  <speed>0.21</speed>
  <fix>3d</fix>
</trkpt>
<trkpt lat="-27.2744434" lon="151.2900655">
  <ele>348.68</ele>
  <time>2026-09-01T20:03:47Z</time>
  <course>181.58</course>
  <speed>0.29966648127543394</speed>
  <fix>3d</fix>
</trkpt>
<trkpt lat="-27.2744442" lon="151.290066">
  <ele>348.84</ele>
  <time>2026-09-01T20:03:47Z</time>
  <course>329.32</course>
  <speed>0.24</speed>
  <fix>3d</fix>
</trkpt>
<trkpt lat="-27.2744432" lon="151.2900654">
  <ele>348.63</ele>
  <time>2026-09-01T20:03:47Z</time>
  <course>181.58</course>
  <speed>0.3087069808086626</speed>
  <fix>3d</fix>
</trkpt>
<trkpt lat="-27.2744442" lon="151.290066">
  <ele>348.84</ele>
  <time>2026-09-01T20:03:47Z</time>
  <course>329.32</course>
  <speed>0.24</speed>
  <fix>3d</fix>
</trkpt>
<trkpt lat="-27.274443" lon="151.2900653">
  <ele>348.58</ele>
  <time>2026-09-01T20:03:47Z</time>
  <course>181.57</course>
  <speed>0.3087069808086626</speed>
  <fix>3d</fix>
</trkpt>
<trkpt lat="-27.2744438" lon="151.2900657">
  <ele>348.75</ele>
  <time>2026-09-01T20:03:47Z</time>
  <course>333.44</course>
  <speed>0.26</speed>
  <fix>3d</fix>
</trkpt>
<trkpt lat="-27.2744427" lon="151.2900652">
  <ele>348.52</ele>
  <time>2026-09-01T20:03:47Z</time>
  <course>181.57</course>
  <speed>0.3178049716414141</speed>
  <fix>3d</fix>
</trkpt>
<trkpt lat="-27.2744438" lon="151.2900657">
  <ele>348.75</ele>
  <time>2026-09-01T20:03:47Z</time>
  <course>333.44</course>
  <speed>0.26</speed>
  <fix>3d</fix>
</trkpt>
<trkpt lat="-27.2744425" lon="151.2900651">
  <ele>348.47</ele>
  <time>2026-09-01T20:03:47Z</time>
  <course>181.58</course>
  <speed>0.3138470965295043</speed>
  <fix>3d</fix>
</trkpt>
<trkpt lat="-27.2744433" lon="151.2900655">
  <ele>348.65</ele>
  <time>2026-09-01T20:03:47Z</time>
  <course>335.99</course>
  <speed>0.28</speed>
  <fix>3d</fix>
</trkpt>
<trkpt lat="-27.2744423" lon="151.290065">
  <ele>348.42</ele>
  <time>2026-09-01T20:03:47Z</time>
  <course>181.58</course>
  <speed>0.3138470965295043</speed>
  <fix>3d</fix>
</trkpt>
<trkpt lat="-27.2744433" lon="151.2900655">
  <ele>348.65</ele>
  <time>2026-09-01T20:03:47Z</time>
  <course>335.99</course>
  <speed>0.28</speed>
  <fix>3d</fix>
</trkpt>
<trkpt lat="-27.2744421" lon="151.2900649">
  <ele>348.37</ele>
  <time>2026-09-01T20:03:47Z</time>
  <course>181.58</course>
  <speed>0.3138470965295043</speed>
  <fix>3d</fix>
</trkpt>
<trkpt lat="-27.2744428" lon="151.2900652">
  <ele>348.54</ele>
  <time>2026-09-01T20:03:47Z</time>
  <course>337.86</course>
  <speed>0.28</speed>
  <fix>3d</fix>
</trkpt>
<trkpt lat="-27.2744418" lon="151.2900648">
  <ele>348.32</ele>
  <time>2026-09-01T20:03:47Z</time>
  <course>181.59</course>
  <speed>0.3101612483854165</speed>
  <fix>3d</fix>
</trkpt>
<trkpt lat="-27.2744428" lon="151.2900652">
  <ele>348.54</ele>
  <time>2026-09-01T20:03:47Z</time>
  <course>337.86</course>
  <speed>0.28</speed>
  <fix>3d</fix>
</trkpt>
<trkpt lat="-27.2744416" lon="151.2900647">
  <ele>348.27</ele>
  <time>2026-09-01T20:03:47Z</time>
  <course>181.59</course>
  <speed>0.3101612483854165</speed>
  <fix>3d</fix>
</trkpt>
<trkpt lat="-27.2744424" lon="151.2900651">
  <ele>348.44</ele>
  <time>2026-09-01T20:03:47Z</time>
  <course>339.43</course>
  <speed>0.29</speed>
  <fix>3d</fix>
</trkpt>
<trkpt lat="-27.2744414" lon="151.2900646">
  <ele>348.22</ele>
  <time>2026-09-01T20:03:47Z</time>
  <course>181.59</course>
  <speed>0.30675723300355934</speed>
  <fix>3d</fix>
</trkpt>
<trkpt lat="-27.2744424" lon="151.2900651">
  <ele>348.44</ele>
  <time>2026-09-01T20:03:47Z</time>
  <course>339.43</course>
  <speed>0.29</speed>
  <fix>3d</fix>
</trkpt>
<trkpt lat="-27.2744411" lon="151.2900645">
  <ele>348.17</ele>
  <time>2026-09-01T20:03:47Z</time>
  <course>181.58</course>
  <speed>0.30675723300355934</speed>
  <fix>3d</fix>
</trkpt>
<trkpt lat="-27.2744419" lon="151.2900649">
  <ele>348.34</ele>
  <time>2026-09-01T20:03:47Z</time>
  <course>340.84</course>
  <speed>0.28</speed>
  <fix>3d</fix>
</trkpt>
<trkpt lat="-27.2744409" lon="151.2900644">
  <ele>348.12</ele>
  <time>2026-09-01T20:03:47Z</time>
  <course>181.58</course>
  <speed>0.29410882339705485</speed>
  <fix>3d</fix>
</trkpt>
<trkpt lat="-27.2744419" lon="151.2900649">
  <ele>348.34</ele>
  <time>2026-09-01T20:03:47Z</time>
  <course>340.84</course>
  <speed>0.28</speed>
  <fix>3d</fix>
</trkpt>
<trkpt lat="-27.2744407" lon="151.2900643">
  <ele>348.07</ele>
  <time>2026-09-01T20:03:47Z</time>
  <course>181.57</course>
  <speed>0.29410882339705485</speed>
  <fix>3d</fix>
</trkpt>
<trkpt lat="-27.2744414" lon="151.2900646">
  <ele>348.24</ele>
  <time>2026-09-01T20:03:47Z</time>
  <course>342.32</course>
  <speed>0.28</speed>
  <fix>3d</fix>
</trkpt>
<trkpt lat="-27.2744405" lon="151.2900643">
  <ele>348.02</ele>
  <time>2026-09-01T20:03:47Z</time>
  <course>181.56</course>
  <speed>0.2816025568065745</speed>
  <fix>3d</fix>
</trkpt>
<trkpt lat="-27.2744414" lon="151.2900646">
  <ele>348.24</ele>
  <time>2026-09-01T20:03:47Z</time>
  <course>342.32</course>
  <speed>0.28</speed>
  <fix>3d</fix>
</trkpt>
<trkpt lat="-27.2744403" lon="151.2900642">
  <ele>347.97</ele>
  <time>2026-09-01T20:03:47Z</time>
  <course>181.56</course>
  <speed>0.2720294101747089</speed>
  <fix>3d</fix>
</trkpt>
<trkpt lat="-27.2744409" lon="151.2900645">
  <ele>348.14</ele>
  <time>2026-09-01T20:03:47Z</time>
  <course>344.05</course>
  <speed>0.26</speed>
  <fix>3d</fix>
</trkpt>
<trkpt lat="-27.27444" lon="151.2900642">
  <ele>347.91</ele>
  <time>2026-09-01T20:03:47Z</time>
  <course>181.56</course>
  <speed>0.2692582403567252</speed>
  <fix>3d</fix>
</trkpt>
<trkpt lat="-27.2744409" lon="151.2900645">
  <ele>348.14</ele>
  <time>2026-09-01T20:03:47Z</time>
  <course>344.05</course>
  <speed>0.26</speed>
  <fix>3d</fix>
</trkpt>
<trkpt lat="-27.2744398" lon="151.2900641">
  <ele>347.86</ele>
  <time>2026-09-01T20:03:47Z</time>
  <course>181.56</course>
  <speed>0.2570992026436488</speed>
  <fix>3d</fix>
</trkpt>
<trkpt lat="-27.2744405" lon="151.2900644">
  <ele>348.03</ele>
  <time>2026-09-01T20:03:47Z</time>
  <course>346.19</course>
  <speed>0.25</speed>
  <fix>3d</fix>
</trkpt>
<trkpt lat="-27.2744396" lon="151.2900641">
  <ele>347.81</ele>
  <time>2026-09-01T20:03:47Z</time>
  <course>181.56</course>
  <speed>0.24738633753705963</speed>
  <fix>3d</fix>
</trkpt>
<trkpt lat="-27.2744405" lon="151.2900644">
  <ele>348.03</ele>
  <time>2026-09-01T20:03:47Z</time>
  <course>346.19</course>
  <speed>0.25</speed>
  <fix>3d</fix>
</trkpt>
<trkpt lat="-27.2744395" lon="151.290064">
  <ele>347.76</ele>
  <time>2026-09-01T20:03:47Z</time>
  <course>181.56</course>
  <speed>0.2353720459187964</speed>
  <fix>3d</fix>
</trkpt>
<trkpt lat="-27.2744401" lon="151.2900642">
  <ele>347.94</ele>
  <time>2026-09-01T20:03:47Z</time>
  <course>348.67</course>
  <speed>0.23</speed>
  <fix>3d</fix>
</trkpt>
<trkpt lat="-27.2744393" lon="151.290064">
  <ele>347.71</ele>
  <time>2026-09-01T20:03:47Z</time>
  <course>181.55</course>
  <speed>0.223606797749979</speed>
  <fix>3d</fix>
</trkpt>
<trkpt lat="-27.2744401" lon="151.2900642">
  <ele>347.94</ele>
  <time>2026-09-01T20:03:47Z</time>
  <course>348.67</course>
  <speed>0.23</speed>
  <fix>3d</fix>
</trkpt>
<trkpt lat="-27.2744391" lon="151.290064">
  <ele>347.66</ele>
  <time>2026-09-01T20:03:47Z</time>
  <course>181.54</course>
  <speed>0.21377558326431947</speed>
  <fix>3d</fix>
</trkpt>
<trkpt lat="-27.2744397" lon="151.2900642">
  <ele>347.83</ele>
  <time>2026-09-01T20:03:47Z</time>
  <course>351.34</course>
  <speed>0.22</speed>
  <fix>3d</fix>
</trkpt>
<trkpt lat="-27.2744389" lon="151.2900639">
  <ele>347.61</ele>
  <time>2026-09-01T20:03:47Z</time>
  <course>181.53</course>
  <speed>0.20223748416156684</speed>
  <fix>3d</fix>
</trkpt>
<trkpt lat="-27.2744397" lon="151.2900642">
  <ele>347.83</ele>
  <time>2026-09-01T20:03:47Z</time>
  <course>351.34</course>
  <speed>0.22</speed>
  <fix>3d</fix>
</trkpt>
<trkpt lat="-27.2744388" lon="151.2900639">
  <ele>347.56</ele>
  <time>2026-09-01T20:03:47Z</time>
  <course>181.53</course>
  <speed>0.191049731745428</speed>
  <fix>3d</fix>
</trkpt>
<trkpt lat="-27.2744393" lon="151.2900641">
  <ele>347.72</ele>
  <time>2026-09-01T20:03:47Z</time>
  <course>354.41</course>
  <speed>0.2</speed>
  <fix>3d</fix>
</trkpt>
<trkpt lat="-27.2744386" lon="151.2900639">
  <ele>347.51</ele>
  <time>2026-09-01T20:03:47Z</time>
  <course>181.53</course>
  <speed>0.18110770276274835</speed>
  <fix>3d</fix>
</trkpt>
<trkpt lat="-27.2744393" lon="151.2900641">
  <ele>347.72</ele>
  <time>2026-09-01T20:03:47Z</time>
  <course>354.41</course>
  <speed>0.2</speed>
  <fix>3d</fix>
</trkpt>
<trkpt lat="-27.2744385" lon="151.2900639">
  <ele>347.46</ele>
  <time>2026-09-01T20:03:47Z</time>
  <course>181.52</course>
  <speed>0.17029386365926402</speed>
  <fix>3d</fix>
</trkpt>
<trkpt lat="-27.2744389" lon="151.2900641">
  <ele>347.63</ele>
  <time>2026-09-01T20:03:47Z</time>
  <course>357.92</course>
  <speed>0.18</speed>
  <fix>3d</fix>
</trkpt>
<trkpt lat="-27.2744383" lon="151.2900639">
  <ele>347.41</ele>
  <time>2026-09-01T20:03:47Z</time>
  <course>181.44</course>
  <speed>0.16124515496597097</speed>
  <fix>3d</fix>
</trkpt>
<trkpt lat="-27.2744389" lon="151.2900641">
  <ele>347.63</ele>
  <time>2026-09-01T20:03:47Z</time>
  <course>357.92</course>
  <speed>0.18</speed>
  <fix>3d</fix>
</trkpt>
<trkpt lat="-27.2744382" lon="151.2900639">
  <ele>347.36</ele>
  <time>2026-09-01T20:03:47Z</time>
  <course>181.29</course>
  <speed>0.15132745950421556</speed>
  <fix>3d</fix>
</trkpt>
<trkpt lat="-27.2744386" lon="151.2900641">
  <ele>347.53</ele>
  <time>2026-09-01T20:03:47Z</time>
  <course>0.39</course>
  <speed>0.16</speed>
  <fix>3d</fix>
</trkpt>
<trkpt lat="-27.2744381" lon="151.2900639">
  <ele>347.31</ele>
  <time>2026-09-01T20:03:47Z</time>
  <course>181.11</course>
  <speed>0.1414213562373095</speed>
  <fix>3d</fix>
</trkpt>
<trkpt lat="-27.2744386" lon="151.2900641">
  <ele>347.53</ele>
  <time>2026-09-01T20:03:47Z</time>
  <course>0.39</course>
  <speed>0.16</speed>
  <fix>3d</fix>
</trkpt>
<trkpt lat="-27.274438" lon="151.2900639">
  <ele>347.26</ele>
  <time>2026-09-01T20:03:47Z</time>
  <course>180.92</course>
  <speed>0.13152946437965907</speed>
  <fix>3d</fix>
</trkpt>
<trkpt lat="-27.2744383" lon="151.2900641">
  <ele>347.43</ele>
  <time>2026-09-01T20:03:47Z</time>
  <course>0.76</course>
  <speed>0.14</speed>
  <fix>3d</fix>
</trkpt>
<trkpt lat="-27.2744379" lon="151.2900639">
  <ele>347.21</ele>
  <time>2026-09-01T20:03:47Z</time>
  <course>180.75</course>
  <speed>0.12165525060596438</speed>
  <fix>3d</fix>
</trkpt>
<trkpt lat="-27.2744383" lon="151.2900641">
  <ele>347.43</ele>
  <time>2026-09-01T20:03:47Z</time>
  <course>0.76</course>
  <speed>0.14</speed>
  <fix>3d</fix>
</trkpt>
<trkpt lat="-27.2744378" lon="151.2900639">
  <ele>347.16</ele>
  <time>2026-09-01T20:03:47Z</time>
  <course>180.64</course>
  <speed>0.1118033988749895</speed>
  <fix>3d</fix>
</trkpt>
<trkpt lat="-27.2744381" lon="151.2900641">
  <ele>347.33</ele>
  <time>2026-09-01T20:03:47Z</time>
  <course>0.28</course>
  <speed>0.12</speed>
  <fix>3d</fix>
</trkpt>
<trkpt lat="-27.2744377" lon="151.2900639">
  <ele>347.11</ele>
  <time>2026-09-01T20:03:47Z</time>
  <course>180.58</course>
  <speed>0.1019803902718557</speed>
  <fix>3d</fix>
</trkpt>
<trkpt lat="-27.2744381" lon="151.2900641">
  <ele>347.33</ele>
  <time>2026-09-01T20:03:47Z</time>
  <course>0.28</course>
  <speed>0.12</speed>
  <fix>3d</fix>
</trkpt>
<trkpt lat="-27.2744376" lon="151.2900639">
  <ele>347.06</ele>
  <time>2026-09-01T20:03:47Z</time>
  <course>180.57</course>
  <speed>0.09219544457292887</speed>
  <fix>3d</fix>
</trkpt>
<trkpt lat="-27.2744379" lon="151.2900641">
  <ele>347.22</ele>
  <time>2026-09-01T20:03:47Z</time>
  <course>359.82</course>
  <speed>0.1</speed>
  <fix>3d</fix>
</trkpt>
<trkpt lat="-27.2744376" lon="151.2900639">
  <ele>347.01</ele>
  <time>2026-09-01T20:03:47Z</time>
  <course>180.59</course>
  <speed>0.0824621125123532</speed>
  <fix>3d</fix>
</trkpt>
<trkpt lat="-27.2744379" lon="151.2900641">
  <ele>347.22</ele>
  <time>2026-09-01T20:03:47Z</time>
  <course>359.82</course>
  <speed>0.1</speed>
  <fix>3d</fix>
</trkpt>
<trkpt lat="-27.2744375" lon="151.2900639">
  <ele>346.96</ele>
  <time>2026-09-01T20:03:47Z</time>
  <course>180.64</course>
  <speed>0.07280109889280519</speed>
  <fix>3d</fix>
</trkpt>
<trkpt lat="-27.2744377" lon="151.2900641">
  <ele>347.13</ele>
  <time>2026-09-01T20:03:47Z</time>
  <course>359.51</course>
  <speed>0.08</speed>
  <fix>3d</fix>
</trkpt>
<trkpt lat="-27.2744374" lon="151.2900639">
  <ele>346.91</ele>
  <time>2026-09-01T20:03:47Z</time>
  <course>180.71</course>
  <speed>0.0632455532033676</speed>
  <fix>3d</fix>
</trkpt>
<trkpt lat="-27.2744377" lon="151.2900641">
  <ele>347.13</ele>
  <time>2026-09-01T20:03:47Z</time>
  <course>359.51</course>
  <speed>0.08</speed>
  <fix>3d</fix>
</trkpt>
<trkpt lat="-27.2744374" lon="151.2900639">
  <ele>346.86</ele>
  <time>2026-09-01T20:03:47Z</time>
  <course>180.77</course>
  <speed>0.053851648071345036</speed>
  <fix>3d</fix>
</trkpt>
<trkpt lat="-27.2744376" lon="151.2900641">
  <ele>347.03</ele>
  <time>2026-09-01T20:03:47Z</time>
  <course>359.26</course>
  <speed>0.05</speed>
  <fix>3d</fix>
</trkpt>
<trkpt lat="-27.2744374" lon="151.2900639">
  <ele>346.81</ele>
  <time>2026-09-01T20:03:47Z</time>
  <course>180.82</course>
  <speed>0.044721359549995794</speed>
  <fix>3d</fix>
</trkpt>
<trkpt lat="-27.2744376" lon="151.2900641">
  <ele>347.03</ele>
  <time>2026-09-01T20:03:47Z</time>
  <course>359.26</course>
  <speed>0.05</speed>
  <fix>3d</fix>
</trkpt>
<trkpt lat="-27.2744374" lon="151.2900639">
  <ele>346.76</ele>
  <time>2026-09-01T20:03:47Z</time>
  <course>180.86</course>
  <speed>0.03605551275463989</speed>
  <fix>3d</fix>
</trkpt>
<trkpt lat="-27.2744375" lon="151.2900641">
  <ele>346.93</ele>
  <time>2026-09-01T20:03:47Z</time>
  <course>358.6</course>
  <speed>0.03</speed>
  <fix>3d</fix>
</trkpt>
<trkpt lat="-27.2744373" lon="151.2900639">
  <ele>346.71</ele>
  <time>2026-09-01T20:03:47Z</time>
  <course>180.87</course>
  <speed>0.0282842712474619</speed>
  <fix>3d</fix>
</trkpt>
<trkpt lat="-27.2744375" lon="151.2900641">
  <ele>346.93</ele>
  <time>2026-09-01T20:03:47Z</time>
  <course>358.6</course>
  <speed>0.03</speed>
  <fix>3d</fix>
</trkpt>
<trkpt lat="-27.2744373" lon="151.2900639">
  <ele>346.66</ele>
  <time>2026-09-01T20:03:47Z</time>
  <course>180.88</course>
  <speed>0.022360679774997897</speed>
  <fix>3d</fix>
</trkpt>
<trkpt lat="-27.2744375" lon="151.2900641">
  <ele>346.83</ele>
  <time>2026-09-01T20:03:47Z</time>
  <course>356.2</course>
  <speed>0.01</speed>
  <fix>3d</fix>
</trkpt>
<trkpt lat="-27.2744374" lon="151.2900639">
  <ele>346.61</ele>
  <time>2026-09-01T20:03:47Z</time>
  <course>180.9</course>
  <speed>0.02</speed>
  <fix>3d</fix>
</trkpt>
<trkpt lat="-27.2744375" lon="151.2900641">
  <ele>346.83</ele>
  <time>2026-09-01T20:03:47Z</time>
  <course>356.2</course>
  <speed>0.01</speed>
  <fix>3d</fix>
</trkpt>
<trkpt lat="-27.2744374" lon="151.2900639">
  <ele>346.56</ele>
  <time>2026-09-01T20:03:47Z</time>
  <course>180.94</course>
  <speed>0.02</speed>
  <fix>3d</fix>
</trkpt>
<trkpt lat="-27.2744375" lon="151.2900641">
  <ele>346.72</ele>
  <time>2026-09-01T20:03:47Z</time>
  <course>160.92</course>
  <speed>0.0</speed>
  <fix>3d</fix>
</trkpt>
<trkpt lat="-27.2744374" lon="151.2900639">
  <ele>346.51</ele>
  <time>2026-09-01T20:03:47Z</time>
  <course>180.98</course>
  <speed>0.01414213562373095</speed>
  <fix>3d</fix>
</trkpt>
<trkpt lat="-27.2744375" lon="151.2900641">
  <ele>346.72</ele>
  <time>2026-09-01T20:03:47Z</time>
  <course>160.92</course>
  <speed>0.0</speed>
  <fix>3d</fix>
</trkpt>
<trkpt lat="-27.2744374" lon="151.2900639">
  <ele>346.46</ele>
  <time>2026-09-01T20:03:47Z</time>
  <course>181.01</course>
  <speed>0.01414213562373095</speed>
  <fix>3d</fix>
</trkpt>
<trkpt lat="-27.2744375" lon="151.2900641">
  <ele>346.63</ele>
  <time>2026-09-01T20:03:47Z</time>
  <course>165.4</course>
  <speed>0.02</speed>
  <fix>3d</fix>
</trkpt>
<trkpt lat="-27.2744374" lon="151.2900639">
  <ele>346.41</ele>
  <time>2026-09-01T20:03:47Z</time>
  <course>181.03</course>
  <speed>0.022360679774997897</speed>
  <fix>3d</fix>
</trkpt>
<trkpt lat="-27.2744375" lon="151.2900641">
  <ele>346.63</ele>
  <time>2026-09-01T20:03:47Z</time>
  <course>165.4</course>
  <speed>0.02</speed>
  <fix>3d</fix>
</trkpt>
<trkpt lat="-27.2744374" lon="151.2900639">
  <ele>346.36</ele>
  <time>2026-09-01T20:03:47Z</time>
  <course>181.04</course>
  <speed>0.03</speed>
  <fix>3d</fix>
</trkpt>
<trkpt lat="-27.2744375" lon="151.2900641">
  <ele>346.53</ele>
  <time>2026-09-01T20:03:47Z</time>
  <course>163.87</course>
  <speed>0.03</speed>
  <fix>3d</fix>
</trkpt>
<trkpt lat="-27.2744375" lon="151.2900639">
  <ele>346.31</ele>
  <time>2026-09-01T20:03:47Z</time>
  <course>181.05</course>
  <speed>0.04</speed>
  <fix>3d</fix>
</trkpt>
<trkpt lat="-27.2744375" lon="151.2900641">
  <ele>346.53</ele>
  <time>2026-09-01T20:03:47Z</time>
  <course>163.87</course>
  <speed>0.03</speed>
  <fix>3d</fix>
</trkpt>
<trkpt lat="-27.2744375" lon="151.2900639">
  <ele>346.26</ele>
  <time>2026-09-01T20:03:47Z</time>
  <course>181.05</course>
  <speed>0.04</speed>
  <fix>3d</fix>
</trkpt>
<trkpt lat="-27.2744376" lon="151.2900641">
  <ele>346.43</ele>
  <time>2026-09-01T20:03:47Z</time>
  <course>163.08</course>
  <speed>0.05</speed>
  <fix>3d</fix>
</trkpt>
<trkpt lat="-27.2744376" lon="151.2900639">
  <ele>346.21</ele>
  <time>2026-09-01T20:03:47Z</time>
  <course>181.04</course>
  <speed>0.05</speed>
  <fix>3d</fix>
</trkpt>
<trkpt lat="-27.2744376" lon="151.2900641">
  <ele>346.43</ele>
  <time>2026-09-01T20:03:47Z</time>
  <course>163.08</course>
  <speed>0.05</speed>
  <fix>3d</fix>
</trkpt>
<trkpt lat="-27.2744376" lon="151.2900639">
  <ele>346.16</ele>
  <time>2026-09-01T20:03:47Z</time>
  <course>181.03</course>
  <speed>0.05</speed>
  <fix>3d</fix>
</trkpt>
<trkpt lat="-27.2744376" lon="151.2900641">
  <ele>346.33</ele>
  <time>2026-09-01T20:03:47Z</time>
  <course>162.87</course>
  <speed>0.06</speed>
  <fix>3d</fix>
</trkpt>
<trkpt lat="-27.2744377" lon="151.2900639">
  <ele>346.11</ele>
  <time>2026-09-01T20:03:47Z</time>
  <course>181.02</course>
  <speed>0.06</speed>
  <fix>3d</fix>
</trkpt>
<trkpt lat="-27.2744376" lon="151.2900641">
  <ele>346.33</ele>
  <time>2026-09-01T20:03:47Z</time>
  <course>162.87</course>
  <speed>0.06</speed>
  <fix>3d</fix>
</trkpt>
<trkpt lat="-27.2744378" lon="151.2900639">
  <ele>346.06</ele>
  <time>2026-09-01T20:03:47Z</time>
  <course>181.0</course>
  <speed>0.06</speed>
  <fix>3d</fix>
</trkpt>
<trkpt lat="-27.2744377" lon="151.2900641">
  <ele>346.22</ele>
  <time>2026-09-01T20:03:47Z</time>
  <course>163.06</course>
  <speed>0.07</speed>
  <fix>3d</fix>
</trkpt>
<trkpt lat="-27.2744378" lon="151.290064">
  <ele>346.01</ele>
  <time>2026-09-01T20:03:47Z</time>
  <course>180.99</course>
  <speed>0.06</speed>
  <fix>3d</fix>
</trkpt>
<trkpt lat="-27.2744377" lon="151.2900641">
  <ele>346.22</ele>
  <time>2026-09-01T20:03:47Z</time>
  <course>163.06</course>
  <speed>0.07</speed>
  <fix>3d</fix>
</trkpt>
<trkpt lat="-27.2744379" lon="151.290064">
  <ele>345.96</ele>
  <time>2026-09-01T20:03:47Z</time>
  <course>180.99</course>
  <speed>0.07</speed>
  <fix>3d</fix>
</trkpt>
<trkpt lat="-27.2744379" lon="151.2900642">
  <ele>346.12</ele>
  <time>2026-09-01T20:03:47Z</time>
  <course>163.11</course>
  <speed>0.08</speed>
  <fix>3d</fix>
</trkpt>
<trkpt lat="-27.274438" lon="151.290064">
  <ele>345.91</ele>
  <time>2026-09-01T20:03:47Z</time>
  <course>181.0</course>
  <speed>0.07</speed>
  <fix>3d</fix>
</trkpt>
<trkpt lat="-27.2744379" lon="151.2900642">
  <ele>346.12</ele>
  <time>2026-09-01T20:03:47Z</time>
  <course>163.11</course>
  <speed>0.08</speed>
  <fix>3d</fix>
</trkpt>
<trkpt lat="-27.2744381" lon="151.290064">
  <ele>345.86</ele>
  <time>2026-09-01T20:03:47Z</time>
  <course>181.01</course>
  <speed>0.07</speed>
  <fix>3d</fix>
</trkpt>
<trkpt lat="-27.274438" lon="151.2900642">
  <ele>346.02</ele>
  <time>2026-09-01T20:03:47Z</time>
  <course>162.77</course>
  <speed>0.09</speed>
  <fix>3d</fix>
</trkpt>
<trkpt lat="-27.2744381" lon="151.2900641">
  <ele>345.81</ele>
  <time>2026-09-01T20:03:47Z</time>
  <course>181.01</course>
  <speed>0.07</speed>
  <fix>3d</fix>
</trkpt>
<trkpt lat="-27.274438" lon="151.2900642">
  <ele>346.02</ele>
  <time>2026-09-01T20:03:47Z</time>
  <course>162.77</course>
  <speed>0.09</speed>
  <fix>3d</fix>
</trkpt>
<trkpt lat="-27.2744382" lon="151.2900641">
  <ele>345.76</ele>
  <time>2026-09-01T20:03:47Z</time>
  <course>181.02</course>
  <speed>0.07</speed>
  <fix>3d</fix>
</trkpt>
<trkpt lat="-27.2744382" lon="151.2900642">
  <ele>345.91</ele>
  <time>2026-09-01T20:03:47Z</time>
  <course>162.3</course>
  <speed>0.1</speed>
  <fix>3d</fix>
</trkpt>
<trkpt lat="-27.2744383" lon="151.2900641">
  <ele>345.71</ele>
  <time>2026-09-01T20:03:47Z</time>
  <course>181.02</course>
  <speed>0.07</speed>
  <fix>3d</fix>
</trkpt>
<trkpt lat="-27.2744382" lon="151.2900642">
  <ele>345.91</ele>
  <time>2026-09-01T20:03:47Z</time>
  <course>162.3</course>
  <speed>0.1</speed>
  <fix>3d</fix>
</trkpt>
<trkpt lat="-27.2744384" lon="151.2900641">
  <ele>345.66</ele>
  <time>2026-09-01T20:03:47Z</time>
  <course>181.02</course>
  <speed>0.07</speed>
  <fix>3d</fix>
</trkpt>
<trkpt lat="-27.2744384" lon="151.2900643">
  <ele>345.82</ele>
  <time>2026-09-01T20:03:47Z</time>
  <course>161.97</course>
  <speed>0.1</speed>
  <fix>3d</fix>
</trkpt>
<trkpt lat="-27.2744385" lon="151.2900642">
  <ele>345.61</ele>
  <time>2026-09-01T20:03:47Z</time>
  <course>181.03</course>
  <speed>0.07</speed>
  <fix>3d</fix>
</trkpt>
<trkpt lat="-27.2744384" lon="151.2900643">
  <ele>345.82</ele>
  <time>2026-09-01T20:03:47Z</time>
  <course>161.97</course>
  <speed>0.1</speed>
  <fix>3d</fix>
</trkpt>
<trkpt lat="-27.2744385" lon="151.2900642">
  <ele>345.56</ele>
  <time>2026-09-01T20:03:47Z</time>
  <course>181.04</course>
  <speed>0.07</speed>
  <fix>3d</fix>
</trkpt>
<trkpt lat="-27.2744385" lon="151.2900644">
  <ele>345.72</ele>
  <time>2026-09-01T20:03:47Z</time>
  <course>161.97</course>
  <speed>0.1</speed>
  <fix>3d</fix>
</trkpt>
<trkpt lat="-27.2744386" lon="151.2900642">
  <ele>345.51</ele>
  <time>2026-09-01T20:03:47Z</time>
  <course>181.05</course>
  <speed>0.07</speed>
  <fix>3d</fix>
</trkpt>
<trkpt lat="-27.2744385" lon="151.2900644">
  <ele>345.72</ele>
  <time>2026-09-01T20:03:47Z</time>
  <course>161.97</course>
  <speed>0.1</speed>
  <fix>3d</fix>
</trkpt>
<trkpt lat="-27.2744387" lon="151.2900642">
  <ele>345.46</ele>
  <time>2026-09-01T20:03:47Z</time>
  <course>181.05</course>
  <speed>0.07</speed>
  <fix>3d</fix>
</trkpt>
<trkpt lat="-27.2744388" lon="151.2900645">
  <ele>345.62</ele>
  <time>2026-09-01T20:03:47Z</time>
  <course>162.21</course>
  <speed>0.1</speed>
  <fix>3d</fix>
</trkpt>
<trkpt lat="-27.2744388" lon="151.2900643">
  <ele>345.41</ele>
  <time>2026-09-01T20:03:47Z</time>
  <course>181.05</course>
  <speed>0.07</speed>
  <fix>3d</fix>
</trkpt>
<trkpt lat="-27.2744388" lon="151.2900645">
  <ele>345.62</ele>
  <time>2026-09-01T20:03:47Z</time>
  <course>162.21</course>
  <speed>0.1</speed>
  <fix>3d</fix>
</trkpt>
<trkpt lat="-27.2744389" lon="151.2900643">
  <ele>345.36</ele>
  <time>2026-09-01T20:03:47Z</time>
  <course>181.06</course>
  <speed>0.07</speed>
  <fix>3d</fix>
</trkpt>
<trkpt lat="-27.274439" lon="151.2900645">
  <ele>345.52</ele>
  <time>2026-09-01T20:03:47Z</time>
  <course>162.49</course>
  <speed>0.1</speed>
  <fix>3d</fix>
</trkpt>
<trkpt lat="-27.274439" lon="151.2900643">
  <ele>345.31</ele>
  <time>2026-09-01T20:03:47Z</time>
  <course>181.06</course>
  <speed>0.07</speed>
  <fix>3d</fix>
</trkpt>
<trkpt lat="-27.274439" lon="151.2900645">
  <ele>345.52</ele>
  <time>2026-09-01T20:03:47Z</time>
  <course>162.49</course>
  <speed>0.1</speed>
  <fix>3d</fix>
</trkpt>
<trkpt lat="-27.2744391" lon="151.2900643">
  <ele>345.26</ele>
  <time>2026-09-01T20:03:47Z</time>
  <course>181.06</course>
  <speed>0.07</speed>
  <fix>3d</fix>
</trkpt>
<trkpt lat="-27.2744391" lon="151.2900646">
  <ele>345.41</ele>
  <time>2026-09-01T20:03:47Z</time>
  <course>162.64</course>
  <speed>0.1</speed>
  <fix>3d</fix>
</trkpt>
<trkpt lat="-27.2744391" lon="151.2900644">
  <ele>345.21</ele>
  <time>2026-09-01T20:03:47Z</time>
  <course>181.05</course>
  <speed>0.06</speed>
  <fix>3d</fix>
</trkpt>
<trkpt lat="-27.2744391" lon="151.2900646">
  <ele>345.41</ele>
  <time>2026-09-01T20:03:47Z</time>
  <course>162.64</course>
  <speed>0.1</speed>
  <fix>3d</fix>
</trkpt>
<trkpt lat="-27.2744392" lon="151.2900644">
  <ele>345.16</ele>
  <time>2026-09-01T20:03:47Z</time>
  <course>181.04</course>
  <speed>0.06</speed>
  <fix>3d</fix>
</trkpt>
<trkpt lat="-27.2744393" lon="151.2900646">
  <ele>345.32</ele>
  <time>2026-09-01T20:03:47Z</time>
  <course>162.51</course>
  <speed>0.1</speed>
  <fix>3d</fix>
</trkpt>
<trkpt lat="-27.2744393" lon="151.2900644">
  <ele>345.11</ele>
  <time>2026-09-01T20:03:47Z</time>
  <course>181.04</course>
  <speed>0.05</speed>
  <fix>3d</fix>
</trkpt>
<trkpt lat="-27.2744393" lon="151.2900646">
  <ele>345.32</ele>
  <time>2026-09-01T20:03:47Z</time>
  <course>162.51</course>
  <speed>0.1</speed>
  <fix>3d</fix>
</trkpt>
<trkpt lat="-27.2744394" lon="151.2900645">
  <ele>345.06</ele>
  <time>2026-09-01T20:03:47Z</time>
  <course>181.04</course>
  <speed>0.05</speed>
  <fix>3d</fix>
</trkpt>
<trkpt lat="-27.2744395" lon="151.2900647">
  <ele>345.22</ele>
  <time>2026-09-01T20:03:47Z</time>
  <course>161.96</course>
  <speed>0.09</speed>
  <fix>3d</fix>
</trkpt>
<trkpt lat="-27.2744394" lon="151.2900645">
  <ele>345.01</ele>
  <time>2026-09-01T20:03:47Z</time>
  <course>181.04</course>
  <speed>0.05</speed>
  <fix>3d</fix>
</trkpt>
<trkpt lat="-27.2744395" lon="151.2900647">
  <ele>345.22</ele>
  <time>2026-09-01T20:03:47Z</time>
  <course>161.96</course>
  <speed>0.09</speed>
  <fix>3d</fix>
</trkpt>
<trkpt lat="-27.2744395" lon="151.2900645">
  <ele>344.96</ele>
  <time>2026-09-01T20:03:47Z</time>
  <course>181.04</course>
  <speed>0.04</speed>
  <fix>3d</fix>
</trkpt>
<trkpt lat="-27.2744396" lon="151.2900648">
  <ele>345.12</ele>
  <time>2026-09-01T20:03:47Z</time>
  <course>161.03</course>
  <speed>0.08</speed>
  <fix>3d</fix>
</trkpt>
<trkpt lat="-27.2744396" lon="151.2900645">
  <ele>344.91</ele>
  <time>2026-09-01T20:03:47Z</time>
  <course>181.04</course>
  <speed>0.04</speed>
  <fix>3d</fix>
</trkpt>
<trkpt lat="-27.2744396" lon="151.2900648">
  <ele>345.12</ele>
  <time>2026-09-01T20:03:47Z</time>
  <course>161.03</course>
  <speed>0.08</speed>
  <fix>3d</fix>
</trkpt>
<trkpt lat="-27.2744396" lon="151.2900646">
  <ele>344.86</ele>
  <time>2026-09-01T20:03:47Z</time>
  <course>181.04</course>
  <speed>0.03</speed>
  <fix>3d</fix>
</trkpt>
<trkpt lat="-27.2744397" lon="151.2900649">
  <ele>345.02</ele>
  <time>2026-09-01T20:03:47Z</time>
  <course>160.1</course>
  <speed>0.07</speed>
  <fix>3d</fix>
</trkpt>
<trkpt lat="-27.2744397" lon="151.2900646">
  <ele>344.81</ele>
  <time>2026-09-01T20:03:47Z</time>
  <course>181.05</course>
  <speed>0.03</speed>
  <fix>3d</fix>
</trkpt>
<trkpt lat="-27.2744397" lon="151.2900649">
  <ele>345.02</ele>
  <time>2026-09-01T20:03:47Z</time>
  <course>160.1</course>
  <speed>0.07</speed>
  <fix>3d</fix>
</trkpt>
<trkpt lat="-27.2744397" lon="151.2900646">
  <ele>344.76</ele>
  <time>2026-09-01T20:03:47Z</time>
  <course>181.05</course>
  <speed>0.02</speed>
  <fix>3d</fix>
</trkpt>
<trkpt lat="-27.2744399" lon="151.2900649">
  <ele>344.91</ele>
  <time>2026-09-01T20:03:47Z</time>
  <course>159.32</course>
  <speed>0.06</speed>
  <fix>3d</fix>
</trkpt>
<trkpt lat="-27.2744398" lon="151.2900646">
  <ele>344.71</ele>
  <time>2026-09-01T20:03:47Z</time>
  <course>181.05</course>
  <speed>0.02</speed>
  <fix>3d</fix>
</trkpt>
<trkpt lat="-27.2744399" lon="151.2900649">
  <ele>344.91</ele>
  <time>2026-09-01T20:03:47Z</time>
  <course>159.32</course>
  <speed>0.06</speed>
  <fix>3d</fix>
</trkpt>
<trkpt lat="-27.2744398" lon="151.2900646">
  <ele>344.66</ele>
  <time>2026-09-01T20:03:48Z</time>
  <course>181.06</course>
  <speed>0.01</speed>
  <fix>3d</fix>
</trkpt>
<trkpt lat="-27.27444" lon="151.290065">
  <ele>344.82</ele>
  <time>2026-09-01T20:03:48Z</time>
  <course>158.75</course>
  <speed>0.05</speed>
  <fix>3d</fix>
</trkpt>
<trkpt lat="-27.2744398" lon="151.2900647">
  <ele>344.61</ele>
  <time>2026-09-01T20:03:48Z</time>
  <course>181.06</course>
  <speed>0.01414213562373095</speed>
  <fix>3d</fix>
</trkpt>
<trkpt lat="-27.27444" lon="151.290065">
  <ele>344.82</ele>
  <time>2026-09-01T20:03:48Z</time>
  <course>158.75</course>
  <speed>0.05</speed>
  <fix>3d</fix>
</trkpt>
<trkpt lat="-27.2744399" lon="151.2900647">
  <ele>344.56</ele>
  <time>2026-09-01T20:03:48Z</time>
  <course>181.07</course>
  <speed>0.01</speed>
  <fix>3d</fix>
</trkpt>
<trkpt lat="-27.2744401" lon="151.290065">
  <ele>344.72</ele>
  <time>2026-09-01T20:03:48Z</time>
  <course>158.73</course>
  <speed>0.04</speed>
  <fix>3d</fix>
</trkpt>
<trkpt lat="-27.2744399" lon="151.2900647">
  <ele>344.51</ele>
  <time>2026-09-01T20:03:48Z</time>
  <course>181.09</course>
  <speed>0.01</speed>
  <fix>3d</fix>
</trkpt>
<trkpt lat="-27.2744401" lon="151.290065">
  <ele>344.72</ele>
  <time>2026-09-01T20:03:48Z</time>
  <course>158.73</course>
  <speed>0.04</speed>
  <fix>3d</fix>
</trkpt>
<trkpt lat="-27.2744399" lon="151.2900647">
  <ele>344.46</ele>
  <time>2026-09-01T20:03:48Z</time>
  <course>181.11</course>
  <speed>0.01</speed>
  <fix>3d</fix>
</trkpt>
<trkpt lat="-27.2744401" lon="151.290065">
  <ele>344.62</ele>
  <time>2026-09-01T20:03:48Z</time>
  <course>159.55</course>
  <speed>0.03</speed>
  <fix>3d</fix>
</trkpt>
<trkpt lat="-27.2744399" lon="151.2900647">
  <ele>344.41</ele>
  <time>2026-09-01T20:03:48Z</time>
  <course>181.12</course>
  <speed>0.01</speed>
  <fix>3d</fix>
</trkpt>
<trkpt lat="-27.2744401" lon="151.290065">
  <ele>344.62</ele>
  <time>2026-09-01T20:03:48Z</time>
  <course>159.55</course>
  <speed>0.03</speed>
  <fix>3d</fix>
</trkpt>
<trkpt lat="-27.27444" lon="151.2900647">
  <ele>344.36</ele>
  <time>2026-09-01T20:03:48Z</time>
  <course>181.13</course>
  <speed>0.01414213562373095</speed>
  <fix>3d</fix>
</trkpt>
<trkpt lat="-27.2744402" lon="151.2900651">
  <ele>344.52</ele>
  <time>2026-09-01T20:03:48Z</time>
  <course>160.64</course>
  <speed>0.02</speed>
  <fix>3d</fix>
</trkpt>
<trkpt lat="-27.27444" lon="151.2900647">
  <ele>344.31</ele>
  <time>2026-09-01T20:03:48Z</time>
  <course>181.13</course>
  <speed>0.022360679774997897</speed>
  <fix>3d</fix>
</trkpt>
<trkpt lat="-27.2744402" lon="151.2900651">
  <ele>344.52</ele>
  <time>2026-09-01T20:03:48Z</time>
  <course>160.64</course>
  <speed>0.02</speed>
  <fix>3d</fix>
</trkpt>
<trkpt lat="-27.27444" lon="151.2900648">
  <ele>344.26</ele>
  <time>2026-09-01T20:03:48Z</time>
  <course>181.12</course>
  <speed>0.0282842712474619</speed>
  <fix>3d</fix>
</trkpt>
<trkpt lat="-27.2744402" lon="151.2900651">
  <ele>344.41</ele>
  <time>2026-09-01T20:03:48Z</time>
  <course>161.27</course>
  <speed>0.01</speed>
  <fix>3d</fix>
</trkpt>
<trkpt lat="-27.27444" lon="151.2900648">
  <ele>344.21</ele>
  <time>2026-09-01T20:03:48Z</time>
  <course>181.12</course>
  <speed>0.0282842712474619</speed>
  <fix>3d</fix>
</trkpt>
<trkpt lat="-27.2744402" lon="151.2900651">
  <ele>344.41</ele>
  <time>2026-09-01T20:03:48Z</time>
  <course>161.27</course>
  <speed>0.01</speed>
  <fix>3d</fix>
</trkpt>
<trkpt lat="-27.27444" lon="151.2900648">
  <ele>344.16</ele>
  <time>2026-09-01T20:03:48Z</time>
  <course>181.12</course>
  <speed>0.0282842712474619</speed>
  <fix>3d</fix>
</trkpt>
<trkpt lat="-27.2744403" lon="151.2900651">
  <ele>344.32</ele>
  <time>2026-09-01T20:03:48Z</time>
  <course>162.38</course>
  <speed>0.0</speed>
  <fix>3d</fix>
</trkpt>
<trkpt lat="-27.27444" lon="151.2900648">
  <ele>344.11</ele>
  <time>2026-09-01T20:03:48Z</time>
  <course>181.14</course>
  <speed>0.03605551275463989</speed>
  <fix>3d</fix>
</trkpt>
<trkpt lat="-27.2744403" lon="151.2900651">
  <ele>344.32</ele>
  <time>2026-09-01T20:03:48Z</time>
  <course>162.38</course>
  <speed>0.0</speed>
  <fix>3d</fix>
</trkpt>
<trkpt lat="-27.27444" lon="151.2900648">
  <ele>344.06</ele>
  <time>2026-09-01T20:03:48Z</time>
  <course>181.18</course>
  <speed>0.03605551275463989</speed>
  <fix>3d</fix>
</trkpt>
<trkpt lat="-27.2744403" lon="151.2900651">
  <ele>344.22</ele>
  <time>2026-09-01T20:03:48Z</time>
  <course>19.9</course>
  <speed>0.0</speed>
  <fix>3d</fix>
</trkpt>
<trkpt lat="-27.27444" lon="151.2900648">
  <ele>344.01</ele>
  <time>2026-09-01T20:03:48Z</time>
  <course>181.24</course>
  <speed>0.03605551275463989</speed>
  <fix>3d</fix>
</trkpt>
<trkpt lat="-27.2744403" lon="151.2900651">
  <ele>344.22</ele>
  <time>2026-09-01T20:03:48Z</time>
  <course>19.9</course>
  <speed>0.0</speed>
  <fix>3d</fix>
</trkpt>
<trkpt lat="-27.27444" lon="151.2900648">
  <ele>343.96</ele>
  <time>2026-09-01T20:03:48Z</time>
  <course>181.29</course>
  <speed>0.03605551275463989</speed>
  <fix>3d</fix>
</trkpt>
<trkpt lat="-27.2744403" lon="151.2900651">
  <ele>344.12</ele>
  <time>2026-09-01T20:03:48Z</time>
  <course>5.82</course>
  <speed>0.0</speed>
  <fix>3d</fix>
</trkpt>
<trkpt lat="-27.27444" lon="151.2900648">
  <ele>343.91</ele>
  <time>2026-09-01T20:03:48Z</time>
  <course>181.34</course>
  <speed>0.044721359549995794</speed>
  <fix>3d</fix>
</trkpt>
<trkpt lat="-27.2744403" lon="151.2900651">
  <ele>344.12</ele>
  <time>2026-09-01T20:03:48Z</time>
  <course>5.82</course>
  <speed>0.0</speed>
  <fix>3d</fix>
</trkpt>
<trkpt lat="-27.27444" lon="151.2900648">
  <ele>343.86</ele>
  <time>2026-09-01T20:03:48Z</time>
  <course>181.39</course>
  <speed>0.044721359549995794</speed>
  <fix>3d</fix>
</trkpt>
<trkpt lat="-27.2744402" lon="151.2900651">
  <ele>344.02</ele>
  <time>2026-09-01T20:03:48Z</time>
  <course>4.82</course>
  <speed>0.01</speed>
  <fix>3d</fix>
</trkpt>
<trkpt lat="-27.27444" lon="151.2900648">
  <ele>343.81</ele>
  <time>2026-09-01T20:03:48Z</time>
  <course>181.42</course>
  <speed>0.044721359549995794</speed>
  <fix>3d</fix>
</trkpt>
<trkpt lat="-27.2744402" lon="151.2900651">
  <ele>344.02</ele>
  <time>2026-09-01T20:03:48Z</time>
  <course>4.82</course>
  <speed>0.01</speed>
  <fix>3d</fix>
</trkpt>
<trkpt lat="-27.27444" lon="151.2900648">
  <ele>343.76</ele>
  <time>2026-09-01T20:03:48Z</time>
  <course>181.43</course>
  <speed>0.044721359549995794</speed>
  <fix>3d</fix>
</trkpt>
<trkpt lat="-27.2744402" lon="151.2900651">
  <ele>343.91</ele>
  <time>2026-09-01T20:03:48Z</time>
  <course>4.02</course>
  <speed>0.02</speed>
  <fix>3d</fix>
</trkpt>
<trkpt lat="-27.27444" lon="151.2900648">
  <ele>343.71</ele>
  <time>2026-09-01T20:03:48Z</time>
  <course>181.43</course>
  <speed>0.053851648071345036</speed>
  <fix>3d</fix>
</trkpt>
<trkpt lat="-27.2744402" lon="151.2900651">
  <ele>343.91</ele>
  <time>2026-09-01T20:03:48Z</time>
  <course>4.02</course>
  <speed>0.02</speed>
  <fix>3d</fix>
</trkpt>
<trkpt lat="-27.27444" lon="151.2900648">
  <ele>343.66</ele>
  <time>2026-09-01T20:03:48Z</time>
  <course>181.42</course>
  <speed>0.053851648071345036</speed>
  <fix>3d</fix>
</trkpt>
<trkpt lat="-27.2744402" lon="151.2900651">
  <ele>343.82</ele>
  <time>2026-09-01T20:03:48Z</time>
  <course>3.59</course>
  <speed>0.02</speed>
  <fix>3d</fix>
</trkpt>
<trkpt lat="-27.2744399" lon="151.2900648">
  <ele>343.61</ele>
  <time>2026-09-01T20:03:48Z</time>
  <course>181.41</course>
  <speed>0.053851648071345036</speed>
  <fix>3d</fix>
</trkpt>
<trkpt lat="-27.2744402" lon="151.2900651">
  <ele>343.82</ele>
  <time>2026-09-01T20:03:48Z</time>
  <course>3.59</course>
  <speed>0.02</speed>
  <fix>3d</fix>
</trkpt>
<trkpt lat="-27.2744399" lon="151.2900648">
  <ele>343.56</ele>
  <time>2026-09-01T20:03:48Z</time>
  <course>181.4</course>
  <speed>0.05099019513592785</speed>
  <fix>3d</fix>
</trkpt>
<trkpt lat="-27.2744402" lon="151.2900651">
  <ele>343.72</ele>
  <time>2026-09-01T20:03:48Z</time>
  <course>3.26</course>
  <speed>0.02</speed>
  <fix>3d</fix>
</trkpt>
<trkpt lat="-27.2744399" lon="151.2900648">
  <ele>343.51</ele>
  <time>2026-09-01T20:03:48Z</time>
  <course>181.39</course>
  <speed>0.05099019513592785</speed>
  <fix>3d</fix>
</trkpt>
<trkpt lat="-27.2744402" lon="151.2900651">
  <ele>343.72</ele>
  <time>2026-09-01T20:03:48Z</time>
  <course>3.26</course>
  <speed>0.02</speed>
  <fix>3d</fix>
</trkpt>
<trkpt lat="-27.2744399" lon="151.2900648">
  <ele>343.46</ele>
  <time>2026-09-01T20:03:48Z</time>
  <course>181.38</course>
  <speed>0.05099019513592785</speed>
  <fix>3d</fix>
</trkpt>
<trkpt lat="-27.2744401" lon="151.2900651">
  <ele>343.62</ele>
  <time>2026-09-01T20:03:48Z</time>
  <course>3.06</course>
  <speed>0.03</speed>
  <fix>3d</fix>
</trkpt>
<trkpt lat="-27.2744398" lon="151.2900648">
  <ele>343.41</ele>
  <time>2026-09-01T20:03:48Z</time>
  <course>181.38</course>
  <speed>0.053851648071345036</speed>
  <fix>3d</fix>
</trkpt>
<trkpt lat="-27.2744401" lon="151.2900651">
  <ele>343.62</ele>
  <time>2026-09-01T20:03:48Z</time>
  <course>3.06</course>
  <speed>0.03</speed>
  <fix>3d</fix>
</trkpt>
<trkpt lat="-27.2744398" lon="151.2900648">
  <ele>343.36</ele>
  <time>2026-09-01T20:03:48Z</time>
  <course>181.38</course>
  <speed>0.053851648071345036</speed>
  <fix>3d</fix>
</trkpt>
<trkpt lat="-27.2744401" lon="151.2900651">
  <ele>343.52</ele>
  <time>2026-09-01T20:03:48Z</time>
  <course>3.02</course>
  <speed>0.03</speed>
  <fix>3d</fix>
</trkpt>
<trkpt lat="-27.2744398" lon="151.2900648">
  <ele>343.31</ele>
  <time>2026-09-01T20:03:48Z</time>
  <course>181.39</course>
  <speed>0.053851648071345036</speed>
  <fix>3d</fix>
</trkpt>
<trkpt lat="-27.2744401" lon="151.2900651">
  <ele>343.52</ele>
  <time>2026-09-01T20:03:48Z</time>
  <course>3.02</course>
  <speed>0.03</speed>
  <fix>3d</fix>
</trkpt>
<trkpt lat="-27.2744398" lon="151.2900648">
  <ele>343.26</ele>
  <time>2026-09-01T20:03:48Z</time>
  <course>181.41</course>
  <speed>0.053851648071345036</speed>
  <fix>3d</fix>
</trkpt>
<trkpt lat="-27.27444" lon="151.2900651">
  <ele>343.41</ele>
  <time>2026-09-01T20:03:48Z</time>
  <course>3.16</course>
  <speed>0.03</speed>
  <fix>3d</fix>
</trkpt>
<trkpt lat="-27.2744397" lon="151.2900648">
  <ele>343.21</ele>
  <time>2026-09-01T20:03:48Z</time>
  <course>181.43</course>
  <speed>0.053851648071345036</speed>
  <fix>3d</fix>
</trkpt>
<trkpt lat="-27.27444" lon="151.2900651">
  <ele>343.41</ele>
  <time>2026-09-01T20:03:48Z</time>
  <course>3.16</course>
  <speed>0.03</speed>
  <fix>3d</fix>
</trkpt>
<trkpt lat="-27.2744397" lon="151.2900648">
  <ele>343.16</ele>
  <time>2026-09-01T20:03:48Z</time>
  <course>181.45</course>
  <speed>0.053851648071345036</speed>
  <fix>3d</fix>
</trkpt>
<trkpt lat="-27.27444" lon="151.2900651">
  <ele>343.31</ele>
  <time>2026-09-01T20:03:48Z</time>
  <course>3.45</course>
  <speed>0.03</speed>
  <fix>3d</fix>
</trkpt>
<trkpt lat="-27.2744397" lon="151.2900648">
  <ele>343.11</ele>
  <time>2026-09-01T20:03:48Z</time>
  <course>181.48</course>
  <speed>0.053851648071345036</speed>
  <fix>3d</fix>
</trkpt>
<trkpt lat="-27.27444" lon="151.2900651">
  <ele>343.31</ele>
  <time>2026-09-01T20:03:48Z</time>
  <course>3.45</course>
  <speed>0.03</speed>
  <fix>3d</fix>
</trkpt>
<trkpt lat="-27.2744397" lon="151.2900648">
  <ele>343.06</ele>
  <time>2026-09-01T20:03:48Z</time>
  <course>181.51</course>
  <speed>0.05099019513592785</speed>
  <fix>3d</fix>
</trkpt>
<trkpt lat="-27.2744399" lon="151.2900651">
  <ele>343.21</ele>
  <time>2026-09-01T20:03:48Z</time>
  <course>3.85</course>
  <speed>0.03</speed>
  <fix>3d</fix>
</trkpt>
<trkpt lat="-27.2744396" lon="151.2900648">
  <ele>343.03</ele>
  <time>2026-09-01T20:03:48Z</time>
  <course>181.52</course>
  <speed>0.03605551275463989</speed>
  <fix>3d</fix>
</trkpt>
<trkpt lat="-27.2744399" lon="151.2900651">
  <ele>343.21</ele>
  <time>2026-09-01T20:03:48Z</time>
  <course>3.85</course>
  <speed>0.03</speed>
  <fix>3d</fix>
</trkpt>
<trkpt lat="-27.2744396" lon="151.2900648">
  <ele>343.03</ele>
  <time>2026-09-01T20:03:48Z</time>
  <course>181.52</course>
  <speed>0.022360679774997897</speed>
  <fix>3d</fix>
</trkpt>
<trkpt lat="-27.2744398" lon="151.2900651">
  <ele>343.11</ele>
  <time>2026-09-01T20:03:48Z</time>
  <course>4.19</course>
  <speed>0.02</speed>
  <fix>3d</fix>
</trkpt>
<trkpt lat="-27.2744397" lon="151.2900648">
  <ele>343.05</ele>
  <time>2026-09-01T20:03:48Z</time>
  <course>181.52</course>
  <speed>0.02</speed>
  <fix>3d</fix>
</trkpt>
<trkpt lat="-27.2744398" lon="151.2900651">
  <ele>343.11</ele>
  <time>2026-09-01T20:03:48Z</time>
  <course>4.19</course>
  <speed>0.02</speed>
  <fix>3d</fix>
</trkpt>
<trkpt lat="-27.2744397" lon="151.2900648">
  <ele>343.06</ele>
  <time>2026-09-01T20:03:48Z</time>
  <course>181.52</course>
  <speed>0.022360679774997897</speed>
  <fix>3d</fix>
</trkpt>
<trkpt lat="-27.2744398" lon="151.2900651">
  <ele>343.07</ele>
  <time>2026-09-01T20:03:48Z</time>
  <course>4.34</course>
  <speed>0.0</speed>
  <fix>3d</fix>
</trkpt>
<trkpt lat="-27.2744397" lon="151.2900648">
  <ele>343.06</ele>
  <time>2026-09-01T20:03:48Z</time>
  <course>181.53</course>
  <speed>0.022360679774997897</speed>
  <fix>3d</fix>
</trkpt>
<trkpt lat="-27.2744398" lon="151.2900651">
  <ele>343.07</ele>
  <time>2026-09-01T20:03:48Z</time>
  <course>4.34</course>
  <speed>0.0</speed>
  <fix>3d</fix>
</trkpt>
<trkpt lat="-27.2744397" lon="151.2900648">
  <ele>343.06</ele>
  <time>2026-09-01T20:03:48Z</time>
  <course>181.53</course>
  <speed>0.0282842712474619</speed>
  <fix>3d</fix>
</trkpt>
<trkpt lat="-27.2744398" lon="151.2900651">
  <ele>343.09</ele>
  <time>2026-09-01T20:03:48Z</time>
  <course>184.34</course>
  <speed>0.0</speed>
  <fix>3d</fix>
</trkpt>
<trkpt lat="-27.2744397" lon="151.2900648">
  <ele>343.06</ele>
  <time>2026-09-01T20:03:48Z</time>
  <course>181.53</course>
  <speed>0.0282842712474619</speed>
  <fix>3d</fix>
</trkpt>
<trkpt lat="-27.2744398" lon="151.2900651">
  <ele>343.09</ele>
  <time>2026-09-01T20:03:48Z</time>
  <course>184.34</course>
  <speed>0.0</speed>
  <fix>3d</fix>
</trkpt>
<trkpt lat="-27.2744397" lon="151.2900648">
  <ele>343.06</ele>
  <time>2026-09-01T20:03:48Z</time>
  <course>181.53</course>
  <speed>0.022360679774997897</speed>
  <fix>3d</fix>
</trkpt>
<trkpt lat="-27.2744398" lon="151.2900651">
  <ele>343.1</ele>
  <time>2026-09-01T20:03:48Z</time>
  <course>4.35</course>
  <speed>0.0</speed>
  <fix>3d</fix>
</trkpt>
<trkpt lat="-27.2744397" lon="151.2900648">
  <ele>343.05</ele>
  <time>2026-09-01T20:03:48Z</time>
  <course>181.53</course>
  <speed>0.022360679774997897</speed>
  <fix>3d</fix>
</trkpt>
<trkpt lat="-27.2744398" lon="151.2900651">
  <ele>343.1</ele>
  <time>2026-09-01T20:03:48Z</time>
  <course>4.35</course>
  <speed>0.0</speed>
  <fix>3d</fix>
</trkpt>
<trkpt lat="-27.2744397" lon="151.2900648">
  <ele>343.06</ele>
  <time>2026-09-01T20:03:48Z</time>
  <course>181.53</course>
  <speed>0.022360679774997897</speed>
  <fix>3d</fix>
</trkpt>
<trkpt lat="-27.2744398" lon="151.2900651">
  <ele>343.09</ele>
  <time>2026-09-01T20:03:48Z</time>
  <course>4.35</course>
  <speed>0.0</speed>
  <fix>3d</fix>
</trkpt>
<trkpt lat="-27.2744397" lon="151.2900648">
  <ele>343.06</ele>
  <time>2026-09-01T20:03:48Z</time>
  <course>181.53</course>
  <speed>0.022360679774997897</speed>
  <fix>3d</fix>
</trkpt>
<trkpt lat="-27.2744398" lon="151.2900651">
  <ele>343.09</ele>
  <time>2026-09-01T20:03:48Z</time>
  <course>4.35</course>
  <speed>0.0</speed>
  <fix>3d</fix>
</trkpt>
<trkpt lat="-27.2744397" lon="151.2900648">
  <ele>343.06</ele>
  <time>2026-09-01T20:03:48Z</time>
  <course>181.53</course>
  <speed>0.022360679774997897</speed>
  <fix>3d</fix>
</trkpt>
<trkpt lat="-27.2744398" lon="151.2900651">
  <ele>343.09</ele>
  <time>2026-09-01T20:03:48Z</time>
  <course>184.24</course>
  <speed>0.0</speed>
  <fix>3d</fix>
</trkpt>
<trkpt lat="-27.2744397" lon="151.2900648">
  <ele>343.06</ele>
  <time>2026-09-01T20:03:48Z</time>
  <course>181.53</course>
  <speed>0.022360679774997897</speed>
  <fix>3d</fix>
</trkpt>
<trkpt lat="-27.2744398" lon="151.2900651">
  <ele>343.09</ele>
  <time>2026-09-01T20:03:48Z</time>
  <course>184.24</course>
  <speed>0.0</speed>
  <fix>3d</fix>
</trkpt>
<trkpt lat="-27.2744397" lon="151.2900648">
  <ele>343.06</ele>
  <time>2026-09-01T20:03:48Z</time>
  <course>181.53</course>
  <speed>0.022360679774997897</speed>
  <fix>3d</fix>
</trkpt>
<trkpt lat="-27.2744398" lon="151.2900651">
  <ele>343.1</ele>
  <time>2026-09-01T20:03:48Z</time>
  <course>184.17</course>
  <speed>0.0</speed>
  <fix>3d</fix>
</trkpt>
<trkpt lat="-27.2744397" lon="151.2900648">
  <ele>343.06</ele>
  <time>2026-09-01T20:03:48Z</time>
  <course>181.53</course>
  <speed>0.022360679774997897</speed>
  <fix>3d</fix>
</trkpt>
<trkpt lat="-27.2744398" lon="151.2900651">
  <ele>343.1</ele>
  <time>2026-09-01T20:03:48Z</time>
  <course>184.17</course>
  <speed>0.0</speed>
  <fix>3d</fix>
</trkpt>
<trkpt lat="-27.2744397" lon="151.2900648">
  <ele>343.06</ele>
  <time>2026-09-01T20:03:48Z</time>
  <course>181.53</course>
  <speed>0.022360679774997897</speed>
  <fix>3d</fix>
</trkpt>
<trkpt lat="-27.2744398" lon="151.2900651">
  <ele>343.1</ele>
  <time>2026-09-01T20:03:48Z</time>
  <course>4.59</course>
  <speed>0.0</speed>
  <fix>3d</fix>
</trkpt>
<trkpt lat="-27.2744397" lon="151.2900648">
  <ele>343.06</ele>
  <time>2026-09-01T20:03:48Z</time>
  <course>181.53</course>
  <speed>0.022360679774997897</speed>
  <fix>3d</fix>
</trkpt>
<trkpt lat="-27.2744398" lon="151.2900651">
  <ele>343.1</ele>
  <time>2026-09-01T20:03:48Z</time>
  <course>4.59</course>
  <speed>0.0</speed>
  <fix>3d</fix>
</trkpt>
<trkpt lat="-27.2744397" lon="151.2900648">
  <ele>343.06</ele>
  <time>2026-09-01T20:03:48Z</time>
  <course>181.53</course>
  <speed>0.022360679774997897</speed>
  <fix>3d</fix>
</trkpt>
<trkpt lat="-27.2744398" lon="151.2900651">
  <ele>343.1</ele>
  <time>2026-09-01T20:03:48Z</time>
  <course>5.06</course>
  <speed>0.0</speed>
  <fix>3d</fix>
</trkpt>
<trkpt lat="-27.2744397" lon="151.2900648">
  <ele>343.06</ele>
  <time>2026-09-01T20:03:48Z</time>
  <course>181.53</course>
  <speed>0.022360679774997897</speed>
  <fix>3d</fix>
</trkpt>
<trkpt lat="-27.2744398" lon="151.2900651">
  <ele>343.1</ele>
  <time>2026-09-01T20:03:48Z</time>
  <course>5.06</course>
  <speed>0.0</speed>
  <fix>3d</fix>
</trkpt>
<trkpt lat="-27.2744397" lon="151.2900648">
  <ele>343.05</ele>
  <time>2026-09-01T20:03:48Z</time>
  <course>181.53</course>
  <speed>0.022360679774997897</speed>
  <fix>3d</fix>
</trkpt>
<trkpt lat="-27.2744398" lon="151.2900651">
  <ele>343.1</ele>
  <time>2026-09-01T20:03:48Z</time>
  <course>182.94</course>
  <speed>0.0</speed>
  <fix>3d</fix>
</trkpt>
<trkpt lat="-27.2744397" lon="151.2900648">
  <ele>343.05</ele>
  <time>2026-09-01T20:03:48Z</time>
  <course>181.53</course>
  <speed>0.022360679774997897</speed>
  <fix>3d</fix>
</trkpt>
<trkpt lat="-27.2744398" lon="151.2900651">
  <ele>343.1</ele>
  <time>2026-09-01T20:03:48Z</time>
  <course>182.94</course>
  <speed>0.0</speed>
  <fix>3d</fix>
</trkpt>
<trkpt lat="-27.2744397" lon="151.2900648">
  <ele>343.05</ele>
  <time>2026-09-01T20:03:48Z</time>
  <course>181.53</course>
  <speed>0.022360679774997897</speed>
  <fix>3d</fix>
</trkpt>
<trkpt lat="-27.2744398" lon="151.2900651">
  <ele>343.1</ele>
  <time>2026-09-01T20:03:48Z</time>
  <course>170.53</course>
  <speed>0.0</speed>
  <fix>3d</fix>
</trkpt>
<trkpt lat="-27.2744397" lon="151.2900648">
  <ele>343.05</ele>
  <time>2026-09-01T20:03:48Z</time>
  <course>181.53</course>
  <speed>0.022360679774997897</speed>
  <fix>3d</fix>
</trkpt>
<trkpt lat="-27.2744398" lon="151.2900651">
  <ele>343.1</ele>
  <time>2026-09-01T20:03:48Z</time>
  <course>170.53</course>
  <speed>0.0</speed>
  <fix>3d</fix>
</trkpt>
<trkpt lat="-27.2744397" lon="151.2900648">
  <ele>343.05</ele>
  <time>2026-09-01T20:03:48Z</time>
  <course>181.53</course>
  <speed>0.022360679774997897</speed>
  <fix>3d</fix>
</trkpt>
<trkpt lat="-27.2744398" lon="151.2900651">
  <ele>343.1</ele>
  <time>2026-09-01T20:03:48Z</time>
  <course>8.44</course>
  <speed>0.0</speed>
  <fix>3d</fix>
</trkpt>
<trkpt lat="-27.2744397" lon="151.2900648">
  <ele>343.05</ele>
  <time>2026-09-01T20:03:48Z</time>
  <course>181.53</course>
  <speed>0.022360679774997897</speed>
  <fix>3d</fix>
</trkpt>
<trkpt lat="-27.2744398" lon="151.2900651">
  <ele>343.1</ele>
  <time>2026-09-01T20:03:48Z</time>
  <course>8.44</course>
  <speed>0.0</speed>
  <fix>3d</fix>
</trkpt>
<trkpt lat="-27.2744397" lon="151.2900648">
  <ele>343.05</ele>
  <time>2026-09-01T20:03:48Z</time>
  <course>181.53</course>
  <speed>0.022360679774997897</speed>
  <fix>3d</fix>
</trkpt>
<trkpt lat="-27.2744398" lon="151.2900651">
  <ele>343.1</ele>
  <time>2026-09-01T20:03:48Z</time>
  <course>304.91</course>
  <speed>0.0</speed>
  <fix>3d</fix>
</trkpt>
<trkpt lat="-27.2744397" lon="151.2900648">
  <ele>343.05</ele>
  <time>2026-09-01T20:03:48Z</time>
  <course>181.53</course>
  <speed>0.022360679774997897</speed>
  <fix>3d</fix>
</trkpt>
<trkpt lat="-27.2744398" lon="151.2900651">
  <ele>343.1</ele>
  <time>2026-09-01T20:03:48Z</time>
  <course>304.91</course>
  <speed>0.0</speed>
  <fix>3d</fix>
</trkpt>
<trkpt lat="-27.2744397" lon="151.2900648">
  <ele>343.05</ele>
  <time>2026-09-01T20:03:48Z</time>
  <course>181.53</course>
  <speed>0.022360679774997897</speed>
  <fix>3d</fix>
</trkpt>
<trkpt lat="-27.2744398" lon="151.2900651">
  <ele>343.1</ele>
  <time>2026-09-01T20:03:48Z</time>
  <course>297.24</course>
  <speed>0.0</speed>
  <fix>3d</fix>
</trkpt>
<trkpt lat="-27.2744397" lon="151.2900648">
  <ele>343.05</ele>
  <time>2026-09-01T20:03:48Z</time>
  <course>181.53</course>
  <speed>0.022360679774997897</speed>
  <fix>3d</fix>
</trkpt>
<trkpt lat="-27.2744398" lon="151.2900651">
  <ele>343.1</ele>
  <time>2026-09-01T20:03:48Z</time>
  <course>297.24</course>
  <speed>0.0</speed>
  <fix>3d</fix>
</trkpt>
<trkpt lat="-27.2744397" lon="151.2900648">
  <ele>343.05</ele>
  <time>2026-09-01T20:03:48Z</time>
  <course>181.53</course>
  <speed>0.022360679774997897</speed>
  <fix>3d</fix>
</trkpt>
<trkpt lat="-27.2744398" lon="151.2900651">
  <ele>343.1</ele>
  <time>2026-09-01T20:03:48Z</time>
  <course>320.04</course>
  <speed>0.0</speed>
  <fix>3d</fix>
</trkpt>
<trkpt lat="-27.2744397" lon="151.2900648">
  <ele>343.06</ele>
  <time>2026-09-01T20:03:48Z</time>
  <course>181.53</course>
  <speed>0.0282842712474619</speed>
  <fix>3d</fix>
</trkpt>
<trkpt lat="-27.2744398" lon="151.2900651">
  <ele>343.1</ele>
  <time>2026-09-01T20:03:48Z</time>
  <course>320.04</course>
  <speed>0.0</speed>
  <fix>3d</fix>
</trkpt>
<trkpt lat="-27.2744397" lon="151.2900648">
  <ele>343.06</ele>
  <time>2026-09-01T20:03:48Z</time>
  <course>181.53</course>
  <speed>0.0282842712474619</speed>
  <fix>3d</fix>
</trkpt>
<trkpt lat="-27.2744398" lon="151.2900651">
  <ele>343.1</ele>
  <time>2026-09-01T20:03:48Z</time>
  <course>328.52</course>
  <speed>0.0</speed>
  <fix>3d</fix>
</trkpt>
<trkpt lat="-27.2744397" lon="151.2900648">
  <ele>343.06</ele>
  <time>2026-09-01T20:03:48Z</time>
  <course>181.53</course>
  <speed>0.0282842712474619</speed>
  <fix>3d</fix>
</trkpt>
<trkpt lat="-27.2744398" lon="151.2900651">
  <ele>343.1</ele>
  <time>2026-09-01T20:03:48Z</time>
  <course>328.52</course>
  <speed>0.0</speed>
  <fix>3d</fix>
</trkpt>
<trkpt lat="-27.2744397" lon="151.2900648">
  <ele>343.06</ele>
  <time>2026-09-01T20:03:48Z</time>
  <course>181.53</course>
  <speed>0.0282842712474619</speed>
  <fix>3d</fix>
</trkpt>
<trkpt lat="-27.2744398" lon="151.2900651">
  <ele>343.1</ele>
  <time>2026-09-01T20:03:48Z</time>
  <course>319.93</course>
  <speed>0.0</speed>
  <fix>3d</fix>
</trkpt>
<trkpt lat="-27.2744397" lon="151.2900648">
  <ele>343.06</ele>
  <time>2026-09-01T20:03:48Z</time>
  <course>181.53</course>
  <speed>0.0282842712474619</speed>
  <fix>3d</fix>
</trkpt>
<trkpt lat="-27.2744398" lon="151.2900651">
  <ele>343.1</ele>
  <time>2026-09-01T20:03:48Z</time>
  <course>319.93</course>
  <speed>0.0</speed>
  <fix>3d</fix>
</trkpt>
<trkpt lat="-27.2744397" lon="151.2900648">
  <ele>343.06</ele>
  <time>2026-09-01T20:03:48Z</time>
  <course>181.53</course>
  <speed>0.0282842712474619</speed>
  <fix>3d</fix>
</trkpt>
<trkpt lat="-27.2744398" lon="151.2900651">
  <ele>343.1</ele>
  <time>2026-09-01T20:03:48Z</time>
  <course>313.33</course>
  <speed>0.0</speed>
  <fix>3d</fix>
</trkpt>
<trkpt lat="-27.2744397" lon="151.2900648">
  <ele>343.07</ele>
  <time>2026-09-01T20:03:48Z</time>
  <course>181.53</course>
  <speed>0.0282842712474619</speed>
  <fix>3d</fix>
</trkpt>
<trkpt lat="-27.2744398" lon="151.2900651">
  <ele>343.1</ele>
  <time>2026-09-01T20:03:48Z</time>
  <course>313.33</course>
  <speed>0.0</speed>
  <fix>3d</fix>
</trkpt>
<trkpt lat="-27.2744397" lon="151.2900648">
  <ele>343.07</ele>
  <time>2026-09-01T20:03:48Z</time>
  <course>181.53</course>
  <speed>0.0282842712474619</speed>
  <fix>3d</fix>
</trkpt>
<trkpt lat="-27.2744398" lon="151.2900651">
  <ele>343.1</ele>
  <time>2026-09-01T20:03:48Z</time>
  <course>316.11</course>
  <speed>0.0</speed>
  <fix>3d</fix>
</trkpt>
<trkpt lat="-27.2744397" lon="151.2900648">
  <ele>343.07</ele>
  <time>2026-09-01T20:03:48Z</time>
  <course>181.54</course>
  <speed>0.0282842712474619</speed>
  <fix>3d</fix>
</trkpt>
<trkpt lat="-27.2744398" lon="151.2900651">
  <ele>343.1</ele>
  <time>2026-09-01T20:03:48Z</time>
  <course>316.11</course>
  <speed>0.0</speed>
  <fix>3d</fix>
</trkpt>
<trkpt lat="-27.2744397" lon="151.2900648">
  <ele>343.07</ele>
  <time>2026-09-01T20:03:48Z</time>
  <course>181.54</course>
  <speed>0.0282842712474619</speed>
  <fix>3d</fix>
</trkpt>
<trkpt lat="-27.2744398" lon="151.2900651">
  <ele>343.1</ele>
  <time>2026-09-01T20:03:48Z</time>
  <course>316.63</course>
  <speed>0.0</speed>
  <fix>3d</fix>
</trkpt>
<trkpt lat="-27.2744397" lon="151.2900648">
  <ele>343.07</ele>
  <time>2026-09-01T20:03:48Z</time>
  <course>181.54</course>
  <speed>0.0282842712474619</speed>
  <fix>3d</fix>
</trkpt>
<trkpt lat="-27.2744398" lon="151.2900651">
  <ele>343.1</ele>
  <time>2026-09-01T20:03:48Z</time>
  <course>316.63</course>
  <speed>0.0</speed>
  <fix>3d</fix>
</trkpt>
<trkpt lat="-27.2744397" lon="151.2900648">
  <ele>343.07</ele>
  <time>2026-09-01T20:03:48Z</time>
  <course>181.54</course>
  <speed>0.0282842712474619</speed>
  <fix>3d</fix>
</trkpt>
<trkpt lat="-27.2744398" lon="151.2900651">
  <ele>343.1</ele>
  <time>2026-09-01T20:03:48Z</time>
  <course>316.04</course>
  <speed>0.0</speed>
  <fix>3d</fix>
</trkpt>
<trkpt lat="-27.2744397" lon="151.2900648">
  <ele>343.07</ele>
  <time>2026-09-01T20:03:48Z</time>
  <course>181.54</course>
  <speed>0.0282842712474619</speed>
  <fix>3d</fix>
</trkpt>
<trkpt lat="-27.2744398" lon="151.2900651">
  <ele>343.1</ele>
  <time>2026-09-01T20:03:48Z</time>
  <course>316.04</course>
  <speed>0.0</speed>
  <fix>3d</fix>
</trkpt>
<trkpt lat="-27.2744397" lon="151.2900648">
  <ele>343.07</ele>
  <time>2026-09-01T20:03:48Z</time>
  <course>181.54</course>
  <speed>0.0282842712474619</speed>
  <fix>3d</fix>
</trkpt>
<trkpt lat="-27.2744398" lon="151.2900651">
  <ele>343.1</ele>
  <time>2026-09-01T20:03:48Z</time>
  <course>316.08</course>
  <speed>0.0</speed>
  <fix>3d</fix>
</trkpt>
<trkpt lat="-27.2744397" lon="151.2900648">
  <ele>343.07</ele>
  <time>2026-09-01T20:03:48Z</time>
  <course>181.54</course>
  <speed>0.0282842712474619</speed>
  <fix>3d</fix>
</trkpt>
<trkpt lat="-27.2744398" lon="151.2900651">
  <ele>343.1</ele>
  <time>2026-09-01T20:03:48Z</time>
  <course>316.08</course>
  <speed>0.0</speed>
  <fix>3d</fix>
</trkpt>
<trkpt lat="-27.2744397" lon="151.2900648">
  <ele>343.07</ele>
  <time>2026-09-01T20:03:48Z</time>
  <course>181.54</course>
  <speed>0.0282842712474619</speed>
  <fix>3d</fix>
</trkpt>
<trkpt lat="-27.2744398" lon="151.2900651">
  <ele>343.1</ele>
  <time>2026-09-01T20:03:48Z</time>
  <course>316.14</course>
  <speed>0.0</speed>
  <fix>3d</fix>
</trkpt>
<trkpt lat="-27.2744397" lon="151.2900648">
  <ele>343.07</ele>
  <time>2026-09-01T20:03:48Z</time>
  <course>181.54</course>
  <speed>0.0282842712474619</speed>
  <fix>3d</fix>
</trkpt>
<trkpt lat="-27.2744398" lon="151.2900651">
  <ele>343.1</ele>
  <time>2026-09-01T20:03:48Z</time>
  <course>316.14</course>
  <speed>0.0</speed>
  <fix>3d</fix>
</trkpt>
<trkpt lat="-27.2744397" lon="151.2900648">
  <ele>343.07</ele>
  <time>2026-09-01T20:03:48Z</time>
  <course>181.54</course>
  <speed>0.0282842712474619</speed>
  <fix>3d</fix>
</trkpt>
<trkpt lat="-27.2744398" lon="151.2900651">
  <ele>343.1</ele>
  <time>2026-09-01T20:03:48Z</time>
  <course>316.12</course>
  <speed>0.0</speed>
  <fix>3d</fix>
</trkpt>
<trkpt lat="-27.2744397" lon="151.2900648">
  <ele>343.07</ele>
  <time>2026-09-01T20:03:48Z</time>
  <course>181.54</course>
  <speed>0.0282842712474619</speed>
  <fix>3d</fix>
</trkpt>
<trkpt lat="-27.2744398" lon="151.2900651">
  <ele>343.1</ele>
  <time>2026-09-01T20:03:48Z</time>
  <course>316.12</course>
  <speed>0.0</speed>
  <fix>3d</fix>
</trkpt>
<trkpt lat="-27.2744397" lon="151.2900648">
  <ele>343.07</ele>
  <time>2026-09-01T20:03:48Z</time>
  <course>181.54</course>
  <speed>0.0282842712474619</speed>
  <fix>3d</fix>
</trkpt>
<trkpt lat="-27.2744398" lon="151.2900651">
  <ele>343.1</ele>
  <time>2026-09-01T20:03:48Z</time>
  <course>316.1</course>
  <speed>0.0</speed>
  <fix>3d</fix>
</trkpt>
<trkpt lat="-27.2744397" lon="151.2900648">
  <ele>343.07</ele>
  <time>2026-09-01T20:03:48Z</time>
  <course>181.54</course>
  <speed>0.0282842712474619</speed>
  <fix>3d</fix>
</trkpt>
<trkpt lat="-27.2744398" lon="151.2900651">
  <ele>343.1</ele>
  <time>2026-09-01T20:03:48Z</time>
  <course>316.1</course>
  <speed>0.0</speed>
  <fix>3d</fix>
</trkpt>
<trkpt lat="-27.2744397" lon="151.2900648">
  <ele>343.07</ele>
  <time>2026-09-01T20:03:48Z</time>
  <course>181.54</course>
  <speed>0.0282842712474619</speed>
  <fix>3d</fix>
</trkpt>
<trkpt lat="-27.2744398" lon="151.2900651">
  <ele>343.1</ele>
  <time>2026-09-01T20:03:48Z</time>
  <course>316.11</course>
  <speed>0.0</speed>
  <fix>3d</fix>
</trkpt>
<trkpt lat="-27.2744397" lon="151.2900648">
  <ele>343.07</ele>
  <time>2026-09-01T20:03:48Z</time>
  <course>181.54</course>
  <speed>0.0282842712474619</speed>
  <fix>3d</fix>
</trkpt>
<trkpt lat="-27.2744398" lon="151.2900651">
  <ele>343.1</ele>
  <time>2026-09-01T20:03:48Z</time>
  <course>316.11</course>
  <speed>0.0</speed>
  <fix>3d</fix>
</trkpt>
<trkpt lat="-27.2744397" lon="151.2900648">
  <ele>343.07</ele>
  <time>2026-09-01T20:03:48Z</time>
  <course>181.54</course>
  <speed>0.0282842712474619</speed>
  <fix>3d</fix>
</trkpt>
<trkpt lat="-27.2744398" lon="151.2900651">
  <ele>343.1</ele>
  <time>2026-09-01T20:03:48Z</time>
  <course>316.13</course>
  <speed>0.0</speed>
  <fix>3d</fix>
</trkpt>
<trkpt lat="-27.2744397" lon="151.2900648">
  <ele>343.06</ele>
  <time>2026-09-01T20:03:48Z</time>
  <course>181.54</course>
  <speed>0.0282842712474619</speed>
  <fix>3d</fix>
</trkpt>
<trkpt lat="-27.2744398" lon="151.2900651">
  <ele>343.1</ele>
  <time>2026-09-01T20:03:48Z</time>
  <course>316.13</course>
  <speed>0.0</speed>
  <fix>3d</fix>
</trkpt>
<trkpt lat="-27.2744397" lon="151.2900648">
  <ele>343.06</ele>
  <time>2026-09-01T20:03:48Z</time>
  <course>181.54</course>
  <speed>0.0282842712474619</speed>
  <fix>3d</fix>
</trkpt>
<trkpt lat="-27.2744398" lon="151.2900651">
  <ele>343.1</ele>
  <time>2026-09-01T20:03:48Z</time>
  <course>317.54</course>
  <speed>0.0</speed>
  <fix>3d</fix>
</trkpt>
<trkpt lat="-27.2744397" lon="151.2900648">
  <ele>343.06</ele>
  <time>2026-09-01T20:03:48Z</time>
  <course>181.54</course>
  <speed>0.0282842712474619</speed>
  <fix>3d</fix>
</trkpt>
<trkpt lat="-27.2744398" lon="151.2900651">
  <ele>343.1</ele>
  <time>2026-09-01T20:03:48Z</time>
  <course>317.54</course>
  <speed>0.0</speed>
  <fix>3d</fix>
</trkpt>
<trkpt lat="-27.2744397" lon="151.2900648">
  <ele>343.06</ele>
  <time>2026-09-01T20:03:48Z</time>
  <course>181.54</course>
  <speed>0.0282842712474619</speed>
  <fix>3d</fix>
</trkpt>
<trkpt lat="-27.2744398" lon="151.2900651">
  <ele>343.1</ele>
  <time>2026-09-01T20:03:48Z</time>
  <course>1.54</course>
  <speed>0.0</speed>
  <fix>3d</fix>
</trkpt>
<trkpt lat="-27.2744397" lon="151.2900648">
  <ele>343.06</ele>
  <time>2026-09-01T20:03:48Z</time>
  <course>181.54</course>
  <speed>0.0282842712474619</speed>
  <fix>3d</fix>
</trkpt>
<trkpt lat="-27.2744398" lon="151.2900651">
  <ele>343.1</ele>
  <time>2026-09-01T20:03:48Z</time>
  <course>1.54</course>
  <speed>0.0</speed>
  <fix>3d</fix>
</trkpt>
<trkpt lat="-27.2744397" lon="151.2900648">
  <ele>343.06</ele>
  <time>2026-09-01T20:03:48Z</time>
  <course>181.54</course>
  <speed>0.0282842712474619</speed>
  <fix>3d</fix>
</trkpt>
<trkpt lat="-27.2744398" lon="151.2900651">
  <ele>343.1</ele>
  <time>2026-09-01T20:03:48Z</time>
  <course>353.76</course>
  <speed>0.0</speed>
  <fix>3d</fix>
</trkpt>
<trkpt lat="-27.2744397" lon="151.2900648">
  <ele>343.06</ele>
  <time>2026-09-01T20:03:48Z</time>
  <course>181.54</course>
  <speed>0.0282842712474619</speed>
  <fix>3d</fix>
</trkpt>
<trkpt lat="-27.2744398" lon="151.2900651">
  <ele>343.1</ele>
  <time>2026-09-01T20:03:48Z</time>
  <course>353.76</course>
  <speed>0.0</speed>
  <fix>3d</fix>
</trkpt>
<trkpt lat="-27.2744397" lon="151.2900648">
  <ele>343.06</ele>
  <time>2026-09-01T20:03:48Z</time>
  <course>181.54</course>
  <speed>0.0282842712474619</speed>
  <fix>3d</fix>
</trkpt>
<trkpt lat="-27.2744398" lon="151.2900651">
  <ele>343.1</ele>
  <time>2026-09-01T20:03:48Z</time>
  <course>315.12</course>
  <speed>0.0</speed>
  <fix>3d</fix>
</trkpt>
<trkpt lat="-27.2744397" lon="151.2900648">
  <ele>343.06</ele>
  <time>2026-09-01T20:03:48Z</time>
  <course>181.54</course>
  <speed>0.0282842712474619</speed>
  <fix>3d</fix>
</trkpt>
<trkpt lat="-27.2744398" lon="151.2900651">
  <ele>343.1</ele>
  <time>2026-09-01T20:03:48Z</time>
  <course>315.12</course>
  <speed>0.0</speed>
  <fix>3d</fix>
</trkpt>
<trkpt lat="-27.2744397" lon="151.2900648">
  <ele>343.07</ele>
  <time>2026-09-01T20:03:48Z</time>
  <course>181.53</course>
  <speed>0.0282842712474619</speed>
  <fix>3d</fix>
</trkpt>
<trkpt lat="-27.2744398" lon="151.2900651">
  <ele>343.1</ele>
  <time>2026-09-01T20:03:48Z</time>
  <course>306.44</course>
  <speed>0.0</speed>
  <fix>3d</fix>
</trkpt>
<trkpt lat="-27.2744397" lon="151.2900648">
  <ele>343.07</ele>
  <time>2026-09-01T20:03:48Z</time>
  <course>181.53</course>
  <speed>0.0282842712474619</speed>
  <fix>3d</fix>
</trkpt>
<trkpt lat="-27.2744398" lon="151.2900651">
  <ele>343.1</ele>
  <time>2026-09-01T20:03:48Z</time>
  <course>306.44</course>
  <speed>0.0</speed>
  <fix>3d</fix>
</trkpt>
<trkpt lat="-27.2744397" lon="151.2900648">
  <ele>343.07</ele>
  <time>2026-09-01T20:03:48Z</time>
  <course>181.53</course>
  <speed>0.0282842712474619</speed>
  <fix>3d</fix>
</trkpt>
<trkpt lat="-27.2744398" lon="151.2900651">
  <ele>343.1</ele>
  <time>2026-09-01T20:03:48Z</time>
  <course>305.21</course>
  <speed>0.0</speed>
  <fix>3d</fix>
</trkpt>
<trkpt lat="-27.2744397" lon="151.2900648">
  <ele>343.06</ele>
  <time>2026-09-01T20:03:48Z</time>
  <course>181.53</course>
  <speed>0.0282842712474619</speed>
  <fix>3d</fix>
</trkpt>
<trkpt lat="-27.2744398" lon="151.2900651">
  <ele>343.1</ele>
  <time>2026-09-01T20:03:48Z</time>
  <course>305.21</course>
  <speed>0.0</speed>
  <fix>3d</fix>
</trkpt>
<trkpt lat="-27.2744397" lon="151.2900648">
  <ele>343.06</ele>
  <time>2026-09-01T20:03:48Z</time>
  <course>181.52</course>
  <speed>0.0282842712474619</speed>
  <fix>3d</fix>
</trkpt>
<trkpt lat="-27.2744398" lon="151.2900651">
  <ele>343.1</ele>
  <time>2026-09-01T20:03:48Z</time>
  <course>128.05</course>
  <speed>0.0</speed>
  <fix>3d</fix>
</trkpt>
<trkpt lat="-27.2744397" lon="151.2900648">
  <ele>343.06</ele>
  <time>2026-09-01T20:03:48Z</time>
  <course>181.52</course>
  <speed>0.0282842712474619</speed>
  <fix>3d</fix>
</trkpt>
<trkpt lat="-27.2744398" lon="151.2900651">
  <ele>343.1</ele>
  <time>2026-09-01T20:03:48Z</time>
  <course>128.05</course>
  <speed>0.0</speed>
  <fix>3d</fix>
</trkpt>
<trkpt lat="-27.2744397" lon="151.2900648">
  <ele>343.09</ele>
  <time>2026-09-01T20:03:48Z</time>
  <course>181.52</course>
  <speed>0.0282842712474619</speed>
  <fix>3d</fix>
</trkpt>
<trkpt lat="-27.2744398" lon="151.2900651">
  <ele>343.1</ele>
  <time>2026-09-01T20:03:48Z</time>
  <course>124.94</course>
  <speed>0.0</speed>
  <fix>3d</fix>
</trkpt>
<trkpt lat="-27.2744397" lon="151.2900648">
  <ele>343.09</ele>
  <time>2026-09-01T20:03:48Z</time>
  <course>181.52</course>
  <speed>0.0282842712474619</speed>
  <fix>3d</fix>
</trkpt>
<trkpt lat="-27.2744398" lon="151.2900651">
  <ele>343.1</ele>
  <time>2026-09-01T20:03:48Z</time>
  <course>124.94</course>
  <speed>0.0</speed>
  <fix>3d</fix>
</trkpt>
<trkpt lat="-27.2744397" lon="151.2900648">
  <ele>343.09</ele>
  <time>2026-09-01T20:03:48Z</time>
  <course>181.51</course>
  <speed>0.0282842712474619</speed>
  <fix>3d</fix>
</trkpt>
<trkpt lat="-27.2744398" lon="151.2900651">
  <ele>343.1</ele>
  <time>2026-09-01T20:03:48Z</time>
  <course>306.43</course>
  <speed>0.0</speed>
  <fix>3d</fix>
</trkpt>
<trkpt lat="-27.2744397" lon="151.2900648">
  <ele>343.1</ele>
  <time>2026-09-01T20:03:48Z</time>
  <course>181.51</course>
  <speed>0.0282842712474619</speed>
  <fix>3d</fix>
</trkpt>
<trkpt lat="-27.2744398" lon="151.2900651">
  <ele>343.1</ele>
  <time>2026-09-01T20:03:48Z</time>
  <course>306.43</course>
  <speed>0.0</speed>
  <fix>3d</fix>
</trkpt>
<trkpt lat="-27.2744397" lon="151.2900648">
  <ele>343.1</ele>
  <time>2026-09-01T20:03:48Z</time>
  <course>181.51</course>
  <speed>0.0282842712474619</speed>
  <fix>3d</fix>
</trkpt>
<trkpt lat="-27.2744398" lon="151.2900651">
  <ele>343.1</ele>
  <time>2026-09-01T20:03:48Z</time>
  <course>304.55</course>
  <speed>0.0</speed>
  <fix>3d</fix>
</trkpt>
<trkpt lat="-27.2744397" lon="151.2900648">
  <ele>343.1</ele>
  <time>2026-09-01T20:03:48Z</time>
  <course>181.5</course>
  <speed>0.0282842712474619</speed>
  <fix>3d</fix>
</trkpt>
<trkpt lat="-27.2744398" lon="151.2900651">
  <ele>343.1</ele>
  <time>2026-09-01T20:03:48Z</time>
  <course>304.55</course>
  <speed>0.0</speed>
  <fix>3d</fix>
</trkpt>
<trkpt lat="-27.2744397" lon="151.2900648">
  <ele>343.1</ele>
  <time>2026-09-01T20:03:48Z</time>
  <course>181.5</course>
  <speed>0.0282842712474619</speed>
  <fix>3d</fix>
</trkpt>
<trkpt lat="-27.2744398" lon="151.2900651">
  <ele>343.1</ele>
  <time>2026-09-01T20:03:48Z</time>
  <course>125.87</course>
  <speed>0.0</speed>
  <fix>3d</fix>
</trkpt>
<trkpt lat="-27.2744397" lon="151.2900648">
  <ele>343.11</ele>
  <time>2026-09-01T20:03:48Z</time>
  <course>181.5</course>
  <speed>0.0282842712474619</speed>
  <fix>3d</fix>
</trkpt>
<trkpt lat="-27.2744398" lon="151.2900651">
  <ele>343.1</ele>
  <time>2026-09-01T20:03:48Z</time>
  <course>125.87</course>
  <speed>0.0</speed>
  <fix>3d</fix>
</trkpt>
<trkpt lat="-27.2744397" lon="151.2900648">
  <ele>343.11</ele>
  <time>2026-09-01T20:03:48Z</time>
  <course>181.5</course>
  <speed>0.0282842712474619</speed>
  <fix>3d</fix>
</trkpt>
<trkpt lat="-27.2744398" lon="151.2900651">
  <ele>343.1</ele>
  <time>2026-09-01T20:03:48Z</time>
  <course>123.81</course>
  <speed>0.0</speed>
  <fix>3d</fix>
</trkpt>
<trkpt lat="-27.2744397" lon="151.2900648">
  <ele>343.11</ele>
  <time>2026-09-01T20:03:48Z</time>
  <course>181.49</course>
  <speed>0.0282842712474619</speed>
  <fix>3d</fix>
</trkpt>
<trkpt lat="-27.2744398" lon="151.2900651">
  <ele>343.1</ele>
  <time>2026-09-01T20:03:48Z</time>
  <course>123.81</course>
  <speed>0.0</speed>
  <fix>3d</fix>
</trkpt>
<trkpt lat="-27.2744397" lon="151.2900648">
  <ele>343.12</ele>
  <time>2026-09-01T20:03:48Z</time>
  <course>181.49</course>
  <speed>0.0282842712474619</speed>
  <fix>3d</fix>
</trkpt>
<trkpt lat="-27.2744398" lon="151.2900651">
  <ele>343.1</ele>
  <time>2026-09-01T20:03:48Z</time>
  <course>305.55</course>
  <speed>0.0</speed>
  <fix>3d</fix>
</trkpt>
<trkpt lat="-27.2744397" lon="151.2900648">
  <ele>343.13</ele>
  <time>2026-09-01T20:03:48Z</time>
  <course>181.49</course>
  <speed>0.0282842712474619</speed>
  <fix>3d</fix>
</trkpt>
<trkpt lat="-27.2744398" lon="151.2900651">
  <ele>343.1</ele>
  <time>2026-09-01T20:03:48Z</time>
  <course>305.55</course>
  <speed>0.0</speed>
  <fix>3d</fix>
</trkpt>
<trkpt lat="-27.2744397" lon="151.2900648">
  <ele>343.13</ele>
  <time>2026-09-01T20:03:48Z</time>
  <course>181.49</course>
  <speed>0.0282842712474619</speed>
  <fix>3d</fix>
</trkpt>
<trkpt lat="-27.2744398" lon="151.2900651">
  <ele>343.1</ele>
  <time>2026-09-01T20:03:48Z</time>
  <course>300.25</course>
  <speed>0.0</speed>
  <fix>3d</fix>
</trkpt>
<trkpt lat="-27.2744397" lon="151.2900648">
  <ele>343.13</ele>
  <time>2026-09-01T20:03:48Z</time>
  <course>181.48</course>
  <speed>0.0282842712474619</speed>
  <fix>3d</fix>
</trkpt>
<trkpt lat="-27.2744398" lon="151.2900651">
  <ele>343.1</ele>
  <time>2026-09-01T20:03:48Z</time>
  <course>300.25</course>
  <speed>0.0</speed>
  <fix>3d</fix>
</trkpt>
<trkpt lat="-27.2744397" lon="151.2900648">
  <ele>343.16</ele>
  <time>2026-09-01T20:03:48Z</time>
  <course>181.47</course>
  <speed>0.0282842712474619</speed>
  <fix>3d</fix>
</trkpt>
<trkpt lat="-27.2744398" lon="151.2900651">
  <ele>343.1</ele>
  <time>2026-09-01T20:03:48Z</time>
  <course>309.63</course>
  <speed>0.0</speed>
  <fix>3d</fix>
</trkpt>
<trkpt lat="-27.2744397" lon="151.2900648">
  <ele>343.16</ele>
  <time>2026-09-01T20:03:48Z</time>
  <course>181.46</course>
  <speed>0.0282842712474619</speed>
  <fix>3d</fix>
</trkpt>
<trkpt lat="-27.2744398" lon="151.2900651">
  <ele>343.1</ele>
  <time>2026-09-01T20:03:48Z</time>
  <course>126.7</course>
  <speed>0.0</speed>
  <fix>3d</fix>
</trkpt>
<trkpt lat="-27.2744397" lon="151.2900649">
  <ele>343.16</ele>
  <time>2026-09-01T20:03:48Z</time>
  <course>181.46</course>
  <speed>0.022360679774997897</speed>
  <fix>3d</fix>
</trkpt>
<trkpt lat="-27.2744398" lon="151.2900651">
  <ele>343.1</ele>
  <time>2026-09-01T20:03:48Z</time>
  <course>124.7</course>
  <speed>0.0</speed>
  <fix>3d</fix>
</trkpt>
<trkpt lat="-27.2744397" lon="151.2900649">
  <ele>343.17</ele>
  <time>2026-09-01T20:03:48Z</time>
  <course>181.45</course>
  <speed>0.022360679774997897</speed>
  <fix>3d</fix>
</trkpt>
<trkpt lat="-27.2744398" lon="151.2900651">
  <ele>343.1</ele>
  <time>2026-09-01T20:03:48Z</time>
  <course>306.0</course>
  <speed>0.0</speed>
  <fix>3d</fix>
</trkpt>
<trkpt lat="-27.2744397" lon="151.2900649">
  <ele>343.17</ele>
  <time>2026-09-01T20:03:48Z</time>
  <course>181.45</course>
  <speed>0.022360679774997897</speed>
  <fix>3d</fix>
</trkpt>
<trkpt lat="-27.2744398" lon="151.2900651">
  <ele>343.1</ele>
  <time>2026-09-01T20:03:48Z</time>
  <course>306.0</course>
  <speed>0.0</speed>
  <fix>3d</fix>
</trkpt>
<trkpt lat="-27.2744397" lon="151.2900649">
  <ele>343.17</ele>
  <time>2026-09-01T20:03:48Z</time>
  <course>181.45</course>
  <speed>0.022360679774997897</speed>
  <fix>3d</fix>
</trkpt>
<trkpt lat="-27.2744398" lon="151.2900651">
  <ele>343.1</ele>
  <time>2026-09-01T20:03:48Z</time>
  <course>304.12</course>
  <speed>0.0</speed>
  <fix>3d</fix>
</trkpt>
<trkpt lat="-27.2744397" lon="151.2900649">
  <ele>343.17</ele>
  <time>2026-09-01T20:03:48Z</time>
  <course>181.45</course>
  <speed>0.022360679774997897</speed>
  <fix>3d</fix>
</trkpt>
<trkpt lat="-27.2744398" lon="151.2900651">
  <ele>343.1</ele>
  <time>2026-09-01T20:03:48Z</time>
  <course>304.12</course>
  <speed>0.0</speed>
  <fix>3d</fix>
</trkpt>
<trkpt lat="-27.2744397" lon="151.2900649">
  <ele>343.17</ele>
  <time>2026-09-01T20:03:48Z</time>
  <course>181.44</course>
  <speed>0.022360679774997897</speed>
  <fix>3d</fix>
</trkpt>
<trkpt lat="-27.2744398" lon="151.2900651">
  <ele>343.1</ele>
  <time>2026-09-01T20:03:48Z</time>
  <course>125.65</course>
  <speed>0.0</speed>
  <fix>3d</fix>
</trkpt>
<trkpt lat="-26.9733966" lon="149.6201956">
  <ele>339.31</ele>
  <time>2026-09-01T20:03:49Z</time>
  <course>289.65</course>
  <speed>0.0</speed>
  <fix>3d</fix>
</trkpt>
<trkpt lat="-26.9733966" lon="149.6201956">
  <ele>339.31</ele>
  <time>2026-09-01T20:03:49Z</time>
  <course>289.65</course>
  <speed>0.0</speed>
  <fix>3d</fix>
</trkpt>
<trkpt lat="-27.274439" lon="151.290064">
  <ele>0.21</ele>
  <time>2026-09-01T20:03:49Z</time>
  <course>357.47</course>
  <speed>0.0</speed>
  <fix>3d</fix>
</trkpt>
<trkpt lat="-27.274439" lon="151.290064">
  <ele>343.1</ele>
  <time>2026-09-01T20:03:49Z</time>
  <course>281.17</course>
  <speed>0.0</speed>
  <fix>3d</fix>
</trkpt>
<trkpt lat="-27.274439" lon="151.290064">
  <ele>-0.13</ele>
  <time>2026-09-01T20:03:49Z</time>
  <course>358.44</course>
  <speed>0.0</speed>
  <fix>3d</fix>
</trkpt>
<trkpt lat="-27.274439" lon="151.290064">
  <ele>343.1</ele>
  <time>2026-09-01T20:03:49Z</time>
  <course>281.17</course>
  <speed>0.0</speed>
  <fix>3d</fix>
</trkpt>
<trkpt lat="-27.274439" lon="151.290064">
  <ele>0.13</ele>
  <time>2026-09-01T20:03:49Z</time>
  <course>359.37</course>
  <speed>0.0</speed>
  <fix>3d</fix>
</trkpt>
<trkpt lat="-27.274439" lon="151.290064">
  <ele>343.1</ele>
  <time>2026-09-01T20:03:49Z</time>
  <course>271.47</course>
  <speed>0.0</speed>
  <fix>3d</fix>
</trkpt>
<trkpt lat="-27.274439" lon="151.290064">
  <ele>0.01</ele>
  <time>2026-09-01T20:03:49Z</time>
  <course>0.2</course>
  <speed>0.0</speed>
  <fix>3d</fix>
</trkpt>
<trkpt lat="-27.274439" lon="151.290064">
  <ele>343.1</ele>
  <time>2026-09-01T20:03:49Z</time>
  <course>271.47</course>
  <speed>0.0</speed>
  <fix>3d</fix>
</trkpt>
<trkpt lat="-27.274439" lon="151.290064">
  <ele>-0.1</ele>
  <time>2026-09-01T20:03:49Z</time>
  <course>0.97</course>
  <speed>0.0</speed>
  <fix>3d</fix>
</trkpt>
<trkpt lat="-27.274439" lon="151.290064">
  <ele>343.1</ele>
  <time>2026-09-01T20:03:49Z</time>
  <course>270.19</course>
  <speed>0.0</speed>
  <fix>3d</fix>
</trkpt>
<trkpt lat="-27.274439" lon="151.290064">
  <ele>-0.13</ele>
  <time>2026-09-01T20:03:49Z</time>
  <course>1.67</course>
  <speed>0.0</speed>
  <fix>3d</fix>
</trkpt>
<trkpt lat="-27.274439" lon="151.290064">
  <ele>343.1</ele>
  <time>2026-09-01T20:03:49Z</time>
  <course>270.19</course>
  <speed>0.0</speed>
  <fix>3d</fix>
</trkpt>
<trkpt lat="-27.274439" lon="151.290064">
  <ele>0.28</ele>
  <time>2026-09-01T20:03:49Z</time>
  <course>2.32</course>
  <speed>0.0</speed>
  <fix>3d</fix>
</trkpt>
<trkpt lat="-27.274439" lon="151.290064">
  <ele>343.1</ele>
  <time>2026-09-01T20:03:49Z</time>
  <course>270.02</course>
  <speed>0.0</speed>
  <fix>3d</fix>
</trkpt>
<trkpt lat="-27.274439" lon="151.290064">
  <ele>0.25</ele>
  <time>2026-09-01T20:03:49Z</time>
  <course>2.9</course>
  <speed>0.0</speed>
  <fix>3d</fix>
</trkpt>
<trkpt lat="-27.274439" lon="151.290064">
  <ele>343.1</ele>
  <time>2026-09-01T20:03:49Z</time>
  <course>270.02</course>
  <speed>0.0</speed>
  <fix>3d</fix>
</trkpt>
<trkpt lat="-27.274439" lon="151.290064">
  <ele>0.18</ele>
  <time>2026-09-01T20:03:49Z</time>
  <course>3.44</course>
  <speed>0.0</speed>
  <fix>3d</fix>
</trkpt>
<trkpt lat="-27.274439" lon="151.290064">
  <ele>343.1</ele>
  <time>2026-09-01T20:03:49Z</time>
  <course>270.0</course>
  <speed>0.0</speed>
  <fix>3d</fix>
</trkpt>
<trkpt lat="-27.274439" lon="151.290064">
  <ele>343.48</ele>
  <time>2026-09-01T20:03:49Z</time>
  <course>3.91</course>
  <speed>0.0</speed>
  <fix>3d</fix>
</trkpt>
<trkpt lat="-27.274439" lon="151.290064">
  <ele>343.1</ele>
  <time>2026-09-01T20:03:49Z</time>
  <course>270.0</course>
  <speed>0.0</speed>
  <fix>3d</fix>
</trkpt>
<trkpt lat="-27.274439" lon="151.290064">
  <ele>343.14</ele>
  <time>2026-09-01T20:03:49Z</time>
  <course>4.33</course>
  <speed>0.0</speed>
  <fix>3d</fix>
</trkpt>
<trkpt lat="-27.274439" lon="151.290064">
  <ele>343.1</ele>
  <time>2026-09-01T20:03:49Z</time>
  <course>270.0</course>
  <speed>0.0</speed>
  <fix>3d</fix>
</trkpt>
<trkpt lat="-27.274439" lon="151.290064">
  <ele>343.36</ele>
  <time>2026-09-01T20:03:49Z</time>
  <course>4.7</course>
  <speed>0.0</speed>
  <fix>3d</fix>
</trkpt>
<trkpt lat="-27.274439" lon="151.290064">
  <ele>343.1</ele>
  <time>2026-09-01T20:03:49Z</time>
  <course>270.0</course>
  <speed>0.0</speed>
  <fix>3d</fix>
</trkpt>
<trkpt lat="-27.274439" lon="151.290064">
  <ele>343.09</ele>
  <time>2026-09-01T20:03:49Z</time>
  <course>5.02</course>
  <speed>0.0</speed>
  <fix>3d</fix>
</trkpt>
<trkpt lat="-27.274439" lon="151.290064">
  <ele>343.1</ele>
  <time>2026-09-01T20:03:49Z</time>
  <course>270.0</course>
  <speed>0.0</speed>
  <fix>3d</fix>
</trkpt>
<trkpt lat="-27.274439" lon="151.290064">
  <ele>343.41</ele>
  <time>2026-09-01T20:03:49Z</time>
  <course>5.31</course>
  <speed>0.0</speed>
  <fix>3d</fix>
</trkpt>
<trkpt lat="-27.274439" lon="151.290064">
  <ele>343.1</ele>
  <time>2026-09-01T20:03:49Z</time>
  <course>270.0</course>
  <speed>0.0</speed>
  <fix>3d</fix>
</trkpt>
<trkpt lat="-27.274439" lon="151.290064">
  <ele>343.19</ele>
  <time>2026-09-01T20:03:49Z</time>
  <course>5.56</course>
  <speed>0.0</speed>
  <fix>3d</fix>
</trkpt>
<trkpt lat="-27.274439" lon="151.290064">
  <ele>343.1</ele>
  <time>2026-09-01T20:03:49Z</time>
  <course>270.0</course>
  <speed>0.0</speed>
  <fix>3d</fix>
</trkpt>
<trkpt lat="-27.274439" lon="151.290064">
  <ele>343.27</ele>
  <time>2026-09-01T20:03:49Z</time>
  <course>5.78</course>
  <speed>0.0</speed>
  <fix>3d</fix>
</trkpt>
<trkpt lat="-27.274439" lon="151.290064">
  <ele>343.1</ele>
  <time>2026-09-01T20:03:49Z</time>
  <course>270.0</course>
  <speed>0.0</speed>
  <fix>3d</fix>
</trkpt>
<trkpt lat="-27.274439" lon="151.290064">
  <ele>343.39</ele>
  <time>2026-09-01T20:03:49Z</time>
  <course>5.98</course>
  <speed>0.0</speed>
  <fix>3d</fix>
</trkpt>
<trkpt lat="-27.274439" lon="151.290064">
  <ele>343.1</ele>
  <time>2026-09-01T20:03:49Z</time>
  <course>270.0</course>
  <speed>0.0</speed>
  <fix>3d</fix>
</trkpt>
<trkpt lat="-27.274439" lon="151.290064">
  <ele>343.41</ele>
  <time>2026-09-01T20:03:49Z</time>
  <course>6.15</course>
  <speed>0.0</speed>
  <fix>3d</fix>
</trkpt>
<trkpt lat="-27.274439" lon="151.290064">
  <ele>343.1</ele>
  <time>2026-09-01T20:03:49Z</time>
  <course>270.0</course>
  <speed>0.0</speed>
  <fix>3d</fix>
</trkpt>
<trkpt lat="-27.274439" lon="151.290064">
  <ele>343.16</ele>
  <time>2026-09-01T20:03:49Z</time>
  <course>6.31</course>
  <speed>0.0</speed>
  <fix>3d</fix>
</trkpt>
<trkpt lat="-27.274439" lon="151.290064">
  <ele>343.1</ele>
  <time>2026-09-01T20:03:49Z</time>
  <course>270.0</course>
  <speed>0.0</speed>
  <fix>3d</fix>
</trkpt>
<trkpt lat="-27.274439" lon="151.290064">
  <ele>343.13</ele>
  <time>2026-09-01T20:03:49Z</time>
  <course>6.46</course>
  <speed>0.0</speed>
  <fix>3d</fix>
</trkpt>
<trkpt lat="-27.274439" lon="151.290064">
  <ele>343.1</ele>
  <time>2026-09-01T20:03:49Z</time>
  <course>270.0</course>
  <speed>0.0</speed>
  <fix>3d</fix>
</trkpt>
<trkpt lat="-27.274439" lon="151.290064">
  <ele>343.32</ele>
  <time>2026-09-01T20:03:49Z</time>
  <course>6.6</course>
  <speed>0.0</speed>
  <fix>3d</fix>
</trkpt>
<trkpt lat="-27.274439" lon="151.290064">
  <ele>343.1</ele>
  <time>2026-09-01T20:03:49Z</time>
  <course>270.0</course>
  <speed>0.0</speed>
  <fix>3d</fix>
</trkpt>
<trkpt lat="-27.274439" lon="151.290064">
  <ele>343.11</ele>
  <time>2026-09-01T20:03:49Z</time>
  <course>6.73</course>
  <speed>0.0</speed>
  <fix>3d</fix>
</trkpt>
<trkpt lat="-27.274439" lon="151.290064">
  <ele>343.1</ele>
  <time>2026-09-01T20:03:49Z</time>
  <course>270.0</course>
  <speed>0.0</speed>
  <fix>3d</fix>
</trkpt>
<trkpt lat="-27.274439" lon="151.290064">
  <ele>343.43</ele>
  <time>2026-09-01T20:03:49Z</time>
  <course>6.85</course>
  <speed>0.0</speed>
  <fix>3d</fix>
</trkpt>
<trkpt lat="-27.274439" lon="151.290064">
  <ele>343.1</ele>
  <time>2026-09-01T20:03:49Z</time>
  <course>270.0</course>
  <speed>0.0</speed>
  <fix>3d</fix>
</trkpt>
<trkpt lat="-27.274439" lon="151.290064">
  <ele>343.17</ele>
  <time>2026-09-01T20:03:49Z</time>
  <course>6.95</course>
  <speed>0.0</speed>
  <fix>3d</fix>
</trkpt>
<trkpt lat="-27.274439" lon="151.290064">
  <ele>343.1</ele>
  <time>2026-09-01T20:03:49Z</time>
  <course>270.0</course>
  <speed>0.0</speed>
  <fix>3d</fix>
</trkpt>
<trkpt lat="-27.274439" lon="151.290064">
  <ele>343.42</ele>
  <time>2026-09-01T20:03:49Z</time>
  <course>7.06</course>
  <speed>0.0</speed>
  <fix>3d</fix>
</trkpt>
<trkpt lat="-27.274439" lon="151.290064">
  <ele>343.1</ele>
  <time>2026-09-01T20:03:49Z</time>
  <course>270.0</course>
  <speed>0.0</speed>
  <fix>3d</fix>
</trkpt>
<trkpt lat="-27.274439" lon="151.290064">
  <ele>343.36</ele>
  <time>2026-09-01T20:03:49Z</time>
  <course>7.15</course>
  <speed>0.0</speed>
  <fix>3d</fix>
</trkpt>
<trkpt lat="-27.274439" lon="151.290064">
  <ele>343.1</ele>
  <time>2026-09-01T20:03:49Z</time>
  <course>270.0</course>
  <speed>0.0</speed>
  <fix>3d</fix>
</trkpt>
<trkpt lat="-27.274439" lon="151.290064">
  <ele>343.16</ele>
  <time>2026-09-01T20:03:49Z</time>
  <course>7.24</course>
  <speed>0.0</speed>
  <fix>3d</fix>
</trkpt>
<trkpt lat="-27.274439" lon="151.290064">
  <ele>343.1</ele>
  <time>2026-09-01T20:03:49Z</time>
  <course>270.0</course>
  <speed>0.0</speed>
  <fix>3d</fix>
</trkpt>
<trkpt lat="-27.274439" lon="151.290064">
  <ele>343.45</ele>
  <time>2026-09-01T20:03:49Z</time>
  <course>7.32</course>
  <speed>0.0</speed>
  <fix>3d</fix>
</trkpt>
<trkpt lat="-27.274439" lon="151.290064">
  <ele>343.1</ele>
  <time>2026-09-01T20:03:49Z</time>
  <course>270.0</course>
  <speed>0.0</speed>
  <fix>3d</fix>
</trkpt>
<trkpt lat="-27.274439" lon="151.290064">
  <ele>343.12</ele>
  <time>2026-09-01T20:03:49Z</time>
  <course>7.4</course>
  <speed>0.0</speed>
  <fix>3d</fix>
</trkpt>
<trkpt lat="-27.274439" lon="151.290064">
  <ele>343.1</ele>
  <time>2026-09-01T20:03:49Z</time>
  <course>270.0</course>
  <speed>0.0</speed>
  <fix>3d</fix>
</trkpt>
<trkpt lat="-27.274439" lon="151.290064">
  <ele>343.34</ele>
  <time>2026-09-01T20:03:49Z</time>
  <course>7.46</course>
  <speed>0.0</speed>
  <fix>3d</fix>
</trkpt>
<trkpt lat="-27.274439" lon="151.290064">
  <ele>343.1</ele>
  <time>2026-09-01T20:03:49Z</time>
  <course>270.0</course>
  <speed>0.0</speed>
  <fix>3d</fix>
</trkpt>
<trkpt lat="-27.274439" lon="151.290064">
  <ele>343.17</ele>
  <time>2026-09-01T20:03:49Z</time>
  <course>7.53</course>
  <speed>0.0</speed>
  <fix>3d</fix>
</trkpt>
<trkpt lat="-27.274439" lon="151.290064">
  <ele>343.1</ele>
  <time>2026-09-01T20:03:49Z</time>
  <course>270.0</course>
  <speed>0.0</speed>
  <fix>3d</fix>
</trkpt>
<trkpt lat="-27.274439" lon="151.290064">
  <ele>343.4</ele>
  <time>2026-09-01T20:03:49Z</time>
  <course>7.58</course>
  <speed>0.0</speed>
  <fix>3d</fix>
</trkpt>
<trkpt lat="-27.274439" lon="151.290064">
  <ele>343.1</ele>
  <time>2026-09-01T20:03:49Z</time>
  <course>270.0</course>
  <speed>0.0</speed>
  <fix>3d</fix>
</trkpt>
<trkpt lat="-27.274439" lon="151.290064">
  <ele>343.23</ele>
  <time>2026-09-01T20:03:49Z</time>
  <course>7.63</course>
  <speed>0.0</speed>
  <fix>3d</fix>
</trkpt>
<trkpt lat="-27.274439" lon="151.290064">
  <ele>343.1</ele>
  <time>2026-09-01T20:03:49Z</time>
  <course>270.0</course>
  <speed>0.0</speed>
  <fix>3d</fix>
</trkpt>
<trkpt lat="-27.274439" lon="151.290064">
  <ele>343.37</ele>
  <time>2026-09-01T20:03:49Z</time>
  <course>7.68</course>
  <speed>0.0</speed>
  <fix>3d</fix>
</trkpt>
<trkpt lat="-27.274439" lon="151.290064">
  <ele>343.1</ele>
  <time>2026-09-01T20:03:49Z</time>
  <course>270.0</course>
  <speed>0.0</speed>
  <fix>3d</fix>
</trkpt>
<trkpt lat="-27.274439" lon="151.290064">
  <ele>343.45</ele>
  <time>2026-09-01T20:03:49Z</time>
  <course>7.72</course>
  <speed>0.0</speed>
  <fix>3d</fix>
</trkpt>
<trkpt lat="-27.274439" lon="151.290064">
  <ele>343.1</ele>
  <time>2026-09-01T20:03:49Z</time>
  <course>270.0</course>
  <speed>0.0</speed>
  <fix>3d</fix>
</trkpt>
<trkpt lat="-27.274439" lon="151.290064">
  <ele>343.44</ele>
  <time>2026-09-01T20:03:49Z</time>
  <course>7.75</course>
  <speed>0.0</speed>
  <fix>3d</fix>
</trkpt>
<trkpt lat="-27.274439" lon="151.290064">
  <ele>343.1</ele>
  <time>2026-09-01T20:03:49Z</time>
  <course>270.0</course>
  <speed>0.0</speed>
  <fix>3d</fix>
</trkpt>
<trkpt lat="-27.274439" lon="151.290064">
  <ele>343.41</ele>
  <time>2026-09-01T20:03:49Z</time>
  <course>7.79</course>
  <speed>0.0</speed>
  <fix>3d</fix>
</trkpt>
<trkpt lat="-27.274439" lon="151.290064">
  <ele>343.1</ele>
  <time>2026-09-01T20:03:49Z</time>
  <course>270.0</course>
  <speed>0.0</speed>
  <fix>3d</fix>
</trkpt>
<trkpt lat="-27.274439" lon="151.290064">
  <ele>343.29</ele>
  <time>2026-09-01T20:03:49Z</time>
  <course>7.81</course>
  <speed>0.0</speed>
  <fix>3d</fix>
</trkpt>
<trkpt lat="-27.274439" lon="151.290064">
  <ele>343.1</ele>
  <time>2026-09-01T20:03:49Z</time>
  <course>270.0</course>
  <speed>0.0</speed>
  <fix>3d</fix>
</trkpt>
<trkpt lat="-27.274439" lon="151.290064">
  <ele>343.47</ele>
  <time>2026-09-01T20:03:49Z</time>
  <course>7.84</course>
  <speed>0.0</speed>
  <fix>3d</fix>
</trkpt>
<trkpt lat="-27.274439" lon="151.290064">
  <ele>343.1</ele>
  <time>2026-09-01T20:03:49Z</time>
  <course>270.0</course>
  <speed>0.0</speed>
  <fix>3d</fix>
</trkpt>
<trkpt lat="-27.274439" lon="151.290064">
  <ele>343.22</ele>
  <time>2026-09-01T20:03:49Z</time>
  <course>7.86</course>
  <speed>0.0</speed>
  <fix>3d</fix>
</trkpt>
<trkpt lat="-27.274439" lon="151.290064">
  <ele>343.1</ele>
  <time>2026-09-01T20:03:49Z</time>
  <course>270.0</course>
  <speed>0.0</speed>
  <fix>3d</fix>
</trkpt>
<trkpt lat="-27.274439" lon="151.290064">
  <ele>343.15</ele>
  <time>2026-09-01T20:03:49Z</time>
  <course>7.88</course>
  <speed>0.0</speed>
  <fix>3d</fix>
</trkpt>
<trkpt lat="-27.274439" lon="151.290064">
  <ele>343.1</ele>
  <time>2026-09-01T20:03:49Z</time>
  <course>270.0</course>
  <speed>0.0</speed>
  <fix>3d</fix>
</trkpt>
<trkpt lat="-27.274439" lon="151.290064">
  <ele>343.32</ele>
  <time>2026-09-01T20:03:49Z</time>
  <course>7.9</course>
  <speed>0.0</speed>
  <fix>3d</fix>
</trkpt>
<trkpt lat="-27.274439" lon="151.290064">
  <ele>343.1</ele>
  <time>2026-09-01T20:03:49Z</time>
  <course>270.0</course>
  <speed>0.0</speed>
  <fix>3d</fix>
</trkpt>
<trkpt lat="-27.274439" lon="151.290064">
  <ele>343.25</ele>
  <time>2026-09-01T20:03:49Z</time>
  <course>7.92</course>
  <speed>0.0</speed>
  <fix>3d</fix>
</trkpt>
<trkpt lat="-27.274439" lon="151.290064">
  <ele>343.1</ele>
  <time>2026-09-01T20:03:49Z</time>
  <course>270.0</course>
  <speed>0.0</speed>
  <fix>3d</fix>
</trkpt>
<trkpt lat="-27.274439" lon="151.290064">
  <ele>343.44</ele>
  <time>2026-09-01T20:03:49Z</time>
  <course>7.94</course>
  <speed>0.0</speed>
  <fix>3d</fix>
</trkpt>
<trkpt lat="-27.274439" lon="151.290064">
  <ele>343.1</ele>
  <time>2026-09-01T20:03:49Z</time>
  <course>270.0</course>
  <speed>0.0</speed>
  <fix>3d</fix>
</trkpt>
<trkpt lat="-27.274439" lon="151.290064">
  <ele>343.11</ele>
  <time>2026-09-01T20:03:49Z</time>
  <course>7.95</course>
  <speed>0.0</speed>
  <fix>3d</fix>
</trkpt>
<trkpt lat="-27.274439" lon="151.290064">
  <ele>343.1</ele>
  <time>2026-09-01T20:03:49Z</time>
  <course>270.0</course>
  <speed>0.0</speed>
  <fix>3d</fix>
</trkpt>
<trkpt lat="-27.274439" lon="151.290064">
  <ele>343.16</ele>
  <time>2026-09-01T20:03:49Z</time>
  <course>7.96</course>
  <speed>0.0</speed>
  <fix>3d</fix>
</trkpt>
<trkpt lat="-27.274439" lon="151.290064">
  <ele>343.1</ele>
  <time>2026-09-01T20:03:49Z</time>
  <course>270.0</course>
  <speed>0.0</speed>
  <fix>3d</fix>
</trkpt>
<trkpt lat="-27.274439" lon="151.290064">
  <ele>343.36</ele>
  <time>2026-09-01T20:03:49Z</time>
  <course>7.97</course>
  <speed>0.0</speed>
  <fix>3d</fix>
</trkpt>
<trkpt lat="-27.274439" lon="151.290064">
  <ele>343.1</ele>
  <time>2026-09-01T20:03:49Z</time>
  <course>270.0</course>
  <speed>0.0</speed>
  <fix>3d</fix>
</trkpt>
<trkpt lat="-27.274439" lon="151.290064">
  <ele>343.31</ele>
  <time>2026-09-01T20:03:49Z</time>
  <course>7.98</course>
  <speed>0.0</speed>
  <fix>3d</fix>
</trkpt>
<trkpt lat="-27.274439" lon="151.290064">
  <ele>343.1</ele>
  <time>2026-09-01T20:03:49Z</time>
  <course>270.0</course>
  <speed>0.0</speed>
  <fix>3d</fix>
</trkpt>
<trkpt lat="-27.274439" lon="151.290064">
  <ele>343.4</ele>
  <time>2026-09-01T20:03:49Z</time>
  <course>7.99</course>
  <speed>0.0</speed>
  <fix>3d</fix>
</trkpt>
<trkpt lat="-27.274439" lon="151.290064">
  <ele>343.1</ele>
  <time>2026-09-01T20:03:49Z</time>
  <course>270.0</course>
  <speed>0.0</speed>
  <fix>3d</fix>
</trkpt>
<trkpt lat="-27.274439" lon="151.290064">
  <ele>343.15</ele>
  <time>2026-09-01T20:03:49Z</time>
  <course>8.0</course>
  <speed>0.0</speed>
  <fix>3d</fix>
</trkpt>
<trkpt lat="-27.274439" lon="151.290064">
  <ele>343.1</ele>
  <time>2026-09-01T20:03:49Z</time>
  <course>270.0</course>
  <speed>0.0</speed>
  <fix>3d</fix>
</trkpt>
<trkpt lat="-27.274439" lon="151.290064">
  <ele>343.25</ele>
  <time>2026-09-01T20:03:49Z</time>
  <course>8.01</course>
  <speed>0.0</speed>
  <fix>3d</fix>
</trkpt>
<trkpt lat="-27.274439" lon="151.290064">
  <ele>343.1</ele>
  <time>2026-09-01T20:03:49Z</time>
  <course>270.0</course>
  <speed>0.0</speed>
  <fix>3d</fix>
</trkpt>
<trkpt lat="-27.274439" lon="151.290064">
  <ele>343.19</ele>
  <time>2026-09-01T20:03:49Z</time>
  <course>8.02</course>
  <speed>0.0</speed>
  <fix>3d</fix>
</trkpt>
<trkpt lat="-27.274439" lon="151.290064">
  <ele>343.1</ele>
  <time>2026-09-01T20:03:49Z</time>
  <course>270.0</course>
  <speed>0.0</speed>
  <fix>3d</fix>
</trkpt>
<trkpt lat="-27.274439" lon="151.290064">
  <ele>343.13</ele>
  <time>2026-09-01T20:03:49Z</time>
  <course>8.02</course>
  <speed>0.0</speed>
  <fix>3d</fix>
</trkpt>
<trkpt lat="-27.274439" lon="151.290064">
  <ele>343.1</ele>
  <time>2026-09-01T20:03:49Z</time>
  <course>270.0</course>
  <speed>0.0</speed>
  <fix>3d</fix>
</trkpt>
<trkpt lat="-27.274439" lon="151.290064">
  <ele>343.34</ele>
  <time>2026-09-01T20:03:49Z</time>
  <course>8.03</course>
  <speed>0.0</speed>
  <fix>3d</fix>
</trkpt>
<trkpt lat="-27.274439" lon="151.290064">
  <ele>343.1</ele>
  <time>2026-09-01T20:03:49Z</time>
  <course>270.0</course>
  <speed>0.0</speed>
  <fix>3d</fix>
</trkpt>
<trkpt lat="-27.274439" lon="151.290064">
  <ele>343.43</ele>
  <time>2026-09-01T20:03:49Z</time>
  <course>8.03</course>
  <speed>0.0</speed>
  <fix>3d</fix>
</trkpt>
<trkpt lat="-27.274439" lon="151.290064">
  <ele>343.1</ele>
  <time>2026-09-01T20:03:49Z</time>
  <course>270.0</course>
  <speed>0.0</speed>
  <fix>3d</fix>
</trkpt>
<trkpt lat="-27.274439" lon="151.290064">
  <ele>343.44</ele>
  <time>2026-09-01T20:03:49Z</time>
  <course>8.04</course>
  <speed>0.0</speed>
  <fix>3d</fix>
</trkpt>
<trkpt lat="-27.274439" lon="151.290064">
  <ele>343.1</ele>
  <time>2026-09-01T20:03:49Z</time>
  <course>270.0</course>
  <speed>0.0</speed>
  <fix>3d</fix>
</trkpt>
<trkpt lat="-27.274439" lon="151.290064">
  <ele>343.22</ele>
  <time>2026-09-01T20:03:49Z</time>
  <course>8.04</course>
  <speed>0.0</speed>
  <fix>3d</fix>
</trkpt>
<trkpt lat="-27.274439" lon="151.290064">
  <ele>343.1</ele>
  <time>2026-09-01T20:03:49Z</time>
  <course>270.0</course>
  <speed>0.0</speed>
  <fix>3d</fix>
</trkpt>
<trkpt lat="-27.274439" lon="151.290064">
  <ele>343.42</ele>
  <time>2026-09-01T20:03:49Z</time>
  <course>8.05</course>
  <speed>0.0</speed>
  <fix>3d</fix>
</trkpt>
<trkpt lat="-27.274439" lon="151.290064">
  <ele>343.1</ele>
  <time>2026-09-01T20:03:49Z</time>
  <course>270.0</course>
  <speed>0.0</speed>
  <fix>3d</fix>
</trkpt>
<trkpt lat="-27.274439" lon="151.290064">
  <ele>343.08</ele>
  <time>2026-09-01T20:03:49Z</time>
  <course>8.05</course>
  <speed>0.0</speed>
  <fix>3d</fix>
</trkpt>
<trkpt lat="-27.274439" lon="151.290064">
  <ele>343.1</ele>
  <time>2026-09-01T20:03:49Z</time>
  <course>270.0</course>
  <speed>0.0</speed>
  <fix>3d</fix>
</trkpt>
<trkpt lat="-27.274439" lon="151.290064">
  <ele>343.13</ele>
  <time>2026-09-01T20:03:49Z</time>
  <course>8.05</course>
  <speed>0.0</speed>
  <fix>3d</fix>
</trkpt>
<trkpt lat="-27.274439" lon="151.290064">
  <ele>343.1</ele>
  <time>2026-09-01T20:03:49Z</time>
  <course>270.0</course>
  <speed>0.0</speed>
  <fix>3d</fix>
</trkpt>
<trkpt lat="-27.274439" lon="151.290064">
  <ele>343.26</ele>
  <time>2026-09-01T20:03:49Z</time>
  <course>8.06</course>
  <speed>0.0</speed>
  <fix>3d</fix>
</trkpt>
<trkpt lat="-27.274439" lon="151.290064">
  <ele>343.1</ele>
  <time>2026-09-01T20:03:49Z</time>
  <course>270.0</course>
  <speed>0.0</speed>
  <fix>3d</fix>
</trkpt>
<trkpt lat="-27.274439" lon="151.290064">
  <ele>343.16</ele>
  <time>2026-09-01T20:03:49Z</time>
  <course>8.06</course>
  <speed>0.0</speed>
  <fix>3d</fix>
</trkpt>
<trkpt lat="-27.274439" lon="151.290064">
  <ele>343.1</ele>
  <time>2026-09-01T20:03:49Z</time>
  <course>270.0</course>
  <speed>0.0</speed>
  <fix>3d</fix>
</trkpt>
<trkpt lat="-27.274439" lon="151.290064">
  <ele>343.38</ele>
  <time>2026-09-01T20:03:49Z</time>
  <course>8.06</course>
  <speed>0.0</speed>
  <fix>3d</fix>
</trkpt>
<trkpt lat="-27.274439" lon="151.290064">
  <ele>343.1</ele>
  <time>2026-09-01T20:03:49Z</time>
  <course>270.0</course>
  <speed>0.0</speed>
  <fix>3d</fix>
</trkpt>
<trkpt lat="-27.274439" lon="151.290064">
  <ele>343.17</ele>
  <time>2026-09-01T20:03:49Z</time>
  <course>8.06</course>
  <speed>0.0</speed>
  <fix>3d</fix>
</trkpt>
<trkpt lat="-27.274439" lon="151.290064">
  <ele>343.1</ele>
  <time>2026-09-01T20:03:49Z</time>
  <course>270.0</course>
  <speed>0.0</speed>
  <fix>3d</fix>
</trkpt>
<trkpt lat="-27.274439" lon="151.290064">
  <ele>343.36</ele>
  <time>2026-09-01T20:03:49Z</time>
  <course>8.06</course>
  <speed>0.0</speed>
  <fix>3d</fix>
</trkpt>
<trkpt lat="-27.274439" lon="151.290064">
  <ele>343.1</ele>
  <time>2026-09-01T20:03:49Z</time>
  <course>270.0</course>
  <speed>0.0</speed>
  <fix>3d</fix>
</trkpt>
<trkpt lat="-27.274439" lon="151.290064">
  <ele>343.22</ele>
  <time>2026-09-01T20:03:49Z</time>
  <course>8.07</course>
  <speed>0.0</speed>
  <fix>3d</fix>
</trkpt>
<trkpt lat="-27.274439" lon="151.290064">
  <ele>343.1</ele>
  <time>2026-09-01T20:03:49Z</time>
  <course>270.0</course>
  <speed>0.0</speed>
  <fix>3d</fix>
</trkpt>
<trkpt lat="-27.274439" lon="151.290064">
  <ele>343.02</ele>
  <time>2026-09-01T20:03:49Z</time>
  <course>8.07</course>
  <speed>0.0</speed>
  <fix>3d</fix>
</trkpt>
<trkpt lat="-27.274439" lon="151.290064">
  <ele>343.1</ele>
  <time>2026-09-01T20:03:49Z</time>
  <course>270.0</course>
  <speed>0.0</speed>
  <fix>3d</fix>
</trkpt>
<trkpt lat="-27.274439" lon="151.290064">
  <ele>343.07</ele>
  <time>2026-09-01T20:03:49Z</time>
  <course>8.07</course>
  <speed>0.0</speed>
  <fix>3d</fix>
</trkpt>
<trkpt lat="-27.274439" lon="151.290064">
  <ele>343.1</ele>
  <time>2026-09-01T20:03:49Z</time>
  <course>270.0</course>
  <speed>0.0</speed>
  <fix>3d</fix>
</trkpt>
<trkpt lat="-27.274439" lon="151.290064">
  <ele>343.11</ele>
  <time>2026-09-01T20:03:49Z</time>
  <course>8.07</course>
  <speed>0.0</speed>
  <fix>3d</fix>
</trkpt>
<trkpt lat="-27.274439" lon="151.290064">
  <ele>343.1</ele>
  <time>2026-09-01T20:03:49Z</time>
  <course>270.0</course>
  <speed>0.0</speed>
  <fix>3d</fix>
</trkpt>
<trkpt lat="-27.274439" lon="151.290064">
  <ele>343.04</ele>
  <time>2026-09-01T20:03:49Z</time>
  <course>8.07</course>
  <speed>0.0</speed>
  <fix>3d</fix>
</trkpt>
<trkpt lat="-27.274439" lon="151.290064">
  <ele>343.1</ele>
  <time>2026-09-01T20:03:49Z</time>
  <course>270.0</course>
  <speed>0.0</speed>
  <fix>3d</fix>
</trkpt>
<trkpt lat="-27.274439" lon="151.290064">
  <ele>343.3</ele>
  <time>2026-09-01T20:03:49Z</time>
  <course>8.07</course>
  <speed>0.0</speed>
  <fix>3d</fix>
</trkpt>
<trkpt lat="-27.274439" lon="151.290064">
  <ele>343.1</ele>
  <time>2026-09-01T20:03:49Z</time>
  <course>270.0</course>
  <speed>0.0</speed>
  <fix>3d</fix>
</trkpt>
<trkpt lat="-27.274439" lon="151.290064">
  <ele>343.2</ele>
  <time>2026-09-01T20:03:49Z</time>
  <course>8.07</course>
  <speed>0.0</speed>
  <fix>3d</fix>
</trkpt>
<trkpt lat="-27.274439" lon="151.290064">
  <ele>343.1</ele>
  <time>2026-09-01T20:03:49Z</time>
  <course>270.0</course>
  <speed>0.0</speed>
  <fix>3d</fix>
</trkpt>
<trkpt lat="-27.274439" lon="151.290064">
  <ele>343.18</ele>
  <time>2026-09-01T20:03:49Z</time>
  <course>8.07</course>
  <speed>0.0</speed>
  <fix>3d</fix>
</trkpt>
<trkpt lat="-27.274439" lon="151.290064">
  <ele>343.1</ele>
  <time>2026-09-01T20:03:49Z</time>
  <course>270.0</course>
  <speed>0.0</speed>
  <fix>3d</fix>
</trkpt>
<trkpt lat="-27.274439" lon="151.290064">
  <ele>343.03</ele>
  <time>2026-09-01T20:03:49Z</time>
  <course>8.07</course>
  <speed>0.0</speed>
  <fix>3d</fix>
</trkpt>
<trkpt lat="-27.274439" lon="151.290064">
  <ele>343.1</ele>
  <time>2026-09-01T20:03:49Z</time>
  <course>270.0</course>
  <speed>0.0</speed>
  <fix>3d</fix>
</trkpt>
<trkpt lat="-27.274439" lon="151.290064">
  <ele>343.1</ele>
  <time>2026-09-01T20:03:49Z</time>
  <course>8.07</course>
  <speed>0.0</speed>
  <fix>3d</fix>
</trkpt>
<trkpt lat="-27.274439" lon="151.290064">
  <ele>343.1</ele>
  <time>2026-09-01T20:03:49Z</time>
  <course>270.0</course>
  <speed>0.0</speed>
  <fix>3d</fix>
</trkpt>
<trkpt lat="-27.274439" lon="151.290064">
  <ele>343.03</ele>
  <time>2026-09-01T20:03:49Z</time>
  <course>8.08</course>
  <speed>0.0</speed>
  <fix>3d</fix>
</trkpt>
<trkpt lat="-27.274439" lon="151.290064">
  <ele>343.1</ele>
  <time>2026-09-01T20:03:49Z</time>
  <course>270.0</course>
  <speed>0.0</speed>
  <fix>3d</fix>
</trkpt>
<trkpt lat="-27.274439" lon="151.290064">
  <ele>342.97</ele>
  <time>2026-09-01T20:03:49Z</time>
  <course>8.08</course>
  <speed>0.0</speed>
  <fix>3d</fix>
</trkpt>
<trkpt lat="-27.274439" lon="151.290064">
  <ele>343.1</ele>
  <time>2026-09-01T20:03:49Z</time>
  <course>270.0</course>
  <speed>0.0</speed>
  <fix>3d</fix>
</trkpt>
<trkpt lat="-27.274439" lon="151.290064">
  <ele>343.2</ele>
  <time>2026-09-01T20:03:50Z</time>
  <course>8.08</course>
  <speed>0.0</speed>
  <fix>3d</fix>
</trkpt>
<trkpt lat="-27.274439" lon="151.290064">
  <ele>343.1</ele>
  <time>2026-09-01T20:03:50Z</time>
  <course>270.0</course>
  <speed>0.0</speed>
  <fix>3d</fix>
</trkpt>
<trkpt lat="-27.274439" lon="151.290064">
  <ele>343.33</ele>
  <time>2026-09-01T20:03:50Z</time>
  <course>8.08</course>
  <speed>0.0</speed>
  <fix>3d</fix>
</trkpt>
<trkpt lat="-27.274439" lon="151.290064">
  <ele>343.1</ele>
  <time>2026-09-01T20:03:50Z</time>
  <course>270.0</course>
  <speed>0.0</speed>
  <fix>3d</fix>
</trkpt>
<trkpt lat="-27.274439" lon="151.290064">
  <ele>343.15</ele>
  <time>2026-09-01T20:03:50Z</time>
  <course>8.08</course>
  <speed>0.0</speed>
  <fix>3d</fix>
</trkpt>
<trkpt lat="-27.274439" lon="151.290064">
  <ele>343.1</ele>
  <time>2026-09-01T20:03:50Z</time>
  <course>270.0</course>
  <speed>0.0</speed>
  <fix>3d</fix>
</trkpt>
<trkpt lat="-27.274439" lon="151.290064">
  <ele>343.06</ele>
  <time>2026-09-01T20:03:50Z</time>
  <course>8.08</course>
  <speed>0.0</speed>
  <fix>3d</fix>
</trkpt>
<trkpt lat="-27.274439" lon="151.290064">
  <ele>343.1</ele>
  <time>2026-09-01T20:03:50Z</time>
  <course>270.0</course>
  <speed>0.0</speed>
  <fix>3d</fix>
</trkpt>
<trkpt lat="-27.274439" lon="151.290064">
  <ele>343.17</ele>
  <time>2026-09-01T20:03:50Z</time>
  <course>8.08</course>
  <speed>0.0</speed>
  <fix>3d</fix>
</trkpt>
<trkpt lat="-27.274439" lon="151.290064">
  <ele>343.1</ele>
  <time>2026-09-01T20:03:50Z</time>
  <course>270.0</course>
  <speed>0.0</speed>
  <fix>3d</fix>
</trkpt>
<trkpt lat="-27.274439" lon="151.290064">
  <ele>343.1</ele>
  <time>2026-09-01T20:03:50Z</time>
  <course>8.08</course>
  <speed>0.0</speed>
  <fix>3d</fix>
</trkpt>
<trkpt lat="-27.274439" lon="151.290064">
  <ele>343.1</ele>
  <time>2026-09-01T20:03:50Z</time>
  <course>270.0</course>
  <speed>0.0</speed>
  <fix>3d</fix>
</trkpt>
<trkpt lat="-27.274439" lon="151.290064">
  <ele>343.11</ele>
  <time>2026-09-01T20:03:50Z</time>
  <course>8.08</course>
  <speed>0.0</speed>
  <fix>3d</fix>
</trkpt>
<trkpt lat="-27.274439" lon="151.290064">
  <ele>343.1</ele>
  <time>2026-09-01T20:03:50Z</time>
  <course>270.0</course>
  <speed>0.0</speed>
  <fix>3d</fix>
</trkpt>
<trkpt lat="-27.274439" lon="151.290064">
  <ele>343.11</ele>
  <time>2026-09-01T20:03:50Z</time>
  <course>8.08</course>
  <speed>0.0</speed>
  <fix>3d</fix>
</trkpt>
<trkpt lat="-27.274439" lon="151.290064">
  <ele>343.1</ele>
  <time>2026-09-01T20:03:50Z</time>
  <course>270.0</course>
  <speed>0.0</speed>
  <fix>3d</fix>
</trkpt>
<trkpt lat="-27.274439" lon="151.290064">
  <ele>343.1</ele>
  <time>2026-09-01T20:03:50Z</time>
  <course>8.08</course>
  <speed>0.0</speed>
  <fix>3d</fix>
</trkpt>
<trkpt lat="-27.274439" lon="151.290064">
  <ele>343.1</ele>
  <time>2026-09-01T20:03:50Z</time>
  <course>270.0</course>
  <speed>0.0</speed>
  <fix>3d</fix>
</trkpt>
<trkpt lat="-27.274439" lon="151.290064">
  <ele>343.32</ele>
  <time>2026-09-01T20:03:50Z</time>
  <course>8.08</course>
  <speed>0.0</speed>
  <fix>3d</fix>
</trkpt>
<trkpt lat="-27.274439" lon="151.290064">
  <ele>343.1</ele>
  <time>2026-09-01T20:03:50Z</time>
  <course>270.0</course>
  <speed>0.0</speed>
  <fix>3d</fix>
</trkpt>
<trkpt lat="-27.274439" lon="151.290064">
  <ele>343.06</ele>
  <time>2026-09-01T20:03:50Z</time>
  <course>8.08</course>
  <speed>0.0</speed>
  <fix>3d</fix>
</trkpt>
<trkpt lat="-27.274439" lon="151.290064">
  <ele>343.1</ele>
  <time>2026-09-01T20:03:50Z</time>
  <course>270.0</course>
  <speed>0.0</speed>
  <fix>3d</fix>
</trkpt>
<trkpt lat="-27.274439" lon="151.290064">
  <ele>343.29</ele>
  <time>2026-09-01T20:03:50Z</time>
  <course>8.08</course>
  <speed>0.0</speed>
  <fix>3d</fix>
</trkpt>
<trkpt lat="-27.274439" lon="151.290064">
  <ele>343.1</ele>
  <time>2026-09-01T20:03:50Z</time>
  <course>270.0</course>
  <speed>0.0</speed>
  <fix>3d</fix>
</trkpt>
<trkpt lat="-27.274439" lon="151.290064">
  <ele>343.05</ele>
  <time>2026-09-01T20:03:50Z</time>
  <course>8.08</course>
  <speed>0.0</speed>
  <fix>3d</fix>
</trkpt>
<trkpt lat="-27.274439" lon="151.290064">
  <ele>343.1</ele>
  <time>2026-09-01T20:03:50Z</time>
  <course>270.0</course>
  <speed>0.0</speed>
  <fix>3d</fix>
</trkpt>
<trkpt lat="-27.274439" lon="151.290064">
  <ele>343.27</ele>
  <time>2026-09-01T20:03:50Z</time>
  <course>8.08</course>
  <speed>0.0</speed>
  <fix>3d</fix>
</trkpt>
<trkpt lat="-27.274439" lon="151.290064">
  <ele>343.1</ele>
  <time>2026-09-01T20:03:50Z</time>
  <course>270.0</course>
  <speed>0.0</speed>
  <fix>3d</fix>
</trkpt>
<trkpt lat="-27.274439" lon="151.290064">
  <ele>343.19</ele>
  <time>2026-09-01T20:03:50Z</time>
  <course>8.08</course>
  <speed>0.0</speed>
  <fix>3d</fix>
</trkpt>
<trkpt lat="-27.274439" lon="151.290064">
  <ele>343.1</ele>
  <time>2026-09-01T20:03:50Z</time>
  <course>270.0</course>
  <speed>0.0</speed>
  <fix>3d</fix>
</trkpt>
<trkpt lat="-27.274439" lon="151.290064">
  <ele>343.1</ele>
  <time>2026-09-01T20:03:50Z</time>
  <course>8.08</course>
  <speed>0.0</speed>
  <fix>3d</fix>
</trkpt>
<trkpt lat="-27.274439" lon="151.290064">
  <ele>343.1</ele>
  <time>2026-09-01T20:03:50Z</time>
  <course>270.0</course>
  <speed>0.0</speed>
  <fix>3d</fix>
</trkpt>
<trkpt lat="-27.274439" lon="151.290064">
  <ele>343.25</ele>
  <time>2026-09-01T20:03:50Z</time>
  <course>8.08</course>
  <speed>0.0</speed>
  <fix>3d</fix>
</trkpt>
<trkpt lat="-27.274439" lon="151.290064">
  <ele>343.1</ele>
  <time>2026-09-01T20:03:50Z</time>
  <course>270.0</course>
  <speed>0.0</speed>
  <fix>3d</fix>
</trkpt>
<trkpt lat="-27.274439" lon="151.290064">
  <ele>343.22</ele>
  <time>2026-09-01T20:03:50Z</time>
  <course>8.08</course>
  <speed>0.0</speed>
  <fix>3d</fix>
</trkpt>
<trkpt lat="-27.274439" lon="151.290064">
  <ele>343.1</ele>
  <time>2026-09-01T20:03:50Z</time>
  <course>270.0</course>
  <speed>0.0</speed>
  <fix>3d</fix>
</trkpt>
<trkpt lat="-27.274439" lon="151.290064">
  <ele>343.18</ele>
  <time>2026-09-01T20:03:50Z</time>
  <course>8.08</course>
  <speed>0.0</speed>
  <fix>3d</fix>
</trkpt>
<trkpt lat="-27.274439" lon="151.290064">
  <ele>343.1</ele>
  <time>2026-09-01T20:03:50Z</time>
  <course>270.0</course>
  <speed>0.0</speed>
  <fix>3d</fix>
</trkpt>
<trkpt lat="-27.274439" lon="151.290064">
  <ele>343.28</ele>
  <time>2026-09-01T20:03:50Z</time>
  <course>8.08</course>
  <speed>0.0</speed>
  <fix>3d</fix>
</trkpt>
<trkpt lat="-27.274439" lon="151.290064">
  <ele>343.1</ele>
  <time>2026-09-01T20:03:50Z</time>
  <course>270.0</course>
  <speed>0.0</speed>
  <fix>3d</fix>
</trkpt>
<trkpt lat="-27.274439" lon="151.290064">
  <ele>343.17</ele>
  <time>2026-09-01T20:03:50Z</time>
  <course>8.08</course>
  <speed>0.0</speed>
  <fix>3d</fix>
</trkpt>
<trkpt lat="-27.274439" lon="151.290064">
  <ele>343.1</ele>
  <time>2026-09-01T20:03:50Z</time>
  <course>270.0</course>
  <speed>0.0</speed>
  <fix>3d</fix>
</trkpt>
<trkpt lat="-27.274439" lon="151.290064">
  <ele>343.09</ele>
  <time>2026-09-01T20:03:50Z</time>
  <course>8.08</course>
  <speed>0.0</speed>
  <fix>3d</fix>
</trkpt>
<trkpt lat="-27.274439" lon="151.290064">
  <ele>343.1</ele>
  <time>2026-09-01T20:03:50Z</time>
  <course>270.0</course>
  <speed>0.0</speed>
  <fix>3d</fix>
</trkpt>
<trkpt lat="-27.274439" lon="151.290064">
  <ele>342.99</ele>
  <time>2026-09-01T20:03:50Z</time>
  <course>8.08</course>
  <speed>0.0</speed>
  <fix>3d</fix>
</trkpt>
<trkpt lat="-27.274439" lon="151.290064">
  <ele>343.1</ele>
  <time>2026-09-01T20:03:50Z</time>
  <course>270.0</course>
  <speed>0.0</speed>
  <fix>3d</fix>
</trkpt>
<trkpt lat="-27.274439" lon="151.290064">
  <ele>343.32</ele>
  <time>2026-09-01T20:03:50Z</time>
  <course>8.08</course>
  <speed>0.0</speed>
  <fix>3d</fix>
</trkpt>
<trkpt lat="-27.274439" lon="151.290064">
  <ele>343.1</ele>
  <time>2026-09-01T20:03:50Z</time>
  <course>270.0</course>
  <speed>0.0</speed>
  <fix>3d</fix>
</trkpt>
<trkpt lat="-27.274439" lon="151.290064">
  <ele>343.3</ele>
  <time>2026-09-01T20:03:50Z</time>
  <course>8.09</course>
  <speed>0.0</speed>
  <fix>3d</fix>
</trkpt>
<trkpt lat="-27.274439" lon="151.290064">
  <ele>343.1</ele>
  <time>2026-09-01T20:03:50Z</time>
  <course>270.0</course>
  <speed>0.0</speed>
  <fix>3d</fix>
</trkpt>
<trkpt lat="-27.274439" lon="151.290064">
  <ele>343.03</ele>
  <time>2026-09-01T20:03:50Z</time>
  <course>8.09</course>
  <speed>0.0</speed>
  <fix>3d</fix>
</trkpt>
<trkpt lat="-27.274439" lon="151.290064">
  <ele>343.1</ele>
  <time>2026-09-01T20:03:50Z</time>
  <course>270.0</course>
  <speed>0.0</speed>
  <fix>3d</fix>
</trkpt>
<trkpt lat="-27.274439" lon="151.290064">
  <ele>343.1</ele>
  <time>2026-09-01T20:03:50Z</time>
  <course>8.09</course>
  <speed>0.0</speed>
  <fix>3d</fix>
</trkpt>
<trkpt lat="-27.274439" lon="151.290064">
  <ele>343.1</ele>
  <time>2026-09-01T20:03:50Z</time>
  <course>270.0</course>
  <speed>0.0</speed>
  <fix>3d</fix>
</trkpt>
<trkpt lat="-27.274439" lon="151.290064">
  <ele>342.89</ele>
  <time>2026-09-01T20:03:50Z</time>
  <course>8.09</course>
  <speed>0.0</speed>
  <fix>3d</fix>
</trkpt>
<trkpt lat="-27.274439" lon="151.290064">
  <ele>343.1</ele>
  <time>2026-09-01T20:03:50Z</time>
  <course>270.0</course>
  <speed>0.0</speed>
  <fix>3d</fix>
</trkpt>
<trkpt lat="-27.274439" lon="151.290064">
  <ele>343.04</ele>
  <time>2026-09-01T20:03:50Z</time>
  <course>8.09</course>
  <speed>0.0</speed>
  <fix>3d</fix>
</trkpt>
<trkpt lat="-27.274439" lon="151.290064">
  <ele>343.1</ele>
  <time>2026-09-01T20:03:50Z</time>
  <course>270.0</course>
  <speed>0.0</speed>
  <fix>3d</fix>
</trkpt>
<trkpt lat="-27.274439" lon="151.290064">
  <ele>342.83</ele>
  <time>2026-09-01T20:03:50Z</time>
  <course>8.09</course>
  <speed>0.0</speed>
  <fix>3d</fix>
</trkpt>
<trkpt lat="-27.274439" lon="151.290064">
  <ele>343.1</ele>
  <time>2026-09-01T20:03:50Z</time>
  <course>270.0</course>
  <speed>0.0</speed>
  <fix>3d</fix>
</trkpt>
<trkpt lat="-27.274439" lon="151.290064">
  <ele>342.82</ele>
  <time>2026-09-01T20:03:50Z</time>
  <course>8.09</course>
  <speed>0.0</speed>
  <fix>3d</fix>
</trkpt>
<trkpt lat="-27.274439" lon="151.290064">
  <ele>343.1</ele>
  <time>2026-09-01T20:03:50Z</time>
  <course>270.0</course>
  <speed>0.0</speed>
  <fix>3d</fix>
</trkpt>
<trkpt lat="-27.274439" lon="151.290064">
  <ele>343.04</ele>
  <time>2026-09-01T20:03:50Z</time>
  <course>8.09</course>
  <speed>0.0</speed>
  <fix>3d</fix>
</trkpt>
<trkpt lat="-27.274439" lon="151.290064">
  <ele>343.1</ele>
  <time>2026-09-01T20:03:50Z</time>
  <course>270.0</course>
  <speed>0.0</speed>
  <fix>3d</fix>
</trkpt>
<trkpt lat="-27.274439" lon="151.290064">
  <ele>343.15</ele>
  <time>2026-09-01T20:03:50Z</time>
  <course>8.09</course>
  <speed>0.0</speed>
  <fix>3d</fix>
</trkpt>
<trkpt lat="-27.274439" lon="151.290064">
  <ele>343.1</ele>
  <time>2026-09-01T20:03:50Z</time>
  <course>270.0</course>
  <speed>0.0</speed>
  <fix>3d</fix>
</trkpt>
<trkpt lat="-27.274439" lon="151.290064">
  <ele>343.03</ele>
  <time>2026-09-01T20:03:50Z</time>
  <course>8.09</course>
  <speed>0.0</speed>
  <fix>3d</fix>
</trkpt>
<trkpt lat="-27.274439" lon="151.290064">
  <ele>343.1</ele>
  <time>2026-09-01T20:03:50Z</time>
  <course>270.0</course>
  <speed>0.0</speed>
  <fix>3d</fix>
</trkpt>
<trkpt lat="-27.274439" lon="151.290064">
  <ele>343.03</ele>
  <time>2026-09-01T20:03:50Z</time>
  <course>8.1</course>
  <speed>0.0</speed>
  <fix>3d</fix>
</trkpt>
<trkpt lat="-27.274439" lon="151.290064">
  <ele>343.1</ele>
  <time>2026-09-01T20:03:50Z</time>
  <course>270.0</course>
  <speed>0.0</speed>
  <fix>3d</fix>
</trkpt>
<trkpt lat="-27.274439" lon="151.290064">
  <ele>342.82</ele>
  <time>2026-09-01T20:03:50Z</time>
  <course>8.11</course>
  <speed>0.0</speed>
  <fix>3d</fix>
</trkpt>
<trkpt lat="-27.274439" lon="151.290064">
  <ele>343.1</ele>
  <time>2026-09-01T20:03:50Z</time>
  <course>270.0</course>
  <speed>0.0</speed>
  <fix>3d</fix>
</trkpt>
<trkpt lat="-27.274439" lon="151.290064">
  <ele>342.88</ele>
  <time>2026-09-01T20:03:50Z</time>
  <course>8.12</course>
  <speed>0.0</speed>
  <fix>3d</fix>
</trkpt>
<trkpt lat="-27.274439" lon="151.290064">
  <ele>343.1</ele>
  <time>2026-09-01T20:03:50Z</time>
  <course>270.0</course>
  <speed>0.0</speed>
  <fix>3d</fix>
</trkpt>
<trkpt lat="-27.274439" lon="151.290064">
  <ele>342.77</ele>
  <time>2026-09-01T20:03:50Z</time>
  <course>8.13</course>
  <speed>0.0</speed>
  <fix>3d</fix>
</trkpt>
<trkpt lat="-27.274439" lon="151.290064">
  <ele>343.1</ele>
  <time>2026-09-01T20:03:50Z</time>
  <course>270.0</course>
  <speed>0.0</speed>
  <fix>3d</fix>
</trkpt>
<trkpt lat="-27.274439" lon="151.290064">
  <ele>342.85</ele>
  <time>2026-09-01T20:03:50Z</time>
  <course>8.14</course>
  <speed>0.0</speed>
  <fix>3d</fix>
</trkpt>
<trkpt lat="-27.274439" lon="151.290064">
  <ele>343.1</ele>
  <time>2026-09-01T20:03:50Z</time>
  <course>270.0</course>
  <speed>0.0</speed>
  <fix>3d</fix>
</trkpt>
<trkpt lat="-27.274439" lon="151.290064">
  <ele>342.93</ele>
  <time>2026-09-01T20:03:50Z</time>
  <course>8.15</course>
  <speed>0.0</speed>
  <fix>3d</fix>
</trkpt>
<trkpt lat="-27.274439" lon="151.290064">
  <ele>343.1</ele>
  <time>2026-09-01T20:03:50Z</time>
  <course>270.0</course>
  <speed>0.0</speed>
  <fix>3d</fix>
</trkpt>
<trkpt lat="-27.274439" lon="151.290064">
  <ele>342.76</ele>
  <time>2026-09-01T20:03:50Z</time>
  <course>8.16</course>
  <speed>0.0</speed>
  <fix>3d</fix>
</trkpt>
<trkpt lat="-27.274439" lon="151.290064">
  <ele>343.1</ele>
  <time>2026-09-01T20:03:50Z</time>
  <course>270.0</course>
  <speed>0.0</speed>
  <fix>3d</fix>
</trkpt>
<trkpt lat="-27.274439" lon="151.290064">
  <ele>343.13</ele>
  <time>2026-09-01T20:03:50Z</time>
  <course>8.16</course>
  <speed>0.0</speed>
  <fix>3d</fix>
</trkpt>
<trkpt lat="-27.274439" lon="151.290064">
  <ele>343.1</ele>
  <time>2026-09-01T20:03:50Z</time>
  <course>270.0</course>
  <speed>0.0</speed>
  <fix>3d</fix>
</trkpt>
<trkpt lat="-27.274439" lon="151.290064">
  <ele>343.06</ele>
  <time>2026-09-01T20:03:50Z</time>
  <course>8.17</course>
  <speed>0.0</speed>
  <fix>3d</fix>
</trkpt>
<trkpt lat="-27.274439" lon="151.290064">
  <ele>343.1</ele>
  <time>2026-09-01T20:03:50Z</time>
  <course>270.0</course>
  <speed>0.0</speed>
  <fix>3d</fix>
</trkpt>
<trkpt lat="-27.274439" lon="151.290064">
  <ele>343.14</ele>
  <time>2026-09-01T20:03:50Z</time>
  <course>8.18</course>
  <speed>0.0</speed>
  <fix>3d</fix>
</trkpt>
<trkpt lat="-27.274439" lon="151.290064">
  <ele>343.1</ele>
  <time>2026-09-01T20:03:50Z</time>
  <course>270.0</course>
  <speed>0.0</speed>
  <fix>3d</fix>
</trkpt>
<trkpt lat="-27.274439" lon="151.290064">
  <ele>342.84</ele>
  <time>2026-09-01T20:03:50Z</time>
  <course>8.19</course>
  <speed>0.0</speed>
  <fix>3d</fix>
</trkpt>
<trkpt lat="-27.274439" lon="151.290064">
  <ele>343.1</ele>
  <time>2026-09-01T20:03:50Z</time>
  <course>270.0</course>
  <speed>0.0</speed>
  <fix>3d</fix>
</trkpt>
<trkpt lat="-27.274439" lon="151.290064">
  <ele>342.9</ele>
  <time>2026-09-01T20:03:50Z</time>
  <course>8.19</course>
  <speed>0.0</speed>
  <fix>3d</fix>
</trkpt>
<trkpt lat="-27.274439" lon="151.290064">
  <ele>343.1</ele>
  <time>2026-09-01T20:03:50Z</time>
  <course>270.0</course>
  <speed>0.0</speed>
  <fix>3d</fix>
</trkpt>
<trkpt lat="-27.274439" lon="151.290064">
  <ele>343.08</ele>
  <time>2026-09-01T20:03:50Z</time>
  <course>8.2</course>
  <speed>0.0</speed>
  <fix>3d</fix>
</trkpt>
<trkpt lat="-27.274439" lon="151.290064">
  <ele>343.1</ele>
  <time>2026-09-01T20:03:50Z</time>
  <course>270.0</course>
  <speed>0.0</speed>
  <fix>3d</fix>
</trkpt>
<trkpt lat="-27.274439" lon="151.290064">
  <ele>342.93</ele>
  <time>2026-09-01T20:03:50Z</time>
  <course>8.21</course>
  <speed>0.0</speed>
  <fix>3d</fix>
</trkpt>
<trkpt lat="-27.274439" lon="151.290064">
  <ele>343.1</ele>
  <time>2026-09-01T20:03:50Z</time>
  <course>270.0</course>
  <speed>0.0</speed>
  <fix>3d</fix>
</trkpt>
<trkpt lat="-27.274439" lon="151.290064">
  <ele>343.1</ele>
  <time>2026-09-01T20:03:50Z</time>
  <course>8.22</course>
  <speed>0.0</speed>
  <fix>3d</fix>
</trkpt>
<trkpt lat="-27.274439" lon="151.290064">
  <ele>343.1</ele>
  <time>2026-09-01T20:03:50Z</time>
  <course>270.0</course>
  <speed>0.0</speed>
  <fix>3d</fix>
</trkpt>
<trkpt lat="-27.274439" lon="151.290064">
  <ele>343.0</ele>
  <time>2026-09-01T20:03:50Z</time>
  <course>8.23</course>
  <speed>0.0</speed>
  <fix>3d</fix>
</trkpt>
<trkpt lat="-27.274439" lon="151.290064">
  <ele>343.1</ele>
  <time>2026-09-01T20:03:50Z</time>
  <course>270.0</course>
  <speed>0.0</speed>
  <fix>3d</fix>
</trkpt>
<trkpt lat="-27.274439" lon="151.290064">
  <ele>343.12</ele>
  <time>2026-09-01T20:03:50Z</time>
  <course>8.23</course>
  <speed>0.0</speed>
  <fix>3d</fix>
</trkpt>
<trkpt lat="-27.274439" lon="151.290064">
  <ele>343.1</ele>
  <time>2026-09-01T20:03:50Z</time>
  <course>270.0</course>
  <speed>0.0</speed>
  <fix>3d</fix>
</trkpt>
<trkpt lat="-27.274439" lon="151.290064">
  <ele>343.14</ele>
  <time>2026-09-01T20:03:50Z</time>
  <course>8.24</course>
  <speed>0.0</speed>
  <fix>3d</fix>
</trkpt>
<trkpt lat="-27.274439" lon="151.290064">
  <ele>343.1</ele>
  <time>2026-09-01T20:03:50Z</time>
  <course>270.0</course>
  <speed>0.0</speed>
  <fix>3d</fix>
</trkpt>
<trkpt lat="-27.274439" lon="151.290064">
  <ele>342.95</ele>
  <time>2026-09-01T20:03:50Z</time>
  <course>8.25</course>
  <speed>0.0</speed>
  <fix>3d</fix>
</trkpt>
<trkpt lat="-27.274439" lon="151.290064">
  <ele>343.1</ele>
  <time>2026-09-01T20:03:50Z</time>
  <course>270.0</course>
  <speed>0.0</speed>
  <fix>3d</fix>
</trkpt>
<trkpt lat="-27.274439" lon="151.290064">
  <ele>342.81</ele>
  <time>2026-09-01T20:03:50Z</time>
  <course>8.25</course>
  <speed>0.0</speed>
  <fix>3d</fix>
</trkpt>
<trkpt lat="-27.274439" lon="151.290064">
  <ele>343.1</ele>
  <time>2026-09-01T20:03:50Z</time>
  <course>270.0</course>
  <speed>0.0</speed>
  <fix>3d</fix>
</trkpt>
<trkpt lat="-27.274439" lon="151.290064">
  <ele>342.79</ele>
  <time>2026-09-01T20:03:50Z</time>
  <course>8.26</course>
  <speed>0.0</speed>
  <fix>3d</fix>
</trkpt>
<trkpt lat="-27.274439" lon="151.290064">
  <ele>343.1</ele>
  <time>2026-09-01T20:03:50Z</time>
  <course>270.0</course>
  <speed>0.0</speed>
  <fix>3d</fix>
</trkpt>
<trkpt lat="-27.274439" lon="151.290064">
  <ele>342.96</ele>
  <time>2026-09-01T20:03:50Z</time>
  <course>8.27</course>
  <speed>0.0</speed>
  <fix>3d</fix>
</trkpt>
<trkpt lat="-27.274439" lon="151.290064">
  <ele>343.1</ele>
  <time>2026-09-01T20:03:50Z</time>
  <course>270.0</course>
  <speed>0.0</speed>
  <fix>3d</fix>
</trkpt>
<trkpt lat="-27.274439" lon="151.290064">
  <ele>342.84</ele>
  <time>2026-09-01T20:03:50Z</time>
  <course>8.27</course>
  <speed>0.0</speed>
  <fix>3d</fix>
</trkpt>
<trkpt lat="-27.274439" lon="151.290064">
  <ele>343.1</ele>
  <time>2026-09-01T20:03:50Z</time>
  <course>270.0</course>
  <speed>0.0</speed>
  <fix>3d</fix>
</trkpt>
<trkpt lat="-27.274439" lon="151.290064">
  <ele>342.96</ele>
  <time>2026-09-01T20:03:50Z</time>
  <course>8.28</course>
  <speed>0.0</speed>
  <fix>3d</fix>
</trkpt>
<trkpt lat="-27.274439" lon="151.290064">
  <ele>343.1</ele>
  <time>2026-09-01T20:03:50Z</time>
  <course>270.0</course>
  <speed>0.0</speed>
  <fix>3d</fix>
</trkpt>
<trkpt lat="-27.274439" lon="151.290064">
  <ele>342.88</ele>
  <time>2026-09-01T20:03:50Z</time>
  <course>8.28</course>
  <speed>0.0</speed>
  <fix>3d</fix>
</trkpt>
<trkpt lat="-27.274439" lon="151.290064">
  <ele>343.1</ele>
  <time>2026-09-01T20:03:50Z</time>
  <course>270.0</course>
  <speed>0.0</speed>
  <fix>3d</fix>
</trkpt>
<trkpt lat="-27.274439" lon="151.290064">
  <ele>342.8</ele>
  <time>2026-09-01T20:03:50Z</time>
  <course>8.29</course>
  <speed>0.0</speed>
  <fix>3d</fix>
</trkpt>
<trkpt lat="-27.274439" lon="151.290064">
  <ele>343.1</ele>
  <time>2026-09-01T20:03:50Z</time>
  <course>270.0</course>
  <speed>0.0</speed>
  <fix>3d</fix>
</trkpt>
<trkpt lat="-27.274439" lon="151.290064">
  <ele>343.02</ele>
  <time>2026-09-01T20:03:50Z</time>
  <course>8.3</course>
  <speed>0.0</speed>
  <fix>3d</fix>
</trkpt>
<trkpt lat="-27.274439" lon="151.290064">
  <ele>343.1</ele>
  <time>2026-09-01T20:03:50Z</time>
  <course>270.0</course>
  <speed>0.0</speed>
  <fix>3d</fix>
</trkpt>
<trkpt lat="-27.274439" lon="151.290064">
  <ele>342.85</ele>
  <time>2026-09-01T20:03:50Z</time>
  <course>8.3</course>
  <speed>0.0</speed>
  <fix>3d</fix>
</trkpt>
<trkpt lat="-27.274439" lon="151.290064">
  <ele>343.1</ele>
  <time>2026-09-01T20:03:50Z</time>
  <course>270.0</course>
  <speed>0.0</speed>
  <fix>3d</fix>
</trkpt>
<trkpt lat="-27.274439" lon="151.290064">
  <ele>342.85</ele>
  <time>2026-09-01T20:03:50Z</time>
  <course>8.31</course>
  <speed>0.0</speed>
  <fix>3d</fix>
</trkpt>
<trkpt lat="-27.274439" lon="151.290064">
  <ele>343.1</ele>
  <time>2026-09-01T20:03:50Z</time>
  <course>270.0</course>
  <speed>0.0</speed>
  <fix>3d</fix>
</trkpt>
<trkpt lat="-27.274439" lon="151.290064">
  <ele>342.84</ele>
  <time>2026-09-01T20:03:50Z</time>
  <course>8.31</course>
  <speed>0.0</speed>
  <fix>3d</fix>
</trkpt>
<trkpt lat="-27.274439" lon="151.290064">
  <ele>343.1</ele>
  <time>2026-09-01T20:03:50Z</time>
  <course>270.0</course>
  <speed>0.0</speed>
  <fix>3d</fix>
</trkpt>
<trkpt lat="-27.274439" lon="151.290064">
  <ele>343.02</ele>
  <time>2026-09-01T20:03:50Z</time>
  <course>8.32</course>
  <speed>0.0</speed>
  <fix>3d</fix>
</trkpt>
<trkpt lat="-27.274439" lon="151.290064">
  <ele>343.1</ele>
  <time>2026-09-01T20:03:50Z</time>
  <course>270.0</course>
  <speed>0.0</speed>
  <fix>3d</fix>
</trkpt>
<trkpt lat="-27.274439" lon="151.290064">
  <ele>342.95</ele>
  <time>2026-09-01T20:03:50Z</time>
  <course>8.32</course>
  <speed>0.0</speed>
  <fix>3d</fix>
</trkpt>
<trkpt lat="-27.274439" lon="151.290064">
  <ele>343.1</ele>
  <time>2026-09-01T20:03:50Z</time>
  <course>270.0</course>
  <speed>0.0</speed>
  <fix>3d</fix>
</trkpt>
<trkpt lat="-27.274439" lon="151.290064">
  <ele>342.91</ele>
  <time>2026-09-01T20:03:50Z</time>
  <course>8.33</course>
  <speed>0.0</speed>
  <fix>3d</fix>
</trkpt>
<trkpt lat="-27.274439" lon="151.290064">
  <ele>343.1</ele>
  <time>2026-09-01T20:03:50Z</time>
  <course>270.0</course>
  <speed>0.0</speed>
  <fix>3d</fix>
</trkpt>
<trkpt lat="-27.274439" lon="151.290064">
  <ele>343.1</ele>
  <time>2026-09-01T20:03:50Z</time>
  <course>8.33</course>
  <speed>0.0</speed>
  <fix>3d</fix>
</trkpt>
<trkpt lat="-27.274439" lon="151.290064">
  <ele>343.1</ele>
  <time>2026-09-01T20:03:50Z</time>
  <course>270.0</course>
  <speed>0.0</speed>
  <fix>3d</fix>
</trkpt>
<trkpt lat="-27.274439" lon="151.290064">
  <ele>343.09</ele>
  <time>2026-09-01T20:03:50Z</time>
  <course>8.34</course>
  <speed>0.0</speed>
  <fix>3d</fix>
</trkpt>
<trkpt lat="-27.274439" lon="151.290064">
  <ele>343.1</ele>
  <time>2026-09-01T20:03:50Z</time>
  <course>270.0</course>
  <speed>0.0</speed>
  <fix>3d</fix>
</trkpt>
<trkpt lat="-27.274439" lon="151.290064">
  <ele>342.79</ele>
  <time>2026-09-01T20:03:50Z</time>
  <course>8.34</course>
  <speed>0.0</speed>
  <fix>3d</fix>
</trkpt>
<trkpt lat="-27.274439" lon="151.290064">
  <ele>343.1</ele>
  <time>2026-09-01T20:03:50Z</time>
  <course>270.0</course>
  <speed>0.0</speed>
  <fix>3d</fix>
</trkpt>
<trkpt lat="-27.274439" lon="151.290064">
  <ele>343.04</ele>
  <time>2026-09-01T20:03:50Z</time>
  <course>8.35</course>
  <speed>0.0</speed>
  <fix>3d</fix>
</trkpt>
<trkpt lat="-27.274439" lon="151.290064">
  <ele>343.1</ele>
  <time>2026-09-01T20:03:50Z</time>
  <course>270.0</course>
  <speed>0.0</speed>
  <fix>3d</fix>
</trkpt>
<trkpt lat="-27.274439" lon="151.290064">
  <ele>343.04</ele>
  <time>2026-09-01T20:03:50Z</time>
  <course>8.35</course>
  <speed>0.0</speed>
  <fix>3d</fix>
</trkpt>
<trkpt lat="-27.274439" lon="151.290064">
  <ele>343.1</ele>
  <time>2026-09-01T20:03:50Z</time>
  <course>270.0</course>
  <speed>0.0</speed>
  <fix>3d</fix>
</trkpt>
<trkpt lat="-27.274439" lon="151.290064">
  <ele>342.9</ele>
  <time>2026-09-01T20:03:50Z</time>
  <course>8.36</course>
  <speed>0.0</speed>
  <fix>3d</fix>
</trkpt>
<trkpt lat="-27.274439" lon="151.290064">
  <ele>343.1</ele>
  <time>2026-09-01T20:03:50Z</time>
  <course>270.0</course>
  <speed>0.0</speed>
  <fix>3d</fix>
</trkpt>
<trkpt lat="-27.274439" lon="151.290064">
  <ele>343.12</ele>
  <time>2026-09-01T20:03:50Z</time>
  <course>8.36</course>
  <speed>0.0</speed>
  <fix>3d</fix>
</trkpt>
<trkpt lat="-27.274439" lon="151.290064">
  <ele>343.1</ele>
  <time>2026-09-01T20:03:50Z</time>
  <course>270.0</course>
  <speed>0.0</speed>
  <fix>3d</fix>
</trkpt>
<trkpt lat="-27.274439" lon="151.290064">
  <ele>342.75</ele>
  <time>2026-09-01T20:03:50Z</time>
  <course>8.37</course>
  <speed>0.0</speed>
  <fix>3d</fix>
</trkpt>
<trkpt lat="-27.274439" lon="151.290064">
  <ele>343.1</ele>
  <time>2026-09-01T20:03:50Z</time>
  <course>270.0</course>
  <speed>0.0</speed>
  <fix>3d</fix>
</trkpt>
<trkpt lat="-27.274439" lon="151.290064">
  <ele>342.8</ele>
  <time>2026-09-01T20:03:50Z</time>
  <course>8.37</course>
  <speed>0.0</speed>
  <fix>3d</fix>
</trkpt>
<trkpt lat="-27.274439" lon="151.290064">
  <ele>343.1</ele>
  <time>2026-09-01T20:03:50Z</time>
  <course>270.0</course>
  <speed>0.0</speed>
  <fix>3d</fix>
</trkpt>
<trkpt lat="-27.274439" lon="151.290064">
  <ele>342.95</ele>
  <time>2026-09-01T20:03:50Z</time>
  <course>8.38</course>
  <speed>0.0</speed>
  <fix>3d</fix>
</trkpt>
<trkpt lat="-27.274439" lon="151.290064">
  <ele>343.1</ele>
  <time>2026-09-01T20:03:50Z</time>
  <course>270.0</course>
  <speed>0.0</speed>
  <fix>3d</fix>
</trkpt>
<trkpt lat="-27.274439" lon="151.290064">
  <ele>343.1</ele>
  <time>2026-09-01T20:03:50Z</time>
  <course>8.38</course>
  <speed>0.0</speed>
  <fix>3d</fix>
</trkpt>
<trkpt lat="-27.274439" lon="151.290064">
  <ele>343.1</ele>
  <time>2026-09-01T20:03:50Z</time>
  <course>270.0</course>
  <speed>0.0</speed>
  <fix>3d</fix>
</trkpt>
<trkpt lat="-27.274439" lon="151.290064">
  <ele>343.08</ele>
  <time>2026-09-01T20:03:50Z</time>
  <course>8.39</course>
  <speed>0.0</speed>
  <fix>3d</fix>
</trkpt>
<trkpt lat="-27.274439" lon="151.290064">
  <ele>343.1</ele>
  <time>2026-09-01T20:03:50Z</time>
  <course>270.0</course>
  <speed>0.0</speed>
  <fix>3d</fix>
</trkpt>
<trkpt lat="-27.274439" lon="151.290064">
  <ele>342.91</ele>
  <time>2026-09-01T20:03:50Z</time>
  <course>8.39</course>
  <speed>0.0</speed>
  <fix>3d</fix>
</trkpt>
<trkpt lat="-27.274439" lon="151.290064">
  <ele>343.1</ele>
  <time>2026-09-01T20:03:50Z</time>
  <course>270.0</course>
  <speed>0.0</speed>
  <fix>3d</fix>
</trkpt>
<trkpt lat="-27.274439" lon="151.290064">
  <ele>342.94</ele>
  <time>2026-09-01T20:03:50Z</time>
  <course>8.4</course>
  <speed>0.0</speed>
  <fix>3d</fix>
</trkpt>
<trkpt lat="-27.274439" lon="151.290064">
  <ele>343.1</ele>
  <time>2026-09-01T20:03:50Z</time>
  <course>270.0</course>
  <speed>0.0</speed>
  <fix>3d</fix>
</trkpt>
<trkpt lat="-27.274439" lon="151.290064">
  <ele>343.06</ele>
  <time>2026-09-01T20:03:50Z</time>
  <course>8.4</course>
  <speed>0.0</speed>
  <fix>3d</fix>
</trkpt>
<trkpt lat="-27.274439" lon="151.290064">
  <ele>343.1</ele>
  <time>2026-09-01T20:03:50Z</time>
  <course>270.0</course>
  <speed>0.0</speed>
  <fix>3d</fix>
</trkpt>
<trkpt lat="-27.274439" lon="151.290064">
  <ele>342.96</ele>
  <time>2026-09-01T20:03:50Z</time>
  <course>8.41</course>
  <speed>0.0</speed>
  <fix>3d</fix>
</trkpt>
<trkpt lat="-27.274439" lon="151.290064">
  <ele>343.1</ele>
  <time>2026-09-01T20:03:50Z</time>
  <course>270.0</course>
  <speed>0.0</speed>
  <fix>3d</fix>
</trkpt>
<trkpt lat="-27.274439" lon="151.290064">
  <ele>342.77</ele>
  <time>2026-09-01T20:03:50Z</time>
  <course>8.41</course>
  <speed>0.0</speed>
  <fix>3d</fix>
</trkpt>
<trkpt lat="-27.274439" lon="151.290064">
  <ele>343.1</ele>
  <time>2026-09-01T20:03:50Z</time>
  <course>270.0</course>
  <speed>0.0</speed>
  <fix>3d</fix>
</trkpt>
<trkpt lat="-27.274439" lon="151.290064">
  <ele>342.75</ele>
  <time>2026-09-01T20:03:50Z</time>
  <course>8.41</course>
  <speed>0.0</speed>
  <fix>3d</fix>
</trkpt>
<trkpt lat="-27.274439" lon="151.290064">
  <ele>343.1</ele>
  <time>2026-09-01T20:03:50Z</time>
  <course>270.0</course>
  <speed>0.0</speed>
  <fix>3d</fix>
</trkpt>
<trkpt lat="-27.274439" lon="151.290064">
  <ele>343.12</ele>
  <time>2026-09-01T20:03:50Z</time>
  <course>8.42</course>
  <speed>0.0</speed>
  <fix>3d</fix>
</trkpt>
<trkpt lat="-27.274439" lon="151.290064">
  <ele>343.1</ele>
  <time>2026-09-01T20:03:50Z</time>
  <course>270.0</course>
  <speed>0.0</speed>
  <fix>3d</fix>
</trkpt>
<trkpt lat="-27.274439" lon="151.290064">
  <ele>343.04</ele>
  <time>2026-09-01T20:03:50Z</time>
  <course>8.42</course>
  <speed>0.0</speed>
  <fix>3d</fix>
</trkpt>
<trkpt lat="-27.274439" lon="151.290064">
  <ele>343.1</ele>
  <time>2026-09-01T20:03:50Z</time>
  <course>270.0</course>
  <speed>0.0</speed>
  <fix>3d</fix>
</trkpt>
<trkpt lat="-27.274439" lon="151.290064">
  <ele>342.78</ele>
  <time>2026-09-01T20:03:50Z</time>
  <course>8.43</course>
  <speed>0.0</speed>
  <fix>3d</fix>
</trkpt>
<trkpt lat="-27.274439" lon="151.290064">
  <ele>343.1</ele>
  <time>2026-09-01T20:03:50Z</time>
  <course>270.0</course>
  <speed>0.0</speed>
  <fix>3d</fix>
</trkpt>
<trkpt lat="-27.274439" lon="151.290064">
  <ele>343.01</ele>
  <time>2026-09-01T20:03:50Z</time>
  <course>8.43</course>
  <speed>0.0</speed>
  <fix>3d</fix>
</trkpt>
<trkpt lat="-27.274439" lon="151.290064">
  <ele>343.1</ele>
  <time>2026-09-01T20:03:50Z</time>
  <course>270.0</course>
  <speed>0.0</speed>
  <fix>3d</fix>
</trkpt>
<trkpt lat="-27.274439" lon="151.290064">
  <ele>342.96</ele>
  <time>2026-09-01T20:03:50Z</time>
  <course>8.43</course>
  <speed>0.0</speed>
  <fix>3d</fix>
</trkpt>
<trkpt lat="-27.274439" lon="151.290064">
  <ele>343.1</ele>
  <time>2026-09-01T20:03:50Z</time>
  <course>270.0</course>
  <speed>0.0</speed>
  <fix>3d</fix>
</trkpt>
<trkpt lat="-27.274439" lon="151.290064">
  <ele>342.8</ele>
  <time>2026-09-01T20:03:50Z</time>
  <course>8.44</course>
  <speed>0.0</speed>
  <fix>3d</fix>
</trkpt>
<trkpt lat="-27.274439" lon="151.290064">
  <ele>343.1</ele>
  <time>2026-09-01T20:03:50Z</time>
  <course>270.0</course>
  <speed>0.0</speed>
  <fix>3d</fix>
</trkpt>
<trkpt lat="-27.274439" lon="151.290064">
  <ele>342.95</ele>
  <time>2026-09-01T20:03:50Z</time>
  <course>8.44</course>
  <speed>0.0</speed>
  <fix>3d</fix>
</trkpt>
<trkpt lat="-27.274439" lon="151.290064">
  <ele>343.1</ele>
  <time>2026-09-01T20:03:50Z</time>
  <course>270.0</course>
  <speed>0.0</speed>
  <fix>3d</fix>
</trkpt>
<trkpt lat="-27.274439" lon="151.290064">
  <ele>342.91</ele>
  <time>2026-09-01T20:03:50Z</time>
  <course>8.45</course>
  <speed>0.0</speed>
  <fix>3d</fix>
</trkpt>
<trkpt lat="-27.274439" lon="151.290064">
  <ele>343.1</ele>
  <time>2026-09-01T20:03:50Z</time>
  <course>270.0</course>
  <speed>0.0</speed>
  <fix>3d</fix>
</trkpt>
<trkpt lat="-27.274439" lon="151.290064">
  <ele>342.98</ele>
  <time>2026-09-01T20:03:50Z</time>
  <course>8.45</course>
  <speed>0.0</speed>
  <fix>3d</fix>
</trkpt>
<trkpt lat="-27.274439" lon="151.290064">
  <ele>343.1</ele>
  <time>2026-09-01T20:03:50Z</time>
  <course>270.0</course>
  <speed>0.0</speed>
  <fix>3d</fix>
</trkpt>
<trkpt lat="-27.274439" lon="151.290064">
  <ele>342.97</ele>
  <time>2026-09-01T20:03:50Z</time>
  <course>8.45</course>
  <speed>0.0</speed>
  <fix>3d</fix>
</trkpt>
<trkpt lat="-27.274439" lon="151.290064">
  <ele>343.1</ele>
  <time>2026-09-01T20:03:50Z</time>
  <course>270.0</course>
  <speed>0.0</speed>
  <fix>3d</fix>
</trkpt>
<trkpt lat="-27.274439" lon="151.290064">
  <ele>342.85</ele>
  <time>2026-09-01T20:03:50Z</time>
  <course>8.46</course>
  <speed>0.0</speed>
  <fix>3d</fix>
</trkpt>
<trkpt lat="-27.274439" lon="151.290064">
  <ele>343.1</ele>
  <time>2026-09-01T20:03:50Z</time>
  <course>270.0</course>
  <speed>0.0</speed>
  <fix>3d</fix>
</trkpt>
<trkpt lat="-27.274439" lon="151.290064">
  <ele>342.8</ele>
  <time>2026-09-01T20:03:50Z</time>
  <course>8.46</course>
  <speed>0.0</speed>
  <fix>3d</fix>
</trkpt>
<trkpt lat="-27.274439" lon="151.290064">
  <ele>343.1</ele>
  <time>2026-09-01T20:03:50Z</time>
  <course>270.0</course>
  <speed>0.0</speed>
  <fix>3d</fix>
</trkpt>
<trkpt lat="-27.274439" lon="151.290064">
  <ele>343.13</ele>
  <time>2026-09-01T20:03:50Z</time>
  <course>8.47</course>
  <speed>0.0</speed>
  <fix>3d</fix>
</trkpt>
<trkpt lat="-27.274439" lon="151.290064">
  <ele>343.1</ele>
  <time>2026-09-01T20:03:50Z</time>
  <course>270.0</course>
  <speed>0.0</speed>
  <fix>3d</fix>
</trkpt>
<trkpt lat="-27.274439" lon="151.290064">
  <ele>342.76</ele>
  <time>2026-09-01T20:03:50Z</time>
  <course>8.47</course>
  <speed>0.0</speed>
  <fix>3d</fix>
</trkpt>
<trkpt lat="-27.274439" lon="151.290064">
  <ele>343.1</ele>
  <time>2026-09-01T20:03:50Z</time>
  <course>270.0</course>
  <speed>0.0</speed>
  <fix>3d</fix>
</trkpt>
<trkpt lat="-27.274439" lon="151.290064">
  <ele>342.87</ele>
  <time>2026-09-01T20:03:50Z</time>
  <course>8.47</course>
  <speed>0.0</speed>
  <fix>3d</fix>
</trkpt>
<trkpt lat="-27.274439" lon="151.290064">
  <ele>343.1</ele>
  <time>2026-09-01T20:03:50Z</time>
  <course>270.0</course>
  <speed>0.0</speed>
  <fix>3d</fix>
</trkpt>
<trkpt lat="-27.274439" lon="151.290064">
  <ele>342.81</ele>
  <time>2026-09-01T20:03:50Z</time>
  <course>8.48</course>
  <speed>0.0</speed>
  <fix>3d</fix>
</trkpt>
<trkpt lat="-27.274439" lon="151.290064">
  <ele>343.1</ele>
  <time>2026-09-01T20:03:50Z</time>
  <course>270.0</course>
  <speed>0.0</speed>
  <fix>3d</fix>
</trkpt>
<trkpt lat="-27.274439" lon="151.290064">
  <ele>342.97</ele>
  <time>2026-09-01T20:03:50Z</time>
  <course>8.48</course>
  <speed>0.0</speed>
  <fix>3d</fix>
</trkpt>
<trkpt lat="-27.274439" lon="151.290064">
  <ele>343.1</ele>
  <time>2026-09-01T20:03:50Z</time>
  <course>270.0</course>
  <speed>0.0</speed>
  <fix>3d</fix>
</trkpt>
<trkpt lat="-27.274439" lon="151.290064">
  <ele>342.79</ele>
  <time>2026-09-01T20:03:50Z</time>
  <course>8.48</course>
  <speed>0.0</speed>
  <fix>3d</fix>
</trkpt>
<trkpt lat="-27.274439" lon="151.290064">
  <ele>343.1</ele>
  <time>2026-09-01T20:03:50Z</time>
  <course>270.0</course>
  <speed>0.0</speed>
  <fix>3d</fix>
</trkpt>
<trkpt lat="-27.274439" lon="151.290064">
  <ele>342.99</ele>
  <time>2026-09-01T20:03:50Z</time>
  <course>8.49</course>
  <speed>0.0</speed>
  <fix>3d</fix>
</trkpt>
<trkpt lat="-27.274439" lon="151.290064">
  <ele>343.1</ele>
  <time>2026-09-01T20:03:50Z</time>
  <course>270.0</course>
  <speed>0.0</speed>
  <fix>3d</fix>
</trkpt>
<trkpt lat="-27.274439" lon="151.290064">
  <ele>342.99</ele>
  <time>2026-09-01T20:03:50Z</time>
  <course>8.49</course>
  <speed>0.0</speed>
  <fix>3d</fix>
</trkpt>
<trkpt lat="-27.274439" lon="151.290064">
  <ele>343.1</ele>
  <time>2026-09-01T20:03:50Z</time>
  <course>270.0</course>
  <speed>0.0</speed>
  <fix>3d</fix>
</trkpt>
<trkpt lat="-27.274439" lon="151.290064">
  <ele>343.05</ele>
  <time>2026-09-01T20:03:50Z</time>
  <course>8.49</course>
  <speed>0.0</speed>
  <fix>3d</fix>
</trkpt>
<trkpt lat="-27.274439" lon="151.290064">
  <ele>343.1</ele>
  <time>2026-09-01T20:03:50Z</time>
  <course>270.0</course>
  <speed>0.0</speed>
  <fix>3d</fix>
</trkpt>
<trkpt lat="-27.274439" lon="151.290064">
  <ele>342.83</ele>
  <time>2026-09-01T20:03:50Z</time>
  <course>8.49</course>
  <speed>0.0</speed>
  <fix>3d</fix>
</trkpt>
<trkpt lat="-27.274439" lon="151.290064">
  <ele>343.1</ele>
  <time>2026-09-01T20:03:50Z</time>
  <course>270.0</course>
  <speed>0.0</speed>
  <fix>3d</fix>
</trkpt>
<trkpt lat="-27.274439" lon="151.290064">
  <ele>343.06</ele>
  <time>2026-09-01T20:03:50Z</time>
  <course>8.49</course>
  <speed>0.0</speed>
  <fix>3d</fix>
</trkpt>
<trkpt lat="-27.274439" lon="151.290064">
  <ele>343.1</ele>
  <time>2026-09-01T20:03:50Z</time>
  <course>270.0</course>
  <speed>0.0</speed>
  <fix>3d</fix>
</trkpt>
<trkpt lat="-27.274439" lon="151.290064">
  <ele>342.84</ele>
  <time>2026-09-01T20:03:50Z</time>
  <course>8.49</course>
  <speed>0.0</speed>
  <fix>3d</fix>
</trkpt>
<trkpt lat="-27.274439" lon="151.290064">
  <ele>343.1</ele>
  <time>2026-09-01T20:03:50Z</time>
  <course>270.0</course>
  <speed>0.0</speed>
  <fix>3d</fix>
</trkpt>
<trkpt lat="-27.274439" lon="151.290064">
  <ele>343.13</ele>
  <time>2026-09-01T20:03:50Z</time>
  <course>8.49</course>
  <speed>0.0</speed>
  <fix>3d</fix>
</trkpt>
<trkpt lat="-27.274439" lon="151.290064">
  <ele>343.1</ele>
  <time>2026-09-01T20:03:50Z</time>
  <course>270.0</course>
  <speed>0.0</speed>
  <fix>3d</fix>
</trkpt>
<trkpt lat="-27.274439" lon="151.290064">
  <ele>343.16</ele>
  <time>2026-09-01T20:03:50Z</time>
  <course>8.5</course>
  <speed>0.0</speed>
  <fix>3d</fix>
</trkpt>
<trkpt lat="-27.274439" lon="151.290064">
  <ele>343.1</ele>
  <time>2026-09-01T20:03:50Z</time>
  <course>270.0</course>
  <speed>0.0</speed>
  <fix>3d</fix>
</trkpt>
<trkpt lat="-27.274439" lon="151.290064">
  <ele>343.01</ele>
  <time>2026-09-01T20:03:50Z</time>
  <course>8.5</course>
  <speed>0.0</speed>
  <fix>3d</fix>
</trkpt>
<trkpt lat="-27.274439" lon="151.290064">
  <ele>343.1</ele>
  <time>2026-09-01T20:03:50Z</time>
  <course>270.0</course>
  <speed>0.0</speed>
  <fix>3d</fix>
</trkpt>
<trkpt lat="-27.274439" lon="151.290064">
  <ele>343.2</ele>
  <time>2026-09-01T20:03:50Z</time>
  <course>8.5</course>
  <speed>0.0</speed>
  <fix>3d</fix>
</trkpt>
<trkpt lat="-27.274439" lon="151.290064">
  <ele>343.1</ele>
  <time>2026-09-01T20:03:50Z</time>
  <course>270.0</course>
  <speed>0.0</speed>
  <fix>3d</fix>
</trkpt>
<trkpt lat="-27.274439" lon="151.290064">
  <ele>343.25</ele>
  <time>2026-09-01T20:03:50Z</time>
  <course>8.5</course>
  <speed>0.0</speed>
  <fix>3d</fix>
</trkpt>
<trkpt lat="-27.274439" lon="151.290064">
  <ele>343.1</ele>
  <time>2026-09-01T20:03:50Z</time>
  <course>270.0</course>
  <speed>0.0</speed>
  <fix>3d</fix>
</trkpt>
<trkpt lat="-27.274439" lon="151.290064">
  <ele>343.18</ele>
  <time>2026-09-01T20:03:50Z</time>
  <course>8.5</course>
  <speed>0.0</speed>
  <fix>3d</fix>
</trkpt>
<trkpt lat="-27.274439" lon="151.290064">
  <ele>343.1</ele>
  <time>2026-09-01T20:03:50Z</time>
  <course>270.0</course>
  <speed>0.0</speed>
  <fix>3d</fix>
</trkpt>
<trkpt lat="-27.274439" lon="151.290064">
  <ele>342.99</ele>
  <time>2026-09-01T20:03:50Z</time>
  <course>8.5</course>
  <speed>0.0</speed>
  <fix>3d</fix>
</trkpt>
<trkpt lat="-27.274439" lon="151.290064">
  <ele>343.1</ele>
  <time>2026-09-01T20:03:50Z</time>
  <course>270.0</course>
  <speed>0.0</speed>
  <fix>3d</fix>
</trkpt>
<trkpt lat="-27.274439" lon="151.290064">
  <ele>343.08</ele>
  <time>2026-09-01T20:03:50Z</time>
  <course>8.5</course>
  <speed>0.0</speed>
  <fix>3d</fix>
</trkpt>
<trkpt lat="-27.274439" lon="151.290064">
  <ele>343.1</ele>
  <time>2026-09-01T20:03:50Z</time>
  <course>270.0</course>
  <speed>0.0</speed>
  <fix>3d</fix>
</trkpt>
<trkpt lat="-27.274439" lon="151.290064">
  <ele>343.38</ele>
  <time>2026-09-01T20:03:50Z</time>
  <course>8.5</course>
  <speed>0.0</speed>
  <fix>3d</fix>
</trkpt>
<trkpt lat="-27.274439" lon="151.290064">
  <ele>343.1</ele>
  <time>2026-09-01T20:03:50Z</time>
  <course>270.0</course>
  <speed>0.0</speed>
  <fix>3d</fix>
</trkpt>
<trkpt lat="-27.274439" lon="151.290064">
  <ele>343.06</ele>
  <time>2026-09-01T20:03:50Z</time>
  <course>8.5</course>
  <speed>0.0</speed>
  <fix>3d</fix>
</trkpt>
<trkpt lat="-27.274439" lon="151.290064">
  <ele>343.1</ele>
  <time>2026-09-01T20:03:50Z</time>
  <course>270.0</course>
  <speed>0.0</speed>
  <fix>3d</fix>
</trkpt>
<trkpt lat="-27.274439" lon="151.290064">
  <ele>343.03</ele>
  <time>2026-09-01T20:03:50Z</time>
  <course>8.5</course>
  <speed>0.0</speed>
  <fix>3d</fix>
</trkpt>
<trkpt lat="-27.274439" lon="151.290064">
  <ele>343.1</ele>
  <time>2026-09-01T20:03:50Z</time>
  <course>270.0</course>
  <speed>0.0</speed>
  <fix>3d</fix>
</trkpt>
<trkpt lat="-27.274439" lon="151.290064">
  <ele>343.02</ele>
  <time>2026-09-01T20:03:50Z</time>
  <course>8.5</course>
  <speed>0.0</speed>
  <fix>3d</fix>
</trkpt>
<trkpt lat="-27.274439" lon="151.290064">
  <ele>343.1</ele>
  <time>2026-09-01T20:03:50Z</time>
  <course>270.0</course>
  <speed>0.0</speed>
  <fix>3d</fix>
</trkpt>
<trkpt lat="-27.274439" lon="151.290064">
  <ele>343.24</ele>
  <time>2026-09-01T20:03:50Z</time>
  <course>8.5</course>
  <speed>0.0</speed>
  <fix>3d</fix>
</trkpt>
<trkpt lat="-27.274439" lon="151.290064">
  <ele>343.1</ele>
  <time>2026-09-01T20:03:50Z</time>
  <course>270.0</course>
  <speed>0.0</speed>
  <fix>3d</fix>
</trkpt>
<trkpt lat="-27.274439" lon="151.290064">
  <ele>343.16</ele>
  <time>2026-09-01T20:03:50Z</time>
  <course>8.5</course>
  <speed>0.0</speed>
  <fix>3d</fix>
</trkpt>
<trkpt lat="-27.274439" lon="151.290064">
  <ele>343.1</ele>
  <time>2026-09-01T20:03:50Z</time>
  <course>270.0</course>
  <speed>0.0</speed>
  <fix>3d</fix>
</trkpt>
<trkpt lat="-27.274439" lon="151.290064">
  <ele>343.19</ele>
  <time>2026-09-01T20:03:50Z</time>
  <course>8.51</course>
  <speed>0.0</speed>
  <fix>3d</fix>
</trkpt>
<trkpt lat="-27.274439" lon="151.290064">
  <ele>343.1</ele>
  <time>2026-09-01T20:03:50Z</time>
  <course>270.0</course>
  <speed>0.0</speed>
  <fix>3d</fix>
</trkpt>
<trkpt lat="-27.274439" lon="151.290064">
  <ele>343.18</ele>
  <time>2026-09-01T20:03:50Z</time>
  <course>8.51</course>
  <speed>0.0</speed>
  <fix>3d</fix>
</trkpt>
<trkpt lat="-27.274439" lon="151.290064">
  <ele>343.1</ele>
  <time>2026-09-01T20:03:50Z</time>
  <course>270.0</course>
  <speed>0.0</speed>
  <fix>3d</fix>
</trkpt>
<trkpt lat="-27.274439" lon="151.290064">
  <ele>343.21</ele>
  <time>2026-09-01T20:03:50Z</time>
  <course>8.51</course>
  <speed>0.0</speed>
  <fix>3d</fix>
</trkpt>
<trkpt lat="-27.274439" lon="151.290064">
  <ele>343.1</ele>
  <time>2026-09-01T20:03:50Z</time>
  <course>270.0</course>
  <speed>0.0</speed>
  <fix>3d</fix>
</trkpt>
<trkpt lat="-27.274439" lon="151.290064">
  <ele>343.36</ele>
  <time>2026-09-01T20:03:50Z</time>
  <course>8.51</course>
  <speed>0.0</speed>
  <fix>3d</fix>
</trkpt>
<trkpt lat="-27.274439" lon="151.290064">
  <ele>343.1</ele>
  <time>2026-09-01T20:03:50Z</time>
  <course>270.0</course>
  <speed>0.0</speed>
  <fix>3d</fix>
</trkpt>
<trkpt lat="-27.274439" lon="151.290064">
  <ele>343.31</ele>
  <time>2026-09-01T20:03:50Z</time>
  <course>8.51</course>
  <speed>0.0</speed>
  <fix>3d</fix>
</trkpt>
<trkpt lat="-27.274439" lon="151.290064">
  <ele>343.1</ele>
  <time>2026-09-01T20:03:50Z</time>
  <course>270.0</course>
  <speed>0.0</speed>
  <fix>3d</fix>
</trkpt>
<trkpt lat="-27.274439" lon="151.290064">
  <ele>343.21</ele>
  <time>2026-09-01T20:03:50Z</time>
  <course>8.51</course>
  <speed>0.0</speed>
  <fix>3d</fix>
</trkpt>
<trkpt lat="-27.274439" lon="151.290064">
  <ele>343.1</ele>
  <time>2026-09-01T20:03:50Z</time>
  <course>270.0</course>
  <speed>0.0</speed>
  <fix>3d</fix>
</trkpt>
<trkpt lat="-27.274439" lon="151.290064">
  <ele>343.16</ele>
  <time>2026-09-01T20:03:50Z</time>
  <course>8.51</course>
  <speed>0.0</speed>
  <fix>3d</fix>
</trkpt>
<trkpt lat="-27.274439" lon="151.290064">
  <ele>343.1</ele>
  <time>2026-09-01T20:03:50Z</time>
  <course>270.0</course>
  <speed>0.0</speed>
  <fix>3d</fix>
</trkpt>
<trkpt lat="-27.274439" lon="151.290064">
  <ele>343.22</ele>
  <time>2026-09-01T20:03:50Z</time>
  <course>8.51</course>
  <speed>0.0</speed>
  <fix>3d</fix>
</trkpt>
<trkpt lat="-27.274439" lon="151.290064">
  <ele>343.1</ele>
  <time>2026-09-01T20:03:50Z</time>
  <course>270.0</course>
  <speed>0.0</speed>
  <fix>3d</fix>
</trkpt>
<trkpt lat="-27.274439" lon="151.290064">
  <ele>343.39</ele>
  <time>2026-09-01T20:03:50Z</time>
  <course>8.51</course>
  <speed>0.0</speed>
  <fix>3d</fix>
</trkpt>
<trkpt lat="-27.274439" lon="151.290064">
  <ele>343.1</ele>
  <time>2026-09-01T20:03:50Z</time>
  <course>270.0</course>
  <speed>0.0</speed>
  <fix>3d</fix>
</trkpt>
<trkpt lat="-27.274439" lon="151.290064">
  <ele>343.37</ele>
  <time>2026-09-01T20:03:50Z</time>
  <course>8.51</course>
  <speed>0.0</speed>
  <fix>3d</fix>
</trkpt>
<trkpt lat="-27.274439" lon="151.290064">
  <ele>343.1</ele>
  <time>2026-09-01T20:03:50Z</time>
  <course>270.0</course>
  <speed>0.0</speed>
  <fix>3d</fix>
</trkpt>
<trkpt lat="-27.274439" lon="151.290064">
  <ele>343.25</ele>
  <time>2026-09-01T20:03:50Z</time>
  <course>8.51</course>
  <speed>0.0</speed>
  <fix>3d</fix>
</trkpt>
<trkpt lat="-27.274439" lon="151.290064">
  <ele>343.1</ele>
  <time>2026-09-01T20:03:50Z</time>
  <course>270.0</course>
  <speed>0.0</speed>
  <fix>3d</fix>
</trkpt>
<trkpt lat="-27.274439" lon="151.290064">
  <ele>343.31</ele>
  <time>2026-09-01T20:03:50Z</time>
  <course>8.51</course>
  <speed>0.0</speed>
  <fix>3d</fix>
</trkpt>
<trkpt lat="-27.274439" lon="151.290064">
  <ele>343.1</ele>
  <time>2026-09-01T20:03:50Z</time>
  <course>270.0</course>
  <speed>0.0</speed>
  <fix>3d</fix>
</trkpt>
<trkpt lat="-27.274439" lon="151.290064">
  <ele>343.38</ele>
  <time>2026-09-01T20:03:50Z</time>
  <course>8.51</course>
  <speed>0.0</speed>
  <fix>3d</fix>
</trkpt>
<trkpt lat="-27.274439" lon="151.290064">
  <ele>343.1</ele>
  <time>2026-09-01T20:03:50Z</time>
  <course>270.0</course>
  <speed>0.0</speed>
  <fix>3d</fix>
</trkpt>
<trkpt lat="-27.274439" lon="151.290064">
  <ele>343.09</ele>
  <time>2026-09-01T20:03:50Z</time>
  <course>8.51</course>
  <speed>0.0</speed>
  <fix>3d</fix>
</trkpt>
<trkpt lat="-27.274439" lon="151.290064">
  <ele>343.1</ele>
  <time>2026-09-01T20:03:50Z</time>
  <course>270.0</course>
  <speed>0.0</speed>
  <fix>3d</fix>
</trkpt>
<trkpt lat="-27.274439" lon="151.290064">
  <ele>342.99</ele>
  <time>2026-09-01T20:03:50Z</time>
  <course>8.51</course>
  <speed>0.0</speed>
  <fix>3d</fix>
</trkpt>
<trkpt lat="-27.274439" lon="151.290064">
  <ele>343.1</ele>
  <time>2026-09-01T20:03:50Z</time>
  <course>270.0</course>
  <speed>0.0</speed>
  <fix>3d</fix>
</trkpt>
<trkpt lat="-27.274439" lon="151.290064">
  <ele>343.05</ele>
  <time>2026-09-01T20:03:50Z</time>
  <course>8.52</course>
  <speed>0.0</speed>
  <fix>3d</fix>
</trkpt>
<trkpt lat="-27.274439" lon="151.290064">
  <ele>343.1</ele>
  <time>2026-09-01T20:03:50Z</time>
  <course>270.0</course>
  <speed>0.0</speed>
  <fix>3d</fix>
</trkpt>
<trkpt lat="-27.274439" lon="151.290064">
  <ele>343.01</ele>
  <time>2026-09-01T20:03:50Z</time>
  <course>8.52</course>
  <speed>0.0</speed>
  <fix>3d</fix>
</trkpt>
<trkpt lat="-27.274439" lon="151.290064">
  <ele>343.1</ele>
  <time>2026-09-01T20:03:50Z</time>
  <course>270.0</course>
  <speed>0.0</speed>
  <fix>3d</fix>
</trkpt>
<trkpt lat="-27.274439" lon="151.290064">
  <ele>343.18</ele>
  <time>2026-09-01T20:03:50Z</time>
  <course>8.52</course>
  <speed>0.0</speed>
  <fix>3d</fix>
</trkpt>
<trkpt lat="-27.274439" lon="151.290064">
  <ele>343.1</ele>
  <time>2026-09-01T20:03:50Z</time>
  <course>270.0</course>
  <speed>0.0</speed>
  <fix>3d</fix>
</trkpt>
<trkpt lat="-27.274439" lon="151.290064">
  <ele>343.16</ele>
  <time>2026-09-01T20:03:50Z</time>
  <course>8.52</course>
  <speed>0.0</speed>
  <fix>3d</fix>
</trkpt>
<trkpt lat="-27.274439" lon="151.290064">
  <ele>343.1</ele>
  <time>2026-09-01T20:03:50Z</time>
  <course>270.0</course>
  <speed>0.0</speed>
  <fix>3d</fix>
</trkpt>
<trkpt lat="-27.274439" lon="151.290064">
  <ele>343.15</ele>
  <time>2026-09-01T20:03:50Z</time>
  <course>8.52</course>
  <speed>0.0</speed>
  <fix>3d</fix>
</trkpt>
<trkpt lat="-27.274439" lon="151.290064">
  <ele>343.1</ele>
  <time>2026-09-01T20:03:50Z</time>
  <course>270.0</course>
  <speed>0.0</speed>
  <fix>3d</fix>
</trkpt>
<trkpt lat="-27.274439" lon="151.290064">
  <ele>343.15</ele>
  <time>2026-09-01T20:03:50Z</time>
  <course>8.52</course>
  <speed>0.0</speed>
  <fix>3d</fix>
</trkpt>
<trkpt lat="-27.274439" lon="151.290064">
  <ele>343.1</ele>
  <time>2026-09-01T20:03:50Z</time>
  <course>270.0</course>
  <speed>0.0</speed>
  <fix>3d</fix>
</trkpt>
<trkpt lat="-27.274439" lon="151.290064">
  <ele>343.26</ele>
  <time>2026-09-01T20:03:50Z</time>
  <course>8.52</course>
  <speed>0.0</speed>
  <fix>3d</fix>
</trkpt>
<trkpt lat="-27.274439" lon="151.290064">
  <ele>343.1</ele>
  <time>2026-09-01T20:03:50Z</time>
  <course>270.0</course>
  <speed>0.0</speed>
  <fix>3d</fix>
</trkpt>
<trkpt lat="-27.274439" lon="151.290064">
  <ele>343.3</ele>
  <time>2026-09-01T20:03:50Z</time>
  <course>8.52</course>
  <speed>0.0</speed>
  <fix>3d</fix>
</trkpt>
<trkpt lat="-27.274439" lon="151.290064">
  <ele>343.1</ele>
  <time>2026-09-01T20:03:50Z</time>
  <course>270.0</course>
  <speed>0.0</speed>
  <fix>3d</fix>
</trkpt>
<trkpt lat="-27.274439" lon="151.290064">
  <ele>343.25</ele>
  <time>2026-09-01T20:03:50Z</time>
  <course>8.52</course>
  <speed>0.0</speed>
  <fix>3d</fix>
</trkpt>
<trkpt lat="-27.274439" lon="151.290064">
  <ele>343.1</ele>
  <time>2026-09-01T20:03:50Z</time>
  <course>270.0</course>
  <speed>0.0</speed>
  <fix>3d</fix>
</trkpt>
<trkpt lat="-27.274439" lon="151.290064">
  <ele>343.1</ele>
  <time>2026-09-01T20:03:50Z</time>
  <course>8.52</course>
  <speed>0.0</speed>
  <fix>3d</fix>
</trkpt>
<trkpt lat="-27.274439" lon="151.290064">
  <ele>343.1</ele>
  <time>2026-09-01T20:03:50Z</time>
  <course>270.0</course>
  <speed>0.0</speed>
  <fix>3d</fix>
</trkpt>
<trkpt lat="-27.274439" lon="151.290064">
  <ele>343.22</ele>
  <time>2026-09-01T20:03:50Z</time>
  <course>8.52</course>
  <speed>0.0</speed>
  <fix>3d</fix>
</trkpt>
<trkpt lat="-27.274439" lon="151.290064">
  <ele>343.1</ele>
  <time>2026-09-01T20:03:50Z</time>
  <course>270.0</course>
  <speed>0.0</speed>
  <fix>3d</fix>
</trkpt>
<trkpt lat="-27.274439" lon="151.290064">
  <ele>343.27</ele>
  <time>2026-09-01T20:03:50Z</time>
  <course>8.52</course>
  <speed>0.0</speed>
  <fix>3d</fix>
</trkpt>
<trkpt lat="-27.274439" lon="151.290064">
  <ele>343.1</ele>
  <time>2026-09-01T20:03:50Z</time>
  <course>270.0</course>
  <speed>0.0</speed>
  <fix>3d</fix>
</trkpt>
<trkpt lat="-27.274439" lon="151.290064">
  <ele>343.21</ele>
  <time>2026-09-01T20:03:50Z</time>
  <course>8.52</course>
  <speed>0.0</speed>
  <fix>3d</fix>
</trkpt>
<trkpt lat="-27.274439" lon="151.290064">
  <ele>343.1</ele>
  <time>2026-09-01T20:03:50Z</time>
  <course>270.0</course>
  <speed>0.0</speed>
  <fix>3d</fix>
</trkpt>
<trkpt lat="-27.274439" lon="151.290064">
  <ele>343.18</ele>
  <time>2026-09-01T20:03:50Z</time>
  <course>8.52</course>
  <speed>0.0</speed>
  <fix>3d</fix>
</trkpt>
<trkpt lat="-27.274439" lon="151.290064">
  <ele>343.1</ele>
  <time>2026-09-01T20:03:50Z</time>
  <course>270.0</course>
  <speed>0.0</speed>
  <fix>3d</fix>
</trkpt>
<trkpt lat="-27.274439" lon="151.290064">
  <ele>343.02</ele>
  <time>2026-09-01T20:03:50Z</time>
  <course>8.52</course>
  <speed>0.0</speed>
  <fix>3d</fix>
</trkpt>
<trkpt lat="-27.274439" lon="151.290064">
  <ele>343.1</ele>
  <time>2026-09-01T20:03:50Z</time>
  <course>270.0</course>
  <speed>0.0</speed>
  <fix>3d</fix>
</trkpt>
<trkpt lat="-27.274439" lon="151.290064">
  <ele>343.28</ele>
  <time>2026-09-01T20:03:50Z</time>
  <course>8.52</course>
  <speed>0.0</speed>
  <fix>3d</fix>
</trkpt>
<trkpt lat="-27.274439" lon="151.290064">
  <ele>343.1</ele>
  <time>2026-09-01T20:03:50Z</time>
  <course>270.0</course>
  <speed>0.0</speed>
  <fix>3d</fix>
</trkpt>
<trkpt lat="-27.274439" lon="151.290064">
  <ele>343.08</ele>
  <time>2026-09-01T20:03:50Z</time>
  <course>8.52</course>
  <speed>0.0</speed>
  <fix>3d</fix>
</trkpt>
<trkpt lat="-27.274439" lon="151.290064">
  <ele>343.1</ele>
  <time>2026-09-01T20:03:50Z</time>
  <course>270.0</course>
  <speed>0.0</speed>
  <fix>3d</fix>
</trkpt>
<trkpt lat="-27.274439" lon="151.290064">
  <ele>343.03</ele>
  <time>2026-09-01T20:03:50Z</time>
  <course>8.53</course>
  <speed>0.0</speed>
  <fix>3d</fix>
</trkpt>
<trkpt lat="-27.274439" lon="151.290064">
  <ele>343.1</ele>
  <time>2026-09-01T20:03:50Z</time>
  <course>270.0</course>
  <speed>0.0</speed>
  <fix>3d</fix>
</trkpt>
<trkpt lat="-27.274439" lon="151.290064">
  <ele>343.03</ele>
  <time>2026-09-01T20:03:50Z</time>
  <course>8.53</course>
  <speed>0.0</speed>
  <fix>3d</fix>
</trkpt>
<trkpt lat="-27.274439" lon="151.290064">
  <ele>343.1</ele>
  <time>2026-09-01T20:03:50Z</time>
  <course>270.0</course>
  <speed>0.0</speed>
  <fix>3d</fix>
</trkpt>
<trkpt lat="-27.274439" lon="151.290064">
  <ele>343.1</ele>
  <time>2026-09-01T20:03:50Z</time>
  <course>8.52</course>
  <speed>0.0</speed>
  <fix>3d</fix>
</trkpt>
<trkpt lat="-27.274439" lon="151.290064">
  <ele>343.1</ele>
  <time>2026-09-01T20:03:50Z</time>
  <course>270.0</course>
  <speed>0.0</speed>
  <fix>3d</fix>
</trkpt>
<trkpt lat="-27.274439" lon="151.290064">
  <ele>343.23</ele>
  <time>2026-09-01T20:03:50Z</time>
  <course>8.52</course>
  <speed>0.0</speed>
  <fix>3d</fix>
</trkpt>
<trkpt lat="-27.274439" lon="151.290064">
  <ele>343.1</ele>
  <time>2026-09-01T20:03:50Z</time>
  <course>270.0</course>
  <speed>0.0</speed>
  <fix>3d</fix>
</trkpt>
<trkpt lat="-27.274439" lon="151.290064">
  <ele>343.21</ele>
  <time>2026-09-01T20:03:50Z</time>
  <course>8.52</course>
  <speed>0.0</speed>
  <fix>3d</fix>
</trkpt>
<trkpt lat="-27.274439" lon="151.290064">
  <ele>343.1</ele>
  <time>2026-09-01T20:03:50Z</time>
  <course>270.0</course>
  <speed>0.0</speed>
  <fix>3d</fix>
</trkpt>
<trkpt lat="-27.274439" lon="151.290064">
  <ele>343.26</ele>
  <time>2026-09-01T20:03:50Z</time>
  <course>8.52</course>
  <speed>0.0</speed>
  <fix>3d</fix>
</trkpt>
<trkpt lat="-27.274439" lon="151.290064">
  <ele>343.1</ele>
  <time>2026-09-01T20:03:50Z</time>
  <course>270.0</course>
  <speed>0.0</speed>
  <fix>3d</fix>
</trkpt>
<trkpt lat="-27.274439" lon="151.290064">
  <ele>343.07</ele>
  <time>2026-09-01T20:03:50Z</time>
  <course>8.51</course>
  <speed>0.0</speed>
  <fix>3d</fix>
</trkpt>
<trkpt lat="-27.274439" lon="151.290064">
  <ele>343.1</ele>
  <time>2026-09-01T20:03:50Z</time>
  <course>270.0</course>
  <speed>0.0</speed>
  <fix>3d</fix>
</trkpt>
<trkpt lat="-27.274439" lon="151.290064">
  <ele>343.33</ele>
  <time>2026-09-01T20:03:50Z</time>
  <course>8.51</course>
  <speed>0.0</speed>
  <fix>3d</fix>
</trkpt>
<trkpt lat="-27.274439" lon="151.290064">
  <ele>343.1</ele>
  <time>2026-09-01T20:03:50Z</time>
  <course>270.0</course>
  <speed>0.0</speed>
  <fix>3d</fix>
</trkpt>
<trkpt lat="-27.274439" lon="151.290064">
  <ele>343.11</ele>
  <time>2026-09-01T20:03:50Z</time>
  <course>8.51</course>
  <speed>0.0</speed>
  <fix>3d</fix>
</trkpt>
<trkpt lat="-27.274439" lon="151.290064">
  <ele>343.1</ele>
  <time>2026-09-01T20:03:50Z</time>
  <course>270.0</course>
  <speed>0.0</speed>
  <fix>3d</fix>
</trkpt>
<trkpt lat="-27.274439" lon="151.290064">
  <ele>343.22</ele>
  <time>2026-09-01T20:03:50Z</time>
  <course>8.51</course>
  <speed>0.0</speed>
  <fix>3d</fix>
</trkpt>
<trkpt lat="-27.274439" lon="151.290064">
  <ele>343.1</ele>
  <time>2026-09-01T20:03:50Z</time>
  <course>270.0</course>
  <speed>0.0</speed>
  <fix>3d</fix>
</trkpt>
<trkpt lat="-27.274439" lon="151.290064">
  <ele>343.25</ele>
  <time>2026-09-01T20:03:50Z</time>
  <course>8.5</course>
  <speed>0.0</speed>
  <fix>3d</fix>
</trkpt>
<trkpt lat="-27.274439" lon="151.290064">
  <ele>343.1</ele>
  <time>2026-09-01T20:03:50Z</time>
  <course>270.0</course>
  <speed>0.0</speed>
  <fix>3d</fix>
</trkpt>
<trkpt lat="-27.274439" lon="151.290064">
  <ele>343.32</ele>
  <time>2026-09-01T20:03:50Z</time>
  <course>8.5</course>
  <speed>0.0</speed>
  <fix>3d</fix>
</trkpt>
<trkpt lat="-27.274439" lon="151.290064">
  <ele>343.1</ele>
  <time>2026-09-01T20:03:50Z</time>
  <course>270.0</course>
  <speed>0.0</speed>
  <fix>3d</fix>
</trkpt>
<trkpt lat="-27.274439" lon="151.290064">
  <ele>343.32</ele>
  <time>2026-09-01T20:03:50Z</time>
  <course>8.5</course>
  <speed>0.0</speed>
  <fix>3d</fix>
</trkpt>
<trkpt lat="-27.274439" lon="151.290064">
  <ele>343.1</ele>
  <time>2026-09-01T20:03:50Z</time>
  <course>270.0</course>
  <speed>0.0</speed>
  <fix>3d</fix>
</trkpt>
<trkpt lat="-27.274439" lon="151.290064">
  <ele>343.25</ele>
  <time>2026-09-01T20:03:50Z</time>
  <course>8.5</course>
  <speed>0.0</speed>
  <fix>3d</fix>
</trkpt>
<trkpt lat="-27.274439" lon="151.290064">
  <ele>343.1</ele>
  <time>2026-09-01T20:03:50Z</time>
  <course>270.0</course>
  <speed>0.0</speed>
  <fix>3d</fix>
</trkpt>
<trkpt lat="-27.274439" lon="151.290064">
  <ele>343.18</ele>
  <time>2026-09-01T20:03:50Z</time>
  <course>8.49</course>
  <speed>0.0</speed>
  <fix>3d</fix>
</trkpt>
<trkpt lat="-27.274439" lon="151.290064">
  <ele>343.1</ele>
  <time>2026-09-01T20:03:50Z</time>
  <course>270.0</course>
  <speed>0.0</speed>
  <fix>3d</fix>
</trkpt>
<trkpt lat="-27.274439" lon="151.290064">
  <ele>343.01</ele>
  <time>2026-09-01T20:03:50Z</time>
  <course>8.49</course>
  <speed>0.0</speed>
  <fix>3d</fix>
</trkpt>
<trkpt lat="-27.274439" lon="151.290064">
  <ele>343.1</ele>
  <time>2026-09-01T20:03:50Z</time>
  <course>270.0</course>
  <speed>0.0</speed>
  <fix>3d</fix>
</trkpt>
<trkpt lat="-27.274439" lon="151.290064">
  <ele>343.19</ele>
  <time>2026-09-01T20:03:50Z</time>
  <course>8.49</course>
  <speed>0.0</speed>
  <fix>3d</fix>
</trkpt>
<trkpt lat="-27.274439" lon="151.290064">
  <ele>343.1</ele>
  <time>2026-09-01T20:03:50Z</time>
  <course>270.0</course>
  <speed>0.0</speed>
  <fix>3d</fix>
</trkpt>
<trkpt lat="-27.274439" lon="151.290064">
  <ele>343.06</ele>
  <time>2026-09-01T20:03:50Z</time>
  <course>8.49</course>
  <speed>0.0</speed>
  <fix>3d</fix>
</trkpt>
<trkpt lat="-27.274439" lon="151.290064">
  <ele>343.1</ele>
  <time>2026-09-01T20:03:50Z</time>
  <course>270.0</course>
  <speed>0.0</speed>
  <fix>3d</fix>
</trkpt>
<trkpt lat="-27.274439" lon="151.290064">
  <ele>343.03</ele>
  <time>2026-09-01T20:03:50Z</time>
  <course>8.48</course>
  <speed>0.0</speed>
  <fix>3d</fix>
</trkpt>
<trkpt lat="-27.274439" lon="151.290064">
  <ele>343.1</ele>
  <time>2026-09-01T20:03:50Z</time>
  <course>270.0</course>
  <speed>0.0</speed>
  <fix>3d</fix>
</trkpt>
<trkpt lat="-27.274439" lon="151.290064">
  <ele>342.93</ele>
  <time>2026-09-01T20:03:50Z</time>
  <course>8.48</course>
  <speed>0.0</speed>
  <fix>3d</fix>
</trkpt>
<trkpt lat="-27.274439" lon="151.290064">
  <ele>343.1</ele>
  <time>2026-09-01T20:03:50Z</time>
  <course>270.0</course>
  <speed>0.0</speed>
  <fix>3d</fix>
</trkpt>
<trkpt lat="-27.274439" lon="151.290064">
  <ele>342.93</ele>
  <time>2026-09-01T20:03:50Z</time>
  <course>8.48</course>
  <speed>0.0</speed>
  <fix>3d</fix>
</trkpt>
<trkpt lat="-27.274439" lon="151.290064">
  <ele>343.1</ele>
  <time>2026-09-01T20:03:50Z</time>
  <course>270.0</course>
  <speed>0.0</speed>
  <fix>3d</fix>
</trkpt>
<trkpt lat="-27.274439" lon="151.290064">
  <ele>342.86</ele>
  <time>2026-09-01T20:03:50Z</time>
  <course>8.48</course>
  <speed>0.0</speed>
  <fix>3d</fix>
</trkpt>
<trkpt lat="-27.274439" lon="151.290064">
  <ele>343.1</ele>
  <time>2026-09-01T20:03:50Z</time>
  <course>270.0</course>
  <speed>0.0</speed>
  <fix>3d</fix>
</trkpt>
<trkpt lat="-27.274439" lon="151.290064">
  <ele>342.95</ele>
  <time>2026-09-01T20:03:50Z</time>
  <course>8.48</course>
  <speed>0.0</speed>
  <fix>3d</fix>
</trkpt>
<trkpt lat="-27.274439" lon="151.290064">
  <ele>343.1</ele>
  <time>2026-09-01T20:03:50Z</time>
  <course>270.0</course>
  <speed>0.0</speed>
  <fix>3d</fix>
</trkpt>
<trkpt lat="-27.274439" lon="151.290064">
  <ele>342.91</ele>
  <time>2026-09-01T20:03:50Z</time>
  <course>8.47</course>
  <speed>0.0</speed>
  <fix>3d</fix>
</trkpt>
<trkpt lat="-27.274439" lon="151.290064">
  <ele>343.1</ele>
  <time>2026-09-01T20:03:50Z</time>
  <course>270.0</course>
  <speed>0.0</speed>
  <fix>3d</fix>
</trkpt>
<trkpt lat="-27.274439" lon="151.290064">
  <ele>342.99</ele>
  <time>2026-09-01T20:03:50Z</time>
  <course>8.47</course>
  <speed>0.0</speed>
  <fix>3d</fix>
</trkpt>
<trkpt lat="-27.274439" lon="151.290064">
  <ele>343.1</ele>
  <time>2026-09-01T20:03:50Z</time>
  <course>270.0</course>
  <speed>0.0</speed>
  <fix>3d</fix>
</trkpt>
<trkpt lat="-27.274439" lon="151.290064">
  <ele>343.23</ele>
  <time>2026-09-01T20:03:50Z</time>
  <course>8.47</course>
  <speed>0.0</speed>
  <fix>3d</fix>
</trkpt>
<trkpt lat="-27.274439" lon="151.290064">
  <ele>343.1</ele>
  <time>2026-09-01T20:03:50Z</time>
  <course>270.0</course>
  <speed>0.0</speed>
  <fix>3d</fix>
</trkpt>
<trkpt lat="-27.274439" lon="151.290064">
  <ele>342.86</ele>
  <time>2026-09-01T20:03:50Z</time>
  <course>8.47</course>
  <speed>0.0</speed>
  <fix>3d</fix>
</trkpt>
<trkpt lat="-27.274439" lon="151.290064">
  <ele>343.1</ele>
  <time>2026-09-01T20:03:50Z</time>
  <course>270.0</course>
  <speed>0.0</speed>
  <fix>3d</fix>
</trkpt>
<trkpt lat="-27.274439" lon="151.290064">
  <ele>342.91</ele>
  <time>2026-09-01T20:03:50Z</time>
  <course>8.47</course>
  <speed>0.0</speed>
  <fix>3d</fix>
</trkpt>
<trkpt lat="-27.274439" lon="151.290064">
  <ele>343.1</ele>
  <time>2026-09-01T20:03:50Z</time>
  <course>270.0</course>
  <speed>0.0</speed>
  <fix>3d</fix>
</trkpt>
<trkpt lat="-27.274439" lon="151.290064">
  <ele>343.0</ele>
  <time>2026-09-01T20:03:50Z</time>
  <course>8.47</course>
  <speed>0.0</speed>
  <fix>3d</fix>
</trkpt>
<trkpt lat="-27.274439" lon="151.290064">
  <ele>343.1</ele>
  <time>2026-09-01T20:03:50Z</time>
  <course>270.0</course>
  <speed>0.0</speed>
  <fix>3d</fix>
</trkpt>
<trkpt lat="-27.274439" lon="151.290064">
  <ele>342.95</ele>
  <time>2026-09-01T20:03:50Z</time>
  <course>8.46</course>
  <speed>0.0</speed>
  <fix>3d</fix>
</trkpt>
<trkpt lat="-27.274439" lon="151.290064">
  <ele>343.1</ele>
  <time>2026-09-01T20:03:50Z</time>
  <course>270.0</course>
  <speed>0.0</speed>
  <fix>3d</fix>
</trkpt>
<trkpt lat="-27.274439" lon="151.290064">
  <ele>343.02</ele>
  <time>2026-09-01T20:03:50Z</time>
  <course>8.46</course>
  <speed>0.0</speed>
  <fix>3d</fix>
</trkpt>
<trkpt lat="-27.274439" lon="151.290064">
  <ele>343.1</ele>
  <time>2026-09-01T20:03:50Z</time>
  <course>270.0</course>
  <speed>0.0</speed>
  <fix>3d</fix>
</trkpt>
<trkpt lat="-27.274439" lon="151.290064">
  <ele>342.93</ele>
  <time>2026-09-01T20:03:50Z</time>
  <course>8.46</course>
  <speed>0.0</speed>
  <fix>3d</fix>
</trkpt>
<trkpt lat="-27.274439" lon="151.290064">
  <ele>343.1</ele>
  <time>2026-09-01T20:03:50Z</time>
  <course>270.0</course>
  <speed>0.0</speed>
  <fix>3d</fix>
</trkpt>
<trkpt lat="-27.274439" lon="151.290064">
  <ele>343.18</ele>
  <time>2026-09-01T20:03:51Z</time>
  <course>8.46</course>
  <speed>0.0</speed>
  <fix>3d</fix>
</trkpt>
<trkpt lat="-27.274439" lon="151.290064">
  <ele>343.1</ele>
  <time>2026-09-01T20:03:51Z</time>
  <course>270.0</course>
  <speed>0.0</speed>
  <fix>3d</fix>
</trkpt>
<trkpt lat="-27.274439" lon="151.290064">
  <ele>343.06</ele>
  <time>2026-09-01T20:03:51Z</time>
  <course>8.46</course>
  <speed>0.0</speed>
  <fix>3d</fix>
</trkpt>
<trkpt lat="-27.274439" lon="151.290064">
  <ele>343.1</ele>
  <time>2026-09-01T20:03:51Z</time>
  <course>270.0</course>
  <speed>0.0</speed>
  <fix>3d</fix>
</trkpt>
<trkpt lat="-27.274439" lon="151.290064">
  <ele>342.89</ele>
  <time>2026-09-01T20:03:51Z</time>
  <course>8.45</course>
  <speed>0.0</speed>
  <fix>3d</fix>
</trkpt>
<trkpt lat="-27.274439" lon="151.290064">
  <ele>343.1</ele>
  <time>2026-09-01T20:03:51Z</time>
  <course>270.0</course>
  <speed>0.0</speed>
  <fix>3d</fix>
</trkpt>
<trkpt lat="-27.274439" lon="151.290064">
  <ele>343.0</ele>
  <time>2026-09-01T20:03:51Z</time>
  <course>8.45</course>
  <speed>0.0</speed>
  <fix>3d</fix>
</trkpt>
<trkpt lat="-27.274439" lon="151.290064">
  <ele>343.1</ele>
  <time>2026-09-01T20:03:51Z</time>
  <course>270.0</course>
  <speed>0.0</speed>
  <fix>3d</fix>
</trkpt>
<trkpt lat="-27.274439" lon="151.290064">
  <ele>343.22</ele>
  <time>2026-09-01T20:03:51Z</time>
  <course>8.45</course>
  <speed>0.0</speed>
  <fix>3d</fix>
</trkpt>
<trkpt lat="-27.274439" lon="151.290064">
  <ele>343.1</ele>
  <time>2026-09-01T20:03:51Z</time>
  <course>270.0</course>
  <speed>0.0</speed>
  <fix>3d</fix>
</trkpt>
<trkpt lat="-27.274439" lon="151.290064">
  <ele>342.89</ele>
  <time>2026-09-01T20:03:51Z</time>
  <course>8.45</course>
  <speed>0.0</speed>
  <fix>3d</fix>
</trkpt>
<trkpt lat="-27.274439" lon="151.290064">
  <ele>343.1</ele>
  <time>2026-09-01T20:03:51Z</time>
  <course>270.0</course>
  <speed>0.0</speed>
  <fix>3d</fix>
</trkpt>
<trkpt lat="-27.274439" lon="151.290064">
  <ele>342.98</ele>
  <time>2026-09-01T20:03:51Z</time>
  <course>8.45</course>
  <speed>0.0</speed>
  <fix>3d</fix>
</trkpt>
<trkpt lat="-27.274439" lon="151.290064">
  <ele>343.1</ele>
  <time>2026-09-01T20:03:51Z</time>
  <course>270.0</course>
  <speed>0.0</speed>
  <fix>3d</fix>
</trkpt>
<trkpt lat="-27.274439" lon="151.290064">
  <ele>342.85</ele>
  <time>2026-09-01T20:03:51Z</time>
  <course>8.45</course>
  <speed>0.0</speed>
  <fix>3d</fix>
</trkpt>
<trkpt lat="-27.274439" lon="151.290064">
  <ele>343.1</ele>
  <time>2026-09-01T20:03:51Z</time>
  <course>270.0</course>
  <speed>0.0</speed>
  <fix>3d</fix>
</trkpt>
<trkpt lat="-27.274439" lon="151.290064">
  <ele>343.16</ele>
  <time>2026-09-01T20:03:51Z</time>
  <course>8.45</course>
  <speed>0.0</speed>
  <fix>3d</fix>
</trkpt>
<trkpt lat="-27.274439" lon="151.290064">
  <ele>343.1</ele>
  <time>2026-09-01T20:03:51Z</time>
  <course>270.0</course>
  <speed>0.0</speed>
  <fix>3d</fix>
</trkpt>
<trkpt lat="-27.274439" lon="151.290064">
  <ele>343.08</ele>
  <time>2026-09-01T20:03:51Z</time>
  <course>8.44</course>
  <speed>0.0</speed>
  <fix>3d</fix>
</trkpt>
<trkpt lat="-27.274439" lon="151.290064">
  <ele>343.1</ele>
  <time>2026-09-01T20:03:51Z</time>
  <course>270.0</course>
  <speed>0.0</speed>
  <fix>3d</fix>
</trkpt>
<trkpt lat="-27.274439" lon="151.290064">
  <ele>342.92</ele>
  <time>2026-09-01T20:03:51Z</time>
  <course>8.44</course>
  <speed>0.0</speed>
  <fix>3d</fix>
</trkpt>
<trkpt lat="-27.274439" lon="151.290064">
  <ele>343.1</ele>
  <time>2026-09-01T20:03:51Z</time>
  <course>270.0</course>
  <speed>0.0</speed>
  <fix>3d</fix>
</trkpt>
<trkpt lat="-27.274439" lon="151.290064">
  <ele>342.96</ele>
  <time>2026-09-01T20:03:51Z</time>
  <course>8.44</course>
  <speed>0.0</speed>
  <fix>3d</fix>
</trkpt>
<trkpt lat="-27.274439" lon="151.290064">
  <ele>343.1</ele>
  <time>2026-09-01T20:03:51Z</time>
  <course>270.0</course>
  <speed>0.0</speed>
  <fix>3d</fix>
</trkpt>
<trkpt lat="-27.274439" lon="151.290064">
  <ele>342.87</ele>
  <time>2026-09-01T20:03:51Z</time>
  <course>8.44</course>
  <speed>0.0</speed>
  <fix>3d</fix>
</trkpt>
<trkpt lat="-27.274439" lon="151.290064">
  <ele>343.1</ele>
  <time>2026-09-01T20:03:51Z</time>
  <course>270.0</course>
  <speed>0.0</speed>
  <fix>3d</fix>
</trkpt>
<trkpt lat="-27.274439" lon="151.290064">
  <ele>343.11</ele>
  <time>2026-09-01T20:03:51Z</time>
  <course>8.44</course>
  <speed>0.0</speed>
  <fix>3d</fix>
</trkpt>
<trkpt lat="-27.274439" lon="151.290064">
  <ele>343.1</ele>
  <time>2026-09-01T20:03:51Z</time>
  <course>270.0</course>
  <speed>0.0</speed>
  <fix>3d</fix>
</trkpt>
<trkpt lat="-27.274439" lon="151.290064">
  <ele>342.84</ele>
  <time>2026-09-01T20:03:51Z</time>
  <course>8.44</course>
  <speed>0.0</speed>
  <fix>3d</fix>
</trkpt>
<trkpt lat="-27.274439" lon="151.290064">
  <ele>343.1</ele>
  <time>2026-09-01T20:03:51Z</time>
  <course>270.0</course>
  <speed>0.0</speed>
  <fix>3d</fix>
</trkpt>
<trkpt lat="-27.274439" lon="151.290064">
  <ele>343.16</ele>
  <time>2026-09-01T20:03:51Z</time>
  <course>8.44</course>
  <speed>0.0</speed>
  <fix>3d</fix>
</trkpt>
<trkpt lat="-27.274439" lon="151.290064">
  <ele>343.1</ele>
  <time>2026-09-01T20:03:51Z</time>
  <course>270.0</course>
  <speed>0.0</speed>
  <fix>3d</fix>
</trkpt>
<trkpt lat="-27.274439" lon="151.290064">
  <ele>343.17</ele>
  <time>2026-09-01T20:03:51Z</time>
  <course>8.43</course>
  <speed>0.0</speed>
  <fix>3d</fix>
</trkpt>
<trkpt lat="-27.274439" lon="151.290064">
  <ele>343.1</ele>
  <time>2026-09-01T20:03:51Z</time>
  <course>270.0</course>
  <speed>0.0</speed>
  <fix>3d</fix>
</trkpt>
<trkpt lat="-27.274439" lon="151.290064">
  <ele>342.92</ele>
  <time>2026-09-01T20:03:51Z</time>
  <course>8.43</course>
  <speed>0.0</speed>
  <fix>3d</fix>
</trkpt>
<trkpt lat="-27.274439" lon="151.290064">
  <ele>343.1</ele>
  <time>2026-09-01T20:03:51Z</time>
  <course>270.0</course>
  <speed>0.0</speed>
  <fix>3d</fix>
</trkpt>
<trkpt lat="-27.274439" lon="151.290064">
  <ele>343.05</ele>
  <time>2026-09-01T20:03:51Z</time>
  <course>8.43</course>
  <speed>0.0</speed>
  <fix>3d</fix>
</trkpt>
<trkpt lat="-27.274439" lon="151.290064">
  <ele>343.1</ele>
  <time>2026-09-01T20:03:51Z</time>
  <course>270.0</course>
  <speed>0.0</speed>
  <fix>3d</fix>
</trkpt>
<trkpt lat="-27.274439" lon="151.290064">
  <ele>343.06</ele>
  <time>2026-09-01T20:03:51Z</time>
  <course>8.43</course>
  <speed>0.0</speed>
  <fix>3d</fix>
</trkpt>
<trkpt lat="-27.274439" lon="151.290064">
  <ele>343.1</ele>
  <time>2026-09-01T20:03:51Z</time>
  <course>270.0</course>
  <speed>0.0</speed>
  <fix>3d</fix>
</trkpt>
<trkpt lat="-27.274439" lon="151.290064">
  <ele>343.13</ele>
  <time>2026-09-01T20:03:51Z</time>
  <course>8.43</course>
  <speed>0.0</speed>
  <fix>3d</fix>
</trkpt>
<trkpt lat="-27.274439" lon="151.290064">
  <ele>343.1</ele>
  <time>2026-09-01T20:03:51Z</time>
  <course>270.0</course>
  <speed>0.0</speed>
  <fix>3d</fix>
</trkpt>
<trkpt lat="-27.274439" lon="151.290064">
  <ele>342.9</ele>
  <time>2026-09-01T20:03:51Z</time>
  <course>8.43</course>
  <speed>0.0</speed>
  <fix>3d</fix>
</trkpt>
<trkpt lat="-27.274439" lon="151.290064">
  <ele>343.1</ele>
  <time>2026-09-01T20:03:51Z</time>
  <course>270.0</course>
  <speed>0.0</speed>
  <fix>3d</fix>
</trkpt>
<trkpt lat="-27.274439" lon="151.290064">
  <ele>343.1</ele>
  <time>2026-09-01T20:03:51Z</time>
  <course>8.42</course>
  <speed>0.0</speed>
  <fix>3d</fix>
</trkpt>
<trkpt lat="-27.274439" lon="151.290064">
  <ele>343.1</ele>
  <time>2026-09-01T20:03:51Z</time>
  <course>270.0</course>
  <speed>0.0</speed>
  <fix>3d</fix>
</trkpt>
<trkpt lat="-27.274439" lon="151.290064">
  <ele>343.06</ele>
  <time>2026-09-01T20:03:51Z</time>
  <course>8.42</course>
  <speed>0.0</speed>
  <fix>3d</fix>
</trkpt>
<trkpt lat="-27.274439" lon="151.290064">
  <ele>343.1</ele>
  <time>2026-09-01T20:03:51Z</time>
  <course>270.0</course>
  <speed>0.0</speed>
  <fix>3d</fix>
</trkpt>
<trkpt lat="-27.274439" lon="151.290064">
  <ele>342.98</ele>
  <time>2026-09-01T20:03:51Z</time>
  <course>8.41</course>
  <speed>0.0</speed>
  <fix>3d</fix>
</trkpt>
<trkpt lat="-27.274439" lon="151.290064">
  <ele>343.1</ele>
  <time>2026-09-01T20:03:51Z</time>
  <course>270.0</course>
  <speed>0.0</speed>
  <fix>3d</fix>
</trkpt>
<trkpt lat="-27.274439" lon="151.290064">
  <ele>343.18</ele>
  <time>2026-09-01T20:03:51Z</time>
  <course>8.41</course>
  <speed>0.0</speed>
  <fix>3d</fix>
</trkpt>
<trkpt lat="-27.274439" lon="151.290064">
  <ele>343.1</ele>
  <time>2026-09-01T20:03:51Z</time>
  <course>270.0</course>
  <speed>0.0</speed>
  <fix>3d</fix>
</trkpt>
<trkpt lat="-27.274439" lon="151.290064">
  <ele>342.88</ele>
  <time>2026-09-01T20:03:51Z</time>
  <course>8.41</course>
  <speed>0.0</speed>
  <fix>3d</fix>
</trkpt>
<trkpt lat="-27.274439" lon="151.290064">
  <ele>343.1</ele>
  <time>2026-09-01T20:03:51Z</time>
  <course>270.0</course>
  <speed>0.0</speed>
  <fix>3d</fix>
</trkpt>
<trkpt lat="-27.274439" lon="151.290064">
  <ele>343.05</ele>
  <time>2026-09-01T20:03:51Z</time>
  <course>8.4</course>
  <speed>0.0</speed>
  <fix>3d</fix>
</trkpt>
<trkpt lat="-27.274439" lon="151.290064">
  <ele>343.1</ele>
  <time>2026-09-01T20:03:51Z</time>
  <course>270.0</course>
  <speed>0.0</speed>
  <fix>3d</fix>
</trkpt>
<trkpt lat="-27.274439" lon="151.290064">
  <ele>342.87</ele>
  <time>2026-09-01T20:03:51Z</time>
  <course>8.4</course>
  <speed>0.0</speed>
  <fix>3d</fix>
</trkpt>
<trkpt lat="-27.274439" lon="151.290064">
  <ele>343.1</ele>
  <time>2026-09-01T20:03:51Z</time>
  <course>270.0</course>
  <speed>0.0</speed>
  <fix>3d</fix>
</trkpt>
<trkpt lat="-27.274439" lon="151.290064">
  <ele>343.2</ele>
  <time>2026-09-01T20:03:51Z</time>
  <course>8.39</course>
  <speed>0.0</speed>
  <fix>3d</fix>
</trkpt>
<trkpt lat="-27.274439" lon="151.290064">
  <ele>343.1</ele>
  <time>2026-09-01T20:03:51Z</time>
  <course>270.0</course>
  <speed>0.0</speed>
  <fix>3d</fix>
</trkpt>
<trkpt lat="-27.274439" lon="151.290064">
  <ele>343.09</ele>
  <time>2026-09-01T20:03:51Z</time>
  <course>8.39</course>
  <speed>0.0</speed>
  <fix>3d</fix>
</trkpt>
<trkpt lat="-27.274439" lon="151.290064">
  <ele>343.1</ele>
  <time>2026-09-01T20:03:51Z</time>
  <course>270.0</course>
  <speed>0.0</speed>
  <fix>3d</fix>
</trkpt>
<trkpt lat="-27.274439" lon="151.290064">
  <ele>342.92</ele>
  <time>2026-09-01T20:03:51Z</time>
  <course>8.39</course>
  <speed>0.0</speed>
  <fix>3d</fix>
</trkpt>
<trkpt lat="-27.274439" lon="151.290064">
  <ele>343.1</ele>
  <time>2026-09-01T20:03:51Z</time>
  <course>270.0</course>
  <speed>0.0</speed>
  <fix>3d</fix>
</trkpt>
<trkpt lat="-27.274439" lon="151.290064">
  <ele>343.13</ele>
  <time>2026-09-01T20:03:51Z</time>
  <course>8.38</course>
  <speed>0.0</speed>
  <fix>3d</fix>
</trkpt>
<trkpt lat="-27.274439" lon="151.290064">
  <ele>343.1</ele>
  <time>2026-09-01T20:03:51Z</time>
  <course>270.0</course>
  <speed>0.0</speed>
  <fix>3d</fix>
</trkpt>
<trkpt lat="-27.274439" lon="151.290064">
  <ele>343.0</ele>
  <time>2026-09-01T20:03:51Z</time>
  <course>8.38</course>
  <speed>0.0</speed>
  <fix>3d</fix>
</trkpt>
<trkpt lat="-27.274439" lon="151.290064">
  <ele>343.1</ele>
  <time>2026-09-01T20:03:51Z</time>
  <course>270.0</course>
  <speed>0.0</speed>
  <fix>3d</fix>
</trkpt>
<trkpt lat="-27.274439" lon="151.290064">
  <ele>342.84</ele>
  <time>2026-09-01T20:03:51Z</time>
  <course>8.37</course>
  <speed>0.0</speed>
  <fix>3d</fix>
</trkpt>
<trkpt lat="-27.274439" lon="151.290064">
  <ele>343.1</ele>
  <time>2026-09-01T20:03:51Z</time>
  <course>270.0</course>
  <speed>0.0</speed>
  <fix>3d</fix>
</trkpt>
<trkpt lat="-27.274439" lon="151.290064">
  <ele>342.9</ele>
  <time>2026-09-01T20:03:51Z</time>
  <course>8.37</course>
  <speed>0.0</speed>
  <fix>3d</fix>
</trkpt>
<trkpt lat="-27.274439" lon="151.290064">
  <ele>343.1</ele>
  <time>2026-09-01T20:03:51Z</time>
  <course>270.0</course>
  <speed>0.0</speed>
  <fix>3d</fix>
</trkpt>
<trkpt lat="-27.274439" lon="151.290064">
  <ele>342.96</ele>
  <time>2026-09-01T20:03:51Z</time>
  <course>8.37</course>
  <speed>0.0</speed>
  <fix>3d</fix>
</trkpt>
<trkpt lat="-27.274439" lon="151.290064">
  <ele>343.1</ele>
  <time>2026-09-01T20:03:51Z</time>
  <course>270.0</course>
  <speed>0.0</speed>
  <fix>3d</fix>
</trkpt>
<trkpt lat="-27.274439" lon="151.290064">
  <ele>343.22</ele>
  <time>2026-09-01T20:03:51Z</time>
  <course>8.36</course>
  <speed>0.0</speed>
  <fix>3d</fix>
</trkpt>
<trkpt lat="-27.274439" lon="151.290064">
  <ele>343.1</ele>
  <time>2026-09-01T20:03:51Z</time>
  <course>270.0</course>
  <speed>0.0</speed>
  <fix>3d</fix>
</trkpt>
<trkpt lat="-27.274439" lon="151.290064">
  <ele>342.89</ele>
  <time>2026-09-01T20:03:51Z</time>
  <course>8.36</course>
  <speed>0.0</speed>
  <fix>3d</fix>
</trkpt>
<trkpt lat="-27.274439" lon="151.290064">
  <ele>343.1</ele>
  <time>2026-09-01T20:03:51Z</time>
  <course>270.0</course>
  <speed>0.0</speed>
  <fix>3d</fix>
</trkpt>
<trkpt lat="-27.274439" lon="151.290064">
  <ele>342.84</ele>
  <time>2026-09-01T20:03:51Z</time>
  <course>8.36</course>
  <speed>0.0</speed>
  <fix>3d</fix>
</trkpt>
<trkpt lat="-27.274439" lon="151.290064">
  <ele>343.1</ele>
  <time>2026-09-01T20:03:51Z</time>
  <course>270.0</course>
  <speed>0.0</speed>
  <fix>3d</fix>
</trkpt>
<trkpt lat="-27.274439" lon="151.290064">
  <ele>343.1</ele>
  <time>2026-09-01T20:03:51Z</time>
  <course>8.35</course>
  <speed>0.0</speed>
  <fix>3d</fix>
</trkpt>
<trkpt lat="-27.274439" lon="151.290064">
  <ele>343.1</ele>
  <time>2026-09-01T20:03:51Z</time>
  <course>270.0</course>
  <speed>0.0</speed>
  <fix>3d</fix>
</trkpt>
<trkpt lat="-27.274439" lon="151.290064">
  <ele>343.06</ele>
  <time>2026-09-01T20:03:51Z</time>
  <course>8.35</course>
  <speed>0.0</speed>
  <fix>3d</fix>
</trkpt>
<trkpt lat="-27.274439" lon="151.290064">
  <ele>343.1</ele>
  <time>2026-09-01T20:03:51Z</time>
  <course>270.0</course>
  <speed>0.0</speed>
  <fix>3d</fix>
</trkpt>
<trkpt lat="-27.274439" lon="151.290064">
  <ele>343.01</ele>
  <time>2026-09-01T20:03:51Z</time>
  <course>8.35</course>
  <speed>0.0</speed>
  <fix>3d</fix>
</trkpt>
<trkpt lat="-27.274439" lon="151.290064">
  <ele>343.1</ele>
  <time>2026-09-01T20:03:51Z</time>
  <course>270.0</course>
  <speed>0.0</speed>
  <fix>3d</fix>
</trkpt>
<trkpt lat="-27.274439" lon="151.290064">
  <ele>342.92</ele>
  <time>2026-09-01T20:03:51Z</time>
  <course>8.34</course>
  <speed>0.0</speed>
  <fix>3d</fix>
</trkpt>
<trkpt lat="-27.274439" lon="151.290064">
  <ele>343.1</ele>
  <time>2026-09-01T20:03:51Z</time>
  <course>270.0</course>
  <speed>0.0</speed>
  <fix>3d</fix>
</trkpt>
<trkpt lat="-27.274439" lon="151.290064">
  <ele>342.88</ele>
  <time>2026-09-01T20:03:51Z</time>
  <course>8.34</course>
  <speed>0.0</speed>
  <fix>3d</fix>
</trkpt>
<trkpt lat="-27.274439" lon="151.290064">
  <ele>343.1</ele>
  <time>2026-09-01T20:03:51Z</time>
  <course>270.0</course>
  <speed>0.0</speed>
  <fix>3d</fix>
</trkpt>
<trkpt lat="-27.274439" lon="151.290064">
  <ele>342.89</ele>
  <time>2026-09-01T20:03:51Z</time>
  <course>8.34</course>
  <speed>0.0</speed>
  <fix>3d</fix>
</trkpt>
<trkpt lat="-27.274439" lon="151.290064">
  <ele>343.1</ele>
  <time>2026-09-01T20:03:51Z</time>
  <course>270.0</course>
  <speed>0.0</speed>
  <fix>3d</fix>
</trkpt>
<trkpt lat="-27.274439" lon="151.290064">
  <ele>343.25</ele>
  <time>2026-09-01T20:03:51Z</time>
  <course>8.33</course>
  <speed>0.0</speed>
  <fix>3d</fix>
</trkpt>
<trkpt lat="-27.274439" lon="151.290064">
  <ele>343.1</ele>
  <time>2026-09-01T20:03:51Z</time>
  <course>270.0</course>
  <speed>0.0</speed>
  <fix>3d</fix>
</trkpt>
<trkpt lat="-27.274439" lon="151.290064">
  <ele>342.92</ele>
  <time>2026-09-01T20:03:51Z</time>
  <course>8.33</course>
  <speed>0.0</speed>
  <fix>3d</fix>
</trkpt>
<trkpt lat="-27.274439" lon="151.290064">
  <ele>343.1</ele>
  <time>2026-09-01T20:03:51Z</time>
  <course>270.0</course>
  <speed>0.0</speed>
  <fix>3d</fix>
</trkpt>
<trkpt lat="-27.274439" lon="151.290064">
  <ele>342.91</ele>
  <time>2026-09-01T20:03:51Z</time>
  <course>8.33</course>
  <speed>0.0</speed>
  <fix>3d</fix>
</trkpt>
<trkpt lat="-27.274439" lon="151.290064">
  <ele>343.1</ele>
  <time>2026-09-01T20:03:51Z</time>
  <course>270.0</course>
  <speed>0.0</speed>
  <fix>3d</fix>
</trkpt>
<trkpt lat="-27.274439" lon="151.290064">
  <ele>342.88</ele>
  <time>2026-09-01T20:03:51Z</time>
  <course>8.32</course>
  <speed>0.0</speed>
  <fix>3d</fix>
</trkpt>
<trkpt lat="-27.274439" lon="151.290064">
  <ele>343.1</ele>
  <time>2026-09-01T20:03:51Z</time>
  <course>270.0</course>
  <speed>0.0</speed>
  <fix>3d</fix>
</trkpt>
<trkpt lat="-27.274439" lon="151.290064">
  <ele>343.04</ele>
  <time>2026-09-01T20:03:51Z</time>
  <course>8.32</course>
  <speed>0.0</speed>
  <fix>3d</fix>
</trkpt>
<trkpt lat="-27.274439" lon="151.290064">
  <ele>343.1</ele>
  <time>2026-09-01T20:03:51Z</time>
  <course>270.0</course>
  <speed>0.0</speed>
  <fix>3d</fix>
</trkpt>
<trkpt lat="-27.274439" lon="151.290064">
  <ele>342.88</ele>
  <time>2026-09-01T20:03:51Z</time>
  <course>8.32</course>
  <speed>0.0</speed>
  <fix>3d</fix>
</trkpt>
<trkpt lat="-27.274439" lon="151.290064">
  <ele>343.1</ele>
  <time>2026-09-01T20:03:51Z</time>
  <course>270.0</course>
  <speed>0.0</speed>
  <fix>3d</fix>
</trkpt>
<trkpt lat="-27.274439" lon="151.290064">
  <ele>343.1</ele>
  <time>2026-09-01T20:03:51Z</time>
  <course>8.31</course>
  <speed>0.0</speed>
  <fix>3d</fix>
</trkpt>
<trkpt lat="-27.274439" lon="151.290064">
  <ele>343.1</ele>
  <time>2026-09-01T20:03:51Z</time>
  <course>270.0</course>
  <speed>0.0</speed>
  <fix>3d</fix>
</trkpt>
<trkpt lat="-27.274439" lon="151.290064">
  <ele>342.99</ele>
  <time>2026-09-01T20:03:51Z</time>
  <course>8.31</course>
  <speed>0.0</speed>
  <fix>3d</fix>
</trkpt>
<trkpt lat="-27.274439" lon="151.290064">
  <ele>343.1</ele>
  <time>2026-09-01T20:03:51Z</time>
  <course>270.0</course>
  <speed>0.0</speed>
  <fix>3d</fix>
</trkpt>
<trkpt lat="-27.274439" lon="151.290064">
  <ele>343.05</ele>
  <time>2026-09-01T20:03:51Z</time>
  <course>9.96</course>
  <speed>0.0</speed>
  <fix>3d</fix>
</trkpt>
<trkpt lat="-27.274439" lon="151.290064">
  <ele>343.1</ele>
  <time>2026-09-01T20:03:51Z</time>
  <course>270.0</course>
  <speed>0.0</speed>
  <fix>3d</fix>
</trkpt>
<trkpt lat="-27.274439" lon="151.290064">
  <ele>343.05</ele>
  <time>2026-09-01T20:03:51Z</time>
  <course>9.96</course>
  <speed>0.0</speed>
  <fix>3d</fix>
</trkpt>
<trkpt lat="-27.274439" lon="151.290064">
  <ele>343.1</ele>
  <time>2026-09-01T20:03:51Z</time>
  <course>270.0</course>
  <speed>0.0</speed>
  <fix>3d</fix>
</trkpt>
<trkpt lat="-27.274439" lon="151.290064">
  <ele>343.05</ele>
  <time>2026-09-01T20:03:51Z</time>
  <course>9.96</course>
  <speed>0.0</speed>
  <fix>3d</fix>
</trkpt>
<trkpt lat="-27.274439" lon="151.290064">
  <ele>343.1</ele>
  <time>2026-09-01T20:03:51Z</time>
  <course>270.0</course>
  <speed>0.0</speed>
  <fix>3d</fix>
</trkpt>
<trkpt lat="-27.274439" lon="151.290064">
  <ele>343.05</ele>
  <time>2026-09-01T20:03:51Z</time>
  <course>9.95</course>
  <speed>0.0</speed>
  <fix>3d</fix>
</trkpt>
<trkpt lat="-27.274439" lon="151.290064">
  <ele>343.1</ele>
  <time>2026-09-01T20:03:51Z</time>
  <course>270.0</course>
  <speed>0.0</speed>
  <fix>3d</fix>
</trkpt>
<trkpt lat="-27.274439" lon="151.290064">
  <ele>343.05</ele>
  <time>2026-09-01T20:03:51Z</time>
  <course>9.95</course>
  <speed>0.0</speed>
  <fix>3d</fix>
</trkpt>
<trkpt lat="-27.274439" lon="151.290064">
  <ele>343.1</ele>
  <time>2026-09-01T20:03:51Z</time>
  <course>270.0</course>
  <speed>0.0</speed>
  <fix>3d</fix>
</trkpt>
<trkpt lat="-27.274439" lon="151.290064">
  <ele>343.04</ele>
  <time>2026-09-01T20:03:51Z</time>
  <course>9.94</course>
  <speed>0.0</speed>
  <fix>3d</fix>
</trkpt>
<trkpt lat="-27.274439" lon="151.290064">
  <ele>343.1</ele>
  <time>2026-09-01T20:03:51Z</time>
  <course>270.0</course>
  <speed>0.0</speed>
  <fix>3d</fix>
</trkpt>
<trkpt lat="-27.274439" lon="151.290064">
  <ele>343.04</ele>
  <time>2026-09-01T20:03:51Z</time>
  <course>9.94</course>
  <speed>0.0</speed>
  <fix>3d</fix>
</trkpt>
<trkpt lat="-27.274439" lon="151.290064">
  <ele>343.1</ele>
  <time>2026-09-01T20:03:51Z</time>
  <course>270.0</course>
  <speed>0.0</speed>
  <fix>3d</fix>
</trkpt>
<trkpt lat="-27.274439" lon="151.290064">
  <ele>343.04</ele>
  <time>2026-09-01T20:03:51Z</time>
  <course>9.93</course>
  <speed>0.0</speed>
  <fix>3d</fix>
</trkpt>
<trkpt lat="-27.274439" lon="151.290064">
  <ele>343.1</ele>
  <time>2026-09-01T20:03:51Z</time>
  <course>270.0</course>
  <speed>0.0</speed>
  <fix>3d</fix>
</trkpt>
<trkpt lat="-27.274439" lon="151.290064">
  <ele>343.04</ele>
  <time>2026-09-01T20:03:51Z</time>
  <course>9.93</course>
  <speed>0.0</speed>
  <fix>3d</fix>
</trkpt>
<trkpt lat="-27.274439" lon="151.290064">
  <ele>343.1</ele>
  <time>2026-09-01T20:03:51Z</time>
  <course>270.0</course>
  <speed>0.0</speed>
  <fix>3d</fix>
</trkpt>
<trkpt lat="-27.274439" lon="151.290064">
  <ele>343.04</ele>
  <time>2026-09-01T20:03:51Z</time>
  <course>9.92</course>
  <speed>0.0</speed>
  <fix>3d</fix>
</trkpt>
<trkpt lat="-27.274439" lon="151.290064">
  <ele>343.1</ele>
  <time>2026-09-01T20:03:51Z</time>
  <course>270.0</course>
  <speed>0.0</speed>
  <fix>3d</fix>
</trkpt>
<trkpt lat="-27.274439" lon="151.290064">
  <ele>343.09</ele>
  <time>2026-09-01T20:03:51Z</time>
  <course>9.92</course>
  <speed>0.01</speed>
  <fix>3d</fix>
</trkpt>
<trkpt lat="-27.274439" lon="151.290064">
  <ele>343.1</ele>
  <time>2026-09-01T20:03:51Z</time>
  <course>270.0</course>
  <speed>0.0</speed>
  <fix>3d</fix>
</trkpt>
<trkpt lat="-27.274439" lon="151.290064">
  <ele>343.09</ele>
  <time>2026-09-01T20:03:51Z</time>
  <course>9.92</course>
  <speed>0.01</speed>
  <fix>3d</fix>
</trkpt>
<trkpt lat="-27.274439" lon="151.290064">
  <ele>343.1</ele>
  <time>2026-09-01T20:03:51Z</time>
  <course>270.0</course>
  <speed>0.0</speed>
  <fix>3d</fix>
</trkpt>
<trkpt lat="-27.274439" lon="151.290064">
  <ele>343.09</ele>
  <time>2026-09-01T20:03:51Z</time>
  <course>9.91</course>
  <speed>0.01</speed>
  <fix>3d</fix>
</trkpt>
<trkpt lat="-27.274439" lon="151.290064">
  <ele>343.1</ele>
  <time>2026-09-01T20:03:51Z</time>
  <course>270.0</course>
  <speed>0.0</speed>
  <fix>3d</fix>
</trkpt>
<trkpt lat="-27.274439" lon="151.290064">
  <ele>343.09</ele>
  <time>2026-09-01T20:03:51Z</time>
  <course>9.91</course>
  <speed>0.01</speed>
  <fix>3d</fix>
</trkpt>
<trkpt lat="-27.274439" lon="151.290064">
  <ele>343.1</ele>
  <time>2026-09-01T20:03:51Z</time>
  <course>270.0</course>
  <speed>0.0</speed>
  <fix>3d</fix>
</trkpt>
<trkpt lat="-27.274439" lon="151.290064">
  <ele>343.1</ele>
  <time>2026-09-01T20:03:51Z</time>
  <course>9.9</course>
  <speed>0.01414213562373095</speed>
  <fix>3d</fix>
</trkpt>
<trkpt lat="-27.274439" lon="151.290064">
  <ele>343.1</ele>
  <time>2026-09-01T20:03:51Z</time>
  <course>270.0</course>
  <speed>0.0</speed>
  <fix>3d</fix>
</trkpt>
<trkpt lat="-27.274439" lon="151.290064">
  <ele>343.1</ele>
  <time>2026-09-01T20:03:51Z</time>
  <course>9.9</course>
  <speed>0.01414213562373095</speed>
  <fix>3d</fix>
</trkpt>
<trkpt lat="-27.274439" lon="151.290064">
  <ele>343.1</ele>
  <time>2026-09-01T20:03:51Z</time>
  <course>270.0</course>
  <speed>0.0</speed>
  <fix>3d</fix>
</trkpt>
<trkpt lat="-27.274439" lon="151.290064">
  <ele>343.1</ele>
  <time>2026-09-01T20:03:51Z</time>
  <course>9.89</course>
  <speed>0.01414213562373095</speed>
  <fix>3d</fix>
</trkpt>
<trkpt lat="-27.274439" lon="151.290064">
  <ele>343.1</ele>
  <time>2026-09-01T20:03:51Z</time>
  <course>270.0</course>
  <speed>0.0</speed>
  <fix>3d</fix>
</trkpt>
<trkpt lat="-27.274439" lon="151.290064">
  <ele>343.1</ele>
  <time>2026-09-01T20:03:51Z</time>
  <course>9.89</course>
  <speed>0.01414213562373095</speed>
  <fix>3d</fix>
</trkpt>
<trkpt lat="-27.274439" lon="151.290064">
  <ele>343.1</ele>
  <time>2026-09-01T20:03:51Z</time>
  <course>270.0</course>
  <speed>0.0</speed>
  <fix>3d</fix>
</trkpt>
<trkpt lat="-27.274439" lon="151.290064">
  <ele>343.1</ele>
  <time>2026-09-01T20:03:51Z</time>
  <course>9.88</course>
  <speed>0.01414213562373095</speed>
  <fix>3d</fix>
</trkpt>
<trkpt lat="-27.274439" lon="151.290064">
  <ele>343.1</ele>
  <time>2026-09-01T20:03:51Z</time>
  <course>270.0</course>
  <speed>0.0</speed>
  <fix>3d</fix>
</trkpt>
<trkpt lat="-27.274439" lon="151.290064">
  <ele>343.1</ele>
  <time>2026-09-01T20:03:51Z</time>
  <course>9.88</course>
  <speed>0.01414213562373095</speed>
  <fix>3d</fix>
</trkpt>
<trkpt lat="-27.274439" lon="151.290064">
  <ele>343.1</ele>
  <time>2026-09-01T20:03:51Z</time>
  <course>270.0</course>
  <speed>0.0</speed>
  <fix>3d</fix>
</trkpt>
<trkpt lat="-27.274439" lon="151.290064">
  <ele>343.1</ele>
  <time>2026-09-01T20:03:51Z</time>
  <course>9.88</course>
  <speed>0.01414213562373095</speed>
  <fix>3d</fix>
</trkpt>
<trkpt lat="-27.274439" lon="151.290064">
  <ele>343.1</ele>
  <time>2026-09-01T20:03:51Z</time>
  <course>270.0</course>
  <speed>0.0</speed>
  <fix>3d</fix>
</trkpt>
<trkpt lat="-27.274439" lon="151.290064">
  <ele>343.1</ele>
  <time>2026-09-01T20:03:51Z</time>
  <course>9.87</course>
  <speed>0.01414213562373095</speed>
  <fix>3d</fix>
</trkpt>
<trkpt lat="-27.274439" lon="151.290064">
  <ele>343.1</ele>
  <time>2026-09-01T20:03:51Z</time>
  <course>270.0</course>
  <speed>0.0</speed>
  <fix>3d</fix>
</trkpt>
<trkpt lat="-27.274439" lon="151.290064">
  <ele>343.1</ele>
  <time>2026-09-01T20:03:51Z</time>
  <course>9.87</course>
  <speed>0.01414213562373095</speed>
  <fix>3d</fix>
</trkpt>
<trkpt lat="-27.274439" lon="151.290064">
  <ele>343.1</ele>
  <time>2026-09-01T20:03:51Z</time>
  <course>184.13</course>
  <speed>0.0</speed>
  <fix>3d</fix>
</trkpt>
<trkpt lat="-27.274439" lon="151.290064">
  <ele>343.1</ele>
  <time>2026-09-01T20:03:51Z</time>
  <course>9.87</course>
  <speed>0.01414213562373095</speed>
  <fix>3d</fix>
</trkpt>
<trkpt lat="-27.274439" lon="151.290064">
  <ele>343.1</ele>
  <time>2026-09-01T20:03:51Z</time>
  <course>9.86</course>
  <speed>0.01414213562373095</speed>
  <fix>3d</fix>
</trkpt>
<trkpt lat="-27.274439" lon="151.290064">
  <ele>343.1</ele>
  <time>2026-09-01T20:03:51Z</time>
  <course>184.13</course>
  <speed>0.0</speed>
  <fix>3d</fix>
</trkpt>
<trkpt lat="-27.274439" lon="151.290064">
  <ele>343.1</ele>
  <time>2026-09-01T20:03:51Z</time>
  <course>9.86</course>
  <speed>0.01414213562373095</speed>
  <fix>3d</fix>
</trkpt>
<trkpt lat="-27.274439" lon="151.290064">
  <ele>343.1</ele>
  <time>2026-09-01T20:03:51Z</time>
  <course>9.86</course>
  <speed>0.01414213562373095</speed>
  <fix>3d</fix>
</trkpt>
<trkpt lat="-27.274439" lon="151.290064">
  <ele>343.1</ele>
  <time>2026-09-01T20:03:51Z</time>
  <course>187.54</course>
  <speed>0.0</speed>
  <fix>3d</fix>
</trkpt>
<trkpt lat="-27.274439" lon="151.290064">
  <ele>343.1</ele>
  <time>2026-09-01T20:03:51Z</time>
  <course>9.86</course>
  <speed>0.01414213562373095</speed>
  <fix>3d</fix>
</trkpt>
<trkpt lat="-27.274439" lon="151.290064">
  <ele>343.09</ele>
  <time>2026-09-01T20:03:51Z</time>
  <course>9.86</course>
  <speed>0.01414213562373095</speed>
  <fix>3d</fix>
</trkpt>
<trkpt lat="-27.274439" lon="151.290064">
  <ele>343.1</ele>
  <time>2026-09-01T20:03:51Z</time>
  <course>187.54</course>
  <speed>0.0</speed>
  <fix>3d</fix>
</trkpt>
<trkpt lat="-27.274439" lon="151.290064">
  <ele>343.09</ele>
  <time>2026-09-01T20:03:51Z</time>
  <course>9.85</course>
  <speed>0.01414213562373095</speed>
  <fix>3d</fix>
</trkpt>
<trkpt lat="-27.274439" lon="151.290064">
  <ele>343.09</ele>
  <time>2026-09-01T20:03:51Z</time>
  <course>9.85</course>
  <speed>0.01414213562373095</speed>
  <fix>3d</fix>
</trkpt>
<trkpt lat="-27.274439" lon="151.290064">
  <ele>343.1</ele>
  <time>2026-09-01T20:03:51Z</time>
  <course>187.96</course>
  <speed>0.0</speed>
  <fix>3d</fix>
</trkpt>
<trkpt lat="-27.274439" lon="151.290064">
  <ele>343.09</ele>
  <time>2026-09-01T20:03:51Z</time>
  <course>9.85</course>
  <speed>0.01414213562373095</speed>
  <fix>3d</fix>
</trkpt>
<trkpt lat="-27.274439" lon="151.290064">
  <ele>343.09</ele>
  <time>2026-09-01T20:03:51Z</time>
  <course>9.85</course>
  <speed>0.01414213562373095</speed>
  <fix>3d</fix>
</trkpt>
<trkpt lat="-27.274439" lon="151.290064">
  <ele>343.1</ele>
  <time>2026-09-01T20:03:51Z</time>
  <course>187.96</course>
  <speed>0.0</speed>
  <fix>3d</fix>
</trkpt>
<trkpt lat="-27.274439" lon="151.290064">
  <ele>343.09</ele>
  <time>2026-09-01T20:03:51Z</time>
  <course>9.85</course>
  <speed>0.01414213562373095</speed>
  <fix>3d</fix>
</trkpt>
<trkpt lat="-27.274439" lon="151.290064">
  <ele>343.09</ele>
  <time>2026-09-01T20:03:51Z</time>
  <course>9.84</course>
  <speed>0.01414213562373095</speed>
  <fix>3d</fix>
</trkpt>
<trkpt lat="-27.274439" lon="151.290064">
  <ele>343.1</ele>
  <time>2026-09-01T20:03:51Z</time>
  <course>188.03</course>
  <speed>0.0</speed>
  <fix>3d</fix>
</trkpt>
<trkpt lat="-27.274439" lon="151.290064">
  <ele>343.09</ele>
  <time>2026-09-01T20:03:51Z</time>
  <course>9.84</course>
  <speed>0.01414213562373095</speed>
  <fix>3d</fix>
</trkpt>
<trkpt lat="-27.274439" lon="151.290064">
  <ele>343.09</ele>
  <time>2026-09-01T20:03:51Z</time>
  <course>9.84</course>
  <speed>0.01</speed>
  <fix>3d</fix>
</trkpt>
<trkpt lat="-27.274439" lon="151.290064">
  <ele>343.1</ele>
  <time>2026-09-01T20:03:51Z</time>
  <course>188.03</course>
  <speed>0.0</speed>
  <fix>3d</fix>
</trkpt>
<trkpt lat="-27.274439" lon="151.290064">
  <ele>343.09</ele>
  <time>2026-09-01T20:03:51Z</time>
  <course>9.84</course>
  <speed>0.01</speed>
  <fix>3d</fix>
</trkpt>
<trkpt lat="-27.274439" lon="151.290064">
  <ele>343.09</ele>
  <time>2026-09-01T20:03:51Z</time>
  <course>9.84</course>
  <speed>0.01</speed>
  <fix>3d</fix>
</trkpt>
<trkpt lat="-27.274439" lon="151.290064">
  <ele>343.1</ele>
  <time>2026-09-01T20:03:51Z</time>
  <course>188.04</course>
  <speed>0.0</speed>
  <fix>3d</fix>
</trkpt>
<trkpt lat="-27.274439" lon="151.290064">
  <ele>343.09</ele>
  <time>2026-09-01T20:03:51Z</time>
  <course>9.84</course>
  <speed>0.01</speed>
  <fix>3d</fix>
</trkpt>
<trkpt lat="-27.274439" lon="151.290064">
  <ele>343.09</ele>
  <time>2026-09-01T20:03:51Z</time>
  <course>9.83</course>
  <speed>0.01</speed>
  <fix>3d</fix>
</trkpt>
<trkpt lat="-27.274439" lon="151.290064">
  <ele>343.1</ele>
  <time>2026-09-01T20:03:51Z</time>
  <course>188.04</course>
  <speed>0.0</speed>
  <fix>3d</fix>
</trkpt>
<trkpt lat="-27.274439" lon="151.290064">
  <ele>343.09</ele>
  <time>2026-09-01T20:03:51Z</time>
  <course>9.83</course>
  <speed>0.01</speed>
  <fix>3d</fix>
</trkpt>
<trkpt lat="-27.274439" lon="151.290064">
  <ele>343.1</ele>
  <time>2026-09-01T20:03:51Z</time>
  <course>9.83</course>
  <speed>0.01</speed>
  <fix>3d</fix>
</trkpt>
<trkpt lat="-27.274439" lon="151.290064">
  <ele>343.1</ele>
  <time>2026-09-01T20:03:51Z</time>
  <course>187.86</course>
  <speed>0.0</speed>
  <fix>3d</fix>
</trkpt>
<trkpt lat="-27.274439" lon="151.290064">
  <ele>343.11</ele>
  <time>2026-09-01T20:03:51Z</time>
  <course>9.83</course>
  <speed>0.01</speed>
  <fix>3d</fix>
</trkpt>
<trkpt lat="-27.274439" lon="151.290064">
  <ele>343.13</ele>
  <time>2026-09-01T20:03:51Z</time>
  <course>9.82</course>
  <speed>0.01</speed>
  <fix>3d</fix>
</trkpt>
<trkpt lat="-27.274439" lon="151.290064">
  <ele>343.1</ele>
  <time>2026-09-01T20:03:51Z</time>
  <course>187.86</course>
  <speed>0.0</speed>
  <fix>3d</fix>
</trkpt>
<trkpt lat="-27.274439" lon="151.290064">
  <ele>343.13</ele>
  <time>2026-09-01T20:03:51Z</time>
  <course>9.82</course>
  <speed>0.01</speed>
  <fix>3d</fix>
</trkpt>
<trkpt lat="-27.274439" lon="151.290064">
  <ele>343.17</ele>
  <time>2026-09-01T20:03:51Z</time>
  <course>9.82</course>
  <speed>0.0</speed>
  <fix>3d</fix>
</trkpt>
<trkpt lat="-27.274439" lon="151.290064">
  <ele>343.12</ele>
  <time>2026-09-01T20:03:51Z</time>
  <course>7.25</course>
  <speed>0.0</speed>
  <fix>3d</fix>
</trkpt>
<trkpt lat="-27.274439" lon="151.290064">
  <ele>343.18</ele>
  <time>2026-09-01T20:03:51Z</time>
  <course>9.82</course>
  <speed>0.0</speed>
  <fix>3d</fix>
</trkpt>
<trkpt lat="-27.274439" lon="151.290064">
  <ele>343.23</ele>
  <time>2026-09-01T20:03:51Z</time>
  <course>9.86</course>
  <speed>0.0</speed>
  <fix>3d</fix>
</trkpt>
<trkpt lat="-27.274439" lon="151.290064">
  <ele>343.12</ele>
  <time>2026-09-01T20:03:51Z</time>
  <course>7.25</course>
  <speed>0.0</speed>
  <fix>3d</fix>
</trkpt>
<trkpt lat="-27.274439" lon="151.290064">
  <ele>343.25</ele>
  <time>2026-09-01T20:03:51Z</time>
  <course>9.88</course>
  <speed>0.0</speed>
  <fix>3d</fix>
</trkpt>
<trkpt lat="-27.274439" lon="151.290064">
  <ele>343.35</ele>
  <time>2026-09-01T20:03:51Z</time>
  <course>9.88</course>
  <speed>0.022360679774997897</speed>
  <fix>3d</fix>
</trkpt>
<trkpt lat="-27.274439" lon="151.290064">
  <ele>343.2</ele>
  <time>2026-09-01T20:03:51Z</time>
  <course>1.4</course>
  <speed>0.0</speed>
  <fix>3d</fix>
</trkpt>
<trkpt lat="-27.274439" lon="151.290064">
  <ele>343.39</ele>
  <time>2026-09-01T20:03:51Z</time>
  <course>9.86</course>
  <speed>0.0316227766016838</speed>
  <fix>3d</fix>
</trkpt>
<trkpt lat="-27.274439" lon="151.290064">
  <ele>343.53</ele>
  <time>2026-09-01T20:03:51Z</time>
  <course>9.86</course>
  <speed>0.06082762530298219</speed>
  <fix>3d</fix>
</trkpt>
<trkpt lat="-27.274439" lon="151.290064">
  <ele>343.2</ele>
  <time>2026-09-01T20:03:51Z</time>
  <course>1.4</course>
  <speed>0.0</speed>
  <fix>3d</fix>
</trkpt>
<trkpt lat="-27.274439" lon="151.290064">
  <ele>343.59</ele>
  <time>2026-09-01T20:03:51Z</time>
  <course>9.88</course>
  <speed>0.07071067811865475</speed>
  <fix>3d</fix>
</trkpt>
<trkpt lat="-27.2744389" lon="151.290064">
  <ele>343.75</ele>
  <time>2026-09-01T20:03:51Z</time>
  <course>9.89</course>
  <speed>0.1004987562112089</speed>
  <fix>3d</fix>
</trkpt>
<trkpt lat="-27.274439" lon="151.290064">
  <ele>343.4</ele>
  <time>2026-09-01T20:03:51Z</time>
  <course>0.59</course>
  <speed>0.04</speed>
  <fix>3d</fix>
</trkpt>
<trkpt lat="-27.2744389" lon="151.290064">
  <ele>343.8</ele>
  <time>2026-09-01T20:03:51Z</time>
  <course>9.88</course>
  <speed>0.11045361017187261</speed>
  <fix>3d</fix>
</trkpt>
<trkpt lat="-27.2744388" lon="151.290064">
  <ele>343.98</ele>
  <time>2026-09-01T20:03:51Z</time>
  <course>9.85</course>
  <speed>0.140356688476182</speed>
  <fix>3d</fix>
</trkpt>
<trkpt lat="-27.274439" lon="151.290064">
  <ele>343.4</ele>
  <time>2026-09-01T20:03:51Z</time>
  <course>0.59</course>
  <speed>0.04</speed>
  <fix>3d</fix>
</trkpt>
<trkpt lat="-27.2744388" lon="151.290064">
  <ele>343.98</ele>
  <time>2026-09-01T20:03:51Z</time>
  <course>9.85</course>
  <speed>0.15132745950421556</speed>
  <fix>3d</fix>
</trkpt>
<trkpt lat="-27.2744387" lon="151.290064">
  <ele>344.2</ele>
  <time>2026-09-01T20:03:51Z</time>
  <course>9.89</course>
  <speed>0.191049731745428</speed>
  <fix>3d</fix>
</trkpt>
<trkpt lat="-27.2744389" lon="151.290064">
  <ele>343.78</ele>
  <time>2026-09-01T20:03:51Z</time>
  <course>1.28</course>
  <speed>0.12</speed>
  <fix>3d</fix>
</trkpt>
<trkpt lat="-27.2744386" lon="151.290064">
  <ele>344.21</ele>
  <time>2026-09-01T20:03:51Z</time>
  <course>9.89</course>
  <speed>0.191049731745428</speed>
  <fix>3d</fix>
</trkpt>
<trkpt lat="-27.2744385" lon="151.290064">
  <ele>344.43</ele>
  <time>2026-09-01T20:03:51Z</time>
  <course>9.85</course>
  <speed>0.2308679276123039</speed>
  <fix>3d</fix>
</trkpt>
<trkpt lat="-27.2744389" lon="151.290064">
  <ele>343.78</ele>
  <time>2026-09-01T20:03:51Z</time>
  <course>1.28</course>
  <speed>0.12</speed>
  <fix>3d</fix>
</trkpt>
<trkpt lat="-27.2744384" lon="151.290064">
  <ele>344.49</ele>
  <time>2026-09-01T20:03:51Z</time>
  <course>9.85</course>
  <speed>0.24083189157584592</speed>
  <fix>3d</fix>
</trkpt>
<trkpt lat="-27.2744382" lon="151.290064">
  <ele>344.66</ele>
  <time>2026-09-01T20:03:51Z</time>
  <course>9.88</course>
  <speed>0.260768096208106</speed>
  <fix>3d</fix>
</trkpt>
<trkpt lat="-27.2744386" lon="151.290064">
  <ele>344.24</ele>
  <time>2026-09-01T20:03:51Z</time>
  <course>2.04</course>
  <speed>0.2</speed>
  <fix>3d</fix>
</trkpt>
<trkpt lat="-27.2744382" lon="151.290064">
  <ele>344.67</ele>
  <time>2026-09-01T20:03:51Z</time>
  <course>9.88</course>
  <speed>0.2707397274136177</speed>
  <fix>3d</fix>
</trkpt>
<trkpt lat="-27.274438" lon="151.2900641">
  <ele>344.89</ele>
  <time>2026-09-01T20:03:51Z</time>
  <course>7.88</course>
  <speed>0.3014962686336267</speed>
  <fix>3d</fix>
</trkpt>
<trkpt lat="-27.2744386" lon="151.290064">
  <ele>344.24</ele>
  <time>2026-09-01T20:03:51Z</time>
  <course>2.04</course>
  <speed>0.2</speed>
  <fix>3d</fix>
</trkpt>
<trkpt lat="-27.2744379" lon="151.2900641">
  <ele>344.95</ele>
  <time>2026-09-01T20:03:51Z</time>
  <course>7.87</course>
  <speed>0.31144823004794875</speed>
  <fix>3d</fix>
</trkpt>
<trkpt lat="-27.2744377" lon="151.2900641">
  <ele>345.12</ele>
  <time>2026-09-01T20:03:51Z</time>
  <course>7.89</course>
  <speed>0.34132096331752027</speed>
  <fix>3d</fix>
</trkpt>
<trkpt lat="-27.2744382" lon="151.290064">
  <ele>344.7</ele>
  <time>2026-09-01T20:03:51Z</time>
  <course>2.63</course>
  <speed>0.28</speed>
  <fix>3d</fix>
</trkpt>
<trkpt lat="-27.2744377" lon="151.2900641">
  <ele>345.13</ele>
  <time>2026-09-01T20:03:51Z</time>
  <course>7.9</course>
  <speed>0.34132096331752027</speed>
  <fix>3d</fix>
</trkpt>
<trkpt lat="-27.2744374" lon="151.2900641">
  <ele>345.34</ele>
  <time>2026-09-01T20:03:51Z</time>
  <course>7.91</course>
  <speed>0.3712142238654117</speed>
  <fix>3d</fix>
</trkpt>
<trkpt lat="-27.2744382" lon="151.290064">
  <ele>344.7</ele>
  <time>2026-09-01T20:03:51Z</time>
  <course>2.63</course>
  <speed>0.28</speed>
  <fix>3d</fix>
</trkpt>
<trkpt lat="-27.2744374" lon="151.2900641">
  <ele>345.35</ele>
  <time>2026-09-01T20:03:51Z</time>
  <course>7.91</course>
  <speed>0.3712142238654117</speed>
  <fix>3d</fix>
</trkpt>
<trkpt lat="-27.274437" lon="151.2900641">
  <ele>345.55</ele>
  <time>2026-09-01T20:03:51Z</time>
  <course>7.9</course>
  <speed>0.3911521443121589</speed>
  <fix>3d</fix>
</trkpt>
<trkpt lat="-27.2744376" lon="151.290064">
  <ele>345.15</ele>
  <time>2026-09-01T20:03:51Z</time>
  <course>3.07</course>
  <speed>0.35</speed>
  <fix>3d</fix>
</trkpt>
<trkpt lat="-27.2744369" lon="151.2900641">
  <ele>345.6</ele>
  <time>2026-09-01T20:03:51Z</time>
  <course>7.91</course>
  <speed>0.4011234224026316</speed>
  <fix>3d</fix>
</trkpt>
<trkpt lat="-27.2744367" lon="151.2900641">
  <ele>345.76</ele>
  <time>2026-09-01T20:03:51Z</time>
  <course>7.93</course>
  <speed>0.42107006542854597</speed>
  <fix>3d</fix>
</trkpt>
<trkpt lat="-27.2744376" lon="151.290064">
  <ele>345.15</ele>
  <time>2026-09-01T20:03:51Z</time>
  <course>3.07</course>
  <speed>0.35</speed>
  <fix>3d</fix>
</trkpt>
<trkpt lat="-27.2744366" lon="151.2900641">
  <ele>345.81</ele>
  <time>2026-09-01T20:03:51Z</time>
  <course>7.92</course>
  <speed>0.42107006542854597</speed>
  <fix>3d</fix>
</trkpt>
<trkpt lat="-27.2744363" lon="151.2900642">
  <ele>345.96</ele>
  <time>2026-09-01T20:03:51Z</time>
  <course>7.9</course>
  <speed>0.4410215414239989</speed>
  <fix>3d</fix>
</trkpt>
<trkpt lat="-27.2744369" lon="151.290064">
  <ele>345.58</ele>
  <time>2026-09-01T20:03:51Z</time>
  <course>3.33</course>
  <speed>0.41</speed>
  <fix>3d</fix>
</trkpt>
<trkpt lat="-27.2744362" lon="151.2900642">
  <ele>346.0</ele>
  <time>2026-09-01T20:03:51Z</time>
  <course>7.9</course>
  <speed>0.4410215414239989</speed>
  <fix>3d</fix>
</trkpt>
<trkpt lat="-27.2744359" lon="151.2900642">
  <ele>346.14</ele>
  <time>2026-09-01T20:03:51Z</time>
  <course>7.93</course>
  <speed>0.4609772228646444</speed>
  <fix>3d</fix>
</trkpt>
<trkpt lat="-27.2744369" lon="151.290064">
  <ele>345.58</ele>
  <time>2026-09-01T20:03:51Z</time>
  <course>3.33</course>
  <speed>0.41</speed>
  <fix>3d</fix>
</trkpt>
<trkpt lat="-27.2744359" lon="151.2900642">
  <ele>346.15</ele>
  <time>2026-09-01T20:03:51Z</time>
  <course>7.93</course>
  <speed>0.4609772228646444</speed>
  <fix>3d</fix>
</trkpt>
<trkpt lat="-27.2744354" lon="151.2900642">
  <ele>346.32</ele>
  <time>2026-09-01T20:03:51Z</time>
  <course>7.9</course>
  <speed>0.4709564735726646</speed>
  <fix>3d</fix>
</trkpt>
<trkpt lat="-27.2744361" lon="151.2900641">
  <ele>345.98</ele>
  <time>2026-09-01T20:03:51Z</time>
  <course>3.43</course>
  <speed>0.46</speed>
  <fix>3d</fix>
</trkpt>
<trkpt lat="-27.2744354" lon="151.2900642">
  <ele>346.33</ele>
  <time>2026-09-01T20:03:51Z</time>
  <course>7.9</course>
  <speed>0.4709564735726646</speed>
  <fix>3d</fix>
</trkpt>
<trkpt lat="-27.274435" lon="151.2900642">
  <ele>346.49</ele>
  <time>2026-09-01T20:03:51Z</time>
  <course>7.93</course>
  <speed>0.4909175083453431</speed>
  <fix>3d</fix>
</trkpt>
<trkpt lat="-27.2744361" lon="151.2900641">
  <ele>345.98</ele>
  <time>2026-09-01T20:03:51Z</time>
  <course>3.43</course>
  <speed>0.46</speed>
  <fix>3d</fix>
</trkpt>
<trkpt lat="-27.2744349" lon="151.2900642">
  <ele>346.53</ele>
  <time>2026-09-01T20:03:51Z</time>
  <course>7.93</course>
  <speed>0.4909175083453431</speed>
  <fix>3d</fix>
</trkpt>
<trkpt lat="-27.2744345" lon="151.2900642">
  <ele>346.65</ele>
  <time>2026-09-01T20:03:51Z</time>
  <course>7.9</course>
  <speed>0.5008991914547277</speed>
  <fix>3d</fix>
</trkpt>
<trkpt lat="-27.2744352" lon="151.2900641">
  <ele>346.33</ele>
  <time>2026-09-01T20:03:51Z</time>
  <course>3.41</course>
  <speed>0.49</speed>
  <fix>3d</fix>
</trkpt>
<trkpt lat="-27.2744344" lon="151.2900642">
  <ele>346.69</ele>
  <time>2026-09-01T20:03:51Z</time>
  <course>7.9</course>
  <speed>0.5008991914547277</speed>
  <fix>3d</fix>
</trkpt>
<trkpt lat="-27.2744341" lon="151.2900642">
  <ele>346.8</ele>
  <time>2026-09-01T20:03:51Z</time>
  <course>7.93</course>
  <speed>0.5108815909777921</speed>
  <fix>3d</fix>
</trkpt>
<trkpt lat="-27.2744352" lon="151.2900641">
  <ele>346.33</ele>
  <time>2026-09-01T20:03:51Z</time>
  <course>3.41</course>
  <speed>0.49</speed>
  <fix>3d</fix>
</trkpt>
<trkpt lat="-27.274434" lon="151.2900643">
  <ele>346.84</ele>
  <time>2026-09-01T20:03:51Z</time>
  <course>7.94</course>
  <speed>0.5108815909777921</speed>
  <fix>3d</fix>
</trkpt>
<trkpt lat="-27.2744336" lon="151.2900643">
  <ele>346.95</ele>
  <time>2026-09-01T20:03:51Z</time>
  <course>7.91</course>
  <speed>0.5208646657242167</speed>
  <fix>3d</fix>
</trkpt>
<trkpt lat="-27.2744343" lon="151.2900642">
  <ele>346.65</ele>
  <time>2026-09-01T20:03:51Z</time>
  <course>3.3</course>
  <speed>0.52</speed>
  <fix>3d</fix>
</trkpt>
<trkpt lat="-27.2744336" lon="151.2900643">
  <ele>346.95</ele>
  <time>2026-09-01T20:03:51Z</time>
  <course>7.9</course>
  <speed>0.5208646657242167</speed>
  <fix>3d</fix>
</trkpt>
<trkpt lat="-27.2744331" lon="151.2900643">
  <ele>347.09</ele>
  <time>2026-09-01T20:03:51Z</time>
  <course>7.93</course>
  <speed>0.5308483775994799</speed>
  <fix>3d</fix>
</trkpt>
<trkpt lat="-27.2744343" lon="151.2900642">
  <ele>346.65</ele>
  <time>2026-09-01T20:03:51Z</time>
  <course>3.3</course>
  <speed>0.52</speed>
  <fix>3d</fix>
</trkpt>
<trkpt lat="-27.2744331" lon="151.2900643">
  <ele>347.09</ele>
  <time>2026-09-01T20:03:51Z</time>
  <course>7.93</course>
  <speed>0.5308483775994799</speed>
  <fix>3d</fix>
</trkpt>
<trkpt lat="-27.2744326" lon="151.2900643">
  <ele>347.22</ele>
  <time>2026-09-01T20:03:51Z</time>
  <course>7.91</course>
  <speed>0.5408326913195984</speed>
  <fix>3d</fix>
</trkpt>
<trkpt lat="-27.2744334" lon="151.2900642">
  <ele>346.94</ele>
  <time>2026-09-01T20:03:51Z</time>
  <course>3.13</course>
  <speed>0.54</speed>
  <fix>3d</fix>
</trkpt>
<trkpt lat="-27.2744326" lon="151.2900643">
  <ele>347.23</ele>
  <time>2026-09-01T20:03:51Z</time>
  <course>7.91</course>
  <speed>0.5408326913195984</speed>
  <fix>3d</fix>
</trkpt>
<trkpt lat="-27.2744321" lon="151.2900643">
  <ele>347.35</ele>
  <time>2026-09-01T20:03:51Z</time>
  <course>7.91</course>
  <speed>0.5503635162326805</speed>
  <fix>3d</fix>
</trkpt>
<trkpt lat="-27.2744334" lon="151.2900642">
  <ele>346.94</ele>
  <time>2026-09-01T20:03:51Z</time>
  <course>3.13</course>
  <speed>0.54</speed>
  <fix>3d</fix>
</trkpt>
<trkpt lat="-27.274432" lon="151.2900643">
  <ele>347.38</ele>
  <time>2026-09-01T20:03:51Z</time>
  <course>7.93</course>
  <speed>0.5503635162326805</speed>
  <fix>3d</fix>
</trkpt>
<trkpt lat="-27.2744316" lon="151.2900643">
  <ele>347.48</ele>
  <time>2026-09-01T20:03:51Z</time>
  <course>7.93</course>
  <speed>0.560357029044876</speed>
  <fix>3d</fix>
</trkpt>
<trkpt lat="-27.2744324" lon="151.2900643">
  <ele>347.21</ele>
  <time>2026-09-01T20:03:51Z</time>
  <course>2.92</course>
  <speed>0.56</speed>
  <fix>3d</fix>
</trkpt>
<trkpt lat="-27.2744315" lon="151.2900643">
  <ele>347.52</ele>
  <time>2026-09-01T20:03:51Z</time>
  <course>7.92</course>
  <speed>0.560357029044876</speed>
  <fix>3d</fix>
</trkpt>
<trkpt lat="-27.2744311" lon="151.2900644">
  <ele>347.61</ele>
  <time>2026-09-01T20:03:51Z</time>
  <course>7.91</course>
  <speed>0.570350769263968</speed>
  <fix>3d</fix>
</trkpt>
<trkpt lat="-27.2744324" lon="151.2900643">
  <ele>347.21</ele>
  <time>2026-09-01T20:03:51Z</time>
  <course>2.92</course>
  <speed>0.56</speed>
  <fix>3d</fix>
</trkpt>
<trkpt lat="-27.2744311" lon="151.2900644">
  <ele>347.61</ele>
  <time>2026-09-01T20:03:51Z</time>
  <course>7.91</course>
  <speed>0.570350769263968</speed>
  <fix>3d</fix>
</trkpt>
<trkpt lat="-27.2744305" lon="151.2900644">
  <ele>347.74</ele>
  <time>2026-09-01T20:03:51Z</time>
  <course>7.94</course>
  <speed>0.5803447251418763</speed>
  <fix>3d</fix>
</trkpt>
<trkpt lat="-27.2744313" lon="151.2900644">
  <ele>347.47</ele>
  <time>2026-09-01T20:03:51Z</time>
  <course>2.7</course>
  <speed>0.58</speed>
  <fix>3d</fix>
</trkpt>
<trkpt lat="-27.2744305" lon="151.2900644">
  <ele>347.74</ele>
  <time>2026-09-01T20:03:51Z</time>
  <course>7.94</course>
  <speed>0.5803447251418763</speed>
  <fix>3d</fix>
</trkpt>
<trkpt lat="-27.27443" lon="151.2900644">
  <ele>347.86</ele>
  <time>2026-09-01T20:03:51Z</time>
  <course>7.9</course>
  <speed>0.5903388857258176</speed>
  <fix>3d</fix>
</trkpt>
<trkpt lat="-27.2744313" lon="151.2900644">
  <ele>347.47</ele>
  <time>2026-09-01T20:03:51Z</time>
  <course>2.7</course>
  <speed>0.58</speed>
  <fix>3d</fix>
</trkpt>
<trkpt lat="-27.2744299" lon="151.2900644">
  <ele>347.9</ele>
  <time>2026-09-01T20:03:51Z</time>
  <course>7.91</course>
  <speed>0.5903388857258176</speed>
  <fix>3d</fix>
</trkpt>
<trkpt lat="-27.2744295" lon="151.2900644">
  <ele>348.0</ele>
  <time>2026-09-01T20:03:51Z</time>
  <course>7.94</course>
  <speed>0.5903388857258176</speed>
  <fix>3d</fix>
</trkpt>
<trkpt lat="-27.2744303" lon="151.2900644">
  <ele>347.72</ele>
  <time>2026-09-01T20:03:51Z</time>
  <course>2.49</course>
  <speed>0.6</speed>
  <fix>3d</fix>
</trkpt>
<trkpt lat="-27.2744293" lon="151.2900644">
  <ele>348.03</ele>
  <time>2026-09-01T20:03:51Z</time>
  <course>7.94</course>
  <speed>0.6003332407921453</speed>
  <fix>3d</fix>
</trkpt>
<trkpt lat="-27.2744289" lon="151.2900645">
  <ele>348.13</ele>
  <time>2026-09-01T20:03:51Z</time>
  <course>7.9</course>
  <speed>0.6003332407921453</speed>
  <fix>3d</fix>
</trkpt>
<trkpt lat="-27.2744303" lon="151.2900644">
  <ele>347.72</ele>
  <time>2026-09-01T20:03:51Z</time>
  <course>2.49</course>
  <speed>0.6</speed>
  <fix>3d</fix>
</trkpt>
<trkpt lat="-27.2744288" lon="151.2900645">
  <ele>348.17</ele>
  <time>2026-09-01T20:03:51Z</time>
  <course>7.9</course>
  <speed>0.6103277807866851</speed>
  <fix>3d</fix>
</trkpt>
<trkpt lat="-27.2744284" lon="151.2900645">
  <ele>348.27</ele>
  <time>2026-09-01T20:03:51Z</time>
  <course>7.93</course>
  <speed>0.6103277807866851</speed>
  <fix>3d</fix>
</trkpt>
<trkpt lat="-27.2744292" lon="151.2900645">
  <ele>347.99</ele>
  <time>2026-09-01T20:03:51Z</time>
  <course>2.29</course>
  <speed>0.61</speed>
  <fix>3d</fix>
</trkpt>
<trkpt lat="-27.2744282" lon="151.2900645">
  <ele>348.3</ele>
  <time>2026-09-01T20:03:51Z</time>
  <course>7.94</course>
  <speed>0.6103277807866851</speed>
  <fix>3d</fix>
</trkpt>
<trkpt lat="-27.2744278" lon="151.2900645">
  <ele>348.41</ele>
  <time>2026-09-01T20:03:51Z</time>
  <course>7.91</course>
  <speed>0.620322496770833</speed>
  <fix>3d</fix>
</trkpt>
<trkpt lat="-27.2744292" lon="151.2900645">
  <ele>347.99</ele>
  <time>2026-09-01T20:03:51Z</time>
  <course>2.29</course>
  <speed>0.61</speed>
  <fix>3d</fix>
</trkpt>
<trkpt lat="-27.2744278" lon="151.2900645">
  <ele>348.41</ele>
  <time>2026-09-01T20:03:51Z</time>
  <course>7.91</course>
  <speed>0.620322496770833</speed>
  <fix>3d</fix>
</trkpt>
<trkpt lat="-27.2744272" lon="151.2900645">
  <ele>348.55</ele>
  <time>2026-09-01T20:03:51Z</time>
  <course>7.92</course>
  <speed>0.630317380372777</speed>
  <fix>3d</fix>
</trkpt>
<trkpt lat="-27.2744281" lon="151.2900645">
  <ele>348.26</ele>
  <time>2026-09-01T20:03:51Z</time>
  <course>2.12</course>
  <speed>0.63</speed>
  <fix>3d</fix>
</trkpt>
<trkpt lat="-27.2744272" lon="151.2900645">
  <ele>348.55</ele>
  <time>2026-09-01T20:03:51Z</time>
  <course>7.92</course>
  <speed>0.630317380372777</speed>
  <fix>3d</fix>
</trkpt>
<trkpt lat="-27.2744266" lon="151.2900645">
  <ele>348.69</ele>
  <time>2026-09-01T20:03:51Z</time>
  <course>7.92</course>
  <speed>0.6403124237432849</speed>
  <fix>3d</fix>
</trkpt>
<trkpt lat="-27.2744281" lon="151.2900645">
  <ele>348.26</ele>
  <time>2026-09-01T20:03:51Z</time>
  <course>2.12</course>
  <speed>0.63</speed>
  <fix>3d</fix>
</trkpt>
<trkpt lat="-27.2744265" lon="151.2900645">
  <ele>348.72</ele>
  <time>2026-09-01T20:03:51Z</time>
  <course>7.91</course>
  <speed>0.6403124237432849</speed>
  <fix>3d</fix>
</trkpt>
<trkpt lat="-27.274426" lon="151.2900646">
  <ele>348.84</ele>
  <time>2026-09-01T20:03:51Z</time>
  <course>7.91</course>
  <speed>0.6503076195155643</speed>
  <fix>3d</fix>
</trkpt>
<trkpt lat="-27.2744269" lon="151.2900646">
  <ele>348.53</ele>
  <time>2026-09-01T20:03:51Z</time>
  <course>1.96</course>
  <speed>0.65</speed>
  <fix>3d</fix>
</trkpt>
<trkpt lat="-27.2744259" lon="151.2900646">
  <ele>348.87</ele>
  <time>2026-09-01T20:03:51Z</time>
  <course>7.92</course>
  <speed>0.6503076195155643</speed>
  <fix>3d</fix>
</trkpt>
<trkpt lat="-27.2744254" lon="151.2900646">
  <ele>348.98</ele>
  <time>2026-09-01T20:03:51Z</time>
  <course>7.94</course>
  <speed>0.660302960768767</speed>
  <fix>3d</fix>
</trkpt>
<trkpt lat="-27.2744269" lon="151.2900646">
  <ele>348.53</ele>
  <time>2026-09-01T20:03:51Z</time>
  <course>1.96</course>
  <speed>0.65</speed>
  <fix>3d</fix>
</trkpt>
<trkpt lat="-27.2744254" lon="151.2900646">
  <ele>348.99</ele>
  <time>2026-09-01T20:03:51Z</time>
  <course>7.94</course>
  <speed>0.660302960768767</speed>
  <fix>3d</fix>
</trkpt>
<trkpt lat="-27.2744248" lon="151.2900646">
  <ele>349.13</ele>
  <time>2026-09-01T20:03:51Z</time>
  <course>7.9</course>
  <speed>0.6702984409947557</speed>
  <fix>3d</fix>
</trkpt>
<trkpt lat="-27.2744257" lon="151.2900646">
  <ele>348.82</ele>
  <time>2026-09-01T20:03:51Z</time>
  <course>1.84</course>
  <speed>0.67</speed>
  <fix>3d</fix>
</trkpt>
<trkpt lat="-27.2744248" lon="151.2900646">
  <ele>349.13</ele>
  <time>2026-09-01T20:03:51Z</time>
  <course>7.9</course>
  <speed>0.6702984409947557</speed>
  <fix>3d</fix>
</trkpt>
<trkpt lat="-27.2744242" lon="151.2900646">
  <ele>349.28</ele>
  <time>2026-09-01T20:03:51Z</time>
  <course>7.94</course>
  <speed>0.680294054067798</speed>
  <fix>3d</fix>
</trkpt>
<trkpt lat="-27.2744257" lon="151.2900646">
  <ele>348.82</ele>
  <time>2026-09-01T20:03:51Z</time>
  <course>1.84</course>
  <speed>0.67</speed>
  <fix>3d</fix>
</trkpt>
<trkpt lat="-27.274424" lon="151.2900646">
  <ele>349.31</ele>
  <time>2026-09-01T20:03:51Z</time>
  <course>7.94</course>
  <speed>0.680294054067798</speed>
  <fix>3d</fix>
</trkpt>
<trkpt lat="-27.2744235" lon="151.2900647">
  <ele>349.42</ele>
  <time>2026-09-01T20:03:51Z</time>
  <course>7.9</course>
  <speed>0.6902897942168927</speed>
  <fix>3d</fix>
</trkpt>
<trkpt lat="-27.2744245" lon="151.2900646">
  <ele>349.12</ele>
  <time>2026-09-01T20:03:51Z</time>
  <course>1.74</course>
  <speed>0.69</speed>
  <fix>3d</fix>
</trkpt>
<trkpt lat="-27.2744234" lon="151.2900647">
  <ele>349.45</ele>
  <time>2026-09-01T20:03:51Z</time>
  <course>7.9</course>
  <speed>0.6902897942168927</speed>
  <fix>3d</fix>
</trkpt>
<trkpt lat="-27.2744229" lon="151.2900647">
  <ele>349.57</ele>
  <time>2026-09-01T20:03:51Z</time>
  <course>7.93</course>
  <speed>0.7002856560004639</speed>
  <fix>3d</fix>
</trkpt>
<trkpt lat="-27.2744245" lon="151.2900646">
  <ele>349.12</ele>
  <time>2026-09-01T20:03:51Z</time>
  <course>1.74</course>
  <speed>0.69</speed>
  <fix>3d</fix>
</trkpt>
<trkpt lat="-27.2744227" lon="151.2900647">
  <ele>349.61</ele>
  <time>2026-09-01T20:03:51Z</time>
  <course>7.94</course>
  <speed>0.7002856560004639</speed>
  <fix>3d</fix>
</trkpt>
<trkpt lat="-27.2744223" lon="151.2900647">
  <ele>349.72</ele>
  <time>2026-09-01T20:03:51Z</time>
  <course>7.91</course>
  <speed>0.7102816342831905</speed>
  <fix>3d</fix>
</trkpt>
<trkpt lat="-27.2744232" lon="151.2900646">
  <ele>349.41</ele>
  <time>2026-09-01T20:03:51Z</time>
  <course>1.66</course>
  <speed>0.71</speed>
  <fix>3d</fix>
</trkpt>
<trkpt lat="-27.2744221" lon="151.2900647">
  <ele>349.75</ele>
  <time>2026-09-01T20:03:51Z</time>
  <course>7.9</course>
  <speed>0.7102816342831905</speed>
  <fix>3d</fix>
</trkpt>
<trkpt lat="-27.2744216" lon="151.2900647">
  <ele>349.87</ele>
  <time>2026-09-01T20:03:51Z</time>
  <course>7.91</course>
  <speed>0.7202777242147643</speed>
  <fix>3d</fix>
</trkpt>
<trkpt lat="-27.2744232" lon="151.2900646">
  <ele>349.41</ele>
  <time>2026-09-01T20:03:51Z</time>
  <course>1.66</course>
  <speed>0.71</speed>
  <fix>3d</fix>
</trkpt>
<trkpt lat="-27.2744214" lon="151.2900647">
  <ele>349.9</ele>
  <time>2026-09-01T20:03:51Z</time>
  <course>7.92</course>
  <speed>0.7202777242147643</speed>
  <fix>3d</fix>
</trkpt>
<trkpt lat="-27.2744209" lon="151.2900647">
  <ele>350.02</ele>
  <time>2026-09-01T20:03:51Z</time>
  <course>7.93</course>
  <speed>0.7302739212103907</speed>
  <fix>3d</fix>
</trkpt>
<trkpt lat="-27.2744219" lon="151.2900647">
  <ele>349.71</ele>
  <time>2026-09-01T20:03:51Z</time>
  <course>1.58</course>
  <speed>0.73</speed>
  <fix>3d</fix>
</trkpt>
<trkpt lat="-27.2744209" lon="151.2900647">
  <ele>350.02</ele>
  <time>2026-09-01T20:03:51Z</time>
  <course>7.93</course>
  <speed>0.7302739212103907</speed>
  <fix>3d</fix>
</trkpt>
<trkpt lat="-27.2744202" lon="151.2900647">
  <ele>350.16</ele>
  <time>2026-09-01T20:03:51Z</time>
  <course>7.9</course>
  <speed>0.7402702209328699</speed>
  <fix>3d</fix>
</trkpt>
<trkpt lat="-27.2744219" lon="151.2900647">
  <ele>349.71</ele>
  <time>2026-09-01T20:03:51Z</time>
  <course>1.58</course>
  <speed>0.73</speed>
  <fix>3d</fix>
</trkpt>
<trkpt lat="-27.2744202" lon="151.2900647">
  <ele>350.17</ele>
  <time>2026-09-01T20:03:51Z</time>
  <course>7.9</course>
  <speed>0.7402702209328699</speed>
  <fix>3d</fix>
</trkpt>
<trkpt lat="-27.2744196" lon="151.2900648">
  <ele>350.31</ele>
  <time>2026-09-01T20:03:51Z</time>
  <course>7.94</course>
  <speed>0.7502666192761077</speed>
  <fix>3d</fix>
</trkpt>
<trkpt lat="-27.2744206" lon="151.2900647">
  <ele>350.0</ele>
  <time>2026-09-01T20:03:51Z</time>
  <course>1.5</course>
  <speed>0.75</speed>
  <fix>3d</fix>
</trkpt>
<trkpt lat="-27.2744194" lon="151.2900648">
  <ele>350.34</ele>
  <time>2026-09-01T20:03:51Z</time>
  <course>7.93</course>
  <speed>0.7502666192761077</speed>
  <fix>3d</fix>
</trkpt>
<trkpt lat="-27.2744189" lon="151.2900648">
  <ele>350.45</ele>
  <time>2026-09-01T20:03:51Z</time>
  <course>7.9</course>
  <speed>0.7602631123499285</speed>
  <fix>3d</fix>
</trkpt>
<trkpt lat="-27.2744206" lon="151.2900647">
  <ele>350.0</ele>
  <time>2026-09-01T20:03:51Z</time>
  <course>1.5</course>
  <speed>0.75</speed>
  <fix>3d</fix>
</trkpt>
<trkpt lat="-27.2744188" lon="151.2900648">
  <ele>350.46</ele>
  <time>2026-09-01T20:03:51Z</time>
  <course>7.9</course>
  <speed>0.7602631123499285</speed>
  <fix>3d</fix>
</trkpt>
<trkpt lat="-27.2744182" lon="151.2900648">
  <ele>350.6</ele>
  <time>2026-09-01T20:03:51Z</time>
  <course>7.94</course>
  <speed>0.7702596964660685</speed>
  <fix>3d</fix>
</trkpt>
<trkpt lat="-27.2744193" lon="151.2900648">
  <ele>350.29</ele>
  <time>2026-09-01T20:03:51Z</time>
  <course>1.41</course>
  <speed>0.76</speed>
  <fix>3d</fix>
</trkpt>
<trkpt lat="-27.2744181" lon="151.2900648">
  <ele>350.6</ele>
  <time>2026-09-01T20:03:51Z</time>
  <course>7.94</course>
  <speed>0.7702596964660685</speed>
  <fix>3d</fix>
</trkpt>
<trkpt lat="-27.2744175" lon="151.2900648">
  <ele>350.74</ele>
  <time>2026-09-01T20:03:51Z</time>
  <course>7.91</course>
  <speed>0.7802563681252463</speed>
  <fix>3d</fix>
</trkpt>
<trkpt lat="-27.2744193" lon="151.2900648">
  <ele>350.29</ele>
  <time>2026-09-01T20:03:51Z</time>
  <course>1.41</course>
  <speed>0.76</speed>
  <fix>3d</fix>
</trkpt>
<trkpt lat="-27.2744173" lon="151.2900648">
  <ele>350.77</ele>
  <time>2026-09-01T20:03:51Z</time>
  <course>7.9</course>
  <speed>0.7802563681252463</speed>
  <fix>3d</fix>
</trkpt>
<trkpt lat="-27.2744167" lon="151.2900648">
  <ele>350.88</ele>
  <time>2026-09-01T20:03:51Z</time>
  <course>7.92</course>
  <speed>0.7902531240052139</speed>
  <fix>3d</fix>
</trkpt>
<trkpt lat="-27.2744178" lon="151.2900649">
  <ele>350.58</ele>
  <time>2026-09-01T20:03:51Z</time>
  <course>1.32</course>
  <speed>0.78</speed>
  <fix>3d</fix>
</trkpt>
<trkpt lat="-27.2744166" lon="151.2900648">
  <ele>350.92</ele>
  <time>2026-09-01T20:03:51Z</time>
  <course>7.93</course>
  <speed>0.7902531240052139</speed>
  <fix>3d</fix>
</trkpt>
<trkpt lat="-27.274416" lon="151.2900649">
  <ele>351.03</ele>
  <time>2026-09-01T20:03:51Z</time>
  <course>7.93</course>
  <speed>0.7902531240052139</speed>
  <fix>3d</fix>
</trkpt>
<trkpt lat="-27.2744178" lon="151.2900649">
  <ele>350.58</ele>
  <time>2026-09-01T20:03:51Z</time>
  <course>1.32</course>
  <speed>0.78</speed>
  <fix>3d</fix>
</trkpt>
<trkpt lat="-27.274416" lon="151.2900649">
  <ele>351.03</ele>
  <time>2026-09-01T20:03:51Z</time>
  <course>7.92</course>
  <speed>0.8002499609497022</speed>
  <fix>3d</fix>
</trkpt>
<trkpt lat="-27.2744153" lon="151.2900649">
  <ele>351.17</ele>
  <time>2026-09-01T20:03:51Z</time>
  <course>7.91</course>
  <speed>0.8002499609497022</speed>
  <fix>3d</fix>
</trkpt>
<trkpt lat="-27.2744164" lon="151.2900649">
  <ele>350.87</ele>
  <time>2026-09-01T20:03:51Z</time>
  <course>1.22</course>
  <speed>0.8</speed>
  <fix>3d</fix>
</trkpt>
<trkpt lat="-27.2744151" lon="151.2900649">
  <ele>351.2</ele>
  <time>2026-09-01T20:03:51Z</time>
  <course>7.92</course>
  <speed>0.8102468759581859</speed>
  <fix>3d</fix>
</trkpt>
<trkpt lat="-27.2744145" lon="151.2900649">
  <ele>351.31</ele>
  <time>2026-09-01T20:03:51Z</time>
  <course>7.94</course>
  <speed>0.8102468759581859</speed>
  <fix>3d</fix>
</trkpt>
<trkpt lat="-27.2744164" lon="151.2900649">
  <ele>350.87</ele>
  <time>2026-09-01T20:03:51Z</time>
  <course>1.22</course>
  <speed>0.8</speed>
  <fix>3d</fix>
</trkpt>
<trkpt lat="-27.2744143" lon="151.2900649">
  <ele>351.35</ele>
  <time>2026-09-01T20:03:51Z</time>
  <course>7.93</course>
  <speed>0.8202438661763951</speed>
  <fix>3d</fix>
</trkpt>
<trkpt lat="-27.2744138" lon="151.2900649">
  <ele>351.45</ele>
  <time>2026-09-01T20:03:51Z</time>
  <course>7.9</course>
  <speed>0.8202438661763951</speed>
  <fix>3d</fix>
</trkpt>
<trkpt lat="-27.2744149" lon="151.2900649">
  <ele>351.15</ele>
  <time>2026-09-01T20:03:51Z</time>
  <course>1.12</course>
  <speed>0.82</speed>
  <fix>3d</fix>
</trkpt>
<trkpt lat="-27.2744136" lon="151.2900649">
  <ele>351.49</ele>
  <time>2026-09-01T20:03:51Z</time>
  <course>7.9</course>
  <speed>0.8202438661763951</speed>
  <fix>3d</fix>
</trkpt>
<trkpt lat="-27.274413" lon="151.2900649">
  <ele>351.59</ele>
  <time>2026-09-01T20:03:51Z</time>
  <course>7.94</course>
  <speed>0.8302409288875127</speed>
  <fix>3d</fix>
</trkpt>
<trkpt lat="-27.2744149" lon="151.2900649">
  <ele>351.15</ele>
  <time>2026-09-01T20:03:51Z</time>
  <course>1.12</course>
  <speed>0.82</speed>
  <fix>3d</fix>
</trkpt>
<trkpt lat="-27.274413" lon="151.2900649">
  <ele>351.6</ele>
  <time>2026-09-01T20:03:51Z</time>
  <course>7.94</course>
  <speed>0.8302409288875127</speed>
  <fix>3d</fix>
</trkpt>
<trkpt lat="-27.2744122" lon="151.290065">
  <ele>351.74</ele>
  <time>2026-09-01T20:03:51Z</time>
  <course>7.91</course>
  <speed>0.8402380615040002</speed>
  <fix>3d</fix>
</trkpt>
<trkpt lat="-27.2744134" lon="151.290065">
  <ele>351.44</ele>
  <time>2026-09-01T20:03:51Z</time>
  <course>1.02</course>
  <speed>0.84</speed>
  <fix>3d</fix>
</trkpt>
<trkpt lat="-27.2744122" lon="151.290065">
  <ele>351.74</ele>
  <time>2026-09-01T20:03:51Z</time>
  <course>7.91</course>
  <speed>0.8402380615040002</speed>
  <fix>3d</fix>
</trkpt>
<trkpt lat="-27.2744115" lon="151.290065">
  <ele>351.88</ele>
  <time>2026-09-01T20:03:51Z</time>
  <course>7.92</course>
  <speed>0.8502352615599991</speed>
  <fix>3d</fix>
</trkpt>
<trkpt lat="-27.2744134" lon="151.290065">
  <ele>351.44</ele>
  <time>2026-09-01T20:03:51Z</time>
  <course>1.02</course>
  <speed>0.84</speed>
  <fix>3d</fix>
</trkpt>
<trkpt lat="-27.2744114" lon="151.290065">
  <ele>351.88</ele>
  <time>2026-09-01T20:03:51Z</time>
  <course>7.93</course>
  <speed>0.8502352615599991</speed>
  <fix>3d</fix>
</trkpt>
<trkpt lat="-27.2744107" lon="151.290065">
  <ele>352.02</ele>
  <time>2026-09-01T20:03:51Z</time>
  <course>7.92</course>
  <speed>0.8602325267042628</speed>
  <fix>3d</fix>
</trkpt>
<trkpt lat="-27.2744119" lon="151.290065">
  <ele>351.72</ele>
  <time>2026-09-01T20:03:51Z</time>
  <course>0.93</course>
  <speed>0.86</speed>
  <fix>3d</fix>
</trkpt>
<trkpt lat="-27.2744106" lon="151.290065">
  <ele>352.02</ele>
  <time>2026-09-01T20:03:51Z</time>
  <course>7.92</course>
  <speed>0.8602325267042628</speed>
  <fix>3d</fix>
</trkpt>
<trkpt lat="-27.2744099" lon="151.290065">
  <ele>352.16</ele>
  <time>2026-09-01T20:03:51Z</time>
  <course>7.91</course>
  <speed>0.8702298546935746</speed>
  <fix>3d</fix>
</trkpt>
<trkpt lat="-27.2744119" lon="151.290065">
  <ele>351.72</ele>
  <time>2026-09-01T20:03:51Z</time>
  <course>0.93</course>
  <speed>0.86</speed>
  <fix>3d</fix>
</trkpt>
<trkpt lat="-27.2744097" lon="151.290065">
  <ele>352.19</ele>
  <time>2026-09-01T20:03:51Z</time>
  <course>7.92</course>
  <speed>0.8702298546935746</speed>
  <fix>3d</fix>
</trkpt>
<trkpt lat="-27.2744091" lon="151.290065">
  <ele>352.3</ele>
  <time>2026-09-01T20:03:51Z</time>
  <course>7.94</course>
  <speed>0.8802272433866155</speed>
  <fix>3d</fix>
</trkpt>
<trkpt lat="-27.2744104" lon="151.290065">
  <ele>352.01</ele>
  <time>2026-09-01T20:03:51Z</time>
  <course>0.85</course>
  <speed>0.87</speed>
  <fix>3d</fix>
</trkpt>
<trkpt lat="-27.2744089" lon="151.290065">
  <ele>352.34</ele>
  <time>2026-09-01T20:03:51Z</time>
  <course>7.93</course>
  <speed>0.8802272433866155</speed>
  <fix>3d</fix>
</trkpt>
<trkpt lat="-27.2744083" lon="151.2900651">
  <ele>352.45</ele>
  <time>2026-09-01T20:03:51Z</time>
  <course>7.91</course>
  <speed>0.8902246907382428</speed>
  <fix>3d</fix>
</trkpt>
<trkpt lat="-27.2744104" lon="151.290065">
  <ele>352.01</ele>
  <time>2026-09-01T20:03:51Z</time>
  <course>0.85</course>
  <speed>0.87</speed>
  <fix>3d</fix>
</trkpt>
<trkpt lat="-27.2744081" lon="151.2900651">
  <ele>352.48</ele>
  <time>2026-09-01T20:03:51Z</time>
  <course>7.91</course>
  <speed>0.8902246907382428</speed>
  <fix>3d</fix>
</trkpt>
<trkpt lat="-27.2744074" lon="151.2900651">
  <ele>352.59</ele>
  <time>2026-09-01T20:03:51Z</time>
  <course>7.94</course>
  <speed>0.8902246907382428</speed>
  <fix>3d</fix>
</trkpt>
<trkpt lat="-27.2744087" lon="151.2900651">
  <ele>352.3</ele>
  <time>2026-09-01T20:03:51Z</time>
  <course>0.77</course>
  <speed>0.89</speed>
  <fix>3d</fix>
</trkpt>
<trkpt lat="-27.2744073" lon="151.2900651">
  <ele>352.62</ele>
  <time>2026-09-01T20:03:51Z</time>
  <course>7.94</course>
  <speed>0.900222194794152</speed>
  <fix>3d</fix>
</trkpt>
<trkpt lat="-27.2744066" lon="151.2900651">
  <ele>352.73</ele>
  <time>2026-09-01T20:03:51Z</time>
  <course>7.9</course>
  <speed>0.900222194794152</speed>
  <fix>3d</fix>
</trkpt>
<trkpt lat="-27.2744087" lon="151.2900651">
  <ele>352.3</ele>
  <time>2026-09-01T20:03:51Z</time>
  <course>0.77</course>
  <speed>0.89</speed>
  <fix>3d</fix>
</trkpt>
<trkpt lat="-27.2744064" lon="151.2900651">
  <ele>352.77</ele>
  <time>2026-09-01T20:03:51Z</time>
  <course>7.9</course>
  <speed>0.9102197536858887</speed>
  <fix>3d</fix>
</trkpt>
<trkpt lat="-27.2744058" lon="151.2900651">
  <ele>352.88</ele>
  <time>2026-09-01T20:03:51Z</time>
  <course>7.93</course>
  <speed>0.9102197536858887</speed>
  <fix>3d</fix>
</trkpt>
<trkpt lat="-27.2744071" lon="151.2900651">
  <ele>352.58</ele>
  <time>2026-09-01T20:03:51Z</time>
  <course>0.68</course>
  <speed>0.91</speed>
  <fix>3d</fix>
</trkpt>
<trkpt lat="-27.2744056" lon="151.2900651">
  <ele>352.91</ele>
  <time>2026-09-01T20:03:51Z</time>
  <course>7.94</course>
  <speed>0.9102197536858887</speed>
  <fix>3d</fix>
</trkpt>
<trkpt lat="-27.2744049" lon="151.2900651">
  <ele>353.02</ele>
  <time>2026-09-01T20:03:51Z</time>
  <course>7.92</course>
  <speed>0.9202173656261873</speed>
  <fix>3d</fix>
</trkpt>
<trkpt lat="-27.2744071" lon="151.2900651">
  <ele>352.58</ele>
  <time>2026-09-01T20:03:51Z</time>
  <course>0.68</course>
  <speed>0.91</speed>
  <fix>3d</fix>
</trkpt>
<trkpt lat="-27.2744049" lon="151.2900651">
  <ele>353.03</ele>
  <time>2026-09-01T20:03:51Z</time>
  <course>7.92</course>
  <speed>0.9202173656261873</speed>
  <fix>3d</fix>
</trkpt>
<trkpt lat="-27.2744041" lon="151.2900651">
  <ele>353.17</ele>
  <time>2026-09-01T20:03:51Z</time>
  <course>7.92</course>
  <speed>0.9302150289046076</speed>
  <fix>3d</fix>
</trkpt>
<trkpt lat="-27.2744054" lon="151.2900651">
  <ele>352.87</ele>
  <time>2026-09-01T20:03:51Z</time>
  <course>0.61</course>
  <speed>0.93</speed>
  <fix>3d</fix>
</trkpt>
<trkpt lat="-27.2744041" lon="151.2900651">
  <ele>353.17</ele>
  <time>2026-09-01T20:03:51Z</time>
  <course>7.92</course>
  <speed>0.9302150289046076</speed>
  <fix>3d</fix>
</trkpt>
<trkpt lat="-27.2744032" lon="151.2900652">
  <ele>353.31</ele>
  <time>2026-09-01T20:03:51Z</time>
  <course>7.93</course>
  <speed>0.9402127418834527</speed>
  <fix>3d</fix>
</trkpt>
<trkpt lat="-27.2744054" lon="151.2900651">
  <ele>352.87</ele>
  <time>2026-09-01T20:03:51Z</time>
  <course>0.61</course>
  <speed>0.93</speed>
  <fix>3d</fix>
</trkpt>
<trkpt lat="-27.2744032" lon="151.2900652">
  <ele>353.32</ele>
  <time>2026-09-01T20:03:51Z</time>
  <course>7.93</course>
  <speed>0.9402127418834527</speed>
  <fix>3d</fix>
</trkpt>
<trkpt lat="-27.2744024" lon="151.2900652">
  <ele>353.46</ele>
  <time>2026-09-01T20:03:51Z</time>
  <course>7.91</course>
  <speed>0.9502105029939419</speed>
  <fix>3d</fix>
</trkpt>
<trkpt lat="-27.2744037" lon="151.2900651">
  <ele>353.16</ele>
  <time>2026-09-01T20:03:51Z</time>
  <course>0.53</course>
  <speed>0.95</speed>
  <fix>3d</fix>
</trkpt>
<trkpt lat="-27.2744023" lon="151.2900652">
  <ele>353.46</ele>
  <time>2026-09-01T20:03:51Z</time>
  <course>7.92</course>
  <speed>0.9502105029939419</speed>
  <fix>3d</fix>
</trkpt>
<trkpt lat="-27.2744015" lon="151.2900652">
  <ele>353.6</ele>
  <time>2026-09-01T20:03:51Z</time>
  <course>7.94</course>
  <speed>0.9602083107326242</speed>
  <fix>3d</fix>
</trkpt>
<trkpt lat="-27.2744037" lon="151.2900651">
  <ele>353.16</ele>
  <time>2026-09-01T20:03:51Z</time>
  <course>0.53</course>
  <speed>0.95</speed>
  <fix>3d</fix>
</trkpt>
<trkpt lat="-27.2744013" lon="151.2900652">
  <ele>353.64</ele>
  <time>2026-09-01T20:03:51Z</time>
  <course>7.93</course>
  <speed>0.9602083107326242</speed>
  <fix>3d</fix>
</trkpt>
<trkpt lat="-27.2744006" lon="151.2900652">
  <ele>353.75</ele>
  <time>2026-09-01T20:03:51Z</time>
  <course>7.91</course>
  <speed>0.9702061636580135</speed>
  <fix>3d</fix>
</trkpt>
<trkpt lat="-27.274402" lon="151.2900651">
  <ele>353.45</ele>
  <time>2026-09-01T20:03:51Z</time>
  <course>0.47</course>
  <speed>0.97</speed>
  <fix>3d</fix>
</trkpt>
<trkpt lat="-27.2744004" lon="151.2900652">
  <ele>353.78</ele>
  <time>2026-09-01T20:03:51Z</time>
  <course>7.92</course>
  <speed>0.9702061636580135</speed>
  <fix>3d</fix>
</trkpt>
<trkpt lat="-27.2743997" lon="151.2900652">
  <ele>353.89</ele>
  <time>2026-09-01T20:03:51Z</time>
  <course>7.94</course>
  <speed>0.9802040603874276</speed>
  <fix>3d</fix>
</trkpt>
<trkpt lat="-27.274402" lon="151.2900651">
  <ele>353.45</ele>
  <time>2026-09-01T20:03:51Z</time>
  <course>0.47</course>
  <speed>0.97</speed>
  <fix>3d</fix>
</trkpt>
<trkpt lat="-27.2743995" lon="151.2900652">
  <ele>353.93</ele>
  <time>2026-09-01T20:03:51Z</time>
  <course>7.94</course>
  <speed>0.9802040603874276</speed>
  <fix>3d</fix>
</trkpt>
<trkpt lat="-27.2743988" lon="151.2900652">
  <ele>354.04</ele>
  <time>2026-09-01T20:03:51Z</time>
  <course>7.91</course>
  <speed>0.9902019995940222</speed>
  <fix>3d</fix>
</trkpt>
<trkpt lat="-27.2744003" lon="151.2900651">
  <ele>353.74</ele>
  <time>2026-09-01T20:03:51Z</time>
  <course>0.41</course>
  <speed>0.99</speed>
  <fix>3d</fix>
</trkpt>
<trkpt lat="-27.2743986" lon="151.2900652">
  <ele>354.07</ele>
  <time>2026-09-01T20:03:51Z</time>
  <course>7.91</course>
  <speed>0.9902019995940222</speed>
  <fix>3d</fix>
</trkpt>
<trkpt lat="-27.2743979" lon="151.2900652">
  <ele>354.19</ele>
  <time>2026-09-01T20:03:51Z</time>
  <course>7.94</course>
  <speed>1.000199980003999</speed>
  <fix>3d</fix>
</trkpt>
<trkpt lat="-27.2744003" lon="151.2900651">
  <ele>353.74</ele>
  <time>2026-09-01T20:03:51Z</time>
  <course>0.41</course>
  <speed>0.99</speed>
  <fix>3d</fix>
</trkpt>
<trkpt lat="-27.2743976" lon="151.2900652">
  <ele>354.23</ele>
  <time>2026-09-01T20:03:51Z</time>
  <course>7.94</course>
  <speed>1.000199980003999</speed>
  <fix>3d</fix>
</trkpt>
<trkpt lat="-27.274397" lon="151.2900652">
  <ele>354.33</ele>
  <time>2026-09-01T20:03:51Z</time>
  <course>7.91</course>
  <speed>1.010198000393982</speed>
  <fix>3d</fix>
</trkpt>
<trkpt lat="-27.2743985" lon="151.2900651">
  <ele>354.02</ele>
  <time>2026-09-01T20:03:51Z</time>
  <course>0.35</course>
  <speed>1.01</speed>
  <fix>3d</fix>
</trkpt>
<trkpt lat="-27.2743968" lon="151.2900652">
  <ele>354.37</ele>
  <time>2026-09-01T20:03:51Z</time>
  <course>7.91</course>
  <speed>1.010198000393982</speed>
  <fix>3d</fix>
</trkpt>
<trkpt lat="-27.274396" lon="151.2900652">
  <ele>354.48</ele>
  <time>2026-09-01T20:03:51Z</time>
  <course>7.92</course>
  <speed>1.010198000393982</speed>
  <fix>3d</fix>
</trkpt>
<trkpt lat="-27.2743985" lon="151.2900651">
  <ele>354.02</ele>
  <time>2026-09-01T20:03:51Z</time>
  <course>0.35</course>
  <speed>1.01</speed>
  <fix>3d</fix>
</trkpt>
<trkpt lat="-27.2743958" lon="151.2900652">
  <ele>354.52</ele>
  <time>2026-09-01T20:03:51Z</time>
  <course>7.94</course>
  <speed>1.020196059588548</speed>
  <fix>3d</fix>
</trkpt>
<trkpt lat="-27.2743951" lon="151.2900652">
  <ele>354.63</ele>
  <time>2026-09-01T20:03:51Z</time>
  <course>7.93</course>
  <speed>1.020196059588548</speed>
  <fix>3d</fix>
</trkpt>
<trkpt lat="-27.2743966" lon="151.2900651">
  <ele>354.31</ele>
  <time>2026-09-01T20:03:51Z</time>
  <course>0.29</course>
  <speed>1.03</speed>
  <fix>3d</fix>
</trkpt>
<trkpt lat="-27.2743949" lon="151.2900652">
  <ele>354.67</ele>
  <time>2026-09-01T20:03:51Z</time>
  <course>7.91</course>
  <speed>1.030194156457898</speed>
  <fix>3d</fix>
</trkpt>
<trkpt lat="-27.2743942" lon="151.2900652">
  <ele>354.77</ele>
  <time>2026-09-01T20:03:52Z</time>
  <course>7.91</course>
  <speed>1.030194156457898</speed>
  <fix>3d</fix>
</trkpt>
<trkpt lat="-27.2743966" lon="151.2900651">
  <ele>354.31</ele>
  <time>2026-09-01T20:03:52Z</time>
  <course>0.29</course>
  <speed>1.03</speed>
  <fix>3d</fix>
</trkpt>
<trkpt lat="-27.2743941" lon="151.2900652">
  <ele>354.78</ele>
  <time>2026-09-01T20:03:52Z</time>
  <course>7.91</course>
  <speed>1.030194156457898</speed>
  <fix>3d</fix>
</trkpt>
<trkpt lat="-27.2743932" lon="151.2900652">
  <ele>354.92</ele>
  <time>2026-09-01T20:03:52Z</time>
  <course>7.95</course>
  <speed>1.0401922899156675</speed>
  <fix>3d</fix>
</trkpt>
<trkpt lat="-27.2743948" lon="151.2900651">
  <ele>354.59</ele>
  <time>2026-09-01T20:03:52Z</time>
  <course>0.24</course>
  <speed>1.05</speed>
  <fix>3d</fix>
</trkpt>
<trkpt lat="-27.2743932" lon="151.2900652">
  <ele>354.92</ele>
  <time>2026-09-01T20:03:52Z</time>
  <course>7.94</course>
  <speed>1.0401922899156675</speed>
  <fix>3d</fix>
</trkpt>
<trkpt lat="-27.2743923" lon="151.2900652">
  <ele>355.06</ele>
  <time>2026-09-01T20:03:52Z</time>
  <course>7.91</course>
  <speed>1.0501904589168576</speed>
  <fix>3d</fix>
</trkpt>
<trkpt lat="-27.2743948" lon="151.2900651">
  <ele>354.59</ele>
  <time>2026-09-01T20:03:52Z</time>
  <course>0.24</course>
  <speed>1.05</speed>
  <fix>3d</fix>
</trkpt>
<trkpt lat="-27.2743922" lon="151.2900652">
  <ele>355.06</ele>
  <time>2026-09-01T20:03:52Z</time>
  <course>7.9</course>
  <speed>1.0501904589168576</speed>
  <fix>3d</fix>
</trkpt>
<trkpt lat="-27.2743913" lon="151.2900652">
  <ele>355.2</ele>
  <time>2026-09-01T20:03:52Z</time>
  <course>7.94</course>
  <speed>1.0601886624558856</speed>
  <fix>3d</fix>
</trkpt>
<trkpt lat="-27.2743929" lon="151.2900651">
  <ele>354.88</ele>
  <time>2026-09-01T20:03:52Z</time>
  <course>0.19</course>
  <speed>1.07</speed>
  <fix>3d</fix>
</trkpt>
<trkpt lat="-27.2743911" lon="151.2900652">
  <ele>355.23</ele>
  <time>2026-09-01T20:03:52Z</time>
  <course>7.94</course>
  <speed>1.0601886624558856</speed>
  <fix>3d</fix>
</trkpt>
<trkpt lat="-27.2743903" lon="151.2900652">
  <ele>355.34</ele>
  <time>2026-09-01T20:03:52Z</time>
  <course>7.91</course>
  <speed>1.070186899564744</speed>
  <fix>3d</fix>
</trkpt>
<trkpt lat="-27.2743929" lon="151.2900651">
  <ele>354.88</ele>
  <time>2026-09-01T20:03:52Z</time>
  <course>0.19</course>
  <speed>1.07</speed>
  <fix>3d</fix>
</trkpt>
<trkpt lat="-27.2743901" lon="151.2900652">
  <ele>355.38</ele>
  <time>2026-09-01T20:03:52Z</time>
  <course>7.91</course>
  <speed>1.070186899564744</speed>
  <fix>3d</fix>
</trkpt>
<trkpt lat="-27.2743893" lon="151.2900652">
  <ele>355.48</ele>
  <time>2026-09-01T20:03:52Z</time>
  <course>7.91</course>
  <speed>1.080185169311262</speed>
  <fix>3d</fix>
</trkpt>
<trkpt lat="-27.2743909" lon="151.2900651">
  <ele>355.16</ele>
  <time>2026-09-01T20:03:52Z</time>
  <course>0.15</course>
  <speed>1.09</speed>
  <fix>3d</fix>
</trkpt>
<trkpt lat="-27.2743891" lon="151.2900652">
  <ele>355.52</ele>
  <time>2026-09-01T20:03:52Z</time>
  <course>7.93</course>
  <speed>1.080185169311262</speed>
  <fix>3d</fix>
</trkpt>
<trkpt lat="-27.2743883" lon="151.2900653">
  <ele>355.62</ele>
  <time>2026-09-01T20:03:52Z</time>
  <course>7.94</course>
  <speed>1.0901834707974616</speed>
  <fix>3d</fix>
</trkpt>
<trkpt lat="-27.2743909" lon="151.2900651">
  <ele>355.16</ele>
  <time>2026-09-01T20:03:52Z</time>
  <course>0.15</course>
  <speed>1.09</speed>
  <fix>3d</fix>
</trkpt>
<trkpt lat="-27.2743881" lon="151.2900653">
  <ele>355.66</ele>
  <time>2026-09-01T20:03:52Z</time>
  <course>7.92</course>
  <speed>1.0901834707974616</speed>
  <fix>3d</fix>
</trkpt>
<trkpt lat="-27.2743873" lon="151.2900652">
  <ele>355.76</ele>
  <time>2026-09-01T20:03:52Z</time>
  <course>7.91</course>
  <speed>1.1001818031580053</speed>
  <fix>3d</fix>
</trkpt>
<trkpt lat="-27.274389" lon="151.2900651">
  <ele>355.45</ele>
  <time>2026-09-01T20:03:52Z</time>
  <course>0.12</course>
  <speed>1.11</speed>
  <fix>3d</fix>
</trkpt>
<trkpt lat="-27.2743871" lon="151.2900652">
  <ele>355.8</ele>
  <time>2026-09-01T20:03:52Z</time>
  <course>7.91</course>
  <speed>1.1001818031580053</speed>
  <fix>3d</fix>
</trkpt>
<trkpt lat="-27.2743863" lon="151.2900653">
  <ele>355.91</ele>
  <time>2026-09-01T20:03:52Z</time>
  <course>7.94</course>
  <speed>1.110180165558726</speed>
  <fix>3d</fix>
</trkpt>
<trkpt lat="-27.274389" lon="151.2900651">
  <ele>355.45</ele>
  <time>2026-09-01T20:03:52Z</time>
  <course>0.12</course>
  <speed>1.11</speed>
  <fix>3d</fix>
</trkpt>
<trkpt lat="-27.2743861" lon="151.2900653">
  <ele>355.95</ele>
  <time>2026-09-01T20:03:52Z</time>
  <course>7.94</course>
  <speed>1.110180165558726</speed>
  <fix>3d</fix>
</trkpt>
<trkpt lat="-27.2743853" lon="151.2900652">
  <ele>356.05</ele>
  <time>2026-09-01T20:03:52Z</time>
  <course>7.91</course>
  <speed>1.1201785571952356</speed>
  <fix>3d</fix>
</trkpt>
<trkpt lat="-27.2743869" lon="151.2900651">
  <ele>355.74</ele>
  <time>2026-09-01T20:03:52Z</time>
  <course>0.11</course>
  <speed>1.13</speed>
  <fix>3d</fix>
</trkpt>
<trkpt lat="-27.274385" lon="151.2900652">
  <ele>356.09</ele>
  <time>2026-09-01T20:03:52Z</time>
  <course>7.91</course>
  <speed>1.1201785571952356</speed>
  <fix>3d</fix>
</trkpt>
<trkpt lat="-27.2743843" lon="151.2900652">
  <ele>356.19</ele>
  <time>2026-09-01T20:03:52Z</time>
  <course>7.94</course>
  <speed>1.13017697729161</speed>
  <fix>3d</fix>
</trkpt>
<trkpt lat="-27.2743869" lon="151.2900651">
  <ele>355.74</ele>
  <time>2026-09-01T20:03:52Z</time>
  <course>0.11</course>
  <speed>1.13</speed>
  <fix>3d</fix>
</trkpt>
<trkpt lat="-27.2743842" lon="151.2900653">
  <ele>356.2</ele>
  <time>2026-09-01T20:03:52Z</time>
  <course>7.94</course>
  <speed>1.13017697729161</speed>
  <fix>3d</fix>
</trkpt>
<trkpt lat="-27.2743832" lon="151.2900652">
  <ele>356.34</ele>
  <time>2026-09-01T20:03:52Z</time>
  <course>7.92</course>
  <speed>1.140175425099138</speed>
  <fix>3d</fix>
</trkpt>
<trkpt lat="-27.2743849" lon="151.2900651">
  <ele>356.02</ele>
  <time>2026-09-01T20:03:52Z</time>
  <course>0.09</course>
  <speed>1.15</speed>
  <fix>3d</fix>
</trkpt>
<trkpt lat="-27.2743832" lon="151.2900652">
  <ele>356.34</ele>
  <time>2026-09-01T20:03:52Z</time>
  <course>7.91</course>
  <speed>1.140175425099138</speed>
  <fix>3d</fix>
</trkpt>
<trkpt lat="-27.2743822" lon="151.2900652">
  <ele>356.48</ele>
  <time>2026-09-01T20:03:52Z</time>
  <course>7.92</course>
  <speed>1.150173899895142</speed>
  <fix>3d</fix>
</trkpt>
<trkpt lat="-27.2743849" lon="151.2900651">
  <ele>356.02</ele>
  <time>2026-09-01T20:03:52Z</time>
  <course>0.09</course>
  <speed>1.15</speed>
  <fix>3d</fix>
</trkpt>
<trkpt lat="-27.2743822" lon="151.2900652">
  <ele>356.49</ele>
  <time>2026-09-01T20:03:52Z</time>
  <course>7.92</course>
  <speed>1.150173899895142</speed>
  <fix>3d</fix>
</trkpt>
<trkpt lat="-27.2743811" lon="151.2900652">
  <ele>356.63</ele>
  <time>2026-09-01T20:03:52Z</time>
  <course>7.93</course>
  <speed>1.1601724009818541</speed>
  <fix>3d</fix>
</trkpt>
<trkpt lat="-27.2743828" lon="151.2900651">
  <ele>356.3</ele>
  <time>2026-09-01T20:03:52Z</time>
  <course>0.08</course>
  <speed>1.17</speed>
  <fix>3d</fix>
</trkpt>
<trkpt lat="-27.2743809" lon="151.2900652">
  <ele>356.66</ele>
  <time>2026-09-01T20:03:52Z</time>
  <course>7.92</course>
  <speed>1.1601724009818541</speed>
  <fix>3d</fix>
</trkpt>
<trkpt lat="-27.2743801" lon="151.2900652">
  <ele>356.77</ele>
  <time>2026-09-01T20:03:52Z</time>
  <course>7.91</course>
  <speed>1.1701709276853531</speed>
  <fix>3d</fix>
</trkpt>
<trkpt lat="-27.2743828" lon="151.2900651">
  <ele>356.3</ele>
  <time>2026-09-01T20:03:52Z</time>
  <course>0.08</course>
  <speed>1.17</speed>
  <fix>3d</fix>
</trkpt>
<trkpt lat="-27.2743798" lon="151.2900652">
  <ele>356.81</ele>
  <time>2026-09-01T20:03:52Z</time>
  <course>7.91</course>
  <speed>1.1701709276853531</speed>
  <fix>3d</fix>
</trkpt>
<trkpt lat="-27.274379" lon="151.2900652">
  <ele>356.92</ele>
  <time>2026-09-01T20:03:52Z</time>
  <course>7.94</course>
  <speed>1.1801694793545543</speed>
  <fix>3d</fix>
</trkpt>
<trkpt lat="-27.2743807" lon="151.2900651">
  <ele>356.58</ele>
  <time>2026-09-01T20:03:52Z</time>
  <course>0.07</course>
  <speed>1.19</speed>
  <fix>3d</fix>
</trkpt>
<trkpt lat="-27.2743787" lon="151.2900652">
  <ele>356.95</ele>
  <time>2026-09-01T20:03:52Z</time>
  <course>7.93</course>
  <speed>1.1801694793545543</speed>
  <fix>3d</fix>
</trkpt>
<trkpt lat="-27.2743779" lon="151.2900652">
  <ele>357.06</ele>
  <time>2026-09-01T20:03:52Z</time>
  <course>7.9</course>
  <speed>1.1901680553602503</speed>
  <fix>3d</fix>
</trkpt>
<trkpt lat="-27.2743807" lon="151.2900651">
  <ele>356.58</ele>
  <time>2026-09-01T20:03:52Z</time>
  <course>0.07</course>
  <speed>1.19</speed>
  <fix>3d</fix>
</trkpt>
<trkpt lat="-27.2743776" lon="151.2900652">
  <ele>357.1</ele>
  <time>2026-09-01T20:03:52Z</time>
  <course>7.91</course>
  <speed>1.1901680553602503</speed>
  <fix>3d</fix>
</trkpt>
<trkpt lat="-27.2743768" lon="151.2900652">
  <ele>357.21</ele>
  <time>2026-09-01T20:03:52Z</time>
  <course>7.94</course>
  <speed>1.2001666550941998</speed>
  <fix>3d</fix>
</trkpt>
<trkpt lat="-27.2743785" lon="151.2900651">
  <ele>356.87</ele>
  <time>2026-09-01T20:03:52Z</time>
  <course>0.07</course>
  <speed>1.21</speed>
  <fix>3d</fix>
</trkpt>
<trkpt lat="-27.2743765" lon="151.2900652">
  <ele>357.25</ele>
  <time>2026-09-01T20:03:52Z</time>
  <course>7.94</course>
  <speed>1.2001666550941998</speed>
  <fix>3d</fix>
</trkpt>
<trkpt lat="-27.2743756" lon="151.2900652">
  <ele>357.35</ele>
  <time>2026-09-01T20:03:52Z</time>
  <course>7.91</course>
  <speed>1.2101652779682617</speed>
  <fix>3d</fix>
</trkpt>
<trkpt lat="-27.2743785" lon="151.2900651">
  <ele>356.87</ele>
  <time>2026-09-01T20:03:52Z</time>
  <course>0.07</course>
  <speed>1.21</speed>
  <fix>3d</fix>
</trkpt>
<trkpt lat="-27.2743754" lon="151.2900652">
  <ele>357.38</ele>
  <time>2026-09-01T20:03:52Z</time>
  <course>7.9</course>
  <speed>1.2101652779682617</speed>
  <fix>3d</fix>
</trkpt>
<trkpt lat="-27.2743745" lon="151.2900652">
  <ele>357.49</ele>
  <time>2026-09-01T20:03:52Z</time>
  <course>7.92</course>
  <speed>1.2201639234135715</speed>
  <fix>3d</fix>
</trkpt>
<trkpt lat="-27.2743763" lon="151.2900651">
  <ele>357.15</ele>
  <time>2026-09-01T20:03:52Z</time>
  <course>0.07</course>
  <speed>1.23</speed>
  <fix>3d</fix>
</trkpt>
<trkpt lat="-27.2743741" lon="151.2900652">
  <ele>357.54</ele>
  <time>2026-09-01T20:03:52Z</time>
  <course>7.94</course>
  <speed>1.2201639234135715</speed>
  <fix>3d</fix>
</trkpt>
<trkpt lat="-27.2743734" lon="151.2900652">
  <ele>357.64</ele>
  <time>2026-09-01T20:03:52Z</time>
  <course>7.92</course>
  <speed>1.2301625908797584</speed>
  <fix>3d</fix>
</trkpt>
<trkpt lat="-27.2743763" lon="151.2900651">
  <ele>357.15</ele>
  <time>2026-09-01T20:03:52Z</time>
  <course>0.07</course>
  <speed>1.23</speed>
  <fix>3d</fix>
</trkpt>
<trkpt lat="-27.2743734" lon="151.2900652">
  <ele>357.64</ele>
  <time>2026-09-01T20:03:52Z</time>
  <course>7.92</course>
  <speed>1.2301625908797584</speed>
  <fix>3d</fix>
</trkpt>
<trkpt lat="-27.2743723" lon="151.2900652">
  <ele>357.78</ele>
  <time>2026-09-01T20:03:52Z</time>
  <course>7.91</course>
  <speed>1.2401612798341997</speed>
  <fix>3d</fix>
</trkpt>
<trkpt lat="-27.274374" lon="151.2900651">
  <ele>357.44</ele>
  <time>2026-09-01T20:03:52Z</time>
  <course>0.08</course>
  <speed>1.25</speed>
  <fix>3d</fix>
</trkpt>
<trkpt lat="-27.2743722" lon="151.2900652">
  <ele>357.78</ele>
  <time>2026-09-01T20:03:52Z</time>
  <course>7.91</course>
  <speed>1.2401612798341997</speed>
  <fix>3d</fix>
</trkpt>
<trkpt lat="-27.2743711" lon="151.2900652">
  <ele>357.92</ele>
  <time>2026-09-01T20:03:52Z</time>
  <course>7.93</course>
  <speed>1.2501599897613105</speed>
  <fix>3d</fix>
</trkpt>
<trkpt lat="-27.274374" lon="151.2900651">
  <ele>357.44</ele>
  <time>2026-09-01T20:03:52Z</time>
  <course>0.08</course>
  <speed>1.25</speed>
  <fix>3d</fix>
</trkpt>
<trkpt lat="-27.2743711" lon="151.2900652">
  <ele>357.93</ele>
  <time>2026-09-01T20:03:52Z</time>
  <course>7.93</course>
  <speed>1.2501599897613105</speed>
  <fix>3d</fix>
</trkpt>
<trkpt lat="-27.2743699" lon="151.2900653">
  <ele>358.06</ele>
  <time>2026-09-01T20:03:52Z</time>
  <course>7.9</course>
  <speed>1.2601587201618691</speed>
  <fix>3d</fix>
</trkpt>
<trkpt lat="-27.2743718" lon="151.2900652">
  <ele>357.72</ele>
  <time>2026-09-01T20:03:52Z</time>
  <course>0.09</course>
  <speed>1.27</speed>
  <fix>3d</fix>
</trkpt>
<trkpt lat="-27.2743696" lon="151.2900653">
  <ele>358.1</ele>
  <time>2026-09-01T20:03:52Z</time>
  <course>7.91</course>
  <speed>1.2701574705523722</speed>
  <fix>3d</fix>
</trkpt>
<trkpt lat="-27.2743688" lon="151.2900653">
  <ele>358.2</ele>
  <time>2026-09-01T20:03:52Z</time>
  <course>7.94</course>
  <speed>1.2701574705523722</speed>
  <fix>3d</fix>
</trkpt>
<trkpt lat="-27.2743718" lon="151.2900652">
  <ele>357.72</ele>
  <time>2026-09-01T20:03:52Z</time>
  <course>0.09</course>
  <speed>1.27</speed>
  <fix>3d</fix>
</trkpt>
<trkpt lat="-27.2743684" lon="151.2900653">
  <ele>358.25</ele>
  <time>2026-09-01T20:03:52Z</time>
  <course>7.93</course>
  <speed>1.2801562404644207</speed>
  <fix>3d</fix>
</trkpt>
<trkpt lat="-27.2743676" lon="151.2900653">
  <ele>358.34</ele>
  <time>2026-09-01T20:03:52Z</time>
  <course>7.9</course>
  <speed>1.2801562404644207</speed>
  <fix>3d</fix>
</trkpt>
<trkpt lat="-27.2743695" lon="151.2900652">
  <ele>358.01</ele>
  <time>2026-09-01T20:03:52Z</time>
  <course>0.11</course>
  <speed>1.3</speed>
  <fix>3d</fix>
</trkpt>
<trkpt lat="-27.2743673" lon="151.2900653">
  <ele>358.38</ele>
  <time>2026-09-01T20:03:52Z</time>
  <course>7.9</course>
  <speed>1.2901550294441362</speed>
  <fix>3d</fix>
</trkpt>
<trkpt lat="-27.2743664" lon="151.2900653">
  <ele>358.48</ele>
  <time>2026-09-01T20:03:52Z</time>
  <course>7.93</course>
  <speed>1.3001538370516004</speed>
  <fix>3d</fix>
</trkpt>
<trkpt lat="-27.2743695" lon="151.2900652">
  <ele>358.01</ele>
  <time>2026-09-01T20:03:52Z</time>
  <course>0.11</course>
  <speed>1.3</speed>
  <fix>3d</fix>
</trkpt>
<trkpt lat="-27.2743661" lon="151.2900653">
  <ele>358.52</ele>
  <time>2026-09-01T20:03:52Z</time>
  <course>7.94</course>
  <speed>1.3001538370516004</speed>
  <fix>3d</fix>
</trkpt>
<trkpt lat="-27.2743652" lon="151.2900653">
  <ele>358.63</ele>
  <time>2026-09-01T20:03:52Z</time>
  <course>7.91</course>
  <speed>1.3101526628603246</speed>
  <fix>3d</fix>
</trkpt>
<trkpt lat="-27.2743671" lon="151.2900652">
  <ele>358.29</ele>
  <time>2026-09-01T20:03:52Z</time>
  <course>0.14</course>
  <speed>1.32</speed>
  <fix>3d</fix>
</trkpt>
<trkpt lat="-27.2743649" lon="151.2900653">
  <ele>358.66</ele>
  <time>2026-09-01T20:03:52Z</time>
  <course>7.9</course>
  <speed>1.3101526628603246</speed>
  <fix>3d</fix>
</trkpt>
<trkpt lat="-27.274364" lon="151.2900653">
  <ele>358.77</ele>
  <time>2026-09-01T20:03:52Z</time>
  <course>7.91</course>
  <speed>1.32015150645674</speed>
  <fix>3d</fix>
</trkpt>
<trkpt lat="-27.2743671" lon="151.2900652">
  <ele>358.29</ele>
  <time>2026-09-01T20:03:52Z</time>
  <course>0.14</course>
  <speed>1.32</speed>
  <fix>3d</fix>
</trkpt>
<trkpt lat="-27.2743637" lon="151.2900653">
  <ele>358.81</ele>
  <time>2026-09-01T20:03:52Z</time>
  <course>7.92</course>
  <speed>1.32015150645674</speed>
  <fix>3d</fix>
</trkpt>
<trkpt lat="-27.2743628" lon="151.2900653">
  <ele>358.91</ele>
  <time>2026-09-01T20:03:52Z</time>
  <course>7.93</course>
  <speed>1.3301503674397117</speed>
  <fix>3d</fix>
</trkpt>
<trkpt lat="-27.2743647" lon="151.2900652">
  <ele>358.58</ele>
  <time>2026-09-01T20:03:52Z</time>
  <course>0.17</course>
  <speed>1.34</speed>
  <fix>3d</fix>
</trkpt>
<trkpt lat="-27.2743628" lon="151.2900653">
  <ele>358.91</ele>
  <time>2026-09-01T20:03:52Z</time>
  <course>7.92</course>
  <speed>1.3301503674397117</speed>
  <fix>3d</fix>
</trkpt>
<trkpt lat="-27.2743616" lon="151.2900653">
  <ele>359.05</ele>
  <time>2026-09-01T20:03:52Z</time>
  <course>7.9</course>
  <speed>1.3401492454200763</speed>
  <fix>3d</fix>
</trkpt>
<trkpt lat="-27.2743647" lon="151.2900652">
  <ele>358.58</ele>
  <time>2026-09-01T20:03:52Z</time>
  <course>0.17</course>
  <speed>1.34</speed>
  <fix>3d</fix>
</trkpt>
<trkpt lat="-27.2743615" lon="151.2900653">
  <ele>359.05</ele>
  <time>2026-09-01T20:03:52Z</time>
  <course>7.9</course>
  <speed>1.3401492454200763</speed>
  <fix>3d</fix>
</trkpt>
<trkpt lat="-27.2743603" lon="151.2900653">
  <ele>359.19</ele>
  <time>2026-09-01T20:03:52Z</time>
  <course>7.93</course>
  <speed>1.350148140020198</speed>
  <fix>3d</fix>
</trkpt>
<trkpt lat="-27.2743623" lon="151.2900652">
  <ele>358.86</ele>
  <time>2026-09-01T20:03:52Z</time>
  <course>0.2</course>
  <speed>1.36</speed>
  <fix>3d</fix>
</trkpt>
<trkpt lat="-27.2743603" lon="151.2900653">
  <ele>359.2</ele>
  <time>2026-09-01T20:03:52Z</time>
  <course>7.93</course>
  <speed>1.350148140020198</speed>
  <fix>3d</fix>
</trkpt>
<trkpt lat="-27.2743591" lon="151.2900653">
  <ele>359.33</ele>
  <time>2026-09-01T20:03:52Z</time>
  <course>7.9</course>
  <speed>1.3601470508735443</speed>
  <fix>3d</fix>
</trkpt>
<trkpt lat="-27.2743623" lon="151.2900652">
  <ele>358.86</ele>
  <time>2026-09-01T20:03:52Z</time>
  <course>0.2</course>
  <speed>1.36</speed>
  <fix>3d</fix>
</trkpt>
<trkpt lat="-27.2743591" lon="151.2900653">
  <ele>359.34</ele>
  <time>2026-09-01T20:03:52Z</time>
  <course>7.9</course>
  <speed>1.3601470508735443</speed>
  <fix>3d</fix>
</trkpt>
<trkpt lat="-27.2743578" lon="151.2900653">
  <ele>359.48</ele>
  <time>2026-09-01T20:03:52Z</time>
  <course>7.92</course>
  <speed>1.3801449199268894</speed>
  <fix>3d</fix>
</trkpt>
<trkpt lat="-27.2743598" lon="151.2900652">
  <ele>359.15</ele>
  <time>2026-09-01T20:03:52Z</time>
  <course>0.24</course>
  <speed>1.39</speed>
  <fix>3d</fix>
</trkpt>
<trkpt lat="-27.2743578" lon="151.2900653">
  <ele>359.48</ele>
  <time>2026-09-01T20:03:52Z</time>
  <course>7.92</course>
  <speed>1.3801449199268894</speed>
  <fix>3d</fix>
</trkpt>
<trkpt lat="-27.2743566" lon="151.2900653">
  <ele>359.62</ele>
  <time>2026-09-01T20:03:52Z</time>
  <course>7.91</course>
  <speed>1.3901438774457844</speed>
  <fix>3d</fix>
</trkpt>
<trkpt lat="-27.2743598" lon="151.2900652">
  <ele>359.15</ele>
  <time>2026-09-01T20:03:52Z</time>
  <course>0.24</course>
  <speed>1.39</speed>
  <fix>3d</fix>
</trkpt>
<trkpt lat="-27.2743562" lon="151.2900653">
  <ele>359.66</ele>
  <time>2026-09-01T20:03:52Z</time>
  <course>7.9</course>
  <speed>1.3901438774457844</speed>
  <fix>3d</fix>
</trkpt>
<trkpt lat="-27.2743553" lon="151.2900654">
  <ele>359.77</ele>
  <time>2026-09-01T20:03:52Z</time>
  <course>7.9</course>
  <speed>1.400142849854971</speed>
  <fix>3d</fix>
</trkpt>
<trkpt lat="-27.2743573" lon="151.2900652">
  <ele>359.44</ele>
  <time>2026-09-01T20:03:52Z</time>
  <course>0.29</course>
  <speed>1.41</speed>
  <fix>3d</fix>
</trkpt>
<trkpt lat="-27.274355" lon="151.2900654">
  <ele>359.8</ele>
  <time>2026-09-01T20:03:52Z</time>
  <course>7.91</course>
  <speed>1.400142849854971</speed>
  <fix>3d</fix>
</trkpt>
<trkpt lat="-27.274354" lon="151.2900654">
  <ele>359.91</ele>
  <time>2026-09-01T20:03:52Z</time>
  <course>7.93</course>
  <speed>1.410319112825179</speed>
  <fix>3d</fix>
</trkpt>
<trkpt lat="-27.2743573" lon="151.2900652">
  <ele>359.44</ele>
  <time>2026-09-01T20:03:52Z</time>
  <course>0.29</course>
  <speed>1.41</speed>
  <fix>3d</fix>
</trkpt>
<trkpt lat="-27.2743536" lon="151.2900654">
  <ele>359.96</ele>
  <time>2026-09-01T20:03:52Z</time>
  <course>7.91</course>
  <speed>1.410319112825179</speed>
  <fix>3d</fix>
</trkpt>
<trkpt lat="-27.2743527" lon="151.2900654">
  <ele>360.06</ele>
  <time>2026-09-01T20:03:52Z</time>
  <course>7.9</course>
  <speed>1.4203168660548955</speed>
  <fix>3d</fix>
</trkpt>
<trkpt lat="-27.2743546" lon="151.2900652">
  <ele>359.72</ele>
  <time>2026-09-01T20:03:52Z</time>
  <course>0.34</course>
  <speed>1.43</speed>
  <fix>3d</fix>
</trkpt>
<trkpt lat="-27.2743523" lon="151.2900654">
  <ele>360.1</ele>
  <time>2026-09-01T20:03:52Z</time>
  <course>7.9</course>
  <speed>1.430314650697531</speed>
  <fix>3d</fix>
</trkpt>
<trkpt lat="-27.2743513" lon="151.2900654">
  <ele>360.21</ele>
  <time>2026-09-01T20:03:52Z</time>
  <course>7.93</course>
  <speed>1.4403124660989366</speed>
  <fix>3d</fix>
</trkpt>
<trkpt lat="-27.2743546" lon="151.2900652">
  <ele>359.72</ele>
  <time>2026-09-01T20:03:52Z</time>
  <course>0.34</course>
  <speed>1.43</speed>
  <fix>3d</fix>
</trkpt>
<trkpt lat="-27.274351" lon="151.2900654">
  <ele>360.25</ele>
  <time>2026-09-01T20:03:52Z</time>
  <course>7.92</course>
  <speed>1.4403124660989366</speed>
  <fix>3d</fix>
</trkpt>
<trkpt lat="-27.27435" lon="151.2900654">
  <ele>360.35</ele>
  <time>2026-09-01T20:03:52Z</time>
  <course>7.89</course>
  <speed>1.4503103116229987</speed>
  <fix>3d</fix>
</trkpt>
<trkpt lat="-27.2743521" lon="151.2900652">
  <ele>360.01</ele>
  <time>2026-09-01T20:03:52Z</time>
  <course>0.4</course>
  <speed>1.46</speed>
  <fix>3d</fix>
</trkpt>
<trkpt lat="-27.2743496" lon="151.2900654">
  <ele>360.39</ele>
  <time>2026-09-01T20:03:52Z</time>
  <course>7.89</course>
  <speed>1.4503103116229987</speed>
  <fix>3d</fix>
</trkpt>
<trkpt lat="-27.2743486" lon="151.2900654">
  <ele>360.5</ele>
  <time>2026-09-01T20:03:52Z</time>
  <course>7.92</course>
  <speed>1.4603081866510235</speed>
  <fix>3d</fix>
</trkpt>
<trkpt lat="-27.2743521" lon="151.2900652">
  <ele>360.01</ele>
  <time>2026-09-01T20:03:52Z</time>
  <course>0.4</course>
  <speed>1.46</speed>
  <fix>3d</fix>
</trkpt>
<trkpt lat="-27.2743486" lon="151.2900654">
  <ele>360.5</ele>
  <time>2026-09-01T20:03:52Z</time>
  <course>7.92</course>
  <speed>1.4603081866510235</speed>
  <fix>3d</fix>
</trkpt>
<trkpt lat="-27.2743473" lon="151.2900654">
  <ele>360.64</ele>
  <time>2026-09-01T20:03:52Z</time>
  <course>7.9</course>
  <speed>1.4703060905811416</speed>
  <fix>3d</fix>
</trkpt>
<trkpt lat="-27.2743494" lon="151.2900653">
  <ele>360.3</ele>
  <time>2026-09-01T20:03:52Z</time>
  <course>0.46</course>
  <speed>1.48</speed>
  <fix>3d</fix>
</trkpt>
<trkpt lat="-27.2743472" lon="151.2900654">
  <ele>360.64</ele>
  <time>2026-09-01T20:03:52Z</time>
  <course>7.9</course>
  <speed>1.4703060905811416</speed>
  <fix>3d</fix>
</trkpt>
<trkpt lat="-27.2743459" lon="151.2900654">
  <ele>360.78</ele>
  <time>2026-09-01T20:03:52Z</time>
  <course>7.9</course>
  <speed>1.4803040228277433</speed>
  <fix>3d</fix>
</trkpt>
<trkpt lat="-27.2743494" lon="151.2900653">
  <ele>360.3</ele>
  <time>2026-09-01T20:03:52Z</time>
  <course>0.46</course>
  <speed>1.48</speed>
  <fix>3d</fix>
</trkpt>
<trkpt lat="-27.2743459" lon="151.2900654">
  <ele>360.79</ele>
  <time>2026-09-01T20:03:52Z</time>
  <course>7.9</course>
  <speed>1.4803040228277433</speed>
  <fix>3d</fix>
</trkpt>
<trkpt lat="-27.2743446" lon="151.2900654">
  <ele>360.92</ele>
  <time>2026-09-01T20:03:52Z</time>
  <course>7.92</course>
  <speed>1.5002999700059985</speed>
  <fix>3d</fix>
</trkpt>
<trkpt lat="-27.2743467" lon="151.2900654">
  <ele>360.59</ele>
  <time>2026-09-01T20:03:52Z</time>
  <course>0.53</course>
  <speed>1.51</speed>
  <fix>3d</fix>
</trkpt>
<trkpt lat="-27.2743445" lon="151.2900654">
  <ele>360.93</ele>
  <time>2026-09-01T20:03:52Z</time>
  <course>7.92</course>
  <speed>1.5002999700059985</speed>
  <fix>3d</fix>
</trkpt>
<trkpt lat="-27.2743432" lon="151.2900655">
  <ele>361.07</ele>
  <time>2026-09-01T20:03:52Z</time>
  <course>7.89</course>
  <speed>1.5102979838429236</speed>
  <fix>3d</fix>
</trkpt>
<trkpt lat="-27.2743467" lon="151.2900654">
  <ele>360.59</ele>
  <time>2026-09-01T20:03:52Z</time>
  <course>0.53</course>
  <speed>1.51</speed>
  <fix>3d</fix>
</trkpt>
<trkpt lat="-27.2743428" lon="151.2900655">
  <ele>361.1</ele>
  <time>2026-09-01T20:03:52Z</time>
  <course>7.9</course>
  <speed>1.5102979838429236</speed>
  <fix>3d</fix>
</trkpt>
<trkpt lat="-27.2743418" lon="151.2900655">
  <ele>361.21</ele>
  <time>2026-09-01T20:03:52Z</time>
  <course>7.93</course>
  <speed>1.52029602380589</speed>
  <fix>3d</fix>
</trkpt>
<trkpt lat="-27.274344" lon="151.2900654">
  <ele>360.88</ele>
  <time>2026-09-01T20:03:52Z</time>
  <course>0.6</course>
  <speed>1.53</speed>
  <fix>3d</fix>
</trkpt>
<trkpt lat="-27.2743414" lon="151.2900655">
  <ele>361.25</ele>
  <time>2026-09-01T20:03:52Z</time>
  <course>7.92</course>
  <speed>1.5302940893828219</speed>
  <fix>3d</fix>
</trkpt>
<trkpt lat="-27.2743404" lon="151.2900655">
  <ele>361.35</ele>
  <time>2026-09-01T20:03:52Z</time>
  <course>7.89</course>
  <speed>1.5305227865013966</speed>
  <fix>3d</fix>
</trkpt>
<trkpt lat="-27.274344" lon="151.2900654">
  <ele>360.88</ele>
  <time>2026-09-01T20:03:52Z</time>
  <course>0.6</course>
  <speed>1.53</speed>
  <fix>3d</fix>
</trkpt>
<trkpt lat="-27.27434" lon="151.2900655">
  <ele>361.39</ele>
  <time>2026-09-01T20:03:52Z</time>
  <course>7.89</course>
  <speed>1.540519392932137</speed>
  <fix>3d</fix>
</trkpt>
<trkpt lat="-27.2743389" lon="151.2900655">
  <ele>361.5</ele>
  <time>2026-09-01T20:03:52Z</time>
  <course>7.91</course>
  <speed>1.5505160431288676</speed>
  <fix>3d</fix>
</trkpt>
<trkpt lat="-27.2743412" lon="151.2900654">
  <ele>361.16</ele>
  <time>2026-09-01T20:03:52Z</time>
  <course>0.67</course>
  <speed>1.56</speed>
  <fix>3d</fix>
</trkpt>
<trkpt lat="-27.2743386" lon="151.2900655">
  <ele>361.53</ele>
  <time>2026-09-01T20:03:52Z</time>
  <course>7.92</course>
  <speed>1.5505160431288676</speed>
  <fix>3d</fix>
</trkpt>
<trkpt lat="-27.2743375" lon="151.2900656">
  <ele>361.64</ele>
  <time>2026-09-01T20:03:52Z</time>
  <course>7.9</course>
  <speed>1.5605127362504927</speed>
  <fix>3d</fix>
</trkpt>
<trkpt lat="-27.2743412" lon="151.2900654">
  <ele>361.16</ele>
  <time>2026-09-01T20:03:52Z</time>
  <course>0.67</course>
  <speed>1.56</speed>
  <fix>3d</fix>
</trkpt>
<trkpt lat="-27.2743372" lon="151.2900656">
  <ele>361.67</ele>
  <time>2026-09-01T20:03:52Z</time>
  <course>7.89</course>
  <speed>1.5605127362504927</speed>
  <fix>3d</fix>
</trkpt>
<trkpt lat="-27.2743361" lon="151.2900656">
  <ele>361.78</ele>
  <time>2026-09-01T20:03:52Z</time>
  <course>7.9</course>
  <speed>1.5705094714773293</speed>
  <fix>3d</fix>
</trkpt>
<trkpt lat="-27.2743384" lon="151.2900655">
  <ele>361.45</ele>
  <time>2026-09-01T20:03:52Z</time>
  <course>0.74</course>
  <speed>1.58</speed>
  <fix>3d</fix>
</trkpt>
<trkpt lat="-27.2743357" lon="151.2900656">
  <ele>361.82</ele>
  <time>2026-09-01T20:03:52Z</time>
  <course>7.91</course>
  <speed>1.5805062480104277</speed>
  <fix>3d</fix>
</trkpt>
<trkpt lat="-27.2743346" lon="151.2900656">
  <ele>361.93</ele>
  <time>2026-09-01T20:03:52Z</time>
  <course>7.92</course>
  <speed>1.5905030650709227</speed>
  <fix>3d</fix>
</trkpt>
<trkpt lat="-27.2743384" lon="151.2900655">
  <ele>361.45</ele>
  <time>2026-09-01T20:03:52Z</time>
  <course>0.74</course>
  <speed>1.58</speed>
  <fix>3d</fix>
</trkpt>
<trkpt lat="-27.2743346" lon="151.2900656">
  <ele>361.93</ele>
  <time>2026-09-01T20:03:52Z</time>
  <course>7.91</course>
  <speed>1.5905030650709227</speed>
  <fix>3d</fix>
</trkpt>
<trkpt lat="-27.2743332" lon="151.2900656">
  <ele>362.07</ele>
  <time>2026-09-01T20:03:52Z</time>
  <course>7.89</course>
  <speed>1.6004999218994045</speed>
  <fix>3d</fix>
</trkpt>
<trkpt lat="-27.2743355" lon="151.2900655">
  <ele>361.74</ele>
  <time>2026-09-01T20:03:52Z</time>
  <course>0.82</course>
  <speed>1.61</speed>
  <fix>3d</fix>
</trkpt>
<trkpt lat="-27.2743331" lon="151.2900656">
  <ele>362.08</ele>
  <time>2026-09-01T20:03:52Z</time>
  <course>7.89</course>
  <speed>1.6004999218994045</speed>
  <fix>3d</fix>
</trkpt>
<trkpt lat="-27.2743317" lon="151.2900657">
  <ele>362.22</ele>
  <time>2026-09-01T20:03:52Z</time>
  <course>7.92</course>
  <speed>1.610496817755316</speed>
  <fix>3d</fix>
</trkpt>
<trkpt lat="-27.2743355" lon="151.2900655">
  <ele>361.74</ele>
  <time>2026-09-01T20:03:52Z</time>
  <course>0.82</course>
  <speed>1.61</speed>
  <fix>3d</fix>
</trkpt>
<trkpt lat="-27.2743313" lon="151.2900657">
  <ele>362.26</ele>
  <time>2026-09-01T20:03:52Z</time>
  <course>7.92</course>
  <speed>1.6204937519163718</speed>
  <fix>3d</fix>
</trkpt>
<trkpt lat="-27.2743302" lon="151.2900657">
  <ele>362.36</ele>
  <time>2026-09-01T20:03:52Z</time>
  <course>7.89</course>
  <speed>1.6304907236779973</speed>
  <fix>3d</fix>
</trkpt>
<trkpt lat="-27.2743326" lon="151.2900656">
  <ele>362.03</ele>
  <time>2026-09-01T20:03:52Z</time>
  <course>0.91</course>
  <speed>1.63</speed>
  <fix>3d</fix>
</trkpt>
<trkpt lat="-27.2743302" lon="151.2900657">
  <ele>362.36</ele>
  <time>2026-09-01T20:03:52Z</time>
  <course>7.89</course>
  <speed>1.6304907236779973</speed>
  <fix>3d</fix>
</trkpt>
<trkpt lat="-27.2743287" lon="151.2900657">
  <ele>362.5</ele>
  <time>2026-09-01T20:03:52Z</time>
  <course>7.91</course>
  <speed>1.6407620180879372</speed>
  <fix>3d</fix>
</trkpt>
<trkpt lat="-27.2743326" lon="151.2900656">
  <ele>362.03</ele>
  <time>2026-09-01T20:03:52Z</time>
  <course>0.91</course>
  <speed>1.63</speed>
  <fix>3d</fix>
</trkpt>
<trkpt lat="-27.2743287" lon="151.2900657">
  <ele>362.51</ele>
  <time>2026-09-01T20:03:52Z</time>
  <course>7.92</course>
  <speed>1.6407620180879372</speed>
  <fix>3d</fix>
</trkpt>
<trkpt lat="-27.2743272" lon="151.2900658">
  <ele>362.65</ele>
  <time>2026-09-01T20:03:52Z</time>
  <course>7.9</course>
  <speed>1.6507574019219178</speed>
  <fix>3d</fix>
</trkpt>
<trkpt lat="-27.2743297" lon="151.2900656">
  <ele>362.32</ele>
  <time>2026-09-01T20:03:52Z</time>
  <course>0.99</course>
  <speed>1.66</speed>
  <fix>3d</fix>
</trkpt>
<trkpt lat="-27.2743268" lon="151.2900658">
  <ele>362.68</ele>
  <time>2026-09-01T20:03:52Z</time>
  <course>7.89</course>
  <speed>1.6607528413343149</speed>
  <fix>3d</fix>
</trkpt>
<trkpt lat="-27.2743257" lon="151.2900658">
  <ele>362.79</ele>
  <time>2026-09-01T20:03:52Z</time>
  <course>7.89</course>
  <speed>1.670748335327616</speed>
  <fix>3d</fix>
</trkpt>
<trkpt lat="-27.2743297" lon="151.2900656">
  <ele>362.32</ele>
  <time>2026-09-01T20:03:52Z</time>
  <course>0.99</course>
  <speed>1.66</speed>
  <fix>3d</fix>
</trkpt>
<trkpt lat="-27.2743253" lon="151.2900658">
  <ele>362.83</ele>
  <time>2026-09-01T20:03:52Z</time>
  <course>7.91</course>
  <speed>1.670748335327616</speed>
  <fix>3d</fix>
</trkpt>
<trkpt lat="-27.2743242" lon="151.2900658">
  <ele>362.93</ele>
  <time>2026-09-01T20:03:52Z</time>
  <course>7.92</course>
  <speed>1.6807438829280326</speed>
  <fix>3d</fix>
</trkpt>
<trkpt lat="-27.2743266" lon="151.2900656">
  <ele>362.61</ele>
  <time>2026-09-01T20:03:52Z</time>
  <course>1.08</course>
  <speed>1.69</speed>
  <fix>3d</fix>
</trkpt>
<trkpt lat="-27.2743238" lon="151.2900659">
  <ele>362.97</ele>
  <time>2026-09-01T20:03:52Z</time>
  <course>7.9</course>
  <speed>1.6807438829280326</speed>
  <fix>3d</fix>
</trkpt>
<trkpt lat="-27.2743226" lon="151.2900659">
  <ele>363.08</ele>
  <time>2026-09-01T20:03:52Z</time>
  <course>7.89</course>
  <speed>1.6907394831847986</speed>
  <fix>3d</fix>
</trkpt>
<trkpt lat="-27.2743266" lon="151.2900656">
  <ele>362.61</ele>
  <time>2026-09-01T20:03:52Z</time>
  <course>1.08</course>
  <speed>1.69</speed>
  <fix>3d</fix>
</trkpt>
<trkpt lat="-27.2743223" lon="151.2900659">
  <ele>363.11</ele>
  <time>2026-09-01T20:03:52Z</time>
  <course>7.89</course>
  <speed>1.7007351351694948</speed>
  <fix>3d</fix>
</trkpt>
<trkpt lat="-27.274321" lon="151.2900659">
  <ele>363.23</ele>
  <time>2026-09-01T20:03:52Z</time>
  <course>7.92</course>
  <speed>1.710730837975396</speed>
  <fix>3d</fix>
</trkpt>
<trkpt lat="-27.2743235" lon="151.2900657">
  <ele>362.89</ele>
  <time>2026-09-01T20:03:52Z</time>
  <course>1.17</course>
  <speed>1.71</speed>
  <fix>3d</fix>
</trkpt>
<trkpt lat="-27.2743206" lon="151.2900659">
  <ele>363.27</ele>
  <time>2026-09-01T20:03:52Z</time>
  <course>7.92</course>
  <speed>1.710730837975396</speed>
  <fix>3d</fix>
</trkpt>
<trkpt lat="-27.2743195" lon="151.290066">
  <ele>363.37</ele>
  <time>2026-09-01T20:03:52Z</time>
  <course>7.89</course>
  <speed>1.7207265907168403</speed>
  <fix>3d</fix>
</trkpt>
<trkpt lat="-27.2743235" lon="151.2900657">
  <ele>362.89</ele>
  <time>2026-09-01T20:03:52Z</time>
  <course>1.17</course>
  <speed>1.71</speed>
  <fix>3d</fix>
</trkpt>
<trkpt lat="-27.2743194" lon="151.290066">
  <ele>363.37</ele>
  <time>2026-09-01T20:03:52Z</time>
  <course>7.89</course>
  <speed>1.7207265907168403</speed>
  <fix>3d</fix>
</trkpt>
<trkpt lat="-27.2743179" lon="151.290066">
  <ele>363.51</ele>
  <time>2026-09-01T20:03:52Z</time>
  <course>7.91</course>
  <speed>1.731040149736568</speed>
  <fix>3d</fix>
</trkpt>
<trkpt lat="-27.2743204" lon="151.2900658">
  <ele>363.18</ele>
  <time>2026-09-01T20:03:52Z</time>
  <course>1.26</course>
  <speed>1.74</speed>
  <fix>3d</fix>
</trkpt>
<trkpt lat="-27.2743178" lon="151.290066">
  <ele>363.52</ele>
  <time>2026-09-01T20:03:52Z</time>
  <course>7.92</course>
  <speed>1.731040149736568</speed>
  <fix>3d</fix>
</trkpt>
<trkpt lat="-27.2743163" lon="151.290066">
  <ele>363.65</ele>
  <time>2026-09-01T20:03:52Z</time>
  <course>7.9</course>
  <speed>1.7510282693320516</speed>
  <fix>3d</fix>
</trkpt>
<trkpt lat="-27.2743204" lon="151.2900658">
  <ele>363.18</ele>
  <time>2026-09-01T20:03:52Z</time>
  <course>1.26</course>
  <speed>1.74</speed>
  <fix>3d</fix>
</trkpt>
<trkpt lat="-27.2743159" lon="151.290066">
  <ele>363.69</ele>
  <time>2026-09-01T20:03:52Z</time>
  <course>7.89</course>
  <speed>1.7510282693320516</speed>
  <fix>3d</fix>
</trkpt>
<trkpt lat="-27.2743147" lon="151.2900661">
  <ele>363.8</ele>
  <time>2026-09-01T20:03:52Z</time>
  <course>7.9</course>
  <speed>1.7610224302944013</speed>
  <fix>3d</fix>
</trkpt>
<trkpt lat="-27.2743173" lon="151.2900659">
  <ele>363.46</ele>
  <time>2026-09-01T20:03:52Z</time>
  <course>1.35</course>
  <speed>1.77</speed>
  <fix>3d</fix>
</trkpt>
<trkpt lat="-27.2743146" lon="151.2900661">
  <ele>363.8</ele>
  <time>2026-09-01T20:03:52Z</time>
  <course>7.9</course>
  <speed>1.7610224302944013</speed>
  <fix>3d</fix>
</trkpt>
<trkpt lat="-27.2743131" lon="151.2900661">
  <ele>363.94</ele>
  <time>2026-09-01T20:03:52Z</time>
  <course>7.91</course>
  <speed>1.7810109488714547</speed>
  <fix>3d</fix>
</trkpt>
<trkpt lat="-27.2743173" lon="151.2900659">
  <ele>363.46</ele>
  <time>2026-09-01T20:03:52Z</time>
  <course>1.35</course>
  <speed>1.77</speed>
  <fix>3d</fix>
</trkpt>
<trkpt lat="-27.274313" lon="151.2900661">
  <ele>363.94</ele>
  <time>2026-09-01T20:03:52Z</time>
  <course>7.91</course>
  <speed>1.7810109488714547</speed>
  <fix>3d</fix>
</trkpt>
<trkpt lat="-27.2743115" lon="151.2900662">
  <ele>364.08</ele>
  <time>2026-09-01T20:03:52Z</time>
  <course>7.89</course>
  <speed>1.7910053042914194</speed>
  <fix>3d</fix>
</trkpt>
<trkpt lat="-27.2743141" lon="151.290066">
  <ele>363.75</ele>
  <time>2026-09-01T20:03:52Z</time>
  <course>1.45</course>
  <speed>1.8</speed>
  <fix>3d</fix>
</trkpt>
<trkpt lat="-27.274311" lon="151.2900662">
  <ele>364.12</ele>
  <time>2026-09-01T20:03:52Z</time>
  <course>7.9</course>
  <speed>1.7910053042914194</speed>
  <fix>3d</fix>
</trkpt>
<trkpt lat="-27.2743098" lon="151.2900662">
  <ele>364.23</ele>
  <time>2026-09-01T20:03:52Z</time>
  <course>7.92</course>
  <speed>1.800999722376436</speed>
  <fix>3d</fix>
</trkpt>
<trkpt lat="-27.2743141" lon="151.290066">
  <ele>363.75</ele>
  <time>2026-09-01T20:03:52Z</time>
  <course>1.45</course>
  <speed>1.8</speed>
  <fix>3d</fix>
</trkpt>
<trkpt lat="-27.2743094" lon="151.2900662">
  <ele>364.26</ele>
  <time>2026-09-01T20:03:52Z</time>
  <course>7.92</course>
  <speed>1.810994202089007</speed>
  <fix>3d</fix>
</trkpt>
<trkpt lat="-27.2743082" lon="151.2900663">
  <ele>364.37</ele>
  <time>2026-09-01T20:03:52Z</time>
  <course>7.89</course>
  <speed>1.8213456563760764</speed>
  <fix>3d</fix>
</trkpt>
<trkpt lat="-27.2743108" lon="151.2900661">
  <ele>364.04</ele>
  <time>2026-09-01T20:03:52Z</time>
  <course>1.56</course>
  <speed>1.83</speed>
  <fix>3d</fix>
</trkpt>
<trkpt lat="-27.2743077" lon="151.2900663">
  <ele>364.41</ele>
  <time>2026-09-01T20:03:52Z</time>
  <course>7.89</course>
  <speed>1.8213456563760764</speed>
  <fix>3d</fix>
</trkpt>
<trkpt lat="-27.2743065" lon="151.2900663">
  <ele>364.52</ele>
  <time>2026-09-01T20:03:52Z</time>
  <course>7.92</course>
  <speed>1.8313383084509536</speed>
  <fix>3d</fix>
</trkpt>
<trkpt lat="-27.2743108" lon="151.2900661">
  <ele>364.04</ele>
  <time>2026-09-01T20:03:52Z</time>
  <course>1.56</course>
  <speed>1.83</speed>
  <fix>3d</fix>
</trkpt>
<trkpt lat="-27.2743061" lon="151.2900663">
  <ele>364.55</ele>
  <time>2026-09-01T20:03:52Z</time>
  <course>7.92</course>
  <speed>1.8413310403075271</speed>
  <fix>3d</fix>
</trkpt>
<trkpt lat="-27.2743048" lon="151.2900664">
  <ele>364.66</ele>
  <time>2026-09-01T20:03:52Z</time>
  <course>7.89</course>
  <speed>1.8513238506539043</speed>
  <fix>3d</fix>
</trkpt>
<trkpt lat="-27.2743075" lon="151.2900662">
  <ele>364.33</ele>
  <time>2026-09-01T20:03:52Z</time>
  <course>1.66</course>
  <speed>1.86</speed>
  <fix>3d</fix>
</trkpt>
<trkpt lat="-27.2743044" lon="151.2900664">
  <ele>364.7</ele>
  <time>2026-09-01T20:03:52Z</time>
  <course>7.89</course>
  <speed>1.8513238506539043</speed>
  <fix>3d</fix>
</trkpt>
<trkpt lat="-27.2743031" lon="151.2900664">
  <ele>364.8</ele>
  <time>2026-09-01T20:03:52Z</time>
  <course>7.9</course>
  <speed>1.8613167382259261</speed>
  <fix>3d</fix>
</trkpt>
<trkpt lat="-27.2743075" lon="151.2900662">
  <ele>364.33</ele>
  <time>2026-09-01T20:03:52Z</time>
  <course>1.66</course>
  <speed>1.86</speed>
  <fix>3d</fix>
</trkpt>
<trkpt lat="-27.2743031" lon="151.2900664">
  <ele>364.81</ele>
  <time>2026-09-01T20:03:52Z</time>
  <course>7.9</course>
  <speed>1.8713097017864255</speed>
  <fix>3d</fix>
</trkpt>
<trkpt lat="-27.2743014" lon="151.2900665">
  <ele>364.95</ele>
  <time>2026-09-01T20:03:52Z</time>
  <course>7.9</course>
  <speed>1.8813027401245128</speed>
  <fix>3d</fix>
</trkpt>
<trkpt lat="-27.2743041" lon="151.2900663">
  <ele>364.62</ele>
  <time>2026-09-01T20:03:52Z</time>
  <course>1.76</course>
  <speed>1.89</speed>
  <fix>3d</fix>
</trkpt>
<trkpt lat="-27.2743014" lon="151.2900665">
  <ele>364.95</ele>
  <time>2026-09-01T20:03:52Z</time>
  <course>7.9</course>
  <speed>1.8813027401245128</speed>
  <fix>3d</fix>
</trkpt>
<trkpt lat="-27.2742997" lon="151.2900666">
  <ele>365.09</ele>
  <time>2026-09-01T20:03:52Z</time>
  <course>7.89</course>
  <speed>1.9016834647227703</speed>
  <fix>3d</fix>
</trkpt>
<trkpt lat="-27.2743041" lon="151.2900663">
  <ele>364.62</ele>
  <time>2026-09-01T20:03:52Z</time>
  <course>1.76</course>
  <speed>1.89</speed>
  <fix>3d</fix>
</trkpt>
<trkpt lat="-27.2742993" lon="151.2900666">
  <ele>365.13</ele>
  <time>2026-09-01T20:03:52Z</time>
  <course>7.89</course>
  <speed>1.9016834647227703</speed>
  <fix>3d</fix>
</trkpt>
<trkpt lat="-27.274298" lon="151.2900666">
  <ele>365.24</ele>
  <time>2026-09-01T20:03:52Z</time>
  <course>7.92</course>
  <speed>1.911674658512792</speed>
  <fix>3d</fix>
</trkpt>
<trkpt lat="-27.2743007" lon="151.2900664">
  <ele>364.9</ele>
  <time>2026-09-01T20:03:52Z</time>
  <course>1.87</course>
  <speed>1.92</speed>
  <fix>3d</fix>
</trkpt>
<trkpt lat="-27.2742975" lon="151.2900666">
  <ele>365.28</ele>
  <time>2026-09-01T20:03:52Z</time>
  <course>7.91</course>
  <speed>1.9216659439142902</speed>
  <fix>3d</fix>
</trkpt>
<trkpt lat="-27.2742962" lon="151.2900667">
  <ele>365.38</ele>
  <time>2026-09-01T20:03:52Z</time>
  <course>7.88</course>
  <speed>1.931657319505714</speed>
  <fix>3d</fix>
</trkpt>
<trkpt lat="-27.2743007" lon="151.2900664">
  <ele>364.9</ele>
  <time>2026-09-01T20:03:52Z</time>
  <course>1.87</course>
  <speed>1.92</speed>
  <fix>3d</fix>
</trkpt>
<trkpt lat="-27.2742961" lon="151.2900667">
  <ele>365.39</ele>
  <time>2026-09-01T20:03:52Z</time>
  <course>7.88</course>
  <speed>1.931657319505714</speed>
  <fix>3d</fix>
</trkpt>
<trkpt lat="-27.2742944" lon="151.2900668">
  <ele>365.52</ele>
  <time>2026-09-01T20:03:52Z</time>
  <course>7.91</course>
  <speed>1.94164878389476</speed>
  <fix>3d</fix>
</trkpt>
<trkpt lat="-27.2742972" lon="151.2900666">
  <ele>365.19</ele>
  <time>2026-09-01T20:03:52Z</time>
  <course>1.97</course>
  <speed>1.95</speed>
  <fix>3d</fix>
</trkpt>
<trkpt lat="-27.2742944" lon="151.2900668">
  <ele>365.53</ele>
  <time>2026-09-01T20:03:52Z</time>
  <course>7.91</course>
  <speed>1.94164878389476</speed>
  <fix>3d</fix>
</trkpt>
<trkpt lat="-27.2742927" lon="151.2900668">
  <ele>365.67</ele>
  <time>2026-09-01T20:03:52Z</time>
  <course>7.89</course>
  <speed>1.962065238466856</speed>
  <fix>3d</fix>
</trkpt>
<trkpt lat="-27.2742972" lon="151.2900666">
  <ele>365.19</ele>
  <time>2026-09-01T20:03:52Z</time>
  <course>1.97</course>
  <speed>1.95</speed>
  <fix>3d</fix>
</trkpt>
<trkpt lat="-27.2742922" lon="151.2900669">
  <ele>365.7</ele>
  <time>2026-09-01T20:03:52Z</time>
  <course>7.88</course>
  <speed>1.962065238466856</speed>
  <fix>3d</fix>
</trkpt>
<trkpt lat="-27.2742909" lon="151.2900669">
  <ele>365.81</ele>
  <time>2026-09-01T20:03:52Z</time>
  <course>7.89</course>
  <speed>1.9820443990990717</speed>
  <fix>3d</fix>
</trkpt>
<trkpt lat="-27.2742937" lon="151.2900667">
  <ele>365.47</ele>
  <time>2026-09-01T20:03:52Z</time>
  <course>2.07</course>
  <speed>1.98</speed>
  <fix>3d</fix>
</trkpt>
<trkpt lat="-27.2742904" lon="151.2900669">
  <ele>365.85</ele>
  <time>2026-09-01T20:03:52Z</time>
  <course>7.9</course>
  <speed>1.9820443990990717</speed>
  <fix>3d</fix>
</trkpt>
<trkpt lat="-27.274289" lon="151.290067">
  <ele>365.95</ele>
  <time>2026-09-01T20:03:52Z</time>
  <course>7.91</course>
  <speed>1.992034136253694</speed>
  <fix>3d</fix>
</trkpt>
<trkpt lat="-27.2742937" lon="151.2900667">
  <ele>365.47</ele>
  <time>2026-09-01T20:03:52Z</time>
  <course>2.07</course>
  <speed>1.98</speed>
  <fix>3d</fix>
</trkpt>
<trkpt lat="-27.2742886" lon="151.290067">
  <ele>365.99</ele>
  <time>2026-09-01T20:03:52Z</time>
  <course>7.9</course>
  <speed>1.992034136253694</speed>
  <fix>3d</fix>
</trkpt>
<trkpt lat="-27.2742872" lon="151.2900671">
  <ele>366.1</ele>
  <time>2026-09-01T20:03:52Z</time>
  <course>7.88</course>
  <speed>2.0120139164528656</speed>
  <fix>3d</fix>
</trkpt>
<trkpt lat="-27.2742901" lon="151.2900669">
  <ele>365.76</ele>
  <time>2026-09-01T20:03:52Z</time>
  <course>2.18</course>
  <speed>2.01</speed>
  <fix>3d</fix>
</trkpt>
<trkpt lat="-27.2742867" lon="151.2900671">
  <ele>366.14</ele>
  <time>2026-09-01T20:03:52Z</time>
  <course>7.89</course>
  <speed>2.0120139164528656</speed>
  <fix>3d</fix>
</trkpt>
<trkpt lat="-27.2742854" lon="151.2900672">
  <ele>366.24</ele>
  <time>2026-09-01T20:03:52Z</time>
  <course>7.92</course>
  <speed>2.022003956474863</speed>
  <fix>3d</fix>
</trkpt>
<trkpt lat="-27.2742901" lon="151.2900669">
  <ele>365.76</ele>
  <time>2026-09-01T20:03:52Z</time>
  <course>2.18</course>
  <speed>2.01</speed>
  <fix>3d</fix>
</trkpt>
<trkpt lat="-27.2742853" lon="151.2900672">
  <ele>366.24</ele>
  <time>2026-09-01T20:03:52Z</time>
  <course>7.92</course>
  <speed>2.022473732833136</speed>
  <fix>3d</fix>
</trkpt>
<trkpt lat="-27.2742835" lon="151.2900672">
  <ele>366.38</ele>
  <time>2026-09-01T20:03:52Z</time>
  <course>7.88</course>
  <speed>2.0424495097798623</speed>
  <fix>3d</fix>
</trkpt>
<trkpt lat="-27.2742864" lon="151.290067">
  <ele>366.05</ele>
  <time>2026-09-01T20:03:52Z</time>
  <course>2.29</course>
  <speed>2.05</speed>
  <fix>3d</fix>
</trkpt>
<trkpt lat="-27.274283" lon="151.2900673">
  <ele>366.42</ele>
  <time>2026-09-01T20:03:52Z</time>
  <course>7.88</course>
  <speed>2.0524375751773793</speed>
  <fix>3d</fix>
</trkpt>
<trkpt lat="-27.2742816" lon="151.2900673">
  <ele>366.52</ele>
  <time>2026-09-01T20:03:52Z</time>
  <course>7.9</course>
  <speed>2.0624257562394823</speed>
  <fix>3d</fix>
</trkpt>
<trkpt lat="-27.2742864" lon="151.290067">
  <ele>366.05</ele>
  <time>2026-09-01T20:03:52Z</time>
  <course>2.29</course>
  <speed>2.05</speed>
  <fix>3d</fix>
</trkpt>
<trkpt lat="-27.2742812" lon="151.2900674">
  <ele>366.56</ele>
  <time>2026-09-01T20:03:52Z</time>
  <course>7.91</course>
  <speed>2.0624257562394823</speed>
  <fix>3d</fix>
</trkpt>
<trkpt lat="-27.2742797" lon="151.2900674">
  <ele>366.67</ele>
  <time>2026-09-01T20:03:52Z</time>
  <course>7.9</course>
  <speed>2.0724140512938045</speed>
  <fix>3d</fix>
</trkpt>
<trkpt lat="-27.2742827" lon="151.2900672">
  <ele>366.34</ele>
  <time>2026-09-01T20:03:52Z</time>
  <course>2.39</course>
  <speed>2.08</speed>
  <fix>3d</fix>
</trkpt>
<trkpt lat="-27.2742793" lon="151.2900674">
  <ele>366.7</ele>
  <time>2026-09-01T20:03:52Z</time>
  <course>7.89</course>
  <speed>2.082402458700047</speed>
  <fix>3d</fix>
</trkpt>
<trkpt lat="-27.2742778" lon="151.2900675">
  <ele>366.81</ele>
  <time>2026-09-01T20:03:52Z</time>
  <course>7.89</course>
  <speed>2.092892734948449</speed>
  <fix>3d</fix>
</trkpt>
<trkpt lat="-27.2742827" lon="151.2900672">
  <ele>366.34</ele>
  <time>2026-09-01T20:03:52Z</time>
  <course>2.39</course>
  <speed>2.08</speed>
  <fix>3d</fix>
</trkpt>
<trkpt lat="-27.2742778" lon="151.2900675">
  <ele>366.81</ele>
  <time>2026-09-01T20:03:52Z</time>
  <course>7.89</course>
  <speed>2.092892734948449</speed>
  <fix>3d</fix>
</trkpt>
<trkpt lat="-27.2742759" lon="151.2900676">
  <ele>366.95</ele>
  <time>2026-09-01T20:03:52Z</time>
  <course>7.92</course>
  <speed>2.1128653530218156</speed>
  <fix>3d</fix>
</trkpt>
<trkpt lat="-27.274279" lon="151.2900674">
  <ele>366.62</ele>
  <time>2026-09-01T20:03:52Z</time>
  <course>2.5</course>
  <speed>2.11</speed>
  <fix>3d</fix>
</trkpt>
<trkpt lat="-27.2742758" lon="151.2900676">
  <ele>366.96</ele>
  <time>2026-09-01T20:03:52Z</time>
  <course>7.91</course>
  <speed>2.1128653530218156</speed>
  <fix>3d</fix>
</trkpt>
<trkpt lat="-27.274274" lon="151.2900677">
  <ele>367.1</ele>
  <time>2026-09-01T20:03:52Z</time>
  <course>7.88</course>
  <speed>2.13283848427395</speed>
  <fix>3d</fix>
</trkpt>
<trkpt lat="-27.274279" lon="151.2900674">
  <ele>366.62</ele>
  <time>2026-09-01T20:03:52Z</time>
  <course>2.5</course>
  <speed>2.11</speed>
  <fix>3d</fix>
</trkpt>
<trkpt lat="-27.2742735" lon="151.2900677">
  <ele>367.14</ele>
  <time>2026-09-01T20:03:52Z</time>
  <course>7.89</course>
  <speed>2.13283848427395</speed>
  <fix>3d</fix>
</trkpt>
<trkpt lat="-27.274272" lon="151.2900678">
  <ele>367.24</ele>
  <time>2026-09-01T20:03:52Z</time>
  <course>7.92</course>
  <speed>2.1428252378577213</speed>
  <fix>3d</fix>
</trkpt>
<trkpt lat="-27.2742751" lon="151.2900675">
  <ele>366.91</ele>
  <time>2026-09-01T20:03:52Z</time>
  <course>2.62</course>
  <speed>2.15</speed>
  <fix>3d</fix>
</trkpt>
<trkpt lat="-27.274272" lon="151.2900678">
  <ele>367.25</ele>
  <time>2026-09-01T20:03:52Z</time>
  <course>7.92</course>
  <speed>2.1428252378577213</speed>
  <fix>3d</fix>
</trkpt>
<trkpt lat="-27.2742701" lon="151.2900679">
  <ele>367.38</ele>
  <time>2026-09-01T20:03:52Z</time>
  <course>7.89</course>
  <speed>2.1633307652783937</speed>
  <fix>3d</fix>
</trkpt>
<trkpt lat="-27.2742751" lon="151.2900675">
  <ele>366.91</ele>
  <time>2026-09-01T20:03:52Z</time>
  <course>2.62</course>
  <speed>2.15</speed>
  <fix>3d</fix>
</trkpt>
<trkpt lat="-27.27427" lon="151.2900679">
  <ele>367.39</ele>
  <time>2026-09-01T20:03:52Z</time>
  <course>7.89</course>
  <speed>2.1633307652783937</speed>
  <fix>3d</fix>
</trkpt>
<trkpt lat="-27.2742681" lon="151.290068">
  <ele>367.53</ele>
  <time>2026-09-01T20:03:52Z</time>
  <course>7.91</course>
  <speed>2.183300254202339</speed>
  <fix>3d</fix>
</trkpt>
<trkpt lat="-27.2742712" lon="151.2900677">
  <ele>367.2</ele>
  <time>2026-09-01T20:03:52Z</time>
  <course>2.74</course>
  <speed>2.18</speed>
  <fix>3d</fix>
</trkpt>
<trkpt lat="-27.274268" lon="151.290068">
  <ele>367.53</ele>
  <time>2026-09-01T20:03:52Z</time>
  <course>7.91</course>
  <speed>2.183300254202339</speed>
  <fix>3d</fix>
</trkpt>
<trkpt lat="-27.2742661" lon="151.2900681">
  <ele>367.67</ele>
  <time>2026-09-01T20:03:52Z</time>
  <course>7.89</course>
  <speed>2.2032702966272657</speed>
  <fix>3d</fix>
</trkpt>
<trkpt lat="-27.2742712" lon="151.2900677">
  <ele>367.2</ele>
  <time>2026-09-01T20:03:52Z</time>
  <course>2.74</course>
  <speed>2.18</speed>
  <fix>3d</fix>
</trkpt>
<trkpt lat="-27.274266" lon="151.2900681">
  <ele>367.68</ele>
  <time>2026-09-01T20:03:52Z</time>
  <course>7.89</course>
  <speed>2.2032702966272657</speed>
  <fix>3d</fix>
</trkpt>
<trkpt lat="-27.2742641" lon="151.2900682">
  <ele>367.82</ele>
  <time>2026-09-01T20:03:52Z</time>
  <course>7.89</course>
  <speed>2.223803048833237</speed>
  <fix>3d</fix>
</trkpt>
<trkpt lat="-27.2742673" lon="151.290068">
  <ele>367.48</ele>
  <time>2026-09-01T20:03:52Z</time>
  <course>2.85</course>
  <speed>2.22</speed>
  <fix>3d</fix>
</trkpt>
<trkpt lat="-27.274264" lon="151.2900683">
  <ele>367.82</ele>
  <time>2026-09-01T20:03:52Z</time>
  <course>7.9</course>
  <speed>2.223803048833237</speed>
  <fix>3d</fix>
</trkpt>
<trkpt lat="-27.274262" lon="151.2900684">
  <ele>367.96</ele>
  <time>2026-09-01T20:03:52Z</time>
  <course>7.91</course>
  <speed>2.2437691503361035</speed>
  <fix>3d</fix>
</trkpt>
<trkpt lat="-27.2742673" lon="151.290068">
  <ele>367.48</ele>
  <time>2026-09-01T20:03:52Z</time>
  <course>2.85</course>
  <speed>2.22</speed>
  <fix>3d</fix>
</trkpt>
<trkpt lat="-27.2742619" lon="151.2900684">
  <ele>367.97</ele>
  <time>2026-09-01T20:03:52Z</time>
  <course>7.9</course>
  <speed>2.2437691503361035</speed>
  <fix>3d</fix>
</trkpt>
<trkpt lat="-27.27426" lon="151.2900685">
  <ele>368.11</ele>
  <time>2026-09-01T20:03:52Z</time>
  <course>7.89</course>
  <speed>2.2537524265100637</speed>
  <fix>3d</fix>
</trkpt>
<trkpt lat="-27.2742633" lon="151.2900682">
  <ele>367.77</ele>
  <time>2026-09-01T20:03:52Z</time>
  <course>2.97</course>
  <speed>2.25</speed>
  <fix>3d</fix>
</trkpt>
<trkpt lat="-27.2742599" lon="151.2900685">
  <ele>368.11</ele>
  <time>2026-09-01T20:03:52Z</time>
  <course>7.89</course>
  <speed>2.2537524265100637</speed>
  <fix>3d</fix>
</trkpt>
<trkpt lat="-27.2742579" lon="151.2900686">
  <ele>368.26</ele>
  <time>2026-09-01T20:03:52Z</time>
  <course>7.92</course>
  <speed>2.2743130831088316</speed>
  <fix>3d</fix>
</trkpt>
<trkpt lat="-27.2742633" lon="151.2900682">
  <ele>367.77</ele>
  <time>2026-09-01T20:03:52Z</time>
  <course>2.97</course>
  <speed>2.25</speed>
  <fix>3d</fix>
</trkpt>
<trkpt lat="-27.2742558" lon="151.2900687">
  <ele>368.4</ele>
  <time>2026-09-01T20:03:52Z</time>
  <course>7.89</course>
  <speed>2.2942754847663784</speed>
  <fix>3d</fix>
</trkpt>
<trkpt lat="-27.2742592" lon="151.2900685">
  <ele>368.06</ele>
  <time>2026-09-01T20:03:52Z</time>
  <course>3.1</course>
  <speed>2.29</speed>
  <fix>3d</fix>
</trkpt>
<trkpt lat="-27.2742537" lon="151.2900689">
  <ele>368.54</ele>
  <time>2026-09-01T20:03:52Z</time>
  <course>7.92</course>
  <speed>2.314238535674315</speed>
  <fix>3d</fix>
</trkpt>
<trkpt lat="-27.2742592" lon="151.2900685">
  <ele>368.06</ele>
  <time>2026-09-01T20:03:52Z</time>
  <course>3.1</course>
  <speed>2.29</speed>
  <fix>3d</fix>
</trkpt>
<trkpt lat="-27.2742515" lon="151.290069">
  <ele>368.67</ele>
  <time>2026-09-01T20:03:52Z</time>
  <course>7.9</course>
  <speed>2.4858197842965204</speed>
  <fix>3d</fix>
</trkpt>
<trkpt lat="-27.274255" lon="151.2900687">
  <ele>368.34</ele>
  <time>2026-09-01T20:03:52Z</time>
  <course>3.22</course>
  <speed>2.33</speed>
  <fix>3d</fix>
</trkpt>
<trkpt lat="-27.2742491" lon="151.2900692">
  <ele>368.8</ele>
  <time>2026-09-01T20:03:52Z</time>
  <course>7.84</course>
  <speed>2.868449058289165</speed>
  <fix>3d</fix>
</trkpt>
<trkpt lat="-27.274255" lon="151.2900687">
  <ele>368.34</ele>
  <time>2026-09-01T20:03:52Z</time>
  <course>3.22</course>
  <speed>2.33</speed>
  <fix>3d</fix>
</trkpt>
<trkpt lat="-27.2742463" lon="151.2900694">
  <ele>368.9</ele>
  <time>2026-09-01T20:03:52Z</time>
  <course>7.76</course>
  <speed>3.341751038003878</speed>
  <fix>3d</fix>
</trkpt>
<trkpt lat="-27.2742506" lon="151.290069">
  <ele>368.61</ele>
  <time>2026-09-01T20:03:52Z</time>
  <course>3.76</course>
  <speed>2.62</speed>
  <fix>3d</fix>
</trkpt>
<trkpt lat="-27.274243" lon="151.2900698">
  <ele>368.99</ele>
  <time>2026-09-01T20:03:52Z</time>
  <course>7.66</course>
  <speed>3.875835393821569</speed>
  <fix>3d</fix>
</trkpt>
<trkpt lat="-27.2742506" lon="151.290069">
  <ele>368.61</ele>
  <time>2026-09-01T20:03:52Z</time>
  <course>3.76</course>
  <speed>2.62</speed>
  <fix>3d</fix>
</trkpt>
<trkpt lat="-27.2742392" lon="151.2900702">
  <ele>369.06</ele>
  <time>2026-09-01T20:03:52Z</time>
  <course>7.55</course>
  <speed>4.612006071114824</speed>
  <fix>3d</fix>
</trkpt>
<trkpt lat="-27.2742453" lon="151.2900695">
  <ele>368.84</ele>
  <time>2026-09-01T20:03:52Z</time>
  <course>4.67</course>
  <speed>3.41</speed>
  <fix>3d</fix>
</trkpt>
<trkpt lat="-27.2742347" lon="151.2900707">
  <ele>369.12</ele>
  <time>2026-09-01T20:03:52Z</time>
  <course>7.48</course>
  <speed>5.51951084789223</speed>
  <fix>3d</fix>
</trkpt>
<trkpt lat="-27.2742453" lon="151.2900695">
  <ele>368.84</ele>
  <time>2026-09-01T20:03:52Z</time>
  <course>4.67</course>
  <speed>3.41</speed>
  <fix>3d</fix>
</trkpt>
<trkpt lat="-27.2742293" lon="151.2900713">
  <ele>369.17</ele>
  <time>2026-09-01T20:03:52Z</time>
  <course>7.44</course>
  <speed>6.527641227886226</speed>
  <fix>3d</fix>
</trkpt>
<trkpt lat="-27.2742381" lon="151.2900702">
  <ele>369.0</ele>
  <time>2026-09-01T20:03:52Z</time>
  <course>5.49</course>
  <speed>4.74</speed>
  <fix>3d</fix>
</trkpt>
<trkpt lat="-27.2742229" lon="151.290072">
  <ele>369.2</ele>
  <time>2026-09-01T20:03:52Z</time>
  <course>7.49</course>
  <speed>7.605425694857587</speed>
  <fix>3d</fix>
</trkpt>
<trkpt lat="-27.2742381" lon="151.2900702">
  <ele>369.0</ele>
  <time>2026-09-01T20:03:52Z</time>
  <course>5.49</course>
  <speed>4.74</speed>
  <fix>3d</fix>
</trkpt>
<trkpt lat="-27.2742157" lon="151.2900729">
  <ele>369.23</ele>
  <time>2026-09-01T20:03:52Z</time>
  <course>7.46</course>
  <speed>8.745084333498449</speed>
  <fix>3d</fix>
</trkpt>
<trkpt lat="-27.274228" lon="151.2900713">
  <ele>369.1</ele>
  <time>2026-09-01T20:03:52Z</time>
  <course>6.05</course>
  <speed>6.61</speed>
  <fix>3d</fix>
</trkpt>
<trkpt lat="-27.2742073" lon="151.290074">
  <ele>369.26</ele>
  <time>2026-09-01T20:03:52Z</time>
  <course>7.4</course>
  <speed>9.925683855533583</speed>
  <fix>3d</fix>
</trkpt>
<trkpt lat="-27.274228" lon="151.2900713">
  <ele>369.1</ele>
  <time>2026-09-01T20:03:52Z</time>
  <course>6.05</course>
  <speed>6.61</speed>
  <fix>3d</fix>
</trkpt>
<trkpt lat="-27.274198" lon="151.2900752">
  <ele>369.28</ele>
  <time>2026-09-01T20:03:52Z</time>
  <course>7.52</course>
  <speed>11.15600286841125</speed>
  <fix>3d</fix>
</trkpt>
<trkpt lat="-27.2742142" lon="151.2900731">
  <ele>369.16</ele>
  <time>2026-09-01T20:03:52Z</time>
  <course>6.44</course>
  <speed>8.82</speed>
  <fix>3d</fix>
</trkpt>
<trkpt lat="-27.2741874" lon="151.2900766">
  <ele>369.3</ele>
  <time>2026-09-01T20:03:52Z</time>
  <course>7.51</course>
  <speed>12.428435138825805</speed>
  <fix>3d</fix>
</trkpt>
<trkpt lat="-27.2742142" lon="151.2900731">
  <ele>369.16</ele>
  <time>2026-09-01T20:03:52Z</time>
  <course>6.44</course>
  <speed>8.82</speed>
  <fix>3d</fix>
</trkpt>
<trkpt lat="-27.2741759" lon="151.2900782">
  <ele>369.33</ele>
  <time>2026-09-01T20:03:52Z</time>
  <course>7.52</course>
  <speed>13.609177050799214</speed>
  <fix>3d</fix>
</trkpt>
<trkpt lat="-27.2741963" lon="151.2900753">
  <ele>369.21</ele>
  <time>2026-09-01T20:03:52Z</time>
  <course>6.72</course>
  <speed>11.23</speed>
  <fix>3d</fix>
</trkpt>
<trkpt lat="-27.2741634" lon="151.2900799">
  <ele>369.36</ele>
  <time>2026-09-01T20:03:52Z</time>
  <course>7.44</course>
  <speed>14.780016914739983</speed>
  <fix>3d</fix>
</trkpt>
<trkpt lat="-27.2741963" lon="151.2900753">
  <ele>369.21</ele>
  <time>2026-09-01T20:03:52Z</time>
  <course>6.72</course>
  <speed>11.23</speed>
  <fix>3d</fix>
</trkpt>
<trkpt lat="-27.2741497" lon="151.2900817">
  <ele>369.4</ele>
  <time>2026-09-01T20:03:52Z</time>
  <course>7.36</course>
  <speed>16.021576077277793</speed>
  <fix>3d</fix>
</trkpt>
<trkpt lat="-27.2741741" lon="151.2900783">
  <ele>369.27</ele>
  <time>2026-09-01T20:03:52Z</time>
  <course>6.93</course>
  <speed>13.67</speed>
  <fix>3d</fix>
</trkpt>
<trkpt lat="-27.2741349" lon="151.2900838">
  <ele>369.45</ele>
  <time>2026-09-01T20:03:52Z</time>
  <course>7.38</course>
  <speed>17.332616651850348</speed>
  <fix>3d</fix>
</trkpt>
<trkpt lat="-27.2741741" lon="151.2900783">
  <ele>369.27</ele>
  <time>2026-09-01T20:03:52Z</time>
  <course>6.93</course>
  <speed>13.67</speed>
  <fix>3d</fix>
</trkpt>
<trkpt lat="-27.2741189" lon="151.290086">
  <ele>369.51</ele>
  <time>2026-09-01T20:03:52Z</time>
  <course>7.24</course>
  <speed>18.735447686137633</speed>
  <fix>3d</fix>
</trkpt>
<trkpt lat="-27.2741475" lon="151.2900821">
  <ele>369.34</ele>
  <time>2026-09-01T20:03:52Z</time>
  <course>7.05</course>
  <speed>16.14</speed>
  <fix>3d</fix>
</trkpt>
<trkpt lat="-27.2741016" lon="151.2900885">
  <ele>369.57</ele>
  <time>2026-09-01T20:03:52Z</time>
  <course>7.19</course>
  <speed>20.246189764990348</speed>
  <fix>3d</fix>
</trkpt>
<trkpt lat="-27.2741475" lon="151.2900821">
  <ele>369.34</ele>
  <time>2026-09-01T20:03:52Z</time>
  <course>7.05</course>
  <speed>16.14</speed>
  <fix>3d</fix>
</trkpt>
<trkpt lat="-27.2740828" lon="151.2900911">
  <ele>369.66</ele>
  <time>2026-09-01T20:03:52Z</time>
  <course>7.19</course>
  <speed>21.899573055199042</speed>
  <fix>3d</fix>
</trkpt>
<trkpt lat="-27.2741163" lon="151.2900864">
  <ele>369.44</ele>
  <time>2026-09-01T20:03:52Z</time>
  <course>7.11</course>
  <speed>18.89</speed>
  <fix>3d</fix>
</trkpt>
<trkpt lat="-27.2740627" lon="151.2900939">
  <ele>369.76</ele>
  <time>2026-09-01T20:03:52Z</time>
  <course>7.3</course>
  <speed>23.63357992349022</speed>
  <fix>3d</fix>
</trkpt>
<trkpt lat="-27.2741163" lon="151.2900864">
  <ele>369.44</ele>
  <time>2026-09-01T20:03:52Z</time>
  <course>7.11</course>
  <speed>18.89</speed>
  <fix>3d</fix>
</trkpt>
<trkpt lat="-27.2740411" lon="151.290097">
  <ele>369.87</ele>
  <time>2026-09-01T20:03:52Z</time>
  <course>7.28</course>
  <speed>25.329149215873795</speed>
  <fix>3d</fix>
</trkpt>
<trkpt lat="-27.2740799" lon="151.2900915">
  <ele>369.6</ele>
  <time>2026-09-01T20:03:52Z</time>
  <course>7.14</course>
  <speed>22.06</speed>
  <fix>3d</fix>
</trkpt>
<trkpt lat="-27.274018" lon="151.2901003">
  <ele>370.0</ele>
  <time>2026-09-01T20:03:52Z</time>
  <course>7.24</course>
  <speed>26.99245820595079</speed>
  <fix>3d</fix>
</trkpt>
<trkpt lat="-27.2740799" lon="151.2900915">
  <ele>369.6</ele>
  <time>2026-09-01T20:03:52Z</time>
  <course>7.14</course>
  <speed>22.06</speed>
  <fix>3d</fix>
</trkpt>
<trkpt lat="-27.2739935" lon="151.2901037">
  <ele>370.14</ele>
  <time>2026-09-01T20:03:52Z</time>
  <course>7.25</course>
  <speed>28.60616192361359</speed>
  <fix>3d</fix>
</trkpt>
<trkpt lat="-27.2740376" lon="151.2900975">
  <ele>369.81</ele>
  <time>2026-09-01T20:03:52Z</time>
  <course>7.17</course>
  <speed>25.45</speed>
  <fix>3d</fix>
</trkpt>
<trkpt lat="-27.2739675" lon="151.2901074">
  <ele>370.29</ele>
  <time>2026-09-01T20:03:52Z</time>
  <course>7.29</course>
  <speed>30.17767386661868</speed>
  <fix>3d</fix>
</trkpt>
<trkpt lat="-27.2740376" lon="151.2900975">
  <ele>369.81</ele>
  <time>2026-09-01T20:03:52Z</time>
  <course>7.17</course>
  <speed>25.45</speed>
  <fix>3d</fix>
</trkpt>
<trkpt lat="-27.2739402" lon="151.2901113">
  <ele>370.43</ele>
  <time>2026-09-01T20:03:52Z</time>
  <course>7.35</course>
  <speed>31.700834373877292</speed>
  <fix>3d</fix>
</trkpt>
<trkpt lat="-27.2739892" lon="151.2901044">
  <ele>370.06</ele>
  <time>2026-09-01T20:03:52Z</time>
  <course>7.18</course>
  <speed>28.75</speed>
  <fix>3d</fix>
</trkpt>
<trkpt lat="-27.2739119" lon="151.2901153">
  <ele>370.58</ele>
  <time>2026-09-01T20:03:52Z</time>
  <course>7.34</course>
  <speed>31.84349541115108</speed>
  <fix>3d</fix>
</trkpt>
<trkpt lat="-27.2739892" lon="151.2901044">
  <ele>370.06</ele>
  <time>2026-09-01T20:03:52Z</time>
  <course>7.18</course>
  <speed>28.75</speed>
  <fix>3d</fix>
</trkpt>
<trkpt lat="-27.2738842" lon="151.2901193">
  <ele>370.73</ele>
  <time>2026-09-01T20:03:52Z</time>
  <course>7.28</course>
  <speed>31.28780113718444</speed>
  <fix>3d</fix>
</trkpt>
<trkpt lat="-27.2739354" lon="151.290112">
  <ele>370.34</ele>
  <time>2026-09-01T20:03:52Z</time>
  <course>7.2</course>
  <speed>31.19</speed>
  <fix>3d</fix>
</trkpt>
<trkpt lat="-27.2738569" lon="151.2901232">
  <ele>370.89</ele>
  <time>2026-09-01T20:03:52Z</time>
  <course>7.28</course>
  <speed>30.672583849424882</speed>
  <fix>3d</fix>
</trkpt>
<trkpt lat="-27.2739354" lon="151.290112">
  <ele>370.34</ele>
  <time>2026-09-01T20:03:52Z</time>
  <course>7.2</course>
  <speed>31.19</speed>
  <fix>3d</fix>
</trkpt>
<trkpt lat="-27.27383" lon="151.290127">
  <ele>371.03</ele>
  <time>2026-09-01T20:03:52Z</time>
  <course>7.29</course>
  <speed>30.077208979557927</speed>
  <fix>3d</fix>
</trkpt>
<trkpt lat="-27.2738791" lon="151.29012">
  <ele>370.62</ele>
  <time>2026-09-01T20:03:52Z</time>
  <course>7.21</course>
  <speed>31.46</speed>
  <fix>3d</fix>
</trkpt>
<trkpt lat="-27.2738037" lon="151.2901307">
  <ele>371.16</ele>
  <time>2026-09-01T20:03:52Z</time>
  <course>7.3</course>
  <speed>29.51159941446753</speed>
  <fix>3d</fix>
</trkpt>
<trkpt lat="-27.2738791" lon="151.29012">
  <ele>370.62</ele>
  <time>2026-09-01T20:03:52Z</time>
  <course>7.21</course>
  <speed>31.46</speed>
  <fix>3d</fix>
</trkpt>
<trkpt lat="-27.2737777" lon="151.2901344">
  <ele>371.26</ele>
  <time>2026-09-01T20:03:52Z</time>
  <course>7.3</course>
  <speed>28.967084768750894</speed>
  <fix>3d</fix>
</trkpt>
<trkpt lat="-27.273824" lon="151.2901278">
  <ele>370.89</ele>
  <time>2026-09-01T20:03:52Z</time>
  <course>7.19</course>
  <speed>30.33</speed>
  <fix>3d</fix>
</trkpt>
<trkpt lat="-27.2737521" lon="151.290138">
  <ele>371.34</ele>
  <time>2026-09-01T20:03:52Z</time>
  <course>7.29</course>
  <speed>28.46350646002702</speed>
  <fix>3d</fix>
</trkpt>
<trkpt lat="-27.273824" lon="151.2901278">
  <ele>370.89</ele>
  <time>2026-09-01T20:03:52Z</time>
  <course>7.19</course>
  <speed>30.33</speed>
  <fix>3d</fix>
</trkpt>
<trkpt lat="-27.273727" lon="151.2901416">
  <ele>371.4</ele>
  <time>2026-09-01T20:03:52Z</time>
  <course>7.29</course>
  <speed>27.96860025099576</speed>
  <fix>3d</fix>
</trkpt>
<trkpt lat="-27.2737708" lon="151.2901354">
  <ele>371.11</ele>
  <time>2026-09-01T20:03:52Z</time>
  <course>7.18</course>
  <speed>29.24</speed>
  <fix>3d</fix>
</trkpt>
<trkpt lat="-27.2737022" lon="151.2901451">
  <ele>371.44</ele>
  <time>2026-09-01T20:03:52Z</time>
  <course>7.29</course>
  <speed>27.504708687786533</speed>
  <fix>3d</fix>
</trkpt>
<trkpt lat="-27.2737708" lon="151.2901354">
  <ele>371.11</ele>
  <time>2026-09-01T20:03:52Z</time>
  <course>7.18</course>
  <speed>29.24</speed>
  <fix>3d</fix>
</trkpt>
<trkpt lat="-27.2736777" lon="151.2901485">
  <ele>371.45</ele>
  <time>2026-09-01T20:03:52Z</time>
  <course>7.3</course>
  <speed>27.060661484893526</speed>
  <fix>3d</fix>
</trkpt>
<trkpt lat="-27.2737196" lon="151.2901427">
  <ele>371.25</ele>
  <time>2026-09-01T20:03:52Z</time>
  <course>7.17</course>
  <speed>28.24</speed>
  <fix>3d</fix>
</trkpt>
<trkpt lat="-27.2736537" lon="151.2901519">
  <ele>371.45</ele>
  <time>2026-09-01T20:03:52Z</time>
  <course>7.3</course>
  <speed>26.63770448067926</speed>
  <fix>3d</fix>
</trkpt>
<trkpt lat="-27.2737196" lon="151.2901427">
  <ele>371.25</ele>
  <time>2026-09-01T20:03:52Z</time>
  <course>7.17</course>
  <speed>28.24</speed>
  <fix>3d</fix>
</trkpt>
<trkpt lat="-27.27363" lon="151.2901553">
  <ele>371.43</ele>
  <time>2026-09-01T20:03:52Z</time>
  <course>7.3</course>
  <speed>26.233347098683385</speed>
  <fix>3d</fix>
</trkpt>
<trkpt lat="-27.27367" lon="151.2901497">
  <ele>371.31</ele>
  <time>2026-09-01T20:03:52Z</time>
  <course>7.16</course>
  <speed>27.33</speed>
  <fix>3d</fix>
</trkpt>
<trkpt lat="-27.2736066" lon="151.2901586">
  <ele>371.39</ele>
  <time>2026-09-01T20:03:52Z</time>
  <course>7.3</course>
  <speed>25.850079303553404</speed>
  <fix>3d</fix>
</trkpt>
<trkpt lat="-27.27367" lon="151.2901497">
  <ele>371.31</ele>
  <time>2026-09-01T20:03:52Z</time>
  <course>7.16</course>
  <speed>27.33</speed>
  <fix>3d</fix>
</trkpt>
<trkpt lat="-27.2735837" lon="151.2901618">
  <ele>371.34</ele>
  <time>2026-09-01T20:03:52Z</time>
  <course>7.3</course>
  <speed>25.476734484623417</speed>
  <fix>3d</fix>
</trkpt>
<trkpt lat="-27.2736222" lon="151.2901565">
  <ele>371.29</ele>
  <time>2026-09-01T20:03:52Z</time>
  <course>7.15</course>
  <speed>26.49</speed>
  <fix>3d</fix>
</trkpt>
<trkpt lat="-27.2735607" lon="151.2901651">
  <ele>371.28</ele>
  <time>2026-09-01T20:03:52Z</time>
  <course>7.3</course>
  <speed>25.11455354968509</speed>
  <fix>3d</fix>
</trkpt>
<trkpt lat="-27.2736222" lon="151.2901565">
  <ele>371.29</ele>
  <time>2026-09-01T20:03:52Z</time>
  <course>7.15</course>
  <speed>26.49</speed>
  <fix>3d</fix>
</trkpt>
<trkpt lat="-27.2735382" lon="151.2901682">
  <ele>371.2</ele>
  <time>2026-09-01T20:03:52Z</time>
  <course>7.3</course>
  <speed>24.770976969025664</speed>
  <fix>3d</fix>
</trkpt>
<trkpt lat="-27.2735756" lon="151.290163">
  <ele>371.22</ele>
  <time>2026-09-01T20:03:52Z</time>
  <course>7.14</course>
  <speed>25.72</speed>
  <fix>3d</fix>
</trkpt>
<trkpt lat="-27.2735158" lon="151.2901714">
  <ele>371.12</ele>
  <time>2026-09-01T20:03:52Z</time>
  <course>7.29</course>
  <speed>25.063698849132383</speed>
  <fix>3d</fix>
</trkpt>
<trkpt lat="-27.2735756" lon="151.290163">
  <ele>371.22</ele>
  <time>2026-09-01T20:03:52Z</time>
  <course>7.14</course>
  <speed>25.72</speed>
  <fix>3d</fix>
</trkpt>
<trkpt lat="-27.2734933" lon="151.2901746">
  <ele>371.03</ele>
  <time>2026-09-01T20:03:52Z</time>
  <course>7.28</course>
  <speed>24.971914223783486</speed>
  <fix>3d</fix>
</trkpt>
<trkpt lat="-27.2735303" lon="151.2901694">
  <ele>371.09</ele>
  <time>2026-09-01T20:03:52Z</time>
  <course>7.12</course>
  <speed>25.32</speed>
  <fix>3d</fix>
</trkpt>
<trkpt lat="-27.2734709" lon="151.2901777">
  <ele>370.93</ele>
  <time>2026-09-01T20:03:52Z</time>
  <course>7.28</course>
  <speed>24.81066907602453</speed>
  <fix>3d</fix>
</trkpt>
<trkpt lat="-27.2735303" lon="151.2901694">
  <ele>371.09</ele>
  <time>2026-09-01T20:03:52Z</time>
  <course>7.12</course>
  <speed>25.32</speed>
  <fix>3d</fix>
</trkpt>
<trkpt lat="-27.2734486" lon="151.2901808">
  <ele>370.83</ele>
  <time>2026-09-01T20:03:52Z</time>
  <course>7.28</course>
  <speed>24.679193665920288</speed>
  <fix>3d</fix>
</trkpt>
<trkpt lat="-27.2734854" lon="151.2901757">
  <ele>370.93</ele>
  <time>2026-09-01T20:03:52Z</time>
  <course>7.11</course>
  <speed>25.15</speed>
  <fix>3d</fix>
</trkpt>
<trkpt lat="-27.2734264" lon="151.2901839">
  <ele>370.73</ele>
  <time>2026-09-01T20:03:52Z</time>
  <course>7.28</course>
  <speed>24.57748970094383</speed>
  <fix>3d</fix>
</trkpt>
<trkpt lat="-27.2734854" lon="151.2901757">
  <ele>370.93</ele>
  <time>2026-09-01T20:03:52Z</time>
  <course>7.11</course>
  <speed>25.15</speed>
  <fix>3d</fix>
</trkpt>
<trkpt lat="-27.2734043" lon="151.290187">
  <ele>370.63</ele>
  <time>2026-09-01T20:03:52Z</time>
  <course>7.27</course>
  <speed>24.516714706501766</speed>
  <fix>3d</fix>
</trkpt>
<trkpt lat="-27.2734408" lon="151.290182">
  <ele>370.75</ele>
  <time>2026-09-01T20:03:52Z</time>
  <course>7.09</course>
  <speed>24.88</speed>
  <fix>3d</fix>
</trkpt>
<trkpt lat="-27.2733823" lon="151.2901901">
  <ele>370.52</ele>
  <time>2026-09-01T20:03:52Z</time>
  <course>7.28</course>
  <speed>24.465863974117077</speed>
  <fix>3d</fix>
</trkpt>
<trkpt lat="-27.2734408" lon="151.290182">
  <ele>370.75</ele>
  <time>2026-09-01T20:03:52Z</time>
  <course>7.09</course>
  <speed>24.88</speed>
  <fix>3d</fix>
</trkpt>
<trkpt lat="-27.2733603" lon="151.2901932">
  <ele>370.42</ele>
  <time>2026-09-01T20:03:52Z</time>
  <course>7.32</course>
  <speed>24.436092158935725</speed>
  <fix>3d</fix>
</trkpt>
<trkpt lat="-27.2733967" lon="151.2901882">
  <ele>370.55</ele>
  <time>2026-09-01T20:03:52Z</time>
  <course>7.08</course>
  <speed>24.69</speed>
  <fix>3d</fix>
</trkpt>
<trkpt lat="-27.2733384" lon="151.2901963">
  <ele>370.31</ele>
  <time>2026-09-01T20:03:52Z</time>
  <course>7.32</course>
  <speed>24.406320902585872</speed>
  <fix>3d</fix>
</trkpt>
<trkpt lat="-27.2733967" lon="151.2901882">
  <ele>370.55</ele>
  <time>2026-09-01T20:03:52Z</time>
  <course>7.08</course>
  <speed>24.69</speed>
  <fix>3d</fix>
</trkpt>
<trkpt lat="-27.2733164" lon="151.2901993">
  <ele>370.22</ele>
  <time>2026-09-01T20:03:52Z</time>
  <course>7.33</course>
  <speed>24.416244592483913</speed>
  <fix>3d</fix>
</trkpt>
<trkpt lat="-27.2733526" lon="151.2901943">
  <ele>370.35</ele>
  <time>2026-09-01T20:03:52Z</time>
  <course>7.07</course>
  <speed>24.6</speed>
  <fix>3d</fix>
</trkpt>
<trkpt lat="-27.2732945" lon="151.2902024">
  <ele>370.13</ele>
  <time>2026-09-01T20:03:52Z</time>
  <course>7.32</course>
  <speed>24.42616834462581</speed>
  <fix>3d</fix>
</trkpt>
<trkpt lat="-27.2733526" lon="151.2901943">
  <ele>370.35</ele>
  <time>2026-09-01T20:03:52Z</time>
  <course>7.07</course>
  <speed>24.6</speed>
  <fix>3d</fix>
</trkpt>
<trkpt lat="-27.2732725" lon="151.2902055">
  <ele>370.05</ele>
  <time>2026-09-01T20:03:52Z</time>
  <course>7.35</course>
  <speed>24.457172772011077</speed>
  <fix>3d</fix>
</trkpt>
<trkpt lat="-27.2733088" lon="151.2902004">
  <ele>370.16</ele>
  <time>2026-09-01T20:03:52Z</time>
  <course>7.06</course>
  <speed>24.56</speed>
  <fix>3d</fix>
</trkpt>
<trkpt lat="-27.2732506" lon="151.2902085">
  <ele>369.98</ele>
  <time>2026-09-01T20:03:53Z</time>
  <course>7.37</course>
  <speed>24.496867146637342</speed>
  <fix>3d</fix>
</trkpt>
<trkpt lat="-27.2733088" lon="151.2902004">
  <ele>370.16</ele>
  <time>2026-09-01T20:03:53Z</time>
  <course>7.06</course>
  <speed>24.56</speed>
  <fix>3d</fix>
</trkpt>
<trkpt lat="-27.2732286" lon="151.2902116">
  <ele>369.93</ele>
  <time>2026-09-01T20:03:53Z</time>
  <course>7.35</course>
  <speed>24.537795336989834</speed>
  <fix>3d</fix>
</trkpt>
<trkpt lat="-27.273265" lon="151.2902065">
  <ele>370.01</ele>
  <time>2026-09-01T20:03:53Z</time>
  <course>7.06</course>
  <speed>24.59</speed>
  <fix>3d</fix>
</trkpt>
<trkpt lat="-27.2732065" lon="151.2902147">
  <ele>369.89</ele>
  <time>2026-09-01T20:03:53Z</time>
  <course>7.33</course>
  <speed>24.55764239498572</speed>
  <fix>3d</fix>
</trkpt>
<trkpt lat="-27.273265" lon="151.2902065">
  <ele>370.01</ele>
  <time>2026-09-01T20:03:53Z</time>
  <course>7.06</course>
  <speed>24.59</speed>
  <fix>3d</fix>
</trkpt>
<trkpt lat="-27.2731844" lon="151.2902178">
  <ele>369.86</ele>
  <time>2026-09-01T20:03:53Z</time>
  <course>7.32</course>
  <speed>24.588647787139493</speed>
  <fix>3d</fix>
</trkpt>
<trkpt lat="-27.2732211" lon="151.2902126">
  <ele>369.9</ele>
  <time>2026-09-01T20:03:53Z</time>
  <course>7.07</course>
  <speed>24.64</speed>
  <fix>3d</fix>
</trkpt>
<trkpt lat="-27.2731624" lon="151.2902209">
  <ele>369.85</ele>
  <time>2026-09-01T20:03:53Z</time>
  <course>7.34</course>
  <speed>24.607261123497675</speed>
  <fix>3d</fix>
</trkpt>
<trkpt lat="-27.2732211" lon="151.2902126">
  <ele>369.9</ele>
  <time>2026-09-01T20:03:53Z</time>
  <course>7.07</course>
  <speed>24.64</speed>
  <fix>3d</fix>
</trkpt>
<trkpt lat="-27.2731403" lon="151.2902239">
  <ele>369.85</ele>
  <time>2026-09-01T20:03:53Z</time>
  <course>7.33</course>
  <speed>24.617185054347704</speed>
  <fix>3d</fix>
</trkpt>
<trkpt lat="-27.2731771" lon="151.2902188">
  <ele>369.84</ele>
  <time>2026-09-01T20:03:53Z</time>
  <course>7.06</course>
  <speed>24.69</speed>
  <fix>3d</fix>
</trkpt>
<trkpt lat="-27.2731184" lon="151.290227">
  <ele>369.87</ele>
  <time>2026-09-01T20:03:53Z</time>
  <course>7.35</course>
  <speed>24.617185054347704</speed>
  <fix>3d</fix>
</trkpt>
<trkpt lat="-27.2731771" lon="151.2902188">
  <ele>369.84</ele>
  <time>2026-09-01T20:03:53Z</time>
  <course>7.06</course>
  <speed>24.69</speed>
  <fix>3d</fix>
</trkpt>
<trkpt lat="-27.2730963" lon="151.2902301">
  <ele>369.9</ele>
  <time>2026-09-01T20:03:53Z</time>
  <course>7.38</course>
  <speed>24.60603178084593</speed>
  <fix>3d</fix>
</trkpt>
<trkpt lat="-27.2731331" lon="151.2902249">
  <ele>369.85</ele>
  <time>2026-09-01T20:03:53Z</time>
  <course>7.05</course>
  <speed>24.7</speed>
  <fix>3d</fix>
</trkpt>
<trkpt lat="-27.2730743" lon="151.2902331">
  <ele>369.95</ele>
  <time>2026-09-01T20:03:53Z</time>
  <course>7.37</course>
  <speed>24.57625886907932</speed>
  <fix>3d</fix>
</trkpt>
<trkpt lat="-27.2731331" lon="151.2902249">
  <ele>369.85</ele>
  <time>2026-09-01T20:03:53Z</time>
  <course>7.05</course>
  <speed>24.7</speed>
  <fix>3d</fix>
</trkpt>
<trkpt lat="-27.2730523" lon="151.2902362">
  <ele>370.0</ele>
  <time>2026-09-01T20:03:53Z</time>
  <course>7.36</course>
  <speed>24.545258197867874</speed>
  <fix>3d</fix>
</trkpt>
<trkpt lat="-27.2730891" lon="151.290231">
  <ele>369.91</ele>
  <time>2026-09-01T20:03:53Z</time>
  <course>7.03</course>
  <speed>24.67</speed>
  <fix>3d</fix>
</trkpt>
<trkpt lat="-27.2730301" lon="151.2902392">
  <ele>370.06</ele>
  <time>2026-09-01T20:03:53Z</time>
  <course>7.38</course>
  <speed>24.50556059346531</speed>
  <fix>3d</fix>
</trkpt>
<trkpt lat="-27.2730891" lon="151.290231">
  <ele>369.91</ele>
  <time>2026-09-01T20:03:53Z</time>
  <course>7.03</course>
  <speed>24.67</speed>
  <fix>3d</fix>
</trkpt>
<trkpt lat="-27.2730082" lon="151.2902423">
  <ele>370.12</ele>
  <time>2026-09-01T20:03:53Z</time>
  <course>7.41</course>
  <speed>24.464635701354723</speed>
  <fix>3d</fix>
</trkpt>
<trkpt lat="-27.2730451" lon="151.2902371">
  <ele>370.01</ele>
  <time>2026-09-01T20:03:53Z</time>
  <course>7.02</course>
  <speed>24.61</speed>
  <fix>3d</fix>
</trkpt>
<trkpt lat="-27.2729863" lon="151.2902453">
  <ele>370.19</ele>
  <time>2026-09-01T20:03:53Z</time>
  <course>7.39</course>
  <speed>24.423711839112414</speed>
  <fix>3d</fix>
</trkpt>
<trkpt lat="-27.2730451" lon="151.2902371">
  <ele>370.01</ele>
  <time>2026-09-01T20:03:53Z</time>
  <course>7.02</course>
  <speed>24.61</speed>
  <fix>3d</fix>
</trkpt>
<trkpt lat="-27.2729645" lon="151.2902483">
  <ele>370.26</ele>
  <time>2026-09-01T20:03:53Z</time>
  <course>7.36</course>
  <speed>24.36293906736213</speed>
  <fix>3d</fix>
</trkpt>
<trkpt lat="-27.2730013" lon="151.2902432">
  <ele>370.13</ele>
  <time>2026-09-01T20:03:53Z</time>
  <course>7.02</course>
  <speed>24.51</speed>
  <fix>3d</fix>
</trkpt>
<trkpt lat="-27.2729425" lon="151.2902514">
  <ele>370.33</ele>
  <time>2026-09-01T20:03:53Z</time>
  <course>7.35</course>
  <speed>24.302166570081774</speed>
  <fix>3d</fix>
</trkpt>
<trkpt lat="-27.2730013" lon="151.2902432">
  <ele>370.13</ele>
  <time>2026-09-01T20:03:53Z</time>
  <course>7.02</course>
  <speed>24.51</speed>
  <fix>3d</fix>
</trkpt>
<trkpt lat="-27.2729208" lon="151.2902544">
  <ele>370.39</ele>
  <time>2026-09-01T20:03:53Z</time>
  <course>7.33</course>
  <speed>24.2413943493356</speed>
  <fix>3d</fix>
</trkpt>
<trkpt lat="-27.2729577" lon="151.2902493">
  <ele>370.27</ele>
  <time>2026-09-01T20:03:53Z</time>
  <course>7.01</course>
  <speed>24.4</speed>
  <fix>3d</fix>
</trkpt>
<trkpt lat="-27.2728991" lon="151.2902574">
  <ele>370.46</ele>
  <time>2026-09-01T20:03:53Z</time>
  <course>7.34</course>
  <speed>24.18062240720863</speed>
  <fix>3d</fix>
</trkpt>
<trkpt lat="-27.2729577" lon="151.2902493">
  <ele>370.27</ele>
  <time>2026-09-01T20:03:53Z</time>
  <course>7.01</course>
  <speed>24.4</speed>
  <fix>3d</fix>
</trkpt>
<trkpt lat="-27.2728775" lon="151.2902604">
  <ele>370.52</ele>
  <time>2026-09-01T20:03:53Z</time>
  <course>7.35</course>
  <speed>24.119850745806865</speed>
  <fix>3d</fix>
</trkpt>
<trkpt lat="-27.2729143" lon="151.2902553">
  <ele>370.41</ele>
  <time>2026-09-01T20:03:53Z</time>
  <course>7.0</course>
  <speed>24.27</speed>
  <fix>3d</fix>
</trkpt>
<trkpt lat="-27.2728559" lon="151.2902633">
  <ele>370.59</ele>
  <time>2026-09-01T20:03:53Z</time>
  <course>7.35</course>
  <speed>24.049153831268157</speed>
  <fix>3d</fix>
</trkpt>
<trkpt lat="-27.2729143" lon="151.2902553">
  <ele>370.41</ele>
  <time>2026-09-01T20:03:53Z</time>
  <course>7.0</course>
  <speed>24.27</speed>
  <fix>3d</fix>
</trkpt>
<trkpt lat="-27.2728344" lon="151.2902663">
  <ele>370.65</ele>
  <time>2026-09-01T20:03:53Z</time>
  <course>7.34</course>
  <speed>23.97845699789709</speed>
  <fix>3d</fix>
</trkpt>
<trkpt lat="-27.2728711" lon="151.2902612">
  <ele>370.54</ele>
  <time>2026-09-01T20:03:53Z</time>
  <course>6.99</course>
  <speed>24.13</speed>
  <fix>3d</fix>
</trkpt>
<trkpt lat="-27.272813" lon="151.2902693">
  <ele>370.71</ele>
  <time>2026-09-01T20:03:53Z</time>
  <course>7.33</course>
  <speed>23.907760246413712</speed>
  <fix>3d</fix>
</trkpt>
<trkpt lat="-27.2728711" lon="151.2902612">
  <ele>370.54</ele>
  <time>2026-09-01T20:03:53Z</time>
  <course>6.99</course>
  <speed>24.13</speed>
  <fix>3d</fix>
</trkpt>
<trkpt lat="-27.2727916" lon="151.2902722">
  <ele>370.77</ele>
  <time>2026-09-01T20:03:53Z</time>
  <course>7.32</course>
  <speed>23.83706357754663</speed>
  <fix>3d</fix>
</trkpt>
<trkpt lat="-27.2728281" lon="151.2902671">
  <ele>370.66</ele>
  <time>2026-09-01T20:03:53Z</time>
  <course>6.98</course>
  <speed>23.98</speed>
  <fix>3d</fix>
</trkpt>
<trkpt lat="-27.2727703" lon="151.2902751">
  <ele>370.83</ele>
  <time>2026-09-01T20:03:53Z</time>
  <course>7.33</course>
  <speed>23.76636699203309</speed>
  <fix>3d</fix>
</trkpt>
<trkpt lat="-27.2728281" lon="151.2902671">
  <ele>370.66</ele>
  <time>2026-09-01T20:03:53Z</time>
  <course>6.98</course>
  <speed>23.98</speed>
  <fix>3d</fix>
</trkpt>
<trkpt lat="-27.272749" lon="151.290278">
  <ele>370.89</ele>
  <time>2026-09-01T20:03:53Z</time>
  <course>7.34</course>
  <speed>23.695670490619168</speed>
  <fix>3d</fix>
</trkpt>
<trkpt lat="-27.2727855" lon="151.290273">
  <ele>370.79</ele>
  <time>2026-09-01T20:03:53Z</time>
  <course>6.96</course>
  <speed>23.83</speed>
  <fix>3d</fix>
</trkpt>
<trkpt lat="-27.2727279" lon="151.290281">
  <ele>370.95</ele>
  <time>2026-09-01T20:03:53Z</time>
  <course>7.37</course>
  <speed>23.61504816848782</speed>
  <fix>3d</fix>
</trkpt>
<trkpt lat="-27.2727855" lon="151.290273">
  <ele>370.79</ele>
  <time>2026-09-01T20:03:53Z</time>
  <course>6.96</course>
  <speed>23.83</speed>
  <fix>3d</fix>
</trkpt>
<trkpt lat="-27.2727068" lon="151.2902839">
  <ele>371.02</ele>
  <time>2026-09-01T20:03:53Z</time>
  <course>7.4</course>
  <speed>23.544351764276712</speed>
  <fix>3d</fix>
</trkpt>
<trkpt lat="-27.2727432" lon="151.2902789">
  <ele>370.91</ele>
  <time>2026-09-01T20:03:53Z</time>
  <course>6.96</course>
  <speed>23.67</speed>
  <fix>3d</fix>
</trkpt>
<trkpt lat="-27.2726857" lon="151.2902867">
  <ele>371.08</ele>
  <time>2026-09-01T20:03:53Z</time>
  <course>7.41</course>
  <speed>23.463729456333237</speed>
  <fix>3d</fix>
</trkpt>
<trkpt lat="-27.2727432" lon="151.2902789">
  <ele>370.91</ele>
  <time>2026-09-01T20:03:53Z</time>
  <course>6.96</course>
  <speed>23.67</speed>
  <fix>3d</fix>
</trkpt>
<trkpt lat="-27.272665" lon="151.2902896">
  <ele>371.14</ele>
  <time>2026-09-01T20:03:53Z</time>
  <course>7.4</course>
  <speed>23.3930331509191</speed>
  <fix>3d</fix>
</trkpt>
<trkpt lat="-27.2727011" lon="151.2902846">
  <ele>371.03</ele>
  <time>2026-09-01T20:03:53Z</time>
  <course>6.96</course>
  <speed>23.51</speed>
  <fix>3d</fix>
</trkpt>
<trkpt lat="-27.2726441" lon="151.2902925">
  <ele>371.21</ele>
  <time>2026-09-01T20:03:53Z</time>
  <course>7.38</course>
  <speed>23.3136269164624</speed>
  <fix>3d</fix>
</trkpt>
<trkpt lat="-27.2727011" lon="151.2902846">
  <ele>371.03</ele>
  <time>2026-09-01T20:03:53Z</time>
  <course>6.96</course>
  <speed>23.51</speed>
  <fix>3d</fix>
</trkpt>
<trkpt lat="-27.2726233" lon="151.2902953">
  <ele>371.27</ele>
  <time>2026-09-01T20:03:53Z</time>
  <course>7.37</course>
  <speed>23.233004540954234</speed>
  <fix>3d</fix>
</trkpt>
<trkpt lat="-27.2726593" lon="151.2902904">
  <ele>371.16</ele>
  <time>2026-09-01T20:03:53Z</time>
  <course>6.97</course>
  <speed>23.35</speed>
  <fix>3d</fix>
</trkpt>
<trkpt lat="-27.2726026" lon="151.2902982">
  <ele>371.34</ele>
  <time>2026-09-01T20:03:53Z</time>
  <course>7.38</course>
  <speed>23.15238216685272</speed>
  <fix>3d</fix>
</trkpt>
<trkpt lat="-27.2726593" lon="151.2902904">
  <ele>371.16</ele>
  <time>2026-09-01T20:03:53Z</time>
  <course>6.97</course>
  <speed>23.35</speed>
  <fix>3d</fix>
</trkpt>
<trkpt lat="-27.2725818" lon="151.2903011">
  <ele>371.41</ele>
  <time>2026-09-01T20:03:53Z</time>
  <course>7.36</course>
  <speed>23.061834272234286</speed>
  <fix>3d</fix>
</trkpt>
<trkpt lat="-27.2726178" lon="151.2902961">
  <ele>371.3</ele>
  <time>2026-09-01T20:03:53Z</time>
  <course>6.98</course>
  <speed>23.18</speed>
  <fix>3d</fix>
</trkpt>
<trkpt lat="-27.2725612" lon="151.2903039">
  <ele>371.48</ele>
  <time>2026-09-01T20:03:53Z</time>
  <course>7.36</course>
  <speed>22.981211891456027</speed>
  <fix>3d</fix>
</trkpt>
<trkpt lat="-27.2726178" lon="151.2902961">
  <ele>371.3</ele>
  <time>2026-09-01T20:03:53Z</time>
  <course>6.98</course>
  <speed>23.18</speed>
  <fix>3d</fix>
</trkpt>
<trkpt lat="-27.2725408" lon="151.2903067">
  <ele>371.55</ele>
  <time>2026-09-01T20:03:53Z</time>
  <course>7.42</course>
  <speed>22.890664035802892</speed>
  <fix>3d</fix>
</trkpt>
<trkpt lat="-27.2725767" lon="151.2903018">
  <ele>371.43</ele>
  <time>2026-09-01T20:03:53Z</time>
  <course>6.99</course>
  <speed>23.01</speed>
  <fix>3d</fix>
</trkpt>
<trkpt lat="-27.2725204" lon="151.2903095">
  <ele>371.62</ele>
  <time>2026-09-01T20:03:53Z</time>
  <course>7.43</course>
  <speed>22.800116227773927</speed>
  <fix>3d</fix>
</trkpt>
<trkpt lat="-27.2725767" lon="151.2903018">
  <ele>371.43</ele>
  <time>2026-09-01T20:03:53Z</time>
  <course>6.99</course>
  <speed>23.01</speed>
  <fix>3d</fix>
</trkpt>
<trkpt lat="-27.2725001" lon="151.2903123">
  <ele>371.7</ele>
  <time>2026-09-01T20:03:53Z</time>
  <course>7.42</course>
  <speed>22.71949383238984</speed>
  <fix>3d</fix>
</trkpt>
<trkpt lat="-27.2725358" lon="151.2903074">
  <ele>371.57</ele>
  <time>2026-09-01T20:03:53Z</time>
  <course>6.99</course>
  <speed>22.83</speed>
  <fix>3d</fix>
</trkpt>
<trkpt lat="-27.2724799" lon="151.2903151">
  <ele>371.77</ele>
  <time>2026-09-01T20:03:53Z</time>
  <course>7.45</course>
  <speed>22.628946064719848</speed>
  <fix>3d</fix>
</trkpt>
<trkpt lat="-27.2725358" lon="151.2903074">
  <ele>371.57</ele>
  <time>2026-09-01T20:03:53Z</time>
  <course>6.99</course>
  <speed>22.83</speed>
  <fix>3d</fix>
</trkpt>
<trkpt lat="-27.2724597" lon="151.2903179">
  <ele>371.84</ele>
  <time>2026-09-01T20:03:53Z</time>
  <course>7.5</course>
  <speed>22.548323662747084</speed>
  <fix>3d</fix>
</trkpt>
<trkpt lat="-27.2724952" lon="151.290313">
  <ele>371.72</ele>
  <time>2026-09-01T20:03:53Z</time>
  <course>7.0</course>
  <speed>22.66</speed>
  <fix>3d</fix>
</trkpt>
<trkpt lat="-27.2724397" lon="151.2903207">
  <ele>371.91</ele>
  <time>2026-09-01T20:03:53Z</time>
  <course>7.5</course>
  <speed>22.45777593618745</speed>
  <fix>3d</fix>
</trkpt>
<trkpt lat="-27.2724952" lon="151.290313">
  <ele>371.72</ele>
  <time>2026-09-01T20:03:53Z</time>
  <course>7.0</course>
  <speed>22.66</speed>
  <fix>3d</fix>
</trkpt>
<trkpt lat="-27.2724197" lon="151.2903235">
  <ele>371.99</ele>
  <time>2026-09-01T20:03:53Z</time>
  <course>7.47</course>
  <speed>22.36845099688398</speed>
  <fix>3d</fix>
</trkpt>
<trkpt lat="-27.2724549" lon="151.2903185">
  <ele>371.86</ele>
  <time>2026-09-01T20:03:53Z</time>
  <course>7.01</course>
  <speed>22.48</speed>
  <fix>3d</fix>
</trkpt>
<trkpt lat="-27.2723998" lon="151.2903262">
  <ele>372.06</ele>
  <time>2026-09-01T20:03:53Z</time>
  <course>7.46</course>
  <speed>22.287828516928247</speed>
  <fix>3d</fix>
</trkpt>
<trkpt lat="-27.2724549" lon="151.2903185">
  <ele>371.86</ele>
  <time>2026-09-01T20:03:53Z</time>
  <course>7.01</course>
  <speed>22.48</speed>
  <fix>3d</fix>
</trkpt>
<trkpt lat="-27.2723799" lon="151.290329">
  <ele>372.12</ele>
  <time>2026-09-01T20:03:53Z</time>
  <course>7.59</course>
  <speed>22.196058208609927</speed>
  <fix>3d</fix>
</trkpt>
<trkpt lat="-27.2724149" lon="151.2903241">
  <ele>372.0</ele>
  <time>2026-09-01T20:03:53Z</time>
  <course>7.02</course>
  <speed>22.31</speed>
  <fix>3d</fix>
</trkpt>
<trkpt lat="-27.2723793" lon="151.2903291">
  <ele>372.13</ele>
  <time>2026-09-01T20:03:53Z</time>
  <course>7.6</course>
  <speed>22.196058208609927</speed>
  <fix>3d</fix>
</trkpt>
<trkpt lat="-27.27236" lon="151.2903317">
  <ele>372.19</ele>
  <time>2026-09-01T20:03:53Z</time>
  <course>8.11</course>
  <speed>22.106734268091248</speed>
  <fix>3d</fix>
</trkpt>
<trkpt lat="-27.2724149" lon="151.2903241">
  <ele>372.0</ele>
  <time>2026-09-01T20:03:53Z</time>
  <course>7.02</course>
  <speed>22.31</speed>
  <fix>3d</fix>
</trkpt>
<trkpt lat="-27.2723594" lon="151.2903318">
  <ele>372.19</ele>
  <time>2026-09-01T20:03:53Z</time>
  <course>8.14</course>
  <speed>22.096809724482856</speed>
  <fix>3d</fix>
</trkpt>
<trkpt lat="-27.2723404" lon="151.2903345">
  <ele>372.26</ele>
  <time>2026-09-01T20:03:53Z</time>
  <course>9.08</course>
  <speed>22.002531672514415</speed>
  <fix>3d</fix>
</trkpt>
<trkpt lat="-27.2723753" lon="151.2903296">
  <ele>372.13</ele>
  <time>2026-09-01T20:03:53Z</time>
  <course>7.04</course>
  <speed>22.13</speed>
  <fix>3d</fix>
</trkpt>
<trkpt lat="-27.2723397" lon="151.2903346">
  <ele>372.26</ele>
  <time>2026-09-01T20:03:53Z</time>
  <course>9.12</course>
  <speed>21.993862780330332</speed>
  <fix>3d</fix>
</trkpt>
<trkpt lat="-27.2723208" lon="151.2903373">
  <ele>372.32</ele>
  <time>2026-09-01T20:03:53Z</time>
  <course>10.19</course>
  <speed>21.892921230388602</speed>
  <fix>3d</fix>
</trkpt>
<trkpt lat="-27.2723753" lon="151.2903296">
  <ele>372.13</ele>
  <time>2026-09-01T20:03:53Z</time>
  <course>7.04</course>
  <speed>22.13</speed>
  <fix>3d</fix>
</trkpt>
<trkpt lat="-27.2723202" lon="151.2903374">
  <ele>372.32</ele>
  <time>2026-09-01T20:03:53Z</time>
  <course>10.23</course>
  <speed>21.884336864524823</speed>
  <fix>3d</fix>
</trkpt>
<trkpt lat="-27.2723014" lon="151.2903404">
  <ele>372.38</ele>
  <time>2026-09-01T20:03:53Z</time>
  <course>11.02</course>
  <speed>21.784824993559162</speed>
  <fix>3d</fix>
</trkpt>
<trkpt lat="-27.272336" lon="151.2903351">
  <ele>372.26</ele>
  <time>2026-09-01T20:03:53Z</time>
  <course>7.34</course>
  <speed>21.93</speed>
  <fix>3d</fix>
</trkpt>
<trkpt lat="-27.2723007" lon="151.2903405">
  <ele>372.38</ele>
  <time>2026-09-01T20:03:53Z</time>
  <course>11.04</course>
  <speed>21.776400069800335</speed>
  <fix>3d</fix>
</trkpt>
<trkpt lat="-27.2722821" lon="151.2903438">
  <ele>372.42</ele>
  <time>2026-09-01T20:03:53Z</time>
  <course>11.57</course>
  <speed>21.680968613048634</speed>
  <fix>3d</fix>
</trkpt>
<trkpt lat="-27.272336" lon="151.2903351">
  <ele>372.26</ele>
  <time>2026-09-01T20:03:53Z</time>
  <course>7.34</course>
  <speed>21.93</speed>
  <fix>3d</fix>
</trkpt>
<trkpt lat="-27.2722814" lon="151.2903439">
  <ele>372.43</ele>
  <time>2026-09-01T20:03:53Z</time>
  <course>11.58</course>
  <speed>21.68263129788449</speed>
  <fix>3d</fix>
</trkpt>
<trkpt lat="-27.2722629" lon="151.2903477">
  <ele>372.45</ele>
  <time>2026-09-01T20:03:53Z</time>
  <course>12.05</course>
  <speed>21.61435865345072</speed>
  <fix>3d</fix>
</trkpt>
<trkpt lat="-27.2722971" lon="151.2903412">
  <ele>372.38</ele>
  <time>2026-09-01T20:03:53Z</time>
  <course>8.6</course>
  <speed>21.72</speed>
  <fix>3d</fix>
</trkpt>
<trkpt lat="-27.2722623" lon="151.2903479">
  <ele>372.45</ele>
  <time>2026-09-01T20:03:53Z</time>
  <course>12.07</course>
  <speed>21.616262396630923</speed>
  <fix>3d</fix>
</trkpt>
<trkpt lat="-27.2722441" lon="151.2903521">
  <ele>372.45</ele>
  <time>2026-09-01T20:03:53Z</time>
  <course>12.69</course>
  <speed>21.609539560110946</speed>
  <fix>3d</fix>
</trkpt>
<trkpt lat="-27.2722971" lon="151.2903412">
  <ele>372.38</ele>
  <time>2026-09-01T20:03:53Z</time>
  <course>8.6</course>
  <speed>21.72</speed>
  <fix>3d</fix>
</trkpt>
<trkpt lat="-27.2722427" lon="151.2903525">
  <ele>372.45</ele>
  <time>2026-09-01T20:03:53Z</time>
  <course>12.76</course>
  <speed>21.610738071616154</speed>
  <fix>3d</fix>
</trkpt>
<trkpt lat="-27.2722252" lon="151.2903572">
  <ele>372.41</ele>
  <time>2026-09-01T20:03:53Z</time>
  <course>13.85</course>
  <speed>21.680982450064388</speed>
  <fix>3d</fix>
</trkpt>
<trkpt lat="-27.2722589" lon="151.2903486">
  <ele>372.44</ele>
  <time>2026-09-01T20:03:53Z</time>
  <course>11.11</course>
  <speed>21.58</speed>
  <fix>3d</fix>
</trkpt>
<trkpt lat="-27.2722244" lon="151.2903575">
  <ele>372.41</ele>
  <time>2026-09-01T20:03:53Z</time>
  <course>13.91</course>
  <speed>21.681358352280423</speed>
  <fix>3d</fix>
</trkpt>
<trkpt lat="-27.2722063" lon="151.2903631">
  <ele>372.35</ele>
  <time>2026-09-01T20:03:53Z</time>
  <course>15.73</course>
  <speed>21.85091531263622</speed>
  <fix>3d</fix>
</trkpt>
<trkpt lat="-27.2722589" lon="151.2903486">
  <ele>372.44</ele>
  <time>2026-09-01T20:03:53Z</time>
  <course>11.11</course>
  <speed>21.58</speed>
  <fix>3d</fix>
</trkpt>
<trkpt lat="-27.2722056" lon="151.2903634">
  <ele>372.35</ele>
  <time>2026-09-01T20:03:53Z</time>
  <course>15.83</course>
  <speed>21.8529311535089</speed>
  <fix>3d</fix>
</trkpt>
<trkpt lat="-27.2721876" lon="151.29037">
  <ele>372.28</ele>
  <time>2026-09-01T20:03:53Z</time>
  <course>18.43</course>
  <speed>22.095379607510708</speed>
  <fix>3d</fix>
</trkpt>
<trkpt lat="-27.2722211" lon="151.2903583">
  <ele>372.4</ele>
  <time>2026-09-01T20:03:53Z</time>
  <course>14.77</course>
  <speed>21.67</speed>
  <fix>3d</fix>
</trkpt>
<trkpt lat="-27.2721868" lon="151.2903703">
  <ele>372.27</ele>
  <time>2026-09-01T20:03:53Z</time>
  <course>18.56</course>
  <speed>22.108753922372017</speed>
  <fix>3d</fix>
</trkpt>
<trkpt lat="-27.2721688" lon="151.2903781">
  <ele>372.19</ele>
  <time>2026-09-01T20:03:53Z</time>
  <course>21.81</course>
  <speed>22.350769561695188</speed>
  <fix>3d</fix>
</trkpt>
<trkpt lat="-27.2722211" lon="151.2903583">
  <ele>372.4</ele>
  <time>2026-09-01T20:03:53Z</time>
  <course>14.77</course>
  <speed>21.67</speed>
  <fix>3d</fix>
</trkpt>
<trkpt lat="-27.2721682" lon="151.2903784">
  <ele>372.19</ele>
  <time>2026-09-01T20:03:53Z</time>
  <course>21.93</course>
  <speed>22.35696759401865</speed>
  <fix>3d</fix>
</trkpt>
<trkpt lat="-27.2721504" lon="151.2903874">
  <ele>372.12</ele>
  <time>2026-09-01T20:03:53Z</time>
  <course>25.6</course>
  <speed>22.54925497660621</speed>
  <fix>3d</fix>
</trkpt>
<trkpt lat="-27.2721836" lon="151.2903713">
  <ele>372.28</ele>
  <time>2026-09-01T20:03:53Z</time>
  <course>19.84</course>
  <speed>22.04</speed>
  <fix>3d</fix>
</trkpt>
<trkpt lat="-27.2721498" lon="151.2903878">
  <ele>372.12</ele>
  <time>2026-09-01T20:03:53Z</time>
  <course>25.73</course>
  <speed>22.56232479156348</speed>
  <fix>3d</fix>
</trkpt>
<trkpt lat="-27.2721325" lon="151.2903981">
  <ele>372.06</ele>
  <time>2026-09-01T20:03:53Z</time>
  <course>29.64</course>
  <speed>22.6834917946951</speed>
  <fix>3d</fix>
</trkpt>
<trkpt lat="-27.2721836" lon="151.2903713">
  <ele>372.28</ele>
  <time>2026-09-01T20:03:53Z</time>
  <course>19.84</course>
  <speed>22.04</speed>
  <fix>3d</fix>
</trkpt>
<trkpt lat="-27.2721319" lon="151.2903985">
  <ele>372.06</ele>
  <time>2026-09-01T20:03:53Z</time>
  <course>29.77</course>
  <speed>22.69106652407506</speed>
  <fix>3d</fix>
</trkpt>
<trkpt lat="-27.2721151" lon="151.2904101">
  <ele>372.04</ele>
  <time>2026-09-01T20:03:53Z</time>
  <course>33.91</course>
  <speed>22.753812867297647</speed>
  <fix>3d</fix>
</trkpt>
<trkpt lat="-27.2721468" lon="151.290389">
  <ele>372.13</ele>
  <time>2026-09-01T20:03:53Z</time>
  <course>26.35</course>
  <speed>22.46</speed>
  <fix>3d</fix>
</trkpt>
<trkpt lat="-27.2721145" lon="151.2904105">
  <ele>372.04</ele>
  <time>2026-09-01T20:03:53Z</time>
  <course>34.06</course>
  <speed>22.75114282843831</speed>
  <fix>3d</fix>
</trkpt>
<trkpt lat="-27.2720985" lon="151.2904235">
  <ele>372.04</ele>
  <time>2026-09-01T20:03:53Z</time>
  <course>38.35</course>
  <speed>22.761410325373078</speed>
  <fix>3d</fix>
</trkpt>
<trkpt lat="-27.2721468" lon="151.290389">
  <ele>372.13</ele>
  <time>2026-09-01T20:03:53Z</time>
  <course>26.35</course>
  <speed>22.46</speed>
  <fix>3d</fix>
</trkpt>
<trkpt lat="-27.2720974" lon="151.2904244">
  <ele>372.05</ele>
  <time>2026-09-01T20:03:53Z</time>
  <course>38.64</course>
  <speed>22.761669534548645</speed>
  <fix>3d</fix>
</trkpt>
<trkpt lat="-27.2720828" lon="151.2904382">
  <ele>372.09</ele>
  <time>2026-09-01T20:03:53Z</time>
  <course>42.8</course>
  <speed>22.7263063430906</speed>
  <fix>3d</fix>
</trkpt>
<trkpt lat="-27.2721117" lon="151.2904118">
  <ele>372.06</ele>
  <time>2026-09-01T20:03:53Z</time>
  <course>33.96</course>
  <speed>22.68</speed>
  <fix>3d</fix>
</trkpt>
<trkpt lat="-27.2720825" lon="151.2904386">
  <ele>372.09</ele>
  <time>2026-09-01T20:03:53Z</time>
  <course>42.91</course>
  <speed>22.724233760459338</speed>
  <fix>3d</fix>
</trkpt>
<trkpt lat="-27.2720682" lon="151.2904541">
  <ele>372.18</ele>
  <time>2026-09-01T20:03:53Z</time>
  <course>47.18</course>
  <speed>22.670741055377967</speed>
  <fix>3d</fix>
</trkpt>
<trkpt lat="-27.2721117" lon="151.2904118">
  <ele>372.06</ele>
  <time>2026-09-01T20:03:53Z</time>
  <course>33.96</course>
  <speed>22.68</speed>
  <fix>3d</fix>
</trkpt>
<trkpt lat="-27.2720679" lon="151.2904545">
  <ele>372.18</ele>
  <time>2026-09-01T20:03:53Z</time>
  <course>47.29</course>
  <speed>22.671905522033214</speed>
  <fix>3d</fix>
</trkpt>
<trkpt lat="-27.2720547" lon="151.2904712">
  <ele>372.3</ele>
  <time>2026-09-01T20:03:53Z</time>
  <course>51.52</course>
  <speed>22.605291415949495</speed>
  <fix>3d</fix>
</trkpt>
<trkpt lat="-27.2720797" lon="151.2904401">
  <ele>372.12</ele>
  <time>2026-09-01T20:03:53Z</time>
  <course>42.3</course>
  <speed>22.7</speed>
  <fix>3d</fix>
</trkpt>
<trkpt lat="-27.2720544" lon="151.2904716">
  <ele>372.3</ele>
  <time>2026-09-01T20:03:53Z</time>
  <course>51.63</course>
  <speed>22.603391338469546</speed>
  <fix>3d</fix>
</trkpt>
<trkpt lat="-27.2720425" lon="151.2904894">
  <ele>372.45</ele>
  <time>2026-09-01T20:03:53Z</time>
  <course>55.74</course>
  <speed>22.521745047842096</speed>
  <fix>3d</fix>
</trkpt>
<trkpt lat="-27.2720797" lon="151.2904401">
  <ele>372.12</ele>
  <time>2026-09-01T20:03:53Z</time>
  <course>42.3</course>
  <speed>22.7</speed>
  <fix>3d</fix>
</trkpt>
<trkpt lat="-27.2720421" lon="151.29049">
  <ele>372.46</ele>
  <time>2026-09-01T20:03:53Z</time>
  <course>55.88</course>
  <speed>22.517992805754247</speed>
  <fix>3d</fix>
</trkpt>
<trkpt lat="-27.2720315" lon="151.2905084">
  <ele>372.64</ele>
  <time>2026-09-01T20:03:53Z</time>
  <course>59.85</course>
  <speed>22.426007223756972</speed>
  <fix>3d</fix>
</trkpt>
<trkpt lat="-27.2720517" lon="151.2904735">
  <ele>372.33</ele>
  <time>2026-09-01T20:03:53Z</time>
  <course>51.01</course>
  <speed>22.62</speed>
  <fix>3d</fix>
</trkpt>
<trkpt lat="-27.2720312" lon="151.290509">
  <ele>372.65</ele>
  <time>2026-09-01T20:03:53Z</time>
  <course>59.99</course>
  <speed>22.42659135936623</speed>
  <fix>3d</fix>
</trkpt>
<trkpt lat="-27.2720219" lon="151.2905282">
  <ele>372.86</ele>
  <time>2026-09-01T20:03:53Z</time>
  <course>63.9</course>
  <speed>22.307272356789834</speed>
  <fix>3d</fix>
</trkpt>
<trkpt lat="-27.2720517" lon="151.2904735">
  <ele>372.33</ele>
  <time>2026-09-01T20:03:53Z</time>
  <course>51.01</course>
  <speed>22.62</speed>
  <fix>3d</fix>
</trkpt>
<trkpt lat="-27.2720216" lon="151.2905289">
  <ele>372.86</ele>
  <time>2026-09-01T20:03:53Z</time>
  <course>64.03</course>
  <speed>22.312099856355967</speed>
  <fix>3d</fix>
</trkpt>
<trkpt lat="-27.2720136" lon="151.2905486">
  <ele>373.09</ele>
  <time>2026-09-01T20:03:53Z</time>
  <course>67.86</course>
  <speed>22.170651772106293</speed>
  <fix>3d</fix>
</trkpt>
<trkpt lat="-27.2720287" lon="151.290511">
  <ele>372.67</ele>
  <time>2026-09-01T20:03:53Z</time>
  <course>59.63</course>
  <speed>22.47</speed>
  <fix>3d</fix>
</trkpt>
<trkpt lat="-27.2720133" lon="151.2905493">
  <ele>373.1</ele>
  <time>2026-09-01T20:03:53Z</time>
  <course>67.99</course>
  <speed>22.170360845056177</speed>
  <fix>3d</fix>
</trkpt>
<trkpt lat="-27.2720066" lon="151.2905695">
  <ele>373.35</ele>
  <time>2026-09-01T20:03:53Z</time>
  <course>71.69</course>
  <speed>22.012780378680016</speed>
  <fix>3d</fix>
</trkpt>
<trkpt lat="-27.2720287" lon="151.290511">
  <ele>372.67</ele>
  <time>2026-09-01T20:03:53Z</time>
  <course>59.63</course>
  <speed>22.47</speed>
  <fix>3d</fix>
</trkpt>
<trkpt lat="-27.2720062" lon="151.2905709">
  <ele>373.37</ele>
  <time>2026-09-01T20:03:53Z</time>
  <course>71.94</course>
  <speed>22.000756805164677</speed>
  <fix>3d</fix>
</trkpt>
<trkpt lat="-27.2720009" lon="151.2905907">
  <ele>373.62</ele>
  <time>2026-09-01T20:03:53Z</time>
  <course>75.38</course>
  <speed>21.840643305543907</speed>
  <fix>3d</fix>
</trkpt>
<trkpt lat="-27.272011" lon="151.2905515">
  <ele>373.12</ele>
  <time>2026-09-01T20:03:53Z</time>
  <course>67.9</course>
  <speed>22.24</speed>
  <fix>3d</fix>
</trkpt>
<trkpt lat="-27.2720007" lon="151.2905914">
  <ele>373.63</ele>
  <time>2026-09-01T20:03:53Z</time>
  <course>75.5</course>
  <speed>21.830769569577704</speed>
  <fix>3d</fix>
</trkpt>
<trkpt lat="-27.2719965" lon="151.2906122">
  <ele>373.9</ele>
  <time>2026-09-01T20:03:53Z</time>
  <course>78.94</course>
  <speed>21.652676508921477</speed>
  <fix>3d</fix>
</trkpt>
<trkpt lat="-27.272011" lon="151.2905515">
  <ele>373.12</ele>
  <time>2026-09-01T20:03:53Z</time>
  <course>67.9</course>
  <speed>22.24</speed>
  <fix>3d</fix>
</trkpt>
<trkpt lat="-27.2719964" lon="151.2906129">
  <ele>373.91</ele>
  <time>2026-09-01T20:03:53Z</time>
  <course>79.06</course>
  <speed>21.64349555871232</speed>
  <fix>3d</fix>
</trkpt>
<trkpt lat="-27.2719933" lon="151.2906337">
  <ele>374.19</ele>
  <time>2026-09-01T20:03:53Z</time>
  <course>82.34</course>
  <speed>21.443134099286887</speed>
  <fix>3d</fix>
</trkpt>
<trkpt lat="-27.2719986" lon="151.2905939">
  <ele>373.64</ele>
  <time>2026-09-01T20:03:53Z</time>
  <course>75.73</course>
  <speed>21.93</speed>
  <fix>3d</fix>
</trkpt>
<trkpt lat="-27.2719932" lon="151.2906344">
  <ele>374.2</ele>
  <time>2026-09-01T20:03:53Z</time>
  <course>82.45</course>
  <speed>21.437035709257938</speed>
  <fix>3d</fix>
</trkpt>
<trkpt lat="-27.2719913" lon="151.2906552">
  <ele>374.48</ele>
  <time>2026-09-01T20:03:53Z</time>
  <course>85.62</course>
  <speed>21.23232676839729</speed>
  <fix>3d</fix>
</trkpt>
<trkpt lat="-27.2719986" lon="151.2905939">
  <ele>373.64</ele>
  <time>2026-09-01T20:03:53Z</time>
  <course>75.73</course>
  <speed>21.93</speed>
  <fix>3d</fix>
</trkpt>
<trkpt lat="-27.2719913" lon="151.2906559">
  <ele>374.49</ele>
  <time>2026-09-01T20:03:53Z</time>
  <course>85.73</course>
  <speed>21.219858623468728</speed>
  <fix>3d</fix>
</trkpt>
<trkpt lat="-27.2719905" lon="151.2906765">
  <ele>374.76</ele>
  <time>2026-09-01T20:03:53Z</time>
  <course>88.76</course>
  <speed>21.010342691160467</speed>
  <fix>3d</fix>
</trkpt>
<trkpt lat="-27.2719915" lon="151.2906371">
  <ele>374.2</ele>
  <time>2026-09-01T20:03:53Z</time>
  <course>83.05</course>
  <speed>21.55</speed>
  <fix>3d</fix>
</trkpt>
<trkpt lat="-27.2719905" lon="151.2906774">
  <ele>374.78</ele>
  <time>2026-09-01T20:03:53Z</time>
  <course>88.89</course>
  <speed>21.000116666342596</speed>
  <fix>3d</fix>
</trkpt>
<trkpt lat="-27.2719907" lon="151.2906977">
  <ele>375.05</ele>
  <time>2026-09-01T20:03:53Z</time>
  <course>91.73</course>
  <speed>20.784554361352082</speed>
  <fix>3d</fix>
</trkpt>
<trkpt lat="-27.2719915" lon="151.2906371">
  <ele>374.2</ele>
  <time>2026-09-01T20:03:53Z</time>
  <course>83.05</course>
  <speed>21.55</speed>
  <fix>3d</fix>
</trkpt>
<trkpt lat="-27.2719908" lon="151.2906986">
  <ele>375.06</ele>
  <time>2026-09-01T20:03:53Z</time>
  <course>91.85</course>
  <speed>20.76656206501211</speed>
  <fix>3d</fix>
</trkpt>
<trkpt lat="-27.2719919" lon="151.2907186">
  <ele>375.32</ele>
  <time>2026-09-01T20:03:53Z</time>
  <course>94.52</course>
  <speed>20.553493620306984</speed>
  <fix>3d</fix>
</trkpt>
<trkpt lat="-27.2719891" lon="151.2906801">
  <ele>374.77</ele>
  <time>2026-09-01T20:03:53Z</time>
  <course>89.81</course>
  <speed>21.12</speed>
  <fix>3d</fix>
</trkpt>
<trkpt lat="-27.271992" lon="151.2907195">
  <ele>375.33</ele>
  <time>2026-09-01T20:03:53Z</time>
  <course>94.63</course>
  <speed>20.537645921575336</speed>
  <fix>3d</fix>
</trkpt>
<trkpt lat="-27.2719941" lon="151.2907391">
  <ele>375.58</ele>
  <time>2026-09-01T20:03:53Z</time>
  <course>97.21</course>
  <speed>20.31720945405643</speed>
  <fix>3d</fix>
</trkpt>
<trkpt lat="-27.2719891" lon="151.2906801">
  <ele>374.77</ele>
  <time>2026-09-01T20:03:53Z</time>
  <course>89.81</course>
  <speed>21.12</speed>
  <fix>3d</fix>
</trkpt>
<trkpt lat="-27.2719943" lon="151.2907407">
  <ele>375.6</ele>
  <time>2026-09-01T20:03:53Z</time>
  <course>97.41</course>
  <speed>20.2981181393744</speed>
  <fix>3d</fix>
</trkpt>
<trkpt lat="-27.271997" lon="151.2907595">
  <ele>375.82</ele>
  <time>2026-09-01T20:03:53Z</time>
  <course>99.83</course>
  <speed>20.080331172567845</speed>
  <fix>3d</fix>
</trkpt>
<trkpt lat="-27.2719909" lon="151.2907222">
  <ele>375.31</ele>
  <time>2026-09-01T20:03:53Z</time>
  <course>95.97</course>
  <speed>20.67</speed>
  <fix>3d</fix>
</trkpt>
<trkpt lat="-27.2719971" lon="151.2907602">
  <ele>375.83</ele>
  <time>2026-09-01T20:03:53Z</time>
  <course>99.91</course>
  <speed>20.076436436778316</speed>
  <fix>3d</fix>
</trkpt>
<trkpt lat="-27.2720007" lon="151.2907793">
  <ele>376.04</ele>
  <time>2026-09-01T20:03:53Z</time>
  <course>102.3</course>
  <speed>19.851594394405705</speed>
  <fix>3d</fix>
</trkpt>
<trkpt lat="-27.2719909" lon="151.2907222">
  <ele>375.31</ele>
  <time>2026-09-01T20:03:53Z</time>
  <course>95.97</course>
  <speed>20.67</speed>
  <fix>3d</fix>
</trkpt>
<trkpt lat="-27.2720009" lon="151.2907799">
  <ele>376.05</ele>
  <time>2026-09-01T20:03:53Z</time>
  <course>102.38</course>
  <speed>19.849120887334028</speed>
  <fix>3d</fix>
</trkpt>
<trkpt lat="-27.2720052" lon="151.2907986">
  <ele>376.23</ele>
  <time>2026-09-01T20:03:53Z</time>
  <course>104.66</course>
  <speed>19.625233756569628</speed>
  <fix>3d</fix>
</trkpt>
<trkpt lat="-27.2719966" lon="151.2907631">
  <ele>375.79</ele>
  <time>2026-09-01T20:03:53Z</time>
  <course>101.56</course>
  <speed>20.21</speed>
  <fix>3d</fix>
</trkpt>
<trkpt lat="-27.2720054" lon="151.2907993">
  <ele>376.24</ele>
  <time>2026-09-01T20:03:53Z</time>
  <course>104.74</course>
  <speed>19.62411781456685</speed>
  <fix>3d</fix>
</trkpt>
<trkpt lat="-27.2720104" lon="151.2908175">
  <ele>376.4</ele>
  <time>2026-09-01T20:03:53Z</time>
  <course>106.97</course>
  <speed>19.410358059551605</speed>
  <fix>3d</fix>
</trkpt>
<trkpt lat="-27.2719966" lon="151.2907631">
  <ele>375.79</ele>
  <time>2026-09-01T20:03:53Z</time>
  <course>101.56</course>
  <speed>20.21</speed>
  <fix>3d</fix>
</trkpt>
<trkpt lat="-27.2720106" lon="151.2908182">
  <ele>376.41</ele>
  <time>2026-09-01T20:03:53Z</time>
  <course>107.04</course>
  <speed>19.397865861996262</speed>
  <fix>3d</fix>
</trkpt>
<trkpt lat="-27.2720162" lon="151.290836">
  <ele>376.54</ele>
  <time>2026-09-01T20:03:53Z</time>
  <course>109.24</course>
  <speed>19.202510252568544</speed>
  <fix>3d</fix>
</trkpt>
<trkpt lat="-27.2720054" lon="151.2908022">
  <ele>376.18</ele>
  <time>2026-09-01T20:03:53Z</time>
  <course>106.68</course>
  <speed>19.76</speed>
  <fix>3d</fix>
</trkpt>
<trkpt lat="-27.2720164" lon="151.2908365">
  <ele>376.54</ele>
  <time>2026-09-01T20:03:53Z</time>
  <course>109.3</course>
  <speed>19.200377600453592</speed>
  <fix>3d</fix>
</trkpt>
<trkpt lat="-27.2720227" lon="151.290854">
  <ele>376.65</ele>
  <time>2026-09-01T20:03:53Z</time>
  <course>111.51</course>
  <speed>19.005351877826413</speed>
  <fix>3d</fix>
</trkpt>
<trkpt lat="-27.2720054" lon="151.2908022">
  <ele>376.18</ele>
  <time>2026-09-01T20:03:53Z</time>
  <course>106.68</course>
  <speed>19.76</speed>
  <fix>3d</fix>
</trkpt>
<trkpt lat="-27.2720228" lon="151.2908544">
  <ele>376.65</ele>
  <time>2026-09-01T20:03:53Z</time>
  <course>111.57</course>
  <speed>19.004107450759165</speed>
  <fix>3d</fix>
</trkpt>
<trkpt lat="-27.2720296" lon="151.2908715">
  <ele>376.73</ele>
  <time>2026-09-01T20:03:53Z</time>
  <course>113.76</course>
  <speed>18.821277852473248</speed>
  <fix>3d</fix>
</trkpt>
<trkpt lat="-27.2720168" lon="151.2908395">
  <ele>376.47</ele>
  <time>2026-09-01T20:03:53Z</time>
  <course>111.43</course>
  <speed>19.33</speed>
  <fix>3d</fix>
</trkpt>
<trkpt lat="-27.2720298" lon="151.2908719">
  <ele>376.73</ele>
  <time>2026-09-01T20:03:53Z</time>
  <course>113.82</course>
  <speed>18.816591083402965</speed>
  <fix>3d</fix>
</trkpt>
<trkpt lat="-27.2720372" lon="151.2908885">
  <ele>376.79</ele>
  <time>2026-09-01T20:03:53Z</time>
  <course>116.04</course>
  <speed>18.64480624731724</speed>
  <fix>3d</fix>
</trkpt>
<trkpt lat="-27.2720168" lon="151.2908395">
  <ele>376.47</ele>
  <time>2026-09-01T20:03:53Z</time>
  <course>111.43</course>
  <speed>19.33</speed>
  <fix>3d</fix>
</trkpt>
<trkpt lat="-27.2720374" lon="151.2908889">
  <ele>376.79</ele>
  <time>2026-09-01T20:03:53Z</time>
  <course>116.1</course>
  <speed>18.640649130328054</speed>
  <fix>3d</fix>
</trkpt>
<trkpt lat="-27.2720452" lon="151.290905">
  <ele>376.81</ele>
  <time>2026-09-01T20:03:53Z</time>
  <course>118.36</course>
  <speed>18.479145001866293</speed>
  <fix>3d</fix>
</trkpt>
<trkpt lat="-27.2720307" lon="151.290875">
  <ele>376.66</ele>
  <time>2026-09-01T20:03:53Z</time>
  <course>116.03</course>
  <speed>18.95</speed>
  <fix>3d</fix>
</trkpt>
<trkpt lat="-27.2720455" lon="151.2909056">
  <ele>376.81</ele>
  <time>2026-09-01T20:03:53Z</time>
  <course>118.44</course>
  <speed>18.47191381530349</speed>
  <fix>3d</fix>
</trkpt>
<trkpt lat="-27.2720538" lon="151.290921">
  <ele>376.81</ele>
  <time>2026-09-01T20:03:53Z</time>
  <course>120.75</course>
  <speed>18.312056137965502</speed>
  <fix>3d</fix>
</trkpt>
<trkpt lat="-27.2720307" lon="151.290875">
  <ele>376.66</ele>
  <time>2026-09-01T20:03:53Z</time>
  <course>116.03</course>
  <speed>18.95</speed>
  <fix>3d</fix>
</trkpt>
<trkpt lat="-27.2720541" lon="151.2909215">
  <ele>376.81</ele>
  <time>2026-09-01T20:03:53Z</time>
  <course>120.83</course>
  <speed>18.305938927025842</speed>
  <fix>3d</fix>
</trkpt>
<trkpt lat="-27.2720629" lon="151.2909364">
  <ele>376.78</ele>
  <time>2026-09-01T20:03:53Z</time>
  <course>123.21</course>
  <speed>18.167347082059063</speed>
  <fix>3d</fix>
</trkpt>
<trkpt lat="-27.2720467" lon="151.2909084">
  <ele>376.72</ele>
  <time>2026-09-01T20:03:53Z</time>
  <course>120.62</course>
  <speed>18.59</speed>
  <fix>3d</fix>
</trkpt>
<trkpt lat="-27.2720632" lon="151.290937">
  <ele>376.78</ele>
  <time>2026-09-01T20:03:53Z</time>
  <course>123.3</course>
  <speed>18.156657181320575</speed>
  <fix>3d</fix>
</trkpt>
<trkpt lat="-27.2720725" lon="151.2909513">
  <ele>376.74</ele>
  <time>2026-09-01T20:03:53Z</time>
  <course>125.75</course>
  <speed>18.018426679374645</speed>
  <fix>3d</fix>
</trkpt>
<trkpt lat="-27.2720467" lon="151.2909084">
  <ele>376.72</ele>
  <time>2026-09-01T20:03:53Z</time>
  <course>120.62</course>
  <speed>18.59</speed>
  <fix>3d</fix>
</trkpt>
<trkpt lat="-27.2720728" lon="151.2909518">
  <ele>376.74</ele>
  <time>2026-09-01T20:03:53Z</time>
  <course>125.84</course>
  <speed>18.0146412675912</speed>
  <fix>3d</fix>
</trkpt>
<trkpt lat="-27.2720825" lon="151.2909656">
  <ele>376.67</ele>
  <time>2026-09-01T20:03:53Z</time>
  <course>128.33</course>
  <speed>17.886757671528958</speed>
  <fix>3d</fix>
</trkpt>
<trkpt lat="-27.2720647" lon="151.2909396">
  <ele>376.7</ele>
  <time>2026-09-01T20:03:53Z</time>
  <course>125.32</course>
  <speed>18.28</speed>
  <fix>3d</fix>
</trkpt>
<trkpt lat="-27.2720829" lon="151.2909661">
  <ele>376.67</ele>
  <time>2026-09-01T20:03:53Z</time>
  <course>128.41</course>
  <speed>17.884196934724244</speed>
  <fix>3d</fix>
</trkpt>
<trkpt lat="-27.2720931" lon="151.2909793">
  <ele>376.59</ele>
  <time>2026-09-01T20:03:53Z</time>
  <course>130.96</course>
  <speed>17.767982440333512</speed>
  <fix>3d</fix>
</trkpt>
<trkpt lat="-27.2720647" lon="151.2909396">
  <ele>376.7</ele>
  <time>2026-09-01T20:03:53Z</time>
  <course>125.32</course>
  <speed>18.28</speed>
  <fix>3d</fix>
</trkpt>
<trkpt lat="-27.2720934" lon="151.2909798">
  <ele>376.58</ele>
  <time>2026-09-01T20:03:53Z</time>
  <course>131.05</course>
  <speed>17.766676672917757</speed>
  <fix>3d</fix>
</trkpt>
<trkpt lat="-27.2721041" lon="151.2909924">
  <ele>376.48</ele>
  <time>2026-09-01T20:03:53Z</time>
  <course>133.63</course>
  <speed>17.656491724009047</speed>
  <fix>3d</fix>
</trkpt>
<trkpt lat="-27.2720847" lon="151.2909687">
  <ele>376.58</ele>
  <time>2026-09-01T20:03:53Z</time>
  <course>130.25</course>
  <speed>18.0</speed>
  <fix>3d</fix>
</trkpt>
<trkpt lat="-27.2721045" lon="151.2909928">
  <ele>376.48</ele>
  <time>2026-09-01T20:03:53Z</time>
  <course>133.72</course>
  <speed>17.649385258416224</speed>
  <fix>3d</fix>
</trkpt>
<trkpt lat="-27.2721156" lon="151.2910048">
  <ele>376.37</ele>
  <time>2026-09-01T20:03:53Z</time>
  <course>136.35</course>
  <speed>17.54674043804148</speed>
  <fix>3d</fix>
</trkpt>
<trkpt lat="-27.2720847" lon="151.2909687">
  <ele>376.58</ele>
  <time>2026-09-01T20:03:53Z</time>
  <course>130.25</course>
  <speed>18.0</speed>
  <fix>3d</fix>
</trkpt>
<trkpt lat="-27.272116" lon="151.2910052">
  <ele>376.37</ele>
  <time>2026-09-01T20:03:53Z</time>
  <course>136.44</course>
  <speed>17.548028379279536</speed>
  <fix>3d</fix>
</trkpt>
<trkpt lat="-27.2721275" lon="151.2910165">
  <ele>376.24</ele>
  <time>2026-09-01T20:03:53Z</time>
  <course>139.1</course>
  <speed>17.453996676979173</speed>
  <fix>3d</fix>
</trkpt>
<trkpt lat="-27.2721065" lon="151.2909952">
  <ele>376.4</ele>
  <time>2026-09-01T20:03:53Z</time>
  <course>135.38</course>
  <speed>17.76</speed>
  <fix>3d</fix>
</trkpt>
<trkpt lat="-27.2721279" lon="151.2910169">
  <ele>376.24</ele>
  <time>2026-09-01T20:03:53Z</time>
  <course>139.2</course>
  <speed>17.448911140813344</speed>
  <fix>3d</fix>
</trkpt>
<trkpt lat="-27.2721398" lon="151.2910275">
  <ele>376.11</ele>
  <time>2026-09-01T20:03:53Z</time>
  <course>141.87</course>
  <speed>17.364077862069152</speed>
  <fix>3d</fix>
</trkpt>
<trkpt lat="-27.2721065" lon="151.2909952">
  <ele>376.4</ele>
  <time>2026-09-01T20:03:53Z</time>
  <course>135.38</course>
  <speed>17.76</speed>
  <fix>3d</fix>
</trkpt>
<trkpt lat="-27.2721402" lon="151.2910279">
  <ele>376.11</ele>
  <time>2026-09-01T20:03:53Z</time>
  <course>141.96</course>
  <speed>17.35401394490623</speed>
  <fix>3d</fix>
</trkpt>
<trkpt lat="-27.2721525" lon="151.2910378">
  <ele>375.97</ele>
  <time>2026-09-01T20:03:53Z</time>
  <course>144.63</course>
  <speed>17.27716701314194</speed>
  <fix>3d</fix>
</trkpt>
<trkpt lat="-27.2721301" lon="151.291019">
  <ele>376.17</ele>
  <time>2026-09-01T20:03:53Z</time>
  <course>140.71</course>
  <speed>17.55</speed>
  <fix>3d</fix>
</trkpt>
<trkpt lat="-27.2721529" lon="151.2910382">
  <ele>375.97</ele>
  <time>2026-09-01T20:03:53Z</time>
  <course>144.73</course>
  <speed>17.276811048338754</speed>
  <fix>3d</fix>
</trkpt>
<trkpt lat="-27.2721656" lon="151.2910474">
  <ele>375.83</ele>
  <time>2026-09-01T20:03:53Z</time>
  <course>147.38</course>
  <speed>17.193676163054832</speed>
  <fix>3d</fix>
</trkpt>
<trkpt lat="-27.2721301" lon="151.291019">
  <ele>376.17</ele>
  <time>2026-09-01T20:03:53Z</time>
  <course>140.71</course>
  <speed>17.55</speed>
  <fix>3d</fix>
</trkpt>
<trkpt lat="-27.272166" lon="151.2910477">
  <ele>375.83</ele>
  <time>2026-09-01T20:03:53Z</time>
  <course>147.47</course>
  <speed>17.191742203744216</speed>
  <fix>3d</fix>
</trkpt>
<trkpt lat="-27.272179" lon="151.2910562">
  <ele>375.69</ele>
  <time>2026-09-01T20:03:53Z</time>
  <course>150.11</course>
  <speed>17.123889745031647</speed>
  <fix>3d</fix>
</trkpt>
<trkpt lat="-27.2721552" lon="151.29104">
  <ele>375.91</ele>
  <time>2026-09-01T20:03:53Z</time>
  <course>146.14</course>
  <speed>17.37</speed>
  <fix>3d</fix>
</trkpt>
<trkpt lat="-27.2721794" lon="151.2910564">
  <ele>375.68</ele>
  <time>2026-09-01T20:03:53Z</time>
  <course>150.2</course>
  <speed>17.118206681775984</speed>
  <fix>3d</fix>
</trkpt>
<trkpt lat="-27.2721925" lon="151.2910641">
  <ele>375.55</ele>
  <time>2026-09-01T20:03:53Z</time>
  <course>152.81</course>
  <speed>17.043770122833738</speed>
  <fix>3d</fix>
</trkpt>
<trkpt lat="-27.2721552" lon="151.29104">
  <ele>375.91</ele>
  <time>2026-09-01T20:03:53Z</time>
  <course>146.14</course>
  <speed>17.37</speed>
  <fix>3d</fix>
</trkpt>
<trkpt lat="-27.2721931" lon="151.2910644">
  <ele>375.54</ele>
  <time>2026-09-01T20:03:53Z</time>
  <course>152.92</course>
  <speed>17.039556919122045</speed>
  <fix>3d</fix>
</trkpt>
<trkpt lat="-27.2722065" lon="151.2910714">
  <ele>375.4</ele>
  <time>2026-09-01T20:03:53Z</time>
  <course>155.46</course>
  <speed>16.97417155563122</speed>
  <fix>3d</fix>
</trkpt>
<trkpt lat="-27.2721818" lon="151.291058">
  <ele>375.64</ele>
  <time>2026-09-01T20:03:53Z</time>
  <course>151.58</course>
  <speed>17.2</speed>
  <fix>3d</fix>
</trkpt>
<trkpt lat="-27.272207" lon="151.2910717">
  <ele>375.4</ele>
  <time>2026-09-01T20:03:53Z</time>
  <course>155.57</course>
  <speed>16.97142598605079</speed>
  <fix>3d</fix>
</trkpt>
<trkpt lat="-27.2722206" lon="151.2910779">
  <ele>375.26</ele>
  <time>2026-09-01T20:03:53Z</time>
  <course>158.06</course>
  <speed>16.90444024509537</speed>
  <fix>3d</fix>
</trkpt>
<trkpt lat="-27.2721818" lon="151.291058">
  <ele>375.64</ele>
  <time>2026-09-01T20:03:53Z</time>
  <course>151.58</course>
  <speed>17.2</speed>
  <fix>3d</fix>
</trkpt>
<trkpt lat="-27.2722212" lon="151.2910782">
  <ele>375.25</ele>
  <time>2026-09-01T20:03:53Z</time>
  <course>158.16</course>
  <speed>16.903150593898168</speed>
  <fix>3d</fix>
</trkpt>
<trkpt lat="-27.2722352" lon="151.2910838">
  <ele>375.11</ele>
  <time>2026-09-01T20:03:53Z</time>
  <course>160.6</course>
  <speed>16.832934978784895</speed>
  <fix>3d</fix>
</trkpt>
<trkpt lat="-27.2722095" lon="151.2910731">
  <ele>375.36</ele>
  <time>2026-09-01T20:03:53Z</time>
  <course>156.95</course>
  <speed>17.05</speed>
  <fix>3d</fix>
</trkpt>
<trkpt lat="-27.2722357" lon="151.2910839">
  <ele>375.11</ele>
  <time>2026-09-01T20:03:53Z</time>
  <course>160.68</course>
  <speed>16.833089437177</speed>
  <fix>3d</fix>
</trkpt>
<trkpt lat="-27.2722497" lon="151.2910888">
  <ele>374.98</ele>
  <time>2026-09-01T20:03:53Z</time>
  <course>163.03</course>
  <speed>16.763666066824406</speed>
  <fix>3d</fix>
</trkpt>
<trkpt lat="-27.2722095" lon="151.2910731">
  <ele>375.36</ele>
  <time>2026-09-01T20:03:53Z</time>
  <course>156.95</course>
  <speed>17.05</speed>
  <fix>3d</fix>
</trkpt>
<trkpt lat="-27.2722501" lon="151.2910889">
  <ele>374.98</ele>
  <time>2026-09-01T20:03:53Z</time>
  <course>163.09</course>
  <speed>16.760966559241147</speed>
  <fix>3d</fix>
</trkpt>
<trkpt lat="-27.2722642" lon="151.291093">
  <ele>374.84</ele>
  <time>2026-09-01T20:03:53Z</time>
  <course>165.37</course>
  <speed>16.68781591461267</speed>
  <fix>3d</fix>
</trkpt>
<trkpt lat="-27.2722381" lon="151.291085">
  <ele>375.08</ele>
  <time>2026-09-01T20:03:53Z</time>
  <course>162.14</course>
  <speed>16.9</speed>
  <fix>3d</fix>
</trkpt>
<trkpt lat="-27.2722646" lon="151.2910931">
  <ele>374.84</ele>
  <time>2026-09-01T20:03:53Z</time>
  <course>165.42</course>
  <speed>16.683225107874076</speed>
  <fix>3d</fix>
</trkpt>
<trkpt lat="-27.2722789" lon="151.2910966">
  <ele>374.71</ele>
  <time>2026-09-01T20:03:53Z</time>
  <course>167.6</course>
  <speed>16.615203880783408</speed>
  <fix>3d</fix>
</trkpt>
<trkpt lat="-27.2722381" lon="151.291085">
  <ele>375.08</ele>
  <time>2026-09-01T20:03:53Z</time>
  <course>162.14</course>
  <speed>16.9</speed>
  <fix>3d</fix>
</trkpt>
<trkpt lat="-27.2722792" lon="151.2910967">
  <ele>374.71</ele>
  <time>2026-09-01T20:03:53Z</time>
  <course>167.66</course>
  <speed>16.61139970020588</speed>
  <fix>3d</fix>
</trkpt>
<trkpt lat="-27.2722935" lon="151.2910995">
  <ele>374.59</ele>
  <time>2026-09-01T20:03:53Z</time>
  <course>169.74</course>
  <speed>16.533178762718318</speed>
  <fix>3d</fix>
</trkpt>
<trkpt lat="-27.2722672" lon="151.291094">
  <ele>374.82</ele>
  <time>2026-09-01T20:03:53Z</time>
  <course>167.04</course>
  <speed>16.75</speed>
  <fix>3d</fix>
</trkpt>
<trkpt lat="-27.2722939" lon="151.2910996">
  <ele>374.58</ele>
  <time>2026-09-01T20:03:53Z</time>
  <course>169.8</course>
  <speed>16.53165750915497</speed>
  <fix>3d</fix>
</trkpt>
<trkpt lat="-27.2723082" lon="151.2911018">
  <ele>374.46</ele>
  <time>2026-09-01T20:03:53Z</time>
  <course>171.79</course>
  <speed>16.46118464752765</speed>
  <fix>3d</fix>
</trkpt>
<trkpt lat="-27.2722672" lon="151.291094">
  <ele>374.82</ele>
  <time>2026-09-01T20:03:53Z</time>
  <course>167.04</course>
  <speed>16.75</speed>
  <fix>3d</fix>
</trkpt>
<trkpt lat="-27.2723087" lon="151.2911019">
  <ele>374.46</ele>
  <time>2026-09-01T20:03:53Z</time>
  <course>171.85</course>
  <speed>16.458876024808013</speed>
  <fix>3d</fix>
</trkpt>
<trkpt lat="-27.2723228" lon="151.2911035">
  <ele>374.34</ele>
  <time>2026-09-01T20:03:53Z</time>
  <course>173.71</course>
  <speed>16.43471934655411</speed>
  <fix>3d</fix>
</trkpt>
<trkpt lat="-27.2722968" lon="151.2911003">
  <ele>374.56</ele>
  <time>2026-09-01T20:03:53Z</time>
  <course>171.56</course>
  <speed>16.6</speed>
  <fix>3d</fix>
</trkpt>
<trkpt lat="-27.2723233" lon="151.2911035">
  <ele>374.33</ele>
  <time>2026-09-01T20:03:53Z</time>
  <course>173.77</course>
  <speed>16.43310074209977</speed>
  <fix>3d</fix>
</trkpt>
<trkpt lat="-27.2723376" lon="151.2911046">
  <ele>374.22</ele>
  <time>2026-09-01T20:03:53Z</time>
  <course>175.51</course>
  <speed>16.539845827576507</speed>
  <fix>3d</fix>
</trkpt>
<trkpt lat="-27.2722968" lon="151.2911003">
  <ele>374.56</ele>
  <time>2026-09-01T20:03:53Z</time>
  <course>171.56</course>
  <speed>16.6</speed>
  <fix>3d</fix>
</trkpt>
<trkpt lat="-27.2723381" lon="151.2911046">
  <ele>374.21</ele>
  <time>2026-09-01T20:03:53Z</time>
  <course>175.57</course>
  <speed>16.53887843839479</speed>
  <fix>3d</fix>
</trkpt>
<trkpt lat="-27.2723525" lon="151.2911052">
  <ele>374.09</ele>
  <time>2026-09-01T20:03:53Z</time>
  <course>177.18</course>
  <speed>16.65270248338089</speed>
  <fix>3d</fix>
</trkpt>
<trkpt lat="-27.2723264" lon="151.291104">
  <ele>374.32</ele>
  <time>2026-09-01T20:03:53Z</time>
  <course>175.68</course>
  <speed>16.57</speed>
  <fix>3d</fix>
</trkpt>
<trkpt lat="-27.272353" lon="151.2911052">
  <ele>374.09</ele>
  <time>2026-09-01T20:03:53Z</time>
  <course>177.24</course>
  <speed>16.662523818437588</speed>
  <fix>3d</fix>
</trkpt>
<trkpt lat="-27.2723675" lon="151.2911053">
  <ele>373.97</ele>
  <time>2026-09-01T20:03:53Z</time>
  <course>178.87</course>
  <speed>16.750862664352542</speed>
  <fix>3d</fix>
</trkpt>
<trkpt lat="-27.2723264" lon="151.291104">
  <ele>374.32</ele>
  <time>2026-09-01T20:03:53Z</time>
  <course>175.68</course>
  <speed>16.57</speed>
  <fix>3d</fix>
</trkpt>
<trkpt lat="-27.272368" lon="151.2911053">
  <ele>373.97</ele>
  <time>2026-09-01T20:03:53Z</time>
  <course>178.92</course>
  <speed>16.751077577278423</speed>
  <fix>3d</fix>
</trkpt>
<trkpt lat="-27.2723826" lon="151.2911049">
  <ele>373.86</ele>
  <time>2026-09-01T20:03:53Z</time>
  <course>180.63</course>
  <speed>16.82256223052838</speed>
  <fix>3d</fix>
</trkpt>
<trkpt lat="-27.2723562" lon="151.2911054">
  <ele>374.08</ele>
  <time>2026-09-01T20:03:53Z</time>
  <course>179.33</course>
  <speed>16.72</speed>
  <fix>3d</fix>
</trkpt>
<trkpt lat="-27.2723831" lon="151.2911049">
  <ele>373.86</ele>
  <time>2026-09-01T20:03:53Z</time>
  <course>180.69</course>
  <speed>16.823346872724226</speed>
  <fix>3d</fix>
</trkpt>
<trkpt lat="-27.2723978" lon="151.291104">
  <ele>373.76</ele>
  <time>2026-09-01T20:03:53Z</time>
  <course>182.44</course>
  <speed>16.877870126292592</speed>
  <fix>3d</fix>
</trkpt>
<trkpt lat="-27.2723562" lon="151.2911054">
  <ele>374.08</ele>
  <time>2026-09-01T20:03:53Z</time>
  <course>179.33</course>
  <speed>16.72</speed>
  <fix>3d</fix>
</trkpt>
<trkpt lat="-27.2723983" lon="151.291104">
  <ele>373.75</ele>
  <time>2026-09-01T20:03:53Z</time>
  <course>182.5</course>
  <speed>16.878542591112538</speed>
  <fix>3d</fix>
</trkpt>
<trkpt lat="-27.2724129" lon="151.2911026">
  <ele>373.67</ele>
  <time>2026-09-01T20:03:53Z</time>
  <course>184.23</course>
  <speed>16.9058835912235</speed>
  <fix>3d</fix>
</trkpt>
<trkpt lat="-27.2723864" lon="151.2911048">
  <ele>373.85</ele>
  <time>2026-09-01T20:03:53Z</time>
  <course>182.66</course>
  <speed>16.88</speed>
  <fix>3d</fix>
</trkpt>
<trkpt lat="-27.2724134" lon="151.2911026">
  <ele>373.67</ele>
  <time>2026-09-01T20:03:53Z</time>
  <course>184.29</course>
  <speed>16.907788146295186</speed>
  <fix>3d</fix>
</trkpt>
<trkpt lat="-27.2724281" lon="151.2911009">
  <ele>373.6</ele>
  <time>2026-09-01T20:03:53Z</time>
  <course>185.86</course>
  <speed>16.915900803681726</speed>
  <fix>3d</fix>
</trkpt>
<trkpt lat="-27.2723864" lon="151.2911048">
  <ele>373.85</ele>
  <time>2026-09-01T20:03:53Z</time>
  <course>182.66</course>
  <speed>16.88</speed>
  <fix>3d</fix>
</trkpt>
<trkpt lat="-27.2724286" lon="151.2911008">
  <ele>373.59</ele>
  <time>2026-09-01T20:03:53Z</time>
  <course>185.91</course>
  <speed>16.918348028102507</speed>
  <fix>3d</fix>
</trkpt>
<trkpt lat="-27.2724431" lon="151.2910985">
  <ele>373.54</ele>
  <time>2026-09-01T20:03:53Z</time>
  <course>187.28</course>
  <speed>16.90439292018498</speed>
  <fix>3d</fix>
</trkpt>
<trkpt lat="-27.2724167" lon="151.2911023">
  <ele>373.66</ele>
  <time>2026-09-01T20:03:53Z</time>
  <course>185.87</course>
  <speed>16.96</speed>
  <fix>3d</fix>
</trkpt>
<trkpt lat="-27.2724436" lon="151.2910985">
  <ele>373.54</ele>
  <time>2026-09-01T20:03:53Z</time>
  <course>187.32</course>
  <speed>16.905868803465854</speed>
  <fix>3d</fix>
</trkpt>
<trkpt lat="-27.2724581" lon="151.2910958">
  <ele>373.5</ele>
  <time>2026-09-01T20:03:53Z</time>
  <course>188.54</course>
  <speed>16.877538327611642</speed>
  <fix>3d</fix>
</trkpt>
<trkpt lat="-27.2724167" lon="151.2911023">
  <ele>373.66</ele>
  <time>2026-09-01T20:03:53Z</time>
  <course>185.87</course>
  <speed>16.96</speed>
  <fix>3d</fix>
</trkpt>
<trkpt lat="-27.2724586" lon="151.2910957">
  <ele>373.5</ele>
  <time>2026-09-01T20:03:53Z</time>
  <course>188.58</course>
  <speed>16.869395365572533</speed>
  <fix>3d</fix>
</trkpt>
<trkpt lat="-27.2724731" lon="151.2910927">
  <ele>373.47</ele>
  <time>2026-09-01T20:03:53Z</time>
  <course>189.67</course>
  <speed>16.830888271270773</speed>
  <fix>3d</fix>
</trkpt>
<trkpt lat="-27.2724469" lon="151.2910979">
  <ele>373.53</ele>
  <time>2026-09-01T20:03:53Z</time>
  <course>188.85</course>
  <speed>16.95</speed>
  <fix>3d</fix>
</trkpt>
<trkpt lat="-27.2724736" lon="151.2910926">
  <ele>373.47</ele>
  <time>2026-09-01T20:03:53Z</time>
  <course>189.7</course>
  <speed>16.822990221717422</speed>
  <fix>3d</fix>
</trkpt>
<trkpt lat="-27.2724879" lon="151.2910893">
  <ele>373.44</ele>
  <time>2026-09-01T20:03:53Z</time>
  <course>190.67</course>
  <speed>16.773502913822146</speed>
  <fix>3d</fix>
</trkpt>
<trkpt lat="-27.2724469" lon="151.2910979">
  <ele>373.53</ele>
  <time>2026-09-01T20:03:53Z</time>
  <course>188.85</course>
  <speed>16.95</speed>
  <fix>3d</fix>
</trkpt>
<trkpt lat="-27.2724884" lon="151.2910892">
  <ele>373.44</ele>
  <time>2026-09-01T20:03:53Z</time>
  <course>190.7</course>
  <speed>16.765828342196517</speed>
  <fix>3d</fix>
</trkpt>
<trkpt lat="-27.2725025" lon="151.2910856">
  <ele>373.41</ele>
  <time>2026-09-01T20:03:53Z</time>
  <course>191.57</course>
  <speed>16.710813864082144</speed>
  <fix>3d</fix>
</trkpt>
<trkpt lat="-27.2724768" lon="151.2910919">
  <ele>373.46</ele>
  <time>2026-09-01T20:03:53Z</time>
  <course>191.4</course>
  <speed>16.87</speed>
  <fix>3d</fix>
</trkpt>
<trkpt lat="-27.2725031" lon="151.2910855">
  <ele>373.41</ele>
  <time>2026-09-01T20:03:53Z</time>
  <course>191.6</course>
  <speed>16.703332002926842</speed>
  <fix>3d</fix>
</trkpt>
<trkpt lat="-27.2725171" lon="151.2910817">
  <ele>373.38</ele>
  <time>2026-09-01T20:03:53Z</time>
  <course>192.41</course>
  <speed>16.635582346284124</speed>
  <fix>3d</fix>
</trkpt>
<trkpt lat="-27.2724768" lon="151.2910919">
  <ele>373.46</ele>
  <time>2026-09-01T20:03:53Z</time>
  <course>191.4</course>
  <speed>16.87</speed>
  <fix>3d</fix>
</trkpt>
<trkpt lat="-27.2725177" lon="151.2910815">
  <ele>373.38</ele>
  <time>2026-09-01T20:03:53Z</time>
  <course>192.44</course>
  <speed>16.637983651873203</speed>
  <fix>3d</fix>
</trkpt>
<trkpt lat="-27.2725316" lon="151.2910775">
  <ele>373.34</ele>
  <time>2026-09-01T20:03:53Z</time>
  <course>193.2</course>
  <speed>16.5685545537322</speed>
  <fix>3d</fix>
</trkpt>
<trkpt lat="-27.2725063" lon="151.2910846">
  <ele>373.41</ele>
  <time>2026-09-01T20:03:53Z</time>
  <course>193.44</course>
  <speed>16.74</speed>
  <fix>3d</fix>
</trkpt>
<trkpt lat="-27.2725322" lon="151.2910773">
  <ele>373.34</ele>
  <time>2026-09-01T20:03:53Z</time>
  <course>193.23</course>
  <speed>16.5685545537322</speed>
  <fix>3d</fix>
</trkpt>
<trkpt lat="-27.2725459" lon="151.2910732">
  <ele>373.29</ele>
  <time>2026-09-01T20:03:53Z</time>
  <course>193.98</course>
  <speed>16.503602637000203</speed>
  <fix>3d</fix>
</trkpt>
<trkpt lat="-27.2725063" lon="151.2910846">
  <ele>373.41</ele>
  <time>2026-09-01T20:03:53Z</time>
  <course>193.44</course>
  <speed>16.74</speed>
  <fix>3d</fix>
</trkpt>
<trkpt lat="-27.2725465" lon="151.291073">
  <ele>373.29</ele>
  <time>2026-09-01T20:03:53Z</time>
  <course>194.01</course>
  <speed>16.506241243844705</speed>
  <fix>3d</fix>
</trkpt>
<trkpt lat="-27.2725603" lon="151.2910686">
  <ele>373.23</ele>
  <time>2026-09-01T20:03:53Z</time>
  <course>194.72</course>
  <speed>16.447565169349534</speed>
  <fix>3d</fix>
</trkpt>
<trkpt lat="-27.2725353" lon="151.2910762">
  <ele>373.35</ele>
  <time>2026-09-01T20:03:53Z</time>
  <course>195.03</course>
  <speed>16.6</speed>
  <fix>3d</fix>
</trkpt>
<trkpt lat="-27.2725608" lon="151.2910685">
  <ele>373.23</ele>
  <time>2026-09-01T20:03:53Z</time>
  <course>194.74</course>
  <speed>16.44068733356364</speed>
  <fix>3d</fix>
</trkpt>
<trkpt lat="-27.2725745" lon="151.291064">
  <ele>373.15</ele>
  <time>2026-09-01T20:03:53Z</time>
  <course>195.41</course>
  <speed>16.3904850446837</speed>
  <fix>3d</fix>
</trkpt>
<trkpt lat="-27.2725353" lon="151.2910762">
  <ele>373.35</ele>
  <time>2026-09-01T20:03:53Z</time>
  <course>195.03</course>
  <speed>16.6</speed>
  <fix>3d</fix>
</trkpt>
<trkpt lat="-27.272575" lon="151.2910638">
  <ele>373.15</ele>
  <time>2026-09-01T20:03:53Z</time>
  <course>195.43</course>
  <speed>16.393318761007485</speed>
  <fix>3d</fix>
</trkpt>
<trkpt lat="-27.2725886" lon="151.2910591">
  <ele>373.06</ele>
  <time>2026-09-01T20:03:53Z</time>
  <course>196.06</course>
  <speed>16.341658422571438</speed>
  <fix>3d</fix>
</trkpt>
<trkpt lat="-27.2725639" lon="151.2910672">
  <ele>373.24</ele>
  <time>2026-09-01T20:03:53Z</time>
  <course>196.3</course>
  <speed>16.47</speed>
  <fix>3d</fix>
</trkpt>
<trkpt lat="-27.2725891" lon="151.291059">
  <ele>373.06</ele>
  <time>2026-09-01T20:03:53Z</time>
  <course>196.08</course>
  <speed>16.335017600235393</speed>
  <fix>3d</fix>
</trkpt>
<trkpt lat="-27.2726027" lon="151.2910542">
  <ele>372.96</ele>
  <time>2026-09-01T20:03:53Z</time>
  <course>196.68</course>
  <speed>16.29421983403931</speed>
  <fix>3d</fix>
</trkpt>
<trkpt lat="-27.2725639" lon="151.2910672">
  <ele>373.24</ele>
  <time>2026-09-01T20:03:53Z</time>
  <course>196.3</course>
  <speed>16.47</speed>
  <fix>3d</fix>
</trkpt>
<trkpt lat="-27.2726031" lon="151.291054">
  <ele>372.96</ele>
  <time>2026-09-01T20:03:53Z</time>
  <course>196.7</course>
  <speed>16.29421983403931</speed>
  <fix>3d</fix>
</trkpt>
<trkpt lat="-27.2726166" lon="151.2910491">
  <ele>372.84</ele>
  <time>2026-09-01T20:03:53Z</time>
  <course>197.27</course>
  <speed>16.254599349107316</speed>
  <fix>3d</fix>
</trkpt>
<trkpt lat="-27.2725922" lon="151.2910576">
  <ele>373.07</ele>
  <time>2026-09-01T20:03:53Z</time>
  <course>197.4</course>
  <speed>16.35</speed>
  <fix>3d</fix>
</trkpt>
<trkpt lat="-27.2726169" lon="151.291049">
  <ele>372.84</ele>
  <time>2026-09-01T20:03:53Z</time>
  <course>197.28</course>
  <speed>16.24508848852477</speed>
  <fix>3d</fix>
</trkpt>
<trkpt lat="-27.2726305" lon="151.291044">
  <ele>372.72</ele>
  <time>2026-09-01T20:03:53Z</time>
  <course>197.83</course>
  <speed>16.216164774693183</speed>
  <fix>3d</fix>
</trkpt>
<trkpt lat="-27.2725922" lon="151.2910576">
  <ele>373.07</ele>
  <time>2026-09-01T20:03:53Z</time>
  <course>197.4</course>
  <speed>16.35</speed>
  <fix>3d</fix>
</trkpt>
<trkpt lat="-27.2726308" lon="151.2910438">
  <ele>372.71</ele>
  <time>2026-09-01T20:03:53Z</time>
  <course>197.84</course>
  <speed>16.216164774693183</speed>
  <fix>3d</fix>
</trkpt>
<trkpt lat="-27.2726444" lon="151.2910386">
  <ele>372.58</ele>
  <time>2026-09-01T20:03:53Z</time>
  <course>198.36</course>
  <speed>16.17892456252887</speed>
  <fix>3d</fix>
</trkpt>
<trkpt lat="-27.2726201" lon="151.2910475">
  <ele>372.86</ele>
  <time>2026-09-01T20:03:53Z</time>
  <course>198.4</course>
  <speed>16.25</speed>
  <fix>3d</fix>
</trkpt>
<trkpt lat="-27.2726448" lon="151.2910384">
  <ele>372.58</ele>
  <time>2026-09-01T20:03:53Z</time>
  <course>198.38</course>
  <speed>16.17892456252887</speed>
  <fix>3d</fix>
</trkpt>
<trkpt lat="-27.2726581" lon="151.2910332">
  <ele>372.44</ele>
  <time>2026-09-01T20:03:53Z</time>
  <course>198.86</course>
  <speed>16.148987584365777</speed>
  <fix>3d</fix>
</trkpt>
<trkpt lat="-27.2726201" lon="151.2910475">
  <ele>372.86</ele>
  <time>2026-09-01T20:03:53Z</time>
  <course>198.4</course>
  <speed>16.25</speed>
  <fix>3d</fix>
</trkpt>
<trkpt lat="-27.2726586" lon="151.291033">
  <ele>372.44</ele>
  <time>2026-09-01T20:03:53Z</time>
  <course>198.87</course>
  <speed>16.148987584365777</speed>
  <fix>3d</fix>
</trkpt>
<trkpt lat="-27.2726718" lon="151.2910276">
  <ele>372.3</ele>
  <time>2026-09-01T20:03:53Z</time>
  <course>199.33</course>
  <speed>16.120049627715172</speed>
  <fix>3d</fix>
</trkpt>
<trkpt lat="-27.2726477" lon="151.2910369">
  <ele>372.6</ele>
  <time>2026-09-01T20:03:53Z</time>
  <course>199.34</course>
  <speed>16.17</speed>
  <fix>3d</fix>
</trkpt>
<trkpt lat="-27.2726722" lon="151.2910274">
  <ele>372.29</ele>
  <time>2026-09-01T20:03:53Z</time>
  <course>199.34</course>
  <speed>16.120049627715172</speed>
  <fix>3d</fix>
</trkpt>
<trkpt lat="-27.2726854" lon="151.291022">
  <ele>372.15</ele>
  <time>2026-09-01T20:03:53Z</time>
  <course>199.78</course>
  <speed>16.09802472354916</speed>
  <fix>3d</fix>
</trkpt>
<trkpt lat="-27.2726477" lon="151.2910369">
  <ele>372.6</ele>
  <time>2026-09-01T20:03:53Z</time>
  <course>199.34</course>
  <speed>16.17</speed>
  <fix>3d</fix>
</trkpt>
<trkpt lat="-27.2726858" lon="151.2910218">
  <ele>372.14</ele>
  <time>2026-09-01T20:03:53Z</time>
  <course>199.79</course>
  <speed>16.09802472354916</speed>
  <fix>3d</fix>
</trkpt>
<trkpt lat="-27.2726989" lon="151.2910162">
  <ele>371.99</ele>
  <time>2026-09-01T20:03:53Z</time>
  <course>200.21</course>
  <speed>16.07681560508797</speed>
  <fix>3d</fix>
</trkpt>
<trkpt lat="-27.2726749" lon="151.2910258">
  <ele>372.32</ele>
  <time>2026-09-01T20:03:53Z</time>
  <course>200.22</course>
  <speed>16.1</speed>
  <fix>3d</fix>
</trkpt>
<trkpt lat="-27.2726994" lon="151.291016">
  <ele>371.99</ele>
  <time>2026-09-01T20:03:53Z</time>
  <course>200.23</course>
  <speed>16.06746090706307</speed>
  <fix>3d</fix>
</trkpt>
<trkpt lat="-27.2727124" lon="151.2910103">
  <ele>371.83</ele>
  <time>2026-09-01T20:03:53Z</time>
  <course>200.63</course>
  <speed>16.052828411217757</speed>
  <fix>3d</fix>
</trkpt>
<trkpt lat="-27.2726749" lon="151.2910258">
  <ele>372.32</ele>
  <time>2026-09-01T20:03:53Z</time>
  <course>200.22</course>
  <speed>16.1</speed>
  <fix>3d</fix>
</trkpt>
<trkpt lat="-27.2727129" lon="151.2910102">
  <ele>371.83</ele>
  <time>2026-09-01T20:03:53Z</time>
  <course>200.65</course>
  <speed>16.052828411217757</speed>
  <fix>3d</fix>
</trkpt>
<trkpt lat="-27.2727259" lon="151.2910044">
  <ele>371.67</ele>
  <time>2026-09-01T20:03:53Z</time>
  <course>201.04</course>
  <speed>16.02953523967554</speed>
  <fix>3d</fix>
</trkpt>
<trkpt lat="-27.2727019" lon="151.2910144">
  <ele>372.01</ele>
  <time>2026-09-01T20:03:53Z</time>
  <course>201.02</course>
  <speed>16.04</speed>
  <fix>3d</fix>
</trkpt>
<trkpt lat="-27.2727263" lon="151.2910042">
  <ele>371.67</ele>
  <time>2026-09-01T20:03:53Z</time>
  <course>201.05</course>
  <speed>16.02953523967554</speed>
  <fix>3d</fix>
</trkpt>
<trkpt lat="-27.2727393" lon="151.2909984">
  <ele>371.51</ele>
  <time>2026-09-01T20:03:53Z</time>
  <course>201.41</course>
  <speed>16.01251073379812</speed>
  <fix>3d</fix>
</trkpt>
<trkpt lat="-27.2727019" lon="151.2910144">
  <ele>372.01</ele>
  <time>2026-09-01T20:03:53Z</time>
  <course>201.02</course>
  <speed>16.04</speed>
  <fix>3d</fix>
</trkpt>
<trkpt lat="-27.2727397" lon="151.2909982">
  <ele>371.51</ele>
  <time>2026-09-01T20:03:53Z</time>
  <course>201.42</course>
  <speed>16.01251073379812</speed>
  <fix>3d</fix>
</trkpt>
<trkpt lat="-27.2727526" lon="151.2909923">
  <ele>371.35</ele>
  <time>2026-09-01T20:03:53Z</time>
  <course>201.76</course>
  <speed>15.982997215791535</speed>
  <fix>3d</fix>
</trkpt>
<trkpt lat="-27.2727287" lon="151.2910026">
  <ele>371.7</ele>
  <time>2026-09-01T20:03:53Z</time>
  <course>201.75</course>
  <speed>15.99</speed>
  <fix>3d</fix>
</trkpt>
<trkpt lat="-27.272753" lon="151.2909921">
  <ele>371.34</ele>
  <time>2026-09-01T20:03:53Z</time>
  <course>201.77</course>
  <speed>15.986760147071703</speed>
  <fix>3d</fix>
</trkpt>
<trkpt lat="-27.2727659" lon="151.2909861">
  <ele>371.18</ele>
  <time>2026-09-01T20:03:54Z</time>
  <course>202.08</course>
  <speed>15.976263643292821</speed>
  <fix>3d</fix>
</trkpt>
<trkpt lat="-27.2727287" lon="151.2910026">
  <ele>371.7</ele>
  <time>2026-09-01T20:03:54Z</time>
  <course>201.75</course>
  <speed>15.99</speed>
  <fix>3d</fix>
</trkpt>
<trkpt lat="-27.2727663" lon="151.2909859">
  <ele>371.18</ele>
  <time>2026-09-01T20:03:54Z</time>
  <course>202.09</course>
  <speed>15.967019133200786</speed>
  <fix>3d</fix>
</trkpt>
<trkpt lat="-27.272779" lon="151.2909799">
  <ele>371.01</ele>
  <time>2026-09-01T20:03:54Z</time>
  <course>202.38</course>
  <speed>15.953084341280213</speed>
  <fix>3d</fix>
</trkpt>
<trkpt lat="-27.2727553" lon="151.2909904">
  <ele>371.38</ele>
  <time>2026-09-01T20:03:54Z</time>
  <course>202.39</course>
  <speed>15.95</speed>
  <fix>3d</fix>
</trkpt>
<trkpt lat="-27.2727795" lon="151.2909796">
  <ele>371.01</ele>
  <time>2026-09-01T20:03:54Z</time>
  <course>202.39</course>
  <speed>15.953084341280213</speed>
  <fix>3d</fix>
</trkpt>
<trkpt lat="-27.2727922" lon="151.2909736">
  <ele>370.84</ele>
  <time>2026-09-01T20:03:54Z</time>
  <course>202.66</course>
  <speed>15.9302542352594</speed>
  <fix>3d</fix>
</trkpt>
<trkpt lat="-27.2727553" lon="151.2909904">
  <ele>371.38</ele>
  <time>2026-09-01T20:03:54Z</time>
  <course>202.39</course>
  <speed>15.95</speed>
  <fix>3d</fix>
</trkpt>
<trkpt lat="-27.2727927" lon="151.2909733">
  <ele>370.84</ele>
  <time>2026-09-01T20:03:54Z</time>
  <course>202.67</course>
  <speed>15.934155139197058</speed>
  <fix>3d</fix>
</trkpt>
<trkpt lat="-27.2728053" lon="151.2909672">
  <ele>370.67</ele>
  <time>2026-09-01T20:03:54Z</time>
  <course>202.92</course>
  <speed>15.916965791255569</speed>
  <fix>3d</fix>
</trkpt>
<trkpt lat="-27.2727817" lon="151.290978">
  <ele>371.05</ele>
  <time>2026-09-01T20:03:54Z</time>
  <course>202.95</course>
  <speed>15.9</speed>
  <fix>3d</fix>
</trkpt>
<trkpt lat="-27.2728059" lon="151.2909669">
  <ele>370.66</ele>
  <time>2026-09-01T20:03:54Z</time>
  <course>202.93</course>
  <speed>15.916965791255569</speed>
  <fix>3d</fix>
</trkpt>
<trkpt lat="-27.2728184" lon="151.2909608">
  <ele>370.49</ele>
  <time>2026-09-01T20:03:54Z</time>
  <course>203.17</course>
  <speed>15.900015723262666</speed>
  <fix>3d</fix>
</trkpt>
<trkpt lat="-27.2727817" lon="151.290978">
  <ele>371.05</ele>
  <time>2026-09-01T20:03:54Z</time>
  <course>202.95</course>
  <speed>15.9</speed>
  <fix>3d</fix>
</trkpt>
<trkpt lat="-27.272819" lon="151.2909605">
  <ele>370.49</ele>
  <time>2026-09-01T20:03:54Z</time>
  <course>203.18</course>
  <speed>15.903993209254084</speed>
  <fix>3d</fix>
</trkpt>
<trkpt lat="-27.2728315" lon="151.2909543">
  <ele>370.31</ele>
  <time>2026-09-01T20:03:54Z</time>
  <course>203.4</course>
  <speed>15.883305701270125</speed>
  <fix>3d</fix>
</trkpt>
<trkpt lat="-27.2728079" lon="151.2909654">
  <ele>370.71</ele>
  <time>2026-09-01T20:03:54Z</time>
  <course>203.44</course>
  <speed>15.86</speed>
  <fix>3d</fix>
</trkpt>
<trkpt lat="-27.272832" lon="151.290954">
  <ele>370.31</ele>
  <time>2026-09-01T20:03:54Z</time>
  <course>203.41</course>
  <speed>15.887318842397542</speed>
  <fix>3d</fix>
</trkpt>
<trkpt lat="-27.2728446" lon="151.2909477">
  <ele>370.13</ele>
  <time>2026-09-01T20:03:54Z</time>
  <course>203.62</course>
  <speed>15.875981859400067</speed>
  <fix>3d</fix>
</trkpt>
<trkpt lat="-27.2728079" lon="151.2909654">
  <ele>370.71</ele>
  <time>2026-09-01T20:03:54Z</time>
  <course>203.44</course>
  <speed>15.86</speed>
  <fix>3d</fix>
</trkpt>
<trkpt lat="-27.2728451" lon="151.2909475">
  <ele>370.13</ele>
  <time>2026-09-01T20:03:54Z</time>
  <course>203.63</course>
  <speed>15.875981859400067</speed>
  <fix>3d</fix>
</trkpt>
<trkpt lat="-27.2728576" lon="151.2909412">
  <ele>369.95</ele>
  <time>2026-09-01T20:03:54Z</time>
  <course>203.81</course>
  <speed>15.855661449463405</speed>
  <fix>3d</fix>
</trkpt>
<trkpt lat="-27.272834" lon="151.2909525">
  <ele>370.36</ele>
  <time>2026-09-01T20:03:54Z</time>
  <course>203.86</course>
  <speed>15.83</speed>
  <fix>3d</fix>
</trkpt>
<trkpt lat="-27.2728581" lon="151.290941">
  <ele>369.95</ele>
  <time>2026-09-01T20:03:54Z</time>
  <course>203.82</course>
  <speed>15.859738333276498</speed>
  <fix>3d</fix>
</trkpt>
<trkpt lat="-27.2728706" lon="151.2909346">
  <ele>369.77</ele>
  <time>2026-09-01T20:03:54Z</time>
  <course>204.0</course>
  <speed>15.844636316432132</speed>
  <fix>3d</fix>
</trkpt>
<trkpt lat="-27.272834" lon="151.2909525">
  <ele>370.36</ele>
  <time>2026-09-01T20:03:54Z</time>
  <course>203.86</course>
  <speed>15.83</speed>
  <fix>3d</fix>
</trkpt>
<trkpt lat="-27.272871" lon="151.2909344">
  <ele>369.76</ele>
  <time>2026-09-01T20:03:54Z</time>
  <course>204.01</course>
  <speed>15.848741274940416</speed>
  <fix>3d</fix>
</trkpt>
<trkpt lat="-27.2728835" lon="151.2909279">
  <ele>369.58</ele>
  <time>2026-09-01T20:03:54Z</time>
  <course>204.18</course>
  <speed>15.833761397722274</speed>
  <fix>3d</fix>
</trkpt>
<trkpt lat="-27.27286" lon="151.2909394">
  <ele>370.01</ele>
  <time>2026-09-01T20:03:54Z</time>
  <course>204.23</course>
  <speed>15.8</speed>
  <fix>3d</fix>
</trkpt>
<trkpt lat="-27.2728839" lon="151.2909277">
  <ele>369.58</ele>
  <time>2026-09-01T20:03:54Z</time>
  <course>204.19</course>
  <speed>15.833761397722274</speed>
  <fix>3d</fix>
</trkpt>
<trkpt lat="-27.2728964" lon="151.2909213">
  <ele>369.4</ele>
  <time>2026-09-01T20:03:54Z</time>
  <course>204.35</course>
  <speed>15.832131884240985</speed>
  <fix>3d</fix>
</trkpt>
<trkpt lat="-27.27286" lon="151.2909394">
  <ele>370.01</ele>
  <time>2026-09-01T20:03:54Z</time>
  <course>204.23</course>
  <speed>15.8</speed>
  <fix>3d</fix>
</trkpt>
<trkpt lat="-27.2728967" lon="151.2909211">
  <ele>369.39</ele>
  <time>2026-09-01T20:03:54Z</time>
  <course>204.35</course>
  <speed>15.832131884240985</speed>
  <fix>3d</fix>
</trkpt>
<trkpt lat="-27.2729093" lon="151.2909146">
  <ele>369.21</ele>
  <time>2026-09-01T20:03:54Z</time>
  <course>204.49</course>
  <speed>15.8173638764492</speed>
  <fix>3d</fix>
</trkpt>
<trkpt lat="-27.2728859" lon="151.2909262">
  <ele>369.64</ele>
  <time>2026-09-01T20:03:54Z</time>
  <course>204.55</course>
  <speed>15.77</speed>
  <fix>3d</fix>
</trkpt>
<trkpt lat="-27.2729101" lon="151.2909141">
  <ele>369.2</ele>
  <time>2026-09-01T20:03:54Z</time>
  <course>204.5</course>
  <speed>15.8173638764492</speed>
  <fix>3d</fix>
</trkpt>
<trkpt lat="-27.2729221" lon="151.2909078">
  <ele>369.02</ele>
  <time>2026-09-01T20:03:54Z</time>
  <course>204.63</course>
  <speed>15.811770931808999</speed>
  <fix>3d</fix>
</trkpt>
<trkpt lat="-27.2728859" lon="151.2909262">
  <ele>369.64</ele>
  <time>2026-09-01T20:03:54Z</time>
  <course>204.55</course>
  <speed>15.77</speed>
  <fix>3d</fix>
</trkpt>
<trkpt lat="-27.2729225" lon="151.2909077">
  <ele>369.02</ele>
  <time>2026-09-01T20:03:54Z</time>
  <course>204.63</course>
  <speed>15.80269597252317</speed>
  <fix>3d</fix>
</trkpt>
<trkpt lat="-27.272935" lon="151.2909011">
  <ele>368.83</ele>
  <time>2026-09-01T20:03:54Z</time>
  <course>204.75</course>
  <speed>15.797192788593803</speed>
  <fix>3d</fix>
</trkpt>
<trkpt lat="-27.2729116" lon="151.2909129">
  <ele>369.27</ele>
  <time>2026-09-01T20:03:54Z</time>
  <course>204.82</course>
  <speed>15.75</speed>
  <fix>3d</fix>
</trkpt>
<trkpt lat="-27.2729353" lon="151.2909009">
  <ele>368.83</ele>
  <time>2026-09-01T20:03:54Z</time>
  <course>204.75</course>
  <speed>15.797192788593803</speed>
  <fix>3d</fix>
</trkpt>
<trkpt lat="-27.2729478" lon="151.2908943">
  <ele>368.64</ele>
  <time>2026-09-01T20:03:54Z</time>
  <course>204.87</course>
  <speed>15.787529889124517</speed>
  <fix>3d</fix>
</trkpt>
<trkpt lat="-27.2729116" lon="151.2909129">
  <ele>369.27</ele>
  <time>2026-09-01T20:03:54Z</time>
  <course>204.82</course>
  <speed>15.75</speed>
  <fix>3d</fix>
</trkpt>
<trkpt lat="-27.2729482" lon="151.2908941">
  <ele>368.63</ele>
  <time>2026-09-01T20:03:54Z</time>
  <course>204.87</course>
  <speed>15.787529889124517</speed>
  <fix>3d</fix>
</trkpt>
<trkpt lat="-27.2729606" lon="151.2908875">
  <ele>368.45</ele>
  <time>2026-09-01T20:03:54Z</time>
  <course>204.99</course>
  <speed>15.782167151566988</speed>
  <fix>3d</fix>
</trkpt>
<trkpt lat="-27.2729372" lon="151.2908995">
  <ele>368.9</ele>
  <time>2026-09-01T20:03:54Z</time>
  <course>205.05</course>
  <speed>15.73</speed>
  <fix>3d</fix>
</trkpt>
<trkpt lat="-27.272961" lon="151.2908873">
  <ele>368.44</ele>
  <time>2026-09-01T20:03:54Z</time>
  <course>204.99</course>
  <speed>15.782167151566988</speed>
  <fix>3d</fix>
</trkpt>
<trkpt lat="-27.2729734" lon="151.2908807">
  <ele>368.25</ele>
  <time>2026-09-01T20:03:54Z</time>
  <course>205.1</course>
  <speed>15.772609169062676</speed>
  <fix>3d</fix>
</trkpt>
<trkpt lat="-27.2729372" lon="151.2908995">
  <ele>368.9</ele>
  <time>2026-09-01T20:03:54Z</time>
  <course>205.05</course>
  <speed>15.73</speed>
  <fix>3d</fix>
</trkpt>
<trkpt lat="-27.2729738" lon="151.2908805">
  <ele>368.25</ele>
  <time>2026-09-01T20:03:54Z</time>
  <course>205.1</course>
  <speed>15.772609169062676</speed>
  <fix>3d</fix>
</trkpt>
<trkpt lat="-27.2729861" lon="151.2908739">
  <ele>368.06</ele>
  <time>2026-09-01T20:03:54Z</time>
  <course>205.2</course>
  <speed>15.772130483862984</speed>
  <fix>3d</fix>
</trkpt>
<trkpt lat="-27.2729628" lon="151.290886">
  <ele>368.51</ele>
  <time>2026-09-01T20:03:54Z</time>
  <course>205.25</course>
  <speed>15.71</speed>
  <fix>3d</fix>
</trkpt>
<trkpt lat="-27.2729865" lon="151.2908736">
  <ele>368.05</ele>
  <time>2026-09-01T20:03:54Z</time>
  <course>205.2</course>
  <speed>15.772130483862984</speed>
  <fix>3d</fix>
</trkpt>
<trkpt lat="-27.2729989" lon="151.290867">
  <ele>367.86</ele>
  <time>2026-09-01T20:03:54Z</time>
  <course>205.29</course>
  <speed>15.762655233176929</speed>
  <fix>3d</fix>
</trkpt>
<trkpt lat="-27.2729628" lon="151.290886">
  <ele>368.51</ele>
  <time>2026-09-01T20:03:54Z</time>
  <course>205.25</course>
  <speed>15.71</speed>
  <fix>3d</fix>
</trkpt>
<trkpt lat="-27.2730018" lon="151.2908654">
  <ele>367.81</ele>
  <time>2026-09-01T20:03:54Z</time>
  <course>205.31</course>
  <speed>15.762655233176929</speed>
  <fix>3d</fix>
</trkpt>
<trkpt lat="-27.2730117" lon="151.2908601">
  <ele>367.66</ele>
  <time>2026-09-01T20:03:54Z</time>
  <course>205.38</course>
  <speed>15.762246032846969</speed>
  <fix>3d</fix>
</trkpt>
<trkpt lat="-27.2729883" lon="151.2908724">
  <ele>368.12</ele>
  <time>2026-09-01T20:03:54Z</time>
  <course>205.42</course>
  <speed>15.7</speed>
  <fix>3d</fix>
</trkpt>
<trkpt lat="-27.2730125" lon="151.2908596">
  <ele>367.65</ele>
  <time>2026-09-01T20:03:54Z</time>
  <course>205.38</course>
  <speed>15.762246032846969</speed>
  <fix>3d</fix>
</trkpt>
<trkpt lat="-27.2730244" lon="151.2908532">
  <ele>367.46</ele>
  <time>2026-09-01T20:03:54Z</time>
  <course>205.45</course>
  <speed>15.748526915238772</speed>
  <fix>3d</fix>
</trkpt>
<trkpt lat="-27.2729883" lon="151.2908724">
  <ele>368.12</ele>
  <time>2026-09-01T20:03:54Z</time>
  <course>205.42</course>
  <speed>15.7</speed>
  <fix>3d</fix>
</trkpt>
<trkpt lat="-27.2730248" lon="151.290853">
  <ele>367.45</ele>
  <time>2026-09-01T20:03:54Z</time>
  <course>205.46</course>
  <speed>15.748526915238772</speed>
  <fix>3d</fix>
</trkpt>
<trkpt lat="-27.2730371" lon="151.2908463">
  <ele>367.26</ele>
  <time>2026-09-01T20:03:54Z</time>
  <course>205.51</course>
  <speed>15.748174497382228</speed>
  <fix>3d</fix>
</trkpt>
<trkpt lat="-27.2730137" lon="151.2908588">
  <ele>367.72</ele>
  <time>2026-09-01T20:03:54Z</time>
  <course>205.56</course>
  <speed>15.69</speed>
  <fix>3d</fix>
</trkpt>
<trkpt lat="-27.2730375" lon="151.2908461">
  <ele>367.25</ele>
  <time>2026-09-01T20:03:54Z</time>
  <course>205.51</course>
  <speed>15.748174497382228</speed>
  <fix>3d</fix>
</trkpt>
<trkpt lat="-27.2730497" lon="151.2908395">
  <ele>367.05</ele>
  <time>2026-09-01T20:03:54Z</time>
  <course>205.57</course>
  <speed>15.743506597959682</speed>
  <fix>3d</fix>
</trkpt>
<trkpt lat="-27.2730137" lon="151.2908588">
  <ele>367.72</ele>
  <time>2026-09-01T20:03:54Z</time>
  <course>205.56</course>
  <speed>15.69</speed>
  <fix>3d</fix>
</trkpt>
<trkpt lat="-27.2730502" lon="151.2908392">
  <ele>367.04</ele>
  <time>2026-09-01T20:03:54Z</time>
  <course>205.58</course>
  <speed>15.743506597959682</speed>
  <fix>3d</fix>
</trkpt>
<trkpt lat="-27.2730623" lon="151.2908326">
  <ele>366.85</ele>
  <time>2026-09-01T20:03:54Z</time>
  <course>205.63</course>
  <speed>15.729847424562006</speed>
  <fix>3d</fix>
</trkpt>
<trkpt lat="-27.2730392" lon="151.2908451">
  <ele>367.33</ele>
  <time>2026-09-01T20:03:54Z</time>
  <course>205.69</course>
  <speed>15.68</speed>
  <fix>3d</fix>
</trkpt>
<trkpt lat="-27.2730629" lon="151.2908323">
  <ele>366.84</ele>
  <time>2026-09-01T20:03:54Z</time>
  <course>205.63</course>
  <speed>15.734204778125902</speed>
  <fix>3d</fix>
</trkpt>
<trkpt lat="-27.273075" lon="151.2908257">
  <ele>366.64</ele>
  <time>2026-09-01T20:03:54Z</time>
  <course>205.68</course>
  <speed>15.72957087780846</speed>
  <fix>3d</fix>
</trkpt>
<trkpt lat="-27.2730392" lon="151.2908451">
  <ele>367.33</ele>
  <time>2026-09-01T20:03:54Z</time>
  <course>205.69</course>
  <speed>15.68</speed>
  <fix>3d</fix>
</trkpt>
<trkpt lat="-27.2730755" lon="151.2908254">
  <ele>366.64</ele>
  <time>2026-09-01T20:03:54Z</time>
  <course>205.68</course>
  <speed>15.72957087780846</speed>
  <fix>3d</fix>
</trkpt>
<trkpt lat="-27.2730877" lon="151.2908187">
  <ele>366.44</ele>
  <time>2026-09-01T20:03:54Z</time>
  <course>205.73</course>
  <speed>15.724948330598735</speed>
  <fix>3d</fix>
</trkpt>
<trkpt lat="-27.2730645" lon="151.2908312">
  <ele>366.93</ele>
  <time>2026-09-01T20:03:54Z</time>
  <course>205.79</course>
  <speed>15.67</speed>
  <fix>3d</fix>
</trkpt>
<trkpt lat="-27.2730882" lon="151.2908184">
  <ele>366.43</ele>
  <time>2026-09-01T20:03:54Z</time>
  <course>205.74</course>
  <speed>15.724948330598735</speed>
  <fix>3d</fix>
</trkpt>
<trkpt lat="-27.2731004" lon="151.2908117">
  <ele>366.23</ele>
  <time>2026-09-01T20:03:54Z</time>
  <course>205.78</course>
  <speed>15.72033714651184</speed>
  <fix>3d</fix>
</trkpt>
<trkpt lat="-27.2730645" lon="151.2908312">
  <ele>366.93</ele>
  <time>2026-09-01T20:03:54Z</time>
  <course>205.79</course>
  <speed>15.67</speed>
  <fix>3d</fix>
</trkpt>
<trkpt lat="-27.2731008" lon="151.2908115">
  <ele>366.22</ele>
  <time>2026-09-01T20:03:54Z</time>
  <course>205.78</course>
  <speed>15.72033714651184</speed>
  <fix>3d</fix>
</trkpt>
<trkpt lat="-27.2731131" lon="151.2908048">
  <ele>366.02</ele>
  <time>2026-09-01T20:03:54Z</time>
  <course>205.82</course>
  <speed>15.711349400990354</speed>
  <fix>3d</fix>
</trkpt>
<trkpt lat="-27.2730898" lon="151.2908175">
  <ele>366.52</ele>
  <time>2026-09-01T20:03:54Z</time>
  <course>205.88</course>
  <speed>15.66</speed>
  <fix>3d</fix>
</trkpt>
<trkpt lat="-27.2731139" lon="151.2908043">
  <ele>366.01</ele>
  <time>2026-09-01T20:03:54Z</time>
  <course>205.82</course>
  <speed>15.711349400990354</speed>
  <fix>3d</fix>
</trkpt>
<trkpt lat="-27.2731257" lon="151.2907978">
  <ele>365.82</ele>
  <time>2026-09-01T20:03:54Z</time>
  <course>205.85</course>
  <speed>15.70675332460531</speed>
  <fix>3d</fix>
</trkpt>
<trkpt lat="-27.2730898" lon="151.2908175">
  <ele>366.52</ele>
  <time>2026-09-01T20:03:54Z</time>
  <course>205.88</course>
  <speed>15.66</speed>
  <fix>3d</fix>
</trkpt>
<trkpt lat="-27.2731261" lon="151.2907976">
  <ele>365.81</ele>
  <time>2026-09-01T20:03:54Z</time>
  <course>205.85</course>
  <speed>15.70675332460531</speed>
  <fix>3d</fix>
</trkpt>
<trkpt lat="-27.2731383" lon="151.2907909">
  <ele>365.61</ele>
  <time>2026-09-01T20:03:54Z</time>
  <course>205.88</course>
  <speed>15.702168640031859</speed>
  <fix>3d</fix>
</trkpt>
<trkpt lat="-27.2731151" lon="151.2908036">
  <ele>366.11</ele>
  <time>2026-09-01T20:03:54Z</time>
  <course>205.95</course>
  <speed>15.66</speed>
  <fix>3d</fix>
</trkpt>
<trkpt lat="-27.2731387" lon="151.2907907">
  <ele>365.6</ele>
  <time>2026-09-01T20:03:54Z</time>
  <course>205.88</course>
  <speed>15.702168640031859</speed>
  <fix>3d</fix>
</trkpt>
<trkpt lat="-27.2731509" lon="151.2907839">
  <ele>365.4</ele>
  <time>2026-09-01T20:03:54Z</time>
  <course>205.91</course>
  <speed>15.706571872945414</speed>
  <fix>3d</fix>
</trkpt>
<trkpt lat="-27.2731151" lon="151.2908036">
  <ele>366.11</ele>
  <time>2026-09-01T20:03:54Z</time>
  <course>205.95</course>
  <speed>15.66</speed>
  <fix>3d</fix>
</trkpt>
<trkpt lat="-27.2731514" lon="151.2907837">
  <ele>365.39</ele>
  <time>2026-09-01T20:03:54Z</time>
  <course>205.91</course>
  <speed>15.706571872945414</speed>
  <fix>3d</fix>
</trkpt>
<trkpt lat="-27.2731635" lon="151.290777">
  <ele>365.19</ele>
  <time>2026-09-01T20:03:54Z</time>
  <course>205.94</course>
  <speed>15.697595357251378</speed>
  <fix>3d</fix>
</trkpt>
<trkpt lat="-27.2731404" lon="151.2907897">
  <ele>365.7</ele>
  <time>2026-09-01T20:03:54Z</time>
  <course>206.01</course>
  <speed>15.65</speed>
  <fix>3d</fix>
</trkpt>
<trkpt lat="-27.2731639" lon="151.2907768">
  <ele>365.19</ele>
  <time>2026-09-01T20:03:54Z</time>
  <course>205.94</course>
  <speed>15.697595357251378</speed>
  <fix>3d</fix>
</trkpt>
<trkpt lat="-27.2731762" lon="151.29077">
  <ele>364.98</ele>
  <time>2026-09-01T20:03:54Z</time>
  <course>205.96</course>
  <speed>15.693033486232036</speed>
  <fix>3d</fix>
</trkpt>
<trkpt lat="-27.2731404" lon="151.2907897">
  <ele>365.7</ele>
  <time>2026-09-01T20:03:54Z</time>
  <course>206.01</course>
  <speed>15.65</speed>
  <fix>3d</fix>
</trkpt>
<trkpt lat="-27.2731765" lon="151.2907698">
  <ele>364.98</ele>
  <time>2026-09-01T20:03:54Z</time>
  <course>205.96</course>
  <speed>15.693033486232036</speed>
  <fix>3d</fix>
</trkpt>
<trkpt lat="-27.2731888" lon="151.290763">
  <ele>364.77</ele>
  <time>2026-09-01T20:03:54Z</time>
  <course>205.97</course>
  <speed>15.693033486232036</speed>
  <fix>3d</fix>
</trkpt>
<trkpt lat="-27.2731658" lon="151.2907758">
  <ele>365.28</ele>
  <time>2026-09-01T20:03:54Z</time>
  <course>206.05</course>
  <speed>15.65</speed>
  <fix>3d</fix>
</trkpt>
<trkpt lat="-27.2731891" lon="151.2907629">
  <ele>364.77</ele>
  <time>2026-09-01T20:03:54Z</time>
  <course>205.97</course>
  <speed>15.693033486232036</speed>
  <fix>3d</fix>
</trkpt>
<trkpt lat="-27.2732014" lon="151.2907561">
  <ele>364.56</ele>
  <time>2026-09-01T20:03:54Z</time>
  <course>205.98</course>
  <speed>15.684061973863786</speed>
  <fix>3d</fix>
</trkpt>
<trkpt lat="-27.2731658" lon="151.2907758">
  <ele>365.28</ele>
  <time>2026-09-01T20:03:54Z</time>
  <course>206.05</course>
  <speed>15.65</speed>
  <fix>3d</fix>
</trkpt>
<trkpt lat="-27.2732017" lon="151.2907559">
  <ele>364.55</ele>
  <time>2026-09-01T20:03:54Z</time>
  <course>205.98</course>
  <speed>15.684061973863786</speed>
  <fix>3d</fix>
</trkpt>
<trkpt lat="-27.273214" lon="151.2907491">
  <ele>364.35</ele>
  <time>2026-09-01T20:03:54Z</time>
  <course>205.99</course>
  <speed>15.688483036928714</speed>
  <fix>3d</fix>
</trkpt>
<trkpt lat="-27.273191" lon="151.2907619">
  <ele>364.87</ele>
  <time>2026-09-01T20:03:54Z</time>
  <course>206.08</course>
  <speed>15.65</speed>
  <fix>3d</fix>
</trkpt>
<trkpt lat="-27.2732144" lon="151.2907488">
  <ele>364.34</ele>
  <time>2026-09-01T20:03:54Z</time>
  <course>205.99</course>
  <speed>15.688483036928714</speed>
  <fix>3d</fix>
</trkpt>
<trkpt lat="-27.2732266" lon="151.2907421">
  <ele>364.13</ele>
  <time>2026-09-01T20:03:54Z</time>
  <course>206.0</course>
  <speed>15.688483036928714</speed>
  <fix>3d</fix>
</trkpt>
<trkpt lat="-27.273191" lon="151.2907619">
  <ele>364.87</ele>
  <time>2026-09-01T20:03:54Z</time>
  <course>206.08</course>
  <speed>15.65</speed>
  <fix>3d</fix>
</trkpt>
<trkpt lat="-27.273227" lon="151.2907419">
  <ele>364.12</ele>
  <time>2026-09-01T20:03:54Z</time>
  <course>206.0</course>
  <speed>15.688483036928714</speed>
  <fix>3d</fix>
</trkpt>
<trkpt lat="-27.2732392" lon="151.2907351">
  <ele>363.92</ele>
  <time>2026-09-01T20:03:54Z</time>
  <course>206.02</course>
  <speed>15.692909226781374</speed>
  <fix>3d</fix>
</trkpt>
<trkpt lat="-27.2732163" lon="151.290748">
  <ele>364.45</ele>
  <time>2026-09-01T20:03:54Z</time>
  <course>206.11</course>
  <speed>15.65</speed>
  <fix>3d</fix>
</trkpt>
<trkpt lat="-27.2732396" lon="151.2907349">
  <ele>363.91</ele>
  <time>2026-09-01T20:03:54Z</time>
  <course>206.02</course>
  <speed>15.692909226781374</speed>
  <fix>3d</fix>
</trkpt>
<trkpt lat="-27.2732518" lon="151.2907281">
  <ele>363.7</ele>
  <time>2026-09-01T20:03:54Z</time>
  <course>206.03</course>
  <speed>15.692909226781374</speed>
  <fix>3d</fix>
</trkpt>
<trkpt lat="-27.2732163" lon="151.290748">
  <ele>364.45</ele>
  <time>2026-09-01T20:03:54Z</time>
  <course>206.11</course>
  <speed>15.65</speed>
  <fix>3d</fix>
</trkpt>
<trkpt lat="-27.2732526" lon="151.2907277">
  <ele>363.69</ele>
  <time>2026-09-01T20:03:54Z</time>
  <course>206.03</course>
  <speed>15.692909226781374</speed>
  <fix>3d</fix>
</trkpt>
<trkpt lat="-27.2732644" lon="151.2907212">
  <ele>363.5</ele>
  <time>2026-09-01T20:03:54Z</time>
  <course>206.05</course>
  <speed>15.697340539084957</speed>
  <fix>3d</fix>
</trkpt>
<trkpt lat="-27.2732415" lon="151.2907341">
  <ele>364.03</ele>
  <time>2026-09-01T20:03:54Z</time>
  <course>206.13</course>
  <speed>15.65</speed>
  <fix>3d</fix>
</trkpt>
<trkpt lat="-27.2732648" lon="151.2907209">
  <ele>363.49</ele>
  <time>2026-09-01T20:03:54Z</time>
  <course>206.05</course>
  <speed>15.697340539084957</speed>
  <fix>3d</fix>
</trkpt>
<trkpt lat="-27.273277" lon="151.2907142">
  <ele>363.29</ele>
  <time>2026-09-01T20:03:54Z</time>
  <course>206.06</course>
  <speed>15.697340539084957</speed>
  <fix>3d</fix>
</trkpt>
<trkpt lat="-27.2732415" lon="151.2907341">
  <ele>364.03</ele>
  <time>2026-09-01T20:03:54Z</time>
  <course>206.13</course>
  <speed>15.65</speed>
  <fix>3d</fix>
</trkpt>
<trkpt lat="-27.2732774" lon="151.2907139">
  <ele>363.28</ele>
  <time>2026-09-01T20:03:54Z</time>
  <course>206.06</course>
  <speed>15.697340539084957</speed>
  <fix>3d</fix>
</trkpt>
<trkpt lat="-27.2732896" lon="151.2907072">
  <ele>363.09</ele>
  <time>2026-09-01T20:03:54Z</time>
  <course>206.07</course>
  <speed>15.697340539084957</speed>
  <fix>3d</fix>
</trkpt>
<trkpt lat="-27.2732668" lon="151.2907202">
  <ele>363.61</ele>
  <time>2026-09-01T20:03:54Z</time>
  <course>206.14</course>
  <speed>15.66</speed>
  <fix>3d</fix>
</trkpt>
<trkpt lat="-27.2732901" lon="151.2907069">
  <ele>363.09</ele>
  <time>2026-09-01T20:03:54Z</time>
  <course>206.07</course>
  <speed>15.697340539084957</speed>
  <fix>3d</fix>
</trkpt>
<trkpt lat="-27.2733023" lon="151.2907002">
  <ele>362.9</ele>
  <time>2026-09-01T20:03:54Z</time>
  <course>206.07</course>
  <speed>15.701776969502527</speed>
  <fix>3d</fix>
</trkpt>
<trkpt lat="-27.2732668" lon="151.2907202">
  <ele>363.61</ele>
  <time>2026-09-01T20:03:54Z</time>
  <course>206.14</course>
  <speed>15.66</speed>
  <fix>3d</fix>
</trkpt>
<trkpt lat="-27.2733027" lon="151.2906999">
  <ele>362.9</ele>
  <time>2026-09-01T20:03:54Z</time>
  <course>206.07</course>
  <speed>15.701776969502527</speed>
  <fix>3d</fix>
</trkpt>
<trkpt lat="-27.2733149" lon="151.2906932">
  <ele>362.72</ele>
  <time>2026-09-01T20:03:54Z</time>
  <course>206.08</course>
  <speed>15.701776969502527</speed>
  <fix>3d</fix>
</trkpt>
<trkpt lat="-27.273292" lon="151.2907062">
  <ele>363.22</ele>
  <time>2026-09-01T20:03:54Z</time>
  <course>206.15</course>
  <speed>15.67</speed>
  <fix>3d</fix>
</trkpt>
<trkpt lat="-27.2733183" lon="151.2906913">
  <ele>362.67</ele>
  <time>2026-09-01T20:03:54Z</time>
  <course>206.08</course>
  <speed>15.701776969502527</speed>
  <fix>3d</fix>
</trkpt>
<trkpt lat="-27.2733275" lon="151.2906862">
  <ele>362.54</ele>
  <time>2026-09-01T20:03:54Z</time>
  <course>206.09</course>
  <speed>15.688377863883824</speed>
  <fix>3d</fix>
</trkpt>
<trkpt lat="-27.273292" lon="151.2907062">
  <ele>363.22</ele>
  <time>2026-09-01T20:03:54Z</time>
  <course>206.15</course>
  <speed>15.67</speed>
  <fix>3d</fix>
</trkpt>
<trkpt lat="-27.2733279" lon="151.290686">
  <ele>362.54</ele>
  <time>2026-09-01T20:03:54Z</time>
  <course>206.09</course>
  <speed>15.688377863883824</speed>
  <fix>3d</fix>
</trkpt>
<trkpt lat="-27.2733401" lon="151.2906792">
  <ele>362.37</ele>
  <time>2026-09-01T20:03:54Z</time>
  <course>206.1</course>
  <speed>15.679416443222625</speed>
  <fix>3d</fix>
</trkpt>
<trkpt lat="-27.2733173" lon="151.2906923">
  <ele>362.85</ele>
  <time>2026-09-01T20:03:54Z</time>
  <course>206.16</course>
  <speed>15.67</speed>
  <fix>3d</fix>
</trkpt>
<trkpt lat="-27.2733405" lon="151.290679">
  <ele>362.37</ele>
  <time>2026-09-01T20:03:54Z</time>
  <course>206.1</course>
  <speed>15.679416443222625</speed>
  <fix>3d</fix>
</trkpt>
<trkpt lat="-27.2733532" lon="151.2906719">
  <ele>362.2</ele>
  <time>2026-09-01T20:03:54Z</time>
  <course>206.1</course>
  <speed>15.670456279253644</speed>
  <fix>3d</fix>
</trkpt>
<trkpt lat="-27.2733173" lon="151.2906923">
  <ele>362.85</ele>
  <time>2026-09-01T20:03:54Z</time>
  <course>206.16</course>
  <speed>15.67</speed>
  <fix>3d</fix>
</trkpt>
<trkpt lat="-27.2733537" lon="151.2906717">
  <ele>362.19</ele>
  <time>2026-09-01T20:03:54Z</time>
  <course>206.1</course>
  <speed>15.670456279253644</speed>
  <fix>3d</fix>
</trkpt>
<trkpt lat="-27.2733654" lon="151.2906652">
  <ele>362.05</ele>
  <time>2026-09-01T20:03:54Z</time>
  <course>206.1</course>
  <speed>15.657055917381147</speed>
  <fix>3d</fix>
</trkpt>
<trkpt lat="-27.2733426" lon="151.2906783">
  <ele>362.5</ele>
  <time>2026-09-01T20:03:54Z</time>
  <course>206.17</course>
  <speed>15.66</speed>
  <fix>3d</fix>
</trkpt>
<trkpt lat="-27.2733658" lon="151.290665">
  <ele>362.04</ele>
  <time>2026-09-01T20:03:54Z</time>
  <course>206.1</course>
  <speed>15.657055917381147</speed>
  <fix>3d</fix>
</trkpt>
<trkpt lat="-27.273378" lon="151.2906582">
  <ele>361.89</ele>
  <time>2026-09-01T20:03:54Z</time>
  <course>206.11</course>
  <speed>15.639136804823979</speed>
  <fix>3d</fix>
</trkpt>
<trkpt lat="-27.2733426" lon="151.2906783">
  <ele>362.5</ele>
  <time>2026-09-01T20:03:54Z</time>
  <course>206.17</course>
  <speed>15.66</speed>
  <fix>3d</fix>
</trkpt>
<trkpt lat="-27.2733784" lon="151.290658">
  <ele>361.89</ele>
  <time>2026-09-01T20:03:54Z</time>
  <course>206.11</course>
  <speed>15.639136804823979</speed>
  <fix>3d</fix>
</trkpt>
<trkpt lat="-27.2733906" lon="151.2906513">
  <ele>361.75</ele>
  <time>2026-09-01T20:03:54Z</time>
  <course>206.11</course>
  <speed>15.625735182704204</speed>
  <fix>3d</fix>
</trkpt>
<trkpt lat="-27.2733677" lon="151.2906643">
  <ele>362.17</ele>
  <time>2026-09-01T20:03:54Z</time>
  <course>206.17</course>
  <speed>15.64</speed>
  <fix>3d</fix>
</trkpt>
<trkpt lat="-27.273391" lon="151.290651">
  <ele>361.74</ele>
  <time>2026-09-01T20:03:54Z</time>
  <course>206.11</course>
  <speed>15.625735182704204</speed>
  <fix>3d</fix>
</trkpt>
<trkpt lat="-27.2734031" lon="151.2906443">
  <ele>361.6</ele>
  <time>2026-09-01T20:03:54Z</time>
  <course>206.11</course>
  <speed>15.603374634994829</speed>
  <fix>3d</fix>
</trkpt>
<trkpt lat="-27.2733677" lon="151.2906643">
  <ele>362.17</ele>
  <time>2026-09-01T20:03:54Z</time>
  <course>206.17</course>
  <speed>15.64</speed>
  <fix>3d</fix>
</trkpt>
<trkpt lat="-27.2734036" lon="151.2906441">
  <ele>361.6</ele>
  <time>2026-09-01T20:03:54Z</time>
  <course>206.1</course>
  <speed>15.603374634994829</speed>
  <fix>3d</fix>
</trkpt>
<trkpt lat="-27.2734157" lon="151.2906374">
  <ele>361.46</ele>
  <time>2026-09-01T20:03:54Z</time>
  <course>206.09</course>
  <speed>15.589974342506148</speed>
  <fix>3d</fix>
</trkpt>
<trkpt lat="-27.273393" lon="151.2906504">
  <ele>361.87</ele>
  <time>2026-09-01T20:03:54Z</time>
  <course>206.17</course>
  <speed>15.61</speed>
  <fix>3d</fix>
</trkpt>
<trkpt lat="-27.2734165" lon="151.2906369">
  <ele>361.45</ele>
  <time>2026-09-01T20:03:54Z</time>
  <course>206.09</course>
  <speed>15.589974342506148</speed>
  <fix>3d</fix>
</trkpt>
<trkpt lat="-27.2734282" lon="151.2906304">
  <ele>361.33</ele>
  <time>2026-09-01T20:03:54Z</time>
  <course>206.08</course>
  <speed>15.567613818437302</speed>
  <fix>3d</fix>
</trkpt>
<trkpt lat="-27.273393" lon="151.2906504">
  <ele>361.87</ele>
  <time>2026-09-01T20:03:54Z</time>
  <course>206.17</course>
  <speed>15.61</speed>
  <fix>3d</fix>
</trkpt>
<trkpt lat="-27.2734285" lon="151.2906303">
  <ele>361.32</ele>
  <time>2026-09-01T20:03:54Z</time>
  <course>206.08</course>
  <speed>15.567613818437302</speed>
  <fix>3d</fix>
</trkpt>
<trkpt lat="-27.2734407" lon="151.2906235">
  <ele>361.2</ele>
  <time>2026-09-01T20:03:54Z</time>
  <course>206.07</course>
  <speed>15.54969453076169</speed>
  <fix>3d</fix>
</trkpt>
<trkpt lat="-27.2734182" lon="151.2906364">
  <ele>361.59</ele>
  <time>2026-09-01T20:03:54Z</time>
  <course>206.17</course>
  <speed>15.58</speed>
  <fix>3d</fix>
</trkpt>
<trkpt lat="-27.273441" lon="151.2906233">
  <ele>361.19</ele>
  <time>2026-09-01T20:03:54Z</time>
  <course>206.07</course>
  <speed>15.54969453076169</speed>
  <fix>3d</fix>
</trkpt>
<trkpt lat="-27.2734532" lon="151.2906166">
  <ele>361.06</ele>
  <time>2026-09-01T20:03:54Z</time>
  <course>206.07</course>
  <speed>15.536292994147606</speed>
  <fix>3d</fix>
</trkpt>
<trkpt lat="-27.2734182" lon="151.2906364">
  <ele>361.59</ele>
  <time>2026-09-01T20:03:54Z</time>
  <course>206.17</course>
  <speed>15.58</speed>
  <fix>3d</fix>
</trkpt>
<trkpt lat="-27.2734535" lon="151.2906164">
  <ele>361.06</ele>
  <time>2026-09-01T20:03:54Z</time>
  <course>206.07</course>
  <speed>15.536292994147606</speed>
  <fix>3d</fix>
</trkpt>
<trkpt lat="-27.2734657" lon="151.2906097">
  <ele>360.94</ele>
  <time>2026-09-01T20:03:54Z</time>
  <course>206.09</course>
  <speed>15.513932447964315</speed>
  <fix>3d</fix>
</trkpt>
<trkpt lat="-27.2734434" lon="151.2906225">
  <ele>361.32</ele>
  <time>2026-09-01T20:03:54Z</time>
  <course>206.16</course>
  <speed>15.55</speed>
  <fix>3d</fix>
</trkpt>
<trkpt lat="-27.273466" lon="151.2906095">
  <ele>360.93</ele>
  <time>2026-09-01T20:03:54Z</time>
  <course>206.09</course>
  <speed>15.513932447964315</speed>
  <fix>3d</fix>
</trkpt>
<trkpt lat="-27.2734782" lon="151.2906027">
  <ele>360.81</ele>
  <time>2026-09-01T20:03:54Z</time>
  <course>206.1</course>
  <speed>15.500532248926163</speed>
  <fix>3d</fix>
</trkpt>
<trkpt lat="-27.2734434" lon="151.2906225">
  <ele>361.32</ele>
  <time>2026-09-01T20:03:54Z</time>
  <course>206.16</course>
  <speed>15.55</speed>
  <fix>3d</fix>
</trkpt>
<trkpt lat="-27.2734786" lon="151.2906025">
  <ele>360.8</ele>
  <time>2026-09-01T20:03:54Z</time>
  <course>206.1</course>
  <speed>15.500532248926163</speed>
  <fix>3d</fix>
</trkpt>
<trkpt lat="-27.2734907" lon="151.2905958">
  <ele>360.68</ele>
  <time>2026-09-01T20:03:54Z</time>
  <course>206.11</course>
  <speed>15.478171726660744</speed>
  <fix>3d</fix>
</trkpt>
<trkpt lat="-27.2734684" lon="151.2906087">
  <ele>361.06</ele>
  <time>2026-09-01T20:03:54Z</time>
  <course>206.16</course>
  <speed>15.52</speed>
  <fix>3d</fix>
</trkpt>
<trkpt lat="-27.2734911" lon="151.2905956">
  <ele>360.68</ele>
  <time>2026-09-01T20:03:54Z</time>
  <course>206.11</course>
  <speed>15.478171726660744</speed>
  <fix>3d</fix>
</trkpt>
<trkpt lat="-27.2735032" lon="151.2905889">
  <ele>360.56</ele>
  <time>2026-09-01T20:03:54Z</time>
  <course>206.11</course>
  <speed>15.464772872564279</speed>
  <fix>3d</fix>
</trkpt>
<trkpt lat="-27.2734684" lon="151.2906087">
  <ele>361.06</ele>
  <time>2026-09-01T20:03:54Z</time>
  <course>206.16</course>
  <speed>15.52</speed>
  <fix>3d</fix>
</trkpt>
<trkpt lat="-27.2735036" lon="151.2905887">
  <ele>360.55</ele>
  <time>2026-09-01T20:03:54Z</time>
  <course>206.11</course>
  <speed>15.464772872564279</speed>
  <fix>3d</fix>
</trkpt>
<trkpt lat="-27.2735156" lon="151.2905821">
  <ele>360.44</ele>
  <time>2026-09-01T20:03:54Z</time>
  <course>206.11</course>
  <speed>15.455811204851075</speed>
  <fix>3d</fix>
</trkpt>
<trkpt lat="-27.2734934" lon="151.2905948">
  <ele>360.81</ele>
  <time>2026-09-01T20:03:54Z</time>
  <course>206.15</course>
  <speed>15.49</speed>
  <fix>3d</fix>
</trkpt>
<trkpt lat="-27.2735185" lon="151.2905805">
  <ele>360.41</ele>
  <time>2026-09-01T20:03:54Z</time>
  <course>206.11</course>
  <speed>15.446850811735057</speed>
  <fix>3d</fix>
</trkpt>
<trkpt lat="-27.2735281" lon="151.2905752">
  <ele>360.32</ele>
  <time>2026-09-01T20:03:54Z</time>
  <course>206.11</course>
  <speed>15.433450683499139</speed>
  <fix>3d</fix>
</trkpt>
<trkpt lat="-27.2734934" lon="151.2905948">
  <ele>360.81</ele>
  <time>2026-09-01T20:03:54Z</time>
  <course>206.15</course>
  <speed>15.49</speed>
  <fix>3d</fix>
</trkpt>
<trkpt lat="-27.2735285" lon="151.2905749">
  <ele>360.32</ele>
  <time>2026-09-01T20:03:54Z</time>
  <course>206.11</course>
  <speed>15.433450683499139</speed>
  <fix>3d</fix>
</trkpt>
<trkpt lat="-27.2735405" lon="151.2905683">
  <ele>360.21</ele>
  <time>2026-09-01T20:03:54Z</time>
  <course>206.08</course>
  <speed>15.420051880587174</speed>
  <fix>3d</fix>
</trkpt>
<trkpt lat="-27.2735183" lon="151.2905811">
  <ele>360.57</ele>
  <time>2026-09-01T20:03:54Z</time>
  <course>206.14</course>
  <speed>15.46</speed>
  <fix>3d</fix>
</trkpt>
<trkpt lat="-27.2735409" lon="151.2905681">
  <ele>360.2</ele>
  <time>2026-09-01T20:03:54Z</time>
  <course>206.08</course>
  <speed>15.420051880587174</speed>
  <fix>3d</fix>
</trkpt>
<trkpt lat="-27.273553" lon="151.2905614">
  <ele>360.09</ele>
  <time>2026-09-01T20:03:54Z</time>
  <course>206.06</course>
  <speed>15.411090162606927</speed>
  <fix>3d</fix>
</trkpt>
<trkpt lat="-27.2735183" lon="151.2905811">
  <ele>360.57</ele>
  <time>2026-09-01T20:03:54Z</time>
  <course>206.14</course>
  <speed>15.46</speed>
  <fix>3d</fix>
</trkpt>
<trkpt lat="-27.2735534" lon="151.2905612">
  <ele>360.09</ele>
  <time>2026-09-01T20:03:54Z</time>
  <course>206.06</course>
  <speed>15.411090162606927</speed>
  <fix>3d</fix>
</trkpt>
<trkpt lat="-27.2735654" lon="151.2905546">
  <ele>359.98</ele>
  <time>2026-09-01T20:03:54Z</time>
  <course>206.05</course>
  <speed>15.397691385399305</speed>
  <fix>3d</fix>
</trkpt>
<trkpt lat="-27.2735432" lon="151.2905673">
  <ele>360.34</ele>
  <time>2026-09-01T20:03:54Z</time>
  <course>206.14</course>
  <speed>15.43</speed>
  <fix>3d</fix>
</trkpt>
<trkpt lat="-27.2735658" lon="151.2905543">
  <ele>359.98</ele>
  <time>2026-09-01T20:03:54Z</time>
  <course>206.05</course>
  <speed>15.397691385399305</speed>
  <fix>3d</fix>
</trkpt>
<trkpt lat="-27.2735778" lon="151.2905477">
  <ele>359.87</ele>
  <time>2026-09-01T20:03:54Z</time>
  <course>206.07</course>
  <speed>15.384293938949554</speed>
  <fix>3d</fix>
</trkpt>
<trkpt lat="-27.2735432" lon="151.2905673">
  <ele>360.34</ele>
  <time>2026-09-01T20:03:54Z</time>
  <course>206.14</course>
  <speed>15.43</speed>
  <fix>3d</fix>
</trkpt>
<trkpt lat="-27.2735782" lon="151.2905475">
  <ele>359.87</ele>
  <time>2026-09-01T20:03:54Z</time>
  <course>206.07</course>
  <speed>15.384293938949554</speed>
  <fix>3d</fix>
</trkpt>
<trkpt lat="-27.2735902" lon="151.2905409">
  <ele>359.76</ele>
  <time>2026-09-01T20:03:54Z</time>
  <course>206.08</course>
  <speed>15.375330890748335</speed>
  <fix>3d</fix>
</trkpt>
<trkpt lat="-27.2735681" lon="151.2905536">
  <ele>360.12</ele>
  <time>2026-09-01T20:03:54Z</time>
  <course>206.13</course>
  <speed>15.41</speed>
  <fix>3d</fix>
</trkpt>
<trkpt lat="-27.2735906" lon="151.2905406">
  <ele>359.76</ele>
  <time>2026-09-01T20:03:54Z</time>
  <course>206.08</course>
  <speed>15.375330890748335</speed>
  <fix>3d</fix>
</trkpt>
<trkpt lat="-27.273603" lon="151.2905338">
  <ele>359.66</ele>
  <time>2026-09-01T20:03:54Z</time>
  <course>206.08</course>
  <speed>15.36636912220971</speed>
  <fix>3d</fix>
</trkpt>
<trkpt lat="-27.2735681" lon="151.2905536">
  <ele>360.12</ele>
  <time>2026-09-01T20:03:54Z</time>
  <course>206.13</course>
  <speed>15.41</speed>
  <fix>3d</fix>
</trkpt>
<trkpt lat="-27.2736034" lon="151.2905336">
  <ele>359.65</ele>
  <time>2026-09-01T20:03:54Z</time>
  <course>206.08</course>
  <speed>15.36636912220971</speed>
  <fix>3d</fix>
</trkpt>
<trkpt lat="-27.2736154" lon="151.2905269">
  <ele>359.55</ele>
  <time>2026-09-01T20:03:54Z</time>
  <course>206.07</course>
  <speed>15.361933472060084</speed>
  <fix>3d</fix>
</trkpt>
<trkpt lat="-27.273593" lon="151.2905399">
  <ele>359.9</ele>
  <time>2026-09-01T20:03:54Z</time>
  <course>206.13</course>
  <speed>15.39</speed>
  <fix>3d</fix>
</trkpt>
<trkpt lat="-27.2736183" lon="151.2905254">
  <ele>359.53</ele>
  <time>2026-09-01T20:03:54Z</time>
  <course>206.07</course>
  <speed>15.361933472060084</speed>
  <fix>3d</fix>
</trkpt>
<trkpt lat="-27.2736278" lon="151.2905201">
  <ele>359.45</ele>
  <time>2026-09-01T20:03:54Z</time>
  <course>206.05</course>
  <speed>15.352970396636605</speed>
  <fix>3d</fix>
</trkpt>
<trkpt lat="-27.273593" lon="151.2905399">
  <ele>359.9</ele>
  <time>2026-09-01T20:03:54Z</time>
  <course>206.13</course>
  <speed>15.39</speed>
  <fix>3d</fix>
</trkpt>
<trkpt lat="-27.2736307" lon="151.2905185">
  <ele>359.43</ele>
  <time>2026-09-01T20:03:54Z</time>
  <course>206.05</course>
  <speed>15.352970396636605</speed>
  <fix>3d</fix>
</trkpt>
<trkpt lat="-27.2736402" lon="151.2905133">
  <ele>359.35</ele>
  <time>2026-09-01T20:03:54Z</time>
  <course>206.04</course>
  <speed>15.352970396636605</speed>
  <fix>3d</fix>
</trkpt>
<trkpt lat="-27.2736177" lon="151.2905262">
  <ele>359.69</ele>
  <time>2026-09-01T20:03:54Z</time>
  <course>206.13</course>
  <speed>15.38</speed>
  <fix>3d</fix>
</trkpt>
<trkpt lat="-27.2736406" lon="151.290513">
  <ele>359.35</ele>
  <time>2026-09-01T20:03:54Z</time>
  <course>206.04</course>
  <speed>15.352970396636605</speed>
  <fix>3d</fix>
</trkpt>
<trkpt lat="-27.2736526" lon="151.2905064">
  <ele>359.26</ele>
  <time>2026-09-01T20:03:54Z</time>
  <course>206.04</course>
  <speed>15.361933472060084</speed>
  <fix>3d</fix>
</trkpt>
<trkpt lat="-27.2736177" lon="151.2905262">
  <ele>359.69</ele>
  <time>2026-09-01T20:03:54Z</time>
  <course>206.13</course>
  <speed>15.38</speed>
  <fix>3d</fix>
</trkpt>
<trkpt lat="-27.273653" lon="151.2905062">
  <ele>359.26</ele>
  <time>2026-09-01T20:03:54Z</time>
  <course>206.04</course>
  <speed>15.361933472060084</speed>
  <fix>3d</fix>
</trkpt>
<trkpt lat="-27.273665" lon="151.2904996">
  <ele>359.17</ele>
  <time>2026-09-01T20:03:54Z</time>
  <course>206.05</course>
  <speed>15.361933472060084</speed>
  <fix>3d</fix>
</trkpt>
<trkpt lat="-27.2736426" lon="151.2905125">
  <ele>359.49</ele>
  <time>2026-09-01T20:03:54Z</time>
  <course>206.13</course>
  <speed>15.38</speed>
  <fix>3d</fix>
</trkpt>
<trkpt lat="-27.2736654" lon="151.2904994">
  <ele>359.17</ele>
  <time>2026-09-01T20:03:54Z</time>
  <course>206.05</course>
  <speed>15.361933472060084</speed>
  <fix>3d</fix>
</trkpt>
<trkpt lat="-27.2736774" lon="151.2904927">
  <ele>359.08</ele>
  <time>2026-09-01T20:03:54Z</time>
  <course>206.05</course>
  <speed>15.370897826737382</speed>
  <fix>3d</fix>
</trkpt>
<trkpt lat="-27.2736426" lon="151.2905125">
  <ele>359.49</ele>
  <time>2026-09-01T20:03:54Z</time>
  <course>206.13</course>
  <speed>15.38</speed>
  <fix>3d</fix>
</trkpt>
<trkpt lat="-27.2736778" lon="151.2904925">
  <ele>359.08</ele>
  <time>2026-09-01T20:03:54Z</time>
  <course>206.05</course>
  <speed>15.370897826737382</speed>
  <fix>3d</fix>
</trkpt>
<trkpt lat="-27.2736898" lon="151.2904859">
  <ele>358.99</ele>
  <time>2026-09-01T20:03:54Z</time>
  <course>206.06</course>
  <speed>15.384293938949554</speed>
  <fix>3d</fix>
</trkpt>
<trkpt lat="-27.2736674" lon="151.2904988">
  <ele>359.31</ele>
  <time>2026-09-01T20:03:54Z</time>
  <course>206.12</course>
  <speed>15.39</speed>
  <fix>3d</fix>
</trkpt>
<trkpt lat="-27.2736902" lon="151.2904857">
  <ele>358.99</ele>
  <time>2026-09-01T20:03:54Z</time>
  <course>206.06</course>
  <speed>15.384293938949554</speed>
  <fix>3d</fix>
</trkpt>
<trkpt lat="-27.2737019" lon="151.2904792">
  <ele>358.91</ele>
  <time>2026-09-01T20:03:54Z</time>
  <course>206.08</course>
  <speed>15.393258264578035</speed>
  <fix>3d</fix>
</trkpt>
<trkpt lat="-27.2736674" lon="151.2904988">
  <ele>359.31</ele>
  <time>2026-09-01T20:03:54Z</time>
  <course>206.12</course>
  <speed>15.39</speed>
  <fix>3d</fix>
</trkpt>
<trkpt lat="-27.2737022" lon="151.290479">
  <ele>358.91</ele>
  <time>2026-09-01T20:03:54Z</time>
  <course>206.08</course>
  <speed>15.393258264578035</speed>
  <fix>3d</fix>
</trkpt>
<trkpt lat="-27.2737144" lon="151.2904723">
  <ele>358.83</ele>
  <time>2026-09-01T20:03:54Z</time>
  <course>206.08</course>
  <speed>15.415618703120547</speed>
  <fix>3d</fix>
</trkpt>
<trkpt lat="-27.2736923" lon="151.290485">
  <ele>359.13</ele>
  <time>2026-09-01T20:03:54Z</time>
  <course>206.12</course>
  <speed>15.41</speed>
  <fix>3d</fix>
</trkpt>
<trkpt lat="-27.2737147" lon="151.2904722">
  <ele>358.83</ele>
  <time>2026-09-01T20:03:54Z</time>
  <course>206.08</course>
  <speed>15.415618703120547</speed>
  <fix>3d</fix>
</trkpt>
<trkpt lat="-27.2737268" lon="151.2904655">
  <ele>358.75</ele>
  <time>2026-09-01T20:03:54Z</time>
  <course>206.07</course>
  <speed>15.40665440645697</speed>
  <fix>3d</fix>
</trkpt>
<trkpt lat="-27.2736923" lon="151.290485">
  <ele>359.13</ele>
  <time>2026-09-01T20:03:54Z</time>
  <course>206.12</course>
  <speed>15.41</speed>
  <fix>3d</fix>
</trkpt>
<trkpt lat="-27.2737272" lon="151.2904652">
  <ele>358.75</ele>
  <time>2026-09-01T20:03:54Z</time>
  <course>206.07</course>
  <speed>15.40665440645697</speed>
  <fix>3d</fix>
</trkpt>
<trkpt lat="-27.2737393" lon="151.2904586">
  <ele>358.68</ele>
  <time>2026-09-01T20:03:54Z</time>
  <course>206.06</course>
  <speed>15.393258264578035</speed>
  <fix>3d</fix>
</trkpt>
<trkpt lat="-27.2737172" lon="151.2904713">
  <ele>358.97</ele>
  <time>2026-09-01T20:03:54Z</time>
  <course>206.13</course>
  <speed>15.42</speed>
  <fix>3d</fix>
</trkpt>
<trkpt lat="-27.2737397" lon="151.2904584">
  <ele>358.68</ele>
  <time>2026-09-01T20:03:54Z</time>
  <course>206.05</course>
  <speed>15.393258264578035</speed>
  <fix>3d</fix>
</trkpt>
<trkpt lat="-27.2737517" lon="151.2904518">
  <ele>358.61</ele>
  <time>2026-09-01T20:03:54Z</time>
  <course>206.04</course>
  <speed>15.370897826737382</speed>
  <fix>3d</fix>
</trkpt>
<trkpt lat="-27.2737172" lon="151.2904713">
  <ele>358.97</ele>
  <time>2026-09-01T20:03:54Z</time>
  <course>206.13</course>
  <speed>15.42</speed>
  <fix>3d</fix>
</trkpt>
<trkpt lat="-27.2737521" lon="151.2904515">
  <ele>358.6</ele>
  <time>2026-09-01T20:03:54Z</time>
  <course>206.03</course>
  <speed>15.370897826737382</speed>
  <fix>3d</fix>
</trkpt>
<trkpt lat="-27.2737641" lon="151.2904449">
  <ele>358.54</ele>
  <time>2026-09-01T20:03:54Z</time>
  <course>205.94</course>
  <speed>15.339573005791262</speed>
  <fix>3d</fix>
</trkpt>
<trkpt lat="-27.2737421" lon="151.2904576">
  <ele>358.81</ele>
  <time>2026-09-01T20:03:54Z</time>
  <course>206.14</course>
  <speed>15.41</speed>
  <fix>3d</fix>
</trkpt>
<trkpt lat="-27.2737645" lon="151.2904447">
  <ele>358.54</ele>
  <time>2026-09-01T20:03:54Z</time>
  <course>205.94</course>
  <speed>15.33060990306648</speed>
  <fix>3d</fix>
</trkpt>
<trkpt lat="-27.2737764" lon="151.2904381">
  <ele>358.48</ele>
  <time>2026-09-01T20:03:54Z</time>
  <course>205.89</course>
  <speed>15.26806143555887</speed>
  <fix>3d</fix>
</trkpt>
<trkpt lat="-27.2737421" lon="151.2904576">
  <ele>358.81</ele>
  <time>2026-09-01T20:03:54Z</time>
  <course>206.14</course>
  <speed>15.41</speed>
  <fix>3d</fix>
</trkpt>
<trkpt lat="-27.2737768" lon="151.2904379">
  <ele>358.48</ele>
  <time>2026-09-01T20:03:54Z</time>
  <course>205.89</course>
  <speed>15.26806143555887</speed>
  <fix>3d</fix>
</trkpt>
<trkpt lat="-27.2737887" lon="151.2904313">
  <ele>358.42</ele>
  <time>2026-09-01T20:03:54Z</time>
  <course>205.89</course>
  <speed>15.192014349650938</speed>
  <fix>3d</fix>
</trkpt>
<trkpt lat="-27.2737669" lon="151.2904439">
  <ele>358.67</ele>
  <time>2026-09-01T20:03:54Z</time>
  <course>206.13</course>
  <speed>15.34</speed>
  <fix>3d</fix>
</trkpt>
<trkpt lat="-27.2737891" lon="151.2904311">
  <ele>358.42</ele>
  <time>2026-09-01T20:03:54Z</time>
  <course>205.89</course>
  <speed>15.18758703678764</speed>
  <fix>3d</fix>
</trkpt>
<trkpt lat="-27.273801" lon="151.2904246">
  <ele>358.37</ele>
  <time>2026-09-01T20:03:54Z</time>
  <course>205.9</course>
  <speed>15.107114218142392</speed>
  <fix>3d</fix>
</trkpt>
<trkpt lat="-27.2737669" lon="151.2904439">
  <ele>358.67</ele>
  <time>2026-09-01T20:03:54Z</time>
  <course>206.13</course>
  <speed>15.34</speed>
  <fix>3d</fix>
</trkpt>
<trkpt lat="-27.2738038" lon="151.290423">
  <ele>358.36</ele>
  <time>2026-09-01T20:03:54Z</time>
  <course>205.9</course>
  <speed>15.084753892589697</speed>
  <fix>3d</fix>
</trkpt>
<trkpt lat="-27.2738131" lon="151.2904179">
  <ele>358.32</ele>
  <time>2026-09-01T20:03:54Z</time>
  <course>205.9</course>
  <speed>15.026643005009468</speed>
  <fix>3d</fix>
</trkpt>
<trkpt lat="-27.2737915" lon="151.2904303">
  <ele>358.55</ele>
  <time>2026-09-01T20:03:54Z</time>
  <course>206.11</course>
  <speed>15.21</speed>
  <fix>3d</fix>
</trkpt>
<trkpt lat="-27.2738135" lon="151.2904177">
  <ele>358.32</ele>
  <time>2026-09-01T20:03:54Z</time>
  <course>205.9</course>
  <speed>15.017672922260626</speed>
  <fix>3d</fix>
</trkpt>
<trkpt lat="-27.2738252" lon="151.2904112">
  <ele>358.27</ele>
  <time>2026-09-01T20:03:54Z</time>
  <course>205.9</course>
  <speed>14.937201879870273</speed>
  <fix>3d</fix>
</trkpt>
<trkpt lat="-27.2737915" lon="151.2904303">
  <ele>358.55</ele>
  <time>2026-09-01T20:03:54Z</time>
  <course>206.11</course>
  <speed>15.21</speed>
  <fix>3d</fix>
</trkpt>
<trkpt lat="-27.2738256" lon="151.290411">
  <ele>358.27</ele>
  <time>2026-09-01T20:03:54Z</time>
  <course>205.9</course>
  <speed>14.937201879870273</speed>
  <fix>3d</fix>
</trkpt>
<trkpt lat="-27.2738373" lon="151.2904046">
  <ele>358.22</ele>
  <time>2026-09-01T20:03:54Z</time>
  <course>205.88</course>
  <speed>14.85673248059613</speed>
  <fix>3d</fix>
</trkpt>
<trkpt lat="-27.2738159" lon="151.2904169">
  <ele>358.45</ele>
  <time>2026-09-01T20:03:54Z</time>
  <course>206.07</course>
  <speed>15.05</speed>
  <fix>3d</fix>
</trkpt>
<trkpt lat="-27.2738377" lon="151.2904044">
  <ele>358.22</ele>
  <time>2026-09-01T20:03:54Z</time>
  <course>205.88</course>
  <speed>14.85673248059613</speed>
  <fix>3d</fix>
</trkpt>
<trkpt lat="-27.2738493" lon="151.290398">
  <ele>358.17</ele>
  <time>2026-09-01T20:03:54Z</time>
  <course>205.87</course>
  <speed>14.776264751282714</speed>
  <fix>3d</fix>
</trkpt>
<trkpt lat="-27.2738159" lon="151.2904169">
  <ele>358.45</ele>
  <time>2026-09-01T20:03:54Z</time>
  <course>206.07</course>
  <speed>15.05</speed>
  <fix>3d</fix>
</trkpt>
<trkpt lat="-27.2738497" lon="151.2903978">
  <ele>358.17</ele>
  <time>2026-09-01T20:03:54Z</time>
  <course>205.87</course>
  <speed>14.771854995226565</speed>
  <fix>3d</fix>
</trkpt>
<trkpt lat="-27.2738616" lon="151.2903913">
  <ele>358.12</ele>
  <time>2026-09-01T20:03:54Z</time>
  <course>205.87</course>
  <speed>14.69139203751639</speed>
  <fix>3d</fix>
</trkpt>
<trkpt lat="-27.2738401" lon="151.2904036">
  <ele>358.34</ele>
  <time>2026-09-01T20:03:54Z</time>
  <course>206.03</course>
  <speed>14.88</speed>
  <fix>3d</fix>
</trkpt>
<trkpt lat="-27.273862" lon="151.2903911">
  <ele>358.12</ele>
  <time>2026-09-01T20:03:54Z</time>
  <course>205.87</course>
  <speed>14.69139203751639</speed>
  <fix>3d</fix>
</trkpt>
<trkpt lat="-27.2738734" lon="151.2903848">
  <ele>358.07</ele>
  <time>2026-09-01T20:03:54Z</time>
  <course>205.91</course>
  <speed>14.624311949626895</speed>
  <fix>3d</fix>
</trkpt>
<trkpt lat="-27.2738401" lon="151.2904036">
  <ele>358.34</ele>
  <time>2026-09-01T20:03:54Z</time>
  <course>206.03</course>
  <speed>14.88</speed>
  <fix>3d</fix>
</trkpt>
<trkpt lat="-27.2738742" lon="151.2903844">
  <ele>358.07</ele>
  <time>2026-09-01T20:03:54Z</time>
  <course>205.92</course>
  <speed>14.624311949626895</speed>
  <fix>3d</fix>
</trkpt>
<trkpt lat="-27.2738853" lon="151.2903783">
  <ele>358.02</ele>
  <time>2026-09-01T20:03:54Z</time>
  <course>205.96</course>
  <speed>14.579591901010124</speed>
  <fix>3d</fix>
</trkpt>
<trkpt lat="-27.273864" lon="151.2903905">
  <ele>358.24</ele>
  <time>2026-09-01T20:03:54Z</time>
  <course>206.0</course>
  <speed>14.73</speed>
  <fix>3d</fix>
</trkpt>
<trkpt lat="-27.2738857" lon="151.2903781">
  <ele>358.02</ele>
  <time>2026-09-01T20:03:54Z</time>
  <course>205.96</course>
  <speed>14.579591901010124</speed>
  <fix>3d</fix>
</trkpt>
<trkpt lat="-27.2738971" lon="151.2903719">
  <ele>357.98</ele>
  <time>2026-09-01T20:03:54Z</time>
  <course>205.99</course>
  <speed>14.54825419079554</speed>
  <fix>3d</fix>
</trkpt>
<trkpt lat="-27.273864" lon="151.2903905">
  <ele>358.24</ele>
  <time>2026-09-01T20:03:54Z</time>
  <course>206.0</course>
  <speed>14.73</speed>
  <fix>3d</fix>
</trkpt>
<trkpt lat="-27.2738974" lon="151.2903717">
  <ele>357.98</ele>
  <time>2026-09-01T20:03:54Z</time>
  <course>205.99</course>
  <speed>14.54825419079554</speed>
  <fix>3d</fix>
</trkpt>
<trkpt lat="-27.2739088" lon="151.2903654">
  <ele>357.94</ele>
  <time>2026-09-01T20:03:54Z</time>
  <course>206.01</course>
  <speed>14.525894120500809</speed>
  <fix>3d</fix>
</trkpt>
<trkpt lat="-27.2738877" lon="151.2903774">
  <ele>358.14</ele>
  <time>2026-09-01T20:03:54Z</time>
  <course>205.99</course>
  <speed>14.62</speed>
  <fix>3d</fix>
</trkpt>
<trkpt lat="-27.2739092" lon="151.2903652">
  <ele>357.94</ele>
  <time>2026-09-01T20:03:54Z</time>
  <course>206.01</course>
  <speed>14.516917716926</speed>
  <fix>3d</fix>
</trkpt>
<trkpt lat="-27.2739206" lon="151.290359">
  <ele>357.9</ele>
  <time>2026-09-01T20:03:54Z</time>
  <course>206.03</course>
  <speed>14.49455759931982</speed>
  <fix>3d</fix>
</trkpt>
<trkpt lat="-27.2738877" lon="151.2903774">
  <ele>358.14</ele>
  <time>2026-09-01T20:03:54Z</time>
  <course>205.99</course>
  <speed>14.62</speed>
  <fix>3d</fix>
</trkpt>
<trkpt lat="-27.273921" lon="151.2903588">
  <ele>357.9</ele>
  <time>2026-09-01T20:03:54Z</time>
  <course>206.04</course>
  <speed>14.485582487425212</speed>
  <fix>3d</fix>
</trkpt>
<trkpt lat="-27.2739323" lon="151.2903525">
  <ele>357.87</ele>
  <time>2026-09-01T20:03:54Z</time>
  <course>206.05</course>
  <speed>14.454248510386142</speed>
  <fix>3d</fix>
</trkpt>
<trkpt lat="-27.2739113" lon="151.2903645">
  <ele>358.05</ele>
  <time>2026-09-01T20:03:54Z</time>
  <course>206.01</course>
  <speed>14.55</speed>
  <fix>3d</fix>
</trkpt>
<trkpt lat="-27.2739327" lon="151.2903523">
  <ele>357.87</ele>
  <time>2026-09-01T20:03:54Z</time>
  <course>206.05</course>
  <speed>14.454248510386142</speed>
  <fix>3d</fix>
</trkpt>
<trkpt lat="-27.273944" lon="151.2903461">
  <ele>357.84</ele>
  <time>2026-09-01T20:03:54Z</time>
  <course>206.07</course>
  <speed>14.413944637051996</speed>
  <fix>3d</fix>
</trkpt>
<trkpt lat="-27.2739113" lon="151.2903645">
  <ele>358.05</ele>
  <time>2026-09-01T20:03:54Z</time>
  <course>206.01</course>
  <speed>14.55</speed>
  <fix>3d</fix>
</trkpt>
<trkpt lat="-27.2739444" lon="151.2903459">
  <ele>357.84</ele>
  <time>2026-09-01T20:03:54Z</time>
  <course>206.07</course>
  <speed>14.413944637051996</speed>
  <fix>3d</fix>
</trkpt>
<trkpt lat="-27.2739556" lon="151.2903397">
  <ele>357.81</ele>
  <time>2026-09-01T20:03:54Z</time>
  <course>206.1</course>
  <speed>14.360254176023487</speed>
  <fix>3d</fix>
</trkpt>
<trkpt lat="-27.2739347" lon="151.2903516">
  <ele>357.97</ele>
  <time>2026-09-01T20:03:54Z</time>
  <course>206.06</course>
  <speed>14.48</speed>
  <fix>3d</fix>
</trkpt>
<trkpt lat="-27.273956" lon="151.2903395">
  <ele>357.81</ele>
  <time>2026-09-01T20:03:54Z</time>
  <course>206.1</course>
  <speed>14.360254176023487</speed>
  <fix>3d</fix>
</trkpt>
<trkpt lat="-27.2739672" lon="151.2903333">
  <ele>357.79</ele>
  <time>2026-09-01T20:03:54Z</time>
  <course>206.12</course>
  <speed>14.297597700313155</speed>
  <fix>3d</fix>
</trkpt>
<trkpt lat="-27.2739347" lon="151.2903516">
  <ele>357.97</ele>
  <time>2026-09-01T20:03:54Z</time>
  <course>206.06</course>
  <speed>14.48</speed>
  <fix>3d</fix>
</trkpt>
<trkpt lat="-27.2739676" lon="151.2903331">
  <ele>357.79</ele>
  <time>2026-09-01T20:03:54Z</time>
  <course>206.13</course>
  <speed>14.297597700313155</speed>
  <fix>3d</fix>
</trkpt>
<trkpt lat="-27.2739786" lon="151.290327">
  <ele>357.77</ele>
  <time>2026-09-01T20:03:54Z</time>
  <course>206.15</course>
  <speed>14.243910979783607</speed>
  <fix>3d</fix>
</trkpt>
<trkpt lat="-27.273958" lon="151.2903387">
  <ele>357.91</ele>
  <time>2026-09-01T20:03:54Z</time>
  <course>206.11</course>
  <speed>14.38</speed>
  <fix>3d</fix>
</trkpt>
<trkpt lat="-27.2739791" lon="151.2903267">
  <ele>357.77</ele>
  <time>2026-09-01T20:03:54Z</time>
  <course>206.15</course>
  <speed>14.234946434742914</speed>
  <fix>3d</fix>
</trkpt>
<trkpt lat="-27.2739901" lon="151.2903206">
  <ele>357.75</ele>
  <time>2026-09-01T20:03:54Z</time>
  <course>206.18</course>
  <speed>14.18126228514232</speed>
  <fix>3d</fix>
</trkpt>
<trkpt lat="-27.273958" lon="151.2903387">
  <ele>357.91</ele>
  <time>2026-09-01T20:03:54Z</time>
  <course>206.11</course>
  <speed>14.38</speed>
  <fix>3d</fix>
</trkpt>
<trkpt lat="-27.2739924" lon="151.2903194">
  <ele>357.75</ele>
  <time>2026-09-01T20:03:54Z</time>
  <course>206.18</course>
  <speed>14.167865047352759</speed>
  <fix>3d</fix>
</trkpt>
<trkpt lat="-27.2740016" lon="151.2903143">
  <ele>357.73</ele>
  <time>2026-09-01T20:03:54Z</time>
  <course>206.2</course>
  <speed>14.136541302595909</speed>
  <fix>3d</fix>
</trkpt>
<trkpt lat="-27.2739811" lon="151.290326">
  <ele>357.87</ele>
  <time>2026-09-01T20:03:54Z</time>
  <course>206.16</course>
  <speed>14.27</speed>
  <fix>3d</fix>
</trkpt>
<trkpt lat="-27.2740021" lon="151.2903141">
  <ele>357.73</ele>
  <time>2026-09-01T20:03:54Z</time>
  <course>206.2</course>
  <speed>14.127579410500582</speed>
  <fix>3d</fix>
</trkpt>
<trkpt lat="-27.274013" lon="151.290308">
  <ele>357.72</ele>
  <time>2026-09-01T20:03:54Z</time>
  <course>206.21</course>
  <speed>14.087299244354824</speed>
  <fix>3d</fix>
</trkpt>
<trkpt lat="-27.2739811" lon="151.290326">
  <ele>357.87</ele>
  <time>2026-09-01T20:03:54Z</time>
  <course>206.16</course>
  <speed>14.27</speed>
  <fix>3d</fix>
</trkpt>
<trkpt lat="-27.2740134" lon="151.2903077">
  <ele>357.72</ele>
  <time>2026-09-01T20:03:54Z</time>
  <course>206.21</course>
  <speed>14.087299244354824</speed>
  <fix>3d</fix>
</trkpt>
<trkpt lat="-27.2740244" lon="151.2903016">
  <ele>357.7</ele>
  <time>2026-09-01T20:03:54Z</time>
  <course>206.22</course>
  <speed>14.042578110874086</speed>
  <fix>3d</fix>
</trkpt>
<trkpt lat="-27.274004" lon="151.2903133">
  <ele>357.83</ele>
  <time>2026-09-01T20:03:54Z</time>
  <course>206.22</course>
  <speed>14.16</speed>
  <fix>3d</fix>
</trkpt>
<trkpt lat="-27.2740248" lon="151.2903014">
  <ele>357.7</ele>
  <time>2026-09-01T20:03:54Z</time>
  <course>206.22</course>
  <speed>14.042578110874086</speed>
  <fix>3d</fix>
</trkpt>
<trkpt lat="-27.2740355" lon="151.2902955">
  <ele>357.7</ele>
  <time>2026-09-01T20:03:54Z</time>
  <course>206.23</course>
  <speed>14.002303381943987</speed>
  <fix>3d</fix>
</trkpt>
<trkpt lat="-27.274004" lon="151.2903133">
  <ele>357.83</ele>
  <time>2026-09-01T20:03:54Z</time>
  <course>206.22</course>
  <speed>14.16</speed>
  <fix>3d</fix>
</trkpt>
<trkpt lat="-27.2740358" lon="151.2902953">
  <ele>357.7</ele>
  <time>2026-09-01T20:03:54Z</time>
  <course>206.23</course>
  <speed>14.002303381943987</speed>
  <fix>3d</fix>
</trkpt>
<trkpt lat="-27.2740468" lon="151.2902892">
  <ele>357.69</ele>
  <time>2026-09-01T20:03:54Z</time>
  <course>206.22</course>
  <speed>13.970987796143836</speed>
  <fix>3d</fix>
</trkpt>
<trkpt lat="-27.2740267" lon="151.2903007">
  <ele>357.8</ele>
  <time>2026-09-01T20:03:54Z</time>
  <course>206.27</course>
  <speed>14.07</speed>
  <fix>3d</fix>
</trkpt>
<trkpt lat="-27.2740471" lon="151.290289">
  <ele>357.69</ele>
  <time>2026-09-01T20:03:54Z</time>
  <course>206.22</course>
  <speed>13.970987796143836</speed>
  <fix>3d</fix>
</trkpt>
<trkpt lat="-27.274058" lon="151.290283">
  <ele>357.69</ele>
  <time>2026-09-01T20:03:54Z</time>
  <course>206.22</course>
  <speed>13.92626654922273</speed>
  <fix>3d</fix>
</trkpt>
<trkpt lat="-27.2740267" lon="151.2903007">
  <ele>357.8</ele>
  <time>2026-09-01T20:03:54Z</time>
  <course>206.27</course>
  <speed>14.07</speed>
  <fix>3d</fix>
</trkpt>
<trkpt lat="-27.2740584" lon="151.2902828">
  <ele>357.68</ele>
  <time>2026-09-01T20:03:54Z</time>
  <course>206.22</course>
  <speed>13.92626654922273</speed>
  <fix>3d</fix>
</trkpt>
<trkpt lat="-27.2740692" lon="151.2902767">
  <ele>357.68</ele>
  <time>2026-09-01T20:03:54Z</time>
  <course>206.23</course>
  <speed>13.894952320896966</speed>
  <fix>3d</fix>
</trkpt>
<trkpt lat="-27.2740493" lon="151.2902882">
  <ele>357.78</ele>
  <time>2026-09-01T20:03:54Z</time>
  <course>206.31</course>
  <speed>13.99</speed>
  <fix>3d</fix>
</trkpt>
<trkpt lat="-27.2740696" lon="151.2902765">
  <ele>357.68</ele>
  <time>2026-09-01T20:03:54Z</time>
  <course>206.23</course>
  <speed>13.894952320896966</speed>
  <fix>3d</fix>
</trkpt>
<trkpt lat="-27.2740804" lon="151.2902705">
  <ele>357.69</ele>
  <time>2026-09-01T20:03:54Z</time>
  <course>206.26</course>
  <speed>13.863639493293238</speed>
  <fix>3d</fix>
</trkpt>
<trkpt lat="-27.2740493" lon="151.2902882">
  <ele>357.78</ele>
  <time>2026-09-01T20:03:54Z</time>
  <course>206.31</course>
  <speed>13.99</speed>
  <fix>3d</fix>
</trkpt>
<trkpt lat="-27.2740808" lon="151.2902703">
  <ele>357.69</ele>
  <time>2026-09-01T20:03:54Z</time>
  <course>206.26</course>
  <speed>13.863639493293238</speed>
  <fix>3d</fix>
</trkpt>
<trkpt lat="-27.2740916" lon="151.2902643">
  <ele>357.69</ele>
  <time>2026-09-01T20:03:54Z</time>
  <course>206.3</course>
  <speed>13.823378747614493</speed>
  <fix>3d</fix>
</trkpt>
<trkpt lat="-27.2740718" lon="151.2902756">
  <ele>357.78</ele>
  <time>2026-09-01T20:03:54Z</time>
  <course>206.35</course>
  <speed>13.92</speed>
  <fix>3d</fix>
</trkpt>
<trkpt lat="-27.274092" lon="151.2902641">
  <ele>357.69</ele>
  <time>2026-09-01T20:03:54Z</time>
  <course>206.3</course>
  <speed>13.823378747614493</speed>
  <fix>3d</fix>
</trkpt>
<trkpt lat="-27.2741031" lon="151.2902578">
  <ele>357.7</ele>
  <time>2026-09-01T20:03:54Z</time>
  <course>206.32</course>
  <speed>13.792070185436266</speed>
  <fix>3d</fix>
</trkpt>
<trkpt lat="-27.2740718" lon="151.2902756">
  <ele>357.78</ele>
  <time>2026-09-01T20:03:54Z</time>
  <course>206.35</course>
  <speed>13.92</speed>
  <fix>3d</fix>
</trkpt>
<trkpt lat="-27.2741035" lon="151.2902576">
  <ele>357.7</ele>
  <time>2026-09-01T20:03:54Z</time>
  <course>206.32</course>
  <speed>13.792070185436266</speed>
  <fix>3d</fix>
</trkpt>
<trkpt lat="-27.2741143" lon="151.2902516">
  <ele>357.7</ele>
  <time>2026-09-01T20:03:54Z</time>
  <course>206.33</course>
  <speed>13.74734883532094</speed>
  <fix>3d</fix>
</trkpt>
<trkpt lat="-27.2740941" lon="151.2902632">
  <ele>357.78</ele>
  <time>2026-09-01T20:03:54Z</time>
  <course>206.39</course>
  <speed>13.84</speed>
  <fix>3d</fix>
</trkpt>
<trkpt lat="-27.2741146" lon="151.2902514">
  <ele>357.7</ele>
  <time>2026-09-01T20:03:54Z</time>
  <course>206.33</course>
  <speed>13.74734883532094</speed>
  <fix>3d</fix>
</trkpt>
<trkpt lat="-27.2741253" lon="151.2902454">
  <ele>357.71</ele>
  <time>2026-09-01T20:03:54Z</time>
  <course>206.35</course>
  <speed>13.716041703057044</speed>
  <fix>3d</fix>
</trkpt>
<trkpt lat="-27.2740941" lon="151.2902632">
  <ele>357.78</ele>
  <time>2026-09-01T20:03:54Z</time>
  <course>206.39</course>
  <speed>13.84</speed>
  <fix>3d</fix>
</trkpt>
<trkpt lat="-27.2741257" lon="151.2902452">
  <ele>357.71</ele>
  <time>2026-09-01T20:03:54Z</time>
  <course>206.35</course>
  <speed>13.707096702073711</speed>
  <fix>3d</fix>
</trkpt>
<trkpt lat="-27.2741364" lon="151.2902392">
  <ele>357.72</ele>
  <time>2026-09-01T20:03:54Z</time>
  <course>206.36</course>
  <speed>13.675792481607784</speed>
  <fix>3d</fix>
</trkpt>
<trkpt lat="-27.2741163" lon="151.2902508">
  <ele>357.78</ele>
  <time>2026-09-01T20:03:54Z</time>
  <course>206.43</course>
  <speed>13.77</speed>
  <fix>3d</fix>
</trkpt>
<trkpt lat="-27.2741368" lon="151.290239">
  <ele>357.72</ele>
  <time>2026-09-01T20:03:54Z</time>
  <course>206.36</course>
  <speed>13.675792481607784</speed>
  <fix>3d</fix>
</trkpt>
<trkpt lat="-27.2741474" lon="151.2902331">
  <ele>357.73</ele>
  <time>2026-09-01T20:03:54Z</time>
  <course>206.37</course>
  <speed>13.635549127189561</speed>
  <fix>3d</fix>
</trkpt>
<trkpt lat="-27.2741163" lon="151.2902508">
  <ele>357.78</ele>
  <time>2026-09-01T20:03:54Z</time>
  <course>206.43</course>
  <speed>13.77</speed>
  <fix>3d</fix>
</trkpt>
<trkpt lat="-27.2741478" lon="151.2902329">
  <ele>357.74</ele>
  <time>2026-09-01T20:03:54Z</time>
  <course>206.37</course>
  <speed>13.635549127189561</speed>
  <fix>3d</fix>
</trkpt>
<trkpt lat="-27.2741584" lon="151.2902269">
  <ele>357.75</ele>
  <time>2026-09-01T20:03:54Z</time>
  <course>206.36</course>
  <speed>13.5997683803806</speed>
  <fix>3d</fix>
</trkpt>
<trkpt lat="-27.2741385" lon="151.2902384">
  <ele>357.8</ele>
  <time>2026-09-01T20:03:54Z</time>
  <course>206.47</course>
  <speed>13.69</speed>
  <fix>3d</fix>
</trkpt>
<trkpt lat="-27.2741588" lon="151.2902267">
  <ele>357.75</ele>
  <time>2026-09-01T20:03:54Z</time>
  <course>206.36</course>
  <speed>13.5997683803806</speed>
  <fix>3d</fix>
</trkpt>
<trkpt lat="-27.2741693" lon="151.2902208">
  <ele>357.75</ele>
  <time>2026-09-01T20:03:54Z</time>
  <course>206.33</course>
  <speed>13.559528015384606</speed>
  <fix>3d</fix>
</trkpt>
<trkpt lat="-27.2741385" lon="151.2902384">
  <ele>357.8</ele>
  <time>2026-09-01T20:03:54Z</time>
  <course>206.47</course>
  <speed>13.69</speed>
  <fix>3d</fix>
</trkpt>
<trkpt lat="-27.2741697" lon="151.2902206">
  <ele>357.76</ele>
  <time>2026-09-01T20:03:54Z</time>
  <course>206.33</course>
  <speed>13.559528015384606</speed>
  <fix>3d</fix>
</trkpt>
<trkpt lat="-27.2741803" lon="151.2902146">
  <ele>357.76</ele>
  <time>2026-09-01T20:03:54Z</time>
  <course>206.34</course>
  <speed>13.514806694880988</speed>
  <fix>3d</fix>
</trkpt>
<trkpt lat="-27.2741605" lon="151.290226">
  <ele>357.81</ele>
  <time>2026-09-01T20:03:54Z</time>
  <course>206.51</course>
  <speed>13.61</speed>
  <fix>3d</fix>
</trkpt>
<trkpt lat="-27.274181" lon="151.2902142">
  <ele>357.76</ele>
  <time>2026-09-01T20:03:54Z</time>
  <course>206.34</course>
  <speed>13.514806694880988</speed>
  <fix>3d</fix>
</trkpt>
<trkpt lat="-27.2741911" lon="151.2902085">
  <ele>357.77</ele>
  <time>2026-09-01T20:03:54Z</time>
  <course>206.36</course>
  <speed>13.474572349429128</speed>
  <fix>3d</fix>
</trkpt>
<trkpt lat="-27.2741605" lon="151.290226">
  <ele>357.81</ele>
  <time>2026-09-01T20:03:54Z</time>
  <course>206.51</course>
  <speed>13.61</speed>
  <fix>3d</fix>
</trkpt>
<trkpt lat="-27.2741915" lon="151.2902083">
  <ele>357.77</ele>
  <time>2026-09-01T20:03:54Z</time>
  <course>206.36</course>
  <speed>13.474572349429128</speed>
  <fix>3d</fix>
</trkpt>
<trkpt lat="-27.274202" lon="151.2902024">
  <ele>357.78</ele>
  <time>2026-09-01T20:03:54Z</time>
  <course>206.38</course>
  <speed>13.385129808858785</speed>
  <fix>3d</fix>
</trkpt>
<trkpt lat="-27.2741823" lon="151.2902138">
  <ele>357.83</ele>
  <time>2026-09-01T20:03:54Z</time>
  <course>206.55</course>
  <speed>13.53</speed>
  <fix>3d</fix>
</trkpt>
<trkpt lat="-27.2742023" lon="151.2902022">
  <ele>357.78</ele>
  <time>2026-09-01T20:03:54Z</time>
  <course>206.38</course>
  <speed>13.385129808858785</speed>
  <fix>3d</fix>
</trkpt>
<trkpt lat="-27.2742126" lon="151.2901964">
  <ele>357.79</ele>
  <time>2026-09-01T20:03:54Z</time>
  <course>206.44</course>
  <speed>13.264392183586853</speed>
  <fix>3d</fix>
</trkpt>
<trkpt lat="-27.2741823" lon="151.2902138">
  <ele>357.83</ele>
  <time>2026-09-01T20:03:54Z</time>
  <course>206.55</course>
  <speed>13.53</speed>
  <fix>3d</fix>
</trkpt>
<trkpt lat="-27.2742131" lon="151.2901962">
  <ele>357.79</ele>
  <time>2026-09-01T20:03:54Z</time>
  <course>206.44</course>
  <speed>13.264392183586853</speed>
  <fix>3d</fix>
</trkpt>
<trkpt lat="-27.2742233" lon="151.2901904">
  <ele>357.8</ele>
  <time>2026-09-01T20:03:54Z</time>
  <course>206.49</course>
  <speed>13.130228482398925</speed>
  <fix>3d</fix>
</trkpt>
<trkpt lat="-27.2742039" lon="151.2902016">
  <ele>357.84</ele>
  <time>2026-09-01T20:03:54Z</time>
  <course>206.58</course>
  <speed>13.38</speed>
  <fix>3d</fix>
</trkpt>
<trkpt lat="-27.2742237" lon="151.2901902">
  <ele>357.8</ele>
  <time>2026-09-01T20:03:54Z</time>
  <course>206.49</course>
  <speed>13.130228482398925</speed>
  <fix>3d</fix>
</trkpt>
<trkpt lat="-27.2742338" lon="151.2901845">
  <ele>357.82</ele>
  <time>2026-09-01T20:03:54Z</time>
  <course>206.52</course>
  <speed>12.996064789004402</speed>
  <fix>3d</fix>
</trkpt>
<trkpt lat="-27.2742039" lon="151.2902016">
  <ele>357.84</ele>
  <time>2026-09-01T20:03:54Z</time>
  <course>206.58</course>
  <speed>13.38</speed>
  <fix>3d</fix>
</trkpt>
<trkpt lat="-27.2742342" lon="151.2901843">
  <ele>357.82</ele>
  <time>2026-09-01T20:03:54Z</time>
  <course>206.53</course>
  <speed>12.987132092960323</speed>
  <fix>3d</fix>
</trkpt>
<trkpt lat="-27.2742442" lon="151.2901786">
  <ele>357.84</ele>
  <time>2026-09-01T20:03:54Z</time>
  <course>206.54</course>
  <speed>12.852968528709622</speed>
  <fix>3d</fix>
</trkpt>
<trkpt lat="-27.2742252" lon="151.2901896">
  <ele>357.87</ele>
  <time>2026-09-01T20:03:54Z</time>
  <course>206.6</course>
  <speed>13.14</speed>
  <fix>3d</fix>
</trkpt>
<trkpt lat="-27.2742446" lon="151.2901784">
  <ele>357.84</ele>
  <time>2026-09-01T20:03:54Z</time>
  <course>206.54</course>
  <speed>12.839540490220045</speed>
  <fix>3d</fix>
</trkpt>
<trkpt lat="-27.2742546" lon="151.2901728">
  <ele>357.88</ele>
  <time>2026-09-01T20:03:54Z</time>
  <course>206.55</course>
  <speed>12.69644438415732</speed>
  <fix>3d</fix>
</trkpt>
<trkpt lat="-27.2742252" lon="151.2901896">
  <ele>357.87</ele>
  <time>2026-09-01T20:03:54Z</time>
  <course>206.6</course>
  <speed>13.14</speed>
  <fix>3d</fix>
</trkpt>
<trkpt lat="-27.2742549" lon="151.2901726">
  <ele>357.88</ele>
  <time>2026-09-01T20:03:54Z</time>
  <course>206.55</course>
  <speed>12.683016202780788</speed>
  <fix>3d</fix>
</trkpt>
<trkpt lat="-27.2742647" lon="151.2901671">
  <ele>357.91</ele>
  <time>2026-09-01T20:03:54Z</time>
  <course>206.55</course>
  <speed>12.526491927111914</speed>
  <fix>3d</fix>
</trkpt>
<trkpt lat="-27.2742461" lon="151.2901779">
  <ele>357.92</ele>
  <time>2026-09-01T20:03:54Z</time>
  <course>206.62</course>
  <speed>12.85</speed>
  <fix>3d</fix>
</trkpt>
<trkpt lat="-27.2742654" lon="151.2901667">
  <ele>357.92</ele>
  <time>2026-09-01T20:03:54Z</time>
  <course>206.55</course>
  <speed>12.517559666324741</speed>
  <fix>3d</fix>
</trkpt>
<trkpt lat="-27.2742748" lon="151.2901614">
  <ele>357.96</ele>
  <time>2026-09-01T20:03:54Z</time>
  <course>206.55</course>
  <speed>12.35654077806568</speed>
  <fix>3d</fix>
</trkpt>
<trkpt lat="-27.2742461" lon="151.2901779">
  <ele>357.92</ele>
  <time>2026-09-01T20:03:54Z</time>
  <course>206.62</course>
  <speed>12.85</speed>
  <fix>3d</fix>
</trkpt>
<trkpt lat="-27.2742751" lon="151.2901612">
  <ele>357.96</ele>
  <time>2026-09-01T20:03:54Z</time>
  <course>206.55</course>
  <speed>12.347607055620129</speed>
  <fix>3d</fix>
</trkpt>
<trkpt lat="-27.2742846" lon="151.2901559">
  <ele>358.01</ele>
  <time>2026-09-01T20:03:54Z</time>
  <course>206.56</course>
  <speed>12.177655767839719</speed>
  <fix>3d</fix>
</trkpt>
<trkpt lat="-27.2742665" lon="151.2901664">
  <ele>357.99</ele>
  <time>2026-09-01T20:03:54Z</time>
  <course>206.62</course>
  <speed>12.53</speed>
  <fix>3d</fix>
</trkpt>
<trkpt lat="-27.274285" lon="151.2901557">
  <ele>358.01</ele>
  <time>2026-09-01T20:03:54Z</time>
  <course>206.56</course>
  <speed>12.168722200790024</speed>
  <fix>3d</fix>
</trkpt>
<trkpt lat="-27.2742944" lon="151.2901504">
  <ele>358.06</ele>
  <time>2026-09-01T20:03:54Z</time>
  <course>206.56</course>
  <speed>11.998770770374772</speed>
  <fix>3d</fix>
</trkpt>
<trkpt lat="-27.2742665" lon="151.2901664">
  <ele>357.99</ele>
  <time>2026-09-01T20:03:54Z</time>
  <course>206.62</course>
  <speed>12.53</speed>
  <fix>3d</fix>
</trkpt>
<trkpt lat="-27.2742946" lon="151.2901502">
  <ele>358.06</ele>
  <time>2026-09-01T20:03:54Z</time>
  <course>206.56</course>
  <speed>11.989837363367362</speed>
  <fix>3d</fix>
</trkpt>
<trkpt lat="-27.274304" lon="151.290145">
  <ele>358.12</ele>
  <time>2026-09-01T20:03:54Z</time>
  <course>206.57</course>
  <speed>11.80646009606605</speed>
  <fix>3d</fix>
</trkpt>
<trkpt lat="-27.2742864" lon="151.2901552">
  <ele>358.08</ele>
  <time>2026-09-01T20:03:54Z</time>
  <course>206.61</course>
  <speed>12.18</speed>
  <fix>3d</fix>
</trkpt>
<trkpt lat="-27.2743042" lon="151.2901449">
  <ele>358.12</ele>
  <time>2026-09-01T20:03:54Z</time>
  <course>206.57</course>
  <speed>11.80646009606605</speed>
  <fix>3d</fix>
</trkpt>
<trkpt lat="-27.2743134" lon="151.2901397">
  <ele>358.18</ele>
  <time>2026-09-01T20:03:54Z</time>
  <course>206.58</course>
  <speed>11.627574983632657</speed>
  <fix>3d</fix>
</trkpt>
<trkpt lat="-27.2742864" lon="151.2901552">
  <ele>358.08</ele>
  <time>2026-09-01T20:03:54Z</time>
  <course>206.61</course>
  <speed>12.18</speed>
  <fix>3d</fix>
</trkpt>
<trkpt lat="-27.2743153" lon="151.2901386">
  <ele>358.19</ele>
  <time>2026-09-01T20:03:54Z</time>
  <course>206.58</course>
  <speed>11.591790198239442</speed>
  <fix>3d</fix>
</trkpt>
<trkpt lat="-27.2743227" lon="151.2901345">
  <ele>358.24</ele>
  <time>2026-09-01T20:03:54Z</time>
  <course>206.59</course>
  <speed>11.430783000302297</speed>
  <fix>3d</fix>
</trkpt>
<trkpt lat="-27.2743057" lon="151.2901443">
  <ele>358.19</ele>
  <time>2026-09-01T20:03:54Z</time>
  <course>206.58</course>
  <speed>11.82</speed>
  <fix>3d</fix>
</trkpt>
<trkpt lat="-27.2743229" lon="151.2901343">
  <ele>358.24</ele>
  <time>2026-09-01T20:03:54Z</time>
  <course>206.59</course>
  <speed>11.421843108710608</speed>
  <fix>3d</fix>
</trkpt>
<trkpt lat="-27.2743319" lon="151.2901293">
  <ele>358.31</ele>
  <time>2026-09-01T20:03:54Z</time>
  <course>206.59</course>
  <speed>11.220597132060307</speed>
  <fix>3d</fix>
</trkpt>
<trkpt lat="-27.2743057" lon="151.2901443">
  <ele>358.19</ele>
  <time>2026-09-01T20:03:54Z</time>
  <course>206.58</course>
  <speed>11.82</speed>
  <fix>3d</fix>
</trkpt>
<trkpt lat="-27.2743322" lon="151.2901291">
  <ele>358.31</ele>
  <time>2026-09-01T20:03:54Z</time>
  <course>206.59</course>
  <speed>11.216117866713065</speed>
  <fix>3d</fix>
</trkpt>
<trkpt lat="-27.2743408" lon="151.2901243">
  <ele>358.39</ele>
  <time>2026-09-01T20:03:54Z</time>
  <course>206.57</course>
  <speed>11.001454449298965</speed>
  <fix>3d</fix>
</trkpt>
<trkpt lat="-27.2743243" lon="151.2901338">
  <ele>358.31</ele>
  <time>2026-09-01T20:03:54Z</time>
  <course>206.54</course>
  <speed>11.43</speed>
  <fix>3d</fix>
</trkpt>
<trkpt lat="-27.2743411" lon="151.2901241">
  <ele>358.39</ele>
  <time>2026-09-01T20:03:54Z</time>
  <course>206.57</course>
  <speed>10.992511087099253</speed>
  <fix>3d</fix>
</trkpt>
<trkpt lat="-27.2743496" lon="151.2901194">
  <ele>358.47</ele>
  <time>2026-09-01T20:03:54Z</time>
  <course>206.55</course>
  <speed>10.777847651548987</speed>
  <fix>3d</fix>
</trkpt>
<trkpt lat="-27.2743243" lon="151.2901338">
  <ele>358.31</ele>
  <time>2026-09-01T20:03:54Z</time>
  <course>206.54</course>
  <speed>11.43</speed>
  <fix>3d</fix>
</trkpt>
<trkpt lat="-27.2743499" lon="151.2901192">
  <ele>358.47</ele>
  <time>2026-09-01T20:03:54Z</time>
  <course>206.55</course>
  <speed>10.764432172669396</speed>
  <fix>3d</fix>
</trkpt>
<trkpt lat="-27.2743581" lon="151.2901146">
  <ele>358.56</ele>
  <time>2026-09-01T20:03:54Z</time>
  <course>206.52</course>
  <speed>10.540825394626363</speed>
  <fix>3d</fix>
</trkpt>
<trkpt lat="-27.2743423" lon="151.2901236">
  <ele>358.46</ele>
  <time>2026-09-01T20:03:54Z</time>
  <course>206.49</course>
  <speed>11.01</speed>
  <fix>3d</fix>
</trkpt>
<trkpt lat="-27.2743584" lon="151.2901145">
  <ele>358.57</ele>
  <time>2026-09-01T20:03:54Z</time>
  <course>206.52</course>
  <speed>10.527411837674062</speed>
  <fix>3d</fix>
</trkpt>
<trkpt lat="-27.2743665" lon="151.2901099">
  <ele>358.66</ele>
  <time>2026-09-01T20:03:54Z</time>
  <course>206.48</course>
  <speed>10.299344639344776</speed>
  <fix>3d</fix>
</trkpt>
<trkpt lat="-27.2743423" lon="151.2901236">
  <ele>358.46</ele>
  <time>2026-09-01T20:03:54Z</time>
  <course>206.49</course>
  <speed>11.01</speed>
  <fix>3d</fix>
</trkpt>
<trkpt lat="-27.2743668" lon="151.2901098">
  <ele>358.66</ele>
  <time>2026-09-01T20:03:54Z</time>
  <course>206.48</course>
  <speed>10.290393578478911</speed>
  <fix>3d</fix>
</trkpt>
<trkpt lat="-27.2743747" lon="151.2901054">
  <ele>358.76</ele>
  <time>2026-09-01T20:03:54Z</time>
  <course>206.43</course>
  <speed>10.039970119477449</speed>
  <fix>3d</fix>
</trkpt>
<trkpt lat="-27.2743597" lon="151.2901139">
  <ele>358.63</ele>
  <time>2026-09-01T20:03:54Z</time>
  <course>206.41</course>
  <speed>10.55</speed>
  <fix>3d</fix>
</trkpt>
<trkpt lat="-27.2743749" lon="151.2901052">
  <ele>358.77</ele>
  <time>2026-09-01T20:03:54Z</time>
  <course>206.43</course>
  <speed>10.039970119477449</speed>
  <fix>3d</fix>
</trkpt>
<trkpt lat="-27.2743826" lon="151.290101">
  <ele>358.87</ele>
  <time>2026-09-01T20:03:54Z</time>
  <course>206.38</course>
  <speed>9.789555658966345</speed>
  <fix>3d</fix>
</trkpt>
<trkpt lat="-27.2743597" lon="151.2901139">
  <ele>358.63</ele>
  <time>2026-09-01T20:03:54Z</time>
  <course>206.41</course>
  <speed>10.55</speed>
  <fix>3d</fix>
</trkpt>
<trkpt lat="-27.2743829" lon="151.2901008">
  <ele>358.88</ele>
  <time>2026-09-01T20:03:54Z</time>
  <course>206.37</course>
  <speed>9.77615466326101</speed>
  <fix>3d</fix>
</trkpt>
<trkpt lat="-27.2743904" lon="151.2900967">
  <ele>358.99</ele>
  <time>2026-09-01T20:03:54Z</time>
  <course>206.31</course>
  <speed>9.525754563287887</speed>
  <fix>3d</fix>
</trkpt>
<trkpt lat="-27.2743764" lon="151.2901046">
  <ele>358.84</ele>
  <time>2026-09-01T20:03:54Z</time>
  <course>206.32</course>
  <speed>10.05</speed>
  <fix>3d</fix>
</trkpt>
<trkpt lat="-27.2743907" lon="151.2900965">
  <ele>358.99</ele>
  <time>2026-09-01T20:03:54Z</time>
  <course>206.31</course>
  <speed>9.512360380052892</speed>
  <fix>3d</fix>
</trkpt>
<trkpt lat="-27.274398" lon="151.2900925">
  <ele>359.11</ele>
  <time>2026-09-01T20:03:54Z</time>
  <course>206.24</course>
  <speed>9.253004917322805</speed>
  <fix>3d</fix>
</trkpt>
<trkpt lat="-27.2743764" lon="151.2901046">
  <ele>358.84</ele>
  <time>2026-09-01T20:03:54Z</time>
  <course>206.32</course>
  <speed>10.05</speed>
  <fix>3d</fix>
</trkpt>
<trkpt lat="-27.2743982" lon="151.2900923">
  <ele>359.11</ele>
  <time>2026-09-01T20:03:54Z</time>
  <course>206.24</course>
  <speed>9.244035915118461</speed>
  <fix>3d</fix>
</trkpt>
<trkpt lat="-27.2744053" lon="151.2900884">
  <ele>359.22</ele>
  <time>2026-09-01T20:03:54Z</time>
  <course>206.16</course>
  <speed>8.989243572181143</speed>
  <fix>3d</fix>
</trkpt>
<trkpt lat="-27.2743922" lon="151.2900959">
  <ele>359.06</ele>
  <time>2026-09-01T20:03:54Z</time>
  <course>206.19</course>
  <speed>9.54</speed>
  <fix>3d</fix>
</trkpt>
<trkpt lat="-27.2744056" lon="151.2900883">
  <ele>359.23</ele>
  <time>2026-09-01T20:03:54Z</time>
  <course>206.15</course>
  <speed>8.975862075589173</speed>
  <fix>3d</fix>
</trkpt>
<trkpt lat="-27.2744125" lon="151.2900845">
  <ele>359.34</ele>
  <time>2026-09-01T20:03:54Z</time>
  <course>206.06</course>
  <speed>8.712135214745006</speed>
  <fix>3d</fix>
</trkpt>
<trkpt lat="-27.2743922" lon="151.2900959">
  <ele>359.06</ele>
  <time>2026-09-01T20:03:54Z</time>
  <course>206.19</course>
  <speed>9.54</speed>
  <fix>3d</fix>
</trkpt>
<trkpt lat="-27.2744127" lon="151.2900844">
  <ele>359.35</ele>
  <time>2026-09-01T20:03:54Z</time>
  <course>206.06</course>
  <speed>8.703148855443068</speed>
  <fix>3d</fix>
</trkpt>
<trkpt lat="-27.2744194" lon="151.2900807">
  <ele>359.46</ele>
  <time>2026-09-01T20:03:54Z</time>
  <course>205.94</course>
  <speed>8.439443109589638</speed>
  <fix>3d</fix>
</trkpt>
<trkpt lat="-27.2744071" lon="151.2900877">
  <ele>359.28</ele>
  <time>2026-09-01T20:03:54Z</time>
  <course>206.02</course>
  <speed>9.0</speed>
  <fix>3d</fix>
</trkpt>
<trkpt lat="-27.2744197" lon="151.2900806">
  <ele>359.46</ele>
  <time>2026-09-01T20:03:54Z</time>
  <course>205.94</course>
  <speed>8.42607856597599</speed>
  <fix>3d</fix>
</trkpt>
<trkpt lat="-27.2744262" lon="151.2900771">
  <ele>359.57</ele>
  <time>2026-09-01T20:03:54Z</time>
  <course>205.81</course>
  <speed>8.171419705289896</speed>
  <fix>3d</fix>
</trkpt>
<trkpt lat="-27.2744071" lon="151.2900877">
  <ele>359.28</ele>
  <time>2026-09-01T20:03:54Z</time>
  <course>206.02</course>
  <speed>9.0</speed>
  <fix>3d</fix>
</trkpt>
<trkpt lat="-27.2744264" lon="151.2900769">
  <ele>359.58</ele>
  <time>2026-09-01T20:03:54Z</time>
  <course>205.8</course>
  <speed>8.162413858657255</speed>
  <fix>3d</fix>
</trkpt>
<trkpt lat="-27.2744328" lon="151.2900735">
  <ele>359.68</ele>
  <time>2026-09-01T20:03:54Z</time>
  <course>205.65</course>
  <speed>7.894460082868238</speed>
  <fix>3d</fix>
</trkpt>
<trkpt lat="-27.2744212" lon="151.29008">
  <ele>359.51</ele>
  <time>2026-09-01T20:03:54Z</time>
  <course>205.78</course>
  <speed>8.46</speed>
  <fix>3d</fix>
</trkpt>
<trkpt lat="-27.274433" lon="151.2900734">
  <ele>359.68</ele>
  <time>2026-09-01T20:03:54Z</time>
  <course>205.65</course>
  <speed>7.885442283093575</speed>
  <fix>3d</fix>
</trkpt>
<trkpt lat="-27.2744391" lon="151.2900701">
  <ele>359.78</ele>
  <time>2026-09-01T20:03:54Z</time>
  <course>205.48</course>
  <speed>7.63089116682973</speed>
  <fix>3d</fix>
</trkpt>
<trkpt lat="-27.2744212" lon="151.29008">
  <ele>359.51</ele>
  <time>2026-09-01T20:03:54Z</time>
  <course>205.78</course>
  <speed>8.46</speed>
  <fix>3d</fix>
</trkpt>
<trkpt lat="-27.2744393" lon="151.29007">
  <ele>359.79</ele>
  <time>2026-09-01T20:03:54Z</time>
  <course>205.47</course>
  <speed>7.617565227813937</speed>
  <fix>3d</fix>
</trkpt>
<trkpt lat="-27.2744452" lon="151.2900669">
  <ele>359.88</ele>
  <time>2026-09-01T20:03:54Z</time>
  <course>205.29</course>
  <speed>7.363097174423274</speed>
  <fix>3d</fix>
</trkpt>
<trkpt lat="-27.2744345" lon="151.2900728">
  <ele>359.73</ele>
  <time>2026-09-01T20:03:54Z</time>
  <course>205.49</course>
  <speed>7.91</speed>
  <fix>3d</fix>
</trkpt>
<trkpt lat="-27.2744454" lon="151.2900668">
  <ele>359.88</ele>
  <time>2026-09-01T20:03:54Z</time>
  <course>205.28</course>
  <speed>7.354053304130995</speed>
  <fix>3d</fix>
</trkpt>
<trkpt lat="-27.2744512" lon="151.2900638">
  <ele>359.96</ele>
  <time>2026-09-01T20:03:54Z</time>
  <course>205.09</course>
  <speed>7.108705930055062</speed>
  <fix>3d</fix>
</trkpt>
<trkpt lat="-27.2744345" lon="151.2900728">
  <ele>359.73</ele>
  <time>2026-09-01T20:03:54Z</time>
  <course>205.49</course>
  <speed>7.91</speed>
  <fix>3d</fix>
</trkpt>
<trkpt lat="-27.2744514" lon="151.2900637">
  <ele>359.97</ele>
  <time>2026-09-01T20:03:54Z</time>
  <course>205.09</course>
  <speed>7.09964787859229</speed>
  <fix>3d</fix>
</trkpt>
<trkpt lat="-27.2744569" lon="151.2900608">
  <ele>360.04</ele>
  <time>2026-09-01T20:03:54Z</time>
  <course>204.87</course>
  <speed>6.845326873130311</speed>
  <fix>3d</fix>
</trkpt>
<trkpt lat="-27.2744469" lon="151.2900662">
  <ele>359.92</ele>
  <time>2026-09-01T20:03:54Z</time>
  <course>205.15</course>
  <speed>7.38</speed>
  <fix>3d</fix>
</trkpt>
<trkpt lat="-27.274457" lon="151.2900607">
  <ele>360.04</ele>
  <time>2026-09-01T20:03:54Z</time>
  <course>204.86</course>
  <speed>6.845326873130311</speed>
  <fix>3d</fix>
</trkpt>
<trkpt lat="-27.2744624" lon="151.2900579">
  <ele>360.11</ele>
  <time>2026-09-01T20:03:54Z</time>
  <course>204.55</course>
  <speed>6.595278614281583</speed>
  <fix>3d</fix>
</trkpt>
<trkpt lat="-27.2744469" lon="151.2900662">
  <ele>359.92</ele>
  <time>2026-09-01T20:03:54Z</time>
  <course>205.15</course>
  <speed>7.38</speed>
  <fix>3d</fix>
</trkpt>
<trkpt lat="-27.2744628" lon="151.2900577">
  <ele>360.11</ele>
  <time>2026-09-01T20:03:54Z</time>
  <course>204.53</course>
  <speed>6.582013369782836</speed>
  <fix>3d</fix>
</trkpt>
<trkpt lat="-27.2744678" lon="151.2900552">
  <ele>360.11</ele>
  <time>2026-09-01T20:03:54Z</time>
  <course>204.16</course>
  <speed>6.327092539231586</speed>
  <fix>3d</fix>
</trkpt>
<trkpt lat="-27.2744585" lon="151.2900601">
  <ele>360.08</ele>
  <time>2026-09-01T20:03:54Z</time>
  <course>204.78</course>
  <speed>6.86</speed>
  <fix>3d</fix>
</trkpt>
<trkpt lat="-27.2744679" lon="151.2900551">
  <ele>360.11</ele>
  <time>2026-09-01T20:03:54Z</time>
  <course>204.15</course>
  <speed>6.318006014558708</speed>
  <fix>3d</fix>
</trkpt>
<trkpt lat="-27.2744728" lon="151.2900526">
  <ele>360.03</ele>
  <time>2026-09-01T20:03:54Z</time>
  <course>203.78</course>
  <speed>5.938088918162139</speed>
  <fix>3d</fix>
</trkpt>
<trkpt lat="-27.2744585" lon="151.2900601">
  <ele>360.08</ele>
  <time>2026-09-01T20:03:54Z</time>
  <course>204.78</course>
  <speed>6.86</speed>
  <fix>3d</fix>
</trkpt>
<trkpt lat="-27.2744729" lon="151.2900525">
  <ele>360.03</ele>
  <time>2026-09-01T20:03:54Z</time>
  <course>203.77</course>
  <speed>5.928996542417613</speed>
  <fix>3d</fix>
</trkpt>
<trkpt lat="-27.2744775" lon="151.2900502">
  <ele>359.89</ele>
  <time>2026-09-01T20:03:54Z</time>
  <course>203.48</course>
  <speed>5.383576877875899</speed>
  <fix>3d</fix>
</trkpt>
<trkpt lat="-27.2744692" lon="151.2900545">
  <ele>360.11</ele>
  <time>2026-09-01T20:03:54Z</time>
  <course>204.54</course>
  <speed>6.26</speed>
  <fix>3d</fix>
</trkpt>
<trkpt lat="-27.2744776" lon="151.2900501">
  <ele>359.89</ele>
  <time>2026-09-01T20:03:54Z</time>
  <course>203.47</course>
  <speed>5.361231201878911</speed>
  <fix>3d</fix>
</trkpt>
<trkpt lat="-27.2744817" lon="151.2900481">
  <ele>359.7</ele>
  <time>2026-09-01T20:03:54Z</time>
  <course>203.39</course>
  <speed>4.690927413635816</speed>
  <fix>3d</fix>
</trkpt>
<trkpt lat="-27.2744692" lon="151.2900545">
  <ele>360.11</ele>
  <time>2026-09-01T20:03:54Z</time>
  <course>204.54</course>
  <speed>6.26</speed>
  <fix>3d</fix>
</trkpt>
<trkpt lat="-27.2744818" lon="151.290048">
  <ele>359.69</ele>
  <time>2026-09-01T20:03:54Z</time>
  <course>203.39</course>
  <speed>4.659463488428684</speed>
  <fix>3d</fix>
</trkpt>
<trkpt lat="-27.2744852" lon="151.2900463">
  <ele>359.48</ele>
  <time>2026-09-01T20:03:54Z</time>
  <course>203.4</course>
  <speed>3.8776410354750475</speed>
  <fix>3d</fix>
</trkpt>
<trkpt lat="-27.2744787" lon="151.2900497">
  <ele>359.9</ele>
  <time>2026-09-01T20:03:54Z</time>
  <course>204.29</course>
  <speed>5.3</speed>
  <fix>3d</fix>
</trkpt>
<trkpt lat="-27.2744853" lon="151.2900463">
  <ele>359.47</ele>
  <time>2026-09-01T20:03:54Z</time>
  <course>203.4</course>
  <speed>3.846153923076922</speed>
  <fix>3d</fix>
</trkpt>
<trkpt lat="-27.2744881" lon="151.2900449">
  <ele>359.24</ele>
  <time>2026-09-01T20:03:54Z</time>
  <course>203.3</course>
  <speed>2.997749155616594</speed>
  <fix>3d</fix>
</trkpt>
<trkpt lat="-27.2744787" lon="151.2900497">
  <ele>359.9</ele>
  <time>2026-09-01T20:03:54Z</time>
  <course>204.29</course>
  <speed>5.3</speed>
  <fix>3d</fix>
</trkpt>
<trkpt lat="-27.2744882" lon="151.2900449">
  <ele>359.23</ele>
  <time>2026-09-01T20:03:54Z</time>
  <course>203.29</course>
  <speed>2.9662265591151327</speed>
  <fix>3d</fix>
</trkpt>
<trkpt lat="-27.2744903" lon="151.2900439">
  <ele>358.99</ele>
  <time>2026-09-01T20:03:54Z</time>
  <course>202.73</course>
  <speed>2.0969740103301233</speed>
  <fix>3d</fix>
</trkpt>
<trkpt lat="-27.2744863" lon="151.2900459">
  <ele>359.49</ele>
  <time>2026-09-01T20:03:54Z</time>
  <course>203.6</course>
  <speed>3.82</speed>
  <fix>3d</fix>
</trkpt>
<trkpt lat="-27.2744903" lon="151.2900439">
  <ele>358.98</ele>
  <time>2026-09-01T20:03:54Z</time>
  <course>202.69</course>
  <speed>2.0746565980903924</speed>
  <fix>3d</fix>
</trkpt>
<trkpt lat="-27.2744917" lon="151.2900432">
  <ele>358.75</ele>
  <time>2026-09-01T20:03:54Z</time>
  <course>200.67</course>
  <speed>1.2167168939404105</speed>
  <fix>3d</fix>
</trkpt>
<trkpt lat="-27.2744863" lon="151.2900459">
  <ele>359.49</ele>
  <time>2026-09-01T20:03:54Z</time>
  <course>203.6</course>
  <speed>3.82</speed>
  <fix>3d</fix>
</trkpt>
<trkpt lat="-27.2744917" lon="151.2900432">
  <ele>358.74</ele>
  <time>2026-09-01T20:03:54Z</time>
  <course>200.52</course>
  <speed>1.1629703349613008</speed>
  <fix>3d</fix>
</trkpt>
<trkpt lat="-27.2744924" lon="151.2900428">
  <ele>358.53</ele>
  <time>2026-09-01T20:03:54Z</time>
  <course>198.01</course>
  <speed>0.3721558813185679</speed>
  <fix>3d</fix>
</trkpt>
<trkpt lat="-27.2744912" lon="151.2900435">
  <ele>359.01</ele>
  <time>2026-09-01T20:03:54Z</time>
  <course>203.5</course>
  <speed>2.07</speed>
  <fix>3d</fix>
</trkpt>
<trkpt lat="-27.2744924" lon="151.2900428">
  <ele>358.52</ele>
  <time>2026-09-01T20:03:54Z</time>
  <course>197.94</course>
  <speed>0.34985711369071804</speed>
  <fix>3d</fix>
</trkpt>
<trkpt lat="-27.2744924" lon="151.2900428">
  <ele>358.32</ele>
  <time>2026-09-01T20:03:54Z</time>
  <course>196.25</course>
  <speed>0.39</speed>
  <fix>3d</fix>
</trkpt>
<trkpt lat="-27.2744912" lon="151.2900435">
  <ele>359.01</ele>
  <time>2026-09-01T20:03:54Z</time>
  <course>203.5</course>
  <speed>2.07</speed>
  <fix>3d</fix>
</trkpt>
<trkpt lat="-27.2744924" lon="151.2900428">
  <ele>358.32</ele>
  <time>2026-09-01T20:03:54Z</time>
  <course>196.22</course>
  <speed>0.41231056256176607</speed>
  <fix>3d</fix>
</trkpt>
<trkpt lat="-27.2744919" lon="151.2900431">
  <ele>358.15</ele>
  <time>2026-09-01T20:03:54Z</time>
  <course>195.83</course>
  <speed>1.0288342918079665</speed>
  <fix>3d</fix>
</trkpt>
<trkpt lat="-27.2744932" lon="151.2900425">
  <ele>358.55</ele>
  <time>2026-09-01T20:03:54Z</time>
  <course>205.39</course>
  <speed>0.37</speed>
  <fix>3d</fix>
</trkpt>
<trkpt lat="-27.2744919" lon="151.2900431">
  <ele>358.15</ele>
  <time>2026-09-01T20:03:54Z</time>
  <course>195.83</course>
  <speed>1.0511898020814319</speed>
  <fix>3d</fix>
</trkpt>
<trkpt lat="-27.274491" lon="151.2900437">
  <ele>358.02</ele>
  <time>2026-09-01T20:03:54Z</time>
  <course>196.27</course>
  <speed>1.497230777134908</speed>
  <fix>3d</fix>
</trkpt>
<trkpt lat="-27.2744932" lon="151.2900425">
  <ele>358.55</ele>
  <time>2026-09-01T20:03:54Z</time>
  <course>205.39</course>
  <speed>0.37</speed>
  <fix>3d</fix>
</trkpt>
<trkpt lat="-27.2744909" lon="151.2900437">
  <ele>358.01</ele>
  <time>2026-09-01T20:03:55Z</time>
  <course>196.29</course>
  <speed>1.5109268678529744</speed>
  <fix>3d</fix>
</trkpt>
<trkpt lat="-27.2744899" lon="151.2900445">
  <ele>357.92</ele>
  <time>2026-09-01T20:03:55Z</time>
  <course>196.96</course>
  <speed>1.8422811946062956</speed>
  <fix>3d</fix>
</trkpt>
<trkpt lat="-27.2744926" lon="151.2900428">
  <ele>358.19</ele>
  <time>2026-09-01T20:03:55Z</time>
  <course>29.45</course>
  <speed>0.98</speed>
  <fix>3d</fix>
</trkpt>
<trkpt lat="-27.2744898" lon="151.2900445">
  <ele>357.91</ele>
  <time>2026-09-01T20:03:55Z</time>
  <course>196.99</course>
  <speed>1.8560711193270587</speed>
  <fix>3d</fix>
</trkpt>
<trkpt lat="-27.2744885" lon="151.2900455">
  <ele>357.85</ele>
  <time>2026-09-01T20:03:55Z</time>
  <course>197.5</course>
  <speed>2.1191743675309023</speed>
  <fix>3d</fix>
</trkpt>
<trkpt lat="-27.2744926" lon="151.2900428">
  <ele>358.19</ele>
  <time>2026-09-01T20:03:55Z</time>
  <course>29.45</course>
  <speed>0.98</speed>
  <fix>3d</fix>
</trkpt>
<trkpt lat="-27.2744884" lon="151.2900456">
  <ele>357.84</ele>
  <time>2026-09-01T20:03:55Z</time>
  <course>197.52</course>
  <speed>2.1191743675309023</speed>
  <fix>3d</fix>
</trkpt>
<trkpt lat="-27.2744869" lon="151.2900467">
  <ele>357.8</ele>
  <time>2026-09-01T20:03:55Z</time>
  <course>197.7</course>
  <speed>2.3132660893204657</speed>
  <fix>3d</fix>
</trkpt>
<trkpt lat="-27.2744905" lon="151.2900442">
  <ele>357.95</ele>
  <time>2026-09-01T20:03:55Z</time>
  <course>32.17</course>
  <speed>1.84</speed>
  <fix>3d</fix>
</trkpt>
<trkpt lat="-27.2744868" lon="151.2900467">
  <ele>357.8</ele>
  <time>2026-09-01T20:03:55Z</time>
  <course>197.7</course>
  <speed>2.3132660893204657</speed>
  <fix>3d</fix>
</trkpt>
<trkpt lat="-27.2744852" lon="151.290048">
  <ele>357.78</ele>
  <time>2026-09-01T20:03:55Z</time>
  <course>197.43</course>
  <speed>2.4382165613415063</speed>
  <fix>3d</fix>
</trkpt>
<trkpt lat="-27.2744905" lon="151.2900442">
  <ele>357.95</ele>
  <time>2026-09-01T20:03:55Z</time>
  <course>32.17</course>
  <speed>1.84</speed>
  <fix>3d</fix>
</trkpt>
<trkpt lat="-27.274485" lon="151.2900481">
  <ele>357.78</ele>
  <time>2026-09-01T20:03:55Z</time>
  <course>197.4</course>
  <speed>2.4382165613415063</speed>
  <fix>3d</fix>
</trkpt>
<trkpt lat="-27.2744833" lon="151.2900493">
  <ele>357.77</ele>
  <time>2026-09-01T20:03:55Z</time>
  <course>196.85</course>
  <speed>2.5079872407968904</speed>
  <fix>3d</fix>
</trkpt>
<trkpt lat="-27.2744872" lon="151.2900465">
  <ele>357.83</ele>
  <time>2026-09-01T20:03:55Z</time>
  <course>33.04</course>
  <speed>2.32</speed>
  <fix>3d</fix>
</trkpt>
<trkpt lat="-27.2744833" lon="151.2900493">
  <ele>357.77</ele>
  <time>2026-09-01T20:03:55Z</time>
  <course>196.82</course>
  <speed>2.5079872407968904</speed>
  <fix>3d</fix>
</trkpt>
<trkpt lat="-27.2744815" lon="151.2900506">
  <ele>357.77</ele>
  <time>2026-09-01T20:03:55Z</time>
  <course>196.05</course>
  <speed>2.5333969290263223</speed>
  <fix>3d</fix>
</trkpt>
<trkpt lat="-27.2744872" lon="151.2900465">
  <ele>357.83</ele>
  <time>2026-09-01T20:03:55Z</time>
  <course>33.04</course>
  <speed>2.32</speed>
  <fix>3d</fix>
</trkpt>
<trkpt lat="-27.2744814" lon="151.2900507">
  <ele>357.77</ele>
  <time>2026-09-01T20:03:55Z</time>
  <course>196.02</course>
  <speed>2.5333969290263223</speed>
  <fix>3d</fix>
</trkpt>
<trkpt lat="-27.2744796" lon="151.2900519">
  <ele>357.79</ele>
  <time>2026-09-01T20:03:55Z</time>
  <course>195.17</course>
  <speed>2.5281218325072867</speed>
  <fix>3d</fix>
</trkpt>
<trkpt lat="-27.2744835" lon="151.2900493">
  <ele>357.8</ele>
  <time>2026-09-01T20:03:55Z</time>
  <course>32.64</course>
  <speed>2.54</speed>
  <fix>3d</fix>
</trkpt>
<trkpt lat="-27.2744795" lon="151.290052">
  <ele>357.79</ele>
  <time>2026-09-01T20:03:55Z</time>
  <course>195.14</course>
  <speed>2.5281218325072867</speed>
  <fix>3d</fix>
</trkpt>
<trkpt lat="-27.2744777" lon="151.2900532">
  <ele>357.81</ele>
  <time>2026-09-01T20:03:55Z</time>
  <course>194.35</course>
  <speed>2.495375723212839</speed>
  <fix>3d</fix>
</trkpt>
<trkpt lat="-27.2744835" lon="151.2900493">
  <ele>357.8</ele>
  <time>2026-09-01T20:03:55Z</time>
  <course>32.64</course>
  <speed>2.54</speed>
  <fix>3d</fix>
</trkpt>
<trkpt lat="-27.2744777" lon="151.2900533">
  <ele>357.81</ele>
  <time>2026-09-01T20:03:55Z</time>
  <course>194.33</course>
  <speed>2.495375723212839</speed>
  <fix>3d</fix>
</trkpt>
<trkpt lat="-27.2744758" lon="151.2900546">
  <ele>357.84</ele>
  <time>2026-09-01T20:03:55Z</time>
  <course>193.71</course>
  <speed>2.450816190578151</speed>
  <fix>3d</fix>
</trkpt>
<trkpt lat="-27.2744797" lon="151.2900521">
  <ele>357.83</ele>
  <time>2026-09-01T20:03:55Z</time>
  <course>32.08</course>
  <speed>2.58</speed>
  <fix>3d</fix>
</trkpt>
<trkpt lat="-27.2744758" lon="151.2900546">
  <ele>357.84</ele>
  <time>2026-09-01T20:03:55Z</time>
  <course>193.7</course>
  <speed>2.450816190578151</speed>
  <fix>3d</fix>
</trkpt>
<trkpt lat="-27.274474" lon="151.2900558">
  <ele>357.87</ele>
  <time>2026-09-01T20:03:55Z</time>
  <course>193.24</course>
  <speed>2.383988255004626</speed>
  <fix>3d</fix>
</trkpt>
<trkpt lat="-27.2744797" lon="151.2900521">
  <ele>357.83</ele>
  <time>2026-09-01T20:03:55Z</time>
  <course>32.08</course>
  <speed>2.58</speed>
  <fix>3d</fix>
</trkpt>
<trkpt lat="-27.274474" lon="151.2900559">
  <ele>357.87</ele>
  <time>2026-09-01T20:03:55Z</time>
  <course>193.23</course>
  <speed>2.383988255004626</speed>
  <fix>3d</fix>
</trkpt>
<trkpt lat="-27.2744723" lon="151.2900571">
  <ele>357.9</ele>
  <time>2026-09-01T20:03:55Z</time>
  <course>192.93</course>
  <speed>2.308679276123039</speed>
  <fix>3d</fix>
</trkpt>
<trkpt lat="-27.2744758" lon="151.2900548">
  <ele>357.87</ele>
  <time>2026-09-01T20:03:55Z</time>
  <course>31.98</course>
  <speed>2.51</speed>
  <fix>3d</fix>
</trkpt>
<trkpt lat="-27.2744722" lon="151.2900571">
  <ele>357.9</ele>
  <time>2026-09-01T20:03:55Z</time>
  <course>192.92</course>
  <speed>2.308679276123039</speed>
  <fix>3d</fix>
</trkpt>
<trkpt lat="-27.2744705" lon="151.2900583">
  <ele>357.93</ele>
  <time>2026-09-01T20:03:55Z</time>
  <course>192.8</course>
  <speed>2.247220505424423</speed>
  <fix>3d</fix>
</trkpt>
<trkpt lat="-27.2744758" lon="151.2900548">
  <ele>357.87</ele>
  <time>2026-09-01T20:03:55Z</time>
  <course>31.98</course>
  <speed>2.51</speed>
  <fix>3d</fix>
</trkpt>
<trkpt lat="-27.2744704" lon="151.2900584">
  <ele>357.93</ele>
  <time>2026-09-01T20:03:55Z</time>
  <course>192.8</course>
  <speed>2.247220505424423</speed>
  <fix>3d</fix>
</trkpt>
<trkpt lat="-27.2744689" lon="151.2900596">
  <ele>357.96</ele>
  <time>2026-09-01T20:03:55Z</time>
  <course>192.9</course>
  <speed>2.199681795169474</speed>
  <fix>3d</fix>
</trkpt>
<trkpt lat="-27.274472" lon="151.2900575">
  <ele>357.93</ele>
  <time>2026-09-01T20:03:55Z</time>
  <course>32.48</course>
  <speed>2.39</speed>
  <fix>3d</fix>
</trkpt>
<trkpt lat="-27.2744688" lon="151.2900596">
  <ele>357.96</ele>
  <time>2026-09-01T20:03:55Z</time>
  <course>192.9</course>
  <speed>2.191278165820122</speed>
  <fix>3d</fix>
</trkpt>
<trkpt lat="-27.2744672" lon="151.2900608">
  <ele>357.98</ele>
  <time>2026-09-01T20:03:55Z</time>
  <course>193.25</course>
  <speed>2.1577998053572993</speed>
  <fix>3d</fix>
</trkpt>
<trkpt lat="-27.274472" lon="151.2900575">
  <ele>357.93</ele>
  <time>2026-09-01T20:03:55Z</time>
  <course>32.48</course>
  <speed>2.39</speed>
  <fix>3d</fix>
</trkpt>
<trkpt lat="-27.2744672" lon="151.2900608">
  <ele>357.98</ele>
  <time>2026-09-01T20:03:55Z</time>
  <course>193.27</course>
  <speed>2.1577998053572993</speed>
  <fix>3d</fix>
</trkpt>
<trkpt lat="-27.2744656" lon="151.290062">
  <ele>358.0</ele>
  <time>2026-09-01T20:03:55Z</time>
  <course>193.83</course>
  <speed>2.1272752525237535</speed>
  <fix>3d</fix>
</trkpt>
<trkpt lat="-27.2744686" lon="151.29006">
  <ele>357.98</ele>
  <time>2026-09-01T20:03:55Z</time>
  <course>33.41</course>
  <speed>2.27</speed>
  <fix>3d</fix>
</trkpt>
<trkpt lat="-27.2744656" lon="151.2900621">
  <ele>358.0</ele>
  <time>2026-09-01T20:03:55Z</time>
  <course>193.85</course>
  <speed>2.1272752525237535</speed>
  <fix>3d</fix>
</trkpt>
<trkpt lat="-27.274464" lon="151.2900632">
  <ele>358.02</ele>
  <time>2026-09-01T20:03:55Z</time>
  <course>194.48</course>
  <speed>2.110663402819123</speed>
  <fix>3d</fix>
</trkpt>
<trkpt lat="-27.2744686" lon="151.29006">
  <ele>357.98</ele>
  <time>2026-09-01T20:03:55Z</time>
  <course>33.41</course>
  <speed>2.27</speed>
  <fix>3d</fix>
</trkpt>
<trkpt lat="-27.274464" lon="151.2900633">
  <ele>358.02</ele>
  <time>2026-09-01T20:03:55Z</time>
  <course>194.5</course>
  <speed>2.110663402819123</speed>
  <fix>3d</fix>
</trkpt>
<trkpt lat="-27.2744624" lon="151.2900645">
  <ele>358.03</ele>
  <time>2026-09-01T20:03:55Z</time>
  <course>195.19</course>
  <speed>2.1023796041628637</speed>
  <fix>3d</fix>
</trkpt>
<trkpt lat="-27.2744652" lon="151.2900625">
  <ele>358.02</ele>
  <time>2026-09-01T20:03:55Z</time>
  <course>34.35</course>
  <speed>2.21</speed>
  <fix>3d</fix>
</trkpt>
<trkpt lat="-27.2744624" lon="151.2900645">
  <ele>358.03</ele>
  <time>2026-09-01T20:03:55Z</time>
  <course>195.22</course>
  <speed>2.1023796041628637</speed>
  <fix>3d</fix>
</trkpt>
<trkpt lat="-27.2744609" lon="151.2900657">
  <ele>358.04</ele>
  <time>2026-09-01T20:03:55Z</time>
  <course>195.97</course>
  <speed>2.088492279133442</speed>
  <fix>3d</fix>
</trkpt>
<trkpt lat="-27.2744652" lon="151.2900625">
  <ele>358.02</ele>
  <time>2026-09-01T20:03:55Z</time>
  <course>34.35</course>
  <speed>2.21</speed>
  <fix>3d</fix>
</trkpt>
<trkpt lat="-27.2744608" lon="151.2900657">
  <ele>358.04</ele>
  <time>2026-09-01T20:03:55Z</time>
  <course>196.0</course>
  <speed>2.088492279133442</speed>
  <fix>3d</fix>
</trkpt>
<trkpt lat="-27.2744593" lon="151.2900669">
  <ele>358.05</ele>
  <time>2026-09-01T20:03:55Z</time>
  <course>196.64</course>
  <speed>2.08290662296705</speed>
  <fix>3d</fix>
</trkpt>
<trkpt lat="-27.274462" lon="151.290065">
  <ele>358.05</ele>
  <time>2026-09-01T20:03:55Z</time>
  <course>34.82</course>
  <speed>2.17</speed>
  <fix>3d</fix>
</trkpt>
<trkpt lat="-27.2744592" lon="151.290067">
  <ele>358.05</ele>
  <time>2026-09-01T20:03:55Z</time>
  <course>196.66</course>
  <speed>2.08290662296705</speed>
  <fix>3d</fix>
</trkpt>
<trkpt lat="-27.2744577" lon="151.2900681">
  <ele>358.05</ele>
  <time>2026-09-01T20:03:55Z</time>
  <course>197.15</course>
  <speed>2.0663494380186522</speed>
  <fix>3d</fix>
</trkpt>
<trkpt lat="-27.274462" lon="151.290065">
  <ele>358.05</ele>
  <time>2026-09-01T20:03:55Z</time>
  <course>34.82</course>
  <speed>2.17</speed>
  <fix>3d</fix>
</trkpt>
<trkpt lat="-27.2744576" lon="151.2900682">
  <ele>358.05</ele>
  <time>2026-09-01T20:03:55Z</time>
  <course>197.18</course>
  <speed>2.0663494380186522</speed>
  <fix>3d</fix>
</trkpt>
<trkpt lat="-27.2744561" lon="151.2900693">
  <ele>358.05</ele>
  <time>2026-09-01T20:03:55Z</time>
  <course>197.58</course>
  <speed>2.05854317418897</speed>
  <fix>3d</fix>
</trkpt>
<trkpt lat="-27.2744588" lon="151.2900675">
  <ele>358.07</ele>
  <time>2026-09-01T20:03:55Z</time>
  <course>34.47</course>
  <speed>2.15</speed>
  <fix>3d</fix>
</trkpt>
<trkpt lat="-27.2744561" lon="151.2900693">
  <ele>358.05</ele>
  <time>2026-09-01T20:03:55Z</time>
  <course>197.6</course>
  <speed>2.05854317418897</speed>
  <fix>3d</fix>
</trkpt>
<trkpt lat="-27.2744545" lon="151.2900704">
  <ele>358.05</ele>
  <time>2026-09-01T20:03:55Z</time>
  <course>198.0</course>
  <speed>2.0511947737842937</speed>
  <fix>3d</fix>
</trkpt>
<trkpt lat="-27.2744588" lon="151.2900675">
  <ele>358.07</ele>
  <time>2026-09-01T20:03:55Z</time>
  <course>34.47</course>
  <speed>2.15</speed>
  <fix>3d</fix>
</trkpt>
<trkpt lat="-27.2744545" lon="151.2900705">
  <ele>358.05</ele>
  <time>2026-09-01T20:03:55Z</time>
  <course>198.01</course>
  <speed>2.0511947737842937</speed>
  <fix>3d</fix>
</trkpt>
<trkpt lat="-27.274453" lon="151.2900715">
  <ele>358.05</ele>
  <time>2026-09-01T20:03:55Z</time>
  <course>198.43</course>
  <speed>2.0255616505058542</speed>
  <fix>3d</fix>
</trkpt>
<trkpt lat="-27.2744556" lon="151.29007">
  <ele>358.08</ele>
  <time>2026-09-01T20:03:55Z</time>
  <course>33.25</course>
  <speed>2.12</speed>
  <fix>3d</fix>
</trkpt>
<trkpt lat="-27.2744529" lon="151.2900716">
  <ele>358.05</ele>
  <time>2026-09-01T20:03:55Z</time>
  <course>198.45</course>
  <speed>2.0255616505058542</speed>
  <fix>3d</fix>
</trkpt>
<trkpt lat="-27.2744514" lon="151.2900726">
  <ele>358.04</ele>
  <time>2026-09-01T20:03:55Z</time>
  <course>198.96</course>
  <speed>1.9921094347449892</speed>
  <fix>3d</fix>
</trkpt>
<trkpt lat="-27.2744556" lon="151.29007">
  <ele>358.08</ele>
  <time>2026-09-01T20:03:55Z</time>
  <course>33.25</course>
  <speed>2.12</speed>
  <fix>3d</fix>
</trkpt>
<trkpt lat="-27.2744513" lon="151.2900726">
  <ele>358.04</ele>
  <time>2026-09-01T20:03:55Z</time>
  <course>198.98</course>
  <speed>1.9872594194015034</speed>
  <fix>3d</fix>
</trkpt>
<trkpt lat="-27.2744498" lon="151.2900736">
  <ele>358.02</ele>
  <time>2026-09-01T20:03:55Z</time>
  <course>199.54</course>
  <speed>1.9412367192076292</speed>
  <fix>3d</fix>
</trkpt>
<trkpt lat="-27.2744524" lon="151.2900723">
  <ele>358.07</ele>
  <time>2026-09-01T20:03:55Z</time>
  <course>31.31</course>
  <speed>2.07</speed>
  <fix>3d</fix>
</trkpt>
<trkpt lat="-27.2744497" lon="151.2900736">
  <ele>358.02</ele>
  <time>2026-09-01T20:03:55Z</time>
  <course>199.56</course>
  <speed>1.9412367192076292</speed>
  <fix>3d</fix>
</trkpt>
<trkpt lat="-27.2744482" lon="151.2900745">
  <ele>358.0</ele>
  <time>2026-09-01T20:03:55Z</time>
  <course>200.12</course>
  <speed>1.869438418349211</speed>
  <fix>3d</fix>
</trkpt>
<trkpt lat="-27.2744524" lon="151.2900723">
  <ele>358.07</ele>
  <time>2026-09-01T20:03:55Z</time>
  <course>31.31</course>
  <speed>2.07</speed>
  <fix>3d</fix>
</trkpt>
<trkpt lat="-27.2744482" lon="151.2900745">
  <ele>358.0</ele>
  <time>2026-09-01T20:03:55Z</time>
  <course>200.14</course>
  <speed>1.869438418349211</speed>
  <fix>3d</fix>
</trkpt>
<trkpt lat="-27.2744467" lon="151.2900754">
  <ele>357.96</ele>
  <time>2026-09-01T20:03:55Z</time>
  <course>200.68</course>
  <speed>1.790111728356641</speed>
  <fix>3d</fix>
</trkpt>
<trkpt lat="-27.2744492" lon="151.2900743">
  <ele>358.05</ele>
  <time>2026-09-01T20:03:55Z</time>
  <course>28.83</course>
  <speed>1.98</speed>
  <fix>3d</fix>
</trkpt>
<trkpt lat="-27.2744467" lon="151.2900754">
  <ele>357.96</ele>
  <time>2026-09-01T20:03:55Z</time>
  <course>200.7</course>
  <speed>1.790111728356641</speed>
  <fix>3d</fix>
</trkpt>
<trkpt lat="-27.2744452" lon="151.2900761">
  <ele>357.91</ele>
  <time>2026-09-01T20:03:55Z</time>
  <course>201.22</course>
  <speed>1.7084788555905512</speed>
  <fix>3d</fix>
</trkpt>
<trkpt lat="-27.2744492" lon="151.2900743">
  <ele>358.05</ele>
  <time>2026-09-01T20:03:55Z</time>
  <course>28.83</course>
  <speed>1.98</speed>
  <fix>3d</fix>
</trkpt>
<trkpt lat="-27.2744451" lon="151.2900762">
  <ele>357.9</ele>
  <time>2026-09-01T20:03:55Z</time>
  <course>201.25</course>
  <speed>1.6954350474140847</speed>
  <fix>3d</fix>
</trkpt>
<trkpt lat="-27.2744438" lon="151.2900768">
  <ele>357.84</ele>
  <time>2026-09-01T20:03:55Z</time>
  <course>201.72</course>
  <speed>1.5976545308670458</speed>
  <fix>3d</fix>
</trkpt>
<trkpt lat="-27.2744462" lon="151.2900761">
  <ele>357.98</ele>
  <time>2026-09-01T20:03:55Z</time>
  <course>25.76</course>
  <speed>1.83</speed>
  <fix>3d</fix>
</trkpt>
<trkpt lat="-27.2744438" lon="151.2900768">
  <ele>357.84</ele>
  <time>2026-09-01T20:03:55Z</time>
  <course>201.73</course>
  <speed>1.5942396306703708</speed>
  <fix>3d</fix>
</trkpt>
<trkpt lat="-27.2744425" lon="151.2900774">
  <ele>357.76</ele>
  <time>2026-09-01T20:03:55Z</time>
  <course>202.73</course>
  <speed>1.5063200191194435</speed>
  <fix>3d</fix>
</trkpt>
<trkpt lat="-27.2744462" lon="151.2900761">
  <ele>357.98</ele>
  <time>2026-09-01T20:03:55Z</time>
  <course>25.76</course>
  <speed>1.83</speed>
  <fix>3d</fix>
</trkpt>
<trkpt lat="-27.2744425" lon="151.2900774">
  <ele>357.76</ele>
  <time>2026-09-01T20:03:55Z</time>
  <course>202.78</course>
  <speed>1.5005332385522154</speed>
  <fix>3d</fix>
</trkpt>
<trkpt lat="-27.2744412" lon="151.290078">
  <ele>357.66</ele>
  <time>2026-09-01T20:03:55Z</time>
  <course>205.08</course>
  <speed>1.4354441821262156</speed>
  <fix>3d</fix>
</trkpt>
<trkpt lat="-27.2744433" lon="151.2900775">
  <ele>357.86</ele>
  <time>2026-09-01T20:03:55Z</time>
  <course>23.35</course>
  <speed>1.64</speed>
  <fix>3d</fix>
</trkpt>
<trkpt lat="-27.2744412" lon="151.290078">
  <ele>357.66</ele>
  <time>2026-09-01T20:03:55Z</time>
  <course>205.15</course>
  <speed>1.4354441821262156</speed>
  <fix>3d</fix>
</trkpt>
<trkpt lat="-27.27444" lon="151.2900786">
  <ele>357.55</ele>
  <time>2026-09-01T20:03:55Z</time>
  <course>207.98</course>
  <speed>1.3892443989449805</speed>
  <fix>3d</fix>
</trkpt>
<trkpt lat="-27.2744433" lon="151.2900775">
  <ele>357.86</ele>
  <time>2026-09-01T20:03:55Z</time>
  <course>23.35</course>
  <speed>1.64</speed>
  <fix>3d</fix>
</trkpt>
<trkpt lat="-27.27444" lon="151.2900786">
  <ele>357.55</ele>
  <time>2026-09-01T20:03:55Z</time>
  <course>208.05</course>
  <speed>1.3892443989449805</speed>
  <fix>3d</fix>
</trkpt>
<trkpt lat="-27.2744389" lon="151.2900792">
  <ele>357.42</ele>
  <time>2026-09-01T20:03:55Z</time>
  <course>210.64</course>
  <speed>1.3500370365289984</speed>
  <fix>3d</fix>
</trkpt>
<trkpt lat="-27.2744408" lon="151.2900788">
  <ele>357.68</ele>
  <time>2026-09-01T20:03:55Z</time>
  <course>23.56</course>
  <speed>1.48</speed>
  <fix>3d</fix>
</trkpt>
<trkpt lat="-27.2744388" lon="151.2900793">
  <ele>357.42</ele>
  <time>2026-09-01T20:03:55Z</time>
  <course>210.72</course>
  <speed>1.3500370365289984</speed>
  <fix>3d</fix>
</trkpt>
<trkpt lat="-27.2744377" lon="151.2900798">
  <ele>357.28</ele>
  <time>2026-09-01T20:03:55Z</time>
  <course>212.62</course>
  <speed>1.3260844618650804</speed>
  <fix>3d</fix>
</trkpt>
<trkpt lat="-27.2744408" lon="151.2900788">
  <ele>357.68</ele>
  <time>2026-09-01T20:03:55Z</time>
  <course>23.56</course>
  <speed>1.48</speed>
  <fix>3d</fix>
</trkpt>
<trkpt lat="-27.2744377" lon="151.2900798">
  <ele>357.28</ele>
  <time>2026-09-01T20:03:55Z</time>
  <course>212.68</course>
  <speed>1.3225732493892353</speed>
  <fix>3d</fix>
</trkpt>
<trkpt lat="-27.2744366" lon="151.2900803">
  <ele>357.14</ele>
  <time>2026-09-01T20:03:55Z</time>
  <course>213.88</course>
  <speed>1.2934063553268942</speed>
  <fix>3d</fix>
</trkpt>
<trkpt lat="-27.2744384" lon="151.2900799">
  <ele>357.44</ele>
  <time>2026-09-01T20:03:55Z</time>
  <course>23.53</course>
  <speed>1.38</speed>
  <fix>3d</fix>
</trkpt>
<trkpt lat="-27.2744366" lon="151.2900803">
  <ele>357.13</ele>
  <time>2026-09-01T20:03:55Z</time>
  <course>213.91</course>
  <speed>1.2934063553268942</speed>
  <fix>3d</fix>
</trkpt>
<trkpt lat="-27.2744355" lon="151.2900807">
  <ele>356.98</ele>
  <time>2026-09-01T20:03:55Z</time>
  <course>214.63</course>
  <speed>1.283160161476345</speed>
  <fix>3d</fix>
</trkpt>
<trkpt lat="-27.2744384" lon="151.2900799">
  <ele>357.44</ele>
  <time>2026-09-01T20:03:55Z</time>
  <course>23.53</course>
  <speed>1.38</speed>
  <fix>3d</fix>
</trkpt>
<trkpt lat="-27.2744354" lon="151.2900808">
  <ele>356.97</ele>
  <time>2026-09-01T20:03:55Z</time>
  <course>214.67</course>
  <speed>1.2806248474865698</speed>
  <fix>3d</fix>
</trkpt>
<trkpt lat="-27.2744343" lon="151.2900811">
  <ele>356.82</ele>
  <time>2026-09-01T20:03:55Z</time>
  <course>215.06</course>
  <speed>1.2747548783981961</speed>
  <fix>3d</fix>
</trkpt>
<trkpt lat="-27.2744361" lon="151.2900809">
  <ele>357.16</ele>
  <time>2026-09-01T20:03:55Z</time>
  <course>19.73</course>
  <speed>1.32</speed>
  <fix>3d</fix>
</trkpt>
<trkpt lat="-27.2744343" lon="151.2900811">
  <ele>356.82</ele>
  <time>2026-09-01T20:03:55Z</time>
  <course>215.07</course>
  <speed>1.27283148923964</speed>
  <fix>3d</fix>
</trkpt>
<trkpt lat="-27.2744332" lon="151.2900814">
  <ele>356.66</ele>
  <time>2026-09-01T20:03:55Z</time>
  <course>215.26</course>
  <speed>1.2800390619039717</speed>
  <fix>3d</fix>
</trkpt>
<trkpt lat="-27.2744361" lon="151.2900809">
  <ele>357.16</ele>
  <time>2026-09-01T20:03:55Z</time>
  <course>19.73</course>
  <speed>1.32</speed>
  <fix>3d</fix>
</trkpt>
<trkpt lat="-27.2744331" lon="151.2900814">
  <ele>356.66</ele>
  <time>2026-09-01T20:03:55Z</time>
  <course>215.27</course>
  <speed>1.2800390619039717</speed>
  <fix>3d</fix>
</trkpt>
<trkpt lat="-27.274432" lon="151.2900815">
  <ele>356.5</ele>
  <time>2026-09-01T20:03:55Z</time>
  <course>215.39</course>
  <speed>1.2918978287774927</speed>
  <fix>3d</fix>
</trkpt>
<trkpt lat="-27.2744339" lon="151.2900816">
  <ele>356.85</ele>
  <time>2026-09-01T20:03:55Z</time>
  <course>13.01</course>
  <speed>1.28</speed>
  <fix>3d</fix>
</trkpt>
<trkpt lat="-27.274432" lon="151.2900815">
  <ele>356.49</ele>
  <time>2026-09-01T20:03:55Z</time>
  <course>215.39</course>
  <speed>1.2918978287774927</speed>
  <fix>3d</fix>
</trkpt>
<trkpt lat="-27.2744308" lon="151.2900816">
  <ele>356.33</ele>
  <time>2026-09-01T20:03:55Z</time>
  <course>215.44</course>
  <speed>1.3100381673829202</speed>
  <fix>3d</fix>
</trkpt>
<trkpt lat="-27.2744339" lon="151.2900816">
  <ele>356.85</ele>
  <time>2026-09-01T20:03:55Z</time>
  <course>13.01</course>
  <speed>1.28</speed>
  <fix>3d</fix>
</trkpt>
<trkpt lat="-27.2744308" lon="151.2900816">
  <ele>356.32</ele>
  <time>2026-09-01T20:03:55Z</time>
  <course>215.44</course>
  <speed>1.3100381673829202</speed>
  <fix>3d</fix>
</trkpt>
<trkpt lat="-27.2744296" lon="151.2900817">
  <ele>356.16</ele>
  <time>2026-09-01T20:03:55Z</time>
  <course>215.4</course>
  <speed>1.3330416347586447</speed>
  <fix>3d</fix>
</trkpt>
<trkpt lat="-27.2744316" lon="151.2900821">
  <ele>356.52</ele>
  <time>2026-09-01T20:03:55Z</time>
  <course>5.09</course>
  <speed>1.29</speed>
  <fix>3d</fix>
</trkpt>
<trkpt lat="-27.2744296" lon="151.2900817">
  <ele>356.15</ele>
  <time>2026-09-01T20:03:55Z</time>
  <course>215.39</course>
  <speed>1.3330416347586447</speed>
  <fix>3d</fix>
</trkpt>
<trkpt lat="-27.2744284" lon="151.2900816">
  <ele>355.99</ele>
  <time>2026-09-01T20:03:55Z</time>
  <course>215.26</course>
  <speed>1.3606616037795731</speed>
  <fix>3d</fix>
</trkpt>
<trkpt lat="-27.2744316" lon="151.2900821">
  <ele>356.52</ele>
  <time>2026-09-01T20:03:55Z</time>
  <course>5.09</course>
  <speed>1.29</speed>
  <fix>3d</fix>
</trkpt>
<trkpt lat="-27.2744284" lon="151.2900816">
  <ele>355.98</ele>
  <time>2026-09-01T20:03:55Z</time>
  <course>215.26</course>
  <speed>1.3606616037795731</speed>
  <fix>3d</fix>
</trkpt>
<trkpt lat="-27.2744272" lon="151.2900815">
  <ele>355.82</ele>
  <time>2026-09-01T20:03:55Z</time>
  <course>215.13</course>
  <speed>1.3810141201305655</speed>
  <fix>3d</fix>
</trkpt>
<trkpt lat="-27.2744293" lon="151.2900821">
  <ele>356.18</ele>
  <time>2026-09-01T20:03:55Z</time>
  <course>357.51</course>
  <speed>1.32</speed>
  <fix>3d</fix>
</trkpt>
<trkpt lat="-27.2744271" lon="151.2900815">
  <ele>355.82</ele>
  <time>2026-09-01T20:03:55Z</time>
  <course>215.13</course>
  <speed>1.3810141201305655</speed>
  <fix>3d</fix>
</trkpt>
<trkpt lat="-27.2744259" lon="151.2900812">
  <ele>355.66</ele>
  <time>2026-09-01T20:03:55Z</time>
  <course>215.04</course>
  <speed>1.4024621207005914</speed>
  <fix>3d</fix>
</trkpt>
<trkpt lat="-27.2744293" lon="151.2900821">
  <ele>356.18</ele>
  <time>2026-09-01T20:03:55Z</time>
  <course>357.51</course>
  <speed>1.32</speed>
  <fix>3d</fix>
</trkpt>
<trkpt lat="-27.2744259" lon="151.2900812">
  <ele>355.65</ele>
  <time>2026-09-01T20:03:55Z</time>
  <course>215.04</course>
  <speed>1.4046351839534705</speed>
  <fix>3d</fix>
</trkpt>
<trkpt lat="-27.2744247" lon="151.290081">
  <ele>355.5</ele>
  <time>2026-09-01T20:03:55Z</time>
  <course>214.95</course>
  <speed>1.4261837188805655</speed>
  <fix>3d</fix>
</trkpt>
<trkpt lat="-27.2744269" lon="151.2900819">
  <ele>355.85</ele>
  <time>2026-09-01T20:03:55Z</time>
  <course>351.16</course>
  <speed>1.36</speed>
  <fix>3d</fix>
</trkpt>
<trkpt lat="-27.2744247" lon="151.290081">
  <ele>355.49</ele>
  <time>2026-09-01T20:03:55Z</time>
  <course>214.94</course>
  <speed>1.4261837188805655</speed>
  <fix>3d</fix>
</trkpt>
<trkpt lat="-27.2744235" lon="151.2900806">
  <ele>355.34</ele>
  <time>2026-09-01T20:03:55Z</time>
  <course>214.81</course>
  <speed>1.4396180048887968</speed>
  <fix>3d</fix>
</trkpt>
<trkpt lat="-27.2744269" lon="151.2900819">
  <ele>355.85</ele>
  <time>2026-09-01T20:03:55Z</time>
  <course>351.16</course>
  <speed>1.36</speed>
  <fix>3d</fix>
</trkpt>
<trkpt lat="-27.2744234" lon="151.2900806">
  <ele>355.33</ele>
  <time>2026-09-01T20:03:55Z</time>
  <course>214.8</course>
  <speed>1.4396180048887968</speed>
  <fix>3d</fix>
</trkpt>
<trkpt lat="-27.2744222" lon="151.2900802">
  <ele>355.18</ele>
  <time>2026-09-01T20:03:55Z</time>
  <course>214.64</course>
  <speed>1.4515164484083534</speed>
  <fix>3d</fix>
</trkpt>
<trkpt lat="-27.2744245" lon="151.2900814">
  <ele>355.53</ele>
  <time>2026-09-01T20:03:55Z</time>
  <course>346.25</course>
  <speed>1.4</speed>
  <fix>3d</fix>
</trkpt>
<trkpt lat="-27.2744222" lon="151.2900802">
  <ele>355.17</ele>
  <time>2026-09-01T20:03:55Z</time>
  <course>214.64</course>
  <speed>1.4515164484083534</speed>
  <fix>3d</fix>
</trkpt>
<trkpt lat="-27.274421" lon="151.2900798">
  <ele>355.02</ele>
  <time>2026-09-01T20:03:55Z</time>
  <course>214.45</course>
  <speed>1.4610954794263105</speed>
  <fix>3d</fix>
</trkpt>
<trkpt lat="-27.2744245" lon="151.2900814">
  <ele>355.53</ele>
  <time>2026-09-01T20:03:55Z</time>
  <course>346.25</course>
  <speed>1.4</speed>
  <fix>3d</fix>
</trkpt>
<trkpt lat="-27.2744209" lon="151.2900798">
  <ele>355.02</ele>
  <time>2026-09-01T20:03:55Z</time>
  <course>214.44</course>
  <speed>1.4610954794263105</speed>
  <fix>3d</fix>
</trkpt>
<trkpt lat="-27.2744198" lon="151.2900794">
  <ele>354.87</ele>
  <time>2026-09-01T20:03:55Z</time>
  <course>214.22</course>
  <speed>1.458389522727039</speed>
  <fix>3d</fix>
</trkpt>
<trkpt lat="-27.274422" lon="151.2900806">
  <ele>355.21</ele>
  <time>2026-09-01T20:03:55Z</time>
  <course>342.66</course>
  <speed>1.42</speed>
  <fix>3d</fix>
</trkpt>
<trkpt lat="-27.2744197" lon="151.2900794">
  <ele>354.86</ele>
  <time>2026-09-01T20:03:55Z</time>
  <course>214.21</course>
  <speed>1.458389522727039</speed>
  <fix>3d</fix>
</trkpt>
<trkpt lat="-27.2744185" lon="151.2900789">
  <ele>354.71</ele>
  <time>2026-09-01T20:03:55Z</time>
  <course>213.93</course>
  <speed>1.4431216164966834</speed>
  <fix>3d</fix>
</trkpt>
<trkpt lat="-27.274422" lon="151.2900806">
  <ele>355.21</ele>
  <time>2026-09-01T20:03:55Z</time>
  <course>342.66</course>
  <speed>1.42</speed>
  <fix>3d</fix>
</trkpt>
<trkpt lat="-27.2744185" lon="151.2900789">
  <ele>354.71</ele>
  <time>2026-09-01T20:03:55Z</time>
  <course>213.92</course>
  <speed>1.4431216164966834</speed>
  <fix>3d</fix>
</trkpt>
<trkpt lat="-27.2744173" lon="151.2900784">
  <ele>354.56</ele>
  <time>2026-09-01T20:03:55Z</time>
  <course>213.57</course>
  <speed>1.437358688706476</speed>
  <fix>3d</fix>
</trkpt>
<trkpt lat="-27.2744196" lon="151.2900797">
  <ele>354.9</ele>
  <time>2026-09-01T20:03:55Z</time>
  <course>340.26</course>
  <speed>1.42</speed>
  <fix>3d</fix>
</trkpt>
<trkpt lat="-27.2744173" lon="151.2900784">
  <ele>354.55</ele>
  <time>2026-09-01T20:03:55Z</time>
  <course>213.55</course>
  <speed>1.437358688706476</speed>
  <fix>3d</fix>
</trkpt>
<trkpt lat="-27.2744162" lon="151.2900779">
  <ele>354.41</ele>
  <time>2026-09-01T20:03:55Z</time>
  <course>213.14</course>
  <speed>1.4150971698084904</speed>
  <fix>3d</fix>
</trkpt>
<trkpt lat="-27.2744196" lon="151.2900797">
  <ele>354.9</ele>
  <time>2026-09-01T20:03:55Z</time>
  <course>340.26</course>
  <speed>1.42</speed>
  <fix>3d</fix>
</trkpt>
<trkpt lat="-27.2744161" lon="151.2900779">
  <ele>354.4</ele>
  <time>2026-09-01T20:03:55Z</time>
  <course>213.13</course>
  <speed>1.4150971698084904</speed>
  <fix>3d</fix>
</trkpt>
<trkpt lat="-27.274415" lon="151.2900775">
  <ele>354.26</ele>
  <time>2026-09-01T20:03:55Z</time>
  <course>212.76</course>
  <speed>1.38351002887583</speed>
  <fix>3d</fix>
</trkpt>
<trkpt lat="-27.2744172" lon="151.2900787">
  <ele>354.6</ele>
  <time>2026-09-01T20:03:55Z</time>
  <course>338.98</course>
  <speed>1.4</speed>
  <fix>3d</fix>
</trkpt>
<trkpt lat="-27.274415" lon="151.2900775">
  <ele>354.25</ele>
  <time>2026-09-01T20:03:55Z</time>
  <course>212.75</course>
  <speed>1.38351002887583</speed>
  <fix>3d</fix>
</trkpt>
<trkpt lat="-27.2744139" lon="151.290077">
  <ele>354.1</ele>
  <time>2026-09-01T20:03:55Z</time>
  <course>212.43</course>
  <speed>1.3576818478568535</speed>
  <fix>3d</fix>
</trkpt>
<trkpt lat="-27.2744172" lon="151.2900787">
  <ele>354.6</ele>
  <time>2026-09-01T20:03:55Z</time>
  <course>338.98</course>
  <speed>1.4</speed>
  <fix>3d</fix>
</trkpt>
<trkpt lat="-27.2744138" lon="151.290077">
  <ele>354.1</ele>
  <time>2026-09-01T20:03:55Z</time>
  <course>212.42</course>
  <speed>1.348332303254654</speed>
  <fix>3d</fix>
</trkpt>
<trkpt lat="-27.2744127" lon="151.2900766">
  <ele>353.96</ele>
  <time>2026-09-01T20:03:55Z</time>
  <course>212.11</course>
  <speed>1.3191285001848758</speed>
  <fix>3d</fix>
</trkpt>
<trkpt lat="-27.2744149" lon="151.2900777">
  <ele>354.3</ele>
  <time>2026-09-01T20:03:55Z</time>
  <course>338.75</course>
  <speed>1.35</speed>
  <fix>3d</fix>
</trkpt>
<trkpt lat="-27.2744127" lon="151.2900766">
  <ele>353.95</ele>
  <time>2026-09-01T20:03:55Z</time>
  <course>212.1</course>
  <speed>1.3097327971765844</speed>
  <fix>3d</fix>
</trkpt>
<trkpt lat="-27.2744117" lon="151.2900761">
  <ele>353.81</ele>
  <time>2026-09-01T20:03:55Z</time>
  <course>211.78</course>
  <speed>1.2713772060250255</speed>
  <fix>3d</fix>
</trkpt>
<trkpt lat="-27.2744149" lon="151.2900777">
  <ele>354.3</ele>
  <time>2026-09-01T20:03:55Z</time>
  <course>338.75</course>
  <speed>1.35</speed>
  <fix>3d</fix>
</trkpt>
<trkpt lat="-27.2744116" lon="151.2900761">
  <ele>353.81</ele>
  <time>2026-09-01T20:03:55Z</time>
  <course>211.77</course>
  <speed>1.2713772060250255</speed>
  <fix>3d</fix>
</trkpt>
<trkpt lat="-27.2744106" lon="151.2900758">
  <ele>353.67</ele>
  <time>2026-09-01T20:03:55Z</time>
  <course>211.38</course>
  <speed>1.2301625908797584</speed>
  <fix>3d</fix>
</trkpt>
<trkpt lat="-27.2744127" lon="151.2900768">
  <ele>354.01</ele>
  <time>2026-09-01T20:03:55Z</time>
  <course>339.55</course>
  <speed>1.28</speed>
  <fix>3d</fix>
</trkpt>
<trkpt lat="-27.2744106" lon="151.2900758">
  <ele>353.66</ele>
  <time>2026-09-01T20:03:55Z</time>
  <course>211.37</course>
  <speed>1.2301625908797584</speed>
  <fix>3d</fix>
</trkpt>
<trkpt lat="-27.2744096" lon="151.2900754">
  <ele>353.52</ele>
  <time>2026-09-01T20:03:55Z</time>
  <course>210.96</course>
  <speed>1.1800423721205946</speed>
  <fix>3d</fix>
</trkpt>
<trkpt lat="-27.2744127" lon="151.2900768">
  <ele>354.01</ele>
  <time>2026-09-01T20:03:55Z</time>
  <course>339.55</course>
  <speed>1.28</speed>
  <fix>3d</fix>
</trkpt>
<trkpt lat="-27.2744096" lon="151.2900754">
  <ele>353.52</ele>
  <time>2026-09-01T20:03:55Z</time>
  <course>210.95</course>
  <speed>1.1800423721205946</speed>
  <fix>3d</fix>
</trkpt>
<trkpt lat="-27.2744086" lon="151.2900751">
  <ele>353.38</ele>
  <time>2026-09-01T20:03:55Z</time>
  <course>210.61</course>
  <speed>1.1305308487608818</speed>
  <fix>3d</fix>
</trkpt>
<trkpt lat="-27.2744106" lon="151.2900759">
  <ele>353.71</ele>
  <time>2026-09-01T20:03:55Z</time>
  <course>341.34</course>
  <speed>1.19</speed>
  <fix>3d</fix>
</trkpt>
<trkpt lat="-27.2744086" lon="151.2900751">
  <ele>353.38</ele>
  <time>2026-09-01T20:03:55Z</time>
  <course>210.6</course>
  <speed>1.1305308487608818</speed>
  <fix>3d</fix>
</trkpt>
<trkpt lat="-27.2744077" lon="151.2900749">
  <ele>353.24</ele>
  <time>2026-09-01T20:03:55Z</time>
  <course>210.28</course>
  <speed>1.0696261028976435</speed>
  <fix>3d</fix>
</trkpt>
<trkpt lat="-27.2744106" lon="151.2900759">
  <ele>353.71</ele>
  <time>2026-09-01T20:03:55Z</time>
  <course>341.34</course>
  <speed>1.19</speed>
  <fix>3d</fix>
</trkpt>
<trkpt lat="-27.2744077" lon="151.2900749">
  <ele>353.24</ele>
  <time>2026-09-01T20:03:55Z</time>
  <course>210.27</course>
  <speed>1.0696261028976435</speed>
  <fix>3d</fix>
</trkpt>
<trkpt lat="-27.2744068" lon="151.2900747">
  <ele>353.11</ele>
  <time>2026-09-01T20:03:55Z</time>
  <course>209.93</course>
  <speed>1.019803902718557</speed>
  <fix>3d</fix>
</trkpt>
<trkpt lat="-27.2744086" lon="151.2900753">
  <ele>353.43</ele>
  <time>2026-09-01T20:03:55Z</time>
  <course>344.13</course>
  <speed>1.09</speed>
  <fix>3d</fix>
</trkpt>
<trkpt lat="-27.2744068" lon="151.2900747">
  <ele>353.1</ele>
  <time>2026-09-01T20:03:55Z</time>
  <course>209.92</course>
  <speed>1.01</speed>
  <fix>3d</fix>
</trkpt>
<trkpt lat="-27.2744059" lon="151.2900745">
  <ele>352.97</ele>
  <time>2026-09-01T20:03:55Z</time>
  <course>209.53</course>
  <speed>0.9617692030835673</speed>
  <fix>3d</fix>
</trkpt>
<trkpt lat="-27.2744086" lon="151.2900753">
  <ele>353.43</ele>
  <time>2026-09-01T20:03:55Z</time>
  <course>344.13</course>
  <speed>1.09</speed>
  <fix>3d</fix>
</trkpt>
<trkpt lat="-27.2744059" lon="151.2900745">
  <ele>352.97</ele>
  <time>2026-09-01T20:03:55Z</time>
  <course>209.51</course>
  <speed>0.9617692030835673</speed>
  <fix>3d</fix>
</trkpt>
<trkpt lat="-27.2744051" lon="151.2900744">
  <ele>352.84</ele>
  <time>2026-09-01T20:03:55Z</time>
  <course>209.14</course>
  <speed>0.9055385138137417</speed>
  <fix>3d</fix>
</trkpt>
<trkpt lat="-27.2744068" lon="151.2900747">
  <ele>353.15</ele>
  <time>2026-09-01T20:03:55Z</time>
  <course>347.99</course>
  <speed>0.97</speed>
  <fix>3d</fix>
</trkpt>
<trkpt lat="-27.2744051" lon="151.2900744">
  <ele>352.84</ele>
  <time>2026-09-01T20:03:55Z</time>
  <course>209.13</course>
  <speed>0.8956003573022958</speed>
  <fix>3d</fix>
</trkpt>
<trkpt lat="-27.2744044" lon="151.2900743">
  <ele>352.71</ele>
  <time>2026-09-01T20:03:55Z</time>
  <course>208.83</course>
  <speed>0.841486779456457</speed>
  <fix>3d</fix>
</trkpt>
<trkpt lat="-27.2744068" lon="151.2900747">
  <ele>353.15</ele>
  <time>2026-09-01T20:03:55Z</time>
  <course>347.99</course>
  <speed>0.97</speed>
  <fix>3d</fix>
</trkpt>
<trkpt lat="-27.2744044" lon="151.2900743">
  <ele>352.71</ele>
  <time>2026-09-01T20:03:55Z</time>
  <course>208.82</course>
  <speed>0.841486779456457</speed>
  <fix>3d</fix>
</trkpt>
<trkpt lat="-27.2744037" lon="151.2900743">
  <ele>352.58</ele>
  <time>2026-09-01T20:03:55Z</time>
  <course>208.55</course>
  <speed>0.79</speed>
  <fix>3d</fix>
</trkpt>
<trkpt lat="-27.2744051" lon="151.2900743">
  <ele>352.89</ele>
  <time>2026-09-01T20:03:55Z</time>
  <course>353.02</course>
  <speed>0.86</speed>
  <fix>3d</fix>
</trkpt>
<trkpt lat="-27.2744036" lon="151.2900743">
  <ele>352.58</ele>
  <time>2026-09-01T20:03:55Z</time>
  <course>208.54</course>
  <speed>0.78</speed>
  <fix>3d</fix>
</trkpt>
<trkpt lat="-27.274403" lon="151.2900743">
  <ele>352.46</ele>
  <time>2026-09-01T20:03:55Z</time>
  <course>208.27</course>
  <speed>0.7310950690573697</speed>
  <fix>3d</fix>
</trkpt>
<trkpt lat="-27.2744051" lon="151.2900743">
  <ele>352.89</ele>
  <time>2026-09-01T20:03:55Z</time>
  <course>353.02</course>
  <speed>0.86</speed>
  <fix>3d</fix>
</trkpt>
<trkpt lat="-27.274403" lon="151.2900743">
  <ele>352.46</ele>
  <time>2026-09-01T20:03:55Z</time>
  <course>208.26</course>
  <speed>0.7211102550927978</speed>
  <fix>3d</fix>
</trkpt>
<trkpt lat="-27.2744024" lon="151.2900744">
  <ele>352.34</ele>
  <time>2026-09-01T20:03:55Z</time>
  <course>207.95</course>
  <speed>0.6747592163134936</speed>
  <fix>3d</fix>
</trkpt>
<trkpt lat="-27.2744037" lon="151.2900742">
  <ele>352.63</ele>
  <time>2026-09-01T20:03:55Z</time>
  <course>359.45</course>
  <speed>0.74</speed>
  <fix>3d</fix>
</trkpt>
<trkpt lat="-27.2744024" lon="151.2900744">
  <ele>352.34</ele>
  <time>2026-09-01T20:03:55Z</time>
  <course>207.94</course>
  <speed>0.6648308055437865</speed>
  <fix>3d</fix>
</trkpt>
<trkpt lat="-27.2744019" lon="151.2900745">
  <ele>352.23</ele>
  <time>2026-09-01T20:03:55Z</time>
  <course>207.63</course>
  <speed>0.6118823416311342</speed>
  <fix>3d</fix>
</trkpt>
<trkpt lat="-27.2744037" lon="151.2900742">
  <ele>352.63</ele>
  <time>2026-09-01T20:03:55Z</time>
  <course>359.45</course>
  <speed>0.74</speed>
  <fix>3d</fix>
</trkpt>
<trkpt lat="-27.2744018" lon="151.2900745">
  <ele>352.22</ele>
  <time>2026-09-01T20:03:55Z</time>
  <course>207.62</course>
  <speed>0.6118823416311342</speed>
  <fix>3d</fix>
</trkpt>
<trkpt lat="-27.2744014" lon="151.2900746">
  <ele>352.12</ele>
  <time>2026-09-01T20:03:55Z</time>
  <course>207.36</course>
  <speed>0.5536244214266564</speed>
  <fix>3d</fix>
</trkpt>
<trkpt lat="-27.2744025" lon="151.2900743">
  <ele>352.39</ele>
  <time>2026-09-01T20:03:55Z</time>
  <course>7.58</course>
  <speed>0.62</speed>
  <fix>3d</fix>
</trkpt>
<trkpt lat="-27.2744014" lon="151.2900746">
  <ele>352.11</ele>
  <time>2026-09-01T20:03:55Z</time>
  <course>207.36</course>
  <speed>0.5440588203494178</speed>
  <fix>3d</fix>
</trkpt>
<trkpt lat="-27.274401" lon="151.2900748">
  <ele>352.01</ele>
  <time>2026-09-01T20:03:55Z</time>
  <course>207.14</course>
  <speed>0.49040799340956914</speed>
  <fix>3d</fix>
</trkpt>
<trkpt lat="-27.2744025" lon="151.2900743">
  <ele>352.39</ele>
  <time>2026-09-01T20:03:55Z</time>
  <course>7.58</course>
  <speed>0.62</speed>
  <fix>3d</fix>
</trkpt>
<trkpt lat="-27.274401" lon="151.2900748">
  <ele>352.0</ele>
  <time>2026-09-01T20:03:55Z</time>
  <course>207.13</course>
  <speed>0.48104053883222775</speed>
  <fix>3d</fix>
</trkpt>
<trkpt lat="-27.2744006" lon="151.2900748">
  <ele>351.9</ele>
  <time>2026-09-01T20:03:55Z</time>
  <course>206.4</course>
  <speed>0.41785164831552357</speed>
  <fix>3d</fix>
</trkpt>
<trkpt lat="-27.2744015" lon="151.2900745">
  <ele>352.16</ele>
  <time>2026-09-01T20:03:55Z</time>
  <course>17.04</course>
  <speed>0.5</speed>
  <fix>3d</fix>
</trkpt>
<trkpt lat="-27.2744006" lon="151.2900749">
  <ele>351.89</ele>
  <time>2026-09-01T20:03:55Z</time>
  <course>206.36</course>
  <speed>0.41785164831552357</speed>
  <fix>3d</fix>
</trkpt>
<trkpt lat="-27.2744003" lon="151.290075">
  <ele>351.79</ele>
  <time>2026-09-01T20:03:55Z</time>
  <course>205.27</course>
  <speed>0.3453983207834109</speed>
  <fix>3d</fix>
</trkpt>
<trkpt lat="-27.2744015" lon="151.2900745">
  <ele>352.16</ele>
  <time>2026-09-01T20:03:55Z</time>
  <course>17.04</course>
  <speed>0.5</speed>
  <fix>3d</fix>
</trkpt>
<trkpt lat="-27.2744003" lon="151.290075">
  <ele>351.79</ele>
  <time>2026-09-01T20:03:55Z</time>
  <course>205.23</course>
  <speed>0.3361547262794322</speed>
  <fix>3d</fix>
</trkpt>
<trkpt lat="-27.2744001" lon="151.2900751">
  <ele>351.69</ele>
  <time>2026-09-01T20:03:55Z</time>
  <course>204.12</course>
  <speed>0.25079872407968906</speed>
  <fix>3d</fix>
</trkpt>
<trkpt lat="-27.2744008" lon="151.2900748">
  <ele>351.94</ele>
  <time>2026-09-01T20:03:55Z</time>
  <course>23.84</course>
  <speed>0.37</speed>
  <fix>3d</fix>
</trkpt>
<trkpt lat="-27.2744001" lon="151.2900751">
  <ele>351.69</ele>
  <time>2026-09-01T20:03:55Z</time>
  <course>204.09</course>
  <speed>0.25079872407968906</speed>
  <fix>3d</fix>
</trkpt>
<trkpt lat="-27.2744" lon="151.2900752">
  <ele>351.59</ele>
  <time>2026-09-01T20:03:55Z</time>
  <course>203.28</course>
  <speed>0.15264337522473748</speed>
  <fix>3d</fix>
</trkpt>
<trkpt lat="-27.2744008" lon="151.2900748">
  <ele>351.94</ele>
  <time>2026-09-01T20:03:55Z</time>
  <course>23.84</course>
  <speed>0.37</speed>
  <fix>3d</fix>
</trkpt>
<trkpt lat="-27.2744" lon="151.2900752">
  <ele>351.58</ele>
  <time>2026-09-01T20:03:55Z</time>
  <course>203.26</course>
  <speed>0.15264337522473748</speed>
  <fix>3d</fix>
</trkpt>
<trkpt lat="-27.2743999" lon="151.2900753">
  <ele>351.49</ele>
  <time>2026-09-01T20:03:55Z</time>
  <course>202.91</course>
  <speed>0.0632455532033676</speed>
  <fix>3d</fix>
</trkpt>
<trkpt lat="-27.2744003" lon="151.2900751">
  <ele>351.74</ele>
  <time>2026-09-01T20:03:55Z</time>
  <course>31.11</course>
  <speed>0.2</speed>
  <fix>3d</fix>
</trkpt>
<trkpt lat="-27.2743999" lon="151.2900753">
  <ele>351.49</ele>
  <time>2026-09-01T20:03:55Z</time>
  <course>202.9</course>
  <speed>0.0632455532033676</speed>
  <fix>3d</fix>
</trkpt>
<trkpt lat="-27.2744" lon="151.2900753">
  <ele>351.39</ele>
  <time>2026-09-01T20:03:55Z</time>
  <course>203.02</course>
  <speed>0.09848857801796104</speed>
  <fix>3d</fix>
</trkpt>
<trkpt lat="-27.2744003" lon="151.2900751">
  <ele>351.74</ele>
  <time>2026-09-01T20:03:55Z</time>
  <course>31.11</course>
  <speed>0.2</speed>
  <fix>3d</fix>
</trkpt>
<trkpt lat="-27.2744" lon="151.2900753">
  <ele>351.39</ele>
  <time>2026-09-01T20:03:55Z</time>
  <course>203.03</course>
  <speed>0.09848857801796104</speed>
  <fix>3d</fix>
</trkpt>
<trkpt lat="-27.2744002" lon="151.2900753">
  <ele>351.3</ele>
  <time>2026-09-01T20:03:55Z</time>
  <course>203.48</course>
  <speed>0.2109502310972899</speed>
  <fix>3d</fix>
</trkpt>
<trkpt lat="-27.2744002" lon="151.2900753">
  <ele>351.54</ele>
  <time>2026-09-01T20:03:55Z</time>
  <course>117.09</course>
  <speed>0.07</speed>
  <fix>3d</fix>
</trkpt>
<trkpt lat="-27.2744002" lon="151.2900753">
  <ele>351.3</ele>
  <time>2026-09-01T20:03:55Z</time>
  <course>203.49</course>
  <speed>0.22090722034374521</speed>
  <fix>3d</fix>
</trkpt>
<trkpt lat="-27.2744004" lon="151.2900753">
  <ele>351.21</ele>
  <time>2026-09-01T20:03:55Z</time>
  <course>204.1</course>
  <speed>0.35</speed>
  <fix>3d</fix>
</trkpt>
<trkpt lat="-27.2744002" lon="151.2900753">
  <ele>351.54</ele>
  <time>2026-09-01T20:03:55Z</time>
  <course>117.09</course>
  <speed>0.07</speed>
  <fix>3d</fix>
</trkpt>
<trkpt lat="-27.2744005" lon="151.2900753">
  <ele>351.21</ele>
  <time>2026-09-01T20:03:55Z</time>
  <course>204.11</course>
  <speed>0.35</speed>
  <fix>3d</fix>
</trkpt>
<trkpt lat="-27.2744009" lon="151.2900753">
  <ele>351.12</ele>
  <time>2026-09-01T20:03:55Z</time>
  <course>204.69</course>
  <speed>0.4909175083453431</speed>
  <fix>3d</fix>
</trkpt>
<trkpt lat="-27.2744004" lon="151.2900754">
  <ele>351.35</ele>
  <time>2026-09-01T20:03:55Z</time>
  <course>176.47</course>
  <speed>0.28</speed>
  <fix>3d</fix>
</trkpt>
<trkpt lat="-27.2744009" lon="151.2900753">
  <ele>351.11</ele>
  <time>2026-09-01T20:03:55Z</time>
  <course>204.71</course>
  <speed>0.4916299421312742</speed>
  <fix>3d</fix>
</trkpt>
<trkpt lat="-27.2744013" lon="151.2900753">
  <ele>351.03</ele>
  <time>2026-09-01T20:03:55Z</time>
  <course>205.15</course>
  <speed>0.6338769596696191</speed>
  <fix>3d</fix>
</trkpt>
<trkpt lat="-27.2744004" lon="151.2900754">
  <ele>351.35</ele>
  <time>2026-09-01T20:03:55Z</time>
  <course>176.47</course>
  <speed>0.28</speed>
  <fix>3d</fix>
</trkpt>
<trkpt lat="-27.2744013" lon="151.2900753">
  <ele>351.03</ele>
  <time>2026-09-01T20:03:55Z</time>
  <course>205.16</course>
  <speed>0.6338769596696191</speed>
  <fix>3d</fix>
</trkpt>
<trkpt lat="-27.274402" lon="151.2900752">
  <ele>350.95</ele>
  <time>2026-09-01T20:03:55Z</time>
  <course>205.39</course>
  <speed>0.7778174593052023</speed>
  <fix>3d</fix>
</trkpt>
<trkpt lat="-27.2744012" lon="151.2900753">
  <ele>351.17</ele>
  <time>2026-09-01T20:03:55Z</time>
  <course>184.4</course>
  <speed>0.55</speed>
  <fix>3d</fix>
</trkpt>
<trkpt lat="-27.274402" lon="151.2900752">
  <ele>350.94</ele>
  <time>2026-09-01T20:03:55Z</time>
  <course>205.39</course>
  <speed>0.7778174593052023</speed>
  <fix>3d</fix>
</trkpt>
<trkpt lat="-27.2744027" lon="151.2900751">
  <ele>350.86</ele>
  <time>2026-09-01T20:03:55Z</time>
  <course>205.44</course>
  <speed>0.912414379544733</speed>
  <fix>3d</fix>
</trkpt>
<trkpt lat="-27.2744012" lon="151.2900753">
  <ele>351.17</ele>
  <time>2026-09-01T20:03:55Z</time>
  <course>184.4</course>
  <speed>0.55</speed>
  <fix>3d</fix>
</trkpt>
<trkpt lat="-27.2744028" lon="151.2900751">
  <ele>350.86</ele>
  <time>2026-09-01T20:03:55Z</time>
  <course>205.44</course>
  <speed>0.9222797840135064</speed>
  <fix>3d</fix>
</trkpt>
<trkpt lat="-27.2744036" lon="151.290075">
  <ele>350.78</ele>
  <time>2026-09-01T20:03:55Z</time>
  <course>205.33</course>
  <speed>1.045609869884557</speed>
  <fix>3d</fix>
</trkpt>
<trkpt lat="-27.2744024" lon="151.2900752">
  <ele>351.0</ele>
  <time>2026-09-01T20:03:55Z</time>
  <course>187.84</course>
  <speed>0.84</speed>
  <fix>3d</fix>
</trkpt>
<trkpt lat="-27.2744037" lon="151.290075">
  <ele>350.78</ele>
  <time>2026-09-01T20:03:55Z</time>
  <course>205.33</course>
  <speed>1.045609869884557</speed>
  <fix>3d</fix>
</trkpt>
<trkpt lat="-27.2744047" lon="151.2900748">
  <ele>350.7</ele>
  <time>2026-09-01T20:03:55Z</time>
  <course>205.14</course>
  <speed>1.1708543888972702</speed>
  <fix>3d</fix>
</trkpt>
<trkpt lat="-27.2744024" lon="151.2900752">
  <ele>351.0</ele>
  <time>2026-09-01T20:03:55Z</time>
  <course>187.84</course>
  <speed>0.84</speed>
  <fix>3d</fix>
</trkpt>
<trkpt lat="-27.2744047" lon="151.2900747">
  <ele>350.7</ele>
  <time>2026-09-01T20:03:55Z</time>
  <course>205.14</course>
  <speed>1.1708543888972702</speed>
  <fix>3d</fix>
</trkpt>
<trkpt lat="-27.2744058" lon="151.2900745">
  <ele>350.62</ele>
  <time>2026-09-01T20:03:55Z</time>
  <course>204.96</course>
  <speed>1.284562182223967</speed>
  <fix>3d</fix>
</trkpt>
<trkpt lat="-27.2744041" lon="151.290075">
  <ele>350.84</ele>
  <time>2026-09-01T20:03:55Z</time>
  <course>189.77</course>
  <speed>1.11</speed>
  <fix>3d</fix>
</trkpt>
<trkpt lat="-27.2744058" lon="151.2900745">
  <ele>350.62</ele>
  <time>2026-09-01T20:03:55Z</time>
  <course>204.95</course>
  <speed>1.2943724348115577</speed>
  <fix>3d</fix>
</trkpt>
<trkpt lat="-27.274407" lon="151.2900743">
  <ele>350.55</ele>
  <time>2026-09-01T20:03:55Z</time>
  <course>204.84</course>
  <speed>1.3885243966167826</speed>
  <fix>3d</fix>
</trkpt>
<trkpt lat="-27.2744041" lon="151.290075">
  <ele>350.84</ele>
  <time>2026-09-01T20:03:55Z</time>
  <course>189.77</course>
  <speed>1.11</speed>
  <fix>3d</fix>
</trkpt>
<trkpt lat="-27.274407" lon="151.2900742">
  <ele>350.55</ele>
  <time>2026-09-01T20:03:55Z</time>
  <course>204.84</course>
  <speed>1.3885243966167826</speed>
  <fix>3d</fix>
</trkpt>
<trkpt lat="-27.2744083" lon="151.290074">
  <ele>350.48</ele>
  <time>2026-09-01T20:03:55Z</time>
  <course>204.76</course>
  <speed>1.482767682410161</speed>
  <fix>3d</fix>
</trkpt>
<trkpt lat="-27.2744063" lon="151.2900745">
  <ele>350.68</ele>
  <time>2026-09-01T20:03:55Z</time>
  <course>190.94</course>
  <speed>1.35</speed>
  <fix>3d</fix>
</trkpt>
<trkpt lat="-27.2744083" lon="151.290074">
  <ele>350.47</ele>
  <time>2026-09-01T20:03:55Z</time>
  <course>204.76</course>
  <speed>1.4925481566770298</speed>
  <fix>3d</fix>
</trkpt>
<trkpt lat="-27.2744096" lon="151.2900736">
  <ele>350.41</ele>
  <time>2026-09-01T20:03:55Z</time>
  <course>204.67</course>
  <speed>1.574960316960399</speed>
  <fix>3d</fix>
</trkpt>
<trkpt lat="-27.2744063" lon="151.2900745">
  <ele>350.68</ele>
  <time>2026-09-01T20:03:55Z</time>
  <course>190.94</course>
  <speed>1.35</speed>
  <fix>3d</fix>
</trkpt>
<trkpt lat="-27.2744097" lon="151.2900736">
  <ele>350.41</ele>
  <time>2026-09-01T20:03:55Z</time>
  <course>204.67</course>
  <speed>1.5770859202973058</speed>
  <fix>3d</fix>
</trkpt>
<trkpt lat="-27.2744111" lon="151.2900733">
  <ele>350.34</ele>
  <time>2026-09-01T20:03:55Z</time>
  <course>204.63</course>
  <speed>1.6378339354159202</speed>
  <fix>3d</fix>
</trkpt>
<trkpt lat="-27.2744089" lon="151.2900739">
  <ele>350.53</ele>
  <time>2026-09-01T20:03:55Z</time>
  <course>191.73</course>
  <speed>1.55</speed>
  <fix>3d</fix>
</trkpt>
<trkpt lat="-27.2744111" lon="151.2900733">
  <ele>350.34</ele>
  <time>2026-09-01T20:03:55Z</time>
  <course>204.63</course>
  <speed>1.64</speed>
  <fix>3d</fix>
</trkpt>
<trkpt lat="-27.2744126" lon="151.2900729">
  <ele>350.28</ele>
  <time>2026-09-01T20:03:55Z</time>
  <course>204.63</course>
  <speed>1.68121979526771</speed>
  <fix>3d</fix>
</trkpt>
<trkpt lat="-27.2744089" lon="151.2900739">
  <ele>350.53</ele>
  <time>2026-09-01T20:03:55Z</time>
  <course>191.73</course>
  <speed>1.55</speed>
  <fix>3d</fix>
</trkpt>
<trkpt lat="-27.2744126" lon="151.2900729">
  <ele>350.28</ele>
  <time>2026-09-01T20:03:55Z</time>
  <course>204.63</course>
  <speed>1.68121979526771</speed>
  <fix>3d</fix>
</trkpt>
<trkpt lat="-27.2744141" lon="151.2900726">
  <ele>350.22</ele>
  <time>2026-09-01T20:03:55Z</time>
  <course>204.68</course>
  <speed>1.7007351351694948</speed>
  <fix>3d</fix>
</trkpt>
<trkpt lat="-27.2744117" lon="151.2900732">
  <ele>350.4</ele>
  <time>2026-09-01T20:03:55Z</time>
  <course>192.21</course>
  <speed>1.7</speed>
  <fix>3d</fix>
</trkpt>
<trkpt lat="-27.2744142" lon="151.2900725">
  <ele>350.22</ele>
  <time>2026-09-01T20:03:55Z</time>
  <course>204.68</course>
  <speed>1.7007351351694948</speed>
  <fix>3d</fix>
</trkpt>
<trkpt lat="-27.2744156" lon="151.2900722">
  <ele>350.16</ele>
  <time>2026-09-01T20:03:55Z</time>
  <course>204.76</course>
  <speed>1.7104970037974343</speed>
  <fix>3d</fix>
</trkpt>
<trkpt lat="-27.2744117" lon="151.2900732">
  <ele>350.4</ele>
  <time>2026-09-01T20:03:55Z</time>
  <course>192.21</course>
  <speed>1.7</speed>
  <fix>3d</fix>
</trkpt>
<trkpt lat="-27.2744157" lon="151.2900722">
  <ele>350.16</ele>
  <time>2026-09-01T20:03:55Z</time>
  <course>204.76</course>
  <speed>1.7104970037974343</speed>
  <fix>3d</fix>
</trkpt>
<trkpt lat="-27.2744172" lon="151.2900718">
  <ele>350.1</ele>
  <time>2026-09-01T20:03:55Z</time>
  <course>204.85</course>
  <speed>1.6888161534045085</speed>
  <fix>3d</fix>
</trkpt>
<trkpt lat="-27.2744148" lon="151.2900725">
  <ele>350.28</ele>
  <time>2026-09-01T20:03:55Z</time>
  <course>192.35</course>
  <speed>1.76</speed>
  <fix>3d</fix>
</trkpt>
<trkpt lat="-27.2744173" lon="151.2900718">
  <ele>350.09</ele>
  <time>2026-09-01T20:03:55Z</time>
  <course>204.85</course>
  <speed>1.6888161534045085</speed>
  <fix>3d</fix>
</trkpt>
<trkpt lat="-27.2744187" lon="151.2900714">
  <ele>350.04</ele>
  <time>2026-09-01T20:03:55Z</time>
  <course>204.91</course>
  <speed>1.647604321431575</speed>
  <fix>3d</fix>
</trkpt>
<trkpt lat="-27.2744148" lon="151.2900725">
  <ele>350.28</ele>
  <time>2026-09-01T20:03:55Z</time>
  <course>192.35</course>
  <speed>1.76</speed>
  <fix>3d</fix>
</trkpt>
<trkpt lat="-27.2744187" lon="151.2900714">
  <ele>350.03</ele>
  <time>2026-09-01T20:03:55Z</time>
  <course>204.91</course>
  <speed>1.647604321431575</speed>
  <fix>3d</fix>
</trkpt>
<trkpt lat="-27.2744202" lon="151.2900711">
  <ele>349.97</ele>
  <time>2026-09-01T20:03:55Z</time>
  <course>204.99</course>
  <speed>1.6043067038443741</speed>
  <fix>3d</fix>
</trkpt>
<trkpt lat="-27.2744179" lon="151.2900717">
  <ele>350.16</ele>
  <time>2026-09-01T20:03:55Z</time>
  <course>192.17</course>
  <speed>1.75</speed>
  <fix>3d</fix>
</trkpt>
<trkpt lat="-27.2744202" lon="151.2900711">
  <ele>349.97</ele>
  <time>2026-09-01T20:03:55Z</time>
  <course>204.99</course>
  <speed>1.6043067038443741</speed>
  <fix>3d</fix>
</trkpt>
<trkpt lat="-27.2744216" lon="151.2900708">
  <ele>349.9</ele>
  <time>2026-09-01T20:03:55Z</time>
  <course>205.08</course>
  <speed>1.5512897859523216</speed>
  <fix>3d</fix>
</trkpt>
<trkpt lat="-27.2744179" lon="151.2900717">
  <ele>350.16</ele>
  <time>2026-09-01T20:03:55Z</time>
  <course>192.17</course>
  <speed>1.75</speed>
  <fix>3d</fix>
</trkpt>
<trkpt lat="-27.2744216" lon="151.2900708">
  <ele>349.9</ele>
  <time>2026-09-01T20:03:55Z</time>
  <course>205.08</course>
  <speed>1.5414927829866736</speed>
  <fix>3d</fix>
</trkpt>
<trkpt lat="-27.274423" lon="151.2900705">
  <ele>349.83</ele>
  <time>2026-09-01T20:03:55Z</time>
  <course>205.07</course>
  <speed>1.4787156589419075</speed>
  <fix>3d</fix>
</trkpt>
<trkpt lat="-27.2744209" lon="151.290071">
  <ele>350.03</ele>
  <time>2026-09-01T20:03:55Z</time>
  <course>191.75</course>
  <speed>1.67</speed>
  <fix>3d</fix>
</trkpt>
<trkpt lat="-27.274423" lon="151.2900704">
  <ele>349.83</ele>
  <time>2026-09-01T20:03:55Z</time>
  <course>205.07</course>
  <speed>1.4787156589419075</speed>
  <fix>3d</fix>
</trkpt>
<trkpt lat="-27.2744243" lon="151.2900702">
  <ele>349.75</ele>
  <time>2026-09-01T20:03:55Z</time>
  <course>205.1</course>
  <speed>1.4061649974309558</speed>
  <fix>3d</fix>
</trkpt>
<trkpt lat="-27.2744209" lon="151.290071">
  <ele>350.03</ele>
  <time>2026-09-01T20:03:55Z</time>
  <course>191.75</course>
  <speed>1.67</speed>
  <fix>3d</fix>
</trkpt>
<trkpt lat="-27.2744243" lon="151.2900702">
  <ele>349.75</ele>
  <time>2026-09-01T20:03:55Z</time>
  <course>205.1</course>
  <speed>1.3944532978913278</speed>
  <fix>3d</fix>
</trkpt>
<trkpt lat="-27.2744256" lon="151.2900699">
  <ele>349.67</ele>
  <time>2026-09-01T20:03:55Z</time>
  <course>205.13</course>
  <speed>1.3219682295728592</speed>
  <fix>3d</fix>
</trkpt>
<trkpt lat="-27.2744237" lon="151.2900704">
  <ele>349.89</ele>
  <time>2026-09-01T20:03:55Z</time>
  <course>191.12</course>
  <speed>1.54</speed>
  <fix>3d</fix>
</trkpt>
<trkpt lat="-27.2744256" lon="151.2900699">
  <ele>349.67</ele>
  <time>2026-09-01T20:03:55Z</time>
  <course>205.13</course>
  <speed>1.3219682295728592</speed>
  <fix>3d</fix>
</trkpt>
<trkpt lat="-27.2744268" lon="151.2900697">
  <ele>349.59</ele>
  <time>2026-09-01T20:03:55Z</time>
  <course>205.11</course>
  <speed>1.2396773773849388</speed>
  <fix>3d</fix>
</trkpt>
<trkpt lat="-27.2744237" lon="151.2900704">
  <ele>349.89</ele>
  <time>2026-09-01T20:03:55Z</time>
  <course>191.12</course>
  <speed>1.54</speed>
  <fix>3d</fix>
</trkpt>
<trkpt lat="-27.2744268" lon="151.2900697">
  <ele>349.59</ele>
  <time>2026-09-01T20:03:55Z</time>
  <course>205.11</course>
  <speed>1.2396773773849388</speed>
  <fix>3d</fix>
</trkpt>
<trkpt lat="-27.2744279" lon="151.2900695">
  <ele>349.51</ele>
  <time>2026-09-01T20:03:55Z</time>
  <course>205.14</course>
  <speed>1.1557248807566618</speed>
  <fix>3d</fix>
</trkpt>
<trkpt lat="-27.2744263" lon="151.2900698">
  <ele>349.74</ele>
  <time>2026-09-01T20:03:55Z</time>
  <course>190.34</course>
  <speed>1.38</speed>
  <fix>3d</fix>
</trkpt>
<trkpt lat="-27.274428" lon="151.2900694">
  <ele>349.51</ele>
  <time>2026-09-01T20:03:55Z</time>
  <course>205.15</course>
  <speed>1.1557248807566618</speed>
  <fix>3d</fix>
</trkpt>
<trkpt lat="-27.2744289" lon="151.2900693">
  <ele>349.43</ele>
  <time>2026-09-01T20:03:55Z</time>
  <course>205.13</course>
  <speed>1.0735455276791945</speed>
  <fix>3d</fix>
</trkpt>
<trkpt lat="-27.2744263" lon="151.2900698">
  <ele>349.74</ele>
  <time>2026-09-01T20:03:55Z</time>
  <course>190.34</course>
  <speed>1.38</speed>
  <fix>3d</fix>
</trkpt>
<trkpt lat="-27.2744289" lon="151.2900693">
  <ele>349.43</ele>
  <time>2026-09-01T20:03:55Z</time>
  <course>205.13</course>
  <speed>1.0735455276791945</speed>
  <fix>3d</fix>
</trkpt>
<trkpt lat="-27.2744299" lon="151.2900691">
  <ele>349.36</ele>
  <time>2026-09-01T20:03:55Z</time>
  <course>205.14</course>
  <speed>0.9914131328563285</speed>
  <fix>3d</fix>
</trkpt>
<trkpt lat="-27.2744287" lon="151.2900694">
  <ele>349.58</ele>
  <time>2026-09-01T20:03:55Z</time>
  <course>189.5</course>
  <speed>1.22</speed>
  <fix>3d</fix>
</trkpt>
<trkpt lat="-27.2744299" lon="151.2900691">
  <ele>349.36</ele>
  <time>2026-09-01T20:03:55Z</time>
  <course>205.14</course>
  <speed>0.9914131328563285</speed>
  <fix>3d</fix>
</trkpt>
<trkpt lat="-27.2744308" lon="151.2900689">
  <ele>349.29</ele>
  <time>2026-09-01T20:03:55Z</time>
  <course>205.16</course>
  <speed>0.9093404203047393</speed>
  <fix>3d</fix>
</trkpt>
<trkpt lat="-27.2744287" lon="151.2900694">
  <ele>349.58</ele>
  <time>2026-09-01T20:03:55Z</time>
  <course>189.5</course>
  <speed>1.22</speed>
  <fix>3d</fix>
</trkpt>
<trkpt lat="-27.2744308" lon="151.2900689">
  <ele>349.28</ele>
  <time>2026-09-01T20:03:55Z</time>
  <course>205.16</course>
  <speed>0.9093404203047393</speed>
  <fix>3d</fix>
</trkpt>
<trkpt lat="-27.2744316" lon="151.2900688">
  <ele>349.22</ele>
  <time>2026-09-01T20:03:55Z</time>
  <course>205.14</course>
  <speed>0.8273451516749222</speed>
  <fix>3d</fix>
</trkpt>
<trkpt lat="-27.2744307" lon="151.290069">
  <ele>349.43</ele>
  <time>2026-09-01T20:03:55Z</time>
  <course>188.63</course>
  <speed>1.05</speed>
  <fix>3d</fix>
</trkpt>
<trkpt lat="-27.2744317" lon="151.2900688">
  <ele>349.22</ele>
  <time>2026-09-01T20:03:55Z</time>
  <course>205.14</course>
  <speed>0.8273451516749222</speed>
  <fix>3d</fix>
</trkpt>
<trkpt lat="-27.2744324" lon="151.2900687">
  <ele>349.15</ele>
  <time>2026-09-01T20:03:55Z</time>
  <course>205.18</course>
  <speed>0.7467261881037789</speed>
  <fix>3d</fix>
</trkpt>
<trkpt lat="-27.2744307" lon="151.290069">
  <ele>349.43</ele>
  <time>2026-09-01T20:03:55Z</time>
  <course>188.63</course>
  <speed>1.05</speed>
  <fix>3d</fix>
</trkpt>
<trkpt lat="-27.2744324" lon="151.2900687">
  <ele>349.15</ele>
  <time>2026-09-01T20:03:55Z</time>
  <course>205.18</course>
  <speed>0.7467261881037789</speed>
  <fix>3d</fix>
</trkpt>
<trkpt lat="-27.2744331" lon="151.2900686">
  <ele>349.09</ele>
  <time>2026-09-01T20:03:55Z</time>
  <course>205.14</course>
  <speed>0.6747592163134936</speed>
  <fix>3d</fix>
</trkpt>
<trkpt lat="-27.2744324" lon="151.2900687">
  <ele>349.28</ele>
  <time>2026-09-01T20:03:55Z</time>
  <course>187.73</course>
  <speed>0.89</speed>
  <fix>3d</fix>
</trkpt>
<trkpt lat="-27.2744331" lon="151.2900686">
  <ele>349.09</ele>
  <time>2026-09-01T20:03:55Z</time>
  <course>205.14</course>
  <speed>0.6747592163134936</speed>
  <fix>3d</fix>
</trkpt>
<trkpt lat="-27.2744337" lon="151.2900685">
  <ele>349.04</ele>
  <time>2026-09-01T20:03:55Z</time>
  <course>205.18</course>
  <speed>0.594138031100518</speed>
  <fix>3d</fix>
</trkpt>
<trkpt lat="-27.2744324" lon="151.2900687">
  <ele>349.28</ele>
  <time>2026-09-01T20:03:55Z</time>
  <course>187.73</course>
  <speed>0.89</speed>
  <fix>3d</fix>
</trkpt>
<trkpt lat="-27.2744338" lon="151.2900685">
  <ele>349.04</ele>
  <time>2026-09-01T20:03:55Z</time>
  <course>205.18</course>
  <speed>0.594138031100518</speed>
  <fix>3d</fix>
</trkpt>
<trkpt lat="-27.2744343" lon="151.2900685">
  <ele>348.98</ele>
  <time>2026-09-01T20:03:55Z</time>
  <course>205.15</course>
  <speed>0.5223983154643591</speed>
  <fix>3d</fix>
</trkpt>
<trkpt lat="-27.2744338" lon="151.2900685">
  <ele>349.16</ele>
  <time>2026-09-01T20:03:55Z</time>
  <course>186.78</course>
  <speed>0.73</speed>
  <fix>3d</fix>
</trkpt>
<trkpt lat="-27.2744343" lon="151.2900685">
  <ele>348.98</ele>
  <time>2026-09-01T20:03:55Z</time>
  <course>205.15</course>
  <speed>0.5223983154643591</speed>
  <fix>3d</fix>
</trkpt>
<trkpt lat="-27.2744348" lon="151.2900684">
  <ele>348.93</ele>
  <time>2026-09-01T20:03:55Z</time>
  <course>205.18</course>
  <speed>0.45177427992306074</speed>
  <fix>3d</fix>
</trkpt>
<trkpt lat="-27.2744338" lon="151.2900685">
  <ele>349.16</ele>
  <time>2026-09-01T20:03:55Z</time>
  <course>186.78</course>
  <speed>0.73</speed>
  <fix>3d</fix>
</trkpt>
<trkpt lat="-27.2744348" lon="151.2900684">
  <ele>348.93</ele>
  <time>2026-09-01T20:03:55Z</time>
  <course>205.18</course>
  <speed>0.45177427992306074</speed>
  <fix>3d</fix>
</trkpt>
<trkpt lat="-27.2744353" lon="151.2900684">
  <ele>348.89</ele>
  <time>2026-09-01T20:03:55Z</time>
  <course>205.17</course>
  <speed>0.3911521443121589</speed>
  <fix>3d</fix>
</trkpt>
<trkpt lat="-27.274435" lon="151.2900683">
  <ele>349.06</ele>
  <time>2026-09-01T20:03:55Z</time>
  <course>185.68</course>
  <speed>0.58</speed>
  <fix>3d</fix>
</trkpt>
<trkpt lat="-27.2744353" lon="151.2900684">
  <ele>348.88</ele>
  <time>2026-09-01T20:03:55Z</time>
  <course>205.16</course>
  <speed>0.3911521443121589</speed>
  <fix>3d</fix>
</trkpt>
<trkpt lat="-27.2744356" lon="151.2900683">
  <ele>348.84</ele>
  <time>2026-09-01T20:03:55Z</time>
  <course>205.17</course>
  <speed>0.3301514803843835</speed>
  <fix>3d</fix>
</trkpt>
<trkpt lat="-27.274435" lon="151.2900683">
  <ele>349.06</ele>
  <time>2026-09-01T20:03:55Z</time>
  <course>185.68</course>
  <speed>0.58</speed>
  <fix>3d</fix>
</trkpt>
<trkpt lat="-27.2744356" lon="151.2900683">
  <ele>348.84</ele>
  <time>2026-09-01T20:03:55Z</time>
  <course>205.17</course>
  <speed>0.3301514803843835</speed>
  <fix>3d</fix>
</trkpt>
<trkpt lat="-27.274436" lon="151.2900683">
  <ele>348.8</ele>
  <time>2026-09-01T20:03:55Z</time>
  <course>205.18</course>
  <speed>0.27</speed>
  <fix>3d</fix>
</trkpt>
<trkpt lat="-27.274436" lon="151.2900683">
  <ele>348.96</ele>
  <time>2026-09-01T20:03:55Z</time>
  <course>183.88</course>
  <speed>0.44</speed>
  <fix>3d</fix>
</trkpt>
<trkpt lat="-27.274436" lon="151.2900683">
  <ele>348.8</ele>
  <time>2026-09-01T20:03:55Z</time>
  <course>205.18</course>
  <speed>0.27</speed>
  <fix>3d</fix>
</trkpt>
<trkpt lat="-27.2744363" lon="151.2900683">
  <ele>348.75</ele>
  <time>2026-09-01T20:03:55Z</time>
  <course>205.16</course>
  <speed>0.22</speed>
  <fix>3d</fix>
</trkpt>
<trkpt lat="-27.274436" lon="151.2900683">
  <ele>348.96</ele>
  <time>2026-09-01T20:03:55Z</time>
  <course>183.88</course>
  <speed>0.44</speed>
  <fix>3d</fix>
</trkpt>
<trkpt lat="-27.2744363" lon="151.2900683">
  <ele>348.75</ele>
  <time>2026-09-01T20:03:55Z</time>
  <course>205.16</course>
  <speed>0.21</speed>
  <fix>3d</fix>
</trkpt>
<trkpt lat="-27.2744365" lon="151.2900683">
  <ele>348.71</ele>
  <time>2026-09-01T20:03:55Z</time>
  <course>205.19</course>
  <speed>0.16031219541881397</speed>
  <fix>3d</fix>
</trkpt>
<trkpt lat="-27.2744366" lon="151.2900683">
  <ele>348.87</ele>
  <time>2026-09-01T20:03:55Z</time>
  <course>180.71</course>
  <speed>0.32</speed>
  <fix>3d</fix>
</trkpt>
<trkpt lat="-27.2744365" lon="151.2900683">
  <ele>348.71</ele>
  <time>2026-09-01T20:03:55Z</time>
  <course>205.19</course>
  <speed>0.16031219541881397</speed>
  <fix>3d</fix>
</trkpt>
<trkpt lat="-27.2744367" lon="151.2900683">
  <ele>348.67</ele>
  <time>2026-09-01T20:03:55Z</time>
  <course>205.16</course>
  <speed>0.1118033988749895</speed>
  <fix>3d</fix>
</trkpt>
<trkpt lat="-27.2744366" lon="151.2900683">
  <ele>348.87</ele>
  <time>2026-09-01T20:03:55Z</time>
  <course>180.71</course>
  <speed>0.32</speed>
  <fix>3d</fix>
</trkpt>
<trkpt lat="-27.2744367" lon="151.2900683">
  <ele>348.67</ele>
  <time>2026-09-01T20:03:55Z</time>
  <course>205.16</course>
  <speed>0.1118033988749895</speed>
  <fix>3d</fix>
</trkpt>
<trkpt lat="-27.2744368" lon="151.2900684">
  <ele>348.63</ele>
  <time>2026-09-01T20:03:55Z</time>
  <course>205.19</course>
  <speed>0.0632455532033676</speed>
  <fix>3d</fix>
</trkpt>
<trkpt lat="-27.2744371" lon="151.2900683">
  <ele>348.78</ele>
  <time>2026-09-01T20:03:55Z</time>
  <course>175.75</course>
  <speed>0.21</speed>
  <fix>3d</fix>
</trkpt>
<trkpt lat="-27.2744368" lon="151.2900684">
  <ele>348.62</ele>
  <time>2026-09-01T20:03:55Z</time>
  <course>205.19</course>
  <speed>0.0632455532033676</speed>
  <fix>3d</fix>
</trkpt>
<trkpt lat="-27.2744369" lon="151.2900684">
  <ele>348.58</ele>
  <time>2026-09-01T20:03:55Z</time>
  <course>205.15</course>
  <speed>0.022360679774997897</speed>
  <fix>3d</fix>
</trkpt>
<trkpt lat="-27.2744371" lon="151.2900683">
  <ele>348.78</ele>
  <time>2026-09-01T20:03:55Z</time>
  <course>175.75</course>
  <speed>0.21</speed>
  <fix>3d</fix>
</trkpt>
<trkpt lat="-27.2744369" lon="151.2900684">
  <ele>348.58</ele>
  <time>2026-09-01T20:03:55Z</time>
  <course>205.15</course>
  <speed>0.022360679774997897</speed>
  <fix>3d</fix>
</trkpt>
<trkpt lat="-27.2744369" lon="151.2900684">
  <ele>348.54</ele>
  <time>2026-09-01T20:03:55Z</time>
  <course>205.17</course>
  <speed>0.0282842712474619</speed>
  <fix>3d</fix>
</trkpt>
<trkpt lat="-27.2744373" lon="151.2900683">
  <ele>348.7</ele>
  <time>2026-09-01T20:03:55Z</time>
  <course>166.08</course>
  <speed>0.1</speed>
  <fix>3d</fix>
</trkpt>
<trkpt lat="-27.2744369" lon="151.2900684">
  <ele>348.54</ele>
  <time>2026-09-01T20:03:55Z</time>
  <course>205.17</course>
  <speed>0.03605551275463989</speed>
  <fix>3d</fix>
</trkpt>
<trkpt lat="-27.2744369" lon="151.2900684">
  <ele>348.49</ele>
  <time>2026-09-01T20:03:55Z</time>
  <course>205.15</course>
  <speed>0.07071067811865475</speed>
  <fix>3d</fix>
</trkpt>
<trkpt lat="-27.2744373" lon="151.2900683">
  <ele>348.7</ele>
  <time>2026-09-01T20:03:55Z</time>
  <course>166.08</course>
  <speed>0.1</speed>
  <fix>3d</fix>
</trkpt>
<trkpt lat="-27.2744369" lon="151.2900684">
  <ele>348.49</ele>
  <time>2026-09-01T20:03:55Z</time>
  <course>205.15</course>
  <speed>0.07071067811865475</speed>
  <fix>3d</fix>
</trkpt>
<trkpt lat="-27.274437" lon="151.2900684">
  <ele>348.44</ele>
  <time>2026-09-01T20:03:55Z</time>
  <course>205.18</course>
  <speed>0.1019803902718557</speed>
  <fix>3d</fix>
</trkpt>
<trkpt lat="-27.2744375" lon="151.2900683">
  <ele>348.61</ele>
  <time>2026-09-01T20:03:55Z</time>
  <course>110.68</course>
  <speed>0.02</speed>
  <fix>3d</fix>
</trkpt>
<trkpt lat="-27.274437" lon="151.2900684">
  <ele>348.44</ele>
  <time>2026-09-01T20:03:55Z</time>
  <course>205.19</course>
  <speed>0.1019803902718557</speed>
  <fix>3d</fix>
</trkpt>
<trkpt lat="-27.2744369" lon="151.2900684">
  <ele>348.4</ele>
  <time>2026-09-01T20:03:55Z</time>
  <course>205.25</course>
  <speed>0.13152946437965907</speed>
  <fix>3d</fix>
</trkpt>
<trkpt lat="-27.2744375" lon="151.2900683">
  <ele>348.61</ele>
  <time>2026-09-01T20:03:55Z</time>
  <course>110.68</course>
  <speed>0.02</speed>
  <fix>3d</fix>
</trkpt>
<trkpt lat="-27.2744369" lon="151.2900684">
  <ele>348.4</ele>
  <time>2026-09-01T20:03:55Z</time>
  <course>205.25</course>
  <speed>0.13152946437965907</speed>
  <fix>3d</fix>
</trkpt>
<trkpt lat="-27.2744369" lon="151.2900684">
  <ele>348.35</ele>
  <time>2026-09-01T20:03:55Z</time>
  <course>205.26</course>
  <speed>0.16031219541881397</speed>
  <fix>3d</fix>
</trkpt>
<trkpt lat="-27.2744374" lon="151.2900683">
  <ele>348.52</ele>
  <time>2026-09-01T20:03:55Z</time>
  <course>19.99</course>
  <speed>0.07</speed>
  <fix>3d</fix>
</trkpt>
<trkpt lat="-27.2744369" lon="151.2900684">
  <ele>348.35</ele>
  <time>2026-09-01T20:03:55Z</time>
  <course>205.26</course>
  <speed>0.16031219541881397</speed>
  <fix>3d</fix>
</trkpt>
<trkpt lat="-27.2744367" lon="151.2900684">
  <ele>348.3</ele>
  <time>2026-09-01T20:03:55Z</time>
  <course>205.22</course>
  <speed>0.18027756377319945</speed>
  <fix>3d</fix>
</trkpt>
<trkpt lat="-27.2744374" lon="151.2900683">
  <ele>348.52</ele>
  <time>2026-09-01T20:03:55Z</time>
  <course>19.99</course>
  <speed>0.07</speed>
  <fix>3d</fix>
</trkpt>
<trkpt lat="-27.2744367" lon="151.2900684">
  <ele>348.3</ele>
  <time>2026-09-01T20:03:55Z</time>
  <course>205.22</course>
  <speed>0.19026297590440447</speed>
  <fix>3d</fix>
</trkpt>
<trkpt lat="-27.2744366" lon="151.2900684">
  <ele>348.25</ele>
  <time>2026-09-01T20:03:55Z</time>
  <course>205.23</course>
  <speed>0.2002498439450079</speed>
  <fix>3d</fix>
</trkpt>
<trkpt lat="-27.2744373" lon="151.2900684">
  <ele>348.41</ele>
  <time>2026-09-01T20:03:55Z</time>
  <course>10.63</course>
  <speed>0.13</speed>
  <fix>3d</fix>
</trkpt>
<trkpt lat="-27.2744366" lon="151.2900684">
  <ele>348.25</ele>
  <time>2026-09-01T20:03:55Z</time>
  <course>205.23</course>
  <speed>0.2002498439450079</speed>
  <fix>3d</fix>
</trkpt>
<trkpt lat="-27.2744365" lon="151.2900684">
  <ele>348.2</ele>
  <time>2026-09-01T20:03:55Z</time>
  <course>205.24</course>
  <speed>0.22</speed>
  <fix>3d</fix>
</trkpt>
<trkpt lat="-27.2744373" lon="151.2900684">
  <ele>348.41</ele>
  <time>2026-09-01T20:03:55Z</time>
  <course>10.63</course>
  <speed>0.13</speed>
  <fix>3d</fix>
</trkpt>
<trkpt lat="-27.2744365" lon="151.2900684">
  <ele>348.19</ele>
  <time>2026-09-01T20:03:55Z</time>
  <course>205.24</course>
  <speed>0.22</speed>
  <fix>3d</fix>
</trkpt>
<trkpt lat="-27.2744363" lon="151.2900684">
  <ele>348.14</ele>
  <time>2026-09-01T20:03:55Z</time>
  <course>205.22</course>
  <speed>0.23</speed>
  <fix>3d</fix>
</trkpt>
<trkpt lat="-27.274437" lon="151.2900684">
  <ele>348.32</ele>
  <time>2026-09-01T20:03:55Z</time>
  <course>6.42</course>
  <speed>0.17</speed>
  <fix>3d</fix>
</trkpt>
<trkpt lat="-27.2744363" lon="151.2900684">
  <ele>348.14</ele>
  <time>2026-09-01T20:03:55Z</time>
  <course>205.22</course>
  <speed>0.23</speed>
  <fix>3d</fix>
</trkpt>
<trkpt lat="-27.2744361" lon="151.2900684">
  <ele>348.09</ele>
  <time>2026-09-01T20:03:55Z</time>
  <course>205.22</course>
  <speed>0.24</speed>
  <fix>3d</fix>
</trkpt>
<trkpt lat="-27.274437" lon="151.2900684">
  <ele>348.32</ele>
  <time>2026-09-01T20:03:55Z</time>
  <course>6.42</course>
  <speed>0.17</speed>
  <fix>3d</fix>
</trkpt>
<trkpt lat="-27.2744361" lon="151.2900684">
  <ele>348.09</ele>
  <time>2026-09-01T20:03:55Z</time>
  <course>205.22</course>
  <speed>0.24</speed>
  <fix>3d</fix>
</trkpt>
<trkpt lat="-27.2744359" lon="151.2900684">
  <ele>348.04</ele>
  <time>2026-09-01T20:03:55Z</time>
  <course>205.25</course>
  <speed>0.25</speed>
  <fix>3d</fix>
</trkpt>
<trkpt lat="-27.2744367" lon="151.2900684">
  <ele>348.22</ele>
  <time>2026-09-01T20:03:55Z</time>
  <course>3.32</course>
  <speed>0.2</speed>
  <fix>3d</fix>
</trkpt>
<trkpt lat="-27.2744359" lon="151.2900684">
  <ele>348.04</ele>
  <time>2026-09-01T20:03:55Z</time>
  <course>205.25</course>
  <speed>0.25</speed>
  <fix>3d</fix>
</trkpt>
<trkpt lat="-27.2744358" lon="151.2900684">
  <ele>347.99</ele>
  <time>2026-09-01T20:03:55Z</time>
  <course>205.24</course>
  <speed>0.2601922366251538</speed>
  <fix>3d</fix>
</trkpt>
<trkpt lat="-27.2744367" lon="151.2900684">
  <ele>348.22</ele>
  <time>2026-09-01T20:03:55Z</time>
  <course>3.32</course>
  <speed>0.2</speed>
  <fix>3d</fix>
</trkpt>
<trkpt lat="-27.2744357" lon="151.2900684">
  <ele>347.99</ele>
  <time>2026-09-01T20:03:55Z</time>
  <course>205.24</course>
  <speed>0.2601922366251538</speed>
  <fix>3d</fix>
</trkpt>
<trkpt lat="-27.2744356" lon="151.2900684">
  <ele>347.94</ele>
  <time>2026-09-01T20:03:55Z</time>
  <course>205.2</course>
  <speed>0.260768096208106</speed>
  <fix>3d</fix>
</trkpt>
<trkpt lat="-27.2744363" lon="151.2900685">
  <ele>348.11</ele>
  <time>2026-09-01T20:03:55Z</time>
  <course>0.52</course>
  <speed>0.22</speed>
  <fix>3d</fix>
</trkpt>
<trkpt lat="-27.2744356" lon="151.2900684">
  <ele>347.94</ele>
  <time>2026-09-01T20:03:55Z</time>
  <course>205.2</course>
  <speed>0.260768096208106</speed>
  <fix>3d</fix>
</trkpt>
<trkpt lat="-27.2744354" lon="151.2900684">
  <ele>347.89</ele>
  <time>2026-09-01T20:03:55Z</time>
  <course>205.23</course>
  <speed>0.260768096208106</speed>
  <fix>3d</fix>
</trkpt>
<trkpt lat="-27.2744363" lon="151.2900685">
  <ele>348.11</ele>
  <time>2026-09-01T20:03:55Z</time>
  <course>0.52</course>
  <speed>0.22</speed>
  <fix>3d</fix>
</trkpt>
<trkpt lat="-27.2744354" lon="151.2900684">
  <ele>347.88</ele>
  <time>2026-09-01T20:03:55Z</time>
  <course>205.23</course>
  <speed>0.260768096208106</speed>
  <fix>3d</fix>
</trkpt>
<trkpt lat="-27.2744352" lon="151.2900684">
  <ele>347.83</ele>
  <time>2026-09-01T20:03:55Z</time>
  <course>205.27</course>
  <speed>0.25179356624028343</speed>
  <fix>3d</fix>
</trkpt>
<trkpt lat="-27.2744359" lon="151.2900685">
  <ele>348.01</ele>
  <time>2026-09-01T20:03:55Z</time>
  <course>357.7</course>
  <speed>0.23</speed>
  <fix>3d</fix>
</trkpt>
<trkpt lat="-27.2744352" lon="151.2900684">
  <ele>347.83</ele>
  <time>2026-09-01T20:03:55Z</time>
  <course>205.27</course>
  <speed>0.25179356624028343</speed>
  <fix>3d</fix>
</trkpt>
<trkpt lat="-27.274435" lon="151.2900684">
  <ele>347.78</ele>
  <time>2026-09-01T20:03:55Z</time>
  <course>205.35</course>
  <speed>0.25317977802344327</speed>
  <fix>3d</fix>
</trkpt>
<trkpt lat="-27.2744359" lon="151.2900685">
  <ele>348.01</ele>
  <time>2026-09-01T20:03:55Z</time>
  <course>357.7</course>
  <speed>0.23</speed>
  <fix>3d</fix>
</trkpt>
<trkpt lat="-27.274435" lon="151.2900684">
  <ele>347.78</ele>
  <time>2026-09-01T20:03:55Z</time>
  <course>205.35</course>
  <speed>0.25317977802344327</speed>
  <fix>3d</fix>
</trkpt>
<trkpt lat="-27.2744348" lon="151.2900684">
  <ele>347.73</ele>
  <time>2026-09-01T20:03:55Z</time>
  <course>205.47</course>
  <speed>0.24331050121192876</speed>
  <fix>3d</fix>
</trkpt>
<trkpt lat="-27.2744355" lon="151.2900684">
  <ele>347.9</ele>
  <time>2026-09-01T20:03:55Z</time>
  <course>354.6</course>
  <speed>0.23</speed>
  <fix>3d</fix>
</trkpt>
<trkpt lat="-27.2744348" lon="151.2900684">
  <ele>347.73</ele>
  <time>2026-09-01T20:03:55Z</time>
  <course>205.47</course>
  <speed>0.24331050121192876</speed>
  <fix>3d</fix>
</trkpt>
<trkpt lat="-27.2744346" lon="151.2900683">
  <ele>347.68</ele>
  <time>2026-09-01T20:03:55Z</time>
  <course>205.54</course>
  <speed>0.2353720459187964</speed>
  <fix>3d</fix>
</trkpt>
<trkpt lat="-27.2744355" lon="151.2900684">
  <ele>347.9</ele>
  <time>2026-09-01T20:03:55Z</time>
  <course>354.6</course>
  <speed>0.23</speed>
  <fix>3d</fix>
</trkpt>
<trkpt lat="-27.2744346" lon="151.2900683">
  <ele>347.68</ele>
  <time>2026-09-01T20:03:55Z</time>
  <course>205.54</course>
  <speed>0.2353720459187964</speed>
  <fix>3d</fix>
</trkpt>
<trkpt lat="-27.2744344" lon="151.2900683">
  <ele>347.63</ele>
  <time>2026-09-01T20:03:55Z</time>
  <course>205.55</course>
  <speed>0.22803508501982758</speed>
  <fix>3d</fix>
</trkpt>
<trkpt lat="-27.2744351" lon="151.2900684">
  <ele>347.8</ele>
  <time>2026-09-01T20:03:55Z</time>
  <course>350.92</course>
  <speed>0.22</speed>
  <fix>3d</fix>
</trkpt>
<trkpt lat="-27.2744344" lon="151.2900683">
  <ele>347.63</ele>
  <time>2026-09-01T20:03:55Z</time>
  <course>205.55</course>
  <speed>0.22803508501982758</speed>
  <fix>3d</fix>
</trkpt>
<trkpt lat="-27.2744343" lon="151.2900682">
  <ele>347.58</ele>
  <time>2026-09-01T20:03:55Z</time>
  <course>205.56</course>
  <speed>0.22135943621178655</speed>
  <fix>3d</fix>
</trkpt>
<trkpt lat="-27.2744351" lon="151.2900684">
  <ele>347.8</ele>
  <time>2026-09-01T20:03:55Z</time>
  <course>350.92</course>
  <speed>0.22</speed>
  <fix>3d</fix>
</trkpt>
<trkpt lat="-27.2744343" lon="151.2900682">
  <ele>347.58</ele>
  <time>2026-09-01T20:03:55Z</time>
  <course>205.56</course>
  <speed>0.22135943621178655</speed>
  <fix>3d</fix>
</trkpt>
<trkpt lat="-27.2744341" lon="151.2900681">
  <ele>347.53</ele>
  <time>2026-09-01T20:03:55Z</time>
  <course>205.59</course>
  <speed>0.20615528128088303</speed>
  <fix>3d</fix>
</trkpt>
<trkpt lat="-27.2744347" lon="151.2900683">
  <ele>347.7</ele>
  <time>2026-09-01T20:03:55Z</time>
  <course>345.99</course>
  <speed>0.21</speed>
  <fix>3d</fix>
</trkpt>
<trkpt lat="-27.2744341" lon="151.2900681">
  <ele>347.53</ele>
  <time>2026-09-01T20:03:55Z</time>
  <course>205.59</course>
  <speed>0.20615528128088303</speed>
  <fix>3d</fix>
</trkpt>
<trkpt lat="-27.274434" lon="151.2900681">
  <ele>347.48</ele>
  <time>2026-09-01T20:03:55Z</time>
  <course>205.56</course>
  <speed>0.18788294228055935</speed>
  <fix>3d</fix>
</trkpt>
<trkpt lat="-27.2744347" lon="151.2900683">
  <ele>347.7</ele>
  <time>2026-09-01T20:03:55Z</time>
  <course>345.99</course>
  <speed>0.21</speed>
  <fix>3d</fix>
</trkpt>
<trkpt lat="-27.274434" lon="151.2900681">
  <ele>347.48</ele>
  <time>2026-09-01T20:03:55Z</time>
  <course>205.56</course>
  <speed>0.19235384061671343</speed>
  <fix>3d</fix>
</trkpt>
<trkpt lat="-27.2744339" lon="151.290068">
  <ele>347.43</ele>
  <time>2026-09-01T20:03:55Z</time>
  <course>205.48</course>
  <speed>0.17492855684535902</speed>
  <fix>3d</fix>
</trkpt>
<trkpt lat="-27.2744343" lon="151.2900682">
  <ele>347.59</ele>
  <time>2026-09-01T20:03:55Z</time>
  <course>338.82</course>
  <speed>0.18</speed>
  <fix>3d</fix>
</trkpt>
<trkpt lat="-27.2744339" lon="151.290068">
  <ele>347.43</ele>
  <time>2026-09-01T20:03:55Z</time>
  <course>205.48</course>
  <speed>0.17492855684535902</speed>
  <fix>3d</fix>
</trkpt>
<trkpt lat="-27.2744338" lon="151.2900679">
  <ele>347.38</ele>
  <time>2026-09-01T20:03:55Z</time>
  <course>205.37</course>
  <speed>0.16401219466856726</speed>
  <fix>3d</fix>
</trkpt>
<trkpt lat="-27.2744343" lon="151.2900682">
  <ele>347.59</ele>
  <time>2026-09-01T20:03:55Z</time>
  <course>338.82</course>
  <speed>0.18</speed>
  <fix>3d</fix>
</trkpt>
<trkpt lat="-27.2744338" lon="151.2900679">
  <ele>347.38</ele>
  <time>2026-09-01T20:03:55Z</time>
  <course>205.37</course>
  <speed>0.16401219466856726</speed>
  <fix>3d</fix>
</trkpt>
<trkpt lat="-27.2744337" lon="151.2900678">
  <ele>347.33</ele>
  <time>2026-09-01T20:03:55Z</time>
  <course>205.32</course>
  <speed>0.15556349186104046</speed>
  <fix>3d</fix>
</trkpt>
<trkpt lat="-27.2744341" lon="151.290068">
  <ele>347.5</ele>
  <time>2026-09-01T20:03:55Z</time>
  <course>327.93</course>
  <speed>0.16</speed>
  <fix>3d</fix>
</trkpt>
<trkpt lat="-27.2744337" lon="151.2900678">
  <ele>347.33</ele>
  <time>2026-09-01T20:03:55Z</time>
  <course>205.31</course>
  <speed>0.15556349186104046</speed>
  <fix>3d</fix>
</trkpt>
<trkpt lat="-27.2744336" lon="151.2900677">
  <ele>347.28</ele>
  <time>2026-09-01T20:03:55Z</time>
  <course>205.27</course>
  <speed>0.14422205101855956</speed>
  <fix>3d</fix>
</trkpt>
<trkpt lat="-27.2744341" lon="151.290068">
  <ele>347.5</ele>
  <time>2026-09-01T20:03:55Z</time>
  <course>327.93</course>
  <speed>0.16</speed>
  <fix>3d</fix>
</trkpt>
<trkpt lat="-27.2744336" lon="151.2900677">
  <ele>347.28</ele>
  <time>2026-09-01T20:03:55Z</time>
  <course>205.27</course>
  <speed>0.14422205101855956</speed>
  <fix>3d</fix>
</trkpt>
<trkpt lat="-27.2744336" lon="151.2900675">
  <ele>347.23</ele>
  <time>2026-09-01T20:03:55Z</time>
  <course>205.2</course>
  <speed>0.14317821063276354</speed>
  <fix>3d</fix>
</trkpt>
<trkpt lat="-27.2744339" lon="151.2900679">
  <ele>347.4</ele>
  <time>2026-09-01T20:03:55Z</time>
  <course>311.43</course>
  <speed>0.14</speed>
  <fix>3d</fix>
</trkpt>
<trkpt lat="-27.2744336" lon="151.2900675">
  <ele>347.23</ele>
  <time>2026-09-01T20:03:55Z</time>
  <course>205.19</course>
  <speed>0.14317821063276354</speed>
  <fix>3d</fix>
</trkpt>
<trkpt lat="-27.2744335" lon="151.2900674">
  <ele>347.18</ele>
  <time>2026-09-01T20:03:55Z</time>
  <course>205.18</course>
  <speed>0.14317821063276354</speed>
  <fix>3d</fix>
</trkpt>
<trkpt lat="-27.2744339" lon="151.2900679">
  <ele>347.4</ele>
  <time>2026-09-01T20:03:55Z</time>
  <course>311.43</course>
  <speed>0.14</speed>
  <fix>3d</fix>
</trkpt>
<trkpt lat="-27.2744336" lon="151.2900674">
  <ele>347.18</ele>
  <time>2026-09-01T20:03:55Z</time>
  <course>205.18</course>
  <speed>0.14317821063276354</speed>
  <fix>3d</fix>
</trkpt>
<trkpt lat="-27.2744336" lon="151.2900673">
  <ele>347.13</ele>
  <time>2026-09-01T20:03:55Z</time>
  <course>205.22</course>
  <speed>0.15</speed>
  <fix>3d</fix>
</trkpt>
<trkpt lat="-27.2744337" lon="151.2900677">
  <ele>347.3</ele>
  <time>2026-09-01T20:03:55Z</time>
  <course>289.51</course>
  <speed>0.13</speed>
  <fix>3d</fix>
</trkpt>
<trkpt lat="-27.2744336" lon="151.2900673">
  <ele>347.13</ele>
  <time>2026-09-01T20:03:55Z</time>
  <course>205.22</course>
  <speed>0.15</speed>
  <fix>3d</fix>
</trkpt>
<trkpt lat="-27.2744336" lon="151.2900671">
  <ele>347.08</ele>
  <time>2026-09-01T20:03:55Z</time>
  <course>205.28</course>
  <speed>0.16031219541881397</speed>
  <fix>3d</fix>
</trkpt>
<trkpt lat="-27.2744337" lon="151.2900677">
  <ele>347.3</ele>
  <time>2026-09-01T20:03:55Z</time>
  <course>289.51</course>
  <speed>0.13</speed>
  <fix>3d</fix>
</trkpt>
<trkpt lat="-27.2744336" lon="151.2900671">
  <ele>347.08</ele>
  <time>2026-09-01T20:03:55Z</time>
  <course>205.29</course>
  <speed>0.16031219541881397</speed>
  <fix>3d</fix>
</trkpt>
<trkpt lat="-27.2744336" lon="151.290067">
  <ele>347.03</ele>
  <time>2026-09-01T20:03:55Z</time>
  <course>205.34</course>
  <speed>0.17464249196572978</speed>
  <fix>3d</fix>
</trkpt>
<trkpt lat="-27.2744337" lon="151.2900674">
  <ele>347.2</ele>
  <time>2026-09-01T20:03:55Z</time>
  <course>267.2</course>
  <speed>0.14</speed>
  <fix>3d</fix>
</trkpt>
<trkpt lat="-27.2744336" lon="151.290067">
  <ele>347.03</ele>
  <time>2026-09-01T20:03:55Z</time>
  <course>205.34</course>
  <speed>0.17464249196572978</speed>
  <fix>3d</fix>
</trkpt>
<trkpt lat="-27.2744337" lon="151.2900668">
  <ele>346.98</ele>
  <time>2026-09-01T20:03:55Z</time>
  <course>205.3</course>
  <speed>0.18027756377319945</speed>
  <fix>3d</fix>
</trkpt>
<trkpt lat="-27.2744337" lon="151.2900674">
  <ele>347.2</ele>
  <time>2026-09-01T20:03:55Z</time>
  <course>267.2</course>
  <speed>0.14</speed>
  <fix>3d</fix>
</trkpt>
<trkpt lat="-27.2744337" lon="151.2900668">
  <ele>346.98</ele>
  <time>2026-09-01T20:03:55Z</time>
  <course>205.3</course>
  <speed>0.18027756377319945</speed>
  <fix>3d</fix>
</trkpt>
<trkpt lat="-27.2744338" lon="151.2900667">
  <ele>346.93</ele>
  <time>2026-09-01T20:03:55Z</time>
  <course>205.26</course>
  <speed>0.19697715603592209</speed>
  <fix>3d</fix>
</trkpt>
<trkpt lat="-27.2744337" lon="151.290067">
  <ele>347.09</ele>
  <time>2026-09-01T20:03:55Z</time>
  <course>250.18</course>
  <speed>0.16</speed>
  <fix>3d</fix>
</trkpt>
<trkpt lat="-27.2744338" lon="151.2900667">
  <ele>346.93</ele>
  <time>2026-09-01T20:03:55Z</time>
  <course>205.26</course>
  <speed>0.19697715603592209</speed>
  <fix>3d</fix>
</trkpt>
<trkpt lat="-27.2744338" lon="151.2900665">
  <ele>346.88</ele>
  <time>2026-09-01T20:03:55Z</time>
  <course>205.23</course>
  <speed>0.20591260281974003</speed>
  <fix>3d</fix>
</trkpt>
<trkpt lat="-27.2744337" lon="151.290067">
  <ele>347.09</ele>
  <time>2026-09-01T20:03:55Z</time>
  <course>250.18</course>
  <speed>0.16</speed>
  <fix>3d</fix>
</trkpt>
<trkpt lat="-27.2744338" lon="151.2900665">
  <ele>346.88</ele>
  <time>2026-09-01T20:03:55Z</time>
  <course>205.23</course>
  <speed>0.20591260281974003</speed>
  <fix>3d</fix>
</trkpt>
<trkpt lat="-27.2744339" lon="151.2900663">
  <ele>346.83</ele>
  <time>2026-09-01T20:03:55Z</time>
  <course>205.22</course>
  <speed>0.22472205054244232</speed>
  <fix>3d</fix>
</trkpt>
<trkpt lat="-27.2744338" lon="151.2900667">
  <ele>346.99</ele>
  <time>2026-09-01T20:03:55Z</time>
  <course>238.81</course>
  <speed>0.19</speed>
  <fix>3d</fix>
</trkpt>
<trkpt lat="-27.2744339" lon="151.2900663">
  <ele>346.82</ele>
  <time>2026-09-01T20:03:55Z</time>
  <course>205.22</course>
  <speed>0.22472205054244232</speed>
  <fix>3d</fix>
</trkpt>
<trkpt lat="-27.274434" lon="151.2900661">
  <ele>346.78</ele>
  <time>2026-09-01T20:03:56Z</time>
  <course>205.22</course>
  <speed>0.23600847442411893</speed>
  <fix>3d</fix>
</trkpt>
<trkpt lat="-27.2744338" lon="151.2900667">
  <ele>346.99</ele>
  <time>2026-09-01T20:03:56Z</time>
  <course>238.81</course>
  <speed>0.19</speed>
  <fix>3d</fix>
</trkpt>
<trkpt lat="-27.274434" lon="151.2900661">
  <ele>346.77</ele>
  <time>2026-09-01T20:03:56Z</time>
  <course>205.22</course>
  <speed>0.23600847442411893</speed>
  <fix>3d</fix>
</trkpt>
<trkpt lat="-27.2744342" lon="151.290066">
  <ele>346.72</ele>
  <time>2026-09-01T20:03:56Z</time>
  <course>205.2</course>
  <speed>0.24839484696748443</speed>
  <fix>3d</fix>
</trkpt>
<trkpt lat="-27.274434" lon="151.2900664">
  <ele>346.89</ele>
  <time>2026-09-01T20:03:56Z</time>
  <course>231.08</course>
  <speed>0.22</speed>
  <fix>3d</fix>
</trkpt>
<trkpt lat="-27.2744342" lon="151.2900659">
  <ele>346.72</ele>
  <time>2026-09-01T20:03:56Z</time>
  <course>205.2</course>
  <speed>0.24839484696748443</speed>
  <fix>3d</fix>
</trkpt>
<trkpt lat="-27.2744343" lon="151.2900658">
  <ele>346.67</ele>
  <time>2026-09-01T20:03:56Z</time>
  <course>205.13</course>
  <speed>0.25495097567963926</speed>
  <fix>3d</fix>
</trkpt>
<trkpt lat="-27.274434" lon="151.2900664">
  <ele>346.89</ele>
  <time>2026-09-01T20:03:56Z</time>
  <course>231.08</course>
  <speed>0.22</speed>
  <fix>3d</fix>
</trkpt>
<trkpt lat="-27.2744343" lon="151.2900658">
  <ele>346.67</ele>
  <time>2026-09-01T20:03:56Z</time>
  <course>205.13</course>
  <speed>0.25495097567963926</speed>
  <fix>3d</fix>
</trkpt>
<trkpt lat="-27.2744345" lon="151.2900656">
  <ele>346.62</ele>
  <time>2026-09-01T20:03:56Z</time>
  <course>205.07</course>
  <speed>0.261725046566048</speed>
  <fix>3d</fix>
</trkpt>
<trkpt lat="-27.2744343" lon="151.290066">
  <ele>346.78</ele>
  <time>2026-09-01T20:03:56Z</time>
  <course>225.57</course>
  <speed>0.25</speed>
  <fix>3d</fix>
</trkpt>
<trkpt lat="-27.2744345" lon="151.2900656">
  <ele>346.62</ele>
  <time>2026-09-01T20:03:56Z</time>
  <course>205.07</course>
  <speed>0.261725046566048</speed>
  <fix>3d</fix>
</trkpt>
<trkpt lat="-27.2744347" lon="151.2900654">
  <ele>346.57</ele>
  <time>2026-09-01T20:03:56Z</time>
  <course>205.02</course>
  <speed>0.261725046566048</speed>
  <fix>3d</fix>
</trkpt>
<trkpt lat="-27.2744343" lon="151.290066">
  <ele>346.78</ele>
  <time>2026-09-01T20:03:56Z</time>
  <course>225.57</course>
  <speed>0.25</speed>
  <fix>3d</fix>
</trkpt>
<trkpt lat="-27.2744347" lon="151.2900654">
  <ele>346.57</ele>
  <time>2026-09-01T20:03:56Z</time>
  <course>205.02</course>
  <speed>0.261725046566048</speed>
  <fix>3d</fix>
</trkpt>
<trkpt lat="-27.2744349" lon="151.2900652">
  <ele>346.52</ele>
  <time>2026-09-01T20:03:56Z</time>
  <course>204.98</course>
  <speed>0.261725046566048</speed>
  <fix>3d</fix>
</trkpt>
<trkpt lat="-27.2744347" lon="151.2900657">
  <ele>346.69</ele>
  <time>2026-09-01T20:03:56Z</time>
  <course>221.46</course>
  <speed>0.26</speed>
  <fix>3d</fix>
</trkpt>
<trkpt lat="-27.2744349" lon="151.2900652">
  <ele>346.52</ele>
  <time>2026-09-01T20:03:56Z</time>
  <course>204.98</course>
  <speed>0.261725046566048</speed>
  <fix>3d</fix>
</trkpt>
<trkpt lat="-27.274435" lon="151.2900651">
  <ele>346.47</ele>
  <time>2026-09-01T20:03:56Z</time>
  <course>204.95</course>
  <speed>0.25495097567963926</speed>
  <fix>3d</fix>
</trkpt>
<trkpt lat="-27.2744347" lon="151.2900657">
  <ele>346.69</ele>
  <time>2026-09-01T20:03:56Z</time>
  <course>221.46</course>
  <speed>0.26</speed>
  <fix>3d</fix>
</trkpt>
<trkpt lat="-27.274435" lon="151.2900651">
  <ele>346.47</ele>
  <time>2026-09-01T20:03:56Z</time>
  <course>204.95</course>
  <speed>0.25495097567963926</speed>
  <fix>3d</fix>
</trkpt>
<trkpt lat="-27.2744352" lon="151.2900649">
  <ele>346.42</ele>
  <time>2026-09-01T20:03:56Z</time>
  <course>204.93</course>
  <speed>0.24839484696748443</speed>
  <fix>3d</fix>
</trkpt>
<trkpt lat="-27.274435" lon="151.2900653">
  <ele>346.59</ele>
  <time>2026-09-01T20:03:56Z</time>
  <course>218.19</course>
  <speed>0.27</speed>
  <fix>3d</fix>
</trkpt>
<trkpt lat="-27.2744352" lon="151.2900649">
  <ele>346.42</ele>
  <time>2026-09-01T20:03:56Z</time>
  <course>204.93</course>
  <speed>0.24839484696748443</speed>
  <fix>3d</fix>
</trkpt>
<trkpt lat="-27.2744354" lon="151.2900648">
  <ele>346.37</ele>
  <time>2026-09-01T20:03:56Z</time>
  <course>204.92</course>
  <speed>0.23430749027719963</speed>
  <fix>3d</fix>
</trkpt>
<trkpt lat="-27.274435" lon="151.2900653">
  <ele>346.59</ele>
  <time>2026-09-01T20:03:56Z</time>
  <course>218.19</course>
  <speed>0.27</speed>
  <fix>3d</fix>
</trkpt>
<trkpt lat="-27.2744354" lon="151.2900648">
  <ele>346.37</ele>
  <time>2026-09-01T20:03:56Z</time>
  <course>204.92</course>
  <speed>0.23430749027719963</speed>
  <fix>3d</fix>
</trkpt>
<trkpt lat="-27.2744356" lon="151.2900646">
  <ele>346.32</ele>
  <time>2026-09-01T20:03:56Z</time>
  <course>204.93</course>
  <speed>0.22803508501982758</speed>
  <fix>3d</fix>
</trkpt>
<trkpt lat="-27.2744354" lon="151.290065">
  <ele>346.49</ele>
  <time>2026-09-01T20:03:56Z</time>
  <course>215.28</course>
  <speed>0.26</speed>
  <fix>3d</fix>
</trkpt>
<trkpt lat="-27.2744356" lon="151.2900646">
  <ele>346.32</ele>
  <time>2026-09-01T20:03:56Z</time>
  <course>204.93</course>
  <speed>0.22803508501982758</speed>
  <fix>3d</fix>
</trkpt>
<trkpt lat="-27.2744358" lon="151.2900645">
  <ele>346.27</ele>
  <time>2026-09-01T20:03:56Z</time>
  <course>205.06</course>
  <speed>0.21400934559032694</speed>
  <fix>3d</fix>
</trkpt>
<trkpt lat="-27.2744354" lon="151.290065">
  <ele>346.49</ele>
  <time>2026-09-01T20:03:56Z</time>
  <course>215.28</course>
  <speed>0.26</speed>
  <fix>3d</fix>
</trkpt>
<trkpt lat="-27.2744358" lon="151.2900645">
  <ele>346.27</ele>
  <time>2026-09-01T20:03:56Z</time>
  <course>205.06</course>
  <speed>0.21400934559032694</speed>
  <fix>3d</fix>
</trkpt>
<trkpt lat="-27.2744359" lon="151.2900644">
  <ele>346.23</ele>
  <time>2026-09-01T20:03:56Z</time>
  <course>205.14</course>
  <speed>0.20248456731316586</speed>
  <fix>3d</fix>
</trkpt>
<trkpt lat="-27.2744358" lon="151.2900647">
  <ele>346.39</ele>
  <time>2026-09-01T20:03:56Z</time>
  <course>212.34</course>
  <speed>0.24</speed>
  <fix>3d</fix>
</trkpt>
<trkpt lat="-27.2744359" lon="151.2900644">
  <ele>346.22</ele>
  <time>2026-09-01T20:03:56Z</time>
  <course>205.14</course>
  <speed>0.20248456731316586</speed>
  <fix>3d</fix>
</trkpt>
<trkpt lat="-27.2744361" lon="151.2900643">
  <ele>346.18</ele>
  <time>2026-09-01T20:03:56Z</time>
  <course>205.1</course>
  <speed>0.18867962264113206</speed>
  <fix>3d</fix>
</trkpt>
<trkpt lat="-27.2744358" lon="151.2900647">
  <ele>346.39</ele>
  <time>2026-09-01T20:03:56Z</time>
  <course>212.34</course>
  <speed>0.24</speed>
  <fix>3d</fix>
</trkpt>
<trkpt lat="-27.2744361" lon="151.2900643">
  <ele>346.17</ele>
  <time>2026-09-01T20:03:56Z</time>
  <course>205.1</course>
  <speed>0.18867962264113206</speed>
  <fix>3d</fix>
</trkpt>
<trkpt lat="-27.2744363" lon="151.2900642">
  <ele>346.13</ele>
  <time>2026-09-01T20:03:56Z</time>
  <course>205.12</course>
  <speed>0.17492855684535902</speed>
  <fix>3d</fix>
</trkpt>
<trkpt lat="-27.2744361" lon="151.2900645">
  <ele>346.29</ele>
  <time>2026-09-01T20:03:56Z</time>
  <course>209.11</course>
  <speed>0.22</speed>
  <fix>3d</fix>
</trkpt>
<trkpt lat="-27.2744363" lon="151.2900642">
  <ele>346.13</ele>
  <time>2026-09-01T20:03:56Z</time>
  <course>205.12</course>
  <speed>0.17492855684535902</speed>
  <fix>3d</fix>
</trkpt>
<trkpt lat="-27.2744364" lon="151.2900641">
  <ele>346.08</ele>
  <time>2026-09-01T20:03:56Z</time>
  <course>205.14</course>
  <speed>0.16124515496597097</speed>
  <fix>3d</fix>
</trkpt>
<trkpt lat="-27.2744361" lon="151.2900645">
  <ele>346.29</ele>
  <time>2026-09-01T20:03:56Z</time>
  <course>209.11</course>
  <speed>0.22</speed>
  <fix>3d</fix>
</trkpt>
<trkpt lat="-27.2744364" lon="151.2900641">
  <ele>346.08</ele>
  <time>2026-09-01T20:03:56Z</time>
  <course>205.14</course>
  <speed>0.16124515496597097</speed>
  <fix>3d</fix>
</trkpt>
<trkpt lat="-27.2744366" lon="151.2900641">
  <ele>346.03</ele>
  <time>2026-09-01T20:03:56Z</time>
  <course>205.11</course>
  <speed>0.15652475842498528</speed>
  <fix>3d</fix>
</trkpt>
<trkpt lat="-27.2744365" lon="151.2900642">
  <ele>346.2</ele>
  <time>2026-09-01T20:03:56Z</time>
  <course>205.43</course>
  <speed>0.2</speed>
  <fix>3d</fix>
</trkpt>
<trkpt lat="-27.2744366" lon="151.2900641">
  <ele>346.03</ele>
  <time>2026-09-01T20:03:56Z</time>
  <course>205.11</course>
  <speed>0.15652475842498528</speed>
  <fix>3d</fix>
</trkpt>
<trkpt lat="-27.2744367" lon="151.290064">
  <ele>345.98</ele>
  <time>2026-09-01T20:03:56Z</time>
  <course>205.15</course>
  <speed>0.14317821063276354</speed>
  <fix>3d</fix>
</trkpt>
<trkpt lat="-27.2744365" lon="151.2900642">
  <ele>346.2</ele>
  <time>2026-09-01T20:03:56Z</time>
  <course>205.43</course>
  <speed>0.2</speed>
  <fix>3d</fix>
</trkpt>
<trkpt lat="-27.2744367" lon="151.290064">
  <ele>345.98</ele>
  <time>2026-09-01T20:03:56Z</time>
  <course>205.15</course>
  <speed>0.14317821063276354</speed>
  <fix>3d</fix>
</trkpt>
<trkpt lat="-27.2744368" lon="151.2900639">
  <ele>345.93</ele>
  <time>2026-09-01T20:03:56Z</time>
  <course>205.11</course>
  <speed>0.13</speed>
  <fix>3d</fix>
</trkpt>
<trkpt lat="-27.2744368" lon="151.2900641">
  <ele>346.09</ele>
  <time>2026-09-01T20:03:56Z</time>
  <course>201.12</course>
  <speed>0.18</speed>
  <fix>3d</fix>
</trkpt>
<trkpt lat="-27.2744368" lon="151.2900639">
  <ele>345.93</ele>
  <time>2026-09-01T20:03:56Z</time>
  <course>205.11</course>
  <speed>0.13</speed>
  <fix>3d</fix>
</trkpt>
<trkpt lat="-27.274437" lon="151.2900639">
  <ele>345.88</ele>
  <time>2026-09-01T20:03:56Z</time>
  <course>205.15</course>
  <speed>0.1264911064067352</speed>
  <fix>3d</fix>
</trkpt>
<trkpt lat="-27.2744368" lon="151.2900641">
  <ele>346.09</ele>
  <time>2026-09-01T20:03:56Z</time>
  <course>201.12</course>
  <speed>0.18</speed>
  <fix>3d</fix>
</trkpt>
<trkpt lat="-27.274437" lon="151.2900639">
  <ele>345.88</ele>
  <time>2026-09-01T20:03:56Z</time>
  <course>205.15</course>
  <speed>0.1264911064067352</speed>
  <fix>3d</fix>
</trkpt>
<trkpt lat="-27.2744371" lon="151.2900639">
  <ele>345.83</ele>
  <time>2026-09-01T20:03:56Z</time>
  <course>205.13</course>
  <speed>0.11401754250991379</speed>
  <fix>3d</fix>
</trkpt>
<trkpt lat="-27.2744371" lon="151.290064">
  <ele>346.0</ele>
  <time>2026-09-01T20:03:56Z</time>
  <course>196.15</course>
  <speed>0.16</speed>
  <fix>3d</fix>
</trkpt>
<trkpt lat="-27.2744371" lon="151.2900639">
  <ele>345.83</ele>
  <time>2026-09-01T20:03:56Z</time>
  <course>205.13</course>
  <speed>0.11401754250991379</speed>
  <fix>3d</fix>
</trkpt>
<trkpt lat="-27.2744372" lon="151.2900639">
  <ele>345.78</ele>
  <time>2026-09-01T20:03:56Z</time>
  <course>205.13</course>
  <speed>0.1019803902718557</speed>
  <fix>3d</fix>
</trkpt>
<trkpt lat="-27.2744371" lon="151.290064">
  <ele>346.0</ele>
  <time>2026-09-01T20:03:56Z</time>
  <course>196.15</course>
  <speed>0.16</speed>
  <fix>3d</fix>
</trkpt>
<trkpt lat="-27.2744372" lon="151.2900638">
  <ele>345.78</ele>
  <time>2026-09-01T20:03:56Z</time>
  <course>205.13</course>
  <speed>0.1019803902718557</speed>
  <fix>3d</fix>
</trkpt>
<trkpt lat="-27.2744373" lon="151.2900638">
  <ele>345.74</ele>
  <time>2026-09-01T20:03:56Z</time>
  <course>205.14</course>
  <speed>0.1004987562112089</speed>
  <fix>3d</fix>
</trkpt>
<trkpt lat="-27.2744373" lon="151.2900639">
  <ele>345.9</ele>
  <time>2026-09-01T20:03:56Z</time>
  <course>190.43</course>
  <speed>0.14</speed>
  <fix>3d</fix>
</trkpt>
<trkpt lat="-27.2744373" lon="151.2900638">
  <ele>345.73</ele>
  <time>2026-09-01T20:03:56Z</time>
  <course>205.14</course>
  <speed>0.1004987562112089</speed>
  <fix>3d</fix>
</trkpt>
<trkpt lat="-27.2744374" lon="151.2900638">
  <ele>345.69</ele>
  <time>2026-09-01T20:03:56Z</time>
  <course>205.11</course>
  <speed>0.09055385138137417</speed>
  <fix>3d</fix>
</trkpt>
<trkpt lat="-27.2744373" lon="151.2900639">
  <ele>345.9</ele>
  <time>2026-09-01T20:03:56Z</time>
  <course>190.43</course>
  <speed>0.14</speed>
  <fix>3d</fix>
</trkpt>
<trkpt lat="-27.2744374" lon="151.2900638">
  <ele>345.68</ele>
  <time>2026-09-01T20:03:56Z</time>
  <course>205.12</course>
  <speed>0.09055385138137417</speed>
  <fix>3d</fix>
</trkpt>
<trkpt lat="-27.2744375" lon="151.2900638">
  <ele>345.64</ele>
  <time>2026-09-01T20:03:56Z</time>
  <course>205.15</course>
  <speed>0.08</speed>
  <fix>3d</fix>
</trkpt>
<trkpt lat="-27.2744376" lon="151.2900639">
  <ele>345.8</ele>
  <time>2026-09-01T20:03:56Z</time>
  <course>183.86</course>
  <speed>0.12</speed>
  <fix>3d</fix>
</trkpt>
<trkpt lat="-27.2744375" lon="151.2900638">
  <ele>345.63</ele>
  <time>2026-09-01T20:03:56Z</time>
  <course>205.15</course>
  <speed>0.08</speed>
  <fix>3d</fix>
</trkpt>
<trkpt lat="-27.2744376" lon="151.2900638">
  <ele>345.59</ele>
  <time>2026-09-01T20:03:56Z</time>
  <course>205.11</course>
  <speed>0.07</speed>
  <fix>3d</fix>
</trkpt>
<trkpt lat="-27.2744376" lon="151.2900639">
  <ele>345.8</ele>
  <time>2026-09-01T20:03:56Z</time>
  <course>183.86</course>
  <speed>0.12</speed>
  <fix>3d</fix>
</trkpt>
<trkpt lat="-27.2744376" lon="151.2900638">
  <ele>345.58</ele>
  <time>2026-09-01T20:03:56Z</time>
  <course>205.11</course>
  <speed>0.07</speed>
  <fix>3d</fix>
</trkpt>
<trkpt lat="-27.2744377" lon="151.2900639">
  <ele>345.53</ele>
  <time>2026-09-01T20:03:56Z</time>
  <course>205.14</course>
  <speed>0.07</speed>
  <fix>3d</fix>
</trkpt>
<trkpt lat="-27.2744378" lon="151.2900639">
  <ele>345.7</ele>
  <time>2026-09-01T20:03:56Z</time>
  <course>176.48</course>
  <speed>0.11</speed>
  <fix>3d</fix>
</trkpt>
<trkpt lat="-27.2744377" lon="151.2900639">
  <ele>345.53</ele>
  <time>2026-09-01T20:03:56Z</time>
  <course>205.14</course>
  <speed>0.07</speed>
  <fix>3d</fix>
</trkpt>
<trkpt lat="-27.2744378" lon="151.2900639">
  <ele>345.48</ele>
  <time>2026-09-01T20:03:56Z</time>
  <course>205.12</course>
  <speed>0.06082762530298219</speed>
  <fix>3d</fix>
</trkpt>
<trkpt lat="-27.2744378" lon="151.2900639">
  <ele>345.7</ele>
  <time>2026-09-01T20:03:56Z</time>
  <course>176.48</course>
  <speed>0.11</speed>
  <fix>3d</fix>
</trkpt>
<trkpt lat="-27.2744378" lon="151.2900639">
  <ele>345.48</ele>
  <time>2026-09-01T20:03:56Z</time>
  <course>205.12</course>
  <speed>0.06082762530298219</speed>
  <fix>3d</fix>
</trkpt>
<trkpt lat="-27.2744379" lon="151.2900639">
  <ele>345.43</ele>
  <time>2026-09-01T20:03:56Z</time>
  <course>205.12</course>
  <speed>0.0632455532033676</speed>
  <fix>3d</fix>
</trkpt>
<trkpt lat="-27.2744379" lon="151.2900639">
  <ele>345.59</ele>
  <time>2026-09-01T20:03:56Z</time>
  <course>168.47</course>
  <speed>0.1</speed>
  <fix>3d</fix>
</trkpt>
<trkpt lat="-27.2744379" lon="151.2900639">
  <ele>345.43</ele>
  <time>2026-09-01T20:03:56Z</time>
  <course>205.12</course>
  <speed>0.053851648071345036</speed>
  <fix>3d</fix>
</trkpt>
<trkpt lat="-27.2744379" lon="151.2900639">
  <ele>345.38</ele>
  <time>2026-09-01T20:03:56Z</time>
  <course>205.14</course>
  <speed>0.053851648071345036</speed>
  <fix>3d</fix>
</trkpt>
<trkpt lat="-27.2744379" lon="151.2900639">
  <ele>345.59</ele>
  <time>2026-09-01T20:03:56Z</time>
  <course>168.47</course>
  <speed>0.1</speed>
  <fix>3d</fix>
</trkpt>
<trkpt lat="-27.2744379" lon="151.2900639">
  <ele>345.38</ele>
  <time>2026-09-01T20:03:56Z</time>
  <course>205.13</course>
  <speed>0.053851648071345036</speed>
  <fix>3d</fix>
</trkpt>
<trkpt lat="-27.274438" lon="151.2900639">
  <ele>345.33</ele>
  <time>2026-09-01T20:03:56Z</time>
  <course>205.11</course>
  <speed>0.044721359549995794</speed>
  <fix>3d</fix>
</trkpt>
<trkpt lat="-27.2744382" lon="151.2900639">
  <ele>345.5</ele>
  <time>2026-09-01T20:03:56Z</time>
  <course>160.11</course>
  <speed>0.09</speed>
  <fix>3d</fix>
</trkpt>
<trkpt lat="-27.274438" lon="151.2900639">
  <ele>345.33</ele>
  <time>2026-09-01T20:03:56Z</time>
  <course>205.11</course>
  <speed>0.044721359549995794</speed>
  <fix>3d</fix>
</trkpt>
<trkpt lat="-27.2744381" lon="151.2900639">
  <ele>345.28</ele>
  <time>2026-09-01T20:03:56Z</time>
  <course>205.15</course>
  <speed>0.05</speed>
  <fix>3d</fix>
</trkpt>
<trkpt lat="-27.2744382" lon="151.2900639">
  <ele>345.5</ele>
  <time>2026-09-01T20:03:56Z</time>
  <course>160.11</course>
  <speed>0.09</speed>
  <fix>3d</fix>
</trkpt>
<trkpt lat="-27.2744381" lon="151.2900639">
  <ele>345.28</ele>
  <time>2026-09-01T20:03:56Z</time>
  <course>205.15</course>
  <speed>0.05</speed>
  <fix>3d</fix>
</trkpt>
<trkpt lat="-27.2744381" lon="151.290064">
  <ele>345.23</ele>
  <time>2026-09-01T20:03:56Z</time>
  <course>205.11</course>
  <speed>0.04242640687119285</speed>
  <fix>3d</fix>
</trkpt>
<trkpt lat="-27.2744383" lon="151.2900639">
  <ele>345.39</ele>
  <time>2026-09-01T20:03:56Z</time>
  <course>151.74</course>
  <speed>0.08</speed>
  <fix>3d</fix>
</trkpt>
<trkpt lat="-27.2744381" lon="151.290064">
  <ele>345.23</ele>
  <time>2026-09-01T20:03:56Z</time>
  <course>205.11</course>
  <speed>0.04242640687119285</speed>
  <fix>3d</fix>
</trkpt>
<trkpt lat="-27.2744382" lon="151.290064">
  <ele>345.18</ele>
  <time>2026-09-01T20:03:56Z</time>
  <course>205.14</course>
  <speed>0.04242640687119285</speed>
  <fix>3d</fix>
</trkpt>
<trkpt lat="-27.2744383" lon="151.2900639">
  <ele>345.39</ele>
  <time>2026-09-01T20:03:56Z</time>
  <course>151.74</course>
  <speed>0.08</speed>
  <fix>3d</fix>
</trkpt>
<trkpt lat="-27.2744382" lon="151.290064">
  <ele>345.18</ele>
  <time>2026-09-01T20:03:56Z</time>
  <course>205.14</course>
  <speed>0.04242640687119285</speed>
  <fix>3d</fix>
</trkpt>
<trkpt lat="-27.2744382" lon="151.290064">
  <ele>345.13</ele>
  <time>2026-09-01T20:03:56Z</time>
  <course>205.11</course>
  <speed>0.03605551275463989</speed>
  <fix>3d</fix>
</trkpt>
<trkpt lat="-27.2744384" lon="151.290064">
  <ele>345.28</ele>
  <time>2026-09-01T20:03:56Z</time>
  <course>143.71</course>
  <speed>0.08</speed>
  <fix>3d</fix>
</trkpt>
<trkpt lat="-27.2744382" lon="151.290064">
  <ele>345.13</ele>
  <time>2026-09-01T20:03:56Z</time>
  <course>205.11</course>
  <speed>0.03605551275463989</speed>
  <fix>3d</fix>
</trkpt>
<trkpt lat="-27.2744383" lon="151.2900641">
  <ele>345.08</ele>
  <time>2026-09-01T20:03:56Z</time>
  <course>205.12</course>
  <speed>0.044721359549995794</speed>
  <fix>3d</fix>
</trkpt>
<trkpt lat="-27.2744384" lon="151.290064">
  <ele>345.28</ele>
  <time>2026-09-01T20:03:56Z</time>
  <course>143.71</course>
  <speed>0.08</speed>
  <fix>3d</fix>
</trkpt>
<trkpt lat="-27.2744383" lon="151.2900641">
  <ele>345.08</ele>
  <time>2026-09-01T20:03:56Z</time>
  <course>205.12</course>
  <speed>0.044721359549995794</speed>
  <fix>3d</fix>
</trkpt>
<trkpt lat="-27.2744383" lon="151.2900641">
  <ele>345.03</ele>
  <time>2026-09-01T20:03:56Z</time>
  <course>205.13</course>
  <speed>0.0412310562561766</speed>
  <fix>3d</fix>
</trkpt>
<trkpt lat="-27.2744385" lon="151.2900641">
  <ele>345.19</ele>
  <time>2026-09-01T20:03:56Z</time>
  <course>136.26</course>
  <speed>0.07</speed>
  <fix>3d</fix>
</trkpt>
<trkpt lat="-27.2744383" lon="151.2900641">
  <ele>345.02</ele>
  <time>2026-09-01T20:03:56Z</time>
  <course>205.13</course>
  <speed>0.0412310562561766</speed>
  <fix>3d</fix>
</trkpt>
<trkpt lat="-27.2744384" lon="151.2900642">
  <ele>344.98</ele>
  <time>2026-09-01T20:03:56Z</time>
  <course>205.1</course>
  <speed>0.0412310562561766</speed>
  <fix>3d</fix>
</trkpt>
<trkpt lat="-27.2744385" lon="151.2900641">
  <ele>345.19</ele>
  <time>2026-09-01T20:03:56Z</time>
  <course>136.26</course>
  <speed>0.07</speed>
  <fix>3d</fix>
</trkpt>
<trkpt lat="-27.2744384" lon="151.2900642">
  <ele>344.97</ele>
  <time>2026-09-01T20:03:56Z</time>
  <course>205.1</course>
  <speed>0.0412310562561766</speed>
  <fix>3d</fix>
</trkpt>
<trkpt lat="-27.2744384" lon="151.2900642">
  <ele>344.93</ele>
  <time>2026-09-01T20:03:56Z</time>
  <course>205.14</course>
  <speed>0.04</speed>
  <fix>3d</fix>
</trkpt>
<trkpt lat="-27.2744386" lon="151.2900642">
  <ele>345.09</ele>
  <time>2026-09-01T20:03:56Z</time>
  <course>129.57</course>
  <speed>0.07</speed>
  <fix>3d</fix>
</trkpt>
<trkpt lat="-27.2744384" lon="151.2900642">
  <ele>344.92</ele>
  <time>2026-09-01T20:03:56Z</time>
  <course>205.14</course>
  <speed>0.04</speed>
  <fix>3d</fix>
</trkpt>
<trkpt lat="-27.2744384" lon="151.2900643">
  <ele>344.88</ele>
  <time>2026-09-01T20:03:56Z</time>
  <course>205.1</course>
  <speed>0.04</speed>
  <fix>3d</fix>
</trkpt>
<trkpt lat="-27.2744386" lon="151.2900642">
  <ele>345.09</ele>
  <time>2026-09-01T20:03:56Z</time>
  <course>129.57</course>
  <speed>0.07</speed>
  <fix>3d</fix>
</trkpt>
<trkpt lat="-27.2744384" lon="151.2900643">
  <ele>344.87</ele>
  <time>2026-09-01T20:03:56Z</time>
  <course>205.1</course>
  <speed>0.04</speed>
  <fix>3d</fix>
</trkpt>
<trkpt lat="-27.2744385" lon="151.2900643">
  <ele>344.83</ele>
  <time>2026-09-01T20:03:56Z</time>
  <course>205.12</course>
  <speed>0.04</speed>
  <fix>3d</fix>
</trkpt>
<trkpt lat="-27.2744387" lon="151.2900643">
  <ele>345.0</ele>
  <time>2026-09-01T20:03:56Z</time>
  <course>123.63</course>
  <speed>0.06</speed>
  <fix>3d</fix>
</trkpt>
<trkpt lat="-27.2744385" lon="151.2900643">
  <ele>344.83</ele>
  <time>2026-09-01T20:03:56Z</time>
  <course>205.13</course>
  <speed>0.04</speed>
  <fix>3d</fix>
</trkpt>
<trkpt lat="-27.2744385" lon="151.2900644">
  <ele>344.78</ele>
  <time>2026-09-01T20:03:56Z</time>
  <course>205.12</course>
  <speed>0.04</speed>
  <fix>3d</fix>
</trkpt>
<trkpt lat="-27.2744387" lon="151.2900643">
  <ele>345.0</ele>
  <time>2026-09-01T20:03:56Z</time>
  <course>123.63</course>
  <speed>0.06</speed>
  <fix>3d</fix>
</trkpt>
<trkpt lat="-27.2744385" lon="151.2900644">
  <ele>344.78</ele>
  <time>2026-09-01T20:03:56Z</time>
  <course>205.12</course>
  <speed>0.04</speed>
  <fix>3d</fix>
</trkpt>
<trkpt lat="-27.2744385" lon="151.2900644">
  <ele>344.73</ele>
  <time>2026-09-01T20:03:56Z</time>
  <course>205.1</course>
  <speed>0.03</speed>
  <fix>3d</fix>
</trkpt>
<trkpt lat="-27.2744388" lon="151.2900645">
  <ele>344.9</ele>
  <time>2026-09-01T20:03:56Z</time>
  <course>118.37</course>
  <speed>0.06</speed>
  <fix>3d</fix>
</trkpt>
<trkpt lat="-27.2744385" lon="151.2900644">
  <ele>344.73</ele>
  <time>2026-09-01T20:03:56Z</time>
  <course>205.11</course>
  <speed>0.03</speed>
  <fix>3d</fix>
</trkpt>
<trkpt lat="-27.2744385" lon="151.2900645">
  <ele>344.68</ele>
  <time>2026-09-01T20:03:56Z</time>
  <course>205.14</course>
  <speed>0.03</speed>
  <fix>3d</fix>
</trkpt>
<trkpt lat="-27.2744388" lon="151.2900645">
  <ele>344.9</ele>
  <time>2026-09-01T20:03:56Z</time>
  <course>118.37</course>
  <speed>0.06</speed>
  <fix>3d</fix>
</trkpt>
<trkpt lat="-27.2744385" lon="151.2900645">
  <ele>344.68</ele>
  <time>2026-09-01T20:03:56Z</time>
  <course>205.13</course>
  <speed>0.03</speed>
  <fix>3d</fix>
</trkpt>
<trkpt lat="-27.2744385" lon="151.2900645">
  <ele>344.63</ele>
  <time>2026-09-01T20:03:56Z</time>
  <course>205.1</course>
  <speed>0.03</speed>
  <fix>3d</fix>
</trkpt>
<trkpt lat="-27.2744388" lon="151.2900646">
  <ele>344.8</ele>
  <time>2026-09-01T20:03:56Z</time>
  <course>113.88</course>
  <speed>0.06</speed>
  <fix>3d</fix>
</trkpt>
<trkpt lat="-27.2744385" lon="151.2900645">
  <ele>344.63</ele>
  <time>2026-09-01T20:03:56Z</time>
  <course>205.1</course>
  <speed>0.03</speed>
  <fix>3d</fix>
</trkpt>
<trkpt lat="-27.2744386" lon="151.2900646">
  <ele>344.58</ele>
  <time>2026-09-01T20:03:56Z</time>
  <course>205.14</course>
  <speed>0.0316227766016838</speed>
  <fix>3d</fix>
</trkpt>
<trkpt lat="-27.2744388" lon="151.2900646">
  <ele>344.8</ele>
  <time>2026-09-01T20:03:56Z</time>
  <course>113.88</course>
  <speed>0.06</speed>
  <fix>3d</fix>
</trkpt>
<trkpt lat="-27.2744386" lon="151.2900646">
  <ele>344.58</ele>
  <time>2026-09-01T20:03:56Z</time>
  <course>205.14</course>
  <speed>0.0316227766016838</speed>
  <fix>3d</fix>
</trkpt>
<trkpt lat="-27.2744386" lon="151.2900646">
  <ele>344.53</ele>
  <time>2026-09-01T20:03:56Z</time>
  <course>205.11</course>
  <speed>0.0316227766016838</speed>
  <fix>3d</fix>
</trkpt>
<trkpt lat="-27.2744389" lon="151.2900647">
  <ele>344.7</ele>
  <time>2026-09-01T20:03:56Z</time>
  <course>110.57</course>
  <speed>0.05</speed>
  <fix>3d</fix>
</trkpt>
<trkpt lat="-27.2744386" lon="151.2900646">
  <ele>344.53</ele>
  <time>2026-09-01T20:03:56Z</time>
  <course>205.11</course>
  <speed>0.0316227766016838</speed>
  <fix>3d</fix>
</trkpt>
<trkpt lat="-27.2744386" lon="151.2900646">
  <ele>344.48</ele>
  <time>2026-09-01T20:03:56Z</time>
  <course>205.12</course>
  <speed>0.022360679774997897</speed>
  <fix>3d</fix>
</trkpt>
<trkpt lat="-27.2744389" lon="151.2900647">
  <ele>344.7</ele>
  <time>2026-09-01T20:03:56Z</time>
  <course>110.57</course>
  <speed>0.05</speed>
  <fix>3d</fix>
</trkpt>
<trkpt lat="-27.2744386" lon="151.2900646">
  <ele>344.48</ele>
  <time>2026-09-01T20:03:56Z</time>
  <course>205.12</course>
  <speed>0.022360679774997897</speed>
  <fix>3d</fix>
</trkpt>
<trkpt lat="-27.2744386" lon="151.2900647">
  <ele>344.43</ele>
  <time>2026-09-01T20:03:56Z</time>
  <course>205.12</course>
  <speed>0.022360679774997897</speed>
  <fix>3d</fix>
</trkpt>
<trkpt lat="-27.2744389" lon="151.2900648">
  <ele>344.59</ele>
  <time>2026-09-01T20:03:56Z</time>
  <course>108.0</course>
  <speed>0.04</speed>
  <fix>3d</fix>
</trkpt>
<trkpt lat="-27.2744386" lon="151.2900647">
  <ele>344.43</ele>
  <time>2026-09-01T20:03:56Z</time>
  <course>205.12</course>
  <speed>0.022360679774997897</speed>
  <fix>3d</fix>
</trkpt>
<trkpt lat="-27.2744386" lon="151.2900647">
  <ele>344.38</ele>
  <time>2026-09-01T20:03:56Z</time>
  <course>205.11</course>
  <speed>0.022360679774997897</speed>
  <fix>3d</fix>
</trkpt>
<trkpt lat="-27.2744389" lon="151.2900648">
  <ele>344.59</ele>
  <time>2026-09-01T20:03:56Z</time>
  <course>108.0</course>
  <speed>0.04</speed>
  <fix>3d</fix>
</trkpt>
<trkpt lat="-27.2744386" lon="151.2900647">
  <ele>344.38</ele>
  <time>2026-09-01T20:03:56Z</time>
  <course>205.11</course>
  <speed>0.022360679774997897</speed>
  <fix>3d</fix>
</trkpt>
<trkpt lat="-27.2744386" lon="151.2900648">
  <ele>344.33</ele>
  <time>2026-09-01T20:03:56Z</time>
  <course>205.14</course>
  <speed>0.0282842712474619</speed>
  <fix>3d</fix>
</trkpt>
<trkpt lat="-27.2744389" lon="151.2900649">
  <ele>344.5</ele>
  <time>2026-09-01T20:03:56Z</time>
  <course>105.17</course>
  <speed>0.04</speed>
  <fix>3d</fix>
</trkpt>
<trkpt lat="-27.2744386" lon="151.2900648">
  <ele>344.33</ele>
  <time>2026-09-01T20:03:56Z</time>
  <course>205.14</course>
  <speed>0.0282842712474619</speed>
  <fix>3d</fix>
</trkpt>
<trkpt lat="-27.2744386" lon="151.2900648">
  <ele>344.28</ele>
  <time>2026-09-01T20:03:56Z</time>
  <course>205.1</course>
  <speed>0.022360679774997897</speed>
  <fix>3d</fix>
</trkpt>
<trkpt lat="-27.2744389" lon="151.2900649">
  <ele>344.5</ele>
  <time>2026-09-01T20:03:56Z</time>
  <course>105.17</course>
  <speed>0.04</speed>
  <fix>3d</fix>
</trkpt>
<trkpt lat="-27.2744386" lon="151.2900648">
  <ele>344.28</ele>
  <time>2026-09-01T20:03:56Z</time>
  <course>205.1</course>
  <speed>0.022360679774997897</speed>
  <fix>3d</fix>
</trkpt>
<trkpt lat="-27.2744386" lon="151.2900648">
  <ele>344.23</ele>
  <time>2026-09-01T20:03:56Z</time>
  <course>205.14</course>
  <speed>0.022360679774997897</speed>
  <fix>3d</fix>
</trkpt>
<trkpt lat="-27.274439" lon="151.290065">
  <ele>344.4</ele>
  <time>2026-09-01T20:03:56Z</time>
  <course>102.19</course>
  <speed>0.03</speed>
  <fix>3d</fix>
</trkpt>
<trkpt lat="-27.2744386" lon="151.2900648">
  <ele>344.23</ele>
  <time>2026-09-01T20:03:56Z</time>
  <course>205.14</course>
  <speed>0.022360679774997897</speed>
  <fix>3d</fix>
</trkpt>
<trkpt lat="-27.2744387" lon="151.2900649">
  <ele>344.18</ele>
  <time>2026-09-01T20:03:56Z</time>
  <course>205.11</course>
  <speed>0.022360679774997897</speed>
  <fix>3d</fix>
</trkpt>
<trkpt lat="-27.274439" lon="151.290065">
  <ele>344.4</ele>
  <time>2026-09-01T20:03:56Z</time>
  <course>102.19</course>
  <speed>0.03</speed>
  <fix>3d</fix>
</trkpt>
<trkpt lat="-27.2744386" lon="151.2900649">
  <ele>344.18</ele>
  <time>2026-09-01T20:03:56Z</time>
  <course>205.11</course>
  <speed>0.02</speed>
  <fix>3d</fix>
</trkpt>
<trkpt lat="-27.2744387" lon="151.2900649">
  <ele>344.13</ele>
  <time>2026-09-01T20:03:56Z</time>
  <course>205.12</course>
  <speed>0.02</speed>
  <fix>3d</fix>
</trkpt>
<trkpt lat="-27.274439" lon="151.290065">
  <ele>344.3</ele>
  <time>2026-09-01T20:03:56Z</time>
  <course>100.07</course>
  <speed>0.02</speed>
  <fix>3d</fix>
</trkpt>
<trkpt lat="-27.2744387" lon="151.2900649">
  <ele>344.13</ele>
  <time>2026-09-01T20:03:56Z</time>
  <course>205.12</course>
  <speed>0.02</speed>
  <fix>3d</fix>
</trkpt>
<trkpt lat="-27.2744387" lon="151.2900649">
  <ele>344.08</ele>
  <time>2026-09-01T20:03:56Z</time>
  <course>205.12</course>
  <speed>0.02</speed>
  <fix>3d</fix>
</trkpt>
<trkpt lat="-27.274439" lon="151.290065">
  <ele>344.3</ele>
  <time>2026-09-01T20:03:56Z</time>
  <course>100.07</course>
  <speed>0.02</speed>
  <fix>3d</fix>
</trkpt>
<trkpt lat="-27.2744387" lon="151.2900649">
  <ele>344.07</ele>
  <time>2026-09-01T20:03:56Z</time>
  <course>205.12</course>
  <speed>0.02</speed>
  <fix>3d</fix>
</trkpt>
<trkpt lat="-27.2744387" lon="151.2900649">
  <ele>344.02</ele>
  <time>2026-09-01T20:03:56Z</time>
  <course>205.1</course>
  <speed>0.02</speed>
  <fix>3d</fix>
</trkpt>
<trkpt lat="-27.274439" lon="151.2900651">
  <ele>344.2</ele>
  <time>2026-09-01T20:03:56Z</time>
  <course>99.22</course>
  <speed>0.02</speed>
  <fix>3d</fix>
</trkpt>
<trkpt lat="-27.2744387" lon="151.2900649">
  <ele>344.02</ele>
  <time>2026-09-01T20:03:56Z</time>
  <course>205.1</course>
  <speed>0.02</speed>
  <fix>3d</fix>
</trkpt>
<trkpt lat="-27.2744387" lon="151.2900649">
  <ele>343.97</ele>
  <time>2026-09-01T20:03:56Z</time>
  <course>205.14</course>
  <speed>0.02</speed>
  <fix>3d</fix>
</trkpt>
<trkpt lat="-27.274439" lon="151.2900651">
  <ele>344.2</ele>
  <time>2026-09-01T20:03:56Z</time>
  <course>99.22</course>
  <speed>0.02</speed>
  <fix>3d</fix>
</trkpt>
<trkpt lat="-27.2744387" lon="151.2900649">
  <ele>343.92</ele>
  <time>2026-09-01T20:03:56Z</time>
  <course>205.11</course>
  <speed>0.02</speed>
  <fix>3d</fix>
</trkpt>
<trkpt lat="-27.274439" lon="151.2900651">
  <ele>344.09</ele>
  <time>2026-09-01T20:03:56Z</time>
  <course>98.07</course>
  <speed>0.01</speed>
  <fix>3d</fix>
</trkpt>
<trkpt lat="-27.2744387" lon="151.2900649">
  <ele>343.87</ele>
  <time>2026-09-01T20:03:56Z</time>
  <course>205.13</course>
  <speed>0.022360679774997897</speed>
  <fix>3d</fix>
</trkpt>
<trkpt lat="-27.274439" lon="151.2900651">
  <ele>344.09</ele>
  <time>2026-09-01T20:03:56Z</time>
  <course>98.07</course>
  <speed>0.01</speed>
  <fix>3d</fix>
</trkpt>
<trkpt lat="-27.2744387" lon="151.2900649">
  <ele>343.82</ele>
  <time>2026-09-01T20:03:56Z</time>
  <course>205.12</course>
  <speed>0.022360679774997897</speed>
  <fix>3d</fix>
</trkpt>
<trkpt lat="-27.274439" lon="151.2900651">
  <ele>344.0</ele>
  <time>2026-09-01T20:03:56Z</time>
  <course>96.66</course>
  <speed>0.0</speed>
  <fix>3d</fix>
</trkpt>
<trkpt lat="-27.2744387" lon="151.2900649">
  <ele>343.78</ele>
  <time>2026-09-01T20:03:56Z</time>
  <course>205.14</course>
  <speed>0.022360679774997897</speed>
  <fix>3d</fix>
</trkpt>
<trkpt lat="-27.274439" lon="151.2900651">
  <ele>344.0</ele>
  <time>2026-09-01T20:03:56Z</time>
  <course>96.66</course>
  <speed>0.0</speed>
  <fix>3d</fix>
</trkpt>
<trkpt lat="-27.2744387" lon="151.2900649">
  <ele>343.73</ele>
  <time>2026-09-01T20:03:56Z</time>
  <course>205.15</course>
  <speed>0.022360679774997897</speed>
  <fix>3d</fix>
</trkpt>
<trkpt lat="-27.274439" lon="151.2900651">
  <ele>343.9</ele>
  <time>2026-09-01T20:03:56Z</time>
  <course>127.33</course>
  <speed>0.0</speed>
  <fix>3d</fix>
</trkpt>
<trkpt lat="-27.2744387" lon="151.2900649">
  <ele>343.68</ele>
  <time>2026-09-01T20:03:56Z</time>
  <course>205.13</course>
  <speed>0.022360679774997897</speed>
  <fix>3d</fix>
</trkpt>
<trkpt lat="-27.274439" lon="151.2900651">
  <ele>343.9</ele>
  <time>2026-09-01T20:03:56Z</time>
  <course>127.33</course>
  <speed>0.0</speed>
  <fix>3d</fix>
</trkpt>
<trkpt lat="-27.2744387" lon="151.2900649">
  <ele>343.63</ele>
  <time>2026-09-01T20:03:56Z</time>
  <course>205.16</course>
  <speed>0.022360679774997897</speed>
  <fix>3d</fix>
</trkpt>
<trkpt lat="-27.274439" lon="151.2900651">
  <ele>343.8</ele>
  <time>2026-09-01T20:03:56Z</time>
  <course>205.55</course>
  <speed>0.0</speed>
  <fix>3d</fix>
</trkpt>
<trkpt lat="-27.2744387" lon="151.2900649">
  <ele>343.58</ele>
  <time>2026-09-01T20:03:56Z</time>
  <course>205.13</course>
  <speed>0.022360679774997897</speed>
  <fix>3d</fix>
</trkpt>
<trkpt lat="-27.274439" lon="151.2900651">
  <ele>343.8</ele>
  <time>2026-09-01T20:03:56Z</time>
  <course>205.55</course>
  <speed>0.0</speed>
  <fix>3d</fix>
</trkpt>
<trkpt lat="-27.2744387" lon="151.2900649">
  <ele>343.53</ele>
  <time>2026-09-01T20:03:56Z</time>
  <course>205.16</course>
  <speed>0.01414213562373095</speed>
  <fix>3d</fix>
</trkpt>
<trkpt lat="-27.274439" lon="151.2900651">
  <ele>343.71</ele>
  <time>2026-09-01T20:03:56Z</time>
  <course>212.09</course>
  <speed>0.0</speed>
  <fix>3d</fix>
</trkpt>
<trkpt lat="-27.2744387" lon="151.2900649">
  <ele>343.49</ele>
  <time>2026-09-01T20:03:56Z</time>
  <course>205.13</course>
  <speed>0.022360679774997897</speed>
  <fix>3d</fix>
</trkpt>
<trkpt lat="-27.274439" lon="151.2900651">
  <ele>343.71</ele>
  <time>2026-09-01T20:03:56Z</time>
  <course>212.09</course>
  <speed>0.0</speed>
  <fix>3d</fix>
</trkpt>
<trkpt lat="-27.2744387" lon="151.2900649">
  <ele>343.44</ele>
  <time>2026-09-01T20:03:56Z</time>
  <course>205.16</course>
  <speed>0.022360679774997897</speed>
  <fix>3d</fix>
</trkpt>
<trkpt lat="-27.274439" lon="151.2900651">
  <ele>343.61</ele>
  <time>2026-09-01T20:03:56Z</time>
  <course>214.59</course>
  <speed>0.0</speed>
  <fix>3d</fix>
</trkpt>
<trkpt lat="-27.2744388" lon="151.2900649">
  <ele>343.39</ele>
  <time>2026-09-01T20:03:56Z</time>
  <course>205.13</course>
  <speed>0.022360679774997897</speed>
  <fix>3d</fix>
</trkpt>
<trkpt lat="-27.274439" lon="151.2900651">
  <ele>343.61</ele>
  <time>2026-09-01T20:03:56Z</time>
  <course>214.59</course>
  <speed>0.0</speed>
  <fix>3d</fix>
</trkpt>
<trkpt lat="-27.2744388" lon="151.2900649">
  <ele>343.34</ele>
  <time>2026-09-01T20:03:56Z</time>
  <course>205.16</course>
  <speed>0.022360679774997897</speed>
  <fix>3d</fix>
</trkpt>
<trkpt lat="-27.274439" lon="151.2900651">
  <ele>343.51</ele>
  <time>2026-09-01T20:03:56Z</time>
  <course>216.1</course>
  <speed>0.01</speed>
  <fix>3d</fix>
</trkpt>
<trkpt lat="-27.2744388" lon="151.2900649">
  <ele>343.29</ele>
  <time>2026-09-01T20:03:56Z</time>
  <course>205.15</course>
  <speed>0.022360679774997897</speed>
  <fix>3d</fix>
</trkpt>
<trkpt lat="-27.274439" lon="151.2900651">
  <ele>343.51</ele>
  <time>2026-09-01T20:03:56Z</time>
  <course>216.1</course>
  <speed>0.01</speed>
  <fix>3d</fix>
</trkpt>
<trkpt lat="-27.2744388" lon="151.2900649">
  <ele>343.24</ele>
  <time>2026-09-01T20:03:56Z</time>
  <course>205.15</course>
  <speed>0.022360679774997897</speed>
  <fix>3d</fix>
</trkpt>
<trkpt lat="-27.2744391" lon="151.2900651">
  <ele>343.4</ele>
  <time>2026-09-01T20:03:56Z</time>
  <course>217.05</course>
  <speed>0.01</speed>
  <fix>3d</fix>
</trkpt>
<trkpt lat="-27.2744388" lon="151.2900649">
  <ele>343.19</ele>
  <time>2026-09-01T20:03:56Z</time>
  <course>205.16</course>
  <speed>0.022360679774997897</speed>
  <fix>3d</fix>
</trkpt>
<trkpt lat="-27.2744391" lon="151.2900651">
  <ele>343.4</ele>
  <time>2026-09-01T20:03:56Z</time>
  <course>217.05</course>
  <speed>0.01</speed>
  <fix>3d</fix>
</trkpt>
<trkpt lat="-27.2744388" lon="151.2900649">
  <ele>343.14</ele>
  <time>2026-09-01T20:03:56Z</time>
  <course>205.13</course>
  <speed>0.022360679774997897</speed>
  <fix>3d</fix>
</trkpt>
<trkpt lat="-27.2744391" lon="151.2900651">
  <ele>343.31</ele>
  <time>2026-09-01T20:03:56Z</time>
  <course>217.54</course>
  <speed>0.01</speed>
  <fix>3d</fix>
</trkpt>
<trkpt lat="-27.2744388" lon="151.2900649">
  <ele>343.09</ele>
  <time>2026-09-01T20:03:56Z</time>
  <course>205.17</course>
  <speed>0.02</speed>
  <fix>3d</fix>
</trkpt>
<trkpt lat="-27.2744391" lon="151.2900651">
  <ele>343.31</ele>
  <time>2026-09-01T20:03:56Z</time>
  <course>217.54</course>
  <speed>0.01</speed>
  <fix>3d</fix>
</trkpt>
<trkpt lat="-27.2744389" lon="151.2900649">
  <ele>343.04</ele>
  <time>2026-09-01T20:03:56Z</time>
  <course>205.13</course>
  <speed>0.02</speed>
  <fix>3d</fix>
</trkpt>
<trkpt lat="-27.2744391" lon="151.2900651">
  <ele>343.21</ele>
  <time>2026-09-01T20:03:56Z</time>
  <course>218.03</course>
  <speed>0.01</speed>
  <fix>3d</fix>
</trkpt>
<trkpt lat="-27.2744389" lon="151.2900649">
  <ele>343.0</ele>
  <time>2026-09-01T20:03:56Z</time>
  <course>205.13</course>
  <speed>0.022360679774997897</speed>
  <fix>3d</fix>
</trkpt>
<trkpt lat="-27.2744391" lon="151.2900651">
  <ele>343.21</ele>
  <time>2026-09-01T20:03:56Z</time>
  <course>218.03</course>
  <speed>0.01</speed>
  <fix>3d</fix>
</trkpt>
<trkpt lat="-27.2744389" lon="151.2900649">
  <ele>343.01</ele>
  <time>2026-09-01T20:03:56Z</time>
  <course>205.13</course>
  <speed>0.03</speed>
  <fix>3d</fix>
</trkpt>
<trkpt lat="-27.2744391" lon="151.2900651">
  <ele>343.11</ele>
  <time>2026-09-01T20:03:56Z</time>
  <course>218.53</course>
  <speed>0.01</speed>
  <fix>3d</fix>
</trkpt>
<trkpt lat="-27.2744389" lon="151.2900649">
  <ele>343.03</ele>
  <time>2026-09-01T20:03:56Z</time>
  <course>205.14</course>
  <speed>0.03</speed>
  <fix>3d</fix>
</trkpt>
<trkpt lat="-27.2744391" lon="151.2900651">
  <ele>343.11</ele>
  <time>2026-09-01T20:03:56Z</time>
  <course>218.53</course>
  <speed>0.01</speed>
  <fix>3d</fix>
</trkpt>
<trkpt lat="-27.2744389" lon="151.2900649">
  <ele>343.04</ele>
  <time>2026-09-01T20:03:56Z</time>
  <course>205.14</course>
  <speed>0.0316227766016838</speed>
  <fix>3d</fix>
</trkpt>
<trkpt lat="-27.2744391" lon="151.2900651">
  <ele>343.08</ele>
  <time>2026-09-01T20:03:56Z</time>
  <course>31.79</course>
  <speed>0.0</speed>
  <fix>3d</fix>
</trkpt>
<trkpt lat="-27.2744389" lon="151.2900649">
  <ele>343.04</ele>
  <time>2026-09-01T20:03:56Z</time>
  <course>205.14</course>
  <speed>0.022360679774997897</speed>
  <fix>3d</fix>
</trkpt>
<trkpt lat="-27.2744391" lon="151.2900651">
  <ele>343.08</ele>
  <time>2026-09-01T20:03:56Z</time>
  <course>31.79</course>
  <speed>0.0</speed>
  <fix>3d</fix>
</trkpt>
<trkpt lat="-27.2744389" lon="151.2900649">
  <ele>343.04</ele>
  <time>2026-09-01T20:03:56Z</time>
  <course>205.14</course>
  <speed>0.022360679774997897</speed>
  <fix>3d</fix>
</trkpt>
<trkpt lat="-27.2744391" lon="151.2900651">
  <ele>343.09</ele>
  <time>2026-09-01T20:03:56Z</time>
  <course>38.57</course>
  <speed>0.0</speed>
  <fix>3d</fix>
</trkpt>
<trkpt lat="-27.2744389" lon="151.2900649">
  <ele>343.04</ele>
  <time>2026-09-01T20:03:56Z</time>
  <course>205.14</course>
  <speed>0.022360679774997897</speed>
  <fix>3d</fix>
</trkpt>
<trkpt lat="-27.2744391" lon="151.2900651">
  <ele>343.09</ele>
  <time>2026-09-01T20:03:56Z</time>
  <course>38.57</course>
  <speed>0.0</speed>
  <fix>3d</fix>
</trkpt>
<trkpt lat="-27.2744389" lon="151.2900649">
  <ele>343.03</ele>
  <time>2026-09-01T20:03:56Z</time>
  <course>205.14</course>
  <speed>0.022360679774997897</speed>
  <fix>3d</fix>
</trkpt>
<trkpt lat="-27.2744391" lon="151.2900651">
  <ele>343.1</ele>
  <time>2026-09-01T20:03:56Z</time>
  <course>216.26</course>
  <speed>0.0</speed>
  <fix>3d</fix>
</trkpt>
<trkpt lat="-27.2744389" lon="151.2900649">
  <ele>343.03</ele>
  <time>2026-09-01T20:03:56Z</time>
  <course>205.14</course>
  <speed>0.022360679774997897</speed>
  <fix>3d</fix>
</trkpt>
<trkpt lat="-27.2744391" lon="151.2900651">
  <ele>343.1</ele>
  <time>2026-09-01T20:03:56Z</time>
  <course>216.26</course>
  <speed>0.0</speed>
  <fix>3d</fix>
</trkpt>
<trkpt lat="-27.2744389" lon="151.2900649">
  <ele>343.04</ele>
  <time>2026-09-01T20:03:56Z</time>
  <course>205.14</course>
  <speed>0.022360679774997897</speed>
  <fix>3d</fix>
</trkpt>
<trkpt lat="-27.2744391" lon="151.2900651">
  <ele>343.09</ele>
  <time>2026-09-01T20:03:56Z</time>
  <course>216.55</course>
  <speed>0.0</speed>
  <fix>3d</fix>
</trkpt>
<trkpt lat="-27.2744389" lon="151.2900649">
  <ele>343.04</ele>
  <time>2026-09-01T20:03:56Z</time>
  <course>205.14</course>
  <speed>0.022360679774997897</speed>
  <fix>3d</fix>
</trkpt>
<trkpt lat="-27.2744391" lon="151.2900651">
  <ele>343.09</ele>
  <time>2026-09-01T20:03:56Z</time>
  <course>216.55</course>
  <speed>0.0</speed>
  <fix>3d</fix>
</trkpt>
<trkpt lat="-27.2744389" lon="151.2900649">
  <ele>343.04</ele>
  <time>2026-09-01T20:03:56Z</time>
  <course>205.15</course>
  <speed>0.022360679774997897</speed>
  <fix>3d</fix>
</trkpt>
<trkpt lat="-27.2744391" lon="151.2900651">
  <ele>343.09</ele>
  <time>2026-09-01T20:03:56Z</time>
  <course>72.46</course>
  <speed>0.0</speed>
  <fix>3d</fix>
</trkpt>
<trkpt lat="-27.2744389" lon="151.2900649">
  <ele>343.04</ele>
  <time>2026-09-01T20:03:56Z</time>
  <course>205.15</course>
  <speed>0.022360679774997897</speed>
  <fix>3d</fix>
</trkpt>
<trkpt lat="-27.2744391" lon="151.2900651">
  <ele>343.09</ele>
  <time>2026-09-01T20:03:56Z</time>
  <course>72.46</course>
  <speed>0.0</speed>
  <fix>3d</fix>
</trkpt>
<trkpt lat="-27.2744389" lon="151.2900649">
  <ele>343.04</ele>
  <time>2026-09-01T20:03:56Z</time>
  <course>205.15</course>
  <speed>0.02</speed>
  <fix>3d</fix>
</trkpt>
<trkpt lat="-27.2744391" lon="151.2900651">
  <ele>343.1</ele>
  <time>2026-09-01T20:03:56Z</time>
  <course>176.33</course>
  <speed>0.0</speed>
  <fix>3d</fix>
</trkpt>
<trkpt lat="-27.2744389" lon="151.2900649">
  <ele>343.04</ele>
  <time>2026-09-01T20:03:56Z</time>
  <course>205.15</course>
  <speed>0.02</speed>
  <fix>3d</fix>
</trkpt>
<trkpt lat="-27.2744391" lon="151.2900651">
  <ele>343.1</ele>
  <time>2026-09-01T20:03:56Z</time>
  <course>176.33</course>
  <speed>0.0</speed>
  <fix>3d</fix>
</trkpt>
<trkpt lat="-27.2744389" lon="151.2900649">
  <ele>343.04</ele>
  <time>2026-09-01T20:03:56Z</time>
  <course>205.15</course>
  <speed>0.02</speed>
  <fix>3d</fix>
</trkpt>
<trkpt lat="-27.2744391" lon="151.2900651">
  <ele>343.1</ele>
  <time>2026-09-01T20:03:56Z</time>
  <course>214.96</course>
  <speed>0.0</speed>
  <fix>3d</fix>
</trkpt>
<trkpt lat="-27.2744389" lon="151.2900649">
  <ele>343.04</ele>
  <time>2026-09-01T20:03:56Z</time>
  <course>205.15</course>
  <speed>0.02</speed>
  <fix>3d</fix>
</trkpt>
<trkpt lat="-27.2744391" lon="151.2900651">
  <ele>343.1</ele>
  <time>2026-09-01T20:03:56Z</time>
  <course>214.96</course>
  <speed>0.0</speed>
  <fix>3d</fix>
</trkpt>
<trkpt lat="-27.2744389" lon="151.2900649">
  <ele>343.04</ele>
  <time>2026-09-01T20:03:56Z</time>
  <course>205.15</course>
  <speed>0.02</speed>
  <fix>3d</fix>
</trkpt>
<trkpt lat="-27.2744391" lon="151.2900651">
  <ele>343.1</ele>
  <time>2026-09-01T20:03:56Z</time>
  <course>19.5</course>
  <speed>0.0</speed>
  <fix>3d</fix>
</trkpt>
<trkpt lat="-27.2744389" lon="151.2900649">
  <ele>343.04</ele>
  <time>2026-09-01T20:03:56Z</time>
  <course>205.15</course>
  <speed>0.02</speed>
  <fix>3d</fix>
</trkpt>
<trkpt lat="-27.2744391" lon="151.2900651">
  <ele>343.1</ele>
  <time>2026-09-01T20:03:56Z</time>
  <course>19.5</course>
  <speed>0.0</speed>
  <fix>3d</fix>
</trkpt>
<trkpt lat="-27.2744389" lon="151.2900649">
  <ele>343.04</ele>
  <time>2026-09-01T20:03:56Z</time>
  <course>205.15</course>
  <speed>0.02</speed>
  <fix>3d</fix>
</trkpt>
<trkpt lat="-27.2744391" lon="151.2900651">
  <ele>343.1</ele>
  <time>2026-09-01T20:03:56Z</time>
  <course>34.96</course>
  <speed>0.0</speed>
  <fix>3d</fix>
</trkpt>
<trkpt lat="-27.2744389" lon="151.2900649">
  <ele>343.03</ele>
  <time>2026-09-01T20:03:56Z</time>
  <course>205.15</course>
  <speed>0.02</speed>
  <fix>3d</fix>
</trkpt>
<trkpt lat="-27.2744391" lon="151.2900651">
  <ele>343.1</ele>
  <time>2026-09-01T20:03:56Z</time>
  <course>34.96</course>
  <speed>0.0</speed>
  <fix>3d</fix>
</trkpt>
<trkpt lat="-27.2744389" lon="151.2900649">
  <ele>343.03</ele>
  <time>2026-09-01T20:03:56Z</time>
  <course>205.15</course>
  <speed>0.02</speed>
  <fix>3d</fix>
</trkpt>
<trkpt lat="-27.2744391" lon="151.2900651">
  <ele>343.1</ele>
  <time>2026-09-01T20:03:56Z</time>
  <course>35.63</course>
  <speed>0.0</speed>
  <fix>3d</fix>
</trkpt>
<trkpt lat="-27.2744389" lon="151.2900649">
  <ele>343.03</ele>
  <time>2026-09-01T20:03:56Z</time>
  <course>205.16</course>
  <speed>0.02</speed>
  <fix>3d</fix>
</trkpt>
<trkpt lat="-27.2744391" lon="151.2900651">
  <ele>343.1</ele>
  <time>2026-09-01T20:03:56Z</time>
  <course>35.63</course>
  <speed>0.0</speed>
  <fix>3d</fix>
</trkpt>
<trkpt lat="-27.2744389" lon="151.2900649">
  <ele>343.03</ele>
  <time>2026-09-01T20:03:56Z</time>
  <course>205.16</course>
  <speed>0.02</speed>
  <fix>3d</fix>
</trkpt>
<trkpt lat="-27.2744391" lon="151.2900651">
  <ele>343.1</ele>
  <time>2026-09-01T20:03:56Z</time>
  <course>20.73</course>
  <speed>0.0</speed>
  <fix>3d</fix>
</trkpt>
<trkpt lat="-27.2744389" lon="151.2900649">
  <ele>343.03</ele>
  <time>2026-09-01T20:03:56Z</time>
  <course>205.16</course>
  <speed>0.02</speed>
  <fix>3d</fix>
</trkpt>
<trkpt lat="-27.2744391" lon="151.2900651">
  <ele>343.1</ele>
  <time>2026-09-01T20:03:56Z</time>
  <course>20.73</course>
  <speed>0.0</speed>
  <fix>3d</fix>
</trkpt>
<trkpt lat="-27.2744389" lon="151.2900649">
  <ele>343.03</ele>
  <time>2026-09-01T20:03:56Z</time>
  <course>205.16</course>
  <speed>0.02</speed>
  <fix>3d</fix>
</trkpt>
<trkpt lat="-27.2744391" lon="151.2900651">
  <ele>343.1</ele>
  <time>2026-09-01T20:03:56Z</time>
  <course>224.88</course>
  <speed>0.0</speed>
  <fix>3d</fix>
</trkpt>
<trkpt lat="-27.2744389" lon="151.2900649">
  <ele>343.03</ele>
  <time>2026-09-01T20:03:56Z</time>
  <course>205.16</course>
  <speed>0.02</speed>
  <fix>3d</fix>
</trkpt>
<trkpt lat="-27.2744391" lon="151.2900651">
  <ele>343.1</ele>
  <time>2026-09-01T20:03:56Z</time>
  <course>224.88</course>
  <speed>0.0</speed>
  <fix>3d</fix>
</trkpt>
<trkpt lat="-27.2744389" lon="151.2900649">
  <ele>343.03</ele>
  <time>2026-09-01T20:03:56Z</time>
  <course>205.16</course>
  <speed>0.02</speed>
  <fix>3d</fix>
</trkpt>
<trkpt lat="-27.2744391" lon="151.2900651">
  <ele>343.1</ele>
  <time>2026-09-01T20:03:56Z</time>
  <course>214.66</course>
  <speed>0.0</speed>
  <fix>3d</fix>
</trkpt>
<trkpt lat="-27.2744389" lon="151.2900649">
  <ele>343.03</ele>
  <time>2026-09-01T20:03:56Z</time>
  <course>205.16</course>
  <speed>0.02</speed>
  <fix>3d</fix>
</trkpt>
<trkpt lat="-27.2744391" lon="151.2900651">
  <ele>343.1</ele>
  <time>2026-09-01T20:03:56Z</time>
  <course>214.66</course>
  <speed>0.0</speed>
  <fix>3d</fix>
</trkpt>
<trkpt lat="-27.2744389" lon="151.2900649">
  <ele>343.03</ele>
  <time>2026-09-01T20:03:56Z</time>
  <course>205.16</course>
  <speed>0.022360679774997897</speed>
  <fix>3d</fix>
</trkpt>
<trkpt lat="-27.2744391" lon="151.2900651">
  <ele>343.1</ele>
  <time>2026-09-01T20:03:56Z</time>
  <course>227.67</course>
  <speed>0.0</speed>
  <fix>3d</fix>
</trkpt>
<trkpt lat="-27.2744389" lon="151.2900649">
  <ele>343.03</ele>
  <time>2026-09-01T20:03:56Z</time>
  <course>205.16</course>
  <speed>0.022360679774997897</speed>
  <fix>3d</fix>
</trkpt>
<trkpt lat="-27.2744391" lon="151.2900651">
  <ele>343.1</ele>
  <time>2026-09-01T20:03:56Z</time>
  <course>227.67</course>
  <speed>0.0</speed>
  <fix>3d</fix>
</trkpt>
<trkpt lat="-27.2744389" lon="151.2900649">
  <ele>343.03</ele>
  <time>2026-09-01T20:03:56Z</time>
  <course>205.16</course>
  <speed>0.022360679774997897</speed>
  <fix>3d</fix>
</trkpt>
<trkpt lat="-27.2744391" lon="151.2900651">
  <ele>343.1</ele>
  <time>2026-09-01T20:03:56Z</time>
  <course>1.49</course>
  <speed>0.0</speed>
  <fix>3d</fix>
</trkpt>
<trkpt lat="-27.2744389" lon="151.2900649">
  <ele>343.03</ele>
  <time>2026-09-01T20:03:56Z</time>
  <course>205.16</course>
  <speed>0.022360679774997897</speed>
  <fix>3d</fix>
</trkpt>
<trkpt lat="-27.2744391" lon="151.2900651">
  <ele>343.1</ele>
  <time>2026-09-01T20:03:56Z</time>
  <course>1.49</course>
  <speed>0.0</speed>
  <fix>3d</fix>
</trkpt>
<trkpt lat="-27.2744389" lon="151.2900649">
  <ele>343.04</ele>
  <time>2026-09-01T20:03:56Z</time>
  <course>205.17</course>
  <speed>0.022360679774997897</speed>
  <fix>3d</fix>
</trkpt>
<trkpt lat="-27.2744391" lon="151.2900651">
  <ele>343.1</ele>
  <time>2026-09-01T20:03:56Z</time>
  <course>9.27</course>
  <speed>0.0</speed>
  <fix>3d</fix>
</trkpt>
<trkpt lat="-27.2744389" lon="151.2900649">
  <ele>343.04</ele>
  <time>2026-09-01T20:03:56Z</time>
  <course>205.17</course>
  <speed>0.022360679774997897</speed>
  <fix>3d</fix>
</trkpt>
<trkpt lat="-27.2744391" lon="151.2900651">
  <ele>343.1</ele>
  <time>2026-09-01T20:03:56Z</time>
  <course>9.27</course>
  <speed>0.0</speed>
  <fix>3d</fix>
</trkpt>
<trkpt lat="-27.2744389" lon="151.2900649">
  <ele>343.04</ele>
  <time>2026-09-01T20:03:56Z</time>
  <course>205.17</course>
  <speed>0.022360679774997897</speed>
  <fix>3d</fix>
</trkpt>
<trkpt lat="-27.2744391" lon="151.2900651">
  <ele>343.1</ele>
  <time>2026-09-01T20:03:56Z</time>
  <course>5.97</course>
  <speed>0.0</speed>
  <fix>3d</fix>
</trkpt>
<trkpt lat="-27.2744389" lon="151.2900649">
  <ele>343.04</ele>
  <time>2026-09-01T20:03:56Z</time>
  <course>205.17</course>
  <speed>0.022360679774997897</speed>
  <fix>3d</fix>
</trkpt>
<trkpt lat="-27.2744391" lon="151.2900651">
  <ele>343.1</ele>
  <time>2026-09-01T20:03:56Z</time>
  <course>5.97</course>
  <speed>0.0</speed>
  <fix>3d</fix>
</trkpt>
<trkpt lat="-27.2744389" lon="151.2900649">
  <ele>343.04</ele>
  <time>2026-09-01T20:03:56Z</time>
  <course>205.17</course>
  <speed>0.022360679774997897</speed>
  <fix>3d</fix>
</trkpt>
<trkpt lat="-27.2744391" lon="151.2900651">
  <ele>343.1</ele>
  <time>2026-09-01T20:03:56Z</time>
  <course>356.52</course>
  <speed>0.0</speed>
  <fix>3d</fix>
</trkpt>
<trkpt lat="-27.2744389" lon="151.2900649">
  <ele>343.04</ele>
  <time>2026-09-01T20:03:56Z</time>
  <course>205.17</course>
  <speed>0.022360679774997897</speed>
  <fix>3d</fix>
</trkpt>
<trkpt lat="-27.2744391" lon="151.2900651">
  <ele>343.1</ele>
  <time>2026-09-01T20:03:56Z</time>
  <course>356.52</course>
  <speed>0.0</speed>
  <fix>3d</fix>
</trkpt>
<trkpt lat="-27.2744389" lon="151.2900649">
  <ele>343.04</ele>
  <time>2026-09-01T20:03:56Z</time>
  <course>205.17</course>
  <speed>0.022360679774997897</speed>
  <fix>3d</fix>
</trkpt>
<trkpt lat="-27.2744391" lon="151.2900651">
  <ele>343.1</ele>
  <time>2026-09-01T20:03:56Z</time>
  <course>15.79</course>
  <speed>0.0</speed>
  <fix>3d</fix>
</trkpt>
<trkpt lat="-27.2744389" lon="151.2900649">
  <ele>343.04</ele>
  <time>2026-09-01T20:03:56Z</time>
  <course>205.17</course>
  <speed>0.022360679774997897</speed>
  <fix>3d</fix>
</trkpt>
<trkpt lat="-27.2744391" lon="151.2900651">
  <ele>343.1</ele>
  <time>2026-09-01T20:03:56Z</time>
  <course>15.79</course>
  <speed>0.0</speed>
  <fix>3d</fix>
</trkpt>
<trkpt lat="-27.2744389" lon="151.2900649">
  <ele>343.04</ele>
  <time>2026-09-01T20:03:56Z</time>
  <course>205.17</course>
  <speed>0.022360679774997897</speed>
  <fix>3d</fix>
</trkpt>
<trkpt lat="-27.2744391" lon="151.2900651">
  <ele>343.1</ele>
  <time>2026-09-01T20:03:56Z</time>
  <course>8.39</course>
  <speed>0.0</speed>
  <fix>3d</fix>
</trkpt>
<trkpt lat="-27.2744389" lon="151.2900649">
  <ele>343.04</ele>
  <time>2026-09-01T20:03:56Z</time>
  <course>205.17</course>
  <speed>0.022360679774997897</speed>
  <fix>3d</fix>
</trkpt>
<trkpt lat="-27.2744391" lon="151.2900651">
  <ele>343.1</ele>
  <time>2026-09-01T20:03:56Z</time>
  <course>8.39</course>
  <speed>0.0</speed>
  <fix>3d</fix>
</trkpt>
<trkpt lat="-27.2744389" lon="151.2900649">
  <ele>343.04</ele>
  <time>2026-09-01T20:03:56Z</time>
  <course>205.17</course>
  <speed>0.022360679774997897</speed>
  <fix>3d</fix>
</trkpt>
<trkpt lat="-27.2744391" lon="151.2900651">
  <ele>343.1</ele>
  <time>2026-09-01T20:03:56Z</time>
  <course>1.33</course>
  <speed>0.0</speed>
  <fix>3d</fix>
</trkpt>
<trkpt lat="-27.2744389" lon="151.2900649">
  <ele>343.04</ele>
  <time>2026-09-01T20:03:56Z</time>
  <course>205.17</course>
  <speed>0.022360679774997897</speed>
  <fix>3d</fix>
</trkpt>
<trkpt lat="-27.2744391" lon="151.2900651">
  <ele>343.1</ele>
  <time>2026-09-01T20:03:56Z</time>
  <course>1.33</course>
  <speed>0.0</speed>
  <fix>3d</fix>
</trkpt>
<trkpt lat="-27.2744389" lon="151.2900649">
  <ele>343.04</ele>
  <time>2026-09-01T20:03:56Z</time>
  <course>205.18</course>
  <speed>0.022360679774997897</speed>
  <fix>3d</fix>
</trkpt>
<trkpt lat="-27.2744391" lon="151.2900651">
  <ele>343.1</ele>
  <time>2026-09-01T20:03:56Z</time>
  <course>10.17</course>
  <speed>0.0</speed>
  <fix>3d</fix>
</trkpt>
<trkpt lat="-27.2744389" lon="151.2900649">
  <ele>343.04</ele>
  <time>2026-09-01T20:03:56Z</time>
  <course>205.18</course>
  <speed>0.022360679774997897</speed>
  <fix>3d</fix>
</trkpt>
<trkpt lat="-27.2744391" lon="151.2900651">
  <ele>343.1</ele>
  <time>2026-09-01T20:03:56Z</time>
  <course>10.17</course>
  <speed>0.0</speed>
  <fix>3d</fix>
</trkpt>
<trkpt lat="-27.2744389" lon="151.2900649">
  <ele>343.04</ele>
  <time>2026-09-01T20:03:56Z</time>
  <course>205.18</course>
  <speed>0.022360679774997897</speed>
  <fix>3d</fix>
</trkpt>
<trkpt lat="-27.2744391" lon="151.2900651">
  <ele>343.1</ele>
  <time>2026-09-01T20:03:56Z</time>
  <course>348.38</course>
  <speed>0.0</speed>
  <fix>3d</fix>
</trkpt>
<trkpt lat="-27.2744389" lon="151.2900649">
  <ele>343.04</ele>
  <time>2026-09-01T20:03:56Z</time>
  <course>205.18</course>
  <speed>0.022360679774997897</speed>
  <fix>3d</fix>
</trkpt>
<trkpt lat="-27.2744391" lon="151.2900651">
  <ele>343.1</ele>
  <time>2026-09-01T20:03:56Z</time>
  <course>348.38</course>
  <speed>0.0</speed>
  <fix>3d</fix>
</trkpt>
<trkpt lat="-27.2744389" lon="151.2900649">
  <ele>343.04</ele>
  <time>2026-09-01T20:03:56Z</time>
  <course>205.18</course>
  <speed>0.022360679774997897</speed>
  <fix>3d</fix>
</trkpt>
<trkpt lat="-27.2744391" lon="151.2900651">
  <ele>343.1</ele>
  <time>2026-09-01T20:03:56Z</time>
  <course>345.3</course>
  <speed>0.0</speed>
  <fix>3d</fix>
</trkpt>
<trkpt lat="-27.2744389" lon="151.2900649">
  <ele>343.04</ele>
  <time>2026-09-01T20:03:56Z</time>
  <course>205.18</course>
  <speed>0.022360679774997897</speed>
  <fix>3d</fix>
</trkpt>
<trkpt lat="-27.2744391" lon="151.2900651">
  <ele>343.1</ele>
  <time>2026-09-01T20:03:56Z</time>
  <course>345.3</course>
  <speed>0.0</speed>
  <fix>3d</fix>
</trkpt>
<trkpt lat="-27.2744389" lon="151.2900649">
  <ele>343.05</ele>
  <time>2026-09-01T20:03:56Z</time>
  <course>205.18</course>
  <speed>0.022360679774997897</speed>
  <fix>3d</fix>
</trkpt>
<trkpt lat="-27.2744391" lon="151.2900651">
  <ele>343.1</ele>
  <time>2026-09-01T20:03:56Z</time>
  <course>14.86</course>
  <speed>0.0</speed>
  <fix>3d</fix>
</trkpt>
<trkpt lat="-27.2744389" lon="151.2900649">
  <ele>343.05</ele>
  <time>2026-09-01T20:03:56Z</time>
  <course>205.18</course>
  <speed>0.022360679774997897</speed>
  <fix>3d</fix>
</trkpt>
<trkpt lat="-27.2744391" lon="151.2900651">
  <ele>343.1</ele>
  <time>2026-09-01T20:03:56Z</time>
  <course>14.86</course>
  <speed>0.0</speed>
  <fix>3d</fix>
</trkpt>
<trkpt lat="-27.2744389" lon="151.2900649">
  <ele>343.05</ele>
  <time>2026-09-01T20:03:56Z</time>
  <course>205.18</course>
  <speed>0.022360679774997897</speed>
  <fix>3d</fix>
</trkpt>
<trkpt lat="-27.2744391" lon="151.2900651">
  <ele>343.1</ele>
  <time>2026-09-01T20:03:56Z</time>
  <course>19.19</course>
  <speed>0.0</speed>
  <fix>3d</fix>
</trkpt>
<trkpt lat="-27.2744389" lon="151.2900649">
  <ele>343.05</ele>
  <time>2026-09-01T20:03:56Z</time>
  <course>205.18</course>
  <speed>0.022360679774997897</speed>
  <fix>3d</fix>
</trkpt>
<trkpt lat="-27.2744391" lon="151.2900651">
  <ele>343.1</ele>
  <time>2026-09-01T20:03:56Z</time>
  <course>19.19</course>
  <speed>0.0</speed>
  <fix>3d</fix>
</trkpt>
<trkpt lat="-27.2744389" lon="151.2900649">
  <ele>343.05</ele>
  <time>2026-09-01T20:03:56Z</time>
  <course>205.18</course>
  <speed>0.022360679774997897</speed>
  <fix>3d</fix>
</trkpt>
<trkpt lat="-27.2744391" lon="151.2900651">
  <ele>343.1</ele>
  <time>2026-09-01T20:03:56Z</time>
  <course>18.18</course>
  <speed>0.0</speed>
  <fix>3d</fix>
</trkpt>
<trkpt lat="-27.2744389" lon="151.2900649">
  <ele>343.05</ele>
  <time>2026-09-01T20:03:56Z</time>
  <course>205.18</course>
  <speed>0.022360679774997897</speed>
  <fix>3d</fix>
</trkpt>
<trkpt lat="-27.2744391" lon="151.2900651">
  <ele>343.1</ele>
  <time>2026-09-01T20:03:56Z</time>
  <course>18.18</course>
  <speed>0.0</speed>
  <fix>3d</fix>
</trkpt>
<trkpt lat="-27.2744389" lon="151.2900649">
  <ele>343.05</ele>
  <time>2026-09-01T20:03:56Z</time>
  <course>205.18</course>
  <speed>0.022360679774997897</speed>
  <fix>3d</fix>
</trkpt>
<trkpt lat="-27.2744391" lon="151.2900651">
  <ele>343.1</ele>
  <time>2026-09-01T20:03:56Z</time>
  <course>18.07</course>
  <speed>0.0</speed>
  <fix>3d</fix>
</trkpt>
<trkpt lat="-27.2744389" lon="151.2900649">
  <ele>343.05</ele>
  <time>2026-09-01T20:03:56Z</time>
  <course>205.18</course>
  <speed>0.022360679774997897</speed>
  <fix>3d</fix>
</trkpt>
<trkpt lat="-27.2744391" lon="151.2900651">
  <ele>343.1</ele>
  <time>2026-09-01T20:03:56Z</time>
  <course>18.07</course>
  <speed>0.0</speed>
  <fix>3d</fix>
</trkpt>
<trkpt lat="-27.2744389" lon="151.2900649">
  <ele>343.05</ele>
  <time>2026-09-01T20:03:56Z</time>
  <course>205.19</course>
  <speed>0.022360679774997897</speed>
  <fix>3d</fix>
</trkpt>
<trkpt lat="-27.2744391" lon="151.2900651">
  <ele>343.1</ele>
  <time>2026-09-01T20:03:56Z</time>
  <course>18.62</course>
  <speed>0.0</speed>
  <fix>3d</fix>
</trkpt>
<trkpt lat="-27.2744389" lon="151.2900649">
  <ele>343.05</ele>
  <time>2026-09-01T20:03:56Z</time>
  <course>205.19</course>
  <speed>0.022360679774997897</speed>
  <fix>3d</fix>
</trkpt>
<trkpt lat="-27.2744391" lon="151.2900651">
  <ele>343.1</ele>
  <time>2026-09-01T20:03:56Z</time>
  <course>18.62</course>
  <speed>0.0</speed>
  <fix>3d</fix>
</trkpt>
<trkpt lat="-27.2744389" lon="151.2900649">
  <ele>343.05</ele>
  <time>2026-09-01T20:03:56Z</time>
  <course>205.19</course>
  <speed>0.022360679774997897</speed>
  <fix>3d</fix>
</trkpt>
<trkpt lat="-27.2744391" lon="151.2900651">
  <ele>343.1</ele>
  <time>2026-09-01T20:03:56Z</time>
  <course>18.26</course>
  <speed>0.0</speed>
  <fix>3d</fix>
</trkpt>
<trkpt lat="-27.2744389" lon="151.2900649">
  <ele>343.05</ele>
  <time>2026-09-01T20:03:56Z</time>
  <course>205.19</course>
  <speed>0.022360679774997897</speed>
  <fix>3d</fix>
</trkpt>
<trkpt lat="-27.2744391" lon="151.2900651">
  <ele>343.1</ele>
  <time>2026-09-01T20:03:56Z</time>
  <course>18.26</course>
  <speed>0.0</speed>
  <fix>3d</fix>
</trkpt>
<trkpt lat="-27.2744389" lon="151.2900649">
  <ele>343.1</ele>
  <time>2026-09-01T20:03:56Z</time>
  <course>205.19</course>
  <speed>0.022360679774997897</speed>
  <fix>3d</fix>
</trkpt>
<trkpt lat="-27.2744391" lon="151.2900651">
  <ele>343.1</ele>
  <time>2026-09-01T20:03:56Z</time>
  <course>203.93</course>
  <speed>0.0</speed>
  <fix>3d</fix>
</trkpt>
<trkpt lat="-27.2744389" lon="151.2900649">
  <ele>343.1</ele>
  <time>2026-09-01T20:03:56Z</time>
  <course>205.19</course>
  <speed>0.022360679774997897</speed>
  <fix>3d</fix>
</trkpt>
<trkpt lat="-27.2744391" lon="151.2900651">
  <ele>343.1</ele>
  <time>2026-09-01T20:03:56Z</time>
  <course>203.93</course>
  <speed>0.0</speed>
  <fix>3d</fix>
</trkpt>
<trkpt lat="-27.2744389" lon="151.2900649">
  <ele>343.1</ele>
  <time>2026-09-01T20:03:56Z</time>
  <course>205.2</course>
  <speed>0.022360679774997897</speed>
  <fix>3d</fix>
</trkpt>
<trkpt lat="-27.2744391" lon="151.2900651">
  <ele>343.1</ele>
  <time>2026-09-01T20:03:56Z</time>
  <course>203.7</course>
  <speed>0.0</speed>
  <fix>3d</fix>
</trkpt>
<trkpt lat="-27.2744389" lon="151.2900649">
  <ele>343.1</ele>
  <time>2026-09-01T20:03:56Z</time>
  <course>205.2</course>
  <speed>0.022360679774997897</speed>
  <fix>3d</fix>
</trkpt>
<trkpt lat="-27.2744391" lon="151.2900651">
  <ele>343.1</ele>
  <time>2026-09-01T20:03:56Z</time>
  <course>203.7</course>
  <speed>0.0</speed>
  <fix>3d</fix>
</trkpt>
<trkpt lat="-27.2744389" lon="151.2900649">
  <ele>343.09</ele>
  <time>2026-09-01T20:03:56Z</time>
  <course>205.2</course>
  <speed>0.022360679774997897</speed>
  <fix>3d</fix>
</trkpt>
<trkpt lat="-27.2744391" lon="151.2900651">
  <ele>343.1</ele>
  <time>2026-09-01T20:03:56Z</time>
  <course>23.96</course>
  <speed>0.0</speed>
  <fix>3d</fix>
</trkpt>
<trkpt lat="-27.2744389" lon="151.2900649">
  <ele>343.09</ele>
  <time>2026-09-01T20:03:56Z</time>
  <course>205.2</course>
  <speed>0.022360679774997897</speed>
  <fix>3d</fix>
</trkpt>
<trkpt lat="-27.2744391" lon="151.2900651">
  <ele>343.1</ele>
  <time>2026-09-01T20:03:56Z</time>
  <course>23.96</course>
  <speed>0.0</speed>
  <fix>3d</fix>
</trkpt>
<trkpt lat="-27.2744389" lon="151.2900649">
  <ele>343.09</ele>
  <time>2026-09-01T20:03:56Z</time>
  <course>205.21</course>
  <speed>0.022360679774997897</speed>
  <fix>3d</fix>
</trkpt>
<trkpt lat="-27.2744391" lon="151.2900651">
  <ele>343.1</ele>
  <time>2026-09-01T20:03:56Z</time>
  <course>23.68</course>
  <speed>0.0</speed>
  <fix>3d</fix>
</trkpt>
<trkpt lat="-27.2744389" lon="151.2900649">
  <ele>343.09</ele>
  <time>2026-09-01T20:03:56Z</time>
  <course>205.21</course>
  <speed>0.022360679774997897</speed>
  <fix>3d</fix>
</trkpt>
<trkpt lat="-27.2744391" lon="151.2900651">
  <ele>343.1</ele>
  <time>2026-09-01T20:03:56Z</time>
  <course>23.68</course>
  <speed>0.0</speed>
  <fix>3d</fix>
</trkpt>
<trkpt lat="-27.2744389" lon="151.2900649">
  <ele>343.09</ele>
  <time>2026-09-01T20:03:56Z</time>
  <course>205.21</course>
  <speed>0.022360679774997897</speed>
  <fix>3d</fix>
</trkpt>
<trkpt lat="-27.2744391" lon="151.2900651">
  <ele>343.1</ele>
  <time>2026-09-01T20:03:56Z</time>
  <course>203.82</course>
  <speed>0.0</speed>
  <fix>3d</fix>
</trkpt>
<trkpt lat="-27.2744389" lon="151.2900649">
  <ele>343.09</ele>
  <time>2026-09-01T20:03:56Z</time>
  <course>205.21</course>
  <speed>0.022360679774997897</speed>
  <fix>3d</fix>
</trkpt>
<trkpt lat="-27.2744391" lon="151.2900651">
  <ele>343.1</ele>
  <time>2026-09-01T20:03:56Z</time>
  <course>203.82</course>
  <speed>0.0</speed>
  <fix>3d</fix>
</trkpt>
<trkpt lat="-27.2744389" lon="151.2900649">
  <ele>343.09</ele>
  <time>2026-09-01T20:03:56Z</time>
  <course>205.22</course>
  <speed>0.022360679774997897</speed>
  <fix>3d</fix>
</trkpt>
<trkpt lat="-27.2744391" lon="151.2900651">
  <ele>343.1</ele>
  <time>2026-09-01T20:03:56Z</time>
  <course>203.64</course>
  <speed>0.0</speed>
  <fix>3d</fix>
</trkpt>
<trkpt lat="-27.2744389" lon="151.2900649">
  <ele>343.08</ele>
  <time>2026-09-01T20:03:56Z</time>
  <course>205.22</course>
  <speed>0.022360679774997897</speed>
  <fix>3d</fix>
</trkpt>
<trkpt lat="-27.2744391" lon="151.2900651">
  <ele>343.1</ele>
  <time>2026-09-01T20:03:56Z</time>
  <course>203.64</course>
  <speed>0.0</speed>
  <fix>3d</fix>
</trkpt>
<trkpt lat="-27.2744389" lon="151.2900649">
  <ele>343.08</ele>
  <time>2026-09-01T20:03:56Z</time>
  <course>205.22</course>
  <speed>0.022360679774997897</speed>
  <fix>3d</fix>
</trkpt>
<trkpt lat="-27.2744391" lon="151.2900651">
  <ele>343.1</ele>
  <time>2026-09-01T20:03:56Z</time>
  <course>23.77</course>
  <speed>0.0</speed>
  <fix>3d</fix>
</trkpt>
<trkpt lat="-27.2744389" lon="151.2900649">
  <ele>343.07</ele>
  <time>2026-09-01T20:03:56Z</time>
  <course>205.23</course>
  <speed>0.022360679774997897</speed>
  <fix>3d</fix>
</trkpt>
<trkpt lat="-27.2744391" lon="151.2900651">
  <ele>343.1</ele>
  <time>2026-09-01T20:03:56Z</time>
  <course>23.77</course>
  <speed>0.0</speed>
  <fix>3d</fix>
</trkpt>
<trkpt lat="-27.2744389" lon="151.2900649">
  <ele>343.07</ele>
  <time>2026-09-01T20:03:56Z</time>
  <course>205.23</course>
  <speed>0.022360679774997897</speed>
  <fix>3d</fix>
</trkpt>
<trkpt lat="-27.2744391" lon="151.2900651">
  <ele>343.1</ele>
  <time>2026-09-01T20:03:56Z</time>
  <course>23.56</course>
  <speed>0.0</speed>
  <fix>3d</fix>
</trkpt>
<trkpt lat="-27.2744389" lon="151.2900649">
  <ele>343.06</ele>
  <time>2026-09-01T20:03:56Z</time>
  <course>205.23</course>
  <speed>0.022360679774997897</speed>
  <fix>3d</fix>
</trkpt>
<trkpt lat="-27.2744391" lon="151.2900651">
  <ele>343.1</ele>
  <time>2026-09-01T20:03:56Z</time>
  <course>23.56</course>
  <speed>0.0</speed>
  <fix>3d</fix>
</trkpt>
<trkpt lat="-27.2744389" lon="151.2900649">
  <ele>343.06</ele>
  <time>2026-09-01T20:03:56Z</time>
  <course>205.23</course>
  <speed>0.022360679774997897</speed>
  <fix>3d</fix>
</trkpt>
<trkpt lat="-27.2744391" lon="151.2900651">
  <ele>343.1</ele>
  <time>2026-09-01T20:03:56Z</time>
  <course>203.74</course>
  <speed>0.0</speed>
  <fix>3d</fix>
</trkpt>
<trkpt lat="-27.2744389" lon="151.2900649">
  <ele>343.06</ele>
  <time>2026-09-01T20:03:57Z</time>
  <course>205.24</course>
  <speed>0.022360679774997897</speed>
  <fix>3d</fix>
</trkpt>
<trkpt lat="-27.2744391" lon="151.2900651">
  <ele>343.1</ele>
  <time>2026-09-01T20:03:57Z</time>
  <course>203.74</course>
  <speed>0.0</speed>
  <fix>3d</fix>
</trkpt>
<trkpt lat="-27.2744389" lon="151.2900649">
  <ele>343.05</ele>
  <time>2026-09-01T20:03:57Z</time>
  <course>205.24</course>
  <speed>0.022360679774997897</speed>
  <fix>3d</fix>
</trkpt>
<trkpt lat="-27.2744391" lon="151.2900651">
  <ele>343.1</ele>
  <time>2026-09-01T20:03:57Z</time>
  <course>203.11</course>
  <speed>0.0</speed>
  <fix>3d</fix>
</trkpt>
<trkpt lat="-27.2744389" lon="151.2900649">
  <ele>343.05</ele>
  <time>2026-09-01T20:03:57Z</time>
  <course>205.24</course>
  <speed>0.022360679774997897</speed>
  <fix>3d</fix>
</trkpt>
<trkpt lat="-27.2744391" lon="151.2900651">
  <ele>343.1</ele>
  <time>2026-09-01T20:03:57Z</time>
  <course>203.11</course>
  <speed>0.0</speed>
  <fix>3d</fix>
</trkpt>
<trkpt lat="-27.2744389" lon="151.2900649">
  <ele>343.04</ele>
  <time>2026-09-01T20:03:57Z</time>
  <course>205.24</course>
  <speed>0.022360679774997897</speed>
  <fix>3d</fix>
</trkpt>
<trkpt lat="-27.2744391" lon="151.2900651">
  <ele>343.1</ele>
  <time>2026-09-01T20:03:57Z</time>
  <course>23.71</course>
  <speed>0.0</speed>
  <fix>3d</fix>
</trkpt>
<trkpt lat="-27.2744389" lon="151.2900649">
  <ele>343.03</ele>
  <time>2026-09-01T20:03:57Z</time>
  <course>205.25</course>
  <speed>0.022360679774997897</speed>
  <fix>3d</fix>
</trkpt>
<trkpt lat="-27.2744391" lon="151.2900651">
  <ele>343.1</ele>
  <time>2026-09-01T20:03:57Z</time>
  <course>23.71</course>
  <speed>0.0</speed>
  <fix>3d</fix>
</trkpt>
<trkpt lat="-27.2744389" lon="151.2900649">
  <ele>343.02</ele>
  <time>2026-09-01T20:03:57Z</time>
  <course>205.25</course>
  <speed>0.022360679774997897</speed>
  <fix>3d</fix>
</trkpt>
<trkpt lat="-27.2744391" lon="151.2900651">
  <ele>343.1</ele>
  <time>2026-09-01T20:03:57Z</time>
  <course>204.09</course>
  <speed>0.0</speed>
  <fix>3d</fix>
</trkpt>
</trkseg>
</trk>
</gpx>
